﻿<?xml version="1.0" encoding="utf-8"?><gpx version="1.1" creator="izvne.com" xmlns="http://www.topografix.com/GPX/1/1"><trk><name>valencia-overview</name><trkseg><trkpt lat="39.48237268" lon="-0.38795446"><ele>-50.6</ele><time>2022-10-30T10:52:37.0000000+00:00</time></trkpt><trkpt lat="39.48237143" lon="-0.38809603"><ele>-50.6</ele><time>2022-10-30T10:52:38.0000000+00:00</time></trkpt><trkpt lat="39.48229138" lon="-0.38821204"><ele>-50.6</ele><time>2022-10-30T10:52:39.0000000+00:00</time></trkpt><trkpt lat="39.48225265" lon="-0.38819351"><ele>-50.8</ele><time>2022-10-30T10:52:40.0000000+00:00</time></trkpt><trkpt lat="39.4822436" lon="-0.38817046"><ele>-50.8</ele><time>2022-10-30T10:52:41.0000000+00:00</time></trkpt><trkpt lat="39.48228836" lon="-0.38816158"><ele>-50.8</ele><time>2022-10-30T10:52:42.0000000+00:00</time></trkpt><trkpt lat="39.48230605" lon="-0.38821128"><ele>-50.8</ele><time>2022-10-30T10:52:43.0000000+00:00</time></trkpt><trkpt lat="39.48232683" lon="-0.38823073"><ele>-50.8</ele><time>2022-10-30T10:52:44.0000000+00:00</time></trkpt><trkpt lat="39.48236883" lon="-0.38821673"><ele>-50.8</ele><time>2022-10-30T10:52:45.0000000+00:00</time></trkpt><trkpt lat="39.48239531" lon="-0.38820391"><ele>-50.8</ele><time>2022-10-30T10:52:46.0000000+00:00</time></trkpt><trkpt lat="39.48241334" lon="-0.38819276"><ele>-50.8</ele><time>2022-10-30T10:52:47.0000000+00:00</time></trkpt><trkpt lat="39.48242289" lon="-0.38818706"><ele>-50.8</ele><time>2022-10-30T10:52:48.0000000+00:00</time></trkpt><trkpt lat="39.48242675" lon="-0.38819494"><ele>-50.8</ele><time>2022-10-30T10:52:49.0000000+00:00</time></trkpt><trkpt lat="39.48242893" lon="-0.38820759"><ele>-50.8</ele><time>2022-10-30T10:52:50.0000000+00:00</time></trkpt><trkpt lat="39.48243161" lon="-0.38821128"><ele>-50.8</ele><time>2022-10-30T10:52:51.0000000+00:00</time></trkpt><trkpt lat="39.48243907" lon="-0.38822201"><ele>-50.8</ele><time>2022-10-30T10:52:52.0000000+00:00</time></trkpt><trkpt lat="39.48244426" lon="-0.38823785"><ele>-50.8</ele><time>2022-10-30T10:52:53.0000000+00:00</time></trkpt><trkpt lat="39.48245239" lon="-0.38825411"><ele>-50.8</ele><time>2022-10-30T10:52:54.0000000+00:00</time></trkpt><trkpt lat="39.48245499" lon="-0.38826903"><ele>-50.8</ele><time>2022-10-30T10:52:55.0000000+00:00</time></trkpt><trkpt lat="39.48245499" lon="-0.38827465"><ele>-50.8</ele><time>2022-10-30T10:52:56.0000000+00:00</time></trkpt><trkpt lat="39.48244678" lon="-0.38828177"><ele>-50.8</ele><time>2022-10-30T10:52:57.0000000+00:00</time></trkpt><trkpt lat="39.48243949" lon="-0.38828513"><ele>-50.8</ele><time>2022-10-30T10:52:58.0000000+00:00</time></trkpt><trkpt lat="39.48243563" lon="-0.38828563"><ele>-50.8</ele><time>2022-10-30T10:52:59.0000000+00:00</time></trkpt><trkpt lat="39.48243446" lon="-0.388292"><ele>-50.8</ele><time>2022-10-30T10:53:00.0000000+00:00</time></trkpt><trkpt lat="39.4824368" lon="-0.38829938"><ele>-50.8</ele><time>2022-10-30T10:53:01.0000000+00:00</time></trkpt><trkpt lat="39.48243957" lon="-0.38830147"><ele>-50.8</ele><time>2022-10-30T10:53:02.0000000+00:00</time></trkpt><trkpt lat="39.48244016" lon="-0.38830399"><ele>-50.8</ele><time>2022-10-30T10:53:03.0000000+00:00</time></trkpt><trkpt lat="39.48244745" lon="-0.38831061"><ele>-50.8</ele><time>2022-10-30T10:53:04.0000000+00:00</time></trkpt><trkpt lat="39.48244586" lon="-0.38830256"><ele>-51.0</ele><time>2022-10-30T10:53:05.0000000+00:00</time></trkpt><trkpt lat="39.48244787" lon="-0.38829996"><ele>-51.0</ele><time>2022-10-30T10:53:06.0000000+00:00</time></trkpt><trkpt lat="39.48244385" lon="-0.38830617"><ele>-50.8</ele><time>2022-10-30T10:53:07.0000000+00:00</time></trkpt><trkpt lat="39.48244426" lon="-0.38830172"><ele>-50.8</ele><time>2022-10-30T10:53:08.0000000+00:00</time></trkpt><trkpt lat="39.48243932" lon="-0.38830793"><ele>-50.8</ele><time>2022-10-30T10:53:09.0000000+00:00</time></trkpt><trkpt lat="39.48243865" lon="-0.38831689"><ele>-50.8</ele><time>2022-10-30T10:53:10.0000000+00:00</time></trkpt><trkpt lat="39.48244703" lon="-0.38833098"><ele>-50.8</ele><time>2022-10-30T10:53:12.0000000+00:00</time></trkpt><trkpt lat="39.48245323" lon="-0.38833743"><ele>-50.8</ele><time>2022-10-30T10:53:13.0000000+00:00</time></trkpt><trkpt lat="39.48245818" lon="-0.38834397"><ele>-50.8</ele><time>2022-10-30T10:53:14.0000000+00:00</time></trkpt><trkpt lat="39.48245885" lon="-0.38835864"><ele>-50.8</ele><time>2022-10-30T10:53:15.0000000+00:00</time></trkpt><trkpt lat="39.48245307" lon="-0.38837062"><ele>-50.8</ele><time>2022-10-30T10:53:16.0000000+00:00</time></trkpt><trkpt lat="39.48244745" lon="-0.38837523"><ele>-50.8</ele><time>2022-10-30T10:53:17.0000000+00:00</time></trkpt><trkpt lat="39.48244426" lon="-0.3883816"><ele>-50.6</ele><time>2022-10-30T10:53:18.0000000+00:00</time></trkpt><trkpt lat="39.48244209" lon="-0.388393"><ele>-50.8</ele><time>2022-10-30T10:53:19.0000000+00:00</time></trkpt><trkpt lat="39.48244217" lon="-0.3883992"><ele>-50.8</ele><time>2022-10-30T10:53:20.0000000+00:00</time></trkpt><trkpt lat="39.48244535" lon="-0.3884013"><ele>-50.8</ele><time>2022-10-30T10:53:21.0000000+00:00</time></trkpt><trkpt lat="39.48245105" lon="-0.38840457"><ele>-50.8</ele><time>2022-10-30T10:53:23.0000000+00:00</time></trkpt><trkpt lat="39.48244292" lon="-0.3884127"><ele>-50.8</ele><time>2022-10-30T10:53:24.0000000+00:00</time></trkpt><trkpt lat="39.48243965" lon="-0.38841806"><ele>-50.8</ele><time>2022-10-30T10:53:25.0000000+00:00</time></trkpt><trkpt lat="39.48243605" lon="-0.38842318"><ele>-50.8</ele><time>2022-10-30T10:53:26.0000000+00:00</time></trkpt><trkpt lat="39.48243211" lon="-0.38842762"><ele>-50.8</ele><time>2022-10-30T10:53:27.0000000+00:00</time></trkpt><trkpt lat="39.48242834" lon="-0.38842795"><ele>-50.8</ele><time>2022-10-30T10:53:28.0000000+00:00</time></trkpt><trkpt lat="39.48242541" lon="-0.38842988"><ele>-50.8</ele><time>2022-10-30T10:53:29.0000000+00:00</time></trkpt><trkpt lat="39.48241954" lon="-0.38843298"><ele>-50.8</ele><time>2022-10-30T10:53:30.0000000+00:00</time></trkpt><trkpt lat="39.48241225" lon="-0.38843843"><ele>-50.4</ele><time>2022-10-30T10:53:31.0000000+00:00</time></trkpt><trkpt lat="39.48241099" lon="-0.38844916"><ele>-50.4</ele><time>2022-10-30T10:53:32.0000000+00:00</time></trkpt><trkpt lat="39.48240956" lon="-0.38846123"><ele>-50.4</ele><time>2022-10-30T10:53:33.0000000+00:00</time></trkpt><trkpt lat="39.48240772" lon="-0.38847137"><ele>-50.2</ele><time>2022-10-30T10:53:34.0000000+00:00</time></trkpt><trkpt lat="39.48240328" lon="-0.38848277"><ele>-50.2</ele><time>2022-10-30T10:53:35.0000000+00:00</time></trkpt><trkpt lat="39.48240219" lon="-0.38849367"><ele>-50.2</ele><time>2022-10-30T10:53:36.0000000+00:00</time></trkpt><trkpt lat="39.48240034" lon="-0.38850121"><ele>-50.2</ele><time>2022-10-30T10:53:37.0000000+00:00</time></trkpt><trkpt lat="39.48239406" lon="-0.38851513"><ele>-50.2</ele><time>2022-10-30T10:53:38.0000000+00:00</time></trkpt><trkpt lat="39.48238542" lon="-0.38852837"><ele>-50.2</ele><time>2022-10-30T10:53:39.0000000+00:00</time></trkpt><trkpt lat="39.4823793" lon="-0.38853818"><ele>-50.2</ele><time>2022-10-30T10:53:40.0000000+00:00</time></trkpt><trkpt lat="39.48236564" lon="-0.38854203"><ele>-50.2</ele><time>2022-10-30T10:53:41.0000000+00:00</time></trkpt><trkpt lat="39.48234636" lon="-0.38854153"><ele>-50.2</ele><time>2022-10-30T10:53:42.0000000+00:00</time></trkpt><trkpt lat="39.48233605" lon="-0.38855335"><ele>-50.2</ele><time>2022-10-30T10:53:43.0000000+00:00</time></trkpt><trkpt lat="39.48232843" lon="-0.38856743"><ele>-50.2</ele><time>2022-10-30T10:53:44.0000000+00:00</time></trkpt><trkpt lat="39.48232063" lon="-0.38858017"><ele>-50.2</ele><time>2022-10-30T10:53:45.0000000+00:00</time></trkpt><trkpt lat="39.48231326" lon="-0.3885919"><ele>-50.2</ele><time>2022-10-30T10:53:46.0000000+00:00</time></trkpt><trkpt lat="39.48230915" lon="-0.3885976"><ele>-50.2</ele><time>2022-10-30T10:53:47.0000000+00:00</time></trkpt><trkpt lat="39.48230605" lon="-0.38860347"><ele>-50.2</ele><time>2022-10-30T10:53:48.0000000+00:00</time></trkpt><trkpt lat="39.48230613" lon="-0.38860833"><ele>-50.2</ele><time>2022-10-30T10:53:49.0000000+00:00</time></trkpt><trkpt lat="39.48230437" lon="-0.38862091"><ele>-50.2</ele><time>2022-10-30T10:53:50.0000000+00:00</time></trkpt><trkpt lat="39.4823001" lon="-0.3886292"><ele>-50.2</ele><time>2022-10-30T10:53:51.0000000+00:00</time></trkpt><trkpt lat="39.48228886" lon="-0.38863633"><ele>-50.2</ele><time>2022-10-30T10:53:52.0000000+00:00</time></trkpt><trkpt lat="39.48227453" lon="-0.38865041"><ele>-50.2</ele><time>2022-10-30T10:53:53.0000000+00:00</time></trkpt><trkpt lat="39.48226078" lon="-0.38866877"><ele>-50.0</ele><time>2022-10-30T10:53:54.0000000+00:00</time></trkpt><trkpt lat="39.48224821" lon="-0.3886914"><ele>-50.0</ele><time>2022-10-30T10:53:55.0000000+00:00</time></trkpt><trkpt lat="39.48223656" lon="-0.38871403"><ele>-50.2</ele><time>2022-10-30T10:53:56.0000000+00:00</time></trkpt><trkpt lat="39.48223556" lon="-0.3887266"><ele>-50.2</ele><time>2022-10-30T10:53:57.0000000+00:00</time></trkpt><trkpt lat="39.48223421" lon="-0.38874395"><ele>-50.2</ele><time>2022-10-30T10:53:58.0000000+00:00</time></trkpt><trkpt lat="39.48223095" lon="-0.38876005"><ele>-50.2</ele><time>2022-10-30T10:53:59.0000000+00:00</time></trkpt><trkpt lat="39.48222692" lon="-0.3887686"><ele>-50.2</ele><time>2022-10-30T10:54:00.0000000+00:00</time></trkpt><trkpt lat="39.48221913" lon="-0.38878025"><ele>-50.2</ele><time>2022-10-30T10:54:01.0000000+00:00</time></trkpt><trkpt lat="39.48221284" lon="-0.38879458"><ele>-50.2</ele><time>2022-10-30T10:54:02.0000000+00:00</time></trkpt><trkpt lat="39.4822053" lon="-0.3888121"><ele>-50.2</ele><time>2022-10-30T10:54:03.0000000+00:00</time></trkpt><trkpt lat="39.48220178" lon="-0.38882358"><ele>-50.2</ele><time>2022-10-30T10:54:04.0000000+00:00</time></trkpt><trkpt lat="39.48219691" lon="-0.38883749"><ele>-50.2</ele><time>2022-10-30T10:54:05.0000000+00:00</time></trkpt><trkpt lat="39.48218744" lon="-0.38885074"><ele>-50.2</ele><time>2022-10-30T10:54:06.0000000+00:00</time></trkpt><trkpt lat="39.48218375" lon="-0.38885837"><ele>-50.2</ele><time>2022-10-30T10:54:07.0000000+00:00</time></trkpt><trkpt lat="39.4821794" lon="-0.38887463"><ele>-50.2</ele><time>2022-10-30T10:54:08.0000000+00:00</time></trkpt><trkpt lat="39.48217529" lon="-0.38889214"><ele>-50.2</ele><time>2022-10-30T10:54:09.0000000+00:00</time></trkpt><trkpt lat="39.48216884" lon="-0.38890673"><ele>-50.2</ele><time>2022-10-30T10:54:10.0000000+00:00</time></trkpt><trkpt lat="39.4821664" lon="-0.38892249"><ele>-50.2</ele><time>2022-10-30T10:54:11.0000000+00:00</time></trkpt><trkpt lat="39.48216163" lon="-0.38893732"><ele>-50.0</ele><time>2022-10-30T10:54:12.0000000+00:00</time></trkpt><trkpt lat="39.48215291" lon="-0.38893858"><ele>-50.0</ele><time>2022-10-30T10:54:13.0000000+00:00</time></trkpt><trkpt lat="39.48214168" lon="-0.38894763"><ele>-50.0</ele><time>2022-10-30T10:54:14.0000000+00:00</time></trkpt><trkpt lat="39.48213145" lon="-0.38895375"><ele>-50.0</ele><time>2022-10-30T10:54:15.0000000+00:00</time></trkpt><trkpt lat="39.48212265" lon="-0.38896406"><ele>-50.0</ele><time>2022-10-30T10:54:16.0000000+00:00</time></trkpt><trkpt lat="39.48211636" lon="-0.38896892"><ele>-50.0</ele><time>2022-10-30T10:54:17.0000000+00:00</time></trkpt><trkpt lat="39.48210874" lon="-0.38897965"><ele>-50.0</ele><time>2022-10-30T10:54:18.0000000+00:00</time></trkpt><trkpt lat="39.48210094" lon="-0.38899851"><ele>-50.2</ele><time>2022-10-30T10:54:19.0000000+00:00</time></trkpt><trkpt lat="39.48209348" lon="-0.38901846"><ele>-50.2</ele><time>2022-10-30T10:54:20.0000000+00:00</time></trkpt><trkpt lat="39.48208862" lon="-0.38902575"><ele>-50.2</ele><time>2022-10-30T10:54:21.0000000+00:00</time></trkpt><trkpt lat="39.48208208" lon="-0.38904302"><ele>-50.2</ele><time>2022-10-30T10:54:22.0000000+00:00</time></trkpt><trkpt lat="39.48207781" lon="-0.38906892"><ele>-50.2</ele><time>2022-10-30T10:54:23.0000000+00:00</time></trkpt><trkpt lat="39.48207278" lon="-0.38908803"><ele>-50.2</ele><time>2022-10-30T10:54:24.0000000+00:00</time></trkpt><trkpt lat="39.48207018" lon="-0.38910773"><ele>-50.2</ele><time>2022-10-30T10:54:25.0000000+00:00</time></trkpt><trkpt lat="39.48206825" lon="-0.38912281"><ele>-50.2</ele><time>2022-10-30T10:54:26.0000000+00:00</time></trkpt><trkpt lat="39.48206171" lon="-0.38913782"><ele>-50.2</ele><time>2022-10-30T10:54:27.0000000+00:00</time></trkpt><trkpt lat="39.48205593" lon="-0.38915341"><ele>-50.2</ele><time>2022-10-30T10:54:28.0000000+00:00</time></trkpt><trkpt lat="39.48205249" lon="-0.38916699"><ele>-50.2</ele><time>2022-10-30T10:54:29.0000000+00:00</time></trkpt><trkpt lat="39.48204998" lon="-0.38918031"><ele>-50.2</ele><time>2022-10-30T10:54:30.0000000+00:00</time></trkpt><trkpt lat="39.48204487" lon="-0.38919582"><ele>-50.2</ele><time>2022-10-30T10:54:31.0000000+00:00</time></trkpt><trkpt lat="39.48204604" lon="-0.38920504"><ele>-50.2</ele><time>2022-10-30T10:54:32.0000000+00:00</time></trkpt><trkpt lat="39.48204327" lon="-0.38921728"><ele>-50.2</ele><time>2022-10-30T10:54:33.0000000+00:00</time></trkpt><trkpt lat="39.48203397" lon="-0.38922809"><ele>-50.2</ele><time>2022-10-30T10:54:34.0000000+00:00</time></trkpt><trkpt lat="39.48202073" lon="-0.38923756"><ele>-50.2</ele><time>2022-10-30T10:54:35.0000000+00:00</time></trkpt><trkpt lat="39.48201075" lon="-0.38924905"><ele>-50.0</ele><time>2022-10-30T10:54:36.0000000+00:00</time></trkpt><trkpt lat="39.48200421" lon="-0.38926832"><ele>-50.0</ele><time>2022-10-30T10:54:37.0000000+00:00</time></trkpt><trkpt lat="39.4819991" lon="-0.3892892"><ele>-50.2</ele><time>2022-10-30T10:54:38.0000000+00:00</time></trkpt><trkpt lat="39.48200178" lon="-0.38931786"><ele>-50.0</ele><time>2022-10-30T10:54:39.0000000+00:00</time></trkpt><trkpt lat="39.48200086" lon="-0.38934091"><ele>-50.0</ele><time>2022-10-30T10:54:40.0000000+00:00</time></trkpt><trkpt lat="39.4820022" lon="-0.38935801"><ele>-50.0</ele><time>2022-10-30T10:54:41.0000000+00:00</time></trkpt><trkpt lat="39.48200153" lon="-0.38936564"><ele>-50.2</ele><time>2022-10-30T10:54:42.0000000+00:00</time></trkpt><trkpt lat="39.48199818" lon="-0.38937905"><ele>-50.2</ele><time>2022-10-30T10:54:43.0000000+00:00</time></trkpt><trkpt lat="39.48198988" lon="-0.38939129"><ele>-50.2</ele><time>2022-10-30T10:54:44.0000000+00:00</time></trkpt><trkpt lat="39.48198284" lon="-0.38940067"><ele>-50.2</ele><time>2022-10-30T10:54:45.0000000+00:00</time></trkpt><trkpt lat="39.4819779" lon="-0.38940931"><ele>-50.2</ele><time>2022-10-30T10:54:46.0000000+00:00</time></trkpt><trkpt lat="39.48197479" lon="-0.389413"><ele>-50.2</ele><time>2022-10-30T10:54:47.0000000+00:00</time></trkpt><trkpt lat="39.48196976" lon="-0.38942188"><ele>-50.2</ele><time>2022-10-30T10:54:48.0000000+00:00</time></trkpt><trkpt lat="39.48196415" lon="-0.38943403"><ele>-50.0</ele><time>2022-10-30T10:54:49.0000000+00:00</time></trkpt><trkpt lat="39.48195946" lon="-0.38944669"><ele>-50.0</ele><time>2022-10-30T10:54:50.0000000+00:00</time></trkpt><trkpt lat="39.4819525" lon="-0.38946438"><ele>-50.2</ele><time>2022-10-30T10:54:51.0000000+00:00</time></trkpt><trkpt lat="39.48194814" lon="-0.38947687"><ele>-50.2</ele><time>2022-10-30T10:54:52.0000000+00:00</time></trkpt><trkpt lat="39.48193464" lon="-0.38952045"><ele>-50.0</ele><time>2022-10-30T10:54:53.0000000+00:00</time></trkpt><trkpt lat="39.48192886" lon="-0.38954401"><ele>-50.0</ele><time>2022-10-30T10:54:54.0000000+00:00</time></trkpt><trkpt lat="39.48191796" lon="-0.38956362"><ele>-50.0</ele><time>2022-10-30T10:54:55.0000000+00:00</time></trkpt><trkpt lat="39.48190346" lon="-0.3895829"><ele>-50.0</ele><time>2022-10-30T10:54:56.0000000+00:00</time></trkpt><trkpt lat="39.4818955" lon="-0.38959539"><ele>-50.0</ele><time>2022-10-30T10:54:57.0000000+00:00</time></trkpt><trkpt lat="39.48188737" lon="-0.38961064"><ele>-50.0</ele><time>2022-10-30T10:54:58.0000000+00:00</time></trkpt><trkpt lat="39.48187932" lon="-0.38962464"><ele>-50.0</ele><time>2022-10-30T10:54:59.0000000+00:00</time></trkpt><trkpt lat="39.48187153" lon="-0.38964165"><ele>-50.0</ele><time>2022-10-30T10:55:00.0000000+00:00</time></trkpt><trkpt lat="39.48186306" lon="-0.38966051"><ele>-50.0</ele><time>2022-10-30T10:55:01.0000000+00:00</time></trkpt><trkpt lat="39.48185393" lon="-0.38967887"><ele>-50.0</ele><time>2022-10-30T10:55:02.0000000+00:00</time></trkpt><trkpt lat="39.48184705" lon="-0.38969706"><ele>-50.0</ele><time>2022-10-30T10:55:03.0000000+00:00</time></trkpt><trkpt lat="39.48184127" lon="-0.38971583"><ele>-50.0</ele><time>2022-10-30T10:55:04.0000000+00:00</time></trkpt><trkpt lat="39.48183448" lon="-0.38972564"><ele>-50.0</ele><time>2022-10-30T10:55:05.0000000+00:00</time></trkpt><trkpt lat="39.48182451" lon="-0.38973763"><ele>-50.0</ele><time>2022-10-30T10:55:06.0000000+00:00</time></trkpt><trkpt lat="39.48181847" lon="-0.38975104"><ele>-50.0</ele><time>2022-10-30T10:55:07.0000000+00:00</time></trkpt><trkpt lat="39.48181604" lon="-0.38976017"><ele>-50.0</ele><time>2022-10-30T10:55:08.0000000+00:00</time></trkpt><trkpt lat="39.48182501" lon="-0.38976747"><ele>-50.0</ele><time>2022-10-30T10:55:09.0000000+00:00</time></trkpt><trkpt lat="39.48182643" lon="-0.38978172"><ele>-50.0</ele><time>2022-10-30T10:55:10.0000000+00:00</time></trkpt><trkpt lat="39.48182073" lon="-0.38980099"><ele>-50.0</ele><time>2022-10-30T10:55:11.0000000+00:00</time></trkpt><trkpt lat="39.48181512" lon="-0.38981809"><ele>-50.0</ele><time>2022-10-30T10:55:12.0000000+00:00</time></trkpt><trkpt lat="39.48181026" lon="-0.38983033"><ele>-50.0</ele><time>2022-10-30T10:55:13.0000000+00:00</time></trkpt><trkpt lat="39.4818111" lon="-0.38984433"><ele>-50.0</ele><time>2022-10-30T10:55:14.0000000+00:00</time></trkpt><trkpt lat="39.48180925" lon="-0.3898631"><ele>-49.8</ele><time>2022-10-30T10:55:15.0000000+00:00</time></trkpt><trkpt lat="39.48179165" lon="-0.38988892"><ele>-49.8</ele><time>2022-10-30T10:55:16.0000000+00:00</time></trkpt><trkpt lat="39.48178587" lon="-0.38990476"><ele>-49.8</ele><time>2022-10-30T10:55:17.0000000+00:00</time></trkpt><trkpt lat="39.48177924" lon="-0.38992379"><ele>-49.8</ele><time>2022-10-30T10:55:18.0000000+00:00</time></trkpt><trkpt lat="39.48177111" lon="-0.38993334"><ele>-50.0</ele><time>2022-10-30T10:55:19.0000000+00:00</time></trkpt><trkpt lat="39.48176223" lon="-0.38994399"><ele>-50.2</ele><time>2022-10-30T10:55:20.0000000+00:00</time></trkpt><trkpt lat="39.48175485" lon="-0.38995665"><ele>-50.2</ele><time>2022-10-30T10:55:21.0000000+00:00</time></trkpt><trkpt lat="39.4817463" lon="-0.3899662"><ele>-50.2</ele><time>2022-10-30T10:55:22.0000000+00:00</time></trkpt><trkpt lat="39.48173407" lon="-0.38997375"><ele>-50.2</ele><time>2022-10-30T10:55:23.0000000+00:00</time></trkpt><trkpt lat="39.48172133" lon="-0.38998121"><ele>-50.2</ele><time>2022-10-30T10:55:24.0000000+00:00</time></trkpt><trkpt lat="39.48170423" lon="-0.38998464"><ele>-50.2</ele><time>2022-10-30T10:55:25.0000000+00:00</time></trkpt><trkpt lat="39.48168939" lon="-0.38998657"><ele>-50.2</ele><time>2022-10-30T10:55:26.0000000+00:00</time></trkpt><trkpt lat="39.48167715" lon="-0.38998573"><ele>-50.2</ele><time>2022-10-30T10:55:27.0000000+00:00</time></trkpt><trkpt lat="39.4816655" lon="-0.38998313"><ele>-50.2</ele><time>2022-10-30T10:55:28.0000000+00:00</time></trkpt><trkpt lat="39.48166064" lon="-0.38997534"><ele>-50.2</ele><time>2022-10-30T10:55:29.0000000+00:00</time></trkpt><trkpt lat="39.48165117" lon="-0.38997157"><ele>-50.2</ele><time>2022-10-30T10:55:30.0000000+00:00</time></trkpt><trkpt lat="39.48164145" lon="-0.38997207"><ele>-50.4</ele><time>2022-10-30T10:55:31.0000000+00:00</time></trkpt><trkpt lat="39.48162938" lon="-0.38997643"><ele>-50.4</ele><time>2022-10-30T10:55:32.0000000+00:00</time></trkpt><trkpt lat="39.48162116" lon="-0.38998121"><ele>-50.4</ele><time>2022-10-30T10:55:33.0000000+00:00</time></trkpt><trkpt lat="39.48161345" lon="-0.38998238"><ele>-50.4</ele><time>2022-10-30T10:55:34.0000000+00:00</time></trkpt><trkpt lat="39.48160188" lon="-0.38998121"><ele>-50.4</ele><time>2022-10-30T10:55:35.0000000+00:00</time></trkpt><trkpt lat="39.48158898" lon="-0.38997073"><ele>-50.4</ele><time>2022-10-30T10:55:36.0000000+00:00</time></trkpt><trkpt lat="39.48157271" lon="-0.3899605"><ele>-50.4</ele><time>2022-10-30T10:55:37.0000000+00:00</time></trkpt><trkpt lat="39.48156358" lon="-0.38994273"><ele>-50.4</ele><time>2022-10-30T10:55:38.0000000+00:00</time></trkpt><trkpt lat="39.48156106" lon="-0.38994097"><ele>-50.4</ele><time>2022-10-30T10:55:39.0000000+00:00</time></trkpt><trkpt lat="39.48156023" lon="-0.38993812"><ele>-50.4</ele><time>2022-10-30T10:55:40.0000000+00:00</time></trkpt><trkpt lat="39.48155779" lon="-0.38993477"><ele>-50.4</ele><time>2022-10-30T10:55:41.0000000+00:00</time></trkpt><trkpt lat="39.48155863" lon="-0.38994843"><ele>-50.4</ele><time>2022-10-30T10:55:42.0000000+00:00</time></trkpt><trkpt lat="39.48155612" lon="-0.38994458"><ele>-50.4</ele><time>2022-10-30T10:55:43.0000000+00:00</time></trkpt><trkpt lat="39.48155184" lon="-0.38994567"><ele>-50.4</ele><time>2022-10-30T10:55:44.0000000+00:00</time></trkpt><trkpt lat="39.48154933" lon="-0.38994684"><ele>-50.4</ele><time>2022-10-30T10:55:45.0000000+00:00</time></trkpt><trkpt lat="39.48155184" lon="-0.38994793"><ele>-50.6</ele><time>2022-10-30T10:55:46.0000000+00:00</time></trkpt><trkpt lat="39.48155687" lon="-0.38993997"><ele>-50.6</ele><time>2022-10-30T10:55:47.0000000+00:00</time></trkpt><trkpt lat="39.48155955" lon="-0.38992857"><ele>-50.6</ele><time>2022-10-30T10:55:48.0000000+00:00</time></trkpt><trkpt lat="39.48155754" lon="-0.38991532"><ele>-50.6</ele><time>2022-10-30T10:55:49.0000000+00:00</time></trkpt><trkpt lat="39.4815552" lon="-0.38990451"><ele>-50.6</ele><time>2022-10-30T10:55:50.0000000+00:00</time></trkpt><trkpt lat="39.48154715" lon="-0.3898911"><ele>-50.6</ele><time>2022-10-30T10:55:51.0000000+00:00</time></trkpt><trkpt lat="39.48154338" lon="-0.38986646"><ele>-50.6</ele><time>2022-10-30T10:55:52.0000000+00:00</time></trkpt><trkpt lat="39.4815417" lon="-0.38984383"><ele>-50.6</ele><time>2022-10-30T10:55:53.0000000+00:00</time></trkpt><trkpt lat="39.4815391" lon="-0.38982807"><ele>-50.6</ele><time>2022-10-30T10:55:54.0000000+00:00</time></trkpt><trkpt lat="39.4815355" lon="-0.38981549"><ele>-50.6</ele><time>2022-10-30T10:55:55.0000000+00:00</time></trkpt><trkpt lat="39.48153072" lon="-0.38979387"><ele>-50.6</ele><time>2022-10-30T10:55:56.0000000+00:00</time></trkpt><trkpt lat="39.4815236" lon="-0.38977551"><ele>-50.6</ele><time>2022-10-30T10:55:57.0000000+00:00</time></trkpt><trkpt lat="39.48151488" lon="-0.38976747"><ele>-50.6</ele><time>2022-10-30T10:55:58.0000000+00:00</time></trkpt><trkpt lat="39.48150407" lon="-0.38976177"><ele>-50.6</ele><time>2022-10-30T10:55:59.0000000+00:00</time></trkpt><trkpt lat="39.48150231" lon="-0.38974769"><ele>-50.6</ele><time>2022-10-30T10:56:00.0000000+00:00</time></trkpt><trkpt lat="39.48150499" lon="-0.38972849"><ele>-50.6</ele><time>2022-10-30T10:56:01.0000000+00:00</time></trkpt><trkpt lat="39.48150541" lon="-0.38971516"><ele>-50.6</ele><time>2022-10-30T10:56:02.0000000+00:00</time></trkpt><trkpt lat="39.48150532" lon="-0.3896958"><ele>-50.8</ele><time>2022-10-30T10:56:03.0000000+00:00</time></trkpt><trkpt lat="39.48150516" lon="-0.38968239"><ele>-50.8</ele><time>2022-10-30T10:56:04.0000000+00:00</time></trkpt><trkpt lat="39.48150088" lon="-0.38966898"><ele>-50.8</ele><time>2022-10-30T10:56:05.0000000+00:00</time></trkpt><trkpt lat="39.48148957" lon="-0.38965926"><ele>-50.8</ele><time>2022-10-30T10:56:06.0000000+00:00</time></trkpt><trkpt lat="39.48148537" lon="-0.38965431"><ele>-50.8</ele><time>2022-10-30T10:56:07.0000000+00:00</time></trkpt><trkpt lat="39.48148294" lon="-0.38965305"><ele>-51.0</ele><time>2022-10-30T10:56:08.0000000+00:00</time></trkpt><trkpt lat="39.48147766" lon="-0.38964325"><ele>-51.0</ele><time>2022-10-30T10:56:09.0000000+00:00</time></trkpt><trkpt lat="39.48147129" lon="-0.38963771"><ele>-51.0</ele><time>2022-10-30T10:56:10.0000000+00:00</time></trkpt><trkpt lat="39.48145788" lon="-0.38964157"><ele>-51.0</ele><time>2022-10-30T10:56:11.0000000+00:00</time></trkpt><trkpt lat="39.48144766" lon="-0.38964517"><ele>-51.0</ele><time>2022-10-30T10:56:12.0000000+00:00</time></trkpt><trkpt lat="39.48144757" lon="-0.38964593"><ele>-51.0</ele><time>2022-10-30T10:56:13.0000000+00:00</time></trkpt><trkpt lat="39.48144187" lon="-0.38964978"><ele>-51.0</ele><time>2022-10-30T10:56:14.0000000+00:00</time></trkpt><trkpt lat="39.48144179" lon="-0.38965037"><ele>-51.0</ele><time>2022-10-30T10:56:15.0000000+00:00</time></trkpt><trkpt lat="39.48144171" lon="-0.38965113"><ele>-51.0</ele><time>2022-10-30T10:56:16.0000000+00:00</time></trkpt><trkpt lat="39.48144154" lon="-0.38965154"><ele>-51.0</ele><time>2022-10-30T10:56:17.0000000+00:00</time></trkpt><trkpt lat="39.48143676" lon="-0.38964149"><ele>-51.0</ele><time>2022-10-30T10:56:18.0000000+00:00</time></trkpt><trkpt lat="39.48143533" lon="-0.38963361"><ele>-51.0</ele><time>2022-10-30T10:56:19.0000000+00:00</time></trkpt><trkpt lat="39.48143349" lon="-0.38963243"><ele>-51.0</ele><time>2022-10-30T10:56:20.0000000+00:00</time></trkpt><trkpt lat="39.48143274" lon="-0.3896326"><ele>-51.0</ele><time>2022-10-30T10:56:21.0000000+00:00</time></trkpt><trkpt lat="39.48142964" lon="-0.38963352"><ele>-51.0</ele><time>2022-10-30T10:56:22.0000000+00:00</time></trkpt><trkpt lat="39.48142737" lon="-0.3896295"><ele>-51.0</ele><time>2022-10-30T10:56:23.0000000+00:00</time></trkpt><trkpt lat="39.48142486" lon="-0.38962279"><ele>-51.0</ele><time>2022-10-30T10:56:24.0000000+00:00</time></trkpt><trkpt lat="39.48142201" lon="-0.38962263"><ele>-51.0</ele><time>2022-10-30T10:56:25.0000000+00:00</time></trkpt><trkpt lat="39.48142008" lon="-0.38962347"><ele>-51.0</ele><time>2022-10-30T10:56:26.0000000+00:00</time></trkpt><trkpt lat="39.48141212" lon="-0.38961768"><ele>-51.0</ele><time>2022-10-30T10:56:27.0000000+00:00</time></trkpt><trkpt lat="39.48141019" lon="-0.38960737"><ele>-51.0</ele><time>2022-10-30T10:56:28.0000000+00:00</time></trkpt><trkpt lat="39.48140885" lon="-0.38960293"><ele>-51.0</ele><time>2022-10-30T10:56:29.0000000+00:00</time></trkpt><trkpt lat="39.48140793" lon="-0.3896015"><ele>-51.0</ele><time>2022-10-30T10:56:30.0000000+00:00</time></trkpt><trkpt lat="39.481407" lon="-0.38959807"><ele>-51.0</ele><time>2022-10-30T10:56:31.0000000+00:00</time></trkpt><trkpt lat="39.48140633" lon="-0.3895948"><ele>-51.0</ele><time>2022-10-30T10:56:32.0000000+00:00</time></trkpt><trkpt lat="39.48140675" lon="-0.38959379"><ele>-51.0</ele><time>2022-10-30T10:56:33.0000000+00:00</time></trkpt><trkpt lat="39.48140717" lon="-0.38959245"><ele>-51.2</ele><time>2022-10-30T10:56:34.0000000+00:00</time></trkpt><trkpt lat="39.48140784" lon="-0.38959639"><ele>-51.2</ele><time>2022-10-30T10:56:35.0000000+00:00</time></trkpt><trkpt lat="39.48141002" lon="-0.38960008"><ele>-51.2</ele><time>2022-10-30T10:56:36.0000000+00:00</time></trkpt><trkpt lat="39.48140918" lon="-0.38959798"><ele>-51.2</ele><time>2022-10-30T10:56:37.0000000+00:00</time></trkpt><trkpt lat="39.48141019" lon="-0.38959555"><ele>-51.2</ele><time>2022-10-30T10:56:38.0000000+00:00</time></trkpt><trkpt lat="39.4814055" lon="-0.38959639"><ele>-51.2</ele><time>2022-10-30T10:56:39.0000000+00:00</time></trkpt><trkpt lat="39.48140441" lon="-0.38959664"><ele>-51.2</ele><time>2022-10-30T10:56:40.0000000+00:00</time></trkpt><trkpt lat="39.48140348" lon="-0.38959472"><ele>-51.2</ele><time>2022-10-30T10:56:41.0000000+00:00</time></trkpt><trkpt lat="39.48140474" lon="-0.38959245"><ele>-51.2</ele><time>2022-10-30T10:56:42.0000000+00:00</time></trkpt><trkpt lat="39.48140466" lon="-0.38959078"><ele>-51.2</ele><time>2022-10-30T10:56:43.0000000+00:00</time></trkpt><trkpt lat="39.48141321" lon="-0.38959983"><ele>-51.2</ele><time>2022-10-30T10:56:44.0000000+00:00</time></trkpt><trkpt lat="39.48141916" lon="-0.38961022"><ele>-51.2</ele><time>2022-10-30T10:56:45.0000000+00:00</time></trkpt><trkpt lat="39.48143005" lon="-0.38961534"><ele>-51.0</ele><time>2022-10-30T10:56:46.0000000+00:00</time></trkpt><trkpt lat="39.48143718" lon="-0.38962229"><ele>-51.0</ele><time>2022-10-30T10:56:47.0000000+00:00</time></trkpt><trkpt lat="39.48144087" lon="-0.38962774"><ele>-51.0</ele><time>2022-10-30T10:56:48.0000000+00:00</time></trkpt><trkpt lat="39.48144296" lon="-0.38963051"><ele>-51.2</ele><time>2022-10-30T10:56:49.0000000+00:00</time></trkpt><trkpt lat="39.4814464" lon="-0.38963176"><ele>-51.2</ele><time>2022-10-30T10:56:50.0000000+00:00</time></trkpt><trkpt lat="39.4814495" lon="-0.38963319"><ele>-51.0</ele><time>2022-10-30T10:56:51.0000000+00:00</time></trkpt><trkpt lat="39.48145495" lon="-0.38963503"><ele>-51.0</ele><time>2022-10-30T10:56:52.0000000+00:00</time></trkpt><trkpt lat="39.48145797" lon="-0.38963528"><ele>-51.0</ele><time>2022-10-30T10:56:53.0000000+00:00</time></trkpt><trkpt lat="39.4814588" lon="-0.38963931"><ele>-51.0</ele><time>2022-10-30T10:56:54.0000000+00:00</time></trkpt><trkpt lat="39.48146065" lon="-0.38964258"><ele>-51.0</ele><time>2022-10-30T10:56:55.0000000+00:00</time></trkpt><trkpt lat="39.48146073" lon="-0.38964308"><ele>-51.0</ele><time>2022-10-30T10:56:56.0000000+00:00</time></trkpt><trkpt lat="39.481463" lon="-0.38964341"><ele>-51.0</ele><time>2022-10-30T10:56:57.0000000+00:00</time></trkpt><trkpt lat="39.48144464" lon="-0.38961165"><ele>-51.0</ele><time>2022-10-30T10:56:58.0000000+00:00</time></trkpt><trkpt lat="39.48144556" lon="-0.38959354"><ele>-51.0</ele><time>2022-10-30T10:56:59.0000000+00:00</time></trkpt><trkpt lat="39.48145562" lon="-0.38958248"><ele>-51.0</ele><time>2022-10-30T10:57:00.0000000+00:00</time></trkpt><trkpt lat="39.48146978" lon="-0.38957586"><ele>-51.0</ele><time>2022-10-30T10:57:01.0000000+00:00</time></trkpt><trkpt lat="39.48148085" lon="-0.38955784"><ele>-51.0</ele><time>2022-10-30T10:57:02.0000000+00:00</time></trkpt><trkpt lat="39.48148856" lon="-0.38954937"><ele>-50.8</ele><time>2022-10-30T10:57:03.0000000+00:00</time></trkpt><trkpt lat="39.4814894" lon="-0.38955465"><ele>-50.8</ele><time>2022-10-30T10:57:04.0000000+00:00</time></trkpt><trkpt lat="39.48148345" lon="-0.3895632"><ele>-50.8</ele><time>2022-10-30T10:57:05.0000000+00:00</time></trkpt><trkpt lat="39.48147758" lon="-0.38957192"><ele>-50.6</ele><time>2022-10-30T10:57:06.0000000+00:00</time></trkpt><trkpt lat="39.48147398" lon="-0.3895725"><ele>-50.6</ele><time>2022-10-30T10:57:07.0000000+00:00</time></trkpt><trkpt lat="39.48147104" lon="-0.38957125"><ele>-50.6</ele><time>2022-10-30T10:57:08.0000000+00:00</time></trkpt><trkpt lat="39.48147012" lon="-0.38958072"><ele>-50.6</ele><time>2022-10-30T10:57:09.0000000+00:00</time></trkpt><trkpt lat="39.48147255" lon="-0.38959304"><ele>-50.6</ele><time>2022-10-30T10:57:10.0000000+00:00</time></trkpt><trkpt lat="39.48147071" lon="-0.38961542"><ele>-50.4</ele><time>2022-10-30T10:57:11.0000000+00:00</time></trkpt><trkpt lat="39.48145034" lon="-0.38968918"><ele>-51.0</ele><time>2022-10-30T10:57:12.0000000+00:00</time></trkpt><trkpt lat="39.48143366" lon="-0.38973235"><ele>-51.0</ele><time>2022-10-30T10:57:13.0000000+00:00</time></trkpt><trkpt lat="39.48141497" lon="-0.38978532"><ele>-51.0</ele><time>2022-10-30T10:57:14.0000000+00:00</time></trkpt><trkpt lat="39.48140801" lon="-0.38981918"><ele>-51.0</ele><time>2022-10-30T10:57:15.0000000+00:00</time></trkpt><trkpt lat="39.48139736" lon="-0.38983243"><ele>-51.0</ele><time>2022-10-30T10:57:16.0000000+00:00</time></trkpt><trkpt lat="39.48138462" lon="-0.38984475"><ele>-51.2</ele><time>2022-10-30T10:57:17.0000000+00:00</time></trkpt><trkpt lat="39.48136426" lon="-0.38987123"><ele>-51.2</ele><time>2022-10-30T10:57:18.0000000+00:00</time></trkpt><trkpt lat="39.4813661" lon="-0.38983511"><ele>-51.2</ele><time>2022-10-30T10:57:19.0000000+00:00</time></trkpt><trkpt lat="39.48137063" lon="-0.38979907"><ele>-51.6</ele><time>2022-10-30T10:57:20.0000000+00:00</time></trkpt><trkpt lat="39.48135747" lon="-0.38979068"><ele>-51.8</ele><time>2022-10-30T10:57:21.0000000+00:00</time></trkpt><trkpt lat="39.48134121" lon="-0.38977476"><ele>-51.8</ele><time>2022-10-30T10:57:22.0000000+00:00</time></trkpt><trkpt lat="39.48132805" lon="-0.38976135"><ele>-51.8</ele><time>2022-10-30T10:57:23.0000000+00:00</time></trkpt><trkpt lat="39.48131053" lon="-0.38976579"><ele>-51.8</ele><time>2022-10-30T10:57:24.0000000+00:00</time></trkpt><trkpt lat="39.48130701" lon="-0.38976269"><ele>-51.8</ele><time>2022-10-30T10:57:25.0000000+00:00</time></trkpt><trkpt lat="39.481292" lon="-0.38976353"><ele>-51.8</ele><time>2022-10-30T10:57:26.0000000+00:00</time></trkpt><trkpt lat="39.48127734" lon="-0.38976587"><ele>-51.8</ele><time>2022-10-30T10:57:27.0000000+00:00</time></trkpt><trkpt lat="39.48125672" lon="-0.38978658"><ele>-51.8</ele><time>2022-10-30T10:57:28.0000000+00:00</time></trkpt><trkpt lat="39.48123551" lon="-0.38981885"><ele>-51.8</ele><time>2022-10-30T10:57:29.0000000+00:00</time></trkpt><trkpt lat="39.48119301" lon="-0.38994977"><ele>-51.8</ele><time>2022-10-30T10:57:30.0000000+00:00</time></trkpt><trkpt lat="39.48117323" lon="-0.38996293"><ele>-51.8</ele><time>2022-10-30T10:57:31.0000000+00:00</time></trkpt><trkpt lat="39.48113761" lon="-0.39002228"><ele>-51.8</ele><time>2022-10-30T10:57:32.0000000+00:00</time></trkpt><trkpt lat="39.48111909" lon="-0.39004348"><ele>-51.8</ele><time>2022-10-30T10:57:33.0000000+00:00</time></trkpt><trkpt lat="39.48111263" lon="-0.39004868"><ele>-51.8</ele><time>2022-10-30T10:57:34.0000000+00:00</time></trkpt><trkpt lat="39.48110827" lon="-0.39002345"><ele>-51.8</ele><time>2022-10-30T10:57:35.0000000+00:00</time></trkpt><trkpt lat="39.48110341" lon="-0.39001557"><ele>-51.8</ele><time>2022-10-30T10:57:36.0000000+00:00</time></trkpt><trkpt lat="39.48108229" lon="-0.39002311"><ele>-51.6</ele><time>2022-10-30T10:57:37.0000000+00:00</time></trkpt><trkpt lat="39.4810615" lon="-0.39003083"><ele>-51.8</ele><time>2022-10-30T10:57:38.0000000+00:00</time></trkpt><trkpt lat="39.48104348" lon="-0.39003066"><ele>-51.8</ele><time>2022-10-30T10:57:39.0000000+00:00</time></trkpt><trkpt lat="39.48103225" lon="-0.3900066"><ele>-51.8</ele><time>2022-10-30T10:57:40.0000000+00:00</time></trkpt><trkpt lat="39.48101708" lon="-0.3899833"><ele>-51.6</ele><time>2022-10-30T10:57:41.0000000+00:00</time></trkpt><trkpt lat="39.481003" lon="-0.38996503"><ele>-51.6</ele><time>2022-10-30T10:57:42.0000000+00:00</time></trkpt><trkpt lat="39.48099059" lon="-0.38994961"><ele>-51.6</ele><time>2022-10-30T10:57:43.0000000+00:00</time></trkpt><trkpt lat="39.48097567" lon="-0.38994407"><ele>-51.6</ele><time>2022-10-30T10:57:44.0000000+00:00</time></trkpt><trkpt lat="39.48095421" lon="-0.38993745"><ele>-51.6</ele><time>2022-10-30T10:57:45.0000000+00:00</time></trkpt><trkpt lat="39.48092387" lon="-0.38990325"><ele>-51.6</ele><time>2022-10-30T10:57:46.0000000+00:00</time></trkpt><trkpt lat="39.48089881" lon="-0.38985238"><ele>-51.6</ele><time>2022-10-30T10:57:47.0000000+00:00</time></trkpt><trkpt lat="39.48087459" lon="-0.38981005"><ele>-51.6</ele><time>2022-10-30T10:57:48.0000000+00:00</time></trkpt><trkpt lat="39.48085757" lon="-0.38975892"><ele>-51.6</ele><time>2022-10-30T10:57:49.0000000+00:00</time></trkpt><trkpt lat="39.48085346" lon="-0.38973285"><ele>-51.6</ele><time>2022-10-30T10:57:50.0000000+00:00</time></trkpt><trkpt lat="39.48085154" lon="-0.38969195"><ele>-51.6</ele><time>2022-10-30T10:57:51.0000000+00:00</time></trkpt><trkpt lat="39.48085128" lon="-0.38965481"><ele>-51.6</ele><time>2022-10-30T10:57:52.0000000+00:00</time></trkpt><trkpt lat="39.48083796" lon="-0.38962623"><ele>-51.8</ele><time>2022-10-30T10:57:53.0000000+00:00</time></trkpt><trkpt lat="39.48083377" lon="-0.38961693"><ele>-51.8</ele><time>2022-10-30T10:57:54.0000000+00:00</time></trkpt><trkpt lat="39.48083201" lon="-0.3896114"><ele>-51.8</ele><time>2022-10-30T10:57:55.0000000+00:00</time></trkpt><trkpt lat="39.48082128" lon="-0.38960754"><ele>-51.8</ele><time>2022-10-30T10:57:56.0000000+00:00</time></trkpt><trkpt lat="39.48080334" lon="-0.38960637"><ele>-51.8</ele><time>2022-10-30T10:57:57.0000000+00:00</time></trkpt><trkpt lat="39.48078549" lon="-0.38960377"><ele>-51.6</ele><time>2022-10-30T10:57:58.0000000+00:00</time></trkpt><trkpt lat="39.48077358" lon="-0.3895984"><ele>-51.6</ele><time>2022-10-30T10:57:59.0000000+00:00</time></trkpt><trkpt lat="39.48076252" lon="-0.38958902"><ele>-51.6</ele><time>2022-10-30T10:58:00.0000000+00:00</time></trkpt><trkpt lat="39.48075187" lon="-0.38957845"><ele>-51.6</ele><time>2022-10-30T10:58:01.0000000+00:00</time></trkpt><trkpt lat="39.48074148" lon="-0.38956471"><ele>-51.6</ele><time>2022-10-30T10:58:02.0000000+00:00</time></trkpt><trkpt lat="39.4807341" lon="-0.38954761"><ele>-51.6</ele><time>2022-10-30T10:58:03.0000000+00:00</time></trkpt><trkpt lat="39.48072338" lon="-0.3895404"><ele>-51.6</ele><time>2022-10-30T10:58:04.0000000+00:00</time></trkpt><trkpt lat="39.48071105" lon="-0.3895233"><ele>-51.6</ele><time>2022-10-30T10:58:05.0000000+00:00</time></trkpt><trkpt lat="39.48069303" lon="-0.38950796"><ele>-51.6</ele><time>2022-10-30T10:58:06.0000000+00:00</time></trkpt><trkpt lat="39.48067535" lon="-0.38949556"><ele>-51.6</ele><time>2022-10-30T10:58:07.0000000+00:00</time></trkpt><trkpt lat="39.48065741" lon="-0.38948625"><ele>-51.6</ele><time>2022-10-30T10:58:08.0000000+00:00</time></trkpt><trkpt lat="39.48064827" lon="-0.38946731"><ele>-51.6</ele><time>2022-10-30T10:58:09.0000000+00:00</time></trkpt><trkpt lat="39.48063713" lon="-0.38945884"><ele>-51.6</ele><time>2022-10-30T10:58:10.0000000+00:00</time></trkpt><trkpt lat="39.48061969" lon="-0.38944937"><ele>-51.6</ele><time>2022-10-30T10:58:11.0000000+00:00</time></trkpt><trkpt lat="39.48060494" lon="-0.38944325"><ele>-51.6</ele><time>2022-10-30T10:58:12.0000000+00:00</time></trkpt><trkpt lat="39.48059455" lon="-0.38943102"><ele>-51.6</ele><time>2022-10-30T10:58:13.0000000+00:00</time></trkpt><trkpt lat="39.48058415" lon="-0.38941685"><ele>-51.6</ele><time>2022-10-30T10:58:14.0000000+00:00</time></trkpt><trkpt lat="39.48057175" lon="-0.38940151"><ele>-51.6</ele><time>2022-10-30T10:58:15.0000000+00:00</time></trkpt><trkpt lat="39.48055884" lon="-0.38939011"><ele>-51.6</ele><time>2022-10-30T10:58:16.0000000+00:00</time></trkpt><trkpt lat="39.48053981" lon="-0.38938249"><ele>-51.6</ele><time>2022-10-30T10:58:17.0000000+00:00</time></trkpt><trkpt lat="39.48052246" lon="-0.38936958"><ele>-51.6</ele><time>2022-10-30T10:58:18.0000000+00:00</time></trkpt><trkpt lat="39.48050427" lon="-0.38935524"><ele>-51.6</ele><time>2022-10-30T10:58:19.0000000+00:00</time></trkpt><trkpt lat="39.48049153" lon="-0.38934787"><ele>-51.6</ele><time>2022-10-30T10:58:20.0000000+00:00</time></trkpt><trkpt lat="39.48047896" lon="-0.3893467"><ele>-51.6</ele><time>2022-10-30T10:58:21.0000000+00:00</time></trkpt><trkpt lat="39.48046672" lon="-0.38934259"><ele>-51.6</ele><time>2022-10-30T10:58:22.0000000+00:00</time></trkpt><trkpt lat="39.4804549" lon="-0.38933597"><ele>-51.6</ele><time>2022-10-30T10:58:23.0000000+00:00</time></trkpt><trkpt lat="39.48044258" lon="-0.38933169"><ele>-51.6</ele><time>2022-10-30T10:58:24.0000000+00:00</time></trkpt><trkpt lat="39.48042171" lon="-0.3893296"><ele>-51.6</ele><time>2022-10-30T10:58:25.0000000+00:00</time></trkpt><trkpt lat="39.48040704" lon="-0.38931199"><ele>-51.6</ele><time>2022-10-30T10:58:26.0000000+00:00</time></trkpt><trkpt lat="39.48038642" lon="-0.38930797"><ele>-51.6</ele><time>2022-10-30T10:58:27.0000000+00:00</time></trkpt><trkpt lat="39.48038064" lon="-0.38930655"><ele>-51.6</ele><time>2022-10-30T10:58:28.0000000+00:00</time></trkpt><trkpt lat="39.48036178" lon="-0.38930303"><ele>-51.6</ele><time>2022-10-30T10:58:29.0000000+00:00</time></trkpt><trkpt lat="39.48037343" lon="-0.38926413"><ele>-51.6</ele><time>2022-10-30T10:58:30.0000000+00:00</time></trkpt><trkpt lat="39.48037469" lon="-0.38923329"><ele>-51.6</ele><time>2022-10-30T10:58:31.0000000+00:00</time></trkpt><trkpt lat="39.48036999" lon="-0.38924377"><ele>-51.6</ele><time>2022-10-30T10:58:32.0000000+00:00</time></trkpt><trkpt lat="39.48035709" lon="-0.38925097"><ele>-51.6</ele><time>2022-10-30T10:58:33.0000000+00:00</time></trkpt><trkpt lat="39.48034577" lon="-0.38924326"><ele>-51.6</ele><time>2022-10-30T10:58:34.0000000+00:00</time></trkpt><trkpt lat="39.48034217" lon="-0.38922382"><ele>-51.6</ele><time>2022-10-30T10:58:35.0000000+00:00</time></trkpt><trkpt lat="39.48032943" lon="-0.38922273"><ele>-51.6</ele><time>2022-10-30T10:58:36.0000000+00:00</time></trkpt><trkpt lat="39.48032322" lon="-0.38921175"><ele>-51.6</ele><time>2022-10-30T10:58:37.0000000+00:00</time></trkpt><trkpt lat="39.48031073" lon="-0.3892006"><ele>-51.6</ele><time>2022-10-30T10:58:38.0000000+00:00</time></trkpt><trkpt lat="39.48029959" lon="-0.38919515"><ele>-51.6</ele><time>2022-10-30T10:58:39.0000000+00:00</time></trkpt><trkpt lat="39.48028509" lon="-0.38919666"><ele>-51.6</ele><time>2022-10-30T10:58:40.0000000+00:00</time></trkpt><trkpt lat="39.48027318" lon="-0.38921476"><ele>-51.6</ele><time>2022-10-30T10:58:41.0000000+00:00</time></trkpt><trkpt lat="39.48026405" lon="-0.38921636"><ele>-51.6</ele><time>2022-10-30T10:58:42.0000000+00:00</time></trkpt><trkpt lat="39.48025064" lon="-0.389213"><ele>-51.6</ele><time>2022-10-30T10:58:43.0000000+00:00</time></trkpt><trkpt lat="39.48023815" lon="-0.38920471"><ele>-51.6</ele><time>2022-10-30T10:58:44.0000000+00:00</time></trkpt><trkpt lat="39.48022566" lon="-0.38919574"><ele>-51.6</ele><time>2022-10-30T10:58:45.0000000+00:00</time></trkpt><trkpt lat="39.48021577" lon="-0.38917512"><ele>-51.6</ele><time>2022-10-30T10:58:46.0000000+00:00</time></trkpt><trkpt lat="39.48020361" lon="-0.38916539"><ele>-51.6</ele><time>2022-10-30T10:58:47.0000000+00:00</time></trkpt><trkpt lat="39.48019096" lon="-0.38916204"><ele>-51.6</ele><time>2022-10-30T10:58:48.0000000+00:00</time></trkpt><trkpt lat="39.48017621" lon="-0.38915902"><ele>-51.6</ele><time>2022-10-30T10:58:49.0000000+00:00</time></trkpt><trkpt lat="39.48016891" lon="-0.38914134"><ele>-51.6</ele><time>2022-10-30T10:58:50.0000000+00:00</time></trkpt><trkpt lat="39.48016523" lon="-0.38911418"><ele>-51.6</ele><time>2022-10-30T10:58:51.0000000+00:00</time></trkpt><trkpt lat="39.48015098" lon="-0.38910119"><ele>-51.6</ele><time>2022-10-30T10:58:52.0000000+00:00</time></trkpt><trkpt lat="39.48013798" lon="-0.38908208"><ele>-51.6</ele><time>2022-10-30T10:58:53.0000000+00:00</time></trkpt><trkpt lat="39.48012793" lon="-0.38907143"><ele>-51.6</ele><time>2022-10-30T10:58:54.0000000+00:00</time></trkpt><trkpt lat="39.48011627" lon="-0.3890654"><ele>-51.4</ele><time>2022-10-30T10:58:55.0000000+00:00</time></trkpt><trkpt lat="39.48010873" lon="-0.38904855"><ele>-51.4</ele><time>2022-10-30T10:58:56.0000000+00:00</time></trkpt><trkpt lat="39.48009783" lon="-0.389025"><ele>-51.4</ele><time>2022-10-30T10:58:57.0000000+00:00</time></trkpt><trkpt lat="39.48009783" lon="-0.38898208"><ele>-51.4</ele><time>2022-10-30T10:58:58.0000000+00:00</time></trkpt><trkpt lat="39.48009096" lon="-0.38896398"><ele>-51.4</ele><time>2022-10-30T10:58:59.0000000+00:00</time></trkpt><trkpt lat="39.48008099" lon="-0.38894168"><ele>-51.4</ele><time>2022-10-30T10:59:00.0000000+00:00</time></trkpt><trkpt lat="39.48006372" lon="-0.38892374"><ele>-51.4</ele><time>2022-10-30T10:59:01.0000000+00:00</time></trkpt><trkpt lat="39.48005249" lon="-0.38890321"><ele>-51.4</ele><time>2022-10-30T10:59:02.0000000+00:00</time></trkpt><trkpt lat="39.48004679" lon="-0.38888209"><ele>-51.4</ele><time>2022-10-30T10:59:03.0000000+00:00</time></trkpt><trkpt lat="39.48003908" lon="-0.38886658"><ele>-51.4</ele><time>2022-10-30T10:59:04.0000000+00:00</time></trkpt><trkpt lat="39.48002768" lon="-0.38885493"><ele>-51.4</ele><time>2022-10-30T10:59:05.0000000+00:00</time></trkpt><trkpt lat="39.48001536" lon="-0.38884554"><ele>-51.4</ele><time>2022-10-30T10:59:06.0000000+00:00</time></trkpt><trkpt lat="39.48000287" lon="-0.38883448"><ele>-51.4</ele><time>2022-10-30T10:59:07.0000000+00:00</time></trkpt><trkpt lat="39.47999993" lon="-0.38881805"><ele>-51.4</ele><time>2022-10-30T10:59:08.0000000+00:00</time></trkpt><trkpt lat="39.48000304" lon="-0.38880221"><ele>-51.6</ele><time>2022-10-30T10:59:09.0000000+00:00</time></trkpt><trkpt lat="39.48001259" lon="-0.38878595"><ele>-51.6</ele><time>2022-10-30T10:59:10.0000000+00:00</time></trkpt><trkpt lat="39.48002164" lon="-0.38876181"><ele>-51.6</ele><time>2022-10-30T10:59:11.0000000+00:00</time></trkpt><trkpt lat="39.48003187" lon="-0.38873884"><ele>-51.6</ele><time>2022-10-30T10:59:12.0000000+00:00</time></trkpt><trkpt lat="39.48003883" lon="-0.38872048"><ele>-51.6</ele><time>2022-10-30T10:59:13.0000000+00:00</time></trkpt><trkpt lat="39.4800457" lon="-0.38869676"><ele>-51.6</ele><time>2022-10-30T10:59:14.0000000+00:00</time></trkpt><trkpt lat="39.48005509" lon="-0.38867598"><ele>-51.6</ele><time>2022-10-30T10:59:15.0000000+00:00</time></trkpt><trkpt lat="39.4800628" lon="-0.38865267"><ele>-51.6</ele><time>2022-10-30T10:59:16.0000000+00:00</time></trkpt><trkpt lat="39.48006892" lon="-0.38863172"><ele>-51.6</ele><time>2022-10-30T10:59:17.0000000+00:00</time></trkpt><trkpt lat="39.48007294" lon="-0.38860339"><ele>-51.6</ele><time>2022-10-30T10:59:18.0000000+00:00</time></trkpt><trkpt lat="39.48007965" lon="-0.38858671"><ele>-51.4</ele><time>2022-10-30T10:59:19.0000000+00:00</time></trkpt><trkpt lat="39.48010588" lon="-0.38859366"><ele>-51.4</ele><time>2022-10-30T10:59:20.0000000+00:00</time></trkpt><trkpt lat="39.48012021" lon="-0.38858327"><ele>-51.4</ele><time>2022-10-30T10:59:21.0000000+00:00</time></trkpt><trkpt lat="39.48012323" lon="-0.38857522"><ele>-51.4</ele><time>2022-10-30T10:59:22.0000000+00:00</time></trkpt><trkpt lat="39.48012927" lon="-0.38856357"><ele>-51.4</ele><time>2022-10-30T10:59:23.0000000+00:00</time></trkpt><trkpt lat="39.48013983" lon="-0.38855192"><ele>-51.4</ele><time>2022-10-30T10:59:24.0000000+00:00</time></trkpt><trkpt lat="39.48015173" lon="-0.38854891"><ele>-51.4</ele><time>2022-10-30T10:59:25.0000000+00:00</time></trkpt><trkpt lat="39.48017034" lon="-0.38854103"><ele>-51.4</ele><time>2022-10-30T10:59:26.0000000+00:00</time></trkpt><trkpt lat="39.48018107" lon="-0.38852535"><ele>-51.4</ele><time>2022-10-30T10:59:27.0000000+00:00</time></trkpt><trkpt lat="39.48019724" lon="-0.38851194"><ele>-51.4</ele><time>2022-10-30T10:59:28.0000000+00:00</time></trkpt><trkpt lat="39.48020764" lon="-0.3884987"><ele>-51.4</ele><time>2022-10-30T10:59:29.0000000+00:00</time></trkpt><trkpt lat="39.48021526" lon="-0.38848747"><ele>-51.4</ele><time>2022-10-30T10:59:30.0000000+00:00</time></trkpt><trkpt lat="39.48021233" lon="-0.3884821"><ele>-51.2</ele><time>2022-10-30T10:59:31.0000000+00:00</time></trkpt><trkpt lat="39.48021468" lon="-0.38847338"><ele>-51.2</ele><time>2022-10-30T10:59:32.0000000+00:00</time></trkpt><trkpt lat="39.48021811" lon="-0.38845478"><ele>-51.0</ele><time>2022-10-30T10:59:33.0000000+00:00</time></trkpt><trkpt lat="39.48022759" lon="-0.38844262"><ele>-51.0</ele><time>2022-10-30T10:59:34.0000000+00:00</time></trkpt><trkpt lat="39.48024066" lon="-0.38843114"><ele>-51.0</ele><time>2022-10-30T10:59:35.0000000+00:00</time></trkpt><trkpt lat="39.48024393" lon="-0.38841555"><ele>-50.8</ele><time>2022-10-30T10:59:36.0000000+00:00</time></trkpt><trkpt lat="39.48024787" lon="-0.38840373"><ele>-50.8</ele><time>2022-10-30T10:59:37.0000000+00:00</time></trkpt><trkpt lat="39.48025231" lon="-0.38839007"><ele>-50.8</ele><time>2022-10-30T10:59:38.0000000+00:00</time></trkpt><trkpt lat="39.48025307" lon="-0.38838613"><ele>-50.8</ele><time>2022-10-30T10:59:39.0000000+00:00</time></trkpt><trkpt lat="39.48026011" lon="-0.38837582"><ele>-50.8</ele><time>2022-10-30T10:59:40.0000000+00:00</time></trkpt><trkpt lat="39.48026338" lon="-0.38836769"><ele>-50.6</ele><time>2022-10-30T10:59:41.0000000+00:00</time></trkpt><trkpt lat="39.48027126" lon="-0.38835336"><ele>-50.6</ele><time>2022-10-30T10:59:42.0000000+00:00</time></trkpt><trkpt lat="39.48027771" lon="-0.38832896"><ele>-50.6</ele><time>2022-10-30T10:59:43.0000000+00:00</time></trkpt><trkpt lat="39.48028634" lon="-0.3882956"><ele>-50.8</ele><time>2022-10-30T10:59:44.0000000+00:00</time></trkpt><trkpt lat="39.48036413" lon="-0.38830876"><ele>-50.8</ele><time>2022-10-30T10:59:46.0000000+00:00</time></trkpt><trkpt lat="39.48069974" lon="-0.38807985"><ele>-48.8</ele><time>2022-10-30T11:00:21.0000000+00:00</time></trkpt><trkpt lat="39.4806694" lon="-0.38798547"><ele>-48.8</ele><time>2022-10-30T11:00:22.0000000+00:00</time></trkpt><trkpt lat="39.48062749" lon="-0.38792261"><ele>-48.8</ele><time>2022-10-30T11:00:23.0000000+00:00</time></trkpt><trkpt lat="39.48062506" lon="-0.38792462"><ele>-49.0</ele><time>2022-10-30T11:00:24.0000000+00:00</time></trkpt><trkpt lat="39.48062581" lon="-0.38792579"><ele>-49.0</ele><time>2022-10-30T11:00:25.0000000+00:00</time></trkpt><trkpt lat="39.48064341" lon="-0.38792051"><ele>-48.8</ele><time>2022-10-30T11:00:26.0000000+00:00</time></trkpt><trkpt lat="39.48065682" lon="-0.38791222"><ele>-48.8</ele><time>2022-10-30T11:00:27.0000000+00:00</time></trkpt><trkpt lat="39.48066638" lon="-0.38792127"><ele>-48.6</ele><time>2022-10-30T11:00:28.0000000+00:00</time></trkpt><trkpt lat="39.48067124" lon="-0.38792873"><ele>-48.6</ele><time>2022-10-30T11:00:29.0000000+00:00</time></trkpt><trkpt lat="39.48066512" lon="-0.38794004"><ele>-48.6</ele><time>2022-10-30T11:00:30.0000000+00:00</time></trkpt><trkpt lat="39.48066646" lon="-0.38795186"><ele>-48.4</ele><time>2022-10-30T11:00:31.0000000+00:00</time></trkpt><trkpt lat="39.48067132" lon="-0.38796444"><ele>-48.8</ele><time>2022-10-30T11:00:32.0000000+00:00</time></trkpt><trkpt lat="39.48067501" lon="-0.38796905"><ele>-48.8</ele><time>2022-10-30T11:00:33.0000000+00:00</time></trkpt><trkpt lat="39.48067954" lon="-0.38797944"><ele>-48.8</ele><time>2022-10-30T11:00:34.0000000+00:00</time></trkpt><trkpt lat="39.48068004" lon="-0.38797868"><ele>-49.0</ele><time>2022-10-30T11:00:35.0000000+00:00</time></trkpt><trkpt lat="39.48067518" lon="-0.38797173"><ele>-49.0</ele><time>2022-10-30T11:00:36.0000000+00:00</time></trkpt><trkpt lat="39.48068298" lon="-0.38795337"><ele>-49.0</ele><time>2022-10-30T11:00:37.0000000+00:00</time></trkpt><trkpt lat="39.48068608" lon="-0.38794851"><ele>-49.0</ele><time>2022-10-30T11:00:38.0000000+00:00</time></trkpt><trkpt lat="39.48068356" lon="-0.38794298"><ele>-49.0</ele><time>2022-10-30T11:00:39.0000000+00:00</time></trkpt><trkpt lat="39.48068457" lon="-0.38794373"><ele>-49.0</ele><time>2022-10-30T11:00:40.0000000+00:00</time></trkpt><trkpt lat="39.48068423" lon="-0.38792856"><ele>-49.0</ele><time>2022-10-30T11:00:41.0000000+00:00</time></trkpt><trkpt lat="39.48068633" lon="-0.38792814"><ele>-49.0</ele><time>2022-10-30T11:00:42.0000000+00:00</time></trkpt><trkpt lat="39.48068759" lon="-0.38792756"><ele>-49.0</ele><time>2022-10-30T11:00:43.0000000+00:00</time></trkpt><trkpt lat="39.48068574" lon="-0.38791196"><ele>-49.0</ele><time>2022-10-30T11:00:44.0000000+00:00</time></trkpt><trkpt lat="39.48068406" lon="-0.38791213"><ele>-49.0</ele><time>2022-10-30T11:00:45.0000000+00:00</time></trkpt><trkpt lat="39.48068281" lon="-0.38791163"><ele>-49.0</ele><time>2022-10-30T11:00:46.0000000+00:00</time></trkpt><trkpt lat="39.48068725" lon="-0.38790191"><ele>-49.0</ele><time>2022-10-30T11:00:47.0000000+00:00</time></trkpt><trkpt lat="39.48068842" lon="-0.38790216"><ele>-49.0</ele><time>2022-10-30T11:00:48.0000000+00:00</time></trkpt><trkpt lat="39.48068759" lon="-0.38790057"><ele>-49.0</ele><time>2022-10-30T11:00:49.0000000+00:00</time></trkpt><trkpt lat="39.48068792" lon="-0.38790165"><ele>-49.0</ele><time>2022-10-30T11:00:50.0000000+00:00</time></trkpt><trkpt lat="39.48069639" lon="-0.38789855"><ele>-49.0</ele><time>2022-10-30T11:00:51.0000000+00:00</time></trkpt><trkpt lat="39.48069966" lon="-0.38789948"><ele>-49.0</ele><time>2022-10-30T11:00:52.0000000+00:00</time></trkpt><trkpt lat="39.48070116" lon="-0.38789998"><ele>-49.0</ele><time>2022-10-30T11:00:53.0000000+00:00</time></trkpt><trkpt lat="39.48070116" lon="-0.38789973"><ele>-49.0</ele><time>2022-10-30T11:00:54.0000000+00:00</time></trkpt><trkpt lat="39.48070116" lon="-0.38789973"><ele>-49.0</ele><time>2022-10-30T11:00:55.0000000+00:00</time></trkpt><trkpt lat="39.48070116" lon="-0.38789973"><ele>-49.0</ele><time>2022-10-30T11:00:56.0000000+00:00</time></trkpt><trkpt lat="39.48070116" lon="-0.38789973"><ele>-49.0</ele><time>2022-10-30T11:00:57.0000000+00:00</time></trkpt><trkpt lat="39.48070116" lon="-0.38789973"><ele>-49.0</ele><time>2022-10-30T11:00:58.0000000+00:00</time></trkpt><trkpt lat="39.48070116" lon="-0.38789973"><ele>-49.0</ele><time>2022-10-30T11:00:59.0000000+00:00</time></trkpt><trkpt lat="39.48070116" lon="-0.38789973"><ele>-49.0</ele><time>2022-10-30T11:01:00.0000000+00:00</time></trkpt><trkpt lat="39.48069932" lon="-0.38789872"><ele>-49.0</ele><time>2022-10-30T11:01:01.0000000+00:00</time></trkpt><trkpt lat="39.48069521" lon="-0.38789713"><ele>-49.0</ele><time>2022-10-30T11:01:02.0000000+00:00</time></trkpt><trkpt lat="39.48069354" lon="-0.38789461"><ele>-49.0</ele><time>2022-10-30T11:01:03.0000000+00:00</time></trkpt><trkpt lat="39.48068616" lon="-0.38788833"><ele>-49.0</ele><time>2022-10-30T11:01:04.0000000+00:00</time></trkpt><trkpt lat="39.48068138" lon="-0.38788363"><ele>-49.0</ele><time>2022-10-30T11:01:05.0000000+00:00</time></trkpt><trkpt lat="39.48067811" lon="-0.38788078"><ele>-49.0</ele><time>2022-10-30T11:01:06.0000000+00:00</time></trkpt><trkpt lat="39.48067233" lon="-0.38787835"><ele>-49.0</ele><time>2022-10-30T11:01:07.0000000+00:00</time></trkpt><trkpt lat="39.48067049" lon="-0.38787735"><ele>-49.2</ele><time>2022-10-30T11:01:08.0000000+00:00</time></trkpt><trkpt lat="39.48067049" lon="-0.38787735"><ele>-49.0</ele><time>2022-10-30T11:01:09.0000000+00:00</time></trkpt><trkpt lat="39.48067049" lon="-0.38787735"><ele>-49.0</ele><time>2022-10-30T11:01:10.0000000+00:00</time></trkpt><trkpt lat="39.48067049" lon="-0.38787735"><ele>-49.0</ele><time>2022-10-30T11:01:11.0000000+00:00</time></trkpt><trkpt lat="39.48067049" lon="-0.38787735"><ele>-49.0</ele><time>2022-10-30T11:01:12.0000000+00:00</time></trkpt><trkpt lat="39.48067049" lon="-0.38787735"><ele>-49.0</ele><time>2022-10-30T11:01:13.0000000+00:00</time></trkpt><trkpt lat="39.48067049" lon="-0.38787735"><ele>-49.0</ele><time>2022-10-30T11:01:14.0000000+00:00</time></trkpt><trkpt lat="39.48067049" lon="-0.38787735"><ele>-49.0</ele><time>2022-10-30T11:01:15.0000000+00:00</time></trkpt><trkpt lat="39.48067049" lon="-0.38787735"><ele>-49.0</ele><time>2022-10-30T11:01:16.0000000+00:00</time></trkpt><trkpt lat="39.48067049" lon="-0.38787735"><ele>-49.2</ele><time>2022-10-30T11:01:17.0000000+00:00</time></trkpt><trkpt lat="39.48067049" lon="-0.38787735"><ele>-49.2</ele><time>2022-10-30T11:01:18.0000000+00:00</time></trkpt><trkpt lat="39.48067049" lon="-0.38787735"><ele>-49.2</ele><time>2022-10-30T11:01:19.0000000+00:00</time></trkpt><trkpt lat="39.48067049" lon="-0.38787819"><ele>-49.2</ele><time>2022-10-30T11:01:20.0000000+00:00</time></trkpt><trkpt lat="39.48067049" lon="-0.38787835"><ele>-49.2</ele><time>2022-10-30T11:01:21.0000000+00:00</time></trkpt><trkpt lat="39.48066713" lon="-0.3878807"><ele>-49.2</ele><time>2022-10-30T11:01:22.0000000+00:00</time></trkpt><trkpt lat="39.48066688" lon="-0.38788179"><ele>-49.2</ele><time>2022-10-30T11:01:23.0000000+00:00</time></trkpt><trkpt lat="39.48066646" lon="-0.38788187"><ele>-49.2</ele><time>2022-10-30T11:01:24.0000000+00:00</time></trkpt><trkpt lat="39.48066521" lon="-0.38788514"><ele>-49.2</ele><time>2022-10-30T11:01:25.0000000+00:00</time></trkpt><trkpt lat="39.48066512" lon="-0.38788699"><ele>-49.2</ele><time>2022-10-30T11:01:26.0000000+00:00</time></trkpt><trkpt lat="39.48066504" lon="-0.3878885"><ele>-49.2</ele><time>2022-10-30T11:01:27.0000000+00:00</time></trkpt><trkpt lat="39.48066504" lon="-0.38788908"><ele>-49.2</ele><time>2022-10-30T11:01:28.0000000+00:00</time></trkpt><trkpt lat="39.48066504" lon="-0.38788959"><ele>-49.2</ele><time>2022-10-30T11:01:29.0000000+00:00</time></trkpt><trkpt lat="39.48066504" lon="-0.38788942"><ele>-49.2</ele><time>2022-10-30T11:01:30.0000000+00:00</time></trkpt><trkpt lat="39.48066504" lon="-0.38788942"><ele>-49.2</ele><time>2022-10-30T11:01:31.0000000+00:00</time></trkpt><trkpt lat="39.48066504" lon="-0.38788942"><ele>-49.2</ele><time>2022-10-30T11:01:32.0000000+00:00</time></trkpt><trkpt lat="39.48066504" lon="-0.38788942"><ele>-49.2</ele><time>2022-10-30T11:01:33.0000000+00:00</time></trkpt><trkpt lat="39.48066504" lon="-0.38788942"><ele>-49.2</ele><time>2022-10-30T11:01:34.0000000+00:00</time></trkpt><trkpt lat="39.48066504" lon="-0.38788959"><ele>-49.2</ele><time>2022-10-30T11:01:35.0000000+00:00</time></trkpt><trkpt lat="39.48066504" lon="-0.38789017"><ele>-49.0</ele><time>2022-10-30T11:01:36.0000000+00:00</time></trkpt><trkpt lat="39.48066504" lon="-0.38789076"><ele>-49.0</ele><time>2022-10-30T11:01:37.0000000+00:00</time></trkpt><trkpt lat="39.48066504" lon="-0.38789093"><ele>-49.0</ele><time>2022-10-30T11:01:38.0000000+00:00</time></trkpt><trkpt lat="39.48066487" lon="-0.38789101"><ele>-49.0</ele><time>2022-10-30T11:01:39.0000000+00:00</time></trkpt><trkpt lat="39.48066487" lon="-0.38789126"><ele>-48.8</ele><time>2022-10-30T11:01:40.0000000+00:00</time></trkpt><trkpt lat="39.48066487" lon="-0.3878916"><ele>-48.8</ele><time>2022-10-30T11:01:41.0000000+00:00</time></trkpt><trkpt lat="39.48066487" lon="-0.38789168"><ele>-48.8</ele><time>2022-10-30T11:01:42.0000000+00:00</time></trkpt><trkpt lat="39.48066487" lon="-0.38789176"><ele>-48.8</ele><time>2022-10-30T11:01:43.0000000+00:00</time></trkpt><trkpt lat="39.48066487" lon="-0.38789193"><ele>-48.8</ele><time>2022-10-30T11:01:44.0000000+00:00</time></trkpt><trkpt lat="39.48066487" lon="-0.38789285"><ele>-48.8</ele><time>2022-10-30T11:01:45.0000000+00:00</time></trkpt><trkpt lat="39.48066487" lon="-0.38789344"><ele>-49.0</ele><time>2022-10-30T11:01:46.0000000+00:00</time></trkpt><trkpt lat="39.48066487" lon="-0.38789394"><ele>-49.0</ele><time>2022-10-30T11:01:47.0000000+00:00</time></trkpt><trkpt lat="39.48066487" lon="-0.38789445"><ele>-49.0</ele><time>2022-10-30T11:01:48.0000000+00:00</time></trkpt><trkpt lat="39.48066487" lon="-0.38789478"><ele>-49.0</ele><time>2022-10-30T11:01:49.0000000+00:00</time></trkpt><trkpt lat="39.48066487" lon="-0.38789562"><ele>-49.0</ele><time>2022-10-30T11:01:50.0000000+00:00</time></trkpt><trkpt lat="39.48066479" lon="-0.38789889"><ele>-49.0</ele><time>2022-10-30T11:01:51.0000000+00:00</time></trkpt><trkpt lat="39.4806642" lon="-0.38790082"><ele>-49.0</ele><time>2022-10-30T11:01:52.0000000+00:00</time></trkpt><trkpt lat="39.48066412" lon="-0.38790761"><ele>-49.0</ele><time>2022-10-30T11:01:53.0000000+00:00</time></trkpt><trkpt lat="39.48065833" lon="-0.38791515"><ele>-49.0</ele><time>2022-10-30T11:01:54.0000000+00:00</time></trkpt><trkpt lat="39.48065615" lon="-0.38792026"><ele>-49.0</ele><time>2022-10-30T11:01:55.0000000+00:00</time></trkpt><trkpt lat="39.48065456" lon="-0.38792772"><ele>-49.0</ele><time>2022-10-30T11:01:56.0000000+00:00</time></trkpt><trkpt lat="39.48065423" lon="-0.38793166"><ele>-49.0</ele><time>2022-10-30T11:01:57.0000000+00:00</time></trkpt><trkpt lat="39.4806523" lon="-0.38793904"><ele>-49.0</ele><time>2022-10-30T11:01:58.0000000+00:00</time></trkpt><trkpt lat="39.48064962" lon="-0.38794742"><ele>-49.0</ele><time>2022-10-30T11:01:59.0000000+00:00</time></trkpt><trkpt lat="39.48064635" lon="-0.38795362"><ele>-49.0</ele><time>2022-10-30T11:02:00.0000000+00:00</time></trkpt><trkpt lat="39.48064475" lon="-0.38795765"><ele>-49.0</ele><time>2022-10-30T11:02:01.0000000+00:00</time></trkpt><trkpt lat="39.48064308" lon="-0.38796293"><ele>-49.0</ele><time>2022-10-30T11:02:02.0000000+00:00</time></trkpt><trkpt lat="39.48064165" lon="-0.38796888"><ele>-49.0</ele><time>2022-10-30T11:02:03.0000000+00:00</time></trkpt><trkpt lat="39.48064023" lon="-0.38797424"><ele>-49.0</ele><time>2022-10-30T11:02:04.0000000+00:00</time></trkpt><trkpt lat="39.48064048" lon="-0.38797525"><ele>-49.0</ele><time>2022-10-30T11:02:05.0000000+00:00</time></trkpt><trkpt lat="39.48064048" lon="-0.38797525"><ele>-49.0</ele><time>2022-10-30T11:02:06.0000000+00:00</time></trkpt><trkpt lat="39.48064048" lon="-0.38797525"><ele>-49.0</ele><time>2022-10-30T11:02:07.0000000+00:00</time></trkpt><trkpt lat="39.48064048" lon="-0.38797525"><ele>-49.0</ele><time>2022-10-30T11:02:08.0000000+00:00</time></trkpt><trkpt lat="39.48064048" lon="-0.38797525"><ele>-49.0</ele><time>2022-10-30T11:02:09.0000000+00:00</time></trkpt><trkpt lat="39.48064048" lon="-0.38797525"><ele>-49.0</ele><time>2022-10-30T11:02:10.0000000+00:00</time></trkpt><trkpt lat="39.48064048" lon="-0.38797525"><ele>-49.0</ele><time>2022-10-30T11:02:11.0000000+00:00</time></trkpt><trkpt lat="39.48064048" lon="-0.38797525"><ele>-49.0</ele><time>2022-10-30T11:02:12.0000000+00:00</time></trkpt><trkpt lat="39.48064048" lon="-0.38797525"><ele>-49.0</ele><time>2022-10-30T11:02:13.0000000+00:00</time></trkpt><trkpt lat="39.48064048" lon="-0.38797525"><ele>-49.0</ele><time>2022-10-30T11:02:14.0000000+00:00</time></trkpt><trkpt lat="39.48064048" lon="-0.38797525"><ele>-49.0</ele><time>2022-10-30T11:02:15.0000000+00:00</time></trkpt><trkpt lat="39.48064048" lon="-0.38797525"><ele>-49.0</ele><time>2022-10-30T11:02:16.0000000+00:00</time></trkpt><trkpt lat="39.48064048" lon="-0.38797525"><ele>-49.0</ele><time>2022-10-30T11:02:17.0000000+00:00</time></trkpt><trkpt lat="39.48064048" lon="-0.38797525"><ele>-49.0</ele><time>2022-10-30T11:02:18.0000000+00:00</time></trkpt><trkpt lat="39.4806404" lon="-0.38797525"><ele>-49.0</ele><time>2022-10-30T11:02:19.0000000+00:00</time></trkpt><trkpt lat="39.4806404" lon="-0.38797525"><ele>-49.0</ele><time>2022-10-30T11:02:20.0000000+00:00</time></trkpt><trkpt lat="39.4806404" lon="-0.38797533"><ele>-49.0</ele><time>2022-10-30T11:02:21.0000000+00:00</time></trkpt><trkpt lat="39.4806404" lon="-0.38797542"><ele>-49.0</ele><time>2022-10-30T11:02:22.0000000+00:00</time></trkpt><trkpt lat="39.4806404" lon="-0.38797567"><ele>-49.0</ele><time>2022-10-30T11:02:23.0000000+00:00</time></trkpt><trkpt lat="39.4806404" lon="-0.38797609"><ele>-49.0</ele><time>2022-10-30T11:02:24.0000000+00:00</time></trkpt><trkpt lat="39.4806404" lon="-0.38797776"><ele>-49.0</ele><time>2022-10-30T11:02:25.0000000+00:00</time></trkpt><trkpt lat="39.4806404" lon="-0.3879786"><ele>-49.0</ele><time>2022-10-30T11:02:26.0000000+00:00</time></trkpt><trkpt lat="39.48064048" lon="-0.38797868"><ele>-49.0</ele><time>2022-10-30T11:02:27.0000000+00:00</time></trkpt><trkpt lat="39.48064048" lon="-0.38797936"><ele>-49.0</ele><time>2022-10-30T11:02:28.0000000+00:00</time></trkpt><trkpt lat="39.48064073" lon="-0.38797952"><ele>-49.0</ele><time>2022-10-30T11:02:29.0000000+00:00</time></trkpt><trkpt lat="39.48064073" lon="-0.38798019"><ele>-49.0</ele><time>2022-10-30T11:02:30.0000000+00:00</time></trkpt><trkpt lat="39.48064073" lon="-0.3879807"><ele>-49.0</ele><time>2022-10-30T11:02:31.0000000+00:00</time></trkpt><trkpt lat="39.48064073" lon="-0.3879807"><ele>-49.0</ele><time>2022-10-30T11:02:32.0000000+00:00</time></trkpt><trkpt lat="39.48064073" lon="-0.38798078"><ele>-49.0</ele><time>2022-10-30T11:02:33.0000000+00:00</time></trkpt><trkpt lat="39.48064073" lon="-0.38798078"><ele>-49.0</ele><time>2022-10-30T11:02:34.0000000+00:00</time></trkpt><trkpt lat="39.48064073" lon="-0.38798078"><ele>-49.0</ele><time>2022-10-30T11:02:35.0000000+00:00</time></trkpt><trkpt lat="39.48064073" lon="-0.38798078"><ele>-49.0</ele><time>2022-10-30T11:02:36.0000000+00:00</time></trkpt><trkpt lat="39.48064056" lon="-0.38798078"><ele>-49.0</ele><time>2022-10-30T11:02:37.0000000+00:00</time></trkpt><trkpt lat="39.4806404" lon="-0.38798078"><ele>-49.0</ele><time>2022-10-30T11:02:38.0000000+00:00</time></trkpt><trkpt lat="39.4806404" lon="-0.38798078"><ele>-49.0</ele><time>2022-10-30T11:02:39.0000000+00:00</time></trkpt><trkpt lat="39.48064031" lon="-0.38798078"><ele>-49.0</ele><time>2022-10-30T11:02:40.0000000+00:00</time></trkpt><trkpt lat="39.48064006" lon="-0.38798078"><ele>-49.0</ele><time>2022-10-30T11:02:41.0000000+00:00</time></trkpt><trkpt lat="39.48064006" lon="-0.38798036"><ele>-49.0</ele><time>2022-10-30T11:02:42.0000000+00:00</time></trkpt><trkpt lat="39.48063998" lon="-0.38798028"><ele>-49.0</ele><time>2022-10-30T11:02:43.0000000+00:00</time></trkpt><trkpt lat="39.48063947" lon="-0.38798028"><ele>-49.0</ele><time>2022-10-30T11:02:44.0000000+00:00</time></trkpt><trkpt lat="39.48063755" lon="-0.38797877"><ele>-49.0</ele><time>2022-10-30T11:02:45.0000000+00:00</time></trkpt><trkpt lat="39.48063646" lon="-0.38797592"><ele>-49.0</ele><time>2022-10-30T11:02:46.0000000+00:00</time></trkpt><trkpt lat="39.4806352" lon="-0.38797399"><ele>-49.0</ele><time>2022-10-30T11:02:47.0000000+00:00</time></trkpt><trkpt lat="39.4806347" lon="-0.38797324"><ele>-49.0</ele><time>2022-10-30T11:02:48.0000000+00:00</time></trkpt><trkpt lat="39.48063428" lon="-0.38797282"><ele>-49.0</ele><time>2022-10-30T11:02:49.0000000+00:00</time></trkpt><trkpt lat="39.48063402" lon="-0.38797257"><ele>-49.0</ele><time>2022-10-30T11:02:50.0000000+00:00</time></trkpt><trkpt lat="39.48063377" lon="-0.38797156"><ele>-49.0</ele><time>2022-10-30T11:02:51.0000000+00:00</time></trkpt><trkpt lat="39.48063352" lon="-0.38797022"><ele>-49.0</ele><time>2022-10-30T11:02:52.0000000+00:00</time></trkpt><trkpt lat="39.48063344" lon="-0.3879698"><ele>-49.0</ele><time>2022-10-30T11:02:53.0000000+00:00</time></trkpt><trkpt lat="39.48063302" lon="-0.38796905"><ele>-49.0</ele><time>2022-10-30T11:02:54.0000000+00:00</time></trkpt><trkpt lat="39.48063285" lon="-0.38796863"><ele>-49.0</ele><time>2022-10-30T11:02:55.0000000+00:00</time></trkpt><trkpt lat="39.48063243" lon="-0.38796846"><ele>-49.0</ele><time>2022-10-30T11:02:56.0000000+00:00</time></trkpt><trkpt lat="39.4806321" lon="-0.38796846"><ele>-49.0</ele><time>2022-10-30T11:02:57.0000000+00:00</time></trkpt><trkpt lat="39.48063118" lon="-0.38796804"><ele>-49.0</ele><time>2022-10-30T11:02:58.0000000+00:00</time></trkpt><trkpt lat="39.48063059" lon="-0.38796796"><ele>-49.0</ele><time>2022-10-30T11:02:59.0000000+00:00</time></trkpt><trkpt lat="39.48063" lon="-0.38796569"><ele>-49.0</ele><time>2022-10-30T11:03:00.0000000+00:00</time></trkpt><trkpt lat="39.48062958" lon="-0.3879636"><ele>-49.0</ele><time>2022-10-30T11:03:01.0000000+00:00</time></trkpt><trkpt lat="39.48062891" lon="-0.38796226"><ele>-49.0</ele><time>2022-10-30T11:03:02.0000000+00:00</time></trkpt><trkpt lat="39.48062682" lon="-0.38796066"><ele>-49.0</ele><time>2022-10-30T11:03:03.0000000+00:00</time></trkpt><trkpt lat="39.48062489" lon="-0.38796024"><ele>-49.0</ele><time>2022-10-30T11:03:04.0000000+00:00</time></trkpt><trkpt lat="39.48062422" lon="-0.38795999"><ele>-49.0</ele><time>2022-10-30T11:03:05.0000000+00:00</time></trkpt><trkpt lat="39.48062405" lon="-0.38795991"><ele>-49.0</ele><time>2022-10-30T11:03:06.0000000+00:00</time></trkpt><trkpt lat="39.48062355" lon="-0.38795983"><ele>-49.0</ele><time>2022-10-30T11:03:07.0000000+00:00</time></trkpt><trkpt lat="39.48061978" lon="-0.38795974"><ele>-49.0</ele><time>2022-10-30T11:03:08.0000000+00:00</time></trkpt><trkpt lat="39.48061776" lon="-0.38795966"><ele>-49.0</ele><time>2022-10-30T11:03:09.0000000+00:00</time></trkpt><trkpt lat="39.48061718" lon="-0.38795949"><ele>-49.0</ele><time>2022-10-30T11:03:10.0000000+00:00</time></trkpt><trkpt lat="39.48061676" lon="-0.38795941"><ele>-49.0</ele><time>2022-10-30T11:03:11.0000000+00:00</time></trkpt><trkpt lat="39.48061651" lon="-0.38795932"><ele>-49.0</ele><time>2022-10-30T11:03:12.0000000+00:00</time></trkpt><trkpt lat="39.48061517" lon="-0.38795932"><ele>-49.0</ele><time>2022-10-30T11:03:13.0000000+00:00</time></trkpt><trkpt lat="39.48061315" lon="-0.38795932"><ele>-49.0</ele><time>2022-10-30T11:03:14.0000000+00:00</time></trkpt><trkpt lat="39.48061232" lon="-0.38795932"><ele>-49.0</ele><time>2022-10-30T11:03:15.0000000+00:00</time></trkpt><trkpt lat="39.4806067" lon="-0.38795932"><ele>-49.0</ele><time>2022-10-30T11:03:16.0000000+00:00</time></trkpt><trkpt lat="39.48060217" lon="-0.38795932"><ele>-49.0</ele><time>2022-10-30T11:03:17.0000000+00:00</time></trkpt><trkpt lat="39.48060058" lon="-0.38795932"><ele>-49.0</ele><time>2022-10-30T11:03:18.0000000+00:00</time></trkpt><trkpt lat="39.48059983" lon="-0.38795932"><ele>-49.0</ele><time>2022-10-30T11:03:19.0000000+00:00</time></trkpt><trkpt lat="39.48059958" lon="-0.38795932"><ele>-49.0</ele><time>2022-10-30T11:03:20.0000000+00:00</time></trkpt><trkpt lat="39.48059916" lon="-0.38795941"><ele>-49.0</ele><time>2022-10-30T11:03:21.0000000+00:00</time></trkpt><trkpt lat="39.4805989" lon="-0.38795941"><ele>-49.0</ele><time>2022-10-30T11:03:22.0000000+00:00</time></trkpt><trkpt lat="39.48059882" lon="-0.38795941"><ele>-49.0</ele><time>2022-10-30T11:03:23.0000000+00:00</time></trkpt><trkpt lat="39.48059865" lon="-0.38795941"><ele>-49.0</ele><time>2022-10-30T11:03:24.0000000+00:00</time></trkpt><trkpt lat="39.48059857" lon="-0.38795941"><ele>-49.0</ele><time>2022-10-30T11:03:25.0000000+00:00</time></trkpt><trkpt lat="39.4805984" lon="-0.38795949"><ele>-49.0</ele><time>2022-10-30T11:03:26.0000000+00:00</time></trkpt><trkpt lat="39.48059798" lon="-0.38796184"><ele>-49.0</ele><time>2022-10-30T11:03:27.0000000+00:00</time></trkpt><trkpt lat="39.48059773" lon="-0.38796385"><ele>-49.0</ele><time>2022-10-30T11:03:28.0000000+00:00</time></trkpt><trkpt lat="39.48059756" lon="-0.38796519"><ele>-49.0</ele><time>2022-10-30T11:03:29.0000000+00:00</time></trkpt><trkpt lat="39.48059698" lon="-0.38796594"><ele>-49.0</ele><time>2022-10-30T11:03:30.0000000+00:00</time></trkpt><trkpt lat="39.48059673" lon="-0.38796636"><ele>-49.0</ele><time>2022-10-30T11:03:31.0000000+00:00</time></trkpt><trkpt lat="39.48059656" lon="-0.38796661"><ele>-49.0</ele><time>2022-10-30T11:03:32.0000000+00:00</time></trkpt><trkpt lat="39.48059647" lon="-0.38796695"><ele>-49.0</ele><time>2022-10-30T11:03:33.0000000+00:00</time></trkpt><trkpt lat="39.48059647" lon="-0.38796712"><ele>-49.0</ele><time>2022-10-30T11:03:34.0000000+00:00</time></trkpt><trkpt lat="39.48059647" lon="-0.3879677"><ele>-49.0</ele><time>2022-10-30T11:03:35.0000000+00:00</time></trkpt><trkpt lat="39.48059647" lon="-0.38797231"><ele>-49.0</ele><time>2022-10-30T11:03:36.0000000+00:00</time></trkpt><trkpt lat="39.48059647" lon="-0.38797441"><ele>-49.0</ele><time>2022-10-30T11:03:37.0000000+00:00</time></trkpt><trkpt lat="39.48059639" lon="-0.38797533"><ele>-49.0</ele><time>2022-10-30T11:03:38.0000000+00:00</time></trkpt><trkpt lat="39.48059639" lon="-0.38797583"><ele>-49.0</ele><time>2022-10-30T11:03:39.0000000+00:00</time></trkpt><trkpt lat="39.48059639" lon="-0.387976"><ele>-49.0</ele><time>2022-10-30T11:03:40.0000000+00:00</time></trkpt><trkpt lat="39.48059639" lon="-0.38797609"><ele>-49.0</ele><time>2022-10-30T11:03:41.0000000+00:00</time></trkpt><trkpt lat="39.48059639" lon="-0.38797617"><ele>-49.0</ele><time>2022-10-30T11:03:42.0000000+00:00</time></trkpt><trkpt lat="39.48059639" lon="-0.38797617"><ele>-49.0</ele><time>2022-10-30T11:03:43.0000000+00:00</time></trkpt><trkpt lat="39.48059639" lon="-0.38797617"><ele>-49.0</ele><time>2022-10-30T11:03:44.0000000+00:00</time></trkpt><trkpt lat="39.48059639" lon="-0.38797617"><ele>-49.0</ele><time>2022-10-30T11:03:45.0000000+00:00</time></trkpt><trkpt lat="39.48059639" lon="-0.38797617"><ele>-49.0</ele><time>2022-10-30T11:03:46.0000000+00:00</time></trkpt><trkpt lat="39.48059639" lon="-0.38797617"><ele>-49.0</ele><time>2022-10-30T11:03:47.0000000+00:00</time></trkpt><trkpt lat="39.48059614" lon="-0.38797617"><ele>-49.0</ele><time>2022-10-30T11:03:48.0000000+00:00</time></trkpt><trkpt lat="39.48059605" lon="-0.38797617"><ele>-49.0</ele><time>2022-10-30T11:03:49.0000000+00:00</time></trkpt><trkpt lat="39.48059597" lon="-0.38797617"><ele>-49.0</ele><time>2022-10-30T11:03:50.0000000+00:00</time></trkpt><trkpt lat="39.48059597" lon="-0.38797609"><ele>-49.0</ele><time>2022-10-30T11:03:51.0000000+00:00</time></trkpt><trkpt lat="39.48059597" lon="-0.38797366"><ele>-49.0</ele><time>2022-10-30T11:03:52.0000000+00:00</time></trkpt><trkpt lat="39.48059605" lon="-0.38797122"><ele>-49.0</ele><time>2022-10-30T11:03:53.0000000+00:00</time></trkpt><trkpt lat="39.48059614" lon="-0.38796972"><ele>-49.0</ele><time>2022-10-30T11:03:54.0000000+00:00</time></trkpt><trkpt lat="39.48059631" lon="-0.38796896"><ele>-49.0</ele><time>2022-10-30T11:03:55.0000000+00:00</time></trkpt><trkpt lat="39.48059656" lon="-0.38796854"><ele>-49.0</ele><time>2022-10-30T11:03:56.0000000+00:00</time></trkpt><trkpt lat="39.48059673" lon="-0.38796829"><ele>-49.0</ele><time>2022-10-30T11:03:57.0000000+00:00</time></trkpt><trkpt lat="39.48059689" lon="-0.38796821"><ele>-49.0</ele><time>2022-10-30T11:03:58.0000000+00:00</time></trkpt><trkpt lat="39.48059706" lon="-0.38796812"><ele>-49.0</ele><time>2022-10-30T11:03:59.0000000+00:00</time></trkpt><trkpt lat="39.48059714" lon="-0.38796804"><ele>-49.0</ele><time>2022-10-30T11:04:00.0000000+00:00</time></trkpt><trkpt lat="39.48059714" lon="-0.38796804"><ele>-49.0</ele><time>2022-10-30T11:04:01.0000000+00:00</time></trkpt><trkpt lat="39.48059714" lon="-0.38796796"><ele>-49.0</ele><time>2022-10-30T11:04:02.0000000+00:00</time></trkpt><trkpt lat="39.48059723" lon="-0.38796787"><ele>-49.0</ele><time>2022-10-30T11:04:03.0000000+00:00</time></trkpt><trkpt lat="39.48059723" lon="-0.38796787"><ele>-49.0</ele><time>2022-10-30T11:04:04.0000000+00:00</time></trkpt><trkpt lat="39.48059723" lon="-0.38796762"><ele>-49.0</ele><time>2022-10-30T11:04:05.0000000+00:00</time></trkpt><trkpt lat="39.48059723" lon="-0.38796754"><ele>-49.0</ele><time>2022-10-30T11:04:06.0000000+00:00</time></trkpt><trkpt lat="39.48059731" lon="-0.38796745"><ele>-49.0</ele><time>2022-10-30T11:04:07.0000000+00:00</time></trkpt><trkpt lat="39.48059731" lon="-0.38796745"><ele>-49.0</ele><time>2022-10-30T11:04:08.0000000+00:00</time></trkpt><trkpt lat="39.48059731" lon="-0.38796754"><ele>-49.0</ele><time>2022-10-30T11:04:09.0000000+00:00</time></trkpt><trkpt lat="39.48059731" lon="-0.38796762"><ele>-49.0</ele><time>2022-10-30T11:04:10.0000000+00:00</time></trkpt><trkpt lat="39.48059731" lon="-0.38796762"><ele>-49.0</ele><time>2022-10-30T11:04:11.0000000+00:00</time></trkpt><trkpt lat="39.48059731" lon="-0.3879677"><ele>-49.0</ele><time>2022-10-30T11:04:12.0000000+00:00</time></trkpt><trkpt lat="39.48059723" lon="-0.3879677"><ele>-49.0</ele><time>2022-10-30T11:04:13.0000000+00:00</time></trkpt><trkpt lat="39.48059723" lon="-0.3879677"><ele>-49.0</ele><time>2022-10-30T11:04:14.0000000+00:00</time></trkpt><trkpt lat="39.48059714" lon="-0.38796787"><ele>-49.0</ele><time>2022-10-30T11:04:15.0000000+00:00</time></trkpt><trkpt lat="39.48059714" lon="-0.38796787"><ele>-49.0</ele><time>2022-10-30T11:04:16.0000000+00:00</time></trkpt><trkpt lat="39.48059714" lon="-0.38796796"><ele>-49.0</ele><time>2022-10-30T11:04:17.0000000+00:00</time></trkpt><trkpt lat="39.48059714" lon="-0.38796796"><ele>-49.0</ele><time>2022-10-30T11:04:18.0000000+00:00</time></trkpt><trkpt lat="39.48059723" lon="-0.38796796"><ele>-49.0</ele><time>2022-10-30T11:04:19.0000000+00:00</time></trkpt><trkpt lat="39.48059723" lon="-0.38796796"><ele>-49.0</ele><time>2022-10-30T11:04:20.0000000+00:00</time></trkpt><trkpt lat="39.48059731" lon="-0.38796796"><ele>-49.0</ele><time>2022-10-30T11:04:21.0000000+00:00</time></trkpt><trkpt lat="39.4805974" lon="-0.38796804"><ele>-49.0</ele><time>2022-10-30T11:04:22.0000000+00:00</time></trkpt><trkpt lat="39.4805974" lon="-0.38796796"><ele>-49.0</ele><time>2022-10-30T11:04:23.0000000+00:00</time></trkpt><trkpt lat="39.48059748" lon="-0.38796787"><ele>-49.0</ele><time>2022-10-30T11:04:24.0000000+00:00</time></trkpt><trkpt lat="39.4805974" lon="-0.38796779"><ele>-49.0</ele><time>2022-10-30T11:04:25.0000000+00:00</time></trkpt><trkpt lat="39.4805974" lon="-0.38796779"><ele>-49.0</ele><time>2022-10-30T11:04:26.0000000+00:00</time></trkpt><trkpt lat="39.4805974" lon="-0.3879677"><ele>-49.0</ele><time>2022-10-30T11:04:27.0000000+00:00</time></trkpt><trkpt lat="39.4805974" lon="-0.38796762"><ele>-49.0</ele><time>2022-10-30T11:04:28.0000000+00:00</time></trkpt><trkpt lat="39.4805974" lon="-0.38796754"><ele>-49.0</ele><time>2022-10-30T11:04:29.0000000+00:00</time></trkpt><trkpt lat="39.4805974" lon="-0.38796754"><ele>-49.0</ele><time>2022-10-30T11:04:30.0000000+00:00</time></trkpt><trkpt lat="39.4805974" lon="-0.38796745"><ele>-49.0</ele><time>2022-10-30T11:04:31.0000000+00:00</time></trkpt><trkpt lat="39.4805974" lon="-0.38796745"><ele>-49.0</ele><time>2022-10-30T11:04:32.0000000+00:00</time></trkpt><trkpt lat="39.4805974" lon="-0.38796745"><ele>-49.0</ele><time>2022-10-30T11:04:33.0000000+00:00</time></trkpt><trkpt lat="39.48059731" lon="-0.38796745"><ele>-49.0</ele><time>2022-10-30T11:04:34.0000000+00:00</time></trkpt><trkpt lat="39.48059731" lon="-0.38796745"><ele>-49.0</ele><time>2022-10-30T11:04:35.0000000+00:00</time></trkpt><trkpt lat="39.48059723" lon="-0.38796745"><ele>-49.0</ele><time>2022-10-30T11:04:36.0000000+00:00</time></trkpt><trkpt lat="39.48059714" lon="-0.38796754"><ele>-49.0</ele><time>2022-10-30T11:04:37.0000000+00:00</time></trkpt><trkpt lat="39.48059706" lon="-0.38796754"><ele>-49.0</ele><time>2022-10-30T11:04:38.0000000+00:00</time></trkpt><trkpt lat="39.48059689" lon="-0.38796754"><ele>-49.0</ele><time>2022-10-30T11:04:39.0000000+00:00</time></trkpt><trkpt lat="39.48059681" lon="-0.38796754"><ele>-49.0</ele><time>2022-10-30T11:04:40.0000000+00:00</time></trkpt><trkpt lat="39.48059673" lon="-0.38796754"><ele>-49.0</ele><time>2022-10-30T11:04:41.0000000+00:00</time></trkpt><trkpt lat="39.48059664" lon="-0.38796762"><ele>-49.0</ele><time>2022-10-30T11:04:42.0000000+00:00</time></trkpt><trkpt lat="39.48059673" lon="-0.3879677"><ele>-49.0</ele><time>2022-10-30T11:04:43.0000000+00:00</time></trkpt><trkpt lat="39.48059681" lon="-0.38796804"><ele>-49.0</ele><time>2022-10-30T11:04:44.0000000+00:00</time></trkpt><trkpt lat="39.48059673" lon="-0.38796829"><ele>-49.0</ele><time>2022-10-30T11:04:45.0000000+00:00</time></trkpt><trkpt lat="39.48059656" lon="-0.38796896"><ele>-49.0</ele><time>2022-10-30T11:04:46.0000000+00:00</time></trkpt><trkpt lat="39.48059622" lon="-0.38796972"><ele>-49.0</ele><time>2022-10-30T11:04:47.0000000+00:00</time></trkpt><trkpt lat="39.48059572" lon="-0.38797064"><ele>-49.0</ele><time>2022-10-30T11:04:48.0000000+00:00</time></trkpt><trkpt lat="39.48059522" lon="-0.38797156"><ele>-49.0</ele><time>2022-10-30T11:04:49.0000000+00:00</time></trkpt><trkpt lat="39.48059463" lon="-0.38797231"><ele>-49.0</ele><time>2022-10-30T11:04:50.0000000+00:00</time></trkpt><trkpt lat="39.48059421" lon="-0.38797307"><ele>-49.0</ele><time>2022-10-30T11:04:51.0000000+00:00</time></trkpt><trkpt lat="39.48059379" lon="-0.38797374"><ele>-49.0</ele><time>2022-10-30T11:04:52.0000000+00:00</time></trkpt><trkpt lat="39.48059337" lon="-0.387975"><ele>-49.0</ele><time>2022-10-30T11:04:53.0000000+00:00</time></trkpt><trkpt lat="39.48059312" lon="-0.38797651"><ele>-49.0</ele><time>2022-10-30T11:04:54.0000000+00:00</time></trkpt><trkpt lat="39.48059279" lon="-0.38797801"><ele>-49.0</ele><time>2022-10-30T11:04:55.0000000+00:00</time></trkpt><trkpt lat="39.48059262" lon="-0.38797936"><ele>-49.0</ele><time>2022-10-30T11:04:56.0000000+00:00</time></trkpt><trkpt lat="39.48059237" lon="-0.38798061"><ele>-49.0</ele><time>2022-10-30T11:04:57.0000000+00:00</time></trkpt><trkpt lat="39.4805922" lon="-0.38798162"><ele>-49.0</ele><time>2022-10-30T11:04:58.0000000+00:00</time></trkpt><trkpt lat="39.48059212" lon="-0.38798271"><ele>-49.0</ele><time>2022-10-30T11:04:59.0000000+00:00</time></trkpt><trkpt lat="39.48059195" lon="-0.38798363"><ele>-49.0</ele><time>2022-10-30T11:05:00.0000000+00:00</time></trkpt><trkpt lat="39.48059195" lon="-0.38798464"><ele>-49.0</ele><time>2022-10-30T11:05:01.0000000+00:00</time></trkpt><trkpt lat="39.48059186" lon="-0.38798564"><ele>-49.0</ele><time>2022-10-30T11:05:02.0000000+00:00</time></trkpt><trkpt lat="39.48059195" lon="-0.38798665"><ele>-49.0</ele><time>2022-10-30T11:05:03.0000000+00:00</time></trkpt><trkpt lat="39.48059195" lon="-0.38798765"><ele>-49.0</ele><time>2022-10-30T11:05:04.0000000+00:00</time></trkpt><trkpt lat="39.48059195" lon="-0.38798866"><ele>-49.0</ele><time>2022-10-30T11:05:05.0000000+00:00</time></trkpt><trkpt lat="39.4805922" lon="-0.38798958"><ele>-49.0</ele><time>2022-10-30T11:05:06.0000000+00:00</time></trkpt><trkpt lat="39.48059253" lon="-0.38799059"><ele>-49.0</ele><time>2022-10-30T11:05:07.0000000+00:00</time></trkpt><trkpt lat="39.48059287" lon="-0.38799159"><ele>-49.0</ele><time>2022-10-30T11:05:08.0000000+00:00</time></trkpt><trkpt lat="39.4805932" lon="-0.3879931"><ele>-49.0</ele><time>2022-10-30T11:05:09.0000000+00:00</time></trkpt><trkpt lat="39.48059354" lon="-0.38799444"><ele>-49.0</ele><time>2022-10-30T11:05:10.0000000+00:00</time></trkpt><trkpt lat="39.48059404" lon="-0.3879957"><ele>-49.0</ele><time>2022-10-30T11:05:11.0000000+00:00</time></trkpt><trkpt lat="39.48059438" lon="-0.38799696"><ele>-49.0</ele><time>2022-10-30T11:05:12.0000000+00:00</time></trkpt><trkpt lat="39.48059463" lon="-0.38799796"><ele>-49.0</ele><time>2022-10-30T11:05:13.0000000+00:00</time></trkpt><trkpt lat="39.48059513" lon="-0.38799897"><ele>-49.0</ele><time>2022-10-30T11:05:14.0000000+00:00</time></trkpt><trkpt lat="39.48059555" lon="-0.38799989"><ele>-49.0</ele><time>2022-10-30T11:05:15.0000000+00:00</time></trkpt><trkpt lat="39.48059597" lon="-0.38800065"><ele>-49.0</ele><time>2022-10-30T11:05:16.0000000+00:00</time></trkpt><trkpt lat="39.48059639" lon="-0.38800123"><ele>-49.0</ele><time>2022-10-30T11:05:17.0000000+00:00</time></trkpt><trkpt lat="39.48059673" lon="-0.38800182"><ele>-49.0</ele><time>2022-10-30T11:05:18.0000000+00:00</time></trkpt><trkpt lat="39.48059698" lon="-0.38800224"><ele>-49.0</ele><time>2022-10-30T11:05:19.0000000+00:00</time></trkpt><trkpt lat="39.4805948" lon="-0.3880009"><ele>-49.0</ele><time>2022-10-30T11:05:20.0000000+00:00</time></trkpt><trkpt lat="39.4805901" lon="-0.38800065"><ele>-49.0</ele><time>2022-10-30T11:05:21.0000000+00:00</time></trkpt><trkpt lat="39.48057946" lon="-0.38799235"><ele>-49.0</ele><time>2022-10-30T11:05:22.0000000+00:00</time></trkpt><trkpt lat="39.48056429" lon="-0.3879879"><ele>-49.0</ele><time>2022-10-30T11:05:23.0000000+00:00</time></trkpt><trkpt lat="39.48055347" lon="-0.38798682"><ele>-49.0</ele><time>2022-10-30T11:05:24.0000000+00:00</time></trkpt><trkpt lat="39.48055574" lon="-0.38798933"><ele>-49.0</ele><time>2022-10-30T11:05:25.0000000+00:00</time></trkpt><trkpt lat="39.4805544" lon="-0.38798497"><ele>-49.0</ele><time>2022-10-30T11:05:26.0000000+00:00</time></trkpt><trkpt lat="39.48055456" lon="-0.38798145"><ele>-49.0</ele><time>2022-10-30T11:05:27.0000000+00:00</time></trkpt><trkpt lat="39.48055306" lon="-0.38797743"><ele>-49.0</ele><time>2022-10-30T11:05:28.0000000+00:00</time></trkpt><trkpt lat="39.48055557" lon="-0.38797039"><ele>-49.0</ele><time>2022-10-30T11:05:29.0000000+00:00</time></trkpt><trkpt lat="39.48056848" lon="-0.38796092"><ele>-49.0</ele><time>2022-10-30T11:05:30.0000000+00:00</time></trkpt><trkpt lat="39.4805839" lon="-0.38795186"><ele>-49.0</ele><time>2022-10-30T11:05:31.0000000+00:00</time></trkpt><trkpt lat="39.48059639" lon="-0.38794424"><ele>-49.0</ele><time>2022-10-30T11:05:32.0000000+00:00</time></trkpt><trkpt lat="39.48061005" lon="-0.38793937"><ele>-49.0</ele><time>2022-10-30T11:05:33.0000000+00:00</time></trkpt><trkpt lat="39.48063034" lon="-0.38793217"><ele>-49.0</ele><time>2022-10-30T11:05:34.0000000+00:00</time></trkpt><trkpt lat="39.48065414" lon="-0.38791993"><ele>-49.0</ele><time>2022-10-30T11:05:35.0000000+00:00</time></trkpt><trkpt lat="39.48067996" lon="-0.38791515"><ele>-49.0</ele><time>2022-10-30T11:05:36.0000000+00:00</time></trkpt><trkpt lat="39.48069018" lon="-0.3879201"><ele>-49.0</ele><time>2022-10-30T11:05:37.0000000+00:00</time></trkpt><trkpt lat="39.48069873" lon="-0.38793476"><ele>-49.0</ele><time>2022-10-30T11:05:38.0000000+00:00</time></trkpt><trkpt lat="39.48071114" lon="-0.38795815"><ele>-49.0</ele><time>2022-10-30T11:05:39.0000000+00:00</time></trkpt><trkpt lat="39.48067417" lon="-0.38796469"><ele>-49.0</ele><time>2022-10-30T11:05:40.0000000+00:00</time></trkpt><trkpt lat="39.48067057" lon="-0.38796351"><ele>-49.0</ele><time>2022-10-30T11:05:41.0000000+00:00</time></trkpt><trkpt lat="39.48065599" lon="-0.38797215"><ele>-49.0</ele><time>2022-10-30T11:05:42.0000000+00:00</time></trkpt><trkpt lat="39.4806419" lon="-0.38796955"><ele>-49.0</ele><time>2022-10-30T11:05:43.0000000+00:00</time></trkpt><trkpt lat="39.48063947" lon="-0.38796469"><ele>-49.0</ele><time>2022-10-30T11:05:44.0000000+00:00</time></trkpt><trkpt lat="39.4806419" lon="-0.38795262"><ele>-49.0</ele><time>2022-10-30T11:05:45.0000000+00:00</time></trkpt><trkpt lat="39.4806321" lon="-0.38796519"><ele>-49.0</ele><time>2022-10-30T11:05:46.0000000+00:00</time></trkpt><trkpt lat="39.48062522" lon="-0.38797508"><ele>-49.0</ele><time>2022-10-30T11:05:47.0000000+00:00</time></trkpt><trkpt lat="39.480615" lon="-0.38799151"><ele>-49.0</ele><time>2022-10-30T11:05:48.0000000+00:00</time></trkpt><trkpt lat="39.48060595" lon="-0.3880071"><ele>-49.0</ele><time>2022-10-30T11:05:49.0000000+00:00</time></trkpt><trkpt lat="39.48059849" lon="-0.3880247"><ele>-49.0</ele><time>2022-10-30T11:05:50.0000000+00:00</time></trkpt><trkpt lat="39.48059136" lon="-0.38804272"><ele>-49.0</ele><time>2022-10-30T11:05:51.0000000+00:00</time></trkpt><trkpt lat="39.48058466" lon="-0.38805613"><ele>-49.0</ele><time>2022-10-30T11:05:52.0000000+00:00</time></trkpt><trkpt lat="39.48059036" lon="-0.38806091"><ele>-49.0</ele><time>2022-10-30T11:05:53.0000000+00:00</time></trkpt><trkpt lat="39.48058642" lon="-0.38807063"><ele>-49.0</ele><time>2022-10-30T11:05:54.0000000+00:00</time></trkpt><trkpt lat="39.48057879" lon="-0.38806066"><ele>-49.0</ele><time>2022-10-30T11:05:55.0000000+00:00</time></trkpt><trkpt lat="39.48056831" lon="-0.38806217"><ele>-49.0</ele><time>2022-10-30T11:05:56.0000000+00:00</time></trkpt><trkpt lat="39.48055725" lon="-0.38806837"><ele>-49.0</ele><time>2022-10-30T11:05:57.0000000+00:00</time></trkpt><trkpt lat="39.48054719" lon="-0.38806535"><ele>-49.2</ele><time>2022-10-30T11:05:58.0000000+00:00</time></trkpt><trkpt lat="39.48053118" lon="-0.38804758"><ele>-49.2</ele><time>2022-10-30T11:05:59.0000000+00:00</time></trkpt><trkpt lat="39.48052883" lon="-0.38804155"><ele>-49.4</ele><time>2022-10-30T11:06:00.0000000+00:00</time></trkpt><trkpt lat="39.48051559" lon="-0.38801833"><ele>-49.4</ele><time>2022-10-30T11:06:01.0000000+00:00</time></trkpt><trkpt lat="39.48049916" lon="-0.3880123"><ele>-49.6</ele><time>2022-10-30T11:06:02.0000000+00:00</time></trkpt><trkpt lat="39.48048843" lon="-0.38799327"><ele>-49.6</ele><time>2022-10-30T11:06:03.0000000+00:00</time></trkpt><trkpt lat="39.48047619" lon="-0.38800987"><ele>-49.6</ele><time>2022-10-30T11:06:04.0000000+00:00</time></trkpt><trkpt lat="39.48044887" lon="-0.38803183"><ele>-49.6</ele><time>2022-10-30T11:06:05.0000000+00:00</time></trkpt><trkpt lat="39.48042925" lon="-0.3880211"><ele>-49.6</ele><time>2022-10-30T11:06:06.0000000+00:00</time></trkpt><trkpt lat="39.48039011" lon="-0.38798514"><ele>-49.8</ele><time>2022-10-30T11:06:07.0000000+00:00</time></trkpt><trkpt lat="39.48036798" lon="-0.38796142"><ele>-49.8</ele><time>2022-10-30T11:06:08.0000000+00:00</time></trkpt><trkpt lat="39.4803399" lon="-0.38793149"><ele>-49.8</ele><time>2022-10-30T11:06:09.0000000+00:00</time></trkpt><trkpt lat="39.48032867" lon="-0.38794507"><ele>-49.8</ele><time>2022-10-30T11:06:10.0000000+00:00</time></trkpt><trkpt lat="39.4803482" lon="-0.3878973"><ele>-49.8</ele><time>2022-10-30T11:06:11.0000000+00:00</time></trkpt><trkpt lat="39.48036237" lon="-0.38783879"><ele>-49.8</ele><time>2022-10-30T11:06:12.0000000+00:00</time></trkpt><trkpt lat="39.48037159" lon="-0.38777366"><ele>-49.8</ele><time>2022-10-30T11:06:13.0000000+00:00</time></trkpt><trkpt lat="39.48038341" lon="-0.38772421"><ele>-49.8</ele><time>2022-10-30T11:06:14.0000000+00:00</time></trkpt><trkpt lat="39.47992835" lon="-0.38753654"><ele>-49.6</ele><time>2022-10-30T11:06:47.0000000+00:00</time></trkpt><trkpt lat="39.4799333" lon="-0.38761005"><ele>-49.6</ele><time>2022-10-30T11:06:48.0000000+00:00</time></trkpt><trkpt lat="39.47992919" lon="-0.38767417"><ele>-49.6</ele><time>2022-10-30T11:06:50.0000000+00:00</time></trkpt><trkpt lat="39.47993414" lon="-0.38768783"><ele>-49.6</ele><time>2022-10-30T11:06:51.0000000+00:00</time></trkpt><trkpt lat="39.47993489" lon="-0.38770116"><ele>-49.6</ele><time>2022-10-30T11:06:52.0000000+00:00</time></trkpt><trkpt lat="39.47990103" lon="-0.38769077"><ele>-49.6</ele><time>2022-10-30T11:06:53.0000000+00:00</time></trkpt><trkpt lat="39.47988636" lon="-0.38765104"><ele>-49.6</ele><time>2022-10-30T11:06:54.0000000+00:00</time></trkpt><trkpt lat="39.47985333" lon="-0.38761659"><ele>-49.6</ele><time>2022-10-30T11:06:55.0000000+00:00</time></trkpt><trkpt lat="39.4798038" lon="-0.38752304"><ele>-49.6</ele><time>2022-10-30T11:06:56.0000000+00:00</time></trkpt><trkpt lat="39.47978318" lon="-0.38747426"><ele>-49.6</ele><time>2022-10-30T11:06:58.0000000+00:00</time></trkpt><trkpt lat="39.47977731" lon="-0.38746789"><ele>-49.6</ele><time>2022-10-30T11:06:59.0000000+00:00</time></trkpt><trkpt lat="39.47975694" lon="-0.38751642"><ele>-49.6</ele><time>2022-10-30T11:07:00.0000000+00:00</time></trkpt><trkpt lat="39.4797437" lon="-0.38754073"><ele>-49.6</ele><time>2022-10-30T11:07:03.0000000+00:00</time></trkpt><trkpt lat="39.47974999" lon="-0.3875756"><ele>-49.6</ele><time>2022-10-30T11:07:04.0000000+00:00</time></trkpt><trkpt lat="39.47976675" lon="-0.3876134"><ele>-49.6</ele><time>2022-10-30T11:07:05.0000000+00:00</time></trkpt><trkpt lat="39.47972828" lon="-0.38781599"><ele>-49.6</ele><time>2022-10-30T11:07:12.0000000+00:00</time></trkpt><trkpt lat="39.47973833" lon="-0.38795932"><ele>-49.6</ele><time>2022-10-30T11:07:17.0000000+00:00</time></trkpt><trkpt lat="39.47973498" lon="-0.38802168"><ele>-49.6</ele><time>2022-10-30T11:07:20.0000000+00:00</time></trkpt><trkpt lat="39.47972476" lon="-0.3880294"><ele>-49.6</ele><time>2022-10-30T11:07:21.0000000+00:00</time></trkpt><trkpt lat="39.47974102" lon="-0.38781641"><ele>-49.4</ele><time>2022-10-30T11:07:22.0000000+00:00</time></trkpt><trkpt lat="39.47974873" lon="-0.38780954"><ele>-49.2</ele><time>2022-10-30T11:07:23.0000000+00:00</time></trkpt><trkpt lat="39.47976197" lon="-0.38777676"><ele>-49.2</ele><time>2022-10-30T11:07:24.0000000+00:00</time></trkpt><trkpt lat="39.47979642" lon="-0.38775765"><ele>-49.2</ele><time>2022-10-30T11:07:25.0000000+00:00</time></trkpt><trkpt lat="39.47981092" lon="-0.38771189"><ele>-49.2</ele><time>2022-10-30T11:07:27.0000000+00:00</time></trkpt><trkpt lat="39.47981268" lon="-0.38768339"><ele>-49.2</ele><time>2022-10-30T11:07:28.0000000+00:00</time></trkpt><trkpt lat="39.4798209" lon="-0.38765456"><ele>-49.2</ele><time>2022-10-30T11:07:29.0000000+00:00</time></trkpt><trkpt lat="39.47982199" lon="-0.38762908"><ele>-49.2</ele><time>2022-10-30T11:07:30.0000000+00:00</time></trkpt><trkpt lat="39.47982366" lon="-0.38761013"><ele>-49.2</ele><time>2022-10-30T11:07:31.0000000+00:00</time></trkpt><trkpt lat="39.47987672" lon="-0.38761248"><ele>-49.2</ele><time>2022-10-30T11:07:32.0000000+00:00</time></trkpt><trkpt lat="39.48003279" lon="-0.38775321"><ele>-49.4</ele><time>2022-10-30T11:08:01.0000000+00:00</time></trkpt><trkpt lat="39.47995769" lon="-0.38791314"><ele>-49.8</ele><time>2022-10-30T11:08:03.0000000+00:00</time></trkpt><trkpt lat="39.47996096" lon="-0.38799562"><ele>-50.0</ele><time>2022-10-30T11:08:05.0000000+00:00</time></trkpt><trkpt lat="39.47999029" lon="-0.38801464"><ele>-50.4</ele><time>2022-10-30T11:08:06.0000000+00:00</time></trkpt><trkpt lat="39.4799706" lon="-0.38803342"><ele>-50.6</ele><time>2022-10-30T11:08:07.0000000+00:00</time></trkpt><trkpt lat="39.47993766" lon="-0.3880563"><ele>-50.6</ele><time>2022-10-30T11:08:08.0000000+00:00</time></trkpt><trkpt lat="39.47991033" lon="-0.38803979"><ele>-50.6</ele><time>2022-10-30T11:08:09.0000000+00:00</time></trkpt><trkpt lat="39.47988904" lon="-0.38802981"><ele>-50.6</ele><time>2022-10-30T11:08:10.0000000+00:00</time></trkpt><trkpt lat="39.47981545" lon="-0.38801263"><ele>-50.6</ele><time>2022-10-30T11:08:11.0000000+00:00</time></trkpt><trkpt lat="39.47978888" lon="-0.38799042"><ele>-50.6</ele><time>2022-10-30T11:08:12.0000000+00:00</time></trkpt><trkpt lat="39.479782" lon="-0.38798757"><ele>-50.6</ele><time>2022-10-30T11:08:13.0000000+00:00</time></trkpt><trkpt lat="39.47977639" lon="-0.3879926"><ele>-50.6</ele><time>2022-10-30T11:08:14.0000000+00:00</time></trkpt><trkpt lat="39.4797815" lon="-0.38797894"><ele>-50.6</ele><time>2022-10-30T11:08:15.0000000+00:00</time></trkpt><trkpt lat="39.47978812" lon="-0.38796485"><ele>-50.8</ele><time>2022-10-30T11:08:16.0000000+00:00</time></trkpt><trkpt lat="39.47979701" lon="-0.38794323"><ele>-50.8</ele><time>2022-10-30T11:08:17.0000000+00:00</time></trkpt><trkpt lat="39.47978879" lon="-0.3879201"><ele>-50.8</ele><time>2022-10-30T11:08:18.0000000+00:00</time></trkpt><trkpt lat="39.47978368" lon="-0.38789202"><ele>-50.8</ele><time>2022-10-30T11:08:20.0000000+00:00</time></trkpt><trkpt lat="39.47976541" lon="-0.3878574"><ele>-50.8</ele><time>2022-10-30T11:08:21.0000000+00:00</time></trkpt><trkpt lat="39.47971361" lon="-0.38779562"><ele>-50.8</ele><time>2022-10-30T11:08:24.0000000+00:00</time></trkpt><trkpt lat="39.47974144" lon="-0.38778816"><ele>-50.8</ele><time>2022-10-30T11:08:25.0000000+00:00</time></trkpt><trkpt lat="39.47974655" lon="-0.38777257"><ele>-50.8</ele><time>2022-10-30T11:08:26.0000000+00:00</time></trkpt><trkpt lat="39.47976264" lon="-0.38774776"><ele>-50.8</ele><time>2022-10-30T11:08:27.0000000+00:00</time></trkpt><trkpt lat="39.47980329" lon="-0.38777744"><ele>-50.8</ele><time>2022-10-30T11:08:28.0000000+00:00</time></trkpt><trkpt lat="39.47984244" lon="-0.38779152"><ele>-50.8</ele><time>2022-10-30T11:08:29.0000000+00:00</time></trkpt><trkpt lat="39.47986331" lon="-0.38779311"><ele>-50.6</ele><time>2022-10-30T11:08:30.0000000+00:00</time></trkpt><trkpt lat="39.47989348" lon="-0.38781012"><ele>-50.6</ele><time>2022-10-30T11:08:31.0000000+00:00</time></trkpt><trkpt lat="39.47991318" lon="-0.38781742"><ele>-50.6</ele><time>2022-10-30T11:08:32.0000000+00:00</time></trkpt><trkpt lat="39.47990656" lon="-0.38782982"><ele>-50.6</ele><time>2022-10-30T11:08:33.0000000+00:00</time></trkpt><trkpt lat="39.47991679" lon="-0.38783192"><ele>-50.6</ele><time>2022-10-30T11:08:34.0000000+00:00</time></trkpt><trkpt lat="39.47993548" lon="-0.38782395"><ele>-50.6</ele><time>2022-10-30T11:08:35.0000000+00:00</time></trkpt><trkpt lat="39.47994218" lon="-0.38782236"><ele>-50.6</ele><time>2022-10-30T11:08:36.0000000+00:00</time></trkpt><trkpt lat="39.47995509" lon="-0.38780987"><ele>-50.6</ele><time>2022-10-30T11:08:37.0000000+00:00</time></trkpt><trkpt lat="39.47999507" lon="-0.38780158"><ele>-50.6</ele><time>2022-10-30T11:08:38.0000000+00:00</time></trkpt><trkpt lat="39.48004729" lon="-0.38779873"><ele>-50.6</ele><time>2022-10-30T11:08:39.0000000+00:00</time></trkpt><trkpt lat="39.48008032" lon="-0.38778397"><ele>-50.6</ele><time>2022-10-30T11:08:40.0000000+00:00</time></trkpt><trkpt lat="39.48010295" lon="-0.38776763"><ele>-50.6</ele><time>2022-10-30T11:08:41.0000000+00:00</time></trkpt><trkpt lat="39.48011653" lon="-0.38775497"><ele>-50.6</ele><time>2022-10-30T11:08:42.0000000+00:00</time></trkpt><trkpt lat="39.48013061" lon="-0.38772455"><ele>-50.6</ele><time>2022-10-30T11:08:43.0000000+00:00</time></trkpt><trkpt lat="39.48013195" lon="-0.38771038"><ele>-50.6</ele><time>2022-10-30T11:08:44.0000000+00:00</time></trkpt><trkpt lat="39.4801643" lon="-0.38767006"><ele>-50.6</ele><time>2022-10-30T11:08:45.0000000+00:00</time></trkpt><trkpt lat="39.48019397" lon="-0.38763846"><ele>-50.6</ele><time>2022-10-30T11:08:46.0000000+00:00</time></trkpt><trkpt lat="39.48018056" lon="-0.38762363"><ele>-50.6</ele><time>2022-10-30T11:08:47.0000000+00:00</time></trkpt><trkpt lat="39.48018945" lon="-0.38760309"><ele>-49.4</ele><time>2022-10-30T11:08:48.0000000+00:00</time></trkpt><trkpt lat="39.48019247" lon="-0.3875844"><ele>-49.4</ele><time>2022-10-30T11:08:49.0000000+00:00</time></trkpt><trkpt lat="39.48019129" lon="-0.38760225"><ele>-49.4</ele><time>2022-10-30T11:08:50.0000000+00:00</time></trkpt><trkpt lat="39.48018869" lon="-0.38761139"><ele>-49.4</ele><time>2022-10-30T11:08:52.0000000+00:00</time></trkpt><trkpt lat="39.4802239" lon="-0.38763561"><ele>-49.4</ele><time>2022-10-30T11:08:53.0000000+00:00</time></trkpt><trkpt lat="39.48025416" lon="-0.38763645"><ele>-49.4</ele><time>2022-10-30T11:08:54.0000000+00:00</time></trkpt><trkpt lat="39.48026463" lon="-0.3876424"><ele>-49.4</ele><time>2022-10-30T11:08:55.0000000+00:00</time></trkpt><trkpt lat="39.48028056" lon="-0.38765129"><ele>-49.2</ele><time>2022-10-30T11:08:56.0000000+00:00</time></trkpt><trkpt lat="39.4802964" lon="-0.38765305"><ele>-49.2</ele><time>2022-10-30T11:08:57.0000000+00:00</time></trkpt><trkpt lat="39.48030604" lon="-0.38765053"><ele>-49.2</ele><time>2022-10-30T11:08:58.0000000+00:00</time></trkpt><trkpt lat="39.48031803" lon="-0.38764475"><ele>-48.8</ele><time>2022-10-30T11:08:59.0000000+00:00</time></trkpt><trkpt lat="39.48025458" lon="-0.38757501"><ele>-48.8</ele><time>2022-10-30T11:09:00.0000000+00:00</time></trkpt><trkpt lat="39.48023806" lon="-0.38750963"><ele>-48.8</ele><time>2022-10-30T11:09:01.0000000+00:00</time></trkpt><trkpt lat="39.48026262" lon="-0.38748013"><ele>-48.8</ele><time>2022-10-30T11:09:02.0000000+00:00</time></trkpt><trkpt lat="39.48027075" lon="-0.38745825"><ele>-48.8</ele><time>2022-10-30T11:09:03.0000000+00:00</time></trkpt><trkpt lat="39.48025407" lon="-0.38741433"><ele>-48.8</ele><time>2022-10-30T11:09:04.0000000+00:00</time></trkpt><trkpt lat="39.48026815" lon="-0.38742062"><ele>-48.8</ele><time>2022-10-30T11:09:05.0000000+00:00</time></trkpt><trkpt lat="39.48028869" lon="-0.38741039"><ele>-48.8</ele><time>2022-10-30T11:09:06.0000000+00:00</time></trkpt><trkpt lat="39.48029053" lon="-0.38739028"><ele>-48.8</ele><time>2022-10-30T11:09:07.0000000+00:00</time></trkpt><trkpt lat="39.48032071" lon="-0.38738743"><ele>-48.8</ele><time>2022-10-30T11:09:08.0000000+00:00</time></trkpt><trkpt lat="39.48033555" lon="-0.38737779"><ele>-49.0</ele><time>2022-10-30T11:09:09.0000000+00:00</time></trkpt><trkpt lat="39.48034518" lon="-0.38737301"><ele>-49.2</ele><time>2022-10-30T11:09:10.0000000+00:00</time></trkpt><trkpt lat="39.48034929" lon="-0.38736446"><ele>-49.2</ele><time>2022-10-30T11:09:11.0000000+00:00</time></trkpt><trkpt lat="39.48035331" lon="-0.38735817"><ele>-49.2</ele><time>2022-10-30T11:09:12.0000000+00:00</time></trkpt><trkpt lat="39.48035935" lon="-0.38735541"><ele>-49.4</ele><time>2022-10-30T11:09:13.0000000+00:00</time></trkpt><trkpt lat="39.48037469" lon="-0.3873549"><ele>-49.4</ele><time>2022-10-30T11:09:14.0000000+00:00</time></trkpt><trkpt lat="39.48039137" lon="-0.38734443"><ele>-49.4</ele><time>2022-10-30T11:09:15.0000000+00:00</time></trkpt><trkpt lat="39.48039833" lon="-0.38732967"><ele>-49.2</ele><time>2022-10-30T11:09:16.0000000+00:00</time></trkpt><trkpt lat="39.48040168" lon="-0.38731366"><ele>-49.0</ele><time>2022-10-30T11:09:17.0000000+00:00</time></trkpt><trkpt lat="39.48041316" lon="-0.38730369"><ele>-49.0</ele><time>2022-10-30T11:09:18.0000000+00:00</time></trkpt><trkpt lat="39.48042205" lon="-0.38729346"><ele>-49.0</ele><time>2022-10-30T11:09:19.0000000+00:00</time></trkpt><trkpt lat="39.48043479" lon="-0.38728022"><ele>-49.0</ele><time>2022-10-30T11:09:20.0000000+00:00</time></trkpt><trkpt lat="39.48046555" lon="-0.38727251"><ele>-49.0</ele><time>2022-10-30T11:09:21.0000000+00:00</time></trkpt><trkpt lat="39.48047452" lon="-0.38725499"><ele>-49.0</ele><time>2022-10-30T11:09:22.0000000+00:00</time></trkpt><trkpt lat="39.48048282" lon="-0.38723831"><ele>-49.0</ele><time>2022-10-30T11:09:23.0000000+00:00</time></trkpt><trkpt lat="39.48048106" lon="-0.38722012"><ele>-49.0</ele><time>2022-10-30T11:09:24.0000000+00:00</time></trkpt><trkpt lat="39.48049807" lon="-0.38723311"><ele>-49.0</ele><time>2022-10-30T11:09:25.0000000+00:00</time></trkpt><trkpt lat="39.48053361" lon="-0.38722415"><ele>-49.0</ele><time>2022-10-30T11:09:26.0000000+00:00</time></trkpt><trkpt lat="39.48057183" lon="-0.38720629"><ele>-49.0</ele><time>2022-10-30T11:09:27.0000000+00:00</time></trkpt><trkpt lat="39.48058859" lon="-0.38718324"><ele>-49.0</ele><time>2022-10-30T11:09:28.0000000+00:00</time></trkpt><trkpt lat="39.48060008" lon="-0.38716011"><ele>-49.0</ele><time>2022-10-30T11:09:29.0000000+00:00</time></trkpt><trkpt lat="39.48060276" lon="-0.38714351"><ele>-49.0</ele><time>2022-10-30T11:09:30.0000000+00:00</time></trkpt><trkpt lat="39.48060561" lon="-0.38712901"><ele>-49.4</ele><time>2022-10-30T11:09:31.0000000+00:00</time></trkpt><trkpt lat="39.48061441" lon="-0.38712549"><ele>-49.4</ele><time>2022-10-30T11:09:32.0000000+00:00</time></trkpt><trkpt lat="39.48062212" lon="-0.38711208"><ele>-49.6</ele><time>2022-10-30T11:09:33.0000000+00:00</time></trkpt><trkpt lat="39.4806207" lon="-0.38708744"><ele>-49.6</ele><time>2022-10-30T11:09:34.0000000+00:00</time></trkpt><trkpt lat="39.48062338" lon="-0.38707151"><ele>-49.6</ele><time>2022-10-30T11:09:35.0000000+00:00</time></trkpt><trkpt lat="39.48062388" lon="-0.38705676"><ele>-49.8</ele><time>2022-10-30T11:09:36.0000000+00:00</time></trkpt><trkpt lat="39.48062556" lon="-0.38704259"><ele>-49.8</ele><time>2022-10-30T11:09:37.0000000+00:00</time></trkpt><trkpt lat="39.48063428" lon="-0.38703916"><ele>-49.8</ele><time>2022-10-30T11:09:38.0000000+00:00</time></trkpt><trkpt lat="39.48065372" lon="-0.38704435"><ele>-49.8</ele><time>2022-10-30T11:09:39.0000000+00:00</time></trkpt><trkpt lat="39.48066521" lon="-0.38704754"><ele>-49.8</ele><time>2022-10-30T11:09:40.0000000+00:00</time></trkpt><trkpt lat="39.48067552" lon="-0.38704821"><ele>-49.8</ele><time>2022-10-30T11:09:41.0000000+00:00</time></trkpt><trkpt lat="39.48068683" lon="-0.38703874"><ele>-49.8</ele><time>2022-10-30T11:09:42.0000000+00:00</time></trkpt><trkpt lat="39.48069052" lon="-0.38701728"><ele>-49.8</ele><time>2022-10-30T11:09:43.0000000+00:00</time></trkpt><trkpt lat="39.48069898" lon="-0.3870115"><ele>-49.8</ele><time>2022-10-30T11:09:44.0000000+00:00</time></trkpt><trkpt lat="39.4807155" lon="-0.38700228"><ele>-49.8</ele><time>2022-10-30T11:09:45.0000000+00:00</time></trkpt><trkpt lat="39.48073519" lon="-0.38700379"><ele>-49.8</ele><time>2022-10-30T11:09:46.0000000+00:00</time></trkpt><trkpt lat="39.48074777" lon="-0.38700496"><ele>-49.8</ele><time>2022-10-30T11:09:47.0000000+00:00</time></trkpt><trkpt lat="39.48075154" lon="-0.38700194"><ele>-50.0</ele><time>2022-10-30T11:09:48.0000000+00:00</time></trkpt><trkpt lat="39.48074718" lon="-0.38699532"><ele>-50.0</ele><time>2022-10-30T11:09:49.0000000+00:00</time></trkpt><trkpt lat="39.4807424" lon="-0.38698501"><ele>-50.0</ele><time>2022-10-30T11:09:50.0000000+00:00</time></trkpt><trkpt lat="39.48074483" lon="-0.38697386"><ele>-50.0</ele><time>2022-10-30T11:09:51.0000000+00:00</time></trkpt><trkpt lat="39.48074936" lon="-0.38697026"><ele>-50.0</ele><time>2022-10-30T11:09:52.0000000+00:00</time></trkpt><trkpt lat="39.48075204" lon="-0.38696372"><ele>-49.8</ele><time>2022-10-30T11:09:53.0000000+00:00</time></trkpt><trkpt lat="39.48075498" lon="-0.38695802"><ele>-49.8</ele><time>2022-10-30T11:09:54.0000000+00:00</time></trkpt><trkpt lat="39.48076244" lon="-0.38696364"><ele>-49.8</ele><time>2022-10-30T11:09:55.0000000+00:00</time></trkpt><trkpt lat="39.48076956" lon="-0.38696699"><ele>-49.8</ele><time>2022-10-30T11:09:56.0000000+00:00</time></trkpt><trkpt lat="39.48078004" lon="-0.38697269"><ele>-49.8</ele><time>2022-10-30T11:09:57.0000000+00:00</time></trkpt><trkpt lat="39.4807958" lon="-0.3869825"><ele>-49.8</ele><time>2022-10-30T11:09:58.0000000+00:00</time></trkpt><trkpt lat="39.48080954" lon="-0.38698685"><ele>-49.8</ele><time>2022-10-30T11:09:59.0000000+00:00</time></trkpt><trkpt lat="39.48081725" lon="-0.38698987"><ele>-49.8</ele><time>2022-10-30T11:10:00.0000000+00:00</time></trkpt><trkpt lat="39.48080787" lon="-0.38698501"><ele>-49.8</ele><time>2022-10-30T11:10:01.0000000+00:00</time></trkpt><trkpt lat="39.48081113" lon="-0.38698501"><ele>-49.8</ele><time>2022-10-30T11:10:02.0000000+00:00</time></trkpt><trkpt lat="39.48082178" lon="-0.38700303"><ele>-49.8</ele><time>2022-10-30T11:10:03.0000000+00:00</time></trkpt><trkpt lat="39.4808346" lon="-0.38702281"><ele>-49.8</ele><time>2022-10-30T11:10:04.0000000+00:00</time></trkpt><trkpt lat="39.48085112" lon="-0.38704243"><ele>-49.8</ele><time>2022-10-30T11:10:05.0000000+00:00</time></trkpt><trkpt lat="39.48086696" lon="-0.38705181"><ele>-49.8</ele><time>2022-10-30T11:10:06.0000000+00:00</time></trkpt><trkpt lat="39.48087408" lon="-0.38705559"><ele>-49.8</ele><time>2022-10-30T11:10:07.0000000+00:00</time></trkpt><trkpt lat="39.48087827" lon="-0.38705559"><ele>-49.8</ele><time>2022-10-30T11:10:08.0000000+00:00</time></trkpt><trkpt lat="39.48088364" lon="-0.38704896"><ele>-49.8</ele><time>2022-10-30T11:10:09.0000000+00:00</time></trkpt><trkpt lat="39.48088506" lon="-0.38703631"><ele>-49.8</ele><time>2022-10-30T11:10:10.0000000+00:00</time></trkpt><trkpt lat="39.48088515" lon="-0.38702784"><ele>-49.8</ele><time>2022-10-30T11:10:11.0000000+00:00</time></trkpt><trkpt lat="39.48089973" lon="-0.38703019"><ele>-49.8</ele><time>2022-10-30T11:10:12.0000000+00:00</time></trkpt><trkpt lat="39.48091012" lon="-0.38702994"><ele>-49.8</ele><time>2022-10-30T11:10:13.0000000+00:00</time></trkpt><trkpt lat="39.48091532" lon="-0.38703396"><ele>-49.8</ele><time>2022-10-30T11:10:14.0000000+00:00</time></trkpt><trkpt lat="39.48092622" lon="-0.38704838"><ele>-49.8</ele><time>2022-10-30T11:10:15.0000000+00:00</time></trkpt><trkpt lat="39.48093351" lon="-0.38706816"><ele>-49.8</ele><time>2022-10-30T11:10:16.0000000+00:00</time></trkpt><trkpt lat="39.48094659" lon="-0.38708484"><ele>-49.8</ele><time>2022-10-30T11:10:17.0000000+00:00</time></trkpt><trkpt lat="39.48095857" lon="-0.38709314"><ele>-49.8</ele><time>2022-10-30T11:10:18.0000000+00:00</time></trkpt><trkpt lat="39.48096871" lon="-0.38710118"><ele>-49.8</ele><time>2022-10-30T11:10:19.0000000+00:00</time></trkpt><trkpt lat="39.48098196" lon="-0.38711107"><ele>-49.8</ele><time>2022-10-30T11:10:20.0000000+00:00</time></trkpt><trkpt lat="39.48099629" lon="-0.38712189"><ele>-49.8</ele><time>2022-10-30T11:10:21.0000000+00:00</time></trkpt><trkpt lat="39.48101029" lon="-0.38714008"><ele>-49.8</ele><time>2022-10-30T11:10:22.0000000+00:00</time></trkpt><trkpt lat="39.48102169" lon="-0.38715944"><ele>-49.8</ele><time>2022-10-30T11:10:23.0000000+00:00</time></trkpt><trkpt lat="39.4810325" lon="-0.38717612"><ele>-49.8</ele><time>2022-10-30T11:10:24.0000000+00:00</time></trkpt><trkpt lat="39.48104382" lon="-0.38718659"><ele>-49.8</ele><time>2022-10-30T11:10:25.0000000+00:00</time></trkpt><trkpt lat="39.4810548" lon="-0.3872016"><ele>-49.6</ele><time>2022-10-30T11:10:26.0000000+00:00</time></trkpt><trkpt lat="39.48106762" lon="-0.3872223"><ele>-49.6</ele><time>2022-10-30T11:10:27.0000000+00:00</time></trkpt><trkpt lat="39.48108036" lon="-0.38724183"><ele>-49.8</ele><time>2022-10-30T11:10:28.0000000+00:00</time></trkpt><trkpt lat="39.48109084" lon="-0.38724879"><ele>-49.8</ele><time>2022-10-30T11:10:29.0000000+00:00</time></trkpt><trkpt lat="39.48109805" lon="-0.38725927"><ele>-49.8</ele><time>2022-10-30T11:10:30.0000000+00:00</time></trkpt><trkpt lat="39.48110542" lon="-0.38727486"><ele>-49.8</ele><time>2022-10-30T11:10:31.0000000+00:00</time></trkpt><trkpt lat="39.4811185" lon="-0.38728357"><ele>-49.8</ele><time>2022-10-30T11:10:32.0000000+00:00</time></trkpt><trkpt lat="39.48112914" lon="-0.38729053"><ele>-49.8</ele><time>2022-10-30T11:10:33.0000000+00:00</time></trkpt><trkpt lat="39.48115077" lon="-0.38728651"><ele>-49.8</ele><time>2022-10-30T11:10:34.0000000+00:00</time></trkpt><trkpt lat="39.48116619" lon="-0.38728408"><ele>-49.8</ele><time>2022-10-30T11:10:35.0000000+00:00</time></trkpt><trkpt lat="39.48117499" lon="-0.38729615"><ele>-49.8</ele><time>2022-10-30T11:10:36.0000000+00:00</time></trkpt><trkpt lat="39.48118656" lon="-0.38730713"><ele>-49.8</ele><time>2022-10-30T11:10:37.0000000+00:00</time></trkpt><trkpt lat="39.48120114" lon="-0.3873171"><ele>-49.8</ele><time>2022-10-30T11:10:38.0000000+00:00</time></trkpt><trkpt lat="39.48121556" lon="-0.38732942"><ele>-49.8</ele><time>2022-10-30T11:10:39.0000000+00:00</time></trkpt><trkpt lat="39.48122093" lon="-0.38734644"><ele>-49.8</ele><time>2022-10-30T11:10:40.0000000+00:00</time></trkpt><trkpt lat="39.48123568" lon="-0.38735624"><ele>-49.8</ele><time>2022-10-30T11:10:41.0000000+00:00</time></trkpt><trkpt lat="39.48125479" lon="-0.38735641"><ele>-49.8</ele><time>2022-10-30T11:10:42.0000000+00:00</time></trkpt><trkpt lat="39.48127373" lon="-0.38735306"><ele>-49.8</ele><time>2022-10-30T11:10:43.0000000+00:00</time></trkpt><trkpt lat="39.48129997" lon="-0.38734216"><ele>-49.8</ele><time>2022-10-30T11:10:44.0000000+00:00</time></trkpt><trkpt lat="39.48131841" lon="-0.38733252"><ele>-49.8</ele><time>2022-10-30T11:10:45.0000000+00:00</time></trkpt><trkpt lat="39.48132796" lon="-0.38732842"><ele>-49.8</ele><time>2022-10-30T11:10:46.0000000+00:00</time></trkpt><trkpt lat="39.48134431" lon="-0.38732682"><ele>-49.8</ele><time>2022-10-30T11:10:47.0000000+00:00</time></trkpt><trkpt lat="39.48135864" lon="-0.38732993"><ele>-49.8</ele><time>2022-10-30T11:10:48.0000000+00:00</time></trkpt><trkpt lat="39.48138043" lon="-0.38732967"><ele>-49.8</ele><time>2022-10-30T11:10:49.0000000+00:00</time></trkpt><trkpt lat="39.48140575" lon="-0.38733252"><ele>-49.8</ele><time>2022-10-30T11:10:50.0000000+00:00</time></trkpt><trkpt lat="39.48142922" lon="-0.38733646"><ele>-49.8</ele><time>2022-10-30T11:10:51.0000000+00:00</time></trkpt><trkpt lat="39.48145478" lon="-0.38733127"><ele>-49.8</ele><time>2022-10-30T11:10:52.0000000+00:00</time></trkpt><trkpt lat="39.48147339" lon="-0.38733445"><ele>-49.8</ele><time>2022-10-30T11:10:53.0000000+00:00</time></trkpt><trkpt lat="39.48148579" lon="-0.387343"><ele>-49.8</ele><time>2022-10-30T11:10:54.0000000+00:00</time></trkpt><trkpt lat="39.48149795" lon="-0.38735348"><ele>-49.8</ele><time>2022-10-30T11:10:55.0000000+00:00</time></trkpt><trkpt lat="39.48150407" lon="-0.38736647"><ele>-49.8</ele><time>2022-10-30T11:10:56.0000000+00:00</time></trkpt><trkpt lat="39.4815096" lon="-0.38736781"><ele>-49.8</ele><time>2022-10-30T11:10:57.0000000+00:00</time></trkpt><trkpt lat="39.4815148" lon="-0.38737116"><ele>-49.8</ele><time>2022-10-30T11:10:58.0000000+00:00</time></trkpt><trkpt lat="39.48153164" lon="-0.38737494"><ele>-49.8</ele><time>2022-10-30T11:10:59.0000000+00:00</time></trkpt><trkpt lat="39.48154874" lon="-0.38737678"><ele>-49.8</ele><time>2022-10-30T11:11:00.0000000+00:00</time></trkpt><trkpt lat="39.48156224" lon="-0.3873746"><ele>-49.8</ele><time>2022-10-30T11:11:01.0000000+00:00</time></trkpt><trkpt lat="39.48157288" lon="-0.38738357"><ele>-49.8</ele><time>2022-10-30T11:11:02.0000000+00:00</time></trkpt><trkpt lat="39.48158244" lon="-0.3873979"><ele>-49.8</ele><time>2022-10-30T11:11:03.0000000+00:00</time></trkpt><trkpt lat="39.48159141" lon="-0.38741073"><ele>-49.8</ele><time>2022-10-30T11:11:04.0000000+00:00</time></trkpt><trkpt lat="39.48160834" lon="-0.38741819"><ele>-49.8</ele><time>2022-10-30T11:11:05.0000000+00:00</time></trkpt><trkpt lat="39.48162477" lon="-0.38743327"><ele>-49.8</ele><time>2022-10-30T11:11:06.0000000+00:00</time></trkpt><trkpt lat="39.48163164" lon="-0.38745523"><ele>-49.8</ele><time>2022-10-30T11:11:07.0000000+00:00</time></trkpt><trkpt lat="39.48163583" lon="-0.38746722"><ele>-49.8</ele><time>2022-10-30T11:11:08.0000000+00:00</time></trkpt><trkpt lat="39.48164689" lon="-0.38747418"><ele>-49.8</ele><time>2022-10-30T11:11:09.0000000+00:00</time></trkpt><trkpt lat="39.48166466" lon="-0.38748189"><ele>-49.8</ele><time>2022-10-30T11:11:10.0000000+00:00</time></trkpt><trkpt lat="39.48168989" lon="-0.38748943"><ele>-49.8</ele><time>2022-10-30T11:11:11.0000000+00:00</time></trkpt><trkpt lat="39.48170414" lon="-0.38749153"><ele>-49.8</ele><time>2022-10-30T11:11:12.0000000+00:00</time></trkpt><trkpt lat="39.48171529" lon="-0.38749161"><ele>-49.8</ele><time>2022-10-30T11:11:13.0000000+00:00</time></trkpt><trkpt lat="39.48172267" lon="-0.38749413"><ele>-49.8</ele><time>2022-10-30T11:11:14.0000000+00:00</time></trkpt><trkpt lat="39.48172744" lon="-0.38750368"><ele>-49.8</ele><time>2022-10-30T11:11:15.0000000+00:00</time></trkpt><trkpt lat="39.48172585" lon="-0.38752556"><ele>-49.8</ele><time>2022-10-30T11:11:16.0000000+00:00</time></trkpt><trkpt lat="39.48173423" lon="-0.38753578"><ele>-49.8</ele><time>2022-10-30T11:11:17.0000000+00:00</time></trkpt><trkpt lat="39.48175787" lon="-0.38751827"><ele>-49.8</ele><time>2022-10-30T11:11:18.0000000+00:00</time></trkpt><trkpt lat="39.48177287" lon="-0.38751014"><ele>-49.8</ele><time>2022-10-30T11:11:19.0000000+00:00</time></trkpt><trkpt lat="39.48179198" lon="-0.38750201"><ele>-49.8</ele><time>2022-10-30T11:11:20.0000000+00:00</time></trkpt><trkpt lat="39.48180372" lon="-0.38751064"><ele>-49.8</ele><time>2022-10-30T11:11:21.0000000+00:00</time></trkpt><trkpt lat="39.48181738" lon="-0.38752028"><ele>-49.8</ele><time>2022-10-30T11:11:22.0000000+00:00</time></trkpt><trkpt lat="39.48182451" lon="-0.38752615"><ele>-49.8</ele><time>2022-10-30T11:11:23.0000000+00:00</time></trkpt><trkpt lat="39.48182878" lon="-0.38753855"><ele>-49.8</ele><time>2022-10-30T11:11:24.0000000+00:00</time></trkpt><trkpt lat="39.48183708" lon="-0.38756428"><ele>-49.8</ele><time>2022-10-30T11:11:25.0000000+00:00</time></trkpt><trkpt lat="39.48185166" lon="-0.38756931"><ele>-49.8</ele><time>2022-10-30T11:11:26.0000000+00:00</time></trkpt><trkpt lat="39.48187538" lon="-0.38756479"><ele>-49.8</ele><time>2022-10-30T11:11:27.0000000+00:00</time></trkpt><trkpt lat="39.48187807" lon="-0.38759379"><ele>-49.8</ele><time>2022-10-30T11:11:28.0000000+00:00</time></trkpt><trkpt lat="39.48188201" lon="-0.38762262"><ele>-49.8</ele><time>2022-10-30T11:11:29.0000000+00:00</time></trkpt><trkpt lat="39.48189131" lon="-0.38765347"><ele>-49.8</ele><time>2022-10-30T11:11:30.0000000+00:00</time></trkpt><trkpt lat="39.48190548" lon="-0.3876771"><ele>-49.8</ele><time>2022-10-30T11:11:31.0000000+00:00</time></trkpt><trkpt lat="39.48192014" lon="-0.38767995"><ele>-49.6</ele><time>2022-10-30T11:11:32.0000000+00:00</time></trkpt><trkpt lat="39.48193037" lon="-0.38768884"><ele>-49.6</ele><time>2022-10-30T11:11:33.0000000+00:00</time></trkpt><trkpt lat="39.48193607" lon="-0.38770074"><ele>-49.6</ele><time>2022-10-30T11:11:34.0000000+00:00</time></trkpt><trkpt lat="39.48195049" lon="-0.38769647"><ele>-49.6</ele><time>2022-10-30T11:11:35.0000000+00:00</time></trkpt><trkpt lat="39.48197362" lon="-0.38769705"><ele>-49.6</ele><time>2022-10-30T11:11:36.0000000+00:00</time></trkpt><trkpt lat="39.48199282" lon="-0.38767249"><ele>-49.6</ele><time>2022-10-30T11:11:37.0000000+00:00</time></trkpt><trkpt lat="39.48200723" lon="-0.38765858"><ele>-49.6</ele><time>2022-10-30T11:11:38.0000000+00:00</time></trkpt><trkpt lat="39.48201151" lon="-0.38764701"><ele>-49.6</ele><time>2022-10-30T11:11:39.0000000+00:00</time></trkpt><trkpt lat="39.48201712" lon="-0.38763939"><ele>-49.6</ele><time>2022-10-30T11:11:40.0000000+00:00</time></trkpt><trkpt lat="39.48202425" lon="-0.38763578"><ele>-49.6</ele><time>2022-10-30T11:11:41.0000000+00:00</time></trkpt><trkpt lat="39.48204017" lon="-0.38763955"><ele>-49.6</ele><time>2022-10-30T11:11:42.0000000+00:00</time></trkpt><trkpt lat="39.48205601" lon="-0.38764224"><ele>-49.6</ele><time>2022-10-30T11:11:43.0000000+00:00</time></trkpt><trkpt lat="39.48206423" lon="-0.38764425"><ele>-49.6</ele><time>2022-10-30T11:11:44.0000000+00:00</time></trkpt><trkpt lat="39.4820742" lon="-0.38765539"><ele>-49.8</ele><time>2022-10-30T11:11:45.0000000+00:00</time></trkpt><trkpt lat="39.48207948" lon="-0.38766814"><ele>-49.8</ele><time>2022-10-30T11:11:46.0000000+00:00</time></trkpt><trkpt lat="39.48208829" lon="-0.38768113"><ele>-49.8</ele><time>2022-10-30T11:11:47.0000000+00:00</time></trkpt><trkpt lat="39.4821053" lon="-0.38769689"><ele>-49.8</ele><time>2022-10-30T11:11:48.0000000+00:00</time></trkpt><trkpt lat="39.48211553" lon="-0.38771533"><ele>-49.8</ele><time>2022-10-30T11:11:49.0000000+00:00</time></trkpt><trkpt lat="39.48211821" lon="-0.38773536"><ele>-49.8</ele><time>2022-10-30T11:11:50.0000000+00:00</time></trkpt><trkpt lat="39.4821276" lon="-0.38775288"><ele>-49.6</ele><time>2022-10-30T11:11:51.0000000+00:00</time></trkpt><trkpt lat="39.48213506" lon="-0.38776922"><ele>-49.6</ele><time>2022-10-30T11:11:52.0000000+00:00</time></trkpt><trkpt lat="39.48214595" lon="-0.38776763"><ele>-49.6</ele><time>2022-10-30T11:11:53.0000000+00:00</time></trkpt><trkpt lat="39.48215517" lon="-0.38777098"><ele>-49.6</ele><time>2022-10-30T11:11:54.0000000+00:00</time></trkpt><trkpt lat="39.48216221" lon="-0.38779043"><ele>-49.6</ele><time>2022-10-30T11:11:55.0000000+00:00</time></trkpt><trkpt lat="39.48216967" lon="-0.38780308"><ele>-49.6</ele><time>2022-10-30T11:11:56.0000000+00:00</time></trkpt><trkpt lat="39.48217646" lon="-0.38781901"><ele>-49.6</ele><time>2022-10-30T11:11:57.0000000+00:00</time></trkpt><trkpt lat="39.48218535" lon="-0.38781708"><ele>-49.6</ele><time>2022-10-30T11:11:58.0000000+00:00</time></trkpt><trkpt lat="39.48219742" lon="-0.38781306"><ele>-49.6</ele><time>2022-10-30T11:11:59.0000000+00:00</time></trkpt><trkpt lat="39.48220932" lon="-0.3878113"><ele>-49.6</ele><time>2022-10-30T11:12:00.0000000+00:00</time></trkpt><trkpt lat="39.48222457" lon="-0.38781272"><ele>-49.6</ele><time>2022-10-30T11:12:01.0000000+00:00</time></trkpt><trkpt lat="39.48223866" lon="-0.38781507"><ele>-49.6</ele><time>2022-10-30T11:12:02.0000000+00:00</time></trkpt><trkpt lat="39.48225458" lon="-0.38781163"><ele>-49.6</ele><time>2022-10-30T11:12:03.0000000+00:00</time></trkpt><trkpt lat="39.4822726" lon="-0.38781306"><ele>-49.6</ele><time>2022-10-30T11:12:04.0000000+00:00</time></trkpt><trkpt lat="39.4822757" lon="-0.38780292"><ele>-49.6</ele><time>2022-10-30T11:12:05.0000000+00:00</time></trkpt><trkpt lat="39.48228518" lon="-0.3877947"><ele>-49.6</ele><time>2022-10-30T11:12:06.0000000+00:00</time></trkpt><trkpt lat="39.48228878" lon="-0.38779168"><ele>-49.6</ele><time>2022-10-30T11:12:07.0000000+00:00</time></trkpt><trkpt lat="39.48229222" lon="-0.38779001"><ele>-49.6</ele><time>2022-10-30T11:12:08.0000000+00:00</time></trkpt><trkpt lat="39.48229155" lon="-0.38778657"><ele>-49.6</ele><time>2022-10-30T11:12:09.0000000+00:00</time></trkpt><trkpt lat="39.48229012" lon="-0.3877802"><ele>-49.6</ele><time>2022-10-30T11:12:10.0000000+00:00</time></trkpt><trkpt lat="39.48228953" lon="-0.38776947"><ele>-49.6</ele><time>2022-10-30T11:12:11.0000000+00:00</time></trkpt><trkpt lat="39.48229641" lon="-0.38774902"><ele>-49.6</ele><time>2022-10-30T11:12:12.0000000+00:00</time></trkpt><trkpt lat="39.48229842" lon="-0.38772832"><ele>-49.6</ele><time>2022-10-30T11:12:13.0000000+00:00</time></trkpt><trkpt lat="39.48229926" lon="-0.3877258"><ele>-49.6</ele><time>2022-10-30T11:12:14.0000000+00:00</time></trkpt><trkpt lat="39.48230772" lon="-0.38771876"><ele>-49.6</ele><time>2022-10-30T11:12:15.0000000+00:00</time></trkpt><trkpt lat="39.48231124" lon="-0.38771759"><ele>-49.4</ele><time>2022-10-30T11:12:16.0000000+00:00</time></trkpt><trkpt lat="39.4823265" lon="-0.38770342"><ele>-49.4</ele><time>2022-10-30T11:12:17.0000000+00:00</time></trkpt><trkpt lat="39.48232926" lon="-0.38770661"><ele>-49.4</ele><time>2022-10-30T11:12:18.0000000+00:00</time></trkpt><trkpt lat="39.48232826" lon="-0.38770384"><ele>-49.4</ele><time>2022-10-30T11:12:19.0000000+00:00</time></trkpt><trkpt lat="39.48232742" lon="-0.38770896"><ele>-49.4</ele><time>2022-10-30T11:12:20.0000000+00:00</time></trkpt><trkpt lat="39.48232549" lon="-0.3877175"><ele>-49.4</ele><time>2022-10-30T11:12:21.0000000+00:00</time></trkpt><trkpt lat="39.48232289" lon="-0.38772723"><ele>-49.4</ele><time>2022-10-30T11:12:22.0000000+00:00</time></trkpt><trkpt lat="39.4823244" lon="-0.38773972"><ele>-49.2</ele><time>2022-10-30T11:12:23.0000000+00:00</time></trkpt><trkpt lat="39.48232172" lon="-0.38774869"><ele>-49.2</ele><time>2022-10-30T11:12:24.0000000+00:00</time></trkpt><trkpt lat="39.48232859" lon="-0.38775271"><ele>-49.2</ele><time>2022-10-30T11:12:25.0000000+00:00</time></trkpt><trkpt lat="39.48233396" lon="-0.3877533"><ele>-49.2</ele><time>2022-10-30T11:12:26.0000000+00:00</time></trkpt><trkpt lat="39.48233924" lon="-0.38775179"><ele>-49.2</ele><time>2022-10-30T11:12:27.0000000+00:00</time></trkpt><trkpt lat="39.48235106" lon="-0.38777626"><ele>-49.2</ele><time>2022-10-30T11:12:28.0000000+00:00</time></trkpt><trkpt lat="39.4823643" lon="-0.38778506"><ele>-49.2</ele><time>2022-10-30T11:12:29.0000000+00:00</time></trkpt><trkpt lat="39.48236673" lon="-0.38779051"><ele>-49.4</ele><time>2022-10-30T11:12:30.0000000+00:00</time></trkpt><trkpt lat="39.48236045" lon="-0.38779269"><ele>-49.4</ele><time>2022-10-30T11:12:31.0000000+00:00</time></trkpt><trkpt lat="39.48235701" lon="-0.38779613"><ele>-49.4</ele><time>2022-10-30T11:12:32.0000000+00:00</time></trkpt><trkpt lat="39.48236296" lon="-0.38779588"><ele>-49.4</ele><time>2022-10-30T11:12:33.0000000+00:00</time></trkpt><trkpt lat="39.4823752" lon="-0.38779839"><ele>-49.4</ele><time>2022-10-30T11:12:34.0000000+00:00</time></trkpt><trkpt lat="39.48238785" lon="-0.38779537"><ele>-49.4</ele><time>2022-10-30T11:12:35.0000000+00:00</time></trkpt><trkpt lat="39.48239666" lon="-0.38779235"><ele>-49.2</ele><time>2022-10-30T11:12:36.0000000+00:00</time></trkpt><trkpt lat="39.48239917" lon="-0.38778758"><ele>-49.2</ele><time>2022-10-30T11:12:37.0000000+00:00</time></trkpt><trkpt lat="39.48240101" lon="-0.38779051"><ele>-49.2</ele><time>2022-10-30T11:12:38.0000000+00:00</time></trkpt><trkpt lat="39.48240864" lon="-0.3878009"><ele>-49.0</ele><time>2022-10-30T11:12:39.0000000+00:00</time></trkpt><trkpt lat="39.4824151" lon="-0.38781105"><ele>-49.0</ele><time>2022-10-30T11:12:40.0000000+00:00</time></trkpt><trkpt lat="39.48242088" lon="-0.38781306"><ele>-49.0</ele><time>2022-10-30T11:12:41.0000000+00:00</time></trkpt><trkpt lat="39.48242817" lon="-0.38781507"><ele>-49.0</ele><time>2022-10-30T11:12:42.0000000+00:00</time></trkpt><trkpt lat="39.48243412" lon="-0.38781256"><ele>-49.0</ele><time>2022-10-30T11:12:43.0000000+00:00</time></trkpt><trkpt lat="39.48244108" lon="-0.38781205"><ele>-49.0</ele><time>2022-10-30T11:12:44.0000000+00:00</time></trkpt><trkpt lat="39.48244862" lon="-0.38781038"><ele>-49.0</ele><time>2022-10-30T11:12:45.0000000+00:00</time></trkpt><trkpt lat="39.48245332" lon="-0.38780023"><ele>-49.0</ele><time>2022-10-30T11:12:46.0000000+00:00</time></trkpt><trkpt lat="39.48246396" lon="-0.38779931"><ele>-49.0</ele><time>2022-10-30T11:12:47.0000000+00:00</time></trkpt><trkpt lat="39.48247586" lon="-0.38779311"><ele>-49.0</ele><time>2022-10-30T11:12:48.0000000+00:00</time></trkpt><trkpt lat="39.48248693" lon="-0.38779093"><ele>-49.0</ele><time>2022-10-30T11:12:49.0000000+00:00</time></trkpt><trkpt lat="39.48250545" lon="-0.38780141"><ele>-49.0</ele><time>2022-10-30T11:12:50.0000000+00:00</time></trkpt><trkpt lat="39.48252532" lon="-0.38780677"><ele>-49.0</ele><time>2022-10-30T11:12:51.0000000+00:00</time></trkpt><trkpt lat="39.48255013" lon="-0.38780057"><ele>-49.0</ele><time>2022-10-30T11:12:52.0000000+00:00</time></trkpt><trkpt lat="39.48257955" lon="-0.38779319"><ele>-49.0</ele><time>2022-10-30T11:12:53.0000000+00:00</time></trkpt><trkpt lat="39.48260168" lon="-0.38779261"><ele>-49.0</ele><time>2022-10-30T11:12:54.0000000+00:00</time></trkpt><trkpt lat="39.48261014" lon="-0.38779202"><ele>-48.8</ele><time>2022-10-30T11:12:55.0000000+00:00</time></trkpt><trkpt lat="39.48259329" lon="-0.3877657"><ele>-48.8</ele><time>2022-10-30T11:12:56.0000000+00:00</time></trkpt><trkpt lat="39.48259556" lon="-0.38775891"><ele>-48.8</ele><time>2022-10-30T11:12:57.0000000+00:00</time></trkpt><trkpt lat="39.48260754" lon="-0.38776176"><ele>-48.8</ele><time>2022-10-30T11:12:58.0000000+00:00</time></trkpt><trkpt lat="39.48262255" lon="-0.38775757"><ele>-48.8</ele><time>2022-10-30T11:12:59.0000000+00:00</time></trkpt><trkpt lat="39.48263286" lon="-0.38775045"><ele>-48.8</ele><time>2022-10-30T11:13:00.0000000+00:00</time></trkpt><trkpt lat="39.48264778" lon="-0.38773838"><ele>-48.8</ele><time>2022-10-30T11:13:01.0000000+00:00</time></trkpt><trkpt lat="39.48265817" lon="-0.38772304"><ele>-48.8</ele><time>2022-10-30T11:13:02.0000000+00:00</time></trkpt><trkpt lat="39.48266211" lon="-0.38770585"><ele>-48.8</ele><time>2022-10-30T11:13:03.0000000+00:00</time></trkpt><trkpt lat="39.48266706" lon="-0.38769253"><ele>-48.8</ele><time>2022-10-30T11:13:04.0000000+00:00</time></trkpt><trkpt lat="39.48267208" lon="-0.38768247"><ele>-48.8</ele><time>2022-10-30T11:13:05.0000000+00:00</time></trkpt><trkpt lat="39.48267326" lon="-0.38767442"><ele>-48.8</ele><time>2022-10-30T11:13:06.0000000+00:00</time></trkpt><trkpt lat="39.48267326" lon="-0.38766093"><ele>-48.8</ele><time>2022-10-30T11:13:07.0000000+00:00</time></trkpt><trkpt lat="39.48267276" lon="-0.38765271"><ele>-48.8</ele><time>2022-10-30T11:13:08.0000000+00:00</time></trkpt><trkpt lat="39.48267234" lon="-0.38764131"><ele>-48.8</ele><time>2022-10-30T11:13:09.0000000+00:00</time></trkpt><trkpt lat="39.48266957" lon="-0.38763838"><ele>-48.8</ele><time>2022-10-30T11:13:10.0000000+00:00</time></trkpt><trkpt lat="39.48267049" lon="-0.38763888"><ele>-48.8</ele><time>2022-10-30T11:13:11.0000000+00:00</time></trkpt><trkpt lat="39.48267737" lon="-0.38763838"><ele>-48.8</ele><time>2022-10-30T11:13:12.0000000+00:00</time></trkpt><trkpt lat="39.48269597" lon="-0.3876419"><ele>-48.8</ele><time>2022-10-30T11:13:13.0000000+00:00</time></trkpt><trkpt lat="39.48271886" lon="-0.38763067"><ele>-48.8</ele><time>2022-10-30T11:13:14.0000000+00:00</time></trkpt><trkpt lat="39.48273663" lon="-0.38761248"><ele>-48.8</ele><time>2022-10-30T11:13:15.0000000+00:00</time></trkpt><trkpt lat="39.48274853" lon="-0.38758281"><ele>-48.8</ele><time>2022-10-30T11:13:16.0000000+00:00</time></trkpt><trkpt lat="39.48275783" lon="-0.38756127"><ele>-48.8</ele><time>2022-10-30T11:13:17.0000000+00:00</time></trkpt><trkpt lat="39.48276646" lon="-0.38754266"><ele>-48.8</ele><time>2022-10-30T11:13:18.0000000+00:00</time></trkpt><trkpt lat="39.48276965" lon="-0.38753604"><ele>-48.8</ele><time>2022-10-30T11:13:19.0000000+00:00</time></trkpt><trkpt lat="39.48276848" lon="-0.38751575"><ele>-48.6</ele><time>2022-10-30T11:13:20.0000000+00:00</time></trkpt><trkpt lat="39.48277292" lon="-0.38750134"><ele>-48.6</ele><time>2022-10-30T11:13:21.0000000+00:00</time></trkpt><trkpt lat="39.48278038" lon="-0.38749463"><ele>-48.6</ele><time>2022-10-30T11:13:22.0000000+00:00</time></trkpt><trkpt lat="39.4827839" lon="-0.38748809"><ele>-48.6</ele><time>2022-10-30T11:13:23.0000000+00:00</time></trkpt><trkpt lat="39.48278641" lon="-0.38748885"><ele>-48.6</ele><time>2022-10-30T11:13:24.0000000+00:00</time></trkpt><trkpt lat="39.48279723" lon="-0.38749052"><ele>-48.6</ele><time>2022-10-30T11:13:25.0000000+00:00</time></trkpt><trkpt lat="39.48279538" lon="-0.38750578"><ele>-48.6</ele><time>2022-10-30T11:13:26.0000000+00:00</time></trkpt><trkpt lat="39.48279471" lon="-0.38751072"><ele>-48.6</ele><time>2022-10-30T11:13:27.0000000+00:00</time></trkpt><trkpt lat="39.48278859" lon="-0.38752128"><ele>-48.6</ele><time>2022-10-30T11:13:28.0000000+00:00</time></trkpt><trkpt lat="39.48279094" lon="-0.38752774"><ele>-48.6</ele><time>2022-10-30T11:13:29.0000000+00:00</time></trkpt><trkpt lat="39.48279429" lon="-0.38753478"><ele>-48.6</ele><time>2022-10-30T11:13:30.0000000+00:00</time></trkpt><trkpt lat="39.48279882" lon="-0.38753972"><ele>-48.6</ele><time>2022-10-30T11:13:31.0000000+00:00</time></trkpt><trkpt lat="39.48280192" lon="-0.38754526"><ele>-48.6</ele><time>2022-10-30T11:13:32.0000000+00:00</time></trkpt><trkpt lat="39.48280779" lon="-0.38755531"><ele>-48.6</ele><time>2022-10-30T11:13:33.0000000+00:00</time></trkpt><trkpt lat="39.48280988" lon="-0.38756202"><ele>-48.6</ele><time>2022-10-30T11:13:34.0000000+00:00</time></trkpt><trkpt lat="39.48281131" lon="-0.38756286"><ele>-48.6</ele><time>2022-10-30T11:13:35.0000000+00:00</time></trkpt><trkpt lat="39.48281315" lon="-0.38755288"><ele>-48.6</ele><time>2022-10-30T11:13:36.0000000+00:00</time></trkpt><trkpt lat="39.48281474" lon="-0.38754878"><ele>-48.6</ele><time>2022-10-30T11:13:37.0000000+00:00</time></trkpt><trkpt lat="39.48281508" lon="-0.38754081"><ele>-48.6</ele><time>2022-10-30T11:13:38.0000000+00:00</time></trkpt><trkpt lat="39.48281407" lon="-0.3875295"><ele>-48.6</ele><time>2022-10-30T11:13:39.0000000+00:00</time></trkpt><trkpt lat="39.48281642" lon="-0.38752824"><ele>-48.6</ele><time>2022-10-30T11:13:40.0000000+00:00</time></trkpt><trkpt lat="39.48281776" lon="-0.38751885"><ele>-48.6</ele><time>2022-10-30T11:13:41.0000000+00:00</time></trkpt><trkpt lat="39.48282296" lon="-0.38752087"><ele>-48.6</ele><time>2022-10-30T11:13:42.0000000+00:00</time></trkpt><trkpt lat="39.48282598" lon="-0.38752447"><ele>-48.6</ele><time>2022-10-30T11:13:43.0000000+00:00</time></trkpt><trkpt lat="39.48283109" lon="-0.38752103"><ele>-48.6</ele><time>2022-10-30T11:13:44.0000000+00:00</time></trkpt><trkpt lat="39.4828336" lon="-0.3875233"><ele>-48.6</ele><time>2022-10-30T11:13:45.0000000+00:00</time></trkpt><trkpt lat="39.48283805" lon="-0.38752615"><ele>-48.6</ele><time>2022-10-30T11:13:46.0000000+00:00</time></trkpt><trkpt lat="39.48283637" lon="-0.38750217"><ele>-48.6</ele><time>2022-10-30T11:13:47.0000000+00:00</time></trkpt><trkpt lat="39.48283469" lon="-0.38748985"><ele>-48.6</ele><time>2022-10-30T11:13:48.0000000+00:00</time></trkpt><trkpt lat="39.48283377" lon="-0.3874772"><ele>-48.6</ele><time>2022-10-30T11:13:49.0000000+00:00</time></trkpt><trkpt lat="39.48283218" lon="-0.38746571"><ele>-48.6</ele><time>2022-10-30T11:13:50.0000000+00:00</time></trkpt><trkpt lat="39.48283587" lon="-0.38745557"><ele>-48.6</ele><time>2022-10-30T11:13:51.0000000+00:00</time></trkpt><trkpt lat="39.48283905" lon="-0.38746228"><ele>-48.6</ele><time>2022-10-30T11:13:52.0000000+00:00</time></trkpt><trkpt lat="39.48284148" lon="-0.3874435"><ele>-48.6</ele><time>2022-10-30T11:13:53.0000000+00:00</time></trkpt><trkpt lat="39.48284106" lon="-0.38743202"><ele>-48.6</ele><time>2022-10-30T11:13:54.0000000+00:00</time></trkpt><trkpt lat="39.48284769" lon="-0.3873834"><ele>-48.6</ele><time>2022-10-30T11:13:55.0000000+00:00</time></trkpt><trkpt lat="39.48285263" lon="-0.38729439"><ele>-48.6</ele><time>2022-10-30T11:13:56.0000000+00:00</time></trkpt><trkpt lat="39.48285397" lon="-0.3872451"><ele>-48.8</ele><time>2022-10-30T11:13:57.0000000+00:00</time></trkpt><trkpt lat="39.48285179" lon="-0.38721828"><ele>-48.8</ele><time>2022-10-30T11:13:58.0000000+00:00</time></trkpt><trkpt lat="39.4828523" lon="-0.38719674"><ele>-48.6</ele><time>2022-10-30T11:13:59.0000000+00:00</time></trkpt><trkpt lat="39.48285129" lon="-0.38717737"><ele>-48.6</ele><time>2022-10-30T11:14:00.0000000+00:00</time></trkpt><trkpt lat="39.48285288" lon="-0.38715961"><ele>-48.6</ele><time>2022-10-30T11:14:01.0000000+00:00</time></trkpt><trkpt lat="39.48285171" lon="-0.38713823"><ele>-48.6</ele><time>2022-10-30T11:14:02.0000000+00:00</time></trkpt><trkpt lat="39.48287174" lon="-0.38696967"><ele>-47.4</ele><time>2022-10-30T11:14:11.0000000+00:00</time></trkpt><trkpt lat="39.48291667" lon="-0.38706648"><ele>-46.6</ele><time>2022-10-30T11:14:13.0000000+00:00</time></trkpt><trkpt lat="39.48296243" lon="-0.38707319"><ele>-46.4</ele><time>2022-10-30T11:14:15.0000000+00:00</time></trkpt><trkpt lat="39.48284735" lon="-0.38732699"><ele>-44.0</ele><time>2022-10-30T11:14:27.0000000+00:00</time></trkpt><trkpt lat="39.48278407" lon="-0.38744266"><ele>-42.8</ele><time>2022-10-30T11:14:33.0000000+00:00</time></trkpt><trkpt lat="39.4827777" lon="-0.38742129"><ele>-42.2</ele><time>2022-10-30T11:14:36.0000000+00:00</time></trkpt><trkpt lat="39.48295271" lon="-0.38728416"><ele>-41.0</ele><time>2022-10-30T11:14:41.0000000+00:00</time></trkpt><trkpt lat="39.48299512" lon="-0.38724049"><ele>-41.0</ele><time>2022-10-30T11:14:42.0000000+00:00</time></trkpt><trkpt lat="39.48307383" lon="-0.38719003"><ele>-40.8</ele><time>2022-10-30T11:14:43.0000000+00:00</time></trkpt><trkpt lat="39.48312772" lon="-0.38715961"><ele>-40.6</ele><time>2022-10-30T11:14:44.0000000+00:00</time></trkpt><trkpt lat="39.48315002" lon="-0.38712164"><ele>-40.4</ele><time>2022-10-30T11:14:45.0000000+00:00</time></trkpt><trkpt lat="39.48318346" lon="-0.38707512"><ele>-40.2</ele><time>2022-10-30T11:14:46.0000000+00:00</time></trkpt><trkpt lat="39.48427236" lon="-0.38630448"><ele>-39.8</ele><time>2022-10-30T11:15:14.0000000+00:00</time></trkpt><trkpt lat="39.4840587" lon="-0.38647908"><ele>-39.8</ele><time>2022-10-30T11:15:15.0000000+00:00</time></trkpt><trkpt lat="39.4833765" lon="-0.3864417"><ele>-39.4</ele><time>2022-10-30T11:16:13.0000000+00:00</time></trkpt><trkpt lat="39.48346979" lon="-0.38639274"><ele>-39.4</ele><time>2022-10-30T11:16:14.0000000+00:00</time></trkpt><trkpt lat="39.48315782" lon="-0.38690748"><ele>-39.4</ele><time>2022-10-30T11:16:15.0000000+00:00</time></trkpt><trkpt lat="39.48310358" lon="-0.38690639"><ele>-39.4</ele><time>2022-10-30T11:16:16.0000000+00:00</time></trkpt><trkpt lat="39.4830548" lon="-0.38738642"><ele>-47.0</ele><time>2022-10-30T11:21:13.0000000+00:00</time></trkpt><trkpt lat="39.48304273" lon="-0.3873637"><ele>-47.0</ele><time>2022-10-30T11:21:14.0000000+00:00</time></trkpt><trkpt lat="39.48302538" lon="-0.38732749"><ele>-47.0</ele><time>2022-10-30T11:21:15.0000000+00:00</time></trkpt><trkpt lat="39.4829818" lon="-0.38729447"><ele>-46.8</ele><time>2022-10-30T11:21:16.0000000+00:00</time></trkpt><trkpt lat="39.48295933" lon="-0.38726882"><ele>-46.8</ele><time>2022-10-30T11:21:17.0000000+00:00</time></trkpt><trkpt lat="39.48295347" lon="-0.38724317"><ele>-46.8</ele><time>2022-10-30T11:21:18.0000000+00:00</time></trkpt><trkpt lat="39.48293712" lon="-0.38720721"><ele>-46.8</ele><time>2022-10-30T11:21:19.0000000+00:00</time></trkpt><trkpt lat="39.48293326" lon="-0.38718224"><ele>-46.8</ele><time>2022-10-30T11:21:20.0000000+00:00</time></trkpt><trkpt lat="39.48292907" lon="-0.38716841"><ele>-46.8</ele><time>2022-10-30T11:21:21.0000000+00:00</time></trkpt><trkpt lat="39.48290267" lon="-0.38712457"><ele>-46.8</ele><time>2022-10-30T11:21:22.0000000+00:00</time></trkpt><trkpt lat="39.48288021" lon="-0.38709079"><ele>-46.8</ele><time>2022-10-30T11:21:23.0000000+00:00</time></trkpt><trkpt lat="39.48287459" lon="-0.38708802"><ele>-46.8</ele><time>2022-10-30T11:21:24.0000000+00:00</time></trkpt><trkpt lat="39.48286956" lon="-0.38707872"><ele>-46.8</ele><time>2022-10-30T11:21:25.0000000+00:00</time></trkpt><trkpt lat="39.48285657" lon="-0.38707444"><ele>-46.8</ele><time>2022-10-30T11:21:26.0000000+00:00</time></trkpt><trkpt lat="39.48285674" lon="-0.38707067"><ele>-46.8</ele><time>2022-10-30T11:21:27.0000000+00:00</time></trkpt><trkpt lat="39.48284777" lon="-0.38705626"><ele>-46.8</ele><time>2022-10-30T11:21:28.0000000+00:00</time></trkpt><trkpt lat="39.4828383" lon="-0.38704896"><ele>-46.8</ele><time>2022-10-30T11:21:29.0000000+00:00</time></trkpt><trkpt lat="39.48282673" lon="-0.38704494"><ele>-46.8</ele><time>2022-10-30T11:21:30.0000000+00:00</time></trkpt><trkpt lat="39.48281827" lon="-0.38704645"><ele>-46.8</ele><time>2022-10-30T11:21:31.0000000+00:00</time></trkpt><trkpt lat="39.4828077" lon="-0.38704846"><ele>-47.0</ele><time>2022-10-30T11:21:32.0000000+00:00</time></trkpt><trkpt lat="39.48279572" lon="-0.38704192"><ele>-47.0</ele><time>2022-10-30T11:21:33.0000000+00:00</time></trkpt><trkpt lat="39.48278097" lon="-0.38703891"><ele>-47.0</ele><time>2022-10-30T11:21:34.0000000+00:00</time></trkpt><trkpt lat="39.48276705" lon="-0.38703983"><ele>-47.0</ele><time>2022-10-30T11:21:35.0000000+00:00</time></trkpt><trkpt lat="39.48275347" lon="-0.38704276"><ele>-47.0</ele><time>2022-10-30T11:21:36.0000000+00:00</time></trkpt><trkpt lat="39.48273847" lon="-0.38704008"><ele>-47.0</ele><time>2022-10-30T11:21:37.0000000+00:00</time></trkpt><trkpt lat="39.48272766" lon="-0.38704134"><ele>-46.8</ele><time>2022-10-30T11:21:38.0000000+00:00</time></trkpt><trkpt lat="39.48272062" lon="-0.38704402"><ele>-46.8</ele><time>2022-10-30T11:21:39.0000000+00:00</time></trkpt><trkpt lat="39.48271441" lon="-0.38703597"><ele>-46.8</ele><time>2022-10-30T11:21:40.0000000+00:00</time></trkpt><trkpt lat="39.48269933" lon="-0.38703002"><ele>-46.8</ele><time>2022-10-30T11:21:41.0000000+00:00</time></trkpt><trkpt lat="39.48267728" lon="-0.38702239"><ele>-46.8</ele><time>2022-10-30T11:21:42.0000000+00:00</time></trkpt><trkpt lat="39.48265758" lon="-0.38702591"><ele>-46.8</ele><time>2022-10-30T11:21:43.0000000+00:00</time></trkpt><trkpt lat="39.48264166" lon="-0.38702994"><ele>-46.8</ele><time>2022-10-30T11:21:44.0000000+00:00</time></trkpt><trkpt lat="39.48262707" lon="-0.38703354"><ele>-47.0</ele><time>2022-10-30T11:21:45.0000000+00:00</time></trkpt><trkpt lat="39.48261039" lon="-0.38703404"><ele>-47.0</ele><time>2022-10-30T11:21:46.0000000+00:00</time></trkpt><trkpt lat="39.48258148" lon="-0.38703614"><ele>-47.0</ele><time>2022-10-30T11:21:47.0000000+00:00</time></trkpt><trkpt lat="39.4825767" lon="-0.38702508"><ele>-47.0</ele><time>2022-10-30T11:21:48.0000000+00:00</time></trkpt><trkpt lat="39.48257066" lon="-0.3870099"><ele>-47.0</ele><time>2022-10-30T11:21:49.0000000+00:00</time></trkpt><trkpt lat="39.48255893" lon="-0.38700622"><ele>-47.0</ele><time>2022-10-30T11:21:50.0000000+00:00</time></trkpt><trkpt lat="39.48255415" lon="-0.38699758"><ele>-46.8</ele><time>2022-10-30T11:21:51.0000000+00:00</time></trkpt><trkpt lat="39.48254912" lon="-0.38698308"><ele>-46.8</ele><time>2022-10-30T11:21:52.0000000+00:00</time></trkpt><trkpt lat="39.48255415" lon="-0.38696657"><ele>-46.8</ele><time>2022-10-30T11:21:53.0000000+00:00</time></trkpt><trkpt lat="39.48255139" lon="-0.38695676"><ele>-46.8</ele><time>2022-10-30T11:21:54.0000000+00:00</time></trkpt><trkpt lat="39.4825461" lon="-0.38694654"><ele>-46.8</ele><time>2022-10-30T11:21:55.0000000+00:00</time></trkpt><trkpt lat="39.4825487" lon="-0.38693413"><ele>-46.8</ele><time>2022-10-30T11:21:56.0000000+00:00</time></trkpt><trkpt lat="39.48255155" lon="-0.38692357"><ele>-46.8</ele><time>2022-10-30T11:21:57.0000000+00:00</time></trkpt><trkpt lat="39.48254845" lon="-0.38691678"><ele>-47.0</ele><time>2022-10-30T11:21:58.0000000+00:00</time></trkpt><trkpt lat="39.48255206" lon="-0.38691326"><ele>-47.0</ele><time>2022-10-30T11:21:59.0000000+00:00</time></trkpt><trkpt lat="39.48255457" lon="-0.38691376"><ele>-47.0</ele><time>2022-10-30T11:22:00.0000000+00:00</time></trkpt><trkpt lat="39.48255859" lon="-0.38691603"><ele>-47.0</ele><time>2022-10-30T11:22:01.0000000+00:00</time></trkpt><trkpt lat="39.48255616" lon="-0.38692332"><ele>-47.0</ele><time>2022-10-30T11:22:02.0000000+00:00</time></trkpt><trkpt lat="39.48255541" lon="-0.38692952"><ele>-47.0</ele><time>2022-10-30T11:22:03.0000000+00:00</time></trkpt><trkpt lat="39.48256295" lon="-0.38693237"><ele>-46.8</ele><time>2022-10-30T11:22:04.0000000+00:00</time></trkpt><trkpt lat="39.48257678" lon="-0.38692567"><ele>-46.8</ele><time>2022-10-30T11:22:05.0000000+00:00</time></trkpt><trkpt lat="39.48257326" lon="-0.38692131"><ele>-46.8</ele><time>2022-10-30T11:22:06.0000000+00:00</time></trkpt><trkpt lat="39.48257217" lon="-0.38691544"><ele>-46.8</ele><time>2022-10-30T11:22:07.0000000+00:00</time></trkpt><trkpt lat="39.4825777" lon="-0.38691108"><ele>-46.8</ele><time>2022-10-30T11:22:08.0000000+00:00</time></trkpt><trkpt lat="39.48258097" lon="-0.38690412"><ele>-46.8</ele><time>2022-10-30T11:22:09.0000000+00:00</time></trkpt><trkpt lat="39.48258131" lon="-0.38690069"><ele>-46.8</ele><time>2022-10-30T11:22:10.0000000+00:00</time></trkpt><trkpt lat="39.48257913" lon="-0.38688979"><ele>-46.6</ele><time>2022-10-30T11:22:11.0000000+00:00</time></trkpt><trkpt lat="39.48257553" lon="-0.38688049"><ele>-46.6</ele><time>2022-10-30T11:22:12.0000000+00:00</time></trkpt><trkpt lat="39.4825684" lon="-0.38687429"><ele>-46.6</ele><time>2022-10-30T11:22:13.0000000+00:00</time></trkpt><trkpt lat="39.48256186" lon="-0.38686892"><ele>-46.6</ele><time>2022-10-30T11:22:14.0000000+00:00</time></trkpt><trkpt lat="39.48256052" lon="-0.38685693"><ele>-46.6</ele><time>2022-10-30T11:22:15.0000000+00:00</time></trkpt><trkpt lat="39.48256002" lon="-0.38684495"><ele>-46.6</ele><time>2022-10-30T11:22:16.0000000+00:00</time></trkpt><trkpt lat="39.48256454" lon="-0.3868312"><ele>-46.6</ele><time>2022-10-30T11:22:17.0000000+00:00</time></trkpt><trkpt lat="39.48257184" lon="-0.3868131"><ele>-46.6</ele><time>2022-10-30T11:22:18.0000000+00:00</time></trkpt><trkpt lat="39.48258055" lon="-0.38679374"><ele>-46.4</ele><time>2022-10-30T11:22:19.0000000+00:00</time></trkpt><trkpt lat="39.48258827" lon="-0.38677161"><ele>-46.4</ele><time>2022-10-30T11:22:20.0000000+00:00</time></trkpt><trkpt lat="39.48258952" lon="-0.38674931"><ele>-46.4</ele><time>2022-10-30T11:22:21.0000000+00:00</time></trkpt><trkpt lat="39.48259397" lon="-0.38673003"><ele>-46.4</ele><time>2022-10-30T11:22:22.0000000+00:00</time></trkpt><trkpt lat="39.48260092" lon="-0.38671352"><ele>-46.4</ele><time>2022-10-30T11:22:23.0000000+00:00</time></trkpt><trkpt lat="39.48260562" lon="-0.38669114"><ele>-46.4</ele><time>2022-10-30T11:22:24.0000000+00:00</time></trkpt><trkpt lat="39.48260687" lon="-0.38666826"><ele>-46.4</ele><time>2022-10-30T11:22:25.0000000+00:00</time></trkpt><trkpt lat="39.48261224" lon="-0.38664253"><ele>-46.4</ele><time>2022-10-30T11:22:26.0000000+00:00</time></trkpt><trkpt lat="39.4826233" lon="-0.38662107"><ele>-46.4</ele><time>2022-10-30T11:22:27.0000000+00:00</time></trkpt><trkpt lat="39.48263018" lon="-0.38660338"><ele>-46.4</ele><time>2022-10-30T11:22:28.0000000+00:00</time></trkpt><trkpt lat="39.48263428" lon="-0.38658452"><ele>-46.4</ele><time>2022-10-30T11:22:29.0000000+00:00</time></trkpt><trkpt lat="39.48264023" lon="-0.38657136"><ele>-46.4</ele><time>2022-10-30T11:22:30.0000000+00:00</time></trkpt><trkpt lat="39.4826482" lon="-0.38655837"><ele>-46.4</ele><time>2022-10-30T11:22:31.0000000+00:00</time></trkpt><trkpt lat="39.48265423" lon="-0.38654295"><ele>-46.2</ele><time>2022-10-30T11:22:32.0000000+00:00</time></trkpt><trkpt lat="39.48265884" lon="-0.38653004"><ele>-46.2</ele><time>2022-10-30T11:22:33.0000000+00:00</time></trkpt><trkpt lat="39.48266647" lon="-0.3865152"><ele>-46.2</ele><time>2022-10-30T11:22:34.0000000+00:00</time></trkpt><trkpt lat="39.48267066" lon="-0.3865038"><ele>-46.2</ele><time>2022-10-30T11:22:35.0000000+00:00</time></trkpt><trkpt lat="39.48267175" lon="-0.38649241"><ele>-46.2</ele><time>2022-10-30T11:22:36.0000000+00:00</time></trkpt><trkpt lat="39.48266856" lon="-0.38648645"><ele>-46.2</ele><time>2022-10-30T11:22:37.0000000+00:00</time></trkpt><trkpt lat="39.48266722" lon="-0.38648595"><ele>-46.0</ele><time>2022-10-30T11:22:38.0000000+00:00</time></trkpt><trkpt lat="39.48266806" lon="-0.3864893"><ele>-46.0</ele><time>2022-10-30T11:22:39.0000000+00:00</time></trkpt><trkpt lat="39.48267058" lon="-0.38649316"><ele>-45.8</ele><time>2022-10-30T11:22:40.0000000+00:00</time></trkpt><trkpt lat="39.4826798" lon="-0.38649257"><ele>-45.8</ele><time>2022-10-30T11:22:41.0000000+00:00</time></trkpt><trkpt lat="39.48268868" lon="-0.38649073"><ele>-45.8</ele><time>2022-10-30T11:22:42.0000000+00:00</time></trkpt><trkpt lat="39.48269329" lon="-0.38648419"><ele>-45.8</ele><time>2022-10-30T11:22:43.0000000+00:00</time></trkpt><trkpt lat="39.48269748" lon="-0.38647564"><ele>-46.0</ele><time>2022-10-30T11:22:44.0000000+00:00</time></trkpt><trkpt lat="39.48270025" lon="-0.3864655"><ele>-46.0</ele><time>2022-10-30T11:22:45.0000000+00:00</time></trkpt><trkpt lat="39.48270578" lon="-0.38645511"><ele>-46.0</ele><time>2022-10-30T11:22:46.0000000+00:00</time></trkpt><trkpt lat="39.48271626" lon="-0.38644723"><ele>-46.0</ele><time>2022-10-30T11:22:47.0000000+00:00</time></trkpt><trkpt lat="39.48271601" lon="-0.38643214"><ele>-46.0</ele><time>2022-10-30T11:22:48.0000000+00:00</time></trkpt><trkpt lat="39.48272506" lon="-0.38641521"><ele>-46.2</ele><time>2022-10-30T11:22:49.0000000+00:00</time></trkpt><trkpt lat="39.48272799" lon="-0.38639501"><ele>-46.2</ele><time>2022-10-30T11:22:50.0000000+00:00</time></trkpt><trkpt lat="39.48273294" lon="-0.38637397"><ele>-46.2</ele><time>2022-10-30T11:22:51.0000000+00:00</time></trkpt><trkpt lat="39.48273461" lon="-0.3863593"><ele>-46.2</ele><time>2022-10-30T11:22:52.0000000+00:00</time></trkpt><trkpt lat="39.48273847" lon="-0.38634279"><ele>-46.0</ele><time>2022-10-30T11:22:53.0000000+00:00</time></trkpt><trkpt lat="39.48274543" lon="-0.38632686"><ele>-46.0</ele><time>2022-10-30T11:22:54.0000000+00:00</time></trkpt><trkpt lat="39.48275347" lon="-0.38631337"><ele>-46.0</ele><time>2022-10-30T11:22:55.0000000+00:00</time></trkpt><trkpt lat="39.48276001" lon="-0.38630281"><ele>-46.0</ele><time>2022-10-30T11:22:56.0000000+00:00</time></trkpt><trkpt lat="39.48276546" lon="-0.38629208"><ele>-46.0</ele><time>2022-10-30T11:22:57.0000000+00:00</time></trkpt><trkpt lat="39.48276831" lon="-0.3862785"><ele>-46.0</ele><time>2022-10-30T11:22:58.0000000+00:00</time></trkpt><trkpt lat="39.48277258" lon="-0.38626744"><ele>-46.0</ele><time>2022-10-30T11:22:59.0000000+00:00</time></trkpt><trkpt lat="39.48277979" lon="-0.38625444"><ele>-46.0</ele><time>2022-10-30T11:23:00.0000000+00:00</time></trkpt><trkpt lat="39.48278826" lon="-0.38623944"><ele>-45.8</ele><time>2022-10-30T11:23:01.0000000+00:00</time></trkpt><trkpt lat="39.48279647" lon="-0.38622662"><ele>-45.8</ele><time>2022-10-30T11:23:02.0000000+00:00</time></trkpt><trkpt lat="39.48280385" lon="-0.38620893"><ele>-46.0</ele><time>2022-10-30T11:23:03.0000000+00:00</time></trkpt><trkpt lat="39.48281072" lon="-0.38619208"><ele>-46.0</ele><time>2022-10-30T11:23:04.0000000+00:00</time></trkpt><trkpt lat="39.48281609" lon="-0.38617699"><ele>-46.0</ele><time>2022-10-30T11:23:05.0000000+00:00</time></trkpt><trkpt lat="39.48281835" lon="-0.3861599"><ele>-46.0</ele><time>2022-10-30T11:23:06.0000000+00:00</time></trkpt><trkpt lat="39.48282145" lon="-0.38614313"><ele>-46.0</ele><time>2022-10-30T11:23:07.0000000+00:00</time></trkpt><trkpt lat="39.4828321" lon="-0.38613307"><ele>-46.0</ele><time>2022-10-30T11:23:08.0000000+00:00</time></trkpt><trkpt lat="39.48283922" lon="-0.38611933"><ele>-46.0</ele><time>2022-10-30T11:23:09.0000000+00:00</time></trkpt><trkpt lat="39.482845" lon="-0.38610432"><ele>-46.0</ele><time>2022-10-30T11:23:10.0000000+00:00</time></trkpt><trkpt lat="39.48284928" lon="-0.38609074"><ele>-45.8</ele><time>2022-10-30T11:23:11.0000000+00:00</time></trkpt><trkpt lat="39.48285355" lon="-0.38607515"><ele>-45.8</ele><time>2022-10-30T11:23:12.0000000+00:00</time></trkpt><trkpt lat="39.48286361" lon="-0.38606091"><ele>-45.8</ele><time>2022-10-30T11:23:13.0000000+00:00</time></trkpt><trkpt lat="39.4828782" lon="-0.38605093"><ele>-45.8</ele><time>2022-10-30T11:23:14.0000000+00:00</time></trkpt><trkpt lat="39.48288641" lon="-0.38603987"><ele>-45.8</ele><time>2022-10-30T11:23:15.0000000+00:00</time></trkpt><trkpt lat="39.48289404" lon="-0.38602436"><ele>-45.8</ele><time>2022-10-30T11:23:16.0000000+00:00</time></trkpt><trkpt lat="39.48291097" lon="-0.38600433"><ele>-45.8</ele><time>2022-10-30T11:23:17.0000000+00:00</time></trkpt><trkpt lat="39.48292103" lon="-0.38598865"><ele>-45.8</ele><time>2022-10-30T11:23:18.0000000+00:00</time></trkpt><trkpt lat="39.48292916" lon="-0.38597189"><ele>-46.0</ele><time>2022-10-30T11:23:19.0000000+00:00</time></trkpt><trkpt lat="39.48293637" lon="-0.38595806"><ele>-46.0</ele><time>2022-10-30T11:23:20.0000000+00:00</time></trkpt><trkpt lat="39.48295078" lon="-0.38594725"><ele>-46.0</ele><time>2022-10-30T11:23:21.0000000+00:00</time></trkpt><trkpt lat="39.48296118" lon="-0.38593358"><ele>-46.0</ele><time>2022-10-30T11:23:22.0000000+00:00</time></trkpt><trkpt lat="39.48296897" lon="-0.38592177"><ele>-46.0</ele><time>2022-10-30T11:23:23.0000000+00:00</time></trkpt><trkpt lat="39.48297786" lon="-0.38590978"><ele>-46.0</ele><time>2022-10-30T11:23:24.0000000+00:00</time></trkpt><trkpt lat="39.48298724" lon="-0.38589729"><ele>-46.0</ele><time>2022-10-30T11:23:25.0000000+00:00</time></trkpt><trkpt lat="39.48299009" lon="-0.38588564"><ele>-46.0</ele><time>2022-10-30T11:23:26.0000000+00:00</time></trkpt><trkpt lat="39.48298926" lon="-0.38587055"><ele>-46.0</ele><time>2022-10-30T11:23:27.0000000+00:00</time></trkpt><trkpt lat="39.48298515" lon="-0.38584859"><ele>-46.2</ele><time>2022-10-30T11:23:28.0000000+00:00</time></trkpt><trkpt lat="39.48298599" lon="-0.38582822"><ele>-46.2</ele><time>2022-10-30T11:23:29.0000000+00:00</time></trkpt><trkpt lat="39.4830025" lon="-0.38581825"><ele>-46.0</ele><time>2022-10-30T11:23:30.0000000+00:00</time></trkpt><trkpt lat="39.48302094" lon="-0.3858123"><ele>-46.0</ele><time>2022-10-30T11:23:31.0000000+00:00</time></trkpt><trkpt lat="39.48303569" lon="-0.3858092"><ele>-45.8</ele><time>2022-10-30T11:23:32.0000000+00:00</time></trkpt><trkpt lat="39.48305329" lon="-0.38579696"><ele>-45.8</ele><time>2022-10-30T11:23:33.0000000+00:00</time></trkpt><trkpt lat="39.48305698" lon="-0.38577743"><ele>-46.0</ele><time>2022-10-30T11:23:34.0000000+00:00</time></trkpt><trkpt lat="39.48307182" lon="-0.38576821"><ele>-46.0</ele><time>2022-10-30T11:23:35.0000000+00:00</time></trkpt><trkpt lat="39.48308121" lon="-0.38575664"><ele>-46.0</ele><time>2022-10-30T11:23:36.0000000+00:00</time></trkpt><trkpt lat="39.48309462" lon="-0.38574642"><ele>-46.0</ele><time>2022-10-30T11:23:37.0000000+00:00</time></trkpt><trkpt lat="39.48309956" lon="-0.38573518"><ele>-46.0</ele><time>2022-10-30T11:23:38.0000000+00:00</time></trkpt><trkpt lat="39.48310417" lon="-0.38571859"><ele>-46.0</ele><time>2022-10-30T11:23:39.0000000+00:00</time></trkpt><trkpt lat="39.48310082" lon="-0.38569705"><ele>-46.0</ele><time>2022-10-30T11:23:40.0000000+00:00</time></trkpt><trkpt lat="39.48309814" lon="-0.38567651"><ele>-46.0</ele><time>2022-10-30T11:23:41.0000000+00:00</time></trkpt><trkpt lat="39.48309973" lon="-0.38566033"><ele>-46.0</ele><time>2022-10-30T11:23:42.0000000+00:00</time></trkpt><trkpt lat="39.48309965" lon="-0.38564852"><ele>-46.0</ele><time>2022-10-30T11:23:43.0000000+00:00</time></trkpt><trkpt lat="39.48309428" lon="-0.38563418"><ele>-46.0</ele><time>2022-10-30T11:23:44.0000000+00:00</time></trkpt><trkpt lat="39.48309822" lon="-0.38561784"><ele>-46.0</ele><time>2022-10-30T11:23:45.0000000+00:00</time></trkpt><trkpt lat="39.48310266" lon="-0.38560568"><ele>-46.0</ele><time>2022-10-30T11:23:46.0000000+00:00</time></trkpt><trkpt lat="39.4831144" lon="-0.38559504"><ele>-46.0</ele><time>2022-10-30T11:23:47.0000000+00:00</time></trkpt><trkpt lat="39.48312203" lon="-0.38558087"><ele>-46.0</ele><time>2022-10-30T11:23:48.0000000+00:00</time></trkpt><trkpt lat="39.48313393" lon="-0.38556813"><ele>-46.0</ele><time>2022-10-30T11:23:49.0000000+00:00</time></trkpt><trkpt lat="39.48314147" lon="-0.38555464"><ele>-46.0</ele><time>2022-10-30T11:23:50.0000000+00:00</time></trkpt><trkpt lat="39.48314667" lon="-0.38554391"><ele>-46.0</ele><time>2022-10-30T11:23:51.0000000+00:00</time></trkpt><trkpt lat="39.4831553" lon="-0.38552932"><ele>-46.0</ele><time>2022-10-30T11:23:52.0000000+00:00</time></trkpt><trkpt lat="39.48316729" lon="-0.38551826"><ele>-46.0</ele><time>2022-10-30T11:23:53.0000000+00:00</time></trkpt><trkpt lat="39.48317542" lon="-0.38550602"><ele>-46.0</ele><time>2022-10-30T11:23:54.0000000+00:00</time></trkpt><trkpt lat="39.48317911" lon="-0.38548616"><ele>-46.0</ele><time>2022-10-30T11:23:55.0000000+00:00</time></trkpt><trkpt lat="39.4831802" lon="-0.38546101"><ele>-46.0</ele><time>2022-10-30T11:23:56.0000000+00:00</time></trkpt><trkpt lat="39.48318875" lon="-0.38544542"><ele>-46.0</ele><time>2022-10-30T11:23:57.0000000+00:00</time></trkpt><trkpt lat="39.48320182" lon="-0.38543461"><ele>-46.0</ele><time>2022-10-30T11:23:58.0000000+00:00</time></trkpt><trkpt lat="39.48321532" lon="-0.38542371"><ele>-46.0</ele><time>2022-10-30T11:23:59.0000000+00:00</time></trkpt><trkpt lat="39.48322722" lon="-0.38541374"><ele>-46.2</ele><time>2022-10-30T11:24:00.0000000+00:00</time></trkpt><trkpt lat="39.48323694" lon="-0.38540527"><ele>-46.2</ele><time>2022-10-30T11:24:01.0000000+00:00</time></trkpt><trkpt lat="39.48324557" lon="-0.38539723"><ele>-46.2</ele><time>2022-10-30T11:24:02.0000000+00:00</time></trkpt><trkpt lat="39.48325614" lon="-0.38538801"><ele>-46.2</ele><time>2022-10-30T11:24:03.0000000+00:00</time></trkpt><trkpt lat="39.48326368" lon="-0.38537753"><ele>-46.2</ele><time>2022-10-30T11:24:04.0000000+00:00</time></trkpt><trkpt lat="39.4832677" lon="-0.38535708"><ele>-46.2</ele><time>2022-10-30T11:24:05.0000000+00:00</time></trkpt><trkpt lat="39.48326837" lon="-0.38533914"><ele>-46.0</ele><time>2022-10-30T11:24:06.0000000+00:00</time></trkpt><trkpt lat="39.48327005" lon="-0.38532405"><ele>-46.0</ele><time>2022-10-30T11:24:07.0000000+00:00</time></trkpt><trkpt lat="39.48327977" lon="-0.3853119"><ele>-46.0</ele><time>2022-10-30T11:24:08.0000000+00:00</time></trkpt><trkpt lat="39.48328698" lon="-0.38529748"><ele>-46.0</ele><time>2022-10-30T11:24:09.0000000+00:00</time></trkpt><trkpt lat="39.48329645" lon="-0.38528348"><ele>-46.0</ele><time>2022-10-30T11:24:10.0000000+00:00</time></trkpt><trkpt lat="39.48330089" lon="-0.38527167"><ele>-46.0</ele><time>2022-10-30T11:24:11.0000000+00:00</time></trkpt><trkpt lat="39.48330794" lon="-0.38525767"><ele>-46.0</ele><time>2022-10-30T11:24:12.0000000+00:00</time></trkpt><trkpt lat="39.48331028" lon="-0.385243"><ele>-46.0</ele><time>2022-10-30T11:24:13.0000000+00:00</time></trkpt><trkpt lat="39.48331447" lon="-0.38523001"><ele>-46.2</ele><time>2022-10-30T11:24:14.0000000+00:00</time></trkpt><trkpt lat="39.48331741" lon="-0.38521769"><ele>-46.2</ele><time>2022-10-30T11:24:15.0000000+00:00</time></trkpt><trkpt lat="39.48332059" lon="-0.38520578"><ele>-46.2</ele><time>2022-10-30T11:24:16.0000000+00:00</time></trkpt><trkpt lat="39.48332763" lon="-0.38518961"><ele>-46.2</ele><time>2022-10-30T11:24:17.0000000+00:00</time></trkpt><trkpt lat="39.48333417" lon="-0.38517041"><ele>-46.2</ele><time>2022-10-30T11:24:18.0000000+00:00</time></trkpt><trkpt lat="39.48333124" lon="-0.38514845"><ele>-46.2</ele><time>2022-10-30T11:24:19.0000000+00:00</time></trkpt><trkpt lat="39.48333132" lon="-0.38512414"><ele>-46.2</ele><time>2022-10-30T11:24:20.0000000+00:00</time></trkpt><trkpt lat="39.48333358" lon="-0.38510126"><ele>-46.2</ele><time>2022-10-30T11:24:21.0000000+00:00</time></trkpt><trkpt lat="39.48331866" lon="-0.38508265"><ele>-46.2</ele><time>2022-10-30T11:24:22.0000000+00:00</time></trkpt><trkpt lat="39.48329863" lon="-0.38506522"><ele>-46.2</ele><time>2022-10-30T11:24:23.0000000+00:00</time></trkpt><trkpt lat="39.48326913" lon="-0.38504435"><ele>-46.2</ele><time>2022-10-30T11:24:24.0000000+00:00</time></trkpt><trkpt lat="39.48324306" lon="-0.38502289"><ele>-46.2</ele><time>2022-10-30T11:24:25.0000000+00:00</time></trkpt><trkpt lat="39.4832216" lon="-0.38500738"><ele>-46.2</ele><time>2022-10-30T11:24:26.0000000+00:00</time></trkpt><trkpt lat="39.48320576" lon="-0.38499439"><ele>-46.2</ele><time>2022-10-30T11:24:27.0000000+00:00</time></trkpt><trkpt lat="39.48319562" lon="-0.38498207"><ele>-46.2</ele><time>2022-10-30T11:24:28.0000000+00:00</time></trkpt><trkpt lat="39.48318221" lon="-0.38497335"><ele>-46.2</ele><time>2022-10-30T11:24:29.0000000+00:00</time></trkpt><trkpt lat="39.48317207" lon="-0.38496816"><ele>-46.2</ele><time>2022-10-30T11:24:30.0000000+00:00</time></trkpt><trkpt lat="39.48315488" lon="-0.38496112"><ele>-46.2</ele><time>2022-10-30T11:24:31.0000000+00:00</time></trkpt><trkpt lat="39.48313326" lon="-0.38495248"><ele>-46.2</ele><time>2022-10-30T11:24:32.0000000+00:00</time></trkpt><trkpt lat="39.48311473" lon="-0.38494125"><ele>-46.2</ele><time>2022-10-30T11:24:33.0000000+00:00</time></trkpt><trkpt lat="39.48309562" lon="-0.38492641"><ele>-46.2</ele><time>2022-10-30T11:24:34.0000000+00:00</time></trkpt><trkpt lat="39.48308766" lon="-0.38491837"><ele>-46.2</ele><time>2022-10-30T11:24:35.0000000+00:00</time></trkpt><trkpt lat="39.48308246" lon="-0.38491317"><ele>-46.2</ele><time>2022-10-30T11:24:36.0000000+00:00</time></trkpt><trkpt lat="39.48306385" lon="-0.38489766"><ele>-46.2</ele><time>2022-10-30T11:24:37.0000000+00:00</time></trkpt><trkpt lat="39.48304466" lon="-0.38489339"><ele>-46.2</ele><time>2022-10-30T11:24:38.0000000+00:00</time></trkpt><trkpt lat="39.4830336" lon="-0.38487579"><ele>-46.2</ele><time>2022-10-30T11:24:39.0000000+00:00</time></trkpt><trkpt lat="39.48302873" lon="-0.3848612"><ele>-46.2</ele><time>2022-10-30T11:24:40.0000000+00:00</time></trkpt><trkpt lat="39.4830315" lon="-0.3848436"><ele>-46.2</ele><time>2022-10-30T11:24:41.0000000+00:00</time></trkpt><trkpt lat="39.48303016" lon="-0.38483882"><ele>-46.2</ele><time>2022-10-30T11:24:42.0000000+00:00</time></trkpt><trkpt lat="39.48302572" lon="-0.38483078"><ele>-46.2</ele><time>2022-10-30T11:24:43.0000000+00:00</time></trkpt><trkpt lat="39.48301273" lon="-0.38481443"><ele>-46.2</ele><time>2022-10-30T11:24:44.0000000+00:00</time></trkpt><trkpt lat="39.48300418" lon="-0.38480412"><ele>-46.2</ele><time>2022-10-30T11:24:45.0000000+00:00</time></trkpt><trkpt lat="39.48299093" lon="-0.38479666"><ele>-46.2</ele><time>2022-10-30T11:24:46.0000000+00:00</time></trkpt><trkpt lat="39.48298574" lon="-0.38480194"><ele>-46.4</ele><time>2022-10-30T11:24:47.0000000+00:00</time></trkpt><trkpt lat="39.48298414" lon="-0.38479775"><ele>-46.4</ele><time>2022-10-30T11:24:48.0000000+00:00</time></trkpt><trkpt lat="39.48298674" lon="-0.38477613"><ele>-46.4</ele><time>2022-10-30T11:24:49.0000000+00:00</time></trkpt><trkpt lat="39.48299839" lon="-0.38476087"><ele>-46.4</ele><time>2022-10-30T11:24:50.0000000+00:00</time></trkpt><trkpt lat="39.48299303" lon="-0.38473606"><ele>-46.4</ele><time>2022-10-30T11:24:51.0000000+00:00</time></trkpt><trkpt lat="39.4829833" lon="-0.38470639"><ele>-46.4</ele><time>2022-10-30T11:24:52.0000000+00:00</time></trkpt><trkpt lat="39.48296621" lon="-0.38468443"><ele>-46.4</ele><time>2022-10-30T11:24:53.0000000+00:00</time></trkpt><trkpt lat="39.48296302" lon="-0.38468007"><ele>-46.4</ele><time>2022-10-30T11:24:54.0000000+00:00</time></trkpt><trkpt lat="39.48296109" lon="-0.38468384"><ele>-46.4</ele><time>2022-10-30T11:24:55.0000000+00:00</time></trkpt><trkpt lat="39.48295581" lon="-0.38467336"><ele>-46.4</ele><time>2022-10-30T11:24:56.0000000+00:00</time></trkpt><trkpt lat="39.48295564" lon="-0.38467144"><ele>-46.4</ele><time>2022-10-30T11:24:57.0000000+00:00</time></trkpt><trkpt lat="39.48295665" lon="-0.38466984"><ele>-46.6</ele><time>2022-10-30T11:24:58.0000000+00:00</time></trkpt><trkpt lat="39.4829533" lon="-0.3846628"><ele>-46.6</ele><time>2022-10-30T11:24:59.0000000+00:00</time></trkpt><trkpt lat="39.48295095" lon="-0.3846613"><ele>-46.6</ele><time>2022-10-30T11:25:00.0000000+00:00</time></trkpt><trkpt lat="39.48295187" lon="-0.38466113"><ele>-46.6</ele><time>2022-10-30T11:25:01.0000000+00:00</time></trkpt><trkpt lat="39.48295405" lon="-0.38466456"><ele>-46.6</ele><time>2022-10-30T11:25:02.0000000+00:00</time></trkpt><trkpt lat="39.4829512" lon="-0.38467546"><ele>-46.6</ele><time>2022-10-30T11:25:03.0000000+00:00</time></trkpt><trkpt lat="39.48294978" lon="-0.38467479"><ele>-46.6</ele><time>2022-10-30T11:25:04.0000000+00:00</time></trkpt><trkpt lat="39.48295062" lon="-0.38467554"><ele>-46.6</ele><time>2022-10-30T11:25:05.0000000+00:00</time></trkpt><trkpt lat="39.4829533" lon="-0.38467286"><ele>-46.6</ele><time>2022-10-30T11:25:06.0000000+00:00</time></trkpt><trkpt lat="39.48295581" lon="-0.38466993"><ele>-46.6</ele><time>2022-10-30T11:25:07.0000000+00:00</time></trkpt><trkpt lat="39.48295615" lon="-0.38466917"><ele>-46.6</ele><time>2022-10-30T11:25:08.0000000+00:00</time></trkpt><trkpt lat="39.48295548" lon="-0.38466976"><ele>-46.6</ele><time>2022-10-30T11:25:09.0000000+00:00</time></trkpt><trkpt lat="39.48295548" lon="-0.38466976"><ele>-46.6</ele><time>2022-10-30T11:25:10.0000000+00:00</time></trkpt><trkpt lat="39.48295548" lon="-0.38466976"><ele>-46.6</ele><time>2022-10-30T11:25:11.0000000+00:00</time></trkpt><trkpt lat="39.48295548" lon="-0.38466976"><ele>-46.6</ele><time>2022-10-30T11:25:12.0000000+00:00</time></trkpt><trkpt lat="39.48295548" lon="-0.38466976"><ele>-46.6</ele><time>2022-10-30T11:25:13.0000000+00:00</time></trkpt><trkpt lat="39.48295548" lon="-0.38466976"><ele>-46.6</ele><time>2022-10-30T11:25:14.0000000+00:00</time></trkpt><trkpt lat="39.48295548" lon="-0.38466976"><ele>-46.6</ele><time>2022-10-30T11:25:15.0000000+00:00</time></trkpt><trkpt lat="39.48295548" lon="-0.38466976"><ele>-46.6</ele><time>2022-10-30T11:25:16.0000000+00:00</time></trkpt><trkpt lat="39.48295548" lon="-0.38466976"><ele>-46.6</ele><time>2022-10-30T11:25:17.0000000+00:00</time></trkpt><trkpt lat="39.48295548" lon="-0.38466976"><ele>-46.6</ele><time>2022-10-30T11:25:18.0000000+00:00</time></trkpt><trkpt lat="39.48295548" lon="-0.38466976"><ele>-46.6</ele><time>2022-10-30T11:25:19.0000000+00:00</time></trkpt><trkpt lat="39.48295548" lon="-0.38466976"><ele>-46.6</ele><time>2022-10-30T11:25:20.0000000+00:00</time></trkpt><trkpt lat="39.48295548" lon="-0.38466976"><ele>-46.6</ele><time>2022-10-30T11:25:21.0000000+00:00</time></trkpt><trkpt lat="39.48295548" lon="-0.38466976"><ele>-46.6</ele><time>2022-10-30T11:25:22.0000000+00:00</time></trkpt><trkpt lat="39.48295548" lon="-0.38466968"><ele>-46.6</ele><time>2022-10-30T11:25:23.0000000+00:00</time></trkpt><trkpt lat="39.48295397" lon="-0.38466708"><ele>-46.6</ele><time>2022-10-30T11:25:24.0000000+00:00</time></trkpt><trkpt lat="39.48295087" lon="-0.38466222"><ele>-46.4</ele><time>2022-10-30T11:25:25.0000000+00:00</time></trkpt><trkpt lat="39.48295372" lon="-0.3846628"><ele>-46.4</ele><time>2022-10-30T11:25:26.0000000+00:00</time></trkpt><trkpt lat="39.48294869" lon="-0.38466004"><ele>-46.4</ele><time>2022-10-30T11:25:27.0000000+00:00</time></trkpt><trkpt lat="39.48293544" lon="-0.38465501"><ele>-46.4</ele><time>2022-10-30T11:25:28.0000000+00:00</time></trkpt><trkpt lat="39.48292027" lon="-0.38466046"><ele>-46.4</ele><time>2022-10-30T11:25:29.0000000+00:00</time></trkpt><trkpt lat="39.48290602" lon="-0.38465886"><ele>-46.4</ele><time>2022-10-30T11:25:30.0000000+00:00</time></trkpt><trkpt lat="39.48289789" lon="-0.38465518"><ele>-46.4</ele><time>2022-10-30T11:25:31.0000000+00:00</time></trkpt><trkpt lat="39.48289228" lon="-0.38464411"><ele>-46.4</ele><time>2022-10-30T11:25:32.0000000+00:00</time></trkpt><trkpt lat="39.48288876" lon="-0.38463389"><ele>-46.4</ele><time>2022-10-30T11:25:33.0000000+00:00</time></trkpt><trkpt lat="39.48288649" lon="-0.38463506"><ele>-46.4</ele><time>2022-10-30T11:25:34.0000000+00:00</time></trkpt><trkpt lat="39.4828797" lon="-0.38463632"><ele>-46.4</ele><time>2022-10-30T11:25:35.0000000+00:00</time></trkpt><trkpt lat="39.48287543" lon="-0.38463766"><ele>-46.4</ele><time>2022-10-30T11:25:36.0000000+00:00</time></trkpt><trkpt lat="39.48287233" lon="-0.38463313"><ele>-46.4</ele><time>2022-10-30T11:25:37.0000000+00:00</time></trkpt><trkpt lat="39.48287149" lon="-0.38462542"><ele>-46.4</ele><time>2022-10-30T11:25:38.0000000+00:00</time></trkpt><trkpt lat="39.48287124" lon="-0.38462458"><ele>-46.4</ele><time>2022-10-30T11:25:39.0000000+00:00</time></trkpt><trkpt lat="39.482873" lon="-0.38462224"><ele>-46.4</ele><time>2022-10-30T11:25:40.0000000+00:00</time></trkpt><trkpt lat="39.48287241" lon="-0.38461293"><ele>-46.6</ele><time>2022-10-30T11:25:41.0000000+00:00</time></trkpt><trkpt lat="39.48286546" lon="-0.38460363"><ele>-46.6</ele><time>2022-10-30T11:25:42.0000000+00:00</time></trkpt><trkpt lat="39.48285908" lon="-0.3846012"><ele>-46.6</ele><time>2022-10-30T11:25:43.0000000+00:00</time></trkpt><trkpt lat="39.48284517" lon="-0.38458879"><ele>-46.6</ele><time>2022-10-30T11:25:44.0000000+00:00</time></trkpt><trkpt lat="39.48283335" lon="-0.38457739"><ele>-46.6</ele><time>2022-10-30T11:25:45.0000000+00:00</time></trkpt><trkpt lat="39.48281868" lon="-0.38456691"><ele>-46.6</ele><time>2022-10-30T11:25:46.0000000+00:00</time></trkpt><trkpt lat="39.48279044" lon="-0.38456893"><ele>-46.6</ele><time>2022-10-30T11:25:47.0000000+00:00</time></trkpt><trkpt lat="39.48276739" lon="-0.38456524"><ele>-46.6</ele><time>2022-10-30T11:25:48.0000000+00:00</time></trkpt><trkpt lat="39.48274978" lon="-0.38456826"><ele>-46.6</ele><time>2022-10-30T11:25:49.0000000+00:00</time></trkpt><trkpt lat="39.48273461" lon="-0.38457236"><ele>-46.6</ele><time>2022-10-30T11:25:50.0000000+00:00</time></trkpt><trkpt lat="39.48272321" lon="-0.38457622"><ele>-46.4</ele><time>2022-10-30T11:25:51.0000000+00:00</time></trkpt><trkpt lat="39.48272221" lon="-0.38458913"><ele>-46.4</ele><time>2022-10-30T11:25:52.0000000+00:00</time></trkpt><trkpt lat="39.48272078" lon="-0.3845955"><ele>-46.4</ele><time>2022-10-30T11:25:53.0000000+00:00</time></trkpt><trkpt lat="39.48271483" lon="-0.38459089"><ele>-46.6</ele><time>2022-10-30T11:25:54.0000000+00:00</time></trkpt><trkpt lat="39.48270829" lon="-0.38458251"><ele>-46.6</ele><time>2022-10-30T11:25:55.0000000+00:00</time></trkpt><trkpt lat="39.48270243" lon="-0.38458619"><ele>-46.6</ele><time>2022-10-30T11:25:56.0000000+00:00</time></trkpt><trkpt lat="39.48269103" lon="-0.38459332"><ele>-46.6</ele><time>2022-10-30T11:25:57.0000000+00:00</time></trkpt><trkpt lat="39.48267862" lon="-0.3845867"><ele>-46.6</ele><time>2022-10-30T11:25:58.0000000+00:00</time></trkpt><trkpt lat="39.48266706" lon="-0.38457253"><ele>-46.6</ele><time>2022-10-30T11:25:59.0000000+00:00</time></trkpt><trkpt lat="39.48265691" lon="-0.38455945"><ele>-46.6</ele><time>2022-10-30T11:26:00.0000000+00:00</time></trkpt><trkpt lat="39.482643" lon="-0.38454839"><ele>-46.6</ele><time>2022-10-30T11:26:01.0000000+00:00</time></trkpt><trkpt lat="39.48262414" lon="-0.38453624"><ele>-46.8</ele><time>2022-10-30T11:26:02.0000000+00:00</time></trkpt><trkpt lat="39.48260503" lon="-0.38452727"><ele>-46.8</ele><time>2022-10-30T11:26:03.0000000+00:00</time></trkpt><trkpt lat="39.48258433" lon="-0.38451721"><ele>-46.8</ele><time>2022-10-30T11:26:04.0000000+00:00</time></trkpt><trkpt lat="39.48256589" lon="-0.38450606"><ele>-46.8</ele><time>2022-10-30T11:26:05.0000000+00:00</time></trkpt><trkpt lat="39.48255097" lon="-0.38449961"><ele>-46.8</ele><time>2022-10-30T11:26:06.0000000+00:00</time></trkpt><trkpt lat="39.48254099" lon="-0.38450548"><ele>-46.8</ele><time>2022-10-30T11:26:07.0000000+00:00</time></trkpt><trkpt lat="39.48253613" lon="-0.3845183"><ele>-46.8</ele><time>2022-10-30T11:26:08.0000000+00:00</time></trkpt><trkpt lat="39.48254057" lon="-0.38453909"><ele>-46.8</ele><time>2022-10-30T11:26:09.0000000+00:00</time></trkpt><trkpt lat="39.48255273" lon="-0.38456264"><ele>-46.8</ele><time>2022-10-30T11:26:10.0000000+00:00</time></trkpt><trkpt lat="39.48254929" lon="-0.38457681"><ele>-46.8</ele><time>2022-10-30T11:26:11.0000000+00:00</time></trkpt><trkpt lat="39.48254066" lon="-0.38457563"><ele>-46.8</ele><time>2022-10-30T11:26:12.0000000+00:00</time></trkpt><trkpt lat="39.48252901" lon="-0.38456524"><ele>-46.8</ele><time>2022-10-30T11:26:13.0000000+00:00</time></trkpt><trkpt lat="39.48252322" lon="-0.38455728"><ele>-46.6</ele><time>2022-10-30T11:26:14.0000000+00:00</time></trkpt><trkpt lat="39.48251417" lon="-0.38455677"><ele>-46.6</ele><time>2022-10-30T11:26:15.0000000+00:00</time></trkpt><trkpt lat="39.48250671" lon="-0.38455292"><ele>-46.6</ele><time>2022-10-30T11:26:16.0000000+00:00</time></trkpt><trkpt lat="39.48249984" lon="-0.38455149"><ele>-46.4</ele><time>2022-10-30T11:26:17.0000000+00:00</time></trkpt><trkpt lat="39.48249238" lon="-0.38454705"><ele>-46.4</ele><time>2022-10-30T11:26:18.0000000+00:00</time></trkpt><trkpt lat="39.48248341" lon="-0.38454386"><ele>-46.4</ele><time>2022-10-30T11:26:19.0000000+00:00</time></trkpt><trkpt lat="39.48247444" lon="-0.38454152"><ele>-46.4</ele><time>2022-10-30T11:26:20.0000000+00:00</time></trkpt><trkpt lat="39.48246195" lon="-0.3845608"><ele>-46.4</ele><time>2022-10-30T11:26:21.0000000+00:00</time></trkpt><trkpt lat="39.48245265" lon="-0.38457186"><ele>-46.6</ele><time>2022-10-30T11:26:22.0000000+00:00</time></trkpt><trkpt lat="39.4824223" lon="-0.38458284"><ele>-46.6</ele><time>2022-10-30T11:26:23.0000000+00:00</time></trkpt><trkpt lat="39.48239766" lon="-0.38458888"><ele>-46.6</ele><time>2022-10-30T11:26:24.0000000+00:00</time></trkpt><trkpt lat="39.48237453" lon="-0.38458904"><ele>-46.6</ele><time>2022-10-30T11:26:25.0000000+00:00</time></trkpt><trkpt lat="39.48234502" lon="-0.38455149"><ele>-46.6</ele><time>2022-10-30T11:26:26.0000000+00:00</time></trkpt><trkpt lat="39.48232859" lon="-0.38449248"><ele>-46.6</ele><time>2022-10-30T11:26:27.0000000+00:00</time></trkpt><trkpt lat="39.48232382" lon="-0.38446751"><ele>-46.6</ele><time>2022-10-30T11:26:28.0000000+00:00</time></trkpt><trkpt lat="39.48232323" lon="-0.38441386"><ele>-46.6</ele><time>2022-10-30T11:26:29.0000000+00:00</time></trkpt><trkpt lat="39.48231795" lon="-0.38435812"><ele>-46.6</ele><time>2022-10-30T11:26:30.0000000+00:00</time></trkpt><trkpt lat="39.48231166" lon="-0.38429434"><ele>-46.6</ele><time>2022-10-30T11:26:31.0000000+00:00</time></trkpt><trkpt lat="39.48230512" lon="-0.38424656"><ele>-46.6</ele><time>2022-10-30T11:26:32.0000000+00:00</time></trkpt><trkpt lat="39.48229968" lon="-0.38421001"><ele>-46.6</ele><time>2022-10-30T11:26:33.0000000+00:00</time></trkpt><trkpt lat="39.48231502" lon="-0.38420607"><ele>-46.4</ele><time>2022-10-30T11:26:34.0000000+00:00</time></trkpt><trkpt lat="39.48231828" lon="-0.38423063"><ele>-46.4</ele><time>2022-10-30T11:26:35.0000000+00:00</time></trkpt><trkpt lat="39.4823244" lon="-0.3842184"><ele>-46.4</ele><time>2022-10-30T11:26:36.0000000+00:00</time></trkpt><trkpt lat="39.48232608" lon="-0.38418311"><ele>-46.4</ele><time>2022-10-30T11:26:37.0000000+00:00</time></trkpt><trkpt lat="39.48234729" lon="-0.38416794"><ele>-46.4</ele><time>2022-10-30T11:26:38.0000000+00:00</time></trkpt><trkpt lat="39.48234536" lon="-0.38412628"><ele>-46.4</ele><time>2022-10-30T11:26:39.0000000+00:00</time></trkpt><trkpt lat="39.48233664" lon="-0.38411236"><ele>-46.4</ele><time>2022-10-30T11:26:40.0000000+00:00</time></trkpt><trkpt lat="39.48233354" lon="-0.38410239"><ele>-46.6</ele><time>2022-10-30T11:26:41.0000000+00:00</time></trkpt><trkpt lat="39.48232759" lon="-0.38409828"><ele>-46.6</ele><time>2022-10-30T11:26:42.0000000+00:00</time></trkpt><trkpt lat="39.48230999" lon="-0.38409568"><ele>-46.6</ele><time>2022-10-30T11:26:43.0000000+00:00</time></trkpt><trkpt lat="39.48229767" lon="-0.38409267"><ele>-46.6</ele><time>2022-10-30T11:26:44.0000000+00:00</time></trkpt><trkpt lat="39.48228543" lon="-0.38408479"><ele>-46.6</ele><time>2022-10-30T11:26:45.0000000+00:00</time></trkpt><trkpt lat="39.4822695" lon="-0.38406006"><ele>-46.6</ele><time>2022-10-30T11:26:46.0000000+00:00</time></trkpt><trkpt lat="39.4822488" lon="-0.38401656"><ele>-46.6</ele><time>2022-10-30T11:26:47.0000000+00:00</time></trkpt><trkpt lat="39.48222885" lon="-0.3839899"><ele>-46.6</ele><time>2022-10-30T11:26:48.0000000+00:00</time></trkpt><trkpt lat="39.48221041" lon="-0.3839749"><ele>-46.6</ele><time>2022-10-30T11:26:49.0000000+00:00</time></trkpt><trkpt lat="39.48218325" lon="-0.38396476"><ele>-46.6</ele><time>2022-10-30T11:26:50.0000000+00:00</time></trkpt><trkpt lat="39.48215861" lon="-0.38395445"><ele>-46.6</ele><time>2022-10-30T11:26:51.0000000+00:00</time></trkpt><trkpt lat="39.48213087" lon="-0.38396526"><ele>-46.6</ele><time>2022-10-30T11:26:52.0000000+00:00</time></trkpt><trkpt lat="39.4821022" lon="-0.38397926"><ele>-46.6</ele><time>2022-10-30T11:26:53.0000000+00:00</time></trkpt><trkpt lat="39.4820706" lon="-0.38397943"><ele>-46.6</ele><time>2022-10-30T11:26:54.0000000+00:00</time></trkpt><trkpt lat="39.48206272" lon="-0.38399234"><ele>-46.6</ele><time>2022-10-30T11:26:55.0000000+00:00</time></trkpt><trkpt lat="39.48205861" lon="-0.38399971"><ele>-46.6</ele><time>2022-10-30T11:26:56.0000000+00:00</time></trkpt><trkpt lat="39.48205744" lon="-0.38400902"><ele>-46.6</ele><time>2022-10-30T11:26:57.0000000+00:00</time></trkpt><trkpt lat="39.48205484" lon="-0.38401899"><ele>-46.6</ele><time>2022-10-30T11:26:58.0000000+00:00</time></trkpt><trkpt lat="39.48205308" lon="-0.38403148"><ele>-46.6</ele><time>2022-10-30T11:26:59.0000000+00:00</time></trkpt><trkpt lat="39.48204755" lon="-0.38404916"><ele>-46.8</ele><time>2022-10-30T11:27:00.0000000+00:00</time></trkpt><trkpt lat="39.48203548" lon="-0.38405947"><ele>-46.8</ele><time>2022-10-30T11:27:01.0000000+00:00</time></trkpt><trkpt lat="39.48202106" lon="-0.38406836"><ele>-46.8</ele><time>2022-10-30T11:27:02.0000000+00:00</time></trkpt><trkpt lat="39.48201251" lon="-0.38408621"><ele>-46.8</ele><time>2022-10-30T11:27:03.0000000+00:00</time></trkpt><trkpt lat="39.48199885" lon="-0.38409359"><ele>-46.8</ele><time>2022-10-30T11:27:04.0000000+00:00</time></trkpt><trkpt lat="39.48197278" lon="-0.3840992"><ele>-46.8</ele><time>2022-10-30T11:27:05.0000000+00:00</time></trkpt><trkpt lat="39.48194386" lon="-0.3841008"><ele>-46.8</ele><time>2022-10-30T11:27:06.0000000+00:00</time></trkpt><trkpt lat="39.48191654" lon="-0.38410574"><ele>-46.6</ele><time>2022-10-30T11:27:07.0000000+00:00</time></trkpt><trkpt lat="39.48189575" lon="-0.3841101"><ele>-46.6</ele><time>2022-10-30T11:27:08.0000000+00:00</time></trkpt><trkpt lat="39.48187823" lon="-0.38412334"><ele>-46.6</ele><time>2022-10-30T11:27:09.0000000+00:00</time></trkpt><trkpt lat="39.48185317" lon="-0.38413458"><ele>-46.6</ele><time>2022-10-30T11:27:10.0000000+00:00</time></trkpt><trkpt lat="39.48182811" lon="-0.38414044"><ele>-46.6</ele><time>2022-10-30T11:27:11.0000000+00:00</time></trkpt><trkpt lat="39.4818095" lon="-0.38414572"><ele>-46.6</ele><time>2022-10-30T11:27:12.0000000+00:00</time></trkpt><trkpt lat="39.48178939" lon="-0.38415444"><ele>-46.6</ele><time>2022-10-30T11:27:13.0000000+00:00</time></trkpt><trkpt lat="39.48176734" lon="-0.3841557"><ele>-46.6</ele><time>2022-10-30T11:27:14.0000000+00:00</time></trkpt><trkpt lat="39.48174655" lon="-0.38415846"><ele>-46.6</ele><time>2022-10-30T11:27:15.0000000+00:00</time></trkpt><trkpt lat="39.48172669" lon="-0.38415645"><ele>-46.6</ele><time>2022-10-30T11:27:16.0000000+00:00</time></trkpt><trkpt lat="39.48170724" lon="-0.38415377"><ele>-46.4</ele><time>2022-10-30T11:27:17.0000000+00:00</time></trkpt><trkpt lat="39.48168721" lon="-0.38415318"><ele>-46.4</ele><time>2022-10-30T11:27:18.0000000+00:00</time></trkpt><trkpt lat="39.48166835" lon="-0.38414815"><ele>-46.4</ele><time>2022-10-30T11:27:19.0000000+00:00</time></trkpt><trkpt lat="39.48164413" lon="-0.38413835"><ele>-46.4</ele><time>2022-10-30T11:27:20.0000000+00:00</time></trkpt><trkpt lat="39.48161932" lon="-0.38412527"><ele>-46.6</ele><time>2022-10-30T11:27:21.0000000+00:00</time></trkpt><trkpt lat="39.48158956" lon="-0.38412494"><ele>-46.6</ele><time>2022-10-30T11:27:22.0000000+00:00</time></trkpt><trkpt lat="39.48157406" lon="-0.38412804"><ele>-46.6</ele><time>2022-10-30T11:27:23.0000000+00:00</time></trkpt><trkpt lat="39.48156039" lon="-0.38411798"><ele>-46.6</ele><time>2022-10-30T11:27:24.0000000+00:00</time></trkpt><trkpt lat="39.4815474" lon="-0.38410801"><ele>-46.6</ele><time>2022-10-30T11:27:25.0000000+00:00</time></trkpt><trkpt lat="39.48154396" lon="-0.3840987"><ele>-46.6</ele><time>2022-10-30T11:27:26.0000000+00:00</time></trkpt><trkpt lat="39.48154103" lon="-0.38408831"><ele>-46.6</ele><time>2022-10-30T11:27:27.0000000+00:00</time></trkpt><trkpt lat="39.481535" lon="-0.38408169"><ele>-46.6</ele><time>2022-10-30T11:27:28.0000000+00:00</time></trkpt><trkpt lat="39.48151706" lon="-0.38408705"><ele>-46.6</ele><time>2022-10-30T11:27:29.0000000+00:00</time></trkpt><trkpt lat="39.48150608" lon="-0.38408227"><ele>-46.8</ele><time>2022-10-30T11:27:30.0000000+00:00</time></trkpt><trkpt lat="39.48149552" lon="-0.38407297"><ele>-46.8</ele><time>2022-10-30T11:27:31.0000000+00:00</time></trkpt><trkpt lat="39.48147758" lon="-0.38405864"><ele>-46.8</ele><time>2022-10-30T11:27:32.0000000+00:00</time></trkpt><trkpt lat="39.48146291" lon="-0.38404673"><ele>-46.8</ele><time>2022-10-30T11:27:33.0000000+00:00</time></trkpt><trkpt lat="39.48145101" lon="-0.38404556"><ele>-46.8</ele><time>2022-10-30T11:27:34.0000000+00:00</time></trkpt><trkpt lat="39.4814407" lon="-0.38403751"><ele>-46.8</ele><time>2022-10-30T11:27:35.0000000+00:00</time></trkpt><trkpt lat="39.48144598" lon="-0.38404606"><ele>-46.8</ele><time>2022-10-30T11:27:36.0000000+00:00</time></trkpt><trkpt lat="39.48145093" lon="-0.38406031"><ele>-46.8</ele><time>2022-10-30T11:27:37.0000000+00:00</time></trkpt><trkpt lat="39.48146341" lon="-0.38406601"><ele>-46.8</ele><time>2022-10-30T11:27:38.0000000+00:00</time></trkpt><trkpt lat="39.48147674" lon="-0.38407565"><ele>-46.8</ele><time>2022-10-30T11:27:39.0000000+00:00</time></trkpt><trkpt lat="39.4814889" lon="-0.38409418"><ele>-46.8</ele><time>2022-10-30T11:27:40.0000000+00:00</time></trkpt><trkpt lat="39.48149694" lon="-0.38411086"><ele>-47.0</ele><time>2022-10-30T11:27:41.0000000+00:00</time></trkpt><trkpt lat="39.48150314" lon="-0.38412427"><ele>-47.0</ele><time>2022-10-30T11:27:42.0000000+00:00</time></trkpt><trkpt lat="39.48150516" lon="-0.38413349"><ele>-47.0</ele><time>2022-10-30T11:27:43.0000000+00:00</time></trkpt><trkpt lat="39.48151136" lon="-0.3841474"><ele>-47.0</ele><time>2022-10-30T11:27:44.0000000+00:00</time></trkpt><trkpt lat="39.481535" lon="-0.38416391"><ele>-47.0</ele><time>2022-10-30T11:27:45.0000000+00:00</time></trkpt><trkpt lat="39.48154313" lon="-0.38417808"><ele>-46.8</ele><time>2022-10-30T11:27:46.0000000+00:00</time></trkpt><trkpt lat="39.48154941" lon="-0.38418286"><ele>-46.8</ele><time>2022-10-30T11:27:47.0000000+00:00</time></trkpt><trkpt lat="39.48154983" lon="-0.38420146"><ele>-46.8</ele><time>2022-10-30T11:27:48.0000000+00:00</time></trkpt><trkpt lat="39.48154304" lon="-0.38421571"><ele>-46.8</ele><time>2022-10-30T11:27:49.0000000+00:00</time></trkpt><trkpt lat="39.48153977" lon="-0.38422812"><ele>-46.8</ele><time>2022-10-30T11:27:50.0000000+00:00</time></trkpt><trkpt lat="39.48152863" lon="-0.38423357"><ele>-46.8</ele><time>2022-10-30T11:27:51.0000000+00:00</time></trkpt><trkpt lat="39.48151412" lon="-0.3842448"><ele>-46.8</ele><time>2022-10-30T11:27:52.0000000+00:00</time></trkpt><trkpt lat="39.48150147" lon="-0.38425745"><ele>-46.8</ele><time>2022-10-30T11:27:53.0000000+00:00</time></trkpt><trkpt lat="39.48148973" lon="-0.38427807"><ele>-46.8</ele><time>2022-10-30T11:27:54.0000000+00:00</time></trkpt><trkpt lat="39.48148093" lon="-0.38429777"><ele>-46.8</ele><time>2022-10-30T11:27:55.0000000+00:00</time></trkpt><trkpt lat="39.48147817" lon="-0.38431227"><ele>-46.8</ele><time>2022-10-30T11:27:56.0000000+00:00</time></trkpt><trkpt lat="39.48148278" lon="-0.38433507"><ele>-46.8</ele><time>2022-10-30T11:27:57.0000000+00:00</time></trkpt><trkpt lat="39.48148605" lon="-0.38435401"><ele>-46.8</ele><time>2022-10-30T11:27:58.0000000+00:00</time></trkpt><trkpt lat="39.48148227" lon="-0.38436541"><ele>-46.8</ele><time>2022-10-30T11:27:59.0000000+00:00</time></trkpt><trkpt lat="39.48147859" lon="-0.38438444"><ele>-46.8</ele><time>2022-10-30T11:28:00.0000000+00:00</time></trkpt><trkpt lat="39.48147557" lon="-0.38440431"><ele>-46.8</ele><time>2022-10-30T11:28:01.0000000+00:00</time></trkpt><trkpt lat="39.48146937" lon="-0.38442233"><ele>-46.8</ele><time>2022-10-30T11:28:02.0000000+00:00</time></trkpt><trkpt lat="39.48145788" lon="-0.38443113"><ele>-46.8</ele><time>2022-10-30T11:28:03.0000000+00:00</time></trkpt><trkpt lat="39.48144866" lon="-0.38444211"><ele>-46.8</ele><time>2022-10-30T11:28:04.0000000+00:00</time></trkpt><trkpt lat="39.48144112" lon="-0.38445703"><ele>-46.8</ele><time>2022-10-30T11:28:05.0000000+00:00</time></trkpt><trkpt lat="39.48143081" lon="-0.38446818"><ele>-46.8</ele><time>2022-10-30T11:28:06.0000000+00:00</time></trkpt><trkpt lat="39.48142134" lon="-0.38447647"><ele>-46.8</ele><time>2022-10-30T11:28:07.0000000+00:00</time></trkpt><trkpt lat="39.48141606" lon="-0.3844867"><ele>-46.8</ele><time>2022-10-30T11:28:08.0000000+00:00</time></trkpt><trkpt lat="39.48141103" lon="-0.3844929"><ele>-46.8</ele><time>2022-10-30T11:28:09.0000000+00:00</time></trkpt><trkpt lat="39.48140617" lon="-0.38450866"><ele>-46.8</ele><time>2022-10-30T11:28:10.0000000+00:00</time></trkpt><trkpt lat="39.48140524" lon="-0.38453029"><ele>-46.8</ele><time>2022-10-30T11:28:11.0000000+00:00</time></trkpt><trkpt lat="39.48140164" lon="-0.38454839"><ele>-47.0</ele><time>2022-10-30T11:28:12.0000000+00:00</time></trkpt><trkpt lat="39.48139393" lon="-0.38456474"><ele>-47.2</ele><time>2022-10-30T11:28:13.0000000+00:00</time></trkpt><trkpt lat="39.48138781" lon="-0.38457287"><ele>-47.2</ele><time>2022-10-30T11:28:14.0000000+00:00</time></trkpt><trkpt lat="39.48138462" lon="-0.38458997"><ele>-47.2</ele><time>2022-10-30T11:28:15.0000000+00:00</time></trkpt><trkpt lat="39.48137792" lon="-0.38460229"><ele>-47.4</ele><time>2022-10-30T11:28:16.0000000+00:00</time></trkpt><trkpt lat="39.48136962" lon="-0.38462022"><ele>-47.4</ele><time>2022-10-30T11:28:17.0000000+00:00</time></trkpt><trkpt lat="39.48135512" lon="-0.3846338"><ele>-47.6</ele><time>2022-10-30T11:28:18.0000000+00:00</time></trkpt><trkpt lat="39.48134565" lon="-0.38464805"><ele>-47.6</ele><time>2022-10-30T11:28:19.0000000+00:00</time></trkpt><trkpt lat="39.481335" lon="-0.3846587"><ele>-47.8</ele><time>2022-10-30T11:28:20.0000000+00:00</time></trkpt><trkpt lat="39.48132587" lon="-0.38467186"><ele>-47.8</ele><time>2022-10-30T11:28:21.0000000+00:00</time></trkpt><trkpt lat="39.48131782" lon="-0.38468678"><ele>-47.8</ele><time>2022-10-30T11:28:22.0000000+00:00</time></trkpt><trkpt lat="39.48131061" lon="-0.38469608"><ele>-48.0</ele><time>2022-10-30T11:28:23.0000000+00:00</time></trkpt><trkpt lat="39.48130407" lon="-0.38470455"><ele>-48.0</ele><time>2022-10-30T11:28:24.0000000+00:00</time></trkpt><trkpt lat="39.48130013" lon="-0.38471636"><ele>-48.0</ele><time>2022-10-30T11:28:25.0000000+00:00</time></trkpt><trkpt lat="39.48129326" lon="-0.38473036"><ele>-48.2</ele><time>2022-10-30T11:28:26.0000000+00:00</time></trkpt><trkpt lat="39.48128614" lon="-0.38474067"><ele>-48.2</ele><time>2022-10-30T11:28:27.0000000+00:00</time></trkpt><trkpt lat="39.48127667" lon="-0.38474662"><ele>-48.2</ele><time>2022-10-30T11:28:28.0000000+00:00</time></trkpt><trkpt lat="39.48126409" lon="-0.38475551"><ele>-48.2</ele><time>2022-10-30T11:28:29.0000000+00:00</time></trkpt><trkpt lat="39.48125554" lon="-0.38477294"><ele>-48.6</ele><time>2022-10-30T11:28:30.0000000+00:00</time></trkpt><trkpt lat="39.48124548" lon="-0.38479054"><ele>-48.6</ele><time>2022-10-30T11:28:31.0000000+00:00</time></trkpt><trkpt lat="39.48123467" lon="-0.38480412"><ele>-48.8</ele><time>2022-10-30T11:28:32.0000000+00:00</time></trkpt><trkpt lat="39.48122411" lon="-0.38482122"><ele>-48.8</ele><time>2022-10-30T11:28:33.0000000+00:00</time></trkpt><trkpt lat="39.48121489" lon="-0.38483363"><ele>-49.0</ele><time>2022-10-30T11:28:34.0000000+00:00</time></trkpt><trkpt lat="39.48120626" lon="-0.38485039"><ele>-49.0</ele><time>2022-10-30T11:28:35.0000000+00:00</time></trkpt><trkpt lat="39.48119662" lon="-0.38486757"><ele>-49.2</ele><time>2022-10-30T11:28:36.0000000+00:00</time></trkpt><trkpt lat="39.48118849" lon="-0.38487956"><ele>-49.2</ele><time>2022-10-30T11:28:37.0000000+00:00</time></trkpt><trkpt lat="39.48118103" lon="-0.38488928"><ele>-49.2</ele><time>2022-10-30T11:28:38.0000000+00:00</time></trkpt><trkpt lat="39.48117105" lon="-0.38490303"><ele>-49.4</ele><time>2022-10-30T11:28:39.0000000+00:00</time></trkpt><trkpt lat="39.48115764" lon="-0.38490873"><ele>-49.6</ele><time>2022-10-30T11:28:40.0000000+00:00</time></trkpt><trkpt lat="39.48114281" lon="-0.38491141"><ele>-50.0</ele><time>2022-10-30T11:28:41.0000000+00:00</time></trkpt><trkpt lat="39.48113225" lon="-0.3849177"><ele>-50.0</ele><time>2022-10-30T11:28:42.0000000+00:00</time></trkpt><trkpt lat="39.48112177" lon="-0.38493714"><ele>-50.4</ele><time>2022-10-30T11:28:43.0000000+00:00</time></trkpt><trkpt lat="39.48111615" lon="-0.38496623"><ele>-50.4</ele><time>2022-10-30T11:28:44.0000000+00:00</time></trkpt><trkpt lat="39.48110676" lon="-0.3849835"><ele>-50.4</ele><time>2022-10-30T11:28:45.0000000+00:00</time></trkpt><trkpt lat="39.48108732" lon="-0.38499188"><ele>-50.4</ele><time>2022-10-30T11:28:46.0000000+00:00</time></trkpt><trkpt lat="39.48107994" lon="-0.38499649"><ele>-50.6</ele><time>2022-10-30T11:28:47.0000000+00:00</time></trkpt><trkpt lat="39.48107122" lon="-0.38501174"><ele>-50.6</ele><time>2022-10-30T11:28:48.0000000+00:00</time></trkpt><trkpt lat="39.48106519" lon="-0.38502297"><ele>-50.6</ele><time>2022-10-30T11:28:49.0000000+00:00</time></trkpt><trkpt lat="39.48105647" lon="-0.38502457"><ele>-50.6</ele><time>2022-10-30T11:28:50.0000000+00:00</time></trkpt><trkpt lat="39.4810553" lon="-0.38502717"><ele>-50.6</ele><time>2022-10-30T11:28:51.0000000+00:00</time></trkpt><trkpt lat="39.48105631" lon="-0.38502934"><ele>-50.8</ele><time>2022-10-30T11:28:52.0000000+00:00</time></trkpt><trkpt lat="39.48105295" lon="-0.38502893"><ele>-50.8</ele><time>2022-10-30T11:28:53.0000000+00:00</time></trkpt><trkpt lat="39.48105052" lon="-0.38504083"><ele>-50.8</ele><time>2022-10-30T11:28:54.0000000+00:00</time></trkpt><trkpt lat="39.48104817" lon="-0.38505231"><ele>-50.8</ele><time>2022-10-30T11:28:55.0000000+00:00</time></trkpt><trkpt lat="39.48104876" lon="-0.38506036"><ele>-50.8</ele><time>2022-10-30T11:28:56.0000000+00:00</time></trkpt><trkpt lat="39.4810465" lon="-0.38506396"><ele>-50.8</ele><time>2022-10-30T11:28:57.0000000+00:00</time></trkpt><trkpt lat="39.48104843" lon="-0.38506463"><ele>-51.0</ele><time>2022-10-30T11:28:58.0000000+00:00</time></trkpt><trkpt lat="39.48103745" lon="-0.38505759"><ele>-51.0</ele><time>2022-10-30T11:28:59.0000000+00:00</time></trkpt><trkpt lat="39.48102856" lon="-0.38505801"><ele>-51.0</ele><time>2022-10-30T11:29:00.0000000+00:00</time></trkpt><trkpt lat="39.48103116" lon="-0.38504946"><ele>-51.0</ele><time>2022-10-30T11:29:01.0000000+00:00</time></trkpt><trkpt lat="39.4810382" lon="-0.38503789"><ele>-51.0</ele><time>2022-10-30T11:29:02.0000000+00:00</time></trkpt><trkpt lat="39.48104281" lon="-0.38502842"><ele>-51.0</ele><time>2022-10-30T11:29:03.0000000+00:00</time></trkpt><trkpt lat="39.4810501" lon="-0.38501912"><ele>-51.0</ele><time>2022-10-30T11:29:04.0000000+00:00</time></trkpt><trkpt lat="39.48105899" lon="-0.38500319"><ele>-51.0</ele><time>2022-10-30T11:29:05.0000000+00:00</time></trkpt><trkpt lat="39.48106594" lon="-0.38498995"><ele>-51.0</ele><time>2022-10-30T11:29:06.0000000+00:00</time></trkpt><trkpt lat="39.48107349" lon="-0.38497495"><ele>-51.0</ele><time>2022-10-30T11:29:07.0000000+00:00</time></trkpt><trkpt lat="39.4810812" lon="-0.38495885"><ele>-51.0</ele><time>2022-10-30T11:29:08.0000000+00:00</time></trkpt><trkpt lat="39.48108774" lon="-0.3849446"><ele>-51.0</ele><time>2022-10-30T11:29:09.0000000+00:00</time></trkpt><trkpt lat="39.48109461" lon="-0.38493329"><ele>-51.0</ele><time>2022-10-30T11:29:10.0000000+00:00</time></trkpt><trkpt lat="39.48109897" lon="-0.38491803"><ele>-51.0</ele><time>2022-10-30T11:29:11.0000000+00:00</time></trkpt><trkpt lat="39.48110065" lon="-0.38490336"><ele>-51.0</ele><time>2022-10-30T11:29:12.0000000+00:00</time></trkpt><trkpt lat="39.48110132" lon="-0.38488861"><ele>-51.0</ele><time>2022-10-30T11:29:13.0000000+00:00</time></trkpt><trkpt lat="39.48109235" lon="-0.38487813"><ele>-51.0</ele><time>2022-10-30T11:29:14.0000000+00:00</time></trkpt><trkpt lat="39.4810874" lon="-0.38487277"><ele>-51.0</ele><time>2022-10-30T11:29:15.0000000+00:00</time></trkpt><trkpt lat="39.48109" lon="-0.38486011"><ele>-51.0</ele><time>2022-10-30T11:29:16.0000000+00:00</time></trkpt><trkpt lat="39.48109277" lon="-0.38484855"><ele>-51.0</ele><time>2022-10-30T11:29:17.0000000+00:00</time></trkpt><trkpt lat="39.48109394" lon="-0.38484536"><ele>-51.0</ele><time>2022-10-30T11:29:18.0000000+00:00</time></trkpt><trkpt lat="39.48109327" lon="-0.38483723"><ele>-51.0</ele><time>2022-10-30T11:29:19.0000000+00:00</time></trkpt><trkpt lat="39.48109302" lon="-0.38482667"><ele>-51.2</ele><time>2022-10-30T11:29:20.0000000+00:00</time></trkpt><trkpt lat="39.48109897" lon="-0.38481569"><ele>-51.2</ele><time>2022-10-30T11:29:21.0000000+00:00</time></trkpt><trkpt lat="39.48110718" lon="-0.3848001"><ele>-51.2</ele><time>2022-10-30T11:29:22.0000000+00:00</time></trkpt><trkpt lat="39.48110987" lon="-0.384783"><ele>-51.2</ele><time>2022-10-30T11:29:23.0000000+00:00</time></trkpt><trkpt lat="39.48110475" lon="-0.3847654"><ele>-51.2</ele><time>2022-10-30T11:29:24.0000000+00:00</time></trkpt><trkpt lat="39.48109444" lon="-0.38474922"><ele>-51.2</ele><time>2022-10-30T11:29:25.0000000+00:00</time></trkpt><trkpt lat="39.48107961" lon="-0.38472315"><ele>-51.2</ele><time>2022-10-30T11:29:26.0000000+00:00</time></trkpt><trkpt lat="39.48106804" lon="-0.38469189"><ele>-51.2</ele><time>2022-10-30T11:29:27.0000000+00:00</time></trkpt><trkpt lat="39.4810672" lon="-0.3846654"><ele>-51.2</ele><time>2022-10-30T11:29:28.0000000+00:00</time></trkpt><trkpt lat="39.4810615" lon="-0.38464746"><ele>-51.2</ele><time>2022-10-30T11:29:29.0000000+00:00</time></trkpt><trkpt lat="39.48105991" lon="-0.38462861"><ele>-51.2</ele><time>2022-10-30T11:29:30.0000000+00:00</time></trkpt><trkpt lat="39.4810579" lon="-0.38460933"><ele>-51.4</ele><time>2022-10-30T11:29:31.0000000+00:00</time></trkpt><trkpt lat="39.48105614" lon="-0.38458569"><ele>-51.4</ele><time>2022-10-30T11:29:32.0000000+00:00</time></trkpt><trkpt lat="39.48105572" lon="-0.38457169"><ele>-51.4</ele><time>2022-10-30T11:29:33.0000000+00:00</time></trkpt><trkpt lat="39.48105404" lon="-0.38455308"><ele>-51.4</ele><time>2022-10-30T11:29:34.0000000+00:00</time></trkpt><trkpt lat="39.48104583" lon="-0.38453473"><ele>-51.4</ele><time>2022-10-30T11:29:35.0000000+00:00</time></trkpt><trkpt lat="39.48103166" lon="-0.38451545"><ele>-51.2</ele><time>2022-10-30T11:29:36.0000000+00:00</time></trkpt><trkpt lat="39.48101406" lon="-0.38449701"><ele>-51.2</ele><time>2022-10-30T11:29:37.0000000+00:00</time></trkpt><trkpt lat="39.48100199" lon="-0.38448301"><ele>-51.2</ele><time>2022-10-30T11:29:38.0000000+00:00</time></trkpt><trkpt lat="39.48099654" lon="-0.38445912"><ele>-51.2</ele><time>2022-10-30T11:29:39.0000000+00:00</time></trkpt><trkpt lat="39.48099403" lon="-0.38444915"><ele>-51.4</ele><time>2022-10-30T11:29:40.0000000+00:00</time></trkpt><trkpt lat="39.48099344" lon="-0.38444965"><ele>-51.4</ele><time>2022-10-30T11:29:41.0000000+00:00</time></trkpt><trkpt lat="39.48099269" lon="-0.38444253"><ele>-51.4</ele><time>2022-10-30T11:29:42.0000000+00:00</time></trkpt><trkpt lat="39.48098917" lon="-0.38443146"><ele>-51.4</ele><time>2022-10-30T11:29:43.0000000+00:00</time></trkpt><trkpt lat="39.48098598" lon="-0.3844199"><ele>-51.4</ele><time>2022-10-30T11:29:44.0000000+00:00</time></trkpt><trkpt lat="39.48098581" lon="-0.38439785"><ele>-51.4</ele><time>2022-10-30T11:29:45.0000000+00:00</time></trkpt><trkpt lat="39.48098891" lon="-0.38437489"><ele>-51.4</ele><time>2022-10-30T11:29:46.0000000+00:00</time></trkpt><trkpt lat="39.4809947" lon="-0.38434831"><ele>-51.4</ele><time>2022-10-30T11:29:47.0000000+00:00</time></trkpt><trkpt lat="39.48100124" lon="-0.38432409"><ele>-51.2</ele><time>2022-10-30T11:29:48.0000000+00:00</time></trkpt><trkpt lat="39.48100844" lon="-0.38431043"><ele>-51.2</ele><time>2022-10-30T11:29:49.0000000+00:00</time></trkpt><trkpt lat="39.48100551" lon="-0.38429576"><ele>-51.2</ele><time>2022-10-30T11:29:50.0000000+00:00</time></trkpt><trkpt lat="39.48100375" lon="-0.38428118"><ele>-51.2</ele><time>2022-10-30T11:29:51.0000000+00:00</time></trkpt><trkpt lat="39.48099998" lon="-0.38425645"><ele>-51.4</ele><time>2022-10-30T11:29:52.0000000+00:00</time></trkpt><trkpt lat="39.48099227" lon="-0.38423667"><ele>-51.2</ele><time>2022-10-30T11:29:53.0000000+00:00</time></trkpt><trkpt lat="39.48098028" lon="-0.38422787"><ele>-51.2</ele><time>2022-10-30T11:29:54.0000000+00:00</time></trkpt><trkpt lat="39.48098187" lon="-0.3842028"><ele>-51.2</ele><time>2022-10-30T11:29:55.0000000+00:00</time></trkpt><trkpt lat="39.4809807" lon="-0.3842028"><ele>-51.2</ele><time>2022-10-30T11:29:56.0000000+00:00</time></trkpt><trkpt lat="39.48097777" lon="-0.38419115"><ele>-51.2</ele><time>2022-10-30T11:29:57.0000000+00:00</time></trkpt><trkpt lat="39.48097492" lon="-0.38417531"><ele>-51.2</ele><time>2022-10-30T11:29:58.0000000+00:00</time></trkpt><trkpt lat="39.48096897" lon="-0.38415478"><ele>-51.2</ele><time>2022-10-30T11:29:59.0000000+00:00</time></trkpt><trkpt lat="39.48096016" lon="-0.38413667"><ele>-51.2</ele><time>2022-10-30T11:30:00.0000000+00:00</time></trkpt><trkpt lat="39.48096268" lon="-0.38412217"><ele>-51.0</ele><time>2022-10-30T11:30:01.0000000+00:00</time></trkpt><trkpt lat="39.48095765" lon="-0.38410205"><ele>-51.0</ele><time>2022-10-30T11:30:02.0000000+00:00</time></trkpt><trkpt lat="39.48096142" lon="-0.38408856"><ele>-51.0</ele><time>2022-10-30T11:30:03.0000000+00:00</time></trkpt><trkpt lat="39.48097475" lon="-0.38408864"><ele>-51.2</ele><time>2022-10-30T11:30:04.0000000+00:00</time></trkpt><trkpt lat="39.48096704" lon="-0.38408496"><ele>-51.2</ele><time>2022-10-30T11:30:05.0000000+00:00</time></trkpt><trkpt lat="39.48095438" lon="-0.38408915"><ele>-51.2</ele><time>2022-10-30T11:30:06.0000000+00:00</time></trkpt><trkpt lat="39.48094977" lon="-0.38409174"><ele>-51.4</ele><time>2022-10-30T11:30:07.0000000+00:00</time></trkpt><trkpt lat="39.48093921" lon="-0.38409468"><ele>-51.4</ele><time>2022-10-30T11:30:08.0000000+00:00</time></trkpt><trkpt lat="39.48093477" lon="-0.38408755"><ele>-51.4</ele><time>2022-10-30T11:30:09.0000000+00:00</time></trkpt><trkpt lat="39.48092915" lon="-0.38407289"><ele>-51.4</ele><time>2022-10-30T11:30:10.0000000+00:00</time></trkpt><trkpt lat="39.48090727" lon="-0.38404229"><ele>-51.4</ele><time>2022-10-30T11:30:11.0000000+00:00</time></trkpt><trkpt lat="39.48088112" lon="-0.38401782"><ele>-51.4</ele><time>2022-10-30T11:30:12.0000000+00:00</time></trkpt><trkpt lat="39.48086076" lon="-0.3840086"><ele>-51.4</ele><time>2022-10-30T11:30:13.0000000+00:00</time></trkpt><trkpt lat="39.48084609" lon="-0.38400608"><ele>-51.6</ele><time>2022-10-30T11:30:14.0000000+00:00</time></trkpt><trkpt lat="39.48084014" lon="-0.38399854"><ele>-51.6</ele><time>2022-10-30T11:30:15.0000000+00:00</time></trkpt><trkpt lat="39.48083293" lon="-0.3839894"><ele>-51.6</ele><time>2022-10-30T11:30:16.0000000+00:00</time></trkpt><trkpt lat="39.48082262" lon="-0.38398043"><ele>-51.6</ele><time>2022-10-30T11:30:17.0000000+00:00</time></trkpt><trkpt lat="39.48081952" lon="-0.38396761"><ele>-51.6</ele><time>2022-10-30T11:30:18.0000000+00:00</time></trkpt><trkpt lat="39.48082211" lon="-0.38395906"><ele>-51.6</ele><time>2022-10-30T11:30:19.0000000+00:00</time></trkpt><trkpt lat="39.48082672" lon="-0.3839464"><ele>-51.6</ele><time>2022-10-30T11:30:20.0000000+00:00</time></trkpt><trkpt lat="39.48082714" lon="-0.38392469"><ele>-51.6</ele><time>2022-10-30T11:30:21.0000000+00:00</time></trkpt><trkpt lat="39.4808248" lon="-0.38390374"><ele>-51.6</ele><time>2022-10-30T11:30:22.0000000+00:00</time></trkpt><trkpt lat="39.48081985" lon="-0.38388991"><ele>-51.8</ele><time>2022-10-30T11:30:23.0000000+00:00</time></trkpt><trkpt lat="39.48081348" lon="-0.38387675"><ele>-51.8</ele><time>2022-10-30T11:30:24.0000000+00:00</time></trkpt><trkpt lat="39.48080887" lon="-0.38386485"><ele>-52.0</ele><time>2022-10-30T11:30:25.0000000+00:00</time></trkpt><trkpt lat="39.48081072" lon="-0.38384817"><ele>-52.0</ele><time>2022-10-30T11:30:26.0000000+00:00</time></trkpt><trkpt lat="39.480802" lon="-0.38382771"><ele>-52.2</ele><time>2022-10-30T11:30:27.0000000+00:00</time></trkpt><trkpt lat="39.48079638" lon="-0.38380341"><ele>-52.2</ele><time>2022-10-30T11:30:28.0000000+00:00</time></trkpt><trkpt lat="39.4807963" lon="-0.38378648"><ele>-52.2</ele><time>2022-10-30T11:30:29.0000000+00:00</time></trkpt><trkpt lat="39.48080057" lon="-0.38377189"><ele>-52.4</ele><time>2022-10-30T11:30:30.0000000+00:00</time></trkpt><trkpt lat="39.48081004" lon="-0.3837563"><ele>-52.4</ele><time>2022-10-30T11:30:31.0000000+00:00</time></trkpt><trkpt lat="39.48081097" lon="-0.38373803"><ele>-52.4</ele><time>2022-10-30T11:30:32.0000000+00:00</time></trkpt><trkpt lat="39.48081105" lon="-0.3837247"><ele>-52.4</ele><time>2022-10-30T11:30:33.0000000+00:00</time></trkpt><trkpt lat="39.48081507" lon="-0.38371112"><ele>-52.4</ele><time>2022-10-30T11:30:34.0000000+00:00</time></trkpt><trkpt lat="39.48081859" lon="-0.3836905"><ele>-52.4</ele><time>2022-10-30T11:30:35.0000000+00:00</time></trkpt><trkpt lat="39.48081474" lon="-0.38367324"><ele>-52.4</ele><time>2022-10-30T11:30:36.0000000+00:00</time></trkpt><trkpt lat="39.480802" lon="-0.38365656"><ele>-52.4</ele><time>2022-10-30T11:30:37.0000000+00:00</time></trkpt><trkpt lat="39.4807901" lon="-0.38365077"><ele>-52.4</ele><time>2022-10-30T11:30:38.0000000+00:00</time></trkpt><trkpt lat="39.48078708" lon="-0.38364449"><ele>-52.4</ele><time>2022-10-30T11:30:39.0000000+00:00</time></trkpt><trkpt lat="39.48079278" lon="-0.38364574"><ele>-52.4</ele><time>2022-10-30T11:30:40.0000000+00:00</time></trkpt><trkpt lat="39.48080569" lon="-0.38365061"><ele>-52.4</ele><time>2022-10-30T11:30:41.0000000+00:00</time></trkpt><trkpt lat="39.48081566" lon="-0.38365689"><ele>-52.4</ele><time>2022-10-30T11:30:42.0000000+00:00</time></trkpt><trkpt lat="39.48082656" lon="-0.38364633"><ele>-52.4</ele><time>2022-10-30T11:30:43.0000000+00:00</time></trkpt><trkpt lat="39.48083217" lon="-0.38364281"><ele>-52.4</ele><time>2022-10-30T11:30:44.0000000+00:00</time></trkpt><trkpt lat="39.48084022" lon="-0.3836387"><ele>-52.4</ele><time>2022-10-30T11:30:45.0000000+00:00</time></trkpt><trkpt lat="39.48085078" lon="-0.38363066"><ele>-52.6</ele><time>2022-10-30T11:30:46.0000000+00:00</time></trkpt><trkpt lat="39.4808605" lon="-0.38360878"><ele>-52.6</ele><time>2022-10-30T11:30:47.0000000+00:00</time></trkpt><trkpt lat="39.48093267" lon="-0.38362873"><ele>-52.6</ele><time>2022-10-30T11:30:48.0000000+00:00</time></trkpt><trkpt lat="39.48102261" lon="-0.38366997"><ele>-52.6</ele><time>2022-10-30T11:30:49.0000000+00:00</time></trkpt><trkpt lat="39.48102722" lon="-0.38367625"><ele>-52.6</ele><time>2022-10-30T11:30:50.0000000+00:00</time></trkpt><trkpt lat="39.48102244" lon="-0.38364298"><ele>-52.6</ele><time>2022-10-30T11:30:51.0000000+00:00</time></trkpt><trkpt lat="39.48101657" lon="-0.38361548"><ele>-52.6</ele><time>2022-10-30T11:30:52.0000000+00:00</time></trkpt><trkpt lat="39.48100895" lon="-0.38358707"><ele>-52.4</ele><time>2022-10-30T11:30:53.0000000+00:00</time></trkpt><trkpt lat="39.4810097" lon="-0.38356201"><ele>-52.4</ele><time>2022-10-30T11:30:54.0000000+00:00</time></trkpt><trkpt lat="39.48101188" lon="-0.38354223"><ele>-52.4</ele><time>2022-10-30T11:30:55.0000000+00:00</time></trkpt><trkpt lat="39.48101079" lon="-0.38352429"><ele>-52.4</ele><time>2022-10-30T11:30:56.0000000+00:00</time></trkpt><trkpt lat="39.48100979" lon="-0.3835066"><ele>-52.4</ele><time>2022-10-30T11:30:57.0000000+00:00</time></trkpt><trkpt lat="39.48100928" lon="-0.38349269"><ele>-52.4</ele><time>2022-10-30T11:30:58.0000000+00:00</time></trkpt><trkpt lat="39.48101046" lon="-0.38347811"><ele>-52.4</ele><time>2022-10-30T11:30:59.0000000+00:00</time></trkpt><trkpt lat="39.4810201" lon="-0.38346972"><ele>-52.4</ele><time>2022-10-30T11:31:00.0000000+00:00</time></trkpt><trkpt lat="39.48102772" lon="-0.38345983"><ele>-52.4</ele><time>2022-10-30T11:31:01.0000000+00:00</time></trkpt><trkpt lat="39.48103242" lon="-0.3834424"><ele>-52.4</ele><time>2022-10-30T11:31:02.0000000+00:00</time></trkpt><trkpt lat="39.48103543" lon="-0.38341926"><ele>-52.4</ele><time>2022-10-30T11:31:03.0000000+00:00</time></trkpt><trkpt lat="39.48103895" lon="-0.38338943"><ele>-52.4</ele><time>2022-10-30T11:31:04.0000000+00:00</time></trkpt><trkpt lat="39.48104256" lon="-0.38336612"><ele>-52.4</ele><time>2022-10-30T11:31:05.0000000+00:00</time></trkpt><trkpt lat="39.48104382" lon="-0.38335933"><ele>-52.4</ele><time>2022-10-30T11:31:06.0000000+00:00</time></trkpt><trkpt lat="39.48104281" lon="-0.38335338"><ele>-52.4</ele><time>2022-10-30T11:31:07.0000000+00:00</time></trkpt><trkpt lat="39.48103694" lon="-0.38333989"><ele>-52.4</ele><time>2022-10-30T11:31:08.0000000+00:00</time></trkpt><trkpt lat="39.48102856" lon="-0.38332949"><ele>-52.4</ele><time>2022-10-30T11:31:09.0000000+00:00</time></trkpt><trkpt lat="39.48102194" lon="-0.38331969"><ele>-52.4</ele><time>2022-10-30T11:31:10.0000000+00:00</time></trkpt><trkpt lat="39.48102403" lon="-0.38330879"><ele>-52.4</ele><time>2022-10-30T11:31:11.0000000+00:00</time></trkpt><trkpt lat="39.48102722" lon="-0.38329706"><ele>-52.4</ele><time>2022-10-30T11:31:12.0000000+00:00</time></trkpt><trkpt lat="39.48103912" lon="-0.38328859"><ele>-52.4</ele><time>2022-10-30T11:31:13.0000000+00:00</time></trkpt><trkpt lat="39.48105329" lon="-0.38328289"><ele>-52.4</ele><time>2022-10-30T11:31:14.0000000+00:00</time></trkpt><trkpt lat="39.48107181" lon="-0.38327719"><ele>-52.4</ele><time>2022-10-30T11:31:15.0000000+00:00</time></trkpt><trkpt lat="39.4810843" lon="-0.38326261"><ele>-52.4</ele><time>2022-10-30T11:31:16.0000000+00:00</time></trkpt><trkpt lat="39.48108397" lon="-0.38324484"><ele>-52.4</ele><time>2022-10-30T11:31:17.0000000+00:00</time></trkpt><trkpt lat="39.48109511" lon="-0.38322019"><ele>-52.4</ele><time>2022-10-30T11:31:18.0000000+00:00</time></trkpt><trkpt lat="39.48109461" lon="-0.38319589"><ele>-52.4</ele><time>2022-10-30T11:31:19.0000000+00:00</time></trkpt><trkpt lat="39.4810848" lon="-0.38316236"><ele>-52.4</ele><time>2022-10-30T11:31:20.0000000+00:00</time></trkpt><trkpt lat="39.48108606" lon="-0.38312422"><ele>-52.4</ele><time>2022-10-30T11:31:21.0000000+00:00</time></trkpt><trkpt lat="39.48108749" lon="-0.38309413"><ele>-52.4</ele><time>2022-10-30T11:31:22.0000000+00:00</time></trkpt><trkpt lat="39.48109151" lon="-0.38307301"><ele>-52.4</ele><time>2022-10-30T11:31:23.0000000+00:00</time></trkpt><trkpt lat="39.48108723" lon="-0.38305247"><ele>-52.4</ele><time>2022-10-30T11:31:24.0000000+00:00</time></trkpt><trkpt lat="39.4810838" lon="-0.3830316"><ele>-52.6</ele><time>2022-10-30T11:31:25.0000000+00:00</time></trkpt><trkpt lat="39.48107734" lon="-0.383014"><ele>-52.6</ele><time>2022-10-30T11:31:26.0000000+00:00</time></trkpt><trkpt lat="39.48107047" lon="-0.38299355"><ele>-52.6</ele><time>2022-10-30T11:31:27.0000000+00:00</time></trkpt><trkpt lat="39.48106821" lon="-0.38297419"><ele>-52.6</ele><time>2022-10-30T11:31:28.0000000+00:00</time></trkpt><trkpt lat="39.48106913" lon="-0.38295315"><ele>-52.6</ele><time>2022-10-30T11:31:29.0000000+00:00</time></trkpt><trkpt lat="39.48107366" lon="-0.38293052"><ele>-52.6</ele><time>2022-10-30T11:31:30.0000000+00:00</time></trkpt><trkpt lat="39.48108405" lon="-0.38291417"><ele>-52.6</ele><time>2022-10-30T11:31:31.0000000+00:00</time></trkpt><trkpt lat="39.48109226" lon="-0.38289213"><ele>-52.6</ele><time>2022-10-30T11:31:32.0000000+00:00</time></trkpt><trkpt lat="39.48109386" lon="-0.38286614"><ele>-52.6</ele><time>2022-10-30T11:31:33.0000000+00:00</time></trkpt><trkpt lat="39.48109193" lon="-0.38284452"><ele>-52.6</ele><time>2022-10-30T11:31:34.0000000+00:00</time></trkpt><trkpt lat="39.48108874" lon="-0.3828213"><ele>-52.6</ele><time>2022-10-30T11:31:35.0000000+00:00</time></trkpt><trkpt lat="39.48108782" lon="-0.38280604"><ele>-52.6</ele><time>2022-10-30T11:31:36.0000000+00:00</time></trkpt><trkpt lat="39.48108346" lon="-0.38279305"><ele>-52.6</ele><time>2022-10-30T11:31:37.0000000+00:00</time></trkpt><trkpt lat="39.48108749" lon="-0.38277579"><ele>-52.6</ele><time>2022-10-30T11:31:38.0000000+00:00</time></trkpt><trkpt lat="39.48109243" lon="-0.38274997"><ele>-52.6</ele><time>2022-10-30T11:31:39.0000000+00:00</time></trkpt><trkpt lat="39.48109553" lon="-0.38272566"><ele>-52.6</ele><time>2022-10-30T11:31:40.0000000+00:00</time></trkpt><trkpt lat="39.48110006" lon="-0.38271393"><ele>-52.6</ele><time>2022-10-30T11:31:41.0000000+00:00</time></trkpt><trkpt lat="39.48110048" lon="-0.382697"><ele>-52.6</ele><time>2022-10-30T11:31:42.0000000+00:00</time></trkpt><trkpt lat="39.48109159" lon="-0.38267084"><ele>-52.6</ele><time>2022-10-30T11:31:43.0000000+00:00</time></trkpt><trkpt lat="39.48108874" lon="-0.38265601"><ele>-52.6</ele><time>2022-10-30T11:31:44.0000000+00:00</time></trkpt><trkpt lat="39.48109042" lon="-0.38264117"><ele>-52.6</ele><time>2022-10-30T11:31:45.0000000+00:00</time></trkpt><trkpt lat="39.48109277" lon="-0.38263782"><ele>-52.6</ele><time>2022-10-30T11:31:46.0000000+00:00</time></trkpt><trkpt lat="39.48109486" lon="-0.38261586"><ele>-52.6</ele><time>2022-10-30T11:31:47.0000000+00:00</time></trkpt><trkpt lat="39.48109813" lon="-0.38260488"><ele>-52.6</ele><time>2022-10-30T11:31:48.0000000+00:00</time></trkpt><trkpt lat="39.48110408" lon="-0.38259859"><ele>-52.6</ele><time>2022-10-30T11:31:49.0000000+00:00</time></trkpt><trkpt lat="39.48111733" lon="-0.38259633"><ele>-52.6</ele><time>2022-10-30T11:31:50.0000000+00:00</time></trkpt><trkpt lat="39.4811252" lon="-0.38258812"><ele>-52.6</ele><time>2022-10-30T11:31:51.0000000+00:00</time></trkpt><trkpt lat="39.4811309" lon="-0.3825732"><ele>-52.6</ele><time>2022-10-30T11:31:52.0000000+00:00</time></trkpt><trkpt lat="39.48114373" lon="-0.38255132"><ele>-52.6</ele><time>2022-10-30T11:31:53.0000000+00:00</time></trkpt><trkpt lat="39.48115488" lon="-0.38253916"><ele>-52.6</ele><time>2022-10-30T11:31:54.0000000+00:00</time></trkpt><trkpt lat="39.48116812" lon="-0.38252492"><ele>-52.6</ele><time>2022-10-30T11:31:55.0000000+00:00</time></trkpt><trkpt lat="39.48117835" lon="-0.38251"><ele>-52.6</ele><time>2022-10-30T11:31:56.0000000+00:00</time></trkpt><trkpt lat="39.48118421" lon="-0.38248795"><ele>-52.6</ele><time>2022-10-30T11:31:57.0000000+00:00</time></trkpt><trkpt lat="39.48119159" lon="-0.38247161"><ele>-52.6</ele><time>2022-10-30T11:31:58.0000000+00:00</time></trkpt><trkpt lat="39.48119536" lon="-0.38246063"><ele>-52.6</ele><time>2022-10-30T11:31:59.0000000+00:00</time></trkpt><trkpt lat="39.4811972" lon="-0.38245015"><ele>-52.6</ele><time>2022-10-30T11:32:00.0000000+00:00</time></trkpt><trkpt lat="39.48120223" lon="-0.38243598"><ele>-52.6</ele><time>2022-10-30T11:32:01.0000000+00:00</time></trkpt><trkpt lat="39.48121598" lon="-0.38241494"><ele>-52.6</ele><time>2022-10-30T11:32:02.0000000+00:00</time></trkpt><trkpt lat="39.48122361" lon="-0.38240941"><ele>-52.8</ele><time>2022-10-30T11:32:03.0000000+00:00</time></trkpt><trkpt lat="39.48122713" lon="-0.3823903"><ele>-52.8</ele><time>2022-10-30T11:32:04.0000000+00:00</time></trkpt><trkpt lat="39.48122822" lon="-0.38237362"><ele>-52.8</ele><time>2022-10-30T11:32:05.0000000+00:00</time></trkpt><trkpt lat="39.48123325" lon="-0.38236214"><ele>-52.8</ele><time>2022-10-30T11:32:06.0000000+00:00</time></trkpt><trkpt lat="39.48123417" lon="-0.38233926"><ele>-52.8</ele><time>2022-10-30T11:32:07.0000000+00:00</time></trkpt><trkpt lat="39.48124129" lon="-0.3823261"><ele>-52.6</ele><time>2022-10-30T11:32:08.0000000+00:00</time></trkpt><trkpt lat="39.48125127" lon="-0.38231503"><ele>-52.6</ele><time>2022-10-30T11:32:09.0000000+00:00</time></trkpt><trkpt lat="39.48125915" lon="-0.38230548"><ele>-52.6</ele><time>2022-10-30T11:32:10.0000000+00:00</time></trkpt><trkpt lat="39.48127239" lon="-0.38228301"><ele>-52.6</ele><time>2022-10-30T11:32:11.0000000+00:00</time></trkpt><trkpt lat="39.48128086" lon="-0.38226315"><ele>-52.6</ele><time>2022-10-30T11:32:12.0000000+00:00</time></trkpt><trkpt lat="39.48128572" lon="-0.38224077"><ele>-52.6</ele><time>2022-10-30T11:32:13.0000000+00:00</time></trkpt><trkpt lat="39.48128312" lon="-0.38221646"><ele>-52.6</ele><time>2022-10-30T11:32:14.0000000+00:00</time></trkpt><trkpt lat="39.48128622" lon="-0.38220649"><ele>-52.6</ele><time>2022-10-30T11:32:15.0000000+00:00</time></trkpt><trkpt lat="39.48129033" lon="-0.38219123"><ele>-52.6</ele><time>2022-10-30T11:32:16.0000000+00:00</time></trkpt><trkpt lat="39.48129469" lon="-0.38217774"><ele>-52.6</ele><time>2022-10-30T11:32:17.0000000+00:00</time></trkpt><trkpt lat="39.48129661" lon="-0.3821624"><ele>-52.8</ele><time>2022-10-30T11:32:18.0000000+00:00</time></trkpt><trkpt lat="39.48129863" lon="-0.38214589"><ele>-52.8</ele><time>2022-10-30T11:32:19.0000000+00:00</time></trkpt><trkpt lat="39.48130575" lon="-0.38213692"><ele>-52.8</ele><time>2022-10-30T11:32:20.0000000+00:00</time></trkpt><trkpt lat="39.48131413" lon="-0.38212091"><ele>-52.8</ele><time>2022-10-30T11:32:21.0000000+00:00</time></trkpt><trkpt lat="39.48132293" lon="-0.38210255"><ele>-52.8</ele><time>2022-10-30T11:32:22.0000000+00:00</time></trkpt><trkpt lat="39.4813252" lon="-0.38208839"><ele>-52.8</ele><time>2022-10-30T11:32:23.0000000+00:00</time></trkpt><trkpt lat="39.48132888" lon="-0.38207221"><ele>-52.8</ele><time>2022-10-30T11:32:24.0000000+00:00</time></trkpt><trkpt lat="39.48133299" lon="-0.38205662"><ele>-52.6</ele><time>2022-10-30T11:32:25.0000000+00:00</time></trkpt><trkpt lat="39.48133651" lon="-0.38204178"><ele>-52.6</ele><time>2022-10-30T11:32:26.0000000+00:00</time></trkpt><trkpt lat="39.4813423" lon="-0.38203181"><ele>-52.6</ele><time>2022-10-30T11:32:27.0000000+00:00</time></trkpt><trkpt lat="39.48134716" lon="-0.38201974"><ele>-52.4</ele><time>2022-10-30T11:32:28.0000000+00:00</time></trkpt><trkpt lat="39.4813547" lon="-0.38201094"><ele>-52.4</ele><time>2022-10-30T11:32:29.0000000+00:00</time></trkpt><trkpt lat="39.48136233" lon="-0.38200029"><ele>-52.6</ele><time>2022-10-30T11:32:30.0000000+00:00</time></trkpt><trkpt lat="39.48136912" lon="-0.3819842"><ele>-52.6</ele><time>2022-10-30T11:32:31.0000000+00:00</time></trkpt><trkpt lat="39.48137004" lon="-0.38196551"><ele>-52.6</ele><time>2022-10-30T11:32:32.0000000+00:00</time></trkpt><trkpt lat="39.48137423" lon="-0.38194824"><ele>-52.6</ele><time>2022-10-30T11:32:33.0000000+00:00</time></trkpt><trkpt lat="39.48138102" lon="-0.38193181"><ele>-52.6</ele><time>2022-10-30T11:32:34.0000000+00:00</time></trkpt><trkpt lat="39.48138781" lon="-0.38191463"><ele>-52.6</ele><time>2022-10-30T11:32:35.0000000+00:00</time></trkpt><trkpt lat="39.48139259" lon="-0.38190197"><ele>-52.6</ele><time>2022-10-30T11:32:36.0000000+00:00</time></trkpt><trkpt lat="39.48140206" lon="-0.38188739"><ele>-52.6</ele><time>2022-10-30T11:32:37.0000000+00:00</time></trkpt><trkpt lat="39.48141019" lon="-0.38187255"><ele>-52.6</ele><time>2022-10-30T11:32:38.0000000+00:00</time></trkpt><trkpt lat="39.48141513" lon="-0.38186258"><ele>-52.6</ele><time>2022-10-30T11:32:39.0000000+00:00</time></trkpt><trkpt lat="39.48142209" lon="-0.38184615"><ele>-52.6</ele><time>2022-10-30T11:32:40.0000000+00:00</time></trkpt><trkpt lat="39.48143215" lon="-0.38184246"><ele>-52.6</ele><time>2022-10-30T11:32:41.0000000+00:00</time></trkpt><trkpt lat="39.48144053" lon="-0.3818293"><ele>-52.6</ele><time>2022-10-30T11:32:42.0000000+00:00</time></trkpt><trkpt lat="39.48144933" lon="-0.38181748"><ele>-52.6</ele><time>2022-10-30T11:32:43.0000000+00:00</time></trkpt><trkpt lat="39.48146073" lon="-0.38180474"><ele>-52.8</ele><time>2022-10-30T11:32:44.0000000+00:00</time></trkpt><trkpt lat="39.4814702" lon="-0.381792"><ele>-52.8</ele><time>2022-10-30T11:32:45.0000000+00:00</time></trkpt><trkpt lat="39.48147657" lon="-0.38177582"><ele>-52.8</ele><time>2022-10-30T11:32:46.0000000+00:00</time></trkpt><trkpt lat="39.48148605" lon="-0.38176585"><ele>-52.8</ele><time>2022-10-30T11:32:47.0000000+00:00</time></trkpt><trkpt lat="39.48149183" lon="-0.38175386"><ele>-52.8</ele><time>2022-10-30T11:32:48.0000000+00:00</time></trkpt><trkpt lat="39.48149518" lon="-0.38174104"><ele>-52.8</ele><time>2022-10-30T11:32:49.0000000+00:00</time></trkpt><trkpt lat="39.48149803" lon="-0.38172545"><ele>-52.8</ele><time>2022-10-30T11:32:50.0000000+00:00</time></trkpt><trkpt lat="39.48149778" lon="-0.38170894"><ele>-52.8</ele><time>2022-10-30T11:32:51.0000000+00:00</time></trkpt><trkpt lat="39.48149786" lon="-0.38168916"><ele>-52.8</ele><time>2022-10-30T11:32:52.0000000+00:00</time></trkpt><trkpt lat="39.48150097" lon="-0.38167692"><ele>-52.8</ele><time>2022-10-30T11:32:53.0000000+00:00</time></trkpt><trkpt lat="39.481507" lon="-0.38166359"><ele>-52.8</ele><time>2022-10-30T11:32:54.0000000+00:00</time></trkpt><trkpt lat="39.48151379" lon="-0.38165496"><ele>-52.8</ele><time>2022-10-30T11:32:55.0000000+00:00</time></trkpt><trkpt lat="39.48152242" lon="-0.38163585"><ele>-52.8</ele><time>2022-10-30T11:32:56.0000000+00:00</time></trkpt><trkpt lat="39.48153198" lon="-0.38161581"><ele>-52.8</ele><time>2022-10-30T11:32:57.0000000+00:00</time></trkpt><trkpt lat="39.48153173" lon="-0.38159343"><ele>-52.6</ele><time>2022-10-30T11:32:58.0000000+00:00</time></trkpt><trkpt lat="39.48152904" lon="-0.38156695"><ele>-52.6</ele><time>2022-10-30T11:32:59.0000000+00:00</time></trkpt><trkpt lat="39.48152636" lon="-0.38154013"><ele>-52.4</ele><time>2022-10-30T11:33:00.0000000+00:00</time></trkpt><trkpt lat="39.48153139" lon="-0.38152353"><ele>-52.4</ele><time>2022-10-30T11:33:01.0000000+00:00</time></trkpt><trkpt lat="39.48154623" lon="-0.38151414"><ele>-52.4</ele><time>2022-10-30T11:33:02.0000000+00:00</time></trkpt><trkpt lat="39.48156316" lon="-0.38151071"><ele>-52.2</ele><time>2022-10-30T11:33:03.0000000+00:00</time></trkpt><trkpt lat="39.48158864" lon="-0.38151984"><ele>-52.2</ele><time>2022-10-30T11:33:04.0000000+00:00</time></trkpt><trkpt lat="39.48159979" lon="-0.3815123"><ele>-52.2</ele><time>2022-10-30T11:33:05.0000000+00:00</time></trkpt><trkpt lat="39.48162016" lon="-0.38150266"><ele>-52.2</ele><time>2022-10-30T11:33:06.0000000+00:00</time></trkpt><trkpt lat="39.48163038" lon="-0.38149"><ele>-52.2</ele><time>2022-10-30T11:33:07.0000000+00:00</time></trkpt><trkpt lat="39.48163566" lon="-0.38148003"><ele>-52.2</ele><time>2022-10-30T11:33:08.0000000+00:00</time></trkpt><trkpt lat="39.48164832" lon="-0.38146393"><ele>-52.2</ele><time>2022-10-30T11:33:09.0000000+00:00</time></trkpt><trkpt lat="39.48165393" lon="-0.3814465"><ele>-52.2</ele><time>2022-10-30T11:33:10.0000000+00:00</time></trkpt><trkpt lat="39.48166064" lon="-0.38142278"><ele>-52.4</ele><time>2022-10-30T11:33:11.0000000+00:00</time></trkpt><trkpt lat="39.48166592" lon="-0.38140694"><ele>-52.4</ele><time>2022-10-30T11:33:12.0000000+00:00</time></trkpt><trkpt lat="39.4816686" lon="-0.38139713"><ele>-52.4</ele><time>2022-10-30T11:33:13.0000000+00:00</time></trkpt><trkpt lat="39.48167103" lon="-0.38137408"><ele>-52.4</ele><time>2022-10-30T11:33:14.0000000+00:00</time></trkpt><trkpt lat="39.48167606" lon="-0.38135463"><ele>-52.4</ele><time>2022-10-30T11:33:15.0000000+00:00</time></trkpt><trkpt lat="39.48168503" lon="-0.3813398"><ele>-52.4</ele><time>2022-10-30T11:33:16.0000000+00:00</time></trkpt><trkpt lat="39.48169056" lon="-0.38133569"><ele>-52.4</ele><time>2022-10-30T11:33:17.0000000+00:00</time></trkpt><trkpt lat="39.48169358" lon="-0.38132295"><ele>-52.6</ele><time>2022-10-30T11:33:18.0000000+00:00</time></trkpt><trkpt lat="39.48169735" lon="-0.38131457"><ele>-52.6</ele><time>2022-10-30T11:33:19.0000000+00:00</time></trkpt><trkpt lat="39.48170029" lon="-0.38129127"><ele>-52.6</ele><time>2022-10-30T11:33:20.0000000+00:00</time></trkpt><trkpt lat="39.48170565" lon="-0.38127936"><ele>-52.6</ele><time>2022-10-30T11:33:21.0000000+00:00</time></trkpt><trkpt lat="39.48171244" lon="-0.38126671"><ele>-52.6</ele><time>2022-10-30T11:33:22.0000000+00:00</time></trkpt><trkpt lat="39.48172543" lon="-0.38124776"><ele>-52.6</ele><time>2022-10-30T11:33:23.0000000+00:00</time></trkpt><trkpt lat="39.48173658" lon="-0.38123502"><ele>-52.4</ele><time>2022-10-30T11:33:24.0000000+00:00</time></trkpt><trkpt lat="39.48174957" lon="-0.38122128"><ele>-52.4</ele><time>2022-10-30T11:33:25.0000000+00:00</time></trkpt><trkpt lat="39.48176441" lon="-0.38120661"><ele>-52.4</ele><time>2022-10-30T11:33:26.0000000+00:00</time></trkpt><trkpt lat="39.48176692" lon="-0.3811854"><ele>-52.4</ele><time>2022-10-30T11:33:27.0000000+00:00</time></trkpt><trkpt lat="39.48176432" lon="-0.3811647"><ele>-52.4</ele><time>2022-10-30T11:33:28.0000000+00:00</time></trkpt><trkpt lat="39.48176726" lon="-0.38115003"><ele>-52.6</ele><time>2022-10-30T11:33:29.0000000+00:00</time></trkpt><trkpt lat="39.48177237" lon="-0.38114173"><ele>-52.6</ele><time>2022-10-30T11:33:30.0000000+00:00</time></trkpt><trkpt lat="39.48177639" lon="-0.38113025"><ele>-52.6</ele><time>2022-10-30T11:33:31.0000000+00:00</time></trkpt><trkpt lat="39.48177673" lon="-0.38111818"><ele>-52.6</ele><time>2022-10-30T11:33:32.0000000+00:00</time></trkpt><trkpt lat="39.48178503" lon="-0.38110569"><ele>-52.6</ele><time>2022-10-30T11:33:33.0000000+00:00</time></trkpt><trkpt lat="39.48178939" lon="-0.38108876"><ele>-52.6</ele><time>2022-10-30T11:33:34.0000000+00:00</time></trkpt><trkpt lat="39.48179701" lon="-0.38107527"><ele>-52.6</ele><time>2022-10-30T11:33:35.0000000+00:00</time></trkpt><trkpt lat="39.48180347" lon="-0.38106563"><ele>-52.6</ele><time>2022-10-30T11:33:36.0000000+00:00</time></trkpt><trkpt lat="39.48181118" lon="-0.38105322"><ele>-52.6</ele><time>2022-10-30T11:33:37.0000000+00:00</time></trkpt><trkpt lat="39.48181889" lon="-0.38103989"><ele>-52.6</ele><time>2022-10-30T11:33:38.0000000+00:00</time></trkpt><trkpt lat="39.48182509" lon="-0.38102841"><ele>-52.6</ele><time>2022-10-30T11:33:39.0000000+00:00</time></trkpt><trkpt lat="39.48182853" lon="-0.38101114"><ele>-52.6</ele><time>2022-10-30T11:33:40.0000000+00:00</time></trkpt><trkpt lat="39.48183557" lon="-0.38099698"><ele>-52.6</ele><time>2022-10-30T11:33:41.0000000+00:00</time></trkpt><trkpt lat="39.48184144" lon="-0.38098801"><ele>-52.6</ele><time>2022-10-30T11:33:42.0000000+00:00</time></trkpt><trkpt lat="39.48185208" lon="-0.38097343"><ele>-52.6</ele><time>2022-10-30T11:33:43.0000000+00:00</time></trkpt><trkpt lat="39.48186072" lon="-0.38096488"><ele>-52.6</ele><time>2022-10-30T11:33:44.0000000+00:00</time></trkpt><trkpt lat="39.4818696" lon="-0.38095406"><ele>-52.4</ele><time>2022-10-30T11:33:45.0000000+00:00</time></trkpt><trkpt lat="39.48187212" lon="-0.38094711"><ele>-52.4</ele><time>2022-10-30T11:33:46.0000000+00:00</time></trkpt><trkpt lat="39.48187253" lon="-0.38094292"><ele>-52.4</ele><time>2022-10-30T11:33:47.0000000+00:00</time></trkpt><trkpt lat="39.48186767" lon="-0.38093579"><ele>-52.6</ele><time>2022-10-30T11:33:48.0000000+00:00</time></trkpt><trkpt lat="39.481867" lon="-0.38093554"><ele>-52.6</ele><time>2022-10-30T11:33:49.0000000+00:00</time></trkpt><trkpt lat="39.4818665" lon="-0.38093353"><ele>-52.6</ele><time>2022-10-30T11:33:50.0000000+00:00</time></trkpt><trkpt lat="39.48186608" lon="-0.38093261"><ele>-52.6</ele><time>2022-10-30T11:33:51.0000000+00:00</time></trkpt><trkpt lat="39.4818696" lon="-0.38093453"><ele>-52.6</ele><time>2022-10-30T11:33:52.0000000+00:00</time></trkpt><trkpt lat="39.48187044" lon="-0.38093512"><ele>-52.6</ele><time>2022-10-30T11:33:53.0000000+00:00</time></trkpt><trkpt lat="39.4818743" lon="-0.38093856"><ele>-52.6</ele><time>2022-10-30T11:33:54.0000000+00:00</time></trkpt><trkpt lat="39.48188033" lon="-0.38093654"><ele>-52.6</ele><time>2022-10-30T11:33:55.0000000+00:00</time></trkpt><trkpt lat="39.48188662" lon="-0.38092883"><ele>-52.6</ele><time>2022-10-30T11:33:56.0000000+00:00</time></trkpt><trkpt lat="39.48189139" lon="-0.38091945"><ele>-52.6</ele><time>2022-10-30T11:33:57.0000000+00:00</time></trkpt><trkpt lat="39.48189843" lon="-0.38090738"><ele>-52.4</ele><time>2022-10-30T11:33:58.0000000+00:00</time></trkpt><trkpt lat="39.48190246" lon="-0.38089782"><ele>-52.4</ele><time>2022-10-30T11:33:59.0000000+00:00</time></trkpt><trkpt lat="39.48191067" lon="-0.38088894"><ele>-52.4</ele><time>2022-10-30T11:34:00.0000000+00:00</time></trkpt><trkpt lat="39.48191604" lon="-0.38087653"><ele>-52.4</ele><time>2022-10-30T11:34:01.0000000+00:00</time></trkpt><trkpt lat="39.48192132" lon="-0.38086329"><ele>-52.4</ele><time>2022-10-30T11:34:02.0000000+00:00</time></trkpt><trkpt lat="39.48192643" lon="-0.38085231"><ele>-52.4</ele><time>2022-10-30T11:34:03.0000000+00:00</time></trkpt><trkpt lat="39.48193406" lon="-0.38083697"><ele>-52.4</ele><time>2022-10-30T11:34:04.0000000+00:00</time></trkpt><trkpt lat="39.48193791" lon="-0.38082364"><ele>-52.4</ele><time>2022-10-30T11:34:05.0000000+00:00</time></trkpt><trkpt lat="39.48193858" lon="-0.38081442"><ele>-52.4</ele><time>2022-10-30T11:34:06.0000000+00:00</time></trkpt><trkpt lat="39.48194118" lon="-0.38080654"><ele>-52.4</ele><time>2022-10-30T11:34:07.0000000+00:00</time></trkpt><trkpt lat="39.48194252" lon="-0.38079682"><ele>-52.4</ele><time>2022-10-30T11:34:08.0000000+00:00</time></trkpt><trkpt lat="39.48194948" lon="-0.38078852"><ele>-52.4</ele><time>2022-10-30T11:34:09.0000000+00:00</time></trkpt><trkpt lat="39.4819592" lon="-0.38077704"><ele>-52.4</ele><time>2022-10-30T11:34:10.0000000+00:00</time></trkpt><trkpt lat="39.48196842" lon="-0.38076446"><ele>-52.4</ele><time>2022-10-30T11:34:11.0000000+00:00</time></trkpt><trkpt lat="39.4819758" lon="-0.38075432"><ele>-52.4</ele><time>2022-10-30T11:34:12.0000000+00:00</time></trkpt><trkpt lat="39.48199516" lon="-0.38074234"><ele>-52.6</ele><time>2022-10-30T11:34:13.0000000+00:00</time></trkpt><trkpt lat="39.48200975" lon="-0.38072708"><ele>-52.6</ele><time>2022-10-30T11:34:14.0000000+00:00</time></trkpt><trkpt lat="39.48201989" lon="-0.38071803"><ele>-52.4</ele><time>2022-10-30T11:34:15.0000000+00:00</time></trkpt><trkpt lat="39.48203229" lon="-0.38069992"><ele>-52.4</ele><time>2022-10-30T11:34:16.0000000+00:00</time></trkpt><trkpt lat="39.48204068" lon="-0.38068827"><ele>-52.4</ele><time>2022-10-30T11:34:17.0000000+00:00</time></trkpt><trkpt lat="39.48204428" lon="-0.38067042"><ele>-52.4</ele><time>2022-10-30T11:34:18.0000000+00:00</time></trkpt><trkpt lat="39.48204227" lon="-0.38064812"><ele>-52.4</ele><time>2022-10-30T11:34:19.0000000+00:00</time></trkpt><trkpt lat="39.48204923" lon="-0.38062616"><ele>-52.4</ele><time>2022-10-30T11:34:20.0000000+00:00</time></trkpt><trkpt lat="39.48205316" lon="-0.38061803"><ele>-52.4</ele><time>2022-10-30T11:34:21.0000000+00:00</time></trkpt><trkpt lat="39.48206188" lon="-0.38060219"><ele>-52.4</ele><time>2022-10-30T11:34:22.0000000+00:00</time></trkpt><trkpt lat="39.48207135" lon="-0.38058752"><ele>-52.4</ele><time>2022-10-30T11:34:23.0000000+00:00</time></trkpt><trkpt lat="39.48207278" lon="-0.3805742"><ele>-52.4</ele><time>2022-10-30T11:34:24.0000000+00:00</time></trkpt><trkpt lat="39.4820758" lon="-0.38055374"><ele>-52.4</ele><time>2022-10-30T11:34:25.0000000+00:00</time></trkpt><trkpt lat="39.48207848" lon="-0.38053807"><ele>-52.4</ele><time>2022-10-30T11:34:26.0000000+00:00</time></trkpt><trkpt lat="39.48208133" lon="-0.38052826"><ele>-52.4</ele><time>2022-10-30T11:34:27.0000000+00:00</time></trkpt><trkpt lat="39.48208544" lon="-0.38051049"><ele>-52.4</ele><time>2022-10-30T11:34:28.0000000+00:00</time></trkpt><trkpt lat="39.48209432" lon="-0.380498"><ele>-52.4</ele><time>2022-10-30T11:34:29.0000000+00:00</time></trkpt><trkpt lat="39.48210664" lon="-0.38048836"><ele>-52.4</ele><time>2022-10-30T11:34:30.0000000+00:00</time></trkpt><trkpt lat="39.4821162" lon="-0.38046699"><ele>-52.4</ele><time>2022-10-30T11:34:31.0000000+00:00</time></trkpt><trkpt lat="39.48212173" lon="-0.38045442"><ele>-52.4</ele><time>2022-10-30T11:34:32.0000000+00:00</time></trkpt><trkpt lat="39.48211662" lon="-0.38044159"><ele>-52.4</ele><time>2022-10-30T11:34:33.0000000+00:00</time></trkpt><trkpt lat="39.48210513" lon="-0.38043874"><ele>-52.2</ele><time>2022-10-30T11:34:34.0000000+00:00</time></trkpt><trkpt lat="39.48210564" lon="-0.38041821"><ele>-52.2</ele><time>2022-10-30T11:34:35.0000000+00:00</time></trkpt><trkpt lat="39.48210555" lon="-0.38040522"><ele>-52.2</ele><time>2022-10-30T11:34:36.0000000+00:00</time></trkpt><trkpt lat="39.48210203" lon="-0.38039331"><ele>-52.0</ele><time>2022-10-30T11:34:37.0000000+00:00</time></trkpt><trkpt lat="39.48210228" lon="-0.38038745"><ele>-51.8</ele><time>2022-10-30T11:34:38.0000000+00:00</time></trkpt><trkpt lat="39.48209759" lon="-0.38038225"><ele>-51.8</ele><time>2022-10-30T11:34:39.0000000+00:00</time></trkpt><trkpt lat="39.48208401" lon="-0.38037026"><ele>-51.8</ele><time>2022-10-30T11:34:40.0000000+00:00</time></trkpt><trkpt lat="39.48206968" lon="-0.38035266"><ele>-51.8</ele><time>2022-10-30T11:34:41.0000000+00:00</time></trkpt><trkpt lat="39.48204864" lon="-0.38032894"><ele>-51.6</ele><time>2022-10-30T11:34:42.0000000+00:00</time></trkpt><trkpt lat="39.48204143" lon="-0.38031008"><ele>-51.6</ele><time>2022-10-30T11:34:43.0000000+00:00</time></trkpt><trkpt lat="39.48203866" lon="-0.3802903"><ele>-51.6</ele><time>2022-10-30T11:34:44.0000000+00:00</time></trkpt><trkpt lat="39.48203749" lon="-0.38026909"><ele>-51.8</ele><time>2022-10-30T11:34:45.0000000+00:00</time></trkpt><trkpt lat="39.48203816" lon="-0.38025107"><ele>-51.8</ele><time>2022-10-30T11:34:46.0000000+00:00</time></trkpt><trkpt lat="39.48203816" lon="-0.38023858"><ele>-51.8</ele><time>2022-10-30T11:34:47.0000000+00:00</time></trkpt><trkpt lat="39.48203942" lon="-0.38022978"><ele>-51.8</ele><time>2022-10-30T11:34:48.0000000+00:00</time></trkpt><trkpt lat="39.48203816" lon="-0.38022324"><ele>-52.0</ele><time>2022-10-30T11:34:49.0000000+00:00</time></trkpt><trkpt lat="39.48203892" lon="-0.38022249"><ele>-52.0</ele><time>2022-10-30T11:34:50.0000000+00:00</time></trkpt><trkpt lat="39.48204177" lon="-0.38022316"><ele>-52.0</ele><time>2022-10-30T11:34:51.0000000+00:00</time></trkpt><trkpt lat="39.48204135" lon="-0.38022433"><ele>-52.0</ele><time>2022-10-30T11:34:52.0000000+00:00</time></trkpt><trkpt lat="39.48204218" lon="-0.38022576"><ele>-52.0</ele><time>2022-10-30T11:34:53.0000000+00:00</time></trkpt><trkpt lat="39.4820452" lon="-0.38022609"><ele>-52.0</ele><time>2022-10-30T11:34:54.0000000+00:00</time></trkpt><trkpt lat="39.48204973" lon="-0.38021654"><ele>-52.0</ele><time>2022-10-30T11:34:55.0000000+00:00</time></trkpt><trkpt lat="39.48205032" lon="-0.38020413"><ele>-52.0</ele><time>2022-10-30T11:34:56.0000000+00:00</time></trkpt><trkpt lat="39.4820504" lon="-0.38019693"><ele>-52.0</ele><time>2022-10-30T11:34:57.0000000+00:00</time></trkpt><trkpt lat="39.48204839" lon="-0.38019047"><ele>-52.0</ele><time>2022-10-30T11:34:58.0000000+00:00</time></trkpt><trkpt lat="39.48204964" lon="-0.3801893"><ele>-52.0</ele><time>2022-10-30T11:34:59.0000000+00:00</time></trkpt><trkpt lat="39.48205023" lon="-0.38017974"><ele>-52.0</ele><time>2022-10-30T11:35:00.0000000+00:00</time></trkpt><trkpt lat="39.48204621" lon="-0.38016642"><ele>-52.0</ele><time>2022-10-30T11:35:01.0000000+00:00</time></trkpt><trkpt lat="39.48204294" lon="-0.38015041"><ele>-52.0</ele><time>2022-10-30T11:35:02.0000000+00:00</time></trkpt><trkpt lat="39.48204629" lon="-0.38013381"><ele>-52.0</ele><time>2022-10-30T11:35:03.0000000+00:00</time></trkpt><trkpt lat="39.48205174" lon="-0.38011503"><ele>-52.0</ele><time>2022-10-30T11:35:04.0000000+00:00</time></trkpt><trkpt lat="39.48205769" lon="-0.38010011"><ele>-52.0</ele><time>2022-10-30T11:35:05.0000000+00:00</time></trkpt><trkpt lat="39.48206113" lon="-0.38008737"><ele>-52.0</ele><time>2022-10-30T11:35:06.0000000+00:00</time></trkpt><trkpt lat="39.48206071" lon="-0.3800624"><ele>-52.0</ele><time>2022-10-30T11:35:07.0000000+00:00</time></trkpt><trkpt lat="39.48206171" lon="-0.3800422"><ele>-52.0</ele><time>2022-10-30T11:35:08.0000000+00:00</time></trkpt><trkpt lat="39.48206808" lon="-0.38002174"><ele>-51.8</ele><time>2022-10-30T11:35:09.0000000+00:00</time></trkpt><trkpt lat="39.48208057" lon="-0.37999434"><ele>-51.8</ele><time>2022-10-30T11:35:10.0000000+00:00</time></trkpt><trkpt lat="39.48208426" lon="-0.37997724"><ele>-51.8</ele><time>2022-10-30T11:35:11.0000000+00:00</time></trkpt><trkpt lat="39.48209046" lon="-0.37996466"><ele>-51.8</ele><time>2022-10-30T11:35:12.0000000+00:00</time></trkpt><trkpt lat="39.4820929" lon="-0.37994991"><ele>-51.8</ele><time>2022-10-30T11:35:13.0000000+00:00</time></trkpt><trkpt lat="39.48209398" lon="-0.37993172"><ele>-51.8</ele><time>2022-10-30T11:35:14.0000000+00:00</time></trkpt><trkpt lat="39.48208971" lon="-0.3799194"><ele>-51.8</ele><time>2022-10-30T11:35:15.0000000+00:00</time></trkpt><trkpt lat="39.48207839" lon="-0.37990255"><ele>-51.8</ele><time>2022-10-30T11:35:16.0000000+00:00</time></trkpt><trkpt lat="39.48206599" lon="-0.37988319"><ele>-51.8</ele><time>2022-10-30T11:35:17.0000000+00:00</time></trkpt><trkpt lat="39.48206641" lon="-0.37986576"><ele>-51.8</ele><time>2022-10-30T11:35:18.0000000+00:00</time></trkpt><trkpt lat="39.48206507" lon="-0.37984832"><ele>-51.8</ele><time>2022-10-30T11:35:19.0000000+00:00</time></trkpt><trkpt lat="39.4820628" lon="-0.37983097"><ele>-51.8</ele><time>2022-10-30T11:35:20.0000000+00:00</time></trkpt><trkpt lat="39.48205794" lon="-0.37981027"><ele>-51.8</ele><time>2022-10-30T11:35:21.0000000+00:00</time></trkpt><trkpt lat="39.48205618" lon="-0.37979719"><ele>-51.8</ele><time>2022-10-30T11:35:22.0000000+00:00</time></trkpt><trkpt lat="39.48205342" lon="-0.37978353"><ele>-51.8</ele><time>2022-10-30T11:35:23.0000000+00:00</time></trkpt><trkpt lat="39.48204956" lon="-0.37977096"><ele>-51.8</ele><time>2022-10-30T11:35:24.0000000+00:00</time></trkpt><trkpt lat="39.4820478" lon="-0.37975604"><ele>-51.6</ele><time>2022-10-30T11:35:25.0000000+00:00</time></trkpt><trkpt lat="39.4820478" lon="-0.3797412"><ele>-51.6</ele><time>2022-10-30T11:35:26.0000000+00:00</time></trkpt><trkpt lat="39.48205702" lon="-0.37971983"><ele>-51.6</ele><time>2022-10-30T11:35:27.0000000+00:00</time></trkpt><trkpt lat="39.4820644" lon="-0.37970424"><ele>-51.6</ele><time>2022-10-30T11:35:28.0000000+00:00</time></trkpt><trkpt lat="39.48205652" lon="-0.37969762"><ele>-51.6</ele><time>2022-10-30T11:35:29.0000000+00:00</time></trkpt><trkpt lat="39.4820442" lon="-0.37967985"><ele>-51.6</ele><time>2022-10-30T11:35:30.0000000+00:00</time></trkpt><trkpt lat="39.48202609" lon="-0.37966233"><ele>-51.8</ele><time>2022-10-30T11:35:31.0000000+00:00</time></trkpt><trkpt lat="39.48201939" lon="-0.37964523"><ele>-51.8</ele><time>2022-10-30T11:35:32.0000000+00:00</time></trkpt><trkpt lat="39.48201444" lon="-0.37963106"><ele>-51.8</ele><time>2022-10-30T11:35:33.0000000+00:00</time></trkpt><trkpt lat="39.4820131" lon="-0.3796143"><ele>-51.8</ele><time>2022-10-30T11:35:34.0000000+00:00</time></trkpt><trkpt lat="39.48201117" lon="-0.37959636"><ele>-51.8</ele><time>2022-10-30T11:35:35.0000000+00:00</time></trkpt><trkpt lat="39.48200815" lon="-0.37958354"><ele>-51.8</ele><time>2022-10-30T11:35:36.0000000+00:00</time></trkpt><trkpt lat="39.48200178" lon="-0.37956728"><ele>-51.8</ele><time>2022-10-30T11:35:37.0000000+00:00</time></trkpt><trkpt lat="39.48199893" lon="-0.37955361"><ele>-51.8</ele><time>2022-10-30T11:35:38.0000000+00:00</time></trkpt><trkpt lat="39.48200128" lon="-0.37954046"><ele>-51.6</ele><time>2022-10-30T11:35:39.0000000+00:00</time></trkpt><trkpt lat="39.48200262" lon="-0.37952461"><ele>-51.6</ele><time>2022-10-30T11:35:40.0000000+00:00</time></trkpt><trkpt lat="39.48200346" lon="-0.37951145"><ele>-51.6</ele><time>2022-10-30T11:35:41.0000000+00:00</time></trkpt><trkpt lat="39.48199709" lon="-0.37949997"><ele>-51.6</ele><time>2022-10-30T11:35:42.0000000+00:00</time></trkpt><trkpt lat="39.48199089" lon="-0.37948824"><ele>-51.6</ele><time>2022-10-30T11:35:43.0000000+00:00</time></trkpt><trkpt lat="39.48198301" lon="-0.37947633"><ele>-51.6</ele><time>2022-10-30T11:35:44.0000000+00:00</time></trkpt><trkpt lat="39.48197991" lon="-0.37946493"><ele>-51.6</ele><time>2022-10-30T11:35:45.0000000+00:00</time></trkpt><trkpt lat="39.48197236" lon="-0.37945479"><ele>-51.8</ele><time>2022-10-30T11:35:46.0000000+00:00</time></trkpt><trkpt lat="39.48196876" lon="-0.37944289"><ele>-51.8</ele><time>2022-10-30T11:35:47.0000000+00:00</time></trkpt><trkpt lat="39.48196817" lon="-0.37942655"><ele>-51.8</ele><time>2022-10-30T11:35:48.0000000+00:00</time></trkpt><trkpt lat="39.48195904" lon="-0.37940945"><ele>-51.8</ele><time>2022-10-30T11:35:49.0000000+00:00</time></trkpt><trkpt lat="39.48194998" lon="-0.37939218"><ele>-51.8</ele><time>2022-10-30T11:35:50.0000000+00:00</time></trkpt><trkpt lat="39.48194395" lon="-0.379375"><ele>-51.8</ele><time>2022-10-30T11:35:51.0000000+00:00</time></trkpt><trkpt lat="39.48193766" lon="-0.37935555"><ele>-51.8</ele><time>2022-10-30T11:35:52.0000000+00:00</time></trkpt><trkpt lat="39.48193003" lon="-0.37933879"><ele>-51.8</ele><time>2022-10-30T11:35:53.0000000+00:00</time></trkpt><trkpt lat="39.48192232" lon="-0.37932077"><ele>-51.8</ele><time>2022-10-30T11:35:54.0000000+00:00</time></trkpt><trkpt lat="39.48191688" lon="-0.37930769"><ele>-51.6</ele><time>2022-10-30T11:35:55.0000000+00:00</time></trkpt><trkpt lat="39.48191067" lon="-0.37929755"><ele>-51.6</ele><time>2022-10-30T11:35:56.0000000+00:00</time></trkpt><trkpt lat="39.48190615" lon="-0.37928439"><ele>-51.6</ele><time>2022-10-30T11:35:57.0000000+00:00</time></trkpt><trkpt lat="39.48190095" lon="-0.3792698"><ele>-51.6</ele><time>2022-10-30T11:35:58.0000000+00:00</time></trkpt><trkpt lat="39.48189709" lon="-0.37925396"><ele>-51.8</ele><time>2022-10-30T11:35:59.0000000+00:00</time></trkpt><trkpt lat="39.48189324" lon="-0.3792372"><ele>-51.6</ele><time>2022-10-30T11:36:00.0000000+00:00</time></trkpt><trkpt lat="39.48188955" lon="-0.37921993"><ele>-51.6</ele><time>2022-10-30T11:36:01.0000000+00:00</time></trkpt><trkpt lat="39.48188251" lon="-0.37920275"><ele>-51.6</ele><time>2022-10-30T11:36:02.0000000+00:00</time></trkpt><trkpt lat="39.48187647" lon="-0.37918213"><ele>-51.6</ele><time>2022-10-30T11:36:03.0000000+00:00</time></trkpt><trkpt lat="39.48187287" lon="-0.37916704"><ele>-51.6</ele><time>2022-10-30T11:36:04.0000000+00:00</time></trkpt><trkpt lat="39.48186843" lon="-0.37915229"><ele>-51.6</ele><time>2022-10-30T11:36:05.0000000+00:00</time></trkpt><trkpt lat="39.4818613" lon="-0.37914131"><ele>-51.4</ele><time>2022-10-30T11:36:06.0000000+00:00</time></trkpt><trkpt lat="39.48185887" lon="-0.37913117"><ele>-51.4</ele><time>2022-10-30T11:36:07.0000000+00:00</time></trkpt><trkpt lat="39.48185728" lon="-0.379116"><ele>-51.4</ele><time>2022-10-30T11:36:08.0000000+00:00</time></trkpt><trkpt lat="39.48185544" lon="-0.37909848"><ele>-51.6</ele><time>2022-10-30T11:36:09.0000000+00:00</time></trkpt><trkpt lat="39.48185166" lon="-0.37908331"><ele>-51.6</ele><time>2022-10-30T11:36:10.0000000+00:00</time></trkpt><trkpt lat="39.48184588" lon="-0.37906822"><ele>-51.6</ele><time>2022-10-30T11:36:11.0000000+00:00</time></trkpt><trkpt lat="39.48184085" lon="-0.37905674"><ele>-51.6</ele><time>2022-10-30T11:36:12.0000000+00:00</time></trkpt><trkpt lat="39.48183389" lon="-0.37904047"><ele>-51.8</ele><time>2022-10-30T11:36:13.0000000+00:00</time></trkpt><trkpt lat="39.48183021" lon="-0.37902229"><ele>-51.8</ele><time>2022-10-30T11:36:14.0000000+00:00</time></trkpt><trkpt lat="39.48182987" lon="-0.37900971"><ele>-51.8</ele><time>2022-10-30T11:36:15.0000000+00:00</time></trkpt><trkpt lat="39.48182191" lon="-0.37899337"><ele>-51.6</ele><time>2022-10-30T11:36:16.0000000+00:00</time></trkpt><trkpt lat="39.4818142" lon="-0.37897811"><ele>-51.6</ele><time>2022-10-30T11:36:17.0000000+00:00</time></trkpt><trkpt lat="39.48181068" lon="-0.37896143"><ele>-51.6</ele><time>2022-10-30T11:36:18.0000000+00:00</time></trkpt><trkpt lat="39.48180581" lon="-0.37894383"><ele>-51.6</ele><time>2022-10-30T11:36:19.0000000+00:00</time></trkpt><trkpt lat="39.48179819" lon="-0.37892799"><ele>-51.6</ele><time>2022-10-30T11:36:20.0000000+00:00</time></trkpt><trkpt lat="39.48179685" lon="-0.37891223"><ele>-51.6</ele><time>2022-10-30T11:36:21.0000000+00:00</time></trkpt><trkpt lat="39.4817971" lon="-0.3788958"><ele>-51.6</ele><time>2022-10-30T11:36:22.0000000+00:00</time></trkpt><trkpt lat="39.48179442" lon="-0.37888273"><ele>-51.8</ele><time>2022-10-30T11:36:23.0000000+00:00</time></trkpt><trkpt lat="39.48178947" lon="-0.37886806"><ele>-51.8</ele><time>2022-10-30T11:36:24.0000000+00:00</time></trkpt><trkpt lat="39.48178712" lon="-0.37885088"><ele>-51.8</ele><time>2022-10-30T11:36:25.0000000+00:00</time></trkpt><trkpt lat="39.48178737" lon="-0.3788373"><ele>-51.8</ele><time>2022-10-30T11:36:26.0000000+00:00</time></trkpt><trkpt lat="39.4817867" lon="-0.37882699"><ele>-51.8</ele><time>2022-10-30T11:36:27.0000000+00:00</time></trkpt><trkpt lat="39.48178394" lon="-0.3788124"><ele>-51.8</ele><time>2022-10-30T11:36:28.0000000+00:00</time></trkpt><trkpt lat="39.48178017" lon="-0.37879866"><ele>-51.8</ele><time>2022-10-30T11:36:29.0000000+00:00</time></trkpt><trkpt lat="39.48177849" lon="-0.37878214"><ele>-51.8</ele><time>2022-10-30T11:36:30.0000000+00:00</time></trkpt><trkpt lat="39.48177623" lon="-0.37876546"><ele>-51.8</ele><time>2022-10-30T11:36:31.0000000+00:00</time></trkpt><trkpt lat="39.48177245" lon="-0.37874895"><ele>-51.8</ele><time>2022-10-30T11:36:32.0000000+00:00</time></trkpt><trkpt lat="39.48176717" lon="-0.37873194"><ele>-51.8</ele><time>2022-10-30T11:36:33.0000000+00:00</time></trkpt><trkpt lat="39.48176307" lon="-0.37871593"><ele>-51.8</ele><time>2022-10-30T11:36:34.0000000+00:00</time></trkpt><trkpt lat="39.48175745" lon="-0.37870436"><ele>-51.8</ele><time>2022-10-30T11:36:35.0000000+00:00</time></trkpt><trkpt lat="39.48174932" lon="-0.37868743"><ele>-51.8</ele><time>2022-10-30T11:36:36.0000000+00:00</time></trkpt><trkpt lat="39.48174555" lon="-0.37867167"><ele>-51.8</ele><time>2022-10-30T11:36:37.0000000+00:00</time></trkpt><trkpt lat="39.48173926" lon="-0.378657"><ele>-51.8</ele><time>2022-10-30T11:36:38.0000000+00:00</time></trkpt><trkpt lat="39.48173524" lon="-0.37864242"><ele>-51.8</ele><time>2022-10-30T11:36:39.0000000+00:00</time></trkpt><trkpt lat="39.48173381" lon="-0.37862306"><ele>-51.8</ele><time>2022-10-30T11:36:40.0000000+00:00</time></trkpt><trkpt lat="39.48173465" lon="-0.37860369"><ele>-51.8</ele><time>2022-10-30T11:36:41.0000000+00:00</time></trkpt><trkpt lat="39.48173147" lon="-0.37858743"><ele>-51.8</ele><time>2022-10-30T11:36:42.0000000+00:00</time></trkpt><trkpt lat="39.48172635" lon="-0.37857377"><ele>-51.8</ele><time>2022-10-30T11:36:43.0000000+00:00</time></trkpt><trkpt lat="39.4817256" lon="-0.37855776"><ele>-51.8</ele><time>2022-10-30T11:36:44.0000000+00:00</time></trkpt><trkpt lat="39.48172459" lon="-0.37854234"><ele>-51.6</ele><time>2022-10-30T11:36:45.0000000+00:00</time></trkpt><trkpt lat="39.48172552" lon="-0.37852851"><ele>-51.6</ele><time>2022-10-30T11:36:46.0000000+00:00</time></trkpt><trkpt lat="39.48172619" lon="-0.37851518"><ele>-51.6</ele><time>2022-10-30T11:36:47.0000000+00:00</time></trkpt><trkpt lat="39.48172317" lon="-0.37850454"><ele>-51.6</ele><time>2022-10-30T11:36:48.0000000+00:00</time></trkpt><trkpt lat="39.48171931" lon="-0.37849079"><ele>-51.6</ele><time>2022-10-30T11:36:49.0000000+00:00</time></trkpt><trkpt lat="39.4817142" lon="-0.37847277"><ele>-51.8</ele><time>2022-10-30T11:36:50.0000000+00:00</time></trkpt><trkpt lat="39.4817106" lon="-0.37845768"><ele>-51.8</ele><time>2022-10-30T11:36:51.0000000+00:00</time></trkpt><trkpt lat="39.48170448" lon="-0.37845651"><ele>-51.8</ele><time>2022-10-30T11:36:52.0000000+00:00</time></trkpt><trkpt lat="39.4816976" lon="-0.37844217"><ele>-51.8</ele><time>2022-10-30T11:36:53.0000000+00:00</time></trkpt><trkpt lat="39.48168696" lon="-0.37842751"><ele>-51.8</ele><time>2022-10-30T11:36:54.0000000+00:00</time></trkpt><trkpt lat="39.48168352" lon="-0.37841443"><ele>-51.8</ele><time>2022-10-30T11:36:55.0000000+00:00</time></trkpt><trkpt lat="39.48168386" lon="-0.37839649"><ele>-51.8</ele><time>2022-10-30T11:36:56.0000000+00:00</time></trkpt><trkpt lat="39.48167875" lon="-0.37837654"><ele>-51.8</ele><time>2022-10-30T11:36:57.0000000+00:00</time></trkpt><trkpt lat="39.48167305" lon="-0.37836037"><ele>-51.8</ele><time>2022-10-30T11:36:58.0000000+00:00</time></trkpt><trkpt lat="39.48167061" lon="-0.37834687"><ele>-51.8</ele><time>2022-10-30T11:36:59.0000000+00:00</time></trkpt><trkpt lat="39.48167162" lon="-0.3783322"><ele>-51.6</ele><time>2022-10-30T11:37:00.0000000+00:00</time></trkpt><trkpt lat="39.48166609" lon="-0.3783172"><ele>-51.6</ele><time>2022-10-30T11:37:01.0000000+00:00</time></trkpt><trkpt lat="39.48166223" lon="-0.37830136"><ele>-51.6</ele><time>2022-10-30T11:37:02.0000000+00:00</time></trkpt><trkpt lat="39.48165854" lon="-0.37828694"><ele>-51.6</ele><time>2022-10-30T11:37:03.0000000+00:00</time></trkpt><trkpt lat="39.48165108" lon="-0.37826942"><ele>-51.6</ele><time>2022-10-30T11:37:04.0000000+00:00</time></trkpt><trkpt lat="39.48164161" lon="-0.37825199"><ele>-51.8</ele><time>2022-10-30T11:37:05.0000000+00:00</time></trkpt><trkpt lat="39.48163223" lon="-0.37823648"><ele>-51.8</ele><time>2022-10-30T11:37:06.0000000+00:00</time></trkpt><trkpt lat="39.48162368" lon="-0.37822458"><ele>-51.8</ele><time>2022-10-30T11:37:07.0000000+00:00</time></trkpt><trkpt lat="39.48161555" lon="-0.37821628"><ele>-52.0</ele><time>2022-10-30T11:37:08.0000000+00:00</time></trkpt><trkpt lat="39.48161035" lon="-0.37820865"><ele>-52.0</ele><time>2022-10-30T11:37:09.0000000+00:00</time></trkpt><trkpt lat="39.48160415" lon="-0.37819072"><ele>-52.0</ele><time>2022-10-30T11:37:10.0000000+00:00</time></trkpt><trkpt lat="39.48159736" lon="-0.37817094"><ele>-52.0</ele><time>2022-10-30T11:37:11.0000000+00:00</time></trkpt><trkpt lat="39.48159208" lon="-0.37815283"><ele>-52.0</ele><time>2022-10-30T11:37:12.0000000+00:00</time></trkpt><trkpt lat="39.48158696" lon="-0.37813875"><ele>-52.0</ele><time>2022-10-30T11:37:13.0000000+00:00</time></trkpt><trkpt lat="39.4815811" lon="-0.37812349"><ele>-52.0</ele><time>2022-10-30T11:37:14.0000000+00:00</time></trkpt><trkpt lat="39.48156609" lon="-0.37811352"><ele>-52.0</ele><time>2022-10-30T11:37:15.0000000+00:00</time></trkpt><trkpt lat="39.48155629" lon="-0.37810321"><ele>-52.0</ele><time>2022-10-30T11:37:16.0000000+00:00</time></trkpt><trkpt lat="39.48154807" lon="-0.37808796"><ele>-51.8</ele><time>2022-10-30T11:37:17.0000000+00:00</time></trkpt><trkpt lat="39.48154355" lon="-0.37807488"><ele>-51.8</ele><time>2022-10-30T11:37:18.0000000+00:00</time></trkpt><trkpt lat="39.48154304" lon="-0.37805585"><ele>-51.8</ele><time>2022-10-30T11:37:19.0000000+00:00</time></trkpt><trkpt lat="39.48154355" lon="-0.37803398"><ele>-52.0</ele><time>2022-10-30T11:37:20.0000000+00:00</time></trkpt><trkpt lat="39.48154505" lon="-0.37801545"><ele>-52.0</ele><time>2022-10-30T11:37:21.0000000+00:00</time></trkpt><trkpt lat="39.48154422" lon="-0.37800246"><ele>-52.0</ele><time>2022-10-30T11:37:22.0000000+00:00</time></trkpt><trkpt lat="39.48153768" lon="-0.37797866"><ele>-52.2</ele><time>2022-10-30T11:37:23.0000000+00:00</time></trkpt><trkpt lat="39.48153642" lon="-0.37795938"><ele>-52.2</ele><time>2022-10-30T11:37:24.0000000+00:00</time></trkpt><trkpt lat="39.48153382" lon="-0.37794555"><ele>-52.4</ele><time>2022-10-30T11:37:25.0000000+00:00</time></trkpt><trkpt lat="39.48153843" lon="-0.37793557"><ele>-52.4</ele><time>2022-10-30T11:37:26.0000000+00:00</time></trkpt><trkpt lat="39.48153256" lon="-0.37792183"><ele>-52.2</ele><time>2022-10-30T11:37:27.0000000+00:00</time></trkpt><trkpt lat="39.48152309" lon="-0.37791043"><ele>-52.2</ele><time>2022-10-30T11:37:28.0000000+00:00</time></trkpt><trkpt lat="39.48151949" lon="-0.37789148"><ele>-52.2</ele><time>2022-10-30T11:37:29.0000000+00:00</time></trkpt><trkpt lat="39.48151446" lon="-0.37787698"><ele>-52.2</ele><time>2022-10-30T11:37:30.0000000+00:00</time></trkpt><trkpt lat="39.48150583" lon="-0.37786047"><ele>-52.0</ele><time>2022-10-30T11:37:31.0000000+00:00</time></trkpt><trkpt lat="39.48150205" lon="-0.37784672"><ele>-52.0</ele><time>2022-10-30T11:37:32.0000000+00:00</time></trkpt><trkpt lat="39.48149946" lon="-0.377836"><ele>-52.0</ele><time>2022-10-30T11:37:33.0000000+00:00</time></trkpt><trkpt lat="39.48149895" lon="-0.37782434"><ele>-52.0</ele><time>2022-10-30T11:37:34.0000000+00:00</time></trkpt><trkpt lat="39.48149518" lon="-0.37780825"><ele>-51.8</ele><time>2022-10-30T11:37:35.0000000+00:00</time></trkpt><trkpt lat="39.48149091" lon="-0.37779132"><ele>-51.8</ele><time>2022-10-30T11:37:36.0000000+00:00</time></trkpt><trkpt lat="39.48148646" lon="-0.37777606"><ele>-51.8</ele><time>2022-10-30T11:37:37.0000000+00:00</time></trkpt><trkpt lat="39.48147976" lon="-0.37776114"><ele>-52.0</ele><time>2022-10-30T11:37:38.0000000+00:00</time></trkpt><trkpt lat="39.48147481" lon="-0.37774631"><ele>-52.0</ele><time>2022-10-30T11:37:39.0000000+00:00</time></trkpt><trkpt lat="39.4814697" lon="-0.37773751"><ele>-52.0</ele><time>2022-10-30T11:37:40.0000000+00:00</time></trkpt><trkpt lat="39.48146098" lon="-0.37772049"><ele>-52.0</ele><time>2022-10-30T11:37:41.0000000+00:00</time></trkpt><trkpt lat="39.4814547" lon="-0.37770071"><ele>-52.0</ele><time>2022-10-30T11:37:42.0000000+00:00</time></trkpt><trkpt lat="39.48145067" lon="-0.3776847"><ele>-52.0</ele><time>2022-10-30T11:37:43.0000000+00:00</time></trkpt><trkpt lat="39.48144866" lon="-0.37766802"><ele>-52.0</ele><time>2022-10-30T11:37:44.0000000+00:00</time></trkpt><trkpt lat="39.48144397" lon="-0.3776557"><ele>-52.0</ele><time>2022-10-30T11:37:45.0000000+00:00</time></trkpt><trkpt lat="39.48143911" lon="-0.37764522"><ele>-52.0</ele><time>2022-10-30T11:37:46.0000000+00:00</time></trkpt><trkpt lat="39.48143341" lon="-0.37763835"><ele>-52.0</ele><time>2022-10-30T11:37:47.0000000+00:00</time></trkpt><trkpt lat="39.48142913" lon="-0.37762301"><ele>-52.0</ele><time>2022-10-30T11:37:48.0000000+00:00</time></trkpt><trkpt lat="39.48142813" lon="-0.37760851"><ele>-52.0</ele><time>2022-10-30T11:37:49.0000000+00:00</time></trkpt><trkpt lat="39.4814184" lon="-0.37759074"><ele>-52.2</ele><time>2022-10-30T11:37:50.0000000+00:00</time></trkpt><trkpt lat="39.48141472" lon="-0.37757549"><ele>-52.2</ele><time>2022-10-30T11:37:51.0000000+00:00</time></trkpt><trkpt lat="39.4814096" lon="-0.37756643"><ele>-52.2</ele><time>2022-10-30T11:37:52.0000000+00:00</time></trkpt><trkpt lat="39.48140231" lon="-0.37754783"><ele>-52.2</ele><time>2022-10-30T11:37:53.0000000+00:00</time></trkpt><trkpt lat="39.48139686" lon="-0.37752628"><ele>-52.2</ele><time>2022-10-30T11:37:54.0000000+00:00</time></trkpt><trkpt lat="39.48139368" lon="-0.3775039"><ele>-52.2</ele><time>2022-10-30T11:37:55.0000000+00:00</time></trkpt><trkpt lat="39.48138018" lon="-0.37748018"><ele>-52.2</ele><time>2022-10-30T11:37:56.0000000+00:00</time></trkpt><trkpt lat="39.48137029" lon="-0.37746753"><ele>-52.4</ele><time>2022-10-30T11:37:57.0000000+00:00</time></trkpt><trkpt lat="39.48136342" lon="-0.3774506"><ele>-52.4</ele><time>2022-10-30T11:37:58.0000000+00:00</time></trkpt><trkpt lat="39.4813604" lon="-0.37744121"><ele>-52.4</ele><time>2022-10-30T11:37:59.0000000+00:00</time></trkpt><trkpt lat="39.48135168" lon="-0.37743148"><ele>-52.4</ele><time>2022-10-30T11:38:00.0000000+00:00</time></trkpt><trkpt lat="39.48133308" lon="-0.37741849"><ele>-52.2</ele><time>2022-10-30T11:38:01.0000000+00:00</time></trkpt><trkpt lat="39.48132813" lon="-0.37740793"><ele>-52.2</ele><time>2022-10-30T11:38:02.0000000+00:00</time></trkpt><trkpt lat="39.48132453" lon="-0.37740072"><ele>-52.0</ele><time>2022-10-30T11:38:03.0000000+00:00</time></trkpt><trkpt lat="39.48132034" lon="-0.37739921"><ele>-52.0</ele><time>2022-10-30T11:38:04.0000000+00:00</time></trkpt><trkpt lat="39.4813226" lon="-0.37739276"><ele>-52.0</ele><time>2022-10-30T11:38:05.0000000+00:00</time></trkpt><trkpt lat="39.4813179" lon="-0.37738077"><ele>-52.0</ele><time>2022-10-30T11:38:06.0000000+00:00</time></trkpt><trkpt lat="39.48131765" lon="-0.37736929"><ele>-52.0</ele><time>2022-10-30T11:38:07.0000000+00:00</time></trkpt><trkpt lat="39.48131505" lon="-0.37735026"><ele>-52.0</ele><time>2022-10-30T11:38:08.0000000+00:00</time></trkpt><trkpt lat="39.4813086" lon="-0.37733149"><ele>-52.0</ele><time>2022-10-30T11:38:09.0000000+00:00</time></trkpt><trkpt lat="39.48130567" lon="-0.37731397"><ele>-52.0</ele><time>2022-10-30T11:38:10.0000000+00:00</time></trkpt><trkpt lat="39.48130491" lon="-0.37729771"><ele>-52.0</ele><time>2022-10-30T11:38:11.0000000+00:00</time></trkpt><trkpt lat="39.48129469" lon="-0.37728027"><ele>-52.0</ele><time>2022-10-30T11:38:12.0000000+00:00</time></trkpt><trkpt lat="39.48128647" lon="-0.37726209"><ele>-52.0</ele><time>2022-10-30T11:38:13.0000000+00:00</time></trkpt><trkpt lat="39.48127566" lon="-0.37724222"><ele>-52.0</ele><time>2022-10-30T11:38:14.0000000+00:00</time></trkpt><trkpt lat="39.48126803" lon="-0.37722688"><ele>-52.0</ele><time>2022-10-30T11:38:15.0000000+00:00</time></trkpt><trkpt lat="39.48126074" lon="-0.37721775"><ele>-52.0</ele><time>2022-10-30T11:38:16.0000000+00:00</time></trkpt><trkpt lat="39.48125068" lon="-0.37720433"><ele>-52.0</ele><time>2022-10-30T11:38:17.0000000+00:00</time></trkpt><trkpt lat="39.48124691" lon="-0.37719377"><ele>-52.0</ele><time>2022-10-30T11:38:18.0000000+00:00</time></trkpt><trkpt lat="39.48123786" lon="-0.37717994"><ele>-52.0</ele><time>2022-10-30T11:38:19.0000000+00:00</time></trkpt><trkpt lat="39.48123073" lon="-0.37717441"><ele>-52.0</ele><time>2022-10-30T11:38:20.0000000+00:00</time></trkpt><trkpt lat="39.48122336" lon="-0.37716368"><ele>-52.0</ele><time>2022-10-30T11:38:21.0000000+00:00</time></trkpt><trkpt lat="39.48121908" lon="-0.37714826"><ele>-52.2</ele><time>2022-10-30T11:38:22.0000000+00:00</time></trkpt><trkpt lat="39.48121908" lon="-0.37713443"><ele>-52.2</ele><time>2022-10-30T11:38:23.0000000+00:00</time></trkpt><trkpt lat="39.48121799" lon="-0.37711943"><ele>-52.0</ele><time>2022-10-30T11:38:24.0000000+00:00</time></trkpt><trkpt lat="39.48121171" lon="-0.37710241"><ele>-52.0</ele><time>2022-10-30T11:38:25.0000000+00:00</time></trkpt><trkpt lat="39.48121036" lon="-0.37709311"><ele>-52.0</ele><time>2022-10-30T11:38:26.0000000+00:00</time></trkpt><trkpt lat="39.48120567" lon="-0.37707668"><ele>-52.0</ele><time>2022-10-30T11:38:27.0000000+00:00</time></trkpt><trkpt lat="39.48119922" lon="-0.37706444"><ele>-52.0</ele><time>2022-10-30T11:38:28.0000000+00:00</time></trkpt><trkpt lat="39.4811941" lon="-0.37704986"><ele>-52.0</ele><time>2022-10-30T11:38:29.0000000+00:00</time></trkpt><trkpt lat="39.48118966" lon="-0.37703862"><ele>-52.0</ele><time>2022-10-30T11:38:30.0000000+00:00</time></trkpt><trkpt lat="39.48118497" lon="-0.37702538"><ele>-52.0</ele><time>2022-10-30T11:38:31.0000000+00:00</time></trkpt><trkpt lat="39.48118229" lon="-0.37701063"><ele>-52.2</ele><time>2022-10-30T11:38:32.0000000+00:00</time></trkpt><trkpt lat="39.48118111" lon="-0.37699504"><ele>-52.2</ele><time>2022-10-30T11:38:33.0000000+00:00</time></trkpt><trkpt lat="39.48118044" lon="-0.37698129"><ele>-52.2</ele><time>2022-10-30T11:38:34.0000000+00:00</time></trkpt><trkpt lat="39.48117742" lon="-0.37696654"><ele>-52.2</ele><time>2022-10-30T11:38:35.0000000+00:00</time></trkpt><trkpt lat="39.48117457" lon="-0.37695087"><ele>-52.2</ele><time>2022-10-30T11:38:36.0000000+00:00</time></trkpt><trkpt lat="39.48117147" lon="-0.37693368"><ele>-52.2</ele><time>2022-10-30T11:38:37.0000000+00:00</time></trkpt><trkpt lat="39.48116996" lon="-0.37691692"><ele>-52.2</ele><time>2022-10-30T11:38:38.0000000+00:00</time></trkpt><trkpt lat="39.48116493" lon="-0.37689856"><ele>-52.2</ele><time>2022-10-30T11:38:39.0000000+00:00</time></trkpt><trkpt lat="39.48115915" lon="-0.37688339"><ele>-52.0</ele><time>2022-10-30T11:38:40.0000000+00:00</time></trkpt><trkpt lat="39.48115286" lon="-0.37686395"><ele>-51.8</ele><time>2022-10-30T11:38:41.0000000+00:00</time></trkpt><trkpt lat="39.48114901" lon="-0.37684484"><ele>-51.8</ele><time>2022-10-30T11:38:42.0000000+00:00</time></trkpt><trkpt lat="39.48114457" lon="-0.37682966"><ele>-51.8</ele><time>2022-10-30T11:38:43.0000000+00:00</time></trkpt><trkpt lat="39.48113652" lon="-0.37681122"><ele>-51.8</ele><time>2022-10-30T11:38:44.0000000+00:00</time></trkpt><trkpt lat="39.48113191" lon="-0.37679505"><ele>-51.8</ele><time>2022-10-30T11:38:45.0000000+00:00</time></trkpt><trkpt lat="39.48112479" lon="-0.37677812"><ele>-51.8</ele><time>2022-10-30T11:38:46.0000000+00:00</time></trkpt><trkpt lat="39.48111858" lon="-0.37676169"><ele>-51.8</ele><time>2022-10-30T11:38:47.0000000+00:00</time></trkpt><trkpt lat="39.48111381" lon="-0.376744"><ele>-51.8</ele><time>2022-10-30T11:38:48.0000000+00:00</time></trkpt><trkpt lat="39.48111322" lon="-0.37672531"><ele>-52.0</ele><time>2022-10-30T11:38:49.0000000+00:00</time></trkpt><trkpt lat="39.48111489" lon="-0.37670645"><ele>-52.2</ele><time>2022-10-30T11:38:50.0000000+00:00</time></trkpt><trkpt lat="39.48111062" lon="-0.37669052"><ele>-52.4</ele><time>2022-10-30T11:38:51.0000000+00:00</time></trkpt><trkpt lat="39.48110232" lon="-0.37667468"><ele>-52.4</ele><time>2022-10-30T11:38:52.0000000+00:00</time></trkpt><trkpt lat="39.48109352" lon="-0.37666152"><ele>-52.4</ele><time>2022-10-30T11:38:53.0000000+00:00</time></trkpt><trkpt lat="39.48108547" lon="-0.37664903"><ele>-52.4</ele><time>2022-10-30T11:38:54.0000000+00:00</time></trkpt><trkpt lat="39.4810781" lon="-0.37663478"><ele>-52.4</ele><time>2022-10-30T11:38:55.0000000+00:00</time></trkpt><trkpt lat="39.48106905" lon="-0.37661559"><ele>-52.4</ele><time>2022-10-30T11:38:56.0000000+00:00</time></trkpt><trkpt lat="39.48106293" lon="-0.37660352"><ele>-52.4</ele><time>2022-10-30T11:38:57.0000000+00:00</time></trkpt><trkpt lat="39.48105723" lon="-0.37658919"><ele>-52.4</ele><time>2022-10-30T11:38:58.0000000+00:00</time></trkpt><trkpt lat="39.48105547" lon="-0.37657821"><ele>-52.4</ele><time>2022-10-30T11:38:59.0000000+00:00</time></trkpt><trkpt lat="39.48105396" lon="-0.3765653"><ele>-52.4</ele><time>2022-10-30T11:39:00.0000000+00:00</time></trkpt><trkpt lat="39.48105161" lon="-0.37655231"><ele>-52.4</ele><time>2022-10-30T11:39:01.0000000+00:00</time></trkpt><trkpt lat="39.48104683" lon="-0.37653211"><ele>-52.4</ele><time>2022-10-30T11:39:02.0000000+00:00</time></trkpt><trkpt lat="39.48104474" lon="-0.37651978"><ele>-52.4</ele><time>2022-10-30T11:39:03.0000000+00:00</time></trkpt><trkpt lat="39.48104356" lon="-0.37650109"><ele>-52.4</ele><time>2022-10-30T11:39:04.0000000+00:00</time></trkpt><trkpt lat="39.48103418" lon="-0.37648525"><ele>-52.6</ele><time>2022-10-30T11:39:05.0000000+00:00</time></trkpt><trkpt lat="39.48102345" lon="-0.37647435"><ele>-52.6</ele><time>2022-10-30T11:39:06.0000000+00:00</time></trkpt><trkpt lat="39.48101222" lon="-0.37646061"><ele>-52.6</ele><time>2022-10-30T11:39:07.0000000+00:00</time></trkpt><trkpt lat="39.48100392" lon="-0.37644527"><ele>-52.6</ele><time>2022-10-30T11:39:08.0000000+00:00</time></trkpt><trkpt lat="39.48100509" lon="-0.37642448"><ele>-52.6</ele><time>2022-10-30T11:39:09.0000000+00:00</time></trkpt><trkpt lat="39.48100534" lon="-0.37641426"><ele>-52.6</ele><time>2022-10-30T11:39:10.0000000+00:00</time></trkpt><trkpt lat="39.48100568" lon="-0.37640009"><ele>-52.8</ele><time>2022-10-30T11:39:11.0000000+00:00</time></trkpt><trkpt lat="39.48100065" lon="-0.37638148"><ele>-52.8</ele><time>2022-10-30T11:39:12.0000000+00:00</time></trkpt><trkpt lat="39.48099604" lon="-0.37636682"><ele>-52.8</ele><time>2022-10-30T11:39:13.0000000+00:00</time></trkpt><trkpt lat="39.4809952" lon="-0.37635131"><ele>-52.6</ele><time>2022-10-30T11:39:14.0000000+00:00</time></trkpt><trkpt lat="39.4809926" lon="-0.37633337"><ele>-52.6</ele><time>2022-10-30T11:39:15.0000000+00:00</time></trkpt><trkpt lat="39.480989" lon="-0.3763187"><ele>-52.6</ele><time>2022-10-30T11:39:16.0000000+00:00</time></trkpt><trkpt lat="39.48098674" lon="-0.37630864"><ele>-52.6</ele><time>2022-10-30T11:39:17.0000000+00:00</time></trkpt><trkpt lat="39.48098414" lon="-0.37629423"><ele>-52.6</ele><time>2022-10-30T11:39:18.0000000+00:00</time></trkpt><trkpt lat="39.48097936" lon="-0.37627998"><ele>-52.6</ele><time>2022-10-30T11:39:19.0000000+00:00</time></trkpt><trkpt lat="39.4809745" lon="-0.37626606"><ele>-52.6</ele><time>2022-10-30T11:39:20.0000000+00:00</time></trkpt><trkpt lat="39.48096712" lon="-0.37624997"><ele>-52.6</ele><time>2022-10-30T11:39:21.0000000+00:00</time></trkpt><trkpt lat="39.4809569" lon="-0.37623681"><ele>-52.6</ele><time>2022-10-30T11:39:22.0000000+00:00</time></trkpt><trkpt lat="39.48094902" lon="-0.37622365"><ele>-52.4</ele><time>2022-10-30T11:39:23.0000000+00:00</time></trkpt><trkpt lat="39.48094541" lon="-0.37621066"><ele>-52.4</ele><time>2022-10-30T11:39:24.0000000+00:00</time></trkpt><trkpt lat="39.48094323" lon="-0.37619155"><ele>-52.4</ele><time>2022-10-30T11:39:25.0000000+00:00</time></trkpt><trkpt lat="39.48094156" lon="-0.37618384"><ele>-52.4</ele><time>2022-10-30T11:39:26.0000000+00:00</time></trkpt><trkpt lat="39.48093871" lon="-0.37616883"><ele>-52.4</ele><time>2022-10-30T11:39:27.0000000+00:00</time></trkpt><trkpt lat="39.48093787" lon="-0.37615685"><ele>-52.4</ele><time>2022-10-30T11:39:28.0000000+00:00</time></trkpt><trkpt lat="39.48093359" lon="-0.37614469"><ele>-52.4</ele><time>2022-10-30T11:39:29.0000000+00:00</time></trkpt><trkpt lat="39.48092597" lon="-0.3761312"><ele>-52.2</ele><time>2022-10-30T11:39:30.0000000+00:00</time></trkpt><trkpt lat="39.48091876" lon="-0.37611636"><ele>-52.2</ele><time>2022-10-30T11:39:31.0000000+00:00</time></trkpt><trkpt lat="39.48091306" lon="-0.37610027"><ele>-52.2</ele><time>2022-10-30T11:39:32.0000000+00:00</time></trkpt><trkpt lat="39.48090535" lon="-0.37608217"><ele>-52.4</ele><time>2022-10-30T11:39:33.0000000+00:00</time></trkpt><trkpt lat="39.4808994" lon="-0.37606666"><ele>-52.8</ele><time>2022-10-30T11:39:34.0000000+00:00</time></trkpt><trkpt lat="39.48089797" lon="-0.37605484"><ele>-52.8</ele><time>2022-10-30T11:39:35.0000000+00:00</time></trkpt><trkpt lat="39.48089546" lon="-0.3760452"><ele>-52.8</ele><time>2022-10-30T11:39:36.0000000+00:00</time></trkpt><trkpt lat="39.4808937" lon="-0.37602919"><ele>-52.8</ele><time>2022-10-30T11:39:37.0000000+00:00</time></trkpt><trkpt lat="39.4808854" lon="-0.37601017"><ele>-52.8</ele><time>2022-10-30T11:39:38.0000000+00:00</time></trkpt><trkpt lat="39.48088272" lon="-0.37599835"><ele>-52.8</ele><time>2022-10-30T11:39:39.0000000+00:00</time></trkpt><trkpt lat="39.48087936" lon="-0.37598577"><ele>-52.6</ele><time>2022-10-30T11:39:40.0000000+00:00</time></trkpt><trkpt lat="39.48087408" lon="-0.37596809"><ele>-52.4</ele><time>2022-10-30T11:39:41.0000000+00:00</time></trkpt><trkpt lat="39.48087048" lon="-0.37595233"><ele>-52.4</ele><time>2022-10-30T11:39:42.0000000+00:00</time></trkpt><trkpt lat="39.48086713" lon="-0.37593967"><ele>-52.4</ele><time>2022-10-30T11:39:43.0000000+00:00</time></trkpt><trkpt lat="39.48086176" lon="-0.37592601"><ele>-52.4</ele><time>2022-10-30T11:39:44.0000000+00:00</time></trkpt><trkpt lat="39.48085707" lon="-0.37591478"><ele>-52.4</ele><time>2022-10-30T11:39:45.0000000+00:00</time></trkpt><trkpt lat="39.48085556" lon="-0.37590229"><ele>-52.4</ele><time>2022-10-30T11:39:46.0000000+00:00</time></trkpt><trkpt lat="39.48085061" lon="-0.37588645"><ele>-52.2</ele><time>2022-10-30T11:39:47.0000000+00:00</time></trkpt><trkpt lat="39.48084575" lon="-0.37587572"><ele>-52.4</ele><time>2022-10-30T11:39:48.0000000+00:00</time></trkpt><trkpt lat="39.48084156" lon="-0.37586566"><ele>-52.4</ele><time>2022-10-30T11:39:49.0000000+00:00</time></trkpt><trkpt lat="39.4808341" lon="-0.375853"><ele>-52.4</ele><time>2022-10-30T11:39:50.0000000+00:00</time></trkpt><trkpt lat="39.48082488" lon="-0.37584487"><ele>-52.4</ele><time>2022-10-30T11:39:51.0000000+00:00</time></trkpt><trkpt lat="39.48081935" lon="-0.37583984"><ele>-52.4</ele><time>2022-10-30T11:39:52.0000000+00:00</time></trkpt><trkpt lat="39.48080435" lon="-0.37582493"><ele>-52.4</ele><time>2022-10-30T11:39:53.0000000+00:00</time></trkpt><trkpt lat="39.48079831" lon="-0.37580825"><ele>-52.4</ele><time>2022-10-30T11:39:54.0000000+00:00</time></trkpt><trkpt lat="39.4807911" lon="-0.37579089"><ele>-52.4</ele><time>2022-10-30T11:39:55.0000000+00:00</time></trkpt><trkpt lat="39.48078599" lon="-0.37577589"><ele>-52.4</ele><time>2022-10-30T11:39:56.0000000+00:00</time></trkpt><trkpt lat="39.48077886" lon="-0.37575938"><ele>-52.4</ele><time>2022-10-30T11:39:57.0000000+00:00</time></trkpt><trkpt lat="39.48078121" lon="-0.37574278"><ele>-52.6</ele><time>2022-10-30T11:39:58.0000000+00:00</time></trkpt><trkpt lat="39.48077794" lon="-0.37572778"><ele>-52.6</ele><time>2022-10-30T11:39:59.0000000+00:00</time></trkpt><trkpt lat="39.48077643" lon="-0.37570959"><ele>-52.6</ele><time>2022-10-30T11:40:00.0000000+00:00</time></trkpt><trkpt lat="39.4807714" lon="-0.37569417"><ele>-52.6</ele><time>2022-10-30T11:40:01.0000000+00:00</time></trkpt><trkpt lat="39.48076285" lon="-0.37567774"><ele>-52.6</ele><time>2022-10-30T11:40:02.0000000+00:00</time></trkpt><trkpt lat="39.48075439" lon="-0.37565913"><ele>-52.6</ele><time>2022-10-30T11:40:03.0000000+00:00</time></trkpt><trkpt lat="39.48074861" lon="-0.37564849"><ele>-52.4</ele><time>2022-10-30T11:40:04.0000000+00:00</time></trkpt><trkpt lat="39.48074542" lon="-0.37562845"><ele>-52.4</ele><time>2022-10-30T11:40:05.0000000+00:00</time></trkpt><trkpt lat="39.48073846" lon="-0.37561026"><ele>-52.2</ele><time>2022-10-30T11:40:06.0000000+00:00</time></trkpt><trkpt lat="39.48073494" lon="-0.37559518"><ele>-52.2</ele><time>2022-10-30T11:40:07.0000000+00:00</time></trkpt><trkpt lat="39.48073" lon="-0.37557632"><ele>-52.2</ele><time>2022-10-30T11:40:08.0000000+00:00</time></trkpt><trkpt lat="39.4807274" lon="-0.37556081"><ele>-52.2</ele><time>2022-10-30T11:40:09.0000000+00:00</time></trkpt><trkpt lat="39.48072371" lon="-0.37554614"><ele>-52.2</ele><time>2022-10-30T11:40:10.0000000+00:00</time></trkpt><trkpt lat="39.48071323" lon="-0.37554983"><ele>-52.4</ele><time>2022-10-30T11:40:11.0000000+00:00</time></trkpt><trkpt lat="39.48070904" lon="-0.37553927"><ele>-52.4</ele><time>2022-10-30T11:40:12.0000000+00:00</time></trkpt><trkpt lat="39.48069991" lon="-0.37552737"><ele>-52.4</ele><time>2022-10-30T11:40:13.0000000+00:00</time></trkpt><trkpt lat="39.48069119" lon="-0.37551169"><ele>-52.4</ele><time>2022-10-30T11:40:14.0000000+00:00</time></trkpt><trkpt lat="39.48068784" lon="-0.37549736"><ele>-52.4</ele><time>2022-10-30T11:40:15.0000000+00:00</time></trkpt><trkpt lat="39.48068532" lon="-0.3754878"><ele>-52.2</ele><time>2022-10-30T11:40:16.0000000+00:00</time></trkpt><trkpt lat="39.48068348" lon="-0.37546953"><ele>-52.2</ele><time>2022-10-30T11:40:17.0000000+00:00</time></trkpt><trkpt lat="39.48068105" lon="-0.37545495"><ele>-52.2</ele><time>2022-10-30T11:40:18.0000000+00:00</time></trkpt><trkpt lat="39.48068323" lon="-0.37543366"><ele>-52.2</ele><time>2022-10-30T11:40:19.0000000+00:00</time></trkpt><trkpt lat="39.48068205" lon="-0.37540885"><ele>-52.2</ele><time>2022-10-30T11:40:20.0000000+00:00</time></trkpt><trkpt lat="39.48068281" lon="-0.37539879"><ele>-52.2</ele><time>2022-10-30T11:40:21.0000000+00:00</time></trkpt><trkpt lat="39.48067275" lon="-0.37540692"><ele>-52.2</ele><time>2022-10-30T11:40:22.0000000+00:00</time></trkpt><trkpt lat="39.48066864" lon="-0.37540809"><ele>-52.4</ele><time>2022-10-30T11:40:23.0000000+00:00</time></trkpt><trkpt lat="39.48065012" lon="-0.3754267"><ele>-52.4</ele><time>2022-10-30T11:40:24.0000000+00:00</time></trkpt><trkpt lat="39.48064668" lon="-0.37540868"><ele>-52.4</ele><time>2022-10-30T11:40:25.0000000+00:00</time></trkpt><trkpt lat="39.48064811" lon="-0.37539971"><ele>-52.4</ele><time>2022-10-30T11:40:26.0000000+00:00</time></trkpt><trkpt lat="39.48065297" lon="-0.3753884"><ele>-52.4</ele><time>2022-10-30T11:40:27.0000000+00:00</time></trkpt><trkpt lat="39.48065699" lon="-0.37537758"><ele>-52.4</ele><time>2022-10-30T11:40:28.0000000+00:00</time></trkpt><trkpt lat="39.4806616" lon="-0.37536166"><ele>-52.4</ele><time>2022-10-30T11:40:29.0000000+00:00</time></trkpt><trkpt lat="39.48066403" lon="-0.37534406"><ele>-52.4</ele><time>2022-10-30T11:40:30.0000000+00:00</time></trkpt><trkpt lat="39.48066521" lon="-0.3753293"><ele>-52.4</ele><time>2022-10-30T11:40:31.0000000+00:00</time></trkpt><trkpt lat="39.48066185" lon="-0.37531774"><ele>-52.4</ele><time>2022-10-30T11:40:32.0000000+00:00</time></trkpt><trkpt lat="39.48065909" lon="-0.37530198"><ele>-52.4</ele><time>2022-10-30T11:40:33.0000000+00:00</time></trkpt><trkpt lat="39.48066001" lon="-0.37529226"><ele>-52.4</ele><time>2022-10-30T11:40:34.0000000+00:00</time></trkpt><trkpt lat="39.48066085" lon="-0.37528429"><ele>-52.4</ele><time>2022-10-30T11:40:35.0000000+00:00</time></trkpt><trkpt lat="39.48066143" lon="-0.37527373"><ele>-52.4</ele><time>2022-10-30T11:40:36.0000000+00:00</time></trkpt><trkpt lat="39.48066303" lon="-0.37526099"><ele>-52.4</ele><time>2022-10-30T11:40:37.0000000+00:00</time></trkpt><trkpt lat="39.48065992" lon="-0.37524775"><ele>-52.4</ele><time>2022-10-30T11:40:38.0000000+00:00</time></trkpt><trkpt lat="39.48065573" lon="-0.37524163"><ele>-52.4</ele><time>2022-10-30T11:40:39.0000000+00:00</time></trkpt><trkpt lat="39.48065054" lon="-0.37523358"><ele>-52.4</ele><time>2022-10-30T11:40:40.0000000+00:00</time></trkpt><trkpt lat="39.48064735" lon="-0.37522537"><ele>-52.4</ele><time>2022-10-30T11:40:41.0000000+00:00</time></trkpt><trkpt lat="39.48063461" lon="-0.37521447"><ele>-52.4</ele><time>2022-10-30T11:40:42.0000000+00:00</time></trkpt><trkpt lat="39.48062279" lon="-0.37520366"><ele>-52.4</ele><time>2022-10-30T11:40:43.0000000+00:00</time></trkpt><trkpt lat="39.48061575" lon="-0.37519293"><ele>-52.4</ele><time>2022-10-30T11:40:44.0000000+00:00</time></trkpt><trkpt lat="39.48060988" lon="-0.37517625"><ele>-52.4</ele><time>2022-10-30T11:40:45.0000000+00:00</time></trkpt><trkpt lat="39.48060469" lon="-0.37516108"><ele>-52.4</ele><time>2022-10-30T11:40:46.0000000+00:00</time></trkpt><trkpt lat="39.48059681" lon="-0.37514918"><ele>-52.4</ele><time>2022-10-30T11:40:47.0000000+00:00</time></trkpt><trkpt lat="39.48058885" lon="-0.37513459"><ele>-52.4</ele><time>2022-10-30T11:40:48.0000000+00:00</time></trkpt><trkpt lat="39.48058432" lon="-0.37512051"><ele>-52.4</ele><time>2022-10-30T11:40:49.0000000+00:00</time></trkpt><trkpt lat="39.48057678" lon="-0.37510593"><ele>-52.4</ele><time>2022-10-30T11:40:50.0000000+00:00</time></trkpt><trkpt lat="39.48057284" lon="-0.3750952"><ele>-52.4</ele><time>2022-10-30T11:40:51.0000000+00:00</time></trkpt><trkpt lat="39.48057401" lon="-0.37508749"><ele>-52.4</ele><time>2022-10-30T11:40:52.0000000+00:00</time></trkpt><trkpt lat="39.4805663" lon="-0.37505882"><ele>-52.4</ele><time>2022-10-30T11:40:53.0000000+00:00</time></trkpt><trkpt lat="39.48055037" lon="-0.37503384"><ele>-52.4</ele><time>2022-10-30T11:40:54.0000000+00:00</time></trkpt><trkpt lat="39.48053277" lon="-0.37499671"><ele>-52.4</ele><time>2022-10-30T11:40:55.0000000+00:00</time></trkpt><trkpt lat="39.48051978" lon="-0.37496016"><ele>-52.6</ele><time>2022-10-30T11:40:56.0000000+00:00</time></trkpt><trkpt lat="39.48051274" lon="-0.3749455"><ele>-52.6</ele><time>2022-10-30T11:40:57.0000000+00:00</time></trkpt><trkpt lat="39.4805062" lon="-0.37493661"><ele>-52.6</ele><time>2022-10-30T11:40:58.0000000+00:00</time></trkpt><trkpt lat="39.48049958" lon="-0.37492379"><ele>-52.6</ele><time>2022-10-30T11:40:59.0000000+00:00</time></trkpt><trkpt lat="39.48049111" lon="-0.37491004"><ele>-52.6</ele><time>2022-10-30T11:41:00.0000000+00:00</time></trkpt><trkpt lat="39.48046932" lon="-0.37489931"><ele>-52.6</ele><time>2022-10-30T11:41:01.0000000+00:00</time></trkpt><trkpt lat="39.48045474" lon="-0.37488389"><ele>-52.6</ele><time>2022-10-30T11:41:02.0000000+00:00</time></trkpt><trkpt lat="39.48044292" lon="-0.37486277"><ele>-52.6</ele><time>2022-10-30T11:41:03.0000000+00:00</time></trkpt><trkpt lat="39.48044132" lon="-0.37485179"><ele>-52.6</ele><time>2022-10-30T11:41:04.0000000+00:00</time></trkpt><trkpt lat="39.48043328" lon="-0.37484902"><ele>-52.6</ele><time>2022-10-30T11:41:05.0000000+00:00</time></trkpt><trkpt lat="39.48042272" lon="-0.3748377"><ele>-52.6</ele><time>2022-10-30T11:41:06.0000000+00:00</time></trkpt><trkpt lat="39.48042347" lon="-0.37482798"><ele>-52.6</ele><time>2022-10-30T11:41:07.0000000+00:00</time></trkpt><trkpt lat="39.4804171" lon="-0.37480971"><ele>-52.6</ele><time>2022-10-30T11:41:08.0000000+00:00</time></trkpt><trkpt lat="39.48041802" lon="-0.37479571"><ele>-52.6</ele><time>2022-10-30T11:41:09.0000000+00:00</time></trkpt><trkpt lat="39.48042146" lon="-0.37478305"><ele>-52.6</ele><time>2022-10-30T11:41:10.0000000+00:00</time></trkpt><trkpt lat="39.48042104" lon="-0.37477585"><ele>-52.6</ele><time>2022-10-30T11:41:11.0000000+00:00</time></trkpt><trkpt lat="39.48041752" lon="-0.37476461"><ele>-52.4</ele><time>2022-10-30T11:41:12.0000000+00:00</time></trkpt><trkpt lat="39.48041291" lon="-0.3747538"><ele>-52.4</ele><time>2022-10-30T11:41:13.0000000+00:00</time></trkpt><trkpt lat="39.48040729" lon="-0.37474182"><ele>-52.4</ele><time>2022-10-30T11:41:14.0000000+00:00</time></trkpt><trkpt lat="39.48040151" lon="-0.37472933"><ele>-52.4</ele><time>2022-10-30T11:41:15.0000000+00:00</time></trkpt><trkpt lat="39.48039355" lon="-0.37471424"><ele>-52.4</ele><time>2022-10-30T11:41:16.0000000+00:00</time></trkpt><trkpt lat="39.48038776" lon="-0.37469991"><ele>-52.4</ele><time>2022-10-30T11:41:17.0000000+00:00</time></trkpt><trkpt lat="39.4803829" lon="-0.37468649"><ele>-52.4</ele><time>2022-10-30T11:41:18.0000000+00:00</time></trkpt><trkpt lat="39.48037662" lon="-0.37467225"><ele>-52.4</ele><time>2022-10-30T11:41:19.0000000+00:00</time></trkpt><trkpt lat="39.48037335" lon="-0.37466328"><ele>-52.4</ele><time>2022-10-30T11:41:20.0000000+00:00</time></trkpt><trkpt lat="39.48036958" lon="-0.3746549"><ele>-52.6</ele><time>2022-10-30T11:41:21.0000000+00:00</time></trkpt><trkpt lat="39.48036362" lon="-0.37464794"><ele>-52.6</ele><time>2022-10-30T11:41:22.0000000+00:00</time></trkpt><trkpt lat="39.48035357" lon="-0.37463436"><ele>-52.6</ele><time>2022-10-30T11:41:23.0000000+00:00</time></trkpt><trkpt lat="39.48034426" lon="-0.37462506"><ele>-52.6</ele><time>2022-10-30T11:41:24.0000000+00:00</time></trkpt><trkpt lat="39.48033303" lon="-0.3746067"><ele>-52.6</ele><time>2022-10-30T11:41:25.0000000+00:00</time></trkpt><trkpt lat="39.48032088" lon="-0.37459647"><ele>-52.6</ele><time>2022-10-30T11:41:26.0000000+00:00</time></trkpt><trkpt lat="39.48031216" lon="-0.3745891"><ele>-52.6</ele><time>2022-10-30T11:41:27.0000000+00:00</time></trkpt><trkpt lat="39.48030327" lon="-0.37458491"><ele>-52.6</ele><time>2022-10-30T11:41:28.0000000+00:00</time></trkpt><trkpt lat="39.4803011" lon="-0.37458055"><ele>-52.6</ele><time>2022-10-30T11:41:29.0000000+00:00</time></trkpt><trkpt lat="39.48029288" lon="-0.37457242"><ele>-52.6</ele><time>2022-10-30T11:41:30.0000000+00:00</time></trkpt><trkpt lat="39.48028215" lon="-0.37456152"><ele>-52.6</ele><time>2022-10-30T11:41:31.0000000+00:00</time></trkpt><trkpt lat="39.48027478" lon="-0.37454928"><ele>-52.6</ele><time>2022-10-30T11:41:32.0000000+00:00</time></trkpt><trkpt lat="39.4802705" lon="-0.37454031"><ele>-52.6</ele><time>2022-10-30T11:41:33.0000000+00:00</time></trkpt><trkpt lat="39.48026539" lon="-0.37453218"><ele>-52.6</ele><time>2022-10-30T11:41:34.0000000+00:00</time></trkpt><trkpt lat="39.48025977" lon="-0.37452221"><ele>-52.6</ele><time>2022-10-30T11:41:35.0000000+00:00</time></trkpt><trkpt lat="39.48025474" lon="-0.3745171"><ele>-52.6</ele><time>2022-10-30T11:41:36.0000000+00:00</time></trkpt><trkpt lat="39.48024049" lon="-0.37450017"><ele>-52.6</ele><time>2022-10-30T11:41:37.0000000+00:00</time></trkpt><trkpt lat="39.48022616" lon="-0.37448315"><ele>-52.6</ele><time>2022-10-30T11:41:38.0000000+00:00</time></trkpt><trkpt lat="39.48021007" lon="-0.37446404"><ele>-52.6</ele><time>2022-10-30T11:41:39.0000000+00:00</time></trkpt><trkpt lat="39.4801959" lon="-0.37444971"><ele>-52.6</ele><time>2022-10-30T11:41:40.0000000+00:00</time></trkpt><trkpt lat="39.48018584" lon="-0.37443738"><ele>-52.6</ele><time>2022-10-30T11:41:41.0000000+00:00</time></trkpt><trkpt lat="39.48018098" lon="-0.3744223"><ele>-52.6</ele><time>2022-10-30T11:41:42.0000000+00:00</time></trkpt><trkpt lat="39.48019305" lon="-0.37440067"><ele>-52.4</ele><time>2022-10-30T11:41:43.0000000+00:00</time></trkpt><trkpt lat="39.48019071" lon="-0.37437963"><ele>-52.4</ele><time>2022-10-30T11:41:44.0000000+00:00</time></trkpt><trkpt lat="39.48018677" lon="-0.37436413"><ele>-52.4</ele><time>2022-10-30T11:41:45.0000000+00:00</time></trkpt><trkpt lat="39.48018325" lon="-0.37436069"><ele>-52.4</ele><time>2022-10-30T11:41:46.0000000+00:00</time></trkpt><trkpt lat="39.48018065" lon="-0.37435139"><ele>-52.4</ele><time>2022-10-30T11:41:47.0000000+00:00</time></trkpt><trkpt lat="39.48017956" lon="-0.37434409"><ele>-52.4</ele><time>2022-10-30T11:41:48.0000000+00:00</time></trkpt><trkpt lat="39.48016707" lon="-0.37433018"><ele>-52.4</ele><time>2022-10-30T11:41:49.0000000+00:00</time></trkpt><trkpt lat="39.48016087" lon="-0.374314"><ele>-52.4</ele><time>2022-10-30T11:41:50.0000000+00:00</time></trkpt><trkpt lat="39.48015374" lon="-0.37430059"><ele>-52.6</ele><time>2022-10-30T11:41:51.0000000+00:00</time></trkpt><trkpt lat="39.48014838" lon="-0.37427737"><ele>-52.6</ele><time>2022-10-30T11:41:52.0000000+00:00</time></trkpt><trkpt lat="39.48014276" lon="-0.37426606"><ele>-52.6</ele><time>2022-10-30T11:41:53.0000000+00:00</time></trkpt><trkpt lat="39.4801327" lon="-0.3742508"><ele>-52.6</ele><time>2022-10-30T11:41:54.0000000+00:00</time></trkpt><trkpt lat="39.48012348" lon="-0.37424184"><ele>-52.6</ele><time>2022-10-30T11:41:55.0000000+00:00</time></trkpt><trkpt lat="39.48011066" lon="-0.37422868"><ele>-52.6</ele><time>2022-10-30T11:41:56.0000000+00:00</time></trkpt><trkpt lat="39.48010328" lon="-0.37421878"><ele>-52.6</ele><time>2022-10-30T11:41:57.0000000+00:00</time></trkpt><trkpt lat="39.48009515" lon="-0.37420713"><ele>-52.6</ele><time>2022-10-30T11:41:58.0000000+00:00</time></trkpt><trkpt lat="39.48008954" lon="-0.37419431"><ele>-52.6</ele><time>2022-10-30T11:41:59.0000000+00:00</time></trkpt><trkpt lat="39.48008551" lon="-0.37418492"><ele>-52.6</ele><time>2022-10-30T11:42:00.0000000+00:00</time></trkpt><trkpt lat="39.48008342" lon="-0.37418073"><ele>-52.6</ele><time>2022-10-30T11:42:01.0000000+00:00</time></trkpt><trkpt lat="39.48008308" lon="-0.37417604"><ele>-52.6</ele><time>2022-10-30T11:42:02.0000000+00:00</time></trkpt><trkpt lat="39.48007898" lon="-0.37418325"><ele>-52.6</ele><time>2022-10-30T11:42:03.0000000+00:00</time></trkpt><trkpt lat="39.48007101" lon="-0.37421552"><ele>-52.6</ele><time>2022-10-30T11:42:04.0000000+00:00</time></trkpt><trkpt lat="39.48007152" lon="-0.37422214"><ele>-52.6</ele><time>2022-10-30T11:42:05.0000000+00:00</time></trkpt><trkpt lat="39.4800747" lon="-0.3742265"><ele>-52.6</ele><time>2022-10-30T11:42:06.0000000+00:00</time></trkpt><trkpt lat="39.48007604" lon="-0.37423035"><ele>-52.6</ele><time>2022-10-30T11:42:07.0000000+00:00</time></trkpt><trkpt lat="39.48007478" lon="-0.37423312"><ele>-52.6</ele><time>2022-10-30T11:42:08.0000000+00:00</time></trkpt><trkpt lat="39.48007378" lon="-0.3742337"><ele>-52.8</ele><time>2022-10-30T11:42:09.0000000+00:00</time></trkpt><trkpt lat="39.48007344" lon="-0.37423555"><ele>-52.8</ele><time>2022-10-30T11:42:10.0000000+00:00</time></trkpt><trkpt lat="39.48007344" lon="-0.37423438"><ele>-52.6</ele><time>2022-10-30T11:42:11.0000000+00:00</time></trkpt><trkpt lat="39.48007344" lon="-0.37423438"><ele>-52.6</ele><time>2022-10-30T11:42:12.0000000+00:00</time></trkpt><trkpt lat="39.48007344" lon="-0.37423438"><ele>-52.6</ele><time>2022-10-30T11:42:13.0000000+00:00</time></trkpt><trkpt lat="39.48007344" lon="-0.37423438"><ele>-52.6</ele><time>2022-10-30T11:42:14.0000000+00:00</time></trkpt><trkpt lat="39.48007344" lon="-0.37423438"><ele>-52.6</ele><time>2022-10-30T11:42:15.0000000+00:00</time></trkpt><trkpt lat="39.48007344" lon="-0.37423438"><ele>-52.6</ele><time>2022-10-30T11:42:16.0000000+00:00</time></trkpt><trkpt lat="39.48007344" lon="-0.37423438"><ele>-52.6</ele><time>2022-10-30T11:42:17.0000000+00:00</time></trkpt><trkpt lat="39.48007344" lon="-0.37423438"><ele>-52.6</ele><time>2022-10-30T11:42:18.0000000+00:00</time></trkpt><trkpt lat="39.48007344" lon="-0.37423438"><ele>-52.6</ele><time>2022-10-30T11:42:19.0000000+00:00</time></trkpt><trkpt lat="39.48007344" lon="-0.3742337"><ele>-52.6</ele><time>2022-10-30T11:42:20.0000000+00:00</time></trkpt><trkpt lat="39.48007344" lon="-0.37423354"><ele>-52.6</ele><time>2022-10-30T11:42:21.0000000+00:00</time></trkpt><trkpt lat="39.48007369" lon="-0.37423312"><ele>-52.6</ele><time>2022-10-30T11:42:22.0000000+00:00</time></trkpt><trkpt lat="39.48007378" lon="-0.3742327"><ele>-52.6</ele><time>2022-10-30T11:42:23.0000000+00:00</time></trkpt><trkpt lat="39.48007462" lon="-0.37423111"><ele>-52.6</ele><time>2022-10-30T11:42:24.0000000+00:00</time></trkpt><trkpt lat="39.48007478" lon="-0.37423044"><ele>-52.6</ele><time>2022-10-30T11:42:25.0000000+00:00</time></trkpt><trkpt lat="39.48007495" lon="-0.37422859"><ele>-52.6</ele><time>2022-10-30T11:42:26.0000000+00:00</time></trkpt><trkpt lat="39.48007596" lon="-0.37422792"><ele>-52.6</ele><time>2022-10-30T11:42:27.0000000+00:00</time></trkpt><trkpt lat="39.48007872" lon="-0.37422658"><ele>-52.6</ele><time>2022-10-30T11:42:28.0000000+00:00</time></trkpt><trkpt lat="39.48007965" lon="-0.37422549"><ele>-52.6</ele><time>2022-10-30T11:42:29.0000000+00:00</time></trkpt><trkpt lat="39.48007973" lon="-0.37422247"><ele>-52.6</ele><time>2022-10-30T11:42:30.0000000+00:00</time></trkpt><trkpt lat="39.48007973" lon="-0.37422063"><ele>-52.6</ele><time>2022-10-30T11:42:31.0000000+00:00</time></trkpt><trkpt lat="39.48007738" lon="-0.37421677"><ele>-52.6</ele><time>2022-10-30T11:42:32.0000000+00:00</time></trkpt><trkpt lat="39.48007646" lon="-0.37419858"><ele>-52.6</ele><time>2022-10-30T11:42:33.0000000+00:00</time></trkpt><trkpt lat="39.48007294" lon="-0.37417444"><ele>-52.6</ele><time>2022-10-30T11:42:34.0000000+00:00</time></trkpt><trkpt lat="39.48006473" lon="-0.37415818"><ele>-52.6</ele><time>2022-10-30T11:42:35.0000000+00:00</time></trkpt><trkpt lat="39.48005584" lon="-0.37414888"><ele>-52.6</ele><time>2022-10-30T11:42:36.0000000+00:00</time></trkpt><trkpt lat="39.48004436" lon="-0.37414083"><ele>-52.6</ele><time>2022-10-30T11:42:37.0000000+00:00</time></trkpt><trkpt lat="39.4800338" lon="-0.37412851"><ele>-52.6</ele><time>2022-10-30T11:42:38.0000000+00:00</time></trkpt><trkpt lat="39.48002424" lon="-0.3741172"><ele>-52.6</ele><time>2022-10-30T11:42:39.0000000+00:00</time></trkpt><trkpt lat="39.48002022" lon="-0.37410781"><ele>-52.6</ele><time>2022-10-30T11:42:40.0000000+00:00</time></trkpt><trkpt lat="39.48001879" lon="-0.3740949"><ele>-52.6</ele><time>2022-10-30T11:42:41.0000000+00:00</time></trkpt><trkpt lat="39.48001787" lon="-0.37408275"><ele>-52.6</ele><time>2022-10-30T11:42:42.0000000+00:00</time></trkpt><trkpt lat="39.48001443" lon="-0.37405618"><ele>-52.6</ele><time>2022-10-30T11:42:43.0000000+00:00</time></trkpt><trkpt lat="39.48000672" lon="-0.37403313"><ele>-52.6</ele><time>2022-10-30T11:42:44.0000000+00:00</time></trkpt><trkpt lat="39.47999164" lon="-0.374012"><ele>-52.6</ele><time>2022-10-30T11:42:45.0000000+00:00</time></trkpt><trkpt lat="39.4799763" lon="-0.3739944"><ele>-52.6</ele><time>2022-10-30T11:42:46.0000000+00:00</time></trkpt><trkpt lat="39.4799649" lon="-0.37397915"><ele>-52.6</ele><time>2022-10-30T11:42:47.0000000+00:00</time></trkpt><trkpt lat="39.4799545" lon="-0.373968"><ele>-52.6</ele><time>2022-10-30T11:42:48.0000000+00:00</time></trkpt><trkpt lat="39.47994755" lon="-0.3739566"><ele>-52.6</ele><time>2022-10-30T11:42:49.0000000+00:00</time></trkpt><trkpt lat="39.47994185" lon="-0.37394646"><ele>-52.6</ele><time>2022-10-30T11:42:50.0000000+00:00</time></trkpt><trkpt lat="39.47993112" lon="-0.37393732"><ele>-52.6</ele><time>2022-10-30T11:42:51.0000000+00:00</time></trkpt><trkpt lat="39.47992056" lon="-0.37393631"><ele>-52.6</ele><time>2022-10-30T11:42:52.0000000+00:00</time></trkpt><trkpt lat="39.47991" lon="-0.3739395"><ele>-52.6</ele><time>2022-10-30T11:42:53.0000000+00:00</time></trkpt><trkpt lat="39.47990161" lon="-0.37393665"><ele>-52.6</ele><time>2022-10-30T11:42:54.0000000+00:00</time></trkpt><trkpt lat="39.4798929" lon="-0.37392894"><ele>-52.6</ele><time>2022-10-30T11:42:55.0000000+00:00</time></trkpt><trkpt lat="39.47988485" lon="-0.37391804"><ele>-52.4</ele><time>2022-10-30T11:42:56.0000000+00:00</time></trkpt><trkpt lat="39.47987094" lon="-0.37390522"><ele>-52.4</ele><time>2022-10-30T11:42:57.0000000+00:00</time></trkpt><trkpt lat="39.47986214" lon="-0.37389868"><ele>-52.4</ele><time>2022-10-30T11:42:58.0000000+00:00</time></trkpt><trkpt lat="39.4798556" lon="-0.3738934"><ele>-52.4</ele><time>2022-10-30T11:42:59.0000000+00:00</time></trkpt><trkpt lat="39.47985292" lon="-0.3738763"><ele>-52.6</ele><time>2022-10-30T11:43:00.0000000+00:00</time></trkpt><trkpt lat="39.47985048" lon="-0.3738701"><ele>-52.6</ele><time>2022-10-30T11:43:01.0000000+00:00</time></trkpt><trkpt lat="39.47985007" lon="-0.37386926"><ele>-52.6</ele><time>2022-10-30T11:43:02.0000000+00:00</time></trkpt><trkpt lat="39.47983095" lon="-0.37384973"><ele>-52.6</ele><time>2022-10-30T11:43:03.0000000+00:00</time></trkpt><trkpt lat="39.47981168" lon="-0.37383917"><ele>-52.6</ele><time>2022-10-30T11:43:04.0000000+00:00</time></trkpt><trkpt lat="39.47978603" lon="-0.37381897"><ele>-52.6</ele><time>2022-10-30T11:43:05.0000000+00:00</time></trkpt><trkpt lat="39.4797753" lon="-0.37381017"><ele>-52.6</ele><time>2022-10-30T11:43:06.0000000+00:00</time></trkpt><trkpt lat="39.47977044" lon="-0.37381184"><ele>-52.6</ele><time>2022-10-30T11:43:07.0000000+00:00</time></trkpt><trkpt lat="39.47976985" lon="-0.37380975"><ele>-52.6</ele><time>2022-10-30T11:43:08.0000000+00:00</time></trkpt><trkpt lat="39.47976884" lon="-0.37381788"><ele>-52.6</ele><time>2022-10-30T11:43:09.0000000+00:00</time></trkpt><trkpt lat="39.47977237" lon="-0.37382735"><ele>-52.6</ele><time>2022-10-30T11:43:10.0000000+00:00</time></trkpt><trkpt lat="39.47977505" lon="-0.37385375"><ele>-52.6</ele><time>2022-10-30T11:43:11.0000000+00:00</time></trkpt><trkpt lat="39.4797815" lon="-0.37386096"><ele>-52.6</ele><time>2022-10-30T11:43:12.0000000+00:00</time></trkpt><trkpt lat="39.47978896" lon="-0.37387764"><ele>-52.6</ele><time>2022-10-30T11:43:13.0000000+00:00</time></trkpt><trkpt lat="39.4797924" lon="-0.37390002"><ele>-52.6</ele><time>2022-10-30T11:43:14.0000000+00:00</time></trkpt><trkpt lat="39.47979382" lon="-0.37391561"><ele>-52.6</ele><time>2022-10-30T11:43:15.0000000+00:00</time></trkpt><trkpt lat="39.47979399" lon="-0.37394419"><ele>-52.6</ele><time>2022-10-30T11:43:16.0000000+00:00</time></trkpt><trkpt lat="39.47979122" lon="-0.37396917"><ele>-52.6</ele><time>2022-10-30T11:43:17.0000000+00:00</time></trkpt><trkpt lat="39.47979248" lon="-0.37398074"><ele>-52.8</ele><time>2022-10-30T11:43:18.0000000+00:00</time></trkpt><trkpt lat="39.47978879" lon="-0.37398761"><ele>-52.8</ele><time>2022-10-30T11:43:19.0000000+00:00</time></trkpt><trkpt lat="39.47978435" lon="-0.37399432"><ele>-52.6</ele><time>2022-10-30T11:43:20.0000000+00:00</time></trkpt><trkpt lat="39.47978008" lon="-0.37401309"><ele>-52.6</ele><time>2022-10-30T11:43:21.0000000+00:00</time></trkpt><trkpt lat="39.47977781" lon="-0.37402977"><ele>-52.6</ele><time>2022-10-30T11:43:22.0000000+00:00</time></trkpt><trkpt lat="39.47977739" lon="-0.3740488"><ele>-52.6</ele><time>2022-10-30T11:43:23.0000000+00:00</time></trkpt><trkpt lat="39.47977823" lon="-0.37406305"><ele>-52.6</ele><time>2022-10-30T11:43:24.0000000+00:00</time></trkpt><trkpt lat="39.47977136" lon="-0.37407168"><ele>-52.4</ele><time>2022-10-30T11:43:25.0000000+00:00</time></trkpt><trkpt lat="39.47976574" lon="-0.37408291"><ele>-52.4</ele><time>2022-10-30T11:43:26.0000000+00:00</time></trkpt><trkpt lat="39.47976507" lon="-0.37408208"><ele>-52.4</ele><time>2022-10-30T11:43:27.0000000+00:00</time></trkpt><trkpt lat="39.47975828" lon="-0.37408015"><ele>-52.2</ele><time>2022-10-30T11:43:28.0000000+00:00</time></trkpt><trkpt lat="39.47975535" lon="-0.37408702"><ele>-52.2</ele><time>2022-10-30T11:43:29.0000000+00:00</time></trkpt><trkpt lat="39.47975711" lon="-0.37410303"><ele>-52.2</ele><time>2022-10-30T11:43:30.0000000+00:00</time></trkpt><trkpt lat="39.47975393" lon="-0.37412281"><ele>-52.4</ele><time>2022-10-30T11:43:31.0000000+00:00</time></trkpt><trkpt lat="39.47975895" lon="-0.37413572"><ele>-52.4</ele><time>2022-10-30T11:43:32.0000000+00:00</time></trkpt><trkpt lat="39.47975703" lon="-0.37415014"><ele>-52.4</ele><time>2022-10-30T11:43:33.0000000+00:00</time></trkpt><trkpt lat="39.47975652" lon="-0.37417394"><ele>-52.4</ele><time>2022-10-30T11:43:34.0000000+00:00</time></trkpt><trkpt lat="39.47975753" lon="-0.37418677"><ele>-52.4</ele><time>2022-10-30T11:43:35.0000000+00:00</time></trkpt><trkpt lat="39.47975736" lon="-0.37420353"><ele>-52.4</ele><time>2022-10-30T11:43:36.0000000+00:00</time></trkpt><trkpt lat="39.47975745" lon="-0.37422264"><ele>-52.4</ele><time>2022-10-30T11:43:37.0000000+00:00</time></trkpt><trkpt lat="39.47975493" lon="-0.37423731"><ele>-52.2</ele><time>2022-10-30T11:43:38.0000000+00:00</time></trkpt><trkpt lat="39.47975468" lon="-0.37424896"><ele>-52.2</ele><time>2022-10-30T11:43:39.0000000+00:00</time></trkpt><trkpt lat="39.47975342" lon="-0.37425801"><ele>-52.2</ele><time>2022-10-30T11:43:40.0000000+00:00</time></trkpt><trkpt lat="39.47975267" lon="-0.37427226"><ele>-52.2</ele><time>2022-10-30T11:43:41.0000000+00:00</time></trkpt><trkpt lat="39.47974697" lon="-0.3742871"><ele>-52.2</ele><time>2022-10-30T11:43:42.0000000+00:00</time></trkpt><trkpt lat="39.47974873" lon="-0.3743026"><ele>-52.2</ele><time>2022-10-30T11:43:43.0000000+00:00</time></trkpt><trkpt lat="39.47974839" lon="-0.37431048"><ele>-52.2</ele><time>2022-10-30T11:43:44.0000000+00:00</time></trkpt><trkpt lat="39.47974655" lon="-0.37431593"><ele>-52.2</ele><time>2022-10-30T11:43:45.0000000+00:00</time></trkpt><trkpt lat="39.47974571" lon="-0.37432632"><ele>-52.2</ele><time>2022-10-30T11:43:46.0000000+00:00</time></trkpt><trkpt lat="39.47974722" lon="-0.37433806"><ele>-52.2</ele><time>2022-10-30T11:43:47.0000000+00:00</time></trkpt><trkpt lat="39.4797473" lon="-0.37435457"><ele>-52.2</ele><time>2022-10-30T11:43:48.0000000+00:00</time></trkpt><trkpt lat="39.47974571" lon="-0.37436932"><ele>-52.2</ele><time>2022-10-30T11:43:49.0000000+00:00</time></trkpt><trkpt lat="39.47974605" lon="-0.37438626"><ele>-52.2</ele><time>2022-10-30T11:43:50.0000000+00:00</time></trkpt><trkpt lat="39.47974764" lon="-0.37440117"><ele>-52.2</ele><time>2022-10-30T11:43:51.0000000+00:00</time></trkpt><trkpt lat="39.47975208" lon="-0.37442045"><ele>-52.2</ele><time>2022-10-30T11:43:52.0000000+00:00</time></trkpt><trkpt lat="39.47975216" lon="-0.37443982"><ele>-52.2</ele><time>2022-10-30T11:43:53.0000000+00:00</time></trkpt><trkpt lat="39.47975099" lon="-0.37446412"><ele>-52.2</ele><time>2022-10-30T11:43:54.0000000+00:00</time></trkpt><trkpt lat="39.47975426" lon="-0.3744855"><ele>-52.0</ele><time>2022-10-30T11:43:55.0000000+00:00</time></trkpt><trkpt lat="39.47975745" lon="-0.37450813"><ele>-52.0</ele><time>2022-10-30T11:43:56.0000000+00:00</time></trkpt><trkpt lat="39.4797603" lon="-0.37452271"><ele>-52.0</ele><time>2022-10-30T11:43:57.0000000+00:00</time></trkpt><trkpt lat="39.4797665" lon="-0.3745523"><ele>-52.0</ele><time>2022-10-30T11:43:58.0000000+00:00</time></trkpt><trkpt lat="39.47977203" lon="-0.37458734"><ele>-52.0</ele><time>2022-10-30T11:43:59.0000000+00:00</time></trkpt><trkpt lat="39.47977924" lon="-0.37461374"><ele>-52.0</ele><time>2022-10-30T11:44:00.0000000+00:00</time></trkpt><trkpt lat="39.47978561" lon="-0.37463419"><ele>-52.0</ele><time>2022-10-30T11:44:01.0000000+00:00</time></trkpt><trkpt lat="39.47979265" lon="-0.37465582"><ele>-52.0</ele><time>2022-10-30T11:44:02.0000000+00:00</time></trkpt><trkpt lat="39.47979818" lon="-0.37467241"><ele>-52.0</ele><time>2022-10-30T11:44:03.0000000+00:00</time></trkpt><trkpt lat="39.47980028" lon="-0.37468691"><ele>-52.0</ele><time>2022-10-30T11:44:04.0000000+00:00</time></trkpt><trkpt lat="39.4797991" lon="-0.37469882"><ele>-52.0</ele><time>2022-10-30T11:44:05.0000000+00:00</time></trkpt><trkpt lat="39.47979734" lon="-0.37471608"><ele>-52.0</ele><time>2022-10-30T11:44:06.0000000+00:00</time></trkpt><trkpt lat="39.47980614" lon="-0.37474324"><ele>-52.0</ele><time>2022-10-30T11:44:07.0000000+00:00</time></trkpt><trkpt lat="39.47981218" lon="-0.3747642"><ele>-51.8</ele><time>2022-10-30T11:44:08.0000000+00:00</time></trkpt><trkpt lat="39.47981863" lon="-0.37478901"><ele>-51.8</ele><time>2022-10-30T11:44:09.0000000+00:00</time></trkpt><trkpt lat="39.47982844" lon="-0.37480946"><ele>-51.8</ele><time>2022-10-30T11:44:10.0000000+00:00</time></trkpt><trkpt lat="39.47983934" lon="-0.37481985"><ele>-51.8</ele><time>2022-10-30T11:44:11.0000000+00:00</time></trkpt><trkpt lat="39.47984168" lon="-0.37482756"><ele>-51.8</ele><time>2022-10-30T11:44:12.0000000+00:00</time></trkpt><trkpt lat="39.47984043" lon="-0.37483318"><ele>-51.8</ele><time>2022-10-30T11:44:13.0000000+00:00</time></trkpt><trkpt lat="39.47983858" lon="-0.37484944"><ele>-51.8</ele><time>2022-10-30T11:44:14.0000000+00:00</time></trkpt><trkpt lat="39.47982861" lon="-0.37486201"><ele>-51.8</ele><time>2022-10-30T11:44:15.0000000+00:00</time></trkpt><trkpt lat="39.47981453" lon="-0.37486754"><ele>-51.8</ele><time>2022-10-30T11:44:16.0000000+00:00</time></trkpt><trkpt lat="39.47980044" lon="-0.37487651"><ele>-51.8</ele><time>2022-10-30T11:44:17.0000000+00:00</time></trkpt><trkpt lat="39.47979307" lon="-0.37488707"><ele>-51.8</ele><time>2022-10-30T11:44:18.0000000+00:00</time></trkpt><trkpt lat="39.47978125" lon="-0.37490241"><ele>-51.6</ele><time>2022-10-30T11:44:19.0000000+00:00</time></trkpt><trkpt lat="39.47976566" lon="-0.37490753"><ele>-51.6</ele><time>2022-10-30T11:44:20.0000000+00:00</time></trkpt><trkpt lat="39.47976046" lon="-0.37491708"><ele>-51.6</ele><time>2022-10-30T11:44:21.0000000+00:00</time></trkpt><trkpt lat="39.47974848" lon="-0.37492303"><ele>-51.6</ele><time>2022-10-30T11:44:22.0000000+00:00</time></trkpt><trkpt lat="39.47973364" lon="-0.37492815"><ele>-51.4</ele><time>2022-10-30T11:44:23.0000000+00:00</time></trkpt><trkpt lat="39.47972325" lon="-0.37492504"><ele>-51.4</ele><time>2022-10-30T11:44:24.0000000+00:00</time></trkpt><trkpt lat="39.47971093" lon="-0.37492001"><ele>-51.4</ele><time>2022-10-30T11:44:25.0000000+00:00</time></trkpt><trkpt lat="39.47969777" lon="-0.37492194"><ele>-51.6</ele><time>2022-10-30T11:44:26.0000000+00:00</time></trkpt><trkpt lat="39.47968561" lon="-0.3749253"><ele>-51.8</ele><time>2022-10-30T11:44:27.0000000+00:00</time></trkpt><trkpt lat="39.47967514" lon="-0.37493259"><ele>-51.8</ele><time>2022-10-30T11:44:28.0000000+00:00</time></trkpt><trkpt lat="39.47966784" lon="-0.37494365"><ele>-51.8</ele><time>2022-10-30T11:44:29.0000000+00:00</time></trkpt><trkpt lat="39.47966181" lon="-0.37495161"><ele>-51.8</ele><time>2022-10-30T11:44:30.0000000+00:00</time></trkpt><trkpt lat="39.47965804" lon="-0.37495094"><ele>-51.8</ele><time>2022-10-30T11:44:31.0000000+00:00</time></trkpt><trkpt lat="39.47965527" lon="-0.37495036"><ele>-52.0</ele><time>2022-10-30T11:44:32.0000000+00:00</time></trkpt><trkpt lat="39.47965385" lon="-0.37495094"><ele>-52.0</ele><time>2022-10-30T11:44:33.0000000+00:00</time></trkpt><trkpt lat="39.47965292" lon="-0.37495195"><ele>-52.0</ele><time>2022-10-30T11:44:34.0000000+00:00</time></trkpt><trkpt lat="39.47965334" lon="-0.37495371"><ele>-52.0</ele><time>2022-10-30T11:44:35.0000000+00:00</time></trkpt><trkpt lat="39.4796546" lon="-0.37495488"><ele>-52.0</ele><time>2022-10-30T11:44:36.0000000+00:00</time></trkpt><trkpt lat="39.4796546" lon="-0.37495513"><ele>-52.0</ele><time>2022-10-30T11:44:37.0000000+00:00</time></trkpt><trkpt lat="39.47965385" lon="-0.37495513"><ele>-52.0</ele><time>2022-10-30T11:44:38.0000000+00:00</time></trkpt><trkpt lat="39.47965351" lon="-0.37495589"><ele>-52.2</ele><time>2022-10-30T11:44:39.0000000+00:00</time></trkpt><trkpt lat="39.47964613" lon="-0.37495513"><ele>-52.2</ele><time>2022-10-30T11:44:40.0000000+00:00</time></trkpt><trkpt lat="39.47964127" lon="-0.37495606"><ele>-52.2</ele><time>2022-10-30T11:44:41.0000000+00:00</time></trkpt><trkpt lat="39.47963155" lon="-0.37496192"><ele>-52.0</ele><time>2022-10-30T11:44:42.0000000+00:00</time></trkpt><trkpt lat="39.47962468" lon="-0.37496897"><ele>-52.0</ele><time>2022-10-30T11:44:43.0000000+00:00</time></trkpt><trkpt lat="39.47961981" lon="-0.37497768"><ele>-52.0</ele><time>2022-10-30T11:44:44.0000000+00:00</time></trkpt><trkpt lat="39.47961504" lon="-0.37498816"><ele>-51.8</ele><time>2022-10-30T11:44:45.0000000+00:00</time></trkpt><trkpt lat="39.47961202" lon="-0.37499989"><ele>-51.8</ele><time>2022-10-30T11:44:46.0000000+00:00</time></trkpt><trkpt lat="39.47960992" lon="-0.37501347"><ele>-51.8</ele><time>2022-10-30T11:44:47.0000000+00:00</time></trkpt><trkpt lat="39.47960984" lon="-0.37502688"><ele>-51.8</ele><time>2022-10-30T11:44:48.0000000+00:00</time></trkpt><trkpt lat="39.47961361" lon="-0.37503325"><ele>-51.8</ele><time>2022-10-30T11:44:49.0000000+00:00</time></trkpt><trkpt lat="39.47962233" lon="-0.37504734"><ele>-51.8</ele><time>2022-10-30T11:44:50.0000000+00:00</time></trkpt><trkpt lat="39.4796266" lon="-0.37506175"><ele>-51.8</ele><time>2022-10-30T11:44:51.0000000+00:00</time></trkpt><trkpt lat="39.47963172" lon="-0.37506972"><ele>-51.6</ele><time>2022-10-30T11:44:52.0000000+00:00</time></trkpt><trkpt lat="39.47963951" lon="-0.37508204"><ele>-51.4</ele><time>2022-10-30T11:44:53.0000000+00:00</time></trkpt><trkpt lat="39.47964831" lon="-0.37510299"><ele>-51.4</ele><time>2022-10-30T11:44:54.0000000+00:00</time></trkpt><trkpt lat="39.47965175" lon="-0.37511439"><ele>-51.2</ele><time>2022-10-30T11:44:55.0000000+00:00</time></trkpt><trkpt lat="39.47965854" lon="-0.37512763"><ele>-51.2</ele><time>2022-10-30T11:44:56.0000000+00:00</time></trkpt><trkpt lat="39.47966424" lon="-0.37513979"><ele>-51.0</ele><time>2022-10-30T11:44:57.0000000+00:00</time></trkpt><trkpt lat="39.47966994" lon="-0.37515236"><ele>-50.8</ele><time>2022-10-30T11:44:58.0000000+00:00</time></trkpt><trkpt lat="39.47967354" lon="-0.3751599"><ele>-50.8</ele><time>2022-10-30T11:44:59.0000000+00:00</time></trkpt><trkpt lat="39.47968025" lon="-0.37516921"><ele>-50.6</ele><time>2022-10-30T11:45:00.0000000+00:00</time></trkpt><trkpt lat="39.47968897" lon="-0.37518136"><ele>-50.6</ele><time>2022-10-30T11:45:01.0000000+00:00</time></trkpt><trkpt lat="39.47969366" lon="-0.37519184"><ele>-50.4</ele><time>2022-10-30T11:45:02.0000000+00:00</time></trkpt><trkpt lat="39.4796976" lon="-0.3752014"><ele>-50.4</ele><time>2022-10-30T11:45:03.0000000+00:00</time></trkpt><trkpt lat="39.47970389" lon="-0.37521648"><ele>-50.4</ele><time>2022-10-30T11:45:04.0000000+00:00</time></trkpt><trkpt lat="39.47971369" lon="-0.37523249"><ele>-50.2</ele><time>2022-10-30T11:45:05.0000000+00:00</time></trkpt><trkpt lat="39.47972115" lon="-0.37524305"><ele>-50.0</ele><time>2022-10-30T11:45:06.0000000+00:00</time></trkpt><trkpt lat="39.47972794" lon="-0.3752532"><ele>-50.0</ele><time>2022-10-30T11:45:07.0000000+00:00</time></trkpt><trkpt lat="39.47973079" lon="-0.37526485"><ele>-49.6</ele><time>2022-10-30T11:45:08.0000000+00:00</time></trkpt><trkpt lat="39.47973666" lon="-0.37527809"><ele>-49.6</ele><time>2022-10-30T11:45:09.0000000+00:00</time></trkpt><trkpt lat="39.4797385" lon="-0.37529259"><ele>-49.4</ele><time>2022-10-30T11:45:10.0000000+00:00</time></trkpt><trkpt lat="39.47973833" lon="-0.37530349"><ele>-49.4</ele><time>2022-10-30T11:45:11.0000000+00:00</time></trkpt><trkpt lat="39.47974227" lon="-0.37530952"><ele>-49.4</ele><time>2022-10-30T11:45:12.0000000+00:00</time></trkpt><trkpt lat="39.47974781" lon="-0.37531933"><ele>-49.0</ele><time>2022-10-30T11:45:13.0000000+00:00</time></trkpt><trkpt lat="39.47975711" lon="-0.37533073"><ele>-49.0</ele><time>2022-10-30T11:45:14.0000000+00:00</time></trkpt><trkpt lat="39.47976541" lon="-0.3753376"><ele>-48.8</ele><time>2022-10-30T11:45:15.0000000+00:00</time></trkpt><trkpt lat="39.4797696" lon="-0.3753459"><ele>-48.8</ele><time>2022-10-30T11:45:16.0000000+00:00</time></trkpt><trkpt lat="39.47977102" lon="-0.37536082"><ele>-48.6</ele><time>2022-10-30T11:45:17.0000000+00:00</time></trkpt><trkpt lat="39.47977287" lon="-0.3753723"><ele>-48.6</ele><time>2022-10-30T11:45:18.0000000+00:00</time></trkpt><trkpt lat="39.47977396" lon="-0.37538672"><ele>-48.6</ele><time>2022-10-30T11:45:19.0000000+00:00</time></trkpt><trkpt lat="39.47977748" lon="-0.37539611"><ele>-48.4</ele><time>2022-10-30T11:45:20.0000000+00:00</time></trkpt><trkpt lat="39.47978033" lon="-0.37540097"><ele>-48.2</ele><time>2022-10-30T11:45:21.0000000+00:00</time></trkpt><trkpt lat="39.47978385" lon="-0.37541337"><ele>-48.0</ele><time>2022-10-30T11:45:22.0000000+00:00</time></trkpt><trkpt lat="39.47979156" lon="-0.37542486"><ele>-48.0</ele><time>2022-10-30T11:45:23.0000000+00:00</time></trkpt><trkpt lat="39.47979709" lon="-0.37543433"><ele>-47.8</ele><time>2022-10-30T11:45:24.0000000+00:00</time></trkpt><trkpt lat="39.4798038" lon="-0.37544053"><ele>-47.8</ele><time>2022-10-30T11:45:25.0000000+00:00</time></trkpt><trkpt lat="39.47981017" lon="-0.37544766"><ele>-47.6</ele><time>2022-10-30T11:45:26.0000000+00:00</time></trkpt><trkpt lat="39.47981922" lon="-0.37546031"><ele>-47.4</ele><time>2022-10-30T11:45:27.0000000+00:00</time></trkpt><trkpt lat="39.47982886" lon="-0.37547213"><ele>-47.2</ele><time>2022-10-30T11:45:28.0000000+00:00</time></trkpt><trkpt lat="39.47983582" lon="-0.37547716"><ele>-47.2</ele><time>2022-10-30T11:45:29.0000000+00:00</time></trkpt><trkpt lat="39.47984026" lon="-0.37548613"><ele>-47.0</ele><time>2022-10-30T11:45:30.0000000+00:00</time></trkpt><trkpt lat="39.47984361" lon="-0.37549401"><ele>-47.0</ele><time>2022-10-30T11:45:31.0000000+00:00</time></trkpt><trkpt lat="39.47984747" lon="-0.3755034"><ele>-46.8</ele><time>2022-10-30T11:45:32.0000000+00:00</time></trkpt><trkpt lat="39.47985015" lon="-0.3755122"><ele>-46.8</ele><time>2022-10-30T11:45:33.0000000+00:00</time></trkpt><trkpt lat="39.47985191" lon="-0.37551882"><ele>-46.6</ele><time>2022-10-30T11:45:34.0000000+00:00</time></trkpt><trkpt lat="39.47985652" lon="-0.37553399"><ele>-46.6</ele><time>2022-10-30T11:45:35.0000000+00:00</time></trkpt><trkpt lat="39.47986163" lon="-0.3755417"><ele>-46.4</ele><time>2022-10-30T11:45:36.0000000+00:00</time></trkpt><trkpt lat="39.47986566" lon="-0.37555042"><ele>-46.2</ele><time>2022-10-30T11:45:37.0000000+00:00</time></trkpt><trkpt lat="39.47987245" lon="-0.37556031"><ele>-46.0</ele><time>2022-10-30T11:45:38.0000000+00:00</time></trkpt><trkpt lat="39.47987789" lon="-0.37557112"><ele>-46.0</ele><time>2022-10-30T11:45:39.0000000+00:00</time></trkpt><trkpt lat="39.47987731" lon="-0.3755821"><ele>-45.8</ele><time>2022-10-30T11:45:40.0000000+00:00</time></trkpt><trkpt lat="39.47987479" lon="-0.37559224"><ele>-45.8</ele><time>2022-10-30T11:45:41.0000000+00:00</time></trkpt><trkpt lat="39.47987102" lon="-0.37560104"><ele>-45.6</ele><time>2022-10-30T11:45:42.0000000+00:00</time></trkpt><trkpt lat="39.47986817" lon="-0.37560616"><ele>-45.4</ele><time>2022-10-30T11:45:43.0000000+00:00</time></trkpt><trkpt lat="39.47986323" lon="-0.37561546"><ele>-45.4</ele><time>2022-10-30T11:45:44.0000000+00:00</time></trkpt><trkpt lat="39.47986054" lon="-0.37562485"><ele>-45.4</ele><time>2022-10-30T11:45:45.0000000+00:00</time></trkpt><trkpt lat="39.47985518" lon="-0.37563885"><ele>-45.4</ele><time>2022-10-30T11:45:46.0000000+00:00</time></trkpt><trkpt lat="39.47984562" lon="-0.37564899"><ele>-45.4</ele><time>2022-10-30T11:45:47.0000000+00:00</time></trkpt><trkpt lat="39.47983473" lon="-0.37565687"><ele>-45.4</ele><time>2022-10-30T11:45:48.0000000+00:00</time></trkpt><trkpt lat="39.47982551" lon="-0.37566148"><ele>-45.4</ele><time>2022-10-30T11:45:49.0000000+00:00</time></trkpt><trkpt lat="39.47981394" lon="-0.37566852"><ele>-45.4</ele><time>2022-10-30T11:45:50.0000000+00:00</time></trkpt><trkpt lat="39.47980531" lon="-0.37567355"><ele>-45.4</ele><time>2022-10-30T11:45:51.0000000+00:00</time></trkpt><trkpt lat="39.47979575" lon="-0.37567933"><ele>-45.4</ele><time>2022-10-30T11:45:52.0000000+00:00</time></trkpt><trkpt lat="39.47979022" lon="-0.37568562"><ele>-45.4</ele><time>2022-10-30T11:45:53.0000000+00:00</time></trkpt><trkpt lat="39.47977865" lon="-0.37568922"><ele>-45.4</ele><time>2022-10-30T11:45:54.0000000+00:00</time></trkpt><trkpt lat="39.47976759" lon="-0.37569576"><ele>-45.4</ele><time>2022-10-30T11:45:55.0000000+00:00</time></trkpt><trkpt lat="39.47975267" lon="-0.37570071"><ele>-45.4</ele><time>2022-10-30T11:45:56.0000000+00:00</time></trkpt><trkpt lat="39.47974579" lon="-0.37570808"><ele>-45.4</ele><time>2022-10-30T11:45:57.0000000+00:00</time></trkpt><trkpt lat="39.47974169" lon="-0.37572367"><ele>-45.4</ele><time>2022-10-30T11:45:58.0000000+00:00</time></trkpt><trkpt lat="39.47973347" lon="-0.37573524"><ele>-45.4</ele><time>2022-10-30T11:45:59.0000000+00:00</time></trkpt><trkpt lat="39.47972551" lon="-0.37574387"><ele>-45.6</ele><time>2022-10-30T11:46:00.0000000+00:00</time></trkpt><trkpt lat="39.47971788" lon="-0.37575854"><ele>-45.6</ele><time>2022-10-30T11:46:01.0000000+00:00</time></trkpt><trkpt lat="39.47970933" lon="-0.37576173"><ele>-45.6</ele><time>2022-10-30T11:46:02.0000000+00:00</time></trkpt><trkpt lat="39.47969668" lon="-0.37577178"><ele>-45.6</ele><time>2022-10-30T11:46:03.0000000+00:00</time></trkpt><trkpt lat="39.47968653" lon="-0.37578075"><ele>-45.6</ele><time>2022-10-30T11:46:04.0000000+00:00</time></trkpt><trkpt lat="39.47967094" lon="-0.37579064"><ele>-45.6</ele><time>2022-10-30T11:46:05.0000000+00:00</time></trkpt><trkpt lat="39.47966332" lon="-0.37579609"><ele>-45.6</ele><time>2022-10-30T11:46:06.0000000+00:00</time></trkpt><trkpt lat="39.47966248" lon="-0.37579173"><ele>-45.6</ele><time>2022-10-30T11:46:07.0000000+00:00</time></trkpt><trkpt lat="39.47966089" lon="-0.37579157"><ele>-45.6</ele><time>2022-10-30T11:46:08.0000000+00:00</time></trkpt><trkpt lat="39.4796598" lon="-0.37579098"><ele>-45.6</ele><time>2022-10-30T11:46:09.0000000+00:00</time></trkpt><trkpt lat="39.47965904" lon="-0.37579106"><ele>-45.6</ele><time>2022-10-30T11:46:10.0000000+00:00</time></trkpt><trkpt lat="39.47965913" lon="-0.37579148"><ele>-45.6</ele><time>2022-10-30T11:46:11.0000000+00:00</time></trkpt><trkpt lat="39.47965913" lon="-0.37579232"><ele>-45.6</ele><time>2022-10-30T11:46:12.0000000+00:00</time></trkpt><trkpt lat="39.47965921" lon="-0.37579232"><ele>-45.6</ele><time>2022-10-30T11:46:13.0000000+00:00</time></trkpt><trkpt lat="39.47965929" lon="-0.37579182"><ele>-45.6</ele><time>2022-10-30T11:46:14.0000000+00:00</time></trkpt><trkpt lat="39.47965929" lon="-0.37578343"><ele>-45.6</ele><time>2022-10-30T11:46:15.0000000+00:00</time></trkpt><trkpt lat="39.47965854" lon="-0.37579006"><ele>-45.6</ele><time>2022-10-30T11:46:16.0000000+00:00</time></trkpt><trkpt lat="39.47965561" lon="-0.37579685"><ele>-45.6</ele><time>2022-10-30T11:46:17.0000000+00:00</time></trkpt><trkpt lat="39.47965058" lon="-0.37580531"><ele>-45.6</ele><time>2022-10-30T11:46:18.0000000+00:00</time></trkpt><trkpt lat="39.47964613" lon="-0.37581302"><ele>-45.8</ele><time>2022-10-30T11:46:19.0000000+00:00</time></trkpt><trkpt lat="39.47963951" lon="-0.37581956"><ele>-45.8</ele><time>2022-10-30T11:46:20.0000000+00:00</time></trkpt><trkpt lat="39.47963214" lon="-0.37582761"><ele>-45.8</ele><time>2022-10-30T11:46:21.0000000+00:00</time></trkpt><trkpt lat="39.47962208" lon="-0.37584269"><ele>-45.8</ele><time>2022-10-30T11:46:22.0000000+00:00</time></trkpt><trkpt lat="39.47961353" lon="-0.37585191"><ele>-46.0</ele><time>2022-10-30T11:46:23.0000000+00:00</time></trkpt><trkpt lat="39.47960204" lon="-0.37586046"><ele>-46.0</ele><time>2022-10-30T11:46:24.0000000+00:00</time></trkpt><trkpt lat="39.4795909" lon="-0.37587077"><ele>-46.0</ele><time>2022-10-30T11:46:25.0000000+00:00</time></trkpt><trkpt lat="39.47958084" lon="-0.37588251"><ele>-46.0</ele><time>2022-10-30T11:46:26.0000000+00:00</time></trkpt><trkpt lat="39.47956977" lon="-0.37589483"><ele>-46.2</ele><time>2022-10-30T11:46:27.0000000+00:00</time></trkpt><trkpt lat="39.47956114" lon="-0.37590791"><ele>-46.2</ele><time>2022-10-30T11:46:28.0000000+00:00</time></trkpt><trkpt lat="39.47955603" lon="-0.37591604"><ele>-46.2</ele><time>2022-10-30T11:46:29.0000000+00:00</time></trkpt><trkpt lat="39.4795515" lon="-0.37592509"><ele>-46.2</ele><time>2022-10-30T11:46:30.0000000+00:00</time></trkpt><trkpt lat="39.47954589" lon="-0.37593523"><ele>-46.2</ele><time>2022-10-30T11:46:31.0000000+00:00</time></trkpt><trkpt lat="39.47954371" lon="-0.37594168"><ele>-46.2</ele><time>2022-10-30T11:46:32.0000000+00:00</time></trkpt><trkpt lat="39.47954237" lon="-0.37594437"><ele>-46.2</ele><time>2022-10-30T11:46:33.0000000+00:00</time></trkpt><trkpt lat="39.47954237" lon="-0.37594738"><ele>-46.2</ele><time>2022-10-30T11:46:34.0000000+00:00</time></trkpt><trkpt lat="39.47954262" lon="-0.37594973"><ele>-46.2</ele><time>2022-10-30T11:46:35.0000000+00:00</time></trkpt><trkpt lat="39.47954371" lon="-0.37595074"><ele>-46.2</ele><time>2022-10-30T11:46:36.0000000+00:00</time></trkpt><trkpt lat="39.47954312" lon="-0.37595049"><ele>-46.4</ele><time>2022-10-30T11:46:37.0000000+00:00</time></trkpt><trkpt lat="39.47954144" lon="-0.37594973"><ele>-46.4</ele><time>2022-10-30T11:46:38.0000000+00:00</time></trkpt><trkpt lat="39.47954061" lon="-0.37594965"><ele>-46.4</ele><time>2022-10-30T11:46:39.0000000+00:00</time></trkpt><trkpt lat="39.47954019" lon="-0.37595065"><ele>-46.4</ele><time>2022-10-30T11:46:40.0000000+00:00</time></trkpt><trkpt lat="39.47954069" lon="-0.37595141"><ele>-46.6</ele><time>2022-10-30T11:46:41.0000000+00:00</time></trkpt><trkpt lat="39.47954111" lon="-0.37595216"><ele>-46.6</ele><time>2022-10-30T11:46:42.0000000+00:00</time></trkpt><trkpt lat="39.47954203" lon="-0.37595308"><ele>-46.6</ele><time>2022-10-30T11:46:43.0000000+00:00</time></trkpt><trkpt lat="39.47954203" lon="-0.37595308"><ele>-46.6</ele><time>2022-10-30T11:46:44.0000000+00:00</time></trkpt><trkpt lat="39.47954203" lon="-0.37595308"><ele>-46.6</ele><time>2022-10-30T11:46:45.0000000+00:00</time></trkpt><trkpt lat="39.47954203" lon="-0.37595308"><ele>-46.6</ele><time>2022-10-30T11:46:46.0000000+00:00</time></trkpt><trkpt lat="39.47954203" lon="-0.37595308"><ele>-46.6</ele><time>2022-10-30T11:46:47.0000000+00:00</time></trkpt><trkpt lat="39.47954203" lon="-0.37595308"><ele>-46.6</ele><time>2022-10-30T11:46:48.0000000+00:00</time></trkpt><trkpt lat="39.47954203" lon="-0.37595308"><ele>-46.6</ele><time>2022-10-30T11:46:49.0000000+00:00</time></trkpt><trkpt lat="39.47954203" lon="-0.37595308"><ele>-46.6</ele><time>2022-10-30T11:46:50.0000000+00:00</time></trkpt><trkpt lat="39.47953994" lon="-0.37595434"><ele>-46.6</ele><time>2022-10-30T11:46:51.0000000+00:00</time></trkpt><trkpt lat="39.47952602" lon="-0.37595753"><ele>-46.6</ele><time>2022-10-30T11:46:52.0000000+00:00</time></trkpt><trkpt lat="39.47951655" lon="-0.37596222"><ele>-46.6</ele><time>2022-10-30T11:46:53.0000000+00:00</time></trkpt><trkpt lat="39.47950523" lon="-0.37597194"><ele>-46.6</ele><time>2022-10-30T11:46:54.0000000+00:00</time></trkpt><trkpt lat="39.47949627" lon="-0.37598762"><ele>-46.6</ele><time>2022-10-30T11:46:55.0000000+00:00</time></trkpt><trkpt lat="39.47948906" lon="-0.37600254"><ele>-46.6</ele><time>2022-10-30T11:46:56.0000000+00:00</time></trkpt><trkpt lat="39.47947925" lon="-0.37602324"><ele>-46.8</ele><time>2022-10-30T11:46:57.0000000+00:00</time></trkpt><trkpt lat="39.47946902" lon="-0.37603715"><ele>-46.8</ele><time>2022-10-30T11:46:58.0000000+00:00</time></trkpt><trkpt lat="39.47946198" lon="-0.3760514"><ele>-46.8</ele><time>2022-10-30T11:46:59.0000000+00:00</time></trkpt><trkpt lat="39.47945561" lon="-0.37606892"><ele>-47.0</ele><time>2022-10-30T11:47:00.0000000+00:00</time></trkpt><trkpt lat="39.47945092" lon="-0.37609147"><ele>-47.0</ele><time>2022-10-30T11:47:01.0000000+00:00</time></trkpt><trkpt lat="39.47944706" lon="-0.37610463"><ele>-47.0</ele><time>2022-10-30T11:47:02.0000000+00:00</time></trkpt><trkpt lat="39.47944631" lon="-0.37611192"><ele>-47.2</ele><time>2022-10-30T11:47:03.0000000+00:00</time></trkpt><trkpt lat="39.47944539" lon="-0.37612215"><ele>-47.2</ele><time>2022-10-30T11:47:04.0000000+00:00</time></trkpt><trkpt lat="39.47944589" lon="-0.37613053"><ele>-47.2</ele><time>2022-10-30T11:47:05.0000000+00:00</time></trkpt><trkpt lat="39.47944438" lon="-0.37614159"><ele>-47.2</ele><time>2022-10-30T11:47:06.0000000+00:00</time></trkpt><trkpt lat="39.47944254" lon="-0.37615601"><ele>-47.2</ele><time>2022-10-30T11:47:07.0000000+00:00</time></trkpt><trkpt lat="39.4794417" lon="-0.37616758"><ele>-47.2</ele><time>2022-10-30T11:47:08.0000000+00:00</time></trkpt><trkpt lat="39.47944371" lon="-0.37617847"><ele>-47.4</ele><time>2022-10-30T11:47:09.0000000+00:00</time></trkpt><trkpt lat="39.47943935" lon="-0.37618811"><ele>-47.4</ele><time>2022-10-30T11:47:10.0000000+00:00</time></trkpt><trkpt lat="39.47943214" lon="-0.37620027"><ele>-47.4</ele><time>2022-10-30T11:47:11.0000000+00:00</time></trkpt><trkpt lat="39.47942728" lon="-0.37621938"><ele>-47.4</ele><time>2022-10-30T11:47:12.0000000+00:00</time></trkpt><trkpt lat="39.4794251" lon="-0.3762369"><ele>-47.4</ele><time>2022-10-30T11:47:13.0000000+00:00</time></trkpt><trkpt lat="39.47941873" lon="-0.37624997"><ele>-47.4</ele><time>2022-10-30T11:47:14.0000000+00:00</time></trkpt><trkpt lat="39.47941069" lon="-0.37625701"><ele>-47.4</ele><time>2022-10-30T11:47:15.0000000+00:00</time></trkpt><trkpt lat="39.47940339" lon="-0.37626229"><ele>-47.6</ele><time>2022-10-30T11:47:16.0000000+00:00</time></trkpt><trkpt lat="39.47939543" lon="-0.37627"><ele>-47.6</ele><time>2022-10-30T11:47:17.0000000+00:00</time></trkpt><trkpt lat="39.47938386" lon="-0.37627302"><ele>-47.6</ele><time>2022-10-30T11:47:18.0000000+00:00</time></trkpt><trkpt lat="39.479378" lon="-0.37628174"><ele>-47.6</ele><time>2022-10-30T11:47:19.0000000+00:00</time></trkpt><trkpt lat="39.47936928" lon="-0.37629565"><ele>-47.6</ele><time>2022-10-30T11:47:20.0000000+00:00</time></trkpt><trkpt lat="39.47935947" lon="-0.37630864"><ele>-47.8</ele><time>2022-10-30T11:47:21.0000000+00:00</time></trkpt><trkpt lat="39.47935687" lon="-0.37631359"><ele>-47.8</ele><time>2022-10-30T11:47:22.0000000+00:00</time></trkpt><trkpt lat="39.47934648" lon="-0.37632105"><ele>-47.8</ele><time>2022-10-30T11:47:23.0000000+00:00</time></trkpt><trkpt lat="39.47933852" lon="-0.3763348"><ele>-47.8</ele><time>2022-10-30T11:47:24.0000000+00:00</time></trkpt><trkpt lat="39.47933324" lon="-0.37634796"><ele>-47.8</ele><time>2022-10-30T11:47:25.0000000+00:00</time></trkpt><trkpt lat="39.47932025" lon="-0.37635382"><ele>-48.0</ele><time>2022-10-30T11:47:26.0000000+00:00</time></trkpt><trkpt lat="39.47930415" lon="-0.3763581"><ele>-48.0</ele><time>2022-10-30T11:47:27.0000000+00:00</time></trkpt><trkpt lat="39.4792889" lon="-0.37636112"><ele>-48.0</ele><time>2022-10-30T11:47:28.0000000+00:00</time></trkpt><trkpt lat="39.47927842" lon="-0.37636623"><ele>-48.2</ele><time>2022-10-30T11:47:29.0000000+00:00</time></trkpt><trkpt lat="39.47926652" lon="-0.37636958"><ele>-48.2</ele><time>2022-10-30T11:47:30.0000000+00:00</time></trkpt><trkpt lat="39.47925923" lon="-0.37637067"><ele>-48.2</ele><time>2022-10-30T11:47:31.0000000+00:00</time></trkpt><trkpt lat="39.47925654" lon="-0.37637251"><ele>-48.2</ele><time>2022-10-30T11:47:32.0000000+00:00</time></trkpt><trkpt lat="39.47925587" lon="-0.37637763"><ele>-48.2</ele><time>2022-10-30T11:47:33.0000000+00:00</time></trkpt><trkpt lat="39.47925135" lon="-0.3763814"><ele>-48.2</ele><time>2022-10-30T11:47:34.0000000+00:00</time></trkpt><trkpt lat="39.47924799" lon="-0.37638308"><ele>-48.2</ele><time>2022-10-30T11:47:35.0000000+00:00</time></trkpt><trkpt lat="39.47924238" lon="-0.37638576"><ele>-48.4</ele><time>2022-10-30T11:47:36.0000000+00:00</time></trkpt><trkpt lat="39.47923743" lon="-0.37639112"><ele>-48.4</ele><time>2022-10-30T11:47:37.0000000+00:00</time></trkpt><trkpt lat="39.47922989" lon="-0.37640319"><ele>-48.4</ele><time>2022-10-30T11:47:38.0000000+00:00</time></trkpt><trkpt lat="39.47922536" lon="-0.37640822"><ele>-48.4</ele><time>2022-10-30T11:47:39.0000000+00:00</time></trkpt><trkpt lat="39.4792283" lon="-0.37641233"><ele>-48.4</ele><time>2022-10-30T11:47:40.0000000+00:00</time></trkpt><trkpt lat="39.47922729" lon="-0.3764135"><ele>-48.4</ele><time>2022-10-30T11:47:41.0000000+00:00</time></trkpt><trkpt lat="39.47923467" lon="-0.37640872"><ele>-48.4</ele><time>2022-10-30T11:47:42.0000000+00:00</time></trkpt><trkpt lat="39.47923232" lon="-0.37640671"><ele>-48.4</ele><time>2022-10-30T11:47:43.0000000+00:00</time></trkpt><trkpt lat="39.47922126" lon="-0.37641409"><ele>-48.4</ele><time>2022-10-30T11:47:44.0000000+00:00</time></trkpt><trkpt lat="39.47921103" lon="-0.37641828"><ele>-48.4</ele><time>2022-10-30T11:47:45.0000000+00:00</time></trkpt><trkpt lat="39.47920416" lon="-0.37641627"><ele>-48.4</ele><time>2022-10-30T11:47:46.0000000+00:00</time></trkpt><trkpt lat="39.47920047" lon="-0.37640914"><ele>-48.4</ele><time>2022-10-30T11:47:47.0000000+00:00</time></trkpt><trkpt lat="39.47919846" lon="-0.3763954"><ele>-48.4</ele><time>2022-10-30T11:47:48.0000000+00:00</time></trkpt><trkpt lat="39.47919653" lon="-0.37637981"><ele>-48.4</ele><time>2022-10-30T11:47:49.0000000+00:00</time></trkpt><trkpt lat="39.47919351" lon="-0.37637444"><ele>-48.4</ele><time>2022-10-30T11:47:50.0000000+00:00</time></trkpt><trkpt lat="39.47918739" lon="-0.37636732"><ele>-48.2</ele><time>2022-10-30T11:47:51.0000000+00:00</time></trkpt><trkpt lat="39.47917499" lon="-0.37636707"><ele>-48.2</ele><time>2022-10-30T11:47:52.0000000+00:00</time></trkpt><trkpt lat="39.47916359" lon="-0.37636648"><ele>-48.2</ele><time>2022-10-30T11:47:53.0000000+00:00</time></trkpt><trkpt lat="39.47915294" lon="-0.37635969"><ele>-48.0</ele><time>2022-10-30T11:47:54.0000000+00:00</time></trkpt><trkpt lat="39.47913735" lon="-0.37635525"><ele>-48.0</ele><time>2022-10-30T11:47:55.0000000+00:00</time></trkpt><trkpt lat="39.47912872" lon="-0.37634837"><ele>-48.0</ele><time>2022-10-30T11:47:56.0000000+00:00</time></trkpt><trkpt lat="39.47914406" lon="-0.37631988"><ele>-48.0</ele><time>2022-10-30T11:47:57.0000000+00:00</time></trkpt><trkpt lat="39.47915043" lon="-0.37630496"><ele>-48.0</ele><time>2022-10-30T11:47:58.0000000+00:00</time></trkpt><trkpt lat="39.47916141" lon="-0.37628559"><ele>-48.0</ele><time>2022-10-30T11:47:59.0000000+00:00</time></trkpt><trkpt lat="39.47916895" lon="-0.37626296"><ele>-48.0</ele><time>2022-10-30T11:48:00.0000000+00:00</time></trkpt><trkpt lat="39.47917532" lon="-0.37623153"><ele>-48.0</ele><time>2022-10-30T11:48:01.0000000+00:00</time></trkpt><trkpt lat="39.47917515" lon="-0.3762172"><ele>-47.8</ele><time>2022-10-30T11:48:02.0000000+00:00</time></trkpt><trkpt lat="39.4791744" lon="-0.37621561"><ele>-47.8</ele><time>2022-10-30T11:48:03.0000000+00:00</time></trkpt><trkpt lat="39.47917532" lon="-0.37621745"><ele>-47.8</ele><time>2022-10-30T11:48:04.0000000+00:00</time></trkpt><trkpt lat="39.47916308" lon="-0.37622642"><ele>-47.8</ele><time>2022-10-30T11:48:05.0000000+00:00</time></trkpt><trkpt lat="39.47915428" lon="-0.37622617"><ele>-47.8</ele><time>2022-10-30T11:48:06.0000000+00:00</time></trkpt><trkpt lat="39.47914892" lon="-0.37622533"><ele>-47.8</ele><time>2022-10-30T11:48:07.0000000+00:00</time></trkpt><trkpt lat="39.47914951" lon="-0.37620907"><ele>-47.8</ele><time>2022-10-30T11:48:08.0000000+00:00</time></trkpt><trkpt lat="39.47914431" lon="-0.37619784"><ele>-47.8</ele><time>2022-10-30T11:48:09.0000000+00:00</time></trkpt><trkpt lat="39.47914012" lon="-0.37618375"><ele>-47.8</ele><time>2022-10-30T11:48:10.0000000+00:00</time></trkpt><trkpt lat="39.47913249" lon="-0.37617085"><ele>-47.8</ele><time>2022-10-30T11:48:11.0000000+00:00</time></trkpt><trkpt lat="39.47912495" lon="-0.37617068"><ele>-47.8</ele><time>2022-10-30T11:48:12.0000000+00:00</time></trkpt><trkpt lat="39.47911682" lon="-0.37616682"><ele>-47.8</ele><time>2022-10-30T11:48:13.0000000+00:00</time></trkpt><trkpt lat="39.47910508" lon="-0.37616431"><ele>-47.8</ele><time>2022-10-30T11:48:14.0000000+00:00</time></trkpt><trkpt lat="39.47909159" lon="-0.37615785"><ele>-47.8</ele><time>2022-10-30T11:48:15.0000000+00:00</time></trkpt><trkpt lat="39.47907968" lon="-0.37615106"><ele>-47.6</ele><time>2022-10-30T11:48:16.0000000+00:00</time></trkpt><trkpt lat="39.47906845" lon="-0.37614453"><ele>-47.6</ele><time>2022-10-30T11:48:17.0000000+00:00</time></trkpt><trkpt lat="39.47905437" lon="-0.37614143"><ele>-47.6</ele><time>2022-10-30T11:48:18.0000000+00:00</time></trkpt><trkpt lat="39.47903333" lon="-0.37612349"><ele>-47.6</ele><time>2022-10-30T11:48:19.0000000+00:00</time></trkpt><trkpt lat="39.47901146" lon="-0.3761079"><ele>-47.8</ele><time>2022-10-30T11:48:20.0000000+00:00</time></trkpt><trkpt lat="39.47898111" lon="-0.37607973"><ele>-47.8</ele><time>2022-10-30T11:48:21.0000000+00:00</time></trkpt><trkpt lat="39.47895153" lon="-0.37605006"><ele>-47.8</ele><time>2022-10-30T11:48:22.0000000+00:00</time></trkpt><trkpt lat="39.47893384" lon="-0.37603648"><ele>-47.8</ele><time>2022-10-30T11:48:23.0000000+00:00</time></trkpt><trkpt lat="39.47891951" lon="-0.37603623"><ele>-48.0</ele><time>2022-10-30T11:48:24.0000000+00:00</time></trkpt><trkpt lat="39.47891657" lon="-0.37604679"><ele>-48.0</ele><time>2022-10-30T11:48:25.0000000+00:00</time></trkpt><trkpt lat="39.47891515" lon="-0.37606222"><ele>-48.0</ele><time>2022-10-30T11:48:26.0000000+00:00</time></trkpt><trkpt lat="39.47890576" lon="-0.37607404"><ele>-48.0</ele><time>2022-10-30T11:48:27.0000000+00:00</time></trkpt><trkpt lat="39.47888657" lon="-0.37607521"><ele>-48.0</ele><time>2022-10-30T11:48:28.0000000+00:00</time></trkpt><trkpt lat="39.47886502" lon="-0.37607395"><ele>-48.0</ele><time>2022-10-30T11:48:29.0000000+00:00</time></trkpt><trkpt lat="39.47885388" lon="-0.37608476"><ele>-48.0</ele><time>2022-10-30T11:48:30.0000000+00:00</time></trkpt><trkpt lat="39.47883527" lon="-0.37608954"><ele>-48.0</ele><time>2022-10-30T11:48:31.0000000+00:00</time></trkpt><trkpt lat="39.47881716" lon="-0.37608904"><ele>-48.0</ele><time>2022-10-30T11:48:32.0000000+00:00</time></trkpt><trkpt lat="39.4787978" lon="-0.37608837"><ele>-47.8</ele><time>2022-10-30T11:48:33.0000000+00:00</time></trkpt><trkpt lat="39.47877584" lon="-0.37609331"><ele>-47.8</ele><time>2022-10-30T11:48:34.0000000+00:00</time></trkpt><trkpt lat="39.47876721" lon="-0.37611645"><ele>-47.8</ele><time>2022-10-30T11:48:35.0000000+00:00</time></trkpt><trkpt lat="39.47876528" lon="-0.37614361"><ele>-47.6</ele><time>2022-10-30T11:48:36.0000000+00:00</time></trkpt><trkpt lat="39.47876461" lon="-0.37616515"><ele>-47.6</ele><time>2022-10-30T11:48:37.0000000+00:00</time></trkpt><trkpt lat="39.47876503" lon="-0.37618476"><ele>-47.6</ele><time>2022-10-30T11:48:38.0000000+00:00</time></trkpt><trkpt lat="39.4787688" lon="-0.37621452"><ele>-47.4</ele><time>2022-10-30T11:48:39.0000000+00:00</time></trkpt><trkpt lat="39.4787724" lon="-0.37623748"><ele>-47.6</ele><time>2022-10-30T11:48:40.0000000+00:00</time></trkpt><trkpt lat="39.47876654" lon="-0.37624343"><ele>-47.6</ele><time>2022-10-30T11:48:41.0000000+00:00</time></trkpt><trkpt lat="39.47875254" lon="-0.37623899"><ele>-47.8</ele><time>2022-10-30T11:48:42.0000000+00:00</time></trkpt><trkpt lat="39.47873678" lon="-0.37623078"><ele>-47.8</ele><time>2022-10-30T11:48:43.0000000+00:00</time></trkpt><trkpt lat="39.47872077" lon="-0.37621846"><ele>-47.8</ele><time>2022-10-30T11:48:44.0000000+00:00</time></trkpt><trkpt lat="39.47870795" lon="-0.37621116"><ele>-47.8</ele><time>2022-10-30T11:48:45.0000000+00:00</time></trkpt><trkpt lat="39.47869957" lon="-0.37620991"><ele>-47.8</ele><time>2022-10-30T11:48:46.0000000+00:00</time></trkpt><trkpt lat="39.47869454" lon="-0.37621242"><ele>-47.8</ele><time>2022-10-30T11:48:47.0000000+00:00</time></trkpt><trkpt lat="39.4786859" lon="-0.37621678"><ele>-47.8</ele><time>2022-10-30T11:48:48.0000000+00:00</time></trkpt><trkpt lat="39.47867886" lon="-0.37622164"><ele>-47.8</ele><time>2022-10-30T11:48:49.0000000+00:00</time></trkpt><trkpt lat="39.47867014" lon="-0.37622114"><ele>-47.8</ele><time>2022-10-30T11:48:50.0000000+00:00</time></trkpt><trkpt lat="39.47865615" lon="-0.3762239"><ele>-47.8</ele><time>2022-10-30T11:48:51.0000000+00:00</time></trkpt><trkpt lat="39.47864542" lon="-0.37621854"><ele>-47.8</ele><time>2022-10-30T11:48:52.0000000+00:00</time></trkpt><trkpt lat="39.47864198" lon="-0.37622172"><ele>-47.8</ele><time>2022-10-30T11:48:53.0000000+00:00</time></trkpt><trkpt lat="39.47863586" lon="-0.37622424"><ele>-47.8</ele><time>2022-10-30T11:48:54.0000000+00:00</time></trkpt><trkpt lat="39.47863687" lon="-0.37622751"><ele>-47.8</ele><time>2022-10-30T11:48:55.0000000+00:00</time></trkpt><trkpt lat="39.47863905" lon="-0.3762322"><ele>-47.8</ele><time>2022-10-30T11:48:56.0000000+00:00</time></trkpt><trkpt lat="39.4786398" lon="-0.3762327"><ele>-47.8</ele><time>2022-10-30T11:48:57.0000000+00:00</time></trkpt><trkpt lat="39.47863989" lon="-0.37623262"><ele>-47.8</ele><time>2022-10-30T11:48:58.0000000+00:00</time></trkpt><trkpt lat="39.47864869" lon="-0.37625182"><ele>-47.8</ele><time>2022-10-30T11:48:59.0000000+00:00</time></trkpt><trkpt lat="39.47865581" lon="-0.37626933"><ele>-47.8</ele><time>2022-10-30T11:49:00.0000000+00:00</time></trkpt><trkpt lat="39.47865397" lon="-0.37627101"><ele>-47.8</ele><time>2022-10-30T11:49:01.0000000+00:00</time></trkpt><trkpt lat="39.47864567" lon="-0.37626397"><ele>-47.8</ele><time>2022-10-30T11:49:02.0000000+00:00</time></trkpt><trkpt lat="39.47863687" lon="-0.37626145"><ele>-47.8</ele><time>2022-10-30T11:49:03.0000000+00:00</time></trkpt><trkpt lat="39.47862782" lon="-0.37626565"><ele>-47.8</ele><time>2022-10-30T11:49:04.0000000+00:00</time></trkpt><trkpt lat="39.4786196" lon="-0.37626766"><ele>-47.8</ele><time>2022-10-30T11:49:05.0000000+00:00</time></trkpt><trkpt lat="39.47861533" lon="-0.37627411"><ele>-47.8</ele><time>2022-10-30T11:49:06.0000000+00:00</time></trkpt><trkpt lat="39.4786046" lon="-0.37626866"><ele>-47.8</ele><time>2022-10-30T11:49:07.0000000+00:00</time></trkpt><trkpt lat="39.47858758" lon="-0.37626782"><ele>-47.8</ele><time>2022-10-30T11:49:08.0000000+00:00</time></trkpt><trkpt lat="39.47857451" lon="-0.37626539"><ele>-47.8</ele><time>2022-10-30T11:49:09.0000000+00:00</time></trkpt><trkpt lat="39.47856629" lon="-0.3762726"><ele>-47.8</ele><time>2022-10-30T11:49:10.0000000+00:00</time></trkpt><trkpt lat="39.47854919" lon="-0.37627109"><ele>-47.8</ele><time>2022-10-30T11:49:11.0000000+00:00</time></trkpt><trkpt lat="39.47854584" lon="-0.3762545"><ele>-47.8</ele><time>2022-10-30T11:49:12.0000000+00:00</time></trkpt><trkpt lat="39.47854073" lon="-0.37625877"><ele>-47.8</ele><time>2022-10-30T11:49:13.0000000+00:00</time></trkpt><trkpt lat="39.47852925" lon="-0.37628794"><ele>-47.8</ele><time>2022-10-30T11:49:14.0000000+00:00</time></trkpt><trkpt lat="39.47851759" lon="-0.37631594"><ele>-47.8</ele><time>2022-10-30T11:49:15.0000000+00:00</time></trkpt><trkpt lat="39.47851148" lon="-0.37633681"><ele>-47.8</ele><time>2022-10-30T11:49:16.0000000+00:00</time></trkpt><trkpt lat="39.4784963" lon="-0.37632415"><ele>-47.8</ele><time>2022-10-30T11:49:17.0000000+00:00</time></trkpt><trkpt lat="39.47849496" lon="-0.37632021"><ele>-47.8</ele><time>2022-10-30T11:49:18.0000000+00:00</time></trkpt><trkpt lat="39.4784891" lon="-0.37631904"><ele>-47.8</ele><time>2022-10-30T11:49:19.0000000+00:00</time></trkpt><trkpt lat="39.47847233" lon="-0.37632926"><ele>-47.8</ele><time>2022-10-30T11:49:20.0000000+00:00</time></trkpt><trkpt lat="39.47845792" lon="-0.37636355"><ele>-47.8</ele><time>2022-10-30T11:49:21.0000000+00:00</time></trkpt><trkpt lat="39.47844383" lon="-0.37639045"><ele>-47.8</ele><time>2022-10-30T11:49:22.0000000+00:00</time></trkpt><trkpt lat="39.47842816" lon="-0.37640872"><ele>-47.8</ele><time>2022-10-30T11:49:23.0000000+00:00</time></trkpt><trkpt lat="39.47840117" lon="-0.37641434"><ele>-47.6</ele><time>2022-10-30T11:49:24.0000000+00:00</time></trkpt><trkpt lat="39.47838516" lon="-0.37642691"><ele>-47.8</ele><time>2022-10-30T11:49:25.0000000+00:00</time></trkpt><trkpt lat="39.47836915" lon="-0.37643689"><ele>-47.8</ele><time>2022-10-30T11:49:26.0000000+00:00</time></trkpt><trkpt lat="39.47835582" lon="-0.376442"><ele>-47.8</ele><time>2022-10-30T11:49:27.0000000+00:00</time></trkpt><trkpt lat="39.47834677" lon="-0.37644234"><ele>-47.8</ele><time>2022-10-30T11:49:28.0000000+00:00</time></trkpt><trkpt lat="39.4783394" lon="-0.3764529"><ele>-47.8</ele><time>2022-10-30T11:49:29.0000000+00:00</time></trkpt><trkpt lat="39.47832456" lon="-0.37645801"><ele>-47.6</ele><time>2022-10-30T11:49:30.0000000+00:00</time></trkpt><trkpt lat="39.47831475" lon="-0.37645734"><ele>-47.6</ele><time>2022-10-30T11:49:31.0000000+00:00</time></trkpt><trkpt lat="39.47830578" lon="-0.37646203"><ele>-47.6</ele><time>2022-10-30T11:49:32.0000000+00:00</time></trkpt><trkpt lat="39.4782979" lon="-0.37646555"><ele>-47.6</ele><time>2022-10-30T11:49:33.0000000+00:00</time></trkpt><trkpt lat="39.47830067" lon="-0.37648005"><ele>-47.6</ele><time>2022-10-30T11:49:34.0000000+00:00</time></trkpt><trkpt lat="39.47829556" lon="-0.37648567"><ele>-47.6</ele><time>2022-10-30T11:49:35.0000000+00:00</time></trkpt><trkpt lat="39.47828944" lon="-0.37649112"><ele>-47.6</ele><time>2022-10-30T11:49:36.0000000+00:00</time></trkpt><trkpt lat="39.47827552" lon="-0.37648123"><ele>-47.6</ele><time>2022-10-30T11:49:37.0000000+00:00</time></trkpt><trkpt lat="39.47825273" lon="-0.37646002"><ele>-47.6</ele><time>2022-10-30T11:49:38.0000000+00:00</time></trkpt><trkpt lat="39.47823454" lon="-0.37644745"><ele>-47.6</ele><time>2022-10-30T11:49:39.0000000+00:00</time></trkpt><trkpt lat="39.47822054" lon="-0.37646044"><ele>-47.6</ele><time>2022-10-30T11:49:40.0000000+00:00</time></trkpt><trkpt lat="39.47821107" lon="-0.37647419"><ele>-47.6</ele><time>2022-10-30T11:49:41.0000000+00:00</time></trkpt><trkpt lat="39.47820889" lon="-0.37647477"><ele>-47.6</ele><time>2022-10-30T11:49:42.0000000+00:00</time></trkpt><trkpt lat="39.47820151" lon="-0.37648223"><ele>-47.6</ele><time>2022-10-30T11:49:43.0000000+00:00</time></trkpt><trkpt lat="39.47819539" lon="-0.37649296"><ele>-47.6</ele><time>2022-10-30T11:49:44.0000000+00:00</time></trkpt><trkpt lat="39.47819011" lon="-0.37650654"><ele>-47.6</ele><time>2022-10-30T11:49:45.0000000+00:00</time></trkpt><trkpt lat="39.47818508" lon="-0.37651107"><ele>-47.4</ele><time>2022-10-30T11:49:46.0000000+00:00</time></trkpt><trkpt lat="39.47817771" lon="-0.37650931"><ele>-47.4</ele><time>2022-10-30T11:49:47.0000000+00:00</time></trkpt><trkpt lat="39.47817151" lon="-0.37651174"><ele>-47.4</ele><time>2022-10-30T11:49:48.0000000+00:00</time></trkpt><trkpt lat="39.47816807" lon="-0.37650964"><ele>-47.4</ele><time>2022-10-30T11:49:49.0000000+00:00</time></trkpt><trkpt lat="39.47816027" lon="-0.37650252"><ele>-47.4</ele><time>2022-10-30T11:49:50.0000000+00:00</time></trkpt><trkpt lat="39.47815399" lon="-0.37649682"><ele>-47.4</ele><time>2022-10-30T11:49:51.0000000+00:00</time></trkpt><trkpt lat="39.47814954" lon="-0.37649254"><ele>-47.4</ele><time>2022-10-30T11:49:52.0000000+00:00</time></trkpt><trkpt lat="39.47814954" lon="-0.37650855"><ele>-47.4</ele><time>2022-10-30T11:49:53.0000000+00:00</time></trkpt><trkpt lat="39.47813546" lon="-0.37653571"><ele>-47.4</ele><time>2022-10-30T11:49:54.0000000+00:00</time></trkpt><trkpt lat="39.47812943" lon="-0.37653814"><ele>-47.4</ele><time>2022-10-30T11:49:55.0000000+00:00</time></trkpt><trkpt lat="39.47811996" lon="-0.37654803"><ele>-47.4</ele><time>2022-10-30T11:49:56.0000000+00:00</time></trkpt><trkpt lat="39.47810805" lon="-0.37655574"><ele>-47.4</ele><time>2022-10-30T11:49:57.0000000+00:00</time></trkpt><trkpt lat="39.47809297" lon="-0.37655801"><ele>-47.4</ele><time>2022-10-30T11:49:58.0000000+00:00</time></trkpt><trkpt lat="39.47807763" lon="-0.37656337"><ele>-47.2</ele><time>2022-10-30T11:49:59.0000000+00:00</time></trkpt><trkpt lat="39.4780669" lon="-0.37657511"><ele>-47.2</ele><time>2022-10-30T11:50:00.0000000+00:00</time></trkpt><trkpt lat="39.47805692" lon="-0.3765793"><ele>-47.2</ele><time>2022-10-30T11:50:01.0000000+00:00</time></trkpt><trkpt lat="39.4780493" lon="-0.37658625"><ele>-47.2</ele><time>2022-10-30T11:50:02.0000000+00:00</time></trkpt><trkpt lat="39.47804075" lon="-0.37659187"><ele>-47.2</ele><time>2022-10-30T11:50:03.0000000+00:00</time></trkpt><trkpt lat="39.47802315" lon="-0.37663529"><ele>-47.2</ele><time>2022-10-30T11:50:04.0000000+00:00</time></trkpt><trkpt lat="39.47801845" lon="-0.37665071"><ele>-47.2</ele><time>2022-10-30T11:50:05.0000000+00:00</time></trkpt><trkpt lat="39.47801258" lon="-0.37666161"><ele>-47.2</ele><time>2022-10-30T11:50:06.0000000+00:00</time></trkpt><trkpt lat="39.47801267" lon="-0.37665281"><ele>-47.2</ele><time>2022-10-30T11:50:07.0000000+00:00</time></trkpt><trkpt lat="39.47800848" lon="-0.37663302"><ele>-47.2</ele><time>2022-10-30T11:50:08.0000000+00:00</time></trkpt><trkpt lat="39.47799808" lon="-0.37662171"><ele>-47.2</ele><time>2022-10-30T11:50:09.0000000+00:00</time></trkpt><trkpt lat="39.47799247" lon="-0.37662162"><ele>-47.2</ele><time>2022-10-30T11:50:10.0000000+00:00</time></trkpt><trkpt lat="39.47798291" lon="-0.37661115"><ele>-47.2</ele><time>2022-10-30T11:50:11.0000000+00:00</time></trkpt><trkpt lat="39.47797344" lon="-0.37661048"><ele>-47.2</ele><time>2022-10-30T11:50:12.0000000+00:00</time></trkpt><trkpt lat="39.4779602" lon="-0.37661492"><ele>-47.2</ele><time>2022-10-30T11:50:13.0000000+00:00</time></trkpt><trkpt lat="39.47794779" lon="-0.37663219"><ele>-47.2</ele><time>2022-10-30T11:50:14.0000000+00:00</time></trkpt><trkpt lat="39.47793866" lon="-0.37664032"><ele>-47.2</ele><time>2022-10-30T11:50:15.0000000+00:00</time></trkpt><trkpt lat="39.47792751" lon="-0.37664325"><ele>-47.2</ele><time>2022-10-30T11:50:16.0000000+00:00</time></trkpt><trkpt lat="39.47791426" lon="-0.37663965"><ele>-47.2</ele><time>2022-10-30T11:50:17.0000000+00:00</time></trkpt><trkpt lat="39.47790144" lon="-0.37664241"><ele>-47.2</ele><time>2022-10-30T11:50:18.0000000+00:00</time></trkpt><trkpt lat="39.47788853" lon="-0.37664602"><ele>-47.2</ele><time>2022-10-30T11:50:19.0000000+00:00</time></trkpt><trkpt lat="39.47787629" lon="-0.37666597"><ele>-47.2</ele><time>2022-10-30T11:50:20.0000000+00:00</time></trkpt><trkpt lat="39.47785232" lon="-0.37669237"><ele>-47.2</ele><time>2022-10-30T11:50:21.0000000+00:00</time></trkpt><trkpt lat="39.47784101" lon="-0.37669706"><ele>-47.2</ele><time>2022-10-30T11:50:22.0000000+00:00</time></trkpt><trkpt lat="39.47782525" lon="-0.37670293"><ele>-47.2</ele><time>2022-10-30T11:50:23.0000000+00:00</time></trkpt><trkpt lat="39.47780991" lon="-0.37670109"><ele>-47.0</ele><time>2022-10-30T11:50:24.0000000+00:00</time></trkpt><trkpt lat="39.47779742" lon="-0.3766974"><ele>-47.0</ele><time>2022-10-30T11:50:25.0000000+00:00</time></trkpt><trkpt lat="39.47778954" lon="-0.37670092"><ele>-47.0</ele><time>2022-10-30T11:50:26.0000000+00:00</time></trkpt><trkpt lat="39.47778292" lon="-0.37670167"><ele>-47.0</ele><time>2022-10-30T11:50:27.0000000+00:00</time></trkpt><trkpt lat="39.47774747" lon="-0.37667083"><ele>-47.0</ele><time>2022-10-30T11:50:28.0000000+00:00</time></trkpt><trkpt lat="39.4777364" lon="-0.3766694"><ele>-47.0</ele><time>2022-10-30T11:50:29.0000000+00:00</time></trkpt><trkpt lat="39.47772852" lon="-0.37666638"><ele>-47.0</ele><time>2022-10-30T11:50:30.0000000+00:00</time></trkpt><trkpt lat="39.47773129" lon="-0.37666965"><ele>-47.0</ele><time>2022-10-30T11:50:31.0000000+00:00</time></trkpt><trkpt lat="39.47772995" lon="-0.37667116"><ele>-47.0</ele><time>2022-10-30T11:50:32.0000000+00:00</time></trkpt><trkpt lat="39.47772777" lon="-0.37667074"><ele>-47.0</ele><time>2022-10-30T11:50:33.0000000+00:00</time></trkpt><trkpt lat="39.47772534" lon="-0.37667116"><ele>-47.0</ele><time>2022-10-30T11:50:34.0000000+00:00</time></trkpt><trkpt lat="39.47772232" lon="-0.37667091"><ele>-47.0</ele><time>2022-10-30T11:50:35.0000000+00:00</time></trkpt><trkpt lat="39.47771779" lon="-0.37666882"><ele>-47.0</ele><time>2022-10-30T11:50:36.0000000+00:00</time></trkpt><trkpt lat="39.47770212" lon="-0.37667099"><ele>-47.0</ele><time>2022-10-30T11:50:37.0000000+00:00</time></trkpt><trkpt lat="39.47768896" lon="-0.37666756"><ele>-47.0</ele><time>2022-10-30T11:50:38.0000000+00:00</time></trkpt><trkpt lat="39.47768133" lon="-0.37666521"><ele>-47.0</ele><time>2022-10-30T11:50:39.0000000+00:00</time></trkpt><trkpt lat="39.47766474" lon="-0.37666001"><ele>-47.0</ele><time>2022-10-30T11:50:40.0000000+00:00</time></trkpt><trkpt lat="39.47761931" lon="-0.37662498"><ele>-47.0</ele><time>2022-10-30T11:50:41.0000000+00:00</time></trkpt><trkpt lat="39.47757899" lon="-0.37660453"><ele>-47.0</ele><time>2022-10-30T11:50:42.0000000+00:00</time></trkpt><trkpt lat="39.47754328" lon="-0.37657963"><ele>-46.8</ele><time>2022-10-30T11:50:43.0000000+00:00</time></trkpt><trkpt lat="39.47752216" lon="-0.37661517"><ele>-46.8</ele><time>2022-10-30T11:50:44.0000000+00:00</time></trkpt><trkpt lat="39.47753104" lon="-0.37660972"><ele>-46.8</ele><time>2022-10-30T11:50:45.0000000+00:00</time></trkpt><trkpt lat="39.47753255" lon="-0.37662104"><ele>-46.8</ele><time>2022-10-30T11:50:46.0000000+00:00</time></trkpt><trkpt lat="39.4775292" lon="-0.37667368"><ele>-46.8</ele><time>2022-10-30T11:50:47.0000000+00:00</time></trkpt><trkpt lat="39.47752375" lon="-0.37671483"><ele>-46.8</ele><time>2022-10-30T11:50:48.0000000+00:00</time></trkpt><trkpt lat="39.47750883" lon="-0.37673134"><ele>-46.8</ele><time>2022-10-30T11:50:49.0000000+00:00</time></trkpt><trkpt lat="39.47750749" lon="-0.37673495"><ele>-46.8</ele><time>2022-10-30T11:50:50.0000000+00:00</time></trkpt><trkpt lat="39.47750548" lon="-0.37673662"><ele>-46.8</ele><time>2022-10-30T11:50:51.0000000+00:00</time></trkpt><trkpt lat="39.47750213" lon="-0.37674308"><ele>-46.8</ele><time>2022-10-30T11:50:52.0000000+00:00</time></trkpt><trkpt lat="39.47750028" lon="-0.37675423"><ele>-46.8</ele><time>2022-10-30T11:50:53.0000000+00:00</time></trkpt><trkpt lat="39.47750162" lon="-0.37676889"><ele>-46.8</ele><time>2022-10-30T11:50:54.0000000+00:00</time></trkpt><trkpt lat="39.47750162" lon="-0.37677795"><ele>-46.8</ele><time>2022-10-30T11:50:55.0000000+00:00</time></trkpt><trkpt lat="39.47748545" lon="-0.37680326"><ele>-46.8</ele><time>2022-10-30T11:50:56.0000000+00:00</time></trkpt><trkpt lat="39.47747748" lon="-0.3768352"><ele>-46.8</ele><time>2022-10-30T11:50:57.0000000+00:00</time></trkpt><trkpt lat="39.47747489" lon="-0.37691851"><ele>-46.8</ele><time>2022-10-30T11:50:58.0000000+00:00</time></trkpt><trkpt lat="39.4774753" lon="-0.37695975"><ele>-46.8</ele><time>2022-10-30T11:50:59.0000000+00:00</time></trkpt><trkpt lat="39.47747656" lon="-0.37696897"><ele>-46.8</ele><time>2022-10-30T11:51:00.0000000+00:00</time></trkpt><trkpt lat="39.47747547" lon="-0.37695791"><ele>-46.8</ele><time>2022-10-30T11:51:01.0000000+00:00</time></trkpt><trkpt lat="39.47747245" lon="-0.37694508"><ele>-46.8</ele><time>2022-10-30T11:51:02.0000000+00:00</time></trkpt><trkpt lat="39.47746927" lon="-0.37693796"><ele>-46.8</ele><time>2022-10-30T11:51:03.0000000+00:00</time></trkpt><trkpt lat="39.47747002" lon="-0.37692664"><ele>-46.8</ele><time>2022-10-30T11:51:04.0000000+00:00</time></trkpt><trkpt lat="39.47746793" lon="-0.37692564"><ele>-46.6</ele><time>2022-10-30T11:51:05.0000000+00:00</time></trkpt><trkpt lat="39.47745594" lon="-0.3769274"><ele>-46.6</ele><time>2022-10-30T11:51:06.0000000+00:00</time></trkpt><trkpt lat="39.47745041" lon="-0.37692136"><ele>-46.6</ele><time>2022-10-30T11:51:07.0000000+00:00</time></trkpt><trkpt lat="39.47745435" lon="-0.37686948"><ele>-46.6</ele><time>2022-10-30T11:51:08.0000000+00:00</time></trkpt><trkpt lat="39.47744538" lon="-0.37684752"><ele>-46.6</ele><time>2022-10-30T11:51:09.0000000+00:00</time></trkpt><trkpt lat="39.47743742" lon="-0.37683385"><ele>-46.6</ele><time>2022-10-30T11:51:10.0000000+00:00</time></trkpt><trkpt lat="39.47742635" lon="-0.37682606"><ele>-46.6</ele><time>2022-10-30T11:51:11.0000000+00:00</time></trkpt><trkpt lat="39.47741739" lon="-0.37681793"><ele>-46.6</ele><time>2022-10-30T11:51:12.0000000+00:00</time></trkpt><trkpt lat="39.47740071" lon="-0.37682296"><ele>-46.6</ele><time>2022-10-30T11:51:13.0000000+00:00</time></trkpt><trkpt lat="39.47738629" lon="-0.37683654"><ele>-46.6</ele><time>2022-10-30T11:51:14.0000000+00:00</time></trkpt><trkpt lat="39.47737087" lon="-0.37684316"><ele>-46.6</ele><time>2022-10-30T11:51:15.0000000+00:00</time></trkpt><trkpt lat="39.47736408" lon="-0.37684718"><ele>-46.6</ele><time>2022-10-30T11:51:16.0000000+00:00</time></trkpt><trkpt lat="39.4773562" lon="-0.37685062"><ele>-46.6</ele><time>2022-10-30T11:51:17.0000000+00:00</time></trkpt><trkpt lat="39.4773474" lon="-0.37685364"><ele>-46.6</ele><time>2022-10-30T11:51:18.0000000+00:00</time></trkpt><trkpt lat="39.47733013" lon="-0.37686001"><ele>-46.6</ele><time>2022-10-30T11:51:19.0000000+00:00</time></trkpt><trkpt lat="39.47731387" lon="-0.37686587"><ele>-46.6</ele><time>2022-10-30T11:51:20.0000000+00:00</time></trkpt><trkpt lat="39.47730599" lon="-0.37687669"><ele>-46.6</ele><time>2022-10-30T11:51:21.0000000+00:00</time></trkpt><trkpt lat="39.4773023" lon="-0.37688448"><ele>-46.4</ele><time>2022-10-30T11:51:22.0000000+00:00</time></trkpt><trkpt lat="39.47729769" lon="-0.37689144"><ele>-46.4</ele><time>2022-10-30T11:51:23.0000000+00:00</time></trkpt><trkpt lat="39.47729174" lon="-0.37688951"><ele>-46.4</ele><time>2022-10-30T11:51:24.0000000+00:00</time></trkpt><trkpt lat="39.47727917" lon="-0.37687543"><ele>-46.4</ele><time>2022-10-30T11:51:25.0000000+00:00</time></trkpt><trkpt lat="39.47726877" lon="-0.37686411"><ele>-46.4</ele><time>2022-10-30T11:51:26.0000000+00:00</time></trkpt><trkpt lat="39.47725176" lon="-0.37685875"><ele>-46.4</ele><time>2022-10-30T11:51:27.0000000+00:00</time></trkpt><trkpt lat="39.47723474" lon="-0.37685858"><ele>-46.2</ele><time>2022-10-30T11:51:28.0000000+00:00</time></trkpt><trkpt lat="39.47722158" lon="-0.37686504"><ele>-46.2</ele><time>2022-10-30T11:51:29.0000000+00:00</time></trkpt><trkpt lat="39.47721127" lon="-0.37686923"><ele>-46.2</ele><time>2022-10-30T11:51:30.0000000+00:00</time></trkpt><trkpt lat="39.47720264" lon="-0.37687392"><ele>-46.4</ele><time>2022-10-30T11:51:31.0000000+00:00</time></trkpt><trkpt lat="39.47719283" lon="-0.3768792"><ele>-46.4</ele><time>2022-10-30T11:51:32.0000000+00:00</time></trkpt><trkpt lat="39.4771889" lon="-0.37688582"><ele>-46.4</ele><time>2022-10-30T11:51:33.0000000+00:00</time></trkpt><trkpt lat="39.47718185" lon="-0.37689127"><ele>-46.4</ele><time>2022-10-30T11:51:34.0000000+00:00</time></trkpt><trkpt lat="39.47717121" lon="-0.37689571"><ele>-46.4</ele><time>2022-10-30T11:51:35.0000000+00:00</time></trkpt><trkpt lat="39.47716266" lon="-0.3769015"><ele>-46.2</ele><time>2022-10-30T11:51:36.0000000+00:00</time></trkpt><trkpt lat="39.477149" lon="-0.37690946"><ele>-46.2</ele><time>2022-10-30T11:51:37.0000000+00:00</time></trkpt><trkpt lat="39.47712536" lon="-0.37692295"><ele>-46.2</ele><time>2022-10-30T11:51:38.0000000+00:00</time></trkpt><trkpt lat="39.47709301" lon="-0.37693561"><ele>-46.2</ele><time>2022-10-30T11:51:39.0000000+00:00</time></trkpt><trkpt lat="39.47707457" lon="-0.37694567"><ele>-46.2</ele><time>2022-10-30T11:51:40.0000000+00:00</time></trkpt><trkpt lat="39.47705931" lon="-0.37696352"><ele>-46.2</ele><time>2022-10-30T11:51:41.0000000+00:00</time></trkpt><trkpt lat="39.47704422" lon="-0.37697836"><ele>-46.2</ele><time>2022-10-30T11:51:42.0000000+00:00</time></trkpt><trkpt lat="39.4770262" lon="-0.37698121"><ele>-46.2</ele><time>2022-10-30T11:51:43.0000000+00:00</time></trkpt><trkpt lat="39.47700365" lon="-0.376974"><ele>-46.2</ele><time>2022-10-30T11:51:44.0000000+00:00</time></trkpt><trkpt lat="39.47698253" lon="-0.37696662"><ele>-46.2</ele><time>2022-10-30T11:51:45.0000000+00:00</time></trkpt><trkpt lat="39.47696024" lon="-0.37696051"><ele>-46.2</ele><time>2022-10-30T11:51:46.0000000+00:00</time></trkpt><trkpt lat="39.47694968" lon="-0.37695346"><ele>-46.2</ele><time>2022-10-30T11:51:47.0000000+00:00</time></trkpt><trkpt lat="39.47692403" lon="-0.37697584"><ele>-46.2</ele><time>2022-10-30T11:51:48.0000000+00:00</time></trkpt><trkpt lat="39.47689829" lon="-0.37697123"><ele>-46.2</ele><time>2022-10-30T11:51:49.0000000+00:00</time></trkpt><trkpt lat="39.47686418" lon="-0.37694776"><ele>-46.2</ele><time>2022-10-30T11:51:50.0000000+00:00</time></trkpt><trkpt lat="39.47685848" lon="-0.3769393"><ele>-46.2</ele><time>2022-10-30T11:51:51.0000000+00:00</time></trkpt><trkpt lat="39.47684549" lon="-0.37693368"><ele>-46.2</ele><time>2022-10-30T11:51:52.0000000+00:00</time></trkpt><trkpt lat="39.47683065" lon="-0.37692941"><ele>-46.2</ele><time>2022-10-30T11:51:53.0000000+00:00</time></trkpt><trkpt lat="39.47681431" lon="-0.37692471"><ele>-46.2</ele><time>2022-10-30T11:51:54.0000000+00:00</time></trkpt><trkpt lat="39.47679302" lon="-0.37690929"><ele>-46.2</ele><time>2022-10-30T11:51:55.0000000+00:00</time></trkpt><trkpt lat="39.47677064" lon="-0.37688507"><ele>-46.2</ele><time>2022-10-30T11:51:56.0000000+00:00</time></trkpt><trkpt lat="39.4767434" lon="-0.37684349"><ele>-46.2</ele><time>2022-10-30T11:51:57.0000000+00:00</time></trkpt><trkpt lat="39.47671398" lon="-0.37680519"><ele>-46.2</ele><time>2022-10-30T11:51:58.0000000+00:00</time></trkpt><trkpt lat="39.47670367" lon="-0.37680703"><ele>-46.2</ele><time>2022-10-30T11:51:59.0000000+00:00</time></trkpt><trkpt lat="39.47667743" lon="-0.37678557"><ele>-46.2</ele><time>2022-10-30T11:52:00.0000000+00:00</time></trkpt><trkpt lat="39.4766688" lon="-0.3767777"><ele>-46.2</ele><time>2022-10-30T11:52:01.0000000+00:00</time></trkpt><trkpt lat="39.47666226" lon="-0.37677954"><ele>-46.2</ele><time>2022-10-30T11:52:02.0000000+00:00</time></trkpt><trkpt lat="39.47666863" lon="-0.37678641"><ele>-46.2</ele><time>2022-10-30T11:52:03.0000000+00:00</time></trkpt><trkpt lat="39.47667399" lon="-0.37678608"><ele>-46.2</ele><time>2022-10-30T11:52:04.0000000+00:00</time></trkpt><trkpt lat="39.47668213" lon="-0.37678926"><ele>-46.2</ele><time>2022-10-30T11:52:05.0000000+00:00</time></trkpt><trkpt lat="39.47668833" lon="-0.3767896"><ele>-46.0</ele><time>2022-10-30T11:52:06.0000000+00:00</time></trkpt><trkpt lat="39.47669989" lon="-0.37678993"><ele>-46.0</ele><time>2022-10-30T11:52:07.0000000+00:00</time></trkpt><trkpt lat="39.47670803" lon="-0.37679806"><ele>-46.0</ele><time>2022-10-30T11:52:08.0000000+00:00</time></trkpt><trkpt lat="39.47671121" lon="-0.37679236"><ele>-46.0</ele><time>2022-10-30T11:52:09.0000000+00:00</time></trkpt><trkpt lat="39.47671171" lon="-0.37678734"><ele>-46.0</ele><time>2022-10-30T11:52:10.0000000+00:00</time></trkpt><trkpt lat="39.47671314" lon="-0.37678231"><ele>-46.0</ele><time>2022-10-30T11:52:11.0000000+00:00</time></trkpt><trkpt lat="39.4767185" lon="-0.37678273"><ele>-46.0</ele><time>2022-10-30T11:52:12.0000000+00:00</time></trkpt><trkpt lat="39.47671699" lon="-0.37677845"><ele>-46.0</ele><time>2022-10-30T11:52:13.0000000+00:00</time></trkpt><trkpt lat="39.47672873" lon="-0.37677635"><ele>-46.0</ele><time>2022-10-30T11:52:14.0000000+00:00</time></trkpt><trkpt lat="39.47674222" lon="-0.376772"><ele>-46.0</ele><time>2022-10-30T11:52:15.0000000+00:00</time></trkpt><trkpt lat="39.47674315" lon="-0.37676764"><ele>-46.0</ele><time>2022-10-30T11:52:16.0000000+00:00</time></trkpt><trkpt lat="39.47674306" lon="-0.37676579"><ele>-45.8</ele><time>2022-10-30T11:52:17.0000000+00:00</time></trkpt><trkpt lat="39.47674281" lon="-0.37676487"><ele>-45.8</ele><time>2022-10-30T11:52:18.0000000+00:00</time></trkpt><trkpt lat="39.47674222" lon="-0.37676462"><ele>-45.6</ele><time>2022-10-30T11:52:19.0000000+00:00</time></trkpt><trkpt lat="39.47674222" lon="-0.37676462"><ele>-45.6</ele><time>2022-10-30T11:52:20.0000000+00:00</time></trkpt><trkpt lat="39.47674222" lon="-0.37676462"><ele>-45.6</ele><time>2022-10-30T11:52:21.0000000+00:00</time></trkpt><trkpt lat="39.47674222" lon="-0.37676462"><ele>-45.6</ele><time>2022-10-30T11:52:22.0000000+00:00</time></trkpt><trkpt lat="39.47674222" lon="-0.37676462"><ele>-45.6</ele><time>2022-10-30T11:52:23.0000000+00:00</time></trkpt><trkpt lat="39.47674222" lon="-0.37676462"><ele>-45.6</ele><time>2022-10-30T11:52:24.0000000+00:00</time></trkpt><trkpt lat="39.47674222" lon="-0.37676462"><ele>-45.6</ele><time>2022-10-30T11:52:25.0000000+00:00</time></trkpt><trkpt lat="39.47674222" lon="-0.37676462"><ele>-45.6</ele><time>2022-10-30T11:52:26.0000000+00:00</time></trkpt><trkpt lat="39.47674222" lon="-0.37676462"><ele>-45.6</ele><time>2022-10-30T11:52:27.0000000+00:00</time></trkpt><trkpt lat="39.47674222" lon="-0.37676462"><ele>-45.6</ele><time>2022-10-30T11:52:28.0000000+00:00</time></trkpt><trkpt lat="39.47674222" lon="-0.37676462"><ele>-45.6</ele><time>2022-10-30T11:52:29.0000000+00:00</time></trkpt><trkpt lat="39.47674222" lon="-0.37676462"><ele>-45.6</ele><time>2022-10-30T11:52:30.0000000+00:00</time></trkpt><trkpt lat="39.47674222" lon="-0.37676462"><ele>-45.6</ele><time>2022-10-30T11:52:31.0000000+00:00</time></trkpt><trkpt lat="39.47674281" lon="-0.37676462"><ele>-45.6</ele><time>2022-10-30T11:52:32.0000000+00:00</time></trkpt><trkpt lat="39.47674298" lon="-0.37676462"><ele>-45.6</ele><time>2022-10-30T11:52:33.0000000+00:00</time></trkpt><trkpt lat="39.47674306" lon="-0.37676462"><ele>-45.6</ele><time>2022-10-30T11:52:34.0000000+00:00</time></trkpt><trkpt lat="39.47674315" lon="-0.3767647"><ele>-45.6</ele><time>2022-10-30T11:52:35.0000000+00:00</time></trkpt><trkpt lat="39.47674398" lon="-0.3767632"><ele>-45.6</ele><time>2022-10-30T11:52:36.0000000+00:00</time></trkpt><trkpt lat="39.47674943" lon="-0.37675037"><ele>-45.6</ele><time>2022-10-30T11:52:37.0000000+00:00</time></trkpt><trkpt lat="39.47675136" lon="-0.37673604"><ele>-45.6</ele><time>2022-10-30T11:52:38.0000000+00:00</time></trkpt><trkpt lat="39.47675178" lon="-0.3767212"><ele>-45.6</ele><time>2022-10-30T11:52:39.0000000+00:00</time></trkpt><trkpt lat="39.4767548" lon="-0.37670955"><ele>-45.6</ele><time>2022-10-30T11:52:40.0000000+00:00</time></trkpt><trkpt lat="39.47675882" lon="-0.37669815"><ele>-45.6</ele><time>2022-10-30T11:52:41.0000000+00:00</time></trkpt><trkpt lat="39.47676117" lon="-0.37668474"><ele>-45.6</ele><time>2022-10-30T11:52:42.0000000+00:00</time></trkpt><trkpt lat="39.47676854" lon="-0.37667166"><ele>-45.6</ele><time>2022-10-30T11:52:43.0000000+00:00</time></trkpt><trkpt lat="39.47677458" lon="-0.3766523"><ele>-45.6</ele><time>2022-10-30T11:52:44.0000000+00:00</time></trkpt><trkpt lat="39.47677734" lon="-0.3766352"><ele>-45.6</ele><time>2022-10-30T11:52:45.0000000+00:00</time></trkpt><trkpt lat="39.4767807" lon="-0.37661257"><ele>-45.6</ele><time>2022-10-30T11:52:46.0000000+00:00</time></trkpt><trkpt lat="39.47678598" lon="-0.37659137"><ele>-45.6</ele><time>2022-10-30T11:52:47.0000000+00:00</time></trkpt><trkpt lat="39.47678757" lon="-0.37657066"><ele>-45.6</ele><time>2022-10-30T11:52:48.0000000+00:00</time></trkpt><trkpt lat="39.47679319" lon="-0.3765544"><ele>-45.4</ele><time>2022-10-30T11:52:49.0000000+00:00</time></trkpt><trkpt lat="39.47680182" lon="-0.37653521"><ele>-45.4</ele><time>2022-10-30T11:52:50.0000000+00:00</time></trkpt><trkpt lat="39.47680031" lon="-0.37651065"><ele>-45.4</ele><time>2022-10-30T11:52:51.0000000+00:00</time></trkpt><trkpt lat="39.47680626" lon="-0.37648701"><ele>-45.4</ele><time>2022-10-30T11:52:52.0000000+00:00</time></trkpt><trkpt lat="39.47681833" lon="-0.37646798"><ele>-45.2</ele><time>2022-10-30T11:52:53.0000000+00:00</time></trkpt><trkpt lat="39.47683459" lon="-0.37645189"><ele>-45.2</ele><time>2022-10-30T11:52:54.0000000+00:00</time></trkpt><trkpt lat="39.47684272" lon="-0.3764384"><ele>-45.2</ele><time>2022-10-30T11:52:55.0000000+00:00</time></trkpt><trkpt lat="39.47684088" lon="-0.3764223"><ele>-45.2</ele><time>2022-10-30T11:52:56.0000000+00:00</time></trkpt><trkpt lat="39.47682696" lon="-0.37641132"><ele>-45.4</ele><time>2022-10-30T11:52:57.0000000+00:00</time></trkpt><trkpt lat="39.47676871" lon="-0.37641216"><ele>-45.4</ele><time>2022-10-30T11:52:58.0000000+00:00</time></trkpt><trkpt lat="39.47674398" lon="-0.37640101"><ele>-45.4</ele><time>2022-10-30T11:52:59.0000000+00:00</time></trkpt><trkpt lat="39.47672504" lon="-0.37639213"><ele>-45.4</ele><time>2022-10-30T11:53:00.0000000+00:00</time></trkpt><trkpt lat="39.47673032" lon="-0.37637059"><ele>-45.4</ele><time>2022-10-30T11:53:01.0000000+00:00</time></trkpt><trkpt lat="39.47674407" lon="-0.37634712"><ele>-45.2</ele><time>2022-10-30T11:53:02.0000000+00:00</time></trkpt><trkpt lat="39.47675102" lon="-0.37633513"><ele>-45.2</ele><time>2022-10-30T11:53:03.0000000+00:00</time></trkpt><trkpt lat="39.47675027" lon="-0.37632415"><ele>-45.2</ele><time>2022-10-30T11:53:04.0000000+00:00</time></trkpt><trkpt lat="39.47675413" lon="-0.37631091"><ele>-45.2</ele><time>2022-10-30T11:53:05.0000000+00:00</time></trkpt><trkpt lat="39.476762" lon="-0.3762949"><ele>-45.2</ele><time>2022-10-30T11:53:06.0000000+00:00</time></trkpt><trkpt lat="39.47676988" lon="-0.37627964"><ele>-45.2</ele><time>2022-10-30T11:53:07.0000000+00:00</time></trkpt><trkpt lat="39.47676242" lon="-0.37627503"><ele>-45.0</ele><time>2022-10-30T11:53:08.0000000+00:00</time></trkpt><trkpt lat="39.47676092" lon="-0.37626523"><ele>-45.0</ele><time>2022-10-30T11:53:09.0000000+00:00</time></trkpt><trkpt lat="39.4767615" lon="-0.37625467"><ele>-45.0</ele><time>2022-10-30T11:53:10.0000000+00:00</time></trkpt><trkpt lat="39.47676519" lon="-0.37624436"><ele>-45.0</ele><time>2022-10-30T11:53:11.0000000+00:00</time></trkpt><trkpt lat="39.47677156" lon="-0.37623019"><ele>-45.0</ele><time>2022-10-30T11:53:12.0000000+00:00</time></trkpt><trkpt lat="39.47677047" lon="-0.37621921"><ele>-45.0</ele><time>2022-10-30T11:53:13.0000000+00:00</time></trkpt><trkpt lat="39.47676854" lon="-0.37621343"><ele>-44.8</ele><time>2022-10-30T11:53:14.0000000+00:00</time></trkpt><trkpt lat="39.47675111" lon="-0.3761809"><ele>-44.8</ele><time>2022-10-30T11:53:15.0000000+00:00</time></trkpt><trkpt lat="39.47673895" lon="-0.37617713"><ele>-44.8</ele><time>2022-10-30T11:53:16.0000000+00:00</time></trkpt><trkpt lat="39.47672504" lon="-0.37616029"><ele>-44.8</ele><time>2022-10-30T11:53:17.0000000+00:00</time></trkpt><trkpt lat="39.47670987" lon="-0.37615048"><ele>-44.8</ele><time>2022-10-30T11:53:18.0000000+00:00</time></trkpt><trkpt lat="39.47670459" lon="-0.3761364"><ele>-44.6</ele><time>2022-10-30T11:53:19.0000000+00:00</time></trkpt><trkpt lat="39.47670878" lon="-0.37611561"><ele>-44.6</ele><time>2022-10-30T11:53:20.0000000+00:00</time></trkpt><trkpt lat="39.47671272" lon="-0.37609516"><ele>-44.6</ele><time>2022-10-30T11:53:21.0000000+00:00</time></trkpt><trkpt lat="39.47671901" lon="-0.37607211"><ele>-44.6</ele><time>2022-10-30T11:53:22.0000000+00:00</time></trkpt><trkpt lat="39.476704" lon="-0.37605233"><ele>-44.6</ele><time>2022-10-30T11:53:23.0000000+00:00</time></trkpt><trkpt lat="39.47670735" lon="-0.37602802"><ele>-44.6</ele><time>2022-10-30T11:53:24.0000000+00:00</time></trkpt><trkpt lat="39.47670685" lon="-0.37600614"><ele>-44.6</ele><time>2022-10-30T11:53:25.0000000+00:00</time></trkpt><trkpt lat="39.47671171" lon="-0.37598938"><ele>-44.8</ele><time>2022-10-30T11:53:26.0000000+00:00</time></trkpt><trkpt lat="39.4767144" lon="-0.37597119"><ele>-44.8</ele><time>2022-10-30T11:53:27.0000000+00:00</time></trkpt><trkpt lat="39.47672118" lon="-0.37595308"><ele>-44.8</ele><time>2022-10-30T11:53:28.0000000+00:00</time></trkpt><trkpt lat="39.47671867" lon="-0.37593716"><ele>-44.8</ele><time>2022-10-30T11:53:29.0000000+00:00</time></trkpt><trkpt lat="39.47671616" lon="-0.37592199"><ele>-44.8</ele><time>2022-10-30T11:53:30.0000000+00:00</time></trkpt><trkpt lat="39.47671305" lon="-0.3759095"><ele>-44.8</ele><time>2022-10-30T11:53:31.0000000+00:00</time></trkpt><trkpt lat="39.47671121" lon="-0.37589693"><ele>-44.8</ele><time>2022-10-30T11:53:32.0000000+00:00</time></trkpt><trkpt lat="39.47671104" lon="-0.37588343"><ele>-44.8</ele><time>2022-10-30T11:53:33.0000000+00:00</time></trkpt><trkpt lat="39.47670953" lon="-0.3758696"><ele>-44.8</ele><time>2022-10-30T11:53:34.0000000+00:00</time></trkpt><trkpt lat="39.47671029" lon="-0.37585485"><ele>-44.8</ele><time>2022-10-30T11:53:35.0000000+00:00</time></trkpt><trkpt lat="39.47671331" lon="-0.37584412"><ele>-44.8</ele><time>2022-10-30T11:53:36.0000000+00:00</time></trkpt><trkpt lat="39.47671406" lon="-0.37583339"><ele>-45.0</ele><time>2022-10-30T11:53:37.0000000+00:00</time></trkpt><trkpt lat="39.47671523" lon="-0.37582417"><ele>-45.0</ele><time>2022-10-30T11:53:38.0000000+00:00</time></trkpt><trkpt lat="39.47671339" lon="-0.37581218"><ele>-45.0</ele><time>2022-10-30T11:53:39.0000000+00:00</time></trkpt><trkpt lat="39.47670735" lon="-0.37579559"><ele>-45.0</ele><time>2022-10-30T11:53:40.0000000+00:00</time></trkpt><trkpt lat="39.47670124" lon="-0.37577807"><ele>-45.0</ele><time>2022-10-30T11:53:41.0000000+00:00</time></trkpt><trkpt lat="39.47669528" lon="-0.37576298"><ele>-45.0</ele><time>2022-10-30T11:53:42.0000000+00:00</time></trkpt><trkpt lat="39.47669126" lon="-0.37575234"><ele>-45.0</ele><time>2022-10-30T11:53:43.0000000+00:00</time></trkpt><trkpt lat="39.47668824" lon="-0.37573826"><ele>-45.0</ele><time>2022-10-30T11:53:44.0000000+00:00</time></trkpt><trkpt lat="39.47668565" lon="-0.37572208"><ele>-45.0</ele><time>2022-10-30T11:53:45.0000000+00:00</time></trkpt><trkpt lat="39.47668397" lon="-0.37570423"><ele>-45.0</ele><time>2022-10-30T11:53:46.0000000+00:00</time></trkpt><trkpt lat="39.47668313" lon="-0.37568713"><ele>-45.0</ele><time>2022-10-30T11:53:47.0000000+00:00</time></trkpt><trkpt lat="39.47668799" lon="-0.37566517"><ele>-45.0</ele><time>2022-10-30T11:53:48.0000000+00:00</time></trkpt><trkpt lat="39.4766885" lon="-0.37564379"><ele>-45.0</ele><time>2022-10-30T11:53:49.0000000+00:00</time></trkpt><trkpt lat="39.47668531" lon="-0.37562954"><ele>-45.0</ele><time>2022-10-30T11:53:50.0000000+00:00</time></trkpt><trkpt lat="39.47667626" lon="-0.37561705"><ele>-45.0</ele><time>2022-10-30T11:53:51.0000000+00:00</time></trkpt><trkpt lat="39.47666771" lon="-0.37560381"><ele>-45.0</ele><time>2022-10-30T11:53:52.0000000+00:00</time></trkpt><trkpt lat="39.47665681" lon="-0.37559576"><ele>-45.0</ele><time>2022-10-30T11:53:53.0000000+00:00</time></trkpt><trkpt lat="39.47665203" lon="-0.37558747"><ele>-45.0</ele><time>2022-10-30T11:53:54.0000000+00:00</time></trkpt><trkpt lat="39.47664985" lon="-0.37558009"><ele>-45.0</ele><time>2022-10-30T11:53:55.0000000+00:00</time></trkpt><trkpt lat="39.47664407" lon="-0.37556727"><ele>-45.0</ele><time>2022-10-30T11:53:56.0000000+00:00</time></trkpt><trkpt lat="39.47664575" lon="-0.37554807"><ele>-45.0</ele><time>2022-10-30T11:53:57.0000000+00:00</time></trkpt><trkpt lat="39.47664575" lon="-0.37553617"><ele>-45.0</ele><time>2022-10-30T11:53:58.0000000+00:00</time></trkpt><trkpt lat="39.47664793" lon="-0.37552544"><ele>-45.0</ele><time>2022-10-30T11:53:59.0000000+00:00</time></trkpt><trkpt lat="39.47664566" lon="-0.37552334"><ele>-45.2</ele><time>2022-10-30T11:54:00.0000000+00:00</time></trkpt><trkpt lat="39.47664416" lon="-0.37552393"><ele>-45.2</ele><time>2022-10-30T11:54:01.0000000+00:00</time></trkpt><trkpt lat="39.47664273" lon="-0.37552368"><ele>-45.2</ele><time>2022-10-30T11:54:02.0000000+00:00</time></trkpt><trkpt lat="39.47664131" lon="-0.37552209"><ele>-45.2</ele><time>2022-10-30T11:54:03.0000000+00:00</time></trkpt><trkpt lat="39.47664047" lon="-0.37552066"><ele>-45.2</ele><time>2022-10-30T11:54:04.0000000+00:00</time></trkpt><trkpt lat="39.47664022" lon="-0.37551966"><ele>-45.0</ele><time>2022-10-30T11:54:05.0000000+00:00</time></trkpt><trkpt lat="39.47663879" lon="-0.37551178"><ele>-45.0</ele><time>2022-10-30T11:54:06.0000000+00:00</time></trkpt><trkpt lat="39.47663276" lon="-0.37549912"><ele>-45.0</ele><time>2022-10-30T11:54:07.0000000+00:00</time></trkpt><trkpt lat="39.47662605" lon="-0.37548705"><ele>-45.0</ele><time>2022-10-30T11:54:08.0000000+00:00</time></trkpt><trkpt lat="39.47662211" lon="-0.375478"><ele>-45.0</ele><time>2022-10-30T11:54:09.0000000+00:00</time></trkpt><trkpt lat="39.47662613" lon="-0.37547414"><ele>-45.0</ele><time>2022-10-30T11:54:10.0000000+00:00</time></trkpt><trkpt lat="39.47662421" lon="-0.37547112"><ele>-45.0</ele><time>2022-10-30T11:54:11.0000000+00:00</time></trkpt><trkpt lat="39.47662245" lon="-0.37546509"><ele>-45.0</ele><time>2022-10-30T11:54:12.0000000+00:00</time></trkpt><trkpt lat="39.47662069" lon="-0.37545729"><ele>-45.0</ele><time>2022-10-30T11:54:13.0000000+00:00</time></trkpt><trkpt lat="39.47662002" lon="-0.37544799"><ele>-45.2</ele><time>2022-10-30T11:54:14.0000000+00:00</time></trkpt><trkpt lat="39.47661524" lon="-0.37543684"><ele>-45.2</ele><time>2022-10-30T11:54:15.0000000+00:00</time></trkpt><trkpt lat="39.47660962" lon="-0.37542628"><ele>-45.2</ele><time>2022-10-30T11:54:16.0000000+00:00</time></trkpt><trkpt lat="39.47660484" lon="-0.37541279"><ele>-45.4</ele><time>2022-10-30T11:54:17.0000000+00:00</time></trkpt><trkpt lat="39.47659914" lon="-0.37539829"><ele>-45.4</ele><time>2022-10-30T11:54:18.0000000+00:00</time></trkpt><trkpt lat="39.47659579" lon="-0.37538999"><ele>-45.4</ele><time>2022-10-30T11:54:19.0000000+00:00</time></trkpt><trkpt lat="39.47659604" lon="-0.37538236"><ele>-45.4</ele><time>2022-10-30T11:54:20.0000000+00:00</time></trkpt><trkpt lat="39.47659303" lon="-0.37537767"><ele>-45.4</ele><time>2022-10-30T11:54:21.0000000+00:00</time></trkpt><trkpt lat="39.47658657" lon="-0.37537742"><ele>-45.6</ele><time>2022-10-30T11:54:22.0000000+00:00</time></trkpt><trkpt lat="39.47657794" lon="-0.37537708"><ele>-45.6</ele><time>2022-10-30T11:54:23.0000000+00:00</time></trkpt><trkpt lat="39.4765652" lon="-0.37537314"><ele>-45.6</ele><time>2022-10-30T11:54:24.0000000+00:00</time></trkpt><trkpt lat="39.47655615" lon="-0.37537004"><ele>-45.6</ele><time>2022-10-30T11:54:25.0000000+00:00</time></trkpt><trkpt lat="39.47655246" lon="-0.37536794"><ele>-45.6</ele><time>2022-10-30T11:54:26.0000000+00:00</time></trkpt><trkpt lat="39.47655279" lon="-0.37536518"><ele>-45.6</ele><time>2022-10-30T11:54:27.0000000+00:00</time></trkpt><trkpt lat="39.47655304" lon="-0.37535998"><ele>-45.6</ele><time>2022-10-30T11:54:28.0000000+00:00</time></trkpt><trkpt lat="39.47655145" lon="-0.37534984"><ele>-45.6</ele><time>2022-10-30T11:54:29.0000000+00:00</time></trkpt><trkpt lat="39.47654827" lon="-0.3753397"><ele>-45.6</ele><time>2022-10-30T11:54:30.0000000+00:00</time></trkpt><trkpt lat="39.4765429" lon="-0.37532863"><ele>-45.6</ele><time>2022-10-30T11:54:31.0000000+00:00</time></trkpt><trkpt lat="39.47653586" lon="-0.37532067"><ele>-45.4</ele><time>2022-10-30T11:54:32.0000000+00:00</time></trkpt><trkpt lat="39.47653385" lon="-0.37531648"><ele>-45.4</ele><time>2022-10-30T11:54:33.0000000+00:00</time></trkpt><trkpt lat="39.47653201" lon="-0.37531547"><ele>-45.4</ele><time>2022-10-30T11:54:34.0000000+00:00</time></trkpt><trkpt lat="39.4765222" lon="-0.37531036"><ele>-45.4</ele><time>2022-10-30T11:54:35.0000000+00:00</time></trkpt><trkpt lat="39.4765191" lon="-0.3753086"><ele>-45.4</ele><time>2022-10-30T11:54:36.0000000+00:00</time></trkpt><trkpt lat="39.47650518" lon="-0.37530743"><ele>-45.4</ele><time>2022-10-30T11:54:37.0000000+00:00</time></trkpt><trkpt lat="39.47649135" lon="-0.37530382"><ele>-45.4</ele><time>2022-10-30T11:54:38.0000000+00:00</time></trkpt><trkpt lat="39.47648875" lon="-0.37530298"><ele>-45.4</ele><time>2022-10-30T11:54:39.0000000+00:00</time></trkpt><trkpt lat="39.47648708" lon="-0.37530399"><ele>-45.4</ele><time>2022-10-30T11:54:40.0000000+00:00</time></trkpt><trkpt lat="39.4764859" lon="-0.37530407"><ele>-45.4</ele><time>2022-10-30T11:54:41.0000000+00:00</time></trkpt><trkpt lat="39.47648666" lon="-0.37530491"><ele>-45.4</ele><time>2022-10-30T11:54:42.0000000+00:00</time></trkpt><trkpt lat="39.47648716" lon="-0.37530583"><ele>-45.4</ele><time>2022-10-30T11:54:43.0000000+00:00</time></trkpt><trkpt lat="39.47648699" lon="-0.37531296"><ele>-45.4</ele><time>2022-10-30T11:54:44.0000000+00:00</time></trkpt><trkpt lat="39.47648322" lon="-0.37531866"><ele>-45.4</ele><time>2022-10-30T11:54:45.0000000+00:00</time></trkpt><trkpt lat="39.47648498" lon="-0.37533341"><ele>-45.4</ele><time>2022-10-30T11:54:46.0000000+00:00</time></trkpt><trkpt lat="39.47648456" lon="-0.37533542"><ele>-45.4</ele><time>2022-10-30T11:54:47.0000000+00:00</time></trkpt><trkpt lat="39.47648423" lon="-0.37533559"><ele>-45.2</ele><time>2022-10-30T11:54:48.0000000+00:00</time></trkpt><trkpt lat="39.47648523" lon="-0.37533601"><ele>-45.4</ele><time>2022-10-30T11:54:49.0000000+00:00</time></trkpt><trkpt lat="39.47648406" lon="-0.37533735"><ele>-45.4</ele><time>2022-10-30T11:54:50.0000000+00:00</time></trkpt><trkpt lat="39.47648406" lon="-0.37533735"><ele>-45.4</ele><time>2022-10-30T11:54:51.0000000+00:00</time></trkpt><trkpt lat="39.47648406" lon="-0.37533735"><ele>-45.4</ele><time>2022-10-30T11:54:52.0000000+00:00</time></trkpt><trkpt lat="39.47648406" lon="-0.37533735"><ele>-45.4</ele><time>2022-10-30T11:54:53.0000000+00:00</time></trkpt><trkpt lat="39.47648406" lon="-0.37533735"><ele>-45.4</ele><time>2022-10-30T11:54:54.0000000+00:00</time></trkpt><trkpt lat="39.47648406" lon="-0.37533735"><ele>-45.4</ele><time>2022-10-30T11:54:55.0000000+00:00</time></trkpt><trkpt lat="39.47648406" lon="-0.37533735"><ele>-45.4</ele><time>2022-10-30T11:54:56.0000000+00:00</time></trkpt><trkpt lat="39.47648406" lon="-0.37533735"><ele>-45.4</ele><time>2022-10-30T11:54:57.0000000+00:00</time></trkpt><trkpt lat="39.47648406" lon="-0.37533735"><ele>-45.4</ele><time>2022-10-30T11:54:58.0000000+00:00</time></trkpt><trkpt lat="39.47648423" lon="-0.37533735"><ele>-45.4</ele><time>2022-10-30T11:54:59.0000000+00:00</time></trkpt><trkpt lat="39.47648456" lon="-0.37533735"><ele>-45.4</ele><time>2022-10-30T11:55:00.0000000+00:00</time></trkpt><trkpt lat="39.47648498" lon="-0.37533735"><ele>-45.4</ele><time>2022-10-30T11:55:01.0000000+00:00</time></trkpt><trkpt lat="39.47648507" lon="-0.37533735"><ele>-45.4</ele><time>2022-10-30T11:55:02.0000000+00:00</time></trkpt><trkpt lat="39.47648523" lon="-0.37533735"><ele>-45.4</ele><time>2022-10-30T11:55:03.0000000+00:00</time></trkpt><trkpt lat="39.47648523" lon="-0.37533735"><ele>-45.4</ele><time>2022-10-30T11:55:04.0000000+00:00</time></trkpt><trkpt lat="39.47648523" lon="-0.37533735"><ele>-45.4</ele><time>2022-10-30T11:55:05.0000000+00:00</time></trkpt><trkpt lat="39.47648523" lon="-0.37533794"><ele>-45.4</ele><time>2022-10-30T11:55:06.0000000+00:00</time></trkpt><trkpt lat="39.47648523" lon="-0.3753381"><ele>-45.4</ele><time>2022-10-30T11:55:07.0000000+00:00</time></trkpt><trkpt lat="39.47648523" lon="-0.37533827"><ele>-45.4</ele><time>2022-10-30T11:55:08.0000000+00:00</time></trkpt><trkpt lat="39.47648523" lon="-0.37533844"><ele>-45.4</ele><time>2022-10-30T11:55:09.0000000+00:00</time></trkpt><trkpt lat="39.47648523" lon="-0.37533894"><ele>-45.4</ele><time>2022-10-30T11:55:10.0000000+00:00</time></trkpt><trkpt lat="39.47648523" lon="-0.37533919"><ele>-45.4</ele><time>2022-10-30T11:55:11.0000000+00:00</time></trkpt><trkpt lat="39.47648507" lon="-0.37533936"><ele>-45.4</ele><time>2022-10-30T11:55:12.0000000+00:00</time></trkpt><trkpt lat="39.47648498" lon="-0.37533961"><ele>-45.4</ele><time>2022-10-30T11:55:13.0000000+00:00</time></trkpt><trkpt lat="39.47648482" lon="-0.37534045"><ele>-45.2</ele><time>2022-10-30T11:55:14.0000000+00:00</time></trkpt><trkpt lat="39.47648482" lon="-0.37534129"><ele>-45.2</ele><time>2022-10-30T11:55:15.0000000+00:00</time></trkpt><trkpt lat="39.47648465" lon="-0.37534179"><ele>-45.2</ele><time>2022-10-30T11:55:16.0000000+00:00</time></trkpt><trkpt lat="39.47648423" lon="-0.3753423"><ele>-45.2</ele><time>2022-10-30T11:55:17.0000000+00:00</time></trkpt><trkpt lat="39.47648414" lon="-0.37534263"><ele>-45.2</ele><time>2022-10-30T11:55:18.0000000+00:00</time></trkpt><trkpt lat="39.47648406" lon="-0.37534464"><ele>-45.2</ele><time>2022-10-30T11:55:19.0000000+00:00</time></trkpt><trkpt lat="39.47648247" lon="-0.37534657"><ele>-45.2</ele><time>2022-10-30T11:55:20.0000000+00:00</time></trkpt><trkpt lat="39.47648029" lon="-0.37534691"><ele>-45.2</ele><time>2022-10-30T11:55:21.0000000+00:00</time></trkpt><trkpt lat="39.4764787" lon="-0.37534724"><ele>-45.2</ele><time>2022-10-30T11:55:22.0000000+00:00</time></trkpt><trkpt lat="39.47647803" lon="-0.37534732"><ele>-45.2</ele><time>2022-10-30T11:55:23.0000000+00:00</time></trkpt><trkpt lat="39.47647769" lon="-0.37534732"><ele>-45.2</ele><time>2022-10-30T11:55:24.0000000+00:00</time></trkpt><trkpt lat="39.47647744" lon="-0.37534741"><ele>-45.2</ele><time>2022-10-30T11:55:25.0000000+00:00</time></trkpt><trkpt lat="39.47647325" lon="-0.37534934"><ele>-45.0</ele><time>2022-10-30T11:55:26.0000000+00:00</time></trkpt><trkpt lat="39.47645581" lon="-0.37535336"><ele>-45.0</ele><time>2022-10-30T11:55:27.0000000+00:00</time></trkpt><trkpt lat="39.47644332" lon="-0.37535671"><ele>-45.0</ele><time>2022-10-30T11:55:28.0000000+00:00</time></trkpt><trkpt lat="39.47643469" lon="-0.37535638"><ele>-45.0</ele><time>2022-10-30T11:55:29.0000000+00:00</time></trkpt><trkpt lat="39.4764243" lon="-0.37535286"><ele>-45.0</ele><time>2022-10-30T11:55:30.0000000+00:00</time></trkpt><trkpt lat="39.47641214" lon="-0.37535093"><ele>-45.0</ele><time>2022-10-30T11:55:31.0000000+00:00</time></trkpt><trkpt lat="39.47640074" lon="-0.37535059"><ele>-45.0</ele><time>2022-10-30T11:55:32.0000000+00:00</time></trkpt><trkpt lat="39.47638574" lon="-0.37535043"><ele>-45.0</ele><time>2022-10-30T11:55:33.0000000+00:00</time></trkpt><trkpt lat="39.47637409" lon="-0.37535344"><ele>-45.0</ele><time>2022-10-30T11:55:34.0000000+00:00</time></trkpt><trkpt lat="39.47635976" lon="-0.37535437"><ele>-45.0</ele><time>2022-10-30T11:55:35.0000000+00:00</time></trkpt><trkpt lat="39.47635439" lon="-0.37534925"><ele>-45.0</ele><time>2022-10-30T11:55:36.0000000+00:00</time></trkpt><trkpt lat="39.47635288" lon="-0.37534297"><ele>-45.0</ele><time>2022-10-30T11:55:37.0000000+00:00</time></trkpt><trkpt lat="39.47634861" lon="-0.37533559"><ele>-45.0</ele><time>2022-10-30T11:55:38.0000000+00:00</time></trkpt><trkpt lat="39.47634383" lon="-0.37533115"><ele>-45.0</ele><time>2022-10-30T11:55:39.0000000+00:00</time></trkpt><trkpt lat="39.4763362" lon="-0.37532821"><ele>-44.8</ele><time>2022-10-30T11:55:40.0000000+00:00</time></trkpt><trkpt lat="39.47632631" lon="-0.3753252"><ele>-44.8</ele><time>2022-10-30T11:55:41.0000000+00:00</time></trkpt><trkpt lat="39.47631676" lon="-0.37532562"><ele>-44.8</ele><time>2022-10-30T11:55:42.0000000+00:00</time></trkpt><trkpt lat="39.4763119" lon="-0.37533115"><ele>-44.8</ele><time>2022-10-30T11:55:43.0000000+00:00</time></trkpt><trkpt lat="39.47630561" lon="-0.37533609"><ele>-44.8</ele><time>2022-10-30T11:55:44.0000000+00:00</time></trkpt><trkpt lat="39.47629899" lon="-0.37533827"><ele>-44.8</ele><time>2022-10-30T11:55:45.0000000+00:00</time></trkpt><trkpt lat="39.47629471" lon="-0.37534481"><ele>-44.8</ele><time>2022-10-30T11:55:46.0000000+00:00</time></trkpt><trkpt lat="39.47628742" lon="-0.3753516"><ele>-45.0</ele><time>2022-10-30T11:55:47.0000000+00:00</time></trkpt><trkpt lat="39.47628122" lon="-0.37536023"><ele>-45.0</ele><time>2022-10-30T11:55:48.0000000+00:00</time></trkpt><trkpt lat="39.47627921" lon="-0.37536182"><ele>-45.0</ele><time>2022-10-30T11:55:49.0000000+00:00</time></trkpt><trkpt lat="39.47627812" lon="-0.3753625"><ele>-45.2</ele><time>2022-10-30T11:55:50.0000000+00:00</time></trkpt><trkpt lat="39.47628155" lon="-0.3753604"><ele>-45.2</ele><time>2022-10-30T11:55:51.0000000+00:00</time></trkpt><trkpt lat="39.47628088" lon="-0.37535906"><ele>-45.2</ele><time>2022-10-30T11:55:52.0000000+00:00</time></trkpt><trkpt lat="39.47628139" lon="-0.37535973"><ele>-45.2</ele><time>2022-10-30T11:55:53.0000000+00:00</time></trkpt><trkpt lat="39.4762808" lon="-0.3753578"><ele>-45.2</ele><time>2022-10-30T11:55:54.0000000+00:00</time></trkpt><trkpt lat="39.47627904" lon="-0.37535395"><ele>-45.2</ele><time>2022-10-30T11:55:55.0000000+00:00</time></trkpt><trkpt lat="39.47627829" lon="-0.37535202"><ele>-45.2</ele><time>2022-10-30T11:55:56.0000000+00:00</time></trkpt><trkpt lat="39.47627837" lon="-0.37535235"><ele>-45.4</ele><time>2022-10-30T11:55:57.0000000+00:00</time></trkpt><trkpt lat="39.47627837" lon="-0.37535235"><ele>-45.4</ele><time>2022-10-30T11:55:58.0000000+00:00</time></trkpt><trkpt lat="39.47627837" lon="-0.37535235"><ele>-45.4</ele><time>2022-10-30T11:55:59.0000000+00:00</time></trkpt><trkpt lat="39.47627837" lon="-0.37535235"><ele>-45.4</ele><time>2022-10-30T11:56:00.0000000+00:00</time></trkpt><trkpt lat="39.47627837" lon="-0.37535235"><ele>-45.2</ele><time>2022-10-30T11:56:01.0000000+00:00</time></trkpt><trkpt lat="39.47627837" lon="-0.37535235"><ele>-45.2</ele><time>2022-10-30T11:56:02.0000000+00:00</time></trkpt><trkpt lat="39.47627837" lon="-0.37535235"><ele>-45.0</ele><time>2022-10-30T11:56:03.0000000+00:00</time></trkpt><trkpt lat="39.47627837" lon="-0.37535235"><ele>-45.0</ele><time>2022-10-30T11:56:04.0000000+00:00</time></trkpt><trkpt lat="39.47627837" lon="-0.37535235"><ele>-45.0</ele><time>2022-10-30T11:56:05.0000000+00:00</time></trkpt><trkpt lat="39.47627837" lon="-0.37535302"><ele>-45.0</ele><time>2022-10-30T11:56:06.0000000+00:00</time></trkpt><trkpt lat="39.47627837" lon="-0.37535386"><ele>-44.8</ele><time>2022-10-30T11:56:07.0000000+00:00</time></trkpt><trkpt lat="39.47627837" lon="-0.37535395"><ele>-44.8</ele><time>2022-10-30T11:56:08.0000000+00:00</time></trkpt><trkpt lat="39.47627837" lon="-0.37535411"><ele>-44.8</ele><time>2022-10-30T11:56:09.0000000+00:00</time></trkpt><trkpt lat="39.47627837" lon="-0.37535411"><ele>-44.8</ele><time>2022-10-30T11:56:10.0000000+00:00</time></trkpt><trkpt lat="39.47627837" lon="-0.37535437"><ele>-44.8</ele><time>2022-10-30T11:56:11.0000000+00:00</time></trkpt><trkpt lat="39.47627837" lon="-0.37535478"><ele>-44.8</ele><time>2022-10-30T11:56:12.0000000+00:00</time></trkpt><trkpt lat="39.47627837" lon="-0.37535504"><ele>-44.8</ele><time>2022-10-30T11:56:13.0000000+00:00</time></trkpt><trkpt lat="39.47627837" lon="-0.37535512"><ele>-44.8</ele><time>2022-10-30T11:56:14.0000000+00:00</time></trkpt><trkpt lat="39.47627829" lon="-0.37535512"><ele>-44.8</ele><time>2022-10-30T11:56:15.0000000+00:00</time></trkpt><trkpt lat="39.47627812" lon="-0.37535529"><ele>-44.6</ele><time>2022-10-30T11:56:16.0000000+00:00</time></trkpt><trkpt lat="39.47627778" lon="-0.37535562"><ele>-44.6</ele><time>2022-10-30T11:56:17.0000000+00:00</time></trkpt><trkpt lat="39.4762777" lon="-0.37535562"><ele>-44.6</ele><time>2022-10-30T11:56:18.0000000+00:00</time></trkpt><trkpt lat="39.47627753" lon="-0.37535562"><ele>-44.6</ele><time>2022-10-30T11:56:19.0000000+00:00</time></trkpt><trkpt lat="39.47627753" lon="-0.37535562"><ele>-44.6</ele><time>2022-10-30T11:56:20.0000000+00:00</time></trkpt><trkpt lat="39.47627728" lon="-0.37535562"><ele>-44.6</ele><time>2022-10-30T11:56:21.0000000+00:00</time></trkpt><trkpt lat="39.4762772" lon="-0.37535562"><ele>-44.8</ele><time>2022-10-30T11:56:22.0000000+00:00</time></trkpt><trkpt lat="39.47627652" lon="-0.37535562"><ele>-44.8</ele><time>2022-10-30T11:56:23.0000000+00:00</time></trkpt><trkpt lat="39.47627611" lon="-0.37535562"><ele>-44.8</ele><time>2022-10-30T11:56:24.0000000+00:00</time></trkpt><trkpt lat="39.47627611" lon="-0.37535562"><ele>-44.8</ele><time>2022-10-30T11:56:25.0000000+00:00</time></trkpt><trkpt lat="39.47627569" lon="-0.37535587"><ele>-44.8</ele><time>2022-10-30T11:56:26.0000000+00:00</time></trkpt><trkpt lat="39.4762756" lon="-0.37535638"><ele>-44.8</ele><time>2022-10-30T11:56:27.0000000+00:00</time></trkpt><trkpt lat="39.47627552" lon="-0.37535654"><ele>-44.8</ele><time>2022-10-30T11:56:28.0000000+00:00</time></trkpt><trkpt lat="39.47627544" lon="-0.3753568"><ele>-44.8</ele><time>2022-10-30T11:56:29.0000000+00:00</time></trkpt><trkpt lat="39.47627535" lon="-0.3753573"><ele>-44.8</ele><time>2022-10-30T11:56:30.0000000+00:00</time></trkpt><trkpt lat="39.47627527" lon="-0.37535738"><ele>-44.8</ele><time>2022-10-30T11:56:31.0000000+00:00</time></trkpt><trkpt lat="39.47627518" lon="-0.37535747"><ele>-44.8</ele><time>2022-10-30T11:56:32.0000000+00:00</time></trkpt><trkpt lat="39.47627518" lon="-0.37535772"><ele>-44.8</ele><time>2022-10-30T11:56:33.0000000+00:00</time></trkpt><trkpt lat="39.47627518" lon="-0.37535789"><ele>-44.8</ele><time>2022-10-30T11:56:34.0000000+00:00</time></trkpt><trkpt lat="39.4762751" lon="-0.37535847"><ele>-44.8</ele><time>2022-10-30T11:56:35.0000000+00:00</time></trkpt><trkpt lat="39.4762751" lon="-0.37535864"><ele>-44.8</ele><time>2022-10-30T11:56:36.0000000+00:00</time></trkpt><trkpt lat="39.4762751" lon="-0.37535872"><ele>-44.8</ele><time>2022-10-30T11:56:37.0000000+00:00</time></trkpt><trkpt lat="39.47627502" lon="-0.37535881"><ele>-44.8</ele><time>2022-10-30T11:56:38.0000000+00:00</time></trkpt><trkpt lat="39.47627493" lon="-0.37535889"><ele>-44.8</ele><time>2022-10-30T11:56:39.0000000+00:00</time></trkpt><trkpt lat="39.47627485" lon="-0.37535898"><ele>-44.8</ele><time>2022-10-30T11:56:40.0000000+00:00</time></trkpt><trkpt lat="39.47627476" lon="-0.37535898"><ele>-44.8</ele><time>2022-10-30T11:56:41.0000000+00:00</time></trkpt><trkpt lat="39.47627468" lon="-0.37535931"><ele>-44.8</ele><time>2022-10-30T11:56:42.0000000+00:00</time></trkpt><trkpt lat="39.47627468" lon="-0.37535956"><ele>-45.0</ele><time>2022-10-30T11:56:43.0000000+00:00</time></trkpt><trkpt lat="39.47627451" lon="-0.37536157"><ele>-44.8</ele><time>2022-10-30T11:56:44.0000000+00:00</time></trkpt><trkpt lat="39.47627435" lon="-0.3753625"><ele>-44.8</ele><time>2022-10-30T11:56:45.0000000+00:00</time></trkpt><trkpt lat="39.47627435" lon="-0.37536342"><ele>-44.8</ele><time>2022-10-30T11:56:46.0000000+00:00</time></trkpt><trkpt lat="39.47627418" lon="-0.37536375"><ele>-45.0</ele><time>2022-10-30T11:56:47.0000000+00:00</time></trkpt><trkpt lat="39.47627401" lon="-0.37536392"><ele>-44.8</ele><time>2022-10-30T11:56:48.0000000+00:00</time></trkpt><trkpt lat="39.47627401" lon="-0.37536409"><ele>-44.8</ele><time>2022-10-30T11:56:49.0000000+00:00</time></trkpt><trkpt lat="39.47627393" lon="-0.37536467"><ele>-44.8</ele><time>2022-10-30T11:56:50.0000000+00:00</time></trkpt><trkpt lat="39.47627393" lon="-0.37536509"><ele>-44.8</ele><time>2022-10-30T11:56:51.0000000+00:00</time></trkpt><trkpt lat="39.47627376" lon="-0.37536895"><ele>-44.8</ele><time>2022-10-30T11:56:52.0000000+00:00</time></trkpt><trkpt lat="39.47627368" lon="-0.37537079"><ele>-44.8</ele><time>2022-10-30T11:56:53.0000000+00:00</time></trkpt><trkpt lat="39.47627342" lon="-0.37537138"><ele>-44.8</ele><time>2022-10-30T11:56:54.0000000+00:00</time></trkpt><trkpt lat="39.47627334" lon="-0.37537155"><ele>-45.0</ele><time>2022-10-30T11:56:55.0000000+00:00</time></trkpt><trkpt lat="39.47627334" lon="-0.37537222"><ele>-45.0</ele><time>2022-10-30T11:56:56.0000000+00:00</time></trkpt><trkpt lat="39.47627317" lon="-0.37537239"><ele>-45.0</ele><time>2022-10-30T11:56:57.0000000+00:00</time></trkpt><trkpt lat="39.47627275" lon="-0.37537255"><ele>-45.0</ele><time>2022-10-30T11:56:58.0000000+00:00</time></trkpt><trkpt lat="39.47627217" lon="-0.37537264"><ele>-45.0</ele><time>2022-10-30T11:56:59.0000000+00:00</time></trkpt><trkpt lat="39.47627141" lon="-0.37537272"><ele>-45.0</ele><time>2022-10-30T11:57:00.0000000+00:00</time></trkpt><trkpt lat="39.47627116" lon="-0.37537281"><ele>-45.0</ele><time>2022-10-30T11:57:01.0000000+00:00</time></trkpt><trkpt lat="39.47627099" lon="-0.37537289"><ele>-44.8</ele><time>2022-10-30T11:57:02.0000000+00:00</time></trkpt><trkpt lat="39.47627032" lon="-0.37537322"><ele>-44.8</ele><time>2022-10-30T11:57:03.0000000+00:00</time></trkpt><trkpt lat="39.47626999" lon="-0.37537348"><ele>-44.8</ele><time>2022-10-30T11:57:04.0000000+00:00</time></trkpt><trkpt lat="39.47626965" lon="-0.37537398"><ele>-44.8</ele><time>2022-10-30T11:57:05.0000000+00:00</time></trkpt><trkpt lat="39.4762694" lon="-0.37537406"><ele>-44.8</ele><time>2022-10-30T11:57:06.0000000+00:00</time></trkpt><trkpt lat="39.47626915" lon="-0.37537415"><ele>-44.8</ele><time>2022-10-30T11:57:07.0000000+00:00</time></trkpt><trkpt lat="39.47626898" lon="-0.37537415"><ele>-44.8</ele><time>2022-10-30T11:57:08.0000000+00:00</time></trkpt><trkpt lat="39.47626881" lon="-0.37537415"><ele>-44.8</ele><time>2022-10-30T11:57:09.0000000+00:00</time></trkpt><trkpt lat="39.47626873" lon="-0.37537415"><ele>-44.8</ele><time>2022-10-30T11:57:10.0000000+00:00</time></trkpt><trkpt lat="39.47626856" lon="-0.37537415"><ele>-44.8</ele><time>2022-10-30T11:57:11.0000000+00:00</time></trkpt><trkpt lat="39.47626823" lon="-0.37537415"><ele>-44.8</ele><time>2022-10-30T11:57:12.0000000+00:00</time></trkpt><trkpt lat="39.47626789" lon="-0.37537423"><ele>-44.8</ele><time>2022-10-30T11:57:13.0000000+00:00</time></trkpt><trkpt lat="39.47626764" lon="-0.3753744"><ele>-44.8</ele><time>2022-10-30T11:57:14.0000000+00:00</time></trkpt><trkpt lat="39.47626747" lon="-0.37537457"><ele>-44.8</ele><time>2022-10-30T11:57:15.0000000+00:00</time></trkpt><trkpt lat="39.47626747" lon="-0.37537465"><ele>-44.8</ele><time>2022-10-30T11:57:16.0000000+00:00</time></trkpt><trkpt lat="39.47626739" lon="-0.37537473"><ele>-44.8</ele><time>2022-10-30T11:57:17.0000000+00:00</time></trkpt><trkpt lat="39.47626739" lon="-0.37537482"><ele>-44.8</ele><time>2022-10-30T11:57:18.0000000+00:00</time></trkpt><trkpt lat="39.47626739" lon="-0.37537482"><ele>-44.8</ele><time>2022-10-30T11:57:19.0000000+00:00</time></trkpt><trkpt lat="39.47626739" lon="-0.37537482"><ele>-44.8</ele><time>2022-10-30T11:57:20.0000000+00:00</time></trkpt><trkpt lat="39.47626739" lon="-0.37537482"><ele>-44.8</ele><time>2022-10-30T11:57:21.0000000+00:00</time></trkpt><trkpt lat="39.47626739" lon="-0.37537473"><ele>-44.8</ele><time>2022-10-30T11:57:22.0000000+00:00</time></trkpt><trkpt lat="39.47626739" lon="-0.37537473"><ele>-44.8</ele><time>2022-10-30T11:57:23.0000000+00:00</time></trkpt><trkpt lat="39.47626739" lon="-0.37537473"><ele>-44.8</ele><time>2022-10-30T11:57:24.0000000+00:00</time></trkpt><trkpt lat="39.47626739" lon="-0.37537473"><ele>-44.8</ele><time>2022-10-30T11:57:25.0000000+00:00</time></trkpt><trkpt lat="39.47626739" lon="-0.37537465"><ele>-44.8</ele><time>2022-10-30T11:57:26.0000000+00:00</time></trkpt><trkpt lat="39.47626739" lon="-0.37537465"><ele>-44.8</ele><time>2022-10-30T11:57:27.0000000+00:00</time></trkpt><trkpt lat="39.47626739" lon="-0.37537457"><ele>-44.8</ele><time>2022-10-30T11:57:28.0000000+00:00</time></trkpt><trkpt lat="39.47626747" lon="-0.3753744"><ele>-44.8</ele><time>2022-10-30T11:57:29.0000000+00:00</time></trkpt><trkpt lat="39.47626747" lon="-0.37537423"><ele>-44.8</ele><time>2022-10-30T11:57:30.0000000+00:00</time></trkpt><trkpt lat="39.47626806" lon="-0.37537423"><ele>-44.8</ele><time>2022-10-30T11:57:31.0000000+00:00</time></trkpt><trkpt lat="39.47626915" lon="-0.37537415"><ele>-44.8</ele><time>2022-10-30T11:57:32.0000000+00:00</time></trkpt><trkpt lat="39.47626974" lon="-0.37537415"><ele>-44.8</ele><time>2022-10-30T11:57:33.0000000+00:00</time></trkpt><trkpt lat="39.47626999" lon="-0.37537415"><ele>-44.8</ele><time>2022-10-30T11:57:34.0000000+00:00</time></trkpt><trkpt lat="39.47627015" lon="-0.37537431"><ele>-44.8</ele><time>2022-10-30T11:57:35.0000000+00:00</time></trkpt><trkpt lat="39.47627015" lon="-0.3753744"><ele>-44.8</ele><time>2022-10-30T11:57:36.0000000+00:00</time></trkpt><trkpt lat="39.47627024" lon="-0.37537448"><ele>-44.8</ele><time>2022-10-30T11:57:37.0000000+00:00</time></trkpt><trkpt lat="39.47627024" lon="-0.37537457"><ele>-44.8</ele><time>2022-10-30T11:57:38.0000000+00:00</time></trkpt><trkpt lat="39.47627024" lon="-0.37537465"><ele>-44.8</ele><time>2022-10-30T11:57:39.0000000+00:00</time></trkpt><trkpt lat="39.47627024" lon="-0.37537473"><ele>-44.8</ele><time>2022-10-30T11:57:40.0000000+00:00</time></trkpt><trkpt lat="39.47627024" lon="-0.37537473"><ele>-44.8</ele><time>2022-10-30T11:57:41.0000000+00:00</time></trkpt><trkpt lat="39.47627024" lon="-0.3753749"><ele>-44.8</ele><time>2022-10-30T11:57:42.0000000+00:00</time></trkpt><trkpt lat="39.47627024" lon="-0.37537498"><ele>-44.8</ele><time>2022-10-30T11:57:43.0000000+00:00</time></trkpt><trkpt lat="39.47627024" lon="-0.37537507"><ele>-44.8</ele><time>2022-10-30T11:57:44.0000000+00:00</time></trkpt><trkpt lat="39.47627041" lon="-0.37537515"><ele>-44.8</ele><time>2022-10-30T11:57:45.0000000+00:00</time></trkpt><trkpt lat="39.47627049" lon="-0.37537524"><ele>-44.8</ele><time>2022-10-30T11:57:46.0000000+00:00</time></trkpt><trkpt lat="39.47627066" lon="-0.37537549"><ele>-44.8</ele><time>2022-10-30T11:57:47.0000000+00:00</time></trkpt><trkpt lat="39.47627074" lon="-0.37537633"><ele>-44.8</ele><time>2022-10-30T11:57:48.0000000+00:00</time></trkpt><trkpt lat="39.47627083" lon="-0.37537683"><ele>-44.8</ele><time>2022-10-30T11:57:49.0000000+00:00</time></trkpt><trkpt lat="39.47627083" lon="-0.37537716"><ele>-44.8</ele><time>2022-10-30T11:57:50.0000000+00:00</time></trkpt><trkpt lat="39.47627091" lon="-0.37537733"><ele>-44.8</ele><time>2022-10-30T11:57:51.0000000+00:00</time></trkpt><trkpt lat="39.47627108" lon="-0.37537758"><ele>-44.8</ele><time>2022-10-30T11:57:52.0000000+00:00</time></trkpt><trkpt lat="39.47627116" lon="-0.37537817"><ele>-44.8</ele><time>2022-10-30T11:57:53.0000000+00:00</time></trkpt><trkpt lat="39.47627124" lon="-0.37537867"><ele>-44.8</ele><time>2022-10-30T11:57:54.0000000+00:00</time></trkpt><trkpt lat="39.47627124" lon="-0.37537926"><ele>-44.8</ele><time>2022-10-30T11:57:55.0000000+00:00</time></trkpt><trkpt lat="39.47627124" lon="-0.37537976"><ele>-44.8</ele><time>2022-10-30T11:57:56.0000000+00:00</time></trkpt><trkpt lat="39.47627124" lon="-0.37538018"><ele>-44.8</ele><time>2022-10-30T11:57:57.0000000+00:00</time></trkpt><trkpt lat="39.47627124" lon="-0.37538052"><ele>-44.8</ele><time>2022-10-30T11:57:58.0000000+00:00</time></trkpt><trkpt lat="39.47627133" lon="-0.37538077"><ele>-44.8</ele><time>2022-10-30T11:57:59.0000000+00:00</time></trkpt><trkpt lat="39.47627191" lon="-0.37538094"><ele>-44.8</ele><time>2022-10-30T11:58:00.0000000+00:00</time></trkpt><trkpt lat="39.47627225" lon="-0.37538102"><ele>-44.8</ele><time>2022-10-30T11:58:01.0000000+00:00</time></trkpt><trkpt lat="39.47627242" lon="-0.3753811"><ele>-44.8</ele><time>2022-10-30T11:58:02.0000000+00:00</time></trkpt><trkpt lat="39.47627259" lon="-0.37538119"><ele>-44.8</ele><time>2022-10-30T11:58:03.0000000+00:00</time></trkpt><trkpt lat="39.47627267" lon="-0.37538127"><ele>-44.8</ele><time>2022-10-30T11:58:04.0000000+00:00</time></trkpt><trkpt lat="39.47627275" lon="-0.37538127"><ele>-44.8</ele><time>2022-10-30T11:58:05.0000000+00:00</time></trkpt><trkpt lat="39.47627275" lon="-0.37538135"><ele>-44.8</ele><time>2022-10-30T11:58:06.0000000+00:00</time></trkpt><trkpt lat="39.47627275" lon="-0.37538144"><ele>-44.8</ele><time>2022-10-30T11:58:07.0000000+00:00</time></trkpt><trkpt lat="39.47627275" lon="-0.37538152"><ele>-44.8</ele><time>2022-10-30T11:58:08.0000000+00:00</time></trkpt><trkpt lat="39.47627284" lon="-0.37538161"><ele>-44.8</ele><time>2022-10-30T11:58:09.0000000+00:00</time></trkpt><trkpt lat="39.47627284" lon="-0.37538161"><ele>-44.8</ele><time>2022-10-30T11:58:10.0000000+00:00</time></trkpt><trkpt lat="39.47627284" lon="-0.37538169"><ele>-44.8</ele><time>2022-10-30T11:58:11.0000000+00:00</time></trkpt><trkpt lat="39.47627284" lon="-0.37538169"><ele>-44.8</ele><time>2022-10-30T11:58:12.0000000+00:00</time></trkpt><trkpt lat="39.47627284" lon="-0.37538177"><ele>-44.8</ele><time>2022-10-30T11:58:13.0000000+00:00</time></trkpt><trkpt lat="39.47627284" lon="-0.37538186"><ele>-44.8</ele><time>2022-10-30T11:58:14.0000000+00:00</time></trkpt><trkpt lat="39.47627284" lon="-0.37538186"><ele>-44.8</ele><time>2022-10-30T11:58:15.0000000+00:00</time></trkpt><trkpt lat="39.47627275" lon="-0.37538194"><ele>-44.8</ele><time>2022-10-30T11:58:16.0000000+00:00</time></trkpt><trkpt lat="39.47627259" lon="-0.37538194"><ele>-44.8</ele><time>2022-10-30T11:58:17.0000000+00:00</time></trkpt><trkpt lat="39.47627225" lon="-0.37538211"><ele>-44.8</ele><time>2022-10-30T11:58:18.0000000+00:00</time></trkpt><trkpt lat="39.47627208" lon="-0.37538228"><ele>-44.8</ele><time>2022-10-30T11:58:19.0000000+00:00</time></trkpt><trkpt lat="39.47627183" lon="-0.37538236"><ele>-44.8</ele><time>2022-10-30T11:58:20.0000000+00:00</time></trkpt><trkpt lat="39.47627166" lon="-0.37538253"><ele>-44.8</ele><time>2022-10-30T11:58:21.0000000+00:00</time></trkpt><trkpt lat="39.47627141" lon="-0.37538261"><ele>-44.8</ele><time>2022-10-30T11:58:22.0000000+00:00</time></trkpt><trkpt lat="39.47627116" lon="-0.37538278"><ele>-44.8</ele><time>2022-10-30T11:58:23.0000000+00:00</time></trkpt><trkpt lat="39.47627091" lon="-0.37538303"><ele>-44.8</ele><time>2022-10-30T11:58:24.0000000+00:00</time></trkpt><trkpt lat="39.47627074" lon="-0.37538328"><ele>-44.8</ele><time>2022-10-30T11:58:25.0000000+00:00</time></trkpt><trkpt lat="39.47627057" lon="-0.37538337"><ele>-44.8</ele><time>2022-10-30T11:58:26.0000000+00:00</time></trkpt><trkpt lat="39.47627041" lon="-0.37538345"><ele>-44.8</ele><time>2022-10-30T11:58:27.0000000+00:00</time></trkpt><trkpt lat="39.47627032" lon="-0.37538353"><ele>-44.8</ele><time>2022-10-30T11:58:28.0000000+00:00</time></trkpt><trkpt lat="39.47627024" lon="-0.37538362"><ele>-44.8</ele><time>2022-10-30T11:58:29.0000000+00:00</time></trkpt><trkpt lat="39.47627007" lon="-0.37538362"><ele>-44.8</ele><time>2022-10-30T11:58:30.0000000+00:00</time></trkpt><trkpt lat="39.47626948" lon="-0.37537959"><ele>-44.8</ele><time>2022-10-30T11:58:31.0000000+00:00</time></trkpt><trkpt lat="39.47626663" lon="-0.37536258"><ele>-44.8</ele><time>2022-10-30T11:58:32.0000000+00:00</time></trkpt><trkpt lat="39.4762606" lon="-0.37534799"><ele>-44.8</ele><time>2022-10-30T11:58:33.0000000+00:00</time></trkpt><trkpt lat="39.47625448" lon="-0.37533349"><ele>-44.8</ele><time>2022-10-30T11:58:34.0000000+00:00</time></trkpt><trkpt lat="39.47624937" lon="-0.37531296"><ele>-44.8</ele><time>2022-10-30T11:58:35.0000000+00:00</time></trkpt><trkpt lat="39.47624425" lon="-0.37529209"><ele>-44.8</ele><time>2022-10-30T11:58:36.0000000+00:00</time></trkpt><trkpt lat="39.47623939" lon="-0.3752765"><ele>-44.8</ele><time>2022-10-30T11:58:37.0000000+00:00</time></trkpt><trkpt lat="39.47623436" lon="-0.37526141"><ele>-44.8</ele><time>2022-10-30T11:58:38.0000000+00:00</time></trkpt><trkpt lat="39.47623017" lon="-0.37524565"><ele>-44.8</ele><time>2022-10-30T11:58:39.0000000+00:00</time></trkpt><trkpt lat="39.47622431" lon="-0.37523224"><ele>-44.8</ele><time>2022-10-30T11:58:40.0000000+00:00</time></trkpt><trkpt lat="39.47621718" lon="-0.37522621"><ele>-44.8</ele><time>2022-10-30T11:58:41.0000000+00:00</time></trkpt><trkpt lat="39.47620997" lon="-0.37522218"><ele>-44.8</ele><time>2022-10-30T11:58:42.0000000+00:00</time></trkpt><trkpt lat="39.47619899" lon="-0.37521715"><ele>-44.8</ele><time>2022-10-30T11:58:43.0000000+00:00</time></trkpt><trkpt lat="39.47618994" lon="-0.37521397"><ele>-45.0</ele><time>2022-10-30T11:58:44.0000000+00:00</time></trkpt><trkpt lat="39.47617896" lon="-0.37521414"><ele>-45.0</ele><time>2022-10-30T11:58:45.0000000+00:00</time></trkpt><trkpt lat="39.47617108" lon="-0.37521732"><ele>-45.2</ele><time>2022-10-30T11:58:46.0000000+00:00</time></trkpt><trkpt lat="39.47616253" lon="-0.3752164"><ele>-45.2</ele><time>2022-10-30T11:58:47.0000000+00:00</time></trkpt><trkpt lat="39.47615105" lon="-0.37521296"><ele>-45.2</ele><time>2022-10-30T11:58:48.0000000+00:00</time></trkpt><trkpt lat="39.47614174" lon="-0.37520894"><ele>-45.2</ele><time>2022-10-30T11:58:49.0000000+00:00</time></trkpt><trkpt lat="39.47613202" lon="-0.37520441"><ele>-45.2</ele><time>2022-10-30T11:58:50.0000000+00:00</time></trkpt><trkpt lat="39.47612205" lon="-0.37519947"><ele>-45.2</ele><time>2022-10-30T11:58:51.0000000+00:00</time></trkpt><trkpt lat="39.47611509" lon="-0.37519586"><ele>-45.2</ele><time>2022-10-30T11:58:52.0000000+00:00</time></trkpt><trkpt lat="39.47610662" lon="-0.37519511"><ele>-45.2</ele><time>2022-10-30T11:58:53.0000000+00:00</time></trkpt><trkpt lat="39.47609766" lon="-0.3751993"><ele>-45.2</ele><time>2022-10-30T11:58:54.0000000+00:00</time></trkpt><trkpt lat="39.47609103" lon="-0.37520743"><ele>-45.4</ele><time>2022-10-30T11:58:55.0000000+00:00</time></trkpt><trkpt lat="39.4760845" lon="-0.37521506"><ele>-45.4</ele><time>2022-10-30T11:58:56.0000000+00:00</time></trkpt><trkpt lat="39.47607905" lon="-0.37521967"><ele>-45.4</ele><time>2022-10-30T11:58:57.0000000+00:00</time></trkpt><trkpt lat="39.47606362" lon="-0.37522176"><ele>-45.4</ele><time>2022-10-30T11:58:58.0000000+00:00</time></trkpt><trkpt lat="39.47605357" lon="-0.37521782"><ele>-45.4</ele><time>2022-10-30T11:58:59.0000000+00:00</time></trkpt><trkpt lat="39.47604996" lon="-0.3752164"><ele>-45.4</ele><time>2022-10-30T11:59:00.0000000+00:00</time></trkpt><trkpt lat="39.47604124" lon="-0.37522101"><ele>-45.4</ele><time>2022-10-30T11:59:01.0000000+00:00</time></trkpt><trkpt lat="39.47603311" lon="-0.37522537"><ele>-45.4</ele><time>2022-10-30T11:59:02.0000000+00:00</time></trkpt><trkpt lat="39.47601995" lon="-0.3752226"><ele>-45.4</ele><time>2022-10-30T11:59:03.0000000+00:00</time></trkpt><trkpt lat="39.47600948" lon="-0.37522428"><ele>-45.4</ele><time>2022-10-30T11:59:04.0000000+00:00</time></trkpt><trkpt lat="39.47599716" lon="-0.37521866"><ele>-45.4</ele><time>2022-10-30T11:59:05.0000000+00:00</time></trkpt><trkpt lat="39.47598391" lon="-0.3752086"><ele>-45.4</ele><time>2022-10-30T11:59:06.0000000+00:00</time></trkpt><trkpt lat="39.47597411" lon="-0.37520399"><ele>-45.4</ele><time>2022-10-30T11:59:07.0000000+00:00</time></trkpt><trkpt lat="39.4759679" lon="-0.37520433"><ele>-45.4</ele><time>2022-10-30T11:59:08.0000000+00:00</time></trkpt><trkpt lat="39.47596732" lon="-0.37521355"><ele>-45.4</ele><time>2022-10-30T11:59:09.0000000+00:00</time></trkpt><trkpt lat="39.47597059" lon="-0.3752221"><ele>-45.4</ele><time>2022-10-30T11:59:10.0000000+00:00</time></trkpt><trkpt lat="39.47596564" lon="-0.37522478"><ele>-45.4</ele><time>2022-10-30T11:59:11.0000000+00:00</time></trkpt><trkpt lat="39.4759648" lon="-0.37522419"><ele>-45.4</ele><time>2022-10-30T11:59:12.0000000+00:00</time></trkpt><trkpt lat="39.4759555" lon="-0.37522051"><ele>-45.4</ele><time>2022-10-30T11:59:13.0000000+00:00</time></trkpt><trkpt lat="39.47594477" lon="-0.37522084"><ele>-45.4</ele><time>2022-10-30T11:59:14.0000000+00:00</time></trkpt><trkpt lat="39.47594116" lon="-0.37522386"><ele>-45.4</ele><time>2022-10-30T11:59:15.0000000+00:00</time></trkpt><trkpt lat="39.47594267" lon="-0.37523828"><ele>-45.4</ele><time>2022-10-30T11:59:16.0000000+00:00</time></trkpt><trkpt lat="39.47594184" lon="-0.37524398"><ele>-45.4</ele><time>2022-10-30T11:59:17.0000000+00:00</time></trkpt><trkpt lat="39.4759384" lon="-0.37524381"><ele>-45.4</ele><time>2022-10-30T11:59:18.0000000+00:00</time></trkpt><trkpt lat="39.47593689" lon="-0.37524548"><ele>-45.4</ele><time>2022-10-30T11:59:19.0000000+00:00</time></trkpt><trkpt lat="39.4759332" lon="-0.37523903"><ele>-45.4</ele><time>2022-10-30T11:59:20.0000000+00:00</time></trkpt><trkpt lat="39.4759275" lon="-0.37524196"><ele>-45.4</ele><time>2022-10-30T11:59:21.0000000+00:00</time></trkpt><trkpt lat="39.47591895" lon="-0.37524456"><ele>-45.4</ele><time>2022-10-30T11:59:22.0000000+00:00</time></trkpt><trkpt lat="39.47591543" lon="-0.3752454"><ele>-45.4</ele><time>2022-10-30T11:59:23.0000000+00:00</time></trkpt><trkpt lat="39.47591267" lon="-0.37524037"><ele>-45.4</ele><time>2022-10-30T11:59:24.0000000+00:00</time></trkpt><trkpt lat="39.47590889" lon="-0.37524255"><ele>-45.4</ele><time>2022-10-30T11:59:25.0000000+00:00</time></trkpt><trkpt lat="39.47590663" lon="-0.3752449"><ele>-45.4</ele><time>2022-10-30T11:59:26.0000000+00:00</time></trkpt><trkpt lat="39.47590579" lon="-0.3752459"><ele>-45.4</ele><time>2022-10-30T11:59:27.0000000+00:00</time></trkpt><trkpt lat="39.47590546" lon="-0.37524632"><ele>-45.4</ele><time>2022-10-30T11:59:28.0000000+00:00</time></trkpt><trkpt lat="39.47590546" lon="-0.37524632"><ele>-45.4</ele><time>2022-10-30T11:59:29.0000000+00:00</time></trkpt><trkpt lat="39.47590546" lon="-0.37524632"><ele>-45.4</ele><time>2022-10-30T11:59:30.0000000+00:00</time></trkpt><trkpt lat="39.47590546" lon="-0.37524632"><ele>-45.4</ele><time>2022-10-30T11:59:31.0000000+00:00</time></trkpt><trkpt lat="39.47590546" lon="-0.37524632"><ele>-45.4</ele><time>2022-10-30T11:59:32.0000000+00:00</time></trkpt><trkpt lat="39.47590546" lon="-0.37524632"><ele>-45.4</ele><time>2022-10-30T11:59:33.0000000+00:00</time></trkpt><trkpt lat="39.47590546" lon="-0.37524632"><ele>-45.4</ele><time>2022-10-30T11:59:34.0000000+00:00</time></trkpt><trkpt lat="39.47590546" lon="-0.37524632"><ele>-45.4</ele><time>2022-10-30T11:59:35.0000000+00:00</time></trkpt><trkpt lat="39.47590546" lon="-0.37524632"><ele>-45.4</ele><time>2022-10-30T11:59:36.0000000+00:00</time></trkpt><trkpt lat="39.47590546" lon="-0.37524632"><ele>-45.4</ele><time>2022-10-30T11:59:37.0000000+00:00</time></trkpt><trkpt lat="39.47590546" lon="-0.37524632"><ele>-45.4</ele><time>2022-10-30T11:59:38.0000000+00:00</time></trkpt><trkpt lat="39.47590546" lon="-0.37524632"><ele>-45.4</ele><time>2022-10-30T11:59:39.0000000+00:00</time></trkpt><trkpt lat="39.47590546" lon="-0.37524632"><ele>-45.4</ele><time>2022-10-30T11:59:40.0000000+00:00</time></trkpt><trkpt lat="39.47590546" lon="-0.37524632"><ele>-45.4</ele><time>2022-10-30T11:59:41.0000000+00:00</time></trkpt><trkpt lat="39.47590546" lon="-0.37524632"><ele>-45.4</ele><time>2022-10-30T11:59:42.0000000+00:00</time></trkpt><trkpt lat="39.47590546" lon="-0.37524632"><ele>-45.4</ele><time>2022-10-30T11:59:43.0000000+00:00</time></trkpt><trkpt lat="39.47589926" lon="-0.37524632"><ele>-45.4</ele><time>2022-10-30T11:59:44.0000000+00:00</time></trkpt><trkpt lat="39.47589582" lon="-0.37524783"><ele>-45.4</ele><time>2022-10-30T11:59:45.0000000+00:00</time></trkpt><trkpt lat="39.47589356" lon="-0.37524959"><ele>-45.4</ele><time>2022-10-30T11:59:46.0000000+00:00</time></trkpt><trkpt lat="39.47589138" lon="-0.37524976"><ele>-45.4</ele><time>2022-10-30T11:59:47.0000000+00:00</time></trkpt><trkpt lat="39.47588668" lon="-0.37524917"><ele>-45.4</ele><time>2022-10-30T11:59:48.0000000+00:00</time></trkpt><trkpt lat="39.47586715" lon="-0.37524926"><ele>-45.4</ele><time>2022-10-30T11:59:49.0000000+00:00</time></trkpt><trkpt lat="39.47584896" lon="-0.375249"><ele>-45.4</ele><time>2022-10-30T11:59:50.0000000+00:00</time></trkpt><trkpt lat="39.47583446" lon="-0.37524532"><ele>-45.4</ele><time>2022-10-30T11:59:51.0000000+00:00</time></trkpt><trkpt lat="39.4758286" lon="-0.37525127"><ele>-45.4</ele><time>2022-10-30T11:59:52.0000000+00:00</time></trkpt><trkpt lat="39.4758141" lon="-0.37524414"><ele>-45.4</ele><time>2022-10-30T11:59:53.0000000+00:00</time></trkpt><trkpt lat="39.47580001" lon="-0.37523777"><ele>-45.4</ele><time>2022-10-30T11:59:54.0000000+00:00</time></trkpt><trkpt lat="39.47579247" lon="-0.37524439"><ele>-45.4</ele><time>2022-10-30T11:59:55.0000000+00:00</time></trkpt><trkpt lat="39.475784" lon="-0.37524968"><ele>-45.4</ele><time>2022-10-30T11:59:56.0000000+00:00</time></trkpt><trkpt lat="39.47577286" lon="-0.37525018"><ele>-45.2</ele><time>2022-10-30T11:59:57.0000000+00:00</time></trkpt><trkpt lat="39.47577587" lon="-0.37527331"><ele>-45.2</ele><time>2022-10-30T11:59:58.0000000+00:00</time></trkpt><trkpt lat="39.47577462" lon="-0.37528832"><ele>-45.4</ele><time>2022-10-30T11:59:59.0000000+00:00</time></trkpt><trkpt lat="39.47576825" lon="-0.37529167"><ele>-45.4</ele><time>2022-10-30T12:00:00.0000000+00:00</time></trkpt><trkpt lat="39.47576154" lon="-0.37529762"><ele>-45.4</ele><time>2022-10-30T12:00:01.0000000+00:00</time></trkpt><trkpt lat="39.47575836" lon="-0.3753034"><ele>-45.4</ele><time>2022-10-30T12:00:02.0000000+00:00</time></trkpt><trkpt lat="39.47574771" lon="-0.37530156"><ele>-45.4</ele><time>2022-10-30T12:00:03.0000000+00:00</time></trkpt><trkpt lat="39.47574059" lon="-0.37531103"><ele>-45.4</ele><time>2022-10-30T12:00:04.0000000+00:00</time></trkpt><trkpt lat="39.47573296" lon="-0.37531807"><ele>-45.2</ele><time>2022-10-30T12:00:05.0000000+00:00</time></trkpt><trkpt lat="39.47572533" lon="-0.37532478"><ele>-45.2</ele><time>2022-10-30T12:00:06.0000000+00:00</time></trkpt><trkpt lat="39.47571578" lon="-0.37532746"><ele>-45.2</ele><time>2022-10-30T12:00:07.0000000+00:00</time></trkpt><trkpt lat="39.47570262" lon="-0.37532"><ele>-45.2</ele><time>2022-10-30T12:00:08.0000000+00:00</time></trkpt><trkpt lat="39.47569147" lon="-0.37532461"><ele>-45.2</ele><time>2022-10-30T12:00:09.0000000+00:00</time></trkpt><trkpt lat="39.47568233" lon="-0.37533542"><ele>-45.2</ele><time>2022-10-30T12:00:10.0000000+00:00</time></trkpt><trkpt lat="39.4756732" lon="-0.37533584"><ele>-45.2</ele><time>2022-10-30T12:00:11.0000000+00:00</time></trkpt><trkpt lat="39.47566314" lon="-0.37534087"><ele>-45.2</ele><time>2022-10-30T12:00:12.0000000+00:00</time></trkpt><trkpt lat="39.47565576" lon="-0.37535545"><ele>-45.2</ele><time>2022-10-30T12:00:13.0000000+00:00</time></trkpt><trkpt lat="39.47564671" lon="-0.37536954"><ele>-45.2</ele><time>2022-10-30T12:00:14.0000000+00:00</time></trkpt><trkpt lat="39.47563439" lon="-0.3753682"><ele>-45.2</ele><time>2022-10-30T12:00:15.0000000+00:00</time></trkpt><trkpt lat="39.47562894" lon="-0.37537884"><ele>-45.2</ele><time>2022-10-30T12:00:16.0000000+00:00</time></trkpt><trkpt lat="39.47562433" lon="-0.3753899"><ele>-45.2</ele><time>2022-10-30T12:00:17.0000000+00:00</time></trkpt><trkpt lat="39.47563414" lon="-0.37541865"><ele>-45.2</ele><time>2022-10-30T12:00:18.0000000+00:00</time></trkpt><trkpt lat="39.47562215" lon="-0.37541346"><ele>-45.2</ele><time>2022-10-30T12:00:19.0000000+00:00</time></trkpt><trkpt lat="39.47561561" lon="-0.37541505"><ele>-45.2</ele><time>2022-10-30T12:00:20.0000000+00:00</time></trkpt><trkpt lat="39.47560513" lon="-0.37541396"><ele>-45.2</ele><time>2022-10-30T12:00:21.0000000+00:00</time></trkpt><trkpt lat="39.47559315" lon="-0.37540793"><ele>-45.2</ele><time>2022-10-30T12:00:22.0000000+00:00</time></trkpt><trkpt lat="39.475582" lon="-0.37540156"><ele>-45.4</ele><time>2022-10-30T12:00:23.0000000+00:00</time></trkpt><trkpt lat="39.47556976" lon="-0.37540223"><ele>-45.4</ele><time>2022-10-30T12:00:24.0000000+00:00</time></trkpt><trkpt lat="39.47555459" lon="-0.37540834"><ele>-45.4</ele><time>2022-10-30T12:00:25.0000000+00:00</time></trkpt><trkpt lat="39.47554428" lon="-0.37541346"><ele>-45.4</ele><time>2022-10-30T12:00:26.0000000+00:00</time></trkpt><trkpt lat="39.47553372" lon="-0.37541991"><ele>-45.4</ele><time>2022-10-30T12:00:27.0000000+00:00</time></trkpt><trkpt lat="39.47552769" lon="-0.37543165"><ele>-45.6</ele><time>2022-10-30T12:00:28.0000000+00:00</time></trkpt><trkpt lat="39.47552869" lon="-0.37545034"><ele>-45.6</ele><time>2022-10-30T12:00:29.0000000+00:00</time></trkpt><trkpt lat="39.47552425" lon="-0.37546618"><ele>-45.6</ele><time>2022-10-30T12:00:30.0000000+00:00</time></trkpt><trkpt lat="39.47552274" lon="-0.37548521"><ele>-45.6</ele><time>2022-10-30T12:00:31.0000000+00:00</time></trkpt><trkpt lat="39.47551922" lon="-0.37549669"><ele>-45.6</ele><time>2022-10-30T12:00:32.0000000+00:00</time></trkpt><trkpt lat="39.47550874" lon="-0.37549719"><ele>-45.6</ele><time>2022-10-30T12:00:33.0000000+00:00</time></trkpt><trkpt lat="39.47549449" lon="-0.37550348"><ele>-45.6</ele><time>2022-10-30T12:00:34.0000000+00:00</time></trkpt><trkpt lat="39.47548561" lon="-0.37550859"><ele>-45.6</ele><time>2022-10-30T12:00:35.0000000+00:00</time></trkpt><trkpt lat="39.47548678" lon="-0.37552075"><ele>-45.6</ele><time>2022-10-30T12:00:36.0000000+00:00</time></trkpt><trkpt lat="39.47548402" lon="-0.37553147"><ele>-45.6</ele><time>2022-10-30T12:00:37.0000000+00:00</time></trkpt><trkpt lat="39.47547781" lon="-0.37553893"><ele>-45.8</ele><time>2022-10-30T12:00:38.0000000+00:00</time></trkpt><trkpt lat="39.47547421" lon="-0.37554606"><ele>-45.8</ele><time>2022-10-30T12:00:39.0000000+00:00</time></trkpt><trkpt lat="39.47546734" lon="-0.37554472"><ele>-45.8</ele><time>2022-10-30T12:00:40.0000000+00:00</time></trkpt><trkpt lat="39.47545853" lon="-0.37554187"><ele>-45.8</ele><time>2022-10-30T12:00:41.0000000+00:00</time></trkpt><trkpt lat="39.47545074" lon="-0.37553977"><ele>-45.8</ele><time>2022-10-30T12:00:42.0000000+00:00</time></trkpt><trkpt lat="39.47544546" lon="-0.3755334"><ele>-46.0</ele><time>2022-10-30T12:00:43.0000000+00:00</time></trkpt><trkpt lat="39.47544152" lon="-0.37553064"><ele>-46.0</ele><time>2022-10-30T12:00:44.0000000+00:00</time></trkpt><trkpt lat="39.47543892" lon="-0.3755251"><ele>-46.0</ele><time>2022-10-30T12:00:45.0000000+00:00</time></trkpt><trkpt lat="39.47543766" lon="-0.37551278"><ele>-46.0</ele><time>2022-10-30T12:00:46.0000000+00:00</time></trkpt><trkpt lat="39.47543498" lon="-0.3755075"><ele>-46.0</ele><time>2022-10-30T12:00:47.0000000+00:00</time></trkpt><trkpt lat="39.47543364" lon="-0.37550289"><ele>-46.0</ele><time>2022-10-30T12:00:48.0000000+00:00</time></trkpt><trkpt lat="39.47542459" lon="-0.37549879"><ele>-46.0</ele><time>2022-10-30T12:00:49.0000000+00:00</time></trkpt><trkpt lat="39.47542207" lon="-0.37550557"><ele>-46.0</ele><time>2022-10-30T12:00:50.0000000+00:00</time></trkpt><trkpt lat="39.47542199" lon="-0.37550541"><ele>-46.0</ele><time>2022-10-30T12:00:51.0000000+00:00</time></trkpt><trkpt lat="39.47541998" lon="-0.37550733"><ele>-45.8</ele><time>2022-10-30T12:00:52.0000000+00:00</time></trkpt><trkpt lat="39.47543096" lon="-0.37551907"><ele>-45.8</ele><time>2022-10-30T12:00:53.0000000+00:00</time></trkpt><trkpt lat="39.4754385" lon="-0.375522"><ele>-45.8</ele><time>2022-10-30T12:00:54.0000000+00:00</time></trkpt><trkpt lat="39.47544219" lon="-0.37552561"><ele>-45.8</ele><time>2022-10-30T12:00:55.0000000+00:00</time></trkpt><trkpt lat="39.47545099" lon="-0.37553541"><ele>-45.8</ele><time>2022-10-30T12:00:56.0000000+00:00</time></trkpt><trkpt lat="39.4754561" lon="-0.37554296"><ele>-45.8</ele><time>2022-10-30T12:00:57.0000000+00:00</time></trkpt><trkpt lat="39.47546021" lon="-0.37554966"><ele>-45.8</ele><time>2022-10-30T12:00:58.0000000+00:00</time></trkpt><trkpt lat="39.47546633" lon="-0.37555913"><ele>-45.8</ele><time>2022-10-30T12:00:59.0000000+00:00</time></trkpt><trkpt lat="39.47547731" lon="-0.37557632"><ele>-45.8</ele><time>2022-10-30T12:01:00.0000000+00:00</time></trkpt><trkpt lat="39.47548309" lon="-0.37558403"><ele>-45.8</ele><time>2022-10-30T12:01:01.0000000+00:00</time></trkpt><trkpt lat="39.47549005" lon="-0.37559208"><ele>-45.8</ele><time>2022-10-30T12:01:02.0000000+00:00</time></trkpt><trkpt lat="39.47548611" lon="-0.37559534"><ele>-45.8</ele><time>2022-10-30T12:01:03.0000000+00:00</time></trkpt><trkpt lat="39.47547605" lon="-0.37558772"><ele>-45.8</ele><time>2022-10-30T12:01:04.0000000+00:00</time></trkpt><trkpt lat="39.47547488" lon="-0.37558185"><ele>-45.8</ele><time>2022-10-30T12:01:05.0000000+00:00</time></trkpt><trkpt lat="39.47547974" lon="-0.37558889"><ele>-45.8</ele><time>2022-10-30T12:01:06.0000000+00:00</time></trkpt><trkpt lat="39.47547413" lon="-0.37558118"><ele>-45.6</ele><time>2022-10-30T12:01:07.0000000+00:00</time></trkpt><trkpt lat="39.47547513" lon="-0.3755816"><ele>-45.6</ele><time>2022-10-30T12:01:08.0000000+00:00</time></trkpt><trkpt lat="39.47547706" lon="-0.37558076"><ele>-45.6</ele><time>2022-10-30T12:01:09.0000000+00:00</time></trkpt><trkpt lat="39.4754753" lon="-0.37557422"><ele>-45.6</ele><time>2022-10-30T12:01:10.0000000+00:00</time></trkpt><trkpt lat="39.47547404" lon="-0.37556777"><ele>-45.6</ele><time>2022-10-30T12:01:11.0000000+00:00</time></trkpt><trkpt lat="39.47547798" lon="-0.37556349"><ele>-45.6</ele><time>2022-10-30T12:01:12.0000000+00:00</time></trkpt><trkpt lat="39.47548125" lon="-0.37556165"><ele>-45.6</ele><time>2022-10-30T12:01:13.0000000+00:00</time></trkpt><trkpt lat="39.47547974" lon="-0.37556433"><ele>-45.6</ele><time>2022-10-30T12:01:14.0000000+00:00</time></trkpt><trkpt lat="39.47548008" lon="-0.37557087"><ele>-45.6</ele><time>2022-10-30T12:01:15.0000000+00:00</time></trkpt><trkpt lat="39.47548284" lon="-0.37557841"><ele>-45.6</ele><time>2022-10-30T12:01:16.0000000+00:00</time></trkpt><trkpt lat="39.47548511" lon="-0.37558101"><ele>-45.6</ele><time>2022-10-30T12:01:17.0000000+00:00</time></trkpt><trkpt lat="39.47548628" lon="-0.37558026"><ele>-45.6</ele><time>2022-10-30T12:01:18.0000000+00:00</time></trkpt><trkpt lat="39.47548586" lon="-0.37558017"><ele>-45.8</ele><time>2022-10-30T12:01:19.0000000+00:00</time></trkpt><trkpt lat="39.47548351" lon="-0.37557749"><ele>-45.8</ele><time>2022-10-30T12:01:20.0000000+00:00</time></trkpt><trkpt lat="39.47547823" lon="-0.37557464"><ele>-45.8</ele><time>2022-10-30T12:01:21.0000000+00:00</time></trkpt><trkpt lat="39.47547731" lon="-0.37557607"><ele>-45.8</ele><time>2022-10-30T12:01:22.0000000+00:00</time></trkpt><trkpt lat="39.47546968" lon="-0.37556894"><ele>-45.8</ele><time>2022-10-30T12:01:23.0000000+00:00</time></trkpt><trkpt lat="39.47547153" lon="-0.37556718"><ele>-45.8</ele><time>2022-10-30T12:01:24.0000000+00:00</time></trkpt><trkpt lat="39.47547111" lon="-0.37556425"><ele>-45.8</ele><time>2022-10-30T12:01:25.0000000+00:00</time></trkpt><trkpt lat="39.47546608" lon="-0.37556416"><ele>-45.8</ele><time>2022-10-30T12:01:26.0000000+00:00</time></trkpt><trkpt lat="39.47546776" lon="-0.37556626"><ele>-45.8</ele><time>2022-10-30T12:01:27.0000000+00:00</time></trkpt><trkpt lat="39.47546742" lon="-0.3755702"><ele>-45.8</ele><time>2022-10-30T12:01:28.0000000+00:00</time></trkpt><trkpt lat="39.47546432" lon="-0.37557154"><ele>-45.8</ele><time>2022-10-30T12:01:29.0000000+00:00</time></trkpt><trkpt lat="39.47545761" lon="-0.37556903"><ele>-45.8</ele><time>2022-10-30T12:01:30.0000000+00:00</time></trkpt><trkpt lat="39.47545409" lon="-0.3755702"><ele>-45.8</ele><time>2022-10-30T12:01:31.0000000+00:00</time></trkpt><trkpt lat="39.47544663" lon="-0.37556517"><ele>-45.8</ele><time>2022-10-30T12:01:32.0000000+00:00</time></trkpt><trkpt lat="39.47544278" lon="-0.37556131"><ele>-45.8</ele><time>2022-10-30T12:01:33.0000000+00:00</time></trkpt><trkpt lat="39.47543993" lon="-0.3755619"><ele>-45.8</ele><time>2022-10-30T12:01:34.0000000+00:00</time></trkpt><trkpt lat="39.47543456" lon="-0.37556266"><ele>-45.8</ele><time>2022-10-30T12:01:35.0000000+00:00</time></trkpt><trkpt lat="39.47542417" lon="-0.37556576"><ele>-45.8</ele><time>2022-10-30T12:01:36.0000000+00:00</time></trkpt><trkpt lat="39.47541453" lon="-0.37556701"><ele>-45.8</ele><time>2022-10-30T12:01:37.0000000+00:00</time></trkpt><trkpt lat="39.47541487" lon="-0.37556785"><ele>-45.8</ele><time>2022-10-30T12:01:38.0000000+00:00</time></trkpt><trkpt lat="39.47542727" lon="-0.3755738"><ele>-45.8</ele><time>2022-10-30T12:01:39.0000000+00:00</time></trkpt><trkpt lat="39.47543255" lon="-0.37558512"><ele>-45.8</ele><time>2022-10-30T12:01:40.0000000+00:00</time></trkpt><trkpt lat="39.47543255" lon="-0.3755966"><ele>-45.8</ele><time>2022-10-30T12:01:41.0000000+00:00</time></trkpt><trkpt lat="39.47543574" lon="-0.3756106"><ele>-45.8</ele><time>2022-10-30T12:01:42.0000000+00:00</time></trkpt><trkpt lat="39.47542953" lon="-0.3756137"><ele>-45.8</ele><time>2022-10-30T12:01:43.0000000+00:00</time></trkpt><trkpt lat="39.47543238" lon="-0.37561915"><ele>-45.8</ele><time>2022-10-30T12:01:44.0000000+00:00</time></trkpt><trkpt lat="39.47543582" lon="-0.37562309"><ele>-45.8</ele><time>2022-10-30T12:01:45.0000000+00:00</time></trkpt><trkpt lat="39.47542945" lon="-0.37562166"><ele>-45.8</ele><time>2022-10-30T12:01:46.0000000+00:00</time></trkpt><trkpt lat="39.47542073" lon="-0.37561496"><ele>-45.8</ele><time>2022-10-30T12:01:47.0000000+00:00</time></trkpt><trkpt lat="39.47541445" lon="-0.37562007"><ele>-45.8</ele><time>2022-10-30T12:01:48.0000000+00:00</time></trkpt><trkpt lat="39.47540447" lon="-0.37562099"><ele>-45.8</ele><time>2022-10-30T12:01:49.0000000+00:00</time></trkpt><trkpt lat="39.47539517" lon="-0.37562326"><ele>-45.8</ele><time>2022-10-30T12:01:50.0000000+00:00</time></trkpt><trkpt lat="39.47538083" lon="-0.37562619"><ele>-45.8</ele><time>2022-10-30T12:01:51.0000000+00:00</time></trkpt><trkpt lat="39.47536491" lon="-0.37562594"><ele>-45.8</ele><time>2022-10-30T12:01:52.0000000+00:00</time></trkpt><trkpt lat="39.47535418" lon="-0.37562644"><ele>-45.8</ele><time>2022-10-30T12:01:53.0000000+00:00</time></trkpt><trkpt lat="39.47532652" lon="-0.37560188"><ele>-45.8</ele><time>2022-10-30T12:01:54.0000000+00:00</time></trkpt><trkpt lat="39.47530498" lon="-0.37559543"><ele>-45.8</ele><time>2022-10-30T12:01:55.0000000+00:00</time></trkpt><trkpt lat="39.47529559" lon="-0.375594"><ele>-45.8</ele><time>2022-10-30T12:01:56.0000000+00:00</time></trkpt><trkpt lat="39.47528838" lon="-0.37559551"><ele>-45.8</ele><time>2022-10-30T12:01:57.0000000+00:00</time></trkpt><trkpt lat="39.4752779" lon="-0.37560104"><ele>-45.8</ele><time>2022-10-30T12:01:58.0000000+00:00</time></trkpt><trkpt lat="39.47527036" lon="-0.37562619"><ele>-45.8</ele><time>2022-10-30T12:01:59.0000000+00:00</time></trkpt><trkpt lat="39.47525762" lon="-0.37564438"><ele>-45.8</ele><time>2022-10-30T12:02:00.0000000+00:00</time></trkpt><trkpt lat="39.47524614" lon="-0.37565494"><ele>-45.8</ele><time>2022-10-30T12:02:01.0000000+00:00</time></trkpt><trkpt lat="39.47523625" lon="-0.375666"><ele>-45.8</ele><time>2022-10-30T12:02:02.0000000+00:00</time></trkpt><trkpt lat="39.47523206" lon="-0.37567313"><ele>-45.8</ele><time>2022-10-30T12:02:03.0000000+00:00</time></trkpt><trkpt lat="39.47523373" lon="-0.37567313"><ele>-45.8</ele><time>2022-10-30T12:02:04.0000000+00:00</time></trkpt><trkpt lat="39.47523281" lon="-0.37566508"><ele>-45.8</ele><time>2022-10-30T12:02:05.0000000+00:00</time></trkpt><trkpt lat="39.47522887" lon="-0.37566072"><ele>-45.8</ele><time>2022-10-30T12:02:06.0000000+00:00</time></trkpt><trkpt lat="39.4752246" lon="-0.3756629"><ele>-45.8</ele><time>2022-10-30T12:02:07.0000000+00:00</time></trkpt><trkpt lat="39.47521923" lon="-0.37567481"><ele>-45.8</ele><time>2022-10-30T12:02:08.0000000+00:00</time></trkpt><trkpt lat="39.47521697" lon="-0.37568612"><ele>-45.8</ele><time>2022-10-30T12:02:09.0000000+00:00</time></trkpt><trkpt lat="39.47522166" lon="-0.37569107"><ele>-45.8</ele><time>2022-10-30T12:02:10.0000000+00:00</time></trkpt><trkpt lat="39.47522376" lon="-0.3756862"><ele>-45.8</ele><time>2022-10-30T12:02:11.0000000+00:00</time></trkpt><trkpt lat="39.47522703" lon="-0.3756862"><ele>-45.8</ele><time>2022-10-30T12:02:12.0000000+00:00</time></trkpt><trkpt lat="39.47523105" lon="-0.37568771"><ele>-45.8</ele><time>2022-10-30T12:02:13.0000000+00:00</time></trkpt><trkpt lat="39.47523222" lon="-0.37568771"><ele>-46.2</ele><time>2022-10-30T12:02:14.0000000+00:00</time></trkpt><trkpt lat="39.47523004" lon="-0.37568562"><ele>-46.4</ele><time>2022-10-30T12:02:15.0000000+00:00</time></trkpt><trkpt lat="39.47522719" lon="-0.37568721"><ele>-46.6</ele><time>2022-10-30T12:02:16.0000000+00:00</time></trkpt><trkpt lat="39.47522669" lon="-0.37568746"><ele>-46.6</ele><time>2022-10-30T12:02:17.0000000+00:00</time></trkpt><trkpt lat="39.47522468" lon="-0.37568495"><ele>-46.6</ele><time>2022-10-30T12:02:18.0000000+00:00</time></trkpt><trkpt lat="39.47522535" lon="-0.37568218"><ele>-46.6</ele><time>2022-10-30T12:02:19.0000000+00:00</time></trkpt><trkpt lat="39.47522828" lon="-0.37568478"><ele>-46.6</ele><time>2022-10-30T12:02:20.0000000+00:00</time></trkpt><trkpt lat="39.47523264" lon="-0.37568411"><ele>-46.6</ele><time>2022-10-30T12:02:21.0000000+00:00</time></trkpt><trkpt lat="39.47523323" lon="-0.37568034"><ele>-46.6</ele><time>2022-10-30T12:02:22.0000000+00:00</time></trkpt><trkpt lat="39.4752391" lon="-0.37567791"><ele>-46.6</ele><time>2022-10-30T12:02:23.0000000+00:00</time></trkpt><trkpt lat="39.47524421" lon="-0.37567807"><ele>-46.6</ele><time>2022-10-30T12:02:24.0000000+00:00</time></trkpt><trkpt lat="39.47524848" lon="-0.37567983"><ele>-46.6</ele><time>2022-10-30T12:02:25.0000000+00:00</time></trkpt><trkpt lat="39.47525184" lon="-0.37568168"><ele>-46.6</ele><time>2022-10-30T12:02:26.0000000+00:00</time></trkpt><trkpt lat="39.47525737" lon="-0.37568595"><ele>-46.6</ele><time>2022-10-30T12:02:27.0000000+00:00</time></trkpt><trkpt lat="39.47526785" lon="-0.37569517"><ele>-46.6</ele><time>2022-10-30T12:02:28.0000000+00:00</time></trkpt><trkpt lat="39.47527992" lon="-0.37569341"><ele>-46.6</ele><time>2022-10-30T12:02:29.0000000+00:00</time></trkpt><trkpt lat="39.47528478" lon="-0.37569392"><ele>-46.8</ele><time>2022-10-30T12:02:30.0000000+00:00</time></trkpt><trkpt lat="39.47528369" lon="-0.37569174"><ele>-46.8</ele><time>2022-10-30T12:02:31.0000000+00:00</time></trkpt><trkpt lat="39.47528495" lon="-0.37569081"><ele>-46.8</ele><time>2022-10-30T12:02:32.0000000+00:00</time></trkpt><trkpt lat="39.47528444" lon="-0.37568545"><ele>-46.8</ele><time>2022-10-30T12:02:33.0000000+00:00</time></trkpt><trkpt lat="39.47528453" lon="-0.3756857"><ele>-46.8</ele><time>2022-10-30T12:02:34.0000000+00:00</time></trkpt><trkpt lat="39.47529207" lon="-0.37569542"><ele>-46.8</ele><time>2022-10-30T12:02:35.0000000+00:00</time></trkpt><trkpt lat="39.47533071" lon="-0.37569459"><ele>-46.8</ele><time>2022-10-30T12:02:36.0000000+00:00</time></trkpt><trkpt lat="39.47535083" lon="-0.37569693"><ele>-46.8</ele><time>2022-10-30T12:02:37.0000000+00:00</time></trkpt><trkpt lat="39.47536231" lon="-0.37569249"><ele>-46.8</ele><time>2022-10-30T12:02:38.0000000+00:00</time></trkpt><trkpt lat="39.47536499" lon="-0.37568905"><ele>-46.8</ele><time>2022-10-30T12:02:39.0000000+00:00</time></trkpt><trkpt lat="39.47537036" lon="-0.37569165"><ele>-46.8</ele><time>2022-10-30T12:02:40.0000000+00:00</time></trkpt><trkpt lat="39.47537824" lon="-0.37569266"><ele>-46.8</ele><time>2022-10-30T12:02:41.0000000+00:00</time></trkpt><trkpt lat="39.47537614" lon="-0.3756914"><ele>-46.8</ele><time>2022-10-30T12:02:42.0000000+00:00</time></trkpt><trkpt lat="39.47537321" lon="-0.37567732"><ele>-46.8</ele><time>2022-10-30T12:02:43.0000000+00:00</time></trkpt><trkpt lat="39.47536768" lon="-0.37566584"><ele>-46.8</ele><time>2022-10-30T12:02:44.0000000+00:00</time></trkpt><trkpt lat="39.47536156" lon="-0.37565871"><ele>-46.8</ele><time>2022-10-30T12:02:45.0000000+00:00</time></trkpt><trkpt lat="39.47535829" lon="-0.37564689"><ele>-46.8</ele><time>2022-10-30T12:02:46.0000000+00:00</time></trkpt><trkpt lat="39.4753577" lon="-0.37563164"><ele>-46.8</ele><time>2022-10-30T12:02:47.0000000+00:00</time></trkpt><trkpt lat="39.47535711" lon="-0.37562108"><ele>-46.8</ele><time>2022-10-30T12:02:48.0000000+00:00</time></trkpt><trkpt lat="39.47535234" lon="-0.37561035"><ele>-46.8</ele><time>2022-10-30T12:02:49.0000000+00:00</time></trkpt><trkpt lat="39.47533934" lon="-0.37561026"><ele>-46.8</ele><time>2022-10-30T12:02:50.0000000+00:00</time></trkpt><trkpt lat="39.47533105" lon="-0.37559878"><ele>-46.8</ele><time>2022-10-30T12:02:51.0000000+00:00</time></trkpt><trkpt lat="39.47532753" lon="-0.37558344"><ele>-46.8</ele><time>2022-10-30T12:02:52.0000000+00:00</time></trkpt><trkpt lat="39.47532325" lon="-0.37556668"><ele>-46.8</ele><time>2022-10-30T12:02:53.0000000+00:00</time></trkpt><trkpt lat="39.47531621" lon="-0.37555821"><ele>-46.8</ele><time>2022-10-30T12:02:54.0000000+00:00</time></trkpt><trkpt lat="39.47531638" lon="-0.37555142"><ele>-46.8</ele><time>2022-10-30T12:02:55.0000000+00:00</time></trkpt><trkpt lat="39.47531353" lon="-0.37554841"><ele>-46.8</ele><time>2022-10-30T12:02:56.0000000+00:00</time></trkpt><trkpt lat="39.47531059" lon="-0.37554497"><ele>-46.8</ele><time>2022-10-30T12:02:57.0000000+00:00</time></trkpt><trkpt lat="39.47530707" lon="-0.37554354"><ele>-46.8</ele><time>2022-10-30T12:02:58.0000000+00:00</time></trkpt><trkpt lat="39.47530431" lon="-0.37554313"><ele>-46.6</ele><time>2022-10-30T12:02:59.0000000+00:00</time></trkpt><trkpt lat="39.47531453" lon="-0.37554396"><ele>-46.6</ele><time>2022-10-30T12:03:00.0000000+00:00</time></trkpt><trkpt lat="39.47532157" lon="-0.37554673"><ele>-46.6</ele><time>2022-10-30T12:03:01.0000000+00:00</time></trkpt><trkpt lat="39.47532677" lon="-0.37554958"><ele>-46.6</ele><time>2022-10-30T12:03:02.0000000+00:00</time></trkpt><trkpt lat="39.47531001" lon="-0.37553432"><ele>-46.4</ele><time>2022-10-30T12:03:03.0000000+00:00</time></trkpt><trkpt lat="39.47531118" lon="-0.37553055"><ele>-46.4</ele><time>2022-10-30T12:03:04.0000000+00:00</time></trkpt><trkpt lat="39.47531529" lon="-0.37552896"><ele>-46.4</ele><time>2022-10-30T12:03:05.0000000+00:00</time></trkpt><trkpt lat="39.47530531" lon="-0.37552443"><ele>-46.4</ele><time>2022-10-30T12:03:06.0000000+00:00</time></trkpt><trkpt lat="39.47530733" lon="-0.37552008"><ele>-46.2</ele><time>2022-10-30T12:03:07.0000000+00:00</time></trkpt><trkpt lat="39.47530674" lon="-0.37552234"><ele>-46.2</ele><time>2022-10-30T12:03:08.0000000+00:00</time></trkpt><trkpt lat="39.47530707" lon="-0.37552209"><ele>-46.2</ele><time>2022-10-30T12:03:09.0000000+00:00</time></trkpt><trkpt lat="39.47531034" lon="-0.37551966"><ele>-46.2</ele><time>2022-10-30T12:03:10.0000000+00:00</time></trkpt><trkpt lat="39.47531328" lon="-0.37551681"><ele>-46.0</ele><time>2022-10-30T12:03:11.0000000+00:00</time></trkpt><trkpt lat="39.47531638" lon="-0.37550851"><ele>-46.0</ele><time>2022-10-30T12:03:12.0000000+00:00</time></trkpt><trkpt lat="39.47531554" lon="-0.3755018"><ele>-46.0</ele><time>2022-10-30T12:03:13.0000000+00:00</time></trkpt><trkpt lat="39.47530984" lon="-0.37550021"><ele>-46.0</ele><time>2022-10-30T12:03:14.0000000+00:00</time></trkpt><trkpt lat="39.47530917" lon="-0.37549987"><ele>-46.0</ele><time>2022-10-30T12:03:15.0000000+00:00</time></trkpt><trkpt lat="39.47531227" lon="-0.37549778"><ele>-46.0</ele><time>2022-10-30T12:03:16.0000000+00:00</time></trkpt><trkpt lat="39.47531219" lon="-0.37549267"><ele>-46.0</ele><time>2022-10-30T12:03:17.0000000+00:00</time></trkpt><trkpt lat="39.47531277" lon="-0.37548848"><ele>-46.0</ele><time>2022-10-30T12:03:18.0000000+00:00</time></trkpt><trkpt lat="39.47531579" lon="-0.3754904"><ele>-46.0</ele><time>2022-10-30T12:03:19.0000000+00:00</time></trkpt><trkpt lat="39.47531814" lon="-0.37549091"><ele>-46.0</ele><time>2022-10-30T12:03:20.0000000+00:00</time></trkpt><trkpt lat="39.47531462" lon="-0.37548688"><ele>-46.0</ele><time>2022-10-30T12:03:21.0000000+00:00</time></trkpt><trkpt lat="39.47531219" lon="-0.37548395"><ele>-46.0</ele><time>2022-10-30T12:03:22.0000000+00:00</time></trkpt><trkpt lat="39.47530154" lon="-0.3754604"><ele>-46.0</ele><time>2022-10-30T12:03:23.0000000+00:00</time></trkpt><trkpt lat="39.47530012" lon="-0.37545084"><ele>-46.0</ele><time>2022-10-30T12:03:24.0000000+00:00</time></trkpt><trkpt lat="39.47505872" lon="-0.37537901"><ele>-46.2</ele><time>2022-10-30T12:11:38.0000000+00:00</time></trkpt><trkpt lat="39.47506534" lon="-0.37545721"><ele>-46.2</ele><time>2022-10-30T12:11:39.0000000+00:00</time></trkpt><trkpt lat="39.47497666" lon="-0.37540357"><ele>-46.2</ele><time>2022-10-30T12:11:40.0000000+00:00</time></trkpt><trkpt lat="39.47485864" lon="-0.37539016"><ele>-46.2</ele><time>2022-10-30T12:11:45.0000000+00:00</time></trkpt><trkpt lat="39.47486107" lon="-0.37538957"><ele>-46.2</ele><time>2022-10-30T12:11:46.0000000+00:00</time></trkpt><trkpt lat="39.47495772" lon="-0.37544154"><ele>-46.2</ele><time>2022-10-30T12:11:47.0000000+00:00</time></trkpt><trkpt lat="39.47500424" lon="-0.37533693"><ele>-46.2</ele><time>2022-10-30T12:11:48.0000000+00:00</time></trkpt><trkpt lat="39.47501496" lon="-0.37535596"><ele>-46.2</ele><time>2022-10-30T12:11:49.0000000+00:00</time></trkpt><trkpt lat="39.4750334" lon="-0.37532033"><ele>-46.2</ele><time>2022-10-30T12:11:50.0000000+00:00</time></trkpt><trkpt lat="39.47504086" lon="-0.37528806"><ele>-46.2</ele><time>2022-10-30T12:11:51.0000000+00:00</time></trkpt><trkpt lat="39.47506819" lon="-0.37528966"><ele>-46.2</ele><time>2022-10-30T12:11:52.0000000+00:00</time></trkpt><trkpt lat="39.475078" lon="-0.37530491"><ele>-46.2</ele><time>2022-10-30T12:11:53.0000000+00:00</time></trkpt><trkpt lat="39.47509593" lon="-0.37533383"><ele>-46.2</ele><time>2022-10-30T12:11:54.0000000+00:00</time></trkpt><trkpt lat="39.47510306" lon="-0.37535143"><ele>-46.2</ele><time>2022-10-30T12:11:55.0000000+00:00</time></trkpt><trkpt lat="39.47509099" lon="-0.37533953"><ele>-46.4</ele><time>2022-10-30T12:11:56.0000000+00:00</time></trkpt><trkpt lat="39.47508638" lon="-0.37533148"><ele>-46.4</ele><time>2022-10-30T12:11:57.0000000+00:00</time></trkpt><trkpt lat="39.47508462" lon="-0.37532327"><ele>-46.4</ele><time>2022-10-30T12:11:58.0000000+00:00</time></trkpt><trkpt lat="39.47508135" lon="-0.37531841"><ele>-46.4</ele><time>2022-10-30T12:11:59.0000000+00:00</time></trkpt><trkpt lat="39.4750785" lon="-0.3753283"><ele>-46.4</ele><time>2022-10-30T12:12:00.0000000+00:00</time></trkpt><trkpt lat="39.47507515" lon="-0.37533467"><ele>-46.4</ele><time>2022-10-30T12:12:01.0000000+00:00</time></trkpt><trkpt lat="39.47506744" lon="-0.3753252"><ele>-46.4</ele><time>2022-10-30T12:12:02.0000000+00:00</time></trkpt><trkpt lat="39.47506283" lon="-0.37530642"><ele>-46.4</ele><time>2022-10-30T12:12:03.0000000+00:00</time></trkpt><trkpt lat="39.47505847" lon="-0.37529502"><ele>-46.4</ele><time>2022-10-30T12:12:04.0000000+00:00</time></trkpt><trkpt lat="39.47505226" lon="-0.37528748"><ele>-46.4</ele><time>2022-10-30T12:12:05.0000000+00:00</time></trkpt><trkpt lat="39.47504162" lon="-0.37528127"><ele>-46.4</ele><time>2022-10-30T12:12:06.0000000+00:00</time></trkpt><trkpt lat="39.47502871" lon="-0.37527599"><ele>-46.4</ele><time>2022-10-30T12:12:07.0000000+00:00</time></trkpt><trkpt lat="39.47501488" lon="-0.37526853"><ele>-46.4</ele><time>2022-10-30T12:12:08.0000000+00:00</time></trkpt><trkpt lat="39.47500289" lon="-0.37526066"><ele>-46.4</ele><time>2022-10-30T12:12:09.0000000+00:00</time></trkpt><trkpt lat="39.47498806" lon="-0.3752604"><ele>-46.4</ele><time>2022-10-30T12:12:10.0000000+00:00</time></trkpt><trkpt lat="39.47497238" lon="-0.37526099"><ele>-46.4</ele><time>2022-10-30T12:12:11.0000000+00:00</time></trkpt><trkpt lat="39.47496233" lon="-0.37526124"><ele>-46.4</ele><time>2022-10-30T12:12:12.0000000+00:00</time></trkpt><trkpt lat="39.47494707" lon="-0.37526895"><ele>-46.2</ele><time>2022-10-30T12:12:13.0000000+00:00</time></trkpt><trkpt lat="39.47493483" lon="-0.37527113"><ele>-46.4</ele><time>2022-10-30T12:12:14.0000000+00:00</time></trkpt><trkpt lat="39.47492461" lon="-0.37527055"><ele>-46.4</ele><time>2022-10-30T12:12:15.0000000+00:00</time></trkpt><trkpt lat="39.47491354" lon="-0.37526837"><ele>-46.4</ele><time>2022-10-30T12:12:16.0000000+00:00</time></trkpt><trkpt lat="39.47490181" lon="-0.37527264"><ele>-46.4</ele><time>2022-10-30T12:12:17.0000000+00:00</time></trkpt><trkpt lat="39.47489334" lon="-0.37527356"><ele>-46.4</ele><time>2022-10-30T12:12:18.0000000+00:00</time></trkpt><trkpt lat="39.47488748" lon="-0.3752765"><ele>-46.4</ele><time>2022-10-30T12:12:19.0000000+00:00</time></trkpt><trkpt lat="39.47488337" lon="-0.37528044"><ele>-46.4</ele><time>2022-10-30T12:12:20.0000000+00:00</time></trkpt><trkpt lat="39.47487566" lon="-0.37528765"><ele>-46.4</ele><time>2022-10-30T12:12:21.0000000+00:00</time></trkpt><trkpt lat="39.47486962" lon="-0.37529226"><ele>-46.4</ele><time>2022-10-30T12:12:22.0000000+00:00</time></trkpt><trkpt lat="39.47486166" lon="-0.37529578"><ele>-46.6</ele><time>2022-10-30T12:12:23.0000000+00:00</time></trkpt><trkpt lat="39.47484959" lon="-0.37530189"><ele>-46.6</ele><time>2022-10-30T12:12:24.0000000+00:00</time></trkpt><trkpt lat="39.47483484" lon="-0.37530717"><ele>-46.6</ele><time>2022-10-30T12:12:25.0000000+00:00</time></trkpt><trkpt lat="39.47482687" lon="-0.3753107"><ele>-46.6</ele><time>2022-10-30T12:12:26.0000000+00:00</time></trkpt><trkpt lat="39.4748195" lon="-0.37531539"><ele>-46.6</ele><time>2022-10-30T12:12:27.0000000+00:00</time></trkpt><trkpt lat="39.47480718" lon="-0.37532394"><ele>-46.6</ele><time>2022-10-30T12:12:28.0000000+00:00</time></trkpt><trkpt lat="39.47479108" lon="-0.3753345"><ele>-46.6</ele><time>2022-10-30T12:12:29.0000000+00:00</time></trkpt><trkpt lat="39.47478379" lon="-0.37533961"><ele>-46.8</ele><time>2022-10-30T12:12:30.0000000+00:00</time></trkpt><trkpt lat="39.47477658" lon="-0.3753433"><ele>-46.8</ele><time>2022-10-30T12:12:31.0000000+00:00</time></trkpt><trkpt lat="39.47476393" lon="-0.3753366"><ele>-46.8</ele><time>2022-10-30T12:12:32.0000000+00:00</time></trkpt><trkpt lat="39.47474783" lon="-0.37532712"><ele>-46.8</ele><time>2022-10-30T12:12:33.0000000+00:00</time></trkpt><trkpt lat="39.4747397" lon="-0.37531975"><ele>-46.8</ele><time>2022-10-30T12:12:34.0000000+00:00</time></trkpt><trkpt lat="39.47473199" lon="-0.37531841"><ele>-46.8</ele><time>2022-10-30T12:12:35.0000000+00:00</time></trkpt><trkpt lat="39.47472814" lon="-0.37532897"><ele>-46.8</ele><time>2022-10-30T12:12:36.0000000+00:00</time></trkpt><trkpt lat="39.47470768" lon="-0.37532863"><ele>-46.8</ele><time>2022-10-30T12:12:37.0000000+00:00</time></trkpt><trkpt lat="39.47469385" lon="-0.37530818"><ele>-46.8</ele><time>2022-10-30T12:12:38.0000000+00:00</time></trkpt><trkpt lat="39.47468053" lon="-0.37528781"><ele>-46.8</ele><time>2022-10-30T12:12:39.0000000+00:00</time></trkpt><trkpt lat="39.47467801" lon="-0.37528371"><ele>-46.8</ele><time>2022-10-30T12:12:40.0000000+00:00</time></trkpt><trkpt lat="39.47467114" lon="-0.37527298"><ele>-46.8</ele><time>2022-10-30T12:12:41.0000000+00:00</time></trkpt><trkpt lat="39.47466737" lon="-0.37527247"><ele>-46.8</ele><time>2022-10-30T12:12:42.0000000+00:00</time></trkpt><trkpt lat="39.47466318" lon="-0.37526602"><ele>-47.0</ele><time>2022-10-30T12:12:43.0000000+00:00</time></trkpt><trkpt lat="39.47465672" lon="-0.37526753"><ele>-47.0</ele><time>2022-10-30T12:12:44.0000000+00:00</time></trkpt><trkpt lat="39.4746506" lon="-0.37526862"><ele>-47.0</ele><time>2022-10-30T12:12:45.0000000+00:00</time></trkpt><trkpt lat="39.47464272" lon="-0.37527717"><ele>-47.0</ele><time>2022-10-30T12:12:46.0000000+00:00</time></trkpt><trkpt lat="39.47463392" lon="-0.37527809"><ele>-47.0</ele><time>2022-10-30T12:12:47.0000000+00:00</time></trkpt><trkpt lat="39.47462034" lon="-0.37528153"><ele>-47.0</ele><time>2022-10-30T12:12:48.0000000+00:00</time></trkpt><trkpt lat="39.47460786" lon="-0.375291"><ele>-47.0</ele><time>2022-10-30T12:12:49.0000000+00:00</time></trkpt><trkpt lat="39.47460081" lon="-0.37529695"><ele>-47.0</ele><time>2022-10-30T12:12:50.0000000+00:00</time></trkpt><trkpt lat="39.47459679" lon="-0.37530533"><ele>-47.0</ele><time>2022-10-30T12:12:51.0000000+00:00</time></trkpt><trkpt lat="39.4745843" lon="-0.37529904"><ele>-47.0</ele><time>2022-10-30T12:12:52.0000000+00:00</time></trkpt><trkpt lat="39.47457684" lon="-0.37529452"><ele>-47.0</ele><time>2022-10-30T12:12:53.0000000+00:00</time></trkpt><trkpt lat="39.47456754" lon="-0.37529167"><ele>-47.0</ele><time>2022-10-30T12:12:54.0000000+00:00</time></trkpt><trkpt lat="39.47455673" lon="-0.37529192"><ele>-47.0</ele><time>2022-10-30T12:12:55.0000000+00:00</time></trkpt><trkpt lat="39.47454717" lon="-0.37529209"><ele>-47.0</ele><time>2022-10-30T12:12:56.0000000+00:00</time></trkpt><trkpt lat="39.4745377" lon="-0.37529527"><ele>-47.0</ele><time>2022-10-30T12:12:57.0000000+00:00</time></trkpt><trkpt lat="39.47453066" lon="-0.37529569"><ele>-47.0</ele><time>2022-10-30T12:12:58.0000000+00:00</time></trkpt><trkpt lat="39.47452135" lon="-0.37529837"><ele>-47.0</ele><time>2022-10-30T12:12:59.0000000+00:00</time></trkpt><trkpt lat="39.47451549" lon="-0.37530617"><ele>-47.0</ele><time>2022-10-30T12:13:00.0000000+00:00</time></trkpt><trkpt lat="39.47450895" lon="-0.37530919"><ele>-47.2</ele><time>2022-10-30T12:13:01.0000000+00:00</time></trkpt><trkpt lat="39.47450509" lon="-0.37531204"><ele>-47.2</ele><time>2022-10-30T12:13:02.0000000+00:00</time></trkpt><trkpt lat="39.47450132" lon="-0.37531153"><ele>-47.2</ele><time>2022-10-30T12:13:03.0000000+00:00</time></trkpt><trkpt lat="39.47449956" lon="-0.3753143"><ele>-47.2</ele><time>2022-10-30T12:13:04.0000000+00:00</time></trkpt><trkpt lat="39.47449847" lon="-0.37531463"><ele>-47.2</ele><time>2022-10-30T12:13:05.0000000+00:00</time></trkpt><trkpt lat="39.47449814" lon="-0.37531765"><ele>-47.2</ele><time>2022-10-30T12:13:06.0000000+00:00</time></trkpt><trkpt lat="39.47450543" lon="-0.37533157"><ele>-47.2</ele><time>2022-10-30T12:13:07.0000000+00:00</time></trkpt><trkpt lat="39.4745066" lon="-0.37533257"><ele>-47.2</ele><time>2022-10-30T12:13:08.0000000+00:00</time></trkpt><trkpt lat="39.47450786" lon="-0.37533592"><ele>-47.2</ele><time>2022-10-30T12:13:09.0000000+00:00</time></trkpt><trkpt lat="39.47450836" lon="-0.37533685"><ele>-47.2</ele><time>2022-10-30T12:13:10.0000000+00:00</time></trkpt><trkpt lat="39.47450618" lon="-0.37533358"><ele>-47.2</ele><time>2022-10-30T12:13:11.0000000+00:00</time></trkpt><trkpt lat="39.47450736" lon="-0.37533567"><ele>-47.2</ele><time>2022-10-30T12:13:12.0000000+00:00</time></trkpt><trkpt lat="39.47450736" lon="-0.37533567"><ele>-47.2</ele><time>2022-10-30T12:13:13.0000000+00:00</time></trkpt><trkpt lat="39.47450736" lon="-0.37533567"><ele>-47.2</ele><time>2022-10-30T12:13:14.0000000+00:00</time></trkpt><trkpt lat="39.47450736" lon="-0.37533567"><ele>-47.2</ele><time>2022-10-30T12:13:15.0000000+00:00</time></trkpt><trkpt lat="39.47450736" lon="-0.37533567"><ele>-47.2</ele><time>2022-10-30T12:13:16.0000000+00:00</time></trkpt><trkpt lat="39.47450736" lon="-0.37533567"><ele>-47.2</ele><time>2022-10-30T12:13:17.0000000+00:00</time></trkpt><trkpt lat="39.47450736" lon="-0.37533567"><ele>-47.2</ele><time>2022-10-30T12:13:18.0000000+00:00</time></trkpt><trkpt lat="39.47450283" lon="-0.375335"><ele>-47.2</ele><time>2022-10-30T12:13:19.0000000+00:00</time></trkpt><trkpt lat="39.4744885" lon="-0.37533525"><ele>-47.2</ele><time>2022-10-30T12:13:20.0000000+00:00</time></trkpt><trkpt lat="39.47447458" lon="-0.37533676"><ele>-47.2</ele><time>2022-10-30T12:13:21.0000000+00:00</time></trkpt><trkpt lat="39.47445908" lon="-0.37533785"><ele>-47.2</ele><time>2022-10-30T12:13:22.0000000+00:00</time></trkpt><trkpt lat="39.47444374" lon="-0.37533249"><ele>-47.2</ele><time>2022-10-30T12:13:23.0000000+00:00</time></trkpt><trkpt lat="39.4744346" lon="-0.37533014"><ele>-47.0</ele><time>2022-10-30T12:13:24.0000000+00:00</time></trkpt><trkpt lat="39.47442094" lon="-0.37532964"><ele>-47.0</ele><time>2022-10-30T12:13:25.0000000+00:00</time></trkpt><trkpt lat="39.47440728" lon="-0.37532687"><ele>-47.0</ele><time>2022-10-30T12:13:26.0000000+00:00</time></trkpt><trkpt lat="39.47439479" lon="-0.37532377"><ele>-47.0</ele><time>2022-10-30T12:13:27.0000000+00:00</time></trkpt><trkpt lat="39.47438096" lon="-0.37532603"><ele>-47.0</ele><time>2022-10-30T12:13:28.0000000+00:00</time></trkpt><trkpt lat="39.47436738" lon="-0.37532654"><ele>-47.0</ele><time>2022-10-30T12:13:29.0000000+00:00</time></trkpt><trkpt lat="39.47435221" lon="-0.37533509"><ele>-47.2</ele><time>2022-10-30T12:13:30.0000000+00:00</time></trkpt><trkpt lat="39.47434181" lon="-0.37534095"><ele>-47.2</ele><time>2022-10-30T12:13:31.0000000+00:00</time></trkpt><trkpt lat="39.47432849" lon="-0.37533928"><ele>-47.2</ele><time>2022-10-30T12:13:32.0000000+00:00</time></trkpt><trkpt lat="39.47432287" lon="-0.37533886"><ele>-47.4</ele><time>2022-10-30T12:13:33.0000000+00:00</time></trkpt><trkpt lat="39.47431449" lon="-0.37533861"><ele>-47.4</ele><time>2022-10-30T12:13:34.0000000+00:00</time></trkpt><trkpt lat="39.47430401" lon="-0.37534238"><ele>-47.4</ele><time>2022-10-30T12:13:35.0000000+00:00</time></trkpt><trkpt lat="39.47429555" lon="-0.37535009"><ele>-47.4</ele><time>2022-10-30T12:13:36.0000000+00:00</time></trkpt><trkpt lat="39.47428599" lon="-0.37535462"><ele>-47.4</ele><time>2022-10-30T12:13:37.0000000+00:00</time></trkpt><trkpt lat="39.47427526" lon="-0.37535814"><ele>-47.4</ele><time>2022-10-30T12:13:38.0000000+00:00</time></trkpt><trkpt lat="39.47426587" lon="-0.37536048"><ele>-47.4</ele><time>2022-10-30T12:13:39.0000000+00:00</time></trkpt><trkpt lat="39.47425498" lon="-0.37536208"><ele>-47.4</ele><time>2022-10-30T12:13:40.0000000+00:00</time></trkpt><trkpt lat="39.47424408" lon="-0.37536258"><ele>-47.4</ele><time>2022-10-30T12:13:41.0000000+00:00</time></trkpt><trkpt lat="39.47422916" lon="-0.3753604"><ele>-47.6</ele><time>2022-10-30T12:13:42.0000000+00:00</time></trkpt><trkpt lat="39.47421617" lon="-0.3753599"><ele>-47.6</ele><time>2022-10-30T12:13:43.0000000+00:00</time></trkpt><trkpt lat="39.4742046" lon="-0.37535629"><ele>-47.6</ele><time>2022-10-30T12:13:44.0000000+00:00</time></trkpt><trkpt lat="39.47419044" lon="-0.37535152"><ele>-47.6</ele><time>2022-10-30T12:13:45.0000000+00:00</time></trkpt><trkpt lat="39.47417828" lon="-0.37534841"><ele>-47.6</ele><time>2022-10-30T12:13:46.0000000+00:00</time></trkpt><trkpt lat="39.47416789" lon="-0.37534674"><ele>-47.6</ele><time>2022-10-30T12:13:47.0000000+00:00</time></trkpt><trkpt lat="39.47416152" lon="-0.37534598"><ele>-47.6</ele><time>2022-10-30T12:13:48.0000000+00:00</time></trkpt><trkpt lat="39.47416227" lon="-0.37533157"><ele>-47.6</ele><time>2022-10-30T12:13:49.0000000+00:00</time></trkpt><trkpt lat="39.4741523" lon="-0.37533224"><ele>-47.6</ele><time>2022-10-30T12:13:50.0000000+00:00</time></trkpt><trkpt lat="39.47413864" lon="-0.37534297"><ele>-47.6</ele><time>2022-10-30T12:13:51.0000000+00:00</time></trkpt><trkpt lat="39.47412405" lon="-0.37534246"><ele>-47.6</ele><time>2022-10-30T12:13:52.0000000+00:00</time></trkpt><trkpt lat="39.47411542" lon="-0.37532922"><ele>-47.6</ele><time>2022-10-30T12:13:53.0000000+00:00</time></trkpt><trkpt lat="39.47410477" lon="-0.37532285"><ele>-47.6</ele><time>2022-10-30T12:13:54.0000000+00:00</time></trkpt><trkpt lat="39.47409463" lon="-0.37533224"><ele>-47.6</ele><time>2022-10-30T12:13:55.0000000+00:00</time></trkpt><trkpt lat="39.47408625" lon="-0.37534137"><ele>-47.6</ele><time>2022-10-30T12:13:56.0000000+00:00</time></trkpt><trkpt lat="39.47407829" lon="-0.37534724"><ele>-47.6</ele><time>2022-10-30T12:13:57.0000000+00:00</time></trkpt><trkpt lat="39.47407016" lon="-0.37535076"><ele>-47.8</ele><time>2022-10-30T12:13:58.0000000+00:00</time></trkpt><trkpt lat="39.47406337" lon="-0.37535688"><ele>-47.8</ele><time>2022-10-30T12:13:59.0000000+00:00</time></trkpt><trkpt lat="39.47405859" lon="-0.37536342"><ele>-47.8</ele><time>2022-10-30T12:14:00.0000000+00:00</time></trkpt><trkpt lat="39.47405038" lon="-0.37536518"><ele>-47.8</ele><time>2022-10-30T12:14:01.0000000+00:00</time></trkpt><trkpt lat="39.47404283" lon="-0.37536937"><ele>-47.6</ele><time>2022-10-30T12:14:02.0000000+00:00</time></trkpt><trkpt lat="39.47403244" lon="-0.37536912"><ele>-47.6</ele><time>2022-10-30T12:14:03.0000000+00:00</time></trkpt><trkpt lat="39.47401978" lon="-0.37537264"><ele>-47.6</ele><time>2022-10-30T12:14:04.0000000+00:00</time></trkpt><trkpt lat="39.47400729" lon="-0.37537524"><ele>-47.6</ele><time>2022-10-30T12:14:05.0000000+00:00</time></trkpt><trkpt lat="39.47399841" lon="-0.3753806"><ele>-47.6</ele><time>2022-10-30T12:14:06.0000000+00:00</time></trkpt><trkpt lat="39.47398701" lon="-0.37538848"><ele>-47.6</ele><time>2022-10-30T12:14:07.0000000+00:00</time></trkpt><trkpt lat="39.47397569" lon="-0.3753889"><ele>-47.6</ele><time>2022-10-30T12:14:08.0000000+00:00</time></trkpt><trkpt lat="39.47396454" lon="-0.3753899"><ele>-47.6</ele><time>2022-10-30T12:14:09.0000000+00:00</time></trkpt><trkpt lat="39.47395105" lon="-0.37539326"><ele>-47.6</ele><time>2022-10-30T12:14:10.0000000+00:00</time></trkpt><trkpt lat="39.47394108" lon="-0.3753977"><ele>-47.6</ele><time>2022-10-30T12:14:11.0000000+00:00</time></trkpt><trkpt lat="39.47392683" lon="-0.37540172"><ele>-47.8</ele><time>2022-10-30T12:14:12.0000000+00:00</time></trkpt><trkpt lat="39.47391325" lon="-0.37541036"><ele>-47.8</ele><time>2022-10-30T12:14:13.0000000+00:00</time></trkpt><trkpt lat="39.47389858" lon="-0.37541832"><ele>-47.8</ele><time>2022-10-30T12:14:14.0000000+00:00</time></trkpt><trkpt lat="39.47389321" lon="-0.37542645"><ele>-47.8</ele><time>2022-10-30T12:14:15.0000000+00:00</time></trkpt><trkpt lat="39.47388492" lon="-0.37542829"><ele>-47.8</ele><time>2022-10-30T12:14:16.0000000+00:00</time></trkpt><trkpt lat="39.47387402" lon="-0.37543793"><ele>-47.8</ele><time>2022-10-30T12:14:17.0000000+00:00</time></trkpt><trkpt lat="39.47386371" lon="-0.37544363"><ele>-47.8</ele><time>2022-10-30T12:14:18.0000000+00:00</time></trkpt><trkpt lat="39.47385399" lon="-0.3754464"><ele>-47.8</ele><time>2022-10-30T12:14:19.0000000+00:00</time></trkpt><trkpt lat="39.47384669" lon="-0.37545336"><ele>-47.8</ele><time>2022-10-30T12:14:20.0000000+00:00</time></trkpt><trkpt lat="39.47383731" lon="-0.37546484"><ele>-47.8</ele><time>2022-10-30T12:14:21.0000000+00:00</time></trkpt><trkpt lat="39.47382742" lon="-0.37547548"><ele>-47.8</ele><time>2022-10-30T12:14:22.0000000+00:00</time></trkpt><trkpt lat="39.47382096" lon="-0.37547984"><ele>-47.8</ele><time>2022-10-30T12:14:23.0000000+00:00</time></trkpt><trkpt lat="39.47381401" lon="-0.37548378"><ele>-47.8</ele><time>2022-10-30T12:14:24.0000000+00:00</time></trkpt><trkpt lat="39.4738099" lon="-0.37548965"><ele>-47.8</ele><time>2022-10-30T12:14:25.0000000+00:00</time></trkpt><trkpt lat="39.47380344" lon="-0.37549501"><ele>-47.8</ele><time>2022-10-30T12:14:26.0000000+00:00</time></trkpt><trkpt lat="39.47379096" lon="-0.37549719"><ele>-47.8</ele><time>2022-10-30T12:14:27.0000000+00:00</time></trkpt><trkpt lat="39.47378685" lon="-0.37549971"><ele>-48.0</ele><time>2022-10-30T12:14:28.0000000+00:00</time></trkpt><trkpt lat="39.47378743" lon="-0.37550474"><ele>-48.0</ele><time>2022-10-30T12:14:29.0000000+00:00</time></trkpt><trkpt lat="39.473784" lon="-0.37550557"><ele>-48.0</ele><time>2022-10-30T12:14:30.0000000+00:00</time></trkpt><trkpt lat="39.47378014" lon="-0.37550516"><ele>-48.0</ele><time>2022-10-30T12:14:31.0000000+00:00</time></trkpt><trkpt lat="39.47378358" lon="-0.37551303"><ele>-48.0</ele><time>2022-10-30T12:14:32.0000000+00:00</time></trkpt><trkpt lat="39.47378081" lon="-0.37552016"><ele>-47.8</ele><time>2022-10-30T12:14:33.0000000+00:00</time></trkpt><trkpt lat="39.47377587" lon="-0.3755251"><ele>-47.8</ele><time>2022-10-30T12:14:34.0000000+00:00</time></trkpt><trkpt lat="39.47376774" lon="-0.37552653"><ele>-47.8</ele><time>2022-10-30T12:14:35.0000000+00:00</time></trkpt><trkpt lat="39.47375827" lon="-0.3755329"><ele>-47.8</ele><time>2022-10-30T12:14:36.0000000+00:00</time></trkpt><trkpt lat="39.47374662" lon="-0.3755355"><ele>-47.8</ele><time>2022-10-30T12:14:37.0000000+00:00</time></trkpt><trkpt lat="39.47374301" lon="-0.37554145"><ele>-47.8</ele><time>2022-10-30T12:14:38.0000000+00:00</time></trkpt><trkpt lat="39.47374779" lon="-0.37554874"><ele>-47.8</ele><time>2022-10-30T12:14:39.0000000+00:00</time></trkpt><trkpt lat="39.47374184" lon="-0.3755557"><ele>-48.0</ele><time>2022-10-30T12:14:40.0000000+00:00</time></trkpt><trkpt lat="39.47374184" lon="-0.37556299"><ele>-48.0</ele><time>2022-10-30T12:14:41.0000000+00:00</time></trkpt><trkpt lat="39.47374745" lon="-0.37556827"><ele>-48.0</ele><time>2022-10-30T12:14:42.0000000+00:00</time></trkpt><trkpt lat="39.47375139" lon="-0.37557724"><ele>-48.0</ele><time>2022-10-30T12:14:43.0000000+00:00</time></trkpt><trkpt lat="39.47375969" lon="-0.37558336"><ele>-48.0</ele><time>2022-10-30T12:14:44.0000000+00:00</time></trkpt><trkpt lat="39.47376933" lon="-0.37556475"><ele>-48.0</ele><time>2022-10-30T12:14:45.0000000+00:00</time></trkpt><trkpt lat="39.47376975" lon="-0.3755567"><ele>-48.0</ele><time>2022-10-30T12:14:46.0000000+00:00</time></trkpt><trkpt lat="39.47376589" lon="-0.37555427"><ele>-48.0</ele><time>2022-10-30T12:14:47.0000000+00:00</time></trkpt><trkpt lat="39.47376891" lon="-0.37555587"><ele>-48.0</ele><time>2022-10-30T12:14:48.0000000+00:00</time></trkpt><trkpt lat="39.47374821" lon="-0.37555612"><ele>-48.0</ele><time>2022-10-30T12:14:49.0000000+00:00</time></trkpt><trkpt lat="39.47374645" lon="-0.37556098"><ele>-48.0</ele><time>2022-10-30T12:14:50.0000000+00:00</time></trkpt><trkpt lat="39.47374335" lon="-0.37556559"><ele>-48.0</ele><time>2022-10-30T12:14:51.0000000+00:00</time></trkpt><trkpt lat="39.47375944" lon="-0.37558914"><ele>-48.0</ele><time>2022-10-30T12:14:52.0000000+00:00</time></trkpt><trkpt lat="39.47377218" lon="-0.37560976"><ele>-48.0</ele><time>2022-10-30T12:14:53.0000000+00:00</time></trkpt><trkpt lat="39.47378174" lon="-0.37562242"><ele>-48.0</ele><time>2022-10-30T12:14:54.0000000+00:00</time></trkpt><trkpt lat="39.4737907" lon="-0.37563558"><ele>-48.0</ele><time>2022-10-30T12:14:55.0000000+00:00</time></trkpt><trkpt lat="39.47379783" lon="-0.37564706"><ele>-48.0</ele><time>2022-10-30T12:14:56.0000000+00:00</time></trkpt><trkpt lat="39.47381233" lon="-0.37566056"><ele>-48.0</ele><time>2022-10-30T12:14:57.0000000+00:00</time></trkpt><trkpt lat="39.47382214" lon="-0.37567849"><ele>-48.0</ele><time>2022-10-30T12:14:58.0000000+00:00</time></trkpt><trkpt lat="39.47384125" lon="-0.37570456"><ele>-47.8</ele><time>2022-10-30T12:14:59.0000000+00:00</time></trkpt><trkpt lat="39.47385977" lon="-0.37572904"><ele>-47.8</ele><time>2022-10-30T12:15:00.0000000+00:00</time></trkpt><trkpt lat="39.47388022" lon="-0.37576231"><ele>-47.8</ele><time>2022-10-30T12:15:01.0000000+00:00</time></trkpt><trkpt lat="39.47389724" lon="-0.37578679"><ele>-47.8</ele><time>2022-10-30T12:15:02.0000000+00:00</time></trkpt><trkpt lat="39.47391015" lon="-0.37580707"><ele>-47.8</ele><time>2022-10-30T12:15:03.0000000+00:00</time></trkpt><trkpt lat="39.47390176" lon="-0.37580498"><ele>-47.8</ele><time>2022-10-30T12:15:04.0000000+00:00</time></trkpt><trkpt lat="39.47390319" lon="-0.37581135"><ele>-48.0</ele><time>2022-10-30T12:15:05.0000000+00:00</time></trkpt><trkpt lat="39.47390512" lon="-0.37582241"><ele>-48.0</ele><time>2022-10-30T12:15:06.0000000+00:00</time></trkpt><trkpt lat="39.47391953" lon="-0.37583582"><ele>-48.0</ele><time>2022-10-30T12:15:07.0000000+00:00</time></trkpt><trkpt lat="39.47392716" lon="-0.37585099"><ele>-48.0</ele><time>2022-10-30T12:15:08.0000000+00:00</time></trkpt><trkpt lat="39.47394124" lon="-0.37586952"><ele>-48.2</ele><time>2022-10-30T12:15:09.0000000+00:00</time></trkpt><trkpt lat="39.47395247" lon="-0.37588209"><ele>-48.2</ele><time>2022-10-30T12:15:10.0000000+00:00</time></trkpt><trkpt lat="39.4739627" lon="-0.37589114"><ele>-48.2</ele><time>2022-10-30T12:15:11.0000000+00:00</time></trkpt><trkpt lat="39.47397066" lon="-0.37590204"><ele>-48.2</ele><time>2022-10-30T12:15:12.0000000+00:00</time></trkpt><trkpt lat="39.47396454" lon="-0.37591101"><ele>-48.4</ele><time>2022-10-30T12:15:13.0000000+00:00</time></trkpt><trkpt lat="39.47395541" lon="-0.37592601"><ele>-48.4</ele><time>2022-10-30T12:15:14.0000000+00:00</time></trkpt><trkpt lat="39.47395172" lon="-0.37592962"><ele>-48.4</ele><time>2022-10-30T12:15:15.0000000+00:00</time></trkpt><trkpt lat="39.47394996" lon="-0.3759333"><ele>-48.4</ele><time>2022-10-30T12:15:16.0000000+00:00</time></trkpt><trkpt lat="39.4739482" lon="-0.37593867"><ele>-48.4</ele><time>2022-10-30T12:15:17.0000000+00:00</time></trkpt><trkpt lat="39.47394082" lon="-0.3759385"><ele>-48.2</ele><time>2022-10-30T12:15:18.0000000+00:00</time></trkpt><trkpt lat="39.47392322" lon="-0.37593347"><ele>-47.8</ele><time>2022-10-30T12:15:19.0000000+00:00</time></trkpt><trkpt lat="39.47392155" lon="-0.37593456"><ele>-47.8</ele><time>2022-10-30T12:15:20.0000000+00:00</time></trkpt><trkpt lat="39.47391836" lon="-0.37593816"><ele>-47.8</ele><time>2022-10-30T12:15:21.0000000+00:00</time></trkpt><trkpt lat="39.4739161" lon="-0.37594227"><ele>-47.8</ele><time>2022-10-30T12:15:22.0000000+00:00</time></trkpt><trkpt lat="39.47390922" lon="-0.37594713"><ele>-47.8</ele><time>2022-10-30T12:15:23.0000000+00:00</time></trkpt><trkpt lat="39.47391073" lon="-0.37595761"><ele>-47.8</ele><time>2022-10-30T12:15:24.0000000+00:00</time></trkpt><trkpt lat="39.47393018" lon="-0.37596616"><ele>-47.8</ele><time>2022-10-30T12:15:25.0000000+00:00</time></trkpt><trkpt lat="39.47395457" lon="-0.37596943"><ele>-47.8</ele><time>2022-10-30T12:15:26.0000000+00:00</time></trkpt><trkpt lat="39.4739741" lon="-0.37597806"><ele>-47.8</ele><time>2022-10-30T12:15:27.0000000+00:00</time></trkpt><trkpt lat="39.47398047" lon="-0.37599541"><ele>-47.8</ele><time>2022-10-30T12:15:28.0000000+00:00</time></trkpt><trkpt lat="39.47398114" lon="-0.3760043"><ele>-47.8</ele><time>2022-10-30T12:15:29.0000000+00:00</time></trkpt><trkpt lat="39.47397452" lon="-0.37600832"><ele>-47.8</ele><time>2022-10-30T12:15:30.0000000+00:00</time></trkpt><trkpt lat="39.47395717" lon="-0.37601478"><ele>-47.8</ele><time>2022-10-30T12:15:31.0000000+00:00</time></trkpt><trkpt lat="39.47394141" lon="-0.3760281"><ele>-47.8</ele><time>2022-10-30T12:15:32.0000000+00:00</time></trkpt><trkpt lat="39.47392984" lon="-0.37603908"><ele>-47.8</ele><time>2022-10-30T12:15:33.0000000+00:00</time></trkpt><trkpt lat="39.47391844" lon="-0.37604713"><ele>-47.8</ele><time>2022-10-30T12:15:34.0000000+00:00</time></trkpt><trkpt lat="39.47391266" lon="-0.37605819"><ele>-47.8</ele><time>2022-10-30T12:15:35.0000000+00:00</time></trkpt><trkpt lat="39.47390839" lon="-0.37606808"><ele>-48.0</ele><time>2022-10-30T12:15:36.0000000+00:00</time></trkpt><trkpt lat="39.47389925" lon="-0.37607689"><ele>-48.0</ele><time>2022-10-30T12:15:37.0000000+00:00</time></trkpt><trkpt lat="39.47390813" lon="-0.37609331"><ele>-48.0</ele><time>2022-10-30T12:15:38.0000000+00:00</time></trkpt><trkpt lat="39.47392859" lon="-0.37610446"><ele>-48.0</ele><time>2022-10-30T12:15:39.0000000+00:00</time></trkpt><trkpt lat="39.47393806" lon="-0.37611083"><ele>-47.8</ele><time>2022-10-30T12:15:40.0000000+00:00</time></trkpt><trkpt lat="39.47393806" lon="-0.37611444"><ele>-48.0</ele><time>2022-10-30T12:15:41.0000000+00:00</time></trkpt><trkpt lat="39.47395138" lon="-0.3761203"><ele>-48.0</ele><time>2022-10-30T12:15:42.0000000+00:00</time></trkpt><trkpt lat="39.47395943" lon="-0.37613623"><ele>-48.0</ele><time>2022-10-30T12:15:43.0000000+00:00</time></trkpt><trkpt lat="39.4739632" lon="-0.37614008"><ele>-48.0</ele><time>2022-10-30T12:15:44.0000000+00:00</time></trkpt><trkpt lat="39.47396312" lon="-0.37614168"><ele>-48.0</ele><time>2022-10-30T12:15:45.0000000+00:00</time></trkpt><trkpt lat="39.47396454" lon="-0.37615484"><ele>-48.0</ele><time>2022-10-30T12:15:46.0000000+00:00</time></trkpt><trkpt lat="39.47396639" lon="-0.37615886"><ele>-48.0</ele><time>2022-10-30T12:15:47.0000000+00:00</time></trkpt><trkpt lat="39.47396966" lon="-0.37616163"><ele>-48.2</ele><time>2022-10-30T12:15:48.0000000+00:00</time></trkpt><trkpt lat="39.47397636" lon="-0.37617671"><ele>-48.2</ele><time>2022-10-30T12:15:49.0000000+00:00</time></trkpt><trkpt lat="39.47397318" lon="-0.37618149"><ele>-48.2</ele><time>2022-10-30T12:15:50.0000000+00:00</time></trkpt><trkpt lat="39.47397159" lon="-0.37618342"><ele>-48.2</ele><time>2022-10-30T12:15:51.0000000+00:00</time></trkpt><trkpt lat="39.47397326" lon="-0.37618887"><ele>-48.2</ele><time>2022-10-30T12:15:52.0000000+00:00</time></trkpt><trkpt lat="39.47397502" lon="-0.37619549"><ele>-48.0</ele><time>2022-10-30T12:15:53.0000000+00:00</time></trkpt><trkpt lat="39.4739886" lon="-0.37620848"><ele>-48.0</ele><time>2022-10-30T12:15:54.0000000+00:00</time></trkpt><trkpt lat="39.47400176" lon="-0.37622315"><ele>-48.0</ele><time>2022-10-30T12:15:55.0000000+00:00</time></trkpt><trkpt lat="39.47401056" lon="-0.3762384"><ele>-48.0</ele><time>2022-10-30T12:15:56.0000000+00:00</time></trkpt><trkpt lat="39.47403596" lon="-0.37626179"><ele>-48.0</ele><time>2022-10-30T12:15:57.0000000+00:00</time></trkpt><trkpt lat="39.47403856" lon="-0.37627948"><ele>-48.0</ele><time>2022-10-30T12:15:58.0000000+00:00</time></trkpt><trkpt lat="39.47403948" lon="-0.37629272"><ele>-48.0</ele><time>2022-10-30T12:15:59.0000000+00:00</time></trkpt><trkpt lat="39.47402917" lon="-0.37630118"><ele>-48.0</ele><time>2022-10-30T12:16:00.0000000+00:00</time></trkpt><trkpt lat="39.47399405" lon="-0.37630797"><ele>-48.0</ele><time>2022-10-30T12:16:01.0000000+00:00</time></trkpt><trkpt lat="39.47398114" lon="-0.37631082"><ele>-48.0</ele><time>2022-10-30T12:16:02.0000000+00:00</time></trkpt><trkpt lat="39.47397779" lon="-0.37631225"><ele>-48.0</ele><time>2022-10-30T12:16:03.0000000+00:00</time></trkpt><trkpt lat="39.47396999" lon="-0.37632901"><ele>-48.0</ele><time>2022-10-30T12:16:04.0000000+00:00</time></trkpt><trkpt lat="39.47395859" lon="-0.37633513"><ele>-48.0</ele><time>2022-10-30T12:16:05.0000000+00:00</time></trkpt><trkpt lat="39.473957" lon="-0.37634653"><ele>-48.0</ele><time>2022-10-30T12:16:06.0000000+00:00</time></trkpt><trkpt lat="39.47395541" lon="-0.37635583"><ele>-48.0</ele><time>2022-10-30T12:16:07.0000000+00:00</time></trkpt><trkpt lat="39.47393848" lon="-0.37639783"><ele>-48.0</ele><time>2022-10-30T12:16:08.0000000+00:00</time></trkpt><trkpt lat="39.47393219" lon="-0.37641996"><ele>-48.0</ele><time>2022-10-30T12:16:09.0000000+00:00</time></trkpt><trkpt lat="39.47392867" lon="-0.37643848"><ele>-48.0</ele><time>2022-10-30T12:16:10.0000000+00:00</time></trkpt><trkpt lat="39.47392993" lon="-0.37645315"><ele>-48.0</ele><time>2022-10-30T12:16:11.0000000+00:00</time></trkpt><trkpt lat="39.47391878" lon="-0.37646983"><ele>-48.0</ele><time>2022-10-30T12:16:12.0000000+00:00</time></trkpt><trkpt lat="39.4739244" lon="-0.37648391"><ele>-48.0</ele><time>2022-10-30T12:16:13.0000000+00:00</time></trkpt><trkpt lat="39.47392481" lon="-0.37650101"><ele>-48.0</ele><time>2022-10-30T12:16:14.0000000+00:00</time></trkpt><trkpt lat="39.47391903" lon="-0.37651735"><ele>-48.0</ele><time>2022-10-30T12:16:15.0000000+00:00</time></trkpt><trkpt lat="39.47390889" lon="-0.37652532"><ele>-47.8</ele><time>2022-10-30T12:16:16.0000000+00:00</time></trkpt><trkpt lat="39.473899" lon="-0.37652741"><ele>-47.8</ele><time>2022-10-30T12:16:17.0000000+00:00</time></trkpt><trkpt lat="39.47390017" lon="-0.37652724"><ele>-48.0</ele><time>2022-10-30T12:16:18.0000000+00:00</time></trkpt><trkpt lat="39.47391107" lon="-0.37653219"><ele>-48.0</ele><time>2022-10-30T12:16:19.0000000+00:00</time></trkpt><trkpt lat="39.47392423" lon="-0.37653931"><ele>-48.0</ele><time>2022-10-30T12:16:20.0000000+00:00</time></trkpt><trkpt lat="39.47394233" lon="-0.37654015"><ele>-48.0</ele><time>2022-10-30T12:16:21.0000000+00:00</time></trkpt><trkpt lat="39.47394183" lon="-0.37654686"><ele>-48.0</ele><time>2022-10-30T12:16:22.0000000+00:00</time></trkpt><trkpt lat="39.47393403" lon="-0.37655574"><ele>-47.8</ele><time>2022-10-30T12:16:23.0000000+00:00</time></trkpt><trkpt lat="39.47392691" lon="-0.37656086"><ele>-47.8</ele><time>2022-10-30T12:16:24.0000000+00:00</time></trkpt><trkpt lat="39.47392993" lon="-0.37656773"><ele>-47.8</ele><time>2022-10-30T12:16:25.0000000+00:00</time></trkpt><trkpt lat="39.47392305" lon="-0.37658483"><ele>-47.8</ele><time>2022-10-30T12:16:26.0000000+00:00</time></trkpt><trkpt lat="39.47391601" lon="-0.37660218"><ele>-48.0</ele><time>2022-10-30T12:16:27.0000000+00:00</time></trkpt><trkpt lat="39.47390579" lon="-0.37662339"><ele>-48.0</ele><time>2022-10-30T12:16:28.0000000+00:00</time></trkpt><trkpt lat="39.47389975" lon="-0.37663302"><ele>-48.0</ele><time>2022-10-30T12:16:29.0000000+00:00</time></trkpt><trkpt lat="39.47389606" lon="-0.37665255"><ele>-48.0</ele><time>2022-10-30T12:16:30.0000000+00:00</time></trkpt><trkpt lat="39.47388668" lon="-0.3766829"><ele>-48.0</ele><time>2022-10-30T12:16:31.0000000+00:00</time></trkpt><trkpt lat="39.47389598" lon="-0.37670477"><ele>-48.0</ele><time>2022-10-30T12:16:32.0000000+00:00</time></trkpt><trkpt lat="39.47390704" lon="-0.37672439"><ele>-48.0</ele><time>2022-10-30T12:16:33.0000000+00:00</time></trkpt><trkpt lat="39.47391015" lon="-0.37674199"><ele>-48.0</ele><time>2022-10-30T12:16:34.0000000+00:00</time></trkpt><trkpt lat="39.47391442" lon="-0.37675532"><ele>-48.0</ele><time>2022-10-30T12:16:35.0000000+00:00</time></trkpt><trkpt lat="39.47391107" lon="-0.37675934"><ele>-48.0</ele><time>2022-10-30T12:16:36.0000000+00:00</time></trkpt><trkpt lat="39.47390772" lon="-0.37676278"><ele>-48.0</ele><time>2022-10-30T12:16:37.0000000+00:00</time></trkpt><trkpt lat="39.4739073" lon="-0.37677803"><ele>-47.8</ele><time>2022-10-30T12:16:38.0000000+00:00</time></trkpt><trkpt lat="39.47390931" lon="-0.37677912"><ele>-47.8</ele><time>2022-10-30T12:16:39.0000000+00:00</time></trkpt><trkpt lat="39.47390411" lon="-0.37677015"><ele>-47.8</ele><time>2022-10-30T12:16:40.0000000+00:00</time></trkpt><trkpt lat="39.47389699" lon="-0.37677015"><ele>-47.8</ele><time>2022-10-30T12:16:41.0000000+00:00</time></trkpt><trkpt lat="39.47388936" lon="-0.37677342"><ele>-47.8</ele><time>2022-10-30T12:16:42.0000000+00:00</time></trkpt><trkpt lat="39.47389011" lon="-0.37678666"><ele>-47.8</ele><time>2022-10-30T12:16:43.0000000+00:00</time></trkpt><trkpt lat="39.47388743" lon="-0.37679605"><ele>-47.8</ele><time>2022-10-30T12:16:44.0000000+00:00</time></trkpt><trkpt lat="39.47388777" lon="-0.37680309"><ele>-47.8</ele><time>2022-10-30T12:16:45.0000000+00:00</time></trkpt><trkpt lat="39.47388659" lon="-0.37681449"><ele>-47.8</ele><time>2022-10-30T12:16:46.0000000+00:00</time></trkpt><trkpt lat="39.47388232" lon="-0.37682128"><ele>-47.8</ele><time>2022-10-30T12:16:47.0000000+00:00</time></trkpt><trkpt lat="39.47388207" lon="-0.37682715"><ele>-47.8</ele><time>2022-10-30T12:16:48.0000000+00:00</time></trkpt><trkpt lat="39.47388819" lon="-0.37683042"><ele>-47.8</ele><time>2022-10-30T12:16:49.0000000+00:00</time></trkpt><trkpt lat="39.47389221" lon="-0.3768367"><ele>-47.8</ele><time>2022-10-30T12:16:50.0000000+00:00</time></trkpt><trkpt lat="39.47389196" lon="-0.37683997"><ele>-47.8</ele><time>2022-10-30T12:16:51.0000000+00:00</time></trkpt><trkpt lat="39.4738824" lon="-0.37683746"><ele>-47.8</ele><time>2022-10-30T12:16:52.0000000+00:00</time></trkpt><trkpt lat="39.47388165" lon="-0.37684131"><ele>-47.8</ele><time>2022-10-30T12:16:53.0000000+00:00</time></trkpt><trkpt lat="39.47386597" lon="-0.37684903"><ele>-47.8</ele><time>2022-10-30T12:16:54.0000000+00:00</time></trkpt><trkpt lat="39.47384887" lon="-0.37682673"><ele>-47.8</ele><time>2022-10-30T12:16:55.0000000+00:00</time></trkpt><trkpt lat="39.47384636" lon="-0.37682715"><ele>-47.8</ele><time>2022-10-30T12:16:56.0000000+00:00</time></trkpt><trkpt lat="39.47385114" lon="-0.37682103"><ele>-47.8</ele><time>2022-10-30T12:16:57.0000000+00:00</time></trkpt><trkpt lat="39.47385114" lon="-0.37682095"><ele>-47.8</ele><time>2022-10-30T12:16:58.0000000+00:00</time></trkpt><trkpt lat="39.47383739" lon="-0.37682246"><ele>-47.8</ele><time>2022-10-30T12:16:59.0000000+00:00</time></trkpt><trkpt lat="39.47383563" lon="-0.37682011"><ele>-47.8</ele><time>2022-10-30T12:17:00.0000000+00:00</time></trkpt><trkpt lat="39.47383152" lon="-0.37681818"><ele>-47.8</ele><time>2022-10-30T12:17:01.0000000+00:00</time></trkpt><trkpt lat="39.47382976" lon="-0.37681969"><ele>-47.8</ele><time>2022-10-30T12:17:02.0000000+00:00</time></trkpt><trkpt lat="39.47382725" lon="-0.37681969"><ele>-47.8</ele><time>2022-10-30T12:17:03.0000000+00:00</time></trkpt><trkpt lat="39.47383404" lon="-0.37682489"><ele>-47.8</ele><time>2022-10-30T12:17:04.0000000+00:00</time></trkpt><trkpt lat="39.47383395" lon="-0.37682723"><ele>-47.8</ele><time>2022-10-30T12:17:05.0000000+00:00</time></trkpt><trkpt lat="39.47383186" lon="-0.37682707"><ele>-47.8</ele><time>2022-10-30T12:17:06.0000000+00:00</time></trkpt><trkpt lat="39.47382918" lon="-0.37682581"><ele>-47.8</ele><time>2022-10-30T12:17:07.0000000+00:00</time></trkpt><trkpt lat="39.47382725" lon="-0.3768248"><ele>-47.8</ele><time>2022-10-30T12:17:08.0000000+00:00</time></trkpt><trkpt lat="39.4738275" lon="-0.37682246"><ele>-47.8</ele><time>2022-10-30T12:17:09.0000000+00:00</time></trkpt><trkpt lat="39.47382557" lon="-0.37682187"><ele>-47.8</ele><time>2022-10-30T12:17:10.0000000+00:00</time></trkpt><trkpt lat="39.47382842" lon="-0.37682514"><ele>-47.8</ele><time>2022-10-30T12:17:11.0000000+00:00</time></trkpt><trkpt lat="39.47383018" lon="-0.37682614"><ele>-47.6</ele><time>2022-10-30T12:17:12.0000000+00:00</time></trkpt><trkpt lat="39.47382742" lon="-0.37682489"><ele>-47.6</ele><time>2022-10-30T12:17:13.0000000+00:00</time></trkpt><trkpt lat="39.47382457" lon="-0.37682564"><ele>-47.6</ele><time>2022-10-30T12:17:14.0000000+00:00</time></trkpt><trkpt lat="39.47382272" lon="-0.37682564"><ele>-47.6</ele><time>2022-10-30T12:17:15.0000000+00:00</time></trkpt><trkpt lat="39.47382197" lon="-0.37682799"><ele>-47.6</ele><time>2022-10-30T12:17:16.0000000+00:00</time></trkpt><trkpt lat="39.47382071" lon="-0.37682782"><ele>-47.6</ele><time>2022-10-30T12:17:17.0000000+00:00</time></trkpt><trkpt lat="39.4738254" lon="-0.37682841"><ele>-47.8</ele><time>2022-10-30T12:17:18.0000000+00:00</time></trkpt><trkpt lat="39.4738301" lon="-0.37683419"><ele>-47.8</ele><time>2022-10-30T12:17:19.0000000+00:00</time></trkpt><trkpt lat="39.47383597" lon="-0.37684039"><ele>-47.8</ele><time>2022-10-30T12:17:20.0000000+00:00</time></trkpt><trkpt lat="39.47383697" lon="-0.3768419"><ele>-47.8</ele><time>2022-10-30T12:17:21.0000000+00:00</time></trkpt><trkpt lat="39.4738363" lon="-0.37684215"><ele>-47.8</ele><time>2022-10-30T12:17:22.0000000+00:00</time></trkpt><trkpt lat="39.47383479" lon="-0.37684249"><ele>-47.8</ele><time>2022-10-30T12:17:23.0000000+00:00</time></trkpt><trkpt lat="39.47383488" lon="-0.37684199"><ele>-47.8</ele><time>2022-10-30T12:17:24.0000000+00:00</time></trkpt><trkpt lat="39.47383362" lon="-0.37684131"><ele>-47.8</ele><time>2022-10-30T12:17:25.0000000+00:00</time></trkpt><trkpt lat="39.4738301" lon="-0.37684693"><ele>-47.8</ele><time>2022-10-30T12:17:26.0000000+00:00</time></trkpt><trkpt lat="39.47382163" lon="-0.37685498"><ele>-47.8</ele><time>2022-10-30T12:17:27.0000000+00:00</time></trkpt><trkpt lat="39.47381317" lon="-0.3768642"><ele>-47.8</ele><time>2022-10-30T12:17:28.0000000+00:00</time></trkpt><trkpt lat="39.47380889" lon="-0.37686512"><ele>-47.8</ele><time>2022-10-30T12:17:29.0000000+00:00</time></trkpt><trkpt lat="39.47380135" lon="-0.37687107"><ele>-47.6</ele><time>2022-10-30T12:17:30.0000000+00:00</time></trkpt><trkpt lat="39.47379464" lon="-0.37687744"><ele>-47.8</ele><time>2022-10-30T12:17:31.0000000+00:00</time></trkpt><trkpt lat="39.47378844" lon="-0.37688406"><ele>-47.6</ele><time>2022-10-30T12:17:32.0000000+00:00</time></trkpt><trkpt lat="39.47378031" lon="-0.37688758"><ele>-47.6</ele><time>2022-10-30T12:17:33.0000000+00:00</time></trkpt><trkpt lat="39.47377587" lon="-0.37689102"><ele>-47.6</ele><time>2022-10-30T12:17:34.0000000+00:00</time></trkpt><trkpt lat="39.47377394" lon="-0.37689186"><ele>-47.6</ele><time>2022-10-30T12:17:35.0000000+00:00</time></trkpt><trkpt lat="39.4737752" lon="-0.37689362"><ele>-47.6</ele><time>2022-10-30T12:17:36.0000000+00:00</time></trkpt><trkpt lat="39.47377553" lon="-0.37689504"><ele>-47.6</ele><time>2022-10-30T12:17:37.0000000+00:00</time></trkpt><trkpt lat="39.4737762" lon="-0.37689337"><ele>-47.6</ele><time>2022-10-30T12:17:38.0000000+00:00</time></trkpt><trkpt lat="39.47377746" lon="-0.3768942"><ele>-47.6</ele><time>2022-10-30T12:17:39.0000000+00:00</time></trkpt><trkpt lat="39.47376791" lon="-0.37689169"><ele>-47.6</ele><time>2022-10-30T12:17:40.0000000+00:00</time></trkpt><trkpt lat="39.47374745" lon="-0.37688498"><ele>-47.6</ele><time>2022-10-30T12:17:41.0000000+00:00</time></trkpt><trkpt lat="39.4737348" lon="-0.37687945"><ele>-47.6</ele><time>2022-10-30T12:17:42.0000000+00:00</time></trkpt><trkpt lat="39.47371686" lon="-0.37688507"><ele>-47.8</ele><time>2022-10-30T12:17:43.0000000+00:00</time></trkpt><trkpt lat="39.47370823" lon="-0.37689211"><ele>-47.8</ele><time>2022-10-30T12:17:44.0000000+00:00</time></trkpt><trkpt lat="39.47370177" lon="-0.37689286"><ele>-47.8</ele><time>2022-10-30T12:17:45.0000000+00:00</time></trkpt><trkpt lat="39.47369004" lon="-0.37689546"><ele>-47.8</ele><time>2022-10-30T12:17:46.0000000+00:00</time></trkpt><trkpt lat="39.47368216" lon="-0.37690183"><ele>-47.8</ele><time>2022-10-30T12:17:47.0000000+00:00</time></trkpt><trkpt lat="39.47367897" lon="-0.3769113"><ele>-48.0</ele><time>2022-10-30T12:17:48.0000000+00:00</time></trkpt><trkpt lat="39.47366808" lon="-0.37691717"><ele>-48.0</ele><time>2022-10-30T12:17:49.0000000+00:00</time></trkpt><trkpt lat="39.47365693" lon="-0.37691767"><ele>-48.0</ele><time>2022-10-30T12:17:50.0000000+00:00</time></trkpt><trkpt lat="39.473655" lon="-0.37692949"><ele>-47.8</ele><time>2022-10-30T12:17:51.0000000+00:00</time></trkpt><trkpt lat="39.47365165" lon="-0.37693628"><ele>-47.8</ele><time>2022-10-30T12:17:52.0000000+00:00</time></trkpt><trkpt lat="39.4736514" lon="-0.37694592"><ele>-47.8</ele><time>2022-10-30T12:17:53.0000000+00:00</time></trkpt><trkpt lat="39.47365743" lon="-0.37696193"><ele>-47.6</ele><time>2022-10-30T12:17:54.0000000+00:00</time></trkpt><trkpt lat="39.47366162" lon="-0.37697291"><ele>-47.6</ele><time>2022-10-30T12:17:55.0000000+00:00</time></trkpt><trkpt lat="39.47366539" lon="-0.37698112"><ele>-47.6</ele><time>2022-10-30T12:17:56.0000000+00:00</time></trkpt><trkpt lat="39.47367084" lon="-0.37698833"><ele>-47.6</ele><time>2022-10-30T12:17:57.0000000+00:00</time></trkpt><trkpt lat="39.47367487" lon="-0.37699898"><ele>-47.8</ele><time>2022-10-30T12:17:58.0000000+00:00</time></trkpt><trkpt lat="39.47366959" lon="-0.37700602"><ele>-47.8</ele><time>2022-10-30T12:17:59.0000000+00:00</time></trkpt><trkpt lat="39.47366397" lon="-0.37701247"><ele>-47.8</ele><time>2022-10-30T12:18:00.0000000+00:00</time></trkpt><trkpt lat="39.47365752" lon="-0.37701499"><ele>-47.8</ele><time>2022-10-30T12:18:01.0000000+00:00</time></trkpt><trkpt lat="39.47365559" lon="-0.37701968"><ele>-47.8</ele><time>2022-10-30T12:18:02.0000000+00:00</time></trkpt><trkpt lat="39.47365986" lon="-0.37703234"><ele>-47.8</ele><time>2022-10-30T12:18:03.0000000+00:00</time></trkpt><trkpt lat="39.47365969" lon="-0.37704935"><ele>-47.8</ele><time>2022-10-30T12:18:04.0000000+00:00</time></trkpt><trkpt lat="39.47365475" lon="-0.37706285"><ele>-47.8</ele><time>2022-10-30T12:18:05.0000000+00:00</time></trkpt><trkpt lat="39.47364519" lon="-0.37706696"><ele>-47.8</ele><time>2022-10-30T12:18:06.0000000+00:00</time></trkpt><trkpt lat="39.47363178" lon="-0.37706469"><ele>-47.8</ele><time>2022-10-30T12:18:07.0000000+00:00</time></trkpt><trkpt lat="39.47362013" lon="-0.37705866"><ele>-47.8</ele><time>2022-10-30T12:18:08.0000000+00:00</time></trkpt><trkpt lat="39.47361887" lon="-0.37706142"><ele>-47.8</ele><time>2022-10-30T12:18:09.0000000+00:00</time></trkpt><trkpt lat="39.47361871" lon="-0.37706452"><ele>-47.8</ele><time>2022-10-30T12:18:10.0000000+00:00</time></trkpt><trkpt lat="39.47361921" lon="-0.37706385"><ele>-47.8</ele><time>2022-10-30T12:18:11.0000000+00:00</time></trkpt><trkpt lat="39.47361946" lon="-0.37704793"><ele>-47.8</ele><time>2022-10-30T12:18:12.0000000+00:00</time></trkpt><trkpt lat="39.47361787" lon="-0.37703712"><ele>-47.8</ele><time>2022-10-30T12:18:13.0000000+00:00</time></trkpt><trkpt lat="39.47361577" lon="-0.37703108"><ele>-47.8</ele><time>2022-10-30T12:18:14.0000000+00:00</time></trkpt><trkpt lat="39.47361527" lon="-0.3770253"><ele>-47.8</ele><time>2022-10-30T12:18:15.0000000+00:00</time></trkpt><trkpt lat="39.47361628" lon="-0.37702396"><ele>-47.8</ele><time>2022-10-30T12:18:16.0000000+00:00</time></trkpt><trkpt lat="39.47361309" lon="-0.37703175"><ele>-47.8</ele><time>2022-10-30T12:18:17.0000000+00:00</time></trkpt><trkpt lat="39.47361326" lon="-0.37703477"><ele>-47.8</ele><time>2022-10-30T12:18:18.0000000+00:00</time></trkpt><trkpt lat="39.47361393" lon="-0.37703217"><ele>-47.8</ele><time>2022-10-30T12:18:19.0000000+00:00</time></trkpt><trkpt lat="39.47361267" lon="-0.37702932"><ele>-47.8</ele><time>2022-10-30T12:18:20.0000000+00:00</time></trkpt><trkpt lat="39.4736094" lon="-0.3770253"><ele>-47.8</ele><time>2022-10-30T12:18:21.0000000+00:00</time></trkpt><trkpt lat="39.47360261" lon="-0.37702127"><ele>-47.8</ele><time>2022-10-30T12:18:22.0000000+00:00</time></trkpt><trkpt lat="39.47359205" lon="-0.37702329"><ele>-47.8</ele><time>2022-10-30T12:18:23.0000000+00:00</time></trkpt><trkpt lat="39.47357889" lon="-0.37701901"><ele>-47.8</ele><time>2022-10-30T12:18:24.0000000+00:00</time></trkpt><trkpt lat="39.47357286" lon="-0.37701247"><ele>-47.8</ele><time>2022-10-30T12:18:25.0000000+00:00</time></trkpt><trkpt lat="39.4735747" lon="-0.37700065"><ele>-47.8</ele><time>2022-10-30T12:18:26.0000000+00:00</time></trkpt><trkpt lat="39.47358359" lon="-0.3769885"><ele>-47.8</ele><time>2022-10-30T12:18:27.0000000+00:00</time></trkpt><trkpt lat="39.47358275" lon="-0.37698666"><ele>-47.8</ele><time>2022-10-30T12:18:28.0000000+00:00</time></trkpt><trkpt lat="39.47359071" lon="-0.37698054"><ele>-47.8</ele><time>2022-10-30T12:18:29.0000000+00:00</time></trkpt><trkpt lat="39.47360454" lon="-0.37697165"><ele>-47.8</ele><time>2022-10-30T12:18:30.0000000+00:00</time></trkpt><trkpt lat="39.47360454" lon="-0.37696964"><ele>-47.8</ele><time>2022-10-30T12:18:31.0000000+00:00</time></trkpt><trkpt lat="39.47360538" lon="-0.37697157"><ele>-47.8</ele><time>2022-10-30T12:18:32.0000000+00:00</time></trkpt><trkpt lat="39.47360857" lon="-0.37697576"><ele>-47.8</ele><time>2022-10-30T12:18:33.0000000+00:00</time></trkpt><trkpt lat="39.47361519" lon="-0.37698515"><ele>-47.8</ele><time>2022-10-30T12:18:34.0000000+00:00</time></trkpt><trkpt lat="39.47362499" lon="-0.37699663"><ele>-47.8</ele><time>2022-10-30T12:18:35.0000000+00:00</time></trkpt><trkpt lat="39.4736317" lon="-0.37700082"><ele>-47.8</ele><time>2022-10-30T12:18:36.0000000+00:00</time></trkpt><trkpt lat="39.4736353" lon="-0.37700535"><ele>-47.8</ele><time>2022-10-30T12:18:37.0000000+00:00</time></trkpt><trkpt lat="39.47364804" lon="-0.37701356"><ele>-47.8</ele><time>2022-10-30T12:18:38.0000000+00:00</time></trkpt><trkpt lat="39.4736902" lon="-0.3770372"><ele>-47.8</ele><time>2022-10-30T12:18:39.0000000+00:00</time></trkpt><trkpt lat="39.47367696" lon="-0.37701742"><ele>-47.8</ele><time>2022-10-30T12:18:40.0000000+00:00</time></trkpt><trkpt lat="39.47367738" lon="-0.37703703"><ele>-47.8</ele><time>2022-10-30T12:18:41.0000000+00:00</time></trkpt><trkpt lat="39.47368568" lon="-0.37704449"><ele>-47.8</ele><time>2022-10-30T12:18:42.0000000+00:00</time></trkpt><trkpt lat="39.47367026" lon="-0.37704156"><ele>-47.8</ele><time>2022-10-30T12:18:43.0000000+00:00</time></trkpt><trkpt lat="39.47362675" lon="-0.37702211"><ele>-47.8</ele><time>2022-10-30T12:18:44.0000000+00:00</time></trkpt><trkpt lat="39.47359155" lon="-0.37700753"><ele>-47.8</ele><time>2022-10-30T12:18:45.0000000+00:00</time></trkpt><trkpt lat="39.47355936" lon="-0.37699454"><ele>-47.8</ele><time>2022-10-30T12:18:46.0000000+00:00</time></trkpt><trkpt lat="39.47350455" lon="-0.37697559"><ele>-47.8</ele><time>2022-10-30T12:18:47.0000000+00:00</time></trkpt><trkpt lat="39.47344126" lon="-0.376959"><ele>-47.8</ele><time>2022-10-30T12:18:48.0000000+00:00</time></trkpt><trkpt lat="39.47339935" lon="-0.37694148"><ele>-47.8</ele><time>2022-10-30T12:18:49.0000000+00:00</time></trkpt><trkpt lat="39.47347621" lon="-0.37697601"><ele>-47.8</ele><time>2022-10-30T12:18:50.0000000+00:00</time></trkpt><trkpt lat="39.47345585" lon="-0.3769678"><ele>-47.8</ele><time>2022-10-30T12:18:51.0000000+00:00</time></trkpt><trkpt lat="39.47347823" lon="-0.37697844"><ele>-47.8</ele><time>2022-10-30T12:18:52.0000000+00:00</time></trkpt><trkpt lat="39.47347261" lon="-0.37698414"><ele>-47.8</ele><time>2022-10-30T12:18:53.0000000+00:00</time></trkpt><trkpt lat="39.47346792" lon="-0.37699713"><ele>-47.8</ele><time>2022-10-30T12:18:54.0000000+00:00</time></trkpt><trkpt lat="39.47343908" lon="-0.37699889"><ele>-47.8</ele><time>2022-10-30T12:18:55.0000000+00:00</time></trkpt><trkpt lat="39.47342844" lon="-0.37700476"><ele>-47.8</ele><time>2022-10-30T12:18:56.0000000+00:00</time></trkpt><trkpt lat="39.47342617" lon="-0.37702111"><ele>-47.8</ele><time>2022-10-30T12:18:57.0000000+00:00</time></trkpt><trkpt lat="39.47341838" lon="-0.37702027"><ele>-47.8</ele><time>2022-10-30T12:18:58.0000000+00:00</time></trkpt><trkpt lat="39.47341721" lon="-0.37703527"><ele>-47.8</ele><time>2022-10-30T12:18:59.0000000+00:00</time></trkpt><trkpt lat="39.47341721" lon="-0.37703569"><ele>-47.8</ele><time>2022-10-30T12:19:00.0000000+00:00</time></trkpt><trkpt lat="39.47341343" lon="-0.3770367"><ele>-47.8</ele><time>2022-10-30T12:19:01.0000000+00:00</time></trkpt><trkpt lat="39.47340841" lon="-0.37703485"><ele>-47.8</ele><time>2022-10-30T12:19:02.0000000+00:00</time></trkpt><trkpt lat="39.4733986" lon="-0.37702111"><ele>-47.8</ele><time>2022-10-30T12:19:03.0000000+00:00</time></trkpt><trkpt lat="39.47338963" lon="-0.37701264"><ele>-47.8</ele><time>2022-10-30T12:19:04.0000000+00:00</time></trkpt><trkpt lat="39.47338251" lon="-0.37701541"><ele>-47.8</ele><time>2022-10-30T12:19:05.0000000+00:00</time></trkpt><trkpt lat="39.47338678" lon="-0.37702203"><ele>-47.8</ele><time>2022-10-30T12:19:06.0000000+00:00</time></trkpt><trkpt lat="39.47338787" lon="-0.37702681"><ele>-47.8</ele><time>2022-10-30T12:19:07.0000000+00:00</time></trkpt><trkpt lat="39.47339265" lon="-0.37702764"><ele>-47.8</ele><time>2022-10-30T12:19:08.0000000+00:00</time></trkpt><trkpt lat="39.47339416" lon="-0.37703083"><ele>-47.8</ele><time>2022-10-30T12:19:09.0000000+00:00</time></trkpt><trkpt lat="39.47339173" lon="-0.37702949"><ele>-47.8</ele><time>2022-10-30T12:19:10.0000000+00:00</time></trkpt><trkpt lat="39.47338963" lon="-0.37702605"><ele>-47.8</ele><time>2022-10-30T12:19:11.0000000+00:00</time></trkpt><trkpt lat="39.47339474" lon="-0.37702505"><ele>-47.8</ele><time>2022-10-30T12:19:12.0000000+00:00</time></trkpt><trkpt lat="39.47339776" lon="-0.37702488"><ele>-47.8</ele><time>2022-10-30T12:19:13.0000000+00:00</time></trkpt><trkpt lat="39.47339851" lon="-0.3770294"><ele>-47.8</ele><time>2022-10-30T12:19:14.0000000+00:00</time></trkpt><trkpt lat="39.4733991" lon="-0.37702857"><ele>-47.8</ele><time>2022-10-30T12:19:15.0000000+00:00</time></trkpt><trkpt lat="39.47341134" lon="-0.37703234"><ele>-47.8</ele><time>2022-10-30T12:19:16.0000000+00:00</time></trkpt><trkpt lat="39.47341947" lon="-0.37703728"><ele>-47.8</ele><time>2022-10-30T12:19:17.0000000+00:00</time></trkpt><trkpt lat="39.47341721" lon="-0.37703435"><ele>-47.8</ele><time>2022-10-30T12:19:18.0000000+00:00</time></trkpt><trkpt lat="39.4734188" lon="-0.37703452"><ele>-47.8</ele><time>2022-10-30T12:19:19.0000000+00:00</time></trkpt><trkpt lat="39.47342718" lon="-0.37703955"><ele>-47.8</ele><time>2022-10-30T12:19:20.0000000+00:00</time></trkpt><trkpt lat="39.47342534" lon="-0.37704131"><ele>-47.8</ele><time>2022-10-30T12:19:21.0000000+00:00</time></trkpt><trkpt lat="39.47342525" lon="-0.37704466"><ele>-47.8</ele><time>2022-10-30T12:19:22.0000000+00:00</time></trkpt><trkpt lat="39.47341612" lon="-0.37703351"><ele>-47.8</ele><time>2022-10-30T12:19:23.0000000+00:00</time></trkpt><trkpt lat="39.47340857" lon="-0.37703033"><ele>-47.8</ele><time>2022-10-30T12:19:24.0000000+00:00</time></trkpt><trkpt lat="39.47341067" lon="-0.37703452"><ele>-47.8</ele><time>2022-10-30T12:19:25.0000000+00:00</time></trkpt><trkpt lat="39.47340564" lon="-0.377032"><ele>-47.8</ele><time>2022-10-30T12:19:26.0000000+00:00</time></trkpt><trkpt lat="39.4734074" lon="-0.37703292"><ele>-47.8</ele><time>2022-10-30T12:19:27.0000000+00:00</time></trkpt><trkpt lat="39.47340396" lon="-0.37703125"><ele>-47.8</ele><time>2022-10-30T12:19:28.0000000+00:00</time></trkpt><trkpt lat="39.47340153" lon="-0.37702957"><ele>-47.8</ele><time>2022-10-30T12:19:29.0000000+00:00</time></trkpt><trkpt lat="39.47340614" lon="-0.37703309"><ele>-47.8</ele><time>2022-10-30T12:19:30.0000000+00:00</time></trkpt><trkpt lat="39.47341201" lon="-0.37704474"><ele>-47.8</ele><time>2022-10-30T12:19:31.0000000+00:00</time></trkpt><trkpt lat="39.4734219" lon="-0.37706"><ele>-47.8</ele><time>2022-10-30T12:19:32.0000000+00:00</time></trkpt><trkpt lat="39.47342877" lon="-0.37708473"><ele>-47.8</ele><time>2022-10-30T12:19:33.0000000+00:00</time></trkpt><trkpt lat="39.47345459" lon="-0.37712781"><ele>-47.8</ele><time>2022-10-30T12:19:34.0000000+00:00</time></trkpt><trkpt lat="39.47345166" lon="-0.37713753"><ele>-47.8</ele><time>2022-10-30T12:19:35.0000000+00:00</time></trkpt><trkpt lat="39.47346004" lon="-0.37715849"><ele>-47.8</ele><time>2022-10-30T12:19:36.0000000+00:00</time></trkpt><trkpt lat="39.47346817" lon="-0.37717441"><ele>-47.8</ele><time>2022-10-30T12:19:37.0000000+00:00</time></trkpt><trkpt lat="39.47347848" lon="-0.37719503"><ele>-47.8</ele><time>2022-10-30T12:19:38.0000000+00:00</time></trkpt><trkpt lat="39.47347454" lon="-0.3771952"><ele>-47.8</ele><time>2022-10-30T12:19:39.0000000+00:00</time></trkpt><trkpt lat="39.47347378" lon="-0.37720316"><ele>-47.8</ele><time>2022-10-30T12:19:40.0000000+00:00</time></trkpt><trkpt lat="39.47347462" lon="-0.37721548"><ele>-47.8</ele><time>2022-10-30T12:19:41.0000000+00:00</time></trkpt><trkpt lat="39.47346959" lon="-0.37722378"><ele>-47.8</ele><time>2022-10-30T12:19:42.0000000+00:00</time></trkpt><trkpt lat="39.47346557" lon="-0.37722571"><ele>-47.8</ele><time>2022-10-30T12:19:43.0000000+00:00</time></trkpt><trkpt lat="39.47345283" lon="-0.37721833"><ele>-47.8</ele><time>2022-10-30T12:19:44.0000000+00:00</time></trkpt><trkpt lat="39.47347052" lon="-0.3772387"><ele>-47.8</ele><time>2022-10-30T12:19:45.0000000+00:00</time></trkpt><trkpt lat="39.4734701" lon="-0.37724675"><ele>-47.8</ele><time>2022-10-30T12:19:46.0000000+00:00</time></trkpt><trkpt lat="39.47345367" lon="-0.37723887"><ele>-47.8</ele><time>2022-10-30T12:19:47.0000000+00:00</time></trkpt><trkpt lat="39.47344495" lon="-0.37724197"><ele>-47.8</ele><time>2022-10-30T12:19:48.0000000+00:00</time></trkpt><trkpt lat="39.47344562" lon="-0.37725538"><ele>-47.8</ele><time>2022-10-30T12:19:49.0000000+00:00</time></trkpt><trkpt lat="39.47344696" lon="-0.37727441"><ele>-47.8</ele><time>2022-10-30T12:19:50.0000000+00:00</time></trkpt><trkpt lat="39.47345627" lon="-0.37728891"><ele>-47.8</ele><time>2022-10-30T12:19:51.0000000+00:00</time></trkpt><trkpt lat="39.4734426" lon="-0.37728321"><ele>-47.8</ele><time>2022-10-30T12:19:52.0000000+00:00</time></trkpt><trkpt lat="39.47342902" lon="-0.37727743"><ele>-47.8</ele><time>2022-10-30T12:19:53.0000000+00:00</time></trkpt><trkpt lat="39.47343405" lon="-0.37728706"><ele>-47.8</ele><time>2022-10-30T12:19:54.0000000+00:00</time></trkpt><trkpt lat="39.47343347" lon="-0.3772936"><ele>-47.8</ele><time>2022-10-30T12:19:55.0000000+00:00</time></trkpt><trkpt lat="39.47342894" lon="-0.37729863"><ele>-47.8</ele><time>2022-10-30T12:19:56.0000000+00:00</time></trkpt><trkpt lat="39.47342559" lon="-0.37731757"><ele>-47.8</ele><time>2022-10-30T12:19:57.0000000+00:00</time></trkpt><trkpt lat="39.47342291" lon="-0.37732931"><ele>-47.8</ele><time>2022-10-30T12:19:58.0000000+00:00</time></trkpt><trkpt lat="39.47341897" lon="-0.37733937"><ele>-47.8</ele><time>2022-10-30T12:19:59.0000000+00:00</time></trkpt><trkpt lat="39.47341318" lon="-0.37734876"><ele>-47.8</ele><time>2022-10-30T12:20:00.0000000+00:00</time></trkpt><trkpt lat="39.47340547" lon="-0.37735613"><ele>-47.8</ele><time>2022-10-30T12:20:01.0000000+00:00</time></trkpt><trkpt lat="39.47340111" lon="-0.3773646"><ele>-47.8</ele><time>2022-10-30T12:20:02.0000000+00:00</time></trkpt><trkpt lat="39.47339885" lon="-0.37737574"><ele>-47.8</ele><time>2022-10-30T12:20:03.0000000+00:00</time></trkpt><trkpt lat="39.47339508" lon="-0.37738388"><ele>-47.8</ele><time>2022-10-30T12:20:04.0000000+00:00</time></trkpt><trkpt lat="39.47339139" lon="-0.37738396"><ele>-47.8</ele><time>2022-10-30T12:20:05.0000000+00:00</time></trkpt><trkpt lat="39.4733882" lon="-0.37739678"><ele>-47.8</ele><time>2022-10-30T12:20:06.0000000+00:00</time></trkpt><trkpt lat="39.47337999" lon="-0.3774024"><ele>-47.8</ele><time>2022-10-30T12:20:07.0000000+00:00</time></trkpt><trkpt lat="39.47336524" lon="-0.37740592"><ele>-47.8</ele><time>2022-10-30T12:20:08.0000000+00:00</time></trkpt><trkpt lat="39.47334982" lon="-0.37740869"><ele>-48.0</ele><time>2022-10-30T12:20:09.0000000+00:00</time></trkpt><trkpt lat="39.47335082" lon="-0.37742595"><ele>-48.0</ele><time>2022-10-30T12:20:10.0000000+00:00</time></trkpt><trkpt lat="39.47335593" lon="-0.37744557"><ele>-48.2</ele><time>2022-10-30T12:20:11.0000000+00:00</time></trkpt><trkpt lat="39.47336071" lon="-0.37746459"><ele>-48.2</ele><time>2022-10-30T12:20:12.0000000+00:00</time></trkpt><trkpt lat="39.47335954" lon="-0.37747935"><ele>-48.2</ele><time>2022-10-30T12:20:13.0000000+00:00</time></trkpt><trkpt lat="39.47334646" lon="-0.37748915"><ele>-48.2</ele><time>2022-10-30T12:20:14.0000000+00:00</time></trkpt><trkpt lat="39.47333758" lon="-0.37749787"><ele>-48.2</ele><time>2022-10-30T12:20:15.0000000+00:00</time></trkpt><trkpt lat="39.47332291" lon="-0.37751019"><ele>-48.4</ele><time>2022-10-30T12:20:16.0000000+00:00</time></trkpt><trkpt lat="39.47331319" lon="-0.37751698"><ele>-48.4</ele><time>2022-10-30T12:20:17.0000000+00:00</time></trkpt><trkpt lat="39.47330665" lon="-0.37753601"><ele>-48.4</ele><time>2022-10-30T12:20:18.0000000+00:00</time></trkpt><trkpt lat="39.47331285" lon="-0.37755637"><ele>-48.4</ele><time>2022-10-30T12:20:19.0000000+00:00</time></trkpt><trkpt lat="39.47331151" lon="-0.3775723"><ele>-48.4</ele><time>2022-10-30T12:20:20.0000000+00:00</time></trkpt><trkpt lat="39.47330497" lon="-0.37757943"><ele>-48.4</ele><time>2022-10-30T12:20:21.0000000+00:00</time></trkpt><trkpt lat="39.47330455" lon="-0.37758496"><ele>-48.4</ele><time>2022-10-30T12:20:22.0000000+00:00</time></trkpt><trkpt lat="39.47331084" lon="-0.37759158"><ele>-48.4</ele><time>2022-10-30T12:20:23.0000000+00:00</time></trkpt><trkpt lat="39.4733147" lon="-0.37759611"><ele>-48.4</ele><time>2022-10-30T12:20:24.0000000+00:00</time></trkpt><trkpt lat="39.47332107" lon="-0.37761086"><ele>-48.2</ele><time>2022-10-30T12:20:25.0000000+00:00</time></trkpt><trkpt lat="39.47332107" lon="-0.37762075"><ele>-48.2</ele><time>2022-10-30T12:20:26.0000000+00:00</time></trkpt><trkpt lat="39.47332325" lon="-0.37762846"><ele>-48.2</ele><time>2022-10-30T12:20:27.0000000+00:00</time></trkpt><trkpt lat="39.47332593" lon="-0.37763667"><ele>-48.2</ele><time>2022-10-30T12:20:28.0000000+00:00</time></trkpt><trkpt lat="39.47332517" lon="-0.37764606"><ele>-48.2</ele><time>2022-10-30T12:20:29.0000000+00:00</time></trkpt><trkpt lat="39.47332962" lon="-0.37765838"><ele>-48.2</ele><time>2022-10-30T12:20:30.0000000+00:00</time></trkpt><trkpt lat="39.4733364" lon="-0.37767699"><ele>-48.4</ele><time>2022-10-30T12:20:31.0000000+00:00</time></trkpt><trkpt lat="39.47334143" lon="-0.37768814"><ele>-48.4</ele><time>2022-10-30T12:20:32.0000000+00:00</time></trkpt><trkpt lat="39.47334789" lon="-0.37770708"><ele>-48.4</ele><time>2022-10-30T12:20:33.0000000+00:00</time></trkpt><trkpt lat="39.4733535" lon="-0.37771647"><ele>-48.4</ele><time>2022-10-30T12:20:34.0000000+00:00</time></trkpt><trkpt lat="39.47336147" lon="-0.37772502"><ele>-48.4</ele><time>2022-10-30T12:20:35.0000000+00:00</time></trkpt><trkpt lat="39.47336499" lon="-0.37774128"><ele>-48.4</ele><time>2022-10-30T12:20:36.0000000+00:00</time></trkpt><trkpt lat="39.47337613" lon="-0.37775679"><ele>-48.4</ele><time>2022-10-30T12:20:37.0000000+00:00</time></trkpt><trkpt lat="39.47338561" lon="-0.37776408"><ele>-48.4</ele><time>2022-10-30T12:20:38.0000000+00:00</time></trkpt><trkpt lat="39.47339893" lon="-0.3777707"><ele>-48.4</ele><time>2022-10-30T12:20:39.0000000+00:00</time></trkpt><trkpt lat="39.47340757" lon="-0.37777531"><ele>-48.4</ele><time>2022-10-30T12:20:40.0000000+00:00</time></trkpt><trkpt lat="39.47341427" lon="-0.37778361"><ele>-48.4</ele><time>2022-10-30T12:20:41.0000000+00:00</time></trkpt><trkpt lat="39.47342542" lon="-0.3777909"><ele>-48.4</ele><time>2022-10-30T12:20:42.0000000+00:00</time></trkpt><trkpt lat="39.47342785" lon="-0.37779853"><ele>-48.4</ele><time>2022-10-30T12:20:43.0000000+00:00</time></trkpt><trkpt lat="39.47342919" lon="-0.37781035"><ele>-48.2</ele><time>2022-10-30T12:20:44.0000000+00:00</time></trkpt><trkpt lat="39.47342391" lon="-0.37781957"><ele>-48.2</ele><time>2022-10-30T12:20:45.0000000+00:00</time></trkpt><trkpt lat="39.47342894" lon="-0.37783021"><ele>-48.2</ele><time>2022-10-30T12:20:46.0000000+00:00</time></trkpt><trkpt lat="39.47342953" lon="-0.37784304"><ele>-48.2</ele><time>2022-10-30T12:20:47.0000000+00:00</time></trkpt><trkpt lat="39.47342978" lon="-0.37785284"><ele>-48.2</ele><time>2022-10-30T12:20:48.0000000+00:00</time></trkpt><trkpt lat="39.47343732" lon="-0.37786055"><ele>-48.2</ele><time>2022-10-30T12:20:49.0000000+00:00</time></trkpt><trkpt lat="39.47344453" lon="-0.377866"><ele>-48.2</ele><time>2022-10-30T12:20:50.0000000+00:00</time></trkpt><trkpt lat="39.47344847" lon="-0.37787019"><ele>-48.2</ele><time>2022-10-30T12:20:51.0000000+00:00</time></trkpt><trkpt lat="39.47345786" lon="-0.37787447"><ele>-48.2</ele><time>2022-10-30T12:20:52.0000000+00:00</time></trkpt><trkpt lat="39.47346381" lon="-0.37788587"><ele>-48.2</ele><time>2022-10-30T12:20:53.0000000+00:00</time></trkpt><trkpt lat="39.47347077" lon="-0.37789643"><ele>-48.2</ele><time>2022-10-30T12:20:54.0000000+00:00</time></trkpt><trkpt lat="39.4734773" lon="-0.37790246"><ele>-48.2</ele><time>2022-10-30T12:20:55.0000000+00:00</time></trkpt><trkpt lat="39.47348887" lon="-0.37790749"><ele>-48.2</ele><time>2022-10-30T12:20:56.0000000+00:00</time></trkpt><trkpt lat="39.47349491" lon="-0.3779173"><ele>-48.2</ele><time>2022-10-30T12:20:57.0000000+00:00</time></trkpt><trkpt lat="39.47350295" lon="-0.37791202"><ele>-48.2</ele><time>2022-10-30T12:20:58.0000000+00:00</time></trkpt><trkpt lat="39.4735053" lon="-0.37791847"><ele>-48.2</ele><time>2022-10-30T12:20:59.0000000+00:00</time></trkpt><trkpt lat="39.47350849" lon="-0.37792157"><ele>-48.2</ele><time>2022-10-30T12:21:00.0000000+00:00</time></trkpt><trkpt lat="39.47351175" lon="-0.3779235"><ele>-48.2</ele><time>2022-10-30T12:21:01.0000000+00:00</time></trkpt><trkpt lat="39.47351385" lon="-0.3779266"><ele>-48.2</ele><time>2022-10-30T12:21:02.0000000+00:00</time></trkpt><trkpt lat="39.47351435" lon="-0.37793088"><ele>-48.2</ele><time>2022-10-30T12:21:03.0000000+00:00</time></trkpt><trkpt lat="39.47351377" lon="-0.37793465"><ele>-48.2</ele><time>2022-10-30T12:21:04.0000000+00:00</time></trkpt><trkpt lat="39.47351335" lon="-0.37793532"><ele>-48.2</ele><time>2022-10-30T12:21:05.0000000+00:00</time></trkpt><trkpt lat="39.47351259" lon="-0.37793675"><ele>-48.2</ele><time>2022-10-30T12:21:06.0000000+00:00</time></trkpt><trkpt lat="39.47351226" lon="-0.37793566"><ele>-48.2</ele><time>2022-10-30T12:21:07.0000000+00:00</time></trkpt><trkpt lat="39.47350723" lon="-0.3779339"><ele>-48.2</ele><time>2022-10-30T12:21:08.0000000+00:00</time></trkpt><trkpt lat="39.4735017" lon="-0.37793406"><ele>-48.2</ele><time>2022-10-30T12:21:09.0000000+00:00</time></trkpt><trkpt lat="39.47349767" lon="-0.3779411"><ele>-48.2</ele><time>2022-10-30T12:21:10.0000000+00:00</time></trkpt><trkpt lat="39.47349474" lon="-0.37794563"><ele>-48.2</ele><time>2022-10-30T12:21:11.0000000+00:00</time></trkpt><trkpt lat="39.47349348" lon="-0.37794571"><ele>-48.2</ele><time>2022-10-30T12:21:12.0000000+00:00</time></trkpt><trkpt lat="39.47349172" lon="-0.37794722"><ele>-48.2</ele><time>2022-10-30T12:21:13.0000000+00:00</time></trkpt><trkpt lat="39.47349105" lon="-0.37794898"><ele>-48.2</ele><time>2022-10-30T12:21:14.0000000+00:00</time></trkpt><trkpt lat="39.47349021" lon="-0.37794965"><ele>-48.2</ele><time>2022-10-30T12:21:15.0000000+00:00</time></trkpt><trkpt lat="39.47348627" lon="-0.3779582"><ele>-48.4</ele><time>2022-10-30T12:21:16.0000000+00:00</time></trkpt><trkpt lat="39.47348619" lon="-0.37795954"><ele>-48.4</ele><time>2022-10-30T12:21:17.0000000+00:00</time></trkpt><trkpt lat="39.47348854" lon="-0.37795862"><ele>-48.4</ele><time>2022-10-30T12:21:18.0000000+00:00</time></trkpt><trkpt lat="39.47349231" lon="-0.37795343"><ele>-48.4</ele><time>2022-10-30T12:21:19.0000000+00:00</time></trkpt><trkpt lat="39.47349248" lon="-0.37795242"><ele>-48.4</ele><time>2022-10-30T12:21:20.0000000+00:00</time></trkpt><trkpt lat="39.47349616" lon="-0.37795711"><ele>-48.4</ele><time>2022-10-30T12:21:21.0000000+00:00</time></trkpt><trkpt lat="39.47350002" lon="-0.37795971"><ele>-48.2</ele><time>2022-10-30T12:21:22.0000000+00:00</time></trkpt><trkpt lat="39.47350631" lon="-0.3779608"><ele>-48.2</ele><time>2022-10-30T12:21:23.0000000+00:00</time></trkpt><trkpt lat="39.47351846" lon="-0.37795954"><ele>-48.2</ele><time>2022-10-30T12:21:24.0000000+00:00</time></trkpt><trkpt lat="39.47353045" lon="-0.37796072"><ele>-48.0</ele><time>2022-10-30T12:21:25.0000000+00:00</time></trkpt><trkpt lat="39.47354092" lon="-0.37796072"><ele>-48.0</ele><time>2022-10-30T12:21:26.0000000+00:00</time></trkpt><trkpt lat="39.47355123" lon="-0.37796952"><ele>-48.0</ele><time>2022-10-30T12:21:27.0000000+00:00</time></trkpt><trkpt lat="39.47356925" lon="-0.37797991"><ele>-48.0</ele><time>2022-10-30T12:21:28.0000000+00:00</time></trkpt><trkpt lat="39.47357671" lon="-0.37798746"><ele>-48.0</ele><time>2022-10-30T12:21:29.0000000+00:00</time></trkpt><trkpt lat="39.47358786" lon="-0.37800028"><ele>-48.0</ele><time>2022-10-30T12:21:30.0000000+00:00</time></trkpt><trkpt lat="39.4736125" lon="-0.37801445"><ele>-48.0</ele><time>2022-10-30T12:21:31.0000000+00:00</time></trkpt><trkpt lat="39.47362608" lon="-0.37802517"><ele>-48.0</ele><time>2022-10-30T12:21:32.0000000+00:00</time></trkpt><trkpt lat="39.47364167" lon="-0.37803691"><ele>-48.0</ele><time>2022-10-30T12:21:33.0000000+00:00</time></trkpt><trkpt lat="39.47364788" lon="-0.37804848"><ele>-48.2</ele><time>2022-10-30T12:21:34.0000000+00:00</time></trkpt><trkpt lat="39.47365492" lon="-0.3780582"><ele>-48.2</ele><time>2022-10-30T12:21:35.0000000+00:00</time></trkpt><trkpt lat="39.4736571" lon="-0.37806264"><ele>-48.2</ele><time>2022-10-30T12:21:36.0000000+00:00</time></trkpt><trkpt lat="39.47365852" lon="-0.37807371"><ele>-48.2</ele><time>2022-10-30T12:21:37.0000000+00:00</time></trkpt><trkpt lat="39.47366816" lon="-0.37808829"><ele>-48.2</ele><time>2022-10-30T12:21:38.0000000+00:00</time></trkpt><trkpt lat="39.47367621" lon="-0.37810137"><ele>-48.2</ele><time>2022-10-30T12:21:39.0000000+00:00</time></trkpt><trkpt lat="39.47368325" lon="-0.3781131"><ele>-48.2</ele><time>2022-10-30T12:21:40.0000000+00:00</time></trkpt><trkpt lat="39.47368559" lon="-0.37811914"><ele>-48.2</ele><time>2022-10-30T12:21:41.0000000+00:00</time></trkpt><trkpt lat="39.47368207" lon="-0.37813054"><ele>-48.2</ele><time>2022-10-30T12:21:42.0000000+00:00</time></trkpt><trkpt lat="39.47367772" lon="-0.37814252"><ele>-48.2</ele><time>2022-10-30T12:21:43.0000000+00:00</time></trkpt><trkpt lat="39.47367973" lon="-0.37814613"><ele>-48.2</ele><time>2022-10-30T12:21:44.0000000+00:00</time></trkpt><trkpt lat="39.47369155" lon="-0.37815996"><ele>-48.4</ele><time>2022-10-30T12:21:45.0000000+00:00</time></trkpt><trkpt lat="39.47370621" lon="-0.3781706"><ele>-48.4</ele><time>2022-10-30T12:21:46.0000000+00:00</time></trkpt><trkpt lat="39.47371929" lon="-0.37817965"><ele>-48.2</ele><time>2022-10-30T12:21:47.0000000+00:00</time></trkpt><trkpt lat="39.4737317" lon="-0.37819382"><ele>-48.2</ele><time>2022-10-30T12:21:48.0000000+00:00</time></trkpt><trkpt lat="39.47373287" lon="-0.37820991"><ele>-48.2</ele><time>2022-10-30T12:21:49.0000000+00:00</time></trkpt><trkpt lat="39.47373924" lon="-0.37822424"><ele>-48.2</ele><time>2022-10-30T12:21:50.0000000+00:00</time></trkpt><trkpt lat="39.47374796" lon="-0.37823749"><ele>-48.2</ele><time>2022-10-30T12:21:51.0000000+00:00</time></trkpt><trkpt lat="39.47375634" lon="-0.37824612"><ele>-48.2</ele><time>2022-10-30T12:21:52.0000000+00:00</time></trkpt><trkpt lat="39.47376061" lon="-0.37825358"><ele>-48.2</ele><time>2022-10-30T12:21:53.0000000+00:00</time></trkpt><trkpt lat="39.47376531" lon="-0.37825995"><ele>-48.2</ele><time>2022-10-30T12:21:54.0000000+00:00</time></trkpt><trkpt lat="39.47376774" lon="-0.37826867"><ele>-48.2</ele><time>2022-10-30T12:21:55.0000000+00:00</time></trkpt><trkpt lat="39.47377872" lon="-0.37827496"><ele>-48.2</ele><time>2022-10-30T12:21:56.0000000+00:00</time></trkpt><trkpt lat="39.4737845" lon="-0.37828962"><ele>-48.2</ele><time>2022-10-30T12:21:57.0000000+00:00</time></trkpt><trkpt lat="39.47378635" lon="-0.37830588"><ele>-48.2</ele><time>2022-10-30T12:21:58.0000000+00:00</time></trkpt><trkpt lat="39.4737964" lon="-0.37832634"><ele>-48.2</ele><time>2022-10-30T12:21:59.0000000+00:00</time></trkpt><trkpt lat="39.47380705" lon="-0.37833648"><ele>-48.2</ele><time>2022-10-30T12:22:00.0000000+00:00</time></trkpt><trkpt lat="39.473813" lon="-0.37834545"><ele>-48.2</ele><time>2022-10-30T12:22:01.0000000+00:00</time></trkpt><trkpt lat="39.47381635" lon="-0.37835316"><ele>-48.2</ele><time>2022-10-30T12:22:02.0000000+00:00</time></trkpt><trkpt lat="39.47381929" lon="-0.37836464"><ele>-48.2</ele><time>2022-10-30T12:22:03.0000000+00:00</time></trkpt><trkpt lat="39.47381962" lon="-0.37837478"><ele>-48.2</ele><time>2022-10-30T12:22:04.0000000+00:00</time></trkpt><trkpt lat="39.47382624" lon="-0.37838392"><ele>-48.2</ele><time>2022-10-30T12:22:05.0000000+00:00</time></trkpt><trkpt lat="39.47384284" lon="-0.37839314"><ele>-48.2</ele><time>2022-10-30T12:22:06.0000000+00:00</time></trkpt><trkpt lat="39.47385793" lon="-0.3783949"><ele>-48.2</ele><time>2022-10-30T12:22:07.0000000+00:00</time></trkpt><trkpt lat="39.4738648" lon="-0.37839884"><ele>-48.2</ele><time>2022-10-30T12:22:08.0000000+00:00</time></trkpt><trkpt lat="39.47386673" lon="-0.37840387"><ele>-48.2</ele><time>2022-10-30T12:22:09.0000000+00:00</time></trkpt><trkpt lat="39.47387519" lon="-0.37840689"><ele>-48.2</ele><time>2022-10-30T12:22:10.0000000+00:00</time></trkpt><trkpt lat="39.47388433" lon="-0.37841049"><ele>-48.2</ele><time>2022-10-30T12:22:11.0000000+00:00</time></trkpt><trkpt lat="39.47389481" lon="-0.37841921"><ele>-48.2</ele><time>2022-10-30T12:22:12.0000000+00:00</time></trkpt><trkpt lat="39.47389967" lon="-0.37843136"><ele>-48.2</ele><time>2022-10-30T12:22:13.0000000+00:00</time></trkpt><trkpt lat="39.47390403" lon="-0.37844318"><ele>-48.2</ele><time>2022-10-30T12:22:14.0000000+00:00</time></trkpt><trkpt lat="39.47390746" lon="-0.37844645"><ele>-48.2</ele><time>2022-10-30T12:22:15.0000000+00:00</time></trkpt><trkpt lat="39.47391031" lon="-0.37844871"><ele>-48.2</ele><time>2022-10-30T12:22:16.0000000+00:00</time></trkpt><trkpt lat="39.47391241" lon="-0.37845215"><ele>-48.2</ele><time>2022-10-30T12:22:17.0000000+00:00</time></trkpt><trkpt lat="39.47392146" lon="-0.37845106"><ele>-48.2</ele><time>2022-10-30T12:22:18.0000000+00:00</time></trkpt><trkpt lat="39.47393479" lon="-0.37845139"><ele>-48.0</ele><time>2022-10-30T12:22:19.0000000+00:00</time></trkpt><trkpt lat="39.47394619" lon="-0.3784519"><ele>-48.0</ele><time>2022-10-30T12:22:20.0000000+00:00</time></trkpt><trkpt lat="39.47395373" lon="-0.37845466"><ele>-48.0</ele><time>2022-10-30T12:22:21.0000000+00:00</time></trkpt><trkpt lat="39.4739591" lon="-0.37845198"><ele>-48.0</ele><time>2022-10-30T12:22:22.0000000+00:00</time></trkpt><trkpt lat="39.47396429" lon="-0.37844343"><ele>-48.0</ele><time>2022-10-30T12:22:23.0000000+00:00</time></trkpt><trkpt lat="39.47397234" lon="-0.37844829"><ele>-48.0</ele><time>2022-10-30T12:22:24.0000000+00:00</time></trkpt><trkpt lat="39.4739705" lon="-0.37846816"><ele>-48.0</ele><time>2022-10-30T12:22:25.0000000+00:00</time></trkpt><trkpt lat="39.47397762" lon="-0.37848459"><ele>-48.0</ele><time>2022-10-30T12:22:26.0000000+00:00</time></trkpt><trkpt lat="39.47398433" lon="-0.37849758"><ele>-48.0</ele><time>2022-10-30T12:22:27.0000000+00:00</time></trkpt><trkpt lat="39.47398483" lon="-0.37849255"><ele>-48.2</ele><time>2022-10-30T12:22:28.0000000+00:00</time></trkpt><trkpt lat="39.47399204" lon="-0.37850261"><ele>-48.2</ele><time>2022-10-30T12:22:29.0000000+00:00</time></trkpt><trkpt lat="39.47399925" lon="-0.37850864"><ele>-48.2</ele><time>2022-10-30T12:22:30.0000000+00:00</time></trkpt><trkpt lat="39.47400352" lon="-0.37851744"><ele>-48.2</ele><time>2022-10-30T12:22:31.0000000+00:00</time></trkpt><trkpt lat="39.47401165" lon="-0.37852977"><ele>-48.2</ele><time>2022-10-30T12:22:32.0000000+00:00</time></trkpt><trkpt lat="39.47401836" lon="-0.37854058"><ele>-48.2</ele><time>2022-10-30T12:22:33.0000000+00:00</time></trkpt><trkpt lat="39.47402322" lon="-0.37854468"><ele>-48.2</ele><time>2022-10-30T12:22:34.0000000+00:00</time></trkpt><trkpt lat="39.4740295" lon="-0.37854913"><ele>-48.2</ele><time>2022-10-30T12:22:35.0000000+00:00</time></trkpt><trkpt lat="39.47403772" lon="-0.37854971"><ele>-48.2</ele><time>2022-10-30T12:22:36.0000000+00:00</time></trkpt><trkpt lat="39.47405071" lon="-0.37855223"><ele>-48.2</ele><time>2022-10-30T12:22:37.0000000+00:00</time></trkpt><trkpt lat="39.47406379" lon="-0.37855432"><ele>-48.0</ele><time>2022-10-30T12:22:38.0000000+00:00</time></trkpt><trkpt lat="39.4740751" lon="-0.37856061"><ele>-48.0</ele><time>2022-10-30T12:22:39.0000000+00:00</time></trkpt><trkpt lat="39.47408466" lon="-0.37856673"><ele>-48.0</ele><time>2022-10-30T12:22:40.0000000+00:00</time></trkpt><trkpt lat="39.47409513" lon="-0.37857461"><ele>-48.0</ele><time>2022-10-30T12:22:41.0000000+00:00</time></trkpt><trkpt lat="39.47409631" lon="-0.37858886"><ele>-48.0</ele><time>2022-10-30T12:22:42.0000000+00:00</time></trkpt><trkpt lat="39.47410788" lon="-0.37860478"><ele>-48.0</ele><time>2022-10-30T12:22:43.0000000+00:00</time></trkpt><trkpt lat="39.47411852" lon="-0.37861669"><ele>-48.0</ele><time>2022-10-30T12:22:44.0000000+00:00</time></trkpt><trkpt lat="39.47412531" lon="-0.37862415"><ele>-48.0</ele><time>2022-10-30T12:22:45.0000000+00:00</time></trkpt><trkpt lat="39.47412782" lon="-0.37863655"><ele>-48.0</ele><time>2022-10-30T12:22:46.0000000+00:00</time></trkpt><trkpt lat="39.47413394" lon="-0.3786503"><ele>-48.0</ele><time>2022-10-30T12:22:47.0000000+00:00</time></trkpt><trkpt lat="39.47413336" lon="-0.37866262"><ele>-48.0</ele><time>2022-10-30T12:22:48.0000000+00:00</time></trkpt><trkpt lat="39.47414375" lon="-0.37866673"><ele>-48.0</ele><time>2022-10-30T12:22:49.0000000+00:00</time></trkpt><trkpt lat="39.47415884" lon="-0.37866388"><ele>-48.0</ele><time>2022-10-30T12:22:50.0000000+00:00</time></trkpt><trkpt lat="39.47417485" lon="-0.37866404"><ele>-48.0</ele><time>2022-10-30T12:22:51.0000000+00:00</time></trkpt><trkpt lat="39.47418423" lon="-0.37866111"><ele>-47.8</ele><time>2022-10-30T12:22:52.0000000+00:00</time></trkpt><trkpt lat="39.47419446" lon="-0.37867452"><ele>-47.8</ele><time>2022-10-30T12:22:53.0000000+00:00</time></trkpt><trkpt lat="39.4742124" lon="-0.3786855"><ele>-47.8</ele><time>2022-10-30T12:22:54.0000000+00:00</time></trkpt><trkpt lat="39.47422338" lon="-0.37869187"><ele>-47.6</ele><time>2022-10-30T12:22:55.0000000+00:00</time></trkpt><trkpt lat="39.47423453" lon="-0.37869833"><ele>-47.6</ele><time>2022-10-30T12:22:56.0000000+00:00</time></trkpt><trkpt lat="39.47424165" lon="-0.37870696"><ele>-47.6</ele><time>2022-10-30T12:22:57.0000000+00:00</time></trkpt><trkpt lat="39.47424928" lon="-0.37871241"><ele>-47.8</ele><time>2022-10-30T12:22:58.0000000+00:00</time></trkpt><trkpt lat="39.47425707" lon="-0.37871325"><ele>-47.8</ele><time>2022-10-30T12:22:59.0000000+00:00</time></trkpt><trkpt lat="39.47426847" lon="-0.37871827"><ele>-47.8</ele><time>2022-10-30T12:23:00.0000000+00:00</time></trkpt><trkpt lat="39.47428029" lon="-0.3787259"><ele>-47.8</ele><time>2022-10-30T12:23:01.0000000+00:00</time></trkpt><trkpt lat="39.47428448" lon="-0.37873127"><ele>-47.8</ele><time>2022-10-30T12:23:02.0000000+00:00</time></trkpt><trkpt lat="39.47428817" lon="-0.37873688"><ele>-47.8</ele><time>2022-10-30T12:23:03.0000000+00:00</time></trkpt><trkpt lat="39.47429529" lon="-0.37874476"><ele>-47.8</ele><time>2022-10-30T12:23:04.0000000+00:00</time></trkpt><trkpt lat="39.47430175" lon="-0.3787487"><ele>-47.8</ele><time>2022-10-30T12:23:05.0000000+00:00</time></trkpt><trkpt lat="39.47431281" lon="-0.37874979"><ele>-47.8</ele><time>2022-10-30T12:23:06.0000000+00:00</time></trkpt><trkpt lat="39.47431759" lon="-0.37875155"><ele>-47.8</ele><time>2022-10-30T12:23:07.0000000+00:00</time></trkpt><trkpt lat="39.47432094" lon="-0.37875281"><ele>-47.8</ele><time>2022-10-30T12:23:08.0000000+00:00</time></trkpt><trkpt lat="39.47432589" lon="-0.37875943"><ele>-48.0</ele><time>2022-10-30T12:23:09.0000000+00:00</time></trkpt><trkpt lat="39.47432723" lon="-0.37876379"><ele>-48.0</ele><time>2022-10-30T12:23:10.0000000+00:00</time></trkpt><trkpt lat="39.47432782" lon="-0.37876739"><ele>-48.0</ele><time>2022-10-30T12:23:11.0000000+00:00</time></trkpt><trkpt lat="39.47432807" lon="-0.37876898"><ele>-48.0</ele><time>2022-10-30T12:23:12.0000000+00:00</time></trkpt><trkpt lat="39.47432765" lon="-0.37876949"><ele>-47.8</ele><time>2022-10-30T12:23:13.0000000+00:00</time></trkpt><trkpt lat="39.47432681" lon="-0.37877024"><ele>-47.8</ele><time>2022-10-30T12:23:14.0000000+00:00</time></trkpt><trkpt lat="39.47432564" lon="-0.37877209"><ele>-47.8</ele><time>2022-10-30T12:23:15.0000000+00:00</time></trkpt><trkpt lat="39.47432404" lon="-0.3787751"><ele>-47.8</ele><time>2022-10-30T12:23:16.0000000+00:00</time></trkpt><trkpt lat="39.47432312" lon="-0.37877795"><ele>-47.8</ele><time>2022-10-30T12:23:17.0000000+00:00</time></trkpt><trkpt lat="39.47432337" lon="-0.37877829"><ele>-47.8</ele><time>2022-10-30T12:23:18.0000000+00:00</time></trkpt><trkpt lat="39.47432388" lon="-0.3787777"><ele>-47.8</ele><time>2022-10-30T12:23:19.0000000+00:00</time></trkpt><trkpt lat="39.47432388" lon="-0.3787777"><ele>-47.8</ele><time>2022-10-30T12:23:20.0000000+00:00</time></trkpt><trkpt lat="39.47432388" lon="-0.3787777"><ele>-47.8</ele><time>2022-10-30T12:23:21.0000000+00:00</time></trkpt><trkpt lat="39.47432388" lon="-0.3787777"><ele>-47.8</ele><time>2022-10-30T12:23:22.0000000+00:00</time></trkpt><trkpt lat="39.47432388" lon="-0.3787777"><ele>-47.8</ele><time>2022-10-30T12:23:23.0000000+00:00</time></trkpt><trkpt lat="39.47432388" lon="-0.3787777"><ele>-47.8</ele><time>2022-10-30T12:23:24.0000000+00:00</time></trkpt><trkpt lat="39.47432388" lon="-0.3787777"><ele>-47.8</ele><time>2022-10-30T12:23:25.0000000+00:00</time></trkpt><trkpt lat="39.47432388" lon="-0.3787777"><ele>-47.8</ele><time>2022-10-30T12:23:26.0000000+00:00</time></trkpt><trkpt lat="39.47432715" lon="-0.3787798"><ele>-47.8</ele><time>2022-10-30T12:23:27.0000000+00:00</time></trkpt><trkpt lat="39.47433494" lon="-0.37879279"><ele>-48.0</ele><time>2022-10-30T12:23:28.0000000+00:00</time></trkpt><trkpt lat="39.47434416" lon="-0.3788031"><ele>-48.0</ele><time>2022-10-30T12:23:29.0000000+00:00</time></trkpt><trkpt lat="39.47435397" lon="-0.37881115"><ele>-48.0</ele><time>2022-10-30T12:23:30.0000000+00:00</time></trkpt><trkpt lat="39.47436445" lon="-0.3788212"><ele>-48.0</ele><time>2022-10-30T12:23:31.0000000+00:00</time></trkpt><trkpt lat="39.47437501" lon="-0.37882757"><ele>-48.0</ele><time>2022-10-30T12:23:32.0000000+00:00</time></trkpt><trkpt lat="39.47438666" lon="-0.37883336"><ele>-48.0</ele><time>2022-10-30T12:23:33.0000000+00:00</time></trkpt><trkpt lat="39.47440124" lon="-0.37883797"><ele>-48.0</ele><time>2022-10-30T12:23:34.0000000+00:00</time></trkpt><trkpt lat="39.47441465" lon="-0.37884518"><ele>-48.0</ele><time>2022-10-30T12:23:35.0000000+00:00</time></trkpt><trkpt lat="39.47442521" lon="-0.37885515"><ele>-48.0</ele><time>2022-10-30T12:23:36.0000000+00:00</time></trkpt><trkpt lat="39.47443209" lon="-0.37886311"><ele>-48.0</ele><time>2022-10-30T12:23:37.0000000+00:00</time></trkpt><trkpt lat="39.47444005" lon="-0.37886739"><ele>-48.0</ele><time>2022-10-30T12:23:38.0000000+00:00</time></trkpt><trkpt lat="39.47444785" lon="-0.37886848"><ele>-48.0</ele><time>2022-10-30T12:23:39.0000000+00:00</time></trkpt><trkpt lat="39.47445489" lon="-0.37887158"><ele>-48.0</ele><time>2022-10-30T12:23:40.0000000+00:00</time></trkpt><trkpt lat="39.47446344" lon="-0.37887619"><ele>-48.0</ele><time>2022-10-30T12:23:41.0000000+00:00</time></trkpt><trkpt lat="39.47446846" lon="-0.37888021"><ele>-48.0</ele><time>2022-10-30T12:23:42.0000000+00:00</time></trkpt><trkpt lat="39.47447651" lon="-0.3788865"><ele>-48.0</ele><time>2022-10-30T12:23:43.0000000+00:00</time></trkpt><trkpt lat="39.47448808" lon="-0.37889253"><ele>-48.0</ele><time>2022-10-30T12:23:44.0000000+00:00</time></trkpt><trkpt lat="39.47449713" lon="-0.37889337"><ele>-48.0</ele><time>2022-10-30T12:23:45.0000000+00:00</time></trkpt><trkpt lat="39.47450308" lon="-0.37889698"><ele>-48.0</ele><time>2022-10-30T12:23:46.0000000+00:00</time></trkpt><trkpt lat="39.47451398" lon="-0.37890603"><ele>-48.0</ele><time>2022-10-30T12:23:47.0000000+00:00</time></trkpt><trkpt lat="39.4745206" lon="-0.37891542"><ele>-48.0</ele><time>2022-10-30T12:23:48.0000000+00:00</time></trkpt><trkpt lat="39.47452613" lon="-0.37892589"><ele>-48.0</ele><time>2022-10-30T12:23:49.0000000+00:00</time></trkpt><trkpt lat="39.4745294" lon="-0.37893763"><ele>-48.0</ele><time>2022-10-30T12:23:50.0000000+00:00</time></trkpt><trkpt lat="39.47453711" lon="-0.37894802"><ele>-48.0</ele><time>2022-10-30T12:23:51.0000000+00:00</time></trkpt><trkpt lat="39.47454943" lon="-0.37895506"><ele>-48.0</ele><time>2022-10-30T12:23:52.0000000+00:00</time></trkpt><trkpt lat="39.4745574" lon="-0.37895565"><ele>-48.2</ele><time>2022-10-30T12:23:53.0000000+00:00</time></trkpt><trkpt lat="39.47456444" lon="-0.37895473"><ele>-48.2</ele><time>2022-10-30T12:23:54.0000000+00:00</time></trkpt><trkpt lat="39.47456452" lon="-0.37895783"><ele>-48.2</ele><time>2022-10-30T12:23:55.0000000+00:00</time></trkpt><trkpt lat="39.4745646" lon="-0.3789621"><ele>-48.2</ele><time>2022-10-30T12:23:56.0000000+00:00</time></trkpt><trkpt lat="39.47456184" lon="-0.37897032"><ele>-48.0</ele><time>2022-10-30T12:23:57.0000000+00:00</time></trkpt><trkpt lat="39.47455874" lon="-0.3789823"><ele>-48.0</ele><time>2022-10-30T12:23:58.0000000+00:00</time></trkpt><trkpt lat="39.47456041" lon="-0.3789932"><ele>-48.0</ele><time>2022-10-30T12:23:59.0000000+00:00</time></trkpt><trkpt lat="39.47456276" lon="-0.37900619"><ele>-48.0</ele><time>2022-10-30T12:24:00.0000000+00:00</time></trkpt><trkpt lat="39.47456838" lon="-0.379016"><ele>-48.0</ele><time>2022-10-30T12:24:01.0000000+00:00</time></trkpt><trkpt lat="39.47457818" lon="-0.37902983"><ele>-48.0</ele><time>2022-10-30T12:24:02.0000000+00:00</time></trkpt><trkpt lat="39.47458564" lon="-0.37903821"><ele>-48.0</ele><time>2022-10-30T12:24:03.0000000+00:00</time></trkpt><trkpt lat="39.47459159" lon="-0.37905187"><ele>-48.0</ele><time>2022-10-30T12:24:04.0000000+00:00</time></trkpt><trkpt lat="39.47459964" lon="-0.37906554"><ele>-48.0</ele><time>2022-10-30T12:24:05.0000000+00:00</time></trkpt><trkpt lat="39.47460056" lon="-0.37907576"><ele>-48.0</ele><time>2022-10-30T12:24:06.0000000+00:00</time></trkpt><trkpt lat="39.47460241" lon="-0.37908624"><ele>-48.0</ele><time>2022-10-30T12:24:07.0000000+00:00</time></trkpt><trkpt lat="39.47460123" lon="-0.37910082"><ele>-48.0</ele><time>2022-10-30T12:24:08.0000000+00:00</time></trkpt><trkpt lat="39.47460819" lon="-0.37911717"><ele>-48.0</ele><time>2022-10-30T12:24:09.0000000+00:00</time></trkpt><trkpt lat="39.47461138" lon="-0.37913041"><ele>-48.0</ele><time>2022-10-30T12:24:10.0000000+00:00</time></trkpt><trkpt lat="39.47461389" lon="-0.37914324"><ele>-48.0</ele><time>2022-10-30T12:24:11.0000000+00:00</time></trkpt><trkpt lat="39.47461691" lon="-0.37914835"><ele>-48.0</ele><time>2022-10-30T12:24:12.0000000+00:00</time></trkpt><trkpt lat="39.47462252" lon="-0.37915112"><ele>-48.0</ele><time>2022-10-30T12:24:13.0000000+00:00</time></trkpt><trkpt lat="39.47462378" lon="-0.37915321"><ele>-48.2</ele><time>2022-10-30T12:24:14.0000000+00:00</time></trkpt><trkpt lat="39.47462412" lon="-0.37914718"><ele>-48.2</ele><time>2022-10-30T12:24:15.0000000+00:00</time></trkpt><trkpt lat="39.47461875" lon="-0.37914139"><ele>-48.0</ele><time>2022-10-30T12:24:16.0000000+00:00</time></trkpt><trkpt lat="39.47462387" lon="-0.37913402"><ele>-48.0</ele><time>2022-10-30T12:24:17.0000000+00:00</time></trkpt><trkpt lat="39.47462319" lon="-0.37913368"><ele>-47.8</ele><time>2022-10-30T12:24:18.0000000+00:00</time></trkpt><trkpt lat="39.47462353" lon="-0.37913226"><ele>-47.8</ele><time>2022-10-30T12:24:19.0000000+00:00</time></trkpt><trkpt lat="39.47462445" lon="-0.379132"><ele>-47.8</ele><time>2022-10-30T12:24:20.0000000+00:00</time></trkpt><trkpt lat="39.47462554" lon="-0.37913133"><ele>-47.8</ele><time>2022-10-30T12:24:21.0000000+00:00</time></trkpt><trkpt lat="39.47462747" lon="-0.37913259"><ele>-47.8</ele><time>2022-10-30T12:24:22.0000000+00:00</time></trkpt><trkpt lat="39.47462755" lon="-0.37913209"><ele>-47.8</ele><time>2022-10-30T12:24:23.0000000+00:00</time></trkpt><trkpt lat="39.47462755" lon="-0.37913209"><ele>-47.8</ele><time>2022-10-30T12:24:24.0000000+00:00</time></trkpt><trkpt lat="39.47462755" lon="-0.37913209"><ele>-47.8</ele><time>2022-10-30T12:24:25.0000000+00:00</time></trkpt><trkpt lat="39.47462755" lon="-0.37913209"><ele>-47.8</ele><time>2022-10-30T12:24:26.0000000+00:00</time></trkpt><trkpt lat="39.47462755" lon="-0.37913209"><ele>-47.8</ele><time>2022-10-30T12:24:27.0000000+00:00</time></trkpt><trkpt lat="39.47462755" lon="-0.37913209"><ele>-47.8</ele><time>2022-10-30T12:24:28.0000000+00:00</time></trkpt><trkpt lat="39.47462755" lon="-0.37913209"><ele>-48.0</ele><time>2022-10-30T12:24:29.0000000+00:00</time></trkpt><trkpt lat="39.47462755" lon="-0.37913209"><ele>-48.0</ele><time>2022-10-30T12:24:30.0000000+00:00</time></trkpt><trkpt lat="39.47462755" lon="-0.37913209"><ele>-48.0</ele><time>2022-10-30T12:24:31.0000000+00:00</time></trkpt><trkpt lat="39.47462755" lon="-0.37913209"><ele>-48.0</ele><time>2022-10-30T12:24:32.0000000+00:00</time></trkpt><trkpt lat="39.47462755" lon="-0.37913209"><ele>-48.0</ele><time>2022-10-30T12:24:33.0000000+00:00</time></trkpt><trkpt lat="39.47462747" lon="-0.37913209"><ele>-48.0</ele><time>2022-10-30T12:24:34.0000000+00:00</time></trkpt><trkpt lat="39.47462563" lon="-0.37913217"><ele>-48.0</ele><time>2022-10-30T12:24:35.0000000+00:00</time></trkpt><trkpt lat="39.47462454" lon="-0.37913217"><ele>-48.0</ele><time>2022-10-30T12:24:36.0000000+00:00</time></trkpt><trkpt lat="39.4746242" lon="-0.37913217"><ele>-47.8</ele><time>2022-10-30T12:24:37.0000000+00:00</time></trkpt><trkpt lat="39.47462395" lon="-0.37913217"><ele>-47.8</ele><time>2022-10-30T12:24:38.0000000+00:00</time></trkpt><trkpt lat="39.47462378" lon="-0.37913217"><ele>-48.0</ele><time>2022-10-30T12:24:39.0000000+00:00</time></trkpt><trkpt lat="39.47462353" lon="-0.37913217"><ele>-48.0</ele><time>2022-10-30T12:24:40.0000000+00:00</time></trkpt><trkpt lat="39.47462319" lon="-0.37913217"><ele>-48.0</ele><time>2022-10-30T12:24:41.0000000+00:00</time></trkpt><trkpt lat="39.47462319" lon="-0.37913217"><ele>-48.0</ele><time>2022-10-30T12:24:42.0000000+00:00</time></trkpt><trkpt lat="39.47462319" lon="-0.37913217"><ele>-48.0</ele><time>2022-10-30T12:24:43.0000000+00:00</time></trkpt><trkpt lat="39.47462319" lon="-0.37913217"><ele>-48.0</ele><time>2022-10-30T12:24:44.0000000+00:00</time></trkpt><trkpt lat="39.47462319" lon="-0.37913209"><ele>-48.0</ele><time>2022-10-30T12:24:45.0000000+00:00</time></trkpt><trkpt lat="39.47462319" lon="-0.379132"><ele>-48.0</ele><time>2022-10-30T12:24:46.0000000+00:00</time></trkpt><trkpt lat="39.4746221" lon="-0.37913142"><ele>-48.0</ele><time>2022-10-30T12:24:47.0000000+00:00</time></trkpt><trkpt lat="39.47462194" lon="-0.37913125"><ele>-48.0</ele><time>2022-10-30T12:24:48.0000000+00:00</time></trkpt><trkpt lat="39.47462169" lon="-0.37913075"><ele>-48.0</ele><time>2022-10-30T12:24:49.0000000+00:00</time></trkpt><trkpt lat="39.47462311" lon="-0.37913268"><ele>-48.0</ele><time>2022-10-30T12:24:50.0000000+00:00</time></trkpt><trkpt lat="39.47463099" lon="-0.37914801"><ele>-48.0</ele><time>2022-10-30T12:24:51.0000000+00:00</time></trkpt><trkpt lat="39.47464314" lon="-0.37916914"><ele>-47.8</ele><time>2022-10-30T12:24:52.0000000+00:00</time></trkpt><trkpt lat="39.47464038" lon="-0.37918171"><ele>-47.8</ele><time>2022-10-30T12:24:53.0000000+00:00</time></trkpt><trkpt lat="39.474647" lon="-0.37920174"><ele>-47.8</ele><time>2022-10-30T12:24:54.0000000+00:00</time></trkpt><trkpt lat="39.47466686" lon="-0.37922739"><ele>-47.8</ele><time>2022-10-30T12:24:55.0000000+00:00</time></trkpt><trkpt lat="39.47467902" lon="-0.3792486"><ele>-47.8</ele><time>2022-10-30T12:24:56.0000000+00:00</time></trkpt><trkpt lat="39.47468103" lon="-0.37927031"><ele>-47.8</ele><time>2022-10-30T12:24:57.0000000+00:00</time></trkpt><trkpt lat="39.47469628" lon="-0.37929478"><ele>-47.8</ele><time>2022-10-30T12:24:58.0000000+00:00</time></trkpt><trkpt lat="39.47470643" lon="-0.37932068"><ele>-47.6</ele><time>2022-10-30T12:24:59.0000000+00:00</time></trkpt><trkpt lat="39.47469939" lon="-0.37933602"><ele>-47.6</ele><time>2022-10-30T12:25:00.0000000+00:00</time></trkpt><trkpt lat="39.47468882" lon="-0.37935019"><ele>-47.6</ele><time>2022-10-30T12:25:01.0000000+00:00</time></trkpt><trkpt lat="39.47467944" lon="-0.37936133"><ele>-47.6</ele><time>2022-10-30T12:25:02.0000000+00:00</time></trkpt><trkpt lat="39.47467432" lon="-0.37937215"><ele>-47.6</ele><time>2022-10-30T12:25:03.0000000+00:00</time></trkpt><trkpt lat="39.47467575" lon="-0.37938179"><ele>-47.6</ele><time>2022-10-30T12:25:04.0000000+00:00</time></trkpt><trkpt lat="39.47467491" lon="-0.37939738"><ele>-47.6</ele><time>2022-10-30T12:25:05.0000000+00:00</time></trkpt><trkpt lat="39.47467357" lon="-0.37941054"><ele>-47.6</ele><time>2022-10-30T12:25:06.0000000+00:00</time></trkpt><trkpt lat="39.47466988" lon="-0.37942411"><ele>-47.4</ele><time>2022-10-30T12:25:07.0000000+00:00</time></trkpt><trkpt lat="39.47466175" lon="-0.37943493"><ele>-47.4</ele><time>2022-10-30T12:25:08.0000000+00:00</time></trkpt><trkpt lat="39.47465689" lon="-0.37944658"><ele>-47.4</ele><time>2022-10-30T12:25:09.0000000+00:00</time></trkpt><trkpt lat="39.47465127" lon="-0.37946049"><ele>-47.4</ele><time>2022-10-30T12:25:10.0000000+00:00</time></trkpt><trkpt lat="39.4746449" lon="-0.37946996"><ele>-47.4</ele><time>2022-10-30T12:25:11.0000000+00:00</time></trkpt><trkpt lat="39.47463753" lon="-0.37948664"><ele>-47.4</ele><time>2022-10-30T12:25:12.0000000+00:00</time></trkpt><trkpt lat="39.47462244" lon="-0.37950944"><ele>-47.2</ele><time>2022-10-30T12:25:13.0000000+00:00</time></trkpt><trkpt lat="39.47459855" lon="-0.37952537"><ele>-47.2</ele><time>2022-10-30T12:25:14.0000000+00:00</time></trkpt><trkpt lat="39.47457533" lon="-0.37953928"><ele>-47.2</ele><time>2022-10-30T12:25:15.0000000+00:00</time></trkpt><trkpt lat="39.47454633" lon="-0.37954347"><ele>-47.2</ele><time>2022-10-30T12:25:16.0000000+00:00</time></trkpt><trkpt lat="39.47451825" lon="-0.37954716"><ele>-47.2</ele><time>2022-10-30T12:25:17.0000000+00:00</time></trkpt><trkpt lat="39.47449504" lon="-0.37954146"><ele>-47.0</ele><time>2022-10-30T12:25:18.0000000+00:00</time></trkpt><trkpt lat="39.47447861" lon="-0.37953761"><ele>-47.0</ele><time>2022-10-30T12:25:19.0000000+00:00</time></trkpt><trkpt lat="39.47445966" lon="-0.37953325"><ele>-47.0</ele><time>2022-10-30T12:25:20.0000000+00:00</time></trkpt><trkpt lat="39.47444231" lon="-0.37953165"><ele>-47.0</ele><time>2022-10-30T12:25:21.0000000+00:00</time></trkpt><trkpt lat="39.4744253" lon="-0.37952713"><ele>-47.0</ele><time>2022-10-30T12:25:22.0000000+00:00</time></trkpt><trkpt lat="39.47440602" lon="-0.37952336"><ele>-47.0</ele><time>2022-10-30T12:25:23.0000000+00:00</time></trkpt><trkpt lat="39.47439219" lon="-0.37952528"><ele>-47.0</ele><time>2022-10-30T12:25:24.0000000+00:00</time></trkpt><trkpt lat="39.47437417" lon="-0.37952093"><ele>-47.0</ele><time>2022-10-30T12:25:25.0000000+00:00</time></trkpt><trkpt lat="39.47436034" lon="-0.37952285"><ele>-46.8</ele><time>2022-10-30T12:25:26.0000000+00:00</time></trkpt><trkpt lat="39.4743445" lon="-0.37952336"><ele>-46.8</ele><time>2022-10-30T12:25:27.0000000+00:00</time></trkpt><trkpt lat="39.47432874" lon="-0.37952688"><ele>-46.8</ele><time>2022-10-30T12:25:28.0000000+00:00</time></trkpt><trkpt lat="39.47431591" lon="-0.37953006"><ele>-46.8</ele><time>2022-10-30T12:25:29.0000000+00:00</time></trkpt><trkpt lat="39.47430225" lon="-0.37954029"><ele>-46.8</ele><time>2022-10-30T12:25:30.0000000+00:00</time></trkpt><trkpt lat="39.47428624" lon="-0.37954808"><ele>-46.8</ele><time>2022-10-30T12:25:31.0000000+00:00</time></trkpt><trkpt lat="39.47427149" lon="-0.37955018"><ele>-46.8</ele><time>2022-10-30T12:25:32.0000000+00:00</time></trkpt><trkpt lat="39.47425406" lon="-0.37955412"><ele>-46.8</ele><time>2022-10-30T12:25:33.0000000+00:00</time></trkpt><trkpt lat="39.47424299" lon="-0.37955269"><ele>-46.8</ele><time>2022-10-30T12:25:34.0000000+00:00</time></trkpt><trkpt lat="39.47422522" lon="-0.37956309"><ele>-46.8</ele><time>2022-10-30T12:25:35.0000000+00:00</time></trkpt><trkpt lat="39.47420779" lon="-0.37955353"><ele>-46.8</ele><time>2022-10-30T12:25:36.0000000+00:00</time></trkpt><trkpt lat="39.47419639" lon="-0.37955328"><ele>-46.6</ele><time>2022-10-30T12:25:37.0000000+00:00</time></trkpt><trkpt lat="39.47418935" lon="-0.37955018"><ele>-46.6</ele><time>2022-10-30T12:25:38.0000000+00:00</time></trkpt><trkpt lat="39.47417962" lon="-0.3795485"><ele>-46.6</ele><time>2022-10-30T12:25:39.0000000+00:00</time></trkpt><trkpt lat="39.4741673" lon="-0.37955311"><ele>-46.6</ele><time>2022-10-30T12:25:40.0000000+00:00</time></trkpt><trkpt lat="39.47415741" lon="-0.37955781"><ele>-46.6</ele><time>2022-10-30T12:25:41.0000000+00:00</time></trkpt><trkpt lat="39.4741471" lon="-0.37956334"><ele>-46.6</ele><time>2022-10-30T12:25:42.0000000+00:00</time></trkpt><trkpt lat="39.47413411" lon="-0.37956258"><ele>-46.6</ele><time>2022-10-30T12:25:43.0000000+00:00</time></trkpt><trkpt lat="39.47411894" lon="-0.37955923"><ele>-46.6</ele><time>2022-10-30T12:25:44.0000000+00:00</time></trkpt><trkpt lat="39.47411031" lon="-0.37955613"><ele>-46.6</ele><time>2022-10-30T12:25:45.0000000+00:00</time></trkpt><trkpt lat="39.47409983" lon="-0.3795568"><ele>-46.6</ele><time>2022-10-30T12:25:46.0000000+00:00</time></trkpt><trkpt lat="39.47408985" lon="-0.37955085"><ele>-46.6</ele><time>2022-10-30T12:25:47.0000000+00:00</time></trkpt><trkpt lat="39.47407569" lon="-0.37954984"><ele>-46.6</ele><time>2022-10-30T12:25:48.0000000+00:00</time></trkpt><trkpt lat="39.47406211" lon="-0.37955253"><ele>-46.6</ele><time>2022-10-30T12:25:49.0000000+00:00</time></trkpt><trkpt lat="39.47404962" lon="-0.37955839"><ele>-46.6</ele><time>2022-10-30T12:25:50.0000000+00:00</time></trkpt><trkpt lat="39.47403814" lon="-0.37956166"><ele>-46.6</ele><time>2022-10-30T12:25:51.0000000+00:00</time></trkpt><trkpt lat="39.47402691" lon="-0.37956267"><ele>-46.4</ele><time>2022-10-30T12:25:52.0000000+00:00</time></trkpt><trkpt lat="39.47401324" lon="-0.37955839"><ele>-46.4</ele><time>2022-10-30T12:25:53.0000000+00:00</time></trkpt><trkpt lat="39.47399891" lon="-0.37955546"><ele>-46.4</ele><time>2022-10-30T12:25:54.0000000+00:00</time></trkpt><trkpt lat="39.47398416" lon="-0.37955345"><ele>-46.4</ele><time>2022-10-30T12:25:55.0000000+00:00</time></trkpt><trkpt lat="39.47396773" lon="-0.37955856"><ele>-46.4</ele><time>2022-10-30T12:25:56.0000000+00:00</time></trkpt><trkpt lat="39.47395616" lon="-0.37956066"><ele>-46.2</ele><time>2022-10-30T12:25:57.0000000+00:00</time></trkpt><trkpt lat="39.47394661" lon="-0.37956049"><ele>-46.2</ele><time>2022-10-30T12:25:58.0000000+00:00</time></trkpt><trkpt lat="39.47393663" lon="-0.37956208"><ele>-46.2</ele><time>2022-10-30T12:25:59.0000000+00:00</time></trkpt><trkpt lat="39.47392414" lon="-0.37956568"><ele>-46.2</ele><time>2022-10-30T12:26:00.0000000+00:00</time></trkpt><trkpt lat="39.47391207" lon="-0.37957616"><ele>-46.2</ele><time>2022-10-30T12:26:01.0000000+00:00</time></trkpt><trkpt lat="39.47390151" lon="-0.37957784"><ele>-46.2</ele><time>2022-10-30T12:26:02.0000000+00:00</time></trkpt><trkpt lat="39.47389179" lon="-0.37958069"><ele>-46.2</ele><time>2022-10-30T12:26:03.0000000+00:00</time></trkpt><trkpt lat="39.47388332" lon="-0.3795858"><ele>-46.2</ele><time>2022-10-30T12:26:04.0000000+00:00</time></trkpt><trkpt lat="39.47387268" lon="-0.37959024"><ele>-46.2</ele><time>2022-10-30T12:26:05.0000000+00:00</time></trkpt><trkpt lat="39.47385994" lon="-0.37959242"><ele>-46.2</ele><time>2022-10-30T12:26:06.0000000+00:00</time></trkpt><trkpt lat="39.47384611" lon="-0.3795972"><ele>-46.2</ele><time>2022-10-30T12:26:07.0000000+00:00</time></trkpt><trkpt lat="39.4738337" lon="-0.37960173"><ele>-46.2</ele><time>2022-10-30T12:26:08.0000000+00:00</time></trkpt><trkpt lat="39.47382256" lon="-0.37961078"><ele>-46.2</ele><time>2022-10-30T12:26:09.0000000+00:00</time></trkpt><trkpt lat="39.47380655" lon="-0.37961179"><ele>-46.2</ele><time>2022-10-30T12:26:10.0000000+00:00</time></trkpt><trkpt lat="39.47378852" lon="-0.37961229"><ele>-46.2</ele><time>2022-10-30T12:26:11.0000000+00:00</time></trkpt><trkpt lat="39.47377444" lon="-0.3796091"><ele>-46.2</ele><time>2022-10-30T12:26:12.0000000+00:00</time></trkpt><trkpt lat="39.47375835" lon="-0.37960516"><ele>-46.2</ele><time>2022-10-30T12:26:13.0000000+00:00</time></trkpt><trkpt lat="39.47374737" lon="-0.37960072"><ele>-46.2</ele><time>2022-10-30T12:26:14.0000000+00:00</time></trkpt><trkpt lat="39.47373429" lon="-0.37959745"><ele>-46.2</ele><time>2022-10-30T12:26:15.0000000+00:00</time></trkpt><trkpt lat="39.47372214" lon="-0.37959754"><ele>-46.2</ele><time>2022-10-30T12:26:16.0000000+00:00</time></trkpt><trkpt lat="39.47371443" lon="-0.37959812"><ele>-46.2</ele><time>2022-10-30T12:26:17.0000000+00:00</time></trkpt><trkpt lat="39.47370714" lon="-0.37959703"><ele>-46.0</ele><time>2022-10-30T12:26:18.0000000+00:00</time></trkpt><trkpt lat="39.4736985" lon="-0.3795915"><ele>-46.0</ele><time>2022-10-30T12:26:19.0000000+00:00</time></trkpt><trkpt lat="39.47369423" lon="-0.37959133"><ele>-46.0</ele><time>2022-10-30T12:26:20.0000000+00:00</time></trkpt><trkpt lat="39.47368895" lon="-0.37959125"><ele>-46.0</ele><time>2022-10-30T12:26:21.0000000+00:00</time></trkpt><trkpt lat="39.47368023" lon="-0.37959016"><ele>-46.0</ele><time>2022-10-30T12:26:22.0000000+00:00</time></trkpt><trkpt lat="39.47367445" lon="-0.379592"><ele>-46.0</ele><time>2022-10-30T12:26:23.0000000+00:00</time></trkpt><trkpt lat="39.47367009" lon="-0.37959293"><ele>-46.0</ele><time>2022-10-30T12:26:24.0000000+00:00</time></trkpt><trkpt lat="39.47366707" lon="-0.37959117"><ele>-46.0</ele><time>2022-10-30T12:26:25.0000000+00:00</time></trkpt><trkpt lat="39.4736612" lon="-0.3795863"><ele>-46.0</ele><time>2022-10-30T12:26:26.0000000+00:00</time></trkpt><trkpt lat="39.47365223" lon="-0.37958312"><ele>-46.0</ele><time>2022-10-30T12:26:27.0000000+00:00</time></trkpt><trkpt lat="39.47364377" lon="-0.37958832"><ele>-46.0</ele><time>2022-10-30T12:26:28.0000000+00:00</time></trkpt><trkpt lat="39.47363421" lon="-0.37958589"><ele>-46.0</ele><time>2022-10-30T12:26:29.0000000+00:00</time></trkpt><trkpt lat="39.47362449" lon="-0.37959117"><ele>-46.0</ele><time>2022-10-30T12:26:30.0000000+00:00</time></trkpt><trkpt lat="39.47362273" lon="-0.37960231"><ele>-46.0</ele><time>2022-10-30T12:26:31.0000000+00:00</time></trkpt><trkpt lat="39.47362047" lon="-0.37960625"><ele>-46.0</ele><time>2022-10-30T12:26:32.0000000+00:00</time></trkpt><trkpt lat="39.47361527" lon="-0.37961019"><ele>-46.0</ele><time>2022-10-30T12:26:33.0000000+00:00</time></trkpt><trkpt lat="39.47360697" lon="-0.37960935"><ele>-45.8</ele><time>2022-10-30T12:26:34.0000000+00:00</time></trkpt><trkpt lat="39.47359398" lon="-0.37960919"><ele>-45.8</ele><time>2022-10-30T12:26:35.0000000+00:00</time></trkpt><trkpt lat="39.47358476" lon="-0.37961019"><ele>-45.8</ele><time>2022-10-30T12:26:36.0000000+00:00</time></trkpt><trkpt lat="39.47357948" lon="-0.37961212"><ele>-45.8</ele><time>2022-10-30T12:26:37.0000000+00:00</time></trkpt><trkpt lat="39.47357395" lon="-0.37961095"><ele>-45.8</ele><time>2022-10-30T12:26:38.0000000+00:00</time></trkpt><trkpt lat="39.47356599" lon="-0.37961212"><ele>-45.8</ele><time>2022-10-30T12:26:39.0000000+00:00</time></trkpt><trkpt lat="39.47355953" lon="-0.37961271"><ele>-45.8</ele><time>2022-10-30T12:26:40.0000000+00:00</time></trkpt><trkpt lat="39.47355358" lon="-0.37961572"><ele>-45.8</ele><time>2022-10-30T12:26:41.0000000+00:00</time></trkpt><trkpt lat="39.47354998" lon="-0.37961916"><ele>-45.8</ele><time>2022-10-30T12:26:42.0000000+00:00</time></trkpt><trkpt lat="39.47354914" lon="-0.37962075"><ele>-45.8</ele><time>2022-10-30T12:26:43.0000000+00:00</time></trkpt><trkpt lat="39.47354335" lon="-0.37962654"><ele>-45.8</ele><time>2022-10-30T12:26:44.0000000+00:00</time></trkpt><trkpt lat="39.47354252" lon="-0.37962528"><ele>-45.8</ele><time>2022-10-30T12:26:45.0000000+00:00</time></trkpt><trkpt lat="39.47352919" lon="-0.37962193"><ele>-45.8</ele><time>2022-10-30T12:26:46.0000000+00:00</time></trkpt><trkpt lat="39.47351854" lon="-0.37962017"><ele>-45.8</ele><time>2022-10-30T12:26:47.0000000+00:00</time></trkpt><trkpt lat="39.47351804" lon="-0.3796231"><ele>-45.6</ele><time>2022-10-30T12:26:48.0000000+00:00</time></trkpt><trkpt lat="39.47351184" lon="-0.37963106"><ele>-45.6</ele><time>2022-10-30T12:26:49.0000000+00:00</time></trkpt><trkpt lat="39.47350832" lon="-0.37963618"><ele>-45.8</ele><time>2022-10-30T12:26:50.0000000+00:00</time></trkpt><trkpt lat="39.47349859" lon="-0.37963282"><ele>-45.6</ele><time>2022-10-30T12:26:51.0000000+00:00</time></trkpt><trkpt lat="39.47349315" lon="-0.379634"><ele>-45.6</ele><time>2022-10-30T12:26:52.0000000+00:00</time></trkpt><trkpt lat="39.47348057" lon="-0.37963257"><ele>-45.6</ele><time>2022-10-30T12:26:53.0000000+00:00</time></trkpt><trkpt lat="39.4734706" lon="-0.37962587"><ele>-45.6</ele><time>2022-10-30T12:26:54.0000000+00:00</time></trkpt><trkpt lat="39.47346071" lon="-0.37962863"><ele>-45.6</ele><time>2022-10-30T12:26:55.0000000+00:00</time></trkpt><trkpt lat="39.47345115" lon="-0.37962972"><ele>-45.6</ele><time>2022-10-30T12:26:56.0000000+00:00</time></trkpt><trkpt lat="39.47344327" lon="-0.37963014"><ele>-45.6</ele><time>2022-10-30T12:26:57.0000000+00:00</time></trkpt><trkpt lat="39.47343699" lon="-0.3796283"><ele>-45.6</ele><time>2022-10-30T12:26:58.0000000+00:00</time></trkpt><trkpt lat="39.47342475" lon="-0.37961807"><ele>-45.8</ele><time>2022-10-30T12:26:59.0000000+00:00</time></trkpt><trkpt lat="39.47340488" lon="-0.37961321"><ele>-45.8</ele><time>2022-10-30T12:27:00.0000000+00:00</time></trkpt><trkpt lat="39.47339273" lon="-0.37961019"><ele>-45.8</ele><time>2022-10-30T12:27:01.0000000+00:00</time></trkpt><trkpt lat="39.4733779" lon="-0.37960055"><ele>-45.8</ele><time>2022-10-30T12:27:02.0000000+00:00</time></trkpt><trkpt lat="39.47336256" lon="-0.3795905"><ele>-45.8</ele><time>2022-10-30T12:27:03.0000000+00:00</time></trkpt><trkpt lat="39.47334043" lon="-0.37956904"><ele>-45.8</ele><time>2022-10-30T12:27:04.0000000+00:00</time></trkpt><trkpt lat="39.47332542" lon="-0.37955596"><ele>-45.8</ele><time>2022-10-30T12:27:05.0000000+00:00</time></trkpt><trkpt lat="39.47331478" lon="-0.37954867"><ele>-45.6</ele><time>2022-10-30T12:27:06.0000000+00:00</time></trkpt><trkpt lat="39.47329776" lon="-0.37954607"><ele>-45.6</ele><time>2022-10-30T12:27:07.0000000+00:00</time></trkpt><trkpt lat="39.47328896" lon="-0.37955118"><ele>-45.6</ele><time>2022-10-30T12:27:08.0000000+00:00</time></trkpt><trkpt lat="39.47328905" lon="-0.37955563"><ele>-45.6</ele><time>2022-10-30T12:27:09.0000000+00:00</time></trkpt><trkpt lat="39.47327765" lon="-0.37955479"><ele>-45.8</ele><time>2022-10-30T12:27:10.0000000+00:00</time></trkpt><trkpt lat="39.47325912" lon="-0.37953693"><ele>-45.8</ele><time>2022-10-30T12:27:11.0000000+00:00</time></trkpt><trkpt lat="39.47324412" lon="-0.37952621"><ele>-45.8</ele><time>2022-10-30T12:27:12.0000000+00:00</time></trkpt><trkpt lat="39.47323314" lon="-0.37952302"><ele>-45.8</ele><time>2022-10-30T12:27:13.0000000+00:00</time></trkpt><trkpt lat="39.47322023" lon="-0.37952922"><ele>-45.8</ele><time>2022-10-30T12:27:14.0000000+00:00</time></trkpt><trkpt lat="39.47321068" lon="-0.37953794"><ele>-46.0</ele><time>2022-10-30T12:27:15.0000000+00:00</time></trkpt><trkpt lat="39.47320422" lon="-0.3795542"><ele>-46.0</ele><time>2022-10-30T12:27:16.0000000+00:00</time></trkpt><trkpt lat="39.4731919" lon="-0.37956351"><ele>-46.0</ele><time>2022-10-30T12:27:17.0000000+00:00</time></trkpt><trkpt lat="39.47317841" lon="-0.37956711"><ele>-46.0</ele><time>2022-10-30T12:27:18.0000000+00:00</time></trkpt><trkpt lat="39.4731629" lon="-0.37956803"><ele>-46.0</ele><time>2022-10-30T12:27:19.0000000+00:00</time></trkpt><trkpt lat="39.47314748" lon="-0.37956845"><ele>-46.0</ele><time>2022-10-30T12:27:20.0000000+00:00</time></trkpt><trkpt lat="39.47313231" lon="-0.37957633"><ele>-46.0</ele><time>2022-10-30T12:27:21.0000000+00:00</time></trkpt><trkpt lat="39.47312485" lon="-0.37958697"><ele>-46.0</ele><time>2022-10-30T12:27:22.0000000+00:00</time></trkpt><trkpt lat="39.47311588" lon="-0.37960617"><ele>-46.0</ele><time>2022-10-30T12:27:23.0000000+00:00</time></trkpt><trkpt lat="39.47311143" lon="-0.37963542"><ele>-46.0</ele><time>2022-10-30T12:27:24.0000000+00:00</time></trkpt><trkpt lat="39.47310708" lon="-0.37965428"><ele>-46.0</ele><time>2022-10-30T12:27:25.0000000+00:00</time></trkpt><trkpt lat="39.47310221" lon="-0.37966853"><ele>-46.0</ele><time>2022-10-30T12:27:26.0000000+00:00</time></trkpt><trkpt lat="39.47309316" lon="-0.3796749"><ele>-46.0</ele><time>2022-10-30T12:27:27.0000000+00:00</time></trkpt><trkpt lat="39.47308419" lon="-0.37967054"><ele>-46.0</ele><time>2022-10-30T12:27:28.0000000+00:00</time></trkpt><trkpt lat="39.47307774" lon="-0.37967222"><ele>-46.0</ele><time>2022-10-30T12:27:29.0000000+00:00</time></trkpt><trkpt lat="39.4730702" lon="-0.3796754"><ele>-46.0</ele><time>2022-10-30T12:27:30.0000000+00:00</time></trkpt><trkpt lat="39.47307061" lon="-0.37968555"><ele>-46.0</ele><time>2022-10-30T12:27:31.0000000+00:00</time></trkpt><trkpt lat="39.47306927" lon="-0.37968798"><ele>-46.0</ele><time>2022-10-30T12:27:32.0000000+00:00</time></trkpt><trkpt lat="39.47306978" lon="-0.37968865"><ele>-46.0</ele><time>2022-10-30T12:27:33.0000000+00:00</time></trkpt><trkpt lat="39.47306399" lon="-0.3796884"><ele>-46.0</ele><time>2022-10-30T12:27:34.0000000+00:00</time></trkpt><trkpt lat="39.47305368" lon="-0.37969284"><ele>-46.0</ele><time>2022-10-30T12:27:35.0000000+00:00</time></trkpt><trkpt lat="39.47304287" lon="-0.37969301"><ele>-46.0</ele><time>2022-10-30T12:27:36.0000000+00:00</time></trkpt><trkpt lat="39.47303214" lon="-0.37968898"><ele>-46.0</ele><time>2022-10-30T12:27:37.0000000+00:00</time></trkpt><trkpt lat="39.47301848" lon="-0.37968337"><ele>-46.0</ele><time>2022-10-30T12:27:38.0000000+00:00</time></trkpt><trkpt lat="39.47300037" lon="-0.37967213"><ele>-46.0</ele><time>2022-10-30T12:27:39.0000000+00:00</time></trkpt><trkpt lat="39.47298478" lon="-0.37967079"><ele>-46.0</ele><time>2022-10-30T12:27:40.0000000+00:00</time></trkpt><trkpt lat="39.47296551" lon="-0.37965705"><ele>-46.0</ele><time>2022-10-30T12:27:41.0000000+00:00</time></trkpt><trkpt lat="39.47295" lon="-0.37964732"><ele>-46.0</ele><time>2022-10-30T12:27:42.0000000+00:00</time></trkpt><trkpt lat="39.47293374" lon="-0.37964171"><ele>-46.2</ele><time>2022-10-30T12:27:43.0000000+00:00</time></trkpt><trkpt lat="39.47291521" lon="-0.37964623"><ele>-46.0</ele><time>2022-10-30T12:27:44.0000000+00:00</time></trkpt><trkpt lat="39.47290038" lon="-0.37965235"><ele>-46.0</ele><time>2022-10-30T12:27:45.0000000+00:00</time></trkpt><trkpt lat="39.47288772" lon="-0.3796547"><ele>-46.0</ele><time>2022-10-30T12:27:46.0000000+00:00</time></trkpt><trkpt lat="39.47287221" lon="-0.37965604"><ele>-46.2</ele><time>2022-10-30T12:27:47.0000000+00:00</time></trkpt><trkpt lat="39.47285771" lon="-0.37965663"><ele>-46.2</ele><time>2022-10-30T12:27:48.0000000+00:00</time></trkpt><trkpt lat="39.4728469" lon="-0.37965604"><ele>-46.2</ele><time>2022-10-30T12:27:49.0000000+00:00</time></trkpt><trkpt lat="39.47283517" lon="-0.37965277"><ele>-46.0</ele><time>2022-10-30T12:27:50.0000000+00:00</time></trkpt><trkpt lat="39.47282947" lon="-0.37965437"><ele>-46.0</ele><time>2022-10-30T12:27:51.0000000+00:00</time></trkpt><trkpt lat="39.47282989" lon="-0.37965143"><ele>-46.0</ele><time>2022-10-30T12:27:52.0000000+00:00</time></trkpt><trkpt lat="39.47282352" lon="-0.37965084"><ele>-46.0</ele><time>2022-10-30T12:27:53.0000000+00:00</time></trkpt><trkpt lat="39.47281773" lon="-0.37965613"><ele>-46.2</ele><time>2022-10-30T12:27:54.0000000+00:00</time></trkpt><trkpt lat="39.47280348" lon="-0.37966685"><ele>-46.2</ele><time>2022-10-30T12:27:55.0000000+00:00</time></trkpt><trkpt lat="39.47278873" lon="-0.3796827"><ele>-46.2</ele><time>2022-10-30T12:27:56.0000000+00:00</time></trkpt><trkpt lat="39.47275906" lon="-0.37969493"><ele>-46.2</ele><time>2022-10-30T12:27:57.0000000+00:00</time></trkpt><trkpt lat="39.47273777" lon="-0.37970156"><ele>-46.2</ele><time>2022-10-30T12:27:58.0000000+00:00</time></trkpt><trkpt lat="39.47271975" lon="-0.37970139"><ele>-46.2</ele><time>2022-10-30T12:27:59.0000000+00:00</time></trkpt><trkpt lat="39.47270961" lon="-0.37971287"><ele>-46.2</ele><time>2022-10-30T12:28:00.0000000+00:00</time></trkpt><trkpt lat="39.47269963" lon="-0.37972913"><ele>-46.2</ele><time>2022-10-30T12:28:01.0000000+00:00</time></trkpt><trkpt lat="39.47268731" lon="-0.37973835"><ele>-46.2</ele><time>2022-10-30T12:28:02.0000000+00:00</time></trkpt><trkpt lat="39.47268563" lon="-0.37974061"><ele>-46.2</ele><time>2022-10-30T12:28:03.0000000+00:00</time></trkpt><trkpt lat="39.47267532" lon="-0.3797474"><ele>-46.2</ele><time>2022-10-30T12:28:04.0000000+00:00</time></trkpt><trkpt lat="39.47265336" lon="-0.37974665"><ele>-46.2</ele><time>2022-10-30T12:28:05.0000000+00:00</time></trkpt><trkpt lat="39.47262864" lon="-0.37974757"><ele>-46.2</ele><time>2022-10-30T12:28:06.0000000+00:00</time></trkpt><trkpt lat="39.4726247" lon="-0.37976048"><ele>-46.2</ele><time>2022-10-30T12:28:07.0000000+00:00</time></trkpt><trkpt lat="39.4726159" lon="-0.37976358"><ele>-46.2</ele><time>2022-10-30T12:28:08.0000000+00:00</time></trkpt><trkpt lat="39.47260852" lon="-0.37976962"><ele>-46.2</ele><time>2022-10-30T12:28:09.0000000+00:00</time></trkpt><trkpt lat="39.47261196" lon="-0.3797697"><ele>-46.2</ele><time>2022-10-30T12:28:10.0000000+00:00</time></trkpt><trkpt lat="39.4726081" lon="-0.37977213"><ele>-46.2</ele><time>2022-10-30T12:28:11.0000000+00:00</time></trkpt><trkpt lat="39.47260693" lon="-0.37977884"><ele>-46.2</ele><time>2022-10-30T12:28:12.0000000+00:00</time></trkpt><trkpt lat="39.47260827" lon="-0.3797873"><ele>-46.2</ele><time>2022-10-30T12:28:13.0000000+00:00</time></trkpt><trkpt lat="39.47260441" lon="-0.37979543"><ele>-46.2</ele><time>2022-10-30T12:28:14.0000000+00:00</time></trkpt><trkpt lat="39.47260483" lon="-0.37978898"><ele>-46.2</ele><time>2022-10-30T12:28:15.0000000+00:00</time></trkpt><trkpt lat="39.47259704" lon="-0.37978722"><ele>-46.2</ele><time>2022-10-30T12:28:16.0000000+00:00</time></trkpt><trkpt lat="39.47259679" lon="-0.37978219"><ele>-46.2</ele><time>2022-10-30T12:28:17.0000000+00:00</time></trkpt><trkpt lat="39.47259251" lon="-0.37979099"><ele>-46.0</ele><time>2022-10-30T12:28:18.0000000+00:00</time></trkpt><trkpt lat="39.4725905" lon="-0.37979191"><ele>-46.0</ele><time>2022-10-30T12:28:19.0000000+00:00</time></trkpt><trkpt lat="39.47258363" lon="-0.37979853"><ele>-46.0</ele><time>2022-10-30T12:28:20.0000000+00:00</time></trkpt><trkpt lat="39.47257659" lon="-0.37980432"><ele>-46.0</ele><time>2022-10-30T12:28:21.0000000+00:00</time></trkpt><trkpt lat="39.47257038" lon="-0.37981463"><ele>-46.0</ele><time>2022-10-30T12:28:22.0000000+00:00</time></trkpt><trkpt lat="39.47257055" lon="-0.3798567"><ele>-46.0</ele><time>2022-10-30T12:28:23.0000000+00:00</time></trkpt><trkpt lat="39.47257239" lon="-0.37990465"><ele>-46.0</ele><time>2022-10-30T12:28:24.0000000+00:00</time></trkpt><trkpt lat="39.47258136" lon="-0.37995393"><ele>-46.0</ele><time>2022-10-30T12:28:25.0000000+00:00</time></trkpt><trkpt lat="39.47259083" lon="-0.37999895"><ele>-46.0</ele><time>2022-10-30T12:28:26.0000000+00:00</time></trkpt><trkpt lat="39.47260005" lon="-0.38003633"><ele>-46.0</ele><time>2022-10-30T12:28:27.0000000+00:00</time></trkpt><trkpt lat="39.47260735" lon="-0.38006432"><ele>-46.0</ele><time>2022-10-30T12:28:28.0000000+00:00</time></trkpt><trkpt lat="39.4726133" lon="-0.38009064"><ele>-46.0</ele><time>2022-10-30T12:28:29.0000000+00:00</time></trkpt><trkpt lat="39.47261707" lon="-0.38012006"><ele>-46.0</ele><time>2022-10-30T12:28:30.0000000+00:00</time></trkpt><trkpt lat="39.47262621" lon="-0.38015275"><ele>-46.0</ele><time>2022-10-30T12:28:31.0000000+00:00</time></trkpt><trkpt lat="39.47263098" lon="-0.38018662"><ele>-46.0</ele><time>2022-10-30T12:28:32.0000000+00:00</time></trkpt><trkpt lat="39.47262989" lon="-0.38021361"><ele>-46.0</ele><time>2022-10-30T12:28:33.0000000+00:00</time></trkpt><trkpt lat="39.47262763" lon="-0.38023657"><ele>-46.0</ele><time>2022-10-30T12:28:34.0000000+00:00</time></trkpt><trkpt lat="39.47262864" lon="-0.38026205"><ele>-45.8</ele><time>2022-10-30T12:28:35.0000000+00:00</time></trkpt><trkpt lat="39.47263124" lon="-0.38028594"><ele>-45.8</ele><time>2022-10-30T12:28:36.0000000+00:00</time></trkpt><trkpt lat="39.47264104" lon="-0.3802986"><ele>-46.0</ele><time>2022-10-30T12:28:37.0000000+00:00</time></trkpt><trkpt lat="39.4726542" lon="-0.3803167"><ele>-46.0</ele><time>2022-10-30T12:28:38.0000000+00:00</time></trkpt><trkpt lat="39.47265328" lon="-0.38032148"><ele>-46.0</ele><time>2022-10-30T12:28:39.0000000+00:00</time></trkpt><trkpt lat="39.4726677" lon="-0.38034009"><ele>-46.0</ele><time>2022-10-30T12:28:40.0000000+00:00</time></trkpt><trkpt lat="39.47267499" lon="-0.38034663"><ele>-46.0</ele><time>2022-10-30T12:28:41.0000000+00:00</time></trkpt><trkpt lat="39.47268731" lon="-0.38035794"><ele>-46.0</ele><time>2022-10-30T12:28:42.0000000+00:00</time></trkpt><trkpt lat="39.47270257" lon="-0.38036834"><ele>-46.0</ele><time>2022-10-30T12:28:43.0000000+00:00</time></trkpt><trkpt lat="39.4727024" lon="-0.38037236"><ele>-46.0</ele><time>2022-10-30T12:28:44.0000000+00:00</time></trkpt><trkpt lat="39.47272411" lon="-0.3803908"><ele>-46.0</ele><time>2022-10-30T12:28:45.0000000+00:00</time></trkpt><trkpt lat="39.47274305" lon="-0.38040832"><ele>-46.0</ele><time>2022-10-30T12:28:46.0000000+00:00</time></trkpt><trkpt lat="39.47274833" lon="-0.3804105"><ele>-46.0</ele><time>2022-10-30T12:28:47.0000000+00:00</time></trkpt><trkpt lat="39.47274858" lon="-0.38040999"><ele>-46.0</ele><time>2022-10-30T12:28:48.0000000+00:00</time></trkpt><trkpt lat="39.47275763" lon="-0.3804198"><ele>-46.0</ele><time>2022-10-30T12:28:49.0000000+00:00</time></trkpt><trkpt lat="39.47275437" lon="-0.38041796"><ele>-46.0</ele><time>2022-10-30T12:28:50.0000000+00:00</time></trkpt><trkpt lat="39.47275319" lon="-0.38041695"><ele>-46.0</ele><time>2022-10-30T12:28:51.0000000+00:00</time></trkpt><trkpt lat="39.47275202" lon="-0.38041603"><ele>-46.2</ele><time>2022-10-30T12:28:52.0000000+00:00</time></trkpt><trkpt lat="39.47275017" lon="-0.38041477"><ele>-46.0</ele><time>2022-10-30T12:28:53.0000000+00:00</time></trkpt><trkpt lat="39.47274976" lon="-0.38041435"><ele>-46.0</ele><time>2022-10-30T12:28:54.0000000+00:00</time></trkpt><trkpt lat="39.47275185" lon="-0.38041486"><ele>-46.0</ele><time>2022-10-30T12:28:55.0000000+00:00</time></trkpt><trkpt lat="39.47275152" lon="-0.38041561"><ele>-46.0</ele><time>2022-10-30T12:28:56.0000000+00:00</time></trkpt><trkpt lat="39.47275185" lon="-0.3804162"><ele>-46.2</ele><time>2022-10-30T12:28:57.0000000+00:00</time></trkpt><trkpt lat="39.47275101" lon="-0.38041603"><ele>-46.2</ele><time>2022-10-30T12:28:58.0000000+00:00</time></trkpt><trkpt lat="39.47277549" lon="-0.380426"><ele>-46.2</ele><time>2022-10-30T12:28:59.0000000+00:00</time></trkpt><trkpt lat="39.47277809" lon="-0.38042659"><ele>-46.2</ele><time>2022-10-30T12:29:00.0000000+00:00</time></trkpt><trkpt lat="39.47278504" lon="-0.38043799"><ele>-46.2</ele><time>2022-10-30T12:29:01.0000000+00:00</time></trkpt><trkpt lat="39.47278186" lon="-0.38044394"><ele>-46.2</ele><time>2022-10-30T12:29:02.0000000+00:00</time></trkpt><trkpt lat="39.47278471" lon="-0.38044243"><ele>-46.2</ele><time>2022-10-30T12:29:03.0000000+00:00</time></trkpt><trkpt lat="39.47279418" lon="-0.38044402"><ele>-46.2</ele><time>2022-10-30T12:29:04.0000000+00:00</time></trkpt><trkpt lat="39.47279602" lon="-0.38044361"><ele>-46.2</ele><time>2022-10-30T12:29:05.0000000+00:00</time></trkpt><trkpt lat="39.47280298" lon="-0.38044545"><ele>-46.2</ele><time>2022-10-30T12:29:06.0000000+00:00</time></trkpt><trkpt lat="39.47280608" lon="-0.38044637"><ele>-46.2</ele><time>2022-10-30T12:29:07.0000000+00:00</time></trkpt><trkpt lat="39.47281849" lon="-0.38045366"><ele>-46.2</ele><time>2022-10-30T12:29:08.0000000+00:00</time></trkpt><trkpt lat="39.47283768" lon="-0.3804664"><ele>-46.2</ele><time>2022-10-30T12:29:09.0000000+00:00</time></trkpt><trkpt lat="39.47284204" lon="-0.38046858"><ele>-46.2</ele><time>2022-10-30T12:29:10.0000000+00:00</time></trkpt><trkpt lat="39.47284137" lon="-0.38046909"><ele>-46.2</ele><time>2022-10-30T12:29:11.0000000+00:00</time></trkpt><trkpt lat="39.47284053" lon="-0.38046892"><ele>-46.2</ele><time>2022-10-30T12:29:12.0000000+00:00</time></trkpt><trkpt lat="39.47283986" lon="-0.38046783"><ele>-46.2</ele><time>2022-10-30T12:29:13.0000000+00:00</time></trkpt><trkpt lat="39.4728402" lon="-0.38046833"><ele>-46.2</ele><time>2022-10-30T12:29:14.0000000+00:00</time></trkpt><trkpt lat="39.47284078" lon="-0.3804685"><ele>-46.2</ele><time>2022-10-30T12:29:15.0000000+00:00</time></trkpt><trkpt lat="39.47284145" lon="-0.38046867"><ele>-46.2</ele><time>2022-10-30T12:29:16.0000000+00:00</time></trkpt><trkpt lat="39.47284321" lon="-0.38046883"><ele>-46.2</ele><time>2022-10-30T12:29:17.0000000+00:00</time></trkpt><trkpt lat="39.47284455" lon="-0.38046883"><ele>-46.2</ele><time>2022-10-30T12:29:18.0000000+00:00</time></trkpt><trkpt lat="39.47284288" lon="-0.38046825"><ele>-46.2</ele><time>2022-10-30T12:29:19.0000000+00:00</time></trkpt><trkpt lat="39.47284179" lon="-0.380468"><ele>-46.2</ele><time>2022-10-30T12:29:20.0000000+00:00</time></trkpt><trkpt lat="39.47284162" lon="-0.38046791"><ele>-46.2</ele><time>2022-10-30T12:29:21.0000000+00:00</time></trkpt><trkpt lat="39.47283944" lon="-0.38046707"><ele>-46.2</ele><time>2022-10-30T12:29:22.0000000+00:00</time></trkpt><trkpt lat="39.47284271" lon="-0.38046992"><ele>-46.2</ele><time>2022-10-30T12:29:23.0000000+00:00</time></trkpt><trkpt lat="39.47284338" lon="-0.38047127"><ele>-46.2</ele><time>2022-10-30T12:29:24.0000000+00:00</time></trkpt><trkpt lat="39.47285252" lon="-0.38047663"><ele>-46.2</ele><time>2022-10-30T12:29:25.0000000+00:00</time></trkpt><trkpt lat="39.47285445" lon="-0.38047554"><ele>-46.2</ele><time>2022-10-30T12:29:26.0000000+00:00</time></trkpt><trkpt lat="39.47285646" lon="-0.38047361"><ele>-46.2</ele><time>2022-10-30T12:29:27.0000000+00:00</time></trkpt><trkpt lat="39.47285176" lon="-0.38046875"><ele>-46.2</ele><time>2022-10-30T12:29:28.0000000+00:00</time></trkpt><trkpt lat="39.47285394" lon="-0.38046951"><ele>-46.2</ele><time>2022-10-30T12:29:29.0000000+00:00</time></trkpt><trkpt lat="39.47284724" lon="-0.38046515"><ele>-46.2</ele><time>2022-10-30T12:29:30.0000000+00:00</time></trkpt><trkpt lat="39.47284112" lon="-0.38046372"><ele>-46.2</ele><time>2022-10-30T12:29:31.0000000+00:00</time></trkpt><trkpt lat="39.47283743" lon="-0.3804628"><ele>-46.2</ele><time>2022-10-30T12:29:32.0000000+00:00</time></trkpt><trkpt lat="39.47283785" lon="-0.38046372"><ele>-46.2</ele><time>2022-10-30T12:29:33.0000000+00:00</time></trkpt><trkpt lat="39.47284112" lon="-0.38046531"><ele>-46.2</ele><time>2022-10-30T12:29:34.0000000+00:00</time></trkpt><trkpt lat="39.47283835" lon="-0.38046414"><ele>-46.2</ele><time>2022-10-30T12:29:35.0000000+00:00</time></trkpt><trkpt lat="39.47283726" lon="-0.38046364"><ele>-46.2</ele><time>2022-10-30T12:29:36.0000000+00:00</time></trkpt><trkpt lat="39.47283726" lon="-0.38046364"><ele>-46.4</ele><time>2022-10-30T12:29:37.0000000+00:00</time></trkpt><trkpt lat="39.47283726" lon="-0.38046364"><ele>-46.4</ele><time>2022-10-30T12:29:38.0000000+00:00</time></trkpt><trkpt lat="39.47283726" lon="-0.38046364"><ele>-46.4</ele><time>2022-10-30T12:29:39.0000000+00:00</time></trkpt><trkpt lat="39.47283726" lon="-0.38046364"><ele>-46.4</ele><time>2022-10-30T12:29:40.0000000+00:00</time></trkpt><trkpt lat="39.47283726" lon="-0.38046364"><ele>-46.2</ele><time>2022-10-30T12:29:41.0000000+00:00</time></trkpt><trkpt lat="39.47283726" lon="-0.38046364"><ele>-46.2</ele><time>2022-10-30T12:29:42.0000000+00:00</time></trkpt><trkpt lat="39.47283726" lon="-0.38046364"><ele>-46.2</ele><time>2022-10-30T12:29:43.0000000+00:00</time></trkpt><trkpt lat="39.47283726" lon="-0.38046364"><ele>-46.2</ele><time>2022-10-30T12:29:44.0000000+00:00</time></trkpt><trkpt lat="39.47283743" lon="-0.38046372"><ele>-46.2</ele><time>2022-10-30T12:29:45.0000000+00:00</time></trkpt><trkpt lat="39.47283785" lon="-0.38046372"><ele>-46.2</ele><time>2022-10-30T12:29:46.0000000+00:00</time></trkpt><trkpt lat="39.47283818" lon="-0.38046381"><ele>-46.2</ele><time>2022-10-30T12:29:47.0000000+00:00</time></trkpt><trkpt lat="39.47283835" lon="-0.38046414"><ele>-46.2</ele><time>2022-10-30T12:29:48.0000000+00:00</time></trkpt><trkpt lat="39.47283835" lon="-0.38046506"><ele>-46.2</ele><time>2022-10-30T12:29:49.0000000+00:00</time></trkpt><trkpt lat="39.47283869" lon="-0.38046531"><ele>-46.2</ele><time>2022-10-30T12:29:50.0000000+00:00</time></trkpt><trkpt lat="39.47283877" lon="-0.3804654"><ele>-46.2</ele><time>2022-10-30T12:29:51.0000000+00:00</time></trkpt><trkpt lat="39.47283877" lon="-0.38046582"><ele>-46.2</ele><time>2022-10-30T12:29:52.0000000+00:00</time></trkpt><trkpt lat="39.47283885" lon="-0.38046598"><ele>-46.2</ele><time>2022-10-30T12:29:53.0000000+00:00</time></trkpt><trkpt lat="39.47283885" lon="-0.38046624"><ele>-46.2</ele><time>2022-10-30T12:29:54.0000000+00:00</time></trkpt><trkpt lat="39.47283885" lon="-0.38046632"><ele>-46.2</ele><time>2022-10-30T12:29:55.0000000+00:00</time></trkpt><trkpt lat="39.47283885" lon="-0.38046632"><ele>-46.2</ele><time>2022-10-30T12:29:56.0000000+00:00</time></trkpt><trkpt lat="39.47283885" lon="-0.38046632"><ele>-46.2</ele><time>2022-10-30T12:29:57.0000000+00:00</time></trkpt><trkpt lat="39.47283877" lon="-0.38046632"><ele>-46.2</ele><time>2022-10-30T12:29:58.0000000+00:00</time></trkpt><trkpt lat="39.47283852" lon="-0.38046598"><ele>-46.2</ele><time>2022-10-30T12:29:59.0000000+00:00</time></trkpt><trkpt lat="39.47283835" lon="-0.38046598"><ele>-46.0</ele><time>2022-10-30T12:30:00.0000000+00:00</time></trkpt><trkpt lat="39.47283827" lon="-0.38046598"><ele>-46.0</ele><time>2022-10-30T12:30:01.0000000+00:00</time></trkpt><trkpt lat="39.47283827" lon="-0.38046598"><ele>-46.0</ele><time>2022-10-30T12:30:02.0000000+00:00</time></trkpt><trkpt lat="39.47283827" lon="-0.38046598"><ele>-45.8</ele><time>2022-10-30T12:30:03.0000000+00:00</time></trkpt><trkpt lat="39.47283818" lon="-0.38046598"><ele>-45.8</ele><time>2022-10-30T12:30:04.0000000+00:00</time></trkpt><trkpt lat="39.47283818" lon="-0.38046598"><ele>-45.8</ele><time>2022-10-30T12:30:05.0000000+00:00</time></trkpt><trkpt lat="39.47283818" lon="-0.38046598"><ele>-45.8</ele><time>2022-10-30T12:30:06.0000000+00:00</time></trkpt><trkpt lat="39.47283793" lon="-0.3804659"><ele>-45.8</ele><time>2022-10-30T12:30:07.0000000+00:00</time></trkpt><trkpt lat="39.47283777" lon="-0.38046573"><ele>-45.8</ele><time>2022-10-30T12:30:08.0000000+00:00</time></trkpt><trkpt lat="39.47283735" lon="-0.3804654"><ele>-45.8</ele><time>2022-10-30T12:30:09.0000000+00:00</time></trkpt><trkpt lat="39.47283726" lon="-0.38046523"><ele>-46.0</ele><time>2022-10-30T12:30:10.0000000+00:00</time></trkpt><trkpt lat="39.47283693" lon="-0.38046498"><ele>-46.0</ele><time>2022-10-30T12:30:11.0000000+00:00</time></trkpt><trkpt lat="39.47283642" lon="-0.38046406"><ele>-46.0</ele><time>2022-10-30T12:30:12.0000000+00:00</time></trkpt><trkpt lat="39.472835" lon="-0.38046347"><ele>-46.0</ele><time>2022-10-30T12:30:13.0000000+00:00</time></trkpt><trkpt lat="39.4728345" lon="-0.38046263"><ele>-46.0</ele><time>2022-10-30T12:30:14.0000000+00:00</time></trkpt><trkpt lat="39.47283181" lon="-0.38046246"><ele>-46.0</ele><time>2022-10-30T12:30:15.0000000+00:00</time></trkpt><trkpt lat="39.47283131" lon="-0.38046246"><ele>-46.0</ele><time>2022-10-30T12:30:16.0000000+00:00</time></trkpt><trkpt lat="39.47283056" lon="-0.3804623"><ele>-46.0</ele><time>2022-10-30T12:30:17.0000000+00:00</time></trkpt><trkpt lat="39.47282989" lon="-0.38046221"><ele>-46.0</ele><time>2022-10-30T12:30:18.0000000+00:00</time></trkpt><trkpt lat="39.47282863" lon="-0.38046221"><ele>-46.0</ele><time>2022-10-30T12:30:19.0000000+00:00</time></trkpt><trkpt lat="39.47282712" lon="-0.38046196"><ele>-46.0</ele><time>2022-10-30T12:30:20.0000000+00:00</time></trkpt><trkpt lat="39.47282561" lon="-0.38046188"><ele>-46.0</ele><time>2022-10-30T12:30:21.0000000+00:00</time></trkpt><trkpt lat="39.47282528" lon="-0.38046188"><ele>-46.0</ele><time>2022-10-30T12:30:22.0000000+00:00</time></trkpt><trkpt lat="39.47282519" lon="-0.38046188"><ele>-46.0</ele><time>2022-10-30T12:30:23.0000000+00:00</time></trkpt><trkpt lat="39.47282486" lon="-0.38046188"><ele>-46.0</ele><time>2022-10-30T12:30:24.0000000+00:00</time></trkpt><trkpt lat="39.47282452" lon="-0.38046188"><ele>-46.0</ele><time>2022-10-30T12:30:25.0000000+00:00</time></trkpt><trkpt lat="39.47282435" lon="-0.38046188"><ele>-46.0</ele><time>2022-10-30T12:30:26.0000000+00:00</time></trkpt><trkpt lat="39.47282427" lon="-0.38046188"><ele>-46.0</ele><time>2022-10-30T12:30:27.0000000+00:00</time></trkpt><trkpt lat="39.4728241" lon="-0.38046188"><ele>-46.0</ele><time>2022-10-30T12:30:28.0000000+00:00</time></trkpt><trkpt lat="39.47282394" lon="-0.38046179"><ele>-46.0</ele><time>2022-10-30T12:30:29.0000000+00:00</time></trkpt><trkpt lat="39.47282352" lon="-0.38046154"><ele>-46.0</ele><time>2022-10-30T12:30:30.0000000+00:00</time></trkpt><trkpt lat="39.47282335" lon="-0.38046154"><ele>-46.0</ele><time>2022-10-30T12:30:31.0000000+00:00</time></trkpt><trkpt lat="39.4728231" lon="-0.38046154"><ele>-46.0</ele><time>2022-10-30T12:30:32.0000000+00:00</time></trkpt><trkpt lat="39.47282285" lon="-0.38046154"><ele>-46.0</ele><time>2022-10-30T12:30:33.0000000+00:00</time></trkpt><trkpt lat="39.47282234" lon="-0.38046163"><ele>-46.0</ele><time>2022-10-30T12:30:34.0000000+00:00</time></trkpt><trkpt lat="39.47282192" lon="-0.38046171"><ele>-46.0</ele><time>2022-10-30T12:30:35.0000000+00:00</time></trkpt><trkpt lat="39.47282167" lon="-0.38046179"><ele>-46.0</ele><time>2022-10-30T12:30:36.0000000+00:00</time></trkpt><trkpt lat="39.47282142" lon="-0.38046196"><ele>-46.0</ele><time>2022-10-30T12:30:37.0000000+00:00</time></trkpt><trkpt lat="39.47282109" lon="-0.38046213"><ele>-46.0</ele><time>2022-10-30T12:30:38.0000000+00:00</time></trkpt><trkpt lat="39.47282092" lon="-0.38046221"><ele>-46.0</ele><time>2022-10-30T12:30:39.0000000+00:00</time></trkpt><trkpt lat="39.47282083" lon="-0.38046221"><ele>-46.0</ele><time>2022-10-30T12:30:40.0000000+00:00</time></trkpt><trkpt lat="39.47282075" lon="-0.38046221"><ele>-46.0</ele><time>2022-10-30T12:30:41.0000000+00:00</time></trkpt><trkpt lat="39.4728205" lon="-0.3804623"><ele>-46.0</ele><time>2022-10-30T12:30:42.0000000+00:00</time></trkpt><trkpt lat="39.47282016" lon="-0.38046255"><ele>-46.0</ele><time>2022-10-30T12:30:43.0000000+00:00</time></trkpt><trkpt lat="39.47281966" lon="-0.38046272"><ele>-46.0</ele><time>2022-10-30T12:30:44.0000000+00:00</time></trkpt><trkpt lat="39.47281941" lon="-0.3804628"><ele>-46.0</ele><time>2022-10-30T12:30:45.0000000+00:00</time></trkpt><trkpt lat="39.47281924" lon="-0.38046297"><ele>-46.0</ele><time>2022-10-30T12:30:46.0000000+00:00</time></trkpt><trkpt lat="39.47281849" lon="-0.38046305"><ele>-46.0</ele><time>2022-10-30T12:30:47.0000000+00:00</time></trkpt><trkpt lat="39.47281748" lon="-0.38046305"><ele>-46.0</ele><time>2022-10-30T12:30:48.0000000+00:00</time></trkpt><trkpt lat="39.47281681" lon="-0.3804633"><ele>-46.0</ele><time>2022-10-30T12:30:49.0000000+00:00</time></trkpt><trkpt lat="39.47281656" lon="-0.38046397"><ele>-46.0</ele><time>2022-10-30T12:30:50.0000000+00:00</time></trkpt><trkpt lat="39.47281589" lon="-0.38046515"><ele>-46.0</ele><time>2022-10-30T12:30:51.0000000+00:00</time></trkpt><trkpt lat="39.47281547" lon="-0.38046632"><ele>-46.0</ele><time>2022-10-30T12:30:52.0000000+00:00</time></trkpt><trkpt lat="39.47281488" lon="-0.38046724"><ele>-46.0</ele><time>2022-10-30T12:30:53.0000000+00:00</time></trkpt><trkpt lat="39.4728143" lon="-0.38046766"><ele>-46.0</ele><time>2022-10-30T12:30:54.0000000+00:00</time></trkpt><trkpt lat="39.47281371" lon="-0.380468"><ele>-46.0</ele><time>2022-10-30T12:30:55.0000000+00:00</time></trkpt><trkpt lat="39.47281262" lon="-0.38046892"><ele>-46.0</ele><time>2022-10-30T12:30:56.0000000+00:00</time></trkpt><trkpt lat="39.47281203" lon="-0.38046934"><ele>-46.0</ele><time>2022-10-30T12:30:57.0000000+00:00</time></trkpt><trkpt lat="39.4728117" lon="-0.38047001"><ele>-46.0</ele><time>2022-10-30T12:30:58.0000000+00:00</time></trkpt><trkpt lat="39.47281153" lon="-0.38047068"><ele>-46.0</ele><time>2022-10-30T12:30:59.0000000+00:00</time></trkpt><trkpt lat="39.47281145" lon="-0.38047093"><ele>-46.0</ele><time>2022-10-30T12:31:00.0000000+00:00</time></trkpt><trkpt lat="39.47281136" lon="-0.38047101"><ele>-46.0</ele><time>2022-10-30T12:31:01.0000000+00:00</time></trkpt><trkpt lat="39.47281195" lon="-0.38046917"><ele>-46.0</ele><time>2022-10-30T12:31:02.0000000+00:00</time></trkpt><trkpt lat="39.47281354" lon="-0.38045995"><ele>-46.0</ele><time>2022-10-30T12:31:03.0000000+00:00</time></trkpt><trkpt lat="39.47280751" lon="-0.38044646"><ele>-46.0</ele><time>2022-10-30T12:31:04.0000000+00:00</time></trkpt><trkpt lat="39.47279502" lon="-0.3804348"><ele>-46.0</ele><time>2022-10-30T12:31:05.0000000+00:00</time></trkpt><trkpt lat="39.47278471" lon="-0.38042248"><ele>-46.0</ele><time>2022-10-30T12:31:06.0000000+00:00</time></trkpt><trkpt lat="39.47276811" lon="-0.38040052"><ele>-46.0</ele><time>2022-10-30T12:31:07.0000000+00:00</time></trkpt><trkpt lat="39.47275336" lon="-0.38038091"><ele>-46.0</ele><time>2022-10-30T12:31:08.0000000+00:00</time></trkpt><trkpt lat="39.47274389" lon="-0.38036624"><ele>-46.0</ele><time>2022-10-30T12:31:09.0000000+00:00</time></trkpt><trkpt lat="39.47273676" lon="-0.3803499"><ele>-46.0</ele><time>2022-10-30T12:31:10.0000000+00:00</time></trkpt><trkpt lat="39.47273232" lon="-0.38034252"><ele>-46.0</ele><time>2022-10-30T12:31:11.0000000+00:00</time></trkpt><trkpt lat="39.47272888" lon="-0.38033137"><ele>-46.0</ele><time>2022-10-30T12:31:12.0000000+00:00</time></trkpt><trkpt lat="39.47273274" lon="-0.38031737"><ele>-46.0</ele><time>2022-10-30T12:31:13.0000000+00:00</time></trkpt><trkpt lat="39.4727397" lon="-0.38030832"><ele>-46.0</ele><time>2022-10-30T12:31:14.0000000+00:00</time></trkpt><trkpt lat="39.47273886" lon="-0.38029851"><ele>-45.8</ele><time>2022-10-30T12:31:15.0000000+00:00</time></trkpt><trkpt lat="39.4727381" lon="-0.38028435"><ele>-45.8</ele><time>2022-10-30T12:31:16.0000000+00:00</time></trkpt><trkpt lat="39.47273567" lon="-0.3802763"><ele>-45.8</ele><time>2022-10-30T12:31:17.0000000+00:00</time></trkpt><trkpt lat="39.47273056" lon="-0.3802623"><ele>-45.8</ele><time>2022-10-30T12:31:18.0000000+00:00</time></trkpt><trkpt lat="39.47272411" lon="-0.38025132"><ele>-45.8</ele><time>2022-10-30T12:31:19.0000000+00:00</time></trkpt><trkpt lat="39.47272293" lon="-0.38024227"><ele>-45.8</ele><time>2022-10-30T12:31:20.0000000+00:00</time></trkpt><trkpt lat="39.47272595" lon="-0.38023481"><ele>-45.8</ele><time>2022-10-30T12:31:21.0000000+00:00</time></trkpt><trkpt lat="39.47272117" lon="-0.38021562"><ele>-45.6</ele><time>2022-10-30T12:31:22.0000000+00:00</time></trkpt><trkpt lat="39.47271748" lon="-0.38019248"><ele>-45.6</ele><time>2022-10-30T12:31:23.0000000+00:00</time></trkpt><trkpt lat="39.47271229" lon="-0.38016658"><ele>-45.6</ele><time>2022-10-30T12:31:24.0000000+00:00</time></trkpt><trkpt lat="39.47271841" lon="-0.38015166"><ele>-45.6</ele><time>2022-10-30T12:31:25.0000000+00:00</time></trkpt><trkpt lat="39.47271832" lon="-0.38013565"><ele>-45.6</ele><time>2022-10-30T12:31:26.0000000+00:00</time></trkpt><trkpt lat="39.47271933" lon="-0.38012132"><ele>-45.6</ele><time>2022-10-30T12:31:27.0000000+00:00</time></trkpt><trkpt lat="39.47272595" lon="-0.38010481"><ele>-45.6</ele><time>2022-10-30T12:31:28.0000000+00:00</time></trkpt><trkpt lat="39.47273341" lon="-0.38009006"><ele>-45.6</ele><time>2022-10-30T12:31:29.0000000+00:00</time></trkpt><trkpt lat="39.47273903" lon="-0.38007329"><ele>-45.6</ele><time>2022-10-30T12:31:30.0000000+00:00</time></trkpt><trkpt lat="39.4727397" lon="-0.38005393"><ele>-45.8</ele><time>2022-10-30T12:31:31.0000000+00:00</time></trkpt><trkpt lat="39.47274204" lon="-0.38003926"><ele>-45.8</ele><time>2022-10-30T12:31:32.0000000+00:00</time></trkpt><trkpt lat="39.47274464" lon="-0.38002451"><ele>-45.8</ele><time>2022-10-30T12:31:33.0000000+00:00</time></trkpt><trkpt lat="39.47275386" lon="-0.38000766"><ele>-46.0</ele><time>2022-10-30T12:31:34.0000000+00:00</time></trkpt><trkpt lat="39.47275839" lon="-0.37999006"><ele>-46.0</ele><time>2022-10-30T12:31:35.0000000+00:00</time></trkpt><trkpt lat="39.47276459" lon="-0.37997346"><ele>-46.0</ele><time>2022-10-30T12:31:36.0000000+00:00</time></trkpt><trkpt lat="39.47277113" lon="-0.37995871"><ele>-46.0</ele><time>2022-10-30T12:31:37.0000000+00:00</time></trkpt><trkpt lat="39.47277188" lon="-0.37994279"><ele>-46.0</ele><time>2022-10-30T12:31:38.0000000+00:00</time></trkpt><trkpt lat="39.47277431" lon="-0.37992694"><ele>-46.0</ele><time>2022-10-30T12:31:39.0000000+00:00</time></trkpt><trkpt lat="39.47277423" lon="-0.37990809"><ele>-46.0</ele><time>2022-10-30T12:31:40.0000000+00:00</time></trkpt><trkpt lat="39.47277851" lon="-0.37989618"><ele>-46.2</ele><time>2022-10-30T12:31:41.0000000+00:00</time></trkpt><trkpt lat="39.47278395" lon="-0.37988227"><ele>-46.2</ele><time>2022-10-30T12:31:42.0000000+00:00</time></trkpt><trkpt lat="39.47279669" lon="-0.37987523"><ele>-46.0</ele><time>2022-10-30T12:31:43.0000000+00:00</time></trkpt><trkpt lat="39.4728065" lon="-0.37986257"><ele>-46.0</ele><time>2022-10-30T12:31:44.0000000+00:00</time></trkpt><trkpt lat="39.47280541" lon="-0.37984866"><ele>-46.0</ele><time>2022-10-30T12:31:45.0000000+00:00</time></trkpt><trkpt lat="39.47280684" lon="-0.37984505"><ele>-46.0</ele><time>2022-10-30T12:31:46.0000000+00:00</time></trkpt><trkpt lat="39.47280801" lon="-0.37984354"><ele>-46.0</ele><time>2022-10-30T12:31:47.0000000+00:00</time></trkpt><trkpt lat="39.47281069" lon="-0.37984338"><ele>-46.0</ele><time>2022-10-30T12:31:48.0000000+00:00</time></trkpt><trkpt lat="39.47281379" lon="-0.37984279"><ele>-46.0</ele><time>2022-10-30T12:31:49.0000000+00:00</time></trkpt><trkpt lat="39.47280499" lon="-0.37983072"><ele>-46.0</ele><time>2022-10-30T12:31:50.0000000+00:00</time></trkpt><trkpt lat="39.47280399" lon="-0.37983047"><ele>-46.0</ele><time>2022-10-30T12:31:51.0000000+00:00</time></trkpt><trkpt lat="39.47279368" lon="-0.37981362"><ele>-46.0</ele><time>2022-10-30T12:31:52.0000000+00:00</time></trkpt><trkpt lat="39.47278722" lon="-0.37980918"><ele>-46.0</ele><time>2022-10-30T12:31:53.0000000+00:00</time></trkpt><trkpt lat="39.47278102" lon="-0.3798049"><ele>-46.0</ele><time>2022-10-30T12:31:54.0000000+00:00</time></trkpt><trkpt lat="39.47277415" lon="-0.37980507"><ele>-46.0</ele><time>2022-10-30T12:31:55.0000000+00:00</time></trkpt><trkpt lat="39.47275998" lon="-0.37979996"><ele>-46.0</ele><time>2022-10-30T12:31:56.0000000+00:00</time></trkpt><trkpt lat="39.47274783" lon="-0.37978957"><ele>-46.0</ele><time>2022-10-30T12:31:57.0000000+00:00</time></trkpt><trkpt lat="39.47273986" lon="-0.37978428"><ele>-46.0</ele><time>2022-10-30T12:31:58.0000000+00:00</time></trkpt><trkpt lat="39.47274515" lon="-0.37977758"><ele>-46.0</ele><time>2022-10-30T12:31:59.0000000+00:00</time></trkpt><trkpt lat="39.47274456" lon="-0.37977339"><ele>-46.0</ele><time>2022-10-30T12:32:00.0000000+00:00</time></trkpt><trkpt lat="39.47274179" lon="-0.37977724"><ele>-46.2</ele><time>2022-10-30T12:32:01.0000000+00:00</time></trkpt><trkpt lat="39.4727428" lon="-0.37978009"><ele>-46.2</ele><time>2022-10-30T12:32:02.0000000+00:00</time></trkpt><trkpt lat="39.47274657" lon="-0.37978889"><ele>-46.0</ele><time>2022-10-30T12:32:03.0000000+00:00</time></trkpt><trkpt lat="39.47274649" lon="-0.37978822"><ele>-46.0</ele><time>2022-10-30T12:32:04.0000000+00:00</time></trkpt><trkpt lat="39.47275755" lon="-0.37980239"><ele>-46.0</ele><time>2022-10-30T12:32:05.0000000+00:00</time></trkpt><trkpt lat="39.47277322" lon="-0.37979392"><ele>-46.0</ele><time>2022-10-30T12:32:06.0000000+00:00</time></trkpt><trkpt lat="39.47279653" lon="-0.37978244"><ele>-45.8</ele><time>2022-10-30T12:32:07.0000000+00:00</time></trkpt><trkpt lat="39.47281145" lon="-0.37976492"><ele>-45.8</ele><time>2022-10-30T12:32:08.0000000+00:00</time></trkpt><trkpt lat="39.4728345" lon="-0.37973559"><ele>-45.8</ele><time>2022-10-30T12:32:09.0000000+00:00</time></trkpt><trkpt lat="39.47285512" lon="-0.37970508"><ele>-45.8</ele><time>2022-10-30T12:32:10.0000000+00:00</time></trkpt><trkpt lat="39.4728723" lon="-0.37967582"><ele>-45.8</ele><time>2022-10-30T12:32:11.0000000+00:00</time></trkpt><trkpt lat="39.47288009" lon="-0.37965654"><ele>-45.8</ele><time>2022-10-30T12:32:12.0000000+00:00</time></trkpt><trkpt lat="39.47289091" lon="-0.37964028"><ele>-45.8</ele><time>2022-10-30T12:32:13.0000000+00:00</time></trkpt><trkpt lat="39.47289912" lon="-0.37963408"><ele>-46.0</ele><time>2022-10-30T12:32:14.0000000+00:00</time></trkpt><trkpt lat="39.47291681" lon="-0.37962427"><ele>-46.0</ele><time>2022-10-30T12:32:15.0000000+00:00</time></trkpt><trkpt lat="39.47293533" lon="-0.37961237"><ele>-46.0</ele><time>2022-10-30T12:32:16.0000000+00:00</time></trkpt><trkpt lat="39.47295964" lon="-0.37959653"><ele>-46.0</ele><time>2022-10-30T12:32:17.0000000+00:00</time></trkpt><trkpt lat="39.4729754" lon="-0.37958815"><ele>-46.0</ele><time>2022-10-30T12:32:18.0000000+00:00</time></trkpt><trkpt lat="39.47297632" lon="-0.37958957"><ele>-46.0</ele><time>2022-10-30T12:32:19.0000000+00:00</time></trkpt><trkpt lat="39.47296643" lon="-0.37959552"><ele>-46.0</ele><time>2022-10-30T12:32:20.0000000+00:00</time></trkpt><trkpt lat="39.47296173" lon="-0.3796112"><ele>-46.2</ele><time>2022-10-30T12:32:21.0000000+00:00</time></trkpt><trkpt lat="39.47296634" lon="-0.37962008"><ele>-46.2</ele><time>2022-10-30T12:32:22.0000000+00:00</time></trkpt><trkpt lat="39.47297288" lon="-0.37962209"><ele>-46.2</ele><time>2022-10-30T12:32:23.0000000+00:00</time></trkpt><trkpt lat="39.47299032" lon="-0.37961111"><ele>-46.2</ele><time>2022-10-30T12:32:24.0000000+00:00</time></trkpt><trkpt lat="39.47300373" lon="-0.37959192"><ele>-46.2</ele><time>2022-10-30T12:32:25.0000000+00:00</time></trkpt><trkpt lat="39.47301412" lon="-0.37956242"><ele>-46.2</ele><time>2022-10-30T12:32:26.0000000+00:00</time></trkpt><trkpt lat="39.47303248" lon="-0.37952243"><ele>-46.2</ele><time>2022-10-30T12:32:27.0000000+00:00</time></trkpt><trkpt lat="39.4730567" lon="-0.37948086"><ele>-46.4</ele><time>2022-10-30T12:32:28.0000000+00:00</time></trkpt><trkpt lat="39.47304589" lon="-0.37944473"><ele>-46.4</ele><time>2022-10-30T12:32:29.0000000+00:00</time></trkpt><trkpt lat="39.47304379" lon="-0.37941833"><ele>-46.4</ele><time>2022-10-30T12:32:30.0000000+00:00</time></trkpt><trkpt lat="39.47302401" lon="-0.37939436"><ele>-46.4</ele><time>2022-10-30T12:32:31.0000000+00:00</time></trkpt><trkpt lat="39.47302468" lon="-0.379375"><ele>-46.4</ele><time>2022-10-30T12:32:32.0000000+00:00</time></trkpt><trkpt lat="39.47302778" lon="-0.37935345"><ele>-46.4</ele><time>2022-10-30T12:32:33.0000000+00:00</time></trkpt><trkpt lat="39.47302393" lon="-0.37933728"><ele>-46.4</ele><time>2022-10-30T12:32:34.0000000+00:00</time></trkpt><trkpt lat="39.47301806" lon="-0.37931657"><ele>-46.6</ele><time>2022-10-30T12:32:35.0000000+00:00</time></trkpt><trkpt lat="39.47301974" lon="-0.37929797"><ele>-46.4</ele><time>2022-10-30T12:32:36.0000000+00:00</time></trkpt><trkpt lat="39.47302158" lon="-0.37928045"><ele>-46.4</ele><time>2022-10-30T12:32:37.0000000+00:00</time></trkpt><trkpt lat="39.47302066" lon="-0.37926385"><ele>-46.4</ele><time>2022-10-30T12:32:38.0000000+00:00</time></trkpt><trkpt lat="39.47301814" lon="-0.37924533"><ele>-46.4</ele><time>2022-10-30T12:32:39.0000000+00:00</time></trkpt><trkpt lat="39.47301261" lon="-0.37922421"><ele>-46.6</ele><time>2022-10-30T12:32:40.0000000+00:00</time></trkpt><trkpt lat="39.47300708" lon="-0.37920417"><ele>-46.6</ele><time>2022-10-30T12:32:41.0000000+00:00</time></trkpt><trkpt lat="39.473007" lon="-0.37919303"><ele>-46.4</ele><time>2022-10-30T12:32:42.0000000+00:00</time></trkpt><trkpt lat="39.47300716" lon="-0.37918171"><ele>-46.6</ele><time>2022-10-30T12:32:43.0000000+00:00</time></trkpt><trkpt lat="39.47301127" lon="-0.3791683"><ele>-46.4</ele><time>2022-10-30T12:32:44.0000000+00:00</time></trkpt><trkpt lat="39.47301781" lon="-0.37914827"><ele>-46.4</ele><time>2022-10-30T12:32:45.0000000+00:00</time></trkpt><trkpt lat="39.47300054" lon="-0.37911457"><ele>-46.6</ele><time>2022-10-30T12:32:46.0000000+00:00</time></trkpt><trkpt lat="39.4730044" lon="-0.3790911"><ele>-46.6</ele><time>2022-10-30T12:32:47.0000000+00:00</time></trkpt><trkpt lat="39.47300205" lon="-0.37905808"><ele>-46.6</ele><time>2022-10-30T12:32:48.0000000+00:00</time></trkpt><trkpt lat="39.47298948" lon="-0.3790274"><ele>-46.6</ele><time>2022-10-30T12:32:49.0000000+00:00</time></trkpt><trkpt lat="39.47298084" lon="-0.37901902"><ele>-46.4</ele><time>2022-10-30T12:32:50.0000000+00:00</time></trkpt><trkpt lat="39.47296215" lon="-0.37901684"><ele>-46.6</ele><time>2022-10-30T12:32:51.0000000+00:00</time></trkpt><trkpt lat="39.47294765" lon="-0.37901751"><ele>-46.6</ele><time>2022-10-30T12:32:52.0000000+00:00</time></trkpt><trkpt lat="39.47293215" lon="-0.37902279"><ele>-46.6</ele><time>2022-10-30T12:32:53.0000000+00:00</time></trkpt><trkpt lat="39.47292871" lon="-0.37902656"><ele>-46.6</ele><time>2022-10-30T12:32:54.0000000+00:00</time></trkpt><trkpt lat="39.47291999" lon="-0.37901147"><ele>-46.6</ele><time>2022-10-30T12:32:55.0000000+00:00</time></trkpt><trkpt lat="39.4729189" lon="-0.37899161"><ele>-46.6</ele><time>2022-10-30T12:32:56.0000000+00:00</time></trkpt><trkpt lat="39.47291236" lon="-0.37895867"><ele>-46.6</ele><time>2022-10-30T12:32:57.0000000+00:00</time></trkpt><trkpt lat="39.4729163" lon="-0.37892975"><ele>-46.6</ele><time>2022-10-30T12:32:58.0000000+00:00</time></trkpt><trkpt lat="39.47291957" lon="-0.37891617"><ele>-46.6</ele><time>2022-10-30T12:32:59.0000000+00:00</time></trkpt><trkpt lat="39.47292678" lon="-0.37889949"><ele>-46.6</ele><time>2022-10-30T12:33:00.0000000+00:00</time></trkpt><trkpt lat="39.47293852" lon="-0.37888365"><ele>-46.6</ele><time>2022-10-30T12:33:01.0000000+00:00</time></trkpt><trkpt lat="39.47294556" lon="-0.37886831"><ele>-46.6</ele><time>2022-10-30T12:33:02.0000000+00:00</time></trkpt><trkpt lat="39.47295427" lon="-0.37885297"><ele>-46.6</ele><time>2022-10-30T12:33:03.0000000+00:00</time></trkpt><trkpt lat="39.47296165" lon="-0.37883738"><ele>-46.6</ele><time>2022-10-30T12:33:04.0000000+00:00</time></trkpt><trkpt lat="39.47296349" lon="-0.37882204"><ele>-46.6</ele><time>2022-10-30T12:33:05.0000000+00:00</time></trkpt><trkpt lat="39.47296869" lon="-0.37879857"><ele>-46.6</ele><time>2022-10-30T12:33:06.0000000+00:00</time></trkpt><trkpt lat="39.47296852" lon="-0.37877955"><ele>-46.6</ele><time>2022-10-30T12:33:07.0000000+00:00</time></trkpt><trkpt lat="39.47297665" lon="-0.37876228"><ele>-46.6</ele><time>2022-10-30T12:33:08.0000000+00:00</time></trkpt><trkpt lat="39.47297556" lon="-0.37874744"><ele>-46.6</ele><time>2022-10-30T12:33:09.0000000+00:00</time></trkpt><trkpt lat="39.47297783" lon="-0.37874476"><ele>-46.6</ele><time>2022-10-30T12:33:10.0000000+00:00</time></trkpt><trkpt lat="39.47298805" lon="-0.37872599"><ele>-46.6</ele><time>2022-10-30T12:33:11.0000000+00:00</time></trkpt><trkpt lat="39.47300155" lon="-0.37871425"><ele>-46.4</ele><time>2022-10-30T12:33:12.0000000+00:00</time></trkpt><trkpt lat="39.47302342" lon="-0.37870972"><ele>-46.4</ele><time>2022-10-30T12:33:13.0000000+00:00</time></trkpt><trkpt lat="39.47303616" lon="-0.37869983"><ele>-46.4</ele><time>2022-10-30T12:33:14.0000000+00:00</time></trkpt><trkpt lat="39.47304849" lon="-0.37869263"><ele>-46.4</ele><time>2022-10-30T12:33:15.0000000+00:00</time></trkpt><trkpt lat="39.47305637" lon="-0.37869849"><ele>-46.4</ele><time>2022-10-30T12:33:16.0000000+00:00</time></trkpt><trkpt lat="39.47305821" lon="-0.37870972"><ele>-46.4</ele><time>2022-10-30T12:33:17.0000000+00:00</time></trkpt><trkpt lat="39.47303985" lon="-0.37872305"><ele>-46.4</ele><time>2022-10-30T12:33:18.0000000+00:00</time></trkpt><trkpt lat="39.47303608" lon="-0.37872456"><ele>-46.4</ele><time>2022-10-30T12:33:19.0000000+00:00</time></trkpt><trkpt lat="39.47303365" lon="-0.37872498"><ele>-46.4</ele><time>2022-10-30T12:33:20.0000000+00:00</time></trkpt><trkpt lat="39.4730303" lon="-0.37872691"><ele>-46.4</ele><time>2022-10-30T12:33:21.0000000+00:00</time></trkpt><trkpt lat="39.47303021" lon="-0.37872741"><ele>-46.4</ele><time>2022-10-30T12:33:22.0000000+00:00</time></trkpt><trkpt lat="39.47303172" lon="-0.37872632"><ele>-46.4</ele><time>2022-10-30T12:33:23.0000000+00:00</time></trkpt><trkpt lat="39.47303281" lon="-0.37872389"><ele>-46.4</ele><time>2022-10-30T12:33:24.0000000+00:00</time></trkpt><trkpt lat="39.47302787" lon="-0.37872557"><ele>-46.4</ele><time>2022-10-30T12:33:25.0000000+00:00</time></trkpt><trkpt lat="39.4730313" lon="-0.37873068"><ele>-46.4</ele><time>2022-10-30T12:33:26.0000000+00:00</time></trkpt><trkpt lat="39.47303876" lon="-0.3787342"><ele>-46.4</ele><time>2022-10-30T12:33:27.0000000+00:00</time></trkpt><trkpt lat="39.47304907" lon="-0.37873428"><ele>-46.4</ele><time>2022-10-30T12:33:28.0000000+00:00</time></trkpt><trkpt lat="39.47306324" lon="-0.37873764"><ele>-46.4</ele><time>2022-10-30T12:33:29.0000000+00:00</time></trkpt><trkpt lat="39.47307665" lon="-0.37874074"><ele>-46.4</ele><time>2022-10-30T12:33:30.0000000+00:00</time></trkpt><trkpt lat="39.47307715" lon="-0.37872858"><ele>-46.4</ele><time>2022-10-30T12:33:31.0000000+00:00</time></trkpt><trkpt lat="39.47308922" lon="-0.37872062"><ele>-46.4</ele><time>2022-10-30T12:33:32.0000000+00:00</time></trkpt><trkpt lat="39.47310263" lon="-0.37871517"><ele>-46.4</ele><time>2022-10-30T12:33:33.0000000+00:00</time></trkpt><trkpt lat="39.47311747" lon="-0.37870511"><ele>-46.4</ele><time>2022-10-30T12:33:34.0000000+00:00</time></trkpt><trkpt lat="39.47313943" lon="-0.3786886"><ele>-46.4</ele><time>2022-10-30T12:33:35.0000000+00:00</time></trkpt><trkpt lat="39.47315611" lon="-0.37866932"><ele>-46.4</ele><time>2022-10-30T12:33:36.0000000+00:00</time></trkpt><trkpt lat="39.47317748" lon="-0.37864518"><ele>-46.4</ele><time>2022-10-30T12:33:37.0000000+00:00</time></trkpt><trkpt lat="39.47318276" lon="-0.37861761"><ele>-46.4</ele><time>2022-10-30T12:33:38.0000000+00:00</time></trkpt><trkpt lat="39.47318922" lon="-0.37860135"><ele>-46.4</ele><time>2022-10-30T12:33:39.0000000+00:00</time></trkpt><trkpt lat="39.47319634" lon="-0.37859439"><ele>-46.4</ele><time>2022-10-30T12:33:40.0000000+00:00</time></trkpt><trkpt lat="39.47320674" lon="-0.37858651"><ele>-46.6</ele><time>2022-10-30T12:33:41.0000000+00:00</time></trkpt><trkpt lat="39.47321856" lon="-0.37858039"><ele>-46.6</ele><time>2022-10-30T12:33:42.0000000+00:00</time></trkpt><trkpt lat="39.47322752" lon="-0.37856815"><ele>-46.6</ele><time>2022-10-30T12:33:43.0000000+00:00</time></trkpt><trkpt lat="39.47323012" lon="-0.37855441"><ele>-46.6</ele><time>2022-10-30T12:33:44.0000000+00:00</time></trkpt><trkpt lat="39.47323197" lon="-0.37855022"><ele>-46.6</ele><time>2022-10-30T12:33:45.0000000+00:00</time></trkpt><trkpt lat="39.47323322" lon="-0.37854862"><ele>-46.6</ele><time>2022-10-30T12:33:46.0000000+00:00</time></trkpt><trkpt lat="39.47323565" lon="-0.37853974"><ele>-46.6</ele><time>2022-10-30T12:33:47.0000000+00:00</time></trkpt><trkpt lat="39.47324152" lon="-0.37853446"><ele>-46.6</ele><time>2022-10-30T12:33:48.0000000+00:00</time></trkpt><trkpt lat="39.4732515" lon="-0.37852692"><ele>-46.6</ele><time>2022-10-30T12:33:49.0000000+00:00</time></trkpt><trkpt lat="39.4732634" lon="-0.3785213"><ele>-46.6</ele><time>2022-10-30T12:33:50.0000000+00:00</time></trkpt><trkpt lat="39.473266" lon="-0.37850462"><ele>-46.4</ele><time>2022-10-30T12:33:51.0000000+00:00</time></trkpt><trkpt lat="39.47326348" lon="-0.37848635"><ele>-46.4</ele><time>2022-10-30T12:33:52.0000000+00:00</time></trkpt><trkpt lat="39.47326114" lon="-0.37847009"><ele>-46.4</ele><time>2022-10-30T12:33:53.0000000+00:00</time></trkpt><trkpt lat="39.47327094" lon="-0.37846196"><ele>-46.4</ele><time>2022-10-30T12:33:54.0000000+00:00</time></trkpt><trkpt lat="39.47328184" lon="-0.37845098"><ele>-46.6</ele><time>2022-10-30T12:33:55.0000000+00:00</time></trkpt><trkpt lat="39.47329156" lon="-0.37844217"><ele>-46.6</ele><time>2022-10-30T12:33:56.0000000+00:00</time></trkpt><trkpt lat="39.47329525" lon="-0.37842575"><ele>-46.6</ele><time>2022-10-30T12:33:57.0000000+00:00</time></trkpt><trkpt lat="39.47329927" lon="-0.37841275"><ele>-46.6</ele><time>2022-10-30T12:33:58.0000000+00:00</time></trkpt><trkpt lat="39.47329818" lon="-0.3783949"><ele>-46.6</ele><time>2022-10-30T12:33:59.0000000+00:00</time></trkpt><trkpt lat="39.47329173" lon="-0.37838484"><ele>-46.6</ele><time>2022-10-30T12:34:00.0000000+00:00</time></trkpt><trkpt lat="39.47328184" lon="-0.3783768"><ele>-46.6</ele><time>2022-10-30T12:34:01.0000000+00:00</time></trkpt><trkpt lat="39.47327865" lon="-0.37837084"><ele>-46.8</ele><time>2022-10-30T12:34:02.0000000+00:00</time></trkpt><trkpt lat="39.47328536" lon="-0.37836758"><ele>-46.8</ele><time>2022-10-30T12:34:03.0000000+00:00</time></trkpt><trkpt lat="39.4732893" lon="-0.37836229"><ele>-46.8</ele><time>2022-10-30T12:34:04.0000000+00:00</time></trkpt><trkpt lat="39.47329366" lon="-0.37834578"><ele>-46.8</ele><time>2022-10-30T12:34:05.0000000+00:00</time></trkpt><trkpt lat="39.47329324" lon="-0.37833304"><ele>-46.8</ele><time>2022-10-30T12:34:06.0000000+00:00</time></trkpt><trkpt lat="39.47330816" lon="-0.37832147"><ele>-46.8</ele><time>2022-10-30T12:34:07.0000000+00:00</time></trkpt><trkpt lat="39.47332811" lon="-0.37831192"><ele>-46.8</ele><time>2022-10-30T12:34:08.0000000+00:00</time></trkpt><trkpt lat="39.47333406" lon="-0.37829532"><ele>-46.8</ele><time>2022-10-30T12:34:09.0000000+00:00</time></trkpt><trkpt lat="39.47333624" lon="-0.37828116"><ele>-46.8</ele><time>2022-10-30T12:34:10.0000000+00:00</time></trkpt><trkpt lat="39.47334018" lon="-0.37826682"><ele>-46.8</ele><time>2022-10-30T12:34:11.0000000+00:00</time></trkpt><trkpt lat="39.47334613" lon="-0.3782504"><ele>-46.8</ele><time>2022-10-30T12:34:12.0000000+00:00</time></trkpt><trkpt lat="39.47334604" lon="-0.37823782"><ele>-47.0</ele><time>2022-10-30T12:34:13.0000000+00:00</time></trkpt><trkpt lat="39.47334738" lon="-0.37822777"><ele>-47.0</ele><time>2022-10-30T12:34:14.0000000+00:00</time></trkpt><trkpt lat="39.47334982" lon="-0.37821402"><ele>-47.0</ele><time>2022-10-30T12:34:15.0000000+00:00</time></trkpt><trkpt lat="39.47335283" lon="-0.37819952"><ele>-47.0</ele><time>2022-10-30T12:34:16.0000000+00:00</time></trkpt><trkpt lat="39.47335585" lon="-0.37818829"><ele>-47.0</ele><time>2022-10-30T12:34:17.0000000+00:00</time></trkpt><trkpt lat="39.47335149" lon="-0.37817563"><ele>-47.0</ele><time>2022-10-30T12:34:18.0000000+00:00</time></trkpt><trkpt lat="39.47334982" lon="-0.37816817"><ele>-47.0</ele><time>2022-10-30T12:34:19.0000000+00:00</time></trkpt><trkpt lat="39.47335568" lon="-0.37816188"><ele>-47.0</ele><time>2022-10-30T12:34:20.0000000+00:00</time></trkpt><trkpt lat="39.47335795" lon="-0.378153"><ele>-47.2</ele><time>2022-10-30T12:34:21.0000000+00:00</time></trkpt><trkpt lat="39.47335912" lon="-0.37814177"><ele>-47.2</ele><time>2022-10-30T12:34:22.0000000+00:00</time></trkpt><trkpt lat="39.47336365" lon="-0.37812769"><ele>-47.2</ele><time>2022-10-30T12:34:23.0000000+00:00</time></trkpt><trkpt lat="39.47336733" lon="-0.37811453"><ele>-47.2</ele><time>2022-10-30T12:34:24.0000000+00:00</time></trkpt><trkpt lat="39.47337613" lon="-0.37810732"><ele>-47.2</ele><time>2022-10-30T12:34:25.0000000+00:00</time></trkpt><trkpt lat="39.47337337" lon="-0.3780955"><ele>-47.2</ele><time>2022-10-30T12:34:26.0000000+00:00</time></trkpt><trkpt lat="39.47337261" lon="-0.37808728"><ele>-47.2</ele><time>2022-10-30T12:34:27.0000000+00:00</time></trkpt><trkpt lat="39.47337597" lon="-0.3780727"><ele>-47.2</ele><time>2022-10-30T12:34:28.0000000+00:00</time></trkpt><trkpt lat="39.47337345" lon="-0.3780546"><ele>-47.4</ele><time>2022-10-30T12:34:29.0000000+00:00</time></trkpt><trkpt lat="39.47337345" lon="-0.37804538"><ele>-47.4</ele><time>2022-10-30T12:34:30.0000000+00:00</time></trkpt><trkpt lat="39.47337454" lon="-0.37803565"><ele>-47.4</ele><time>2022-10-30T12:34:31.0000000+00:00</time></trkpt><trkpt lat="39.4733675" lon="-0.37802526"><ele>-47.6</ele><time>2022-10-30T12:34:32.0000000+00:00</time></trkpt><trkpt lat="39.47336432" lon="-0.37801486"><ele>-47.6</ele><time>2022-10-30T12:34:33.0000000+00:00</time></trkpt><trkpt lat="39.47336507" lon="-0.37801059"><ele>-47.6</ele><time>2022-10-30T12:34:34.0000000+00:00</time></trkpt><trkpt lat="39.47335753" lon="-0.37800481"><ele>-47.6</ele><time>2022-10-30T12:34:35.0000000+00:00</time></trkpt><trkpt lat="39.4733587" lon="-0.37799902"><ele>-47.6</ele><time>2022-10-30T12:34:36.0000000+00:00</time></trkpt><trkpt lat="39.47335811" lon="-0.37799483"><ele>-47.6</ele><time>2022-10-30T12:34:37.0000000+00:00</time></trkpt><trkpt lat="39.47335518" lon="-0.37799039"><ele>-47.6</ele><time>2022-10-30T12:34:38.0000000+00:00</time></trkpt><trkpt lat="39.473352" lon="-0.37798863"><ele>-47.6</ele><time>2022-10-30T12:34:39.0000000+00:00</time></trkpt><trkpt lat="39.47335216" lon="-0.37798712"><ele>-47.6</ele><time>2022-10-30T12:34:40.0000000+00:00</time></trkpt><trkpt lat="39.47335015" lon="-0.37798586"><ele>-47.6</ele><time>2022-10-30T12:34:41.0000000+00:00</time></trkpt><trkpt lat="39.47335099" lon="-0.37798167"><ele>-47.6</ele><time>2022-10-30T12:34:42.0000000+00:00</time></trkpt><trkpt lat="39.47334722" lon="-0.37797656"><ele>-47.6</ele><time>2022-10-30T12:34:43.0000000+00:00</time></trkpt><trkpt lat="39.47334395" lon="-0.37796868"><ele>-47.6</ele><time>2022-10-30T12:34:44.0000000+00:00</time></trkpt><trkpt lat="39.47334982" lon="-0.37796214"><ele>-47.6</ele><time>2022-10-30T12:34:45.0000000+00:00</time></trkpt><trkpt lat="39.47334764" lon="-0.37795787"><ele>-47.6</ele><time>2022-10-30T12:34:46.0000000+00:00</time></trkpt><trkpt lat="39.4733468" lon="-0.3779525"><ele>-47.6</ele><time>2022-10-30T12:34:47.0000000+00:00</time></trkpt><trkpt lat="39.4733504" lon="-0.37794404"><ele>-47.6</ele><time>2022-10-30T12:34:48.0000000+00:00</time></trkpt><trkpt lat="39.47336155" lon="-0.37793314"><ele>-47.6</ele><time>2022-10-30T12:34:49.0000000+00:00</time></trkpt><trkpt lat="39.47337337" lon="-0.37792292"><ele>-47.6</ele><time>2022-10-30T12:34:50.0000000+00:00</time></trkpt><trkpt lat="39.47337932" lon="-0.37792132"><ele>-47.6</ele><time>2022-10-30T12:34:51.0000000+00:00</time></trkpt><trkpt lat="39.47338133" lon="-0.37792149"><ele>-47.8</ele><time>2022-10-30T12:34:52.0000000+00:00</time></trkpt><trkpt lat="39.47338108" lon="-0.37790875"><ele>-47.8</ele><time>2022-10-30T12:34:53.0000000+00:00</time></trkpt><trkpt lat="39.47338385" lon="-0.37790556"><ele>-47.8</ele><time>2022-10-30T12:34:54.0000000+00:00</time></trkpt><trkpt lat="39.47338745" lon="-0.37789852"><ele>-47.8</ele><time>2022-10-30T12:34:55.0000000+00:00</time></trkpt><trkpt lat="39.47338703" lon="-0.37789023"><ele>-47.8</ele><time>2022-10-30T12:34:56.0000000+00:00</time></trkpt><trkpt lat="39.47338494" lon="-0.37787899"><ele>-47.8</ele><time>2022-10-30T12:34:57.0000000+00:00</time></trkpt><trkpt lat="39.4733779" lon="-0.37786751"><ele>-47.8</ele><time>2022-10-30T12:34:58.0000000+00:00</time></trkpt><trkpt lat="39.47337312" lon="-0.37786013"><ele>-47.8</ele><time>2022-10-30T12:34:59.0000000+00:00</time></trkpt><trkpt lat="39.47336985" lon="-0.37785234"><ele>-47.8</ele><time>2022-10-30T12:35:00.0000000+00:00</time></trkpt><trkpt lat="39.473368" lon="-0.37784371"><ele>-47.8</ele><time>2022-10-30T12:35:01.0000000+00:00</time></trkpt><trkpt lat="39.4733587" lon="-0.37783365"><ele>-47.8</ele><time>2022-10-30T12:35:02.0000000+00:00</time></trkpt><trkpt lat="39.47335736" lon="-0.37782141"><ele>-47.8</ele><time>2022-10-30T12:35:03.0000000+00:00</time></trkpt><trkpt lat="39.4733613" lon="-0.37781035"><ele>-47.8</ele><time>2022-10-30T12:35:04.0000000+00:00</time></trkpt><trkpt lat="39.47336163" lon="-0.37779903"><ele>-47.8</ele><time>2022-10-30T12:35:05.0000000+00:00</time></trkpt><trkpt lat="39.47335459" lon="-0.37779031"><ele>-47.8</ele><time>2022-10-30T12:35:06.0000000+00:00</time></trkpt><trkpt lat="39.47334571" lon="-0.37778663"><ele>-47.6</ele><time>2022-10-30T12:35:07.0000000+00:00</time></trkpt><trkpt lat="39.47333909" lon="-0.37778235"><ele>-47.6</ele><time>2022-10-30T12:35:08.0000000+00:00</time></trkpt><trkpt lat="39.47333741" lon="-0.37777665"><ele>-47.6</ele><time>2022-10-30T12:35:09.0000000+00:00</time></trkpt><trkpt lat="39.47333339" lon="-0.3777712"><ele>-47.6</ele><time>2022-10-30T12:35:10.0000000+00:00</time></trkpt><trkpt lat="39.47332936" lon="-0.37776156"><ele>-47.6</ele><time>2022-10-30T12:35:11.0000000+00:00</time></trkpt><trkpt lat="39.47332945" lon="-0.37775276"><ele>-47.6</ele><time>2022-10-30T12:35:12.0000000+00:00</time></trkpt><trkpt lat="39.47332861" lon="-0.37774396"><ele>-47.6</ele><time>2022-10-30T12:35:13.0000000+00:00</time></trkpt><trkpt lat="39.47332936" lon="-0.37772963"><ele>-47.6</ele><time>2022-10-30T12:35:14.0000000+00:00</time></trkpt><trkpt lat="39.47332693" lon="-0.37772493"><ele>-47.6</ele><time>2022-10-30T12:35:15.0000000+00:00</time></trkpt><trkpt lat="39.47329374" lon="-0.37770222"><ele>-47.6</ele><time>2022-10-30T12:35:16.0000000+00:00</time></trkpt><trkpt lat="39.47326331" lon="-0.37767188"><ele>-47.6</ele><time>2022-10-30T12:35:17.0000000+00:00</time></trkpt><trkpt lat="39.47324161" lon="-0.37764807"><ele>-47.6</ele><time>2022-10-30T12:35:18.0000000+00:00</time></trkpt><trkpt lat="39.47323808" lon="-0.37764824"><ele>-47.6</ele><time>2022-10-30T12:35:19.0000000+00:00</time></trkpt><trkpt lat="39.47322685" lon="-0.37763969"><ele>-47.6</ele><time>2022-10-30T12:35:20.0000000+00:00</time></trkpt><trkpt lat="39.4732111" lon="-0.37763106"><ele>-47.6</ele><time>2022-10-30T12:35:21.0000000+00:00</time></trkpt><trkpt lat="39.47319391" lon="-0.37762527"><ele>-47.6</ele><time>2022-10-30T12:35:22.0000000+00:00</time></trkpt><trkpt lat="39.47317832" lon="-0.3776174"><ele>-47.6</ele><time>2022-10-30T12:35:23.0000000+00:00</time></trkpt><trkpt lat="39.47316147" lon="-0.37760994"><ele>-47.8</ele><time>2022-10-30T12:35:24.0000000+00:00</time></trkpt><trkpt lat="39.47314882" lon="-0.37760214"><ele>-47.8</ele><time>2022-10-30T12:35:25.0000000+00:00</time></trkpt><trkpt lat="39.47313842" lon="-0.37759418"><ele>-47.8</ele><time>2022-10-30T12:35:26.0000000+00:00</time></trkpt><trkpt lat="39.47312669" lon="-0.37758839"><ele>-47.8</ele><time>2022-10-30T12:35:27.0000000+00:00</time></trkpt><trkpt lat="39.4731147" lon="-0.37757951"><ele>-47.6</ele><time>2022-10-30T12:35:28.0000000+00:00</time></trkpt><trkpt lat="39.47310272" lon="-0.37756995"><ele>-47.6</ele><time>2022-10-30T12:35:29.0000000+00:00</time></trkpt><trkpt lat="39.4730847" lon="-0.37757138"><ele>-47.6</ele><time>2022-10-30T12:35:30.0000000+00:00</time></trkpt><trkpt lat="39.47306542" lon="-0.37756668"><ele>-47.6</ele><time>2022-10-30T12:35:31.0000000+00:00</time></trkpt><trkpt lat="39.47304782" lon="-0.37755369"><ele>-47.8</ele><time>2022-10-30T12:35:32.0000000+00:00</time></trkpt><trkpt lat="39.47303223" lon="-0.37753584"><ele>-47.8</ele><time>2022-10-30T12:35:33.0000000+00:00</time></trkpt><trkpt lat="39.4730199" lon="-0.37751153"><ele>-47.8</ele><time>2022-10-30T12:35:34.0000000+00:00</time></trkpt><trkpt lat="39.47300959" lon="-0.37748613"><ele>-47.8</ele><time>2022-10-30T12:35:35.0000000+00:00</time></trkpt><trkpt lat="39.47300138" lon="-0.37746694"><ele>-47.8</ele><time>2022-10-30T12:35:36.0000000+00:00</time></trkpt><trkpt lat="39.47299266" lon="-0.37744867"><ele>-47.8</ele><time>2022-10-30T12:35:37.0000000+00:00</time></trkpt><trkpt lat="39.47297397" lon="-0.37743542"><ele>-47.8</ele><time>2022-10-30T12:35:38.0000000+00:00</time></trkpt><trkpt lat="39.47295905" lon="-0.37742805"><ele>-47.8</ele><time>2022-10-30T12:35:39.0000000+00:00</time></trkpt><trkpt lat="39.47294162" lon="-0.37741355"><ele>-47.8</ele><time>2022-10-30T12:35:40.0000000+00:00</time></trkpt><trkpt lat="39.47292242" lon="-0.37740123"><ele>-47.8</ele><time>2022-10-30T12:35:41.0000000+00:00</time></trkpt><trkpt lat="39.47290348" lon="-0.37738714"><ele>-47.8</ele><time>2022-10-30T12:35:42.0000000+00:00</time></trkpt><trkpt lat="39.47288227" lon="-0.37737315"><ele>-47.8</ele><time>2022-10-30T12:35:43.0000000+00:00</time></trkpt><trkpt lat="39.47286207" lon="-0.37735764"><ele>-47.8</ele><time>2022-10-30T12:35:44.0000000+00:00</time></trkpt><trkpt lat="39.47285025" lon="-0.37734658"><ele>-47.8</ele><time>2022-10-30T12:35:45.0000000+00:00</time></trkpt><trkpt lat="39.4728355" lon="-0.37734398"><ele>-47.8</ele><time>2022-10-30T12:35:46.0000000+00:00</time></trkpt><trkpt lat="39.47282008" lon="-0.37733819"><ele>-47.8</ele><time>2022-10-30T12:35:47.0000000+00:00</time></trkpt><trkpt lat="39.47281472" lon="-0.377334"><ele>-47.8</ele><time>2022-10-30T12:35:48.0000000+00:00</time></trkpt><trkpt lat="39.47280063" lon="-0.377334"><ele>-47.8</ele><time>2022-10-30T12:35:49.0000000+00:00</time></trkpt><trkpt lat="39.47278907" lon="-0.37732889"><ele>-47.8</ele><time>2022-10-30T12:35:50.0000000+00:00</time></trkpt><trkpt lat="39.47278362" lon="-0.37732076"><ele>-47.8</ele><time>2022-10-30T12:35:51.0000000+00:00</time></trkpt><trkpt lat="39.47277289" lon="-0.37730902"><ele>-47.8</ele><time>2022-10-30T12:35:52.0000000+00:00</time></trkpt><trkpt lat="39.47276048" lon="-0.37729721"><ele>-47.8</ele><time>2022-10-30T12:35:53.0000000+00:00</time></trkpt><trkpt lat="39.47275294" lon="-0.37729209"><ele>-47.8</ele><time>2022-10-30T12:35:54.0000000+00:00</time></trkpt><trkpt lat="39.47274414" lon="-0.37729017"><ele>-47.8</ele><time>2022-10-30T12:35:55.0000000+00:00</time></trkpt><trkpt lat="39.47273006" lon="-0.37729838"><ele>-47.8</ele><time>2022-10-30T12:35:56.0000000+00:00</time></trkpt><trkpt lat="39.4727138" lon="-0.37730106"><ele>-47.6</ele><time>2022-10-30T12:35:57.0000000+00:00</time></trkpt><trkpt lat="39.47270332" lon="-0.37730224"><ele>-47.6</ele><time>2022-10-30T12:35:58.0000000+00:00</time></trkpt><trkpt lat="39.472692" lon="-0.37730785"><ele>-47.6</ele><time>2022-10-30T12:35:59.0000000+00:00</time></trkpt><trkpt lat="39.47268102" lon="-0.37730726"><ele>-47.6</ele><time>2022-10-30T12:36:00.0000000+00:00</time></trkpt><trkpt lat="39.47266426" lon="-0.37730726"><ele>-47.6</ele><time>2022-10-30T12:36:01.0000000+00:00</time></trkpt><trkpt lat="39.47264574" lon="-0.37729075"><ele>-47.6</ele><time>2022-10-30T12:36:02.0000000+00:00</time></trkpt><trkpt lat="39.47263769" lon="-0.3772739"><ele>-47.6</ele><time>2022-10-30T12:36:03.0000000+00:00</time></trkpt><trkpt lat="39.47262352" lon="-0.37726309"><ele>-47.6</ele><time>2022-10-30T12:36:04.0000000+00:00</time></trkpt><trkpt lat="39.47260743" lon="-0.37725538"><ele>-47.6</ele><time>2022-10-30T12:36:05.0000000+00:00</time></trkpt><trkpt lat="39.47259268" lon="-0.37725052"><ele>-47.6</ele><time>2022-10-30T12:36:06.0000000+00:00</time></trkpt><trkpt lat="39.47258296" lon="-0.3772444"><ele>-47.6</ele><time>2022-10-30T12:36:07.0000000+00:00</time></trkpt><trkpt lat="39.47257273" lon="-0.37723946"><ele>-47.6</ele><time>2022-10-30T12:36:08.0000000+00:00</time></trkpt><trkpt lat="39.47256544" lon="-0.377232"><ele>-47.6</ele><time>2022-10-30T12:36:09.0000000+00:00</time></trkpt><trkpt lat="39.47256301" lon="-0.37723141"><ele>-47.8</ele><time>2022-10-30T12:36:10.0000000+00:00</time></trkpt><trkpt lat="39.47256577" lon="-0.37721632"><ele>-47.8</ele><time>2022-10-30T12:36:11.0000000+00:00</time></trkpt><trkpt lat="39.47255898" lon="-0.37721255"><ele>-47.8</ele><time>2022-10-30T12:36:12.0000000+00:00</time></trkpt><trkpt lat="39.4725496" lon="-0.3772216"><ele>-47.8</ele><time>2022-10-30T12:36:13.0000000+00:00</time></trkpt><trkpt lat="39.47254222" lon="-0.37722881"><ele>-47.8</ele><time>2022-10-30T12:36:14.0000000+00:00</time></trkpt><trkpt lat="39.47253216" lon="-0.37723619"><ele>-47.8</ele><time>2022-10-30T12:36:15.0000000+00:00</time></trkpt><trkpt lat="39.4725299" lon="-0.37722646"><ele>-47.8</ele><time>2022-10-30T12:36:16.0000000+00:00</time></trkpt><trkpt lat="39.47252504" lon="-0.37721339"><ele>-47.8</ele><time>2022-10-30T12:36:17.0000000+00:00</time></trkpt><trkpt lat="39.47251942" lon="-0.3772045"><ele>-47.6</ele><time>2022-10-30T12:36:18.0000000+00:00</time></trkpt><trkpt lat="39.4725076" lon="-0.37719436"><ele>-47.6</ele><time>2022-10-30T12:36:19.0000000+00:00</time></trkpt><trkpt lat="39.4724921" lon="-0.3771931"><ele>-47.6</ele><time>2022-10-30T12:36:20.0000000+00:00</time></trkpt><trkpt lat="39.47248187" lon="-0.37719109"><ele>-47.6</ele><time>2022-10-30T12:36:21.0000000+00:00</time></trkpt><trkpt lat="39.47247357" lon="-0.37718019"><ele>-47.6</ele><time>2022-10-30T12:36:22.0000000+00:00</time></trkpt><trkpt lat="39.47247013" lon="-0.3771745"><ele>-47.6</ele><time>2022-10-30T12:36:23.0000000+00:00</time></trkpt><trkpt lat="39.47246829" lon="-0.37716184"><ele>-47.6</ele><time>2022-10-30T12:36:24.0000000+00:00</time></trkpt><trkpt lat="39.47246175" lon="-0.37715706"><ele>-47.6</ele><time>2022-10-30T12:36:25.0000000+00:00</time></trkpt><trkpt lat="39.47245329" lon="-0.37715748"><ele>-47.6</ele><time>2022-10-30T12:36:26.0000000+00:00</time></trkpt><trkpt lat="39.47244708" lon="-0.37715279"><ele>-47.6</ele><time>2022-10-30T12:36:27.0000000+00:00</time></trkpt><trkpt lat="39.47243678" lon="-0.37714968"><ele>-47.6</ele><time>2022-10-30T12:36:28.0000000+00:00</time></trkpt><trkpt lat="39.47242655" lon="-0.37714901"><ele>-47.4</ele><time>2022-10-30T12:36:29.0000000+00:00</time></trkpt><trkpt lat="39.4724185" lon="-0.37714155"><ele>-47.4</ele><time>2022-10-30T12:36:30.0000000+00:00</time></trkpt><trkpt lat="39.47240895" lon="-0.37713787"><ele>-47.6</ele><time>2022-10-30T12:36:31.0000000+00:00</time></trkpt><trkpt lat="39.47240233" lon="-0.37713795"><ele>-47.4</ele><time>2022-10-30T12:36:32.0000000+00:00</time></trkpt><trkpt lat="39.47240165" lon="-0.3771299"><ele>-47.4</ele><time>2022-10-30T12:36:33.0000000+00:00</time></trkpt><trkpt lat="39.47240308" lon="-0.37710895"><ele>-47.4</ele><time>2022-10-30T12:36:34.0000000+00:00</time></trkpt><trkpt lat="39.47240057" lon="-0.37709294"><ele>-47.4</ele><time>2022-10-30T12:36:35.0000000+00:00</time></trkpt><trkpt lat="39.47239889" lon="-0.37707785"><ele>-47.4</ele><time>2022-10-30T12:36:36.0000000+00:00</time></trkpt><trkpt lat="39.47239436" lon="-0.3770652"><ele>-47.4</ele><time>2022-10-30T12:36:37.0000000+00:00</time></trkpt><trkpt lat="39.47238967" lon="-0.37705614"><ele>-47.4</ele><time>2022-10-30T12:36:38.0000000+00:00</time></trkpt><trkpt lat="39.47238674" lon="-0.37705078"><ele>-47.6</ele><time>2022-10-30T12:36:39.0000000+00:00</time></trkpt><trkpt lat="39.4723838" lon="-0.37704122"><ele>-47.6</ele><time>2022-10-30T12:36:40.0000000+00:00</time></trkpt><trkpt lat="39.47237902" lon="-0.37703343"><ele>-47.6</ele><time>2022-10-30T12:36:41.0000000+00:00</time></trkpt><trkpt lat="39.47237408" lon="-0.37702597"><ele>-47.4</ele><time>2022-10-30T12:36:42.0000000+00:00</time></trkpt><trkpt lat="39.47236687" lon="-0.37701457"><ele>-47.4</ele><time>2022-10-30T12:36:43.0000000+00:00</time></trkpt><trkpt lat="39.472361" lon="-0.37700535"><ele>-47.6</ele><time>2022-10-30T12:36:44.0000000+00:00</time></trkpt><trkpt lat="39.47235187" lon="-0.37700099"><ele>-47.6</ele><time>2022-10-30T12:36:45.0000000+00:00</time></trkpt><trkpt lat="39.47234575" lon="-0.37699688"><ele>-47.6</ele><time>2022-10-30T12:36:46.0000000+00:00</time></trkpt><trkpt lat="39.47234164" lon="-0.37699353"><ele>-47.6</ele><time>2022-10-30T12:36:47.0000000+00:00</time></trkpt><trkpt lat="39.47233007" lon="-0.37697668"><ele>-47.6</ele><time>2022-10-30T12:36:48.0000000+00:00</time></trkpt><trkpt lat="39.47231004" lon="-0.37697752"><ele>-47.6</ele><time>2022-10-30T12:36:49.0000000+00:00</time></trkpt><trkpt lat="39.47228942" lon="-0.37698356"><ele>-47.6</ele><time>2022-10-30T12:36:50.0000000+00:00</time></trkpt><trkpt lat="39.47227567" lon="-0.37697769"><ele>-47.6</ele><time>2022-10-30T12:36:51.0000000+00:00</time></trkpt><trkpt lat="39.47226721" lon="-0.3769595"><ele>-47.6</ele><time>2022-10-30T12:36:52.0000000+00:00</time></trkpt><trkpt lat="39.47226604" lon="-0.3769367"><ele>-47.6</ele><time>2022-10-30T12:36:53.0000000+00:00</time></trkpt><trkpt lat="39.47225564" lon="-0.37691516"><ele>-47.6</ele><time>2022-10-30T12:36:54.0000000+00:00</time></trkpt><trkpt lat="39.47224081" lon="-0.37689529"><ele>-47.6</ele><time>2022-10-30T12:36:55.0000000+00:00</time></trkpt><trkpt lat="39.47223469" lon="-0.37687493"><ele>-47.6</ele><time>2022-10-30T12:36:56.0000000+00:00</time></trkpt><trkpt lat="39.47222237" lon="-0.37685531"><ele>-47.6</ele><time>2022-10-30T12:36:57.0000000+00:00</time></trkpt><trkpt lat="39.47220577" lon="-0.37683712"><ele>-47.6</ele><time>2022-10-30T12:36:58.0000000+00:00</time></trkpt><trkpt lat="39.47219186" lon="-0.37682388"><ele>-47.6</ele><time>2022-10-30T12:36:59.0000000+00:00</time></trkpt><trkpt lat="39.47217719" lon="-0.37681298"><ele>-47.6</ele><time>2022-10-30T12:37:00.0000000+00:00</time></trkpt><trkpt lat="39.47216176" lon="-0.37680326"><ele>-47.6</ele><time>2022-10-30T12:37:01.0000000+00:00</time></trkpt><trkpt lat="39.47214793" lon="-0.37679454"><ele>-47.6</ele><time>2022-10-30T12:37:02.0000000+00:00</time></trkpt><trkpt lat="39.47213444" lon="-0.37678968"><ele>-47.6</ele><time>2022-10-30T12:37:03.0000000+00:00</time></trkpt><trkpt lat="39.47211918" lon="-0.37678742"><ele>-47.6</ele><time>2022-10-30T12:37:04.0000000+00:00</time></trkpt><trkpt lat="39.47210527" lon="-0.37677786"><ele>-47.6</ele><time>2022-10-30T12:37:05.0000000+00:00</time></trkpt><trkpt lat="39.47209178" lon="-0.37676043"><ele>-47.6</ele><time>2022-10-30T12:37:06.0000000+00:00</time></trkpt><trkpt lat="39.47207702" lon="-0.37675356"><ele>-47.6</ele><time>2022-10-30T12:37:07.0000000+00:00</time></trkpt><trkpt lat="39.47205481" lon="-0.37676839"><ele>-47.6</ele><time>2022-10-30T12:37:08.0000000+00:00</time></trkpt><trkpt lat="39.47203813" lon="-0.37677736"><ele>-47.8</ele><time>2022-10-30T12:37:09.0000000+00:00</time></trkpt><trkpt lat="39.47202933" lon="-0.37679136"><ele>-47.8</ele><time>2022-10-30T12:37:10.0000000+00:00</time></trkpt><trkpt lat="39.4720176" lon="-0.37678599"><ele>-47.8</ele><time>2022-10-30T12:37:11.0000000+00:00</time></trkpt><trkpt lat="39.47200737" lon="-0.37678231"><ele>-47.8</ele><time>2022-10-30T12:37:12.0000000+00:00</time></trkpt><trkpt lat="39.47199186" lon="-0.3767844"><ele>-47.8</ele><time>2022-10-30T12:37:13.0000000+00:00</time></trkpt><trkpt lat="39.47197862" lon="-0.37678574"><ele>-47.8</ele><time>2022-10-30T12:37:14.0000000+00:00</time></trkpt><trkpt lat="39.47196621" lon="-0.37678625"><ele>-48.0</ele><time>2022-10-30T12:37:15.0000000+00:00</time></trkpt><trkpt lat="39.47195632" lon="-0.37678591"><ele>-47.8</ele><time>2022-10-30T12:37:16.0000000+00:00</time></trkpt><trkpt lat="39.47194476" lon="-0.3767808"><ele>-47.8</ele><time>2022-10-30T12:37:17.0000000+00:00</time></trkpt><trkpt lat="39.47193554" lon="-0.37677518"><ele>-47.8</ele><time>2022-10-30T12:37:18.0000000+00:00</time></trkpt><trkpt lat="39.47192531" lon="-0.37677208"><ele>-47.8</ele><time>2022-10-30T12:37:19.0000000+00:00</time></trkpt><trkpt lat="39.47192112" lon="-0.37677057"><ele>-47.8</ele><time>2022-10-30T12:37:20.0000000+00:00</time></trkpt><trkpt lat="39.4719181" lon="-0.37677049"><ele>-47.8</ele><time>2022-10-30T12:37:21.0000000+00:00</time></trkpt><trkpt lat="39.47191207" lon="-0.37676311"><ele>-47.8</ele><time>2022-10-30T12:37:22.0000000+00:00</time></trkpt><trkpt lat="39.47190763" lon="-0.37676194"><ele>-47.8</ele><time>2022-10-30T12:37:23.0000000+00:00</time></trkpt><trkpt lat="39.47189413" lon="-0.37675289"><ele>-47.8</ele><time>2022-10-30T12:37:24.0000000+00:00</time></trkpt><trkpt lat="39.47188977" lon="-0.37675163"><ele>-48.0</ele><time>2022-10-30T12:37:25.0000000+00:00</time></trkpt><trkpt lat="39.47188986" lon="-0.37674777"><ele>-48.0</ele><time>2022-10-30T12:37:26.0000000+00:00</time></trkpt><trkpt lat="39.4718834" lon="-0.37674702"><ele>-48.0</ele><time>2022-10-30T12:37:27.0000000+00:00</time></trkpt><trkpt lat="39.47187644" lon="-0.37674107"><ele>-48.0</ele><time>2022-10-30T12:37:28.0000000+00:00</time></trkpt><trkpt lat="39.47186681" lon="-0.37673654"><ele>-48.0</ele><time>2022-10-30T12:37:29.0000000+00:00</time></trkpt><trkpt lat="39.47186211" lon="-0.37673763"><ele>-48.0</ele><time>2022-10-30T12:37:30.0000000+00:00</time></trkpt><trkpt lat="39.47185448" lon="-0.37673906"><ele>-48.0</ele><time>2022-10-30T12:37:31.0000000+00:00</time></trkpt><trkpt lat="39.47184627" lon="-0.37674492"><ele>-48.0</ele><time>2022-10-30T12:37:32.0000000+00:00</time></trkpt><trkpt lat="39.47183336" lon="-0.37675012"><ele>-48.0</ele><time>2022-10-30T12:37:33.0000000+00:00</time></trkpt><trkpt lat="39.47182448" lon="-0.37675071"><ele>-48.0</ele><time>2022-10-30T12:37:34.0000000+00:00</time></trkpt><trkpt lat="39.47181685" lon="-0.37674425"><ele>-48.0</ele><time>2022-10-30T12:37:35.0000000+00:00</time></trkpt><trkpt lat="39.47181031" lon="-0.3767388"><ele>-48.0</ele><time>2022-10-30T12:37:36.0000000+00:00</time></trkpt><trkpt lat="39.47180562" lon="-0.37673445"><ele>-48.0</ele><time>2022-10-30T12:37:37.0000000+00:00</time></trkpt><trkpt lat="39.47178542" lon="-0.37673671"><ele>-48.0</ele><time>2022-10-30T12:37:38.0000000+00:00</time></trkpt><trkpt lat="39.47176413" lon="-0.37673076"><ele>-48.0</ele><time>2022-10-30T12:37:39.0000000+00:00</time></trkpt><trkpt lat="39.47175591" lon="-0.37671978"><ele>-48.0</ele><time>2022-10-30T12:37:40.0000000+00:00</time></trkpt><trkpt lat="39.47174787" lon="-0.37670896"><ele>-48.0</ele><time>2022-10-30T12:37:41.0000000+00:00</time></trkpt><trkpt lat="39.47173404" lon="-0.37670134"><ele>-48.2</ele><time>2022-10-30T12:37:42.0000000+00:00</time></trkpt><trkpt lat="39.47172188" lon="-0.37669631"><ele>-48.2</ele><time>2022-10-30T12:37:43.0000000+00:00</time></trkpt><trkpt lat="39.47170864" lon="-0.37669363"><ele>-48.2</ele><time>2022-10-30T12:37:44.0000000+00:00</time></trkpt><trkpt lat="39.47169556" lon="-0.3766953"><ele>-48.2</ele><time>2022-10-30T12:37:45.0000000+00:00</time></trkpt><trkpt lat="39.47168676" lon="-0.37670159"><ele>-48.2</ele><time>2022-10-30T12:37:46.0000000+00:00</time></trkpt><trkpt lat="39.47168148" lon="-0.37670318"><ele>-48.4</ele><time>2022-10-30T12:37:47.0000000+00:00</time></trkpt><trkpt lat="39.47167628" lon="-0.37670058"><ele>-48.4</ele><time>2022-10-30T12:37:48.0000000+00:00</time></trkpt><trkpt lat="39.47166966" lon="-0.37669178"><ele>-48.2</ele><time>2022-10-30T12:37:49.0000000+00:00</time></trkpt><trkpt lat="39.47165676" lon="-0.37669404"><ele>-48.4</ele><time>2022-10-30T12:37:50.0000000+00:00</time></trkpt><trkpt lat="39.47165038" lon="-0.37670243"><ele>-48.2</ele><time>2022-10-30T12:37:51.0000000+00:00</time></trkpt><trkpt lat="39.47164041" lon="-0.37670419"><ele>-48.2</ele><time>2022-10-30T12:37:52.0000000+00:00</time></trkpt><trkpt lat="39.47162775" lon="-0.37670477"><ele>-48.2</ele><time>2022-10-30T12:37:53.0000000+00:00</time></trkpt><trkpt lat="39.4716213" lon="-0.37670989"><ele>-48.2</ele><time>2022-10-30T12:37:54.0000000+00:00</time></trkpt><trkpt lat="39.47161443" lon="-0.37670754"><ele>-48.2</ele><time>2022-10-30T12:37:55.0000000+00:00</time></trkpt><trkpt lat="39.47160403" lon="-0.37670184"><ele>-48.2</ele><time>2022-10-30T12:37:56.0000000+00:00</time></trkpt><trkpt lat="39.47160034" lon="-0.37670192"><ele>-48.2</ele><time>2022-10-30T12:37:57.0000000+00:00</time></trkpt><trkpt lat="39.47158928" lon="-0.3766958"><ele>-48.2</ele><time>2022-10-30T12:37:58.0000000+00:00</time></trkpt><trkpt lat="39.47157813" lon="-0.37668633"><ele>-48.2</ele><time>2022-10-30T12:37:59.0000000+00:00</time></trkpt><trkpt lat="39.47156724" lon="-0.37667343"><ele>-48.2</ele><time>2022-10-30T12:38:00.0000000+00:00</time></trkpt><trkpt lat="39.47154888" lon="-0.37666379"><ele>-48.2</ele><time>2022-10-30T12:38:01.0000000+00:00</time></trkpt><trkpt lat="39.47153622" lon="-0.3766601"><ele>-48.4</ele><time>2022-10-30T12:38:02.0000000+00:00</time></trkpt><trkpt lat="39.47153078" lon="-0.37665951"><ele>-48.4</ele><time>2022-10-30T12:38:03.0000000+00:00</time></trkpt><trkpt lat="39.47152264" lon="-0.37665415"><ele>-48.4</ele><time>2022-10-30T12:38:04.0000000+00:00</time></trkpt><trkpt lat="39.47151275" lon="-0.37664887"><ele>-48.4</ele><time>2022-10-30T12:38:05.0000000+00:00</time></trkpt><trkpt lat="39.471498" lon="-0.37665314"><ele>-48.4</ele><time>2022-10-30T12:38:06.0000000+00:00</time></trkpt><trkpt lat="39.47148283" lon="-0.37665381"><ele>-48.4</ele><time>2022-10-30T12:38:07.0000000+00:00</time></trkpt><trkpt lat="39.47147177" lon="-0.37664669"><ele>-48.4</ele><time>2022-10-30T12:38:08.0000000+00:00</time></trkpt><trkpt lat="39.47146263" lon="-0.37663587"><ele>-48.2</ele><time>2022-10-30T12:38:09.0000000+00:00</time></trkpt><trkpt lat="39.47145467" lon="-0.37662883"><ele>-48.2</ele><time>2022-10-30T12:38:10.0000000+00:00</time></trkpt><trkpt lat="39.47144511" lon="-0.37662347"><ele>-48.2</ele><time>2022-10-30T12:38:11.0000000+00:00</time></trkpt><trkpt lat="39.47143581" lon="-0.37661844"><ele>-48.2</ele><time>2022-10-30T12:38:12.0000000+00:00</time></trkpt><trkpt lat="39.47142449" lon="-0.37661358"><ele>-48.2</ele><time>2022-10-30T12:38:13.0000000+00:00</time></trkpt><trkpt lat="39.47141242" lon="-0.37661014"><ele>-48.2</ele><time>2022-10-30T12:38:14.0000000+00:00</time></trkpt><trkpt lat="39.4714027" lon="-0.37661157"><ele>-48.4</ele><time>2022-10-30T12:38:15.0000000+00:00</time></trkpt><trkpt lat="39.47139189" lon="-0.37661584"><ele>-48.4</ele><time>2022-10-30T12:38:16.0000000+00:00</time></trkpt><trkpt lat="39.47138049" lon="-0.37662012"><ele>-48.4</ele><time>2022-10-30T12:38:17.0000000+00:00</time></trkpt><trkpt lat="39.47137001" lon="-0.37662204"><ele>-48.4</ele><time>2022-10-30T12:38:18.0000000+00:00</time></trkpt><trkpt lat="39.47136683" lon="-0.37662959"><ele>-48.2</ele><time>2022-10-30T12:38:19.0000000+00:00</time></trkpt><trkpt lat="39.471369" lon="-0.37662908"><ele>-48.2</ele><time>2022-10-30T12:38:20.0000000+00:00</time></trkpt><trkpt lat="39.47136171" lon="-0.37663001"><ele>-48.2</ele><time>2022-10-30T12:38:21.0000000+00:00</time></trkpt><trkpt lat="39.4713447" lon="-0.37663118"><ele>-48.2</ele><time>2022-10-30T12:38:22.0000000+00:00</time></trkpt><trkpt lat="39.47132877" lon="-0.3766166"><ele>-48.2</ele><time>2022-10-30T12:38:23.0000000+00:00</time></trkpt><trkpt lat="39.47131461" lon="-0.37659874"><ele>-48.2</ele><time>2022-10-30T12:38:24.0000000+00:00</time></trkpt><trkpt lat="39.4712991" lon="-0.37658961"><ele>-48.2</ele><time>2022-10-30T12:38:25.0000000+00:00</time></trkpt><trkpt lat="39.47128016" lon="-0.37658089"><ele>-48.2</ele><time>2022-10-30T12:38:26.0000000+00:00</time></trkpt><trkpt lat="39.47126373" lon="-0.3765772"><ele>-48.2</ele><time>2022-10-30T12:38:27.0000000+00:00</time></trkpt><trkpt lat="39.47124839" lon="-0.37657209"><ele>-48.2</ele><time>2022-10-30T12:38:28.0000000+00:00</time></trkpt><trkpt lat="39.47123607" lon="-0.37656362"><ele>-48.2</ele><time>2022-10-30T12:38:29.0000000+00:00</time></trkpt><trkpt lat="39.4712266" lon="-0.37655222"><ele>-48.2</ele><time>2022-10-30T12:38:30.0000000+00:00</time></trkpt><trkpt lat="39.47121277" lon="-0.37654284"><ele>-48.2</ele><time>2022-10-30T12:38:31.0000000+00:00</time></trkpt><trkpt lat="39.47119508" lon="-0.37653403"><ele>-48.2</ele><time>2022-10-30T12:38:32.0000000+00:00</time></trkpt><trkpt lat="39.47117798" lon="-0.37652884"><ele>-48.2</ele><time>2022-10-30T12:38:33.0000000+00:00</time></trkpt><trkpt lat="39.47115703" lon="-0.37652808"><ele>-48.2</ele><time>2022-10-30T12:38:34.0000000+00:00</time></trkpt><trkpt lat="39.47113507" lon="-0.37651685"><ele>-48.2</ele><time>2022-10-30T12:38:35.0000000+00:00</time></trkpt><trkpt lat="39.47111981" lon="-0.3765047"><ele>-48.2</ele><time>2022-10-30T12:38:36.0000000+00:00</time></trkpt><trkpt lat="39.4711069" lon="-0.37649539"><ele>-48.2</ele><time>2022-10-30T12:38:37.0000000+00:00</time></trkpt><trkpt lat="39.47109659" lon="-0.37648466"><ele>-48.2</ele><time>2022-10-30T12:38:38.0000000+00:00</time></trkpt><trkpt lat="39.47108503" lon="-0.37647419"><ele>-48.2</ele><time>2022-10-30T12:38:39.0000000+00:00</time></trkpt><trkpt lat="39.47107254" lon="-0.37646656"><ele>-48.4</ele><time>2022-10-30T12:38:40.0000000+00:00</time></trkpt><trkpt lat="39.47105653" lon="-0.37646379"><ele>-48.4</ele><time>2022-10-30T12:38:41.0000000+00:00</time></trkpt><trkpt lat="39.47104387" lon="-0.37646698"><ele>-48.4</ele><time>2022-10-30T12:38:42.0000000+00:00</time></trkpt><trkpt lat="39.47102761" lon="-0.37646513"><ele>-48.2</ele><time>2022-10-30T12:38:43.0000000+00:00</time></trkpt><trkpt lat="39.4710137" lon="-0.3764539"><ele>-48.2</ele><time>2022-10-30T12:38:44.0000000+00:00</time></trkpt><trkpt lat="39.47099936" lon="-0.37644795"><ele>-48.2</ele><time>2022-10-30T12:38:45.0000000+00:00</time></trkpt><trkpt lat="39.47098712" lon="-0.37644393"><ele>-48.2</ele><time>2022-10-30T12:38:46.0000000+00:00</time></trkpt><trkpt lat="39.47097137" lon="-0.37643563"><ele>-48.2</ele><time>2022-10-30T12:38:47.0000000+00:00</time></trkpt><trkpt lat="39.47095846" lon="-0.37643001"><ele>-48.2</ele><time>2022-10-30T12:38:48.0000000+00:00</time></trkpt><trkpt lat="39.47094488" lon="-0.37642331"><ele>-48.2</ele><time>2022-10-30T12:38:49.0000000+00:00</time></trkpt><trkpt lat="39.47093449" lon="-0.37641895"><ele>-48.2</ele><time>2022-10-30T12:38:50.0000000+00:00</time></trkpt><trkpt lat="39.47092594" lon="-0.37641426"><ele>-48.2</ele><time>2022-10-30T12:38:51.0000000+00:00</time></trkpt><trkpt lat="39.47091286" lon="-0.37640998"><ele>-48.2</ele><time>2022-10-30T12:38:52.0000000+00:00</time></trkpt><trkpt lat="39.47090029" lon="-0.37640839"><ele>-48.2</ele><time>2022-10-30T12:38:53.0000000+00:00</time></trkpt><trkpt lat="39.47088939" lon="-0.37640537"><ele>-48.2</ele><time>2022-10-30T12:38:54.0000000+00:00</time></trkpt><trkpt lat="39.4708795" lon="-0.37640722"><ele>-48.2</ele><time>2022-10-30T12:38:55.0000000+00:00</time></trkpt><trkpt lat="39.47087221" lon="-0.37642172"><ele>-48.2</ele><time>2022-10-30T12:38:56.0000000+00:00</time></trkpt><trkpt lat="39.47086701" lon="-0.37643882"><ele>-48.2</ele><time>2022-10-30T12:38:57.0000000+00:00</time></trkpt><trkpt lat="39.47086416" lon="-0.37644954"><ele>-48.2</ele><time>2022-10-30T12:38:58.0000000+00:00</time></trkpt><trkpt lat="39.47085436" lon="-0.3764482"><ele>-48.2</ele><time>2022-10-30T12:38:59.0000000+00:00</time></trkpt><trkpt lat="39.47084379" lon="-0.3764456"><ele>-48.2</ele><time>2022-10-30T12:39:00.0000000+00:00</time></trkpt><trkpt lat="39.47083776" lon="-0.37645575"><ele>-48.2</ele><time>2022-10-30T12:39:01.0000000+00:00</time></trkpt><trkpt lat="39.47083206" lon="-0.37646673"><ele>-48.2</ele><time>2022-10-30T12:39:02.0000000+00:00</time></trkpt><trkpt lat="39.4708225" lon="-0.37647637"><ele>-48.2</ele><time>2022-10-30T12:39:03.0000000+00:00</time></trkpt><trkpt lat="39.47080909" lon="-0.37648031"><ele>-48.2</ele><time>2022-10-30T12:39:04.0000000+00:00</time></trkpt><trkpt lat="39.47079727" lon="-0.3764772"><ele>-48.2</ele><time>2022-10-30T12:39:05.0000000+00:00</time></trkpt><trkpt lat="39.47078596" lon="-0.37647301"><ele>-48.2</ele><time>2022-10-30T12:39:06.0000000+00:00</time></trkpt><trkpt lat="39.47077037" lon="-0.37646337"><ele>-48.2</ele><time>2022-10-30T12:39:07.0000000+00:00</time></trkpt><trkpt lat="39.47075822" lon="-0.37645667"><ele>-48.2</ele><time>2022-10-30T12:39:08.0000000+00:00</time></trkpt><trkpt lat="39.47074899" lon="-0.37645332"><ele>-48.2</ele><time>2022-10-30T12:39:09.0000000+00:00</time></trkpt><trkpt lat="39.47074573" lon="-0.37645332"><ele>-48.4</ele><time>2022-10-30T12:39:10.0000000+00:00</time></trkpt><trkpt lat="39.47073516" lon="-0.3764477"><ele>-48.4</ele><time>2022-10-30T12:39:11.0000000+00:00</time></trkpt><trkpt lat="39.47071966" lon="-0.37643991"><ele>-48.4</ele><time>2022-10-30T12:39:12.0000000+00:00</time></trkpt><trkpt lat="39.47070566" lon="-0.37643404"><ele>-48.4</ele><time>2022-10-30T12:39:13.0000000+00:00</time></trkpt><trkpt lat="39.47068823" lon="-0.37642884"><ele>-48.2</ele><time>2022-10-30T12:39:14.0000000+00:00</time></trkpt><trkpt lat="39.47067037" lon="-0.37642381"><ele>-48.2</ele><time>2022-10-30T12:39:15.0000000+00:00</time></trkpt><trkpt lat="39.47065252" lon="-0.37642121"><ele>-48.2</ele><time>2022-10-30T12:39:16.0000000+00:00</time></trkpt><trkpt lat="39.47064095" lon="-0.37642381"><ele>-48.2</ele><time>2022-10-30T12:39:17.0000000+00:00</time></trkpt><trkpt lat="39.47062679" lon="-0.37642172"><ele>-48.2</ele><time>2022-10-30T12:39:18.0000000+00:00</time></trkpt><trkpt lat="39.47061128" lon="-0.37642071"><ele>-48.2</ele><time>2022-10-30T12:39:19.0000000+00:00</time></trkpt><trkpt lat="39.47059854" lon="-0.37642172"><ele>-48.2</ele><time>2022-10-30T12:39:20.0000000+00:00</time></trkpt><trkpt lat="39.47058312" lon="-0.37641551"><ele>-48.2</ele><time>2022-10-30T12:39:21.0000000+00:00</time></trkpt><trkpt lat="39.47056719" lon="-0.37640294"><ele>-48.2</ele><time>2022-10-30T12:39:22.0000000+00:00</time></trkpt><trkpt lat="39.47055261" lon="-0.37639297"><ele>-48.4</ele><time>2022-10-30T12:39:23.0000000+00:00</time></trkpt><trkpt lat="39.47054565" lon="-0.37638819"><ele>-48.4</ele><time>2022-10-30T12:39:24.0000000+00:00</time></trkpt><trkpt lat="39.47053291" lon="-0.37637645"><ele>-48.4</ele><time>2022-10-30T12:39:25.0000000+00:00</time></trkpt><trkpt lat="39.4705174" lon="-0.37637008"><ele>-48.4</ele><time>2022-10-30T12:39:26.0000000+00:00</time></trkpt><trkpt lat="39.47050659" lon="-0.37637067"><ele>-48.4</ele><time>2022-10-30T12:39:27.0000000+00:00</time></trkpt><trkpt lat="39.47050081" lon="-0.37637"><ele>-48.4</ele><time>2022-10-30T12:39:28.0000000+00:00</time></trkpt><trkpt lat="39.47048832" lon="-0.37635919"><ele>-48.4</ele><time>2022-10-30T12:39:29.0000000+00:00</time></trkpt><trkpt lat="39.47047717" lon="-0.37636028"><ele>-48.4</ele><time>2022-10-30T12:39:30.0000000+00:00</time></trkpt><trkpt lat="39.47047306" lon="-0.37635885"><ele>-48.4</ele><time>2022-10-30T12:39:31.0000000+00:00</time></trkpt><trkpt lat="39.47047122" lon="-0.37635785"><ele>-48.4</ele><time>2022-10-30T12:39:32.0000000+00:00</time></trkpt><trkpt lat="39.47047105" lon="-0.37635776"><ele>-48.4</ele><time>2022-10-30T12:39:33.0000000+00:00</time></trkpt><trkpt lat="39.4704713" lon="-0.3763576"><ele>-48.6</ele><time>2022-10-30T12:39:34.0000000+00:00</time></trkpt><trkpt lat="39.47047164" lon="-0.37635692"><ele>-48.6</ele><time>2022-10-30T12:39:35.0000000+00:00</time></trkpt><trkpt lat="39.47047155" lon="-0.37635617"><ele>-48.6</ele><time>2022-10-30T12:39:36.0000000+00:00</time></trkpt><trkpt lat="39.47047122" lon="-0.37635609"><ele>-48.6</ele><time>2022-10-30T12:39:37.0000000+00:00</time></trkpt><trkpt lat="39.47047113" lon="-0.37635667"><ele>-48.6</ele><time>2022-10-30T12:39:38.0000000+00:00</time></trkpt><trkpt lat="39.47047155" lon="-0.3763576"><ele>-48.6</ele><time>2022-10-30T12:39:39.0000000+00:00</time></trkpt><trkpt lat="39.47047206" lon="-0.37635776"><ele>-48.6</ele><time>2022-10-30T12:39:40.0000000+00:00</time></trkpt><trkpt lat="39.47047164" lon="-0.37635751"><ele>-48.6</ele><time>2022-10-30T12:39:41.0000000+00:00</time></trkpt><trkpt lat="39.4704729" lon="-0.37635642"><ele>-48.6</ele><time>2022-10-30T12:39:42.0000000+00:00</time></trkpt><trkpt lat="39.47047466" lon="-0.37635483"><ele>-48.6</ele><time>2022-10-30T12:39:43.0000000+00:00</time></trkpt><trkpt lat="39.47047549" lon="-0.37635223"><ele>-48.6</ele><time>2022-10-30T12:39:44.0000000+00:00</time></trkpt><trkpt lat="39.47047491" lon="-0.37635181"><ele>-48.6</ele><time>2022-10-30T12:39:45.0000000+00:00</time></trkpt><trkpt lat="39.47047491" lon="-0.37635181"><ele>-48.4</ele><time>2022-10-30T12:39:46.0000000+00:00</time></trkpt><trkpt lat="39.47047491" lon="-0.37635181"><ele>-48.4</ele><time>2022-10-30T12:39:47.0000000+00:00</time></trkpt><trkpt lat="39.47047491" lon="-0.37635181"><ele>-48.4</ele><time>2022-10-30T12:39:48.0000000+00:00</time></trkpt><trkpt lat="39.47047491" lon="-0.37635181"><ele>-48.4</ele><time>2022-10-30T12:39:49.0000000+00:00</time></trkpt><trkpt lat="39.47047491" lon="-0.37635181"><ele>-48.4</ele><time>2022-10-30T12:39:50.0000000+00:00</time></trkpt><trkpt lat="39.47047491" lon="-0.37635181"><ele>-48.6</ele><time>2022-10-30T12:39:51.0000000+00:00</time></trkpt><trkpt lat="39.47047491" lon="-0.37635181"><ele>-48.6</ele><time>2022-10-30T12:39:52.0000000+00:00</time></trkpt><trkpt lat="39.47047491" lon="-0.37635181"><ele>-48.6</ele><time>2022-10-30T12:39:53.0000000+00:00</time></trkpt><trkpt lat="39.47047466" lon="-0.37635181"><ele>-48.6</ele><time>2022-10-30T12:39:54.0000000+00:00</time></trkpt><trkpt lat="39.47047424" lon="-0.37635181"><ele>-48.6</ele><time>2022-10-30T12:39:55.0000000+00:00</time></trkpt><trkpt lat="39.47047298" lon="-0.37635181"><ele>-48.6</ele><time>2022-10-30T12:39:56.0000000+00:00</time></trkpt><trkpt lat="39.4704729" lon="-0.37635215"><ele>-48.6</ele><time>2022-10-30T12:39:57.0000000+00:00</time></trkpt><trkpt lat="39.47047214" lon="-0.37635231"><ele>-48.6</ele><time>2022-10-30T12:39:58.0000000+00:00</time></trkpt><trkpt lat="39.47047206" lon="-0.37635307"><ele>-48.6</ele><time>2022-10-30T12:39:59.0000000+00:00</time></trkpt><trkpt lat="39.47047197" lon="-0.3763534"><ele>-48.6</ele><time>2022-10-30T12:40:00.0000000+00:00</time></trkpt><trkpt lat="39.47047172" lon="-0.37635349"><ele>-48.6</ele><time>2022-10-30T12:40:01.0000000+00:00</time></trkpt><trkpt lat="39.47047155" lon="-0.37635391"><ele>-48.6</ele><time>2022-10-30T12:40:02.0000000+00:00</time></trkpt><trkpt lat="39.4704713" lon="-0.37635424"><ele>-48.6</ele><time>2022-10-30T12:40:03.0000000+00:00</time></trkpt><trkpt lat="39.47047113" lon="-0.37635441"><ele>-48.6</ele><time>2022-10-30T12:40:04.0000000+00:00</time></trkpt><trkpt lat="39.47047088" lon="-0.37635483"><ele>-48.6</ele><time>2022-10-30T12:40:05.0000000+00:00</time></trkpt><trkpt lat="39.47047046" lon="-0.376355"><ele>-48.6</ele><time>2022-10-30T12:40:06.0000000+00:00</time></trkpt><trkpt lat="39.47047021" lon="-0.376355"><ele>-48.6</ele><time>2022-10-30T12:40:07.0000000+00:00</time></trkpt><trkpt lat="39.47046979" lon="-0.376355"><ele>-48.6</ele><time>2022-10-30T12:40:08.0000000+00:00</time></trkpt><trkpt lat="39.47046946" lon="-0.376355"><ele>-48.6</ele><time>2022-10-30T12:40:09.0000000+00:00</time></trkpt><trkpt lat="39.47046887" lon="-0.376355"><ele>-48.6</ele><time>2022-10-30T12:40:10.0000000+00:00</time></trkpt><trkpt lat="39.47046845" lon="-0.376355"><ele>-48.6</ele><time>2022-10-30T12:40:11.0000000+00:00</time></trkpt><trkpt lat="39.47046812" lon="-0.376355"><ele>-48.6</ele><time>2022-10-30T12:40:12.0000000+00:00</time></trkpt><trkpt lat="39.47046795" lon="-0.37635558"><ele>-48.4</ele><time>2022-10-30T12:40:13.0000000+00:00</time></trkpt><trkpt lat="39.47046795" lon="-0.37635567"><ele>-48.4</ele><time>2022-10-30T12:40:14.0000000+00:00</time></trkpt><trkpt lat="39.47046795" lon="-0.37635567"><ele>-48.4</ele><time>2022-10-30T12:40:15.0000000+00:00</time></trkpt><trkpt lat="39.47046795" lon="-0.37635567"><ele>-48.4</ele><time>2022-10-30T12:40:16.0000000+00:00</time></trkpt><trkpt lat="39.47046795" lon="-0.37635567"><ele>-48.4</ele><time>2022-10-30T12:40:17.0000000+00:00</time></trkpt><trkpt lat="39.47046795" lon="-0.37635567"><ele>-48.4</ele><time>2022-10-30T12:40:18.0000000+00:00</time></trkpt><trkpt lat="39.47046795" lon="-0.37635567"><ele>-48.4</ele><time>2022-10-30T12:40:19.0000000+00:00</time></trkpt><trkpt lat="39.47046795" lon="-0.37635567"><ele>-48.4</ele><time>2022-10-30T12:40:20.0000000+00:00</time></trkpt><trkpt lat="39.47046787" lon="-0.37635567"><ele>-48.4</ele><time>2022-10-30T12:40:21.0000000+00:00</time></trkpt><trkpt lat="39.47046787" lon="-0.37635567"><ele>-48.4</ele><time>2022-10-30T12:40:22.0000000+00:00</time></trkpt><trkpt lat="39.47046787" lon="-0.37635567"><ele>-48.4</ele><time>2022-10-30T12:40:23.0000000+00:00</time></trkpt><trkpt lat="39.47046787" lon="-0.37635567"><ele>-48.6</ele><time>2022-10-30T12:40:24.0000000+00:00</time></trkpt><trkpt lat="39.47046787" lon="-0.37635567"><ele>-48.6</ele><time>2022-10-30T12:40:25.0000000+00:00</time></trkpt><trkpt lat="39.47046778" lon="-0.37635567"><ele>-48.6</ele><time>2022-10-30T12:40:26.0000000+00:00</time></trkpt><trkpt lat="39.47046778" lon="-0.37635567"><ele>-48.6</ele><time>2022-10-30T12:40:27.0000000+00:00</time></trkpt><trkpt lat="39.4704677" lon="-0.3763555"><ele>-48.6</ele><time>2022-10-30T12:40:28.0000000+00:00</time></trkpt><trkpt lat="39.47046761" lon="-0.3763555"><ele>-48.6</ele><time>2022-10-30T12:40:29.0000000+00:00</time></trkpt><trkpt lat="39.47046761" lon="-0.3763555"><ele>-48.6</ele><time>2022-10-30T12:40:30.0000000+00:00</time></trkpt><trkpt lat="39.47046761" lon="-0.3763555"><ele>-48.6</ele><time>2022-10-30T12:40:31.0000000+00:00</time></trkpt><trkpt lat="39.47046736" lon="-0.3763555"><ele>-48.6</ele><time>2022-10-30T12:40:32.0000000+00:00</time></trkpt><trkpt lat="39.4704672" lon="-0.3763555"><ele>-48.6</ele><time>2022-10-30T12:40:33.0000000+00:00</time></trkpt><trkpt lat="39.47046703" lon="-0.3763555"><ele>-48.6</ele><time>2022-10-30T12:40:34.0000000+00:00</time></trkpt><trkpt lat="39.47046678" lon="-0.3763555"><ele>-48.6</ele><time>2022-10-30T12:40:35.0000000+00:00</time></trkpt><trkpt lat="39.47046669" lon="-0.3763555"><ele>-48.6</ele><time>2022-10-30T12:40:36.0000000+00:00</time></trkpt><trkpt lat="39.47046661" lon="-0.3763555"><ele>-48.6</ele><time>2022-10-30T12:40:37.0000000+00:00</time></trkpt><trkpt lat="39.47046652" lon="-0.3763555"><ele>-48.6</ele><time>2022-10-30T12:40:38.0000000+00:00</time></trkpt><trkpt lat="39.47046644" lon="-0.3763555"><ele>-48.6</ele><time>2022-10-30T12:40:39.0000000+00:00</time></trkpt><trkpt lat="39.47046627" lon="-0.3763555"><ele>-48.6</ele><time>2022-10-30T12:40:40.0000000+00:00</time></trkpt><trkpt lat="39.47046619" lon="-0.3763555"><ele>-48.6</ele><time>2022-10-30T12:40:41.0000000+00:00</time></trkpt><trkpt lat="39.47046611" lon="-0.3763555"><ele>-48.6</ele><time>2022-10-30T12:40:42.0000000+00:00</time></trkpt><trkpt lat="39.47046602" lon="-0.37635583"><ele>-48.6</ele><time>2022-10-30T12:40:43.0000000+00:00</time></trkpt><trkpt lat="39.47046594" lon="-0.37635676"><ele>-48.6</ele><time>2022-10-30T12:40:44.0000000+00:00</time></trkpt><trkpt lat="39.47046585" lon="-0.37635709"><ele>-48.6</ele><time>2022-10-30T12:40:45.0000000+00:00</time></trkpt><trkpt lat="39.47046569" lon="-0.37635718"><ele>-48.6</ele><time>2022-10-30T12:40:46.0000000+00:00</time></trkpt><trkpt lat="39.47046569" lon="-0.37635718"><ele>-48.6</ele><time>2022-10-30T12:40:47.0000000+00:00</time></trkpt><trkpt lat="39.47046552" lon="-0.37635743"><ele>-48.6</ele><time>2022-10-30T12:40:48.0000000+00:00</time></trkpt><trkpt lat="39.47046544" lon="-0.3763576"><ele>-48.6</ele><time>2022-10-30T12:40:49.0000000+00:00</time></trkpt><trkpt lat="39.47046527" lon="-0.37635785"><ele>-48.6</ele><time>2022-10-30T12:40:50.0000000+00:00</time></trkpt><trkpt lat="39.47046518" lon="-0.37635818"><ele>-48.6</ele><time>2022-10-30T12:40:51.0000000+00:00</time></trkpt><trkpt lat="39.47046435" lon="-0.37635827"><ele>-48.6</ele><time>2022-10-30T12:40:52.0000000+00:00</time></trkpt><trkpt lat="39.47046376" lon="-0.37635835"><ele>-48.6</ele><time>2022-10-30T12:40:53.0000000+00:00</time></trkpt><trkpt lat="39.47046351" lon="-0.37635835"><ele>-48.6</ele><time>2022-10-30T12:40:54.0000000+00:00</time></trkpt><trkpt lat="39.47046326" lon="-0.37635835"><ele>-48.6</ele><time>2022-10-30T12:40:55.0000000+00:00</time></trkpt><trkpt lat="39.47046275" lon="-0.37635835"><ele>-48.6</ele><time>2022-10-30T12:40:56.0000000+00:00</time></trkpt><trkpt lat="39.47046217" lon="-0.37635835"><ele>-48.6</ele><time>2022-10-30T12:40:57.0000000+00:00</time></trkpt><trkpt lat="39.47046166" lon="-0.37635835"><ele>-48.6</ele><time>2022-10-30T12:40:58.0000000+00:00</time></trkpt><trkpt lat="39.47046074" lon="-0.37635835"><ele>-48.6</ele><time>2022-10-30T12:40:59.0000000+00:00</time></trkpt><trkpt lat="39.47045932" lon="-0.3763581"><ele>-48.6</ele><time>2022-10-30T12:41:00.0000000+00:00</time></trkpt><trkpt lat="39.47045856" lon="-0.37635785"><ele>-48.6</ele><time>2022-10-30T12:41:01.0000000+00:00</time></trkpt><trkpt lat="39.47045823" lon="-0.3763576"><ele>-48.6</ele><time>2022-10-30T12:41:02.0000000+00:00</time></trkpt><trkpt lat="39.47045781" lon="-0.37635734"><ele>-48.6</ele><time>2022-10-30T12:41:03.0000000+00:00</time></trkpt><trkpt lat="39.47045756" lon="-0.37635726"><ele>-48.6</ele><time>2022-10-30T12:41:04.0000000+00:00</time></trkpt><trkpt lat="39.47045705" lon="-0.37635726"><ele>-48.6</ele><time>2022-10-30T12:41:05.0000000+00:00</time></trkpt><trkpt lat="39.47045672" lon="-0.37635726"><ele>-48.6</ele><time>2022-10-30T12:41:06.0000000+00:00</time></trkpt><trkpt lat="39.47045638" lon="-0.37635726"><ele>-48.6</ele><time>2022-10-30T12:41:07.0000000+00:00</time></trkpt><trkpt lat="39.47045328" lon="-0.37636162"><ele>-48.6</ele><time>2022-10-30T12:41:08.0000000+00:00</time></trkpt><trkpt lat="39.47044054" lon="-0.3763757"><ele>-48.6</ele><time>2022-10-30T12:41:09.0000000+00:00</time></trkpt><trkpt lat="39.47042612" lon="-0.37638542"><ele>-48.6</ele><time>2022-10-30T12:41:10.0000000+00:00</time></trkpt><trkpt lat="39.47041263" lon="-0.37639414"><ele>-48.6</ele><time>2022-10-30T12:41:11.0000000+00:00</time></trkpt><trkpt lat="39.47039637" lon="-0.3764037"><ele>-48.6</ele><time>2022-10-30T12:41:12.0000000+00:00</time></trkpt><trkpt lat="39.47038388" lon="-0.37641753"><ele>-48.6</ele><time>2022-10-30T12:41:13.0000000+00:00</time></trkpt><trkpt lat="39.47037122" lon="-0.37642918"><ele>-48.6</ele><time>2022-10-30T12:41:14.0000000+00:00</time></trkpt><trkpt lat="39.47035798" lon="-0.37644066"><ele>-48.6</ele><time>2022-10-30T12:41:15.0000000+00:00</time></trkpt><trkpt lat="39.47034474" lon="-0.37645365"><ele>-48.6</ele><time>2022-10-30T12:41:16.0000000+00:00</time></trkpt><trkpt lat="39.47033007" lon="-0.3764648"><ele>-48.6</ele><time>2022-10-30T12:41:17.0000000+00:00</time></trkpt><trkpt lat="39.47031967" lon="-0.37646924"><ele>-48.6</ele><time>2022-10-30T12:41:18.0000000+00:00</time></trkpt><trkpt lat="39.47031389" lon="-0.37647679"><ele>-48.6</ele><time>2022-10-30T12:41:19.0000000+00:00</time></trkpt><trkpt lat="39.47030542" lon="-0.3764757"><ele>-48.6</ele><time>2022-10-30T12:41:20.0000000+00:00</time></trkpt><trkpt lat="39.47029537" lon="-0.37647486"><ele>-48.6</ele><time>2022-10-30T12:41:21.0000000+00:00</time></trkpt><trkpt lat="39.47028422" lon="-0.37647922"><ele>-48.6</ele><time>2022-10-30T12:41:22.0000000+00:00</time></trkpt><trkpt lat="39.47027693" lon="-0.37648927"><ele>-48.6</ele><time>2022-10-30T12:41:23.0000000+00:00</time></trkpt><trkpt lat="39.47026813" lon="-0.37650998"><ele>-48.4</ele><time>2022-10-30T12:41:24.0000000+00:00</time></trkpt><trkpt lat="39.47026226" lon="-0.37652129"><ele>-48.4</ele><time>2022-10-30T12:41:25.0000000+00:00</time></trkpt><trkpt lat="39.47025153" lon="-0.37653781"><ele>-48.4</ele><time>2022-10-30T12:41:26.0000000+00:00</time></trkpt><trkpt lat="39.47024331" lon="-0.37655591"><ele>-48.4</ele><time>2022-10-30T12:41:27.0000000+00:00</time></trkpt><trkpt lat="39.47023108" lon="-0.37656949"><ele>-48.2</ele><time>2022-10-30T12:41:28.0000000+00:00</time></trkpt><trkpt lat="39.47022353" lon="-0.37657988"><ele>-48.2</ele><time>2022-10-30T12:41:29.0000000+00:00</time></trkpt><trkpt lat="39.47021909" lon="-0.37659422"><ele>-48.2</ele><time>2022-10-30T12:41:30.0000000+00:00</time></trkpt><trkpt lat="39.47021591" lon="-0.3765979"><ele>-48.2</ele><time>2022-10-30T12:41:31.0000000+00:00</time></trkpt><trkpt lat="39.47021088" lon="-0.37659749"><ele>-48.2</ele><time>2022-10-30T12:41:32.0000000+00:00</time></trkpt><trkpt lat="39.47020534" lon="-0.37659908"><ele>-48.2</ele><time>2022-10-30T12:41:33.0000000+00:00</time></trkpt><trkpt lat="39.47019839" lon="-0.37659992"><ele>-48.2</ele><time>2022-10-30T12:41:34.0000000+00:00</time></trkpt><trkpt lat="39.47019227" lon="-0.37660025"><ele>-48.2</ele><time>2022-10-30T12:41:35.0000000+00:00</time></trkpt><trkpt lat="39.47018431" lon="-0.3766036"><ele>-48.2</ele><time>2022-10-30T12:41:36.0000000+00:00</time></trkpt><trkpt lat="39.47017542" lon="-0.37660905"><ele>-48.2</ele><time>2022-10-30T12:41:37.0000000+00:00</time></trkpt><trkpt lat="39.47017073" lon="-0.37661165"><ele>-48.2</ele><time>2022-10-30T12:41:38.0000000+00:00</time></trkpt><trkpt lat="39.47016134" lon="-0.37661425"><ele>-48.2</ele><time>2022-10-30T12:41:39.0000000+00:00</time></trkpt><trkpt lat="39.47015388" lon="-0.37661861"><ele>-48.2</ele><time>2022-10-30T12:41:40.0000000+00:00</time></trkpt><trkpt lat="39.47014726" lon="-0.37661777"><ele>-48.2</ele><time>2022-10-30T12:41:41.0000000+00:00</time></trkpt><trkpt lat="39.47014089" lon="-0.37661542"><ele>-48.2</ele><time>2022-10-30T12:41:42.0000000+00:00</time></trkpt><trkpt lat="39.47013519" lon="-0.37661442"><ele>-48.2</ele><time>2022-10-30T12:41:43.0000000+00:00</time></trkpt><trkpt lat="39.47012991" lon="-0.37661157"><ele>-48.2</ele><time>2022-10-30T12:41:44.0000000+00:00</time></trkpt><trkpt lat="39.47012723" lon="-0.37660453"><ele>-48.4</ele><time>2022-10-30T12:41:45.0000000+00:00</time></trkpt><trkpt lat="39.4701289" lon="-0.37659799"><ele>-48.4</ele><time>2022-10-30T12:41:46.0000000+00:00</time></trkpt><trkpt lat="39.47013217" lon="-0.37659028"><ele>-48.4</ele><time>2022-10-30T12:41:47.0000000+00:00</time></trkpt><trkpt lat="39.47013443" lon="-0.37658106"><ele>-48.4</ele><time>2022-10-30T12:41:48.0000000+00:00</time></trkpt><trkpt lat="39.47014106" lon="-0.37659111"><ele>-48.4</ele><time>2022-10-30T12:41:49.0000000+00:00</time></trkpt><trkpt lat="39.47014106" lon="-0.37659061"><ele>-48.4</ele><time>2022-10-30T12:41:50.0000000+00:00</time></trkpt><trkpt lat="39.47013946" lon="-0.37658114"><ele>-48.4</ele><time>2022-10-30T12:41:51.0000000+00:00</time></trkpt><trkpt lat="39.47013888" lon="-0.37657293"><ele>-48.4</ele><time>2022-10-30T12:41:52.0000000+00:00</time></trkpt><trkpt lat="39.47013502" lon="-0.37656798"><ele>-48.4</ele><time>2022-10-30T12:41:53.0000000+00:00</time></trkpt><trkpt lat="39.4701315" lon="-0.3765513"><ele>-48.4</ele><time>2022-10-30T12:41:54.0000000+00:00</time></trkpt><trkpt lat="39.47012873" lon="-0.37653328"><ele>-48.4</ele><time>2022-10-30T12:41:55.0000000+00:00</time></trkpt><trkpt lat="39.47012111" lon="-0.3765187"><ele>-48.4</ele><time>2022-10-30T12:41:56.0000000+00:00</time></trkpt><trkpt lat="39.47011164" lon="-0.37651149"><ele>-48.2</ele><time>2022-10-30T12:41:57.0000000+00:00</time></trkpt><trkpt lat="39.47010459" lon="-0.37649975"><ele>-48.2</ele><time>2022-10-30T12:41:58.0000000+00:00</time></trkpt><trkpt lat="39.47009722" lon="-0.37648768"><ele>-48.2</ele><time>2022-10-30T12:41:59.0000000+00:00</time></trkpt><trkpt lat="39.47009169" lon="-0.37647863"><ele>-48.2</ele><time>2022-10-30T12:42:00.0000000+00:00</time></trkpt><trkpt lat="39.47008481" lon="-0.37646782"><ele>-48.2</ele><time>2022-10-30T12:42:01.0000000+00:00</time></trkpt><trkpt lat="39.4700761" lon="-0.37646312"><ele>-48.0</ele><time>2022-10-30T12:42:02.0000000+00:00</time></trkpt><trkpt lat="39.47006444" lon="-0.37646187"><ele>-48.2</ele><time>2022-10-30T12:42:03.0000000+00:00</time></trkpt><trkpt lat="39.47005732" lon="-0.37645374"><ele>-48.2</ele><time>2022-10-30T12:42:04.0000000+00:00</time></trkpt><trkpt lat="39.47005187" lon="-0.37644577"><ele>-48.2</ele><time>2022-10-30T12:42:05.0000000+00:00</time></trkpt><trkpt lat="39.47004659" lon="-0.37643462"><ele>-48.2</ele><time>2022-10-30T12:42:06.0000000+00:00</time></trkpt><trkpt lat="39.47004047" lon="-0.37642381"><ele>-48.2</ele><time>2022-10-30T12:42:07.0000000+00:00</time></trkpt><trkpt lat="39.47003586" lon="-0.37641317"><ele>-48.4</ele><time>2022-10-30T12:42:08.0000000+00:00</time></trkpt><trkpt lat="39.47003201" lon="-0.37640143"><ele>-48.4</ele><time>2022-10-30T12:42:09.0000000+00:00</time></trkpt><trkpt lat="39.470031" lon="-0.3763871"><ele>-48.4</ele><time>2022-10-30T12:42:10.0000000+00:00</time></trkpt><trkpt lat="39.47002941" lon="-0.37637369"><ele>-48.6</ele><time>2022-10-30T12:42:11.0000000+00:00</time></trkpt><trkpt lat="39.47002488" lon="-0.37636162"><ele>-48.6</ele><time>2022-10-30T12:42:12.0000000+00:00</time></trkpt><trkpt lat="39.47002044" lon="-0.37635366"><ele>-48.6</ele><time>2022-10-30T12:42:13.0000000+00:00</time></trkpt><trkpt lat="39.47001566" lon="-0.37634092"><ele>-48.6</ele><time>2022-10-30T12:42:14.0000000+00:00</time></trkpt><trkpt lat="39.47001088" lon="-0.37632901"><ele>-48.6</ele><time>2022-10-30T12:42:15.0000000+00:00</time></trkpt><trkpt lat="39.47000552" lon="-0.37631703"><ele>-48.6</ele><time>2022-10-30T12:42:16.0000000+00:00</time></trkpt><trkpt lat="39.46999831" lon="-0.37630638"><ele>-48.6</ele><time>2022-10-30T12:42:17.0000000+00:00</time></trkpt><trkpt lat="39.46999295" lon="-0.37629507"><ele>-48.6</ele><time>2022-10-30T12:42:18.0000000+00:00</time></trkpt><trkpt lat="39.46998959" lon="-0.3762887"><ele>-48.6</ele><time>2022-10-30T12:42:19.0000000+00:00</time></trkpt><trkpt lat="39.4699849" lon="-0.37627839"><ele>-48.6</ele><time>2022-10-30T12:42:20.0000000+00:00</time></trkpt><trkpt lat="39.46998398" lon="-0.37627277"><ele>-48.8</ele><time>2022-10-30T12:42:21.0000000+00:00</time></trkpt><trkpt lat="39.46998498" lon="-0.37626129"><ele>-48.8</ele><time>2022-10-30T12:42:22.0000000+00:00</time></trkpt><trkpt lat="39.46998163" lon="-0.37625575"><ele>-48.8</ele><time>2022-10-30T12:42:23.0000000+00:00</time></trkpt><trkpt lat="39.46997752" lon="-0.37624905"><ele>-48.8</ele><time>2022-10-30T12:42:24.0000000+00:00</time></trkpt><trkpt lat="39.46997409" lon="-0.37624545"><ele>-48.8</ele><time>2022-10-30T12:42:25.0000000+00:00</time></trkpt><trkpt lat="39.46997124" lon="-0.37623983"><ele>-48.8</ele><time>2022-10-30T12:42:26.0000000+00:00</time></trkpt><trkpt lat="39.46997216" lon="-0.37623715"><ele>-48.8</ele><time>2022-10-30T12:42:27.0000000+00:00</time></trkpt><trkpt lat="39.46996881" lon="-0.37622927"><ele>-48.8</ele><time>2022-10-30T12:42:28.0000000+00:00</time></trkpt><trkpt lat="39.46996822" lon="-0.37621753"><ele>-48.8</ele><time>2022-10-30T12:42:29.0000000+00:00</time></trkpt><trkpt lat="39.46996864" lon="-0.3762089"><ele>-48.8</ele><time>2022-10-30T12:42:30.0000000+00:00</time></trkpt><trkpt lat="39.46996847" lon="-0.37619541"><ele>-49.0</ele><time>2022-10-30T12:42:31.0000000+00:00</time></trkpt><trkpt lat="39.46996889" lon="-0.37618568"><ele>-49.0</ele><time>2022-10-30T12:42:32.0000000+00:00</time></trkpt><trkpt lat="39.46996814" lon="-0.37616858"><ele>-49.0</ele><time>2022-10-30T12:42:33.0000000+00:00</time></trkpt><trkpt lat="39.46996453" lon="-0.37615249"><ele>-49.0</ele><time>2022-10-30T12:42:34.0000000+00:00</time></trkpt><trkpt lat="39.46996269" lon="-0.37613891"><ele>-49.0</ele><time>2022-10-30T12:42:35.0000000+00:00</time></trkpt><trkpt lat="39.46996026" lon="-0.37612542"><ele>-49.0</ele><time>2022-10-30T12:42:36.0000000+00:00</time></trkpt><trkpt lat="39.46995665" lon="-0.37611016"><ele>-49.0</ele><time>2022-10-30T12:42:37.0000000+00:00</time></trkpt><trkpt lat="39.46994601" lon="-0.37608393"><ele>-49.0</ele><time>2022-10-30T12:42:38.0000000+00:00</time></trkpt><trkpt lat="39.46993427" lon="-0.3760675"><ele>-49.2</ele><time>2022-10-30T12:42:39.0000000+00:00</time></trkpt><trkpt lat="39.46992396" lon="-0.37605199"><ele>-49.2</ele><time>2022-10-30T12:42:40.0000000+00:00</time></trkpt><trkpt lat="39.46991734" lon="-0.37604218"><ele>-49.2</ele><time>2022-10-30T12:42:41.0000000+00:00</time></trkpt><trkpt lat="39.46990477" lon="-0.37602441"><ele>-49.2</ele><time>2022-10-30T12:42:42.0000000+00:00</time></trkpt><trkpt lat="39.46989765" lon="-0.37601067"><ele>-49.2</ele><time>2022-10-30T12:42:43.0000000+00:00</time></trkpt><trkpt lat="39.46988759" lon="-0.37599768"><ele>-49.2</ele><time>2022-10-30T12:42:44.0000000+00:00</time></trkpt><trkpt lat="39.46988155" lon="-0.37598829"><ele>-49.2</ele><time>2022-10-30T12:42:45.0000000+00:00</time></trkpt><trkpt lat="39.46987267" lon="-0.37598586"><ele>-49.2</ele><time>2022-10-30T12:42:46.0000000+00:00</time></trkpt><trkpt lat="39.46986663" lon="-0.37597722"><ele>-49.2</ele><time>2022-10-30T12:42:47.0000000+00:00</time></trkpt><trkpt lat="39.46986152" lon="-0.37596859"><ele>-49.0</ele><time>2022-10-30T12:42:48.0000000+00:00</time></trkpt><trkpt lat="39.46985423" lon="-0.37596071"><ele>-49.0</ele><time>2022-10-30T12:42:49.0000000+00:00</time></trkpt><trkpt lat="39.46984056" lon="-0.37596163"><ele>-49.0</ele><time>2022-10-30T12:42:50.0000000+00:00</time></trkpt><trkpt lat="39.4698264" lon="-0.37596541"><ele>-49.0</ele><time>2022-10-30T12:42:51.0000000+00:00</time></trkpt><trkpt lat="39.46980829" lon="-0.37596557"><ele>-49.0</ele><time>2022-10-30T12:42:52.0000000+00:00</time></trkpt><trkpt lat="39.46979589" lon="-0.3759592"><ele>-49.2</ele><time>2022-10-30T12:42:53.0000000+00:00</time></trkpt><trkpt lat="39.46978918" lon="-0.37595292"><ele>-49.2</ele><time>2022-10-30T12:42:54.0000000+00:00</time></trkpt><trkpt lat="39.46978726" lon="-0.37594806"><ele>-49.2</ele><time>2022-10-30T12:42:55.0000000+00:00</time></trkpt><trkpt lat="39.46978642" lon="-0.375939"><ele>-49.2</ele><time>2022-10-30T12:42:56.0000000+00:00</time></trkpt><trkpt lat="39.469787" lon="-0.37592945"><ele>-49.2</ele><time>2022-10-30T12:42:57.0000000+00:00</time></trkpt><trkpt lat="39.46978382" lon="-0.37592123"><ele>-49.2</ele><time>2022-10-30T12:42:58.0000000+00:00</time></trkpt><trkpt lat="39.46978156" lon="-0.37591059"><ele>-49.2</ele><time>2022-10-30T12:42:59.0000000+00:00</time></trkpt><trkpt lat="39.46978164" lon="-0.37589458"><ele>-49.2</ele><time>2022-10-30T12:43:00.0000000+00:00</time></trkpt><trkpt lat="39.46978021" lon="-0.37588838"><ele>-49.2</ele><time>2022-10-30T12:43:01.0000000+00:00</time></trkpt><trkpt lat="39.46978139" lon="-0.37588033"><ele>-49.2</ele><time>2022-10-30T12:43:02.0000000+00:00</time></trkpt><trkpt lat="39.46978399" lon="-0.37587455"><ele>-49.2</ele><time>2022-10-30T12:43:03.0000000+00:00</time></trkpt><trkpt lat="39.4697839" lon="-0.37587077"><ele>-49.4</ele><time>2022-10-30T12:43:04.0000000+00:00</time></trkpt><trkpt lat="39.46978432" lon="-0.37587027"><ele>-49.4</ele><time>2022-10-30T12:43:05.0000000+00:00</time></trkpt><trkpt lat="39.46978591" lon="-0.37588066"><ele>-49.4</ele><time>2022-10-30T12:43:06.0000000+00:00</time></trkpt><trkpt lat="39.46978801" lon="-0.3758903"><ele>-49.4</ele><time>2022-10-30T12:43:07.0000000+00:00</time></trkpt><trkpt lat="39.4697943" lon="-0.37589575"><ele>-49.4</ele><time>2022-10-30T12:43:08.0000000+00:00</time></trkpt><trkpt lat="39.46980477" lon="-0.37590522"><ele>-49.4</ele><time>2022-10-30T12:43:09.0000000+00:00</time></trkpt><trkpt lat="39.46981609" lon="-0.37590472"><ele>-49.4</ele><time>2022-10-30T12:43:10.0000000+00:00</time></trkpt><trkpt lat="39.46982573" lon="-0.37589994"><ele>-49.4</ele><time>2022-10-30T12:43:11.0000000+00:00</time></trkpt><trkpt lat="39.46983419" lon="-0.37589952"><ele>-49.4</ele><time>2022-10-30T12:43:12.0000000+00:00</time></trkpt><trkpt lat="39.46983989" lon="-0.37589709"><ele>-49.4</ele><time>2022-10-30T12:43:13.0000000+00:00</time></trkpt><trkpt lat="39.46984584" lon="-0.37589123"><ele>-49.6</ele><time>2022-10-30T12:43:14.0000000+00:00</time></trkpt><trkpt lat="39.4698554" lon="-0.37588301"><ele>-49.6</ele><time>2022-10-30T12:43:15.0000000+00:00</time></trkpt><trkpt lat="39.46985976" lon="-0.37588201"><ele>-49.6</ele><time>2022-10-30T12:43:16.0000000+00:00</time></trkpt><trkpt lat="39.4698704" lon="-0.37588863"><ele>-49.4</ele><time>2022-10-30T12:43:17.0000000+00:00</time></trkpt><trkpt lat="39.46987912" lon="-0.37590346"><ele>-49.4</ele><time>2022-10-30T12:43:18.0000000+00:00</time></trkpt><trkpt lat="39.46988943" lon="-0.37590883"><ele>-49.4</ele><time>2022-10-30T12:43:19.0000000+00:00</time></trkpt><trkpt lat="39.46989848" lon="-0.3759152"><ele>-49.4</ele><time>2022-10-30T12:43:20.0000000+00:00</time></trkpt><trkpt lat="39.46990737" lon="-0.37591721"><ele>-49.4</ele><time>2022-10-30T12:43:21.0000000+00:00</time></trkpt><trkpt lat="39.4699191" lon="-0.37592459"><ele>-49.4</ele><time>2022-10-30T12:43:22.0000000+00:00</time></trkpt><trkpt lat="39.46992564" lon="-0.37594588"><ele>-49.4</ele><time>2022-10-30T12:43:23.0000000+00:00</time></trkpt><trkpt lat="39.46993645" lon="-0.37594965"><ele>-49.6</ele><time>2022-10-30T12:43:24.0000000+00:00</time></trkpt><trkpt lat="39.46994945" lon="-0.37595107"><ele>-49.6</ele><time>2022-10-30T12:43:25.0000000+00:00</time></trkpt><trkpt lat="39.46996017" lon="-0.3759525"><ele>-49.6</ele><time>2022-10-30T12:43:26.0000000+00:00</time></trkpt><trkpt lat="39.469973" lon="-0.37595065"><ele>-49.6</ele><time>2022-10-30T12:43:27.0000000+00:00</time></trkpt><trkpt lat="39.46998532" lon="-0.37595619"><ele>-49.6</ele><time>2022-10-30T12:43:28.0000000+00:00</time></trkpt><trkpt lat="39.47000653" lon="-0.3759675"><ele>-49.6</ele><time>2022-10-30T12:43:29.0000000+00:00</time></trkpt><trkpt lat="39.47002597" lon="-0.37598519"><ele>-49.6</ele><time>2022-10-30T12:43:30.0000000+00:00</time></trkpt><trkpt lat="39.47004207" lon="-0.37599801"><ele>-49.6</ele><time>2022-10-30T12:43:31.0000000+00:00</time></trkpt><trkpt lat="39.4700507" lon="-0.37600748"><ele>-49.6</ele><time>2022-10-30T12:43:32.0000000+00:00</time></trkpt><trkpt lat="39.47006377" lon="-0.37601461"><ele>-49.6</ele><time>2022-10-30T12:43:33.0000000+00:00</time></trkpt><trkpt lat="39.47007702" lon="-0.37602299"><ele>-49.6</ele><time>2022-10-30T12:43:34.0000000+00:00</time></trkpt><trkpt lat="39.47008666" lon="-0.37602852"><ele>-49.6</ele><time>2022-10-30T12:43:35.0000000+00:00</time></trkpt><trkpt lat="39.47009319" lon="-0.3760255"><ele>-49.6</ele><time>2022-10-30T12:43:36.0000000+00:00</time></trkpt><trkpt lat="39.47009957" lon="-0.37602651"><ele>-49.6</ele><time>2022-10-30T12:43:37.0000000+00:00</time></trkpt><trkpt lat="39.47010761" lon="-0.37602299"><ele>-49.6</ele><time>2022-10-30T12:43:38.0000000+00:00</time></trkpt><trkpt lat="39.47012027" lon="-0.37602224"><ele>-49.8</ele><time>2022-10-30T12:43:39.0000000+00:00</time></trkpt><trkpt lat="39.47013519" lon="-0.37602249"><ele>-49.8</ele><time>2022-10-30T12:43:40.0000000+00:00</time></trkpt><trkpt lat="39.47015388" lon="-0.37603615"><ele>-49.8</ele><time>2022-10-30T12:43:41.0000000+00:00</time></trkpt><trkpt lat="39.47016737" lon="-0.37604822"><ele>-49.8</ele><time>2022-10-30T12:43:42.0000000+00:00</time></trkpt><trkpt lat="39.47018196" lon="-0.3760514"><ele>-49.8</ele><time>2022-10-30T12:43:43.0000000+00:00</time></trkpt><trkpt lat="39.47019629" lon="-0.37605006"><ele>-49.8</ele><time>2022-10-30T12:43:44.0000000+00:00</time></trkpt><trkpt lat="39.4702123" lon="-0.37603204"><ele>-49.8</ele><time>2022-10-30T12:43:45.0000000+00:00</time></trkpt><trkpt lat="39.47022839" lon="-0.37600765"><ele>-49.8</ele><time>2022-10-30T12:43:46.0000000+00:00</time></trkpt><trkpt lat="39.47024021" lon="-0.37598854"><ele>-49.6</ele><time>2022-10-30T12:43:47.0000000+00:00</time></trkpt><trkpt lat="39.47025471" lon="-0.37597479"><ele>-49.6</ele><time>2022-10-30T12:43:48.0000000+00:00</time></trkpt><trkpt lat="39.47026226" lon="-0.37596256"><ele>-49.6</ele><time>2022-10-30T12:43:49.0000000+00:00</time></trkpt><trkpt lat="39.47027215" lon="-0.37594839"><ele>-49.6</ele><time>2022-10-30T12:43:50.0000000+00:00</time></trkpt><trkpt lat="39.47027743" lon="-0.37593615"><ele>-49.8</ele><time>2022-10-30T12:43:51.0000000+00:00</time></trkpt><trkpt lat="39.47028112" lon="-0.37592785"><ele>-49.8</ele><time>2022-10-30T12:43:52.0000000+00:00</time></trkpt><trkpt lat="39.47028246" lon="-0.37591922"><ele>-49.8</ele><time>2022-10-30T12:43:53.0000000+00:00</time></trkpt><trkpt lat="39.47028455" lon="-0.37591344"><ele>-49.8</ele><time>2022-10-30T12:43:54.0000000+00:00</time></trkpt><trkpt lat="39.4702895" lon="-0.37590036"><ele>-49.8</ele><time>2022-10-30T12:43:55.0000000+00:00</time></trkpt><trkpt lat="39.47029671" lon="-0.3758872"><ele>-49.8</ele><time>2022-10-30T12:43:56.0000000+00:00</time></trkpt><trkpt lat="39.4703019" lon="-0.37587429"><ele>-49.8</ele><time>2022-10-30T12:43:57.0000000+00:00</time></trkpt><trkpt lat="39.4703066" lon="-0.37585946"><ele>-50.0</ele><time>2022-10-30T12:43:58.0000000+00:00</time></trkpt><trkpt lat="39.47030417" lon="-0.37584513"><ele>-50.0</ele><time>2022-10-30T12:43:59.0000000+00:00</time></trkpt><trkpt lat="39.470304" lon="-0.37581621"><ele>-50.0</ele><time>2022-10-30T12:44:00.0000000+00:00</time></trkpt><trkpt lat="39.47030693" lon="-0.37579995"><ele>-50.0</ele><time>2022-10-30T12:44:01.0000000+00:00</time></trkpt><trkpt lat="39.47030341" lon="-0.37578955"><ele>-50.0</ele><time>2022-10-30T12:44:02.0000000+00:00</time></trkpt><trkpt lat="39.47029738" lon="-0.37577069"><ele>-50.2</ele><time>2022-10-30T12:44:03.0000000+00:00</time></trkpt><trkpt lat="39.47028866" lon="-0.37574899"><ele>-50.2</ele><time>2022-10-30T12:44:04.0000000+00:00</time></trkpt><trkpt lat="39.47027927" lon="-0.37574412"><ele>-50.2</ele><time>2022-10-30T12:44:05.0000000+00:00</time></trkpt><trkpt lat="39.47027835" lon="-0.37575703"><ele>-50.2</ele><time>2022-10-30T12:44:06.0000000+00:00</time></trkpt><trkpt lat="39.47034717" lon="-0.37572652"><ele>-46.2</ele><time>2022-10-30T13:36:13.0000000+00:00</time></trkpt><trkpt lat="39.47017006" lon="-0.37574253"><ele>-46.2</ele><time>2022-10-30T13:36:14.0000000+00:00</time></trkpt><trkpt lat="39.47007551" lon="-0.37571252"><ele>-46.2</ele><time>2022-10-30T13:36:15.0000000+00:00</time></trkpt><trkpt lat="39.47003285" lon="-0.37568637"><ele>-46.2</ele><time>2022-10-30T13:36:16.0000000+00:00</time></trkpt><trkpt lat="39.47014391" lon="-0.37571303"><ele>-46.2</ele><time>2022-10-30T13:36:17.0000000+00:00</time></trkpt><trkpt lat="39.47018674" lon="-0.37573407"><ele>-46.2</ele><time>2022-10-30T13:36:18.0000000+00:00</time></trkpt><trkpt lat="39.4702491" lon="-0.37579693"><ele>-46.2</ele><time>2022-10-30T13:36:19.0000000+00:00</time></trkpt><trkpt lat="39.47026427" lon="-0.37582509"><ele>-46.2</ele><time>2022-10-30T13:36:20.0000000+00:00</time></trkpt><trkpt lat="39.47028078" lon="-0.37584429"><ele>-46.4</ele><time>2022-10-30T13:36:21.0000000+00:00</time></trkpt><trkpt lat="39.47030341" lon="-0.37587714"><ele>-46.4</ele><time>2022-10-30T13:36:22.0000000+00:00</time></trkpt><trkpt lat="39.47031062" lon="-0.37589885"><ele>-46.6</ele><time>2022-10-30T13:36:23.0000000+00:00</time></trkpt><trkpt lat="39.470332" lon="-0.37590539"><ele>-46.6</ele><time>2022-10-30T13:36:24.0000000+00:00</time></trkpt><trkpt lat="39.47033652" lon="-0.37592048"><ele>-46.6</ele><time>2022-10-30T13:36:25.0000000+00:00</time></trkpt><trkpt lat="39.47033711" lon="-0.37592769"><ele>-46.6</ele><time>2022-10-30T13:36:26.0000000+00:00</time></trkpt><trkpt lat="39.47033225" lon="-0.37593121"><ele>-46.6</ele><time>2022-10-30T13:36:27.0000000+00:00</time></trkpt><trkpt lat="39.47032454" lon="-0.37592643"><ele>-46.6</ele><time>2022-10-30T13:36:28.0000000+00:00</time></trkpt><trkpt lat="39.47033275" lon="-0.37592249"><ele>-46.6</ele><time>2022-10-30T13:36:29.0000000+00:00</time></trkpt><trkpt lat="39.47033937" lon="-0.37591537"><ele>-46.6</ele><time>2022-10-30T13:36:30.0000000+00:00</time></trkpt><trkpt lat="39.47034515" lon="-0.37590598"><ele>-46.6</ele><time>2022-10-30T13:36:31.0000000+00:00</time></trkpt><trkpt lat="39.47034348" lon="-0.37588611"><ele>-46.6</ele><time>2022-10-30T13:36:32.0000000+00:00</time></trkpt><trkpt lat="39.47035035" lon="-0.37587413"><ele>-46.6</ele><time>2022-10-30T13:36:33.0000000+00:00</time></trkpt><trkpt lat="39.47035111" lon="-0.37587388"><ele>-46.6</ele><time>2022-10-30T13:36:34.0000000+00:00</time></trkpt><trkpt lat="39.47034264" lon="-0.37588142"><ele>-46.6</ele><time>2022-10-30T13:36:35.0000000+00:00</time></trkpt><trkpt lat="39.47034029" lon="-0.37589391"><ele>-46.6</ele><time>2022-10-30T13:36:36.0000000+00:00</time></trkpt><trkpt lat="39.47034071" lon="-0.37589751"><ele>-46.6</ele><time>2022-10-30T13:36:37.0000000+00:00</time></trkpt><trkpt lat="39.47034038" lon="-0.37590028"><ele>-46.6</ele><time>2022-10-30T13:36:38.0000000+00:00</time></trkpt><trkpt lat="39.4703377" lon="-0.37589978"><ele>-46.6</ele><time>2022-10-30T13:36:39.0000000+00:00</time></trkpt><trkpt lat="39.47033711" lon="-0.37590237"><ele>-46.6</ele><time>2022-10-30T13:36:40.0000000+00:00</time></trkpt><trkpt lat="39.47033702" lon="-0.37590631"><ele>-46.6</ele><time>2022-10-30T13:36:41.0000000+00:00</time></trkpt><trkpt lat="39.47033744" lon="-0.37591335"><ele>-46.6</ele><time>2022-10-30T13:36:42.0000000+00:00</time></trkpt><trkpt lat="39.47033744" lon="-0.37591335"><ele>-46.6</ele><time>2022-10-30T13:36:43.0000000+00:00</time></trkpt><trkpt lat="39.47033744" lon="-0.37591335"><ele>-46.6</ele><time>2022-10-30T13:36:44.0000000+00:00</time></trkpt><trkpt lat="39.47033744" lon="-0.37591335"><ele>-46.6</ele><time>2022-10-30T13:36:45.0000000+00:00</time></trkpt><trkpt lat="39.47033744" lon="-0.37591335"><ele>-46.6</ele><time>2022-10-30T13:36:46.0000000+00:00</time></trkpt><trkpt lat="39.47033744" lon="-0.37591335"><ele>-46.6</ele><time>2022-10-30T13:36:47.0000000+00:00</time></trkpt><trkpt lat="39.47033744" lon="-0.37591335"><ele>-46.6</ele><time>2022-10-30T13:36:48.0000000+00:00</time></trkpt><trkpt lat="39.47033744" lon="-0.37591335"><ele>-46.6</ele><time>2022-10-30T13:36:49.0000000+00:00</time></trkpt><trkpt lat="39.47033744" lon="-0.37591335"><ele>-46.6</ele><time>2022-10-30T13:36:50.0000000+00:00</time></trkpt><trkpt lat="39.47033744" lon="-0.37591335"><ele>-46.6</ele><time>2022-10-30T13:36:51.0000000+00:00</time></trkpt><trkpt lat="39.47033744" lon="-0.37591335"><ele>-46.6</ele><time>2022-10-30T13:36:52.0000000+00:00</time></trkpt><trkpt lat="39.47033744" lon="-0.37591335"><ele>-46.6</ele><time>2022-10-30T13:36:53.0000000+00:00</time></trkpt><trkpt lat="39.47033744" lon="-0.37591335"><ele>-46.6</ele><time>2022-10-30T13:36:54.0000000+00:00</time></trkpt><trkpt lat="39.47033744" lon="-0.37591319"><ele>-46.6</ele><time>2022-10-30T13:36:55.0000000+00:00</time></trkpt><trkpt lat="39.47033744" lon="-0.37590941"><ele>-46.6</ele><time>2022-10-30T13:36:56.0000000+00:00</time></trkpt><trkpt lat="39.47033744" lon="-0.3759074"><ele>-46.6</ele><time>2022-10-30T13:36:57.0000000+00:00</time></trkpt><trkpt lat="39.47033744" lon="-0.3759064"><ele>-46.6</ele><time>2022-10-30T13:36:58.0000000+00:00</time></trkpt><trkpt lat="39.47033744" lon="-0.37590531"><ele>-46.6</ele><time>2022-10-30T13:36:59.0000000+00:00</time></trkpt><trkpt lat="39.4703377" lon="-0.37590522"><ele>-46.6</ele><time>2022-10-30T13:37:00.0000000+00:00</time></trkpt><trkpt lat="39.47033828" lon="-0.37590522"><ele>-46.6</ele><time>2022-10-30T13:37:01.0000000+00:00</time></trkpt><trkpt lat="39.47033828" lon="-0.37590522"><ele>-46.6</ele><time>2022-10-30T13:37:02.0000000+00:00</time></trkpt><trkpt lat="39.47033912" lon="-0.37590522"><ele>-46.6</ele><time>2022-10-30T13:37:03.0000000+00:00</time></trkpt><trkpt lat="39.4703392" lon="-0.37590623"><ele>-46.6</ele><time>2022-10-30T13:37:04.0000000+00:00</time></trkpt><trkpt lat="39.4703392" lon="-0.37590715"><ele>-46.4</ele><time>2022-10-30T13:37:05.0000000+00:00</time></trkpt><trkpt lat="39.4703392" lon="-0.37590891"><ele>-46.4</ele><time>2022-10-30T13:37:06.0000000+00:00</time></trkpt><trkpt lat="39.4703392" lon="-0.37591218"><ele>-46.4</ele><time>2022-10-30T13:37:07.0000000+00:00</time></trkpt><trkpt lat="39.4703392" lon="-0.37591302"><ele>-46.4</ele><time>2022-10-30T13:37:08.0000000+00:00</time></trkpt><trkpt lat="39.47033929" lon="-0.37591327"><ele>-46.4</ele><time>2022-10-30T13:37:09.0000000+00:00</time></trkpt><trkpt lat="39.47033946" lon="-0.37591394"><ele>-46.4</ele><time>2022-10-30T13:37:10.0000000+00:00</time></trkpt><trkpt lat="39.47033971" lon="-0.37591495"><ele>-46.2</ele><time>2022-10-30T13:37:11.0000000+00:00</time></trkpt><trkpt lat="39.47033979" lon="-0.37591503"><ele>-46.2</ele><time>2022-10-30T13:37:12.0000000+00:00</time></trkpt><trkpt lat="39.47033979" lon="-0.37591511"><ele>-46.2</ele><time>2022-10-30T13:37:13.0000000+00:00</time></trkpt><trkpt lat="39.47033979" lon="-0.37591511"><ele>-46.2</ele><time>2022-10-30T13:37:14.0000000+00:00</time></trkpt><trkpt lat="39.47033979" lon="-0.37591511"><ele>-46.2</ele><time>2022-10-30T13:37:15.0000000+00:00</time></trkpt><trkpt lat="39.47033979" lon="-0.37591511"><ele>-46.2</ele><time>2022-10-30T13:37:16.0000000+00:00</time></trkpt><trkpt lat="39.47033627" lon="-0.37591788"><ele>-46.2</ele><time>2022-10-30T13:37:17.0000000+00:00</time></trkpt><trkpt lat="39.47032487" lon="-0.37592509"><ele>-46.2</ele><time>2022-10-30T13:37:18.0000000+00:00</time></trkpt><trkpt lat="39.47031272" lon="-0.37592836"><ele>-46.2</ele><time>2022-10-30T13:37:19.0000000+00:00</time></trkpt><trkpt lat="39.47030006" lon="-0.37593775"><ele>-46.4</ele><time>2022-10-30T13:37:20.0000000+00:00</time></trkpt><trkpt lat="39.47028589" lon="-0.37595082"><ele>-46.4</ele><time>2022-10-30T13:37:21.0000000+00:00</time></trkpt><trkpt lat="39.47026972" lon="-0.3759665"><ele>-46.4</ele><time>2022-10-30T13:37:22.0000000+00:00</time></trkpt><trkpt lat="39.47025664" lon="-0.37597588"><ele>-46.4</ele><time>2022-10-30T13:37:23.0000000+00:00</time></trkpt><trkpt lat="39.47024164" lon="-0.37598133"><ele>-46.4</ele><time>2022-10-30T13:37:24.0000000+00:00</time></trkpt><trkpt lat="39.47022504" lon="-0.37598896"><ele>-46.4</ele><time>2022-10-30T13:37:25.0000000+00:00</time></trkpt><trkpt lat="39.47021054" lon="-0.37599625"><ele>-46.4</ele><time>2022-10-30T13:37:26.0000000+00:00</time></trkpt><trkpt lat="39.47019872" lon="-0.37600002"><ele>-46.4</ele><time>2022-10-30T13:37:27.0000000+00:00</time></trkpt><trkpt lat="39.4701869" lon="-0.37601159"><ele>-46.2</ele><time>2022-10-30T13:37:28.0000000+00:00</time></trkpt><trkpt lat="39.47017215" lon="-0.37602307"><ele>-46.2</ele><time>2022-10-30T13:37:29.0000000+00:00</time></trkpt><trkpt lat="39.47015212" lon="-0.37604017"><ele>-46.2</ele><time>2022-10-30T13:37:30.0000000+00:00</time></trkpt><trkpt lat="39.47012396" lon="-0.37606766"><ele>-46.2</ele><time>2022-10-30T13:37:31.0000000+00:00</time></trkpt><trkpt lat="39.47009378" lon="-0.37609658"><ele>-46.2</ele><time>2022-10-30T13:37:32.0000000+00:00</time></trkpt><trkpt lat="39.47006671" lon="-0.37611963"><ele>-46.4</ele><time>2022-10-30T13:37:33.0000000+00:00</time></trkpt><trkpt lat="39.47003419" lon="-0.37614193"><ele>-46.4</ele><time>2022-10-30T13:37:34.0000000+00:00</time></trkpt><trkpt lat="39.47000577" lon="-0.37616531"><ele>-46.2</ele><time>2022-10-30T13:37:35.0000000+00:00</time></trkpt><trkpt lat="39.46998683" lon="-0.37617428"><ele>-46.2</ele><time>2022-10-30T13:37:36.0000000+00:00</time></trkpt><trkpt lat="39.46997543" lon="-0.37617076"><ele>-46.2</ele><time>2022-10-30T13:37:37.0000000+00:00</time></trkpt><trkpt lat="39.46996462" lon="-0.37616506"><ele>-46.2</ele><time>2022-10-30T13:37:38.0000000+00:00</time></trkpt><trkpt lat="39.4699554" lon="-0.37616154"><ele>-46.2</ele><time>2022-10-30T13:37:39.0000000+00:00</time></trkpt><trkpt lat="39.46994383" lon="-0.37616473"><ele>-46.0</ele><time>2022-10-30T13:37:40.0000000+00:00</time></trkpt><trkpt lat="39.46992966" lon="-0.37616774"><ele>-46.0</ele><time>2022-10-30T13:37:41.0000000+00:00</time></trkpt><trkpt lat="39.46990586" lon="-0.37619222"><ele>-46.0</ele><time>2022-10-30T13:37:42.0000000+00:00</time></trkpt><trkpt lat="39.46988013" lon="-0.37621879"><ele>-46.0</ele><time>2022-10-30T13:37:43.0000000+00:00</time></trkpt><trkpt lat="39.46985507" lon="-0.37623597"><ele>-46.0</ele><time>2022-10-30T13:37:44.0000000+00:00</time></trkpt><trkpt lat="39.46982581" lon="-0.37624494"><ele>-46.0</ele><time>2022-10-30T13:37:45.0000000+00:00</time></trkpt><trkpt lat="39.46978365" lon="-0.37627931"><ele>-46.0</ele><time>2022-10-30T13:37:46.0000000+00:00</time></trkpt><trkpt lat="39.46976312" lon="-0.37630965"><ele>-46.0</ele><time>2022-10-30T13:37:47.0000000+00:00</time></trkpt><trkpt lat="39.46976018" lon="-0.37631979"><ele>-46.0</ele><time>2022-10-30T13:37:48.0000000+00:00</time></trkpt><trkpt lat="39.46977074" lon="-0.37631074"><ele>-45.8</ele><time>2022-10-30T13:37:49.0000000+00:00</time></trkpt><trkpt lat="39.46976328" lon="-0.37629523"><ele>-45.6</ele><time>2022-10-30T13:37:50.0000000+00:00</time></trkpt><trkpt lat="39.46975063" lon="-0.37624821"><ele>-45.6</ele><time>2022-10-30T13:37:51.0000000+00:00</time></trkpt><trkpt lat="39.46974845" lon="-0.37619884"><ele>-45.6</ele><time>2022-10-30T13:37:52.0000000+00:00</time></trkpt><trkpt lat="39.46974484" lon="-0.37616825"><ele>-45.6</ele><time>2022-10-30T13:37:53.0000000+00:00</time></trkpt><trkpt lat="39.46973244" lon="-0.37615567"><ele>-45.8</ele><time>2022-10-30T13:37:54.0000000+00:00</time></trkpt><trkpt lat="39.46972037" lon="-0.37614713"><ele>-45.8</ele><time>2022-10-30T13:37:55.0000000+00:00</time></trkpt><trkpt lat="39.46971132" lon="-0.37614578"><ele>-45.8</ele><time>2022-10-30T13:37:56.0000000+00:00</time></trkpt><trkpt lat="39.46970327" lon="-0.37614495"><ele>-46.0</ele><time>2022-10-30T13:37:57.0000000+00:00</time></trkpt><trkpt lat="39.46969757" lon="-0.37614335"><ele>-46.0</ele><time>2022-10-30T13:37:58.0000000+00:00</time></trkpt><trkpt lat="39.46969212" lon="-0.37613816"><ele>-46.0</ele><time>2022-10-30T13:37:59.0000000+00:00</time></trkpt><trkpt lat="39.46968357" lon="-0.37612936"><ele>-46.0</ele><time>2022-10-30T13:38:00.0000000+00:00</time></trkpt><trkpt lat="39.46967519" lon="-0.37611913"><ele>-46.0</ele><time>2022-10-30T13:38:01.0000000+00:00</time></trkpt><trkpt lat="39.46966941" lon="-0.37611008"><ele>-46.0</ele><time>2022-10-30T13:38:02.0000000+00:00</time></trkpt><trkpt lat="39.46966211" lon="-0.3761027"><ele>-46.2</ele><time>2022-10-30T13:38:03.0000000+00:00</time></trkpt><trkpt lat="39.46965516" lon="-0.37609734"><ele>-46.2</ele><time>2022-10-30T13:38:04.0000000+00:00</time></trkpt><trkpt lat="39.46964636" lon="-0.37609256"><ele>-46.2</ele><time>2022-10-30T13:38:05.0000000+00:00</time></trkpt><trkpt lat="39.46963906" lon="-0.37608778"><ele>-46.2</ele><time>2022-10-30T13:38:06.0000000+00:00</time></trkpt><trkpt lat="39.46962624" lon="-0.37608711"><ele>-46.2</ele><time>2022-10-30T13:38:07.0000000+00:00</time></trkpt><trkpt lat="39.46961635" lon="-0.37608384"><ele>-46.2</ele><time>2022-10-30T13:38:08.0000000+00:00</time></trkpt><trkpt lat="39.46961056" lon="-0.37607194"><ele>-46.0</ele><time>2022-10-30T13:38:09.0000000+00:00</time></trkpt><trkpt lat="39.46960897" lon="-0.37605375"><ele>-46.0</ele><time>2022-10-30T13:38:10.0000000+00:00</time></trkpt><trkpt lat="39.46959841" lon="-0.37604193"><ele>-46.2</ele><time>2022-10-30T13:38:11.0000000+00:00</time></trkpt><trkpt lat="39.46958777" lon="-0.37602827"><ele>-46.0</ele><time>2022-10-30T13:38:12.0000000+00:00</time></trkpt><trkpt lat="39.46957612" lon="-0.3760188"><ele>-46.0</ele><time>2022-10-30T13:38:13.0000000+00:00</time></trkpt><trkpt lat="39.46956513" lon="-0.37601201"><ele>-46.2</ele><time>2022-10-30T13:38:14.0000000+00:00</time></trkpt><trkpt lat="39.46955399" lon="-0.37600354"><ele>-46.2</ele><time>2022-10-30T13:38:15.0000000+00:00</time></trkpt><trkpt lat="39.46953513" lon="-0.37600639"><ele>-46.2</ele><time>2022-10-30T13:38:16.0000000+00:00</time></trkpt><trkpt lat="39.46951359" lon="-0.37601863"><ele>-46.2</ele><time>2022-10-30T13:38:17.0000000+00:00</time></trkpt><trkpt lat="39.46949431" lon="-0.37603053"><ele>-46.0</ele><time>2022-10-30T13:38:18.0000000+00:00</time></trkpt><trkpt lat="39.46947746" lon="-0.37603531"><ele>-46.0</ele><time>2022-10-30T13:38:19.0000000+00:00</time></trkpt><trkpt lat="39.46946967" lon="-0.37602056"><ele>-46.0</ele><time>2022-10-30T13:38:20.0000000+00:00</time></trkpt><trkpt lat="39.46945491" lon="-0.37601218"><ele>-45.8</ele><time>2022-10-30T13:38:21.0000000+00:00</time></trkpt><trkpt lat="39.46944259" lon="-0.37600379"><ele>-45.8</ele><time>2022-10-30T13:38:22.0000000+00:00</time></trkpt><trkpt lat="39.46942616" lon="-0.37600673"><ele>-45.8</ele><time>2022-10-30T13:38:23.0000000+00:00</time></trkpt><trkpt lat="39.46941242" lon="-0.37602416"><ele>-45.8</ele><time>2022-10-30T13:38:24.0000000+00:00</time></trkpt><trkpt lat="39.46939046" lon="-0.37604797"><ele>-45.8</ele><time>2022-10-30T13:38:25.0000000+00:00</time></trkpt><trkpt lat="39.46936028" lon="-0.37606247"><ele>-45.8</ele><time>2022-10-30T13:38:26.0000000+00:00</time></trkpt><trkpt lat="39.4693483" lon="-0.37605945"><ele>-45.8</ele><time>2022-10-30T13:38:27.0000000+00:00</time></trkpt><trkpt lat="39.46930404" lon="-0.37606297"><ele>-45.8</ele><time>2022-10-30T13:38:28.0000000+00:00</time></trkpt><trkpt lat="39.46928845" lon="-0.37605375"><ele>-45.8</ele><time>2022-10-30T13:38:29.0000000+00:00</time></trkpt><trkpt lat="39.46926791" lon="-0.37605501"><ele>-45.8</ele><time>2022-10-30T13:38:30.0000000+00:00</time></trkpt><trkpt lat="39.469254" lon="-0.37605794"><ele>-45.8</ele><time>2022-10-30T13:38:31.0000000+00:00</time></trkpt><trkpt lat="39.46923883" lon="-0.37605685"><ele>-45.8</ele><time>2022-10-30T13:38:32.0000000+00:00</time></trkpt><trkpt lat="39.46922667" lon="-0.37605777"><ele>-45.8</ele><time>2022-10-30T13:38:33.0000000+00:00</time></trkpt><trkpt lat="39.46921645" lon="-0.3760556"><ele>-45.8</ele><time>2022-10-30T13:38:34.0000000+00:00</time></trkpt><trkpt lat="39.46921033" lon="-0.37604612"><ele>-45.8</ele><time>2022-10-30T13:38:35.0000000+00:00</time></trkpt><trkpt lat="39.46919742" lon="-0.37604654"><ele>-45.6</ele><time>2022-10-30T13:38:36.0000000+00:00</time></trkpt><trkpt lat="39.46918133" lon="-0.37605316"><ele>-45.6</ele><time>2022-10-30T13:38:37.0000000+00:00</time></trkpt><trkpt lat="39.46915995" lon="-0.37605417"><ele>-45.6</ele><time>2022-10-30T13:38:38.0000000+00:00</time></trkpt><trkpt lat="39.46914319" lon="-0.37605224"><ele>-45.6</ele><time>2022-10-30T13:38:39.0000000+00:00</time></trkpt><trkpt lat="39.46913037" lon="-0.37604621"><ele>-45.6</ele><time>2022-10-30T13:38:40.0000000+00:00</time></trkpt><trkpt lat="39.46911855" lon="-0.37604386"><ele>-45.6</ele><time>2022-10-30T13:38:41.0000000+00:00</time></trkpt><trkpt lat="39.46910463" lon="-0.37603749"><ele>-45.8</ele><time>2022-10-30T13:38:42.0000000+00:00</time></trkpt><trkpt lat="39.46908586" lon="-0.37603498"><ele>-45.8</ele><time>2022-10-30T13:38:43.0000000+00:00</time></trkpt><trkpt lat="39.46907354" lon="-0.37602944"><ele>-45.6</ele><time>2022-10-30T13:38:44.0000000+00:00</time></trkpt><trkpt lat="39.46906214" lon="-0.37602743"><ele>-45.6</ele><time>2022-10-30T13:38:45.0000000+00:00</time></trkpt><trkpt lat="39.46904613" lon="-0.37603296"><ele>-45.4</ele><time>2022-10-30T13:38:46.0000000+00:00</time></trkpt><trkpt lat="39.46903297" lon="-0.37603338"><ele>-45.4</ele><time>2022-10-30T13:38:47.0000000+00:00</time></trkpt><trkpt lat="39.46901914" lon="-0.37602232"><ele>-45.4</ele><time>2022-10-30T13:38:48.0000000+00:00</time></trkpt><trkpt lat="39.46900615" lon="-0.37601218"><ele>-45.4</ele><time>2022-10-30T13:38:49.0000000+00:00</time></trkpt><trkpt lat="39.46899676" lon="-0.37600765"><ele>-45.4</ele><time>2022-10-30T13:38:50.0000000+00:00</time></trkpt><trkpt lat="39.46900045" lon="-0.37599717"><ele>-45.4</ele><time>2022-10-30T13:38:51.0000000+00:00</time></trkpt><trkpt lat="39.46901243" lon="-0.37596398"><ele>-45.4</ele><time>2022-10-30T13:38:52.0000000+00:00</time></trkpt><trkpt lat="39.46901914" lon="-0.37595208"><ele>-45.6</ele><time>2022-10-30T13:38:53.0000000+00:00</time></trkpt><trkpt lat="39.46901579" lon="-0.37595141"><ele>-45.6</ele><time>2022-10-30T13:38:54.0000000+00:00</time></trkpt><trkpt lat="39.46900816" lon="-0.37595761"><ele>-45.6</ele><time>2022-10-30T13:38:55.0000000+00:00</time></trkpt><trkpt lat="39.46900397" lon="-0.37596054"><ele>-45.6</ele><time>2022-10-30T13:38:56.0000000+00:00</time></trkpt><trkpt lat="39.46900833" lon="-0.37595753"><ele>-45.6</ele><time>2022-10-30T13:38:57.0000000+00:00</time></trkpt><trkpt lat="39.46901428" lon="-0.3759525"><ele>-45.6</ele><time>2022-10-30T13:38:58.0000000+00:00</time></trkpt><trkpt lat="39.46901361" lon="-0.37593674"><ele>-45.4</ele><time>2022-10-30T13:38:59.0000000+00:00</time></trkpt><trkpt lat="39.46901428" lon="-0.37591637"><ele>-45.4</ele><time>2022-10-30T13:39:00.0000000+00:00</time></trkpt><trkpt lat="39.46901235" lon="-0.37589223"><ele>-45.4</ele><time>2022-10-30T13:39:01.0000000+00:00</time></trkpt><trkpt lat="39.46901059" lon="-0.37586784"><ele>-45.4</ele><time>2022-10-30T13:39:02.0000000+00:00</time></trkpt><trkpt lat="39.4690043" lon="-0.37584663"><ele>-45.4</ele><time>2022-10-30T13:39:03.0000000+00:00</time></trkpt><trkpt lat="39.46900103" lon="-0.37583088"><ele>-45.4</ele><time>2022-10-30T13:39:04.0000000+00:00</time></trkpt><trkpt lat="39.46899852" lon="-0.37582174"><ele>-45.4</ele><time>2022-10-30T13:39:05.0000000+00:00</time></trkpt><trkpt lat="39.46899944" lon="-0.37581763"><ele>-45.4</ele><time>2022-10-30T13:39:06.0000000+00:00</time></trkpt><trkpt lat="39.46900246" lon="-0.37581713"><ele>-45.4</ele><time>2022-10-30T13:39:07.0000000+00:00</time></trkpt><trkpt lat="39.46900665" lon="-0.3758142"><ele>-45.2</ele><time>2022-10-30T13:39:08.0000000+00:00</time></trkpt><trkpt lat="39.4690048" lon="-0.37580674"><ele>-45.2</ele><time>2022-10-30T13:39:09.0000000+00:00</time></trkpt><trkpt lat="39.46899709" lon="-0.37580087"><ele>-45.2</ele><time>2022-10-30T13:39:10.0000000+00:00</time></trkpt><trkpt lat="39.4689919" lon="-0.37579349"><ele>-45.2</ele><time>2022-10-30T13:39:11.0000000+00:00</time></trkpt><trkpt lat="39.46898838" lon="-0.37578654"><ele>-45.2</ele><time>2022-10-30T13:39:12.0000000+00:00</time></trkpt><trkpt lat="39.46898804" lon="-0.37578167"><ele>-45.2</ele><time>2022-10-30T13:39:13.0000000+00:00</time></trkpt><trkpt lat="39.46898502" lon="-0.37577815"><ele>-45.2</ele><time>2022-10-30T13:39:14.0000000+00:00</time></trkpt><trkpt lat="39.46898452" lon="-0.3757738"><ele>-45.2</ele><time>2022-10-30T13:39:15.0000000+00:00</time></trkpt><trkpt lat="39.4690043" lon="-0.37578092"><ele>-45.4</ele><time>2022-10-30T13:39:16.0000000+00:00</time></trkpt><trkpt lat="39.46900581" lon="-0.37578947"><ele>-45.4</ele><time>2022-10-30T13:39:17.0000000+00:00</time></trkpt><trkpt lat="39.46900816" lon="-0.37579182"><ele>-45.4</ele><time>2022-10-30T13:39:18.0000000+00:00</time></trkpt><trkpt lat="39.46901964" lon="-0.37579115"><ele>-45.4</ele><time>2022-10-30T13:39:19.0000000+00:00</time></trkpt><trkpt lat="39.4690359" lon="-0.37577556"><ele>-45.2</ele><time>2022-10-30T13:39:20.0000000+00:00</time></trkpt><trkpt lat="39.46903657" lon="-0.3757546"><ele>-45.2</ele><time>2022-10-30T13:39:21.0000000+00:00</time></trkpt><trkpt lat="39.46902467" lon="-0.37573767"><ele>-45.2</ele><time>2022-10-30T13:39:22.0000000+00:00</time></trkpt><trkpt lat="39.46900556" lon="-0.37571747"><ele>-45.2</ele><time>2022-10-30T13:39:23.0000000+00:00</time></trkpt><trkpt lat="39.46898209" lon="-0.37570146"><ele>-45.2</ele><time>2022-10-30T13:39:24.0000000+00:00</time></trkpt><trkpt lat="39.46895175" lon="-0.37568889"><ele>-45.2</ele><time>2022-10-30T13:39:25.0000000+00:00</time></trkpt><trkpt lat="39.46892903" lon="-0.37568302"><ele>-45.2</ele><time>2022-10-30T13:39:26.0000000+00:00</time></trkpt><trkpt lat="39.46890246" lon="-0.37567087"><ele>-45.2</ele><time>2022-10-30T13:39:27.0000000+00:00</time></trkpt><trkpt lat="39.46886944" lon="-0.37563943"><ele>-45.0</ele><time>2022-10-30T13:39:28.0000000+00:00</time></trkpt><trkpt lat="39.46883893" lon="-0.37561672"><ele>-45.0</ele><time>2022-10-30T13:39:29.0000000+00:00</time></trkpt><trkpt lat="39.4688059" lon="-0.37558537"><ele>-45.0</ele><time>2022-10-30T13:39:30.0000000+00:00</time></trkpt><trkpt lat="39.46878143" lon="-0.37555394"><ele>-45.0</ele><time>2022-10-30T13:39:31.0000000+00:00</time></trkpt><trkpt lat="39.46875427" lon="-0.37552242"><ele>-45.0</ele><time>2022-10-30T13:39:32.0000000+00:00</time></trkpt><trkpt lat="39.46871353" lon="-0.37547548"><ele>-45.0</ele><time>2022-10-30T13:39:33.0000000+00:00</time></trkpt><trkpt lat="39.46866266" lon="-0.3754184"><ele>-45.0</ele><time>2022-10-30T13:39:34.0000000+00:00</time></trkpt><trkpt lat="39.46859887" lon="-0.37553282"><ele>-45.0</ele><time>2022-10-30T13:39:35.0000000+00:00</time></trkpt><trkpt lat="39.46857808" lon="-0.37559149"><ele>-45.0</ele><time>2022-10-30T13:39:36.0000000+00:00</time></trkpt><trkpt lat="39.46857775" lon="-0.37550918"><ele>-45.0</ele><time>2022-10-30T13:39:37.0000000+00:00</time></trkpt><trkpt lat="39.46856216" lon="-0.37553273"><ele>-45.0</ele><time>2022-10-30T13:39:38.0000000+00:00</time></trkpt><trkpt lat="39.46854724" lon="-0.37555251"><ele>-45.0</ele><time>2022-10-30T13:39:39.0000000+00:00</time></trkpt><trkpt lat="39.46853852" lon="-0.37556668"><ele>-45.0</ele><time>2022-10-30T13:39:40.0000000+00:00</time></trkpt><trkpt lat="39.46853274" lon="-0.3755303"><ele>-45.0</ele><time>2022-10-30T13:39:41.0000000+00:00</time></trkpt><trkpt lat="39.46853014" lon="-0.37553491"><ele>-44.8</ele><time>2022-10-30T13:39:42.0000000+00:00</time></trkpt><trkpt lat="39.46851932" lon="-0.37559375"><ele>-44.8</ele><time>2022-10-30T13:39:43.0000000+00:00</time></trkpt><trkpt lat="39.46850767" lon="-0.37562225"><ele>-44.8</ele><time>2022-10-30T13:39:44.0000000+00:00</time></trkpt><trkpt lat="39.4685029" lon="-0.37562133"><ele>-44.8</ele><time>2022-10-30T13:39:45.0000000+00:00</time></trkpt><trkpt lat="39.46849301" lon="-0.37567313"><ele>-44.8</ele><time>2022-10-30T13:39:46.0000000+00:00</time></trkpt><trkpt lat="39.46848102" lon="-0.37569593"><ele>-44.8</ele><time>2022-10-30T13:39:47.0000000+00:00</time></trkpt><trkpt lat="39.46847607" lon="-0.37566098"><ele>-44.8</ele><time>2022-10-30T13:39:48.0000000+00:00</time></trkpt><trkpt lat="39.46845872" lon="-0.37568101"><ele>-44.8</ele><time>2022-10-30T13:39:49.0000000+00:00</time></trkpt><trkpt lat="39.46845152" lon="-0.37569157"><ele>-44.8</ele><time>2022-10-30T13:39:50.0000000+00:00</time></trkpt><trkpt lat="39.46844741" lon="-0.37569459"><ele>-44.8</ele><time>2022-10-30T13:39:51.0000000+00:00</time></trkpt><trkpt lat="39.46844338" lon="-0.37569685"><ele>-44.8</ele><time>2022-10-30T13:39:52.0000000+00:00</time></trkpt><trkpt lat="39.46844783" lon="-0.37571512"><ele>-44.8</ele><time>2022-10-30T13:39:53.0000000+00:00</time></trkpt><trkpt lat="39.46845193" lon="-0.3757396"><ele>-44.8</ele><time>2022-10-30T13:39:54.0000000+00:00</time></trkpt><trkpt lat="39.46845353" lon="-0.37575686"><ele>-45.0</ele><time>2022-10-30T13:39:55.0000000+00:00</time></trkpt><trkpt lat="39.4684516" lon="-0.37575762"><ele>-45.0</ele><time>2022-10-30T13:39:56.0000000+00:00</time></trkpt><trkpt lat="39.46845026" lon="-0.37575762"><ele>-45.0</ele><time>2022-10-30T13:39:57.0000000+00:00</time></trkpt><trkpt lat="39.46844917" lon="-0.37575837"><ele>-45.0</ele><time>2022-10-30T13:39:58.0000000+00:00</time></trkpt><trkpt lat="39.46844883" lon="-0.37575653"><ele>-45.0</ele><time>2022-10-30T13:39:59.0000000+00:00</time></trkpt><trkpt lat="39.46844556" lon="-0.37576449"><ele>-45.0</ele><time>2022-10-30T13:40:00.0000000+00:00</time></trkpt><trkpt lat="39.4684428" lon="-0.37576483"><ele>-45.0</ele><time>2022-10-30T13:40:01.0000000+00:00</time></trkpt><trkpt lat="39.46844112" lon="-0.37576038"><ele>-45.0</ele><time>2022-10-30T13:40:02.0000000+00:00</time></trkpt><trkpt lat="39.46844422" lon="-0.37575544"><ele>-45.0</ele><time>2022-10-30T13:40:03.0000000+00:00</time></trkpt><trkpt lat="39.46844087" lon="-0.37575569"><ele>-45.0</ele><time>2022-10-30T13:40:04.0000000+00:00</time></trkpt><trkpt lat="39.46844028" lon="-0.37575552"><ele>-45.0</ele><time>2022-10-30T13:40:05.0000000+00:00</time></trkpt><trkpt lat="39.46842905" lon="-0.37575745"><ele>-45.0</ele><time>2022-10-30T13:40:06.0000000+00:00</time></trkpt><trkpt lat="39.46842" lon="-0.37577639"><ele>-45.0</ele><time>2022-10-30T13:40:07.0000000+00:00</time></trkpt><trkpt lat="39.46841153" lon="-0.3757888"><ele>-45.0</ele><time>2022-10-30T13:40:08.0000000+00:00</time></trkpt><trkpt lat="39.46840114" lon="-0.37579584"><ele>-45.0</ele><time>2022-10-30T13:40:09.0000000+00:00</time></trkpt><trkpt lat="39.46839175" lon="-0.37580791"><ele>-45.0</ele><time>2022-10-30T13:40:10.0000000+00:00</time></trkpt><trkpt lat="39.4683801" lon="-0.37581931"><ele>-44.8</ele><time>2022-10-30T13:40:11.0000000+00:00</time></trkpt><trkpt lat="39.46837641" lon="-0.3758178"><ele>-44.8</ele><time>2022-10-30T13:40:12.0000000+00:00</time></trkpt><trkpt lat="39.46837432" lon="-0.37580816"><ele>-44.8</ele><time>2022-10-30T13:40:13.0000000+00:00</time></trkpt><trkpt lat="39.46836627" lon="-0.37580137"><ele>-44.8</ele><time>2022-10-30T13:40:14.0000000+00:00</time></trkpt><trkpt lat="39.46836007" lon="-0.37580154"><ele>-45.0</ele><time>2022-10-30T13:40:15.0000000+00:00</time></trkpt><trkpt lat="39.46834909" lon="-0.3758178"><ele>-45.0</ele><time>2022-10-30T13:40:16.0000000+00:00</time></trkpt><trkpt lat="39.46834381" lon="-0.3758442"><ele>-45.0</ele><time>2022-10-30T13:40:17.0000000+00:00</time></trkpt><trkpt lat="39.46834113" lon="-0.37585904"><ele>-45.0</ele><time>2022-10-30T13:40:18.0000000+00:00</time></trkpt><trkpt lat="39.46833962" lon="-0.37585954"><ele>-45.0</ele><time>2022-10-30T13:40:19.0000000+00:00</time></trkpt><trkpt lat="39.46832771" lon="-0.37587354"><ele>-45.0</ele><time>2022-10-30T13:40:20.0000000+00:00</time></trkpt><trkpt lat="39.46832168" lon="-0.3758836"><ele>-45.0</ele><time>2022-10-30T13:40:21.0000000+00:00</time></trkpt><trkpt lat="39.46832034" lon="-0.37589014"><ele>-45.0</ele><time>2022-10-30T13:40:22.0000000+00:00</time></trkpt><trkpt lat="39.46832051" lon="-0.37590497"><ele>-45.0</ele><time>2022-10-30T13:40:23.0000000+00:00</time></trkpt><trkpt lat="39.46830399" lon="-0.3759178"><ele>-45.0</ele><time>2022-10-30T13:40:24.0000000+00:00</time></trkpt><trkpt lat="39.46827533" lon="-0.37591629"><ele>-45.0</ele><time>2022-10-30T13:40:25.0000000+00:00</time></trkpt><trkpt lat="39.46827214" lon="-0.37591319"><ele>-45.0</ele><time>2022-10-30T13:40:26.0000000+00:00</time></trkpt><trkpt lat="39.46827214" lon="-0.37591914"><ele>-45.0</ele><time>2022-10-30T13:40:27.0000000+00:00</time></trkpt><trkpt lat="39.46826225" lon="-0.37592702"><ele>-45.0</ele><time>2022-10-30T13:40:28.0000000+00:00</time></trkpt><trkpt lat="39.46825706" lon="-0.37593456"><ele>-45.0</ele><time>2022-10-30T13:40:29.0000000+00:00</time></trkpt><trkpt lat="39.46826066" lon="-0.37593967"><ele>-45.0</ele><time>2022-10-30T13:40:30.0000000+00:00</time></trkpt><trkpt lat="39.46826343" lon="-0.375938"><ele>-45.0</ele><time>2022-10-30T13:40:31.0000000+00:00</time></trkpt><trkpt lat="39.4682625" lon="-0.37593515"><ele>-45.0</ele><time>2022-10-30T13:40:32.0000000+00:00</time></trkpt><trkpt lat="39.46825915" lon="-0.37592853"><ele>-45.0</ele><time>2022-10-30T13:40:33.0000000+00:00</time></trkpt><trkpt lat="39.46825194" lon="-0.37592333"><ele>-45.0</ele><time>2022-10-30T13:40:34.0000000+00:00</time></trkpt><trkpt lat="39.46824666" lon="-0.37592844"><ele>-45.0</ele><time>2022-10-30T13:40:35.0000000+00:00</time></trkpt><trkpt lat="39.46824993" lon="-0.37593431"><ele>-45.0</ele><time>2022-10-30T13:40:36.0000000+00:00</time></trkpt><trkpt lat="39.46825437" lon="-0.37592945"><ele>-45.0</ele><time>2022-10-30T13:40:37.0000000+00:00</time></trkpt><trkpt lat="39.46825496" lon="-0.37592148"><ele>-45.0</ele><time>2022-10-30T13:40:38.0000000+00:00</time></trkpt><trkpt lat="39.4682511" lon="-0.37591386"><ele>-45.0</ele><time>2022-10-30T13:40:39.0000000+00:00</time></trkpt><trkpt lat="39.46824138" lon="-0.37590749"><ele>-45.0</ele><time>2022-10-30T13:40:40.0000000+00:00</time></trkpt><trkpt lat="39.46823853" lon="-0.37591235"><ele>-45.0</ele><time>2022-10-30T13:40:41.0000000+00:00</time></trkpt><trkpt lat="39.46822604" lon="-0.37591545"><ele>-45.0</ele><time>2022-10-30T13:40:42.0000000+00:00</time></trkpt><trkpt lat="39.46821808" lon="-0.37591101"><ele>-45.0</ele><time>2022-10-30T13:40:43.0000000+00:00</time></trkpt><trkpt lat="39.46821263" lon="-0.37590883"><ele>-45.0</ele><time>2022-10-30T13:40:44.0000000+00:00</time></trkpt><trkpt lat="39.46820358" lon="-0.37591361"><ele>-45.0</ele><time>2022-10-30T13:40:45.0000000+00:00</time></trkpt><trkpt lat="39.46819469" lon="-0.37592056"><ele>-45.0</ele><time>2022-10-30T13:40:46.0000000+00:00</time></trkpt><trkpt lat="39.46817399" lon="-0.37592718"><ele>-45.0</ele><time>2022-10-30T13:40:47.0000000+00:00</time></trkpt><trkpt lat="39.46815823" lon="-0.37592526"><ele>-45.0</ele><time>2022-10-30T13:40:48.0000000+00:00</time></trkpt><trkpt lat="39.4681444" lon="-0.37592358"><ele>-45.0</ele><time>2022-10-30T13:40:49.0000000+00:00</time></trkpt><trkpt lat="39.46813376" lon="-0.37592157"><ele>-45.0</ele><time>2022-10-30T13:40:50.0000000+00:00</time></trkpt><trkpt lat="39.46812554" lon="-0.3759131"><ele>-45.0</ele><time>2022-10-30T13:40:51.0000000+00:00</time></trkpt><trkpt lat="39.46811817" lon="-0.37591084"><ele>-45.0</ele><time>2022-10-30T13:40:52.0000000+00:00</time></trkpt><trkpt lat="39.46810836" lon="-0.37592056"><ele>-45.0</ele><time>2022-10-30T13:40:53.0000000+00:00</time></trkpt><trkpt lat="39.4680988" lon="-0.37593372"><ele>-45.2</ele><time>2022-10-30T13:40:54.0000000+00:00</time></trkpt><trkpt lat="39.46809076" lon="-0.37593783"><ele>-45.2</ele><time>2022-10-30T13:40:55.0000000+00:00</time></trkpt><trkpt lat="39.46808212" lon="-0.37594018"><ele>-45.2</ele><time>2022-10-30T13:40:56.0000000+00:00</time></trkpt><trkpt lat="39.46807751" lon="-0.37593825"><ele>-45.2</ele><time>2022-10-30T13:40:57.0000000+00:00</time></trkpt><trkpt lat="39.46807056" lon="-0.37594361"><ele>-45.2</ele><time>2022-10-30T13:40:58.0000000+00:00</time></trkpt><trkpt lat="39.46806293" lon="-0.37594713"><ele>-45.2</ele><time>2022-10-30T13:40:59.0000000+00:00</time></trkpt><trkpt lat="39.46805346" lon="-0.37594269"><ele>-45.2</ele><time>2022-10-30T13:41:00.0000000+00:00</time></trkpt><trkpt lat="39.46804097" lon="-0.37594118"><ele>-45.2</ele><time>2022-10-30T13:41:01.0000000+00:00</time></trkpt><trkpt lat="39.46802739" lon="-0.37594428"><ele>-45.2</ele><time>2022-10-30T13:41:02.0000000+00:00</time></trkpt><trkpt lat="39.46801281" lon="-0.37595904"><ele>-45.2</ele><time>2022-10-30T13:41:03.0000000+00:00</time></trkpt><trkpt lat="39.46799923" lon="-0.37596826"><ele>-45.2</ele><time>2022-10-30T13:41:04.0000000+00:00</time></trkpt><trkpt lat="39.46798288" lon="-0.37598142"><ele>-45.2</ele><time>2022-10-30T13:41:05.0000000+00:00</time></trkpt><trkpt lat="39.46797014" lon="-0.37599231"><ele>-45.2</ele><time>2022-10-30T13:41:06.0000000+00:00</time></trkpt><trkpt lat="39.46795573" lon="-0.37599776"><ele>-45.2</ele><time>2022-10-30T13:41:07.0000000+00:00</time></trkpt><trkpt lat="39.46793687" lon="-0.37600103"><ele>-45.2</ele><time>2022-10-30T13:41:08.0000000+00:00</time></trkpt><trkpt lat="39.46791474" lon="-0.37600413"><ele>-45.2</ele><time>2022-10-30T13:41:09.0000000+00:00</time></trkpt><trkpt lat="39.46790242" lon="-0.37599038"><ele>-45.2</ele><time>2022-10-30T13:41:10.0000000+00:00</time></trkpt><trkpt lat="39.46789395" lon="-0.37598041"><ele>-45.2</ele><time>2022-10-30T13:41:11.0000000+00:00</time></trkpt><trkpt lat="39.46788842" lon="-0.37597295"><ele>-45.2</ele><time>2022-10-30T13:41:12.0000000+00:00</time></trkpt><trkpt lat="39.46787677" lon="-0.37596499"><ele>-45.2</ele><time>2022-10-30T13:41:13.0000000+00:00</time></trkpt><trkpt lat="39.46786244" lon="-0.3759582"><ele>-45.2</ele><time>2022-10-30T13:41:14.0000000+00:00</time></trkpt><trkpt lat="39.46785355" lon="-0.37595166"><ele>-45.0</ele><time>2022-10-30T13:41:15.0000000+00:00</time></trkpt><trkpt lat="39.46784257" lon="-0.37594168"><ele>-45.0</ele><time>2022-10-30T13:41:16.0000000+00:00</time></trkpt><trkpt lat="39.46783276" lon="-0.37593012"><ele>-45.0</ele><time>2022-10-30T13:41:17.0000000+00:00</time></trkpt><trkpt lat="39.46781851" lon="-0.3759297"><ele>-45.0</ele><time>2022-10-30T13:41:18.0000000+00:00</time></trkpt><trkpt lat="39.46780586" lon="-0.37592744"><ele>-45.0</ele><time>2022-10-30T13:41:19.0000000+00:00</time></trkpt><trkpt lat="39.46778968" lon="-0.37593364"><ele>-45.0</ele><time>2022-10-30T13:41:20.0000000+00:00</time></trkpt><trkpt lat="39.4677756" lon="-0.37593582"><ele>-45.2</ele><time>2022-10-30T13:41:21.0000000+00:00</time></trkpt><trkpt lat="39.46776604" lon="-0.37593783"><ele>-45.2</ele><time>2022-10-30T13:41:22.0000000+00:00</time></trkpt><trkpt lat="39.46775917" lon="-0.37594177"><ele>-45.2</ele><time>2022-10-30T13:41:23.0000000+00:00</time></trkpt><trkpt lat="39.46775263" lon="-0.37594252"><ele>-45.0</ele><time>2022-10-30T13:41:24.0000000+00:00</time></trkpt><trkpt lat="39.46774442" lon="-0.37594403"><ele>-45.0</ele><time>2022-10-30T13:41:25.0000000+00:00</time></trkpt><trkpt lat="39.46773545" lon="-0.37594537"><ele>-45.0</ele><time>2022-10-30T13:41:26.0000000+00:00</time></trkpt><trkpt lat="39.46773201" lon="-0.37594303"><ele>-45.0</ele><time>2022-10-30T13:41:27.0000000+00:00</time></trkpt><trkpt lat="39.46772506" lon="-0.37595493"><ele>-45.0</ele><time>2022-10-30T13:41:28.0000000+00:00</time></trkpt><trkpt lat="39.46771391" lon="-0.37596708"><ele>-45.0</ele><time>2022-10-30T13:41:29.0000000+00:00</time></trkpt><trkpt lat="39.4677005" lon="-0.37597538"><ele>-45.0</ele><time>2022-10-30T13:41:30.0000000+00:00</time></trkpt><trkpt lat="39.46768734" lon="-0.37597974"><ele>-45.0</ele><time>2022-10-30T13:41:31.0000000+00:00</time></trkpt><trkpt lat="39.46767896" lon="-0.37598502"><ele>-45.0</ele><time>2022-10-30T13:41:32.0000000+00:00</time></trkpt><trkpt lat="39.46766412" lon="-0.37600078"><ele>-45.0</ele><time>2022-10-30T13:41:33.0000000+00:00</time></trkpt><trkpt lat="39.46764845" lon="-0.37601645"><ele>-45.0</ele><time>2022-10-30T13:41:34.0000000+00:00</time></trkpt><trkpt lat="39.46764568" lon="-0.37599952"><ele>-45.0</ele><time>2022-10-30T13:41:35.0000000+00:00</time></trkpt><trkpt lat="39.46763537" lon="-0.37599768"><ele>-45.0</ele><time>2022-10-30T13:41:36.0000000+00:00</time></trkpt><trkpt lat="39.46762397" lon="-0.3760043"><ele>-45.0</ele><time>2022-10-30T13:41:37.0000000+00:00</time></trkpt><trkpt lat="39.46761274" lon="-0.37600991"><ele>-45.0</ele><time>2022-10-30T13:41:38.0000000+00:00</time></trkpt><trkpt lat="39.46760176" lon="-0.37601721"><ele>-45.0</ele><time>2022-10-30T13:41:39.0000000+00:00</time></trkpt><trkpt lat="39.46759195" lon="-0.37602081"><ele>-45.0</ele><time>2022-10-30T13:41:40.0000000+00:00</time></trkpt><trkpt lat="39.46758977" lon="-0.37600036"><ele>-45.0</ele><time>2022-10-30T13:41:41.0000000+00:00</time></trkpt><trkpt lat="39.46758382" lon="-0.37598779"><ele>-45.0</ele><time>2022-10-30T13:41:42.0000000+00:00</time></trkpt><trkpt lat="39.46757753" lon="-0.37598745"><ele>-45.0</ele><time>2022-10-30T13:41:43.0000000+00:00</time></trkpt><trkpt lat="39.46755691" lon="-0.37601343"><ele>-45.0</ele><time>2022-10-30T13:41:44.0000000+00:00</time></trkpt><trkpt lat="39.46752833" lon="-0.3760654"><ele>-45.0</ele><time>2022-10-30T13:41:45.0000000+00:00</time></trkpt><trkpt lat="39.46751408" lon="-0.37607462"><ele>-45.0</ele><time>2022-10-30T13:41:46.0000000+00:00</time></trkpt><trkpt lat="39.46749615" lon="-0.37608552"><ele>-45.2</ele><time>2022-10-30T13:41:47.0000000+00:00</time></trkpt><trkpt lat="39.46747779" lon="-0.37610371"><ele>-45.2</ele><time>2022-10-30T13:41:48.0000000+00:00</time></trkpt><trkpt lat="39.46746279" lon="-0.37612055"><ele>-45.2</ele><time>2022-10-30T13:41:49.0000000+00:00</time></trkpt><trkpt lat="39.46744627" lon="-0.3761338"><ele>-45.2</ele><time>2022-10-30T13:41:50.0000000+00:00</time></trkpt><trkpt lat="39.46743303" lon="-0.37613019"><ele>-45.2</ele><time>2022-10-30T13:41:51.0000000+00:00</time></trkpt><trkpt lat="39.46741585" lon="-0.37613757"><ele>-45.2</ele><time>2022-10-30T13:41:52.0000000+00:00</time></trkpt><trkpt lat="39.46740428" lon="-0.37613514"><ele>-45.2</ele><time>2022-10-30T13:41:53.0000000+00:00</time></trkpt><trkpt lat="39.46739171" lon="-0.37614277"><ele>-45.2</ele><time>2022-10-30T13:41:54.0000000+00:00</time></trkpt><trkpt lat="39.46737972" lon="-0.37614595"><ele>-45.2</ele><time>2022-10-30T13:41:55.0000000+00:00</time></trkpt><trkpt lat="39.46736933" lon="-0.37615408"><ele>-45.0</ele><time>2022-10-30T13:41:56.0000000+00:00</time></trkpt><trkpt lat="39.46735516" lon="-0.376155"><ele>-45.0</ele><time>2022-10-30T13:41:57.0000000+00:00</time></trkpt><trkpt lat="39.46734628" lon="-0.37613832"><ele>-45.0</ele><time>2022-10-30T13:41:58.0000000+00:00</time></trkpt><trkpt lat="39.46733488" lon="-0.37612047"><ele>-45.0</ele><time>2022-10-30T13:41:59.0000000+00:00</time></trkpt><trkpt lat="39.46732608" lon="-0.37610513"><ele>-45.0</ele><time>2022-10-30T13:42:00.0000000+00:00</time></trkpt><trkpt lat="39.46732046" lon="-0.37607471"><ele>-45.0</ele><time>2022-10-30T13:42:01.0000000+00:00</time></trkpt><trkpt lat="39.46731535" lon="-0.3760628"><ele>-45.0</ele><time>2022-10-30T13:42:02.0000000+00:00</time></trkpt><trkpt lat="39.46730219" lon="-0.37606708"><ele>-45.0</ele><time>2022-10-30T13:42:03.0000000+00:00</time></trkpt><trkpt lat="39.46729532" lon="-0.37605627"><ele>-44.8</ele><time>2022-10-30T13:42:04.0000000+00:00</time></trkpt><trkpt lat="39.46730093" lon="-0.37604302"><ele>-44.8</ele><time>2022-10-30T13:42:05.0000000+00:00</time></trkpt><trkpt lat="39.46730018" lon="-0.37604361"><ele>-44.8</ele><time>2022-10-30T13:42:06.0000000+00:00</time></trkpt><trkpt lat="39.46729892" lon="-0.37602835"><ele>-44.8</ele><time>2022-10-30T13:42:07.0000000+00:00</time></trkpt><trkpt lat="39.46729599" lon="-0.37602701"><ele>-44.8</ele><time>2022-10-30T13:42:08.0000000+00:00</time></trkpt><trkpt lat="39.46729062" lon="-0.37602039"><ele>-44.8</ele><time>2022-10-30T13:42:09.0000000+00:00</time></trkpt><trkpt lat="39.46728886" lon="-0.37601067"><ele>-44.8</ele><time>2022-10-30T13:42:10.0000000+00:00</time></trkpt><trkpt lat="39.46728467" lon="-0.37601033"><ele>-44.8</ele><time>2022-10-30T13:42:11.0000000+00:00</time></trkpt><trkpt lat="39.46728727" lon="-0.37600296"><ele>-44.8</ele><time>2022-10-30T13:42:12.0000000+00:00</time></trkpt><trkpt lat="39.46728576" lon="-0.37599843"><ele>-44.8</ele><time>2022-10-30T13:42:13.0000000+00:00</time></trkpt><trkpt lat="39.4672814" lon="-0.37599147"><ele>-44.8</ele><time>2022-10-30T13:42:14.0000000+00:00</time></trkpt><trkpt lat="39.46726908" lon="-0.37599273"><ele>-45.0</ele><time>2022-10-30T13:42:15.0000000+00:00</time></trkpt><trkpt lat="39.4672659" lon="-0.37598745"><ele>-45.0</ele><time>2022-10-30T13:42:16.0000000+00:00</time></trkpt><trkpt lat="39.46725877" lon="-0.37598192"><ele>-45.0</ele><time>2022-10-30T13:42:17.0000000+00:00</time></trkpt><trkpt lat="39.46724787" lon="-0.37598846"><ele>-45.0</ele><time>2022-10-30T13:42:18.0000000+00:00</time></trkpt><trkpt lat="39.46723882" lon="-0.37599784"><ele>-45.0</ele><time>2022-10-30T13:42:19.0000000+00:00</time></trkpt><trkpt lat="39.46723597" lon="-0.37600262"><ele>-45.0</ele><time>2022-10-30T13:42:20.0000000+00:00</time></trkpt><trkpt lat="39.46723455" lon="-0.37600581"><ele>-45.0</ele><time>2022-10-30T13:42:21.0000000+00:00</time></trkpt><trkpt lat="39.46723186" lon="-0.37600547"><ele>-45.0</ele><time>2022-10-30T13:42:22.0000000+00:00</time></trkpt><trkpt lat="39.46722332" lon="-0.3760048"><ele>-45.0</ele><time>2022-10-30T13:42:23.0000000+00:00</time></trkpt><trkpt lat="39.46720848" lon="-0.37600882"><ele>-45.0</ele><time>2022-10-30T13:42:24.0000000+00:00</time></trkpt><trkpt lat="39.46719725" lon="-0.37601243"><ele>-45.0</ele><time>2022-10-30T13:42:25.0000000+00:00</time></trkpt><trkpt lat="39.46718291" lon="-0.37602299"><ele>-45.0</ele><time>2022-10-30T13:42:26.0000000+00:00</time></trkpt><trkpt lat="39.46717319" lon="-0.37603196"><ele>-45.0</ele><time>2022-10-30T13:42:27.0000000+00:00</time></trkpt><trkpt lat="39.46716707" lon="-0.37603875"><ele>-45.0</ele><time>2022-10-30T13:42:28.0000000+00:00</time></trkpt><trkpt lat="39.46715777" lon="-0.37605291"><ele>-45.0</ele><time>2022-10-30T13:42:29.0000000+00:00</time></trkpt><trkpt lat="39.4671493" lon="-0.37607077"><ele>-45.0</ele><time>2022-10-30T13:42:30.0000000+00:00</time></trkpt><trkpt lat="39.46714746" lon="-0.3760851"><ele>-45.0</ele><time>2022-10-30T13:42:31.0000000+00:00</time></trkpt><trkpt lat="39.46715232" lon="-0.37609524"><ele>-45.0</ele><time>2022-10-30T13:42:32.0000000+00:00</time></trkpt><trkpt lat="39.46715584" lon="-0.37610513"><ele>-45.0</ele><time>2022-10-30T13:42:33.0000000+00:00</time></trkpt><trkpt lat="39.46716598" lon="-0.37611326"><ele>-45.0</ele><time>2022-10-30T13:42:34.0000000+00:00</time></trkpt><trkpt lat="39.46717705" lon="-0.37611796"><ele>-45.0</ele><time>2022-10-30T13:42:35.0000000+00:00</time></trkpt><trkpt lat="39.46717981" lon="-0.37613045"><ele>-45.0</ele><time>2022-10-30T13:42:36.0000000+00:00</time></trkpt><trkpt lat="39.46718342" lon="-0.37614503"><ele>-45.0</ele><time>2022-10-30T13:42:37.0000000+00:00</time></trkpt><trkpt lat="39.46718677" lon="-0.37615961"><ele>-45.2</ele><time>2022-10-30T13:42:38.0000000+00:00</time></trkpt><trkpt lat="39.46718794" lon="-0.37617562"><ele>-45.2</ele><time>2022-10-30T13:42:39.0000000+00:00</time></trkpt><trkpt lat="39.46719029" lon="-0.37619012"><ele>-45.2</ele><time>2022-10-30T13:42:40.0000000+00:00</time></trkpt><trkpt lat="39.46719498" lon="-0.37620169"><ele>-45.2</ele><time>2022-10-30T13:42:41.0000000+00:00</time></trkpt><trkpt lat="39.46719708" lon="-0.3762177"><ele>-45.2</ele><time>2022-10-30T13:42:42.0000000+00:00</time></trkpt><trkpt lat="39.46719867" lon="-0.37622885"><ele>-45.2</ele><time>2022-10-30T13:42:43.0000000+00:00</time></trkpt><trkpt lat="39.46720655" lon="-0.37622885"><ele>-45.2</ele><time>2022-10-30T13:42:44.0000000+00:00</time></trkpt><trkpt lat="39.46721292" lon="-0.37622206"><ele>-45.2</ele><time>2022-10-30T13:42:45.0000000+00:00</time></trkpt><trkpt lat="39.46722373" lon="-0.37621988"><ele>-45.0</ele><time>2022-10-30T13:42:46.0000000+00:00</time></trkpt><trkpt lat="39.46722784" lon="-0.37621753"><ele>-45.0</ele><time>2022-10-30T13:42:47.0000000+00:00</time></trkpt><trkpt lat="39.4672286" lon="-0.37621896"><ele>-45.0</ele><time>2022-10-30T13:42:48.0000000+00:00</time></trkpt><trkpt lat="39.4672286" lon="-0.37621988"><ele>-45.0</ele><time>2022-10-30T13:42:49.0000000+00:00</time></trkpt><trkpt lat="39.46722985" lon="-0.3762198"><ele>-45.0</ele><time>2022-10-30T13:42:50.0000000+00:00</time></trkpt><trkpt lat="39.46723044" lon="-0.37622013"><ele>-45.0</ele><time>2022-10-30T13:42:51.0000000+00:00</time></trkpt><trkpt lat="39.46723153" lon="-0.37622022"><ele>-45.0</ele><time>2022-10-30T13:42:52.0000000+00:00</time></trkpt><trkpt lat="39.46722751" lon="-0.37622055"><ele>-45.0</ele><time>2022-10-30T13:42:53.0000000+00:00</time></trkpt><trkpt lat="39.46722197" lon="-0.37622198"><ele>-45.0</ele><time>2022-10-30T13:42:54.0000000+00:00</time></trkpt><trkpt lat="39.46721694" lon="-0.3762229"><ele>-45.2</ele><time>2022-10-30T13:42:55.0000000+00:00</time></trkpt><trkpt lat="39.46721871" lon="-0.37622214"><ele>-45.2</ele><time>2022-10-30T13:42:56.0000000+00:00</time></trkpt><trkpt lat="39.46721871" lon="-0.37622214"><ele>-45.2</ele><time>2022-10-30T13:42:57.0000000+00:00</time></trkpt><trkpt lat="39.46721871" lon="-0.37622214"><ele>-45.2</ele><time>2022-10-30T13:42:58.0000000+00:00</time></trkpt><trkpt lat="39.46721871" lon="-0.37622214"><ele>-45.2</ele><time>2022-10-30T13:42:59.0000000+00:00</time></trkpt><trkpt lat="39.46721871" lon="-0.37622214"><ele>-45.2</ele><time>2022-10-30T13:43:00.0000000+00:00</time></trkpt><trkpt lat="39.46721871" lon="-0.37622214"><ele>-45.2</ele><time>2022-10-30T13:43:01.0000000+00:00</time></trkpt><trkpt lat="39.46721871" lon="-0.37622214"><ele>-45.2</ele><time>2022-10-30T13:43:02.0000000+00:00</time></trkpt><trkpt lat="39.46721871" lon="-0.37622214"><ele>-45.2</ele><time>2022-10-30T13:43:03.0000000+00:00</time></trkpt><trkpt lat="39.46721871" lon="-0.37622214"><ele>-45.2</ele><time>2022-10-30T13:43:04.0000000+00:00</time></trkpt><trkpt lat="39.46721871" lon="-0.37622214"><ele>-45.2</ele><time>2022-10-30T13:43:05.0000000+00:00</time></trkpt><trkpt lat="39.46721871" lon="-0.37622214"><ele>-45.2</ele><time>2022-10-30T13:43:06.0000000+00:00</time></trkpt><trkpt lat="39.46721871" lon="-0.37622214"><ele>-45.2</ele><time>2022-10-30T13:43:07.0000000+00:00</time></trkpt><trkpt lat="39.46721871" lon="-0.37622214"><ele>-45.2</ele><time>2022-10-30T13:43:08.0000000+00:00</time></trkpt><trkpt lat="39.46721871" lon="-0.37622214"><ele>-45.2</ele><time>2022-10-30T13:43:09.0000000+00:00</time></trkpt><trkpt lat="39.46721871" lon="-0.37622214"><ele>-45.2</ele><time>2022-10-30T13:43:10.0000000+00:00</time></trkpt><trkpt lat="39.46721711" lon="-0.37622231"><ele>-45.2</ele><time>2022-10-30T13:43:11.0000000+00:00</time></trkpt><trkpt lat="39.46721678" lon="-0.3762229"><ele>-45.2</ele><time>2022-10-30T13:43:12.0000000+00:00</time></trkpt><trkpt lat="39.46721141" lon="-0.37622608"><ele>-45.2</ele><time>2022-10-30T13:43:13.0000000+00:00</time></trkpt><trkpt lat="39.46720689" lon="-0.37622659"><ele>-45.2</ele><time>2022-10-30T13:43:14.0000000+00:00</time></trkpt><trkpt lat="39.46720429" lon="-0.37622684"><ele>-45.2</ele><time>2022-10-30T13:43:15.0000000+00:00</time></trkpt><trkpt lat="39.46720261" lon="-0.37622994"><ele>-45.2</ele><time>2022-10-30T13:43:16.0000000+00:00</time></trkpt><trkpt lat="39.46719683" lon="-0.37623991"><ele>-45.2</ele><time>2022-10-30T13:43:17.0000000+00:00</time></trkpt><trkpt lat="39.46719725" lon="-0.37625165"><ele>-45.2</ele><time>2022-10-30T13:43:18.0000000+00:00</time></trkpt><trkpt lat="39.46719314" lon="-0.37626204"><ele>-45.2</ele><time>2022-10-30T13:43:19.0000000+00:00</time></trkpt><trkpt lat="39.4671897" lon="-0.37627621"><ele>-45.2</ele><time>2022-10-30T13:43:20.0000000+00:00</time></trkpt><trkpt lat="39.46718283" lon="-0.37629372"><ele>-45.2</ele><time>2022-10-30T13:43:21.0000000+00:00</time></trkpt><trkpt lat="39.46717688" lon="-0.37631191"><ele>-45.2</ele><time>2022-10-30T13:43:22.0000000+00:00</time></trkpt><trkpt lat="39.46717235" lon="-0.37632834"><ele>-45.2</ele><time>2022-10-30T13:43:23.0000000+00:00</time></trkpt><trkpt lat="39.46717168" lon="-0.37634511"><ele>-45.2</ele><time>2022-10-30T13:43:24.0000000+00:00</time></trkpt><trkpt lat="39.46717219" lon="-0.37636254"><ele>-45.2</ele><time>2022-10-30T13:43:25.0000000+00:00</time></trkpt><trkpt lat="39.46716867" lon="-0.37637176"><ele>-45.2</ele><time>2022-10-30T13:43:26.0000000+00:00</time></trkpt><trkpt lat="39.46716104" lon="-0.37638249"><ele>-45.2</ele><time>2022-10-30T13:43:27.0000000+00:00</time></trkpt><trkpt lat="39.46715827" lon="-0.37639825"><ele>-45.2</ele><time>2022-10-30T13:43:28.0000000+00:00</time></trkpt><trkpt lat="39.46716431" lon="-0.3764125"><ele>-45.2</ele><time>2022-10-30T13:43:29.0000000+00:00</time></trkpt><trkpt lat="39.46716984" lon="-0.37642415"><ele>-45.2</ele><time>2022-10-30T13:43:30.0000000+00:00</time></trkpt><trkpt lat="39.46717051" lon="-0.37643898"><ele>-45.2</ele><time>2022-10-30T13:43:31.0000000+00:00</time></trkpt><trkpt lat="39.46716364" lon="-0.37645332"><ele>-45.2</ele><time>2022-10-30T13:43:32.0000000+00:00</time></trkpt><trkpt lat="39.46716464" lon="-0.37647033"><ele>-45.2</ele><time>2022-10-30T13:43:33.0000000+00:00</time></trkpt><trkpt lat="39.46716833" lon="-0.3764855"><ele>-45.2</ele><time>2022-10-30T13:43:34.0000000+00:00</time></trkpt><trkpt lat="39.4671695" lon="-0.37650093"><ele>-45.2</ele><time>2022-10-30T13:43:35.0000000+00:00</time></trkpt><trkpt lat="39.46716892" lon="-0.37651987"><ele>-45.2</ele><time>2022-10-30T13:43:36.0000000+00:00</time></trkpt><trkpt lat="39.46716808" lon="-0.37654099"><ele>-45.2</ele><time>2022-10-30T13:43:37.0000000+00:00</time></trkpt><trkpt lat="39.46717051" lon="-0.37656144"><ele>-45.2</ele><time>2022-10-30T13:43:38.0000000+00:00</time></trkpt><trkpt lat="39.46717101" lon="-0.37658332"><ele>-45.2</ele><time>2022-10-30T13:43:39.0000000+00:00</time></trkpt><trkpt lat="39.46717512" lon="-0.37658952"><ele>-45.2</ele><time>2022-10-30T13:43:40.0000000+00:00</time></trkpt><trkpt lat="39.46717512" lon="-0.37659631"><ele>-45.2</ele><time>2022-10-30T13:43:41.0000000+00:00</time></trkpt><trkpt lat="39.46717017" lon="-0.37660352"><ele>-45.2</ele><time>2022-10-30T13:43:42.0000000+00:00</time></trkpt><trkpt lat="39.46716875" lon="-0.3766057"><ele>-45.2</ele><time>2022-10-30T13:43:43.0000000+00:00</time></trkpt><trkpt lat="39.46716707" lon="-0.37660738"><ele>-45.2</ele><time>2022-10-30T13:43:44.0000000+00:00</time></trkpt><trkpt lat="39.46716741" lon="-0.37660956"><ele>-45.2</ele><time>2022-10-30T13:43:45.0000000+00:00</time></trkpt><trkpt lat="39.46716456" lon="-0.37661567"><ele>-45.0</ele><time>2022-10-30T13:43:46.0000000+00:00</time></trkpt><trkpt lat="39.46716447" lon="-0.37662481"><ele>-45.0</ele><time>2022-10-30T13:43:47.0000000+00:00</time></trkpt><trkpt lat="39.46716766" lon="-0.37663663"><ele>-45.2</ele><time>2022-10-30T13:43:48.0000000+00:00</time></trkpt><trkpt lat="39.46716699" lon="-0.37665465"><ele>-45.2</ele><time>2022-10-30T13:43:49.0000000+00:00</time></trkpt><trkpt lat="39.46717378" lon="-0.37666052"><ele>-45.2</ele><time>2022-10-30T13:43:50.0000000+00:00</time></trkpt><trkpt lat="39.46719138" lon="-0.37667007"><ele>-45.2</ele><time>2022-10-30T13:43:51.0000000+00:00</time></trkpt><trkpt lat="39.46720856" lon="-0.37667091"><ele>-45.2</ele><time>2022-10-30T13:43:52.0000000+00:00</time></trkpt><trkpt lat="39.46721091" lon="-0.37668013"><ele>-45.2</ele><time>2022-10-30T13:43:53.0000000+00:00</time></trkpt><trkpt lat="39.46720781" lon="-0.37668943"><ele>-45.2</ele><time>2022-10-30T13:43:54.0000000+00:00</time></trkpt><trkpt lat="39.46721267" lon="-0.37669639"><ele>-45.0</ele><time>2022-10-30T13:43:55.0000000+00:00</time></trkpt><trkpt lat="39.46721552" lon="-0.37670477"><ele>-45.0</ele><time>2022-10-30T13:43:56.0000000+00:00</time></trkpt><trkpt lat="39.46721753" lon="-0.37671005"><ele>-45.0</ele><time>2022-10-30T13:43:57.0000000+00:00</time></trkpt><trkpt lat="39.46722114" lon="-0.37671793"><ele>-45.0</ele><time>2022-10-30T13:43:58.0000000+00:00</time></trkpt><trkpt lat="39.46722214" lon="-0.3767238"><ele>-45.0</ele><time>2022-10-30T13:43:59.0000000+00:00</time></trkpt><trkpt lat="39.46721988" lon="-0.37672933"><ele>-44.8</ele><time>2022-10-30T13:44:00.0000000+00:00</time></trkpt><trkpt lat="39.46721569" lon="-0.37673906"><ele>-44.8</ele><time>2022-10-30T13:44:01.0000000+00:00</time></trkpt><trkpt lat="39.46721066" lon="-0.37675029"><ele>-44.8</ele><time>2022-10-30T13:44:02.0000000+00:00</time></trkpt><trkpt lat="39.46720454" lon="-0.37676395"><ele>-44.8</ele><time>2022-10-30T13:44:03.0000000+00:00</time></trkpt><trkpt lat="39.4672006" lon="-0.37677418"><ele>-44.8</ele><time>2022-10-30T13:44:04.0000000+00:00</time></trkpt><trkpt lat="39.46719733" lon="-0.3767849"><ele>-44.8</ele><time>2022-10-30T13:44:05.0000000+00:00</time></trkpt><trkpt lat="39.46719088" lon="-0.37680234"><ele>-44.8</ele><time>2022-10-30T13:44:06.0000000+00:00</time></trkpt><trkpt lat="39.46718216" lon="-0.37681583"><ele>-44.6</ele><time>2022-10-30T13:44:07.0000000+00:00</time></trkpt><trkpt lat="39.4671783" lon="-0.37682514"><ele>-44.6</ele><time>2022-10-30T13:44:08.0000000+00:00</time></trkpt><trkpt lat="39.46717487" lon="-0.3768331"><ele>-44.6</ele><time>2022-10-30T13:44:09.0000000+00:00</time></trkpt><trkpt lat="39.46716959" lon="-0.37684986"><ele>-44.6</ele><time>2022-10-30T13:44:10.0000000+00:00</time></trkpt><trkpt lat="39.46716305" lon="-0.37686436"><ele>-44.6</ele><time>2022-10-30T13:44:11.0000000+00:00</time></trkpt><trkpt lat="39.46715961" lon="-0.376873"><ele>-44.6</ele><time>2022-10-30T13:44:12.0000000+00:00</time></trkpt><trkpt lat="39.46715551" lon="-0.376887"><ele>-44.6</ele><time>2022-10-30T13:44:13.0000000+00:00</time></trkpt><trkpt lat="39.46715123" lon="-0.37690326"><ele>-44.6</ele><time>2022-10-30T13:44:14.0000000+00:00</time></trkpt><trkpt lat="39.46714696" lon="-0.3769186"><ele>-44.6</ele><time>2022-10-30T13:44:15.0000000+00:00</time></trkpt><trkpt lat="39.46714268" lon="-0.37693251"><ele>-44.6</ele><time>2022-10-30T13:44:16.0000000+00:00</time></trkpt><trkpt lat="39.46713908" lon="-0.37694684"><ele>-44.6</ele><time>2022-10-30T13:44:17.0000000+00:00</time></trkpt><trkpt lat="39.46713028" lon="-0.37695799"><ele>-44.6</ele><time>2022-10-30T13:44:18.0000000+00:00</time></trkpt><trkpt lat="39.46712416" lon="-0.3769709"><ele>-44.6</ele><time>2022-10-30T13:44:19.0000000+00:00</time></trkpt><trkpt lat="39.46711678" lon="-0.37697769"><ele>-44.6</ele><time>2022-10-30T13:44:20.0000000+00:00</time></trkpt><trkpt lat="39.46710572" lon="-0.37697827"><ele>-44.6</ele><time>2022-10-30T13:44:21.0000000+00:00</time></trkpt><trkpt lat="39.46709817" lon="-0.37697978"><ele>-44.6</ele><time>2022-10-30T13:44:22.0000000+00:00</time></trkpt><trkpt lat="39.46709373" lon="-0.37699001"><ele>-44.6</ele><time>2022-10-30T13:44:23.0000000+00:00</time></trkpt><trkpt lat="39.46708795" lon="-0.37699604"><ele>-44.6</ele><time>2022-10-30T13:44:24.0000000+00:00</time></trkpt><trkpt lat="39.46707789" lon="-0.37700007"><ele>-44.6</ele><time>2022-10-30T13:44:25.0000000+00:00</time></trkpt><trkpt lat="39.46707504" lon="-0.37700367"><ele>-44.6</ele><time>2022-10-30T13:44:26.0000000+00:00</time></trkpt><trkpt lat="39.46707211" lon="-0.37700426"><ele>-44.6</ele><time>2022-10-30T13:44:27.0000000+00:00</time></trkpt><trkpt lat="39.46706129" lon="-0.37700845"><ele>-44.8</ele><time>2022-10-30T13:44:28.0000000+00:00</time></trkpt><trkpt lat="39.46706113" lon="-0.37701306"><ele>-44.8</ele><time>2022-10-30T13:44:29.0000000+00:00</time></trkpt><trkpt lat="39.46705928" lon="-0.37701197"><ele>-44.8</ele><time>2022-10-30T13:44:30.0000000+00:00</time></trkpt><trkpt lat="39.46704872" lon="-0.37700476"><ele>-44.8</ele><time>2022-10-30T13:44:31.0000000+00:00</time></trkpt><trkpt lat="39.4670457" lon="-0.37700669"><ele>-44.8</ele><time>2022-10-30T13:44:32.0000000+00:00</time></trkpt><trkpt lat="39.46704553" lon="-0.37700837"><ele>-44.8</ele><time>2022-10-30T13:44:33.0000000+00:00</time></trkpt><trkpt lat="39.46704419" lon="-0.3770087"><ele>-44.8</ele><time>2022-10-30T13:44:34.0000000+00:00</time></trkpt><trkpt lat="39.46705299" lon="-0.37700174"><ele>-44.8</ele><time>2022-10-30T13:44:35.0000000+00:00</time></trkpt><trkpt lat="39.46706196" lon="-0.37699621"><ele>-44.8</ele><time>2022-10-30T13:44:36.0000000+00:00</time></trkpt><trkpt lat="39.46706054" lon="-0.37699361"><ele>-44.8</ele><time>2022-10-30T13:44:37.0000000+00:00</time></trkpt><trkpt lat="39.46706498" lon="-0.37698431"><ele>-44.8</ele><time>2022-10-30T13:44:38.0000000+00:00</time></trkpt><trkpt lat="39.46707588" lon="-0.3769859"><ele>-44.8</ele><time>2022-10-30T13:44:39.0000000+00:00</time></trkpt><trkpt lat="39.4670649" lon="-0.37697928"><ele>-44.8</ele><time>2022-10-30T13:44:40.0000000+00:00</time></trkpt><trkpt lat="39.46706087" lon="-0.37697827"><ele>-44.8</ele><time>2022-10-30T13:44:41.0000000+00:00</time></trkpt><trkpt lat="39.46706071" lon="-0.37697978"><ele>-44.8</ele><time>2022-10-30T13:44:42.0000000+00:00</time></trkpt><trkpt lat="39.4670576" lon="-0.37697601"><ele>-45.0</ele><time>2022-10-30T13:44:43.0000000+00:00</time></trkpt><trkpt lat="39.4670473" lon="-0.37697065"><ele>-45.0</ele><time>2022-10-30T13:44:44.0000000+00:00</time></trkpt><trkpt lat="39.46704461" lon="-0.37696436"><ele>-45.0</ele><time>2022-10-30T13:44:45.0000000+00:00</time></trkpt><trkpt lat="39.46704336" lon="-0.37696294"><ele>-45.0</ele><time>2022-10-30T13:44:46.0000000+00:00</time></trkpt><trkpt lat="39.4670488" lon="-0.37695766"><ele>-45.0</ele><time>2022-10-30T13:44:47.0000000+00:00</time></trkpt><trkpt lat="39.46704981" lon="-0.37695673"><ele>-45.2</ele><time>2022-10-30T13:44:48.0000000+00:00</time></trkpt><trkpt lat="39.4670545" lon="-0.37695397"><ele>-45.2</ele><time>2022-10-30T13:44:49.0000000+00:00</time></trkpt><trkpt lat="39.46705584" lon="-0.37695539"><ele>-45.2</ele><time>2022-10-30T13:44:50.0000000+00:00</time></trkpt><trkpt lat="39.46706188" lon="-0.37695221"><ele>-45.2</ele><time>2022-10-30T13:44:51.0000000+00:00</time></trkpt><trkpt lat="39.46705509" lon="-0.3769455"><ele>-45.2</ele><time>2022-10-30T13:44:52.0000000+00:00</time></trkpt><trkpt lat="39.46705191" lon="-0.37694324"><ele>-45.2</ele><time>2022-10-30T13:44:53.0000000+00:00</time></trkpt><trkpt lat="39.46704931" lon="-0.37693905"><ele>-45.2</ele><time>2022-10-30T13:44:54.0000000+00:00</time></trkpt><trkpt lat="39.46704386" lon="-0.37693611"><ele>-45.2</ele><time>2022-10-30T13:44:55.0000000+00:00</time></trkpt><trkpt lat="39.46704327" lon="-0.37693025"><ele>-45.2</ele><time>2022-10-30T13:44:56.0000000+00:00</time></trkpt><trkpt lat="39.46702391" lon="-0.37692262"><ele>-45.2</ele><time>2022-10-30T13:44:57.0000000+00:00</time></trkpt><trkpt lat="39.46702072" lon="-0.37691851"><ele>-45.2</ele><time>2022-10-30T13:44:58.0000000+00:00</time></trkpt><trkpt lat="39.46700824" lon="-0.37691273"><ele>-45.2</ele><time>2022-10-30T13:44:59.0000000+00:00</time></trkpt><trkpt lat="39.46699608" lon="-0.37691005"><ele>-45.2</ele><time>2022-10-30T13:45:00.0000000+00:00</time></trkpt><trkpt lat="39.46696482" lon="-0.37691047"><ele>-45.2</ele><time>2022-10-30T13:45:01.0000000+00:00</time></trkpt><trkpt lat="39.46697219" lon="-0.37691248"><ele>-45.2</ele><time>2022-10-30T13:45:02.0000000+00:00</time></trkpt><trkpt lat="39.46696968" lon="-0.37691549"><ele>-45.2</ele><time>2022-10-30T13:45:03.0000000+00:00</time></trkpt><trkpt lat="39.46697119" lon="-0.37691223"><ele>-45.2</ele><time>2022-10-30T13:45:04.0000000+00:00</time></trkpt><trkpt lat="39.46696851" lon="-0.37690803"><ele>-45.0</ele><time>2022-10-30T13:45:05.0000000+00:00</time></trkpt><trkpt lat="39.46698242" lon="-0.37690762"><ele>-45.0</ele><time>2022-10-30T13:45:06.0000000+00:00</time></trkpt><trkpt lat="39.46699541" lon="-0.37691021"><ele>-45.0</ele><time>2022-10-30T13:45:07.0000000+00:00</time></trkpt><trkpt lat="39.46699868" lon="-0.3769113"><ele>-45.0</ele><time>2022-10-30T13:45:08.0000000+00:00</time></trkpt><trkpt lat="39.46700689" lon="-0.37690586"><ele>-45.0</ele><time>2022-10-30T13:45:09.0000000+00:00</time></trkpt><trkpt lat="39.46701553" lon="-0.37690275"><ele>-45.0</ele><time>2022-10-30T13:45:10.0000000+00:00</time></trkpt><trkpt lat="39.46702726" lon="-0.37689714"><ele>-44.8</ele><time>2022-10-30T13:45:11.0000000+00:00</time></trkpt><trkpt lat="39.46702131" lon="-0.37689345"><ele>-44.8</ele><time>2022-10-30T13:45:12.0000000+00:00</time></trkpt><trkpt lat="39.46700941" lon="-0.37689286"><ele>-44.8</ele><time>2022-10-30T13:45:13.0000000+00:00</time></trkpt><trkpt lat="39.46700329" lon="-0.37689387"><ele>-44.8</ele><time>2022-10-30T13:45:14.0000000+00:00</time></trkpt><trkpt lat="39.46700396" lon="-0.37689362"><ele>-44.8</ele><time>2022-10-30T13:45:15.0000000+00:00</time></trkpt><trkpt lat="39.46702098" lon="-0.3768927"><ele>-45.0</ele><time>2022-10-30T13:45:16.0000000+00:00</time></trkpt><trkpt lat="39.46702961" lon="-0.37688834"><ele>-45.0</ele><time>2022-10-30T13:45:17.0000000+00:00</time></trkpt><trkpt lat="39.46704553" lon="-0.37688834"><ele>-45.0</ele><time>2022-10-30T13:45:18.0000000+00:00</time></trkpt><trkpt lat="39.46706037" lon="-0.37689144"><ele>-45.0</ele><time>2022-10-30T13:45:19.0000000+00:00</time></trkpt><trkpt lat="39.46709708" lon="-0.37689865"><ele>-45.0</ele><time>2022-10-30T13:45:20.0000000+00:00</time></trkpt><trkpt lat="39.46709407" lon="-0.37689479"><ele>-45.0</ele><time>2022-10-30T13:45:21.0000000+00:00</time></trkpt><trkpt lat="39.46711787" lon="-0.37689479"><ele>-45.2</ele><time>2022-10-30T13:45:22.0000000+00:00</time></trkpt><trkpt lat="39.46713748" lon="-0.37689622"><ele>-45.2</ele><time>2022-10-30T13:45:23.0000000+00:00</time></trkpt><trkpt lat="39.46713455" lon="-0.3768937"><ele>-45.2</ele><time>2022-10-30T13:45:24.0000000+00:00</time></trkpt><trkpt lat="39.4671483" lon="-0.37689203"><ele>-45.2</ele><time>2022-10-30T13:45:25.0000000+00:00</time></trkpt><trkpt lat="39.46715743" lon="-0.37689077"><ele>-45.2</ele><time>2022-10-30T13:45:26.0000000+00:00</time></trkpt><trkpt lat="39.46716556" lon="-0.37689085"><ele>-45.2</ele><time>2022-10-30T13:45:27.0000000+00:00</time></trkpt><trkpt lat="39.46716783" lon="-0.37689211"><ele>-45.0</ele><time>2022-10-30T13:45:28.0000000+00:00</time></trkpt><trkpt lat="39.4671716" lon="-0.37689295"><ele>-45.2</ele><time>2022-10-30T13:45:29.0000000+00:00</time></trkpt><trkpt lat="39.46717395" lon="-0.37688842"><ele>-45.2</ele><time>2022-10-30T13:45:30.0000000+00:00</time></trkpt><trkpt lat="39.46717604" lon="-0.37687015"><ele>-45.2</ele><time>2022-10-30T13:45:31.0000000+00:00</time></trkpt><trkpt lat="39.46720613" lon="-0.37688389"><ele>-45.2</ele><time>2022-10-30T13:45:32.0000000+00:00</time></trkpt><trkpt lat="39.46722466" lon="-0.37688431"><ele>-45.2</ele><time>2022-10-30T13:45:33.0000000+00:00</time></trkpt><trkpt lat="39.46721627" lon="-0.37688063"><ele>-45.2</ele><time>2022-10-30T13:45:34.0000000+00:00</time></trkpt><trkpt lat="39.46721435" lon="-0.3768823"><ele>-45.2</ele><time>2022-10-30T13:45:35.0000000+00:00</time></trkpt><trkpt lat="39.46721083" lon="-0.37688021"><ele>-45.2</ele><time>2022-10-30T13:45:36.0000000+00:00</time></trkpt><trkpt lat="39.46721342" lon="-0.37688046"><ele>-45.2</ele><time>2022-10-30T13:45:37.0000000+00:00</time></trkpt><trkpt lat="39.46720982" lon="-0.37687685"><ele>-45.2</ele><time>2022-10-30T13:45:38.0000000+00:00</time></trkpt><trkpt lat="39.46720521" lon="-0.37687283"><ele>-45.2</ele><time>2022-10-30T13:45:39.0000000+00:00</time></trkpt><trkpt lat="39.46720043" lon="-0.37687836"><ele>-45.2</ele><time>2022-10-30T13:45:40.0000000+00:00</time></trkpt><trkpt lat="39.46719842" lon="-0.37687006"><ele>-45.2</ele><time>2022-10-30T13:45:41.0000000+00:00</time></trkpt><trkpt lat="39.46718199" lon="-0.37686881"><ele>-45.2</ele><time>2022-10-30T13:45:42.0000000+00:00</time></trkpt><trkpt lat="39.46718023" lon="-0.3768678"><ele>-45.2</ele><time>2022-10-30T13:45:43.0000000+00:00</time></trkpt><trkpt lat="39.46718224" lon="-0.37686789"><ele>-45.2</ele><time>2022-10-30T13:45:44.0000000+00:00</time></trkpt><trkpt lat="39.46715525" lon="-0.37687375"><ele>-45.2</ele><time>2022-10-30T13:45:45.0000000+00:00</time></trkpt><trkpt lat="39.46713639" lon="-0.37687912"><ele>-45.2</ele><time>2022-10-30T13:45:46.0000000+00:00</time></trkpt><trkpt lat="39.46712441" lon="-0.37687727"><ele>-45.0</ele><time>2022-10-30T13:45:47.0000000+00:00</time></trkpt><trkpt lat="39.46711267" lon="-0.37688054"><ele>-45.0</ele><time>2022-10-30T13:45:48.0000000+00:00</time></trkpt><trkpt lat="39.46711033" lon="-0.37688088"><ele>-45.0</ele><time>2022-10-30T13:45:49.0000000+00:00</time></trkpt><trkpt lat="39.46710371" lon="-0.37688524"><ele>-45.0</ele><time>2022-10-30T13:45:50.0000000+00:00</time></trkpt><trkpt lat="39.4670887" lon="-0.37689261"><ele>-45.0</ele><time>2022-10-30T13:45:51.0000000+00:00</time></trkpt><trkpt lat="39.46707722" lon="-0.3768994"><ele>-45.0</ele><time>2022-10-30T13:45:52.0000000+00:00</time></trkpt><trkpt lat="39.46705953" lon="-0.3769108"><ele>-45.0</ele><time>2022-10-30T13:45:53.0000000+00:00</time></trkpt><trkpt lat="39.4670426" lon="-0.37691625"><ele>-45.0</ele><time>2022-10-30T13:45:54.0000000+00:00</time></trkpt><trkpt lat="39.46702693" lon="-0.3769227"><ele>-45.0</ele><time>2022-10-30T13:45:55.0000000+00:00</time></trkpt><trkpt lat="39.46701637" lon="-0.37692765"><ele>-45.0</ele><time>2022-10-30T13:45:56.0000000+00:00</time></trkpt><trkpt lat="39.46700371" lon="-0.37693226"><ele>-45.0</ele><time>2022-10-30T13:45:57.0000000+00:00</time></trkpt><trkpt lat="39.46699139" lon="-0.37693804"><ele>-45.0</ele><time>2022-10-30T13:45:58.0000000+00:00</time></trkpt><trkpt lat="39.46697027" lon="-0.37694533"><ele>-45.0</ele><time>2022-10-30T13:45:59.0000000+00:00</time></trkpt><trkpt lat="39.46694428" lon="-0.37696193"><ele>-45.0</ele><time>2022-10-30T13:46:00.0000000+00:00</time></trkpt><trkpt lat="39.46691888" lon="-0.37697383"><ele>-45.2</ele><time>2022-10-30T13:46:01.0000000+00:00</time></trkpt><trkpt lat="39.46688913" lon="-0.37698272"><ele>-45.2</ele><time>2022-10-30T13:46:02.0000000+00:00</time></trkpt><trkpt lat="39.46685669" lon="-0.37698708"><ele>-45.2</ele><time>2022-10-30T13:46:03.0000000+00:00</time></trkpt><trkpt lat="39.46682459" lon="-0.37699194"><ele>-45.2</ele><time>2022-10-30T13:46:04.0000000+00:00</time></trkpt><trkpt lat="39.46678578" lon="-0.37700401"><ele>-45.2</ele><time>2022-10-30T13:46:05.0000000+00:00</time></trkpt><trkpt lat="39.46675384" lon="-0.37702044"><ele>-45.2</ele><time>2022-10-30T13:46:06.0000000+00:00</time></trkpt><trkpt lat="39.46672862" lon="-0.37703862"><ele>-45.2</ele><time>2022-10-30T13:46:07.0000000+00:00</time></trkpt><trkpt lat="39.46669852" lon="-0.37705983"><ele>-45.2</ele><time>2022-10-30T13:46:08.0000000+00:00</time></trkpt><trkpt lat="39.46666466" lon="-0.37708012"><ele>-45.2</ele><time>2022-10-30T13:46:09.0000000+00:00</time></trkpt><trkpt lat="39.46664337" lon="-0.37708489"><ele>-45.2</ele><time>2022-10-30T13:46:10.0000000+00:00</time></trkpt><trkpt lat="39.46661353" lon="-0.37709327"><ele>-45.2</ele><time>2022-10-30T13:46:11.0000000+00:00</time></trkpt><trkpt lat="39.46659375" lon="-0.37709646"><ele>-45.2</ele><time>2022-10-30T13:46:12.0000000+00:00</time></trkpt><trkpt lat="39.46657665" lon="-0.3770947"><ele>-45.2</ele><time>2022-10-30T13:46:13.0000000+00:00</time></trkpt><trkpt lat="39.46656844" lon="-0.37709948"><ele>-45.2</ele><time>2022-10-30T13:46:14.0000000+00:00</time></trkpt><trkpt lat="39.46656785" lon="-0.37710467"><ele>-45.2</ele><time>2022-10-30T13:46:15.0000000+00:00</time></trkpt><trkpt lat="39.46656299" lon="-0.37710861"><ele>-45.2</ele><time>2022-10-30T13:46:16.0000000+00:00</time></trkpt><trkpt lat="39.46655897" lon="-0.37711314"><ele>-45.2</ele><time>2022-10-30T13:46:17.0000000+00:00</time></trkpt><trkpt lat="39.46654857" lon="-0.37712395"><ele>-45.2</ele><time>2022-10-30T13:46:18.0000000+00:00</time></trkpt><trkpt lat="39.46653692" lon="-0.37713401"><ele>-45.2</ele><time>2022-10-30T13:46:19.0000000+00:00</time></trkpt><trkpt lat="39.46653407" lon="-0.37713577"><ele>-45.2</ele><time>2022-10-30T13:46:20.0000000+00:00</time></trkpt><trkpt lat="39.46653441" lon="-0.37713577"><ele>-45.2</ele><time>2022-10-30T13:46:21.0000000+00:00</time></trkpt><trkpt lat="39.46653407" lon="-0.37713653"><ele>-45.2</ele><time>2022-10-30T13:46:22.0000000+00:00</time></trkpt><trkpt lat="39.46653415" lon="-0.37713761"><ele>-45.2</ele><time>2022-10-30T13:46:23.0000000+00:00</time></trkpt><trkpt lat="39.46653415" lon="-0.37713854"><ele>-45.2</ele><time>2022-10-30T13:46:24.0000000+00:00</time></trkpt><trkpt lat="39.46653399" lon="-0.37713879"><ele>-45.4</ele><time>2022-10-30T13:46:25.0000000+00:00</time></trkpt><trkpt lat="39.46653424" lon="-0.37713845"><ele>-45.4</ele><time>2022-10-30T13:46:26.0000000+00:00</time></trkpt><trkpt lat="39.46653508" lon="-0.37713862"><ele>-45.4</ele><time>2022-10-30T13:46:27.0000000+00:00</time></trkpt><trkpt lat="39.46653449" lon="-0.37713921"><ele>-45.4</ele><time>2022-10-30T13:46:28.0000000+00:00</time></trkpt><trkpt lat="39.46653592" lon="-0.37714147"><ele>-45.4</ele><time>2022-10-30T13:46:29.0000000+00:00</time></trkpt><trkpt lat="39.46653809" lon="-0.37714206"><ele>-45.4</ele><time>2022-10-30T13:46:30.0000000+00:00</time></trkpt><trkpt lat="39.46654589" lon="-0.37713996"><ele>-45.4</ele><time>2022-10-30T13:46:31.0000000+00:00</time></trkpt><trkpt lat="39.46654807" lon="-0.37715061"><ele>-45.4</ele><time>2022-10-30T13:46:32.0000000+00:00</time></trkpt><trkpt lat="39.46654011" lon="-0.37716662"><ele>-45.4</ele><time>2022-10-30T13:46:33.0000000+00:00</time></trkpt><trkpt lat="39.46653499" lon="-0.37718531"><ele>-45.4</ele><time>2022-10-30T13:46:34.0000000+00:00</time></trkpt><trkpt lat="39.46652385" lon="-0.37719998"><ele>-45.4</ele><time>2022-10-30T13:46:35.0000000+00:00</time></trkpt><trkpt lat="39.46651806" lon="-0.3772149"><ele>-45.4</ele><time>2022-10-30T13:46:36.0000000+00:00</time></trkpt><trkpt lat="39.46651622" lon="-0.37722906"><ele>-45.4</ele><time>2022-10-30T13:46:37.0000000+00:00</time></trkpt><trkpt lat="39.4665153" lon="-0.37725278"><ele>-45.4</ele><time>2022-10-30T13:46:38.0000000+00:00</time></trkpt><trkpt lat="39.46650591" lon="-0.37727189"><ele>-45.4</ele><time>2022-10-30T13:46:39.0000000+00:00</time></trkpt><trkpt lat="39.4665013" lon="-0.37728455"><ele>-45.4</ele><time>2022-10-30T13:46:40.0000000+00:00</time></trkpt><trkpt lat="39.46650306" lon="-0.37729352"><ele>-45.4</ele><time>2022-10-30T13:46:41.0000000+00:00</time></trkpt><trkpt lat="39.46650415" lon="-0.37730341"><ele>-45.4</ele><time>2022-10-30T13:46:42.0000000+00:00</time></trkpt><trkpt lat="39.46650582" lon="-0.37730777"><ele>-45.4</ele><time>2022-10-30T13:46:43.0000000+00:00</time></trkpt><trkpt lat="39.46650767" lon="-0.37730928"><ele>-45.4</ele><time>2022-10-30T13:46:44.0000000+00:00</time></trkpt><trkpt lat="39.46650725" lon="-0.3773097"><ele>-45.4</ele><time>2022-10-30T13:46:45.0000000+00:00</time></trkpt><trkpt lat="39.46650851" lon="-0.37731045"><ele>-45.4</ele><time>2022-10-30T13:46:46.0000000+00:00</time></trkpt><trkpt lat="39.46650867" lon="-0.37731255"><ele>-45.4</ele><time>2022-10-30T13:46:47.0000000+00:00</time></trkpt><trkpt lat="39.46650767" lon="-0.37731347"><ele>-45.4</ele><time>2022-10-30T13:46:48.0000000+00:00</time></trkpt><trkpt lat="39.46650423" lon="-0.37731414"><ele>-45.4</ele><time>2022-10-30T13:46:49.0000000+00:00</time></trkpt><trkpt lat="39.4665023" lon="-0.37731447"><ele>-45.4</ele><time>2022-10-30T13:46:50.0000000+00:00</time></trkpt><trkpt lat="39.46649577" lon="-0.37731548"><ele>-45.4</ele><time>2022-10-30T13:46:51.0000000+00:00</time></trkpt><trkpt lat="39.46647615" lon="-0.37732076"><ele>-45.4</ele><time>2022-10-30T13:46:52.0000000+00:00</time></trkpt><trkpt lat="39.46647045" lon="-0.37731942"><ele>-45.4</ele><time>2022-10-30T13:46:53.0000000+00:00</time></trkpt><trkpt lat="39.4664666" lon="-0.37732428"><ele>-45.4</ele><time>2022-10-30T13:46:54.0000000+00:00</time></trkpt><trkpt lat="39.46646157" lon="-0.37731414"><ele>-45.4</ele><time>2022-10-30T13:46:55.0000000+00:00</time></trkpt><trkpt lat="39.46645956" lon="-0.37731665"><ele>-45.4</ele><time>2022-10-30T13:46:56.0000000+00:00</time></trkpt><trkpt lat="39.46645629" lon="-0.3773164"><ele>-45.4</ele><time>2022-10-30T13:46:57.0000000+00:00</time></trkpt><trkpt lat="39.4664531" lon="-0.37731615"><ele>-45.4</ele><time>2022-10-30T13:46:58.0000000+00:00</time></trkpt><trkpt lat="39.46645034" lon="-0.37731598"><ele>-45.4</ele><time>2022-10-30T13:46:59.0000000+00:00</time></trkpt><trkpt lat="39.46645067" lon="-0.37731632"><ele>-45.4</ele><time>2022-10-30T13:47:00.0000000+00:00</time></trkpt><trkpt lat="39.46644807" lon="-0.37731556"><ele>-45.4</ele><time>2022-10-30T13:47:01.0000000+00:00</time></trkpt><trkpt lat="39.46644782" lon="-0.37731531"><ele>-45.4</ele><time>2022-10-30T13:47:02.0000000+00:00</time></trkpt><trkpt lat="39.46644749" lon="-0.37731489"><ele>-45.4</ele><time>2022-10-30T13:47:03.0000000+00:00</time></trkpt><trkpt lat="39.46644715" lon="-0.37731338"><ele>-45.4</ele><time>2022-10-30T13:47:04.0000000+00:00</time></trkpt><trkpt lat="39.46644497" lon="-0.37731238"><ele>-45.4</ele><time>2022-10-30T13:47:05.0000000+00:00</time></trkpt><trkpt lat="39.46644279" lon="-0.37731196"><ele>-45.4</ele><time>2022-10-30T13:47:06.0000000+00:00</time></trkpt><trkpt lat="39.46644304" lon="-0.37731196"><ele>-45.4</ele><time>2022-10-30T13:47:07.0000000+00:00</time></trkpt><trkpt lat="39.46644304" lon="-0.37731196"><ele>-45.4</ele><time>2022-10-30T13:47:08.0000000+00:00</time></trkpt><trkpt lat="39.46644304" lon="-0.37731196"><ele>-45.4</ele><time>2022-10-30T13:47:09.0000000+00:00</time></trkpt><trkpt lat="39.46644304" lon="-0.37731196"><ele>-45.4</ele><time>2022-10-30T13:47:10.0000000+00:00</time></trkpt><trkpt lat="39.46644304" lon="-0.37731196"><ele>-45.4</ele><time>2022-10-30T13:47:11.0000000+00:00</time></trkpt><trkpt lat="39.46644304" lon="-0.37731196"><ele>-45.4</ele><time>2022-10-30T13:47:12.0000000+00:00</time></trkpt><trkpt lat="39.46644304" lon="-0.37731196"><ele>-45.4</ele><time>2022-10-30T13:47:13.0000000+00:00</time></trkpt><trkpt lat="39.46644304" lon="-0.37731196"><ele>-45.4</ele><time>2022-10-30T13:47:14.0000000+00:00</time></trkpt><trkpt lat="39.46644304" lon="-0.37731196"><ele>-45.4</ele><time>2022-10-30T13:47:15.0000000+00:00</time></trkpt><trkpt lat="39.46644304" lon="-0.37731238"><ele>-45.4</ele><time>2022-10-30T13:47:16.0000000+00:00</time></trkpt><trkpt lat="39.46644304" lon="-0.37731338"><ele>-45.4</ele><time>2022-10-30T13:47:17.0000000+00:00</time></trkpt><trkpt lat="39.46644304" lon="-0.37731481"><ele>-45.4</ele><time>2022-10-30T13:47:18.0000000+00:00</time></trkpt><trkpt lat="39.46644304" lon="-0.37731531"><ele>-45.4</ele><time>2022-10-30T13:47:19.0000000+00:00</time></trkpt><trkpt lat="39.46644304" lon="-0.37731556"><ele>-45.4</ele><time>2022-10-30T13:47:20.0000000+00:00</time></trkpt><trkpt lat="39.46644304" lon="-0.37731556"><ele>-45.4</ele><time>2022-10-30T13:47:21.0000000+00:00</time></trkpt><trkpt lat="39.46644279" lon="-0.37731598"><ele>-45.4</ele><time>2022-10-30T13:47:22.0000000+00:00</time></trkpt><trkpt lat="39.46644254" lon="-0.37731632"><ele>-45.4</ele><time>2022-10-30T13:47:23.0000000+00:00</time></trkpt><trkpt lat="39.46643827" lon="-0.37732185"><ele>-45.4</ele><time>2022-10-30T13:47:24.0000000+00:00</time></trkpt><trkpt lat="39.46643684" lon="-0.37732252"><ele>-45.4</ele><time>2022-10-30T13:47:25.0000000+00:00</time></trkpt><trkpt lat="39.46643072" lon="-0.37732495"><ele>-45.4</ele><time>2022-10-30T13:47:26.0000000+00:00</time></trkpt><trkpt lat="39.46641119" lon="-0.37732939"><ele>-45.4</ele><time>2022-10-30T13:47:27.0000000+00:00</time></trkpt><trkpt lat="39.46639468" lon="-0.37733099"><ele>-45.4</ele><time>2022-10-30T13:47:28.0000000+00:00</time></trkpt><trkpt lat="39.46638429" lon="-0.37733593"><ele>-45.4</ele><time>2022-10-30T13:47:29.0000000+00:00</time></trkpt><trkpt lat="39.46636803" lon="-0.37734356"><ele>-45.4</ele><time>2022-10-30T13:47:30.0000000+00:00</time></trkpt><trkpt lat="39.46634917" lon="-0.37735219"><ele>-45.4</ele><time>2022-10-30T13:47:31.0000000+00:00</time></trkpt><trkpt lat="39.46633651" lon="-0.37735722"><ele>-45.6</ele><time>2022-10-30T13:47:32.0000000+00:00</time></trkpt><trkpt lat="39.46631572" lon="-0.37735982"><ele>-45.6</ele><time>2022-10-30T13:47:33.0000000+00:00</time></trkpt><trkpt lat="39.46629963" lon="-0.37736309"><ele>-45.6</ele><time>2022-10-30T13:47:34.0000000+00:00</time></trkpt><trkpt lat="39.46627951" lon="-0.37737239"><ele>-45.6</ele><time>2022-10-30T13:47:35.0000000+00:00</time></trkpt><trkpt lat="39.46627105" lon="-0.37737231"><ele>-45.6</ele><time>2022-10-30T13:47:36.0000000+00:00</time></trkpt><trkpt lat="39.46626719" lon="-0.3773739"><ele>-45.6</ele><time>2022-10-30T13:47:37.0000000+00:00</time></trkpt><trkpt lat="39.46626568" lon="-0.37737608"><ele>-45.6</ele><time>2022-10-30T13:47:38.0000000+00:00</time></trkpt><trkpt lat="39.46626325" lon="-0.37737717"><ele>-45.6</ele><time>2022-10-30T13:47:39.0000000+00:00</time></trkpt><trkpt lat="39.46626149" lon="-0.37737952"><ele>-45.6</ele><time>2022-10-30T13:47:40.0000000+00:00</time></trkpt><trkpt lat="39.46624389" lon="-0.3773889"><ele>-45.4</ele><time>2022-10-30T13:47:41.0000000+00:00</time></trkpt><trkpt lat="39.46622662" lon="-0.37739502"><ele>-45.4</ele><time>2022-10-30T13:47:42.0000000+00:00</time></trkpt><trkpt lat="39.46620341" lon="-0.37740575"><ele>-45.4</ele><time>2022-10-30T13:47:43.0000000+00:00</time></trkpt><trkpt lat="39.46619779" lon="-0.37740751"><ele>-45.4</ele><time>2022-10-30T13:47:44.0000000+00:00</time></trkpt><trkpt lat="39.46618689" lon="-0.3774138"><ele>-45.4</ele><time>2022-10-30T13:47:45.0000000+00:00</time></trkpt><trkpt lat="39.46618262" lon="-0.37741179"><ele>-45.4</ele><time>2022-10-30T13:47:46.0000000+00:00</time></trkpt><trkpt lat="39.46617977" lon="-0.37741313"><ele>-45.6</ele><time>2022-10-30T13:47:47.0000000+00:00</time></trkpt><trkpt lat="39.46618153" lon="-0.37741212"><ele>-45.6</ele><time>2022-10-30T13:47:48.0000000+00:00</time></trkpt><trkpt lat="39.46617524" lon="-0.37740919"><ele>-45.6</ele><time>2022-10-30T13:47:49.0000000+00:00</time></trkpt><trkpt lat="39.46616803" lon="-0.37740768"><ele>-45.6</ele><time>2022-10-30T13:47:50.0000000+00:00</time></trkpt><trkpt lat="39.4661599" lon="-0.37741103"><ele>-45.6</ele><time>2022-10-30T13:47:51.0000000+00:00</time></trkpt><trkpt lat="39.46615588" lon="-0.37741397"><ele>-45.6</ele><time>2022-10-30T13:47:52.0000000+00:00</time></trkpt><trkpt lat="39.46614767" lon="-0.37741824"><ele>-45.6</ele><time>2022-10-30T13:47:53.0000000+00:00</time></trkpt><trkpt lat="39.46613568" lon="-0.37742511"><ele>-45.6</ele><time>2022-10-30T13:47:54.0000000+00:00</time></trkpt><trkpt lat="39.46612168" lon="-0.37743442"><ele>-45.6</ele><time>2022-10-30T13:47:55.0000000+00:00</time></trkpt><trkpt lat="39.46610349" lon="-0.37744196"><ele>-45.6</ele><time>2022-10-30T13:47:56.0000000+00:00</time></trkpt><trkpt lat="39.46608723" lon="-0.37744724"><ele>-45.6</ele><time>2022-10-30T13:47:57.0000000+00:00</time></trkpt><trkpt lat="39.4660848" lon="-0.37744674"><ele>-45.6</ele><time>2022-10-30T13:47:58.0000000+00:00</time></trkpt><trkpt lat="39.46608111" lon="-0.37744573"><ele>-45.6</ele><time>2022-10-30T13:47:59.0000000+00:00</time></trkpt><trkpt lat="39.46607709" lon="-0.37744515"><ele>-45.6</ele><time>2022-10-30T13:48:00.0000000+00:00</time></trkpt><trkpt lat="39.46607323" lon="-0.37744406"><ele>-45.6</ele><time>2022-10-30T13:48:01.0000000+00:00</time></trkpt><trkpt lat="39.46607005" lon="-0.37744196"><ele>-45.6</ele><time>2022-10-30T13:48:02.0000000+00:00</time></trkpt><trkpt lat="39.4660677" lon="-0.37743995"><ele>-45.6</ele><time>2022-10-30T13:48:03.0000000+00:00</time></trkpt><trkpt lat="39.46606502" lon="-0.37744029"><ele>-45.4</ele><time>2022-10-30T13:48:04.0000000+00:00</time></trkpt><trkpt lat="39.46605907" lon="-0.37744624"><ele>-45.4</ele><time>2022-10-30T13:48:05.0000000+00:00</time></trkpt><trkpt lat="39.46605647" lon="-0.37744422"><ele>-45.4</ele><time>2022-10-30T13:48:06.0000000+00:00</time></trkpt><trkpt lat="39.46603644" lon="-0.37744959"><ele>-45.4</ele><time>2022-10-30T13:48:07.0000000+00:00</time></trkpt><trkpt lat="39.46602395" lon="-0.37744992"><ele>-45.4</ele><time>2022-10-30T13:48:08.0000000+00:00</time></trkpt><trkpt lat="39.46602395" lon="-0.37744951"><ele>-45.4</ele><time>2022-10-30T13:48:09.0000000+00:00</time></trkpt><trkpt lat="39.46602244" lon="-0.37744934"><ele>-45.4</ele><time>2022-10-30T13:48:10.0000000+00:00</time></trkpt><trkpt lat="39.46602269" lon="-0.37744875"><ele>-45.4</ele><time>2022-10-30T13:48:11.0000000+00:00</time></trkpt><trkpt lat="39.46601355" lon="-0.37745806"><ele>-45.4</ele><time>2022-10-30T13:48:12.0000000+00:00</time></trkpt><trkpt lat="39.4660159" lon="-0.3774609"><ele>-45.4</ele><time>2022-10-30T13:48:13.0000000+00:00</time></trkpt><trkpt lat="39.46601171" lon="-0.37746082"><ele>-45.4</ele><time>2022-10-30T13:48:14.0000000+00:00</time></trkpt><trkpt lat="39.4660102" lon="-0.37745873"><ele>-45.4</ele><time>2022-10-30T13:48:15.0000000+00:00</time></trkpt><trkpt lat="39.46599587" lon="-0.37745931"><ele>-45.4</ele><time>2022-10-30T13:48:16.0000000+00:00</time></trkpt><trkpt lat="39.46598128" lon="-0.37746007"><ele>-45.4</ele><time>2022-10-30T13:48:17.0000000+00:00</time></trkpt><trkpt lat="39.46597609" lon="-0.37745839"><ele>-45.4</ele><time>2022-10-30T13:48:18.0000000+00:00</time></trkpt><trkpt lat="39.46596402" lon="-0.37745839"><ele>-45.4</ele><time>2022-10-30T13:48:19.0000000+00:00</time></trkpt><trkpt lat="39.46595069" lon="-0.37745261"><ele>-45.4</ele><time>2022-10-30T13:48:20.0000000+00:00</time></trkpt><trkpt lat="39.4659237" lon="-0.37745168"><ele>-45.4</ele><time>2022-10-30T13:48:21.0000000+00:00</time></trkpt><trkpt lat="39.46591339" lon="-0.3774537"><ele>-45.4</ele><time>2022-10-30T13:48:22.0000000+00:00</time></trkpt><trkpt lat="39.46590241" lon="-0.37745973"><ele>-45.4</ele><time>2022-10-30T13:48:23.0000000+00:00</time></trkpt><trkpt lat="39.46588649" lon="-0.37746686"><ele>-45.4</ele><time>2022-10-30T13:48:24.0000000+00:00</time></trkpt><trkpt lat="39.46586754" lon="-0.3774692"><ele>-45.4</ele><time>2022-10-30T13:48:25.0000000+00:00</time></trkpt><trkpt lat="39.46584642" lon="-0.37747901"><ele>-45.4</ele><time>2022-10-30T13:48:26.0000000+00:00</time></trkpt><trkpt lat="39.46583125" lon="-0.37749167"><ele>-45.4</ele><time>2022-10-30T13:48:27.0000000+00:00</time></trkpt><trkpt lat="39.46581909" lon="-0.37750474"><ele>-45.4</ele><time>2022-10-30T13:48:28.0000000+00:00</time></trkpt><trkpt lat="39.46580392" lon="-0.37752"><ele>-45.4</ele><time>2022-10-30T13:48:29.0000000+00:00</time></trkpt><trkpt lat="39.4657849" lon="-0.37753408"><ele>-45.4</ele><time>2022-10-30T13:48:30.0000000+00:00</time></trkpt><trkpt lat="39.4657647" lon="-0.37754556"><ele>-45.4</ele><time>2022-10-30T13:48:31.0000000+00:00</time></trkpt><trkpt lat="39.46575229" lon="-0.37755109"><ele>-45.4</ele><time>2022-10-30T13:48:32.0000000+00:00</time></trkpt><trkpt lat="39.46574668" lon="-0.377563"><ele>-45.4</ele><time>2022-10-30T13:48:33.0000000+00:00</time></trkpt><trkpt lat="39.46573729" lon="-0.3775749"><ele>-45.4</ele><time>2022-10-30T13:48:34.0000000+00:00</time></trkpt><trkpt lat="39.46573167" lon="-0.37758697"><ele>-45.2</ele><time>2022-10-30T13:48:35.0000000+00:00</time></trkpt><trkpt lat="39.46571373" lon="-0.37759326"><ele>-45.2</ele><time>2022-10-30T13:48:36.0000000+00:00</time></trkpt><trkpt lat="39.46569404" lon="-0.377607"><ele>-45.2</ele><time>2022-10-30T13:48:37.0000000+00:00</time></trkpt><trkpt lat="39.46567392" lon="-0.37761664"><ele>-45.2</ele><time>2022-10-30T13:48:38.0000000+00:00</time></trkpt><trkpt lat="39.46566177" lon="-0.37762242"><ele>-45.0</ele><time>2022-10-30T13:48:39.0000000+00:00</time></trkpt><trkpt lat="39.46565221" lon="-0.37763148"><ele>-45.0</ele><time>2022-10-30T13:48:40.0000000+00:00</time></trkpt><trkpt lat="39.46563763" lon="-0.377636"><ele>-45.2</ele><time>2022-10-30T13:48:41.0000000+00:00</time></trkpt><trkpt lat="39.46561625" lon="-0.37763014"><ele>-45.0</ele><time>2022-10-30T13:48:42.0000000+00:00</time></trkpt><trkpt lat="39.46559832" lon="-0.37762745"><ele>-45.0</ele><time>2022-10-30T13:48:43.0000000+00:00</time></trkpt><trkpt lat="39.4655849" lon="-0.37763005"><ele>-45.0</ele><time>2022-10-30T13:48:44.0000000+00:00</time></trkpt><trkpt lat="39.46557468" lon="-0.37762762"><ele>-45.0</ele><time>2022-10-30T13:48:45.0000000+00:00</time></trkpt><trkpt lat="39.46555892" lon="-0.37763131"><ele>-45.0</ele><time>2022-10-30T13:48:46.0000000+00:00</time></trkpt><trkpt lat="39.46554182" lon="-0.37763299"><ele>-45.0</ele><time>2022-10-30T13:48:47.0000000+00:00</time></trkpt><trkpt lat="39.4655217" lon="-0.37763039"><ele>-45.0</ele><time>2022-10-30T13:48:48.0000000+00:00</time></trkpt><trkpt lat="39.4654979" lon="-0.37763567"><ele>-45.0</ele><time>2022-10-30T13:48:49.0000000+00:00</time></trkpt><trkpt lat="39.46548625" lon="-0.37763475"><ele>-45.0</ele><time>2022-10-30T13:48:50.0000000+00:00</time></trkpt><trkpt lat="39.46548583" lon="-0.37764422"><ele>-45.0</ele><time>2022-10-30T13:48:51.0000000+00:00</time></trkpt><trkpt lat="39.46547083" lon="-0.37765327"><ele>-45.0</ele><time>2022-10-30T13:48:52.0000000+00:00</time></trkpt><trkpt lat="39.46545909" lon="-0.37766534"><ele>-45.0</ele><time>2022-10-30T13:48:53.0000000+00:00</time></trkpt><trkpt lat="39.4654492" lon="-0.37767565"><ele>-45.0</ele><time>2022-10-30T13:48:54.0000000+00:00</time></trkpt><trkpt lat="39.46544828" lon="-0.3776909"><ele>-45.0</ele><time>2022-10-30T13:48:55.0000000+00:00</time></trkpt><trkpt lat="39.46544501" lon="-0.37769208"><ele>-45.2</ele><time>2022-10-30T13:48:56.0000000+00:00</time></trkpt><trkpt lat="39.46543981" lon="-0.37769493"><ele>-45.2</ele><time>2022-10-30T13:48:57.0000000+00:00</time></trkpt><trkpt lat="39.46543562" lon="-0.37769635"><ele>-45.2</ele><time>2022-10-30T13:48:58.0000000+00:00</time></trkpt><trkpt lat="39.46542967" lon="-0.37768202"><ele>-45.4</ele><time>2022-10-30T13:48:59.0000000+00:00</time></trkpt><trkpt lat="39.46542791" lon="-0.3776842"><ele>-45.4</ele><time>2022-10-30T13:49:00.0000000+00:00</time></trkpt><trkpt lat="39.46542825" lon="-0.37767984"><ele>-45.4</ele><time>2022-10-30T13:49:01.0000000+00:00</time></trkpt><trkpt lat="39.4654254" lon="-0.3776795"><ele>-45.4</ele><time>2022-10-30T13:49:02.0000000+00:00</time></trkpt><trkpt lat="39.46542221" lon="-0.37767892"><ele>-45.4</ele><time>2022-10-30T13:49:03.0000000+00:00</time></trkpt><trkpt lat="39.46541878" lon="-0.37767892"><ele>-45.4</ele><time>2022-10-30T13:49:04.0000000+00:00</time></trkpt><trkpt lat="39.46540696" lon="-0.37767733"><ele>-45.4</ele><time>2022-10-30T13:49:05.0000000+00:00</time></trkpt><trkpt lat="39.46540461" lon="-0.37767624"><ele>-45.4</ele><time>2022-10-30T13:49:06.0000000+00:00</time></trkpt><trkpt lat="39.46539925" lon="-0.37767808"><ele>-45.2</ele><time>2022-10-30T13:49:07.0000000+00:00</time></trkpt><trkpt lat="39.46539572" lon="-0.37767766"><ele>-45.2</ele><time>2022-10-30T13:49:08.0000000+00:00</time></trkpt><trkpt lat="39.46539011" lon="-0.37768194"><ele>-45.2</ele><time>2022-10-30T13:49:09.0000000+00:00</time></trkpt><trkpt lat="39.46538248" lon="-0.3776816"><ele>-45.2</ele><time>2022-10-30T13:49:10.0000000+00:00</time></trkpt><trkpt lat="39.46537829" lon="-0.37768713"><ele>-45.2</ele><time>2022-10-30T13:49:11.0000000+00:00</time></trkpt><trkpt lat="39.46537192" lon="-0.37769007"><ele>-45.2</ele><time>2022-10-30T13:49:12.0000000+00:00</time></trkpt><trkpt lat="39.4653653" lon="-0.37769384"><ele>-45.0</ele><time>2022-10-30T13:49:13.0000000+00:00</time></trkpt><trkpt lat="39.46536111" lon="-0.37769702"><ele>-45.0</ele><time>2022-10-30T13:49:14.0000000+00:00</time></trkpt><trkpt lat="39.4653601" lon="-0.37770239"><ele>-45.2</ele><time>2022-10-30T13:49:15.0000000+00:00</time></trkpt><trkpt lat="39.46535214" lon="-0.37770884"><ele>-45.0</ele><time>2022-10-30T13:49:16.0000000+00:00</time></trkpt><trkpt lat="39.46534351" lon="-0.37771228"><ele>-45.0</ele><time>2022-10-30T13:49:17.0000000+00:00</time></trkpt><trkpt lat="39.46533797" lon="-0.3777153"><ele>-45.2</ele><time>2022-10-30T13:49:18.0000000+00:00</time></trkpt><trkpt lat="39.46533529" lon="-0.37771731"><ele>-45.2</ele><time>2022-10-30T13:49:19.0000000+00:00</time></trkpt><trkpt lat="39.46533596" lon="-0.37772594"><ele>-45.0</ele><time>2022-10-30T13:49:20.0000000+00:00</time></trkpt><trkpt lat="39.46533538" lon="-0.37773332"><ele>-45.0</ele><time>2022-10-30T13:49:21.0000000+00:00</time></trkpt><trkpt lat="39.46533848" lon="-0.37773742"><ele>-45.0</ele><time>2022-10-30T13:49:22.0000000+00:00</time></trkpt><trkpt lat="39.46534191" lon="-0.37773617"><ele>-45.0</ele><time>2022-10-30T13:49:23.0000000+00:00</time></trkpt><trkpt lat="39.46534258" lon="-0.37774782"><ele>-45.0</ele><time>2022-10-30T13:49:24.0000000+00:00</time></trkpt><trkpt lat="39.46534191" lon="-0.37774715"><ele>-45.0</ele><time>2022-10-30T13:49:25.0000000+00:00</time></trkpt><trkpt lat="39.46533999" lon="-0.37774706"><ele>-45.0</ele><time>2022-10-30T13:49:26.0000000+00:00</time></trkpt><trkpt lat="39.46533613" lon="-0.37775075"><ele>-45.0</ele><time>2022-10-30T13:49:27.0000000+00:00</time></trkpt><trkpt lat="39.46533194" lon="-0.37775033"><ele>-45.0</ele><time>2022-10-30T13:49:28.0000000+00:00</time></trkpt><trkpt lat="39.46533009" lon="-0.377751"><ele>-45.0</ele><time>2022-10-30T13:49:29.0000000+00:00</time></trkpt><trkpt lat="39.46533303" lon="-0.37774882"><ele>-45.0</ele><time>2022-10-30T13:49:30.0000000+00:00</time></trkpt><trkpt lat="39.46533403" lon="-0.37774991"><ele>-45.0</ele><time>2022-10-30T13:49:31.0000000+00:00</time></trkpt><trkpt lat="39.4653332" lon="-0.37774983"><ele>-45.0</ele><time>2022-10-30T13:49:32.0000000+00:00</time></trkpt><trkpt lat="39.46532783" lon="-0.37775838"><ele>-45.0</ele><time>2022-10-30T13:49:33.0000000+00:00</time></trkpt><trkpt lat="39.46532733" lon="-0.37776089"><ele>-45.0</ele><time>2022-10-30T13:49:34.0000000+00:00</time></trkpt><trkpt lat="39.46532037" lon="-0.37776056"><ele>-44.8</ele><time>2022-10-30T13:49:35.0000000+00:00</time></trkpt><trkpt lat="39.46530989" lon="-0.37775377"><ele>-44.8</ele><time>2022-10-30T13:49:36.0000000+00:00</time></trkpt><trkpt lat="39.46530269" lon="-0.37775318"><ele>-44.8</ele><time>2022-10-30T13:49:37.0000000+00:00</time></trkpt><trkpt lat="39.46529699" lon="-0.37775712"><ele>-44.8</ele><time>2022-10-30T13:49:38.0000000+00:00</time></trkpt><trkpt lat="39.46529363" lon="-0.37776592"><ele>-44.8</ele><time>2022-10-30T13:49:39.0000000+00:00</time></trkpt><trkpt lat="39.4652876" lon="-0.37776819"><ele>-44.8</ele><time>2022-10-30T13:49:40.0000000+00:00</time></trkpt><trkpt lat="39.46527829" lon="-0.37777506"><ele>-44.8</ele><time>2022-10-30T13:49:41.0000000+00:00</time></trkpt><trkpt lat="39.46527327" lon="-0.3777764"><ele>-44.8</ele><time>2022-10-30T13:49:42.0000000+00:00</time></trkpt><trkpt lat="39.4652653" lon="-0.37777933"><ele>-44.8</ele><time>2022-10-30T13:49:43.0000000+00:00</time></trkpt><trkpt lat="39.46525675" lon="-0.37778746"><ele>-44.8</ele><time>2022-10-30T13:49:44.0000000+00:00</time></trkpt><trkpt lat="39.46525139" lon="-0.37780582"><ele>-44.8</ele><time>2022-10-30T13:49:45.0000000+00:00</time></trkpt><trkpt lat="39.46524728" lon="-0.37782661"><ele>-44.8</ele><time>2022-10-30T13:49:46.0000000+00:00</time></trkpt><trkpt lat="39.46524586" lon="-0.37785661"><ele>-44.8</ele><time>2022-10-30T13:49:47.0000000+00:00</time></trkpt><trkpt lat="39.46525038" lon="-0.37788352"><ele>-44.8</ele><time>2022-10-30T13:49:48.0000000+00:00</time></trkpt><trkpt lat="39.46526036" lon="-0.37790674"><ele>-44.8</ele><time>2022-10-30T13:49:49.0000000+00:00</time></trkpt><trkpt lat="39.46526983" lon="-0.37792258"><ele>-44.8</ele><time>2022-10-30T13:49:50.0000000+00:00</time></trkpt><trkpt lat="39.46527804" lon="-0.37793532"><ele>-44.8</ele><time>2022-10-30T13:49:51.0000000+00:00</time></trkpt><trkpt lat="39.46528743" lon="-0.37794856"><ele>-45.0</ele><time>2022-10-30T13:49:52.0000000+00:00</time></trkpt><trkpt lat="39.46530185" lon="-0.37796675"><ele>-45.0</ele><time>2022-10-30T13:49:53.0000000+00:00</time></trkpt><trkpt lat="39.46531517" lon="-0.3779867"><ele>-45.0</ele><time>2022-10-30T13:49:54.0000000+00:00</time></trkpt><trkpt lat="39.46532674" lon="-0.3780059"><ele>-44.8</ele><time>2022-10-30T13:49:55.0000000+00:00</time></trkpt><trkpt lat="39.46533395" lon="-0.37802543"><ele>-44.8</ele><time>2022-10-30T13:49:56.0000000+00:00</time></trkpt><trkpt lat="39.4653399" lon="-0.3780494"><ele>-44.8</ele><time>2022-10-30T13:49:57.0000000+00:00</time></trkpt><trkpt lat="39.46534661" lon="-0.37807496"><ele>-44.8</ele><time>2022-10-30T13:49:58.0000000+00:00</time></trkpt><trkpt lat="39.46535574" lon="-0.37808904"><ele>-44.8</ele><time>2022-10-30T13:49:59.0000000+00:00</time></trkpt><trkpt lat="39.46536186" lon="-0.37810103"><ele>-44.8</ele><time>2022-10-30T13:50:00.0000000+00:00</time></trkpt><trkpt lat="39.46536471" lon="-0.37811478"><ele>-44.8</ele><time>2022-10-30T13:50:01.0000000+00:00</time></trkpt><trkpt lat="39.46536857" lon="-0.37812861"><ele>-44.8</ele><time>2022-10-30T13:50:02.0000000+00:00</time></trkpt><trkpt lat="39.46537846" lon="-0.37814579"><ele>-44.8</ele><time>2022-10-30T13:50:03.0000000+00:00</time></trkpt><trkpt lat="39.46538466" lon="-0.37816021"><ele>-44.8</ele><time>2022-10-30T13:50:04.0000000+00:00</time></trkpt><trkpt lat="39.46538827" lon="-0.37817001"><ele>-44.8</ele><time>2022-10-30T13:50:05.0000000+00:00</time></trkpt><trkpt lat="39.46539003" lon="-0.37817412"><ele>-44.8</ele><time>2022-10-30T13:50:06.0000000+00:00</time></trkpt><trkpt lat="39.46539514" lon="-0.37818619"><ele>-44.8</ele><time>2022-10-30T13:50:07.0000000+00:00</time></trkpt><trkpt lat="39.46539933" lon="-0.37820195"><ele>-44.8</ele><time>2022-10-30T13:50:08.0000000+00:00</time></trkpt><trkpt lat="39.46539925" lon="-0.3782167"><ele>-44.8</ele><time>2022-10-30T13:50:09.0000000+00:00</time></trkpt><trkpt lat="39.46539572" lon="-0.37823154"><ele>-44.8</ele><time>2022-10-30T13:50:10.0000000+00:00</time></trkpt><trkpt lat="39.46539505" lon="-0.37824294"><ele>-44.8</ele><time>2022-10-30T13:50:11.0000000+00:00</time></trkpt><trkpt lat="39.46538944" lon="-0.37825358"><ele>-44.8</ele><time>2022-10-30T13:50:12.0000000+00:00</time></trkpt><trkpt lat="39.46537837" lon="-0.37826138"><ele>-44.8</ele><time>2022-10-30T13:50:13.0000000+00:00</time></trkpt><trkpt lat="39.46536555" lon="-0.37826607"><ele>-44.8</ele><time>2022-10-30T13:50:14.0000000+00:00</time></trkpt><trkpt lat="39.46535222" lon="-0.3782675"><ele>-44.8</ele><time>2022-10-30T13:50:15.0000000+00:00</time></trkpt><trkpt lat="39.46533881" lon="-0.37827328"><ele>-44.8</ele><time>2022-10-30T13:50:16.0000000+00:00</time></trkpt><trkpt lat="39.46533093" lon="-0.37828535"><ele>-44.6</ele><time>2022-10-30T13:50:17.0000000+00:00</time></trkpt><trkpt lat="39.46532213" lon="-0.37829256"><ele>-44.6</ele><time>2022-10-30T13:50:18.0000000+00:00</time></trkpt><trkpt lat="39.46531585" lon="-0.37830136"><ele>-44.8</ele><time>2022-10-30T13:50:19.0000000+00:00</time></trkpt><trkpt lat="39.46530386" lon="-0.37830471"><ele>-44.8</ele><time>2022-10-30T13:50:20.0000000+00:00</time></trkpt><trkpt lat="39.46529087" lon="-0.3783094"><ele>-44.8</ele><time>2022-10-30T13:50:21.0000000+00:00</time></trkpt><trkpt lat="39.46527955" lon="-0.37831578"><ele>-44.8</ele><time>2022-10-30T13:50:22.0000000+00:00</time></trkpt><trkpt lat="39.46527025" lon="-0.37832273"><ele>-44.8</ele><time>2022-10-30T13:50:23.0000000+00:00</time></trkpt><trkpt lat="39.46525935" lon="-0.37832533"><ele>-44.8</ele><time>2022-10-30T13:50:24.0000000+00:00</time></trkpt><trkpt lat="39.46524745" lon="-0.37832567"><ele>-44.8</ele><time>2022-10-30T13:50:25.0000000+00:00</time></trkpt><trkpt lat="39.46523228" lon="-0.37832726"><ele>-44.8</ele><time>2022-10-30T13:50:26.0000000+00:00</time></trkpt><trkpt lat="39.46521794" lon="-0.37833371"><ele>-44.8</ele><time>2022-10-30T13:50:27.0000000+00:00</time></trkpt><trkpt lat="39.46520789" lon="-0.37834117"><ele>-44.8</ele><time>2022-10-30T13:50:28.0000000+00:00</time></trkpt><trkpt lat="39.46519221" lon="-0.37835173"><ele>-44.8</ele><time>2022-10-30T13:50:29.0000000+00:00</time></trkpt><trkpt lat="39.46518039" lon="-0.37835517"><ele>-44.8</ele><time>2022-10-30T13:50:30.0000000+00:00</time></trkpt><trkpt lat="39.46516673" lon="-0.37836087"><ele>-44.8</ele><time>2022-10-30T13:50:31.0000000+00:00</time></trkpt><trkpt lat="39.46515106" lon="-0.37836397"><ele>-44.8</ele><time>2022-10-30T13:50:32.0000000+00:00</time></trkpt><trkpt lat="39.4651379" lon="-0.37836422"><ele>-44.8</ele><time>2022-10-30T13:50:33.0000000+00:00</time></trkpt><trkpt lat="39.46512583" lon="-0.3783576"><ele>-44.8</ele><time>2022-10-30T13:50:34.0000000+00:00</time></trkpt><trkpt lat="39.46511393" lon="-0.37835559"><ele>-44.8</ele><time>2022-10-30T13:50:35.0000000+00:00</time></trkpt><trkpt lat="39.46509741" lon="-0.37835224"><ele>-44.8</ele><time>2022-10-30T13:50:36.0000000+00:00</time></trkpt><trkpt lat="39.46508233" lon="-0.37835115"><ele>-44.8</ele><time>2022-10-30T13:50:37.0000000+00:00</time></trkpt><trkpt lat="39.4650685" lon="-0.37835475"><ele>-44.8</ele><time>2022-10-30T13:50:38.0000000+00:00</time></trkpt><trkpt lat="39.46505332" lon="-0.37836171"><ele>-44.8</ele><time>2022-10-30T13:50:39.0000000+00:00</time></trkpt><trkpt lat="39.46504938" lon="-0.37836841"><ele>-44.8</ele><time>2022-10-30T13:50:40.0000000+00:00</time></trkpt><trkpt lat="39.465041" lon="-0.3783742"><ele>-44.6</ele><time>2022-10-30T13:50:41.0000000+00:00</time></trkpt><trkpt lat="39.46503354" lon="-0.37838476"><ele>-44.6</ele><time>2022-10-30T13:50:42.0000000+00:00</time></trkpt><trkpt lat="39.46502642" lon="-0.37838794"><ele>-44.6</ele><time>2022-10-30T13:50:43.0000000+00:00</time></trkpt><trkpt lat="39.46501686" lon="-0.37839021"><ele>-44.6</ele><time>2022-10-30T13:50:44.0000000+00:00</time></trkpt><trkpt lat="39.46500228" lon="-0.37839213"><ele>-44.6</ele><time>2022-10-30T13:50:45.0000000+00:00</time></trkpt><trkpt lat="39.46499566" lon="-0.37839834"><ele>-44.6</ele><time>2022-10-30T13:50:46.0000000+00:00</time></trkpt><trkpt lat="39.46498392" lon="-0.37839389"><ele>-44.6</ele><time>2022-10-30T13:50:47.0000000+00:00</time></trkpt><trkpt lat="39.46497504" lon="-0.37840026"><ele>-44.6</ele><time>2022-10-30T13:50:48.0000000+00:00</time></trkpt><trkpt lat="39.46496448" lon="-0.37840622"><ele>-44.6</ele><time>2022-10-30T13:50:49.0000000+00:00</time></trkpt><trkpt lat="39.46495484" lon="-0.3784146"><ele>-44.6</ele><time>2022-10-30T13:50:50.0000000+00:00</time></trkpt><trkpt lat="39.46493916" lon="-0.37842256"><ele>-44.6</ele><time>2022-10-30T13:50:51.0000000+00:00</time></trkpt><trkpt lat="39.46492349" lon="-0.37842566"><ele>-44.6</ele><time>2022-10-30T13:50:52.0000000+00:00</time></trkpt><trkpt lat="39.46491201" lon="-0.37842642"><ele>-44.4</ele><time>2022-10-30T13:50:53.0000000+00:00</time></trkpt><trkpt lat="39.46490304" lon="-0.3784265"><ele>-44.4</ele><time>2022-10-30T13:50:54.0000000+00:00</time></trkpt><trkpt lat="39.46489164" lon="-0.3784322"><ele>-44.4</ele><time>2022-10-30T13:50:55.0000000+00:00</time></trkpt><trkpt lat="39.46488208" lon="-0.37843832"><ele>-44.4</ele><time>2022-10-30T13:50:56.0000000+00:00</time></trkpt><trkpt lat="39.46487194" lon="-0.37844108"><ele>-44.4</ele><time>2022-10-30T13:50:57.0000000+00:00</time></trkpt><trkpt lat="39.46485953" lon="-0.37844511"><ele>-44.4</ele><time>2022-10-30T13:50:58.0000000+00:00</time></trkpt><trkpt lat="39.46485023" lon="-0.37844997"><ele>-44.4</ele><time>2022-10-30T13:50:59.0000000+00:00</time></trkpt><trkpt lat="39.46484252" lon="-0.37845542"><ele>-44.4</ele><time>2022-10-30T13:51:00.0000000+00:00</time></trkpt><trkpt lat="39.46483531" lon="-0.37846053"><ele>-44.4</ele><time>2022-10-30T13:51:01.0000000+00:00</time></trkpt><trkpt lat="39.46482525" lon="-0.37846657"><ele>-44.4</ele><time>2022-10-30T13:51:02.0000000+00:00</time></trkpt><trkpt lat="39.46481243" lon="-0.37847587"><ele>-44.4</ele><time>2022-10-30T13:51:03.0000000+00:00</time></trkpt><trkpt lat="39.46480203" lon="-0.37848434"><ele>-44.4</ele><time>2022-10-30T13:51:04.0000000+00:00</time></trkpt><trkpt lat="39.46479365" lon="-0.37848811"><ele>-44.4</ele><time>2022-10-30T13:51:05.0000000+00:00</time></trkpt><trkpt lat="39.46478603" lon="-0.37849146"><ele>-44.4</ele><time>2022-10-30T13:51:06.0000000+00:00</time></trkpt><trkpt lat="39.46478209" lon="-0.37849314"><ele>-44.2</ele><time>2022-10-30T13:51:07.0000000+00:00</time></trkpt><trkpt lat="39.4647846" lon="-0.37850286"><ele>-44.2</ele><time>2022-10-30T13:51:08.0000000+00:00</time></trkpt><trkpt lat="39.46477974" lon="-0.37851166"><ele>-44.2</ele><time>2022-10-30T13:51:09.0000000+00:00</time></trkpt><trkpt lat="39.46477203" lon="-0.37851895"><ele>-44.2</ele><time>2022-10-30T13:51:10.0000000+00:00</time></trkpt><trkpt lat="39.46477756" lon="-0.3785332"><ele>-44.2</ele><time>2022-10-30T13:51:11.0000000+00:00</time></trkpt><trkpt lat="39.46477655" lon="-0.37853655"><ele>-44.2</ele><time>2022-10-30T13:51:12.0000000+00:00</time></trkpt><trkpt lat="39.4647758" lon="-0.37854058"><ele>-44.2</ele><time>2022-10-30T13:51:13.0000000+00:00</time></trkpt><trkpt lat="39.46477052" lon="-0.37853899"><ele>-44.2</ele><time>2022-10-30T13:51:14.0000000+00:00</time></trkpt><trkpt lat="39.46480631" lon="-0.37854058"><ele>-44.2</ele><time>2022-10-30T13:51:18.0000000+00:00</time></trkpt><trkpt lat="39.46481377" lon="-0.37853521"><ele>-44.2</ele><time>2022-10-30T13:51:19.0000000+00:00</time></trkpt><trkpt lat="39.46481989" lon="-0.37853588"><ele>-44.2</ele><time>2022-10-30T13:51:20.0000000+00:00</time></trkpt><trkpt lat="39.46482752" lon="-0.37853639"><ele>-44.0</ele><time>2022-10-30T13:51:21.0000000+00:00</time></trkpt><trkpt lat="39.46483749" lon="-0.37853798"><ele>-44.0</ele><time>2022-10-30T13:51:22.0000000+00:00</time></trkpt><trkpt lat="39.4648447" lon="-0.37852842"><ele>-44.0</ele><time>2022-10-30T13:51:23.0000000+00:00</time></trkpt><trkpt lat="39.46485844" lon="-0.37851786"><ele>-44.0</ele><time>2022-10-30T13:51:24.0000000+00:00</time></trkpt><trkpt lat="39.46487303" lon="-0.37850923"><ele>-44.0</ele><time>2022-10-30T13:51:25.0000000+00:00</time></trkpt><trkpt lat="39.4648851" lon="-0.37849322"><ele>-44.0</ele><time>2022-10-30T13:51:26.0000000+00:00</time></trkpt><trkpt lat="39.46489214" lon="-0.37847436"><ele>-44.0</ele><time>2022-10-30T13:51:27.0000000+00:00</time></trkpt><trkpt lat="39.4648939" lon="-0.37845768"><ele>-44.0</ele><time>2022-10-30T13:51:28.0000000+00:00</time></trkpt><trkpt lat="39.46490211" lon="-0.37844687"><ele>-44.0</ele><time>2022-10-30T13:51:29.0000000+00:00</time></trkpt><trkpt lat="39.46490756" lon="-0.3784296"><ele>-44.0</ele><time>2022-10-30T13:51:30.0000000+00:00</time></trkpt><trkpt lat="39.46491092" lon="-0.37842072"><ele>-44.0</ele><time>2022-10-30T13:51:31.0000000+00:00</time></trkpt><trkpt lat="39.46490446" lon="-0.37841099"><ele>-44.0</ele><time>2022-10-30T13:51:32.0000000+00:00</time></trkpt><trkpt lat="39.46488803" lon="-0.37840689"><ele>-44.0</ele><time>2022-10-30T13:51:33.0000000+00:00</time></trkpt><trkpt lat="39.4648908" lon="-0.37840253"><ele>-44.0</ele><time>2022-10-30T13:51:34.0000000+00:00</time></trkpt><trkpt lat="39.4648877" lon="-0.37840437"><ele>-44.0</ele><time>2022-10-30T13:51:35.0000000+00:00</time></trkpt><trkpt lat="39.46488803" lon="-0.37841636"><ele>-44.0</ele><time>2022-10-30T13:51:36.0000000+00:00</time></trkpt><trkpt lat="39.46487806" lon="-0.37842566"><ele>-44.0</ele><time>2022-10-30T13:51:37.0000000+00:00</time></trkpt><trkpt lat="39.4648763" lon="-0.37843748"><ele>-44.0</ele><time>2022-10-30T13:51:38.0000000+00:00</time></trkpt><trkpt lat="39.46503354" lon="-0.37879648"><ele>-42.6</ele><time>2022-10-30T14:00:03.0000000+00:00</time></trkpt><trkpt lat="39.46499465" lon="-0.3787114"><ele>-42.6</ele><time>2022-10-30T14:00:04.0000000+00:00</time></trkpt><trkpt lat="39.46512583" lon="-0.37866673"><ele>-42.6</ele><time>2022-10-30T14:00:05.0000000+00:00</time></trkpt><trkpt lat="39.46502633" lon="-0.37866488"><ele>-42.6</ele><time>2022-10-30T14:00:06.0000000+00:00</time></trkpt><trkpt lat="39.46499507" lon="-0.37868877"><ele>-42.6</ele><time>2022-10-30T14:00:07.0000000+00:00</time></trkpt><trkpt lat="39.46498007" lon="-0.37870436"><ele>-42.6</ele><time>2022-10-30T14:00:08.0000000+00:00</time></trkpt><trkpt lat="39.46499365" lon="-0.37871685"><ele>-42.6</ele><time>2022-10-30T14:00:09.0000000+00:00</time></trkpt><trkpt lat="39.46501435" lon="-0.37871232"><ele>-42.6</ele><time>2022-10-30T14:00:10.0000000+00:00</time></trkpt><trkpt lat="39.46501083" lon="-0.37869849"><ele>-42.6</ele><time>2022-10-30T14:00:11.0000000+00:00</time></trkpt><trkpt lat="39.46499708" lon="-0.37870285"><ele>-42.6</ele><time>2022-10-30T14:00:12.0000000+00:00</time></trkpt><trkpt lat="39.4649856" lon="-0.37870998"><ele>-43.0</ele><time>2022-10-30T14:00:13.0000000+00:00</time></trkpt><trkpt lat="39.4649721" lon="-0.37870604"><ele>-43.0</ele><time>2022-10-30T14:00:14.0000000+00:00</time></trkpt><trkpt lat="39.46497093" lon="-0.37870562"><ele>-43.0</ele><time>2022-10-30T14:00:15.0000000+00:00</time></trkpt><trkpt lat="39.46496573" lon="-0.37870486"><ele>-43.0</ele><time>2022-10-30T14:00:16.0000000+00:00</time></trkpt><trkpt lat="39.46494654" lon="-0.37870796"><ele>-43.0</ele><time>2022-10-30T14:00:17.0000000+00:00</time></trkpt><trkpt lat="39.46493782" lon="-0.378714"><ele>-43.0</ele><time>2022-10-30T14:00:18.0000000+00:00</time></trkpt><trkpt lat="39.46493757" lon="-0.37872255"><ele>-43.0</ele><time>2022-10-30T14:00:19.0000000+00:00</time></trkpt><trkpt lat="39.46491486" lon="-0.37872381"><ele>-43.2</ele><time>2022-10-30T14:00:20.0000000+00:00</time></trkpt><trkpt lat="39.46493874" lon="-0.37872967"><ele>-43.2</ele><time>2022-10-30T14:00:21.0000000+00:00</time></trkpt><trkpt lat="39.46495601" lon="-0.37872942"><ele>-43.2</ele><time>2022-10-30T14:00:22.0000000+00:00</time></trkpt><trkpt lat="39.46495609" lon="-0.37872548"><ele>-43.2</ele><time>2022-10-30T14:00:23.0000000+00:00</time></trkpt><trkpt lat="39.46494302" lon="-0.37872196"><ele>-43.2</ele><time>2022-10-30T14:00:24.0000000+00:00</time></trkpt><trkpt lat="39.46490597" lon="-0.37871123"><ele>-43.2</ele><time>2022-10-30T14:00:25.0000000+00:00</time></trkpt><trkpt lat="39.46489943" lon="-0.37870671"><ele>-43.2</ele><time>2022-10-30T14:00:26.0000000+00:00</time></trkpt><trkpt lat="39.46491418" lon="-0.37870805"><ele>-43.2</ele><time>2022-10-30T14:00:27.0000000+00:00</time></trkpt><trkpt lat="39.46491511" lon="-0.37870964"><ele>-43.2</ele><time>2022-10-30T14:00:28.0000000+00:00</time></trkpt><trkpt lat="39.46490664" lon="-0.37870671"><ele>-43.2</ele><time>2022-10-30T14:00:29.0000000+00:00</time></trkpt><trkpt lat="39.46488719" lon="-0.37869883"><ele>-43.2</ele><time>2022-10-30T14:00:30.0000000+00:00</time></trkpt><trkpt lat="39.46484445" lon="-0.37868081"><ele>-43.2</ele><time>2022-10-30T14:00:31.0000000+00:00</time></trkpt><trkpt lat="39.46481042" lon="-0.37866589"><ele>-43.2</ele><time>2022-10-30T14:00:32.0000000+00:00</time></trkpt><trkpt lat="39.46479533" lon="-0.37866052"><ele>-43.0</ele><time>2022-10-30T14:00:33.0000000+00:00</time></trkpt><trkpt lat="39.46480589" lon="-0.37866488"><ele>-43.0</ele><time>2022-10-30T14:00:34.0000000+00:00</time></trkpt><trkpt lat="39.46478896" lon="-0.37865734"><ele>-43.0</ele><time>2022-10-30T14:00:35.0000000+00:00</time></trkpt><trkpt lat="39.46477018" lon="-0.37865055"><ele>-43.2</ele><time>2022-10-30T14:00:36.0000000+00:00</time></trkpt><trkpt lat="39.4647525" lon="-0.37864443"><ele>-43.2</ele><time>2022-10-30T14:00:37.0000000+00:00</time></trkpt><trkpt lat="39.4647468" lon="-0.37864803"><ele>-43.2</ele><time>2022-10-30T14:00:38.0000000+00:00</time></trkpt><trkpt lat="39.46471252" lon="-0.3786456"><ele>-43.2</ele><time>2022-10-30T14:00:39.0000000+00:00</time></trkpt><trkpt lat="39.46468678" lon="-0.37863957"><ele>-43.2</ele><time>2022-10-30T14:00:40.0000000+00:00</time></trkpt><trkpt lat="39.46465468" lon="-0.3786363"><ele>-43.2</ele><time>2022-10-30T14:00:41.0000000+00:00</time></trkpt><trkpt lat="39.46463716" lon="-0.37862985"><ele>-43.2</ele><time>2022-10-30T14:00:42.0000000+00:00</time></trkpt><trkpt lat="39.46460917" lon="-0.37862314"><ele>-43.2</ele><time>2022-10-30T14:00:43.0000000+00:00</time></trkpt><trkpt lat="39.46459953" lon="-0.37862146"><ele>-43.2</ele><time>2022-10-30T14:00:44.0000000+00:00</time></trkpt><trkpt lat="39.46460229" lon="-0.37862104"><ele>-43.0</ele><time>2022-10-30T14:00:45.0000000+00:00</time></trkpt><trkpt lat="39.46462979" lon="-0.37861995"><ele>-43.0</ele><time>2022-10-30T14:00:46.0000000+00:00</time></trkpt><trkpt lat="39.46462208" lon="-0.37861803"><ele>-43.0</ele><time>2022-10-30T14:00:47.0000000+00:00</time></trkpt><trkpt lat="39.46464286" lon="-0.37861476"><ele>-43.0</ele><time>2022-10-30T14:00:48.0000000+00:00</time></trkpt><trkpt lat="39.46465342" lon="-0.37860738"><ele>-43.0</ele><time>2022-10-30T14:00:49.0000000+00:00</time></trkpt><trkpt lat="39.46465854" lon="-0.37860311"><ele>-43.0</ele><time>2022-10-30T14:00:50.0000000+00:00</time></trkpt><trkpt lat="39.464666" lon="-0.37860168"><ele>-43.0</ele><time>2022-10-30T14:00:51.0000000+00:00</time></trkpt><trkpt lat="39.46467538" lon="-0.37860319"><ele>-43.0</ele><time>2022-10-30T14:00:52.0000000+00:00</time></trkpt><trkpt lat="39.46468595" lon="-0.37860302"><ele>-43.0</ele><time>2022-10-30T14:00:53.0000000+00:00</time></trkpt><trkpt lat="39.46468083" lon="-0.37859841"><ele>-43.2</ele><time>2022-10-30T14:00:54.0000000+00:00</time></trkpt><trkpt lat="39.46466398" lon="-0.37859213"><ele>-43.2</ele><time>2022-10-30T14:00:55.0000000+00:00</time></trkpt><trkpt lat="39.46467907" lon="-0.37859204"><ele>-43.2</ele><time>2022-10-30T14:00:56.0000000+00:00</time></trkpt><trkpt lat="39.46468611" lon="-0.37859556"><ele>-43.2</ele><time>2022-10-30T14:00:57.0000000+00:00</time></trkpt><trkpt lat="39.46471444" lon="-0.37860747"><ele>-43.2</ele><time>2022-10-30T14:00:58.0000000+00:00</time></trkpt><trkpt lat="39.46473322" lon="-0.3786192"><ele>-43.2</ele><time>2022-10-30T14:00:59.0000000+00:00</time></trkpt><trkpt lat="39.46472626" lon="-0.37863278"><ele>-43.2</ele><time>2022-10-30T14:01:00.0000000+00:00</time></trkpt><trkpt lat="39.46473104" lon="-0.37864912"><ele>-43.2</ele><time>2022-10-30T14:01:01.0000000+00:00</time></trkpt><trkpt lat="39.46473992" lon="-0.37866438"><ele>-43.4</ele><time>2022-10-30T14:01:02.0000000+00:00</time></trkpt><trkpt lat="39.46475518" lon="-0.37867368"><ele>-43.4</ele><time>2022-10-30T14:01:03.0000000+00:00</time></trkpt><trkpt lat="39.46475954" lon="-0.37868307"><ele>-43.4</ele><time>2022-10-30T14:01:04.0000000+00:00</time></trkpt><trkpt lat="39.46476968" lon="-0.37869128"><ele>-43.4</ele><time>2022-10-30T14:01:05.0000000+00:00</time></trkpt><trkpt lat="39.46477018" lon="-0.37870025"><ele>-43.4</ele><time>2022-10-30T14:01:06.0000000+00:00</time></trkpt><trkpt lat="39.4647877" lon="-0.37871224"><ele>-43.4</ele><time>2022-10-30T14:01:07.0000000+00:00</time></trkpt><trkpt lat="39.46479516" lon="-0.37872146"><ele>-43.6</ele><time>2022-10-30T14:01:08.0000000+00:00</time></trkpt><trkpt lat="39.46479382" lon="-0.37872448"><ele>-43.6</ele><time>2022-10-30T14:01:09.0000000+00:00</time></trkpt><trkpt lat="39.46478871" lon="-0.37872272"><ele>-43.6</ele><time>2022-10-30T14:01:10.0000000+00:00</time></trkpt><trkpt lat="39.46478619" lon="-0.37872263"><ele>-43.6</ele><time>2022-10-30T14:01:11.0000000+00:00</time></trkpt><trkpt lat="39.46479198" lon="-0.37872146"><ele>-43.6</ele><time>2022-10-30T14:01:12.0000000+00:00</time></trkpt><trkpt lat="39.46479172" lon="-0.3787264"><ele>-43.6</ele><time>2022-10-30T14:01:13.0000000+00:00</time></trkpt><trkpt lat="39.46479231" lon="-0.37872909"><ele>-43.4</ele><time>2022-10-30T14:01:14.0000000+00:00</time></trkpt><trkpt lat="39.4647986" lon="-0.37873345"><ele>-43.4</ele><time>2022-10-30T14:01:15.0000000+00:00</time></trkpt><trkpt lat="39.46479508" lon="-0.37874241"><ele>-43.4</ele><time>2022-10-30T14:01:16.0000000+00:00</time></trkpt><trkpt lat="39.4647851" lon="-0.37875155"><ele>-43.4</ele><time>2022-10-30T14:01:17.0000000+00:00</time></trkpt><trkpt lat="39.46477504" lon="-0.37876136"><ele>-43.4</ele><time>2022-10-30T14:01:18.0000000+00:00</time></trkpt><trkpt lat="39.46475568" lon="-0.37875767"><ele>-43.4</ele><time>2022-10-30T14:01:19.0000000+00:00</time></trkpt><trkpt lat="39.46473506" lon="-0.37875985"><ele>-43.4</ele><time>2022-10-30T14:01:20.0000000+00:00</time></trkpt><trkpt lat="39.46473439" lon="-0.37877888"><ele>-43.4</ele><time>2022-10-30T14:01:21.0000000+00:00</time></trkpt><trkpt lat="39.46473892" lon="-0.37878701"><ele>-43.4</ele><time>2022-10-30T14:01:22.0000000+00:00</time></trkpt><trkpt lat="39.4647463" lon="-0.37878801"><ele>-43.4</ele><time>2022-10-30T14:01:23.0000000+00:00</time></trkpt><trkpt lat="39.46474428" lon="-0.37879078"><ele>-43.4</ele><time>2022-10-30T14:01:24.0000000+00:00</time></trkpt><trkpt lat="39.46474361" lon="-0.37879212"><ele>-43.4</ele><time>2022-10-30T14:01:25.0000000+00:00</time></trkpt><trkpt lat="39.46473179" lon="-0.37879732"><ele>-43.2</ele><time>2022-10-30T14:01:26.0000000+00:00</time></trkpt><trkpt lat="39.46472593" lon="-0.37879799"><ele>-43.2</ele><time>2022-10-30T14:01:27.0000000+00:00</time></trkpt><trkpt lat="39.46471947" lon="-0.37879782"><ele>-43.2</ele><time>2022-10-30T14:01:28.0000000+00:00</time></trkpt><trkpt lat="39.46471528" lon="-0.37879857"><ele>-43.0</ele><time>2022-10-30T14:01:29.0000000+00:00</time></trkpt><trkpt lat="39.46471746" lon="-0.37880545"><ele>-43.0</ele><time>2022-10-30T14:01:30.0000000+00:00</time></trkpt><trkpt lat="39.464724" lon="-0.3788145"><ele>-43.2</ele><time>2022-10-30T14:01:31.0000000+00:00</time></trkpt><trkpt lat="39.46473624" lon="-0.3788238"><ele>-43.2</ele><time>2022-10-30T14:01:32.0000000+00:00</time></trkpt><trkpt lat="39.46474219" lon="-0.37883269"><ele>-43.2</ele><time>2022-10-30T14:01:33.0000000+00:00</time></trkpt><trkpt lat="39.46476289" lon="-0.37884685"><ele>-43.2</ele><time>2022-10-30T14:01:34.0000000+00:00</time></trkpt><trkpt lat="39.46478175" lon="-0.37885599"><ele>-43.2</ele><time>2022-10-30T14:01:35.0000000+00:00</time></trkpt><trkpt lat="39.4647955" lon="-0.37885909"><ele>-43.2</ele><time>2022-10-30T14:01:36.0000000+00:00</time></trkpt><trkpt lat="39.4648079" lon="-0.37885716"><ele>-43.2</ele><time>2022-10-30T14:01:37.0000000+00:00</time></trkpt><trkpt lat="39.46481712" lon="-0.37885213"><ele>-43.2</ele><time>2022-10-30T14:01:38.0000000+00:00</time></trkpt><trkpt lat="39.46482936" lon="-0.37884585"><ele>-43.2</ele><time>2022-10-30T14:01:39.0000000+00:00</time></trkpt><trkpt lat="39.46484109" lon="-0.37883839"><ele>-43.2</ele><time>2022-10-30T14:01:40.0000000+00:00</time></trkpt><trkpt lat="39.46485157" lon="-0.37883244"><ele>-43.2</ele><time>2022-10-30T14:01:41.0000000+00:00</time></trkpt><trkpt lat="39.46486314" lon="-0.37883009"><ele>-43.2</ele><time>2022-10-30T14:01:42.0000000+00:00</time></trkpt><trkpt lat="39.46487471" lon="-0.37882682"><ele>-43.2</ele><time>2022-10-30T14:01:43.0000000+00:00</time></trkpt><trkpt lat="39.46488912" lon="-0.37882875"><ele>-43.2</ele><time>2022-10-30T14:01:44.0000000+00:00</time></trkpt><trkpt lat="39.46489876" lon="-0.37883193"><ele>-43.2</ele><time>2022-10-30T14:01:45.0000000+00:00</time></trkpt><trkpt lat="39.46490957" lon="-0.37883302"><ele>-43.2</ele><time>2022-10-30T14:01:46.0000000+00:00</time></trkpt><trkpt lat="39.46492315" lon="-0.37883629"><ele>-43.2</ele><time>2022-10-30T14:01:47.0000000+00:00</time></trkpt><trkpt lat="39.46493497" lon="-0.37882749"><ele>-43.2</ele><time>2022-10-30T14:01:48.0000000+00:00</time></trkpt><trkpt lat="39.4649493" lon="-0.37883084"><ele>-43.2</ele><time>2022-10-30T14:01:49.0000000+00:00</time></trkpt><trkpt lat="39.46496313" lon="-0.37882967"><ele>-43.2</ele><time>2022-10-30T14:01:50.0000000+00:00</time></trkpt><trkpt lat="39.46497152" lon="-0.37882389"><ele>-43.2</ele><time>2022-10-30T14:01:51.0000000+00:00</time></trkpt><trkpt lat="39.46497395" lon="-0.37881902"><ele>-43.2</ele><time>2022-10-30T14:01:52.0000000+00:00</time></trkpt><trkpt lat="39.46497235" lon="-0.37880754"><ele>-43.0</ele><time>2022-10-30T14:01:53.0000000+00:00</time></trkpt><trkpt lat="39.46497303" lon="-0.37880452"><ele>-43.2</ele><time>2022-10-30T14:01:54.0000000+00:00</time></trkpt><trkpt lat="39.46496632" lon="-0.37878801"><ele>-43.2</ele><time>2022-10-30T14:01:55.0000000+00:00</time></trkpt><trkpt lat="39.46495878" lon="-0.37876966"><ele>-43.2</ele><time>2022-10-30T14:01:56.0000000+00:00</time></trkpt><trkpt lat="39.46496607" lon="-0.37877418"><ele>-43.4</ele><time>2022-10-30T14:01:57.0000000+00:00</time></trkpt><trkpt lat="39.4649623" lon="-0.37876463"><ele>-43.4</ele><time>2022-10-30T14:01:58.0000000+00:00</time></trkpt><trkpt lat="39.46494788" lon="-0.37875306"><ele>-43.4</ele><time>2022-10-30T14:01:59.0000000+00:00</time></trkpt><trkpt lat="39.46494252" lon="-0.37875373"><ele>-43.4</ele><time>2022-10-30T14:02:00.0000000+00:00</time></trkpt><trkpt lat="39.46493615" lon="-0.3787513"><ele>-43.4</ele><time>2022-10-30T14:02:01.0000000+00:00</time></trkpt><trkpt lat="39.46493355" lon="-0.37876697"><ele>-43.4</ele><time>2022-10-30T14:02:02.0000000+00:00</time></trkpt><trkpt lat="39.46492709" lon="-0.37877393"><ele>-43.4</ele><time>2022-10-30T14:02:03.0000000+00:00</time></trkpt><trkpt lat="39.46490932" lon="-0.37879027"><ele>-43.2</ele><time>2022-10-30T14:02:04.0000000+00:00</time></trkpt><trkpt lat="39.46489994" lon="-0.37882674"><ele>-43.2</ele><time>2022-10-30T14:02:05.0000000+00:00</time></trkpt><trkpt lat="39.46489197" lon="-0.37885398"><ele>-43.2</ele><time>2022-10-30T14:02:06.0000000+00:00</time></trkpt><trkpt lat="39.46489633" lon="-0.3788813"><ele>-43.2</ele><time>2022-10-30T14:02:07.0000000+00:00</time></trkpt><trkpt lat="39.46489742" lon="-0.37890779"><ele>-43.2</ele><time>2022-10-30T14:02:08.0000000+00:00</time></trkpt><trkpt lat="39.46490245" lon="-0.37893319"><ele>-43.2</ele><time>2022-10-30T14:02:09.0000000+00:00</time></trkpt><trkpt lat="39.46489348" lon="-0.37894953"><ele>-43.2</ele><time>2022-10-30T14:02:10.0000000+00:00</time></trkpt><trkpt lat="39.46489709" lon="-0.37896277"><ele>-43.2</ele><time>2022-10-30T14:02:11.0000000+00:00</time></trkpt><trkpt lat="39.46490245" lon="-0.37897828"><ele>-43.2</ele><time>2022-10-30T14:02:12.0000000+00:00</time></trkpt><trkpt lat="39.46490874" lon="-0.37899991"><ele>-43.2</ele><time>2022-10-30T14:02:13.0000000+00:00</time></trkpt><trkpt lat="39.46491268" lon="-0.379016"><ele>-43.2</ele><time>2022-10-30T14:02:14.0000000+00:00</time></trkpt><trkpt lat="39.46491025" lon="-0.37902673"><ele>-43.2</ele><time>2022-10-30T14:02:15.0000000+00:00</time></trkpt><trkpt lat="39.46491016" lon="-0.37904165"><ele>-43.2</ele><time>2022-10-30T14:02:16.0000000+00:00</time></trkpt><trkpt lat="39.46490756" lon="-0.37905598"><ele>-43.2</ele><time>2022-10-30T14:02:17.0000000+00:00</time></trkpt><trkpt lat="39.4649136" lon="-0.37906964"><ele>-43.2</ele><time>2022-10-30T14:02:18.0000000+00:00</time></trkpt><trkpt lat="39.46491502" lon="-0.37908599"><ele>-43.2</ele><time>2022-10-30T14:02:19.0000000+00:00</time></trkpt><trkpt lat="39.46491687" lon="-0.37910795"><ele>-43.2</ele><time>2022-10-30T14:02:20.0000000+00:00</time></trkpt><trkpt lat="39.46490949" lon="-0.37912597"><ele>-43.2</ele><time>2022-10-30T14:02:21.0000000+00:00</time></trkpt><trkpt lat="39.46490463" lon="-0.37914014"><ele>-43.2</ele><time>2022-10-30T14:02:22.0000000+00:00</time></trkpt><trkpt lat="39.46490731" lon="-0.37915472"><ele>-43.2</ele><time>2022-10-30T14:02:23.0000000+00:00</time></trkpt><trkpt lat="39.46490798" lon="-0.37916847"><ele>-43.2</ele><time>2022-10-30T14:02:24.0000000+00:00</time></trkpt><trkpt lat="39.46490672" lon="-0.37918364"><ele>-43.2</ele><time>2022-10-30T14:02:25.0000000+00:00</time></trkpt><trkpt lat="39.46490337" lon="-0.3792009"><ele>-43.2</ele><time>2022-10-30T14:02:26.0000000+00:00</time></trkpt><trkpt lat="39.46489465" lon="-0.37921691"><ele>-43.2</ele><time>2022-10-30T14:02:27.0000000+00:00</time></trkpt><trkpt lat="39.46489105" lon="-0.37923058"><ele>-43.2</ele><time>2022-10-30T14:02:28.0000000+00:00</time></trkpt><trkpt lat="39.46487211" lon="-0.37923016"><ele>-43.2</ele><time>2022-10-30T14:02:29.0000000+00:00</time></trkpt><trkpt lat="39.46486565" lon="-0.37923519"><ele>-43.2</ele><time>2022-10-30T14:02:30.0000000+00:00</time></trkpt><trkpt lat="39.46486549" lon="-0.37924248"><ele>-43.0</ele><time>2022-10-30T14:02:31.0000000+00:00</time></trkpt><trkpt lat="39.46485635" lon="-0.37924726"><ele>-43.0</ele><time>2022-10-30T14:02:32.0000000+00:00</time></trkpt><trkpt lat="39.46484679" lon="-0.37926679"><ele>-43.0</ele><time>2022-10-30T14:02:33.0000000+00:00</time></trkpt><trkpt lat="39.46484344" lon="-0.37928539"><ele>-43.0</ele><time>2022-10-30T14:02:34.0000000+00:00</time></trkpt><trkpt lat="39.46485233" lon="-0.37929352"><ele>-43.0</ele><time>2022-10-30T14:02:35.0000000+00:00</time></trkpt><trkpt lat="39.46486934" lon="-0.37929076"><ele>-43.2</ele><time>2022-10-30T14:02:36.0000000+00:00</time></trkpt><trkpt lat="39.46487655" lon="-0.37929319"><ele>-43.2</ele><time>2022-10-30T14:02:37.0000000+00:00</time></trkpt><trkpt lat="39.46488543" lon="-0.37929109"><ele>-43.2</ele><time>2022-10-30T14:02:38.0000000+00:00</time></trkpt><trkpt lat="39.46488837" lon="-0.3792895"><ele>-43.0</ele><time>2022-10-30T14:02:39.0000000+00:00</time></trkpt><trkpt lat="39.46488753" lon="-0.37928833"><ele>-43.0</ele><time>2022-10-30T14:02:40.0000000+00:00</time></trkpt><trkpt lat="39.46488828" lon="-0.3792926"><ele>-43.0</ele><time>2022-10-30T14:02:41.0000000+00:00</time></trkpt><trkpt lat="39.46488233" lon="-0.37930233"><ele>-43.0</ele><time>2022-10-30T14:02:42.0000000+00:00</time></trkpt><trkpt lat="39.46487906" lon="-0.3793087"><ele>-43.0</ele><time>2022-10-30T14:02:43.0000000+00:00</time></trkpt><trkpt lat="39.46487521" lon="-0.37931398"><ele>-43.0</ele><time>2022-10-30T14:02:44.0000000+00:00</time></trkpt><trkpt lat="39.46487068" lon="-0.3793232"><ele>-42.8</ele><time>2022-10-30T14:02:45.0000000+00:00</time></trkpt><trkpt lat="39.46486322" lon="-0.37933384"><ele>-42.8</ele><time>2022-10-30T14:02:46.0000000+00:00</time></trkpt><trkpt lat="39.46485459" lon="-0.37933661"><ele>-42.8</ele><time>2022-10-30T14:02:47.0000000+00:00</time></trkpt><trkpt lat="39.46484612" lon="-0.37933216"><ele>-42.8</ele><time>2022-10-30T14:02:48.0000000+00:00</time></trkpt><trkpt lat="39.46483598" lon="-0.37932931"><ele>-42.8</ele><time>2022-10-30T14:02:49.0000000+00:00</time></trkpt><trkpt lat="39.46482517" lon="-0.37933627"><ele>-42.8</ele><time>2022-10-30T14:02:50.0000000+00:00</time></trkpt><trkpt lat="39.46481964" lon="-0.37934616"><ele>-42.8</ele><time>2022-10-30T14:02:51.0000000+00:00</time></trkpt><trkpt lat="39.46480824" lon="-0.37934356"><ele>-42.8</ele><time>2022-10-30T14:02:52.0000000+00:00</time></trkpt><trkpt lat="39.46480363" lon="-0.37934784"><ele>-42.6</ele><time>2022-10-30T14:02:53.0000000+00:00</time></trkpt><trkpt lat="39.46479172" lon="-0.37933661"><ele>-42.6</ele><time>2022-10-30T14:02:54.0000000+00:00</time></trkpt><trkpt lat="39.46477647" lon="-0.37933912"><ele>-42.6</ele><time>2022-10-30T14:02:55.0000000+00:00</time></trkpt><trkpt lat="39.46476415" lon="-0.3793387"><ele>-42.6</ele><time>2022-10-30T14:02:56.0000000+00:00</time></trkpt><trkpt lat="39.46475124" lon="-0.37933803"><ele>-42.6</ele><time>2022-10-30T14:02:57.0000000+00:00</time></trkpt><trkpt lat="39.46474663" lon="-0.37935119"><ele>-42.6</ele><time>2022-10-30T14:02:58.0000000+00:00</time></trkpt><trkpt lat="39.46473314" lon="-0.37935605"><ele>-42.4</ele><time>2022-10-30T14:02:59.0000000+00:00</time></trkpt><trkpt lat="39.46471721" lon="-0.37935396"><ele>-42.4</ele><time>2022-10-30T14:03:00.0000000+00:00</time></trkpt><trkpt lat="39.46470782" lon="-0.37935865"><ele>-42.4</ele><time>2022-10-30T14:03:01.0000000+00:00</time></trkpt><trkpt lat="39.46469039" lon="-0.37937064"><ele>-42.4</ele><time>2022-10-30T14:03:02.0000000+00:00</time></trkpt><trkpt lat="39.46467899" lon="-0.37937416"><ele>-42.4</ele><time>2022-10-30T14:03:03.0000000+00:00</time></trkpt><trkpt lat="39.46466759" lon="-0.37937935"><ele>-42.4</ele><time>2022-10-30T14:03:04.0000000+00:00</time></trkpt><trkpt lat="39.46465208" lon="-0.37938371"><ele>-42.4</ele><time>2022-10-30T14:03:05.0000000+00:00</time></trkpt><trkpt lat="39.46463825" lon="-0.37938908"><ele>-42.4</ele><time>2022-10-30T14:03:06.0000000+00:00</time></trkpt><trkpt lat="39.4646256" lon="-0.37939042"><ele>-42.4</ele><time>2022-10-30T14:03:07.0000000+00:00</time></trkpt><trkpt lat="39.46461386" lon="-0.37939352"><ele>-42.4</ele><time>2022-10-30T14:03:08.0000000+00:00</time></trkpt><trkpt lat="39.46460548" lon="-0.37939545"><ele>-42.6</ele><time>2022-10-30T14:03:09.0000000+00:00</time></trkpt><trkpt lat="39.46459257" lon="-0.3793957"><ele>-42.6</ele><time>2022-10-30T14:03:10.0000000+00:00</time></trkpt><trkpt lat="39.46458209" lon="-0.37940207"><ele>-42.4</ele><time>2022-10-30T14:03:11.0000000+00:00</time></trkpt><trkpt lat="39.46457237" lon="-0.37940391"><ele>-42.4</ele><time>2022-10-30T14:03:12.0000000+00:00</time></trkpt><trkpt lat="39.46456273" lon="-0.37940978"><ele>-42.4</ele><time>2022-10-30T14:03:13.0000000+00:00</time></trkpt><trkpt lat="39.46455569" lon="-0.37941456"><ele>-42.2</ele><time>2022-10-30T14:03:14.0000000+00:00</time></trkpt><trkpt lat="39.46454412" lon="-0.37942026"><ele>-42.2</ele><time>2022-10-30T14:03:15.0000000+00:00</time></trkpt><trkpt lat="39.46453096" lon="-0.37941691"><ele>-42.2</ele><time>2022-10-30T14:03:16.0000000+00:00</time></trkpt><trkpt lat="39.46452099" lon="-0.37941841"><ele>-42.2</ele><time>2022-10-30T14:03:17.0000000+00:00</time></trkpt><trkpt lat="39.46451169" lon="-0.37942311"><ele>-42.2</ele><time>2022-10-30T14:03:18.0000000+00:00</time></trkpt><trkpt lat="39.46449827" lon="-0.37942822"><ele>-42.2</ele><time>2022-10-30T14:03:19.0000000+00:00</time></trkpt><trkpt lat="39.46448361" lon="-0.3794361"><ele>-42.2</ele><time>2022-10-30T14:03:20.0000000+00:00</time></trkpt><trkpt lat="39.4644712" lon="-0.37944222"><ele>-42.2</ele><time>2022-10-30T14:03:21.0000000+00:00</time></trkpt><trkpt lat="39.46445494" lon="-0.37944331"><ele>-42.2</ele><time>2022-10-30T14:03:22.0000000+00:00</time></trkpt><trkpt lat="39.4644448" lon="-0.37945144"><ele>-42.2</ele><time>2022-10-30T14:03:23.0000000+00:00</time></trkpt><trkpt lat="39.46443273" lon="-0.37945848"><ele>-42.2</ele><time>2022-10-30T14:03:24.0000000+00:00</time></trkpt><trkpt lat="39.4644215" lon="-0.37946309"><ele>-42.2</ele><time>2022-10-30T14:03:25.0000000+00:00</time></trkpt><trkpt lat="39.46441555" lon="-0.3794713"><ele>-42.2</ele><time>2022-10-30T14:03:26.0000000+00:00</time></trkpt><trkpt lat="39.46440867" lon="-0.37947868"><ele>-42.2</ele><time>2022-10-30T14:03:27.0000000+00:00</time></trkpt><trkpt lat="39.46439333" lon="-0.37948237"><ele>-42.2</ele><time>2022-10-30T14:03:28.0000000+00:00</time></trkpt><trkpt lat="39.46437917" lon="-0.37948539"><ele>-42.2</ele><time>2022-10-30T14:03:29.0000000+00:00</time></trkpt><trkpt lat="39.46436483" lon="-0.3794884"><ele>-42.2</ele><time>2022-10-30T14:03:30.0000000+00:00</time></trkpt><trkpt lat="39.46435025" lon="-0.37949167"><ele>-42.2</ele><time>2022-10-30T14:03:31.0000000+00:00</time></trkpt><trkpt lat="39.46433466" lon="-0.37949595"><ele>-42.2</ele><time>2022-10-30T14:03:32.0000000+00:00</time></trkpt><trkpt lat="39.46432234" lon="-0.37950181"><ele>-42.2</ele><time>2022-10-30T14:03:33.0000000+00:00</time></trkpt><trkpt lat="39.46431538" lon="-0.37951271"><ele>-42.2</ele><time>2022-10-30T14:03:34.0000000+00:00</time></trkpt><trkpt lat="39.46430784" lon="-0.37952562"><ele>-42.2</ele><time>2022-10-30T14:03:35.0000000+00:00</time></trkpt><trkpt lat="39.46429761" lon="-0.3795314"><ele>-42.2</ele><time>2022-10-30T14:03:36.0000000+00:00</time></trkpt><trkpt lat="39.46428487" lon="-0.37953417"><ele>-42.2</ele><time>2022-10-30T14:03:37.0000000+00:00</time></trkpt><trkpt lat="39.46427121" lon="-0.37953828"><ele>-42.2</ele><time>2022-10-30T14:03:38.0000000+00:00</time></trkpt><trkpt lat="39.46425788" lon="-0.37954087"><ele>-42.2</ele><time>2022-10-30T14:03:39.0000000+00:00</time></trkpt><trkpt lat="39.46424715" lon="-0.37953945"><ele>-42.2</ele><time>2022-10-30T14:03:40.0000000+00:00</time></trkpt><trkpt lat="39.46423927" lon="-0.37953735"><ele>-42.2</ele><time>2022-10-30T14:03:41.0000000+00:00</time></trkpt><trkpt lat="39.46422896" lon="-0.37954582"><ele>-42.2</ele><time>2022-10-30T14:03:42.0000000+00:00</time></trkpt><trkpt lat="39.46421874" lon="-0.37954766"><ele>-42.2</ele><time>2022-10-30T14:03:43.0000000+00:00</time></trkpt><trkpt lat="39.46421279" lon="-0.37954951"><ele>-42.2</ele><time>2022-10-30T14:03:44.0000000+00:00</time></trkpt><trkpt lat="39.46420164" lon="-0.37955286"><ele>-42.2</ele><time>2022-10-30T14:03:45.0000000+00:00</time></trkpt><trkpt lat="39.46419351" lon="-0.37956082"><ele>-42.2</ele><time>2022-10-30T14:03:46.0000000+00:00</time></trkpt><trkpt lat="39.46418974" lon="-0.37956594"><ele>-42.2</ele><time>2022-10-30T14:03:47.0000000+00:00</time></trkpt><trkpt lat="39.46418764" lon="-0.37957482"><ele>-42.2</ele><time>2022-10-30T14:03:48.0000000+00:00</time></trkpt><trkpt lat="39.46418035" lon="-0.37958136"><ele>-42.2</ele><time>2022-10-30T14:03:49.0000000+00:00</time></trkpt><trkpt lat="39.46417482" lon="-0.37958102"><ele>-42.2</ele><time>2022-10-30T14:03:50.0000000+00:00</time></trkpt><trkpt lat="39.46417431" lon="-0.37957843"><ele>-42.0</ele><time>2022-10-30T14:03:51.0000000+00:00</time></trkpt><trkpt lat="39.4641785" lon="-0.37957205"><ele>-42.0</ele><time>2022-10-30T14:03:52.0000000+00:00</time></trkpt><trkpt lat="39.46417876" lon="-0.37956795"><ele>-42.0</ele><time>2022-10-30T14:03:53.0000000+00:00</time></trkpt><trkpt lat="39.46417146" lon="-0.37955571"><ele>-42.0</ele><time>2022-10-30T14:03:54.0000000+00:00</time></trkpt><trkpt lat="39.46416199" lon="-0.37954398"><ele>-42.0</ele><time>2022-10-30T14:03:55.0000000+00:00</time></trkpt><trkpt lat="39.46415596" lon="-0.37954314"><ele>-42.0</ele><time>2022-10-30T14:03:56.0000000+00:00</time></trkpt><trkpt lat="39.46415227" lon="-0.37955605"><ele>-42.0</ele><time>2022-10-30T14:03:57.0000000+00:00</time></trkpt><trkpt lat="39.46414657" lon="-0.37956862"><ele>-42.0</ele><time>2022-10-30T14:03:58.0000000+00:00</time></trkpt><trkpt lat="39.46414305" lon="-0.37958362"><ele>-42.0</ele><time>2022-10-30T14:03:59.0000000+00:00</time></trkpt><trkpt lat="39.46413576" lon="-0.37960189"><ele>-42.0</ele><time>2022-10-30T14:04:00.0000000+00:00</time></trkpt><trkpt lat="39.46413308" lon="-0.37962779"><ele>-42.0</ele><time>2022-10-30T14:04:01.0000000+00:00</time></trkpt><trkpt lat="39.46414389" lon="-0.37964196"><ele>-42.0</ele><time>2022-10-30T14:04:02.0000000+00:00</time></trkpt><trkpt lat="39.46415537" lon="-0.37965504"><ele>-42.0</ele><time>2022-10-30T14:04:03.0000000+00:00</time></trkpt><trkpt lat="39.46414565" lon="-0.37966518"><ele>-42.0</ele><time>2022-10-30T14:04:04.0000000+00:00</time></trkpt><trkpt lat="39.46413651" lon="-0.37967322"><ele>-42.0</ele><time>2022-10-30T14:04:05.0000000+00:00</time></trkpt><trkpt lat="39.46412193" lon="-0.37968781"><ele>-42.0</ele><time>2022-10-30T14:04:06.0000000+00:00</time></trkpt><trkpt lat="39.46409921" lon="-0.37970047"><ele>-42.0</ele><time>2022-10-30T14:04:07.0000000+00:00</time></trkpt><trkpt lat="39.4640734" lon="-0.37970784"><ele>-42.0</ele><time>2022-10-30T14:04:08.0000000+00:00</time></trkpt><trkpt lat="39.46405227" lon="-0.37971564"><ele>-42.0</ele><time>2022-10-30T14:04:09.0000000+00:00</time></trkpt><trkpt lat="39.46403618" lon="-0.37971891"><ele>-42.0</ele><time>2022-10-30T14:04:10.0000000+00:00</time></trkpt><trkpt lat="39.46402352" lon="-0.37973031"><ele>-42.0</ele><time>2022-10-30T14:04:11.0000000+00:00</time></trkpt><trkpt lat="39.46400341" lon="-0.37973953"><ele>-42.0</ele><time>2022-10-30T14:04:12.0000000+00:00</time></trkpt><trkpt lat="39.46398974" lon="-0.37974405"><ele>-42.0</ele><time>2022-10-30T14:04:13.0000000+00:00</time></trkpt><trkpt lat="39.46397089" lon="-0.3797521"><ele>-41.8</ele><time>2022-10-30T14:04:14.0000000+00:00</time></trkpt><trkpt lat="39.46396502" lon="-0.37975637"><ele>-41.8</ele><time>2022-10-30T14:04:15.0000000+00:00</time></trkpt><trkpt lat="39.46396275" lon="-0.37975889"><ele>-41.6</ele><time>2022-10-30T14:04:16.0000000+00:00</time></trkpt><trkpt lat="39.46396099" lon="-0.37975822"><ele>-41.6</ele><time>2022-10-30T14:04:17.0000000+00:00</time></trkpt><trkpt lat="39.46396158" lon="-0.37976685"><ele>-41.4</ele><time>2022-10-30T14:04:18.0000000+00:00</time></trkpt><trkpt lat="39.46394876" lon="-0.37977506"><ele>-41.4</ele><time>2022-10-30T14:04:19.0000000+00:00</time></trkpt><trkpt lat="39.46393702" lon="-0.3797759"><ele>-41.4</ele><time>2022-10-30T14:04:20.0000000+00:00</time></trkpt><trkpt lat="39.46392546" lon="-0.37978227"><ele>-41.4</ele><time>2022-10-30T14:04:21.0000000+00:00</time></trkpt><trkpt lat="39.46392277" lon="-0.3797847"><ele>-41.6</ele><time>2022-10-30T14:04:22.0000000+00:00</time></trkpt><trkpt lat="39.46392705" lon="-0.37980298"><ele>-41.6</ele><time>2022-10-30T14:04:23.0000000+00:00</time></trkpt><trkpt lat="39.46393442" lon="-0.37980155"><ele>-41.4</ele><time>2022-10-30T14:04:24.0000000+00:00</time></trkpt><trkpt lat="39.46393367" lon="-0.37980675"><ele>-41.4</ele><time>2022-10-30T14:04:25.0000000+00:00</time></trkpt><trkpt lat="39.46393476" lon="-0.37982008"><ele>-41.4</ele><time>2022-10-30T14:04:26.0000000+00:00</time></trkpt><trkpt lat="39.46393359" lon="-0.37983508"><ele>-41.4</ele><time>2022-10-30T14:04:27.0000000+00:00</time></trkpt><trkpt lat="39.46393702" lon="-0.37985276"><ele>-41.4</ele><time>2022-10-30T14:04:28.0000000+00:00</time></trkpt><trkpt lat="39.46394063" lon="-0.37985411"><ele>-41.4</ele><time>2022-10-30T14:04:29.0000000+00:00</time></trkpt><trkpt lat="39.46393861" lon="-0.37985939"><ele>-41.4</ele><time>2022-10-30T14:04:30.0000000+00:00</time></trkpt><trkpt lat="39.46393618" lon="-0.3798702"><ele>-41.4</ele><time>2022-10-30T14:04:31.0000000+00:00</time></trkpt><trkpt lat="39.46393132" lon="-0.37988076"><ele>-41.6</ele><time>2022-10-30T14:04:32.0000000+00:00</time></trkpt><trkpt lat="39.4639221" lon="-0.37989149"><ele>-41.6</ele><time>2022-10-30T14:04:33.0000000+00:00</time></trkpt><trkpt lat="39.46391313" lon="-0.37990473"><ele>-41.6</ele><time>2022-10-30T14:04:34.0000000+00:00</time></trkpt><trkpt lat="39.46389939" lon="-0.37991999"><ele>-41.6</ele><time>2022-10-30T14:04:35.0000000+00:00</time></trkpt><trkpt lat="39.46387793" lon="-0.3799308"><ele>-41.6</ele><time>2022-10-30T14:04:36.0000000+00:00</time></trkpt><trkpt lat="39.46385681" lon="-0.37993616"><ele>-41.6</ele><time>2022-10-30T14:04:37.0000000+00:00</time></trkpt><trkpt lat="39.46383191" lon="-0.37994564"><ele>-41.8</ele><time>2022-10-30T14:04:38.0000000+00:00</time></trkpt><trkpt lat="39.46381456" lon="-0.37994756"><ele>-41.8</ele><time>2022-10-30T14:04:39.0000000+00:00</time></trkpt><trkpt lat="39.46379864" lon="-0.37994782"><ele>-41.8</ele><time>2022-10-30T14:04:40.0000000+00:00</time></trkpt><trkpt lat="39.46379629" lon="-0.37994253"><ele>-41.8</ele><time>2022-10-30T14:04:41.0000000+00:00</time></trkpt><trkpt lat="39.46378615" lon="-0.37994698"><ele>-41.6</ele><time>2022-10-30T14:04:42.0000000+00:00</time></trkpt><trkpt lat="39.46377492" lon="-0.37994907"><ele>-41.8</ele><time>2022-10-30T14:04:43.0000000+00:00</time></trkpt><trkpt lat="39.46376377" lon="-0.3799505"><ele>-41.8</ele><time>2022-10-30T14:04:44.0000000+00:00</time></trkpt><trkpt lat="39.46375304" lon="-0.37994916"><ele>-41.8</ele><time>2022-10-30T14:04:45.0000000+00:00</time></trkpt><trkpt lat="39.46375078" lon="-0.37994312"><ele>-41.8</ele><time>2022-10-30T14:04:46.0000000+00:00</time></trkpt><trkpt lat="39.46374952" lon="-0.37994103"><ele>-41.8</ele><time>2022-10-30T14:04:47.0000000+00:00</time></trkpt><trkpt lat="39.46374759" lon="-0.37994304"><ele>-41.6</ele><time>2022-10-30T14:04:48.0000000+00:00</time></trkpt><trkpt lat="39.46374617" lon="-0.3799458"><ele>-41.6</ele><time>2022-10-30T14:04:49.0000000+00:00</time></trkpt><trkpt lat="39.46374566" lon="-0.37994488"><ele>-41.6</ele><time>2022-10-30T14:04:50.0000000+00:00</time></trkpt><trkpt lat="39.46374441" lon="-0.37994346"><ele>-41.6</ele><time>2022-10-30T14:04:51.0000000+00:00</time></trkpt><trkpt lat="39.46374491" lon="-0.37994337"><ele>-41.6</ele><time>2022-10-30T14:04:52.0000000+00:00</time></trkpt><trkpt lat="39.46374231" lon="-0.37995259"><ele>-41.6</ele><time>2022-10-30T14:04:53.0000000+00:00</time></trkpt><trkpt lat="39.4637408" lon="-0.37996114"><ele>-41.6</ele><time>2022-10-30T14:04:54.0000000+00:00</time></trkpt><trkpt lat="39.46374223" lon="-0.37996969"><ele>-41.6</ele><time>2022-10-30T14:04:55.0000000+00:00</time></trkpt><trkpt lat="39.46374784" lon="-0.37997363"><ele>-41.6</ele><time>2022-10-30T14:04:56.0000000+00:00</time></trkpt><trkpt lat="39.46375212" lon="-0.37997967"><ele>-41.6</ele><time>2022-10-30T14:04:57.0000000+00:00</time></trkpt><trkpt lat="39.46375706" lon="-0.37998771"><ele>-41.6</ele><time>2022-10-30T14:04:58.0000000+00:00</time></trkpt><trkpt lat="39.46376067" lon="-0.37999786"><ele>-41.6</ele><time>2022-10-30T14:04:59.0000000+00:00</time></trkpt><trkpt lat="39.46376293" lon="-0.38001261"><ele>-41.8</ele><time>2022-10-30T14:05:00.0000000+00:00</time></trkpt><trkpt lat="39.4637657" lon="-0.38002845"><ele>-42.0</ele><time>2022-10-30T14:05:01.0000000+00:00</time></trkpt><trkpt lat="39.4637672" lon="-0.3800463"><ele>-42.0</ele><time>2022-10-30T14:05:02.0000000+00:00</time></trkpt><trkpt lat="39.46376897" lon="-0.38006005"><ele>-42.0</ele><time>2022-10-30T14:05:03.0000000+00:00</time></trkpt><trkpt lat="39.46377047" lon="-0.38007095"><ele>-41.8</ele><time>2022-10-30T14:05:04.0000000+00:00</time></trkpt><trkpt lat="39.4637698" lon="-0.38008905"><ele>-41.8</ele><time>2022-10-30T14:05:05.0000000+00:00</time></trkpt><trkpt lat="39.4637724" lon="-0.38010498"><ele>-41.8</ele><time>2022-10-30T14:05:06.0000000+00:00</time></trkpt><trkpt lat="39.46377366" lon="-0.38011964"><ele>-41.8</ele><time>2022-10-30T14:05:07.0000000+00:00</time></trkpt><trkpt lat="39.4637786" lon="-0.38011218"><ele>-41.8</ele><time>2022-10-30T14:05:08.0000000+00:00</time></trkpt><trkpt lat="39.46378657" lon="-0.38010808"><ele>-41.8</ele><time>2022-10-30T14:05:09.0000000+00:00</time></trkpt><trkpt lat="39.46379311" lon="-0.38009022"><ele>-41.8</ele><time>2022-10-30T14:05:10.0000000+00:00</time></trkpt><trkpt lat="39.46380467" lon="-0.38007396"><ele>-41.8</ele><time>2022-10-30T14:05:11.0000000+00:00</time></trkpt><trkpt lat="39.46381062" lon="-0.38007229"><ele>-41.8</ele><time>2022-10-30T14:05:12.0000000+00:00</time></trkpt><trkpt lat="39.463818" lon="-0.38007296"><ele>-41.8</ele><time>2022-10-30T14:05:13.0000000+00:00</time></trkpt><trkpt lat="39.46382169" lon="-0.3800795"><ele>-41.8</ele><time>2022-10-30T14:05:14.0000000+00:00</time></trkpt><trkpt lat="39.46382663" lon="-0.38008553"><ele>-41.8</ele><time>2022-10-30T14:05:15.0000000+00:00</time></trkpt><trkpt lat="39.46382957" lon="-0.38009685"><ele>-41.8</ele><time>2022-10-30T14:05:16.0000000+00:00</time></trkpt><trkpt lat="39.46383317" lon="-0.38010933"><ele>-41.8</ele><time>2022-10-30T14:05:17.0000000+00:00</time></trkpt><trkpt lat="39.46383569" lon="-0.38012601"><ele>-41.8</ele><time>2022-10-30T14:05:18.0000000+00:00</time></trkpt><trkpt lat="39.46383828" lon="-0.38013465"><ele>-41.8</ele><time>2022-10-30T14:05:19.0000000+00:00</time></trkpt><trkpt lat="39.4638418" lon="-0.38015552"><ele>-41.8</ele><time>2022-10-30T14:05:20.0000000+00:00</time></trkpt><trkpt lat="39.46385178" lon="-0.38018326"><ele>-41.8</ele><time>2022-10-30T14:05:21.0000000+00:00</time></trkpt><trkpt lat="39.46386267" lon="-0.38019617"><ele>-41.8</ele><time>2022-10-30T14:05:22.0000000+00:00</time></trkpt><trkpt lat="39.46387039" lon="-0.38021562"><ele>-41.8</ele><time>2022-10-30T14:05:23.0000000+00:00</time></trkpt><trkpt lat="39.46386745" lon="-0.3802416"><ele>-41.8</ele><time>2022-10-30T14:05:24.0000000+00:00</time></trkpt><trkpt lat="39.46386402" lon="-0.3802763"><ele>-41.8</ele><time>2022-10-30T14:05:25.0000000+00:00</time></trkpt><trkpt lat="39.46386997" lon="-0.38029717"><ele>-41.8</ele><time>2022-10-30T14:05:26.0000000+00:00</time></trkpt><trkpt lat="39.463875" lon="-0.38031695"><ele>-41.8</ele><time>2022-10-30T14:05:27.0000000+00:00</time></trkpt><trkpt lat="39.46386603" lon="-0.38036708"><ele>-41.8</ele><time>2022-10-30T14:05:28.0000000+00:00</time></trkpt><trkpt lat="39.46385019" lon="-0.38042416"><ele>-41.8</ele><time>2022-10-30T14:05:29.0000000+00:00</time></trkpt><trkpt lat="39.46384231" lon="-0.38045827"><ele>-41.8</ele><time>2022-10-30T14:05:30.0000000+00:00</time></trkpt><trkpt lat="39.46385337" lon="-0.3804716"><ele>-41.8</ele><time>2022-10-30T14:05:31.0000000+00:00</time></trkpt><trkpt lat="39.46386821" lon="-0.38045626"><ele>-41.8</ele><time>2022-10-30T14:05:32.0000000+00:00</time></trkpt><trkpt lat="39.46388857" lon="-0.38044847"><ele>-41.8</ele><time>2022-10-30T14:05:33.0000000+00:00</time></trkpt><trkpt lat="39.46390173" lon="-0.38044905"><ele>-41.8</ele><time>2022-10-30T14:05:34.0000000+00:00</time></trkpt><trkpt lat="39.46391372" lon="-0.38045224"><ele>-41.8</ele><time>2022-10-30T14:05:35.0000000+00:00</time></trkpt><trkpt lat="39.46391909" lon="-0.38046196"><ele>-41.8</ele><time>2022-10-30T14:05:36.0000000+00:00</time></trkpt><trkpt lat="39.46392227" lon="-0.38048585"><ele>-41.8</ele><time>2022-10-30T14:05:37.0000000+00:00</time></trkpt><trkpt lat="39.46392814" lon="-0.38050546"><ele>-41.8</ele><time>2022-10-30T14:05:38.0000000+00:00</time></trkpt><trkpt lat="39.46394063" lon="-0.38051862"><ele>-41.8</ele><time>2022-10-30T14:05:39.0000000+00:00</time></trkpt><trkpt lat="39.46395001" lon="-0.38051946"><ele>-41.8</ele><time>2022-10-30T14:05:40.0000000+00:00</time></trkpt><trkpt lat="39.46396284" lon="-0.38052273"><ele>-41.6</ele><time>2022-10-30T14:05:41.0000000+00:00</time></trkpt><trkpt lat="39.46397524" lon="-0.38051963"><ele>-41.6</ele><time>2022-10-30T14:05:42.0000000+00:00</time></trkpt><trkpt lat="39.4639796" lon="-0.38052985"><ele>-41.8</ele><time>2022-10-30T14:05:43.0000000+00:00</time></trkpt><trkpt lat="39.46398279" lon="-0.38054042"><ele>-41.6</ele><time>2022-10-30T14:05:44.0000000+00:00</time></trkpt><trkpt lat="39.46398974" lon="-0.38055609"><ele>-41.6</ele><time>2022-10-30T14:05:45.0000000+00:00</time></trkpt><trkpt lat="39.46399762" lon="-0.38057093"><ele>-41.6</ele><time>2022-10-30T14:05:46.0000000+00:00</time></trkpt><trkpt lat="39.46400383" lon="-0.38059004"><ele>-41.8</ele><time>2022-10-30T14:05:47.0000000+00:00</time></trkpt><trkpt lat="39.46401112" lon="-0.38061166"><ele>-41.8</ele><time>2022-10-30T14:05:48.0000000+00:00</time></trkpt><trkpt lat="39.46401933" lon="-0.38062172"><ele>-41.8</ele><time>2022-10-30T14:05:49.0000000+00:00</time></trkpt><trkpt lat="39.46402822" lon="-0.38063052"><ele>-41.8</ele><time>2022-10-30T14:05:50.0000000+00:00</time></trkpt><trkpt lat="39.46404004" lon="-0.38063337"><ele>-41.8</ele><time>2022-10-30T14:05:51.0000000+00:00</time></trkpt><trkpt lat="39.46404791" lon="-0.38063714"><ele>-41.8</ele><time>2022-10-30T14:05:52.0000000+00:00</time></trkpt><trkpt lat="39.46405764" lon="-0.38064133"><ele>-41.8</ele><time>2022-10-30T14:05:53.0000000+00:00</time></trkpt><trkpt lat="39.46406443" lon="-0.38063957"><ele>-41.8</ele><time>2022-10-30T14:05:54.0000000+00:00</time></trkpt><trkpt lat="39.46407281" lon="-0.38063966"><ele>-41.8</ele><time>2022-10-30T14:05:55.0000000+00:00</time></trkpt><trkpt lat="39.46408203" lon="-0.38063245"><ele>-41.8</ele><time>2022-10-30T14:05:56.0000000+00:00</time></trkpt><trkpt lat="39.46409343" lon="-0.38063094"><ele>-41.8</ele><time>2022-10-30T14:05:57.0000000+00:00</time></trkpt><trkpt lat="39.46410282" lon="-0.3806291"><ele>-41.8</ele><time>2022-10-30T14:05:58.0000000+00:00</time></trkpt><trkpt lat="39.46411413" lon="-0.380642"><ele>-41.6</ele><time>2022-10-30T14:05:59.0000000+00:00</time></trkpt><trkpt lat="39.46412813" lon="-0.38065407"><ele>-41.6</ele><time>2022-10-30T14:06:00.0000000+00:00</time></trkpt><trkpt lat="39.46413819" lon="-0.38066816"><ele>-41.6</ele><time>2022-10-30T14:06:01.0000000+00:00</time></trkpt><trkpt lat="39.46414967" lon="-0.38067696"><ele>-41.8</ele><time>2022-10-30T14:06:02.0000000+00:00</time></trkpt><trkpt lat="39.46416057" lon="-0.38068903"><ele>-41.6</ele><time>2022-10-30T14:06:03.0000000+00:00</time></trkpt><trkpt lat="39.46416719" lon="-0.38070344"><ele>-41.8</ele><time>2022-10-30T14:06:04.0000000+00:00</time></trkpt><trkpt lat="39.46417373" lon="-0.38071401"><ele>-41.8</ele><time>2022-10-30T14:06:05.0000000+00:00</time></trkpt><trkpt lat="39.46418538" lon="-0.38071878"><ele>-41.8</ele><time>2022-10-30T14:06:06.0000000+00:00</time></trkpt><trkpt lat="39.46419912" lon="-0.38072549"><ele>-41.6</ele><time>2022-10-30T14:06:07.0000000+00:00</time></trkpt><trkpt lat="39.46420927" lon="-0.38073295"><ele>-41.6</ele><time>2022-10-30T14:06:08.0000000+00:00</time></trkpt><trkpt lat="39.46421983" lon="-0.38073882"><ele>-41.6</ele><time>2022-10-30T14:06:09.0000000+00:00</time></trkpt><trkpt lat="39.4642267" lon="-0.38074384"><ele>-41.6</ele><time>2022-10-30T14:06:10.0000000+00:00</time></trkpt><trkpt lat="39.46423542" lon="-0.38075164"><ele>-41.6</ele><time>2022-10-30T14:06:11.0000000+00:00</time></trkpt><trkpt lat="39.46424497" lon="-0.38075801"><ele>-41.6</ele><time>2022-10-30T14:06:12.0000000+00:00</time></trkpt><trkpt lat="39.46425545" lon="-0.38076371"><ele>-41.6</ele><time>2022-10-30T14:06:13.0000000+00:00</time></trkpt><trkpt lat="39.46426936" lon="-0.38076664"><ele>-41.6</ele><time>2022-10-30T14:06:14.0000000+00:00</time></trkpt><trkpt lat="39.46428286" lon="-0.38076002"><ele>-41.6</ele><time>2022-10-30T14:06:15.0000000+00:00</time></trkpt><trkpt lat="39.46429367" lon="-0.38073437"><ele>-41.6</ele><time>2022-10-30T14:06:16.0000000+00:00</time></trkpt><trkpt lat="39.46430876" lon="-0.38072792"><ele>-41.6</ele><time>2022-10-30T14:06:17.0000000+00:00</time></trkpt><trkpt lat="39.46432318" lon="-0.3807218"><ele>-41.6</ele><time>2022-10-30T14:06:18.0000000+00:00</time></trkpt><trkpt lat="39.46433734" lon="-0.38071602"><ele>-41.6</ele><time>2022-10-30T14:06:19.0000000+00:00</time></trkpt><trkpt lat="39.46434824" lon="-0.38071426"><ele>-41.6</ele><time>2022-10-30T14:06:20.0000000+00:00</time></trkpt><trkpt lat="39.46435595" lon="-0.38071836"><ele>-41.6</ele><time>2022-10-30T14:06:21.0000000+00:00</time></trkpt><trkpt lat="39.46436299" lon="-0.38072532"><ele>-41.6</ele><time>2022-10-30T14:06:22.0000000+00:00</time></trkpt><trkpt lat="39.46437162" lon="-0.38073496"><ele>-41.6</ele><time>2022-10-30T14:06:23.0000000+00:00</time></trkpt><trkpt lat="39.46438143" lon="-0.38074259"><ele>-41.6</ele><time>2022-10-30T14:06:24.0000000+00:00</time></trkpt><trkpt lat="39.46438889" lon="-0.38075256"><ele>-41.6</ele><time>2022-10-30T14:06:25.0000000+00:00</time></trkpt><trkpt lat="39.46439643" lon="-0.38075902"><ele>-41.6</ele><time>2022-10-30T14:06:26.0000000+00:00</time></trkpt><trkpt lat="39.46440624" lon="-0.38076597"><ele>-41.6</ele><time>2022-10-30T14:06:27.0000000+00:00</time></trkpt><trkpt lat="39.46441127" lon="-0.38077419"><ele>-41.6</ele><time>2022-10-30T14:06:28.0000000+00:00</time></trkpt><trkpt lat="39.46442485" lon="-0.38077796"><ele>-41.6</ele><time>2022-10-30T14:06:29.0000000+00:00</time></trkpt><trkpt lat="39.46444304" lon="-0.38077142"><ele>-41.6</ele><time>2022-10-30T14:06:30.0000000+00:00</time></trkpt><trkpt lat="39.4644572" lon="-0.38075206"><ele>-41.6</ele><time>2022-10-30T14:06:31.0000000+00:00</time></trkpt><trkpt lat="39.46447372" lon="-0.3807337"><ele>-41.6</ele><time>2022-10-30T14:06:32.0000000+00:00</time></trkpt><trkpt lat="39.46449249" lon="-0.38071836"><ele>-41.6</ele><time>2022-10-30T14:06:33.0000000+00:00</time></trkpt><trkpt lat="39.46450565" lon="-0.38071543"><ele>-41.6</ele><time>2022-10-30T14:06:34.0000000+00:00</time></trkpt><trkpt lat="39.46451638" lon="-0.3807161"><ele>-41.6</ele><time>2022-10-30T14:06:35.0000000+00:00</time></trkpt><trkpt lat="39.46452862" lon="-0.38071744"><ele>-41.6</ele><time>2022-10-30T14:06:36.0000000+00:00</time></trkpt><trkpt lat="39.46453658" lon="-0.38072163"><ele>-41.6</ele><time>2022-10-30T14:06:37.0000000+00:00</time></trkpt><trkpt lat="39.46454354" lon="-0.38072658"><ele>-41.4</ele><time>2022-10-30T14:06:38.0000000+00:00</time></trkpt><trkpt lat="39.46455351" lon="-0.38073169"><ele>-41.4</ele><time>2022-10-30T14:06:39.0000000+00:00</time></trkpt><trkpt lat="39.46456424" lon="-0.38073421"><ele>-41.4</ele><time>2022-10-30T14:06:40.0000000+00:00</time></trkpt><trkpt lat="39.46457296" lon="-0.38073513"><ele>-41.4</ele><time>2022-10-30T14:06:41.0000000+00:00</time></trkpt><trkpt lat="39.46458377" lon="-0.38073605"><ele>-41.4</ele><time>2022-10-30T14:06:42.0000000+00:00</time></trkpt><trkpt lat="39.46459534" lon="-0.38073689"><ele>-41.6</ele><time>2022-10-30T14:06:43.0000000+00:00</time></trkpt><trkpt lat="39.46460523" lon="-0.38073555"><ele>-41.6</ele><time>2022-10-30T14:06:44.0000000+00:00</time></trkpt><trkpt lat="39.46461763" lon="-0.38074242"><ele>-41.6</ele><time>2022-10-30T14:06:45.0000000+00:00</time></trkpt><trkpt lat="39.4646287" lon="-0.38074988"><ele>-41.6</ele><time>2022-10-30T14:06:46.0000000+00:00</time></trkpt><trkpt lat="39.46463691" lon="-0.38075675"><ele>-41.6</ele><time>2022-10-30T14:06:47.0000000+00:00</time></trkpt><trkpt lat="39.46465133" lon="-0.38076564"><ele>-41.6</ele><time>2022-10-30T14:06:48.0000000+00:00</time></trkpt><trkpt lat="39.46466717" lon="-0.38077612"><ele>-41.6</ele><time>2022-10-30T14:06:49.0000000+00:00</time></trkpt><trkpt lat="39.46467497" lon="-0.38079003"><ele>-41.4</ele><time>2022-10-30T14:06:50.0000000+00:00</time></trkpt><trkpt lat="39.46468578" lon="-0.38079975"><ele>-41.4</ele><time>2022-10-30T14:06:51.0000000+00:00</time></trkpt><trkpt lat="39.46469701" lon="-0.38081023"><ele>-41.4</ele><time>2022-10-30T14:06:52.0000000+00:00</time></trkpt><trkpt lat="39.46470732" lon="-0.3808145"><ele>-41.4</ele><time>2022-10-30T14:06:53.0000000+00:00</time></trkpt><trkpt lat="39.46471461" lon="-0.38082196"><ele>-41.4</ele><time>2022-10-30T14:06:54.0000000+00:00</time></trkpt><trkpt lat="39.46472073" lon="-0.38083479"><ele>-41.4</ele><time>2022-10-30T14:06:55.0000000+00:00</time></trkpt><trkpt lat="39.46473297" lon="-0.38084384"><ele>-41.4</ele><time>2022-10-30T14:06:56.0000000+00:00</time></trkpt><trkpt lat="39.4647442" lon="-0.38085155"><ele>-41.4</ele><time>2022-10-30T14:06:57.0000000+00:00</time></trkpt><trkpt lat="39.46475116" lon="-0.38086622"><ele>-41.6</ele><time>2022-10-30T14:06:58.0000000+00:00</time></trkpt><trkpt lat="39.4647561" lon="-0.38088173"><ele>-41.6</ele><time>2022-10-30T14:06:59.0000000+00:00</time></trkpt><trkpt lat="39.46475493" lon="-0.38090318"><ele>-41.6</ele><time>2022-10-30T14:07:00.0000000+00:00</time></trkpt><trkpt lat="39.46476867" lon="-0.38091341"><ele>-41.6</ele><time>2022-10-30T14:07:01.0000000+00:00</time></trkpt><trkpt lat="39.46478217" lon="-0.38092892"><ele>-41.6</ele><time>2022-10-30T14:07:02.0000000+00:00</time></trkpt><trkpt lat="39.46479441" lon="-0.3809409"><ele>-41.6</ele><time>2022-10-30T14:07:03.0000000+00:00</time></trkpt><trkpt lat="39.46480095" lon="-0.38094996"><ele>-41.6</ele><time>2022-10-30T14:07:04.0000000+00:00</time></trkpt><trkpt lat="39.46480405" lon="-0.38095146"><ele>-41.6</ele><time>2022-10-30T14:07:05.0000000+00:00</time></trkpt><trkpt lat="39.46480597" lon="-0.38095172"><ele>-41.6</ele><time>2022-10-30T14:07:06.0000000+00:00</time></trkpt><trkpt lat="39.4648043" lon="-0.3809518"><ele>-41.8</ele><time>2022-10-30T14:07:07.0000000+00:00</time></trkpt><trkpt lat="39.46480271" lon="-0.38096136"><ele>-41.8</ele><time>2022-10-30T14:07:08.0000000+00:00</time></trkpt><trkpt lat="39.46480312" lon="-0.38097787"><ele>-41.8</ele><time>2022-10-30T14:07:09.0000000+00:00</time></trkpt><trkpt lat="39.46480053" lon="-0.38099966"><ele>-41.8</ele><time>2022-10-30T14:07:10.0000000+00:00</time></trkpt><trkpt lat="39.46480371" lon="-0.38100201"><ele>-41.8</ele><time>2022-10-30T14:07:11.0000000+00:00</time></trkpt><trkpt lat="39.46480748" lon="-0.3810041"><ele>-41.8</ele><time>2022-10-30T14:07:12.0000000+00:00</time></trkpt><trkpt lat="39.46480908" lon="-0.38100561"><ele>-41.8</ele><time>2022-10-30T14:07:13.0000000+00:00</time></trkpt><trkpt lat="39.46480916" lon="-0.38100896"><ele>-41.8</ele><time>2022-10-30T14:07:14.0000000+00:00</time></trkpt><trkpt lat="39.46480949" lon="-0.38100637"><ele>-41.8</ele><time>2022-10-30T14:07:15.0000000+00:00</time></trkpt><trkpt lat="39.46480983" lon="-0.38100561"><ele>-41.8</ele><time>2022-10-30T14:07:16.0000000+00:00</time></trkpt><trkpt lat="39.46481058" lon="-0.38101089"><ele>-41.8</ele><time>2022-10-30T14:07:17.0000000+00:00</time></trkpt><trkpt lat="39.46481318" lon="-0.38102414"><ele>-41.8</ele><time>2022-10-30T14:07:18.0000000+00:00</time></trkpt><trkpt lat="39.46481763" lon="-0.38103998"><ele>-41.8</ele><time>2022-10-30T14:07:19.0000000+00:00</time></trkpt><trkpt lat="39.46482425" lon="-0.38105238"><ele>-41.8</ele><time>2022-10-30T14:07:20.0000000+00:00</time></trkpt><trkpt lat="39.46483615" lon="-0.38106873"><ele>-41.8</ele><time>2022-10-30T14:07:21.0000000+00:00</time></trkpt><trkpt lat="39.46484403" lon="-0.38108021"><ele>-41.8</ele><time>2022-10-30T14:07:22.0000000+00:00</time></trkpt><trkpt lat="39.46485476" lon="-0.38108784"><ele>-41.8</ele><time>2022-10-30T14:07:23.0000000+00:00</time></trkpt><trkpt lat="39.46486968" lon="-0.38109513"><ele>-41.8</ele><time>2022-10-30T14:07:24.0000000+00:00</time></trkpt><trkpt lat="39.46487848" lon="-0.3811072"><ele>-41.8</ele><time>2022-10-30T14:07:25.0000000+00:00</time></trkpt><trkpt lat="39.46488116" lon="-0.38112665"><ele>-41.8</ele><time>2022-10-30T14:07:26.0000000+00:00</time></trkpt><trkpt lat="39.46488124" lon="-0.3811424"><ele>-41.8</ele><time>2022-10-30T14:07:27.0000000+00:00</time></trkpt><trkpt lat="39.46488703" lon="-0.38115992"><ele>-41.8</ele><time>2022-10-30T14:07:28.0000000+00:00</time></trkpt><trkpt lat="39.46488996" lon="-0.38117074"><ele>-41.8</ele><time>2022-10-30T14:07:29.0000000+00:00</time></trkpt><trkpt lat="39.4648882" lon="-0.38118281"><ele>-41.8</ele><time>2022-10-30T14:07:30.0000000+00:00</time></trkpt><trkpt lat="39.46489323" lon="-0.38119337"><ele>-41.8</ele><time>2022-10-30T14:07:31.0000000+00:00</time></trkpt><trkpt lat="39.46490329" lon="-0.38120158"><ele>-41.8</ele><time>2022-10-30T14:07:32.0000000+00:00</time></trkpt><trkpt lat="39.46490874" lon="-0.38120418"><ele>-41.8</ele><time>2022-10-30T14:07:33.0000000+00:00</time></trkpt><trkpt lat="39.46491519" lon="-0.38120535"><ele>-41.8</ele><time>2022-10-30T14:07:34.0000000+00:00</time></trkpt><trkpt lat="39.46492366" lon="-0.3811999"><ele>-41.6</ele><time>2022-10-30T14:07:35.0000000+00:00</time></trkpt><trkpt lat="39.46492902" lon="-0.38119278"><ele>-41.6</ele><time>2022-10-30T14:07:36.0000000+00:00</time></trkpt><trkpt lat="39.46494235" lon="-0.38116462"><ele>-41.6</ele><time>2022-10-30T14:07:37.0000000+00:00</time></trkpt><trkpt lat="39.46495744" lon="-0.38112908"><ele>-41.6</ele><time>2022-10-30T14:07:38.0000000+00:00</time></trkpt><trkpt lat="39.46497378" lon="-0.38111315"><ele>-41.6</ele><time>2022-10-30T14:07:39.0000000+00:00</time></trkpt><trkpt lat="39.46498669" lon="-0.3810979"><ele>-41.6</ele><time>2022-10-30T14:07:40.0000000+00:00</time></trkpt><trkpt lat="39.46500454" lon="-0.38108155"><ele>-41.6</ele><time>2022-10-30T14:07:41.0000000+00:00</time></trkpt><trkpt lat="39.46501846" lon="-0.38107627"><ele>-41.6</ele><time>2022-10-30T14:07:42.0000000+00:00</time></trkpt><trkpt lat="39.46503128" lon="-0.38107954"><ele>-41.6</ele><time>2022-10-30T14:07:43.0000000+00:00</time></trkpt><trkpt lat="39.46504318" lon="-0.38108599"><ele>-41.6</ele><time>2022-10-30T14:07:44.0000000+00:00</time></trkpt><trkpt lat="39.46505249" lon="-0.3810849"><ele>-41.6</ele><time>2022-10-30T14:07:45.0000000+00:00</time></trkpt><trkpt lat="39.46506271" lon="-0.38108231"><ele>-41.6</ele><time>2022-10-30T14:07:46.0000000+00:00</time></trkpt><trkpt lat="39.46507344" lon="-0.38107359"><ele>-41.6</ele><time>2022-10-30T14:07:47.0000000+00:00</time></trkpt><trkpt lat="39.46507772" lon="-0.38107342"><ele>-41.8</ele><time>2022-10-30T14:07:48.0000000+00:00</time></trkpt><trkpt lat="39.46508375" lon="-0.38107107"><ele>-41.8</ele><time>2022-10-30T14:07:49.0000000+00:00</time></trkpt><trkpt lat="39.46509004" lon="-0.38106026"><ele>-42.0</ele><time>2022-10-30T14:07:50.0000000+00:00</time></trkpt><trkpt lat="39.4650985" lon="-0.38104467"><ele>-42.0</ele><time>2022-10-30T14:07:51.0000000+00:00</time></trkpt><trkpt lat="39.46510043" lon="-0.38104735"><ele>-42.2</ele><time>2022-10-30T14:07:52.0000000+00:00</time></trkpt><trkpt lat="39.46510135" lon="-0.38104735"><ele>-42.2</ele><time>2022-10-30T14:07:53.0000000+00:00</time></trkpt><trkpt lat="39.46510278" lon="-0.38104509"><ele>-42.2</ele><time>2022-10-30T14:07:54.0000000+00:00</time></trkpt><trkpt lat="39.4651001" lon="-0.38104501"><ele>-42.4</ele><time>2022-10-30T14:07:55.0000000+00:00</time></trkpt><trkpt lat="39.46509959" lon="-0.38104802"><ele>-42.4</ele><time>2022-10-30T14:07:56.0000000+00:00</time></trkpt><trkpt lat="39.46509917" lon="-0.38104962"><ele>-42.4</ele><time>2022-10-30T14:07:57.0000000+00:00</time></trkpt><trkpt lat="39.46509926" lon="-0.38105096"><ele>-42.4</ele><time>2022-10-30T14:07:58.0000000+00:00</time></trkpt><trkpt lat="39.46509909" lon="-0.38105096"><ele>-42.4</ele><time>2022-10-30T14:07:59.0000000+00:00</time></trkpt><trkpt lat="39.46509901" lon="-0.38105104"><ele>-42.4</ele><time>2022-10-30T14:08:00.0000000+00:00</time></trkpt><trkpt lat="39.46509926" lon="-0.38105062"><ele>-42.4</ele><time>2022-10-30T14:08:01.0000000+00:00</time></trkpt><trkpt lat="39.46509926" lon="-0.38105062"><ele>-42.4</ele><time>2022-10-30T14:08:02.0000000+00:00</time></trkpt><trkpt lat="39.46509926" lon="-0.38105062"><ele>-42.4</ele><time>2022-10-30T14:08:03.0000000+00:00</time></trkpt><trkpt lat="39.46509926" lon="-0.38105062"><ele>-42.4</ele><time>2022-10-30T14:08:04.0000000+00:00</time></trkpt><trkpt lat="39.46509926" lon="-0.38105062"><ele>-42.4</ele><time>2022-10-30T14:08:05.0000000+00:00</time></trkpt><trkpt lat="39.46509926" lon="-0.38105062"><ele>-42.4</ele><time>2022-10-30T14:08:06.0000000+00:00</time></trkpt><trkpt lat="39.46509926" lon="-0.38105062"><ele>-42.4</ele><time>2022-10-30T14:08:07.0000000+00:00</time></trkpt><trkpt lat="39.46509926" lon="-0.38105062"><ele>-42.4</ele><time>2022-10-30T14:08:08.0000000+00:00</time></trkpt><trkpt lat="39.46509926" lon="-0.38105062"><ele>-42.4</ele><time>2022-10-30T14:08:09.0000000+00:00</time></trkpt><trkpt lat="39.46509926" lon="-0.38105062"><ele>-42.4</ele><time>2022-10-30T14:08:10.0000000+00:00</time></trkpt><trkpt lat="39.46509926" lon="-0.38105062"><ele>-42.4</ele><time>2022-10-30T14:08:11.0000000+00:00</time></trkpt><trkpt lat="39.46509926" lon="-0.38105062"><ele>-42.4</ele><time>2022-10-30T14:08:12.0000000+00:00</time></trkpt><trkpt lat="39.46509926" lon="-0.38105062"><ele>-42.4</ele><time>2022-10-30T14:08:13.0000000+00:00</time></trkpt><trkpt lat="39.46509926" lon="-0.38105062"><ele>-42.4</ele><time>2022-10-30T14:08:14.0000000+00:00</time></trkpt><trkpt lat="39.46509917" lon="-0.38105062"><ele>-42.4</ele><time>2022-10-30T14:08:15.0000000+00:00</time></trkpt><trkpt lat="39.46509909" lon="-0.38105062"><ele>-42.4</ele><time>2022-10-30T14:08:16.0000000+00:00</time></trkpt><trkpt lat="39.46509901" lon="-0.38105062"><ele>-42.4</ele><time>2022-10-30T14:08:17.0000000+00:00</time></trkpt><trkpt lat="39.46509859" lon="-0.38105012"><ele>-42.4</ele><time>2022-10-30T14:08:18.0000000+00:00</time></trkpt><trkpt lat="39.46509833" lon="-0.38104995"><ele>-42.4</ele><time>2022-10-30T14:08:19.0000000+00:00</time></trkpt><trkpt lat="39.46509817" lon="-0.38104962"><ele>-42.4</ele><time>2022-10-30T14:08:20.0000000+00:00</time></trkpt><trkpt lat="39.46509808" lon="-0.38104945"><ele>-42.4</ele><time>2022-10-30T14:08:21.0000000+00:00</time></trkpt><trkpt lat="39.46509792" lon="-0.38104869"><ele>-42.4</ele><time>2022-10-30T14:08:22.0000000+00:00</time></trkpt><trkpt lat="39.46509792" lon="-0.38104861"><ele>-42.4</ele><time>2022-10-30T14:08:23.0000000+00:00</time></trkpt><trkpt lat="39.46509792" lon="-0.38104911"><ele>-42.4</ele><time>2022-10-30T14:08:24.0000000+00:00</time></trkpt><trkpt lat="39.46509775" lon="-0.38104937"><ele>-42.2</ele><time>2022-10-30T14:08:25.0000000+00:00</time></trkpt><trkpt lat="39.46509758" lon="-0.38104962"><ele>-42.2</ele><time>2022-10-30T14:08:26.0000000+00:00</time></trkpt><trkpt lat="39.46509758" lon="-0.38104987"><ele>-42.2</ele><time>2022-10-30T14:08:27.0000000+00:00</time></trkpt><trkpt lat="39.4650975" lon="-0.38104987"><ele>-42.2</ele><time>2022-10-30T14:08:28.0000000+00:00</time></trkpt><trkpt lat="39.46509716" lon="-0.38104987"><ele>-42.2</ele><time>2022-10-30T14:08:29.0000000+00:00</time></trkpt><trkpt lat="39.46509708" lon="-0.38104987"><ele>-42.2</ele><time>2022-10-30T14:08:30.0000000+00:00</time></trkpt><trkpt lat="39.46509691" lon="-0.38104987"><ele>-42.2</ele><time>2022-10-30T14:08:31.0000000+00:00</time></trkpt><trkpt lat="39.46509674" lon="-0.38104987"><ele>-42.2</ele><time>2022-10-30T14:08:32.0000000+00:00</time></trkpt><trkpt lat="39.46509666" lon="-0.38104987"><ele>-42.2</ele><time>2022-10-30T14:08:33.0000000+00:00</time></trkpt><trkpt lat="39.46509666" lon="-0.38104987"><ele>-42.2</ele><time>2022-10-30T14:08:34.0000000+00:00</time></trkpt><trkpt lat="39.46509607" lon="-0.38104987"><ele>-42.2</ele><time>2022-10-30T14:08:35.0000000+00:00</time></trkpt><trkpt lat="39.46509582" lon="-0.38104987"><ele>-42.4</ele><time>2022-10-30T14:08:36.0000000+00:00</time></trkpt><trkpt lat="39.46509557" lon="-0.38104987"><ele>-42.4</ele><time>2022-10-30T14:08:37.0000000+00:00</time></trkpt><trkpt lat="39.46509523" lon="-0.38104987"><ele>-42.4</ele><time>2022-10-30T14:08:38.0000000+00:00</time></trkpt><trkpt lat="39.46509498" lon="-0.38105079"><ele>-42.4</ele><time>2022-10-30T14:08:39.0000000+00:00</time></trkpt><trkpt lat="39.46509498" lon="-0.38105146"><ele>-42.2</ele><time>2022-10-30T14:08:40.0000000+00:00</time></trkpt><trkpt lat="39.46509406" lon="-0.38105163"><ele>-42.2</ele><time>2022-10-30T14:08:41.0000000+00:00</time></trkpt><trkpt lat="39.46509372" lon="-0.38105163"><ele>-42.2</ele><time>2022-10-30T14:08:42.0000000+00:00</time></trkpt><trkpt lat="39.46509289" lon="-0.38105163"><ele>-42.2</ele><time>2022-10-30T14:08:43.0000000+00:00</time></trkpt><trkpt lat="39.46509129" lon="-0.38105188"><ele>-42.2</ele><time>2022-10-30T14:08:44.0000000+00:00</time></trkpt><trkpt lat="39.46509062" lon="-0.38105205"><ele>-42.2</ele><time>2022-10-30T14:08:45.0000000+00:00</time></trkpt><trkpt lat="39.46509037" lon="-0.38105213"><ele>-42.2</ele><time>2022-10-30T14:08:46.0000000+00:00</time></trkpt><trkpt lat="39.46509029" lon="-0.3810523"><ele>-42.2</ele><time>2022-10-30T14:08:47.0000000+00:00</time></trkpt><trkpt lat="39.46509004" lon="-0.38105247"><ele>-42.4</ele><time>2022-10-30T14:08:48.0000000+00:00</time></trkpt><trkpt lat="39.46508995" lon="-0.3810528"><ele>-42.4</ele><time>2022-10-30T14:08:49.0000000+00:00</time></trkpt><trkpt lat="39.4650897" lon="-0.38105305"><ele>-42.4</ele><time>2022-10-30T14:08:50.0000000+00:00</time></trkpt><trkpt lat="39.46508962" lon="-0.38105339"><ele>-42.4</ele><time>2022-10-30T14:08:51.0000000+00:00</time></trkpt><trkpt lat="39.46508945" lon="-0.38105389"><ele>-42.4</ele><time>2022-10-30T14:08:52.0000000+00:00</time></trkpt><trkpt lat="39.46508928" lon="-0.38105473"><ele>-42.2</ele><time>2022-10-30T14:08:53.0000000+00:00</time></trkpt><trkpt lat="39.4650892" lon="-0.3810549"><ele>-42.2</ele><time>2022-10-30T14:08:54.0000000+00:00</time></trkpt><trkpt lat="39.46508861" lon="-0.38105498"><ele>-42.2</ele><time>2022-10-30T14:08:55.0000000+00:00</time></trkpt><trkpt lat="39.46508836" lon="-0.38105498"><ele>-42.2</ele><time>2022-10-30T14:08:56.0000000+00:00</time></trkpt><trkpt lat="39.46508828" lon="-0.38105498"><ele>-42.2</ele><time>2022-10-30T14:08:57.0000000+00:00</time></trkpt><trkpt lat="39.46508735" lon="-0.38105498"><ele>-42.2</ele><time>2022-10-30T14:08:58.0000000+00:00</time></trkpt><trkpt lat="39.4650866" lon="-0.38105498"><ele>-42.2</ele><time>2022-10-30T14:08:59.0000000+00:00</time></trkpt><trkpt lat="39.46508635" lon="-0.38105498"><ele>-42.2</ele><time>2022-10-30T14:09:00.0000000+00:00</time></trkpt><trkpt lat="39.46508627" lon="-0.38105431"><ele>-42.2</ele><time>2022-10-30T14:09:01.0000000+00:00</time></trkpt><trkpt lat="39.46508627" lon="-0.38105389"><ele>-42.2</ele><time>2022-10-30T14:09:02.0000000+00:00</time></trkpt><trkpt lat="39.46508627" lon="-0.38105356"><ele>-42.2</ele><time>2022-10-30T14:09:03.0000000+00:00</time></trkpt><trkpt lat="39.46508627" lon="-0.38105314"><ele>-42.2</ele><time>2022-10-30T14:09:04.0000000+00:00</time></trkpt><trkpt lat="39.46508627" lon="-0.38105255"><ele>-42.2</ele><time>2022-10-30T14:09:05.0000000+00:00</time></trkpt><trkpt lat="39.46508627" lon="-0.3810523"><ele>-42.2</ele><time>2022-10-30T14:09:06.0000000+00:00</time></trkpt><trkpt lat="39.46508627" lon="-0.38105196"><ele>-42.2</ele><time>2022-10-30T14:09:07.0000000+00:00</time></trkpt><trkpt lat="39.46508627" lon="-0.38105129"><ele>-42.2</ele><time>2022-10-30T14:09:08.0000000+00:00</time></trkpt><trkpt lat="39.46508627" lon="-0.38105104"><ele>-42.2</ele><time>2022-10-30T14:09:09.0000000+00:00</time></trkpt><trkpt lat="39.46508627" lon="-0.38105071"><ele>-42.2</ele><time>2022-10-30T14:09:10.0000000+00:00</time></trkpt><trkpt lat="39.46508627" lon="-0.38105037"><ele>-42.2</ele><time>2022-10-30T14:09:11.0000000+00:00</time></trkpt><trkpt lat="39.46508627" lon="-0.38105012"><ele>-42.2</ele><time>2022-10-30T14:09:12.0000000+00:00</time></trkpt><trkpt lat="39.46508627" lon="-0.38104978"><ele>-42.2</ele><time>2022-10-30T14:09:13.0000000+00:00</time></trkpt><trkpt lat="39.46508627" lon="-0.38104953"><ele>-42.2</ele><time>2022-10-30T14:09:14.0000000+00:00</time></trkpt><trkpt lat="39.4650866" lon="-0.38104945"><ele>-42.2</ele><time>2022-10-30T14:09:15.0000000+00:00</time></trkpt><trkpt lat="39.46508937" lon="-0.38104945"><ele>-42.2</ele><time>2022-10-30T14:09:16.0000000+00:00</time></trkpt><trkpt lat="39.4650918" lon="-0.38104945"><ele>-42.2</ele><time>2022-10-30T14:09:17.0000000+00:00</time></trkpt><trkpt lat="39.46509264" lon="-0.38104945"><ele>-42.2</ele><time>2022-10-30T14:09:18.0000000+00:00</time></trkpt><trkpt lat="39.46509297" lon="-0.38104945"><ele>-42.2</ele><time>2022-10-30T14:09:19.0000000+00:00</time></trkpt><trkpt lat="39.46509314" lon="-0.38104945"><ele>-42.2</ele><time>2022-10-30T14:09:20.0000000+00:00</time></trkpt><trkpt lat="39.46509364" lon="-0.38104945"><ele>-42.2</ele><time>2022-10-30T14:09:21.0000000+00:00</time></trkpt><trkpt lat="39.46509389" lon="-0.38104945"><ele>-42.2</ele><time>2022-10-30T14:09:22.0000000+00:00</time></trkpt><trkpt lat="39.46509414" lon="-0.38104945"><ele>-42.2</ele><time>2022-10-30T14:09:23.0000000+00:00</time></trkpt><trkpt lat="39.4650944" lon="-0.38104945"><ele>-42.2</ele><time>2022-10-30T14:09:24.0000000+00:00</time></trkpt><trkpt lat="39.46509465" lon="-0.38104945"><ele>-42.2</ele><time>2022-10-30T14:09:25.0000000+00:00</time></trkpt><trkpt lat="39.46509465" lon="-0.38104953"><ele>-42.2</ele><time>2022-10-30T14:09:26.0000000+00:00</time></trkpt><trkpt lat="39.4650949" lon="-0.38104962"><ele>-42.2</ele><time>2022-10-30T14:09:27.0000000+00:00</time></trkpt><trkpt lat="39.46509498" lon="-0.38104978"><ele>-42.2</ele><time>2022-10-30T14:09:28.0000000+00:00</time></trkpt><trkpt lat="39.46509507" lon="-0.38105004"><ele>-42.2</ele><time>2022-10-30T14:09:29.0000000+00:00</time></trkpt><trkpt lat="39.46509523" lon="-0.3810502"><ele>-42.2</ele><time>2022-10-30T14:09:30.0000000+00:00</time></trkpt><trkpt lat="39.4650954" lon="-0.38105029"><ele>-42.2</ele><time>2022-10-30T14:09:31.0000000+00:00</time></trkpt><trkpt lat="39.46509557" lon="-0.38105062"><ele>-42.2</ele><time>2022-10-30T14:09:32.0000000+00:00</time></trkpt><trkpt lat="39.46509565" lon="-0.38105079"><ele>-42.2</ele><time>2022-10-30T14:09:33.0000000+00:00</time></trkpt><trkpt lat="39.46509574" lon="-0.38105121"><ele>-42.2</ele><time>2022-10-30T14:09:34.0000000+00:00</time></trkpt><trkpt lat="39.46509574" lon="-0.38105154"><ele>-42.2</ele><time>2022-10-30T14:09:35.0000000+00:00</time></trkpt><trkpt lat="39.46509574" lon="-0.3810518"><ele>-42.2</ele><time>2022-10-30T14:09:36.0000000+00:00</time></trkpt><trkpt lat="39.46509574" lon="-0.38105213"><ele>-42.2</ele><time>2022-10-30T14:09:37.0000000+00:00</time></trkpt><trkpt lat="39.46509574" lon="-0.3810528"><ele>-42.2</ele><time>2022-10-30T14:09:38.0000000+00:00</time></trkpt><trkpt lat="39.46509574" lon="-0.38105465"><ele>-42.2</ele><time>2022-10-30T14:09:39.0000000+00:00</time></trkpt><trkpt lat="39.46509574" lon="-0.38105649"><ele>-42.2</ele><time>2022-10-30T14:09:40.0000000+00:00</time></trkpt><trkpt lat="39.46509582" lon="-0.38105791"><ele>-42.2</ele><time>2022-10-30T14:09:41.0000000+00:00</time></trkpt><trkpt lat="39.4650959" lon="-0.38105875"><ele>-42.2</ele><time>2022-10-30T14:09:42.0000000+00:00</time></trkpt><trkpt lat="39.4650959" lon="-0.38105993"><ele>-42.2</ele><time>2022-10-30T14:09:43.0000000+00:00</time></trkpt><trkpt lat="39.46509657" lon="-0.38106051"><ele>-42.2</ele><time>2022-10-30T14:09:44.0000000+00:00</time></trkpt><trkpt lat="39.46509708" lon="-0.38106127"><ele>-42.2</ele><time>2022-10-30T14:09:45.0000000+00:00</time></trkpt><trkpt lat="39.4650985" lon="-0.38106177"><ele>-42.2</ele><time>2022-10-30T14:09:46.0000000+00:00</time></trkpt><trkpt lat="39.46509934" lon="-0.38106227"><ele>-42.2</ele><time>2022-10-30T14:09:47.0000000+00:00</time></trkpt><trkpt lat="39.46509993" lon="-0.38106286"><ele>-42.2</ele><time>2022-10-30T14:09:48.0000000+00:00</time></trkpt><trkpt lat="39.46510018" lon="-0.38106311"><ele>-42.2</ele><time>2022-10-30T14:09:49.0000000+00:00</time></trkpt><trkpt lat="39.46510035" lon="-0.38106345"><ele>-42.2</ele><time>2022-10-30T14:09:50.0000000+00:00</time></trkpt><trkpt lat="39.46510043" lon="-0.38106412"><ele>-42.2</ele><time>2022-10-30T14:09:51.0000000+00:00</time></trkpt><trkpt lat="39.46510051" lon="-0.38106479"><ele>-42.2</ele><time>2022-10-30T14:09:52.0000000+00:00</time></trkpt><trkpt lat="39.46510068" lon="-0.38106521"><ele>-42.2</ele><time>2022-10-30T14:09:53.0000000+00:00</time></trkpt><trkpt lat="39.46510077" lon="-0.38106546"><ele>-42.2</ele><time>2022-10-30T14:09:54.0000000+00:00</time></trkpt><trkpt lat="39.46510085" lon="-0.38106571"><ele>-42.2</ele><time>2022-10-30T14:09:55.0000000+00:00</time></trkpt><trkpt lat="39.46510085" lon="-0.38106588"><ele>-42.2</ele><time>2022-10-30T14:09:56.0000000+00:00</time></trkpt><trkpt lat="39.46510085" lon="-0.38106605"><ele>-42.2</ele><time>2022-10-30T14:09:57.0000000+00:00</time></trkpt><trkpt lat="39.46510085" lon="-0.3810663"><ele>-42.2</ele><time>2022-10-30T14:09:58.0000000+00:00</time></trkpt><trkpt lat="39.46510085" lon="-0.38106663"><ele>-42.2</ele><time>2022-10-30T14:09:59.0000000+00:00</time></trkpt><trkpt lat="39.46510093" lon="-0.38106697"><ele>-42.2</ele><time>2022-10-30T14:10:00.0000000+00:00</time></trkpt><trkpt lat="39.46510093" lon="-0.3810673"><ele>-42.2</ele><time>2022-10-30T14:10:01.0000000+00:00</time></trkpt><trkpt lat="39.46510093" lon="-0.38106764"><ele>-42.2</ele><time>2022-10-30T14:10:02.0000000+00:00</time></trkpt><trkpt lat="39.46510093" lon="-0.38107242"><ele>-42.2</ele><time>2022-10-30T14:10:03.0000000+00:00</time></trkpt><trkpt lat="39.46510093" lon="-0.38107661"><ele>-42.2</ele><time>2022-10-30T14:10:04.0000000+00:00</time></trkpt><trkpt lat="39.46510093" lon="-0.38107929"><ele>-42.2</ele><time>2022-10-30T14:10:05.0000000+00:00</time></trkpt><trkpt lat="39.46510093" lon="-0.38108097"><ele>-42.2</ele><time>2022-10-30T14:10:06.0000000+00:00</time></trkpt><trkpt lat="39.46510093" lon="-0.38108247"><ele>-42.2</ele><time>2022-10-30T14:10:07.0000000+00:00</time></trkpt><trkpt lat="39.46510093" lon="-0.38108373"><ele>-42.2</ele><time>2022-10-30T14:10:08.0000000+00:00</time></trkpt><trkpt lat="39.46510093" lon="-0.38108465"><ele>-42.2</ele><time>2022-10-30T14:10:09.0000000+00:00</time></trkpt><trkpt lat="39.46510093" lon="-0.38108524"><ele>-42.2</ele><time>2022-10-30T14:10:10.0000000+00:00</time></trkpt><trkpt lat="39.46510102" lon="-0.38108558"><ele>-42.2</ele><time>2022-10-30T14:10:11.0000000+00:00</time></trkpt><trkpt lat="39.46510102" lon="-0.38108591"><ele>-42.2</ele><time>2022-10-30T14:10:12.0000000+00:00</time></trkpt><trkpt lat="39.46510102" lon="-0.38108616"><ele>-42.2</ele><time>2022-10-30T14:10:13.0000000+00:00</time></trkpt><trkpt lat="39.46510102" lon="-0.38108633"><ele>-42.2</ele><time>2022-10-30T14:10:14.0000000+00:00</time></trkpt><trkpt lat="39.46510102" lon="-0.3810865"><ele>-42.2</ele><time>2022-10-30T14:10:15.0000000+00:00</time></trkpt><trkpt lat="39.46510102" lon="-0.3810865"><ele>-42.2</ele><time>2022-10-30T14:10:16.0000000+00:00</time></trkpt><trkpt lat="39.46510102" lon="-0.38108658"><ele>-42.2</ele><time>2022-10-30T14:10:17.0000000+00:00</time></trkpt><trkpt lat="39.4651011" lon="-0.38108658"><ele>-42.2</ele><time>2022-10-30T14:10:18.0000000+00:00</time></trkpt><trkpt lat="39.46510127" lon="-0.38108658"><ele>-42.2</ele><time>2022-10-30T14:10:19.0000000+00:00</time></trkpt><trkpt lat="39.46510152" lon="-0.38108666"><ele>-42.2</ele><time>2022-10-30T14:10:20.0000000+00:00</time></trkpt><trkpt lat="39.46510169" lon="-0.38108666"><ele>-42.2</ele><time>2022-10-30T14:10:21.0000000+00:00</time></trkpt><trkpt lat="39.46510186" lon="-0.38108666"><ele>-42.2</ele><time>2022-10-30T14:10:22.0000000+00:00</time></trkpt><trkpt lat="39.46510194" lon="-0.38108666"><ele>-42.2</ele><time>2022-10-30T14:10:23.0000000+00:00</time></trkpt><trkpt lat="39.46510387" lon="-0.38108641"><ele>-42.2</ele><time>2022-10-30T14:10:24.0000000+00:00</time></trkpt><trkpt lat="39.46510588" lon="-0.38108625"><ele>-42.2</ele><time>2022-10-30T14:10:25.0000000+00:00</time></trkpt><trkpt lat="39.46510814" lon="-0.38108608"><ele>-42.2</ele><time>2022-10-30T14:10:26.0000000+00:00</time></trkpt><trkpt lat="39.4651104" lon="-0.38108574"><ele>-42.2</ele><time>2022-10-30T14:10:27.0000000+00:00</time></trkpt><trkpt lat="39.46511258" lon="-0.38108549"><ele>-42.2</ele><time>2022-10-30T14:10:28.0000000+00:00</time></trkpt><trkpt lat="39.46511426" lon="-0.38108516"><ele>-42.2</ele><time>2022-10-30T14:10:29.0000000+00:00</time></trkpt><trkpt lat="39.4651156" lon="-0.3810849"><ele>-42.2</ele><time>2022-10-30T14:10:30.0000000+00:00</time></trkpt><trkpt lat="39.46511661" lon="-0.38108457"><ele>-42.2</ele><time>2022-10-30T14:10:31.0000000+00:00</time></trkpt><trkpt lat="39.46511761" lon="-0.38108423"><ele>-42.2</ele><time>2022-10-30T14:10:32.0000000+00:00</time></trkpt><trkpt lat="39.4651187" lon="-0.3810839"><ele>-42.2</ele><time>2022-10-30T14:10:33.0000000+00:00</time></trkpt><trkpt lat="39.46511963" lon="-0.3810834"><ele>-42.2</ele><time>2022-10-30T14:10:34.0000000+00:00</time></trkpt><trkpt lat="39.4651208" lon="-0.38108281"><ele>-42.2</ele><time>2022-10-30T14:10:35.0000000+00:00</time></trkpt><trkpt lat="39.46512164" lon="-0.38108239"><ele>-42.2</ele><time>2022-10-30T14:10:36.0000000+00:00</time></trkpt><trkpt lat="39.46512239" lon="-0.38108189"><ele>-42.2</ele><time>2022-10-30T14:10:37.0000000+00:00</time></trkpt><trkpt lat="39.46512298" lon="-0.38108147"><ele>-42.2</ele><time>2022-10-30T14:10:38.0000000+00:00</time></trkpt><trkpt lat="39.46512348" lon="-0.38108105"><ele>-42.2</ele><time>2022-10-30T14:10:39.0000000+00:00</time></trkpt><trkpt lat="39.46512382" lon="-0.38108063"><ele>-42.2</ele><time>2022-10-30T14:10:40.0000000+00:00</time></trkpt><trkpt lat="39.46512432" lon="-0.38108021"><ele>-42.2</ele><time>2022-10-30T14:10:41.0000000+00:00</time></trkpt><trkpt lat="39.46512474" lon="-0.38107971"><ele>-42.2</ele><time>2022-10-30T14:10:42.0000000+00:00</time></trkpt><trkpt lat="39.46512507" lon="-0.38107879"><ele>-42.2</ele><time>2022-10-30T14:10:43.0000000+00:00</time></trkpt><trkpt lat="39.46512532" lon="-0.38107803"><ele>-42.2</ele><time>2022-10-30T14:10:44.0000000+00:00</time></trkpt><trkpt lat="39.46512566" lon="-0.38107736"><ele>-42.2</ele><time>2022-10-30T14:10:45.0000000+00:00</time></trkpt><trkpt lat="39.465126" lon="-0.38107677"><ele>-42.2</ele><time>2022-10-30T14:10:46.0000000+00:00</time></trkpt><trkpt lat="39.465127" lon="-0.38107636"><ele>-42.2</ele><time>2022-10-30T14:10:47.0000000+00:00</time></trkpt><trkpt lat="39.46512792" lon="-0.38107594"><ele>-42.2</ele><time>2022-10-30T14:10:48.0000000+00:00</time></trkpt><trkpt lat="39.46512893" lon="-0.38107568"><ele>-42.2</ele><time>2022-10-30T14:10:49.0000000+00:00</time></trkpt><trkpt lat="39.46512993" lon="-0.38107543"><ele>-42.2</ele><time>2022-10-30T14:10:50.0000000+00:00</time></trkpt><trkpt lat="39.46513153" lon="-0.38107527"><ele>-42.2</ele><time>2022-10-30T14:10:51.0000000+00:00</time></trkpt><trkpt lat="39.46513304" lon="-0.3810751"><ele>-42.2</ele><time>2022-10-30T14:10:52.0000000+00:00</time></trkpt><trkpt lat="39.46513454" lon="-0.38107493"><ele>-42.2</ele><time>2022-10-30T14:10:53.0000000+00:00</time></trkpt><trkpt lat="39.4651358" lon="-0.38107476"><ele>-42.2</ele><time>2022-10-30T14:10:54.0000000+00:00</time></trkpt><trkpt lat="39.46513723" lon="-0.38107451"><ele>-42.2</ele><time>2022-10-30T14:10:55.0000000+00:00</time></trkpt><trkpt lat="39.46513874" lon="-0.38107409"><ele>-42.2</ele><time>2022-10-30T14:10:56.0000000+00:00</time></trkpt><trkpt lat="39.46514008" lon="-0.38107359"><ele>-42.2</ele><time>2022-10-30T14:10:57.0000000+00:00</time></trkpt><trkpt lat="39.46514125" lon="-0.38107309"><ele>-42.2</ele><time>2022-10-30T14:10:58.0000000+00:00</time></trkpt><trkpt lat="39.46514226" lon="-0.38107242"><ele>-42.2</ele><time>2022-10-30T14:10:59.0000000+00:00</time></trkpt><trkpt lat="39.46514318" lon="-0.38107191"><ele>-42.2</ele><time>2022-10-30T14:11:00.0000000+00:00</time></trkpt><trkpt lat="39.46514393" lon="-0.38107141"><ele>-42.2</ele><time>2022-10-30T14:11:01.0000000+00:00</time></trkpt><trkpt lat="39.46514485" lon="-0.38107099"><ele>-42.2</ele><time>2022-10-30T14:11:02.0000000+00:00</time></trkpt><trkpt lat="39.46514553" lon="-0.38107066"><ele>-42.2</ele><time>2022-10-30T14:11:03.0000000+00:00</time></trkpt><trkpt lat="39.46514628" lon="-0.3810704"><ele>-42.2</ele><time>2022-10-30T14:11:04.0000000+00:00</time></trkpt><trkpt lat="39.46514712" lon="-0.38107007"><ele>-42.2</ele><time>2022-10-30T14:11:05.0000000+00:00</time></trkpt><trkpt lat="39.46514812" lon="-0.3810699"><ele>-42.2</ele><time>2022-10-30T14:11:06.0000000+00:00</time></trkpt><trkpt lat="39.46514905" lon="-0.38106965"><ele>-42.2</ele><time>2022-10-30T14:11:07.0000000+00:00</time></trkpt><trkpt lat="39.46514988" lon="-0.3810694"><ele>-42.2</ele><time>2022-10-30T14:11:08.0000000+00:00</time></trkpt><trkpt lat="39.46515055" lon="-0.38106923"><ele>-42.2</ele><time>2022-10-30T14:11:09.0000000+00:00</time></trkpt><trkpt lat="39.46515114" lon="-0.38106906"><ele>-42.2</ele><time>2022-10-30T14:11:10.0000000+00:00</time></trkpt><trkpt lat="39.46515173" lon="-0.38106873"><ele>-42.2</ele><time>2022-10-30T14:11:11.0000000+00:00</time></trkpt><trkpt lat="39.46515215" lon="-0.38106839"><ele>-42.2</ele><time>2022-10-30T14:11:12.0000000+00:00</time></trkpt><trkpt lat="39.46515257" lon="-0.38106814"><ele>-42.2</ele><time>2022-10-30T14:11:13.0000000+00:00</time></trkpt><trkpt lat="39.46515282" lon="-0.38106781"><ele>-42.2</ele><time>2022-10-30T14:11:14.0000000+00:00</time></trkpt><trkpt lat="39.46514821" lon="-0.38106043"><ele>-42.2</ele><time>2022-10-30T14:11:15.0000000+00:00</time></trkpt><trkpt lat="39.46514016" lon="-0.38105347"><ele>-42.2</ele><time>2022-10-30T14:11:16.0000000+00:00</time></trkpt><trkpt lat="39.46513278" lon="-0.38104425"><ele>-42.2</ele><time>2022-10-30T14:11:17.0000000+00:00</time></trkpt><trkpt lat="39.46512474" lon="-0.38103998"><ele>-42.2</ele><time>2022-10-30T14:11:18.0000000+00:00</time></trkpt><trkpt lat="39.4651187" lon="-0.38102841"><ele>-42.2</ele><time>2022-10-30T14:11:19.0000000+00:00</time></trkpt><trkpt lat="39.46511577" lon="-0.38101793"><ele>-42.2</ele><time>2022-10-30T14:11:20.0000000+00:00</time></trkpt><trkpt lat="39.46511493" lon="-0.38101031"><ele>-42.2</ele><time>2022-10-30T14:11:21.0000000+00:00</time></trkpt><trkpt lat="39.46511309" lon="-0.38100503"><ele>-42.2</ele><time>2022-10-30T14:11:22.0000000+00:00</time></trkpt><trkpt lat="39.46511451" lon="-0.38099815"><ele>-42.2</ele><time>2022-10-30T14:11:23.0000000+00:00</time></trkpt><trkpt lat="39.46511443" lon="-0.38099019"><ele>-42.2</ele><time>2022-10-30T14:11:24.0000000+00:00</time></trkpt><trkpt lat="39.46511535" lon="-0.38098566"><ele>-42.2</ele><time>2022-10-30T14:11:25.0000000+00:00</time></trkpt><trkpt lat="39.46512088" lon="-0.38097334"><ele>-42.2</ele><time>2022-10-30T14:11:26.0000000+00:00</time></trkpt><trkpt lat="39.4651301" lon="-0.38095364"><ele>-42.2</ele><time>2022-10-30T14:11:27.0000000+00:00</time></trkpt><trkpt lat="39.46513815" lon="-0.38093688"><ele>-42.2</ele><time>2022-10-30T14:11:28.0000000+00:00</time></trkpt><trkpt lat="39.46514603" lon="-0.38091903"><ele>-42.2</ele><time>2022-10-30T14:11:29.0000000+00:00</time></trkpt><trkpt lat="39.46515122" lon="-0.38090109"><ele>-42.2</ele><time>2022-10-30T14:11:30.0000000+00:00</time></trkpt><trkpt lat="39.46515709" lon="-0.38088617"><ele>-42.2</ele><time>2022-10-30T14:11:31.0000000+00:00</time></trkpt><trkpt lat="39.46516975" lon="-0.38087905"><ele>-42.2</ele><time>2022-10-30T14:11:32.0000000+00:00</time></trkpt><trkpt lat="39.46517914" lon="-0.38087142"><ele>-42.2</ele><time>2022-10-30T14:11:33.0000000+00:00</time></trkpt><trkpt lat="39.46518903" lon="-0.38086454"><ele>-42.2</ele><time>2022-10-30T14:11:34.0000000+00:00</time></trkpt><trkpt lat="39.46519892" lon="-0.38085038"><ele>-42.2</ele><time>2022-10-30T14:11:35.0000000+00:00</time></trkpt><trkpt lat="39.46521275" lon="-0.38083923"><ele>-42.2</ele><time>2022-10-30T14:11:36.0000000+00:00</time></trkpt><trkpt lat="39.46522859" lon="-0.38083077"><ele>-42.2</ele><time>2022-10-30T14:11:37.0000000+00:00</time></trkpt><trkpt lat="39.46523563" lon="-0.38082171"><ele>-42.2</ele><time>2022-10-30T14:11:38.0000000+00:00</time></trkpt><trkpt lat="39.46524334" lon="-0.38082104"><ele>-42.2</ele><time>2022-10-30T14:11:39.0000000+00:00</time></trkpt><trkpt lat="39.46525751" lon="-0.38081811"><ele>-42.2</ele><time>2022-10-30T14:11:40.0000000+00:00</time></trkpt><trkpt lat="39.46525918" lon="-0.38082062"><ele>-42.2</ele><time>2022-10-30T14:11:41.0000000+00:00</time></trkpt><trkpt lat="39.46525918" lon="-0.38082087"><ele>-42.2</ele><time>2022-10-30T14:11:42.0000000+00:00</time></trkpt><trkpt lat="39.46525281" lon="-0.38079749"><ele>-42.2</ele><time>2022-10-30T14:11:43.0000000+00:00</time></trkpt><trkpt lat="39.46525265" lon="-0.38077612"><ele>-42.2</ele><time>2022-10-30T14:11:44.0000000+00:00</time></trkpt><trkpt lat="39.46525281" lon="-0.38075927"><ele>-42.2</ele><time>2022-10-30T14:11:45.0000000+00:00</time></trkpt><trkpt lat="39.46524946" lon="-0.38075541"><ele>-42.2</ele><time>2022-10-30T14:11:46.0000000+00:00</time></trkpt><trkpt lat="39.46525298" lon="-0.38074477"><ele>-42.2</ele><time>2022-10-30T14:11:47.0000000+00:00</time></trkpt><trkpt lat="39.46525114" lon="-0.38074133"><ele>-42.2</ele><time>2022-10-30T14:11:48.0000000+00:00</time></trkpt><trkpt lat="39.46524862" lon="-0.3807394"><ele>-42.2</ele><time>2022-10-30T14:11:49.0000000+00:00</time></trkpt><trkpt lat="39.4652539" lon="-0.38073295"><ele>-42.4</ele><time>2022-10-30T14:11:50.0000000+00:00</time></trkpt><trkpt lat="39.46525306" lon="-0.3807213"><ele>-42.4</ele><time>2022-10-30T14:11:51.0000000+00:00</time></trkpt><trkpt lat="39.46525374" lon="-0.38070764"><ele>-42.4</ele><time>2022-10-30T14:11:52.0000000+00:00</time></trkpt><trkpt lat="39.46525432" lon="-0.38069489"><ele>-42.4</ele><time>2022-10-30T14:11:53.0000000+00:00</time></trkpt><trkpt lat="39.46525466" lon="-0.38068919"><ele>-42.4</ele><time>2022-10-30T14:11:54.0000000+00:00</time></trkpt><trkpt lat="39.46525281" lon="-0.38068542"><ele>-42.4</ele><time>2022-10-30T14:11:55.0000000+00:00</time></trkpt><trkpt lat="39.46524929" lon="-0.38068517"><ele>-42.4</ele><time>2022-10-30T14:11:56.0000000+00:00</time></trkpt><trkpt lat="39.46525801" lon="-0.38068769"><ele>-42.4</ele><time>2022-10-30T14:11:57.0000000+00:00</time></trkpt><trkpt lat="39.46526337" lon="-0.38068224"><ele>-42.4</ele><time>2022-10-30T14:11:58.0000000+00:00</time></trkpt><trkpt lat="39.4652653" lon="-0.38068232"><ele>-42.4</ele><time>2022-10-30T14:11:59.0000000+00:00</time></trkpt><trkpt lat="39.46528282" lon="-0.38067964"><ele>-42.2</ele><time>2022-10-30T14:12:00.0000000+00:00</time></trkpt><trkpt lat="39.465313" lon="-0.38068651"><ele>-42.2</ele><time>2022-10-30T14:12:01.0000000+00:00</time></trkpt><trkpt lat="39.46533395" lon="-0.38068635"><ele>-42.2</ele><time>2022-10-30T14:12:02.0000000+00:00</time></trkpt><trkpt lat="39.46536547" lon="-0.38068492"><ele>-42.2</ele><time>2022-10-30T14:12:03.0000000+00:00</time></trkpt><trkpt lat="39.46538558" lon="-0.38067352"><ele>-42.4</ele><time>2022-10-30T14:12:04.0000000+00:00</time></trkpt><trkpt lat="39.46540352" lon="-0.38066514"><ele>-42.4</ele><time>2022-10-30T14:12:05.0000000+00:00</time></trkpt><trkpt lat="39.46541827" lon="-0.38065676"><ele>-42.4</ele><time>2022-10-30T14:12:06.0000000+00:00</time></trkpt><trkpt lat="39.46543051" lon="-0.38065659"><ele>-42.4</ele><time>2022-10-30T14:12:07.0000000+00:00</time></trkpt><trkpt lat="39.46544476" lon="-0.38065525"><ele>-42.4</ele><time>2022-10-30T14:12:08.0000000+00:00</time></trkpt><trkpt lat="39.46544996" lon="-0.38066438"><ele>-42.4</ele><time>2022-10-30T14:12:09.0000000+00:00</time></trkpt><trkpt lat="39.46546747" lon="-0.38066598"><ele>-42.4</ele><time>2022-10-30T14:12:10.0000000+00:00</time></trkpt><trkpt lat="39.46547175" lon="-0.38066229"><ele>-42.4</ele><time>2022-10-30T14:12:11.0000000+00:00</time></trkpt><trkpt lat="39.46547569" lon="-0.38066229"><ele>-42.4</ele><time>2022-10-30T14:12:12.0000000+00:00</time></trkpt><trkpt lat="39.46548868" lon="-0.380655"><ele>-42.4</ele><time>2022-10-30T14:12:13.0000000+00:00</time></trkpt><trkpt lat="39.46549949" lon="-0.38065097"><ele>-42.4</ele><time>2022-10-30T14:12:14.0000000+00:00</time></trkpt><trkpt lat="39.465515" lon="-0.38064812"><ele>-42.4</ele><time>2022-10-30T14:12:15.0000000+00:00</time></trkpt><trkpt lat="39.46552564" lon="-0.38064812"><ele>-42.4</ele><time>2022-10-30T14:12:16.0000000+00:00</time></trkpt><trkpt lat="39.46554543" lon="-0.38064561"><ele>-42.4</ele><time>2022-10-30T14:12:17.0000000+00:00</time></trkpt><trkpt lat="39.46556294" lon="-0.38064217"><ele>-42.4</ele><time>2022-10-30T14:12:18.0000000+00:00</time></trkpt><trkpt lat="39.46557652" lon="-0.38063899"><ele>-42.4</ele><time>2022-10-30T14:12:19.0000000+00:00</time></trkpt><trkpt lat="39.46558381" lon="-0.38063413"><ele>-42.4</ele><time>2022-10-30T14:12:20.0000000+00:00</time></trkpt><trkpt lat="39.46558231" lon="-0.3806275"><ele>-42.4</ele><time>2022-10-30T14:12:21.0000000+00:00</time></trkpt><trkpt lat="39.46558507" lon="-0.38062558"><ele>-42.6</ele><time>2022-10-30T14:12:22.0000000+00:00</time></trkpt><trkpt lat="39.46559161" lon="-0.38062373"><ele>-42.6</ele><time>2022-10-30T14:12:23.0000000+00:00</time></trkpt><trkpt lat="39.46560284" lon="-0.3806177"><ele>-42.6</ele><time>2022-10-30T14:12:24.0000000+00:00</time></trkpt><trkpt lat="39.46561868" lon="-0.38060579"><ele>-42.4</ele><time>2022-10-30T14:12:25.0000000+00:00</time></trkpt><trkpt lat="39.46563578" lon="-0.38060186"><ele>-42.4</ele><time>2022-10-30T14:12:26.0000000+00:00</time></trkpt><trkpt lat="39.46565171" lon="-0.38059431"><ele>-42.4</ele><time>2022-10-30T14:12:27.0000000+00:00</time></trkpt><trkpt lat="39.46566763" lon="-0.38058048"><ele>-42.4</ele><time>2022-10-30T14:12:28.0000000+00:00</time></trkpt><trkpt lat="39.46567828" lon="-0.38056749"><ele>-42.4</ele><time>2022-10-30T14:12:29.0000000+00:00</time></trkpt><trkpt lat="39.46568708" lon="-0.38055919"><ele>-42.4</ele><time>2022-10-30T14:12:30.0000000+00:00</time></trkpt><trkpt lat="39.46569068" lon="-0.38055676"><ele>-42.4</ele><time>2022-10-30T14:12:31.0000000+00:00</time></trkpt><trkpt lat="39.46569328" lon="-0.38055852"><ele>-42.6</ele><time>2022-10-30T14:12:32.0000000+00:00</time></trkpt><trkpt lat="39.46570309" lon="-0.38055953"><ele>-42.6</ele><time>2022-10-30T14:12:33.0000000+00:00</time></trkpt><trkpt lat="39.46571658" lon="-0.38055944"><ele>-42.6</ele><time>2022-10-30T14:12:34.0000000+00:00</time></trkpt><trkpt lat="39.46572103" lon="-0.38055919"><ele>-42.6</ele><time>2022-10-30T14:12:35.0000000+00:00</time></trkpt><trkpt lat="39.46573176" lon="-0.38054964"><ele>-42.6</ele><time>2022-10-30T14:12:36.0000000+00:00</time></trkpt><trkpt lat="39.46574114" lon="-0.38054268"><ele>-42.6</ele><time>2022-10-30T14:12:37.0000000+00:00</time></trkpt><trkpt lat="39.46575506" lon="-0.38052977"><ele>-42.4</ele><time>2022-10-30T14:12:38.0000000+00:00</time></trkpt><trkpt lat="39.46578062" lon="-0.38050714"><ele>-42.4</ele><time>2022-10-30T14:12:39.0000000+00:00</time></trkpt><trkpt lat="39.46579613" lon="-0.38050144"><ele>-42.6</ele><time>2022-10-30T14:12:40.0000000+00:00</time></trkpt><trkpt lat="39.46580241" lon="-0.3804944"><ele>-42.6</ele><time>2022-10-30T14:12:41.0000000+00:00</time></trkpt><trkpt lat="39.4658077" lon="-0.38048174"><ele>-42.6</ele><time>2022-10-30T14:12:42.0000000+00:00</time></trkpt><trkpt lat="39.46581608" lon="-0.38046733"><ele>-42.6</ele><time>2022-10-30T14:12:43.0000000+00:00</time></trkpt><trkpt lat="39.46583075" lon="-0.38045542"><ele>-42.6</ele><time>2022-10-30T14:12:44.0000000+00:00</time></trkpt><trkpt lat="39.46583712" lon="-0.3804514"><ele>-42.6</ele><time>2022-10-30T14:12:45.0000000+00:00</time></trkpt><trkpt lat="39.4658393" lon="-0.38045039"><ele>-42.6</ele><time>2022-10-30T14:12:46.0000000+00:00</time></trkpt><trkpt lat="39.46584541" lon="-0.3804405"><ele>-42.6</ele><time>2022-10-30T14:12:47.0000000+00:00</time></trkpt><trkpt lat="39.46585405" lon="-0.38042835"><ele>-42.6</ele><time>2022-10-30T14:12:48.0000000+00:00</time></trkpt><trkpt lat="39.46585539" lon="-0.38042349"><ele>-42.6</ele><time>2022-10-30T14:12:49.0000000+00:00</time></trkpt><trkpt lat="39.46586444" lon="-0.38041234"><ele>-42.6</ele><time>2022-10-30T14:12:50.0000000+00:00</time></trkpt><trkpt lat="39.46586486" lon="-0.38041293"><ele>-42.6</ele><time>2022-10-30T14:12:51.0000000+00:00</time></trkpt><trkpt lat="39.4658631" lon="-0.38041502"><ele>-42.6</ele><time>2022-10-30T14:12:52.0000000+00:00</time></trkpt><trkpt lat="39.4658626" lon="-0.38041963"><ele>-42.6</ele><time>2022-10-30T14:12:53.0000000+00:00</time></trkpt><trkpt lat="39.46587165" lon="-0.38043221"><ele>-42.6</ele><time>2022-10-30T14:12:54.0000000+00:00</time></trkpt><trkpt lat="39.46588246" lon="-0.38044394"><ele>-42.6</ele><time>2022-10-30T14:12:55.0000000+00:00</time></trkpt><trkpt lat="39.46589571" lon="-0.38044805"><ele>-42.6</ele><time>2022-10-30T14:12:56.0000000+00:00</time></trkpt><trkpt lat="39.46591029" lon="-0.38045341"><ele>-42.6</ele><time>2022-10-30T14:12:57.0000000+00:00</time></trkpt><trkpt lat="39.46592194" lon="-0.38044889"><ele>-42.6</ele><time>2022-10-30T14:12:58.0000000+00:00</time></trkpt><trkpt lat="39.4659268" lon="-0.38044268"><ele>-42.6</ele><time>2022-10-30T14:12:59.0000000+00:00</time></trkpt><trkpt lat="39.46592999" lon="-0.38043237"><ele>-42.4</ele><time>2022-10-30T14:13:00.0000000+00:00</time></trkpt><trkpt lat="39.46593602" lon="-0.38041603"><ele>-42.4</ele><time>2022-10-30T14:13:01.0000000+00:00</time></trkpt><trkpt lat="39.46594264" lon="-0.38040404"><ele>-42.4</ele><time>2022-10-30T14:13:02.0000000+00:00</time></trkpt><trkpt lat="39.46594792" lon="-0.38039013"><ele>-42.4</ele><time>2022-10-30T14:13:03.0000000+00:00</time></trkpt><trkpt lat="39.46595237" lon="-0.38038862"><ele>-42.4</ele><time>2022-10-30T14:13:04.0000000+00:00</time></trkpt><trkpt lat="39.46595019" lon="-0.38039533"><ele>-42.4</ele><time>2022-10-30T14:13:05.0000000+00:00</time></trkpt><trkpt lat="39.46595103" lon="-0.38039859"><ele>-42.4</ele><time>2022-10-30T14:13:06.0000000+00:00</time></trkpt><trkpt lat="39.46595488" lon="-0.38040471"><ele>-42.4</ele><time>2022-10-30T14:13:07.0000000+00:00</time></trkpt><trkpt lat="39.46595773" lon="-0.38040337"><ele>-42.6</ele><time>2022-10-30T14:13:08.0000000+00:00</time></trkpt><trkpt lat="39.4659579" lon="-0.3804027"><ele>-42.6</ele><time>2022-10-30T14:13:09.0000000+00:00</time></trkpt><trkpt lat="39.46595723" lon="-0.3804017"><ele>-42.6</ele><time>2022-10-30T14:13:10.0000000+00:00</time></trkpt><trkpt lat="39.46595673" lon="-0.38040027"><ele>-42.6</ele><time>2022-10-30T14:13:11.0000000+00:00</time></trkpt><trkpt lat="39.46595857" lon="-0.38039893"><ele>-42.6</ele><time>2022-10-30T14:13:12.0000000+00:00</time></trkpt><trkpt lat="39.465961" lon="-0.38039893"><ele>-42.6</ele><time>2022-10-30T14:13:13.0000000+00:00</time></trkpt><trkpt lat="39.46596385" lon="-0.38039876"><ele>-42.6</ele><time>2022-10-30T14:13:14.0000000+00:00</time></trkpt><trkpt lat="39.46596477" lon="-0.38039876"><ele>-42.6</ele><time>2022-10-30T14:13:15.0000000+00:00</time></trkpt><trkpt lat="39.46596477" lon="-0.38039876"><ele>-42.6</ele><time>2022-10-30T14:13:16.0000000+00:00</time></trkpt><trkpt lat="39.46596477" lon="-0.38039876"><ele>-42.6</ele><time>2022-10-30T14:13:17.0000000+00:00</time></trkpt><trkpt lat="39.46596477" lon="-0.38039876"><ele>-42.6</ele><time>2022-10-30T14:13:18.0000000+00:00</time></trkpt><trkpt lat="39.46596477" lon="-0.38039876"><ele>-42.6</ele><time>2022-10-30T14:13:19.0000000+00:00</time></trkpt><trkpt lat="39.46596477" lon="-0.38039876"><ele>-42.6</ele><time>2022-10-30T14:13:20.0000000+00:00</time></trkpt><trkpt lat="39.46596477" lon="-0.38039876"><ele>-42.6</ele><time>2022-10-30T14:13:21.0000000+00:00</time></trkpt><trkpt lat="39.46596477" lon="-0.38039876"><ele>-42.6</ele><time>2022-10-30T14:13:22.0000000+00:00</time></trkpt><trkpt lat="39.46596477" lon="-0.38039876"><ele>-42.6</ele><time>2022-10-30T14:13:23.0000000+00:00</time></trkpt><trkpt lat="39.46596477" lon="-0.38039893"><ele>-42.6</ele><time>2022-10-30T14:13:24.0000000+00:00</time></trkpt><trkpt lat="39.46596385" lon="-0.38039893"><ele>-42.6</ele><time>2022-10-30T14:13:25.0000000+00:00</time></trkpt><trkpt lat="39.46596368" lon="-0.38039893"><ele>-42.6</ele><time>2022-10-30T14:13:26.0000000+00:00</time></trkpt><trkpt lat="39.4659631" lon="-0.38039926"><ele>-42.6</ele><time>2022-10-30T14:13:27.0000000+00:00</time></trkpt><trkpt lat="39.46596217" lon="-0.38039968"><ele>-42.6</ele><time>2022-10-30T14:13:28.0000000+00:00</time></trkpt><trkpt lat="39.46596209" lon="-0.38039968"><ele>-42.6</ele><time>2022-10-30T14:13:29.0000000+00:00</time></trkpt><trkpt lat="39.46596175" lon="-0.38039968"><ele>-42.6</ele><time>2022-10-30T14:13:30.0000000+00:00</time></trkpt><trkpt lat="39.46596134" lon="-0.38039977"><ele>-42.6</ele><time>2022-10-30T14:13:31.0000000+00:00</time></trkpt><trkpt lat="39.46596134" lon="-0.38040027"><ele>-42.6</ele><time>2022-10-30T14:13:32.0000000+00:00</time></trkpt><trkpt lat="39.46596134" lon="-0.38040035"><ele>-42.6</ele><time>2022-10-30T14:13:33.0000000+00:00</time></trkpt><trkpt lat="39.46596134" lon="-0.38040035"><ele>-42.6</ele><time>2022-10-30T14:13:34.0000000+00:00</time></trkpt><trkpt lat="39.46596134" lon="-0.38040153"><ele>-42.6</ele><time>2022-10-30T14:13:35.0000000+00:00</time></trkpt><trkpt lat="39.46596134" lon="-0.38040228"><ele>-42.6</ele><time>2022-10-30T14:13:36.0000000+00:00</time></trkpt><trkpt lat="39.46596167" lon="-0.38040237"><ele>-42.6</ele><time>2022-10-30T14:13:37.0000000+00:00</time></trkpt><trkpt lat="39.46596201" lon="-0.38040237"><ele>-42.6</ele><time>2022-10-30T14:13:38.0000000+00:00</time></trkpt><trkpt lat="39.46596259" lon="-0.38040237"><ele>-42.6</ele><time>2022-10-30T14:13:39.0000000+00:00</time></trkpt><trkpt lat="39.46596301" lon="-0.38040488"><ele>-42.6</ele><time>2022-10-30T14:13:40.0000000+00:00</time></trkpt><trkpt lat="39.46596352" lon="-0.38040698"><ele>-42.6</ele><time>2022-10-30T14:13:41.0000000+00:00</time></trkpt><trkpt lat="39.46596368" lon="-0.3804074"><ele>-42.8</ele><time>2022-10-30T14:13:42.0000000+00:00</time></trkpt><trkpt lat="39.46596377" lon="-0.38040832"><ele>-42.8</ele><time>2022-10-30T14:13:43.0000000+00:00</time></trkpt><trkpt lat="39.4659646" lon="-0.38040874"><ele>-42.8</ele><time>2022-10-30T14:13:44.0000000+00:00</time></trkpt><trkpt lat="39.46596536" lon="-0.38040941"><ele>-42.8</ele><time>2022-10-30T14:13:45.0000000+00:00</time></trkpt><trkpt lat="39.46596544" lon="-0.38040957"><ele>-42.6</ele><time>2022-10-30T14:13:46.0000000+00:00</time></trkpt><trkpt lat="39.46596913" lon="-0.38040974"><ele>-42.6</ele><time>2022-10-30T14:13:47.0000000+00:00</time></trkpt><trkpt lat="39.46597382" lon="-0.38040941"><ele>-42.6</ele><time>2022-10-30T14:13:48.0000000+00:00</time></trkpt><trkpt lat="39.46599159" lon="-0.38040002"><ele>-42.6</ele><time>2022-10-30T14:13:49.0000000+00:00</time></trkpt><trkpt lat="39.46600844" lon="-0.38039834"><ele>-42.6</ele><time>2022-10-30T14:13:50.0000000+00:00</time></trkpt><trkpt lat="39.46602412" lon="-0.38040538"><ele>-42.6</ele><time>2022-10-30T14:13:51.0000000+00:00</time></trkpt><trkpt lat="39.46604013" lon="-0.38040765"><ele>-42.6</ele><time>2022-10-30T14:13:52.0000000+00:00</time></trkpt><trkpt lat="39.46605563" lon="-0.38041251"><ele>-42.6</ele><time>2022-10-30T14:13:53.0000000+00:00</time></trkpt><trkpt lat="39.46606837" lon="-0.38041343"><ele>-42.6</ele><time>2022-10-30T14:13:54.0000000+00:00</time></trkpt><trkpt lat="39.46608396" lon="-0.38042064"><ele>-42.6</ele><time>2022-10-30T14:13:55.0000000+00:00</time></trkpt><trkpt lat="39.46609997" lon="-0.38041519"><ele>-42.6</ele><time>2022-10-30T14:13:56.0000000+00:00</time></trkpt><trkpt lat="39.46611833" lon="-0.38040589"><ele>-42.6</ele><time>2022-10-30T14:13:57.0000000+00:00</time></trkpt><trkpt lat="39.46613635" lon="-0.38039256"><ele>-42.6</ele><time>2022-10-30T14:13:58.0000000+00:00</time></trkpt><trkpt lat="39.46614071" lon="-0.38038954"><ele>-42.6</ele><time>2022-10-30T14:13:59.0000000+00:00</time></trkpt><trkpt lat="39.46615311" lon="-0.38037689"><ele>-42.6</ele><time>2022-10-30T14:14:00.0000000+00:00</time></trkpt><trkpt lat="39.46615705" lon="-0.38037001"><ele>-42.6</ele><time>2022-10-30T14:14:01.0000000+00:00</time></trkpt><trkpt lat="39.46616292" lon="-0.38036733"><ele>-42.6</ele><time>2022-10-30T14:14:02.0000000+00:00</time></trkpt><trkpt lat="39.46617206" lon="-0.38036406"><ele>-42.6</ele><time>2022-10-30T14:14:03.0000000+00:00</time></trkpt><trkpt lat="39.46618161" lon="-0.38036339"><ele>-42.6</ele><time>2022-10-30T14:14:04.0000000+00:00</time></trkpt><trkpt lat="39.46619335" lon="-0.38035375"><ele>-42.6</ele><time>2022-10-30T14:14:05.0000000+00:00</time></trkpt><trkpt lat="39.46620148" lon="-0.38034084"><ele>-42.6</ele><time>2022-10-30T14:14:06.0000000+00:00</time></trkpt><trkpt lat="39.46621338" lon="-0.38032576"><ele>-42.6</ele><time>2022-10-30T14:14:07.0000000+00:00</time></trkpt><trkpt lat="39.46623132" lon="-0.38030991"><ele>-42.6</ele><time>2022-10-30T14:14:08.0000000+00:00</time></trkpt><trkpt lat="39.466248" lon="-0.38029768"><ele>-42.6</ele><time>2022-10-30T14:14:09.0000000+00:00</time></trkpt><trkpt lat="39.46626593" lon="-0.38029634"><ele>-42.6</ele><time>2022-10-30T14:14:10.0000000+00:00</time></trkpt><trkpt lat="39.46628035" lon="-0.38029499"><ele>-42.6</ele><time>2022-10-30T14:14:11.0000000+00:00</time></trkpt><trkpt lat="39.46629401" lon="-0.38029499"><ele>-42.6</ele><time>2022-10-30T14:14:12.0000000+00:00</time></trkpt><trkpt lat="39.46630374" lon="-0.38029801"><ele>-42.6</ele><time>2022-10-30T14:14:13.0000000+00:00</time></trkpt><trkpt lat="39.46631765" lon="-0.38030011"><ele>-42.6</ele><time>2022-10-30T14:14:14.0000000+00:00</time></trkpt><trkpt lat="39.46632536" lon="-0.38030488"><ele>-42.6</ele><time>2022-10-30T14:14:15.0000000+00:00</time></trkpt><trkpt lat="39.46633316" lon="-0.38030899"><ele>-42.6</ele><time>2022-10-30T14:14:16.0000000+00:00</time></trkpt><trkpt lat="39.4663428" lon="-0.38031637"><ele>-42.6</ele><time>2022-10-30T14:14:17.0000000+00:00</time></trkpt><trkpt lat="39.46634992" lon="-0.38031637"><ele>-42.6</ele><time>2022-10-30T14:14:18.0000000+00:00</time></trkpt><trkpt lat="39.46636928" lon="-0.38031125"><ele>-42.6</ele><time>2022-10-30T14:14:19.0000000+00:00</time></trkpt><trkpt lat="39.46638772" lon="-0.38031469"><ele>-42.6</ele><time>2022-10-30T14:14:20.0000000+00:00</time></trkpt><trkpt lat="39.46639795" lon="-0.3803043"><ele>-42.6</ele><time>2022-10-30T14:14:21.0000000+00:00</time></trkpt><trkpt lat="39.46639845" lon="-0.38029457"><ele>-42.6</ele><time>2022-10-30T14:14:22.0000000+00:00</time></trkpt><trkpt lat="39.4664008" lon="-0.38028955"><ele>-42.6</ele><time>2022-10-30T14:14:23.0000000+00:00</time></trkpt><trkpt lat="39.46640248" lon="-0.3802877"><ele>-42.6</ele><time>2022-10-30T14:14:24.0000000+00:00</time></trkpt><trkpt lat="39.46640683" lon="-0.38029206"><ele>-42.6</ele><time>2022-10-30T14:14:25.0000000+00:00</time></trkpt><trkpt lat="39.46641413" lon="-0.38029097"><ele>-42.6</ele><time>2022-10-30T14:14:26.0000000+00:00</time></trkpt><trkpt lat="39.46642485" lon="-0.38029223"><ele>-42.6</ele><time>2022-10-30T14:14:27.0000000+00:00</time></trkpt><trkpt lat="39.46643366" lon="-0.38029047"><ele>-42.6</ele><time>2022-10-30T14:14:28.0000000+00:00</time></trkpt><trkpt lat="39.46644195" lon="-0.38029064"><ele>-42.6</ele><time>2022-10-30T14:14:29.0000000+00:00</time></trkpt><trkpt lat="39.46645193" lon="-0.38027999"><ele>-42.6</ele><time>2022-10-30T14:14:30.0000000+00:00</time></trkpt><trkpt lat="39.46646241" lon="-0.38025619"><ele>-42.6</ele><time>2022-10-30T14:14:31.0000000+00:00</time></trkpt><trkpt lat="39.46647842" lon="-0.38023104"><ele>-42.6</ele><time>2022-10-30T14:14:32.0000000+00:00</time></trkpt><trkpt lat="39.46649057" lon="-0.3802152"><ele>-42.6</ele><time>2022-10-30T14:14:33.0000000+00:00</time></trkpt><trkpt lat="39.46650323" lon="-0.3802069"><ele>-42.6</ele><time>2022-10-30T14:14:34.0000000+00:00</time></trkpt><trkpt lat="39.46651463" lon="-0.3802033"><ele>-42.6</ele><time>2022-10-30T14:14:35.0000000+00:00</time></trkpt><trkpt lat="39.4665241" lon="-0.380196"><ele>-42.6</ele><time>2022-10-30T14:14:36.0000000+00:00</time></trkpt><trkpt lat="39.46653818" lon="-0.38018662"><ele>-42.6</ele><time>2022-10-30T14:14:37.0000000+00:00</time></trkpt><trkpt lat="39.4665474" lon="-0.38018159"><ele>-42.6</ele><time>2022-10-30T14:14:38.0000000+00:00</time></trkpt><trkpt lat="39.46655226" lon="-0.38017673"><ele>-42.6</ele><time>2022-10-30T14:14:39.0000000+00:00</time></trkpt><trkpt lat="39.46655151" lon="-0.38017111"><ele>-42.6</ele><time>2022-10-30T14:14:40.0000000+00:00</time></trkpt><trkpt lat="39.46655067" lon="-0.38016357"><ele>-42.6</ele><time>2022-10-30T14:14:41.0000000+00:00</time></trkpt><trkpt lat="39.46655" lon="-0.38015661"><ele>-42.6</ele><time>2022-10-30T14:14:42.0000000+00:00</time></trkpt><trkpt lat="39.4665484" lon="-0.38015183"><ele>-42.8</ele><time>2022-10-30T14:14:43.0000000+00:00</time></trkpt><trkpt lat="39.46654706" lon="-0.38015116"><ele>-42.8</ele><time>2022-10-30T14:14:44.0000000+00:00</time></trkpt><trkpt lat="39.46654463" lon="-0.38015225"><ele>-42.8</ele><time>2022-10-30T14:14:45.0000000+00:00</time></trkpt><trkpt lat="39.46654312" lon="-0.3801551"><ele>-42.8</ele><time>2022-10-30T14:14:46.0000000+00:00</time></trkpt><trkpt lat="39.46654094" lon="-0.38015845"><ele>-42.8</ele><time>2022-10-30T14:14:47.0000000+00:00</time></trkpt><trkpt lat="39.46654329" lon="-0.38016373"><ele>-42.8</ele><time>2022-10-30T14:14:48.0000000+00:00</time></trkpt><trkpt lat="39.46654161" lon="-0.38015887"><ele>-42.8</ele><time>2022-10-30T14:14:49.0000000+00:00</time></trkpt><trkpt lat="39.46653985" lon="-0.38014764"><ele>-42.8</ele><time>2022-10-30T14:14:50.0000000+00:00</time></trkpt><trkpt lat="39.46653592" lon="-0.380138"><ele>-42.8</ele><time>2022-10-30T14:14:51.0000000+00:00</time></trkpt><trkpt lat="39.46653022" lon="-0.38012669"><ele>-42.8</ele><time>2022-10-30T14:14:52.0000000+00:00</time></trkpt><trkpt lat="39.46652401" lon="-0.38011143"><ele>-42.8</ele><time>2022-10-30T14:14:53.0000000+00:00</time></trkpt><trkpt lat="39.46651613" lon="-0.38009869"><ele>-42.6</ele><time>2022-10-30T14:14:54.0000000+00:00</time></trkpt><trkpt lat="39.46651421" lon="-0.38008872"><ele>-42.6</ele><time>2022-10-30T14:14:55.0000000+00:00</time></trkpt><trkpt lat="39.46650909" lon="-0.38007631"><ele>-42.6</ele><time>2022-10-30T14:14:56.0000000+00:00</time></trkpt><trkpt lat="39.46650415" lon="-0.38006877"><ele>-42.6</ele><time>2022-10-30T14:14:57.0000000+00:00</time></trkpt><trkpt lat="39.466493" lon="-0.38006038"><ele>-42.6</ele><time>2022-10-30T14:14:58.0000000+00:00</time></trkpt><trkpt lat="39.46648286" lon="-0.38005108"><ele>-42.6</ele><time>2022-10-30T14:14:59.0000000+00:00</time></trkpt><trkpt lat="39.46647883" lon="-0.38003901"><ele>-42.6</ele><time>2022-10-30T14:15:00.0000000+00:00</time></trkpt><trkpt lat="39.46648101" lon="-0.38002627"><ele>-42.6</ele><time>2022-10-30T14:15:01.0000000+00:00</time></trkpt><trkpt lat="39.46648453" lon="-0.38001386"><ele>-42.6</ele><time>2022-10-30T14:15:02.0000000+00:00</time></trkpt><trkpt lat="39.46648311" lon="-0.38000356"><ele>-42.6</ele><time>2022-10-30T14:15:03.0000000+00:00</time></trkpt><trkpt lat="39.46647531" lon="-0.37998486"><ele>-42.6</ele><time>2022-10-30T14:15:04.0000000+00:00</time></trkpt><trkpt lat="39.46647741" lon="-0.37996969"><ele>-42.6</ele><time>2022-10-30T14:15:05.0000000+00:00</time></trkpt><trkpt lat="39.46648621" lon="-0.37995921"><ele>-42.6</ele><time>2022-10-30T14:15:06.0000000+00:00</time></trkpt><trkpt lat="39.4664925" lon="-0.37994941"><ele>-42.6</ele><time>2022-10-30T14:15:07.0000000+00:00</time></trkpt><trkpt lat="39.46649359" lon="-0.37993725"><ele>-42.6</ele><time>2022-10-30T14:15:08.0000000+00:00</time></trkpt><trkpt lat="39.46649845" lon="-0.37993223"><ele>-42.6</ele><time>2022-10-30T14:15:09.0000000+00:00</time></trkpt><trkpt lat="39.46650155" lon="-0.37992979"><ele>-42.6</ele><time>2022-10-30T14:15:10.0000000+00:00</time></trkpt><trkpt lat="39.46649702" lon="-0.37992384"><ele>-42.6</ele><time>2022-10-30T14:15:11.0000000+00:00</time></trkpt><trkpt lat="39.46648881" lon="-0.37991379"><ele>-42.6</ele><time>2022-10-30T14:15:12.0000000+00:00</time></trkpt><trkpt lat="39.46648286" lon="-0.37990381"><ele>-42.6</ele><time>2022-10-30T14:15:13.0000000+00:00</time></trkpt><trkpt lat="39.46648001" lon="-0.3798904"><ele>-42.6</ele><time>2022-10-30T14:15:14.0000000+00:00</time></trkpt><trkpt lat="39.46647531" lon="-0.37986953"><ele>-42.6</ele><time>2022-10-30T14:15:15.0000000+00:00</time></trkpt><trkpt lat="39.46646987" lon="-0.37984933"><ele>-42.6</ele><time>2022-10-30T14:15:16.0000000+00:00</time></trkpt><trkpt lat="39.46646735" lon="-0.37982913"><ele>-42.6</ele><time>2022-10-30T14:15:17.0000000+00:00</time></trkpt><trkpt lat="39.46646559" lon="-0.37980683"><ele>-42.6</ele><time>2022-10-30T14:15:18.0000000+00:00</time></trkpt><trkpt lat="39.46646484" lon="-0.37978102"><ele>-42.6</ele><time>2022-10-30T14:15:19.0000000+00:00</time></trkpt><trkpt lat="39.46646576" lon="-0.37975721"><ele>-42.6</ele><time>2022-10-30T14:15:20.0000000+00:00</time></trkpt><trkpt lat="39.4664697" lon="-0.37973089"><ele>-42.2</ele><time>2022-10-30T14:15:21.0000000+00:00</time></trkpt><trkpt lat="39.46647431" lon="-0.37970172"><ele>-42.0</ele><time>2022-10-30T14:15:22.0000000+00:00</time></trkpt><trkpt lat="39.46647531" lon="-0.37967197"><ele>-42.0</ele><time>2022-10-30T14:15:23.0000000+00:00</time></trkpt><trkpt lat="39.46647934" lon="-0.379649"><ele>-41.8</ele><time>2022-10-30T14:15:24.0000000+00:00</time></trkpt><trkpt lat="39.46648353" lon="-0.37962478"><ele>-42.0</ele><time>2022-10-30T14:15:25.0000000+00:00</time></trkpt><trkpt lat="39.4664894" lon="-0.37961086"><ele>-42.0</ele><time>2022-10-30T14:15:26.0000000+00:00</time></trkpt><trkpt lat="39.46649199" lon="-0.37960189"><ele>-42.0</ele><time>2022-10-30T14:15:27.0000000+00:00</time></trkpt><trkpt lat="39.46649627" lon="-0.37959502"><ele>-42.6</ele><time>2022-10-30T14:15:28.0000000+00:00</time></trkpt><trkpt lat="39.4664925" lon="-0.37958094"><ele>-42.8</ele><time>2022-10-30T14:15:29.0000000+00:00</time></trkpt><trkpt lat="39.46649996" lon="-0.37956158"><ele>-42.8</ele><time>2022-10-30T14:15:30.0000000+00:00</time></trkpt><trkpt lat="39.46650784" lon="-0.37954423"><ele>-42.8</ele><time>2022-10-30T14:15:31.0000000+00:00</time></trkpt><trkpt lat="39.46652242" lon="-0.37953232"><ele>-42.8</ele><time>2022-10-30T14:15:32.0000000+00:00</time></trkpt><trkpt lat="39.46653868" lon="-0.37952713"><ele>-42.8</ele><time>2022-10-30T14:15:33.0000000+00:00</time></trkpt><trkpt lat="39.46654849" lon="-0.37952042"><ele>-42.8</ele><time>2022-10-30T14:15:34.0000000+00:00</time></trkpt><trkpt lat="39.46656039" lon="-0.37950768"><ele>-42.8</ele><time>2022-10-30T14:15:35.0000000+00:00</time></trkpt><trkpt lat="39.46657472" lon="-0.37949779"><ele>-42.8</ele><time>2022-10-30T14:15:36.0000000+00:00</time></trkpt><trkpt lat="39.46658445" lon="-0.37948572"><ele>-42.8</ele><time>2022-10-30T14:15:37.0000000+00:00</time></trkpt><trkpt lat="39.46659652" lon="-0.37947172"><ele>-42.8</ele><time>2022-10-30T14:15:38.0000000+00:00</time></trkpt><trkpt lat="39.46660892" lon="-0.37945429"><ele>-42.8</ele><time>2022-10-30T14:15:39.0000000+00:00</time></trkpt><trkpt lat="39.46662066" lon="-0.37943753"><ele>-42.8</ele><time>2022-10-30T14:15:40.0000000+00:00</time></trkpt><trkpt lat="39.46662887" lon="-0.37941892"><ele>-42.8</ele><time>2022-10-30T14:15:41.0000000+00:00</time></trkpt><trkpt lat="39.46664404" lon="-0.37940685"><ele>-42.8</ele><time>2022-10-30T14:15:42.0000000+00:00</time></trkpt><trkpt lat="39.46665603" lon="-0.37939067"><ele>-42.8</ele><time>2022-10-30T14:15:43.0000000+00:00</time></trkpt><trkpt lat="39.46666701" lon="-0.37937542"><ele>-42.8</ele><time>2022-10-30T14:15:44.0000000+00:00</time></trkpt><trkpt lat="39.46667095" lon="-0.37936972"><ele>-42.8</ele><time>2022-10-30T14:15:45.0000000+00:00</time></trkpt><trkpt lat="39.46668444" lon="-0.37936167"><ele>-43.0</ele><time>2022-10-30T14:15:46.0000000+00:00</time></trkpt><trkpt lat="39.46670733" lon="-0.37936016"><ele>-42.8</ele><time>2022-10-30T14:15:47.0000000+00:00</time></trkpt><trkpt lat="39.46672191" lon="-0.37935295"><ele>-42.8</ele><time>2022-10-30T14:15:48.0000000+00:00</time></trkpt><trkpt lat="39.46673071" lon="-0.3793439"><ele>-42.8</ele><time>2022-10-30T14:15:49.0000000+00:00</time></trkpt><trkpt lat="39.46674035" lon="-0.37933342"><ele>-42.8</ele><time>2022-10-30T14:15:50.0000000+00:00</time></trkpt><trkpt lat="39.4667525" lon="-0.37932454"><ele>-42.8</ele><time>2022-10-30T14:15:51.0000000+00:00</time></trkpt><trkpt lat="39.4667639" lon="-0.37931574"><ele>-42.8</ele><time>2022-10-30T14:15:52.0000000+00:00</time></trkpt><trkpt lat="39.46677748" lon="-0.37930878"><ele>-42.8</ele><time>2022-10-30T14:15:53.0000000+00:00</time></trkpt><trkpt lat="39.46679131" lon="-0.37930031"><ele>-42.8</ele><time>2022-10-30T14:15:54.0000000+00:00</time></trkpt><trkpt lat="39.46680321" lon="-0.37929176"><ele>-42.8</ele><time>2022-10-30T14:15:55.0000000+00:00</time></trkpt><trkpt lat="39.4668131" lon="-0.37927978"><ele>-42.8</ele><time>2022-10-30T14:15:56.0000000+00:00</time></trkpt><trkpt lat="39.466823" lon="-0.37926829"><ele>-42.8</ele><time>2022-10-30T14:15:57.0000000+00:00</time></trkpt><trkpt lat="39.46683465" lon="-0.37925522"><ele>-42.8</ele><time>2022-10-30T14:15:58.0000000+00:00</time></trkpt><trkpt lat="39.46684403" lon="-0.37924189"><ele>-42.8</ele><time>2022-10-30T14:15:59.0000000+00:00</time></trkpt><trkpt lat="39.46684797" lon="-0.37922798"><ele>-42.8</ele><time>2022-10-30T14:16:00.0000000+00:00</time></trkpt><trkpt lat="39.4668489" lon="-0.37920778"><ele>-42.8</ele><time>2022-10-30T14:16:01.0000000+00:00</time></trkpt><trkpt lat="39.46685728" lon="-0.37919194"><ele>-42.8</ele><time>2022-10-30T14:16:02.0000000+00:00</time></trkpt><trkpt lat="39.46687153" lon="-0.37918322"><ele>-42.8</ele><time>2022-10-30T14:16:03.0000000+00:00</time></trkpt><trkpt lat="39.4668846" lon="-0.37917702"><ele>-43.0</ele><time>2022-10-30T14:16:04.0000000+00:00</time></trkpt><trkpt lat="39.46689902" lon="-0.37916813"><ele>-43.0</ele><time>2022-10-30T14:16:05.0000000+00:00</time></trkpt><trkpt lat="39.46691235" lon="-0.3791595"><ele>-43.0</ele><time>2022-10-30T14:16:06.0000000+00:00</time></trkpt><trkpt lat="39.46691059" lon="-0.37914181"><ele>-43.0</ele><time>2022-10-30T14:16:07.0000000+00:00</time></trkpt><trkpt lat="39.4669214" lon="-0.37913854"><ele>-43.0</ele><time>2022-10-30T14:16:08.0000000+00:00</time></trkpt><trkpt lat="39.46693422" lon="-0.37913133"><ele>-43.0</ele><time>2022-10-30T14:16:09.0000000+00:00</time></trkpt><trkpt lat="39.46694512" lon="-0.37912505"><ele>-43.0</ele><time>2022-10-30T14:16:10.0000000+00:00</time></trkpt><trkpt lat="39.46695115" lon="-0.3791118"><ele>-43.0</ele><time>2022-10-30T14:16:11.0000000+00:00</time></trkpt><trkpt lat="39.4669587" lon="-0.37910082"><ele>-43.0</ele><time>2022-10-30T14:16:12.0000000+00:00</time></trkpt><trkpt lat="39.46696616" lon="-0.37908901"><ele>-43.0</ele><time>2022-10-30T14:16:13.0000000+00:00</time></trkpt><trkpt lat="39.4669737" lon="-0.37908054"><ele>-43.0</ele><time>2022-10-30T14:16:14.0000000+00:00</time></trkpt><trkpt lat="39.46698133" lon="-0.37907601"><ele>-43.0</ele><time>2022-10-30T14:16:15.0000000+00:00</time></trkpt><trkpt lat="39.46698158" lon="-0.37908373"><ele>-43.0</ele><time>2022-10-30T14:16:16.0000000+00:00</time></trkpt><trkpt lat="39.46698996" lon="-0.37908808"><ele>-43.0</ele><time>2022-10-30T14:16:17.0000000+00:00</time></trkpt><trkpt lat="39.46699063" lon="-0.37907694"><ele>-43.0</ele><time>2022-10-30T14:16:18.0000000+00:00</time></trkpt><trkpt lat="39.46700136" lon="-0.37907048"><ele>-43.0</ele><time>2022-10-30T14:16:19.0000000+00:00</time></trkpt><trkpt lat="39.46701595" lon="-0.37906319"><ele>-43.0</ele><time>2022-10-30T14:16:20.0000000+00:00</time></trkpt><trkpt lat="39.46702592" lon="-0.37905447"><ele>-43.0</ele><time>2022-10-30T14:16:21.0000000+00:00</time></trkpt><trkpt lat="39.46704042" lon="-0.37904609"><ele>-43.0</ele><time>2022-10-30T14:16:22.0000000+00:00</time></trkpt><trkpt lat="39.46705744" lon="-0.37904844"><ele>-43.0</ele><time>2022-10-30T14:16:23.0000000+00:00</time></trkpt><trkpt lat="39.46707395" lon="-0.37905422"><ele>-43.0</ele><time>2022-10-30T14:16:24.0000000+00:00</time></trkpt><trkpt lat="39.46709289" lon="-0.37905363"><ele>-43.0</ele><time>2022-10-30T14:16:25.0000000+00:00</time></trkpt><trkpt lat="39.46710345" lon="-0.37905456"><ele>-43.0</ele><time>2022-10-30T14:16:26.0000000+00:00</time></trkpt><trkpt lat="39.46711251" lon="-0.37905347"><ele>-43.0</ele><time>2022-10-30T14:16:27.0000000+00:00</time></trkpt><trkpt lat="39.46712357" lon="-0.37905313"><ele>-43.0</ele><time>2022-10-30T14:16:28.0000000+00:00</time></trkpt><trkpt lat="39.46713614" lon="-0.37904257"><ele>-43.0</ele><time>2022-10-30T14:16:29.0000000+00:00</time></trkpt><trkpt lat="39.46714545" lon="-0.37902949"><ele>-43.0</ele><time>2022-10-30T14:16:30.0000000+00:00</time></trkpt><trkpt lat="39.46716079" lon="-0.37901625"><ele>-43.0</ele><time>2022-10-30T14:16:31.0000000+00:00</time></trkpt><trkpt lat="39.46717353" lon="-0.37901281"><ele>-43.0</ele><time>2022-10-30T14:16:32.0000000+00:00</time></trkpt><trkpt lat="39.46718442" lon="-0.37901114"><ele>-43.0</ele><time>2022-10-30T14:16:33.0000000+00:00</time></trkpt><trkpt lat="39.46719557" lon="-0.37900929"><ele>-43.0</ele><time>2022-10-30T14:16:34.0000000+00:00</time></trkpt><trkpt lat="39.46720479" lon="-0.37900108"><ele>-43.0</ele><time>2022-10-30T14:16:35.0000000+00:00</time></trkpt><trkpt lat="39.46721451" lon="-0.37899857"><ele>-43.0</ele><time>2022-10-30T14:16:36.0000000+00:00</time></trkpt><trkpt lat="39.46722449" lon="-0.37898951"><ele>-43.0</ele><time>2022-10-30T14:16:37.0000000+00:00</time></trkpt><trkpt lat="39.46723404" lon="-0.37897811"><ele>-43.0</ele><time>2022-10-30T14:16:38.0000000+00:00</time></trkpt><trkpt lat="39.4672441" lon="-0.37897065"><ele>-43.0</ele><time>2022-10-30T14:16:39.0000000+00:00</time></trkpt><trkpt lat="39.46725324" lon="-0.37896596"><ele>-43.0</ele><time>2022-10-30T14:16:40.0000000+00:00</time></trkpt><trkpt lat="39.46726279" lon="-0.37895842"><ele>-43.0</ele><time>2022-10-30T14:16:41.0000000+00:00</time></trkpt><trkpt lat="39.46727537" lon="-0.3789507"><ele>-43.0</ele><time>2022-10-30T14:16:42.0000000+00:00</time></trkpt><trkpt lat="39.46728635" lon="-0.37893746"><ele>-43.0</ele><time>2022-10-30T14:16:43.0000000+00:00</time></trkpt><trkpt lat="39.46729314" lon="-0.37892925"><ele>-43.0</ele><time>2022-10-30T14:16:44.0000000+00:00</time></trkpt><trkpt lat="39.46730705" lon="-0.37893402"><ele>-43.0</ele><time>2022-10-30T14:16:45.0000000+00:00</time></trkpt><trkpt lat="39.46731887" lon="-0.37893855"><ele>-43.0</ele><time>2022-10-30T14:16:46.0000000+00:00</time></trkpt><trkpt lat="39.46732985" lon="-0.37893428"><ele>-43.0</ele><time>2022-10-30T14:16:47.0000000+00:00</time></trkpt><trkpt lat="39.46734276" lon="-0.37892673"><ele>-43.0</ele><time>2022-10-30T14:16:48.0000000+00:00</time></trkpt><trkpt lat="39.46735399" lon="-0.37891634"><ele>-43.0</ele><time>2022-10-30T14:16:49.0000000+00:00</time></trkpt><trkpt lat="39.4673622" lon="-0.37891064"><ele>-43.0</ele><time>2022-10-30T14:16:50.0000000+00:00</time></trkpt><trkpt lat="39.46736732" lon="-0.37890427"><ele>-43.0</ele><time>2022-10-30T14:16:51.0000000+00:00</time></trkpt><trkpt lat="39.46736983" lon="-0.37891081"><ele>-43.0</ele><time>2022-10-30T14:16:52.0000000+00:00</time></trkpt><trkpt lat="39.46736908" lon="-0.37889765"><ele>-43.0</ele><time>2022-10-30T14:16:53.0000000+00:00</time></trkpt><trkpt lat="39.46737679" lon="-0.37889538"><ele>-43.0</ele><time>2022-10-30T14:16:54.0000000+00:00</time></trkpt><trkpt lat="39.46739439" lon="-0.37889354"><ele>-43.0</ele><time>2022-10-30T14:16:55.0000000+00:00</time></trkpt><trkpt lat="39.46740512" lon="-0.37889111"><ele>-43.0</ele><time>2022-10-30T14:16:56.0000000+00:00</time></trkpt><trkpt lat="39.46741551" lon="-0.37888231"><ele>-43.0</ele><time>2022-10-30T14:16:57.0000000+00:00</time></trkpt><trkpt lat="39.46742901" lon="-0.37887443"><ele>-43.0</ele><time>2022-10-30T14:16:58.0000000+00:00</time></trkpt><trkpt lat="39.46745348" lon="-0.37889245"><ele>-43.0</ele><time>2022-10-30T14:16:59.0000000+00:00</time></trkpt><trkpt lat="39.46747016" lon="-0.37889245"><ele>-43.0</ele><time>2022-10-30T14:17:00.0000000+00:00</time></trkpt><trkpt lat="39.4674881" lon="-0.37889195"><ele>-43.0</ele><time>2022-10-30T14:17:01.0000000+00:00</time></trkpt><trkpt lat="39.46750319" lon="-0.37888784"><ele>-43.0</ele><time>2022-10-30T14:17:02.0000000+00:00</time></trkpt><trkpt lat="39.46751266" lon="-0.37888155"><ele>-43.0</ele><time>2022-10-30T14:17:03.0000000+00:00</time></trkpt><trkpt lat="39.46751333" lon="-0.37886479"><ele>-43.0</ele><time>2022-10-30T14:17:04.0000000+00:00</time></trkpt><trkpt lat="39.46749648" lon="-0.37882724"><ele>-43.0</ele><time>2022-10-30T14:17:05.0000000+00:00</time></trkpt><trkpt lat="39.46749573" lon="-0.37880771"><ele>-43.0</ele><time>2022-10-30T14:17:06.0000000+00:00</time></trkpt><trkpt lat="39.46750394" lon="-0.37879748"><ele>-43.0</ele><time>2022-10-30T14:17:07.0000000+00:00</time></trkpt><trkpt lat="39.46751509" lon="-0.37879262"><ele>-42.8</ele><time>2022-10-30T14:17:08.0000000+00:00</time></trkpt><trkpt lat="39.46752079" lon="-0.37877871"><ele>-42.8</ele><time>2022-10-30T14:17:09.0000000+00:00</time></trkpt><trkpt lat="39.46753562" lon="-0.37876999"><ele>-42.8</ele><time>2022-10-30T14:17:10.0000000+00:00</time></trkpt><trkpt lat="39.46753521" lon="-0.37871811"><ele>-42.8</ele><time>2022-10-30T14:17:11.0000000+00:00</time></trkpt><trkpt lat="39.46753931" lon="-0.37868567"><ele>-42.8</ele><time>2022-10-30T14:17:12.0000000+00:00</time></trkpt><trkpt lat="39.46754627" lon="-0.37865809"><ele>-42.8</ele><time>2022-10-30T14:17:13.0000000+00:00</time></trkpt><trkpt lat="39.4675549" lon="-0.37863605"><ele>-42.8</ele><time>2022-10-30T14:17:14.0000000+00:00</time></trkpt><trkpt lat="39.46756588" lon="-0.37862741"><ele>-42.8</ele><time>2022-10-30T14:17:15.0000000+00:00</time></trkpt><trkpt lat="39.46757745" lon="-0.37862088"><ele>-42.8</ele><time>2022-10-30T14:17:16.0000000+00:00</time></trkpt><trkpt lat="39.46758801" lon="-0.37861752"><ele>-42.8</ele><time>2022-10-30T14:17:17.0000000+00:00</time></trkpt><trkpt lat="39.46759949" lon="-0.37861015"><ele>-42.6</ele><time>2022-10-30T14:17:18.0000000+00:00</time></trkpt><trkpt lat="39.46761617" lon="-0.37861149"><ele>-42.8</ele><time>2022-10-30T14:17:19.0000000+00:00</time></trkpt><trkpt lat="39.46763721" lon="-0.37861652"><ele>-42.8</ele><time>2022-10-30T14:17:20.0000000+00:00</time></trkpt><trkpt lat="39.46765549" lon="-0.3786218"><ele>-42.8</ele><time>2022-10-30T14:17:21.0000000+00:00</time></trkpt><trkpt lat="39.46767652" lon="-0.37863052"><ele>-42.8</ele><time>2022-10-30T14:17:22.0000000+00:00</time></trkpt><trkpt lat="39.46769346" lon="-0.37864032"><ele>-42.8</ele><time>2022-10-30T14:17:23.0000000+00:00</time></trkpt><trkpt lat="39.46771575" lon="-0.37865642"><ele>-42.8</ele><time>2022-10-30T14:17:24.0000000+00:00</time></trkpt><trkpt lat="39.46773595" lon="-0.37868408"><ele>-42.8</ele><time>2022-10-30T14:17:25.0000000+00:00</time></trkpt><trkpt lat="39.46775716" lon="-0.37870771"><ele>-42.8</ele><time>2022-10-30T14:17:26.0000000+00:00</time></trkpt><trkpt lat="39.46777141" lon="-0.37873261"><ele>-42.8</ele><time>2022-10-30T14:17:27.0000000+00:00</time></trkpt><trkpt lat="39.46778021" lon="-0.37875851"><ele>-42.8</ele><time>2022-10-30T14:17:28.0000000+00:00</time></trkpt><trkpt lat="39.46779412" lon="-0.37877946"><ele>-43.0</ele><time>2022-10-30T14:17:29.0000000+00:00</time></trkpt><trkpt lat="39.46780955" lon="-0.37879212"><ele>-43.0</ele><time>2022-10-30T14:17:30.0000000+00:00</time></trkpt><trkpt lat="39.46782606" lon="-0.3788067"><ele>-43.0</ele><time>2022-10-30T14:17:31.0000000+00:00</time></trkpt><trkpt lat="39.46783243" lon="-0.37880947"><ele>-43.2</ele><time>2022-10-30T14:17:32.0000000+00:00</time></trkpt><trkpt lat="39.46785322" lon="-0.37882095"><ele>-43.2</ele><time>2022-10-30T14:17:33.0000000+00:00</time></trkpt><trkpt lat="39.46787559" lon="-0.37882841"><ele>-43.2</ele><time>2022-10-30T14:17:34.0000000+00:00</time></trkpt><trkpt lat="39.46789051" lon="-0.37883428"><ele>-43.2</ele><time>2022-10-30T14:17:35.0000000+00:00</time></trkpt><trkpt lat="39.46789655" lon="-0.37883772"><ele>-43.2</ele><time>2022-10-30T14:17:36.0000000+00:00</time></trkpt><trkpt lat="39.46790393" lon="-0.378844"><ele>-43.2</ele><time>2022-10-30T14:17:37.0000000+00:00</time></trkpt><trkpt lat="39.46790719" lon="-0.37885163"><ele>-43.2</ele><time>2022-10-30T14:17:38.0000000+00:00</time></trkpt><trkpt lat="39.46791306" lon="-0.37885264"><ele>-43.2</ele><time>2022-10-30T14:17:39.0000000+00:00</time></trkpt><trkpt lat="39.46792941" lon="-0.37884886"><ele>-43.2</ele><time>2022-10-30T14:17:40.0000000+00:00</time></trkpt><trkpt lat="39.46793284" lon="-0.3788404"><ele>-43.2</ele><time>2022-10-30T14:17:41.0000000+00:00</time></trkpt><trkpt lat="39.46793326" lon="-0.3788357"><ele>-43.2</ele><time>2022-10-30T14:17:42.0000000+00:00</time></trkpt><trkpt lat="39.46793418" lon="-0.37883168"><ele>-43.0</ele><time>2022-10-30T14:17:43.0000000+00:00</time></trkpt><trkpt lat="39.46792773" lon="-0.37881953"><ele>-43.0</ele><time>2022-10-30T14:17:44.0000000+00:00</time></trkpt><trkpt lat="39.46792463" lon="-0.37881659"><ele>-43.0</ele><time>2022-10-30T14:17:45.0000000+00:00</time></trkpt><trkpt lat="39.46792656" lon="-0.37880871"><ele>-43.0</ele><time>2022-10-30T14:17:46.0000000+00:00</time></trkpt><trkpt lat="39.46792455" lon="-0.37879631"><ele>-43.0</ele><time>2022-10-30T14:17:47.0000000+00:00</time></trkpt><trkpt lat="39.46791717" lon="-0.37878592"><ele>-43.0</ele><time>2022-10-30T14:17:48.0000000+00:00</time></trkpt><trkpt lat="39.46790971" lon="-0.37877896"><ele>-43.0</ele><time>2022-10-30T14:17:49.0000000+00:00</time></trkpt><trkpt lat="39.46790577" lon="-0.37877133"><ele>-43.0</ele><time>2022-10-30T14:17:50.0000000+00:00</time></trkpt><trkpt lat="39.46791239" lon="-0.37877074"><ele>-43.0</ele><time>2022-10-30T14:17:51.0000000+00:00</time></trkpt><trkpt lat="39.46791709" lon="-0.37877728"><ele>-43.0</ele><time>2022-10-30T14:17:52.0000000+00:00</time></trkpt><trkpt lat="39.46792723" lon="-0.37877309"><ele>-43.0</ele><time>2022-10-30T14:17:53.0000000+00:00</time></trkpt><trkpt lat="39.46793393" lon="-0.37876513"><ele>-43.0</ele><time>2022-10-30T14:17:54.0000000+00:00</time></trkpt><trkpt lat="39.46792723" lon="-0.3787456"><ele>-43.0</ele><time>2022-10-30T14:17:55.0000000+00:00</time></trkpt><trkpt lat="39.46790736" lon="-0.37872238"><ele>-43.0</ele><time>2022-10-30T14:17:56.0000000+00:00</time></trkpt><trkpt lat="39.46789647" lon="-0.37871777"><ele>-43.0</ele><time>2022-10-30T14:17:57.0000000+00:00</time></trkpt><trkpt lat="39.46789387" lon="-0.37871593"><ele>-43.0</ele><time>2022-10-30T14:17:58.0000000+00:00</time></trkpt><trkpt lat="39.46789613" lon="-0.37869824"><ele>-43.0</ele><time>2022-10-30T14:17:59.0000000+00:00</time></trkpt><trkpt lat="39.46790652" lon="-0.37867896"><ele>-43.0</ele><time>2022-10-30T14:18:00.0000000+00:00</time></trkpt><trkpt lat="39.46789336" lon="-0.37866547"><ele>-43.0</ele><time>2022-10-30T14:18:01.0000000+00:00</time></trkpt><trkpt lat="39.46788037" lon="-0.37865683"><ele>-43.0</ele><time>2022-10-30T14:18:02.0000000+00:00</time></trkpt><trkpt lat="39.46787694" lon="-0.37864476"><ele>-43.0</ele><time>2022-10-30T14:18:03.0000000+00:00</time></trkpt><trkpt lat="39.46787568" lon="-0.37863378"><ele>-43.0</ele><time>2022-10-30T14:18:04.0000000+00:00</time></trkpt><trkpt lat="39.46787065" lon="-0.37861928"><ele>-43.0</ele><time>2022-10-30T14:18:05.0000000+00:00</time></trkpt><trkpt lat="39.46787652" lon="-0.3786011"><ele>-43.0</ele><time>2022-10-30T14:18:06.0000000+00:00</time></trkpt><trkpt lat="39.46788766" lon="-0.37857704"><ele>-43.0</ele><time>2022-10-30T14:18:07.0000000+00:00</time></trkpt><trkpt lat="39.46787861" lon="-0.37856933"><ele>-43.2</ele><time>2022-10-30T14:18:08.0000000+00:00</time></trkpt><trkpt lat="39.46788096" lon="-0.37857385"><ele>-43.2</ele><time>2022-10-30T14:18:09.0000000+00:00</time></trkpt><trkpt lat="39.46787635" lon="-0.37856958"><ele>-43.2</ele><time>2022-10-30T14:18:10.0000000+00:00</time></trkpt><trkpt lat="39.46787233" lon="-0.37857235"><ele>-43.2</ele><time>2022-10-30T14:18:11.0000000+00:00</time></trkpt><trkpt lat="39.46786252" lon="-0.37857796"><ele>-43.4</ele><time>2022-10-30T14:18:12.0000000+00:00</time></trkpt><trkpt lat="39.46786252" lon="-0.37857804"><ele>-43.4</ele><time>2022-10-30T14:18:13.0000000+00:00</time></trkpt><trkpt lat="39.46786545" lon="-0.37857737"><ele>-43.4</ele><time>2022-10-30T14:18:14.0000000+00:00</time></trkpt><trkpt lat="39.46787274" lon="-0.37857469"><ele>-43.4</ele><time>2022-10-30T14:18:15.0000000+00:00</time></trkpt><trkpt lat="39.46787836" lon="-0.37857"><ele>-43.4</ele><time>2022-10-30T14:18:16.0000000+00:00</time></trkpt><trkpt lat="39.46788079" lon="-0.37856857"><ele>-43.4</ele><time>2022-10-30T14:18:17.0000000+00:00</time></trkpt><trkpt lat="39.46788197" lon="-0.37856145"><ele>-43.4</ele><time>2022-10-30T14:18:18.0000000+00:00</time></trkpt><trkpt lat="39.46787987" lon="-0.37855022"><ele>-43.4</ele><time>2022-10-30T14:18:19.0000000+00:00</time></trkpt><trkpt lat="39.46787585" lon="-0.37853966"><ele>-43.4</ele><time>2022-10-30T14:18:20.0000000+00:00</time></trkpt><trkpt lat="39.46786755" lon="-0.37853077"><ele>-43.2</ele><time>2022-10-30T14:18:21.0000000+00:00</time></trkpt><trkpt lat="39.46785749" lon="-0.37852256"><ele>-43.2</ele><time>2022-10-30T14:18:22.0000000+00:00</time></trkpt><trkpt lat="39.46784693" lon="-0.37850965"><ele>-43.2</ele><time>2022-10-30T14:18:23.0000000+00:00</time></trkpt><trkpt lat="39.46783821" lon="-0.37849967"><ele>-43.2</ele><time>2022-10-30T14:18:24.0000000+00:00</time></trkpt><trkpt lat="39.46782891" lon="-0.37849297"><ele>-43.0</ele><time>2022-10-30T14:18:25.0000000+00:00</time></trkpt><trkpt lat="39.46781734" lon="-0.37848157"><ele>-43.0</ele><time>2022-10-30T14:18:26.0000000+00:00</time></trkpt><trkpt lat="39.46780787" lon="-0.37847042"><ele>-43.2</ele><time>2022-10-30T14:18:27.0000000+00:00</time></trkpt><trkpt lat="39.46780158" lon="-0.37846087"><ele>-43.0</ele><time>2022-10-30T14:18:28.0000000+00:00</time></trkpt><trkpt lat="39.46778792" lon="-0.37845198"><ele>-43.0</ele><time>2022-10-30T14:18:29.0000000+00:00</time></trkpt><trkpt lat="39.46777585" lon="-0.37844813"><ele>-43.0</ele><time>2022-10-30T14:18:30.0000000+00:00</time></trkpt><trkpt lat="39.46777535" lon="-0.37843228"><ele>-43.0</ele><time>2022-10-30T14:18:31.0000000+00:00</time></trkpt><trkpt lat="39.46777409" lon="-0.37841845"><ele>-43.0</ele><time>2022-10-30T14:18:32.0000000+00:00</time></trkpt><trkpt lat="39.46777149" lon="-0.37840228"><ele>-43.0</ele><time>2022-10-30T14:18:33.0000000+00:00</time></trkpt><trkpt lat="39.46775565" lon="-0.3783918"><ele>-43.0</ele><time>2022-10-30T14:18:34.0000000+00:00</time></trkpt><trkpt lat="39.46774693" lon="-0.37837654"><ele>-43.0</ele><time>2022-10-30T14:18:35.0000000+00:00</time></trkpt><trkpt lat="39.46774769" lon="-0.37835886"><ele>-43.2</ele><time>2022-10-30T14:18:36.0000000+00:00</time></trkpt><trkpt lat="39.46775657" lon="-0.37834746"><ele>-43.2</ele><time>2022-10-30T14:18:37.0000000+00:00</time></trkpt><trkpt lat="39.46776889" lon="-0.37833145"><ele>-43.2</ele><time>2022-10-30T14:18:38.0000000+00:00</time></trkpt><trkpt lat="39.46778406" lon="-0.37830781"><ele>-43.2</ele><time>2022-10-30T14:18:39.0000000+00:00</time></trkpt><trkpt lat="39.4677927" lon="-0.37828669"><ele>-43.2</ele><time>2022-10-30T14:18:40.0000000+00:00</time></trkpt><trkpt lat="39.46780343" lon="-0.37826582"><ele>-43.2</ele><time>2022-10-30T14:18:41.0000000+00:00</time></trkpt><trkpt lat="39.46780292" lon="-0.37824947"><ele>-43.2</ele><time>2022-10-30T14:18:42.0000000+00:00</time></trkpt><trkpt lat="39.46779932" lon="-0.37823472"><ele>-43.2</ele><time>2022-10-30T14:18:43.0000000+00:00</time></trkpt><trkpt lat="39.46778934" lon="-0.37822525"><ele>-43.2</ele><time>2022-10-30T14:18:44.0000000+00:00</time></trkpt><trkpt lat="39.46778683" lon="-0.37821536"><ele>-43.2</ele><time>2022-10-30T14:18:45.0000000+00:00</time></trkpt><trkpt lat="39.46778775" lon="-0.37820446"><ele>-43.2</ele><time>2022-10-30T14:18:46.0000000+00:00</time></trkpt><trkpt lat="39.46778851" lon="-0.37818175"><ele>-43.2</ele><time>2022-10-30T14:18:47.0000000+00:00</time></trkpt><trkpt lat="39.46778909" lon="-0.3781592"><ele>-43.2</ele><time>2022-10-30T14:18:48.0000000+00:00</time></trkpt><trkpt lat="39.46779043" lon="-0.3781359"><ele>-43.2</ele><time>2022-10-30T14:18:49.0000000+00:00</time></trkpt><trkpt lat="39.46778557" lon="-0.3781157"><ele>-43.0</ele><time>2022-10-30T14:18:50.0000000+00:00</time></trkpt><trkpt lat="39.46777887" lon="-0.37810011"><ele>-43.0</ele><time>2022-10-30T14:18:51.0000000+00:00</time></trkpt><trkpt lat="39.46776755" lon="-0.3780924"><ele>-43.0</ele><time>2022-10-30T14:18:52.0000000+00:00</time></trkpt><trkpt lat="39.46776428" lon="-0.37808066"><ele>-43.2</ele><time>2022-10-30T14:18:53.0000000+00:00</time></trkpt><trkpt lat="39.46776914" lon="-0.37806264"><ele>-43.2</ele><time>2022-10-30T14:18:54.0000000+00:00</time></trkpt><trkpt lat="39.46777392" lon="-0.37803825"><ele>-43.2</ele><time>2022-10-30T14:18:55.0000000+00:00</time></trkpt><trkpt lat="39.46777082" lon="-0.3780095"><ele>-43.2</ele><time>2022-10-30T14:18:56.0000000+00:00</time></trkpt><trkpt lat="39.46776805" lon="-0.37799584"><ele>-43.2</ele><time>2022-10-30T14:18:57.0000000+00:00</time></trkpt><trkpt lat="39.46776034" lon="-0.37798762"><ele>-43.2</ele><time>2022-10-30T14:18:58.0000000+00:00</time></trkpt><trkpt lat="39.46776747" lon="-0.37797832"><ele>-43.2</ele><time>2022-10-30T14:18:59.0000000+00:00</time></trkpt><trkpt lat="39.46777593" lon="-0.37795753"><ele>-43.2</ele><time>2022-10-30T14:19:00.0000000+00:00</time></trkpt><trkpt lat="39.46778909" lon="-0.37794739"><ele>-43.2</ele><time>2022-10-30T14:19:01.0000000+00:00</time></trkpt><trkpt lat="39.46779354" lon="-0.37794605"><ele>-43.0</ele><time>2022-10-30T14:19:02.0000000+00:00</time></trkpt><trkpt lat="39.467802" lon="-0.37793188"><ele>-43.0</ele><time>2022-10-30T14:19:03.0000000+00:00</time></trkpt><trkpt lat="39.46779136" lon="-0.37791755"><ele>-43.0</ele><time>2022-10-30T14:19:04.0000000+00:00</time></trkpt><trkpt lat="39.4677906" lon="-0.37789567"><ele>-43.0</ele><time>2022-10-30T14:19:05.0000000+00:00</time></trkpt><trkpt lat="39.46776462" lon="-0.3778836"><ele>-43.0</ele><time>2022-10-30T14:19:06.0000000+00:00</time></trkpt><trkpt lat="39.46775531" lon="-0.37786977"><ele>-43.0</ele><time>2022-10-30T14:19:07.0000000+00:00</time></trkpt><trkpt lat="39.46775439" lon="-0.37785385"><ele>-43.0</ele><time>2022-10-30T14:19:08.0000000+00:00</time></trkpt><trkpt lat="39.46775288" lon="-0.37783423"><ele>-43.0</ele><time>2022-10-30T14:19:09.0000000+00:00</time></trkpt><trkpt lat="39.46774366" lon="-0.37782728"><ele>-43.0</ele><time>2022-10-30T14:19:10.0000000+00:00</time></trkpt><trkpt lat="39.46774752" lon="-0.37781948"><ele>-43.0</ele><time>2022-10-30T14:19:11.0000000+00:00</time></trkpt><trkpt lat="39.46773243" lon="-0.37781244"><ele>-43.0</ele><time>2022-10-30T14:19:12.0000000+00:00</time></trkpt><trkpt lat="39.46773277" lon="-0.37779794"><ele>-43.0</ele><time>2022-10-30T14:19:13.0000000+00:00</time></trkpt><trkpt lat="39.46772941" lon="-0.37778428"><ele>-43.0</ele><time>2022-10-30T14:19:14.0000000+00:00</time></trkpt><trkpt lat="39.46773092" lon="-0.37777556"><ele>-43.0</ele><time>2022-10-30T14:19:15.0000000+00:00</time></trkpt><trkpt lat="39.4677181" lon="-0.37776676"><ele>-43.0</ele><time>2022-10-30T14:19:16.0000000+00:00</time></trkpt><trkpt lat="39.46771701" lon="-0.37776165"><ele>-43.0</ele><time>2022-10-30T14:19:17.0000000+00:00</time></trkpt><trkpt lat="39.46771617" lon="-0.37775209"><ele>-43.0</ele><time>2022-10-30T14:19:18.0000000+00:00</time></trkpt><trkpt lat="39.4677155" lon="-0.37774924"><ele>-43.0</ele><time>2022-10-30T14:19:19.0000000+00:00</time></trkpt><trkpt lat="39.46771307" lon="-0.37775268"><ele>-43.0</ele><time>2022-10-30T14:19:20.0000000+00:00</time></trkpt><trkpt lat="39.46771106" lon="-0.37775276"><ele>-43.0</ele><time>2022-10-30T14:19:21.0000000+00:00</time></trkpt><trkpt lat="39.46770913" lon="-0.37775494"><ele>-43.0</ele><time>2022-10-30T14:19:22.0000000+00:00</time></trkpt><trkpt lat="39.46769295" lon="-0.37775419"><ele>-43.0</ele><time>2022-10-30T14:19:23.0000000+00:00</time></trkpt><trkpt lat="39.46769228" lon="-0.37775452"><ele>-43.0</ele><time>2022-10-30T14:19:24.0000000+00:00</time></trkpt><trkpt lat="39.4676917" lon="-0.37775503"><ele>-43.2</ele><time>2022-10-30T14:19:25.0000000+00:00</time></trkpt><trkpt lat="39.46768792" lon="-0.37775469"><ele>-43.2</ele><time>2022-10-30T14:19:26.0000000+00:00</time></trkpt><trkpt lat="39.46768683" lon="-0.37775176"><ele>-43.2</ele><time>2022-10-30T14:19:27.0000000+00:00</time></trkpt><trkpt lat="39.46768885" lon="-0.37775117"><ele>-43.2</ele><time>2022-10-30T14:19:28.0000000+00:00</time></trkpt><trkpt lat="39.46768398" lon="-0.37775218"><ele>-43.2</ele><time>2022-10-30T14:19:29.0000000+00:00</time></trkpt><trkpt lat="39.4676772" lon="-0.37774472"><ele>-43.2</ele><time>2022-10-30T14:19:30.0000000+00:00</time></trkpt><trkpt lat="39.467672" lon="-0.37773893"><ele>-43.2</ele><time>2022-10-30T14:19:31.0000000+00:00</time></trkpt><trkpt lat="39.46765842" lon="-0.37773499"><ele>-43.2</ele><time>2022-10-30T14:19:32.0000000+00:00</time></trkpt><trkpt lat="39.46764149" lon="-0.37773147"><ele>-43.0</ele><time>2022-10-30T14:19:33.0000000+00:00</time></trkpt><trkpt lat="39.46762875" lon="-0.37772552"><ele>-43.0</ele><time>2022-10-30T14:19:34.0000000+00:00</time></trkpt><trkpt lat="39.46761634" lon="-0.37771597"><ele>-42.8</ele><time>2022-10-30T14:19:35.0000000+00:00</time></trkpt><trkpt lat="39.46761048" lon="-0.37770448"><ele>-42.8</ele><time>2022-10-30T14:19:36.0000000+00:00</time></trkpt><trkpt lat="39.46760712" lon="-0.37769308"><ele>-42.8</ele><time>2022-10-30T14:19:37.0000000+00:00</time></trkpt><trkpt lat="39.46759874" lon="-0.37768378"><ele>-42.8</ele><time>2022-10-30T14:19:38.0000000+00:00</time></trkpt><trkpt lat="39.46758701" lon="-0.37767305"><ele>-42.8</ele><time>2022-10-30T14:19:39.0000000+00:00</time></trkpt><trkpt lat="39.46757963" lon="-0.37766324"><ele>-42.8</ele><time>2022-10-30T14:19:40.0000000+00:00</time></trkpt><trkpt lat="39.46757561" lon="-0.37765545"><ele>-42.8</ele><time>2022-10-30T14:19:41.0000000+00:00</time></trkpt><trkpt lat="39.46756831" lon="-0.37764858"><ele>-42.8</ele><time>2022-10-30T14:19:42.0000000+00:00</time></trkpt><trkpt lat="39.46756144" lon="-0.37763567"><ele>-42.8</ele><time>2022-10-30T14:19:43.0000000+00:00</time></trkpt><trkpt lat="39.46755708" lon="-0.37761916"><ele>-42.8</ele><time>2022-10-30T14:19:44.0000000+00:00</time></trkpt><trkpt lat="39.46755147" lon="-0.3776003"><ele>-42.8</ele><time>2022-10-30T14:19:45.0000000+00:00</time></trkpt><trkpt lat="39.46754535" lon="-0.37757892"><ele>-42.6</ele><time>2022-10-30T14:19:46.0000000+00:00</time></trkpt><trkpt lat="39.46754023" lon="-0.3775573"><ele>-42.8</ele><time>2022-10-30T14:19:47.0000000+00:00</time></trkpt><trkpt lat="39.46754015" lon="-0.37754011"><ele>-42.8</ele><time>2022-10-30T14:19:48.0000000+00:00</time></trkpt><trkpt lat="39.46753738" lon="-0.37752461"><ele>-42.8</ele><time>2022-10-30T14:19:49.0000000+00:00</time></trkpt><trkpt lat="39.46753118" lon="-0.37750927"><ele>-42.8</ele><time>2022-10-30T14:19:50.0000000+00:00</time></trkpt><trkpt lat="39.46752749" lon="-0.37748722"><ele>-42.8</ele><time>2022-10-30T14:19:51.0000000+00:00</time></trkpt><trkpt lat="39.46752649" lon="-0.37746744"><ele>-42.8</ele><time>2022-10-30T14:19:52.0000000+00:00</time></trkpt><trkpt lat="39.46752112" lon="-0.37744146"><ele>-42.8</ele><time>2022-10-30T14:19:53.0000000+00:00</time></trkpt><trkpt lat="39.46751366" lon="-0.37741656"><ele>-43.0</ele><time>2022-10-30T14:19:54.0000000+00:00</time></trkpt><trkpt lat="39.46750872" lon="-0.37740517"><ele>-43.0</ele><time>2022-10-30T14:19:55.0000000+00:00</time></trkpt><trkpt lat="39.46750511" lon="-0.37738362"><ele>-43.0</ele><time>2022-10-30T14:19:56.0000000+00:00</time></trkpt><trkpt lat="39.46750528" lon="-0.37737155"><ele>-43.0</ele><time>2022-10-30T14:19:57.0000000+00:00</time></trkpt><trkpt lat="39.46750268" lon="-0.37736099"><ele>-43.0</ele><time>2022-10-30T14:19:58.0000000+00:00</time></trkpt><trkpt lat="39.46750277" lon="-0.37735253"><ele>-43.0</ele><time>2022-10-30T14:19:59.0000000+00:00</time></trkpt><trkpt lat="39.46750084" lon="-0.37733769"><ele>-43.0</ele><time>2022-10-30T14:20:00.0000000+00:00</time></trkpt><trkpt lat="39.46750193" lon="-0.37732369"><ele>-43.0</ele><time>2022-10-30T14:20:01.0000000+00:00</time></trkpt><trkpt lat="39.46749598" lon="-0.37730986"><ele>-43.0</ele><time>2022-10-30T14:20:02.0000000+00:00</time></trkpt><trkpt lat="39.46749137" lon="-0.37729687"><ele>-43.0</ele><time>2022-10-30T14:20:03.0000000+00:00</time></trkpt><trkpt lat="39.4674881" lon="-0.37728254"><ele>-42.8</ele><time>2022-10-30T14:20:04.0000000+00:00</time></trkpt><trkpt lat="39.46748232" lon="-0.37726728"><ele>-42.8</ele><time>2022-10-30T14:20:05.0000000+00:00</time></trkpt><trkpt lat="39.46747712" lon="-0.37724851"><ele>-42.8</ele><time>2022-10-30T14:20:06.0000000+00:00</time></trkpt><trkpt lat="39.46748156" lon="-0.37723451"><ele>-42.8</ele><time>2022-10-30T14:20:07.0000000+00:00</time></trkpt><trkpt lat="39.46748198" lon="-0.37722806"><ele>-42.8</ele><time>2022-10-30T14:20:08.0000000+00:00</time></trkpt><trkpt lat="39.4674736" lon="-0.37722051"><ele>-42.8</ele><time>2022-10-30T14:20:09.0000000+00:00</time></trkpt><trkpt lat="39.4674684" lon="-0.37720492"><ele>-42.8</ele><time>2022-10-30T14:20:10.0000000+00:00</time></trkpt><trkpt lat="39.46745985" lon="-0.37718606"><ele>-42.8</ele><time>2022-10-30T14:20:11.0000000+00:00</time></trkpt><trkpt lat="39.46745222" lon="-0.37717039"><ele>-42.8</ele><time>2022-10-30T14:20:12.0000000+00:00</time></trkpt><trkpt lat="39.46744351" lon="-0.37715698"><ele>-42.6</ele><time>2022-10-30T14:20:13.0000000+00:00</time></trkpt><trkpt lat="39.46744602" lon="-0.37714264"><ele>-42.6</ele><time>2022-10-30T14:20:14.0000000+00:00</time></trkpt><trkpt lat="39.46744946" lon="-0.37712496"><ele>-42.6</ele><time>2022-10-30T14:20:15.0000000+00:00</time></trkpt><trkpt lat="39.46744678" lon="-0.37710945"><ele>-42.8</ele><time>2022-10-30T14:20:16.0000000+00:00</time></trkpt><trkpt lat="39.46744057" lon="-0.37709663"><ele>-42.8</ele><time>2022-10-30T14:20:17.0000000+00:00</time></trkpt><trkpt lat="39.46743001" lon="-0.37708581"><ele>-42.8</ele><time>2022-10-30T14:20:18.0000000+00:00</time></trkpt><trkpt lat="39.46741836" lon="-0.37707701"><ele>-42.8</ele><time>2022-10-30T14:20:19.0000000+00:00</time></trkpt><trkpt lat="39.46741283" lon="-0.37706561"><ele>-42.8</ele><time>2022-10-30T14:20:20.0000000+00:00</time></trkpt><trkpt lat="39.46741174" lon="-0.37705103"><ele>-42.8</ele><time>2022-10-30T14:20:21.0000000+00:00</time></trkpt><trkpt lat="39.46741375" lon="-0.37703242"><ele>-42.8</ele><time>2022-10-30T14:20:22.0000000+00:00</time></trkpt><trkpt lat="39.46741551" lon="-0.37701532"><ele>-42.8</ele><time>2022-10-30T14:20:23.0000000+00:00</time></trkpt><trkpt lat="39.46741057" lon="-0.37700317"><ele>-42.8</ele><time>2022-10-30T14:20:24.0000000+00:00</time></trkpt><trkpt lat="39.4674052" lon="-0.37698465"><ele>-42.8</ele><time>2022-10-30T14:20:25.0000000+00:00</time></trkpt><trkpt lat="39.46738727" lon="-0.37694701"><ele>-42.8</ele><time>2022-10-30T14:20:26.0000000+00:00</time></trkpt><trkpt lat="39.46736841" lon="-0.3769331"><ele>-42.6</ele><time>2022-10-30T14:20:27.0000000+00:00</time></trkpt><trkpt lat="39.46737427" lon="-0.37690787"><ele>-42.6</ele><time>2022-10-30T14:20:28.0000000+00:00</time></trkpt><trkpt lat="39.46737662" lon="-0.37688591"><ele>-42.8</ele><time>2022-10-30T14:20:29.0000000+00:00</time></trkpt><trkpt lat="39.46738492" lon="-0.37686914"><ele>-42.8</ele><time>2022-10-30T14:20:30.0000000+00:00</time></trkpt><trkpt lat="39.46738609" lon="-0.37686755"><ele>-42.8</ele><time>2022-10-30T14:20:31.0000000+00:00</time></trkpt><trkpt lat="39.46737528" lon="-0.37687602"><ele>-42.8</ele><time>2022-10-30T14:20:32.0000000+00:00</time></trkpt><trkpt lat="39.4673638" lon="-0.3768704"><ele>-42.8</ele><time>2022-10-30T14:20:33.0000000+00:00</time></trkpt><trkpt lat="39.46735139" lon="-0.37686043"><ele>-42.8</ele><time>2022-10-30T14:20:34.0000000+00:00</time></trkpt><trkpt lat="39.4673508" lon="-0.37683561"><ele>-42.8</ele><time>2022-10-30T14:20:35.0000000+00:00</time></trkpt><trkpt lat="39.46735927" lon="-0.37681164"><ele>-42.8</ele><time>2022-10-30T14:20:36.0000000+00:00</time></trkpt><trkpt lat="39.46736581" lon="-0.37679505"><ele>-42.8</ele><time>2022-10-30T14:20:37.0000000+00:00</time></trkpt><trkpt lat="39.46736363" lon="-0.37678373"><ele>-42.6</ele><time>2022-10-30T14:20:38.0000000+00:00</time></trkpt><trkpt lat="39.46735977" lon="-0.37676898"><ele>-42.6</ele><time>2022-10-30T14:20:39.0000000+00:00</time></trkpt><trkpt lat="39.4673565" lon="-0.37675624"><ele>-42.6</ele><time>2022-10-30T14:20:40.0000000+00:00</time></trkpt><trkpt lat="39.46735022" lon="-0.37674844"><ele>-42.6</ele><time>2022-10-30T14:20:41.0000000+00:00</time></trkpt><trkpt lat="39.46734276" lon="-0.37674056"><ele>-42.8</ele><time>2022-10-30T14:20:42.0000000+00:00</time></trkpt><trkpt lat="39.46733655" lon="-0.37672992"><ele>-42.8</ele><time>2022-10-30T14:20:43.0000000+00:00</time></trkpt><trkpt lat="39.46733463" lon="-0.37671886"><ele>-42.8</ele><time>2022-10-30T14:20:44.0000000+00:00</time></trkpt><trkpt lat="39.46733035" lon="-0.37671374"><ele>-42.8</ele><time>2022-10-30T14:20:45.0000000+00:00</time></trkpt><trkpt lat="39.46733069" lon="-0.37670754"><ele>-42.6</ele><time>2022-10-30T14:20:46.0000000+00:00</time></trkpt><trkpt lat="39.46733203" lon="-0.37670469"><ele>-42.6</ele><time>2022-10-30T14:20:47.0000000+00:00</time></trkpt><trkpt lat="39.46732893" lon="-0.37670125"><ele>-42.6</ele><time>2022-10-30T14:20:48.0000000+00:00</time></trkpt><trkpt lat="39.46732038" lon="-0.37669974"><ele>-42.6</ele><time>2022-10-30T14:20:49.0000000+00:00</time></trkpt><trkpt lat="39.46730512" lon="-0.37669991"><ele>-42.6</ele><time>2022-10-30T14:20:50.0000000+00:00</time></trkpt><trkpt lat="39.46729481" lon="-0.37669505"><ele>-42.6</ele><time>2022-10-30T14:20:51.0000000+00:00</time></trkpt><trkpt lat="39.4672819" lon="-0.37669078"><ele>-42.6</ele><time>2022-10-30T14:20:52.0000000+00:00</time></trkpt><trkpt lat="39.4672752" lon="-0.37668348"><ele>-42.6</ele><time>2022-10-30T14:20:53.0000000+00:00</time></trkpt><trkpt lat="39.46727201" lon="-0.37667175"><ele>-42.8</ele><time>2022-10-30T14:20:54.0000000+00:00</time></trkpt><trkpt lat="39.46727009" lon="-0.37666203"><ele>-42.8</ele><time>2022-10-30T14:20:55.0000000+00:00</time></trkpt><trkpt lat="39.46726682" lon="-0.37665423"><ele>-42.8</ele><time>2022-10-30T14:20:56.0000000+00:00</time></trkpt><trkpt lat="39.4672612" lon="-0.37664551"><ele>-42.8</ele><time>2022-10-30T14:20:57.0000000+00:00</time></trkpt><trkpt lat="39.46725215" lon="-0.37664191"><ele>-42.8</ele><time>2022-10-30T14:20:58.0000000+00:00</time></trkpt><trkpt lat="39.46724268" lon="-0.37664048"><ele>-42.8</ele><time>2022-10-30T14:20:59.0000000+00:00</time></trkpt><trkpt lat="39.46723463" lon="-0.37663889"><ele>-42.8</ele><time>2022-10-30T14:21:00.0000000+00:00</time></trkpt><trkpt lat="39.46722751" lon="-0.37663956"><ele>-42.8</ele><time>2022-10-30T14:21:01.0000000+00:00</time></trkpt><trkpt lat="39.46722365" lon="-0.37663587"><ele>-42.8</ele><time>2022-10-30T14:21:02.0000000+00:00</time></trkpt><trkpt lat="39.46722155" lon="-0.37663118"><ele>-42.8</ele><time>2022-10-30T14:21:03.0000000+00:00</time></trkpt><trkpt lat="39.46722197" lon="-0.37662908"><ele>-42.8</ele><time>2022-10-30T14:21:04.0000000+00:00</time></trkpt><trkpt lat="39.46722281" lon="-0.37662892"><ele>-43.0</ele><time>2022-10-30T14:21:05.0000000+00:00</time></trkpt><trkpt lat="39.46722273" lon="-0.37663001"><ele>-43.0</ele><time>2022-10-30T14:21:06.0000000+00:00</time></trkpt><trkpt lat="39.46722306" lon="-0.3766295"><ele>-43.0</ele><time>2022-10-30T14:21:07.0000000+00:00</time></trkpt><trkpt lat="39.46721862" lon="-0.3766228"><ele>-43.0</ele><time>2022-10-30T14:21:08.0000000+00:00</time></trkpt><trkpt lat="39.46721158" lon="-0.37661106"><ele>-43.0</ele><time>2022-10-30T14:21:09.0000000+00:00</time></trkpt><trkpt lat="39.46720052" lon="-0.37659396"><ele>-43.0</ele><time>2022-10-30T14:21:10.0000000+00:00</time></trkpt><trkpt lat="39.46719331" lon="-0.3765777"><ele>-43.0</ele><time>2022-10-30T14:21:11.0000000+00:00</time></trkpt><trkpt lat="39.46719054" lon="-0.37656731"><ele>-43.0</ele><time>2022-10-30T14:21:12.0000000+00:00</time></trkpt><trkpt lat="39.46718928" lon="-0.37655004"><ele>-43.0</ele><time>2022-10-30T14:21:13.0000000+00:00</time></trkpt><trkpt lat="39.46718711" lon="-0.37653403"><ele>-43.0</ele><time>2022-10-30T14:21:14.0000000+00:00</time></trkpt><trkpt lat="39.46718819" lon="-0.37651844"><ele>-43.0</ele><time>2022-10-30T14:21:15.0000000+00:00</time></trkpt><trkpt lat="39.46718853" lon="-0.37650621"><ele>-43.0</ele><time>2022-10-30T14:21:16.0000000+00:00</time></trkpt><trkpt lat="39.46718736" lon="-0.37649414"><ele>-43.0</ele><time>2022-10-30T14:21:17.0000000+00:00</time></trkpt><trkpt lat="39.46718501" lon="-0.37648089"><ele>-43.0</ele><time>2022-10-30T14:21:18.0000000+00:00</time></trkpt><trkpt lat="39.46718224" lon="-0.37646664"><ele>-43.0</ele><time>2022-10-30T14:21:19.0000000+00:00</time></trkpt><trkpt lat="39.46718057" lon="-0.37644996"><ele>-43.0</ele><time>2022-10-30T14:21:20.0000000+00:00</time></trkpt><trkpt lat="39.46718048" lon="-0.37643261"><ele>-43.0</ele><time>2022-10-30T14:21:21.0000000+00:00</time></trkpt><trkpt lat="39.46717889" lon="-0.37641426"><ele>-43.0</ele><time>2022-10-30T14:21:22.0000000+00:00</time></trkpt><trkpt lat="39.46717478" lon="-0.37639883"><ele>-43.0</ele><time>2022-10-30T14:21:23.0000000+00:00</time></trkpt><trkpt lat="39.4671747" lon="-0.37638433"><ele>-43.0</ele><time>2022-10-30T14:21:24.0000000+00:00</time></trkpt><trkpt lat="39.46717755" lon="-0.37636874"><ele>-43.0</ele><time>2022-10-30T14:21:25.0000000+00:00</time></trkpt><trkpt lat="39.46717579" lon="-0.37635173"><ele>-43.0</ele><time>2022-10-30T14:21:26.0000000+00:00</time></trkpt><trkpt lat="39.46717235" lon="-0.37633429"><ele>-43.0</ele><time>2022-10-30T14:21:27.0000000+00:00</time></trkpt><trkpt lat="39.46717453" lon="-0.37632155"><ele>-43.0</ele><time>2022-10-30T14:21:28.0000000+00:00</time></trkpt><trkpt lat="39.46717604" lon="-0.37630873"><ele>-43.0</ele><time>2022-10-30T14:21:29.0000000+00:00</time></trkpt><trkpt lat="39.46718015" lon="-0.37629708"><ele>-43.0</ele><time>2022-10-30T14:21:30.0000000+00:00</time></trkpt><trkpt lat="39.46718367" lon="-0.3762835"><ele>-43.0</ele><time>2022-10-30T14:21:31.0000000+00:00</time></trkpt><trkpt lat="39.46718493" lon="-0.37626917"><ele>-43.0</ele><time>2022-10-30T14:21:32.0000000+00:00</time></trkpt><trkpt lat="39.46718526" lon="-0.37625425"><ele>-43.0</ele><time>2022-10-30T14:21:33.0000000+00:00</time></trkpt><trkpt lat="39.46718593" lon="-0.37623975"><ele>-43.0</ele><time>2022-10-30T14:21:34.0000000+00:00</time></trkpt><trkpt lat="39.46718157" lon="-0.37621778"><ele>-43.0</ele><time>2022-10-30T14:21:35.0000000+00:00</time></trkpt><trkpt lat="39.46718006" lon="-0.37619658"><ele>-43.0</ele><time>2022-10-30T14:21:36.0000000+00:00</time></trkpt><trkpt lat="39.46717537" lon="-0.37617755"><ele>-43.0</ele><time>2022-10-30T14:21:37.0000000+00:00</time></trkpt><trkpt lat="39.46716808" lon="-0.37616037"><ele>-43.2</ele><time>2022-10-30T14:21:38.0000000+00:00</time></trkpt><trkpt lat="39.46717177" lon="-0.37614729"><ele>-43.2</ele><time>2022-10-30T14:21:39.0000000+00:00</time></trkpt><trkpt lat="39.46717638" lon="-0.37613036"><ele>-43.2</ele><time>2022-10-30T14:21:40.0000000+00:00</time></trkpt><trkpt lat="39.46717671" lon="-0.37611351"><ele>-43.2</ele><time>2022-10-30T14:21:41.0000000+00:00</time></trkpt><trkpt lat="39.46718015" lon="-0.37609893"><ele>-43.2</ele><time>2022-10-30T14:21:42.0000000+00:00</time></trkpt><trkpt lat="39.46719222" lon="-0.37608602"><ele>-43.2</ele><time>2022-10-30T14:21:43.0000000+00:00</time></trkpt><trkpt lat="39.4671954" lon="-0.37607228"><ele>-43.2</ele><time>2022-10-30T14:21:44.0000000+00:00</time></trkpt><trkpt lat="39.46719876" lon="-0.37605727"><ele>-43.2</ele><time>2022-10-30T14:21:45.0000000+00:00</time></trkpt><trkpt lat="39.46720286" lon="-0.37604051"><ele>-43.4</ele><time>2022-10-30T14:21:46.0000000+00:00</time></trkpt><trkpt lat="39.46720697" lon="-0.37602307"><ele>-43.4</ele><time>2022-10-30T14:21:47.0000000+00:00</time></trkpt><trkpt lat="39.46719809" lon="-0.37601084"><ele>-43.4</ele><time>2022-10-30T14:21:48.0000000+00:00</time></trkpt><trkpt lat="39.46720177" lon="-0.3759882"><ele>-43.4</ele><time>2022-10-30T14:21:49.0000000+00:00</time></trkpt><trkpt lat="39.46719867" lon="-0.37595996"><ele>-43.4</ele><time>2022-10-30T14:21:50.0000000+00:00</time></trkpt><trkpt lat="39.46719817" lon="-0.37593481"><ele>-43.4</ele><time>2022-10-30T14:21:51.0000000+00:00</time></trkpt><trkpt lat="39.46720353" lon="-0.37591151"><ele>-43.4</ele><time>2022-10-30T14:21:52.0000000+00:00</time></trkpt><trkpt lat="39.46720538" lon="-0.37589424"><ele>-43.4</ele><time>2022-10-30T14:21:53.0000000+00:00</time></trkpt><trkpt lat="39.46721351" lon="-0.37587932"><ele>-43.4</ele><time>2022-10-30T14:21:54.0000000+00:00</time></trkpt><trkpt lat="39.46722591" lon="-0.37586868"><ele>-43.4</ele><time>2022-10-30T14:21:55.0000000+00:00</time></trkpt><trkpt lat="39.46723932" lon="-0.37584965"><ele>-43.4</ele><time>2022-10-30T14:21:56.0000000+00:00</time></trkpt><trkpt lat="39.46725047" lon="-0.37583708"><ele>-43.4</ele><time>2022-10-30T14:21:57.0000000+00:00</time></trkpt><trkpt lat="39.46725743" lon="-0.375824"><ele>-43.4</ele><time>2022-10-30T14:21:58.0000000+00:00</time></trkpt><trkpt lat="39.46725617" lon="-0.3758095"><ele>-43.4</ele><time>2022-10-30T14:21:59.0000000+00:00</time></trkpt><trkpt lat="39.46724494" lon="-0.37579492"><ele>-43.4</ele><time>2022-10-30T14:22:00.0000000+00:00</time></trkpt><trkpt lat="39.46724284" lon="-0.37577706"><ele>-43.4</ele><time>2022-10-30T14:22:01.0000000+00:00</time></trkpt><trkpt lat="39.46724419" lon="-0.37575837"><ele>-43.2</ele><time>2022-10-30T14:22:02.0000000+00:00</time></trkpt><trkpt lat="39.46724293" lon="-0.37574337"><ele>-43.2</ele><time>2022-10-30T14:22:03.0000000+00:00</time></trkpt><trkpt lat="39.46724544" lon="-0.37573071"><ele>-43.2</ele><time>2022-10-30T14:22:04.0000000+00:00</time></trkpt><trkpt lat="39.46724502" lon="-0.37571554"><ele>-43.2</ele><time>2022-10-30T14:22:05.0000000+00:00</time></trkpt><trkpt lat="39.46724217" lon="-0.37570247"><ele>-43.2</ele><time>2022-10-30T14:22:06.0000000+00:00</time></trkpt><trkpt lat="39.46723832" lon="-0.37569207"><ele>-43.2</ele><time>2022-10-30T14:22:07.0000000+00:00</time></trkpt><trkpt lat="39.46723815" lon="-0.37567849"><ele>-43.2</ele><time>2022-10-30T14:22:08.0000000+00:00</time></trkpt><trkpt lat="39.46723849" lon="-0.37566232"><ele>-43.2</ele><time>2022-10-30T14:22:09.0000000+00:00</time></trkpt><trkpt lat="39.46724511" lon="-0.37565318"><ele>-43.2</ele><time>2022-10-30T14:22:10.0000000+00:00</time></trkpt><trkpt lat="39.46724502" lon="-0.37563675"><ele>-43.2</ele><time>2022-10-30T14:22:11.0000000+00:00</time></trkpt><trkpt lat="39.46723715" lon="-0.37562309"><ele>-43.2</ele><time>2022-10-30T14:22:12.0000000+00:00</time></trkpt><trkpt lat="39.46721979" lon="-0.37561446"><ele>-43.2</ele><time>2022-10-30T14:22:13.0000000+00:00</time></trkpt><trkpt lat="39.46719557" lon="-0.37560741"><ele>-43.2</ele><time>2022-10-30T14:22:14.0000000+00:00</time></trkpt><trkpt lat="39.46718853" lon="-0.37559677"><ele>-43.2</ele><time>2022-10-30T14:22:15.0000000+00:00</time></trkpt><trkpt lat="39.46718191" lon="-0.3755826"><ele>-43.2</ele><time>2022-10-30T14:22:16.0000000+00:00</time></trkpt><trkpt lat="39.46718426" lon="-0.37556609"><ele>-43.2</ele><time>2022-10-30T14:22:17.0000000+00:00</time></trkpt><trkpt lat="39.46718602" lon="-0.37555092"><ele>-43.2</ele><time>2022-10-30T14:22:18.0000000+00:00</time></trkpt><trkpt lat="39.46718182" lon="-0.37553365"><ele>-43.2</ele><time>2022-10-30T14:22:19.0000000+00:00</time></trkpt><trkpt lat="39.46717889" lon="-0.37551555"><ele>-43.2</ele><time>2022-10-30T14:22:20.0000000+00:00</time></trkpt><trkpt lat="39.46717193" lon="-0.37550423"><ele>-43.2</ele><time>2022-10-30T14:22:21.0000000+00:00</time></trkpt><trkpt lat="39.46716766" lon="-0.37549409"><ele>-43.2</ele><time>2022-10-30T14:22:22.0000000+00:00</time></trkpt><trkpt lat="39.46716196" lon="-0.37548613"><ele>-43.2</ele><time>2022-10-30T14:22:23.0000000+00:00</time></trkpt><trkpt lat="39.46715869" lon="-0.37546836"><ele>-43.2</ele><time>2022-10-30T14:22:24.0000000+00:00</time></trkpt><trkpt lat="39.46715827" lon="-0.37545914"><ele>-43.2</ele><time>2022-10-30T14:22:25.0000000+00:00</time></trkpt><trkpt lat="39.46715701" lon="-0.37544699"><ele>-43.2</ele><time>2022-10-30T14:22:26.0000000+00:00</time></trkpt><trkpt lat="39.46715567" lon="-0.37543424"><ele>-43.2</ele><time>2022-10-30T14:22:27.0000000+00:00</time></trkpt><trkpt lat="39.46716053" lon="-0.37541916"><ele>-43.2</ele><time>2022-10-30T14:22:28.0000000+00:00</time></trkpt><trkpt lat="39.46716506" lon="-0.37539854"><ele>-43.2</ele><time>2022-10-30T14:22:29.0000000+00:00</time></trkpt><trkpt lat="39.46715819" lon="-0.37538161"><ele>-43.4</ele><time>2022-10-30T14:22:30.0000000+00:00</time></trkpt><trkpt lat="39.46717043" lon="-0.37537004"><ele>-43.4</ele><time>2022-10-30T14:22:31.0000000+00:00</time></trkpt><trkpt lat="39.46717772" lon="-0.37535311"><ele>-43.4</ele><time>2022-10-30T14:22:32.0000000+00:00</time></trkpt><trkpt lat="39.46718149" lon="-0.37533425"><ele>-43.4</ele><time>2022-10-30T14:22:33.0000000+00:00</time></trkpt><trkpt lat="39.46718493" lon="-0.37531983"><ele>-43.4</ele><time>2022-10-30T14:22:34.0000000+00:00</time></trkpt><trkpt lat="39.46719205" lon="-0.37530466"><ele>-43.2</ele><time>2022-10-30T14:22:35.0000000+00:00</time></trkpt><trkpt lat="39.46719012" lon="-0.37528957"><ele>-43.2</ele><time>2022-10-30T14:22:36.0000000+00:00</time></trkpt><trkpt lat="39.46718434" lon="-0.37527155"><ele>-43.2</ele><time>2022-10-30T14:22:37.0000000+00:00</time></trkpt><trkpt lat="39.46718769" lon="-0.37525504"><ele>-43.2</ele><time>2022-10-30T14:22:38.0000000+00:00</time></trkpt><trkpt lat="39.46719306" lon="-0.37523962"><ele>-43.0</ele><time>2022-10-30T14:22:39.0000000+00:00</time></trkpt><trkpt lat="39.46719364" lon="-0.37522906"><ele>-42.8</ele><time>2022-10-30T14:22:40.0000000+00:00</time></trkpt><trkpt lat="39.46719892" lon="-0.37522285"><ele>-42.8</ele><time>2022-10-30T14:22:41.0000000+00:00</time></trkpt><trkpt lat="39.46721074" lon="-0.37521238"><ele>-42.8</ele><time>2022-10-30T14:22:42.0000000+00:00</time></trkpt><trkpt lat="39.46722566" lon="-0.37519461"><ele>-42.8</ele><time>2022-10-30T14:22:43.0000000+00:00</time></trkpt><trkpt lat="39.46723186" lon="-0.37518497"><ele>-43.0</ele><time>2022-10-30T14:22:44.0000000+00:00</time></trkpt><trkpt lat="39.46724176" lon="-0.37517726"><ele>-43.2</ele><time>2022-10-30T14:22:45.0000000+00:00</time></trkpt><trkpt lat="39.46724008" lon="-0.37516971"><ele>-43.2</ele><time>2022-10-30T14:22:46.0000000+00:00</time></trkpt><trkpt lat="39.46724209" lon="-0.37515898"><ele>-43.4</ele><time>2022-10-30T14:22:47.0000000+00:00</time></trkpt><trkpt lat="39.4672472" lon="-0.37514515"><ele>-43.4</ele><time>2022-10-30T14:22:48.0000000+00:00</time></trkpt><trkpt lat="39.46724452" lon="-0.37513459"><ele>-43.4</ele><time>2022-10-30T14:22:49.0000000+00:00</time></trkpt><trkpt lat="39.46723698" lon="-0.37512428"><ele>-43.4</ele><time>2022-10-30T14:22:50.0000000+00:00</time></trkpt><trkpt lat="39.46723002" lon="-0.37511188"><ele>-43.4</ele><time>2022-10-30T14:22:51.0000000+00:00</time></trkpt><trkpt lat="39.46724494" lon="-0.37509369"><ele>-43.4</ele><time>2022-10-30T14:22:52.0000000+00:00</time></trkpt><trkpt lat="39.46725357" lon="-0.37508003"><ele>-43.4</ele><time>2022-10-30T14:22:53.0000000+00:00</time></trkpt><trkpt lat="39.46726045" lon="-0.37506552"><ele>-43.2</ele><time>2022-10-30T14:22:54.0000000+00:00</time></trkpt><trkpt lat="39.46726372" lon="-0.37505304"><ele>-43.2</ele><time>2022-10-30T14:22:55.0000000+00:00</time></trkpt><trkpt lat="39.46725844" lon="-0.3750325"><ele>-43.2</ele><time>2022-10-30T14:22:56.0000000+00:00</time></trkpt><trkpt lat="39.46726707" lon="-0.37502077"><ele>-43.2</ele><time>2022-10-30T14:22:57.0000000+00:00</time></trkpt><trkpt lat="39.46727092" lon="-0.37500677"><ele>-43.2</ele><time>2022-10-30T14:22:58.0000000+00:00</time></trkpt><trkpt lat="39.46728224" lon="-0.37498875"><ele>-43.2</ele><time>2022-10-30T14:22:59.0000000+00:00</time></trkpt><trkpt lat="39.46728551" lon="-0.37497433"><ele>-43.2</ele><time>2022-10-30T14:23:00.0000000+00:00</time></trkpt><trkpt lat="39.4672871" lon="-0.37496586"><ele>-43.2</ele><time>2022-10-30T14:23:01.0000000+00:00</time></trkpt><trkpt lat="39.46728459" lon="-0.37495857"><ele>-43.2</ele><time>2022-10-30T14:23:02.0000000+00:00</time></trkpt><trkpt lat="39.46727931" lon="-0.37495027"><ele>-43.2</ele><time>2022-10-30T14:23:03.0000000+00:00</time></trkpt><trkpt lat="39.4672783" lon="-0.37493426"><ele>-43.2</ele><time>2022-10-30T14:23:04.0000000+00:00</time></trkpt><trkpt lat="39.46727076" lon="-0.37492136"><ele>-43.2</ele><time>2022-10-30T14:23:05.0000000+00:00</time></trkpt><trkpt lat="39.46724025" lon="-0.3749263"><ele>-43.2</ele><time>2022-10-30T14:23:06.0000000+00:00</time></trkpt><trkpt lat="39.4672151" lon="-0.37492295"><ele>-43.2</ele><time>2022-10-30T14:23:07.0000000+00:00</time></trkpt><trkpt lat="39.46719138" lon="-0.37490216"><ele>-43.2</ele><time>2022-10-30T14:23:08.0000000+00:00</time></trkpt><trkpt lat="39.4671768" lon="-0.37488557"><ele>-43.2</ele><time>2022-10-30T14:23:09.0000000+00:00</time></trkpt><trkpt lat="39.46716297" lon="-0.37486981"><ele>-43.4</ele><time>2022-10-30T14:23:10.0000000+00:00</time></trkpt><trkpt lat="39.46715483" lon="-0.37485925"><ele>-43.2</ele><time>2022-10-30T14:23:11.0000000+00:00</time></trkpt><trkpt lat="39.46714846" lon="-0.37484575"><ele>-43.2</ele><time>2022-10-30T14:23:12.0000000+00:00</time></trkpt><trkpt lat="39.4671426" lon="-0.37484868"><ele>-43.4</ele><time>2022-10-30T14:23:13.0000000+00:00</time></trkpt><trkpt lat="39.46713824" lon="-0.37484894"><ele>-43.2</ele><time>2022-10-30T14:23:14.0000000+00:00</time></trkpt><trkpt lat="39.46714126" lon="-0.37485522"><ele>-43.2</ele><time>2022-10-30T14:23:15.0000000+00:00</time></trkpt><trkpt lat="39.46714251" lon="-0.37485958"><ele>-43.2</ele><time>2022-10-30T14:23:16.0000000+00:00</time></trkpt><trkpt lat="39.46714503" lon="-0.37486017"><ele>-43.2</ele><time>2022-10-30T14:23:17.0000000+00:00</time></trkpt><trkpt lat="39.46715014" lon="-0.37486168"><ele>-43.2</ele><time>2022-10-30T14:23:18.0000000+00:00</time></trkpt><trkpt lat="39.46715718" lon="-0.37486553"><ele>-43.2</ele><time>2022-10-30T14:23:19.0000000+00:00</time></trkpt><trkpt lat="39.4671602" lon="-0.37486712"><ele>-43.4</ele><time>2022-10-30T14:23:20.0000000+00:00</time></trkpt><trkpt lat="39.46715819" lon="-0.37486947"><ele>-43.4</ele><time>2022-10-30T14:23:21.0000000+00:00</time></trkpt><trkpt lat="39.46715944" lon="-0.37487232"><ele>-43.4</ele><time>2022-10-30T14:23:22.0000000+00:00</time></trkpt><trkpt lat="39.46716229" lon="-0.37486763"><ele>-43.4</ele><time>2022-10-30T14:23:23.0000000+00:00</time></trkpt><trkpt lat="39.46716724" lon="-0.37486344"><ele>-43.4</ele><time>2022-10-30T14:23:24.0000000+00:00</time></trkpt><trkpt lat="39.46717411" lon="-0.37485246"><ele>-43.4</ele><time>2022-10-30T14:23:25.0000000+00:00</time></trkpt><trkpt lat="39.46718895" lon="-0.37483737"><ele>-43.4</ele><time>2022-10-30T14:23:26.0000000+00:00</time></trkpt><trkpt lat="39.46720655" lon="-0.37483075"><ele>-43.4</ele><time>2022-10-30T14:23:27.0000000+00:00</time></trkpt><trkpt lat="39.46722172" lon="-0.37482572"><ele>-43.4</ele><time>2022-10-30T14:23:28.0000000+00:00</time></trkpt><trkpt lat="39.46722751" lon="-0.37482035"><ele>-43.4</ele><time>2022-10-30T14:23:29.0000000+00:00</time></trkpt><trkpt lat="39.46723505" lon="-0.37481013"><ele>-43.4</ele><time>2022-10-30T14:23:30.0000000+00:00</time></trkpt><trkpt lat="39.46723656" lon="-0.37480351"><ele>-43.4</ele><time>2022-10-30T14:23:31.0000000+00:00</time></trkpt><trkpt lat="39.46723974" lon="-0.37479253"><ele>-43.4</ele><time>2022-10-30T14:23:32.0000000+00:00</time></trkpt><trkpt lat="39.46725248" lon="-0.37478657"><ele>-43.4</ele><time>2022-10-30T14:23:33.0000000+00:00</time></trkpt><trkpt lat="39.46726363" lon="-0.37478071"><ele>-43.4</ele><time>2022-10-30T14:23:34.0000000+00:00</time></trkpt><trkpt lat="39.46727721" lon="-0.37476839"><ele>-43.4</ele><time>2022-10-30T14:23:35.0000000+00:00</time></trkpt><trkpt lat="39.46728073" lon="-0.37475707"><ele>-43.4</ele><time>2022-10-30T14:23:36.0000000+00:00</time></trkpt><trkpt lat="39.46728333" lon="-0.37474609"><ele>-43.4</ele><time>2022-10-30T14:23:37.0000000+00:00</time></trkpt><trkpt lat="39.46728953" lon="-0.37474106"><ele>-43.4</ele><time>2022-10-30T14:23:38.0000000+00:00</time></trkpt><trkpt lat="39.46729456" lon="-0.37473679"><ele>-43.4</ele><time>2022-10-30T14:23:39.0000000+00:00</time></trkpt><trkpt lat="39.46730428" lon="-0.37472966"><ele>-43.4</ele><time>2022-10-30T14:23:40.0000000+00:00</time></trkpt><trkpt lat="39.46730529" lon="-0.37472262"><ele>-43.4</ele><time>2022-10-30T14:23:41.0000000+00:00</time></trkpt><trkpt lat="39.46730579" lon="-0.37470812"><ele>-43.6</ele><time>2022-10-30T14:23:42.0000000+00:00</time></trkpt><trkpt lat="39.46730521" lon="-0.37469664"><ele>-43.6</ele><time>2022-10-30T14:23:43.0000000+00:00</time></trkpt><trkpt lat="39.46730454" lon="-0.37468717"><ele>-43.6</ele><time>2022-10-30T14:23:44.0000000+00:00</time></trkpt><trkpt lat="39.46730655" lon="-0.37467593"><ele>-43.6</ele><time>2022-10-30T14:23:45.0000000+00:00</time></trkpt><trkpt lat="39.46731417" lon="-0.37466168"><ele>-43.6</ele><time>2022-10-30T14:23:46.0000000+00:00</time></trkpt><trkpt lat="39.46732298" lon="-0.37465012"><ele>-43.6</ele><time>2022-10-30T14:23:47.0000000+00:00</time></trkpt><trkpt lat="39.46733136" lon="-0.37463469"><ele>-43.6</ele><time>2022-10-30T14:23:48.0000000+00:00</time></trkpt><trkpt lat="39.4673358" lon="-0.37462011"><ele>-43.6</ele><time>2022-10-30T14:23:49.0000000+00:00</time></trkpt><trkpt lat="39.46734334" lon="-0.37460603"><ele>-43.6</ele><time>2022-10-30T14:23:50.0000000+00:00</time></trkpt><trkpt lat="39.46735072" lon="-0.37459463"><ele>-43.6</ele><time>2022-10-30T14:23:51.0000000+00:00</time></trkpt><trkpt lat="39.46736346" lon="-0.37458692"><ele>-43.6</ele><time>2022-10-30T14:23:52.0000000+00:00</time></trkpt><trkpt lat="39.46737545" lon="-0.37458063"><ele>-43.6</ele><time>2022-10-30T14:23:53.0000000+00:00</time></trkpt><trkpt lat="39.4673876" lon="-0.37457049"><ele>-43.6</ele><time>2022-10-30T14:23:54.0000000+00:00</time></trkpt><trkpt lat="39.46739171" lon="-0.37456269"><ele>-43.6</ele><time>2022-10-30T14:23:55.0000000+00:00</time></trkpt><trkpt lat="39.46739959" lon="-0.37456286"><ele>-43.6</ele><time>2022-10-30T14:23:56.0000000+00:00</time></trkpt><trkpt lat="39.46740881" lon="-0.37456429"><ele>-43.6</ele><time>2022-10-30T14:23:57.0000000+00:00</time></trkpt><trkpt lat="39.46741258" lon="-0.37456722"><ele>-43.6</ele><time>2022-10-30T14:23:58.0000000+00:00</time></trkpt><trkpt lat="39.4674114" lon="-0.37455331"><ele>-43.6</ele><time>2022-10-30T14:23:59.0000000+00:00</time></trkpt><trkpt lat="39.46741266" lon="-0.3745487"><ele>-43.6</ele><time>2022-10-30T14:24:00.0000000+00:00</time></trkpt><trkpt lat="39.46741442" lon="-0.3745399"><ele>-43.6</ele><time>2022-10-30T14:24:01.0000000+00:00</time></trkpt><trkpt lat="39.46742163" lon="-0.37452875"><ele>-43.6</ele><time>2022-10-30T14:24:02.0000000+00:00</time></trkpt><trkpt lat="39.46743043" lon="-0.3745145"><ele>-43.8</ele><time>2022-10-30T14:24:03.0000000+00:00</time></trkpt><trkpt lat="39.46743756" lon="-0.37450075"><ele>-43.8</ele><time>2022-10-30T14:24:04.0000000+00:00</time></trkpt><trkpt lat="39.4674446" lon="-0.37448256"><ele>-43.8</ele><time>2022-10-30T14:24:05.0000000+00:00</time></trkpt><trkpt lat="39.46745248" lon="-0.37445448"><ele>-43.8</ele><time>2022-10-30T14:24:06.0000000+00:00</time></trkpt><trkpt lat="39.46746312" lon="-0.37443479"><ele>-43.8</ele><time>2022-10-30T14:24:07.0000000+00:00</time></trkpt><trkpt lat="39.46747519" lon="-0.37441031"><ele>-43.8</ele><time>2022-10-30T14:24:08.0000000+00:00</time></trkpt><trkpt lat="39.46748341" lon="-0.37438072"><ele>-43.6</ele><time>2022-10-30T14:24:09.0000000+00:00</time></trkpt><trkpt lat="39.46749321" lon="-0.37436597"><ele>-43.6</ele><time>2022-10-30T14:24:10.0000000+00:00</time></trkpt><trkpt lat="39.46750302" lon="-0.37435046"><ele>-43.6</ele><time>2022-10-30T14:24:11.0000000+00:00</time></trkpt><trkpt lat="39.46750864" lon="-0.37434552"><ele>-43.6</ele><time>2022-10-30T14:24:12.0000000+00:00</time></trkpt><trkpt lat="39.46752138" lon="-0.37433001"><ele>-43.6</ele><time>2022-10-30T14:24:13.0000000+00:00</time></trkpt><trkpt lat="39.46752934" lon="-0.37431551"><ele>-43.6</ele><time>2022-10-30T14:24:14.0000000+00:00</time></trkpt><trkpt lat="39.46754158" lon="-0.37429632"><ele>-43.6</ele><time>2022-10-30T14:24:15.0000000+00:00</time></trkpt><trkpt lat="39.46755331" lon="-0.37428643"><ele>-43.6</ele><time>2022-10-30T14:24:16.0000000+00:00</time></trkpt><trkpt lat="39.4675637" lon="-0.37427209"><ele>-43.6</ele><time>2022-10-30T14:24:17.0000000+00:00</time></trkpt><trkpt lat="39.46757519" lon="-0.37426556"><ele>-43.6</ele><time>2022-10-30T14:24:18.0000000+00:00</time></trkpt><trkpt lat="39.46758499" lon="-0.37426321"><ele>-43.6</ele><time>2022-10-30T14:24:19.0000000+00:00</time></trkpt><trkpt lat="39.46759849" lon="-0.3742581"><ele>-43.6</ele><time>2022-10-30T14:24:20.0000000+00:00</time></trkpt><trkpt lat="39.46760838" lon="-0.37425282"><ele>-43.6</ele><time>2022-10-30T14:24:21.0000000+00:00</time></trkpt><trkpt lat="39.46761911" lon="-0.37425022"><ele>-43.6</ele><time>2022-10-30T14:24:22.0000000+00:00</time></trkpt><trkpt lat="39.46762657" lon="-0.37424259"><ele>-43.6</ele><time>2022-10-30T14:24:23.0000000+00:00</time></trkpt><trkpt lat="39.46763503" lon="-0.37423387"><ele>-43.6</ele><time>2022-10-30T14:24:24.0000000+00:00</time></trkpt><trkpt lat="39.46764425" lon="-0.3742265"><ele>-43.6</ele><time>2022-10-30T14:24:25.0000000+00:00</time></trkpt><trkpt lat="39.46765079" lon="-0.37420663"><ele>-43.6</ele><time>2022-10-30T14:24:26.0000000+00:00</time></trkpt><trkpt lat="39.4676518" lon="-0.37420345"><ele>-43.6</ele><time>2022-10-30T14:24:27.0000000+00:00</time></trkpt><trkpt lat="39.46765306" lon="-0.37420529"><ele>-43.6</ele><time>2022-10-30T14:24:28.0000000+00:00</time></trkpt><trkpt lat="39.46765968" lon="-0.37419314"><ele>-43.8</ele><time>2022-10-30T14:24:29.0000000+00:00</time></trkpt><trkpt lat="39.46767041" lon="-0.37417914"><ele>-43.8</ele><time>2022-10-30T14:24:30.0000000+00:00</time></trkpt><trkpt lat="39.4676808" lon="-0.37416615"><ele>-43.8</ele><time>2022-10-30T14:24:31.0000000+00:00</time></trkpt><trkpt lat="39.46769522" lon="-0.37415667"><ele>-43.6</ele><time>2022-10-30T14:24:32.0000000+00:00</time></trkpt><trkpt lat="39.46770712" lon="-0.37414284"><ele>-43.6</ele><time>2022-10-30T14:24:33.0000000+00:00</time></trkpt><trkpt lat="39.4677155" lon="-0.37412281"><ele>-43.8</ele><time>2022-10-30T14:24:34.0000000+00:00</time></trkpt><trkpt lat="39.46772724" lon="-0.37410026"><ele>-43.8</ele><time>2022-10-30T14:24:35.0000000+00:00</time></trkpt><trkpt lat="39.4677383" lon="-0.37407797"><ele>-43.8</ele><time>2022-10-30T14:24:36.0000000+00:00</time></trkpt><trkpt lat="39.46774827" lon="-0.37406422"><ele>-43.8</ele><time>2022-10-30T14:24:37.0000000+00:00</time></trkpt><trkpt lat="39.46775431" lon="-0.37405333"><ele>-43.8</ele><time>2022-10-30T14:24:38.0000000+00:00</time></trkpt><trkpt lat="39.46775833" lon="-0.37404293"><ele>-43.8</ele><time>2022-10-30T14:24:39.0000000+00:00</time></trkpt><trkpt lat="39.46776579" lon="-0.37406196"><ele>-43.8</ele><time>2022-10-30T14:24:40.0000000+00:00</time></trkpt><trkpt lat="39.46777334" lon="-0.37405567"><ele>-43.8</ele><time>2022-10-30T14:24:41.0000000+00:00</time></trkpt><trkpt lat="39.46778339" lon="-0.37404629"><ele>-43.8</ele><time>2022-10-30T14:24:42.0000000+00:00</time></trkpt><trkpt lat="39.46779563" lon="-0.37404218"><ele>-43.8</ele><time>2022-10-30T14:24:43.0000000+00:00</time></trkpt><trkpt lat="39.46780108" lon="-0.37404142"><ele>-43.8</ele><time>2022-10-30T14:24:44.0000000+00:00</time></trkpt><trkpt lat="39.46780091" lon="-0.37403732"><ele>-43.8</ele><time>2022-10-30T14:24:45.0000000+00:00</time></trkpt><trkpt lat="39.46780644" lon="-0.37402667"><ele>-43.8</ele><time>2022-10-30T14:24:46.0000000+00:00</time></trkpt><trkpt lat="39.46781198" lon="-0.37400505"><ele>-43.8</ele><time>2022-10-30T14:24:47.0000000+00:00</time></trkpt><trkpt lat="39.46781223" lon="-0.37399943"><ele>-43.8</ele><time>2022-10-30T14:24:48.0000000+00:00</time></trkpt><trkpt lat="39.46781382" lon="-0.37398418"><ele>-43.8</ele><time>2022-10-30T14:24:49.0000000+00:00</time></trkpt><trkpt lat="39.46781558" lon="-0.37398501"><ele>-43.8</ele><time>2022-10-30T14:24:50.0000000+00:00</time></trkpt><trkpt lat="39.46781508" lon="-0.37398728"><ele>-43.8</ele><time>2022-10-30T14:24:51.0000000+00:00</time></trkpt><trkpt lat="39.46781449" lon="-0.37398694"><ele>-43.8</ele><time>2022-10-30T14:24:52.0000000+00:00</time></trkpt><trkpt lat="39.46781851" lon="-0.37397236"><ele>-43.8</ele><time>2022-10-30T14:24:53.0000000+00:00</time></trkpt><trkpt lat="39.46781851" lon="-0.37397328"><ele>-43.8</ele><time>2022-10-30T14:24:54.0000000+00:00</time></trkpt><trkpt lat="39.46782497" lon="-0.3739514"><ele>-44.0</ele><time>2022-10-30T14:24:55.0000000+00:00</time></trkpt><trkpt lat="39.46782832" lon="-0.37393749"><ele>-44.0</ele><time>2022-10-30T14:24:56.0000000+00:00</time></trkpt><trkpt lat="39.4678279" lon="-0.37393858"><ele>-44.0</ele><time>2022-10-30T14:24:57.0000000+00:00</time></trkpt><trkpt lat="39.46782966" lon="-0.37393631"><ele>-44.0</ele><time>2022-10-30T14:24:58.0000000+00:00</time></trkpt><trkpt lat="39.46783679" lon="-0.3739359"><ele>-44.0</ele><time>2022-10-30T14:24:59.0000000+00:00</time></trkpt><trkpt lat="39.46784316" lon="-0.37393414"><ele>-44.0</ele><time>2022-10-30T14:25:00.0000000+00:00</time></trkpt><trkpt lat="39.46785028" lon="-0.37393464"><ele>-44.0</ele><time>2022-10-30T14:25:01.0000000+00:00</time></trkpt><trkpt lat="39.46785967" lon="-0.37393405"><ele>-44.0</ele><time>2022-10-30T14:25:02.0000000+00:00</time></trkpt><trkpt lat="39.4678709" lon="-0.37393799"><ele>-44.0</ele><time>2022-10-30T14:25:03.0000000+00:00</time></trkpt><trkpt lat="39.46787543" lon="-0.37393522"><ele>-44.0</ele><time>2022-10-30T14:25:04.0000000+00:00</time></trkpt><trkpt lat="39.46787853" lon="-0.37393422"><ele>-44.0</ele><time>2022-10-30T14:25:05.0000000+00:00</time></trkpt><trkpt lat="39.46788054" lon="-0.37393631"><ele>-44.0</ele><time>2022-10-30T14:25:06.0000000+00:00</time></trkpt><trkpt lat="39.46788792" lon="-0.37393095"><ele>-44.0</ele><time>2022-10-30T14:25:07.0000000+00:00</time></trkpt><trkpt lat="39.46789605" lon="-0.37392626"><ele>-44.0</ele><time>2022-10-30T14:25:08.0000000+00:00</time></trkpt><trkpt lat="39.46790543" lon="-0.37392022"><ele>-44.0</ele><time>2022-10-30T14:25:09.0000000+00:00</time></trkpt><trkpt lat="39.46791398" lon="-0.3739157"><ele>-44.0</ele><time>2022-10-30T14:25:10.0000000+00:00</time></trkpt><trkpt lat="39.46792429" lon="-0.37390874"><ele>-44.0</ele><time>2022-10-30T14:25:11.0000000+00:00</time></trkpt><trkpt lat="39.46792966" lon="-0.37390891"><ele>-44.0</ele><time>2022-10-30T14:25:12.0000000+00:00</time></trkpt><trkpt lat="39.46794047" lon="-0.37389566"><ele>-43.8</ele><time>2022-10-30T14:25:13.0000000+00:00</time></trkpt><trkpt lat="39.46795447" lon="-0.37387689"><ele>-43.8</ele><time>2022-10-30T14:25:14.0000000+00:00</time></trkpt><trkpt lat="39.46796587" lon="-0.37385115"><ele>-43.8</ele><time>2022-10-30T14:25:15.0000000+00:00</time></trkpt><trkpt lat="39.46797098" lon="-0.37382601"><ele>-43.8</ele><time>2022-10-30T14:25:16.0000000+00:00</time></trkpt><trkpt lat="39.46797576" lon="-0.37381318"><ele>-43.8</ele><time>2022-10-30T14:25:17.0000000+00:00</time></trkpt><trkpt lat="39.46798347" lon="-0.3737981"><ele>-44.0</ele><time>2022-10-30T14:25:18.0000000+00:00</time></trkpt><trkpt lat="39.46798749" lon="-0.37379148"><ele>-44.0</ele><time>2022-10-30T14:25:19.0000000+00:00</time></trkpt><trkpt lat="39.46799051" lon="-0.37378846"><ele>-43.8</ele><time>2022-10-30T14:25:20.0000000+00:00</time></trkpt><trkpt lat="39.4679916" lon="-0.37378871"><ele>-43.8</ele><time>2022-10-30T14:25:21.0000000+00:00</time></trkpt><trkpt lat="39.46799546" lon="-0.37377848"><ele>-43.8</ele><time>2022-10-30T14:25:22.0000000+00:00</time></trkpt><trkpt lat="39.4679978" lon="-0.37377899"><ele>-43.8</ele><time>2022-10-30T14:25:23.0000000+00:00</time></trkpt><trkpt lat="39.46800191" lon="-0.37378033"><ele>-43.8</ele><time>2022-10-30T14:25:24.0000000+00:00</time></trkpt><trkpt lat="39.46801331" lon="-0.37377991"><ele>-43.8</ele><time>2022-10-30T14:25:25.0000000+00:00</time></trkpt><trkpt lat="39.46802882" lon="-0.37378075"><ele>-43.8</ele><time>2022-10-30T14:25:26.0000000+00:00</time></trkpt><trkpt lat="39.4680382" lon="-0.37376977"><ele>-43.8</ele><time>2022-10-30T14:25:27.0000000+00:00</time></trkpt><trkpt lat="39.46804273" lon="-0.37376826"><ele>-43.8</ele><time>2022-10-30T14:25:28.0000000+00:00</time></trkpt><trkpt lat="39.46805078" lon="-0.37375988"><ele>-43.8</ele><time>2022-10-30T14:25:29.0000000+00:00</time></trkpt><trkpt lat="39.46805589" lon="-0.37375216"><ele>-43.8</ele><time>2022-10-30T14:25:30.0000000+00:00</time></trkpt><trkpt lat="39.46807089" lon="-0.37373783"><ele>-43.8</ele><time>2022-10-30T14:25:31.0000000+00:00</time></trkpt><trkpt lat="39.46807911" lon="-0.37371461"><ele>-43.8</ele><time>2022-10-30T14:25:32.0000000+00:00</time></trkpt><trkpt lat="39.46808858" lon="-0.37369391"><ele>-43.8</ele><time>2022-10-30T14:25:33.0000000+00:00</time></trkpt><trkpt lat="39.46809922" lon="-0.37367606"><ele>-43.8</ele><time>2022-10-30T14:25:34.0000000+00:00</time></trkpt><trkpt lat="39.46810501" lon="-0.37367304"><ele>-43.8</ele><time>2022-10-30T14:25:35.0000000+00:00</time></trkpt><trkpt lat="39.46811004" lon="-0.3736717"><ele>-43.8</ele><time>2022-10-30T14:25:36.0000000+00:00</time></trkpt><trkpt lat="39.46811372" lon="-0.37365988"><ele>-43.8</ele><time>2022-10-30T14:25:37.0000000+00:00</time></trkpt><trkpt lat="39.46811842" lon="-0.37364622"><ele>-43.8</ele><time>2022-10-30T14:25:38.0000000+00:00</time></trkpt><trkpt lat="39.46811716" lon="-0.37364588"><ele>-43.8</ele><time>2022-10-30T14:25:39.0000000+00:00</time></trkpt><trkpt lat="39.46812571" lon="-0.37362669"><ele>-43.6</ele><time>2022-10-30T14:25:40.0000000+00:00</time></trkpt><trkpt lat="39.46813334" lon="-0.3736095"><ele>-43.6</ele><time>2022-10-30T14:25:41.0000000+00:00</time></trkpt><trkpt lat="39.4681413" lon="-0.37358495"><ele>-43.6</ele><time>2022-10-30T14:25:42.0000000+00:00</time></trkpt><trkpt lat="39.46814616" lon="-0.37355821"><ele>-43.6</ele><time>2022-10-30T14:25:43.0000000+00:00</time></trkpt><trkpt lat="39.46815924" lon="-0.3735515"><ele>-43.4</ele><time>2022-10-30T14:25:44.0000000+00:00</time></trkpt><trkpt lat="39.46816527" lon="-0.37352761"><ele>-43.2</ele><time>2022-10-30T14:25:45.0000000+00:00</time></trkpt><trkpt lat="39.4681729" lon="-0.37350255"><ele>-43.2</ele><time>2022-10-30T14:25:46.0000000+00:00</time></trkpt><trkpt lat="39.46818095" lon="-0.37348554"><ele>-43.2</ele><time>2022-10-30T14:25:47.0000000+00:00</time></trkpt><trkpt lat="39.4681905" lon="-0.37346793"><ele>-43.2</ele><time>2022-10-30T14:25:48.0000000+00:00</time></trkpt><trkpt lat="39.46820509" lon="-0.3734505"><ele>-43.2</ele><time>2022-10-30T14:25:49.0000000+00:00</time></trkpt><trkpt lat="39.46822219" lon="-0.37342535"><ele>-43.2</ele><time>2022-10-30T14:25:50.0000000+00:00</time></trkpt><trkpt lat="39.46823359" lon="-0.37341194"><ele>-43.2</ele><time>2022-10-30T14:25:51.0000000+00:00</time></trkpt><trkpt lat="39.4682397" lon="-0.37340247"><ele>-43.2</ele><time>2022-10-30T14:25:52.0000000+00:00</time></trkpt><trkpt lat="39.46824985" lon="-0.37339359"><ele>-43.4</ele><time>2022-10-30T14:25:53.0000000+00:00</time></trkpt><trkpt lat="39.46825865" lon="-0.37339333"><ele>-43.6</ele><time>2022-10-30T14:25:54.0000000+00:00</time></trkpt><trkpt lat="39.46827206" lon="-0.37340599"><ele>-43.6</ele><time>2022-10-30T14:25:55.0000000+00:00</time></trkpt><trkpt lat="39.46827767" lon="-0.37340943"><ele>-43.8</ele><time>2022-10-30T14:25:56.0000000+00:00</time></trkpt><trkpt lat="39.46828354" lon="-0.37341027"><ele>-43.8</ele><time>2022-10-30T14:25:57.0000000+00:00</time></trkpt><trkpt lat="39.46829503" lon="-0.37340012"><ele>-43.8</ele><time>2022-10-30T14:25:58.0000000+00:00</time></trkpt><trkpt lat="39.46830559" lon="-0.37339753"><ele>-43.8</ele><time>2022-10-30T14:25:59.0000000+00:00</time></trkpt><trkpt lat="39.46831824" lon="-0.37338772"><ele>-43.8</ele><time>2022-10-30T14:26:00.0000000+00:00</time></trkpt><trkpt lat="39.46832964" lon="-0.37337557"><ele>-43.8</ele><time>2022-10-30T14:26:01.0000000+00:00</time></trkpt><trkpt lat="39.46834029" lon="-0.37335612"><ele>-43.8</ele><time>2022-10-30T14:26:02.0000000+00:00</time></trkpt><trkpt lat="39.46835504" lon="-0.37333123"><ele>-43.8</ele><time>2022-10-30T14:26:03.0000000+00:00</time></trkpt><trkpt lat="39.46836711" lon="-0.37331027"><ele>-43.8</ele><time>2022-10-30T14:26:04.0000000+00:00</time></trkpt><trkpt lat="39.46837524" lon="-0.37329057"><ele>-43.8</ele><time>2022-10-30T14:26:05.0000000+00:00</time></trkpt><trkpt lat="39.46838169" lon="-0.37328588"><ele>-43.8</ele><time>2022-10-30T14:26:06.0000000+00:00</time></trkpt><trkpt lat="39.46839217" lon="-0.37327926"><ele>-43.8</ele><time>2022-10-30T14:26:07.0000000+00:00</time></trkpt><trkpt lat="39.4683941" lon="-0.37326157"><ele>-43.8</ele><time>2022-10-30T14:26:08.0000000+00:00</time></trkpt><trkpt lat="39.46839946" lon="-0.37325529"><ele>-43.8</ele><time>2022-10-30T14:26:09.0000000+00:00</time></trkpt><trkpt lat="39.46840365" lon="-0.3732407"><ele>-43.8</ele><time>2022-10-30T14:26:10.0000000+00:00</time></trkpt><trkpt lat="39.46841002" lon="-0.37321338"><ele>-43.8</ele><time>2022-10-30T14:26:11.0000000+00:00</time></trkpt><trkpt lat="39.46841933" lon="-0.37320382"><ele>-43.8</ele><time>2022-10-30T14:26:12.0000000+00:00</time></trkpt><trkpt lat="39.46843182" lon="-0.37320675"><ele>-44.0</ele><time>2022-10-30T14:26:13.0000000+00:00</time></trkpt><trkpt lat="39.46844649" lon="-0.37319787"><ele>-44.0</ele><time>2022-10-30T14:26:14.0000000+00:00</time></trkpt><trkpt lat="39.46845017" lon="-0.37317432"><ele>-44.0</ele><time>2022-10-30T14:26:15.0000000+00:00</time></trkpt><trkpt lat="39.46845193" lon="-0.37316233"><ele>-44.0</ele><time>2022-10-30T14:26:16.0000000+00:00</time></trkpt><trkpt lat="39.46845654" lon="-0.37314531"><ele>-44.0</ele><time>2022-10-30T14:26:17.0000000+00:00</time></trkpt><trkpt lat="39.46846602" lon="-0.37312863"><ele>-44.0</ele><time>2022-10-30T14:26:18.0000000+00:00</time></trkpt><trkpt lat="39.46847415" lon="-0.37311179"><ele>-44.0</ele><time>2022-10-30T14:26:19.0000000+00:00</time></trkpt><trkpt lat="39.46848169" lon="-0.37310332"><ele>-44.0</ele><time>2022-10-30T14:26:20.0000000+00:00</time></trkpt><trkpt lat="39.46849083" lon="-0.37309268"><ele>-44.0</ele><time>2022-10-30T14:26:21.0000000+00:00</time></trkpt><trkpt lat="39.46849871" lon="-0.37307357"><ele>-44.0</ele><time>2022-10-30T14:26:22.0000000+00:00</time></trkpt><trkpt lat="39.46850415" lon="-0.37305621"><ele>-44.0</ele><time>2022-10-30T14:26:23.0000000+00:00</time></trkpt><trkpt lat="39.46850759" lon="-0.37305563"><ele>-44.0</ele><time>2022-10-30T14:26:24.0000000+00:00</time></trkpt><trkpt lat="39.46850474" lon="-0.37305018"><ele>-44.0</ele><time>2022-10-30T14:26:25.0000000+00:00</time></trkpt><trkpt lat="39.46850642" lon="-0.37303199"><ele>-44.0</ele><time>2022-10-30T14:26:26.0000000+00:00</time></trkpt><trkpt lat="39.46850977" lon="-0.37302218"><ele>-44.0</ele><time>2022-10-30T14:26:27.0000000+00:00</time></trkpt><trkpt lat="39.4685096" lon="-0.37301422"><ele>-44.0</ele><time>2022-10-30T14:26:28.0000000+00:00</time></trkpt><trkpt lat="39.46851002" lon="-0.37300617"><ele>-44.0</ele><time>2022-10-30T14:26:29.0000000+00:00</time></trkpt><trkpt lat="39.46851094" lon="-0.37299184"><ele>-44.0</ele><time>2022-10-30T14:26:30.0000000+00:00</time></trkpt><trkpt lat="39.46851002" lon="-0.37299092"><ele>-43.8</ele><time>2022-10-30T14:26:31.0000000+00:00</time></trkpt><trkpt lat="39.46850088" lon="-0.37299754"><ele>-43.8</ele><time>2022-10-30T14:26:32.0000000+00:00</time></trkpt><trkpt lat="39.46849611" lon="-0.37300617"><ele>-43.8</ele><time>2022-10-30T14:26:33.0000000+00:00</time></trkpt><trkpt lat="39.46849426" lon="-0.37299821"><ele>-43.8</ele><time>2022-10-30T14:26:34.0000000+00:00</time></trkpt><trkpt lat="39.46849803" lon="-0.37298514"><ele>-44.0</ele><time>2022-10-30T14:26:35.0000000+00:00</time></trkpt><trkpt lat="39.46850566" lon="-0.3729708"><ele>-43.8</ele><time>2022-10-30T14:26:36.0000000+00:00</time></trkpt><trkpt lat="39.46850717" lon="-0.37295555"><ele>-44.0</ele><time>2022-10-30T14:26:37.0000000+00:00</time></trkpt><trkpt lat="39.46850985" lon="-0.3729532"><ele>-44.0</ele><time>2022-10-30T14:26:38.0000000+00:00</time></trkpt><trkpt lat="39.4685096" lon="-0.37293803"><ele>-44.0</ele><time>2022-10-30T14:26:39.0000000+00:00</time></trkpt><trkpt lat="39.46851295" lon="-0.37291582"><ele>-44.0</ele><time>2022-10-30T14:26:40.0000000+00:00</time></trkpt><trkpt lat="39.46851798" lon="-0.37287852"><ele>-44.0</ele><time>2022-10-30T14:26:41.0000000+00:00</time></trkpt><trkpt lat="39.46852469" lon="-0.37283443"><ele>-44.0</ele><time>2022-10-30T14:26:42.0000000+00:00</time></trkpt><trkpt lat="39.46853299" lon="-0.37279839"><ele>-44.0</ele><time>2022-10-30T14:26:43.0000000+00:00</time></trkpt><trkpt lat="39.46853701" lon="-0.37277224"><ele>-43.8</ele><time>2022-10-30T14:26:44.0000000+00:00</time></trkpt><trkpt lat="39.46853944" lon="-0.37275128"><ele>-43.8</ele><time>2022-10-30T14:26:45.0000000+00:00</time></trkpt><trkpt lat="39.46854799" lon="-0.3727232"><ele>-44.0</ele><time>2022-10-30T14:26:46.0000000+00:00</time></trkpt><trkpt lat="39.46856274" lon="-0.37269881"><ele>-44.0</ele><time>2022-10-30T14:26:47.0000000+00:00</time></trkpt><trkpt lat="39.46857448" lon="-0.37267719"><ele>-44.0</ele><time>2022-10-30T14:26:48.0000000+00:00</time></trkpt><trkpt lat="39.46858697" lon="-0.37265657"><ele>-44.0</ele><time>2022-10-30T14:26:49.0000000+00:00</time></trkpt><trkpt lat="39.4685987" lon="-0.37263452"><ele>-44.0</ele><time>2022-10-30T14:26:50.0000000+00:00</time></trkpt><trkpt lat="39.4686034" lon="-0.37261918"><ele>-44.0</ele><time>2022-10-30T14:26:51.0000000+00:00</time></trkpt><trkpt lat="39.46860943" lon="-0.37260049"><ele>-44.0</ele><time>2022-10-30T14:26:52.0000000+00:00</time></trkpt><trkpt lat="39.46861723" lon="-0.37258649"><ele>-44.0</ele><time>2022-10-30T14:26:53.0000000+00:00</time></trkpt><trkpt lat="39.46861748" lon="-0.3725668"><ele>-44.0</ele><time>2022-10-30T14:26:54.0000000+00:00</time></trkpt><trkpt lat="39.46862343" lon="-0.37255104"><ele>-44.0</ele><time>2022-10-30T14:26:55.0000000+00:00</time></trkpt><trkpt lat="39.46862913" lon="-0.37254567"><ele>-44.0</ele><time>2022-10-30T14:26:56.0000000+00:00</time></trkpt><trkpt lat="39.46863139" lon="-0.3725305"><ele>-44.0</ele><time>2022-10-30T14:26:57.0000000+00:00</time></trkpt><trkpt lat="39.46864572" lon="-0.37253662"><ele>-44.0</ele><time>2022-10-30T14:26:58.0000000+00:00</time></trkpt><trkpt lat="39.46865092" lon="-0.37252799"><ele>-44.0</ele><time>2022-10-30T14:26:59.0000000+00:00</time></trkpt><trkpt lat="39.46865469" lon="-0.3725181"><ele>-44.0</ele><time>2022-10-30T14:27:00.0000000+00:00</time></trkpt><trkpt lat="39.46865427" lon="-0.3725015"><ele>-44.0</ele><time>2022-10-30T14:27:01.0000000+00:00</time></trkpt><trkpt lat="39.46866475" lon="-0.37248708"><ele>-44.0</ele><time>2022-10-30T14:27:02.0000000+00:00</time></trkpt><trkpt lat="39.46868277" lon="-0.37247979"><ele>-44.0</ele><time>2022-10-30T14:27:03.0000000+00:00</time></trkpt><trkpt lat="39.46868856" lon="-0.37246889"><ele>-44.0</ele><time>2022-10-30T14:27:04.0000000+00:00</time></trkpt><trkpt lat="39.46870389" lon="-0.3724585"><ele>-44.0</ele><time>2022-10-30T14:27:05.0000000+00:00</time></trkpt><trkpt lat="39.46871404" lon="-0.37244643"><ele>-44.0</ele><time>2022-10-30T14:27:06.0000000+00:00</time></trkpt><trkpt lat="39.46872351" lon="-0.37243344"><ele>-44.0</ele><time>2022-10-30T14:27:07.0000000+00:00</time></trkpt><trkpt lat="39.46873575" lon="-0.37242212"><ele>-44.0</ele><time>2022-10-30T14:27:08.0000000+00:00</time></trkpt><trkpt lat="39.46874891" lon="-0.37240737"><ele>-44.0</ele><time>2022-10-30T14:27:09.0000000+00:00</time></trkpt><trkpt lat="39.46875754" lon="-0.37239027"><ele>-44.0</ele><time>2022-10-30T14:27:10.0000000+00:00</time></trkpt><trkpt lat="39.46875494" lon="-0.37236714"><ele>-44.0</ele><time>2022-10-30T14:27:11.0000000+00:00</time></trkpt><trkpt lat="39.46875142" lon="-0.37234442"><ele>-44.0</ele><time>2022-10-30T14:27:12.0000000+00:00</time></trkpt><trkpt lat="39.46875553" lon="-0.37233118"><ele>-44.0</ele><time>2022-10-30T14:27:13.0000000+00:00</time></trkpt><trkpt lat="39.46875603" lon="-0.37232129"><ele>-44.0</ele><time>2022-10-30T14:27:14.0000000+00:00</time></trkpt><trkpt lat="39.46875452" lon="-0.37230771"><ele>-44.0</ele><time>2022-10-30T14:27:15.0000000+00:00</time></trkpt><trkpt lat="39.46875771" lon="-0.3723057"><ele>-44.0</ele><time>2022-10-30T14:27:16.0000000+00:00</time></trkpt><trkpt lat="39.46875989" lon="-0.37229229"><ele>-44.0</ele><time>2022-10-30T14:27:17.0000000+00:00</time></trkpt><trkpt lat="39.4687629" lon="-0.37227972"><ele>-44.0</ele><time>2022-10-30T14:27:18.0000000+00:00</time></trkpt><trkpt lat="39.46877095" lon="-0.37226765"><ele>-44.0</ele><time>2022-10-30T14:27:19.0000000+00:00</time></trkpt><trkpt lat="39.46878411" lon="-0.37225457"><ele>-44.0</ele><time>2022-10-30T14:27:20.0000000+00:00</time></trkpt><trkpt lat="39.46879869" lon="-0.37224627"><ele>-44.0</ele><time>2022-10-30T14:27:21.0000000+00:00</time></trkpt><trkpt lat="39.46879618" lon="-0.37223504"><ele>-44.0</ele><time>2022-10-30T14:27:22.0000000+00:00</time></trkpt><trkpt lat="39.4687997" lon="-0.37222406"><ele>-44.0</ele><time>2022-10-30T14:27:23.0000000+00:00</time></trkpt><trkpt lat="39.46879962" lon="-0.37221484"><ele>-44.0</ele><time>2022-10-30T14:27:24.0000000+00:00</time></trkpt><trkpt lat="39.46880464" lon="-0.3722083"><ele>-44.0</ele><time>2022-10-30T14:27:25.0000000+00:00</time></trkpt><trkpt lat="39.46880448" lon="-0.37219749"><ele>-44.0</ele><time>2022-10-30T14:27:26.0000000+00:00</time></trkpt><trkpt lat="39.46880146" lon="-0.37218659"><ele>-44.0</ele><time>2022-10-30T14:27:27.0000000+00:00</time></trkpt><trkpt lat="39.46880071" lon="-0.37218098"><ele>-44.0</ele><time>2022-10-30T14:27:28.0000000+00:00</time></trkpt><trkpt lat="39.4688002" lon="-0.37217737"><ele>-44.0</ele><time>2022-10-30T14:27:29.0000000+00:00</time></trkpt><trkpt lat="39.46882342" lon="-0.37216941"><ele>-44.0</ele><time>2022-10-30T14:27:30.0000000+00:00</time></trkpt><trkpt lat="39.46884697" lon="-0.37216061"><ele>-44.0</ele><time>2022-10-30T14:27:31.0000000+00:00</time></trkpt><trkpt lat="39.4688665" lon="-0.3721503"><ele>-44.0</ele><time>2022-10-30T14:27:32.0000000+00:00</time></trkpt><trkpt lat="39.46887673" lon="-0.37214443"><ele>-44.0</ele><time>2022-10-30T14:27:33.0000000+00:00</time></trkpt><trkpt lat="39.46887933" lon="-0.37214519"><ele>-44.0</ele><time>2022-10-30T14:27:34.0000000+00:00</time></trkpt><trkpt lat="39.46888075" lon="-0.37214552"><ele>-44.0</ele><time>2022-10-30T14:27:35.0000000+00:00</time></trkpt><trkpt lat="39.46888151" lon="-0.37214485"><ele>-44.0</ele><time>2022-10-30T14:27:36.0000000+00:00</time></trkpt><trkpt lat="39.46888209" lon="-0.37214669"><ele>-44.2</ele><time>2022-10-30T14:27:37.0000000+00:00</time></trkpt><trkpt lat="39.46888159" lon="-0.37214619"><ele>-44.2</ele><time>2022-10-30T14:27:38.0000000+00:00</time></trkpt><trkpt lat="39.46888511" lon="-0.37214418"><ele>-44.2</ele><time>2022-10-30T14:27:39.0000000+00:00</time></trkpt><trkpt lat="39.46888235" lon="-0.37214326"><ele>-44.2</ele><time>2022-10-30T14:27:40.0000000+00:00</time></trkpt><trkpt lat="39.46888117" lon="-0.37214192"><ele>-44.2</ele><time>2022-10-30T14:27:41.0000000+00:00</time></trkpt><trkpt lat="39.46888318" lon="-0.372142"><ele>-44.2</ele><time>2022-10-30T14:27:42.0000000+00:00</time></trkpt><trkpt lat="39.46888159" lon="-0.37214384"><ele>-44.2</ele><time>2022-10-30T14:27:43.0000000+00:00</time></trkpt><trkpt lat="39.46888084" lon="-0.37214435"><ele>-44.2</ele><time>2022-10-30T14:27:44.0000000+00:00</time></trkpt><trkpt lat="39.46888796" lon="-0.37213513"><ele>-44.2</ele><time>2022-10-30T14:27:45.0000000+00:00</time></trkpt><trkpt lat="39.46888888" lon="-0.37213471"><ele>-44.2</ele><time>2022-10-30T14:27:46.0000000+00:00</time></trkpt><trkpt lat="39.46888796" lon="-0.37213555"><ele>-44.2</ele><time>2022-10-30T14:27:47.0000000+00:00</time></trkpt><trkpt lat="39.46888796" lon="-0.37213555"><ele>-44.2</ele><time>2022-10-30T14:27:48.0000000+00:00</time></trkpt><trkpt lat="39.46888796" lon="-0.37213555"><ele>-44.2</ele><time>2022-10-30T14:27:49.0000000+00:00</time></trkpt><trkpt lat="39.46888796" lon="-0.37213555"><ele>-44.2</ele><time>2022-10-30T14:27:50.0000000+00:00</time></trkpt><trkpt lat="39.46888796" lon="-0.37213555"><ele>-44.2</ele><time>2022-10-30T14:27:51.0000000+00:00</time></trkpt><trkpt lat="39.46888796" lon="-0.37213555"><ele>-44.2</ele><time>2022-10-30T14:27:52.0000000+00:00</time></trkpt><trkpt lat="39.46888796" lon="-0.37213555"><ele>-44.2</ele><time>2022-10-30T14:27:53.0000000+00:00</time></trkpt><trkpt lat="39.46888796" lon="-0.37213555"><ele>-44.2</ele><time>2022-10-30T14:27:54.0000000+00:00</time></trkpt><trkpt lat="39.46888796" lon="-0.37213555"><ele>-44.2</ele><time>2022-10-30T14:27:55.0000000+00:00</time></trkpt><trkpt lat="39.46889106" lon="-0.37213085"><ele>-44.2</ele><time>2022-10-30T14:27:56.0000000+00:00</time></trkpt><trkpt lat="39.46889944" lon="-0.37211258"><ele>-44.2</ele><time>2022-10-30T14:27:57.0000000+00:00</time></trkpt><trkpt lat="39.46890808" lon="-0.37209598"><ele>-44.2</ele><time>2022-10-30T14:27:58.0000000+00:00</time></trkpt><trkpt lat="39.46891428" lon="-0.37207553"><ele>-44.2</ele><time>2022-10-30T14:27:59.0000000+00:00</time></trkpt><trkpt lat="39.46891931" lon="-0.37205751"><ele>-44.2</ele><time>2022-10-30T14:28:00.0000000+00:00</time></trkpt><trkpt lat="39.46892241" lon="-0.37203563"><ele>-44.2</ele><time>2022-10-30T14:28:01.0000000+00:00</time></trkpt><trkpt lat="39.46892493" lon="-0.37201133"><ele>-44.2</ele><time>2022-10-30T14:28:02.0000000+00:00</time></trkpt><trkpt lat="39.46892752" lon="-0.37198836"><ele>-44.0</ele><time>2022-10-30T14:28:03.0000000+00:00</time></trkpt><trkpt lat="39.46893188" lon="-0.3719602"><ele>-44.2</ele><time>2022-10-30T14:28:04.0000000+00:00</time></trkpt><trkpt lat="39.46893549" lon="-0.37193673"><ele>-44.2</ele><time>2022-10-30T14:28:05.0000000+00:00</time></trkpt><trkpt lat="39.46893456" lon="-0.37192516"><ele>-44.2</ele><time>2022-10-30T14:28:06.0000000+00:00</time></trkpt><trkpt lat="39.46893021" lon="-0.37191091"><ele>-44.2</ele><time>2022-10-30T14:28:07.0000000+00:00</time></trkpt><trkpt lat="39.4689313" lon="-0.37189658"><ele>-44.2</ele><time>2022-10-30T14:28:08.0000000+00:00</time></trkpt><trkpt lat="39.46893046" lon="-0.37187638"><ele>-44.2</ele><time>2022-10-30T14:28:09.0000000+00:00</time></trkpt><trkpt lat="39.46892845" lon="-0.37186892"><ele>-44.2</ele><time>2022-10-30T14:28:10.0000000+00:00</time></trkpt><trkpt lat="39.4689261" lon="-0.37186137"><ele>-44.2</ele><time>2022-10-30T14:28:11.0000000+00:00</time></trkpt><trkpt lat="39.46892417" lon="-0.3718519"><ele>-44.2</ele><time>2022-10-30T14:28:12.0000000+00:00</time></trkpt><trkpt lat="39.46892115" lon="-0.37184771"><ele>-44.2</ele><time>2022-10-30T14:28:13.0000000+00:00</time></trkpt><trkpt lat="39.46891914" lon="-0.37184285"><ele>-44.2</ele><time>2022-10-30T14:28:14.0000000+00:00</time></trkpt><trkpt lat="39.46893012" lon="-0.37182198"><ele>-44.2</ele><time>2022-10-30T14:28:15.0000000+00:00</time></trkpt><trkpt lat="39.4689318" lon="-0.37181092"><ele>-44.2</ele><time>2022-10-30T14:28:16.0000000+00:00</time></trkpt><trkpt lat="39.46893951" lon="-0.37179591"><ele>-44.2</ele><time>2022-10-30T14:28:17.0000000+00:00</time></trkpt><trkpt lat="39.46894471" lon="-0.37176993"><ele>-44.2</ele><time>2022-10-30T14:28:18.0000000+00:00</time></trkpt><trkpt lat="39.4689556" lon="-0.37175115"><ele>-44.2</ele><time>2022-10-30T14:28:19.0000000+00:00</time></trkpt><trkpt lat="39.4689629" lon="-0.37173271"><ele>-44.2</ele><time>2022-10-30T14:28:20.0000000+00:00</time></trkpt><trkpt lat="39.4689748" lon="-0.37171117"><ele>-44.2</ele><time>2022-10-30T14:28:21.0000000+00:00</time></trkpt><trkpt lat="39.46898955" lon="-0.37168787"><ele>-44.2</ele><time>2022-10-30T14:28:22.0000000+00:00</time></trkpt><trkpt lat="39.4690012" lon="-0.37167781"><ele>-44.2</ele><time>2022-10-30T14:28:23.0000000+00:00</time></trkpt><trkpt lat="39.46901176" lon="-0.37166557"><ele>-44.2</ele><time>2022-10-30T14:28:24.0000000+00:00</time></trkpt><trkpt lat="39.46902827" lon="-0.37165568"><ele>-44.2</ele><time>2022-10-30T14:28:25.0000000+00:00</time></trkpt><trkpt lat="39.46904638" lon="-0.37164789"><ele>-44.2</ele><time>2022-10-30T14:28:26.0000000+00:00</time></trkpt><trkpt lat="39.4690639" lon="-0.37163867"><ele>-44.2</ele><time>2022-10-30T14:28:27.0000000+00:00</time></trkpt><trkpt lat="39.46907898" lon="-0.37162769"><ele>-44.2</ele><time>2022-10-30T14:28:28.0000000+00:00</time></trkpt><trkpt lat="39.46909592" lon="-0.37161897"><ele>-44.2</ele><time>2022-10-30T14:28:29.0000000+00:00</time></trkpt><trkpt lat="39.46911109" lon="-0.3716069"><ele>-44.2</ele><time>2022-10-30T14:28:30.0000000+00:00</time></trkpt><trkpt lat="39.46912106" lon="-0.37160908"><ele>-44.2</ele><time>2022-10-30T14:28:31.0000000+00:00</time></trkpt><trkpt lat="39.46913858" lon="-0.3715976"><ele>-44.2</ele><time>2022-10-30T14:28:32.0000000+00:00</time></trkpt><trkpt lat="39.46915761" lon="-0.3715831"><ele>-44.2</ele><time>2022-10-30T14:28:33.0000000+00:00</time></trkpt><trkpt lat="39.46918032" lon="-0.37157279"><ele>-44.2</ele><time>2022-10-30T14:28:34.0000000+00:00</time></trkpt><trkpt lat="39.46921569" lon="-0.3715572"><ele>-44.0</ele><time>2022-10-30T14:28:35.0000000+00:00</time></trkpt><trkpt lat="39.46923405" lon="-0.37155242"><ele>-44.0</ele><time>2022-10-30T14:28:36.0000000+00:00</time></trkpt><trkpt lat="39.46922139" lon="-0.3715473"><ele>-43.8</ele><time>2022-10-30T14:28:37.0000000+00:00</time></trkpt><trkpt lat="39.46924042" lon="-0.37153859"><ele>-43.8</ele><time>2022-10-30T14:28:38.0000000+00:00</time></trkpt><trkpt lat="39.46925769" lon="-0.37152987"><ele>-43.8</ele><time>2022-10-30T14:28:39.0000000+00:00</time></trkpt><trkpt lat="39.46926825" lon="-0.37152568"><ele>-43.8</ele><time>2022-10-30T14:28:40.0000000+00:00</time></trkpt><trkpt lat="39.46927998" lon="-0.37152124"><ele>-43.8</ele><time>2022-10-30T14:28:41.0000000+00:00</time></trkpt><trkpt lat="39.46926347" lon="-0.3715178"><ele>-43.8</ele><time>2022-10-30T14:28:42.0000000+00:00</time></trkpt><trkpt lat="39.46926397" lon="-0.37151185"><ele>-43.8</ele><time>2022-10-30T14:28:43.0000000+00:00</time></trkpt><trkpt lat="39.46929297" lon="-0.37150732"><ele>-43.8</ele><time>2022-10-30T14:28:44.0000000+00:00</time></trkpt><trkpt lat="39.46931586" lon="-0.37150632"><ele>-43.8</ele><time>2022-10-30T14:28:45.0000000+00:00</time></trkpt><trkpt lat="39.46932474" lon="-0.37150506"><ele>-44.0</ele><time>2022-10-30T14:28:46.0000000+00:00</time></trkpt><trkpt lat="39.46933405" lon="-0.37150338"><ele>-44.0</ele><time>2022-10-30T14:28:47.0000000+00:00</time></trkpt><trkpt lat="39.46934553" lon="-0.37150229"><ele>-44.2</ele><time>2022-10-30T14:28:48.0000000+00:00</time></trkpt><trkpt lat="39.46935433" lon="-0.37150112"><ele>-44.2</ele><time>2022-10-30T14:28:49.0000000+00:00</time></trkpt><trkpt lat="39.46935894" lon="-0.37150271"><ele>-44.2</ele><time>2022-10-30T14:28:50.0000000+00:00</time></trkpt><trkpt lat="39.46936548" lon="-0.37150548"><ele>-44.0</ele><time>2022-10-30T14:28:51.0000000+00:00</time></trkpt><trkpt lat="39.46877556" lon="-0.37159399"><ele>-44.0</ele><time>2022-10-30T14:36:31.0000000+00:00</time></trkpt><trkpt lat="39.4690095" lon="-0.37158838"><ele>-44.0</ele><time>2022-10-30T14:36:33.0000000+00:00</time></trkpt><trkpt lat="39.46895426" lon="-0.37156507"><ele>-43.6</ele><time>2022-10-30T14:36:34.0000000+00:00</time></trkpt><trkpt lat="39.46890791" lon="-0.37154018"><ele>-43.4</ele><time>2022-10-30T14:36:35.0000000+00:00</time></trkpt><trkpt lat="39.46888209" lon="-0.37153222"><ele>-43.2</ele><time>2022-10-30T14:36:36.0000000+00:00</time></trkpt><trkpt lat="39.4688914" lon="-0.3715126"><ele>-43.0</ele><time>2022-10-30T14:36:37.0000000+00:00</time></trkpt><trkpt lat="39.46892266" lon="-0.37150221"><ele>-43.0</ele><time>2022-10-30T14:36:38.0000000+00:00</time></trkpt><trkpt lat="39.46894596" lon="-0.37149349"><ele>-43.0</ele><time>2022-10-30T14:36:39.0000000+00:00</time></trkpt><trkpt lat="39.46896633" lon="-0.37148628"><ele>-43.0</ele><time>2022-10-30T14:36:40.0000000+00:00</time></trkpt><trkpt lat="39.46900087" lon="-0.37147639"><ele>-43.0</ele><time>2022-10-30T14:36:41.0000000+00:00</time></trkpt><trkpt lat="39.46901922" lon="-0.37145779"><ele>-42.8</ele><time>2022-10-30T14:36:42.0000000+00:00</time></trkpt><trkpt lat="39.46903833" lon="-0.37142895"><ele>-42.8</ele><time>2022-10-30T14:36:43.0000000+00:00</time></trkpt><trkpt lat="39.46903389" lon="-0.37140632"><ele>-42.8</ele><time>2022-10-30T14:36:44.0000000+00:00</time></trkpt><trkpt lat="39.46902534" lon="-0.3713847"><ele>-42.6</ele><time>2022-10-30T14:36:45.0000000+00:00</time></trkpt><trkpt lat="39.46902199" lon="-0.37136667"><ele>-42.6</ele><time>2022-10-30T14:36:46.0000000+00:00</time></trkpt><trkpt lat="39.46901679" lon="-0.37134999"><ele>-42.6</ele><time>2022-10-30T14:36:47.0000000+00:00</time></trkpt><trkpt lat="39.46901604" lon="-0.37133474"><ele>-42.6</ele><time>2022-10-30T14:36:48.0000000+00:00</time></trkpt><trkpt lat="39.46901444" lon="-0.37132032"><ele>-42.6</ele><time>2022-10-30T14:36:49.0000000+00:00</time></trkpt><trkpt lat="39.46901495" lon="-0.37130423"><ele>-42.6</ele><time>2022-10-30T14:36:50.0000000+00:00</time></trkpt><trkpt lat="39.46902216" lon="-0.3712873"><ele>-42.8</ele><time>2022-10-30T14:36:51.0000000+00:00</time></trkpt><trkpt lat="39.46907169" lon="-0.37125972"><ele>-42.8</ele><time>2022-10-30T14:36:52.0000000+00:00</time></trkpt><trkpt lat="39.46906557" lon="-0.37124815"><ele>-42.8</ele><time>2022-10-30T14:36:53.0000000+00:00</time></trkpt><trkpt lat="39.46906742" lon="-0.37124296"><ele>-42.8</ele><time>2022-10-30T14:36:54.0000000+00:00</time></trkpt><trkpt lat="39.46910103" lon="-0.37123541"><ele>-43.0</ele><time>2022-10-30T14:36:55.0000000+00:00</time></trkpt><trkpt lat="39.46915668" lon="-0.37122267"><ele>-43.0</ele><time>2022-10-30T14:36:56.0000000+00:00</time></trkpt><trkpt lat="39.46918585" lon="-0.37122452"><ele>-43.0</ele><time>2022-10-30T14:36:57.0000000+00:00</time></trkpt><trkpt lat="39.46920052" lon="-0.37121756"><ele>-43.0</ele><time>2022-10-30T14:36:58.0000000+00:00</time></trkpt><trkpt lat="39.46921846" lon="-0.37122125"><ele>-43.0</ele><time>2022-10-30T14:36:59.0000000+00:00</time></trkpt><trkpt lat="39.46923154" lon="-0.37121974"><ele>-43.0</ele><time>2022-10-30T14:37:00.0000000+00:00</time></trkpt><trkpt lat="39.46924252" lon="-0.37120893"><ele>-43.0</ele><time>2022-10-30T14:37:01.0000000+00:00</time></trkpt><trkpt lat="39.46925224" lon="-0.37119619"><ele>-43.2</ele><time>2022-10-30T14:37:02.0000000+00:00</time></trkpt><trkpt lat="39.46926389" lon="-0.3711894"><ele>-43.2</ele><time>2022-10-30T14:37:03.0000000+00:00</time></trkpt><trkpt lat="39.46927227" lon="-0.37118127"><ele>-43.2</ele><time>2022-10-30T14:37:04.0000000+00:00</time></trkpt><trkpt lat="39.46928124" lon="-0.37117054"><ele>-43.2</ele><time>2022-10-30T14:37:05.0000000+00:00</time></trkpt><trkpt lat="39.46929021" lon="-0.37116216"><ele>-43.2</ele><time>2022-10-30T14:37:06.0000000+00:00</time></trkpt><trkpt lat="39.46930002" lon="-0.3711521"><ele>-43.2</ele><time>2022-10-30T14:37:07.0000000+00:00</time></trkpt><trkpt lat="39.46931418" lon="-0.37114397"><ele>-43.2</ele><time>2022-10-30T14:37:08.0000000+00:00</time></trkpt><trkpt lat="39.46933203" lon="-0.37114129"><ele>-43.2</ele><time>2022-10-30T14:37:09.0000000+00:00</time></trkpt><trkpt lat="39.46935215" lon="-0.37113391"><ele>-43.2</ele><time>2022-10-30T14:37:10.0000000+00:00</time></trkpt><trkpt lat="39.46937202" lon="-0.37112268"><ele>-43.2</ele><time>2022-10-30T14:37:11.0000000+00:00</time></trkpt><trkpt lat="39.46939381" lon="-0.37111371"><ele>-43.2</ele><time>2022-10-30T14:37:12.0000000+00:00</time></trkpt><trkpt lat="39.46941904" lon="-0.37110843"><ele>-43.2</ele><time>2022-10-30T14:37:13.0000000+00:00</time></trkpt><trkpt lat="39.46943848" lon="-0.37110139"><ele>-43.2</ele><time>2022-10-30T14:37:14.0000000+00:00</time></trkpt><trkpt lat="39.46945634" lon="-0.37109829"><ele>-43.2</ele><time>2022-10-30T14:37:15.0000000+00:00</time></trkpt><trkpt lat="39.46947612" lon="-0.37109183"><ele>-43.2</ele><time>2022-10-30T14:37:16.0000000+00:00</time></trkpt><trkpt lat="39.46949246" lon="-0.37108722"><ele>-43.2</ele><time>2022-10-30T14:37:17.0000000+00:00</time></trkpt><trkpt lat="39.4695047" lon="-0.37108026"><ele>-43.2</ele><time>2022-10-30T14:37:18.0000000+00:00</time></trkpt><trkpt lat="39.46952222" lon="-0.37107733"><ele>-43.0</ele><time>2022-10-30T14:37:19.0000000+00:00</time></trkpt><trkpt lat="39.46952893" lon="-0.37106191"><ele>-43.0</ele><time>2022-10-30T14:37:20.0000000+00:00</time></trkpt><trkpt lat="39.46953823" lon="-0.37104179"><ele>-43.0</ele><time>2022-10-30T14:37:21.0000000+00:00</time></trkpt><trkpt lat="39.46956011" lon="-0.37104313"><ele>-43.0</ele><time>2022-10-30T14:37:22.0000000+00:00</time></trkpt><trkpt lat="39.46957846" lon="-0.37103467"><ele>-43.0</ele><time>2022-10-30T14:37:23.0000000+00:00</time></trkpt><trkpt lat="39.46960411" lon="-0.37103894"><ele>-43.0</ele><time>2022-10-30T14:37:24.0000000+00:00</time></trkpt><trkpt lat="39.46961199" lon="-0.3710319"><ele>-43.2</ele><time>2022-10-30T14:37:25.0000000+00:00</time></trkpt><trkpt lat="39.46962507" lon="-0.37103073"><ele>-43.0</ele><time>2022-10-30T14:37:26.0000000+00:00</time></trkpt><trkpt lat="39.46963873" lon="-0.37102553"><ele>-43.0</ele><time>2022-10-30T14:37:27.0000000+00:00</time></trkpt><trkpt lat="39.46964879" lon="-0.37103031"><ele>-43.0</ele><time>2022-10-30T14:37:28.0000000+00:00</time></trkpt><trkpt lat="39.46966396" lon="-0.37103651"><ele>-43.0</ele><time>2022-10-30T14:37:29.0000000+00:00</time></trkpt><trkpt lat="39.4696798" lon="-0.3710438"><ele>-42.8</ele><time>2022-10-30T14:37:30.0000000+00:00</time></trkpt><trkpt lat="39.4696865" lon="-0.37104271"><ele>-42.8</ele><time>2022-10-30T14:37:31.0000000+00:00</time></trkpt><trkpt lat="39.46969296" lon="-0.37104045"><ele>-42.8</ele><time>2022-10-30T14:37:32.0000000+00:00</time></trkpt><trkpt lat="39.4697021" lon="-0.37104447"><ele>-42.8</ele><time>2022-10-30T14:37:33.0000000+00:00</time></trkpt><trkpt lat="39.46970687" lon="-0.37103995"><ele>-42.8</ele><time>2022-10-30T14:37:34.0000000+00:00</time></trkpt><trkpt lat="39.46971115" lon="-0.37102746"><ele>-43.0</ele><time>2022-10-30T14:37:35.0000000+00:00</time></trkpt><trkpt lat="39.4697171" lon="-0.37101212"><ele>-43.0</ele><time>2022-10-30T14:37:36.0000000+00:00</time></trkpt><trkpt lat="39.4697311" lon="-0.37100768"><ele>-43.0</ele><time>2022-10-30T14:37:37.0000000+00:00</time></trkpt><trkpt lat="39.46975364" lon="-0.37100391"><ele>-43.0</ele><time>2022-10-30T14:37:38.0000000+00:00</time></trkpt><trkpt lat="39.4697798" lon="-0.37100139"><ele>-43.2</ele><time>2022-10-30T14:37:39.0000000+00:00</time></trkpt><trkpt lat="39.46980025" lon="-0.37099737"><ele>-43.2</ele><time>2022-10-30T14:37:40.0000000+00:00</time></trkpt><trkpt lat="39.46981777" lon="-0.37098169"><ele>-43.2</ele><time>2022-10-30T14:37:41.0000000+00:00</time></trkpt><trkpt lat="39.46983294" lon="-0.370977"><ele>-43.2</ele><time>2022-10-30T14:37:42.0000000+00:00</time></trkpt><trkpt lat="39.46984978" lon="-0.37096686"><ele>-43.2</ele><time>2022-10-30T14:37:43.0000000+00:00</time></trkpt><trkpt lat="39.46986898" lon="-0.37097608"><ele>-43.2</ele><time>2022-10-30T14:37:44.0000000+00:00</time></trkpt><trkpt lat="39.46988298" lon="-0.37097138"><ele>-43.2</ele><time>2022-10-30T14:37:45.0000000+00:00</time></trkpt><trkpt lat="39.46990083" lon="-0.37097096"><ele>-43.2</ele><time>2022-10-30T14:37:46.0000000+00:00</time></trkpt><trkpt lat="39.46991835" lon="-0.37097205"><ele>-43.2</ele><time>2022-10-30T14:37:47.0000000+00:00</time></trkpt><trkpt lat="39.46993863" lon="-0.37097985"><ele>-43.2</ele><time>2022-10-30T14:37:48.0000000+00:00</time></trkpt><trkpt lat="39.46995556" lon="-0.37098454"><ele>-43.2</ele><time>2022-10-30T14:37:49.0000000+00:00</time></trkpt><trkpt lat="39.46996948" lon="-0.37099133"><ele>-43.2</ele><time>2022-10-30T14:37:50.0000000+00:00</time></trkpt><trkpt lat="39.46997845" lon="-0.37099427"><ele>-43.2</ele><time>2022-10-30T14:37:51.0000000+00:00</time></trkpt><trkpt lat="39.46998188" lon="-0.37098982"><ele>-43.2</ele><time>2022-10-30T14:37:52.0000000+00:00</time></trkpt><trkpt lat="39.4699901" lon="-0.37098982"><ele>-43.2</ele><time>2022-10-30T14:37:53.0000000+00:00</time></trkpt><trkpt lat="39.46999756" lon="-0.37098991"><ele>-43.0</ele><time>2022-10-30T14:37:54.0000000+00:00</time></trkpt><trkpt lat="39.46999773" lon="-0.37098186"><ele>-43.0</ele><time>2022-10-30T14:37:55.0000000+00:00</time></trkpt><trkpt lat="39.47000074" lon="-0.37097499"><ele>-43.0</ele><time>2022-10-30T14:37:56.0000000+00:00</time></trkpt><trkpt lat="39.47000686" lon="-0.37097641"><ele>-43.0</ele><time>2022-10-30T14:37:57.0000000+00:00</time></trkpt><trkpt lat="39.470017" lon="-0.37098094"><ele>-43.0</ele><time>2022-10-30T14:37:58.0000000+00:00</time></trkpt><trkpt lat="39.47002756" lon="-0.37098739"><ele>-43.0</ele><time>2022-10-30T14:37:59.0000000+00:00</time></trkpt><trkpt lat="39.47003662" lon="-0.3709832"><ele>-43.2</ele><time>2022-10-30T14:38:00.0000000+00:00</time></trkpt><trkpt lat="39.47004332" lon="-0.37098127"><ele>-43.2</ele><time>2022-10-30T14:38:01.0000000+00:00</time></trkpt><trkpt lat="39.47004835" lon="-0.37097591"><ele>-43.2</ele><time>2022-10-30T14:38:02.0000000+00:00</time></trkpt><trkpt lat="39.47005749" lon="-0.37097105"><ele>-43.2</ele><time>2022-10-30T14:38:03.0000000+00:00</time></trkpt><trkpt lat="39.47007065" lon="-0.3709718"><ele>-43.2</ele><time>2022-10-30T14:38:04.0000000+00:00</time></trkpt><trkpt lat="39.47008322" lon="-0.37096837"><ele>-43.2</ele><time>2022-10-30T14:38:05.0000000+00:00</time></trkpt><trkpt lat="39.47009085" lon="-0.37096216"><ele>-43.2</ele><time>2022-10-30T14:38:06.0000000+00:00</time></trkpt><trkpt lat="39.47008557" lon="-0.37094984"><ele>-43.4</ele><time>2022-10-30T14:38:07.0000000+00:00</time></trkpt><trkpt lat="39.47008188" lon="-0.37093593"><ele>-43.4</ele><time>2022-10-30T14:38:08.0000000+00:00</time></trkpt><trkpt lat="39.47008624" lon="-0.37092629"><ele>-43.4</ele><time>2022-10-30T14:38:09.0000000+00:00</time></trkpt><trkpt lat="39.4700916" lon="-0.37091648"><ele>-43.6</ele><time>2022-10-30T14:38:10.0000000+00:00</time></trkpt><trkpt lat="39.47010191" lon="-0.37091757"><ele>-43.6</ele><time>2022-10-30T14:38:11.0000000+00:00</time></trkpt><trkpt lat="39.47011566" lon="-0.37091866"><ele>-43.6</ele><time>2022-10-30T14:38:12.0000000+00:00</time></trkpt><trkpt lat="39.47013024" lon="-0.3709159"><ele>-43.6</ele><time>2022-10-30T14:38:13.0000000+00:00</time></trkpt><trkpt lat="39.47014215" lon="-0.37090827"><ele>-43.6</ele><time>2022-10-30T14:38:14.0000000+00:00</time></trkpt><trkpt lat="39.47015514" lon="-0.37091062"><ele>-43.6</ele><time>2022-10-30T14:38:15.0000000+00:00</time></trkpt><trkpt lat="39.47016385" lon="-0.37091497"><ele>-43.6</ele><time>2022-10-30T14:38:16.0000000+00:00</time></trkpt><trkpt lat="39.47016771" lon="-0.37091187"><ele>-43.6</ele><time>2022-10-30T14:38:17.0000000+00:00</time></trkpt><trkpt lat="39.47016779" lon="-0.370905"><ele>-43.6</ele><time>2022-10-30T14:38:18.0000000+00:00</time></trkpt><trkpt lat="39.47017031" lon="-0.37089771"><ele>-43.6</ele><time>2022-10-30T14:38:19.0000000+00:00</time></trkpt><trkpt lat="39.47017651" lon="-0.37089368"><ele>-43.6</ele><time>2022-10-30T14:38:20.0000000+00:00</time></trkpt><trkpt lat="39.47018405" lon="-0.37089218"><ele>-43.6</ele><time>2022-10-30T14:38:21.0000000+00:00</time></trkpt><trkpt lat="39.47019277" lon="-0.3708931"><ele>-43.6</ele><time>2022-10-30T14:38:22.0000000+00:00</time></trkpt><trkpt lat="39.47019948" lon="-0.37089578"><ele>-43.6</ele><time>2022-10-30T14:38:23.0000000+00:00</time></trkpt><trkpt lat="39.47020484" lon="-0.37089628"><ele>-43.6</ele><time>2022-10-30T14:38:24.0000000+00:00</time></trkpt><trkpt lat="39.47020836" lon="-0.37090047"><ele>-43.6</ele><time>2022-10-30T14:38:25.0000000+00:00</time></trkpt><trkpt lat="39.470203" lon="-0.37088094"><ele>-43.6</ele><time>2022-10-30T14:38:26.0000000+00:00</time></trkpt><trkpt lat="39.4702035" lon="-0.37087315"><ele>-43.6</ele><time>2022-10-30T14:38:27.0000000+00:00</time></trkpt><trkpt lat="39.47020174" lon="-0.37086334"><ele>-43.4</ele><time>2022-10-30T14:38:28.0000000+00:00</time></trkpt><trkpt lat="39.47020082" lon="-0.37085806"><ele>-43.4</ele><time>2022-10-30T14:38:29.0000000+00:00</time></trkpt><trkpt lat="39.47021138" lon="-0.37086602"><ele>-43.4</ele><time>2022-10-30T14:38:30.0000000+00:00</time></trkpt><trkpt lat="39.47022362" lon="-0.37088019"><ele>-43.4</ele><time>2022-10-30T14:38:31.0000000+00:00</time></trkpt><trkpt lat="39.47021985" lon="-0.37086435"><ele>-43.4</ele><time>2022-10-30T14:38:32.0000000+00:00</time></trkpt><trkpt lat="39.47022261" lon="-0.37085127"><ele>-43.4</ele><time>2022-10-30T14:38:33.0000000+00:00</time></trkpt><trkpt lat="39.47022806" lon="-0.37087591"><ele>-43.4</ele><time>2022-10-30T14:38:34.0000000+00:00</time></trkpt><trkpt lat="39.47023703" lon="-0.3709133"><ele>-43.4</ele><time>2022-10-30T14:38:35.0000000+00:00</time></trkpt><trkpt lat="39.47025564" lon="-0.37095403"><ele>-43.4</ele><time>2022-10-30T14:38:36.0000000+00:00</time></trkpt><trkpt lat="39.47026611" lon="-0.37097273"><ele>-43.4</ele><time>2022-10-30T14:38:37.0000000+00:00</time></trkpt><trkpt lat="39.47027215" lon="-0.37098446"><ele>-43.4</ele><time>2022-10-30T14:38:38.0000000+00:00</time></trkpt><trkpt lat="39.4702755" lon="-0.37099049"><ele>-43.4</ele><time>2022-10-30T14:38:39.0000000+00:00</time></trkpt><trkpt lat="39.47027718" lon="-0.37098823"><ele>-43.4</ele><time>2022-10-30T14:38:40.0000000+00:00</time></trkpt><trkpt lat="39.47027919" lon="-0.37097859"><ele>-43.4</ele><time>2022-10-30T14:38:41.0000000+00:00</time></trkpt><trkpt lat="39.47028506" lon="-0.37098002"><ele>-43.4</ele><time>2022-10-30T14:38:42.0000000+00:00</time></trkpt><trkpt lat="39.470275" lon="-0.37097767"><ele>-43.4</ele><time>2022-10-30T14:38:43.0000000+00:00</time></trkpt><trkpt lat="39.47027508" lon="-0.37098169"><ele>-43.4</ele><time>2022-10-30T14:38:44.0000000+00:00</time></trkpt><trkpt lat="39.47026905" lon="-0.37098639"><ele>-43.4</ele><time>2022-10-30T14:38:45.0000000+00:00</time></trkpt><trkpt lat="39.47026586" lon="-0.3709879"><ele>-43.4</ele><time>2022-10-30T14:38:46.0000000+00:00</time></trkpt><trkpt lat="39.47026687" lon="-0.37098253"><ele>-43.4</ele><time>2022-10-30T14:38:47.0000000+00:00</time></trkpt><trkpt lat="39.47027374" lon="-0.3709858"><ele>-43.2</ele><time>2022-10-30T14:38:48.0000000+00:00</time></trkpt><trkpt lat="39.47028531" lon="-0.37099821"><ele>-43.2</ele><time>2022-10-30T14:38:49.0000000+00:00</time></trkpt><trkpt lat="39.47029386" lon="-0.37100843"><ele>-43.2</ele><time>2022-10-30T14:38:50.0000000+00:00</time></trkpt><trkpt lat="39.47029654" lon="-0.37100013"><ele>-43.2</ele><time>2022-10-30T14:38:51.0000000+00:00</time></trkpt><trkpt lat="39.47029537" lon="-0.37099418"><ele>-43.4</ele><time>2022-10-30T14:38:52.0000000+00:00</time></trkpt><trkpt lat="39.4702952" lon="-0.37098253"><ele>-43.4</ele><time>2022-10-30T14:38:53.0000000+00:00</time></trkpt><trkpt lat="39.47029813" lon="-0.37097423"><ele>-43.4</ele><time>2022-10-30T14:38:54.0000000+00:00</time></trkpt><trkpt lat="39.4703014" lon="-0.37097373"><ele>-43.4</ele><time>2022-10-30T14:38:55.0000000+00:00</time></trkpt><trkpt lat="39.47030467" lon="-0.37097591"><ele>-43.4</ele><time>2022-10-30T14:38:56.0000000+00:00</time></trkpt><trkpt lat="39.47030752" lon="-0.37097373"><ele>-43.4</ele><time>2022-10-30T14:38:57.0000000+00:00</time></trkpt><trkpt lat="39.47032361" lon="-0.37099192"><ele>-43.4</ele><time>2022-10-30T14:38:58.0000000+00:00</time></trkpt><trkpt lat="39.47033434" lon="-0.37099846"><ele>-43.4</ele><time>2022-10-30T14:38:59.0000000+00:00</time></trkpt><trkpt lat="39.47034499" lon="-0.37100868"><ele>-43.4</ele><time>2022-10-30T14:39:00.0000000+00:00</time></trkpt><trkpt lat="39.47034759" lon="-0.37102427"><ele>-43.4</ele><time>2022-10-30T14:39:01.0000000+00:00</time></trkpt><trkpt lat="39.47034817" lon="-0.37103626"><ele>-43.4</ele><time>2022-10-30T14:39:02.0000000+00:00</time></trkpt><trkpt lat="39.47034155" lon="-0.3710578"><ele>-43.4</ele><time>2022-10-30T14:39:03.0000000+00:00</time></trkpt><trkpt lat="39.47032998" lon="-0.37108135"><ele>-43.4</ele><time>2022-10-30T14:39:04.0000000+00:00</time></trkpt><trkpt lat="39.47032093" lon="-0.37110751"><ele>-43.4</ele><time>2022-10-30T14:39:05.0000000+00:00</time></trkpt><trkpt lat="39.47033526" lon="-0.37108328"><ele>-43.4</ele><time>2022-10-30T14:39:06.0000000+00:00</time></trkpt><trkpt lat="39.47034641" lon="-0.3710842"><ele>-43.6</ele><time>2022-10-30T14:39:07.0000000+00:00</time></trkpt><trkpt lat="39.47035764" lon="-0.37108747"><ele>-43.6</ele><time>2022-10-30T14:39:08.0000000+00:00</time></trkpt><trkpt lat="39.47036351" lon="-0.37108856"><ele>-43.6</ele><time>2022-10-30T14:39:09.0000000+00:00</time></trkpt><trkpt lat="39.4703537" lon="-0.37104573"><ele>-43.6</ele><time>2022-10-30T14:39:10.0000000+00:00</time></trkpt><trkpt lat="39.47035027" lon="-0.37104397"><ele>-43.6</ele><time>2022-10-30T14:39:11.0000000+00:00</time></trkpt><trkpt lat="39.47034616" lon="-0.3710252"><ele>-43.6</ele><time>2022-10-30T14:39:12.0000000+00:00</time></trkpt><trkpt lat="39.47035018" lon="-0.37104162"><ele>-43.6</ele><time>2022-10-30T14:39:13.0000000+00:00</time></trkpt><trkpt lat="39.47035915" lon="-0.371064"><ele>-43.6</ele><time>2022-10-30T14:39:14.0000000+00:00</time></trkpt><trkpt lat="39.47037374" lon="-0.37106568"><ele>-43.6</ele><time>2022-10-30T14:39:15.0000000+00:00</time></trkpt><trkpt lat="39.47038732" lon="-0.37107549"><ele>-43.6</ele><time>2022-10-30T14:39:16.0000000+00:00</time></trkpt><trkpt lat="39.47039494" lon="-0.37106853"><ele>-43.8</ele><time>2022-10-30T14:39:17.0000000+00:00</time></trkpt><trkpt lat="39.47040576" lon="-0.37104699"><ele>-43.8</ele><time>2022-10-30T14:39:18.0000000+00:00</time></trkpt><trkpt lat="39.47042386" lon="-0.37103701"><ele>-43.8</ele><time>2022-10-30T14:39:19.0000000+00:00</time></trkpt><trkpt lat="39.47044322" lon="-0.37100868"><ele>-43.8</ele><time>2022-10-30T14:39:20.0000000+00:00</time></trkpt><trkpt lat="39.4704542" lon="-0.37098077"><ele>-43.8</ele><time>2022-10-30T14:39:21.0000000+00:00</time></trkpt><trkpt lat="39.47046351" lon="-0.3709563"><ele>-43.8</ele><time>2022-10-30T14:39:22.0000000+00:00</time></trkpt><trkpt lat="39.47047264" lon="-0.37093375"><ele>-43.8</ele><time>2022-10-30T14:39:23.0000000+00:00</time></trkpt><trkpt lat="39.47049159" lon="-0.37092126"><ele>-43.8</ele><time>2022-10-30T14:39:24.0000000+00:00</time></trkpt><trkpt lat="39.4705195" lon="-0.37090902"><ele>-43.8</ele><time>2022-10-30T14:39:25.0000000+00:00</time></trkpt><trkpt lat="39.47054548" lon="-0.37090005"><ele>-43.8</ele><time>2022-10-30T14:39:26.0000000+00:00</time></trkpt><trkpt lat="39.47056334" lon="-0.37089"><ele>-43.6</ele><time>2022-10-30T14:39:27.0000000+00:00</time></trkpt><trkpt lat="39.47057373" lon="-0.37088404"><ele>-43.6</ele><time>2022-10-30T14:39:28.0000000+00:00</time></trkpt><trkpt lat="39.47058178" lon="-0.37089025"><ele>-43.6</ele><time>2022-10-30T14:39:29.0000000+00:00</time></trkpt><trkpt lat="39.47059485" lon="-0.37089888"><ele>-43.6</ele><time>2022-10-30T14:39:30.0000000+00:00</time></trkpt><trkpt lat="39.47060675" lon="-0.37090525"><ele>-43.8</ele><time>2022-10-30T14:39:31.0000000+00:00</time></trkpt><trkpt lat="39.4706122" lon="-0.37090265"><ele>-43.8</ele><time>2022-10-30T14:39:32.0000000+00:00</time></trkpt><trkpt lat="39.47061623" lon="-0.37089838"><ele>-43.8</ele><time>2022-10-30T14:39:33.0000000+00:00</time></trkpt><trkpt lat="39.47060667" lon="-0.37090332"><ele>-43.8</ele><time>2022-10-30T14:39:34.0000000+00:00</time></trkpt><trkpt lat="39.47060223" lon="-0.37089461"><ele>-43.6</ele><time>2022-10-30T14:39:35.0000000+00:00</time></trkpt><trkpt lat="39.47060214" lon="-0.37087474"><ele>-43.6</ele><time>2022-10-30T14:39:36.0000000+00:00</time></trkpt><trkpt lat="39.47060189" lon="-0.37086795"><ele>-43.6</ele><time>2022-10-30T14:39:37.0000000+00:00</time></trkpt><trkpt lat="39.47060675" lon="-0.37086544"><ele>-43.6</ele><time>2022-10-30T14:39:38.0000000+00:00</time></trkpt><trkpt lat="39.47060935" lon="-0.37086393"><ele>-43.6</ele><time>2022-10-30T14:39:39.0000000+00:00</time></trkpt><trkpt lat="39.4706112" lon="-0.3708641"><ele>-43.6</ele><time>2022-10-30T14:39:40.0000000+00:00</time></trkpt><trkpt lat="39.47061958" lon="-0.37085831"><ele>-43.6</ele><time>2022-10-30T14:39:41.0000000+00:00</time></trkpt><trkpt lat="39.47063064" lon="-0.37085027"><ele>-43.6</ele><time>2022-10-30T14:39:42.0000000+00:00</time></trkpt><trkpt lat="39.47063969" lon="-0.37083769"><ele>-43.4</ele><time>2022-10-30T14:39:43.0000000+00:00</time></trkpt><trkpt lat="39.47065252" lon="-0.37083233"><ele>-43.4</ele><time>2022-10-30T14:39:44.0000000+00:00</time></trkpt><trkpt lat="39.4706661" lon="-0.37082344"><ele>-43.6</ele><time>2022-10-30T14:39:45.0000000+00:00</time></trkpt><trkpt lat="39.47068336" lon="-0.3708159"><ele>-43.6</ele><time>2022-10-30T14:39:46.0000000+00:00</time></trkpt><trkpt lat="39.47071304" lon="-0.37083183"><ele>-43.6</ele><time>2022-10-30T14:39:47.0000000+00:00</time></trkpt><trkpt lat="39.47073986" lon="-0.3708625"><ele>-43.6</ele><time>2022-10-30T14:39:48.0000000+00:00</time></trkpt><trkpt lat="39.47076023" lon="-0.37085504"><ele>-43.6</ele><time>2022-10-30T14:39:49.0000000+00:00</time></trkpt><trkpt lat="39.47077313" lon="-0.37084163"><ele>-43.8</ele><time>2022-10-30T14:39:50.0000000+00:00</time></trkpt><trkpt lat="39.47079141" lon="-0.37084205"><ele>-43.8</ele><time>2022-10-30T14:39:51.0000000+00:00</time></trkpt><trkpt lat="39.47080172" lon="-0.37083878"><ele>-43.8</ele><time>2022-10-30T14:39:52.0000000+00:00</time></trkpt><trkpt lat="39.47080951" lon="-0.3708361"><ele>-43.8</ele><time>2022-10-30T14:39:53.0000000+00:00</time></trkpt><trkpt lat="39.47081513" lon="-0.37082504"><ele>-44.0</ele><time>2022-10-30T14:39:54.0000000+00:00</time></trkpt><trkpt lat="39.4708194" lon="-0.37080735"><ele>-44.0</ele><time>2022-10-30T14:39:55.0000000+00:00</time></trkpt><trkpt lat="39.47082661" lon="-0.37079377"><ele>-44.0</ele><time>2022-10-30T14:39:56.0000000+00:00</time></trkpt><trkpt lat="39.47083809" lon="-0.3707895"><ele>-44.0</ele><time>2022-10-30T14:39:57.0000000+00:00</time></trkpt><trkpt lat="39.47085218" lon="-0.37079109"><ele>-44.0</ele><time>2022-10-30T14:39:58.0000000+00:00</time></trkpt><trkpt lat="39.47086626" lon="-0.37079687"><ele>-44.0</ele><time>2022-10-30T14:39:59.0000000+00:00</time></trkpt><trkpt lat="39.47087674" lon="-0.37080224"><ele>-44.0</ele><time>2022-10-30T14:40:00.0000000+00:00</time></trkpt><trkpt lat="39.47088059" lon="-0.37080056"><ele>-44.0</ele><time>2022-10-30T14:40:01.0000000+00:00</time></trkpt><trkpt lat="39.47088336" lon="-0.37080425"><ele>-44.0</ele><time>2022-10-30T14:40:02.0000000+00:00</time></trkpt><trkpt lat="39.47088788" lon="-0.37080701"><ele>-44.0</ele><time>2022-10-30T14:40:03.0000000+00:00</time></trkpt><trkpt lat="39.47088746" lon="-0.37083149"><ele>-44.0</ele><time>2022-10-30T14:40:04.0000000+00:00</time></trkpt><trkpt lat="39.47088889" lon="-0.37085932"><ele>-44.0</ele><time>2022-10-30T14:40:05.0000000+00:00</time></trkpt><trkpt lat="39.47088922" lon="-0.37082579"><ele>-44.0</ele><time>2022-10-30T14:40:06.0000000+00:00</time></trkpt><trkpt lat="39.47090842" lon="-0.37082747"><ele>-44.0</ele><time>2022-10-30T14:40:07.0000000+00:00</time></trkpt><trkpt lat="39.47091688" lon="-0.37082411"><ele>-44.2</ele><time>2022-10-30T14:40:08.0000000+00:00</time></trkpt><trkpt lat="39.47093449" lon="-0.37082126"><ele>-44.2</ele><time>2022-10-30T14:40:09.0000000+00:00</time></trkpt><trkpt lat="39.47094278" lon="-0.3708221"><ele>-44.2</ele><time>2022-10-30T14:40:10.0000000+00:00</time></trkpt><trkpt lat="39.47095502" lon="-0.37081791"><ele>-44.2</ele><time>2022-10-30T14:40:11.0000000+00:00</time></trkpt><trkpt lat="39.47097011" lon="-0.37082043"><ele>-44.2</ele><time>2022-10-30T14:40:12.0000000+00:00</time></trkpt><trkpt lat="39.47098084" lon="-0.37081162"><ele>-44.2</ele><time>2022-10-30T14:40:13.0000000+00:00</time></trkpt><trkpt lat="39.47099383" lon="-0.37081531"><ele>-44.2</ele><time>2022-10-30T14:40:14.0000000+00:00</time></trkpt><trkpt lat="39.47099375" lon="-0.37082168"><ele>-44.2</ele><time>2022-10-30T14:40:15.0000000+00:00</time></trkpt><trkpt lat="39.47099467" lon="-0.37081531"><ele>-44.2</ele><time>2022-10-30T14:40:16.0000000+00:00</time></trkpt><trkpt lat="39.47100414" lon="-0.37080165"><ele>-44.2</ele><time>2022-10-30T14:40:17.0000000+00:00</time></trkpt><trkpt lat="39.47101269" lon="-0.37078187"><ele>-44.2</ele><time>2022-10-30T14:40:18.0000000+00:00</time></trkpt><trkpt lat="39.47101906" lon="-0.37076569"><ele>-44.2</ele><time>2022-10-30T14:40:19.0000000+00:00</time></trkpt><trkpt lat="39.4710152" lon="-0.37075505"><ele>-44.2</ele><time>2022-10-30T14:40:20.0000000+00:00</time></trkpt><trkpt lat="39.47100791" lon="-0.37074692"><ele>-44.2</ele><time>2022-10-30T14:40:21.0000000+00:00</time></trkpt><trkpt lat="39.47103792" lon="-0.37072546"><ele>-44.2</ele><time>2022-10-30T14:40:22.0000000+00:00</time></trkpt><trkpt lat="39.47104429" lon="-0.3707061"><ele>-44.2</ele><time>2022-10-30T14:40:23.0000000+00:00</time></trkpt><trkpt lat="39.47105493" lon="-0.37068154"><ele>-44.2</ele><time>2022-10-30T14:40:24.0000000+00:00</time></trkpt><trkpt lat="39.47105845" lon="-0.3706569"><ele>-44.4</ele><time>2022-10-30T14:40:25.0000000+00:00</time></trkpt><trkpt lat="39.47104915" lon="-0.37066352"><ele>-44.4</ele><time>2022-10-30T14:40:26.0000000+00:00</time></trkpt><trkpt lat="39.47105577" lon="-0.37065765"><ele>-44.2</ele><time>2022-10-30T14:40:27.0000000+00:00</time></trkpt><trkpt lat="39.47106441" lon="-0.37063535"><ele>-44.2</ele><time>2022-10-30T14:40:28.0000000+00:00</time></trkpt><trkpt lat="39.47107798" lon="-0.37061147"><ele>-44.2</ele><time>2022-10-30T14:40:29.0000000+00:00</time></trkpt><trkpt lat="39.47108612" lon="-0.370589"><ele>-44.2</ele><time>2022-10-30T14:40:30.0000000+00:00</time></trkpt><trkpt lat="39.47109785" lon="-0.37057098"><ele>-44.2</ele><time>2022-10-30T14:40:31.0000000+00:00</time></trkpt><trkpt lat="39.47111562" lon="-0.37055505"><ele>-44.2</ele><time>2022-10-30T14:40:32.0000000+00:00</time></trkpt><trkpt lat="39.47112978" lon="-0.37053192"><ele>-44.2</ele><time>2022-10-30T14:40:33.0000000+00:00</time></trkpt><trkpt lat="39.47113716" lon="-0.37051843"><ele>-44.2</ele><time>2022-10-30T14:40:34.0000000+00:00</time></trkpt><trkpt lat="39.47114118" lon="-0.37051583"><ele>-44.2</ele><time>2022-10-30T14:40:35.0000000+00:00</time></trkpt><trkpt lat="39.47114655" lon="-0.37052153"><ele>-44.2</ele><time>2022-10-30T14:40:36.0000000+00:00</time></trkpt><trkpt lat="39.47116474" lon="-0.37052597"><ele>-44.2</ele><time>2022-10-30T14:40:37.0000000+00:00</time></trkpt><trkpt lat="39.47118108" lon="-0.37053335"><ele>-44.2</ele><time>2022-10-30T14:40:38.0000000+00:00</time></trkpt><trkpt lat="39.47120179" lon="-0.37053837"><ele>-44.2</ele><time>2022-10-30T14:40:39.0000000+00:00</time></trkpt><trkpt lat="39.47121746" lon="-0.37054827"><ele>-44.2</ele><time>2022-10-30T14:40:40.0000000+00:00</time></trkpt><trkpt lat="39.47123665" lon="-0.37055648"><ele>-44.2</ele><time>2022-10-30T14:40:41.0000000+00:00</time></trkpt><trkpt lat="39.47125375" lon="-0.37056821"><ele>-44.2</ele><time>2022-10-30T14:40:42.0000000+00:00</time></trkpt><trkpt lat="39.47126909" lon="-0.37057324"><ele>-44.2</ele><time>2022-10-30T14:40:43.0000000+00:00</time></trkpt><trkpt lat="39.4712789" lon="-0.37057593"><ele>-44.2</ele><time>2022-10-30T14:40:44.0000000+00:00</time></trkpt><trkpt lat="39.47128971" lon="-0.3705776"><ele>-44.2</ele><time>2022-10-30T14:40:45.0000000+00:00</time></trkpt><trkpt lat="39.47130027" lon="-0.37058841"><ele>-44.2</ele><time>2022-10-30T14:40:46.0000000+00:00</time></trkpt><trkpt lat="39.47130949" lon="-0.37059336"><ele>-44.2</ele><time>2022-10-30T14:40:47.0000000+00:00</time></trkpt><trkpt lat="39.47132257" lon="-0.37060786"><ele>-44.2</ele><time>2022-10-30T14:40:48.0000000+00:00</time></trkpt><trkpt lat="39.47133204" lon="-0.37062697"><ele>-44.2</ele><time>2022-10-30T14:40:49.0000000+00:00</time></trkpt><trkpt lat="39.47133883" lon="-0.37064457"><ele>-44.2</ele><time>2022-10-30T14:40:50.0000000+00:00</time></trkpt><trkpt lat="39.47134637" lon="-0.37066595"><ele>-44.2</ele><time>2022-10-30T14:40:51.0000000+00:00</time></trkpt><trkpt lat="39.47135241" lon="-0.37068833"><ele>-44.2</ele><time>2022-10-30T14:40:52.0000000+00:00</time></trkpt><trkpt lat="39.47136456" lon="-0.3707102"><ele>-44.2</ele><time>2022-10-30T14:40:53.0000000+00:00</time></trkpt><trkpt lat="39.47138049" lon="-0.37073225"><ele>-44.2</ele><time>2022-10-30T14:40:54.0000000+00:00</time></trkpt><trkpt lat="39.47139231" lon="-0.37074122"><ele>-44.2</ele><time>2022-10-30T14:40:55.0000000+00:00</time></trkpt><trkpt lat="39.47141318" lon="-0.37074474"><ele>-44.2</ele><time>2022-10-30T14:40:56.0000000+00:00</time></trkpt><trkpt lat="39.47143665" lon="-0.37073795"><ele>-44.4</ele><time>2022-10-30T14:40:57.0000000+00:00</time></trkpt><trkpt lat="39.47144821" lon="-0.37072588"><ele>-44.4</ele><time>2022-10-30T14:40:58.0000000+00:00</time></trkpt><trkpt lat="39.47145551" lon="-0.37070526"><ele>-44.4</ele><time>2022-10-30T14:40:59.0000000+00:00</time></trkpt><trkpt lat="39.47147336" lon="-0.37068975"><ele>-44.4</ele><time>2022-10-30T14:41:00.0000000+00:00</time></trkpt><trkpt lat="39.47148794" lon="-0.37068866"><ele>-44.4</ele><time>2022-10-30T14:41:01.0000000+00:00</time></trkpt><trkpt lat="39.47150001" lon="-0.37068564"><ele>-44.4</ele><time>2022-10-30T14:41:02.0000000+00:00</time></trkpt><trkpt lat="39.4715125" lon="-0.3706812"><ele>-44.4</ele><time>2022-10-30T14:41:03.0000000+00:00</time></trkpt><trkpt lat="39.47152985" lon="-0.37067886"><ele>-44.4</ele><time>2022-10-30T14:41:04.0000000+00:00</time></trkpt><trkpt lat="39.47154477" lon="-0.37067575"><ele>-44.4</ele><time>2022-10-30T14:41:05.0000000+00:00</time></trkpt><trkpt lat="39.47156447" lon="-0.37068003"><ele>-44.4</ele><time>2022-10-30T14:41:06.0000000+00:00</time></trkpt><trkpt lat="39.47158048" lon="-0.37068506"><ele>-44.4</ele><time>2022-10-30T14:41:07.0000000+00:00</time></trkpt><trkpt lat="39.47159389" lon="-0.37067986"><ele>-44.4</ele><time>2022-10-30T14:41:08.0000000+00:00</time></trkpt><trkpt lat="39.4716068" lon="-0.3706781"><ele>-44.4</ele><time>2022-10-30T14:41:09.0000000+00:00</time></trkpt><trkpt lat="39.47161853" lon="-0.37067844"><ele>-44.4</ele><time>2022-10-30T14:41:10.0000000+00:00</time></trkpt><trkpt lat="39.4716358" lon="-0.37068632"><ele>-44.4</ele><time>2022-10-30T14:41:11.0000000+00:00</time></trkpt><trkpt lat="39.47165634" lon="-0.37069243"><ele>-44.4</ele><time>2022-10-30T14:41:12.0000000+00:00</time></trkpt><trkpt lat="39.47167159" lon="-0.37069562"><ele>-44.6</ele><time>2022-10-30T14:41:13.0000000+00:00</time></trkpt><trkpt lat="39.47168525" lon="-0.37069847"><ele>-44.6</ele><time>2022-10-30T14:41:14.0000000+00:00</time></trkpt><trkpt lat="39.47169632" lon="-0.37069545"><ele>-44.6</ele><time>2022-10-30T14:41:15.0000000+00:00</time></trkpt><trkpt lat="39.47171065" lon="-0.37068917"><ele>-44.6</ele><time>2022-10-30T14:41:16.0000000+00:00</time></trkpt><trkpt lat="39.47172104" lon="-0.37068506"><ele>-44.6</ele><time>2022-10-30T14:41:17.0000000+00:00</time></trkpt><trkpt lat="39.47173135" lon="-0.37068573"><ele>-44.6</ele><time>2022-10-30T14:41:18.0000000+00:00</time></trkpt><trkpt lat="39.47174518" lon="-0.37069453"><ele>-44.6</ele><time>2022-10-30T14:41:19.0000000+00:00</time></trkpt><trkpt lat="39.47176128" lon="-0.37069813"><ele>-44.6</ele><time>2022-10-30T14:41:20.0000000+00:00</time></trkpt><trkpt lat="39.47177553" lon="-0.37069964"><ele>-44.4</ele><time>2022-10-30T14:41:21.0000000+00:00</time></trkpt><trkpt lat="39.47178978" lon="-0.37070056"><ele>-44.4</ele><time>2022-10-30T14:41:22.0000000+00:00</time></trkpt><trkpt lat="39.47180151" lon="-0.37070333"><ele>-44.4</ele><time>2022-10-30T14:41:23.0000000+00:00</time></trkpt><trkpt lat="39.47181014" lon="-0.37070534"><ele>-44.4</ele><time>2022-10-30T14:41:24.0000000+00:00</time></trkpt><trkpt lat="39.47181962" lon="-0.37071155"><ele>-44.4</ele><time>2022-10-30T14:41:25.0000000+00:00</time></trkpt><trkpt lat="39.47183403" lon="-0.3707149"><ele>-44.4</ele><time>2022-10-30T14:41:26.0000000+00:00</time></trkpt><trkpt lat="39.4718482" lon="-0.37071683"><ele>-44.4</ele><time>2022-10-30T14:41:27.0000000+00:00</time></trkpt><trkpt lat="39.471858" lon="-0.37072378"><ele>-44.4</ele><time>2022-10-30T14:41:28.0000000+00:00</time></trkpt><trkpt lat="39.471871" lon="-0.37072923"><ele>-44.4</ele><time>2022-10-30T14:41:29.0000000+00:00</time></trkpt><trkpt lat="39.47188097" lon="-0.37072772"><ele>-44.4</ele><time>2022-10-30T14:41:30.0000000+00:00</time></trkpt><trkpt lat="39.47188977" lon="-0.37072663"><ele>-44.4</ele><time>2022-10-30T14:41:31.0000000+00:00</time></trkpt><trkpt lat="39.47189991" lon="-0.3707185"><ele>-44.4</ele><time>2022-10-30T14:41:32.0000000+00:00</time></trkpt><trkpt lat="39.47190804" lon="-0.37071054"><ele>-44.4</ele><time>2022-10-30T14:41:33.0000000+00:00</time></trkpt><trkpt lat="39.47191433" lon="-0.37070224"><ele>-44.4</ele><time>2022-10-30T14:41:34.0000000+00:00</time></trkpt><trkpt lat="39.47191995" lon="-0.37071238"><ele>-44.4</ele><time>2022-10-30T14:41:35.0000000+00:00</time></trkpt><trkpt lat="39.4719264" lon="-0.37071314"><ele>-44.4</ele><time>2022-10-30T14:41:36.0000000+00:00</time></trkpt><trkpt lat="39.47192757" lon="-0.37070987"><ele>-44.4</ele><time>2022-10-30T14:41:37.0000000+00:00</time></trkpt><trkpt lat="39.47192984" lon="-0.37070844"><ele>-44.4</ele><time>2022-10-30T14:41:38.0000000+00:00</time></trkpt><trkpt lat="39.47193369" lon="-0.3707045"><ele>-44.4</ele><time>2022-10-30T14:41:39.0000000+00:00</time></trkpt><trkpt lat="39.47193679" lon="-0.37069713"><ele>-44.4</ele><time>2022-10-30T14:41:40.0000000+00:00</time></trkpt><trkpt lat="39.47194149" lon="-0.37068774"><ele>-44.4</ele><time>2022-10-30T14:41:41.0000000+00:00</time></trkpt><trkpt lat="39.47194467" lon="-0.37067349"><ele>-44.4</ele><time>2022-10-30T14:41:42.0000000+00:00</time></trkpt><trkpt lat="39.47194727" lon="-0.37065949"><ele>-44.4</ele><time>2022-10-30T14:41:43.0000000+00:00</time></trkpt><trkpt lat="39.4719518" lon="-0.37064516"><ele>-44.4</ele><time>2022-10-30T14:41:44.0000000+00:00</time></trkpt><trkpt lat="39.47195213" lon="-0.3706341"><ele>-44.4</ele><time>2022-10-30T14:41:45.0000000+00:00</time></trkpt><trkpt lat="39.47195322" lon="-0.370617"><ele>-44.4</ele><time>2022-10-30T14:41:46.0000000+00:00</time></trkpt><trkpt lat="39.47195314" lon="-0.37059504"><ele>-44.4</ele><time>2022-10-30T14:41:47.0000000+00:00</time></trkpt><trkpt lat="39.47195381" lon="-0.37058171"><ele>-44.4</ele><time>2022-10-30T14:41:48.0000000+00:00</time></trkpt><trkpt lat="39.47195683" lon="-0.37056838"><ele>-44.4</ele><time>2022-10-30T14:41:49.0000000+00:00</time></trkpt><trkpt lat="39.47196337" lon="-0.37055682"><ele>-44.4</ele><time>2022-10-30T14:41:50.0000000+00:00</time></trkpt><trkpt lat="39.47196999" lon="-0.37054961"><ele>-44.4</ele><time>2022-10-30T14:41:51.0000000+00:00</time></trkpt><trkpt lat="39.47198541" lon="-0.37055112"><ele>-44.4</ele><time>2022-10-30T14:41:52.0000000+00:00</time></trkpt><trkpt lat="39.47200251" lon="-0.37055807"><ele>-44.4</ele><time>2022-10-30T14:41:53.0000000+00:00</time></trkpt><trkpt lat="39.47201852" lon="-0.37055522"><ele>-44.2</ele><time>2022-10-30T14:41:54.0000000+00:00</time></trkpt><trkpt lat="39.47202916" lon="-0.37056553"><ele>-44.2</ele><time>2022-10-30T14:41:55.0000000+00:00</time></trkpt><trkpt lat="39.47203889" lon="-0.37057299"><ele>-44.2</ele><time>2022-10-30T14:41:56.0000000+00:00</time></trkpt><trkpt lat="39.47204978" lon="-0.37058045"><ele>-44.2</ele><time>2022-10-30T14:41:57.0000000+00:00</time></trkpt><trkpt lat="39.47205691" lon="-0.3705864"><ele>-44.2</ele><time>2022-10-30T14:41:58.0000000+00:00</time></trkpt><trkpt lat="39.47206521" lon="-0.37059143"><ele>-44.2</ele><time>2022-10-30T14:41:59.0000000+00:00</time></trkpt><trkpt lat="39.47207476" lon="-0.3705952"><ele>-44.2</ele><time>2022-10-30T14:42:00.0000000+00:00</time></trkpt><trkpt lat="39.47208406" lon="-0.37060124"><ele>-44.2</ele><time>2022-10-30T14:42:01.0000000+00:00</time></trkpt><trkpt lat="39.47209303" lon="-0.37061113"><ele>-44.2</ele><time>2022-10-30T14:42:02.0000000+00:00</time></trkpt><trkpt lat="39.47210301" lon="-0.37062136"><ele>-44.2</ele><time>2022-10-30T14:42:03.0000000+00:00</time></trkpt><trkpt lat="39.47211558" lon="-0.37063477"><ele>-44.2</ele><time>2022-10-30T14:42:04.0000000+00:00</time></trkpt><trkpt lat="39.47213058" lon="-0.37064172"><ele>-44.4</ele><time>2022-10-30T14:42:05.0000000+00:00</time></trkpt><trkpt lat="39.47214609" lon="-0.3706377"><ele>-44.4</ele><time>2022-10-30T14:42:06.0000000+00:00</time></trkpt><trkpt lat="39.47216579" lon="-0.37064617"><ele>-44.4</ele><time>2022-10-30T14:42:07.0000000+00:00</time></trkpt><trkpt lat="39.47218213" lon="-0.37066469"><ele>-44.2</ele><time>2022-10-30T14:42:08.0000000+00:00</time></trkpt><trkpt lat="39.47219521" lon="-0.37068472"><ele>-44.2</ele><time>2022-10-30T14:42:09.0000000+00:00</time></trkpt><trkpt lat="39.4722082" lon="-0.37069981"><ele>-44.2</ele><time>2022-10-30T14:42:10.0000000+00:00</time></trkpt><trkpt lat="39.47222865" lon="-0.370703"><ele>-44.4</ele><time>2022-10-30T14:42:11.0000000+00:00</time></trkpt><trkpt lat="39.47224869" lon="-0.37069654"><ele>-44.4</ele><time>2022-10-30T14:42:12.0000000+00:00</time></trkpt><trkpt lat="39.47225589" lon="-0.37068439"><ele>-44.4</ele><time>2022-10-30T14:42:13.0000000+00:00</time></trkpt><trkpt lat="39.47226738" lon="-0.37066729"><ele>-44.4</ele><time>2022-10-30T14:42:14.0000000+00:00</time></trkpt><trkpt lat="39.47227643" lon="-0.37065254"><ele>-44.4</ele><time>2022-10-30T14:42:15.0000000+00:00</time></trkpt><trkpt lat="39.47229118" lon="-0.37063829"><ele>-44.4</ele><time>2022-10-30T14:42:16.0000000+00:00</time></trkpt><trkpt lat="39.47230468" lon="-0.37061649"><ele>-44.4</ele><time>2022-10-30T14:42:17.0000000+00:00</time></trkpt><trkpt lat="39.47232328" lon="-0.37060082"><ele>-44.4</ele><time>2022-10-30T14:42:18.0000000+00:00</time></trkpt><trkpt lat="39.47233535" lon="-0.37058003"><ele>-44.4</ele><time>2022-10-30T14:42:19.0000000+00:00</time></trkpt><trkpt lat="39.47235094" lon="-0.37055832"><ele>-44.4</ele><time>2022-10-30T14:42:20.0000000+00:00</time></trkpt><trkpt lat="39.47235681" lon="-0.37054726"><ele>-44.4</ele><time>2022-10-30T14:42:21.0000000+00:00</time></trkpt><trkpt lat="39.47235857" lon="-0.37054248"><ele>-44.2</ele><time>2022-10-30T14:42:22.0000000+00:00</time></trkpt><trkpt lat="39.47236578" lon="-0.37054525"><ele>-44.2</ele><time>2022-10-30T14:42:23.0000000+00:00</time></trkpt><trkpt lat="39.47237793" lon="-0.37054382"><ele>-44.2</ele><time>2022-10-30T14:42:24.0000000+00:00</time></trkpt><trkpt lat="39.47238104" lon="-0.37054692"><ele>-44.2</ele><time>2022-10-30T14:42:25.0000000+00:00</time></trkpt><trkpt lat="39.47238003" lon="-0.37054961"><ele>-44.4</ele><time>2022-10-30T14:42:26.0000000+00:00</time></trkpt><trkpt lat="39.47238992" lon="-0.37054466"><ele>-44.4</ele><time>2022-10-30T14:42:27.0000000+00:00</time></trkpt><trkpt lat="39.47239704" lon="-0.37054114"><ele>-44.4</ele><time>2022-10-30T14:42:28.0000000+00:00</time></trkpt><trkpt lat="39.47239704" lon="-0.37054298"><ele>-44.4</ele><time>2022-10-30T14:42:29.0000000+00:00</time></trkpt><trkpt lat="39.47239537" lon="-0.37054282"><ele>-44.4</ele><time>2022-10-30T14:42:30.0000000+00:00</time></trkpt><trkpt lat="39.47239738" lon="-0.37054332"><ele>-44.4</ele><time>2022-10-30T14:42:31.0000000+00:00</time></trkpt><trkpt lat="39.47240065" lon="-0.3705424"><ele>-44.4</ele><time>2022-10-30T14:42:32.0000000+00:00</time></trkpt><trkpt lat="39.47240844" lon="-0.37053452"><ele>-44.4</ele><time>2022-10-30T14:42:33.0000000+00:00</time></trkpt><trkpt lat="39.47241029" lon="-0.37053217"><ele>-44.4</ele><time>2022-10-30T14:42:34.0000000+00:00</time></trkpt><trkpt lat="39.47241406" lon="-0.3705315"><ele>-44.4</ele><time>2022-10-30T14:42:35.0000000+00:00</time></trkpt><trkpt lat="39.47242479" lon="-0.37051901"><ele>-44.4</ele><time>2022-10-30T14:42:36.0000000+00:00</time></trkpt><trkpt lat="39.47243703" lon="-0.37050325"><ele>-44.4</ele><time>2022-10-30T14:42:37.0000000+00:00</time></trkpt><trkpt lat="39.47244809" lon="-0.37047216"><ele>-44.4</ele><time>2022-10-30T14:42:38.0000000+00:00</time></trkpt><trkpt lat="39.47246091" lon="-0.37046537"><ele>-44.4</ele><time>2022-10-30T14:42:39.0000000+00:00</time></trkpt><trkpt lat="39.47246008" lon="-0.37046126"><ele>-44.4</ele><time>2022-10-30T14:42:40.0000000+00:00</time></trkpt><trkpt lat="39.47246075" lon="-0.37044735"><ele>-44.4</ele><time>2022-10-30T14:42:41.0000000+00:00</time></trkpt><trkpt lat="39.47247005" lon="-0.37043637"><ele>-44.4</ele><time>2022-10-30T14:42:42.0000000+00:00</time></trkpt><trkpt lat="39.47247575" lon="-0.37042606"><ele>-44.4</ele><time>2022-10-30T14:42:43.0000000+00:00</time></trkpt><trkpt lat="39.47247994" lon="-0.37041801"><ele>-44.4</ele><time>2022-10-30T14:42:44.0000000+00:00</time></trkpt><trkpt lat="39.47248447" lon="-0.37041784"><ele>-44.4</ele><time>2022-10-30T14:42:45.0000000+00:00</time></trkpt><trkpt lat="39.4724864" lon="-0.37041927"><ele>-44.4</ele><time>2022-10-30T14:42:46.0000000+00:00</time></trkpt><trkpt lat="39.47248606" lon="-0.37041985"><ele>-44.4</ele><time>2022-10-30T14:42:47.0000000+00:00</time></trkpt><trkpt lat="39.47249411" lon="-0.37041491"><ele>-44.4</ele><time>2022-10-30T14:42:48.0000000+00:00</time></trkpt><trkpt lat="39.47250651" lon="-0.37040753"><ele>-44.2</ele><time>2022-10-30T14:42:49.0000000+00:00</time></trkpt><trkpt lat="39.4725252" lon="-0.37040695"><ele>-44.2</ele><time>2022-10-30T14:42:50.0000000+00:00</time></trkpt><trkpt lat="39.47254046" lon="-0.37041432"><ele>-44.2</ele><time>2022-10-30T14:42:51.0000000+00:00</time></trkpt><trkpt lat="39.47254993" lon="-0.37042111"><ele>-44.2</ele><time>2022-10-30T14:42:52.0000000+00:00</time></trkpt><trkpt lat="39.47256041" lon="-0.37043436"><ele>-44.2</ele><time>2022-10-30T14:42:53.0000000+00:00</time></trkpt><trkpt lat="39.47257265" lon="-0.37044819"><ele>-44.0</ele><time>2022-10-30T14:42:54.0000000+00:00</time></trkpt><trkpt lat="39.47258287" lon="-0.37046059"><ele>-44.0</ele><time>2022-10-30T14:42:55.0000000+00:00</time></trkpt><trkpt lat="39.4725936" lon="-0.37047719"><ele>-44.0</ele><time>2022-10-30T14:42:56.0000000+00:00</time></trkpt><trkpt lat="39.47260324" lon="-0.37049227"><ele>-44.0</ele><time>2022-10-30T14:42:57.0000000+00:00</time></trkpt><trkpt lat="39.47261715" lon="-0.37050292"><ele>-44.0</ele><time>2022-10-30T14:42:58.0000000+00:00</time></trkpt><trkpt lat="39.47262679" lon="-0.37050493"><ele>-44.0</ele><time>2022-10-30T14:42:59.0000000+00:00</time></trkpt><trkpt lat="39.4726314" lon="-0.3705004"><ele>-43.8</ele><time>2022-10-30T14:43:00.0000000+00:00</time></trkpt><trkpt lat="39.47263367" lon="-0.37050233"><ele>-43.8</ele><time>2022-10-30T14:43:01.0000000+00:00</time></trkpt><trkpt lat="39.47263962" lon="-0.37049504"><ele>-43.8</ele><time>2022-10-30T14:43:02.0000000+00:00</time></trkpt><trkpt lat="39.47264364" lon="-0.37048356"><ele>-43.8</ele><time>2022-10-30T14:43:03.0000000+00:00</time></trkpt><trkpt lat="39.47264339" lon="-0.37047861"><ele>-43.8</ele><time>2022-10-30T14:43:04.0000000+00:00</time></trkpt><trkpt lat="39.47264657" lon="-0.37047467"><ele>-43.8</ele><time>2022-10-30T14:43:05.0000000+00:00</time></trkpt><trkpt lat="39.47264398" lon="-0.37047174"><ele>-43.6</ele><time>2022-10-30T14:43:06.0000000+00:00</time></trkpt><trkpt lat="39.47265646" lon="-0.37046"><ele>-43.6</ele><time>2022-10-30T14:43:07.0000000+00:00</time></trkpt><trkpt lat="39.47267071" lon="-0.37044257"><ele>-43.6</ele><time>2022-10-30T14:43:08.0000000+00:00</time></trkpt><trkpt lat="39.47268421" lon="-0.37042514"><ele>-43.6</ele><time>2022-10-30T14:43:09.0000000+00:00</time></trkpt><trkpt lat="39.47269619" lon="-0.37041198"><ele>-43.6</ele><time>2022-10-30T14:43:10.0000000+00:00</time></trkpt><trkpt lat="39.47270139" lon="-0.37040074"><ele>-43.6</ele><time>2022-10-30T14:43:11.0000000+00:00</time></trkpt><trkpt lat="39.47270039" lon="-0.37038934"><ele>-43.6</ele><time>2022-10-30T14:43:12.0000000+00:00</time></trkpt><trkpt lat="39.47270625" lon="-0.37037375"><ele>-43.6</ele><time>2022-10-30T14:43:13.0000000+00:00</time></trkpt><trkpt lat="39.4727112" lon="-0.37035146"><ele>-43.6</ele><time>2022-10-30T14:43:14.0000000+00:00</time></trkpt><trkpt lat="39.4727122" lon="-0.37032631"><ele>-43.6</ele><time>2022-10-30T14:43:15.0000000+00:00</time></trkpt><trkpt lat="39.47271044" lon="-0.3703041"><ele>-43.6</ele><time>2022-10-30T14:43:16.0000000+00:00</time></trkpt><trkpt lat="39.47271036" lon="-0.37028222"><ele>-43.6</ele><time>2022-10-30T14:43:17.0000000+00:00</time></trkpt><trkpt lat="39.47271413" lon="-0.37025842"><ele>-43.6</ele><time>2022-10-30T14:43:18.0000000+00:00</time></trkpt><trkpt lat="39.47271363" lon="-0.37024149"><ele>-43.6</ele><time>2022-10-30T14:43:19.0000000+00:00</time></trkpt><trkpt lat="39.47270969" lon="-0.37023453"><ele>-43.6</ele><time>2022-10-30T14:43:20.0000000+00:00</time></trkpt><trkpt lat="39.47269251" lon="-0.37022187"><ele>-43.8</ele><time>2022-10-30T14:43:21.0000000+00:00</time></trkpt><trkpt lat="39.4726832" lon="-0.37020771"><ele>-43.8</ele><time>2022-10-30T14:43:22.0000000+00:00</time></trkpt><trkpt lat="39.47267289" lon="-0.37018851"><ele>-43.8</ele><time>2022-10-30T14:43:23.0000000+00:00</time></trkpt><trkpt lat="39.472663" lon="-0.37016354"><ele>-43.6</ele><time>2022-10-30T14:43:24.0000000+00:00</time></trkpt><trkpt lat="39.47265361" lon="-0.370143"><ele>-43.6</ele><time>2022-10-30T14:43:25.0000000+00:00</time></trkpt><trkpt lat="39.47265211" lon="-0.37012649"><ele>-43.6</ele><time>2022-10-30T14:43:26.0000000+00:00</time></trkpt><trkpt lat="39.47265336" lon="-0.3701197"><ele>-43.6</ele><time>2022-10-30T14:43:27.0000000+00:00</time></trkpt><trkpt lat="39.47265596" lon="-0.37011878"><ele>-43.6</ele><time>2022-10-30T14:43:28.0000000+00:00</time></trkpt><trkpt lat="39.47265613" lon="-0.37011383"><ele>-43.6</ele><time>2022-10-30T14:43:29.0000000+00:00</time></trkpt><trkpt lat="39.4726563" lon="-0.37010595"><ele>-43.6</ele><time>2022-10-30T14:43:30.0000000+00:00</time></trkpt><trkpt lat="39.47265529" lon="-0.37010235"><ele>-43.6</ele><time>2022-10-30T14:43:31.0000000+00:00</time></trkpt><trkpt lat="39.47265378" lon="-0.37010059"><ele>-43.6</ele><time>2022-10-30T14:43:32.0000000+00:00</time></trkpt><trkpt lat="39.47265747" lon="-0.37010654"><ele>-43.6</ele><time>2022-10-30T14:43:33.0000000+00:00</time></trkpt><trkpt lat="39.47265638" lon="-0.37010922"><ele>-43.6</ele><time>2022-10-30T14:43:34.0000000+00:00</time></trkpt><trkpt lat="39.47265663" lon="-0.37011123"><ele>-43.6</ele><time>2022-10-30T14:43:35.0000000+00:00</time></trkpt><trkpt lat="39.47265236" lon="-0.3701223"><ele>-43.6</ele><time>2022-10-30T14:43:36.0000000+00:00</time></trkpt><trkpt lat="39.47265026" lon="-0.37012431"><ele>-43.6</ele><time>2022-10-30T14:43:37.0000000+00:00</time></trkpt><trkpt lat="39.47264993" lon="-0.3701254"><ele>-43.6</ele><time>2022-10-30T14:43:38.0000000+00:00</time></trkpt><trkpt lat="39.4726506" lon="-0.37012607"><ele>-43.6</ele><time>2022-10-30T14:43:39.0000000+00:00</time></trkpt><trkpt lat="39.47264892" lon="-0.37012825"><ele>-43.6</ele><time>2022-10-30T14:43:40.0000000+00:00</time></trkpt><trkpt lat="39.4726485" lon="-0.37012791"><ele>-43.8</ele><time>2022-10-30T14:43:41.0000000+00:00</time></trkpt><trkpt lat="39.4726485" lon="-0.37012791"><ele>-43.8</ele><time>2022-10-30T14:43:42.0000000+00:00</time></trkpt><trkpt lat="39.4726485" lon="-0.37012791"><ele>-43.8</ele><time>2022-10-30T14:43:43.0000000+00:00</time></trkpt><trkpt lat="39.4726485" lon="-0.37012791"><ele>-43.8</ele><time>2022-10-30T14:43:44.0000000+00:00</time></trkpt><trkpt lat="39.4726485" lon="-0.37012791"><ele>-43.8</ele><time>2022-10-30T14:43:45.0000000+00:00</time></trkpt><trkpt lat="39.4726485" lon="-0.37012791"><ele>-43.8</ele><time>2022-10-30T14:43:46.0000000+00:00</time></trkpt><trkpt lat="39.4726485" lon="-0.37012791"><ele>-43.8</ele><time>2022-10-30T14:43:47.0000000+00:00</time></trkpt><trkpt lat="39.4726485" lon="-0.37012791"><ele>-43.8</ele><time>2022-10-30T14:43:48.0000000+00:00</time></trkpt><trkpt lat="39.4726485" lon="-0.37012791"><ele>-43.8</ele><time>2022-10-30T14:43:49.0000000+00:00</time></trkpt><trkpt lat="39.4726485" lon="-0.37012791"><ele>-43.8</ele><time>2022-10-30T14:43:50.0000000+00:00</time></trkpt><trkpt lat="39.4726485" lon="-0.37012791"><ele>-43.8</ele><time>2022-10-30T14:43:51.0000000+00:00</time></trkpt><trkpt lat="39.4726485" lon="-0.37012791"><ele>-43.8</ele><time>2022-10-30T14:43:52.0000000+00:00</time></trkpt><trkpt lat="39.4726485" lon="-0.37012791"><ele>-43.8</ele><time>2022-10-30T14:43:53.0000000+00:00</time></trkpt><trkpt lat="39.4726485" lon="-0.37012624"><ele>-43.8</ele><time>2022-10-30T14:43:54.0000000+00:00</time></trkpt><trkpt lat="39.4726485" lon="-0.37012548"><ele>-43.8</ele><time>2022-10-30T14:43:55.0000000+00:00</time></trkpt><trkpt lat="39.4726485" lon="-0.37012439"><ele>-43.8</ele><time>2022-10-30T14:43:56.0000000+00:00</time></trkpt><trkpt lat="39.47264792" lon="-0.37012355"><ele>-43.8</ele><time>2022-10-30T14:43:57.0000000+00:00</time></trkpt><trkpt lat="39.47264649" lon="-0.37012246"><ele>-43.8</ele><time>2022-10-30T14:43:58.0000000+00:00</time></trkpt><trkpt lat="39.47264632" lon="-0.37012213"><ele>-43.8</ele><time>2022-10-30T14:43:59.0000000+00:00</time></trkpt><trkpt lat="39.47264582" lon="-0.37012171"><ele>-43.8</ele><time>2022-10-30T14:44:00.0000000+00:00</time></trkpt><trkpt lat="39.4726449" lon="-0.37012146"><ele>-43.8</ele><time>2022-10-30T14:44:01.0000000+00:00</time></trkpt><trkpt lat="39.47264448" lon="-0.37012138"><ele>-43.8</ele><time>2022-10-30T14:44:02.0000000+00:00</time></trkpt><trkpt lat="39.47264331" lon="-0.37012138"><ele>-43.8</ele><time>2022-10-30T14:44:03.0000000+00:00</time></trkpt><trkpt lat="39.47264213" lon="-0.37012138"><ele>-43.8</ele><time>2022-10-30T14:44:04.0000000+00:00</time></trkpt><trkpt lat="39.47264205" lon="-0.37011635"><ele>-43.8</ele><time>2022-10-30T14:44:05.0000000+00:00</time></trkpt><trkpt lat="39.4726454" lon="-0.37009413"><ele>-43.6</ele><time>2022-10-30T14:44:06.0000000+00:00</time></trkpt><trkpt lat="39.47265009" lon="-0.37007041"><ele>-43.6</ele><time>2022-10-30T14:44:07.0000000+00:00</time></trkpt><trkpt lat="39.47265747" lon="-0.37004803"><ele>-43.6</ele><time>2022-10-30T14:44:08.0000000+00:00</time></trkpt><trkpt lat="39.47266434" lon="-0.37002624"><ele>-43.6</ele><time>2022-10-30T14:44:09.0000000+00:00</time></trkpt><trkpt lat="39.47266652" lon="-0.37000403"><ele>-43.6</ele><time>2022-10-30T14:44:10.0000000+00:00</time></trkpt><trkpt lat="39.47266728" lon="-0.36998106"><ele>-43.6</ele><time>2022-10-30T14:44:11.0000000+00:00</time></trkpt><trkpt lat="39.47266887" lon="-0.3699591"><ele>-43.6</ele><time>2022-10-30T14:44:12.0000000+00:00</time></trkpt><trkpt lat="39.47267138" lon="-0.36993823"><ele>-43.6</ele><time>2022-10-30T14:44:13.0000000+00:00</time></trkpt><trkpt lat="39.47267868" lon="-0.36991996"><ele>-43.6</ele><time>2022-10-30T14:44:14.0000000+00:00</time></trkpt><trkpt lat="39.47268262" lon="-0.36990521"><ele>-43.6</ele><time>2022-10-30T14:44:15.0000000+00:00</time></trkpt><trkpt lat="39.47269242" lon="-0.36989045"><ele>-43.6</ele><time>2022-10-30T14:44:16.0000000+00:00</time></trkpt><trkpt lat="39.47270433" lon="-0.36987872"><ele>-43.6</ele><time>2022-10-30T14:44:17.0000000+00:00</time></trkpt><trkpt lat="39.47271028" lon="-0.36986548"><ele>-43.6</ele><time>2022-10-30T14:44:18.0000000+00:00</time></trkpt><trkpt lat="39.47271497" lon="-0.36985592"><ele>-43.6</ele><time>2022-10-30T14:44:19.0000000+00:00</time></trkpt><trkpt lat="39.47271656" lon="-0.3698446"><ele>-43.6</ele><time>2022-10-30T14:44:20.0000000+00:00</time></trkpt><trkpt lat="39.47272033" lon="-0.36983379"><ele>-43.6</ele><time>2022-10-30T14:44:21.0000000+00:00</time></trkpt><trkpt lat="39.47272528" lon="-0.3698286"><ele>-43.6</ele><time>2022-10-30T14:44:22.0000000+00:00</time></trkpt><trkpt lat="39.47272763" lon="-0.3698239"><ele>-43.6</ele><time>2022-10-30T14:44:23.0000000+00:00</time></trkpt><trkpt lat="39.47274121" lon="-0.36982231"><ele>-43.6</ele><time>2022-10-30T14:44:24.0000000+00:00</time></trkpt><trkpt lat="39.47275428" lon="-0.36981619"><ele>-43.6</ele><time>2022-10-30T14:44:25.0000000+00:00</time></trkpt><trkpt lat="39.47276266" lon="-0.36980663"><ele>-43.6</ele><time>2022-10-30T14:44:26.0000000+00:00</time></trkpt><trkpt lat="39.47276375" lon="-0.36979482"><ele>-43.6</ele><time>2022-10-30T14:44:27.0000000+00:00</time></trkpt><trkpt lat="39.47276551" lon="-0.36978099"><ele>-43.6</ele><time>2022-10-30T14:44:28.0000000+00:00</time></trkpt><trkpt lat="39.47276652" lon="-0.36976917"><ele>-43.6</ele><time>2022-10-30T14:44:29.0000000+00:00</time></trkpt><trkpt lat="39.4727697" lon="-0.36975869"><ele>-43.6</ele><time>2022-10-30T14:44:30.0000000+00:00</time></trkpt><trkpt lat="39.47276459" lon="-0.36974578"><ele>-43.6</ele><time>2022-10-30T14:44:31.0000000+00:00</time></trkpt><trkpt lat="39.47276115" lon="-0.3697338"><ele>-43.6</ele><time>2022-10-30T14:44:32.0000000+00:00</time></trkpt><trkpt lat="39.47275898" lon="-0.36972315"><ele>-43.6</ele><time>2022-10-30T14:44:33.0000000+00:00</time></trkpt><trkpt lat="39.47275579" lon="-0.36971251"><ele>-43.6</ele><time>2022-10-30T14:44:34.0000000+00:00</time></trkpt><trkpt lat="39.47275328" lon="-0.36970027"><ele>-43.6</ele><time>2022-10-30T14:44:35.0000000+00:00</time></trkpt><trkpt lat="39.47274707" lon="-0.36968635"><ele>-43.6</ele><time>2022-10-30T14:44:36.0000000+00:00</time></trkpt><trkpt lat="39.47274531" lon="-0.36967403"><ele>-43.6</ele><time>2022-10-30T14:44:37.0000000+00:00</time></trkpt><trkpt lat="39.47274171" lon="-0.36965794"><ele>-43.6</ele><time>2022-10-30T14:44:38.0000000+00:00</time></trkpt><trkpt lat="39.47273961" lon="-0.36964285"><ele>-43.6</ele><time>2022-10-30T14:44:39.0000000+00:00</time></trkpt><trkpt lat="39.47274095" lon="-0.36962911"><ele>-43.4</ele><time>2022-10-30T14:44:40.0000000+00:00</time></trkpt><trkpt lat="39.47274129" lon="-0.36962039"><ele>-43.4</ele><time>2022-10-30T14:44:41.0000000+00:00</time></trkpt><trkpt lat="39.47274196" lon="-0.36961729"><ele>-43.4</ele><time>2022-10-30T14:44:42.0000000+00:00</time></trkpt><trkpt lat="39.47274623" lon="-0.36960756"><ele>-43.4</ele><time>2022-10-30T14:44:43.0000000+00:00</time></trkpt><trkpt lat="39.47274682" lon="-0.3695965"><ele>-43.4</ele><time>2022-10-30T14:44:44.0000000+00:00</time></trkpt><trkpt lat="39.47274288" lon="-0.36958586"><ele>-43.4</ele><time>2022-10-30T14:44:45.0000000+00:00</time></trkpt><trkpt lat="39.47273601" lon="-0.36957638"><ele>-43.4</ele><time>2022-10-30T14:44:46.0000000+00:00</time></trkpt><trkpt lat="39.47272645" lon="-0.36957228"><ele>-43.2</ele><time>2022-10-30T14:44:47.0000000+00:00</time></trkpt><trkpt lat="39.47271329" lon="-0.36956943"><ele>-43.2</ele><time>2022-10-30T14:44:48.0000000+00:00</time></trkpt><trkpt lat="39.47269863" lon="-0.36956457"><ele>-43.2</ele><time>2022-10-30T14:44:49.0000000+00:00</time></trkpt><trkpt lat="39.47269091" lon="-0.36955794"><ele>-43.2</ele><time>2022-10-30T14:44:50.0000000+00:00</time></trkpt><trkpt lat="39.47267767" lon="-0.36955375"><ele>-43.2</ele><time>2022-10-30T14:44:51.0000000+00:00</time></trkpt><trkpt lat="39.47266602" lon="-0.3695618"><ele>-43.2</ele><time>2022-10-30T14:44:52.0000000+00:00</time></trkpt><trkpt lat="39.47266384" lon="-0.36956197"><ele>-43.2</ele><time>2022-10-30T14:44:53.0000000+00:00</time></trkpt><trkpt lat="39.47265605" lon="-0.36954545"><ele>-43.2</ele><time>2022-10-30T14:44:54.0000000+00:00</time></trkpt><trkpt lat="39.47263769" lon="-0.36953975"><ele>-43.2</ele><time>2022-10-30T14:44:55.0000000+00:00</time></trkpt><trkpt lat="39.47262419" lon="-0.36953799"><ele>-43.2</ele><time>2022-10-30T14:44:56.0000000+00:00</time></trkpt><trkpt lat="39.47261598" lon="-0.36953607"><ele>-43.2</ele><time>2022-10-30T14:44:57.0000000+00:00</time></trkpt><trkpt lat="39.47261204" lon="-0.36953297"><ele>-43.2</ele><time>2022-10-30T14:44:58.0000000+00:00</time></trkpt><trkpt lat="39.47261816" lon="-0.36952852"><ele>-43.2</ele><time>2022-10-30T14:44:59.0000000+00:00</time></trkpt><trkpt lat="39.47260215" lon="-0.3695105"><ele>-43.2</ele><time>2022-10-30T14:45:00.0000000+00:00</time></trkpt><trkpt lat="39.47259352" lon="-0.36950841"><ele>-43.2</ele><time>2022-10-30T14:45:01.0000000+00:00</time></trkpt><trkpt lat="39.4725853" lon="-0.36950153"><ele>-43.2</ele><time>2022-10-30T14:45:02.0000000+00:00</time></trkpt><trkpt lat="39.47258572" lon="-0.36948133"><ele>-43.4</ele><time>2022-10-30T14:45:03.0000000+00:00</time></trkpt><trkpt lat="39.47257072" lon="-0.36946784"><ele>-43.4</ele><time>2022-10-30T14:45:04.0000000+00:00</time></trkpt><trkpt lat="39.47255965" lon="-0.36945694"><ele>-43.4</ele><time>2022-10-30T14:45:05.0000000+00:00</time></trkpt><trkpt lat="39.4725765" lon="-0.36944336"><ele>-43.4</ele><time>2022-10-30T14:45:06.0000000+00:00</time></trkpt><trkpt lat="39.47258287" lon="-0.3694323"><ele>-43.4</ele><time>2022-10-30T14:45:07.0000000+00:00</time></trkpt><trkpt lat="39.47258111" lon="-0.36942425"><ele>-43.4</ele><time>2022-10-30T14:45:08.0000000+00:00</time></trkpt><trkpt lat="39.4725796" lon="-0.36942232"><ele>-43.2</ele><time>2022-10-30T14:45:09.0000000+00:00</time></trkpt><trkpt lat="39.47258312" lon="-0.36942157"><ele>-43.2</ele><time>2022-10-30T14:45:10.0000000+00:00</time></trkpt><trkpt lat="39.47258715" lon="-0.36942341"><ele>-43.2</ele><time>2022-10-30T14:45:11.0000000+00:00</time></trkpt><trkpt lat="39.47257256" lon="-0.36941545"><ele>-43.2</ele><time>2022-10-30T14:45:12.0000000+00:00</time></trkpt><trkpt lat="39.47257508" lon="-0.36941419"><ele>-43.2</ele><time>2022-10-30T14:45:13.0000000+00:00</time></trkpt><trkpt lat="39.47256703" lon="-0.36941587"><ele>-43.0</ele><time>2022-10-30T14:45:14.0000000+00:00</time></trkpt><trkpt lat="39.47255722" lon="-0.36941218"><ele>-43.0</ele><time>2022-10-30T14:45:15.0000000+00:00</time></trkpt><trkpt lat="39.47254499" lon="-0.36941847"><ele>-43.0</ele><time>2022-10-30T14:45:16.0000000+00:00</time></trkpt><trkpt lat="39.47253342" lon="-0.36942895"><ele>-43.0</ele><time>2022-10-30T14:45:17.0000000+00:00</time></trkpt><trkpt lat="39.47251808" lon="-0.36943917"><ele>-43.0</ele><time>2022-10-30T14:45:18.0000000+00:00</time></trkpt><trkpt lat="39.47249821" lon="-0.3694463"><ele>-43.2</ele><time>2022-10-30T14:45:19.0000000+00:00</time></trkpt><trkpt lat="39.47246955" lon="-0.36945024"><ele>-43.2</ele><time>2022-10-30T14:45:20.0000000+00:00</time></trkpt><trkpt lat="39.47246435" lon="-0.36945049"><ele>-43.2</ele><time>2022-10-30T14:45:21.0000000+00:00</time></trkpt><trkpt lat="39.47244834" lon="-0.36945275"><ele>-43.2</ele><time>2022-10-30T14:45:22.0000000+00:00</time></trkpt><trkpt lat="39.47243091" lon="-0.36945703"><ele>-43.4</ele><time>2022-10-30T14:45:23.0000000+00:00</time></trkpt><trkpt lat="39.47241917" lon="-0.36946465"><ele>-43.4</ele><time>2022-10-30T14:45:24.0000000+00:00</time></trkpt><trkpt lat="39.47241389" lon="-0.36946465"><ele>-43.4</ele><time>2022-10-30T14:45:25.0000000+00:00</time></trkpt><trkpt lat="39.47240476" lon="-0.36948209"><ele>-43.4</ele><time>2022-10-30T14:45:26.0000000+00:00</time></trkpt><trkpt lat="39.47240543" lon="-0.36948779"><ele>-43.4</ele><time>2022-10-30T14:45:27.0000000+00:00</time></trkpt><trkpt lat="39.47239637" lon="-0.36947999"><ele>-43.4</ele><time>2022-10-30T14:45:28.0000000+00:00</time></trkpt><trkpt lat="39.4723957" lon="-0.36948075"><ele>-43.4</ele><time>2022-10-30T14:45:29.0000000+00:00</time></trkpt><trkpt lat="39.47238908" lon="-0.36947396"><ele>-43.6</ele><time>2022-10-30T14:45:30.0000000+00:00</time></trkpt><trkpt lat="39.4723807" lon="-0.36946616"><ele>-43.4</ele><time>2022-10-30T14:45:31.0000000+00:00</time></trkpt><trkpt lat="39.47237643" lon="-0.36946599"><ele>-43.4</ele><time>2022-10-30T14:45:32.0000000+00:00</time></trkpt><trkpt lat="39.47237358" lon="-0.36946474"><ele>-43.4</ele><time>2022-10-30T14:45:33.0000000+00:00</time></trkpt><trkpt lat="39.4723781" lon="-0.36946842"><ele>-43.4</ele><time>2022-10-30T14:45:34.0000000+00:00</time></trkpt><trkpt lat="39.47237835" lon="-0.36946666"><ele>-43.4</ele><time>2022-10-30T14:45:35.0000000+00:00</time></trkpt><trkpt lat="39.47237961" lon="-0.36946516"><ele>-43.4</ele><time>2022-10-30T14:45:36.0000000+00:00</time></trkpt><trkpt lat="39.47238732" lon="-0.36945837"><ele>-43.4</ele><time>2022-10-30T14:45:37.0000000+00:00</time></trkpt><trkpt lat="39.47238799" lon="-0.36945426"><ele>-43.6</ele><time>2022-10-30T14:45:38.0000000+00:00</time></trkpt><trkpt lat="39.47238833" lon="-0.36945602"><ele>-43.6</ele><time>2022-10-30T14:45:39.0000000+00:00</time></trkpt><trkpt lat="39.47239009" lon="-0.36946029"><ele>-43.6</ele><time>2022-10-30T14:45:40.0000000+00:00</time></trkpt><trkpt lat="39.47239135" lon="-0.36947127"><ele>-43.6</ele><time>2022-10-30T14:45:41.0000000+00:00</time></trkpt><trkpt lat="39.47239176" lon="-0.3694722"><ele>-43.6</ele><time>2022-10-30T14:45:42.0000000+00:00</time></trkpt><trkpt lat="39.47239277" lon="-0.36946608"><ele>-43.6</ele><time>2022-10-30T14:45:43.0000000+00:00</time></trkpt><trkpt lat="39.47239545" lon="-0.3694489"><ele>-43.6</ele><time>2022-10-30T14:45:44.0000000+00:00</time></trkpt><trkpt lat="39.47239805" lon="-0.36943892"><ele>-43.6</ele><time>2022-10-30T14:45:45.0000000+00:00</time></trkpt><trkpt lat="39.47239906" lon="-0.36943909"><ele>-43.6</ele><time>2022-10-30T14:45:46.0000000+00:00</time></trkpt><trkpt lat="39.47239763" lon="-0.3694375"><ele>-43.6</ele><time>2022-10-30T14:45:47.0000000+00:00</time></trkpt><trkpt lat="39.47239537" lon="-0.36943582"><ele>-43.6</ele><time>2022-10-30T14:45:48.0000000+00:00</time></trkpt><trkpt lat="39.47239512" lon="-0.36943423"><ele>-43.6</ele><time>2022-10-30T14:45:49.0000000+00:00</time></trkpt><trkpt lat="39.4723957" lon="-0.36943448"><ele>-43.6</ele><time>2022-10-30T14:45:50.0000000+00:00</time></trkpt><trkpt lat="39.47239663" lon="-0.3694354"><ele>-43.6</ele><time>2022-10-30T14:45:51.0000000+00:00</time></trkpt><trkpt lat="39.47239872" lon="-0.36943666"><ele>-43.6</ele><time>2022-10-30T14:45:52.0000000+00:00</time></trkpt><trkpt lat="39.4724004" lon="-0.36943791"><ele>-43.6</ele><time>2022-10-30T14:45:53.0000000+00:00</time></trkpt><trkpt lat="39.47240191" lon="-0.36943649"><ele>-43.6</ele><time>2022-10-30T14:45:54.0000000+00:00</time></trkpt><trkpt lat="39.47240132" lon="-0.36943607"><ele>-43.6</ele><time>2022-10-30T14:45:55.0000000+00:00</time></trkpt><trkpt lat="39.47239973" lon="-0.36943398"><ele>-43.6</ele><time>2022-10-30T14:45:56.0000000+00:00</time></trkpt><trkpt lat="39.47239872" lon="-0.36943347"><ele>-43.6</ele><time>2022-10-30T14:45:57.0000000+00:00</time></trkpt><trkpt lat="39.47240015" lon="-0.36943959"><ele>-43.6</ele><time>2022-10-30T14:45:58.0000000+00:00</time></trkpt><trkpt lat="39.47240157" lon="-0.36944135"><ele>-43.6</ele><time>2022-10-30T14:45:59.0000000+00:00</time></trkpt><trkpt lat="39.47240098" lon="-0.3694411"><ele>-43.6</ele><time>2022-10-30T14:46:00.0000000+00:00</time></trkpt><trkpt lat="39.47239914" lon="-0.36944093"><ele>-43.6</ele><time>2022-10-30T14:46:01.0000000+00:00</time></trkpt><trkpt lat="39.47239763" lon="-0.36944093"><ele>-43.6</ele><time>2022-10-30T14:46:02.0000000+00:00</time></trkpt><trkpt lat="39.47239973" lon="-0.36944093"><ele>-43.6</ele><time>2022-10-30T14:46:03.0000000+00:00</time></trkpt><trkpt lat="39.47240165" lon="-0.36944336"><ele>-43.6</ele><time>2022-10-30T14:46:04.0000000+00:00</time></trkpt><trkpt lat="39.47240082" lon="-0.36944294"><ele>-43.6</ele><time>2022-10-30T14:46:05.0000000+00:00</time></trkpt><trkpt lat="39.47240082" lon="-0.369438"><ele>-43.6</ele><time>2022-10-30T14:46:06.0000000+00:00</time></trkpt><trkpt lat="39.47240258" lon="-0.36943322"><ele>-43.6</ele><time>2022-10-30T14:46:07.0000000+00:00</time></trkpt><trkpt lat="39.47240325" lon="-0.36942911"><ele>-43.6</ele><time>2022-10-30T14:46:08.0000000+00:00</time></trkpt><trkpt lat="39.47240358" lon="-0.36942509"><ele>-43.8</ele><time>2022-10-30T14:46:09.0000000+00:00</time></trkpt><trkpt lat="39.47240383" lon="-0.36942048"><ele>-43.8</ele><time>2022-10-30T14:46:10.0000000+00:00</time></trkpt><trkpt lat="39.4724045" lon="-0.3694121"><ele>-43.8</ele><time>2022-10-30T14:46:11.0000000+00:00</time></trkpt><trkpt lat="39.47240417" lon="-0.36941042"><ele>-43.6</ele><time>2022-10-30T14:46:12.0000000+00:00</time></trkpt><trkpt lat="39.47240392" lon="-0.36941143"><ele>-43.6</ele><time>2022-10-30T14:46:13.0000000+00:00</time></trkpt><trkpt lat="39.47240291" lon="-0.36941386"><ele>-43.6</ele><time>2022-10-30T14:46:14.0000000+00:00</time></trkpt><trkpt lat="39.47240216" lon="-0.36941512"><ele>-43.6</ele><time>2022-10-30T14:46:15.0000000+00:00</time></trkpt><trkpt lat="39.47240249" lon="-0.36941612"><ele>-43.6</ele><time>2022-10-30T14:46:16.0000000+00:00</time></trkpt><trkpt lat="39.47240266" lon="-0.36941721"><ele>-43.6</ele><time>2022-10-30T14:46:17.0000000+00:00</time></trkpt><trkpt lat="39.47240174" lon="-0.3694183"><ele>-43.6</ele><time>2022-10-30T14:46:18.0000000+00:00</time></trkpt><trkpt lat="39.47239998" lon="-0.36941738"><ele>-43.6</ele><time>2022-10-30T14:46:19.0000000+00:00</time></trkpt><trkpt lat="39.47239839" lon="-0.36941696"><ele>-43.6</ele><time>2022-10-30T14:46:20.0000000+00:00</time></trkpt><trkpt lat="39.47239914" lon="-0.3694183"><ele>-43.6</ele><time>2022-10-30T14:46:21.0000000+00:00</time></trkpt><trkpt lat="39.47240082" lon="-0.3694188"><ele>-43.6</ele><time>2022-10-30T14:46:22.0000000+00:00</time></trkpt><trkpt lat="39.47240526" lon="-0.36941319"><ele>-43.6</ele><time>2022-10-30T14:46:23.0000000+00:00</time></trkpt><trkpt lat="39.4724061" lon="-0.36941336"><ele>-43.6</ele><time>2022-10-30T14:46:24.0000000+00:00</time></trkpt><trkpt lat="39.47240559" lon="-0.36940481"><ele>-43.6</ele><time>2022-10-30T14:46:25.0000000+00:00</time></trkpt><trkpt lat="39.47240501" lon="-0.3694007"><ele>-43.6</ele><time>2022-10-30T14:46:26.0000000+00:00</time></trkpt><trkpt lat="39.47240258" lon="-0.36940062"><ele>-43.6</ele><time>2022-10-30T14:46:27.0000000+00:00</time></trkpt><trkpt lat="39.47240224" lon="-0.3694038"><ele>-43.6</ele><time>2022-10-30T14:46:28.0000000+00:00</time></trkpt><trkpt lat="39.47240526" lon="-0.36939986"><ele>-43.6</ele><time>2022-10-30T14:46:29.0000000+00:00</time></trkpt><trkpt lat="39.47240157" lon="-0.36939877"><ele>-43.6</ele><time>2022-10-30T14:46:30.0000000+00:00</time></trkpt><trkpt lat="39.47240048" lon="-0.36940112"><ele>-43.6</ele><time>2022-10-30T14:46:31.0000000+00:00</time></trkpt><trkpt lat="39.47239126" lon="-0.36940531"><ele>-43.6</ele><time>2022-10-30T14:46:32.0000000+00:00</time></trkpt><trkpt lat="39.4723921" lon="-0.36941277"><ele>-43.6</ele><time>2022-10-30T14:46:33.0000000+00:00</time></trkpt><trkpt lat="39.47239042" lon="-0.36941486"><ele>-43.6</ele><time>2022-10-30T14:46:34.0000000+00:00</time></trkpt><trkpt lat="39.47239235" lon="-0.36941805"><ele>-43.4</ele><time>2022-10-30T14:46:35.0000000+00:00</time></trkpt><trkpt lat="39.47238355" lon="-0.36941839"><ele>-43.4</ele><time>2022-10-30T14:46:36.0000000+00:00</time></trkpt><trkpt lat="39.47238137" lon="-0.36943817"><ele>-43.4</ele><time>2022-10-30T14:46:37.0000000+00:00</time></trkpt><trkpt lat="39.47239" lon="-0.36947664"><ele>-43.4</ele><time>2022-10-30T14:46:38.0000000+00:00</time></trkpt><trkpt lat="39.47239922" lon="-0.36949466"><ele>-43.4</ele><time>2022-10-30T14:46:39.0000000+00:00</time></trkpt><trkpt lat="39.47239679" lon="-0.36951385"><ele>-43.4</ele><time>2022-10-30T14:46:40.0000000+00:00</time></trkpt><trkpt lat="39.47239881" lon="-0.3695323"><ele>-43.4</ele><time>2022-10-30T14:46:41.0000000+00:00</time></trkpt><trkpt lat="39.4724128" lon="-0.36954026"><ele>-43.4</ele><time>2022-10-30T14:46:42.0000000+00:00</time></trkpt><trkpt lat="39.47240115" lon="-0.36954202"><ele>-43.4</ele><time>2022-10-30T14:46:43.0000000+00:00</time></trkpt><trkpt lat="39.47239906" lon="-0.36954545"><ele>-43.6</ele><time>2022-10-30T14:46:44.0000000+00:00</time></trkpt><trkpt lat="39.47240886" lon="-0.36953447"><ele>-43.6</ele><time>2022-10-30T14:46:45.0000000+00:00</time></trkpt><trkpt lat="39.47240928" lon="-0.36952961"><ele>-43.6</ele><time>2022-10-30T14:46:46.0000000+00:00</time></trkpt><trkpt lat="39.47241062" lon="-0.36952517"><ele>-43.6</ele><time>2022-10-30T14:46:47.0000000+00:00</time></trkpt><trkpt lat="39.4724123" lon="-0.36952199"><ele>-43.6</ele><time>2022-10-30T14:46:48.0000000+00:00</time></trkpt><trkpt lat="39.47241465" lon="-0.369524"><ele>-43.6</ele><time>2022-10-30T14:46:49.0000000+00:00</time></trkpt><trkpt lat="39.47241456" lon="-0.36952827"><ele>-43.6</ele><time>2022-10-30T14:46:50.0000000+00:00</time></trkpt><trkpt lat="39.47241523" lon="-0.36953045"><ele>-43.6</ele><time>2022-10-30T14:46:51.0000000+00:00</time></trkpt><trkpt lat="39.4724144" lon="-0.36953716"><ele>-43.6</ele><time>2022-10-30T14:46:52.0000000+00:00</time></trkpt><trkpt lat="39.47241926" lon="-0.36953406"><ele>-43.6</ele><time>2022-10-30T14:46:53.0000000+00:00</time></trkpt><trkpt lat="39.47241699" lon="-0.36953313"><ele>-43.6</ele><time>2022-10-30T14:46:54.0000000+00:00</time></trkpt><trkpt lat="39.47241699" lon="-0.36952416"><ele>-43.6</ele><time>2022-10-30T14:46:55.0000000+00:00</time></trkpt><trkpt lat="39.47241775" lon="-0.36951872"><ele>-43.6</ele><time>2022-10-30T14:46:56.0000000+00:00</time></trkpt><trkpt lat="39.47241942" lon="-0.36950765"><ele>-43.6</ele><time>2022-10-30T14:46:57.0000000+00:00</time></trkpt><trkpt lat="39.47243191" lon="-0.36950145"><ele>-43.6</ele><time>2022-10-30T14:46:58.0000000+00:00</time></trkpt><trkpt lat="39.47244935" lon="-0.36949039"><ele>-43.6</ele><time>2022-10-30T14:46:59.0000000+00:00</time></trkpt><trkpt lat="39.47245622" lon="-0.36948863"><ele>-43.6</ele><time>2022-10-30T14:47:00.0000000+00:00</time></trkpt><trkpt lat="39.47245765" lon="-0.36948661"><ele>-43.6</ele><time>2022-10-30T14:47:01.0000000+00:00</time></trkpt><trkpt lat="39.47245907" lon="-0.36948443"><ele>-43.6</ele><time>2022-10-30T14:47:02.0000000+00:00</time></trkpt><trkpt lat="39.47245966" lon="-0.36948879"><ele>-43.6</ele><time>2022-10-30T14:47:03.0000000+00:00</time></trkpt><trkpt lat="39.47246242" lon="-0.36949231"><ele>-43.6</ele><time>2022-10-30T14:47:04.0000000+00:00</time></trkpt><trkpt lat="39.47246234" lon="-0.3695017"><ele>-43.4</ele><time>2022-10-30T14:47:05.0000000+00:00</time></trkpt><trkpt lat="39.47246075" lon="-0.36950757"><ele>-43.4</ele><time>2022-10-30T14:47:06.0000000+00:00</time></trkpt><trkpt lat="39.472461" lon="-0.36950648"><ele>-43.4</ele><time>2022-10-30T14:47:07.0000000+00:00</time></trkpt><trkpt lat="39.4724563" lon="-0.3695131"><ele>-43.4</ele><time>2022-10-30T14:47:08.0000000+00:00</time></trkpt><trkpt lat="39.47245765" lon="-0.3695167"><ele>-43.4</ele><time>2022-10-30T14:47:09.0000000+00:00</time></trkpt><trkpt lat="39.47245706" lon="-0.36951704"><ele>-43.4</ele><time>2022-10-30T14:47:10.0000000+00:00</time></trkpt><trkpt lat="39.47245555" lon="-0.36951922"><ele>-43.4</ele><time>2022-10-30T14:47:11.0000000+00:00</time></trkpt><trkpt lat="39.47245488" lon="-0.36952131"><ele>-43.4</ele><time>2022-10-30T14:47:12.0000000+00:00</time></trkpt><trkpt lat="39.47246645" lon="-0.36951109"><ele>-43.6</ele><time>2022-10-30T14:47:13.0000000+00:00</time></trkpt><trkpt lat="39.47247458" lon="-0.36950581"><ele>-43.6</ele><time>2022-10-30T14:47:14.0000000+00:00</time></trkpt><trkpt lat="39.47247743" lon="-0.36950229"><ele>-43.4</ele><time>2022-10-30T14:47:15.0000000+00:00</time></trkpt><trkpt lat="39.47248162" lon="-0.3695012"><ele>-43.4</ele><time>2022-10-30T14:47:16.0000000+00:00</time></trkpt><trkpt lat="39.47248329" lon="-0.36950304"><ele>-43.4</ele><time>2022-10-30T14:47:17.0000000+00:00</time></trkpt><trkpt lat="39.47248262" lon="-0.36950287"><ele>-43.4</ele><time>2022-10-30T14:47:18.0000000+00:00</time></trkpt><trkpt lat="39.47248371" lon="-0.3695022"><ele>-43.4</ele><time>2022-10-30T14:47:19.0000000+00:00</time></trkpt><trkpt lat="39.47249143" lon="-0.36951545"><ele>-43.4</ele><time>2022-10-30T14:47:20.0000000+00:00</time></trkpt><trkpt lat="39.47249285" lon="-0.36951997"><ele>-43.4</ele><time>2022-10-30T14:47:21.0000000+00:00</time></trkpt><trkpt lat="39.47250685" lon="-0.36952986"><ele>-43.4</ele><time>2022-10-30T14:47:22.0000000+00:00</time></trkpt><trkpt lat="39.47251263" lon="-0.36952802"><ele>-43.4</ele><time>2022-10-30T14:47:23.0000000+00:00</time></trkpt><trkpt lat="39.47251867" lon="-0.36952936"><ele>-43.4</ele><time>2022-10-30T14:47:24.0000000+00:00</time></trkpt><trkpt lat="39.47252554" lon="-0.36952576"><ele>-43.4</ele><time>2022-10-30T14:47:25.0000000+00:00</time></trkpt><trkpt lat="39.47253157" lon="-0.36953221"><ele>-43.4</ele><time>2022-10-30T14:47:26.0000000+00:00</time></trkpt><trkpt lat="39.47254364" lon="-0.36954076"><ele>-43.4</ele><time>2022-10-30T14:47:27.0000000+00:00</time></trkpt><trkpt lat="39.47255211" lon="-0.36954872"><ele>-43.4</ele><time>2022-10-30T14:47:28.0000000+00:00</time></trkpt><trkpt lat="39.47255588" lon="-0.36955157"><ele>-43.4</ele><time>2022-10-30T14:47:29.0000000+00:00</time></trkpt><trkpt lat="39.4725563" lon="-0.36955409"><ele>-43.4</ele><time>2022-10-30T14:47:30.0000000+00:00</time></trkpt><trkpt lat="39.47255479" lon="-0.36955367"><ele>-43.4</ele><time>2022-10-30T14:47:31.0000000+00:00</time></trkpt><trkpt lat="39.47254348" lon="-0.36955048"><ele>-43.4</ele><time>2022-10-30T14:47:32.0000000+00:00</time></trkpt><trkpt lat="39.47254046" lon="-0.36954663"><ele>-43.4</ele><time>2022-10-30T14:47:33.0000000+00:00</time></trkpt><trkpt lat="39.47254046" lon="-0.3695452"><ele>-43.4</ele><time>2022-10-30T14:47:34.0000000+00:00</time></trkpt><trkpt lat="39.47254079" lon="-0.36954638"><ele>-43.4</ele><time>2022-10-30T14:47:35.0000000+00:00</time></trkpt><trkpt lat="39.4725392" lon="-0.3695478"><ele>-43.4</ele><time>2022-10-30T14:47:36.0000000+00:00</time></trkpt><trkpt lat="39.47253719" lon="-0.36954864"><ele>-43.4</ele><time>2022-10-30T14:47:37.0000000+00:00</time></trkpt><trkpt lat="39.47253702" lon="-0.36954763"><ele>-43.4</ele><time>2022-10-30T14:47:38.0000000+00:00</time></trkpt><trkpt lat="39.47253803" lon="-0.36954504"><ele>-43.4</ele><time>2022-10-30T14:47:39.0000000+00:00</time></trkpt><trkpt lat="39.47253828" lon="-0.36954462"><ele>-43.4</ele><time>2022-10-30T14:47:40.0000000+00:00</time></trkpt><trkpt lat="39.4725382" lon="-0.3695442"><ele>-43.4</ele><time>2022-10-30T14:47:41.0000000+00:00</time></trkpt><trkpt lat="39.47253199" lon="-0.36954026"><ele>-43.4</ele><time>2022-10-30T14:47:42.0000000+00:00</time></trkpt><trkpt lat="39.4725304" lon="-0.36953758"><ele>-43.4</ele><time>2022-10-30T14:47:43.0000000+00:00</time></trkpt><trkpt lat="39.47252772" lon="-0.36953556"><ele>-43.4</ele><time>2022-10-30T14:47:44.0000000+00:00</time></trkpt><trkpt lat="39.47252302" lon="-0.36953799"><ele>-43.4</ele><time>2022-10-30T14:47:45.0000000+00:00</time></trkpt><trkpt lat="39.47252043" lon="-0.36954068"><ele>-43.4</ele><time>2022-10-30T14:47:46.0000000+00:00</time></trkpt><trkpt lat="39.47252068" lon="-0.3695416"><ele>-43.4</ele><time>2022-10-30T14:47:47.0000000+00:00</time></trkpt><trkpt lat="39.47252034" lon="-0.36954328"><ele>-43.4</ele><time>2022-10-30T14:47:48.0000000+00:00</time></trkpt><trkpt lat="39.47251942" lon="-0.36954403"><ele>-43.4</ele><time>2022-10-30T14:47:49.0000000+00:00</time></trkpt><trkpt lat="39.47251833" lon="-0.36954344"><ele>-43.4</ele><time>2022-10-30T14:47:50.0000000+00:00</time></trkpt><trkpt lat="39.47251758" lon="-0.3695416"><ele>-43.4</ele><time>2022-10-30T14:47:51.0000000+00:00</time></trkpt><trkpt lat="39.47251758" lon="-0.36954193"><ele>-43.4</ele><time>2022-10-30T14:47:52.0000000+00:00</time></trkpt><trkpt lat="39.472518" lon="-0.36954076"><ele>-43.4</ele><time>2022-10-30T14:47:53.0000000+00:00</time></trkpt><trkpt lat="39.47250945" lon="-0.36953724"><ele>-43.4</ele><time>2022-10-30T14:47:54.0000000+00:00</time></trkpt><trkpt lat="39.47250827" lon="-0.369539"><ele>-43.4</ele><time>2022-10-30T14:47:55.0000000+00:00</time></trkpt><trkpt lat="39.47251339" lon="-0.36953171"><ele>-43.4</ele><time>2022-10-30T14:47:56.0000000+00:00</time></trkpt><trkpt lat="39.47251615" lon="-0.36953146"><ele>-43.4</ele><time>2022-10-30T14:47:57.0000000+00:00</time></trkpt><trkpt lat="39.47251674" lon="-0.36953121"><ele>-43.4</ele><time>2022-10-30T14:47:58.0000000+00:00</time></trkpt><trkpt lat="39.4725154" lon="-0.3695307"><ele>-43.4</ele><time>2022-10-30T14:47:59.0000000+00:00</time></trkpt><trkpt lat="39.47251598" lon="-0.36953045"><ele>-43.4</ele><time>2022-10-30T14:48:00.0000000+00:00</time></trkpt><trkpt lat="39.47251598" lon="-0.36953045"><ele>-43.4</ele><time>2022-10-30T14:48:01.0000000+00:00</time></trkpt><trkpt lat="39.47251598" lon="-0.36953045"><ele>-43.4</ele><time>2022-10-30T14:48:02.0000000+00:00</time></trkpt><trkpt lat="39.47251598" lon="-0.36953045"><ele>-43.4</ele><time>2022-10-30T14:48:03.0000000+00:00</time></trkpt><trkpt lat="39.47251598" lon="-0.36953045"><ele>-43.4</ele><time>2022-10-30T14:48:04.0000000+00:00</time></trkpt><trkpt lat="39.47251598" lon="-0.36953045"><ele>-43.4</ele><time>2022-10-30T14:48:05.0000000+00:00</time></trkpt><trkpt lat="39.47251598" lon="-0.36953045"><ele>-43.4</ele><time>2022-10-30T14:48:06.0000000+00:00</time></trkpt><trkpt lat="39.47251598" lon="-0.36953045"><ele>-43.4</ele><time>2022-10-30T14:48:07.0000000+00:00</time></trkpt><trkpt lat="39.47251598" lon="-0.3695307"><ele>-43.4</ele><time>2022-10-30T14:48:08.0000000+00:00</time></trkpt><trkpt lat="39.47251598" lon="-0.36953121"><ele>-43.4</ele><time>2022-10-30T14:48:09.0000000+00:00</time></trkpt><trkpt lat="39.47251598" lon="-0.36953146"><ele>-43.4</ele><time>2022-10-30T14:48:10.0000000+00:00</time></trkpt><trkpt lat="39.47251598" lon="-0.36953162"><ele>-43.4</ele><time>2022-10-30T14:48:11.0000000+00:00</time></trkpt><trkpt lat="39.47251598" lon="-0.36953188"><ele>-43.4</ele><time>2022-10-30T14:48:12.0000000+00:00</time></trkpt><trkpt lat="39.47251598" lon="-0.36953238"><ele>-43.4</ele><time>2022-10-30T14:48:13.0000000+00:00</time></trkpt><trkpt lat="39.47251548" lon="-0.3695328"><ele>-43.4</ele><time>2022-10-30T14:48:14.0000000+00:00</time></trkpt><trkpt lat="39.47251464" lon="-0.36953322"><ele>-43.4</ele><time>2022-10-30T14:48:15.0000000+00:00</time></trkpt><trkpt lat="39.47251347" lon="-0.36953347"><ele>-43.4</ele><time>2022-10-30T14:48:16.0000000+00:00</time></trkpt><trkpt lat="39.47251255" lon="-0.36953347"><ele>-43.4</ele><time>2022-10-30T14:48:17.0000000+00:00</time></trkpt><trkpt lat="39.47251246" lon="-0.36953422"><ele>-43.4</ele><time>2022-10-30T14:48:18.0000000+00:00</time></trkpt><trkpt lat="39.47251213" lon="-0.36953431"><ele>-43.4</ele><time>2022-10-30T14:48:19.0000000+00:00</time></trkpt><trkpt lat="39.47251188" lon="-0.36953464"><ele>-43.4</ele><time>2022-10-30T14:48:20.0000000+00:00</time></trkpt><trkpt lat="39.47251154" lon="-0.36953464"><ele>-43.4</ele><time>2022-10-30T14:48:21.0000000+00:00</time></trkpt><trkpt lat="39.47251095" lon="-0.36953464"><ele>-43.4</ele><time>2022-10-30T14:48:22.0000000+00:00</time></trkpt><trkpt lat="39.47251012" lon="-0.36953464"><ele>-43.4</ele><time>2022-10-30T14:48:23.0000000+00:00</time></trkpt><trkpt lat="39.47251003" lon="-0.36953439"><ele>-43.4</ele><time>2022-10-30T14:48:24.0000000+00:00</time></trkpt><trkpt lat="39.47251003" lon="-0.36953431"><ele>-43.4</ele><time>2022-10-30T14:48:25.0000000+00:00</time></trkpt><trkpt lat="39.47250953" lon="-0.36953431"><ele>-43.4</ele><time>2022-10-30T14:48:26.0000000+00:00</time></trkpt><trkpt lat="39.47250919" lon="-0.36953431"><ele>-43.4</ele><time>2022-10-30T14:48:27.0000000+00:00</time></trkpt><trkpt lat="39.4725076" lon="-0.36953431"><ele>-43.4</ele><time>2022-10-30T14:48:28.0000000+00:00</time></trkpt><trkpt lat="39.47250819" lon="-0.36953406"><ele>-43.4</ele><time>2022-10-30T14:48:29.0000000+00:00</time></trkpt><trkpt lat="39.47250852" lon="-0.36953431"><ele>-43.4</ele><time>2022-10-30T14:48:30.0000000+00:00</time></trkpt><trkpt lat="39.47250911" lon="-0.36953514"><ele>-43.4</ele><time>2022-10-30T14:48:31.0000000+00:00</time></trkpt><trkpt lat="39.47250861" lon="-0.36953473"><ele>-43.4</ele><time>2022-10-30T14:48:32.0000000+00:00</time></trkpt><trkpt lat="39.47249972" lon="-0.36953783"><ele>-43.4</ele><time>2022-10-30T14:48:33.0000000+00:00</time></trkpt><trkpt lat="39.47249092" lon="-0.36954386"><ele>-43.4</ele><time>2022-10-30T14:48:34.0000000+00:00</time></trkpt><trkpt lat="39.47249151" lon="-0.3695473"><ele>-43.4</ele><time>2022-10-30T14:48:35.0000000+00:00</time></trkpt><trkpt lat="39.47248975" lon="-0.36954671"><ele>-43.4</ele><time>2022-10-30T14:48:36.0000000+00:00</time></trkpt><trkpt lat="39.47247885" lon="-0.36955786"><ele>-43.4</ele><time>2022-10-30T14:48:37.0000000+00:00</time></trkpt><trkpt lat="39.47247449" lon="-0.36956901"><ele>-43.4</ele><time>2022-10-30T14:48:38.0000000+00:00</time></trkpt><trkpt lat="39.47247433" lon="-0.36957437"><ele>-43.4</ele><time>2022-10-30T14:48:39.0000000+00:00</time></trkpt><trkpt lat="39.4724755" lon="-0.36957596"><ele>-43.4</ele><time>2022-10-30T14:48:40.0000000+00:00</time></trkpt><trkpt lat="39.47247852" lon="-0.36957848"><ele>-43.4</ele><time>2022-10-30T14:48:41.0000000+00:00</time></trkpt><trkpt lat="39.47248028" lon="-0.36958242"><ele>-43.4</ele><time>2022-10-30T14:48:42.0000000+00:00</time></trkpt><trkpt lat="39.47246737" lon="-0.36961285"><ele>-43.4</ele><time>2022-10-30T14:48:43.0000000+00:00</time></trkpt><trkpt lat="39.47246511" lon="-0.36963472"><ele>-43.4</ele><time>2022-10-30T14:48:44.0000000+00:00</time></trkpt><trkpt lat="39.47246527" lon="-0.36965299"><ele>-43.4</ele><time>2022-10-30T14:48:45.0000000+00:00</time></trkpt><trkpt lat="39.4724646" lon="-0.36966758"><ele>-43.4</ele><time>2022-10-30T14:48:46.0000000+00:00</time></trkpt><trkpt lat="39.47246066" lon="-0.36967957"><ele>-43.4</ele><time>2022-10-30T14:48:47.0000000+00:00</time></trkpt><trkpt lat="39.47245614" lon="-0.36969742"><ele>-43.4</ele><time>2022-10-30T14:48:48.0000000+00:00</time></trkpt><trkpt lat="39.47245706" lon="-0.36971636"><ele>-43.4</ele><time>2022-10-30T14:48:49.0000000+00:00</time></trkpt><trkpt lat="39.47246008" lon="-0.3697286"><ele>-43.4</ele><time>2022-10-30T14:48:50.0000000+00:00</time></trkpt><trkpt lat="39.47246242" lon="-0.36973338"><ele>-43.4</ele><time>2022-10-30T14:48:51.0000000+00:00</time></trkpt><trkpt lat="39.47246091" lon="-0.36973455"><ele>-43.4</ele><time>2022-10-30T14:48:52.0000000+00:00</time></trkpt><trkpt lat="39.47246309" lon="-0.36971519"><ele>-43.4</ele><time>2022-10-30T14:48:53.0000000+00:00</time></trkpt><trkpt lat="39.47248388" lon="-0.36966473"><ele>-43.4</ele><time>2022-10-30T14:48:54.0000000+00:00</time></trkpt><trkpt lat="39.47248514" lon="-0.36963975"><ele>-43.4</ele><time>2022-10-30T14:48:55.0000000+00:00</time></trkpt><trkpt lat="39.47248455" lon="-0.36965987"><ele>-43.4</ele><time>2022-10-30T14:48:56.0000000+00:00</time></trkpt><trkpt lat="39.47248061" lon="-0.36966314"><ele>-43.4</ele><time>2022-10-30T14:48:57.0000000+00:00</time></trkpt><trkpt lat="39.47248355" lon="-0.36965475"><ele>-43.4</ele><time>2022-10-30T14:48:58.0000000+00:00</time></trkpt><trkpt lat="39.47248539" lon="-0.36963363"><ele>-43.4</ele><time>2022-10-30T14:48:59.0000000+00:00</time></trkpt><trkpt lat="39.47248749" lon="-0.36962315"><ele>-43.4</ele><time>2022-10-30T14:49:00.0000000+00:00</time></trkpt><trkpt lat="39.47249461" lon="-0.36962223"><ele>-43.4</ele><time>2022-10-30T14:49:01.0000000+00:00</time></trkpt><trkpt lat="39.47249143" lon="-0.36962567"><ele>-43.4</ele><time>2022-10-30T14:49:02.0000000+00:00</time></trkpt><trkpt lat="39.4724936" lon="-0.36960966"><ele>-43.4</ele><time>2022-10-30T14:49:03.0000000+00:00</time></trkpt><trkpt lat="39.47249503" lon="-0.36960572"><ele>-43.4</ele><time>2022-10-30T14:49:04.0000000+00:00</time></trkpt><trkpt lat="39.47248581" lon="-0.36968216"><ele>-43.4</ele><time>2022-10-30T14:49:05.0000000+00:00</time></trkpt><trkpt lat="39.47248011" lon="-0.36970052"><ele>-43.4</ele><time>2022-10-30T14:49:06.0000000+00:00</time></trkpt><trkpt lat="39.47246779" lon="-0.36974696"><ele>-43.4</ele><time>2022-10-30T14:49:07.0000000+00:00</time></trkpt><trkpt lat="39.47245739" lon="-0.36977839"><ele>-43.4</ele><time>2022-10-30T14:49:08.0000000+00:00</time></trkpt><trkpt lat="39.47244692" lon="-0.36981133"><ele>-43.4</ele><time>2022-10-30T14:49:09.0000000+00:00</time></trkpt><trkpt lat="39.472433" lon="-0.36981158"><ele>-43.4</ele><time>2022-10-30T14:49:10.0000000+00:00</time></trkpt><trkpt lat="39.47242118" lon="-0.3698151"><ele>-43.4</ele><time>2022-10-30T14:49:11.0000000+00:00</time></trkpt><trkpt lat="39.47239956" lon="-0.36985475"><ele>-43.4</ele><time>2022-10-30T14:49:12.0000000+00:00</time></trkpt><trkpt lat="39.4723895" lon="-0.36986447"><ele>-43.4</ele><time>2022-10-30T14:49:13.0000000+00:00</time></trkpt><trkpt lat="39.47237961" lon="-0.36988216"><ele>-43.4</ele><time>2022-10-30T14:49:14.0000000+00:00</time></trkpt><trkpt lat="39.47236687" lon="-0.36990454"><ele>-43.4</ele><time>2022-10-30T14:49:15.0000000+00:00</time></trkpt><trkpt lat="39.47235983" lon="-0.36992474"><ele>-43.4</ele><time>2022-10-30T14:49:16.0000000+00:00</time></trkpt><trkpt lat="39.47235648" lon="-0.36988216"><ele>-43.4</ele><time>2022-10-30T14:49:17.0000000+00:00</time></trkpt><trkpt lat="39.47235572" lon="-0.369856"><ele>-43.4</ele><time>2022-10-30T14:49:18.0000000+00:00</time></trkpt><trkpt lat="39.47235773" lon="-0.36987947"><ele>-43.4</ele><time>2022-10-30T14:49:19.0000000+00:00</time></trkpt><trkpt lat="39.47236318" lon="-0.36989481"><ele>-43.4</ele><time>2022-10-30T14:49:20.0000000+00:00</time></trkpt><trkpt lat="39.47236628" lon="-0.36992616"><ele>-43.4</ele><time>2022-10-30T14:49:21.0000000+00:00</time></trkpt><trkpt lat="39.47236444" lon="-0.36993907"><ele>-43.4</ele><time>2022-10-30T14:49:22.0000000+00:00</time></trkpt><trkpt lat="39.47236444" lon="-0.3699441"><ele>-43.4</ele><time>2022-10-30T14:49:23.0000000+00:00</time></trkpt><trkpt lat="39.47236511" lon="-0.36994477"><ele>-43.4</ele><time>2022-10-30T14:49:24.0000000+00:00</time></trkpt><trkpt lat="39.47236503" lon="-0.36993396"><ele>-43.4</ele><time>2022-10-30T14:49:25.0000000+00:00</time></trkpt><trkpt lat="39.47236545" lon="-0.36989976"><ele>-43.4</ele><time>2022-10-30T14:49:26.0000000+00:00</time></trkpt><trkpt lat="39.47236385" lon="-0.36989506"><ele>-43.4</ele><time>2022-10-30T14:49:27.0000000+00:00</time></trkpt><trkpt lat="39.47236058" lon="-0.36988266"><ele>-43.4</ele><time>2022-10-30T14:49:28.0000000+00:00</time></trkpt><trkpt lat="39.47236042" lon="-0.36988752"><ele>-43.4</ele><time>2022-10-30T14:49:29.0000000+00:00</time></trkpt><trkpt lat="39.47236033" lon="-0.36988886"><ele>-43.4</ele><time>2022-10-30T14:49:30.0000000+00:00</time></trkpt><trkpt lat="39.47235505" lon="-0.3699078"><ele>-43.4</ele><time>2022-10-30T14:49:31.0000000+00:00</time></trkpt><trkpt lat="39.47234315" lon="-0.3699327"><ele>-43.4</ele><time>2022-10-30T14:49:32.0000000+00:00</time></trkpt><trkpt lat="39.472331" lon="-0.36996782"><ele>-43.4</ele><time>2022-10-30T14:49:33.0000000+00:00</time></trkpt><trkpt lat="39.47231809" lon="-0.37000981"><ele>-43.4</ele><time>2022-10-30T14:49:34.0000000+00:00</time></trkpt><trkpt lat="39.47231012" lon="-0.37002599"><ele>-43.4</ele><time>2022-10-30T14:49:35.0000000+00:00</time></trkpt><trkpt lat="39.47230543" lon="-0.37003906"><ele>-43.4</ele><time>2022-10-30T14:49:36.0000000+00:00</time></trkpt><trkpt lat="39.4723035" lon="-0.37005147"><ele>-43.4</ele><time>2022-10-30T14:49:37.0000000+00:00</time></trkpt><trkpt lat="39.47230157" lon="-0.37004208"><ele>-43.4</ele><time>2022-10-30T14:49:38.0000000+00:00</time></trkpt><trkpt lat="39.47230149" lon="-0.37002683"><ele>-43.4</ele><time>2022-10-30T14:49:39.0000000+00:00</time></trkpt><trkpt lat="39.47230149" lon="-0.37002716"><ele>-43.4</ele><time>2022-10-30T14:49:40.0000000+00:00</time></trkpt><trkpt lat="39.47230275" lon="-0.37002792"><ele>-43.4</ele><time>2022-10-30T14:49:41.0000000+00:00</time></trkpt><trkpt lat="39.47230308" lon="-0.37003043"><ele>-43.4</ele><time>2022-10-30T14:49:42.0000000+00:00</time></trkpt><trkpt lat="39.47231306" lon="-0.37000772"><ele>-43.4</ele><time>2022-10-30T14:49:43.0000000+00:00</time></trkpt><trkpt lat="39.47232127" lon="-0.36998383"><ele>-43.4</ele><time>2022-10-30T14:49:44.0000000+00:00</time></trkpt><trkpt lat="39.47231859" lon="-0.36998886"><ele>-43.4</ele><time>2022-10-30T14:49:45.0000000+00:00</time></trkpt><trkpt lat="39.4723092" lon="-0.37001275"><ele>-43.4</ele><time>2022-10-30T14:49:46.0000000+00:00</time></trkpt><trkpt lat="39.47229923" lon="-0.37003638"><ele>-43.4</ele><time>2022-10-30T14:49:47.0000000+00:00</time></trkpt><trkpt lat="39.47228842" lon="-0.37005013"><ele>-43.4</ele><time>2022-10-30T14:49:48.0000000+00:00</time></trkpt><trkpt lat="39.47228137" lon="-0.37005088"><ele>-43.4</ele><time>2022-10-30T14:49:49.0000000+00:00</time></trkpt><trkpt lat="39.47228272" lon="-0.37005725"><ele>-43.4</ele><time>2022-10-30T14:49:50.0000000+00:00</time></trkpt><trkpt lat="39.47227618" lon="-0.37007653"><ele>-43.4</ele><time>2022-10-30T14:49:51.0000000+00:00</time></trkpt><trkpt lat="39.47228087" lon="-0.37008659"><ele>-43.4</ele><time>2022-10-30T14:49:52.0000000+00:00</time></trkpt><trkpt lat="39.47228355" lon="-0.37008835"><ele>-43.4</ele><time>2022-10-30T14:49:53.0000000+00:00</time></trkpt><trkpt lat="39.47229504" lon="-0.37005315"><ele>-43.4</ele><time>2022-10-30T14:49:54.0000000+00:00</time></trkpt><trkpt lat="39.4722864" lon="-0.37006958"><ele>-43.4</ele><time>2022-10-30T14:49:55.0000000+00:00</time></trkpt><trkpt lat="39.47227836" lon="-0.37009757"><ele>-43.4</ele><time>2022-10-30T14:49:56.0000000+00:00</time></trkpt><trkpt lat="39.47228096" lon="-0.37008081"><ele>-44.4</ele><time>2022-10-30T14:49:57.0000000+00:00</time></trkpt><trkpt lat="39.47228003" lon="-0.37008282"><ele>-44.8</ele><time>2022-10-30T14:49:58.0000000+00:00</time></trkpt><trkpt lat="39.47228313" lon="-0.37008952"><ele>-45.2</ele><time>2022-10-30T14:49:59.0000000+00:00</time></trkpt><trkpt lat="39.47228917" lon="-0.37007863"><ele>-45.4</ele><time>2022-10-30T14:50:00.0000000+00:00</time></trkpt><trkpt lat="39.47229353" lon="-0.37006136"><ele>-45.4</ele><time>2022-10-30T14:50:01.0000000+00:00</time></trkpt><trkpt lat="39.47229412" lon="-0.37005591"><ele>-45.6</ele><time>2022-10-30T14:50:02.0000000+00:00</time></trkpt><trkpt lat="39.47229328" lon="-0.37005474"><ele>-45.6</ele><time>2022-10-30T14:50:03.0000000+00:00</time></trkpt><trkpt lat="39.47229336" lon="-0.37005642"><ele>-45.6</ele><time>2022-10-30T14:50:04.0000000+00:00</time></trkpt><trkpt lat="39.47229403" lon="-0.37005968"><ele>-45.6</ele><time>2022-10-30T14:50:05.0000000+00:00</time></trkpt><trkpt lat="39.47229336" lon="-0.37006295"><ele>-45.6</ele><time>2022-10-30T14:50:06.0000000+00:00</time></trkpt><trkpt lat="39.47229177" lon="-0.37006228"><ele>-45.6</ele><time>2022-10-30T14:50:07.0000000+00:00</time></trkpt><trkpt lat="39.47229135" lon="-0.37005222"><ele>-45.8</ele><time>2022-10-30T14:50:08.0000000+00:00</time></trkpt><trkpt lat="39.47229059" lon="-0.37005105"><ele>-45.8</ele><time>2022-10-30T14:50:09.0000000+00:00</time></trkpt><trkpt lat="39.47229051" lon="-0.37005382"><ele>-45.8</ele><time>2022-10-30T14:50:10.0000000+00:00</time></trkpt><trkpt lat="39.47229319" lon="-0.3700539"><ele>-45.8</ele><time>2022-10-30T14:50:11.0000000+00:00</time></trkpt><trkpt lat="39.47229437" lon="-0.37005424"><ele>-45.8</ele><time>2022-10-30T14:50:12.0000000+00:00</time></trkpt><trkpt lat="39.47229462" lon="-0.37005491"><ele>-45.8</ele><time>2022-10-30T14:50:13.0000000+00:00</time></trkpt><trkpt lat="39.47229194" lon="-0.37005784"><ele>-45.8</ele><time>2022-10-30T14:50:14.0000000+00:00</time></trkpt><trkpt lat="39.47229688" lon="-0.37004141"><ele>-45.8</ele><time>2022-10-30T14:50:15.0000000+00:00</time></trkpt><trkpt lat="39.47230166" lon="-0.37002339"><ele>-45.8</ele><time>2022-10-30T14:50:16.0000000+00:00</time></trkpt><trkpt lat="39.47230166" lon="-0.37002339"><ele>-45.8</ele><time>2022-10-30T14:50:17.0000000+00:00</time></trkpt><trkpt lat="39.47230166" lon="-0.37002339"><ele>-46.0</ele><time>2022-10-30T14:50:18.0000000+00:00</time></trkpt><trkpt lat="39.47230166" lon="-0.37002339"><ele>-46.0</ele><time>2022-10-30T14:50:19.0000000+00:00</time></trkpt><trkpt lat="39.47230166" lon="-0.37002339"><ele>-46.0</ele><time>2022-10-30T14:50:20.0000000+00:00</time></trkpt><trkpt lat="39.47230166" lon="-0.37002339"><ele>-46.0</ele><time>2022-10-30T14:50:21.0000000+00:00</time></trkpt><trkpt lat="39.47230166" lon="-0.37002339"><ele>-46.0</ele><time>2022-10-30T14:50:22.0000000+00:00</time></trkpt><trkpt lat="39.47230166" lon="-0.37002339"><ele>-46.0</ele><time>2022-10-30T14:50:23.0000000+00:00</time></trkpt><trkpt lat="39.47230166" lon="-0.37002339"><ele>-46.0</ele><time>2022-10-30T14:50:24.0000000+00:00</time></trkpt><trkpt lat="39.47230166" lon="-0.37002339"><ele>-45.8</ele><time>2022-10-30T14:50:25.0000000+00:00</time></trkpt><trkpt lat="39.47230166" lon="-0.37002339"><ele>-45.8</ele><time>2022-10-30T14:50:26.0000000+00:00</time></trkpt><trkpt lat="39.47230166" lon="-0.37002339"><ele>-45.6</ele><time>2022-10-30T14:50:27.0000000+00:00</time></trkpt><trkpt lat="39.47230551" lon="-0.37000688"><ele>-45.6</ele><time>2022-10-30T14:50:28.0000000+00:00</time></trkpt><trkpt lat="39.47231264" lon="-0.36996623"><ele>-45.6</ele><time>2022-10-30T14:50:29.0000000+00:00</time></trkpt><trkpt lat="39.47231599" lon="-0.36994787"><ele>-45.6</ele><time>2022-10-30T14:50:30.0000000+00:00</time></trkpt><trkpt lat="39.47232069" lon="-0.36993362"><ele>-45.8</ele><time>2022-10-30T14:50:31.0000000+00:00</time></trkpt><trkpt lat="39.47232094" lon="-0.36992147"><ele>-45.8</ele><time>2022-10-30T14:50:32.0000000+00:00</time></trkpt><trkpt lat="39.47232094" lon="-0.36991409"><ele>-45.8</ele><time>2022-10-30T14:50:33.0000000+00:00</time></trkpt><trkpt lat="39.47232479" lon="-0.36990252"><ele>-45.8</ele><time>2022-10-30T14:50:34.0000000+00:00</time></trkpt><trkpt lat="39.47233032" lon="-0.36990454"><ele>-45.8</ele><time>2022-10-30T14:50:35.0000000+00:00</time></trkpt><trkpt lat="39.47233686" lon="-0.36989766"><ele>-45.8</ele><time>2022-10-30T14:50:36.0000000+00:00</time></trkpt><trkpt lat="39.47234315" lon="-0.36990169"><ele>-45.8</ele><time>2022-10-30T14:50:37.0000000+00:00</time></trkpt><trkpt lat="39.47234508" lon="-0.36992976"><ele>-45.8</ele><time>2022-10-30T14:50:38.0000000+00:00</time></trkpt><trkpt lat="39.47234709" lon="-0.36995843"><ele>-45.8</ele><time>2022-10-30T14:50:39.0000000+00:00</time></trkpt><trkpt lat="39.47234675" lon="-0.36998324"><ele>-45.8</ele><time>2022-10-30T14:50:40.0000000+00:00</time></trkpt><trkpt lat="39.47235002" lon="-0.36999003"><ele>-45.8</ele><time>2022-10-30T14:50:41.0000000+00:00</time></trkpt><trkpt lat="39.47235153" lon="-0.37000654"><ele>-45.8</ele><time>2022-10-30T14:50:42.0000000+00:00</time></trkpt><trkpt lat="39.47235547" lon="-0.3700156"><ele>-46.0</ele><time>2022-10-30T14:50:43.0000000+00:00</time></trkpt><trkpt lat="39.47236218" lon="-0.37002423"><ele>-46.0</ele><time>2022-10-30T14:50:44.0000000+00:00</time></trkpt><trkpt lat="39.47237081" lon="-0.37004485"><ele>-46.0</ele><time>2022-10-30T14:50:45.0000000+00:00</time></trkpt><trkpt lat="39.47237123" lon="-0.37005985"><ele>-46.0</ele><time>2022-10-30T14:50:46.0000000+00:00</time></trkpt><trkpt lat="39.47237835" lon="-0.37007058"><ele>-46.0</ele><time>2022-10-30T14:50:47.0000000+00:00</time></trkpt><trkpt lat="39.47238489" lon="-0.37007134"><ele>-46.0</ele><time>2022-10-30T14:50:48.0000000+00:00</time></trkpt><trkpt lat="39.47238933" lon="-0.37007033"><ele>-46.0</ele><time>2022-10-30T14:50:49.0000000+00:00</time></trkpt><trkpt lat="39.4723916" lon="-0.37005583"><ele>-46.0</ele><time>2022-10-30T14:50:50.0000000+00:00</time></trkpt><trkpt lat="39.47239202" lon="-0.37003353"><ele>-46.0</ele><time>2022-10-30T14:50:51.0000000+00:00</time></trkpt><trkpt lat="39.47239243" lon="-0.37002733"><ele>-46.0</ele><time>2022-10-30T14:50:52.0000000+00:00</time></trkpt><trkpt lat="39.47238338" lon="-0.3700456"><ele>-46.0</ele><time>2022-10-30T14:50:53.0000000+00:00</time></trkpt><trkpt lat="39.47238171" lon="-0.3700456"><ele>-46.0</ele><time>2022-10-30T14:50:54.0000000+00:00</time></trkpt><trkpt lat="39.47237676" lon="-0.37004393"><ele>-46.0</ele><time>2022-10-30T14:50:55.0000000+00:00</time></trkpt><trkpt lat="39.47237215" lon="-0.37004351"><ele>-45.8</ele><time>2022-10-30T14:50:56.0000000+00:00</time></trkpt><trkpt lat="39.47236863" lon="-0.37002641"><ele>-45.8</ele><time>2022-10-30T14:50:57.0000000+00:00</time></trkpt><trkpt lat="39.47236721" lon="-0.37002238"><ele>-45.8</ele><time>2022-10-30T14:50:58.0000000+00:00</time></trkpt><trkpt lat="39.47236503" lon="-0.36999648"><ele>-45.8</ele><time>2022-10-30T14:50:59.0000000+00:00</time></trkpt><trkpt lat="39.4723657" lon="-0.36997142"><ele>-45.8</ele><time>2022-10-30T14:51:00.0000000+00:00</time></trkpt><trkpt lat="39.47236234" lon="-0.36998115"><ele>-45.8</ele><time>2022-10-30T14:51:01.0000000+00:00</time></trkpt><trkpt lat="39.47235497" lon="-0.37001451"><ele>-45.8</ele><time>2022-10-30T14:51:02.0000000+00:00</time></trkpt><trkpt lat="39.47235178" lon="-0.37003119"><ele>-45.8</ele><time>2022-10-30T14:51:03.0000000+00:00</time></trkpt><trkpt lat="39.47234457" lon="-0.37004259"><ele>-45.8</ele><time>2022-10-30T14:51:04.0000000+00:00</time></trkpt><trkpt lat="39.47233435" lon="-0.3700684"><ele>-45.8</ele><time>2022-10-30T14:51:05.0000000+00:00</time></trkpt><trkpt lat="39.47232228" lon="-0.37011065"><ele>-45.8</ele><time>2022-10-30T14:51:06.0000000+00:00</time></trkpt><trkpt lat="39.47231473" lon="-0.37012934"><ele>-45.8</ele><time>2022-10-30T14:51:07.0000000+00:00</time></trkpt><trkpt lat="39.47230761" lon="-0.3701306"><ele>-45.8</ele><time>2022-10-30T14:51:08.0000000+00:00</time></trkpt><trkpt lat="39.47229805" lon="-0.37014803"><ele>-45.8</ele><time>2022-10-30T14:51:09.0000000+00:00</time></trkpt><trkpt lat="39.47229613" lon="-0.37013697"><ele>-45.8</ele><time>2022-10-30T14:51:10.0000000+00:00</time></trkpt><trkpt lat="39.47230208" lon="-0.37010067"><ele>-45.8</ele><time>2022-10-30T14:51:11.0000000+00:00</time></trkpt><trkpt lat="39.47230442" lon="-0.3700938"><ele>-45.8</ele><time>2022-10-30T14:51:12.0000000+00:00</time></trkpt><trkpt lat="39.47230694" lon="-0.37008734"><ele>-46.0</ele><time>2022-10-30T14:51:13.0000000+00:00</time></trkpt><trkpt lat="39.47230174" lon="-0.37011601"><ele>-46.0</ele><time>2022-10-30T14:51:14.0000000+00:00</time></trkpt><trkpt lat="39.47229571" lon="-0.37015381"><ele>-46.0</ele><time>2022-10-30T14:51:15.0000000+00:00</time></trkpt><trkpt lat="39.47229311" lon="-0.37019103"><ele>-46.0</ele><time>2022-10-30T14:51:16.0000000+00:00</time></trkpt><trkpt lat="39.47229127" lon="-0.3702176"><ele>-46.0</ele><time>2022-10-30T14:51:17.0000000+00:00</time></trkpt><trkpt lat="39.47229093" lon="-0.3702383"><ele>-46.0</ele><time>2022-10-30T14:51:18.0000000+00:00</time></trkpt><trkpt lat="39.4722895" lon="-0.37026831"><ele>-46.0</ele><time>2022-10-30T14:51:19.0000000+00:00</time></trkpt><trkpt lat="39.47228883" lon="-0.37029077"><ele>-46.0</ele><time>2022-10-30T14:51:20.0000000+00:00</time></trkpt><trkpt lat="39.47228976" lon="-0.37030033"><ele>-46.0</ele><time>2022-10-30T14:51:21.0000000+00:00</time></trkpt><trkpt lat="39.47229026" lon="-0.37030821"><ele>-46.0</ele><time>2022-10-30T14:51:22.0000000+00:00</time></trkpt><trkpt lat="39.47228959" lon="-0.37031927"><ele>-46.2</ele><time>2022-10-30T14:51:23.0000000+00:00</time></trkpt><trkpt lat="39.47228691" lon="-0.37033176"><ele>-46.2</ele><time>2022-10-30T14:51:24.0000000+00:00</time></trkpt><trkpt lat="39.47228498" lon="-0.37033604"><ele>-46.2</ele><time>2022-10-30T14:51:25.0000000+00:00</time></trkpt><trkpt lat="39.47228515" lon="-0.37034283"><ele>-46.2</ele><time>2022-10-30T14:51:26.0000000+00:00</time></trkpt><trkpt lat="39.47228498" lon="-0.37034685"><ele>-46.2</ele><time>2022-10-30T14:51:27.0000000+00:00</time></trkpt><trkpt lat="39.47228288" lon="-0.37035858"><ele>-46.2</ele><time>2022-10-30T14:51:28.0000000+00:00</time></trkpt><trkpt lat="39.47228179" lon="-0.37035238"><ele>-46.2</ele><time>2022-10-30T14:51:29.0000000+00:00</time></trkpt><trkpt lat="39.47228347" lon="-0.37034366"><ele>-46.2</ele><time>2022-10-30T14:51:30.0000000+00:00</time></trkpt><trkpt lat="39.47228406" lon="-0.37034299"><ele>-46.2</ele><time>2022-10-30T14:51:31.0000000+00:00</time></trkpt><trkpt lat="39.47228397" lon="-0.37034157"><ele>-46.2</ele><time>2022-10-30T14:51:32.0000000+00:00</time></trkpt><trkpt lat="39.47228573" lon="-0.37033134"><ele>-46.2</ele><time>2022-10-30T14:51:33.0000000+00:00</time></trkpt><trkpt lat="39.47228439" lon="-0.37031123"><ele>-46.2</ele><time>2022-10-30T14:51:34.0000000+00:00</time></trkpt><trkpt lat="39.4722864" lon="-0.37029999"><ele>-46.2</ele><time>2022-10-30T14:51:35.0000000+00:00</time></trkpt><trkpt lat="39.47228196" lon="-0.37032237"><ele>-46.2</ele><time>2022-10-30T14:51:36.0000000+00:00</time></trkpt><trkpt lat="39.47227911" lon="-0.37032045"><ele>-46.2</ele><time>2022-10-30T14:51:37.0000000+00:00</time></trkpt><trkpt lat="39.47226972" lon="-0.37030737"><ele>-46.4</ele><time>2022-10-30T14:51:38.0000000+00:00</time></trkpt><trkpt lat="39.47226277" lon="-0.37030301"><ele>-46.4</ele><time>2022-10-30T14:51:39.0000000+00:00</time></trkpt><trkpt lat="39.47226201" lon="-0.37029413"><ele>-46.4</ele><time>2022-10-30T14:51:40.0000000+00:00</time></trkpt><trkpt lat="39.47226151" lon="-0.37028876"><ele>-46.4</ele><time>2022-10-30T14:51:41.0000000+00:00</time></trkpt><trkpt lat="39.47226109" lon="-0.37028935"><ele>-46.4</ele><time>2022-10-30T14:51:42.0000000+00:00</time></trkpt><trkpt lat="39.4722605" lon="-0.37028943"><ele>-46.4</ele><time>2022-10-30T14:51:43.0000000+00:00</time></trkpt><trkpt lat="39.4722605" lon="-0.37028943"><ele>-46.4</ele><time>2022-10-30T14:51:44.0000000+00:00</time></trkpt><trkpt lat="39.4722605" lon="-0.37028943"><ele>-46.4</ele><time>2022-10-30T14:51:45.0000000+00:00</time></trkpt><trkpt lat="39.4722605" lon="-0.37028943"><ele>-46.4</ele><time>2022-10-30T14:51:46.0000000+00:00</time></trkpt><trkpt lat="39.4722605" lon="-0.37028943"><ele>-46.4</ele><time>2022-10-30T14:51:47.0000000+00:00</time></trkpt><trkpt lat="39.4722605" lon="-0.37028943"><ele>-46.4</ele><time>2022-10-30T14:51:48.0000000+00:00</time></trkpt><trkpt lat="39.4722605" lon="-0.37028943"><ele>-46.4</ele><time>2022-10-30T14:51:49.0000000+00:00</time></trkpt><trkpt lat="39.4722605" lon="-0.37028943"><ele>-46.4</ele><time>2022-10-30T14:51:50.0000000+00:00</time></trkpt><trkpt lat="39.4722605" lon="-0.37028943"><ele>-46.4</ele><time>2022-10-30T14:51:51.0000000+00:00</time></trkpt><trkpt lat="39.4722605" lon="-0.37028943"><ele>-46.4</ele><time>2022-10-30T14:51:52.0000000+00:00</time></trkpt><trkpt lat="39.4722605" lon="-0.37028943"><ele>-46.4</ele><time>2022-10-30T14:51:53.0000000+00:00</time></trkpt><trkpt lat="39.4722605" lon="-0.37028943"><ele>-46.4</ele><time>2022-10-30T14:51:54.0000000+00:00</time></trkpt><trkpt lat="39.4722605" lon="-0.37028943"><ele>-46.4</ele><time>2022-10-30T14:51:55.0000000+00:00</time></trkpt><trkpt lat="39.4722605" lon="-0.37028943"><ele>-46.4</ele><time>2022-10-30T14:51:56.0000000+00:00</time></trkpt><trkpt lat="39.4722605" lon="-0.37028935"><ele>-46.4</ele><time>2022-10-30T14:51:57.0000000+00:00</time></trkpt><trkpt lat="39.4722605" lon="-0.37028876"><ele>-46.6</ele><time>2022-10-30T14:51:58.0000000+00:00</time></trkpt><trkpt lat="39.4722605" lon="-0.37028683"><ele>-46.4</ele><time>2022-10-30T14:51:59.0000000+00:00</time></trkpt><trkpt lat="39.4722605" lon="-0.37028574"><ele>-46.4</ele><time>2022-10-30T14:52:00.0000000+00:00</time></trkpt><trkpt lat="39.4722605" lon="-0.37028415"><ele>-46.4</ele><time>2022-10-30T14:52:01.0000000+00:00</time></trkpt><trkpt lat="39.4722605" lon="-0.37027292"><ele>-46.4</ele><time>2022-10-30T14:52:02.0000000+00:00</time></trkpt><trkpt lat="39.4722605" lon="-0.37025859"><ele>-46.4</ele><time>2022-10-30T14:52:03.0000000+00:00</time></trkpt><trkpt lat="39.4722605" lon="-0.37025238"><ele>-46.4</ele><time>2022-10-30T14:52:04.0000000+00:00</time></trkpt><trkpt lat="39.4722605" lon="-0.37024803"><ele>-46.4</ele><time>2022-10-30T14:52:05.0000000+00:00</time></trkpt><trkpt lat="39.4722605" lon="-0.3702471"><ele>-46.4</ele><time>2022-10-30T14:52:06.0000000+00:00</time></trkpt><trkpt lat="39.4722605" lon="-0.37024593"><ele>-46.6</ele><time>2022-10-30T14:52:07.0000000+00:00</time></trkpt><trkpt lat="39.4722605" lon="-0.37024417"><ele>-46.6</ele><time>2022-10-30T14:52:08.0000000+00:00</time></trkpt><trkpt lat="39.4722605" lon="-0.370244"><ele>-46.6</ele><time>2022-10-30T14:52:09.0000000+00:00</time></trkpt><trkpt lat="39.4722605" lon="-0.37024241"><ele>-46.6</ele><time>2022-10-30T14:52:10.0000000+00:00</time></trkpt><trkpt lat="39.4722605" lon="-0.37024006"><ele>-46.6</ele><time>2022-10-30T14:52:11.0000000+00:00</time></trkpt><trkpt lat="39.47226109" lon="-0.37022682"><ele>-46.6</ele><time>2022-10-30T14:52:12.0000000+00:00</time></trkpt><trkpt lat="39.47226578" lon="-0.37021307"><ele>-46.6</ele><time>2022-10-30T14:52:13.0000000+00:00</time></trkpt><trkpt lat="39.47226889" lon="-0.3702041"><ele>-46.6</ele><time>2022-10-30T14:52:14.0000000+00:00</time></trkpt><trkpt lat="39.47226889" lon="-0.37018944"><ele>-46.6</ele><time>2022-10-30T14:52:15.0000000+00:00</time></trkpt><trkpt lat="39.47226872" lon="-0.37017846"><ele>-46.6</ele><time>2022-10-30T14:52:16.0000000+00:00</time></trkpt><trkpt lat="39.47227073" lon="-0.37016672"><ele>-46.6</ele><time>2022-10-30T14:52:17.0000000+00:00</time></trkpt><trkpt lat="39.47227442" lon="-0.37015524"><ele>-46.6</ele><time>2022-10-30T14:52:18.0000000+00:00</time></trkpt><trkpt lat="39.47227785" lon="-0.37013219"><ele>-46.6</ele><time>2022-10-30T14:52:19.0000000+00:00</time></trkpt><trkpt lat="39.47228112" lon="-0.37010947"><ele>-46.6</ele><time>2022-10-30T14:52:20.0000000+00:00</time></trkpt><trkpt lat="39.47228372" lon="-0.3700876"><ele>-46.6</ele><time>2022-10-30T14:52:21.0000000+00:00</time></trkpt><trkpt lat="39.47228213" lon="-0.37007645"><ele>-46.6</ele><time>2022-10-30T14:52:22.0000000+00:00</time></trkpt><trkpt lat="39.47227794" lon="-0.37007536"><ele>-46.6</ele><time>2022-10-30T14:52:23.0000000+00:00</time></trkpt><trkpt lat="39.47227903" lon="-0.37006312"><ele>-46.6</ele><time>2022-10-30T14:52:24.0000000+00:00</time></trkpt><trkpt lat="39.47228054" lon="-0.37004946"><ele>-46.6</ele><time>2022-10-30T14:52:25.0000000+00:00</time></trkpt><trkpt lat="39.47227651" lon="-0.37003898"><ele>-46.4</ele><time>2022-10-30T14:52:26.0000000+00:00</time></trkpt><trkpt lat="39.47227559" lon="-0.37003798"><ele>-46.4</ele><time>2022-10-30T14:52:27.0000000+00:00</time></trkpt><trkpt lat="39.47227433" lon="-0.3700368"><ele>-46.4</ele><time>2022-10-30T14:52:28.0000000+00:00</time></trkpt><trkpt lat="39.47227291" lon="-0.37003663"><ele>-46.4</ele><time>2022-10-30T14:52:29.0000000+00:00</time></trkpt><trkpt lat="39.47227727" lon="-0.37002808"><ele>-46.4</ele><time>2022-10-30T14:52:30.0000000+00:00</time></trkpt><trkpt lat="39.47228012" lon="-0.37002842"><ele>-46.4</ele><time>2022-10-30T14:52:31.0000000+00:00</time></trkpt><trkpt lat="39.47228028" lon="-0.370028"><ele>-46.4</ele><time>2022-10-30T14:52:32.0000000+00:00</time></trkpt><trkpt lat="39.47227953" lon="-0.3700156"><ele>-46.4</ele><time>2022-10-30T14:52:33.0000000+00:00</time></trkpt><trkpt lat="39.4722854" lon="-0.37000151"><ele>-46.4</ele><time>2022-10-30T14:52:34.0000000+00:00</time></trkpt><trkpt lat="39.47228749" lon="-0.36999984"><ele>-46.4</ele><time>2022-10-30T14:52:35.0000000+00:00</time></trkpt><trkpt lat="39.47228858" lon="-0.36999908"><ele>-46.4</ele><time>2022-10-30T14:52:36.0000000+00:00</time></trkpt><trkpt lat="39.47228917" lon="-0.36999883"><ele>-46.4</ele><time>2022-10-30T14:52:37.0000000+00:00</time></trkpt><trkpt lat="39.47228741" lon="-0.36999246"><ele>-46.4</ele><time>2022-10-30T14:52:38.0000000+00:00</time></trkpt><trkpt lat="39.47228355" lon="-0.36999322"><ele>-46.6</ele><time>2022-10-30T14:52:39.0000000+00:00</time></trkpt><trkpt lat="39.47228305" lon="-0.36999464"><ele>-46.6</ele><time>2022-10-30T14:52:40.0000000+00:00</time></trkpt><trkpt lat="39.47227676" lon="-0.36999481"><ele>-46.6</ele><time>2022-10-30T14:52:41.0000000+00:00</time></trkpt><trkpt lat="39.47227551" lon="-0.36998794"><ele>-46.6</ele><time>2022-10-30T14:52:42.0000000+00:00</time></trkpt><trkpt lat="39.47227106" lon="-0.36998869"><ele>-46.6</ele><time>2022-10-30T14:52:43.0000000+00:00</time></trkpt><trkpt lat="39.47226905" lon="-0.36998098"><ele>-46.6</ele><time>2022-10-30T14:52:44.0000000+00:00</time></trkpt><trkpt lat="39.47227065" lon="-0.36997913"><ele>-46.6</ele><time>2022-10-30T14:52:45.0000000+00:00</time></trkpt><trkpt lat="39.47227333" lon="-0.36997687"><ele>-46.6</ele><time>2022-10-30T14:52:46.0000000+00:00</time></trkpt><trkpt lat="39.47227333" lon="-0.36997687"><ele>-46.6</ele><time>2022-10-30T14:52:47.0000000+00:00</time></trkpt><trkpt lat="39.47227333" lon="-0.36997687"><ele>-46.6</ele><time>2022-10-30T14:52:48.0000000+00:00</time></trkpt><trkpt lat="39.47227333" lon="-0.36997687"><ele>-46.6</ele><time>2022-10-30T14:52:49.0000000+00:00</time></trkpt><trkpt lat="39.47227333" lon="-0.36997687"><ele>-46.4</ele><time>2022-10-30T14:52:50.0000000+00:00</time></trkpt><trkpt lat="39.47227333" lon="-0.36997687"><ele>-46.4</ele><time>2022-10-30T14:52:51.0000000+00:00</time></trkpt><trkpt lat="39.47227333" lon="-0.36997687"><ele>-46.4</ele><time>2022-10-30T14:52:52.0000000+00:00</time></trkpt><trkpt lat="39.47227333" lon="-0.36997687"><ele>-46.4</ele><time>2022-10-30T14:52:53.0000000+00:00</time></trkpt><trkpt lat="39.47227333" lon="-0.36997687"><ele>-46.4</ele><time>2022-10-30T14:52:54.0000000+00:00</time></trkpt><trkpt lat="39.47227333" lon="-0.36997687"><ele>-46.4</ele><time>2022-10-30T14:52:55.0000000+00:00</time></trkpt><trkpt lat="39.47227274" lon="-0.36997503"><ele>-46.4</ele><time>2022-10-30T14:52:56.0000000+00:00</time></trkpt><trkpt lat="39.47226394" lon="-0.36997193"><ele>-46.4</ele><time>2022-10-30T14:52:57.0000000+00:00</time></trkpt><trkpt lat="39.47226293" lon="-0.36996899"><ele>-46.8</ele><time>2022-10-30T14:52:58.0000000+00:00</time></trkpt><trkpt lat="39.47226109" lon="-0.36996874"><ele>-46.8</ele><time>2022-10-30T14:52:59.0000000+00:00</time></trkpt><trkpt lat="39.47225791" lon="-0.36996539"><ele>-46.8</ele><time>2022-10-30T14:53:00.0000000+00:00</time></trkpt><trkpt lat="39.47225581" lon="-0.36996463"><ele>-46.8</ele><time>2022-10-30T14:53:01.0000000+00:00</time></trkpt><trkpt lat="39.47225581" lon="-0.36996463"><ele>-46.8</ele><time>2022-10-30T14:53:02.0000000+00:00</time></trkpt><trkpt lat="39.47225581" lon="-0.36996463"><ele>-46.8</ele><time>2022-10-30T14:53:03.0000000+00:00</time></trkpt><trkpt lat="39.47225581" lon="-0.36996463"><ele>-46.8</ele><time>2022-10-30T14:53:04.0000000+00:00</time></trkpt><trkpt lat="39.47225581" lon="-0.36996463"><ele>-46.8</ele><time>2022-10-30T14:53:05.0000000+00:00</time></trkpt><trkpt lat="39.47225581" lon="-0.36996463"><ele>-46.8</ele><time>2022-10-30T14:53:06.0000000+00:00</time></trkpt><trkpt lat="39.47225581" lon="-0.36996463"><ele>-46.8</ele><time>2022-10-30T14:53:07.0000000+00:00</time></trkpt><trkpt lat="39.47225581" lon="-0.36996463"><ele>-46.8</ele><time>2022-10-30T14:53:08.0000000+00:00</time></trkpt><trkpt lat="39.47225581" lon="-0.3699612"><ele>-46.8</ele><time>2022-10-30T14:53:09.0000000+00:00</time></trkpt><trkpt lat="39.47225707" lon="-0.36996095"><ele>-46.8</ele><time>2022-10-30T14:53:10.0000000+00:00</time></trkpt><trkpt lat="39.47225715" lon="-0.36995826"><ele>-46.8</ele><time>2022-10-30T14:53:11.0000000+00:00</time></trkpt><trkpt lat="39.47225715" lon="-0.36995759"><ele>-46.8</ele><time>2022-10-30T14:53:12.0000000+00:00</time></trkpt><trkpt lat="39.47225715" lon="-0.36995717"><ele>-46.8</ele><time>2022-10-30T14:53:13.0000000+00:00</time></trkpt><trkpt lat="39.47225715" lon="-0.36995692"><ele>-46.8</ele><time>2022-10-30T14:53:14.0000000+00:00</time></trkpt><trkpt lat="39.47225715" lon="-0.36995608"><ele>-46.8</ele><time>2022-10-30T14:53:15.0000000+00:00</time></trkpt><trkpt lat="39.47225514" lon="-0.36994963"><ele>-46.8</ele><time>2022-10-30T14:53:16.0000000+00:00</time></trkpt><trkpt lat="39.47225598" lon="-0.36993622"><ele>-46.8</ele><time>2022-10-30T14:53:17.0000000+00:00</time></trkpt><trkpt lat="39.47225397" lon="-0.36993102"><ele>-46.8</ele><time>2022-10-30T14:53:18.0000000+00:00</time></trkpt><trkpt lat="39.47225606" lon="-0.36991694"><ele>-46.8</ele><time>2022-10-30T14:53:19.0000000+00:00</time></trkpt><trkpt lat="39.47227157" lon="-0.36990177"><ele>-46.8</ele><time>2022-10-30T14:53:20.0000000+00:00</time></trkpt><trkpt lat="39.47227777" lon="-0.3698928"><ele>-46.8</ele><time>2022-10-30T14:53:21.0000000+00:00</time></trkpt><trkpt lat="39.47228548" lon="-0.36988308"><ele>-46.8</ele><time>2022-10-30T14:53:22.0000000+00:00</time></trkpt><trkpt lat="39.47228297" lon="-0.36987838"><ele>-46.8</ele><time>2022-10-30T14:53:23.0000000+00:00</time></trkpt><trkpt lat="39.47228188" lon="-0.3698762"><ele>-46.8</ele><time>2022-10-30T14:53:24.0000000+00:00</time></trkpt><trkpt lat="39.47227844" lon="-0.36987092"><ele>-46.8</ele><time>2022-10-30T14:53:25.0000000+00:00</time></trkpt><trkpt lat="39.47228037" lon="-0.36986807"><ele>-46.8</ele><time>2022-10-30T14:53:26.0000000+00:00</time></trkpt><trkpt lat="39.47228297" lon="-0.36986237"><ele>-46.8</ele><time>2022-10-30T14:53:27.0000000+00:00</time></trkpt><trkpt lat="39.47228431" lon="-0.36986422"><ele>-46.8</ele><time>2022-10-30T14:53:28.0000000+00:00</time></trkpt><trkpt lat="39.47228246" lon="-0.36986908"><ele>-46.8</ele><time>2022-10-30T14:53:29.0000000+00:00</time></trkpt><trkpt lat="39.47228246" lon="-0.36986615"><ele>-46.8</ele><time>2022-10-30T14:53:30.0000000+00:00</time></trkpt><trkpt lat="39.47228246" lon="-0.36986615"><ele>-46.8</ele><time>2022-10-30T14:53:31.0000000+00:00</time></trkpt><trkpt lat="39.47228246" lon="-0.36986615"><ele>-46.8</ele><time>2022-10-30T14:53:32.0000000+00:00</time></trkpt><trkpt lat="39.47228246" lon="-0.36986615"><ele>-46.8</ele><time>2022-10-30T14:53:33.0000000+00:00</time></trkpt><trkpt lat="39.47228246" lon="-0.36986615"><ele>-46.8</ele><time>2022-10-30T14:53:34.0000000+00:00</time></trkpt><trkpt lat="39.47228246" lon="-0.36986615"><ele>-46.8</ele><time>2022-10-30T14:53:35.0000000+00:00</time></trkpt><trkpt lat="39.47228246" lon="-0.36986615"><ele>-46.8</ele><time>2022-10-30T14:53:36.0000000+00:00</time></trkpt><trkpt lat="39.47228246" lon="-0.36986615"><ele>-46.8</ele><time>2022-10-30T14:53:37.0000000+00:00</time></trkpt><trkpt lat="39.47228246" lon="-0.36986615"><ele>-46.8</ele><time>2022-10-30T14:53:38.0000000+00:00</time></trkpt><trkpt lat="39.47228246" lon="-0.36986615"><ele>-46.8</ele><time>2022-10-30T14:53:39.0000000+00:00</time></trkpt><trkpt lat="39.47228246" lon="-0.36986615"><ele>-46.8</ele><time>2022-10-30T14:53:40.0000000+00:00</time></trkpt><trkpt lat="39.47228246" lon="-0.36986615"><ele>-46.8</ele><time>2022-10-30T14:53:41.0000000+00:00</time></trkpt><trkpt lat="39.47228246" lon="-0.36986615"><ele>-46.8</ele><time>2022-10-30T14:53:42.0000000+00:00</time></trkpt><trkpt lat="39.47228246" lon="-0.36986615"><ele>-46.8</ele><time>2022-10-30T14:53:43.0000000+00:00</time></trkpt><trkpt lat="39.47228246" lon="-0.36986615"><ele>-46.8</ele><time>2022-10-30T14:53:44.0000000+00:00</time></trkpt><trkpt lat="39.47228246" lon="-0.36986615"><ele>-46.8</ele><time>2022-10-30T14:53:45.0000000+00:00</time></trkpt><trkpt lat="39.47228188" lon="-0.36986615"><ele>-46.8</ele><time>2022-10-30T14:53:46.0000000+00:00</time></trkpt><trkpt lat="39.47228129" lon="-0.36986615"><ele>-46.8</ele><time>2022-10-30T14:53:47.0000000+00:00</time></trkpt><trkpt lat="39.47228045" lon="-0.36986615"><ele>-46.8</ele><time>2022-10-30T14:53:48.0000000+00:00</time></trkpt><trkpt lat="39.47227995" lon="-0.36986556"><ele>-46.8</ele><time>2022-10-30T14:53:49.0000000+00:00</time></trkpt><trkpt lat="39.47227953" lon="-0.36986539"><ele>-46.8</ele><time>2022-10-30T14:53:50.0000000+00:00</time></trkpt><trkpt lat="39.47227903" lon="-0.36986455"><ele>-46.8</ele><time>2022-10-30T14:53:51.0000000+00:00</time></trkpt><trkpt lat="39.47227852" lon="-0.36986447"><ele>-46.8</ele><time>2022-10-30T14:53:52.0000000+00:00</time></trkpt><trkpt lat="39.47227802" lon="-0.3698643"><ele>-46.8</ele><time>2022-10-30T14:53:53.0000000+00:00</time></trkpt><trkpt lat="39.47227333" lon="-0.36986388"><ele>-46.8</ele><time>2022-10-30T14:53:54.0000000+00:00</time></trkpt><trkpt lat="39.47227224" lon="-0.36986321"><ele>-46.8</ele><time>2022-10-30T14:53:55.0000000+00:00</time></trkpt><trkpt lat="39.47226696" lon="-0.36986246"><ele>-46.8</ele><time>2022-10-30T14:53:56.0000000+00:00</time></trkpt><trkpt lat="39.47225874" lon="-0.36986154"><ele>-46.8</ele><time>2022-10-30T14:53:57.0000000+00:00</time></trkpt><trkpt lat="39.4722574" lon="-0.36986078"><ele>-46.8</ele><time>2022-10-30T14:53:58.0000000+00:00</time></trkpt><trkpt lat="39.47225648" lon="-0.36985978"><ele>-46.8</ele><time>2022-10-30T14:53:59.0000000+00:00</time></trkpt><trkpt lat="39.47225623" lon="-0.36985726"><ele>-46.8</ele><time>2022-10-30T14:54:00.0000000+00:00</time></trkpt><trkpt lat="39.47225623" lon="-0.36985525"><ele>-46.8</ele><time>2022-10-30T14:54:01.0000000+00:00</time></trkpt><trkpt lat="39.47225573" lon="-0.36984117"><ele>-46.8</ele><time>2022-10-30T14:54:02.0000000+00:00</time></trkpt><trkpt lat="39.47225556" lon="-0.36983899"><ele>-46.8</ele><time>2022-10-30T14:54:03.0000000+00:00</time></trkpt><trkpt lat="39.47225556" lon="-0.36983865"><ele>-46.8</ele><time>2022-10-30T14:54:04.0000000+00:00</time></trkpt><trkpt lat="39.47225556" lon="-0.36983857"><ele>-46.8</ele><time>2022-10-30T14:54:05.0000000+00:00</time></trkpt><trkpt lat="39.47225556" lon="-0.36983857"><ele>-46.8</ele><time>2022-10-30T14:54:06.0000000+00:00</time></trkpt><trkpt lat="39.47225556" lon="-0.36983857"><ele>-46.8</ele><time>2022-10-30T14:54:07.0000000+00:00</time></trkpt><trkpt lat="39.47225556" lon="-0.36983857"><ele>-46.8</ele><time>2022-10-30T14:54:08.0000000+00:00</time></trkpt><trkpt lat="39.47225682" lon="-0.36984167"><ele>-46.8</ele><time>2022-10-30T14:54:09.0000000+00:00</time></trkpt><trkpt lat="39.47225145" lon="-0.36983069"><ele>-46.8</ele><time>2022-10-30T14:54:10.0000000+00:00</time></trkpt><trkpt lat="39.47225355" lon="-0.36983253"><ele>-46.8</ele><time>2022-10-30T14:54:11.0000000+00:00</time></trkpt><trkpt lat="39.47225564" lon="-0.36983782"><ele>-46.8</ele><time>2022-10-30T14:54:12.0000000+00:00</time></trkpt><trkpt lat="39.4722605" lon="-0.36983941"><ele>-46.8</ele><time>2022-10-30T14:54:13.0000000+00:00</time></trkpt><trkpt lat="39.47225832" lon="-0.36983698"><ele>-46.8</ele><time>2022-10-30T14:54:14.0000000+00:00</time></trkpt><trkpt lat="39.47225656" lon="-0.36984008"><ele>-46.8</ele><time>2022-10-30T14:54:15.0000000+00:00</time></trkpt><trkpt lat="39.47225598" lon="-0.36984544"><ele>-46.8</ele><time>2022-10-30T14:54:16.0000000+00:00</time></trkpt><trkpt lat="39.47225514" lon="-0.36984888"><ele>-46.8</ele><time>2022-10-30T14:54:17.0000000+00:00</time></trkpt><trkpt lat="39.47225514" lon="-0.36985374"><ele>-46.8</ele><time>2022-10-30T14:54:18.0000000+00:00</time></trkpt><trkpt lat="39.47225405" lon="-0.36985215"><ele>-46.8</ele><time>2022-10-30T14:54:19.0000000+00:00</time></trkpt><trkpt lat="39.47225112" lon="-0.36983874"><ele>-46.8</ele><time>2022-10-30T14:54:20.0000000+00:00</time></trkpt><trkpt lat="39.47225053" lon="-0.36982675"><ele>-46.8</ele><time>2022-10-30T14:54:21.0000000+00:00</time></trkpt><trkpt lat="39.47225103" lon="-0.36982097"><ele>-46.8</ele><time>2022-10-30T14:54:22.0000000+00:00</time></trkpt><trkpt lat="39.47225397" lon="-0.36982248"><ele>-46.8</ele><time>2022-10-30T14:54:23.0000000+00:00</time></trkpt><trkpt lat="39.47224986" lon="-0.36980345"><ele>-46.8</ele><time>2022-10-30T14:54:24.0000000+00:00</time></trkpt><trkpt lat="39.47225363" lon="-0.36980236"><ele>-46.8</ele><time>2022-10-30T14:54:25.0000000+00:00</time></trkpt><trkpt lat="39.47225832" lon="-0.36979113"><ele>-46.8</ele><time>2022-10-30T14:54:26.0000000+00:00</time></trkpt><trkpt lat="39.47226411" lon="-0.3697928"><ele>-46.8</ele><time>2022-10-30T14:54:27.0000000+00:00</time></trkpt><trkpt lat="39.47226587" lon="-0.36979339"><ele>-46.8</ele><time>2022-10-30T14:54:28.0000000+00:00</time></trkpt><trkpt lat="39.47227115" lon="-0.36978803"><ele>-46.8</ele><time>2022-10-30T14:54:29.0000000+00:00</time></trkpt><trkpt lat="39.47227282" lon="-0.36978342"><ele>-46.8</ele><time>2022-10-30T14:54:30.0000000+00:00</time></trkpt><trkpt lat="39.47227316" lon="-0.36978182"><ele>-46.8</ele><time>2022-10-30T14:54:31.0000000+00:00</time></trkpt><trkpt lat="39.47227316" lon="-0.36977763"><ele>-46.8</ele><time>2022-10-30T14:54:32.0000000+00:00</time></trkpt><trkpt lat="39.47227417" lon="-0.36977462"><ele>-46.8</ele><time>2022-10-30T14:54:33.0000000+00:00</time></trkpt><trkpt lat="39.47227492" lon="-0.3697747"><ele>-46.8</ele><time>2022-10-30T14:54:34.0000000+00:00</time></trkpt><trkpt lat="39.47227517" lon="-0.36977286"><ele>-46.8</ele><time>2022-10-30T14:54:35.0000000+00:00</time></trkpt><trkpt lat="39.47227299" lon="-0.36976548"><ele>-46.8</ele><time>2022-10-30T14:54:36.0000000+00:00</time></trkpt><trkpt lat="39.47227467" lon="-0.36976053"><ele>-46.8</ele><time>2022-10-30T14:54:37.0000000+00:00</time></trkpt><trkpt lat="39.47227601" lon="-0.36976246"><ele>-46.8</ele><time>2022-10-30T14:54:38.0000000+00:00</time></trkpt><trkpt lat="39.47227693" lon="-0.36976196"><ele>-46.8</ele><time>2022-10-30T14:54:39.0000000+00:00</time></trkpt><trkpt lat="39.47227517" lon="-0.36976229"><ele>-46.8</ele><time>2022-10-30T14:54:40.0000000+00:00</time></trkpt><trkpt lat="39.47228255" lon="-0.3697483"><ele>-46.8</ele><time>2022-10-30T14:54:41.0000000+00:00</time></trkpt><trkpt lat="39.47229244" lon="-0.36973329"><ele>-46.8</ele><time>2022-10-30T14:54:42.0000000+00:00</time></trkpt><trkpt lat="39.47230367" lon="-0.36971435"><ele>-46.8</ele><time>2022-10-30T14:54:43.0000000+00:00</time></trkpt><trkpt lat="39.47230468" lon="-0.36971075"><ele>-46.8</ele><time>2022-10-30T14:54:44.0000000+00:00</time></trkpt><trkpt lat="39.47230476" lon="-0.36970563"><ele>-46.8</ele><time>2022-10-30T14:54:45.0000000+00:00</time></trkpt><trkpt lat="39.47230853" lon="-0.36969666"><ele>-46.8</ele><time>2022-10-30T14:54:46.0000000+00:00</time></trkpt><trkpt lat="39.47230644" lon="-0.36969155"><ele>-46.8</ele><time>2022-10-30T14:54:47.0000000+00:00</time></trkpt><trkpt lat="39.47230384" lon="-0.36968602"><ele>-46.8</ele><time>2022-10-30T14:54:48.0000000+00:00</time></trkpt><trkpt lat="39.47230451" lon="-0.36967957"><ele>-46.8</ele><time>2022-10-30T14:54:49.0000000+00:00</time></trkpt><trkpt lat="39.47230417" lon="-0.3696944"><ele>-46.8</ele><time>2022-10-30T14:54:50.0000000+00:00</time></trkpt><trkpt lat="39.47230862" lon="-0.36970597"><ele>-46.8</ele><time>2022-10-30T14:54:51.0000000+00:00</time></trkpt><trkpt lat="39.47231188" lon="-0.3697136"><ele>-46.8</ele><time>2022-10-30T14:54:52.0000000+00:00</time></trkpt><trkpt lat="39.47231197" lon="-0.36971368"><ele>-46.8</ele><time>2022-10-30T14:54:53.0000000+00:00</time></trkpt><trkpt lat="39.47231281" lon="-0.36971083"><ele>-46.8</ele><time>2022-10-30T14:54:54.0000000+00:00</time></trkpt><trkpt lat="39.47231398" lon="-0.36970982"><ele>-46.8</ele><time>2022-10-30T14:54:55.0000000+00:00</time></trkpt><trkpt lat="39.47231532" lon="-0.36971125"><ele>-46.8</ele><time>2022-10-30T14:54:56.0000000+00:00</time></trkpt><trkpt lat="39.47231717" lon="-0.36971217"><ele>-46.8</ele><time>2022-10-30T14:54:57.0000000+00:00</time></trkpt><trkpt lat="39.47231817" lon="-0.36971343"><ele>-46.8</ele><time>2022-10-30T14:54:58.0000000+00:00</time></trkpt><trkpt lat="39.47231784" lon="-0.36971703"><ele>-46.8</ele><time>2022-10-30T14:54:59.0000000+00:00</time></trkpt><trkpt lat="39.47231725" lon="-0.36971779"><ele>-46.8</ele><time>2022-10-30T14:55:00.0000000+00:00</time></trkpt><trkpt lat="39.47231725" lon="-0.36971779"><ele>-46.8</ele><time>2022-10-30T14:55:01.0000000+00:00</time></trkpt><trkpt lat="39.47231725" lon="-0.36971779"><ele>-46.8</ele><time>2022-10-30T14:55:02.0000000+00:00</time></trkpt><trkpt lat="39.47231725" lon="-0.36971779"><ele>-46.8</ele><time>2022-10-30T14:55:03.0000000+00:00</time></trkpt><trkpt lat="39.47231725" lon="-0.36971779"><ele>-46.8</ele><time>2022-10-30T14:55:04.0000000+00:00</time></trkpt><trkpt lat="39.47231725" lon="-0.36971779"><ele>-46.8</ele><time>2022-10-30T14:55:05.0000000+00:00</time></trkpt><trkpt lat="39.47231725" lon="-0.36971779"><ele>-46.8</ele><time>2022-10-30T14:55:06.0000000+00:00</time></trkpt><trkpt lat="39.47231725" lon="-0.36971779"><ele>-46.8</ele><time>2022-10-30T14:55:07.0000000+00:00</time></trkpt><trkpt lat="39.47231725" lon="-0.36971779"><ele>-46.8</ele><time>2022-10-30T14:55:08.0000000+00:00</time></trkpt><trkpt lat="39.47231725" lon="-0.36971779"><ele>-46.8</ele><time>2022-10-30T14:55:09.0000000+00:00</time></trkpt><trkpt lat="39.47231725" lon="-0.36971779"><ele>-46.8</ele><time>2022-10-30T14:55:10.0000000+00:00</time></trkpt><trkpt lat="39.47231725" lon="-0.36971779"><ele>-46.8</ele><time>2022-10-30T14:55:11.0000000+00:00</time></trkpt><trkpt lat="39.47231725" lon="-0.36971779"><ele>-46.8</ele><time>2022-10-30T14:55:12.0000000+00:00</time></trkpt><trkpt lat="39.47231725" lon="-0.36971779"><ele>-46.8</ele><time>2022-10-30T14:55:13.0000000+00:00</time></trkpt><trkpt lat="39.47231767" lon="-0.36971779"><ele>-46.8</ele><time>2022-10-30T14:55:14.0000000+00:00</time></trkpt><trkpt lat="39.47231784" lon="-0.36971779"><ele>-46.8</ele><time>2022-10-30T14:55:15.0000000+00:00</time></trkpt><trkpt lat="39.47231792" lon="-0.36972131"><ele>-46.8</ele><time>2022-10-30T14:55:16.0000000+00:00</time></trkpt><trkpt lat="39.47231817" lon="-0.36972441"><ele>-46.8</ele><time>2022-10-30T14:55:17.0000000+00:00</time></trkpt><trkpt lat="39.47231876" lon="-0.36972919"><ele>-46.8</ele><time>2022-10-30T14:55:18.0000000+00:00</time></trkpt><trkpt lat="39.47232328" lon="-0.36973841"><ele>-46.8</ele><time>2022-10-30T14:55:19.0000000+00:00</time></trkpt><trkpt lat="39.47232404" lon="-0.36974176"><ele>-46.8</ele><time>2022-10-30T14:55:20.0000000+00:00</time></trkpt><trkpt lat="39.47232421" lon="-0.36974603"><ele>-46.8</ele><time>2022-10-30T14:55:21.0000000+00:00</time></trkpt><trkpt lat="39.47232471" lon="-0.36974712"><ele>-46.8</ele><time>2022-10-30T14:55:22.0000000+00:00</time></trkpt><trkpt lat="39.47232471" lon="-0.36974805"><ele>-46.8</ele><time>2022-10-30T14:55:23.0000000+00:00</time></trkpt><trkpt lat="39.47232471" lon="-0.36974846"><ele>-46.8</ele><time>2022-10-30T14:55:24.0000000+00:00</time></trkpt><trkpt lat="39.47232471" lon="-0.36974872"><ele>-46.8</ele><time>2022-10-30T14:55:25.0000000+00:00</time></trkpt><trkpt lat="39.47232471" lon="-0.36975307"><ele>-46.8</ele><time>2022-10-30T14:55:26.0000000+00:00</time></trkpt><trkpt lat="39.47232471" lon="-0.36975374"><ele>-46.8</ele><time>2022-10-30T14:55:27.0000000+00:00</time></trkpt><trkpt lat="39.47232471" lon="-0.36975794"><ele>-46.8</ele><time>2022-10-30T14:55:28.0000000+00:00</time></trkpt><trkpt lat="39.47232479" lon="-0.36975869"><ele>-46.8</ele><time>2022-10-30T14:55:29.0000000+00:00</time></trkpt><trkpt lat="39.47232479" lon="-0.36976045"><ele>-46.8</ele><time>2022-10-30T14:55:30.0000000+00:00</time></trkpt><trkpt lat="39.47232488" lon="-0.36976171"><ele>-46.8</ele><time>2022-10-30T14:55:31.0000000+00:00</time></trkpt><trkpt lat="39.47232496" lon="-0.36976221"><ele>-46.8</ele><time>2022-10-30T14:55:32.0000000+00:00</time></trkpt><trkpt lat="39.47232513" lon="-0.3697628"><ele>-46.8</ele><time>2022-10-30T14:55:33.0000000+00:00</time></trkpt><trkpt lat="39.47232521" lon="-0.36976322"><ele>-46.8</ele><time>2022-10-30T14:55:34.0000000+00:00</time></trkpt><trkpt lat="39.47232521" lon="-0.3697633"><ele>-46.8</ele><time>2022-10-30T14:55:35.0000000+00:00</time></trkpt><trkpt lat="39.47232521" lon="-0.36976372"><ele>-46.8</ele><time>2022-10-30T14:55:36.0000000+00:00</time></trkpt><trkpt lat="39.47232521" lon="-0.36976531"><ele>-46.8</ele><time>2022-10-30T14:55:37.0000000+00:00</time></trkpt><trkpt lat="39.47232521" lon="-0.36976556"><ele>-46.8</ele><time>2022-10-30T14:55:38.0000000+00:00</time></trkpt><trkpt lat="39.47232521" lon="-0.36976565"><ele>-46.8</ele><time>2022-10-30T14:55:39.0000000+00:00</time></trkpt><trkpt lat="39.47232496" lon="-0.36976598"><ele>-46.8</ele><time>2022-10-30T14:55:40.0000000+00:00</time></trkpt><trkpt lat="39.47232479" lon="-0.36976607"><ele>-46.8</ele><time>2022-10-30T14:55:41.0000000+00:00</time></trkpt><trkpt lat="39.47232479" lon="-0.36976607"><ele>-46.8</ele><time>2022-10-30T14:55:42.0000000+00:00</time></trkpt><trkpt lat="39.47232354" lon="-0.36976481"><ele>-46.8</ele><time>2022-10-30T14:55:43.0000000+00:00</time></trkpt><trkpt lat="39.47232219" lon="-0.36976456"><ele>-46.8</ele><time>2022-10-30T14:55:44.0000000+00:00</time></trkpt><trkpt lat="39.4723196" lon="-0.36976204"><ele>-46.8</ele><time>2022-10-30T14:55:45.0000000+00:00</time></trkpt><trkpt lat="39.47231742" lon="-0.36976053"><ele>-46.8</ele><time>2022-10-30T14:55:46.0000000+00:00</time></trkpt><trkpt lat="39.47231624" lon="-0.3697597"><ele>-46.8</ele><time>2022-10-30T14:55:47.0000000+00:00</time></trkpt><trkpt lat="39.47231624" lon="-0.3697597"><ele>-46.8</ele><time>2022-10-30T14:55:48.0000000+00:00</time></trkpt><trkpt lat="39.47231624" lon="-0.3697597"><ele>-46.8</ele><time>2022-10-30T14:55:49.0000000+00:00</time></trkpt><trkpt lat="39.47231624" lon="-0.3697597"><ele>-46.8</ele><time>2022-10-30T14:55:50.0000000+00:00</time></trkpt><trkpt lat="39.47231624" lon="-0.3697597"><ele>-46.8</ele><time>2022-10-30T14:55:51.0000000+00:00</time></trkpt><trkpt lat="39.47231624" lon="-0.3697597"><ele>-46.8</ele><time>2022-10-30T14:55:52.0000000+00:00</time></trkpt><trkpt lat="39.47231624" lon="-0.3697597"><ele>-46.8</ele><time>2022-10-30T14:55:53.0000000+00:00</time></trkpt><trkpt lat="39.47231624" lon="-0.3697597"><ele>-46.8</ele><time>2022-10-30T14:55:54.0000000+00:00</time></trkpt><trkpt lat="39.47231624" lon="-0.3697597"><ele>-46.8</ele><time>2022-10-30T14:55:55.0000000+00:00</time></trkpt><trkpt lat="39.47231624" lon="-0.3697597"><ele>-46.8</ele><time>2022-10-30T14:55:56.0000000+00:00</time></trkpt><trkpt lat="39.47231624" lon="-0.36975475"><ele>-46.8</ele><time>2022-10-30T14:55:57.0000000+00:00</time></trkpt><trkpt lat="39.47231624" lon="-0.36975383"><ele>-46.8</ele><time>2022-10-30T14:55:58.0000000+00:00</time></trkpt><trkpt lat="39.47231624" lon="-0.36975358"><ele>-46.8</ele><time>2022-10-30T14:55:59.0000000+00:00</time></trkpt><trkpt lat="39.47231725" lon="-0.36975349"><ele>-46.8</ele><time>2022-10-30T14:56:00.0000000+00:00</time></trkpt><trkpt lat="39.47231758" lon="-0.36975333"><ele>-46.8</ele><time>2022-10-30T14:56:01.0000000+00:00</time></trkpt><trkpt lat="39.47232027" lon="-0.36975307"><ele>-46.8</ele><time>2022-10-30T14:56:02.0000000+00:00</time></trkpt><trkpt lat="39.47232052" lon="-0.36974084"><ele>-46.8</ele><time>2022-10-30T14:56:03.0000000+00:00</time></trkpt><trkpt lat="39.47232161" lon="-0.36973916"><ele>-46.8</ele><time>2022-10-30T14:56:04.0000000+00:00</time></trkpt><trkpt lat="39.47232043" lon="-0.36973463"><ele>-46.8</ele><time>2022-10-30T14:56:05.0000000+00:00</time></trkpt><trkpt lat="39.47232077" lon="-0.36972868"><ele>-46.8</ele><time>2022-10-30T14:56:06.0000000+00:00</time></trkpt><trkpt lat="39.47231364" lon="-0.3697234"><ele>-46.8</ele><time>2022-10-30T14:56:07.0000000+00:00</time></trkpt><trkpt lat="39.47231297" lon="-0.36972131"><ele>-46.8</ele><time>2022-10-30T14:56:08.0000000+00:00</time></trkpt><trkpt lat="39.47231121" lon="-0.36971837"><ele>-46.8</ele><time>2022-10-30T14:56:09.0000000+00:00</time></trkpt><trkpt lat="39.4723087" lon="-0.36971561"><ele>-46.8</ele><time>2022-10-30T14:56:10.0000000+00:00</time></trkpt><trkpt lat="39.47230618" lon="-0.36971234"><ele>-46.8</ele><time>2022-10-30T14:56:11.0000000+00:00</time></trkpt><trkpt lat="39.47230225" lon="-0.36970748"><ele>-46.8</ele><time>2022-10-30T14:56:12.0000000+00:00</time></trkpt><trkpt lat="39.47229839" lon="-0.36970438"><ele>-46.8</ele><time>2022-10-30T14:56:13.0000000+00:00</time></trkpt><trkpt lat="39.47229252" lon="-0.36969574"><ele>-46.8</ele><time>2022-10-30T14:56:14.0000000+00:00</time></trkpt><trkpt lat="39.47228557" lon="-0.3696892"><ele>-46.8</ele><time>2022-10-30T14:56:15.0000000+00:00</time></trkpt><trkpt lat="39.47228238" lon="-0.36968552"><ele>-46.8</ele><time>2022-10-30T14:56:16.0000000+00:00</time></trkpt><trkpt lat="39.47228339" lon="-0.36967579"><ele>-46.8</ele><time>2022-10-30T14:56:17.0000000+00:00</time></trkpt><trkpt lat="39.47230367" lon="-0.36965903"><ele>-46.8</ele><time>2022-10-30T14:56:18.0000000+00:00</time></trkpt><trkpt lat="39.47231742" lon="-0.36965056"><ele>-46.8</ele><time>2022-10-30T14:56:19.0000000+00:00</time></trkpt><trkpt lat="39.47233594" lon="-0.36964855"><ele>-46.8</ele><time>2022-10-30T14:56:20.0000000+00:00</time></trkpt><trkpt lat="39.4723486" lon="-0.36964352"><ele>-46.8</ele><time>2022-10-30T14:56:21.0000000+00:00</time></trkpt><trkpt lat="39.47234592" lon="-0.36963615"><ele>-46.8</ele><time>2022-10-30T14:56:22.0000000+00:00</time></trkpt><trkpt lat="39.47235446" lon="-0.36963061"><ele>-46.8</ele><time>2022-10-30T14:56:23.0000000+00:00</time></trkpt><trkpt lat="39.47235924" lon="-0.36963757"><ele>-46.8</ele><time>2022-10-30T14:56:24.0000000+00:00</time></trkpt><trkpt lat="39.47236771" lon="-0.36964361"><ele>-46.8</ele><time>2022-10-30T14:56:25.0000000+00:00</time></trkpt><trkpt lat="39.47236838" lon="-0.36967093"><ele>-46.8</ele><time>2022-10-30T14:56:26.0000000+00:00</time></trkpt><trkpt lat="39.47237114" lon="-0.36968225"><ele>-46.8</ele><time>2022-10-30T14:56:27.0000000+00:00</time></trkpt><trkpt lat="39.47236729" lon="-0.36967043"><ele>-46.8</ele><time>2022-10-30T14:56:28.0000000+00:00</time></trkpt><trkpt lat="39.47236737" lon="-0.36966699"><ele>-46.8</ele><time>2022-10-30T14:56:29.0000000+00:00</time></trkpt><trkpt lat="39.47236436" lon="-0.36965895"><ele>-46.8</ele><time>2022-10-30T14:56:30.0000000+00:00</time></trkpt><trkpt lat="39.47236218" lon="-0.36965475"><ele>-46.8</ele><time>2022-10-30T14:56:31.0000000+00:00</time></trkpt><trkpt lat="39.47235698" lon="-0.36965383"><ele>-46.8</ele><time>2022-10-30T14:56:32.0000000+00:00</time></trkpt><trkpt lat="39.47233887" lon="-0.36965828"><ele>-46.8</ele><time>2022-10-30T14:56:33.0000000+00:00</time></trkpt><trkpt lat="39.47233426" lon="-0.36965685"><ele>-46.8</ele><time>2022-10-30T14:56:34.0000000+00:00</time></trkpt><trkpt lat="39.47230116" lon="-0.36965685"><ele>-46.8</ele><time>2022-10-30T14:56:35.0000000+00:00</time></trkpt><trkpt lat="39.47227718" lon="-0.36965635"><ele>-46.8</ele><time>2022-10-30T14:56:36.0000000+00:00</time></trkpt><trkpt lat="39.47225204" lon="-0.3696675"><ele>-46.8</ele><time>2022-10-30T14:56:37.0000000+00:00</time></trkpt><trkpt lat="39.47227593" lon="-0.36967319"><ele>-46.8</ele><time>2022-10-30T14:56:38.0000000+00:00</time></trkpt><trkpt lat="39.47227383" lon="-0.36966716"><ele>-46.8</ele><time>2022-10-30T14:56:39.0000000+00:00</time></trkpt><trkpt lat="39.47227266" lon="-0.36965484"><ele>-46.8</ele><time>2022-10-30T14:56:40.0000000+00:00</time></trkpt><trkpt lat="39.47227316" lon="-0.36965308"><ele>-46.8</ele><time>2022-10-30T14:56:41.0000000+00:00</time></trkpt><trkpt lat="39.47227744" lon="-0.36963841"><ele>-46.8</ele><time>2022-10-30T14:56:42.0000000+00:00</time></trkpt><trkpt lat="39.47228096" lon="-0.36961972"><ele>-46.8</ele><time>2022-10-30T14:56:43.0000000+00:00</time></trkpt><trkpt lat="39.47228188" lon="-0.36962131"><ele>-46.8</ele><time>2022-10-30T14:56:44.0000000+00:00</time></trkpt><trkpt lat="39.47227467" lon="-0.36961435"><ele>-46.8</ele><time>2022-10-30T14:56:45.0000000+00:00</time></trkpt><trkpt lat="39.47227182" lon="-0.36960882"><ele>-46.8</ele><time>2022-10-30T14:56:46.0000000+00:00</time></trkpt><trkpt lat="39.47227995" lon="-0.36960505"><ele>-46.8</ele><time>2022-10-30T14:56:47.0000000+00:00</time></trkpt><trkpt lat="39.47228406" lon="-0.3696027"><ele>-46.8</ele><time>2022-10-30T14:56:48.0000000+00:00</time></trkpt><trkpt lat="39.4722854" lon="-0.36959231"><ele>-46.8</ele><time>2022-10-30T14:56:49.0000000+00:00</time></trkpt><trkpt lat="39.47229001" lon="-0.36956834"><ele>-46.8</ele><time>2022-10-30T14:56:50.0000000+00:00</time></trkpt><trkpt lat="39.4722854" lon="-0.36954101"><ele>-46.8</ele><time>2022-10-30T14:56:51.0000000+00:00</time></trkpt><trkpt lat="39.47229395" lon="-0.36950841"><ele>-46.8</ele><time>2022-10-30T14:56:52.0000000+00:00</time></trkpt><trkpt lat="39.47229873" lon="-0.36949273"><ele>-46.8</ele><time>2022-10-30T14:56:53.0000000+00:00</time></trkpt><trkpt lat="39.47231029" lon="-0.36947161"><ele>-46.8</ele><time>2022-10-30T14:56:54.0000000+00:00</time></trkpt><trkpt lat="39.4723201" lon="-0.36945518"><ele>-46.8</ele><time>2022-10-30T14:56:55.0000000+00:00</time></trkpt><trkpt lat="39.47232144" lon="-0.36945677"><ele>-46.8</ele><time>2022-10-30T14:56:56.0000000+00:00</time></trkpt><trkpt lat="39.47232387" lon="-0.36945351"><ele>-46.8</ele><time>2022-10-30T14:56:57.0000000+00:00</time></trkpt><trkpt lat="39.4723289" lon="-0.36945082"><ele>-46.8</ele><time>2022-10-30T14:56:58.0000000+00:00</time></trkpt><trkpt lat="39.472332" lon="-0.36944998"><ele>-46.8</ele><time>2022-10-30T14:56:59.0000000+00:00</time></trkpt><trkpt lat="39.47239168" lon="-0.36958049"><ele>-46.8</ele><time>2022-10-30T14:57:16.0000000+00:00</time></trkpt><trkpt lat="39.47235438" lon="-0.36962818"><ele>-46.8</ele><time>2022-10-30T14:57:17.0000000+00:00</time></trkpt><trkpt lat="39.47231825" lon="-0.36969683"><ele>-46.8</ele><time>2022-10-30T14:57:18.0000000+00:00</time></trkpt><trkpt lat="39.47229822" lon="-0.36971351"><ele>-46.8</ele><time>2022-10-30T14:57:19.0000000+00:00</time></trkpt><trkpt lat="39.47228774" lon="-0.3696965"><ele>-46.8</ele><time>2022-10-30T14:57:20.0000000+00:00</time></trkpt><trkpt lat="39.47228758" lon="-0.36973581"><ele>-46.8</ele><time>2022-10-30T14:57:22.0000000+00:00</time></trkpt><trkpt lat="39.47227081" lon="-0.36974176"><ele>-46.8</ele><time>2022-10-30T14:57:23.0000000+00:00</time></trkpt><trkpt lat="39.47226629" lon="-0.36972038"><ele>-46.8</ele><time>2022-10-30T14:57:24.0000000+00:00</time></trkpt><trkpt lat="39.47226436" lon="-0.36971938"><ele>-46.8</ele><time>2022-10-30T14:57:25.0000000+00:00</time></trkpt><trkpt lat="39.47227014" lon="-0.36967588"><ele>-46.8</ele><time>2022-10-30T14:57:26.0000000+00:00</time></trkpt><trkpt lat="39.47227752" lon="-0.36963237"><ele>-46.8</ele><time>2022-10-30T14:57:27.0000000+00:00</time></trkpt><trkpt lat="39.47229168" lon="-0.36959013"><ele>-46.8</ele><time>2022-10-30T14:57:28.0000000+00:00</time></trkpt><trkpt lat="39.47229412" lon="-0.36953942"><ele>-46.8</ele><time>2022-10-30T14:57:29.0000000+00:00</time></trkpt><trkpt lat="39.47228934" lon="-0.36948946"><ele>-46.8</ele><time>2022-10-30T14:57:30.0000000+00:00</time></trkpt><trkpt lat="39.47228548" lon="-0.36944747"><ele>-46.8</ele><time>2022-10-30T14:57:31.0000000+00:00</time></trkpt><trkpt lat="39.47227735" lon="-0.36940271"><ele>-46.8</ele><time>2022-10-30T14:57:32.0000000+00:00</time></trkpt><trkpt lat="39.47226972" lon="-0.36936491"><ele>-46.8</ele><time>2022-10-30T14:57:33.0000000+00:00</time></trkpt><trkpt lat="39.47226193" lon="-0.36932468"><ele>-45.8</ele><time>2022-10-30T14:57:34.0000000+00:00</time></trkpt><trkpt lat="39.47225816" lon="-0.36929165"><ele>-45.2</ele><time>2022-10-30T14:57:35.0000000+00:00</time></trkpt><trkpt lat="39.47225472" lon="-0.36929006"><ele>-44.8</ele><time>2022-10-30T14:57:36.0000000+00:00</time></trkpt><trkpt lat="39.47225145" lon="-0.36928989"><ele>-44.8</ele><time>2022-10-30T14:57:37.0000000+00:00</time></trkpt><trkpt lat="39.47224961" lon="-0.36926868"><ele>-44.6</ele><time>2022-10-30T14:57:38.0000000+00:00</time></trkpt><trkpt lat="39.47225355" lon="-0.36925452"><ele>-44.6</ele><time>2022-10-30T14:57:39.0000000+00:00</time></trkpt><trkpt lat="39.4722538" lon="-0.36925561"><ele>-44.6</ele><time>2022-10-30T14:57:40.0000000+00:00</time></trkpt><trkpt lat="39.4722533" lon="-0.36925494"><ele>-44.6</ele><time>2022-10-30T14:57:41.0000000+00:00</time></trkpt><trkpt lat="39.47222471" lon="-0.36920993"><ele>-44.6</ele><time>2022-10-30T14:57:42.0000000+00:00</time></trkpt><trkpt lat="39.47224139" lon="-0.36918973"><ele>-44.6</ele><time>2022-10-30T14:57:43.0000000+00:00</time></trkpt><trkpt lat="39.47226754" lon="-0.36920138"><ele>-44.6</ele><time>2022-10-30T14:57:44.0000000+00:00</time></trkpt><trkpt lat="39.47225791" lon="-0.36922351"><ele>-44.6</ele><time>2022-10-30T14:57:45.0000000+00:00</time></trkpt><trkpt lat="39.47226335" lon="-0.36923465"><ele>-44.6</ele><time>2022-10-30T14:57:46.0000000+00:00</time></trkpt><trkpt lat="39.4722714" lon="-0.36924362"><ele>-44.6</ele><time>2022-10-30T14:57:47.0000000+00:00</time></trkpt><trkpt lat="39.47227727" lon="-0.3692505"><ele>-44.6</ele><time>2022-10-30T14:57:48.0000000+00:00</time></trkpt><trkpt lat="39.47228112" lon="-0.36925452"><ele>-44.6</ele><time>2022-10-30T14:57:49.0000000+00:00</time></trkpt><trkpt lat="39.47227852" lon="-0.36925846"><ele>-44.6</ele><time>2022-10-30T14:57:50.0000000+00:00</time></trkpt><trkpt lat="39.47227995" lon="-0.36926173"><ele>-44.6</ele><time>2022-10-30T14:57:51.0000000+00:00</time></trkpt><trkpt lat="39.47227752" lon="-0.3692577"><ele>-44.6</ele><time>2022-10-30T14:57:52.0000000+00:00</time></trkpt><trkpt lat="39.47228565" lon="-0.36925955"><ele>-44.8</ele><time>2022-10-30T14:57:53.0000000+00:00</time></trkpt><trkpt lat="39.47227953" lon="-0.36925293"><ele>-44.8</ele><time>2022-10-30T14:57:54.0000000+00:00</time></trkpt><trkpt lat="39.4722776" lon="-0.36924563"><ele>-44.8</ele><time>2022-10-30T14:57:55.0000000+00:00</time></trkpt><trkpt lat="39.47227886" lon="-0.36924413"><ele>-44.8</ele><time>2022-10-30T14:57:56.0000000+00:00</time></trkpt><trkpt lat="39.4722937" lon="-0.36924438"><ele>-44.8</ele><time>2022-10-30T14:57:57.0000000+00:00</time></trkpt><trkpt lat="39.47230183" lon="-0.36924882"><ele>-44.8</ele><time>2022-10-30T14:57:58.0000000+00:00</time></trkpt><trkpt lat="39.47232404" lon="-0.36925142"><ele>-44.8</ele><time>2022-10-30T14:57:59.0000000+00:00</time></trkpt><trkpt lat="39.47231649" lon="-0.3692541"><ele>-44.8</ele><time>2022-10-30T14:58:00.0000000+00:00</time></trkpt><trkpt lat="39.47231641" lon="-0.36925594"><ele>-44.8</ele><time>2022-10-30T14:58:01.0000000+00:00</time></trkpt><trkpt lat="39.47231423" lon="-0.36926441"><ele>-44.8</ele><time>2022-10-30T14:58:02.0000000+00:00</time></trkpt><trkpt lat="39.47231364" lon="-0.36927723"><ele>-44.8</ele><time>2022-10-30T14:58:03.0000000+00:00</time></trkpt><trkpt lat="39.47231976" lon="-0.36929349"><ele>-44.8</ele><time>2022-10-30T14:58:04.0000000+00:00</time></trkpt><trkpt lat="39.47232974" lon="-0.36930674"><ele>-44.8</ele><time>2022-10-30T14:58:05.0000000+00:00</time></trkpt><trkpt lat="39.472332" lon="-0.36931311"><ele>-44.8</ele><time>2022-10-30T14:58:06.0000000+00:00</time></trkpt><trkpt lat="39.4723429" lon="-0.36931856"><ele>-44.8</ele><time>2022-10-30T14:58:07.0000000+00:00</time></trkpt><trkpt lat="39.47234734" lon="-0.36931738"><ele>-44.8</ele><time>2022-10-30T14:58:08.0000000+00:00</time></trkpt><trkpt lat="39.4723496" lon="-0.36932266"><ele>-44.6</ele><time>2022-10-30T14:58:09.0000000+00:00</time></trkpt><trkpt lat="39.47234608" lon="-0.36932987"><ele>-44.6</ele><time>2022-10-30T14:58:10.0000000+00:00</time></trkpt><trkpt lat="39.47234089" lon="-0.36933574"><ele>-44.6</ele><time>2022-10-30T14:58:11.0000000+00:00</time></trkpt><trkpt lat="39.47233695" lon="-0.36933859"><ele>-44.6</ele><time>2022-10-30T14:58:12.0000000+00:00</time></trkpt><trkpt lat="39.47232907" lon="-0.36933943"><ele>-44.6</ele><time>2022-10-30T14:58:13.0000000+00:00</time></trkpt><trkpt lat="39.47232521" lon="-0.36933708"><ele>-44.6</ele><time>2022-10-30T14:58:14.0000000+00:00</time></trkpt><trkpt lat="39.47231272" lon="-0.36934873"><ele>-44.6</ele><time>2022-10-30T14:58:15.0000000+00:00</time></trkpt><trkpt lat="39.47232286" lon="-0.36935544"><ele>-44.6</ele><time>2022-10-30T14:58:16.0000000+00:00</time></trkpt><trkpt lat="39.47231767" lon="-0.36935451"><ele>-44.6</ele><time>2022-10-30T14:58:17.0000000+00:00</time></trkpt><trkpt lat="39.47233619" lon="-0.36935703"><ele>-44.8</ele><time>2022-10-30T14:58:18.0000000+00:00</time></trkpt><trkpt lat="39.47233141" lon="-0.36935527"><ele>-44.8</ele><time>2022-10-30T14:58:19.0000000+00:00</time></trkpt><trkpt lat="39.47233284" lon="-0.36935024"><ele>-44.8</ele><time>2022-10-30T14:58:20.0000000+00:00</time></trkpt><trkpt lat="39.47233175" lon="-0.36935292"><ele>-44.8</ele><time>2022-10-30T14:58:21.0000000+00:00</time></trkpt><trkpt lat="39.47232932" lon="-0.36935108"><ele>-44.8</ele><time>2022-10-30T14:58:22.0000000+00:00</time></trkpt><trkpt lat="39.47233209" lon="-0.36934949"><ele>-44.8</ele><time>2022-10-30T14:58:23.0000000+00:00</time></trkpt><trkpt lat="39.47233703" lon="-0.36935066"><ele>-44.8</ele><time>2022-10-30T14:58:24.0000000+00:00</time></trkpt><trkpt lat="39.47234223" lon="-0.36935192"><ele>-44.8</ele><time>2022-10-30T14:58:25.0000000+00:00</time></trkpt><trkpt lat="39.47233711" lon="-0.36935519"><ele>-44.8</ele><time>2022-10-30T14:58:26.0000000+00:00</time></trkpt><trkpt lat="39.47234114" lon="-0.36933499"><ele>-44.8</ele><time>2022-10-30T14:58:27.0000000+00:00</time></trkpt><trkpt lat="39.47235958" lon="-0.36933758"><ele>-44.8</ele><time>2022-10-30T14:58:28.0000000+00:00</time></trkpt><trkpt lat="39.47236109" lon="-0.36933733"><ele>-44.8</ele><time>2022-10-30T14:58:29.0000000+00:00</time></trkpt><trkpt lat="39.47237073" lon="-0.36934337"><ele>-44.8</ele><time>2022-10-30T14:58:30.0000000+00:00</time></trkpt><trkpt lat="39.4723724" lon="-0.36934739"><ele>-44.8</ele><time>2022-10-30T14:58:31.0000000+00:00</time></trkpt><trkpt lat="39.47237525" lon="-0.36935016"><ele>-44.8</ele><time>2022-10-30T14:58:32.0000000+00:00</time></trkpt><trkpt lat="39.47237995" lon="-0.3693546"><ele>-44.8</ele><time>2022-10-30T14:58:33.0000000+00:00</time></trkpt><trkpt lat="39.47238858" lon="-0.36935921"><ele>-44.8</ele><time>2022-10-30T14:58:34.0000000+00:00</time></trkpt><trkpt lat="39.47239939" lon="-0.36936943"><ele>-44.8</ele><time>2022-10-30T14:58:35.0000000+00:00</time></trkpt><trkpt lat="39.47241331" lon="-0.36937916"><ele>-44.8</ele><time>2022-10-30T14:58:36.0000000+00:00</time></trkpt><trkpt lat="39.47241808" lon="-0.36939877"><ele>-44.8</ele><time>2022-10-30T14:58:37.0000000+00:00</time></trkpt><trkpt lat="39.47241532" lon="-0.36940154"><ele>-44.8</ele><time>2022-10-30T14:58:38.0000000+00:00</time></trkpt><trkpt lat="39.47242496" lon="-0.3694183"><ele>-44.8</ele><time>2022-10-30T14:58:39.0000000+00:00</time></trkpt><trkpt lat="39.472433" lon="-0.36942836"><ele>-44.8</ele><time>2022-10-30T14:58:40.0000000+00:00</time></trkpt><trkpt lat="39.47243719" lon="-0.36942836"><ele>-44.6</ele><time>2022-10-30T14:58:41.0000000+00:00</time></trkpt><trkpt lat="39.47245237" lon="-0.36944219"><ele>-44.6</ele><time>2022-10-30T14:58:42.0000000+00:00</time></trkpt><trkpt lat="39.47246837" lon="-0.36945426"><ele>-44.6</ele><time>2022-10-30T14:58:43.0000000+00:00</time></trkpt><trkpt lat="39.47246745" lon="-0.36945895"><ele>-44.6</ele><time>2022-10-30T14:58:44.0000000+00:00</time></trkpt><trkpt lat="39.47246376" lon="-0.36946423"><ele>-44.6</ele><time>2022-10-30T14:58:45.0000000+00:00</time></trkpt><trkpt lat="39.47246611" lon="-0.36947966"><ele>-44.6</ele><time>2022-10-30T14:58:46.0000000+00:00</time></trkpt><trkpt lat="39.47246821" lon="-0.36949458"><ele>-44.8</ele><time>2022-10-30T14:58:47.0000000+00:00</time></trkpt><trkpt lat="39.47247106" lon="-0.36949826"><ele>-44.8</ele><time>2022-10-30T14:58:48.0000000+00:00</time></trkpt><trkpt lat="39.47247298" lon="-0.36950271"><ele>-44.8</ele><time>2022-10-30T14:58:49.0000000+00:00</time></trkpt><trkpt lat="39.47247047" lon="-0.36950941"><ele>-44.8</ele><time>2022-10-30T14:58:50.0000000+00:00</time></trkpt><trkpt lat="39.47247173" lon="-0.36950992"><ele>-44.8</ele><time>2022-10-30T14:58:51.0000000+00:00</time></trkpt><trkpt lat="39.47247206" lon="-0.36951159"><ele>-44.8</ele><time>2022-10-30T14:58:52.0000000+00:00</time></trkpt><trkpt lat="39.47246661" lon="-0.36950883"><ele>-44.8</ele><time>2022-10-30T14:58:53.0000000+00:00</time></trkpt><trkpt lat="39.472462" lon="-0.36950665"><ele>-44.8</ele><time>2022-10-30T14:58:54.0000000+00:00</time></trkpt><trkpt lat="39.47245949" lon="-0.36950497"><ele>-44.8</ele><time>2022-10-30T14:58:55.0000000+00:00</time></trkpt><trkpt lat="39.47245698" lon="-0.36951159"><ele>-44.8</ele><time>2022-10-30T14:58:56.0000000+00:00</time></trkpt><trkpt lat="39.47244398" lon="-0.36952299"><ele>-44.8</ele><time>2022-10-30T14:58:57.0000000+00:00</time></trkpt><trkpt lat="39.47243325" lon="-0.36953783"><ele>-44.8</ele><time>2022-10-30T14:58:58.0000000+00:00</time></trkpt><trkpt lat="39.47241339" lon="-0.36955459"><ele>-44.8</ele><time>2022-10-30T14:58:59.0000000+00:00</time></trkpt><trkpt lat="39.47240107" lon="-0.36957286"><ele>-44.8</ele><time>2022-10-30T14:59:00.0000000+00:00</time></trkpt><trkpt lat="39.47237525" lon="-0.36958988"><ele>-44.8</ele><time>2022-10-30T14:59:01.0000000+00:00</time></trkpt><trkpt lat="39.47236612" lon="-0.36960145"><ele>-44.8</ele><time>2022-10-30T14:59:02.0000000+00:00</time></trkpt><trkpt lat="39.47232722" lon="-0.36961125"><ele>-44.8</ele><time>2022-10-30T14:59:03.0000000+00:00</time></trkpt><trkpt lat="39.47231138" lon="-0.36962123"><ele>-44.8</ele><time>2022-10-30T14:59:04.0000000+00:00</time></trkpt><trkpt lat="39.47230585" lon="-0.36962424"><ele>-44.8</ele><time>2022-10-30T14:59:05.0000000+00:00</time></trkpt><trkpt lat="39.47230786" lon="-0.36962533"><ele>-44.8</ele><time>2022-10-30T14:59:06.0000000+00:00</time></trkpt><trkpt lat="39.4722942" lon="-0.36962994"><ele>-44.8</ele><time>2022-10-30T14:59:07.0000000+00:00</time></trkpt><trkpt lat="39.47227802" lon="-0.36963497"><ele>-44.8</ele><time>2022-10-30T14:59:08.0000000+00:00</time></trkpt><trkpt lat="39.47227241" lon="-0.36963942"><ele>-44.8</ele><time>2022-10-30T14:59:09.0000000+00:00</time></trkpt><trkpt lat="39.47227282" lon="-0.36964193"><ele>-44.8</ele><time>2022-10-30T14:59:10.0000000+00:00</time></trkpt><trkpt lat="39.47229009" lon="-0.36964444"><ele>-44.8</ele><time>2022-10-30T14:59:11.0000000+00:00</time></trkpt><trkpt lat="39.47229931" lon="-0.36964905"><ele>-44.8</ele><time>2022-10-30T14:59:12.0000000+00:00</time></trkpt><trkpt lat="39.47231046" lon="-0.36965006"><ele>-44.8</ele><time>2022-10-30T14:59:13.0000000+00:00</time></trkpt><trkpt lat="39.47231448" lon="-0.36964788"><ele>-44.8</ele><time>2022-10-30T14:59:14.0000000+00:00</time></trkpt><trkpt lat="39.47231809" lon="-0.36964453"><ele>-44.8</ele><time>2022-10-30T14:59:15.0000000+00:00</time></trkpt><trkpt lat="39.47232873" lon="-0.36963254"><ele>-44.8</ele><time>2022-10-30T14:59:16.0000000+00:00</time></trkpt><trkpt lat="39.47233795" lon="-0.36962014"><ele>-44.8</ele><time>2022-10-30T14:59:17.0000000+00:00</time></trkpt><trkpt lat="39.47233854" lon="-0.36960916"><ele>-44.8</ele><time>2022-10-30T14:59:18.0000000+00:00</time></trkpt><trkpt lat="39.47233896" lon="-0.36960346"><ele>-44.8</ele><time>2022-10-30T14:59:19.0000000+00:00</time></trkpt><trkpt lat="39.47234583" lon="-0.36959734"><ele>-44.8</ele><time>2022-10-30T14:59:20.0000000+00:00</time></trkpt><trkpt lat="39.47235036" lon="-0.36959575"><ele>-44.8</ele><time>2022-10-30T14:59:21.0000000+00:00</time></trkpt><trkpt lat="39.47235128" lon="-0.36959273"><ele>-44.8</ele><time>2022-10-30T14:59:22.0000000+00:00</time></trkpt><trkpt lat="39.47235011" lon="-0.36958946"><ele>-44.8</ele><time>2022-10-30T14:59:23.0000000+00:00</time></trkpt><trkpt lat="39.47235044" lon="-0.36960337"><ele>-44.8</ele><time>2022-10-30T14:59:24.0000000+00:00</time></trkpt><trkpt lat="39.47234734" lon="-0.36960564"><ele>-44.8</ele><time>2022-10-30T14:59:25.0000000+00:00</time></trkpt><trkpt lat="39.47234684" lon="-0.36960497"><ele>-44.8</ele><time>2022-10-30T14:59:26.0000000+00:00</time></trkpt><trkpt lat="39.47235346" lon="-0.36961025"><ele>-44.8</ele><time>2022-10-30T14:59:27.0000000+00:00</time></trkpt><trkpt lat="39.47235061" lon="-0.36960782"><ele>-44.8</ele><time>2022-10-30T14:59:28.0000000+00:00</time></trkpt><trkpt lat="39.47235044" lon="-0.36960614"><ele>-44.8</ele><time>2022-10-30T14:59:29.0000000+00:00</time></trkpt><trkpt lat="39.47234885" lon="-0.36960371"><ele>-44.8</ele><time>2022-10-30T14:59:30.0000000+00:00</time></trkpt><trkpt lat="39.47234994" lon="-0.36960329"><ele>-44.8</ele><time>2022-10-30T14:59:31.0000000+00:00</time></trkpt><trkpt lat="39.47234625" lon="-0.36960723"><ele>-44.8</ele><time>2022-10-30T14:59:32.0000000+00:00</time></trkpt><trkpt lat="39.47234407" lon="-0.36961201"><ele>-44.8</ele><time>2022-10-30T14:59:33.0000000+00:00</time></trkpt><trkpt lat="39.47234558" lon="-0.36961712"><ele>-44.8</ele><time>2022-10-30T14:59:34.0000000+00:00</time></trkpt><trkpt lat="39.47234424" lon="-0.36962366"><ele>-44.8</ele><time>2022-10-30T14:59:35.0000000+00:00</time></trkpt><trkpt lat="39.47234516" lon="-0.36964134"><ele>-44.8</ele><time>2022-10-30T14:59:36.0000000+00:00</time></trkpt><trkpt lat="39.47234273" lon="-0.36964914"><ele>-44.8</ele><time>2022-10-30T14:59:37.0000000+00:00</time></trkpt><trkpt lat="39.47234181" lon="-0.36966565"><ele>-44.8</ele><time>2022-10-30T14:59:38.0000000+00:00</time></trkpt><trkpt lat="39.47234592" lon="-0.36968158"><ele>-44.8</ele><time>2022-10-30T14:59:39.0000000+00:00</time></trkpt><trkpt lat="39.47234768" lon="-0.36969331"><ele>-44.8</ele><time>2022-10-30T14:59:40.0000000+00:00</time></trkpt><trkpt lat="39.47235254" lon="-0.36970723"><ele>-44.8</ele><time>2022-10-30T14:59:41.0000000+00:00</time></trkpt><trkpt lat="39.47235698" lon="-0.36971452"><ele>-44.8</ele><time>2022-10-30T14:59:42.0000000+00:00</time></trkpt><trkpt lat="39.47236335" lon="-0.36971594"><ele>-44.8</ele><time>2022-10-30T14:59:43.0000000+00:00</time></trkpt><trkpt lat="39.47235916" lon="-0.36970982"><ele>-44.8</ele><time>2022-10-30T14:59:44.0000000+00:00</time></trkpt><trkpt lat="39.47235773" lon="-0.36970044"><ele>-44.8</ele><time>2022-10-30T14:59:45.0000000+00:00</time></trkpt><trkpt lat="39.47235597" lon="-0.36970119"><ele>-44.8</ele><time>2022-10-30T14:59:46.0000000+00:00</time></trkpt><trkpt lat="39.47235622" lon="-0.36970295"><ele>-44.8</ele><time>2022-10-30T14:59:47.0000000+00:00</time></trkpt><trkpt lat="39.47236863" lon="-0.36969105"><ele>-44.8</ele><time>2022-10-30T14:59:48.0000000+00:00</time></trkpt><trkpt lat="39.47237064" lon="-0.369683"><ele>-44.8</ele><time>2022-10-30T14:59:49.0000000+00:00</time></trkpt><trkpt lat="39.47237584" lon="-0.36967135"><ele>-44.8</ele><time>2022-10-30T14:59:50.0000000+00:00</time></trkpt><trkpt lat="39.47236695" lon="-0.36966247"><ele>-44.8</ele><time>2022-10-30T14:59:51.0000000+00:00</time></trkpt><trkpt lat="39.47237366" lon="-0.36965048"><ele>-44.8</ele><time>2022-10-30T14:59:52.0000000+00:00</time></trkpt><trkpt lat="39.47237156" lon="-0.36964813"><ele>-44.8</ele><time>2022-10-30T14:59:53.0000000+00:00</time></trkpt><trkpt lat="39.47236955" lon="-0.36964755"><ele>-44.8</ele><time>2022-10-30T14:59:54.0000000+00:00</time></trkpt><trkpt lat="39.47237819" lon="-0.36965082"><ele>-44.8</ele><time>2022-10-30T14:59:55.0000000+00:00</time></trkpt><trkpt lat="39.47238405" lon="-0.3696421"><ele>-44.8</ele><time>2022-10-30T14:59:56.0000000+00:00</time></trkpt><trkpt lat="39.47238405" lon="-0.36963581"><ele>-44.8</ele><time>2022-10-30T14:59:57.0000000+00:00</time></trkpt><trkpt lat="39.47238347" lon="-0.36963145"><ele>-44.8</ele><time>2022-10-30T14:59:58.0000000+00:00</time></trkpt><trkpt lat="39.47238875" lon="-0.36962835"><ele>-44.8</ele><time>2022-10-30T14:59:59.0000000+00:00</time></trkpt><trkpt lat="39.47238925" lon="-0.36962525"><ele>-44.8</ele><time>2022-10-30T15:00:00.0000000+00:00</time></trkpt><trkpt lat="39.47238321" lon="-0.36961712"><ele>-44.8</ele><time>2022-10-30T15:00:01.0000000+00:00</time></trkpt><trkpt lat="39.47238011" lon="-0.36960597"><ele>-44.8</ele><time>2022-10-30T15:00:02.0000000+00:00</time></trkpt><trkpt lat="39.47238321" lon="-0.3696058"><ele>-44.8</ele><time>2022-10-30T15:00:03.0000000+00:00</time></trkpt><trkpt lat="39.47238497" lon="-0.36960958"><ele>-44.8</ele><time>2022-10-30T15:00:04.0000000+00:00</time></trkpt><trkpt lat="39.47238556" lon="-0.36961184"><ele>-44.8</ele><time>2022-10-30T15:00:05.0000000+00:00</time></trkpt><trkpt lat="39.47238456" lon="-0.36961268"><ele>-44.8</ele><time>2022-10-30T15:00:06.0000000+00:00</time></trkpt><trkpt lat="39.47239378" lon="-0.36961846"><ele>-44.8</ele><time>2022-10-30T15:00:07.0000000+00:00</time></trkpt><trkpt lat="39.47239713" lon="-0.36961947"><ele>-44.8</ele><time>2022-10-30T15:00:08.0000000+00:00</time></trkpt><trkpt lat="39.47240115" lon="-0.36961528"><ele>-44.8</ele><time>2022-10-30T15:00:09.0000000+00:00</time></trkpt><trkpt lat="39.47240551" lon="-0.36960765"><ele>-44.8</ele><time>2022-10-30T15:00:10.0000000+00:00</time></trkpt><trkpt lat="39.47240115" lon="-0.36960321"><ele>-44.8</ele><time>2022-10-30T15:00:11.0000000+00:00</time></trkpt><trkpt lat="39.47239696" lon="-0.36960027"><ele>-44.8</ele><time>2022-10-30T15:00:12.0000000+00:00</time></trkpt><trkpt lat="39.47239386" lon="-0.36959734"><ele>-44.8</ele><time>2022-10-30T15:00:13.0000000+00:00</time></trkpt><trkpt lat="39.47239176" lon="-0.36959625"><ele>-44.8</ele><time>2022-10-30T15:00:14.0000000+00:00</time></trkpt><trkpt lat="39.47239067" lon="-0.36959742"><ele>-44.8</ele><time>2022-10-30T15:00:15.0000000+00:00</time></trkpt><trkpt lat="39.47238866" lon="-0.36959734"><ele>-44.8</ele><time>2022-10-30T15:00:16.0000000+00:00</time></trkpt><trkpt lat="39.47238715" lon="-0.36959625"><ele>-44.8</ele><time>2022-10-30T15:00:17.0000000+00:00</time></trkpt><trkpt lat="39.47238539" lon="-0.36959357"><ele>-44.8</ele><time>2022-10-30T15:00:18.0000000+00:00</time></trkpt><trkpt lat="39.47238489" lon="-0.36959323"><ele>-44.8</ele><time>2022-10-30T15:00:19.0000000+00:00</time></trkpt><trkpt lat="39.47238741" lon="-0.36959197"><ele>-44.8</ele><time>2022-10-30T15:00:20.0000000+00:00</time></trkpt><trkpt lat="39.47238791" lon="-0.36959181"><ele>-44.8</ele><time>2022-10-30T15:00:21.0000000+00:00</time></trkpt><trkpt lat="39.47238791" lon="-0.36959181"><ele>-44.8</ele><time>2022-10-30T15:00:22.0000000+00:00</time></trkpt><trkpt lat="39.47238791" lon="-0.36959181"><ele>-44.8</ele><time>2022-10-30T15:00:23.0000000+00:00</time></trkpt><trkpt lat="39.47238791" lon="-0.36959181"><ele>-44.8</ele><time>2022-10-30T15:00:24.0000000+00:00</time></trkpt><trkpt lat="39.47238791" lon="-0.36959181"><ele>-44.8</ele><time>2022-10-30T15:00:25.0000000+00:00</time></trkpt><trkpt lat="39.47238791" lon="-0.36959181"><ele>-44.8</ele><time>2022-10-30T15:00:26.0000000+00:00</time></trkpt><trkpt lat="39.47238791" lon="-0.36959181"><ele>-44.8</ele><time>2022-10-30T15:00:27.0000000+00:00</time></trkpt><trkpt lat="39.47239067" lon="-0.36959315"><ele>-44.8</ele><time>2022-10-30T15:00:28.0000000+00:00</time></trkpt><trkpt lat="39.47239319" lon="-0.36958887"><ele>-44.8</ele><time>2022-10-30T15:00:29.0000000+00:00</time></trkpt><trkpt lat="39.47239629" lon="-0.36958988"><ele>-44.8</ele><time>2022-10-30T15:00:30.0000000+00:00</time></trkpt><trkpt lat="39.47239227" lon="-0.36958586"><ele>-44.8</ele><time>2022-10-30T15:00:31.0000000+00:00</time></trkpt><trkpt lat="39.47239" lon="-0.36958393"><ele>-44.8</ele><time>2022-10-30T15:00:32.0000000+00:00</time></trkpt><trkpt lat="39.47240828" lon="-0.36958661"><ele>-44.8</ele><time>2022-10-30T15:00:33.0000000+00:00</time></trkpt><trkpt lat="39.47241247" lon="-0.36958896"><ele>-44.8</ele><time>2022-10-30T15:00:34.0000000+00:00</time></trkpt><trkpt lat="39.47242018" lon="-0.36959214"><ele>-44.8</ele><time>2022-10-30T15:00:35.0000000+00:00</time></trkpt><trkpt lat="39.47242294" lon="-0.36959499"><ele>-44.8</ele><time>2022-10-30T15:00:36.0000000+00:00</time></trkpt><trkpt lat="39.47242512" lon="-0.36959935"><ele>-44.8</ele><time>2022-10-30T15:00:37.0000000+00:00</time></trkpt><trkpt lat="39.47242412" lon="-0.3696022"><ele>-44.8</ele><time>2022-10-30T15:00:38.0000000+00:00</time></trkpt><trkpt lat="39.47243627" lon="-0.36960673"><ele>-44.8</ele><time>2022-10-30T15:00:39.0000000+00:00</time></trkpt><trkpt lat="39.47243812" lon="-0.36960891"><ele>-44.8</ele><time>2022-10-30T15:00:40.0000000+00:00</time></trkpt><trkpt lat="39.47244055" lon="-0.36960932"><ele>-44.8</ele><time>2022-10-30T15:00:41.0000000+00:00</time></trkpt><trkpt lat="39.4724496" lon="-0.36961461"><ele>-44.8</ele><time>2022-10-30T15:00:42.0000000+00:00</time></trkpt><trkpt lat="39.47245237" lon="-0.36961804"><ele>-44.8</ele><time>2022-10-30T15:00:43.0000000+00:00</time></trkpt><trkpt lat="39.47245505" lon="-0.36961896"><ele>-44.8</ele><time>2022-10-30T15:00:44.0000000+00:00</time></trkpt><trkpt lat="39.47245706" lon="-0.36961704"><ele>-44.8</ele><time>2022-10-30T15:00:45.0000000+00:00</time></trkpt><trkpt lat="39.47246259" lon="-0.36960949"><ele>-44.8</ele><time>2022-10-30T15:00:46.0000000+00:00</time></trkpt><trkpt lat="39.47246066" lon="-0.36960614"><ele>-44.8</ele><time>2022-10-30T15:00:47.0000000+00:00</time></trkpt><trkpt lat="39.47246234" lon="-0.369597"><ele>-44.8</ele><time>2022-10-30T15:00:48.0000000+00:00</time></trkpt><trkpt lat="39.47245681" lon="-0.36958854"><ele>-44.8</ele><time>2022-10-30T15:00:49.0000000+00:00</time></trkpt><trkpt lat="39.47245538" lon="-0.36958594"><ele>-44.8</ele><time>2022-10-30T15:00:50.0000000+00:00</time></trkpt><trkpt lat="39.47245362" lon="-0.3695846"><ele>-44.8</ele><time>2022-10-30T15:00:51.0000000+00:00</time></trkpt><trkpt lat="39.47245278" lon="-0.36958351"><ele>-44.8</ele><time>2022-10-30T15:00:52.0000000+00:00</time></trkpt><trkpt lat="39.47245287" lon="-0.36958502"><ele>-44.8</ele><time>2022-10-30T15:00:53.0000000+00:00</time></trkpt><trkpt lat="39.47245287" lon="-0.36958502"><ele>-44.8</ele><time>2022-10-30T15:00:54.0000000+00:00</time></trkpt><trkpt lat="39.47245287" lon="-0.36958502"><ele>-44.8</ele><time>2022-10-30T15:00:55.0000000+00:00</time></trkpt><trkpt lat="39.47245287" lon="-0.36958502"><ele>-44.8</ele><time>2022-10-30T15:00:56.0000000+00:00</time></trkpt><trkpt lat="39.47245287" lon="-0.36958502"><ele>-44.8</ele><time>2022-10-30T15:00:57.0000000+00:00</time></trkpt><trkpt lat="39.47245287" lon="-0.36958502"><ele>-44.8</ele><time>2022-10-30T15:00:58.0000000+00:00</time></trkpt><trkpt lat="39.47245287" lon="-0.36958502"><ele>-44.8</ele><time>2022-10-30T15:00:59.0000000+00:00</time></trkpt><trkpt lat="39.47245287" lon="-0.36958502"><ele>-44.8</ele><time>2022-10-30T15:01:00.0000000+00:00</time></trkpt><trkpt lat="39.47245287" lon="-0.36958502"><ele>-44.8</ele><time>2022-10-30T15:01:01.0000000+00:00</time></trkpt><trkpt lat="39.47245287" lon="-0.36958502"><ele>-44.8</ele><time>2022-10-30T15:01:02.0000000+00:00</time></trkpt><trkpt lat="39.47245287" lon="-0.36958502"><ele>-44.8</ele><time>2022-10-30T15:01:03.0000000+00:00</time></trkpt><trkpt lat="39.47245287" lon="-0.36958502"><ele>-44.8</ele><time>2022-10-30T15:01:04.0000000+00:00</time></trkpt><trkpt lat="39.47245362" lon="-0.36958502"><ele>-44.8</ele><time>2022-10-30T15:01:05.0000000+00:00</time></trkpt><trkpt lat="39.4724553" lon="-0.36958502"><ele>-44.8</ele><time>2022-10-30T15:01:06.0000000+00:00</time></trkpt><trkpt lat="39.4724558" lon="-0.36958502"><ele>-44.8</ele><time>2022-10-30T15:01:07.0000000+00:00</time></trkpt><trkpt lat="39.47245589" lon="-0.36958502"><ele>-44.8</ele><time>2022-10-30T15:01:08.0000000+00:00</time></trkpt><trkpt lat="39.47245597" lon="-0.36958502"><ele>-44.8</ele><time>2022-10-30T15:01:09.0000000+00:00</time></trkpt><trkpt lat="39.47245597" lon="-0.3695846"><ele>-44.8</ele><time>2022-10-30T15:01:10.0000000+00:00</time></trkpt><trkpt lat="39.47245597" lon="-0.36958359"><ele>-44.8</ele><time>2022-10-30T15:01:11.0000000+00:00</time></trkpt><trkpt lat="39.47245597" lon="-0.3695794"><ele>-44.8</ele><time>2022-10-30T15:01:12.0000000+00:00</time></trkpt><trkpt lat="39.47245597" lon="-0.36957714"><ele>-44.8</ele><time>2022-10-30T15:01:13.0000000+00:00</time></trkpt><trkpt lat="39.47245597" lon="-0.36957664"><ele>-44.8</ele><time>2022-10-30T15:01:14.0000000+00:00</time></trkpt><trkpt lat="39.47245589" lon="-0.36957655"><ele>-44.8</ele><time>2022-10-30T15:01:15.0000000+00:00</time></trkpt><trkpt lat="39.47245589" lon="-0.36957655"><ele>-44.8</ele><time>2022-10-30T15:01:16.0000000+00:00</time></trkpt><trkpt lat="39.47245589" lon="-0.36957655"><ele>-44.8</ele><time>2022-10-30T15:01:17.0000000+00:00</time></trkpt><trkpt lat="39.47245589" lon="-0.3695763"><ele>-44.8</ele><time>2022-10-30T15:01:18.0000000+00:00</time></trkpt><trkpt lat="39.4724558" lon="-0.3695763"><ele>-44.8</ele><time>2022-10-30T15:01:19.0000000+00:00</time></trkpt><trkpt lat="39.4724558" lon="-0.3695763"><ele>-44.8</ele><time>2022-10-30T15:01:20.0000000+00:00</time></trkpt><trkpt lat="39.4724558" lon="-0.3695763"><ele>-44.8</ele><time>2022-10-30T15:01:21.0000000+00:00</time></trkpt><trkpt lat="39.4724558" lon="-0.3695763"><ele>-44.8</ele><time>2022-10-30T15:01:22.0000000+00:00</time></trkpt><trkpt lat="39.4724558" lon="-0.3695763"><ele>-44.8</ele><time>2022-10-30T15:01:23.0000000+00:00</time></trkpt><trkpt lat="39.4724558" lon="-0.3695763"><ele>-44.8</ele><time>2022-10-30T15:01:24.0000000+00:00</time></trkpt><trkpt lat="39.4724527" lon="-0.36957697"><ele>-44.8</ele><time>2022-10-30T15:01:25.0000000+00:00</time></trkpt><trkpt lat="39.47243828" lon="-0.36957999"><ele>-44.8</ele><time>2022-10-30T15:01:26.0000000+00:00</time></trkpt><trkpt lat="39.4724289" lon="-0.3695846"><ele>-44.8</ele><time>2022-10-30T15:01:27.0000000+00:00</time></trkpt><trkpt lat="39.4724185" lon="-0.36958309"><ele>-44.8</ele><time>2022-10-30T15:01:28.0000000+00:00</time></trkpt><trkpt lat="39.47240895" lon="-0.36958359"><ele>-44.8</ele><time>2022-10-30T15:01:29.0000000+00:00</time></trkpt><trkpt lat="39.47240199" lon="-0.36958854"><ele>-44.8</ele><time>2022-10-30T15:01:30.0000000+00:00</time></trkpt><trkpt lat="39.47239528" lon="-0.36958879"><ele>-44.8</ele><time>2022-10-30T15:01:31.0000000+00:00</time></trkpt><trkpt lat="39.47238933" lon="-0.36958929"><ele>-44.8</ele><time>2022-10-30T15:01:32.0000000+00:00</time></trkpt><trkpt lat="39.47238565" lon="-0.36959047"><ele>-44.8</ele><time>2022-10-30T15:01:33.0000000+00:00</time></trkpt><trkpt lat="39.47238053" lon="-0.36960069"><ele>-44.8</ele><time>2022-10-30T15:01:34.0000000+00:00</time></trkpt><trkpt lat="39.4723724" lon="-0.36960756"><ele>-44.8</ele><time>2022-10-30T15:01:35.0000000+00:00</time></trkpt><trkpt lat="39.47235916" lon="-0.36961419"><ele>-44.8</ele><time>2022-10-30T15:01:36.0000000+00:00</time></trkpt><trkpt lat="39.47235044" lon="-0.36962005"><ele>-44.8</ele><time>2022-10-30T15:01:37.0000000+00:00</time></trkpt><trkpt lat="39.4723408" lon="-0.36961997"><ele>-44.8</ele><time>2022-10-30T15:01:38.0000000+00:00</time></trkpt><trkpt lat="39.47233695" lon="-0.36961687"><ele>-44.8</ele><time>2022-10-30T15:01:39.0000000+00:00</time></trkpt><trkpt lat="39.47233586" lon="-0.36961687"><ele>-44.8</ele><time>2022-10-30T15:01:40.0000000+00:00</time></trkpt><trkpt lat="39.47233049" lon="-0.36961863"><ele>-44.8</ele><time>2022-10-30T15:01:41.0000000+00:00</time></trkpt><trkpt lat="39.47233368" lon="-0.3696172"><ele>-44.8</ele><time>2022-10-30T15:01:42.0000000+00:00</time></trkpt><trkpt lat="39.47233988" lon="-0.36961863"><ele>-44.8</ele><time>2022-10-30T15:01:43.0000000+00:00</time></trkpt><trkpt lat="39.47234424" lon="-0.36961779"><ele>-44.8</ele><time>2022-10-30T15:01:44.0000000+00:00</time></trkpt><trkpt lat="39.47234843" lon="-0.36961896"><ele>-44.8</ele><time>2022-10-30T15:01:45.0000000+00:00</time></trkpt><trkpt lat="39.4723527" lon="-0.36961922"><ele>-44.8</ele><time>2022-10-30T15:01:46.0000000+00:00</time></trkpt><trkpt lat="39.47235455" lon="-0.36961813"><ele>-44.8</ele><time>2022-10-30T15:01:47.0000000+00:00</time></trkpt><trkpt lat="39.47235514" lon="-0.36961871"><ele>-44.8</ele><time>2022-10-30T15:01:48.0000000+00:00</time></trkpt><trkpt lat="39.47236469" lon="-0.36960731"><ele>-44.8</ele><time>2022-10-30T15:01:49.0000000+00:00</time></trkpt><trkpt lat="39.47236461" lon="-0.36960396"><ele>-44.8</ele><time>2022-10-30T15:01:50.0000000+00:00</time></trkpt><trkpt lat="39.4723631" lon="-0.36960295"><ele>-44.8</ele><time>2022-10-30T15:01:51.0000000+00:00</time></trkpt><trkpt lat="39.47237601" lon="-0.36959047"><ele>-44.8</ele><time>2022-10-30T15:01:52.0000000+00:00</time></trkpt><trkpt lat="39.4723781" lon="-0.36959063"><ele>-44.8</ele><time>2022-10-30T15:01:53.0000000+00:00</time></trkpt><trkpt lat="39.4723781" lon="-0.36959063"><ele>-44.8</ele><time>2022-10-30T15:01:54.0000000+00:00</time></trkpt><trkpt lat="39.4723781" lon="-0.36959063"><ele>-44.8</ele><time>2022-10-30T15:01:55.0000000+00:00</time></trkpt><trkpt lat="39.4723781" lon="-0.36959063"><ele>-44.8</ele><time>2022-10-30T15:01:56.0000000+00:00</time></trkpt><trkpt lat="39.4723781" lon="-0.36959063"><ele>-44.8</ele><time>2022-10-30T15:01:57.0000000+00:00</time></trkpt><trkpt lat="39.4723781" lon="-0.36959063"><ele>-44.8</ele><time>2022-10-30T15:01:58.0000000+00:00</time></trkpt><trkpt lat="39.4723781" lon="-0.36959063"><ele>-44.8</ele><time>2022-10-30T15:01:59.0000000+00:00</time></trkpt><trkpt lat="39.4723781" lon="-0.36959063"><ele>-44.8</ele><time>2022-10-30T15:02:00.0000000+00:00</time></trkpt><trkpt lat="39.4723781" lon="-0.36959063"><ele>-44.8</ele><time>2022-10-30T15:02:01.0000000+00:00</time></trkpt><trkpt lat="39.4723781" lon="-0.36959063"><ele>-44.8</ele><time>2022-10-30T15:02:02.0000000+00:00</time></trkpt><trkpt lat="39.4723781" lon="-0.36959063"><ele>-44.8</ele><time>2022-10-30T15:02:03.0000000+00:00</time></trkpt><trkpt lat="39.4723781" lon="-0.36959063"><ele>-44.8</ele><time>2022-10-30T15:02:04.0000000+00:00</time></trkpt><trkpt lat="39.4723781" lon="-0.36959466"><ele>-44.8</ele><time>2022-10-30T15:02:05.0000000+00:00</time></trkpt><trkpt lat="39.4723781" lon="-0.36960019"><ele>-44.8</ele><time>2022-10-30T15:02:06.0000000+00:00</time></trkpt><trkpt lat="39.47237684" lon="-0.3696022"><ele>-44.8</ele><time>2022-10-30T15:02:07.0000000+00:00</time></trkpt><trkpt lat="39.47237609" lon="-0.36960287"><ele>-44.8</ele><time>2022-10-30T15:02:08.0000000+00:00</time></trkpt><trkpt lat="39.47236553" lon="-0.36960388"><ele>-44.8</ele><time>2022-10-30T15:02:09.0000000+00:00</time></trkpt><trkpt lat="39.47236469" lon="-0.36960555"><ele>-44.8</ele><time>2022-10-30T15:02:10.0000000+00:00</time></trkpt><trkpt lat="39.47236343" lon="-0.36960723"><ele>-44.8</ele><time>2022-10-30T15:02:11.0000000+00:00</time></trkpt><trkpt lat="39.47236318" lon="-0.3696079"><ele>-44.8</ele><time>2022-10-30T15:02:12.0000000+00:00</time></trkpt><trkpt lat="39.4723631" lon="-0.36961217"><ele>-44.8</ele><time>2022-10-30T15:02:13.0000000+00:00</time></trkpt><trkpt lat="39.4723631" lon="-0.36961461"><ele>-44.8</ele><time>2022-10-30T15:02:14.0000000+00:00</time></trkpt><trkpt lat="39.47236335" lon="-0.36961486"><ele>-44.8</ele><time>2022-10-30T15:02:15.0000000+00:00</time></trkpt><trkpt lat="39.4723636" lon="-0.36961494"><ele>-44.8</ele><time>2022-10-30T15:02:16.0000000+00:00</time></trkpt><trkpt lat="39.47236368" lon="-0.36961494"><ele>-44.8</ele><time>2022-10-30T15:02:17.0000000+00:00</time></trkpt><trkpt lat="39.47236368" lon="-0.36961494"><ele>-44.8</ele><time>2022-10-30T15:02:18.0000000+00:00</time></trkpt><trkpt lat="39.47236343" lon="-0.36961997"><ele>-44.8</ele><time>2022-10-30T15:02:19.0000000+00:00</time></trkpt><trkpt lat="39.47236318" lon="-0.36962265"><ele>-44.8</ele><time>2022-10-30T15:02:20.0000000+00:00</time></trkpt><trkpt lat="39.47236192" lon="-0.3696245"><ele>-44.8</ele><time>2022-10-30T15:02:21.0000000+00:00</time></trkpt><trkpt lat="39.47236117" lon="-0.36962525"><ele>-44.8</ele><time>2022-10-30T15:02:22.0000000+00:00</time></trkpt><trkpt lat="39.47236092" lon="-0.36962609"><ele>-44.8</ele><time>2022-10-30T15:02:23.0000000+00:00</time></trkpt><trkpt lat="39.47235975" lon="-0.36962827"><ele>-44.8</ele><time>2022-10-30T15:02:24.0000000+00:00</time></trkpt><trkpt lat="39.47235941" lon="-0.36963414"><ele>-44.8</ele><time>2022-10-30T15:02:25.0000000+00:00</time></trkpt><trkpt lat="39.47235899" lon="-0.36963866"><ele>-44.8</ele><time>2022-10-30T15:02:26.0000000+00:00</time></trkpt><trkpt lat="39.4723584" lon="-0.36964076"><ele>-44.8</ele><time>2022-10-30T15:02:27.0000000+00:00</time></trkpt><trkpt lat="39.47235815" lon="-0.36964109"><ele>-44.8</ele><time>2022-10-30T15:02:28.0000000+00:00</time></trkpt><trkpt lat="39.4723574" lon="-0.36964118"><ele>-44.8</ele><time>2022-10-30T15:02:29.0000000+00:00</time></trkpt><trkpt lat="39.47235723" lon="-0.3696416"><ele>-44.8</ele><time>2022-10-30T15:02:30.0000000+00:00</time></trkpt><trkpt lat="39.47235723" lon="-0.36964277"><ele>-44.8</ele><time>2022-10-30T15:02:31.0000000+00:00</time></trkpt><trkpt lat="39.47235799" lon="-0.36964327"><ele>-44.8</ele><time>2022-10-30T15:02:32.0000000+00:00</time></trkpt><trkpt lat="39.47235824" lon="-0.36964344"><ele>-44.8</ele><time>2022-10-30T15:02:33.0000000+00:00</time></trkpt><trkpt lat="39.47235824" lon="-0.36964344"><ele>-44.8</ele><time>2022-10-30T15:02:34.0000000+00:00</time></trkpt><trkpt lat="39.47235824" lon="-0.36964352"><ele>-44.8</ele><time>2022-10-30T15:02:35.0000000+00:00</time></trkpt><trkpt lat="39.47235832" lon="-0.36964352"><ele>-44.8</ele><time>2022-10-30T15:02:36.0000000+00:00</time></trkpt><trkpt lat="39.47235832" lon="-0.36964419"><ele>-44.8</ele><time>2022-10-30T15:02:37.0000000+00:00</time></trkpt><trkpt lat="39.47235832" lon="-0.36964453"><ele>-44.8</ele><time>2022-10-30T15:02:38.0000000+00:00</time></trkpt><trkpt lat="39.47235832" lon="-0.36964461"><ele>-44.8</ele><time>2022-10-30T15:02:39.0000000+00:00</time></trkpt><trkpt lat="39.47235815" lon="-0.3696447"><ele>-44.8</ele><time>2022-10-30T15:02:40.0000000+00:00</time></trkpt><trkpt lat="39.47235748" lon="-0.36964646"><ele>-44.8</ele><time>2022-10-30T15:02:41.0000000+00:00</time></trkpt><trkpt lat="39.47235723" lon="-0.36964696"><ele>-44.8</ele><time>2022-10-30T15:02:42.0000000+00:00</time></trkpt><trkpt lat="39.47235421" lon="-0.36965056"><ele>-44.8</ele><time>2022-10-30T15:02:43.0000000+00:00</time></trkpt><trkpt lat="39.47236125" lon="-0.36965031"><ele>-44.8</ele><time>2022-10-30T15:02:44.0000000+00:00</time></trkpt><trkpt lat="39.47235874" lon="-0.36965836"><ele>-44.8</ele><time>2022-10-30T15:02:45.0000000+00:00</time></trkpt><trkpt lat="39.47235547" lon="-0.36966448"><ele>-44.8</ele><time>2022-10-30T15:02:46.0000000+00:00</time></trkpt><trkpt lat="39.47235094" lon="-0.36967093"><ele>-44.8</ele><time>2022-10-30T15:02:47.0000000+00:00</time></trkpt><trkpt lat="39.47234022" lon="-0.36967278"><ele>-44.8</ele><time>2022-10-30T15:02:48.0000000+00:00</time></trkpt><trkpt lat="39.47233552" lon="-0.36967957"><ele>-44.8</ele><time>2022-10-30T15:02:49.0000000+00:00</time></trkpt><trkpt lat="39.47232907" lon="-0.36968987"><ele>-44.8</ele><time>2022-10-30T15:02:50.0000000+00:00</time></trkpt><trkpt lat="39.47232052" lon="-0.36970597"><ele>-44.8</ele><time>2022-10-30T15:02:51.0000000+00:00</time></trkpt><trkpt lat="39.47231499" lon="-0.36970815"><ele>-44.8</ele><time>2022-10-30T15:02:52.0000000+00:00</time></trkpt><trkpt lat="39.47231683" lon="-0.36971066"><ele>-44.8</ele><time>2022-10-30T15:02:53.0000000+00:00</time></trkpt><trkpt lat="39.47231649" lon="-0.369712"><ele>-44.8</ele><time>2022-10-30T15:02:54.0000000+00:00</time></trkpt><trkpt lat="39.47231507" lon="-0.36970136"><ele>-44.8</ele><time>2022-10-30T15:02:55.0000000+00:00</time></trkpt><trkpt lat="39.47231582" lon="-0.36969457"><ele>-44.8</ele><time>2022-10-30T15:02:56.0000000+00:00</time></trkpt><trkpt lat="39.47231717" lon="-0.36968535"><ele>-44.8</ele><time>2022-10-30T15:02:57.0000000+00:00</time></trkpt><trkpt lat="39.47231566" lon="-0.3696856"><ele>-44.8</ele><time>2022-10-30T15:02:58.0000000+00:00</time></trkpt><trkpt lat="39.4723139" lon="-0.36968376"><ele>-44.8</ele><time>2022-10-30T15:02:59.0000000+00:00</time></trkpt><trkpt lat="39.47231339" lon="-0.36967998"><ele>-44.8</ele><time>2022-10-30T15:03:00.0000000+00:00</time></trkpt><trkpt lat="39.4723139" lon="-0.36968191"><ele>-44.8</ele><time>2022-10-30T15:03:01.0000000+00:00</time></trkpt><trkpt lat="39.4723139" lon="-0.36968191"><ele>-44.8</ele><time>2022-10-30T15:03:02.0000000+00:00</time></trkpt><trkpt lat="39.4723139" lon="-0.36968191"><ele>-44.8</ele><time>2022-10-30T15:03:03.0000000+00:00</time></trkpt><trkpt lat="39.4723139" lon="-0.36968191"><ele>-44.8</ele><time>2022-10-30T15:03:04.0000000+00:00</time></trkpt><trkpt lat="39.4723139" lon="-0.36968191"><ele>-44.8</ele><time>2022-10-30T15:03:05.0000000+00:00</time></trkpt><trkpt lat="39.4723139" lon="-0.36968191"><ele>-44.8</ele><time>2022-10-30T15:03:06.0000000+00:00</time></trkpt><trkpt lat="39.4723139" lon="-0.36968191"><ele>-44.8</ele><time>2022-10-30T15:03:07.0000000+00:00</time></trkpt><trkpt lat="39.4723139" lon="-0.36968191"><ele>-44.8</ele><time>2022-10-30T15:03:08.0000000+00:00</time></trkpt><trkpt lat="39.4723139" lon="-0.36968191"><ele>-44.8</ele><time>2022-10-30T15:03:09.0000000+00:00</time></trkpt><trkpt lat="39.4723139" lon="-0.36968367"><ele>-44.8</ele><time>2022-10-30T15:03:10.0000000+00:00</time></trkpt><trkpt lat="39.4723139" lon="-0.36968392"><ele>-44.8</ele><time>2022-10-30T15:03:11.0000000+00:00</time></trkpt><trkpt lat="39.4723139" lon="-0.36968468"><ele>-44.8</ele><time>2022-10-30T15:03:12.0000000+00:00</time></trkpt><trkpt lat="39.47231415" lon="-0.36968526"><ele>-44.8</ele><time>2022-10-30T15:03:13.0000000+00:00</time></trkpt><trkpt lat="39.47231415" lon="-0.36968552"><ele>-44.8</ele><time>2022-10-30T15:03:14.0000000+00:00</time></trkpt><trkpt lat="39.47231482" lon="-0.3696856"><ele>-44.8</ele><time>2022-10-30T15:03:15.0000000+00:00</time></trkpt><trkpt lat="39.47231499" lon="-0.3696856"><ele>-44.8</ele><time>2022-10-30T15:03:16.0000000+00:00</time></trkpt><trkpt lat="39.47231532" lon="-0.3696856"><ele>-44.8</ele><time>2022-10-30T15:03:17.0000000+00:00</time></trkpt><trkpt lat="39.47231566" lon="-0.3696856"><ele>-44.8</ele><time>2022-10-30T15:03:18.0000000+00:00</time></trkpt><trkpt lat="39.47231582" lon="-0.3696856"><ele>-44.8</ele><time>2022-10-30T15:03:19.0000000+00:00</time></trkpt><trkpt lat="39.47231599" lon="-0.3696856"><ele>-44.8</ele><time>2022-10-30T15:03:20.0000000+00:00</time></trkpt><trkpt lat="39.47231633" lon="-0.3696856"><ele>-44.8</ele><time>2022-10-30T15:03:21.0000000+00:00</time></trkpt><trkpt lat="39.47231649" lon="-0.3696861"><ele>-44.8</ele><time>2022-10-30T15:03:22.0000000+00:00</time></trkpt><trkpt lat="39.47231649" lon="-0.36968619"><ele>-44.8</ele><time>2022-10-30T15:03:23.0000000+00:00</time></trkpt><trkpt lat="39.47231708" lon="-0.36968619"><ele>-44.8</ele><time>2022-10-30T15:03:24.0000000+00:00</time></trkpt><trkpt lat="39.47232077" lon="-0.36968619"><ele>-44.8</ele><time>2022-10-30T15:03:25.0000000+00:00</time></trkpt><trkpt lat="39.47232278" lon="-0.36968619"><ele>-44.8</ele><time>2022-10-30T15:03:26.0000000+00:00</time></trkpt><trkpt lat="39.47232471" lon="-0.36968644"><ele>-44.8</ele><time>2022-10-30T15:03:27.0000000+00:00</time></trkpt><trkpt lat="39.47233049" lon="-0.36968661"><ele>-44.8</ele><time>2022-10-30T15:03:28.0000000+00:00</time></trkpt><trkpt lat="39.47233393" lon="-0.36968744"><ele>-44.8</ele><time>2022-10-30T15:03:29.0000000+00:00</time></trkpt><trkpt lat="39.47233577" lon="-0.36968803"><ele>-44.8</ele><time>2022-10-30T15:03:30.0000000+00:00</time></trkpt><trkpt lat="39.4723403" lon="-0.3696892"><ele>-44.8</ele><time>2022-10-30T15:03:31.0000000+00:00</time></trkpt><trkpt lat="39.47234474" lon="-0.36968954"><ele>-44.8</ele><time>2022-10-30T15:03:32.0000000+00:00</time></trkpt><trkpt lat="39.47234541" lon="-0.36969096"><ele>-44.8</ele><time>2022-10-30T15:03:33.0000000+00:00</time></trkpt><trkpt lat="39.47234566" lon="-0.36969138"><ele>-44.8</ele><time>2022-10-30T15:03:34.0000000+00:00</time></trkpt><trkpt lat="39.47234625" lon="-0.36969189"><ele>-44.8</ele><time>2022-10-30T15:03:35.0000000+00:00</time></trkpt><trkpt lat="39.47234751" lon="-0.36969264"><ele>-44.8</ele><time>2022-10-30T15:03:36.0000000+00:00</time></trkpt><trkpt lat="39.47234835" lon="-0.36969415"><ele>-44.8</ele><time>2022-10-30T15:03:37.0000000+00:00</time></trkpt><trkpt lat="39.47234885" lon="-0.36969532"><ele>-44.8</ele><time>2022-10-30T15:03:38.0000000+00:00</time></trkpt><trkpt lat="39.47234935" lon="-0.36969549"><ele>-44.8</ele><time>2022-10-30T15:03:39.0000000+00:00</time></trkpt><trkpt lat="39.47234952" lon="-0.36969557"><ele>-44.8</ele><time>2022-10-30T15:03:40.0000000+00:00</time></trkpt><trkpt lat="39.47234952" lon="-0.36969532"><ele>-44.8</ele><time>2022-10-30T15:03:41.0000000+00:00</time></trkpt><trkpt lat="39.47234952" lon="-0.36969465"><ele>-44.8</ele><time>2022-10-30T15:03:42.0000000+00:00</time></trkpt><trkpt lat="39.47234952" lon="-0.36969448"><ele>-44.8</ele><time>2022-10-30T15:03:43.0000000+00:00</time></trkpt><trkpt lat="39.47234952" lon="-0.36969448"><ele>-44.8</ele><time>2022-10-30T15:03:44.0000000+00:00</time></trkpt><trkpt lat="39.47234952" lon="-0.36969448"><ele>-44.8</ele><time>2022-10-30T15:03:45.0000000+00:00</time></trkpt><trkpt lat="39.47234952" lon="-0.36969448"><ele>-44.8</ele><time>2022-10-30T15:03:46.0000000+00:00</time></trkpt><trkpt lat="39.47234952" lon="-0.36969448"><ele>-44.8</ele><time>2022-10-30T15:03:47.0000000+00:00</time></trkpt><trkpt lat="39.47234952" lon="-0.36969448"><ele>-44.8</ele><time>2022-10-30T15:03:48.0000000+00:00</time></trkpt><trkpt lat="39.4723496" lon="-0.36969448"><ele>-44.8</ele><time>2022-10-30T15:03:49.0000000+00:00</time></trkpt><trkpt lat="39.47234969" lon="-0.36969448"><ele>-44.8</ele><time>2022-10-30T15:03:50.0000000+00:00</time></trkpt><trkpt lat="39.47234985" lon="-0.36969448"><ele>-44.8</ele><time>2022-10-30T15:03:51.0000000+00:00</time></trkpt><trkpt lat="39.47234994" lon="-0.36969448"><ele>-44.8</ele><time>2022-10-30T15:03:52.0000000+00:00</time></trkpt><trkpt lat="39.47234969" lon="-0.36969448"><ele>-44.8</ele><time>2022-10-30T15:03:53.0000000+00:00</time></trkpt><trkpt lat="39.47234952" lon="-0.36969314"><ele>-44.8</ele><time>2022-10-30T15:03:54.0000000+00:00</time></trkpt><trkpt lat="39.47234952" lon="-0.36969272"><ele>-44.8</ele><time>2022-10-30T15:03:55.0000000+00:00</time></trkpt><trkpt lat="39.4723496" lon="-0.36968987"><ele>-44.8</ele><time>2022-10-30T15:03:56.0000000+00:00</time></trkpt><trkpt lat="39.47234985" lon="-0.36968795"><ele>-44.8</ele><time>2022-10-30T15:03:57.0000000+00:00</time></trkpt><trkpt lat="39.47234994" lon="-0.36968409"><ele>-44.8</ele><time>2022-10-30T15:03:58.0000000+00:00</time></trkpt><trkpt lat="39.47235011" lon="-0.36968116"><ele>-44.8</ele><time>2022-10-30T15:03:59.0000000+00:00</time></trkpt><trkpt lat="39.47235044" lon="-0.36968024"><ele>-44.8</ele><time>2022-10-30T15:04:00.0000000+00:00</time></trkpt><trkpt lat="39.47235069" lon="-0.3696799"><ele>-44.8</ele><time>2022-10-30T15:04:01.0000000+00:00</time></trkpt><trkpt lat="39.47235086" lon="-0.36967965"><ele>-44.8</ele><time>2022-10-30T15:04:02.0000000+00:00</time></trkpt><trkpt lat="39.4723512" lon="-0.3696794"><ele>-44.8</ele><time>2022-10-30T15:04:03.0000000+00:00</time></trkpt><trkpt lat="39.47235128" lon="-0.36967931"><ele>-44.8</ele><time>2022-10-30T15:04:04.0000000+00:00</time></trkpt><trkpt lat="39.47235136" lon="-0.36967931"><ele>-44.8</ele><time>2022-10-30T15:04:05.0000000+00:00</time></trkpt><trkpt lat="39.47235187" lon="-0.36967915"><ele>-44.8</ele><time>2022-10-30T15:04:06.0000000+00:00</time></trkpt><trkpt lat="39.4723522" lon="-0.36967906"><ele>-44.8</ele><time>2022-10-30T15:04:07.0000000+00:00</time></trkpt><trkpt lat="39.47235296" lon="-0.36967889"><ele>-44.8</ele><time>2022-10-30T15:04:08.0000000+00:00</time></trkpt><trkpt lat="39.47235329" lon="-0.36967814"><ele>-44.8</ele><time>2022-10-30T15:04:09.0000000+00:00</time></trkpt><trkpt lat="39.4723548" lon="-0.3696778"><ele>-44.8</ele><time>2022-10-30T15:04:10.0000000+00:00</time></trkpt><trkpt lat="39.47235614" lon="-0.3696768"><ele>-44.8</ele><time>2022-10-30T15:04:11.0000000+00:00</time></trkpt><trkpt lat="39.47235748" lon="-0.3696763"><ele>-44.8</ele><time>2022-10-30T15:04:12.0000000+00:00</time></trkpt><trkpt lat="39.47235857" lon="-0.36967596"><ele>-44.8</ele><time>2022-10-30T15:04:13.0000000+00:00</time></trkpt><trkpt lat="39.47235899" lon="-0.36967554"><ele>-44.8</ele><time>2022-10-30T15:04:14.0000000+00:00</time></trkpt><trkpt lat="39.47235916" lon="-0.36967537"><ele>-44.8</ele><time>2022-10-30T15:04:15.0000000+00:00</time></trkpt><trkpt lat="39.47235966" lon="-0.36967521"><ele>-44.8</ele><time>2022-10-30T15:04:16.0000000+00:00</time></trkpt><trkpt lat="39.47236016" lon="-0.36967487"><ele>-44.8</ele><time>2022-10-30T15:04:17.0000000+00:00</time></trkpt><trkpt lat="39.4723605" lon="-0.36967437"><ele>-44.8</ele><time>2022-10-30T15:04:18.0000000+00:00</time></trkpt><trkpt lat="39.472361" lon="-0.36967387"><ele>-44.8</ele><time>2022-10-30T15:04:19.0000000+00:00</time></trkpt><trkpt lat="39.47236201" lon="-0.36967345"><ele>-44.8</ele><time>2022-10-30T15:04:20.0000000+00:00</time></trkpt><trkpt lat="39.47236243" lon="-0.36967294"><ele>-44.8</ele><time>2022-10-30T15:04:21.0000000+00:00</time></trkpt><trkpt lat="39.47236301" lon="-0.36967269"><ele>-44.8</ele><time>2022-10-30T15:04:22.0000000+00:00</time></trkpt><trkpt lat="39.47236335" lon="-0.36967236"><ele>-44.8</ele><time>2022-10-30T15:04:23.0000000+00:00</time></trkpt><trkpt lat="39.47236385" lon="-0.369669"><ele>-44.8</ele><time>2022-10-30T15:04:24.0000000+00:00</time></trkpt><trkpt lat="39.47236846" lon="-0.36966766"><ele>-44.8</ele><time>2022-10-30T15:04:25.0000000+00:00</time></trkpt><trkpt lat="39.47237123" lon="-0.36966708"><ele>-44.8</ele><time>2022-10-30T15:04:26.0000000+00:00</time></trkpt><trkpt lat="39.47237249" lon="-0.36966682"><ele>-44.8</ele><time>2022-10-30T15:04:27.0000000+00:00</time></trkpt><trkpt lat="39.47237316" lon="-0.36966674"><ele>-44.8</ele><time>2022-10-30T15:04:28.0000000+00:00</time></trkpt><trkpt lat="39.47237358" lon="-0.36966666"><ele>-44.8</ele><time>2022-10-30T15:04:29.0000000+00:00</time></trkpt><trkpt lat="39.47237425" lon="-0.36966666"><ele>-44.8</ele><time>2022-10-30T15:04:30.0000000+00:00</time></trkpt><trkpt lat="39.47237483" lon="-0.36966666"><ele>-44.8</ele><time>2022-10-30T15:04:31.0000000+00:00</time></trkpt><trkpt lat="39.47237508" lon="-0.36966666"><ele>-44.8</ele><time>2022-10-30T15:04:32.0000000+00:00</time></trkpt><trkpt lat="39.47237517" lon="-0.36966666"><ele>-44.8</ele><time>2022-10-30T15:04:33.0000000+00:00</time></trkpt><trkpt lat="39.47237525" lon="-0.36966666"><ele>-44.8</ele><time>2022-10-30T15:04:34.0000000+00:00</time></trkpt><trkpt lat="39.47237525" lon="-0.36966666"><ele>-44.8</ele><time>2022-10-30T15:04:35.0000000+00:00</time></trkpt><trkpt lat="39.47237525" lon="-0.36966666"><ele>-44.8</ele><time>2022-10-30T15:04:36.0000000+00:00</time></trkpt><trkpt lat="39.47237525" lon="-0.36966666"><ele>-44.8</ele><time>2022-10-30T15:04:37.0000000+00:00</time></trkpt><trkpt lat="39.47237525" lon="-0.36966666"><ele>-44.8</ele><time>2022-10-30T15:04:38.0000000+00:00</time></trkpt><trkpt lat="39.47237525" lon="-0.36966699"><ele>-44.8</ele><time>2022-10-30T15:04:39.0000000+00:00</time></trkpt><trkpt lat="39.47237525" lon="-0.3696711"><ele>-44.8</ele><time>2022-10-30T15:04:40.0000000+00:00</time></trkpt><trkpt lat="39.47237525" lon="-0.36967722"><ele>-44.8</ele><time>2022-10-30T15:04:41.0000000+00:00</time></trkpt><trkpt lat="39.47237534" lon="-0.36968141"><ele>-44.8</ele><time>2022-10-30T15:04:42.0000000+00:00</time></trkpt><trkpt lat="39.47237559" lon="-0.36968418"><ele>-44.8</ele><time>2022-10-30T15:04:43.0000000+00:00</time></trkpt><trkpt lat="39.47237643" lon="-0.3696856"><ele>-44.8</ele><time>2022-10-30T15:04:44.0000000+00:00</time></trkpt><trkpt lat="39.47237676" lon="-0.36968686"><ele>-44.8</ele><time>2022-10-30T15:04:45.0000000+00:00</time></trkpt><trkpt lat="39.47237701" lon="-0.36968786"><ele>-44.8</ele><time>2022-10-30T15:04:46.0000000+00:00</time></trkpt><trkpt lat="39.4723771" lon="-0.36968962"><ele>-44.8</ele><time>2022-10-30T15:04:47.0000000+00:00</time></trkpt><trkpt lat="39.47237701" lon="-0.36969071"><ele>-44.8</ele><time>2022-10-30T15:04:48.0000000+00:00</time></trkpt><trkpt lat="39.47237693" lon="-0.36969214"><ele>-44.8</ele><time>2022-10-30T15:04:49.0000000+00:00</time></trkpt><trkpt lat="39.47237693" lon="-0.36969281"><ele>-44.8</ele><time>2022-10-30T15:04:50.0000000+00:00</time></trkpt><trkpt lat="39.47237684" lon="-0.36969323"><ele>-44.8</ele><time>2022-10-30T15:04:51.0000000+00:00</time></trkpt><trkpt lat="39.47237684" lon="-0.36969348"><ele>-44.8</ele><time>2022-10-30T15:04:52.0000000+00:00</time></trkpt><trkpt lat="39.47237684" lon="-0.36969356"><ele>-44.8</ele><time>2022-10-30T15:04:53.0000000+00:00</time></trkpt><trkpt lat="39.47237684" lon="-0.36969365"><ele>-44.8</ele><time>2022-10-30T15:04:54.0000000+00:00</time></trkpt><trkpt lat="39.47237684" lon="-0.36969365"><ele>-44.8</ele><time>2022-10-30T15:04:55.0000000+00:00</time></trkpt><trkpt lat="39.47237684" lon="-0.36969365"><ele>-44.8</ele><time>2022-10-30T15:04:56.0000000+00:00</time></trkpt><trkpt lat="39.47237684" lon="-0.36969373"><ele>-44.8</ele><time>2022-10-30T15:04:57.0000000+00:00</time></trkpt><trkpt lat="39.47237684" lon="-0.36969373"><ele>-44.8</ele><time>2022-10-30T15:04:58.0000000+00:00</time></trkpt><trkpt lat="39.47237701" lon="-0.36969457"><ele>-44.8</ele><time>2022-10-30T15:04:59.0000000+00:00</time></trkpt><trkpt lat="39.4723771" lon="-0.36969507"><ele>-44.8</ele><time>2022-10-30T15:05:00.0000000+00:00</time></trkpt><trkpt lat="39.47237718" lon="-0.36969532"><ele>-44.8</ele><time>2022-10-30T15:05:01.0000000+00:00</time></trkpt><trkpt lat="39.47237735" lon="-0.36969549"><ele>-44.8</ele><time>2022-10-30T15:05:02.0000000+00:00</time></trkpt><trkpt lat="39.4723776" lon="-0.36969566"><ele>-44.8</ele><time>2022-10-30T15:05:03.0000000+00:00</time></trkpt><trkpt lat="39.47237827" lon="-0.36969566"><ele>-44.8</ele><time>2022-10-30T15:05:04.0000000+00:00</time></trkpt><trkpt lat="39.47237919" lon="-0.36969574"><ele>-44.8</ele><time>2022-10-30T15:05:05.0000000+00:00</time></trkpt><trkpt lat="39.4723802" lon="-0.36969574"><ele>-44.8</ele><time>2022-10-30T15:05:06.0000000+00:00</time></trkpt><trkpt lat="39.47238162" lon="-0.36969574"><ele>-44.8</ele><time>2022-10-30T15:05:07.0000000+00:00</time></trkpt><trkpt lat="39.47238254" lon="-0.36969574"><ele>-44.8</ele><time>2022-10-30T15:05:08.0000000+00:00</time></trkpt><trkpt lat="39.47238321" lon="-0.36969574"><ele>-44.8</ele><time>2022-10-30T15:05:09.0000000+00:00</time></trkpt><trkpt lat="39.47238405" lon="-0.36969574"><ele>-44.8</ele><time>2022-10-30T15:05:10.0000000+00:00</time></trkpt><trkpt lat="39.47238464" lon="-0.36969574"><ele>-44.8</ele><time>2022-10-30T15:05:11.0000000+00:00</time></trkpt><trkpt lat="39.47238506" lon="-0.36969574"><ele>-44.8</ele><time>2022-10-30T15:05:12.0000000+00:00</time></trkpt><trkpt lat="39.47238556" lon="-0.36969566"><ele>-44.8</ele><time>2022-10-30T15:05:13.0000000+00:00</time></trkpt><trkpt lat="39.47238598" lon="-0.36969549"><ele>-44.8</ele><time>2022-10-30T15:05:14.0000000+00:00</time></trkpt><trkpt lat="39.47238648" lon="-0.36969541"><ele>-44.8</ele><time>2022-10-30T15:05:15.0000000+00:00</time></trkpt><trkpt lat="39.4723869" lon="-0.36969524"><ele>-44.8</ele><time>2022-10-30T15:05:16.0000000+00:00</time></trkpt><trkpt lat="39.47238749" lon="-0.36969507"><ele>-44.8</ele><time>2022-10-30T15:05:17.0000000+00:00</time></trkpt><trkpt lat="39.47238866" lon="-0.36969499"><ele>-44.8</ele><time>2022-10-30T15:05:18.0000000+00:00</time></trkpt><trkpt lat="39.47239034" lon="-0.36969507"><ele>-44.8</ele><time>2022-10-30T15:05:19.0000000+00:00</time></trkpt><trkpt lat="39.47239176" lon="-0.36969516"><ele>-44.8</ele><time>2022-10-30T15:05:20.0000000+00:00</time></trkpt><trkpt lat="39.47239302" lon="-0.36969532"><ele>-44.8</ele><time>2022-10-30T15:05:21.0000000+00:00</time></trkpt><trkpt lat="39.47239403" lon="-0.36969549"><ele>-44.8</ele><time>2022-10-30T15:05:22.0000000+00:00</time></trkpt><trkpt lat="39.47239478" lon="-0.36969557"><ele>-44.8</ele><time>2022-10-30T15:05:23.0000000+00:00</time></trkpt><trkpt lat="39.47239528" lon="-0.36969608"><ele>-44.8</ele><time>2022-10-30T15:05:24.0000000+00:00</time></trkpt><trkpt lat="39.4723957" lon="-0.3696965"><ele>-44.8</ele><time>2022-10-30T15:05:25.0000000+00:00</time></trkpt><trkpt lat="39.47239604" lon="-0.36969683"><ele>-44.8</ele><time>2022-10-30T15:05:26.0000000+00:00</time></trkpt><trkpt lat="39.47239629" lon="-0.36969725"><ele>-44.8</ele><time>2022-10-30T15:05:27.0000000+00:00</time></trkpt><trkpt lat="39.47239646" lon="-0.36969759"><ele>-44.8</ele><time>2022-10-30T15:05:28.0000000+00:00</time></trkpt><trkpt lat="39.47239663" lon="-0.36969784"><ele>-44.8</ele><time>2022-10-30T15:05:29.0000000+00:00</time></trkpt><trkpt lat="39.47239688" lon="-0.36969817"><ele>-44.8</ele><time>2022-10-30T15:05:30.0000000+00:00</time></trkpt><trkpt lat="39.47239713" lon="-0.36969834"><ele>-44.8</ele><time>2022-10-30T15:05:31.0000000+00:00</time></trkpt><trkpt lat="39.47239763" lon="-0.36969851"><ele>-44.8</ele><time>2022-10-30T15:05:32.0000000+00:00</time></trkpt><trkpt lat="39.47239805" lon="-0.36969859"><ele>-44.8</ele><time>2022-10-30T15:05:33.0000000+00:00</time></trkpt><trkpt lat="39.4723983" lon="-0.36969868"><ele>-44.8</ele><time>2022-10-30T15:05:34.0000000+00:00</time></trkpt><trkpt lat="39.47239855" lon="-0.36969868"><ele>-44.8</ele><time>2022-10-30T15:05:35.0000000+00:00</time></trkpt><trkpt lat="39.47239872" lon="-0.36969868"><ele>-44.8</ele><time>2022-10-30T15:05:36.0000000+00:00</time></trkpt><trkpt lat="39.47239881" lon="-0.36969851"><ele>-44.8</ele><time>2022-10-30T15:05:37.0000000+00:00</time></trkpt><trkpt lat="39.47239889" lon="-0.36969834"><ele>-44.8</ele><time>2022-10-30T15:05:38.0000000+00:00</time></trkpt><trkpt lat="39.47239897" lon="-0.36969801"><ele>-44.8</ele><time>2022-10-30T15:05:39.0000000+00:00</time></trkpt><trkpt lat="39.47239906" lon="-0.3696975"><ele>-44.8</ele><time>2022-10-30T15:05:40.0000000+00:00</time></trkpt><trkpt lat="39.47239906" lon="-0.36969717"><ele>-44.8</ele><time>2022-10-30T15:05:41.0000000+00:00</time></trkpt><trkpt lat="39.47239906" lon="-0.36969683"><ele>-44.8</ele><time>2022-10-30T15:05:42.0000000+00:00</time></trkpt><trkpt lat="39.47239914" lon="-0.36969666"><ele>-44.8</ele><time>2022-10-30T15:05:43.0000000+00:00</time></trkpt><trkpt lat="39.47239914" lon="-0.36969591"><ele>-44.8</ele><time>2022-10-30T15:05:44.0000000+00:00</time></trkpt><trkpt lat="39.47239914" lon="-0.36969532"><ele>-44.8</ele><time>2022-10-30T15:05:45.0000000+00:00</time></trkpt><trkpt lat="39.47239914" lon="-0.36969482"><ele>-44.8</ele><time>2022-10-30T15:05:46.0000000+00:00</time></trkpt><trkpt lat="39.47239914" lon="-0.36969381"><ele>-44.8</ele><time>2022-10-30T15:05:47.0000000+00:00</time></trkpt><trkpt lat="39.47239889" lon="-0.36969247"><ele>-44.8</ele><time>2022-10-30T15:05:48.0000000+00:00</time></trkpt><trkpt lat="39.47239855" lon="-0.3696908"><ele>-44.8</ele><time>2022-10-30T15:05:49.0000000+00:00</time></trkpt><trkpt lat="39.47239822" lon="-0.36968887"><ele>-44.8</ele><time>2022-10-30T15:05:50.0000000+00:00</time></trkpt><trkpt lat="39.47239788" lon="-0.36968694"><ele>-44.8</ele><time>2022-10-30T15:05:51.0000000+00:00</time></trkpt><trkpt lat="39.47239763" lon="-0.36968526"><ele>-44.8</ele><time>2022-10-30T15:05:52.0000000+00:00</time></trkpt><trkpt lat="39.47239738" lon="-0.36968384"><ele>-44.8</ele><time>2022-10-30T15:05:53.0000000+00:00</time></trkpt><trkpt lat="39.47239704" lon="-0.36968258"><ele>-44.8</ele><time>2022-10-30T15:05:54.0000000+00:00</time></trkpt><trkpt lat="39.47239671" lon="-0.36968133"><ele>-44.8</ele><time>2022-10-30T15:05:55.0000000+00:00</time></trkpt><trkpt lat="39.47239621" lon="-0.36968007"><ele>-44.8</ele><time>2022-10-30T15:05:56.0000000+00:00</time></trkpt><trkpt lat="39.4723957" lon="-0.36967898"><ele>-44.8</ele><time>2022-10-30T15:05:57.0000000+00:00</time></trkpt><trkpt lat="39.4723952" lon="-0.3696778"><ele>-44.8</ele><time>2022-10-30T15:05:58.0000000+00:00</time></trkpt><trkpt lat="39.4723947" lon="-0.36967663"><ele>-44.8</ele><time>2022-10-30T15:05:59.0000000+00:00</time></trkpt><trkpt lat="39.47239419" lon="-0.36967512"><ele>-44.8</ele><time>2022-10-30T15:06:00.0000000+00:00</time></trkpt><trkpt lat="39.47239378" lon="-0.36967361"><ele>-44.8</ele><time>2022-10-30T15:06:01.0000000+00:00</time></trkpt><trkpt lat="39.47239344" lon="-0.36967227"><ele>-44.8</ele><time>2022-10-30T15:06:02.0000000+00:00</time></trkpt><trkpt lat="39.47239311" lon="-0.36967118"><ele>-44.8</ele><time>2022-10-30T15:06:03.0000000+00:00</time></trkpt><trkpt lat="39.47239277" lon="-0.36967009"><ele>-44.8</ele><time>2022-10-30T15:06:04.0000000+00:00</time></trkpt><trkpt lat="39.47239243" lon="-0.36966917"><ele>-44.8</ele><time>2022-10-30T15:06:05.0000000+00:00</time></trkpt><trkpt lat="39.47239218" lon="-0.36966833"><ele>-44.8</ele><time>2022-10-30T15:06:06.0000000+00:00</time></trkpt><trkpt lat="39.47239202" lon="-0.36966766"><ele>-44.8</ele><time>2022-10-30T15:06:07.0000000+00:00</time></trkpt><trkpt lat="39.47239176" lon="-0.36966708"><ele>-44.8</ele><time>2022-10-30T15:06:08.0000000+00:00</time></trkpt><trkpt lat="39.4723916" lon="-0.36966649"><ele>-44.8</ele><time>2022-10-30T15:06:09.0000000+00:00</time></trkpt><trkpt lat="39.47239143" lon="-0.36966599"><ele>-44.8</ele><time>2022-10-30T15:06:10.0000000+00:00</time></trkpt><trkpt lat="39.47239126" lon="-0.36966557"><ele>-44.8</ele><time>2022-10-30T15:06:11.0000000+00:00</time></trkpt><trkpt lat="39.47239118" lon="-0.36966515"><ele>-44.8</ele><time>2022-10-30T15:06:12.0000000+00:00</time></trkpt><trkpt lat="39.47239093" lon="-0.3696649"><ele>-44.8</ele><time>2022-10-30T15:06:13.0000000+00:00</time></trkpt><trkpt lat="39.47239076" lon="-0.36966456"><ele>-44.8</ele><time>2022-10-30T15:06:14.0000000+00:00</time></trkpt><trkpt lat="39.47239067" lon="-0.36966439"><ele>-44.8</ele><time>2022-10-30T15:06:15.0000000+00:00</time></trkpt><trkpt lat="39.47239051" lon="-0.36966423"><ele>-44.8</ele><time>2022-10-30T15:06:16.0000000+00:00</time></trkpt><trkpt lat="39.47239042" lon="-0.36966406"><ele>-44.8</ele><time>2022-10-30T15:06:17.0000000+00:00</time></trkpt><trkpt lat="39.47239034" lon="-0.36966389"><ele>-44.8</ele><time>2022-10-30T15:06:18.0000000+00:00</time></trkpt><trkpt lat="39.47239026" lon="-0.36966381"><ele>-44.8</ele><time>2022-10-30T15:06:19.0000000+00:00</time></trkpt><trkpt lat="39.47239017" lon="-0.36966372"><ele>-44.8</ele><time>2022-10-30T15:06:20.0000000+00:00</time></trkpt><trkpt lat="39.47239017" lon="-0.36966372"><ele>-44.8</ele><time>2022-10-30T15:06:21.0000000+00:00</time></trkpt><trkpt lat="39.47239009" lon="-0.36966347"><ele>-44.8</ele><time>2022-10-30T15:06:22.0000000+00:00</time></trkpt><trkpt lat="39.47239009" lon="-0.3696633"><ele>-44.8</ele><time>2022-10-30T15:06:23.0000000+00:00</time></trkpt><trkpt lat="39.47239009" lon="-0.36966347"><ele>-44.8</ele><time>2022-10-30T15:06:24.0000000+00:00</time></trkpt><trkpt lat="39.47239017" lon="-0.3696633"><ele>-44.8</ele><time>2022-10-30T15:06:25.0000000+00:00</time></trkpt><trkpt lat="39.47239026" lon="-0.36966289"><ele>-44.8</ele><time>2022-10-30T15:06:26.0000000+00:00</time></trkpt><trkpt lat="39.47239017" lon="-0.36966221"><ele>-44.8</ele><time>2022-10-30T15:06:27.0000000+00:00</time></trkpt><trkpt lat="39.47239009" lon="-0.36966171"><ele>-44.8</ele><time>2022-10-30T15:06:28.0000000+00:00</time></trkpt><trkpt lat="39.47239009" lon="-0.36966121"><ele>-44.8</ele><time>2022-10-30T15:06:29.0000000+00:00</time></trkpt><trkpt lat="39.47239026" lon="-0.36966087"><ele>-44.8</ele><time>2022-10-30T15:06:30.0000000+00:00</time></trkpt><trkpt lat="39.47239034" lon="-0.36966054"><ele>-44.8</ele><time>2022-10-30T15:06:31.0000000+00:00</time></trkpt><trkpt lat="39.47239059" lon="-0.36966029"><ele>-44.8</ele><time>2022-10-30T15:06:32.0000000+00:00</time></trkpt><trkpt lat="39.47239067" lon="-0.3696602"><ele>-44.8</ele><time>2022-10-30T15:06:33.0000000+00:00</time></trkpt><trkpt lat="39.47239051" lon="-0.3696602"><ele>-44.8</ele><time>2022-10-30T15:06:34.0000000+00:00</time></trkpt><trkpt lat="39.47239042" lon="-0.36966012"><ele>-44.8</ele><time>2022-10-30T15:06:35.0000000+00:00</time></trkpt><trkpt lat="39.47239034" lon="-0.36966004"><ele>-44.8</ele><time>2022-10-30T15:06:36.0000000+00:00</time></trkpt><trkpt lat="39.47239017" lon="-0.3696597"><ele>-44.8</ele><time>2022-10-30T15:06:37.0000000+00:00</time></trkpt><trkpt lat="39.47239009" lon="-0.36965936"><ele>-44.8</ele><time>2022-10-30T15:06:38.0000000+00:00</time></trkpt><trkpt lat="39.47239009" lon="-0.3696592"><ele>-44.8</ele><time>2022-10-30T15:06:39.0000000+00:00</time></trkpt><trkpt lat="39.47238992" lon="-0.36965903"><ele>-44.8</ele><time>2022-10-30T15:06:40.0000000+00:00</time></trkpt><trkpt lat="39.47238984" lon="-0.36965886"><ele>-44.8</ele><time>2022-10-30T15:06:41.0000000+00:00</time></trkpt><trkpt lat="39.47238967" lon="-0.36965853"><ele>-44.8</ele><time>2022-10-30T15:06:42.0000000+00:00</time></trkpt><trkpt lat="39.47238942" lon="-0.36965811"><ele>-44.8</ele><time>2022-10-30T15:06:43.0000000+00:00</time></trkpt><trkpt lat="39.47238933" lon="-0.36965752"><ele>-44.8</ele><time>2022-10-30T15:06:44.0000000+00:00</time></trkpt><trkpt lat="39.4723895" lon="-0.36965685"><ele>-44.8</ele><time>2022-10-30T15:06:45.0000000+00:00</time></trkpt><trkpt lat="39.47238967" lon="-0.36965626"><ele>-44.8</ele><time>2022-10-30T15:06:46.0000000+00:00</time></trkpt><trkpt lat="39.47238975" lon="-0.36965584"><ele>-44.8</ele><time>2022-10-30T15:06:47.0000000+00:00</time></trkpt><trkpt lat="39.47238984" lon="-0.36965534"><ele>-44.8</ele><time>2022-10-30T15:06:48.0000000+00:00</time></trkpt><trkpt lat="39.47238984" lon="-0.36965484"><ele>-44.8</ele><time>2022-10-30T15:06:49.0000000+00:00</time></trkpt><trkpt lat="39.47238992" lon="-0.36965434"><ele>-44.8</ele><time>2022-10-30T15:06:50.0000000+00:00</time></trkpt><trkpt lat="39.47238992" lon="-0.36965358"><ele>-44.8</ele><time>2022-10-30T15:06:51.0000000+00:00</time></trkpt><trkpt lat="39.47239009" lon="-0.36965291"><ele>-44.8</ele><time>2022-10-30T15:06:52.0000000+00:00</time></trkpt><trkpt lat="39.47239017" lon="-0.36965232"><ele>-44.8</ele><time>2022-10-30T15:06:53.0000000+00:00</time></trkpt><trkpt lat="39.47239042" lon="-0.36965182"><ele>-44.8</ele><time>2022-10-30T15:06:54.0000000+00:00</time></trkpt><trkpt lat="39.47239067" lon="-0.36965115"><ele>-44.8</ele><time>2022-10-30T15:06:55.0000000+00:00</time></trkpt><trkpt lat="39.47239093" lon="-0.36965065"><ele>-44.8</ele><time>2022-10-30T15:06:56.0000000+00:00</time></trkpt><trkpt lat="39.47239101" lon="-0.36965006"><ele>-44.8</ele><time>2022-10-30T15:06:57.0000000+00:00</time></trkpt><trkpt lat="39.47239126" lon="-0.36964947"><ele>-44.8</ele><time>2022-10-30T15:06:58.0000000+00:00</time></trkpt><trkpt lat="39.47239143" lon="-0.36964897"><ele>-44.8</ele><time>2022-10-30T15:06:59.0000000+00:00</time></trkpt><trkpt lat="39.47239151" lon="-0.36964855"><ele>-44.8</ele><time>2022-10-30T15:07:00.0000000+00:00</time></trkpt><trkpt lat="39.47239168" lon="-0.36964797"><ele>-44.8</ele><time>2022-10-30T15:07:01.0000000+00:00</time></trkpt><trkpt lat="39.47239168" lon="-0.36964771"><ele>-44.8</ele><time>2022-10-30T15:07:02.0000000+00:00</time></trkpt><trkpt lat="39.4723916" lon="-0.36964755"><ele>-44.8</ele><time>2022-10-30T15:07:03.0000000+00:00</time></trkpt><trkpt lat="39.4723916" lon="-0.36964729"><ele>-44.8</ele><time>2022-10-30T15:07:04.0000000+00:00</time></trkpt><trkpt lat="39.47239168" lon="-0.36964729"><ele>-44.8</ele><time>2022-10-30T15:07:05.0000000+00:00</time></trkpt><trkpt lat="39.47239176" lon="-0.36964721"><ele>-44.8</ele><time>2022-10-30T15:07:06.0000000+00:00</time></trkpt><trkpt lat="39.47239176" lon="-0.36964713"><ele>-44.8</ele><time>2022-10-30T15:07:07.0000000+00:00</time></trkpt><trkpt lat="39.47239176" lon="-0.36964696"><ele>-44.8</ele><time>2022-10-30T15:07:08.0000000+00:00</time></trkpt><trkpt lat="39.47239176" lon="-0.36964679"><ele>-44.8</ele><time>2022-10-30T15:07:09.0000000+00:00</time></trkpt><trkpt lat="39.47239168" lon="-0.36964662"><ele>-44.8</ele><time>2022-10-30T15:07:10.0000000+00:00</time></trkpt><trkpt lat="39.47239176" lon="-0.36964646"><ele>-44.8</ele><time>2022-10-30T15:07:11.0000000+00:00</time></trkpt><trkpt lat="39.47239176" lon="-0.36964629"><ele>-44.8</ele><time>2022-10-30T15:07:12.0000000+00:00</time></trkpt><trkpt lat="39.47239185" lon="-0.36964612"><ele>-44.8</ele><time>2022-10-30T15:07:13.0000000+00:00</time></trkpt><trkpt lat="39.47239202" lon="-0.36964595"><ele>-44.8</ele><time>2022-10-30T15:07:14.0000000+00:00</time></trkpt><trkpt lat="39.47239235" lon="-0.36964562"><ele>-44.8</ele><time>2022-10-30T15:07:15.0000000+00:00</time></trkpt><trkpt lat="39.4723926" lon="-0.36964537"><ele>-44.8</ele><time>2022-10-30T15:07:16.0000000+00:00</time></trkpt><trkpt lat="39.47239277" lon="-0.3696447"><ele>-44.8</ele><time>2022-10-30T15:07:17.0000000+00:00</time></trkpt><trkpt lat="39.47239294" lon="-0.36964436"><ele>-44.8</ele><time>2022-10-30T15:07:18.0000000+00:00</time></trkpt><trkpt lat="39.47239319" lon="-0.36964411"><ele>-44.8</ele><time>2022-10-30T15:07:19.0000000+00:00</time></trkpt><trkpt lat="39.47239327" lon="-0.36964377"><ele>-44.8</ele><time>2022-10-30T15:07:20.0000000+00:00</time></trkpt><trkpt lat="39.47239336" lon="-0.36964361"><ele>-44.8</ele><time>2022-10-30T15:07:21.0000000+00:00</time></trkpt><trkpt lat="39.47239327" lon="-0.36964336"><ele>-44.8</ele><time>2022-10-30T15:07:22.0000000+00:00</time></trkpt><trkpt lat="39.47239319" lon="-0.36964319"><ele>-44.8</ele><time>2022-10-30T15:07:23.0000000+00:00</time></trkpt><trkpt lat="39.47239302" lon="-0.3696431"><ele>-44.8</ele><time>2022-10-30T15:07:24.0000000+00:00</time></trkpt><trkpt lat="39.47239277" lon="-0.36964285"><ele>-44.8</ele><time>2022-10-30T15:07:25.0000000+00:00</time></trkpt><trkpt lat="39.47239252" lon="-0.3696426"><ele>-44.8</ele><time>2022-10-30T15:07:26.0000000+00:00</time></trkpt><trkpt lat="39.4723921" lon="-0.36964235"><ele>-44.8</ele><time>2022-10-30T15:07:27.0000000+00:00</time></trkpt><trkpt lat="39.47239168" lon="-0.36964227"><ele>-44.8</ele><time>2022-10-30T15:07:28.0000000+00:00</time></trkpt><trkpt lat="39.47239109" lon="-0.36964218"><ele>-44.8</ele><time>2022-10-30T15:07:29.0000000+00:00</time></trkpt><trkpt lat="39.47239042" lon="-0.36964193"><ele>-44.8</ele><time>2022-10-30T15:07:30.0000000+00:00</time></trkpt><trkpt lat="39.47238967" lon="-0.3696416"><ele>-44.8</ele><time>2022-10-30T15:07:31.0000000+00:00</time></trkpt><trkpt lat="39.472389" lon="-0.36964134"><ele>-44.8</ele><time>2022-10-30T15:07:32.0000000+00:00</time></trkpt><trkpt lat="39.47238858" lon="-0.36964109"><ele>-44.8</ele><time>2022-10-30T15:07:33.0000000+00:00</time></trkpt><trkpt lat="39.47238858" lon="-0.36964084"><ele>-44.8</ele><time>2022-10-30T15:07:34.0000000+00:00</time></trkpt><trkpt lat="39.47238883" lon="-0.36964059"><ele>-44.8</ele><time>2022-10-30T15:07:35.0000000+00:00</time></trkpt><trkpt lat="39.47238908" lon="-0.36964034"><ele>-44.8</ele><time>2022-10-30T15:07:36.0000000+00:00</time></trkpt><trkpt lat="39.47238925" lon="-0.36964009"><ele>-44.8</ele><time>2022-10-30T15:07:37.0000000+00:00</time></trkpt><trkpt lat="39.47238933" lon="-0.36963983"><ele>-44.8</ele><time>2022-10-30T15:07:38.0000000+00:00</time></trkpt><trkpt lat="39.4723895" lon="-0.3696395"><ele>-44.8</ele><time>2022-10-30T15:07:39.0000000+00:00</time></trkpt><trkpt lat="39.47238975" lon="-0.36963925"><ele>-44.8</ele><time>2022-10-30T15:07:40.0000000+00:00</time></trkpt><trkpt lat="39.47238984" lon="-0.36963891"><ele>-44.8</ele><time>2022-10-30T15:07:41.0000000+00:00</time></trkpt><trkpt lat="39.47238984" lon="-0.36963866"><ele>-44.8</ele><time>2022-10-30T15:07:42.0000000+00:00</time></trkpt><trkpt lat="39.47238992" lon="-0.36963824"><ele>-44.8</ele><time>2022-10-30T15:07:43.0000000+00:00</time></trkpt><trkpt lat="39.47239" lon="-0.36963782"><ele>-44.8</ele><time>2022-10-30T15:07:44.0000000+00:00</time></trkpt><trkpt lat="39.47239026" lon="-0.3696374"><ele>-44.8</ele><time>2022-10-30T15:07:45.0000000+00:00</time></trkpt><trkpt lat="39.47239026" lon="-0.36963707"><ele>-44.8</ele><time>2022-10-30T15:07:46.0000000+00:00</time></trkpt><trkpt lat="39.47239" lon="-0.36963657"><ele>-44.8</ele><time>2022-10-30T15:07:47.0000000+00:00</time></trkpt><trkpt lat="39.47238992" lon="-0.36963623"><ele>-44.8</ele><time>2022-10-30T15:07:48.0000000+00:00</time></trkpt><trkpt lat="39.47238975" lon="-0.36963573"><ele>-44.8</ele><time>2022-10-30T15:07:49.0000000+00:00</time></trkpt><trkpt lat="39.47238933" lon="-0.36963548"><ele>-44.8</ele><time>2022-10-30T15:07:50.0000000+00:00</time></trkpt><trkpt lat="39.47238891" lon="-0.36963522"><ele>-44.8</ele><time>2022-10-30T15:07:51.0000000+00:00</time></trkpt><trkpt lat="39.4723885" lon="-0.36963506"><ele>-44.8</ele><time>2022-10-30T15:07:52.0000000+00:00</time></trkpt><trkpt lat="39.47238816" lon="-0.36963481"><ele>-44.8</ele><time>2022-10-30T15:07:53.0000000+00:00</time></trkpt><trkpt lat="39.47238791" lon="-0.36963447"><ele>-44.8</ele><time>2022-10-30T15:07:54.0000000+00:00</time></trkpt><trkpt lat="39.47238791" lon="-0.3696343"><ele>-44.8</ele><time>2022-10-30T15:07:55.0000000+00:00</time></trkpt><trkpt lat="39.47238782" lon="-0.36963405"><ele>-44.8</ele><time>2022-10-30T15:07:56.0000000+00:00</time></trkpt><trkpt lat="39.47238782" lon="-0.36963372"><ele>-44.8</ele><time>2022-10-30T15:07:57.0000000+00:00</time></trkpt><trkpt lat="39.47238791" lon="-0.36963346"><ele>-44.8</ele><time>2022-10-30T15:07:58.0000000+00:00</time></trkpt><trkpt lat="39.47238816" lon="-0.3696333"><ele>-44.8</ele><time>2022-10-30T15:07:59.0000000+00:00</time></trkpt><trkpt lat="39.47238858" lon="-0.36963313"><ele>-44.8</ele><time>2022-10-30T15:08:00.0000000+00:00</time></trkpt><trkpt lat="39.472389" lon="-0.36963271"><ele>-44.8</ele><time>2022-10-30T15:08:01.0000000+00:00</time></trkpt><trkpt lat="39.47238992" lon="-0.36962802"><ele>-44.8</ele><time>2022-10-30T15:08:02.0000000+00:00</time></trkpt><trkpt lat="39.47239185" lon="-0.36962332"><ele>-44.8</ele><time>2022-10-30T15:08:03.0000000+00:00</time></trkpt><trkpt lat="39.47239386" lon="-0.3696188"><ele>-44.8</ele><time>2022-10-30T15:08:04.0000000+00:00</time></trkpt><trkpt lat="39.47239528" lon="-0.36961368"><ele>-44.8</ele><time>2022-10-30T15:08:05.0000000+00:00</time></trkpt><trkpt lat="39.47239528" lon="-0.36961368"><ele>-44.8</ele><time>2022-10-30T15:08:06.0000000+00:00</time></trkpt><trkpt lat="39.47239528" lon="-0.36961368"><ele>-44.8</ele><time>2022-10-30T15:08:07.0000000+00:00</time></trkpt><trkpt lat="39.47239528" lon="-0.36961368"><ele>-44.8</ele><time>2022-10-30T15:08:08.0000000+00:00</time></trkpt><trkpt lat="39.47239528" lon="-0.36961368"><ele>-44.8</ele><time>2022-10-30T15:08:09.0000000+00:00</time></trkpt><trkpt lat="39.47239528" lon="-0.36961368"><ele>-44.8</ele><time>2022-10-30T15:08:10.0000000+00:00</time></trkpt><trkpt lat="39.47239528" lon="-0.36961368"><ele>-44.8</ele><time>2022-10-30T15:08:11.0000000+00:00</time></trkpt><trkpt lat="39.47239528" lon="-0.36959281"><ele>-44.8</ele><time>2022-10-30T15:08:12.0000000+00:00</time></trkpt><trkpt lat="39.47239528" lon="-0.36959097"><ele>-44.8</ele><time>2022-10-30T15:08:13.0000000+00:00</time></trkpt><trkpt lat="39.47239755" lon="-0.36958896"><ele>-44.8</ele><time>2022-10-30T15:08:14.0000000+00:00</time></trkpt><trkpt lat="39.47239772" lon="-0.36958887"><ele>-44.8</ele><time>2022-10-30T15:08:15.0000000+00:00</time></trkpt><trkpt lat="39.47239813" lon="-0.36958887"><ele>-44.8</ele><time>2022-10-30T15:08:16.0000000+00:00</time></trkpt><trkpt lat="39.47239822" lon="-0.36958812"><ele>-44.8</ele><time>2022-10-30T15:08:17.0000000+00:00</time></trkpt><trkpt lat="39.47239914" lon="-0.36958803"><ele>-44.8</ele><time>2022-10-30T15:08:18.0000000+00:00</time></trkpt><trkpt lat="39.47240023" lon="-0.36958736"><ele>-44.8</ele><time>2022-10-30T15:08:19.0000000+00:00</time></trkpt><trkpt lat="39.47240082" lon="-0.36958728"><ele>-44.8</ele><time>2022-10-30T15:08:20.0000000+00:00</time></trkpt><trkpt lat="39.47240149" lon="-0.36958711"><ele>-44.8</ele><time>2022-10-30T15:08:21.0000000+00:00</time></trkpt><trkpt lat="39.472403" lon="-0.36958686"><ele>-44.8</ele><time>2022-10-30T15:08:22.0000000+00:00</time></trkpt><trkpt lat="39.47240316" lon="-0.36958678"><ele>-44.8</ele><time>2022-10-30T15:08:23.0000000+00:00</time></trkpt><trkpt lat="39.47240333" lon="-0.36958627"><ele>-44.8</ele><time>2022-10-30T15:08:24.0000000+00:00</time></trkpt><trkpt lat="39.472404" lon="-0.36958586"><ele>-44.8</ele><time>2022-10-30T15:08:25.0000000+00:00</time></trkpt><trkpt lat="39.47240417" lon="-0.36958577"><ele>-44.8</ele><time>2022-10-30T15:08:26.0000000+00:00</time></trkpt><trkpt lat="39.47240467" lon="-0.36958552"><ele>-44.8</ele><time>2022-10-30T15:08:27.0000000+00:00</time></trkpt><trkpt lat="39.47240476" lon="-0.36958552"><ele>-44.8</ele><time>2022-10-30T15:08:28.0000000+00:00</time></trkpt><trkpt lat="39.47240618" lon="-0.36958544"><ele>-44.8</ele><time>2022-10-30T15:08:29.0000000+00:00</time></trkpt><trkpt lat="39.47240652" lon="-0.36958535"><ele>-44.8</ele><time>2022-10-30T15:08:30.0000000+00:00</time></trkpt><trkpt lat="39.47241255" lon="-0.36958527"><ele>-44.8</ele><time>2022-10-30T15:08:31.0000000+00:00</time></trkpt><trkpt lat="39.47241431" lon="-0.36958493"><ele>-44.8</ele><time>2022-10-30T15:08:32.0000000+00:00</time></trkpt><trkpt lat="39.47241557" lon="-0.36958074"><ele>-44.8</ele><time>2022-10-30T15:08:33.0000000+00:00</time></trkpt><trkpt lat="39.47241582" lon="-0.36957982"><ele>-44.8</ele><time>2022-10-30T15:08:34.0000000+00:00</time></trkpt><trkpt lat="39.47241607" lon="-0.36957932"><ele>-44.8</ele><time>2022-10-30T15:08:35.0000000+00:00</time></trkpt><trkpt lat="39.47241666" lon="-0.36957907"><ele>-44.8</ele><time>2022-10-30T15:08:36.0000000+00:00</time></trkpt><trkpt lat="39.47241892" lon="-0.36957555"><ele>-44.8</ele><time>2022-10-30T15:08:37.0000000+00:00</time></trkpt><trkpt lat="39.4724206" lon="-0.36957504"><ele>-44.8</ele><time>2022-10-30T15:08:38.0000000+00:00</time></trkpt><trkpt lat="39.47242118" lon="-0.36956876"><ele>-44.8</ele><time>2022-10-30T15:08:39.0000000+00:00</time></trkpt><trkpt lat="39.47242127" lon="-0.36956658"><ele>-44.8</ele><time>2022-10-30T15:08:40.0000000+00:00</time></trkpt><trkpt lat="39.47242135" lon="-0.36956255"><ele>-44.8</ele><time>2022-10-30T15:08:41.0000000+00:00</time></trkpt><trkpt lat="39.47242152" lon="-0.36956155"><ele>-44.8</ele><time>2022-10-30T15:08:42.0000000+00:00</time></trkpt><trkpt lat="39.47242177" lon="-0.36956138"><ele>-44.8</ele><time>2022-10-30T15:08:43.0000000+00:00</time></trkpt><trkpt lat="39.47242177" lon="-0.36956054"><ele>-44.8</ele><time>2022-10-30T15:08:44.0000000+00:00</time></trkpt><trkpt lat="39.47242177" lon="-0.36955954"><ele>-44.8</ele><time>2022-10-30T15:08:45.0000000+00:00</time></trkpt><trkpt lat="39.47242177" lon="-0.36955928"><ele>-44.8</ele><time>2022-10-30T15:08:46.0000000+00:00</time></trkpt><trkpt lat="39.47242177" lon="-0.36955912"><ele>-44.8</ele><time>2022-10-30T15:08:47.0000000+00:00</time></trkpt><trkpt lat="39.47242177" lon="-0.36955903"><ele>-44.8</ele><time>2022-10-30T15:08:48.0000000+00:00</time></trkpt><trkpt lat="39.47242211" lon="-0.36955887"><ele>-44.8</ele><time>2022-10-30T15:08:49.0000000+00:00</time></trkpt><trkpt lat="39.47242219" lon="-0.36955887"><ele>-44.8</ele><time>2022-10-30T15:08:50.0000000+00:00</time></trkpt><trkpt lat="39.47242219" lon="-0.36955845"><ele>-44.8</ele><time>2022-10-30T15:08:51.0000000+00:00</time></trkpt><trkpt lat="39.47242219" lon="-0.36955769"><ele>-44.8</ele><time>2022-10-30T15:08:52.0000000+00:00</time></trkpt><trkpt lat="39.47242219" lon="-0.36955727"><ele>-44.8</ele><time>2022-10-30T15:08:53.0000000+00:00</time></trkpt><trkpt lat="39.47242219" lon="-0.36955694"><ele>-44.8</ele><time>2022-10-30T15:08:54.0000000+00:00</time></trkpt><trkpt lat="39.47242219" lon="-0.36955618"><ele>-44.8</ele><time>2022-10-30T15:08:55.0000000+00:00</time></trkpt><trkpt lat="39.47242194" lon="-0.36955593"><ele>-44.8</ele><time>2022-10-30T15:08:56.0000000+00:00</time></trkpt><trkpt lat="39.4724216" lon="-0.36955551"><ele>-44.8</ele><time>2022-10-30T15:08:57.0000000+00:00</time></trkpt><trkpt lat="39.47242144" lon="-0.36955518"><ele>-44.8</ele><time>2022-10-30T15:08:58.0000000+00:00</time></trkpt><trkpt lat="39.47242135" lon="-0.36955509"><ele>-44.8</ele><time>2022-10-30T15:08:59.0000000+00:00</time></trkpt><trkpt lat="39.47242127" lon="-0.36955467"><ele>-44.8</ele><time>2022-10-30T15:09:00.0000000+00:00</time></trkpt><trkpt lat="39.47242068" lon="-0.36955459"><ele>-44.8</ele><time>2022-10-30T15:09:01.0000000+00:00</time></trkpt><trkpt lat="39.47241993" lon="-0.36955459"><ele>-44.8</ele><time>2022-10-30T15:09:02.0000000+00:00</time></trkpt><trkpt lat="39.47241951" lon="-0.36955459"><ele>-44.8</ele><time>2022-10-30T15:09:03.0000000+00:00</time></trkpt><trkpt lat="39.47241766" lon="-0.3695587"><ele>-44.8</ele><time>2022-10-30T15:09:04.0000000+00:00</time></trkpt><trkpt lat="39.47241289" lon="-0.36956281"><ele>-44.8</ele><time>2022-10-30T15:09:05.0000000+00:00</time></trkpt><trkpt lat="39.4724097" lon="-0.36956809"><ele>-44.8</ele><time>2022-10-30T15:09:06.0000000+00:00</time></trkpt><trkpt lat="39.47240744" lon="-0.36957555"><ele>-44.8</ele><time>2022-10-30T15:09:07.0000000+00:00</time></trkpt><trkpt lat="39.47240518" lon="-0.36958158"><ele>-44.8</ele><time>2022-10-30T15:09:08.0000000+00:00</time></trkpt><trkpt lat="39.47240518" lon="-0.36958158"><ele>-44.8</ele><time>2022-10-30T15:09:09.0000000+00:00</time></trkpt><trkpt lat="39.47240518" lon="-0.36958158"><ele>-44.8</ele><time>2022-10-30T15:09:10.0000000+00:00</time></trkpt><trkpt lat="39.47240518" lon="-0.36958158"><ele>-44.8</ele><time>2022-10-30T15:09:11.0000000+00:00</time></trkpt><trkpt lat="39.47240518" lon="-0.36958158"><ele>-44.8</ele><time>2022-10-30T15:09:12.0000000+00:00</time></trkpt><trkpt lat="39.47240518" lon="-0.36958158"><ele>-44.8</ele><time>2022-10-30T15:09:13.0000000+00:00</time></trkpt><trkpt lat="39.47240518" lon="-0.36958158"><ele>-44.8</ele><time>2022-10-30T15:09:14.0000000+00:00</time></trkpt><trkpt lat="39.47240518" lon="-0.36958158"><ele>-44.8</ele><time>2022-10-30T15:09:15.0000000+00:00</time></trkpt><trkpt lat="39.47240518" lon="-0.36958158"><ele>-44.8</ele><time>2022-10-30T15:09:16.0000000+00:00</time></trkpt><trkpt lat="39.47240518" lon="-0.36958158"><ele>-44.8</ele><time>2022-10-30T15:09:17.0000000+00:00</time></trkpt><trkpt lat="39.47240358" lon="-0.36958703"><ele>-44.8</ele><time>2022-10-30T15:09:18.0000000+00:00</time></trkpt><trkpt lat="39.47240149" lon="-0.36959566"><ele>-44.8</ele><time>2022-10-30T15:09:19.0000000+00:00</time></trkpt><trkpt lat="39.47240124" lon="-0.36959617"><ele>-44.8</ele><time>2022-10-30T15:09:20.0000000+00:00</time></trkpt><trkpt lat="39.4724004" lon="-0.36959717"><ele>-44.8</ele><time>2022-10-30T15:09:21.0000000+00:00</time></trkpt><trkpt lat="39.47240023" lon="-0.36960036"><ele>-44.8</ele><time>2022-10-30T15:09:22.0000000+00:00</time></trkpt><trkpt lat="39.47239973" lon="-0.36960203"><ele>-44.8</ele><time>2022-10-30T15:09:23.0000000+00:00</time></trkpt><trkpt lat="39.47239948" lon="-0.36960237"><ele>-44.8</ele><time>2022-10-30T15:09:24.0000000+00:00</time></trkpt><trkpt lat="39.47239839" lon="-0.36960555"><ele>-44.8</ele><time>2022-10-30T15:09:25.0000000+00:00</time></trkpt><trkpt lat="39.47239822" lon="-0.36960614"><ele>-44.8</ele><time>2022-10-30T15:09:26.0000000+00:00</time></trkpt><trkpt lat="39.47239704" lon="-0.36960765"><ele>-44.8</ele><time>2022-10-30T15:09:27.0000000+00:00</time></trkpt><trkpt lat="39.47239654" lon="-0.36960798"><ele>-44.8</ele><time>2022-10-30T15:09:28.0000000+00:00</time></trkpt><trkpt lat="39.47239646" lon="-0.36960874"><ele>-44.8</ele><time>2022-10-30T15:09:29.0000000+00:00</time></trkpt><trkpt lat="39.47239646" lon="-0.36960907"><ele>-44.8</ele><time>2022-10-30T15:09:30.0000000+00:00</time></trkpt><trkpt lat="39.47239646" lon="-0.36960941"><ele>-44.8</ele><time>2022-10-30T15:09:31.0000000+00:00</time></trkpt><trkpt lat="39.47239646" lon="-0.36961"><ele>-44.8</ele><time>2022-10-30T15:09:32.0000000+00:00</time></trkpt><trkpt lat="39.47239646" lon="-0.3696105"><ele>-44.8</ele><time>2022-10-30T15:09:33.0000000+00:00</time></trkpt><trkpt lat="39.47239646" lon="-0.36961159"><ele>-44.8</ele><time>2022-10-30T15:09:34.0000000+00:00</time></trkpt><trkpt lat="39.47239637" lon="-0.36961167"><ele>-44.8</ele><time>2022-10-30T15:09:35.0000000+00:00</time></trkpt><trkpt lat="39.47239637" lon="-0.36961192"><ele>-44.8</ele><time>2022-10-30T15:09:36.0000000+00:00</time></trkpt><trkpt lat="39.47239629" lon="-0.36961209"><ele>-44.8</ele><time>2022-10-30T15:09:37.0000000+00:00</time></trkpt><trkpt lat="39.47239629" lon="-0.36961234"><ele>-44.8</ele><time>2022-10-30T15:09:38.0000000+00:00</time></trkpt><trkpt lat="39.47239629" lon="-0.36961251"><ele>-44.8</ele><time>2022-10-30T15:09:39.0000000+00:00</time></trkpt><trkpt lat="39.47239629" lon="-0.36961259"><ele>-44.8</ele><time>2022-10-30T15:09:40.0000000+00:00</time></trkpt><trkpt lat="39.47239621" lon="-0.36961268"><ele>-44.8</ele><time>2022-10-30T15:09:41.0000000+00:00</time></trkpt><trkpt lat="39.47239612" lon="-0.36961301"><ele>-44.8</ele><time>2022-10-30T15:09:42.0000000+00:00</time></trkpt><trkpt lat="39.47239612" lon="-0.36961301"><ele>-44.8</ele><time>2022-10-30T15:09:43.0000000+00:00</time></trkpt><trkpt lat="39.47239612" lon="-0.36961326"><ele>-44.8</ele><time>2022-10-30T15:09:44.0000000+00:00</time></trkpt><trkpt lat="39.47239612" lon="-0.36961343"><ele>-44.8</ele><time>2022-10-30T15:09:45.0000000+00:00</time></trkpt><trkpt lat="39.47239612" lon="-0.36961377"><ele>-44.8</ele><time>2022-10-30T15:09:46.0000000+00:00</time></trkpt><trkpt lat="39.47239612" lon="-0.36961393"><ele>-44.8</ele><time>2022-10-30T15:09:47.0000000+00:00</time></trkpt><trkpt lat="39.47239612" lon="-0.36961393"><ele>-44.8</ele><time>2022-10-30T15:09:48.0000000+00:00</time></trkpt><trkpt lat="39.47239612" lon="-0.3696141"><ele>-44.8</ele><time>2022-10-30T15:09:49.0000000+00:00</time></trkpt><trkpt lat="39.47239612" lon="-0.36961469"><ele>-44.8</ele><time>2022-10-30T15:09:50.0000000+00:00</time></trkpt><trkpt lat="39.47239612" lon="-0.36961486"><ele>-44.8</ele><time>2022-10-30T15:09:51.0000000+00:00</time></trkpt><trkpt lat="39.47239612" lon="-0.36961528"><ele>-44.8</ele><time>2022-10-30T15:09:52.0000000+00:00</time></trkpt><trkpt lat="39.4723952" lon="-0.36962198"><ele>-44.8</ele><time>2022-10-30T15:09:53.0000000+00:00</time></trkpt><trkpt lat="39.47239369" lon="-0.36962986"><ele>-44.8</ele><time>2022-10-30T15:09:54.0000000+00:00</time></trkpt><trkpt lat="39.47238757" lon="-0.36965073"><ele>-44.8</ele><time>2022-10-30T15:09:55.0000000+00:00</time></trkpt><trkpt lat="39.47238422" lon="-0.36965962"><ele>-44.8</ele><time>2022-10-30T15:09:56.0000000+00:00</time></trkpt><trkpt lat="39.47238137" lon="-0.36966314"><ele>-44.8</ele><time>2022-10-30T15:09:57.0000000+00:00</time></trkpt><trkpt lat="39.47237886" lon="-0.36966951"><ele>-44.8</ele><time>2022-10-30T15:09:58.0000000+00:00</time></trkpt><trkpt lat="39.47237651" lon="-0.36967571"><ele>-44.8</ele><time>2022-10-30T15:09:59.0000000+00:00</time></trkpt><trkpt lat="39.47237592" lon="-0.36968082"><ele>-44.8</ele><time>2022-10-30T15:10:00.0000000+00:00</time></trkpt><trkpt lat="39.47237693" lon="-0.36968686"><ele>-44.8</ele><time>2022-10-30T15:10:01.0000000+00:00</time></trkpt><trkpt lat="39.47237751" lon="-0.36969557"><ele>-44.8</ele><time>2022-10-30T15:10:02.0000000+00:00</time></trkpt><trkpt lat="39.47237902" lon="-0.36969717"><ele>-44.8</ele><time>2022-10-30T15:10:03.0000000+00:00</time></trkpt><trkpt lat="39.47238087" lon="-0.36969742"><ele>-44.8</ele><time>2022-10-30T15:10:04.0000000+00:00</time></trkpt><trkpt lat="39.47238179" lon="-0.36969708"><ele>-44.8</ele><time>2022-10-30T15:10:05.0000000+00:00</time></trkpt><trkpt lat="39.47238229" lon="-0.36969692"><ele>-44.8</ele><time>2022-10-30T15:10:06.0000000+00:00</time></trkpt><trkpt lat="39.47238229" lon="-0.36969767"><ele>-44.8</ele><time>2022-10-30T15:10:07.0000000+00:00</time></trkpt><trkpt lat="39.47238179" lon="-0.36969943"><ele>-44.8</ele><time>2022-10-30T15:10:08.0000000+00:00</time></trkpt><trkpt lat="39.4723812" lon="-0.36969977"><ele>-44.8</ele><time>2022-10-30T15:10:09.0000000+00:00</time></trkpt><trkpt lat="39.47238028" lon="-0.36969901"><ele>-44.8</ele><time>2022-10-30T15:10:10.0000000+00:00</time></trkpt><trkpt lat="39.47238011" lon="-0.36969775"><ele>-44.8</ele><time>2022-10-30T15:10:11.0000000+00:00</time></trkpt><trkpt lat="39.47238011" lon="-0.36969775"><ele>-44.8</ele><time>2022-10-30T15:10:12.0000000+00:00</time></trkpt><trkpt lat="39.47238011" lon="-0.36969775"><ele>-44.8</ele><time>2022-10-30T15:10:13.0000000+00:00</time></trkpt><trkpt lat="39.47238011" lon="-0.36969775"><ele>-44.8</ele><time>2022-10-30T15:10:14.0000000+00:00</time></trkpt><trkpt lat="39.47238011" lon="-0.36969775"><ele>-44.8</ele><time>2022-10-30T15:10:15.0000000+00:00</time></trkpt><trkpt lat="39.47238011" lon="-0.36969775"><ele>-44.8</ele><time>2022-10-30T15:10:16.0000000+00:00</time></trkpt><trkpt lat="39.47238011" lon="-0.36969775"><ele>-44.8</ele><time>2022-10-30T15:10:17.0000000+00:00</time></trkpt><trkpt lat="39.47238011" lon="-0.36969775"><ele>-44.8</ele><time>2022-10-30T15:10:18.0000000+00:00</time></trkpt><trkpt lat="39.47238011" lon="-0.36969775"><ele>-44.8</ele><time>2022-10-30T15:10:19.0000000+00:00</time></trkpt><trkpt lat="39.47238011" lon="-0.36969775"><ele>-44.8</ele><time>2022-10-30T15:10:20.0000000+00:00</time></trkpt><trkpt lat="39.47238011" lon="-0.36969775"><ele>-44.8</ele><time>2022-10-30T15:10:21.0000000+00:00</time></trkpt><trkpt lat="39.47238011" lon="-0.36969767"><ele>-44.8</ele><time>2022-10-30T15:10:22.0000000+00:00</time></trkpt><trkpt lat="39.47238011" lon="-0.36969742"><ele>-44.8</ele><time>2022-10-30T15:10:23.0000000+00:00</time></trkpt><trkpt lat="39.47238011" lon="-0.36969717"><ele>-44.8</ele><time>2022-10-30T15:10:24.0000000+00:00</time></trkpt><trkpt lat="39.47238011" lon="-0.36969708"><ele>-44.8</ele><time>2022-10-30T15:10:25.0000000+00:00</time></trkpt><trkpt lat="39.47238011" lon="-0.369697"><ele>-44.8</ele><time>2022-10-30T15:10:26.0000000+00:00</time></trkpt><trkpt lat="39.47238011" lon="-0.36969692"><ele>-44.8</ele><time>2022-10-30T15:10:27.0000000+00:00</time></trkpt><trkpt lat="39.47238011" lon="-0.36969541"><ele>-44.8</ele><time>2022-10-30T15:10:28.0000000+00:00</time></trkpt><trkpt lat="39.4723802" lon="-0.36969499"><ele>-44.8</ele><time>2022-10-30T15:10:29.0000000+00:00</time></trkpt><trkpt lat="39.47238028" lon="-0.36969423"><ele>-44.8</ele><time>2022-10-30T15:10:30.0000000+00:00</time></trkpt><trkpt lat="39.47238062" lon="-0.36969415"><ele>-44.8</ele><time>2022-10-30T15:10:31.0000000+00:00</time></trkpt><trkpt lat="39.4723807" lon="-0.36969289"><ele>-44.8</ele><time>2022-10-30T15:10:32.0000000+00:00</time></trkpt><trkpt lat="39.47238087" lon="-0.36969256"><ele>-44.8</ele><time>2022-10-30T15:10:33.0000000+00:00</time></trkpt><trkpt lat="39.4723812" lon="-0.3696913"><ele>-44.8</ele><time>2022-10-30T15:10:34.0000000+00:00</time></trkpt><trkpt lat="39.4723812" lon="-0.36969105"><ele>-44.8</ele><time>2022-10-30T15:10:35.0000000+00:00</time></trkpt><trkpt lat="39.4723812" lon="-0.36969096"><ele>-44.8</ele><time>2022-10-30T15:10:36.0000000+00:00</time></trkpt><trkpt lat="39.4723812" lon="-0.36969055"><ele>-44.8</ele><time>2022-10-30T15:10:37.0000000+00:00</time></trkpt><trkpt lat="39.4723812" lon="-0.36969004"><ele>-44.8</ele><time>2022-10-30T15:10:38.0000000+00:00</time></trkpt><trkpt lat="39.47238129" lon="-0.36968962"><ele>-44.8</ele><time>2022-10-30T15:10:39.0000000+00:00</time></trkpt><trkpt lat="39.47238129" lon="-0.36968954"><ele>-44.8</ele><time>2022-10-30T15:10:40.0000000+00:00</time></trkpt><trkpt lat="39.47238145" lon="-0.36968946"><ele>-44.8</ele><time>2022-10-30T15:10:41.0000000+00:00</time></trkpt><trkpt lat="39.47238145" lon="-0.36968837"><ele>-44.8</ele><time>2022-10-30T15:10:42.0000000+00:00</time></trkpt><trkpt lat="39.47238145" lon="-0.36968811"><ele>-44.8</ele><time>2022-10-30T15:10:43.0000000+00:00</time></trkpt><trkpt lat="39.47238145" lon="-0.36968778"><ele>-44.8</ele><time>2022-10-30T15:10:44.0000000+00:00</time></trkpt><trkpt lat="39.47238145" lon="-0.36968711"><ele>-44.8</ele><time>2022-10-30T15:10:45.0000000+00:00</time></trkpt><trkpt lat="39.47238145" lon="-0.36968635"><ele>-44.8</ele><time>2022-10-30T15:10:46.0000000+00:00</time></trkpt><trkpt lat="39.47238145" lon="-0.36968577"><ele>-44.8</ele><time>2022-10-30T15:10:47.0000000+00:00</time></trkpt><trkpt lat="39.47238145" lon="-0.36968552"><ele>-44.8</ele><time>2022-10-30T15:10:48.0000000+00:00</time></trkpt><trkpt lat="39.47238145" lon="-0.36968543"><ele>-44.8</ele><time>2022-10-30T15:10:49.0000000+00:00</time></trkpt><trkpt lat="39.47238145" lon="-0.36968501"><ele>-44.8</ele><time>2022-10-30T15:10:50.0000000+00:00</time></trkpt><trkpt lat="39.47238145" lon="-0.36968485"><ele>-44.8</ele><time>2022-10-30T15:10:51.0000000+00:00</time></trkpt><trkpt lat="39.47238145" lon="-0.36968451"><ele>-44.8</ele><time>2022-10-30T15:10:52.0000000+00:00</time></trkpt><trkpt lat="39.47238145" lon="-0.36968409"><ele>-44.8</ele><time>2022-10-30T15:10:53.0000000+00:00</time></trkpt><trkpt lat="39.47238145" lon="-0.36968317"><ele>-44.8</ele><time>2022-10-30T15:10:54.0000000+00:00</time></trkpt><trkpt lat="39.47238145" lon="-0.36968258"><ele>-44.8</ele><time>2022-10-30T15:10:55.0000000+00:00</time></trkpt><trkpt lat="39.47238078" lon="-0.36968191"><ele>-44.8</ele><time>2022-10-30T15:10:56.0000000+00:00</time></trkpt><trkpt lat="39.4723807" lon="-0.36968124"><ele>-44.8</ele><time>2022-10-30T15:10:57.0000000+00:00</time></trkpt><trkpt lat="39.47238062" lon="-0.36968057"><ele>-44.8</ele><time>2022-10-30T15:10:58.0000000+00:00</time></trkpt><trkpt lat="39.47238062" lon="-0.36968032"><ele>-44.8</ele><time>2022-10-30T15:10:59.0000000+00:00</time></trkpt><trkpt lat="39.47238062" lon="-0.36968024"><ele>-44.8</ele><time>2022-10-30T15:11:00.0000000+00:00</time></trkpt><trkpt lat="39.47238062" lon="-0.36968007"><ele>-44.8</ele><time>2022-10-30T15:11:01.0000000+00:00</time></trkpt><trkpt lat="39.47238062" lon="-0.36967948"><ele>-44.8</ele><time>2022-10-30T15:11:02.0000000+00:00</time></trkpt><trkpt lat="39.47238062" lon="-0.3696794"><ele>-44.8</ele><time>2022-10-30T15:11:03.0000000+00:00</time></trkpt><trkpt lat="39.47238062" lon="-0.36967755"><ele>-44.8</ele><time>2022-10-30T15:11:04.0000000+00:00</time></trkpt><trkpt lat="39.47238062" lon="-0.36967613"><ele>-44.8</ele><time>2022-10-30T15:11:05.0000000+00:00</time></trkpt><trkpt lat="39.47238062" lon="-0.36967571"><ele>-44.8</ele><time>2022-10-30T15:11:06.0000000+00:00</time></trkpt><trkpt lat="39.47238062" lon="-0.36967529"><ele>-44.8</ele><time>2022-10-30T15:11:07.0000000+00:00</time></trkpt><trkpt lat="39.47238062" lon="-0.36967512"><ele>-44.8</ele><time>2022-10-30T15:11:08.0000000+00:00</time></trkpt><trkpt lat="39.47238062" lon="-0.36967496"><ele>-44.8</ele><time>2022-10-30T15:11:09.0000000+00:00</time></trkpt><trkpt lat="39.47238045" lon="-0.36967487"><ele>-44.8</ele><time>2022-10-30T15:11:10.0000000+00:00</time></trkpt><trkpt lat="39.47238036" lon="-0.36967428"><ele>-44.8</ele><time>2022-10-30T15:11:11.0000000+00:00</time></trkpt><trkpt lat="39.47238036" lon="-0.36967336"><ele>-44.8</ele><time>2022-10-30T15:11:12.0000000+00:00</time></trkpt><trkpt lat="39.47238053" lon="-0.36967311"><ele>-44.8</ele><time>2022-10-30T15:11:13.0000000+00:00</time></trkpt><trkpt lat="39.47238229" lon="-0.36967378"><ele>-44.8</ele><time>2022-10-30T15:11:14.0000000+00:00</time></trkpt><trkpt lat="39.47239" lon="-0.36967806"><ele>-44.8</ele><time>2022-10-30T15:11:15.0000000+00:00</time></trkpt><trkpt lat="39.47238791" lon="-0.36967822"><ele>-44.8</ele><time>2022-10-30T15:11:16.0000000+00:00</time></trkpt><trkpt lat="39.47239269" lon="-0.36968174"><ele>-44.8</ele><time>2022-10-30T15:11:17.0000000+00:00</time></trkpt><trkpt lat="39.47239344" lon="-0.36968065"><ele>-44.8</ele><time>2022-10-30T15:11:18.0000000+00:00</time></trkpt><trkpt lat="39.47239864" lon="-0.36968116"><ele>-44.8</ele><time>2022-10-30T15:11:19.0000000+00:00</time></trkpt><trkpt lat="39.47239914" lon="-0.36967998"><ele>-44.8</ele><time>2022-10-30T15:11:20.0000000+00:00</time></trkpt><trkpt lat="39.47240107" lon="-0.36968669"><ele>-44.8</ele><time>2022-10-30T15:11:21.0000000+00:00</time></trkpt><trkpt lat="39.47240023" lon="-0.36968669"><ele>-44.8</ele><time>2022-10-30T15:11:22.0000000+00:00</time></trkpt><trkpt lat="39.47240249" lon="-0.36969775"><ele>-44.8</ele><time>2022-10-30T15:11:23.0000000+00:00</time></trkpt><trkpt lat="39.47241121" lon="-0.36971301"><ele>-44.8</ele><time>2022-10-30T15:11:24.0000000+00:00</time></trkpt><trkpt lat="39.47241188" lon="-0.36971946"><ele>-44.8</ele><time>2022-10-30T15:11:25.0000000+00:00</time></trkpt><trkpt lat="39.4724154" lon="-0.36972508"><ele>-44.8</ele><time>2022-10-30T15:11:26.0000000+00:00</time></trkpt><trkpt lat="39.47242085" lon="-0.36972843"><ele>-44.8</ele><time>2022-10-30T15:11:27.0000000+00:00</time></trkpt><trkpt lat="39.47242035" lon="-0.36973069"><ele>-44.8</ele><time>2022-10-30T15:11:28.0000000+00:00</time></trkpt><trkpt lat="39.47241968" lon="-0.36973254"><ele>-44.8</ele><time>2022-10-30T15:11:29.0000000+00:00</time></trkpt><trkpt lat="39.47241825" lon="-0.36973732"><ele>-44.8</ele><time>2022-10-30T15:11:30.0000000+00:00</time></trkpt><trkpt lat="39.47241699" lon="-0.36974151"><ele>-44.8</ele><time>2022-10-30T15:11:31.0000000+00:00</time></trkpt><trkpt lat="39.47241951" lon="-0.36974754"><ele>-44.8</ele><time>2022-10-30T15:11:32.0000000+00:00</time></trkpt><trkpt lat="39.47242261" lon="-0.36975299"><ele>-44.8</ele><time>2022-10-30T15:11:33.0000000+00:00</time></trkpt><trkpt lat="39.47242202" lon="-0.36975509"><ele>-44.8</ele><time>2022-10-30T15:11:34.0000000+00:00</time></trkpt><trkpt lat="39.47241775" lon="-0.3697488"><ele>-44.8</ele><time>2022-10-30T15:11:35.0000000+00:00</time></trkpt><trkpt lat="39.47241565" lon="-0.36974947"><ele>-44.8</ele><time>2022-10-30T15:11:36.0000000+00:00</time></trkpt><trkpt lat="39.47241414" lon="-0.36975157"><ele>-44.8</ele><time>2022-10-30T15:11:37.0000000+00:00</time></trkpt><trkpt lat="39.47241481" lon="-0.36975215"><ele>-44.8</ele><time>2022-10-30T15:11:38.0000000+00:00</time></trkpt><trkpt lat="39.47241481" lon="-0.36975266"><ele>-44.8</ele><time>2022-10-30T15:11:39.0000000+00:00</time></trkpt><trkpt lat="39.47241481" lon="-0.36975467"><ele>-44.8</ele><time>2022-10-30T15:11:40.0000000+00:00</time></trkpt><trkpt lat="39.47241574" lon="-0.36975743"><ele>-44.8</ele><time>2022-10-30T15:11:41.0000000+00:00</time></trkpt><trkpt lat="39.47241666" lon="-0.36975869"><ele>-44.8</ele><time>2022-10-30T15:11:42.0000000+00:00</time></trkpt><trkpt lat="39.47241582" lon="-0.36975861"><ele>-44.8</ele><time>2022-10-30T15:11:43.0000000+00:00</time></trkpt><trkpt lat="39.47241582" lon="-0.36975861"><ele>-44.8</ele><time>2022-10-30T15:11:44.0000000+00:00</time></trkpt><trkpt lat="39.47241582" lon="-0.36975861"><ele>-44.8</ele><time>2022-10-30T15:11:45.0000000+00:00</time></trkpt><trkpt lat="39.47241582" lon="-0.36975861"><ele>-44.8</ele><time>2022-10-30T15:11:46.0000000+00:00</time></trkpt><trkpt lat="39.47241582" lon="-0.36975861"><ele>-44.8</ele><time>2022-10-30T15:11:47.0000000+00:00</time></trkpt><trkpt lat="39.47241582" lon="-0.36975861"><ele>-44.8</ele><time>2022-10-30T15:11:48.0000000+00:00</time></trkpt><trkpt lat="39.47241582" lon="-0.36975861"><ele>-44.8</ele><time>2022-10-30T15:11:49.0000000+00:00</time></trkpt><trkpt lat="39.47241582" lon="-0.36975861"><ele>-44.8</ele><time>2022-10-30T15:11:50.0000000+00:00</time></trkpt><trkpt lat="39.47241582" lon="-0.36975861"><ele>-44.8</ele><time>2022-10-30T15:11:51.0000000+00:00</time></trkpt><trkpt lat="39.47241582" lon="-0.36975743"><ele>-44.8</ele><time>2022-10-30T15:11:52.0000000+00:00</time></trkpt><trkpt lat="39.47241582" lon="-0.3697571"><ele>-44.8</ele><time>2022-10-30T15:11:53.0000000+00:00</time></trkpt><trkpt lat="39.47241582" lon="-0.36975592"><ele>-44.8</ele><time>2022-10-30T15:11:54.0000000+00:00</time></trkpt><trkpt lat="39.47241582" lon="-0.36975467"><ele>-44.8</ele><time>2022-10-30T15:11:55.0000000+00:00</time></trkpt><trkpt lat="39.47241582" lon="-0.36975366"><ele>-44.8</ele><time>2022-10-30T15:11:56.0000000+00:00</time></trkpt><trkpt lat="39.47241582" lon="-0.36975316"><ele>-44.8</ele><time>2022-10-30T15:11:57.0000000+00:00</time></trkpt><trkpt lat="39.47241649" lon="-0.36975266"><ele>-44.8</ele><time>2022-10-30T15:11:58.0000000+00:00</time></trkpt><trkpt lat="39.47241666" lon="-0.36975215"><ele>-44.8</ele><time>2022-10-30T15:11:59.0000000+00:00</time></trkpt><trkpt lat="39.47241699" lon="-0.36975165"><ele>-44.8</ele><time>2022-10-30T15:12:00.0000000+00:00</time></trkpt><trkpt lat="39.47241766" lon="-0.36974972"><ele>-44.8</ele><time>2022-10-30T15:12:01.0000000+00:00</time></trkpt><trkpt lat="39.472418" lon="-0.36974947"><ele>-44.8</ele><time>2022-10-30T15:12:02.0000000+00:00</time></trkpt><trkpt lat="39.47241817" lon="-0.36974913"><ele>-44.8</ele><time>2022-10-30T15:12:03.0000000+00:00</time></trkpt><trkpt lat="39.47241901" lon="-0.36974888"><ele>-44.8</ele><time>2022-10-30T15:12:04.0000000+00:00</time></trkpt><trkpt lat="39.47241976" lon="-0.36974888"><ele>-44.8</ele><time>2022-10-30T15:12:05.0000000+00:00</time></trkpt><trkpt lat="39.47242018" lon="-0.3697488"><ele>-44.8</ele><time>2022-10-30T15:12:06.0000000+00:00</time></trkpt><trkpt lat="39.47242026" lon="-0.36974863"><ele>-44.8</ele><time>2022-10-30T15:12:07.0000000+00:00</time></trkpt><trkpt lat="39.47242026" lon="-0.36974855"><ele>-44.8</ele><time>2022-10-30T15:12:08.0000000+00:00</time></trkpt><trkpt lat="39.47242035" lon="-0.36974536"><ele>-44.8</ele><time>2022-10-30T15:12:09.0000000+00:00</time></trkpt><trkpt lat="39.47242093" lon="-0.36974494"><ele>-44.8</ele><time>2022-10-30T15:12:10.0000000+00:00</time></trkpt><trkpt lat="39.47242152" lon="-0.36974318"><ele>-44.8</ele><time>2022-10-30T15:12:11.0000000+00:00</time></trkpt><trkpt lat="39.47242219" lon="-0.36973883"><ele>-44.8</ele><time>2022-10-30T15:12:12.0000000+00:00</time></trkpt><trkpt lat="39.47242227" lon="-0.36973396"><ele>-44.8</ele><time>2022-10-30T15:12:13.0000000+00:00</time></trkpt><trkpt lat="39.47242227" lon="-0.36973212"><ele>-44.8</ele><time>2022-10-30T15:12:14.0000000+00:00</time></trkpt><trkpt lat="39.47242227" lon="-0.36973137"><ele>-44.8</ele><time>2022-10-30T15:12:15.0000000+00:00</time></trkpt><trkpt lat="39.47242227" lon="-0.36972474"><ele>-44.8</ele><time>2022-10-30T15:12:16.0000000+00:00</time></trkpt><trkpt lat="39.47242227" lon="-0.36972315"><ele>-44.8</ele><time>2022-10-30T15:12:17.0000000+00:00</time></trkpt><trkpt lat="39.47242227" lon="-0.36972231"><ele>-44.8</ele><time>2022-10-30T15:12:18.0000000+00:00</time></trkpt><trkpt lat="39.47242227" lon="-0.36971443"><ele>-44.8</ele><time>2022-10-30T15:12:19.0000000+00:00</time></trkpt><trkpt lat="39.47242227" lon="-0.36971175"><ele>-44.8</ele><time>2022-10-30T15:12:20.0000000+00:00</time></trkpt><trkpt lat="39.47242227" lon="-0.36971049"><ele>-44.8</ele><time>2022-10-30T15:12:21.0000000+00:00</time></trkpt><trkpt lat="39.47242227" lon="-0.36971033"><ele>-44.8</ele><time>2022-10-30T15:12:22.0000000+00:00</time></trkpt><trkpt lat="39.47242219" lon="-0.36970999"><ele>-44.8</ele><time>2022-10-30T15:12:23.0000000+00:00</time></trkpt><trkpt lat="39.47242219" lon="-0.36970949"><ele>-44.8</ele><time>2022-10-30T15:12:24.0000000+00:00</time></trkpt><trkpt lat="39.47242219" lon="-0.36970924"><ele>-44.8</ele><time>2022-10-30T15:12:25.0000000+00:00</time></trkpt><trkpt lat="39.47242219" lon="-0.36970865"><ele>-44.8</ele><time>2022-10-30T15:12:26.0000000+00:00</time></trkpt><trkpt lat="39.47242219" lon="-0.36970823"><ele>-44.8</ele><time>2022-10-30T15:12:27.0000000+00:00</time></trkpt><trkpt lat="39.47242186" lon="-0.36970798"><ele>-44.8</ele><time>2022-10-30T15:12:28.0000000+00:00</time></trkpt><trkpt lat="39.47242135" lon="-0.36970781"><ele>-44.8</ele><time>2022-10-30T15:12:29.0000000+00:00</time></trkpt><trkpt lat="39.47241942" lon="-0.36970773"><ele>-44.8</ele><time>2022-10-30T15:12:30.0000000+00:00</time></trkpt><trkpt lat="39.47241901" lon="-0.36970764"><ele>-44.8</ele><time>2022-10-30T15:12:31.0000000+00:00</time></trkpt><trkpt lat="39.47241884" lon="-0.36970739"><ele>-44.8</ele><time>2022-10-30T15:12:32.0000000+00:00</time></trkpt><trkpt lat="39.47241833" lon="-0.36970739"><ele>-44.8</ele><time>2022-10-30T15:12:33.0000000+00:00</time></trkpt><trkpt lat="39.47241817" lon="-0.36970739"><ele>-44.8</ele><time>2022-10-30T15:12:34.0000000+00:00</time></trkpt><trkpt lat="39.472418" lon="-0.36970739"><ele>-44.8</ele><time>2022-10-30T15:12:35.0000000+00:00</time></trkpt><trkpt lat="39.47241741" lon="-0.36970739"><ele>-44.8</ele><time>2022-10-30T15:12:36.0000000+00:00</time></trkpt><trkpt lat="39.47241725" lon="-0.36970748"><ele>-44.8</ele><time>2022-10-30T15:12:37.0000000+00:00</time></trkpt><trkpt lat="39.47241683" lon="-0.36970764"><ele>-44.8</ele><time>2022-10-30T15:12:38.0000000+00:00</time></trkpt><trkpt lat="39.47241657" lon="-0.36970773"><ele>-44.8</ele><time>2022-10-30T15:12:39.0000000+00:00</time></trkpt><trkpt lat="39.47241507" lon="-0.36970832"><ele>-44.8</ele><time>2022-10-30T15:12:40.0000000+00:00</time></trkpt><trkpt lat="39.47240962" lon="-0.36970764"><ele>-44.8</ele><time>2022-10-30T15:12:41.0000000+00:00</time></trkpt><trkpt lat="39.47240601" lon="-0.36970664"><ele>-44.8</ele><time>2022-10-30T15:12:42.0000000+00:00</time></trkpt><trkpt lat="39.47240501" lon="-0.36970622"><ele>-44.8</ele><time>2022-10-30T15:12:43.0000000+00:00</time></trkpt><trkpt lat="39.47239562" lon="-0.36970119"><ele>-44.8</ele><time>2022-10-30T15:12:44.0000000+00:00</time></trkpt><trkpt lat="39.4723833" lon="-0.36968887"><ele>-44.8</ele><time>2022-10-30T15:12:45.0000000+00:00</time></trkpt><trkpt lat="39.4723786" lon="-0.36968091"><ele>-44.8</ele><time>2022-10-30T15:12:46.0000000+00:00</time></trkpt><trkpt lat="39.4723776" lon="-0.36968191"><ele>-44.8</ele><time>2022-10-30T15:12:47.0000000+00:00</time></trkpt><trkpt lat="39.47237676" lon="-0.36968979"><ele>-44.8</ele><time>2022-10-30T15:12:48.0000000+00:00</time></trkpt><trkpt lat="39.47237383" lon="-0.36969532"><ele>-44.8</ele><time>2022-10-30T15:12:49.0000000+00:00</time></trkpt><trkpt lat="39.47237366" lon="-0.36969717"><ele>-44.8</ele><time>2022-10-30T15:12:50.0000000+00:00</time></trkpt><trkpt lat="39.47237601" lon="-0.36969172"><ele>-44.8</ele><time>2022-10-30T15:12:51.0000000+00:00</time></trkpt><trkpt lat="39.47237743" lon="-0.36969122"><ele>-44.8</ele><time>2022-10-30T15:12:52.0000000+00:00</time></trkpt><trkpt lat="39.47237634" lon="-0.36969029"><ele>-44.8</ele><time>2022-10-30T15:12:53.0000000+00:00</time></trkpt><trkpt lat="39.47237684" lon="-0.36968987"><ele>-44.8</ele><time>2022-10-30T15:12:54.0000000+00:00</time></trkpt><trkpt lat="39.4723833" lon="-0.3696861"><ele>-44.8</ele><time>2022-10-30T15:12:55.0000000+00:00</time></trkpt><trkpt lat="39.47238464" lon="-0.36968694"><ele>-44.8</ele><time>2022-10-30T15:12:56.0000000+00:00</time></trkpt><trkpt lat="39.47238305" lon="-0.36968585"><ele>-44.8</ele><time>2022-10-30T15:12:57.0000000+00:00</time></trkpt><trkpt lat="39.47238539" lon="-0.36968376"><ele>-44.8</ele><time>2022-10-30T15:12:58.0000000+00:00</time></trkpt><trkpt lat="39.47238615" lon="-0.3696763"><ele>-44.8</ele><time>2022-10-30T15:12:59.0000000+00:00</time></trkpt><trkpt lat="39.47238623" lon="-0.36966984"><ele>-44.8</ele><time>2022-10-30T15:13:00.0000000+00:00</time></trkpt><trkpt lat="39.47239017" lon="-0.36967244"><ele>-44.8</ele><time>2022-10-30T15:13:01.0000000+00:00</time></trkpt><trkpt lat="39.47238958" lon="-0.36967085"><ele>-44.8</ele><time>2022-10-30T15:13:02.0000000+00:00</time></trkpt><trkpt lat="39.47238866" lon="-0.36966657"><ele>-44.8</ele><time>2022-10-30T15:13:03.0000000+00:00</time></trkpt><trkpt lat="39.47238933" lon="-0.36966205"><ele>-44.8</ele><time>2022-10-30T15:13:04.0000000+00:00</time></trkpt><trkpt lat="39.47238942" lon="-0.36966146"><ele>-44.8</ele><time>2022-10-30T15:13:05.0000000+00:00</time></trkpt><trkpt lat="39.47239059" lon="-0.36965945"><ele>-44.8</ele><time>2022-10-30T15:13:06.0000000+00:00</time></trkpt><trkpt lat="39.47239026" lon="-0.36966104"><ele>-44.8</ele><time>2022-10-30T15:13:07.0000000+00:00</time></trkpt><trkpt lat="39.47239009" lon="-0.36966448"><ele>-44.8</ele><time>2022-10-30T15:13:08.0000000+00:00</time></trkpt><trkpt lat="39.47237676" lon="-0.36967169"><ele>-44.8</ele><time>2022-10-30T15:13:09.0000000+00:00</time></trkpt><trkpt lat="39.47237467" lon="-0.36967697"><ele>-44.8</ele><time>2022-10-30T15:13:10.0000000+00:00</time></trkpt><trkpt lat="39.47237425" lon="-0.36967982"><ele>-44.8</ele><time>2022-10-30T15:13:11.0000000+00:00</time></trkpt><trkpt lat="39.47237332" lon="-0.36968233"><ele>-44.8</ele><time>2022-10-30T15:13:12.0000000+00:00</time></trkpt><trkpt lat="39.47237349" lon="-0.36968711"><ele>-44.8</ele><time>2022-10-30T15:13:13.0000000+00:00</time></trkpt><trkpt lat="39.47236687" lon="-0.36968526"><ele>-44.8</ele><time>2022-10-30T15:13:14.0000000+00:00</time></trkpt><trkpt lat="39.47236519" lon="-0.3696861"><ele>-44.8</ele><time>2022-10-30T15:13:15.0000000+00:00</time></trkpt><trkpt lat="39.47236301" lon="-0.36968434"><ele>-44.8</ele><time>2022-10-30T15:13:16.0000000+00:00</time></trkpt><trkpt lat="39.47236335" lon="-0.3696861"><ele>-44.8</ele><time>2022-10-30T15:13:17.0000000+00:00</time></trkpt><trkpt lat="39.47236176" lon="-0.36968443"><ele>-44.8</ele><time>2022-10-30T15:13:18.0000000+00:00</time></trkpt><trkpt lat="39.47235991" lon="-0.36968233"><ele>-44.8</ele><time>2022-10-30T15:13:19.0000000+00:00</time></trkpt><trkpt lat="39.47235933" lon="-0.36967294"><ele>-44.8</ele><time>2022-10-30T15:13:20.0000000+00:00</time></trkpt><trkpt lat="39.47236033" lon="-0.36967512"><ele>-44.8</ele><time>2022-10-30T15:13:21.0000000+00:00</time></trkpt><trkpt lat="39.47236125" lon="-0.36967663"><ele>-44.8</ele><time>2022-10-30T15:13:22.0000000+00:00</time></trkpt><trkpt lat="39.47236067" lon="-0.36967822"><ele>-44.8</ele><time>2022-10-30T15:13:23.0000000+00:00</time></trkpt><trkpt lat="39.47237676" lon="-0.36967437"><ele>-44.8</ele><time>2022-10-30T15:13:24.0000000+00:00</time></trkpt><trkpt lat="39.47238062" lon="-0.36967496"><ele>-44.8</ele><time>2022-10-30T15:13:25.0000000+00:00</time></trkpt><trkpt lat="39.47237626" lon="-0.36967018"><ele>-44.8</ele><time>2022-10-30T15:13:26.0000000+00:00</time></trkpt><trkpt lat="39.47237508" lon="-0.36966641"><ele>-44.8</ele><time>2022-10-30T15:13:27.0000000+00:00</time></trkpt><trkpt lat="39.47237609" lon="-0.36966682"><ele>-44.8</ele><time>2022-10-30T15:13:28.0000000+00:00</time></trkpt><trkpt lat="39.47237961" lon="-0.36965668"><ele>-44.8</ele><time>2022-10-30T15:13:29.0000000+00:00</time></trkpt><trkpt lat="39.47238062" lon="-0.36965576"><ele>-44.8</ele><time>2022-10-30T15:13:30.0000000+00:00</time></trkpt><trkpt lat="39.47238674" lon="-0.36964671"><ele>-44.8</ele><time>2022-10-30T15:13:31.0000000+00:00</time></trkpt><trkpt lat="39.47239101" lon="-0.36964562"><ele>-44.8</ele><time>2022-10-30T15:13:32.0000000+00:00</time></trkpt><trkpt lat="39.47239889" lon="-0.36963673"><ele>-44.8</ele><time>2022-10-30T15:13:33.0000000+00:00</time></trkpt><trkpt lat="39.4724014" lon="-0.36963531"><ele>-44.8</ele><time>2022-10-30T15:13:34.0000000+00:00</time></trkpt><trkpt lat="39.47240082" lon="-0.36963573"><ele>-44.8</ele><time>2022-10-30T15:13:35.0000000+00:00</time></trkpt><trkpt lat="39.47240777" lon="-0.3696431"><ele>-44.8</ele><time>2022-10-30T15:13:36.0000000+00:00</time></trkpt><trkpt lat="39.47240694" lon="-0.36964746"><ele>-44.8</ele><time>2022-10-30T15:13:37.0000000+00:00</time></trkpt><trkpt lat="39.47240459" lon="-0.36964688"><ele>-44.8</ele><time>2022-10-30T15:13:38.0000000+00:00</time></trkpt><trkpt lat="39.47240476" lon="-0.36964872"><ele>-44.8</ele><time>2022-10-30T15:13:39.0000000+00:00</time></trkpt><trkpt lat="39.47240518" lon="-0.36963992"><ele>-44.8</ele><time>2022-10-30T15:13:40.0000000+00:00</time></trkpt><trkpt lat="39.47240719" lon="-0.36964176"><ele>-44.8</ele><time>2022-10-30T15:13:41.0000000+00:00</time></trkpt><trkpt lat="39.47240727" lon="-0.36964394"><ele>-44.8</ele><time>2022-10-30T15:13:42.0000000+00:00</time></trkpt><trkpt lat="39.47240777" lon="-0.36964277"><ele>-44.8</ele><time>2022-10-30T15:13:43.0000000+00:00</time></trkpt><trkpt lat="39.47240702" lon="-0.36964344"><ele>-44.8</ele><time>2022-10-30T15:13:44.0000000+00:00</time></trkpt><trkpt lat="39.47240526" lon="-0.36964243"><ele>-44.8</ele><time>2022-10-30T15:13:45.0000000+00:00</time></trkpt><trkpt lat="39.4724035" lon="-0.36964227"><ele>-44.8</ele><time>2022-10-30T15:13:46.0000000+00:00</time></trkpt><trkpt lat="39.47240367" lon="-0.3696421"><ele>-44.8</ele><time>2022-10-30T15:13:47.0000000+00:00</time></trkpt><trkpt lat="39.47240383" lon="-0.36964134"><ele>-44.8</ele><time>2022-10-30T15:13:48.0000000+00:00</time></trkpt><trkpt lat="39.47240367" lon="-0.36963992"><ele>-44.8</ele><time>2022-10-30T15:13:49.0000000+00:00</time></trkpt><trkpt lat="39.47240383" lon="-0.36963933"><ele>-44.8</ele><time>2022-10-30T15:13:50.0000000+00:00</time></trkpt><trkpt lat="39.47240585" lon="-0.36964059"><ele>-44.8</ele><time>2022-10-30T15:13:51.0000000+00:00</time></trkpt><trkpt lat="39.47240518" lon="-0.36964051"><ele>-44.8</ele><time>2022-10-30T15:13:52.0000000+00:00</time></trkpt><trkpt lat="39.4724045" lon="-0.36963925"><ele>-44.8</ele><time>2022-10-30T15:13:53.0000000+00:00</time></trkpt><trkpt lat="39.47240367" lon="-0.36963958"><ele>-44.8</ele><time>2022-10-30T15:13:54.0000000+00:00</time></trkpt><trkpt lat="39.47240233" lon="-0.36964252"><ele>-44.8</ele><time>2022-10-30T15:13:55.0000000+00:00</time></trkpt><trkpt lat="39.47240241" lon="-0.36964025"><ele>-44.8</ele><time>2022-10-30T15:13:56.0000000+00:00</time></trkpt><trkpt lat="39.47240191" lon="-0.36963766"><ele>-44.8</ele><time>2022-10-30T15:13:57.0000000+00:00</time></trkpt><trkpt lat="39.47240015" lon="-0.36963464"><ele>-44.8</ele><time>2022-10-30T15:13:58.0000000+00:00</time></trkpt><trkpt lat="39.47239998" lon="-0.36963388"><ele>-44.8</ele><time>2022-10-30T15:13:59.0000000+00:00</time></trkpt><trkpt lat="39.47240115" lon="-0.36963497"><ele>-44.8</ele><time>2022-10-30T15:14:00.0000000+00:00</time></trkpt><trkpt lat="39.47240291" lon="-0.3696359"><ele>-44.8</ele><time>2022-10-30T15:14:01.0000000+00:00</time></trkpt><trkpt lat="39.472403" lon="-0.36963556"><ele>-47.8</ele><time>2022-10-30T15:14:02.0000000+00:00</time></trkpt><trkpt lat="39.47240409" lon="-0.36963455"><ele>-47.8</ele><time>2022-10-30T15:14:03.0000000+00:00</time></trkpt><trkpt lat="39.47240392" lon="-0.3696338"><ele>-47.8</ele><time>2022-10-30T15:14:04.0000000+00:00</time></trkpt><trkpt lat="39.47240241" lon="-0.36963313"><ele>-47.8</ele><time>2022-10-30T15:14:05.0000000+00:00</time></trkpt><trkpt lat="39.47240174" lon="-0.36963321"><ele>-47.8</ele><time>2022-10-30T15:14:06.0000000+00:00</time></trkpt><trkpt lat="39.47240132" lon="-0.36963221"><ele>-47.8</ele><time>2022-10-30T15:14:07.0000000+00:00</time></trkpt><trkpt lat="39.47240149" lon="-0.36963221"><ele>-47.6</ele><time>2022-10-30T15:14:08.0000000+00:00</time></trkpt><trkpt lat="39.47240115" lon="-0.36963137"><ele>-47.6</ele><time>2022-10-30T15:14:09.0000000+00:00</time></trkpt><trkpt lat="39.47240006" lon="-0.36962919"><ele>-47.6</ele><time>2022-10-30T15:14:10.0000000+00:00</time></trkpt><trkpt lat="39.47239931" lon="-0.36962642"><ele>-47.6</ele><time>2022-10-30T15:14:11.0000000+00:00</time></trkpt><trkpt lat="39.47239746" lon="-0.36962307"><ele>-47.6</ele><time>2022-10-30T15:14:12.0000000+00:00</time></trkpt><trkpt lat="39.47239528" lon="-0.36962299"><ele>-47.6</ele><time>2022-10-30T15:14:13.0000000+00:00</time></trkpt><trkpt lat="39.47239763" lon="-0.36962257"><ele>-47.8</ele><time>2022-10-30T15:14:14.0000000+00:00</time></trkpt><trkpt lat="39.47240006" lon="-0.36962299"><ele>-47.8</ele><time>2022-10-30T15:14:15.0000000+00:00</time></trkpt><trkpt lat="39.47240568" lon="-0.36962701"><ele>-47.8</ele><time>2022-10-30T15:14:16.0000000+00:00</time></trkpt><trkpt lat="39.47240828" lon="-0.3696312"><ele>-47.8</ele><time>2022-10-30T15:14:17.0000000+00:00</time></trkpt><trkpt lat="39.47241012" lon="-0.36963506"><ele>-47.8</ele><time>2022-10-30T15:14:18.0000000+00:00</time></trkpt><trkpt lat="39.47241004" lon="-0.36963522"><ele>-47.8</ele><time>2022-10-30T15:14:19.0000000+00:00</time></trkpt><trkpt lat="39.47241314" lon="-0.36963774"><ele>-47.8</ele><time>2022-10-30T15:14:20.0000000+00:00</time></trkpt><trkpt lat="39.47241381" lon="-0.36963782"><ele>-47.8</ele><time>2022-10-30T15:14:21.0000000+00:00</time></trkpt><trkpt lat="39.47241381" lon="-0.36963782"><ele>-47.8</ele><time>2022-10-30T15:14:22.0000000+00:00</time></trkpt><trkpt lat="39.47241381" lon="-0.36963782"><ele>-48.0</ele><time>2022-10-30T15:14:23.0000000+00:00</time></trkpt><trkpt lat="39.47241381" lon="-0.36963782"><ele>-48.0</ele><time>2022-10-30T15:14:24.0000000+00:00</time></trkpt><trkpt lat="39.47241381" lon="-0.36963782"><ele>-48.0</ele><time>2022-10-30T15:14:25.0000000+00:00</time></trkpt><trkpt lat="39.47241381" lon="-0.36963782"><ele>-48.0</ele><time>2022-10-30T15:14:26.0000000+00:00</time></trkpt><trkpt lat="39.47241381" lon="-0.36963782"><ele>-48.0</ele><time>2022-10-30T15:14:27.0000000+00:00</time></trkpt><trkpt lat="39.47241381" lon="-0.36963782"><ele>-48.0</ele><time>2022-10-30T15:14:28.0000000+00:00</time></trkpt><trkpt lat="39.47241381" lon="-0.36963774"><ele>-48.0</ele><time>2022-10-30T15:14:29.0000000+00:00</time></trkpt><trkpt lat="39.47241381" lon="-0.36963757"><ele>-48.0</ele><time>2022-10-30T15:14:30.0000000+00:00</time></trkpt><trkpt lat="39.47241322" lon="-0.36963648"><ele>-48.0</ele><time>2022-10-30T15:14:31.0000000+00:00</time></trkpt><trkpt lat="39.47241314" lon="-0.36963531"><ele>-48.0</ele><time>2022-10-30T15:14:32.0000000+00:00</time></trkpt><trkpt lat="39.47241289" lon="-0.36963514"><ele>-48.0</ele><time>2022-10-30T15:14:33.0000000+00:00</time></trkpt><trkpt lat="39.47241264" lon="-0.36963506"><ele>-48.0</ele><time>2022-10-30T15:14:34.0000000+00:00</time></trkpt><trkpt lat="39.47241171" lon="-0.36963506"><ele>-48.0</ele><time>2022-10-30T15:14:35.0000000+00:00</time></trkpt><trkpt lat="39.47241121" lon="-0.36963464"><ele>-48.0</ele><time>2022-10-30T15:14:36.0000000+00:00</time></trkpt><trkpt lat="39.4724102" lon="-0.3696338"><ele>-48.0</ele><time>2022-10-30T15:14:37.0000000+00:00</time></trkpt><trkpt lat="39.47241004" lon="-0.36963212"><ele>-48.0</ele><time>2022-10-30T15:14:38.0000000+00:00</time></trkpt><trkpt lat="39.4724087" lon="-0.36963129"><ele>-48.0</ele><time>2022-10-30T15:14:39.0000000+00:00</time></trkpt><trkpt lat="39.47240836" lon="-0.36962961"><ele>-48.0</ele><time>2022-10-30T15:14:40.0000000+00:00</time></trkpt><trkpt lat="39.47240727" lon="-0.36962827"><ele>-48.0</ele><time>2022-10-30T15:14:41.0000000+00:00</time></trkpt><trkpt lat="39.47240685" lon="-0.36962718"><ele>-48.0</ele><time>2022-10-30T15:14:42.0000000+00:00</time></trkpt><trkpt lat="39.47240677" lon="-0.36962709"><ele>-48.0</ele><time>2022-10-30T15:14:43.0000000+00:00</time></trkpt><trkpt lat="39.47240677" lon="-0.36962709"><ele>-48.0</ele><time>2022-10-30T15:14:44.0000000+00:00</time></trkpt><trkpt lat="39.47240677" lon="-0.36962709"><ele>-48.0</ele><time>2022-10-30T15:14:45.0000000+00:00</time></trkpt><trkpt lat="39.47240677" lon="-0.36962709"><ele>-48.0</ele><time>2022-10-30T15:14:46.0000000+00:00</time></trkpt><trkpt lat="39.47240543" lon="-0.36962517"><ele>-48.0</ele><time>2022-10-30T15:14:47.0000000+00:00</time></trkpt><trkpt lat="39.47240442" lon="-0.36962366"><ele>-48.0</ele><time>2022-10-30T15:14:48.0000000+00:00</time></trkpt><trkpt lat="39.47240375" lon="-0.36962181"><ele>-48.0</ele><time>2022-10-30T15:14:49.0000000+00:00</time></trkpt><trkpt lat="39.47240291" lon="-0.36962022"><ele>-48.0</ele><time>2022-10-30T15:14:50.0000000+00:00</time></trkpt><trkpt lat="39.47240224" lon="-0.3696188"><ele>-48.0</ele><time>2022-10-30T15:14:51.0000000+00:00</time></trkpt><trkpt lat="39.47240132" lon="-0.36961787"><ele>-48.0</ele><time>2022-10-30T15:14:52.0000000+00:00</time></trkpt><trkpt lat="39.47240006" lon="-0.3696172"><ele>-48.0</ele><time>2022-10-30T15:14:53.0000000+00:00</time></trkpt><trkpt lat="39.47239948" lon="-0.36961695"><ele>-48.0</ele><time>2022-10-30T15:14:54.0000000+00:00</time></trkpt><trkpt lat="39.47239931" lon="-0.36961687"><ele>-48.0</ele><time>2022-10-30T15:14:55.0000000+00:00</time></trkpt><trkpt lat="39.47239914" lon="-0.36961662"><ele>-48.0</ele><time>2022-10-30T15:14:56.0000000+00:00</time></trkpt><trkpt lat="39.47239797" lon="-0.36961578"><ele>-48.0</ele><time>2022-10-30T15:14:57.0000000+00:00</time></trkpt><trkpt lat="39.47239562" lon="-0.36961385"><ele>-48.0</ele><time>2022-10-30T15:14:58.0000000+00:00</time></trkpt><trkpt lat="39.47239352" lon="-0.36961217"><ele>-48.2</ele><time>2022-10-30T15:14:59.0000000+00:00</time></trkpt><trkpt lat="39.4723921" lon="-0.36961092"><ele>-48.2</ele><time>2022-10-30T15:15:00.0000000+00:00</time></trkpt><trkpt lat="39.47239067" lon="-0.36960983"><ele>-48.2</ele><time>2022-10-30T15:15:01.0000000+00:00</time></trkpt><trkpt lat="39.47239034" lon="-0.36960924"><ele>-48.2</ele><time>2022-10-30T15:15:02.0000000+00:00</time></trkpt><trkpt lat="39.47238975" lon="-0.36960857"><ele>-48.2</ele><time>2022-10-30T15:15:03.0000000+00:00</time></trkpt><trkpt lat="39.47238942" lon="-0.36960824"><ele>-48.2</ele><time>2022-10-30T15:15:04.0000000+00:00</time></trkpt><trkpt lat="39.47238917" lon="-0.36960807"><ele>-48.2</ele><time>2022-10-30T15:15:05.0000000+00:00</time></trkpt><trkpt lat="39.47238908" lon="-0.36960773"><ele>-48.2</ele><time>2022-10-30T15:15:06.0000000+00:00</time></trkpt><trkpt lat="39.47238908" lon="-0.36960656"><ele>-48.2</ele><time>2022-10-30T15:15:07.0000000+00:00</time></trkpt><trkpt lat="39.47238908" lon="-0.36960522"><ele>-48.2</ele><time>2022-10-30T15:15:08.0000000+00:00</time></trkpt><trkpt lat="39.47238908" lon="-0.36960404"><ele>-48.2</ele><time>2022-10-30T15:15:09.0000000+00:00</time></trkpt><trkpt lat="39.47238908" lon="-0.36960346"><ele>-48.2</ele><time>2022-10-30T15:15:10.0000000+00:00</time></trkpt><trkpt lat="39.47238908" lon="-0.36960287"><ele>-48.2</ele><time>2022-10-30T15:15:11.0000000+00:00</time></trkpt><trkpt lat="39.47238908" lon="-0.36960212"><ele>-48.2</ele><time>2022-10-30T15:15:12.0000000+00:00</time></trkpt><trkpt lat="39.47238908" lon="-0.3696001"><ele>-48.2</ele><time>2022-10-30T15:15:13.0000000+00:00</time></trkpt><trkpt lat="39.47238908" lon="-0.3695996"><ele>-48.2</ele><time>2022-10-30T15:15:14.0000000+00:00</time></trkpt><trkpt lat="39.47238908" lon="-0.36959809"><ele>-48.2</ele><time>2022-10-30T15:15:15.0000000+00:00</time></trkpt><trkpt lat="39.47238908" lon="-0.36959809"><ele>-48.2</ele><time>2022-10-30T15:15:17.0000000+00:00</time></trkpt><trkpt lat="39.47238908" lon="-0.36959776"><ele>-48.2</ele><time>2022-10-30T15:15:18.0000000+00:00</time></trkpt><trkpt lat="39.47238908" lon="-0.36959742"><ele>-48.2</ele><time>2022-10-30T15:15:19.0000000+00:00</time></trkpt><trkpt lat="39.47238917" lon="-0.36959675"><ele>-48.2</ele><time>2022-10-30T15:15:20.0000000+00:00</time></trkpt><trkpt lat="39.47238925" lon="-0.36959625"><ele>-48.2</ele><time>2022-10-30T15:15:21.0000000+00:00</time></trkpt><trkpt lat="39.47238958" lon="-0.36959566"><ele>-48.2</ele><time>2022-10-30T15:15:22.0000000+00:00</time></trkpt><trkpt lat="39.47238967" lon="-0.36959516"><ele>-48.2</ele><time>2022-10-30T15:15:23.0000000+00:00</time></trkpt><trkpt lat="39.47238975" lon="-0.36959466"><ele>-48.2</ele><time>2022-10-30T15:15:24.0000000+00:00</time></trkpt><trkpt lat="39.47238975" lon="-0.36959407"><ele>-48.2</ele><time>2022-10-30T15:15:25.0000000+00:00</time></trkpt><trkpt lat="39.47238975" lon="-0.36959273"><ele>-48.2</ele><time>2022-10-30T15:15:26.0000000+00:00</time></trkpt><trkpt lat="39.47238975" lon="-0.36959189"><ele>-48.2</ele><time>2022-10-30T15:15:27.0000000+00:00</time></trkpt><trkpt lat="39.47238975" lon="-0.36959097"><ele>-48.2</ele><time>2022-10-30T15:15:28.0000000+00:00</time></trkpt><trkpt lat="39.47238975" lon="-0.36958963"><ele>-48.2</ele><time>2022-10-30T15:15:29.0000000+00:00</time></trkpt><trkpt lat="39.47238975" lon="-0.36958904"><ele>-48.2</ele><time>2022-10-30T15:15:30.0000000+00:00</time></trkpt><trkpt lat="39.47238975" lon="-0.3695882"><ele>-48.2</ele><time>2022-10-30T15:15:31.0000000+00:00</time></trkpt><trkpt lat="39.47238975" lon="-0.36958627"><ele>-48.2</ele><time>2022-10-30T15:15:32.0000000+00:00</time></trkpt><trkpt lat="39.47238975" lon="-0.36958518"><ele>-48.2</ele><time>2022-10-30T15:15:33.0000000+00:00</time></trkpt><trkpt lat="39.47238975" lon="-0.36958468"><ele>-48.2</ele><time>2022-10-30T15:15:34.0000000+00:00</time></trkpt><trkpt lat="39.47238975" lon="-0.3695841"><ele>-48.2</ele><time>2022-10-30T15:15:35.0000000+00:00</time></trkpt><trkpt lat="39.47238975" lon="-0.36958342"><ele>-48.2</ele><time>2022-10-30T15:15:36.0000000+00:00</time></trkpt><trkpt lat="39.47238975" lon="-0.36958275"><ele>-48.2</ele><time>2022-10-30T15:15:37.0000000+00:00</time></trkpt><trkpt lat="39.47238942" lon="-0.369582"><ele>-48.2</ele><time>2022-10-30T15:15:38.0000000+00:00</time></trkpt><trkpt lat="39.47238866" lon="-0.36958032"><ele>-48.2</ele><time>2022-10-30T15:15:39.0000000+00:00</time></trkpt><trkpt lat="39.47238841" lon="-0.36957865"><ele>-48.2</ele><time>2022-10-30T15:15:40.0000000+00:00</time></trkpt><trkpt lat="39.47238833" lon="-0.3695768"><ele>-48.2</ele><time>2022-10-30T15:15:41.0000000+00:00</time></trkpt><trkpt lat="39.47238833" lon="-0.36957496"><ele>-48.2</ele><time>2022-10-30T15:15:42.0000000+00:00</time></trkpt><trkpt lat="39.47238824" lon="-0.36956859"><ele>-48.2</ele><time>2022-10-30T15:15:43.0000000+00:00</time></trkpt><trkpt lat="39.47238824" lon="-0.36956549"><ele>-48.2</ele><time>2022-10-30T15:15:44.0000000+00:00</time></trkpt><trkpt lat="39.47238824" lon="-0.36956423"><ele>-48.2</ele><time>2022-10-30T15:15:45.0000000+00:00</time></trkpt><trkpt lat="39.47238824" lon="-0.36956289"><ele>-48.2</ele><time>2022-10-30T15:15:46.0000000+00:00</time></trkpt><trkpt lat="39.47238824" lon="-0.36956079"><ele>-48.2</ele><time>2022-10-30T15:15:47.0000000+00:00</time></trkpt><trkpt lat="39.47238824" lon="-0.36955928"><ele>-48.2</ele><time>2022-10-30T15:15:48.0000000+00:00</time></trkpt><trkpt lat="39.47238824" lon="-0.36955861"><ele>-48.2</ele><time>2022-10-30T15:15:49.0000000+00:00</time></trkpt><trkpt lat="39.47238824" lon="-0.36955828"><ele>-48.2</ele><time>2022-10-30T15:15:50.0000000+00:00</time></trkpt><trkpt lat="39.47238824" lon="-0.36955794"><ele>-48.2</ele><time>2022-10-30T15:15:51.0000000+00:00</time></trkpt><trkpt lat="39.47238824" lon="-0.36955736"><ele>-48.2</ele><time>2022-10-30T15:15:52.0000000+00:00</time></trkpt><trkpt lat="39.47238824" lon="-0.36955685"><ele>-48.2</ele><time>2022-10-30T15:15:53.0000000+00:00</time></trkpt><trkpt lat="39.47238824" lon="-0.36955652"><ele>-48.2</ele><time>2022-10-30T15:15:54.0000000+00:00</time></trkpt><trkpt lat="39.47238824" lon="-0.36955618"><ele>-48.2</ele><time>2022-10-30T15:15:55.0000000+00:00</time></trkpt><trkpt lat="39.47238824" lon="-0.3695561"><ele>-48.2</ele><time>2022-10-30T15:15:56.0000000+00:00</time></trkpt><trkpt lat="39.47238824" lon="-0.36955593"><ele>-48.2</ele><time>2022-10-30T15:15:57.0000000+00:00</time></trkpt><trkpt lat="39.47238875" lon="-0.36955585"><ele>-48.2</ele><time>2022-10-30T15:15:58.0000000+00:00</time></trkpt><trkpt lat="39.472389" lon="-0.36955585"><ele>-48.2</ele><time>2022-10-30T15:15:59.0000000+00:00</time></trkpt><trkpt lat="39.47238908" lon="-0.36955576"><ele>-48.2</ele><time>2022-10-30T15:16:00.0000000+00:00</time></trkpt><trkpt lat="39.47238917" lon="-0.3695556"><ele>-48.2</ele><time>2022-10-30T15:16:01.0000000+00:00</time></trkpt><trkpt lat="39.47238925" lon="-0.36955509"><ele>-48.2</ele><time>2022-10-30T15:16:02.0000000+00:00</time></trkpt><trkpt lat="39.47238933" lon="-0.36955476"><ele>-48.2</ele><time>2022-10-30T15:16:03.0000000+00:00</time></trkpt><trkpt lat="39.4723895" lon="-0.36955442"><ele>-48.2</ele><time>2022-10-30T15:16:04.0000000+00:00</time></trkpt><trkpt lat="39.4723895" lon="-0.36955333"><ele>-48.2</ele><time>2022-10-30T15:16:05.0000000+00:00</time></trkpt><trkpt lat="39.47238958" lon="-0.36955283"><ele>-48.2</ele><time>2022-10-30T15:16:06.0000000+00:00</time></trkpt><trkpt lat="39.47238958" lon="-0.36955182"><ele>-48.2</ele><time>2022-10-30T15:16:07.0000000+00:00</time></trkpt><trkpt lat="39.47238958" lon="-0.36955006"><ele>-48.2</ele><time>2022-10-30T15:16:08.0000000+00:00</time></trkpt><trkpt lat="39.47238958" lon="-0.36954898"><ele>-48.2</ele><time>2022-10-30T15:16:09.0000000+00:00</time></trkpt><trkpt lat="39.4723895" lon="-0.3695478"><ele>-48.2</ele><time>2022-10-30T15:16:10.0000000+00:00</time></trkpt><trkpt lat="39.47238933" lon="-0.36954705"><ele>-48.2</ele><time>2022-10-30T15:16:11.0000000+00:00</time></trkpt><trkpt lat="39.47238908" lon="-0.36954646"><ele>-48.2</ele><time>2022-10-30T15:16:12.0000000+00:00</time></trkpt><trkpt lat="39.47238858" lon="-0.36954537"><ele>-48.2</ele><time>2022-10-30T15:16:13.0000000+00:00</time></trkpt><trkpt lat="39.47238833" lon="-0.36954453"><ele>-48.2</ele><time>2022-10-30T15:16:14.0000000+00:00</time></trkpt><trkpt lat="39.47238791" lon="-0.36954361"><ele>-48.2</ele><time>2022-10-30T15:16:15.0000000+00:00</time></trkpt><trkpt lat="39.47238766" lon="-0.36954311"><ele>-48.2</ele><time>2022-10-30T15:16:16.0000000+00:00</time></trkpt><trkpt lat="39.47238749" lon="-0.36954235"><ele>-48.2</ele><time>2022-10-30T15:16:17.0000000+00:00</time></trkpt><trkpt lat="39.47238724" lon="-0.36954193"><ele>-48.2</ele><time>2022-10-30T15:16:18.0000000+00:00</time></trkpt><trkpt lat="39.47238699" lon="-0.36954043"><ele>-48.2</ele><time>2022-10-30T15:16:19.0000000+00:00</time></trkpt><trkpt lat="39.47238632" lon="-0.36953959"><ele>-48.2</ele><time>2022-10-30T15:16:20.0000000+00:00</time></trkpt><trkpt lat="39.47238539" lon="-0.36953908"><ele>-48.2</ele><time>2022-10-30T15:16:21.0000000+00:00</time></trkpt><trkpt lat="39.47238456" lon="-0.36953875"><ele>-48.2</ele><time>2022-10-30T15:16:22.0000000+00:00</time></trkpt><trkpt lat="39.47238321" lon="-0.36953858"><ele>-48.2</ele><time>2022-10-30T15:16:23.0000000+00:00</time></trkpt><trkpt lat="39.47238238" lon="-0.3695385"><ele>-48.2</ele><time>2022-10-30T15:16:24.0000000+00:00</time></trkpt><trkpt lat="39.47238162" lon="-0.3695385"><ele>-48.2</ele><time>2022-10-30T15:16:25.0000000+00:00</time></trkpt><trkpt lat="39.4723812" lon="-0.36953833"><ele>-48.2</ele><time>2022-10-30T15:16:26.0000000+00:00</time></trkpt><trkpt lat="39.47238078" lon="-0.36953783"><ele>-48.2</ele><time>2022-10-30T15:16:27.0000000+00:00</time></trkpt><trkpt lat="39.47238028" lon="-0.36953749"><ele>-48.2</ele><time>2022-10-30T15:16:28.0000000+00:00</time></trkpt><trkpt lat="39.47237986" lon="-0.36953732"><ele>-48.2</ele><time>2022-10-30T15:16:29.0000000+00:00</time></trkpt><trkpt lat="39.47237953" lon="-0.36953716"><ele>-48.2</ele><time>2022-10-30T15:16:30.0000000+00:00</time></trkpt><trkpt lat="39.47237928" lon="-0.36953707"><ele>-48.2</ele><time>2022-10-30T15:16:31.0000000+00:00</time></trkpt><trkpt lat="39.47237902" lon="-0.36953707"><ele>-48.2</ele><time>2022-10-30T15:16:32.0000000+00:00</time></trkpt><trkpt lat="39.47237877" lon="-0.36953699"><ele>-48.2</ele><time>2022-10-30T15:16:33.0000000+00:00</time></trkpt><trkpt lat="39.4723786" lon="-0.36953699"><ele>-48.2</ele><time>2022-10-30T15:16:34.0000000+00:00</time></trkpt><trkpt lat="39.47237844" lon="-0.36953741"><ele>-48.2</ele><time>2022-10-30T15:16:35.0000000+00:00</time></trkpt><trkpt lat="39.47237827" lon="-0.36953774"><ele>-48.2</ele><time>2022-10-30T15:16:36.0000000+00:00</time></trkpt><trkpt lat="39.47237793" lon="-0.36953816"><ele>-48.2</ele><time>2022-10-30T15:16:37.0000000+00:00</time></trkpt><trkpt lat="39.47237735" lon="-0.36953841"><ele>-48.2</ele><time>2022-10-30T15:16:38.0000000+00:00</time></trkpt><trkpt lat="39.47237684" lon="-0.36953867"><ele>-48.2</ele><time>2022-10-30T15:16:39.0000000+00:00</time></trkpt><trkpt lat="39.47237634" lon="-0.36953875"><ele>-48.2</ele><time>2022-10-30T15:16:40.0000000+00:00</time></trkpt><trkpt lat="39.47237592" lon="-0.369539"><ele>-48.2</ele><time>2022-10-30T15:16:41.0000000+00:00</time></trkpt><trkpt lat="39.47237559" lon="-0.36953925"><ele>-48.2</ele><time>2022-10-30T15:16:42.0000000+00:00</time></trkpt><trkpt lat="39.47237517" lon="-0.36953942"><ele>-48.2</ele><time>2022-10-30T15:16:43.0000000+00:00</time></trkpt><trkpt lat="39.47237492" lon="-0.3695395"><ele>-48.2</ele><time>2022-10-30T15:16:44.0000000+00:00</time></trkpt><trkpt lat="39.47237467" lon="-0.36953959"><ele>-48.2</ele><time>2022-10-30T15:16:45.0000000+00:00</time></trkpt><trkpt lat="39.47237433" lon="-0.36953975"><ele>-48.2</ele><time>2022-10-30T15:16:46.0000000+00:00</time></trkpt><trkpt lat="39.47237408" lon="-0.36953984"><ele>-48.2</ele><time>2022-10-30T15:16:47.0000000+00:00</time></trkpt><trkpt lat="39.47237383" lon="-0.36954001"><ele>-48.2</ele><time>2022-10-30T15:16:48.0000000+00:00</time></trkpt><trkpt lat="39.47237366" lon="-0.36954001"><ele>-48.2</ele><time>2022-10-30T15:16:49.0000000+00:00</time></trkpt><trkpt lat="39.47237349" lon="-0.36954001"><ele>-48.2</ele><time>2022-10-30T15:16:50.0000000+00:00</time></trkpt><trkpt lat="39.47237332" lon="-0.36953992"><ele>-48.2</ele><time>2022-10-30T15:16:51.0000000+00:00</time></trkpt><trkpt lat="39.47237316" lon="-0.36953992"><ele>-48.2</ele><time>2022-10-30T15:16:52.0000000+00:00</time></trkpt><trkpt lat="39.47237299" lon="-0.36953984"><ele>-48.2</ele><time>2022-10-30T15:16:53.0000000+00:00</time></trkpt><trkpt lat="39.47237282" lon="-0.36953984"><ele>-48.2</ele><time>2022-10-30T15:16:54.0000000+00:00</time></trkpt><trkpt lat="39.47237274" lon="-0.36953975"><ele>-48.2</ele><time>2022-10-30T15:16:55.0000000+00:00</time></trkpt><trkpt lat="39.47237274" lon="-0.36953975"><ele>-48.2</ele><time>2022-10-30T15:16:56.0000000+00:00</time></trkpt><trkpt lat="39.47237265" lon="-0.36953975"><ele>-48.2</ele><time>2022-10-30T15:16:57.0000000+00:00</time></trkpt><trkpt lat="39.47237249" lon="-0.36953967"><ele>-48.2</ele><time>2022-10-30T15:16:58.0000000+00:00</time></trkpt><trkpt lat="39.4723724" lon="-0.36953959"><ele>-48.2</ele><time>2022-10-30T15:16:59.0000000+00:00</time></trkpt><trkpt lat="39.47237232" lon="-0.36953942"><ele>-48.2</ele><time>2022-10-30T15:17:00.0000000+00:00</time></trkpt><trkpt lat="39.47237223" lon="-0.36953934"><ele>-48.2</ele><time>2022-10-30T15:17:01.0000000+00:00</time></trkpt><trkpt lat="39.47237223" lon="-0.36953908"><ele>-48.2</ele><time>2022-10-30T15:17:02.0000000+00:00</time></trkpt><trkpt lat="39.47237223" lon="-0.36953883"><ele>-48.2</ele><time>2022-10-30T15:17:03.0000000+00:00</time></trkpt><trkpt lat="39.47237215" lon="-0.36953841"><ele>-48.2</ele><time>2022-10-30T15:17:04.0000000+00:00</time></trkpt><trkpt lat="39.47237215" lon="-0.36953783"><ele>-48.2</ele><time>2022-10-30T15:17:05.0000000+00:00</time></trkpt><trkpt lat="39.47237215" lon="-0.36953741"><ele>-48.2</ele><time>2022-10-30T15:17:06.0000000+00:00</time></trkpt><trkpt lat="39.47237215" lon="-0.36953699"><ele>-48.2</ele><time>2022-10-30T15:17:07.0000000+00:00</time></trkpt><trkpt lat="39.47237215" lon="-0.36953657"><ele>-48.2</ele><time>2022-10-30T15:17:08.0000000+00:00</time></trkpt><trkpt lat="39.47237223" lon="-0.36953615"><ele>-48.2</ele><time>2022-10-30T15:17:09.0000000+00:00</time></trkpt><trkpt lat="39.47237223" lon="-0.36953565"><ele>-48.2</ele><time>2022-10-30T15:17:10.0000000+00:00</time></trkpt><trkpt lat="39.47237223" lon="-0.36953481"><ele>-48.2</ele><time>2022-10-30T15:17:11.0000000+00:00</time></trkpt><trkpt lat="39.47236913" lon="-0.36953422"><ele>-48.2</ele><time>2022-10-30T15:17:12.0000000+00:00</time></trkpt><trkpt lat="39.47236838" lon="-0.36954227"><ele>-48.2</ele><time>2022-10-30T15:17:13.0000000+00:00</time></trkpt><trkpt lat="39.47236134" lon="-0.36953992"><ele>-48.2</ele><time>2022-10-30T15:17:14.0000000+00:00</time></trkpt><trkpt lat="39.47235723" lon="-0.36954168"><ele>-48.2</ele><time>2022-10-30T15:17:15.0000000+00:00</time></trkpt><trkpt lat="39.47236234" lon="-0.36955593"><ele>-48.2</ele><time>2022-10-30T15:17:16.0000000+00:00</time></trkpt><trkpt lat="39.47236662" lon="-0.36956951"><ele>-48.2</ele><time>2022-10-30T15:17:17.0000000+00:00</time></trkpt><trkpt lat="39.47236184" lon="-0.3695732"><ele>-48.2</ele><time>2022-10-30T15:17:18.0000000+00:00</time></trkpt><trkpt lat="39.47235555" lon="-0.36955727"><ele>-48.2</ele><time>2022-10-30T15:17:19.0000000+00:00</time></trkpt><trkpt lat="39.47235748" lon="-0.36953649"><ele>-48.2</ele><time>2022-10-30T15:17:20.0000000+00:00</time></trkpt><trkpt lat="39.47236595" lon="-0.36952056"><ele>-48.2</ele><time>2022-10-30T15:17:21.0000000+00:00</time></trkpt><trkpt lat="39.47237064" lon="-0.3695167"><ele>-48.2</ele><time>2022-10-30T15:17:22.0000000+00:00</time></trkpt><trkpt lat="39.47238271" lon="-0.3695157"><ele>-48.2</ele><time>2022-10-30T15:17:23.0000000+00:00</time></trkpt><trkpt lat="39.47239185" lon="-0.36950522"><ele>-48.2</ele><time>2022-10-30T15:17:24.0000000+00:00</time></trkpt><trkpt lat="39.47239713" lon="-0.36948921"><ele>-48.2</ele><time>2022-10-30T15:17:25.0000000+00:00</time></trkpt><trkpt lat="39.47239939" lon="-0.36947253"><ele>-48.2</ele><time>2022-10-30T15:17:26.0000000+00:00</time></trkpt><trkpt lat="39.4724066" lon="-0.36946298"><ele>-48.2</ele><time>2022-10-30T15:17:27.0000000+00:00</time></trkpt><trkpt lat="39.47241557" lon="-0.3694556"><ele>-48.2</ele><time>2022-10-30T15:17:28.0000000+00:00</time></trkpt><trkpt lat="39.47242353" lon="-0.36944822"><ele>-48.2</ele><time>2022-10-30T15:17:29.0000000+00:00</time></trkpt><trkpt lat="39.4724294" lon="-0.36944169"><ele>-48.2</ele><time>2022-10-30T15:17:30.0000000+00:00</time></trkpt><trkpt lat="39.47242923" lon="-0.36943398"><ele>-48.2</ele><time>2022-10-30T15:17:31.0000000+00:00</time></trkpt><trkpt lat="39.47242303" lon="-0.36942216"><ele>-48.2</ele><time>2022-10-30T15:17:32.0000000+00:00</time></trkpt><trkpt lat="39.47241624" lon="-0.3694188"><ele>-48.2</ele><time>2022-10-30T15:17:33.0000000+00:00</time></trkpt><trkpt lat="39.47241498" lon="-0.36941662"><ele>-48.2</ele><time>2022-10-30T15:17:34.0000000+00:00</time></trkpt><trkpt lat="39.47241314" lon="-0.36941394"><ele>-48.2</ele><time>2022-10-30T15:17:35.0000000+00:00</time></trkpt><trkpt lat="39.47242152" lon="-0.36941662"><ele>-48.2</ele><time>2022-10-30T15:17:36.0000000+00:00</time></trkpt><trkpt lat="39.47242512" lon="-0.36941679"><ele>-48.2</ele><time>2022-10-30T15:17:37.0000000+00:00</time></trkpt><trkpt lat="39.47242898" lon="-0.36941805"><ele>-48.2</ele><time>2022-10-30T15:17:38.0000000+00:00</time></trkpt><trkpt lat="39.47243309" lon="-0.36942082"><ele>-48.2</ele><time>2022-10-30T15:17:39.0000000+00:00</time></trkpt><trkpt lat="39.47243812" lon="-0.36942341"><ele>-48.2</ele><time>2022-10-30T15:17:40.0000000+00:00</time></trkpt><trkpt lat="39.47240082" lon="-0.36940288"><ele>-48.2</ele><time>2022-10-30T15:17:41.0000000+00:00</time></trkpt><trkpt lat="39.47239151" lon="-0.36939114"><ele>-48.2</ele><time>2022-10-30T15:17:42.0000000+00:00</time></trkpt><trkpt lat="39.47236276" lon="-0.36937279"><ele>-48.2</ele><time>2022-10-30T15:17:43.0000000+00:00</time></trkpt><trkpt lat="39.47235229" lon="-0.36935904"><ele>-48.2</ele><time>2022-10-30T15:17:44.0000000+00:00</time></trkpt><trkpt lat="39.47234524" lon="-0.3693437"><ele>-48.2</ele><time>2022-10-30T15:17:45.0000000+00:00</time></trkpt><trkpt lat="39.47234399" lon="-0.36934052"><ele>-48.2</ele><time>2022-10-30T15:17:46.0000000+00:00</time></trkpt><trkpt lat="39.4723455" lon="-0.36933549"><ele>-48.2</ele><time>2022-10-30T15:17:47.0000000+00:00</time></trkpt><trkpt lat="39.47235329" lon="-0.3693313"><ele>-48.2</ele><time>2022-10-30T15:17:48.0000000+00:00</time></trkpt><trkpt lat="39.47234893" lon="-0.36933214"><ele>-48.2</ele><time>2022-10-30T15:17:49.0000000+00:00</time></trkpt><trkpt lat="39.47234013" lon="-0.36933457"><ele>-48.2</ele><time>2022-10-30T15:17:50.0000000+00:00</time></trkpt><trkpt lat="39.47233393" lon="-0.36934211"><ele>-48.2</ele><time>2022-10-30T15:17:51.0000000+00:00</time></trkpt><trkpt lat="39.47232479" lon="-0.36932945"><ele>-48.2</ele><time>2022-10-30T15:17:52.0000000+00:00</time></trkpt><trkpt lat="39.47231566" lon="-0.36932065"><ele>-48.2</ele><time>2022-10-30T15:17:53.0000000+00:00</time></trkpt><trkpt lat="39.47230937" lon="-0.36931537"><ele>-48.2</ele><time>2022-10-30T15:17:54.0000000+00:00</time></trkpt><trkpt lat="39.47229914" lon="-0.36930556"><ele>-48.2</ele><time>2022-10-30T15:17:55.0000000+00:00</time></trkpt><trkpt lat="39.47229219" lon="-0.36929727"><ele>-48.2</ele><time>2022-10-30T15:17:56.0000000+00:00</time></trkpt><trkpt lat="39.4722864" lon="-0.3692862"><ele>-48.2</ele><time>2022-10-30T15:17:57.0000000+00:00</time></trkpt><trkpt lat="39.47228339" lon="-0.36928101"><ele>-48.2</ele><time>2022-10-30T15:17:58.0000000+00:00</time></trkpt><trkpt lat="39.47228171" lon="-0.36927832"><ele>-48.2</ele><time>2022-10-30T15:17:59.0000000+00:00</time></trkpt><trkpt lat="39.47227643" lon="-0.36925854"><ele>-48.2</ele><time>2022-10-30T15:18:00.0000000+00:00</time></trkpt><trkpt lat="39.4722574" lon="-0.3692303"><ele>-48.2</ele><time>2022-10-30T15:18:01.0000000+00:00</time></trkpt><trkpt lat="39.47224433" lon="-0.36920548"><ele>-48.2</ele><time>2022-10-30T15:18:02.0000000+00:00</time></trkpt><trkpt lat="39.47223871" lon="-0.36918378"><ele>-48.2</ele><time>2022-10-30T15:18:03.0000000+00:00</time></trkpt><trkpt lat="39.47222907" lon="-0.36915913"><ele>-48.2</ele><time>2022-10-30T15:18:04.0000000+00:00</time></trkpt><trkpt lat="39.47221616" lon="-0.36913734"><ele>-48.2</ele><time>2022-10-30T15:18:05.0000000+00:00</time></trkpt><trkpt lat="39.47220258" lon="-0.36912074"><ele>-48.2</ele><time>2022-10-30T15:18:06.0000000+00:00</time></trkpt><trkpt lat="39.47219705" lon="-0.36911136"><ele>-48.2</ele><time>2022-10-30T15:18:07.0000000+00:00</time></trkpt><trkpt lat="39.47219035" lon="-0.36909811"><ele>-48.2</ele><time>2022-10-30T15:18:08.0000000+00:00</time></trkpt><trkpt lat="39.47218599" lon="-0.36909711"><ele>-48.2</ele><time>2022-10-30T15:18:09.0000000+00:00</time></trkpt><trkpt lat="39.47219211" lon="-0.36908018"><ele>-48.2</ele><time>2022-10-30T15:18:10.0000000+00:00</time></trkpt><trkpt lat="39.47219554" lon="-0.36908294"><ele>-48.2</ele><time>2022-10-30T15:18:11.0000000+00:00</time></trkpt><trkpt lat="39.47219789" lon="-0.3690738"><ele>-48.2</ele><time>2022-10-30T15:18:12.0000000+00:00</time></trkpt><trkpt lat="39.47220569" lon="-0.36906341"><ele>-48.2</ele><time>2022-10-30T15:18:13.0000000+00:00</time></trkpt><trkpt lat="39.47220577" lon="-0.36905897"><ele>-48.2</ele><time>2022-10-30T15:18:14.0000000+00:00</time></trkpt><trkpt lat="39.47220904" lon="-0.36905604"><ele>-48.2</ele><time>2022-10-30T15:18:15.0000000+00:00</time></trkpt><trkpt lat="39.47221164" lon="-0.3690521"><ele>-48.2</ele><time>2022-10-30T15:18:16.0000000+00:00</time></trkpt><trkpt lat="39.47220996" lon="-0.36904749"><ele>-48.2</ele><time>2022-10-30T15:18:17.0000000+00:00</time></trkpt><trkpt lat="39.47221097" lon="-0.36904237"><ele>-48.2</ele><time>2022-10-30T15:18:18.0000000+00:00</time></trkpt><trkpt lat="39.47221306" lon="-0.36903994"><ele>-48.2</ele><time>2022-10-30T15:18:19.0000000+00:00</time></trkpt><trkpt lat="39.47221776" lon="-0.36904204"><ele>-48.2</ele><time>2022-10-30T15:18:20.0000000+00:00</time></trkpt><trkpt lat="39.47221298" lon="-0.36903902"><ele>-48.2</ele><time>2022-10-30T15:18:21.0000000+00:00</time></trkpt><trkpt lat="39.47221524" lon="-0.36904455"><ele>-48.2</ele><time>2022-10-30T15:18:22.0000000+00:00</time></trkpt><trkpt lat="39.47220258" lon="-0.36903114"><ele>-48.2</ele><time>2022-10-30T15:18:23.0000000+00:00</time></trkpt><trkpt lat="39.47219672" lon="-0.36901983"><ele>-48.2</ele><time>2022-10-30T15:18:24.0000000+00:00</time></trkpt><trkpt lat="39.47220041" lon="-0.36901857"><ele>-48.2</ele><time>2022-10-30T15:18:25.0000000+00:00</time></trkpt><trkpt lat="39.47219865" lon="-0.3690179"><ele>-48.2</ele><time>2022-10-30T15:18:26.0000000+00:00</time></trkpt><trkpt lat="39.47219865" lon="-0.3690179"><ele>-48.2</ele><time>2022-10-30T15:18:27.0000000+00:00</time></trkpt><trkpt lat="39.47219865" lon="-0.3690179"><ele>-48.2</ele><time>2022-10-30T15:18:28.0000000+00:00</time></trkpt><trkpt lat="39.47220007" lon="-0.36901907"><ele>-48.2</ele><time>2022-10-30T15:18:29.0000000+00:00</time></trkpt><trkpt lat="39.47220108" lon="-0.36902301"><ele>-48.2</ele><time>2022-10-30T15:18:30.0000000+00:00</time></trkpt><trkpt lat="39.47220745" lon="-0.36902812"><ele>-48.2</ele><time>2022-10-30T15:18:31.0000000+00:00</time></trkpt><trkpt lat="39.47221792" lon="-0.36903483"><ele>-48.2</ele><time>2022-10-30T15:18:32.0000000+00:00</time></trkpt><trkpt lat="39.47222781" lon="-0.36904271"><ele>-48.2</ele><time>2022-10-30T15:18:33.0000000+00:00</time></trkpt><trkpt lat="39.47223318" lon="-0.36904983"><ele>-48.2</ele><time>2022-10-30T15:18:34.0000000+00:00</time></trkpt><trkpt lat="39.47224139" lon="-0.3690531"><ele>-48.2</ele><time>2022-10-30T15:18:35.0000000+00:00</time></trkpt><trkpt lat="39.47224382" lon="-0.36905889"><ele>-48.2</ele><time>2022-10-30T15:18:36.0000000+00:00</time></trkpt><trkpt lat="39.472245" lon="-0.3690614"><ele>-48.2</ele><time>2022-10-30T15:18:37.0000000+00:00</time></trkpt><trkpt lat="39.47224676" lon="-0.3690619"><ele>-48.2</ele><time>2022-10-30T15:18:38.0000000+00:00</time></trkpt><trkpt lat="39.47224676" lon="-0.3690619"><ele>-48.2</ele><time>2022-10-30T15:18:39.0000000+00:00</time></trkpt><trkpt lat="39.47224676" lon="-0.3690619"><ele>-48.2</ele><time>2022-10-30T15:18:40.0000000+00:00</time></trkpt><trkpt lat="39.47224676" lon="-0.3690619"><ele>-48.2</ele><time>2022-10-30T15:18:41.0000000+00:00</time></trkpt><trkpt lat="39.47224676" lon="-0.3690619"><ele>-48.2</ele><time>2022-10-30T15:18:42.0000000+00:00</time></trkpt><trkpt lat="39.4722512" lon="-0.36906023"><ele>-48.2</ele><time>2022-10-30T15:18:43.0000000+00:00</time></trkpt><trkpt lat="39.47225992" lon="-0.36904614"><ele>-48.2</ele><time>2022-10-30T15:18:44.0000000+00:00</time></trkpt><trkpt lat="39.47227056" lon="-0.36903885"><ele>-48.2</ele><time>2022-10-30T15:18:45.0000000+00:00</time></trkpt><trkpt lat="39.4722792" lon="-0.36903148"><ele>-48.2</ele><time>2022-10-30T15:18:46.0000000+00:00</time></trkpt><trkpt lat="39.47228976" lon="-0.36902653"><ele>-48.2</ele><time>2022-10-30T15:18:47.0000000+00:00</time></trkpt><trkpt lat="39.4723051" lon="-0.36901848"><ele>-48.2</ele><time>2022-10-30T15:18:48.0000000+00:00</time></trkpt><trkpt lat="39.472317" lon="-0.36899585"><ele>-48.2</ele><time>2022-10-30T15:18:49.0000000+00:00</time></trkpt><trkpt lat="39.47232337" lon="-0.36898647"><ele>-48.2</ele><time>2022-10-30T15:18:50.0000000+00:00</time></trkpt><trkpt lat="39.47233217" lon="-0.36897725"><ele>-48.2</ele><time>2022-10-30T15:18:51.0000000+00:00</time></trkpt><trkpt lat="39.47233846" lon="-0.36897196"><ele>-48.0</ele><time>2022-10-30T15:18:52.0000000+00:00</time></trkpt><trkpt lat="39.47233787" lon="-0.36897456"><ele>-48.2</ele><time>2022-10-30T15:18:53.0000000+00:00</time></trkpt><trkpt lat="39.47233569" lon="-0.36897766"><ele>-48.2</ele><time>2022-10-30T15:18:54.0000000+00:00</time></trkpt><trkpt lat="39.47234105" lon="-0.36896065"><ele>-48.2</ele><time>2022-10-30T15:18:55.0000000+00:00</time></trkpt><trkpt lat="39.47234684" lon="-0.36893978"><ele>-48.2</ele><time>2022-10-30T15:18:56.0000000+00:00</time></trkpt><trkpt lat="39.47235723" lon="-0.36892402"><ele>-48.2</ele><time>2022-10-30T15:18:57.0000000+00:00</time></trkpt><trkpt lat="39.47235966" lon="-0.36891916"><ele>-48.2</ele><time>2022-10-30T15:18:58.0000000+00:00</time></trkpt><trkpt lat="39.47235656" lon="-0.36891799"><ele>-48.2</ele><time>2022-10-30T15:18:59.0000000+00:00</time></trkpt><trkpt lat="39.47235514" lon="-0.36891799"><ele>-48.2</ele><time>2022-10-30T15:19:00.0000000+00:00</time></trkpt><trkpt lat="39.4723553" lon="-0.36890818"><ele>-48.2</ele><time>2022-10-30T15:19:01.0000000+00:00</time></trkpt><trkpt lat="39.47235371" lon="-0.36891287"><ele>-48.2</ele><time>2022-10-30T15:19:02.0000000+00:00</time></trkpt><trkpt lat="39.47235589" lon="-0.36890952"><ele>-48.2</ele><time>2022-10-30T15:19:03.0000000+00:00</time></trkpt><trkpt lat="39.47235405" lon="-0.36891212"><ele>-48.2</ele><time>2022-10-30T15:19:04.0000000+00:00</time></trkpt><trkpt lat="39.47235379" lon="-0.36891229"><ele>-48.0</ele><time>2022-10-30T15:19:05.0000000+00:00</time></trkpt><trkpt lat="39.47235354" lon="-0.36891237"><ele>-47.8</ele><time>2022-10-30T15:19:06.0000000+00:00</time></trkpt><trkpt lat="39.47235354" lon="-0.36891338"><ele>-47.4</ele><time>2022-10-30T15:19:07.0000000+00:00</time></trkpt><trkpt lat="39.47235346" lon="-0.36891321"><ele>-47.4</ele><time>2022-10-30T15:19:08.0000000+00:00</time></trkpt><trkpt lat="39.47235036" lon="-0.36890701"><ele>-47.4</ele><time>2022-10-30T15:19:09.0000000+00:00</time></trkpt><trkpt lat="39.47234474" lon="-0.36890156"><ele>-47.4</ele><time>2022-10-30T15:19:10.0000000+00:00</time></trkpt><trkpt lat="39.47235086" lon="-0.3689029"><ele>-47.4</ele><time>2022-10-30T15:19:11.0000000+00:00</time></trkpt><trkpt lat="39.47235011" lon="-0.36890491"><ele>-47.4</ele><time>2022-10-30T15:19:12.0000000+00:00</time></trkpt><trkpt lat="39.47235161" lon="-0.36890348"><ele>-47.6</ele><time>2022-10-30T15:19:13.0000000+00:00</time></trkpt><trkpt lat="39.47235161" lon="-0.36890181"><ele>-47.6</ele><time>2022-10-30T15:19:14.0000000+00:00</time></trkpt><trkpt lat="39.47235229" lon="-0.36890063"><ele>-47.8</ele><time>2022-10-30T15:19:15.0000000+00:00</time></trkpt><trkpt lat="39.47235413" lon="-0.36890231"><ele>-47.8</ele><time>2022-10-30T15:19:16.0000000+00:00</time></trkpt><trkpt lat="39.47235539" lon="-0.36890365"><ele>-48.0</ele><time>2022-10-30T15:19:17.0000000+00:00</time></trkpt><trkpt lat="39.47235807" lon="-0.3689065"><ele>-48.0</ele><time>2022-10-30T15:19:18.0000000+00:00</time></trkpt><trkpt lat="39.4723605" lon="-0.36890625"><ele>-48.0</ele><time>2022-10-30T15:19:19.0000000+00:00</time></trkpt><trkpt lat="39.47236268" lon="-0.3689055"><ele>-48.0</ele><time>2022-10-30T15:19:20.0000000+00:00</time></trkpt><trkpt lat="39.47236318" lon="-0.3689029"><ele>-48.0</ele><time>2022-10-30T15:19:21.0000000+00:00</time></trkpt><trkpt lat="39.47236327" lon="-0.36889871"><ele>-48.0</ele><time>2022-10-30T15:19:22.0000000+00:00</time></trkpt><trkpt lat="39.47236201" lon="-0.36889292"><ele>-48.0</ele><time>2022-10-30T15:19:23.0000000+00:00</time></trkpt><trkpt lat="39.47236151" lon="-0.36888454"><ele>-48.0</ele><time>2022-10-30T15:19:24.0000000+00:00</time></trkpt><trkpt lat="39.47236645" lon="-0.36886904"><ele>-48.0</ele><time>2022-10-30T15:19:25.0000000+00:00</time></trkpt><trkpt lat="39.47236662" lon="-0.36885973"><ele>-48.0</ele><time>2022-10-30T15:19:26.0000000+00:00</time></trkpt><trkpt lat="39.47236201" lon="-0.36885931"><ele>-48.0</ele><time>2022-10-30T15:19:27.0000000+00:00</time></trkpt><trkpt lat="39.47236436" lon="-0.36885412"><ele>-48.0</ele><time>2022-10-30T15:19:28.0000000+00:00</time></trkpt><trkpt lat="39.47237148" lon="-0.36883668"><ele>-47.8</ele><time>2022-10-30T15:19:29.0000000+00:00</time></trkpt><trkpt lat="39.47237953" lon="-0.36882176"><ele>-47.8</ele><time>2022-10-30T15:19:30.0000000+00:00</time></trkpt><trkpt lat="39.47238036" lon="-0.36881262"><ele>-47.8</ele><time>2022-10-30T15:19:31.0000000+00:00</time></trkpt><trkpt lat="39.47237894" lon="-0.36880651"><ele>-47.8</ele><time>2022-10-30T15:19:32.0000000+00:00</time></trkpt><trkpt lat="39.47238003" lon="-0.36879997"><ele>-47.8</ele><time>2022-10-30T15:19:33.0000000+00:00</time></trkpt><trkpt lat="39.47237835" lon="-0.36879896"><ele>-47.8</ele><time>2022-10-30T15:19:34.0000000+00:00</time></trkpt><trkpt lat="39.47237634" lon="-0.36879469"><ele>-47.8</ele><time>2022-10-30T15:19:35.0000000+00:00</time></trkpt><trkpt lat="39.47237257" lon="-0.36879041"><ele>-47.8</ele><time>2022-10-30T15:19:36.0000000+00:00</time></trkpt><trkpt lat="39.4723698" lon="-0.36878857"><ele>-47.8</ele><time>2022-10-30T15:19:37.0000000+00:00</time></trkpt><trkpt lat="39.4723781" lon="-0.36876996"><ele>-47.8</ele><time>2022-10-30T15:19:38.0000000+00:00</time></trkpt><trkpt lat="39.47238657" lon="-0.36875362"><ele>-47.8</ele><time>2022-10-30T15:19:39.0000000+00:00</time></trkpt><trkpt lat="39.47238246" lon="-0.36874339"><ele>-47.6</ele><time>2022-10-30T15:19:40.0000000+00:00</time></trkpt><trkpt lat="39.47237601" lon="-0.36873694"><ele>-47.6</ele><time>2022-10-30T15:19:41.0000000+00:00</time></trkpt><trkpt lat="39.47236444" lon="-0.36873585"><ele>-47.6</ele><time>2022-10-30T15:19:42.0000000+00:00</time></trkpt><trkpt lat="39.47235916" lon="-0.3687242"><ele>-47.6</ele><time>2022-10-30T15:19:43.0000000+00:00</time></trkpt><trkpt lat="39.47235069" lon="-0.36871674"><ele>-47.6</ele><time>2022-10-30T15:19:44.0000000+00:00</time></trkpt><trkpt lat="39.47234734" lon="-0.36871355"><ele>-47.6</ele><time>2022-10-30T15:19:45.0000000+00:00</time></trkpt><trkpt lat="39.47234483" lon="-0.3687133"><ele>-47.6</ele><time>2022-10-30T15:19:46.0000000+00:00</time></trkpt><trkpt lat="39.47234164" lon="-0.36870995"><ele>-47.8</ele><time>2022-10-30T15:19:47.0000000+00:00</time></trkpt><trkpt lat="39.47233846" lon="-0.36870869"><ele>-47.8</ele><time>2022-10-30T15:19:48.0000000+00:00</time></trkpt><trkpt lat="39.47233443" lon="-0.3687076"><ele>-47.8</ele><time>2022-10-30T15:19:49.0000000+00:00</time></trkpt><trkpt lat="39.47233234" lon="-0.36870358"><ele>-47.8</ele><time>2022-10-30T15:19:50.0000000+00:00</time></trkpt><trkpt lat="39.47233108" lon="-0.36869888"><ele>-47.8</ele><time>2022-10-30T15:19:51.0000000+00:00</time></trkpt><trkpt lat="39.47233167" lon="-0.36869528"><ele>-47.8</ele><time>2022-10-30T15:19:52.0000000+00:00</time></trkpt><trkpt lat="39.47233007" lon="-0.36869176"><ele>-47.8</ele><time>2022-10-30T15:19:53.0000000+00:00</time></trkpt><trkpt lat="39.47232865" lon="-0.36868044"><ele>-47.8</ele><time>2022-10-30T15:19:54.0000000+00:00</time></trkpt><trkpt lat="39.47232278" lon="-0.36866879"><ele>-47.8</ele><time>2022-10-30T15:19:55.0000000+00:00</time></trkpt><trkpt lat="39.47232035" lon="-0.36866544"><ele>-47.8</ele><time>2022-10-30T15:19:56.0000000+00:00</time></trkpt><trkpt lat="39.47231758" lon="-0.36864733"><ele>-47.6</ele><time>2022-10-30T15:19:57.0000000+00:00</time></trkpt><trkpt lat="39.47231507" lon="-0.3686361"><ele>-47.6</ele><time>2022-10-30T15:19:58.0000000+00:00</time></trkpt><trkpt lat="39.47231247" lon="-0.36864063"><ele>-47.6</ele><time>2022-10-30T15:19:59.0000000+00:00</time></trkpt><trkpt lat="39.47231733" lon="-0.36864289"><ele>-47.6</ele><time>2022-10-30T15:20:00.0000000+00:00</time></trkpt><trkpt lat="39.47231256" lon="-0.36864985"><ele>-47.6</ele><time>2022-10-30T15:20:01.0000000+00:00</time></trkpt><trkpt lat="39.4723144" lon="-0.36865454"><ele>-47.6</ele><time>2022-10-30T15:20:02.0000000+00:00</time></trkpt><trkpt lat="39.4723139" lon="-0.36865111"><ele>-47.6</ele><time>2022-10-30T15:20:03.0000000+00:00</time></trkpt><trkpt lat="39.47231557" lon="-0.36864775"><ele>-47.6</ele><time>2022-10-30T15:20:04.0000000+00:00</time></trkpt><trkpt lat="39.47232136" lon="-0.36862956"><ele>-47.6</ele><time>2022-10-30T15:20:05.0000000+00:00</time></trkpt><trkpt lat="39.47232856" lon="-0.36861305"><ele>-47.6</ele><time>2022-10-30T15:20:06.0000000+00:00</time></trkpt><trkpt lat="39.47233695" lon="-0.3685947"><ele>-47.6</ele><time>2022-10-30T15:20:07.0000000+00:00</time></trkpt><trkpt lat="39.47234809" lon="-0.36856955"><ele>-47.6</ele><time>2022-10-30T15:20:08.0000000+00:00</time></trkpt><trkpt lat="39.47233938" lon="-0.36856494"><ele>-47.6</ele><time>2022-10-30T15:20:09.0000000+00:00</time></trkpt><trkpt lat="39.47232404" lon="-0.3685703"><ele>-47.6</ele><time>2022-10-30T15:20:10.0000000+00:00</time></trkpt><trkpt lat="39.4722999" lon="-0.36857617"><ele>-47.6</ele><time>2022-10-30T15:20:11.0000000+00:00</time></trkpt><trkpt lat="39.4722792" lon="-0.36857399"><ele>-47.6</ele><time>2022-10-30T15:20:12.0000000+00:00</time></trkpt><trkpt lat="39.47226159" lon="-0.3685698"><ele>-47.6</ele><time>2022-10-30T15:20:13.0000000+00:00</time></trkpt><trkpt lat="39.47224483" lon="-0.3685667"><ele>-47.6</ele><time>2022-10-30T15:20:14.0000000+00:00</time></trkpt><trkpt lat="39.47222304" lon="-0.36856695"><ele>-47.6</ele><time>2022-10-30T15:20:15.0000000+00:00</time></trkpt><trkpt lat="39.47220803" lon="-0.36855245"><ele>-47.6</ele><time>2022-10-30T15:20:16.0000000+00:00</time></trkpt><trkpt lat="39.47222044" lon="-0.36852001"><ele>-47.6</ele><time>2022-10-30T15:20:17.0000000+00:00</time></trkpt><trkpt lat="39.47221658" lon="-0.36849688"><ele>-47.6</ele><time>2022-10-30T15:20:18.0000000+00:00</time></trkpt><trkpt lat="39.47219839" lon="-0.36849009"><ele>-47.6</ele><time>2022-10-30T15:20:19.0000000+00:00</time></trkpt><trkpt lat="39.47218381" lon="-0.36848933"><ele>-47.6</ele><time>2022-10-30T15:20:20.0000000+00:00</time></trkpt><trkpt lat="39.47218213" lon="-0.36848338"><ele>-47.4</ele><time>2022-10-30T15:20:21.0000000+00:00</time></trkpt><trkpt lat="39.47218867" lon="-0.36847299"><ele>-47.4</ele><time>2022-10-30T15:20:22.0000000+00:00</time></trkpt><trkpt lat="39.47219663" lon="-0.36845421"><ele>-47.6</ele><time>2022-10-30T15:20:23.0000000+00:00</time></trkpt><trkpt lat="39.47220015" lon="-0.36843502"><ele>-47.6</ele><time>2022-10-30T15:20:24.0000000+00:00</time></trkpt><trkpt lat="39.47220367" lon="-0.36841272"><ele>-47.6</ele><time>2022-10-30T15:20:25.0000000+00:00</time></trkpt><trkpt lat="39.47220963" lon="-0.36839127"><ele>-47.6</ele><time>2022-10-30T15:20:26.0000000+00:00</time></trkpt><trkpt lat="39.47221918" lon="-0.36836528"><ele>-47.6</ele><time>2022-10-30T15:20:27.0000000+00:00</time></trkpt><trkpt lat="39.4722248" lon="-0.36835841"><ele>-47.6</ele><time>2022-10-30T15:20:28.0000000+00:00</time></trkpt><trkpt lat="39.47222823" lon="-0.36834735"><ele>-47.6</ele><time>2022-10-30T15:20:29.0000000+00:00</time></trkpt><trkpt lat="39.47222639" lon="-0.36834274"><ele>-47.6</ele><time>2022-10-30T15:20:30.0000000+00:00</time></trkpt><trkpt lat="39.47222589" lon="-0.36833243"><ele>-47.6</ele><time>2022-10-30T15:20:31.0000000+00:00</time></trkpt><trkpt lat="39.47222371" lon="-0.36833234"><ele>-47.6</ele><time>2022-10-30T15:20:32.0000000+00:00</time></trkpt><trkpt lat="39.47222354" lon="-0.36833402"><ele>-47.6</ele><time>2022-10-30T15:20:33.0000000+00:00</time></trkpt><trkpt lat="39.4722315" lon="-0.36833896"><ele>-47.6</ele><time>2022-10-30T15:20:34.0000000+00:00</time></trkpt><trkpt lat="39.47224123" lon="-0.3683305"><ele>-47.6</ele><time>2022-10-30T15:20:35.0000000+00:00</time></trkpt><trkpt lat="39.47224818" lon="-0.36832664"><ele>-47.6</ele><time>2022-10-30T15:20:36.0000000+00:00</time></trkpt><trkpt lat="39.47225455" lon="-0.36832715"><ele>-47.6</ele><time>2022-10-30T15:20:37.0000000+00:00</time></trkpt><trkpt lat="39.47226143" lon="-0.36832346"><ele>-47.6</ele><time>2022-10-30T15:20:38.0000000+00:00</time></trkpt><trkpt lat="39.47226637" lon="-0.36831231"><ele>-47.4</ele><time>2022-10-30T15:20:39.0000000+00:00</time></trkpt><trkpt lat="39.47227358" lon="-0.36831206"><ele>-47.4</ele><time>2022-10-30T15:20:40.0000000+00:00</time></trkpt><trkpt lat="39.4722745" lon="-0.36832237"><ele>-47.4</ele><time>2022-10-30T15:20:41.0000000+00:00</time></trkpt><trkpt lat="39.47227492" lon="-0.368316"><ele>-47.4</ele><time>2022-10-30T15:20:42.0000000+00:00</time></trkpt><trkpt lat="39.47227425" lon="-0.36830175"><ele>-47.4</ele><time>2022-10-30T15:20:43.0000000+00:00</time></trkpt><trkpt lat="39.47227744" lon="-0.3682958"><ele>-47.4</ele><time>2022-10-30T15:20:44.0000000+00:00</time></trkpt><trkpt lat="39.47227324" lon="-0.36824584"><ele>-47.4</ele><time>2022-10-30T15:20:45.0000000+00:00</time></trkpt><trkpt lat="39.47227459" lon="-0.36819748"><ele>-47.4</ele><time>2022-10-30T15:20:46.0000000+00:00</time></trkpt><trkpt lat="39.47227777" lon="-0.36814115"><ele>-47.4</ele><time>2022-10-30T15:20:47.0000000+00:00</time></trkpt><trkpt lat="39.47227526" lon="-0.36813503"><ele>-47.2</ele><time>2022-10-30T15:20:48.0000000+00:00</time></trkpt><trkpt lat="39.47228523" lon="-0.36811106"><ele>-47.4</ele><time>2022-10-30T15:20:49.0000000+00:00</time></trkpt><trkpt lat="39.47229487" lon="-0.36808709"><ele>-47.4</ele><time>2022-10-30T15:20:50.0000000+00:00</time></trkpt><trkpt lat="39.47229998" lon="-0.3680627"><ele>-47.4</ele><time>2022-10-30T15:20:51.0000000+00:00</time></trkpt><trkpt lat="39.47229747" lon="-0.36803043"><ele>-47.4</ele><time>2022-10-30T15:20:52.0000000+00:00</time></trkpt><trkpt lat="39.4722854" lon="-0.36799866"><ele>-47.4</ele><time>2022-10-30T15:20:53.0000000+00:00</time></trkpt><trkpt lat="39.47228288" lon="-0.36797083"><ele>-47.4</ele><time>2022-10-30T15:20:54.0000000+00:00</time></trkpt><trkpt lat="39.47228389" lon="-0.36794736"><ele>-47.2</ele><time>2022-10-30T15:20:55.0000000+00:00</time></trkpt><trkpt lat="39.47228473" lon="-0.36792037"><ele>-47.4</ele><time>2022-10-30T15:20:56.0000000+00:00</time></trkpt><trkpt lat="39.47229294" lon="-0.3678959"><ele>-47.2</ele><time>2022-10-30T15:20:57.0000000+00:00</time></trkpt><trkpt lat="39.47231616" lon="-0.36787218"><ele>-47.2</ele><time>2022-10-30T15:20:58.0000000+00:00</time></trkpt><trkpt lat="39.47234156" lon="-0.36784359"><ele>-47.2</ele><time>2022-10-30T15:20:59.0000000+00:00</time></trkpt><trkpt lat="39.47236176" lon="-0.36781677"><ele>-47.2</ele><time>2022-10-30T15:21:00.0000000+00:00</time></trkpt><trkpt lat="39.47236419" lon="-0.36777629"><ele>-47.2</ele><time>2022-10-30T15:21:01.0000000+00:00</time></trkpt><trkpt lat="39.47237425" lon="-0.36773815"><ele>-47.2</ele><time>2022-10-30T15:21:02.0000000+00:00</time></trkpt><trkpt lat="39.47238154" lon="-0.36768979"><ele>-47.2</ele><time>2022-10-30T15:21:03.0000000+00:00</time></trkpt><trkpt lat="39.47237659" lon="-0.367655"><ele>-47.2</ele><time>2022-10-30T15:21:04.0000000+00:00</time></trkpt><trkpt lat="39.47236159" lon="-0.36762667"><ele>-47.2</ele><time>2022-10-30T15:21:05.0000000+00:00</time></trkpt><trkpt lat="39.47235505" lon="-0.36762055"><ele>-47.2</ele><time>2022-10-30T15:21:06.0000000+00:00</time></trkpt><trkpt lat="39.47234784" lon="-0.36761452"><ele>-47.2</ele><time>2022-10-30T15:21:07.0000000+00:00</time></trkpt><trkpt lat="39.47233158" lon="-0.36760823"><ele>-47.2</ele><time>2022-10-30T15:21:08.0000000+00:00</time></trkpt><trkpt lat="39.47231163" lon="-0.36759968"><ele>-47.2</ele><time>2022-10-30T15:21:09.0000000+00:00</time></trkpt><trkpt lat="39.47229646" lon="-0.36759222"><ele>-47.2</ele><time>2022-10-30T15:21:10.0000000+00:00</time></trkpt><trkpt lat="39.47228657" lon="-0.36758686"><ele>-47.0</ele><time>2022-10-30T15:21:11.0000000+00:00</time></trkpt><trkpt lat="39.4722797" lon="-0.36758476"><ele>-47.0</ele><time>2022-10-30T15:21:12.0000000+00:00</time></trkpt><trkpt lat="39.4722776" lon="-0.36758401"><ele>-47.0</ele><time>2022-10-30T15:21:13.0000000+00:00</time></trkpt><trkpt lat="39.47228523" lon="-0.36758141"><ele>-47.0</ele><time>2022-10-30T15:21:14.0000000+00:00</time></trkpt><trkpt lat="39.47228716" lon="-0.36758292"><ele>-47.0</ele><time>2022-10-30T15:21:15.0000000+00:00</time></trkpt><trkpt lat="39.47229831" lon="-0.36757856"><ele>-46.8</ele><time>2022-10-30T15:21:16.0000000+00:00</time></trkpt><trkpt lat="39.47229479" lon="-0.36754713"><ele>-46.8</ele><time>2022-10-30T15:21:17.0000000+00:00</time></trkpt><trkpt lat="39.47228766" lon="-0.36752215"><ele>-46.8</ele><time>2022-10-30T15:21:18.0000000+00:00</time></trkpt><trkpt lat="39.47227358" lon="-0.36749658"><ele>-46.8</ele><time>2022-10-30T15:21:19.0000000+00:00</time></trkpt><trkpt lat="39.47224919" lon="-0.36745668"><ele>-46.8</ele><time>2022-10-30T15:21:20.0000000+00:00</time></trkpt><trkpt lat="39.47223108" lon="-0.36742567"><ele>-46.8</ele><time>2022-10-30T15:21:21.0000000+00:00</time></trkpt><trkpt lat="39.47221725" lon="-0.36739139"><ele>-46.8</ele><time>2022-10-30T15:21:22.0000000+00:00</time></trkpt><trkpt lat="39.47220996" lon="-0.36736725"><ele>-46.8</ele><time>2022-10-30T15:21:23.0000000+00:00</time></trkpt><trkpt lat="39.47220837" lon="-0.36734856"><ele>-46.8</ele><time>2022-10-30T15:21:24.0000000+00:00</time></trkpt><trkpt lat="39.4722087" lon="-0.36733171"><ele>-46.8</ele><time>2022-10-30T15:21:25.0000000+00:00</time></trkpt><trkpt lat="39.47220267" lon="-0.3673043"><ele>-46.8</ele><time>2022-10-30T15:21:26.0000000+00:00</time></trkpt><trkpt lat="39.47220485" lon="-0.36728418"><ele>-46.8</ele><time>2022-10-30T15:21:27.0000000+00:00</time></trkpt><trkpt lat="39.47221038" lon="-0.36726558"><ele>-46.8</ele><time>2022-10-30T15:21:28.0000000+00:00</time></trkpt><trkpt lat="39.47221952" lon="-0.36724513"><ele>-46.8</ele><time>2022-10-30T15:21:29.0000000+00:00</time></trkpt><trkpt lat="39.47223083" lon="-0.36722526"><ele>-46.8</ele><time>2022-10-30T15:21:30.0000000+00:00</time></trkpt><trkpt lat="39.47224533" lon="-0.36720707"><ele>-46.6</ele><time>2022-10-30T15:21:31.0000000+00:00</time></trkpt><trkpt lat="39.47225908" lon="-0.36718871"><ele>-46.6</ele><time>2022-10-30T15:21:32.0000000+00:00</time></trkpt><trkpt lat="39.47227215" lon="-0.3671691"><ele>-46.6</ele><time>2022-10-30T15:21:33.0000000+00:00</time></trkpt><trkpt lat="39.4722802" lon="-0.36714488"><ele>-46.6</ele><time>2022-10-30T15:21:34.0000000+00:00</time></trkpt><trkpt lat="39.47229235" lon="-0.36711504"><ele>-46.6</ele><time>2022-10-30T15:21:35.0000000+00:00</time></trkpt><trkpt lat="39.47231331" lon="-0.3670904"><ele>-46.6</ele><time>2022-10-30T15:21:36.0000000+00:00</time></trkpt><trkpt lat="39.47232974" lon="-0.36705494"><ele>-46.6</ele><time>2022-10-30T15:21:37.0000000+00:00</time></trkpt><trkpt lat="39.47234483" lon="-0.36702669"><ele>-46.6</ele><time>2022-10-30T15:21:38.0000000+00:00</time></trkpt><trkpt lat="39.47236637" lon="-0.36700725"><ele>-46.6</ele><time>2022-10-30T15:21:39.0000000+00:00</time></trkpt><trkpt lat="39.47237911" lon="-0.36697783"><ele>-46.6</ele><time>2022-10-30T15:21:40.0000000+00:00</time></trkpt><trkpt lat="39.47240015" lon="-0.36695318"><ele>-46.4</ele><time>2022-10-30T15:21:41.0000000+00:00</time></trkpt><trkpt lat="39.47242512" lon="-0.3669308"><ele>-46.4</ele><time>2022-10-30T15:21:42.0000000+00:00</time></trkpt><trkpt lat="39.4724434" lon="-0.3669044"><ele>-46.6</ele><time>2022-10-30T15:21:43.0000000+00:00</time></trkpt><trkpt lat="39.47246594" lon="-0.36687523"><ele>-46.6</ele><time>2022-10-30T15:21:44.0000000+00:00</time></trkpt><trkpt lat="39.47250718" lon="-0.36687607"><ele>-46.6</ele><time>2022-10-30T15:21:45.0000000+00:00</time></trkpt><trkpt lat="39.47254943" lon="-0.36688227"><ele>-46.6</ele><time>2022-10-30T15:21:46.0000000+00:00</time></trkpt><trkpt lat="39.47257759" lon="-0.36688663"><ele>-46.6</ele><time>2022-10-30T15:21:47.0000000+00:00</time></trkpt><trkpt lat="39.47259435" lon="-0.36688294"><ele>-46.6</ele><time>2022-10-30T15:21:48.0000000+00:00</time></trkpt><trkpt lat="39.47260844" lon="-0.36687674"><ele>-46.6</ele><time>2022-10-30T15:21:49.0000000+00:00</time></trkpt><trkpt lat="39.47262336" lon="-0.36687314"><ele>-46.6</ele><time>2022-10-30T15:21:50.0000000+00:00</time></trkpt><trkpt lat="39.47263434" lon="-0.36687406"><ele>-46.6</ele><time>2022-10-30T15:21:51.0000000+00:00</time></trkpt><trkpt lat="39.47264431" lon="-0.3668754"><ele>-46.4</ele><time>2022-10-30T15:21:52.0000000+00:00</time></trkpt><trkpt lat="39.47264548" lon="-0.36687314"><ele>-46.4</ele><time>2022-10-30T15:21:53.0000000+00:00</time></trkpt><trkpt lat="39.47264733" lon="-0.36687389"><ele>-46.4</ele><time>2022-10-30T15:21:54.0000000+00:00</time></trkpt><trkpt lat="39.47265931" lon="-0.36688278"><ele>-46.4</ele><time>2022-10-30T15:21:55.0000000+00:00</time></trkpt><trkpt lat="39.4726739" lon="-0.36689434"><ele>-46.4</ele><time>2022-10-30T15:21:56.0000000+00:00</time></trkpt><trkpt lat="39.47268748" lon="-0.36689811"><ele>-46.4</ele><time>2022-10-30T15:21:57.0000000+00:00</time></trkpt><trkpt lat="39.47270223" lon="-0.36690289"><ele>-46.4</ele><time>2022-10-30T15:21:58.0000000+00:00</time></trkpt><trkpt lat="39.47270692" lon="-0.36690474"><ele>-46.6</ele><time>2022-10-30T15:21:59.0000000+00:00</time></trkpt><trkpt lat="39.47273727" lon="-0.36692753"><ele>-46.6</ele><time>2022-10-30T15:22:00.0000000+00:00</time></trkpt><trkpt lat="39.47275269" lon="-0.36693701"><ele>-46.6</ele><time>2022-10-30T15:22:01.0000000+00:00</time></trkpt><trkpt lat="39.47276677" lon="-0.36695067"><ele>-47.2</ele><time>2022-10-30T15:22:02.0000000+00:00</time></trkpt><trkpt lat="39.47277582" lon="-0.36695"><ele>-47.2</ele><time>2022-10-30T15:22:03.0000000+00:00</time></trkpt><trkpt lat="39.4727941" lon="-0.36694463"><ele>-47.2</ele><time>2022-10-30T15:22:04.0000000+00:00</time></trkpt><trkpt lat="39.4728127" lon="-0.36694748"><ele>-47.8</ele><time>2022-10-30T15:22:05.0000000+00:00</time></trkpt><trkpt lat="39.47283081" lon="-0.3669474"><ele>-47.8</ele><time>2022-10-30T15:22:06.0000000+00:00</time></trkpt><trkpt lat="39.47285562" lon="-0.36695452"><ele>-48.0</ele><time>2022-10-30T15:22:07.0000000+00:00</time></trkpt><trkpt lat="39.47287548" lon="-0.36695955"><ele>-48.4</ele><time>2022-10-30T15:22:08.0000000+00:00</time></trkpt><trkpt lat="39.47288638" lon="-0.36695813"><ele>-48.4</ele><time>2022-10-30T15:22:09.0000000+00:00</time></trkpt><trkpt lat="39.47291044" lon="-0.36695042"><ele>-48.8</ele><time>2022-10-30T15:22:10.0000000+00:00</time></trkpt><trkpt lat="39.47291857" lon="-0.36695905"><ele>-49.0</ele><time>2022-10-30T15:22:11.0000000+00:00</time></trkpt><trkpt lat="39.47292309" lon="-0.36696198"><ele>-49.0</ele><time>2022-10-30T15:22:12.0000000+00:00</time></trkpt><trkpt lat="39.47293424" lon="-0.36697791"><ele>-49.2</ele><time>2022-10-30T15:22:13.0000000+00:00</time></trkpt><trkpt lat="39.47292603" lon="-0.3669821"><ele>-49.8</ele><time>2022-10-30T15:22:14.0000000+00:00</time></trkpt><trkpt lat="39.47291848" lon="-0.36697925"><ele>-49.8</ele><time>2022-10-30T15:22:15.0000000+00:00</time></trkpt><trkpt lat="39.47290574" lon="-0.36697615"><ele>-50.0</ele><time>2022-10-30T15:22:16.0000000+00:00</time></trkpt><trkpt lat="39.47291002" lon="-0.36697707"><ele>-50.0</ele><time>2022-10-30T15:22:17.0000000+00:00</time></trkpt><trkpt lat="39.47291479" lon="-0.36697263"><ele>-50.2</ele><time>2022-10-30T15:22:18.0000000+00:00</time></trkpt><trkpt lat="39.47292217" lon="-0.36696391"><ele>-50.2</ele><time>2022-10-30T15:22:19.0000000+00:00</time></trkpt><trkpt lat="39.4729365" lon="-0.36695763"><ele>-50.2</ele><time>2022-10-30T15:22:20.0000000+00:00</time></trkpt><trkpt lat="39.47295335" lon="-0.36695"><ele>-50.0</ele><time>2022-10-30T15:22:21.0000000+00:00</time></trkpt><trkpt lat="39.47297179" lon="-0.36693935"><ele>-50.0</ele><time>2022-10-30T15:22:22.0000000+00:00</time></trkpt><trkpt lat="39.47298043" lon="-0.36693399"><ele>-50.0</ele><time>2022-10-30T15:22:23.0000000+00:00</time></trkpt><trkpt lat="39.4729935" lon="-0.36692661"><ele>-50.0</ele><time>2022-10-30T15:22:24.0000000+00:00</time></trkpt><trkpt lat="39.47300993" lon="-0.36691949"><ele>-50.0</ele><time>2022-10-30T15:22:25.0000000+00:00</time></trkpt><trkpt lat="39.473022" lon="-0.36690759"><ele>-50.0</ele><time>2022-10-30T15:22:26.0000000+00:00</time></trkpt><trkpt lat="39.47302845" lon="-0.36689744"><ele>-50.0</ele><time>2022-10-30T15:22:27.0000000+00:00</time></trkpt><trkpt lat="39.47303885" lon="-0.36689267"><ele>-50.0</ele><time>2022-10-30T15:22:28.0000000+00:00</time></trkpt><trkpt lat="39.47304958" lon="-0.366893"><ele>-50.0</ele><time>2022-10-30T15:22:29.0000000+00:00</time></trkpt><trkpt lat="39.47306139" lon="-0.36687406"><ele>-50.0</ele><time>2022-10-30T15:22:30.0000000+00:00</time></trkpt><trkpt lat="39.47307204" lon="-0.36686308"><ele>-50.0</ele><time>2022-10-30T15:22:31.0000000+00:00</time></trkpt><trkpt lat="39.47308629" lon="-0.36685319"><ele>-50.0</ele><time>2022-10-30T15:22:32.0000000+00:00</time></trkpt><trkpt lat="39.47309149" lon="-0.36683215"><ele>-50.0</ele><time>2022-10-30T15:22:33.0000000+00:00</time></trkpt><trkpt lat="39.47309827" lon="-0.36681279"><ele>-50.0</ele><time>2022-10-30T15:22:34.0000000+00:00</time></trkpt><trkpt lat="39.4730997" lon="-0.36680072"><ele>-50.0</ele><time>2022-10-30T15:22:35.0000000+00:00</time></trkpt><trkpt lat="39.47310263" lon="-0.3668003"><ele>-50.0</ele><time>2022-10-30T15:22:36.0000000+00:00</time></trkpt><trkpt lat="39.47310557" lon="-0.36679091"><ele>-50.0</ele><time>2022-10-30T15:22:37.0000000+00:00</time></trkpt><trkpt lat="39.47311018" lon="-0.3667801"><ele>-50.0</ele><time>2022-10-30T15:22:38.0000000+00:00</time></trkpt><trkpt lat="39.47311412" lon="-0.36677289"><ele>-50.0</ele><time>2022-10-30T15:22:39.0000000+00:00</time></trkpt><trkpt lat="39.47311814" lon="-0.36676887"><ele>-50.0</ele><time>2022-10-30T15:22:40.0000000+00:00</time></trkpt><trkpt lat="39.47312585" lon="-0.36676124"><ele>-50.0</ele><time>2022-10-30T15:22:41.0000000+00:00</time></trkpt><trkpt lat="39.47313339" lon="-0.36674439"><ele>-50.0</ele><time>2022-10-30T15:22:42.0000000+00:00</time></trkpt><trkpt lat="39.47313792" lon="-0.36672939"><ele>-49.8</ele><time>2022-10-30T15:22:43.0000000+00:00</time></trkpt><trkpt lat="39.47314731" lon="-0.36671229"><ele>-49.8</ele><time>2022-10-30T15:22:44.0000000+00:00</time></trkpt><trkpt lat="39.47316424" lon="-0.3666894"><ele>-49.8</ele><time>2022-10-30T15:22:45.0000000+00:00</time></trkpt><trkpt lat="39.47317681" lon="-0.36666459"><ele>-49.8</ele><time>2022-10-30T15:22:46.0000000+00:00</time></trkpt><trkpt lat="39.47318243" lon="-0.36664842"><ele>-49.8</ele><time>2022-10-30T15:22:47.0000000+00:00</time></trkpt><trkpt lat="39.47319098" lon="-0.36662553"><ele>-49.8</ele><time>2022-10-30T15:22:48.0000000+00:00</time></trkpt><trkpt lat="39.47320271" lon="-0.36661087"><ele>-49.8</ele><time>2022-10-30T15:22:49.0000000+00:00</time></trkpt><trkpt lat="39.47320992" lon="-0.36661045"><ele>-49.8</ele><time>2022-10-30T15:22:50.0000000+00:00</time></trkpt><trkpt lat="39.47321931" lon="-0.36661564"><ele>-49.8</ele><time>2022-10-30T15:22:51.0000000+00:00</time></trkpt><trkpt lat="39.47321713" lon="-0.36659377"><ele>-49.8</ele><time>2022-10-30T15:22:52.0000000+00:00</time></trkpt><trkpt lat="39.47322593" lon="-0.36658497"><ele>-49.8</ele><time>2022-10-30T15:22:53.0000000+00:00</time></trkpt><trkpt lat="39.47323448" lon="-0.36657373"><ele>-49.8</ele><time>2022-10-30T15:22:54.0000000+00:00</time></trkpt><trkpt lat="39.4732432" lon="-0.36656125"><ele>-49.6</ele><time>2022-10-30T15:22:55.0000000+00:00</time></trkpt><trkpt lat="39.47325032" lon="-0.36654725"><ele>-49.6</ele><time>2022-10-30T15:22:56.0000000+00:00</time></trkpt><trkpt lat="39.47325954" lon="-0.36653602"><ele>-49.6</ele><time>2022-10-30T15:22:57.0000000+00:00</time></trkpt><trkpt lat="39.47326709" lon="-0.36652353"><ele>-49.6</ele><time>2022-10-30T15:22:58.0000000+00:00</time></trkpt><trkpt lat="39.47327538" lon="-0.36651238"><ele>-49.6</ele><time>2022-10-30T15:22:59.0000000+00:00</time></trkpt><trkpt lat="39.47328435" lon="-0.36650869"><ele>-49.6</ele><time>2022-10-30T15:23:00.0000000+00:00</time></trkpt><trkpt lat="39.47329165" lon="-0.36649587"><ele>-49.6</ele><time>2022-10-30T15:23:01.0000000+00:00</time></trkpt><trkpt lat="39.47329978" lon="-0.36648262"><ele>-49.6</ele><time>2022-10-30T15:23:02.0000000+00:00</time></trkpt><trkpt lat="39.47330941" lon="-0.3664693"><ele>-49.6</ele><time>2022-10-30T15:23:03.0000000+00:00</time></trkpt><trkpt lat="39.47331403" lon="-0.3664522"><ele>-49.6</ele><time>2022-10-30T15:23:04.0000000+00:00</time></trkpt><trkpt lat="39.47331369" lon="-0.36642722"><ele>-49.6</ele><time>2022-10-30T15:23:05.0000000+00:00</time></trkpt><trkpt lat="39.47331403" lon="-0.36641129"><ele>-49.6</ele><time>2022-10-30T15:23:06.0000000+00:00</time></trkpt><trkpt lat="39.47332308" lon="-0.36639738"><ele>-49.6</ele><time>2022-10-30T15:23:07.0000000+00:00</time></trkpt><trkpt lat="39.4733333" lon="-0.36639235"><ele>-49.6</ele><time>2022-10-30T15:23:08.0000000+00:00</time></trkpt><trkpt lat="39.47334537" lon="-0.3663843"><ele>-49.6</ele><time>2022-10-30T15:23:09.0000000+00:00</time></trkpt><trkpt lat="39.47336968" lon="-0.36639629"><ele>-49.4</ele><time>2022-10-30T15:23:10.0000000+00:00</time></trkpt><trkpt lat="39.47338343" lon="-0.36639654"><ele>-49.4</ele><time>2022-10-30T15:23:11.0000000+00:00</time></trkpt><trkpt lat="39.47338888" lon="-0.36638514"><ele>-49.4</ele><time>2022-10-30T15:23:12.0000000+00:00</time></trkpt><trkpt lat="39.47339491" lon="-0.36637081"><ele>-49.4</ele><time>2022-10-30T15:23:13.0000000+00:00</time></trkpt><trkpt lat="39.47339776" lon="-0.36635564"><ele>-49.4</ele><time>2022-10-30T15:23:14.0000000+00:00</time></trkpt><trkpt lat="39.47339952" lon="-0.3663382"><ele>-49.4</ele><time>2022-10-30T15:23:15.0000000+00:00</time></trkpt><trkpt lat="39.47340036" lon="-0.3663201"><ele>-49.4</ele><time>2022-10-30T15:23:16.0000000+00:00</time></trkpt><trkpt lat="39.47340011" lon="-0.36630685"><ele>-49.4</ele><time>2022-10-30T15:23:17.0000000+00:00</time></trkpt><trkpt lat="39.47340354" lon="-0.36630124"><ele>-49.4</ele><time>2022-10-30T15:23:18.0000000+00:00</time></trkpt><trkpt lat="39.47340866" lon="-0.3662999"><ele>-49.4</ele><time>2022-10-30T15:23:19.0000000+00:00</time></trkpt><trkpt lat="39.47341427" lon="-0.36630241"><ele>-49.4</ele><time>2022-10-30T15:23:20.0000000+00:00</time></trkpt><trkpt lat="39.47341972" lon="-0.36630468"><ele>-49.4</ele><time>2022-10-30T15:23:21.0000000+00:00</time></trkpt><trkpt lat="39.47342165" lon="-0.36630359"><ele>-49.2</ele><time>2022-10-30T15:23:22.0000000+00:00</time></trkpt><trkpt lat="39.47342743" lon="-0.36630702"><ele>-49.2</ele><time>2022-10-30T15:23:23.0000000+00:00</time></trkpt><trkpt lat="39.47343657" lon="-0.36631557"><ele>-49.2</ele><time>2022-10-30T15:23:24.0000000+00:00</time></trkpt><trkpt lat="39.47344537" lon="-0.36632647"><ele>-49.2</ele><time>2022-10-30T15:23:25.0000000+00:00</time></trkpt><trkpt lat="39.47345333" lon="-0.36633393"><ele>-49.2</ele><time>2022-10-30T15:23:26.0000000+00:00</time></trkpt><trkpt lat="39.47345836" lon="-0.36634089"><ele>-49.2</ele><time>2022-10-30T15:23:27.0000000+00:00</time></trkpt><trkpt lat="39.47346943" lon="-0.3663522"><ele>-49.2</ele><time>2022-10-30T15:23:28.0000000+00:00</time></trkpt><trkpt lat="39.47348418" lon="-0.36635874"><ele>-49.0</ele><time>2022-10-30T15:23:29.0000000+00:00</time></trkpt><trkpt lat="39.47349206" lon="-0.36635539"><ele>-49.0</ele><time>2022-10-30T15:23:30.0000000+00:00</time></trkpt><trkpt lat="39.47349977" lon="-0.36636075"><ele>-49.0</ele><time>2022-10-30T15:23:31.0000000+00:00</time></trkpt><trkpt lat="39.47350999" lon="-0.36636813"><ele>-49.0</ele><time>2022-10-30T15:23:32.0000000+00:00</time></trkpt><trkpt lat="39.47351921" lon="-0.3663745"><ele>-49.0</ele><time>2022-10-30T15:23:33.0000000+00:00</time></trkpt><trkpt lat="39.47352248" lon="-0.36637466"><ele>-49.0</ele><time>2022-10-30T15:23:34.0000000+00:00</time></trkpt><trkpt lat="39.47352382" lon="-0.36637383"><ele>-49.0</ele><time>2022-10-30T15:23:35.0000000+00:00</time></trkpt><trkpt lat="39.47352449" lon="-0.36637265"><ele>-49.0</ele><time>2022-10-30T15:23:36.0000000+00:00</time></trkpt><trkpt lat="39.473525" lon="-0.36637215"><ele>-49.0</ele><time>2022-10-30T15:23:37.0000000+00:00</time></trkpt><trkpt lat="39.47352567" lon="-0.36637173"><ele>-48.8</ele><time>2022-10-30T15:23:38.0000000+00:00</time></trkpt><trkpt lat="39.47352693" lon="-0.36637031"><ele>-49.0</ele><time>2022-10-30T15:23:39.0000000+00:00</time></trkpt><trkpt lat="39.47352718" lon="-0.36636947"><ele>-48.8</ele><time>2022-10-30T15:23:40.0000000+00:00</time></trkpt><trkpt lat="39.47352676" lon="-0.36636913"><ele>-48.8</ele><time>2022-10-30T15:23:41.0000000+00:00</time></trkpt><trkpt lat="39.47352592" lon="-0.36636938"><ele>-48.8</ele><time>2022-10-30T15:23:42.0000000+00:00</time></trkpt><trkpt lat="39.473526" lon="-0.36636922"><ele>-48.8</ele><time>2022-10-30T15:23:43.0000000+00:00</time></trkpt><trkpt lat="39.47352592" lon="-0.3663693"><ele>-48.8</ele><time>2022-10-30T15:23:44.0000000+00:00</time></trkpt><trkpt lat="39.47352592" lon="-0.3663693"><ele>-48.8</ele><time>2022-10-30T15:23:45.0000000+00:00</time></trkpt><trkpt lat="39.47352592" lon="-0.3663693"><ele>-48.8</ele><time>2022-10-30T15:23:46.0000000+00:00</time></trkpt><trkpt lat="39.47352592" lon="-0.3663693"><ele>-48.8</ele><time>2022-10-30T15:23:47.0000000+00:00</time></trkpt><trkpt lat="39.47352592" lon="-0.3663693"><ele>-48.8</ele><time>2022-10-30T15:23:48.0000000+00:00</time></trkpt><trkpt lat="39.47352592" lon="-0.3663693"><ele>-48.8</ele><time>2022-10-30T15:23:49.0000000+00:00</time></trkpt><trkpt lat="39.47352592" lon="-0.3663693"><ele>-48.8</ele><time>2022-10-30T15:23:50.0000000+00:00</time></trkpt><trkpt lat="39.47352592" lon="-0.3663693"><ele>-48.8</ele><time>2022-10-30T15:23:51.0000000+00:00</time></trkpt><trkpt lat="39.47352592" lon="-0.3663693"><ele>-48.8</ele><time>2022-10-30T15:23:52.0000000+00:00</time></trkpt><trkpt lat="39.47352592" lon="-0.3663693"><ele>-48.8</ele><time>2022-10-30T15:23:53.0000000+00:00</time></trkpt><trkpt lat="39.47352986" lon="-0.36637156"><ele>-48.8</ele><time>2022-10-30T15:23:54.0000000+00:00</time></trkpt><trkpt lat="39.47353975" lon="-0.36637869"><ele>-48.8</ele><time>2022-10-30T15:23:55.0000000+00:00</time></trkpt><trkpt lat="39.47355031" lon="-0.36638849"><ele>-48.8</ele><time>2022-10-30T15:23:56.0000000+00:00</time></trkpt><trkpt lat="39.47356171" lon="-0.36639897"><ele>-48.8</ele><time>2022-10-30T15:23:57.0000000+00:00</time></trkpt><trkpt lat="39.4735737" lon="-0.36641012"><ele>-48.8</ele><time>2022-10-30T15:23:58.0000000+00:00</time></trkpt><trkpt lat="39.47358803" lon="-0.36642814"><ele>-48.8</ele><time>2022-10-30T15:23:59.0000000+00:00</time></trkpt><trkpt lat="39.47360219" lon="-0.36644197"><ele>-48.8</ele><time>2022-10-30T15:24:00.0000000+00:00</time></trkpt><trkpt lat="39.47361854" lon="-0.36645404"><ele>-48.8</ele><time>2022-10-30T15:24:01.0000000+00:00</time></trkpt><trkpt lat="39.47363455" lon="-0.36646251"><ele>-48.8</ele><time>2022-10-30T15:24:02.0000000+00:00</time></trkpt><trkpt lat="39.47365064" lon="-0.36647047"><ele>-48.8</ele><time>2022-10-30T15:24:03.0000000+00:00</time></trkpt><trkpt lat="39.47366053" lon="-0.36647567"><ele>-48.6</ele><time>2022-10-30T15:24:04.0000000+00:00</time></trkpt><trkpt lat="39.47366975" lon="-0.36648036"><ele>-48.6</ele><time>2022-10-30T15:24:05.0000000+00:00</time></trkpt><trkpt lat="39.47367906" lon="-0.36648229"><ele>-48.6</ele><time>2022-10-30T15:24:06.0000000+00:00</time></trkpt><trkpt lat="39.47369155" lon="-0.36649134"><ele>-48.4</ele><time>2022-10-30T15:24:07.0000000+00:00</time></trkpt><trkpt lat="39.47371091" lon="-0.36650249"><ele>-48.4</ele><time>2022-10-30T15:24:08.0000000+00:00</time></trkpt><trkpt lat="39.47372558" lon="-0.36651188"><ele>-48.4</ele><time>2022-10-30T15:24:09.0000000+00:00</time></trkpt><trkpt lat="39.4737384" lon="-0.36652336"><ele>-48.4</ele><time>2022-10-30T15:24:10.0000000+00:00</time></trkpt><trkpt lat="39.47374787" lon="-0.366534"><ele>-48.4</ele><time>2022-10-30T15:24:11.0000000+00:00</time></trkpt><trkpt lat="39.47375391" lon="-0.366547"><ele>-48.6</ele><time>2022-10-30T15:24:12.0000000+00:00</time></trkpt><trkpt lat="39.47376472" lon="-0.36656158"><ele>-48.6</ele><time>2022-10-30T15:24:13.0000000+00:00</time></trkpt><trkpt lat="39.47377344" lon="-0.36656586"><ele>-48.6</ele><time>2022-10-30T15:24:14.0000000+00:00</time></trkpt><trkpt lat="39.47377956" lon="-0.36656837"><ele>-48.6</ele><time>2022-10-30T15:24:15.0000000+00:00</time></trkpt><trkpt lat="39.4737907" lon="-0.36657441"><ele>-48.6</ele><time>2022-10-30T15:24:16.0000000+00:00</time></trkpt><trkpt lat="39.47380286" lon="-0.36658086"><ele>-48.6</ele><time>2022-10-30T15:24:17.0000000+00:00</time></trkpt><trkpt lat="39.47381577" lon="-0.36658731"><ele>-48.4</ele><time>2022-10-30T15:24:18.0000000+00:00</time></trkpt><trkpt lat="39.47382767" lon="-0.3665931"><ele>-48.4</ele><time>2022-10-30T15:24:19.0000000+00:00</time></trkpt><trkpt lat="39.47383873" lon="-0.36659804"><ele>-48.4</ele><time>2022-10-30T15:24:20.0000000+00:00</time></trkpt><trkpt lat="39.4738508" lon="-0.36661179"><ele>-48.4</ele><time>2022-10-30T15:24:21.0000000+00:00</time></trkpt><trkpt lat="39.47386044" lon="-0.3666252"><ele>-48.4</ele><time>2022-10-30T15:24:22.0000000+00:00</time></trkpt><trkpt lat="39.4738679" lon="-0.36663056"><ele>-48.4</ele><time>2022-10-30T15:24:23.0000000+00:00</time></trkpt><trkpt lat="39.47387662" lon="-0.36663333"><ele>-48.4</ele><time>2022-10-30T15:24:24.0000000+00:00</time></trkpt><trkpt lat="39.4738819" lon="-0.36663383"><ele>-48.4</ele><time>2022-10-30T15:24:25.0000000+00:00</time></trkpt><trkpt lat="39.47388869" lon="-0.36663928"><ele>-48.4</ele><time>2022-10-30T15:24:26.0000000+00:00</time></trkpt><trkpt lat="39.47389757" lon="-0.36664842"><ele>-48.4</ele><time>2022-10-30T15:24:27.0000000+00:00</time></trkpt><trkpt lat="39.47390797" lon="-0.3666625"><ele>-48.4</ele><time>2022-10-30T15:24:28.0000000+00:00</time></trkpt><trkpt lat="39.47391828" lon="-0.36667608"><ele>-48.4</ele><time>2022-10-30T15:24:29.0000000+00:00</time></trkpt><trkpt lat="39.47392616" lon="-0.36668957"><ele>-48.4</ele><time>2022-10-30T15:24:30.0000000+00:00</time></trkpt><trkpt lat="39.47393303" lon="-0.36669888"><ele>-48.4</ele><time>2022-10-30T15:24:31.0000000+00:00</time></trkpt><trkpt lat="39.47394149" lon="-0.36670592"><ele>-48.4</ele><time>2022-10-30T15:24:32.0000000+00:00</time></trkpt><trkpt lat="39.47394912" lon="-0.36671564"><ele>-48.4</ele><time>2022-10-30T15:24:33.0000000+00:00</time></trkpt><trkpt lat="39.47395532" lon="-0.36672997"><ele>-48.4</ele><time>2022-10-30T15:24:34.0000000+00:00</time></trkpt><trkpt lat="39.47396748" lon="-0.36674037"><ele>-48.4</ele><time>2022-10-30T15:24:35.0000000+00:00</time></trkpt><trkpt lat="39.47397829" lon="-0.36675185"><ele>-48.4</ele><time>2022-10-30T15:24:36.0000000+00:00</time></trkpt><trkpt lat="39.47399011" lon="-0.36676107"><ele>-48.4</ele><time>2022-10-30T15:24:37.0000000+00:00</time></trkpt><trkpt lat="39.47400168" lon="-0.3667692"><ele>-48.4</ele><time>2022-10-30T15:24:38.0000000+00:00</time></trkpt><trkpt lat="39.47401299" lon="-0.36677741"><ele>-48.4</ele><time>2022-10-30T15:24:39.0000000+00:00</time></trkpt><trkpt lat="39.47402339" lon="-0.36678404"><ele>-48.2</ele><time>2022-10-30T15:24:40.0000000+00:00</time></trkpt><trkpt lat="39.4740321" lon="-0.36679133"><ele>-48.2</ele><time>2022-10-30T15:24:41.0000000+00:00</time></trkpt><trkpt lat="39.4740399" lon="-0.36679627"><ele>-48.2</ele><time>2022-10-30T15:24:42.0000000+00:00</time></trkpt><trkpt lat="39.47404862" lon="-0.3668029"><ele>-48.2</ele><time>2022-10-30T15:24:43.0000000+00:00</time></trkpt><trkpt lat="39.47405733" lon="-0.36681044"><ele>-48.2</ele><time>2022-10-30T15:24:44.0000000+00:00</time></trkpt><trkpt lat="39.47406798" lon="-0.3668174"><ele>-48.2</ele><time>2022-10-30T15:24:45.0000000+00:00</time></trkpt><trkpt lat="39.47408038" lon="-0.36682477"><ele>-48.2</ele><time>2022-10-30T15:24:46.0000000+00:00</time></trkpt><trkpt lat="39.47409136" lon="-0.36683232"><ele>-48.2</ele><time>2022-10-30T15:24:47.0000000+00:00</time></trkpt><trkpt lat="39.47410008" lon="-0.36684305"><ele>-48.2</ele><time>2022-10-30T15:24:48.0000000+00:00</time></trkpt><trkpt lat="39.47410762" lon="-0.36685654"><ele>-48.2</ele><time>2022-10-30T15:24:49.0000000+00:00</time></trkpt><trkpt lat="39.47411626" lon="-0.36686542"><ele>-48.2</ele><time>2022-10-30T15:24:50.0000000+00:00</time></trkpt><trkpt lat="39.47412615" lon="-0.36687439"><ele>-48.0</ele><time>2022-10-30T15:24:51.0000000+00:00</time></trkpt><trkpt lat="39.47413947" lon="-0.36688051"><ele>-48.0</ele><time>2022-10-30T15:24:52.0000000+00:00</time></trkpt><trkpt lat="39.47414962" lon="-0.36689065"><ele>-48.0</ele><time>2022-10-30T15:24:53.0000000+00:00</time></trkpt><trkpt lat="39.47415984" lon="-0.3668987"><ele>-48.0</ele><time>2022-10-30T15:24:54.0000000+00:00</time></trkpt><trkpt lat="39.47416923" lon="-0.36690692"><ele>-48.0</ele><time>2022-10-30T15:24:55.0000000+00:00</time></trkpt><trkpt lat="39.47417853" lon="-0.36691873"><ele>-48.0</ele><time>2022-10-30T15:24:56.0000000+00:00</time></trkpt><trkpt lat="39.47418801" lon="-0.36692846"><ele>-48.0</ele><time>2022-10-30T15:24:57.0000000+00:00</time></trkpt><trkpt lat="39.47419832" lon="-0.36694011"><ele>-48.0</ele><time>2022-10-30T15:24:58.0000000+00:00</time></trkpt><trkpt lat="39.47420762" lon="-0.36694665"><ele>-48.0</ele><time>2022-10-30T15:24:59.0000000+00:00</time></trkpt><trkpt lat="39.47421751" lon="-0.36695017"><ele>-48.0</ele><time>2022-10-30T15:25:00.0000000+00:00</time></trkpt><trkpt lat="39.47422748" lon="-0.36695628"><ele>-48.0</ele><time>2022-10-30T15:25:01.0000000+00:00</time></trkpt><trkpt lat="39.47423729" lon="-0.36696492"><ele>-48.0</ele><time>2022-10-30T15:25:02.0000000+00:00</time></trkpt><trkpt lat="39.47424685" lon="-0.36696844"><ele>-48.0</ele><time>2022-10-30T15:25:03.0000000+00:00</time></trkpt><trkpt lat="39.47425917" lon="-0.36697364"><ele>-48.0</ele><time>2022-10-30T15:25:04.0000000+00:00</time></trkpt><trkpt lat="39.47427132" lon="-0.36697682"><ele>-48.0</ele><time>2022-10-30T15:25:05.0000000+00:00</time></trkpt><trkpt lat="39.47428406" lon="-0.36698529"><ele>-48.0</ele><time>2022-10-30T15:25:06.0000000+00:00</time></trkpt><trkpt lat="39.4742958" lon="-0.36699283"><ele>-48.0</ele><time>2022-10-30T15:25:07.0000000+00:00</time></trkpt><trkpt lat="39.47430695" lon="-0.36700255"><ele>-48.0</ele><time>2022-10-30T15:25:08.0000000+00:00</time></trkpt><trkpt lat="39.47431742" lon="-0.3670075"><ele>-48.0</ele><time>2022-10-30T15:25:09.0000000+00:00</time></trkpt><trkpt lat="39.47432874" lon="-0.3670111"><ele>-48.0</ele><time>2022-10-30T15:25:10.0000000+00:00</time></trkpt><trkpt lat="39.4743393" lon="-0.36701605"><ele>-47.8</ele><time>2022-10-30T15:25:11.0000000+00:00</time></trkpt><trkpt lat="39.47434676" lon="-0.36702133"><ele>-47.8</ele><time>2022-10-30T15:25:12.0000000+00:00</time></trkpt><trkpt lat="39.47435497" lon="-0.36703248"><ele>-47.8</ele><time>2022-10-30T15:25:13.0000000+00:00</time></trkpt><trkpt lat="39.47436386" lon="-0.36704287"><ele>-47.8</ele><time>2022-10-30T15:25:14.0000000+00:00</time></trkpt><trkpt lat="39.47437224" lon="-0.36704865"><ele>-47.8</ele><time>2022-10-30T15:25:15.0000000+00:00</time></trkpt><trkpt lat="39.47438029" lon="-0.36705293"><ele>-47.8</ele><time>2022-10-30T15:25:16.0000000+00:00</time></trkpt><trkpt lat="39.47438674" lon="-0.36706014"><ele>-47.8</ele><time>2022-10-30T15:25:17.0000000+00:00</time></trkpt><trkpt lat="39.47439822" lon="-0.36707162"><ele>-47.8</ele><time>2022-10-30T15:25:18.0000000+00:00</time></trkpt><trkpt lat="39.47441063" lon="-0.36707916"><ele>-47.8</ele><time>2022-10-30T15:25:19.0000000+00:00</time></trkpt><trkpt lat="39.47441675" lon="-0.36708947"><ele>-47.8</ele><time>2022-10-30T15:25:20.0000000+00:00</time></trkpt><trkpt lat="39.4744289" lon="-0.36710188"><ele>-47.8</ele><time>2022-10-30T15:25:21.0000000+00:00</time></trkpt><trkpt lat="39.47444189" lon="-0.36711621"><ele>-47.8</ele><time>2022-10-30T15:25:22.0000000+00:00</time></trkpt><trkpt lat="39.47445237" lon="-0.36713239"><ele>-47.8</ele><time>2022-10-30T15:25:23.0000000+00:00</time></trkpt><trkpt lat="39.47446134" lon="-0.36713792"><ele>-47.8</ele><time>2022-10-30T15:25:24.0000000+00:00</time></trkpt><trkpt lat="39.4744667" lon="-0.36714253"><ele>-47.8</ele><time>2022-10-30T15:25:25.0000000+00:00</time></trkpt><trkpt lat="39.47447794" lon="-0.36714429"><ele>-47.6</ele><time>2022-10-30T15:25:26.0000000+00:00</time></trkpt><trkpt lat="39.4744911" lon="-0.36715183"><ele>-47.6</ele><time>2022-10-30T15:25:27.0000000+00:00</time></trkpt><trkpt lat="39.47449931" lon="-0.36716365"><ele>-47.6</ele><time>2022-10-30T15:25:28.0000000+00:00</time></trkpt><trkpt lat="39.47450861" lon="-0.3671717"><ele>-47.6</ele><time>2022-10-30T15:25:29.0000000+00:00</time></trkpt><trkpt lat="39.47452026" lon="-0.36718377"><ele>-47.6</ele><time>2022-10-30T15:25:30.0000000+00:00</time></trkpt><trkpt lat="39.47453099" lon="-0.36719332"><ele>-47.6</ele><time>2022-10-30T15:25:31.0000000+00:00</time></trkpt><trkpt lat="39.4745413" lon="-0.36720271"><ele>-47.8</ele><time>2022-10-30T15:25:32.0000000+00:00</time></trkpt><trkpt lat="39.47455002" lon="-0.36721059"><ele>-47.8</ele><time>2022-10-30T15:25:33.0000000+00:00</time></trkpt><trkpt lat="39.47455949" lon="-0.36721411"><ele>-47.8</ele><time>2022-10-30T15:25:34.0000000+00:00</time></trkpt><trkpt lat="39.4745688" lon="-0.36721361"><ele>-47.8</ele><time>2022-10-30T15:25:35.0000000+00:00</time></trkpt><trkpt lat="39.47457877" lon="-0.36721914"><ele>-47.8</ele><time>2022-10-30T15:25:36.0000000+00:00</time></trkpt><trkpt lat="39.47458916" lon="-0.36722442"><ele>-47.6</ele><time>2022-10-30T15:25:37.0000000+00:00</time></trkpt><trkpt lat="39.47460048" lon="-0.36722995"><ele>-47.6</ele><time>2022-10-30T15:25:38.0000000+00:00</time></trkpt><trkpt lat="39.47461255" lon="-0.36723624"><ele>-47.6</ele><time>2022-10-30T15:25:39.0000000+00:00</time></trkpt><trkpt lat="39.47462152" lon="-0.36724278"><ele>-47.6</ele><time>2022-10-30T15:25:40.0000000+00:00</time></trkpt><trkpt lat="39.47463191" lon="-0.36725275"><ele>-47.6</ele><time>2022-10-30T15:25:41.0000000+00:00</time></trkpt><trkpt lat="39.47464113" lon="-0.3672582"><ele>-47.6</ele><time>2022-10-30T15:25:42.0000000+00:00</time></trkpt><trkpt lat="39.47465102" lon="-0.36726373"><ele>-47.6</ele><time>2022-10-30T15:25:43.0000000+00:00</time></trkpt><trkpt lat="39.47465991" lon="-0.36726977"><ele>-47.6</ele><time>2022-10-30T15:25:44.0000000+00:00</time></trkpt><trkpt lat="39.47466955" lon="-0.36727429"><ele>-47.6</ele><time>2022-10-30T15:25:45.0000000+00:00</time></trkpt><trkpt lat="39.4746781" lon="-0.36728217"><ele>-47.6</ele><time>2022-10-30T15:25:46.0000000+00:00</time></trkpt><trkpt lat="39.47468547" lon="-0.36728678"><ele>-47.6</ele><time>2022-10-30T15:25:47.0000000+00:00</time></trkpt><trkpt lat="39.47469444" lon="-0.36729282"><ele>-47.6</ele><time>2022-10-30T15:25:48.0000000+00:00</time></trkpt><trkpt lat="39.47470618" lon="-0.36730078"><ele>-47.6</ele><time>2022-10-30T15:25:49.0000000+00:00</time></trkpt><trkpt lat="39.47471506" lon="-0.36730757"><ele>-47.6</ele><time>2022-10-30T15:25:50.0000000+00:00</time></trkpt><trkpt lat="39.47472294" lon="-0.36731746"><ele>-47.6</ele><time>2022-10-30T15:25:51.0000000+00:00</time></trkpt><trkpt lat="39.47473275" lon="-0.36732752"><ele>-47.6</ele><time>2022-10-30T15:25:52.0000000+00:00</time></trkpt><trkpt lat="39.47473886" lon="-0.3673349"><ele>-47.6</ele><time>2022-10-30T15:25:53.0000000+00:00</time></trkpt><trkpt lat="39.47474171" lon="-0.36733942"><ele>-47.6</ele><time>2022-10-30T15:25:54.0000000+00:00</time></trkpt><trkpt lat="39.47474758" lon="-0.36734118"><ele>-47.6</ele><time>2022-10-30T15:25:55.0000000+00:00</time></trkpt><trkpt lat="39.4747568" lon="-0.36734269"><ele>-47.6</ele><time>2022-10-30T15:25:56.0000000+00:00</time></trkpt><trkpt lat="39.47476669" lon="-0.36734571"><ele>-47.6</ele><time>2022-10-30T15:25:57.0000000+00:00</time></trkpt><trkpt lat="39.47477683" lon="-0.36734906"><ele>-47.4</ele><time>2022-10-30T15:25:58.0000000+00:00</time></trkpt><trkpt lat="39.47478631" lon="-0.36735543"><ele>-47.4</ele><time>2022-10-30T15:25:59.0000000+00:00</time></trkpt><trkpt lat="39.47479779" lon="-0.36736012"><ele>-47.4</ele><time>2022-10-30T15:26:00.0000000+00:00</time></trkpt><trkpt lat="39.47480869" lon="-0.36737052"><ele>-47.4</ele><time>2022-10-30T15:26:01.0000000+00:00</time></trkpt><trkpt lat="39.47482025" lon="-0.367382"><ele>-47.4</ele><time>2022-10-30T15:26:02.0000000+00:00</time></trkpt><trkpt lat="39.47482914" lon="-0.36738971"><ele>-47.4</ele><time>2022-10-30T15:26:03.0000000+00:00</time></trkpt><trkpt lat="39.47483978" lon="-0.36739701"><ele>-47.4</ele><time>2022-10-30T15:26:04.0000000+00:00</time></trkpt><trkpt lat="39.47485169" lon="-0.36741042"><ele>-47.4</ele><time>2022-10-30T15:26:05.0000000+00:00</time></trkpt><trkpt lat="39.47486241" lon="-0.36742483"><ele>-47.4</ele><time>2022-10-30T15:26:06.0000000+00:00</time></trkpt><trkpt lat="39.47487088" lon="-0.36743556"><ele>-47.4</ele><time>2022-10-30T15:26:07.0000000+00:00</time></trkpt><trkpt lat="39.47487968" lon="-0.36744319"><ele>-47.4</ele><time>2022-10-30T15:26:08.0000000+00:00</time></trkpt><trkpt lat="39.47489259" lon="-0.36744746"><ele>-47.4</ele><time>2022-10-30T15:26:09.0000000+00:00</time></trkpt><trkpt lat="39.47490374" lon="-0.36745316"><ele>-47.4</ele><time>2022-10-30T15:26:10.0000000+00:00</time></trkpt><trkpt lat="39.47491572" lon="-0.3674628"><ele>-47.4</ele><time>2022-10-30T15:26:11.0000000+00:00</time></trkpt><trkpt lat="39.47492385" lon="-0.36747169"><ele>-47.4</ele><time>2022-10-30T15:26:12.0000000+00:00</time></trkpt><trkpt lat="39.4749324" lon="-0.36747898"><ele>-47.4</ele><time>2022-10-30T15:26:13.0000000+00:00</time></trkpt><trkpt lat="39.47494003" lon="-0.36748334"><ele>-47.2</ele><time>2022-10-30T15:26:14.0000000+00:00</time></trkpt><trkpt lat="39.47494942" lon="-0.36749164"><ele>-47.2</ele><time>2022-10-30T15:26:15.0000000+00:00</time></trkpt><trkpt lat="39.47495973" lon="-0.36750144"><ele>-47.2</ele><time>2022-10-30T15:26:16.0000000+00:00</time></trkpt><trkpt lat="39.4749728" lon="-0.3675053"><ele>-47.2</ele><time>2022-10-30T15:26:17.0000000+00:00</time></trkpt><trkpt lat="39.47498588" lon="-0.36750815"><ele>-47.2</ele><time>2022-10-30T15:26:18.0000000+00:00</time></trkpt><trkpt lat="39.47499728" lon="-0.36751427"><ele>-47.2</ele><time>2022-10-30T15:26:19.0000000+00:00</time></trkpt><trkpt lat="39.47500633" lon="-0.36752064"><ele>-47.2</ele><time>2022-10-30T15:26:20.0000000+00:00</time></trkpt><trkpt lat="39.47501899" lon="-0.36752718"><ele>-47.2</ele><time>2022-10-30T15:26:21.0000000+00:00</time></trkpt><trkpt lat="39.47503055" lon="-0.36753145"><ele>-47.2</ele><time>2022-10-30T15:26:22.0000000+00:00</time></trkpt><trkpt lat="39.47504237" lon="-0.36753397"><ele>-47.2</ele><time>2022-10-30T15:26:23.0000000+00:00</time></trkpt><trkpt lat="39.47505411" lon="-0.3675405"><ele>-47.2</ele><time>2022-10-30T15:26:24.0000000+00:00</time></trkpt><trkpt lat="39.47506157" lon="-0.3675436"><ele>-47.2</ele><time>2022-10-30T15:26:25.0000000+00:00</time></trkpt><trkpt lat="39.4750666" lon="-0.36754578"><ele>-47.2</ele><time>2022-10-30T15:26:26.0000000+00:00</time></trkpt><trkpt lat="39.47507523" lon="-0.36754821"><ele>-47.2</ele><time>2022-10-30T15:26:27.0000000+00:00</time></trkpt><trkpt lat="39.47508051" lon="-0.36755886"><ele>-47.2</ele><time>2022-10-30T15:26:28.0000000+00:00</time></trkpt><trkpt lat="39.47508998" lon="-0.36757898"><ele>-47.2</ele><time>2022-10-30T15:26:29.0000000+00:00</time></trkpt><trkpt lat="39.4750982" lon="-0.36759641"><ele>-47.2</ele><time>2022-10-30T15:26:30.0000000+00:00</time></trkpt><trkpt lat="39.47510205" lon="-0.36760806"><ele>-47.2</ele><time>2022-10-30T15:26:31.0000000+00:00</time></trkpt><trkpt lat="39.47510867" lon="-0.36761443"><ele>-47.2</ele><time>2022-10-30T15:26:32.0000000+00:00</time></trkpt><trkpt lat="39.47512108" lon="-0.36763094"><ele>-47.2</ele><time>2022-10-30T15:26:33.0000000+00:00</time></trkpt><trkpt lat="39.47512971" lon="-0.3676467"><ele>-47.2</ele><time>2022-10-30T15:26:34.0000000+00:00</time></trkpt><trkpt lat="39.47513935" lon="-0.36765257"><ele>-47.2</ele><time>2022-10-30T15:26:35.0000000+00:00</time></trkpt><trkpt lat="39.47515033" lon="-0.36765735"><ele>-47.2</ele><time>2022-10-30T15:26:36.0000000+00:00</time></trkpt><trkpt lat="39.47515913" lon="-0.36766808"><ele>-47.0</ele><time>2022-10-30T15:26:37.0000000+00:00</time></trkpt><trkpt lat="39.47516517" lon="-0.36767461"><ele>-47.2</ele><time>2022-10-30T15:26:38.0000000+00:00</time></trkpt><trkpt lat="39.47517606" lon="-0.36768434"><ele>-47.2</ele><time>2022-10-30T15:26:39.0000000+00:00</time></trkpt><trkpt lat="39.47518705" lon="-0.36769322"><ele>-47.0</ele><time>2022-10-30T15:26:40.0000000+00:00</time></trkpt><trkpt lat="39.47519828" lon="-0.36769942"><ele>-47.0</ele><time>2022-10-30T15:26:41.0000000+00:00</time></trkpt><trkpt lat="39.47520917" lon="-0.36770571"><ele>-47.0</ele><time>2022-10-30T15:26:42.0000000+00:00</time></trkpt><trkpt lat="39.47521756" lon="-0.36770873"><ele>-47.0</ele><time>2022-10-30T15:26:43.0000000+00:00</time></trkpt><trkpt lat="39.47522812" lon="-0.36770395"><ele>-47.0</ele><time>2022-10-30T15:26:44.0000000+00:00</time></trkpt><trkpt lat="39.47523993" lon="-0.36769942"><ele>-47.0</ele><time>2022-10-30T15:26:45.0000000+00:00</time></trkpt><trkpt lat="39.47524739" lon="-0.36769121"><ele>-47.0</ele><time>2022-10-30T15:26:46.0000000+00:00</time></trkpt><trkpt lat="39.47525402" lon="-0.36767989"><ele>-47.0</ele><time>2022-10-30T15:26:47.0000000+00:00</time></trkpt><trkpt lat="39.4752567" lon="-0.36766112"><ele>-47.0</ele><time>2022-10-30T15:26:48.0000000+00:00</time></trkpt><trkpt lat="39.47526315" lon="-0.36764368"><ele>-47.0</ele><time>2022-10-30T15:26:49.0000000+00:00</time></trkpt><trkpt lat="39.47527086" lon="-0.36763203"><ele>-47.2</ele><time>2022-10-30T15:26:50.0000000+00:00</time></trkpt><trkpt lat="39.47527464" lon="-0.36762239"><ele>-47.2</ele><time>2022-10-30T15:26:51.0000000+00:00</time></trkpt><trkpt lat="39.47528344" lon="-0.36760731"><ele>-47.2</ele><time>2022-10-30T15:26:52.0000000+00:00</time></trkpt><trkpt lat="39.47529593" lon="-0.36759373"><ele>-47.0</ele><time>2022-10-30T15:26:53.0000000+00:00</time></trkpt><trkpt lat="39.47530942" lon="-0.36758233"><ele>-47.0</ele><time>2022-10-30T15:26:54.0000000+00:00</time></trkpt><trkpt lat="39.47531998" lon="-0.36757671"><ele>-46.8</ele><time>2022-10-30T15:26:55.0000000+00:00</time></trkpt><trkpt lat="39.47532618" lon="-0.36756464"><ele>-46.8</ele><time>2022-10-30T15:26:56.0000000+00:00</time></trkpt><trkpt lat="39.47532803" lon="-0.36754578"><ele>-46.8</ele><time>2022-10-30T15:26:57.0000000+00:00</time></trkpt><trkpt lat="39.47533255" lon="-0.36753556"><ele>-46.8</ele><time>2022-10-30T15:26:58.0000000+00:00</time></trkpt><trkpt lat="39.47534286" lon="-0.3675307"><ele>-46.8</ele><time>2022-10-30T15:26:59.0000000+00:00</time></trkpt><trkpt lat="39.47535401" lon="-0.36752508"><ele>-46.8</ele><time>2022-10-30T15:27:00.0000000+00:00</time></trkpt><trkpt lat="39.47535904" lon="-0.36752081"><ele>-46.8</ele><time>2022-10-30T15:27:01.0000000+00:00</time></trkpt><trkpt lat="39.47536801" lon="-0.36751611"><ele>-46.8</ele><time>2022-10-30T15:27:02.0000000+00:00</time></trkpt><trkpt lat="39.47537916" lon="-0.36750815"><ele>-46.8</ele><time>2022-10-30T15:27:03.0000000+00:00</time></trkpt><trkpt lat="39.4754002" lon="-0.36749709"><ele>-46.8</ele><time>2022-10-30T15:27:04.0000000+00:00</time></trkpt><trkpt lat="39.47540984" lon="-0.36748175"><ele>-46.8</ele><time>2022-10-30T15:27:05.0000000+00:00</time></trkpt><trkpt lat="39.47541151" lon="-0.36747286"><ele>-46.8</ele><time>2022-10-30T15:27:06.0000000+00:00</time></trkpt><trkpt lat="39.47541906" lon="-0.36748309"><ele>-46.8</ele><time>2022-10-30T15:27:07.0000000+00:00</time></trkpt><trkpt lat="39.4754271" lon="-0.36749709"><ele>-46.8</ele><time>2022-10-30T15:27:08.0000000+00:00</time></trkpt><trkpt lat="39.47543121" lon="-0.36750698"><ele>-46.8</ele><time>2022-10-30T15:27:09.0000000+00:00</time></trkpt><trkpt lat="39.47543724" lon="-0.36750832"><ele>-46.8</ele><time>2022-10-30T15:27:10.0000000+00:00</time></trkpt><trkpt lat="39.47544185" lon="-0.3675084"><ele>-46.8</ele><time>2022-10-30T15:27:11.0000000+00:00</time></trkpt><trkpt lat="39.47544018" lon="-0.36752097"><ele>-46.8</ele><time>2022-10-30T15:27:12.0000000+00:00</time></trkpt><trkpt lat="39.47544462" lon="-0.36752919"><ele>-46.8</ele><time>2022-10-30T15:27:13.0000000+00:00</time></trkpt><trkpt lat="39.47545602" lon="-0.36754143"><ele>-46.8</ele><time>2022-10-30T15:27:14.0000000+00:00</time></trkpt><trkpt lat="39.47546491" lon="-0.36755056"><ele>-46.8</ele><time>2022-10-30T15:27:15.0000000+00:00</time></trkpt><trkpt lat="39.47547203" lon="-0.36756012"><ele>-46.8</ele><time>2022-10-30T15:27:16.0000000+00:00</time></trkpt><trkpt lat="39.47548561" lon="-0.3675809"><ele>-46.8</ele><time>2022-10-30T15:27:17.0000000+00:00</time></trkpt><trkpt lat="39.47549944" lon="-0.36760043"><ele>-46.8</ele><time>2022-10-30T15:27:18.0000000+00:00</time></trkpt><trkpt lat="39.47550866" lon="-0.36761787"><ele>-46.8</ele><time>2022-10-30T15:27:19.0000000+00:00</time></trkpt><trkpt lat="39.47551738" lon="-0.36762985"><ele>-46.8</ele><time>2022-10-30T15:27:20.0000000+00:00</time></trkpt><trkpt lat="39.47553196" lon="-0.36763061"><ele>-46.8</ele><time>2022-10-30T15:27:21.0000000+00:00</time></trkpt><trkpt lat="39.47553942" lon="-0.36763128"><ele>-46.8</ele><time>2022-10-30T15:27:22.0000000+00:00</time></trkpt><trkpt lat="39.47554353" lon="-0.36763304"><ele>-46.8</ele><time>2022-10-30T15:27:23.0000000+00:00</time></trkpt><trkpt lat="39.47554445" lon="-0.3676353"><ele>-46.8</ele><time>2022-10-30T15:27:24.0000000+00:00</time></trkpt><trkpt lat="39.47554755" lon="-0.36763564"><ele>-46.8</ele><time>2022-10-30T15:27:25.0000000+00:00</time></trkpt><trkpt lat="39.47554914" lon="-0.36763866"><ele>-46.8</ele><time>2022-10-30T15:27:26.0000000+00:00</time></trkpt><trkpt lat="39.47555216" lon="-0.36763916"><ele>-46.8</ele><time>2022-10-30T15:27:27.0000000+00:00</time></trkpt><trkpt lat="39.47555744" lon="-0.36764964"><ele>-46.8</ele><time>2022-10-30T15:27:28.0000000+00:00</time></trkpt><trkpt lat="39.4755613" lon="-0.36766221"><ele>-46.8</ele><time>2022-10-30T15:27:29.0000000+00:00</time></trkpt><trkpt lat="39.475567" lon="-0.36767998"><ele>-46.8</ele><time>2022-10-30T15:27:30.0000000+00:00</time></trkpt><trkpt lat="39.4755851" lon="-0.36772256"><ele>-46.8</ele><time>2022-10-30T15:27:31.0000000+00:00</time></trkpt><trkpt lat="39.4755898" lon="-0.36773882"><ele>-46.8</ele><time>2022-10-30T15:27:32.0000000+00:00</time></trkpt><trkpt lat="39.47560119" lon="-0.36775039"><ele>-46.8</ele><time>2022-10-30T15:27:33.0000000+00:00</time></trkpt><trkpt lat="39.4756105" lon="-0.36776505"><ele>-46.8</ele><time>2022-10-30T15:27:34.0000000+00:00</time></trkpt><trkpt lat="39.47561737" lon="-0.36777511"><ele>-46.8</ele><time>2022-10-30T15:27:35.0000000+00:00</time></trkpt><trkpt lat="39.47562869" lon="-0.36778098"><ele>-46.8</ele><time>2022-10-30T15:27:36.0000000+00:00</time></trkpt><trkpt lat="39.47564067" lon="-0.36778769"><ele>-46.8</ele><time>2022-10-30T15:27:37.0000000+00:00</time></trkpt><trkpt lat="39.47564738" lon="-0.36778861"><ele>-46.8</ele><time>2022-10-30T15:27:38.0000000+00:00</time></trkpt><trkpt lat="39.47565576" lon="-0.36779204"><ele>-46.8</ele><time>2022-10-30T15:27:39.0000000+00:00</time></trkpt><trkpt lat="39.47566741" lon="-0.36779171"><ele>-46.8</ele><time>2022-10-30T15:27:40.0000000+00:00</time></trkpt><trkpt lat="39.47567848" lon="-0.36779355"><ele>-46.8</ele><time>2022-10-30T15:27:41.0000000+00:00</time></trkpt><trkpt lat="39.47568644" lon="-0.36780059"><ele>-46.8</ele><time>2022-10-30T15:27:42.0000000+00:00</time></trkpt><trkpt lat="39.47568929" lon="-0.36781141"><ele>-46.8</ele><time>2022-10-30T15:27:43.0000000+00:00</time></trkpt><trkpt lat="39.47569205" lon="-0.36783177"><ele>-46.8</ele><time>2022-10-30T15:27:44.0000000+00:00</time></trkpt><trkpt lat="39.47570815" lon="-0.36783974"><ele>-46.8</ele><time>2022-10-30T15:27:45.0000000+00:00</time></trkpt><trkpt lat="39.47572122" lon="-0.36785374"><ele>-46.8</ele><time>2022-10-30T15:27:46.0000000+00:00</time></trkpt><trkpt lat="39.47573857" lon="-0.36786044"><ele>-46.8</ele><time>2022-10-30T15:27:47.0000000+00:00</time></trkpt><trkpt lat="39.47575601" lon="-0.36786798"><ele>-46.8</ele><time>2022-10-30T15:27:48.0000000+00:00</time></trkpt><trkpt lat="39.47576531" lon="-0.3678679"><ele>-46.8</ele><time>2022-10-30T15:27:49.0000000+00:00</time></trkpt><trkpt lat="39.47577403" lon="-0.36787042"><ele>-46.8</ele><time>2022-10-30T15:27:50.0000000+00:00</time></trkpt><trkpt lat="39.475783" lon="-0.3678731"><ele>-46.8</ele><time>2022-10-30T15:27:51.0000000+00:00</time></trkpt><trkpt lat="39.47579155" lon="-0.36787477"><ele>-46.8</ele><time>2022-10-30T15:27:52.0000000+00:00</time></trkpt><trkpt lat="39.47579976" lon="-0.36787662"><ele>-46.6</ele><time>2022-10-30T15:27:53.0000000+00:00</time></trkpt><trkpt lat="39.47580437" lon="-0.36788022"><ele>-46.6</ele><time>2022-10-30T15:27:54.0000000+00:00</time></trkpt><trkpt lat="39.47580261" lon="-0.36787125"><ele>-46.6</ele><time>2022-10-30T15:27:55.0000000+00:00</time></trkpt><trkpt lat="39.47580865" lon="-0.36787997"><ele>-46.8</ele><time>2022-10-30T15:27:56.0000000+00:00</time></trkpt><trkpt lat="39.47581921" lon="-0.36789279"><ele>-46.8</ele><time>2022-10-30T15:27:57.0000000+00:00</time></trkpt><trkpt lat="39.47582751" lon="-0.36790025"><ele>-46.8</ele><time>2022-10-30T15:27:58.0000000+00:00</time></trkpt><trkpt lat="39.47583312" lon="-0.36791048"><ele>-46.8</ele><time>2022-10-30T15:27:59.0000000+00:00</time></trkpt><trkpt lat="39.47584285" lon="-0.36792196"><ele>-46.8</ele><time>2022-10-30T15:28:00.0000000+00:00</time></trkpt><trkpt lat="39.47585223" lon="-0.3679368"><ele>-46.8</ele><time>2022-10-30T15:28:01.0000000+00:00</time></trkpt><trkpt lat="39.47585885" lon="-0.36794133"><ele>-46.8</ele><time>2022-10-30T15:28:02.0000000+00:00</time></trkpt><trkpt lat="39.47586791" lon="-0.367942"><ele>-46.8</ele><time>2022-10-30T15:28:03.0000000+00:00</time></trkpt><trkpt lat="39.47587788" lon="-0.36795138"><ele>-46.8</ele><time>2022-10-30T15:28:04.0000000+00:00</time></trkpt><trkpt lat="39.4758918" lon="-0.36796186"><ele>-46.8</ele><time>2022-10-30T15:28:05.0000000+00:00</time></trkpt><trkpt lat="39.47590722" lon="-0.36797226"><ele>-46.8</ele><time>2022-10-30T15:28:06.0000000+00:00</time></trkpt><trkpt lat="39.4759177" lon="-0.36798332"><ele>-46.8</ele><time>2022-10-30T15:28:07.0000000+00:00</time></trkpt><trkpt lat="39.47592884" lon="-0.36799455"><ele>-46.8</ele><time>2022-10-30T15:28:08.0000000+00:00</time></trkpt><trkpt lat="39.47594167" lon="-0.36799908"><ele>-46.8</ele><time>2022-10-30T15:28:09.0000000+00:00</time></trkpt><trkpt lat="39.47594854" lon="-0.36800285"><ele>-46.8</ele><time>2022-10-30T15:28:10.0000000+00:00</time></trkpt><trkpt lat="39.47594821" lon="-0.36800603"><ele>-46.8</ele><time>2022-10-30T15:28:11.0000000+00:00</time></trkpt><trkpt lat="39.47595474" lon="-0.36801073"><ele>-46.8</ele><time>2022-10-30T15:28:12.0000000+00:00</time></trkpt><trkpt lat="39.47595516" lon="-0.36802146"><ele>-46.8</ele><time>2022-10-30T15:28:13.0000000+00:00</time></trkpt><trkpt lat="39.47596371" lon="-0.36803981"><ele>-46.8</ele><time>2022-10-30T15:28:14.0000000+00:00</time></trkpt><trkpt lat="39.47597528" lon="-0.36805322"><ele>-46.8</ele><time>2022-10-30T15:28:15.0000000+00:00</time></trkpt><trkpt lat="39.47598467" lon="-0.36806521"><ele>-46.8</ele><time>2022-10-30T15:28:16.0000000+00:00</time></trkpt><trkpt lat="39.47599112" lon="-0.3680756"><ele>-46.8</ele><time>2022-10-30T15:28:17.0000000+00:00</time></trkpt><trkpt lat="39.47600319" lon="-0.36808063"><ele>-46.8</ele><time>2022-10-30T15:28:18.0000000+00:00</time></trkpt><trkpt lat="39.47601669" lon="-0.36808625"><ele>-46.8</ele><time>2022-10-30T15:28:19.0000000+00:00</time></trkpt><trkpt lat="39.47602197" lon="-0.36809756"><ele>-46.8</ele><time>2022-10-30T15:28:20.0000000+00:00</time></trkpt><trkpt lat="39.47602415" lon="-0.36810486"><ele>-46.8</ele><time>2022-10-30T15:28:21.0000000+00:00</time></trkpt><trkpt lat="39.47602825" lon="-0.3681098"><ele>-46.8</ele><time>2022-10-30T15:28:22.0000000+00:00</time></trkpt><trkpt lat="39.47603177" lon="-0.36810829"><ele>-46.8</ele><time>2022-10-30T15:28:23.0000000+00:00</time></trkpt><trkpt lat="39.47604233" lon="-0.36810955"><ele>-46.8</ele><time>2022-10-30T15:28:24.0000000+00:00</time></trkpt><trkpt lat="39.47604787" lon="-0.36811508"><ele>-46.8</ele><time>2022-10-30T15:28:25.0000000+00:00</time></trkpt><trkpt lat="39.47605181" lon="-0.36811911"><ele>-46.8</ele><time>2022-10-30T15:28:26.0000000+00:00</time></trkpt><trkpt lat="39.47606061" lon="-0.36812397"><ele>-46.8</ele><time>2022-10-30T15:28:27.0000000+00:00</time></trkpt><trkpt lat="39.47606966" lon="-0.36812925"><ele>-46.8</ele><time>2022-10-30T15:28:28.0000000+00:00</time></trkpt><trkpt lat="39.47607787" lon="-0.36813973"><ele>-46.8</ele><time>2022-10-30T15:28:29.0000000+00:00</time></trkpt><trkpt lat="39.47608232" lon="-0.36814652"><ele>-46.8</ele><time>2022-10-30T15:28:30.0000000+00:00</time></trkpt><trkpt lat="39.47608885" lon="-0.36815138"><ele>-46.8</ele><time>2022-10-30T15:28:31.0000000+00:00</time></trkpt><trkpt lat="39.47609564" lon="-0.36815875"><ele>-46.6</ele><time>2022-10-30T15:28:32.0000000+00:00</time></trkpt><trkpt lat="39.47610294" lon="-0.36816412"><ele>-46.6</ele><time>2022-10-30T15:28:33.0000000+00:00</time></trkpt><trkpt lat="39.47611056" lon="-0.36816906"><ele>-46.6</ele><time>2022-10-30T15:28:34.0000000+00:00</time></trkpt><trkpt lat="39.47612272" lon="-0.36817627"><ele>-46.6</ele><time>2022-10-30T15:28:35.0000000+00:00</time></trkpt><trkpt lat="39.47613772" lon="-0.36818868"><ele>-46.6</ele><time>2022-10-30T15:28:36.0000000+00:00</time></trkpt><trkpt lat="39.47614736" lon="-0.36819597"><ele>-46.6</ele><time>2022-10-30T15:28:37.0000000+00:00</time></trkpt><trkpt lat="39.47615239" lon="-0.36819639"><ele>-46.6</ele><time>2022-10-30T15:28:38.0000000+00:00</time></trkpt><trkpt lat="39.47616261" lon="-0.36820502"><ele>-46.6</ele><time>2022-10-30T15:28:39.0000000+00:00</time></trkpt><trkpt lat="39.47617209" lon="-0.36821516"><ele>-46.4</ele><time>2022-10-30T15:28:40.0000000+00:00</time></trkpt><trkpt lat="39.47618072" lon="-0.36822212"><ele>-46.4</ele><time>2022-10-30T15:28:41.0000000+00:00</time></trkpt><trkpt lat="39.47618919" lon="-0.36822665"><ele>-46.4</ele><time>2022-10-30T15:28:42.0000000+00:00</time></trkpt><trkpt lat="39.47619614" lon="-0.36822966"><ele>-46.6</ele><time>2022-10-30T15:28:43.0000000+00:00</time></trkpt><trkpt lat="39.47620075" lon="-0.36823042"><ele>-46.6</ele><time>2022-10-30T15:28:44.0000000+00:00</time></trkpt><trkpt lat="39.47621131" lon="-0.36823251"><ele>-46.6</ele><time>2022-10-30T15:28:45.0000000+00:00</time></trkpt><trkpt lat="39.47621827" lon="-0.36823846"><ele>-46.6</ele><time>2022-10-30T15:28:46.0000000+00:00</time></trkpt><trkpt lat="39.47622431" lon="-0.36823922"><ele>-46.6</ele><time>2022-10-30T15:28:47.0000000+00:00</time></trkpt><trkpt lat="39.47622883" lon="-0.36823511"><ele>-46.6</ele><time>2022-10-30T15:28:48.0000000+00:00</time></trkpt><trkpt lat="39.47623855" lon="-0.36823947"><ele>-46.6</ele><time>2022-10-30T15:28:49.0000000+00:00</time></trkpt><trkpt lat="39.47624291" lon="-0.36824257"><ele>-46.6</ele><time>2022-10-30T15:28:50.0000000+00:00</time></trkpt><trkpt lat="39.47624945" lon="-0.36824232"><ele>-46.6</ele><time>2022-10-30T15:28:51.0000000+00:00</time></trkpt><trkpt lat="39.47626278" lon="-0.36824324"><ele>-46.6</ele><time>2022-10-30T15:28:52.0000000+00:00</time></trkpt><trkpt lat="39.47627569" lon="-0.3682445"><ele>-46.6</ele><time>2022-10-30T15:28:53.0000000+00:00</time></trkpt><trkpt lat="39.47628759" lon="-0.36824425"><ele>-46.6</ele><time>2022-10-30T15:28:54.0000000+00:00</time></trkpt><trkpt lat="39.47629924" lon="-0.36824777"><ele>-46.6</ele><time>2022-10-30T15:28:55.0000000+00:00</time></trkpt><trkpt lat="39.47630477" lon="-0.36824433"><ele>-46.6</ele><time>2022-10-30T15:28:56.0000000+00:00</time></trkpt><trkpt lat="39.47630938" lon="-0.36823771"><ele>-46.6</ele><time>2022-10-30T15:28:57.0000000+00:00</time></trkpt><trkpt lat="39.47631651" lon="-0.36823712"><ele>-46.6</ele><time>2022-10-30T15:28:58.0000000+00:00</time></trkpt><trkpt lat="39.47632765" lon="-0.36824425"><ele>-46.6</ele><time>2022-10-30T15:28:59.0000000+00:00</time></trkpt><trkpt lat="39.47634785" lon="-0.36825473"><ele>-46.6</ele><time>2022-10-30T15:29:00.0000000+00:00</time></trkpt><trkpt lat="39.47636202" lon="-0.36826068"><ele>-46.6</ele><time>2022-10-30T15:29:01.0000000+00:00</time></trkpt><trkpt lat="39.4763808" lon="-0.36827224"><ele>-46.6</ele><time>2022-10-30T15:29:02.0000000+00:00</time></trkpt><trkpt lat="39.47638725" lon="-0.36828482"><ele>-46.6</ele><time>2022-10-30T15:29:03.0000000+00:00</time></trkpt><trkpt lat="39.47639144" lon="-0.36829018"><ele>-46.6</ele><time>2022-10-30T15:29:04.0000000+00:00</time></trkpt><trkpt lat="39.4763927" lon="-0.36828348"><ele>-46.6</ele><time>2022-10-30T15:29:05.0000000+00:00</time></trkpt><trkpt lat="39.47638976" lon="-0.36827861"><ele>-46.6</ele><time>2022-10-30T15:29:06.0000000+00:00</time></trkpt><trkpt lat="39.47638968" lon="-0.36827476"><ele>-46.8</ele><time>2022-10-30T15:29:07.0000000+00:00</time></trkpt><trkpt lat="39.4763953" lon="-0.36828037"><ele>-46.8</ele><time>2022-10-30T15:29:08.0000000+00:00</time></trkpt><trkpt lat="39.47639823" lon="-0.36828037"><ele>-46.8</ele><time>2022-10-30T15:29:09.0000000+00:00</time></trkpt><trkpt lat="39.4764041" lon="-0.36829982"><ele>-47.0</ele><time>2022-10-30T15:29:10.0000000+00:00</time></trkpt><trkpt lat="39.47641701" lon="-0.3683186"><ele>-47.0</ele><time>2022-10-30T15:29:11.0000000+00:00</time></trkpt><trkpt lat="39.4764248" lon="-0.36833352"><ele>-47.0</ele><time>2022-10-30T15:29:12.0000000+00:00</time></trkpt><trkpt lat="39.4764284" lon="-0.36834282"><ele>-47.0</ele><time>2022-10-30T15:29:13.0000000+00:00</time></trkpt><trkpt lat="39.47643721" lon="-0.36835816"><ele>-47.0</ele><time>2022-10-30T15:29:14.0000000+00:00</time></trkpt><trkpt lat="39.47644508" lon="-0.36836838"><ele>-47.0</ele><time>2022-10-30T15:29:15.0000000+00:00</time></trkpt><trkpt lat="39.47644508" lon="-0.36838071"><ele>-47.0</ele><time>2022-10-30T15:29:16.0000000+00:00</time></trkpt><trkpt lat="39.4764512" lon="-0.36838833"><ele>-47.2</ele><time>2022-10-30T15:29:17.0000000+00:00</time></trkpt><trkpt lat="39.47645917" lon="-0.36839604"><ele>-47.0</ele><time>2022-10-30T15:29:18.0000000+00:00</time></trkpt><trkpt lat="39.47647124" lon="-0.36840334"><ele>-47.0</ele><time>2022-10-30T15:29:19.0000000+00:00</time></trkpt><trkpt lat="39.47648431" lon="-0.36840619"><ele>-47.0</ele><time>2022-10-30T15:29:20.0000000+00:00</time></trkpt><trkpt lat="39.47649202" lon="-0.36840837"><ele>-47.0</ele><time>2022-10-30T15:29:21.0000000+00:00</time></trkpt><trkpt lat="39.47649789" lon="-0.36840904"><ele>-47.0</ele><time>2022-10-30T15:29:22.0000000+00:00</time></trkpt><trkpt lat="39.47650317" lon="-0.36841088"><ele>-47.0</ele><time>2022-10-30T15:29:23.0000000+00:00</time></trkpt><trkpt lat="39.47650585" lon="-0.3684087"><ele>-47.0</ele><time>2022-10-30T15:29:24.0000000+00:00</time></trkpt><trkpt lat="39.47650937" lon="-0.36841356"><ele>-47.0</ele><time>2022-10-30T15:29:25.0000000+00:00</time></trkpt><trkpt lat="39.47651248" lon="-0.36841407"><ele>-47.0</ele><time>2022-10-30T15:29:26.0000000+00:00</time></trkpt><trkpt lat="39.47651331" lon="-0.36841314"><ele>-47.0</ele><time>2022-10-30T15:29:27.0000000+00:00</time></trkpt><trkpt lat="39.47685471" lon="-0.36861439"><ele>-47.0</ele><time>2022-10-30T15:29:51.0000000+00:00</time></trkpt><trkpt lat="39.47685286" lon="-0.36863518"><ele>-47.0</ele><time>2022-10-30T15:29:52.0000000+00:00</time></trkpt><trkpt lat="39.47687516" lon="-0.36867038"><ele>-47.0</ele><time>2022-10-30T15:29:53.0000000+00:00</time></trkpt><trkpt lat="39.47687181" lon="-0.36865429"><ele>-47.0</ele><time>2022-10-30T15:29:54.0000000+00:00</time></trkpt><trkpt lat="39.47688337" lon="-0.3686817"><ele>-47.0</ele><time>2022-10-30T15:29:55.0000000+00:00</time></trkpt><trkpt lat="39.47689134" lon="-0.36868908"><ele>-47.0</ele><time>2022-10-30T15:29:56.0000000+00:00</time></trkpt><trkpt lat="39.4768993" lon="-0.36871213"><ele>-47.0</ele><time>2022-10-30T15:29:57.0000000+00:00</time></trkpt><trkpt lat="39.47690408" lon="-0.36872922"><ele>-46.8</ele><time>2022-10-30T15:29:58.0000000+00:00</time></trkpt><trkpt lat="39.47690718" lon="-0.36874733"><ele>-46.8</ele><time>2022-10-30T15:29:59.0000000+00:00</time></trkpt><trkpt lat="39.47691388" lon="-0.36877105"><ele>-46.6</ele><time>2022-10-30T15:30:00.0000000+00:00</time></trkpt><trkpt lat="39.47691799" lon="-0.36877491"><ele>-46.6</ele><time>2022-10-30T15:30:01.0000000+00:00</time></trkpt><trkpt lat="39.47692386" lon="-0.36877667"><ele>-46.8</ele><time>2022-10-30T15:30:02.0000000+00:00</time></trkpt><trkpt lat="39.47692763" lon="-0.36878195"><ele>-46.8</ele><time>2022-10-30T15:30:03.0000000+00:00</time></trkpt><trkpt lat="39.47693199" lon="-0.36879167"><ele>-46.8</ele><time>2022-10-30T15:30:04.0000000+00:00</time></trkpt><trkpt lat="39.47694146" lon="-0.36880575"><ele>-46.8</ele><time>2022-10-30T15:30:05.0000000+00:00</time></trkpt><trkpt lat="39.47694959" lon="-0.36882025"><ele>-46.8</ele><time>2022-10-30T15:30:06.0000000+00:00</time></trkpt><trkpt lat="39.47696359" lon="-0.36882905"><ele>-46.8</ele><time>2022-10-30T15:30:07.0000000+00:00</time></trkpt><trkpt lat="39.47697532" lon="-0.36884733"><ele>-46.8</ele><time>2022-10-30T15:30:08.0000000+00:00</time></trkpt><trkpt lat="39.47698874" lon="-0.36885412"><ele>-46.8</ele><time>2022-10-30T15:30:09.0000000+00:00</time></trkpt><trkpt lat="39.4770034" lon="-0.36886141"><ele>-47.0</ele><time>2022-10-30T15:30:10.0000000+00:00</time></trkpt><trkpt lat="39.47700894" lon="-0.36886954"><ele>-47.0</ele><time>2022-10-30T15:30:11.0000000+00:00</time></trkpt><trkpt lat="39.47700751" lon="-0.36888144"><ele>-47.0</ele><time>2022-10-30T15:30:12.0000000+00:00</time></trkpt><trkpt lat="39.47700609" lon="-0.36889686"><ele>-47.0</ele><time>2022-10-30T15:30:13.0000000+00:00</time></trkpt><trkpt lat="39.47701396" lon="-0.36890172"><ele>-47.0</ele><time>2022-10-30T15:30:14.0000000+00:00</time></trkpt><trkpt lat="39.47702059" lon="-0.36889644"><ele>-47.0</ele><time>2022-10-30T15:30:15.0000000+00:00</time></trkpt><trkpt lat="39.47702377" lon="-0.36888982"><ele>-47.0</ele><time>2022-10-30T15:30:16.0000000+00:00</time></trkpt><trkpt lat="39.47702956" lon="-0.36887566"><ele>-46.8</ele><time>2022-10-30T15:30:17.0000000+00:00</time></trkpt><trkpt lat="39.47703609" lon="-0.36886476"><ele>-46.8</ele><time>2022-10-30T15:30:18.0000000+00:00</time></trkpt><trkpt lat="39.47704573" lon="-0.36885596"><ele>-46.8</ele><time>2022-10-30T15:30:19.0000000+00:00</time></trkpt><trkpt lat="39.47705914" lon="-0.36884339"><ele>-46.8</ele><time>2022-10-30T15:30:20.0000000+00:00</time></trkpt><trkpt lat="39.47707465" lon="-0.36883215"><ele>-46.8</ele><time>2022-10-30T15:30:21.0000000+00:00</time></trkpt><trkpt lat="39.47708856" lon="-0.3688288"><ele>-46.8</ele><time>2022-10-30T15:30:22.0000000+00:00</time></trkpt><trkpt lat="39.47710323" lon="-0.36882008"><ele>-46.8</ele><time>2022-10-30T15:30:23.0000000+00:00</time></trkpt><trkpt lat="39.47710969" lon="-0.36880835"><ele>-46.8</ele><time>2022-10-30T15:30:24.0000000+00:00</time></trkpt><trkpt lat="39.47711178" lon="-0.36879519"><ele>-46.8</ele><time>2022-10-30T15:30:25.0000000+00:00</time></trkpt><trkpt lat="39.47711119" lon="-0.36877172"><ele>-46.8</ele><time>2022-10-30T15:30:26.0000000+00:00</time></trkpt><trkpt lat="39.47711958" lon="-0.36875722"><ele>-46.8</ele><time>2022-10-30T15:30:27.0000000+00:00</time></trkpt><trkpt lat="39.47712863" lon="-0.36874808"><ele>-46.8</ele><time>2022-10-30T15:30:28.0000000+00:00</time></trkpt><trkpt lat="39.47713592" lon="-0.36874163"><ele>-46.8</ele><time>2022-10-30T15:30:29.0000000+00:00</time></trkpt><trkpt lat="39.4771469" lon="-0.36873392"><ele>-46.8</ele><time>2022-10-30T15:30:30.0000000+00:00</time></trkpt><trkpt lat="39.47715495" lon="-0.36873392"><ele>-46.8</ele><time>2022-10-30T15:30:31.0000000+00:00</time></trkpt><trkpt lat="39.47716568" lon="-0.36874255"><ele>-46.8</ele><time>2022-10-30T15:30:32.0000000+00:00</time></trkpt><trkpt lat="39.47716811" lon="-0.36874054"><ele>-46.8</ele><time>2022-10-30T15:30:33.0000000+00:00</time></trkpt><trkpt lat="39.47717146" lon="-0.36871967"><ele>-46.8</ele><time>2022-10-30T15:30:34.0000000+00:00</time></trkpt><trkpt lat="39.47717758" lon="-0.36869695"><ele>-46.8</ele><time>2022-10-30T15:30:35.0000000+00:00</time></trkpt><trkpt lat="39.47717783" lon="-0.36867516"><ele>-46.8</ele><time>2022-10-30T15:30:36.0000000+00:00</time></trkpt><trkpt lat="39.47717758" lon="-0.36865639"><ele>-46.8</ele><time>2022-10-30T15:30:37.0000000+00:00</time></trkpt><trkpt lat="39.4771728" lon="-0.36863862"><ele>-46.8</ele><time>2022-10-30T15:30:38.0000000+00:00</time></trkpt><trkpt lat="39.47716987" lon="-0.36862755"><ele>-46.6</ele><time>2022-10-30T15:30:39.0000000+00:00</time></trkpt><trkpt lat="39.47716878" lon="-0.36861473"><ele>-46.6</ele><time>2022-10-30T15:30:40.0000000+00:00</time></trkpt><trkpt lat="39.47716911" lon="-0.36860601"><ele>-46.6</ele><time>2022-10-30T15:30:41.0000000+00:00</time></trkpt><trkpt lat="39.4771645" lon="-0.36859738"><ele>-46.6</ele><time>2022-10-30T15:30:42.0000000+00:00</time></trkpt><trkpt lat="39.47715947" lon="-0.3685843"><ele>-46.4</ele><time>2022-10-30T15:30:43.0000000+00:00</time></trkpt><trkpt lat="39.47715084" lon="-0.36857148"><ele>-46.4</ele><time>2022-10-30T15:30:44.0000000+00:00</time></trkpt><trkpt lat="39.47714984" lon="-0.36856536"><ele>-46.4</ele><time>2022-10-30T15:30:45.0000000+00:00</time></trkpt><trkpt lat="39.47714497" lon="-0.36855354"><ele>-46.4</ele><time>2022-10-30T15:30:46.0000000+00:00</time></trkpt><trkpt lat="39.47714087" lon="-0.36854046"><ele>-46.2</ele><time>2022-10-30T15:30:47.0000000+00:00</time></trkpt><trkpt lat="39.47714011" lon="-0.36852948"><ele>-46.2</ele><time>2022-10-30T15:30:48.0000000+00:00</time></trkpt><trkpt lat="39.47713492" lon="-0.36851716"><ele>-46.0</ele><time>2022-10-30T15:30:49.0000000+00:00</time></trkpt><trkpt lat="39.47713031" lon="-0.36850409"><ele>-46.0</ele><time>2022-10-30T15:30:50.0000000+00:00</time></trkpt><trkpt lat="39.47712679" lon="-0.36848649"><ele>-46.0</ele><time>2022-10-30T15:30:51.0000000+00:00</time></trkpt><trkpt lat="39.47711983" lon="-0.36847157"><ele>-45.8</ele><time>2022-10-30T15:30:52.0000000+00:00</time></trkpt><trkpt lat="39.47711773" lon="-0.36845782"><ele>-45.6</ele><time>2022-10-30T15:30:53.0000000+00:00</time></trkpt><trkpt lat="39.47711849" lon="-0.36845103"><ele>-45.6</ele><time>2022-10-30T15:30:54.0000000+00:00</time></trkpt><trkpt lat="39.47711748" lon="-0.36844399"><ele>-45.6</ele><time>2022-10-30T15:30:55.0000000+00:00</time></trkpt><trkpt lat="39.47712167" lon="-0.36844307"><ele>-45.6</ele><time>2022-10-30T15:30:56.0000000+00:00</time></trkpt><trkpt lat="39.47712838" lon="-0.36844851"><ele>-45.6</ele><time>2022-10-30T15:30:57.0000000+00:00</time></trkpt><trkpt lat="39.47713634" lon="-0.36846075"><ele>-45.6</ele><time>2022-10-30T15:30:58.0000000+00:00</time></trkpt><trkpt lat="39.47714414" lon="-0.36846654"><ele>-45.4</ele><time>2022-10-30T15:30:59.0000000+00:00</time></trkpt><trkpt lat="39.47715461" lon="-0.36846679"><ele>-45.4</ele><time>2022-10-30T15:31:00.0000000+00:00</time></trkpt><trkpt lat="39.47716459" lon="-0.3684657"><ele>-45.4</ele><time>2022-10-30T15:31:01.0000000+00:00</time></trkpt><trkpt lat="39.47717481" lon="-0.36846327"><ele>-45.4</ele><time>2022-10-30T15:31:02.0000000+00:00</time></trkpt><trkpt lat="39.47718152" lon="-0.36846042"><ele>-45.4</ele><time>2022-10-30T15:31:03.0000000+00:00</time></trkpt><trkpt lat="39.47718219" lon="-0.36846033"><ele>-45.4</ele><time>2022-10-30T15:31:04.0000000+00:00</time></trkpt><trkpt lat="39.47718219" lon="-0.36846033"><ele>-45.2</ele><time>2022-10-30T15:31:05.0000000+00:00</time></trkpt><trkpt lat="39.47718219" lon="-0.36846033"><ele>-45.2</ele><time>2022-10-30T15:31:06.0000000+00:00</time></trkpt><trkpt lat="39.47718244" lon="-0.36845983"><ele>-45.2</ele><time>2022-10-30T15:31:07.0000000+00:00</time></trkpt><trkpt lat="39.47718462" lon="-0.36845572"><ele>-45.2</ele><time>2022-10-30T15:31:08.0000000+00:00</time></trkpt><trkpt lat="39.47725302" lon="-0.36847928"><ele>-45.0</ele><time>2022-10-30T15:31:21.0000000+00:00</time></trkpt><trkpt lat="39.47722309" lon="-0.36839412"><ele>-45.0</ele><time>2022-10-30T15:31:22.0000000+00:00</time></trkpt><trkpt lat="39.47722695" lon="-0.36831298"><ele>-44.8</ele><time>2022-10-30T15:31:23.0000000+00:00</time></trkpt><trkpt lat="39.47724128" lon="-0.36827132"><ele>-44.6</ele><time>2022-10-30T15:31:24.0000000+00:00</time></trkpt><trkpt lat="39.47725888" lon="-0.36823436"><ele>-44.6</ele><time>2022-10-30T15:31:25.0000000+00:00</time></trkpt><trkpt lat="39.47726819" lon="-0.36821818"><ele>-44.4</ele><time>2022-10-30T15:31:26.0000000+00:00</time></trkpt><trkpt lat="39.4772811" lon="-0.36819647"><ele>-43.8</ele><time>2022-10-30T15:31:27.0000000+00:00</time></trkpt><trkpt lat="39.47728939" lon="-0.36819127"><ele>-43.8</ele><time>2022-10-30T15:31:28.0000000+00:00</time></trkpt><trkpt lat="39.47730012" lon="-0.36820175"><ele>-43.4</ele><time>2022-10-30T15:31:29.0000000+00:00</time></trkpt><trkpt lat="39.47731379" lon="-0.36819999"><ele>-43.2</ele><time>2022-10-30T15:31:30.0000000+00:00</time></trkpt><trkpt lat="39.47732854" lon="-0.36820971"><ele>-43.2</ele><time>2022-10-30T15:31:31.0000000+00:00</time></trkpt><trkpt lat="39.4773458" lon="-0.36822287"><ele>-43.2</ele><time>2022-10-30T15:31:32.0000000+00:00</time></trkpt><trkpt lat="39.47735678" lon="-0.36823955"><ele>-43.0</ele><time>2022-10-30T15:31:33.0000000+00:00</time></trkpt><trkpt lat="39.47736852" lon="-0.36824492"><ele>-43.0</ele><time>2022-10-30T15:31:34.0000000+00:00</time></trkpt><trkpt lat="39.477379" lon="-0.36826151"><ele>-43.0</ele><time>2022-10-30T15:31:35.0000000+00:00</time></trkpt><trkpt lat="39.47738528" lon="-0.36827819"><ele>-43.0</ele><time>2022-10-30T15:31:36.0000000+00:00</time></trkpt><trkpt lat="39.47738813" lon="-0.36829638"><ele>-43.0</ele><time>2022-10-30T15:31:37.0000000+00:00</time></trkpt><trkpt lat="39.47740205" lon="-0.36830787"><ele>-43.2</ele><time>2022-10-30T15:31:38.0000000+00:00</time></trkpt><trkpt lat="39.47741521" lon="-0.36832036"><ele>-43.2</ele><time>2022-10-30T15:31:39.0000000+00:00</time></trkpt><trkpt lat="39.4774261" lon="-0.36833276"><ele>-43.0</ele><time>2022-10-30T15:31:40.0000000+00:00</time></trkpt><trkpt lat="39.47743675" lon="-0.36833528"><ele>-43.0</ele><time>2022-10-30T15:31:41.0000000+00:00</time></trkpt><trkpt lat="39.47744538" lon="-0.36834114"><ele>-43.0</ele><time>2022-10-30T15:31:42.0000000+00:00</time></trkpt><trkpt lat="39.47745536" lon="-0.36834877"><ele>-43.0</ele><time>2022-10-30T15:31:43.0000000+00:00</time></trkpt><trkpt lat="39.47746399" lon="-0.36835305"><ele>-43.0</ele><time>2022-10-30T15:31:44.0000000+00:00</time></trkpt><trkpt lat="39.47747095" lon="-0.36834156"><ele>-43.0</ele><time>2022-10-30T15:31:45.0000000+00:00</time></trkpt><trkpt lat="39.47747388" lon="-0.36832681"><ele>-43.0</ele><time>2022-10-30T15:31:46.0000000+00:00</time></trkpt><trkpt lat="39.47748033" lon="-0.3683134"><ele>-43.2</ele><time>2022-10-30T15:31:47.0000000+00:00</time></trkpt><trkpt lat="39.47749483" lon="-0.36831139"><ele>-43.2</ele><time>2022-10-30T15:31:48.0000000+00:00</time></trkpt><trkpt lat="39.47750523" lon="-0.36831139"><ele>-43.2</ele><time>2022-10-30T15:31:49.0000000+00:00</time></trkpt><trkpt lat="39.47750858" lon="-0.36831231"><ele>-43.2</ele><time>2022-10-30T15:31:50.0000000+00:00</time></trkpt><trkpt lat="39.47750649" lon="-0.36831583"><ele>-43.2</ele><time>2022-10-30T15:31:51.0000000+00:00</time></trkpt><trkpt lat="39.47749274" lon="-0.36833452"><ele>-43.2</ele><time>2022-10-30T15:31:52.0000000+00:00</time></trkpt><trkpt lat="39.47749031" lon="-0.36833159"><ele>-43.2</ele><time>2022-10-30T15:31:53.0000000+00:00</time></trkpt><trkpt lat="39.47748905" lon="-0.36832916"><ele>-43.2</ele><time>2022-10-30T15:31:54.0000000+00:00</time></trkpt><trkpt lat="39.4774893" lon="-0.36832647"><ele>-43.2</ele><time>2022-10-30T15:31:55.0000000+00:00</time></trkpt><trkpt lat="39.47749115" lon="-0.36832681"><ele>-43.2</ele><time>2022-10-30T15:31:56.0000000+00:00</time></trkpt><trkpt lat="39.47750866" lon="-0.36832656"><ele>-43.2</ele><time>2022-10-30T15:31:57.0000000+00:00</time></trkpt><trkpt lat="39.47752484" lon="-0.36832488"><ele>-43.2</ele><time>2022-10-30T15:31:58.0000000+00:00</time></trkpt><trkpt lat="39.47753993" lon="-0.36832455"><ele>-43.2</ele><time>2022-10-30T15:31:59.0000000+00:00</time></trkpt><trkpt lat="39.4775494" lon="-0.36832647"><ele>-43.2</ele><time>2022-10-30T15:32:00.0000000+00:00</time></trkpt><trkpt lat="39.47756122" lon="-0.36832438"><ele>-43.2</ele><time>2022-10-30T15:32:01.0000000+00:00</time></trkpt><trkpt lat="39.47757455" lon="-0.36832186"><ele>-43.2</ele><time>2022-10-30T15:32:02.0000000+00:00</time></trkpt><trkpt lat="39.47758896" lon="-0.36831918"><ele>-43.2</ele><time>2022-10-30T15:32:03.0000000+00:00</time></trkpt><trkpt lat="39.47760313" lon="-0.36832002"><ele>-43.4</ele><time>2022-10-30T15:32:04.0000000+00:00</time></trkpt><trkpt lat="39.47761746" lon="-0.36832673"><ele>-43.4</ele><time>2022-10-30T15:32:05.0000000+00:00</time></trkpt><trkpt lat="39.47762953" lon="-0.3683336"><ele>-43.4</ele><time>2022-10-30T15:32:06.0000000+00:00</time></trkpt><trkpt lat="39.47764244" lon="-0.36833854"><ele>-43.4</ele><time>2022-10-30T15:32:07.0000000+00:00</time></trkpt><trkpt lat="39.47765878" lon="-0.36834433"><ele>-43.4</ele><time>2022-10-30T15:32:08.0000000+00:00</time></trkpt><trkpt lat="39.4776727" lon="-0.36834877"><ele>-43.4</ele><time>2022-10-30T15:32:09.0000000+00:00</time></trkpt><trkpt lat="39.4776851" lon="-0.36835212"><ele>-43.4</ele><time>2022-10-30T15:32:10.0000000+00:00</time></trkpt><trkpt lat="39.47769525" lon="-0.36835338"><ele>-43.4</ele><time>2022-10-30T15:32:11.0000000+00:00</time></trkpt><trkpt lat="39.47770606" lon="-0.36834802"><ele>-43.2</ele><time>2022-10-30T15:32:12.0000000+00:00</time></trkpt><trkpt lat="39.47771905" lon="-0.36834609"><ele>-43.2</ele><time>2022-10-30T15:32:13.0000000+00:00</time></trkpt><trkpt lat="39.4777338" lon="-0.36834232"><ele>-43.2</ele><time>2022-10-30T15:32:14.0000000+00:00</time></trkpt><trkpt lat="39.47774579" lon="-0.3683429"><ele>-43.2</ele><time>2022-10-30T15:32:15.0000000+00:00</time></trkpt><trkpt lat="39.4777561" lon="-0.36835028"><ele>-43.2</ele><time>2022-10-30T15:32:16.0000000+00:00</time></trkpt><trkpt lat="39.47776599" lon="-0.3683543"><ele>-43.2</ele><time>2022-10-30T15:32:17.0000000+00:00</time></trkpt><trkpt lat="39.47777337" lon="-0.36835548"><ele>-43.2</ele><time>2022-10-30T15:32:18.0000000+00:00</time></trkpt><trkpt lat="39.47777538" lon="-0.36835506"><ele>-43.2</ele><time>2022-10-30T15:32:19.0000000+00:00</time></trkpt><trkpt lat="39.47777538" lon="-0.36835405"><ele>-43.2</ele><time>2022-10-30T15:32:20.0000000+00:00</time></trkpt><trkpt lat="39.47777437" lon="-0.36835305"><ele>-43.2</ele><time>2022-10-30T15:32:21.0000000+00:00</time></trkpt><trkpt lat="39.4777742" lon="-0.36835237"><ele>-43.2</ele><time>2022-10-30T15:32:22.0000000+00:00</time></trkpt><trkpt lat="39.4777737" lon="-0.36835103"><ele>-43.2</ele><time>2022-10-30T15:32:23.0000000+00:00</time></trkpt><trkpt lat="39.47777345" lon="-0.36834986"><ele>-43.2</ele><time>2022-10-30T15:32:24.0000000+00:00</time></trkpt><trkpt lat="39.47777236" lon="-0.36834802"><ele>-43.2</ele><time>2022-10-30T15:32:25.0000000+00:00</time></trkpt><trkpt lat="39.47777328" lon="-0.36834718"><ele>-43.2</ele><time>2022-10-30T15:32:26.0000000+00:00</time></trkpt><trkpt lat="39.47777605" lon="-0.36835472"><ele>-43.2</ele><time>2022-10-30T15:32:27.0000000+00:00</time></trkpt><trkpt lat="39.47778401" lon="-0.36836143"><ele>-43.2</ele><time>2022-10-30T15:32:28.0000000+00:00</time></trkpt><trkpt lat="39.47778996" lon="-0.36837232"><ele>-43.2</ele><time>2022-10-30T15:32:29.0000000+00:00</time></trkpt><trkpt lat="39.47779759" lon="-0.36837786"><ele>-43.2</ele><time>2022-10-30T15:32:30.0000000+00:00</time></trkpt><trkpt lat="39.47780522" lon="-0.36837987"><ele>-43.2</ele><time>2022-10-30T15:32:31.0000000+00:00</time></trkpt><trkpt lat="39.47781385" lon="-0.36837995"><ele>-43.2</ele><time>2022-10-30T15:32:32.0000000+00:00</time></trkpt><trkpt lat="39.47781963" lon="-0.36838037"><ele>-43.2</ele><time>2022-10-30T15:32:33.0000000+00:00</time></trkpt><trkpt lat="39.47782701" lon="-0.3683761"><ele>-43.2</ele><time>2022-10-30T15:32:34.0000000+00:00</time></trkpt><trkpt lat="39.47783413" lon="-0.36837769"><ele>-43.2</ele><time>2022-10-30T15:32:35.0000000+00:00</time></trkpt><trkpt lat="39.4778452" lon="-0.36838213"><ele>-43.2</ele><time>2022-10-30T15:32:36.0000000+00:00</time></trkpt><trkpt lat="39.47785484" lon="-0.36838607"><ele>-43.2</ele><time>2022-10-30T15:32:37.0000000+00:00</time></trkpt><trkpt lat="39.47786272" lon="-0.3683885"><ele>-43.2</ele><time>2022-10-30T15:32:38.0000000+00:00</time></trkpt><trkpt lat="39.47786992" lon="-0.36839697"><ele>-43.2</ele><time>2022-10-30T15:32:39.0000000+00:00</time></trkpt><trkpt lat="39.47787688" lon="-0.36840476"><ele>-43.2</ele><time>2022-10-30T15:32:40.0000000+00:00</time></trkpt><trkpt lat="39.47788627" lon="-0.36840711"><ele>-43.2</ele><time>2022-10-30T15:32:41.0000000+00:00</time></trkpt><trkpt lat="39.47788929" lon="-0.36840878"><ele>-43.2</ele><time>2022-10-30T15:32:42.0000000+00:00</time></trkpt><trkpt lat="39.47789474" lon="-0.36841038"><ele>-43.2</ele><time>2022-10-30T15:32:43.0000000+00:00</time></trkpt><trkpt lat="39.47789918" lon="-0.36841356"><ele>-43.2</ele><time>2022-10-30T15:32:44.0000000+00:00</time></trkpt><trkpt lat="39.47789867" lon="-0.36840803"><ele>-43.2</ele><time>2022-10-30T15:32:45.0000000+00:00</time></trkpt><trkpt lat="39.4779006" lon="-0.36839982"><ele>-43.2</ele><time>2022-10-30T15:32:46.0000000+00:00</time></trkpt><trkpt lat="39.47790111" lon="-0.36839671"><ele>-43.2</ele><time>2022-10-30T15:32:47.0000000+00:00</time></trkpt><trkpt lat="39.47790144" lon="-0.36839889"><ele>-43.2</ele><time>2022-10-30T15:32:48.0000000+00:00</time></trkpt><trkpt lat="39.47790261" lon="-0.36840183"><ele>-43.2</ele><time>2022-10-30T15:32:49.0000000+00:00</time></trkpt><trkpt lat="39.47790412" lon="-0.36839244"><ele>-43.2</ele><time>2022-10-30T15:32:50.0000000+00:00</time></trkpt><trkpt lat="39.47790664" lon="-0.3683942"><ele>-43.2</ele><time>2022-10-30T15:32:51.0000000+00:00</time></trkpt><trkpt lat="39.47790907" lon="-0.36839487"><ele>-43.2</ele><time>2022-10-30T15:32:52.0000000+00:00</time></trkpt><trkpt lat="39.47791074" lon="-0.36839386"><ele>-43.0</ele><time>2022-10-30T15:32:53.0000000+00:00</time></trkpt><trkpt lat="39.4779115" lon="-0.36839319"><ele>-43.0</ele><time>2022-10-30T15:32:54.0000000+00:00</time></trkpt><trkpt lat="39.4779115" lon="-0.36839319"><ele>-43.0</ele><time>2022-10-30T15:32:55.0000000+00:00</time></trkpt><trkpt lat="39.4779115" lon="-0.36839319"><ele>-43.0</ele><time>2022-10-30T15:32:56.0000000+00:00</time></trkpt><trkpt lat="39.4779115" lon="-0.36839319"><ele>-43.0</ele><time>2022-10-30T15:32:57.0000000+00:00</time></trkpt><trkpt lat="39.4779115" lon="-0.36839319"><ele>-43.0</ele><time>2022-10-30T15:32:58.0000000+00:00</time></trkpt><trkpt lat="39.4779115" lon="-0.36839319"><ele>-43.0</ele><time>2022-10-30T15:32:59.0000000+00:00</time></trkpt><trkpt lat="39.4779115" lon="-0.36839319"><ele>-43.2</ele><time>2022-10-30T15:33:00.0000000+00:00</time></trkpt><trkpt lat="39.4779115" lon="-0.36839319"><ele>-43.2</ele><time>2022-10-30T15:33:01.0000000+00:00</time></trkpt><trkpt lat="39.4779115" lon="-0.36839319"><ele>-43.2</ele><time>2022-10-30T15:33:02.0000000+00:00</time></trkpt><trkpt lat="39.4779115" lon="-0.36839386"><ele>-43.2</ele><time>2022-10-30T15:33:03.0000000+00:00</time></trkpt><trkpt lat="39.4779115" lon="-0.3683942"><ele>-43.2</ele><time>2022-10-30T15:33:04.0000000+00:00</time></trkpt><trkpt lat="39.4779115" lon="-0.36839487"><ele>-43.2</ele><time>2022-10-30T15:33:05.0000000+00:00</time></trkpt><trkpt lat="39.4779115" lon="-0.36839663"><ele>-43.2</ele><time>2022-10-30T15:33:06.0000000+00:00</time></trkpt><trkpt lat="39.4779115" lon="-0.36839873"><ele>-43.2</ele><time>2022-10-30T15:33:07.0000000+00:00</time></trkpt><trkpt lat="39.4779115" lon="-0.36839973"><ele>-43.2</ele><time>2022-10-30T15:33:08.0000000+00:00</time></trkpt><trkpt lat="39.4779177" lon="-0.36840485"><ele>-43.2</ele><time>2022-10-30T15:33:09.0000000+00:00</time></trkpt><trkpt lat="39.47793111" lon="-0.36841859"><ele>-43.2</ele><time>2022-10-30T15:33:10.0000000+00:00</time></trkpt><trkpt lat="39.47794452" lon="-0.36843879"><ele>-43.0</ele><time>2022-10-30T15:33:11.0000000+00:00</time></trkpt><trkpt lat="39.47795911" lon="-0.36845271"><ele>-43.0</ele><time>2022-10-30T15:33:12.0000000+00:00</time></trkpt><trkpt lat="39.47797763" lon="-0.36846167"><ele>-43.0</ele><time>2022-10-30T15:33:13.0000000+00:00</time></trkpt><trkpt lat="39.4779944" lon="-0.36846536"><ele>-43.0</ele><time>2022-10-30T15:33:14.0000000+00:00</time></trkpt><trkpt lat="39.47801166" lon="-0.36847475"><ele>-43.0</ele><time>2022-10-30T15:33:15.0000000+00:00</time></trkpt><trkpt lat="39.47802524" lon="-0.36848431"><ele>-43.0</ele><time>2022-10-30T15:33:16.0000000+00:00</time></trkpt><trkpt lat="39.47803983" lon="-0.36848841"><ele>-43.0</ele><time>2022-10-30T15:33:17.0000000+00:00</time></trkpt><trkpt lat="39.47805299" lon="-0.36848908"><ele>-43.0</ele><time>2022-10-30T15:33:18.0000000+00:00</time></trkpt><trkpt lat="39.47806036" lon="-0.36849193"><ele>-43.0</ele><time>2022-10-30T15:33:19.0000000+00:00</time></trkpt><trkpt lat="39.47807184" lon="-0.36850233"><ele>-43.0</ele><time>2022-10-30T15:33:20.0000000+00:00</time></trkpt><trkpt lat="39.4780835" lon="-0.36850995"><ele>-43.0</ele><time>2022-10-30T15:33:21.0000000+00:00</time></trkpt><trkpt lat="39.47808735" lon="-0.36851138"><ele>-43.0</ele><time>2022-10-30T15:33:22.0000000+00:00</time></trkpt><trkpt lat="39.47808827" lon="-0.36851079"><ele>-43.0</ele><time>2022-10-30T15:33:23.0000000+00:00</time></trkpt><trkpt lat="39.47808861" lon="-0.36851079"><ele>-43.0</ele><time>2022-10-30T15:33:24.0000000+00:00</time></trkpt><trkpt lat="39.47808836" lon="-0.36851054"><ele>-43.0</ele><time>2022-10-30T15:33:25.0000000+00:00</time></trkpt><trkpt lat="39.47808727" lon="-0.36851138"><ele>-43.0</ele><time>2022-10-30T15:33:26.0000000+00:00</time></trkpt><trkpt lat="39.47808819" lon="-0.36851079"><ele>-43.0</ele><time>2022-10-30T15:33:27.0000000+00:00</time></trkpt><trkpt lat="39.47808961" lon="-0.36851046"><ele>-43.0</ele><time>2022-10-30T15:33:28.0000000+00:00</time></trkpt><trkpt lat="39.47809582" lon="-0.36851121"><ele>-43.0</ele><time>2022-10-30T15:33:29.0000000+00:00</time></trkpt><trkpt lat="39.47810688" lon="-0.36851255"><ele>-43.0</ele><time>2022-10-30T15:33:30.0000000+00:00</time></trkpt><trkpt lat="39.47811996" lon="-0.36851054"><ele>-43.0</ele><time>2022-10-30T15:33:31.0000000+00:00</time></trkpt><trkpt lat="39.47813362" lon="-0.36851331"><ele>-43.0</ele><time>2022-10-30T15:33:32.0000000+00:00</time></trkpt><trkpt lat="39.47814661" lon="-0.36851465"><ele>-43.0</ele><time>2022-10-30T15:33:33.0000000+00:00</time></trkpt><trkpt lat="39.47815784" lon="-0.36851599"><ele>-43.0</ele><time>2022-10-30T15:33:34.0000000+00:00</time></trkpt><trkpt lat="39.47817109" lon="-0.36851121"><ele>-43.0</ele><time>2022-10-30T15:33:35.0000000+00:00</time></trkpt><trkpt lat="39.47817628" lon="-0.36850375"><ele>-43.0</ele><time>2022-10-30T15:33:36.0000000+00:00</time></trkpt><trkpt lat="39.47818542" lon="-0.36850635"><ele>-43.0</ele><time>2022-10-30T15:33:37.0000000+00:00</time></trkpt><trkpt lat="39.47819523" lon="-0.36851431"><ele>-43.0</ele><time>2022-10-30T15:33:38.0000000+00:00</time></trkpt><trkpt lat="39.47820285" lon="-0.36852035"><ele>-43.0</ele><time>2022-10-30T15:33:39.0000000+00:00</time></trkpt><trkpt lat="39.47821308" lon="-0.36852596"><ele>-43.0</ele><time>2022-10-30T15:33:40.0000000+00:00</time></trkpt><trkpt lat="39.47822766" lon="-0.36852798"><ele>-43.0</ele><time>2022-10-30T15:33:41.0000000+00:00</time></trkpt><trkpt lat="39.47824451" lon="-0.36852865"><ele>-43.0</ele><time>2022-10-30T15:33:42.0000000+00:00</time></trkpt><trkpt lat="39.4782575" lon="-0.36852311"><ele>-43.0</ele><time>2022-10-30T15:33:43.0000000+00:00</time></trkpt><trkpt lat="39.47826781" lon="-0.36851758"><ele>-42.8</ele><time>2022-10-30T15:33:44.0000000+00:00</time></trkpt><trkpt lat="39.47827762" lon="-0.36851314"><ele>-42.8</ele><time>2022-10-30T15:33:45.0000000+00:00</time></trkpt><trkpt lat="39.47828617" lon="-0.36851272"><ele>-42.6</ele><time>2022-10-30T15:33:46.0000000+00:00</time></trkpt><trkpt lat="39.47829413" lon="-0.36851691"><ele>-42.6</ele><time>2022-10-30T15:33:47.0000000+00:00</time></trkpt><trkpt lat="39.4783005" lon="-0.36851959"><ele>-42.4</ele><time>2022-10-30T15:33:48.0000000+00:00</time></trkpt><trkpt lat="39.47831241" lon="-0.36852378"><ele>-42.4</ele><time>2022-10-30T15:33:49.0000000+00:00</time></trkpt><trkpt lat="39.47832657" lon="-0.36853644"><ele>-42.4</ele><time>2022-10-30T15:33:50.0000000+00:00</time></trkpt><trkpt lat="39.47834342" lon="-0.36855706"><ele>-42.4</ele><time>2022-10-30T15:33:51.0000000+00:00</time></trkpt><trkpt lat="39.47835951" lon="-0.36857106"><ele>-42.2</ele><time>2022-10-30T15:33:52.0000000+00:00</time></trkpt><trkpt lat="39.47837175" lon="-0.3685719"><ele>-42.2</ele><time>2022-10-30T15:33:53.0000000+00:00</time></trkpt><trkpt lat="39.47838432" lon="-0.36857433"><ele>-42.0</ele><time>2022-10-30T15:33:54.0000000+00:00</time></trkpt><trkpt lat="39.47839639" lon="-0.36857181"><ele>-41.8</ele><time>2022-10-30T15:33:55.0000000+00:00</time></trkpt><trkpt lat="39.47840335" lon="-0.36855999"><ele>-41.8</ele><time>2022-10-30T15:33:56.0000000+00:00</time></trkpt><trkpt lat="39.47840855" lon="-0.36855337"><ele>-41.6</ele><time>2022-10-30T15:33:57.0000000+00:00</time></trkpt><trkpt lat="39.47841601" lon="-0.36855706"><ele>-41.4</ele><time>2022-10-30T15:33:58.0000000+00:00</time></trkpt><trkpt lat="39.47842414" lon="-0.36856318"><ele>-41.4</ele><time>2022-10-30T15:33:59.0000000+00:00</time></trkpt><trkpt lat="39.47843143" lon="-0.36857408"><ele>-41.2</ele><time>2022-10-30T15:34:00.0000000+00:00</time></trkpt><trkpt lat="39.47843587" lon="-0.36858506"><ele>-41.0</ele><time>2022-10-30T15:34:01.0000000+00:00</time></trkpt><trkpt lat="39.47843847" lon="-0.36859201"><ele>-41.0</ele><time>2022-10-30T15:34:02.0000000+00:00</time></trkpt><trkpt lat="39.47844735" lon="-0.36858833"><ele>-41.0</ele><time>2022-10-30T15:34:03.0000000+00:00</time></trkpt><trkpt lat="39.47845322" lon="-0.36858841"><ele>-40.8</ele><time>2022-10-30T15:34:04.0000000+00:00</time></trkpt><trkpt lat="39.47845792" lon="-0.3685874"><ele>-40.8</ele><time>2022-10-30T15:34:05.0000000+00:00</time></trkpt><trkpt lat="39.47846395" lon="-0.36857357"><ele>-40.8</ele><time>2022-10-30T15:34:06.0000000+00:00</time></trkpt><trkpt lat="39.47847862" lon="-0.3685646"><ele>-40.8</ele><time>2022-10-30T15:34:07.0000000+00:00</time></trkpt><trkpt lat="39.47849429" lon="-0.36855823"><ele>-40.6</ele><time>2022-10-30T15:34:08.0000000+00:00</time></trkpt><trkpt lat="39.47850804" lon="-0.36855044"><ele>-40.6</ele><time>2022-10-30T15:34:09.0000000+00:00</time></trkpt><trkpt lat="39.47852111" lon="-0.36855144"><ele>-40.6</ele><time>2022-10-30T15:34:10.0000000+00:00</time></trkpt><trkpt lat="39.47853453" lon="-0.36854759"><ele>-40.6</ele><time>2022-10-30T15:34:11.0000000+00:00</time></trkpt><trkpt lat="39.47853771" lon="-0.36854801"><ele>-40.6</ele><time>2022-10-30T15:34:12.0000000+00:00</time></trkpt><trkpt lat="39.47853796" lon="-0.36854767"><ele>-40.6</ele><time>2022-10-30T15:34:13.0000000+00:00</time></trkpt><trkpt lat="39.47853754" lon="-0.36854751"><ele>-40.6</ele><time>2022-10-30T15:34:14.0000000+00:00</time></trkpt><trkpt lat="39.47853754" lon="-0.36854759"><ele>-40.8</ele><time>2022-10-30T15:34:15.0000000+00:00</time></trkpt><trkpt lat="39.47853914" lon="-0.36854692"><ele>-40.8</ele><time>2022-10-30T15:34:16.0000000+00:00</time></trkpt><trkpt lat="39.47854509" lon="-0.36854918"><ele>-40.8</ele><time>2022-10-30T15:34:17.0000000+00:00</time></trkpt><trkpt lat="39.47855665" lon="-0.36855153"><ele>-40.8</ele><time>2022-10-30T15:34:18.0000000+00:00</time></trkpt><trkpt lat="39.47857308" lon="-0.3685522"><ele>-40.8</ele><time>2022-10-30T15:34:19.0000000+00:00</time></trkpt><trkpt lat="39.47858566" lon="-0.36854876"><ele>-40.8</ele><time>2022-10-30T15:34:20.0000000+00:00</time></trkpt><trkpt lat="39.47859504" lon="-0.36854491"><ele>-40.8</ele><time>2022-10-30T15:34:21.0000000+00:00</time></trkpt><trkpt lat="39.4786051" lon="-0.36854331"><ele>-40.8</ele><time>2022-10-30T15:34:22.0000000+00:00</time></trkpt><trkpt lat="39.47861759" lon="-0.36854097"><ele>-40.8</ele><time>2022-10-30T15:34:23.0000000+00:00</time></trkpt><trkpt lat="39.47862983" lon="-0.36853979"><ele>-40.8</ele><time>2022-10-30T15:34:24.0000000+00:00</time></trkpt><trkpt lat="39.47864433" lon="-0.36854097"><ele>-40.8</ele><time>2022-10-30T15:34:25.0000000+00:00</time></trkpt><trkpt lat="39.47866034" lon="-0.36854306"><ele>-40.8</ele><time>2022-10-30T15:34:26.0000000+00:00</time></trkpt><trkpt lat="39.47867551" lon="-0.36854834"><ele>-40.8</ele><time>2022-10-30T15:34:27.0000000+00:00</time></trkpt><trkpt lat="39.47868607" lon="-0.36854784"><ele>-41.0</ele><time>2022-10-30T15:34:28.0000000+00:00</time></trkpt><trkpt lat="39.47869487" lon="-0.3685496"><ele>-41.0</ele><time>2022-10-30T15:34:29.0000000+00:00</time></trkpt><trkpt lat="39.47870677" lon="-0.3685532"><ele>-41.0</ele><time>2022-10-30T15:34:30.0000000+00:00</time></trkpt><trkpt lat="39.47871583" lon="-0.3685532"><ele>-41.0</ele><time>2022-10-30T15:34:31.0000000+00:00</time></trkpt><trkpt lat="39.47872756" lon="-0.3685491"><ele>-41.0</ele><time>2022-10-30T15:34:32.0000000+00:00</time></trkpt><trkpt lat="39.47873552" lon="-0.36853954"><ele>-41.0</ele><time>2022-10-30T15:34:33.0000000+00:00</time></trkpt><trkpt lat="39.47875748" lon="-0.36854373"><ele>-41.2</ele><time>2022-10-30T15:34:34.0000000+00:00</time></trkpt><trkpt lat="39.47877333" lon="-0.36855111"><ele>-41.2</ele><time>2022-10-30T15:34:35.0000000+00:00</time></trkpt><trkpt lat="39.47878774" lon="-0.36855899"><ele>-41.2</ele><time>2022-10-30T15:34:36.0000000+00:00</time></trkpt><trkpt lat="39.47880283" lon="-0.36855555"><ele>-41.2</ele><time>2022-10-30T15:34:37.0000000+00:00</time></trkpt><trkpt lat="39.47881674" lon="-0.36856058"><ele>-41.2</ele><time>2022-10-30T15:34:38.0000000+00:00</time></trkpt><trkpt lat="39.4788289" lon="-0.36855999"><ele>-41.2</ele><time>2022-10-30T15:34:39.0000000+00:00</time></trkpt><trkpt lat="39.47884399" lon="-0.36856083"><ele>-41.2</ele><time>2022-10-30T15:34:40.0000000+00:00</time></trkpt><trkpt lat="39.47885807" lon="-0.36857181"><ele>-41.2</ele><time>2022-10-30T15:34:41.0000000+00:00</time></trkpt><trkpt lat="39.47887215" lon="-0.36857332"><ele>-41.2</ele><time>2022-10-30T15:34:42.0000000+00:00</time></trkpt><trkpt lat="39.47888657" lon="-0.36857525"><ele>-41.2</ele><time>2022-10-30T15:34:43.0000000+00:00</time></trkpt><trkpt lat="39.47890174" lon="-0.36857651"><ele>-41.2</ele><time>2022-10-30T15:34:44.0000000+00:00</time></trkpt><trkpt lat="39.47891808" lon="-0.36857399"><ele>-41.2</ele><time>2022-10-30T15:34:45.0000000+00:00</time></trkpt><trkpt lat="39.47893661" lon="-0.36856854"><ele>-41.2</ele><time>2022-10-30T15:34:46.0000000+00:00</time></trkpt><trkpt lat="39.47894868" lon="-0.36856301"><ele>-41.2</ele><time>2022-10-30T15:34:47.0000000+00:00</time></trkpt><trkpt lat="39.47896133" lon="-0.36855991"><ele>-41.2</ele><time>2022-10-30T15:34:48.0000000+00:00</time></trkpt><trkpt lat="39.47897684" lon="-0.36855706"><ele>-41.4</ele><time>2022-10-30T15:34:49.0000000+00:00</time></trkpt><trkpt lat="39.47898874" lon="-0.36855295"><ele>-41.4</ele><time>2022-10-30T15:34:50.0000000+00:00</time></trkpt><trkpt lat="39.47899872" lon="-0.36855798"><ele>-41.4</ele><time>2022-10-30T15:34:51.0000000+00:00</time></trkpt><trkpt lat="39.4790055" lon="-0.36856016"><ele>-41.4</ele><time>2022-10-30T15:34:52.0000000+00:00</time></trkpt><trkpt lat="39.47901573" lon="-0.36855773"><ele>-41.4</ele><time>2022-10-30T15:34:53.0000000+00:00</time></trkpt><trkpt lat="39.47902487" lon="-0.36855564"><ele>-41.4</ele><time>2022-10-30T15:34:54.0000000+00:00</time></trkpt><trkpt lat="39.47903794" lon="-0.36855446"><ele>-41.4</ele><time>2022-10-30T15:34:55.0000000+00:00</time></trkpt><trkpt lat="39.47905018" lon="-0.36855346"><ele>-41.6</ele><time>2022-10-30T15:34:56.0000000+00:00</time></trkpt><trkpt lat="39.47906518" lon="-0.36855354"><ele>-41.6</ele><time>2022-10-30T15:34:57.0000000+00:00</time></trkpt><trkpt lat="39.47907927" lon="-0.3685579"><ele>-41.6</ele><time>2022-10-30T15:34:58.0000000+00:00</time></trkpt><trkpt lat="39.47908924" lon="-0.36855773"><ele>-41.6</ele><time>2022-10-30T15:34:59.0000000+00:00</time></trkpt><trkpt lat="39.47909896" lon="-0.36856184"><ele>-41.6</ele><time>2022-10-30T15:35:00.0000000+00:00</time></trkpt><trkpt lat="39.47911288" lon="-0.36857156"><ele>-41.6</ele><time>2022-10-30T15:35:01.0000000+00:00</time></trkpt><trkpt lat="39.47912537" lon="-0.36857927"><ele>-41.6</ele><time>2022-10-30T15:35:02.0000000+00:00</time></trkpt><trkpt lat="39.47913668" lon="-0.36858313"><ele>-41.4</ele><time>2022-10-30T15:35:03.0000000+00:00</time></trkpt><trkpt lat="39.47915068" lon="-0.36859076"><ele>-41.4</ele><time>2022-10-30T15:35:04.0000000+00:00</time></trkpt><trkpt lat="39.47916308" lon="-0.3685957"><ele>-41.4</ele><time>2022-10-30T15:35:05.0000000+00:00</time></trkpt><trkpt lat="39.47917515" lon="-0.36859654"><ele>-41.4</ele><time>2022-10-30T15:35:06.0000000+00:00</time></trkpt><trkpt lat="39.47918664" lon="-0.36859805"><ele>-41.4</ele><time>2022-10-30T15:35:07.0000000+00:00</time></trkpt><trkpt lat="39.47919728" lon="-0.36860366"><ele>-41.2</ele><time>2022-10-30T15:35:08.0000000+00:00</time></trkpt><trkpt lat="39.47921195" lon="-0.36861179"><ele>-41.2</ele><time>2022-10-30T15:35:09.0000000+00:00</time></trkpt><trkpt lat="39.47922637" lon="-0.36861925"><ele>-41.2</ele><time>2022-10-30T15:35:10.0000000+00:00</time></trkpt><trkpt lat="39.47924062" lon="-0.36862847"><ele>-41.2</ele><time>2022-10-30T15:35:11.0000000+00:00</time></trkpt><trkpt lat="39.47925244" lon="-0.3686299"><ele>-41.2</ele><time>2022-10-30T15:35:12.0000000+00:00</time></trkpt><trkpt lat="39.47926124" lon="-0.3686299"><ele>-41.2</ele><time>2022-10-30T15:35:13.0000000+00:00</time></trkpt><trkpt lat="39.47927113" lon="-0.36863292"><ele>-41.2</ele><time>2022-10-30T15:35:14.0000000+00:00</time></trkpt><trkpt lat="39.47928253" lon="-0.36863786"><ele>-41.2</ele><time>2022-10-30T15:35:15.0000000+00:00</time></trkpt><trkpt lat="39.47929057" lon="-0.36863728"><ele>-41.2</ele><time>2022-10-30T15:35:16.0000000+00:00</time></trkpt><trkpt lat="39.47929627" lon="-0.36863652"><ele>-41.2</ele><time>2022-10-30T15:35:17.0000000+00:00</time></trkpt><trkpt lat="39.47930231" lon="-0.36863552"><ele>-41.2</ele><time>2022-10-30T15:35:18.0000000+00:00</time></trkpt><trkpt lat="39.47931195" lon="-0.36863803"><ele>-41.0</ele><time>2022-10-30T15:35:19.0000000+00:00</time></trkpt><trkpt lat="39.47932511" lon="-0.36863945"><ele>-41.0</ele><time>2022-10-30T15:35:20.0000000+00:00</time></trkpt><trkpt lat="39.4793381" lon="-0.36864314"><ele>-41.2</ele><time>2022-10-30T15:35:21.0000000+00:00</time></trkpt><trkpt lat="39.47934581" lon="-0.3686465"><ele>-41.0</ele><time>2022-10-30T15:35:22.0000000+00:00</time></trkpt><trkpt lat="39.47935402" lon="-0.3686465"><ele>-41.0</ele><time>2022-10-30T15:35:23.0000000+00:00</time></trkpt><trkpt lat="39.47936232" lon="-0.36864867"><ele>-41.2</ele><time>2022-10-30T15:35:24.0000000+00:00</time></trkpt><trkpt lat="39.47936459" lon="-0.36865044"><ele>-41.2</ele><time>2022-10-30T15:35:25.0000000+00:00</time></trkpt><trkpt lat="39.47936484" lon="-0.36865144"><ele>-41.2</ele><time>2022-10-30T15:35:26.0000000+00:00</time></trkpt><trkpt lat="39.47936559" lon="-0.36865337"><ele>-41.2</ele><time>2022-10-30T15:35:27.0000000+00:00</time></trkpt><trkpt lat="39.47936593" lon="-0.36865521"><ele>-41.2</ele><time>2022-10-30T15:35:28.0000000+00:00</time></trkpt><trkpt lat="39.47936668" lon="-0.36865429"><ele>-41.2</ele><time>2022-10-30T15:35:29.0000000+00:00</time></trkpt><trkpt lat="39.47936861" lon="-0.36865446"><ele>-41.2</ele><time>2022-10-30T15:35:30.0000000+00:00</time></trkpt><trkpt lat="39.47936584" lon="-0.3686444"><ele>-41.2</ele><time>2022-10-30T15:35:31.0000000+00:00</time></trkpt><trkpt lat="39.47936484" lon="-0.36864398"><ele>-41.2</ele><time>2022-10-30T15:35:32.0000000+00:00</time></trkpt><trkpt lat="39.47936425" lon="-0.36864423"><ele>-41.2</ele><time>2022-10-30T15:35:33.0000000+00:00</time></trkpt><trkpt lat="39.47936375" lon="-0.3686423"><ele>-41.2</ele><time>2022-10-30T15:35:34.0000000+00:00</time></trkpt><trkpt lat="39.47936316" lon="-0.36864096"><ele>-41.2</ele><time>2022-10-30T15:35:35.0000000+00:00</time></trkpt><trkpt lat="39.47936542" lon="-0.36864038"><ele>-41.2</ele><time>2022-10-30T15:35:36.0000000+00:00</time></trkpt><trkpt lat="39.47937045" lon="-0.36864499"><ele>-41.2</ele><time>2022-10-30T15:35:37.0000000+00:00</time></trkpt><trkpt lat="39.47937221" lon="-0.36864733"><ele>-41.0</ele><time>2022-10-30T15:35:38.0000000+00:00</time></trkpt><trkpt lat="39.47937255" lon="-0.36864918"><ele>-40.8</ele><time>2022-10-30T15:35:39.0000000+00:00</time></trkpt><trkpt lat="39.47937163" lon="-0.3686522"><ele>-40.2</ele><time>2022-10-30T15:35:40.0000000+00:00</time></trkpt><trkpt lat="39.47936819" lon="-0.3686527"><ele>-40.2</ele><time>2022-10-30T15:35:41.0000000+00:00</time></trkpt><trkpt lat="39.47936961" lon="-0.36865572"><ele>-39.8</ele><time>2022-10-30T15:35:42.0000000+00:00</time></trkpt><trkpt lat="39.4793764" lon="-0.36865882"><ele>-39.8</ele><time>2022-10-30T15:35:43.0000000+00:00</time></trkpt><trkpt lat="39.47937934" lon="-0.36866125"><ele>-39.8</ele><time>2022-10-30T15:35:44.0000000+00:00</time></trkpt><trkpt lat="39.47937951" lon="-0.36866209"><ele>-39.8</ele><time>2022-10-30T15:35:45.0000000+00:00</time></trkpt><trkpt lat="39.47937741" lon="-0.36865471"><ele>-39.8</ele><time>2022-10-30T15:35:46.0000000+00:00</time></trkpt><trkpt lat="39.47937582" lon="-0.3686537"><ele>-39.8</ele><time>2022-10-30T15:35:47.0000000+00:00</time></trkpt><trkpt lat="39.47937473" lon="-0.36865689"><ele>-39.8</ele><time>2022-10-30T15:35:48.0000000+00:00</time></trkpt><trkpt lat="39.47938177" lon="-0.36866267"><ele>-39.8</ele><time>2022-10-30T15:35:49.0000000+00:00</time></trkpt><trkpt lat="39.47939158" lon="-0.36866401"><ele>-39.8</ele><time>2022-10-30T15:35:50.0000000+00:00</time></trkpt><trkpt lat="39.47939334" lon="-0.36866678"><ele>-39.8</ele><time>2022-10-30T15:35:51.0000000+00:00</time></trkpt><trkpt lat="39.4793982" lon="-0.36867256"><ele>-39.6</ele><time>2022-10-30T15:35:52.0000000+00:00</time></trkpt><trkpt lat="39.47940532" lon="-0.36867868"><ele>-39.6</ele><time>2022-10-30T15:35:53.0000000+00:00</time></trkpt><trkpt lat="39.47941027" lon="-0.36868748"><ele>-39.8</ele><time>2022-10-30T15:35:54.0000000+00:00</time></trkpt><trkpt lat="39.47941287" lon="-0.36869964"><ele>-39.8</ele><time>2022-10-30T15:35:55.0000000+00:00</time></trkpt><trkpt lat="39.47941421" lon="-0.36870441"><ele>-39.8</ele><time>2022-10-30T15:35:56.0000000+00:00</time></trkpt><trkpt lat="39.4794153" lon="-0.36870257"><ele>-39.8</ele><time>2022-10-30T15:35:57.0000000+00:00</time></trkpt><trkpt lat="39.47940281" lon="-0.36869528"><ele>-39.8</ele><time>2022-10-30T15:35:58.0000000+00:00</time></trkpt><trkpt lat="39.47939769" lon="-0.36869704"><ele>-39.8</ele><time>2022-10-30T15:35:59.0000000+00:00</time></trkpt><trkpt lat="39.47939308" lon="-0.36869193"><ele>-39.8</ele><time>2022-10-30T15:36:00.0000000+00:00</time></trkpt><trkpt lat="39.47938479" lon="-0.36869838"><ele>-39.8</ele><time>2022-10-30T15:36:01.0000000+00:00</time></trkpt><trkpt lat="39.47937607" lon="-0.36869737"><ele>-39.6</ele><time>2022-10-30T15:36:02.0000000+00:00</time></trkpt><trkpt lat="39.47937213" lon="-0.36870584"><ele>-39.6</ele><time>2022-10-30T15:36:03.0000000+00:00</time></trkpt><trkpt lat="39.47936056" lon="-0.3687024"><ele>-39.6</ele><time>2022-10-30T15:36:04.0000000+00:00</time></trkpt><trkpt lat="39.47934707" lon="-0.36871204"><ele>-39.6</ele><time>2022-10-30T15:36:05.0000000+00:00</time></trkpt><trkpt lat="39.47933072" lon="-0.36871975"><ele>-39.6</ele><time>2022-10-30T15:36:06.0000000+00:00</time></trkpt><trkpt lat="39.47931631" lon="-0.36872931"><ele>-39.4</ele><time>2022-10-30T15:36:07.0000000+00:00</time></trkpt><trkpt lat="39.479335" lon="-0.36872252"><ele>-39.2</ele><time>2022-10-30T15:36:08.0000000+00:00</time></trkpt><trkpt lat="39.47933374" lon="-0.36872537"><ele>-39.0</ele><time>2022-10-30T15:36:09.0000000+00:00</time></trkpt><trkpt lat="39.47933156" lon="-0.36871942"><ele>-39.0</ele><time>2022-10-30T15:36:10.0000000+00:00</time></trkpt><trkpt lat="39.4793267" lon="-0.36870475"><ele>-39.0</ele><time>2022-10-30T15:36:11.0000000+00:00</time></trkpt><trkpt lat="39.47932184" lon="-0.36869855"><ele>-39.0</ele><time>2022-10-30T15:36:12.0000000+00:00</time></trkpt><trkpt lat="39.47931253" lon="-0.36869327"><ele>-39.4</ele><time>2022-10-30T15:36:13.0000000+00:00</time></trkpt><trkpt lat="39.4792982" lon="-0.36867944"><ele>-39.4</ele><time>2022-10-30T15:36:14.0000000+00:00</time></trkpt><trkpt lat="39.4792801" lon="-0.36868597"><ele>-39.4</ele><time>2022-10-30T15:36:15.0000000+00:00</time></trkpt><trkpt lat="39.47927909" lon="-0.36869134"><ele>-39.4</ele><time>2022-10-30T15:36:16.0000000+00:00</time></trkpt><trkpt lat="39.47926853" lon="-0.36867566"><ele>-39.6</ele><time>2022-10-30T15:36:17.0000000+00:00</time></trkpt><trkpt lat="39.47926342" lon="-0.36866829"><ele>-39.6</ele><time>2022-10-30T15:36:18.0000000+00:00</time></trkpt><trkpt lat="39.47926568" lon="-0.36866963"><ele>-39.6</ele><time>2022-10-30T15:36:19.0000000+00:00</time></trkpt><trkpt lat="39.47928303" lon="-0.36869159"><ele>-39.6</ele><time>2022-10-30T15:36:20.0000000+00:00</time></trkpt><trkpt lat="39.47928756" lon="-0.36869226"><ele>-39.8</ele><time>2022-10-30T15:36:21.0000000+00:00</time></trkpt><trkpt lat="39.47928739" lon="-0.3686931"><ele>-39.8</ele><time>2022-10-30T15:36:22.0000000+00:00</time></trkpt><trkpt lat="39.47928211" lon="-0.36868321"><ele>-39.8</ele><time>2022-10-30T15:36:23.0000000+00:00</time></trkpt><trkpt lat="39.47927599" lon="-0.36867675"><ele>-39.8</ele><time>2022-10-30T15:36:24.0000000+00:00</time></trkpt><trkpt lat="39.47927699" lon="-0.36867248"><ele>-39.8</ele><time>2022-10-30T15:36:25.0000000+00:00</time></trkpt><trkpt lat="39.47927632" lon="-0.36866561"><ele>-39.6</ele><time>2022-10-30T15:36:26.0000000+00:00</time></trkpt><trkpt lat="39.47927599" lon="-0.36866452"><ele>-39.6</ele><time>2022-10-30T15:36:27.0000000+00:00</time></trkpt><trkpt lat="39.47927867" lon="-0.36866385"><ele>-39.6</ele><time>2022-10-30T15:36:28.0000000+00:00</time></trkpt><trkpt lat="39.47927708" lon="-0.36866485"><ele>-39.6</ele><time>2022-10-30T15:36:29.0000000+00:00</time></trkpt><trkpt lat="39.47927473" lon="-0.36866385"><ele>-39.6</ele><time>2022-10-30T15:36:30.0000000+00:00</time></trkpt><trkpt lat="39.47926937" lon="-0.36865622"><ele>-39.6</ele><time>2022-10-30T15:36:31.0000000+00:00</time></trkpt><trkpt lat="39.47926342" lon="-0.36865002"><ele>-39.6</ele><time>2022-10-30T15:36:32.0000000+00:00</time></trkpt><trkpt lat="39.47926652" lon="-0.36864423"><ele>-39.6</ele><time>2022-10-30T15:36:33.0000000+00:00</time></trkpt><trkpt lat="39.4792609" lon="-0.36864113"><ele>-39.8</ele><time>2022-10-30T15:36:34.0000000+00:00</time></trkpt><trkpt lat="39.47926132" lon="-0.36865991"><ele>-39.8</ele><time>2022-10-30T15:36:35.0000000+00:00</time></trkpt><trkpt lat="39.47926031" lon="-0.36866225"><ele>-39.8</ele><time>2022-10-30T15:36:36.0000000+00:00</time></trkpt><trkpt lat="39.47925495" lon="-0.36866854"><ele>-40.0</ele><time>2022-10-30T15:36:37.0000000+00:00</time></trkpt><trkpt lat="39.47925545" lon="-0.36866804"><ele>-40.0</ele><time>2022-10-30T15:36:38.0000000+00:00</time></trkpt><trkpt lat="39.47925218" lon="-0.36867122"><ele>-40.0</ele><time>2022-10-30T15:36:39.0000000+00:00</time></trkpt><trkpt lat="39.47924648" lon="-0.36867525"><ele>-40.2</ele><time>2022-10-30T15:36:40.0000000+00:00</time></trkpt><trkpt lat="39.4792407" lon="-0.36867382"><ele>-40.2</ele><time>2022-10-30T15:36:41.0000000+00:00</time></trkpt><trkpt lat="39.47922897" lon="-0.36868103"><ele>-40.2</ele><time>2022-10-30T15:36:42.0000000+00:00</time></trkpt><trkpt lat="39.47922243" lon="-0.36866636"><ele>-40.2</ele><time>2022-10-30T15:36:43.0000000+00:00</time></trkpt><trkpt lat="39.47921673" lon="-0.36865538"><ele>-40.2</ele><time>2022-10-30T15:36:44.0000000+00:00</time></trkpt><trkpt lat="39.4792153" lon="-0.36868103"><ele>-40.0</ele><time>2022-10-30T15:36:45.0000000+00:00</time></trkpt><trkpt lat="39.47921757" lon="-0.36866846"><ele>-40.0</ele><time>2022-10-30T15:36:46.0000000+00:00</time></trkpt><trkpt lat="39.47921665" lon="-0.36866309"><ele>-40.0</ele><time>2022-10-30T15:36:47.0000000+00:00</time></trkpt><trkpt lat="39.47921648" lon="-0.36866862"><ele>-40.0</ele><time>2022-10-30T15:36:48.0000000+00:00</time></trkpt><trkpt lat="39.47920893" lon="-0.36868396"><ele>-40.0</ele><time>2022-10-30T15:36:49.0000000+00:00</time></trkpt><trkpt lat="39.47919519" lon="-0.36869042"><ele>-40.0</ele><time>2022-10-30T15:36:50.0000000+00:00</time></trkpt><trkpt lat="39.47919301" lon="-0.36869142"><ele>-40.0</ele><time>2022-10-30T15:36:51.0000000+00:00</time></trkpt><trkpt lat="39.47918144" lon="-0.36869369"><ele>-40.0</ele><time>2022-10-30T15:36:52.0000000+00:00</time></trkpt><trkpt lat="39.47917532" lon="-0.36867592"><ele>-40.0</ele><time>2022-10-30T15:36:53.0000000+00:00</time></trkpt><trkpt lat="39.47918329" lon="-0.3686817"><ele>-40.0</ele><time>2022-10-30T15:36:54.0000000+00:00</time></trkpt><trkpt lat="39.47918463" lon="-0.36867801"><ele>-40.0</ele><time>2022-10-30T15:36:55.0000000+00:00</time></trkpt><trkpt lat="39.47918211" lon="-0.36867466"><ele>-40.0</ele><time>2022-10-30T15:36:56.0000000+00:00</time></trkpt><trkpt lat="39.47918622" lon="-0.36868078"><ele>-40.0</ele><time>2022-10-30T15:36:57.0000000+00:00</time></trkpt><trkpt lat="39.47918228" lon="-0.36868002"><ele>-40.2</ele><time>2022-10-30T15:36:58.0000000+00:00</time></trkpt><trkpt lat="39.47918228" lon="-0.36868455"><ele>-40.2</ele><time>2022-10-30T15:36:59.0000000+00:00</time></trkpt><trkpt lat="39.47918253" lon="-0.36868782"><ele>-40.2</ele><time>2022-10-30T15:37:00.0000000+00:00</time></trkpt><trkpt lat="39.47917138" lon="-0.36868371"><ele>-40.2</ele><time>2022-10-30T15:37:01.0000000+00:00</time></trkpt><trkpt lat="39.47916878" lon="-0.36869008"><ele>-40.2</ele><time>2022-10-30T15:37:02.0000000+00:00</time></trkpt><trkpt lat="39.47917499" lon="-0.36869645"><ele>-40.2</ele><time>2022-10-30T15:37:03.0000000+00:00</time></trkpt><trkpt lat="39.479178" lon="-0.36870483"><ele>-40.2</ele><time>2022-10-30T15:37:04.0000000+00:00</time></trkpt><trkpt lat="39.47918563" lon="-0.36871313"><ele>-40.2</ele><time>2022-10-30T15:37:05.0000000+00:00</time></trkpt><trkpt lat="39.47918898" lon="-0.36871749"><ele>-40.2</ele><time>2022-10-30T15:37:06.0000000+00:00</time></trkpt><trkpt lat="39.47918094" lon="-0.36870651"><ele>-40.2</ele><time>2022-10-30T15:37:07.0000000+00:00</time></trkpt><trkpt lat="39.47917532" lon="-0.36870525"><ele>-40.2</ele><time>2022-10-30T15:37:08.0000000+00:00</time></trkpt><trkpt lat="39.47917675" lon="-0.36870886"><ele>-40.2</ele><time>2022-10-30T15:37:09.0000000+00:00</time></trkpt><trkpt lat="39.47918437" lon="-0.3687055"><ele>-40.2</ele><time>2022-10-30T15:37:10.0000000+00:00</time></trkpt><trkpt lat="39.47918664" lon="-0.36870752"><ele>-40.2</ele><time>2022-10-30T15:37:11.0000000+00:00</time></trkpt><trkpt lat="39.47918563" lon="-0.36870441"><ele>-40.2</ele><time>2022-10-30T15:37:12.0000000+00:00</time></trkpt><trkpt lat="39.47917507" lon="-0.36870265"><ele>-40.2</ele><time>2022-10-30T15:37:13.0000000+00:00</time></trkpt><trkpt lat="39.47917541" lon="-0.36870014"><ele>-40.2</ele><time>2022-10-30T15:37:14.0000000+00:00</time></trkpt><trkpt lat="39.47917155" lon="-0.36869234"><ele>-40.2</ele><time>2022-10-30T15:37:15.0000000+00:00</time></trkpt><trkpt lat="39.47916283" lon="-0.36868019"><ele>-40.2</ele><time>2022-10-30T15:37:16.0000000+00:00</time></trkpt><trkpt lat="39.47916241" lon="-0.36867055"><ele>-40.0</ele><time>2022-10-30T15:37:17.0000000+00:00</time></trkpt><trkpt lat="39.47916577" lon="-0.36866577"><ele>-40.0</ele><time>2022-10-30T15:37:18.0000000+00:00</time></trkpt><trkpt lat="39.47917591" lon="-0.36866896"><ele>-40.0</ele><time>2022-10-30T15:37:19.0000000+00:00</time></trkpt><trkpt lat="39.47920105" lon="-0.36868162"><ele>-40.0</ele><time>2022-10-30T15:37:20.0000000+00:00</time></trkpt><trkpt lat="39.47919628" lon="-0.36868497"><ele>-40.0</ele><time>2022-10-30T15:37:21.0000000+00:00</time></trkpt><trkpt lat="39.47919644" lon="-0.3686988"><ele>-40.0</ele><time>2022-10-30T15:37:22.0000000+00:00</time></trkpt><trkpt lat="39.47919988" lon="-0.36870207"><ele>-40.0</ele><time>2022-10-30T15:37:23.0000000+00:00</time></trkpt><trkpt lat="39.4792143" lon="-0.36869117"><ele>-40.0</ele><time>2022-10-30T15:37:24.0000000+00:00</time></trkpt><trkpt lat="39.47923081" lon="-0.36869343"><ele>-40.0</ele><time>2022-10-30T15:37:25.0000000+00:00</time></trkpt><trkpt lat="39.47923291" lon="-0.36869913"><ele>-40.0</ele><time>2022-10-30T15:37:26.0000000+00:00</time></trkpt><trkpt lat="39.47923617" lon="-0.3687045"><ele>-40.0</ele><time>2022-10-30T15:37:27.0000000+00:00</time></trkpt><trkpt lat="39.47922327" lon="-0.36869897"><ele>-40.2</ele><time>2022-10-30T15:37:28.0000000+00:00</time></trkpt><trkpt lat="39.47922176" lon="-0.36869452"><ele>-40.2</ele><time>2022-10-30T15:37:29.0000000+00:00</time></trkpt><trkpt lat="39.47923165" lon="-0.36868145"><ele>-40.2</ele><time>2022-10-30T15:37:30.0000000+00:00</time></trkpt><trkpt lat="39.47924246" lon="-0.36867944"><ele>-40.2</ele><time>2022-10-30T15:37:31.0000000+00:00</time></trkpt><trkpt lat="39.47926023" lon="-0.36866996"><ele>-40.2</ele><time>2022-10-30T15:37:32.0000000+00:00</time></trkpt><trkpt lat="39.47926216" lon="-0.36866854"><ele>-40.2</ele><time>2022-10-30T15:37:33.0000000+00:00</time></trkpt><trkpt lat="39.4792687" lon="-0.36867717"><ele>-40.2</ele><time>2022-10-30T15:37:34.0000000+00:00</time></trkpt><trkpt lat="39.47927138" lon="-0.36867726"><ele>-40.2</ele><time>2022-10-30T15:37:35.0000000+00:00</time></trkpt><trkpt lat="39.47927079" lon="-0.36867684"><ele>-40.0</ele><time>2022-10-30T15:37:36.0000000+00:00</time></trkpt><trkpt lat="39.47926719" lon="-0.36867692"><ele>-40.0</ele><time>2022-10-30T15:37:37.0000000+00:00</time></trkpt><trkpt lat="39.47926945" lon="-0.36867441"><ele>-40.0</ele><time>2022-10-30T15:37:38.0000000+00:00</time></trkpt><trkpt lat="39.47926224" lon="-0.36865437"><ele>-40.0</ele><time>2022-10-30T15:37:39.0000000+00:00</time></trkpt><trkpt lat="39.47925202" lon="-0.36865463"><ele>-40.0</ele><time>2022-10-30T15:37:40.0000000+00:00</time></trkpt><trkpt lat="39.47925956" lon="-0.36865848"><ele>-40.0</ele><time>2022-10-30T15:37:41.0000000+00:00</time></trkpt><trkpt lat="39.47926048" lon="-0.36865714"><ele>-40.0</ele><time>2022-10-30T15:37:42.0000000+00:00</time></trkpt><trkpt lat="39.47925805" lon="-0.36865404"><ele>-40.2</ele><time>2022-10-30T15:37:43.0000000+00:00</time></trkpt><trkpt lat="39.47925763" lon="-0.36865111"><ele>-40.2</ele><time>2022-10-30T15:37:44.0000000+00:00</time></trkpt><trkpt lat="39.47925688" lon="-0.36864691"><ele>-40.2</ele><time>2022-10-30T15:37:45.0000000+00:00</time></trkpt><trkpt lat="39.47925487" lon="-0.36864298"><ele>-40.2</ele><time>2022-10-30T15:37:46.0000000+00:00</time></trkpt><trkpt lat="39.47925361" lon="-0.36863945"><ele>-40.2</ele><time>2022-10-30T15:37:47.0000000+00:00</time></trkpt><trkpt lat="39.47925118" lon="-0.3686351"><ele>-40.2</ele><time>2022-10-30T15:37:48.0000000+00:00</time></trkpt><trkpt lat="39.47925462" lon="-0.36863501"><ele>-40.2</ele><time>2022-10-30T15:37:49.0000000+00:00</time></trkpt><trkpt lat="39.47926627" lon="-0.36863837"><ele>-40.2</ele><time>2022-10-30T15:37:50.0000000+00:00</time></trkpt><trkpt lat="39.47926727" lon="-0.36863853"><ele>-40.0</ele><time>2022-10-30T15:37:52.0000000+00:00</time></trkpt><trkpt lat="39.47926451" lon="-0.36863702"><ele>-40.0</ele><time>2022-10-30T15:37:53.0000000+00:00</time></trkpt><trkpt lat="39.47925059" lon="-0.36864054"><ele>-40.0</ele><time>2022-10-30T15:37:54.0000000+00:00</time></trkpt><trkpt lat="39.4792469" lon="-0.36863795"><ele>-39.6</ele><time>2022-10-30T15:37:55.0000000+00:00</time></trkpt><trkpt lat="39.47923785" lon="-0.36863619"><ele>-39.6</ele><time>2022-10-30T15:37:56.0000000+00:00</time></trkpt><trkpt lat="39.47922695" lon="-0.3686418"><ele>-39.6</ele><time>2022-10-30T15:37:57.0000000+00:00</time></trkpt><trkpt lat="39.47920407" lon="-0.36862931"><ele>-39.6</ele><time>2022-10-30T15:37:58.0000000+00:00</time></trkpt><trkpt lat="39.47919443" lon="-0.36862663"><ele>-39.6</ele><time>2022-10-30T15:37:59.0000000+00:00</time></trkpt><trkpt lat="39.47918396" lon="-0.36861951"><ele>-39.6</ele><time>2022-10-30T15:38:00.0000000+00:00</time></trkpt><trkpt lat="39.4791775" lon="-0.36860031"><ele>-39.6</ele><time>2022-10-30T15:38:02.0000000+00:00</time></trkpt><trkpt lat="39.47917859" lon="-0.36859252"><ele>-39.6</ele><time>2022-10-30T15:38:03.0000000+00:00</time></trkpt><trkpt lat="39.47919854" lon="-0.36860668"><ele>-39.6</ele><time>2022-10-30T15:38:04.0000000+00:00</time></trkpt><trkpt lat="39.47920005" lon="-0.36860517"><ele>-39.6</ele><time>2022-10-30T15:38:05.0000000+00:00</time></trkpt><trkpt lat="39.47921589" lon="-0.36861121"><ele>-39.6</ele><time>2022-10-30T15:38:06.0000000+00:00</time></trkpt><trkpt lat="39.47924724" lon="-0.36866276"><ele>-39.6</ele><time>2022-10-30T15:38:07.0000000+00:00</time></trkpt><trkpt lat="39.47924942" lon="-0.36868514"><ele>-39.6</ele><time>2022-10-30T15:38:08.0000000+00:00</time></trkpt><trkpt lat="39.47926819" lon="-0.36872227"><ele>-39.6</ele><time>2022-10-30T15:38:09.0000000+00:00</time></trkpt><trkpt lat="39.47926761" lon="-0.36873115"><ele>-39.6</ele><time>2022-10-30T15:38:10.0000000+00:00</time></trkpt><trkpt lat="39.47925973" lon="-0.36874029"><ele>-39.6</ele><time>2022-10-30T15:38:11.0000000+00:00</time></trkpt><trkpt lat="39.47924338" lon="-0.36874607"><ele>-39.6</ele><time>2022-10-30T15:38:12.0000000+00:00</time></trkpt><trkpt lat="39.47924372" lon="-0.36875378"><ele>-39.6</ele><time>2022-10-30T15:38:13.0000000+00:00</time></trkpt><trkpt lat="39.47923056" lon="-0.36876812"><ele>-39.6</ele><time>2022-10-30T15:38:14.0000000+00:00</time></trkpt><trkpt lat="39.47922771" lon="-0.36876954"><ele>-39.6</ele><time>2022-10-30T15:38:15.0000000+00:00</time></trkpt><trkpt lat="39.47922519" lon="-0.36876971"><ele>-39.8</ele><time>2022-10-30T15:38:16.0000000+00:00</time></trkpt><trkpt lat="39.47922721" lon="-0.36877734"><ele>-39.8</ele><time>2022-10-30T15:38:17.0000000+00:00</time></trkpt><trkpt lat="39.4792138" lon="-0.36876124"><ele>-39.8</ele><time>2022-10-30T15:38:18.0000000+00:00</time></trkpt><trkpt lat="39.4791718" lon="-0.36867189"><ele>-39.8</ele><time>2022-10-30T15:38:19.0000000+00:00</time></trkpt><trkpt lat="39.47917339" lon="-0.368676"><ele>-39.8</ele><time>2022-10-30T15:38:20.0000000+00:00</time></trkpt><trkpt lat="39.47917574" lon="-0.36867575"><ele>-39.8</ele><time>2022-10-30T15:38:21.0000000+00:00</time></trkpt><trkpt lat="39.47918002" lon="-0.36867994"><ele>-39.8</ele><time>2022-10-30T15:38:22.0000000+00:00</time></trkpt><trkpt lat="39.47918773" lon="-0.36868782"><ele>-39.8</ele><time>2022-10-30T15:38:23.0000000+00:00</time></trkpt><trkpt lat="39.47920902" lon="-0.36872906"><ele>-39.8</ele><time>2022-10-30T15:38:24.0000000+00:00</time></trkpt><trkpt lat="39.47922897" lon="-0.36877432"><ele>-39.8</ele><time>2022-10-30T15:38:25.0000000+00:00</time></trkpt><trkpt lat="39.47923031" lon="-0.36877616"><ele>-39.8</ele><time>2022-10-30T15:38:26.0000000+00:00</time></trkpt><trkpt lat="39.47923156" lon="-0.36878069"><ele>-39.8</ele><time>2022-10-30T15:38:27.0000000+00:00</time></trkpt><trkpt lat="39.47923165" lon="-0.36878463"><ele>-39.8</ele><time>2022-10-30T15:38:28.0000000+00:00</time></trkpt><trkpt lat="39.47923542" lon="-0.36878572"><ele>-40.0</ele><time>2022-10-30T15:38:29.0000000+00:00</time></trkpt><trkpt lat="39.47924464" lon="-0.36879041"><ele>-40.0</ele><time>2022-10-30T15:38:30.0000000+00:00</time></trkpt><trkpt lat="39.4792469" lon="-0.36878312"><ele>-40.0</ele><time>2022-10-30T15:38:31.0000000+00:00</time></trkpt><trkpt lat="39.47925059" lon="-0.36878094"><ele>-40.0</ele><time>2022-10-30T15:38:32.0000000+00:00</time></trkpt><trkpt lat="39.47925193" lon="-0.36878069"><ele>-40.0</ele><time>2022-10-30T15:38:33.0000000+00:00</time></trkpt><trkpt lat="39.4792433" lon="-0.36876644"><ele>-40.0</ele><time>2022-10-30T15:38:34.0000000+00:00</time></trkpt><trkpt lat="39.47923651" lon="-0.36876141"><ele>-40.0</ele><time>2022-10-30T15:38:35.0000000+00:00</time></trkpt><trkpt lat="39.47923416" lon="-0.36876334"><ele>-39.8</ele><time>2022-10-30T15:38:36.0000000+00:00</time></trkpt><trkpt lat="39.47923358" lon="-0.36876728"><ele>-39.8</ele><time>2022-10-30T15:38:37.0000000+00:00</time></trkpt><trkpt lat="39.47923282" lon="-0.36877013"><ele>-40.0</ele><time>2022-10-30T15:38:38.0000000+00:00</time></trkpt><trkpt lat="39.47923207" lon="-0.36877139"><ele>-40.0</ele><time>2022-10-30T15:38:39.0000000+00:00</time></trkpt><trkpt lat="39.47923567" lon="-0.36877281"><ele>-40.0</ele><time>2022-10-30T15:38:40.0000000+00:00</time></trkpt><trkpt lat="39.4792459" lon="-0.36876476"><ele>-40.0</ele><time>2022-10-30T15:38:41.0000000+00:00</time></trkpt><trkpt lat="39.47927406" lon="-0.36878865"><ele>-40.0</ele><time>2022-10-30T15:38:42.0000000+00:00</time></trkpt><trkpt lat="39.4792873" lon="-0.36879167"><ele>-40.0</ele><time>2022-10-30T15:38:43.0000000+00:00</time></trkpt><trkpt lat="39.47928948" lon="-0.36879771"><ele>-40.0</ele><time>2022-10-30T15:38:44.0000000+00:00</time></trkpt><trkpt lat="39.47929929" lon="-0.36881128"><ele>-40.0</ele><time>2022-10-30T15:38:45.0000000+00:00</time></trkpt><trkpt lat="39.47931035" lon="-0.36882796"><ele>-40.0</ele><time>2022-10-30T15:38:46.0000000+00:00</time></trkpt><trkpt lat="39.47931178" lon="-0.36883433"><ele>-40.0</ele><time>2022-10-30T15:38:47.0000000+00:00</time></trkpt><trkpt lat="39.47930943" lon="-0.36883886"><ele>-40.0</ele><time>2022-10-30T15:38:48.0000000+00:00</time></trkpt><trkpt lat="39.47930549" lon="-0.36884238"><ele>-40.0</ele><time>2022-10-30T15:38:49.0000000+00:00</time></trkpt><trkpt lat="39.47930256" lon="-0.36884381"><ele>-40.0</ele><time>2022-10-30T15:38:50.0000000+00:00</time></trkpt><trkpt lat="39.47930055" lon="-0.36884129"><ele>-40.0</ele><time>2022-10-30T15:38:51.0000000+00:00</time></trkpt><trkpt lat="39.4793003" lon="-0.36884163"><ele>-40.0</ele><time>2022-10-30T15:38:52.0000000+00:00</time></trkpt><trkpt lat="39.47929879" lon="-0.36883769"><ele>-40.0</ele><time>2022-10-30T15:38:53.0000000+00:00</time></trkpt><trkpt lat="39.47929837" lon="-0.36883366"><ele>-40.0</ele><time>2022-10-30T15:38:54.0000000+00:00</time></trkpt><trkpt lat="39.47929778" lon="-0.36882813"><ele>-40.2</ele><time>2022-10-30T15:38:55.0000000+00:00</time></trkpt><trkpt lat="39.47928596" lon="-0.36880785"><ele>-40.2</ele><time>2022-10-30T15:38:56.0000000+00:00</time></trkpt><trkpt lat="39.47927632" lon="-0.36878647"><ele>-40.2</ele><time>2022-10-30T15:38:57.0000000+00:00</time></trkpt><trkpt lat="39.47926953" lon="-0.36877834"><ele>-40.2</ele><time>2022-10-30T15:38:58.0000000+00:00</time></trkpt><trkpt lat="39.47927414" lon="-0.36878865"><ele>-40.2</ele><time>2022-10-30T15:38:59.0000000+00:00</time></trkpt><trkpt lat="39.47927599" lon="-0.36878815"><ele>-40.2</ele><time>2022-10-30T15:39:00.0000000+00:00</time></trkpt><trkpt lat="39.47927884" lon="-0.36878983"><ele>-40.2</ele><time>2022-10-30T15:39:01.0000000+00:00</time></trkpt><trkpt lat="39.47928127" lon="-0.36878848"><ele>-40.2</ele><time>2022-10-30T15:39:02.0000000+00:00</time></trkpt><trkpt lat="39.47927674" lon="-0.36875906"><ele>-40.2</ele><time>2022-10-30T15:39:03.0000000+00:00</time></trkpt><trkpt lat="39.47927549" lon="-0.36875705"><ele>-40.2</ele><time>2022-10-30T15:39:04.0000000+00:00</time></trkpt><trkpt lat="39.47928571" lon="-0.36875035"><ele>-40.2</ele><time>2022-10-30T15:39:05.0000000+00:00</time></trkpt><trkpt lat="39.47928462" lon="-0.36869327"><ele>-40.2</ele><time>2022-10-30T15:39:06.0000000+00:00</time></trkpt><trkpt lat="39.47927875" lon="-0.36867022"><ele>-40.2</ele><time>2022-10-30T15:39:07.0000000+00:00</time></trkpt><trkpt lat="39.47928001" lon="-0.36865412"><ele>-40.2</ele><time>2022-10-30T15:39:08.0000000+00:00</time></trkpt><trkpt lat="39.47929175" lon="-0.3686361"><ele>-40.2</ele><time>2022-10-30T15:39:09.0000000+00:00</time></trkpt><trkpt lat="39.47928001" lon="-0.36863568"><ele>-40.4</ele><time>2022-10-30T15:39:10.0000000+00:00</time></trkpt><trkpt lat="39.47927515" lon="-0.368618"><ele>-40.4</ele><time>2022-10-30T15:39:11.0000000+00:00</time></trkpt><trkpt lat="39.47928613" lon="-0.36859243"><ele>-40.4</ele><time>2022-10-30T15:39:12.0000000+00:00</time></trkpt><trkpt lat="39.47928613" lon="-0.36855329"><ele>-40.4</ele><time>2022-10-30T15:39:13.0000000+00:00</time></trkpt><trkpt lat="39.47933064" lon="-0.36861104"><ele>-40.4</ele><time>2022-10-30T15:39:14.0000000+00:00</time></trkpt><trkpt lat="39.47936693" lon="-0.368604"><ele>-40.4</ele><time>2022-10-30T15:39:15.0000000+00:00</time></trkpt><trkpt lat="39.47939023" lon="-0.36859897"><ele>-40.4</ele><time>2022-10-30T15:39:16.0000000+00:00</time></trkpt><trkpt lat="39.47939241" lon="-0.36859428"><ele>-40.4</ele><time>2022-10-30T15:39:17.0000000+00:00</time></trkpt><trkpt lat="39.479393" lon="-0.36859076"><ele>-40.4</ele><time>2022-10-30T15:39:18.0000000+00:00</time></trkpt><trkpt lat="39.4793935" lon="-0.36859009"><ele>-40.4</ele><time>2022-10-30T15:39:19.0000000+00:00</time></trkpt><trkpt lat="39.47939241" lon="-0.36858774"><ele>-40.4</ele><time>2022-10-30T15:39:20.0000000+00:00</time></trkpt><trkpt lat="39.4793925" lon="-0.36858774"><ele>-40.6</ele><time>2022-10-30T15:39:21.0000000+00:00</time></trkpt><trkpt lat="39.47939191" lon="-0.36858397"><ele>-40.6</ele><time>2022-10-30T15:39:22.0000000+00:00</time></trkpt><trkpt lat="39.4793873" lon="-0.36857005"><ele>-40.8</ele><time>2022-10-30T15:39:23.0000000+00:00</time></trkpt><trkpt lat="39.47938604" lon="-0.36856595"><ele>-41.0</ele><time>2022-10-30T15:39:24.0000000+00:00</time></trkpt><trkpt lat="39.47938688" lon="-0.3685641"><ele>-41.0</ele><time>2022-10-30T15:39:25.0000000+00:00</time></trkpt><trkpt lat="39.47938864" lon="-0.36855983"><ele>-41.2</ele><time>2022-10-30T15:39:26.0000000+00:00</time></trkpt><trkpt lat="39.47939308" lon="-0.36856628"><ele>-41.2</ele><time>2022-10-30T15:39:27.0000000+00:00</time></trkpt><trkpt lat="39.47939677" lon="-0.36855815"><ele>-41.4</ele><time>2022-10-30T15:39:28.0000000+00:00</time></trkpt><trkpt lat="39.47939987" lon="-0.36855228"><ele>-41.4</ele><time>2022-10-30T15:39:29.0000000+00:00</time></trkpt><trkpt lat="39.47940599" lon="-0.36854407"><ele>-41.4</ele><time>2022-10-30T15:39:30.0000000+00:00</time></trkpt><trkpt lat="39.47941404" lon="-0.36853502"><ele>-41.4</ele><time>2022-10-30T15:39:31.0000000+00:00</time></trkpt><trkpt lat="39.47941789" lon="-0.36853485"><ele>-41.6</ele><time>2022-10-30T15:39:32.0000000+00:00</time></trkpt><trkpt lat="39.47942167" lon="-0.36852429"><ele>-41.6</ele><time>2022-10-30T15:39:33.0000000+00:00</time></trkpt><trkpt lat="39.47942644" lon="-0.36851515"><ele>-41.6</ele><time>2022-10-30T15:39:34.0000000+00:00</time></trkpt><trkpt lat="39.47943097" lon="-0.36850761"><ele>-41.6</ele><time>2022-10-30T15:39:35.0000000+00:00</time></trkpt><trkpt lat="39.47943156" lon="-0.36849797"><ele>-41.8</ele><time>2022-10-30T15:39:36.0000000+00:00</time></trkpt><trkpt lat="39.47943893" lon="-0.36849612"><ele>-41.8</ele><time>2022-10-30T15:39:37.0000000+00:00</time></trkpt><trkpt lat="39.47944421" lon="-0.36849495"><ele>-41.8</ele><time>2022-10-30T15:39:38.0000000+00:00</time></trkpt><trkpt lat="39.47945092" lon="-0.36849445"><ele>-41.8</ele><time>2022-10-30T15:39:39.0000000+00:00</time></trkpt><trkpt lat="39.47945695" lon="-0.36849126"><ele>-41.8</ele><time>2022-10-30T15:39:40.0000000+00:00</time></trkpt><trkpt lat="39.47946483" lon="-0.36849001"><ele>-41.8</ele><time>2022-10-30T15:39:41.0000000+00:00</time></trkpt><trkpt lat="39.47946978" lon="-0.36848615"><ele>-41.8</ele><time>2022-10-30T15:39:42.0000000+00:00</time></trkpt><trkpt lat="39.47947606" lon="-0.36847685"><ele>-41.8</ele><time>2022-10-30T15:39:43.0000000+00:00</time></trkpt><trkpt lat="39.47948093" lon="-0.3684719"><ele>-41.8</ele><time>2022-10-30T15:39:44.0000000+00:00</time></trkpt><trkpt lat="39.47948948" lon="-0.36846838"><ele>-41.8</ele><time>2022-10-30T15:39:45.0000000+00:00</time></trkpt><trkpt lat="39.47949945" lon="-0.36846159"><ele>-41.8</ele><time>2022-10-30T15:39:46.0000000+00:00</time></trkpt><trkpt lat="39.47951303" lon="-0.36845505"><ele>-41.8</ele><time>2022-10-30T15:39:47.0000000+00:00</time></trkpt><trkpt lat="39.47953155" lon="-0.3684553"><ele>-41.8</ele><time>2022-10-30T15:39:48.0000000+00:00</time></trkpt><trkpt lat="39.47953851" lon="-0.36844826"><ele>-41.8</ele><time>2022-10-30T15:39:49.0000000+00:00</time></trkpt><trkpt lat="39.47953549" lon="-0.36843343"><ele>-42.0</ele><time>2022-10-30T15:39:50.0000000+00:00</time></trkpt><trkpt lat="39.47953323" lon="-0.36842069"><ele>-42.0</ele><time>2022-10-30T15:39:51.0000000+00:00</time></trkpt><trkpt lat="39.47953239" lon="-0.36841021"><ele>-42.0</ele><time>2022-10-30T15:39:52.0000000+00:00</time></trkpt><trkpt lat="39.47953206" lon="-0.36840384"><ele>-42.0</ele><time>2022-10-30T15:39:53.0000000+00:00</time></trkpt><trkpt lat="39.4795339" lon="-0.36839512"><ele>-42.0</ele><time>2022-10-30T15:39:54.0000000+00:00</time></trkpt><trkpt lat="39.47953382" lon="-0.36838917"><ele>-42.2</ele><time>2022-10-30T15:39:55.0000000+00:00</time></trkpt><trkpt lat="39.47953298" lon="-0.36838456"><ele>-42.2</ele><time>2022-10-30T15:39:56.0000000+00:00</time></trkpt><trkpt lat="39.47953248" lon="-0.36838255"><ele>-42.2</ele><time>2022-10-30T15:39:57.0000000+00:00</time></trkpt><trkpt lat="39.47953248" lon="-0.36838163"><ele>-42.2</ele><time>2022-10-30T15:39:58.0000000+00:00</time></trkpt><trkpt lat="39.47953348" lon="-0.36838213"><ele>-42.2</ele><time>2022-10-30T15:39:59.0000000+00:00</time></trkpt><trkpt lat="39.47953407" lon="-0.36838171"><ele>-42.0</ele><time>2022-10-30T15:40:00.0000000+00:00</time></trkpt><trkpt lat="39.47953365" lon="-0.36838138"><ele>-42.0</ele><time>2022-10-30T15:40:01.0000000+00:00</time></trkpt><trkpt lat="39.47953625" lon="-0.36837735"><ele>-42.0</ele><time>2022-10-30T15:40:02.0000000+00:00</time></trkpt><trkpt lat="39.47953809" lon="-0.36837216"><ele>-42.0</ele><time>2022-10-30T15:40:03.0000000+00:00</time></trkpt><trkpt lat="39.47954044" lon="-0.36836629"><ele>-42.2</ele><time>2022-10-30T15:40:04.0000000+00:00</time></trkpt><trkpt lat="39.4795401" lon="-0.36835933"><ele>-42.2</ele><time>2022-10-30T15:40:05.0000000+00:00</time></trkpt><trkpt lat="39.47954044" lon="-0.36835154"><ele>-42.2</ele><time>2022-10-30T15:40:06.0000000+00:00</time></trkpt><trkpt lat="39.47954019" lon="-0.36834341"><ele>-42.2</ele><time>2022-10-30T15:40:07.0000000+00:00</time></trkpt><trkpt lat="39.47954329" lon="-0.36833762"><ele>-42.4</ele><time>2022-10-30T15:40:08.0000000+00:00</time></trkpt><trkpt lat="39.4795432" lon="-0.36833142"><ele>-42.4</ele><time>2022-10-30T15:40:09.0000000+00:00</time></trkpt><trkpt lat="39.47954153" lon="-0.36832622"><ele>-42.4</ele><time>2022-10-30T15:40:10.0000000+00:00</time></trkpt><trkpt lat="39.47954094" lon="-0.36831994"><ele>-42.4</ele><time>2022-10-30T15:40:11.0000000+00:00</time></trkpt><trkpt lat="39.47954211" lon="-0.36831549"><ele>-42.6</ele><time>2022-10-30T15:40:12.0000000+00:00</time></trkpt><trkpt lat="39.47954387" lon="-0.36831181"><ele>-42.6</ele><time>2022-10-30T15:40:13.0000000+00:00</time></trkpt><trkpt lat="39.47954488" lon="-0.36830896"><ele>-42.6</ele><time>2022-10-30T15:40:14.0000000+00:00</time></trkpt><trkpt lat="39.47954496" lon="-0.36830745"><ele>-42.6</ele><time>2022-10-30T15:40:15.0000000+00:00</time></trkpt><trkpt lat="39.4795458" lon="-0.36830661"><ele>-42.6</ele><time>2022-10-30T15:40:16.0000000+00:00</time></trkpt><trkpt lat="39.47954739" lon="-0.36830401"><ele>-42.6</ele><time>2022-10-30T15:40:17.0000000+00:00</time></trkpt><trkpt lat="39.47954857" lon="-0.36830376"><ele>-42.6</ele><time>2022-10-30T15:40:18.0000000+00:00</time></trkpt><trkpt lat="39.47955234" lon="-0.36830669"><ele>-42.6</ele><time>2022-10-30T15:40:19.0000000+00:00</time></trkpt><trkpt lat="39.47955335" lon="-0.36830745"><ele>-42.6</ele><time>2022-10-30T15:40:20.0000000+00:00</time></trkpt><trkpt lat="39.47955351" lon="-0.36830837"><ele>-42.8</ele><time>2022-10-30T15:40:21.0000000+00:00</time></trkpt><trkpt lat="39.47955293" lon="-0.36830837"><ele>-42.8</ele><time>2022-10-30T15:40:22.0000000+00:00</time></trkpt><trkpt lat="39.47955293" lon="-0.36830837"><ele>-42.8</ele><time>2022-10-30T15:40:23.0000000+00:00</time></trkpt><trkpt lat="39.47955293" lon="-0.36830837"><ele>-42.8</ele><time>2022-10-30T15:40:24.0000000+00:00</time></trkpt><trkpt lat="39.47955293" lon="-0.36830837"><ele>-42.8</ele><time>2022-10-30T15:40:25.0000000+00:00</time></trkpt><trkpt lat="39.47955293" lon="-0.36830837"><ele>-42.8</ele><time>2022-10-30T15:40:26.0000000+00:00</time></trkpt><trkpt lat="39.47955293" lon="-0.36830837"><ele>-42.8</ele><time>2022-10-30T15:40:27.0000000+00:00</time></trkpt><trkpt lat="39.47955293" lon="-0.36830837"><ele>-42.8</ele><time>2022-10-30T15:40:28.0000000+00:00</time></trkpt><trkpt lat="39.47955293" lon="-0.36830837"><ele>-43.0</ele><time>2022-10-30T15:40:29.0000000+00:00</time></trkpt><trkpt lat="39.47955293" lon="-0.36830837"><ele>-43.0</ele><time>2022-10-30T15:40:30.0000000+00:00</time></trkpt><trkpt lat="39.47955293" lon="-0.36830837"><ele>-43.0</ele><time>2022-10-30T15:40:31.0000000+00:00</time></trkpt><trkpt lat="39.47955293" lon="-0.36830837"><ele>-43.0</ele><time>2022-10-30T15:40:32.0000000+00:00</time></trkpt><trkpt lat="39.47955293" lon="-0.36830745"><ele>-43.0</ele><time>2022-10-30T15:40:33.0000000+00:00</time></trkpt><trkpt lat="39.4795489" lon="-0.36830041"><ele>-43.0</ele><time>2022-10-30T15:40:34.0000000+00:00</time></trkpt><trkpt lat="39.479537" lon="-0.36828239"><ele>-43.0</ele><time>2022-10-30T15:40:35.0000000+00:00</time></trkpt><trkpt lat="39.47952527" lon="-0.36826688"><ele>-43.0</ele><time>2022-10-30T15:40:36.0000000+00:00</time></trkpt><trkpt lat="39.47951538" lon="-0.36825565"><ele>-43.0</ele><time>2022-10-30T15:40:37.0000000+00:00</time></trkpt><trkpt lat="39.47950255" lon="-0.36824391"><ele>-43.0</ele><time>2022-10-30T15:40:38.0000000+00:00</time></trkpt><trkpt lat="39.47948654" lon="-0.3682336"><ele>-43.0</ele><time>2022-10-30T15:40:39.0000000+00:00</time></trkpt><trkpt lat="39.47947422" lon="-0.3682186"><ele>-43.2</ele><time>2022-10-30T15:40:40.0000000+00:00</time></trkpt><trkpt lat="39.47946475" lon="-0.36820058"><ele>-43.2</ele><time>2022-10-30T15:40:41.0000000+00:00</time></trkpt><trkpt lat="39.47945343" lon="-0.36818046"><ele>-43.2</ele><time>2022-10-30T15:40:42.0000000+00:00</time></trkpt><trkpt lat="39.47944069" lon="-0.36816345"><ele>-43.2</ele><time>2022-10-30T15:40:43.0000000+00:00</time></trkpt><trkpt lat="39.47943508" lon="-0.3681575"><ele>-43.2</ele><time>2022-10-30T15:40:44.0000000+00:00</time></trkpt><trkpt lat="39.47943248" lon="-0.36814509"><ele>-43.2</ele><time>2022-10-30T15:40:45.0000000+00:00</time></trkpt><trkpt lat="39.47942862" lon="-0.36814098"><ele>-43.2</ele><time>2022-10-30T15:40:46.0000000+00:00</time></trkpt><trkpt lat="39.47942913" lon="-0.36813696"><ele>-43.2</ele><time>2022-10-30T15:40:47.0000000+00:00</time></trkpt><trkpt lat="39.47942343" lon="-0.3681145"><ele>-43.2</ele><time>2022-10-30T15:40:48.0000000+00:00</time></trkpt><trkpt lat="39.47941748" lon="-0.36809228"><ele>-43.2</ele><time>2022-10-30T15:40:49.0000000+00:00</time></trkpt><trkpt lat="39.47941739" lon="-0.36808223"><ele>-43.2</ele><time>2022-10-30T15:40:50.0000000+00:00</time></trkpt><trkpt lat="39.47941572" lon="-0.3680725"><ele>-43.2</ele><time>2022-10-30T15:40:51.0000000+00:00</time></trkpt><trkpt lat="39.47941035" lon="-0.36806328"><ele>-43.4</ele><time>2022-10-30T15:40:52.0000000+00:00</time></trkpt><trkpt lat="39.47940256" lon="-0.36805582"><ele>-43.4</ele><time>2022-10-30T15:40:53.0000000+00:00</time></trkpt><trkpt lat="39.47939158" lon="-0.36805322"><ele>-43.4</ele><time>2022-10-30T15:40:54.0000000+00:00</time></trkpt><trkpt lat="39.47938319" lon="-0.36805633"><ele>-43.4</ele><time>2022-10-30T15:40:55.0000000+00:00</time></trkpt><trkpt lat="39.4793759" lon="-0.36806027"><ele>-43.4</ele><time>2022-10-30T15:40:56.0000000+00:00</time></trkpt><trkpt lat="39.47936785" lon="-0.3680637"><ele>-43.4</ele><time>2022-10-30T15:40:57.0000000+00:00</time></trkpt><trkpt lat="39.47936333" lon="-0.36806538"><ele>-43.4</ele><time>2022-10-30T15:40:58.0000000+00:00</time></trkpt><trkpt lat="39.47935604" lon="-0.36807141"><ele>-43.4</ele><time>2022-10-30T15:40:59.0000000+00:00</time></trkpt><trkpt lat="39.47935327" lon="-0.36807192"><ele>-43.6</ele><time>2022-10-30T15:41:00.0000000+00:00</time></trkpt><trkpt lat="39.47935159" lon="-0.36807359"><ele>-43.6</ele><time>2022-10-30T15:41:01.0000000+00:00</time></trkpt><trkpt lat="39.4793505" lon="-0.3680756"><ele>-43.6</ele><time>2022-10-30T15:41:02.0000000+00:00</time></trkpt><trkpt lat="39.47935017" lon="-0.3680777"><ele>-43.6</ele><time>2022-10-30T15:41:03.0000000+00:00</time></trkpt><trkpt lat="39.4793521" lon="-0.36808809"><ele>-43.8</ele><time>2022-10-30T15:41:04.0000000+00:00</time></trkpt><trkpt lat="39.47935268" lon="-0.36809061"><ele>-43.8</ele><time>2022-10-30T15:41:05.0000000+00:00</time></trkpt><trkpt lat="39.47934992" lon="-0.36809036"><ele>-43.8</ele><time>2022-10-30T15:41:06.0000000+00:00</time></trkpt><trkpt lat="39.47934707" lon="-0.3680901"><ele>-43.8</ele><time>2022-10-30T15:41:07.0000000+00:00</time></trkpt><trkpt lat="39.47934715" lon="-0.36809027"><ele>-43.8</ele><time>2022-10-30T15:41:08.0000000+00:00</time></trkpt><trkpt lat="39.47934749" lon="-0.36809052"><ele>-43.8</ele><time>2022-10-30T15:41:09.0000000+00:00</time></trkpt><trkpt lat="39.47934849" lon="-0.36809103"><ele>-43.8</ele><time>2022-10-30T15:41:10.0000000+00:00</time></trkpt><trkpt lat="39.4793495" lon="-0.36809069"><ele>-44.0</ele><time>2022-10-30T15:41:11.0000000+00:00</time></trkpt><trkpt lat="39.47934967" lon="-0.36809052"><ele>-44.0</ele><time>2022-10-30T15:41:12.0000000+00:00</time></trkpt><trkpt lat="39.47934975" lon="-0.36808952"><ele>-44.0</ele><time>2022-10-30T15:41:13.0000000+00:00</time></trkpt><trkpt lat="39.47934975" lon="-0.36808952"><ele>-44.0</ele><time>2022-10-30T15:41:14.0000000+00:00</time></trkpt><trkpt lat="39.47934975" lon="-0.36808952"><ele>-44.0</ele><time>2022-10-30T15:41:15.0000000+00:00</time></trkpt><trkpt lat="39.47934975" lon="-0.36808952"><ele>-44.0</ele><time>2022-10-30T15:41:16.0000000+00:00</time></trkpt><trkpt lat="39.47934975" lon="-0.36808952"><ele>-44.0</ele><time>2022-10-30T15:41:17.0000000+00:00</time></trkpt><trkpt lat="39.47934975" lon="-0.36808952"><ele>-44.0</ele><time>2022-10-30T15:41:18.0000000+00:00</time></trkpt><trkpt lat="39.47934975" lon="-0.36808952"><ele>-44.0</ele><time>2022-10-30T15:41:19.0000000+00:00</time></trkpt><trkpt lat="39.47934975" lon="-0.36808952"><ele>-44.2</ele><time>2022-10-30T15:41:20.0000000+00:00</time></trkpt><trkpt lat="39.47934975" lon="-0.36808952"><ele>-44.2</ele><time>2022-10-30T15:41:21.0000000+00:00</time></trkpt><trkpt lat="39.47934975" lon="-0.36808952"><ele>-44.2</ele><time>2022-10-30T15:41:22.0000000+00:00</time></trkpt><trkpt lat="39.47934975" lon="-0.36808952"><ele>-44.2</ele><time>2022-10-30T15:41:23.0000000+00:00</time></trkpt><trkpt lat="39.47934975" lon="-0.36808952"><ele>-44.2</ele><time>2022-10-30T15:41:24.0000000+00:00</time></trkpt><trkpt lat="39.47934975" lon="-0.36808952"><ele>-44.4</ele><time>2022-10-30T15:41:25.0000000+00:00</time></trkpt><trkpt lat="39.47934975" lon="-0.36808952"><ele>-44.4</ele><time>2022-10-30T15:41:26.0000000+00:00</time></trkpt><trkpt lat="39.47934975" lon="-0.36808952"><ele>-44.4</ele><time>2022-10-30T15:41:27.0000000+00:00</time></trkpt><trkpt lat="39.47934975" lon="-0.36808952"><ele>-44.4</ele><time>2022-10-30T15:41:28.0000000+00:00</time></trkpt><trkpt lat="39.47934975" lon="-0.36808952"><ele>-44.4</ele><time>2022-10-30T15:41:29.0000000+00:00</time></trkpt><trkpt lat="39.47934975" lon="-0.36808952"><ele>-44.4</ele><time>2022-10-30T15:41:30.0000000+00:00</time></trkpt><trkpt lat="39.47934992" lon="-0.36808952"><ele>-44.4</ele><time>2022-10-30T15:41:31.0000000+00:00</time></trkpt><trkpt lat="39.47935" lon="-0.36808952"><ele>-44.4</ele><time>2022-10-30T15:41:32.0000000+00:00</time></trkpt><trkpt lat="39.47935025" lon="-0.36808985"><ele>-44.4</ele><time>2022-10-30T15:41:33.0000000+00:00</time></trkpt><trkpt lat="39.4793505" lon="-0.3680901"><ele>-44.6</ele><time>2022-10-30T15:41:34.0000000+00:00</time></trkpt><trkpt lat="39.47935059" lon="-0.3680901"><ele>-44.6</ele><time>2022-10-30T15:41:35.0000000+00:00</time></trkpt><trkpt lat="39.47935076" lon="-0.3680901"><ele>-44.6</ele><time>2022-10-30T15:41:36.0000000+00:00</time></trkpt><trkpt lat="39.47935394" lon="-0.36809027"><ele>-44.6</ele><time>2022-10-30T15:41:37.0000000+00:00</time></trkpt><trkpt lat="39.47935813" lon="-0.36809052"><ele>-44.6</ele><time>2022-10-30T15:41:38.0000000+00:00</time></trkpt><trkpt lat="39.47936031" lon="-0.36809052"><ele>-44.6</ele><time>2022-10-30T15:41:39.0000000+00:00</time></trkpt><trkpt lat="39.47936291" lon="-0.36809052"><ele>-44.6</ele><time>2022-10-30T15:41:40.0000000+00:00</time></trkpt><trkpt lat="39.47936324" lon="-0.36809052"><ele>-44.6</ele><time>2022-10-30T15:41:41.0000000+00:00</time></trkpt><trkpt lat="39.47936324" lon="-0.36809187"><ele>-44.6</ele><time>2022-10-30T15:41:42.0000000+00:00</time></trkpt><trkpt lat="39.47936324" lon="-0.36809262"><ele>-44.6</ele><time>2022-10-30T15:41:43.0000000+00:00</time></trkpt><trkpt lat="39.47936324" lon="-0.3680927"><ele>-44.6</ele><time>2022-10-30T15:41:44.0000000+00:00</time></trkpt><trkpt lat="39.47936324" lon="-0.3680927"><ele>-44.6</ele><time>2022-10-30T15:41:45.0000000+00:00</time></trkpt><trkpt lat="39.47936324" lon="-0.3680927"><ele>-44.8</ele><time>2022-10-30T15:41:46.0000000+00:00</time></trkpt><trkpt lat="39.47936324" lon="-0.3680927"><ele>-44.8</ele><time>2022-10-30T15:41:47.0000000+00:00</time></trkpt><trkpt lat="39.47936324" lon="-0.3680927"><ele>-44.8</ele><time>2022-10-30T15:41:48.0000000+00:00</time></trkpt><trkpt lat="39.47936324" lon="-0.3680927"><ele>-44.8</ele><time>2022-10-30T15:41:49.0000000+00:00</time></trkpt><trkpt lat="39.47936324" lon="-0.3680927"><ele>-44.8</ele><time>2022-10-30T15:41:50.0000000+00:00</time></trkpt><trkpt lat="39.47936324" lon="-0.3680927"><ele>-44.8</ele><time>2022-10-30T15:41:51.0000000+00:00</time></trkpt><trkpt lat="39.47936324" lon="-0.3680927"><ele>-44.8</ele><time>2022-10-30T15:41:52.0000000+00:00</time></trkpt><trkpt lat="39.47936324" lon="-0.3680927"><ele>-44.8</ele><time>2022-10-30T15:41:53.0000000+00:00</time></trkpt><trkpt lat="39.47936324" lon="-0.3680927"><ele>-44.8</ele><time>2022-10-30T15:41:54.0000000+00:00</time></trkpt><trkpt lat="39.47936215" lon="-0.3680927"><ele>-45.0</ele><time>2022-10-30T15:41:55.0000000+00:00</time></trkpt><trkpt lat="39.47936157" lon="-0.3680927"><ele>-45.0</ele><time>2022-10-30T15:41:56.0000000+00:00</time></trkpt><trkpt lat="39.4793614" lon="-0.3680927"><ele>-45.0</ele><time>2022-10-30T15:41:57.0000000+00:00</time></trkpt><trkpt lat="39.47936123" lon="-0.3680917"><ele>-45.0</ele><time>2022-10-30T15:41:58.0000000+00:00</time></trkpt><trkpt lat="39.47936115" lon="-0.36809145"><ele>-45.0</ele><time>2022-10-30T15:41:59.0000000+00:00</time></trkpt><trkpt lat="39.47936056" lon="-0.36809145"><ele>-45.0</ele><time>2022-10-30T15:42:00.0000000+00:00</time></trkpt><trkpt lat="39.47936006" lon="-0.36809145"><ele>-45.0</ele><time>2022-10-30T15:42:01.0000000+00:00</time></trkpt><trkpt lat="39.47935981" lon="-0.36809136"><ele>-45.0</ele><time>2022-10-30T15:42:02.0000000+00:00</time></trkpt><trkpt lat="39.47935889" lon="-0.36809136"><ele>-45.0</ele><time>2022-10-30T15:42:03.0000000+00:00</time></trkpt><trkpt lat="39.47935847" lon="-0.36809136"><ele>-45.0</ele><time>2022-10-30T15:42:04.0000000+00:00</time></trkpt><trkpt lat="39.47935796" lon="-0.36809128"><ele>-45.0</ele><time>2022-10-30T15:42:05.0000000+00:00</time></trkpt><trkpt lat="39.4793578" lon="-0.36809119"><ele>-45.0</ele><time>2022-10-30T15:42:06.0000000+00:00</time></trkpt><trkpt lat="39.47935738" lon="-0.36809069"><ele>-45.0</ele><time>2022-10-30T15:42:07.0000000+00:00</time></trkpt><trkpt lat="39.47935729" lon="-0.36809061"><ele>-45.0</ele><time>2022-10-30T15:42:08.0000000+00:00</time></trkpt><trkpt lat="39.47935713" lon="-0.36809044"><ele>-45.0</ele><time>2022-10-30T15:42:09.0000000+00:00</time></trkpt><trkpt lat="39.47935671" lon="-0.36809019"><ele>-45.0</ele><time>2022-10-30T15:42:10.0000000+00:00</time></trkpt><trkpt lat="39.47935654" lon="-0.36809002"><ele>-45.0</ele><time>2022-10-30T15:42:11.0000000+00:00</time></trkpt><trkpt lat="39.47935578" lon="-0.36808977"><ele>-45.0</ele><time>2022-10-30T15:42:12.0000000+00:00</time></trkpt><trkpt lat="39.47935562" lon="-0.36808927"><ele>-45.2</ele><time>2022-10-30T15:42:13.0000000+00:00</time></trkpt><trkpt lat="39.47935553" lon="-0.36808851"><ele>-45.2</ele><time>2022-10-30T15:42:14.0000000+00:00</time></trkpt><trkpt lat="39.47935553" lon="-0.36808826"><ele>-45.4</ele><time>2022-10-30T15:42:15.0000000+00:00</time></trkpt><trkpt lat="39.47935545" lon="-0.36808818"><ele>-45.4</ele><time>2022-10-30T15:42:16.0000000+00:00</time></trkpt><trkpt lat="39.47935503" lon="-0.36808818"><ele>-45.4</ele><time>2022-10-30T15:42:17.0000000+00:00</time></trkpt><trkpt lat="39.47935461" lon="-0.36808801"><ele>-45.4</ele><time>2022-10-30T15:42:18.0000000+00:00</time></trkpt><trkpt lat="39.47935327" lon="-0.36808793"><ele>-45.4</ele><time>2022-10-30T15:42:19.0000000+00:00</time></trkpt><trkpt lat="39.47935084" lon="-0.36808793"><ele>-45.4</ele><time>2022-10-30T15:42:20.0000000+00:00</time></trkpt><trkpt lat="39.47934866" lon="-0.36808776"><ele>-45.4</ele><time>2022-10-30T15:42:21.0000000+00:00</time></trkpt><trkpt lat="39.4793464" lon="-0.36808767"><ele>-45.4</ele><time>2022-10-30T15:42:22.0000000+00:00</time></trkpt><trkpt lat="39.47934564" lon="-0.36808767"><ele>-45.6</ele><time>2022-10-30T15:42:23.0000000+00:00</time></trkpt><trkpt lat="39.47934497" lon="-0.36808767"><ele>-45.6</ele><time>2022-10-30T15:42:24.0000000+00:00</time></trkpt><trkpt lat="39.47934464" lon="-0.36808767"><ele>-45.6</ele><time>2022-10-30T15:42:25.0000000+00:00</time></trkpt><trkpt lat="39.47934447" lon="-0.36808759"><ele>-45.6</ele><time>2022-10-30T15:42:26.0000000+00:00</time></trkpt><trkpt lat="39.4793443" lon="-0.36808675"><ele>-45.6</ele><time>2022-10-30T15:42:27.0000000+00:00</time></trkpt><trkpt lat="39.47934405" lon="-0.36808642"><ele>-45.6</ele><time>2022-10-30T15:42:28.0000000+00:00</time></trkpt><trkpt lat="39.47934388" lon="-0.36808566"><ele>-45.6</ele><time>2022-10-30T15:42:29.0000000+00:00</time></trkpt><trkpt lat="39.47934363" lon="-0.36808533"><ele>-45.6</ele><time>2022-10-30T15:42:30.0000000+00:00</time></trkpt><trkpt lat="39.47934355" lon="-0.36808466"><ele>-45.6</ele><time>2022-10-30T15:42:31.0000000+00:00</time></trkpt><trkpt lat="39.47934296" lon="-0.36808424"><ele>-45.6</ele><time>2022-10-30T15:42:32.0000000+00:00</time></trkpt><trkpt lat="39.47934195" lon="-0.36808407"><ele>-45.6</ele><time>2022-10-30T15:42:33.0000000+00:00</time></trkpt><trkpt lat="39.47934095" lon="-0.36808365"><ele>-45.6</ele><time>2022-10-30T15:42:34.0000000+00:00</time></trkpt><trkpt lat="39.4793391" lon="-0.36808306"><ele>-45.6</ele><time>2022-10-30T15:42:35.0000000+00:00</time></trkpt><trkpt lat="39.47933843" lon="-0.36808256"><ele>-45.6</ele><time>2022-10-30T15:42:36.0000000+00:00</time></trkpt><trkpt lat="39.4793381" lon="-0.36808206"><ele>-45.8</ele><time>2022-10-30T15:42:37.0000000+00:00</time></trkpt><trkpt lat="39.47933801" lon="-0.36808172"><ele>-45.8</ele><time>2022-10-30T15:42:38.0000000+00:00</time></trkpt><trkpt lat="39.47933793" lon="-0.36808114"><ele>-45.8</ele><time>2022-10-30T15:42:39.0000000+00:00</time></trkpt><trkpt lat="39.47933793" lon="-0.3680808"><ele>-45.8</ele><time>2022-10-30T15:42:40.0000000+00:00</time></trkpt><trkpt lat="39.47933793" lon="-0.36807971"><ele>-45.8</ele><time>2022-10-30T15:42:41.0000000+00:00</time></trkpt><trkpt lat="39.47933793" lon="-0.36807929"><ele>-45.8</ele><time>2022-10-30T15:42:42.0000000+00:00</time></trkpt><trkpt lat="39.47933793" lon="-0.36807871"><ele>-45.8</ele><time>2022-10-30T15:42:43.0000000+00:00</time></trkpt><trkpt lat="39.47933793" lon="-0.3680782"><ele>-45.8</ele><time>2022-10-30T15:42:44.0000000+00:00</time></trkpt><trkpt lat="39.47933793" lon="-0.36807787"><ele>-45.8</ele><time>2022-10-30T15:42:45.0000000+00:00</time></trkpt><trkpt lat="39.47933793" lon="-0.36807435"><ele>-45.8</ele><time>2022-10-30T15:42:46.0000000+00:00</time></trkpt><trkpt lat="39.47932469" lon="-0.3680751"><ele>-45.8</ele><time>2022-10-30T15:42:47.0000000+00:00</time></trkpt><trkpt lat="39.47931916" lon="-0.36808382"><ele>-46.0</ele><time>2022-10-30T15:42:48.0000000+00:00</time></trkpt><trkpt lat="39.47931329" lon="-0.36808231"><ele>-46.0</ele><time>2022-10-30T15:42:49.0000000+00:00</time></trkpt><trkpt lat="39.47931186" lon="-0.36807678"><ele>-46.0</ele><time>2022-10-30T15:42:50.0000000+00:00</time></trkpt><trkpt lat="39.47930591" lon="-0.36807678"><ele>-46.0</ele><time>2022-10-30T15:42:51.0000000+00:00</time></trkpt><trkpt lat="39.47930331" lon="-0.36807284"><ele>-46.0</ele><time>2022-10-30T15:42:52.0000000+00:00</time></trkpt><trkpt lat="39.47930122" lon="-0.36807166"><ele>-46.0</ele><time>2022-10-30T15:42:53.0000000+00:00</time></trkpt><trkpt lat="39.47930197" lon="-0.36806881"><ele>-46.0</ele><time>2022-10-30T15:42:54.0000000+00:00</time></trkpt><trkpt lat="39.47930281" lon="-0.36806915"><ele>-46.0</ele><time>2022-10-30T15:42:55.0000000+00:00</time></trkpt><trkpt lat="39.47929954" lon="-0.36806848"><ele>-46.0</ele><time>2022-10-30T15:42:56.0000000+00:00</time></trkpt><trkpt lat="39.47929711" lon="-0.36806856"><ele>-46.0</ele><time>2022-10-30T15:42:57.0000000+00:00</time></trkpt><trkpt lat="39.47929527" lon="-0.3680684"><ele>-46.0</ele><time>2022-10-30T15:42:58.0000000+00:00</time></trkpt><trkpt lat="39.47929485" lon="-0.36806722"><ele>-46.0</ele><time>2022-10-30T15:42:59.0000000+00:00</time></trkpt><trkpt lat="39.47929443" lon="-0.36806773"><ele>-46.0</ele><time>2022-10-30T15:43:00.0000000+00:00</time></trkpt><trkpt lat="39.47929359" lon="-0.36806974"><ele>-46.0</ele><time>2022-10-30T15:43:01.0000000+00:00</time></trkpt><trkpt lat="39.47929367" lon="-0.368072"><ele>-46.0</ele><time>2022-10-30T15:43:02.0000000+00:00</time></trkpt><trkpt lat="39.47929963" lon="-0.36807284"><ele>-46.0</ele><time>2022-10-30T15:43:03.0000000+00:00</time></trkpt><trkpt lat="39.47930206" lon="-0.36807049"><ele>-46.0</ele><time>2022-10-30T15:43:04.0000000+00:00</time></trkpt><trkpt lat="39.47930147" lon="-0.36806982"><ele>-46.0</ele><time>2022-10-30T15:43:05.0000000+00:00</time></trkpt><trkpt lat="39.47930147" lon="-0.36806982"><ele>-46.0</ele><time>2022-10-30T15:43:06.0000000+00:00</time></trkpt><trkpt lat="39.47930147" lon="-0.36806982"><ele>-46.2</ele><time>2022-10-30T15:43:07.0000000+00:00</time></trkpt><trkpt lat="39.47930147" lon="-0.36806982"><ele>-46.2</ele><time>2022-10-30T15:43:08.0000000+00:00</time></trkpt><trkpt lat="39.47930147" lon="-0.36806982"><ele>-46.2</ele><time>2022-10-30T15:43:09.0000000+00:00</time></trkpt><trkpt lat="39.47930147" lon="-0.36806982"><ele>-46.2</ele><time>2022-10-30T15:43:10.0000000+00:00</time></trkpt><trkpt lat="39.47930147" lon="-0.36806982"><ele>-46.2</ele><time>2022-10-30T15:43:11.0000000+00:00</time></trkpt><trkpt lat="39.47930147" lon="-0.36806982"><ele>-46.2</ele><time>2022-10-30T15:43:12.0000000+00:00</time></trkpt><trkpt lat="39.47930147" lon="-0.36806982"><ele>-46.2</ele><time>2022-10-30T15:43:13.0000000+00:00</time></trkpt><trkpt lat="39.47930147" lon="-0.36806982"><ele>-46.2</ele><time>2022-10-30T15:43:14.0000000+00:00</time></trkpt><trkpt lat="39.47930147" lon="-0.36806982"><ele>-46.2</ele><time>2022-10-30T15:43:15.0000000+00:00</time></trkpt><trkpt lat="39.47930147" lon="-0.36806974"><ele>-46.2</ele><time>2022-10-30T15:43:16.0000000+00:00</time></trkpt><trkpt lat="39.47930147" lon="-0.36806898"><ele>-46.2</ele><time>2022-10-30T15:43:17.0000000+00:00</time></trkpt><trkpt lat="39.47930147" lon="-0.36806856"><ele>-46.2</ele><time>2022-10-30T15:43:18.0000000+00:00</time></trkpt><trkpt lat="39.47930147" lon="-0.3680684"><ele>-46.2</ele><time>2022-10-30T15:43:19.0000000+00:00</time></trkpt><trkpt lat="39.47930147" lon="-0.36806789"><ele>-46.2</ele><time>2022-10-30T15:43:20.0000000+00:00</time></trkpt><trkpt lat="39.47930147" lon="-0.36806773"><ele>-46.2</ele><time>2022-10-30T15:43:21.0000000+00:00</time></trkpt><trkpt lat="39.47930197" lon="-0.36806747"><ele>-46.2</ele><time>2022-10-30T15:43:22.0000000+00:00</time></trkpt><trkpt lat="39.47930331" lon="-0.36806739"><ele>-46.2</ele><time>2022-10-30T15:43:23.0000000+00:00</time></trkpt><trkpt lat="39.47930382" lon="-0.36806722"><ele>-46.2</ele><time>2022-10-30T15:43:24.0000000+00:00</time></trkpt><trkpt lat="39.47930407" lon="-0.36806672"><ele>-46.2</ele><time>2022-10-30T15:43:25.0000000+00:00</time></trkpt><trkpt lat="39.47930424" lon="-0.36806664"><ele>-46.2</ele><time>2022-10-30T15:43:26.0000000+00:00</time></trkpt><trkpt lat="39.47930424" lon="-0.36806655"><ele>-46.2</ele><time>2022-10-30T15:43:27.0000000+00:00</time></trkpt><trkpt lat="39.47930424" lon="-0.36806622"><ele>-46.2</ele><time>2022-10-30T15:43:28.0000000+00:00</time></trkpt><trkpt lat="39.47930424" lon="-0.36806613"><ele>-46.2</ele><time>2022-10-30T15:43:29.0000000+00:00</time></trkpt><trkpt lat="39.47930424" lon="-0.36806613"><ele>-46.2</ele><time>2022-10-30T15:43:30.0000000+00:00</time></trkpt><trkpt lat="39.47930558" lon="-0.36806613"><ele>-46.2</ele><time>2022-10-30T15:43:31.0000000+00:00</time></trkpt><trkpt lat="39.47930591" lon="-0.36806613"><ele>-46.2</ele><time>2022-10-30T15:43:32.0000000+00:00</time></trkpt><trkpt lat="39.479306" lon="-0.36806605"><ele>-46.2</ele><time>2022-10-30T15:43:33.0000000+00:00</time></trkpt><trkpt lat="39.47930608" lon="-0.36806605"><ele>-46.4</ele><time>2022-10-30T15:43:34.0000000+00:00</time></trkpt><trkpt lat="39.47930616" lon="-0.36806605"><ele>-46.4</ele><time>2022-10-30T15:43:35.0000000+00:00</time></trkpt><trkpt lat="39.47930642" lon="-0.36806605"><ele>-46.2</ele><time>2022-10-30T15:43:36.0000000+00:00</time></trkpt><trkpt lat="39.47930667" lon="-0.36806605"><ele>-46.2</ele><time>2022-10-30T15:43:37.0000000+00:00</time></trkpt><trkpt lat="39.47930692" lon="-0.36806605"><ele>-46.2</ele><time>2022-10-30T15:43:38.0000000+00:00</time></trkpt><trkpt lat="39.479307" lon="-0.36806596"><ele>-46.2</ele><time>2022-10-30T15:43:39.0000000+00:00</time></trkpt><trkpt lat="39.479307" lon="-0.3680658"><ele>-46.2</ele><time>2022-10-30T15:43:40.0000000+00:00</time></trkpt><trkpt lat="39.47930709" lon="-0.36806571"><ele>-46.2</ele><time>2022-10-30T15:43:41.0000000+00:00</time></trkpt><trkpt lat="39.47930759" lon="-0.36806571"><ele>-46.2</ele><time>2022-10-30T15:43:42.0000000+00:00</time></trkpt><trkpt lat="39.47930809" lon="-0.36806571"><ele>-46.2</ele><time>2022-10-30T15:43:43.0000000+00:00</time></trkpt><trkpt lat="39.47930851" lon="-0.36806571"><ele>-46.2</ele><time>2022-10-30T15:43:44.0000000+00:00</time></trkpt><trkpt lat="39.47930918" lon="-0.36806571"><ele>-46.2</ele><time>2022-10-30T15:43:45.0000000+00:00</time></trkpt><trkpt lat="39.47930952" lon="-0.36806571"><ele>-46.2</ele><time>2022-10-30T15:43:46.0000000+00:00</time></trkpt><trkpt lat="39.47930952" lon="-0.36806571"><ele>-46.2</ele><time>2022-10-30T15:43:47.0000000+00:00</time></trkpt><trkpt lat="39.47930876" lon="-0.36806571"><ele>-46.4</ele><time>2022-10-30T15:43:48.0000000+00:00</time></trkpt><trkpt lat="39.47930868" lon="-0.36806571"><ele>-46.4</ele><time>2022-10-30T15:43:49.0000000+00:00</time></trkpt><trkpt lat="39.47930859" lon="-0.36806571"><ele>-46.4</ele><time>2022-10-30T15:43:50.0000000+00:00</time></trkpt><trkpt lat="39.47930859" lon="-0.36806571"><ele>-46.4</ele><time>2022-10-30T15:43:51.0000000+00:00</time></trkpt><trkpt lat="39.47930859" lon="-0.36806488"><ele>-46.4</ele><time>2022-10-30T15:43:52.0000000+00:00</time></trkpt><trkpt lat="39.47930859" lon="-0.36806513"><ele>-46.4</ele><time>2022-10-30T15:43:53.0000000+00:00</time></trkpt><trkpt lat="39.47930859" lon="-0.36806555"><ele>-46.2</ele><time>2022-10-30T15:43:54.0000000+00:00</time></trkpt><trkpt lat="39.47930859" lon="-0.36806571"><ele>-46.2</ele><time>2022-10-30T15:43:55.0000000+00:00</time></trkpt><trkpt lat="39.47930859" lon="-0.36806571"><ele>-46.2</ele><time>2022-10-30T15:43:56.0000000+00:00</time></trkpt><trkpt lat="39.47930859" lon="-0.3680658"><ele>-46.2</ele><time>2022-10-30T15:43:57.0000000+00:00</time></trkpt><trkpt lat="39.47930859" lon="-0.36806588"><ele>-46.2</ele><time>2022-10-30T15:43:58.0000000+00:00</time></trkpt><trkpt lat="39.47930859" lon="-0.36806588"><ele>-46.2</ele><time>2022-10-30T15:43:59.0000000+00:00</time></trkpt><trkpt lat="39.47930859" lon="-0.36806588"><ele>-46.2</ele><time>2022-10-30T15:44:00.0000000+00:00</time></trkpt><trkpt lat="39.47930859" lon="-0.36806588"><ele>-46.2</ele><time>2022-10-30T15:44:01.0000000+00:00</time></trkpt><trkpt lat="39.47930792" lon="-0.36806588"><ele>-46.2</ele><time>2022-10-30T15:44:02.0000000+00:00</time></trkpt><trkpt lat="39.47930667" lon="-0.36806588"><ele>-46.2</ele><time>2022-10-30T15:44:03.0000000+00:00</time></trkpt><trkpt lat="39.47930524" lon="-0.36806588"><ele>-46.2</ele><time>2022-10-30T15:44:04.0000000+00:00</time></trkpt><trkpt lat="39.47930482" lon="-0.36806588"><ele>-46.2</ele><time>2022-10-30T15:44:05.0000000+00:00</time></trkpt><trkpt lat="39.47930407" lon="-0.36806588"><ele>-46.2</ele><time>2022-10-30T15:44:06.0000000+00:00</time></trkpt><trkpt lat="39.47930289" lon="-0.36806588"><ele>-46.2</ele><time>2022-10-30T15:44:07.0000000+00:00</time></trkpt><trkpt lat="39.47929887" lon="-0.3680668"><ele>-46.2</ele><time>2022-10-30T15:44:08.0000000+00:00</time></trkpt><trkpt lat="39.47929393" lon="-0.36806739"><ele>-46.2</ele><time>2022-10-30T15:44:09.0000000+00:00</time></trkpt><trkpt lat="39.47928865" lon="-0.36806814"><ele>-46.2</ele><time>2022-10-30T15:44:10.0000000+00:00</time></trkpt><trkpt lat="39.47928253" lon="-0.36806965"><ele>-46.2</ele><time>2022-10-30T15:44:11.0000000+00:00</time></trkpt><trkpt lat="39.47927725" lon="-0.36807317"><ele>-46.2</ele><time>2022-10-30T15:44:12.0000000+00:00</time></trkpt><trkpt lat="39.47927146" lon="-0.36807795"><ele>-46.2</ele><time>2022-10-30T15:44:13.0000000+00:00</time></trkpt><trkpt lat="39.47926518" lon="-0.36808164"><ele>-46.2</ele><time>2022-10-30T15:44:14.0000000+00:00</time></trkpt><trkpt lat="39.47925939" lon="-0.36808399"><ele>-46.2</ele><time>2022-10-30T15:44:15.0000000+00:00</time></trkpt><trkpt lat="39.47925436" lon="-0.36808474"><ele>-46.2</ele><time>2022-10-30T15:44:16.0000000+00:00</time></trkpt><trkpt lat="39.47925084" lon="-0.36808499"><ele>-46.2</ele><time>2022-10-30T15:44:17.0000000+00:00</time></trkpt><trkpt lat="39.4792485" lon="-0.36808516"><ele>-46.2</ele><time>2022-10-30T15:44:18.0000000+00:00</time></trkpt><trkpt lat="39.47924757" lon="-0.36808516"><ele>-46.2</ele><time>2022-10-30T15:44:19.0000000+00:00</time></trkpt><trkpt lat="39.47924716" lon="-0.36808516"><ele>-46.0</ele><time>2022-10-30T15:44:20.0000000+00:00</time></trkpt><trkpt lat="39.47924682" lon="-0.36808516"><ele>-46.0</ele><time>2022-10-30T15:44:21.0000000+00:00</time></trkpt><trkpt lat="39.47924648" lon="-0.36808516"><ele>-46.0</ele><time>2022-10-30T15:44:22.0000000+00:00</time></trkpt><trkpt lat="39.47924615" lon="-0.36808516"><ele>-46.0</ele><time>2022-10-30T15:44:23.0000000+00:00</time></trkpt><trkpt lat="39.47924598" lon="-0.36808516"><ele>-46.2</ele><time>2022-10-30T15:44:24.0000000+00:00</time></trkpt><trkpt lat="39.4792459" lon="-0.36808516"><ele>-46.2</ele><time>2022-10-30T15:44:25.0000000+00:00</time></trkpt><trkpt lat="39.47924573" lon="-0.36808516"><ele>-46.2</ele><time>2022-10-30T15:44:26.0000000+00:00</time></trkpt><trkpt lat="39.47924573" lon="-0.36808516"><ele>-46.2</ele><time>2022-10-30T15:44:27.0000000+00:00</time></trkpt><trkpt lat="39.47924514" lon="-0.36808516"><ele>-46.2</ele><time>2022-10-30T15:44:28.0000000+00:00</time></trkpt><trkpt lat="39.47924489" lon="-0.36808516"><ele>-46.2</ele><time>2022-10-30T15:44:29.0000000+00:00</time></trkpt><trkpt lat="39.47924481" lon="-0.36808457"><ele>-46.2</ele><time>2022-10-30T15:44:30.0000000+00:00</time></trkpt><trkpt lat="39.47924464" lon="-0.36808332"><ele>-46.2</ele><time>2022-10-30T15:44:31.0000000+00:00</time></trkpt><trkpt lat="39.47924456" lon="-0.36808223"><ele>-46.2</ele><time>2022-10-30T15:44:32.0000000+00:00</time></trkpt><trkpt lat="39.47924431" lon="-0.36808156"><ele>-46.2</ele><time>2022-10-30T15:44:33.0000000+00:00</time></trkpt><trkpt lat="39.47924422" lon="-0.36808047"><ele>-46.2</ele><time>2022-10-30T15:44:34.0000000+00:00</time></trkpt><trkpt lat="39.47924271" lon="-0.36807921"><ele>-46.2</ele><time>2022-10-30T15:44:35.0000000+00:00</time></trkpt><trkpt lat="39.47923986" lon="-0.36807837"><ele>-46.2</ele><time>2022-10-30T15:44:36.0000000+00:00</time></trkpt><trkpt lat="39.47923835" lon="-0.3680772"><ele>-46.2</ele><time>2022-10-30T15:44:37.0000000+00:00</time></trkpt><trkpt lat="39.47923676" lon="-0.36807535"><ele>-46.2</ele><time>2022-10-30T15:44:38.0000000+00:00</time></trkpt><trkpt lat="39.47923509" lon="-0.36807435"><ele>-46.2</ele><time>2022-10-30T15:44:39.0000000+00:00</time></trkpt><trkpt lat="39.47923307" lon="-0.36807359"><ele>-46.2</ele><time>2022-10-30T15:44:40.0000000+00:00</time></trkpt><trkpt lat="39.47923089" lon="-0.36807309"><ele>-46.2</ele><time>2022-10-30T15:44:41.0000000+00:00</time></trkpt><trkpt lat="39.47922813" lon="-0.36807259"><ele>-46.2</ele><time>2022-10-30T15:44:42.0000000+00:00</time></trkpt><trkpt lat="39.47922679" lon="-0.36807175"><ele>-46.2</ele><time>2022-10-30T15:44:43.0000000+00:00</time></trkpt><trkpt lat="39.4792262" lon="-0.36807116"><ele>-46.2</ele><time>2022-10-30T15:44:44.0000000+00:00</time></trkpt><trkpt lat="39.47922578" lon="-0.36807032"><ele>-46.2</ele><time>2022-10-30T15:44:45.0000000+00:00</time></trkpt><trkpt lat="39.47922561" lon="-0.36806974"><ele>-46.2</ele><time>2022-10-30T15:44:46.0000000+00:00</time></trkpt><trkpt lat="39.47922511" lon="-0.36806949"><ele>-46.2</ele><time>2022-10-30T15:44:47.0000000+00:00</time></trkpt><trkpt lat="39.47922478" lon="-0.36806848"><ele>-46.2</ele><time>2022-10-30T15:44:48.0000000+00:00</time></trkpt><trkpt lat="39.47922452" lon="-0.36806714"><ele>-46.2</ele><time>2022-10-30T15:44:49.0000000+00:00</time></trkpt><trkpt lat="39.47922444" lon="-0.36806563"><ele>-46.2</ele><time>2022-10-30T15:44:50.0000000+00:00</time></trkpt><trkpt lat="39.47922436" lon="-0.36806446"><ele>-46.2</ele><time>2022-10-30T15:44:51.0000000+00:00</time></trkpt><trkpt lat="39.47922436" lon="-0.3680637"><ele>-46.2</ele><time>2022-10-30T15:44:52.0000000+00:00</time></trkpt><trkpt lat="39.47922427" lon="-0.36806312"><ele>-46.2</ele><time>2022-10-30T15:44:53.0000000+00:00</time></trkpt><trkpt lat="39.47922427" lon="-0.36806253"><ele>-46.2</ele><time>2022-10-30T15:44:54.0000000+00:00</time></trkpt><trkpt lat="39.47922427" lon="-0.36806169"><ele>-46.2</ele><time>2022-10-30T15:44:55.0000000+00:00</time></trkpt><trkpt lat="39.47922427" lon="-0.36806102"><ele>-46.2</ele><time>2022-10-30T15:44:56.0000000+00:00</time></trkpt><trkpt lat="39.47922427" lon="-0.36806068"><ele>-46.2</ele><time>2022-10-30T15:44:57.0000000+00:00</time></trkpt><trkpt lat="39.47922436" lon="-0.36805934"><ele>-46.2</ele><time>2022-10-30T15:44:58.0000000+00:00</time></trkpt><trkpt lat="39.47922444" lon="-0.36805842"><ele>-46.2</ele><time>2022-10-30T15:44:59.0000000+00:00</time></trkpt><trkpt lat="39.47922452" lon="-0.36805549"><ele>-46.2</ele><time>2022-10-30T15:45:00.0000000+00:00</time></trkpt><trkpt lat="39.47922452" lon="-0.36805255"><ele>-46.2</ele><time>2022-10-30T15:45:01.0000000+00:00</time></trkpt><trkpt lat="39.47922461" lon="-0.36804979"><ele>-46.2</ele><time>2022-10-30T15:45:02.0000000+00:00</time></trkpt><trkpt lat="39.47922461" lon="-0.36804685"><ele>-46.2</ele><time>2022-10-30T15:45:03.0000000+00:00</time></trkpt><trkpt lat="39.47922578" lon="-0.36804509"><ele>-46.2</ele><time>2022-10-30T15:45:04.0000000+00:00</time></trkpt><trkpt lat="39.47922838" lon="-0.36804241"><ele>-46.2</ele><time>2022-10-30T15:45:05.0000000+00:00</time></trkpt><trkpt lat="39.47923173" lon="-0.36803864"><ele>-46.2</ele><time>2022-10-30T15:45:06.0000000+00:00</time></trkpt><trkpt lat="39.4792355" lon="-0.36803411"><ele>-46.2</ele><time>2022-10-30T15:45:07.0000000+00:00</time></trkpt><trkpt lat="39.47923919" lon="-0.36803026"><ele>-46.2</ele><time>2022-10-30T15:45:08.0000000+00:00</time></trkpt><trkpt lat="39.47924255" lon="-0.36802766"><ele>-46.2</ele><time>2022-10-30T15:45:09.0000000+00:00</time></trkpt><trkpt lat="39.47924514" lon="-0.36802598"><ele>-46.2</ele><time>2022-10-30T15:45:10.0000000+00:00</time></trkpt><trkpt lat="39.47924682" lon="-0.36802489"><ele>-46.2</ele><time>2022-10-30T15:45:11.0000000+00:00</time></trkpt><trkpt lat="39.47924791" lon="-0.36802372"><ele>-46.2</ele><time>2022-10-30T15:45:12.0000000+00:00</time></trkpt><trkpt lat="39.47924883" lon="-0.36802297"><ele>-46.2</ele><time>2022-10-30T15:45:13.0000000+00:00</time></trkpt><trkpt lat="39.4792495" lon="-0.3680223"><ele>-46.2</ele><time>2022-10-30T15:45:14.0000000+00:00</time></trkpt><trkpt lat="39.47925001" lon="-0.36802179"><ele>-46.2</ele><time>2022-10-30T15:45:15.0000000+00:00</time></trkpt><trkpt lat="39.47925042" lon="-0.36802146"><ele>-46.2</ele><time>2022-10-30T15:45:16.0000000+00:00</time></trkpt><trkpt lat="39.47925109" lon="-0.36802062"><ele>-46.2</ele><time>2022-10-30T15:45:17.0000000+00:00</time></trkpt><trkpt lat="39.47925277" lon="-0.36802003"><ele>-46.2</ele><time>2022-10-30T15:45:18.0000000+00:00</time></trkpt><trkpt lat="39.47925562" lon="-0.36801886"><ele>-46.2</ele><time>2022-10-30T15:45:19.0000000+00:00</time></trkpt><trkpt lat="39.47925906" lon="-0.36801525"><ele>-46.2</ele><time>2022-10-30T15:45:20.0000000+00:00</time></trkpt><trkpt lat="39.47926258" lon="-0.36801182"><ele>-46.2</ele><time>2022-10-30T15:45:21.0000000+00:00</time></trkpt><trkpt lat="39.47926526" lon="-0.36800939"><ele>-46.2</ele><time>2022-10-30T15:45:22.0000000+00:00</time></trkpt><trkpt lat="39.47926719" lon="-0.36800763"><ele>-46.2</ele><time>2022-10-30T15:45:23.0000000+00:00</time></trkpt><trkpt lat="39.47926853" lon="-0.3680062"><ele>-46.2</ele><time>2022-10-30T15:45:24.0000000+00:00</time></trkpt><trkpt lat="39.47926953" lon="-0.3680052"><ele>-46.2</ele><time>2022-10-30T15:45:25.0000000+00:00</time></trkpt><trkpt lat="39.47927121" lon="-0.36800436"><ele>-46.2</ele><time>2022-10-30T15:45:26.0000000+00:00</time></trkpt><trkpt lat="39.47927373" lon="-0.36800226"><ele>-46.2</ele><time>2022-10-30T15:45:27.0000000+00:00</time></trkpt><trkpt lat="39.47927641" lon="-0.36800017"><ele>-46.2</ele><time>2022-10-30T15:45:28.0000000+00:00</time></trkpt><trkpt lat="39.4792801" lon="-0.36799698"><ele>-46.2</ele><time>2022-10-30T15:45:29.0000000+00:00</time></trkpt><trkpt lat="39.47928462" lon="-0.36799447"><ele>-46.2</ele><time>2022-10-30T15:45:30.0000000+00:00</time></trkpt><trkpt lat="39.47928881" lon="-0.36799237"><ele>-46.2</ele><time>2022-10-30T15:45:31.0000000+00:00</time></trkpt><trkpt lat="39.47929217" lon="-0.36799053"><ele>-46.2</ele><time>2022-10-30T15:45:32.0000000+00:00</time></trkpt><trkpt lat="39.47929451" lon="-0.36798902"><ele>-46.2</ele><time>2022-10-30T15:45:33.0000000+00:00</time></trkpt><trkpt lat="39.47929619" lon="-0.367986"><ele>-46.2</ele><time>2022-10-30T15:45:34.0000000+00:00</time></trkpt><trkpt lat="39.47929745" lon="-0.36798374"><ele>-46.2</ele><time>2022-10-30T15:45:35.0000000+00:00</time></trkpt><trkpt lat="39.47929845" lon="-0.36798156"><ele>-46.2</ele><time>2022-10-30T15:45:36.0000000+00:00</time></trkpt><trkpt lat="39.47929929" lon="-0.36797988"><ele>-46.2</ele><time>2022-10-30T15:45:37.0000000+00:00</time></trkpt><trkpt lat="39.47929988" lon="-0.36797829"><ele>-46.2</ele><time>2022-10-30T15:45:38.0000000+00:00</time></trkpt><trkpt lat="39.4793003" lon="-0.36797703"><ele>-46.2</ele><time>2022-10-30T15:45:39.0000000+00:00</time></trkpt><trkpt lat="39.47930063" lon="-0.36797619"><ele>-46.2</ele><time>2022-10-30T15:45:40.0000000+00:00</time></trkpt><trkpt lat="39.47930097" lon="-0.36797544"><ele>-46.2</ele><time>2022-10-30T15:45:41.0000000+00:00</time></trkpt><trkpt lat="39.47930122" lon="-0.36797485"><ele>-46.2</ele><time>2022-10-30T15:45:42.0000000+00:00</time></trkpt><trkpt lat="39.47930139" lon="-0.36797435"><ele>-46.2</ele><time>2022-10-30T15:45:43.0000000+00:00</time></trkpt><trkpt lat="39.47930155" lon="-0.36797393"><ele>-46.2</ele><time>2022-10-30T15:45:44.0000000+00:00</time></trkpt><trkpt lat="39.47930172" lon="-0.36797334"><ele>-46.2</ele><time>2022-10-30T15:45:45.0000000+00:00</time></trkpt><trkpt lat="39.47930189" lon="-0.36797293"><ele>-46.2</ele><time>2022-10-30T15:45:46.0000000+00:00</time></trkpt><trkpt lat="39.47930206" lon="-0.36797234"><ele>-46.2</ele><time>2022-10-30T15:45:47.0000000+00:00</time></trkpt><trkpt lat="39.47930222" lon="-0.36797184"><ele>-46.2</ele><time>2022-10-30T15:45:48.0000000+00:00</time></trkpt><trkpt lat="39.47930231" lon="-0.3679715"><ele>-46.2</ele><time>2022-10-30T15:45:49.0000000+00:00</time></trkpt><trkpt lat="39.47930281" lon="-0.36797125"><ele>-46.2</ele><time>2022-10-30T15:45:50.0000000+00:00</time></trkpt><trkpt lat="39.47930373" lon="-0.367971"><ele>-46.2</ele><time>2022-10-30T15:45:51.0000000+00:00</time></trkpt><trkpt lat="39.47930541" lon="-0.36797083"><ele>-46.2</ele><time>2022-10-30T15:45:52.0000000+00:00</time></trkpt><trkpt lat="39.47930742" lon="-0.36797066"><ele>-46.2</ele><time>2022-10-30T15:45:53.0000000+00:00</time></trkpt><trkpt lat="39.47930952" lon="-0.36797066"><ele>-46.2</ele><time>2022-10-30T15:45:54.0000000+00:00</time></trkpt><trkpt lat="39.47931153" lon="-0.36797066"><ele>-46.2</ele><time>2022-10-30T15:45:55.0000000+00:00</time></trkpt><trkpt lat="39.47931329" lon="-0.36797075"><ele>-46.2</ele><time>2022-10-30T15:45:56.0000000+00:00</time></trkpt><trkpt lat="39.47931505" lon="-0.36797091"><ele>-46.2</ele><time>2022-10-30T15:45:57.0000000+00:00</time></trkpt><trkpt lat="39.47931647" lon="-0.367971"><ele>-46.2</ele><time>2022-10-30T15:45:58.0000000+00:00</time></trkpt><trkpt lat="39.47931773" lon="-0.36797108"><ele>-46.2</ele><time>2022-10-30T15:45:59.0000000+00:00</time></trkpt><trkpt lat="39.47931882" lon="-0.36797117"><ele>-46.2</ele><time>2022-10-30T15:46:00.0000000+00:00</time></trkpt><trkpt lat="39.47931974" lon="-0.36797125"><ele>-46.2</ele><time>2022-10-30T15:46:01.0000000+00:00</time></trkpt><trkpt lat="39.4793205" lon="-0.36797125"><ele>-46.2</ele><time>2022-10-30T15:46:02.0000000+00:00</time></trkpt><trkpt lat="39.47932125" lon="-0.36797133"><ele>-46.2</ele><time>2022-10-30T15:46:03.0000000+00:00</time></trkpt><trkpt lat="39.47932184" lon="-0.36797133"><ele>-46.2</ele><time>2022-10-30T15:46:04.0000000+00:00</time></trkpt><trkpt lat="39.47932234" lon="-0.36797142"><ele>-46.2</ele><time>2022-10-30T15:46:05.0000000+00:00</time></trkpt><trkpt lat="39.47932284" lon="-0.36797158"><ele>-46.2</ele><time>2022-10-30T15:46:06.0000000+00:00</time></trkpt><trkpt lat="39.47932326" lon="-0.36797175"><ele>-46.2</ele><time>2022-10-30T15:46:07.0000000+00:00</time></trkpt><trkpt lat="39.47932368" lon="-0.367972"><ele>-46.2</ele><time>2022-10-30T15:46:08.0000000+00:00</time></trkpt><trkpt lat="39.47932444" lon="-0.36797242"><ele>-46.2</ele><time>2022-10-30T15:46:09.0000000+00:00</time></trkpt><trkpt lat="39.47932544" lon="-0.36797334"><ele>-46.2</ele><time>2022-10-30T15:46:10.0000000+00:00</time></trkpt><trkpt lat="39.47932628" lon="-0.36797452"><ele>-46.2</ele><time>2022-10-30T15:46:11.0000000+00:00</time></trkpt><trkpt lat="39.47932712" lon="-0.36797552"><ele>-46.2</ele><time>2022-10-30T15:46:12.0000000+00:00</time></trkpt><trkpt lat="39.47932787" lon="-0.36797636"><ele>-46.2</ele><time>2022-10-30T15:46:13.0000000+00:00</time></trkpt><trkpt lat="39.47932863" lon="-0.36797712"><ele>-46.2</ele><time>2022-10-30T15:46:14.0000000+00:00</time></trkpt><trkpt lat="39.47932921" lon="-0.36797779"><ele>-46.2</ele><time>2022-10-30T15:46:15.0000000+00:00</time></trkpt><trkpt lat="39.47932972" lon="-0.36797837"><ele>-46.2</ele><time>2022-10-30T15:46:16.0000000+00:00</time></trkpt><trkpt lat="39.47933014" lon="-0.36797888"><ele>-46.2</ele><time>2022-10-30T15:46:17.0000000+00:00</time></trkpt><trkpt lat="39.47933056" lon="-0.3679793"><ele>-46.2</ele><time>2022-10-30T15:46:18.0000000+00:00</time></trkpt><trkpt lat="39.47933089" lon="-0.36797963"><ele>-46.2</ele><time>2022-10-30T15:46:19.0000000+00:00</time></trkpt><trkpt lat="39.47933114" lon="-0.36797988"><ele>-46.2</ele><time>2022-10-30T15:46:20.0000000+00:00</time></trkpt><trkpt lat="39.47933131" lon="-0.36798013"><ele>-46.2</ele><time>2022-10-30T15:46:21.0000000+00:00</time></trkpt><trkpt lat="39.47933148" lon="-0.3679803"><ele>-46.2</ele><time>2022-10-30T15:46:22.0000000+00:00</time></trkpt><trkpt lat="39.47933164" lon="-0.36798047"><ele>-46.2</ele><time>2022-10-30T15:46:23.0000000+00:00</time></trkpt><trkpt lat="39.47933173" lon="-0.36798064"><ele>-46.2</ele><time>2022-10-30T15:46:24.0000000+00:00</time></trkpt><trkpt lat="39.47933181" lon="-0.36798064"><ele>-46.2</ele><time>2022-10-30T15:46:25.0000000+00:00</time></trkpt><trkpt lat="39.47933206" lon="-0.36798064"><ele>-46.2</ele><time>2022-10-30T15:46:26.0000000+00:00</time></trkpt><trkpt lat="39.47933223" lon="-0.36798047"><ele>-46.2</ele><time>2022-10-30T15:46:27.0000000+00:00</time></trkpt><trkpt lat="39.4793324" lon="-0.36798039"><ele>-46.2</ele><time>2022-10-30T15:46:28.0000000+00:00</time></trkpt><trkpt lat="39.47933257" lon="-0.36798022"><ele>-46.2</ele><time>2022-10-30T15:46:29.0000000+00:00</time></trkpt><trkpt lat="39.47933282" lon="-0.3679803"><ele>-46.2</ele><time>2022-10-30T15:46:30.0000000+00:00</time></trkpt><trkpt lat="39.47933324" lon="-0.36798047"><ele>-46.2</ele><time>2022-10-30T15:46:31.0000000+00:00</time></trkpt><trkpt lat="39.4793334" lon="-0.36798055"><ele>-46.2</ele><time>2022-10-30T15:46:32.0000000+00:00</time></trkpt><trkpt lat="39.47933366" lon="-0.36798064"><ele>-46.2</ele><time>2022-10-30T15:46:33.0000000+00:00</time></trkpt><trkpt lat="39.47933382" lon="-0.36798072"><ele>-46.2</ele><time>2022-10-30T15:46:34.0000000+00:00</time></trkpt><trkpt lat="39.47933382" lon="-0.36798089"><ele>-46.2</ele><time>2022-10-30T15:46:35.0000000+00:00</time></trkpt><trkpt lat="39.47933382" lon="-0.36798097"><ele>-46.2</ele><time>2022-10-30T15:46:36.0000000+00:00</time></trkpt><trkpt lat="39.47933391" lon="-0.36798097"><ele>-46.2</ele><time>2022-10-30T15:46:37.0000000+00:00</time></trkpt><trkpt lat="39.47933399" lon="-0.36798097"><ele>-46.2</ele><time>2022-10-30T15:46:38.0000000+00:00</time></trkpt><trkpt lat="39.47933408" lon="-0.36798097"><ele>-46.2</ele><time>2022-10-30T15:46:39.0000000+00:00</time></trkpt><trkpt lat="39.47933433" lon="-0.36798106"><ele>-46.2</ele><time>2022-10-30T15:46:40.0000000+00:00</time></trkpt><trkpt lat="39.47933441" lon="-0.36798114"><ele>-46.2</ele><time>2022-10-30T15:46:41.0000000+00:00</time></trkpt><trkpt lat="39.47933458" lon="-0.36798122"><ele>-46.2</ele><time>2022-10-30T15:46:42.0000000+00:00</time></trkpt><trkpt lat="39.47933483" lon="-0.36798122"><ele>-46.2</ele><time>2022-10-30T15:46:43.0000000+00:00</time></trkpt><trkpt lat="39.47933491" lon="-0.36798131"><ele>-46.2</ele><time>2022-10-30T15:46:44.0000000+00:00</time></trkpt><trkpt lat="39.47933517" lon="-0.36798131"><ele>-46.2</ele><time>2022-10-30T15:46:45.0000000+00:00</time></trkpt><trkpt lat="39.47933533" lon="-0.36798122"><ele>-46.2</ele><time>2022-10-30T15:46:46.0000000+00:00</time></trkpt><trkpt lat="39.47933542" lon="-0.36798122"><ele>-46.2</ele><time>2022-10-30T15:46:47.0000000+00:00</time></trkpt><trkpt lat="39.47933542" lon="-0.36798122"><ele>-46.2</ele><time>2022-10-30T15:46:48.0000000+00:00</time></trkpt><trkpt lat="39.4793355" lon="-0.36798131"><ele>-46.2</ele><time>2022-10-30T15:46:49.0000000+00:00</time></trkpt><trkpt lat="39.47933558" lon="-0.36798139"><ele>-46.2</ele><time>2022-10-30T15:46:50.0000000+00:00</time></trkpt><trkpt lat="39.479336" lon="-0.36798156"><ele>-46.2</ele><time>2022-10-30T15:46:51.0000000+00:00</time></trkpt><trkpt lat="39.47933625" lon="-0.36798189"><ele>-46.2</ele><time>2022-10-30T15:46:52.0000000+00:00</time></trkpt><trkpt lat="39.47933651" lon="-0.36798189"><ele>-46.2</ele><time>2022-10-30T15:46:53.0000000+00:00</time></trkpt><trkpt lat="39.47933659" lon="-0.36798198"><ele>-46.2</ele><time>2022-10-30T15:46:54.0000000+00:00</time></trkpt><trkpt lat="39.47933676" lon="-0.36798198"><ele>-46.2</ele><time>2022-10-30T15:46:55.0000000+00:00</time></trkpt><trkpt lat="39.47933684" lon="-0.36798206"><ele>-46.2</ele><time>2022-10-30T15:46:56.0000000+00:00</time></trkpt><trkpt lat="39.47933684" lon="-0.36798206"><ele>-46.2</ele><time>2022-10-30T15:46:57.0000000+00:00</time></trkpt><trkpt lat="39.47933684" lon="-0.36798206"><ele>-46.2</ele><time>2022-10-30T15:46:58.0000000+00:00</time></trkpt><trkpt lat="39.47933693" lon="-0.36798215"><ele>-46.2</ele><time>2022-10-30T15:46:59.0000000+00:00</time></trkpt><trkpt lat="39.47933693" lon="-0.36798223"><ele>-46.2</ele><time>2022-10-30T15:47:00.0000000+00:00</time></trkpt><trkpt lat="39.47933701" lon="-0.36798231"><ele>-46.2</ele><time>2022-10-30T15:47:01.0000000+00:00</time></trkpt><trkpt lat="39.47933718" lon="-0.3679824"><ele>-46.2</ele><time>2022-10-30T15:47:02.0000000+00:00</time></trkpt><trkpt lat="39.47933709" lon="-0.3679824"><ele>-46.2</ele><time>2022-10-30T15:47:03.0000000+00:00</time></trkpt><trkpt lat="39.47933726" lon="-0.36798248"><ele>-46.2</ele><time>2022-10-30T15:47:04.0000000+00:00</time></trkpt><trkpt lat="39.47933743" lon="-0.3679824"><ele>-46.2</ele><time>2022-10-30T15:47:05.0000000+00:00</time></trkpt><trkpt lat="39.4793376" lon="-0.36798231"><ele>-46.2</ele><time>2022-10-30T15:47:06.0000000+00:00</time></trkpt><trkpt lat="39.47933776" lon="-0.36798231"><ele>-46.2</ele><time>2022-10-30T15:47:07.0000000+00:00</time></trkpt><trkpt lat="39.47934078" lon="-0.36798173"><ele>-46.2</ele><time>2022-10-30T15:47:08.0000000+00:00</time></trkpt><trkpt lat="39.47934279" lon="-0.36797494"><ele>-46.2</ele><time>2022-10-30T15:47:09.0000000+00:00</time></trkpt><trkpt lat="39.47934715" lon="-0.36796924"><ele>-46.2</ele><time>2022-10-30T15:47:10.0000000+00:00</time></trkpt><trkpt lat="39.47935327" lon="-0.36796228"><ele>-46.2</ele><time>2022-10-30T15:47:11.0000000+00:00</time></trkpt><trkpt lat="39.47935771" lon="-0.36794929"><ele>-46.2</ele><time>2022-10-30T15:47:12.0000000+00:00</time></trkpt><trkpt lat="39.47936551" lon="-0.3679373"><ele>-46.2</ele><time>2022-10-30T15:47:13.0000000+00:00</time></trkpt><trkpt lat="39.47937347" lon="-0.36792565"><ele>-46.2</ele><time>2022-10-30T15:47:14.0000000+00:00</time></trkpt><trkpt lat="39.47937925" lon="-0.36791073"><ele>-46.2</ele><time>2022-10-30T15:47:15.0000000+00:00</time></trkpt><trkpt lat="39.47938596" lon="-0.36789975"><ele>-46.2</ele><time>2022-10-30T15:47:16.0000000+00:00</time></trkpt><trkpt lat="39.47939359" lon="-0.36788701"><ele>-46.2</ele><time>2022-10-30T15:47:17.0000000+00:00</time></trkpt><trkpt lat="39.47939753" lon="-0.36787243"><ele>-46.2</ele><time>2022-10-30T15:47:18.0000000+00:00</time></trkpt><trkpt lat="39.4793956" lon="-0.3678586"><ele>-46.2</ele><time>2022-10-30T15:47:19.0000000+00:00</time></trkpt><trkpt lat="39.4793966" lon="-0.3678472"><ele>-46.2</ele><time>2022-10-30T15:47:20.0000000+00:00</time></trkpt><trkpt lat="39.4793982" lon="-0.36783789"><ele>-46.2</ele><time>2022-10-30T15:47:21.0000000+00:00</time></trkpt><trkpt lat="39.47940046" lon="-0.36782675"><ele>-46.2</ele><time>2022-10-30T15:47:22.0000000+00:00</time></trkpt><trkpt lat="39.4794044" lon="-0.36781409"><ele>-46.2</ele><time>2022-10-30T15:47:23.0000000+00:00</time></trkpt><trkpt lat="39.47940767" lon="-0.36780705"><ele>-46.2</ele><time>2022-10-30T15:47:24.0000000+00:00</time></trkpt><trkpt lat="39.47940976" lon="-0.36780051"><ele>-46.2</ele><time>2022-10-30T15:47:25.0000000+00:00</time></trkpt><trkpt lat="39.47941337" lon="-0.36779104"><ele>-46.2</ele><time>2022-10-30T15:47:26.0000000+00:00</time></trkpt><trkpt lat="39.47941831" lon="-0.36778685"><ele>-43.0</ele><time>2022-10-30T15:47:27.0000000+00:00</time></trkpt><trkpt lat="39.47942435" lon="-0.36777888"><ele>-43.0</ele><time>2022-10-30T15:47:28.0000000+00:00</time></trkpt><trkpt lat="39.47942728" lon="-0.36776958"><ele>-43.0</ele><time>2022-10-30T15:47:29.0000000+00:00</time></trkpt><trkpt lat="39.47943206" lon="-0.36775659"><ele>-43.0</ele><time>2022-10-30T15:47:30.0000000+00:00</time></trkpt><trkpt lat="39.47943885" lon="-0.36774536"><ele>-43.0</ele><time>2022-10-30T15:47:31.0000000+00:00</time></trkpt><trkpt lat="39.47945008" lon="-0.36774293"><ele>-43.0</ele><time>2022-10-30T15:47:32.0000000+00:00</time></trkpt><trkpt lat="39.47946039" lon="-0.36774133"><ele>-43.0</ele><time>2022-10-30T15:47:33.0000000+00:00</time></trkpt><trkpt lat="39.4794728" lon="-0.36774209"><ele>-43.0</ele><time>2022-10-30T15:47:34.0000000+00:00</time></trkpt><trkpt lat="39.47948151" lon="-0.36774284"><ele>-43.0</ele><time>2022-10-30T15:47:35.0000000+00:00</time></trkpt><trkpt lat="39.47949057" lon="-0.3677441"><ele>-43.0</ele><time>2022-10-30T15:47:36.0000000+00:00</time></trkpt><trkpt lat="39.47950582" lon="-0.36775181"><ele>-43.0</ele><time>2022-10-30T15:47:37.0000000+00:00</time></trkpt><trkpt lat="39.4795106" lon="-0.36773589"><ele>-43.0</ele><time>2022-10-30T15:47:38.0000000+00:00</time></trkpt><trkpt lat="39.47951336" lon="-0.36772734"><ele>-43.0</ele><time>2022-10-30T15:47:39.0000000+00:00</time></trkpt><trkpt lat="39.47951672" lon="-0.36772323"><ele>-43.0</ele><time>2022-10-30T15:47:40.0000000+00:00</time></trkpt><trkpt lat="39.47952703" lon="-0.36772566"><ele>-43.0</ele><time>2022-10-30T15:47:41.0000000+00:00</time></trkpt><trkpt lat="39.47953499" lon="-0.36773941"><ele>-43.0</ele><time>2022-10-30T15:47:42.0000000+00:00</time></trkpt><trkpt lat="39.47953985" lon="-0.36774309"><ele>-43.0</ele><time>2022-10-30T15:47:43.0000000+00:00</time></trkpt><trkpt lat="39.47954387" lon="-0.36774519"><ele>-43.2</ele><time>2022-10-30T15:47:44.0000000+00:00</time></trkpt><trkpt lat="39.47955175" lon="-0.367741"><ele>-43.2</ele><time>2022-10-30T15:47:45.0000000+00:00</time></trkpt><trkpt lat="39.47956047" lon="-0.36773899"><ele>-43.0</ele><time>2022-10-30T15:47:46.0000000+00:00</time></trkpt><trkpt lat="39.47956357" lon="-0.36772591"><ele>-43.0</ele><time>2022-10-30T15:47:47.0000000+00:00</time></trkpt><trkpt lat="39.47956508" lon="-0.36770345"><ele>-43.0</ele><time>2022-10-30T15:47:48.0000000+00:00</time></trkpt><trkpt lat="39.47957338" lon="-0.36768677"><ele>-43.0</ele><time>2022-10-30T15:47:49.0000000+00:00</time></trkpt><trkpt lat="39.47958428" lon="-0.36768417"><ele>-43.0</ele><time>2022-10-30T15:47:50.0000000+00:00</time></trkpt><trkpt lat="39.47959383" lon="-0.36767453"><ele>-43.0</ele><time>2022-10-30T15:47:51.0000000+00:00</time></trkpt><trkpt lat="39.4796028" lon="-0.36766556"><ele>-43.0</ele><time>2022-10-30T15:47:52.0000000+00:00</time></trkpt><trkpt lat="39.47960615" lon="-0.36766254"><ele>-43.0</ele><time>2022-10-30T15:47:53.0000000+00:00</time></trkpt><trkpt lat="39.47960992" lon="-0.36765743"><ele>-43.0</ele><time>2022-10-30T15:47:54.0000000+00:00</time></trkpt><trkpt lat="39.47961479" lon="-0.36765198"><ele>-43.0</ele><time>2022-10-30T15:47:55.0000000+00:00</time></trkpt><trkpt lat="39.47962568" lon="-0.36765265"><ele>-43.0</ele><time>2022-10-30T15:47:56.0000000+00:00</time></trkpt><trkpt lat="39.47962996" lon="-0.36765106"><ele>-42.8</ele><time>2022-10-30T15:47:57.0000000+00:00</time></trkpt><trkpt lat="39.47963197" lon="-0.36765508"><ele>-42.8</ele><time>2022-10-30T15:47:58.0000000+00:00</time></trkpt><trkpt lat="39.47963499" lon="-0.36766129"><ele>-42.8</ele><time>2022-10-30T15:47:59.0000000+00:00</time></trkpt><trkpt lat="39.47963683" lon="-0.36767026"><ele>-42.8</ele><time>2022-10-30T15:48:00.0000000+00:00</time></trkpt><trkpt lat="39.47964085" lon="-0.36768702"><ele>-42.8</ele><time>2022-10-30T15:48:01.0000000+00:00</time></trkpt><trkpt lat="39.47964622" lon="-0.3676959"><ele>-42.8</ele><time>2022-10-30T15:48:02.0000000+00:00</time></trkpt><trkpt lat="39.47964848" lon="-0.36770202"><ele>-42.8</ele><time>2022-10-30T15:48:03.0000000+00:00</time></trkpt><trkpt lat="39.47964957" lon="-0.36771216"><ele>-42.8</ele><time>2022-10-30T15:48:04.0000000+00:00</time></trkpt><trkpt lat="39.47964764" lon="-0.36772549"><ele>-42.8</ele><time>2022-10-30T15:48:05.0000000+00:00</time></trkpt><trkpt lat="39.47964513" lon="-0.36773857"><ele>-42.8</ele><time>2022-10-30T15:48:06.0000000+00:00</time></trkpt><trkpt lat="39.47964253" lon="-0.36774804"><ele>-42.8</ele><time>2022-10-30T15:48:07.0000000+00:00</time></trkpt><trkpt lat="39.47964463" lon="-0.36776489"><ele>-42.8</ele><time>2022-10-30T15:48:08.0000000+00:00</time></trkpt><trkpt lat="39.47964664" lon="-0.36778492"><ele>-42.8</ele><time>2022-10-30T15:48:09.0000000+00:00</time></trkpt><trkpt lat="39.47965452" lon="-0.36780403"><ele>-42.8</ele><time>2022-10-30T15:48:10.0000000+00:00</time></trkpt><trkpt lat="39.47965854" lon="-0.36782155"><ele>-42.8</ele><time>2022-10-30T15:48:11.0000000+00:00</time></trkpt><trkpt lat="39.47965351" lon="-0.36783571"><ele>-42.8</ele><time>2022-10-30T15:48:12.0000000+00:00</time></trkpt><trkpt lat="39.47965183" lon="-0.36784351"><ele>-42.8</ele><time>2022-10-30T15:48:13.0000000+00:00</time></trkpt><trkpt lat="39.47965795" lon="-0.36786094"><ele>-42.8</ele><time>2022-10-30T15:48:14.0000000+00:00</time></trkpt><trkpt lat="39.47966801" lon="-0.36787561"><ele>-42.6</ele><time>2022-10-30T15:48:15.0000000+00:00</time></trkpt><trkpt lat="39.47966843" lon="-0.36788433"><ele>-42.6</ele><time>2022-10-30T15:48:16.0000000+00:00</time></trkpt><trkpt lat="39.47967304" lon="-0.36790109"><ele>-42.6</ele><time>2022-10-30T15:48:17.0000000+00:00</time></trkpt><trkpt lat="39.47967874" lon="-0.3679197"><ele>-42.6</ele><time>2022-10-30T15:48:18.0000000+00:00</time></trkpt><trkpt lat="39.47968855" lon="-0.36793579"><ele>-42.6</ele><time>2022-10-30T15:48:19.0000000+00:00</time></trkpt><trkpt lat="39.47969944" lon="-0.36795532"><ele>-42.6</ele><time>2022-10-30T15:48:20.0000000+00:00</time></trkpt><trkpt lat="39.47971009" lon="-0.36797024"><ele>-42.8</ele><time>2022-10-30T15:48:21.0000000+00:00</time></trkpt><trkpt lat="39.47971445" lon="-0.36798416"><ele>-42.8</ele><time>2022-10-30T15:48:22.0000000+00:00</time></trkpt><trkpt lat="39.47971143" lon="-0.3679938"><ele>-42.8</ele><time>2022-10-30T15:48:23.0000000+00:00</time></trkpt><trkpt lat="39.47971084" lon="-0.36800511"><ele>-42.8</ele><time>2022-10-30T15:48:24.0000000+00:00</time></trkpt><trkpt lat="39.47971051" lon="-0.36801769"><ele>-42.8</ele><time>2022-10-30T15:48:25.0000000+00:00</time></trkpt><trkpt lat="39.47971243" lon="-0.3680295"><ele>-42.8</ele><time>2022-10-30T15:48:26.0000000+00:00</time></trkpt><trkpt lat="39.47971168" lon="-0.36804233"><ele>-42.8</ele><time>2022-10-30T15:48:27.0000000+00:00</time></trkpt><trkpt lat="39.47970615" lon="-0.36805423"><ele>-42.6</ele><time>2022-10-30T15:48:28.0000000+00:00</time></trkpt><trkpt lat="39.47970212" lon="-0.36806596"><ele>-42.6</ele><time>2022-10-30T15:48:29.0000000+00:00</time></trkpt><trkpt lat="39.47970095" lon="-0.3680798"><ele>-42.6</ele><time>2022-10-30T15:48:30.0000000+00:00</time></trkpt><trkpt lat="39.47970238" lon="-0.36808935"><ele>-42.6</ele><time>2022-10-30T15:48:31.0000000+00:00</time></trkpt><trkpt lat="39.47970816" lon="-0.3681005"><ele>-42.6</ele><time>2022-10-30T15:48:32.0000000+00:00</time></trkpt><trkpt lat="39.47971243" lon="-0.36811726"><ele>-42.6</ele><time>2022-10-30T15:48:33.0000000+00:00</time></trkpt><trkpt lat="39.47971788" lon="-0.36813813"><ele>-42.6</ele><time>2022-10-30T15:48:34.0000000+00:00</time></trkpt><trkpt lat="39.47972316" lon="-0.36815833"><ele>-42.6</ele><time>2022-10-30T15:48:35.0000000+00:00</time></trkpt><trkpt lat="39.47973029" lon="-0.36817887"><ele>-42.6</ele><time>2022-10-30T15:48:36.0000000+00:00</time></trkpt><trkpt lat="39.47973163" lon="-0.36819505"><ele>-42.6</ele><time>2022-10-30T15:48:37.0000000+00:00</time></trkpt><trkpt lat="39.4797323" lon="-0.36820804"><ele>-42.6</ele><time>2022-10-30T15:48:38.0000000+00:00</time></trkpt><trkpt lat="39.47973305" lon="-0.36822086"><ele>-42.6</ele><time>2022-10-30T15:48:39.0000000+00:00</time></trkpt><trkpt lat="39.4797349" lon="-0.36823344"><ele>-42.6</ele><time>2022-10-30T15:48:40.0000000+00:00</time></trkpt><trkpt lat="39.47973783" lon="-0.36824567"><ele>-42.6</ele><time>2022-10-30T15:48:41.0000000+00:00</time></trkpt><trkpt lat="39.47974286" lon="-0.36825548"><ele>-42.6</ele><time>2022-10-30T15:48:42.0000000+00:00</time></trkpt><trkpt lat="39.4797463" lon="-0.36826277"><ele>-42.6</ele><time>2022-10-30T15:48:43.0000000+00:00</time></trkpt><trkpt lat="39.47975242" lon="-0.36826939"><ele>-42.6</ele><time>2022-10-30T15:48:44.0000000+00:00</time></trkpt><trkpt lat="39.47976206" lon="-0.36828255"><ele>-42.6</ele><time>2022-10-30T15:48:45.0000000+00:00</time></trkpt><trkpt lat="39.47977002" lon="-0.36829119"><ele>-42.6</ele><time>2022-10-30T15:48:46.0000000+00:00</time></trkpt><trkpt lat="39.47977815" lon="-0.36829705"><ele>-42.6</ele><time>2022-10-30T15:48:47.0000000+00:00</time></trkpt><trkpt lat="39.47978678" lon="-0.36830577"><ele>-42.6</ele><time>2022-10-30T15:48:48.0000000+00:00</time></trkpt><trkpt lat="39.47979483" lon="-0.36831206"><ele>-42.6</ele><time>2022-10-30T15:48:49.0000000+00:00</time></trkpt><trkpt lat="39.47980514" lon="-0.36831466"><ele>-42.6</ele><time>2022-10-30T15:48:50.0000000+00:00</time></trkpt><trkpt lat="39.47981427" lon="-0.36831608"><ele>-42.6</ele><time>2022-10-30T15:48:51.0000000+00:00</time></trkpt><trkpt lat="39.47981939" lon="-0.36831751"><ele>-42.4</ele><time>2022-10-30T15:48:52.0000000+00:00</time></trkpt><trkpt lat="39.47982316" lon="-0.36831784"><ele>-42.4</ele><time>2022-10-30T15:48:53.0000000+00:00</time></trkpt><trkpt lat="39.47982576" lon="-0.36831767"><ele>-42.4</ele><time>2022-10-30T15:48:54.0000000+00:00</time></trkpt><trkpt lat="39.4798276" lon="-0.3683201"><ele>-42.4</ele><time>2022-10-30T15:48:55.0000000+00:00</time></trkpt><trkpt lat="39.4798307" lon="-0.36832413"><ele>-42.4</ele><time>2022-10-30T15:48:56.0000000+00:00</time></trkpt><trkpt lat="39.47983481" lon="-0.36832455"><ele>-42.4</ele><time>2022-10-30T15:48:57.0000000+00:00</time></trkpt><trkpt lat="39.47984185" lon="-0.36833117"><ele>-42.2</ele><time>2022-10-30T15:48:58.0000000+00:00</time></trkpt><trkpt lat="39.47984906" lon="-0.36833821"><ele>-42.2</ele><time>2022-10-30T15:48:59.0000000+00:00</time></trkpt><trkpt lat="39.47985618" lon="-0.36834357"><ele>-42.2</ele><time>2022-10-30T15:49:00.0000000+00:00</time></trkpt><trkpt lat="39.4798649" lon="-0.36834374"><ele>-42.2</ele><time>2022-10-30T15:49:01.0000000+00:00</time></trkpt><trkpt lat="39.47987437" lon="-0.36834416"><ele>-42.2</ele><time>2022-10-30T15:49:02.0000000+00:00</time></trkpt><trkpt lat="39.47988217" lon="-0.36834366"><ele>-42.2</ele><time>2022-10-30T15:49:03.0000000+00:00</time></trkpt><trkpt lat="39.47989055" lon="-0.36834139"><ele>-42.4</ele><time>2022-10-30T15:49:04.0000000+00:00</time></trkpt><trkpt lat="39.47989868" lon="-0.3683393"><ele>-42.4</ele><time>2022-10-30T15:49:05.0000000+00:00</time></trkpt><trkpt lat="39.47990522" lon="-0.36833955"><ele>-42.4</ele><time>2022-10-30T15:49:06.0000000+00:00</time></trkpt><trkpt lat="39.479911" lon="-0.36833989"><ele>-42.4</ele><time>2022-10-30T15:49:07.0000000+00:00</time></trkpt><trkpt lat="39.47991821" lon="-0.36833989"><ele>-42.4</ele><time>2022-10-30T15:49:08.0000000+00:00</time></trkpt><trkpt lat="39.47992869" lon="-0.36834064"><ele>-42.4</ele><time>2022-10-30T15:49:09.0000000+00:00</time></trkpt><trkpt lat="39.47993841" lon="-0.36833888"><ele>-42.4</ele><time>2022-10-30T15:49:10.0000000+00:00</time></trkpt><trkpt lat="39.47994839" lon="-0.36833402"><ele>-42.4</ele><time>2022-10-30T15:49:11.0000000+00:00</time></trkpt><trkpt lat="39.47995677" lon="-0.36832471"><ele>-42.4</ele><time>2022-10-30T15:49:12.0000000+00:00</time></trkpt><trkpt lat="39.47996641" lon="-0.36832103"><ele>-42.4</ele><time>2022-10-30T15:49:13.0000000+00:00</time></trkpt><trkpt lat="39.47997705" lon="-0.36831206"><ele>-42.4</ele><time>2022-10-30T15:49:14.0000000+00:00</time></trkpt><trkpt lat="39.47998937" lon="-0.36830585"><ele>-42.4</ele><time>2022-10-30T15:49:15.0000000+00:00</time></trkpt><trkpt lat="39.48000345" lon="-0.36830133"><ele>-42.4</ele><time>2022-10-30T15:49:16.0000000+00:00</time></trkpt><trkpt lat="39.4800172" lon="-0.36829337"><ele>-42.4</ele><time>2022-10-30T15:49:17.0000000+00:00</time></trkpt><trkpt lat="39.4800307" lon="-0.368288"><ele>-42.4</ele><time>2022-10-30T15:49:18.0000000+00:00</time></trkpt><trkpt lat="39.48004209" lon="-0.36828423"><ele>-42.4</ele><time>2022-10-30T15:49:19.0000000+00:00</time></trkpt><trkpt lat="39.48005542" lon="-0.36827426"><ele>-42.4</ele><time>2022-10-30T15:49:20.0000000+00:00</time></trkpt><trkpt lat="39.48007202" lon="-0.36826512"><ele>-42.4</ele><time>2022-10-30T15:49:21.0000000+00:00</time></trkpt><trkpt lat="39.48008409" lon="-0.36825548"><ele>-42.4</ele><time>2022-10-30T15:49:22.0000000+00:00</time></trkpt><trkpt lat="39.48009063" lon="-0.36824601"><ele>-42.4</ele><time>2022-10-30T15:49:23.0000000+00:00</time></trkpt><trkpt lat="39.48009708" lon="-0.3682336"><ele>-42.4</ele><time>2022-10-30T15:49:24.0000000+00:00</time></trkpt><trkpt lat="39.4801042" lon="-0.36822195"><ele>-42.4</ele><time>2022-10-30T15:49:25.0000000+00:00</time></trkpt><trkpt lat="39.48011074" lon="-0.36821357"><ele>-42.4</ele><time>2022-10-30T15:49:26.0000000+00:00</time></trkpt><trkpt lat="39.48011058" lon="-0.36819521"><ele>-42.4</ele><time>2022-10-30T15:49:27.0000000+00:00</time></trkpt><trkpt lat="39.48011871" lon="-0.36818834"><ele>-42.4</ele><time>2022-10-30T15:49:28.0000000+00:00</time></trkpt><trkpt lat="39.48012658" lon="-0.36818767"><ele>-42.4</ele><time>2022-10-30T15:49:29.0000000+00:00</time></trkpt><trkpt lat="39.48014142" lon="-0.36818549"><ele>-42.4</ele><time>2022-10-30T15:49:30.0000000+00:00</time></trkpt><trkpt lat="39.48016087" lon="-0.3681792"><ele>-42.4</ele><time>2022-10-30T15:49:31.0000000+00:00</time></trkpt><trkpt lat="39.48017235" lon="-0.36817057"><ele>-42.4</ele><time>2022-10-30T15:49:32.0000000+00:00</time></trkpt><trkpt lat="39.48017906" lon="-0.36815993"><ele>-42.4</ele><time>2022-10-30T15:49:33.0000000+00:00</time></trkpt><trkpt lat="39.48018618" lon="-0.36815322"><ele>-42.4</ele><time>2022-10-30T15:49:34.0000000+00:00</time></trkpt><trkpt lat="39.4801892" lon="-0.3681445"><ele>-42.4</ele><time>2022-10-30T15:49:35.0000000+00:00</time></trkpt><trkpt lat="39.48019783" lon="-0.36813436"><ele>-42.4</ele><time>2022-10-30T15:49:36.0000000+00:00</time></trkpt><trkpt lat="39.48020211" lon="-0.36812841"><ele>-42.4</ele><time>2022-10-30T15:49:37.0000000+00:00</time></trkpt><trkpt lat="39.48020638" lon="-0.36812372"><ele>-42.4</ele><time>2022-10-30T15:49:38.0000000+00:00</time></trkpt><trkpt lat="39.4802104" lon="-0.3681243"><ele>-42.4</ele><time>2022-10-30T15:49:39.0000000+00:00</time></trkpt><trkpt lat="39.48022029" lon="-0.3681202"><ele>-42.4</ele><time>2022-10-30T15:49:40.0000000+00:00</time></trkpt><trkpt lat="39.48023169" lon="-0.36811802"><ele>-42.4</ele><time>2022-10-30T15:49:41.0000000+00:00</time></trkpt><trkpt lat="39.48024033" lon="-0.36811181"><ele>-42.2</ele><time>2022-10-30T15:49:42.0000000+00:00</time></trkpt><trkpt lat="39.48024737" lon="-0.36811173"><ele>-42.2</ele><time>2022-10-30T15:49:43.0000000+00:00</time></trkpt><trkpt lat="39.4802524" lon="-0.36810863"><ele>-42.2</ele><time>2022-10-30T15:49:44.0000000+00:00</time></trkpt><trkpt lat="39.48026002" lon="-0.36810368"><ele>-42.2</ele><time>2022-10-30T15:49:45.0000000+00:00</time></trkpt><trkpt lat="39.48026556" lon="-0.36809237"><ele>-42.2</ele><time>2022-10-30T15:49:46.0000000+00:00</time></trkpt><trkpt lat="39.48027276" lon="-0.36807887"><ele>-42.2</ele><time>2022-10-30T15:49:47.0000000+00:00</time></trkpt><trkpt lat="39.48028165" lon="-0.36806949"><ele>-42.2</ele><time>2022-10-30T15:49:48.0000000+00:00</time></trkpt><trkpt lat="39.48029238" lon="-0.36806286"><ele>-42.2</ele><time>2022-10-30T15:49:49.0000000+00:00</time></trkpt><trkpt lat="39.48030051" lon="-0.36805264"><ele>-42.2</ele><time>2022-10-30T15:49:50.0000000+00:00</time></trkpt><trkpt lat="39.48030504" lon="-0.36804082"><ele>-42.2</ele><time>2022-10-30T15:49:51.0000000+00:00</time></trkpt><trkpt lat="39.48031442" lon="-0.36803529"><ele>-42.2</ele><time>2022-10-30T15:49:52.0000000+00:00</time></trkpt><trkpt lat="39.48032373" lon="-0.36803001"><ele>-42.2</ele><time>2022-10-30T15:49:53.0000000+00:00</time></trkpt><trkpt lat="39.48033395" lon="-0.36802171"><ele>-42.2</ele><time>2022-10-30T15:49:54.0000000+00:00</time></trkpt><trkpt lat="39.48034426" lon="-0.36801249"><ele>-42.2</ele><time>2022-10-30T15:49:55.0000000+00:00</time></trkpt><trkpt lat="39.48035298" lon="-0.36800151"><ele>-42.2</ele><time>2022-10-30T15:49:56.0000000+00:00</time></trkpt><trkpt lat="39.48036128" lon="-0.3679938"><ele>-42.2</ele><time>2022-10-30T15:49:57.0000000+00:00</time></trkpt><trkpt lat="39.48037134" lon="-0.36799028"><ele>-42.2</ele><time>2022-10-30T15:49:58.0000000+00:00</time></trkpt><trkpt lat="39.48038475" lon="-0.36798734"><ele>-42.2</ele><time>2022-10-30T15:49:59.0000000+00:00</time></trkpt><trkpt lat="39.48039782" lon="-0.36798483"><ele>-42.2</ele><time>2022-10-30T15:50:00.0000000+00:00</time></trkpt><trkpt lat="39.48041182" lon="-0.36798114"><ele>-42.2</ele><time>2022-10-30T15:50:01.0000000+00:00</time></trkpt><trkpt lat="39.48042347" lon="-0.36797963"><ele>-42.2</ele><time>2022-10-30T15:50:02.0000000+00:00</time></trkpt><trkpt lat="39.48043437" lon="-0.36797477"><ele>-42.2</ele><time>2022-10-30T15:50:03.0000000+00:00</time></trkpt><trkpt lat="39.48044132" lon="-0.36796865"><ele>-42.2</ele><time>2022-10-30T15:50:04.0000000+00:00</time></trkpt><trkpt lat="39.48044887" lon="-0.36796354"><ele>-42.2</ele><time>2022-10-30T15:50:05.0000000+00:00</time></trkpt><trkpt lat="39.48045683" lon="-0.3679544"><ele>-42.2</ele><time>2022-10-30T15:50:06.0000000+00:00</time></trkpt><trkpt lat="39.48046471" lon="-0.36794158"><ele>-42.2</ele><time>2022-10-30T15:50:07.0000000+00:00</time></trkpt><trkpt lat="39.48047318" lon="-0.3679306"><ele>-42.2</ele><time>2022-10-30T15:50:08.0000000+00:00</time></trkpt><trkpt lat="39.48048131" lon="-0.36792507"><ele>-42.2</ele><time>2022-10-30T15:50:09.0000000+00:00</time></trkpt><trkpt lat="39.4804881" lon="-0.36792096"><ele>-42.2</ele><time>2022-10-30T15:50:10.0000000+00:00</time></trkpt><trkpt lat="39.48049489" lon="-0.36791476"><ele>-42.2</ele><time>2022-10-30T15:50:11.0000000+00:00</time></trkpt><trkpt lat="39.48050603" lon="-0.36790922"><ele>-42.2</ele><time>2022-10-30T15:50:12.0000000+00:00</time></trkpt><trkpt lat="39.48052062" lon="-0.3679114"><ele>-42.4</ele><time>2022-10-30T15:50:13.0000000+00:00</time></trkpt><trkpt lat="39.4805326" lon="-0.36790654"><ele>-42.4</ele><time>2022-10-30T15:50:14.0000000+00:00</time></trkpt><trkpt lat="39.48054065" lon="-0.3678995"><ele>-42.4</ele><time>2022-10-30T15:50:15.0000000+00:00</time></trkpt><trkpt lat="39.48055171" lon="-0.36789782"><ele>-42.4</ele><time>2022-10-30T15:50:16.0000000+00:00</time></trkpt><trkpt lat="39.48056873" lon="-0.36789816"><ele>-42.4</ele><time>2022-10-30T15:50:17.0000000+00:00</time></trkpt><trkpt lat="39.48058457" lon="-0.36790378"><ele>-42.2</ele><time>2022-10-30T15:50:18.0000000+00:00</time></trkpt><trkpt lat="39.48060393" lon="-0.3679135"><ele>-42.2</ele><time>2022-10-30T15:50:19.0000000+00:00</time></trkpt><trkpt lat="39.4806212" lon="-0.36791199"><ele>-42.2</ele><time>2022-10-30T15:50:20.0000000+00:00</time></trkpt><trkpt lat="39.48062346" lon="-0.36789967"><ele>-42.2</ele><time>2022-10-30T15:50:21.0000000+00:00</time></trkpt><trkpt lat="39.48062749" lon="-0.36789078"><ele>-42.2</ele><time>2022-10-30T15:50:22.0000000+00:00</time></trkpt><trkpt lat="39.48064274" lon="-0.36789288"><ele>-42.2</ele><time>2022-10-30T15:50:23.0000000+00:00</time></trkpt><trkpt lat="39.48065012" lon="-0.36789036"><ele>-42.2</ele><time>2022-10-30T15:50:24.0000000+00:00</time></trkpt><trkpt lat="39.48066202" lon="-0.36788886"><ele>-42.2</ele><time>2022-10-30T15:50:25.0000000+00:00</time></trkpt><trkpt lat="39.48067376" lon="-0.36788668"><ele>-42.2</ele><time>2022-10-30T15:50:26.0000000+00:00</time></trkpt><trkpt lat="39.48068088" lon="-0.36788936"><ele>-42.2</ele><time>2022-10-30T15:50:27.0000000+00:00</time></trkpt><trkpt lat="39.48068608" lon="-0.367885"><ele>-42.2</ele><time>2022-10-30T15:50:28.0000000+00:00</time></trkpt><trkpt lat="39.48069714" lon="-0.36788592"><ele>-42.2</ele><time>2022-10-30T15:50:29.0000000+00:00</time></trkpt><trkpt lat="39.48070359" lon="-0.36788844"><ele>-42.2</ele><time>2022-10-30T15:50:30.0000000+00:00</time></trkpt><trkpt lat="39.4807098" lon="-0.36789028"><ele>-42.2</ele><time>2022-10-30T15:50:31.0000000+00:00</time></trkpt><trkpt lat="39.4807165" lon="-0.36789129"><ele>-42.2</ele><time>2022-10-30T15:50:32.0000000+00:00</time></trkpt><trkpt lat="39.48072086" lon="-0.36788768"><ele>-42.2</ele><time>2022-10-30T15:50:33.0000000+00:00</time></trkpt><trkpt lat="39.48072874" lon="-0.36788249"><ele>-42.2</ele><time>2022-10-30T15:50:34.0000000+00:00</time></trkpt><trkpt lat="39.48073796" lon="-0.36787695"><ele>-42.2</ele><time>2022-10-30T15:50:35.0000000+00:00</time></trkpt><trkpt lat="39.48074793" lon="-0.36787125"><ele>-42.2</ele><time>2022-10-30T15:50:36.0000000+00:00</time></trkpt><trkpt lat="39.48075774" lon="-0.36786505"><ele>-42.2</ele><time>2022-10-30T15:50:37.0000000+00:00</time></trkpt><trkpt lat="39.48076721" lon="-0.36785818"><ele>-42.2</ele><time>2022-10-30T15:50:38.0000000+00:00</time></trkpt><trkpt lat="39.48077736" lon="-0.36785399"><ele>-42.2</ele><time>2022-10-30T15:50:39.0000000+00:00</time></trkpt><trkpt lat="39.48078683" lon="-0.36784946"><ele>-42.2</ele><time>2022-10-30T15:50:40.0000000+00:00</time></trkpt><trkpt lat="39.48079387" lon="-0.36784711"><ele>-42.2</ele><time>2022-10-30T15:50:41.0000000+00:00</time></trkpt><trkpt lat="39.48080225" lon="-0.3678446"><ele>-42.2</ele><time>2022-10-30T15:50:42.0000000+00:00</time></trkpt><trkpt lat="39.48080921" lon="-0.367842"><ele>-42.2</ele><time>2022-10-30T15:50:43.0000000+00:00</time></trkpt><trkpt lat="39.48081776" lon="-0.36784083"><ele>-42.2</ele><time>2022-10-30T15:50:44.0000000+00:00</time></trkpt><trkpt lat="39.48082404" lon="-0.36783915"><ele>-42.2</ele><time>2022-10-30T15:50:45.0000000+00:00</time></trkpt><trkpt lat="39.48082916" lon="-0.36783747"><ele>-42.2</ele><time>2022-10-30T15:50:46.0000000+00:00</time></trkpt><trkpt lat="39.48083653" lon="-0.36783395"><ele>-42.2</ele><time>2022-10-30T15:50:47.0000000+00:00</time></trkpt><trkpt lat="39.48084089" lon="-0.36782934"><ele>-42.2</ele><time>2022-10-30T15:50:48.0000000+00:00</time></trkpt><trkpt lat="39.48084466" lon="-0.36782557"><ele>-42.2</ele><time>2022-10-30T15:50:49.0000000+00:00</time></trkpt><trkpt lat="39.48085103" lon="-0.36782239"><ele>-42.2</ele><time>2022-10-30T15:50:50.0000000+00:00</time></trkpt><trkpt lat="39.48085665" lon="-0.36782331"><ele>-42.2</ele><time>2022-10-30T15:50:51.0000000+00:00</time></trkpt><trkpt lat="39.48086553" lon="-0.3678254"><ele>-42.2</ele><time>2022-10-30T15:50:52.0000000+00:00</time></trkpt><trkpt lat="39.4808766" lon="-0.36782834"><ele>-42.2</ele><time>2022-10-30T15:50:53.0000000+00:00</time></trkpt><trkpt lat="39.48088615" lon="-0.36782993"><ele>-42.2</ele><time>2022-10-30T15:50:54.0000000+00:00</time></trkpt><trkpt lat="39.48089655" lon="-0.36782876"><ele>-42.2</ele><time>2022-10-30T15:50:55.0000000+00:00</time></trkpt><trkpt lat="39.48090325" lon="-0.36782633"><ele>-42.2</ele><time>2022-10-30T15:50:56.0000000+00:00</time></trkpt><trkpt lat="39.48091306" lon="-0.36782239"><ele>-42.2</ele><time>2022-10-30T15:50:57.0000000+00:00</time></trkpt><trkpt lat="39.4809227" lon="-0.36782012"><ele>-42.2</ele><time>2022-10-30T15:50:58.0000000+00:00</time></trkpt><trkpt lat="39.48093485" lon="-0.36781644"><ele>-42.2</ele><time>2022-10-30T15:50:59.0000000+00:00</time></trkpt><trkpt lat="39.48094474" lon="-0.36781141"><ele>-42.2</ele><time>2022-10-30T15:51:00.0000000+00:00</time></trkpt><trkpt lat="39.48094885" lon="-0.36780277"><ele>-42.2</ele><time>2022-10-30T15:51:01.0000000+00:00</time></trkpt><trkpt lat="39.48095455" lon="-0.36779246"><ele>-42.2</ele><time>2022-10-30T15:51:02.0000000+00:00</time></trkpt><trkpt lat="39.48096494" lon="-0.36778618"><ele>-42.2</ele><time>2022-10-30T15:51:03.0000000+00:00</time></trkpt><trkpt lat="39.48097559" lon="-0.36777964"><ele>-42.2</ele><time>2022-10-30T15:51:04.0000000+00:00</time></trkpt><trkpt lat="39.48098565" lon="-0.36777243"><ele>-42.2</ele><time>2022-10-30T15:51:05.0000000+00:00</time></trkpt><trkpt lat="39.48099378" lon="-0.36776187"><ele>-42.2</ele><time>2022-10-30T15:51:06.0000000+00:00</time></trkpt><trkpt lat="39.4810087" lon="-0.36775868"><ele>-42.2</ele><time>2022-10-30T15:51:07.0000000+00:00</time></trkpt><trkpt lat="39.48101758" lon="-0.3677612"><ele>-42.2</ele><time>2022-10-30T15:51:08.0000000+00:00</time></trkpt><trkpt lat="39.4810299" lon="-0.36776396"><ele>-42.2</ele><time>2022-10-30T15:51:09.0000000+00:00</time></trkpt><trkpt lat="39.48104449" lon="-0.36776891"><ele>-42.4</ele><time>2022-10-30T15:51:10.0000000+00:00</time></trkpt><trkpt lat="39.48105429" lon="-0.3677674"><ele>-42.4</ele><time>2022-10-30T15:51:11.0000000+00:00</time></trkpt><trkpt lat="39.48106058" lon="-0.36776053"><ele>-42.4</ele><time>2022-10-30T15:51:12.0000000+00:00</time></trkpt><trkpt lat="39.48106879" lon="-0.36775516"><ele>-42.4</ele><time>2022-10-30T15:51:13.0000000+00:00</time></trkpt><trkpt lat="39.48107718" lon="-0.36774829"><ele>-42.4</ele><time>2022-10-30T15:51:14.0000000+00:00</time></trkpt><trkpt lat="39.4810812" lon="-0.36774041"><ele>-42.4</ele><time>2022-10-30T15:51:15.0000000+00:00</time></trkpt><trkpt lat="39.48108581" lon="-0.36772851"><ele>-42.4</ele><time>2022-10-30T15:51:16.0000000+00:00</time></trkpt><trkpt lat="39.48109109" lon="-0.36771753"><ele>-42.4</ele><time>2022-10-30T15:51:17.0000000+00:00</time></trkpt><trkpt lat="39.48109746" lon="-0.36771242"><ele>-42.2</ele><time>2022-10-30T15:51:18.0000000+00:00</time></trkpt><trkpt lat="39.48110207" lon="-0.36771183"><ele>-42.4</ele><time>2022-10-30T15:51:19.0000000+00:00</time></trkpt><trkpt lat="39.48110769" lon="-0.36771887"><ele>-42.4</ele><time>2022-10-30T15:51:20.0000000+00:00</time></trkpt><trkpt lat="39.48111531" lon="-0.36773027"><ele>-42.4</ele><time>2022-10-30T15:51:21.0000000+00:00</time></trkpt><trkpt lat="39.48112462" lon="-0.36774385"><ele>-42.4</ele><time>2022-10-30T15:51:22.0000000+00:00</time></trkpt><trkpt lat="39.48113903" lon="-0.36775508"><ele>-42.4</ele><time>2022-10-30T15:51:23.0000000+00:00</time></trkpt><trkpt lat="39.48115085" lon="-0.36776204"><ele>-42.4</ele><time>2022-10-30T15:51:24.0000000+00:00</time></trkpt><trkpt lat="39.48116401" lon="-0.36776229"><ele>-42.4</ele><time>2022-10-30T15:51:25.0000000+00:00</time></trkpt><trkpt lat="39.48117759" lon="-0.3677591"><ele>-42.4</ele><time>2022-10-30T15:51:26.0000000+00:00</time></trkpt><trkpt lat="39.48119259" lon="-0.36776162"><ele>-42.4</ele><time>2022-10-30T15:51:27.0000000+00:00</time></trkpt><trkpt lat="39.48120232" lon="-0.367756"><ele>-42.4</ele><time>2022-10-30T15:51:28.0000000+00:00</time></trkpt><trkpt lat="39.4812133" lon="-0.36774972"><ele>-42.4</ele><time>2022-10-30T15:51:29.0000000+00:00</time></trkpt><trkpt lat="39.48122637" lon="-0.36774963"><ele>-42.4</ele><time>2022-10-30T15:51:30.0000000+00:00</time></trkpt><trkpt lat="39.48123752" lon="-0.36774217"><ele>-42.4</ele><time>2022-10-30T15:51:31.0000000+00:00</time></trkpt><trkpt lat="39.48125278" lon="-0.36773345"><ele>-42.4</ele><time>2022-10-30T15:51:32.0000000+00:00</time></trkpt><trkpt lat="39.48126644" lon="-0.36771962"><ele>-42.4</ele><time>2022-10-30T15:51:33.0000000+00:00</time></trkpt><trkpt lat="39.4812739" lon="-0.36770739"><ele>-42.4</ele><time>2022-10-30T15:51:34.0000000+00:00</time></trkpt><trkpt lat="39.4812848" lon="-0.36769976"><ele>-42.4</ele><time>2022-10-30T15:51:35.0000000+00:00</time></trkpt><trkpt lat="39.48129737" lon="-0.36770655"><ele>-42.4</ele><time>2022-10-30T15:51:36.0000000+00:00</time></trkpt><trkpt lat="39.48130684" lon="-0.36771376"><ele>-42.4</ele><time>2022-10-30T15:51:37.0000000+00:00</time></trkpt><trkpt lat="39.48131346" lon="-0.36771669"><ele>-42.4</ele><time>2022-10-30T15:51:38.0000000+00:00</time></trkpt><trkpt lat="39.48132067" lon="-0.36771518"><ele>-42.2</ele><time>2022-10-30T15:51:39.0000000+00:00</time></trkpt><trkpt lat="39.48132796" lon="-0.36770848"><ele>-42.2</ele><time>2022-10-30T15:51:40.0000000+00:00</time></trkpt><trkpt lat="39.48133241" lon="-0.36770286"><ele>-42.2</ele><time>2022-10-30T15:51:41.0000000+00:00</time></trkpt><trkpt lat="39.48133475" lon="-0.36769297"><ele>-42.2</ele><time>2022-10-30T15:51:42.0000000+00:00</time></trkpt><trkpt lat="39.48134121" lon="-0.36769565"><ele>-42.2</ele><time>2022-10-30T15:51:43.0000000+00:00</time></trkpt><trkpt lat="39.48134791" lon="-0.36770487"><ele>-42.2</ele><time>2022-10-30T15:51:44.0000000+00:00</time></trkpt><trkpt lat="39.4813495" lon="-0.36771845"><ele>-42.2</ele><time>2022-10-30T15:51:45.0000000+00:00</time></trkpt><trkpt lat="39.48135378" lon="-0.36773488"><ele>-42.2</ele><time>2022-10-30T15:51:46.0000000+00:00</time></trkpt><trkpt lat="39.48135629" lon="-0.36777763"><ele>-42.2</ele><time>2022-10-30T15:51:47.0000000+00:00</time></trkpt><trkpt lat="39.48135981" lon="-0.36778987"><ele>-42.2</ele><time>2022-10-30T15:51:48.0000000+00:00</time></trkpt><trkpt lat="39.48136342" lon="-0.3677995"><ele>-42.2</ele><time>2022-10-30T15:51:49.0000000+00:00</time></trkpt><trkpt lat="39.48136652" lon="-0.36780805"><ele>-42.2</ele><time>2022-10-30T15:51:50.0000000+00:00</time></trkpt><trkpt lat="39.48137507" lon="-0.36781929"><ele>-42.2</ele><time>2022-10-30T15:51:51.0000000+00:00</time></trkpt><trkpt lat="39.48138253" lon="-0.36783136"><ele>-42.2</ele><time>2022-10-30T15:51:52.0000000+00:00</time></trkpt><trkpt lat="39.48138848" lon="-0.36783353"><ele>-42.2</ele><time>2022-10-30T15:51:53.0000000+00:00</time></trkpt><trkpt lat="39.48139443" lon="-0.36783194"><ele>-42.2</ele><time>2022-10-30T15:51:54.0000000+00:00</time></trkpt><trkpt lat="39.48139753" lon="-0.36783496"><ele>-42.2</ele><time>2022-10-30T15:51:55.0000000+00:00</time></trkpt><trkpt lat="39.4814013" lon="-0.36783706"><ele>-42.2</ele><time>2022-10-30T15:51:56.0000000+00:00</time></trkpt><trkpt lat="39.48140441" lon="-0.36784242"><ele>-42.2</ele><time>2022-10-30T15:51:57.0000000+00:00</time></trkpt><trkpt lat="39.48141094" lon="-0.36785047"><ele>-42.2</ele><time>2022-10-30T15:51:58.0000000+00:00</time></trkpt><trkpt lat="39.48142209" lon="-0.36785457"><ele>-42.2</ele><time>2022-10-30T15:51:59.0000000+00:00</time></trkpt><trkpt lat="39.48143232" lon="-0.36785826"><ele>-42.2</ele><time>2022-10-30T15:52:00.0000000+00:00</time></trkpt><trkpt lat="39.48144682" lon="-0.36786002"><ele>-42.2</ele><time>2022-10-30T15:52:01.0000000+00:00</time></trkpt><trkpt lat="39.48145612" lon="-0.3678622"><ele>-42.2</ele><time>2022-10-30T15:52:02.0000000+00:00</time></trkpt><trkpt lat="39.48146417" lon="-0.36786849"><ele>-42.2</ele><time>2022-10-30T15:52:03.0000000+00:00</time></trkpt><trkpt lat="39.48146341" lon="-0.36786195"><ele>-42.2</ele><time>2022-10-30T15:52:04.0000000+00:00</time></trkpt><trkpt lat="39.48146392" lon="-0.36786036"><ele>-42.2</ele><time>2022-10-30T15:52:05.0000000+00:00</time></trkpt><trkpt lat="39.48146819" lon="-0.36786606"><ele>-42.2</ele><time>2022-10-30T15:52:06.0000000+00:00</time></trkpt><trkpt lat="39.48148102" lon="-0.3678819"><ele>-42.2</ele><time>2022-10-30T15:52:07.0000000+00:00</time></trkpt><trkpt lat="39.48149258" lon="-0.36788818"><ele>-42.2</ele><time>2022-10-30T15:52:08.0000000+00:00</time></trkpt><trkpt lat="39.48150449" lon="-0.36789095"><ele>-42.0</ele><time>2022-10-30T15:52:09.0000000+00:00</time></trkpt><trkpt lat="39.48151689" lon="-0.36789271"><ele>-42.0</ele><time>2022-10-30T15:52:10.0000000+00:00</time></trkpt><trkpt lat="39.48152921" lon="-0.36789221"><ele>-42.0</ele><time>2022-10-30T15:52:11.0000000+00:00</time></trkpt><trkpt lat="39.48153977" lon="-0.36788869"><ele>-42.0</ele><time>2022-10-30T15:52:12.0000000+00:00</time></trkpt><trkpt lat="39.48154782" lon="-0.36789129"><ele>-42.0</ele><time>2022-10-30T15:52:13.0000000+00:00</time></trkpt><trkpt lat="39.48155251" lon="-0.36789221"><ele>-42.0</ele><time>2022-10-30T15:52:14.0000000+00:00</time></trkpt><trkpt lat="39.48156316" lon="-0.3678907"><ele>-42.0</ele><time>2022-10-30T15:52:15.0000000+00:00</time></trkpt><trkpt lat="39.48157188" lon="-0.36788927"><ele>-42.2</ele><time>2022-10-30T15:52:16.0000000+00:00</time></trkpt><trkpt lat="39.4815785" lon="-0.36789263"><ele>-42.2</ele><time>2022-10-30T15:52:17.0000000+00:00</time></trkpt><trkpt lat="39.48158395" lon="-0.36789791"><ele>-42.2</ele><time>2022-10-30T15:52:18.0000000+00:00</time></trkpt><trkpt lat="39.48159702" lon="-0.36790621"><ele>-42.2</ele><time>2022-10-30T15:52:19.0000000+00:00</time></trkpt><trkpt lat="39.48161379" lon="-0.36790931"><ele>-42.2</ele><time>2022-10-30T15:52:20.0000000+00:00</time></trkpt><trkpt lat="39.48162971" lon="-0.3679145"><ele>-42.2</ele><time>2022-10-30T15:52:21.0000000+00:00</time></trkpt><trkpt lat="39.48164044" lon="-0.36792205"><ele>-42.2</ele><time>2022-10-30T15:52:22.0000000+00:00</time></trkpt><trkpt lat="39.48164488" lon="-0.36792825"><ele>-42.2</ele><time>2022-10-30T15:52:23.0000000+00:00</time></trkpt><trkpt lat="39.48164689" lon="-0.36792775"><ele>-42.2</ele><time>2022-10-30T15:52:24.0000000+00:00</time></trkpt><trkpt lat="39.48165125" lon="-0.36792121"><ele>-42.2</ele><time>2022-10-30T15:52:25.0000000+00:00</time></trkpt><trkpt lat="39.48164966" lon="-0.36791811"><ele>-42.2</ele><time>2022-10-30T15:52:26.0000000+00:00</time></trkpt><trkpt lat="39.48164966" lon="-0.36791643"><ele>-42.2</ele><time>2022-10-30T15:52:27.0000000+00:00</time></trkpt><trkpt lat="39.48165226" lon="-0.36791568"><ele>-42.0</ele><time>2022-10-30T15:52:28.0000000+00:00</time></trkpt><trkpt lat="39.48166684" lon="-0.36791719"><ele>-42.0</ele><time>2022-10-30T15:52:29.0000000+00:00</time></trkpt><trkpt lat="39.48168143" lon="-0.36791224"><ele>-42.0</ele><time>2022-10-30T15:52:30.0000000+00:00</time></trkpt><trkpt lat="39.4817002" lon="-0.3679026"><ele>-42.0</ele><time>2022-10-30T15:52:31.0000000+00:00</time></trkpt><trkpt lat="39.48170272" lon="-0.36790051"><ele>-42.0</ele><time>2022-10-30T15:52:32.0000000+00:00</time></trkpt><trkpt lat="39.48171286" lon="-0.36789229"><ele>-42.0</ele><time>2022-10-30T15:52:33.0000000+00:00</time></trkpt><trkpt lat="39.48171906" lon="-0.36788098"><ele>-42.0</ele><time>2022-10-30T15:52:34.0000000+00:00</time></trkpt><trkpt lat="39.48173055" lon="-0.36787067"><ele>-42.0</ele><time>2022-10-30T15:52:35.0000000+00:00</time></trkpt><trkpt lat="39.4817422" lon="-0.36786589"><ele>-42.0</ele><time>2022-10-30T15:52:36.0000000+00:00</time></trkpt><trkpt lat="39.48174798" lon="-0.36785918"><ele>-42.0</ele><time>2022-10-30T15:52:37.0000000+00:00</time></trkpt><trkpt lat="39.48175695" lon="-0.36785248"><ele>-42.0</ele><time>2022-10-30T15:52:38.0000000+00:00</time></trkpt><trkpt lat="39.48176349" lon="-0.36784267"><ele>-42.0</ele><time>2022-10-30T15:52:39.0000000+00:00</time></trkpt><trkpt lat="39.48176935" lon="-0.36782364"><ele>-42.0</ele><time>2022-10-30T15:52:40.0000000+00:00</time></trkpt><trkpt lat="39.48177891" lon="-0.36781007"><ele>-42.0</ele><time>2022-10-30T15:52:41.0000000+00:00</time></trkpt><trkpt lat="39.4817914" lon="-0.36780437"><ele>-42.0</ele><time>2022-10-30T15:52:42.0000000+00:00</time></trkpt><trkpt lat="39.48180791" lon="-0.36780462"><ele>-42.0</ele><time>2022-10-30T15:52:43.0000000+00:00</time></trkpt><trkpt lat="39.48182903" lon="-0.36778668"><ele>-42.0</ele><time>2022-10-30T15:52:44.0000000+00:00</time></trkpt><trkpt lat="39.48185552" lon="-0.36777813"><ele>-42.0</ele><time>2022-10-30T15:52:45.0000000+00:00</time></trkpt><trkpt lat="39.48187714" lon="-0.36776782"><ele>-42.0</ele><time>2022-10-30T15:52:46.0000000+00:00</time></trkpt><trkpt lat="39.48189064" lon="-0.3677493"><ele>-42.0</ele><time>2022-10-30T15:52:47.0000000+00:00</time></trkpt><trkpt lat="39.48190263" lon="-0.36772549"><ele>-42.0</ele><time>2022-10-30T15:52:48.0000000+00:00</time></trkpt><trkpt lat="39.48191738" lon="-0.36770395"><ele>-42.0</ele><time>2022-10-30T15:52:49.0000000+00:00</time></trkpt><trkpt lat="39.48192517" lon="-0.36767579"><ele>-42.0</ele><time>2022-10-30T15:52:50.0000000+00:00</time></trkpt><trkpt lat="39.48192802" lon="-0.36764452"><ele>-42.0</ele><time>2022-10-30T15:52:51.0000000+00:00</time></trkpt><trkpt lat="39.48193456" lon="-0.367626"><ele>-42.0</ele><time>2022-10-30T15:52:52.0000000+00:00</time></trkpt><trkpt lat="39.48194697" lon="-0.36761795"><ele>-42.0</ele><time>2022-10-30T15:52:53.0000000+00:00</time></trkpt><trkpt lat="39.48196658" lon="-0.36761954"><ele>-42.0</ele><time>2022-10-30T15:52:54.0000000+00:00</time></trkpt><trkpt lat="39.48199206" lon="-0.36762642"><ele>-42.0</ele><time>2022-10-30T15:52:55.0000000+00:00</time></trkpt><trkpt lat="39.48200807" lon="-0.36762667"><ele>-42.0</ele><time>2022-10-30T15:52:56.0000000+00:00</time></trkpt><trkpt lat="39.48202249" lon="-0.36761795"><ele>-42.0</ele><time>2022-10-30T15:52:57.0000000+00:00</time></trkpt><trkpt lat="39.48203079" lon="-0.36761552"><ele>-42.0</ele><time>2022-10-30T15:52:58.0000000+00:00</time></trkpt><trkpt lat="39.48203389" lon="-0.36760974"><ele>-42.0</ele><time>2022-10-30T15:52:59.0000000+00:00</time></trkpt><trkpt lat="39.48203598" lon="-0.36760278"><ele>-42.0</ele><time>2022-10-30T15:53:00.0000000+00:00</time></trkpt><trkpt lat="39.48205032" lon="-0.36759239"><ele>-42.2</ele><time>2022-10-30T15:53:01.0000000+00:00</time></trkpt><trkpt lat="39.48205777" lon="-0.36757009"><ele>-42.2</ele><time>2022-10-30T15:53:02.0000000+00:00</time></trkpt><trkpt lat="39.48206171" lon="-0.36755459"><ele>-42.2</ele><time>2022-10-30T15:53:03.0000000+00:00</time></trkpt><trkpt lat="39.4820566" lon="-0.36754662"><ele>-42.2</ele><time>2022-10-30T15:53:04.0000000+00:00</time></trkpt><trkpt lat="39.48205903" lon="-0.36753933"><ele>-42.2</ele><time>2022-10-30T15:53:05.0000000+00:00</time></trkpt><trkpt lat="39.48206197" lon="-0.3675343"><ele>-42.2</ele><time>2022-10-30T15:53:06.0000000+00:00</time></trkpt><trkpt lat="39.48206691" lon="-0.36752567"><ele>-42.2</ele><time>2022-10-30T15:53:07.0000000+00:00</time></trkpt><trkpt lat="39.48207772" lon="-0.36751754"><ele>-42.2</ele><time>2022-10-30T15:53:08.0000000+00:00</time></trkpt><trkpt lat="39.48209021" lon="-0.3675079"><ele>-42.2</ele><time>2022-10-30T15:53:09.0000000+00:00</time></trkpt><trkpt lat="39.48210237" lon="-0.36749658"><ele>-42.2</ele><time>2022-10-30T15:53:10.0000000+00:00</time></trkpt><trkpt lat="39.48211435" lon="-0.36748124"><ele>-42.2</ele><time>2022-10-30T15:53:11.0000000+00:00</time></trkpt><trkpt lat="39.4821224" lon="-0.36747387"><ele>-42.2</ele><time>2022-10-30T15:53:12.0000000+00:00</time></trkpt><trkpt lat="39.48213439" lon="-0.3674675"><ele>-42.2</ele><time>2022-10-30T15:53:13.0000000+00:00</time></trkpt><trkpt lat="39.48214713" lon="-0.36745643"><ele>-42.2</ele><time>2022-10-30T15:53:14.0000000+00:00</time></trkpt><trkpt lat="39.48215677" lon="-0.36744386"><ele>-42.2</ele><time>2022-10-30T15:53:15.0000000+00:00</time></trkpt><trkpt lat="39.4821659" lon="-0.36743137"><ele>-42.2</ele><time>2022-10-30T15:53:16.0000000+00:00</time></trkpt><trkpt lat="39.48217562" lon="-0.36742131"><ele>-42.2</ele><time>2022-10-30T15:53:17.0000000+00:00</time></trkpt><trkpt lat="39.48218199" lon="-0.36740916"><ele>-42.2</ele><time>2022-10-30T15:53:18.0000000+00:00</time></trkpt><trkpt lat="39.48219147" lon="-0.36739843"><ele>-42.2</ele><time>2022-10-30T15:53:19.0000000+00:00</time></trkpt><trkpt lat="39.48220328" lon="-0.36739315"><ele>-42.2</ele><time>2022-10-30T15:53:20.0000000+00:00</time></trkpt><trkpt lat="39.48220966" lon="-0.36738426"><ele>-42.2</ele><time>2022-10-30T15:53:21.0000000+00:00</time></trkpt><trkpt lat="39.48221359" lon="-0.3673737"><ele>-42.2</ele><time>2022-10-30T15:53:22.0000000+00:00</time></trkpt><trkpt lat="39.48221728" lon="-0.36736256"><ele>-42.2</ele><time>2022-10-30T15:53:23.0000000+00:00</time></trkpt><trkpt lat="39.48222214" lon="-0.36735526"><ele>-42.2</ele><time>2022-10-30T15:53:24.0000000+00:00</time></trkpt><trkpt lat="39.4822291" lon="-0.36735065"><ele>-42.2</ele><time>2022-10-30T15:53:25.0000000+00:00</time></trkpt><trkpt lat="39.48223698" lon="-0.36734671"><ele>-42.2</ele><time>2022-10-30T15:53:26.0000000+00:00</time></trkpt><trkpt lat="39.48224461" lon="-0.36734085"><ele>-42.2</ele><time>2022-10-30T15:53:27.0000000+00:00</time></trkpt><trkpt lat="39.48225207" lon="-0.36733003"><ele>-42.2</ele><time>2022-10-30T15:53:28.0000000+00:00</time></trkpt><trkpt lat="39.48225592" lon="-0.36731654"><ele>-42.2</ele><time>2022-10-30T15:53:29.0000000+00:00</time></trkpt><trkpt lat="39.48226062" lon="-0.36730279"><ele>-42.2</ele><time>2022-10-30T15:53:30.0000000+00:00</time></trkpt><trkpt lat="39.48226363" lon="-0.36729349"><ele>-42.2</ele><time>2022-10-30T15:53:31.0000000+00:00</time></trkpt><trkpt lat="39.48226498" lon="-0.36728687"><ele>-42.2</ele><time>2022-10-30T15:53:32.0000000+00:00</time></trkpt><trkpt lat="39.48227017" lon="-0.36728418"><ele>-42.2</ele><time>2022-10-30T15:53:33.0000000+00:00</time></trkpt><trkpt lat="39.4822778" lon="-0.36727991"><ele>-42.2</ele><time>2022-10-30T15:53:34.0000000+00:00</time></trkpt><trkpt lat="39.48227822" lon="-0.36727748"><ele>-42.2</ele><time>2022-10-30T15:53:35.0000000+00:00</time></trkpt><trkpt lat="39.48228207" lon="-0.36727262"><ele>-42.2</ele><time>2022-10-30T15:53:36.0000000+00:00</time></trkpt><trkpt lat="39.48228979" lon="-0.3672701"><ele>-42.2</ele><time>2022-10-30T15:53:37.0000000+00:00</time></trkpt><trkpt lat="39.48229901" lon="-0.36726851"><ele>-42.2</ele><time>2022-10-30T15:53:38.0000000+00:00</time></trkpt><trkpt lat="39.48230814" lon="-0.36726373"><ele>-42.2</ele><time>2022-10-30T15:53:39.0000000+00:00</time></trkpt><trkpt lat="39.48232197" lon="-0.36726105"><ele>-42.2</ele><time>2022-10-30T15:53:40.0000000+00:00</time></trkpt><trkpt lat="39.48233572" lon="-0.36725812"><ele>-42.2</ele><time>2022-10-30T15:53:41.0000000+00:00</time></trkpt><trkpt lat="39.48234594" lon="-0.3672551"><ele>-42.2</ele><time>2022-10-30T15:53:42.0000000+00:00</time></trkpt><trkpt lat="39.48235525" lon="-0.36724739"><ele>-42.2</ele><time>2022-10-30T15:53:43.0000000+00:00</time></trkpt><trkpt lat="39.4823638" lon="-0.36723188"><ele>-42.2</ele><time>2022-10-30T15:53:44.0000000+00:00</time></trkpt><trkpt lat="39.48237302" lon="-0.36721545"><ele>-42.2</ele><time>2022-10-30T15:53:45.0000000+00:00</time></trkpt><trkpt lat="39.4823726" lon="-0.36719911"><ele>-42.0</ele><time>2022-10-30T15:53:46.0000000+00:00</time></trkpt><trkpt lat="39.4823731" lon="-0.36718285"><ele>-42.0</ele><time>2022-10-30T15:53:47.0000000+00:00</time></trkpt><trkpt lat="39.48237537" lon="-0.36717187"><ele>-42.0</ele><time>2022-10-30T15:53:48.0000000+00:00</time></trkpt><trkpt lat="39.4823809" lon="-0.36716893"><ele>-42.2</ele><time>2022-10-30T15:53:49.0000000+00:00</time></trkpt><trkpt lat="39.48239062" lon="-0.36716382"><ele>-42.2</ele><time>2022-10-30T15:53:50.0000000+00:00</time></trkpt><trkpt lat="39.48240286" lon="-0.36716181"><ele>-42.2</ele><time>2022-10-30T15:53:51.0000000+00:00</time></trkpt><trkpt lat="39.48241241" lon="-0.36715762"><ele>-42.4</ele><time>2022-10-30T15:53:52.0000000+00:00</time></trkpt><trkpt lat="39.48241895" lon="-0.36715125"><ele>-42.4</ele><time>2022-10-30T15:53:53.0000000+00:00</time></trkpt><trkpt lat="39.48242951" lon="-0.36714706"><ele>-42.4</ele><time>2022-10-30T15:53:54.0000000+00:00</time></trkpt><trkpt lat="39.48244301" lon="-0.36713759"><ele>-42.4</ele><time>2022-10-30T15:53:55.0000000+00:00</time></trkpt><trkpt lat="39.48245357" lon="-0.36712786"><ele>-42.4</ele><time>2022-10-30T15:53:56.0000000+00:00</time></trkpt><trkpt lat="39.48246664" lon="-0.36712141"><ele>-42.4</ele><time>2022-10-30T15:53:57.0000000+00:00</time></trkpt><trkpt lat="39.48247545" lon="-0.36711521"><ele>-42.4</ele><time>2022-10-30T15:53:58.0000000+00:00</time></trkpt><trkpt lat="39.48248467" lon="-0.36710942"><ele>-42.4</ele><time>2022-10-30T15:53:59.0000000+00:00</time></trkpt><trkpt lat="39.4824959" lon="-0.36709417"><ele>-42.4</ele><time>2022-10-30T15:54:00.0000000+00:00</time></trkpt><trkpt lat="39.48251057" lon="-0.36708386"><ele>-42.4</ele><time>2022-10-30T15:54:01.0000000+00:00</time></trkpt><trkpt lat="39.48252046" lon="-0.36707045"><ele>-42.4</ele><time>2022-10-30T15:54:02.0000000+00:00</time></trkpt><trkpt lat="39.48253018" lon="-0.36705544"><ele>-42.4</ele><time>2022-10-30T15:54:03.0000000+00:00</time></trkpt><trkpt lat="39.48253613" lon="-0.36703893"><ele>-42.4</ele><time>2022-10-30T15:54:04.0000000+00:00</time></trkpt><trkpt lat="39.48254242" lon="-0.36702787"><ele>-42.6</ele><time>2022-10-30T15:54:05.0000000+00:00</time></trkpt><trkpt lat="39.48254912" lon="-0.36701806"><ele>-42.6</ele><time>2022-10-30T15:54:06.0000000+00:00</time></trkpt><trkpt lat="39.48255139" lon="-0.36700029"><ele>-42.6</ele><time>2022-10-30T15:54:07.0000000+00:00</time></trkpt><trkpt lat="39.48255683" lon="-0.36698336"><ele>-42.6</ele><time>2022-10-30T15:54:08.0000000+00:00</time></trkpt><trkpt lat="39.48255952" lon="-0.36697129"><ele>-42.6</ele><time>2022-10-30T15:54:09.0000000+00:00</time></trkpt><trkpt lat="39.48255826" lon="-0.3669593"><ele>-42.6</ele><time>2022-10-30T15:54:10.0000000+00:00</time></trkpt><trkpt lat="39.48255239" lon="-0.36695126"><ele>-42.6</ele><time>2022-10-30T15:54:11.0000000+00:00</time></trkpt><trkpt lat="39.48256102" lon="-0.3669417"><ele>-42.6</ele><time>2022-10-30T15:54:12.0000000+00:00</time></trkpt><trkpt lat="39.48256312" lon="-0.36693013"><ele>-42.6</ele><time>2022-10-30T15:54:13.0000000+00:00</time></trkpt><trkpt lat="39.4825632" lon="-0.36691446"><ele>-42.6</ele><time>2022-10-30T15:54:14.0000000+00:00</time></trkpt><trkpt lat="39.48255734" lon="-0.36689962"><ele>-42.6</ele><time>2022-10-30T15:54:15.0000000+00:00</time></trkpt><trkpt lat="39.48255247" lon="-0.36688512"><ele>-42.6</ele><time>2022-10-30T15:54:16.0000000+00:00</time></trkpt><trkpt lat="39.4825482" lon="-0.36687297"><ele>-42.6</ele><time>2022-10-30T15:54:17.0000000+00:00</time></trkpt><trkpt lat="39.48253764" lon="-0.36685897"><ele>-42.6</ele><time>2022-10-30T15:54:18.0000000+00:00</time></trkpt><trkpt lat="39.48253764" lon="-0.36684531"><ele>-42.6</ele><time>2022-10-30T15:54:19.0000000+00:00</time></trkpt><trkpt lat="39.4825404" lon="-0.36683374"><ele>-42.6</ele><time>2022-10-30T15:54:20.0000000+00:00</time></trkpt><trkpt lat="39.48254837" lon="-0.36682167"><ele>-42.6</ele><time>2022-10-30T15:54:21.0000000+00:00</time></trkpt><trkpt lat="39.48255591" lon="-0.36680717"><ele>-42.6</ele><time>2022-10-30T15:54:22.0000000+00:00</time></trkpt><trkpt lat="39.48256547" lon="-0.36679728"><ele>-42.6</ele><time>2022-10-30T15:54:23.0000000+00:00</time></trkpt><trkpt lat="39.48257284" lon="-0.36678596"><ele>-42.6</ele><time>2022-10-30T15:54:24.0000000+00:00</time></trkpt><trkpt lat="39.48257879" lon="-0.366777"><ele>-42.6</ele><time>2022-10-30T15:54:25.0000000+00:00</time></trkpt><trkpt lat="39.48258609" lon="-0.3667713"><ele>-42.6</ele><time>2022-10-30T15:54:26.0000000+00:00</time></trkpt><trkpt lat="39.48259614" lon="-0.36676711"><ele>-42.6</ele><time>2022-10-30T15:54:27.0000000+00:00</time></trkpt><trkpt lat="39.48260528" lon="-0.36676535"><ele>-42.6</ele><time>2022-10-30T15:54:28.0000000+00:00</time></trkpt><trkpt lat="39.48261634" lon="-0.36676132"><ele>-42.6</ele><time>2022-10-30T15:54:29.0000000+00:00</time></trkpt><trkpt lat="39.48262649" lon="-0.36675344"><ele>-42.6</ele><time>2022-10-30T15:54:30.0000000+00:00</time></trkpt><trkpt lat="39.48263587" lon="-0.36674582"><ele>-42.6</ele><time>2022-10-30T15:54:31.0000000+00:00</time></trkpt><trkpt lat="39.48264442" lon="-0.36673836"><ele>-42.6</ele><time>2022-10-30T15:54:32.0000000+00:00</time></trkpt><trkpt lat="39.48265264" lon="-0.3667345"><ele>-42.6</ele><time>2022-10-30T15:54:33.0000000+00:00</time></trkpt><trkpt lat="39.48266245" lon="-0.36673366"><ele>-42.8</ele><time>2022-10-30T15:54:34.0000000+00:00</time></trkpt><trkpt lat="39.48267183" lon="-0.36673148"><ele>-42.8</ele><time>2022-10-30T15:54:35.0000000+00:00</time></trkpt><trkpt lat="39.48267728" lon="-0.36672897"><ele>-42.8</ele><time>2022-10-30T15:54:36.0000000+00:00</time></trkpt><trkpt lat="39.4826839" lon="-0.36672117"><ele>-42.8</ele><time>2022-10-30T15:54:37.0000000+00:00</time></trkpt><trkpt lat="39.48268809" lon="-0.36670432"><ele>-42.8</ele><time>2022-10-30T15:54:38.0000000+00:00</time></trkpt><trkpt lat="39.48269262" lon="-0.36668873"><ele>-42.8</ele><time>2022-10-30T15:54:39.0000000+00:00</time></trkpt><trkpt lat="39.4827005" lon="-0.36667457"><ele>-42.8</ele><time>2022-10-30T15:54:40.0000000+00:00</time></trkpt><trkpt lat="39.48270746" lon="-0.36666518"><ele>-42.8</ele><time>2022-10-30T15:54:41.0000000+00:00</time></trkpt><trkpt lat="39.48271181" lon="-0.36666015"><ele>-42.8</ele><time>2022-10-30T15:54:42.0000000+00:00</time></trkpt><trkpt lat="39.48271995" lon="-0.36665579"><ele>-42.8</ele><time>2022-10-30T15:54:43.0000000+00:00</time></trkpt><trkpt lat="39.48272975" lon="-0.36665663"><ele>-42.8</ele><time>2022-10-30T15:54:44.0000000+00:00</time></trkpt><trkpt lat="39.48274476" lon="-0.36665211"><ele>-42.8</ele><time>2022-10-30T15:54:45.0000000+00:00</time></trkpt><trkpt lat="39.48275205" lon="-0.36665026"><ele>-42.8</ele><time>2022-10-30T15:54:46.0000000+00:00</time></trkpt><trkpt lat="39.4827606" lon="-0.36664909"><ele>-42.8</ele><time>2022-10-30T15:54:47.0000000+00:00</time></trkpt><trkpt lat="39.48277116" lon="-0.36664859"><ele>-42.8</ele><time>2022-10-30T15:54:48.0000000+00:00</time></trkpt><trkpt lat="39.48278164" lon="-0.36664557"><ele>-42.8</ele><time>2022-10-30T15:54:49.0000000+00:00</time></trkpt><trkpt lat="39.48279228" lon="-0.36664875"><ele>-42.8</ele><time>2022-10-30T15:54:50.0000000+00:00</time></trkpt><trkpt lat="39.482801" lon="-0.36664641"><ele>-42.8</ele><time>2022-10-30T15:54:51.0000000+00:00</time></trkpt><trkpt lat="39.48280728" lon="-0.36664314"><ele>-42.8</ele><time>2022-10-30T15:54:52.0000000+00:00</time></trkpt><trkpt lat="39.48281567" lon="-0.36664171"><ele>-42.8</ele><time>2022-10-30T15:54:53.0000000+00:00</time></trkpt><trkpt lat="39.48282782" lon="-0.36663878"><ele>-42.8</ele><time>2022-10-30T15:54:54.0000000+00:00</time></trkpt><trkpt lat="39.48284023" lon="-0.3666371"><ele>-42.8</ele><time>2022-10-30T15:54:55.0000000+00:00</time></trkpt><trkpt lat="39.48284593" lon="-0.36663727"><ele>-42.8</ele><time>2022-10-30T15:54:56.0000000+00:00</time></trkpt><trkpt lat="39.48285523" lon="-0.36663526"><ele>-42.8</ele><time>2022-10-30T15:54:57.0000000+00:00</time></trkpt><trkpt lat="39.4828678" lon="-0.3666314"><ele>-42.8</ele><time>2022-10-30T15:54:58.0000000+00:00</time></trkpt><trkpt lat="39.48288063" lon="-0.36663266"><ele>-42.8</ele><time>2022-10-30T15:54:59.0000000+00:00</time></trkpt><trkpt lat="39.4828937" lon="-0.36663274"><ele>-42.8</ele><time>2022-10-30T15:55:00.0000000+00:00</time></trkpt><trkpt lat="39.48290493" lon="-0.3666402"><ele>-42.8</ele><time>2022-10-30T15:55:01.0000000+00:00</time></trkpt><trkpt lat="39.48291256" lon="-0.3666402"><ele>-42.8</ele><time>2022-10-30T15:55:02.0000000+00:00</time></trkpt><trkpt lat="39.48292161" lon="-0.36663727"><ele>-42.8</ele><time>2022-10-30T15:55:03.0000000+00:00</time></trkpt><trkpt lat="39.48293368" lon="-0.36662964"><ele>-42.8</ele><time>2022-10-30T15:55:04.0000000+00:00</time></trkpt><trkpt lat="39.4829486" lon="-0.36662637"><ele>-42.8</ele><time>2022-10-30T15:55:05.0000000+00:00</time></trkpt><trkpt lat="39.48296327" lon="-0.36662193"><ele>-42.8</ele><time>2022-10-30T15:55:06.0000000+00:00</time></trkpt><trkpt lat="39.48297618" lon="-0.36662025"><ele>-42.8</ele><time>2022-10-30T15:55:07.0000000+00:00</time></trkpt><trkpt lat="39.48298381" lon="-0.36661011"><ele>-42.8</ele><time>2022-10-30T15:55:08.0000000+00:00</time></trkpt><trkpt lat="39.48299546" lon="-0.36659771"><ele>-42.8</ele><time>2022-10-30T15:55:09.0000000+00:00</time></trkpt><trkpt lat="39.48300686" lon="-0.36659368"><ele>-42.8</ele><time>2022-10-30T15:55:10.0000000+00:00</time></trkpt><trkpt lat="39.48301625" lon="-0.36658555"><ele>-42.8</ele><time>2022-10-30T15:55:11.0000000+00:00</time></trkpt><trkpt lat="39.4830248" lon="-0.36657558"><ele>-42.8</ele><time>2022-10-30T15:55:12.0000000+00:00</time></trkpt><trkpt lat="39.48303293" lon="-0.36656829"><ele>-42.8</ele><time>2022-10-30T15:55:13.0000000+00:00</time></trkpt><trkpt lat="39.48304139" lon="-0.36656544"><ele>-42.8</ele><time>2022-10-30T15:55:14.0000000+00:00</time></trkpt><trkpt lat="39.48304818" lon="-0.36656234"><ele>-42.8</ele><time>2022-10-30T15:55:15.0000000+00:00</time></trkpt><trkpt lat="39.48305178" lon="-0.36655957"><ele>-42.8</ele><time>2022-10-30T15:55:16.0000000+00:00</time></trkpt><trkpt lat="39.48305304" lon="-0.36655881"><ele>-42.8</ele><time>2022-10-30T15:55:17.0000000+00:00</time></trkpt><trkpt lat="39.48305489" lon="-0.36655705"><ele>-42.8</ele><time>2022-10-30T15:55:18.0000000+00:00</time></trkpt><trkpt lat="39.48305254" lon="-0.36655546"><ele>-43.0</ele><time>2022-10-30T15:55:19.0000000+00:00</time></trkpt><trkpt lat="39.48305019" lon="-0.36655546"><ele>-43.0</ele><time>2022-10-30T15:55:20.0000000+00:00</time></trkpt><trkpt lat="39.48304935" lon="-0.36655638"><ele>-43.0</ele><time>2022-10-30T15:55:21.0000000+00:00</time></trkpt><trkpt lat="39.4830486" lon="-0.36655806"><ele>-43.0</ele><time>2022-10-30T15:55:22.0000000+00:00</time></trkpt><trkpt lat="39.48304785" lon="-0.36656024"><ele>-43.0</ele><time>2022-10-30T15:55:23.0000000+00:00</time></trkpt><trkpt lat="39.48304776" lon="-0.36656234"><ele>-43.0</ele><time>2022-10-30T15:55:24.0000000+00:00</time></trkpt><trkpt lat="39.48304835" lon="-0.36656368"><ele>-43.0</ele><time>2022-10-30T15:55:25.0000000+00:00</time></trkpt><trkpt lat="39.4830491" lon="-0.36656493"><ele>-43.0</ele><time>2022-10-30T15:55:26.0000000+00:00</time></trkpt><trkpt lat="39.48304935" lon="-0.36656586"><ele>-43.0</ele><time>2022-10-30T15:55:27.0000000+00:00</time></trkpt><trkpt lat="39.48304935" lon="-0.36656586"><ele>-43.0</ele><time>2022-10-30T15:55:28.0000000+00:00</time></trkpt><trkpt lat="39.48304935" lon="-0.36656586"><ele>-43.0</ele><time>2022-10-30T15:55:29.0000000+00:00</time></trkpt><trkpt lat="39.48304935" lon="-0.36656586"><ele>-43.0</ele><time>2022-10-30T15:55:30.0000000+00:00</time></trkpt><trkpt lat="39.48304935" lon="-0.36656586"><ele>-43.0</ele><time>2022-10-30T15:55:31.0000000+00:00</time></trkpt><trkpt lat="39.48304935" lon="-0.36656586"><ele>-43.0</ele><time>2022-10-30T15:55:32.0000000+00:00</time></trkpt><trkpt lat="39.48304935" lon="-0.36656586"><ele>-43.0</ele><time>2022-10-30T15:55:33.0000000+00:00</time></trkpt><trkpt lat="39.48304935" lon="-0.36656586"><ele>-43.0</ele><time>2022-10-30T15:55:34.0000000+00:00</time></trkpt><trkpt lat="39.48304935" lon="-0.36656586"><ele>-43.0</ele><time>2022-10-30T15:55:35.0000000+00:00</time></trkpt><trkpt lat="39.48304935" lon="-0.36656586"><ele>-43.0</ele><time>2022-10-30T15:55:36.0000000+00:00</time></trkpt><trkpt lat="39.48304935" lon="-0.36656586"><ele>-43.2</ele><time>2022-10-30T15:55:37.0000000+00:00</time></trkpt><trkpt lat="39.48304935" lon="-0.36656586"><ele>-43.2</ele><time>2022-10-30T15:55:38.0000000+00:00</time></trkpt><trkpt lat="39.48304919" lon="-0.36656586"><ele>-43.2</ele><time>2022-10-30T15:55:39.0000000+00:00</time></trkpt><trkpt lat="39.4830491" lon="-0.36656586"><ele>-43.2</ele><time>2022-10-30T15:55:40.0000000+00:00</time></trkpt><trkpt lat="39.4830491" lon="-0.36656586"><ele>-43.2</ele><time>2022-10-30T15:55:41.0000000+00:00</time></trkpt><trkpt lat="39.48304885" lon="-0.36656586"><ele>-43.2</ele><time>2022-10-30T15:55:42.0000000+00:00</time></trkpt><trkpt lat="39.48304885" lon="-0.36656586"><ele>-43.2</ele><time>2022-10-30T15:55:43.0000000+00:00</time></trkpt><trkpt lat="39.48304885" lon="-0.36656586"><ele>-43.2</ele><time>2022-10-30T15:55:44.0000000+00:00</time></trkpt><trkpt lat="39.48304885" lon="-0.36656678"><ele>-43.2</ele><time>2022-10-30T15:55:45.0000000+00:00</time></trkpt><trkpt lat="39.48304885" lon="-0.36656745"><ele>-43.4</ele><time>2022-10-30T15:55:46.0000000+00:00</time></trkpt><trkpt lat="39.48304885" lon="-0.36656862"><ele>-43.4</ele><time>2022-10-30T15:55:47.0000000+00:00</time></trkpt><trkpt lat="39.48304885" lon="-0.36656879"><ele>-43.6</ele><time>2022-10-30T15:55:48.0000000+00:00</time></trkpt><trkpt lat="39.48304885" lon="-0.36656904"><ele>-43.6</ele><time>2022-10-30T15:55:49.0000000+00:00</time></trkpt><trkpt lat="39.48304885" lon="-0.36656904"><ele>-43.6</ele><time>2022-10-30T15:55:50.0000000+00:00</time></trkpt><trkpt lat="39.48304885" lon="-0.36656912"><ele>-43.6</ele><time>2022-10-30T15:55:51.0000000+00:00</time></trkpt><trkpt lat="39.48304902" lon="-0.36656912"><ele>-43.6</ele><time>2022-10-30T15:55:52.0000000+00:00</time></trkpt><trkpt lat="39.4830491" lon="-0.36656912"><ele>-43.8</ele><time>2022-10-30T15:55:53.0000000+00:00</time></trkpt><trkpt lat="39.48304843" lon="-0.36656929"><ele>-43.8</ele><time>2022-10-30T15:55:54.0000000+00:00</time></trkpt><trkpt lat="39.48303385" lon="-0.36656837"><ele>-43.8</ele><time>2022-10-30T15:55:55.0000000+00:00</time></trkpt><trkpt lat="39.48302086" lon="-0.36657038"><ele>-43.8</ele><time>2022-10-30T15:55:56.0000000+00:00</time></trkpt><trkpt lat="39.48302086" lon="-0.36657608"><ele>-43.8</ele><time>2022-10-30T15:55:57.0000000+00:00</time></trkpt><trkpt lat="39.48302044" lon="-0.36657348"><ele>-43.8</ele><time>2022-10-30T15:55:58.0000000+00:00</time></trkpt><trkpt lat="39.48302195" lon="-0.36656326"><ele>-43.8</ele><time>2022-10-30T15:55:59.0000000+00:00</time></trkpt><trkpt lat="39.48301968" lon="-0.36656384"><ele>-43.8</ele><time>2022-10-30T15:56:00.0000000+00:00</time></trkpt><trkpt lat="39.48301918" lon="-0.36656577"><ele>-43.6</ele><time>2022-10-30T15:56:01.0000000+00:00</time></trkpt><trkpt lat="39.48301918" lon="-0.36656812"><ele>-43.6</ele><time>2022-10-30T15:56:02.0000000+00:00</time></trkpt><trkpt lat="39.4830191" lon="-0.36656988"><ele>-43.6</ele><time>2022-10-30T15:56:03.0000000+00:00</time></trkpt><trkpt lat="39.48302019" lon="-0.36656896"><ele>-43.4</ele><time>2022-10-30T15:56:04.0000000+00:00</time></trkpt><trkpt lat="39.48302153" lon="-0.36656829"><ele>-43.4</ele><time>2022-10-30T15:56:05.0000000+00:00</time></trkpt><trkpt lat="39.4830222" lon="-0.36656845"><ele>-43.2</ele><time>2022-10-30T15:56:06.0000000+00:00</time></trkpt><trkpt lat="39.4830222" lon="-0.36656845"><ele>-43.2</ele><time>2022-10-30T15:56:07.0000000+00:00</time></trkpt><trkpt lat="39.4830222" lon="-0.36656845"><ele>-43.2</ele><time>2022-10-30T15:56:08.0000000+00:00</time></trkpt><trkpt lat="39.4830222" lon="-0.36656845"><ele>-43.2</ele><time>2022-10-30T15:56:09.0000000+00:00</time></trkpt><trkpt lat="39.4830222" lon="-0.36656845"><ele>-43.2</ele><time>2022-10-30T15:56:10.0000000+00:00</time></trkpt><trkpt lat="39.4830222" lon="-0.36656845"><ele>-43.2</ele><time>2022-10-30T15:56:11.0000000+00:00</time></trkpt><trkpt lat="39.4830222" lon="-0.36656845"><ele>-43.2</ele><time>2022-10-30T15:56:12.0000000+00:00</time></trkpt><trkpt lat="39.4830222" lon="-0.36656845"><ele>-43.2</ele><time>2022-10-30T15:56:13.0000000+00:00</time></trkpt><trkpt lat="39.48302161" lon="-0.36656845"><ele>-43.4</ele><time>2022-10-30T15:56:14.0000000+00:00</time></trkpt><trkpt lat="39.48302136" lon="-0.36656845"><ele>-43.4</ele><time>2022-10-30T15:56:15.0000000+00:00</time></trkpt><trkpt lat="39.48302111" lon="-0.36656845"><ele>-43.4</ele><time>2022-10-30T15:56:16.0000000+00:00</time></trkpt><trkpt lat="39.48302102" lon="-0.36656845"><ele>-43.6</ele><time>2022-10-30T15:56:17.0000000+00:00</time></trkpt><trkpt lat="39.48302086" lon="-0.36656845"><ele>-43.6</ele><time>2022-10-30T15:56:18.0000000+00:00</time></trkpt><trkpt lat="39.48302086" lon="-0.36656845"><ele>-43.6</ele><time>2022-10-30T15:56:19.0000000+00:00</time></trkpt><trkpt lat="39.48302069" lon="-0.36656829"><ele>-43.6</ele><time>2022-10-30T15:56:20.0000000+00:00</time></trkpt><trkpt lat="39.4830206" lon="-0.3665682"><ele>-43.6</ele><time>2022-10-30T15:56:21.0000000+00:00</time></trkpt><trkpt lat="39.48302019" lon="-0.36656812"><ele>-43.6</ele><time>2022-10-30T15:56:22.0000000+00:00</time></trkpt><trkpt lat="39.48301943" lon="-0.36656795"><ele>-43.6</ele><time>2022-10-30T15:56:23.0000000+00:00</time></trkpt><trkpt lat="39.4830191" lon="-0.36656778"><ele>-43.8</ele><time>2022-10-30T15:56:24.0000000+00:00</time></trkpt><trkpt lat="39.48301901" lon="-0.36656762"><ele>-43.8</ele><time>2022-10-30T15:56:25.0000000+00:00</time></trkpt><trkpt lat="39.48301859" lon="-0.36656753"><ele>-43.8</ele><time>2022-10-30T15:56:26.0000000+00:00</time></trkpt><trkpt lat="39.48301792" lon="-0.36656753"><ele>-43.8</ele><time>2022-10-30T15:56:27.0000000+00:00</time></trkpt><trkpt lat="39.48301792" lon="-0.36656753"><ele>-43.8</ele><time>2022-10-30T15:56:28.0000000+00:00</time></trkpt><trkpt lat="39.48301775" lon="-0.36656753"><ele>-43.8</ele><time>2022-10-30T15:56:29.0000000+00:00</time></trkpt><trkpt lat="39.4830165" lon="-0.36656753"><ele>-43.8</ele><time>2022-10-30T15:56:30.0000000+00:00</time></trkpt><trkpt lat="39.48301641" lon="-0.36656762"><ele>-43.8</ele><time>2022-10-30T15:56:31.0000000+00:00</time></trkpt><trkpt lat="39.48301616" lon="-0.36656762"><ele>-43.8</ele><time>2022-10-30T15:56:32.0000000+00:00</time></trkpt><trkpt lat="39.48301608" lon="-0.36656762"><ele>-43.8</ele><time>2022-10-30T15:56:33.0000000+00:00</time></trkpt><trkpt lat="39.48301608" lon="-0.36656762"><ele>-43.8</ele><time>2022-10-30T15:56:34.0000000+00:00</time></trkpt><trkpt lat="39.48301608" lon="-0.36656762"><ele>-43.8</ele><time>2022-10-30T15:56:35.0000000+00:00</time></trkpt><trkpt lat="39.48301608" lon="-0.36656762"><ele>-43.8</ele><time>2022-10-30T15:56:36.0000000+00:00</time></trkpt><trkpt lat="39.48301608" lon="-0.36656762"><ele>-43.8</ele><time>2022-10-30T15:56:37.0000000+00:00</time></trkpt><trkpt lat="39.48301608" lon="-0.3665677"><ele>-43.8</ele><time>2022-10-30T15:56:38.0000000+00:00</time></trkpt><trkpt lat="39.48301608" lon="-0.3665677"><ele>-43.8</ele><time>2022-10-30T15:56:39.0000000+00:00</time></trkpt><trkpt lat="39.48301608" lon="-0.36656762"><ele>-43.8</ele><time>2022-10-30T15:56:40.0000000+00:00</time></trkpt><trkpt lat="39.48301608" lon="-0.36656762"><ele>-43.8</ele><time>2022-10-30T15:56:41.0000000+00:00</time></trkpt><trkpt lat="39.48301608" lon="-0.36656762"><ele>-44.0</ele><time>2022-10-30T15:56:42.0000000+00:00</time></trkpt><trkpt lat="39.48301608" lon="-0.36656762"><ele>-44.0</ele><time>2022-10-30T15:56:43.0000000+00:00</time></trkpt><trkpt lat="39.48301608" lon="-0.3665677"><ele>-44.0</ele><time>2022-10-30T15:56:44.0000000+00:00</time></trkpt><trkpt lat="39.48301608" lon="-0.36656778"><ele>-44.0</ele><time>2022-10-30T15:56:45.0000000+00:00</time></trkpt><trkpt lat="39.48301608" lon="-0.36656778"><ele>-44.0</ele><time>2022-10-30T15:56:46.0000000+00:00</time></trkpt><trkpt lat="39.48301633" lon="-0.36656778"><ele>-44.0</ele><time>2022-10-30T15:56:47.0000000+00:00</time></trkpt><trkpt lat="39.48301633" lon="-0.36656787"><ele>-44.0</ele><time>2022-10-30T15:56:48.0000000+00:00</time></trkpt><trkpt lat="39.48301666" lon="-0.36656795"><ele>-43.8</ele><time>2022-10-30T15:56:49.0000000+00:00</time></trkpt><trkpt lat="39.48301767" lon="-0.36656804"><ele>-43.8</ele><time>2022-10-30T15:56:50.0000000+00:00</time></trkpt><trkpt lat="39.48301868" lon="-0.36656812"><ele>-43.8</ele><time>2022-10-30T15:56:51.0000000+00:00</time></trkpt><trkpt lat="39.48301918" lon="-0.36656812"><ele>-43.8</ele><time>2022-10-30T15:56:52.0000000+00:00</time></trkpt><trkpt lat="39.48301943" lon="-0.36656812"><ele>-43.8</ele><time>2022-10-30T15:56:53.0000000+00:00</time></trkpt><trkpt lat="39.48301951" lon="-0.36656812"><ele>-43.8</ele><time>2022-10-30T15:56:54.0000000+00:00</time></trkpt><trkpt lat="39.48301951" lon="-0.36656812"><ele>-43.8</ele><time>2022-10-30T15:56:55.0000000+00:00</time></trkpt><trkpt lat="39.4830196" lon="-0.36656812"><ele>-43.8</ele><time>2022-10-30T15:56:56.0000000+00:00</time></trkpt><trkpt lat="39.4830196" lon="-0.36656812"><ele>-43.8</ele><time>2022-10-30T15:56:57.0000000+00:00</time></trkpt><trkpt lat="39.48301993" lon="-0.36656812"><ele>-43.8</ele><time>2022-10-30T15:56:58.0000000+00:00</time></trkpt><trkpt lat="39.48302019" lon="-0.36656812"><ele>-43.8</ele><time>2022-10-30T15:56:59.0000000+00:00</time></trkpt><trkpt lat="39.48302044" lon="-0.36656812"><ele>-43.8</ele><time>2022-10-30T15:57:00.0000000+00:00</time></trkpt><trkpt lat="39.48302044" lon="-0.36656804"><ele>-43.8</ele><time>2022-10-30T15:57:01.0000000+00:00</time></trkpt><trkpt lat="39.48302329" lon="-0.36656795"><ele>-44.0</ele><time>2022-10-30T15:57:02.0000000+00:00</time></trkpt><trkpt lat="39.48302521" lon="-0.36656787"><ele>-44.0</ele><time>2022-10-30T15:57:03.0000000+00:00</time></trkpt><trkpt lat="39.48302664" lon="-0.3665677"><ele>-44.0</ele><time>2022-10-30T15:57:04.0000000+00:00</time></trkpt><trkpt lat="39.4830279" lon="-0.36656753"><ele>-44.0</ele><time>2022-10-30T15:57:05.0000000+00:00</time></trkpt><trkpt lat="39.48302932" lon="-0.36656745"><ele>-44.0</ele><time>2022-10-30T15:57:06.0000000+00:00</time></trkpt><trkpt lat="39.483031" lon="-0.36656736"><ele>-44.0</ele><time>2022-10-30T15:57:07.0000000+00:00</time></trkpt><trkpt lat="39.48303242" lon="-0.36656728"><ele>-43.8</ele><time>2022-10-30T15:57:08.0000000+00:00</time></trkpt><trkpt lat="39.48303284" lon="-0.36656728"><ele>-43.8</ele><time>2022-10-30T15:57:09.0000000+00:00</time></trkpt><trkpt lat="39.48303301" lon="-0.36656728"><ele>-43.8</ele><time>2022-10-30T15:57:10.0000000+00:00</time></trkpt><trkpt lat="39.48303309" lon="-0.36656728"><ele>-43.8</ele><time>2022-10-30T15:57:11.0000000+00:00</time></trkpt><trkpt lat="39.48303309" lon="-0.36656728"><ele>-43.8</ele><time>2022-10-30T15:57:12.0000000+00:00</time></trkpt><trkpt lat="39.48303309" lon="-0.36656728"><ele>-43.8</ele><time>2022-10-30T15:57:13.0000000+00:00</time></trkpt><trkpt lat="39.48303309" lon="-0.36656728"><ele>-43.8</ele><time>2022-10-30T15:57:14.0000000+00:00</time></trkpt><trkpt lat="39.48303309" lon="-0.36656728"><ele>-43.8</ele><time>2022-10-30T15:57:15.0000000+00:00</time></trkpt><trkpt lat="39.48303309" lon="-0.36656728"><ele>-43.8</ele><time>2022-10-30T15:57:16.0000000+00:00</time></trkpt><trkpt lat="39.48303309" lon="-0.36656728"><ele>-43.8</ele><time>2022-10-30T15:57:17.0000000+00:00</time></trkpt><trkpt lat="39.48303309" lon="-0.36656728"><ele>-43.8</ele><time>2022-10-30T15:57:18.0000000+00:00</time></trkpt><trkpt lat="39.48303309" lon="-0.36656728"><ele>-43.8</ele><time>2022-10-30T15:57:19.0000000+00:00</time></trkpt><trkpt lat="39.48303309" lon="-0.36656728"><ele>-44.0</ele><time>2022-10-30T15:57:20.0000000+00:00</time></trkpt><trkpt lat="39.48303309" lon="-0.36656728"><ele>-44.0</ele><time>2022-10-30T15:57:21.0000000+00:00</time></trkpt><trkpt lat="39.48303309" lon="-0.36656728"><ele>-44.0</ele><time>2022-10-30T15:57:22.0000000+00:00</time></trkpt><trkpt lat="39.48303251" lon="-0.36656753"><ele>-44.0</ele><time>2022-10-30T15:57:23.0000000+00:00</time></trkpt><trkpt lat="39.48303209" lon="-0.36656762"><ele>-44.0</ele><time>2022-10-30T15:57:24.0000000+00:00</time></trkpt><trkpt lat="39.48303192" lon="-0.36656795"><ele>-44.0</ele><time>2022-10-30T15:57:25.0000000+00:00</time></trkpt><trkpt lat="39.48303167" lon="-0.36656804"><ele>-44.0</ele><time>2022-10-30T15:57:26.0000000+00:00</time></trkpt><trkpt lat="39.48303158" lon="-0.36656812"><ele>-44.0</ele><time>2022-10-30T15:57:27.0000000+00:00</time></trkpt><trkpt lat="39.4830315" lon="-0.36656812"><ele>-44.0</ele><time>2022-10-30T15:57:28.0000000+00:00</time></trkpt><trkpt lat="39.4830315" lon="-0.36656812"><ele>-44.0</ele><time>2022-10-30T15:57:29.0000000+00:00</time></trkpt><trkpt lat="39.4830315" lon="-0.36656812"><ele>-44.0</ele><time>2022-10-30T15:57:30.0000000+00:00</time></trkpt><trkpt lat="39.4830315" lon="-0.36656812"><ele>-44.0</ele><time>2022-10-30T15:57:31.0000000+00:00</time></trkpt><trkpt lat="39.4830315" lon="-0.36656812"><ele>-44.0</ele><time>2022-10-30T15:57:32.0000000+00:00</time></trkpt><trkpt lat="39.4830315" lon="-0.36656812"><ele>-44.0</ele><time>2022-10-30T15:57:33.0000000+00:00</time></trkpt><trkpt lat="39.4830315" lon="-0.36656812"><ele>-44.0</ele><time>2022-10-30T15:57:34.0000000+00:00</time></trkpt><trkpt lat="39.4830315" lon="-0.36656812"><ele>-44.2</ele><time>2022-10-30T15:57:35.0000000+00:00</time></trkpt><trkpt lat="39.48303133" lon="-0.36656812"><ele>-44.2</ele><time>2022-10-30T15:57:36.0000000+00:00</time></trkpt><trkpt lat="39.483031" lon="-0.36656812"><ele>-44.2</ele><time>2022-10-30T15:57:37.0000000+00:00</time></trkpt><trkpt lat="39.48303083" lon="-0.36656812"><ele>-44.0</ele><time>2022-10-30T15:57:38.0000000+00:00</time></trkpt><trkpt lat="39.48303058" lon="-0.36656812"><ele>-44.0</ele><time>2022-10-30T15:57:39.0000000+00:00</time></trkpt><trkpt lat="39.48303066" lon="-0.36656812"><ele>-44.0</ele><time>2022-10-30T15:57:40.0000000+00:00</time></trkpt><trkpt lat="39.48303066" lon="-0.36656787"><ele>-44.0</ele><time>2022-10-30T15:57:41.0000000+00:00</time></trkpt><trkpt lat="39.48303091" lon="-0.36656778"><ele>-44.0</ele><time>2022-10-30T15:57:42.0000000+00:00</time></trkpt><trkpt lat="39.48303125" lon="-0.36656745"><ele>-44.0</ele><time>2022-10-30T15:57:43.0000000+00:00</time></trkpt><trkpt lat="39.48303142" lon="-0.36656728"><ele>-44.0</ele><time>2022-10-30T15:57:44.0000000+00:00</time></trkpt><trkpt lat="39.48303158" lon="-0.36656711"><ele>-44.0</ele><time>2022-10-30T15:57:45.0000000+00:00</time></trkpt><trkpt lat="39.48303167" lon="-0.36656703"><ele>-44.0</ele><time>2022-10-30T15:57:46.0000000+00:00</time></trkpt><trkpt lat="39.48303167" lon="-0.36656695"><ele>-44.0</ele><time>2022-10-30T15:57:47.0000000+00:00</time></trkpt><trkpt lat="39.48303175" lon="-0.36656695"><ele>-44.0</ele><time>2022-10-30T15:57:48.0000000+00:00</time></trkpt><trkpt lat="39.48303192" lon="-0.36656678"><ele>-44.0</ele><time>2022-10-30T15:57:49.0000000+00:00</time></trkpt><trkpt lat="39.48303217" lon="-0.36656669"><ele>-44.0</ele><time>2022-10-30T15:57:50.0000000+00:00</time></trkpt><trkpt lat="39.48303234" lon="-0.36656653"><ele>-44.0</ele><time>2022-10-30T15:57:51.0000000+00:00</time></trkpt><trkpt lat="39.48303251" lon="-0.36656636"><ele>-44.0</ele><time>2022-10-30T15:57:52.0000000+00:00</time></trkpt><trkpt lat="39.48303267" lon="-0.36656627"><ele>-44.0</ele><time>2022-10-30T15:57:53.0000000+00:00</time></trkpt><trkpt lat="39.48303276" lon="-0.36656619"><ele>-44.0</ele><time>2022-10-30T15:57:54.0000000+00:00</time></trkpt><trkpt lat="39.48303284" lon="-0.36656611"><ele>-44.0</ele><time>2022-10-30T15:57:55.0000000+00:00</time></trkpt><trkpt lat="39.48303293" lon="-0.36656586"><ele>-44.0</ele><time>2022-10-30T15:57:56.0000000+00:00</time></trkpt><trkpt lat="39.48303301" lon="-0.36656569"><ele>-44.0</ele><time>2022-10-30T15:57:57.0000000+00:00</time></trkpt><trkpt lat="39.48303326" lon="-0.36656552"><ele>-44.0</ele><time>2022-10-30T15:57:58.0000000+00:00</time></trkpt><trkpt lat="39.48303343" lon="-0.36656535"><ele>-44.0</ele><time>2022-10-30T15:57:59.0000000+00:00</time></trkpt><trkpt lat="39.48303351" lon="-0.36656519"><ele>-44.0</ele><time>2022-10-30T15:58:00.0000000+00:00</time></trkpt><trkpt lat="39.48303368" lon="-0.36656485"><ele>-44.0</ele><time>2022-10-30T15:58:01.0000000+00:00</time></trkpt><trkpt lat="39.48303393" lon="-0.3665646"><ele>-44.0</ele><time>2022-10-30T15:58:02.0000000+00:00</time></trkpt><trkpt lat="39.4830341" lon="-0.36656435"><ele>-44.0</ele><time>2022-10-30T15:58:03.0000000+00:00</time></trkpt><trkpt lat="39.48303435" lon="-0.36656393"><ele>-44.0</ele><time>2022-10-30T15:58:04.0000000+00:00</time></trkpt><trkpt lat="39.4830346" lon="-0.36656359"><ele>-44.0</ele><time>2022-10-30T15:58:05.0000000+00:00</time></trkpt><trkpt lat="39.48303502" lon="-0.36656334"><ele>-44.0</ele><time>2022-10-30T15:58:06.0000000+00:00</time></trkpt><trkpt lat="39.48303527" lon="-0.36656309"><ele>-44.0</ele><time>2022-10-30T15:58:07.0000000+00:00</time></trkpt><trkpt lat="39.48303536" lon="-0.36656292"><ele>-44.0</ele><time>2022-10-30T15:58:08.0000000+00:00</time></trkpt><trkpt lat="39.48303561" lon="-0.36656284"><ele>-44.0</ele><time>2022-10-30T15:58:09.0000000+00:00</time></trkpt><trkpt lat="39.48303578" lon="-0.36656267"><ele>-44.0</ele><time>2022-10-30T15:58:10.0000000+00:00</time></trkpt><trkpt lat="39.48303594" lon="-0.36656242"><ele>-44.0</ele><time>2022-10-30T15:58:11.0000000+00:00</time></trkpt><trkpt lat="39.48303611" lon="-0.36656208"><ele>-44.0</ele><time>2022-10-30T15:58:12.0000000+00:00</time></trkpt><trkpt lat="39.48303619" lon="-0.36656183"><ele>-44.0</ele><time>2022-10-30T15:58:13.0000000+00:00</time></trkpt><trkpt lat="39.48303636" lon="-0.36656141"><ele>-44.0</ele><time>2022-10-30T15:58:14.0000000+00:00</time></trkpt><trkpt lat="39.48303645" lon="-0.36656099"><ele>-44.0</ele><time>2022-10-30T15:58:15.0000000+00:00</time></trkpt><trkpt lat="39.48303653" lon="-0.36656066"><ele>-44.0</ele><time>2022-10-30T15:58:16.0000000+00:00</time></trkpt><trkpt lat="39.48303653" lon="-0.36656041"><ele>-44.0</ele><time>2022-10-30T15:58:17.0000000+00:00</time></trkpt><trkpt lat="39.48303661" lon="-0.36656024"><ele>-44.0</ele><time>2022-10-30T15:58:18.0000000+00:00</time></trkpt><trkpt lat="39.4830367" lon="-0.36656007"><ele>-44.0</ele><time>2022-10-30T15:58:19.0000000+00:00</time></trkpt><trkpt lat="39.48303678" lon="-0.36655999"><ele>-44.0</ele><time>2022-10-30T15:58:20.0000000+00:00</time></trkpt><trkpt lat="39.48303687" lon="-0.3665599"><ele>-44.0</ele><time>2022-10-30T15:58:21.0000000+00:00</time></trkpt><trkpt lat="39.48303687" lon="-0.36655982"><ele>-44.0</ele><time>2022-10-30T15:58:22.0000000+00:00</time></trkpt><trkpt lat="39.48303695" lon="-0.36655974"><ele>-44.0</ele><time>2022-10-30T15:58:23.0000000+00:00</time></trkpt><trkpt lat="39.48303703" lon="-0.36655974"><ele>-44.0</ele><time>2022-10-30T15:58:24.0000000+00:00</time></trkpt><trkpt lat="39.48303712" lon="-0.36655974"><ele>-44.0</ele><time>2022-10-30T15:58:25.0000000+00:00</time></trkpt><trkpt lat="39.48303712" lon="-0.36655974"><ele>-44.0</ele><time>2022-10-30T15:58:26.0000000+00:00</time></trkpt><trkpt lat="39.48303728" lon="-0.36655974"><ele>-44.0</ele><time>2022-10-30T15:58:27.0000000+00:00</time></trkpt><trkpt lat="39.48303745" lon="-0.36655974"><ele>-44.0</ele><time>2022-10-30T15:58:28.0000000+00:00</time></trkpt><trkpt lat="39.48303754" lon="-0.36655974"><ele>-44.0</ele><time>2022-10-30T15:58:29.0000000+00:00</time></trkpt><trkpt lat="39.48303762" lon="-0.36655974"><ele>-44.0</ele><time>2022-10-30T15:58:30.0000000+00:00</time></trkpt><trkpt lat="39.48303779" lon="-0.36655957"><ele>-44.0</ele><time>2022-10-30T15:58:31.0000000+00:00</time></trkpt><trkpt lat="39.48303787" lon="-0.3665594"><ele>-44.0</ele><time>2022-10-30T15:58:32.0000000+00:00</time></trkpt><trkpt lat="39.48303795" lon="-0.36655923"><ele>-44.0</ele><time>2022-10-30T15:58:33.0000000+00:00</time></trkpt><trkpt lat="39.48303804" lon="-0.36655907"><ele>-44.0</ele><time>2022-10-30T15:58:34.0000000+00:00</time></trkpt><trkpt lat="39.48303804" lon="-0.36655873"><ele>-44.0</ele><time>2022-10-30T15:58:35.0000000+00:00</time></trkpt><trkpt lat="39.48303804" lon="-0.36655831"><ele>-44.0</ele><time>2022-10-30T15:58:36.0000000+00:00</time></trkpt><trkpt lat="39.48303804" lon="-0.36655798"><ele>-44.0</ele><time>2022-10-30T15:58:37.0000000+00:00</time></trkpt><trkpt lat="39.48303804" lon="-0.36655764"><ele>-44.0</ele><time>2022-10-30T15:58:38.0000000+00:00</time></trkpt><trkpt lat="39.48303804" lon="-0.36655747"><ele>-44.0</ele><time>2022-10-30T15:58:39.0000000+00:00</time></trkpt><trkpt lat="39.48303804" lon="-0.36655739"><ele>-44.0</ele><time>2022-10-30T15:58:40.0000000+00:00</time></trkpt><trkpt lat="39.48303804" lon="-0.36655756"><ele>-44.0</ele><time>2022-10-30T15:58:41.0000000+00:00</time></trkpt><trkpt lat="39.48303804" lon="-0.36655756"><ele>-44.0</ele><time>2022-10-30T15:58:42.0000000+00:00</time></trkpt><trkpt lat="39.48303804" lon="-0.36655773"><ele>-44.0</ele><time>2022-10-30T15:58:43.0000000+00:00</time></trkpt><trkpt lat="39.48303804" lon="-0.36655789"><ele>-44.0</ele><time>2022-10-30T15:58:44.0000000+00:00</time></trkpt><trkpt lat="39.48303804" lon="-0.36655814"><ele>-44.0</ele><time>2022-10-30T15:58:45.0000000+00:00</time></trkpt><trkpt lat="39.48303804" lon="-0.36655831"><ele>-44.0</ele><time>2022-10-30T15:58:46.0000000+00:00</time></trkpt><trkpt lat="39.48303745" lon="-0.36655848"><ele>-44.0</ele><time>2022-10-30T15:58:47.0000000+00:00</time></trkpt><trkpt lat="39.48303678" lon="-0.36655865"><ele>-44.0</ele><time>2022-10-30T15:58:48.0000000+00:00</time></trkpt><trkpt lat="39.48303603" lon="-0.36655881"><ele>-44.0</ele><time>2022-10-30T15:58:49.0000000+00:00</time></trkpt><trkpt lat="39.48303519" lon="-0.36655907"><ele>-44.0</ele><time>2022-10-30T15:58:50.0000000+00:00</time></trkpt><trkpt lat="39.48303443" lon="-0.36655923"><ele>-44.0</ele><time>2022-10-30T15:58:51.0000000+00:00</time></trkpt><trkpt lat="39.48303376" lon="-0.36655932"><ele>-44.0</ele><time>2022-10-30T15:58:52.0000000+00:00</time></trkpt><trkpt lat="39.48303326" lon="-0.36655949"><ele>-44.0</ele><time>2022-10-30T15:58:53.0000000+00:00</time></trkpt><trkpt lat="39.48303284" lon="-0.36655949"><ele>-44.0</ele><time>2022-10-30T15:58:54.0000000+00:00</time></trkpt><trkpt lat="39.48303242" lon="-0.36655949"><ele>-44.0</ele><time>2022-10-30T15:58:55.0000000+00:00</time></trkpt><trkpt lat="39.483032" lon="-0.3665594"><ele>-44.0</ele><time>2022-10-30T15:58:56.0000000+00:00</time></trkpt><trkpt lat="39.48303158" lon="-0.3665594"><ele>-44.0</ele><time>2022-10-30T15:58:57.0000000+00:00</time></trkpt><trkpt lat="39.48303125" lon="-0.36655932"><ele>-44.0</ele><time>2022-10-30T15:58:58.0000000+00:00</time></trkpt><trkpt lat="39.48303091" lon="-0.36655915"><ele>-44.0</ele><time>2022-10-30T15:58:59.0000000+00:00</time></trkpt><trkpt lat="39.48303058" lon="-0.36655898"><ele>-44.0</ele><time>2022-10-30T15:59:00.0000000+00:00</time></trkpt><trkpt lat="39.48303024" lon="-0.3665589"><ele>-44.0</ele><time>2022-10-30T15:59:01.0000000+00:00</time></trkpt><trkpt lat="39.48302999" lon="-0.36655881"><ele>-44.0</ele><time>2022-10-30T15:59:02.0000000+00:00</time></trkpt><trkpt lat="39.48302974" lon="-0.36655865"><ele>-44.0</ele><time>2022-10-30T15:59:03.0000000+00:00</time></trkpt><trkpt lat="39.48302949" lon="-0.36655865"><ele>-44.0</ele><time>2022-10-30T15:59:04.0000000+00:00</time></trkpt><trkpt lat="39.48302932" lon="-0.36655856"><ele>-44.0</ele><time>2022-10-30T15:59:05.0000000+00:00</time></trkpt><trkpt lat="39.48302915" lon="-0.36655848"><ele>-44.0</ele><time>2022-10-30T15:59:06.0000000+00:00</time></trkpt><trkpt lat="39.4830289" lon="-0.3665584"><ele>-44.0</ele><time>2022-10-30T15:59:07.0000000+00:00</time></trkpt><trkpt lat="39.48302873" lon="-0.36655831"><ele>-44.0</ele><time>2022-10-30T15:59:08.0000000+00:00</time></trkpt><trkpt lat="39.48302865" lon="-0.36655831"><ele>-44.0</ele><time>2022-10-30T15:59:09.0000000+00:00</time></trkpt><trkpt lat="39.48302848" lon="-0.36655814"><ele>-44.0</ele><time>2022-10-30T15:59:10.0000000+00:00</time></trkpt><trkpt lat="39.4830284" lon="-0.36655806"><ele>-44.0</ele><time>2022-10-30T15:59:11.0000000+00:00</time></trkpt><trkpt lat="39.48302832" lon="-0.36655798"><ele>-44.0</ele><time>2022-10-30T15:59:12.0000000+00:00</time></trkpt><trkpt lat="39.48302823" lon="-0.36655789"><ele>-44.0</ele><time>2022-10-30T15:59:13.0000000+00:00</time></trkpt><trkpt lat="39.48302823" lon="-0.36655781"><ele>-44.0</ele><time>2022-10-30T15:59:14.0000000+00:00</time></trkpt><trkpt lat="39.48302815" lon="-0.36655773"><ele>-44.0</ele><time>2022-10-30T15:59:15.0000000+00:00</time></trkpt><trkpt lat="39.48302806" lon="-0.36655773"><ele>-44.0</ele><time>2022-10-30T15:59:16.0000000+00:00</time></trkpt><trkpt lat="39.48302806" lon="-0.36655764"><ele>-44.0</ele><time>2022-10-30T15:59:17.0000000+00:00</time></trkpt><trkpt lat="39.48302798" lon="-0.36655756"><ele>-44.0</ele><time>2022-10-30T15:59:18.0000000+00:00</time></trkpt><trkpt lat="39.48302798" lon="-0.36655756"><ele>-44.0</ele><time>2022-10-30T15:59:19.0000000+00:00</time></trkpt><trkpt lat="39.48302798" lon="-0.36655747"><ele>-44.0</ele><time>2022-10-30T15:59:20.0000000+00:00</time></trkpt><trkpt lat="39.48302798" lon="-0.36655747"><ele>-44.0</ele><time>2022-10-30T15:59:21.0000000+00:00</time></trkpt><trkpt lat="39.4830279" lon="-0.36655739"><ele>-44.0</ele><time>2022-10-30T15:59:22.0000000+00:00</time></trkpt><trkpt lat="39.4830279" lon="-0.36655739"><ele>-44.0</ele><time>2022-10-30T15:59:23.0000000+00:00</time></trkpt><trkpt lat="39.48302798" lon="-0.36655731"><ele>-44.0</ele><time>2022-10-30T15:59:24.0000000+00:00</time></trkpt><trkpt lat="39.48302798" lon="-0.36655731"><ele>-44.0</ele><time>2022-10-30T15:59:25.0000000+00:00</time></trkpt><trkpt lat="39.48302798" lon="-0.36655731"><ele>-44.0</ele><time>2022-10-30T15:59:26.0000000+00:00</time></trkpt><trkpt lat="39.48302798" lon="-0.36655731"><ele>-44.0</ele><time>2022-10-30T15:59:27.0000000+00:00</time></trkpt><trkpt lat="39.4830279" lon="-0.36655722"><ele>-44.0</ele><time>2022-10-30T15:59:28.0000000+00:00</time></trkpt><trkpt lat="39.48302781" lon="-0.36655714"><ele>-44.0</ele><time>2022-10-30T15:59:29.0000000+00:00</time></trkpt><trkpt lat="39.48302773" lon="-0.36655705"><ele>-44.0</ele><time>2022-10-30T15:59:30.0000000+00:00</time></trkpt><trkpt lat="39.48302781" lon="-0.36655689"><ele>-44.0</ele><time>2022-10-30T15:59:31.0000000+00:00</time></trkpt><trkpt lat="39.4830279" lon="-0.36655697"><ele>-44.0</ele><time>2022-10-30T15:59:32.0000000+00:00</time></trkpt><trkpt lat="39.4830279" lon="-0.36655689"><ele>-44.0</ele><time>2022-10-30T15:59:33.0000000+00:00</time></trkpt><trkpt lat="39.4830279" lon="-0.3665568"><ele>-44.0</ele><time>2022-10-30T15:59:34.0000000+00:00</time></trkpt><trkpt lat="39.4830279" lon="-0.36655672"><ele>-44.0</ele><time>2022-10-30T15:59:35.0000000+00:00</time></trkpt><trkpt lat="39.48302781" lon="-0.36655664"><ele>-44.0</ele><time>2022-10-30T15:59:36.0000000+00:00</time></trkpt><trkpt lat="39.4830279" lon="-0.36655655"><ele>-44.0</ele><time>2022-10-30T15:59:37.0000000+00:00</time></trkpt><trkpt lat="39.48302798" lon="-0.36655647"><ele>-44.0</ele><time>2022-10-30T15:59:38.0000000+00:00</time></trkpt><trkpt lat="39.48302798" lon="-0.36655647"><ele>-44.0</ele><time>2022-10-30T15:59:39.0000000+00:00</time></trkpt><trkpt lat="39.4830279" lon="-0.36655655"><ele>-44.0</ele><time>2022-10-30T15:59:40.0000000+00:00</time></trkpt><trkpt lat="39.48302798" lon="-0.36655655"><ele>-44.0</ele><time>2022-10-30T15:59:41.0000000+00:00</time></trkpt><trkpt lat="39.48302806" lon="-0.36655655"><ele>-44.0</ele><time>2022-10-30T15:59:42.0000000+00:00</time></trkpt><trkpt lat="39.48302806" lon="-0.36655664"><ele>-44.0</ele><time>2022-10-30T15:59:43.0000000+00:00</time></trkpt><trkpt lat="39.48302806" lon="-0.36655672"><ele>-44.0</ele><time>2022-10-30T15:59:44.0000000+00:00</time></trkpt><trkpt lat="39.48302815" lon="-0.36655689"><ele>-44.0</ele><time>2022-10-30T15:59:45.0000000+00:00</time></trkpt><trkpt lat="39.48302806" lon="-0.36655689"><ele>-44.0</ele><time>2022-10-30T15:59:46.0000000+00:00</time></trkpt><trkpt lat="39.48302806" lon="-0.36655689"><ele>-44.0</ele><time>2022-10-30T15:59:47.0000000+00:00</time></trkpt><trkpt lat="39.48302806" lon="-0.3665568"><ele>-44.0</ele><time>2022-10-30T15:59:48.0000000+00:00</time></trkpt><trkpt lat="39.48302806" lon="-0.36655672"><ele>-44.0</ele><time>2022-10-30T15:59:49.0000000+00:00</time></trkpt><trkpt lat="39.48302806" lon="-0.36655672"><ele>-44.0</ele><time>2022-10-30T15:59:50.0000000+00:00</time></trkpt><trkpt lat="39.48302806" lon="-0.36655672"><ele>-44.0</ele><time>2022-10-30T15:59:51.0000000+00:00</time></trkpt><trkpt lat="39.48302806" lon="-0.36655664"><ele>-44.0</ele><time>2022-10-30T15:59:52.0000000+00:00</time></trkpt><trkpt lat="39.48302806" lon="-0.36655655"><ele>-44.0</ele><time>2022-10-30T15:59:53.0000000+00:00</time></trkpt><trkpt lat="39.48302806" lon="-0.36655647"><ele>-44.0</ele><time>2022-10-30T15:59:54.0000000+00:00</time></trkpt><trkpt lat="39.48302815" lon="-0.36655638"><ele>-44.0</ele><time>2022-10-30T15:59:55.0000000+00:00</time></trkpt><trkpt lat="39.48302815" lon="-0.3665563"><ele>-44.0</ele><time>2022-10-30T15:59:56.0000000+00:00</time></trkpt><trkpt lat="39.48302815" lon="-0.36655622"><ele>-44.0</ele><time>2022-10-30T15:59:57.0000000+00:00</time></trkpt><trkpt lat="39.48302806" lon="-0.36655605"><ele>-44.0</ele><time>2022-10-30T15:59:58.0000000+00:00</time></trkpt><trkpt lat="39.48302806" lon="-0.36655588"><ele>-44.0</ele><time>2022-10-30T15:59:59.0000000+00:00</time></trkpt><trkpt lat="39.48302806" lon="-0.36655571"><ele>-44.0</ele><time>2022-10-30T16:00:00.0000000+00:00</time></trkpt><trkpt lat="39.48302798" lon="-0.36655563"><ele>-44.0</ele><time>2022-10-30T16:00:01.0000000+00:00</time></trkpt><trkpt lat="39.48302798" lon="-0.36655563"><ele>-44.0</ele><time>2022-10-30T16:00:02.0000000+00:00</time></trkpt><trkpt lat="39.48302798" lon="-0.36655563"><ele>-44.0</ele><time>2022-10-30T16:00:03.0000000+00:00</time></trkpt><trkpt lat="39.48302798" lon="-0.36655571"><ele>-44.0</ele><time>2022-10-30T16:00:04.0000000+00:00</time></trkpt><trkpt lat="39.48302806" lon="-0.36655571"><ele>-44.0</ele><time>2022-10-30T16:00:05.0000000+00:00</time></trkpt><trkpt lat="39.48302806" lon="-0.36655571"><ele>-44.0</ele><time>2022-10-30T16:00:06.0000000+00:00</time></trkpt><trkpt lat="39.48302815" lon="-0.36655563"><ele>-44.0</ele><time>2022-10-30T16:00:07.0000000+00:00</time></trkpt><trkpt lat="39.48302806" lon="-0.36655563"><ele>-44.0</ele><time>2022-10-30T16:00:08.0000000+00:00</time></trkpt><trkpt lat="39.48302815" lon="-0.36655571"><ele>-44.0</ele><time>2022-10-30T16:00:09.0000000+00:00</time></trkpt><trkpt lat="39.48302815" lon="-0.36655571"><ele>-44.0</ele><time>2022-10-30T16:00:10.0000000+00:00</time></trkpt><trkpt lat="39.48302832" lon="-0.36655571"><ele>-44.0</ele><time>2022-10-30T16:00:11.0000000+00:00</time></trkpt><trkpt lat="39.4830284" lon="-0.36655571"><ele>-44.0</ele><time>2022-10-30T16:00:12.0000000+00:00</time></trkpt><trkpt lat="39.48302848" lon="-0.36655588"><ele>-44.0</ele><time>2022-10-30T16:00:13.0000000+00:00</time></trkpt><trkpt lat="39.48302857" lon="-0.36655605"><ele>-44.0</ele><time>2022-10-30T16:00:14.0000000+00:00</time></trkpt><trkpt lat="39.48302857" lon="-0.36655613"><ele>-44.0</ele><time>2022-10-30T16:00:15.0000000+00:00</time></trkpt><trkpt lat="39.48302865" lon="-0.36655622"><ele>-44.0</ele><time>2022-10-30T16:00:16.0000000+00:00</time></trkpt><trkpt lat="39.48302865" lon="-0.36655622"><ele>-44.0</ele><time>2022-10-30T16:00:17.0000000+00:00</time></trkpt><trkpt lat="39.48302865" lon="-0.36655613"><ele>-44.0</ele><time>2022-10-30T16:00:18.0000000+00:00</time></trkpt><trkpt lat="39.48302857" lon="-0.36655605"><ele>-44.0</ele><time>2022-10-30T16:00:19.0000000+00:00</time></trkpt><trkpt lat="39.48302865" lon="-0.36655597"><ele>-44.0</ele><time>2022-10-30T16:00:20.0000000+00:00</time></trkpt><trkpt lat="39.48302882" lon="-0.36655597"><ele>-44.0</ele><time>2022-10-30T16:00:21.0000000+00:00</time></trkpt><trkpt lat="39.48302899" lon="-0.36655597"><ele>-44.0</ele><time>2022-10-30T16:00:22.0000000+00:00</time></trkpt><trkpt lat="39.48302907" lon="-0.36655588"><ele>-44.0</ele><time>2022-10-30T16:00:23.0000000+00:00</time></trkpt><trkpt lat="39.48302924" lon="-0.36655588"><ele>-44.0</ele><time>2022-10-30T16:00:24.0000000+00:00</time></trkpt><trkpt lat="39.48302941" lon="-0.36655588"><ele>-44.0</ele><time>2022-10-30T16:00:25.0000000+00:00</time></trkpt><trkpt lat="39.48302949" lon="-0.36655588"><ele>-44.0</ele><time>2022-10-30T16:00:26.0000000+00:00</time></trkpt><trkpt lat="39.48302949" lon="-0.3665558"><ele>-44.0</ele><time>2022-10-30T16:00:27.0000000+00:00</time></trkpt><trkpt lat="39.48302957" lon="-0.36655588"><ele>-44.0</ele><time>2022-10-30T16:00:28.0000000+00:00</time></trkpt><trkpt lat="39.48302957" lon="-0.36655588"><ele>-44.0</ele><time>2022-10-30T16:00:29.0000000+00:00</time></trkpt><trkpt lat="39.48302966" lon="-0.3665558"><ele>-44.0</ele><time>2022-10-30T16:00:30.0000000+00:00</time></trkpt><trkpt lat="39.48302974" lon="-0.36655588"><ele>-44.0</ele><time>2022-10-30T16:00:31.0000000+00:00</time></trkpt><trkpt lat="39.48302982" lon="-0.36655588"><ele>-44.0</ele><time>2022-10-30T16:00:32.0000000+00:00</time></trkpt><trkpt lat="39.48302982" lon="-0.36655588"><ele>-44.0</ele><time>2022-10-30T16:00:33.0000000+00:00</time></trkpt><trkpt lat="39.48302991" lon="-0.36655588"><ele>-44.0</ele><time>2022-10-30T16:00:34.0000000+00:00</time></trkpt><trkpt lat="39.48302991" lon="-0.36655588"><ele>-44.0</ele><time>2022-10-30T16:00:35.0000000+00:00</time></trkpt><trkpt lat="39.48302999" lon="-0.3665558"><ele>-44.0</ele><time>2022-10-30T16:00:36.0000000+00:00</time></trkpt><trkpt lat="39.48303016" lon="-0.36655571"><ele>-44.0</ele><time>2022-10-30T16:00:37.0000000+00:00</time></trkpt><trkpt lat="39.48303033" lon="-0.36655555"><ele>-44.0</ele><time>2022-10-30T16:00:38.0000000+00:00</time></trkpt><trkpt lat="39.48303041" lon="-0.36655555"><ele>-44.0</ele><time>2022-10-30T16:00:39.0000000+00:00</time></trkpt><trkpt lat="39.48303041" lon="-0.36655555"><ele>-44.0</ele><time>2022-10-30T16:00:40.0000000+00:00</time></trkpt><trkpt lat="39.48303041" lon="-0.36655555"><ele>-44.0</ele><time>2022-10-30T16:00:41.0000000+00:00</time></trkpt><trkpt lat="39.48303041" lon="-0.36655563"><ele>-44.0</ele><time>2022-10-30T16:00:42.0000000+00:00</time></trkpt><trkpt lat="39.48303049" lon="-0.36655555"><ele>-44.0</ele><time>2022-10-30T16:00:43.0000000+00:00</time></trkpt><trkpt lat="39.48303058" lon="-0.36655555"><ele>-44.0</ele><time>2022-10-30T16:00:44.0000000+00:00</time></trkpt><trkpt lat="39.48303066" lon="-0.36655546"><ele>-44.0</ele><time>2022-10-30T16:00:45.0000000+00:00</time></trkpt><trkpt lat="39.48303083" lon="-0.36655546"><ele>-44.0</ele><time>2022-10-30T16:00:46.0000000+00:00</time></trkpt><trkpt lat="39.48303091" lon="-0.36655538"><ele>-44.0</ele><time>2022-10-30T16:00:47.0000000+00:00</time></trkpt><trkpt lat="39.483031" lon="-0.36655538"><ele>-44.0</ele><time>2022-10-30T16:00:48.0000000+00:00</time></trkpt><trkpt lat="39.483031" lon="-0.36655538"><ele>-44.0</ele><time>2022-10-30T16:00:49.0000000+00:00</time></trkpt><trkpt lat="39.483031" lon="-0.36655538"><ele>-44.0</ele><time>2022-10-30T16:00:50.0000000+00:00</time></trkpt><trkpt lat="39.48303091" lon="-0.36655538"><ele>-44.0</ele><time>2022-10-30T16:00:51.0000000+00:00</time></trkpt><trkpt lat="39.48303091" lon="-0.36655538"><ele>-44.0</ele><time>2022-10-30T16:00:52.0000000+00:00</time></trkpt><trkpt lat="39.48303091" lon="-0.36655529"><ele>-44.0</ele><time>2022-10-30T16:00:53.0000000+00:00</time></trkpt><trkpt lat="39.483031" lon="-0.36655529"><ele>-44.0</ele><time>2022-10-30T16:00:54.0000000+00:00</time></trkpt><trkpt lat="39.48303108" lon="-0.36655521"><ele>-44.0</ele><time>2022-10-30T16:00:55.0000000+00:00</time></trkpt><trkpt lat="39.48303117" lon="-0.36655529"><ele>-44.0</ele><time>2022-10-30T16:00:56.0000000+00:00</time></trkpt><trkpt lat="39.48303117" lon="-0.36655529"><ele>-44.0</ele><time>2022-10-30T16:00:57.0000000+00:00</time></trkpt><trkpt lat="39.48303108" lon="-0.36655529"><ele>-44.0</ele><time>2022-10-30T16:00:58.0000000+00:00</time></trkpt><trkpt lat="39.48303108" lon="-0.36655521"><ele>-44.0</ele><time>2022-10-30T16:00:59.0000000+00:00</time></trkpt><trkpt lat="39.483031" lon="-0.36655529"><ele>-44.0</ele><time>2022-10-30T16:01:00.0000000+00:00</time></trkpt><trkpt lat="39.483031" lon="-0.36655538"><ele>-44.0</ele><time>2022-10-30T16:01:01.0000000+00:00</time></trkpt><trkpt lat="39.483031" lon="-0.36655538"><ele>-44.0</ele><time>2022-10-30T16:01:02.0000000+00:00</time></trkpt><trkpt lat="39.483031" lon="-0.36655538"><ele>-44.0</ele><time>2022-10-30T16:01:03.0000000+00:00</time></trkpt><trkpt lat="39.483031" lon="-0.36655546"><ele>-44.0</ele><time>2022-10-30T16:01:04.0000000+00:00</time></trkpt><trkpt lat="39.483031" lon="-0.36655546"><ele>-44.0</ele><time>2022-10-30T16:01:05.0000000+00:00</time></trkpt><trkpt lat="39.48303108" lon="-0.36655563"><ele>-44.0</ele><time>2022-10-30T16:01:06.0000000+00:00</time></trkpt><trkpt lat="39.48303108" lon="-0.36655563"><ele>-44.0</ele><time>2022-10-30T16:01:07.0000000+00:00</time></trkpt><trkpt lat="39.483031" lon="-0.36655563"><ele>-44.0</ele><time>2022-10-30T16:01:08.0000000+00:00</time></trkpt><trkpt lat="39.483031" lon="-0.36655563"><ele>-44.0</ele><time>2022-10-30T16:01:09.0000000+00:00</time></trkpt><trkpt lat="39.483031" lon="-0.36655563"><ele>-44.0</ele><time>2022-10-30T16:01:10.0000000+00:00</time></trkpt><trkpt lat="39.483031" lon="-0.36655563"><ele>-44.0</ele><time>2022-10-30T16:01:11.0000000+00:00</time></trkpt><trkpt lat="39.48303108" lon="-0.36655571"><ele>-44.0</ele><time>2022-10-30T16:01:12.0000000+00:00</time></trkpt><trkpt lat="39.48303108" lon="-0.36655588"><ele>-44.0</ele><time>2022-10-30T16:01:13.0000000+00:00</time></trkpt><trkpt lat="39.48303108" lon="-0.36655588"><ele>-44.0</ele><time>2022-10-30T16:01:14.0000000+00:00</time></trkpt><trkpt lat="39.483031" lon="-0.36655588"><ele>-44.0</ele><time>2022-10-30T16:01:15.0000000+00:00</time></trkpt><trkpt lat="39.483031" lon="-0.36655588"><ele>-44.0</ele><time>2022-10-30T16:01:16.0000000+00:00</time></trkpt><trkpt lat="39.483031" lon="-0.36655588"><ele>-44.0</ele><time>2022-10-30T16:01:17.0000000+00:00</time></trkpt><trkpt lat="39.48303108" lon="-0.36655597"><ele>-44.0</ele><time>2022-10-30T16:01:18.0000000+00:00</time></trkpt><trkpt lat="39.48303108" lon="-0.36655597"><ele>-44.0</ele><time>2022-10-30T16:01:19.0000000+00:00</time></trkpt><trkpt lat="39.48303117" lon="-0.36655597"><ele>-44.0</ele><time>2022-10-30T16:01:20.0000000+00:00</time></trkpt><trkpt lat="39.48303117" lon="-0.36655597"><ele>-44.0</ele><time>2022-10-30T16:01:21.0000000+00:00</time></trkpt><trkpt lat="39.48303125" lon="-0.36655597"><ele>-44.0</ele><time>2022-10-30T16:01:22.0000000+00:00</time></trkpt><trkpt lat="39.48303125" lon="-0.36655605"><ele>-44.0</ele><time>2022-10-30T16:01:23.0000000+00:00</time></trkpt><trkpt lat="39.48303133" lon="-0.36655597"><ele>-44.0</ele><time>2022-10-30T16:01:24.0000000+00:00</time></trkpt><trkpt lat="39.48303142" lon="-0.36655588"><ele>-44.0</ele><time>2022-10-30T16:01:25.0000000+00:00</time></trkpt><trkpt lat="39.48303133" lon="-0.3665558"><ele>-44.0</ele><time>2022-10-30T16:01:26.0000000+00:00</time></trkpt><trkpt lat="39.48303133" lon="-0.3665558"><ele>-44.0</ele><time>2022-10-30T16:01:27.0000000+00:00</time></trkpt><trkpt lat="39.48303142" lon="-0.36655571"><ele>-44.0</ele><time>2022-10-30T16:01:28.0000000+00:00</time></trkpt><trkpt lat="39.48303142" lon="-0.36655571"><ele>-44.0</ele><time>2022-10-30T16:01:29.0000000+00:00</time></trkpt><trkpt lat="39.48303142" lon="-0.36655563"><ele>-44.0</ele><time>2022-10-30T16:01:30.0000000+00:00</time></trkpt><trkpt lat="39.4830315" lon="-0.36655563"><ele>-44.0</ele><time>2022-10-30T16:01:31.0000000+00:00</time></trkpt><trkpt lat="39.4830315" lon="-0.36655555"><ele>-44.0</ele><time>2022-10-30T16:01:32.0000000+00:00</time></trkpt><trkpt lat="39.4830315" lon="-0.36655555"><ele>-44.0</ele><time>2022-10-30T16:01:33.0000000+00:00</time></trkpt><trkpt lat="39.48303158" lon="-0.36655555"><ele>-44.0</ele><time>2022-10-30T16:01:34.0000000+00:00</time></trkpt><trkpt lat="39.4830315" lon="-0.36655546"><ele>-44.0</ele><time>2022-10-30T16:01:35.0000000+00:00</time></trkpt><trkpt lat="39.4830315" lon="-0.36655555"><ele>-44.0</ele><time>2022-10-30T16:01:36.0000000+00:00</time></trkpt><trkpt lat="39.4830315" lon="-0.36655546"><ele>-44.0</ele><time>2022-10-30T16:01:37.0000000+00:00</time></trkpt><trkpt lat="39.48303158" lon="-0.36655546"><ele>-44.0</ele><time>2022-10-30T16:01:38.0000000+00:00</time></trkpt><trkpt lat="39.48303158" lon="-0.36655538"><ele>-44.0</ele><time>2022-10-30T16:01:39.0000000+00:00</time></trkpt><trkpt lat="39.48303167" lon="-0.36655529"><ele>-44.0</ele><time>2022-10-30T16:01:40.0000000+00:00</time></trkpt><trkpt lat="39.48303184" lon="-0.36655521"><ele>-44.0</ele><time>2022-10-30T16:01:41.0000000+00:00</time></trkpt><trkpt lat="39.483032" lon="-0.36655513"><ele>-44.0</ele><time>2022-10-30T16:01:42.0000000+00:00</time></trkpt><trkpt lat="39.48303209" lon="-0.36655496"><ele>-44.0</ele><time>2022-10-30T16:01:43.0000000+00:00</time></trkpt><trkpt lat="39.48303217" lon="-0.36655496"><ele>-44.0</ele><time>2022-10-30T16:01:44.0000000+00:00</time></trkpt><trkpt lat="39.48303217" lon="-0.36655488"><ele>-44.0</ele><time>2022-10-30T16:01:45.0000000+00:00</time></trkpt><trkpt lat="39.48303226" lon="-0.36655496"><ele>-44.0</ele><time>2022-10-30T16:01:46.0000000+00:00</time></trkpt><trkpt lat="39.48303226" lon="-0.36655488"><ele>-44.0</ele><time>2022-10-30T16:01:47.0000000+00:00</time></trkpt><trkpt lat="39.48303234" lon="-0.36655479"><ele>-44.0</ele><time>2022-10-30T16:01:48.0000000+00:00</time></trkpt><trkpt lat="39.48303234" lon="-0.36655479"><ele>-44.0</ele><time>2022-10-30T16:01:49.0000000+00:00</time></trkpt><trkpt lat="39.48303242" lon="-0.36655462"><ele>-44.0</ele><time>2022-10-30T16:01:50.0000000+00:00</time></trkpt><trkpt lat="39.48303251" lon="-0.36655462"><ele>-44.0</ele><time>2022-10-30T16:01:51.0000000+00:00</time></trkpt><trkpt lat="39.48303259" lon="-0.36655471"><ele>-44.0</ele><time>2022-10-30T16:01:52.0000000+00:00</time></trkpt><trkpt lat="39.48303251" lon="-0.36655462"><ele>-44.0</ele><time>2022-10-30T16:01:53.0000000+00:00</time></trkpt><trkpt lat="39.48303251" lon="-0.36655471"><ele>-44.0</ele><time>2022-10-30T16:01:54.0000000+00:00</time></trkpt><trkpt lat="39.48303251" lon="-0.36655471"><ele>-44.0</ele><time>2022-10-30T16:01:55.0000000+00:00</time></trkpt><trkpt lat="39.48303251" lon="-0.36655462"><ele>-44.0</ele><time>2022-10-30T16:01:56.0000000+00:00</time></trkpt><trkpt lat="39.48303259" lon="-0.36655462"><ele>-44.0</ele><time>2022-10-30T16:01:57.0000000+00:00</time></trkpt><trkpt lat="39.48303267" lon="-0.36655454"><ele>-44.0</ele><time>2022-10-30T16:01:58.0000000+00:00</time></trkpt><trkpt lat="39.48303267" lon="-0.36655454"><ele>-44.0</ele><time>2022-10-30T16:01:59.0000000+00:00</time></trkpt><trkpt lat="39.48303267" lon="-0.36655446"><ele>-44.0</ele><time>2022-10-30T16:02:00.0000000+00:00</time></trkpt><trkpt lat="39.48303267" lon="-0.36655437"><ele>-44.0</ele><time>2022-10-30T16:02:01.0000000+00:00</time></trkpt><trkpt lat="39.48303267" lon="-0.36655429"><ele>-44.0</ele><time>2022-10-30T16:02:02.0000000+00:00</time></trkpt><trkpt lat="39.48303276" lon="-0.36655429"><ele>-44.0</ele><time>2022-10-30T16:02:03.0000000+00:00</time></trkpt><trkpt lat="39.48303276" lon="-0.36655429"><ele>-44.0</ele><time>2022-10-30T16:02:04.0000000+00:00</time></trkpt><trkpt lat="39.48303276" lon="-0.36655429"><ele>-44.0</ele><time>2022-10-30T16:02:05.0000000+00:00</time></trkpt><trkpt lat="39.48303276" lon="-0.3665542"><ele>-44.0</ele><time>2022-10-30T16:02:06.0000000+00:00</time></trkpt><trkpt lat="39.48303276" lon="-0.36655429"><ele>-44.0</ele><time>2022-10-30T16:02:07.0000000+00:00</time></trkpt><trkpt lat="39.48303267" lon="-0.36655429"><ele>-44.0</ele><time>2022-10-30T16:02:08.0000000+00:00</time></trkpt><trkpt lat="39.48303267" lon="-0.36655429"><ele>-44.0</ele><time>2022-10-30T16:02:09.0000000+00:00</time></trkpt><trkpt lat="39.48303267" lon="-0.36655429"><ele>-44.0</ele><time>2022-10-30T16:02:10.0000000+00:00</time></trkpt><trkpt lat="39.48303259" lon="-0.36655429"><ele>-44.0</ele><time>2022-10-30T16:02:11.0000000+00:00</time></trkpt><trkpt lat="39.48303259" lon="-0.36655429"><ele>-44.0</ele><time>2022-10-30T16:02:12.0000000+00:00</time></trkpt><trkpt lat="39.48303251" lon="-0.3665542"><ele>-44.0</ele><time>2022-10-30T16:02:13.0000000+00:00</time></trkpt><trkpt lat="39.48303251" lon="-0.36655412"><ele>-44.0</ele><time>2022-10-30T16:02:14.0000000+00:00</time></trkpt><trkpt lat="39.48303259" lon="-0.36655412"><ele>-44.0</ele><time>2022-10-30T16:02:15.0000000+00:00</time></trkpt><trkpt lat="39.48303267" lon="-0.36655412"><ele>-44.0</ele><time>2022-10-30T16:02:16.0000000+00:00</time></trkpt><trkpt lat="39.48303267" lon="-0.36655404"><ele>-44.0</ele><time>2022-10-30T16:02:17.0000000+00:00</time></trkpt><trkpt lat="39.48303276" lon="-0.36655395"><ele>-44.0</ele><time>2022-10-30T16:02:18.0000000+00:00</time></trkpt><trkpt lat="39.48303276" lon="-0.36655395"><ele>-44.0</ele><time>2022-10-30T16:02:19.0000000+00:00</time></trkpt><trkpt lat="39.48303276" lon="-0.36655404"><ele>-44.0</ele><time>2022-10-30T16:02:20.0000000+00:00</time></trkpt><trkpt lat="39.48303267" lon="-0.36655404"><ele>-44.0</ele><time>2022-10-30T16:02:21.0000000+00:00</time></trkpt><trkpt lat="39.48303267" lon="-0.36655404"><ele>-44.0</ele><time>2022-10-30T16:02:22.0000000+00:00</time></trkpt><trkpt lat="39.48303259" lon="-0.36655404"><ele>-44.0</ele><time>2022-10-30T16:02:23.0000000+00:00</time></trkpt><trkpt lat="39.48303267" lon="-0.36655395"><ele>-44.0</ele><time>2022-10-30T16:02:24.0000000+00:00</time></trkpt><trkpt lat="39.48303267" lon="-0.36655395"><ele>-44.0</ele><time>2022-10-30T16:02:25.0000000+00:00</time></trkpt><trkpt lat="39.48303267" lon="-0.36655395"><ele>-44.0</ele><time>2022-10-30T16:02:26.0000000+00:00</time></trkpt><trkpt lat="39.48303267" lon="-0.36655387"><ele>-44.0</ele><time>2022-10-30T16:02:27.0000000+00:00</time></trkpt><trkpt lat="39.48303267" lon="-0.36655387"><ele>-44.0</ele><time>2022-10-30T16:02:28.0000000+00:00</time></trkpt><trkpt lat="39.48303267" lon="-0.36655387"><ele>-44.0</ele><time>2022-10-30T16:02:29.0000000+00:00</time></trkpt><trkpt lat="39.48303259" lon="-0.36655379"><ele>-44.0</ele><time>2022-10-30T16:02:30.0000000+00:00</time></trkpt><trkpt lat="39.48303251" lon="-0.36655387"><ele>-44.0</ele><time>2022-10-30T16:02:31.0000000+00:00</time></trkpt><trkpt lat="39.48303251" lon="-0.36655387"><ele>-44.0</ele><time>2022-10-30T16:02:32.0000000+00:00</time></trkpt><trkpt lat="39.48303259" lon="-0.36655387"><ele>-44.0</ele><time>2022-10-30T16:02:33.0000000+00:00</time></trkpt><trkpt lat="39.48303259" lon="-0.36655387"><ele>-44.0</ele><time>2022-10-30T16:02:34.0000000+00:00</time></trkpt><trkpt lat="39.48303267" lon="-0.36655387"><ele>-44.0</ele><time>2022-10-30T16:02:35.0000000+00:00</time></trkpt><trkpt lat="39.48303267" lon="-0.36655379"><ele>-44.0</ele><time>2022-10-30T16:02:36.0000000+00:00</time></trkpt><trkpt lat="39.48303276" lon="-0.36655379"><ele>-44.0</ele><time>2022-10-30T16:02:37.0000000+00:00</time></trkpt><trkpt lat="39.48303284" lon="-0.36655379"><ele>-44.0</ele><time>2022-10-30T16:02:38.0000000+00:00</time></trkpt><trkpt lat="39.48303284" lon="-0.36655387"><ele>-44.0</ele><time>2022-10-30T16:02:39.0000000+00:00</time></trkpt><trkpt lat="39.48303293" lon="-0.36655387"><ele>-44.0</ele><time>2022-10-30T16:02:40.0000000+00:00</time></trkpt><trkpt lat="39.48303284" lon="-0.36655395"><ele>-44.0</ele><time>2022-10-30T16:02:41.0000000+00:00</time></trkpt><trkpt lat="39.48303284" lon="-0.36655395"><ele>-44.0</ele><time>2022-10-30T16:02:42.0000000+00:00</time></trkpt><trkpt lat="39.48303284" lon="-0.36655395"><ele>-44.0</ele><time>2022-10-30T16:02:43.0000000+00:00</time></trkpt><trkpt lat="39.48303293" lon="-0.36655387"><ele>-44.0</ele><time>2022-10-30T16:02:44.0000000+00:00</time></trkpt><trkpt lat="39.48303293" lon="-0.36655395"><ele>-44.0</ele><time>2022-10-30T16:02:45.0000000+00:00</time></trkpt><trkpt lat="39.48303293" lon="-0.36655387"><ele>-44.0</ele><time>2022-10-30T16:02:46.0000000+00:00</time></trkpt><trkpt lat="39.48303293" lon="-0.36655395"><ele>-44.0</ele><time>2022-10-30T16:02:47.0000000+00:00</time></trkpt><trkpt lat="39.48303301" lon="-0.36655395"><ele>-44.0</ele><time>2022-10-30T16:02:48.0000000+00:00</time></trkpt><trkpt lat="39.48303301" lon="-0.36655395"><ele>-44.0</ele><time>2022-10-30T16:02:49.0000000+00:00</time></trkpt><trkpt lat="39.48303293" lon="-0.36655395"><ele>-44.0</ele><time>2022-10-30T16:02:50.0000000+00:00</time></trkpt><trkpt lat="39.48303293" lon="-0.36655395"><ele>-44.0</ele><time>2022-10-30T16:02:51.0000000+00:00</time></trkpt><trkpt lat="39.48303301" lon="-0.36655395"><ele>-44.0</ele><time>2022-10-30T16:02:52.0000000+00:00</time></trkpt><trkpt lat="39.48303301" lon="-0.36655387"><ele>-44.0</ele><time>2022-10-30T16:02:53.0000000+00:00</time></trkpt><trkpt lat="39.48303309" lon="-0.36655387"><ele>-44.0</ele><time>2022-10-30T16:02:54.0000000+00:00</time></trkpt><trkpt lat="39.48303318" lon="-0.36655379"><ele>-44.0</ele><time>2022-10-30T16:02:55.0000000+00:00</time></trkpt><trkpt lat="39.48303318" lon="-0.36655387"><ele>-44.0</ele><time>2022-10-30T16:02:56.0000000+00:00</time></trkpt><trkpt lat="39.48303318" lon="-0.36655387"><ele>-44.0</ele><time>2022-10-30T16:02:57.0000000+00:00</time></trkpt><trkpt lat="39.48303318" lon="-0.36655387"><ele>-44.0</ele><time>2022-10-30T16:02:58.0000000+00:00</time></trkpt><trkpt lat="39.48303326" lon="-0.36655387"><ele>-44.0</ele><time>2022-10-30T16:02:59.0000000+00:00</time></trkpt><trkpt lat="39.48303326" lon="-0.36655395"><ele>-44.0</ele><time>2022-10-30T16:03:00.0000000+00:00</time></trkpt><trkpt lat="39.48303334" lon="-0.36655395"><ele>-44.0</ele><time>2022-10-30T16:03:01.0000000+00:00</time></trkpt><trkpt lat="39.48303334" lon="-0.36655404"><ele>-44.0</ele><time>2022-10-30T16:03:02.0000000+00:00</time></trkpt><trkpt lat="39.48303334" lon="-0.36655404"><ele>-44.0</ele><time>2022-10-30T16:03:03.0000000+00:00</time></trkpt><trkpt lat="39.48303334" lon="-0.36655404"><ele>-44.0</ele><time>2022-10-30T16:03:04.0000000+00:00</time></trkpt><trkpt lat="39.48303334" lon="-0.36655404"><ele>-44.0</ele><time>2022-10-30T16:03:05.0000000+00:00</time></trkpt><trkpt lat="39.48303343" lon="-0.36655404"><ele>-44.0</ele><time>2022-10-30T16:03:06.0000000+00:00</time></trkpt><trkpt lat="39.48303343" lon="-0.36655404"><ele>-44.0</ele><time>2022-10-30T16:03:07.0000000+00:00</time></trkpt><trkpt lat="39.48303343" lon="-0.36655395"><ele>-44.0</ele><time>2022-10-30T16:03:08.0000000+00:00</time></trkpt><trkpt lat="39.48303343" lon="-0.36655404"><ele>-44.0</ele><time>2022-10-30T16:03:09.0000000+00:00</time></trkpt><trkpt lat="39.48303351" lon="-0.36655404"><ele>-44.0</ele><time>2022-10-30T16:03:10.0000000+00:00</time></trkpt><trkpt lat="39.4830336" lon="-0.36655404"><ele>-44.0</ele><time>2022-10-30T16:03:11.0000000+00:00</time></trkpt><trkpt lat="39.48303368" lon="-0.36655404"><ele>-44.0</ele><time>2022-10-30T16:03:12.0000000+00:00</time></trkpt><trkpt lat="39.4830336" lon="-0.36655404"><ele>-44.0</ele><time>2022-10-30T16:03:13.0000000+00:00</time></trkpt><trkpt lat="39.4830336" lon="-0.36655404"><ele>-44.0</ele><time>2022-10-30T16:03:14.0000000+00:00</time></trkpt><trkpt lat="39.4830336" lon="-0.36655412"><ele>-44.0</ele><time>2022-10-30T16:03:15.0000000+00:00</time></trkpt><trkpt lat="39.4830336" lon="-0.36655412"><ele>-44.0</ele><time>2022-10-30T16:03:16.0000000+00:00</time></trkpt><trkpt lat="39.4830336" lon="-0.36655412"><ele>-44.0</ele><time>2022-10-30T16:03:17.0000000+00:00</time></trkpt><trkpt lat="39.48303351" lon="-0.36655412"><ele>-44.0</ele><time>2022-10-30T16:03:18.0000000+00:00</time></trkpt><trkpt lat="39.48303351" lon="-0.36655412"><ele>-44.0</ele><time>2022-10-30T16:03:19.0000000+00:00</time></trkpt><trkpt lat="39.48303351" lon="-0.36655404"><ele>-44.0</ele><time>2022-10-30T16:03:20.0000000+00:00</time></trkpt><trkpt lat="39.48303351" lon="-0.36655404"><ele>-44.0</ele><time>2022-10-30T16:03:21.0000000+00:00</time></trkpt><trkpt lat="39.48303351" lon="-0.36655404"><ele>-44.0</ele><time>2022-10-30T16:03:22.0000000+00:00</time></trkpt><trkpt lat="39.48303343" lon="-0.36655395"><ele>-44.0</ele><time>2022-10-30T16:03:23.0000000+00:00</time></trkpt><trkpt lat="39.48303343" lon="-0.36655395"><ele>-44.0</ele><time>2022-10-30T16:03:24.0000000+00:00</time></trkpt><trkpt lat="39.48303334" lon="-0.36655395"><ele>-44.0</ele><time>2022-10-30T16:03:25.0000000+00:00</time></trkpt><trkpt lat="39.48303334" lon="-0.36655395"><ele>-44.0</ele><time>2022-10-30T16:03:26.0000000+00:00</time></trkpt><trkpt lat="39.48303326" lon="-0.36655387"><ele>-44.0</ele><time>2022-10-30T16:03:27.0000000+00:00</time></trkpt><trkpt lat="39.48303326" lon="-0.36655387"><ele>-44.0</ele><time>2022-10-30T16:03:28.0000000+00:00</time></trkpt><trkpt lat="39.48303326" lon="-0.36655379"><ele>-44.0</ele><time>2022-10-30T16:03:29.0000000+00:00</time></trkpt><trkpt lat="39.48303318" lon="-0.3665537"><ele>-44.0</ele><time>2022-10-30T16:03:30.0000000+00:00</time></trkpt><trkpt lat="39.48303318" lon="-0.3665537"><ele>-44.0</ele><time>2022-10-30T16:03:31.0000000+00:00</time></trkpt><trkpt lat="39.48303309" lon="-0.36655362"><ele>-44.0</ele><time>2022-10-30T16:03:32.0000000+00:00</time></trkpt><trkpt lat="39.48303309" lon="-0.36655362"><ele>-44.0</ele><time>2022-10-30T16:03:33.0000000+00:00</time></trkpt><trkpt lat="39.48303318" lon="-0.36655362"><ele>-44.0</ele><time>2022-10-30T16:03:34.0000000+00:00</time></trkpt><trkpt lat="39.48303318" lon="-0.36655353"><ele>-44.0</ele><time>2022-10-30T16:03:35.0000000+00:00</time></trkpt><trkpt lat="39.48303326" lon="-0.36655353"><ele>-44.0</ele><time>2022-10-30T16:03:36.0000000+00:00</time></trkpt><trkpt lat="39.48303326" lon="-0.36655345"><ele>-44.0</ele><time>2022-10-30T16:03:37.0000000+00:00</time></trkpt><trkpt lat="39.48303334" lon="-0.36655345"><ele>-44.0</ele><time>2022-10-30T16:03:38.0000000+00:00</time></trkpt><trkpt lat="39.48303334" lon="-0.36655337"><ele>-44.0</ele><time>2022-10-30T16:03:39.0000000+00:00</time></trkpt><trkpt lat="39.48303343" lon="-0.36655337"><ele>-44.0</ele><time>2022-10-30T16:03:40.0000000+00:00</time></trkpt><trkpt lat="39.48303343" lon="-0.36655328"><ele>-44.0</ele><time>2022-10-30T16:03:41.0000000+00:00</time></trkpt><trkpt lat="39.48303343" lon="-0.36655328"><ele>-44.0</ele><time>2022-10-30T16:03:42.0000000+00:00</time></trkpt><trkpt lat="39.48303343" lon="-0.36655328"><ele>-44.0</ele><time>2022-10-30T16:03:43.0000000+00:00</time></trkpt><trkpt lat="39.48303343" lon="-0.3665532"><ele>-44.0</ele><time>2022-10-30T16:03:44.0000000+00:00</time></trkpt><trkpt lat="39.48303351" lon="-0.3665532"><ele>-44.0</ele><time>2022-10-30T16:03:45.0000000+00:00</time></trkpt><trkpt lat="39.48303351" lon="-0.3665532"><ele>-44.0</ele><time>2022-10-30T16:03:46.0000000+00:00</time></trkpt><trkpt lat="39.4830336" lon="-0.3665532"><ele>-44.0</ele><time>2022-10-30T16:03:47.0000000+00:00</time></trkpt><trkpt lat="39.48303368" lon="-0.36655312"><ele>-44.0</ele><time>2022-10-30T16:03:48.0000000+00:00</time></trkpt><trkpt lat="39.48303368" lon="-0.36655312"><ele>-44.0</ele><time>2022-10-30T16:03:49.0000000+00:00</time></trkpt><trkpt lat="39.48303376" lon="-0.36655303"><ele>-44.0</ele><time>2022-10-30T16:03:50.0000000+00:00</time></trkpt><trkpt lat="39.48303376" lon="-0.36655303"><ele>-44.0</ele><time>2022-10-30T16:03:51.0000000+00:00</time></trkpt><trkpt lat="39.48303376" lon="-0.36655303"><ele>-44.0</ele><time>2022-10-30T16:03:52.0000000+00:00</time></trkpt><trkpt lat="39.48303385" lon="-0.36655295"><ele>-44.0</ele><time>2022-10-30T16:03:53.0000000+00:00</time></trkpt><trkpt lat="39.48303385" lon="-0.36655295"><ele>-44.0</ele><time>2022-10-30T16:03:54.0000000+00:00</time></trkpt><trkpt lat="39.48303385" lon="-0.36655286"><ele>-44.0</ele><time>2022-10-30T16:03:55.0000000+00:00</time></trkpt><trkpt lat="39.48303393" lon="-0.36655278"><ele>-44.0</ele><time>2022-10-30T16:03:56.0000000+00:00</time></trkpt><trkpt lat="39.48303393" lon="-0.36655278"><ele>-44.0</ele><time>2022-10-30T16:03:57.0000000+00:00</time></trkpt><trkpt lat="39.48303393" lon="-0.3665527"><ele>-44.0</ele><time>2022-10-30T16:03:58.0000000+00:00</time></trkpt><trkpt lat="39.48303393" lon="-0.3665527"><ele>-44.0</ele><time>2022-10-30T16:03:59.0000000+00:00</time></trkpt><trkpt lat="39.48303402" lon="-0.3665527"><ele>-44.0</ele><time>2022-10-30T16:04:00.0000000+00:00</time></trkpt><trkpt lat="39.48303402" lon="-0.3665527"><ele>-44.0</ele><time>2022-10-30T16:04:01.0000000+00:00</time></trkpt><trkpt lat="39.4830341" lon="-0.36655261"><ele>-44.0</ele><time>2022-10-30T16:04:02.0000000+00:00</time></trkpt><trkpt lat="39.4830341" lon="-0.36655261"><ele>-44.0</ele><time>2022-10-30T16:04:03.0000000+00:00</time></trkpt><trkpt lat="39.4830341" lon="-0.36655261"><ele>-44.0</ele><time>2022-10-30T16:04:04.0000000+00:00</time></trkpt><trkpt lat="39.4830341" lon="-0.36655253"><ele>-44.0</ele><time>2022-10-30T16:04:05.0000000+00:00</time></trkpt><trkpt lat="39.48303418" lon="-0.36655253"><ele>-44.0</ele><time>2022-10-30T16:04:06.0000000+00:00</time></trkpt><trkpt lat="39.48303418" lon="-0.36655253"><ele>-44.0</ele><time>2022-10-30T16:04:07.0000000+00:00</time></trkpt><trkpt lat="39.48303418" lon="-0.36655253"><ele>-44.0</ele><time>2022-10-30T16:04:08.0000000+00:00</time></trkpt><trkpt lat="39.48303427" lon="-0.36655253"><ele>-44.0</ele><time>2022-10-30T16:04:09.0000000+00:00</time></trkpt><trkpt lat="39.48303427" lon="-0.36655244"><ele>-44.0</ele><time>2022-10-30T16:04:10.0000000+00:00</time></trkpt><trkpt lat="39.48303427" lon="-0.36655253"><ele>-44.0</ele><time>2022-10-30T16:04:11.0000000+00:00</time></trkpt><trkpt lat="39.48303435" lon="-0.36655253"><ele>-44.0</ele><time>2022-10-30T16:04:12.0000000+00:00</time></trkpt><trkpt lat="39.48303443" lon="-0.36655253"><ele>-44.0</ele><time>2022-10-30T16:04:13.0000000+00:00</time></trkpt><trkpt lat="39.48303443" lon="-0.36655253"><ele>-44.0</ele><time>2022-10-30T16:04:14.0000000+00:00</time></trkpt><trkpt lat="39.48303443" lon="-0.36655253"><ele>-44.0</ele><time>2022-10-30T16:04:15.0000000+00:00</time></trkpt><trkpt lat="39.48303452" lon="-0.36655261"><ele>-44.0</ele><time>2022-10-30T16:04:16.0000000+00:00</time></trkpt><trkpt lat="39.4830346" lon="-0.36655261"><ele>-44.0</ele><time>2022-10-30T16:04:17.0000000+00:00</time></trkpt><trkpt lat="39.48303469" lon="-0.36655261"><ele>-44.0</ele><time>2022-10-30T16:04:18.0000000+00:00</time></trkpt><trkpt lat="39.48303477" lon="-0.36655253"><ele>-44.0</ele><time>2022-10-30T16:04:19.0000000+00:00</time></trkpt><trkpt lat="39.48303477" lon="-0.36655253"><ele>-44.0</ele><time>2022-10-30T16:04:20.0000000+00:00</time></trkpt><trkpt lat="39.48303485" lon="-0.36655261"><ele>-44.0</ele><time>2022-10-30T16:04:21.0000000+00:00</time></trkpt><trkpt lat="39.48303485" lon="-0.36655261"><ele>-44.0</ele><time>2022-10-30T16:04:22.0000000+00:00</time></trkpt><trkpt lat="39.48303485" lon="-0.36655253"><ele>-44.0</ele><time>2022-10-30T16:04:23.0000000+00:00</time></trkpt><trkpt lat="39.48303485" lon="-0.36655253"><ele>-44.0</ele><time>2022-10-30T16:04:24.0000000+00:00</time></trkpt><trkpt lat="39.48303494" lon="-0.36655244"><ele>-44.0</ele><time>2022-10-30T16:04:25.0000000+00:00</time></trkpt><trkpt lat="39.48303485" lon="-0.36655244"><ele>-44.0</ele><time>2022-10-30T16:04:26.0000000+00:00</time></trkpt><trkpt lat="39.48303494" lon="-0.36655261"><ele>-44.0</ele><time>2022-10-30T16:04:27.0000000+00:00</time></trkpt><trkpt lat="39.48303485" lon="-0.36655261"><ele>-44.0</ele><time>2022-10-30T16:04:28.0000000+00:00</time></trkpt><trkpt lat="39.48303485" lon="-0.3665527"><ele>-44.0</ele><time>2022-10-30T16:04:29.0000000+00:00</time></trkpt><trkpt lat="39.48303494" lon="-0.36655261"><ele>-44.0</ele><time>2022-10-30T16:04:30.0000000+00:00</time></trkpt><trkpt lat="39.48303502" lon="-0.36655261"><ele>-44.0</ele><time>2022-10-30T16:04:31.0000000+00:00</time></trkpt><trkpt lat="39.4830351" lon="-0.36655261"><ele>-44.0</ele><time>2022-10-30T16:04:32.0000000+00:00</time></trkpt><trkpt lat="39.48303519" lon="-0.3665527"><ele>-44.0</ele><time>2022-10-30T16:04:33.0000000+00:00</time></trkpt><trkpt lat="39.48303519" lon="-0.3665527"><ele>-44.0</ele><time>2022-10-30T16:04:34.0000000+00:00</time></trkpt><trkpt lat="39.48303519" lon="-0.3665527"><ele>-44.0</ele><time>2022-10-30T16:04:35.0000000+00:00</time></trkpt><trkpt lat="39.48303519" lon="-0.36655261"><ele>-44.0</ele><time>2022-10-30T16:04:36.0000000+00:00</time></trkpt><trkpt lat="39.48303527" lon="-0.36655261"><ele>-44.0</ele><time>2022-10-30T16:04:37.0000000+00:00</time></trkpt><trkpt lat="39.48303527" lon="-0.36655261"><ele>-44.0</ele><time>2022-10-30T16:04:38.0000000+00:00</time></trkpt><trkpt lat="39.48303527" lon="-0.36655261"><ele>-44.0</ele><time>2022-10-30T16:04:39.0000000+00:00</time></trkpt><trkpt lat="39.48303544" lon="-0.36655261"><ele>-44.0</ele><time>2022-10-30T16:04:40.0000000+00:00</time></trkpt><trkpt lat="39.48303552" lon="-0.36655261"><ele>-44.0</ele><time>2022-10-30T16:04:41.0000000+00:00</time></trkpt><trkpt lat="39.48303552" lon="-0.36655261"><ele>-44.0</ele><time>2022-10-30T16:04:42.0000000+00:00</time></trkpt><trkpt lat="39.48303552" lon="-0.36655253"><ele>-44.0</ele><time>2022-10-30T16:04:43.0000000+00:00</time></trkpt><trkpt lat="39.48303552" lon="-0.36655253"><ele>-44.0</ele><time>2022-10-30T16:04:44.0000000+00:00</time></trkpt><trkpt lat="39.48303561" lon="-0.36655253"><ele>-44.0</ele><time>2022-10-30T16:04:45.0000000+00:00</time></trkpt><trkpt lat="39.48303569" lon="-0.36655253"><ele>-44.0</ele><time>2022-10-30T16:04:46.0000000+00:00</time></trkpt><trkpt lat="39.48303578" lon="-0.36655253"><ele>-44.0</ele><time>2022-10-30T16:04:47.0000000+00:00</time></trkpt><trkpt lat="39.48303586" lon="-0.36655261"><ele>-44.0</ele><time>2022-10-30T16:04:48.0000000+00:00</time></trkpt><trkpt lat="39.48303594" lon="-0.36655261"><ele>-44.0</ele><time>2022-10-30T16:04:49.0000000+00:00</time></trkpt><trkpt lat="39.48303603" lon="-0.36655253"><ele>-44.0</ele><time>2022-10-30T16:04:50.0000000+00:00</time></trkpt><trkpt lat="39.48303603" lon="-0.36655253"><ele>-44.0</ele><time>2022-10-30T16:04:51.0000000+00:00</time></trkpt><trkpt lat="39.48303603" lon="-0.36655253"><ele>-44.0</ele><time>2022-10-30T16:04:52.0000000+00:00</time></trkpt><trkpt lat="39.48303603" lon="-0.36655244"><ele>-44.0</ele><time>2022-10-30T16:04:53.0000000+00:00</time></trkpt><trkpt lat="39.48303611" lon="-0.36655253"><ele>-44.0</ele><time>2022-10-30T16:04:54.0000000+00:00</time></trkpt><trkpt lat="39.48303611" lon="-0.36655261"><ele>-44.0</ele><time>2022-10-30T16:04:55.0000000+00:00</time></trkpt><trkpt lat="39.48303611" lon="-0.36655261"><ele>-44.0</ele><time>2022-10-30T16:04:56.0000000+00:00</time></trkpt><trkpt lat="39.48303619" lon="-0.36655253"><ele>-44.0</ele><time>2022-10-30T16:04:57.0000000+00:00</time></trkpt><trkpt lat="39.48303619" lon="-0.36655261"><ele>-44.0</ele><time>2022-10-30T16:04:58.0000000+00:00</time></trkpt><trkpt lat="39.48303619" lon="-0.36655261"><ele>-44.0</ele><time>2022-10-30T16:04:59.0000000+00:00</time></trkpt><trkpt lat="39.48303619" lon="-0.3665527"><ele>-44.0</ele><time>2022-10-30T16:05:00.0000000+00:00</time></trkpt><trkpt lat="39.48303628" lon="-0.3665527"><ele>-44.0</ele><time>2022-10-30T16:05:01.0000000+00:00</time></trkpt><trkpt lat="39.48303636" lon="-0.3665527"><ele>-44.0</ele><time>2022-10-30T16:05:02.0000000+00:00</time></trkpt><trkpt lat="39.48303636" lon="-0.3665527"><ele>-44.0</ele><time>2022-10-30T16:05:03.0000000+00:00</time></trkpt><trkpt lat="39.48303653" lon="-0.36655278"><ele>-44.0</ele><time>2022-10-30T16:05:04.0000000+00:00</time></trkpt><trkpt lat="39.48303661" lon="-0.36655278"><ele>-44.0</ele><time>2022-10-30T16:05:05.0000000+00:00</time></trkpt><trkpt lat="39.48303661" lon="-0.36655286"><ele>-44.0</ele><time>2022-10-30T16:05:06.0000000+00:00</time></trkpt><trkpt lat="39.4830367" lon="-0.36655286"><ele>-44.0</ele><time>2022-10-30T16:05:07.0000000+00:00</time></trkpt><trkpt lat="39.48303678" lon="-0.36655295"><ele>-44.0</ele><time>2022-10-30T16:05:08.0000000+00:00</time></trkpt><trkpt lat="39.48303687" lon="-0.36655286"><ele>-44.0</ele><time>2022-10-30T16:05:09.0000000+00:00</time></trkpt><trkpt lat="39.48303695" lon="-0.36655295"><ele>-44.0</ele><time>2022-10-30T16:05:10.0000000+00:00</time></trkpt><trkpt lat="39.48303703" lon="-0.36655286"><ele>-44.0</ele><time>2022-10-30T16:05:11.0000000+00:00</time></trkpt><trkpt lat="39.48303703" lon="-0.36655278"><ele>-44.0</ele><time>2022-10-30T16:05:12.0000000+00:00</time></trkpt><trkpt lat="39.48303712" lon="-0.36655278"><ele>-44.0</ele><time>2022-10-30T16:05:13.0000000+00:00</time></trkpt><trkpt lat="39.48303712" lon="-0.36655278"><ele>-44.0</ele><time>2022-10-30T16:05:14.0000000+00:00</time></trkpt><trkpt lat="39.4830372" lon="-0.36655278"><ele>-44.0</ele><time>2022-10-30T16:05:15.0000000+00:00</time></trkpt><trkpt lat="39.4830372" lon="-0.36655278"><ele>-44.0</ele><time>2022-10-30T16:05:16.0000000+00:00</time></trkpt><trkpt lat="39.48303728" lon="-0.3665527"><ele>-44.0</ele><time>2022-10-30T16:05:17.0000000+00:00</time></trkpt><trkpt lat="39.48303737" lon="-0.36655261"><ele>-44.0</ele><time>2022-10-30T16:05:18.0000000+00:00</time></trkpt><trkpt lat="39.48303745" lon="-0.36655261"><ele>-44.0</ele><time>2022-10-30T16:05:19.0000000+00:00</time></trkpt><trkpt lat="39.48303754" lon="-0.36655261"><ele>-44.0</ele><time>2022-10-30T16:05:20.0000000+00:00</time></trkpt><trkpt lat="39.48303754" lon="-0.36655253"><ele>-44.0</ele><time>2022-10-30T16:05:21.0000000+00:00</time></trkpt><trkpt lat="39.48303754" lon="-0.36655244"><ele>-44.0</ele><time>2022-10-30T16:05:22.0000000+00:00</time></trkpt><trkpt lat="39.48303754" lon="-0.36655244"><ele>-44.0</ele><time>2022-10-30T16:05:23.0000000+00:00</time></trkpt><trkpt lat="39.48303762" lon="-0.36655236"><ele>-44.0</ele><time>2022-10-30T16:05:24.0000000+00:00</time></trkpt><trkpt lat="39.48303762" lon="-0.36655228"><ele>-44.0</ele><time>2022-10-30T16:05:25.0000000+00:00</time></trkpt><trkpt lat="39.48303762" lon="-0.36655236"><ele>-44.0</ele><time>2022-10-30T16:05:26.0000000+00:00</time></trkpt><trkpt lat="39.4830377" lon="-0.36655236"><ele>-44.0</ele><time>2022-10-30T16:05:27.0000000+00:00</time></trkpt><trkpt lat="39.48303779" lon="-0.36655236"><ele>-44.0</ele><time>2022-10-30T16:05:28.0000000+00:00</time></trkpt><trkpt lat="39.48303787" lon="-0.36655236"><ele>-44.0</ele><time>2022-10-30T16:05:29.0000000+00:00</time></trkpt><trkpt lat="39.48303795" lon="-0.36655244"><ele>-44.0</ele><time>2022-10-30T16:05:30.0000000+00:00</time></trkpt><trkpt lat="39.48303795" lon="-0.36655244"><ele>-44.0</ele><time>2022-10-30T16:05:31.0000000+00:00</time></trkpt><trkpt lat="39.48303804" lon="-0.36655253"><ele>-44.0</ele><time>2022-10-30T16:05:32.0000000+00:00</time></trkpt><trkpt lat="39.48303804" lon="-0.36655261"><ele>-44.0</ele><time>2022-10-30T16:05:33.0000000+00:00</time></trkpt><trkpt lat="39.48303812" lon="-0.36655253"><ele>-44.0</ele><time>2022-10-30T16:05:34.0000000+00:00</time></trkpt><trkpt lat="39.48303812" lon="-0.36655261"><ele>-44.0</ele><time>2022-10-30T16:05:35.0000000+00:00</time></trkpt><trkpt lat="39.48303812" lon="-0.36655261"><ele>-44.0</ele><time>2022-10-30T16:05:36.0000000+00:00</time></trkpt><trkpt lat="39.48303804" lon="-0.3665527"><ele>-44.0</ele><time>2022-10-30T16:05:37.0000000+00:00</time></trkpt><trkpt lat="39.48303795" lon="-0.3665527"><ele>-44.0</ele><time>2022-10-30T16:05:38.0000000+00:00</time></trkpt><trkpt lat="39.48303795" lon="-0.36655278"><ele>-44.0</ele><time>2022-10-30T16:05:39.0000000+00:00</time></trkpt><trkpt lat="39.48303795" lon="-0.36655286"><ele>-44.0</ele><time>2022-10-30T16:05:40.0000000+00:00</time></trkpt><trkpt lat="39.48303795" lon="-0.36655295"><ele>-44.0</ele><time>2022-10-30T16:05:41.0000000+00:00</time></trkpt><trkpt lat="39.48303795" lon="-0.36655303"><ele>-44.0</ele><time>2022-10-30T16:05:42.0000000+00:00</time></trkpt><trkpt lat="39.48303787" lon="-0.36655303"><ele>-44.0</ele><time>2022-10-30T16:05:43.0000000+00:00</time></trkpt><trkpt lat="39.48303787" lon="-0.36655303"><ele>-44.0</ele><time>2022-10-30T16:05:44.0000000+00:00</time></trkpt><trkpt lat="39.48303787" lon="-0.36655303"><ele>-44.0</ele><time>2022-10-30T16:05:45.0000000+00:00</time></trkpt><trkpt lat="39.48303795" lon="-0.36655303"><ele>-44.0</ele><time>2022-10-30T16:05:46.0000000+00:00</time></trkpt><trkpt lat="39.48303787" lon="-0.36655312"><ele>-44.0</ele><time>2022-10-30T16:05:47.0000000+00:00</time></trkpt><trkpt lat="39.48303795" lon="-0.36655312"><ele>-44.0</ele><time>2022-10-30T16:05:48.0000000+00:00</time></trkpt><trkpt lat="39.48303795" lon="-0.36655303"><ele>-44.0</ele><time>2022-10-30T16:05:49.0000000+00:00</time></trkpt><trkpt lat="39.48303804" lon="-0.36655303"><ele>-44.0</ele><time>2022-10-30T16:05:50.0000000+00:00</time></trkpt><trkpt lat="39.48303804" lon="-0.36655295"><ele>-44.0</ele><time>2022-10-30T16:05:51.0000000+00:00</time></trkpt><trkpt lat="39.48303812" lon="-0.36655303"><ele>-44.0</ele><time>2022-10-30T16:05:52.0000000+00:00</time></trkpt><trkpt lat="39.48303821" lon="-0.36655303"><ele>-44.0</ele><time>2022-10-30T16:05:53.0000000+00:00</time></trkpt><trkpt lat="39.48303821" lon="-0.36655303"><ele>-44.0</ele><time>2022-10-30T16:05:54.0000000+00:00</time></trkpt><trkpt lat="39.48303821" lon="-0.36655303"><ele>-44.0</ele><time>2022-10-30T16:05:55.0000000+00:00</time></trkpt><trkpt lat="39.48303829" lon="-0.36655303"><ele>-44.0</ele><time>2022-10-30T16:05:56.0000000+00:00</time></trkpt><trkpt lat="39.48303829" lon="-0.36655303"><ele>-44.0</ele><time>2022-10-30T16:05:57.0000000+00:00</time></trkpt><trkpt lat="39.48303829" lon="-0.36655303"><ele>-44.0</ele><time>2022-10-30T16:05:58.0000000+00:00</time></trkpt><trkpt lat="39.48303829" lon="-0.36655295"><ele>-44.0</ele><time>2022-10-30T16:05:59.0000000+00:00</time></trkpt><trkpt lat="39.48303829" lon="-0.36655303"><ele>-44.0</ele><time>2022-10-30T16:06:00.0000000+00:00</time></trkpt><trkpt lat="39.48303837" lon="-0.36655303"><ele>-44.0</ele><time>2022-10-30T16:06:01.0000000+00:00</time></trkpt><trkpt lat="39.48303837" lon="-0.36655303"><ele>-44.0</ele><time>2022-10-30T16:06:02.0000000+00:00</time></trkpt><trkpt lat="39.48303846" lon="-0.36655312"><ele>-44.0</ele><time>2022-10-30T16:06:03.0000000+00:00</time></trkpt><trkpt lat="39.48303846" lon="-0.36655312"><ele>-44.0</ele><time>2022-10-30T16:06:04.0000000+00:00</time></trkpt><trkpt lat="39.48303846" lon="-0.3665532"><ele>-44.0</ele><time>2022-10-30T16:06:05.0000000+00:00</time></trkpt><trkpt lat="39.48303854" lon="-0.3665532"><ele>-44.0</ele><time>2022-10-30T16:06:06.0000000+00:00</time></trkpt><trkpt lat="39.48303854" lon="-0.3665532"><ele>-44.0</ele><time>2022-10-30T16:06:07.0000000+00:00</time></trkpt><trkpt lat="39.48303863" lon="-0.36655328"><ele>-44.0</ele><time>2022-10-30T16:06:08.0000000+00:00</time></trkpt><trkpt lat="39.48303871" lon="-0.36655337"><ele>-44.0</ele><time>2022-10-30T16:06:09.0000000+00:00</time></trkpt><trkpt lat="39.48303879" lon="-0.3665532"><ele>-44.0</ele><time>2022-10-30T16:06:10.0000000+00:00</time></trkpt><trkpt lat="39.48303888" lon="-0.3665532"><ele>-44.0</ele><time>2022-10-30T16:06:11.0000000+00:00</time></trkpt><trkpt lat="39.48303896" lon="-0.36655303"><ele>-44.0</ele><time>2022-10-30T16:06:12.0000000+00:00</time></trkpt><trkpt lat="39.48303904" lon="-0.36655295"><ele>-44.0</ele><time>2022-10-30T16:06:13.0000000+00:00</time></trkpt><trkpt lat="39.48303913" lon="-0.36655295"><ele>-44.0</ele><time>2022-10-30T16:06:14.0000000+00:00</time></trkpt><trkpt lat="39.48303921" lon="-0.36655295"><ele>-44.0</ele><time>2022-10-30T16:06:15.0000000+00:00</time></trkpt><trkpt lat="39.48303921" lon="-0.36655295"><ele>-44.0</ele><time>2022-10-30T16:06:16.0000000+00:00</time></trkpt><trkpt lat="39.48303938" lon="-0.36655303"><ele>-44.0</ele><time>2022-10-30T16:06:17.0000000+00:00</time></trkpt><trkpt lat="39.48303946" lon="-0.36655286"><ele>-44.0</ele><time>2022-10-30T16:06:18.0000000+00:00</time></trkpt><trkpt lat="39.48303946" lon="-0.36655278"><ele>-44.0</ele><time>2022-10-30T16:06:19.0000000+00:00</time></trkpt><trkpt lat="39.48303938" lon="-0.36655286"><ele>-44.0</ele><time>2022-10-30T16:06:20.0000000+00:00</time></trkpt><trkpt lat="39.4830393" lon="-0.36655278"><ele>-44.0</ele><time>2022-10-30T16:06:21.0000000+00:00</time></trkpt><trkpt lat="39.48303921" lon="-0.3665527"><ele>-44.0</ele><time>2022-10-30T16:06:22.0000000+00:00</time></trkpt><trkpt lat="39.48303921" lon="-0.36655261"><ele>-44.0</ele><time>2022-10-30T16:06:23.0000000+00:00</time></trkpt><trkpt lat="39.48303921" lon="-0.36655253"><ele>-44.0</ele><time>2022-10-30T16:06:24.0000000+00:00</time></trkpt><trkpt lat="39.48303921" lon="-0.36655253"><ele>-44.0</ele><time>2022-10-30T16:06:25.0000000+00:00</time></trkpt><trkpt lat="39.48303921" lon="-0.36655244"><ele>-44.0</ele><time>2022-10-30T16:06:26.0000000+00:00</time></trkpt><trkpt lat="39.48303921" lon="-0.36655244"><ele>-44.0</ele><time>2022-10-30T16:06:27.0000000+00:00</time></trkpt><trkpt lat="39.48303921" lon="-0.36655253"><ele>-44.0</ele><time>2022-10-30T16:06:28.0000000+00:00</time></trkpt><trkpt lat="39.4830393" lon="-0.36655261"><ele>-44.0</ele><time>2022-10-30T16:06:29.0000000+00:00</time></trkpt><trkpt lat="39.4830393" lon="-0.36655278"><ele>-44.0</ele><time>2022-10-30T16:06:30.0000000+00:00</time></trkpt><trkpt lat="39.48303938" lon="-0.36655278"><ele>-44.0</ele><time>2022-10-30T16:06:31.0000000+00:00</time></trkpt><trkpt lat="39.48303946" lon="-0.36655278"><ele>-44.0</ele><time>2022-10-30T16:06:32.0000000+00:00</time></trkpt><trkpt lat="39.48303963" lon="-0.36655278"><ele>-44.0</ele><time>2022-10-30T16:06:33.0000000+00:00</time></trkpt><trkpt lat="39.48303971" lon="-0.3665527"><ele>-44.0</ele><time>2022-10-30T16:06:34.0000000+00:00</time></trkpt><trkpt lat="39.48303971" lon="-0.3665527"><ele>-44.0</ele><time>2022-10-30T16:06:35.0000000+00:00</time></trkpt><trkpt lat="39.4830398" lon="-0.3665527"><ele>-44.0</ele><time>2022-10-30T16:06:36.0000000+00:00</time></trkpt><trkpt lat="39.4830398" lon="-0.36655261"><ele>-44.0</ele><time>2022-10-30T16:06:37.0000000+00:00</time></trkpt><trkpt lat="39.4830398" lon="-0.36655261"><ele>-44.0</ele><time>2022-10-30T16:06:38.0000000+00:00</time></trkpt><trkpt lat="39.48303988" lon="-0.36655253"><ele>-44.0</ele><time>2022-10-30T16:06:39.0000000+00:00</time></trkpt><trkpt lat="39.48303988" lon="-0.36655253"><ele>-44.0</ele><time>2022-10-30T16:06:40.0000000+00:00</time></trkpt><trkpt lat="39.48303997" lon="-0.36655261"><ele>-44.0</ele><time>2022-10-30T16:06:41.0000000+00:00</time></trkpt><trkpt lat="39.48303997" lon="-0.36655261"><ele>-44.0</ele><time>2022-10-30T16:06:42.0000000+00:00</time></trkpt><trkpt lat="39.48303997" lon="-0.3665527"><ele>-44.0</ele><time>2022-10-30T16:06:43.0000000+00:00</time></trkpt><trkpt lat="39.48304005" lon="-0.36655261"><ele>-44.0</ele><time>2022-10-30T16:06:44.0000000+00:00</time></trkpt><trkpt lat="39.48304005" lon="-0.36655261"><ele>-44.0</ele><time>2022-10-30T16:06:45.0000000+00:00</time></trkpt><trkpt lat="39.48304013" lon="-0.36655253"><ele>-44.0</ele><time>2022-10-30T16:06:46.0000000+00:00</time></trkpt><trkpt lat="39.48304013" lon="-0.36655253"><ele>-44.0</ele><time>2022-10-30T16:06:47.0000000+00:00</time></trkpt><trkpt lat="39.48304022" lon="-0.36655253"><ele>-44.0</ele><time>2022-10-30T16:06:48.0000000+00:00</time></trkpt><trkpt lat="39.48304022" lon="-0.36655253"><ele>-44.0</ele><time>2022-10-30T16:06:49.0000000+00:00</time></trkpt><trkpt lat="39.48304022" lon="-0.36655261"><ele>-44.0</ele><time>2022-10-30T16:06:50.0000000+00:00</time></trkpt><trkpt lat="39.48304022" lon="-0.36655261"><ele>-44.0</ele><time>2022-10-30T16:06:51.0000000+00:00</time></trkpt><trkpt lat="39.48304022" lon="-0.3665527"><ele>-44.0</ele><time>2022-10-30T16:06:52.0000000+00:00</time></trkpt><trkpt lat="39.48304022" lon="-0.3665527"><ele>-44.0</ele><time>2022-10-30T16:06:53.0000000+00:00</time></trkpt><trkpt lat="39.48304022" lon="-0.3665527"><ele>-44.0</ele><time>2022-10-30T16:06:54.0000000+00:00</time></trkpt><trkpt lat="39.4830403" lon="-0.3665527"><ele>-44.0</ele><time>2022-10-30T16:06:55.0000000+00:00</time></trkpt><trkpt lat="39.4830403" lon="-0.36655278"><ele>-44.0</ele><time>2022-10-30T16:06:56.0000000+00:00</time></trkpt><trkpt lat="39.4830403" lon="-0.36655278"><ele>-44.0</ele><time>2022-10-30T16:06:57.0000000+00:00</time></trkpt><trkpt lat="39.4830403" lon="-0.36655286"><ele>-44.0</ele><time>2022-10-30T16:06:58.0000000+00:00</time></trkpt><trkpt lat="39.4830403" lon="-0.36655286"><ele>-44.0</ele><time>2022-10-30T16:06:59.0000000+00:00</time></trkpt><trkpt lat="39.48304039" lon="-0.36655286"><ele>-44.0</ele><time>2022-10-30T16:07:00.0000000+00:00</time></trkpt><trkpt lat="39.48304047" lon="-0.36655278"><ele>-44.0</ele><time>2022-10-30T16:07:01.0000000+00:00</time></trkpt><trkpt lat="39.48304047" lon="-0.36655278"><ele>-44.0</ele><time>2022-10-30T16:07:02.0000000+00:00</time></trkpt><trkpt lat="39.48304039" lon="-0.3665527"><ele>-44.0</ele><time>2022-10-30T16:07:03.0000000+00:00</time></trkpt><trkpt lat="39.48304039" lon="-0.3665527"><ele>-44.0</ele><time>2022-10-30T16:07:04.0000000+00:00</time></trkpt><trkpt lat="39.48304047" lon="-0.3665527"><ele>-44.0</ele><time>2022-10-30T16:07:05.0000000+00:00</time></trkpt><trkpt lat="39.48304047" lon="-0.36655261"><ele>-44.0</ele><time>2022-10-30T16:07:06.0000000+00:00</time></trkpt><trkpt lat="39.48304047" lon="-0.36655261"><ele>-44.0</ele><time>2022-10-30T16:07:07.0000000+00:00</time></trkpt><trkpt lat="39.48304047" lon="-0.36655253"><ele>-44.0</ele><time>2022-10-30T16:07:08.0000000+00:00</time></trkpt><trkpt lat="39.48304047" lon="-0.36655253"><ele>-44.0</ele><time>2022-10-30T16:07:09.0000000+00:00</time></trkpt><trkpt lat="39.48304047" lon="-0.36655253"><ele>-44.0</ele><time>2022-10-30T16:07:10.0000000+00:00</time></trkpt><trkpt lat="39.48304047" lon="-0.36655253"><ele>-44.0</ele><time>2022-10-30T16:07:11.0000000+00:00</time></trkpt><trkpt lat="39.48304055" lon="-0.36655253"><ele>-44.0</ele><time>2022-10-30T16:07:12.0000000+00:00</time></trkpt><trkpt lat="39.48304055" lon="-0.36655244"><ele>-44.0</ele><time>2022-10-30T16:07:13.0000000+00:00</time></trkpt><trkpt lat="39.48304055" lon="-0.36655236"><ele>-44.0</ele><time>2022-10-30T16:07:14.0000000+00:00</time></trkpt><trkpt lat="39.48304055" lon="-0.36655228"><ele>-44.0</ele><time>2022-10-30T16:07:15.0000000+00:00</time></trkpt><trkpt lat="39.48304064" lon="-0.36655219"><ele>-44.0</ele><time>2022-10-30T16:07:16.0000000+00:00</time></trkpt><trkpt lat="39.48304064" lon="-0.36655203"><ele>-44.0</ele><time>2022-10-30T16:07:17.0000000+00:00</time></trkpt><trkpt lat="39.48304072" lon="-0.36655194"><ele>-44.0</ele><time>2022-10-30T16:07:18.0000000+00:00</time></trkpt><trkpt lat="39.4830408" lon="-0.36655186"><ele>-44.0</ele><time>2022-10-30T16:07:19.0000000+00:00</time></trkpt><trkpt lat="39.48304097" lon="-0.36655186"><ele>-44.0</ele><time>2022-10-30T16:07:20.0000000+00:00</time></trkpt><trkpt lat="39.48304106" lon="-0.36655186"><ele>-44.0</ele><time>2022-10-30T16:07:21.0000000+00:00</time></trkpt><trkpt lat="39.48304114" lon="-0.36655194"><ele>-44.0</ele><time>2022-10-30T16:07:22.0000000+00:00</time></trkpt><trkpt lat="39.48304114" lon="-0.36655194"><ele>-44.0</ele><time>2022-10-30T16:07:23.0000000+00:00</time></trkpt><trkpt lat="39.48304114" lon="-0.36655203"><ele>-44.0</ele><time>2022-10-30T16:07:24.0000000+00:00</time></trkpt><trkpt lat="39.48304114" lon="-0.36655211"><ele>-44.0</ele><time>2022-10-30T16:07:25.0000000+00:00</time></trkpt><trkpt lat="39.48304122" lon="-0.36655219"><ele>-44.0</ele><time>2022-10-30T16:07:26.0000000+00:00</time></trkpt><trkpt lat="39.48304122" lon="-0.36655228"><ele>-44.0</ele><time>2022-10-30T16:07:27.0000000+00:00</time></trkpt><trkpt lat="39.48304131" lon="-0.36655228"><ele>-44.0</ele><time>2022-10-30T16:07:28.0000000+00:00</time></trkpt><trkpt lat="39.48304139" lon="-0.36655219"><ele>-44.0</ele><time>2022-10-30T16:07:29.0000000+00:00</time></trkpt><trkpt lat="39.48304139" lon="-0.36655211"><ele>-44.0</ele><time>2022-10-30T16:07:30.0000000+00:00</time></trkpt><trkpt lat="39.48304148" lon="-0.36655194"><ele>-44.0</ele><time>2022-10-30T16:07:31.0000000+00:00</time></trkpt><trkpt lat="39.48304156" lon="-0.36655169"><ele>-44.0</ele><time>2022-10-30T16:07:32.0000000+00:00</time></trkpt><trkpt lat="39.48304164" lon="-0.36655161"><ele>-44.0</ele><time>2022-10-30T16:07:33.0000000+00:00</time></trkpt><trkpt lat="39.48304173" lon="-0.36655152"><ele>-44.0</ele><time>2022-10-30T16:07:34.0000000+00:00</time></trkpt><trkpt lat="39.48304173" lon="-0.36655152"><ele>-44.0</ele><time>2022-10-30T16:07:35.0000000+00:00</time></trkpt><trkpt lat="39.48304173" lon="-0.36655152"><ele>-44.0</ele><time>2022-10-30T16:07:36.0000000+00:00</time></trkpt><trkpt lat="39.48304181" lon="-0.36655161"><ele>-44.0</ele><time>2022-10-30T16:07:37.0000000+00:00</time></trkpt><trkpt lat="39.48304189" lon="-0.36655161"><ele>-44.0</ele><time>2022-10-30T16:07:38.0000000+00:00</time></trkpt><trkpt lat="39.48304189" lon="-0.36655169"><ele>-44.0</ele><time>2022-10-30T16:07:39.0000000+00:00</time></trkpt><trkpt lat="39.48304198" lon="-0.36655161"><ele>-44.0</ele><time>2022-10-30T16:07:40.0000000+00:00</time></trkpt><trkpt lat="39.48304206" lon="-0.36655152"><ele>-44.0</ele><time>2022-10-30T16:07:41.0000000+00:00</time></trkpt><trkpt lat="39.48304215" lon="-0.36655152"><ele>-44.0</ele><time>2022-10-30T16:07:42.0000000+00:00</time></trkpt><trkpt lat="39.48304223" lon="-0.36655144"><ele>-44.0</ele><time>2022-10-30T16:07:43.0000000+00:00</time></trkpt><trkpt lat="39.48304231" lon="-0.36655144"><ele>-44.0</ele><time>2022-10-30T16:07:44.0000000+00:00</time></trkpt><trkpt lat="39.4830424" lon="-0.36655136"><ele>-44.0</ele><time>2022-10-30T16:07:45.0000000+00:00</time></trkpt><trkpt lat="39.48304248" lon="-0.36655127"><ele>-44.0</ele><time>2022-10-30T16:07:46.0000000+00:00</time></trkpt><trkpt lat="39.48304256" lon="-0.36655119"><ele>-44.0</ele><time>2022-10-30T16:07:47.0000000+00:00</time></trkpt><trkpt lat="39.48304265" lon="-0.3665511"><ele>-44.0</ele><time>2022-10-30T16:07:48.0000000+00:00</time></trkpt><trkpt lat="39.48304273" lon="-0.3665511"><ele>-44.0</ele><time>2022-10-30T16:07:49.0000000+00:00</time></trkpt><trkpt lat="39.48304282" lon="-0.36655102"><ele>-44.0</ele><time>2022-10-30T16:07:50.0000000+00:00</time></trkpt><trkpt lat="39.48304282" lon="-0.36655094"><ele>-44.0</ele><time>2022-10-30T16:07:51.0000000+00:00</time></trkpt><trkpt lat="39.4830429" lon="-0.36655094"><ele>-44.0</ele><time>2022-10-30T16:07:52.0000000+00:00</time></trkpt><trkpt lat="39.48304298" lon="-0.36655077"><ele>-44.0</ele><time>2022-10-30T16:07:53.0000000+00:00</time></trkpt><trkpt lat="39.48304307" lon="-0.36655068"><ele>-44.0</ele><time>2022-10-30T16:07:54.0000000+00:00</time></trkpt><trkpt lat="39.48304315" lon="-0.36655068"><ele>-44.0</ele><time>2022-10-30T16:07:55.0000000+00:00</time></trkpt><trkpt lat="39.48304324" lon="-0.36655068"><ele>-44.0</ele><time>2022-10-30T16:07:56.0000000+00:00</time></trkpt><trkpt lat="39.48304332" lon="-0.3665506"><ele>-44.0</ele><time>2022-10-30T16:07:57.0000000+00:00</time></trkpt><trkpt lat="39.4830434" lon="-0.3665506"><ele>-44.0</ele><time>2022-10-30T16:07:58.0000000+00:00</time></trkpt><trkpt lat="39.48304349" lon="-0.3665506"><ele>-44.0</ele><time>2022-10-30T16:07:59.0000000+00:00</time></trkpt><trkpt lat="39.48304357" lon="-0.36655052"><ele>-44.0</ele><time>2022-10-30T16:08:00.0000000+00:00</time></trkpt><trkpt lat="39.48304365" lon="-0.36655052"><ele>-44.0</ele><time>2022-10-30T16:08:01.0000000+00:00</time></trkpt><trkpt lat="39.48304374" lon="-0.36655052"><ele>-44.0</ele><time>2022-10-30T16:08:02.0000000+00:00</time></trkpt><trkpt lat="39.48304374" lon="-0.36655052"><ele>-44.0</ele><time>2022-10-30T16:08:03.0000000+00:00</time></trkpt><trkpt lat="39.48304382" lon="-0.3665506"><ele>-44.0</ele><time>2022-10-30T16:08:04.0000000+00:00</time></trkpt><trkpt lat="39.48304391" lon="-0.3665506"><ele>-44.0</ele><time>2022-10-30T16:08:05.0000000+00:00</time></trkpt><trkpt lat="39.48304399" lon="-0.36655052"><ele>-44.0</ele><time>2022-10-30T16:08:06.0000000+00:00</time></trkpt><trkpt lat="39.48304407" lon="-0.36655043"><ele>-44.0</ele><time>2022-10-30T16:08:07.0000000+00:00</time></trkpt><trkpt lat="39.48304407" lon="-0.36655043"><ele>-44.0</ele><time>2022-10-30T16:08:08.0000000+00:00</time></trkpt><trkpt lat="39.48304416" lon="-0.36655035"><ele>-44.0</ele><time>2022-10-30T16:08:09.0000000+00:00</time></trkpt><trkpt lat="39.48304416" lon="-0.36655035"><ele>-44.0</ele><time>2022-10-30T16:08:10.0000000+00:00</time></trkpt><trkpt lat="39.48304407" lon="-0.36655027"><ele>-44.0</ele><time>2022-10-30T16:08:11.0000000+00:00</time></trkpt><trkpt lat="39.48304399" lon="-0.36655027"><ele>-44.0</ele><time>2022-10-30T16:08:12.0000000+00:00</time></trkpt><trkpt lat="39.48304399" lon="-0.36655027"><ele>-44.0</ele><time>2022-10-30T16:08:13.0000000+00:00</time></trkpt><trkpt lat="39.48304407" lon="-0.36655018"><ele>-44.0</ele><time>2022-10-30T16:08:14.0000000+00:00</time></trkpt><trkpt lat="39.48304407" lon="-0.36655018"><ele>-44.0</ele><time>2022-10-30T16:08:15.0000000+00:00</time></trkpt><trkpt lat="39.48304407" lon="-0.36655018"><ele>-44.0</ele><time>2022-10-30T16:08:16.0000000+00:00</time></trkpt><trkpt lat="39.48304407" lon="-0.36655018"><ele>-44.0</ele><time>2022-10-30T16:08:17.0000000+00:00</time></trkpt><trkpt lat="39.48304407" lon="-0.3665501"><ele>-44.0</ele><time>2022-10-30T16:08:18.0000000+00:00</time></trkpt><trkpt lat="39.48304399" lon="-0.36655001"><ele>-44.0</ele><time>2022-10-30T16:08:19.0000000+00:00</time></trkpt><trkpt lat="39.48304399" lon="-0.36655001"><ele>-44.0</ele><time>2022-10-30T16:08:20.0000000+00:00</time></trkpt><trkpt lat="39.48304399" lon="-0.36654993"><ele>-44.0</ele><time>2022-10-30T16:08:21.0000000+00:00</time></trkpt><trkpt lat="39.48304399" lon="-0.36655001"><ele>-44.0</ele><time>2022-10-30T16:08:22.0000000+00:00</time></trkpt><trkpt lat="39.48304399" lon="-0.36655001"><ele>-44.0</ele><time>2022-10-30T16:08:23.0000000+00:00</time></trkpt><trkpt lat="39.48304399" lon="-0.36655001"><ele>-44.0</ele><time>2022-10-30T16:08:24.0000000+00:00</time></trkpt><trkpt lat="39.48304399" lon="-0.36655001"><ele>-44.0</ele><time>2022-10-30T16:08:25.0000000+00:00</time></trkpt><trkpt lat="39.48304407" lon="-0.36654993"><ele>-44.0</ele><time>2022-10-30T16:08:26.0000000+00:00</time></trkpt><trkpt lat="39.48304416" lon="-0.36654985"><ele>-44.0</ele><time>2022-10-30T16:08:27.0000000+00:00</time></trkpt><trkpt lat="39.48304424" lon="-0.36654976"><ele>-44.0</ele><time>2022-10-30T16:08:28.0000000+00:00</time></trkpt><trkpt lat="39.48304432" lon="-0.36654976"><ele>-44.0</ele><time>2022-10-30T16:08:29.0000000+00:00</time></trkpt><trkpt lat="39.48304432" lon="-0.36654968"><ele>-44.0</ele><time>2022-10-30T16:08:30.0000000+00:00</time></trkpt><trkpt lat="39.48304441" lon="-0.36654959"><ele>-44.0</ele><time>2022-10-30T16:08:31.0000000+00:00</time></trkpt><trkpt lat="39.48304449" lon="-0.36654959"><ele>-44.0</ele><time>2022-10-30T16:08:32.0000000+00:00</time></trkpt><trkpt lat="39.48304458" lon="-0.36654951"><ele>-44.0</ele><time>2022-10-30T16:08:33.0000000+00:00</time></trkpt><trkpt lat="39.48304466" lon="-0.36654951"><ele>-44.0</ele><time>2022-10-30T16:08:34.0000000+00:00</time></trkpt><trkpt lat="39.48304474" lon="-0.36654951"><ele>-44.0</ele><time>2022-10-30T16:08:35.0000000+00:00</time></trkpt><trkpt lat="39.48304474" lon="-0.36654951"><ele>-44.0</ele><time>2022-10-30T16:08:36.0000000+00:00</time></trkpt><trkpt lat="39.48304474" lon="-0.36654943"><ele>-44.0</ele><time>2022-10-30T16:08:37.0000000+00:00</time></trkpt><trkpt lat="39.48304474" lon="-0.36654943"><ele>-44.0</ele><time>2022-10-30T16:08:38.0000000+00:00</time></trkpt><trkpt lat="39.48304474" lon="-0.36654943"><ele>-44.0</ele><time>2022-10-30T16:08:39.0000000+00:00</time></trkpt><trkpt lat="39.48304474" lon="-0.36654943"><ele>-44.0</ele><time>2022-10-30T16:08:40.0000000+00:00</time></trkpt><trkpt lat="39.48304474" lon="-0.36654951"><ele>-44.0</ele><time>2022-10-30T16:08:41.0000000+00:00</time></trkpt><trkpt lat="39.48304474" lon="-0.36654951"><ele>-44.0</ele><time>2022-10-30T16:08:42.0000000+00:00</time></trkpt><trkpt lat="39.48304474" lon="-0.36654959"><ele>-44.0</ele><time>2022-10-30T16:08:43.0000000+00:00</time></trkpt><trkpt lat="39.48304474" lon="-0.36654959"><ele>-44.0</ele><time>2022-10-30T16:08:44.0000000+00:00</time></trkpt><trkpt lat="39.48304483" lon="-0.36654968"><ele>-44.0</ele><time>2022-10-30T16:08:45.0000000+00:00</time></trkpt><trkpt lat="39.48304491" lon="-0.36654959"><ele>-44.0</ele><time>2022-10-30T16:08:46.0000000+00:00</time></trkpt><trkpt lat="39.483045" lon="-0.36654959"><ele>-44.0</ele><time>2022-10-30T16:08:47.0000000+00:00</time></trkpt><trkpt lat="39.483045" lon="-0.36654959"><ele>-44.0</ele><time>2022-10-30T16:08:48.0000000+00:00</time></trkpt><trkpt lat="39.483045" lon="-0.36654951"><ele>-44.0</ele><time>2022-10-30T16:08:49.0000000+00:00</time></trkpt><trkpt lat="39.48304491" lon="-0.36654943"><ele>-44.0</ele><time>2022-10-30T16:08:50.0000000+00:00</time></trkpt><trkpt lat="39.48304491" lon="-0.36654943"><ele>-44.0</ele><time>2022-10-30T16:08:51.0000000+00:00</time></trkpt><trkpt lat="39.48304491" lon="-0.36654934"><ele>-44.0</ele><time>2022-10-30T16:08:52.0000000+00:00</time></trkpt><trkpt lat="39.48304491" lon="-0.36654926"><ele>-44.0</ele><time>2022-10-30T16:08:53.0000000+00:00</time></trkpt><trkpt lat="39.48304491" lon="-0.36654926"><ele>-44.0</ele><time>2022-10-30T16:08:54.0000000+00:00</time></trkpt><trkpt lat="39.48304491" lon="-0.36654918"><ele>-44.0</ele><time>2022-10-30T16:08:55.0000000+00:00</time></trkpt><trkpt lat="39.48304483" lon="-0.36654926"><ele>-44.0</ele><time>2022-10-30T16:08:56.0000000+00:00</time></trkpt><trkpt lat="39.48304483" lon="-0.36654926"><ele>-44.0</ele><time>2022-10-30T16:08:57.0000000+00:00</time></trkpt><trkpt lat="39.48304474" lon="-0.36654918"><ele>-44.0</ele><time>2022-10-30T16:08:58.0000000+00:00</time></trkpt><trkpt lat="39.48304466" lon="-0.36654918"><ele>-44.0</ele><time>2022-10-30T16:08:59.0000000+00:00</time></trkpt><trkpt lat="39.48304466" lon="-0.36654918"><ele>-44.0</ele><time>2022-10-30T16:09:00.0000000+00:00</time></trkpt><trkpt lat="39.48304458" lon="-0.36654918"><ele>-44.0</ele><time>2022-10-30T16:09:01.0000000+00:00</time></trkpt><trkpt lat="39.48304458" lon="-0.36654909"><ele>-44.0</ele><time>2022-10-30T16:09:02.0000000+00:00</time></trkpt><trkpt lat="39.48304449" lon="-0.36654909"><ele>-44.0</ele><time>2022-10-30T16:09:03.0000000+00:00</time></trkpt><trkpt lat="39.48304441" lon="-0.36654918"><ele>-44.0</ele><time>2022-10-30T16:09:04.0000000+00:00</time></trkpt><trkpt lat="39.48304441" lon="-0.36654909"><ele>-44.0</ele><time>2022-10-30T16:09:05.0000000+00:00</time></trkpt><trkpt lat="39.48304432" lon="-0.36654909"><ele>-44.0</ele><time>2022-10-30T16:09:06.0000000+00:00</time></trkpt><trkpt lat="39.48304432" lon="-0.36654909"><ele>-44.0</ele><time>2022-10-30T16:09:07.0000000+00:00</time></trkpt><trkpt lat="39.48304432" lon="-0.36654909"><ele>-44.0</ele><time>2022-10-30T16:09:08.0000000+00:00</time></trkpt><trkpt lat="39.48304432" lon="-0.36654909"><ele>-44.0</ele><time>2022-10-30T16:09:09.0000000+00:00</time></trkpt><trkpt lat="39.48304432" lon="-0.36654901"><ele>-44.0</ele><time>2022-10-30T16:09:10.0000000+00:00</time></trkpt><trkpt lat="39.48304424" lon="-0.36654901"><ele>-44.0</ele><time>2022-10-30T16:09:11.0000000+00:00</time></trkpt><trkpt lat="39.48304432" lon="-0.36654901"><ele>-44.0</ele><time>2022-10-30T16:09:12.0000000+00:00</time></trkpt><trkpt lat="39.48304432" lon="-0.36654892"><ele>-44.0</ele><time>2022-10-30T16:09:13.0000000+00:00</time></trkpt><trkpt lat="39.48304432" lon="-0.36654892"><ele>-44.0</ele><time>2022-10-30T16:09:14.0000000+00:00</time></trkpt><trkpt lat="39.48304432" lon="-0.36654884"><ele>-44.0</ele><time>2022-10-30T16:09:15.0000000+00:00</time></trkpt><trkpt lat="39.48304441" lon="-0.36654884"><ele>-44.0</ele><time>2022-10-30T16:09:16.0000000+00:00</time></trkpt><trkpt lat="39.48304441" lon="-0.36654884"><ele>-44.0</ele><time>2022-10-30T16:09:17.0000000+00:00</time></trkpt><trkpt lat="39.48304449" lon="-0.36654876"><ele>-44.0</ele><time>2022-10-30T16:09:18.0000000+00:00</time></trkpt><trkpt lat="39.48304449" lon="-0.36654876"><ele>-44.0</ele><time>2022-10-30T16:09:19.0000000+00:00</time></trkpt><trkpt lat="39.48304458" lon="-0.36654867"><ele>-44.0</ele><time>2022-10-30T16:09:20.0000000+00:00</time></trkpt><trkpt lat="39.48304458" lon="-0.36654859"><ele>-44.0</ele><time>2022-10-30T16:09:21.0000000+00:00</time></trkpt><trkpt lat="39.48304466" lon="-0.36654859"><ele>-44.0</ele><time>2022-10-30T16:09:22.0000000+00:00</time></trkpt><trkpt lat="39.48304466" lon="-0.36654851"><ele>-44.0</ele><time>2022-10-30T16:09:23.0000000+00:00</time></trkpt><trkpt lat="39.48304466" lon="-0.36654851"><ele>-44.0</ele><time>2022-10-30T16:09:24.0000000+00:00</time></trkpt><trkpt lat="39.48304466" lon="-0.36654842"><ele>-44.0</ele><time>2022-10-30T16:09:25.0000000+00:00</time></trkpt><trkpt lat="39.48304474" lon="-0.36654834"><ele>-44.0</ele><time>2022-10-30T16:09:26.0000000+00:00</time></trkpt><trkpt lat="39.48304474" lon="-0.36654825"><ele>-44.0</ele><time>2022-10-30T16:09:27.0000000+00:00</time></trkpt><trkpt lat="39.48304474" lon="-0.36654825"><ele>-44.0</ele><time>2022-10-30T16:09:28.0000000+00:00</time></trkpt><trkpt lat="39.48304474" lon="-0.36654817"><ele>-44.0</ele><time>2022-10-30T16:09:29.0000000+00:00</time></trkpt><trkpt lat="39.48304483" lon="-0.36654809"><ele>-44.0</ele><time>2022-10-30T16:09:30.0000000+00:00</time></trkpt><trkpt lat="39.48304491" lon="-0.36654809"><ele>-44.0</ele><time>2022-10-30T16:09:31.0000000+00:00</time></trkpt><trkpt lat="39.483045" lon="-0.366548"><ele>-44.0</ele><time>2022-10-30T16:09:32.0000000+00:00</time></trkpt><trkpt lat="39.48304508" lon="-0.366548"><ele>-44.0</ele><time>2022-10-30T16:09:33.0000000+00:00</time></trkpt><trkpt lat="39.48304508" lon="-0.366548"><ele>-44.0</ele><time>2022-10-30T16:09:34.0000000+00:00</time></trkpt><trkpt lat="39.48304516" lon="-0.366548"><ele>-44.0</ele><time>2022-10-30T16:09:35.0000000+00:00</time></trkpt><trkpt lat="39.48304525" lon="-0.366548"><ele>-44.0</ele><time>2022-10-30T16:09:36.0000000+00:00</time></trkpt><trkpt lat="39.48304541" lon="-0.36654792"><ele>-44.0</ele><time>2022-10-30T16:09:37.0000000+00:00</time></trkpt><trkpt lat="39.48304541" lon="-0.366548"><ele>-44.0</ele><time>2022-10-30T16:09:38.0000000+00:00</time></trkpt><trkpt lat="39.48304541" lon="-0.36654792"><ele>-44.0</ele><time>2022-10-30T16:09:39.0000000+00:00</time></trkpt><trkpt lat="39.48304558" lon="-0.36654792"><ele>-44.0</ele><time>2022-10-30T16:09:40.0000000+00:00</time></trkpt><trkpt lat="39.48304567" lon="-0.36654792"><ele>-44.0</ele><time>2022-10-30T16:09:41.0000000+00:00</time></trkpt><trkpt lat="39.48304567" lon="-0.36654792"><ele>-44.0</ele><time>2022-10-30T16:09:42.0000000+00:00</time></trkpt><trkpt lat="39.48304575" lon="-0.36654783"><ele>-44.0</ele><time>2022-10-30T16:09:43.0000000+00:00</time></trkpt><trkpt lat="39.48304575" lon="-0.36654775"><ele>-44.0</ele><time>2022-10-30T16:09:44.0000000+00:00</time></trkpt><trkpt lat="39.48304575" lon="-0.36654775"><ele>-44.0</ele><time>2022-10-30T16:09:45.0000000+00:00</time></trkpt><trkpt lat="39.48304575" lon="-0.36654775"><ele>-44.0</ele><time>2022-10-30T16:09:46.0000000+00:00</time></trkpt><trkpt lat="39.48304575" lon="-0.36654775"><ele>-44.0</ele><time>2022-10-30T16:09:47.0000000+00:00</time></trkpt><trkpt lat="39.48304567" lon="-0.36654783"><ele>-44.0</ele><time>2022-10-30T16:09:48.0000000+00:00</time></trkpt><trkpt lat="39.48304567" lon="-0.36654775"><ele>-44.0</ele><time>2022-10-30T16:09:49.0000000+00:00</time></trkpt><trkpt lat="39.48304567" lon="-0.36654775"><ele>-44.0</ele><time>2022-10-30T16:09:50.0000000+00:00</time></trkpt><trkpt lat="39.48304567" lon="-0.36654767"><ele>-44.0</ele><time>2022-10-30T16:09:51.0000000+00:00</time></trkpt><trkpt lat="39.48304575" lon="-0.36654767"><ele>-44.0</ele><time>2022-10-30T16:09:52.0000000+00:00</time></trkpt><trkpt lat="39.48304575" lon="-0.36654758"><ele>-44.0</ele><time>2022-10-30T16:09:53.0000000+00:00</time></trkpt><trkpt lat="39.48304575" lon="-0.36654758"><ele>-44.0</ele><time>2022-10-30T16:09:54.0000000+00:00</time></trkpt><trkpt lat="39.48304575" lon="-0.36654758"><ele>-44.0</ele><time>2022-10-30T16:09:55.0000000+00:00</time></trkpt><trkpt lat="39.48304575" lon="-0.36654758"><ele>-44.0</ele><time>2022-10-30T16:09:56.0000000+00:00</time></trkpt><trkpt lat="39.48304575" lon="-0.3665475"><ele>-44.0</ele><time>2022-10-30T16:09:57.0000000+00:00</time></trkpt><trkpt lat="39.48304575" lon="-0.3665475"><ele>-44.0</ele><time>2022-10-30T16:09:58.0000000+00:00</time></trkpt><trkpt lat="39.48304583" lon="-0.3665475"><ele>-44.0</ele><time>2022-10-30T16:09:59.0000000+00:00</time></trkpt><trkpt lat="39.48304592" lon="-0.36654758"><ele>-44.0</ele><time>2022-10-30T16:10:00.0000000+00:00</time></trkpt><trkpt lat="39.48304592" lon="-0.36654758"><ele>-44.0</ele><time>2022-10-30T16:10:01.0000000+00:00</time></trkpt><trkpt lat="39.48304592" lon="-0.36654758"><ele>-44.0</ele><time>2022-10-30T16:10:02.0000000+00:00</time></trkpt><trkpt lat="39.48304592" lon="-0.36654758"><ele>-44.0</ele><time>2022-10-30T16:10:03.0000000+00:00</time></trkpt><trkpt lat="39.483046" lon="-0.3665475"><ele>-44.0</ele><time>2022-10-30T16:10:04.0000000+00:00</time></trkpt><trkpt lat="39.48304609" lon="-0.3665475"><ele>-44.0</ele><time>2022-10-30T16:10:05.0000000+00:00</time></trkpt><trkpt lat="39.48304609" lon="-0.36654742"><ele>-44.0</ele><time>2022-10-30T16:10:06.0000000+00:00</time></trkpt><trkpt lat="39.48304617" lon="-0.36654742"><ele>-44.0</ele><time>2022-10-30T16:10:07.0000000+00:00</time></trkpt><trkpt lat="39.48304617" lon="-0.36654742"><ele>-44.0</ele><time>2022-10-30T16:10:08.0000000+00:00</time></trkpt><trkpt lat="39.48304625" lon="-0.36654742"><ele>-44.0</ele><time>2022-10-30T16:10:09.0000000+00:00</time></trkpt><trkpt lat="39.48304634" lon="-0.36654742"><ele>-44.0</ele><time>2022-10-30T16:10:10.0000000+00:00</time></trkpt><trkpt lat="39.48304642" lon="-0.36654733"><ele>-44.0</ele><time>2022-10-30T16:10:11.0000000+00:00</time></trkpt><trkpt lat="39.4830465" lon="-0.36654733"><ele>-44.0</ele><time>2022-10-30T16:10:12.0000000+00:00</time></trkpt><trkpt lat="39.4830465" lon="-0.36654733"><ele>-44.0</ele><time>2022-10-30T16:10:13.0000000+00:00</time></trkpt><trkpt lat="39.48304659" lon="-0.36654733"><ele>-44.0</ele><time>2022-10-30T16:10:14.0000000+00:00</time></trkpt><trkpt lat="39.48304667" lon="-0.36654733"><ele>-44.0</ele><time>2022-10-30T16:10:15.0000000+00:00</time></trkpt><trkpt lat="39.48304667" lon="-0.36654725"><ele>-44.0</ele><time>2022-10-30T16:10:16.0000000+00:00</time></trkpt><trkpt lat="39.48304676" lon="-0.36654725"><ele>-44.0</ele><time>2022-10-30T16:10:17.0000000+00:00</time></trkpt><trkpt lat="39.48304676" lon="-0.36654725"><ele>-44.0</ele><time>2022-10-30T16:10:18.0000000+00:00</time></trkpt><trkpt lat="39.48304684" lon="-0.36654716"><ele>-44.0</ele><time>2022-10-30T16:10:19.0000000+00:00</time></trkpt><trkpt lat="39.48304684" lon="-0.36654716"><ele>-44.0</ele><time>2022-10-30T16:10:20.0000000+00:00</time></trkpt><trkpt lat="39.48304684" lon="-0.36654716"><ele>-44.0</ele><time>2022-10-30T16:10:21.0000000+00:00</time></trkpt><trkpt lat="39.48304684" lon="-0.36654716"><ele>-44.0</ele><time>2022-10-30T16:10:22.0000000+00:00</time></trkpt><trkpt lat="39.48304684" lon="-0.36654708"><ele>-44.0</ele><time>2022-10-30T16:10:23.0000000+00:00</time></trkpt><trkpt lat="39.48304692" lon="-0.36654708"><ele>-44.0</ele><time>2022-10-30T16:10:24.0000000+00:00</time></trkpt><trkpt lat="39.48304692" lon="-0.366547"><ele>-44.0</ele><time>2022-10-30T16:10:25.0000000+00:00</time></trkpt><trkpt lat="39.48304701" lon="-0.366547"><ele>-44.0</ele><time>2022-10-30T16:10:26.0000000+00:00</time></trkpt><trkpt lat="39.48304701" lon="-0.366547"><ele>-44.0</ele><time>2022-10-30T16:10:27.0000000+00:00</time></trkpt><trkpt lat="39.48304701" lon="-0.366547"><ele>-44.0</ele><time>2022-10-30T16:10:28.0000000+00:00</time></trkpt><trkpt lat="39.48304709" lon="-0.366547"><ele>-44.0</ele><time>2022-10-30T16:10:29.0000000+00:00</time></trkpt><trkpt lat="39.48304701" lon="-0.366547"><ele>-44.0</ele><time>2022-10-30T16:10:30.0000000+00:00</time></trkpt><trkpt lat="39.48304701" lon="-0.366547"><ele>-44.0</ele><time>2022-10-30T16:10:31.0000000+00:00</time></trkpt><trkpt lat="39.48304709" lon="-0.366547"><ele>-44.0</ele><time>2022-10-30T16:10:32.0000000+00:00</time></trkpt><trkpt lat="39.48304709" lon="-0.366547"><ele>-44.0</ele><time>2022-10-30T16:10:33.0000000+00:00</time></trkpt><trkpt lat="39.48304709" lon="-0.366547"><ele>-44.0</ele><time>2022-10-30T16:10:34.0000000+00:00</time></trkpt><trkpt lat="39.48304717" lon="-0.366547"><ele>-44.0</ele><time>2022-10-30T16:10:35.0000000+00:00</time></trkpt><trkpt lat="39.48304726" lon="-0.366547"><ele>-44.0</ele><time>2022-10-30T16:10:36.0000000+00:00</time></trkpt><trkpt lat="39.48304726" lon="-0.36654691"><ele>-44.0</ele><time>2022-10-30T16:10:37.0000000+00:00</time></trkpt><trkpt lat="39.48304726" lon="-0.36654691"><ele>-44.0</ele><time>2022-10-30T16:10:38.0000000+00:00</time></trkpt><trkpt lat="39.48304734" lon="-0.36654691"><ele>-44.0</ele><time>2022-10-30T16:10:39.0000000+00:00</time></trkpt><trkpt lat="39.48304734" lon="-0.36654691"><ele>-44.0</ele><time>2022-10-30T16:10:40.0000000+00:00</time></trkpt><trkpt lat="39.48304734" lon="-0.366547"><ele>-44.0</ele><time>2022-10-30T16:10:41.0000000+00:00</time></trkpt><trkpt lat="39.48304743" lon="-0.366547"><ele>-44.0</ele><time>2022-10-30T16:10:42.0000000+00:00</time></trkpt><trkpt lat="39.48304743" lon="-0.366547"><ele>-44.0</ele><time>2022-10-30T16:10:43.0000000+00:00</time></trkpt><trkpt lat="39.48304743" lon="-0.366547"><ele>-44.0</ele><time>2022-10-30T16:10:44.0000000+00:00</time></trkpt><trkpt lat="39.48304743" lon="-0.36654691"><ele>-44.0</ele><time>2022-10-30T16:10:45.0000000+00:00</time></trkpt><trkpt lat="39.48304743" lon="-0.36654691"><ele>-44.0</ele><time>2022-10-30T16:10:46.0000000+00:00</time></trkpt><trkpt lat="39.48304743" lon="-0.36654691"><ele>-44.0</ele><time>2022-10-30T16:10:47.0000000+00:00</time></trkpt><trkpt lat="39.48304734" lon="-0.36654691"><ele>-44.0</ele><time>2022-10-30T16:10:48.0000000+00:00</time></trkpt><trkpt lat="39.48304734" lon="-0.36654683"><ele>-44.0</ele><time>2022-10-30T16:10:49.0000000+00:00</time></trkpt><trkpt lat="39.48304734" lon="-0.36654683"><ele>-44.0</ele><time>2022-10-30T16:10:50.0000000+00:00</time></trkpt><trkpt lat="39.48304743" lon="-0.36654683"><ele>-44.0</ele><time>2022-10-30T16:10:51.0000000+00:00</time></trkpt><trkpt lat="39.48304743" lon="-0.36654683"><ele>-44.0</ele><time>2022-10-30T16:10:52.0000000+00:00</time></trkpt><trkpt lat="39.48304743" lon="-0.36654683"><ele>-44.0</ele><time>2022-10-30T16:10:53.0000000+00:00</time></trkpt><trkpt lat="39.48304743" lon="-0.36654683"><ele>-44.0</ele><time>2022-10-30T16:10:54.0000000+00:00</time></trkpt><trkpt lat="39.48304743" lon="-0.36654674"><ele>-44.0</ele><time>2022-10-30T16:10:55.0000000+00:00</time></trkpt><trkpt lat="39.48304743" lon="-0.36654674"><ele>-44.0</ele><time>2022-10-30T16:10:56.0000000+00:00</time></trkpt><trkpt lat="39.48304743" lon="-0.36654666"><ele>-44.0</ele><time>2022-10-30T16:10:57.0000000+00:00</time></trkpt><trkpt lat="39.48304743" lon="-0.36654658"><ele>-44.0</ele><time>2022-10-30T16:10:58.0000000+00:00</time></trkpt><trkpt lat="39.48304734" lon="-0.36654649"><ele>-44.0</ele><time>2022-10-30T16:10:59.0000000+00:00</time></trkpt><trkpt lat="39.48304734" lon="-0.36654641"><ele>-44.0</ele><time>2022-10-30T16:11:00.0000000+00:00</time></trkpt><trkpt lat="39.48304734" lon="-0.36654641"><ele>-44.0</ele><time>2022-10-30T16:11:01.0000000+00:00</time></trkpt><trkpt lat="39.48304734" lon="-0.36654641"><ele>-44.0</ele><time>2022-10-30T16:11:02.0000000+00:00</time></trkpt><trkpt lat="39.48304743" lon="-0.36654641"><ele>-44.0</ele><time>2022-10-30T16:11:03.0000000+00:00</time></trkpt><trkpt lat="39.48304743" lon="-0.36654641"><ele>-44.0</ele><time>2022-10-30T16:11:04.0000000+00:00</time></trkpt><trkpt lat="39.48304751" lon="-0.36654633"><ele>-44.0</ele><time>2022-10-30T16:11:05.0000000+00:00</time></trkpt><trkpt lat="39.48304751" lon="-0.36654633"><ele>-44.0</ele><time>2022-10-30T16:11:06.0000000+00:00</time></trkpt><trkpt lat="39.48304751" lon="-0.36654633"><ele>-44.0</ele><time>2022-10-30T16:11:07.0000000+00:00</time></trkpt><trkpt lat="39.48304759" lon="-0.36654633"><ele>-44.0</ele><time>2022-10-30T16:11:08.0000000+00:00</time></trkpt><trkpt lat="39.48304759" lon="-0.36654633"><ele>-44.0</ele><time>2022-10-30T16:11:09.0000000+00:00</time></trkpt><trkpt lat="39.48304768" lon="-0.36654633"><ele>-44.0</ele><time>2022-10-30T16:11:10.0000000+00:00</time></trkpt><trkpt lat="39.48304768" lon="-0.36654641"><ele>-44.0</ele><time>2022-10-30T16:11:11.0000000+00:00</time></trkpt><trkpt lat="39.48304776" lon="-0.36654641"><ele>-44.0</ele><time>2022-10-30T16:11:12.0000000+00:00</time></trkpt><trkpt lat="39.48304776" lon="-0.36654641"><ele>-44.0</ele><time>2022-10-30T16:11:13.0000000+00:00</time></trkpt><trkpt lat="39.48304785" lon="-0.36654649"><ele>-44.0</ele><time>2022-10-30T16:11:14.0000000+00:00</time></trkpt><trkpt lat="39.48304793" lon="-0.36654649"><ele>-44.0</ele><time>2022-10-30T16:11:15.0000000+00:00</time></trkpt><trkpt lat="39.48304793" lon="-0.36654649"><ele>-44.0</ele><time>2022-10-30T16:11:16.0000000+00:00</time></trkpt><trkpt lat="39.48304793" lon="-0.36654649"><ele>-44.0</ele><time>2022-10-30T16:11:17.0000000+00:00</time></trkpt><trkpt lat="39.48304793" lon="-0.36654641"><ele>-44.0</ele><time>2022-10-30T16:11:18.0000000+00:00</time></trkpt><trkpt lat="39.48304793" lon="-0.36654641"><ele>-44.0</ele><time>2022-10-30T16:11:19.0000000+00:00</time></trkpt><trkpt lat="39.48304793" lon="-0.36654641"><ele>-44.0</ele><time>2022-10-30T16:11:20.0000000+00:00</time></trkpt><trkpt lat="39.48304793" lon="-0.36654641"><ele>-44.0</ele><time>2022-10-30T16:11:21.0000000+00:00</time></trkpt><trkpt lat="39.48304793" lon="-0.36654641"><ele>-44.0</ele><time>2022-10-30T16:11:22.0000000+00:00</time></trkpt><trkpt lat="39.48304801" lon="-0.36654633"><ele>-44.0</ele><time>2022-10-30T16:11:23.0000000+00:00</time></trkpt><trkpt lat="39.48304801" lon="-0.36654641"><ele>-44.0</ele><time>2022-10-30T16:11:24.0000000+00:00</time></trkpt><trkpt lat="39.48304801" lon="-0.36654641"><ele>-44.0</ele><time>2022-10-30T16:11:25.0000000+00:00</time></trkpt><trkpt lat="39.48304801" lon="-0.36654641"><ele>-44.0</ele><time>2022-10-30T16:11:26.0000000+00:00</time></trkpt><trkpt lat="39.48304801" lon="-0.36654641"><ele>-44.0</ele><time>2022-10-30T16:11:27.0000000+00:00</time></trkpt><trkpt lat="39.4830481" lon="-0.36654641"><ele>-44.0</ele><time>2022-10-30T16:11:28.0000000+00:00</time></trkpt><trkpt lat="39.4830481" lon="-0.36654649"><ele>-44.0</ele><time>2022-10-30T16:11:29.0000000+00:00</time></trkpt><trkpt lat="39.4830481" lon="-0.36654649"><ele>-44.0</ele><time>2022-10-30T16:11:30.0000000+00:00</time></trkpt><trkpt lat="39.4830481" lon="-0.36654649"><ele>-44.0</ele><time>2022-10-30T16:11:31.0000000+00:00</time></trkpt><trkpt lat="39.48304818" lon="-0.36654649"><ele>-44.0</ele><time>2022-10-30T16:11:32.0000000+00:00</time></trkpt><trkpt lat="39.48304818" lon="-0.36654658"><ele>-44.0</ele><time>2022-10-30T16:11:33.0000000+00:00</time></trkpt><trkpt lat="39.48304818" lon="-0.36654658"><ele>-44.0</ele><time>2022-10-30T16:11:34.0000000+00:00</time></trkpt><trkpt lat="39.48304818" lon="-0.36654658"><ele>-44.0</ele><time>2022-10-30T16:11:35.0000000+00:00</time></trkpt><trkpt lat="39.48304818" lon="-0.36654658"><ele>-44.0</ele><time>2022-10-30T16:11:36.0000000+00:00</time></trkpt><trkpt lat="39.4830481" lon="-0.36654649"><ele>-44.0</ele><time>2022-10-30T16:11:37.0000000+00:00</time></trkpt><trkpt lat="39.4830481" lon="-0.36654649"><ele>-44.0</ele><time>2022-10-30T16:11:38.0000000+00:00</time></trkpt><trkpt lat="39.48304818" lon="-0.36654649"><ele>-44.0</ele><time>2022-10-30T16:11:39.0000000+00:00</time></trkpt><trkpt lat="39.48304818" lon="-0.36654649"><ele>-44.0</ele><time>2022-10-30T16:11:40.0000000+00:00</time></trkpt><trkpt lat="39.4830481" lon="-0.36654649"><ele>-44.0</ele><time>2022-10-30T16:11:41.0000000+00:00</time></trkpt><trkpt lat="39.4830481" lon="-0.36654649"><ele>-44.0</ele><time>2022-10-30T16:11:42.0000000+00:00</time></trkpt><trkpt lat="39.4830481" lon="-0.36654658"><ele>-44.0</ele><time>2022-10-30T16:11:43.0000000+00:00</time></trkpt><trkpt lat="39.48304818" lon="-0.36654658"><ele>-44.0</ele><time>2022-10-30T16:11:44.0000000+00:00</time></trkpt><trkpt lat="39.48304818" lon="-0.36654658"><ele>-44.0</ele><time>2022-10-30T16:11:45.0000000+00:00</time></trkpt><trkpt lat="39.48304826" lon="-0.36654649"><ele>-44.0</ele><time>2022-10-30T16:11:46.0000000+00:00</time></trkpt><trkpt lat="39.48304826" lon="-0.36654649"><ele>-44.0</ele><time>2022-10-30T16:11:47.0000000+00:00</time></trkpt><trkpt lat="39.48304826" lon="-0.36654649"><ele>-44.0</ele><time>2022-10-30T16:11:48.0000000+00:00</time></trkpt><trkpt lat="39.48304826" lon="-0.36654658"><ele>-44.0</ele><time>2022-10-30T16:11:49.0000000+00:00</time></trkpt><trkpt lat="39.48304826" lon="-0.36654666"><ele>-44.0</ele><time>2022-10-30T16:11:50.0000000+00:00</time></trkpt><trkpt lat="39.48304835" lon="-0.36654666"><ele>-44.0</ele><time>2022-10-30T16:11:51.0000000+00:00</time></trkpt><trkpt lat="39.48304835" lon="-0.36654666"><ele>-44.0</ele><time>2022-10-30T16:11:52.0000000+00:00</time></trkpt><trkpt lat="39.48304835" lon="-0.36654666"><ele>-44.0</ele><time>2022-10-30T16:11:53.0000000+00:00</time></trkpt><trkpt lat="39.48304835" lon="-0.36654666"><ele>-44.0</ele><time>2022-10-30T16:11:54.0000000+00:00</time></trkpt><trkpt lat="39.48304835" lon="-0.36654674"><ele>-44.0</ele><time>2022-10-30T16:11:55.0000000+00:00</time></trkpt><trkpt lat="39.48304835" lon="-0.36654674"><ele>-44.0</ele><time>2022-10-30T16:11:56.0000000+00:00</time></trkpt><trkpt lat="39.48304835" lon="-0.36654674"><ele>-44.0</ele><time>2022-10-30T16:11:57.0000000+00:00</time></trkpt><trkpt lat="39.48304843" lon="-0.36654674"><ele>-44.0</ele><time>2022-10-30T16:11:58.0000000+00:00</time></trkpt><trkpt lat="39.48304843" lon="-0.36654674"><ele>-44.0</ele><time>2022-10-30T16:11:59.0000000+00:00</time></trkpt><trkpt lat="39.48304843" lon="-0.36654666"><ele>-44.0</ele><time>2022-10-30T16:12:00.0000000+00:00</time></trkpt><trkpt lat="39.48304843" lon="-0.36654666"><ele>-44.0</ele><time>2022-10-30T16:12:01.0000000+00:00</time></trkpt><trkpt lat="39.48304843" lon="-0.36654658"><ele>-44.0</ele><time>2022-10-30T16:12:02.0000000+00:00</time></trkpt><trkpt lat="39.48304835" lon="-0.36654658"><ele>-44.0</ele><time>2022-10-30T16:12:03.0000000+00:00</time></trkpt><trkpt lat="39.48304843" lon="-0.36654658"><ele>-44.0</ele><time>2022-10-30T16:12:04.0000000+00:00</time></trkpt><trkpt lat="39.48304843" lon="-0.36654649"><ele>-44.0</ele><time>2022-10-30T16:12:05.0000000+00:00</time></trkpt><trkpt lat="39.48304835" lon="-0.36654649"><ele>-44.0</ele><time>2022-10-30T16:12:06.0000000+00:00</time></trkpt><trkpt lat="39.48304843" lon="-0.36654649"><ele>-44.0</ele><time>2022-10-30T16:12:07.0000000+00:00</time></trkpt><trkpt lat="39.48304843" lon="-0.36654649"><ele>-44.0</ele><time>2022-10-30T16:12:08.0000000+00:00</time></trkpt><trkpt lat="39.48304843" lon="-0.36654649"><ele>-44.0</ele><time>2022-10-30T16:12:09.0000000+00:00</time></trkpt><trkpt lat="39.48304852" lon="-0.36654649"><ele>-44.0</ele><time>2022-10-30T16:12:10.0000000+00:00</time></trkpt><trkpt lat="39.48304852" lon="-0.36654649"><ele>-44.0</ele><time>2022-10-30T16:12:11.0000000+00:00</time></trkpt><trkpt lat="39.48304852" lon="-0.36654649"><ele>-44.0</ele><time>2022-10-30T16:12:12.0000000+00:00</time></trkpt><trkpt lat="39.48304852" lon="-0.36654649"><ele>-44.0</ele><time>2022-10-30T16:12:13.0000000+00:00</time></trkpt><trkpt lat="39.48304852" lon="-0.36654649"><ele>-44.0</ele><time>2022-10-30T16:12:14.0000000+00:00</time></trkpt><trkpt lat="39.48304852" lon="-0.36654641"><ele>-44.0</ele><time>2022-10-30T16:12:15.0000000+00:00</time></trkpt><trkpt lat="39.4830486" lon="-0.36654641"><ele>-44.0</ele><time>2022-10-30T16:12:16.0000000+00:00</time></trkpt><trkpt lat="39.48304852" lon="-0.36654641"><ele>-44.0</ele><time>2022-10-30T16:12:17.0000000+00:00</time></trkpt><trkpt lat="39.4830486" lon="-0.36654633"><ele>-44.0</ele><time>2022-10-30T16:12:18.0000000+00:00</time></trkpt><trkpt lat="39.48304852" lon="-0.36654633"><ele>-44.0</ele><time>2022-10-30T16:12:19.0000000+00:00</time></trkpt><trkpt lat="39.48304852" lon="-0.36654624"><ele>-44.0</ele><time>2022-10-30T16:12:20.0000000+00:00</time></trkpt><trkpt lat="39.4830486" lon="-0.36654624"><ele>-44.0</ele><time>2022-10-30T16:12:21.0000000+00:00</time></trkpt><trkpt lat="39.4830486" lon="-0.36654624"><ele>-44.0</ele><time>2022-10-30T16:12:22.0000000+00:00</time></trkpt><trkpt lat="39.48304868" lon="-0.36654624"><ele>-44.0</ele><time>2022-10-30T16:12:23.0000000+00:00</time></trkpt><trkpt lat="39.48304868" lon="-0.36654624"><ele>-44.0</ele><time>2022-10-30T16:12:24.0000000+00:00</time></trkpt><trkpt lat="39.48304868" lon="-0.36654633"><ele>-44.0</ele><time>2022-10-30T16:12:25.0000000+00:00</time></trkpt><trkpt lat="39.48304877" lon="-0.36654633"><ele>-44.0</ele><time>2022-10-30T16:12:26.0000000+00:00</time></trkpt><trkpt lat="39.48304877" lon="-0.36654641"><ele>-44.0</ele><time>2022-10-30T16:12:27.0000000+00:00</time></trkpt><trkpt lat="39.48304885" lon="-0.36654649"><ele>-44.0</ele><time>2022-10-30T16:12:28.0000000+00:00</time></trkpt><trkpt lat="39.48304893" lon="-0.36654658"><ele>-44.0</ele><time>2022-10-30T16:12:29.0000000+00:00</time></trkpt><trkpt lat="39.48304893" lon="-0.36654666"><ele>-44.0</ele><time>2022-10-30T16:12:30.0000000+00:00</time></trkpt><trkpt lat="39.48304902" lon="-0.36654666"><ele>-44.0</ele><time>2022-10-30T16:12:31.0000000+00:00</time></trkpt><trkpt lat="39.48304902" lon="-0.36654674"><ele>-44.0</ele><time>2022-10-30T16:12:32.0000000+00:00</time></trkpt><trkpt lat="39.48304902" lon="-0.36654666"><ele>-44.0</ele><time>2022-10-30T16:12:33.0000000+00:00</time></trkpt><trkpt lat="39.48304902" lon="-0.36654666"><ele>-44.0</ele><time>2022-10-30T16:12:34.0000000+00:00</time></trkpt><trkpt lat="39.48304902" lon="-0.36654666"><ele>-44.0</ele><time>2022-10-30T16:12:35.0000000+00:00</time></trkpt><trkpt lat="39.4830491" lon="-0.36654666"><ele>-44.0</ele><time>2022-10-30T16:12:36.0000000+00:00</time></trkpt><trkpt lat="39.4830491" lon="-0.36654674"><ele>-44.0</ele><time>2022-10-30T16:12:37.0000000+00:00</time></trkpt><trkpt lat="39.4830491" lon="-0.36654674"><ele>-44.0</ele><time>2022-10-30T16:12:38.0000000+00:00</time></trkpt><trkpt lat="39.48304919" lon="-0.36654674"><ele>-44.0</ele><time>2022-10-30T16:12:39.0000000+00:00</time></trkpt><trkpt lat="39.48304919" lon="-0.36654674"><ele>-44.0</ele><time>2022-10-30T16:12:40.0000000+00:00</time></trkpt><trkpt lat="39.48304919" lon="-0.36654674"><ele>-44.0</ele><time>2022-10-30T16:12:41.0000000+00:00</time></trkpt><trkpt lat="39.48304927" lon="-0.36654674"><ele>-44.0</ele><time>2022-10-30T16:12:42.0000000+00:00</time></trkpt><trkpt lat="39.48304927" lon="-0.36654674"><ele>-44.0</ele><time>2022-10-30T16:12:43.0000000+00:00</time></trkpt><trkpt lat="39.48304935" lon="-0.36654683"><ele>-44.0</ele><time>2022-10-30T16:12:44.0000000+00:00</time></trkpt><trkpt lat="39.48304935" lon="-0.36654683"><ele>-44.0</ele><time>2022-10-30T16:12:45.0000000+00:00</time></trkpt><trkpt lat="39.48304944" lon="-0.36654691"><ele>-44.0</ele><time>2022-10-30T16:12:46.0000000+00:00</time></trkpt><trkpt lat="39.48304944" lon="-0.36654691"><ele>-44.0</ele><time>2022-10-30T16:12:47.0000000+00:00</time></trkpt><trkpt lat="39.48304944" lon="-0.36654691"><ele>-44.0</ele><time>2022-10-30T16:12:48.0000000+00:00</time></trkpt><trkpt lat="39.48304944" lon="-0.36654691"><ele>-44.0</ele><time>2022-10-30T16:12:49.0000000+00:00</time></trkpt><trkpt lat="39.48304944" lon="-0.36654691"><ele>-44.0</ele><time>2022-10-30T16:12:50.0000000+00:00</time></trkpt><trkpt lat="39.48304944" lon="-0.36654691"><ele>-44.0</ele><time>2022-10-30T16:12:51.0000000+00:00</time></trkpt><trkpt lat="39.48304944" lon="-0.36654691"><ele>-44.0</ele><time>2022-10-30T16:12:52.0000000+00:00</time></trkpt><trkpt lat="39.48304944" lon="-0.36654691"><ele>-44.0</ele><time>2022-10-30T16:12:53.0000000+00:00</time></trkpt><trkpt lat="39.48304944" lon="-0.366547"><ele>-44.0</ele><time>2022-10-30T16:12:54.0000000+00:00</time></trkpt><trkpt lat="39.48304952" lon="-0.366547"><ele>-44.0</ele><time>2022-10-30T16:12:55.0000000+00:00</time></trkpt><trkpt lat="39.48304952" lon="-0.366547"><ele>-44.0</ele><time>2022-10-30T16:12:56.0000000+00:00</time></trkpt><trkpt lat="39.48304952" lon="-0.366547"><ele>-44.0</ele><time>2022-10-30T16:12:57.0000000+00:00</time></trkpt><trkpt lat="39.48304952" lon="-0.36654691"><ele>-44.0</ele><time>2022-10-30T16:12:58.0000000+00:00</time></trkpt><trkpt lat="39.48304952" lon="-0.36654691"><ele>-44.0</ele><time>2022-10-30T16:12:59.0000000+00:00</time></trkpt><trkpt lat="39.48304952" lon="-0.36654683"><ele>-44.0</ele><time>2022-10-30T16:13:00.0000000+00:00</time></trkpt><trkpt lat="39.48304952" lon="-0.36654683"><ele>-44.0</ele><time>2022-10-30T16:13:01.0000000+00:00</time></trkpt><trkpt lat="39.48304952" lon="-0.36654683"><ele>-44.0</ele><time>2022-10-30T16:13:02.0000000+00:00</time></trkpt><trkpt lat="39.48304952" lon="-0.36654683"><ele>-44.0</ele><time>2022-10-30T16:13:03.0000000+00:00</time></trkpt><trkpt lat="39.48304952" lon="-0.36654691"><ele>-44.0</ele><time>2022-10-30T16:13:04.0000000+00:00</time></trkpt><trkpt lat="39.48304961" lon="-0.36654691"><ele>-44.0</ele><time>2022-10-30T16:13:05.0000000+00:00</time></trkpt><trkpt lat="39.48304961" lon="-0.36654691"><ele>-44.0</ele><time>2022-10-30T16:13:06.0000000+00:00</time></trkpt><trkpt lat="39.48304961" lon="-0.36654691"><ele>-44.0</ele><time>2022-10-30T16:13:07.0000000+00:00</time></trkpt><trkpt lat="39.48304961" lon="-0.36654691"><ele>-44.0</ele><time>2022-10-30T16:13:08.0000000+00:00</time></trkpt><trkpt lat="39.48304969" lon="-0.366547"><ele>-44.0</ele><time>2022-10-30T16:13:09.0000000+00:00</time></trkpt><trkpt lat="39.48304969" lon="-0.366547"><ele>-44.0</ele><time>2022-10-30T16:13:10.0000000+00:00</time></trkpt><trkpt lat="39.48304977" lon="-0.366547"><ele>-44.0</ele><time>2022-10-30T16:13:11.0000000+00:00</time></trkpt><trkpt lat="39.48304977" lon="-0.36654708"><ele>-44.0</ele><time>2022-10-30T16:13:12.0000000+00:00</time></trkpt><trkpt lat="39.48304986" lon="-0.36654708"><ele>-44.0</ele><time>2022-10-30T16:13:13.0000000+00:00</time></trkpt><trkpt lat="39.48304994" lon="-0.36654716"><ele>-44.0</ele><time>2022-10-30T16:13:14.0000000+00:00</time></trkpt><trkpt lat="39.48305002" lon="-0.36654716"><ele>-44.0</ele><time>2022-10-30T16:13:15.0000000+00:00</time></trkpt><trkpt lat="39.48305002" lon="-0.36654725"><ele>-44.0</ele><time>2022-10-30T16:13:16.0000000+00:00</time></trkpt><trkpt lat="39.48305011" lon="-0.36654725"><ele>-44.0</ele><time>2022-10-30T16:13:17.0000000+00:00</time></trkpt><trkpt lat="39.48305011" lon="-0.36654725"><ele>-44.0</ele><time>2022-10-30T16:13:18.0000000+00:00</time></trkpt><trkpt lat="39.48305019" lon="-0.36654725"><ele>-44.0</ele><time>2022-10-30T16:13:19.0000000+00:00</time></trkpt><trkpt lat="39.48305028" lon="-0.36654725"><ele>-44.0</ele><time>2022-10-30T16:13:20.0000000+00:00</time></trkpt><trkpt lat="39.48305028" lon="-0.36654733"><ele>-44.0</ele><time>2022-10-30T16:13:21.0000000+00:00</time></trkpt><trkpt lat="39.48305036" lon="-0.36654742"><ele>-44.0</ele><time>2022-10-30T16:13:22.0000000+00:00</time></trkpt><trkpt lat="39.48305044" lon="-0.36654742"><ele>-44.0</ele><time>2022-10-30T16:13:23.0000000+00:00</time></trkpt><trkpt lat="39.48305044" lon="-0.36654733"><ele>-44.0</ele><time>2022-10-30T16:13:24.0000000+00:00</time></trkpt><trkpt lat="39.48305044" lon="-0.36654733"><ele>-44.0</ele><time>2022-10-30T16:13:25.0000000+00:00</time></trkpt><trkpt lat="39.48305044" lon="-0.36654733"><ele>-44.0</ele><time>2022-10-30T16:13:26.0000000+00:00</time></trkpt><trkpt lat="39.48305053" lon="-0.36654733"><ele>-44.0</ele><time>2022-10-30T16:13:27.0000000+00:00</time></trkpt><trkpt lat="39.48305053" lon="-0.36654733"><ele>-44.0</ele><time>2022-10-30T16:13:28.0000000+00:00</time></trkpt><trkpt lat="39.48305053" lon="-0.36654733"><ele>-44.0</ele><time>2022-10-30T16:13:29.0000000+00:00</time></trkpt><trkpt lat="39.48305061" lon="-0.36654742"><ele>-44.0</ele><time>2022-10-30T16:13:30.0000000+00:00</time></trkpt><trkpt lat="39.48305061" lon="-0.36654742"><ele>-44.0</ele><time>2022-10-30T16:13:31.0000000+00:00</time></trkpt><trkpt lat="39.48305061" lon="-0.36654742"><ele>-44.0</ele><time>2022-10-30T16:13:32.0000000+00:00</time></trkpt><trkpt lat="39.48305061" lon="-0.36654742"><ele>-44.0</ele><time>2022-10-30T16:13:33.0000000+00:00</time></trkpt><trkpt lat="39.4830507" lon="-0.36654742"><ele>-44.0</ele><time>2022-10-30T16:13:34.0000000+00:00</time></trkpt><trkpt lat="39.4830507" lon="-0.36654742"><ele>-44.0</ele><time>2022-10-30T16:13:35.0000000+00:00</time></trkpt><trkpt lat="39.48305078" lon="-0.36654742"><ele>-44.0</ele><time>2022-10-30T16:13:36.0000000+00:00</time></trkpt><trkpt lat="39.48305086" lon="-0.3665475"><ele>-44.0</ele><time>2022-10-30T16:13:37.0000000+00:00</time></trkpt><trkpt lat="39.48305086" lon="-0.3665475"><ele>-44.0</ele><time>2022-10-30T16:13:38.0000000+00:00</time></trkpt><trkpt lat="39.48305103" lon="-0.3665475"><ele>-44.0</ele><time>2022-10-30T16:13:39.0000000+00:00</time></trkpt><trkpt lat="39.48305103" lon="-0.3665475"><ele>-44.0</ele><time>2022-10-30T16:13:40.0000000+00:00</time></trkpt><trkpt lat="39.48305103" lon="-0.3665475"><ele>-44.0</ele><time>2022-10-30T16:13:41.0000000+00:00</time></trkpt><trkpt lat="39.48305111" lon="-0.3665475"><ele>-44.0</ele><time>2022-10-30T16:13:42.0000000+00:00</time></trkpt><trkpt lat="39.48305111" lon="-0.3665475"><ele>-44.0</ele><time>2022-10-30T16:13:43.0000000+00:00</time></trkpt><trkpt lat="39.4830512" lon="-0.36654758"><ele>-44.0</ele><time>2022-10-30T16:13:44.0000000+00:00</time></trkpt><trkpt lat="39.48305128" lon="-0.36654758"><ele>-44.0</ele><time>2022-10-30T16:13:45.0000000+00:00</time></trkpt><trkpt lat="39.48305128" lon="-0.36654758"><ele>-44.0</ele><time>2022-10-30T16:13:46.0000000+00:00</time></trkpt><trkpt lat="39.48305137" lon="-0.36654767"><ele>-44.0</ele><time>2022-10-30T16:13:47.0000000+00:00</time></trkpt><trkpt lat="39.48305137" lon="-0.36654767"><ele>-44.0</ele><time>2022-10-30T16:13:48.0000000+00:00</time></trkpt><trkpt lat="39.48305145" lon="-0.36654767"><ele>-44.0</ele><time>2022-10-30T16:13:49.0000000+00:00</time></trkpt><trkpt lat="39.48305153" lon="-0.36654775"><ele>-44.0</ele><time>2022-10-30T16:13:50.0000000+00:00</time></trkpt><trkpt lat="39.48305153" lon="-0.36654767"><ele>-44.0</ele><time>2022-10-30T16:13:51.0000000+00:00</time></trkpt><trkpt lat="39.48305153" lon="-0.36654767"><ele>-44.0</ele><time>2022-10-30T16:13:52.0000000+00:00</time></trkpt><trkpt lat="39.48305153" lon="-0.36654767"><ele>-44.0</ele><time>2022-10-30T16:13:53.0000000+00:00</time></trkpt><trkpt lat="39.48305162" lon="-0.36654767"><ele>-44.0</ele><time>2022-10-30T16:13:54.0000000+00:00</time></trkpt><trkpt lat="39.48305162" lon="-0.36654767"><ele>-44.0</ele><time>2022-10-30T16:13:55.0000000+00:00</time></trkpt><trkpt lat="39.48305162" lon="-0.36654758"><ele>-44.0</ele><time>2022-10-30T16:13:56.0000000+00:00</time></trkpt><trkpt lat="39.4830517" lon="-0.36654758"><ele>-44.0</ele><time>2022-10-30T16:13:57.0000000+00:00</time></trkpt><trkpt lat="39.4830517" lon="-0.3665475"><ele>-44.0</ele><time>2022-10-30T16:13:58.0000000+00:00</time></trkpt><trkpt lat="39.48305162" lon="-0.3665475"><ele>-44.0</ele><time>2022-10-30T16:13:59.0000000+00:00</time></trkpt><trkpt lat="39.48305162" lon="-0.36654742"><ele>-44.0</ele><time>2022-10-30T16:14:00.0000000+00:00</time></trkpt><trkpt lat="39.4830517" lon="-0.36654742"><ele>-44.0</ele><time>2022-10-30T16:14:01.0000000+00:00</time></trkpt><trkpt lat="39.4830517" lon="-0.36654742"><ele>-44.0</ele><time>2022-10-30T16:14:02.0000000+00:00</time></trkpt><trkpt lat="39.4830517" lon="-0.36654742"><ele>-44.0</ele><time>2022-10-30T16:14:03.0000000+00:00</time></trkpt><trkpt lat="39.4830517" lon="-0.36654742"><ele>-44.0</ele><time>2022-10-30T16:14:04.0000000+00:00</time></trkpt><trkpt lat="39.4830517" lon="-0.36654742"><ele>-44.0</ele><time>2022-10-30T16:14:05.0000000+00:00</time></trkpt><trkpt lat="39.48305178" lon="-0.36654733"><ele>-44.0</ele><time>2022-10-30T16:14:06.0000000+00:00</time></trkpt><trkpt lat="39.48305178" lon="-0.36654733"><ele>-44.0</ele><time>2022-10-30T16:14:07.0000000+00:00</time></trkpt><trkpt lat="39.48305178" lon="-0.36654725"><ele>-44.0</ele><time>2022-10-30T16:14:08.0000000+00:00</time></trkpt><trkpt lat="39.48305178" lon="-0.36654716"><ele>-44.0</ele><time>2022-10-30T16:14:09.0000000+00:00</time></trkpt><trkpt lat="39.48305178" lon="-0.36654716"><ele>-44.0</ele><time>2022-10-30T16:14:10.0000000+00:00</time></trkpt><trkpt lat="39.48305178" lon="-0.36654708"><ele>-44.0</ele><time>2022-10-30T16:14:11.0000000+00:00</time></trkpt><trkpt lat="39.48305178" lon="-0.36654708"><ele>-44.0</ele><time>2022-10-30T16:14:12.0000000+00:00</time></trkpt><trkpt lat="39.48305178" lon="-0.36654708"><ele>-44.0</ele><time>2022-10-30T16:14:13.0000000+00:00</time></trkpt><trkpt lat="39.48305178" lon="-0.36654708"><ele>-44.0</ele><time>2022-10-30T16:14:14.0000000+00:00</time></trkpt><trkpt lat="39.48305178" lon="-0.36654708"><ele>-44.0</ele><time>2022-10-30T16:14:15.0000000+00:00</time></trkpt><trkpt lat="39.48305178" lon="-0.36654716"><ele>-44.0</ele><time>2022-10-30T16:14:16.0000000+00:00</time></trkpt><trkpt lat="39.48305178" lon="-0.36654716"><ele>-44.0</ele><time>2022-10-30T16:14:17.0000000+00:00</time></trkpt><trkpt lat="39.48305178" lon="-0.36654716"><ele>-44.0</ele><time>2022-10-30T16:14:18.0000000+00:00</time></trkpt><trkpt lat="39.4830517" lon="-0.36654716"><ele>-44.0</ele><time>2022-10-30T16:14:19.0000000+00:00</time></trkpt><trkpt lat="39.48305178" lon="-0.36654716"><ele>-44.0</ele><time>2022-10-30T16:14:20.0000000+00:00</time></trkpt><trkpt lat="39.48305178" lon="-0.36654716"><ele>-44.0</ele><time>2022-10-30T16:14:21.0000000+00:00</time></trkpt><trkpt lat="39.48305178" lon="-0.36654716"><ele>-44.0</ele><time>2022-10-30T16:14:22.0000000+00:00</time></trkpt><trkpt lat="39.48305178" lon="-0.36654716"><ele>-44.0</ele><time>2022-10-30T16:14:23.0000000+00:00</time></trkpt><trkpt lat="39.48305178" lon="-0.36654716"><ele>-44.0</ele><time>2022-10-30T16:14:24.0000000+00:00</time></trkpt><trkpt lat="39.4830517" lon="-0.36654716"><ele>-44.0</ele><time>2022-10-30T16:14:25.0000000+00:00</time></trkpt><trkpt lat="39.4830517" lon="-0.36654716"><ele>-44.0</ele><time>2022-10-30T16:14:26.0000000+00:00</time></trkpt><trkpt lat="39.48305162" lon="-0.366547"><ele>-44.0</ele><time>2022-10-30T16:14:27.0000000+00:00</time></trkpt><trkpt lat="39.48305162" lon="-0.366547"><ele>-44.0</ele><time>2022-10-30T16:14:28.0000000+00:00</time></trkpt><trkpt lat="39.48305162" lon="-0.366547"><ele>-44.0</ele><time>2022-10-30T16:14:29.0000000+00:00</time></trkpt><trkpt lat="39.48305153" lon="-0.366547"><ele>-44.0</ele><time>2022-10-30T16:14:30.0000000+00:00</time></trkpt><trkpt lat="39.48305153" lon="-0.36654691"><ele>-44.0</ele><time>2022-10-30T16:14:31.0000000+00:00</time></trkpt><trkpt lat="39.48305153" lon="-0.36654691"><ele>-44.0</ele><time>2022-10-30T16:14:32.0000000+00:00</time></trkpt><trkpt lat="39.48305153" lon="-0.366547"><ele>-44.0</ele><time>2022-10-30T16:14:33.0000000+00:00</time></trkpt><trkpt lat="39.48305153" lon="-0.36654708"><ele>-44.0</ele><time>2022-10-30T16:14:34.0000000+00:00</time></trkpt><trkpt lat="39.48305153" lon="-0.36654691"><ele>-44.0</ele><time>2022-10-30T16:14:35.0000000+00:00</time></trkpt><trkpt lat="39.48305153" lon="-0.36654683"><ele>-44.0</ele><time>2022-10-30T16:14:36.0000000+00:00</time></trkpt><trkpt lat="39.48305145" lon="-0.36654683"><ele>-44.0</ele><time>2022-10-30T16:14:37.0000000+00:00</time></trkpt><trkpt lat="39.48305145" lon="-0.36654674"><ele>-44.0</ele><time>2022-10-30T16:14:38.0000000+00:00</time></trkpt><trkpt lat="39.48305145" lon="-0.36654666"><ele>-44.0</ele><time>2022-10-30T16:14:39.0000000+00:00</time></trkpt><trkpt lat="39.48305145" lon="-0.36654666"><ele>-44.0</ele><time>2022-10-30T16:14:40.0000000+00:00</time></trkpt><trkpt lat="39.48305145" lon="-0.36654666"><ele>-44.0</ele><time>2022-10-30T16:14:41.0000000+00:00</time></trkpt><trkpt lat="39.48305137" lon="-0.36654658"><ele>-44.0</ele><time>2022-10-30T16:14:42.0000000+00:00</time></trkpt><trkpt lat="39.48305128" lon="-0.36654658"><ele>-44.0</ele><time>2022-10-30T16:14:43.0000000+00:00</time></trkpt><trkpt lat="39.48305128" lon="-0.36654658"><ele>-44.0</ele><time>2022-10-30T16:14:44.0000000+00:00</time></trkpt><trkpt lat="39.4830512" lon="-0.36654649"><ele>-44.0</ele><time>2022-10-30T16:14:45.0000000+00:00</time></trkpt><trkpt lat="39.48305128" lon="-0.36654658"><ele>-44.0</ele><time>2022-10-30T16:14:46.0000000+00:00</time></trkpt><trkpt lat="39.48305128" lon="-0.36654674"><ele>-44.0</ele><time>2022-10-30T16:14:47.0000000+00:00</time></trkpt><trkpt lat="39.48305137" lon="-0.36654683"><ele>-44.0</ele><time>2022-10-30T16:14:48.0000000+00:00</time></trkpt><trkpt lat="39.48305137" lon="-0.36654691"><ele>-44.0</ele><time>2022-10-30T16:14:49.0000000+00:00</time></trkpt><trkpt lat="39.48305128" lon="-0.36654674"><ele>-44.0</ele><time>2022-10-30T16:14:50.0000000+00:00</time></trkpt><trkpt lat="39.48304977" lon="-0.36653685"><ele>-44.0</ele><time>2022-10-30T16:14:51.0000000+00:00</time></trkpt><trkpt lat="39.48304734" lon="-0.3665309"><ele>-44.0</ele><time>2022-10-30T16:14:52.0000000+00:00</time></trkpt><trkpt lat="39.48304768" lon="-0.36652847"><ele>-44.0</ele><time>2022-10-30T16:14:53.0000000+00:00</time></trkpt><trkpt lat="39.48304902" lon="-0.36652948"><ele>-44.0</ele><time>2022-10-30T16:14:54.0000000+00:00</time></trkpt><trkpt lat="39.48305237" lon="-0.36653845"><ele>-44.0</ele><time>2022-10-30T16:14:55.0000000+00:00</time></trkpt><trkpt lat="39.48305413" lon="-0.36653157"><ele>-44.0</ele><time>2022-10-30T16:14:56.0000000+00:00</time></trkpt><trkpt lat="39.48306184" lon="-0.36652872"><ele>-44.0</ele><time>2022-10-30T16:14:57.0000000+00:00</time></trkpt><trkpt lat="39.48306872" lon="-0.36652152"><ele>-44.0</ele><time>2022-10-30T16:14:58.0000000+00:00</time></trkpt><trkpt lat="39.48306469" lon="-0.36651179"><ele>-44.0</ele><time>2022-10-30T16:14:59.0000000+00:00</time></trkpt><trkpt lat="39.48306545" lon="-0.36650157"><ele>-44.0</ele><time>2022-10-30T16:15:00.0000000+00:00</time></trkpt><trkpt lat="39.48306846" lon="-0.36650752"><ele>-44.0</ele><time>2022-10-30T16:15:01.0000000+00:00</time></trkpt><trkpt lat="39.48306972" lon="-0.36650626"><ele>-44.0</ele><time>2022-10-30T16:15:02.0000000+00:00</time></trkpt><trkpt lat="39.48306654" lon="-0.36651406"><ele>-44.0</ele><time>2022-10-30T16:15:03.0000000+00:00</time></trkpt><trkpt lat="39.48307601" lon="-0.36651322"><ele>-44.0</ele><time>2022-10-30T16:15:04.0000000+00:00</time></trkpt><trkpt lat="39.4830854" lon="-0.36651062"><ele>-44.0</ele><time>2022-10-30T16:15:05.0000000+00:00</time></trkpt><trkpt lat="39.48309126" lon="-0.36651464"><ele>-44.0</ele><time>2022-10-30T16:15:06.0000000+00:00</time></trkpt><trkpt lat="39.4830921" lon="-0.36651439"><ele>-44.0</ele><time>2022-10-30T16:15:07.0000000+00:00</time></trkpt><trkpt lat="39.48309084" lon="-0.36651682"><ele>-44.0</ele><time>2022-10-30T16:15:08.0000000+00:00</time></trkpt><trkpt lat="39.4830911" lon="-0.36651607"><ele>-44.0</ele><time>2022-10-30T16:15:09.0000000+00:00</time></trkpt><trkpt lat="39.48309168" lon="-0.36651456"><ele>-44.0</ele><time>2022-10-30T16:15:10.0000000+00:00</time></trkpt><trkpt lat="39.48309202" lon="-0.36651741"><ele>-44.0</ele><time>2022-10-30T16:15:11.0000000+00:00</time></trkpt><trkpt lat="39.4830916" lon="-0.36651892"><ele>-44.0</ele><time>2022-10-30T16:15:12.0000000+00:00</time></trkpt><trkpt lat="39.48309059" lon="-0.36651967"><ele>-44.0</ele><time>2022-10-30T16:15:13.0000000+00:00</time></trkpt><trkpt lat="39.48308816" lon="-0.36652168"><ele>-44.0</ele><time>2022-10-30T16:15:14.0000000+00:00</time></trkpt><trkpt lat="39.48308783" lon="-0.36652286"><ele>-44.0</ele><time>2022-10-30T16:15:15.0000000+00:00</time></trkpt><trkpt lat="39.4830885" lon="-0.36652495"><ele>-44.0</ele><time>2022-10-30T16:15:16.0000000+00:00</time></trkpt><trkpt lat="39.48309043" lon="-0.36652495"><ele>-44.0</ele><time>2022-10-30T16:15:17.0000000+00:00</time></trkpt><trkpt lat="39.48309395" lon="-0.36652638"><ele>-44.0</ele><time>2022-10-30T16:15:18.0000000+00:00</time></trkpt><trkpt lat="39.48309344" lon="-0.36652738"><ele>-44.0</ele><time>2022-10-30T16:15:19.0000000+00:00</time></trkpt><trkpt lat="39.48309302" lon="-0.3665304"><ele>-44.0</ele><time>2022-10-30T16:15:20.0000000+00:00</time></trkpt><trkpt lat="39.4830968" lon="-0.36653183"><ele>-44.0</ele><time>2022-10-30T16:15:21.0000000+00:00</time></trkpt><trkpt lat="39.48310048" lon="-0.36653157"><ele>-44.0</ele><time>2022-10-30T16:15:22.0000000+00:00</time></trkpt><trkpt lat="39.48310107" lon="-0.36653115"><ele>-44.0</ele><time>2022-10-30T16:15:23.0000000+00:00</time></trkpt><trkpt lat="39.48310174" lon="-0.36652948"><ele>-44.0</ele><time>2022-10-30T16:15:24.0000000+00:00</time></trkpt><trkpt lat="39.48310216" lon="-0.36652638"><ele>-44.0</ele><time>2022-10-30T16:15:25.0000000+00:00</time></trkpt><trkpt lat="39.48309931" lon="-0.36653283"><ele>-44.0</ele><time>2022-10-30T16:15:26.0000000+00:00</time></trkpt><trkpt lat="39.48309914" lon="-0.36653325"><ele>-44.0</ele><time>2022-10-30T16:15:27.0000000+00:00</time></trkpt><trkpt lat="39.48310006" lon="-0.36653342"><ele>-44.0</ele><time>2022-10-30T16:15:28.0000000+00:00</time></trkpt><trkpt lat="39.48310006" lon="-0.36653342"><ele>-44.0</ele><time>2022-10-30T16:15:29.0000000+00:00</time></trkpt><trkpt lat="39.48310006" lon="-0.36653342"><ele>-44.0</ele><time>2022-10-30T16:15:30.0000000+00:00</time></trkpt><trkpt lat="39.48310006" lon="-0.36653342"><ele>-44.0</ele><time>2022-10-30T16:15:31.0000000+00:00</time></trkpt><trkpt lat="39.48310006" lon="-0.36653342"><ele>-44.0</ele><time>2022-10-30T16:15:32.0000000+00:00</time></trkpt><trkpt lat="39.48310006" lon="-0.36653342"><ele>-44.0</ele><time>2022-10-30T16:15:33.0000000+00:00</time></trkpt><trkpt lat="39.48310006" lon="-0.36653342"><ele>-44.0</ele><time>2022-10-30T16:15:34.0000000+00:00</time></trkpt><trkpt lat="39.48310006" lon="-0.36653342"><ele>-44.0</ele><time>2022-10-30T16:15:35.0000000+00:00</time></trkpt><trkpt lat="39.48310006" lon="-0.36653342"><ele>-44.0</ele><time>2022-10-30T16:15:36.0000000+00:00</time></trkpt><trkpt lat="39.48310006" lon="-0.36653342"><ele>-44.0</ele><time>2022-10-30T16:15:37.0000000+00:00</time></trkpt><trkpt lat="39.48310006" lon="-0.36653342"><ele>-44.0</ele><time>2022-10-30T16:15:38.0000000+00:00</time></trkpt><trkpt lat="39.48310006" lon="-0.36653342"><ele>-44.0</ele><time>2022-10-30T16:15:39.0000000+00:00</time></trkpt><trkpt lat="39.48310006" lon="-0.36653342"><ele>-44.0</ele><time>2022-10-30T16:15:40.0000000+00:00</time></trkpt><trkpt lat="39.48310006" lon="-0.36653342"><ele>-44.0</ele><time>2022-10-30T16:15:41.0000000+00:00</time></trkpt><trkpt lat="39.48310006" lon="-0.36653342"><ele>-44.0</ele><time>2022-10-30T16:15:42.0000000+00:00</time></trkpt><trkpt lat="39.48310006" lon="-0.36653342"><ele>-44.0</ele><time>2022-10-30T16:15:43.0000000+00:00</time></trkpt><trkpt lat="39.48310006" lon="-0.36653342"><ele>-44.0</ele><time>2022-10-30T16:15:44.0000000+00:00</time></trkpt><trkpt lat="39.48309998" lon="-0.36653342"><ele>-44.0</ele><time>2022-10-30T16:15:45.0000000+00:00</time></trkpt><trkpt lat="39.4830999" lon="-0.36653375"><ele>-44.0</ele><time>2022-10-30T16:15:46.0000000+00:00</time></trkpt><trkpt lat="39.48309981" lon="-0.36653417"><ele>-44.0</ele><time>2022-10-30T16:15:47.0000000+00:00</time></trkpt><trkpt lat="39.48309981" lon="-0.36653451"><ele>-44.0</ele><time>2022-10-30T16:15:48.0000000+00:00</time></trkpt><trkpt lat="39.48309973" lon="-0.36653451"><ele>-44.0</ele><time>2022-10-30T16:15:49.0000000+00:00</time></trkpt><trkpt lat="39.48309981" lon="-0.36653459"><ele>-44.0</ele><time>2022-10-30T16:15:50.0000000+00:00</time></trkpt><trkpt lat="39.4830999" lon="-0.36653459"><ele>-44.0</ele><time>2022-10-30T16:15:51.0000000+00:00</time></trkpt><trkpt lat="39.4830999" lon="-0.36653459"><ele>-44.0</ele><time>2022-10-30T16:15:52.0000000+00:00</time></trkpt><trkpt lat="39.4830999" lon="-0.36653459"><ele>-44.0</ele><time>2022-10-30T16:15:53.0000000+00:00</time></trkpt><trkpt lat="39.4830999" lon="-0.36653476"><ele>-44.0</ele><time>2022-10-30T16:15:54.0000000+00:00</time></trkpt><trkpt lat="39.4830999" lon="-0.36653501"><ele>-44.0</ele><time>2022-10-30T16:15:55.0000000+00:00</time></trkpt><trkpt lat="39.4830999" lon="-0.36653509"><ele>-44.0</ele><time>2022-10-30T16:15:56.0000000+00:00</time></trkpt><trkpt lat="39.4830999" lon="-0.36653509"><ele>-44.0</ele><time>2022-10-30T16:15:57.0000000+00:00</time></trkpt><trkpt lat="39.48309981" lon="-0.36653509"><ele>-44.0</ele><time>2022-10-30T16:15:58.0000000+00:00</time></trkpt><trkpt lat="39.48309981" lon="-0.36653509"><ele>-44.0</ele><time>2022-10-30T16:15:59.0000000+00:00</time></trkpt><trkpt lat="39.48309973" lon="-0.36653509"><ele>-44.0</ele><time>2022-10-30T16:16:00.0000000+00:00</time></trkpt><trkpt lat="39.48309973" lon="-0.36653493"><ele>-44.0</ele><time>2022-10-30T16:16:01.0000000+00:00</time></trkpt><trkpt lat="39.48309965" lon="-0.36653484"><ele>-44.0</ele><time>2022-10-30T16:16:02.0000000+00:00</time></trkpt><trkpt lat="39.48309931" lon="-0.36653468"><ele>-44.0</ele><time>2022-10-30T16:16:03.0000000+00:00</time></trkpt><trkpt lat="39.48309923" lon="-0.36653459"><ele>-44.0</ele><time>2022-10-30T16:16:04.0000000+00:00</time></trkpt><trkpt lat="39.48309897" lon="-0.36653459"><ele>-44.0</ele><time>2022-10-30T16:16:05.0000000+00:00</time></trkpt><trkpt lat="39.48309889" lon="-0.36653434"><ele>-44.0</ele><time>2022-10-30T16:16:06.0000000+00:00</time></trkpt><trkpt lat="39.48309864" lon="-0.36653417"><ele>-44.0</ele><time>2022-10-30T16:16:07.0000000+00:00</time></trkpt><trkpt lat="39.48309847" lon="-0.36653392"><ele>-44.0</ele><time>2022-10-30T16:16:08.0000000+00:00</time></trkpt><trkpt lat="39.48309822" lon="-0.36653342"><ele>-44.0</ele><time>2022-10-30T16:16:09.0000000+00:00</time></trkpt><trkpt lat="39.48309797" lon="-0.36653325"><ele>-44.0</ele><time>2022-10-30T16:16:10.0000000+00:00</time></trkpt><trkpt lat="39.4830978" lon="-0.36653325"><ele>-44.0</ele><time>2022-10-30T16:16:11.0000000+00:00</time></trkpt><trkpt lat="39.48309763" lon="-0.366533"><ele>-44.0</ele><time>2022-10-30T16:16:12.0000000+00:00</time></trkpt><trkpt lat="39.48309738" lon="-0.36653241"><ele>-44.0</ele><time>2022-10-30T16:16:13.0000000+00:00</time></trkpt><trkpt lat="39.4830973" lon="-0.36653224"><ele>-44.0</ele><time>2022-10-30T16:16:14.0000000+00:00</time></trkpt><trkpt lat="39.4830973" lon="-0.36653174"><ele>-44.0</ele><time>2022-10-30T16:16:15.0000000+00:00</time></trkpt><trkpt lat="39.4830973" lon="-0.36653132"><ele>-44.0</ele><time>2022-10-30T16:16:16.0000000+00:00</time></trkpt><trkpt lat="39.48309621" lon="-0.36653124"><ele>-44.0</ele><time>2022-10-30T16:16:17.0000000+00:00</time></trkpt><trkpt lat="39.48309554" lon="-0.36653115"><ele>-44.0</ele><time>2022-10-30T16:16:18.0000000+00:00</time></trkpt><trkpt lat="39.48309504" lon="-0.36653115"><ele>-44.0</ele><time>2022-10-30T16:16:19.0000000+00:00</time></trkpt><trkpt lat="39.48309428" lon="-0.36653115"><ele>-44.0</ele><time>2022-10-30T16:16:20.0000000+00:00</time></trkpt><trkpt lat="39.48309411" lon="-0.36653115"><ele>-44.0</ele><time>2022-10-30T16:16:21.0000000+00:00</time></trkpt><trkpt lat="39.48309403" lon="-0.36653115"><ele>-44.0</ele><time>2022-10-30T16:16:22.0000000+00:00</time></trkpt><trkpt lat="39.48309403" lon="-0.36653115"><ele>-44.0</ele><time>2022-10-30T16:16:23.0000000+00:00</time></trkpt><trkpt lat="39.48309403" lon="-0.36653115"><ele>-44.0</ele><time>2022-10-30T16:16:24.0000000+00:00</time></trkpt><trkpt lat="39.48309386" lon="-0.36653191"><ele>-44.0</ele><time>2022-10-30T16:16:25.0000000+00:00</time></trkpt><trkpt lat="39.48309378" lon="-0.36653208"><ele>-44.0</ele><time>2022-10-30T16:16:26.0000000+00:00</time></trkpt><trkpt lat="39.48309328" lon="-0.36653216"><ele>-44.0</ele><time>2022-10-30T16:16:27.0000000+00:00</time></trkpt><trkpt lat="39.48309302" lon="-0.36653216"><ele>-44.0</ele><time>2022-10-30T16:16:28.0000000+00:00</time></trkpt><trkpt lat="39.48309294" lon="-0.36653216"><ele>-44.0</ele><time>2022-10-30T16:16:29.0000000+00:00</time></trkpt><trkpt lat="39.48309286" lon="-0.36653216"><ele>-44.0</ele><time>2022-10-30T16:16:30.0000000+00:00</time></trkpt><trkpt lat="39.48309286" lon="-0.36653224"><ele>-44.0</ele><time>2022-10-30T16:16:31.0000000+00:00</time></trkpt><trkpt lat="39.48309286" lon="-0.36653325"><ele>-44.0</ele><time>2022-10-30T16:16:32.0000000+00:00</time></trkpt><trkpt lat="39.48309277" lon="-0.36653384"><ele>-44.0</ele><time>2022-10-30T16:16:33.0000000+00:00</time></trkpt><trkpt lat="39.48309269" lon="-0.366534"><ele>-44.0</ele><time>2022-10-30T16:16:34.0000000+00:00</time></trkpt><trkpt lat="39.48309269" lon="-0.36653417"><ele>-44.0</ele><time>2022-10-30T16:16:35.0000000+00:00</time></trkpt><trkpt lat="39.48309269" lon="-0.36653434"><ele>-44.0</ele><time>2022-10-30T16:16:36.0000000+00:00</time></trkpt><trkpt lat="39.48309277" lon="-0.36653501"><ele>-44.0</ele><time>2022-10-30T16:16:37.0000000+00:00</time></trkpt><trkpt lat="39.48309294" lon="-0.36653618"><ele>-44.0</ele><time>2022-10-30T16:16:38.0000000+00:00</time></trkpt><trkpt lat="39.48309302" lon="-0.36653677"><ele>-44.0</ele><time>2022-10-30T16:16:39.0000000+00:00</time></trkpt><trkpt lat="39.48309353" lon="-0.36653711"><ele>-44.0</ele><time>2022-10-30T16:16:40.0000000+00:00</time></trkpt><trkpt lat="39.48309395" lon="-0.36653761"><ele>-44.0</ele><time>2022-10-30T16:16:41.0000000+00:00</time></trkpt><trkpt lat="39.48309428" lon="-0.36653786"><ele>-44.0</ele><time>2022-10-30T16:16:42.0000000+00:00</time></trkpt><trkpt lat="39.4830952" lon="-0.36653845"><ele>-44.0</ele><time>2022-10-30T16:16:43.0000000+00:00</time></trkpt><trkpt lat="39.48309562" lon="-0.3665392"><ele>-44.0</ele><time>2022-10-30T16:16:44.0000000+00:00</time></trkpt><trkpt lat="39.48309587" lon="-0.36653945"><ele>-44.0</ele><time>2022-10-30T16:16:45.0000000+00:00</time></trkpt><trkpt lat="39.48309604" lon="-0.36653962"><ele>-44.0</ele><time>2022-10-30T16:16:46.0000000+00:00</time></trkpt><trkpt lat="39.48309654" lon="-0.36654021"><ele>-44.0</ele><time>2022-10-30T16:16:47.0000000+00:00</time></trkpt><trkpt lat="39.48309688" lon="-0.36654431"><ele>-44.0</ele><time>2022-10-30T16:16:48.0000000+00:00</time></trkpt><trkpt lat="39.48309822" lon="-0.36654624"><ele>-44.0</ele><time>2022-10-30T16:16:49.0000000+00:00</time></trkpt><trkpt lat="39.48310048" lon="-0.36654708"><ele>-44.0</ele><time>2022-10-30T16:16:50.0000000+00:00</time></trkpt><trkpt lat="39.48310241" lon="-0.36654767"><ele>-44.0</ele><time>2022-10-30T16:16:51.0000000+00:00</time></trkpt><trkpt lat="39.48310342" lon="-0.36654792"><ele>-44.0</ele><time>2022-10-30T16:16:52.0000000+00:00</time></trkpt><trkpt lat="39.48310384" lon="-0.36654993"><ele>-44.0</ele><time>2022-10-30T16:16:53.0000000+00:00</time></trkpt><trkpt lat="39.483104" lon="-0.36655102"><ele>-44.0</ele><time>2022-10-30T16:16:54.0000000+00:00</time></trkpt><trkpt lat="39.483104" lon="-0.36655244"><ele>-44.0</ele><time>2022-10-30T16:16:55.0000000+00:00</time></trkpt><trkpt lat="39.48310409" lon="-0.36655437"><ele>-44.0</ele><time>2022-10-30T16:16:56.0000000+00:00</time></trkpt><trkpt lat="39.48310409" lon="-0.36655555"><ele>-44.0</ele><time>2022-10-30T16:16:57.0000000+00:00</time></trkpt><trkpt lat="39.48310409" lon="-0.36655664"><ele>-44.0</ele><time>2022-10-30T16:16:58.0000000+00:00</time></trkpt><trkpt lat="39.48310409" lon="-0.36655856"><ele>-44.0</ele><time>2022-10-30T16:16:59.0000000+00:00</time></trkpt><trkpt lat="39.48310409" lon="-0.36656074"><ele>-44.0</ele><time>2022-10-30T16:17:00.0000000+00:00</time></trkpt><trkpt lat="39.48310409" lon="-0.36656183"><ele>-44.0</ele><time>2022-10-30T16:17:01.0000000+00:00</time></trkpt><trkpt lat="39.48310409" lon="-0.36656393"><ele>-44.0</ele><time>2022-10-30T16:17:02.0000000+00:00</time></trkpt><trkpt lat="39.48310409" lon="-0.36656795"><ele>-44.0</ele><time>2022-10-30T16:17:03.0000000+00:00</time></trkpt><trkpt lat="39.48310409" lon="-0.36657021"><ele>-44.0</ele><time>2022-10-30T16:17:04.0000000+00:00</time></trkpt><trkpt lat="39.48310409" lon="-0.3665713"><ele>-44.0</ele><time>2022-10-30T16:17:05.0000000+00:00</time></trkpt><trkpt lat="39.48310409" lon="-0.36657558"><ele>-44.0</ele><time>2022-10-30T16:17:06.0000000+00:00</time></trkpt><trkpt lat="39.48310325" lon="-0.36657969"><ele>-44.0</ele><time>2022-10-30T16:17:07.0000000+00:00</time></trkpt><trkpt lat="39.48310208" lon="-0.36658262"><ele>-44.0</ele><time>2022-10-30T16:17:08.0000000+00:00</time></trkpt><trkpt lat="39.48310107" lon="-0.36658404"><ele>-44.0</ele><time>2022-10-30T16:17:09.0000000+00:00</time></trkpt><trkpt lat="39.48310023" lon="-0.3665858"><ele>-44.0</ele><time>2022-10-30T16:17:10.0000000+00:00</time></trkpt><trkpt lat="39.48309814" lon="-0.36658664"><ele>-44.0</ele><time>2022-10-30T16:17:11.0000000+00:00</time></trkpt><trkpt lat="39.48309705" lon="-0.36658715"><ele>-44.0</ele><time>2022-10-30T16:17:12.0000000+00:00</time></trkpt><trkpt lat="39.48309621" lon="-0.36658748"><ele>-44.0</ele><time>2022-10-30T16:17:13.0000000+00:00</time></trkpt><trkpt lat="39.48309579" lon="-0.3665879"><ele>-44.0</ele><time>2022-10-30T16:17:14.0000000+00:00</time></trkpt><trkpt lat="39.48309545" lon="-0.36658857"><ele>-44.0</ele><time>2022-10-30T16:17:15.0000000+00:00</time></trkpt><trkpt lat="39.4830952" lon="-0.36659025"><ele>-44.0</ele><time>2022-10-30T16:17:16.0000000+00:00</time></trkpt><trkpt lat="39.48309487" lon="-0.3665915"><ele>-44.0</ele><time>2022-10-30T16:17:17.0000000+00:00</time></trkpt><trkpt lat="39.48309445" lon="-0.36659251"><ele>-44.0</ele><time>2022-10-30T16:17:18.0000000+00:00</time></trkpt><trkpt lat="39.48309411" lon="-0.36659318"><ele>-44.0</ele><time>2022-10-30T16:17:19.0000000+00:00</time></trkpt><trkpt lat="39.48309361" lon="-0.36659352"><ele>-44.0</ele><time>2022-10-30T16:17:20.0000000+00:00</time></trkpt><trkpt lat="39.48309319" lon="-0.36659377"><ele>-44.0</ele><time>2022-10-30T16:17:21.0000000+00:00</time></trkpt><trkpt lat="39.48309286" lon="-0.36659394"><ele>-44.0</ele><time>2022-10-30T16:17:22.0000000+00:00</time></trkpt><trkpt lat="39.4830926" lon="-0.36659402"><ele>-44.0</ele><time>2022-10-30T16:17:23.0000000+00:00</time></trkpt><trkpt lat="39.4830921" lon="-0.36659419"><ele>-44.0</ele><time>2022-10-30T16:17:24.0000000+00:00</time></trkpt><trkpt lat="39.48309152" lon="-0.36659427"><ele>-44.0</ele><time>2022-10-30T16:17:25.0000000+00:00</time></trkpt><trkpt lat="39.48309118" lon="-0.36659469"><ele>-44.0</ele><time>2022-10-30T16:17:26.0000000+00:00</time></trkpt><trkpt lat="39.48309101" lon="-0.36659502"><ele>-44.0</ele><time>2022-10-30T16:17:27.0000000+00:00</time></trkpt><trkpt lat="39.4830921" lon="-0.36659704"><ele>-44.0</ele><time>2022-10-30T16:17:28.0000000+00:00</time></trkpt><trkpt lat="39.48309772" lon="-0.36660215"><ele>-44.0</ele><time>2022-10-30T16:17:29.0000000+00:00</time></trkpt><trkpt lat="39.48309939" lon="-0.36660316"><ele>-44.0</ele><time>2022-10-30T16:17:30.0000000+00:00</time></trkpt><trkpt lat="39.4830864" lon="-0.36659913"><ele>-44.0</ele><time>2022-10-30T16:17:31.0000000+00:00</time></trkpt><trkpt lat="39.48307416" lon="-0.36658119"><ele>-44.0</ele><time>2022-10-30T16:17:32.0000000+00:00</time></trkpt><trkpt lat="39.48306897" lon="-0.36657139"><ele>-44.0</ele><time>2022-10-30T16:17:33.0000000+00:00</time></trkpt><trkpt lat="39.4830657" lon="-0.36656686"><ele>-44.0</ele><time>2022-10-30T16:17:34.0000000+00:00</time></trkpt><trkpt lat="39.48305941" lon="-0.36656099"><ele>-44.0</ele><time>2022-10-30T16:17:35.0000000+00:00</time></trkpt><trkpt lat="39.48305966" lon="-0.36656527"><ele>-44.0</ele><time>2022-10-30T16:17:36.0000000+00:00</time></trkpt><trkpt lat="39.48305891" lon="-0.36656728"><ele>-44.0</ele><time>2022-10-30T16:17:37.0000000+00:00</time></trkpt><trkpt lat="39.48305849" lon="-0.36656778"><ele>-44.0</ele><time>2022-10-30T16:17:38.0000000+00:00</time></trkpt><trkpt lat="39.48305849" lon="-0.36656778"><ele>-44.0</ele><time>2022-10-30T16:17:39.0000000+00:00</time></trkpt><trkpt lat="39.48305849" lon="-0.36656778"><ele>-44.0</ele><time>2022-10-30T16:17:40.0000000+00:00</time></trkpt><trkpt lat="39.48305849" lon="-0.36656778"><ele>-44.0</ele><time>2022-10-30T16:17:41.0000000+00:00</time></trkpt><trkpt lat="39.48305849" lon="-0.36656778"><ele>-44.0</ele><time>2022-10-30T16:17:42.0000000+00:00</time></trkpt><trkpt lat="39.48305849" lon="-0.36656778"><ele>-44.0</ele><time>2022-10-30T16:17:43.0000000+00:00</time></trkpt><trkpt lat="39.48305849" lon="-0.36656778"><ele>-44.0</ele><time>2022-10-30T16:17:44.0000000+00:00</time></trkpt><trkpt lat="39.48305849" lon="-0.36656778"><ele>-44.0</ele><time>2022-10-30T16:17:45.0000000+00:00</time></trkpt><trkpt lat="39.48305849" lon="-0.36656778"><ele>-44.0</ele><time>2022-10-30T16:17:46.0000000+00:00</time></trkpt><trkpt lat="39.48305849" lon="-0.36656778"><ele>-44.0</ele><time>2022-10-30T16:17:47.0000000+00:00</time></trkpt><trkpt lat="39.48305849" lon="-0.36656778"><ele>-44.0</ele><time>2022-10-30T16:17:48.0000000+00:00</time></trkpt><trkpt lat="39.48305849" lon="-0.36656778"><ele>-44.0</ele><time>2022-10-30T16:17:49.0000000+00:00</time></trkpt><trkpt lat="39.48305849" lon="-0.36656778"><ele>-44.0</ele><time>2022-10-30T16:17:50.0000000+00:00</time></trkpt><trkpt lat="39.48305849" lon="-0.36656778"><ele>-44.0</ele><time>2022-10-30T16:17:51.0000000+00:00</time></trkpt><trkpt lat="39.48305857" lon="-0.36656778"><ele>-44.0</ele><time>2022-10-30T16:17:52.0000000+00:00</time></trkpt><trkpt lat="39.48305857" lon="-0.36656778"><ele>-44.0</ele><time>2022-10-30T16:17:53.0000000+00:00</time></trkpt><trkpt lat="39.48305857" lon="-0.36656778"><ele>-44.0</ele><time>2022-10-30T16:17:54.0000000+00:00</time></trkpt><trkpt lat="39.48305891" lon="-0.36656778"><ele>-44.0</ele><time>2022-10-30T16:17:55.0000000+00:00</time></trkpt><trkpt lat="39.48305891" lon="-0.36656778"><ele>-44.0</ele><time>2022-10-30T16:17:56.0000000+00:00</time></trkpt><trkpt lat="39.48305916" lon="-0.36656778"><ele>-44.0</ele><time>2022-10-30T16:17:57.0000000+00:00</time></trkpt><trkpt lat="39.4830595" lon="-0.36656736"><ele>-44.0</ele><time>2022-10-30T16:17:58.0000000+00:00</time></trkpt><trkpt lat="39.48305975" lon="-0.36656728"><ele>-44.0</ele><time>2022-10-30T16:17:59.0000000+00:00</time></trkpt><trkpt lat="39.48305975" lon="-0.36656686"><ele>-44.0</ele><time>2022-10-30T16:18:00.0000000+00:00</time></trkpt><trkpt lat="39.48305975" lon="-0.36656602"><ele>-44.0</ele><time>2022-10-30T16:18:01.0000000+00:00</time></trkpt><trkpt lat="39.48306377" lon="-0.36655965"><ele>-44.0</ele><time>2022-10-30T16:18:02.0000000+00:00</time></trkpt><trkpt lat="39.48307375" lon="-0.36654348"><ele>-44.0</ele><time>2022-10-30T16:18:03.0000000+00:00</time></trkpt><trkpt lat="39.48308338" lon="-0.36653241"><ele>-44.0</ele><time>2022-10-30T16:18:04.0000000+00:00</time></trkpt><trkpt lat="39.48309252" lon="-0.36651992"><ele>-44.0</ele><time>2022-10-30T16:18:05.0000000+00:00</time></trkpt><trkpt lat="39.48310174" lon="-0.36650718"><ele>-44.0</ele><time>2022-10-30T16:18:06.0000000+00:00</time></trkpt><trkpt lat="39.48310861" lon="-0.36648908"><ele>-44.0</ele><time>2022-10-30T16:18:07.0000000+00:00</time></trkpt><trkpt lat="39.48311054" lon="-0.3664672"><ele>-44.0</ele><time>2022-10-30T16:18:08.0000000+00:00</time></trkpt><trkpt lat="39.48311247" lon="-0.36644717"><ele>-44.0</ele><time>2022-10-30T16:18:09.0000000+00:00</time></trkpt><trkpt lat="39.48311188" lon="-0.36642504"><ele>-44.0</ele><time>2022-10-30T16:18:10.0000000+00:00</time></trkpt><trkpt lat="39.48311088" lon="-0.36639788"><ele>-44.0</ele><time>2022-10-30T16:18:11.0000000+00:00</time></trkpt><trkpt lat="39.48311021" lon="-0.36636779"><ele>-44.0</ele><time>2022-10-30T16:18:12.0000000+00:00</time></trkpt><trkpt lat="39.48311121" lon="-0.36634089"><ele>-44.0</ele><time>2022-10-30T16:18:13.0000000+00:00</time></trkpt><trkpt lat="39.48311524" lon="-0.36632136"><ele>-44.0</ele><time>2022-10-30T16:18:14.0000000+00:00</time></trkpt><trkpt lat="39.48312286" lon="-0.3663097"><ele>-44.6</ele><time>2022-10-30T16:18:15.0000000+00:00</time></trkpt><trkpt lat="39.48312806" lon="-0.3663025"><ele>-45.0</ele><time>2022-10-30T16:18:16.0000000+00:00</time></trkpt><trkpt lat="39.48312613" lon="-0.3662947"><ele>-45.2</ele><time>2022-10-30T16:18:17.0000000+00:00</time></trkpt><trkpt lat="39.4831268" lon="-0.36627945"><ele>-45.2</ele><time>2022-10-30T16:18:18.0000000+00:00</time></trkpt><trkpt lat="39.4831237" lon="-0.36626427"><ele>-45.4</ele><time>2022-10-30T16:18:19.0000000+00:00</time></trkpt><trkpt lat="39.48312454" lon="-0.36624558"><ele>-45.4</ele><time>2022-10-30T16:18:20.0000000+00:00</time></trkpt><trkpt lat="39.48312756" lon="-0.36622723"><ele>-45.2</ele><time>2022-10-30T16:18:21.0000000+00:00</time></trkpt><trkpt lat="39.48312638" lon="-0.36621071"><ele>-45.2</ele><time>2022-10-30T16:18:22.0000000+00:00</time></trkpt><trkpt lat="39.483132" lon="-0.36619512"><ele>-45.2</ele><time>2022-10-30T16:18:23.0000000+00:00</time></trkpt><trkpt lat="39.48313393" lon="-0.36618733"><ele>-45.2</ele><time>2022-10-30T16:18:24.0000000+00:00</time></trkpt><trkpt lat="39.48313619" lon="-0.36617769"><ele>-45.4</ele><time>2022-10-30T16:18:25.0000000+00:00</time></trkpt><trkpt lat="39.48313753" lon="-0.36616587"><ele>-45.6</ele><time>2022-10-30T16:18:26.0000000+00:00</time></trkpt><trkpt lat="39.48313854" lon="-0.36616059"><ele>-45.6</ele><time>2022-10-30T16:18:27.0000000+00:00</time></trkpt><trkpt lat="39.48314055" lon="-0.36615766"><ele>-45.6</ele><time>2022-10-30T16:18:28.0000000+00:00</time></trkpt><trkpt lat="39.48314348" lon="-0.36615615"><ele>-45.6</ele><time>2022-10-30T16:18:29.0000000+00:00</time></trkpt><trkpt lat="39.48314474" lon="-0.3661559"><ele>-45.6</ele><time>2022-10-30T16:18:30.0000000+00:00</time></trkpt><trkpt lat="39.48314675" lon="-0.36615598"><ele>-45.6</ele><time>2022-10-30T16:18:31.0000000+00:00</time></trkpt><trkpt lat="39.48314667" lon="-0.3661564"><ele>-45.6</ele><time>2022-10-30T16:18:32.0000000+00:00</time></trkpt><trkpt lat="39.48314784" lon="-0.36615531"><ele>-45.6</ele><time>2022-10-30T16:18:33.0000000+00:00</time></trkpt><trkpt lat="39.48314667" lon="-0.36615212"><ele>-45.6</ele><time>2022-10-30T16:18:34.0000000+00:00</time></trkpt><trkpt lat="39.48314901" lon="-0.36615372"><ele>-45.4</ele><time>2022-10-30T16:18:35.0000000+00:00</time></trkpt><trkpt lat="39.48314751" lon="-0.36616109"><ele>-45.4</ele><time>2022-10-30T16:18:36.0000000+00:00</time></trkpt><trkpt lat="39.4831491" lon="-0.36617677"><ele>-45.2</ele><time>2022-10-30T16:18:37.0000000+00:00</time></trkpt><trkpt lat="39.48315203" lon="-0.36618775"><ele>-45.2</ele><time>2022-10-30T16:18:38.0000000+00:00</time></trkpt><trkpt lat="39.48315824" lon="-0.36619554"><ele>-45.2</ele><time>2022-10-30T16:18:39.0000000+00:00</time></trkpt><trkpt lat="39.48316712" lon="-0.36620208"><ele>-45.2</ele><time>2022-10-30T16:18:40.0000000+00:00</time></trkpt><trkpt lat="39.48317408" lon="-0.36621189"><ele>-45.2</ele><time>2022-10-30T16:18:41.0000000+00:00</time></trkpt><trkpt lat="39.48318715" lon="-0.366216"><ele>-45.2</ele><time>2022-10-30T16:18:42.0000000+00:00</time></trkpt><trkpt lat="39.48320149" lon="-0.3662191"><ele>-45.2</ele><time>2022-10-30T16:18:43.0000000+00:00</time></trkpt><trkpt lat="39.48321448" lon="-0.36622228"><ele>-45.2</ele><time>2022-10-30T16:18:44.0000000+00:00</time></trkpt><trkpt lat="39.48322504" lon="-0.36622329"><ele>-45.0</ele><time>2022-10-30T16:18:45.0000000+00:00</time></trkpt><trkpt lat="39.48323451" lon="-0.36622555"><ele>-44.8</ele><time>2022-10-30T16:18:46.0000000+00:00</time></trkpt><trkpt lat="39.48324574" lon="-0.36622706"><ele>-45.0</ele><time>2022-10-30T16:18:47.0000000+00:00</time></trkpt><trkpt lat="39.48325538" lon="-0.36622354"><ele>-45.0</ele><time>2022-10-30T16:18:48.0000000+00:00</time></trkpt><trkpt lat="39.4832636" lon="-0.36622547"><ele>-45.0</ele><time>2022-10-30T16:18:49.0000000+00:00</time></trkpt><trkpt lat="39.48327189" lon="-0.36622781"><ele>-45.2</ele><time>2022-10-30T16:18:50.0000000+00:00</time></trkpt><trkpt lat="39.48327944" lon="-0.36622966"><ele>-45.2</ele><time>2022-10-30T16:18:51.0000000+00:00</time></trkpt><trkpt lat="39.48328631" lon="-0.36623058"><ele>-45.2</ele><time>2022-10-30T16:18:52.0000000+00:00</time></trkpt><trkpt lat="39.48329251" lon="-0.36622941"><ele>-45.2</ele><time>2022-10-30T16:18:53.0000000+00:00</time></trkpt><trkpt lat="39.48329612" lon="-0.36621658"><ele>-45.2</ele><time>2022-10-30T16:18:54.0000000+00:00</time></trkpt><trkpt lat="39.48330207" lon="-0.36621097"><ele>-45.2</ele><time>2022-10-30T16:18:55.0000000+00:00</time></trkpt><trkpt lat="39.48330576" lon="-0.3662108"><ele>-45.2</ele><time>2022-10-30T16:18:56.0000000+00:00</time></trkpt><trkpt lat="39.48330819" lon="-0.36621139"><ele>-45.2</ele><time>2022-10-30T16:18:57.0000000+00:00</time></trkpt><trkpt lat="39.48330936" lon="-0.36620677"><ele>-45.2</ele><time>2022-10-30T16:18:58.0000000+00:00</time></trkpt><trkpt lat="39.48331422" lon="-0.36620091"><ele>-45.2</ele><time>2022-10-30T16:18:59.0000000+00:00</time></trkpt><trkpt lat="39.48331992" lon="-0.36619269"><ele>-45.0</ele><time>2022-10-30T16:19:00.0000000+00:00</time></trkpt><trkpt lat="39.48332973" lon="-0.36617895"><ele>-45.0</ele><time>2022-10-30T16:19:01.0000000+00:00</time></trkpt><trkpt lat="39.48333501" lon="-0.36617199"><ele>-45.0</ele><time>2022-10-30T16:19:02.0000000+00:00</time></trkpt><trkpt lat="39.48334113" lon="-0.36616109"><ele>-45.0</ele><time>2022-10-30T16:19:03.0000000+00:00</time></trkpt><trkpt lat="39.48334398" lon="-0.36615011"><ele>-45.0</ele><time>2022-10-30T16:19:04.0000000+00:00</time></trkpt><trkpt lat="39.48334197" lon="-0.36614039"><ele>-45.0</ele><time>2022-10-30T16:19:05.0000000+00:00</time></trkpt><trkpt lat="39.48334306" lon="-0.36612824"><ele>-45.0</ele><time>2022-10-30T16:19:06.0000000+00:00</time></trkpt><trkpt lat="39.48334188" lon="-0.3661165"><ele>-44.8</ele><time>2022-10-30T16:19:07.0000000+00:00</time></trkpt><trkpt lat="39.48333903" lon="-0.3661051"><ele>-44.8</ele><time>2022-10-30T16:19:08.0000000+00:00</time></trkpt><trkpt lat="39.4833397" lon="-0.36609563"><ele>-44.8</ele><time>2022-10-30T16:19:09.0000000+00:00</time></trkpt><trkpt lat="39.48334574" lon="-0.36608021"><ele>-44.8</ele><time>2022-10-30T16:19:10.0000000+00:00</time></trkpt><trkpt lat="39.48335261" lon="-0.36606822"><ele>-44.8</ele><time>2022-10-30T16:19:11.0000000+00:00</time></trkpt><trkpt lat="39.48335898" lon="-0.36605288"><ele>-44.8</ele><time>2022-10-30T16:19:12.0000000+00:00</time></trkpt><trkpt lat="39.48335638" lon="-0.36604249"><ele>-44.8</ele><time>2022-10-30T16:19:13.0000000+00:00</time></trkpt><trkpt lat="39.48334716" lon="-0.36603503"><ele>-44.8</ele><time>2022-10-30T16:19:14.0000000+00:00</time></trkpt><trkpt lat="39.48333761" lon="-0.36602858"><ele>-44.8</ele><time>2022-10-30T16:19:15.0000000+00:00</time></trkpt><trkpt lat="39.48333241" lon="-0.36601936"><ele>-44.8</ele><time>2022-10-30T16:19:16.0000000+00:00</time></trkpt><trkpt lat="39.48332361" lon="-0.36600796"><ele>-44.8</ele><time>2022-10-30T16:19:17.0000000+00:00</time></trkpt><trkpt lat="39.48331623" lon="-0.36599916"><ele>-44.8</ele><time>2022-10-30T16:19:18.0000000+00:00</time></trkpt><trkpt lat="39.48331146" lon="-0.36599195"><ele>-44.8</ele><time>2022-10-30T16:19:19.0000000+00:00</time></trkpt><trkpt lat="39.48331095" lon="-0.36598189"><ele>-44.8</ele><time>2022-10-30T16:19:20.0000000+00:00</time></trkpt><trkpt lat="39.48330995" lon="-0.36597124"><ele>-44.8</ele><time>2022-10-30T16:19:21.0000000+00:00</time></trkpt><trkpt lat="39.48331045" lon="-0.36596236"><ele>-44.8</ele><time>2022-10-30T16:19:22.0000000+00:00</time></trkpt><trkpt lat="39.48330903" lon="-0.36595155"><ele>-44.8</ele><time>2022-10-30T16:19:23.0000000+00:00</time></trkpt><trkpt lat="39.48330911" lon="-0.36593244"><ele>-44.8</ele><time>2022-10-30T16:19:24.0000000+00:00</time></trkpt><trkpt lat="39.48331179" lon="-0.36590687"><ele>-44.8</ele><time>2022-10-30T16:19:25.0000000+00:00</time></trkpt><trkpt lat="39.48331229" lon="-0.36588759"><ele>-44.8</ele><time>2022-10-30T16:19:26.0000000+00:00</time></trkpt><trkpt lat="39.48330777" lon="-0.36587183"><ele>-44.8</ele><time>2022-10-30T16:19:27.0000000+00:00</time></trkpt><trkpt lat="39.48329838" lon="-0.36586077"><ele>-44.8</ele><time>2022-10-30T16:19:28.0000000+00:00</time></trkpt><trkpt lat="39.48329126" lon="-0.36584702"><ele>-44.8</ele><time>2022-10-30T16:19:29.0000000+00:00</time></trkpt><trkpt lat="39.48328522" lon="-0.3658321"><ele>-44.8</ele><time>2022-10-30T16:19:30.0000000+00:00</time></trkpt><trkpt lat="39.48328195" lon="-0.36582003"><ele>-44.6</ele><time>2022-10-30T16:19:31.0000000+00:00</time></trkpt><trkpt lat="39.48327776" lon="-0.36580897"><ele>-44.8</ele><time>2022-10-30T16:19:32.0000000+00:00</time></trkpt><trkpt lat="39.48327659" lon="-0.36580143"><ele>-44.8</ele><time>2022-10-30T16:19:33.0000000+00:00</time></trkpt><trkpt lat="39.48327391" lon="-0.36578952"><ele>-44.8</ele><time>2022-10-30T16:19:34.0000000+00:00</time></trkpt><trkpt lat="39.4832703" lon="-0.36578575"><ele>-44.8</ele><time>2022-10-30T16:19:35.0000000+00:00</time></trkpt><trkpt lat="39.48326217" lon="-0.3657793"><ele>-44.8</ele><time>2022-10-30T16:19:36.0000000+00:00</time></trkpt><trkpt lat="39.48325966" lon="-0.36577033"><ele>-44.8</ele><time>2022-10-30T16:19:37.0000000+00:00</time></trkpt><trkpt lat="39.48325655" lon="-0.36576614"><ele>-44.8</ele><time>2022-10-30T16:19:38.0000000+00:00</time></trkpt><trkpt lat="39.48326393" lon="-0.36575801"><ele>-44.8</ele><time>2022-10-30T16:19:39.0000000+00:00</time></trkpt><trkpt lat="39.48326703" lon="-0.36575574"><ele>-44.8</ele><time>2022-10-30T16:19:40.0000000+00:00</time></trkpt><trkpt lat="39.48326728" lon="-0.36575474"><ele>-44.8</ele><time>2022-10-30T16:19:41.0000000+00:00</time></trkpt><trkpt lat="39.48326611" lon="-0.36575457"><ele>-44.8</ele><time>2022-10-30T16:19:42.0000000+00:00</time></trkpt><trkpt lat="39.48326477" lon="-0.36575491"><ele>-44.8</ele><time>2022-10-30T16:19:43.0000000+00:00</time></trkpt><trkpt lat="39.4832636" lon="-0.36575549"><ele>-44.8</ele><time>2022-10-30T16:19:44.0000000+00:00</time></trkpt><trkpt lat="39.48326242" lon="-0.36575608"><ele>-44.8</ele><time>2022-10-30T16:19:45.0000000+00:00</time></trkpt><trkpt lat="39.48326393" lon="-0.365756"><ele>-44.8</ele><time>2022-10-30T16:19:46.0000000+00:00</time></trkpt><trkpt lat="39.48326376" lon="-0.36575306"><ele>-44.8</ele><time>2022-10-30T16:19:47.0000000+00:00</time></trkpt><trkpt lat="39.48326712" lon="-0.36574502"><ele>-44.8</ele><time>2022-10-30T16:19:48.0000000+00:00</time></trkpt><trkpt lat="39.48326603" lon="-0.36574015"><ele>-44.8</ele><time>2022-10-30T16:19:49.0000000+00:00</time></trkpt><trkpt lat="39.48326804" lon="-0.36572876"><ele>-44.8</ele><time>2022-10-30T16:19:50.0000000+00:00</time></trkpt><trkpt lat="39.48326351" lon="-0.36571006"><ele>-44.8</ele><time>2022-10-30T16:19:51.0000000+00:00</time></trkpt><trkpt lat="39.48325815" lon="-0.36569808"><ele>-44.8</ele><time>2022-10-30T16:19:52.0000000+00:00</time></trkpt><trkpt lat="39.48325027" lon="-0.36568877"><ele>-44.8</ele><time>2022-10-30T16:19:53.0000000+00:00</time></trkpt><trkpt lat="39.48324733" lon="-0.36567763"><ele>-44.8</ele><time>2022-10-30T16:19:54.0000000+00:00</time></trkpt><trkpt lat="39.48324574" lon="-0.36566665"><ele>-44.8</ele><time>2022-10-30T16:19:55.0000000+00:00</time></trkpt><trkpt lat="39.48324457" lon="-0.36565575"><ele>-44.8</ele><time>2022-10-30T16:19:56.0000000+00:00</time></trkpt><trkpt lat="39.48324448" lon="-0.36564301"><ele>-44.8</ele><time>2022-10-30T16:19:57.0000000+00:00</time></trkpt><trkpt lat="39.48324423" lon="-0.3656332"><ele>-44.8</ele><time>2022-10-30T16:19:58.0000000+00:00</time></trkpt><trkpt lat="39.48324289" lon="-0.3656223"><ele>-44.8</ele><time>2022-10-30T16:19:59.0000000+00:00</time></trkpt><trkpt lat="39.48324373" lon="-0.3656104"><ele>-44.8</ele><time>2022-10-30T16:20:00.0000000+00:00</time></trkpt><trkpt lat="39.48324314" lon="-0.365599"><ele>-44.8</ele><time>2022-10-30T16:20:01.0000000+00:00</time></trkpt><trkpt lat="39.48323879" lon="-0.36558802"><ele>-44.8</ele><time>2022-10-30T16:20:02.0000000+00:00</time></trkpt><trkpt lat="39.48323334" lon="-0.36557679"><ele>-44.8</ele><time>2022-10-30T16:20:03.0000000+00:00</time></trkpt><trkpt lat="39.48323065" lon="-0.36556807"><ele>-44.8</ele><time>2022-10-30T16:20:04.0000000+00:00</time></trkpt><trkpt lat="39.48323183" lon="-0.36555709"><ele>-44.8</ele><time>2022-10-30T16:20:05.0000000+00:00</time></trkpt><trkpt lat="39.48323216" lon="-0.36554611"><ele>-44.8</ele><time>2022-10-30T16:20:06.0000000+00:00</time></trkpt><trkpt lat="39.48323183" lon="-0.3655379"><ele>-44.8</ele><time>2022-10-30T16:20:07.0000000+00:00</time></trkpt><trkpt lat="39.48322655" lon="-0.36553044"><ele>-44.6</ele><time>2022-10-30T16:20:08.0000000+00:00</time></trkpt><trkpt lat="39.48322194" lon="-0.36552222"><ele>-44.6</ele><time>2022-10-30T16:20:09.0000000+00:00</time></trkpt><trkpt lat="39.48322185" lon="-0.36551317"><ele>-44.6</ele><time>2022-10-30T16:20:10.0000000+00:00</time></trkpt><trkpt lat="39.48321842" lon="-0.36550546"><ele>-44.6</ele><time>2022-10-30T16:20:11.0000000+00:00</time></trkpt><trkpt lat="39.48321297" lon="-0.36549867"><ele>-44.6</ele><time>2022-10-30T16:20:12.0000000+00:00</time></trkpt><trkpt lat="39.48320878" lon="-0.36549029"><ele>-44.6</ele><time>2022-10-30T16:20:13.0000000+00:00</time></trkpt><trkpt lat="39.48320434" lon="-0.36548685"><ele>-44.6</ele><time>2022-10-30T16:20:14.0000000+00:00</time></trkpt><trkpt lat="39.48320283" lon="-0.36548208"><ele>-44.6</ele><time>2022-10-30T16:20:15.0000000+00:00</time></trkpt><trkpt lat="39.4832014" lon="-0.36547327"><ele>-44.6</ele><time>2022-10-30T16:20:16.0000000+00:00</time></trkpt><trkpt lat="39.48319973" lon="-0.36546489"><ele>-44.6</ele><time>2022-10-30T16:20:17.0000000+00:00</time></trkpt><trkpt lat="39.48319621" lon="-0.36545618"><ele>-44.6</ele><time>2022-10-30T16:20:18.0000000+00:00</time></trkpt><trkpt lat="39.48319486" lon="-0.36543924"><ele>-44.6</ele><time>2022-10-30T16:20:19.0000000+00:00</time></trkpt><trkpt lat="39.48318791" lon="-0.36542776"><ele>-44.6</ele><time>2022-10-30T16:20:20.0000000+00:00</time></trkpt><trkpt lat="39.48318338" lon="-0.36541242"><ele>-44.6</ele><time>2022-10-30T16:20:21.0000000+00:00</time></trkpt><trkpt lat="39.48318103" lon="-0.36540345"><ele>-44.6</ele><time>2022-10-30T16:20:22.0000000+00:00</time></trkpt><trkpt lat="39.48317936" lon="-0.36539524"><ele>-44.6</ele><time>2022-10-30T16:20:23.0000000+00:00</time></trkpt><trkpt lat="39.48317844" lon="-0.36538518"><ele>-44.6</ele><time>2022-10-30T16:20:24.0000000+00:00</time></trkpt><trkpt lat="39.48317131" lon="-0.36537806"><ele>-44.6</ele><time>2022-10-30T16:20:25.0000000+00:00</time></trkpt><trkpt lat="39.48316427" lon="-0.36536984"><ele>-44.6</ele><time>2022-10-30T16:20:26.0000000+00:00</time></trkpt><trkpt lat="39.48315731" lon="-0.36536305"><ele>-44.6</ele><time>2022-10-30T16:20:27.0000000+00:00</time></trkpt><trkpt lat="39.4831517" lon="-0.36535484"><ele>-44.6</ele><time>2022-10-30T16:20:28.0000000+00:00</time></trkpt><trkpt lat="39.48314357" lon="-0.36534361"><ele>-44.6</ele><time>2022-10-30T16:20:29.0000000+00:00</time></trkpt><trkpt lat="39.48313753" lon="-0.36533078"><ele>-44.4</ele><time>2022-10-30T16:20:30.0000000+00:00</time></trkpt><trkpt lat="39.48313275" lon="-0.36531846"><ele>-44.4</ele><time>2022-10-30T16:20:31.0000000+00:00</time></trkpt><trkpt lat="39.48313183" lon="-0.36530748"><ele>-44.0</ele><time>2022-10-30T16:20:32.0000000+00:00</time></trkpt><trkpt lat="39.48312722" lon="-0.36529432"><ele>-44.0</ele><time>2022-10-30T16:20:33.0000000+00:00</time></trkpt><trkpt lat="39.48312052" lon="-0.36528208"><ele>-44.0</ele><time>2022-10-30T16:20:34.0000000+00:00</time></trkpt><trkpt lat="39.48311943" lon="-0.36526959"><ele>-44.0</ele><time>2022-10-30T16:20:35.0000000+00:00</time></trkpt><trkpt lat="39.48311884" lon="-0.36525752"><ele>-44.0</ele><time>2022-10-30T16:20:36.0000000+00:00</time></trkpt><trkpt lat="39.48311624" lon="-0.36524713"><ele>-44.0</ele><time>2022-10-30T16:20:37.0000000+00:00</time></trkpt><trkpt lat="39.48311163" lon="-0.36523741"><ele>-44.4</ele><time>2022-10-30T16:20:38.0000000+00:00</time></trkpt><trkpt lat="39.48310903" lon="-0.36522626"><ele>-44.4</ele><time>2022-10-30T16:20:39.0000000+00:00</time></trkpt><trkpt lat="39.48311037" lon="-0.36521176"><ele>-44.6</ele><time>2022-10-30T16:20:40.0000000+00:00</time></trkpt><trkpt lat="39.48310669" lon="-0.36519927"><ele>-44.6</ele><time>2022-10-30T16:20:41.0000000+00:00</time></trkpt><trkpt lat="39.48310518" lon="-0.36518334"><ele>-44.6</ele><time>2022-10-30T16:20:42.0000000+00:00</time></trkpt><trkpt lat="39.48310535" lon="-0.36516641"><ele>-44.6</ele><time>2022-10-30T16:20:43.0000000+00:00</time></trkpt><trkpt lat="39.48310074" lon="-0.365153"><ele>-44.6</ele><time>2022-10-30T16:20:44.0000000+00:00</time></trkpt><trkpt lat="39.48309562" lon="-0.36513984"><ele>-44.6</ele><time>2022-10-30T16:20:45.0000000+00:00</time></trkpt><trkpt lat="39.48309286" lon="-0.36512668"><ele>-44.6</ele><time>2022-10-30T16:20:46.0000000+00:00</time></trkpt><trkpt lat="39.48308917" lon="-0.36511671"><ele>-44.6</ele><time>2022-10-30T16:20:47.0000000+00:00</time></trkpt><trkpt lat="39.48308892" lon="-0.36510288"><ele>-44.6</ele><time>2022-10-30T16:20:48.0000000+00:00</time></trkpt><trkpt lat="39.48308749" lon="-0.36508955"><ele>-44.6</ele><time>2022-10-30T16:20:49.0000000+00:00</time></trkpt><trkpt lat="39.48308925" lon="-0.36507388"><ele>-44.6</ele><time>2022-10-30T16:20:50.0000000+00:00</time></trkpt><trkpt lat="39.48309017" lon="-0.36505619"><ele>-44.6</ele><time>2022-10-30T16:20:51.0000000+00:00</time></trkpt><trkpt lat="39.48309093" lon="-0.36504043"><ele>-44.6</ele><time>2022-10-30T16:20:52.0000000+00:00</time></trkpt><trkpt lat="39.48309101" lon="-0.36502493"><ele>-44.6</ele><time>2022-10-30T16:20:53.0000000+00:00</time></trkpt><trkpt lat="39.48309084" lon="-0.36501294"><ele>-44.6</ele><time>2022-10-30T16:20:54.0000000+00:00</time></trkpt><trkpt lat="39.48309185" lon="-0.36500012"><ele>-44.6</ele><time>2022-10-30T16:20:55.0000000+00:00</time></trkpt><trkpt lat="39.48309328" lon="-0.36498629"><ele>-44.6</ele><time>2022-10-30T16:20:56.0000000+00:00</time></trkpt><trkpt lat="39.48309059" lon="-0.36497296"><ele>-44.6</ele><time>2022-10-30T16:20:57.0000000+00:00</time></trkpt><trkpt lat="39.48308406" lon="-0.36495427"><ele>-44.6</ele><time>2022-10-30T16:20:58.0000000+00:00</time></trkpt><trkpt lat="39.4830776" lon="-0.364937"><ele>-44.6</ele><time>2022-10-30T16:20:59.0000000+00:00</time></trkpt><trkpt lat="39.48305346" lon="-0.36490582"><ele>-44.6</ele><time>2022-10-30T16:21:00.0000000+00:00</time></trkpt><trkpt lat="39.48304307" lon="-0.36489056"><ele>-44.6</ele><time>2022-10-30T16:21:01.0000000+00:00</time></trkpt><trkpt lat="39.48303737" lon="-0.36488176"><ele>-44.6</ele><time>2022-10-30T16:21:02.0000000+00:00</time></trkpt><trkpt lat="39.48303318" lon="-0.36486969"><ele>-44.6</ele><time>2022-10-30T16:21:03.0000000+00:00</time></trkpt><trkpt lat="39.48302907" lon="-0.36486064"><ele>-44.8</ele><time>2022-10-30T16:21:04.0000000+00:00</time></trkpt><trkpt lat="39.483017" lon="-0.36484505"><ele>-44.8</ele><time>2022-10-30T16:21:05.0000000+00:00</time></trkpt><trkpt lat="39.48300451" lon="-0.36483139"><ele>-44.8</ele><time>2022-10-30T16:21:06.0000000+00:00</time></trkpt><trkpt lat="39.48299931" lon="-0.36482024"><ele>-44.6</ele><time>2022-10-30T16:21:07.0000000+00:00</time></trkpt><trkpt lat="39.48299588" lon="-0.36480582"><ele>-44.6</ele><time>2022-10-30T16:21:08.0000000+00:00</time></trkpt><trkpt lat="39.4829973" lon="-0.36479551"><ele>-44.6</ele><time>2022-10-30T16:21:09.0000000+00:00</time></trkpt><trkpt lat="39.48299898" lon="-0.36478956"><ele>-44.6</ele><time>2022-10-30T16:21:10.0000000+00:00</time></trkpt><trkpt lat="39.48299554" lon="-0.36478705"><ele>-44.6</ele><time>2022-10-30T16:21:11.0000000+00:00</time></trkpt><trkpt lat="39.48299873" lon="-0.36477875"><ele>-44.6</ele><time>2022-10-30T16:21:12.0000000+00:00</time></trkpt><trkpt lat="39.48300568" lon="-0.36476911"><ele>-44.8</ele><time>2022-10-30T16:21:13.0000000+00:00</time></trkpt><trkpt lat="39.48301449" lon="-0.36476584"><ele>-44.8</ele><time>2022-10-30T16:21:14.0000000+00:00</time></trkpt><trkpt lat="39.4830191" lon="-0.36476609"><ele>-44.8</ele><time>2022-10-30T16:21:15.0000000+00:00</time></trkpt><trkpt lat="39.48302454" lon="-0.36476224"><ele>-44.6</ele><time>2022-10-30T16:21:16.0000000+00:00</time></trkpt><trkpt lat="39.48302815" lon="-0.36476098"><ele>-44.6</ele><time>2022-10-30T16:21:17.0000000+00:00</time></trkpt><trkpt lat="39.4830248" lon="-0.36476433"><ele>-44.6</ele><time>2022-10-30T16:21:18.0000000+00:00</time></trkpt><trkpt lat="39.48302547" lon="-0.36475478"><ele>-44.6</ele><time>2022-10-30T16:21:19.0000000+00:00</time></trkpt><trkpt lat="39.48303242" lon="-0.36475084"><ele>-44.6</ele><time>2022-10-30T16:21:20.0000000+00:00</time></trkpt><trkpt lat="39.48303762" lon="-0.3647495"><ele>-44.6</ele><time>2022-10-30T16:21:21.0000000+00:00</time></trkpt><trkpt lat="39.4830424" lon="-0.36474992"><ele>-44.6</ele><time>2022-10-30T16:21:22.0000000+00:00</time></trkpt><trkpt lat="39.48304609" lon="-0.36474606"><ele>-44.6</ele><time>2022-10-30T16:21:23.0000000+00:00</time></trkpt><trkpt lat="39.48304558" lon="-0.36474556"><ele>-44.6</ele><time>2022-10-30T16:21:24.0000000+00:00</time></trkpt><trkpt lat="39.48303477" lon="-0.36474966"><ele>-44.6</ele><time>2022-10-30T16:21:25.0000000+00:00</time></trkpt><trkpt lat="39.48303284" lon="-0.36475109"><ele>-44.6</ele><time>2022-10-30T16:21:26.0000000+00:00</time></trkpt><trkpt lat="39.48302588" lon="-0.3647531"><ele>-44.6</ele><time>2022-10-30T16:21:27.0000000+00:00</time></trkpt><trkpt lat="39.48302312" lon="-0.36475268"><ele>-44.6</ele><time>2022-10-30T16:21:28.0000000+00:00</time></trkpt><trkpt lat="39.48302019" lon="-0.36475369"><ele>-44.6</ele><time>2022-10-30T16:21:29.0000000+00:00</time></trkpt><trkpt lat="39.48301013" lon="-0.3647557"><ele>-44.6</ele><time>2022-10-30T16:21:30.0000000+00:00</time></trkpt><trkpt lat="39.48299605" lon="-0.36476165"><ele>-44.6</ele><time>2022-10-30T16:21:31.0000000+00:00</time></trkpt><trkpt lat="39.4829761" lon="-0.36476961"><ele>-44.6</ele><time>2022-10-30T16:21:32.0000000+00:00</time></trkpt><trkpt lat="39.48295137" lon="-0.36478277"><ele>-44.6</ele><time>2022-10-30T16:21:33.0000000+00:00</time></trkpt><trkpt lat="39.48291508" lon="-0.36480306"><ele>-44.6</ele><time>2022-10-30T16:21:34.0000000+00:00</time></trkpt><trkpt lat="39.48289018" lon="-0.36481555"><ele>-44.6</ele><time>2022-10-30T16:21:35.0000000+00:00</time></trkpt><trkpt lat="39.48288322" lon="-0.36482083"><ele>-44.6</ele><time>2022-10-30T16:21:36.0000000+00:00</time></trkpt><trkpt lat="39.48288222" lon="-0.36482351"><ele>-44.6</ele><time>2022-10-30T16:21:37.0000000+00:00</time></trkpt><trkpt lat="39.48288188" lon="-0.36482745"><ele>-44.6</ele><time>2022-10-30T16:21:38.0000000+00:00</time></trkpt><trkpt lat="39.48288297" lon="-0.36483181"><ele>-44.6</ele><time>2022-10-30T16:21:39.0000000+00:00</time></trkpt><trkpt lat="39.48288725" lon="-0.36482896"><ele>-44.6</ele><time>2022-10-30T16:21:40.0000000+00:00</time></trkpt><trkpt lat="39.48289119" lon="-0.36482745"><ele>-44.6</ele><time>2022-10-30T16:21:41.0000000+00:00</time></trkpt><trkpt lat="39.48289169" lon="-0.36482845"><ele>-44.6</ele><time>2022-10-30T16:21:42.0000000+00:00</time></trkpt><trkpt lat="39.48289203" lon="-0.36483022"><ele>-44.6</ele><time>2022-10-30T16:21:43.0000000+00:00</time></trkpt><trkpt lat="39.48289454" lon="-0.36482577"><ele>-44.6</ele><time>2022-10-30T16:21:44.0000000+00:00</time></trkpt><trkpt lat="39.48288809" lon="-0.36482158"><ele>-44.6</ele><time>2022-10-30T16:21:45.0000000+00:00</time></trkpt><trkpt lat="39.48288934" lon="-0.36482334"><ele>-44.6</ele><time>2022-10-30T16:21:46.0000000+00:00</time></trkpt><trkpt lat="39.48288591" lon="-0.36481789"><ele>-44.6</ele><time>2022-10-30T16:21:47.0000000+00:00</time></trkpt><trkpt lat="39.48288733" lon="-0.36481856"><ele>-44.6</ele><time>2022-10-30T16:21:48.0000000+00:00</time></trkpt><trkpt lat="39.48289077" lon="-0.36481605"><ele>-44.4</ele><time>2022-10-30T16:21:49.0000000+00:00</time></trkpt><trkpt lat="39.48290024" lon="-0.3648075"><ele>-44.4</ele><time>2022-10-30T16:21:50.0000000+00:00</time></trkpt><trkpt lat="39.48291189" lon="-0.36479602"><ele>-44.4</ele><time>2022-10-30T16:21:51.0000000+00:00</time></trkpt><trkpt lat="39.48292161" lon="-0.36479618"><ele>-44.4</ele><time>2022-10-30T16:21:52.0000000+00:00</time></trkpt><trkpt lat="39.48293176" lon="-0.36479149"><ele>-44.4</ele><time>2022-10-30T16:21:53.0000000+00:00</time></trkpt><trkpt lat="39.4829414" lon="-0.3647894"><ele>-44.4</ele><time>2022-10-30T16:21:54.0000000+00:00</time></trkpt><trkpt lat="39.48295196" lon="-0.3647925"><ele>-44.4</ele><time>2022-10-30T16:21:55.0000000+00:00</time></trkpt><trkpt lat="39.48296403" lon="-0.36480038"><ele>-44.4</ele><time>2022-10-30T16:21:56.0000000+00:00</time></trkpt><trkpt lat="39.48298054" lon="-0.36479987"><ele>-44.4</ele><time>2022-10-30T16:21:57.0000000+00:00</time></trkpt><trkpt lat="39.48299697" lon="-0.36479585"><ele>-44.4</ele><time>2022-10-30T16:21:58.0000000+00:00</time></trkpt><trkpt lat="39.48300803" lon="-0.36479275"><ele>-44.4</ele><time>2022-10-30T16:21:59.0000000+00:00</time></trkpt><trkpt lat="39.48301985" lon="-0.36478805"><ele>-44.4</ele><time>2022-10-30T16:22:00.0000000+00:00</time></trkpt><trkpt lat="39.48303385" lon="-0.36478244"><ele>-44.4</ele><time>2022-10-30T16:22:01.0000000+00:00</time></trkpt><trkpt lat="39.48305002" lon="-0.36477028"><ele>-44.6</ele><time>2022-10-30T16:22:02.0000000+00:00</time></trkpt><trkpt lat="39.48306494" lon="-0.36475645"><ele>-44.6</ele><time>2022-10-30T16:22:03.0000000+00:00</time></trkpt><trkpt lat="39.48307701" lon="-0.36474187"><ele>-44.6</ele><time>2022-10-30T16:22:04.0000000+00:00</time></trkpt><trkpt lat="39.48308959" lon="-0.36472762"><ele>-44.6</ele><time>2022-10-30T16:22:05.0000000+00:00</time></trkpt><trkpt lat="39.48309395" lon="-0.36472527"><ele>-44.6</ele><time>2022-10-30T16:22:06.0000000+00:00</time></trkpt><trkpt lat="39.48310643" lon="-0.36471773"><ele>-44.6</ele><time>2022-10-30T16:22:07.0000000+00:00</time></trkpt><trkpt lat="39.48311892" lon="-0.36471589"><ele>-44.4</ele><time>2022-10-30T16:22:08.0000000+00:00</time></trkpt><trkpt lat="39.48313183" lon="-0.36471295"><ele>-44.4</ele><time>2022-10-30T16:22:09.0000000+00:00</time></trkpt><trkpt lat="39.48315027" lon="-0.36470382"><ele>-44.4</ele><time>2022-10-30T16:22:10.0000000+00:00</time></trkpt><trkpt lat="39.48317165" lon="-0.36469569"><ele>-44.4</ele><time>2022-10-30T16:22:11.0000000+00:00</time></trkpt><trkpt lat="39.48319109" lon="-0.36468563"><ele>-44.4</ele><time>2022-10-30T16:22:12.0000000+00:00</time></trkpt><trkpt lat="39.48321029" lon="-0.36467624"><ele>-44.2</ele><time>2022-10-30T16:22:13.0000000+00:00</time></trkpt><trkpt lat="39.48323141" lon="-0.36466006"><ele>-44.2</ele><time>2022-10-30T16:22:14.0000000+00:00</time></trkpt><trkpt lat="39.48325538" lon="-0.36464665"><ele>-44.4</ele><time>2022-10-30T16:22:15.0000000+00:00</time></trkpt><trkpt lat="39.48327449" lon="-0.3646257"><ele>-44.4</ele><time>2022-10-30T16:22:16.0000000+00:00</time></trkpt><trkpt lat="39.4832869" lon="-0.36462067"><ele>-44.4</ele><time>2022-10-30T16:22:17.0000000+00:00</time></trkpt><trkpt lat="39.48330182" lon="-0.36460667"><ele>-44.6</ele><time>2022-10-30T16:22:18.0000000+00:00</time></trkpt><trkpt lat="39.48331724" lon="-0.36459385"><ele>-44.6</ele><time>2022-10-30T16:22:19.0000000+00:00</time></trkpt><trkpt lat="39.48332956" lon="-0.36458748"><ele>-44.6</ele><time>2022-10-30T16:22:20.0000000+00:00</time></trkpt><trkpt lat="39.48334121" lon="-0.3645806"><ele>-44.6</ele><time>2022-10-30T16:22:21.0000000+00:00</time></trkpt><trkpt lat="39.48334959" lon="-0.36457608"><ele>-44.6</ele><time>2022-10-30T16:22:22.0000000+00:00</time></trkpt><trkpt lat="39.48335764" lon="-0.36457524"><ele>-44.6</ele><time>2022-10-30T16:22:23.0000000+00:00</time></trkpt><trkpt lat="39.48336552" lon="-0.36457289"><ele>-44.8</ele><time>2022-10-30T16:22:24.0000000+00:00</time></trkpt><trkpt lat="39.48337155" lon="-0.36456903"><ele>-44.8</ele><time>2022-10-30T16:22:25.0000000+00:00</time></trkpt><trkpt lat="39.4833703" lon="-0.36457147"><ele>-44.8</ele><time>2022-10-30T16:22:26.0000000+00:00</time></trkpt><trkpt lat="39.48337524" lon="-0.36457465"><ele>-44.8</ele><time>2022-10-30T16:22:27.0000000+00:00</time></trkpt><trkpt lat="39.48338907" lon="-0.36457415"><ele>-44.8</ele><time>2022-10-30T16:22:28.0000000+00:00</time></trkpt><trkpt lat="39.483406" lon="-0.3645661"><ele>-44.8</ele><time>2022-10-30T16:22:29.0000000+00:00</time></trkpt><trkpt lat="39.48342369" lon="-0.36455906"><ele>-44.8</ele><time>2022-10-30T16:22:30.0000000+00:00</time></trkpt><trkpt lat="39.4834366" lon="-0.36455168"><ele>-44.8</ele><time>2022-10-30T16:22:31.0000000+00:00</time></trkpt><trkpt lat="39.48344858" lon="-0.36455797"><ele>-44.8</ele><time>2022-10-30T16:22:32.0000000+00:00</time></trkpt><trkpt lat="39.48346124" lon="-0.36456677"><ele>-44.8</ele><time>2022-10-30T16:22:33.0000000+00:00</time></trkpt><trkpt lat="39.48347314" lon="-0.36456208"><ele>-44.8</ele><time>2022-10-30T16:22:34.0000000+00:00</time></trkpt><trkpt lat="39.4834827" lon="-0.36456216"><ele>-44.8</ele><time>2022-10-30T16:22:35.0000000+00:00</time></trkpt><trkpt lat="39.48348873" lon="-0.36455772"><ele>-44.8</ele><time>2022-10-30T16:22:36.0000000+00:00</time></trkpt><trkpt lat="39.48349343" lon="-0.36455252"><ele>-44.8</ele><time>2022-10-30T16:22:37.0000000+00:00</time></trkpt><trkpt lat="39.48349929" lon="-0.36454531"><ele>-44.8</ele><time>2022-10-30T16:22:38.0000000+00:00</time></trkpt><trkpt lat="39.48350566" lon="-0.36453685"><ele>-44.8</ele><time>2022-10-30T16:22:39.0000000+00:00</time></trkpt><trkpt lat="39.48351589" lon="-0.36452964"><ele>-44.8</ele><time>2022-10-30T16:22:40.0000000+00:00</time></trkpt><trkpt lat="39.48352612" lon="-0.36452092"><ele>-44.8</ele><time>2022-10-30T16:22:41.0000000+00:00</time></trkpt><trkpt lat="39.48353685" lon="-0.3645076"><ele>-44.8</ele><time>2022-10-30T16:22:42.0000000+00:00</time></trkpt><trkpt lat="39.48354472" lon="-0.36449477"><ele>-44.8</ele><time>2022-10-30T16:22:43.0000000+00:00</time></trkpt><trkpt lat="39.48355101" lon="-0.36448421"><ele>-44.8</ele><time>2022-10-30T16:22:44.0000000+00:00</time></trkpt><trkpt lat="39.48355822" lon="-0.36447289"><ele>-44.8</ele><time>2022-10-30T16:22:45.0000000+00:00</time></trkpt><trkpt lat="39.48356627" lon="-0.36446024"><ele>-44.8</ele><time>2022-10-30T16:22:46.0000000+00:00</time></trkpt><trkpt lat="39.48357557" lon="-0.36445186"><ele>-44.8</ele><time>2022-10-30T16:22:47.0000000+00:00</time></trkpt><trkpt lat="39.48358714" lon="-0.36444448"><ele>-44.8</ele><time>2022-10-30T16:22:48.0000000+00:00</time></trkpt><trkpt lat="39.48359686" lon="-0.36443928"><ele>-45.0</ele><time>2022-10-30T16:22:49.0000000+00:00</time></trkpt><trkpt lat="39.483606" lon="-0.36443937"><ele>-45.0</ele><time>2022-10-30T16:22:50.0000000+00:00</time></trkpt><trkpt lat="39.48361086" lon="-0.36443476"><ele>-45.0</ele><time>2022-10-30T16:22:51.0000000+00:00</time></trkpt><trkpt lat="39.48361974" lon="-0.36442344"><ele>-44.8</ele><time>2022-10-30T16:22:52.0000000+00:00</time></trkpt><trkpt lat="39.48362812" lon="-0.36442562"><ele>-44.8</ele><time>2022-10-30T16:22:53.0000000+00:00</time></trkpt><trkpt lat="39.48363542" lon="-0.36442688"><ele>-44.8</ele><time>2022-10-30T16:22:54.0000000+00:00</time></trkpt><trkpt lat="39.48363793" lon="-0.36442487"><ele>-44.8</ele><time>2022-10-30T16:22:55.0000000+00:00</time></trkpt><trkpt lat="39.48363969" lon="-0.36442059"><ele>-44.8</ele><time>2022-10-30T16:22:56.0000000+00:00</time></trkpt><trkpt lat="39.48364212" lon="-0.36441875"><ele>-45.0</ele><time>2022-10-30T16:22:57.0000000+00:00</time></trkpt><trkpt lat="39.48364799" lon="-0.36441288"><ele>-45.0</ele><time>2022-10-30T16:22:58.0000000+00:00</time></trkpt><trkpt lat="39.48365687" lon="-0.36440081"><ele>-45.0</ele><time>2022-10-30T16:22:59.0000000+00:00</time></trkpt><trkpt lat="39.48366827" lon="-0.36438354"><ele>-45.0</ele><time>2022-10-30T16:23:00.0000000+00:00</time></trkpt><trkpt lat="39.48368361" lon="-0.36436175"><ele>-45.0</ele><time>2022-10-30T16:23:01.0000000+00:00</time></trkpt><trkpt lat="39.48370834" lon="-0.36432386"><ele>-45.0</ele><time>2022-10-30T16:23:02.0000000+00:00</time></trkpt><trkpt lat="39.48371714" lon="-0.36430341"><ele>-45.0</ele><time>2022-10-30T16:23:03.0000000+00:00</time></trkpt><trkpt lat="39.48372418" lon="-0.36428782"><ele>-45.0</ele><time>2022-10-30T16:23:04.0000000+00:00</time></trkpt><trkpt lat="39.48373214" lon="-0.3642688"><ele>-45.0</ele><time>2022-10-30T16:23:05.0000000+00:00</time></trkpt><trkpt lat="39.48374036" lon="-0.36425421"><ele>-45.0</ele><time>2022-10-30T16:23:06.0000000+00:00</time></trkpt><trkpt lat="39.48375251" lon="-0.36424113"><ele>-45.0</ele><time>2022-10-30T16:23:07.0000000+00:00</time></trkpt><trkpt lat="39.48376668" lon="-0.36423493"><ele>-45.0</ele><time>2022-10-30T16:23:08.0000000+00:00</time></trkpt><trkpt lat="39.48378302" lon="-0.36423418"><ele>-45.2</ele><time>2022-10-30T16:23:09.0000000+00:00</time></trkpt><trkpt lat="39.48380155" lon="-0.3642299"><ele>-45.2</ele><time>2022-10-30T16:23:10.0000000+00:00</time></trkpt><trkpt lat="39.4838173" lon="-0.36422295"><ele>-45.2</ele><time>2022-10-30T16:23:11.0000000+00:00</time></trkpt><trkpt lat="39.48383164" lon="-0.36421331"><ele>-45.2</ele><time>2022-10-30T16:23:12.0000000+00:00</time></trkpt><trkpt lat="39.48384631" lon="-0.36420685"><ele>-45.2</ele><time>2022-10-30T16:23:13.0000000+00:00</time></trkpt><trkpt lat="39.48386072" lon="-0.36419981"><ele>-45.2</ele><time>2022-10-30T16:23:14.0000000+00:00</time></trkpt><trkpt lat="39.48387665" lon="-0.36419747"><ele>-45.2</ele><time>2022-10-30T16:23:15.0000000+00:00</time></trkpt><trkpt lat="39.48389299" lon="-0.36419487"><ele>-45.2</ele><time>2022-10-30T16:23:16.0000000+00:00</time></trkpt><trkpt lat="39.48389551" lon="-0.36419009"><ele>-45.2</ele><time>2022-10-30T16:23:17.0000000+00:00</time></trkpt><trkpt lat="39.48391076" lon="-0.36418372"><ele>-45.2</ele><time>2022-10-30T16:23:18.0000000+00:00</time></trkpt><trkpt lat="39.48393054" lon="-0.36417785"><ele>-45.2</ele><time>2022-10-30T16:23:19.0000000+00:00</time></trkpt><trkpt lat="39.48394924" lon="-0.36417224"><ele>-45.2</ele><time>2022-10-30T16:23:20.0000000+00:00</time></trkpt><trkpt lat="39.483967" lon="-0.36416788"><ele>-45.2</ele><time>2022-10-30T16:23:21.0000000+00:00</time></trkpt><trkpt lat="39.48398503" lon="-0.36416469"><ele>-45.2</ele><time>2022-10-30T16:23:22.0000000+00:00</time></trkpt><trkpt lat="39.48400984" lon="-0.36416075"><ele>-45.2</ele><time>2022-10-30T16:23:23.0000000+00:00</time></trkpt><trkpt lat="39.48403565" lon="-0.364161"><ele>-45.2</ele><time>2022-10-30T16:23:24.0000000+00:00</time></trkpt><trkpt lat="39.48406046" lon="-0.36415363"><ele>-45.2</ele><time>2022-10-30T16:23:25.0000000+00:00</time></trkpt><trkpt lat="39.48408117" lon="-0.36414097"><ele>-45.2</ele><time>2022-10-30T16:23:26.0000000+00:00</time></trkpt><trkpt lat="39.48409994" lon="-0.36412588"><ele>-45.2</ele><time>2022-10-30T16:23:27.0000000+00:00</time></trkpt><trkpt lat="39.48411386" lon="-0.36410292"><ele>-45.2</ele><time>2022-10-30T16:23:28.0000000+00:00</time></trkpt><trkpt lat="39.48412903" lon="-0.36408582"><ele>-45.4</ele><time>2022-10-30T16:23:29.0000000+00:00</time></trkpt><trkpt lat="39.48413976" lon="-0.36407467"><ele>-45.4</ele><time>2022-10-30T16:23:30.0000000+00:00</time></trkpt><trkpt lat="39.48415116" lon="-0.3640595"><ele>-45.4</ele><time>2022-10-30T16:23:31.0000000+00:00</time></trkpt><trkpt lat="39.48416507" lon="-0.36404835"><ele>-45.4</ele><time>2022-10-30T16:23:32.0000000+00:00</time></trkpt><trkpt lat="39.48417999" lon="-0.36403888"><ele>-45.4</ele><time>2022-10-30T16:23:33.0000000+00:00</time></trkpt><trkpt lat="39.48419415" lon="-0.36402522"><ele>-45.4</ele><time>2022-10-30T16:23:34.0000000+00:00</time></trkpt><trkpt lat="39.4842084" lon="-0.36401097"><ele>-45.4</ele><time>2022-10-30T16:23:35.0000000+00:00</time></trkpt><trkpt lat="39.48421603" lon="-0.36399253"><ele>-45.4</ele><time>2022-10-30T16:23:36.0000000+00:00</time></trkpt><trkpt lat="39.48421896" lon="-0.36397585"><ele>-45.4</ele><time>2022-10-30T16:23:37.0000000+00:00</time></trkpt><trkpt lat="39.48423036" lon="-0.36395908"><ele>-45.4</ele><time>2022-10-30T16:23:38.0000000+00:00</time></trkpt><trkpt lat="39.48424352" lon="-0.36394852"><ele>-45.4</ele><time>2022-10-30T16:23:39.0000000+00:00</time></trkpt><trkpt lat="39.4842654" lon="-0.36394559"><ele>-45.4</ele><time>2022-10-30T16:23:40.0000000+00:00</time></trkpt><trkpt lat="39.484283" lon="-0.36394626"><ele>-45.4</ele><time>2022-10-30T16:23:41.0000000+00:00</time></trkpt><trkpt lat="39.4842975" lon="-0.36394626"><ele>-45.6</ele><time>2022-10-30T16:23:42.0000000+00:00</time></trkpt><trkpt lat="39.48431226" lon="-0.36394559"><ele>-45.6</ele><time>2022-10-30T16:23:43.0000000+00:00</time></trkpt><trkpt lat="39.48432583" lon="-0.36394215"><ele>-45.6</ele><time>2022-10-30T16:23:44.0000000+00:00</time></trkpt><trkpt lat="39.48434251" lon="-0.36394182"><ele>-45.6</ele><time>2022-10-30T16:23:45.0000000+00:00</time></trkpt><trkpt lat="39.48436623" lon="-0.36395799"><ele>-45.6</ele><time>2022-10-30T16:23:46.0000000+00:00</time></trkpt><trkpt lat="39.48438241" lon="-0.36396571"><ele>-45.6</ele><time>2022-10-30T16:23:47.0000000+00:00</time></trkpt><trkpt lat="39.48438803" lon="-0.36394651"><ele>-45.6</ele><time>2022-10-30T16:23:48.0000000+00:00</time></trkpt><trkpt lat="39.48439348" lon="-0.36393025"><ele>-45.6</ele><time>2022-10-30T16:23:49.0000000+00:00</time></trkpt><trkpt lat="39.48440471" lon="-0.36392178"><ele>-45.6</ele><time>2022-10-30T16:23:50.0000000+00:00</time></trkpt><trkpt lat="39.48440597" lon="-0.36391064"><ele>-45.6</ele><time>2022-10-30T16:23:51.0000000+00:00</time></trkpt><trkpt lat="39.4844099" lon="-0.36391198"><ele>-45.6</ele><time>2022-10-30T16:23:52.0000000+00:00</time></trkpt><trkpt lat="39.48441644" lon="-0.36390544"><ele>-45.8</ele><time>2022-10-30T16:23:53.0000000+00:00</time></trkpt><trkpt lat="39.48442843" lon="-0.36389262"><ele>-45.8</ele><time>2022-10-30T16:23:54.0000000+00:00</time></trkpt><trkpt lat="39.48442365" lon="-0.36388071"><ele>-45.8</ele><time>2022-10-30T16:23:55.0000000+00:00</time></trkpt><trkpt lat="39.48441854" lon="-0.36386697"><ele>-45.8</ele><time>2022-10-30T16:23:56.0000000+00:00</time></trkpt><trkpt lat="39.48441401" lon="-0.36385414"><ele>-45.8</ele><time>2022-10-30T16:23:57.0000000+00:00</time></trkpt><trkpt lat="39.48441175" lon="-0.36384341"><ele>-45.8</ele><time>2022-10-30T16:23:58.0000000+00:00</time></trkpt><trkpt lat="39.48441175" lon="-0.3638378"><ele>-45.8</ele><time>2022-10-30T16:23:59.0000000+00:00</time></trkpt><trkpt lat="39.48441284" lon="-0.36382682"><ele>-45.8</ele><time>2022-10-30T16:24:00.0000000+00:00</time></trkpt><trkpt lat="39.48441074" lon="-0.3638186"><ele>-45.8</ele><time>2022-10-30T16:24:01.0000000+00:00</time></trkpt><trkpt lat="39.48441577" lon="-0.36380821"><ele>-45.8</ele><time>2022-10-30T16:24:02.0000000+00:00</time></trkpt><trkpt lat="39.48441938" lon="-0.36380167"><ele>-45.8</ele><time>2022-10-30T16:24:03.0000000+00:00</time></trkpt><trkpt lat="39.48441443" lon="-0.36380008"><ele>-45.8</ele><time>2022-10-30T16:24:04.0000000+00:00</time></trkpt><trkpt lat="39.48440362" lon="-0.36380326"><ele>-45.8</ele><time>2022-10-30T16:24:05.0000000+00:00</time></trkpt><trkpt lat="39.48440186" lon="-0.36379974"><ele>-45.8</ele><time>2022-10-30T16:24:06.0000000+00:00</time></trkpt><trkpt lat="39.48440001" lon="-0.3637984"><ele>-45.8</ele><time>2022-10-30T16:24:07.0000000+00:00</time></trkpt><trkpt lat="39.4844068" lon="-0.36379715"><ele>-45.8</ele><time>2022-10-30T16:24:08.0000000+00:00</time></trkpt><trkpt lat="39.48441166" lon="-0.36379941"><ele>-45.8</ele><time>2022-10-30T16:24:09.0000000+00:00</time></trkpt><trkpt lat="39.48441594" lon="-0.3637984"><ele>-45.8</ele><time>2022-10-30T16:24:10.0000000+00:00</time></trkpt><trkpt lat="39.48441099" lon="-0.36380896"><ele>-45.8</ele><time>2022-10-30T16:24:11.0000000+00:00</time></trkpt><trkpt lat="39.48440437" lon="-0.36381953"><ele>-45.8</ele><time>2022-10-30T16:24:12.0000000+00:00</time></trkpt><trkpt lat="39.48440018" lon="-0.36382648"><ele>-45.8</ele><time>2022-10-30T16:24:13.0000000+00:00</time></trkpt><trkpt lat="39.48439725" lon="-0.36383654"><ele>-45.8</ele><time>2022-10-30T16:24:14.0000000+00:00</time></trkpt><trkpt lat="39.48439867" lon="-0.36384383"><ele>-45.8</ele><time>2022-10-30T16:24:15.0000000+00:00</time></trkpt><trkpt lat="39.48440521" lon="-0.36385154"><ele>-45.8</ele><time>2022-10-30T16:24:16.0000000+00:00</time></trkpt><trkpt lat="39.48440773" lon="-0.36385959"><ele>-45.8</ele><time>2022-10-30T16:24:17.0000000+00:00</time></trkpt><trkpt lat="39.48440714" lon="-0.36386755"><ele>-45.8</ele><time>2022-10-30T16:24:18.0000000+00:00</time></trkpt><trkpt lat="39.48441024" lon="-0.36387661"><ele>-45.6</ele><time>2022-10-30T16:24:19.0000000+00:00</time></trkpt><trkpt lat="39.48441502" lon="-0.36388356"><ele>-45.6</ele><time>2022-10-30T16:24:20.0000000+00:00</time></trkpt><trkpt lat="39.48441879" lon="-0.36389035"><ele>-45.6</ele><time>2022-10-30T16:24:21.0000000+00:00</time></trkpt><trkpt lat="39.48441929" lon="-0.36389672"><ele>-45.8</ele><time>2022-10-30T16:24:22.0000000+00:00</time></trkpt><trkpt lat="39.48441862" lon="-0.36390184"><ele>-45.8</ele><time>2022-10-30T16:24:23.0000000+00:00</time></trkpt><trkpt lat="39.48441359" lon="-0.36390091"><ele>-45.8</ele><time>2022-10-30T16:24:24.0000000+00:00</time></trkpt><trkpt lat="39.48441468" lon="-0.36390754"><ele>-45.8</ele><time>2022-10-30T16:24:25.0000000+00:00</time></trkpt><trkpt lat="39.48441938" lon="-0.36392044"><ele>-45.8</ele><time>2022-10-30T16:24:26.0000000+00:00</time></trkpt><trkpt lat="39.48442801" lon="-0.36393469"><ele>-46.0</ele><time>2022-10-30T16:24:27.0000000+00:00</time></trkpt><trkpt lat="39.4844327" lon="-0.36394919"><ele>-46.0</ele><time>2022-10-30T16:24:28.0000000+00:00</time></trkpt><trkpt lat="39.48444125" lon="-0.36396462"><ele>-46.0</ele><time>2022-10-30T16:24:29.0000000+00:00</time></trkpt><trkpt lat="39.4844514" lon="-0.36398012"><ele>-46.0</ele><time>2022-10-30T16:24:30.0000000+00:00</time></trkpt><trkpt lat="39.48446548" lon="-0.36398171"><ele>-46.2</ele><time>2022-10-30T16:24:31.0000000+00:00</time></trkpt><trkpt lat="39.48447654" lon="-0.3639709"><ele>-46.2</ele><time>2022-10-30T16:24:32.0000000+00:00</time></trkpt><trkpt lat="39.48450672" lon="-0.36393117"><ele>-46.2</ele><time>2022-10-30T16:24:33.0000000+00:00</time></trkpt><trkpt lat="39.48451694" lon="-0.36392572"><ele>-46.2</ele><time>2022-10-30T16:24:34.0000000+00:00</time></trkpt><trkpt lat="39.48452138" lon="-0.36392472"><ele>-46.2</ele><time>2022-10-30T16:24:35.0000000+00:00</time></trkpt><trkpt lat="39.48452398" lon="-0.36392732"><ele>-46.0</ele><time>2022-10-30T16:24:36.0000000+00:00</time></trkpt><trkpt lat="39.48452935" lon="-0.36392581"><ele>-46.2</ele><time>2022-10-30T16:24:37.0000000+00:00</time></trkpt><trkpt lat="39.48453203" lon="-0.36392396"><ele>-46.2</ele><time>2022-10-30T16:24:38.0000000+00:00</time></trkpt><trkpt lat="39.48453848" lon="-0.3639165"><ele>-46.2</ele><time>2022-10-30T16:24:39.0000000+00:00</time></trkpt><trkpt lat="39.48454427" lon="-0.36390603"><ele>-46.2</ele><time>2022-10-30T16:24:40.0000000+00:00</time></trkpt><trkpt lat="39.48455391" lon="-0.36389547"><ele>-46.2</ele><time>2022-10-30T16:24:41.0000000+00:00</time></trkpt><trkpt lat="39.48456178" lon="-0.36388708"><ele>-46.2</ele><time>2022-10-30T16:24:42.0000000+00:00</time></trkpt><trkpt lat="39.48457302" lon="-0.36387803"><ele>-46.2</ele><time>2022-10-30T16:24:43.0000000+00:00</time></trkpt><trkpt lat="39.48458458" lon="-0.36386948"><ele>-46.2</ele><time>2022-10-30T16:24:44.0000000+00:00</time></trkpt><trkpt lat="39.48459699" lon="-0.36386353"><ele>-46.2</ele><time>2022-10-30T16:24:45.0000000+00:00</time></trkpt><trkpt lat="39.48460747" lon="-0.36385456"><ele>-46.2</ele><time>2022-10-30T16:24:46.0000000+00:00</time></trkpt><trkpt lat="39.48461727" lon="-0.36384928"><ele>-46.2</ele><time>2022-10-30T16:24:47.0000000+00:00</time></trkpt><trkpt lat="39.48463211" lon="-0.36383931"><ele>-46.2</ele><time>2022-10-30T16:24:48.0000000+00:00</time></trkpt><trkpt lat="39.48464619" lon="-0.36383302"><ele>-46.0</ele><time>2022-10-30T16:24:49.0000000+00:00</time></trkpt><trkpt lat="39.48465876" lon="-0.36382824"><ele>-46.2</ele><time>2022-10-30T16:24:50.0000000+00:00</time></trkpt><trkpt lat="39.48467058" lon="-0.36382346"><ele>-46.2</ele><time>2022-10-30T16:24:51.0000000+00:00</time></trkpt><trkpt lat="39.48467997" lon="-0.36381651"><ele>-46.2</ele><time>2022-10-30T16:24:52.0000000+00:00</time></trkpt><trkpt lat="39.48468894" lon="-0.36380997"><ele>-46.2</ele><time>2022-10-30T16:24:53.0000000+00:00</time></trkpt><trkpt lat="39.48469916" lon="-0.36379589"><ele>-46.4</ele><time>2022-10-30T16:24:54.0000000+00:00</time></trkpt><trkpt lat="39.48471249" lon="-0.36378533"><ele>-46.4</ele><time>2022-10-30T16:24:55.0000000+00:00</time></trkpt><trkpt lat="39.48472565" lon="-0.36378575"><ele>-46.4</ele><time>2022-10-30T16:24:56.0000000+00:00</time></trkpt><trkpt lat="39.48473613" lon="-0.36378608"><ele>-46.6</ele><time>2022-10-30T16:24:57.0000000+00:00</time></trkpt><trkpt lat="39.48474962" lon="-0.3637844"><ele>-46.6</ele><time>2022-10-30T16:24:58.0000000+00:00</time></trkpt><trkpt lat="39.48476387" lon="-0.3637839"><ele>-46.6</ele><time>2022-10-30T16:24:59.0000000+00:00</time></trkpt><trkpt lat="39.48477452" lon="-0.36378063"><ele>-46.6</ele><time>2022-10-30T16:25:00.0000000+00:00</time></trkpt><trkpt lat="39.48478634" lon="-0.36377468"><ele>-46.6</ele><time>2022-10-30T16:25:01.0000000+00:00</time></trkpt><trkpt lat="39.48480109" lon="-0.36376856"><ele>-46.6</ele><time>2022-10-30T16:25:02.0000000+00:00</time></trkpt><trkpt lat="39.48481701" lon="-0.3637627"><ele>-46.8</ele><time>2022-10-30T16:25:03.0000000+00:00</time></trkpt><trkpt lat="39.48484325" lon="-0.36373512"><ele>-46.8</ele><time>2022-10-30T16:25:04.0000000+00:00</time></trkpt><trkpt lat="39.48486068" lon="-0.36371559"><ele>-46.8</ele><time>2022-10-30T16:25:05.0000000+00:00</time></trkpt><trkpt lat="39.48487829" lon="-0.36369639"><ele>-46.8</ele><time>2022-10-30T16:25:06.0000000+00:00</time></trkpt><trkpt lat="39.48487887" lon="-0.36369497"><ele>-46.8</ele><time>2022-10-30T16:25:07.0000000+00:00</time></trkpt><trkpt lat="39.48488566" lon="-0.36369111"><ele>-46.8</ele><time>2022-10-30T16:25:08.0000000+00:00</time></trkpt><trkpt lat="39.48488432" lon="-0.36369396"><ele>-46.8</ele><time>2022-10-30T16:25:09.0000000+00:00</time></trkpt><trkpt lat="39.48489077" lon="-0.36369765"><ele>-46.8</ele><time>2022-10-30T16:25:10.0000000+00:00</time></trkpt><trkpt lat="39.48488994" lon="-0.36369841"><ele>-46.8</ele><time>2022-10-30T16:25:11.0000000+00:00</time></trkpt><trkpt lat="39.4848958" lon="-0.36369539"><ele>-46.8</ele><time>2022-10-30T16:25:12.0000000+00:00</time></trkpt><trkpt lat="39.4848989" lon="-0.36369237"><ele>-46.8</ele><time>2022-10-30T16:25:13.0000000+00:00</time></trkpt><trkpt lat="39.48490871" lon="-0.36368642"><ele>-46.8</ele><time>2022-10-30T16:25:14.0000000+00:00</time></trkpt><trkpt lat="39.48491944" lon="-0.36368189"><ele>-46.8</ele><time>2022-10-30T16:25:15.0000000+00:00</time></trkpt><trkpt lat="39.48492975" lon="-0.3636772"><ele>-46.8</ele><time>2022-10-30T16:25:16.0000000+00:00</time></trkpt><trkpt lat="39.48493453" lon="-0.36367544"><ele>-47.0</ele><time>2022-10-30T16:25:17.0000000+00:00</time></trkpt><trkpt lat="39.48494601" lon="-0.36366941"><ele>-47.0</ele><time>2022-10-30T16:25:18.0000000+00:00</time></trkpt><trkpt lat="39.48495682" lon="-0.36366278"><ele>-47.0</ele><time>2022-10-30T16:25:19.0000000+00:00</time></trkpt><trkpt lat="39.48496982" lon="-0.36365666"><ele>-47.0</ele><time>2022-10-30T16:25:20.0000000+00:00</time></trkpt><trkpt lat="39.48498063" lon="-0.36364669"><ele>-47.0</ele><time>2022-10-30T16:25:21.0000000+00:00</time></trkpt><trkpt lat="39.48499312" lon="-0.36362942"><ele>-47.0</ele><time>2022-10-30T16:25:22.0000000+00:00</time></trkpt><trkpt lat="39.48499655" lon="-0.363613"><ele>-47.0</ele><time>2022-10-30T16:25:23.0000000+00:00</time></trkpt><trkpt lat="39.48500728" lon="-0.36358651"><ele>-47.0</ele><time>2022-10-30T16:25:24.0000000+00:00</time></trkpt><trkpt lat="39.48502086" lon="-0.36355793"><ele>-47.0</ele><time>2022-10-30T16:25:25.0000000+00:00</time></trkpt><trkpt lat="39.48504207" lon="-0.36352172"><ele>-47.0</ele><time>2022-10-30T16:25:26.0000000+00:00</time></trkpt><trkpt lat="39.48505665" lon="-0.36349062"><ele>-47.0</ele><time>2022-10-30T16:25:27.0000000+00:00</time></trkpt><trkpt lat="39.4850704" lon="-0.36345449"><ele>-47.0</ele><time>2022-10-30T16:25:28.0000000+00:00</time></trkpt><trkpt lat="39.48507585" lon="-0.36342734"><ele>-46.8</ele><time>2022-10-30T16:25:29.0000000+00:00</time></trkpt><trkpt lat="39.4850766" lon="-0.3634037"><ele>-46.8</ele><time>2022-10-30T16:25:30.0000000+00:00</time></trkpt><trkpt lat="39.48507459" lon="-0.36337604"><ele>-46.8</ele><time>2022-10-30T16:25:31.0000000+00:00</time></trkpt><trkpt lat="39.48507342" lon="-0.36335047"><ele>-46.8</ele><time>2022-10-30T16:25:32.0000000+00:00</time></trkpt><trkpt lat="39.48507585" lon="-0.3633312"><ele>-46.8</ele><time>2022-10-30T16:25:33.0000000+00:00</time></trkpt><trkpt lat="39.48507736" lon="-0.36331225"><ele>-46.8</ele><time>2022-10-30T16:25:34.0000000+00:00</time></trkpt><trkpt lat="39.48508414" lon="-0.36328945"><ele>-46.8</ele><time>2022-10-30T16:25:35.0000000+00:00</time></trkpt><trkpt lat="39.48509035" lon="-0.36326632"><ele>-46.8</ele><time>2022-10-30T16:25:36.0000000+00:00</time></trkpt><trkpt lat="39.48508775" lon="-0.36325031"><ele>-47.0</ele><time>2022-10-30T16:25:37.0000000+00:00</time></trkpt><trkpt lat="39.48508783" lon="-0.36323128"><ele>-47.0</ele><time>2022-10-30T16:25:38.0000000+00:00</time></trkpt><trkpt lat="39.48509026" lon="-0.36321209"><ele>-47.0</ele><time>2022-10-30T16:25:39.0000000+00:00</time></trkpt><trkpt lat="39.4850901" lon="-0.36319407"><ele>-47.0</ele><time>2022-10-30T16:25:40.0000000+00:00</time></trkpt><trkpt lat="39.4850973" lon="-0.36317353"><ele>-47.0</ele><time>2022-10-30T16:25:41.0000000+00:00</time></trkpt><trkpt lat="39.48510351" lon="-0.36316029"><ele>-47.0</ele><time>2022-10-30T16:25:42.0000000+00:00</time></trkpt><trkpt lat="39.48510979" lon="-0.36314646"><ele>-47.0</ele><time>2022-10-30T16:25:43.0000000+00:00</time></trkpt><trkpt lat="39.4851217" lon="-0.36312969"><ele>-47.0</ele><time>2022-10-30T16:25:44.0000000+00:00</time></trkpt><trkpt lat="39.48512103" lon="-0.36312131"><ele>-47.0</ele><time>2022-10-30T16:25:45.0000000+00:00</time></trkpt><trkpt lat="39.48512094" lon="-0.36311695"><ele>-47.0</ele><time>2022-10-30T16:25:46.0000000+00:00</time></trkpt><trkpt lat="39.48512019" lon="-0.36311025"><ele>-47.0</ele><time>2022-10-30T16:25:47.0000000+00:00</time></trkpt><trkpt lat="39.48512781" lon="-0.36310128"><ele>-47.2</ele><time>2022-10-30T16:25:48.0000000+00:00</time></trkpt><trkpt lat="39.48512002" lon="-0.36308854"><ele>-47.2</ele><time>2022-10-30T16:25:49.0000000+00:00</time></trkpt><trkpt lat="39.48511172" lon="-0.36307136"><ele>-47.2</ele><time>2022-10-30T16:25:50.0000000+00:00</time></trkpt><trkpt lat="39.48510929" lon="-0.36306725"><ele>-47.2</ele><time>2022-10-30T16:25:51.0000000+00:00</time></trkpt><trkpt lat="39.48510929" lon="-0.36304697"><ele>-47.2</ele><time>2022-10-30T16:25:52.0000000+00:00</time></trkpt><trkpt lat="39.48511072" lon="-0.36304261"><ele>-47.2</ele><time>2022-10-30T16:25:53.0000000+00:00</time></trkpt><trkpt lat="39.48511063" lon="-0.36304076"><ele>-47.2</ele><time>2022-10-30T16:25:54.0000000+00:00</time></trkpt><trkpt lat="39.48510937" lon="-0.36303858"><ele>-47.2</ele><time>2022-10-30T16:25:55.0000000+00:00</time></trkpt><trkpt lat="39.48510728" lon="-0.36303783"><ele>-47.2</ele><time>2022-10-30T16:25:56.0000000+00:00</time></trkpt><trkpt lat="39.48510577" lon="-0.36303875"><ele>-47.2</ele><time>2022-10-30T16:25:57.0000000+00:00</time></trkpt><trkpt lat="39.48510502" lon="-0.36304059"><ele>-47.2</ele><time>2022-10-30T16:25:58.0000000+00:00</time></trkpt><trkpt lat="39.48510569" lon="-0.36304143"><ele>-47.2</ele><time>2022-10-30T16:25:59.0000000+00:00</time></trkpt><trkpt lat="39.48509647" lon="-0.36304437"><ele>-47.2</ele><time>2022-10-30T16:26:00.0000000+00:00</time></trkpt><trkpt lat="39.48509311" lon="-0.36305015"><ele>-47.2</ele><time>2022-10-30T16:26:01.0000000+00:00</time></trkpt><trkpt lat="39.48509613" lon="-0.36306012"><ele>-47.2</ele><time>2022-10-30T16:26:02.0000000+00:00</time></trkpt><trkpt lat="39.48509948" lon="-0.36307387"><ele>-47.2</ele><time>2022-10-30T16:26:03.0000000+00:00</time></trkpt><trkpt lat="39.48510569" lon="-0.36309089"><ele>-47.2</ele><time>2022-10-30T16:26:04.0000000+00:00</time></trkpt><trkpt lat="39.48510988" lon="-0.36310597"><ele>-47.2</ele><time>2022-10-30T16:26:05.0000000+00:00</time></trkpt><trkpt lat="39.48511088" lon="-0.36312047"><ele>-47.2</ele><time>2022-10-30T16:26:06.0000000+00:00</time></trkpt><trkpt lat="39.48510862" lon="-0.36313724"><ele>-47.2</ele><time>2022-10-30T16:26:07.0000000+00:00</time></trkpt><trkpt lat="39.48511398" lon="-0.36315534"><ele>-47.0</ele><time>2022-10-30T16:26:08.0000000+00:00</time></trkpt><trkpt lat="39.48512111" lon="-0.36317085"><ele>-47.0</ele><time>2022-10-30T16:26:09.0000000+00:00</time></trkpt><trkpt lat="39.48512295" lon="-0.36318745"><ele>-47.0</ele><time>2022-10-30T16:26:10.0000000+00:00</time></trkpt><trkpt lat="39.48512874" lon="-0.36320119"><ele>-47.0</ele><time>2022-10-30T16:26:11.0000000+00:00</time></trkpt><trkpt lat="39.48513796" lon="-0.36321603"><ele>-47.0</ele><time>2022-10-30T16:26:12.0000000+00:00</time></trkpt><trkpt lat="39.48514693" lon="-0.36323204"><ele>-47.0</ele><time>2022-10-30T16:26:13.0000000+00:00</time></trkpt><trkpt lat="39.48515237" lon="-0.3632483"><ele>-47.0</ele><time>2022-10-30T16:26:14.0000000+00:00</time></trkpt><trkpt lat="39.4851543" lon="-0.36326691"><ele>-47.2</ele><time>2022-10-30T16:26:15.0000000+00:00</time></trkpt><trkpt lat="39.4851595" lon="-0.36328434"><ele>-47.2</ele><time>2022-10-30T16:26:16.0000000+00:00</time></trkpt><trkpt lat="39.48516587" lon="-0.3633001"><ele>-47.2</ele><time>2022-10-30T16:26:17.0000000+00:00</time></trkpt><trkpt lat="39.48517358" lon="-0.36331234"><ele>-47.2</ele><time>2022-10-30T16:26:18.0000000+00:00</time></trkpt><trkpt lat="39.48517995" lon="-0.36332424"><ele>-47.2</ele><time>2022-10-30T16:26:19.0000000+00:00</time></trkpt><trkpt lat="39.48518573" lon="-0.3633374"><ele>-47.2</ele><time>2022-10-30T16:26:20.0000000+00:00</time></trkpt><trkpt lat="39.48519227" lon="-0.36334863"><ele>-47.2</ele><time>2022-10-30T16:26:21.0000000+00:00</time></trkpt><trkpt lat="39.4851978" lon="-0.36336179"><ele>-47.2</ele><time>2022-10-30T16:26:22.0000000+00:00</time></trkpt><trkpt lat="39.48520082" lon="-0.36337839"><ele>-47.2</ele><time>2022-10-30T16:26:23.0000000+00:00</time></trkpt><trkpt lat="39.48520367" lon="-0.36339431"><ele>-47.4</ele><time>2022-10-30T16:26:24.0000000+00:00</time></trkpt><trkpt lat="39.48520375" lon="-0.36340789"><ele>-47.4</ele><time>2022-10-30T16:26:25.0000000+00:00</time></trkpt><trkpt lat="39.48520895" lon="-0.36341745"><ele>-47.4</ele><time>2022-10-30T16:26:26.0000000+00:00</time></trkpt><trkpt lat="39.48521901" lon="-0.3634296"><ele>-47.2</ele><time>2022-10-30T16:26:27.0000000+00:00</time></trkpt><trkpt lat="39.48522295" lon="-0.36344309"><ele>-47.2</ele><time>2022-10-30T16:26:28.0000000+00:00</time></trkpt><trkpt lat="39.48523318" lon="-0.3634555"><ele>-47.2</ele><time>2022-10-30T16:26:29.0000000+00:00</time></trkpt><trkpt lat="39.48523661" lon="-0.36345676"><ele>-47.2</ele><time>2022-10-30T16:26:30.0000000+00:00</time></trkpt><trkpt lat="39.48523745" lon="-0.36346304"><ele>-47.2</ele><time>2022-10-30T16:26:31.0000000+00:00</time></trkpt><trkpt lat="39.4852382" lon="-0.3634679"><ele>-47.2</ele><time>2022-10-30T16:26:32.0000000+00:00</time></trkpt><trkpt lat="39.48524675" lon="-0.3634695"><ele>-47.4</ele><time>2022-10-30T16:26:33.0000000+00:00</time></trkpt><trkpt lat="39.48524935" lon="-0.36347268"><ele>-47.4</ele><time>2022-10-30T16:26:34.0000000+00:00</time></trkpt><trkpt lat="39.48524944" lon="-0.36347796"><ele>-47.4</ele><time>2022-10-30T16:26:35.0000000+00:00</time></trkpt><trkpt lat="39.48524986" lon="-0.3634814"><ele>-47.4</ele><time>2022-10-30T16:26:36.0000000+00:00</time></trkpt><trkpt lat="39.48525069" lon="-0.36348324"><ele>-47.4</ele><time>2022-10-30T16:26:37.0000000+00:00</time></trkpt><trkpt lat="39.48525447" lon="-0.36348358"><ele>-47.4</ele><time>2022-10-30T16:26:38.0000000+00:00</time></trkpt><trkpt lat="39.48526134" lon="-0.36348551"><ele>-47.4</ele><time>2022-10-30T16:26:39.0000000+00:00</time></trkpt><trkpt lat="39.48527089" lon="-0.36349439"><ele>-47.4</ele><time>2022-10-30T16:26:40.0000000+00:00</time></trkpt><trkpt lat="39.48529176" lon="-0.36350319"><ele>-47.4</ele><time>2022-10-30T16:26:41.0000000+00:00</time></trkpt><trkpt lat="39.48531507" lon="-0.36351124"><ele>-47.4</ele><time>2022-10-30T16:26:42.0000000+00:00</time></trkpt><trkpt lat="39.48533351" lon="-0.36351585"><ele>-47.4</ele><time>2022-10-30T16:26:43.0000000+00:00</time></trkpt><trkpt lat="39.48535035" lon="-0.36351895"><ele>-47.4</ele><time>2022-10-30T16:26:44.0000000+00:00</time></trkpt><trkpt lat="39.4853698" lon="-0.36352146"><ele>-47.2</ele><time>2022-10-30T16:26:45.0000000+00:00</time></trkpt><trkpt lat="39.48538405" lon="-0.3635239"><ele>-47.2</ele><time>2022-10-30T16:26:46.0000000+00:00</time></trkpt><trkpt lat="39.48539763" lon="-0.36352842"><ele>-47.2</ele><time>2022-10-30T16:26:47.0000000+00:00</time></trkpt><trkpt lat="39.48540836" lon="-0.36353018"><ele>-47.2</ele><time>2022-10-30T16:26:48.0000000+00:00</time></trkpt><trkpt lat="39.48543023" lon="-0.36353731"><ele>-47.2</ele><time>2022-10-30T16:26:49.0000000+00:00</time></trkpt><trkpt lat="39.48544633" lon="-0.36354393"><ele>-47.2</ele><time>2022-10-30T16:26:50.0000000+00:00</time></trkpt><trkpt lat="39.48545773" lon="-0.3635534"><ele>-47.2</ele><time>2022-10-30T16:26:51.0000000+00:00</time></trkpt><trkpt lat="39.4854651" lon="-0.3635617"><ele>-47.2</ele><time>2022-10-30T16:26:52.0000000+00:00</time></trkpt><trkpt lat="39.48546921" lon="-0.36356974"><ele>-47.2</ele><time>2022-10-30T16:26:53.0000000+00:00</time></trkpt><trkpt lat="39.48547214" lon="-0.36357653"><ele>-47.2</ele><time>2022-10-30T16:26:54.0000000+00:00</time></trkpt><trkpt lat="39.48548036" lon="-0.36358743"><ele>-47.2</ele><time>2022-10-30T16:26:55.0000000+00:00</time></trkpt><trkpt lat="39.48549" lon="-0.36360067"><ele>-47.2</ele><time>2022-10-30T16:26:56.0000000+00:00</time></trkpt><trkpt lat="39.48549595" lon="-0.36360537"><ele>-47.4</ele><time>2022-10-30T16:26:57.0000000+00:00</time></trkpt><trkpt lat="39.48550735" lon="-0.36360939"><ele>-47.2</ele><time>2022-10-30T16:26:58.0000000+00:00</time></trkpt><trkpt lat="39.48551414" lon="-0.36361652"><ele>-47.2</ele><time>2022-10-30T16:26:59.0000000+00:00</time></trkpt><trkpt lat="39.4855226" lon="-0.363628"><ele>-47.2</ele><time>2022-10-30T16:27:00.0000000+00:00</time></trkpt><trkpt lat="39.48552973" lon="-0.36363286"><ele>-47.2</ele><time>2022-10-30T16:27:01.0000000+00:00</time></trkpt><trkpt lat="39.48553233" lon="-0.36364384"><ele>-47.2</ele><time>2022-10-30T16:27:02.0000000+00:00</time></trkpt><trkpt lat="39.48553677" lon="-0.36365541"><ele>-47.2</ele><time>2022-10-30T16:27:03.0000000+00:00</time></trkpt><trkpt lat="39.48554146" lon="-0.3636648"><ele>-47.2</ele><time>2022-10-30T16:27:04.0000000+00:00</time></trkpt><trkpt lat="39.48554859" lon="-0.36367737"><ele>-47.2</ele><time>2022-10-30T16:27:05.0000000+00:00</time></trkpt><trkpt lat="39.48555789" lon="-0.36368759"><ele>-47.2</ele><time>2022-10-30T16:27:06.0000000+00:00</time></trkpt><trkpt lat="39.48557055" lon="-0.36369438"><ele>-47.2</ele><time>2022-10-30T16:27:07.0000000+00:00</time></trkpt><trkpt lat="39.4855801" lon="-0.36370142"><ele>-47.2</ele><time>2022-10-30T16:27:08.0000000+00:00</time></trkpt><trkpt lat="39.48559762" lon="-0.36371006"><ele>-47.2</ele><time>2022-10-30T16:27:09.0000000+00:00</time></trkpt><trkpt lat="39.48560852" lon="-0.36372414"><ele>-47.2</ele><time>2022-10-30T16:27:10.0000000+00:00</time></trkpt><trkpt lat="39.48562067" lon="-0.36373529"><ele>-47.2</ele><time>2022-10-30T16:27:11.0000000+00:00</time></trkpt><trkpt lat="39.48562495" lon="-0.36375356"><ele>-47.2</ele><time>2022-10-30T16:27:12.0000000+00:00</time></trkpt><trkpt lat="39.4856288" lon="-0.36377259"><ele>-47.2</ele><time>2022-10-30T16:27:13.0000000+00:00</time></trkpt><trkpt lat="39.48562293" lon="-0.36378927"><ele>-47.2</ele><time>2022-10-30T16:27:14.0000000+00:00</time></trkpt><trkpt lat="39.48561288" lon="-0.36381198"><ele>-47.0</ele><time>2022-10-30T16:27:15.0000000+00:00</time></trkpt><trkpt lat="39.48560114" lon="-0.36383704"><ele>-47.0</ele><time>2022-10-30T16:27:16.0000000+00:00</time></trkpt><trkpt lat="39.48558589" lon="-0.36386822"><ele>-47.0</ele><time>2022-10-30T16:27:17.0000000+00:00</time></trkpt><trkpt lat="39.4855703" lon="-0.36389253"><ele>-47.0</ele><time>2022-10-30T16:27:18.0000000+00:00</time></trkpt><trkpt lat="39.48555714" lon="-0.36391726"><ele>-47.0</ele><time>2022-10-30T16:27:19.0000000+00:00</time></trkpt><trkpt lat="39.48554481" lon="-0.36394081"><ele>-47.0</ele><time>2022-10-30T16:27:20.0000000+00:00</time></trkpt><trkpt lat="39.48553233" lon="-0.36395934"><ele>-47.0</ele><time>2022-10-30T16:27:21.0000000+00:00</time></trkpt><trkpt lat="39.48552168" lon="-0.36397392"><ele>-47.0</ele><time>2022-10-30T16:27:22.0000000+00:00</time></trkpt><trkpt lat="39.48551355" lon="-0.3639911"><ele>-47.0</ele><time>2022-10-30T16:27:23.0000000+00:00</time></trkpt><trkpt lat="39.48550684" lon="-0.36400368"><ele>-47.0</ele><time>2022-10-30T16:27:24.0000000+00:00</time></trkpt><trkpt lat="39.48550123" lon="-0.36402002"><ele>-47.0</ele><time>2022-10-30T16:27:25.0000000+00:00</time></trkpt><trkpt lat="39.48549721" lon="-0.3640367"><ele>-47.0</ele><time>2022-10-30T16:27:26.0000000+00:00</time></trkpt><trkpt lat="39.48549402" lon="-0.36405338"><ele>-47.0</ele><time>2022-10-30T16:27:27.0000000+00:00</time></trkpt><trkpt lat="39.48549025" lon="-0.3640688"><ele>-47.0</ele><time>2022-10-30T16:27:28.0000000+00:00</time></trkpt><trkpt lat="39.48548337" lon="-0.36408548"><ele>-47.0</ele><time>2022-10-30T16:27:29.0000000+00:00</time></trkpt><trkpt lat="39.48547357" lon="-0.364102"><ele>-47.0</ele><time>2022-10-30T16:27:30.0000000+00:00</time></trkpt><trkpt lat="39.48546393" lon="-0.36411557"><ele>-47.0</ele><time>2022-10-30T16:27:31.0000000+00:00</time></trkpt><trkpt lat="39.48545647" lon="-0.36413561"><ele>-47.0</ele><time>2022-10-30T16:27:32.0000000+00:00</time></trkpt><trkpt lat="39.48544909" lon="-0.3641543"><ele>-47.0</ele><time>2022-10-30T16:27:33.0000000+00:00</time></trkpt><trkpt lat="39.48543945" lon="-0.36417576"><ele>-46.8</ele><time>2022-10-30T16:27:34.0000000+00:00</time></trkpt><trkpt lat="39.48543929" lon="-0.36419839"><ele>-46.8</ele><time>2022-10-30T16:27:35.0000000+00:00</time></trkpt><trkpt lat="39.48544817" lon="-0.36422169"><ele>-46.8</ele><time>2022-10-30T16:27:36.0000000+00:00</time></trkpt><trkpt lat="39.48546292" lon="-0.3642408"><ele>-47.0</ele><time>2022-10-30T16:27:37.0000000+00:00</time></trkpt><trkpt lat="39.48547055" lon="-0.36426134"><ele>-47.0</ele><time>2022-10-30T16:27:38.0000000+00:00</time></trkpt><trkpt lat="39.48547214" lon="-0.36428405"><ele>-47.0</ele><time>2022-10-30T16:27:39.0000000+00:00</time></trkpt><trkpt lat="39.48547265" lon="-0.36430132"><ele>-47.0</ele><time>2022-10-30T16:27:40.0000000+00:00</time></trkpt><trkpt lat="39.48547315" lon="-0.36431858"><ele>-47.0</ele><time>2022-10-30T16:27:41.0000000+00:00</time></trkpt><trkpt lat="39.48547457" lon="-0.36433468"><ele>-47.0</ele><time>2022-10-30T16:27:42.0000000+00:00</time></trkpt><trkpt lat="39.48547709" lon="-0.36435111"><ele>-47.0</ele><time>2022-10-30T16:27:43.0000000+00:00</time></trkpt><trkpt lat="39.48547918" lon="-0.36436703"><ele>-47.0</ele><time>2022-10-30T16:27:44.0000000+00:00</time></trkpt><trkpt lat="39.48547927" lon="-0.36438388"><ele>-46.8</ele><time>2022-10-30T16:27:45.0000000+00:00</time></trkpt><trkpt lat="39.48547969" lon="-0.36439888"><ele>-46.8</ele><time>2022-10-30T16:27:46.0000000+00:00</time></trkpt><trkpt lat="39.48548337" lon="-0.36440936"><ele>-46.8</ele><time>2022-10-30T16:27:47.0000000+00:00</time></trkpt><trkpt lat="39.48548606" lon="-0.36441699"><ele>-46.8</ele><time>2022-10-30T16:27:48.0000000+00:00</time></trkpt><trkpt lat="39.48549276" lon="-0.36442981"><ele>-46.8</ele><time>2022-10-30T16:27:49.0000000+00:00</time></trkpt><trkpt lat="39.48549788" lon="-0.36444482"><ele>-46.8</ele><time>2022-10-30T16:27:50.0000000+00:00</time></trkpt><trkpt lat="39.48549544" lon="-0.36446158"><ele>-46.8</ele><time>2022-10-30T16:27:51.0000000+00:00</time></trkpt><trkpt lat="39.48548958" lon="-0.36447926"><ele>-46.8</ele><time>2022-10-30T16:27:52.0000000+00:00</time></trkpt><trkpt lat="39.48549134" lon="-0.3644905"><ele>-46.8</ele><time>2022-10-30T16:27:53.0000000+00:00</time></trkpt><trkpt lat="39.48549687" lon="-0.36449888"><ele>-46.8</ele><time>2022-10-30T16:27:54.0000000+00:00</time></trkpt><trkpt lat="39.48549897" lon="-0.36450458"><ele>-46.8</ele><time>2022-10-30T16:27:55.0000000+00:00</time></trkpt><trkpt lat="39.48549947" lon="-0.36450977"><ele>-46.8</ele><time>2022-10-30T16:27:56.0000000+00:00</time></trkpt><trkpt lat="39.48549503" lon="-0.36452034"><ele>-46.8</ele><time>2022-10-30T16:27:57.0000000+00:00</time></trkpt><trkpt lat="39.48549251" lon="-0.36454372"><ele>-46.8</ele><time>2022-10-30T16:27:58.0000000+00:00</time></trkpt><trkpt lat="39.48549863" lon="-0.36456116"><ele>-46.8</ele><time>2022-10-30T16:27:59.0000000+00:00</time></trkpt><trkpt lat="39.48551036" lon="-0.36457976"><ele>-46.8</ele><time>2022-10-30T16:28:00.0000000+00:00</time></trkpt><trkpt lat="39.4855195" lon="-0.36458739"><ele>-46.8</ele><time>2022-10-30T16:28:01.0000000+00:00</time></trkpt><trkpt lat="39.48552495" lon="-0.36460608"><ele>-46.8</ele><time>2022-10-30T16:28:02.0000000+00:00</time></trkpt><trkpt lat="39.48553023" lon="-0.36461581"><ele>-46.8</ele><time>2022-10-30T16:28:03.0000000+00:00</time></trkpt><trkpt lat="39.48553576" lon="-0.36462838"><ele>-46.8</ele><time>2022-10-30T16:28:04.0000000+00:00</time></trkpt><trkpt lat="39.48554222" lon="-0.36464347"><ele>-46.8</ele><time>2022-10-30T16:28:05.0000000+00:00</time></trkpt><trkpt lat="39.48554507" lon="-0.3646604"><ele>-46.8</ele><time>2022-10-30T16:28:06.0000000+00:00</time></trkpt><trkpt lat="39.48554565" lon="-0.36467582"><ele>-46.8</ele><time>2022-10-30T16:28:07.0000000+00:00</time></trkpt><trkpt lat="39.48554825" lon="-0.36469434"><ele>-46.8</ele><time>2022-10-30T16:28:08.0000000+00:00</time></trkpt><trkpt lat="39.48555362" lon="-0.36470985"><ele>-46.8</ele><time>2022-10-30T16:28:09.0000000+00:00</time></trkpt><trkpt lat="39.48555395" lon="-0.36472729"><ele>-46.8</ele><time>2022-10-30T16:28:10.0000000+00:00</time></trkpt><trkpt lat="39.48555362" lon="-0.36474455"><ele>-46.8</ele><time>2022-10-30T16:28:11.0000000+00:00</time></trkpt><trkpt lat="39.48555764" lon="-0.36476031"><ele>-46.8</ele><time>2022-10-30T16:28:12.0000000+00:00</time></trkpt><trkpt lat="39.48556711" lon="-0.36477129"><ele>-46.8</ele><time>2022-10-30T16:28:13.0000000+00:00</time></trkpt><trkpt lat="39.48557507" lon="-0.36478839"><ele>-46.8</ele><time>2022-10-30T16:28:14.0000000+00:00</time></trkpt><trkpt lat="39.48558597" lon="-0.3648054"><ele>-46.8</ele><time>2022-10-30T16:28:15.0000000+00:00</time></trkpt><trkpt lat="39.48559485" lon="-0.36481957"><ele>-46.6</ele><time>2022-10-30T16:28:16.0000000+00:00</time></trkpt><trkpt lat="39.48562151" lon="-0.36483499"><ele>-46.6</ele><time>2022-10-30T16:28:17.0000000+00:00</time></trkpt><trkpt lat="39.48564221" lon="-0.36484907"><ele>-46.6</ele><time>2022-10-30T16:28:18.0000000+00:00</time></trkpt><trkpt lat="39.48565688" lon="-0.36485896"><ele>-46.6</ele><time>2022-10-30T16:28:19.0000000+00:00</time></trkpt><trkpt lat="39.48567281" lon="-0.3648593"><ele>-46.6</ele><time>2022-10-30T16:28:20.0000000+00:00</time></trkpt><trkpt lat="39.48568043" lon="-0.36487028"><ele>-46.6</ele><time>2022-10-30T16:28:21.0000000+00:00</time></trkpt><trkpt lat="39.48568194" lon="-0.364894"><ele>-46.6</ele><time>2022-10-30T16:28:22.0000000+00:00</time></trkpt><trkpt lat="39.48569661" lon="-0.36490708"><ele>-46.4</ele><time>2022-10-30T16:28:23.0000000+00:00</time></trkpt><trkpt lat="39.48571589" lon="-0.36491546"><ele>-46.4</ele><time>2022-10-30T16:28:24.0000000+00:00</time></trkpt><trkpt lat="39.48571321" lon="-0.36494119"><ele>-46.4</ele><time>2022-10-30T16:28:25.0000000+00:00</time></trkpt><trkpt lat="39.48572109" lon="-0.3649572"><ele>-46.4</ele><time>2022-10-30T16:28:26.0000000+00:00</time></trkpt><trkpt lat="39.48572938" lon="-0.36497539"><ele>-46.4</ele><time>2022-10-30T16:28:27.0000000+00:00</time></trkpt><trkpt lat="39.48574925" lon="-0.36498779"><ele>-46.4</ele><time>2022-10-30T16:28:28.0000000+00:00</time></trkpt><trkpt lat="39.48576006" lon="-0.3650002"><ele>-46.4</ele><time>2022-10-30T16:28:29.0000000+00:00</time></trkpt><trkpt lat="39.48576459" lon="-0.36501613"><ele>-46.4</ele><time>2022-10-30T16:28:30.0000000+00:00</time></trkpt><trkpt lat="39.48577079" lon="-0.36503063"><ele>-46.4</ele><time>2022-10-30T16:28:31.0000000+00:00</time></trkpt><trkpt lat="39.48578353" lon="-0.36504789"><ele>-46.4</ele><time>2022-10-30T16:28:32.0000000+00:00</time></trkpt><trkpt lat="39.48578554" lon="-0.36507321"><ele>-46.4</ele><time>2022-10-30T16:28:33.0000000+00:00</time></trkpt><trkpt lat="39.48578185" lon="-0.36510858"><ele>-46.4</ele><time>2022-10-30T16:28:34.0000000+00:00</time></trkpt><trkpt lat="39.48578269" lon="-0.36513867"><ele>-46.4</ele><time>2022-10-30T16:28:35.0000000+00:00</time></trkpt><trkpt lat="39.48578194" lon="-0.36517622"><ele>-46.2</ele><time>2022-10-30T16:28:36.0000000+00:00</time></trkpt><trkpt lat="39.4857832" lon="-0.3652038"><ele>-46.2</ele><time>2022-10-30T16:28:37.0000000+00:00</time></trkpt><trkpt lat="39.48577934" lon="-0.36523179"><ele>-46.2</ele><time>2022-10-30T16:28:38.0000000+00:00</time></trkpt><trkpt lat="39.48577557" lon="-0.36525367"><ele>-46.2</ele><time>2022-10-30T16:28:39.0000000+00:00</time></trkpt><trkpt lat="39.48577641" lon="-0.3652618"><ele>-46.2</ele><time>2022-10-30T16:28:40.0000000+00:00</time></trkpt><trkpt lat="39.48577372" lon="-0.36527161"><ele>-46.2</ele><time>2022-10-30T16:28:41.0000000+00:00</time></trkpt><trkpt lat="39.48577247" lon="-0.36527764"><ele>-46.2</ele><time>2022-10-30T16:28:42.0000000+00:00</time></trkpt><trkpt lat="39.48577029" lon="-0.36528393"><ele>-46.2</ele><time>2022-10-30T16:28:43.0000000+00:00</time></trkpt><trkpt lat="39.48577062" lon="-0.36528879"><ele>-46.2</ele><time>2022-10-30T16:28:44.0000000+00:00</time></trkpt><trkpt lat="39.48577087" lon="-0.3652908"><ele>-46.2</ele><time>2022-10-30T16:28:45.0000000+00:00</time></trkpt><trkpt lat="39.48577574" lon="-0.36529348"><ele>-46.2</ele><time>2022-10-30T16:28:46.0000000+00:00</time></trkpt><trkpt lat="39.48578638" lon="-0.365296"><ele>-46.2</ele><time>2022-10-30T16:28:47.0000000+00:00</time></trkpt><trkpt lat="39.48580851" lon="-0.36529533"><ele>-46.2</ele><time>2022-10-30T16:28:48.0000000+00:00</time></trkpt><trkpt lat="39.48583114" lon="-0.36530019"><ele>-46.2</ele><time>2022-10-30T16:28:49.0000000+00:00</time></trkpt><trkpt lat="39.48585067" lon="-0.36530614"><ele>-46.2</ele><time>2022-10-30T16:28:50.0000000+00:00</time></trkpt><trkpt lat="39.48585922" lon="-0.36531854"><ele>-46.0</ele><time>2022-10-30T16:28:51.0000000+00:00</time></trkpt><trkpt lat="39.48586148" lon="-0.3653312"><ele>-46.0</ele><time>2022-10-30T16:28:52.0000000+00:00</time></trkpt><trkpt lat="39.48586458" lon="-0.36534587"><ele>-46.0</ele><time>2022-10-30T16:28:53.0000000+00:00</time></trkpt><trkpt lat="39.4858681" lon="-0.36535886"><ele>-46.0</ele><time>2022-10-30T16:28:54.0000000+00:00</time></trkpt><trkpt lat="39.48587355" lon="-0.36537462"><ele>-46.0</ele><time>2022-10-30T16:28:55.0000000+00:00</time></trkpt><trkpt lat="39.48588093" lon="-0.36539046"><ele>-46.0</ele><time>2022-10-30T16:28:56.0000000+00:00</time></trkpt><trkpt lat="39.48588914" lon="-0.36540647"><ele>-46.0</ele><time>2022-10-30T16:28:57.0000000+00:00</time></trkpt><trkpt lat="39.48589375" lon="-0.3654203"><ele>-46.0</ele><time>2022-10-30T16:28:58.0000000+00:00</time></trkpt><trkpt lat="39.48589526" lon="-0.36543648"><ele>-46.0</ele><time>2022-10-30T16:28:59.0000000+00:00</time></trkpt><trkpt lat="39.48589074" lon="-0.36545802"><ele>-46.0</ele><time>2022-10-30T16:29:00.0000000+00:00</time></trkpt><trkpt lat="39.48589166" lon="-0.36547579"><ele>-46.0</ele><time>2022-10-30T16:29:01.0000000+00:00</time></trkpt><trkpt lat="39.48590063" lon="-0.36549213"><ele>-46.0</ele><time>2022-10-30T16:29:02.0000000+00:00</time></trkpt><trkpt lat="39.485907" lon="-0.36551192"><ele>-46.0</ele><time>2022-10-30T16:29:03.0000000+00:00</time></trkpt><trkpt lat="39.48591253" lon="-0.36553346"><ele>-46.0</ele><time>2022-10-30T16:29:04.0000000+00:00</time></trkpt><trkpt lat="39.48591094" lon="-0.36556296"><ele>-46.0</ele><time>2022-10-30T16:29:05.0000000+00:00</time></trkpt><trkpt lat="39.4859111" lon="-0.36559205"><ele>-46.0</ele><time>2022-10-30T16:29:06.0000000+00:00</time></trkpt><trkpt lat="39.4859137" lon="-0.3656249"><ele>-46.0</ele><time>2022-10-30T16:29:07.0000000+00:00</time></trkpt><trkpt lat="39.48591177" lon="-0.36566069"><ele>-46.0</ele><time>2022-10-30T16:29:08.0000000+00:00</time></trkpt><trkpt lat="39.48590716" lon="-0.36567293"><ele>-46.0</ele><time>2022-10-30T16:29:09.0000000+00:00</time></trkpt><trkpt lat="39.48590876" lon="-0.36568852"><ele>-46.0</ele><time>2022-10-30T16:29:10.0000000+00:00</time></trkpt><trkpt lat="39.48590683" lon="-0.36570596"><ele>-46.0</ele><time>2022-10-30T16:29:11.0000000+00:00</time></trkpt><trkpt lat="39.48590691" lon="-0.36572515"><ele>-46.0</ele><time>2022-10-30T16:29:12.0000000+00:00</time></trkpt><trkpt lat="39.48590725" lon="-0.36574284"><ele>-46.0</ele><time>2022-10-30T16:29:13.0000000+00:00</time></trkpt><trkpt lat="39.48590532" lon="-0.36578173"><ele>-46.0</ele><time>2022-10-30T16:29:14.0000000+00:00</time></trkpt><trkpt lat="39.48590683" lon="-0.36580268"><ele>-46.0</ele><time>2022-10-30T16:29:15.0000000+00:00</time></trkpt><trkpt lat="39.485908" lon="-0.36582079"><ele>-46.0</ele><time>2022-10-30T16:29:16.0000000+00:00</time></trkpt><trkpt lat="39.48591278" lon="-0.36583847"><ele>-46.0</ele><time>2022-10-30T16:29:17.0000000+00:00</time></trkpt><trkpt lat="39.48592125" lon="-0.36586018"><ele>-46.0</ele><time>2022-10-30T16:29:18.0000000+00:00</time></trkpt><trkpt lat="39.48592284" lon="-0.36587636"><ele>-46.0</ele><time>2022-10-30T16:29:19.0000000+00:00</time></trkpt><trkpt lat="39.48592703" lon="-0.365901"><ele>-46.0</ele><time>2022-10-30T16:29:20.0000000+00:00</time></trkpt><trkpt lat="39.48593776" lon="-0.36592229"><ele>-46.0</ele><time>2022-10-30T16:29:21.0000000+00:00</time></trkpt><trkpt lat="39.48594941" lon="-0.36593151"><ele>-46.0</ele><time>2022-10-30T16:29:22.0000000+00:00</time></trkpt><trkpt lat="39.4859557" lon="-0.36594652"><ele>-46.0</ele><time>2022-10-30T16:29:23.0000000+00:00</time></trkpt><trkpt lat="39.48596316" lon="-0.36596085"><ele>-45.8</ele><time>2022-10-30T16:29:24.0000000+00:00</time></trkpt><trkpt lat="39.48597229" lon="-0.36597275"><ele>-45.8</ele><time>2022-10-30T16:29:25.0000000+00:00</time></trkpt><trkpt lat="39.48597883" lon="-0.36598457"><ele>-45.8</ele><time>2022-10-30T16:29:26.0000000+00:00</time></trkpt><trkpt lat="39.48598403" lon="-0.36601273"><ele>-45.8</ele><time>2022-10-30T16:29:27.0000000+00:00</time></trkpt><trkpt lat="39.48598746" lon="-0.36602967"><ele>-45.8</ele><time>2022-10-30T16:29:28.0000000+00:00</time></trkpt><trkpt lat="39.48599702" lon="-0.36605255"><ele>-45.8</ele><time>2022-10-30T16:29:29.0000000+00:00</time></trkpt><trkpt lat="39.4860028" lon="-0.36606747"><ele>-45.8</ele><time>2022-10-30T16:29:30.0000000+00:00</time></trkpt><trkpt lat="39.48600892" lon="-0.36608457"><ele>-45.8</ele><time>2022-10-30T16:29:31.0000000+00:00</time></trkpt><trkpt lat="39.48601822" lon="-0.36609898"><ele>-45.8</ele><time>2022-10-30T16:29:32.0000000+00:00</time></trkpt><trkpt lat="39.486022" lon="-0.36611189"><ele>-45.8</ele><time>2022-10-30T16:29:33.0000000+00:00</time></trkpt><trkpt lat="39.48602359" lon="-0.36612547"><ele>-45.8</ele><time>2022-10-30T16:29:34.0000000+00:00</time></trkpt><trkpt lat="39.48602988" lon="-0.36614232"><ele>-45.8</ele><time>2022-10-30T16:29:35.0000000+00:00</time></trkpt><trkpt lat="39.48603549" lon="-0.36616076"><ele>-45.8</ele><time>2022-10-30T16:29:36.0000000+00:00</time></trkpt><trkpt lat="39.48604194" lon="-0.36617367"><ele>-45.8</ele><time>2022-10-30T16:29:37.0000000+00:00</time></trkpt><trkpt lat="39.48605117" lon="-0.36618766"><ele>-45.8</ele><time>2022-10-30T16:29:38.0000000+00:00</time></trkpt><trkpt lat="39.48605795" lon="-0.36619387"><ele>-45.8</ele><time>2022-10-30T16:29:39.0000000+00:00</time></trkpt><trkpt lat="39.48606466" lon="-0.36621139"><ele>-45.8</ele><time>2022-10-30T16:29:40.0000000+00:00</time></trkpt><trkpt lat="39.48607279" lon="-0.36623368"><ele>-45.8</ele><time>2022-10-30T16:29:41.0000000+00:00</time></trkpt><trkpt lat="39.48607648" lon="-0.36624919"><ele>-45.8</ele><time>2022-10-30T16:29:42.0000000+00:00</time></trkpt><trkpt lat="39.48608276" lon="-0.36628473"><ele>-45.6</ele><time>2022-10-30T16:29:43.0000000+00:00</time></trkpt><trkpt lat="39.48608997" lon="-0.36630409"><ele>-45.6</ele><time>2022-10-30T16:29:44.0000000+00:00</time></trkpt><trkpt lat="39.48610095" lon="-0.36632177"><ele>-45.4</ele><time>2022-10-30T16:29:45.0000000+00:00</time></trkpt><trkpt lat="39.48611269" lon="-0.36633619"><ele>-45.4</ele><time>2022-10-30T16:29:46.0000000+00:00</time></trkpt><trkpt lat="39.48612208" lon="-0.36635379"><ele>-45.4</ele><time>2022-10-30T16:29:47.0000000+00:00</time></trkpt><trkpt lat="39.4861328" lon="-0.36636838"><ele>-45.2</ele><time>2022-10-30T16:29:48.0000000+00:00</time></trkpt><trkpt lat="39.48614119" lon="-0.36638305"><ele>-45.2</ele><time>2022-10-30T16:29:49.0000000+00:00</time></trkpt><trkpt lat="39.48614915" lon="-0.36640165"><ele>-45.2</ele><time>2022-10-30T16:29:50.0000000+00:00</time></trkpt><trkpt lat="39.48615544" lon="-0.36641775"><ele>-45.2</ele><time>2022-10-30T16:29:51.0000000+00:00</time></trkpt><trkpt lat="39.48616348" lon="-0.36643962"><ele>-45.4</ele><time>2022-10-30T16:29:52.0000000+00:00</time></trkpt><trkpt lat="39.48617455" lon="-0.36645647"><ele>-45.4</ele><time>2022-10-30T16:29:53.0000000+00:00</time></trkpt><trkpt lat="39.48618662" lon="-0.36647013"><ele>-45.4</ele><time>2022-10-30T16:29:54.0000000+00:00</time></trkpt><trkpt lat="39.48619944" lon="-0.36648782"><ele>-45.4</ele><time>2022-10-30T16:29:55.0000000+00:00</time></trkpt><trkpt lat="39.48620975" lon="-0.3665071"><ele>-45.4</ele><time>2022-10-30T16:29:56.0000000+00:00</time></trkpt><trkpt lat="39.48621922" lon="-0.36652755"><ele>-45.4</ele><time>2022-10-30T16:29:57.0000000+00:00</time></trkpt><trkpt lat="39.48622517" lon="-0.36654322"><ele>-45.4</ele><time>2022-10-30T16:29:58.0000000+00:00</time></trkpt><trkpt lat="39.48623288" lon="-0.36655504"><ele>-45.4</ele><time>2022-10-30T16:29:59.0000000+00:00</time></trkpt><trkpt lat="39.48624294" lon="-0.36656158"><ele>-45.4</ele><time>2022-10-30T16:30:00.0000000+00:00</time></trkpt><trkpt lat="39.48624806" lon="-0.36657516"><ele>-45.4</ele><time>2022-10-30T16:30:01.0000000+00:00</time></trkpt><trkpt lat="39.48625057" lon="-0.36658849"><ele>-45.4</ele><time>2022-10-30T16:30:02.0000000+00:00</time></trkpt><trkpt lat="39.48626197" lon="-0.36659787"><ele>-45.4</ele><time>2022-10-30T16:30:03.0000000+00:00</time></trkpt><trkpt lat="39.48627236" lon="-0.36660659"><ele>-45.4</ele><time>2022-10-30T16:30:04.0000000+00:00</time></trkpt><trkpt lat="39.48627865" lon="-0.3666174"><ele>-45.6</ele><time>2022-10-30T16:30:05.0000000+00:00</time></trkpt><trkpt lat="39.4862867" lon="-0.36662553"><ele>-45.6</ele><time>2022-10-30T16:30:06.0000000+00:00</time></trkpt><trkpt lat="39.48629357" lon="-0.36664004"><ele>-45.4</ele><time>2022-10-30T16:30:07.0000000+00:00</time></trkpt><trkpt lat="39.48629701" lon="-0.36665445"><ele>-45.4</ele><time>2022-10-30T16:30:08.0000000+00:00</time></trkpt><trkpt lat="39.48630002" lon="-0.36666845"><ele>-45.4</ele><time>2022-10-30T16:30:09.0000000+00:00</time></trkpt><trkpt lat="39.4863095" lon="-0.36668438"><ele>-45.4</ele><time>2022-10-30T16:30:10.0000000+00:00</time></trkpt><trkpt lat="39.48631352" lon="-0.36669846"><ele>-45.4</ele><time>2022-10-30T16:30:11.0000000+00:00</time></trkpt><trkpt lat="39.48631654" lon="-0.36671656"><ele>-45.4</ele><time>2022-10-30T16:30:12.0000000+00:00</time></trkpt><trkpt lat="39.48632157" lon="-0.36673525"><ele>-45.4</ele><time>2022-10-30T16:30:13.0000000+00:00</time></trkpt><trkpt lat="39.48632835" lon="-0.36675244"><ele>-45.4</ele><time>2022-10-30T16:30:14.0000000+00:00</time></trkpt><trkpt lat="39.48633548" lon="-0.36676694"><ele>-45.4</ele><time>2022-10-30T16:30:15.0000000+00:00</time></trkpt><trkpt lat="39.48634151" lon="-0.36677741"><ele>-45.4</ele><time>2022-10-30T16:30:16.0000000+00:00</time></trkpt><trkpt lat="39.48634361" lon="-0.36679703"><ele>-45.4</ele><time>2022-10-30T16:30:17.0000000+00:00</time></trkpt><trkpt lat="39.48634344" lon="-0.3668174"><ele>-45.4</ele><time>2022-10-30T16:30:18.0000000+00:00</time></trkpt><trkpt lat="39.48634788" lon="-0.3668298"><ele>-45.4</ele><time>2022-10-30T16:30:19.0000000+00:00</time></trkpt><trkpt lat="39.48635073" lon="-0.36684103"><ele>-45.2</ele><time>2022-10-30T16:30:20.0000000+00:00</time></trkpt><trkpt lat="39.48635752" lon="-0.36685537"><ele>-45.2</ele><time>2022-10-30T16:30:21.0000000+00:00</time></trkpt><trkpt lat="39.48636482" lon="-0.36686777"><ele>-45.2</ele><time>2022-10-30T16:30:22.0000000+00:00</time></trkpt><trkpt lat="39.4863737" lon="-0.36688169"><ele>-45.2</ele><time>2022-10-30T16:30:23.0000000+00:00</time></trkpt><trkpt lat="39.48638368" lon="-0.36688529"><ele>-45.2</ele><time>2022-10-30T16:30:24.0000000+00:00</time></trkpt><trkpt lat="39.48639365" lon="-0.36689862"><ele>-45.2</ele><time>2022-10-30T16:30:25.0000000+00:00</time></trkpt><trkpt lat="39.48639977" lon="-0.36691027"><ele>-45.2</ele><time>2022-10-30T16:30:26.0000000+00:00</time></trkpt><trkpt lat="39.4864084" lon="-0.36691907"><ele>-45.2</ele><time>2022-10-30T16:30:27.0000000+00:00</time></trkpt><trkpt lat="39.48641896" lon="-0.36693022"><ele>-45.2</ele><time>2022-10-30T16:30:28.0000000+00:00</time></trkpt><trkpt lat="39.48642776" lon="-0.36693986"><ele>-45.2</ele><time>2022-10-30T16:30:29.0000000+00:00</time></trkpt><trkpt lat="39.48643648" lon="-0.36695603"><ele>-45.2</ele><time>2022-10-30T16:30:30.0000000+00:00</time></trkpt><trkpt lat="39.48644763" lon="-0.36696877"><ele>-45.2</ele><time>2022-10-30T16:30:31.0000000+00:00</time></trkpt><trkpt lat="39.48645878" lon="-0.36697472"><ele>-45.2</ele><time>2022-10-30T16:30:32.0000000+00:00</time></trkpt><trkpt lat="39.48646624" lon="-0.36698411"><ele>-45.2</ele><time>2022-10-30T16:30:33.0000000+00:00</time></trkpt><trkpt lat="39.48647663" lon="-0.3669992"><ele>-45.2</ele><time>2022-10-30T16:30:34.0000000+00:00</time></trkpt><trkpt lat="39.48648007" lon="-0.36700616"><ele>-45.2</ele><time>2022-10-30T16:30:35.0000000+00:00</time></trkpt><trkpt lat="39.48648761" lon="-0.36700658"><ele>-45.2</ele><time>2022-10-30T16:30:36.0000000+00:00</time></trkpt><trkpt lat="39.486497" lon="-0.36700616"><ele>-45.2</ele><time>2022-10-30T16:30:37.0000000+00:00</time></trkpt><trkpt lat="39.48651259" lon="-0.36699819"><ele>-45.2</ele><time>2022-10-30T16:30:38.0000000+00:00</time></trkpt><trkpt lat="39.48652525" lon="-0.36699585"><ele>-45.2</ele><time>2022-10-30T16:30:39.0000000+00:00</time></trkpt><trkpt lat="39.48654109" lon="-0.3669821"><ele>-45.2</ele><time>2022-10-30T16:30:40.0000000+00:00</time></trkpt><trkpt lat="39.48655324" lon="-0.36697548"><ele>-45.4</ele><time>2022-10-30T16:30:41.0000000+00:00</time></trkpt><trkpt lat="39.48656791" lon="-0.36697397"><ele>-45.4</ele><time>2022-10-30T16:30:42.0000000+00:00</time></trkpt><trkpt lat="39.48658568" lon="-0.36695411"><ele>-45.4</ele><time>2022-10-30T16:30:43.0000000+00:00</time></trkpt><trkpt lat="39.48659842" lon="-0.36695561"><ele>-45.4</ele><time>2022-10-30T16:30:44.0000000+00:00</time></trkpt><trkpt lat="39.48660395" lon="-0.36695939"><ele>-45.4</ele><time>2022-10-30T16:30:45.0000000+00:00</time></trkpt><trkpt lat="39.48662273" lon="-0.36693458"><ele>-45.4</ele><time>2022-10-30T16:30:46.0000000+00:00</time></trkpt><trkpt lat="39.48663513" lon="-0.36693256"><ele>-45.4</ele><time>2022-10-30T16:30:47.0000000+00:00</time></trkpt><trkpt lat="39.48664611" lon="-0.36693634"><ele>-45.2</ele><time>2022-10-30T16:30:48.0000000+00:00</time></trkpt><trkpt lat="39.48665232" lon="-0.36694547"><ele>-45.2</ele><time>2022-10-30T16:30:49.0000000+00:00</time></trkpt><trkpt lat="39.4866555" lon="-0.3669624"><ele>-45.2</ele><time>2022-10-30T16:30:50.0000000+00:00</time></trkpt><trkpt lat="39.48666363" lon="-0.36696735"><ele>-45.2</ele><time>2022-10-30T16:30:51.0000000+00:00</time></trkpt><trkpt lat="39.48667352" lon="-0.3669712"><ele>-45.2</ele><time>2022-10-30T16:30:52.0000000+00:00</time></trkpt><trkpt lat="39.48668668" lon="-0.36697791"><ele>-45.2</ele><time>2022-10-30T16:30:53.0000000+00:00</time></trkpt><trkpt lat="39.48669506" lon="-0.36698294"><ele>-45.0</ele><time>2022-10-30T16:30:54.0000000+00:00</time></trkpt><trkpt lat="39.48671266" lon="-0.36698839"><ele>-45.2</ele><time>2022-10-30T16:30:55.0000000+00:00</time></trkpt><trkpt lat="39.48672549" lon="-0.36699669"><ele>-45.2</ele><time>2022-10-30T16:30:56.0000000+00:00</time></trkpt><trkpt lat="39.48673831" lon="-0.3670044"><ele>-45.2</ele><time>2022-10-30T16:30:57.0000000+00:00</time></trkpt><trkpt lat="39.48675172" lon="-0.36700096"><ele>-45.2</ele><time>2022-10-30T16:30:58.0000000+00:00</time></trkpt><trkpt lat="39.48675977" lon="-0.36700959"><ele>-45.2</ele><time>2022-10-30T16:30:59.0000000+00:00</time></trkpt><trkpt lat="39.48675851" lon="-0.36702879"><ele>-45.2</ele><time>2022-10-30T16:31:00.0000000+00:00</time></trkpt><trkpt lat="39.48676514" lon="-0.36704094"><ele>-45.2</ele><time>2022-10-30T16:31:01.0000000+00:00</time></trkpt><trkpt lat="39.486771" lon="-0.36705293"><ele>-45.2</ele><time>2022-10-30T16:31:02.0000000+00:00</time></trkpt><trkpt lat="39.48677494" lon="-0.36707011"><ele>-45.2</ele><time>2022-10-30T16:31:03.0000000+00:00</time></trkpt><trkpt lat="39.4867793" lon="-0.36708872"><ele>-45.2</ele><time>2022-10-30T16:31:04.0000000+00:00</time></trkpt><trkpt lat="39.48679112" lon="-0.36709006"><ele>-45.2</ele><time>2022-10-30T16:31:05.0000000+00:00</time></trkpt><trkpt lat="39.48680705" lon="-0.3671085"><ele>-45.2</ele><time>2022-10-30T16:31:06.0000000+00:00</time></trkpt><trkpt lat="39.48682775" lon="-0.36711018"><ele>-45.2</ele><time>2022-10-30T16:31:07.0000000+00:00</time></trkpt><trkpt lat="39.48683764" lon="-0.36712099"><ele>-45.0</ele><time>2022-10-30T16:31:08.0000000+00:00</time></trkpt><trkpt lat="39.48684275" lon="-0.36712803"><ele>-45.0</ele><time>2022-10-30T16:31:09.0000000+00:00</time></trkpt><trkpt lat="39.48684895" lon="-0.36713876"><ele>-44.8</ele><time>2022-10-30T16:31:10.0000000+00:00</time></trkpt><trkpt lat="39.48685885" lon="-0.36714287"><ele>-44.6</ele><time>2022-10-30T16:31:11.0000000+00:00</time></trkpt><trkpt lat="39.48687427" lon="-0.36714513"><ele>-44.4</ele><time>2022-10-30T16:31:12.0000000+00:00</time></trkpt><trkpt lat="39.48690084" lon="-0.36714588"><ele>-44.4</ele><time>2022-10-30T16:31:13.0000000+00:00</time></trkpt><trkpt lat="39.48692431" lon="-0.36715209"><ele>-44.4</ele><time>2022-10-30T16:31:14.0000000+00:00</time></trkpt><trkpt lat="39.4869368" lon="-0.36716256"><ele>-44.4</ele><time>2022-10-30T16:31:15.0000000+00:00</time></trkpt><trkpt lat="39.48693931" lon="-0.36716885"><ele>-44.6</ele><time>2022-10-30T16:31:16.0000000+00:00</time></trkpt><trkpt lat="39.48695071" lon="-0.36717472"><ele>-44.8</ele><time>2022-10-30T16:31:17.0000000+00:00</time></trkpt><trkpt lat="39.48697276" lon="-0.36717128"><ele>-44.8</ele><time>2022-10-30T16:31:18.0000000+00:00</time></trkpt><trkpt lat="39.4869953" lon="-0.36717916"><ele>-44.8</ele><time>2022-10-30T16:31:19.0000000+00:00</time></trkpt><trkpt lat="39.48700846" lon="-0.36718662"><ele>-44.8</ele><time>2022-10-30T16:31:20.0000000+00:00</time></trkpt><trkpt lat="39.48701341" lon="-0.36719416"><ele>-45.0</ele><time>2022-10-30T16:31:21.0000000+00:00</time></trkpt><trkpt lat="39.48703688" lon="-0.36720615"><ele>-45.0</ele><time>2022-10-30T16:31:22.0000000+00:00</time></trkpt><trkpt lat="39.48706898" lon="-0.36721562"><ele>-45.0</ele><time>2022-10-30T16:31:23.0000000+00:00</time></trkpt><trkpt lat="39.48708776" lon="-0.36722518"><ele>-45.0</ele><time>2022-10-30T16:31:24.0000000+00:00</time></trkpt><trkpt lat="39.48710921" lon="-0.36723515"><ele>-45.0</ele><time>2022-10-30T16:31:25.0000000+00:00</time></trkpt><trkpt lat="39.48711257" lon="-0.36723649"><ele>-45.0</ele><time>2022-10-30T16:31:26.0000000+00:00</time></trkpt><trkpt lat="39.48711491" lon="-0.36723859"><ele>-45.0</ele><time>2022-10-30T16:31:27.0000000+00:00</time></trkpt><trkpt lat="39.48712589" lon="-0.36725091"><ele>-45.0</ele><time>2022-10-30T16:31:28.0000000+00:00</time></trkpt><trkpt lat="39.48713704" lon="-0.36725703"><ele>-45.0</ele><time>2022-10-30T16:31:29.0000000+00:00</time></trkpt><trkpt lat="39.48715012" lon="-0.36725602"><ele>-45.0</ele><time>2022-10-30T16:31:30.0000000+00:00</time></trkpt><trkpt lat="39.48716395" lon="-0.36725954"><ele>-45.0</ele><time>2022-10-30T16:31:31.0000000+00:00</time></trkpt><trkpt lat="39.48718088" lon="-0.36726482"><ele>-45.0</ele><time>2022-10-30T16:31:32.0000000+00:00</time></trkpt><trkpt lat="39.48718239" lon="-0.36726935"><ele>-45.0</ele><time>2022-10-30T16:31:33.0000000+00:00</time></trkpt><trkpt lat="39.48718482" lon="-0.3672789"><ele>-45.0</ele><time>2022-10-30T16:31:34.0000000+00:00</time></trkpt><trkpt lat="39.4871906" lon="-0.36728494"><ele>-45.0</ele><time>2022-10-30T16:31:35.0000000+00:00</time></trkpt><trkpt lat="39.48719672" lon="-0.36729575"><ele>-45.0</ele><time>2022-10-30T16:31:36.0000000+00:00</time></trkpt><trkpt lat="39.48720091" lon="-0.36730053"><ele>-45.0</ele><time>2022-10-30T16:31:37.0000000+00:00</time></trkpt><trkpt lat="39.48720485" lon="-0.36729743"><ele>-45.0</ele><time>2022-10-30T16:31:38.0000000+00:00</time></trkpt><trkpt lat="39.48720829" lon="-0.36730531"><ele>-44.8</ele><time>2022-10-30T16:31:39.0000000+00:00</time></trkpt><trkpt lat="39.48720368" lon="-0.36731981"><ele>-44.8</ele><time>2022-10-30T16:31:40.0000000+00:00</time></trkpt><trkpt lat="39.48721332" lon="-0.36732023"><ele>-44.8</ele><time>2022-10-30T16:31:41.0000000+00:00</time></trkpt><trkpt lat="39.48719756" lon="-0.36734311"><ele>-44.8</ele><time>2022-10-30T16:31:42.0000000+00:00</time></trkpt><trkpt lat="39.48719915" lon="-0.36735627"><ele>-44.6</ele><time>2022-10-30T16:31:43.0000000+00:00</time></trkpt><trkpt lat="39.48720108" lon="-0.36736767"><ele>-44.8</ele><time>2022-10-30T16:31:44.0000000+00:00</time></trkpt><trkpt lat="39.48721147" lon="-0.36737203"><ele>-44.8</ele><time>2022-10-30T16:31:45.0000000+00:00</time></trkpt><trkpt lat="39.48721231" lon="-0.36739416"><ele>-44.8</ele><time>2022-10-30T16:31:46.0000000+00:00</time></trkpt><trkpt lat="39.48722396" lon="-0.36740455"><ele>-44.8</ele><time>2022-10-30T16:31:47.0000000+00:00</time></trkpt><trkpt lat="39.48725246" lon="-0.36741176"><ele>-44.8</ele><time>2022-10-30T16:31:48.0000000+00:00</time></trkpt><trkpt lat="39.48728079" lon="-0.36741687"><ele>-44.8</ele><time>2022-10-30T16:31:49.0000000+00:00</time></trkpt><trkpt lat="39.4872994" lon="-0.36742207"><ele>-44.8</ele><time>2022-10-30T16:31:50.0000000+00:00</time></trkpt><trkpt lat="39.48729688" lon="-0.36744537"><ele>-44.8</ele><time>2022-10-30T16:31:51.0000000+00:00</time></trkpt><trkpt lat="39.48730233" lon="-0.3674644"><ele>-44.6</ele><time>2022-10-30T16:31:52.0000000+00:00</time></trkpt><trkpt lat="39.48730828" lon="-0.36747906"><ele>-44.6</ele><time>2022-10-30T16:31:53.0000000+00:00</time></trkpt><trkpt lat="39.48732044" lon="-0.36748636"><ele>-44.6</ele><time>2022-10-30T16:31:54.0000000+00:00</time></trkpt><trkpt lat="39.48733351" lon="-0.36749901"><ele>-44.6</ele><time>2022-10-30T16:31:55.0000000+00:00</time></trkpt><trkpt lat="39.48733653" lon="-0.3675177"><ele>-44.6</ele><time>2022-10-30T16:31:56.0000000+00:00</time></trkpt><trkpt lat="39.48733896" lon="-0.36753271"><ele>-44.6</ele><time>2022-10-30T16:31:57.0000000+00:00</time></trkpt><trkpt lat="39.48734416" lon="-0.36754805"><ele>-44.6</ele><time>2022-10-30T16:31:58.0000000+00:00</time></trkpt><trkpt lat="39.48735028" lon="-0.36756087"><ele>-44.6</ele><time>2022-10-30T16:31:59.0000000+00:00</time></trkpt><trkpt lat="39.4873543" lon="-0.36757076"><ele>-44.6</ele><time>2022-10-30T16:32:00.0000000+00:00</time></trkpt><trkpt lat="39.48735489" lon="-0.36757973"><ele>-44.6</ele><time>2022-10-30T16:32:01.0000000+00:00</time></trkpt><trkpt lat="39.48735681" lon="-0.3675949"><ele>-44.6</ele><time>2022-10-30T16:32:02.0000000+00:00</time></trkpt><trkpt lat="39.48735924" lon="-0.36760471"><ele>-44.6</ele><time>2022-10-30T16:32:03.0000000+00:00</time></trkpt><trkpt lat="39.48736888" lon="-0.3676151"><ele>-44.6</ele><time>2022-10-30T16:32:04.0000000+00:00</time></trkpt><trkpt lat="39.48738263" lon="-0.36762499"><ele>-44.6</ele><time>2022-10-30T16:32:05.0000000+00:00</time></trkpt><trkpt lat="39.48739453" lon="-0.36763455"><ele>-44.6</ele><time>2022-10-30T16:32:06.0000000+00:00</time></trkpt><trkpt lat="39.4874113" lon="-0.36764419"><ele>-44.6</ele><time>2022-10-30T16:32:07.0000000+00:00</time></trkpt><trkpt lat="39.48741783" lon="-0.36766531"><ele>-44.4</ele><time>2022-10-30T16:32:08.0000000+00:00</time></trkpt><trkpt lat="39.48741842" lon="-0.3676788"><ele>-44.6</ele><time>2022-10-30T16:32:09.0000000+00:00</time></trkpt><trkpt lat="39.48742437" lon="-0.36769054"><ele>-44.4</ele><time>2022-10-30T16:32:10.0000000+00:00</time></trkpt><trkpt lat="39.4874284" lon="-0.36770563"><ele>-44.4</ele><time>2022-10-30T16:32:11.0000000+00:00</time></trkpt><trkpt lat="39.48743116" lon="-0.36772021"><ele>-44.4</ele><time>2022-10-30T16:32:12.0000000+00:00</time></trkpt><trkpt lat="39.48742705" lon="-0.36774452"><ele>-44.4</ele><time>2022-10-30T16:32:13.0000000+00:00</time></trkpt><trkpt lat="39.48742714" lon="-0.3677664"><ele>-44.4</ele><time>2022-10-30T16:32:14.0000000+00:00</time></trkpt><trkpt lat="39.48743183" lon="-0.36777872"><ele>-44.4</ele><time>2022-10-30T16:32:15.0000000+00:00</time></trkpt><trkpt lat="39.48744499" lon="-0.36778199"><ele>-44.4</ele><time>2022-10-30T16:32:16.0000000+00:00</time></trkpt><trkpt lat="39.48745497" lon="-0.36778274"><ele>-44.4</ele><time>2022-10-30T16:32:17.0000000+00:00</time></trkpt><trkpt lat="39.48746234" lon="-0.36778752"><ele>-44.4</ele><time>2022-10-30T16:32:18.0000000+00:00</time></trkpt><trkpt lat="39.48747005" lon="-0.36779313"><ele>-44.4</ele><time>2022-10-30T16:32:19.0000000+00:00</time></trkpt><trkpt lat="39.48747701" lon="-0.36780202"><ele>-44.4</ele><time>2022-10-30T16:32:20.0000000+00:00</time></trkpt><trkpt lat="39.48748682" lon="-0.36780713"><ele>-44.4</ele><time>2022-10-30T16:32:21.0000000+00:00</time></trkpt><trkpt lat="39.48749243" lon="-0.36781082"><ele>-44.4</ele><time>2022-10-30T16:32:22.0000000+00:00</time></trkpt><trkpt lat="39.48749939" lon="-0.3678244"><ele>-44.4</ele><time>2022-10-30T16:32:23.0000000+00:00</time></trkpt><trkpt lat="39.48750107" lon="-0.36784066"><ele>-44.4</ele><time>2022-10-30T16:32:24.0000000+00:00</time></trkpt><trkpt lat="39.48750576" lon="-0.36784954"><ele>-44.4</ele><time>2022-10-30T16:32:25.0000000+00:00</time></trkpt><trkpt lat="39.48751045" lon="-0.36786011"><ele>-44.4</ele><time>2022-10-30T16:32:26.0000000+00:00</time></trkpt><trkpt lat="39.48751532" lon="-0.36786865"><ele>-44.4</ele><time>2022-10-30T16:32:27.0000000+00:00</time></trkpt><trkpt lat="39.48751909" lon="-0.36786857"><ele>-44.4</ele><time>2022-10-30T16:32:28.0000000+00:00</time></trkpt><trkpt lat="39.48752085" lon="-0.36786648"><ele>-44.4</ele><time>2022-10-30T16:32:29.0000000+00:00</time></trkpt><trkpt lat="39.48752286" lon="-0.36786639"><ele>-44.4</ele><time>2022-10-30T16:32:30.0000000+00:00</time></trkpt><trkpt lat="39.48752227" lon="-0.36786681"><ele>-44.4</ele><time>2022-10-30T16:32:31.0000000+00:00</time></trkpt><trkpt lat="39.4875211" lon="-0.36786748"><ele>-44.6</ele><time>2022-10-30T16:32:32.0000000+00:00</time></trkpt><trkpt lat="39.48752051" lon="-0.36786748"><ele>-44.6</ele><time>2022-10-30T16:32:33.0000000+00:00</time></trkpt><trkpt lat="39.48752035" lon="-0.36786723"><ele>-44.6</ele><time>2022-10-30T16:32:34.0000000+00:00</time></trkpt><trkpt lat="39.48752009" lon="-0.36786681"><ele>-44.6</ele><time>2022-10-30T16:32:35.0000000+00:00</time></trkpt><trkpt lat="39.48751951" lon="-0.36786614"><ele>-44.6</ele><time>2022-10-30T16:32:36.0000000+00:00</time></trkpt><trkpt lat="39.48751909" lon="-0.36786673"><ele>-44.4</ele><time>2022-10-30T16:32:37.0000000+00:00</time></trkpt><trkpt lat="39.48751959" lon="-0.36786589"><ele>-44.4</ele><time>2022-10-30T16:32:38.0000000+00:00</time></trkpt><trkpt lat="39.48752018" lon="-0.36786488"><ele>-44.4</ele><time>2022-10-30T16:32:39.0000000+00:00</time></trkpt><trkpt lat="39.48752118" lon="-0.36786379"><ele>-44.4</ele><time>2022-10-30T16:32:40.0000000+00:00</time></trkpt><trkpt lat="39.48752085" lon="-0.3678643"><ele>-44.6</ele><time>2022-10-30T16:32:41.0000000+00:00</time></trkpt><trkpt lat="39.48752085" lon="-0.3678643"><ele>-44.6</ele><time>2022-10-30T16:32:42.0000000+00:00</time></trkpt><trkpt lat="39.48752085" lon="-0.3678643"><ele>-44.6</ele><time>2022-10-30T16:32:43.0000000+00:00</time></trkpt><trkpt lat="39.48752085" lon="-0.3678643"><ele>-44.6</ele><time>2022-10-30T16:32:44.0000000+00:00</time></trkpt><trkpt lat="39.48752085" lon="-0.3678643"><ele>-44.6</ele><time>2022-10-30T16:32:45.0000000+00:00</time></trkpt><trkpt lat="39.48752085" lon="-0.3678643"><ele>-44.6</ele><time>2022-10-30T16:32:46.0000000+00:00</time></trkpt><trkpt lat="39.48752085" lon="-0.3678643"><ele>-44.6</ele><time>2022-10-30T16:32:47.0000000+00:00</time></trkpt><trkpt lat="39.48752085" lon="-0.3678643"><ele>-44.6</ele><time>2022-10-30T16:32:48.0000000+00:00</time></trkpt><trkpt lat="39.48752085" lon="-0.3678643"><ele>-44.4</ele><time>2022-10-30T16:32:49.0000000+00:00</time></trkpt><trkpt lat="39.48752085" lon="-0.3678643"><ele>-44.4</ele><time>2022-10-30T16:32:50.0000000+00:00</time></trkpt><trkpt lat="39.48752085" lon="-0.3678643"><ele>-44.4</ele><time>2022-10-30T16:32:51.0000000+00:00</time></trkpt><trkpt lat="39.48752085" lon="-0.3678643"><ele>-44.4</ele><time>2022-10-30T16:32:52.0000000+00:00</time></trkpt><trkpt lat="39.48752085" lon="-0.3678643"><ele>-44.4</ele><time>2022-10-30T16:32:53.0000000+00:00</time></trkpt><trkpt lat="39.48752085" lon="-0.3678643"><ele>-44.4</ele><time>2022-10-30T16:32:54.0000000+00:00</time></trkpt><trkpt lat="39.48752085" lon="-0.3678643"><ele>-44.4</ele><time>2022-10-30T16:32:55.0000000+00:00</time></trkpt><trkpt lat="39.4875211" lon="-0.36786379"><ele>-44.4</ele><time>2022-10-30T16:32:56.0000000+00:00</time></trkpt><trkpt lat="39.48752252" lon="-0.36786371"><ele>-44.4</ele><time>2022-10-30T16:32:57.0000000+00:00</time></trkpt><trkpt lat="39.48752361" lon="-0.36786212"><ele>-44.4</ele><time>2022-10-30T16:32:58.0000000+00:00</time></trkpt><trkpt lat="39.48752504" lon="-0.36786195"><ele>-44.4</ele><time>2022-10-30T16:32:59.0000000+00:00</time></trkpt><trkpt lat="39.48752554" lon="-0.36786195"><ele>-44.4</ele><time>2022-10-30T16:33:00.0000000+00:00</time></trkpt><trkpt lat="39.48752655" lon="-0.36786195"><ele>-44.4</ele><time>2022-10-30T16:33:01.0000000+00:00</time></trkpt><trkpt lat="39.48752789" lon="-0.36786195"><ele>-44.4</ele><time>2022-10-30T16:33:02.0000000+00:00</time></trkpt><trkpt lat="39.48752839" lon="-0.36786195"><ele>-44.4</ele><time>2022-10-30T16:33:03.0000000+00:00</time></trkpt><trkpt lat="39.48752873" lon="-0.36786195"><ele>-44.4</ele><time>2022-10-30T16:33:04.0000000+00:00</time></trkpt><trkpt lat="39.48752873" lon="-0.36786195"><ele>-44.4</ele><time>2022-10-30T16:33:05.0000000+00:00</time></trkpt><trkpt lat="39.48752881" lon="-0.36786195"><ele>-44.4</ele><time>2022-10-30T16:33:06.0000000+00:00</time></trkpt><trkpt lat="39.48753426" lon="-0.36786446"><ele>-44.4</ele><time>2022-10-30T16:33:07.0000000+00:00</time></trkpt><trkpt lat="39.48755086" lon="-0.36787335"><ele>-44.4</ele><time>2022-10-30T16:33:08.0000000+00:00</time></trkpt><trkpt lat="39.4875646" lon="-0.36788089"><ele>-44.4</ele><time>2022-10-30T16:33:09.0000000+00:00</time></trkpt><trkpt lat="39.48757935" lon="-0.36788844"><ele>-44.4</ele><time>2022-10-30T16:33:10.0000000+00:00</time></trkpt><trkpt lat="39.48760081" lon="-0.36788383"><ele>-44.4</ele><time>2022-10-30T16:33:11.0000000+00:00</time></trkpt><trkpt lat="39.48761481" lon="-0.36788408"><ele>-44.4</ele><time>2022-10-30T16:33:12.0000000+00:00</time></trkpt><trkpt lat="39.48762445" lon="-0.36787997"><ele>-44.4</ele><time>2022-10-30T16:33:13.0000000+00:00</time></trkpt><trkpt lat="39.48763124" lon="-0.36788089"><ele>-44.4</ele><time>2022-10-30T16:33:14.0000000+00:00</time></trkpt><trkpt lat="39.48763878" lon="-0.36789112"><ele>-44.4</ele><time>2022-10-30T16:33:15.0000000+00:00</time></trkpt><trkpt lat="39.48764456" lon="-0.36790503"><ele>-44.4</ele><time>2022-10-30T16:33:16.0000000+00:00</time></trkpt><trkpt lat="39.48764741" lon="-0.36792121"><ele>-44.4</ele><time>2022-10-30T16:33:17.0000000+00:00</time></trkpt><trkpt lat="39.48765714" lon="-0.36793973"><ele>-44.4</ele><time>2022-10-30T16:33:18.0000000+00:00</time></trkpt><trkpt lat="39.48766225" lon="-0.36795138"><ele>-44.4</ele><time>2022-10-30T16:33:19.0000000+00:00</time></trkpt><trkpt lat="39.48766468" lon="-0.36796882"><ele>-44.4</ele><time>2022-10-30T16:33:20.0000000+00:00</time></trkpt><trkpt lat="39.48766661" lon="-0.36798609"><ele>-44.4</ele><time>2022-10-30T16:33:21.0000000+00:00</time></trkpt><trkpt lat="39.48767692" lon="-0.3680031"><ele>-44.2</ele><time>2022-10-30T16:33:22.0000000+00:00</time></trkpt><trkpt lat="39.4876848" lon="-0.36801844"><ele>-44.2</ele><time>2022-10-30T16:33:23.0000000+00:00</time></trkpt><trkpt lat="39.48769167" lon="-0.36803805"><ele>-44.2</ele><time>2022-10-30T16:33:24.0000000+00:00</time></trkpt><trkpt lat="39.48769234" lon="-0.36805465"><ele>-44.0</ele><time>2022-10-30T16:33:25.0000000+00:00</time></trkpt><trkpt lat="39.48769678" lon="-0.36807803"><ele>-44.0</ele><time>2022-10-30T16:33:26.0000000+00:00</time></trkpt><trkpt lat="39.48770173" lon="-0.36809069"><ele>-44.0</ele><time>2022-10-30T16:33:27.0000000+00:00</time></trkpt><trkpt lat="39.48770911" lon="-0.36810259"><ele>-44.0</ele><time>2022-10-30T16:33:28.0000000+00:00</time></trkpt><trkpt lat="39.48770559" lon="-0.36811626"><ele>-44.0</ele><time>2022-10-30T16:33:29.0000000+00:00</time></trkpt><trkpt lat="39.48770165" lon="-0.36812112"><ele>-44.0</ele><time>2022-10-30T16:33:30.0000000+00:00</time></trkpt><trkpt lat="39.4877003" lon="-0.36812472"><ele>-44.0</ele><time>2022-10-30T16:33:31.0000000+00:00</time></trkpt><trkpt lat="39.48771154" lon="-0.36814014"><ele>-44.0</ele><time>2022-10-30T16:33:32.0000000+00:00</time></trkpt><trkpt lat="39.48773073" lon="-0.36814467"><ele>-44.0</ele><time>2022-10-30T16:33:33.0000000+00:00</time></trkpt><trkpt lat="39.48774523" lon="-0.368159"><ele>-44.0</ele><time>2022-10-30T16:33:34.0000000+00:00</time></trkpt><trkpt lat="39.48775278" lon="-0.36818725"><ele>-44.0</ele><time>2022-10-30T16:33:35.0000000+00:00</time></trkpt><trkpt lat="39.48776409" lon="-0.3682051"><ele>-44.0</ele><time>2022-10-30T16:33:36.0000000+00:00</time></trkpt><trkpt lat="39.487778" lon="-0.36821583"><ele>-44.0</ele><time>2022-10-30T16:33:37.0000000+00:00</time></trkpt><trkpt lat="39.48779737" lon="-0.36822941"><ele>-44.0</ele><time>2022-10-30T16:33:38.0000000+00:00</time></trkpt><trkpt lat="39.48781195" lon="-0.36824668"><ele>-44.0</ele><time>2022-10-30T16:33:39.0000000+00:00</time></trkpt><trkpt lat="39.48782746" lon="-0.3682621"><ele>-44.2</ele><time>2022-10-30T16:33:40.0000000+00:00</time></trkpt><trkpt lat="39.48784355" lon="-0.36829596"><ele>-44.2</ele><time>2022-10-30T16:33:41.0000000+00:00</time></trkpt><trkpt lat="39.48785428" lon="-0.36830938"><ele>-44.2</ele><time>2022-10-30T16:33:42.0000000+00:00</time></trkpt><trkpt lat="39.48786534" lon="-0.36832832"><ele>-44.2</ele><time>2022-10-30T16:33:43.0000000+00:00</time></trkpt><trkpt lat="39.48787096" lon="-0.3683403"><ele>-44.2</ele><time>2022-10-30T16:33:44.0000000+00:00</time></trkpt><trkpt lat="39.48787473" lon="-0.36834626"><ele>-44.0</ele><time>2022-10-30T16:33:45.0000000+00:00</time></trkpt><trkpt lat="39.48788043" lon="-0.36835179"><ele>-44.0</ele><time>2022-10-30T16:33:46.0000000+00:00</time></trkpt><trkpt lat="39.48788471" lon="-0.3683564"><ele>-44.0</ele><time>2022-10-30T16:33:47.0000000+00:00</time></trkpt><trkpt lat="39.48789678" lon="-0.36835707"><ele>-44.0</ele><time>2022-10-30T16:33:48.0000000+00:00</time></trkpt><trkpt lat="39.48790533" lon="-0.36835698"><ele>-44.0</ele><time>2022-10-30T16:33:49.0000000+00:00</time></trkpt><trkpt lat="39.487921" lon="-0.36836109"><ele>-44.0</ele><time>2022-10-30T16:33:50.0000000+00:00</time></trkpt><trkpt lat="39.48795017" lon="-0.36836931"><ele>-44.0</ele><time>2022-10-30T16:33:51.0000000+00:00</time></trkpt><trkpt lat="39.48797179" lon="-0.36837702"><ele>-44.0</ele><time>2022-10-30T16:33:52.0000000+00:00</time></trkpt><trkpt lat="39.4879878" lon="-0.3683911"><ele>-44.0</ele><time>2022-10-30T16:33:53.0000000+00:00</time></trkpt><trkpt lat="39.4879951" lon="-0.36839873"><ele>-44.0</ele><time>2022-10-30T16:33:54.0000000+00:00</time></trkpt><trkpt lat="39.48800239" lon="-0.36840451"><ele>-44.0</ele><time>2022-10-30T16:33:55.0000000+00:00</time></trkpt><trkpt lat="39.48801136" lon="-0.36840619"><ele>-44.0</ele><time>2022-10-30T16:33:56.0000000+00:00</time></trkpt><trkpt lat="39.48802058" lon="-0.36840987"><ele>-44.0</ele><time>2022-10-30T16:33:57.0000000+00:00</time></trkpt><trkpt lat="39.48803877" lon="-0.36840015"><ele>-43.8</ele><time>2022-10-30T16:33:58.0000000+00:00</time></trkpt><trkpt lat="39.48805645" lon="-0.36839604"><ele>-43.8</ele><time>2022-10-30T16:33:59.0000000+00:00</time></trkpt><trkpt lat="39.48806483" lon="-0.36839169"><ele>-43.8</ele><time>2022-10-30T16:34:00.0000000+00:00</time></trkpt><trkpt lat="39.48807741" lon="-0.3683942"><ele>-43.8</ele><time>2022-10-30T16:34:01.0000000+00:00</time></trkpt><trkpt lat="39.48809182" lon="-0.36839546"><ele>-43.8</ele><time>2022-10-30T16:34:02.0000000+00:00</time></trkpt><trkpt lat="39.48810867" lon="-0.36839294"><ele>-44.0</ele><time>2022-10-30T16:34:03.0000000+00:00</time></trkpt><trkpt lat="39.48812426" lon="-0.3683942"><ele>-44.0</ele><time>2022-10-30T16:34:04.0000000+00:00</time></trkpt><trkpt lat="39.48813382" lon="-0.36839739"><ele>-44.0</ele><time>2022-10-30T16:34:05.0000000+00:00</time></trkpt><trkpt lat="39.48814949" lon="-0.36839613"><ele>-44.0</ele><time>2022-10-30T16:34:06.0000000+00:00</time></trkpt><trkpt lat="39.48815678" lon="-0.36839915"><ele>-44.0</ele><time>2022-10-30T16:34:07.0000000+00:00</time></trkpt><trkpt lat="39.48815896" lon="-0.36841381"><ele>-44.0</ele><time>2022-10-30T16:34:08.0000000+00:00</time></trkpt><trkpt lat="39.48817187" lon="-0.36843292"><ele>-44.0</ele><time>2022-10-30T16:34:09.0000000+00:00</time></trkpt><trkpt lat="39.48819115" lon="-0.36844206"><ele>-44.0</ele><time>2022-10-30T16:34:10.0000000+00:00</time></trkpt><trkpt lat="39.48820733" lon="-0.36844919"><ele>-44.0</ele><time>2022-10-30T16:34:11.0000000+00:00</time></trkpt><trkpt lat="39.48821504" lon="-0.36846142"><ele>-44.0</ele><time>2022-10-30T16:34:12.0000000+00:00</time></trkpt><trkpt lat="39.48822032" lon="-0.36847215"><ele>-43.8</ele><time>2022-10-30T16:34:13.0000000+00:00</time></trkpt><trkpt lat="39.48822501" lon="-0.36848271"><ele>-43.8</ele><time>2022-10-30T16:34:14.0000000+00:00</time></trkpt><trkpt lat="39.48823004" lon="-0.36849269"><ele>-43.8</ele><time>2022-10-30T16:34:15.0000000+00:00</time></trkpt><trkpt lat="39.48823758" lon="-0.36850241"><ele>-43.8</ele><time>2022-10-30T16:34:16.0000000+00:00</time></trkpt><trkpt lat="39.48823934" lon="-0.3685299"><ele>-43.8</ele><time>2022-10-30T16:34:17.0000000+00:00</time></trkpt><trkpt lat="39.48823633" lon="-0.36855161"><ele>-43.8</ele><time>2022-10-30T16:34:18.0000000+00:00</time></trkpt><trkpt lat="39.48823649" lon="-0.36857072"><ele>-43.8</ele><time>2022-10-30T16:34:19.0000000+00:00</time></trkpt><trkpt lat="39.48824303" lon="-0.36860794"><ele>-43.8</ele><time>2022-10-30T16:34:20.0000000+00:00</time></trkpt><trkpt lat="39.48823566" lon="-0.36864691"><ele>-43.8</ele><time>2022-10-30T16:34:21.0000000+00:00</time></trkpt><trkpt lat="39.48823205" lon="-0.36867424"><ele>-43.8</ele><time>2022-10-30T16:34:22.0000000+00:00</time></trkpt><trkpt lat="39.4882308" lon="-0.36869193"><ele>-43.8</ele><time>2022-10-30T16:34:23.0000000+00:00</time></trkpt><trkpt lat="39.48823373" lon="-0.36870718"><ele>-43.8</ele><time>2022-10-30T16:34:24.0000000+00:00</time></trkpt><trkpt lat="39.48823876" lon="-0.36872503"><ele>-43.8</ele><time>2022-10-30T16:34:25.0000000+00:00</time></trkpt><trkpt lat="39.48824404" lon="-0.36874448"><ele>-43.8</ele><time>2022-10-30T16:34:26.0000000+00:00</time></trkpt><trkpt lat="39.48825074" lon="-0.36875982"><ele>-43.8</ele><time>2022-10-30T16:34:27.0000000+00:00</time></trkpt><trkpt lat="39.48825971" lon="-0.36877583"><ele>-43.6</ele><time>2022-10-30T16:34:28.0000000+00:00</time></trkpt><trkpt lat="39.48826592" lon="-0.36877675"><ele>-43.6</ele><time>2022-10-30T16:34:29.0000000+00:00</time></trkpt><trkpt lat="39.48826768" lon="-0.36877985"><ele>-43.6</ele><time>2022-10-30T16:34:30.0000000+00:00</time></trkpt><trkpt lat="39.48826466" lon="-0.36878035"><ele>-43.6</ele><time>2022-10-30T16:34:31.0000000+00:00</time></trkpt><trkpt lat="39.48827027" lon="-0.36878681"><ele>-43.6</ele><time>2022-10-30T16:34:32.0000000+00:00</time></trkpt><trkpt lat="39.4882722" lon="-0.36878731"><ele>-43.8</ele><time>2022-10-30T16:34:33.0000000+00:00</time></trkpt><trkpt lat="39.48826248" lon="-0.36878622"><ele>-43.8</ele><time>2022-10-30T16:34:34.0000000+00:00</time></trkpt><trkpt lat="39.48825393" lon="-0.36878907"><ele>-43.8</ele><time>2022-10-30T16:34:35.0000000+00:00</time></trkpt><trkpt lat="39.48824178" lon="-0.36878564"><ele>-43.6</ele><time>2022-10-30T16:34:36.0000000+00:00</time></trkpt><trkpt lat="39.48823415" lon="-0.36878807"><ele>-43.4</ele><time>2022-10-30T16:34:37.0000000+00:00</time></trkpt><trkpt lat="39.48823205" lon="-0.3687827"><ele>-43.4</ele><time>2022-10-30T16:34:38.0000000+00:00</time></trkpt><trkpt lat="39.48823121" lon="-0.36878211"><ele>-43.4</ele><time>2022-10-30T16:34:39.0000000+00:00</time></trkpt><trkpt lat="39.48822895" lon="-0.36877373"><ele>-43.4</ele><time>2022-10-30T16:34:40.0000000+00:00</time></trkpt><trkpt lat="39.48822191" lon="-0.36877323"><ele>-43.4</ele><time>2022-10-30T16:34:41.0000000+00:00</time></trkpt><trkpt lat="39.48821998" lon="-0.36876518"><ele>-43.4</ele><time>2022-10-30T16:34:42.0000000+00:00</time></trkpt><trkpt lat="39.48822451" lon="-0.3687594"><ele>-43.6</ele><time>2022-10-30T16:34:43.0000000+00:00</time></trkpt><trkpt lat="39.48822753" lon="-0.36875814"><ele>-43.6</ele><time>2022-10-30T16:34:44.0000000+00:00</time></trkpt><trkpt lat="39.48822677" lon="-0.36875588"><ele>-43.6</ele><time>2022-10-30T16:34:45.0000000+00:00</time></trkpt><trkpt lat="39.48821562" lon="-0.36874666"><ele>-43.6</ele><time>2022-10-30T16:34:46.0000000+00:00</time></trkpt><trkpt lat="39.48819601" lon="-0.36874909"><ele>-43.6</ele><time>2022-10-30T16:34:47.0000000+00:00</time></trkpt><trkpt lat="39.48817732" lon="-0.36874901"><ele>-43.6</ele><time>2022-10-30T16:34:48.0000000+00:00</time></trkpt><trkpt lat="39.48816072" lon="-0.36875135"><ele>-43.6</ele><time>2022-10-30T16:34:49.0000000+00:00</time></trkpt><trkpt lat="39.48814647" lon="-0.36875135"><ele>-43.6</ele><time>2022-10-30T16:34:50.0000000+00:00</time></trkpt><trkpt lat="39.48812963" lon="-0.36874741"><ele>-43.6</ele><time>2022-10-30T16:34:51.0000000+00:00</time></trkpt><trkpt lat="39.48810842" lon="-0.36874632"><ele>-43.8</ele><time>2022-10-30T16:34:52.0000000+00:00</time></trkpt><trkpt lat="39.48808671" lon="-0.36874607"><ele>-43.8</ele><time>2022-10-30T16:34:53.0000000+00:00</time></trkpt><trkpt lat="39.48806819" lon="-0.36874373"><ele>-43.8</ele><time>2022-10-30T16:34:54.0000000+00:00</time></trkpt><trkpt lat="39.48804799" lon="-0.36873979"><ele>-43.8</ele><time>2022-10-30T16:34:55.0000000+00:00</time></trkpt><trkpt lat="39.48804296" lon="-0.36874113"><ele>-43.8</ele><time>2022-10-30T16:34:56.0000000+00:00</time></trkpt><trkpt lat="39.48804229" lon="-0.36874129"><ele>-43.8</ele><time>2022-10-30T16:34:57.0000000+00:00</time></trkpt><trkpt lat="39.48804086" lon="-0.36874146"><ele>-43.8</ele><time>2022-10-30T16:34:58.0000000+00:00</time></trkpt><trkpt lat="39.48803969" lon="-0.36874113"><ele>-43.8</ele><time>2022-10-30T16:34:59.0000000+00:00</time></trkpt><trkpt lat="39.48803935" lon="-0.36874121"><ele>-43.8</ele><time>2022-10-30T16:35:00.0000000+00:00</time></trkpt><trkpt lat="39.48803843" lon="-0.36874062"><ele>-43.8</ele><time>2022-10-30T16:35:01.0000000+00:00</time></trkpt><trkpt lat="39.4880365" lon="-0.3687392"><ele>-43.8</ele><time>2022-10-30T16:35:02.0000000+00:00</time></trkpt><trkpt lat="39.48803483" lon="-0.36873819"><ele>-43.8</ele><time>2022-10-30T16:35:03.0000000+00:00</time></trkpt><trkpt lat="39.48801898" lon="-0.36873903"><ele>-43.8</ele><time>2022-10-30T16:35:04.0000000+00:00</time></trkpt><trkpt lat="39.48801639" lon="-0.36873736"><ele>-43.8</ele><time>2022-10-30T16:35:05.0000000+00:00</time></trkpt><trkpt lat="39.4880158" lon="-0.36873652"><ele>-43.8</ele><time>2022-10-30T16:35:06.0000000+00:00</time></trkpt><trkpt lat="39.48801412" lon="-0.36873518"><ele>-43.8</ele><time>2022-10-30T16:35:07.0000000+00:00</time></trkpt><trkpt lat="39.48800641" lon="-0.36874012"><ele>-43.8</ele><time>2022-10-30T16:35:08.0000000+00:00</time></trkpt><trkpt lat="39.48800582" lon="-0.36873995"><ele>-43.6</ele><time>2022-10-30T16:35:09.0000000+00:00</time></trkpt><trkpt lat="39.48800683" lon="-0.36874088"><ele>-43.6</ele><time>2022-10-30T16:35:10.0000000+00:00</time></trkpt><trkpt lat="39.48801152" lon="-0.3687397"><ele>-43.6</ele><time>2022-10-30T16:35:11.0000000+00:00</time></trkpt><trkpt lat="39.48801186" lon="-0.36873987"><ele>-43.6</ele><time>2022-10-30T16:35:12.0000000+00:00</time></trkpt><trkpt lat="39.48801152" lon="-0.36874012"><ele>-43.6</ele><time>2022-10-30T16:35:13.0000000+00:00</time></trkpt><trkpt lat="39.48801236" lon="-0.36874088"><ele>-43.6</ele><time>2022-10-30T16:35:14.0000000+00:00</time></trkpt><trkpt lat="39.48801261" lon="-0.36874138"><ele>-43.6</ele><time>2022-10-30T16:35:15.0000000+00:00</time></trkpt><trkpt lat="39.48801261" lon="-0.36874138"><ele>-43.6</ele><time>2022-10-30T16:35:16.0000000+00:00</time></trkpt><trkpt lat="39.48801261" lon="-0.36874138"><ele>-43.6</ele><time>2022-10-30T16:35:17.0000000+00:00</time></trkpt><trkpt lat="39.48801261" lon="-0.36874138"><ele>-43.8</ele><time>2022-10-30T16:35:18.0000000+00:00</time></trkpt><trkpt lat="39.48801261" lon="-0.36874138"><ele>-43.8</ele><time>2022-10-30T16:35:19.0000000+00:00</time></trkpt><trkpt lat="39.48801261" lon="-0.36874138"><ele>-43.8</ele><time>2022-10-30T16:35:20.0000000+00:00</time></trkpt><trkpt lat="39.48801261" lon="-0.36874138"><ele>-43.8</ele><time>2022-10-30T16:35:21.0000000+00:00</time></trkpt><trkpt lat="39.48801261" lon="-0.36874138"><ele>-43.8</ele><time>2022-10-30T16:35:22.0000000+00:00</time></trkpt><trkpt lat="39.48801261" lon="-0.36874138"><ele>-43.8</ele><time>2022-10-30T16:35:23.0000000+00:00</time></trkpt><trkpt lat="39.48801253" lon="-0.36874121"><ele>-43.8</ele><time>2022-10-30T16:35:24.0000000+00:00</time></trkpt><trkpt lat="39.48801236" lon="-0.36874121"><ele>-43.8</ele><time>2022-10-30T16:35:25.0000000+00:00</time></trkpt><trkpt lat="39.48801186" lon="-0.36874121"><ele>-43.8</ele><time>2022-10-30T16:35:26.0000000+00:00</time></trkpt><trkpt lat="39.48801152" lon="-0.36874121"><ele>-43.8</ele><time>2022-10-30T16:35:27.0000000+00:00</time></trkpt><trkpt lat="39.48801152" lon="-0.36874121"><ele>-43.8</ele><time>2022-10-30T16:35:28.0000000+00:00</time></trkpt><trkpt lat="39.48800951" lon="-0.36874121"><ele>-43.8</ele><time>2022-10-30T16:35:29.0000000+00:00</time></trkpt><trkpt lat="39.48800775" lon="-0.36874121"><ele>-43.8</ele><time>2022-10-30T16:35:30.0000000+00:00</time></trkpt><trkpt lat="39.48800683" lon="-0.36874121"><ele>-43.8</ele><time>2022-10-30T16:35:31.0000000+00:00</time></trkpt><trkpt lat="39.48800641" lon="-0.36874121"><ele>-43.8</ele><time>2022-10-30T16:35:32.0000000+00:00</time></trkpt><trkpt lat="39.48800624" lon="-0.36874121"><ele>-43.8</ele><time>2022-10-30T16:35:33.0000000+00:00</time></trkpt><trkpt lat="39.48800591" lon="-0.36874121"><ele>-43.8</ele><time>2022-10-30T16:35:34.0000000+00:00</time></trkpt><trkpt lat="39.48800415" lon="-0.36874121"><ele>-43.6</ele><time>2022-10-30T16:35:35.0000000+00:00</time></trkpt><trkpt lat="39.48800381" lon="-0.36874121"><ele>-43.6</ele><time>2022-10-30T16:35:36.0000000+00:00</time></trkpt><trkpt lat="39.48800373" lon="-0.36874138"><ele>-43.6</ele><time>2022-10-30T16:35:37.0000000+00:00</time></trkpt><trkpt lat="39.48800373" lon="-0.36874155"><ele>-43.6</ele><time>2022-10-30T16:35:38.0000000+00:00</time></trkpt><trkpt lat="39.48800373" lon="-0.36874188"><ele>-43.6</ele><time>2022-10-30T16:35:39.0000000+00:00</time></trkpt><trkpt lat="39.48800356" lon="-0.36874247"><ele>-43.8</ele><time>2022-10-30T16:35:40.0000000+00:00</time></trkpt><trkpt lat="39.48800339" lon="-0.36874247"><ele>-43.8</ele><time>2022-10-30T16:35:41.0000000+00:00</time></trkpt><trkpt lat="39.48800323" lon="-0.36874255"><ele>-43.8</ele><time>2022-10-30T16:35:42.0000000+00:00</time></trkpt><trkpt lat="39.48800314" lon="-0.36874255"><ele>-43.8</ele><time>2022-10-30T16:35:43.0000000+00:00</time></trkpt><trkpt lat="39.48800314" lon="-0.36874255"><ele>-43.8</ele><time>2022-10-30T16:35:44.0000000+00:00</time></trkpt><trkpt lat="39.48800298" lon="-0.36874255"><ele>-43.8</ele><time>2022-10-30T16:35:45.0000000+00:00</time></trkpt><trkpt lat="39.48800272" lon="-0.36874255"><ele>-43.6</ele><time>2022-10-30T16:35:46.0000000+00:00</time></trkpt><trkpt lat="39.48800272" lon="-0.36874255"><ele>-43.6</ele><time>2022-10-30T16:35:47.0000000+00:00</time></trkpt><trkpt lat="39.48800272" lon="-0.36874255"><ele>-43.6</ele><time>2022-10-30T16:35:48.0000000+00:00</time></trkpt><trkpt lat="39.4880023" lon="-0.36874255"><ele>-43.6</ele><time>2022-10-30T16:35:49.0000000+00:00</time></trkpt><trkpt lat="39.48800205" lon="-0.36874255"><ele>-43.6</ele><time>2022-10-30T16:35:50.0000000+00:00</time></trkpt><trkpt lat="39.48800197" lon="-0.36874255"><ele>-43.6</ele><time>2022-10-30T16:35:51.0000000+00:00</time></trkpt><trkpt lat="39.48800147" lon="-0.36874255"><ele>-43.6</ele><time>2022-10-30T16:35:52.0000000+00:00</time></trkpt><trkpt lat="39.48800038" lon="-0.36874255"><ele>-43.6</ele><time>2022-10-30T16:35:53.0000000+00:00</time></trkpt><trkpt lat="39.48800013" lon="-0.36874255"><ele>-43.6</ele><time>2022-10-30T16:35:54.0000000+00:00</time></trkpt><trkpt lat="39.48799979" lon="-0.36874188"><ele>-43.8</ele><time>2022-10-30T16:35:55.0000000+00:00</time></trkpt><trkpt lat="39.48799937" lon="-0.36874163"><ele>-43.8</ele><time>2022-10-30T16:35:56.0000000+00:00</time></trkpt><trkpt lat="39.48799912" lon="-0.36874155"><ele>-43.8</ele><time>2022-10-30T16:35:57.0000000+00:00</time></trkpt><trkpt lat="39.48799904" lon="-0.36874138"><ele>-43.8</ele><time>2022-10-30T16:35:58.0000000+00:00</time></trkpt><trkpt lat="39.48799895" lon="-0.36874129"><ele>-43.8</ele><time>2022-10-30T16:35:59.0000000+00:00</time></trkpt><trkpt lat="39.48799878" lon="-0.36874121"><ele>-43.8</ele><time>2022-10-30T16:36:00.0000000+00:00</time></trkpt><trkpt lat="39.48799845" lon="-0.36874113"><ele>-43.8</ele><time>2022-10-30T16:36:01.0000000+00:00</time></trkpt><trkpt lat="39.4879982" lon="-0.36874113"><ele>-43.8</ele><time>2022-10-30T16:36:02.0000000+00:00</time></trkpt><trkpt lat="39.48799811" lon="-0.36874113"><ele>-43.8</ele><time>2022-10-30T16:36:03.0000000+00:00</time></trkpt><trkpt lat="39.48799803" lon="-0.36874113"><ele>-43.8</ele><time>2022-10-30T16:36:04.0000000+00:00</time></trkpt><trkpt lat="39.48799786" lon="-0.36874113"><ele>-43.8</ele><time>2022-10-30T16:36:05.0000000+00:00</time></trkpt><trkpt lat="39.48799778" lon="-0.36874096"><ele>-43.8</ele><time>2022-10-30T16:36:06.0000000+00:00</time></trkpt><trkpt lat="39.48799778" lon="-0.36874088"><ele>-43.8</ele><time>2022-10-30T16:36:07.0000000+00:00</time></trkpt><trkpt lat="39.48799753" lon="-0.36874079"><ele>-43.8</ele><time>2022-10-30T16:36:08.0000000+00:00</time></trkpt><trkpt lat="39.48799753" lon="-0.36874079"><ele>-43.8</ele><time>2022-10-30T16:36:09.0000000+00:00</time></trkpt><trkpt lat="39.48799719" lon="-0.36874079"><ele>-43.8</ele><time>2022-10-30T16:36:10.0000000+00:00</time></trkpt><trkpt lat="39.4879966" lon="-0.36874088"><ele>-43.8</ele><time>2022-10-30T16:36:11.0000000+00:00</time></trkpt><trkpt lat="39.48799644" lon="-0.36874104"><ele>-43.8</ele><time>2022-10-30T16:36:12.0000000+00:00</time></trkpt><trkpt lat="39.48799644" lon="-0.36874121"><ele>-43.8</ele><time>2022-10-30T16:36:13.0000000+00:00</time></trkpt><trkpt lat="39.48799644" lon="-0.36874129"><ele>-43.8</ele><time>2022-10-30T16:36:14.0000000+00:00</time></trkpt><trkpt lat="39.48799409" lon="-0.36874129"><ele>-43.8</ele><time>2022-10-30T16:36:15.0000000+00:00</time></trkpt><trkpt lat="39.48799292" lon="-0.36874129"><ele>-43.8</ele><time>2022-10-30T16:36:16.0000000+00:00</time></trkpt><trkpt lat="39.48799241" lon="-0.36874129"><ele>-43.8</ele><time>2022-10-30T16:36:17.0000000+00:00</time></trkpt><trkpt lat="39.48799174" lon="-0.36874129"><ele>-43.8</ele><time>2022-10-30T16:36:18.0000000+00:00</time></trkpt><trkpt lat="39.48799124" lon="-0.36874171"><ele>-43.8</ele><time>2022-10-30T16:36:19.0000000+00:00</time></trkpt><trkpt lat="39.48798822" lon="-0.36874213"><ele>-43.8</ele><time>2022-10-30T16:36:20.0000000+00:00</time></trkpt><trkpt lat="39.48798663" lon="-0.36874255"><ele>-43.8</ele><time>2022-10-30T16:36:21.0000000+00:00</time></trkpt><trkpt lat="39.48798462" lon="-0.36874272"><ele>-43.8</ele><time>2022-10-30T16:36:22.0000000+00:00</time></trkpt><trkpt lat="39.48798386" lon="-0.36874306"><ele>-43.8</ele><time>2022-10-30T16:36:23.0000000+00:00</time></trkpt><trkpt lat="39.48798328" lon="-0.36874322"><ele>-43.8</ele><time>2022-10-30T16:36:24.0000000+00:00</time></trkpt><trkpt lat="39.48798261" lon="-0.36874381"><ele>-43.8</ele><time>2022-10-30T16:36:25.0000000+00:00</time></trkpt><trkpt lat="39.48798068" lon="-0.36874423"><ele>-43.8</ele><time>2022-10-30T16:36:26.0000000+00:00</time></trkpt><trkpt lat="39.48797481" lon="-0.36874909"><ele>-43.8</ele><time>2022-10-30T16:36:27.0000000+00:00</time></trkpt><trkpt lat="39.48797096" lon="-0.36875404"><ele>-43.8</ele><time>2022-10-30T16:36:28.0000000+00:00</time></trkpt><trkpt lat="39.48796174" lon="-0.36876719"><ele>-43.8</ele><time>2022-10-30T16:36:29.0000000+00:00</time></trkpt><trkpt lat="39.4879505" lon="-0.3687931"><ele>-43.8</ele><time>2022-10-30T16:36:30.0000000+00:00</time></trkpt><trkpt lat="39.48794757" lon="-0.36881925"><ele>-43.8</ele><time>2022-10-30T16:36:31.0000000+00:00</time></trkpt><trkpt lat="39.48794145" lon="-0.36882738"><ele>-43.8</ele><time>2022-10-30T16:36:32.0000000+00:00</time></trkpt><trkpt lat="39.48793718" lon="-0.36884791"><ele>-43.8</ele><time>2022-10-30T16:36:33.0000000+00:00</time></trkpt><trkpt lat="39.48792771" lon="-0.36886543"><ele>-43.8</ele><time>2022-10-30T16:36:34.0000000+00:00</time></trkpt><trkpt lat="39.48791807" lon="-0.36888789"><ele>-43.8</ele><time>2022-10-30T16:36:35.0000000+00:00</time></trkpt><trkpt lat="39.48791605" lon="-0.36890918"><ele>-43.8</ele><time>2022-10-30T16:36:36.0000000+00:00</time></trkpt><trkpt lat="39.48791446" lon="-0.3689241"><ele>-43.8</ele><time>2022-10-30T16:36:37.0000000+00:00</time></trkpt><trkpt lat="39.48791597" lon="-0.36894028"><ele>-43.8</ele><time>2022-10-30T16:36:38.0000000+00:00</time></trkpt><trkpt lat="39.48792025" lon="-0.3689578"><ele>-43.8</ele><time>2022-10-30T16:36:39.0000000+00:00</time></trkpt><trkpt lat="39.48792578" lon="-0.36897272"><ele>-43.8</ele><time>2022-10-30T16:36:40.0000000+00:00</time></trkpt><trkpt lat="39.48793232" lon="-0.36899007"><ele>-43.8</ele><time>2022-10-30T16:36:41.0000000+00:00</time></trkpt><trkpt lat="39.48793978" lon="-0.36900885"><ele>-43.8</ele><time>2022-10-30T16:36:42.0000000+00:00</time></trkpt><trkpt lat="39.48795034" lon="-0.36903097"><ele>-43.8</ele><time>2022-10-30T16:36:43.0000000+00:00</time></trkpt><trkpt lat="39.48795956" lon="-0.36905335"><ele>-43.8</ele><time>2022-10-30T16:36:44.0000000+00:00</time></trkpt><trkpt lat="39.4879733" lon="-0.36907481"><ele>-43.6</ele><time>2022-10-30T16:36:45.0000000+00:00</time></trkpt><trkpt lat="39.48799535" lon="-0.36909333"><ele>-43.6</ele><time>2022-10-30T16:36:46.0000000+00:00</time></trkpt><trkpt lat="39.48800935" lon="-0.36911127"><ele>-43.6</ele><time>2022-10-30T16:36:47.0000000+00:00</time></trkpt><trkpt lat="39.48802468" lon="-0.36913659"><ele>-43.6</ele><time>2022-10-30T16:36:48.0000000+00:00</time></trkpt><trkpt lat="39.48803156" lon="-0.36915972"><ele>-43.6</ele><time>2022-10-30T16:36:49.0000000+00:00</time></trkpt><trkpt lat="39.48804136" lon="-0.36917757"><ele>-43.6</ele><time>2022-10-30T16:36:50.0000000+00:00</time></trkpt><trkpt lat="39.48805427" lon="-0.36919492"><ele>-43.6</ele><time>2022-10-30T16:36:51.0000000+00:00</time></trkpt><trkpt lat="39.48806508" lon="-0.36920968"><ele>-43.6</ele><time>2022-10-30T16:36:52.0000000+00:00</time></trkpt><trkpt lat="39.48807288" lon="-0.36923172"><ele>-43.6</ele><time>2022-10-30T16:36:53.0000000+00:00</time></trkpt><trkpt lat="39.48808059" lon="-0.36924647"><ele>-43.6</ele><time>2022-10-30T16:36:54.0000000+00:00</time></trkpt><trkpt lat="39.48809023" lon="-0.36926097"><ele>-43.6</ele><time>2022-10-30T16:36:55.0000000+00:00</time></trkpt><trkpt lat="39.48810708" lon="-0.3692888"><ele>-43.6</ele><time>2022-10-30T16:36:56.0000000+00:00</time></trkpt><trkpt lat="39.48811848" lon="-0.36931269"><ele>-43.6</ele><time>2022-10-30T16:36:57.0000000+00:00</time></trkpt><trkpt lat="39.48813407" lon="-0.36932509"><ele>-43.6</ele><time>2022-10-30T16:36:58.0000000+00:00</time></trkpt><trkpt lat="39.48814622" lon="-0.36933884"><ele>-43.6</ele><time>2022-10-30T16:36:59.0000000+00:00</time></trkpt><trkpt lat="39.48815569" lon="-0.36935175"><ele>-43.6</ele><time>2022-10-30T16:37:00.0000000+00:00</time></trkpt><trkpt lat="39.48816382" lon="-0.36936969"><ele>-43.6</ele><time>2022-10-30T16:37:01.0000000+00:00</time></trkpt><trkpt lat="39.48818008" lon="-0.36939391"><ele>-43.6</ele><time>2022-10-30T16:37:02.0000000+00:00</time></trkpt><trkpt lat="39.48819626" lon="-0.36941201"><ele>-43.6</ele><time>2022-10-30T16:37:03.0000000+00:00</time></trkpt><trkpt lat="39.48820498" lon="-0.36942878"><ele>-43.6</ele><time>2022-10-30T16:37:04.0000000+00:00</time></trkpt><trkpt lat="39.48821847" lon="-0.36944563"><ele>-43.6</ele><time>2022-10-30T16:37:05.0000000+00:00</time></trkpt><trkpt lat="39.4882323" lon="-0.36945074"><ele>-43.6</ele><time>2022-10-30T16:37:06.0000000+00:00</time></trkpt><trkpt lat="39.48824404" lon="-0.36946541"><ele>-43.6</ele><time>2022-10-30T16:37:07.0000000+00:00</time></trkpt><trkpt lat="39.4882598" lon="-0.36947622"><ele>-43.6</ele><time>2022-10-30T16:37:08.0000000+00:00</time></trkpt><trkpt lat="39.48826768" lon="-0.36948879"><ele>-43.6</ele><time>2022-10-30T16:37:09.0000000+00:00</time></trkpt><trkpt lat="39.48827195" lon="-0.36949843"><ele>-43.6</ele><time>2022-10-30T16:37:10.0000000+00:00</time></trkpt><trkpt lat="39.48827832" lon="-0.36951008"><ele>-43.6</ele><time>2022-10-30T16:37:11.0000000+00:00</time></trkpt><trkpt lat="39.48828176" lon="-0.36952081"><ele>-43.6</ele><time>2022-10-30T16:37:12.0000000+00:00</time></trkpt><trkpt lat="39.48828368" lon="-0.36953623"><ele>-43.6</ele><time>2022-10-30T16:37:13.0000000+00:00</time></trkpt><trkpt lat="39.48830095" lon="-0.36955518"><ele>-43.6</ele><time>2022-10-30T16:37:14.0000000+00:00</time></trkpt><trkpt lat="39.48831135" lon="-0.36956666"><ele>-43.4</ele><time>2022-10-30T16:37:15.0000000+00:00</time></trkpt><trkpt lat="39.48831336" lon="-0.36957798"><ele>-43.4</ele><time>2022-10-30T16:37:16.0000000+00:00</time></trkpt><trkpt lat="39.48831512" lon="-0.36958166"><ele>-43.4</ele><time>2022-10-30T16:37:17.0000000+00:00</time></trkpt><trkpt lat="39.48831411" lon="-0.36958485"><ele>-43.6</ele><time>2022-10-30T16:37:18.0000000+00:00</time></trkpt><trkpt lat="39.48831051" lon="-0.36960321"><ele>-43.6</ele><time>2022-10-30T16:37:19.0000000+00:00</time></trkpt><trkpt lat="39.48831151" lon="-0.36961318"><ele>-43.6</ele><time>2022-10-30T16:37:20.0000000+00:00</time></trkpt><trkpt lat="39.4883095" lon="-0.36962492"><ele>-43.6</ele><time>2022-10-30T16:37:21.0000000+00:00</time></trkpt><trkpt lat="39.48830095" lon="-0.36964403"><ele>-43.6</ele><time>2022-10-30T16:37:22.0000000+00:00</time></trkpt><trkpt lat="39.48829986" lon="-0.3696711"><ele>-43.4</ele><time>2022-10-30T16:37:23.0000000+00:00</time></trkpt><trkpt lat="39.48829575" lon="-0.36969759"><ele>-43.4</ele><time>2022-10-30T16:37:24.0000000+00:00</time></trkpt><trkpt lat="39.48829483" lon="-0.36971804"><ele>-43.4</ele><time>2022-10-30T16:37:25.0000000+00:00</time></trkpt><trkpt lat="39.48829575" lon="-0.36973447"><ele>-43.4</ele><time>2022-10-30T16:37:26.0000000+00:00</time></trkpt><trkpt lat="39.48829676" lon="-0.3697457"><ele>-43.4</ele><time>2022-10-30T16:37:27.0000000+00:00</time></trkpt><trkpt lat="39.48829592" lon="-0.36975148"><ele>-43.4</ele><time>2022-10-30T16:37:28.0000000+00:00</time></trkpt><trkpt lat="39.48829835" lon="-0.36976355"><ele>-43.2</ele><time>2022-10-30T16:37:29.0000000+00:00</time></trkpt><trkpt lat="39.48831076" lon="-0.36978861"><ele>-43.2</ele><time>2022-10-30T16:37:30.0000000+00:00</time></trkpt><trkpt lat="39.48831663" lon="-0.36981485"><ele>-43.2</ele><time>2022-10-30T16:37:31.0000000+00:00</time></trkpt><trkpt lat="39.48832467" lon="-0.36984025"><ele>-43.2</ele><time>2022-10-30T16:37:32.0000000+00:00</time></trkpt><trkpt lat="39.48833171" lon="-0.3698612"><ele>-43.2</ele><time>2022-10-30T16:37:33.0000000+00:00</time></trkpt><trkpt lat="39.48833599" lon="-0.36988182"><ele>-43.2</ele><time>2022-10-30T16:37:34.0000000+00:00</time></trkpt><trkpt lat="39.48833959" lon="-0.36990143"><ele>-43.2</ele><time>2022-10-30T16:37:35.0000000+00:00</time></trkpt><trkpt lat="39.48833984" lon="-0.36991996"><ele>-43.2</ele><time>2022-10-30T16:37:36.0000000+00:00</time></trkpt><trkpt lat="39.48833926" lon="-0.3699379"><ele>-43.2</ele><time>2022-10-30T16:37:37.0000000+00:00</time></trkpt><trkpt lat="39.4883375" lon="-0.36995198"><ele>-43.2</ele><time>2022-10-30T16:37:38.0000000+00:00</time></trkpt><trkpt lat="39.48833984" lon="-0.3699638"><ele>-43.2</ele><time>2022-10-30T16:37:39.0000000+00:00</time></trkpt><trkpt lat="39.48835233" lon="-0.36997587"><ele>-43.2</ele><time>2022-10-30T16:37:40.0000000+00:00</time></trkpt><trkpt lat="39.48835778" lon="-0.36999179"><ele>-43.2</ele><time>2022-10-30T16:37:41.0000000+00:00</time></trkpt><trkpt lat="39.48836298" lon="-0.37001224"><ele>-43.2</ele><time>2022-10-30T16:37:42.0000000+00:00</time></trkpt><trkpt lat="39.48836952" lon="-0.37002884"><ele>-43.2</ele><time>2022-10-30T16:37:43.0000000+00:00</time></trkpt><trkpt lat="39.48837907" lon="-0.37004393"><ele>-43.2</ele><time>2022-10-30T16:37:44.0000000+00:00</time></trkpt><trkpt lat="39.48838544" lon="-0.37005985"><ele>-43.2</ele><time>2022-10-30T16:37:45.0000000+00:00</time></trkpt><trkpt lat="39.48838737" lon="-0.37007787"><ele>-43.2</ele><time>2022-10-30T16:37:46.0000000+00:00</time></trkpt><trkpt lat="39.48838846" lon="-0.37008558"><ele>-43.2</ele><time>2022-10-30T16:37:47.0000000+00:00</time></trkpt><trkpt lat="39.48838988" lon="-0.37009581"><ele>-43.2</ele><time>2022-10-30T16:37:48.0000000+00:00</time></trkpt><trkpt lat="39.48839542" lon="-0.37011241"><ele>-43.2</ele><time>2022-10-30T16:37:49.0000000+00:00</time></trkpt><trkpt lat="39.48840464" lon="-0.37013328"><ele>-43.2</ele><time>2022-10-30T16:37:50.0000000+00:00</time></trkpt><trkpt lat="39.48840782" lon="-0.37015406"><ele>-43.2</ele><time>2022-10-30T16:37:51.0000000+00:00</time></trkpt><trkpt lat="39.48840061" lon="-0.37016756"><ele>-43.2</ele><time>2022-10-30T16:37:52.0000000+00:00</time></trkpt><trkpt lat="39.48839642" lon="-0.37017862"><ele>-43.2</ele><time>2022-10-30T16:37:53.0000000+00:00</time></trkpt><trkpt lat="39.48839441" lon="-0.37019379"><ele>-43.0</ele><time>2022-10-30T16:37:54.0000000+00:00</time></trkpt><trkpt lat="39.48839558" lon="-0.37020947"><ele>-43.2</ele><time>2022-10-30T16:37:55.0000000+00:00</time></trkpt><trkpt lat="39.48840346" lon="-0.37022573"><ele>-43.2</ele><time>2022-10-30T16:37:56.0000000+00:00</time></trkpt><trkpt lat="39.48841025" lon="-0.37023948"><ele>-43.2</ele><time>2022-10-30T16:37:57.0000000+00:00</time></trkpt><trkpt lat="39.48841528" lon="-0.37025113"><ele>-43.0</ele><time>2022-10-30T16:37:58.0000000+00:00</time></trkpt><trkpt lat="39.48842157" lon="-0.3702632"><ele>-43.0</ele><time>2022-10-30T16:37:59.0000000+00:00</time></trkpt><trkpt lat="39.48842517" lon="-0.37027577"><ele>-43.0</ele><time>2022-10-30T16:38:00.0000000+00:00</time></trkpt><trkpt lat="39.48842894" lon="-0.37028868"><ele>-43.2</ele><time>2022-10-30T16:38:01.0000000+00:00</time></trkpt><trkpt lat="39.48843699" lon="-0.37029421"><ele>-43.2</ele><time>2022-10-30T16:38:02.0000000+00:00</time></trkpt><trkpt lat="39.48844135" lon="-0.37030234"><ele>-43.2</ele><time>2022-10-30T16:38:03.0000000+00:00</time></trkpt><trkpt lat="39.48844261" lon="-0.37030804"><ele>-43.2</ele><time>2022-10-30T16:38:04.0000000+00:00</time></trkpt><trkpt lat="39.4884478" lon="-0.37031693"><ele>-43.2</ele><time>2022-10-30T16:38:05.0000000+00:00</time></trkpt><trkpt lat="39.48845509" lon="-0.37032832"><ele>-43.2</ele><time>2022-10-30T16:38:06.0000000+00:00</time></trkpt><trkpt lat="39.48846172" lon="-0.37033889"><ele>-43.2</ele><time>2022-10-30T16:38:07.0000000+00:00</time></trkpt><trkpt lat="39.48847278" lon="-0.37034635"><ele>-43.2</ele><time>2022-10-30T16:38:08.0000000+00:00</time></trkpt><trkpt lat="39.48848468" lon="-0.37035305"><ele>-43.2</ele><time>2022-10-30T16:38:09.0000000+00:00</time></trkpt><trkpt lat="39.48850002" lon="-0.37036613"><ele>-43.2</ele><time>2022-10-30T16:38:10.0000000+00:00</time></trkpt><trkpt lat="39.4885043" lon="-0.37038499"><ele>-43.2</ele><time>2022-10-30T16:38:11.0000000+00:00</time></trkpt><trkpt lat="39.4885214" lon="-0.37040778"><ele>-43.2</ele><time>2022-10-30T16:38:12.0000000+00:00</time></trkpt><trkpt lat="39.48853154" lon="-0.37041684"><ele>-43.0</ele><time>2022-10-30T16:38:13.0000000+00:00</time></trkpt><trkpt lat="39.48853321" lon="-0.37043058"><ele>-43.0</ele><time>2022-10-30T16:38:14.0000000+00:00</time></trkpt><trkpt lat="39.48854361" lon="-0.37044207"><ele>-43.0</ele><time>2022-10-30T16:38:15.0000000+00:00</time></trkpt><trkpt lat="39.48855434" lon="-0.37044752"><ele>-43.0</ele><time>2022-10-30T16:38:16.0000000+00:00</time></trkpt><trkpt lat="39.48856792" lon="-0.3704533"><ele>-43.0</ele><time>2022-10-30T16:38:17.0000000+00:00</time></trkpt><trkpt lat="39.48857353" lon="-0.37044961"><ele>-43.0</ele><time>2022-10-30T16:38:18.0000000+00:00</time></trkpt><trkpt lat="39.48857672" lon="-0.37045497"><ele>-43.0</ele><time>2022-10-30T16:38:19.0000000+00:00</time></trkpt><trkpt lat="39.48857957" lon="-0.37046093"><ele>-43.0</ele><time>2022-10-30T16:38:20.0000000+00:00</time></trkpt><trkpt lat="39.48858661" lon="-0.37046872"><ele>-43.0</ele><time>2022-10-30T16:38:21.0000000+00:00</time></trkpt><trkpt lat="39.48859549" lon="-0.37047484"><ele>-43.0</ele><time>2022-10-30T16:38:22.0000000+00:00</time></trkpt><trkpt lat="39.48860278" lon="-0.37048331"><ele>-43.0</ele><time>2022-10-30T16:38:23.0000000+00:00</time></trkpt><trkpt lat="39.48861628" lon="-0.37049051"><ele>-43.0</ele><time>2022-10-30T16:38:24.0000000+00:00</time></trkpt><trkpt lat="39.48862055" lon="-0.37048741"><ele>-43.0</ele><time>2022-10-30T16:38:25.0000000+00:00</time></trkpt><trkpt lat="39.48862198" lon="-0.37049278"><ele>-43.0</ele><time>2022-10-30T16:38:26.0000000+00:00</time></trkpt><trkpt lat="39.48862064" lon="-0.3704937"><ele>-43.0</ele><time>2022-10-30T16:38:27.0000000+00:00</time></trkpt><trkpt lat="39.48862298" lon="-0.37050443"><ele>-43.0</ele><time>2022-10-30T16:38:28.0000000+00:00</time></trkpt><trkpt lat="39.48862349" lon="-0.37051222"><ele>-43.0</ele><time>2022-10-30T16:38:29.0000000+00:00</time></trkpt><trkpt lat="39.48862357" lon="-0.37052094"><ele>-43.0</ele><time>2022-10-30T16:38:30.0000000+00:00</time></trkpt><trkpt lat="39.4886255" lon="-0.37053276"><ele>-43.0</ele><time>2022-10-30T16:38:31.0000000+00:00</time></trkpt><trkpt lat="39.48862718" lon="-0.37053553"><ele>-43.0</ele><time>2022-10-30T16:38:32.0000000+00:00</time></trkpt><trkpt lat="39.48862986" lon="-0.3705346"><ele>-43.0</ele><time>2022-10-30T16:38:33.0000000+00:00</time></trkpt><trkpt lat="39.48863304" lon="-0.37053972"><ele>-43.0</ele><time>2022-10-30T16:38:34.0000000+00:00</time></trkpt><trkpt lat="39.48863187" lon="-0.37054231"><ele>-43.0</ele><time>2022-10-30T16:38:35.0000000+00:00</time></trkpt><trkpt lat="39.48863128" lon="-0.37054231"><ele>-43.2</ele><time>2022-10-30T16:38:36.0000000+00:00</time></trkpt><trkpt lat="39.48863212" lon="-0.37054483"><ele>-43.2</ele><time>2022-10-30T16:38:37.0000000+00:00</time></trkpt><trkpt lat="39.48863464" lon="-0.37054977"><ele>-43.2</ele><time>2022-10-30T16:38:38.0000000+00:00</time></trkpt><trkpt lat="39.48863355" lon="-0.37055103"><ele>-43.2</ele><time>2022-10-30T16:38:39.0000000+00:00</time></trkpt><trkpt lat="39.48863044" lon="-0.37054877"><ele>-43.2</ele><time>2022-10-30T16:38:40.0000000+00:00</time></trkpt><trkpt lat="39.48862919" lon="-0.37054894"><ele>-43.2</ele><time>2022-10-30T16:38:41.0000000+00:00</time></trkpt><trkpt lat="39.48862877" lon="-0.37055237"><ele>-43.2</ele><time>2022-10-30T16:38:42.0000000+00:00</time></trkpt><trkpt lat="39.48862558" lon="-0.37055145"><ele>-43.2</ele><time>2022-10-30T16:38:43.0000000+00:00</time></trkpt><trkpt lat="39.48862072" lon="-0.37055623"><ele>-43.2</ele><time>2022-10-30T16:38:44.0000000+00:00</time></trkpt><trkpt lat="39.48861569" lon="-0.37055489"><ele>-43.2</ele><time>2022-10-30T16:38:45.0000000+00:00</time></trkpt><trkpt lat="39.48861167" lon="-0.37055195"><ele>-43.2</ele><time>2022-10-30T16:38:46.0000000+00:00</time></trkpt><trkpt lat="39.48859641" lon="-0.37055698"><ele>-43.4</ele><time>2022-10-30T16:38:47.0000000+00:00</time></trkpt><trkpt lat="39.48858267" lon="-0.37056629"><ele>-43.4</ele><time>2022-10-30T16:38:48.0000000+00:00</time></trkpt><trkpt lat="39.48857068" lon="-0.37057375"><ele>-43.4</ele><time>2022-10-30T16:38:49.0000000+00:00</time></trkpt><trkpt lat="39.48856766" lon="-0.37057509"><ele>-43.4</ele><time>2022-10-30T16:38:50.0000000+00:00</time></trkpt><trkpt lat="39.48856892" lon="-0.37057685"><ele>-43.4</ele><time>2022-10-30T16:38:51.0000000+00:00</time></trkpt><trkpt lat="39.48856758" lon="-0.37057869"><ele>-43.4</ele><time>2022-10-30T16:38:52.0000000+00:00</time></trkpt><trkpt lat="39.48856263" lon="-0.37058414"><ele>-43.4</ele><time>2022-10-30T16:38:53.0000000+00:00</time></trkpt><trkpt lat="39.48855928" lon="-0.37058464"><ele>-43.4</ele><time>2022-10-30T16:38:54.0000000+00:00</time></trkpt><trkpt lat="39.4885561" lon="-0.37058397"><ele>-43.4</ele><time>2022-10-30T16:38:55.0000000+00:00</time></trkpt><trkpt lat="39.48855459" lon="-0.37058313"><ele>-43.4</ele><time>2022-10-30T16:38:56.0000000+00:00</time></trkpt><trkpt lat="39.48855333" lon="-0.37058146"><ele>-43.4</ele><time>2022-10-30T16:38:57.0000000+00:00</time></trkpt><trkpt lat="39.48855224" lon="-0.37057827"><ele>-43.4</ele><time>2022-10-30T16:38:58.0000000+00:00</time></trkpt><trkpt lat="39.48855844" lon="-0.37058322"><ele>-43.4</ele><time>2022-10-30T16:38:59.0000000+00:00</time></trkpt><trkpt lat="39.48855895" lon="-0.37058129"><ele>-43.2</ele><time>2022-10-30T16:39:00.0000000+00:00</time></trkpt><trkpt lat="39.48856029" lon="-0.37058188"><ele>-43.2</ele><time>2022-10-30T16:39:01.0000000+00:00</time></trkpt><trkpt lat="39.48856674" lon="-0.37058867"><ele>-43.2</ele><time>2022-10-30T16:39:02.0000000+00:00</time></trkpt><trkpt lat="39.48857236" lon="-0.37059621"><ele>-43.2</ele><time>2022-10-30T16:39:03.0000000+00:00</time></trkpt><trkpt lat="39.48857563" lon="-0.37060208"><ele>-43.2</ele><time>2022-10-30T16:39:04.0000000+00:00</time></trkpt><trkpt lat="39.48858024" lon="-0.37061105"><ele>-43.2</ele><time>2022-10-30T16:39:05.0000000+00:00</time></trkpt><trkpt lat="39.48858686" lon="-0.37061566"><ele>-43.2</ele><time>2022-10-30T16:39:06.0000000+00:00</time></trkpt><trkpt lat="39.48859365" lon="-0.37062152"><ele>-43.0</ele><time>2022-10-30T16:39:07.0000000+00:00</time></trkpt><trkpt lat="39.48859893" lon="-0.37062622"><ele>-43.0</ele><time>2022-10-30T16:39:08.0000000+00:00</time></trkpt><trkpt lat="39.48860865" lon="-0.3706325"><ele>-43.0</ele><time>2022-10-30T16:39:10.0000000+00:00</time></trkpt><trkpt lat="39.48842182" lon="-0.37009933"><ele>-44.4</ele><time>2022-10-30T16:59:52.0000000+00:00</time></trkpt><trkpt lat="39.48864017" lon="-0.37070744"><ele>-44.4</ele><time>2022-10-30T16:59:53.0000000+00:00</time></trkpt><trkpt lat="39.48867596" lon="-0.37094029"><ele>-44.4</ele><time>2022-10-30T16:59:54.0000000+00:00</time></trkpt><trkpt lat="39.48862416" lon="-0.37090114"><ele>-44.4</ele><time>2022-10-30T16:59:55.0000000+00:00</time></trkpt><trkpt lat="39.48853196" lon="-0.37078614"><ele>-44.4</ele><time>2022-10-30T16:59:56.0000000+00:00</time></trkpt><trkpt lat="39.4884882" lon="-0.37074097"><ele>-44.4</ele><time>2022-10-30T16:59:57.0000000+00:00</time></trkpt><trkpt lat="39.48849198" lon="-0.37077826"><ele>-44.4</ele><time>2022-10-30T16:59:58.0000000+00:00</time></trkpt><trkpt lat="39.48848116" lon="-0.37081246"><ele>-44.4</ele><time>2022-10-30T16:59:59.0000000+00:00</time></trkpt><trkpt lat="39.48847974" lon="-0.3708133"><ele>-44.4</ele><time>2022-10-30T17:00:00.0000000+00:00</time></trkpt><trkpt lat="39.48845962" lon="-0.37083308"><ele>-44.4</ele><time>2022-10-30T17:00:01.0000000+00:00</time></trkpt><trkpt lat="39.48844009" lon="-0.37083954"><ele>-44.4</ele><time>2022-10-30T17:00:02.0000000+00:00</time></trkpt><trkpt lat="39.48841193" lon="-0.37086234"><ele>-44.4</ele><time>2022-10-30T17:00:03.0000000+00:00</time></trkpt><trkpt lat="39.48836147" lon="-0.37087591"><ele>-44.4</ele><time>2022-10-30T17:00:04.0000000+00:00</time></trkpt><trkpt lat="39.48831311" lon="-0.37087172"><ele>-44.4</ele><time>2022-10-30T17:00:05.0000000+00:00</time></trkpt><trkpt lat="39.48828243" lon="-0.37088187"><ele>-44.4</ele><time>2022-10-30T17:00:06.0000000+00:00</time></trkpt><trkpt lat="39.4882541" lon="-0.37089058"><ele>-44.4</ele><time>2022-10-30T17:00:07.0000000+00:00</time></trkpt><trkpt lat="39.4882209" lon="-0.37090886"><ele>-44.4</ele><time>2022-10-30T17:00:08.0000000+00:00</time></trkpt><trkpt lat="39.48819291" lon="-0.37092562"><ele>-44.4</ele><time>2022-10-30T17:00:09.0000000+00:00</time></trkpt><trkpt lat="39.48816533" lon="-0.37093442"><ele>-44.4</ele><time>2022-10-30T17:00:10.0000000+00:00</time></trkpt><trkpt lat="39.48814999" lon="-0.37093794"><ele>-44.4</ele><time>2022-10-30T17:00:11.0000000+00:00</time></trkpt><trkpt lat="39.48813038" lon="-0.37094238"><ele>-44.4</ele><time>2022-10-30T17:00:12.0000000+00:00</time></trkpt><trkpt lat="39.48811253" lon="-0.37094339"><ele>-44.2</ele><time>2022-10-30T17:00:13.0000000+00:00</time></trkpt><trkpt lat="39.48809635" lon="-0.37095211"><ele>-44.2</ele><time>2022-10-30T17:00:14.0000000+00:00</time></trkpt><trkpt lat="39.4880785" lon="-0.37096242"><ele>-44.2</ele><time>2022-10-30T17:00:15.0000000+00:00</time></trkpt><trkpt lat="39.48806106" lon="-0.37097541"><ele>-44.2</ele><time>2022-10-30T17:00:16.0000000+00:00</time></trkpt><trkpt lat="39.48803969" lon="-0.37098102"><ele>-44.4</ele><time>2022-10-30T17:00:17.0000000+00:00</time></trkpt><trkpt lat="39.48801932" lon="-0.37099167"><ele>-44.4</ele><time>2022-10-30T17:00:18.0000000+00:00</time></trkpt><trkpt lat="39.48799945" lon="-0.37101086"><ele>-44.4</ele><time>2022-10-30T17:00:19.0000000+00:00</time></trkpt><trkpt lat="39.48798311" lon="-0.37102017"><ele>-44.4</ele><time>2022-10-30T17:00:20.0000000+00:00</time></trkpt><trkpt lat="39.48796609" lon="-0.37103098"><ele>-44.4</ele><time>2022-10-30T17:00:21.0000000+00:00</time></trkpt><trkpt lat="39.48795134" lon="-0.3710381"><ele>-44.4</ele><time>2022-10-30T17:00:22.0000000+00:00</time></trkpt><trkpt lat="39.48793843" lon="-0.37104556"><ele>-44.4</ele><time>2022-10-30T17:00:23.0000000+00:00</time></trkpt><trkpt lat="39.48792192" lon="-0.37105914"><ele>-44.4</ele><time>2022-10-30T17:00:24.0000000+00:00</time></trkpt><trkpt lat="39.48790533" lon="-0.37107322"><ele>-44.4</ele><time>2022-10-30T17:00:25.0000000+00:00</time></trkpt><trkpt lat="39.48788982" lon="-0.37107934"><ele>-44.4</ele><time>2022-10-30T17:00:26.0000000+00:00</time></trkpt><trkpt lat="39.48787297" lon="-0.37108379"><ele>-44.4</ele><time>2022-10-30T17:00:27.0000000+00:00</time></trkpt><trkpt lat="39.48785344" lon="-0.37108965"><ele>-44.4</ele><time>2022-10-30T17:00:28.0000000+00:00</time></trkpt><trkpt lat="39.48783685" lon="-0.37109233"><ele>-44.4</ele><time>2022-10-30T17:00:29.0000000+00:00</time></trkpt><trkpt lat="39.48782486" lon="-0.37109326"><ele>-44.4</ele><time>2022-10-30T17:00:30.0000000+00:00</time></trkpt><trkpt lat="39.48781321" lon="-0.37109342"><ele>-44.4</ele><time>2022-10-30T17:00:31.0000000+00:00</time></trkpt><trkpt lat="39.48780717" lon="-0.37110097"><ele>-44.4</ele><time>2022-10-30T17:00:32.0000000+00:00</time></trkpt><trkpt lat="39.48780189" lon="-0.37110114"><ele>-44.4</ele><time>2022-10-30T17:00:33.0000000+00:00</time></trkpt><trkpt lat="39.48779536" lon="-0.37109778"><ele>-44.6</ele><time>2022-10-30T17:00:34.0000000+00:00</time></trkpt><trkpt lat="39.48777784" lon="-0.37108957"><ele>-44.6</ele><time>2022-10-30T17:00:35.0000000+00:00</time></trkpt><trkpt lat="39.48776074" lon="-0.37108546"><ele>-44.6</ele><time>2022-10-30T17:00:36.0000000+00:00</time></trkpt><trkpt lat="39.48774372" lon="-0.37108848"><ele>-44.6</ele><time>2022-10-30T17:00:37.0000000+00:00</time></trkpt><trkpt lat="39.48772579" lon="-0.37109611"><ele>-44.6</ele><time>2022-10-30T17:00:38.0000000+00:00</time></trkpt><trkpt lat="39.48770986" lon="-0.37109703"><ele>-44.6</ele><time>2022-10-30T17:00:39.0000000+00:00</time></trkpt><trkpt lat="39.48769888" lon="-0.37110097"><ele>-44.6</ele><time>2022-10-30T17:00:40.0000000+00:00</time></trkpt><trkpt lat="39.4876853" lon="-0.37109544"><ele>-44.6</ele><time>2022-10-30T17:00:41.0000000+00:00</time></trkpt><trkpt lat="39.48767357" lon="-0.3710884"><ele>-44.6</ele><time>2022-10-30T17:00:42.0000000+00:00</time></trkpt><trkpt lat="39.48766896" lon="-0.37109619"><ele>-44.6</ele><time>2022-10-30T17:00:43.0000000+00:00</time></trkpt><trkpt lat="39.48767005" lon="-0.37110047"><ele>-44.6</ele><time>2022-10-30T17:00:44.0000000+00:00</time></trkpt><trkpt lat="39.48767256" lon="-0.37110793"><ele>-44.8</ele><time>2022-10-30T17:00:45.0000000+00:00</time></trkpt><trkpt lat="39.48767751" lon="-0.37111723"><ele>-44.8</ele><time>2022-10-30T17:00:46.0000000+00:00</time></trkpt><trkpt lat="39.4876853" lon="-0.3711241"><ele>-44.8</ele><time>2022-10-30T17:00:47.0000000+00:00</time></trkpt><trkpt lat="39.48768714" lon="-0.37113542"><ele>-44.8</ele><time>2022-10-30T17:00:48.0000000+00:00</time></trkpt><trkpt lat="39.48768874" lon="-0.37114648"><ele>-44.8</ele><time>2022-10-30T17:00:49.0000000+00:00</time></trkpt><trkpt lat="39.48769033" lon="-0.37115562"><ele>-44.8</ele><time>2022-10-30T17:00:50.0000000+00:00</time></trkpt><trkpt lat="39.48768882" lon="-0.37116492"><ele>-44.8</ele><time>2022-10-30T17:00:51.0000000+00:00</time></trkpt><trkpt lat="39.48768849" lon="-0.37117339"><ele>-44.8</ele><time>2022-10-30T17:00:52.0000000+00:00</time></trkpt><trkpt lat="39.48768756" lon="-0.37118152"><ele>-44.6</ele><time>2022-10-30T17:00:53.0000000+00:00</time></trkpt><trkpt lat="39.48768756" lon="-0.37118856"><ele>-44.6</ele><time>2022-10-30T17:00:54.0000000+00:00</time></trkpt><trkpt lat="39.48768673" lon="-0.37119518"><ele>-44.6</ele><time>2022-10-30T17:00:55.0000000+00:00</time></trkpt><trkpt lat="39.48768555" lon="-0.37119987"><ele>-44.6</ele><time>2022-10-30T17:00:56.0000000+00:00</time></trkpt><trkpt lat="39.48768966" lon="-0.37120155"><ele>-44.6</ele><time>2022-10-30T17:00:57.0000000+00:00</time></trkpt><trkpt lat="39.48770542" lon="-0.37118923"><ele>-44.6</ele><time>2022-10-30T17:00:58.0000000+00:00</time></trkpt><trkpt lat="39.48770173" lon="-0.37119627"><ele>-44.6</ele><time>2022-10-30T17:00:59.0000000+00:00</time></trkpt><trkpt lat="39.48770047" lon="-0.37120013"><ele>-44.6</ele><time>2022-10-30T17:01:00.0000000+00:00</time></trkpt><trkpt lat="39.48770299" lon="-0.37119627"><ele>-44.6</ele><time>2022-10-30T17:01:01.0000000+00:00</time></trkpt><trkpt lat="39.4877102" lon="-0.37118956"><ele>-44.6</ele><time>2022-10-30T17:01:02.0000000+00:00</time></trkpt><trkpt lat="39.48771816" lon="-0.37118428"><ele>-44.4</ele><time>2022-10-30T17:01:03.0000000+00:00</time></trkpt><trkpt lat="39.4877283" lon="-0.37118202"><ele>-44.4</ele><time>2022-10-30T17:01:04.0000000+00:00</time></trkpt><trkpt lat="39.48773542" lon="-0.37118102"><ele>-44.0</ele><time>2022-10-30T17:01:05.0000000+00:00</time></trkpt><trkpt lat="39.4877464" lon="-0.37117381"><ele>-44.0</ele><time>2022-10-30T17:01:06.0000000+00:00</time></trkpt><trkpt lat="39.48775244" lon="-0.37116811"><ele>-44.0</ele><time>2022-10-30T17:01:07.0000000+00:00</time></trkpt><trkpt lat="39.48774783" lon="-0.37116685"><ele>-43.8</ele><time>2022-10-30T17:01:08.0000000+00:00</time></trkpt><trkpt lat="39.48774045" lon="-0.37116618"><ele>-43.8</ele><time>2022-10-30T17:01:09.0000000+00:00</time></trkpt><trkpt lat="39.48773693" lon="-0.37116702"><ele>-44.0</ele><time>2022-10-30T17:01:10.0000000+00:00</time></trkpt><trkpt lat="39.48772403" lon="-0.37117029"><ele>-44.0</ele><time>2022-10-30T17:01:11.0000000+00:00</time></trkpt><trkpt lat="39.48771732" lon="-0.37116467"><ele>-44.2</ele><time>2022-10-30T17:01:12.0000000+00:00</time></trkpt><trkpt lat="39.48770743" lon="-0.37116442"><ele>-44.2</ele><time>2022-10-30T17:01:13.0000000+00:00</time></trkpt><trkpt lat="39.48770098" lon="-0.37115939"><ele>-44.4</ele><time>2022-10-30T17:01:14.0000000+00:00</time></trkpt><trkpt lat="39.48769678" lon="-0.37115604"><ele>-44.4</ele><time>2022-10-30T17:01:15.0000000+00:00</time></trkpt><trkpt lat="39.48769335" lon="-0.37115218"><ele>-44.4</ele><time>2022-10-30T17:01:16.0000000+00:00</time></trkpt><trkpt lat="39.48768346" lon="-0.37115763"><ele>-44.4</ele><time>2022-10-30T17:01:17.0000000+00:00</time></trkpt><trkpt lat="39.48767633" lon="-0.37115738"><ele>-44.4</ele><time>2022-10-30T17:01:18.0000000+00:00</time></trkpt><trkpt lat="39.48767516" lon="-0.37115503"><ele>-44.4</ele><time>2022-10-30T17:01:19.0000000+00:00</time></trkpt><trkpt lat="39.48766585" lon="-0.37116056"><ele>-44.4</ele><time>2022-10-30T17:01:20.0000000+00:00</time></trkpt><trkpt lat="39.48766116" lon="-0.37115939"><ele>-44.4</ele><time>2022-10-30T17:01:21.0000000+00:00</time></trkpt><trkpt lat="39.48765278" lon="-0.37115721"><ele>-44.4</ele><time>2022-10-30T17:01:22.0000000+00:00</time></trkpt><trkpt lat="39.48764255" lon="-0.37115604"><ele>-44.4</ele><time>2022-10-30T17:01:23.0000000+00:00</time></trkpt><trkpt lat="39.48763166" lon="-0.37115411"><ele>-44.4</ele><time>2022-10-30T17:01:24.0000000+00:00</time></trkpt><trkpt lat="39.48762193" lon="-0.37115252"><ele>-44.4</ele><time>2022-10-30T17:01:25.0000000+00:00</time></trkpt><trkpt lat="39.48761271" lon="-0.37114933"><ele>-44.4</ele><time>2022-10-30T17:01:26.0000000+00:00</time></trkpt><trkpt lat="39.48759922" lon="-0.37115444"><ele>-44.2</ele><time>2022-10-30T17:01:27.0000000+00:00</time></trkpt><trkpt lat="39.48758204" lon="-0.37116526"><ele>-44.2</ele><time>2022-10-30T17:01:28.0000000+00:00</time></trkpt><trkpt lat="39.48757013" lon="-0.37117783"><ele>-44.2</ele><time>2022-10-30T17:01:29.0000000+00:00</time></trkpt><trkpt lat="39.48756569" lon="-0.37117884"><ele>-44.2</ele><time>2022-10-30T17:01:30.0000000+00:00</time></trkpt><trkpt lat="39.48755647" lon="-0.37117926"><ele>-44.2</ele><time>2022-10-30T17:01:31.0000000+00:00</time></trkpt><trkpt lat="39.48754189" lon="-0.37118537"><ele>-44.2</ele><time>2022-10-30T17:01:32.0000000+00:00</time></trkpt><trkpt lat="39.48753258" lon="-0.3711847"><ele>-44.2</ele><time>2022-10-30T17:01:33.0000000+00:00</time></trkpt><trkpt lat="39.48752252" lon="-0.37118319"><ele>-44.2</ele><time>2022-10-30T17:01:34.0000000+00:00</time></trkpt><trkpt lat="39.48751272" lon="-0.37117766"><ele>-44.2</ele><time>2022-10-30T17:01:35.0000000+00:00</time></trkpt><trkpt lat="39.48749981" lon="-0.37117599"><ele>-44.2</ele><time>2022-10-30T17:01:36.0000000+00:00</time></trkpt><trkpt lat="39.48748615" lon="-0.37117221"><ele>-44.2</ele><time>2022-10-30T17:01:37.0000000+00:00</time></trkpt><trkpt lat="39.48747332" lon="-0.37117221"><ele>-44.2</ele><time>2022-10-30T17:01:38.0000000+00:00</time></trkpt><trkpt lat="39.48745949" lon="-0.37117372"><ele>-44.2</ele><time>2022-10-30T17:01:39.0000000+00:00</time></trkpt><trkpt lat="39.48744541" lon="-0.37117087"><ele>-44.2</ele><time>2022-10-30T17:01:40.0000000+00:00</time></trkpt><trkpt lat="39.48743451" lon="-0.37116861"><ele>-44.2</ele><time>2022-10-30T17:01:41.0000000+00:00</time></trkpt><trkpt lat="39.48742353" lon="-0.37116258"><ele>-44.2</ele><time>2022-10-30T17:01:42.0000000+00:00</time></trkpt><trkpt lat="39.48741591" lon="-0.37115989"><ele>-44.2</ele><time>2022-10-30T17:01:43.0000000+00:00</time></trkpt><trkpt lat="39.48740845" lon="-0.37116316"><ele>-44.0</ele><time>2022-10-30T17:01:44.0000000+00:00</time></trkpt><trkpt lat="39.48739621" lon="-0.37116434"><ele>-44.0</ele><time>2022-10-30T17:01:45.0000000+00:00</time></trkpt><trkpt lat="39.48738908" lon="-0.37116333"><ele>-44.0</ele><time>2022-10-30T17:01:46.0000000+00:00</time></trkpt><trkpt lat="39.48737308" lon="-0.37117582"><ele>-44.0</ele><time>2022-10-30T17:01:47.0000000+00:00</time></trkpt><trkpt lat="39.48736151" lon="-0.37119149"><ele>-44.0</ele><time>2022-10-30T17:01:48.0000000+00:00</time></trkpt><trkpt lat="39.48734894" lon="-0.37120733"><ele>-44.0</ele><time>2022-10-30T17:01:49.0000000+00:00</time></trkpt><trkpt lat="39.48733552" lon="-0.37121924"><ele>-44.2</ele><time>2022-10-30T17:01:50.0000000+00:00</time></trkpt><trkpt lat="39.4873227" lon="-0.37123424"><ele>-44.2</ele><time>2022-10-30T17:01:51.0000000+00:00</time></trkpt><trkpt lat="39.48731055" lon="-0.37124916"><ele>-44.2</ele><time>2022-10-30T17:01:52.0000000+00:00</time></trkpt><trkpt lat="39.48729839" lon="-0.37126333"><ele>-44.2</ele><time>2022-10-30T17:01:53.0000000+00:00</time></trkpt><trkpt lat="39.48728993" lon="-0.37128026"><ele>-44.2</ele><time>2022-10-30T17:01:54.0000000+00:00</time></trkpt><trkpt lat="39.48728582" lon="-0.37129803"><ele>-44.2</ele><time>2022-10-30T17:01:55.0000000+00:00</time></trkpt><trkpt lat="39.48727987" lon="-0.3713018"><ele>-44.2</ele><time>2022-10-30T17:01:56.0000000+00:00</time></trkpt><trkpt lat="39.48727869" lon="-0.37130431"><ele>-44.2</ele><time>2022-10-30T17:01:57.0000000+00:00</time></trkpt><trkpt lat="39.48727861" lon="-0.37130641"><ele>-44.2</ele><time>2022-10-30T17:01:58.0000000+00:00</time></trkpt><trkpt lat="39.48728255" lon="-0.3713132"><ele>-44.0</ele><time>2022-10-30T17:01:59.0000000+00:00</time></trkpt><trkpt lat="39.48728364" lon="-0.37131236"><ele>-44.0</ele><time>2022-10-30T17:02:00.0000000+00:00</time></trkpt><trkpt lat="39.48728213" lon="-0.37131127"><ele>-44.0</ele><time>2022-10-30T17:02:01.0000000+00:00</time></trkpt><trkpt lat="39.48727643" lon="-0.3713023"><ele>-44.2</ele><time>2022-10-30T17:02:02.0000000+00:00</time></trkpt><trkpt lat="39.48726327" lon="-0.37130448"><ele>-44.2</ele><time>2022-10-30T17:02:03.0000000+00:00</time></trkpt><trkpt lat="39.48725372" lon="-0.37130809"><ele>-44.2</ele><time>2022-10-30T17:02:04.0000000+00:00</time></trkpt><trkpt lat="39.48724114" lon="-0.37130859"><ele>-44.2</ele><time>2022-10-30T17:02:05.0000000+00:00</time></trkpt><trkpt lat="39.48723251" lon="-0.37130666"><ele>-44.2</ele><time>2022-10-30T17:02:06.0000000+00:00</time></trkpt><trkpt lat="39.48722354" lon="-0.37130607"><ele>-44.2</ele><time>2022-10-30T17:02:07.0000000+00:00</time></trkpt><trkpt lat="39.48722061" lon="-0.37130926"><ele>-44.2</ele><time>2022-10-30T17:02:08.0000000+00:00</time></trkpt><trkpt lat="39.48721441" lon="-0.37130976"><ele>-44.2</ele><time>2022-10-30T17:02:09.0000000+00:00</time></trkpt><trkpt lat="39.48720384" lon="-0.37130809"><ele>-44.2</ele><time>2022-10-30T17:02:10.0000000+00:00</time></trkpt><trkpt lat="39.48719571" lon="-0.37130348"><ele>-44.2</ele><time>2022-10-30T17:02:11.0000000+00:00</time></trkpt><trkpt lat="39.48718356" lon="-0.3712992"><ele>-44.2</ele><time>2022-10-30T17:02:12.0000000+00:00</time></trkpt><trkpt lat="39.48717627" lon="-0.37128964"><ele>-44.2</ele><time>2022-10-30T17:02:13.0000000+00:00</time></trkpt><trkpt lat="39.48716998" lon="-0.37127095"><ele>-44.2</ele><time>2022-10-30T17:02:14.0000000+00:00</time></trkpt><trkpt lat="39.48716126" lon="-0.37125369"><ele>-44.2</ele><time>2022-10-30T17:02:15.0000000+00:00</time></trkpt><trkpt lat="39.48714752" lon="-0.3712438"><ele>-44.2</ele><time>2022-10-30T17:02:16.0000000+00:00</time></trkpt><trkpt lat="39.48713318" lon="-0.37123818"><ele>-44.2</ele><time>2022-10-30T17:02:17.0000000+00:00</time></trkpt><trkpt lat="39.48711994" lon="-0.37123592"><ele>-44.2</ele><time>2022-10-30T17:02:18.0000000+00:00</time></trkpt><trkpt lat="39.48710217" lon="-0.37125771"><ele>-44.0</ele><time>2022-10-30T17:02:19.0000000+00:00</time></trkpt><trkpt lat="39.48708926" lon="-0.37126777"><ele>-44.0</ele><time>2022-10-30T17:02:20.0000000+00:00</time></trkpt><trkpt lat="39.48707988" lon="-0.37127724"><ele>-44.0</ele><time>2022-10-30T17:02:21.0000000+00:00</time></trkpt><trkpt lat="39.48707074" lon="-0.37127875"><ele>-44.0</ele><time>2022-10-30T17:02:22.0000000+00:00</time></trkpt><trkpt lat="39.48705884" lon="-0.3712754"><ele>-44.0</ele><time>2022-10-30T17:02:23.0000000+00:00</time></trkpt><trkpt lat="39.48704861" lon="-0.37127338"><ele>-44.0</ele><time>2022-10-30T17:02:24.0000000+00:00</time></trkpt><trkpt lat="39.48702891" lon="-0.37126048"><ele>-44.0</ele><time>2022-10-30T17:02:25.0000000+00:00</time></trkpt><trkpt lat="39.48701198" lon="-0.37124757"><ele>-44.0</ele><time>2022-10-30T17:02:26.0000000+00:00</time></trkpt><trkpt lat="39.48699983" lon="-0.37124631"><ele>-44.0</ele><time>2022-10-30T17:02:27.0000000+00:00</time></trkpt><trkpt lat="39.48698818" lon="-0.37124187"><ele>-44.0</ele><time>2022-10-30T17:02:28.0000000+00:00</time></trkpt><trkpt lat="39.48697544" lon="-0.37123676"><ele>-44.0</ele><time>2022-10-30T17:02:29.0000000+00:00</time></trkpt><trkpt lat="39.48696521" lon="-0.37123952"><ele>-44.0</ele><time>2022-10-30T17:02:30.0000000+00:00</time></trkpt><trkpt lat="39.48695063" lon="-0.37123726"><ele>-44.0</ele><time>2022-10-30T17:02:31.0000000+00:00</time></trkpt><trkpt lat="39.48693437" lon="-0.37123374"><ele>-44.0</ele><time>2022-10-30T17:02:32.0000000+00:00</time></trkpt><trkpt lat="39.4869207" lon="-0.37122728"><ele>-44.0</ele><time>2022-10-30T17:02:33.0000000+00:00</time></trkpt><trkpt lat="39.48689782" lon="-0.37121723"><ele>-44.0</ele><time>2022-10-30T17:02:34.0000000+00:00</time></trkpt><trkpt lat="39.48687687" lon="-0.37120088"><ele>-43.8</ele><time>2022-10-30T17:02:35.0000000+00:00</time></trkpt><trkpt lat="39.48686471" lon="-0.37119133"><ele>-43.8</ele><time>2022-10-30T17:02:36.0000000+00:00</time></trkpt><trkpt lat="39.48685407" lon="-0.37118596"><ele>-43.8</ele><time>2022-10-30T17:02:37.0000000+00:00</time></trkpt><trkpt lat="39.48684309" lon="-0.37118361"><ele>-43.8</ele><time>2022-10-30T17:02:38.0000000+00:00</time></trkpt><trkpt lat="39.48682984" lon="-0.37117783"><ele>-43.8</ele><time>2022-10-30T17:02:39.0000000+00:00</time></trkpt><trkpt lat="39.48681903" lon="-0.37117657"><ele>-43.8</ele><time>2022-10-30T17:02:40.0000000+00:00</time></trkpt><trkpt lat="39.48680881" lon="-0.37117682"><ele>-43.8</ele><time>2022-10-30T17:02:41.0000000+00:00</time></trkpt><trkpt lat="39.48679992" lon="-0.37118034"><ele>-43.8</ele><time>2022-10-30T17:02:42.0000000+00:00</time></trkpt><trkpt lat="39.48678978" lon="-0.3711775"><ele>-43.8</ele><time>2022-10-30T17:02:43.0000000+00:00</time></trkpt><trkpt lat="39.4867793" lon="-0.37117548"><ele>-43.8</ele><time>2022-10-30T17:02:44.0000000+00:00</time></trkpt><trkpt lat="39.48676706" lon="-0.37117263"><ele>-43.8</ele><time>2022-10-30T17:02:45.0000000+00:00</time></trkpt><trkpt lat="39.48674711" lon="-0.37117071"><ele>-43.8</ele><time>2022-10-30T17:02:46.0000000+00:00</time></trkpt><trkpt lat="39.48673421" lon="-0.37117498"><ele>-43.8</ele><time>2022-10-30T17:02:47.0000000+00:00</time></trkpt><trkpt lat="39.48672541" lon="-0.37118135"><ele>-43.8</ele><time>2022-10-30T17:02:48.0000000+00:00</time></trkpt><trkpt lat="39.48671401" lon="-0.37118722"><ele>-43.8</ele><time>2022-10-30T17:02:49.0000000+00:00</time></trkpt><trkpt lat="39.48670252" lon="-0.37120096"><ele>-43.8</ele><time>2022-10-30T17:02:50.0000000+00:00</time></trkpt><trkpt lat="39.48669381" lon="-0.37121655"><ele>-43.8</ele><time>2022-10-30T17:02:51.0000000+00:00</time></trkpt><trkpt lat="39.48668433" lon="-0.37122024"><ele>-43.8</ele><time>2022-10-30T17:02:52.0000000+00:00</time></trkpt><trkpt lat="39.48667469" lon="-0.37122854"><ele>-43.8</ele><time>2022-10-30T17:02:53.0000000+00:00</time></trkpt><trkpt lat="39.48666807" lon="-0.37124421"><ele>-43.8</ele><time>2022-10-30T17:02:54.0000000+00:00</time></trkpt><trkpt lat="39.4866586" lon="-0.37126961"><ele>-43.8</ele><time>2022-10-30T17:02:55.0000000+00:00</time></trkpt><trkpt lat="39.48664879" lon="-0.37129375"><ele>-43.8</ele><time>2022-10-30T17:02:56.0000000+00:00</time></trkpt><trkpt lat="39.48664108" lon="-0.37132627"><ele>-43.8</ele><time>2022-10-30T17:02:57.0000000+00:00</time></trkpt><trkpt lat="39.48663756" lon="-0.37136215"><ele>-43.8</ele><time>2022-10-30T17:02:58.0000000+00:00</time></trkpt><trkpt lat="39.48663496" lon="-0.37139576"><ele>-43.8</ele><time>2022-10-30T17:02:59.0000000+00:00</time></trkpt><trkpt lat="39.48662826" lon="-0.37143448"><ele>-43.8</ele><time>2022-10-30T17:03:00.0000000+00:00</time></trkpt><trkpt lat="39.48662558" lon="-0.37146424"><ele>-43.8</ele><time>2022-10-30T17:03:01.0000000+00:00</time></trkpt><trkpt lat="39.48662315" lon="-0.37150405"><ele>-44.0</ele><time>2022-10-30T17:03:02.0000000+00:00</time></trkpt><trkpt lat="39.48662507" lon="-0.37153054"><ele>-44.0</ele><time>2022-10-30T17:03:03.0000000+00:00</time></trkpt><trkpt lat="39.48662457" lon="-0.37155644"><ele>-44.0</ele><time>2022-10-30T17:03:04.0000000+00:00</time></trkpt><trkpt lat="39.48662675" lon="-0.37157849"><ele>-44.0</ele><time>2022-10-30T17:03:05.0000000+00:00</time></trkpt><trkpt lat="39.48661904" lon="-0.37160162"><ele>-44.0</ele><time>2022-10-30T17:03:06.0000000+00:00</time></trkpt><trkpt lat="39.48661041" lon="-0.37161905"><ele>-44.0</ele><time>2022-10-30T17:03:07.0000000+00:00</time></trkpt><trkpt lat="39.48661141" lon="-0.37163062"><ele>-44.0</ele><time>2022-10-30T17:03:08.0000000+00:00</time></trkpt><trkpt lat="39.48661778" lon="-0.37164168"><ele>-44.0</ele><time>2022-10-30T17:03:09.0000000+00:00</time></trkpt><trkpt lat="39.48662851" lon="-0.37165216"><ele>-44.0</ele><time>2022-10-30T17:03:10.0000000+00:00</time></trkpt><trkpt lat="39.48663999" lon="-0.37166247"><ele>-44.0</ele><time>2022-10-30T17:03:11.0000000+00:00</time></trkpt><trkpt lat="39.48665315" lon="-0.37167915"><ele>-44.0</ele><time>2022-10-30T17:03:12.0000000+00:00</time></trkpt><trkpt lat="39.48666271" lon="-0.37169793"><ele>-44.0</ele><time>2022-10-30T17:03:13.0000000+00:00</time></trkpt><trkpt lat="39.48667369" lon="-0.37171494"><ele>-44.0</ele><time>2022-10-30T17:03:14.0000000+00:00</time></trkpt><trkpt lat="39.48669029" lon="-0.37173439"><ele>-44.0</ele><time>2022-10-30T17:03:15.0000000+00:00</time></trkpt><trkpt lat="39.48670546" lon="-0.37175207"><ele>-44.0</ele><time>2022-10-30T17:03:16.0000000+00:00</time></trkpt><trkpt lat="39.48671275" lon="-0.37177043"><ele>-44.0</ele><time>2022-10-30T17:03:17.0000000+00:00</time></trkpt><trkpt lat="39.48672289" lon="-0.3717965"><ele>-43.8</ele><time>2022-10-30T17:03:18.0000000+00:00</time></trkpt><trkpt lat="39.48673278" lon="-0.37181678"><ele>-43.8</ele><time>2022-10-30T17:03:19.0000000+00:00</time></trkpt><trkpt lat="39.48675365" lon="-0.37183011"><ele>-43.8</ele><time>2022-10-30T17:03:20.0000000+00:00</time></trkpt><trkpt lat="39.48676782" lon="-0.37184226"><ele>-43.8</ele><time>2022-10-30T17:03:21.0000000+00:00</time></trkpt><trkpt lat="39.48677964" lon="-0.37186079"><ele>-43.6</ele><time>2022-10-30T17:03:22.0000000+00:00</time></trkpt><trkpt lat="39.48678752" lon="-0.37186758"><ele>-43.6</ele><time>2022-10-30T17:03:23.0000000+00:00</time></trkpt><trkpt lat="39.48679313" lon="-0.37188057"><ele>-43.6</ele><time>2022-10-30T17:03:24.0000000+00:00</time></trkpt><trkpt lat="39.48679363" lon="-0.37189364"><ele>-43.6</ele><time>2022-10-30T17:03:25.0000000+00:00</time></trkpt><trkpt lat="39.48679665" lon="-0.37190605"><ele>-43.6</ele><time>2022-10-30T17:03:26.0000000+00:00</time></trkpt><trkpt lat="39.48680294" lon="-0.37191326"><ele>-43.6</ele><time>2022-10-30T17:03:27.0000000+00:00</time></trkpt><trkpt lat="39.48681518" lon="-0.37192759"><ele>-43.6</ele><time>2022-10-30T17:03:28.0000000+00:00</time></trkpt><trkpt lat="39.48682096" lon="-0.37195148"><ele>-43.6</ele><time>2022-10-30T17:03:29.0000000+00:00</time></trkpt><trkpt lat="39.48682993" lon="-0.37197378"><ele>-43.4</ele><time>2022-10-30T17:03:30.0000000+00:00</time></trkpt><trkpt lat="39.48683253" lon="-0.37199507"><ele>-43.4</ele><time>2022-10-30T17:03:31.0000000+00:00</time></trkpt><trkpt lat="39.48682582" lon="-0.37201828"><ele>-43.4</ele><time>2022-10-30T17:03:32.0000000+00:00</time></trkpt><trkpt lat="39.48682867" lon="-0.37203522"><ele>-43.4</ele><time>2022-10-30T17:03:33.0000000+00:00</time></trkpt><trkpt lat="39.48683999" lon="-0.37204963"><ele>-43.4</ele><time>2022-10-30T17:03:34.0000000+00:00</time></trkpt><trkpt lat="39.48684535" lon="-0.37206489"><ele>-43.4</ele><time>2022-10-30T17:03:35.0000000+00:00</time></trkpt><trkpt lat="39.48684921" lon="-0.37208056"><ele>-43.6</ele><time>2022-10-30T17:03:36.0000000+00:00</time></trkpt><trkpt lat="39.48685457" lon="-0.3720959"><ele>-43.6</ele><time>2022-10-30T17:03:37.0000000+00:00</time></trkpt><trkpt lat="39.4868617" lon="-0.37211292"><ele>-43.4</ele><time>2022-10-30T17:03:38.0000000+00:00</time></trkpt><trkpt lat="39.48686915" lon="-0.37212683"><ele>-43.4</ele><time>2022-10-30T17:03:39.0000000+00:00</time></trkpt><trkpt lat="39.48687427" lon="-0.372142"><ele>-43.4</ele><time>2022-10-30T17:03:40.0000000+00:00</time></trkpt><trkpt lat="39.48688684" lon="-0.372157"><ele>-43.4</ele><time>2022-10-30T17:03:41.0000000+00:00</time></trkpt><trkpt lat="39.48690251" lon="-0.37216891"><ele>-43.4</ele><time>2022-10-30T17:03:42.0000000+00:00</time></trkpt><trkpt lat="39.48691567" lon="-0.37217938"><ele>-43.2</ele><time>2022-10-30T17:03:43.0000000+00:00</time></trkpt><trkpt lat="39.48692682" lon="-0.37219053"><ele>-43.2</ele><time>2022-10-30T17:03:44.0000000+00:00</time></trkpt><trkpt lat="39.48694333" lon="-0.37219414"><ele>-43.2</ele><time>2022-10-30T17:03:45.0000000+00:00</time></trkpt><trkpt lat="39.48695406" lon="-0.37219875"><ele>-43.2</ele><time>2022-10-30T17:03:46.0000000+00:00</time></trkpt><trkpt lat="39.48696806" lon="-0.37221216"><ele>-43.2</ele><time>2022-10-30T17:03:47.0000000+00:00</time></trkpt><trkpt lat="39.48698776" lon="-0.37223261"><ele>-43.2</ele><time>2022-10-30T17:03:48.0000000+00:00</time></trkpt><trkpt lat="39.48700117" lon="-0.37228089"><ele>-43.2</ele><time>2022-10-30T17:03:49.0000000+00:00</time></trkpt><trkpt lat="39.48701458" lon="-0.37231903"><ele>-43.2</ele><time>2022-10-30T17:03:50.0000000+00:00</time></trkpt><trkpt lat="39.48702791" lon="-0.37234853"><ele>-43.0</ele><time>2022-10-30T17:03:51.0000000+00:00</time></trkpt><trkpt lat="39.48704124" lon="-0.37236949"><ele>-43.0</ele><time>2022-10-30T17:03:52.0000000+00:00</time></trkpt><trkpt lat="39.48703931" lon="-0.37237627"><ele>-43.0</ele><time>2022-10-30T17:03:53.0000000+00:00</time></trkpt><trkpt lat="39.48703344" lon="-0.37239756"><ele>-43.0</ele><time>2022-10-30T17:03:54.0000000+00:00</time></trkpt><trkpt lat="39.4870233" lon="-0.3724238"><ele>-43.0</ele><time>2022-10-30T17:03:55.0000000+00:00</time></trkpt><trkpt lat="39.48701634" lon="-0.37245087"><ele>-43.0</ele><time>2022-10-30T17:03:56.0000000+00:00</time></trkpt><trkpt lat="39.48701064" lon="-0.37247334"><ele>-43.0</ele><time>2022-10-30T17:03:57.0000000+00:00</time></trkpt><trkpt lat="39.48700394" lon="-0.37249018"><ele>-43.0</ele><time>2022-10-30T17:03:58.0000000+00:00</time></trkpt><trkpt lat="39.48698994" lon="-0.37250494"><ele>-43.0</ele><time>2022-10-30T17:03:59.0000000+00:00</time></trkpt><trkpt lat="39.48697007" lon="-0.37252002"><ele>-43.0</ele><time>2022-10-30T17:04:00.0000000+00:00</time></trkpt><trkpt lat="39.48694794" lon="-0.37254048"><ele>-43.0</ele><time>2022-10-30T17:04:01.0000000+00:00</time></trkpt><trkpt lat="39.48692573" lon="-0.37256478"><ele>-43.0</ele><time>2022-10-30T17:04:02.0000000+00:00</time></trkpt><trkpt lat="39.48690704" lon="-0.37258918"><ele>-43.0</ele><time>2022-10-30T17:04:03.0000000+00:00</time></trkpt><trkpt lat="39.48688843" lon="-0.37260703"><ele>-43.0</ele><time>2022-10-30T17:04:04.0000000+00:00</time></trkpt><trkpt lat="39.48687745" lon="-0.37262237"><ele>-43.0</ele><time>2022-10-30T17:04:05.0000000+00:00</time></trkpt><trkpt lat="39.48686756" lon="-0.37263569"><ele>-43.0</ele><time>2022-10-30T17:04:06.0000000+00:00</time></trkpt><trkpt lat="39.4868539" lon="-0.37265305"><ele>-43.0</ele><time>2022-10-30T17:04:07.0000000+00:00</time></trkpt><trkpt lat="39.48685231" lon="-0.37267132"><ele>-43.0</ele><time>2022-10-30T17:04:08.0000000+00:00</time></trkpt><trkpt lat="39.48684502" lon="-0.37267593"><ele>-43.0</ele><time>2022-10-30T17:04:09.0000000+00:00</time></trkpt><trkpt lat="39.48683831" lon="-0.37268347"><ele>-43.0</ele><time>2022-10-30T17:04:10.0000000+00:00</time></trkpt><trkpt lat="39.48683286" lon="-0.37268892"><ele>-43.0</ele><time>2022-10-30T17:04:11.0000000+00:00</time></trkpt><trkpt lat="39.48683068" lon="-0.37269009"><ele>-43.0</ele><time>2022-10-30T17:04:12.0000000+00:00</time></trkpt><trkpt lat="39.4868301" lon="-0.37269043"><ele>-43.0</ele><time>2022-10-30T17:04:13.0000000+00:00</time></trkpt><trkpt lat="39.48682196" lon="-0.37268657"><ele>-43.0</ele><time>2022-10-30T17:04:14.0000000+00:00</time></trkpt><trkpt lat="39.48681694" lon="-0.37268515"><ele>-43.0</ele><time>2022-10-30T17:04:15.0000000+00:00</time></trkpt><trkpt lat="39.48681031" lon="-0.37268532"><ele>-43.0</ele><time>2022-10-30T17:04:16.0000000+00:00</time></trkpt><trkpt lat="39.48680344" lon="-0.37269093"><ele>-43.0</ele><time>2022-10-30T17:04:17.0000000+00:00</time></trkpt><trkpt lat="39.48679489" lon="-0.37270065"><ele>-43.0</ele><time>2022-10-30T17:04:18.0000000+00:00</time></trkpt><trkpt lat="39.48678651" lon="-0.37270409"><ele>-43.0</ele><time>2022-10-30T17:04:19.0000000+00:00</time></trkpt><trkpt lat="39.48678735" lon="-0.37270183"><ele>-43.0</ele><time>2022-10-30T17:04:20.0000000+00:00</time></trkpt><trkpt lat="39.48678819" lon="-0.37270208"><ele>-43.0</ele><time>2022-10-30T17:04:21.0000000+00:00</time></trkpt><trkpt lat="39.48678291" lon="-0.37270744"><ele>-42.8</ele><time>2022-10-30T17:04:22.0000000+00:00</time></trkpt><trkpt lat="39.48677612" lon="-0.37271583"><ele>-42.8</ele><time>2022-10-30T17:04:23.0000000+00:00</time></trkpt><trkpt lat="39.48676849" lon="-0.37272429"><ele>-42.8</ele><time>2022-10-30T17:04:24.0000000+00:00</time></trkpt><trkpt lat="39.48676321" lon="-0.37272756"><ele>-42.6</ele><time>2022-10-30T17:04:25.0000000+00:00</time></trkpt><trkpt lat="39.48675575" lon="-0.37272781"><ele>-42.6</ele><time>2022-10-30T17:04:26.0000000+00:00</time></trkpt><trkpt lat="39.48675097" lon="-0.37272924"><ele>-42.6</ele><time>2022-10-30T17:04:27.0000000+00:00</time></trkpt><trkpt lat="39.4867508" lon="-0.37273326"><ele>-42.6</ele><time>2022-10-30T17:04:28.0000000+00:00</time></trkpt><trkpt lat="39.48675214" lon="-0.37273946"><ele>-42.6</ele><time>2022-10-30T17:04:29.0000000+00:00</time></trkpt><trkpt lat="39.48675248" lon="-0.37274231"><ele>-42.6</ele><time>2022-10-30T17:04:30.0000000+00:00</time></trkpt><trkpt lat="39.48675843" lon="-0.37274558"><ele>-42.6</ele><time>2022-10-30T17:04:31.0000000+00:00</time></trkpt><trkpt lat="39.48676522" lon="-0.37274743"><ele>-42.6</ele><time>2022-10-30T17:04:32.0000000+00:00</time></trkpt><trkpt lat="39.48678089" lon="-0.37274441"><ele>-42.6</ele><time>2022-10-30T17:04:33.0000000+00:00</time></trkpt><trkpt lat="39.48679162" lon="-0.3727408"><ele>-42.6</ele><time>2022-10-30T17:04:34.0000000+00:00</time></trkpt><trkpt lat="39.48679757" lon="-0.37273343"><ele>-42.6</ele><time>2022-10-30T17:04:35.0000000+00:00</time></trkpt><trkpt lat="39.48679992" lon="-0.37272915"><ele>-42.6</ele><time>2022-10-30T17:04:36.0000000+00:00</time></trkpt><trkpt lat="39.48680084" lon="-0.37273812"><ele>-42.6</ele><time>2022-10-30T17:04:37.0000000+00:00</time></trkpt><trkpt lat="39.48679749" lon="-0.37275405"><ele>-42.6</ele><time>2022-10-30T17:04:38.0000000+00:00</time></trkpt><trkpt lat="39.48680034" lon="-0.37277601"><ele>-42.6</ele><time>2022-10-30T17:04:39.0000000+00:00</time></trkpt><trkpt lat="39.48679866" lon="-0.37280032"><ele>-42.4</ele><time>2022-10-30T17:04:40.0000000+00:00</time></trkpt><trkpt lat="39.48679456" lon="-0.3728242"><ele>-42.4</ele><time>2022-10-30T17:04:41.0000000+00:00</time></trkpt><trkpt lat="39.48679498" lon="-0.37285103"><ele>-42.4</ele><time>2022-10-30T17:04:42.0000000+00:00</time></trkpt><trkpt lat="39.4867969" lon="-0.37287483"><ele>-42.4</ele><time>2022-10-30T17:04:43.0000000+00:00</time></trkpt><trkpt lat="39.48679615" lon="-0.37289864"><ele>-42.4</ele><time>2022-10-30T17:04:44.0000000+00:00</time></trkpt><trkpt lat="39.48679623" lon="-0.37291733"><ele>-42.4</ele><time>2022-10-30T17:04:45.0000000+00:00</time></trkpt><trkpt lat="39.48679506" lon="-0.37293241"><ele>-42.6</ele><time>2022-10-30T17:04:46.0000000+00:00</time></trkpt><trkpt lat="39.48679422" lon="-0.37295194"><ele>-42.6</ele><time>2022-10-30T17:04:47.0000000+00:00</time></trkpt><trkpt lat="39.4867938" lon="-0.37297458"><ele>-42.6</ele><time>2022-10-30T17:04:48.0000000+00:00</time></trkpt><trkpt lat="39.4867959" lon="-0.37299771"><ele>-42.4</ele><time>2022-10-30T17:04:49.0000000+00:00</time></trkpt><trkpt lat="39.48680244" lon="-0.37302101"><ele>-42.4</ele><time>2022-10-30T17:04:50.0000000+00:00</time></trkpt><trkpt lat="39.48680914" lon="-0.37304507"><ele>-42.4</ele><time>2022-10-30T17:04:51.0000000+00:00</time></trkpt><trkpt lat="39.48680998" lon="-0.37307206"><ele>-42.4</ele><time>2022-10-30T17:04:52.0000000+00:00</time></trkpt><trkpt lat="39.48681509" lon="-0.37309938"><ele>-42.4</ele><time>2022-10-30T17:04:53.0000000+00:00</time></trkpt><trkpt lat="39.48682766" lon="-0.37313727"><ele>-42.4</ele><time>2022-10-30T17:04:54.0000000+00:00</time></trkpt><trkpt lat="39.4868456" lon="-0.37320198"><ele>-42.4</ele><time>2022-10-30T17:04:55.0000000+00:00</time></trkpt><trkpt lat="39.48687167" lon="-0.37325822"><ele>-42.4</ele><time>2022-10-30T17:04:56.0000000+00:00</time></trkpt><trkpt lat="39.48689447" lon="-0.37330926"><ele>-42.4</ele><time>2022-10-30T17:04:57.0000000+00:00</time></trkpt><trkpt lat="39.48690578" lon="-0.37334858"><ele>-42.4</ele><time>2022-10-30T17:04:58.0000000+00:00</time></trkpt><trkpt lat="39.48690847" lon="-0.37337054"><ele>-42.4</ele><time>2022-10-30T17:04:59.0000000+00:00</time></trkpt><trkpt lat="39.48691182" lon="-0.37340172"><ele>-42.2</ele><time>2022-10-30T17:05:00.0000000+00:00</time></trkpt><trkpt lat="39.48692204" lon="-0.37343063"><ele>-42.2</ele><time>2022-10-30T17:05:01.0000000+00:00</time></trkpt><trkpt lat="39.48693227" lon="-0.37344958"><ele>-42.2</ele><time>2022-10-30T17:05:02.0000000+00:00</time></trkpt><trkpt lat="39.48693386" lon="-0.37346592"><ele>-42.2</ele><time>2022-10-30T17:05:03.0000000+00:00</time></trkpt><trkpt lat="39.48694384" lon="-0.37348369"><ele>-42.2</ele><time>2022-10-30T17:05:04.0000000+00:00</time></trkpt><trkpt lat="39.4869523" lon="-0.37349937"><ele>-42.2</ele><time>2022-10-30T17:05:05.0000000+00:00</time></trkpt><trkpt lat="39.48695758" lon="-0.37352242"><ele>-42.2</ele><time>2022-10-30T17:05:06.0000000+00:00</time></trkpt><trkpt lat="39.48695608" lon="-0.37354765"><ele>-42.2</ele><time>2022-10-30T17:05:07.0000000+00:00</time></trkpt><trkpt lat="39.48696437" lon="-0.37357237"><ele>-42.2</ele><time>2022-10-30T17:05:08.0000000+00:00</time></trkpt><trkpt lat="39.48696538" lon="-0.37358888"><ele>-42.2</ele><time>2022-10-30T17:05:09.0000000+00:00</time></trkpt><trkpt lat="39.4869606" lon="-0.37360699"><ele>-42.2</ele><time>2022-10-30T17:05:10.0000000+00:00</time></trkpt><trkpt lat="39.4869596" lon="-0.37362803"><ele>-42.2</ele><time>2022-10-30T17:05:11.0000000+00:00</time></trkpt><trkpt lat="39.48696085" lon="-0.37365083"><ele>-42.2</ele><time>2022-10-30T17:05:12.0000000+00:00</time></trkpt><trkpt lat="39.48696245" lon="-0.3736743"><ele>-42.2</ele><time>2022-10-30T17:05:13.0000000+00:00</time></trkpt><trkpt lat="39.48696429" lon="-0.37369659"><ele>-42.2</ele><time>2022-10-30T17:05:14.0000000+00:00</time></trkpt><trkpt lat="39.48696412" lon="-0.3737157"><ele>-42.2</ele><time>2022-10-30T17:05:15.0000000+00:00</time></trkpt><trkpt lat="39.48696102" lon="-0.3737349"><ele>-42.2</ele><time>2022-10-30T17:05:16.0000000+00:00</time></trkpt><trkpt lat="39.48695465" lon="-0.37375376"><ele>-42.2</ele><time>2022-10-30T17:05:17.0000000+00:00</time></trkpt><trkpt lat="39.48695851" lon="-0.37377169"><ele>-42.2</ele><time>2022-10-30T17:05:18.0000000+00:00</time></trkpt><trkpt lat="39.48695582" lon="-0.37379064"><ele>-42.2</ele><time>2022-10-30T17:05:19.0000000+00:00</time></trkpt><trkpt lat="39.486943" lon="-0.37380329"><ele>-42.0</ele><time>2022-10-30T17:05:20.0000000+00:00</time></trkpt><trkpt lat="39.48692456" lon="-0.37381872"><ele>-42.0</ele><time>2022-10-30T17:05:21.0000000+00:00</time></trkpt><trkpt lat="39.48690637" lon="-0.37383347"><ele>-42.0</ele><time>2022-10-30T17:05:22.0000000+00:00</time></trkpt><trkpt lat="39.48690117" lon="-0.37385493"><ele>-42.0</ele><time>2022-10-30T17:05:23.0000000+00:00</time></trkpt><trkpt lat="39.48689405" lon="-0.3738763"><ele>-42.0</ele><time>2022-10-30T17:05:24.0000000+00:00</time></trkpt><trkpt lat="39.48689564" lon="-0.37389801"><ele>-42.0</ele><time>2022-10-30T17:05:25.0000000+00:00</time></trkpt><trkpt lat="39.48689682" lon="-0.37392525"><ele>-42.0</ele><time>2022-10-30T17:05:26.0000000+00:00</time></trkpt><trkpt lat="39.4869057" lon="-0.37393967"><ele>-42.0</ele><time>2022-10-30T17:05:27.0000000+00:00</time></trkpt><trkpt lat="39.48691291" lon="-0.37394503"><ele>-42.2</ele><time>2022-10-30T17:05:28.0000000+00:00</time></trkpt><trkpt lat="39.48691844" lon="-0.37395241"><ele>-42.2</ele><time>2022-10-30T17:05:29.0000000+00:00</time></trkpt><trkpt lat="39.48691249" lon="-0.3739633"><ele>-42.2</ele><time>2022-10-30T17:05:30.0000000+00:00</time></trkpt><trkpt lat="39.48690553" lon="-0.37398099"><ele>-42.2</ele><time>2022-10-30T17:05:31.0000000+00:00</time></trkpt><trkpt lat="39.48690662" lon="-0.37398987"><ele>-42.2</ele><time>2022-10-30T17:05:32.0000000+00:00</time></trkpt><trkpt lat="39.48690486" lon="-0.37399725"><ele>-42.2</ele><time>2022-10-30T17:05:33.0000000+00:00</time></trkpt><trkpt lat="39.48690419" lon="-0.37400773"><ele>-42.2</ele><time>2022-10-30T17:05:34.0000000+00:00</time></trkpt><trkpt lat="39.48689732" lon="-0.37402642"><ele>-42.2</ele><time>2022-10-30T17:05:35.0000000+00:00</time></trkpt><trkpt lat="39.48689271" lon="-0.37403447"><ele>-42.2</ele><time>2022-10-30T17:05:36.0000000+00:00</time></trkpt><trkpt lat="39.48688223" lon="-0.37404955"><ele>-42.2</ele><time>2022-10-30T17:05:37.0000000+00:00</time></trkpt><trkpt lat="39.48686957" lon="-0.37406657"><ele>-42.2</ele><time>2022-10-30T17:05:38.0000000+00:00</time></trkpt><trkpt lat="39.48686304" lon="-0.37408057"><ele>-42.2</ele><time>2022-10-30T17:05:39.0000000+00:00</time></trkpt><trkpt lat="39.48685817" lon="-0.37409641"><ele>-42.2</ele><time>2022-10-30T17:05:40.0000000+00:00</time></trkpt><trkpt lat="39.48685935" lon="-0.37411661"><ele>-42.2</ele><time>2022-10-30T17:05:41.0000000+00:00</time></trkpt><trkpt lat="39.48685926" lon="-0.37413362"><ele>-42.2</ele><time>2022-10-30T17:05:42.0000000+00:00</time></trkpt><trkpt lat="39.48685759" lon="-0.37415148"><ele>-42.2</ele><time>2022-10-30T17:05:43.0000000+00:00</time></trkpt><trkpt lat="39.48685658" lon="-0.37417059"><ele>-42.2</ele><time>2022-10-30T17:05:44.0000000+00:00</time></trkpt><trkpt lat="39.48685097" lon="-0.3741954"><ele>-42.2</ele><time>2022-10-30T17:05:45.0000000+00:00</time></trkpt><trkpt lat="39.48685155" lon="-0.37422147"><ele>-42.2</ele><time>2022-10-30T17:05:46.0000000+00:00</time></trkpt><trkpt lat="39.48685088" lon="-0.37423848"><ele>-42.2</ele><time>2022-10-30T17:05:47.0000000+00:00</time></trkpt><trkpt lat="39.48684066" lon="-0.3742581"><ele>-42.2</ele><time>2022-10-30T17:05:48.0000000+00:00</time></trkpt><trkpt lat="39.48683261" lon="-0.3742788"><ele>-42.2</ele><time>2022-10-30T17:05:49.0000000+00:00</time></trkpt><trkpt lat="39.48682414" lon="-0.37429833"><ele>-42.2</ele><time>2022-10-30T17:05:50.0000000+00:00</time></trkpt><trkpt lat="39.48682247" lon="-0.37430998"><ele>-42.0</ele><time>2022-10-30T17:05:51.0000000+00:00</time></trkpt><trkpt lat="39.48681878" lon="-0.37432398"><ele>-42.0</ele><time>2022-10-30T17:05:52.0000000+00:00</time></trkpt><trkpt lat="39.4868192" lon="-0.37433839"><ele>-42.0</ele><time>2022-10-30T17:05:53.0000000+00:00</time></trkpt><trkpt lat="39.48682004" lon="-0.3743596"><ele>-42.0</ele><time>2022-10-30T17:05:54.0000000+00:00</time></trkpt><trkpt lat="39.48682238" lon="-0.37437712"><ele>-42.0</ele><time>2022-10-30T17:05:55.0000000+00:00</time></trkpt><trkpt lat="39.48682792" lon="-0.37440025"><ele>-42.0</ele><time>2022-10-30T17:05:56.0000000+00:00</time></trkpt><trkpt lat="39.48682926" lon="-0.37442037"><ele>-42.0</ele><time>2022-10-30T17:05:57.0000000+00:00</time></trkpt><trkpt lat="39.48683772" lon="-0.37443881"><ele>-42.0</ele><time>2022-10-30T17:05:58.0000000+00:00</time></trkpt><trkpt lat="39.48684158" lon="-0.37445851"><ele>-42.0</ele><time>2022-10-30T17:05:59.0000000+00:00</time></trkpt><trkpt lat="39.48683856" lon="-0.37448407"><ele>-42.0</ele><time>2022-10-30T17:06:00.0000000+00:00</time></trkpt><trkpt lat="39.48683328" lon="-0.37450436"><ele>-42.0</ele><time>2022-10-30T17:06:01.0000000+00:00</time></trkpt><trkpt lat="39.48682473" lon="-0.37452347"><ele>-42.0</ele><time>2022-10-30T17:06:02.0000000+00:00</time></trkpt><trkpt lat="39.48682054" lon="-0.37454233"><ele>-42.0</ele><time>2022-10-30T17:06:03.0000000+00:00</time></trkpt><trkpt lat="39.48682498" lon="-0.37456068"><ele>-42.0</ele><time>2022-10-30T17:06:04.0000000+00:00</time></trkpt><trkpt lat="39.48682683" lon="-0.37457669"><ele>-42.0</ele><time>2022-10-30T17:06:05.0000000+00:00</time></trkpt><trkpt lat="39.48682473" lon="-0.37459035"><ele>-42.0</ele><time>2022-10-30T17:06:06.0000000+00:00</time></trkpt><trkpt lat="39.48681643" lon="-0.37460888"><ele>-42.0</ele><time>2022-10-30T17:06:07.0000000+00:00</time></trkpt><trkpt lat="39.48681417" lon="-0.37462698"><ele>-42.0</ele><time>2022-10-30T17:06:08.0000000+00:00</time></trkpt><trkpt lat="39.48680948" lon="-0.37464425"><ele>-42.0</ele><time>2022-10-30T17:06:09.0000000+00:00</time></trkpt><trkpt lat="39.48680109" lon="-0.37466873"><ele>-42.0</ele><time>2022-10-30T17:06:10.0000000+00:00</time></trkpt><trkpt lat="39.48679171" lon="-0.37468968"><ele>-42.0</ele><time>2022-10-30T17:06:11.0000000+00:00</time></trkpt><trkpt lat="39.48678752" lon="-0.37470527"><ele>-42.0</ele><time>2022-10-30T17:06:12.0000000+00:00</time></trkpt><trkpt lat="39.48678735" lon="-0.37471583"><ele>-42.0</ele><time>2022-10-30T17:06:13.0000000+00:00</time></trkpt><trkpt lat="39.48678961" lon="-0.37473092"><ele>-42.2</ele><time>2022-10-30T17:06:14.0000000+00:00</time></trkpt><trkpt lat="39.48678115" lon="-0.3747481"><ele>-42.2</ele><time>2022-10-30T17:06:15.0000000+00:00</time></trkpt><trkpt lat="39.48673664" lon="-0.37476386"><ele>-42.2</ele><time>2022-10-30T17:06:16.0000000+00:00</time></trkpt><trkpt lat="39.48668014" lon="-0.37477702"><ele>-42.2</ele><time>2022-10-30T17:06:17.0000000+00:00</time></trkpt><trkpt lat="39.48664695" lon="-0.37479538"><ele>-42.2</ele><time>2022-10-30T17:06:18.0000000+00:00</time></trkpt><trkpt lat="39.48662692" lon="-0.3748056"><ele>-42.0</ele><time>2022-10-30T17:06:19.0000000+00:00</time></trkpt><trkpt lat="39.48661896" lon="-0.37481566"><ele>-42.0</ele><time>2022-10-30T17:06:20.0000000+00:00</time></trkpt><trkpt lat="39.48660932" lon="-0.37482639"><ele>-42.0</ele><time>2022-10-30T17:06:21.0000000+00:00</time></trkpt><trkpt lat="39.4865975" lon="-0.37484173"><ele>-42.0</ele><time>2022-10-30T17:06:22.0000000+00:00</time></trkpt><trkpt lat="39.48658828" lon="-0.37485799"><ele>-42.0</ele><time>2022-10-30T17:06:23.0000000+00:00</time></trkpt><trkpt lat="39.48657126" lon="-0.37487492"><ele>-42.0</ele><time>2022-10-30T17:06:24.0000000+00:00</time></trkpt><trkpt lat="39.48656087" lon="-0.37488481"><ele>-42.0</ele><time>2022-10-30T17:06:25.0000000+00:00</time></trkpt><trkpt lat="39.48655777" lon="-0.37488833"><ele>-42.0</ele><time>2022-10-30T17:06:26.0000000+00:00</time></trkpt><trkpt lat="39.48655701" lon="-0.37489051"><ele>-42.0</ele><time>2022-10-30T17:06:27.0000000+00:00</time></trkpt><trkpt lat="39.48655089" lon="-0.37489185"><ele>-42.0</ele><time>2022-10-30T17:06:28.0000000+00:00</time></trkpt><trkpt lat="39.48654084" lon="-0.37489252"><ele>-42.0</ele><time>2022-10-30T17:06:29.0000000+00:00</time></trkpt><trkpt lat="39.4865374" lon="-0.37489126"><ele>-42.0</ele><time>2022-10-30T17:06:30.0000000+00:00</time></trkpt><trkpt lat="39.48653514" lon="-0.37488967"><ele>-42.0</ele><time>2022-10-30T17:06:31.0000000+00:00</time></trkpt><trkpt lat="39.48652935" lon="-0.37488624"><ele>-42.0</ele><time>2022-10-30T17:06:32.0000000+00:00</time></trkpt><trkpt lat="39.4865281" lon="-0.37488783"><ele>-42.0</ele><time>2022-10-30T17:06:33.0000000+00:00</time></trkpt><trkpt lat="39.48652558" lon="-0.37487945"><ele>-42.0</ele><time>2022-10-30T17:06:34.0000000+00:00</time></trkpt><trkpt lat="39.48652424" lon="-0.37486956"><ele>-42.0</ele><time>2022-10-30T17:06:35.0000000+00:00</time></trkpt><trkpt lat="39.48652214" lon="-0.37486034"><ele>-41.8</ele><time>2022-10-30T17:06:36.0000000+00:00</time></trkpt><trkpt lat="39.48652508" lon="-0.37485279"><ele>-41.8</ele><time>2022-10-30T17:06:37.0000000+00:00</time></trkpt><trkpt lat="39.48652977" lon="-0.37484793"><ele>-41.8</ele><time>2022-10-30T17:06:38.0000000+00:00</time></trkpt><trkpt lat="39.48653346" lon="-0.37484399"><ele>-41.8</ele><time>2022-10-30T17:06:39.0000000+00:00</time></trkpt><trkpt lat="39.48654017" lon="-0.3748429"><ele>-41.8</ele><time>2022-10-30T17:06:40.0000000+00:00</time></trkpt><trkpt lat="39.4865457" lon="-0.37483972"><ele>-41.8</ele><time>2022-10-30T17:06:41.0000000+00:00</time></trkpt><trkpt lat="39.48655274" lon="-0.37483485"><ele>-41.8</ele><time>2022-10-30T17:06:42.0000000+00:00</time></trkpt><trkpt lat="39.48656053" lon="-0.37483335"><ele>-41.6</ele><time>2022-10-30T17:06:43.0000000+00:00</time></trkpt><trkpt lat="39.48657788" lon="-0.37482505"><ele>-41.6</ele><time>2022-10-30T17:06:44.0000000+00:00</time></trkpt><trkpt lat="39.48657973" lon="-0.37483184"><ele>-41.6</ele><time>2022-10-30T17:06:45.0000000+00:00</time></trkpt><trkpt lat="39.48658727" lon="-0.3748564"><ele>-41.6</ele><time>2022-10-30T17:06:46.0000000+00:00</time></trkpt><trkpt lat="39.48657981" lon="-0.3748942"><ele>-41.6</ele><time>2022-10-30T17:06:47.0000000+00:00</time></trkpt><trkpt lat="39.4865814" lon="-0.3749341"><ele>-41.6</ele><time>2022-10-30T17:06:48.0000000+00:00</time></trkpt><trkpt lat="39.48658509" lon="-0.37495296"><ele>-41.6</ele><time>2022-10-30T17:06:49.0000000+00:00</time></trkpt><trkpt lat="39.48659088" lon="-0.37496888"><ele>-41.6</ele><time>2022-10-30T17:06:50.0000000+00:00</time></trkpt><trkpt lat="39.48659037" lon="-0.3749838"><ele>-41.6</ele><time>2022-10-30T17:06:51.0000000+00:00</time></trkpt><trkpt lat="39.48658719" lon="-0.37499839"><ele>-41.6</ele><time>2022-10-30T17:06:52.0000000+00:00</time></trkpt><trkpt lat="39.48658811" lon="-0.37501339"><ele>-41.6</ele><time>2022-10-30T17:06:53.0000000+00:00</time></trkpt><trkpt lat="39.48658342" lon="-0.37502948"><ele>-41.6</ele><time>2022-10-30T17:06:54.0000000+00:00</time></trkpt><trkpt lat="39.48657646" lon="-0.37504558"><ele>-41.4</ele><time>2022-10-30T17:06:55.0000000+00:00</time></trkpt><trkpt lat="39.48657294" lon="-0.37506519"><ele>-41.4</ele><time>2022-10-30T17:06:56.0000000+00:00</time></trkpt><trkpt lat="39.48657235" lon="-0.37508598"><ele>-41.4</ele><time>2022-10-30T17:06:57.0000000+00:00</time></trkpt><trkpt lat="39.4865752" lon="-0.37510643"><ele>-41.4</ele><time>2022-10-30T17:06:58.0000000+00:00</time></trkpt><trkpt lat="39.48657797" lon="-0.37512914"><ele>-41.4</ele><time>2022-10-30T17:06:59.0000000+00:00</time></trkpt><trkpt lat="39.48658668" lon="-0.37515362"><ele>-41.4</ele><time>2022-10-30T17:07:00.0000000+00:00</time></trkpt><trkpt lat="39.48658543" lon="-0.37517734"><ele>-41.4</ele><time>2022-10-30T17:07:01.0000000+00:00</time></trkpt><trkpt lat="39.48658702" lon="-0.3752029"><ele>-41.4</ele><time>2022-10-30T17:07:02.0000000+00:00</time></trkpt><trkpt lat="39.48659389" lon="-0.37523123"><ele>-41.4</ele><time>2022-10-30T17:07:03.0000000+00:00</time></trkpt><trkpt lat="39.48660806" lon="-0.37526476"><ele>-41.4</ele><time>2022-10-30T17:07:04.0000000+00:00</time></trkpt><trkpt lat="39.48661879" lon="-0.3752977"><ele>-41.4</ele><time>2022-10-30T17:07:05.0000000+00:00</time></trkpt><trkpt lat="39.48662097" lon="-0.37532025"><ele>-41.4</ele><time>2022-10-30T17:07:06.0000000+00:00</time></trkpt><trkpt lat="39.48662516" lon="-0.3753433"><ele>-41.4</ele><time>2022-10-30T17:07:07.0000000+00:00</time></trkpt><trkpt lat="39.48662516" lon="-0.3753635"><ele>-41.4</ele><time>2022-10-30T17:07:08.0000000+00:00</time></trkpt><trkpt lat="39.48662323" lon="-0.37538513"><ele>-41.2</ele><time>2022-10-30T17:07:09.0000000+00:00</time></trkpt><trkpt lat="39.48661409" lon="-0.37540541"><ele>-41.2</ele><time>2022-10-30T17:07:10.0000000+00:00</time></trkpt><trkpt lat="39.48660102" lon="-0.37542469"><ele>-41.2</ele><time>2022-10-30T17:07:11.0000000+00:00</time></trkpt><trkpt lat="39.48658082" lon="-0.37544129"><ele>-41.2</ele><time>2022-10-30T17:07:12.0000000+00:00</time></trkpt><trkpt lat="39.48656623" lon="-0.3754609"><ele>-41.2</ele><time>2022-10-30T17:07:13.0000000+00:00</time></trkpt><trkpt lat="39.48655048" lon="-0.37547758"><ele>-41.2</ele><time>2022-10-30T17:07:14.0000000+00:00</time></trkpt><trkpt lat="39.48653681" lon="-0.37549015"><ele>-41.2</ele><time>2022-10-30T17:07:15.0000000+00:00</time></trkpt><trkpt lat="39.48652357" lon="-0.37550348"><ele>-41.2</ele><time>2022-10-30T17:07:16.0000000+00:00</time></trkpt><trkpt lat="39.486512" lon="-0.37551689"><ele>-41.0</ele><time>2022-10-30T17:07:17.0000000+00:00</time></trkpt><trkpt lat="39.48650404" lon="-0.37552896"><ele>-41.0</ele><time>2022-10-30T17:07:18.0000000+00:00</time></trkpt><trkpt lat="39.48649993" lon="-0.3755448"><ele>-41.0</ele><time>2022-10-30T17:07:19.0000000+00:00</time></trkpt><trkpt lat="39.48648937" lon="-0.37556165"><ele>-41.0</ele><time>2022-10-30T17:07:20.0000000+00:00</time></trkpt><trkpt lat="39.48647747" lon="-0.37556634"><ele>-41.0</ele><time>2022-10-30T17:07:21.0000000+00:00</time></trkpt><trkpt lat="39.48646263" lon="-0.37558051"><ele>-41.0</ele><time>2022-10-30T17:07:22.0000000+00:00</time></trkpt><trkpt lat="39.48645559" lon="-0.37557758"><ele>-41.0</ele><time>2022-10-30T17:07:23.0000000+00:00</time></trkpt><trkpt lat="39.48645878" lon="-0.37556986"><ele>-41.0</ele><time>2022-10-30T17:07:24.0000000+00:00</time></trkpt><trkpt lat="39.48646355" lon="-0.375565"><ele>-41.0</ele><time>2022-10-30T17:07:25.0000000+00:00</time></trkpt><trkpt lat="39.48647227" lon="-0.37556048"><ele>-41.0</ele><time>2022-10-30T17:07:26.0000000+00:00</time></trkpt><trkpt lat="39.48648434" lon="-0.37557305"><ele>-40.8</ele><time>2022-10-30T17:07:27.0000000+00:00</time></trkpt><trkpt lat="39.48649541" lon="-0.37560524"><ele>-40.8</ele><time>2022-10-30T17:07:28.0000000+00:00</time></trkpt><trkpt lat="39.48650404" lon="-0.37563189"><ele>-40.8</ele><time>2022-10-30T17:07:29.0000000+00:00</time></trkpt><trkpt lat="39.48650706" lon="-0.37566491"><ele>-40.8</ele><time>2022-10-30T17:07:30.0000000+00:00</time></trkpt><trkpt lat="39.4865115" lon="-0.37569366"><ele>-40.8</ele><time>2022-10-30T17:07:31.0000000+00:00</time></trkpt><trkpt lat="39.48651745" lon="-0.37572174"><ele>-40.8</ele><time>2022-10-30T17:07:32.0000000+00:00</time></trkpt><trkpt lat="39.48652617" lon="-0.37574664"><ele>-40.8</ele><time>2022-10-30T17:07:33.0000000+00:00</time></trkpt><trkpt lat="39.48653044" lon="-0.37576768"><ele>-40.8</ele><time>2022-10-30T17:07:34.0000000+00:00</time></trkpt><trkpt lat="39.48653472" lon="-0.37578654"><ele>-40.8</ele><time>2022-10-30T17:07:35.0000000+00:00</time></trkpt><trkpt lat="39.48653488" lon="-0.37580422"><ele>-40.6</ele><time>2022-10-30T17:07:36.0000000+00:00</time></trkpt><trkpt lat="39.48654184" lon="-0.375823"><ele>-40.6</ele><time>2022-10-30T17:07:37.0000000+00:00</time></trkpt><trkpt lat="39.48654302" lon="-0.37584789"><ele>-40.6</ele><time>2022-10-30T17:07:38.0000000+00:00</time></trkpt><trkpt lat="39.48654293" lon="-0.37587002"><ele>-40.6</ele><time>2022-10-30T17:07:39.0000000+00:00</time></trkpt><trkpt lat="39.48654821" lon="-0.37589701"><ele>-40.6</ele><time>2022-10-30T17:07:40.0000000+00:00</time></trkpt><trkpt lat="39.48655911" lon="-0.37592677"><ele>-40.6</ele><time>2022-10-30T17:07:41.0000000+00:00</time></trkpt><trkpt lat="39.48657445" lon="-0.3759566"><ele>-40.6</ele><time>2022-10-30T17:07:42.0000000+00:00</time></trkpt><trkpt lat="39.48658082" lon="-0.37597865"><ele>-40.6</ele><time>2022-10-30T17:07:43.0000000+00:00</time></trkpt><trkpt lat="39.48659683" lon="-0.37599751"><ele>-40.6</ele><time>2022-10-30T17:07:44.0000000+00:00</time></trkpt><trkpt lat="39.48660638" lon="-0.37601251"><ele>-40.6</ele><time>2022-10-30T17:07:45.0000000+00:00</time></trkpt><trkpt lat="39.48661552" lon="-0.37603146"><ele>-40.4</ele><time>2022-10-30T17:07:46.0000000+00:00</time></trkpt><trkpt lat="39.48662868" lon="-0.3760504"><ele>-40.4</ele><time>2022-10-30T17:07:47.0000000+00:00</time></trkpt><trkpt lat="39.48662968" lon="-0.37606859"><ele>-40.4</ele><time>2022-10-30T17:07:48.0000000+00:00</time></trkpt><trkpt lat="39.48662767" lon="-0.37608493"><ele>-40.4</ele><time>2022-10-30T17:07:49.0000000+00:00</time></trkpt><trkpt lat="39.48662818" lon="-0.37610723"><ele>-40.4</ele><time>2022-10-30T17:07:50.0000000+00:00</time></trkpt><trkpt lat="39.48663941" lon="-0.37612206"><ele>-40.4</ele><time>2022-10-30T17:07:51.0000000+00:00</time></trkpt><trkpt lat="39.48664335" lon="-0.37614109"><ele>-40.4</ele><time>2022-10-30T17:07:52.0000000+00:00</time></trkpt><trkpt lat="39.48664268" lon="-0.37616255"><ele>-40.4</ele><time>2022-10-30T17:07:53.0000000+00:00</time></trkpt><trkpt lat="39.48664469" lon="-0.3761799"><ele>-40.4</ele><time>2022-10-30T17:07:54.0000000+00:00</time></trkpt><trkpt lat="39.48666732" lon="-0.37620907"><ele>-40.4</ele><time>2022-10-30T17:07:55.0000000+00:00</time></trkpt><trkpt lat="39.48666313" lon="-0.3762374"><ele>-40.4</ele><time>2022-10-30T17:07:56.0000000+00:00</time></trkpt><trkpt lat="39.48665634" lon="-0.37626053"><ele>-40.2</ele><time>2022-10-30T17:07:57.0000000+00:00</time></trkpt><trkpt lat="39.48664997" lon="-0.37626841"><ele>-40.2</ele><time>2022-10-30T17:07:58.0000000+00:00</time></trkpt><trkpt lat="39.48664351" lon="-0.3762871"><ele>-40.2</ele><time>2022-10-30T17:07:59.0000000+00:00</time></trkpt><trkpt lat="39.48663128" lon="-0.37631828"><ele>-40.2</ele><time>2022-10-30T17:08:00.0000000+00:00</time></trkpt><trkpt lat="39.48662449" lon="-0.37633262"><ele>-40.2</ele><time>2022-10-30T17:08:01.0000000+00:00</time></trkpt><trkpt lat="39.48661937" lon="-0.37634519"><ele>-40.2</ele><time>2022-10-30T17:08:02.0000000+00:00</time></trkpt><trkpt lat="39.48661233" lon="-0.37635818"><ele>-40.2</ele><time>2022-10-30T17:08:03.0000000+00:00</time></trkpt><trkpt lat="39.48658794" lon="-0.37636682"><ele>-40.2</ele><time>2022-10-30T17:08:04.0000000+00:00</time></trkpt><trkpt lat="39.48655911" lon="-0.37637654"><ele>-40.2</ele><time>2022-10-30T17:08:05.0000000+00:00</time></trkpt><trkpt lat="39.4865229" lon="-0.37637562"><ele>-40.2</ele><time>2022-10-30T17:08:06.0000000+00:00</time></trkpt><trkpt lat="39.48648627" lon="-0.3763814"><ele>-40.0</ele><time>2022-10-30T17:08:07.0000000+00:00</time></trkpt><trkpt lat="39.48647127" lon="-0.37639347"><ele>-40.0</ele><time>2022-10-30T17:08:08.0000000+00:00</time></trkpt><trkpt lat="39.48645635" lon="-0.37639925"><ele>-40.0</ele><time>2022-10-30T17:08:09.0000000+00:00</time></trkpt><trkpt lat="39.4864478" lon="-0.37641074"><ele>-40.0</ele><time>2022-10-30T17:08:10.0000000+00:00</time></trkpt><trkpt lat="39.48643833" lon="-0.37641417"><ele>-40.0</ele><time>2022-10-30T17:08:11.0000000+00:00</time></trkpt><trkpt lat="39.48642827" lon="-0.37641753"><ele>-40.0</ele><time>2022-10-30T17:08:12.0000000+00:00</time></trkpt><trkpt lat="39.48641896" lon="-0.3764239"><ele>-40.0</ele><time>2022-10-30T17:08:13.0000000+00:00</time></trkpt><trkpt lat="39.48641435" lon="-0.37643823"><ele>-40.0</ele><time>2022-10-30T17:08:14.0000000+00:00</time></trkpt><trkpt lat="39.48640631" lon="-0.37645357"><ele>-40.0</ele><time>2022-10-30T17:08:15.0000000+00:00</time></trkpt><trkpt lat="39.48639675" lon="-0.37645977"><ele>-39.8</ele><time>2022-10-30T17:08:16.0000000+00:00</time></trkpt><trkpt lat="39.48638996" lon="-0.37646622"><ele>-39.8</ele><time>2022-10-30T17:08:17.0000000+00:00</time></trkpt><trkpt lat="39.48637974" lon="-0.37646581"><ele>-39.8</ele><time>2022-10-30T17:08:18.0000000+00:00</time></trkpt><trkpt lat="39.48637211" lon="-0.37646782"><ele>-39.8</ele><time>2022-10-30T17:08:19.0000000+00:00</time></trkpt><trkpt lat="39.48636917" lon="-0.37647544"><ele>-39.8</ele><time>2022-10-30T17:08:20.0000000+00:00</time></trkpt><trkpt lat="39.48636339" lon="-0.37648081"><ele>-39.8</ele><time>2022-10-30T17:08:21.0000000+00:00</time></trkpt><trkpt lat="39.4863644" lon="-0.3764819"><ele>-39.8</ele><time>2022-10-30T17:08:22.0000000+00:00</time></trkpt><trkpt lat="39.48636356" lon="-0.37648081"><ele>-40.0</ele><time>2022-10-30T17:08:23.0000000+00:00</time></trkpt><trkpt lat="39.48636465" lon="-0.37647461"><ele>-40.0</ele><time>2022-10-30T17:08:24.0000000+00:00</time></trkpt><trkpt lat="39.48637454" lon="-0.37646874"><ele>-40.0</ele><time>2022-10-30T17:08:25.0000000+00:00</time></trkpt><trkpt lat="39.48638493" lon="-0.37646388"><ele>-39.8</ele><time>2022-10-30T17:08:26.0000000+00:00</time></trkpt><trkpt lat="39.48639273" lon="-0.3764627"><ele>-39.8</ele><time>2022-10-30T17:08:27.0000000+00:00</time></trkpt><trkpt lat="39.48640019" lon="-0.37646513"><ele>-39.8</ele><time>2022-10-30T17:08:28.0000000+00:00</time></trkpt><trkpt lat="39.48641318" lon="-0.37647444"><ele>-39.8</ele><time>2022-10-30T17:08:29.0000000+00:00</time></trkpt><trkpt lat="39.4864276" lon="-0.37647762"><ele>-39.8</ele><time>2022-10-30T17:08:30.0000000+00:00</time></trkpt><trkpt lat="39.48644327" lon="-0.37648299"><ele>-39.8</ele><time>2022-10-30T17:08:31.0000000+00:00</time></trkpt><trkpt lat="39.4864519" lon="-0.37648852"><ele>-39.6</ele><time>2022-10-30T17:08:32.0000000+00:00</time></trkpt><trkpt lat="39.48646406" lon="-0.37649682"><ele>-39.6</ele><time>2022-10-30T17:08:33.0000000+00:00</time></trkpt><trkpt lat="39.48647202" lon="-0.37650989"><ele>-39.6</ele><time>2022-10-30T17:08:34.0000000+00:00</time></trkpt><trkpt lat="39.48647814" lon="-0.37652188"><ele>-39.6</ele><time>2022-10-30T17:08:35.0000000+00:00</time></trkpt><trkpt lat="39.48648267" lon="-0.37652775"><ele>-39.6</ele><time>2022-10-30T17:08:36.0000000+00:00</time></trkpt><trkpt lat="39.48647814" lon="-0.3765394"><ele>-39.4</ele><time>2022-10-30T17:08:37.0000000+00:00</time></trkpt><trkpt lat="39.48648468" lon="-0.37656547"><ele>-39.4</ele><time>2022-10-30T17:08:38.0000000+00:00</time></trkpt><trkpt lat="39.48648803" lon="-0.37659455"><ele>-39.4</ele><time>2022-10-30T17:08:39.0000000+00:00</time></trkpt><trkpt lat="39.48649532" lon="-0.37662414"><ele>-39.4</ele><time>2022-10-30T17:08:40.0000000+00:00</time></trkpt><trkpt lat="39.48650211" lon="-0.37665683"><ele>-39.4</ele><time>2022-10-30T17:08:41.0000000+00:00</time></trkpt><trkpt lat="39.48650077" lon="-0.37669262"><ele>-39.2</ele><time>2022-10-30T17:08:42.0000000+00:00</time></trkpt><trkpt lat="39.48650387" lon="-0.37672372"><ele>-39.2</ele><time>2022-10-30T17:08:43.0000000+00:00</time></trkpt><trkpt lat="39.48651033" lon="-0.37674928"><ele>-39.2</ele><time>2022-10-30T17:08:44.0000000+00:00</time></trkpt><trkpt lat="39.48651343" lon="-0.37677418"><ele>-39.2</ele><time>2022-10-30T17:08:45.0000000+00:00</time></trkpt><trkpt lat="39.48651854" lon="-0.37679488"><ele>-39.2</ele><time>2022-10-30T17:08:46.0000000+00:00</time></trkpt><trkpt lat="39.48651359" lon="-0.3768186"><ele>-39.2</ele><time>2022-10-30T17:08:47.0000000+00:00</time></trkpt><trkpt lat="39.48651326" lon="-0.37684048"><ele>-39.2</ele><time>2022-10-30T17:08:48.0000000+00:00</time></trkpt><trkpt lat="39.48651251" lon="-0.37686168"><ele>-39.2</ele><time>2022-10-30T17:08:49.0000000+00:00</time></trkpt><trkpt lat="39.48651586" lon="-0.37688817"><ele>-39.2</ele><time>2022-10-30T17:08:50.0000000+00:00</time></trkpt><trkpt lat="39.48651427" lon="-0.37691533"><ele>-39.2</ele><time>2022-10-30T17:08:51.0000000+00:00</time></trkpt><trkpt lat="39.48650815" lon="-0.37693955"><ele>-39.2</ele><time>2022-10-30T17:08:52.0000000+00:00</time></trkpt><trkpt lat="39.48649398" lon="-0.37695581"><ele>-39.2</ele><time>2022-10-30T17:08:53.0000000+00:00</time></trkpt><trkpt lat="39.48647621" lon="-0.37697308"><ele>-39.2</ele><time>2022-10-30T17:08:54.0000000+00:00</time></trkpt><trkpt lat="39.48646967" lon="-0.37700468"><ele>-39.2</ele><time>2022-10-30T17:08:55.0000000+00:00</time></trkpt><trkpt lat="39.48647135" lon="-0.37702144"><ele>-39.2</ele><time>2022-10-30T17:08:56.0000000+00:00</time></trkpt><trkpt lat="39.48647965" lon="-0.37703401"><ele>-39.2</ele><time>2022-10-30T17:08:57.0000000+00:00</time></trkpt><trkpt lat="39.48648501" lon="-0.37705354"><ele>-39.2</ele><time>2022-10-30T17:08:58.0000000+00:00</time></trkpt><trkpt lat="39.48648769" lon="-0.37707551"><ele>-39.0</ele><time>2022-10-30T17:08:59.0000000+00:00</time></trkpt><trkpt lat="39.48649298" lon="-0.37709478"><ele>-39.0</ele><time>2022-10-30T17:09:00.0000000+00:00</time></trkpt><trkpt lat="39.48649641" lon="-0.37711574"><ele>-39.0</ele><time>2022-10-30T17:09:01.0000000+00:00</time></trkpt><trkpt lat="39.48649742" lon="-0.37714181"><ele>-38.8</ele><time>2022-10-30T17:09:02.0000000+00:00</time></trkpt><trkpt lat="39.48650194" lon="-0.37716628"><ele>-38.8</ele><time>2022-10-30T17:09:03.0000000+00:00</time></trkpt><trkpt lat="39.4864975" lon="-0.37719"><ele>-38.8</ele><time>2022-10-30T17:09:04.0000000+00:00</time></trkpt><trkpt lat="39.48649951" lon="-0.37720819"><ele>-38.8</ele><time>2022-10-30T17:09:05.0000000+00:00</time></trkpt><trkpt lat="39.48651108" lon="-0.37722688"><ele>-38.8</ele><time>2022-10-30T17:09:06.0000000+00:00</time></trkpt><trkpt lat="39.48651309" lon="-0.37724013"><ele>-38.8</ele><time>2022-10-30T17:09:07.0000000+00:00</time></trkpt><trkpt lat="39.48651142" lon="-0.37725018"><ele>-38.8</ele><time>2022-10-30T17:09:08.0000000+00:00</time></trkpt><trkpt lat="39.48651142" lon="-0.37727022"><ele>-38.8</ele><time>2022-10-30T17:09:09.0000000+00:00</time></trkpt><trkpt lat="39.486511" lon="-0.37729846"><ele>-38.8</ele><time>2022-10-30T17:09:10.0000000+00:00</time></trkpt><trkpt lat="39.48649515" lon="-0.37731573"><ele>-38.8</ele><time>2022-10-30T17:09:11.0000000+00:00</time></trkpt><trkpt lat="39.48648686" lon="-0.37733107"><ele>-38.8</ele><time>2022-10-30T17:09:12.0000000+00:00</time></trkpt><trkpt lat="39.48647026" lon="-0.37735127"><ele>-38.8</ele><time>2022-10-30T17:09:13.0000000+00:00</time></trkpt><trkpt lat="39.48644947" lon="-0.37736569"><ele>-38.8</ele><time>2022-10-30T17:09:14.0000000+00:00</time></trkpt><trkpt lat="39.48643799" lon="-0.37738999"><ele>-38.8</ele><time>2022-10-30T17:09:15.0000000+00:00</time></trkpt><trkpt lat="39.48643548" lon="-0.37739821"><ele>-38.8</ele><time>2022-10-30T17:09:16.0000000+00:00</time></trkpt><trkpt lat="39.4864307" lon="-0.37741019"><ele>-38.8</ele><time>2022-10-30T17:09:17.0000000+00:00</time></trkpt><trkpt lat="39.48643036" lon="-0.37742285"><ele>-38.6</ele><time>2022-10-30T17:09:18.0000000+00:00</time></trkpt><trkpt lat="39.48641293" lon="-0.37743769"><ele>-38.6</ele><time>2022-10-30T17:09:19.0000000+00:00</time></trkpt><trkpt lat="39.48639499" lon="-0.37745479"><ele>-38.6</ele><time>2022-10-30T17:09:20.0000000+00:00</time></trkpt><trkpt lat="39.48638376" lon="-0.37747147"><ele>-38.6</ele><time>2022-10-30T17:09:21.0000000+00:00</time></trkpt><trkpt lat="39.48637529" lon="-0.37747138"><ele>-38.6</ele><time>2022-10-30T17:09:22.0000000+00:00</time></trkpt><trkpt lat="39.48636507" lon="-0.37747105"><ele>-38.4</ele><time>2022-10-30T17:09:23.0000000+00:00</time></trkpt><trkpt lat="39.48636247" lon="-0.3774863"><ele>-38.4</ele><time>2022-10-30T17:09:24.0000000+00:00</time></trkpt><trkpt lat="39.48636088" lon="-0.37749376"><ele>-38.4</ele><time>2022-10-30T17:09:25.0000000+00:00</time></trkpt><trkpt lat="39.48635249" lon="-0.37750315"><ele>-38.4</ele><time>2022-10-30T17:09:26.0000000+00:00</time></trkpt><trkpt lat="39.48635476" lon="-0.37751447"><ele>-38.4</ele><time>2022-10-30T17:09:27.0000000+00:00</time></trkpt><trkpt lat="39.48634939" lon="-0.37752503"><ele>-38.4</ele><time>2022-10-30T17:09:28.0000000+00:00</time></trkpt><trkpt lat="39.48634805" lon="-0.37753475"><ele>-38.4</ele><time>2022-10-30T17:09:29.0000000+00:00</time></trkpt><trkpt lat="39.48634872" lon="-0.37754791"><ele>-38.6</ele><time>2022-10-30T17:09:30.0000000+00:00</time></trkpt><trkpt lat="39.48634537" lon="-0.37756124"><ele>-38.6</ele><time>2022-10-30T17:09:31.0000000+00:00</time></trkpt><trkpt lat="39.48633825" lon="-0.37757138"><ele>-38.6</ele><time>2022-10-30T17:09:32.0000000+00:00</time></trkpt><trkpt lat="39.48633472" lon="-0.37757976"><ele>-38.4</ele><time>2022-10-30T17:09:33.0000000+00:00</time></trkpt><trkpt lat="39.4863354" lon="-0.37759376"><ele>-38.4</ele><time>2022-10-30T17:09:34.0000000+00:00</time></trkpt><trkpt lat="39.48633481" lon="-0.3776127"><ele>-38.4</ele><time>2022-10-30T17:09:35.0000000+00:00</time></trkpt><trkpt lat="39.48633464" lon="-0.37762888"><ele>-38.2</ele><time>2022-10-30T17:09:36.0000000+00:00</time></trkpt><trkpt lat="39.48633732" lon="-0.37764749"><ele>-38.2</ele><time>2022-10-30T17:09:37.0000000+00:00</time></trkpt><trkpt lat="39.48634545" lon="-0.37766517"><ele>-38.2</ele><time>2022-10-30T17:09:38.0000000+00:00</time></trkpt><trkpt lat="39.48634763" lon="-0.37768495"><ele>-38.0</ele><time>2022-10-30T17:09:39.0000000+00:00</time></trkpt><trkpt lat="39.48635375" lon="-0.37770616"><ele>-38.0</ele><time>2022-10-30T17:09:40.0000000+00:00</time></trkpt><trkpt lat="39.48636465" lon="-0.37773198"><ele>-38.0</ele><time>2022-10-30T17:09:41.0000000+00:00</time></trkpt><trkpt lat="39.4863711" lon="-0.37775461"><ele>-38.0</ele><time>2022-10-30T17:09:42.0000000+00:00</time></trkpt><trkpt lat="39.48636926" lon="-0.37777112"><ele>-38.0</ele><time>2022-10-30T17:09:43.0000000+00:00</time></trkpt><trkpt lat="39.48636741" lon="-0.37778713"><ele>-38.0</ele><time>2022-10-30T17:09:44.0000000+00:00</time></trkpt><trkpt lat="39.48636708" lon="-0.37780448"><ele>-38.0</ele><time>2022-10-30T17:09:45.0000000+00:00</time></trkpt><trkpt lat="39.4863654" lon="-0.37782175"><ele>-38.0</ele><time>2022-10-30T17:09:46.0000000+00:00</time></trkpt><trkpt lat="39.48637395" lon="-0.37783197"><ele>-38.0</ele><time>2022-10-30T17:09:47.0000000+00:00</time></trkpt><trkpt lat="39.48637538" lon="-0.37785033"><ele>-37.8</ele><time>2022-10-30T17:09:48.0000000+00:00</time></trkpt><trkpt lat="39.48637605" lon="-0.37786827"><ele>-37.8</ele><time>2022-10-30T17:09:49.0000000+00:00</time></trkpt><trkpt lat="39.48637269" lon="-0.37788268"><ele>-37.8</ele><time>2022-10-30T17:09:50.0000000+00:00</time></trkpt><trkpt lat="39.48638351" lon="-0.37790221"><ele>-37.8</ele><time>2022-10-30T17:09:51.0000000+00:00</time></trkpt><trkpt lat="39.4863851" lon="-0.37792099"><ele>-37.8</ele><time>2022-10-30T17:09:52.0000000+00:00</time></trkpt><trkpt lat="39.48638778" lon="-0.37793985"><ele>-37.8</ele><time>2022-10-30T17:09:53.0000000+00:00</time></trkpt><trkpt lat="39.48639382" lon="-0.37795929"><ele>-37.8</ele><time>2022-10-30T17:09:54.0000000+00:00</time></trkpt><trkpt lat="39.48640136" lon="-0.37798528"><ele>-37.6</ele><time>2022-10-30T17:09:55.0000000+00:00</time></trkpt><trkpt lat="39.48641025" lon="-0.37800908"><ele>-37.6</ele><time>2022-10-30T17:09:56.0000000+00:00</time></trkpt><trkpt lat="39.48642751" lon="-0.37803046"><ele>-37.6</ele><time>2022-10-30T17:09:57.0000000+00:00</time></trkpt><trkpt lat="39.4864338" lon="-0.37805258"><ele>-37.6</ele><time>2022-10-30T17:09:58.0000000+00:00</time></trkpt><trkpt lat="39.48643916" lon="-0.37807421"><ele>-37.6</ele><time>2022-10-30T17:09:59.0000000+00:00</time></trkpt><trkpt lat="39.48643254" lon="-0.37810011"><ele>-37.6</ele><time>2022-10-30T17:10:00.0000000+00:00</time></trkpt><trkpt lat="39.48639675" lon="-0.37811595"><ele>-37.6</ele><time>2022-10-30T17:10:01.0000000+00:00</time></trkpt><trkpt lat="39.48639331" lon="-0.37812324"><ele>-37.6</ele><time>2022-10-30T17:10:02.0000000+00:00</time></trkpt><trkpt lat="39.48636331" lon="-0.37813464"><ele>-37.6</ele><time>2022-10-30T17:10:03.0000000+00:00</time></trkpt><trkpt lat="39.48633858" lon="-0.37814755"><ele>-37.6</ele><time>2022-10-30T17:10:04.0000000+00:00</time></trkpt><trkpt lat="39.48631972" lon="-0.378154"><ele>-37.6</ele><time>2022-10-30T17:10:05.0000000+00:00</time></trkpt><trkpt lat="39.48630262" lon="-0.37816188"><ele>-37.6</ele><time>2022-10-30T17:10:06.0000000+00:00</time></trkpt><trkpt lat="39.48629022" lon="-0.37816976"><ele>-37.4</ele><time>2022-10-30T17:10:07.0000000+00:00</time></trkpt><trkpt lat="39.48627831" lon="-0.37817496"><ele>-37.4</ele><time>2022-10-30T17:10:08.0000000+00:00</time></trkpt><trkpt lat="39.48626465" lon="-0.37817982"><ele>-37.4</ele><time>2022-10-30T17:10:09.0000000+00:00</time></trkpt><trkpt lat="39.48625451" lon="-0.3781877"><ele>-37.4</ele><time>2022-10-30T17:10:10.0000000+00:00</time></trkpt><trkpt lat="39.48623967" lon="-0.37819164"><ele>-37.4</ele><time>2022-10-30T17:10:11.0000000+00:00</time></trkpt><trkpt lat="39.48622551" lon="-0.37819382"><ele>-37.4</ele><time>2022-10-30T17:10:12.0000000+00:00</time></trkpt><trkpt lat="39.48620782" lon="-0.37819809"><ele>-37.4</ele><time>2022-10-30T17:10:13.0000000+00:00</time></trkpt><trkpt lat="39.48620196" lon="-0.3782079"><ele>-37.4</ele><time>2022-10-30T17:10:14.0000000+00:00</time></trkpt><trkpt lat="39.48618955" lon="-0.37822022"><ele>-37.4</ele><time>2022-10-30T17:10:15.0000000+00:00</time></trkpt><trkpt lat="39.48616751" lon="-0.37822827"><ele>-37.4</ele><time>2022-10-30T17:10:16.0000000+00:00</time></trkpt><trkpt lat="39.48613725" lon="-0.37822668"><ele>-37.4</ele><time>2022-10-30T17:10:17.0000000+00:00</time></trkpt><trkpt lat="39.48610062" lon="-0.37821905"><ele>-37.6</ele><time>2022-10-30T17:10:18.0000000+00:00</time></trkpt><trkpt lat="39.48608218" lon="-0.37822944"><ele>-37.6</ele><time>2022-10-30T17:10:19.0000000+00:00</time></trkpt><trkpt lat="39.48607815" lon="-0.37823271"><ele>-37.6</ele><time>2022-10-30T17:10:20.0000000+00:00</time></trkpt><trkpt lat="39.48607748" lon="-0.37823254"><ele>-37.6</ele><time>2022-10-30T17:10:21.0000000+00:00</time></trkpt><trkpt lat="39.4860779" lon="-0.37823078"><ele>-37.6</ele><time>2022-10-30T17:10:22.0000000+00:00</time></trkpt><trkpt lat="39.48607774" lon="-0.37823053"><ele>-37.6</ele><time>2022-10-30T17:10:23.0000000+00:00</time></trkpt><trkpt lat="39.48607916" lon="-0.37822978"><ele>-37.6</ele><time>2022-10-30T17:10:24.0000000+00:00</time></trkpt><trkpt lat="39.48608092" lon="-0.37822978"><ele>-37.6</ele><time>2022-10-30T17:10:25.0000000+00:00</time></trkpt><trkpt lat="39.48607799" lon="-0.37824134"><ele>-37.4</ele><time>2022-10-30T17:10:26.0000000+00:00</time></trkpt><trkpt lat="39.48607648" lon="-0.37824151"><ele>-37.4</ele><time>2022-10-30T17:10:27.0000000+00:00</time></trkpt><trkpt lat="39.48607715" lon="-0.37823631"><ele>-37.4</ele><time>2022-10-30T17:10:28.0000000+00:00</time></trkpt><trkpt lat="39.48608805" lon="-0.37822944"><ele>-37.4</ele><time>2022-10-30T17:10:29.0000000+00:00</time></trkpt><trkpt lat="39.48609668" lon="-0.37822575"><ele>-37.4</ele><time>2022-10-30T17:10:30.0000000+00:00</time></trkpt><trkpt lat="39.48609601" lon="-0.37822383"><ele>-37.4</ele><time>2022-10-30T17:10:31.0000000+00:00</time></trkpt><trkpt lat="39.48609416" lon="-0.37821813"><ele>-37.2</ele><time>2022-10-30T17:10:32.0000000+00:00</time></trkpt><trkpt lat="39.48609299" lon="-0.37822785"><ele>-37.2</ele><time>2022-10-30T17:10:33.0000000+00:00</time></trkpt><trkpt lat="39.48607815" lon="-0.37823849"><ele>-37.2</ele><time>2022-10-30T17:10:34.0000000+00:00</time></trkpt><trkpt lat="39.48605871" lon="-0.37824797"><ele>-37.0</ele><time>2022-10-30T17:10:35.0000000+00:00</time></trkpt><trkpt lat="39.48605846" lon="-0.37824998"><ele>-37.0</ele><time>2022-10-30T17:10:36.0000000+00:00</time></trkpt><trkpt lat="39.48605971" lon="-0.37824939"><ele>-37.0</ele><time>2022-10-30T17:10:37.0000000+00:00</time></trkpt><trkpt lat="39.48605737" lon="-0.37824294"><ele>-37.0</ele><time>2022-10-30T17:10:38.0000000+00:00</time></trkpt><trkpt lat="39.486066" lon="-0.37824025"><ele>-37.0</ele><time>2022-10-30T17:10:39.0000000+00:00</time></trkpt><trkpt lat="39.48608084" lon="-0.37824269"><ele>-37.0</ele><time>2022-10-30T17:10:40.0000000+00:00</time></trkpt><trkpt lat="39.486095" lon="-0.3782457"><ele>-37.0</ele><time>2022-10-30T17:10:41.0000000+00:00</time></trkpt><trkpt lat="39.48610271" lon="-0.37824872"><ele>-37.0</ele><time>2022-10-30T17:10:42.0000000+00:00</time></trkpt><trkpt lat="39.48610858" lon="-0.37824587"><ele>-37.0</ele><time>2022-10-30T17:10:43.0000000+00:00</time></trkpt><trkpt lat="39.48611478" lon="-0.37824361"><ele>-37.0</ele><time>2022-10-30T17:10:44.0000000+00:00</time></trkpt><trkpt lat="39.48612451" lon="-0.3782483"><ele>-37.0</ele><time>2022-10-30T17:10:45.0000000+00:00</time></trkpt><trkpt lat="39.48613322" lon="-0.37825953"><ele>-37.0</ele><time>2022-10-30T17:10:46.0000000+00:00</time></trkpt><trkpt lat="39.48614613" lon="-0.37827428"><ele>-37.0</ele><time>2022-10-30T17:10:47.0000000+00:00</time></trkpt><trkpt lat="39.48616273" lon="-0.3782856"><ele>-37.0</ele><time>2022-10-30T17:10:48.0000000+00:00</time></trkpt><trkpt lat="39.48618217" lon="-0.37829675"><ele>-37.0</ele><time>2022-10-30T17:10:49.0000000+00:00</time></trkpt><trkpt lat="39.4861945" lon="-0.37831645"><ele>-36.8</ele><time>2022-10-30T17:10:50.0000000+00:00</time></trkpt><trkpt lat="39.48620397" lon="-0.37833849"><ele>-36.8</ele><time>2022-10-30T17:10:51.0000000+00:00</time></trkpt><trkpt lat="39.48620967" lon="-0.37836146"><ele>-36.8</ele><time>2022-10-30T17:10:52.0000000+00:00</time></trkpt><trkpt lat="39.48620615" lon="-0.37838568"><ele>-36.6</ele><time>2022-10-30T17:10:53.0000000+00:00</time></trkpt><trkpt lat="39.48619466" lon="-0.37841527"><ele>-36.6</ele><time>2022-10-30T17:10:54.0000000+00:00</time></trkpt><trkpt lat="39.48618427" lon="-0.37843798"><ele>-36.6</ele><time>2022-10-30T17:10:55.0000000+00:00</time></trkpt><trkpt lat="39.48618745" lon="-0.37844779"><ele>-36.6</ele><time>2022-10-30T17:10:56.0000000+00:00</time></trkpt><trkpt lat="39.48619743" lon="-0.37845877"><ele>-36.6</ele><time>2022-10-30T17:10:57.0000000+00:00</time></trkpt><trkpt lat="39.48620682" lon="-0.37847277"><ele>-36.6</ele><time>2022-10-30T17:10:58.0000000+00:00</time></trkpt><trkpt lat="39.48620833" lon="-0.37849934"><ele>-36.6</ele><time>2022-10-30T17:10:59.0000000+00:00</time></trkpt><trkpt lat="39.48621335" lon="-0.37852055"><ele>-36.6</ele><time>2022-10-30T17:11:00.0000000+00:00</time></trkpt><trkpt lat="39.48622475" lon="-0.37854033"><ele>-36.6</ele><time>2022-10-30T17:11:01.0000000+00:00</time></trkpt><trkpt lat="39.48623138" lon="-0.3785591"><ele>-36.6</ele><time>2022-10-30T17:11:02.0000000+00:00</time></trkpt><trkpt lat="39.48623481" lon="-0.37858006"><ele>-36.4</ele><time>2022-10-30T17:11:03.0000000+00:00</time></trkpt><trkpt lat="39.48624236" lon="-0.37859984"><ele>-36.4</ele><time>2022-10-30T17:11:04.0000000+00:00</time></trkpt><trkpt lat="39.4862478" lon="-0.37861509"><ele>-36.2</ele><time>2022-10-30T17:11:05.0000000+00:00</time></trkpt><trkpt lat="39.48625392" lon="-0.37863546"><ele>-36.2</ele><time>2022-10-30T17:11:06.0000000+00:00</time></trkpt><trkpt lat="39.48626029" lon="-0.37866203"><ele>-36.2</ele><time>2022-10-30T17:11:07.0000000+00:00</time></trkpt><trkpt lat="39.48625652" lon="-0.37868642"><ele>-36.2</ele><time>2022-10-30T17:11:08.0000000+00:00</time></trkpt><trkpt lat="39.48626725" lon="-0.37870377"><ele>-36.2</ele><time>2022-10-30T17:11:09.0000000+00:00</time></trkpt><trkpt lat="39.48627471" lon="-0.37871568"><ele>-36.2</ele><time>2022-10-30T17:11:10.0000000+00:00</time></trkpt><trkpt lat="39.4862784" lon="-0.3787285"><ele>-36.2</ele><time>2022-10-30T17:11:11.0000000+00:00</time></trkpt><trkpt lat="39.48628033" lon="-0.37874082"><ele>-36.2</ele><time>2022-10-30T17:11:12.0000000+00:00</time></trkpt><trkpt lat="39.48628594" lon="-0.37876706"><ele>-36.2</ele><time>2022-10-30T17:11:13.0000000+00:00</time></trkpt><trkpt lat="39.48628427" lon="-0.3787834"><ele>-36.2</ele><time>2022-10-30T17:11:14.0000000+00:00</time></trkpt><trkpt lat="39.48627999" lon="-0.37880536"><ele>-36.2</ele><time>2022-10-30T17:11:15.0000000+00:00</time></trkpt><trkpt lat="39.48626951" lon="-0.37883185"><ele>-36.2</ele><time>2022-10-30T17:11:16.0000000+00:00</time></trkpt><trkpt lat="39.4862618" lon="-0.37885465"><ele>-36.2</ele><time>2022-10-30T17:11:17.0000000+00:00</time></trkpt><trkpt lat="39.48625317" lon="-0.37887979"><ele>-36.2</ele><time>2022-10-30T17:11:18.0000000+00:00</time></trkpt><trkpt lat="39.48624931" lon="-0.37890502"><ele>-36.2</ele><time>2022-10-30T17:11:19.0000000+00:00</time></trkpt><trkpt lat="39.48625233" lon="-0.37892439"><ele>-36.2</ele><time>2022-10-30T17:11:20.0000000+00:00</time></trkpt><trkpt lat="39.4862561" lon="-0.37893696"><ele>-36.2</ele><time>2022-10-30T17:11:21.0000000+00:00</time></trkpt><trkpt lat="39.48625929" lon="-0.3789549"><ele>-36.0</ele><time>2022-10-30T17:11:22.0000000+00:00</time></trkpt><trkpt lat="39.48626809" lon="-0.37898809"><ele>-36.0</ele><time>2022-10-30T17:11:23.0000000+00:00</time></trkpt><trkpt lat="39.48627438" lon="-0.37901902"><ele>-36.0</ele><time>2022-10-30T17:11:24.0000000+00:00</time></trkpt><trkpt lat="39.48628091" lon="-0.3790471"><ele>-36.0</ele><time>2022-10-30T17:11:25.0000000+00:00</time></trkpt><trkpt lat="39.48628075" lon="-0.37907325"><ele>-36.0</ele><time>2022-10-30T17:11:26.0000000+00:00</time></trkpt><trkpt lat="39.48627764" lon="-0.37910183"><ele>-36.0</ele><time>2022-10-30T17:11:27.0000000+00:00</time></trkpt><trkpt lat="39.48627102" lon="-0.37912857"><ele>-36.0</ele><time>2022-10-30T17:11:28.0000000+00:00</time></trkpt><trkpt lat="39.48626591" lon="-0.37914936"><ele>-36.0</ele><time>2022-10-30T17:11:29.0000000+00:00</time></trkpt><trkpt lat="39.48626616" lon="-0.37916645"><ele>-36.0</ele><time>2022-10-30T17:11:30.0000000+00:00</time></trkpt><trkpt lat="39.48626532" lon="-0.37918439"><ele>-36.0</ele><time>2022-10-30T17:11:31.0000000+00:00</time></trkpt><trkpt lat="39.48626943" lon="-0.37920442"><ele>-36.0</ele><time>2022-10-30T17:11:32.0000000+00:00</time></trkpt><trkpt lat="39.48627136" lon="-0.37922387"><ele>-36.0</ele><time>2022-10-30T17:11:33.0000000+00:00</time></trkpt><trkpt lat="39.48627077" lon="-0.37923795"><ele>-36.0</ele><time>2022-10-30T17:11:34.0000000+00:00</time></trkpt><trkpt lat="39.48626792" lon="-0.37925396"><ele>-36.0</ele><time>2022-10-30T17:11:35.0000000+00:00</time></trkpt><trkpt lat="39.48626264" lon="-0.37926301"><ele>-36.0</ele><time>2022-10-30T17:11:36.0000000+00:00</time></trkpt><trkpt lat="39.48625711" lon="-0.37928221"><ele>-36.0</ele><time>2022-10-30T17:11:37.0000000+00:00</time></trkpt><trkpt lat="39.48624831" lon="-0.37929319"><ele>-36.0</ele><time>2022-10-30T17:11:38.0000000+00:00</time></trkpt><trkpt lat="39.48624051" lon="-0.37930073"><ele>-36.0</ele><time>2022-10-30T17:11:39.0000000+00:00</time></trkpt><trkpt lat="39.48624001" lon="-0.37931163"><ele>-36.0</ele><time>2022-10-30T17:11:40.0000000+00:00</time></trkpt><trkpt lat="39.48623104" lon="-0.37932387"><ele>-35.8</ele><time>2022-10-30T17:11:41.0000000+00:00</time></trkpt><trkpt lat="39.4862276" lon="-0.37933728"><ele>-35.8</ele><time>2022-10-30T17:11:42.0000000+00:00</time></trkpt><trkpt lat="39.48622534" lon="-0.3793532"><ele>-35.8</ele><time>2022-10-30T17:11:43.0000000+00:00</time></trkpt><trkpt lat="39.48622048" lon="-0.37937081"><ele>-35.8</ele><time>2022-10-30T17:11:44.0000000+00:00</time></trkpt><trkpt lat="39.48621294" lon="-0.37938396"><ele>-35.8</ele><time>2022-10-30T17:11:45.0000000+00:00</time></trkpt><trkpt lat="39.48620405" lon="-0.37939528"><ele>-35.8</ele><time>2022-10-30T17:11:46.0000000+00:00</time></trkpt><trkpt lat="39.486195" lon="-0.37941221"><ele>-35.8</ele><time>2022-10-30T17:11:47.0000000+00:00</time></trkpt><trkpt lat="39.4861898" lon="-0.37942839"><ele>-35.8</ele><time>2022-10-30T17:11:48.0000000+00:00</time></trkpt><trkpt lat="39.48618293" lon="-0.37944851"><ele>-35.8</ele><time>2022-10-30T17:11:49.0000000+00:00</time></trkpt><trkpt lat="39.48617907" lon="-0.37946376"><ele>-35.8</ele><time>2022-10-30T17:11:50.0000000+00:00</time></trkpt><trkpt lat="39.48617656" lon="-0.37947692"><ele>-35.8</ele><time>2022-10-30T17:11:51.0000000+00:00</time></trkpt><trkpt lat="39.48617958" lon="-0.37949033"><ele>-35.8</ele><time>2022-10-30T17:11:52.0000000+00:00</time></trkpt><trkpt lat="39.48618251" lon="-0.37950131"><ele>-35.8</ele><time>2022-10-30T17:11:53.0000000+00:00</time></trkpt><trkpt lat="39.4861872" lon="-0.37951757"><ele>-35.8</ele><time>2022-10-30T17:11:54.0000000+00:00</time></trkpt><trkpt lat="39.48618687" lon="-0.37953023"><ele>-35.8</ele><time>2022-10-30T17:11:55.0000000+00:00</time></trkpt><trkpt lat="39.48618804" lon="-0.37954448"><ele>-35.8</ele><time>2022-10-30T17:11:56.0000000+00:00</time></trkpt><trkpt lat="39.4862183" lon="-0.37956619"><ele>-35.8</ele><time>2022-10-30T17:11:57.0000000+00:00</time></trkpt><trkpt lat="39.48623364" lon="-0.37959695"><ele>-35.6</ele><time>2022-10-30T17:11:58.0000000+00:00</time></trkpt><trkpt lat="39.4862411" lon="-0.37962285"><ele>-35.6</ele><time>2022-10-30T17:11:59.0000000+00:00</time></trkpt><trkpt lat="39.48624546" lon="-0.3796511"><ele>-35.6</ele><time>2022-10-30T17:12:00.0000000+00:00</time></trkpt><trkpt lat="39.48623548" lon="-0.37967423"><ele>-35.6</ele><time>2022-10-30T17:12:01.0000000+00:00</time></trkpt><trkpt lat="39.48622081" lon="-0.37969317"><ele>-35.6</ele><time>2022-10-30T17:12:02.0000000+00:00</time></trkpt><trkpt lat="39.4862157" lon="-0.37970583"><ele>-35.6</ele><time>2022-10-30T17:12:03.0000000+00:00</time></trkpt><trkpt lat="39.48621059" lon="-0.37972754"><ele>-35.6</ele><time>2022-10-30T17:12:04.0000000+00:00</time></trkpt><trkpt lat="39.4862043" lon="-0.37973626"><ele>-35.6</ele><time>2022-10-30T17:12:05.0000000+00:00</time></trkpt><trkpt lat="39.48620087" lon="-0.37975118"><ele>-35.6</ele><time>2022-10-30T17:12:06.0000000+00:00</time></trkpt><trkpt lat="39.48620011" lon="-0.37976425"><ele>-35.6</ele><time>2022-10-30T17:12:07.0000000+00:00</time></trkpt><trkpt lat="39.48620045" lon="-0.37978118"><ele>-35.6</ele><time>2022-10-30T17:12:08.0000000+00:00</time></trkpt><trkpt lat="39.48619751" lon="-0.37979401"><ele>-35.6</ele><time>2022-10-30T17:12:09.0000000+00:00</time></trkpt><trkpt lat="39.4862012" lon="-0.37981446"><ele>-35.6</ele><time>2022-10-30T17:12:10.0000000+00:00</time></trkpt><trkpt lat="39.48620355" lon="-0.37983139"><ele>-35.6</ele><time>2022-10-30T17:12:11.0000000+00:00</time></trkpt><trkpt lat="39.4862059" lon="-0.37985184"><ele>-35.4</ele><time>2022-10-30T17:12:12.0000000+00:00</time></trkpt><trkpt lat="39.48620648" lon="-0.37987892"><ele>-35.4</ele><time>2022-10-30T17:12:13.0000000+00:00</time></trkpt><trkpt lat="39.48620807" lon="-0.379894"><ele>-35.4</ele><time>2022-10-30T17:12:14.0000000+00:00</time></trkpt><trkpt lat="39.48620263" lon="-0.37990867"><ele>-35.4</ele><time>2022-10-30T17:12:15.0000000+00:00</time></trkpt><trkpt lat="39.48619282" lon="-0.37992359"><ele>-35.2</ele><time>2022-10-30T17:12:16.0000000+00:00</time></trkpt><trkpt lat="39.48618477" lon="-0.37993063"><ele>-35.2</ele><time>2022-10-30T17:12:17.0000000+00:00</time></trkpt><trkpt lat="39.48617404" lon="-0.37993751"><ele>-35.2</ele><time>2022-10-30T17:12:18.0000000+00:00</time></trkpt><trkpt lat="39.48616331" lon="-0.37995226"><ele>-35.2</ele><time>2022-10-30T17:12:19.0000000+00:00</time></trkpt><trkpt lat="39.4861551" lon="-0.3799676"><ele>-35.2</ele><time>2022-10-30T17:12:20.0000000+00:00</time></trkpt><trkpt lat="39.48615032" lon="-0.37998629"><ele>-35.2</ele><time>2022-10-30T17:12:21.0000000+00:00</time></trkpt><trkpt lat="39.48614513" lon="-0.38000297"><ele>-35.0</ele><time>2022-10-30T17:12:22.0000000+00:00</time></trkpt><trkpt lat="39.48614152" lon="-0.38000733"><ele>-35.0</ele><time>2022-10-30T17:12:23.0000000+00:00</time></trkpt><trkpt lat="39.48613817" lon="-0.38002149"><ele>-35.0</ele><time>2022-10-30T17:12:24.0000000+00:00</time></trkpt><trkpt lat="39.48613322" lon="-0.38003314"><ele>-35.0</ele><time>2022-10-30T17:12:25.0000000+00:00</time></trkpt><trkpt lat="39.48613021" lon="-0.38004479"><ele>-35.0</ele><time>2022-10-30T17:12:26.0000000+00:00</time></trkpt><trkpt lat="39.48612585" lon="-0.3800572"><ele>-34.8</ele><time>2022-10-30T17:12:27.0000000+00:00</time></trkpt><trkpt lat="39.48612409" lon="-0.38006986"><ele>-34.8</ele><time>2022-10-30T17:12:28.0000000+00:00</time></trkpt><trkpt lat="39.48612308" lon="-0.38008654"><ele>-34.8</ele><time>2022-10-30T17:12:29.0000000+00:00</time></trkpt><trkpt lat="39.48612375" lon="-0.38011076"><ele>-34.8</ele><time>2022-10-30T17:12:30.0000000+00:00</time></trkpt><trkpt lat="39.48612811" lon="-0.38012912"><ele>-34.8</ele><time>2022-10-30T17:12:31.0000000+00:00</time></trkpt><trkpt lat="39.48612928" lon="-0.3801499"><ele>-34.8</ele><time>2022-10-30T17:12:32.0000000+00:00</time></trkpt><trkpt lat="39.48613364" lon="-0.38017203"><ele>-34.8</ele><time>2022-10-30T17:12:33.0000000+00:00</time></trkpt><trkpt lat="39.48614278" lon="-0.38019558"><ele>-34.8</ele><time>2022-10-30T17:12:34.0000000+00:00</time></trkpt><trkpt lat="39.48614999" lon="-0.38023397"><ele>-34.8</ele><time>2022-10-30T17:12:35.0000000+00:00</time></trkpt><trkpt lat="39.48615711" lon="-0.38025853"><ele>-34.8</ele><time>2022-10-30T17:12:36.0000000+00:00</time></trkpt><trkpt lat="39.48616273" lon="-0.38027605"><ele>-34.8</ele><time>2022-10-30T17:12:37.0000000+00:00</time></trkpt><trkpt lat="39.48616491" lon="-0.38029131"><ele>-34.6</ele><time>2022-10-30T17:12:38.0000000+00:00</time></trkpt><trkpt lat="39.48616432" lon="-0.38030237"><ele>-34.6</ele><time>2022-10-30T17:12:39.0000000+00:00</time></trkpt><trkpt lat="39.48616751" lon="-0.38031494"><ele>-34.6</ele><time>2022-10-30T17:12:40.0000000+00:00</time></trkpt><trkpt lat="39.486181" lon="-0.38033766"><ele>-34.6</ele><time>2022-10-30T17:12:41.0000000+00:00</time></trkpt><trkpt lat="39.48619374" lon="-0.38036021"><ele>-34.6</ele><time>2022-10-30T17:12:42.0000000+00:00</time></trkpt><trkpt lat="39.48619248" lon="-0.38038652"><ele>-34.6</ele><time>2022-10-30T17:12:43.0000000+00:00</time></trkpt><trkpt lat="39.48618821" lon="-0.3804027"><ele>-34.6</ele><time>2022-10-30T17:12:44.0000000+00:00</time></trkpt><trkpt lat="39.48618922" lon="-0.38041175"><ele>-34.6</ele><time>2022-10-30T17:12:45.0000000+00:00</time></trkpt><trkpt lat="39.4861774" lon="-0.380426"><ele>-34.6</ele><time>2022-10-30T17:12:46.0000000+00:00</time></trkpt><trkpt lat="39.48616834" lon="-0.38044453"><ele>-34.6</ele><time>2022-10-30T17:12:47.0000000+00:00</time></trkpt><trkpt lat="39.4861691" lon="-0.3804633"><ele>-34.6</ele><time>2022-10-30T17:12:48.0000000+00:00</time></trkpt><trkpt lat="39.48616457" lon="-0.38047881"><ele>-34.4</ele><time>2022-10-30T17:12:49.0000000+00:00</time></trkpt><trkpt lat="39.48615845" lon="-0.38049541"><ele>-34.4</ele><time>2022-10-30T17:12:50.0000000+00:00</time></trkpt><trkpt lat="39.48616147" lon="-0.38051192"><ele>-34.4</ele><time>2022-10-30T17:12:51.0000000+00:00</time></trkpt><trkpt lat="39.48617019" lon="-0.38052918"><ele>-34.4</ele><time>2022-10-30T17:12:52.0000000+00:00</time></trkpt><trkpt lat="39.48618075" lon="-0.38055374"><ele>-34.4</ele><time>2022-10-30T17:12:53.0000000+00:00</time></trkpt><trkpt lat="39.48620263" lon="-0.38058501"><ele>-34.4</ele><time>2022-10-30T17:12:54.0000000+00:00</time></trkpt><trkpt lat="39.48620355" lon="-0.38059959"><ele>-34.4</ele><time>2022-10-30T17:12:55.0000000+00:00</time></trkpt><trkpt lat="39.48621034" lon="-0.38062172"><ele>-34.4</ele><time>2022-10-30T17:12:56.0000000+00:00</time></trkpt><trkpt lat="39.4862002" lon="-0.38063454"><ele>-34.4</ele><time>2022-10-30T17:12:57.0000000+00:00</time></trkpt><trkpt lat="39.48618435" lon="-0.38065131"><ele>-34.4</ele><time>2022-10-30T17:12:58.0000000+00:00</time></trkpt><trkpt lat="39.48617857" lon="-0.38066422"><ele>-34.4</ele><time>2022-10-30T17:12:59.0000000+00:00</time></trkpt><trkpt lat="39.48617639" lon="-0.38068006"><ele>-34.4</ele><time>2022-10-30T17:13:00.0000000+00:00</time></trkpt><trkpt lat="39.48617128" lon="-0.38068593"><ele>-34.4</ele><time>2022-10-30T17:13:01.0000000+00:00</time></trkpt><trkpt lat="39.48616985" lon="-0.38069691"><ele>-34.4</ele><time>2022-10-30T17:13:02.0000000+00:00</time></trkpt><trkpt lat="39.48617027" lon="-0.38071535"><ele>-34.4</ele><time>2022-10-30T17:13:03.0000000+00:00</time></trkpt><trkpt lat="39.48617287" lon="-0.38073756"><ele>-34.4</ele><time>2022-10-30T17:13:04.0000000+00:00</time></trkpt><trkpt lat="39.48617304" lon="-0.38075357"><ele>-34.4</ele><time>2022-10-30T17:13:05.0000000+00:00</time></trkpt><trkpt lat="39.48617622" lon="-0.38077234"><ele>-34.4</ele><time>2022-10-30T17:13:06.0000000+00:00</time></trkpt><trkpt lat="39.48618678" lon="-0.38079313"><ele>-34.4</ele><time>2022-10-30T17:13:07.0000000+00:00</time></trkpt><trkpt lat="39.48619198" lon="-0.38082079"><ele>-34.4</ele><time>2022-10-30T17:13:08.0000000+00:00</time></trkpt><trkpt lat="39.48614244" lon="-0.38082297"><ele>-34.4</ele><time>2022-10-30T17:13:09.0000000+00:00</time></trkpt><trkpt lat="39.4860893" lon="-0.38083236"><ele>-34.4</ele><time>2022-10-30T17:13:10.0000000+00:00</time></trkpt><trkpt lat="39.48607665" lon="-0.38084786"><ele>-34.4</ele><time>2022-10-30T17:13:11.0000000+00:00</time></trkpt><trkpt lat="39.48605988" lon="-0.38085742"><ele>-34.4</ele><time>2022-10-30T17:13:12.0000000+00:00</time></trkpt><trkpt lat="39.48604966" lon="-0.38086404"><ele>-34.4</ele><time>2022-10-30T17:13:13.0000000+00:00</time></trkpt><trkpt lat="39.48604362" lon="-0.38086756"><ele>-34.4</ele><time>2022-10-30T17:13:14.0000000+00:00</time></trkpt><trkpt lat="39.48603725" lon="-0.38087024"><ele>-34.4</ele><time>2022-10-30T17:13:15.0000000+00:00</time></trkpt><trkpt lat="39.48603365" lon="-0.38087569"><ele>-34.4</ele><time>2022-10-30T17:13:16.0000000+00:00</time></trkpt><trkpt lat="39.48603298" lon="-0.38088282"><ele>-34.2</ele><time>2022-10-30T17:13:17.0000000+00:00</time></trkpt><trkpt lat="39.48602912" lon="-0.38088391"><ele>-34.2</ele><time>2022-10-30T17:13:18.0000000+00:00</time></trkpt><trkpt lat="39.48602426" lon="-0.38088625"><ele>-34.4</ele><time>2022-10-30T17:13:19.0000000+00:00</time></trkpt><trkpt lat="39.48601479" lon="-0.38089396"><ele>-34.4</ele><time>2022-10-30T17:13:20.0000000+00:00</time></trkpt><trkpt lat="39.48600682" lon="-0.38089874"><ele>-34.4</ele><time>2022-10-30T17:13:21.0000000+00:00</time></trkpt><trkpt lat="39.4859997" lon="-0.38090511"><ele>-34.4</ele><time>2022-10-30T17:13:22.0000000+00:00</time></trkpt><trkpt lat="39.48598537" lon="-0.38091073"><ele>-34.4</ele><time>2022-10-30T17:13:23.0000000+00:00</time></trkpt><trkpt lat="39.4859738" lon="-0.38091634"><ele>-34.4</ele><time>2022-10-30T17:13:24.0000000+00:00</time></trkpt><trkpt lat="39.48596651" lon="-0.38091559"><ele>-34.4</ele><time>2022-10-30T17:13:25.0000000+00:00</time></trkpt><trkpt lat="39.48596232" lon="-0.3809181"><ele>-34.4</ele><time>2022-10-30T17:13:26.0000000+00:00</time></trkpt><trkpt lat="39.48595083" lon="-0.38093311"><ele>-34.4</ele><time>2022-10-30T17:13:27.0000000+00:00</time></trkpt><trkpt lat="39.48594698" lon="-0.38095038"><ele>-34.4</ele><time>2022-10-30T17:13:28.0000000+00:00</time></trkpt><trkpt lat="39.48594094" lon="-0.38097418"><ele>-34.4</ele><time>2022-10-30T17:13:29.0000000+00:00</time></trkpt><trkpt lat="39.48593533" lon="-0.38099472"><ele>-34.4</ele><time>2022-10-30T17:13:30.0000000+00:00</time></trkpt><trkpt lat="39.48593549" lon="-0.38101181"><ele>-34.4</ele><time>2022-10-30T17:13:31.0000000+00:00</time></trkpt><trkpt lat="39.48593038" lon="-0.38103579"><ele>-34.4</ele><time>2022-10-30T17:13:32.0000000+00:00</time></trkpt><trkpt lat="39.4859339" lon="-0.38105557"><ele>-34.4</ele><time>2022-10-30T17:13:33.0000000+00:00</time></trkpt><trkpt lat="39.48593315" lon="-0.38108314"><ele>-34.4</ele><time>2022-10-30T17:13:34.0000000+00:00</time></trkpt><trkpt lat="39.48592829" lon="-0.38110443"><ele>-34.4</ele><time>2022-10-30T17:13:35.0000000+00:00</time></trkpt><trkpt lat="39.48592083" lon="-0.38112086"><ele>-34.4</ele><time>2022-10-30T17:13:36.0000000+00:00</time></trkpt><trkpt lat="39.48591848" lon="-0.38113402"><ele>-34.4</ele><time>2022-10-30T17:13:37.0000000+00:00</time></trkpt><trkpt lat="39.48590783" lon="-0.38114995"><ele>-34.4</ele><time>2022-10-30T17:13:38.0000000+00:00</time></trkpt><trkpt lat="39.48590306" lon="-0.38115397"><ele>-34.4</ele><time>2022-10-30T17:13:39.0000000+00:00</time></trkpt><trkpt lat="39.48589694" lon="-0.38116931"><ele>-34.4</ele><time>2022-10-30T17:13:40.0000000+00:00</time></trkpt><trkpt lat="39.48589526" lon="-0.38118457"><ele>-34.4</ele><time>2022-10-30T17:13:41.0000000+00:00</time></trkpt><trkpt lat="39.48589233" lon="-0.38120242"><ele>-34.4</ele><time>2022-10-30T17:13:42.0000000+00:00</time></trkpt><trkpt lat="39.48588956" lon="-0.38121709"><ele>-34.4</ele><time>2022-10-30T17:13:43.0000000+00:00</time></trkpt><trkpt lat="39.48588805" lon="-0.38123578"><ele>-34.4</ele><time>2022-10-30T17:13:44.0000000+00:00</time></trkpt><trkpt lat="39.48588185" lon="-0.38125229"><ele>-34.4</ele><time>2022-10-30T17:13:45.0000000+00:00</time></trkpt><trkpt lat="39.48587816" lon="-0.38126797"><ele>-34.4</ele><time>2022-10-30T17:13:46.0000000+00:00</time></trkpt><trkpt lat="39.48587758" lon="-0.38128397"><ele>-34.4</ele><time>2022-10-30T17:13:47.0000000+00:00</time></trkpt><trkpt lat="39.48587506" lon="-0.38130065"><ele>-34.4</ele><time>2022-10-30T17:13:48.0000000+00:00</time></trkpt><trkpt lat="39.48587506" lon="-0.38131574"><ele>-34.4</ele><time>2022-10-30T17:13:49.0000000+00:00</time></trkpt><trkpt lat="39.48587372" lon="-0.38133318"><ele>-34.4</ele><time>2022-10-30T17:13:50.0000000+00:00</time></trkpt><trkpt lat="39.48586877" lon="-0.3813538"><ele>-34.4</ele><time>2022-10-30T17:13:51.0000000+00:00</time></trkpt><trkpt lat="39.48586408" lon="-0.38137425"><ele>-34.4</ele><time>2022-10-30T17:13:52.0000000+00:00</time></trkpt><trkpt lat="39.48586266" lon="-0.38139252"><ele>-34.4</ele><time>2022-10-30T17:13:53.0000000+00:00</time></trkpt><trkpt lat="39.48586291" lon="-0.38140727"><ele>-34.4</ele><time>2022-10-30T17:13:54.0000000+00:00</time></trkpt><trkpt lat="39.48586333" lon="-0.38142303"><ele>-34.4</ele><time>2022-10-30T17:13:55.0000000+00:00</time></trkpt><trkpt lat="39.48586291" lon="-0.38144499"><ele>-34.4</ele><time>2022-10-30T17:13:56.0000000+00:00</time></trkpt><trkpt lat="39.48586584" lon="-0.38145966"><ele>-34.4</ele><time>2022-10-30T17:13:57.0000000+00:00</time></trkpt><trkpt lat="39.48586727" lon="-0.38147735"><ele>-34.4</ele><time>2022-10-30T17:13:58.0000000+00:00</time></trkpt><trkpt lat="39.48587028" lon="-0.38149587"><ele>-34.2</ele><time>2022-10-30T17:13:59.0000000+00:00</time></trkpt><trkpt lat="39.48586928" lon="-0.38150878"><ele>-34.2</ele><time>2022-10-30T17:14:00.0000000+00:00</time></trkpt><trkpt lat="39.48587129" lon="-0.38152185"><ele>-34.2</ele><time>2022-10-30T17:14:01.0000000+00:00</time></trkpt><trkpt lat="39.48587422" lon="-0.381533"><ele>-34.0</ele><time>2022-10-30T17:14:02.0000000+00:00</time></trkpt><trkpt lat="39.48587691" lon="-0.38154339"><ele>-34.0</ele><time>2022-10-30T17:14:03.0000000+00:00</time></trkpt><trkpt lat="39.48587934" lon="-0.3815553"><ele>-34.0</ele><time>2022-10-30T17:14:04.0000000+00:00</time></trkpt><trkpt lat="39.48587699" lon="-0.38156854"><ele>-34.0</ele><time>2022-10-30T17:14:05.0000000+00:00</time></trkpt><trkpt lat="39.48587724" lon="-0.38158606"><ele>-34.0</ele><time>2022-10-30T17:14:06.0000000+00:00</time></trkpt><trkpt lat="39.48587506" lon="-0.38159863"><ele>-34.0</ele><time>2022-10-30T17:14:07.0000000+00:00</time></trkpt><trkpt lat="39.48587456" lon="-0.38161028"><ele>-34.0</ele><time>2022-10-30T17:14:08.0000000+00:00</time></trkpt><trkpt lat="39.48587179" lon="-0.38161984"><ele>-34.0</ele><time>2022-10-30T17:14:09.0000000+00:00</time></trkpt><trkpt lat="39.48587338" lon="-0.38162654"><ele>-34.0</ele><time>2022-10-30T17:14:10.0000000+00:00</time></trkpt><trkpt lat="39.48587347" lon="-0.38164155"><ele>-34.0</ele><time>2022-10-30T17:14:11.0000000+00:00</time></trkpt><trkpt lat="39.48587439" lon="-0.38165856"><ele>-34.0</ele><time>2022-10-30T17:14:12.0000000+00:00</time></trkpt><trkpt lat="39.48587364" lon="-0.38168002"><ele>-34.0</ele><time>2022-10-30T17:14:13.0000000+00:00</time></trkpt><trkpt lat="39.4858707" lon="-0.38169108"><ele>-33.8</ele><time>2022-10-30T17:14:14.0000000+00:00</time></trkpt><trkpt lat="39.4858671" lon="-0.38170726"><ele>-33.8</ele><time>2022-10-30T17:14:15.0000000+00:00</time></trkpt><trkpt lat="39.48586416" lon="-0.38172394"><ele>-33.8</ele><time>2022-10-30T17:14:16.0000000+00:00</time></trkpt><trkpt lat="39.48586215" lon="-0.38173819"><ele>-33.8</ele><time>2022-10-30T17:14:17.0000000+00:00</time></trkpt><trkpt lat="39.48586358" lon="-0.38175445"><ele>-33.6</ele><time>2022-10-30T17:14:18.0000000+00:00</time></trkpt><trkpt lat="39.4858676" lon="-0.38177029"><ele>-33.6</ele><time>2022-10-30T17:14:19.0000000+00:00</time></trkpt><trkpt lat="39.48586735" lon="-0.3817894"><ele>-33.4</ele><time>2022-10-30T17:14:20.0000000+00:00</time></trkpt><trkpt lat="39.48587372" lon="-0.38179955"><ele>-33.4</ele><time>2022-10-30T17:14:21.0000000+00:00</time></trkpt><trkpt lat="39.48587582" lon="-0.38181799"><ele>-33.4</ele><time>2022-10-30T17:14:22.0000000+00:00</time></trkpt><trkpt lat="39.48587498" lon="-0.38182771"><ele>-33.4</ele><time>2022-10-30T17:14:23.0000000+00:00</time></trkpt><trkpt lat="39.48587255" lon="-0.3818438"><ele>-33.4</ele><time>2022-10-30T17:14:24.0000000+00:00</time></trkpt><trkpt lat="39.48587204" lon="-0.38185814"><ele>-33.4</ele><time>2022-10-30T17:14:25.0000000+00:00</time></trkpt><trkpt lat="39.48587372" lon="-0.38187188"><ele>-33.2</ele><time>2022-10-30T17:14:26.0000000+00:00</time></trkpt><trkpt lat="39.4858738" lon="-0.38188789"><ele>-33.2</ele><time>2022-10-30T17:14:27.0000000+00:00</time></trkpt><trkpt lat="39.48587112" lon="-0.38190709"><ele>-33.2</ele><time>2022-10-30T17:14:28.0000000+00:00</time></trkpt><trkpt lat="39.48587171" lon="-0.38192435"><ele>-33.2</ele><time>2022-10-30T17:14:29.0000000+00:00</time></trkpt><trkpt lat="39.48587288" lon="-0.3819469"><ele>-33.2</ele><time>2022-10-30T17:14:30.0000000+00:00</time></trkpt><trkpt lat="39.4858723" lon="-0.38196693"><ele>-33.0</ele><time>2022-10-30T17:14:31.0000000+00:00</time></trkpt><trkpt lat="39.48587288" lon="-0.38198495"><ele>-33.0</ele><time>2022-10-30T17:14:32.0000000+00:00</time></trkpt><trkpt lat="39.48587473" lon="-0.38200163"><ele>-33.0</ele><time>2022-10-30T17:14:33.0000000+00:00</time></trkpt><trkpt lat="39.48587992" lon="-0.38201865"><ele>-33.0</ele><time>2022-10-30T17:14:34.0000000+00:00</time></trkpt><trkpt lat="39.48588227" lon="-0.38202913"><ele>-33.0</ele><time>2022-10-30T17:14:35.0000000+00:00</time></trkpt><trkpt lat="39.48588135" lon="-0.38204664"><ele>-32.8</ele><time>2022-10-30T17:14:36.0000000+00:00</time></trkpt><trkpt lat="39.48588353" lon="-0.38206156"><ele>-32.8</ele><time>2022-10-30T17:14:37.0000000+00:00</time></trkpt><trkpt lat="39.48588554" lon="-0.38207866"><ele>-32.6</ele><time>2022-10-30T17:14:38.0000000+00:00</time></trkpt><trkpt lat="39.48588889" lon="-0.38208914"><ele>-32.6</ele><time>2022-10-30T17:14:39.0000000+00:00</time></trkpt><trkpt lat="39.48588847" lon="-0.38210389"><ele>-32.4</ele><time>2022-10-30T17:14:40.0000000+00:00</time></trkpt><trkpt lat="39.48588789" lon="-0.38211554"><ele>-32.4</ele><time>2022-10-30T17:14:41.0000000+00:00</time></trkpt><trkpt lat="39.4858847" lon="-0.38213289"><ele>-32.4</ele><time>2022-10-30T17:14:42.0000000+00:00</time></trkpt><trkpt lat="39.4858842" lon="-0.38215234"><ele>-32.4</ele><time>2022-10-30T17:14:43.0000000+00:00</time></trkpt><trkpt lat="39.48588495" lon="-0.38217237"><ele>-32.4</ele><time>2022-10-30T17:14:44.0000000+00:00</time></trkpt><trkpt lat="39.48587959" lon="-0.38219165"><ele>-32.4</ele><time>2022-10-30T17:14:45.0000000+00:00</time></trkpt><trkpt lat="39.48587749" lon="-0.38221009"><ele>-32.4</ele><time>2022-10-30T17:14:46.0000000+00:00</time></trkpt><trkpt lat="39.48587959" lon="-0.38222903"><ele>-32.4</ele><time>2022-10-30T17:14:47.0000000+00:00</time></trkpt><trkpt lat="39.48587791" lon="-0.38224932"><ele>-32.2</ele><time>2022-10-30T17:14:48.0000000+00:00</time></trkpt><trkpt lat="39.48587942" lon="-0.38226625"><ele>-32.2</ele><time>2022-10-30T17:14:49.0000000+00:00</time></trkpt><trkpt lat="39.48587783" lon="-0.38227991"><ele>-32.0</ele><time>2022-10-30T17:14:50.0000000+00:00</time></trkpt><trkpt lat="39.48587582" lon="-0.38229433"><ele>-32.0</ele><time>2022-10-30T17:14:51.0000000+00:00</time></trkpt><trkpt lat="39.48587632" lon="-0.382309"><ele>-32.0</ele><time>2022-10-30T17:14:52.0000000+00:00</time></trkpt><trkpt lat="39.48587783" lon="-0.38232375"><ele>-31.8</ele><time>2022-10-30T17:14:53.0000000+00:00</time></trkpt><trkpt lat="39.4858821" lon="-0.38233842"><ele>-31.8</ele><time>2022-10-30T17:14:54.0000000+00:00</time></trkpt><trkpt lat="39.48588722" lon="-0.38235594"><ele>-31.8</ele><time>2022-10-30T17:14:55.0000000+00:00</time></trkpt><trkpt lat="39.48588789" lon="-0.38237446"><ele>-31.8</ele><time>2022-10-30T17:14:56.0000000+00:00</time></trkpt><trkpt lat="39.48588931" lon="-0.38239407"><ele>-31.8</ele><time>2022-10-30T17:14:57.0000000+00:00</time></trkpt><trkpt lat="39.48589317" lon="-0.38241025"><ele>-31.8</ele><time>2022-10-30T17:14:58.0000000+00:00</time></trkpt><trkpt lat="39.48590012" lon="-0.38242886"><ele>-31.6</ele><time>2022-10-30T17:14:59.0000000+00:00</time></trkpt><trkpt lat="39.48590683" lon="-0.38244654"><ele>-31.6</ele><time>2022-10-30T17:15:00.0000000+00:00</time></trkpt><trkpt lat="39.48591286" lon="-0.38246046"><ele>-31.4</ele><time>2022-10-30T17:15:01.0000000+00:00</time></trkpt><trkpt lat="39.48591907" lon="-0.3824758"><ele>-31.4</ele><time>2022-10-30T17:15:02.0000000+00:00</time></trkpt><trkpt lat="39.48592544" lon="-0.38248812"><ele>-31.4</ele><time>2022-10-30T17:15:03.0000000+00:00</time></trkpt><trkpt lat="39.48592954" lon="-0.38250245"><ele>-31.4</ele><time>2022-10-30T17:15:04.0000000+00:00</time></trkpt><trkpt lat="39.48593156" lon="-0.38251662"><ele>-31.2</ele><time>2022-10-30T17:15:05.0000000+00:00</time></trkpt><trkpt lat="39.48593114" lon="-0.38252902"><ele>-31.2</ele><time>2022-10-30T17:15:06.0000000+00:00</time></trkpt><trkpt lat="39.48593189" lon="-0.382539"><ele>-31.2</ele><time>2022-10-30T17:15:07.0000000+00:00</time></trkpt><trkpt lat="39.48593373" lon="-0.38254939"><ele>-31.2</ele><time>2022-10-30T17:15:08.0000000+00:00</time></trkpt><trkpt lat="39.48593248" lon="-0.38256113"><ele>-31.2</ele><time>2022-10-30T17:15:09.0000000+00:00</time></trkpt><trkpt lat="39.48593474" lon="-0.38257487"><ele>-31.0</ele><time>2022-10-30T17:15:10.0000000+00:00</time></trkpt><trkpt lat="39.48593457" lon="-0.38258971"><ele>-31.0</ele><time>2022-10-30T17:15:11.0000000+00:00</time></trkpt><trkpt lat="39.48592829" lon="-0.38261049"><ele>-31.0</ele><time>2022-10-30T17:15:12.0000000+00:00</time></trkpt><trkpt lat="39.48592695" lon="-0.38263304"><ele>-30.6</ele><time>2022-10-30T17:15:13.0000000+00:00</time></trkpt><trkpt lat="39.48592996" lon="-0.38265634"><ele>-30.6</ele><time>2022-10-30T17:15:14.0000000+00:00</time></trkpt><trkpt lat="39.48593927" lon="-0.38267453"><ele>-30.6</ele><time>2022-10-30T17:15:15.0000000+00:00</time></trkpt><trkpt lat="39.4859422" lon="-0.38269457"><ele>-30.6</ele><time>2022-10-30T17:15:16.0000000+00:00</time></trkpt><trkpt lat="39.48594715" lon="-0.38270772"><ele>-30.6</ele><time>2022-10-30T17:15:17.0000000+00:00</time></trkpt><trkpt lat="39.48595318" lon="-0.38272348"><ele>-30.6</ele><time>2022-10-30T17:15:18.0000000+00:00</time></trkpt><trkpt lat="39.48595687" lon="-0.3827384"><ele>-30.8</ele><time>2022-10-30T17:15:19.0000000+00:00</time></trkpt><trkpt lat="39.48596458" lon="-0.38275517"><ele>-30.8</ele><time>2022-10-30T17:15:20.0000000+00:00</time></trkpt><trkpt lat="39.48596458" lon="-0.3827669"><ele>-30.6</ele><time>2022-10-30T17:15:21.0000000+00:00</time></trkpt><trkpt lat="39.485966" lon="-0.38277721"><ele>-30.6</ele><time>2022-10-30T17:15:22.0000000+00:00</time></trkpt><trkpt lat="39.48596584" lon="-0.38278417"><ele>-30.4</ele><time>2022-10-30T17:15:23.0000000+00:00</time></trkpt><trkpt lat="39.48596701" lon="-0.38279347"><ele>-30.4</ele><time>2022-10-30T17:15:24.0000000+00:00</time></trkpt><trkpt lat="39.48596827" lon="-0.38280512"><ele>-30.4</ele><time>2022-10-30T17:15:25.0000000+00:00</time></trkpt><trkpt lat="39.4859686" lon="-0.3828239"><ele>-30.4</ele><time>2022-10-30T17:15:26.0000000+00:00</time></trkpt><trkpt lat="39.48597564" lon="-0.38284695"><ele>-30.4</ele><time>2022-10-30T17:15:27.0000000+00:00</time></trkpt><trkpt lat="39.48597715" lon="-0.38287142"><ele>-30.4</ele><time>2022-10-30T17:15:28.0000000+00:00</time></trkpt><trkpt lat="39.48597598" lon="-0.38288794"><ele>-30.4</ele><time>2022-10-30T17:15:29.0000000+00:00</time></trkpt><trkpt lat="39.48597782" lon="-0.38290646"><ele>-30.2</ele><time>2022-10-30T17:15:30.0000000+00:00</time></trkpt><trkpt lat="39.48597942" lon="-0.38292423"><ele>-30.2</ele><time>2022-10-30T17:15:31.0000000+00:00</time></trkpt><trkpt lat="39.48598059" lon="-0.3829363"><ele>-30.2</ele><time>2022-10-30T17:15:32.0000000+00:00</time></trkpt><trkpt lat="39.4859821" lon="-0.38295005"><ele>-30.2</ele><time>2022-10-30T17:15:33.0000000+00:00</time></trkpt><trkpt lat="39.48598176" lon="-0.38296639"><ele>-30.0</ele><time>2022-10-30T17:15:34.0000000+00:00</time></trkpt><trkpt lat="39.48597883" lon="-0.38298097"><ele>-29.8</ele><time>2022-10-30T17:15:35.0000000+00:00</time></trkpt><trkpt lat="39.48597556" lon="-0.38299481"><ele>-29.8</ele><time>2022-10-30T17:15:36.0000000+00:00</time></trkpt><trkpt lat="39.48597388" lon="-0.38300964"><ele>-29.8</ele><time>2022-10-30T17:15:37.0000000+00:00</time></trkpt><trkpt lat="39.48597338" lon="-0.38302414"><ele>-29.8</ele><time>2022-10-30T17:15:38.0000000+00:00</time></trkpt><trkpt lat="39.48597321" lon="-0.38303881"><ele>-29.8</ele><time>2022-10-30T17:15:39.0000000+00:00</time></trkpt><trkpt lat="39.48597313" lon="-0.38305499"><ele>-29.8</ele><time>2022-10-30T17:15:40.0000000+00:00</time></trkpt><trkpt lat="39.48597665" lon="-0.38307569"><ele>-29.8</ele><time>2022-10-30T17:15:41.0000000+00:00</time></trkpt><trkpt lat="39.48598126" lon="-0.3830974"><ele>-29.8</ele><time>2022-10-30T17:15:42.0000000+00:00</time></trkpt><trkpt lat="39.48598419" lon="-0.38311467"><ele>-29.8</ele><time>2022-10-30T17:15:43.0000000+00:00</time></trkpt><trkpt lat="39.48598243" lon="-0.38312808"><ele>-29.8</ele><time>2022-10-30T17:15:44.0000000+00:00</time></trkpt><trkpt lat="39.4859774" lon="-0.38314316"><ele>-29.6</ele><time>2022-10-30T17:15:45.0000000+00:00</time></trkpt><trkpt lat="39.48597472" lon="-0.38315951"><ele>-29.6</ele><time>2022-10-30T17:15:46.0000000+00:00</time></trkpt><trkpt lat="39.4859702" lon="-0.38317678"><ele>-29.6</ele><time>2022-10-30T17:15:47.0000000+00:00</time></trkpt><trkpt lat="39.48597363" lon="-0.38320754"><ele>-29.6</ele><time>2022-10-30T17:15:48.0000000+00:00</time></trkpt><trkpt lat="39.48596835" lon="-0.38322774"><ele>-29.6</ele><time>2022-10-30T17:15:49.0000000+00:00</time></trkpt><trkpt lat="39.48595754" lon="-0.3832502"><ele>-29.6</ele><time>2022-10-30T17:15:50.0000000+00:00</time></trkpt><trkpt lat="39.48595393" lon="-0.38327032"><ele>-29.6</ele><time>2022-10-30T17:15:51.0000000+00:00</time></trkpt><trkpt lat="39.48594413" lon="-0.38328809"><ele>-29.6</ele><time>2022-10-30T17:15:52.0000000+00:00</time></trkpt><trkpt lat="39.48594078" lon="-0.38330116"><ele>-29.4</ele><time>2022-10-30T17:15:53.0000000+00:00</time></trkpt><trkpt lat="39.48594614" lon="-0.38330753"><ele>-29.4</ele><time>2022-10-30T17:15:54.0000000+00:00</time></trkpt><trkpt lat="39.48593524" lon="-0.38332011"><ele>-29.4</ele><time>2022-10-30T17:15:55.0000000+00:00</time></trkpt><trkpt lat="39.48591437" lon="-0.3833383"><ele>-29.4</ele><time>2022-10-30T17:15:56.0000000+00:00</time></trkpt><trkpt lat="39.48590465" lon="-0.38334115"><ele>-29.4</ele><time>2022-10-30T17:15:57.0000000+00:00</time></trkpt><trkpt lat="39.485894" lon="-0.38334995"><ele>-29.4</ele><time>2022-10-30T17:15:58.0000000+00:00</time></trkpt><trkpt lat="39.48588152" lon="-0.38335967"><ele>-29.4</ele><time>2022-10-30T17:15:59.0000000+00:00</time></trkpt><trkpt lat="39.48587439" lon="-0.38336705"><ele>-29.4</ele><time>2022-10-30T17:16:00.0000000+00:00</time></trkpt><trkpt lat="39.48586861" lon="-0.38337342"><ele>-29.4</ele><time>2022-10-30T17:16:01.0000000+00:00</time></trkpt><trkpt lat="39.48585863" lon="-0.38337886"><ele>-29.4</ele><time>2022-10-30T17:16:02.0000000+00:00</time></trkpt><trkpt lat="39.48584841" lon="-0.38338599"><ele>-29.4</ele><time>2022-10-30T17:16:03.0000000+00:00</time></trkpt><trkpt lat="39.48583927" lon="-0.38339186"><ele>-29.4</ele><time>2022-10-30T17:16:04.0000000+00:00</time></trkpt><trkpt lat="39.4858334" lon="-0.38340124"><ele>-29.4</ele><time>2022-10-30T17:16:05.0000000+00:00</time></trkpt><trkpt lat="39.48582578" lon="-0.3834103"><ele>-29.4</ele><time>2022-10-30T17:16:06.0000000+00:00</time></trkpt><trkpt lat="39.48581505" lon="-0.38342161"><ele>-29.2</ele><time>2022-10-30T17:16:07.0000000+00:00</time></trkpt><trkpt lat="39.48580507" lon="-0.38343301"><ele>-29.2</ele><time>2022-10-30T17:16:08.0000000+00:00</time></trkpt><trkpt lat="39.48579686" lon="-0.38345011"><ele>-29.2</ele><time>2022-10-30T17:16:09.0000000+00:00</time></trkpt><trkpt lat="39.48579325" lon="-0.38346184"><ele>-29.2</ele><time>2022-10-30T17:16:10.0000000+00:00</time></trkpt><trkpt lat="39.48578026" lon="-0.383475"><ele>-29.2</ele><time>2022-10-30T17:16:11.0000000+00:00</time></trkpt><trkpt lat="39.4857754" lon="-0.38348389"><ele>-29.2</ele><time>2022-10-30T17:16:12.0000000+00:00</time></trkpt><trkpt lat="39.48577473" lon="-0.38349412"><ele>-29.2</ele><time>2022-10-30T17:16:13.0000000+00:00</time></trkpt><trkpt lat="39.48577708" lon="-0.38350568"><ele>-29.2</ele><time>2022-10-30T17:16:14.0000000+00:00</time></trkpt><trkpt lat="39.48577615" lon="-0.38352043"><ele>-29.2</ele><time>2022-10-30T17:16:15.0000000+00:00</time></trkpt><trkpt lat="39.48576978" lon="-0.38353192"><ele>-29.2</ele><time>2022-10-30T17:16:16.0000000+00:00</time></trkpt><trkpt lat="39.48576526" lon="-0.38354198"><ele>-29.2</ele><time>2022-10-30T17:16:17.0000000+00:00</time></trkpt><trkpt lat="39.48575545" lon="-0.38354977"><ele>-29.2</ele><time>2022-10-30T17:16:18.0000000+00:00</time></trkpt><trkpt lat="39.48574942" lon="-0.38355664"><ele>-29.2</ele><time>2022-10-30T17:16:19.0000000+00:00</time></trkpt><trkpt lat="39.48575998" lon="-0.38358162"><ele>-29.0</ele><time>2022-10-30T17:16:20.0000000+00:00</time></trkpt><trkpt lat="39.48575386" lon="-0.38359746"><ele>-29.0</ele><time>2022-10-30T17:16:21.0000000+00:00</time></trkpt><trkpt lat="39.48574958" lon="-0.38361364"><ele>-28.8</ele><time>2022-10-30T17:16:22.0000000+00:00</time></trkpt><trkpt lat="39.48574229" lon="-0.38362906"><ele>-28.8</ele><time>2022-10-30T17:16:23.0000000+00:00</time></trkpt><trkpt lat="39.4857257" lon="-0.38364449"><ele>-28.8</ele><time>2022-10-30T17:16:24.0000000+00:00</time></trkpt><trkpt lat="39.48571513" lon="-0.38366653"><ele>-28.8</ele><time>2022-10-30T17:16:25.0000000+00:00</time></trkpt><trkpt lat="39.48570927" lon="-0.38368522"><ele>-28.8</ele><time>2022-10-30T17:16:26.0000000+00:00</time></trkpt><trkpt lat="39.48570399" lon="-0.38369838"><ele>-28.8</ele><time>2022-10-30T17:16:27.0000000+00:00</time></trkpt><trkpt lat="39.48569418" lon="-0.38371808"><ele>-28.8</ele><time>2022-10-30T17:16:28.0000000+00:00</time></trkpt><trkpt lat="39.48568479" lon="-0.38373543"><ele>-28.8</ele><time>2022-10-30T17:16:29.0000000+00:00</time></trkpt><trkpt lat="39.48567867" lon="-0.38374851"><ele>-28.8</ele><time>2022-10-30T17:16:30.0000000+00:00</time></trkpt><trkpt lat="39.48567532" lon="-0.38376058"><ele>-28.8</ele><time>2022-10-30T17:16:31.0000000+00:00</time></trkpt><trkpt lat="39.48567658" lon="-0.38377223"><ele>-28.8</ele><time>2022-10-30T17:16:32.0000000+00:00</time></trkpt><trkpt lat="39.48567331" lon="-0.38378245"><ele>-28.8</ele><time>2022-10-30T17:16:33.0000000+00:00</time></trkpt><trkpt lat="39.48567172" lon="-0.38379637"><ele>-28.8</ele><time>2022-10-30T17:16:34.0000000+00:00</time></trkpt><trkpt lat="39.48566526" lon="-0.38380768"><ele>-28.8</ele><time>2022-10-30T17:16:35.0000000+00:00</time></trkpt><trkpt lat="39.48565973" lon="-0.38381414"><ele>-28.8</ele><time>2022-10-30T17:16:36.0000000+00:00</time></trkpt><trkpt lat="39.48565613" lon="-0.38381523"><ele>-28.8</ele><time>2022-10-30T17:16:37.0000000+00:00</time></trkpt><trkpt lat="39.48565504" lon="-0.38381523"><ele>-28.8</ele><time>2022-10-30T17:16:38.0000000+00:00</time></trkpt><trkpt lat="39.48565437" lon="-0.38381506"><ele>-28.8</ele><time>2022-10-30T17:16:39.0000000+00:00</time></trkpt><trkpt lat="39.48565504" lon="-0.38381715"><ele>-28.8</ele><time>2022-10-30T17:16:40.0000000+00:00</time></trkpt><trkpt lat="39.48565571" lon="-0.38382612"><ele>-28.8</ele><time>2022-10-30T17:16:41.0000000+00:00</time></trkpt><trkpt lat="39.4856521" lon="-0.3838361"><ele>-28.8</ele><time>2022-10-30T17:16:42.0000000+00:00</time></trkpt><trkpt lat="39.48565411" lon="-0.38384615"><ele>-28.8</ele><time>2022-10-30T17:16:43.0000000+00:00</time></trkpt><trkpt lat="39.48565001" lon="-0.38385638"><ele>-28.8</ele><time>2022-10-30T17:16:44.0000000+00:00</time></trkpt><trkpt lat="39.48564221" lon="-0.3838656"><ele>-28.8</ele><time>2022-10-30T17:16:45.0000000+00:00</time></trkpt><trkpt lat="39.48563618" lon="-0.38387641"><ele>-28.6</ele><time>2022-10-30T17:16:46.0000000+00:00</time></trkpt><trkpt lat="39.4856314" lon="-0.38389192"><ele>-28.6</ele><time>2022-10-30T17:16:47.0000000+00:00</time></trkpt><trkpt lat="39.48563098" lon="-0.38390977"><ele>-28.6</ele><time>2022-10-30T17:16:48.0000000+00:00</time></trkpt><trkpt lat="39.48562947" lon="-0.38392922"><ele>-28.6</ele><time>2022-10-30T17:16:49.0000000+00:00</time></trkpt><trkpt lat="39.48562553" lon="-0.38394716"><ele>-28.6</ele><time>2022-10-30T17:16:50.0000000+00:00</time></trkpt><trkpt lat="39.48561137" lon="-0.38395881"><ele>-28.6</ele><time>2022-10-30T17:16:51.0000000+00:00</time></trkpt><trkpt lat="39.48559955" lon="-0.38398353"><ele>-28.8</ele><time>2022-10-30T17:16:52.0000000+00:00</time></trkpt><trkpt lat="39.48559075" lon="-0.38400466"><ele>-28.8</ele><time>2022-10-30T17:16:53.0000000+00:00</time></trkpt><trkpt lat="39.4855739" lon="-0.38401991"><ele>-28.8</ele><time>2022-10-30T17:16:54.0000000+00:00</time></trkpt><trkpt lat="39.48555613" lon="-0.38402209"><ele>-28.8</ele><time>2022-10-30T17:16:55.0000000+00:00</time></trkpt><trkpt lat="39.48555278" lon="-0.38402461"><ele>-28.8</ele><time>2022-10-30T17:16:56.0000000+00:00</time></trkpt><trkpt lat="39.4855459" lon="-0.38403047"><ele>-28.8</ele><time>2022-10-30T17:16:57.0000000+00:00</time></trkpt><trkpt lat="39.4855345" lon="-0.38404221"><ele>-28.8</ele><time>2022-10-30T17:16:58.0000000+00:00</time></trkpt><trkpt lat="39.48553165" lon="-0.3840583"><ele>-28.8</ele><time>2022-10-30T17:16:59.0000000+00:00</time></trkpt><trkpt lat="39.48552788" lon="-0.38406668"><ele>-28.8</ele><time>2022-10-30T17:17:00.0000000+00:00</time></trkpt><trkpt lat="39.48550684" lon="-0.38407045"><ele>-28.8</ele><time>2022-10-30T17:17:01.0000000+00:00</time></trkpt><trkpt lat="39.4854957" lon="-0.38406526"><ele>-28.8</ele><time>2022-10-30T17:17:02.0000000+00:00</time></trkpt><trkpt lat="39.48547424" lon="-0.38406903"><ele>-28.8</ele><time>2022-10-30T17:17:03.0000000+00:00</time></trkpt><trkpt lat="39.48546611" lon="-0.38409904"><ele>-29.0</ele><time>2022-10-30T17:17:04.0000000+00:00</time></trkpt><trkpt lat="39.4854677" lon="-0.38413743"><ele>-29.0</ele><time>2022-10-30T17:17:05.0000000+00:00</time></trkpt><trkpt lat="39.48545337" lon="-0.38415696"><ele>-29.0</ele><time>2022-10-30T17:17:06.0000000+00:00</time></trkpt><trkpt lat="39.48544021" lon="-0.38417179"><ele>-29.0</ele><time>2022-10-30T17:17:07.0000000+00:00</time></trkpt><trkpt lat="39.48542546" lon="-0.3841909"><ele>-29.0</ele><time>2022-10-30T17:17:08.0000000+00:00</time></trkpt><trkpt lat="39.4854092" lon="-0.3842101"><ele>-29.0</ele><time>2022-10-30T17:17:09.0000000+00:00</time></trkpt><trkpt lat="39.48540073" lon="-0.38422527"><ele>-28.8</ele><time>2022-10-30T17:17:10.0000000+00:00</time></trkpt><trkpt lat="39.48539176" lon="-0.38424161"><ele>-28.8</ele><time>2022-10-30T17:17:11.0000000+00:00</time></trkpt><trkpt lat="39.48538313" lon="-0.3842593"><ele>-28.8</ele><time>2022-10-30T17:17:12.0000000+00:00</time></trkpt><trkpt lat="39.48537525" lon="-0.38427464"><ele>-29.0</ele><time>2022-10-30T17:17:13.0000000+00:00</time></trkpt><trkpt lat="39.48536251" lon="-0.38428646"><ele>-29.0</ele><time>2022-10-30T17:17:14.0000000+00:00</time></trkpt><trkpt lat="39.4853532" lon="-0.38429651"><ele>-29.0</ele><time>2022-10-30T17:17:15.0000000+00:00</time></trkpt><trkpt lat="39.48534004" lon="-0.38430163"><ele>-29.0</ele><time>2022-10-30T17:17:16.0000000+00:00</time></trkpt><trkpt lat="39.48531129" lon="-0.38430448"><ele>-29.0</ele><time>2022-10-30T17:17:17.0000000+00:00</time></trkpt><trkpt lat="39.48530383" lon="-0.3843282"><ele>-29.0</ele><time>2022-10-30T17:17:18.0000000+00:00</time></trkpt><trkpt lat="39.48530174" lon="-0.38436432"><ele>-29.2</ele><time>2022-10-30T17:17:19.0000000+00:00</time></trkpt><trkpt lat="39.48528875" lon="-0.38439701"><ele>-29.2</ele><time>2022-10-30T17:17:20.0000000+00:00</time></trkpt><trkpt lat="39.48528179" lon="-0.38441277"><ele>-29.2</ele><time>2022-10-30T17:17:21.0000000+00:00</time></trkpt><trkpt lat="39.48529763" lon="-0.38444026"><ele>-29.2</ele><time>2022-10-30T17:17:22.0000000+00:00</time></trkpt><trkpt lat="39.48531934" lon="-0.38446021"><ele>-29.2</ele><time>2022-10-30T17:17:23.0000000+00:00</time></trkpt><trkpt lat="39.48533292" lon="-0.38447605"><ele>-29.2</ele><time>2022-10-30T17:17:24.0000000+00:00</time></trkpt><trkpt lat="39.48533024" lon="-0.38448947"><ele>-29.4</ele><time>2022-10-30T17:17:25.0000000+00:00</time></trkpt><trkpt lat="39.48532999" lon="-0.38450346"><ele>-29.4</ele><time>2022-10-30T17:17:26.0000000+00:00</time></trkpt><trkpt lat="39.48532387" lon="-0.38451185"><ele>-29.4</ele><time>2022-10-30T17:17:27.0000000+00:00</time></trkpt><trkpt lat="39.48531817" lon="-0.38452978"><ele>-29.4</ele><time>2022-10-30T17:17:28.0000000+00:00</time></trkpt><trkpt lat="39.4853118" lon="-0.38454252"><ele>-29.4</ele><time>2022-10-30T17:17:29.0000000+00:00</time></trkpt><trkpt lat="39.48530585" lon="-0.38455694"><ele>-29.4</ele><time>2022-10-30T17:17:30.0000000+00:00</time></trkpt><trkpt lat="39.48530308" lon="-0.3845737"><ele>-29.4</ele><time>2022-10-30T17:17:31.0000000+00:00</time></trkpt><trkpt lat="39.48529503" lon="-0.38458879"><ele>-29.6</ele><time>2022-10-30T17:17:32.0000000+00:00</time></trkpt><trkpt lat="39.48529093" lon="-0.38460136"><ele>-29.6</ele><time>2022-10-30T17:17:33.0000000+00:00</time></trkpt><trkpt lat="39.4852869" lon="-0.38461109"><ele>-29.6</ele><time>2022-10-30T17:17:34.0000000+00:00</time></trkpt><trkpt lat="39.48528078" lon="-0.38462726"><ele>-29.4</ele><time>2022-10-30T17:17:35.0000000+00:00</time></trkpt><trkpt lat="39.48527576" lon="-0.38464034"><ele>-29.4</ele><time>2022-10-30T17:17:36.0000000+00:00</time></trkpt><trkpt lat="39.4852662" lon="-0.38466197"><ele>-29.4</ele><time>2022-10-30T17:17:37.0000000+00:00</time></trkpt><trkpt lat="39.48526226" lon="-0.38467831"><ele>-29.4</ele><time>2022-10-30T17:17:38.0000000+00:00</time></trkpt><trkpt lat="39.48526167" lon="-0.38470052"><ele>-29.4</ele><time>2022-10-30T17:17:39.0000000+00:00</time></trkpt><trkpt lat="39.48525555" lon="-0.38470505"><ele>-29.4</ele><time>2022-10-30T17:17:40.0000000+00:00</time></trkpt><trkpt lat="39.48525321" lon="-0.38472693"><ele>-29.4</ele><time>2022-10-30T17:17:41.0000000+00:00</time></trkpt><trkpt lat="39.48524633" lon="-0.38474897"><ele>-29.4</ele><time>2022-10-30T17:17:42.0000000+00:00</time></trkpt><trkpt lat="39.48523779" lon="-0.38476297"><ele>-29.4</ele><time>2022-10-30T17:17:43.0000000+00:00</time></trkpt><trkpt lat="39.48522957" lon="-0.38478166"><ele>-29.4</ele><time>2022-10-30T17:17:44.0000000+00:00</time></trkpt><trkpt lat="39.48521012" lon="-0.38479733"><ele>-29.4</ele><time>2022-10-30T17:17:45.0000000+00:00</time></trkpt><trkpt lat="39.48520434" lon="-0.38480898"><ele>-29.6</ele><time>2022-10-30T17:17:46.0000000+00:00</time></trkpt><trkpt lat="39.48519378" lon="-0.38482273"><ele>-29.8</ele><time>2022-10-30T17:17:47.0000000+00:00</time></trkpt><trkpt lat="39.48518775" lon="-0.38483438"><ele>-29.8</ele><time>2022-10-30T17:17:48.0000000+00:00</time></trkpt><trkpt lat="39.48517945" lon="-0.38484545"><ele>-30.0</ele><time>2022-10-30T17:17:49.0000000+00:00</time></trkpt><trkpt lat="39.48517241" lon="-0.38485802"><ele>-30.0</ele><time>2022-10-30T17:17:50.0000000+00:00</time></trkpt><trkpt lat="39.48516067" lon="-0.38486799"><ele>-30.0</ele><time>2022-10-30T17:17:51.0000000+00:00</time></trkpt><trkpt lat="39.48514743" lon="-0.38487369"><ele>-30.0</ele><time>2022-10-30T17:17:52.0000000+00:00</time></trkpt><trkpt lat="39.48513486" lon="-0.38487805"><ele>-30.2</ele><time>2022-10-30T17:17:53.0000000+00:00</time></trkpt><trkpt lat="39.48511633" lon="-0.38488685"><ele>-30.2</ele><time>2022-10-30T17:17:54.0000000+00:00</time></trkpt><trkpt lat="39.48509839" lon="-0.38489381"><ele>-30.2</ele><time>2022-10-30T17:17:55.0000000+00:00</time></trkpt><trkpt lat="39.48509429" lon="-0.38493924"><ele>-30.4</ele><time>2022-10-30T17:17:56.0000000+00:00</time></trkpt><trkpt lat="39.48508808" lon="-0.38496346"><ele>-30.4</ele><time>2022-10-30T17:17:57.0000000+00:00</time></trkpt><trkpt lat="39.48508909" lon="-0.38499179"><ele>-30.4</ele><time>2022-10-30T17:17:58.0000000+00:00</time></trkpt><trkpt lat="39.48509571" lon="-0.3850073"><ele>-30.4</ele><time>2022-10-30T17:17:59.0000000+00:00</time></trkpt><trkpt lat="39.48510644" lon="-0.38502624"><ele>-30.4</ele><time>2022-10-30T17:18:00.0000000+00:00</time></trkpt><trkpt lat="39.48511105" lon="-0.3850425"><ele>-30.4</ele><time>2022-10-30T17:18:01.0000000+00:00</time></trkpt><trkpt lat="39.48511382" lon="-0.38505483"><ele>-30.4</ele><time>2022-10-30T17:18:02.0000000+00:00</time></trkpt><trkpt lat="39.48511533" lon="-0.3850643"><ele>-30.4</ele><time>2022-10-30T17:18:03.0000000+00:00</time></trkpt><trkpt lat="39.4851222" lon="-0.3850757"><ele>-30.4</ele><time>2022-10-30T17:18:04.0000000+00:00</time></trkpt><trkpt lat="39.4851284" lon="-0.38508643"><ele>-30.4</ele><time>2022-10-30T17:18:05.0000000+00:00</time></trkpt><trkpt lat="39.48513326" lon="-0.38509372"><ele>-30.4</ele><time>2022-10-30T17:18:06.0000000+00:00</time></trkpt><trkpt lat="39.48513251" lon="-0.38510394"><ele>-30.4</ele><time>2022-10-30T17:18:07.0000000+00:00</time></trkpt><trkpt lat="39.48513092" lon="-0.38511677"><ele>-30.4</ele><time>2022-10-30T17:18:08.0000000+00:00</time></trkpt><trkpt lat="39.48513033" lon="-0.38513554"><ele>-30.4</ele><time>2022-10-30T17:18:09.0000000+00:00</time></trkpt><trkpt lat="39.48513284" lon="-0.38515499"><ele>-30.4</ele><time>2022-10-30T17:18:10.0000000+00:00</time></trkpt><trkpt lat="39.48513268" lon="-0.38517745"><ele>-30.6</ele><time>2022-10-30T17:18:11.0000000+00:00</time></trkpt><trkpt lat="39.48512664" lon="-0.38519028"><ele>-30.8</ele><time>2022-10-30T17:18:12.0000000+00:00</time></trkpt><trkpt lat="39.48512136" lon="-0.38519899"><ele>-30.8</ele><time>2022-10-30T17:18:13.0000000+00:00</time></trkpt><trkpt lat="39.48511239" lon="-0.38520947"><ele>-31.0</ele><time>2022-10-30T17:18:14.0000000+00:00</time></trkpt><trkpt lat="39.48510124" lon="-0.38522531"><ele>-31.2</ele><time>2022-10-30T17:18:15.0000000+00:00</time></trkpt><trkpt lat="39.48509186" lon="-0.3852342"><ele>-31.4</ele><time>2022-10-30T17:18:16.0000000+00:00</time></trkpt><trkpt lat="39.48508775" lon="-0.38523973"><ele>-31.4</ele><time>2022-10-30T17:18:17.0000000+00:00</time></trkpt><trkpt lat="39.4850813" lon="-0.3852456"><ele>-31.4</ele><time>2022-10-30T17:18:18.0000000+00:00</time></trkpt><trkpt lat="39.48507819" lon="-0.38525071"><ele>-31.6</ele><time>2022-10-30T17:18:19.0000000+00:00</time></trkpt><trkpt lat="39.48507769" lon="-0.38525809"><ele>-31.6</ele><time>2022-10-30T17:18:20.0000000+00:00</time></trkpt><trkpt lat="39.48508197" lon="-0.38526177"><ele>-31.6</ele><time>2022-10-30T17:18:21.0000000+00:00</time></trkpt><trkpt lat="39.48508347" lon="-0.38526597"><ele>-31.6</ele><time>2022-10-30T17:18:22.0000000+00:00</time></trkpt><trkpt lat="39.48507702" lon="-0.38526052"><ele>-31.6</ele><time>2022-10-30T17:18:23.0000000+00:00</time></trkpt><trkpt lat="39.4850657" lon="-0.38525532"><ele>-31.6</ele><time>2022-10-30T17:18:24.0000000+00:00</time></trkpt><trkpt lat="39.4850512" lon="-0.38525381"><ele>-31.8</ele><time>2022-10-30T17:18:25.0000000+00:00</time></trkpt><trkpt lat="39.48504089" lon="-0.38525415"><ele>-31.8</ele><time>2022-10-30T17:18:26.0000000+00:00</time></trkpt><trkpt lat="39.48502941" lon="-0.38525314"><ele>-31.8</ele><time>2022-10-30T17:18:27.0000000+00:00</time></trkpt><trkpt lat="39.4850181" lon="-0.38525524"><ele>-32.0</ele><time>2022-10-30T17:18:28.0000000+00:00</time></trkpt><trkpt lat="39.48500795" lon="-0.38526236"><ele>-32.0</ele><time>2022-10-30T17:18:29.0000000+00:00</time></trkpt><trkpt lat="39.48499471" lon="-0.38526823"><ele>-32.0</ele><time>2022-10-30T17:18:30.0000000+00:00</time></trkpt><trkpt lat="39.4849839" lon="-0.38527913"><ele>-32.0</ele><time>2022-10-30T17:18:31.0000000+00:00</time></trkpt><trkpt lat="39.4849725" lon="-0.38528667"><ele>-32.2</ele><time>2022-10-30T17:18:32.0000000+00:00</time></trkpt><trkpt lat="39.48496034" lon="-0.3853098"><ele>-32.2</ele><time>2022-10-30T17:18:33.0000000+00:00</time></trkpt><trkpt lat="39.48495205" lon="-0.38533545"><ele>-32.2</ele><time>2022-10-30T17:18:34.0000000+00:00</time></trkpt><trkpt lat="39.4849435" lon="-0.38535951"><ele>-32.2</ele><time>2022-10-30T17:18:35.0000000+00:00</time></trkpt><trkpt lat="39.48493302" lon="-0.38538356"><ele>-32.2</ele><time>2022-10-30T17:18:36.0000000+00:00</time></trkpt><trkpt lat="39.4849181" lon="-0.38539765"><ele>-32.2</ele><time>2022-10-30T17:18:37.0000000+00:00</time></trkpt><trkpt lat="39.48490343" lon="-0.38540695"><ele>-32.2</ele><time>2022-10-30T17:18:38.0000000+00:00</time></trkpt><trkpt lat="39.48488751" lon="-0.3854191"><ele>-32.2</ele><time>2022-10-30T17:18:39.0000000+00:00</time></trkpt><trkpt lat="39.48487954" lon="-0.38543377"><ele>-32.2</ele><time>2022-10-30T17:18:40.0000000+00:00</time></trkpt><trkpt lat="39.48487334" lon="-0.38544903"><ele>-32.2</ele><time>2022-10-30T17:18:41.0000000+00:00</time></trkpt><trkpt lat="39.48486479" lon="-0.38546688"><ele>-32.4</ele><time>2022-10-30T17:18:42.0000000+00:00</time></trkpt><trkpt lat="39.48485641" lon="-0.38548943"><ele>-32.6</ele><time>2022-10-30T17:18:43.0000000+00:00</time></trkpt><trkpt lat="39.48484794" lon="-0.38550611"><ele>-32.8</ele><time>2022-10-30T17:18:44.0000000+00:00</time></trkpt><trkpt lat="39.48483822" lon="-0.38551994"><ele>-32.8</ele><time>2022-10-30T17:18:45.0000000+00:00</time></trkpt><trkpt lat="39.48483168" lon="-0.3855305"><ele>-32.8</ele><time>2022-10-30T17:18:46.0000000+00:00</time></trkpt><trkpt lat="39.48481936" lon="-0.38553184"><ele>-32.8</ele><time>2022-10-30T17:18:47.0000000+00:00</time></trkpt><trkpt lat="39.48479321" lon="-0.38552907"><ele>-32.8</ele><time>2022-10-30T17:18:48.0000000+00:00</time></trkpt><trkpt lat="39.48477477" lon="-0.38552824"><ele>-32.8</ele><time>2022-10-30T17:18:49.0000000+00:00</time></trkpt><trkpt lat="39.48475784" lon="-0.38552689"><ele>-32.8</ele><time>2022-10-30T17:18:50.0000000+00:00</time></trkpt><trkpt lat="39.48474962" lon="-0.38553008"><ele>-33.0</ele><time>2022-10-30T17:18:51.0000000+00:00</time></trkpt><trkpt lat="39.4847679" lon="-0.38555841"><ele>-33.0</ele><time>2022-10-30T17:18:52.0000000+00:00</time></trkpt><trkpt lat="39.4847663" lon="-0.38556562"><ele>-33.0</ele><time>2022-10-30T17:18:53.0000000+00:00</time></trkpt><trkpt lat="39.48477049" lon="-0.38557844"><ele>-33.2</ele><time>2022-10-30T17:18:54.0000000+00:00</time></trkpt><trkpt lat="39.48476605" lon="-0.38558213"><ele>-33.4</ele><time>2022-10-30T17:18:55.0000000+00:00</time></trkpt><trkpt lat="39.48476932" lon="-0.3855937"><ele>-33.4</ele><time>2022-10-30T17:18:56.0000000+00:00</time></trkpt><trkpt lat="39.48477921" lon="-0.38560694"><ele>-33.4</ele><time>2022-10-30T17:18:57.0000000+00:00</time></trkpt><trkpt lat="39.48478533" lon="-0.38561633"><ele>-33.6</ele><time>2022-10-30T17:18:58.0000000+00:00</time></trkpt><trkpt lat="39.48478499" lon="-0.38561968"><ele>-33.6</ele><time>2022-10-30T17:18:59.0000000+00:00</time></trkpt><trkpt lat="39.48478994" lon="-0.38562798"><ele>-33.8</ele><time>2022-10-30T17:19:00.0000000+00:00</time></trkpt><trkpt lat="39.48479111" lon="-0.38562907"><ele>-33.8</ele><time>2022-10-30T17:19:01.0000000+00:00</time></trkpt><trkpt lat="39.48479891" lon="-0.38563787"><ele>-33.8</ele><time>2022-10-30T17:19:02.0000000+00:00</time></trkpt><trkpt lat="39.48480092" lon="-0.3856398"><ele>-34.0</ele><time>2022-10-30T17:19:03.0000000+00:00</time></trkpt><trkpt lat="39.48480293" lon="-0.38564231"><ele>-34.0</ele><time>2022-10-30T17:19:04.0000000+00:00</time></trkpt><trkpt lat="39.48480528" lon="-0.38564516"><ele>-34.0</ele><time>2022-10-30T17:19:05.0000000+00:00</time></trkpt><trkpt lat="39.48480813" lon="-0.38564642"><ele>-34.0</ele><time>2022-10-30T17:19:06.0000000+00:00</time></trkpt><trkpt lat="39.48481022" lon="-0.38564583"><ele>-34.2</ele><time>2022-10-30T17:19:07.0000000+00:00</time></trkpt><trkpt lat="39.4848093" lon="-0.3856455"><ele>-34.2</ele><time>2022-10-30T17:19:08.0000000+00:00</time></trkpt><trkpt lat="39.48480913" lon="-0.38564575"><ele>-34.2</ele><time>2022-10-30T17:19:09.0000000+00:00</time></trkpt><trkpt lat="39.48481819" lon="-0.38565799"><ele>-34.2</ele><time>2022-10-30T17:19:10.0000000+00:00</time></trkpt><trkpt lat="39.48481601" lon="-0.38565991"><ele>-34.4</ele><time>2022-10-30T17:19:11.0000000+00:00</time></trkpt><trkpt lat="39.48482188" lon="-0.38566855"><ele>-34.4</ele><time>2022-10-30T17:19:12.0000000+00:00</time></trkpt><trkpt lat="39.48482011" lon="-0.38567148"><ele>-34.6</ele><time>2022-10-30T17:19:13.0000000+00:00</time></trkpt><trkpt lat="39.48482095" lon="-0.38567509"><ele>-34.6</ele><time>2022-10-30T17:19:14.0000000+00:00</time></trkpt><trkpt lat="39.48483084" lon="-0.38568724"><ele>-34.6</ele><time>2022-10-30T17:19:15.0000000+00:00</time></trkpt><trkpt lat="39.48483596" lon="-0.38569579"><ele>-34.8</ele><time>2022-10-30T17:19:16.0000000+00:00</time></trkpt><trkpt lat="39.4848373" lon="-0.38569822"><ele>-34.8</ele><time>2022-10-30T17:19:17.0000000+00:00</time></trkpt><trkpt lat="39.48483679" lon="-0.3856999"><ele>-34.8</ele><time>2022-10-30T17:19:18.0000000+00:00</time></trkpt><trkpt lat="39.48483529" lon="-0.38570719"><ele>-35.0</ele><time>2022-10-30T17:19:19.0000000+00:00</time></trkpt><trkpt lat="39.48483227" lon="-0.38572689"><ele>-35.4</ele><time>2022-10-30T17:19:23.0000000+00:00</time></trkpt><trkpt lat="39.48483084" lon="-0.38573368"><ele>-35.4</ele><time>2022-10-30T17:19:24.0000000+00:00</time></trkpt><trkpt lat="39.48482221" lon="-0.38574348"><ele>-35.4</ele><time>2022-10-30T17:19:25.0000000+00:00</time></trkpt><trkpt lat="39.48482095" lon="-0.38575153"><ele>-35.4</ele><time>2022-10-30T17:19:26.0000000+00:00</time></trkpt><trkpt lat="39.48481668" lon="-0.38575388"><ele>-35.4</ele><time>2022-10-30T17:19:27.0000000+00:00</time></trkpt><trkpt lat="39.4848228" lon="-0.38575689"><ele>-35.6</ele><time>2022-10-30T17:19:28.0000000+00:00</time></trkpt><trkpt lat="39.48481835" lon="-0.38574164"><ele>-35.6</ele><time>2022-10-30T17:19:29.0000000+00:00</time></trkpt><trkpt lat="39.48481626" lon="-0.38573233"><ele>-35.6</ele><time>2022-10-30T17:19:30.0000000+00:00</time></trkpt><trkpt lat="39.48481442" lon="-0.38572462"><ele>-35.8</ele><time>2022-10-30T17:19:31.0000000+00:00</time></trkpt><trkpt lat="39.48482892" lon="-0.3857035"><ele>-35.8</ele><time>2022-10-30T17:19:32.0000000+00:00</time></trkpt><trkpt lat="39.48484073" lon="-0.38568523"><ele>-35.8</ele><time>2022-10-30T17:19:33.0000000+00:00</time></trkpt><trkpt lat="39.48484828" lon="-0.38567266"><ele>-35.8</ele><time>2022-10-30T17:19:34.0000000+00:00</time></trkpt><trkpt lat="39.48485482" lon="-0.38565321"><ele>-35.8</ele><time>2022-10-30T17:19:35.0000000+00:00</time></trkpt><trkpt lat="39.48486814" lon="-0.38564919"><ele>-35.8</ele><time>2022-10-30T17:19:36.0000000+00:00</time></trkpt><trkpt lat="39.48487317" lon="-0.38565556"><ele>-35.8</ele><time>2022-10-30T17:19:37.0000000+00:00</time></trkpt><trkpt lat="39.48487879" lon="-0.38565178"><ele>-35.8</ele><time>2022-10-30T17:19:38.0000000+00:00</time></trkpt><trkpt lat="39.48487384" lon="-0.38565614"><ele>-35.8</ele><time>2022-10-30T17:19:39.0000000+00:00</time></trkpt><trkpt lat="39.48486487" lon="-0.3856859"><ele>-35.8</ele><time>2022-10-30T17:19:40.0000000+00:00</time></trkpt><trkpt lat="39.48485976" lon="-0.38574516"><ele>-35.8</ele><time>2022-10-30T17:19:41.0000000+00:00</time></trkpt><trkpt lat="39.48484182" lon="-0.38577609"><ele>-35.8</ele><time>2022-10-30T17:19:42.0000000+00:00</time></trkpt><trkpt lat="39.48485188" lon="-0.38574524"><ele>-35.8</ele><time>2022-10-30T17:19:43.0000000+00:00</time></trkpt><trkpt lat="39.48485306" lon="-0.38574264"><ele>-35.8</ele><time>2022-10-30T17:19:44.0000000+00:00</time></trkpt><trkpt lat="39.48485205" lon="-0.38574122"><ele>-35.8</ele><time>2022-10-30T17:19:45.0000000+00:00</time></trkpt><trkpt lat="39.48484534" lon="-0.38576486"><ele>-35.8</ele><time>2022-10-30T17:19:46.0000000+00:00</time></trkpt><trkpt lat="39.48484124" lon="-0.38576494"><ele>-35.8</ele><time>2022-10-30T17:19:47.0000000+00:00</time></trkpt><trkpt lat="39.48483755" lon="-0.38577357"><ele>-35.8</ele><time>2022-10-30T17:19:48.0000000+00:00</time></trkpt><trkpt lat="39.48483612" lon="-0.38578204"><ele>-35.8</ele><time>2022-10-30T17:19:49.0000000+00:00</time></trkpt><trkpt lat="39.48483286" lon="-0.38578313"><ele>-35.8</ele><time>2022-10-30T17:19:50.0000000+00:00</time></trkpt><trkpt lat="39.4848295" lon="-0.38578103"><ele>-35.8</ele><time>2022-10-30T17:19:51.0000000+00:00</time></trkpt><trkpt lat="39.48482757" lon="-0.38577491"><ele>-35.8</ele><time>2022-10-30T17:19:52.0000000+00:00</time></trkpt><trkpt lat="39.48482665" lon="-0.38576762"><ele>-35.8</ele><time>2022-10-30T17:19:53.0000000+00:00</time></trkpt><trkpt lat="39.48482447" lon="-0.38575731"><ele>-35.8</ele><time>2022-10-30T17:19:54.0000000+00:00</time></trkpt><trkpt lat="39.48482523" lon="-0.38575145"><ele>-35.8</ele><time>2022-10-30T17:19:55.0000000+00:00</time></trkpt><trkpt lat="39.48482934" lon="-0.38575253"><ele>-35.8</ele><time>2022-10-30T17:19:56.0000000+00:00</time></trkpt><trkpt lat="39.48483026" lon="-0.38576377"><ele>-35.8</ele><time>2022-10-30T17:19:57.0000000+00:00</time></trkpt><trkpt lat="39.48483051" lon="-0.38577039"><ele>-35.8</ele><time>2022-10-30T17:19:58.0000000+00:00</time></trkpt><trkpt lat="39.48486337" lon="-0.38576217"><ele>-35.8</ele><time>2022-10-30T17:19:59.0000000+00:00</time></trkpt><trkpt lat="39.48488524" lon="-0.38577491"><ele>-35.8</ele><time>2022-10-30T17:20:00.0000000+00:00</time></trkpt><trkpt lat="39.48490167" lon="-0.38574382"><ele>-35.8</ele><time>2022-10-30T17:20:01.0000000+00:00</time></trkpt><trkpt lat="39.48491123" lon="-0.38572521"><ele>-35.8</ele><time>2022-10-30T17:20:02.0000000+00:00</time></trkpt><trkpt lat="39.48491843" lon="-0.38571649"><ele>-35.8</ele><time>2022-10-30T17:20:03.0000000+00:00</time></trkpt><trkpt lat="39.48492489" lon="-0.38571004"><ele>-35.8</ele><time>2022-10-30T17:20:04.0000000+00:00</time></trkpt><trkpt lat="39.48492883" lon="-0.38569118"><ele>-35.8</ele><time>2022-10-30T17:20:05.0000000+00:00</time></trkpt><trkpt lat="39.4849419" lon="-0.3856869"><ele>-35.8</ele><time>2022-10-30T17:20:06.0000000+00:00</time></trkpt><trkpt lat="39.48494953" lon="-0.38565631"><ele>-35.8</ele><time>2022-10-30T17:20:07.0000000+00:00</time></trkpt><trkpt lat="39.48494626" lon="-0.38565321"><ele>-35.8</ele><time>2022-10-30T17:20:08.0000000+00:00</time></trkpt><trkpt lat="39.48492019" lon="-0.38566134"><ele>-35.8</ele><time>2022-10-30T17:20:09.0000000+00:00</time></trkpt><trkpt lat="39.48490989" lon="-0.38567727"><ele>-35.8</ele><time>2022-10-30T17:20:10.0000000+00:00</time></trkpt><trkpt lat="39.48490754" lon="-0.38570979"><ele>-35.8</ele><time>2022-10-30T17:20:11.0000000+00:00</time></trkpt><trkpt lat="39.48487644" lon="-0.3857403"><ele>-35.8</ele><time>2022-10-30T17:20:12.0000000+00:00</time></trkpt><trkpt lat="39.48486202" lon="-0.38575295"><ele>-35.8</ele><time>2022-10-30T17:20:13.0000000+00:00</time></trkpt><trkpt lat="39.48484442" lon="-0.38576536"><ele>-35.8</ele><time>2022-10-30T17:20:14.0000000+00:00</time></trkpt><trkpt lat="39.48481936" lon="-0.38577441"><ele>-35.8</ele><time>2022-10-30T17:20:15.0000000+00:00</time></trkpt><trkpt lat="39.48477712" lon="-0.38581389"><ele>-35.8</ele><time>2022-10-30T17:20:16.0000000+00:00</time></trkpt><trkpt lat="39.48475339" lon="-0.38580316"><ele>-35.8</ele><time>2022-10-30T17:20:17.0000000+00:00</time></trkpt><trkpt lat="39.48473948" lon="-0.3858273"><ele>-35.8</ele><time>2022-10-30T17:20:18.0000000+00:00</time></trkpt><trkpt lat="39.48472439" lon="-0.38583937"><ele>-35.8</ele><time>2022-10-30T17:20:19.0000000+00:00</time></trkpt><trkpt lat="39.48471174" lon="-0.385847"><ele>-35.8</ele><time>2022-10-30T17:20:20.0000000+00:00</time></trkpt><trkpt lat="39.48467913" lon="-0.38585102"><ele>-35.8</ele><time>2022-10-30T17:20:21.0000000+00:00</time></trkpt><trkpt lat="39.48461711" lon="-0.38584893"><ele>-35.8</ele><time>2022-10-30T17:20:22.0000000+00:00</time></trkpt><trkpt lat="39.48459095" lon="-0.38585505"><ele>-35.8</ele><time>2022-10-30T17:20:23.0000000+00:00</time></trkpt><trkpt lat="39.48456371" lon="-0.3858563"><ele>-35.8</ele><time>2022-10-30T17:20:24.0000000+00:00</time></trkpt><trkpt lat="39.48454871" lon="-0.38588522"><ele>-35.8</ele><time>2022-10-30T17:20:25.0000000+00:00</time></trkpt><trkpt lat="39.48454209" lon="-0.38589587"><ele>-35.8</ele><time>2022-10-30T17:20:26.0000000+00:00</time></trkpt><trkpt lat="39.48453865" lon="-0.38592076"><ele>-35.8</ele><time>2022-10-30T17:20:27.0000000+00:00</time></trkpt><trkpt lat="39.48456924" lon="-0.38595001"><ele>-35.8</ele><time>2022-10-30T17:20:28.0000000+00:00</time></trkpt><trkpt lat="39.48458458" lon="-0.38594926"><ele>-35.8</ele><time>2022-10-30T17:20:29.0000000+00:00</time></trkpt><trkpt lat="39.48459355" lon="-0.38593308"><ele>-35.8</ele><time>2022-10-30T17:20:30.0000000+00:00</time></trkpt><trkpt lat="39.48459431" lon="-0.38592529"><ele>-35.8</ele><time>2022-10-30T17:20:31.0000000+00:00</time></trkpt><trkpt lat="39.48462356" lon="-0.38591632"><ele>-38.6</ele><time>2022-10-30T17:20:32.0000000+00:00</time></trkpt><trkpt lat="39.48462633" lon="-0.38592286"><ele>-38.6</ele><time>2022-10-30T17:20:33.0000000+00:00</time></trkpt><trkpt lat="39.48462842" lon="-0.38594021"><ele>-38.6</ele><time>2022-10-30T17:20:34.0000000+00:00</time></trkpt><trkpt lat="39.48462892" lon="-0.38595622"><ele>-38.6</ele><time>2022-10-30T17:20:35.0000000+00:00</time></trkpt><trkpt lat="39.48462993" lon="-0.38595144"><ele>-38.6</ele><time>2022-10-30T17:20:36.0000000+00:00</time></trkpt><trkpt lat="39.48463848" lon="-0.38593291"><ele>-38.6</ele><time>2022-10-30T17:20:37.0000000+00:00</time></trkpt><trkpt lat="39.48464971" lon="-0.3859138"><ele>-38.8</ele><time>2022-10-30T17:20:38.0000000+00:00</time></trkpt><trkpt lat="39.48467083" lon="-0.3859014"><ele>-38.8</ele><time>2022-10-30T17:20:39.0000000+00:00</time></trkpt><trkpt lat="39.48470168" lon="-0.38589151"><ele>-38.8</ele><time>2022-10-30T17:20:40.0000000+00:00</time></trkpt><trkpt lat="39.48473814" lon="-0.3858869"><ele>-38.8</ele><time>2022-10-30T17:20:41.0000000+00:00</time></trkpt><trkpt lat="39.48476421" lon="-0.38589721"><ele>-38.8</ele><time>2022-10-30T17:20:42.0000000+00:00</time></trkpt><trkpt lat="39.48480385" lon="-0.385905"><ele>-38.8</ele><time>2022-10-30T17:20:43.0000000+00:00</time></trkpt><trkpt lat="39.48484643" lon="-0.38591908"><ele>-38.8</ele><time>2022-10-30T17:20:44.0000000+00:00</time></trkpt><trkpt lat="39.4848295" lon="-0.38590458"><ele>-38.8</ele><time>2022-10-30T17:20:45.0000000+00:00</time></trkpt><trkpt lat="39.48483814" lon="-0.3858983"><ele>-39.0</ele><time>2022-10-30T17:20:46.0000000+00:00</time></trkpt><trkpt lat="39.4848471" lon="-0.38588757"><ele>-39.0</ele><time>2022-10-30T17:20:47.0000000+00:00</time></trkpt><trkpt lat="39.4848549" lon="-0.38588321"><ele>-39.0</ele><time>2022-10-30T17:20:48.0000000+00:00</time></trkpt><trkpt lat="39.48485641" lon="-0.38587793"><ele>-39.0</ele><time>2022-10-30T17:20:49.0000000+00:00</time></trkpt><trkpt lat="39.48484744" lon="-0.38588698"><ele>-39.0</ele><time>2022-10-30T17:20:50.0000000+00:00</time></trkpt><trkpt lat="39.48484166" lon="-0.38591405"><ele>-39.0</ele><time>2022-10-30T17:20:51.0000000+00:00</time></trkpt><trkpt lat="39.48483705" lon="-0.38594155"><ele>-39.0</ele><time>2022-10-30T17:20:52.0000000+00:00</time></trkpt><trkpt lat="39.48483286" lon="-0.38598036"><ele>-39.0</ele><time>2022-10-30T17:20:53.0000000+00:00</time></trkpt><trkpt lat="39.48482967" lon="-0.38600575"><ele>-39.2</ele><time>2022-10-30T17:20:54.0000000+00:00</time></trkpt><trkpt lat="39.4848254" lon="-0.38602796"><ele>-39.2</ele><time>2022-10-30T17:20:55.0000000+00:00</time></trkpt><trkpt lat="39.4848145" lon="-0.38603526"><ele>-39.2</ele><time>2022-10-30T17:20:56.0000000+00:00</time></trkpt><trkpt lat="39.48481224" lon="-0.38602654"><ele>-39.2</ele><time>2022-10-30T17:20:57.0000000+00:00</time></trkpt><trkpt lat="39.48480385" lon="-0.38602847"><ele>-39.2</ele><time>2022-10-30T17:20:58.0000000+00:00</time></trkpt><trkpt lat="39.48480922" lon="-0.38601531"><ele>-39.2</ele><time>2022-10-30T17:20:59.0000000+00:00</time></trkpt><trkpt lat="39.4848057" lon="-0.38600265"><ele>-39.2</ele><time>2022-10-30T17:21:00.0000000+00:00</time></trkpt><trkpt lat="39.48480972" lon="-0.38598773"><ele>-39.2</ele><time>2022-10-30T17:21:01.0000000+00:00</time></trkpt><trkpt lat="39.48481928" lon="-0.38597122"><ele>-39.2</ele><time>2022-10-30T17:21:02.0000000+00:00</time></trkpt><trkpt lat="39.48482925" lon="-0.38595244"><ele>-39.2</ele><time>2022-10-30T17:21:03.0000000+00:00</time></trkpt><trkpt lat="39.48483948" lon="-0.38593744"><ele>-39.2</ele><time>2022-10-30T17:21:04.0000000+00:00</time></trkpt><trkpt lat="39.48484484" lon="-0.38591221"><ele>-39.2</ele><time>2022-10-30T17:21:05.0000000+00:00</time></trkpt><trkpt lat="39.48484409" lon="-0.38587441"><ele>-39.2</ele><time>2022-10-30T17:21:06.0000000+00:00</time></trkpt><trkpt lat="39.48485389" lon="-0.38584725"><ele>-39.2</ele><time>2022-10-30T17:21:07.0000000+00:00</time></trkpt><trkpt lat="39.4848632" lon="-0.38583786"><ele>-39.4</ele><time>2022-10-30T17:21:08.0000000+00:00</time></trkpt><trkpt lat="39.48488256" lon="-0.38583845"><ele>-39.4</ele><time>2022-10-30T17:21:09.0000000+00:00</time></trkpt><trkpt lat="39.48488499" lon="-0.38583552"><ele>-39.4</ele><time>2022-10-30T17:21:10.0000000+00:00</time></trkpt><trkpt lat="39.48487753" lon="-0.38582571"><ele>-39.4</ele><time>2022-10-30T17:21:11.0000000+00:00</time></trkpt><trkpt lat="39.48486596" lon="-0.38581339"><ele>-39.4</ele><time>2022-10-30T17:21:12.0000000+00:00</time></trkpt><trkpt lat="39.4848813" lon="-0.38576938"><ele>-39.4</ele><time>2022-10-30T17:21:15.0000000+00:00</time></trkpt><trkpt lat="39.48488566" lon="-0.38574843"><ele>-39.6</ele><time>2022-10-30T17:21:16.0000000+00:00</time></trkpt><trkpt lat="39.48491332" lon="-0.38571222"><ele>-39.6</ele><time>2022-10-30T17:21:19.0000000+00:00</time></trkpt><trkpt lat="39.48482699" lon="-0.38537996"><ele>-39.8</ele><time>2022-10-30T17:21:37.0000000+00:00</time></trkpt><trkpt lat="39.48481685" lon="-0.38548951"><ele>-39.8</ele><time>2022-10-30T17:21:38.0000000+00:00</time></trkpt><trkpt lat="39.48482154" lon="-0.38556302"><ele>-39.8</ele><time>2022-10-30T17:21:39.0000000+00:00</time></trkpt><trkpt lat="39.48484442" lon="-0.38563804"><ele>-39.8</ele><time>2022-10-30T17:21:40.0000000+00:00</time></trkpt><trkpt lat="39.4848813" lon="-0.38578757"><ele>-39.8</ele><time>2022-10-30T17:21:48.0000000+00:00</time></trkpt><trkpt lat="39.48486596" lon="-0.38576226"><ele>-39.8</ele><time>2022-10-30T17:21:49.0000000+00:00</time></trkpt><trkpt lat="39.48483604" lon="-0.38578196"><ele>-39.8</ele><time>2022-10-30T17:21:50.0000000+00:00</time></trkpt><trkpt lat="39.48479421" lon="-0.38572236"><ele>-40.0</ele><time>2022-10-30T17:21:51.0000000+00:00</time></trkpt><trkpt lat="39.48476438" lon="-0.38568833"><ele>-40.0</ele><time>2022-10-30T17:21:52.0000000+00:00</time></trkpt><trkpt lat="39.48474711" lon="-0.3856522"><ele>-40.0</ele><time>2022-10-30T17:21:53.0000000+00:00</time></trkpt><trkpt lat="39.4847368" lon="-0.38561918"><ele>-40.0</ele><time>2022-10-30T17:21:54.0000000+00:00</time></trkpt><trkpt lat="39.48473361" lon="-0.38559336"><ele>-40.0</ele><time>2022-10-30T17:21:55.0000000+00:00</time></trkpt><trkpt lat="39.48473403" lon="-0.38558741"><ele>-40.0</ele><time>2022-10-30T17:21:56.0000000+00:00</time></trkpt><trkpt lat="39.48473898" lon="-0.38556411"><ele>-40.0</ele><time>2022-10-30T17:21:57.0000000+00:00</time></trkpt><trkpt lat="39.48473085" lon="-0.3855305"><ele>-40.0</ele><time>2022-10-30T17:21:59.0000000+00:00</time></trkpt><trkpt lat="39.48472565" lon="-0.38553452"><ele>-40.0</ele><time>2022-10-30T17:22:00.0000000+00:00</time></trkpt><trkpt lat="39.48471459" lon="-0.38553502"><ele>-40.0</ele><time>2022-10-30T17:22:01.0000000+00:00</time></trkpt><trkpt lat="39.48471149" lon="-0.38553846"><ele>-39.8</ele><time>2022-10-30T17:22:02.0000000+00:00</time></trkpt><trkpt lat="39.48471224" lon="-0.38552446"><ele>-39.8</ele><time>2022-10-30T17:22:03.0000000+00:00</time></trkpt><trkpt lat="39.48468349" lon="-0.38549177"><ele>-39.6</ele><time>2022-10-30T17:22:06.0000000+00:00</time></trkpt><trkpt lat="39.48467989" lon="-0.38551851"><ele>-39.6</ele><time>2022-10-30T17:22:07.0000000+00:00</time></trkpt><trkpt lat="39.48467293" lon="-0.38551156"><ele>-39.6</ele><time>2022-10-30T17:22:08.0000000+00:00</time></trkpt><trkpt lat="39.48465088" lon="-0.38547761"><ele>-39.6</ele><time>2022-10-30T17:22:10.0000000+00:00</time></trkpt><trkpt lat="39.48466907" lon="-0.38550636"><ele>-39.6</ele><time>2022-10-30T17:22:11.0000000+00:00</time></trkpt><trkpt lat="39.48465407" lon="-0.3854818"><ele>-39.6</ele><time>2022-10-30T17:22:13.0000000+00:00</time></trkpt><trkpt lat="39.48465818" lon="-0.38551013"><ele>-39.6</ele><time>2022-10-30T17:22:15.0000000+00:00</time></trkpt><trkpt lat="39.48468324" lon="-0.38554659"><ele>-39.6</ele><time>2022-10-30T17:22:16.0000000+00:00</time></trkpt><trkpt lat="39.48486923" lon="-0.38527108"><ele>-39.6</ele><time>2022-10-30T17:22:41.0000000+00:00</time></trkpt><trkpt lat="39.48487292" lon="-0.38527812"><ele>-39.6</ele><time>2022-10-30T17:22:42.0000000+00:00</time></trkpt><trkpt lat="39.48487267" lon="-0.3852953"><ele>-39.6</ele><time>2022-10-30T17:22:43.0000000+00:00</time></trkpt><trkpt lat="39.48487552" lon="-0.38530461"><ele>-39.6</ele><time>2022-10-30T17:22:44.0000000+00:00</time></trkpt><trkpt lat="39.48487083" lon="-0.38530268"><ele>-39.6</ele><time>2022-10-30T17:22:45.0000000+00:00</time></trkpt><trkpt lat="39.48488482" lon="-0.38526613"><ele>-39.6</ele><time>2022-10-30T17:22:48.0000000+00:00</time></trkpt><trkpt lat="39.48452977" lon="-0.38566905"><ele>-39.6</ele><time>2022-10-30T17:25:01.0000000+00:00</time></trkpt><trkpt lat="39.4845332" lon="-0.38564483"><ele>-38.8</ele><time>2022-10-30T17:25:02.0000000+00:00</time></trkpt><trkpt lat="39.48453865" lon="-0.38563217"><ele>-38.8</ele><time>2022-10-30T17:25:03.0000000+00:00</time></trkpt><trkpt lat="39.48454804" lon="-0.38561105"><ele>-38.4</ele><time>2022-10-30T17:25:04.0000000+00:00</time></trkpt><trkpt lat="39.48455583" lon="-0.38560057"><ele>-37.8</ele><time>2022-10-30T17:25:05.0000000+00:00</time></trkpt><trkpt lat="39.48455349" lon="-0.38559185"><ele>-37.8</ele><time>2022-10-30T17:25:06.0000000+00:00</time></trkpt><trkpt lat="39.48454963" lon="-0.38557828"><ele>-37.8</ele><time>2022-10-30T17:25:07.0000000+00:00</time></trkpt><trkpt lat="39.48454896" lon="-0.3855657"><ele>-37.8</ele><time>2022-10-30T17:25:08.0000000+00:00</time></trkpt><trkpt lat="39.4845581" lon="-0.38554592"><ele>-37.8</ele><time>2022-10-30T17:25:09.0000000+00:00</time></trkpt><trkpt lat="39.4845679" lon="-0.38551918"><ele>-37.8</ele><time>2022-10-30T17:25:10.0000000+00:00</time></trkpt><trkpt lat="39.48457235" lon="-0.38549747"><ele>-37.6</ele><time>2022-10-30T17:25:11.0000000+00:00</time></trkpt><trkpt lat="39.48456891" lon="-0.38549588"><ele>-37.6</ele><time>2022-10-30T17:25:12.0000000+00:00</time></trkpt><trkpt lat="39.48456698" lon="-0.38548532"><ele>-37.8</ele><time>2022-10-30T17:25:13.0000000+00:00</time></trkpt><trkpt lat="39.48456086" lon="-0.38547694"><ele>-37.8</ele><time>2022-10-30T17:25:14.0000000+00:00</time></trkpt><trkpt lat="39.48456832" lon="-0.38546009"><ele>-37.8</ele><time>2022-10-30T17:25:15.0000000+00:00</time></trkpt><trkpt lat="39.48456933" lon="-0.3854523"><ele>-37.8</ele><time>2022-10-30T17:25:16.0000000+00:00</time></trkpt><trkpt lat="39.48456514" lon="-0.38544701"><ele>-37.8</ele><time>2022-10-30T17:25:17.0000000+00:00</time></trkpt><trkpt lat="39.48454938" lon="-0.38544643"><ele>-37.8</ele><time>2022-10-30T17:25:18.0000000+00:00</time></trkpt><trkpt lat="39.48453153" lon="-0.38545171"><ele>-37.8</ele><time>2022-10-30T17:25:19.0000000+00:00</time></trkpt><trkpt lat="39.48451501" lon="-0.38545204"><ele>-37.8</ele><time>2022-10-30T17:25:20.0000000+00:00</time></trkpt><trkpt lat="39.48450764" lon="-0.3854466"><ele>-37.8</ele><time>2022-10-30T17:25:21.0000000+00:00</time></trkpt><trkpt lat="39.48449599" lon="-0.38544584"><ele>-37.8</ele><time>2022-10-30T17:25:22.0000000+00:00</time></trkpt><trkpt lat="39.48449138" lon="-0.38543922"><ele>-37.8</ele><time>2022-10-30T17:25:23.0000000+00:00</time></trkpt><trkpt lat="39.48447788" lon="-0.38544266"><ele>-37.8</ele><time>2022-10-30T17:25:24.0000000+00:00</time></trkpt><trkpt lat="39.48446682" lon="-0.38542748"><ele>-37.8</ele><time>2022-10-30T17:25:25.0000000+00:00</time></trkpt><trkpt lat="39.48445081" lon="-0.3854222"><ele>-37.8</ele><time>2022-10-30T17:25:26.0000000+00:00</time></trkpt><trkpt lat="39.4844343" lon="-0.38542036"><ele>-37.8</ele><time>2022-10-30T17:25:27.0000000+00:00</time></trkpt><trkpt lat="39.48442424" lon="-0.38541106"><ele>-38.0</ele><time>2022-10-30T17:25:28.0000000+00:00</time></trkpt><trkpt lat="39.48441711" lon="-0.38540142"><ele>-38.0</ele><time>2022-10-30T17:25:29.0000000+00:00</time></trkpt><trkpt lat="39.48441125" lon="-0.38539488"><ele>-38.0</ele><time>2022-10-30T17:25:30.0000000+00:00</time></trkpt><trkpt lat="39.48441334" lon="-0.38537904"><ele>-38.0</ele><time>2022-10-30T17:25:31.0000000+00:00</time></trkpt><trkpt lat="39.48441007" lon="-0.38536445"><ele>-38.2</ele><time>2022-10-30T17:25:32.0000000+00:00</time></trkpt><trkpt lat="39.48440337" lon="-0.38535414"><ele>-38.2</ele><time>2022-10-30T17:25:33.0000000+00:00</time></trkpt><trkpt lat="39.48438929" lon="-0.3853502"><ele>-38.2</ele><time>2022-10-30T17:25:34.0000000+00:00</time></trkpt><trkpt lat="39.48438048" lon="-0.38534543"><ele>-38.2</ele><time>2022-10-30T17:25:35.0000000+00:00</time></trkpt><trkpt lat="39.48435106" lon="-0.38536496"><ele>-38.2</ele><time>2022-10-30T17:25:36.0000000+00:00</time></trkpt><trkpt lat="39.48431519" lon="-0.3853865"><ele>-38.2</ele><time>2022-10-30T17:25:37.0000000+00:00</time></trkpt><trkpt lat="39.48430454" lon="-0.38538591"><ele>-38.0</ele><time>2022-10-30T17:25:38.0000000+00:00</time></trkpt><trkpt lat="39.48430228" lon="-0.38537066"><ele>-38.2</ele><time>2022-10-30T17:25:39.0000000+00:00</time></trkpt><trkpt lat="39.48429449" lon="-0.38536135"><ele>-38.2</ele><time>2022-10-30T17:25:40.0000000+00:00</time></trkpt><trkpt lat="39.48427931" lon="-0.38535683"><ele>-38.2</ele><time>2022-10-30T17:25:41.0000000+00:00</time></trkpt><trkpt lat="39.48426154" lon="-0.38535548"><ele>-38.2</ele><time>2022-10-30T17:25:42.0000000+00:00</time></trkpt><trkpt lat="39.48424654" lon="-0.38535305"><ele>-38.2</ele><time>2022-10-30T17:25:43.0000000+00:00</time></trkpt><trkpt lat="39.48423858" lon="-0.38534098"><ele>-38.2</ele><time>2022-10-30T17:25:44.0000000+00:00</time></trkpt><trkpt lat="39.48423581" lon="-0.38533252"><ele>-38.2</ele><time>2022-10-30T17:25:45.0000000+00:00</time></trkpt><trkpt lat="39.48423548" lon="-0.38531886"><ele>-38.4</ele><time>2022-10-30T17:25:46.0000000+00:00</time></trkpt><trkpt lat="39.4842307" lon="-0.38530687"><ele>-38.4</ele><time>2022-10-30T17:25:47.0000000+00:00</time></trkpt><trkpt lat="39.48421754" lon="-0.38529907"><ele>-38.4</ele><time>2022-10-30T17:25:48.0000000+00:00</time></trkpt><trkpt lat="39.48421025" lon="-0.38528365"><ele>-38.4</ele><time>2022-10-30T17:25:49.0000000+00:00</time></trkpt><trkpt lat="39.48420187" lon="-0.38527158"><ele>-38.4</ele><time>2022-10-30T17:25:50.0000000+00:00</time></trkpt><trkpt lat="39.48419365" lon="-0.38526395"><ele>-38.4</ele><time>2022-10-30T17:25:51.0000000+00:00</time></trkpt><trkpt lat="39.48418058" lon="-0.38525515"><ele>-38.4</ele><time>2022-10-30T17:25:52.0000000+00:00</time></trkpt><trkpt lat="39.48416641" lon="-0.38524912"><ele>-38.4</ele><time>2022-10-30T17:25:53.0000000+00:00</time></trkpt><trkpt lat="39.48415191" lon="-0.38524426"><ele>-38.4</ele><time>2022-10-30T17:25:54.0000000+00:00</time></trkpt><trkpt lat="39.4841385" lon="-0.38523822"><ele>-38.6</ele><time>2022-10-30T17:25:55.0000000+00:00</time></trkpt><trkpt lat="39.48412417" lon="-0.38523294"><ele>-38.6</ele><time>2022-10-30T17:25:56.0000000+00:00</time></trkpt><trkpt lat="39.48409944" lon="-0.38523864"><ele>-38.6</ele><time>2022-10-30T17:25:57.0000000+00:00</time></trkpt><trkpt lat="39.48407513" lon="-0.38524602"><ele>-38.6</ele><time>2022-10-30T17:25:58.0000000+00:00</time></trkpt><trkpt lat="39.48404579" lon="-0.38524375"><ele>-38.6</ele><time>2022-10-30T17:25:59.0000000+00:00</time></trkpt><trkpt lat="39.48403037" lon="-0.38524367"><ele>-38.6</ele><time>2022-10-30T17:26:00.0000000+00:00</time></trkpt><trkpt lat="39.48401218" lon="-0.38525582"><ele>-38.6</ele><time>2022-10-30T17:26:01.0000000+00:00</time></trkpt><trkpt lat="39.48399399" lon="-0.38527736"><ele>-38.6</ele><time>2022-10-30T17:26:02.0000000+00:00</time></trkpt><trkpt lat="39.48398662" lon="-0.38529145"><ele>-38.6</ele><time>2022-10-30T17:26:03.0000000+00:00</time></trkpt><trkpt lat="39.48398058" lon="-0.38530067"><ele>-38.8</ele><time>2022-10-30T17:26:04.0000000+00:00</time></trkpt><trkpt lat="39.48397547" lon="-0.38530008"><ele>-38.8</ele><time>2022-10-30T17:26:05.0000000+00:00</time></trkpt><trkpt lat="39.48397086" lon="-0.3853"><ele>-38.8</ele><time>2022-10-30T17:26:06.0000000+00:00</time></trkpt><trkpt lat="39.48396851" lon="-0.38530318"><ele>-38.8</ele><time>2022-10-30T17:26:07.0000000+00:00</time></trkpt><trkpt lat="39.48396516" lon="-0.38529958"><ele>-38.8</ele><time>2022-10-30T17:26:08.0000000+00:00</time></trkpt><trkpt lat="39.48396483" lon="-0.38529773"><ele>-38.8</ele><time>2022-10-30T17:26:09.0000000+00:00</time></trkpt><trkpt lat="39.48396784" lon="-0.38527971"><ele>-38.8</ele><time>2022-10-30T17:26:10.0000000+00:00</time></trkpt><trkpt lat="39.48396675" lon="-0.38526798"><ele>-38.6</ele><time>2022-10-30T17:26:11.0000000+00:00</time></trkpt><trkpt lat="39.48396868" lon="-0.38524317"><ele>-38.6</ele><time>2022-10-30T17:26:12.0000000+00:00</time></trkpt><trkpt lat="39.48396692" lon="-0.3852176"><ele>-38.6</ele><time>2022-10-30T17:26:13.0000000+00:00</time></trkpt><trkpt lat="39.48396592" lon="-0.38519832"><ele>-38.6</ele><time>2022-10-30T17:26:14.0000000+00:00</time></trkpt><trkpt lat="39.48395837" lon="-0.38518483"><ele>-38.6</ele><time>2022-10-30T17:26:15.0000000+00:00</time></trkpt><trkpt lat="39.48394924" lon="-0.38516781"><ele>-38.8</ele><time>2022-10-30T17:26:16.0000000+00:00</time></trkpt><trkpt lat="39.48393683" lon="-0.38515398"><ele>-38.8</ele><time>2022-10-30T17:26:17.0000000+00:00</time></trkpt><trkpt lat="39.4839261" lon="-0.38514376"><ele>-38.8</ele><time>2022-10-30T17:26:18.0000000+00:00</time></trkpt><trkpt lat="39.48391789" lon="-0.38513068"><ele>-38.8</ele><time>2022-10-30T17:26:19.0000000+00:00</time></trkpt><trkpt lat="39.48391303" lon="-0.38511526"><ele>-38.8</ele><time>2022-10-30T17:26:20.0000000+00:00</time></trkpt><trkpt lat="39.48390699" lon="-0.38510101"><ele>-38.8</ele><time>2022-10-30T17:26:21.0000000+00:00</time></trkpt><trkpt lat="39.48390439" lon="-0.38508953"><ele>-38.8</ele><time>2022-10-30T17:26:22.0000000+00:00</time></trkpt><trkpt lat="39.48390456" lon="-0.38507536"><ele>-38.8</ele><time>2022-10-30T17:26:23.0000000+00:00</time></trkpt><trkpt lat="39.48390674" lon="-0.38506069"><ele>-38.8</ele><time>2022-10-30T17:26:24.0000000+00:00</time></trkpt><trkpt lat="39.4839028" lon="-0.38504871"><ele>-39.0</ele><time>2022-10-30T17:26:25.0000000+00:00</time></trkpt><trkpt lat="39.48389526" lon="-0.38503303"><ele>-39.0</ele><time>2022-10-30T17:26:26.0000000+00:00</time></trkpt><trkpt lat="39.48387899" lon="-0.38501535"><ele>-39.0</ele><time>2022-10-30T17:26:27.0000000+00:00</time></trkpt><trkpt lat="39.48386131" lon="-0.38500303"><ele>-39.2</ele><time>2022-10-30T17:26:28.0000000+00:00</time></trkpt><trkpt lat="39.4838427" lon="-0.38499531"><ele>-39.2</ele><time>2022-10-30T17:26:29.0000000+00:00</time></trkpt><trkpt lat="39.48382015" lon="-0.38499096"><ele>-39.2</ele><time>2022-10-30T17:26:30.0000000+00:00</time></trkpt><trkpt lat="39.48380205" lon="-0.38498291"><ele>-39.2</ele><time>2022-10-30T17:26:31.0000000+00:00</time></trkpt><trkpt lat="39.48378797" lon="-0.38497604"><ele>-39.2</ele><time>2022-10-30T17:26:32.0000000+00:00</time></trkpt><trkpt lat="39.4837785" lon="-0.38497218"><ele>-39.2</ele><time>2022-10-30T17:26:33.0000000+00:00</time></trkpt><trkpt lat="39.48376626" lon="-0.38497394"><ele>-39.4</ele><time>2022-10-30T17:26:34.0000000+00:00</time></trkpt><trkpt lat="39.48375536" lon="-0.38496539"><ele>-39.4</ele><time>2022-10-30T17:26:35.0000000+00:00</time></trkpt><trkpt lat="39.48374748" lon="-0.38495332"><ele>-39.4</ele><time>2022-10-30T17:26:36.0000000+00:00</time></trkpt><trkpt lat="39.48373525" lon="-0.38495366"><ele>-39.4</ele><time>2022-10-30T17:26:37.0000000+00:00</time></trkpt><trkpt lat="39.48372334" lon="-0.38494737"><ele>-39.4</ele><time>2022-10-30T17:26:38.0000000+00:00</time></trkpt><trkpt lat="39.48371219" lon="-0.38495039"><ele>-39.4</ele><time>2022-10-30T17:26:39.0000000+00:00</time></trkpt><trkpt lat="39.48370557" lon="-0.38495734"><ele>-39.6</ele><time>2022-10-30T17:26:40.0000000+00:00</time></trkpt><trkpt lat="39.48370415" lon="-0.38495164"><ele>-39.6</ele><time>2022-10-30T17:26:41.0000000+00:00</time></trkpt><trkpt lat="39.48369434" lon="-0.38495852"><ele>-39.6</ele><time>2022-10-30T17:26:42.0000000+00:00</time></trkpt><trkpt lat="39.48367867" lon="-0.38496665"><ele>-39.6</ele><time>2022-10-30T17:26:43.0000000+00:00</time></trkpt><trkpt lat="39.48364992" lon="-0.38496849"><ele>-39.6</ele><time>2022-10-30T17:26:44.0000000+00:00</time></trkpt><trkpt lat="39.48362645" lon="-0.38496405"><ele>-39.6</ele><time>2022-10-30T17:26:45.0000000+00:00</time></trkpt><trkpt lat="39.48360189" lon="-0.38496137"><ele>-39.8</ele><time>2022-10-30T17:26:46.0000000+00:00</time></trkpt><trkpt lat="39.48358102" lon="-0.38495734"><ele>-39.8</ele><time>2022-10-30T17:26:47.0000000+00:00</time></trkpt><trkpt lat="39.48356601" lon="-0.38494921"><ele>-39.8</ele><time>2022-10-30T17:26:48.0000000+00:00</time></trkpt><trkpt lat="39.48355202" lon="-0.38494578"><ele>-39.8</ele><time>2022-10-30T17:26:49.0000000+00:00</time></trkpt><trkpt lat="39.48352771" lon="-0.38494703"><ele>-40.0</ele><time>2022-10-30T17:26:50.0000000+00:00</time></trkpt><trkpt lat="39.48349997" lon="-0.38495416"><ele>-39.8</ele><time>2022-10-30T17:26:51.0000000+00:00</time></trkpt><trkpt lat="39.48347113" lon="-0.38496472"><ele>-39.8</ele><time>2022-10-30T17:26:52.0000000+00:00</time></trkpt><trkpt lat="39.48344314" lon="-0.3849835"><ele>-39.8</ele><time>2022-10-30T17:26:53.0000000+00:00</time></trkpt><trkpt lat="39.48341673" lon="-0.38500185"><ele>-39.8</ele><time>2022-10-30T17:26:54.0000000+00:00</time></trkpt><trkpt lat="39.4833962" lon="-0.38501945"><ele>-39.8</ele><time>2022-10-30T17:26:55.0000000+00:00</time></trkpt><trkpt lat="39.48337742" lon="-0.3850389"><ele>-40.0</ele><time>2022-10-30T17:26:56.0000000+00:00</time></trkpt><trkpt lat="39.48336359" lon="-0.38506773"><ele>-40.0</ele><time>2022-10-30T17:26:57.0000000+00:00</time></trkpt><trkpt lat="39.48334582" lon="-0.38510067"><ele>-40.0</ele><time>2022-10-30T17:26:58.0000000+00:00</time></trkpt><trkpt lat="39.48333023" lon="-0.38512917"><ele>-40.0</ele><time>2022-10-30T17:26:59.0000000+00:00</time></trkpt><trkpt lat="39.48332487" lon="-0.38515482"><ele>-40.0</ele><time>2022-10-30T17:27:00.0000000+00:00</time></trkpt><trkpt lat="39.48331431" lon="-0.38518097"><ele>-40.0</ele><time>2022-10-30T17:27:01.0000000+00:00</time></trkpt><trkpt lat="39.48329981" lon="-0.38520034"><ele>-40.0</ele><time>2022-10-30T17:27:02.0000000+00:00</time></trkpt><trkpt lat="39.48329126" lon="-0.38523101"><ele>-40.0</ele><time>2022-10-30T17:27:03.0000000+00:00</time></trkpt><trkpt lat="39.48328765" lon="-0.38525834"><ele>-40.0</ele><time>2022-10-30T17:27:04.0000000+00:00</time></trkpt><trkpt lat="39.48327743" lon="-0.38527653"><ele>-40.0</ele><time>2022-10-30T17:27:05.0000000+00:00</time></trkpt><trkpt lat="39.48326334" lon="-0.38529052"><ele>-40.0</ele><time>2022-10-30T17:27:06.0000000+00:00</time></trkpt><trkpt lat="39.48324943" lon="-0.38530528"><ele>-40.0</ele><time>2022-10-30T17:27:07.0000000+00:00</time></trkpt><trkpt lat="39.48323753" lon="-0.38531953"><ele>-40.0</ele><time>2022-10-30T17:27:08.0000000+00:00</time></trkpt><trkpt lat="39.48322613" lon="-0.38533621"><ele>-40.0</ele><time>2022-10-30T17:27:09.0000000+00:00</time></trkpt><trkpt lat="39.48321934" lon="-0.38535842"><ele>-40.2</ele><time>2022-10-30T17:27:10.0000000+00:00</time></trkpt><trkpt lat="39.48321397" lon="-0.38537971"><ele>-40.2</ele><time>2022-10-30T17:27:11.0000000+00:00</time></trkpt><trkpt lat="39.48321004" lon="-0.38539941"><ele>-40.2</ele><time>2022-10-30T17:27:12.0000000+00:00</time></trkpt><trkpt lat="39.48320752" lon="-0.38541718"><ele>-40.2</ele><time>2022-10-30T17:27:13.0000000+00:00</time></trkpt><trkpt lat="39.48320073" lon="-0.38543193"><ele>-40.2</ele><time>2022-10-30T17:27:14.0000000+00:00</time></trkpt><trkpt lat="39.48319612" lon="-0.38545372"><ele>-40.2</ele><time>2022-10-30T17:27:15.0000000+00:00</time></trkpt><trkpt lat="39.48318883" lon="-0.38547593"><ele>-40.2</ele><time>2022-10-30T17:27:16.0000000+00:00</time></trkpt><trkpt lat="39.48317475" lon="-0.38549177"><ele>-40.2</ele><time>2022-10-30T17:27:17.0000000+00:00</time></trkpt><trkpt lat="39.48315899" lon="-0.38550477"><ele>-40.2</ele><time>2022-10-30T17:27:18.0000000+00:00</time></trkpt><trkpt lat="39.48314591" lon="-0.38552471"><ele>-40.2</ele><time>2022-10-30T17:27:19.0000000+00:00</time></trkpt><trkpt lat="39.48313837" lon="-0.38553863"><ele>-40.4</ele><time>2022-10-30T17:27:20.0000000+00:00</time></trkpt><trkpt lat="39.48313284" lon="-0.38555673"><ele>-40.4</ele><time>2022-10-30T17:27:21.0000000+00:00</time></trkpt><trkpt lat="39.48312806" lon="-0.38556797"><ele>-40.4</ele><time>2022-10-30T17:27:22.0000000+00:00</time></trkpt><trkpt lat="39.48312018" lon="-0.38557869"><ele>-40.4</ele><time>2022-10-30T17:27:23.0000000+00:00</time></trkpt><trkpt lat="39.48310954" lon="-0.38559554"><ele>-40.4</ele><time>2022-10-30T17:27:24.0000000+00:00</time></trkpt><trkpt lat="39.48310459" lon="-0.38561566"><ele>-40.4</ele><time>2022-10-30T17:27:25.0000000+00:00</time></trkpt><trkpt lat="39.48310484" lon="-0.38563519"><ele>-40.6</ele><time>2022-10-30T17:27:26.0000000+00:00</time></trkpt><trkpt lat="39.48309755" lon="-0.38564743"><ele>-40.6</ele><time>2022-10-30T17:27:27.0000000+00:00</time></trkpt><trkpt lat="39.48308556" lon="-0.38565522"><ele>-40.4</ele><time>2022-10-30T17:27:28.0000000+00:00</time></trkpt><trkpt lat="39.48308062" lon="-0.3856652"><ele>-40.4</ele><time>2022-10-30T17:27:29.0000000+00:00</time></trkpt><trkpt lat="39.48307031" lon="-0.38567509"><ele>-40.4</ele><time>2022-10-30T17:27:30.0000000+00:00</time></trkpt><trkpt lat="39.48306008" lon="-0.38568213"><ele>-40.6</ele><time>2022-10-30T17:27:31.0000000+00:00</time></trkpt><trkpt lat="39.48304843" lon="-0.38569562"><ele>-40.6</ele><time>2022-10-30T17:27:32.0000000+00:00</time></trkpt><trkpt lat="39.48303427" lon="-0.38571138"><ele>-40.6</ele><time>2022-10-30T17:27:33.0000000+00:00</time></trkpt><trkpt lat="39.48302044" lon="-0.38572873"><ele>-40.6</ele><time>2022-10-30T17:27:34.0000000+00:00</time></trkpt><trkpt lat="39.48301231" lon="-0.3857439"><ele>-40.6</ele><time>2022-10-30T17:27:35.0000000+00:00</time></trkpt><trkpt lat="39.48301013" lon="-0.38576025"><ele>-40.6</ele><time>2022-10-30T17:27:36.0000000+00:00</time></trkpt><trkpt lat="39.48300711" lon="-0.38577148"><ele>-40.6</ele><time>2022-10-30T17:27:37.0000000+00:00</time></trkpt><trkpt lat="39.48300091" lon="-0.38578003"><ele>-40.6</ele><time>2022-10-30T17:27:38.0000000+00:00</time></trkpt><trkpt lat="39.48299135" lon="-0.3857952"><ele>-40.6</ele><time>2022-10-30T17:27:39.0000000+00:00</time></trkpt><trkpt lat="39.48298473" lon="-0.38581456"><ele>-40.6</ele><time>2022-10-30T17:27:40.0000000+00:00</time></trkpt><trkpt lat="39.48298557" lon="-0.38583979"><ele>-40.8</ele><time>2022-10-30T17:27:41.0000000+00:00</time></trkpt><trkpt lat="39.48297903" lon="-0.38586888"><ele>-40.8</ele><time>2022-10-30T17:27:42.0000000+00:00</time></trkpt><trkpt lat="39.48297492" lon="-0.38589075"><ele>-40.8</ele><time>2022-10-30T17:27:43.0000000+00:00</time></trkpt><trkpt lat="39.48296897" lon="-0.38591229"><ele>-40.8</ele><time>2022-10-30T17:27:44.0000000+00:00</time></trkpt><trkpt lat="39.48296009" lon="-0.38593845"><ele>-40.8</ele><time>2022-10-30T17:27:45.0000000+00:00</time></trkpt><trkpt lat="39.48295087" lon="-0.38595999"><ele>-40.6</ele><time>2022-10-30T17:27:46.0000000+00:00</time></trkpt><trkpt lat="39.48294433" lon="-0.38597851"><ele>-40.6</ele><time>2022-10-30T17:27:47.0000000+00:00</time></trkpt><trkpt lat="39.48293838" lon="-0.38599628"><ele>-40.6</ele><time>2022-10-30T17:27:48.0000000+00:00</time></trkpt><trkpt lat="39.48293536" lon="-0.38601573"><ele>-40.6</ele><time>2022-10-30T17:27:49.0000000+00:00</time></trkpt><trkpt lat="39.48293335" lon="-0.38603869"><ele>-40.6</ele><time>2022-10-30T17:27:50.0000000+00:00</time></trkpt><trkpt lat="39.48293335" lon="-0.3860578"><ele>-40.6</ele><time>2022-10-30T17:27:51.0000000+00:00</time></trkpt><trkpt lat="39.4829341" lon="-0.38607817"><ele>-40.8</ele><time>2022-10-30T17:27:52.0000000+00:00</time></trkpt><trkpt lat="39.48293653" lon="-0.38610005"><ele>-40.8</ele><time>2022-10-30T17:27:53.0000000+00:00</time></trkpt><trkpt lat="39.48293486" lon="-0.38612075"><ele>-40.8</ele><time>2022-10-30T17:27:54.0000000+00:00</time></trkpt><trkpt lat="39.48293787" lon="-0.38613802"><ele>-40.8</ele><time>2022-10-30T17:27:55.0000000+00:00</time></trkpt><trkpt lat="39.48293896" lon="-0.38615705"><ele>-40.8</ele><time>2022-10-30T17:27:56.0000000+00:00</time></trkpt><trkpt lat="39.4829424" lon="-0.38617515"><ele>-40.8</ele><time>2022-10-30T17:27:57.0000000+00:00</time></trkpt><trkpt lat="39.48294366" lon="-0.38619066"><ele>-40.8</ele><time>2022-10-30T17:27:58.0000000+00:00</time></trkpt><trkpt lat="39.48294902" lon="-0.38619912"><ele>-40.8</ele><time>2022-10-30T17:27:59.0000000+00:00</time></trkpt><trkpt lat="39.48294709" lon="-0.38621304"><ele>-40.8</ele><time>2022-10-30T17:28:00.0000000+00:00</time></trkpt><trkpt lat="39.48294441" lon="-0.38622955"><ele>-40.8</ele><time>2022-10-30T17:28:01.0000000+00:00</time></trkpt><trkpt lat="39.48293905" lon="-0.38624363"><ele>-40.8</ele><time>2022-10-30T17:28:02.0000000+00:00</time></trkpt><trkpt lat="39.48293528" lon="-0.38625"><ele>-41.0</ele><time>2022-10-30T17:28:03.0000000+00:00</time></trkpt><trkpt lat="39.48293997" lon="-0.38625939"><ele>-41.0</ele><time>2022-10-30T17:28:04.0000000+00:00</time></trkpt><trkpt lat="39.48294575" lon="-0.38626903"><ele>-41.0</ele><time>2022-10-30T17:28:05.0000000+00:00</time></trkpt><trkpt lat="39.48294818" lon="-0.38628286"><ele>-41.0</ele><time>2022-10-30T17:28:06.0000000+00:00</time></trkpt><trkpt lat="39.48294802" lon="-0.38629468"><ele>-41.0</ele><time>2022-10-30T17:28:07.0000000+00:00</time></trkpt><trkpt lat="39.48294651" lon="-0.38630943"><ele>-41.0</ele><time>2022-10-30T17:28:08.0000000+00:00</time></trkpt><trkpt lat="39.48293905" lon="-0.38632703"><ele>-41.0</ele><time>2022-10-30T17:28:09.0000000+00:00</time></trkpt><trkpt lat="39.48292597" lon="-0.38635201"><ele>-41.0</ele><time>2022-10-30T17:28:10.0000000+00:00</time></trkpt><trkpt lat="39.48290066" lon="-0.38638386"><ele>-41.0</ele><time>2022-10-30T17:28:11.0000000+00:00</time></trkpt><trkpt lat="39.48288356" lon="-0.3864106"><ele>-41.0</ele><time>2022-10-30T17:28:12.0000000+00:00</time></trkpt><trkpt lat="39.48287157" lon="-0.38643289"><ele>-41.0</ele><time>2022-10-30T17:28:13.0000000+00:00</time></trkpt><trkpt lat="39.4828595" lon="-0.38644966"><ele>-41.2</ele><time>2022-10-30T17:28:14.0000000+00:00</time></trkpt><trkpt lat="39.48285473" lon="-0.38646332"><ele>-41.2</ele><time>2022-10-30T17:28:15.0000000+00:00</time></trkpt><trkpt lat="39.48285037" lon="-0.38647321"><ele>-41.2</ele><time>2022-10-30T17:28:16.0000000+00:00</time></trkpt><trkpt lat="39.48284173" lon="-0.38647824"><ele>-41.2</ele><time>2022-10-30T17:28:17.0000000+00:00</time></trkpt><trkpt lat="39.48283495" lon="-0.38647698"><ele>-41.2</ele><time>2022-10-30T17:28:18.0000000+00:00</time></trkpt><trkpt lat="39.48282195" lon="-0.38648017"><ele>-41.4</ele><time>2022-10-30T17:28:19.0000000+00:00</time></trkpt><trkpt lat="39.4828098" lon="-0.38649316"><ele>-41.4</ele><time>2022-10-30T17:28:20.0000000+00:00</time></trkpt><trkpt lat="39.48279421" lon="-0.38650372"><ele>-41.4</ele><time>2022-10-30T17:28:21.0000000+00:00</time></trkpt><trkpt lat="39.48278264" lon="-0.38651914"><ele>-41.4</ele><time>2022-10-30T17:28:22.0000000+00:00</time></trkpt><trkpt lat="39.48277233" lon="-0.38653658"><ele>-41.4</ele><time>2022-10-30T17:28:23.0000000+00:00</time></trkpt><trkpt lat="39.48274978" lon="-0.3865655"><ele>-41.4</ele><time>2022-10-30T17:28:24.0000000+00:00</time></trkpt><trkpt lat="39.48273453" lon="-0.38658586"><ele>-41.6</ele><time>2022-10-30T17:28:25.0000000+00:00</time></trkpt><trkpt lat="39.48272171" lon="-0.38659601"><ele>-41.6</ele><time>2022-10-30T17:28:26.0000000+00:00</time></trkpt><trkpt lat="39.48270679" lon="-0.38659098"><ele>-41.6</ele><time>2022-10-30T17:28:27.0000000+00:00</time></trkpt><trkpt lat="39.48269907" lon="-0.38661436"><ele>-41.6</ele><time>2022-10-30T17:28:28.0000000+00:00</time></trkpt><trkpt lat="39.48269916" lon="-0.38663029"><ele>-41.6</ele><time>2022-10-30T17:28:29.0000000+00:00</time></trkpt><trkpt lat="39.48269597" lon="-0.38665216"><ele>-41.6</ele><time>2022-10-30T17:28:30.0000000+00:00</time></trkpt><trkpt lat="39.4826943" lon="-0.3866722"><ele>-41.6</ele><time>2022-10-30T17:28:31.0000000+00:00</time></trkpt><trkpt lat="39.48270586" lon="-0.38670195"><ele>-41.6</ele><time>2022-10-30T17:28:32.0000000+00:00</time></trkpt><trkpt lat="39.48270821" lon="-0.38672735"><ele>-41.6</ele><time>2022-10-30T17:28:33.0000000+00:00</time></trkpt><trkpt lat="39.48271869" lon="-0.3867468"><ele>-41.6</ele><time>2022-10-30T17:28:34.0000000+00:00</time></trkpt><trkpt lat="39.48271416" lon="-0.38676155"><ele>-41.6</ele><time>2022-10-30T17:28:35.0000000+00:00</time></trkpt><trkpt lat="39.48270385" lon="-0.38676641"><ele>-41.6</ele><time>2022-10-30T17:28:36.0000000+00:00</time></trkpt><trkpt lat="39.48268826" lon="-0.3867696"><ele>-41.6</ele><time>2022-10-30T17:28:37.0000000+00:00</time></trkpt><trkpt lat="39.48268382" lon="-0.38677789"><ele>-41.8</ele><time>2022-10-30T17:28:38.0000000+00:00</time></trkpt><trkpt lat="39.48268306" lon="-0.38678058"><ele>-41.8</ele><time>2022-10-30T17:28:39.0000000+00:00</time></trkpt><trkpt lat="39.48267871" lon="-0.38678544"><ele>-42.0</ele><time>2022-10-30T17:28:40.0000000+00:00</time></trkpt><trkpt lat="39.48266672" lon="-0.38678611"><ele>-42.0</ele><time>2022-10-30T17:28:41.0000000+00:00</time></trkpt><trkpt lat="39.48265641" lon="-0.38679021"><ele>-42.0</ele><time>2022-10-30T17:28:42.0000000+00:00</time></trkpt><trkpt lat="39.48263789" lon="-0.38679935"><ele>-42.0</ele><time>2022-10-30T17:28:43.0000000+00:00</time></trkpt><trkpt lat="39.48262431" lon="-0.38681444"><ele>-42.0</ele><time>2022-10-30T17:28:44.0000000+00:00</time></trkpt><trkpt lat="39.48261157" lon="-0.38683154"><ele>-42.0</ele><time>2022-10-30T17:28:45.0000000+00:00</time></trkpt><trkpt lat="39.4825995" lon="-0.38684034"><ele>-42.2</ele><time>2022-10-30T17:28:46.0000000+00:00</time></trkpt><trkpt lat="39.48259271" lon="-0.38685584"><ele>-42.2</ele><time>2022-10-30T17:28:47.0000000+00:00</time></trkpt><trkpt lat="39.48258894" lon="-0.38687169"><ele>-42.2</ele><time>2022-10-30T17:28:48.0000000+00:00</time></trkpt><trkpt lat="39.48259505" lon="-0.38687906"><ele>-42.2</ele><time>2022-10-30T17:28:49.0000000+00:00</time></trkpt><trkpt lat="39.48260528" lon="-0.38688468"><ele>-42.2</ele><time>2022-10-30T17:28:50.0000000+00:00</time></trkpt><trkpt lat="39.48261458" lon="-0.38688853"><ele>-42.2</ele><time>2022-10-30T17:28:51.0000000+00:00</time></trkpt><trkpt lat="39.48262867" lon="-0.3868949"><ele>-42.2</ele><time>2022-10-30T17:28:52.0000000+00:00</time></trkpt><trkpt lat="39.4826399" lon="-0.38689633"><ele>-42.2</ele><time>2022-10-30T17:28:53.0000000+00:00</time></trkpt><trkpt lat="39.48265172" lon="-0.38689499"><ele>-42.2</ele><time>2022-10-30T17:28:54.0000000+00:00</time></trkpt><trkpt lat="39.48266831" lon="-0.38690463"><ele>-42.2</ele><time>2022-10-30T17:28:55.0000000+00:00</time></trkpt><trkpt lat="39.48267946" lon="-0.38692055"><ele>-42.4</ele><time>2022-10-30T17:28:56.0000000+00:00</time></trkpt><trkpt lat="39.4826953" lon="-0.38693556"><ele>-42.4</ele><time>2022-10-30T17:28:57.0000000+00:00</time></trkpt><trkpt lat="39.48270511" lon="-0.38694863"><ele>-42.4</ele><time>2022-10-30T17:28:58.0000000+00:00</time></trkpt><trkpt lat="39.48271433" lon="-0.38695928"><ele>-42.4</ele><time>2022-10-30T17:28:59.0000000+00:00</time></trkpt><trkpt lat="39.48272514" lon="-0.3869695"><ele>-42.4</ele><time>2022-10-30T17:29:00.0000000+00:00</time></trkpt><trkpt lat="39.48273528" lon="-0.38698568"><ele>-42.4</ele><time>2022-10-30T17:29:01.0000000+00:00</time></trkpt><trkpt lat="39.48274987" lon="-0.38700119"><ele>-42.4</ele><time>2022-10-30T17:29:02.0000000+00:00</time></trkpt><trkpt lat="39.48275473" lon="-0.38701619"><ele>-42.2</ele><time>2022-10-30T17:29:03.0000000+00:00</time></trkpt><trkpt lat="39.48276781" lon="-0.38702415"><ele>-42.2</ele><time>2022-10-30T17:29:04.0000000+00:00</time></trkpt><trkpt lat="39.48277669" lon="-0.38703279"><ele>-42.2</ele><time>2022-10-30T17:29:05.0000000+00:00</time></trkpt><trkpt lat="39.48278817" lon="-0.38704293"><ele>-42.2</ele><time>2022-10-30T17:29:06.0000000+00:00</time></trkpt><trkpt lat="39.48279781" lon="-0.38705181"><ele>-42.2</ele><time>2022-10-30T17:29:07.0000000+00:00</time></trkpt><trkpt lat="39.48280863" lon="-0.38706137"><ele>-42.2</ele><time>2022-10-30T17:29:08.0000000+00:00</time></trkpt><trkpt lat="39.48281969" lon="-0.38706866"><ele>-42.2</ele><time>2022-10-30T17:29:09.0000000+00:00</time></trkpt><trkpt lat="39.48283017" lon="-0.38707461"><ele>-42.4</ele><time>2022-10-30T17:29:10.0000000+00:00</time></trkpt><trkpt lat="39.48284073" lon="-0.38708266"><ele>-42.4</ele><time>2022-10-30T17:29:11.0000000+00:00</time></trkpt><trkpt lat="39.48285221" lon="-0.38708685"><ele>-42.4</ele><time>2022-10-30T17:29:12.0000000+00:00</time></trkpt><trkpt lat="39.48286294" lon="-0.38709054"><ele>-42.4</ele><time>2022-10-30T17:29:13.0000000+00:00</time></trkpt><trkpt lat="39.48287342" lon="-0.38709565"><ele>-42.4</ele><time>2022-10-30T17:29:14.0000000+00:00</time></trkpt><trkpt lat="39.4828823" lon="-0.38710294"><ele>-42.4</ele><time>2022-10-30T17:29:15.0000000+00:00</time></trkpt><trkpt lat="39.48289228" lon="-0.38711334"><ele>-42.4</ele><time>2022-10-30T17:29:16.0000000+00:00</time></trkpt><trkpt lat="39.48289907" lon="-0.38712029"><ele>-42.4</ele><time>2022-10-30T17:29:17.0000000+00:00</time></trkpt><trkpt lat="39.48290678" lon="-0.38712842"><ele>-42.2</ele><time>2022-10-30T17:29:18.0000000+00:00</time></trkpt><trkpt lat="39.48291147" lon="-0.38713982"><ele>-42.2</ele><time>2022-10-30T17:29:19.0000000+00:00</time></trkpt><trkpt lat="39.48291499" lon="-0.38714971"><ele>-42.2</ele><time>2022-10-30T17:29:20.0000000+00:00</time></trkpt><trkpt lat="39.4829134" lon="-0.38715986"><ele>-42.2</ele><time>2022-10-30T17:29:21.0000000+00:00</time></trkpt><trkpt lat="39.48290887" lon="-0.3871705"><ele>-42.2</ele><time>2022-10-30T17:29:22.0000000+00:00</time></trkpt><trkpt lat="39.48290393" lon="-0.38718576"><ele>-42.4</ele><time>2022-10-30T17:29:23.0000000+00:00</time></trkpt><trkpt lat="39.48289882" lon="-0.38719498"><ele>-42.4</ele><time>2022-10-30T17:29:24.0000000+00:00</time></trkpt><trkpt lat="39.48289295" lon="-0.38720923"><ele>-42.4</ele><time>2022-10-30T17:29:25.0000000+00:00</time></trkpt><trkpt lat="39.48289278" lon="-0.38721878"><ele>-42.4</ele><time>2022-10-30T17:29:26.0000000+00:00</time></trkpt><trkpt lat="39.48289119" lon="-0.38723446"><ele>-42.4</ele><time>2022-10-30T17:29:27.0000000+00:00</time></trkpt><trkpt lat="39.48289337" lon="-0.38725826"><ele>-42.4</ele><time>2022-10-30T17:29:28.0000000+00:00</time></trkpt><trkpt lat="39.48289672" lon="-0.3872829"><ele>-42.4</ele><time>2022-10-30T17:29:29.0000000+00:00</time></trkpt><trkpt lat="39.48290058" lon="-0.38729774"><ele>-42.4</ele><time>2022-10-30T17:29:30.0000000+00:00</time></trkpt><trkpt lat="39.48290183" lon="-0.38730134"><ele>-42.6</ele><time>2022-10-30T17:29:31.0000000+00:00</time></trkpt><trkpt lat="39.48290711" lon="-0.38729698"><ele>-42.6</ele><time>2022-10-30T17:29:32.0000000+00:00</time></trkpt><trkpt lat="39.48291189" lon="-0.38728802"><ele>-42.6</ele><time>2022-10-30T17:29:33.0000000+00:00</time></trkpt><trkpt lat="39.48291902" lon="-0.38728131"><ele>-42.6</ele><time>2022-10-30T17:29:34.0000000+00:00</time></trkpt><trkpt lat="39.48292295" lon="-0.38727611"><ele>-42.6</ele><time>2022-10-30T17:29:35.0000000+00:00</time></trkpt><trkpt lat="39.48292513" lon="-0.38727494"><ele>-42.6</ele><time>2022-10-30T17:29:36.0000000+00:00</time></trkpt><trkpt lat="39.48293536" lon="-0.38730076"><ele>-42.8</ele><time>2022-10-30T17:29:37.0000000+00:00</time></trkpt><trkpt lat="39.48294391" lon="-0.38733093"><ele>-42.8</ele><time>2022-10-30T17:29:38.0000000+00:00</time></trkpt><trkpt lat="39.48294492" lon="-0.38733244"><ele>-42.8</ele><time>2022-10-30T17:29:39.0000000+00:00</time></trkpt><trkpt lat="39.48294525" lon="-0.38733286"><ele>-42.8</ele><time>2022-10-30T17:29:40.0000000+00:00</time></trkpt><trkpt lat="39.48294559" lon="-0.38733185"><ele>-42.8</ele><time>2022-10-30T17:29:41.0000000+00:00</time></trkpt><trkpt lat="39.48294642" lon="-0.38733118"><ele>-42.8</ele><time>2022-10-30T17:29:42.0000000+00:00</time></trkpt><trkpt lat="39.48294919" lon="-0.38733018"><ele>-42.8</ele><time>2022-10-30T17:29:43.0000000+00:00</time></trkpt><trkpt lat="39.48296185" lon="-0.38733143"><ele>-42.8</ele><time>2022-10-30T17:29:44.0000000+00:00</time></trkpt><trkpt lat="39.4829657" lon="-0.38733043"><ele>-42.8</ele><time>2022-10-30T17:29:45.0000000+00:00</time></trkpt><trkpt lat="39.48296973" lon="-0.38732791"><ele>-42.8</ele><time>2022-10-30T17:29:46.0000000+00:00</time></trkpt><trkpt lat="39.48296981" lon="-0.38732708"><ele>-42.8</ele><time>2022-10-30T17:29:47.0000000+00:00</time></trkpt><trkpt lat="39.48296419" lon="-0.38732808"><ele>-42.8</ele><time>2022-10-30T17:29:48.0000000+00:00</time></trkpt><trkpt lat="39.48295858" lon="-0.38733361"><ele>-42.8</ele><time>2022-10-30T17:29:49.0000000+00:00</time></trkpt><trkpt lat="39.48283947" lon="-0.38743906"><ele>-39.8</ele><time>2022-10-30T17:30:22.0000000+00:00</time></trkpt><trkpt lat="39.48289789" lon="-0.38744769"><ele>-39.6</ele><time>2022-10-30T17:30:23.0000000+00:00</time></trkpt><trkpt lat="39.48290862" lon="-0.38759052"><ele>-39.4</ele><time>2022-10-30T17:30:24.0000000+00:00</time></trkpt><trkpt lat="39.4828927" lon="-0.38756135"><ele>-39.0</ele><time>2022-10-30T17:30:25.0000000+00:00</time></trkpt><trkpt lat="39.48288331" lon="-0.3875875"><ele>-38.8</ele><time>2022-10-30T17:30:26.0000000+00:00</time></trkpt><trkpt lat="39.48290175" lon="-0.38754358"><ele>-38.4</ele><time>2022-10-30T17:30:27.0000000+00:00</time></trkpt><trkpt lat="39.48291332" lon="-0.38752338"><ele>-38.4</ele><time>2022-10-30T17:30:28.0000000+00:00</time></trkpt><trkpt lat="39.48292119" lon="-0.38751341"><ele>-38.4</ele><time>2022-10-30T17:30:29.0000000+00:00</time></trkpt><trkpt lat="39.48292103" lon="-0.38751056"><ele>-38.4</ele><time>2022-10-30T17:30:30.0000000+00:00</time></trkpt><trkpt lat="39.48293528" lon="-0.38750209"><ele>-38.2</ele><time>2022-10-30T17:30:31.0000000+00:00</time></trkpt><trkpt lat="39.48294324" lon="-0.38749061"><ele>-38.0</ele><time>2022-10-30T17:30:32.0000000+00:00</time></trkpt><trkpt lat="39.48295615" lon="-0.3874891"><ele>-37.8</ele><time>2022-10-30T17:30:33.0000000+00:00</time></trkpt><trkpt lat="39.482959" lon="-0.38747845"><ele>-37.6</ele><time>2022-10-30T17:30:34.0000000+00:00</time></trkpt><trkpt lat="39.48295472" lon="-0.38746043"><ele>-37.4</ele><time>2022-10-30T17:30:35.0000000+00:00</time></trkpt><trkpt lat="39.48294961" lon="-0.38744979"><ele>-37.2</ele><time>2022-10-30T17:30:36.0000000+00:00</time></trkpt><trkpt lat="39.48293972" lon="-0.38744886"><ele>-37.0</ele><time>2022-10-30T17:30:37.0000000+00:00</time></trkpt><trkpt lat="39.48292312" lon="-0.38744912"><ele>-36.8</ele><time>2022-10-30T17:30:38.0000000+00:00</time></trkpt><trkpt lat="39.48291809" lon="-0.38743135"><ele>-36.8</ele><time>2022-10-30T17:30:39.0000000+00:00</time></trkpt><trkpt lat="39.4829155" lon="-0.38742187"><ele>-36.6</ele><time>2022-10-30T17:30:40.0000000+00:00</time></trkpt><trkpt lat="39.48291508" lon="-0.38742556"><ele>-36.2</ele><time>2022-10-30T17:30:41.0000000+00:00</time></trkpt><trkpt lat="39.48291281" lon="-0.38742875"><ele>-36.2</ele><time>2022-10-30T17:30:42.0000000+00:00</time></trkpt><trkpt lat="39.48291021" lon="-0.3874254"><ele>-36.0</ele><time>2022-10-30T17:30:43.0000000+00:00</time></trkpt><trkpt lat="39.48290418" lon="-0.38742439"><ele>-36.0</ele><time>2022-10-30T17:30:44.0000000+00:00</time></trkpt><trkpt lat="39.48290183" lon="-0.38743017"><ele>-35.8</ele><time>2022-10-30T17:30:45.0000000+00:00</time></trkpt><trkpt lat="39.48289814" lon="-0.38743235"><ele>-35.8</ele><time>2022-10-30T17:30:46.0000000+00:00</time></trkpt><trkpt lat="39.48289798" lon="-0.38743973"><ele>-35.8</ele><time>2022-10-30T17:30:47.0000000+00:00</time></trkpt><trkpt lat="39.48289571" lon="-0.38744023"><ele>-35.6</ele><time>2022-10-30T17:30:48.0000000+00:00</time></trkpt><trkpt lat="39.4828989" lon="-0.38744727"><ele>-35.2</ele><time>2022-10-30T17:30:49.0000000+00:00</time></trkpt><trkpt lat="39.48290527" lon="-0.38745725"><ele>-35.2</ele><time>2022-10-30T17:30:50.0000000+00:00</time></trkpt><trkpt lat="39.48289689" lon="-0.38745909"><ele>-35.0</ele><time>2022-10-30T17:30:51.0000000+00:00</time></trkpt><trkpt lat="39.48288549" lon="-0.38745666"><ele>-34.6</ele><time>2022-10-30T17:30:52.0000000+00:00</time></trkpt><trkpt lat="39.48287576" lon="-0.38745155"><ele>-34.4</ele><time>2022-10-30T17:30:53.0000000+00:00</time></trkpt><trkpt lat="39.48285967" lon="-0.38744032"><ele>-34.4</ele><time>2022-10-30T17:30:54.0000000+00:00</time></trkpt><trkpt lat="39.48285313" lon="-0.38743763"><ele>-34.4</ele><time>2022-10-30T17:30:55.0000000+00:00</time></trkpt><trkpt lat="39.48284408" lon="-0.38743503"><ele>-34.4</ele><time>2022-10-30T17:30:56.0000000+00:00</time></trkpt><trkpt lat="39.48284291" lon="-0.3874285"><ele>-34.4</ele><time>2022-10-30T17:30:57.0000000+00:00</time></trkpt><trkpt lat="39.48283863" lon="-0.38742674"><ele>-34.2</ele><time>2022-10-30T17:30:58.0000000+00:00</time></trkpt><trkpt lat="39.48284224" lon="-0.3874254"><ele>-34.2</ele><time>2022-10-30T17:30:59.0000000+00:00</time></trkpt><trkpt lat="39.48285028" lon="-0.38742011"><ele>-34.2</ele><time>2022-10-30T17:31:00.0000000+00:00</time></trkpt><trkpt lat="39.48285758" lon="-0.38740419"><ele>-34.2</ele><time>2022-10-30T17:31:01.0000000+00:00</time></trkpt><trkpt lat="39.48285598" lon="-0.38737904"><ele>-34.2</ele><time>2022-10-30T17:31:02.0000000+00:00</time></trkpt><trkpt lat="39.48285481" lon="-0.38736513"><ele>-34.2</ele><time>2022-10-30T17:31:03.0000000+00:00</time></trkpt><trkpt lat="39.48284492" lon="-0.3873342"><ele>-34.2</ele><time>2022-10-30T17:31:04.0000000+00:00</time></trkpt><trkpt lat="39.48283947" lon="-0.38733361"><ele>-34.2</ele><time>2022-10-30T17:31:05.0000000+00:00</time></trkpt><trkpt lat="39.48279312" lon="-0.38727201"><ele>-34.2</ele><time>2022-10-30T17:31:06.0000000+00:00</time></trkpt><trkpt lat="39.4827611" lon="-0.38724921"><ele>-34.2</ele><time>2022-10-30T17:31:07.0000000+00:00</time></trkpt><trkpt lat="39.48272321" lon="-0.38723739"><ele>-34.2</ele><time>2022-10-30T17:31:08.0000000+00:00</time></trkpt><trkpt lat="39.48269337" lon="-0.38723764"><ele>-34.2</ele><time>2022-10-30T17:31:09.0000000+00:00</time></trkpt><trkpt lat="39.48266043" lon="-0.38723747"><ele>-34.2</ele><time>2022-10-30T17:31:10.0000000+00:00</time></trkpt><trkpt lat="39.48263948" lon="-0.38724116"><ele>-34.2</ele><time>2022-10-30T17:31:11.0000000+00:00</time></trkpt><trkpt lat="39.48264836" lon="-0.38728081"><ele>-34.2</ele><time>2022-10-30T17:31:12.0000000+00:00</time></trkpt><trkpt lat="39.48266622" lon="-0.3873026"><ele>-34.2</ele><time>2022-10-30T17:31:13.0000000+00:00</time></trkpt><trkpt lat="39.48269011" lon="-0.3873254"><ele>-34.2</ele><time>2022-10-30T17:31:14.0000000+00:00</time></trkpt><trkpt lat="39.48269111" lon="-0.38733596"><ele>-34.2</ele><time>2022-10-30T17:31:15.0000000+00:00</time></trkpt><trkpt lat="39.4827057" lon="-0.38732967"><ele>-34.2</ele><time>2022-10-30T17:31:16.0000000+00:00</time></trkpt></trkseg><trkseg><trkpt lat="39.48282749" lon="-0.38727561"><ele>11.2</ele><time>2022-10-31T11:24:15.0000000+00:00</time></trkpt><trkpt lat="39.4826223" lon="-0.38727871"><ele>11.2</ele><time>2022-10-31T11:24:16.0000000+00:00</time></trkpt><trkpt lat="39.48268533" lon="-0.38736731"><ele>11.2</ele><time>2022-10-31T11:24:17.0000000+00:00</time></trkpt><trkpt lat="39.48255231" lon="-0.38729933"><ele>11.2</ele><time>2022-10-31T11:24:18.0000000+00:00</time></trkpt><trkpt lat="39.48268918" lon="-0.38735281"><ele>11.2</ele><time>2022-10-31T11:24:19.0000000+00:00</time></trkpt><trkpt lat="39.48278138" lon="-0.38729271"><ele>11.4</ele><time>2022-10-31T11:24:23.0000000+00:00</time></trkpt><trkpt lat="39.48282036" lon="-0.38735474"><ele>11.4</ele><time>2022-10-31T11:24:24.0000000+00:00</time></trkpt><trkpt lat="39.48281843" lon="-0.38737443"><ele>11.4</ele><time>2022-10-31T11:24:25.0000000+00:00</time></trkpt><trkpt lat="39.48280393" lon="-0.38738927"><ele>11.4</ele><time>2022-10-31T11:24:26.0000000+00:00</time></trkpt><trkpt lat="39.48280385" lon="-0.38758373"><ele>11.4</ele><time>2022-10-31T11:24:27.0000000+00:00</time></trkpt><trkpt lat="39.48274836" lon="-0.38757677"><ele>11.4</ele><time>2022-10-31T11:24:28.0000000+00:00</time></trkpt><trkpt lat="39.48270352" lon="-0.38757811"><ele>11.4</ele><time>2022-10-31T11:24:29.0000000+00:00</time></trkpt><trkpt lat="39.48268801" lon="-0.38759345"><ele>11.4</ele><time>2022-10-31T11:24:30.0000000+00:00</time></trkpt><trkpt lat="39.48267259" lon="-0.38762136"><ele>11.4</ele><time>2022-10-31T11:24:31.0000000+00:00</time></trkpt><trkpt lat="39.48266504" lon="-0.38765146"><ele>11.4</ele><time>2022-10-31T11:24:32.0000000+00:00</time></trkpt><trkpt lat="39.48267686" lon="-0.38768364"><ele>11.4</ele><time>2022-10-31T11:24:33.0000000+00:00</time></trkpt><trkpt lat="39.48268365" lon="-0.38771465"><ele>11.4</ele><time>2022-10-31T11:24:34.0000000+00:00</time></trkpt><trkpt lat="39.48271735" lon="-0.38774558"><ele>11.4</ele><time>2022-10-31T11:24:35.0000000+00:00</time></trkpt><trkpt lat="39.4827171" lon="-0.38777224"><ele>11.4</ele><time>2022-10-31T11:24:36.0000000+00:00</time></trkpt><trkpt lat="39.48270863" lon="-0.38778448"><ele>11.4</ele><time>2022-10-31T11:24:37.0000000+00:00</time></trkpt><trkpt lat="39.48269513" lon="-0.38778431"><ele>11.4</ele><time>2022-10-31T11:24:38.0000000+00:00</time></trkpt><trkpt lat="39.48267125" lon="-0.38776981"><ele>11.4</ele><time>2022-10-31T11:24:39.0000000+00:00</time></trkpt><trkpt lat="39.48265834" lon="-0.38776042"><ele>11.4</ele><time>2022-10-31T11:24:40.0000000+00:00</time></trkpt><trkpt lat="39.4826461" lon="-0.38775556"><ele>11.4</ele><time>2022-10-31T11:24:41.0000000+00:00</time></trkpt><trkpt lat="39.48261869" lon="-0.38774927"><ele>11.4</ele><time>2022-10-31T11:24:42.0000000+00:00</time></trkpt><trkpt lat="39.48258827" lon="-0.38774399"><ele>11.4</ele><time>2022-10-31T11:24:43.0000000+00:00</time></trkpt><trkpt lat="39.48255977" lon="-0.38774223"><ele>11.4</ele><time>2022-10-31T11:24:44.0000000+00:00</time></trkpt><trkpt lat="39.48253085" lon="-0.38774114"><ele>11.4</ele><time>2022-10-31T11:24:45.0000000+00:00</time></trkpt><trkpt lat="39.48250151" lon="-0.38775355"><ele>11.2</ele><time>2022-10-31T11:24:46.0000000+00:00</time></trkpt><trkpt lat="39.48248718" lon="-0.38778137"><ele>11.2</ele><time>2022-10-31T11:24:47.0000000+00:00</time></trkpt><trkpt lat="39.48246815" lon="-0.38780954"><ele>11.2</ele><time>2022-10-31T11:24:48.0000000+00:00</time></trkpt><trkpt lat="39.48245365" lon="-0.38784449"><ele>11.2</ele><time>2022-10-31T11:24:49.0000000+00:00</time></trkpt><trkpt lat="39.48244963" lon="-0.38788682"><ele>11.2</ele><time>2022-10-31T11:24:50.0000000+00:00</time></trkpt><trkpt lat="39.48245131" lon="-0.38792278"><ele>11.0</ele><time>2022-10-31T11:24:51.0000000+00:00</time></trkpt><trkpt lat="39.48246019" lon="-0.38794625"><ele>11.0</ele><time>2022-10-31T11:24:52.0000000+00:00</time></trkpt><trkpt lat="39.48245524" lon="-0.3879579"><ele>11.0</ele><time>2022-10-31T11:24:53.0000000+00:00</time></trkpt><trkpt lat="39.48243555" lon="-0.38797047"><ele>11.0</ele><time>2022-10-31T11:24:54.0000000+00:00</time></trkpt><trkpt lat="39.48240948" lon="-0.38797391"><ele>11.0</ele><time>2022-10-31T11:24:55.0000000+00:00</time></trkpt><trkpt lat="39.48238157" lon="-0.3879703"><ele>10.8</ele><time>2022-10-31T11:24:56.0000000+00:00</time></trkpt><trkpt lat="39.48235332" lon="-0.38795178"><ele>10.8</ele><time>2022-10-31T11:24:57.0000000+00:00</time></trkpt><trkpt lat="39.48233731" lon="-0.38793879"><ele>10.8</ele><time>2022-10-31T11:24:58.0000000+00:00</time></trkpt><trkpt lat="39.48232004" lon="-0.38793376"><ele>10.8</ele><time>2022-10-31T11:24:59.0000000+00:00</time></trkpt><trkpt lat="39.48230999" lon="-0.38793258"><ele>10.8</ele><time>2022-10-31T11:25:00.0000000+00:00</time></trkpt><trkpt lat="39.48229649" lon="-0.38793284"><ele>11.0</ele><time>2022-10-31T11:25:01.0000000+00:00</time></trkpt><trkpt lat="39.48227864" lon="-0.38793267"><ele>11.0</ele><time>2022-10-31T11:25:02.0000000+00:00</time></trkpt><trkpt lat="39.48223664" lon="-0.38792554"><ele>11.0</ele><time>2022-10-31T11:25:03.0000000+00:00</time></trkpt><trkpt lat="39.48221988" lon="-0.38791616"><ele>11.0</ele><time>2022-10-31T11:25:04.0000000+00:00</time></trkpt><trkpt lat="39.48221955" lon="-0.38790157"><ele>11.0</ele><time>2022-10-31T11:25:05.0000000+00:00</time></trkpt><trkpt lat="39.48222575" lon="-0.38787634"><ele>11.0</ele><time>2022-10-31T11:25:06.0000000+00:00</time></trkpt><trkpt lat="39.48224" lon="-0.38783904"><ele>11.0</ele><time>2022-10-31T11:25:07.0000000+00:00</time></trkpt><trkpt lat="39.48226288" lon="-0.38779847"><ele>11.0</ele><time>2022-10-31T11:25:08.0000000+00:00</time></trkpt><trkpt lat="39.48227461" lon="-0.38777115"><ele>11.0</ele><time>2022-10-31T11:25:09.0000000+00:00</time></trkpt><trkpt lat="39.48229565" lon="-0.38772471"><ele>11.2</ele><time>2022-10-31T11:25:10.0000000+00:00</time></trkpt><trkpt lat="39.48231225" lon="-0.38768423"><ele>11.2</ele><time>2022-10-31T11:25:11.0000000+00:00</time></trkpt><trkpt lat="39.48233153" lon="-0.38764601"><ele>11.2</ele><time>2022-10-31T11:25:12.0000000+00:00</time></trkpt><trkpt lat="39.48235064" lon="-0.38760628"><ele>11.2</ele><time>2022-10-31T11:25:13.0000000+00:00</time></trkpt><trkpt lat="39.48236665" lon="-0.38756395"><ele>11.4</ele><time>2022-10-31T11:25:14.0000000+00:00</time></trkpt><trkpt lat="39.48238324" lon="-0.38752128"><ele>11.4</ele><time>2022-10-31T11:25:15.0000000+00:00</time></trkpt><trkpt lat="39.48240269" lon="-0.38746202"><ele>11.6</ele><time>2022-10-31T11:25:16.0000000+00:00</time></trkpt><trkpt lat="39.48241694" lon="-0.38740662"><ele>11.6</ele><time>2022-10-31T11:25:17.0000000+00:00</time></trkpt><trkpt lat="39.48244234" lon="-0.38736144"><ele>11.6</ele><time>2022-10-31T11:25:18.0000000+00:00</time></trkpt><trkpt lat="39.48247176" lon="-0.38732934"><ele>11.6</ele><time>2022-10-31T11:25:19.0000000+00:00</time></trkpt><trkpt lat="39.48251484" lon="-0.38729154"><ele>11.6</ele><time>2022-10-31T11:25:20.0000000+00:00</time></trkpt><trkpt lat="39.48254183" lon="-0.3872643"><ele>11.8</ele><time>2022-10-31T11:25:21.0000000+00:00</time></trkpt><trkpt lat="39.48257075" lon="-0.38721769"><ele>11.6</ele><time>2022-10-31T11:25:22.0000000+00:00</time></trkpt><trkpt lat="39.48260319" lon="-0.38716455"><ele>11.8</ele><time>2022-10-31T11:25:23.0000000+00:00</time></trkpt><trkpt lat="39.48263018" lon="-0.38713806"><ele>11.8</ele><time>2022-10-31T11:25:24.0000000+00:00</time></trkpt><trkpt lat="39.48265147" lon="-0.38709339"><ele>11.8</ele><time>2022-10-31T11:25:25.0000000+00:00</time></trkpt><trkpt lat="39.48266052" lon="-0.38704712"><ele>11.8</ele><time>2022-10-31T11:25:26.0000000+00:00</time></trkpt><trkpt lat="39.48266982" lon="-0.38700228"><ele>11.8</ele><time>2022-10-31T11:25:27.0000000+00:00</time></trkpt><trkpt lat="39.48269195" lon="-0.38695668"><ele>11.8</ele><time>2022-10-31T11:25:28.0000000+00:00</time></trkpt><trkpt lat="39.48271383" lon="-0.38688225"><ele>11.8</ele><time>2022-10-31T11:25:29.0000000+00:00</time></trkpt><trkpt lat="39.48273663" lon="-0.38682022"><ele>12.0</ele><time>2022-10-31T11:25:30.0000000+00:00</time></trkpt><trkpt lat="39.48276764" lon="-0.3867473"><ele>12.0</ele><time>2022-10-31T11:25:31.0000000+00:00</time></trkpt><trkpt lat="39.48279094" lon="-0.3866898"><ele>12.0</ele><time>2022-10-31T11:25:32.0000000+00:00</time></trkpt><trkpt lat="39.48280385" lon="-0.38664077"><ele>12.2</ele><time>2022-10-31T11:25:33.0000000+00:00</time></trkpt><trkpt lat="39.48281667" lon="-0.38660129"><ele>12.2</ele><time>2022-10-31T11:25:34.0000000+00:00</time></trkpt><trkpt lat="39.4828388" lon="-0.38655401"><ele>12.2</ele><time>2022-10-31T11:25:35.0000000+00:00</time></trkpt><trkpt lat="39.48285624" lon="-0.38650615"><ele>12.2</ele><time>2022-10-31T11:25:36.0000000+00:00</time></trkpt><trkpt lat="39.48286763" lon="-0.38646575"><ele>12.2</ele><time>2022-10-31T11:25:37.0000000+00:00</time></trkpt><trkpt lat="39.48288834" lon="-0.38641739"><ele>12.2</ele><time>2022-10-31T11:25:38.0000000+00:00</time></trkpt><trkpt lat="39.48291449" lon="-0.38635352"><ele>12.4</ele><time>2022-10-31T11:25:39.0000000+00:00</time></trkpt><trkpt lat="39.48293385" lon="-0.38630297"><ele>12.6</ele><time>2022-10-31T11:25:40.0000000+00:00</time></trkpt><trkpt lat="39.48295631" lon="-0.38625394"><ele>12.6</ele><time>2022-10-31T11:25:41.0000000+00:00</time></trkpt><trkpt lat="39.48298104" lon="-0.38620499"><ele>12.6</ele><time>2022-10-31T11:25:42.0000000+00:00</time></trkpt><trkpt lat="39.48299638" lon="-0.38616534"><ele>12.6</ele><time>2022-10-31T11:25:43.0000000+00:00</time></trkpt><trkpt lat="39.48302387" lon="-0.38612"><ele>12.6</ele><time>2022-10-31T11:25:44.0000000+00:00</time></trkpt><trkpt lat="39.48304575" lon="-0.38605688"><ele>12.6</ele><time>2022-10-31T11:25:45.0000000+00:00</time></trkpt><trkpt lat="39.48306645" lon="-0.38600584"><ele>12.6</ele><time>2022-10-31T11:25:46.0000000+00:00</time></trkpt><trkpt lat="39.48307559" lon="-0.38594901"><ele>12.6</ele><time>2022-10-31T11:25:47.0000000+00:00</time></trkpt><trkpt lat="39.48307836" lon="-0.38590567"><ele>12.6</ele><time>2022-10-31T11:25:48.0000000+00:00</time></trkpt><trkpt lat="39.48308825" lon="-0.38584809"><ele>12.6</ele><time>2022-10-31T11:25:49.0000000+00:00</time></trkpt><trkpt lat="39.48313586" lon="-0.38580291"><ele>12.6</ele><time>2022-10-31T11:25:50.0000000+00:00</time></trkpt><trkpt lat="39.48316276" lon="-0.38575756"><ele>12.6</ele><time>2022-10-31T11:25:51.0000000+00:00</time></trkpt><trkpt lat="39.48318916" lon="-0.38570937"><ele>12.6</ele><time>2022-10-31T11:25:52.0000000+00:00</time></trkpt><trkpt lat="39.48322026" lon="-0.38564106"><ele>12.6</ele><time>2022-10-31T11:25:53.0000000+00:00</time></trkpt><trkpt lat="39.48325236" lon="-0.38559236"><ele>12.4</ele><time>2022-10-31T11:25:54.0000000+00:00</time></trkpt><trkpt lat="39.48328606" lon="-0.38555305"><ele>12.4</ele><time>2022-10-31T11:25:55.0000000+00:00</time></trkpt><trkpt lat="39.48331791" lon="-0.38549731"><ele>12.4</ele><time>2022-10-31T11:25:56.0000000+00:00</time></trkpt><trkpt lat="39.4833501" lon="-0.38545347"><ele>12.2</ele><time>2022-10-31T11:25:57.0000000+00:00</time></trkpt><trkpt lat="39.48338614" lon="-0.38541441"><ele>12.2</ele><time>2022-10-31T11:25:58.0000000+00:00</time></trkpt><trkpt lat="39.4834102" lon="-0.38537459"><ele>12.2</ele><time>2022-10-31T11:25:59.0000000+00:00</time></trkpt><trkpt lat="39.48341413" lon="-0.38535046"><ele>12.2</ele><time>2022-10-31T11:26:00.0000000+00:00</time></trkpt><trkpt lat="39.48341355" lon="-0.38533461"><ele>12.2</ele><time>2022-10-31T11:26:01.0000000+00:00</time></trkpt><trkpt lat="39.48340366" lon="-0.38526706"><ele>12.2</ele><time>2022-10-31T11:26:02.0000000+00:00</time></trkpt><trkpt lat="39.48340617" lon="-0.38526353"><ele>12.2</ele><time>2022-10-31T11:26:03.0000000+00:00</time></trkpt><trkpt lat="39.48340894" lon="-0.38526429"><ele>12.2</ele><time>2022-10-31T11:26:04.0000000+00:00</time></trkpt><trkpt lat="39.48341145" lon="-0.38526504"><ele>12.2</ele><time>2022-10-31T11:26:05.0000000+00:00</time></trkpt><trkpt lat="39.48341338" lon="-0.38526387"><ele>12.2</ele><time>2022-10-31T11:26:06.0000000+00:00</time></trkpt><trkpt lat="39.48341413" lon="-0.3852632"><ele>12.2</ele><time>2022-10-31T11:26:07.0000000+00:00</time></trkpt><trkpt lat="39.48341304" lon="-0.38526328"><ele>12.2</ele><time>2022-10-31T11:26:08.0000000+00:00</time></trkpt><trkpt lat="39.48341313" lon="-0.38526219"><ele>12.2</ele><time>2022-10-31T11:26:09.0000000+00:00</time></trkpt><trkpt lat="39.48341388" lon="-0.38525934"><ele>12.2</ele><time>2022-10-31T11:26:10.0000000+00:00</time></trkpt><trkpt lat="39.48341212" lon="-0.385258"><ele>12.2</ele><time>2022-10-31T11:26:11.0000000+00:00</time></trkpt><trkpt lat="39.4834112" lon="-0.385258"><ele>12.2</ele><time>2022-10-31T11:26:12.0000000+00:00</time></trkpt><trkpt lat="39.4834107" lon="-0.38525884"><ele>12.2</ele><time>2022-10-31T11:26:13.0000000+00:00</time></trkpt><trkpt lat="39.48341045" lon="-0.38525884"><ele>12.2</ele><time>2022-10-31T11:26:14.0000000+00:00</time></trkpt><trkpt lat="39.48340743" lon="-0.38524577"><ele>12.2</ele><time>2022-10-31T11:26:15.0000000+00:00</time></trkpt><trkpt lat="39.48340114" lon="-0.38523495"><ele>12.2</ele><time>2022-10-31T11:26:16.0000000+00:00</time></trkpt><trkpt lat="39.48338714" lon="-0.38522439"><ele>12.2</ele><time>2022-10-31T11:26:17.0000000+00:00</time></trkpt><trkpt lat="39.48336359" lon="-0.38521534"><ele>12.2</ele><time>2022-10-31T11:26:18.0000000+00:00</time></trkpt><trkpt lat="39.48334792" lon="-0.38521132"><ele>12.2</ele><time>2022-10-31T11:26:19.0000000+00:00</time></trkpt><trkpt lat="39.48332143" lon="-0.38520075"><ele>12.2</ele><time>2022-10-31T11:26:20.0000000+00:00</time></trkpt><trkpt lat="39.48329721" lon="-0.3851881"><ele>12.2</ele><time>2022-10-31T11:26:21.0000000+00:00</time></trkpt><trkpt lat="39.48327047" lon="-0.38516446"><ele>12.0</ele><time>2022-10-31T11:26:22.0000000+00:00</time></trkpt><trkpt lat="39.48324264" lon="-0.38514133"><ele>12.0</ele><time>2022-10-31T11:26:23.0000000+00:00</time></trkpt><trkpt lat="39.48322102" lon="-0.38512523"><ele>12.0</ele><time>2022-10-31T11:26:24.0000000+00:00</time></trkpt><trkpt lat="39.48318045" lon="-0.38511274"><ele>12.0</ele><time>2022-10-31T11:26:25.0000000+00:00</time></trkpt><trkpt lat="39.4831284" lon="-0.38509665"><ele>12.0</ele><time>2022-10-31T11:26:26.0000000+00:00</time></trkpt><trkpt lat="39.48310409" lon="-0.38508089"><ele>12.0</ele><time>2022-10-31T11:26:27.0000000+00:00</time></trkpt><trkpt lat="39.48306779" lon="-0.38505759"><ele>12.0</ele><time>2022-10-31T11:26:28.0000000+00:00</time></trkpt><trkpt lat="39.48299998" lon="-0.38502448"><ele>12.0</ele><time>2022-10-31T11:26:29.0000000+00:00</time></trkpt><trkpt lat="39.48295481" lon="-0.38497444"><ele>12.0</ele><time>2022-10-31T11:26:30.0000000+00:00</time></trkpt><trkpt lat="39.48291441" lon="-0.38494662"><ele>12.0</ele><time>2022-10-31T11:26:31.0000000+00:00</time></trkpt><trkpt lat="39.48288096" lon="-0.38492004"><ele>12.0</ele><time>2022-10-31T11:26:32.0000000+00:00</time></trkpt><trkpt lat="39.48284794" lon="-0.38488928"><ele>12.0</ele><time>2022-10-31T11:26:33.0000000+00:00</time></trkpt><trkpt lat="39.4828305" lon="-0.38487537"><ele>12.0</ele><time>2022-10-31T11:26:34.0000000+00:00</time></trkpt><trkpt lat="39.48280326" lon="-0.38485416"><ele>12.0</ele><time>2022-10-31T11:26:35.0000000+00:00</time></trkpt><trkpt lat="39.48276923" lon="-0.38482323"><ele>12.0</ele><time>2022-10-31T11:26:36.0000000+00:00</time></trkpt><trkpt lat="39.48273093" lon="-0.38479733"><ele>12.0</ele><time>2022-10-31T11:26:37.0000000+00:00</time></trkpt><trkpt lat="39.48268474" lon="-0.38477504"><ele>11.8</ele><time>2022-10-31T11:26:38.0000000+00:00</time></trkpt><trkpt lat="39.48264401" lon="-0.38475425"><ele>11.8</ele><time>2022-10-31T11:26:39.0000000+00:00</time></trkpt><trkpt lat="39.48260612" lon="-0.38473564"><ele>11.8</ele><time>2022-10-31T11:26:40.0000000+00:00</time></trkpt><trkpt lat="39.48257544" lon="-0.38471544"><ele>11.6</ele><time>2022-10-31T11:26:41.0000000+00:00</time></trkpt><trkpt lat="39.48253756" lon="-0.38469072"><ele>11.6</ele><time>2022-10-31T11:26:42.0000000+00:00</time></trkpt><trkpt lat="39.48249129" lon="-0.38466456"><ele>11.6</ele><time>2022-10-31T11:26:43.0000000+00:00</time></trkpt><trkpt lat="39.48245508" lon="-0.38464738"><ele>11.6</ele><time>2022-10-31T11:26:44.0000000+00:00</time></trkpt><trkpt lat="39.48243152" lon="-0.3846421"><ele>11.6</ele><time>2022-10-31T11:26:45.0000000+00:00</time></trkpt><trkpt lat="39.48241233" lon="-0.38463866"><ele>11.6</ele><time>2022-10-31T11:26:46.0000000+00:00</time></trkpt><trkpt lat="39.48238081" lon="-0.38462115"><ele>11.6</ele><time>2022-10-31T11:26:47.0000000+00:00</time></trkpt><trkpt lat="39.48232918" lon="-0.38458569"><ele>11.6</ele><time>2022-10-31T11:26:48.0000000+00:00</time></trkpt><trkpt lat="39.4822861" lon="-0.38455258"><ele>11.8</ele><time>2022-10-31T11:26:49.0000000+00:00</time></trkpt><trkpt lat="39.48224268" lon="-0.38451897"><ele>11.8</ele><time>2022-10-31T11:26:50.0000000+00:00</time></trkpt><trkpt lat="39.48220521" lon="-0.3844629"><ele>12.0</ele><time>2022-10-31T11:26:51.0000000+00:00</time></trkpt><trkpt lat="39.48216129" lon="-0.38441897"><ele>12.2</ele><time>2022-10-31T11:26:52.0000000+00:00</time></trkpt><trkpt lat="39.48212382" lon="-0.38438377"><ele>12.2</ele><time>2022-10-31T11:26:53.0000000+00:00</time></trkpt><trkpt lat="39.48207923" lon="-0.38435879"><ele>12.2</ele><time>2022-10-31T11:26:54.0000000+00:00</time></trkpt><trkpt lat="39.48202995" lon="-0.38434236"><ele>12.2</ele><time>2022-10-31T11:26:55.0000000+00:00</time></trkpt><trkpt lat="39.481982" lon="-0.38433381"><ele>11.8</ele><time>2022-10-31T11:26:56.0000000+00:00</time></trkpt><trkpt lat="39.48193196" lon="-0.38433516"><ele>11.8</ele><time>2022-10-31T11:26:57.0000000+00:00</time></trkpt><trkpt lat="39.481896" lon="-0.38434111"><ele>11.6</ele><time>2022-10-31T11:26:58.0000000+00:00</time></trkpt><trkpt lat="39.48188586" lon="-0.3843712"><ele>11.6</ele><time>2022-10-31T11:26:59.0000000+00:00</time></trkpt><trkpt lat="39.48188729" lon="-0.38438343"><ele>11.6</ele><time>2022-10-31T11:27:00.0000000+00:00</time></trkpt><trkpt lat="39.48188729" lon="-0.38438343"><ele>11.6</ele><time>2022-10-31T11:27:01.0000000+00:00</time></trkpt><trkpt lat="39.48188729" lon="-0.38438343"><ele>11.6</ele><time>2022-10-31T11:27:02.0000000+00:00</time></trkpt><trkpt lat="39.48188729" lon="-0.38438343"><ele>11.6</ele><time>2022-10-31T11:27:03.0000000+00:00</time></trkpt><trkpt lat="39.48188729" lon="-0.38438343"><ele>11.6</ele><time>2022-10-31T11:27:04.0000000+00:00</time></trkpt><trkpt lat="39.48188729" lon="-0.38438343"><ele>11.6</ele><time>2022-10-31T11:27:05.0000000+00:00</time></trkpt><trkpt lat="39.48188729" lon="-0.38438343"><ele>11.6</ele><time>2022-10-31T11:27:06.0000000+00:00</time></trkpt><trkpt lat="39.48188729" lon="-0.38438343"><ele>11.6</ele><time>2022-10-31T11:27:07.0000000+00:00</time></trkpt><trkpt lat="39.48188762" lon="-0.3843795"><ele>11.6</ele><time>2022-10-31T11:27:08.0000000+00:00</time></trkpt><trkpt lat="39.4818888" lon="-0.38438109"><ele>11.4</ele><time>2022-10-31T11:27:09.0000000+00:00</time></trkpt><trkpt lat="39.48188142" lon="-0.38437061"><ele>11.2</ele><time>2022-10-31T11:27:10.0000000+00:00</time></trkpt><trkpt lat="39.48188301" lon="-0.38437229"><ele>11.2</ele><time>2022-10-31T11:27:11.0000000+00:00</time></trkpt><trkpt lat="39.48188301" lon="-0.38437229"><ele>11.0</ele><time>2022-10-31T11:27:12.0000000+00:00</time></trkpt><trkpt lat="39.48188301" lon="-0.38437229"><ele>11.0</ele><time>2022-10-31T11:27:13.0000000+00:00</time></trkpt><trkpt lat="39.48188209" lon="-0.38436382"><ele>11.0</ele><time>2022-10-31T11:27:14.0000000+00:00</time></trkpt><trkpt lat="39.48187731" lon="-0.38434505"><ele>11.0</ele><time>2022-10-31T11:27:15.0000000+00:00</time></trkpt><trkpt lat="39.48187547" lon="-0.38434262"><ele>11.0</ele><time>2022-10-31T11:27:16.0000000+00:00</time></trkpt><trkpt lat="39.48187547" lon="-0.38434262"><ele>11.0</ele><time>2022-10-31T11:27:17.0000000+00:00</time></trkpt><trkpt lat="39.48187547" lon="-0.38434262"><ele>11.0</ele><time>2022-10-31T11:27:18.0000000+00:00</time></trkpt><trkpt lat="39.48187547" lon="-0.38434262"><ele>10.8</ele><time>2022-10-31T11:27:19.0000000+00:00</time></trkpt><trkpt lat="39.48187195" lon="-0.38433448"><ele>10.8</ele><time>2022-10-31T11:27:20.0000000+00:00</time></trkpt><trkpt lat="39.48186122" lon="-0.38431839"><ele>10.8</ele><time>2022-10-31T11:27:21.0000000+00:00</time></trkpt><trkpt lat="39.48184613" lon="-0.38427237"><ele>10.8</ele><time>2022-10-31T11:27:22.0000000+00:00</time></trkpt><trkpt lat="39.48186784" lon="-0.38426802"><ele>11.0</ele><time>2022-10-31T11:27:23.0000000+00:00</time></trkpt><trkpt lat="39.48186784" lon="-0.3842515"><ele>11.0</ele><time>2022-10-31T11:27:24.0000000+00:00</time></trkpt><trkpt lat="39.48186667" lon="-0.38423977"><ele>11.0</ele><time>2022-10-31T11:27:25.0000000+00:00</time></trkpt><trkpt lat="39.48186667" lon="-0.38423977"><ele>11.0</ele><time>2022-10-31T11:27:26.0000000+00:00</time></trkpt><trkpt lat="39.48186667" lon="-0.38423977"><ele>11.0</ele><time>2022-10-31T11:27:27.0000000+00:00</time></trkpt><trkpt lat="39.48186667" lon="-0.38423977"><ele>11.2</ele><time>2022-10-31T11:27:28.0000000+00:00</time></trkpt><trkpt lat="39.48186667" lon="-0.38423977"><ele>11.2</ele><time>2022-10-31T11:27:29.0000000+00:00</time></trkpt><trkpt lat="39.48186667" lon="-0.38423977"><ele>11.2</ele><time>2022-10-31T11:27:30.0000000+00:00</time></trkpt><trkpt lat="39.48186667" lon="-0.38423977"><ele>11.2</ele><time>2022-10-31T11:27:31.0000000+00:00</time></trkpt><trkpt lat="39.48184848" lon="-0.38423189"><ele>11.4</ele><time>2022-10-31T11:27:32.0000000+00:00</time></trkpt><trkpt lat="39.4818256" lon="-0.38422057"><ele>11.4</ele><time>2022-10-31T11:27:33.0000000+00:00</time></trkpt><trkpt lat="39.48180297" lon="-0.38421764"><ele>11.4</ele><time>2022-10-31T11:27:34.0000000+00:00</time></trkpt><trkpt lat="39.48177715" lon="-0.38421596"><ele>11.6</ele><time>2022-10-31T11:27:35.0000000+00:00</time></trkpt><trkpt lat="39.48174915" lon="-0.38421487"><ele>11.6</ele><time>2022-10-31T11:27:36.0000000+00:00</time></trkpt><trkpt lat="39.48172183" lon="-0.3842189"><ele>11.8</ele><time>2022-10-31T11:27:37.0000000+00:00</time></trkpt><trkpt lat="39.48169626" lon="-0.38422066"><ele>11.8</ele><time>2022-10-31T11:27:38.0000000+00:00</time></trkpt><trkpt lat="39.48166994" lon="-0.38421362"><ele>11.8</ele><time>2022-10-31T11:27:39.0000000+00:00</time></trkpt><trkpt lat="39.4816479" lon="-0.38420976"><ele>11.6</ele><time>2022-10-31T11:27:40.0000000+00:00</time></trkpt><trkpt lat="39.48162669" lon="-0.38420691"><ele>11.6</ele><time>2022-10-31T11:27:41.0000000+00:00</time></trkpt><trkpt lat="39.48160607" lon="-0.38420121"><ele>11.6</ele><time>2022-10-31T11:27:42.0000000+00:00</time></trkpt><trkpt lat="39.48158026" lon="-0.38420205"><ele>11.6</ele><time>2022-10-31T11:27:43.0000000+00:00</time></trkpt><trkpt lat="39.48156274" lon="-0.38421429"><ele>11.6</ele><time>2022-10-31T11:27:44.0000000+00:00</time></trkpt><trkpt lat="39.48154849" lon="-0.38423818"><ele>11.4</ele><time>2022-10-31T11:27:45.0000000+00:00</time></trkpt><trkpt lat="39.48152795" lon="-0.38425888"><ele>11.4</ele><time>2022-10-31T11:27:46.0000000+00:00</time></trkpt><trkpt lat="39.48150935" lon="-0.38428478"><ele>11.4</ele><time>2022-10-31T11:27:47.0000000+00:00</time></trkpt><trkpt lat="39.48149929" lon="-0.3843163"><ele>11.6</ele><time>2022-10-31T11:27:48.0000000+00:00</time></trkpt><trkpt lat="39.48149091" lon="-0.38435469"><ele>11.8</ele><time>2022-10-31T11:27:49.0000000+00:00</time></trkpt><trkpt lat="39.48148378" lon="-0.38439634"><ele>11.8</ele><time>2022-10-31T11:27:50.0000000+00:00</time></trkpt><trkpt lat="39.48147691" lon="-0.38443029"><ele>11.8</ele><time>2022-10-31T11:27:51.0000000+00:00</time></trkpt><trkpt lat="39.48147054" lon="-0.38445686"><ele>11.8</ele><time>2022-10-31T11:27:52.0000000+00:00</time></trkpt><trkpt lat="39.48146383" lon="-0.38447287"><ele>11.8</ele><time>2022-10-31T11:27:53.0000000+00:00</time></trkpt><trkpt lat="39.48145453" lon="-0.38447882"><ele>11.8</ele><time>2022-10-31T11:27:54.0000000+00:00</time></trkpt><trkpt lat="39.48143676" lon="-0.38447832"><ele>11.6</ele><time>2022-10-31T11:27:55.0000000+00:00</time></trkpt><trkpt lat="39.48142234" lon="-0.38447379"><ele>11.6</ele><time>2022-10-31T11:27:56.0000000+00:00</time></trkpt><trkpt lat="39.48140818" lon="-0.38446868"><ele>11.6</ele><time>2022-10-31T11:27:57.0000000+00:00</time></trkpt><trkpt lat="39.48138923" lon="-0.38447027"><ele>11.6</ele><time>2022-10-31T11:27:58.0000000+00:00</time></trkpt><trkpt lat="39.4813682" lon="-0.38449156"><ele>11.6</ele><time>2022-10-31T11:27:59.0000000+00:00</time></trkpt><trkpt lat="39.48135445" lon="-0.38452006"><ele>11.6</ele><time>2022-10-31T11:28:00.0000000+00:00</time></trkpt><trkpt lat="39.48133878" lon="-0.38455459"><ele>11.6</ele><time>2022-10-31T11:28:01.0000000+00:00</time></trkpt><trkpt lat="39.48132545" lon="-0.38458946"><ele>11.6</ele><time>2022-10-31T11:28:02.0000000+00:00</time></trkpt><trkpt lat="39.48130533" lon="-0.38463707"><ele>11.4</ele><time>2022-10-31T11:28:03.0000000+00:00</time></trkpt><trkpt lat="39.48127197" lon="-0.38469524"><ele>11.2</ele><time>2022-10-31T11:28:04.0000000+00:00</time></trkpt><trkpt lat="39.48124297" lon="-0.38474947"><ele>11.2</ele><time>2022-10-31T11:28:05.0000000+00:00</time></trkpt><trkpt lat="39.48121246" lon="-0.38481577"><ele>10.8</ele><time>2022-10-31T11:28:06.0000000+00:00</time></trkpt><trkpt lat="39.48117985" lon="-0.38488501"><ele>10.4</ele><time>2022-10-31T11:28:07.0000000+00:00</time></trkpt><trkpt lat="39.48115421" lon="-0.38493614"><ele>10.2</ele><time>2022-10-31T11:28:08.0000000+00:00</time></trkpt><trkpt lat="39.4811268" lon="-0.38498945"><ele>9.8</ele><time>2022-10-31T11:28:09.0000000+00:00</time></trkpt><trkpt lat="39.48109922" lon="-0.38503186"><ele>9.4</ele><time>2022-10-31T11:28:10.0000000+00:00</time></trkpt><trkpt lat="39.48107994" lon="-0.38504192"><ele>8.8</ele><time>2022-10-31T11:28:11.0000000+00:00</time></trkpt><trkpt lat="39.48106955" lon="-0.38503831"><ele>8.4</ele><time>2022-10-31T11:28:12.0000000+00:00</time></trkpt><trkpt lat="39.48106284" lon="-0.38503798"><ele>8.2</ele><time>2022-10-31T11:28:13.0000000+00:00</time></trkpt><trkpt lat="39.48106687" lon="-0.38502725"><ele>8.0</ele><time>2022-10-31T11:28:14.0000000+00:00</time></trkpt><trkpt lat="39.48107751" lon="-0.3849995"><ele>8.0</ele><time>2022-10-31T11:28:15.0000000+00:00</time></trkpt><trkpt lat="39.48109" lon="-0.38497117"><ele>8.0</ele><time>2022-10-31T11:28:16.0000000+00:00</time></trkpt><trkpt lat="39.48110308" lon="-0.38493622"><ele>8.0</ele><time>2022-10-31T11:28:17.0000000+00:00</time></trkpt><trkpt lat="39.48112395" lon="-0.3848892"><ele>8.0</ele><time>2022-10-31T11:28:18.0000000+00:00</time></trkpt><trkpt lat="39.48114515" lon="-0.38484243"><ele>8.0</ele><time>2022-10-31T11:28:19.0000000+00:00</time></trkpt><trkpt lat="39.48116577" lon="-0.38479381"><ele>8.2</ele><time>2022-10-31T11:28:20.0000000+00:00</time></trkpt><trkpt lat="39.4811874" lon="-0.38474302"><ele>8.2</ele><time>2022-10-31T11:28:21.0000000+00:00</time></trkpt><trkpt lat="39.48120827" lon="-0.38469088"><ele>8.2</ele><time>2022-10-31T11:28:22.0000000+00:00</time></trkpt><trkpt lat="39.48123006" lon="-0.38464017"><ele>8.0</ele><time>2022-10-31T11:28:23.0000000+00:00</time></trkpt><trkpt lat="39.48124532" lon="-0.38459508"><ele>8.0</ele><time>2022-10-31T11:28:24.0000000+00:00</time></trkpt><trkpt lat="39.48126166" lon="-0.38454269"><ele>8.0</ele><time>2022-10-31T11:28:25.0000000+00:00</time></trkpt><trkpt lat="39.48128345" lon="-0.38447354"><ele>8.0</ele><time>2022-10-31T11:28:26.0000000+00:00</time></trkpt><trkpt lat="39.48130131" lon="-0.38441202"><ele>8.0</ele><time>2022-10-31T11:28:27.0000000+00:00</time></trkpt><trkpt lat="39.48131673" lon="-0.38435762"><ele>8.0</ele><time>2022-10-31T11:28:28.0000000+00:00</time></trkpt><trkpt lat="39.48134163" lon="-0.38429559"><ele>8.0</ele><time>2022-10-31T11:28:29.0000000+00:00</time></trkpt><trkpt lat="39.48136426" lon="-0.38425226"><ele>8.0</ele><time>2022-10-31T11:28:30.0000000+00:00</time></trkpt><trkpt lat="39.48140223" lon="-0.38420406"><ele>8.0</ele><time>2022-10-31T11:28:31.0000000+00:00</time></trkpt><trkpt lat="39.48143416" lon="-0.38416534"><ele>8.0</ele><time>2022-10-31T11:28:32.0000000+00:00</time></trkpt><trkpt lat="39.48145445" lon="-0.38414539"><ele>7.8</ele><time>2022-10-31T11:28:33.0000000+00:00</time></trkpt><trkpt lat="39.48145537" lon="-0.3841293"><ele>7.8</ele><time>2022-10-31T11:28:34.0000000+00:00</time></trkpt><trkpt lat="39.48146048" lon="-0.38411161"><ele>7.8</ele><time>2022-10-31T11:28:35.0000000+00:00</time></trkpt><trkpt lat="39.48145864" lon="-0.38411739"><ele>7.8</ele><time>2022-10-31T11:28:36.0000000+00:00</time></trkpt><trkpt lat="39.48143441" lon="-0.38412586"><ele>7.8</ele><time>2022-10-31T11:28:37.0000000+00:00</time></trkpt><trkpt lat="39.48141136" lon="-0.38413424"><ele>7.8</ele><time>2022-10-31T11:28:38.0000000+00:00</time></trkpt><trkpt lat="39.48138764" lon="-0.38414204"><ele>7.8</ele><time>2022-10-31T11:28:39.0000000+00:00</time></trkpt><trkpt lat="39.48136551" lon="-0.38416542"><ele>7.8</ele><time>2022-10-31T11:28:40.0000000+00:00</time></trkpt><trkpt lat="39.48133291" lon="-0.38419191"><ele>8.0</ele><time>2022-10-31T11:28:41.0000000+00:00</time></trkpt><trkpt lat="39.48130944" lon="-0.38420867"><ele>8.2</ele><time>2022-10-31T11:28:42.0000000+00:00</time></trkpt><trkpt lat="39.48129091" lon="-0.38422007"><ele>8.4</ele><time>2022-10-31T11:28:43.0000000+00:00</time></trkpt><trkpt lat="39.48127247" lon="-0.38423155"><ele>8.6</ele><time>2022-10-31T11:28:44.0000000+00:00</time></trkpt><trkpt lat="39.48124389" lon="-0.38423734"><ele>8.8</ele><time>2022-10-31T11:28:45.0000000+00:00</time></trkpt><trkpt lat="39.48121757" lon="-0.38422904"><ele>8.8</ele><time>2022-10-31T11:28:46.0000000+00:00</time></trkpt><trkpt lat="39.48118413" lon="-0.38420121"><ele>9.0</ele><time>2022-10-31T11:28:47.0000000+00:00</time></trkpt><trkpt lat="39.48112554" lon="-0.38413919"><ele>9.2</ele><time>2022-10-31T11:28:48.0000000+00:00</time></trkpt><trkpt lat="39.48108816" lon="-0.38407817"><ele>9.4</ele><time>2022-10-31T11:28:49.0000000+00:00</time></trkpt><trkpt lat="39.48104952" lon="-0.38402184"><ele>9.4</ele><time>2022-10-31T11:28:50.0000000+00:00</time></trkpt><trkpt lat="39.48101381" lon="-0.38397247"><ele>9.4</ele><time>2022-10-31T11:28:51.0000000+00:00</time></trkpt><trkpt lat="39.48098162" lon="-0.38392771"><ele>9.2</ele><time>2022-10-31T11:28:52.0000000+00:00</time></trkpt><trkpt lat="39.48093611" lon="-0.38385496"><ele>9.0</ele><time>2022-10-31T11:28:53.0000000+00:00</time></trkpt><trkpt lat="39.48090669" lon="-0.3838024"><ele>8.8</ele><time>2022-10-31T11:28:54.0000000+00:00</time></trkpt><trkpt lat="39.4808709" lon="-0.38374348"><ele>8.4</ele><time>2022-10-31T11:28:55.0000000+00:00</time></trkpt><trkpt lat="39.48082874" lon="-0.38368782"><ele>8.2</ele><time>2022-10-31T11:28:56.0000000+00:00</time></trkpt><trkpt lat="39.48078767" lon="-0.38363233"><ele>8.0</ele><time>2022-10-31T11:28:57.0000000+00:00</time></trkpt><trkpt lat="39.48075959" lon="-0.38359637"><ele>7.8</ele><time>2022-10-31T11:28:58.0000000+00:00</time></trkpt><trkpt lat="39.48073595" lon="-0.38356427"><ele>7.6</ele><time>2022-10-31T11:28:59.0000000+00:00</time></trkpt><trkpt lat="39.48071382" lon="-0.38353242"><ele>7.6</ele><time>2022-10-31T11:29:00.0000000+00:00</time></trkpt><trkpt lat="39.48069672" lon="-0.38350551"><ele>7.6</ele><time>2022-10-31T11:29:01.0000000+00:00</time></trkpt><trkpt lat="39.48067719" lon="-0.38346838"><ele>7.6</ele><time>2022-10-31T11:29:02.0000000+00:00</time></trkpt><trkpt lat="39.48064383" lon="-0.38345749"><ele>7.6</ele><time>2022-10-31T11:29:03.0000000+00:00</time></trkpt><trkpt lat="39.48058348" lon="-0.38342455"><ele>7.6</ele><time>2022-10-31T11:29:04.0000000+00:00</time></trkpt><trkpt lat="39.48054786" lon="-0.38338699"><ele>7.6</ele><time>2022-10-31T11:29:05.0000000+00:00</time></trkpt><trkpt lat="39.4805155" lon="-0.38333704"><ele>7.6</ele><time>2022-10-31T11:29:06.0000000+00:00</time></trkpt><trkpt lat="39.48048307" lon="-0.38330594"><ele>7.8</ele><time>2022-10-31T11:29:07.0000000+00:00</time></trkpt><trkpt lat="39.48047292" lon="-0.38327417"><ele>7.8</ele><time>2022-10-31T11:29:08.0000000+00:00</time></trkpt><trkpt lat="39.48046429" lon="-0.38324056"><ele>7.8</ele><time>2022-10-31T11:29:09.0000000+00:00</time></trkpt><trkpt lat="39.48046329" lon="-0.3831699"><ele>7.8</ele><time>2022-10-31T11:29:10.0000000+00:00</time></trkpt><trkpt lat="39.48050997" lon="-0.38310536"><ele>7.8</ele><time>2022-10-31T11:29:11.0000000+00:00</time></trkpt><trkpt lat="39.48057711" lon="-0.38309254"><ele>7.8</ele><time>2022-10-31T11:29:12.0000000+00:00</time></trkpt><trkpt lat="39.48060142" lon="-0.38309145"><ele>7.8</ele><time>2022-10-31T11:29:13.0000000+00:00</time></trkpt><trkpt lat="39.48063344" lon="-0.38302389"><ele>7.8</ele><time>2022-10-31T11:29:14.0000000+00:00</time></trkpt><trkpt lat="39.48063637" lon="-0.38298877"><ele>8.0</ele><time>2022-10-31T11:29:15.0000000+00:00</time></trkpt><trkpt lat="39.48074659" lon="-0.38269406"><ele>8.2</ele><time>2022-10-31T11:29:20.0000000+00:00</time></trkpt><trkpt lat="39.48077065" lon="-0.38263782"><ele>8.2</ele><time>2022-10-31T11:29:21.0000000+00:00</time></trkpt><trkpt lat="39.4808046" lon="-0.38256045"><ele>8.2</ele><time>2022-10-31T11:29:22.0000000+00:00</time></trkpt><trkpt lat="39.48083335" lon="-0.38248879"><ele>8.2</ele><time>2022-10-31T11:29:23.0000000+00:00</time></trkpt><trkpt lat="39.48086562" lon="-0.3823929"><ele>8.2</ele><time>2022-10-31T11:29:24.0000000+00:00</time></trkpt><trkpt lat="39.48089043" lon="-0.38233574"><ele>8.2</ele><time>2022-10-31T11:29:25.0000000+00:00</time></trkpt><trkpt lat="39.4809165" lon="-0.38226281"><ele>8.2</ele><time>2022-10-31T11:29:26.0000000+00:00</time></trkpt><trkpt lat="39.48093854" lon="-0.38218394"><ele>8.4</ele><time>2022-10-31T11:29:27.0000000+00:00</time></trkpt><trkpt lat="39.48096922" lon="-0.38210657"><ele>8.4</ele><time>2022-10-31T11:29:28.0000000+00:00</time></trkpt><trkpt lat="39.48099906" lon="-0.38203449"><ele>8.4</ele><time>2022-10-31T11:29:29.0000000+00:00</time></trkpt><trkpt lat="39.48102504" lon="-0.38196459"><ele>8.2</ele><time>2022-10-31T11:29:30.0000000+00:00</time></trkpt><trkpt lat="39.48106066" lon="-0.38189041"><ele>8.2</ele><time>2022-10-31T11:29:31.0000000+00:00</time></trkpt><trkpt lat="39.48108975" lon="-0.38184112"><ele>8.4</ele><time>2022-10-31T11:29:32.0000000+00:00</time></trkpt><trkpt lat="39.48111557" lon="-0.38176484"><ele>8.4</ele><time>2022-10-31T11:29:33.0000000+00:00</time></trkpt><trkpt lat="39.48114004" lon="-0.38168748"><ele>8.2</ele><time>2022-10-31T11:29:34.0000000+00:00</time></trkpt><trkpt lat="39.48116653" lon="-0.38160919"><ele>8.4</ele><time>2022-10-31T11:29:35.0000000+00:00</time></trkpt><trkpt lat="39.48119318" lon="-0.38153334"><ele>8.4</ele><time>2022-10-31T11:29:36.0000000+00:00</time></trkpt><trkpt lat="39.48122042" lon="-0.38146067"><ele>8.4</ele><time>2022-10-31T11:29:37.0000000+00:00</time></trkpt><trkpt lat="39.48124465" lon="-0.38138749"><ele>8.4</ele><time>2022-10-31T11:29:38.0000000+00:00</time></trkpt><trkpt lat="39.48127449" lon="-0.38131608"><ele>8.4</ele><time>2022-10-31T11:29:39.0000000+00:00</time></trkpt><trkpt lat="39.48129293" lon="-0.38124852"><ele>8.4</ele><time>2022-10-31T11:29:40.0000000+00:00</time></trkpt><trkpt lat="39.48132972" lon="-0.38117878"><ele>8.4</ele><time>2022-10-31T11:29:41.0000000+00:00</time></trkpt><trkpt lat="39.48136878" lon="-0.38110837"><ele>8.4</ele><time>2022-10-31T11:29:42.0000000+00:00</time></trkpt><trkpt lat="39.48141111" lon="-0.38103989"><ele>8.4</ele><time>2022-10-31T11:29:43.0000000+00:00</time></trkpt><trkpt lat="39.48145084" lon="-0.38096689"><ele>8.4</ele><time>2022-10-31T11:29:44.0000000+00:00</time></trkpt><trkpt lat="39.48148512" lon="-0.38089036"><ele>8.4</ele><time>2022-10-31T11:29:45.0000000+00:00</time></trkpt><trkpt lat="39.48151547" lon="-0.38081124"><ele>8.2</ele><time>2022-10-31T11:29:46.0000000+00:00</time></trkpt><trkpt lat="39.4815479" lon="-0.38073001"><ele>8.2</ele><time>2022-10-31T11:29:47.0000000+00:00</time></trkpt><trkpt lat="39.48158034" lon="-0.38064829"><ele>8.2</ele><time>2022-10-31T11:29:48.0000000+00:00</time></trkpt><trkpt lat="39.4816106" lon="-0.38056824"><ele>8.2</ele><time>2022-10-31T11:29:49.0000000+00:00</time></trkpt><trkpt lat="39.48163725" lon="-0.38048811"><ele>8.0</ele><time>2022-10-31T11:29:50.0000000+00:00</time></trkpt><trkpt lat="39.48165737" lon="-0.380411"><ele>8.0</ele><time>2022-10-31T11:29:51.0000000+00:00</time></trkpt><trkpt lat="39.48167506" lon="-0.38033531"><ele>8.0</ele><time>2022-10-31T11:29:52.0000000+00:00</time></trkpt><trkpt lat="39.4816888" lon="-0.38025635"><ele>8.0</ele><time>2022-10-31T11:29:53.0000000+00:00</time></trkpt><trkpt lat="39.48170364" lon="-0.38018159"><ele>8.0</ele><time>2022-10-31T11:29:54.0000000+00:00</time></trkpt><trkpt lat="39.48171001" lon="-0.3800857"><ele>7.8</ele><time>2022-10-31T11:29:55.0000000+00:00</time></trkpt><trkpt lat="39.48170934" lon="-0.3800054"><ele>7.8</ele><time>2022-10-31T11:29:56.0000000+00:00</time></trkpt><trkpt lat="39.48170272" lon="-0.37993826"><ele>7.8</ele><time>2022-10-31T11:29:57.0000000+00:00</time></trkpt><trkpt lat="39.48169165" lon="-0.3798671"><ele>7.8</ele><time>2022-10-31T11:29:58.0000000+00:00</time></trkpt><trkpt lat="39.48168319" lon="-0.37979376"><ele>7.6</ele><time>2022-10-31T11:29:59.0000000+00:00</time></trkpt><trkpt lat="39.48168185" lon="-0.37972016"><ele>7.6</ele><time>2022-10-31T11:30:00.0000000+00:00</time></trkpt><trkpt lat="39.48168067" lon="-0.37964942"><ele>7.6</ele><time>2022-10-31T11:30:01.0000000+00:00</time></trkpt><trkpt lat="39.48168235" lon="-0.37958178"><ele>7.6</ele><time>2022-10-31T11:30:02.0000000+00:00</time></trkpt><trkpt lat="39.48168327" lon="-0.37952034"><ele>7.6</ele><time>2022-10-31T11:30:03.0000000+00:00</time></trkpt><trkpt lat="39.4816831" lon="-0.37946158"><ele>7.6</ele><time>2022-10-31T11:30:04.0000000+00:00</time></trkpt><trkpt lat="39.4816759" lon="-0.37940802"><ele>7.4</ele><time>2022-10-31T11:30:05.0000000+00:00</time></trkpt><trkpt lat="39.48166776" lon="-0.37935639"><ele>7.4</ele><time>2022-10-31T11:30:06.0000000+00:00</time></trkpt><trkpt lat="39.48164865" lon="-0.37930534"><ele>7.6</ele><time>2022-10-31T11:30:07.0000000+00:00</time></trkpt><trkpt lat="39.48161781" lon="-0.37926268"><ele>7.6</ele><time>2022-10-31T11:30:08.0000000+00:00</time></trkpt><trkpt lat="39.48158403" lon="-0.37922706"><ele>7.6</ele><time>2022-10-31T11:30:09.0000000+00:00</time></trkpt><trkpt lat="39.48155377" lon="-0.37920292"><ele>7.4</ele><time>2022-10-31T11:30:10.0000000+00:00</time></trkpt><trkpt lat="39.48152167" lon="-0.37918355"><ele>7.4</ele><time>2022-10-31T11:30:11.0000000+00:00</time></trkpt><trkpt lat="39.48148998" lon="-0.37916059"><ele>7.4</ele><time>2022-10-31T11:30:12.0000000+00:00</time></trkpt><trkpt lat="39.48145696" lon="-0.37912857"><ele>7.4</ele><time>2022-10-31T11:30:13.0000000+00:00</time></trkpt><trkpt lat="39.48142159" lon="-0.37908758"><ele>7.4</ele><time>2022-10-31T11:30:14.0000000+00:00</time></trkpt><trkpt lat="39.48139049" lon="-0.37904349"><ele>7.4</ele><time>2022-10-31T11:30:15.0000000+00:00</time></trkpt><trkpt lat="39.48136669" lon="-0.37899446"><ele>7.4</ele><time>2022-10-31T11:30:16.0000000+00:00</time></trkpt><trkpt lat="39.48135252" lon="-0.37893076"><ele>7.4</ele><time>2022-10-31T11:30:17.0000000+00:00</time></trkpt><trkpt lat="39.48134364" lon="-0.37885683"><ele>7.4</ele><time>2022-10-31T11:30:18.0000000+00:00</time></trkpt><trkpt lat="39.48133349" lon="-0.37878022"><ele>7.6</ele><time>2022-10-31T11:30:19.0000000+00:00</time></trkpt><trkpt lat="39.48132419" lon="-0.37870042"><ele>7.6</ele><time>2022-10-31T11:30:20.0000000+00:00</time></trkpt><trkpt lat="39.48131648" lon="-0.37861459"><ele>7.6</ele><time>2022-10-31T11:30:21.0000000+00:00</time></trkpt><trkpt lat="39.48130927" lon="-0.37852943"><ele>7.6</ele><time>2022-10-31T11:30:22.0000000+00:00</time></trkpt><trkpt lat="39.48130701" lon="-0.37844645"><ele>7.6</ele><time>2022-10-31T11:30:23.0000000+00:00</time></trkpt><trkpt lat="39.48130969" lon="-0.37836833"><ele>7.4</ele><time>2022-10-31T11:30:24.0000000+00:00</time></trkpt><trkpt lat="39.48131011" lon="-0.37829407"><ele>7.4</ele><time>2022-10-31T11:30:25.0000000+00:00</time></trkpt><trkpt lat="39.48130349" lon="-0.37822324"><ele>7.4</ele><time>2022-10-31T11:30:26.0000000+00:00</time></trkpt><trkpt lat="39.48128639" lon="-0.37815727"><ele>7.4</ele><time>2022-10-31T11:30:27.0000000+00:00</time></trkpt><trkpt lat="39.48125714" lon="-0.37809541"><ele>7.4</ele><time>2022-10-31T11:30:28.0000000+00:00</time></trkpt><trkpt lat="39.48121673" lon="-0.37803733"><ele>7.2</ele><time>2022-10-31T11:30:29.0000000+00:00</time></trkpt><trkpt lat="39.48116443" lon="-0.37797857"><ele>7.4</ele><time>2022-10-31T11:30:30.0000000+00:00</time></trkpt><trkpt lat="39.48111934" lon="-0.37791168"><ele>7.4</ele><time>2022-10-31T11:30:31.0000000+00:00</time></trkpt><trkpt lat="39.48107835" lon="-0.37784522"><ele>7.4</ele><time>2022-10-31T11:30:32.0000000+00:00</time></trkpt><trkpt lat="39.48104155" lon="-0.37778202"><ele>7.6</ele><time>2022-10-31T11:30:33.0000000+00:00</time></trkpt><trkpt lat="39.48099872" lon="-0.37772083"><ele>7.6</ele><time>2022-10-31T11:30:34.0000000+00:00</time></trkpt><trkpt lat="39.48095564" lon="-0.37765713"><ele>7.8</ele><time>2022-10-31T11:30:35.0000000+00:00</time></trkpt><trkpt lat="39.48090878" lon="-0.37757565"><ele>7.8</ele><time>2022-10-31T11:30:36.0000000+00:00</time></trkpt><trkpt lat="39.480874" lon="-0.37750768"><ele>8.0</ele><time>2022-10-31T11:30:37.0000000+00:00</time></trkpt><trkpt lat="39.48085053" lon="-0.37745378"><ele>8.2</ele><time>2022-10-31T11:30:38.0000000+00:00</time></trkpt><trkpt lat="39.4808144" lon="-0.37739385"><ele>8.4</ele><time>2022-10-31T11:30:39.0000000+00:00</time></trkpt><trkpt lat="39.48076998" lon="-0.37734691"><ele>8.4</ele><time>2022-10-31T11:30:40.0000000+00:00</time></trkpt><trkpt lat="39.48073419" lon="-0.37730333"><ele>8.4</ele><time>2022-10-31T11:30:41.0000000+00:00</time></trkpt><trkpt lat="39.48070753" lon="-0.37723736"><ele>8.6</ele><time>2022-10-31T11:30:42.0000000+00:00</time></trkpt><trkpt lat="39.48067828" lon="-0.37716184"><ele>8.6</ele><time>2022-10-31T11:30:43.0000000+00:00</time></trkpt><trkpt lat="39.48064031" lon="-0.37709872"><ele>8.4</ele><time>2022-10-31T11:30:44.0000000+00:00</time></trkpt><trkpt lat="39.48060075" lon="-0.37703058"><ele>8.2</ele><time>2022-10-31T11:30:45.0000000+00:00</time></trkpt><trkpt lat="39.48055507" lon="-0.37695196"><ele>8.0</ele><time>2022-10-31T11:30:46.0000000+00:00</time></trkpt><trkpt lat="39.48051425" lon="-0.37686897"><ele>8.0</ele><time>2022-10-31T11:30:47.0000000+00:00</time></trkpt><trkpt lat="39.48047091" lon="-0.37679488"><ele>8.0</ele><time>2022-10-31T11:30:48.0000000+00:00</time></trkpt><trkpt lat="39.48042951" lon="-0.37672204"><ele>7.8</ele><time>2022-10-31T11:30:49.0000000+00:00</time></trkpt><trkpt lat="39.48039053" lon="-0.37664719"><ele>7.8</ele><time>2022-10-31T11:30:50.0000000+00:00</time></trkpt><trkpt lat="39.48035298" lon="-0.37657041"><ele>7.8</ele><time>2022-10-31T11:30:51.0000000+00:00</time></trkpt><trkpt lat="39.48031166" lon="-0.3764855"><ele>7.8</ele><time>2022-10-31T11:30:52.0000000+00:00</time></trkpt><trkpt lat="39.48026639" lon="-0.3764052"><ele>7.8</ele><time>2022-10-31T11:30:53.0000000+00:00</time></trkpt><trkpt lat="39.48023119" lon="-0.37633723"><ele>7.6</ele><time>2022-10-31T11:30:54.0000000+00:00</time></trkpt><trkpt lat="39.48019615" lon="-0.37626741"><ele>7.6</ele><time>2022-10-31T11:30:55.0000000+00:00</time></trkpt><trkpt lat="39.48016246" lon="-0.37619968"><ele>7.4</ele><time>2022-10-31T11:30:56.0000000+00:00</time></trkpt><trkpt lat="39.48012608" lon="-0.37612835"><ele>7.4</ele><time>2022-10-31T11:30:57.0000000+00:00</time></trkpt><trkpt lat="39.48009054" lon="-0.37604386"><ele>7.4</ele><time>2022-10-31T11:30:58.0000000+00:00</time></trkpt><trkpt lat="39.48007369" lon="-0.37595241"><ele>7.4</ele><time>2022-10-31T11:30:59.0000000+00:00</time></trkpt><trkpt lat="39.4800602" lon="-0.37587664"><ele>7.4</ele><time>2022-10-31T11:31:00.0000000+00:00</time></trkpt><trkpt lat="39.48004193" lon="-0.37579995"><ele>7.2</ele><time>2022-10-31T11:31:01.0000000+00:00</time></trkpt><trkpt lat="39.48001963" lon="-0.37572778"><ele>7.2</ele><time>2022-10-31T11:31:02.0000000+00:00</time></trkpt><trkpt lat="39.47998929" lon="-0.37563876"><ele>7.2</ele><time>2022-10-31T11:31:03.0000000+00:00</time></trkpt><trkpt lat="39.47997521" lon="-0.37558193"><ele>7.2</ele><time>2022-10-31T11:31:04.0000000+00:00</time></trkpt><trkpt lat="39.47994612" lon="-0.3755122"><ele>7.2</ele><time>2022-10-31T11:31:05.0000000+00:00</time></trkpt><trkpt lat="39.47990153" lon="-0.37543776"><ele>7.0</ele><time>2022-10-31T11:31:06.0000000+00:00</time></trkpt><trkpt lat="39.47983833" lon="-0.3753542"><ele>7.0</ele><time>2022-10-31T11:31:07.0000000+00:00</time></trkpt><trkpt lat="39.47979483" lon="-0.37528262"><ele>7.0</ele><time>2022-10-31T11:31:08.0000000+00:00</time></trkpt><trkpt lat="39.47974479" lon="-0.3751998"><ele>7.0</ele><time>2022-10-31T11:31:09.0000000+00:00</time></trkpt><trkpt lat="39.47969877" lon="-0.37512437"><ele>7.0</ele><time>2022-10-31T11:31:10.0000000+00:00</time></trkpt><trkpt lat="39.47965678" lon="-0.37505488"><ele>7.0</ele><time>2022-10-31T11:31:11.0000000+00:00</time></trkpt><trkpt lat="39.47961805" lon="-0.37498942"><ele>7.0</ele><time>2022-10-31T11:31:12.0000000+00:00</time></trkpt><trkpt lat="39.47957698" lon="-0.37492379"><ele>7.0</ele><time>2022-10-31T11:31:13.0000000+00:00</time></trkpt><trkpt lat="39.47953725" lon="-0.37485732"><ele>7.0</ele><time>2022-10-31T11:31:14.0000000+00:00</time></trkpt><trkpt lat="39.47949752" lon="-0.37479781"><ele>7.0</ele><time>2022-10-31T11:31:15.0000000+00:00</time></trkpt><trkpt lat="39.47946458" lon="-0.37474215"><ele>6.8</ele><time>2022-10-31T11:31:16.0000000+00:00</time></trkpt><trkpt lat="39.47944103" lon="-0.3746823"><ele>6.8</ele><time>2022-10-31T11:31:17.0000000+00:00</time></trkpt><trkpt lat="39.47939149" lon="-0.37462112"><ele>6.8</ele><time>2022-10-31T11:31:18.0000000+00:00</time></trkpt><trkpt lat="39.47935704" lon="-0.37456588"><ele>6.6</ele><time>2022-10-31T11:31:19.0000000+00:00</time></trkpt><trkpt lat="39.47933634" lon="-0.37453059"><ele>6.6</ele><time>2022-10-31T11:31:20.0000000+00:00</time></trkpt><trkpt lat="39.47933265" lon="-0.37452062"><ele>6.8</ele><time>2022-10-31T11:31:21.0000000+00:00</time></trkpt><trkpt lat="39.47916996" lon="-0.37442473"><ele>6.8</ele><time>2022-10-31T11:31:25.0000000+00:00</time></trkpt><trkpt lat="39.47911447" lon="-0.37437569"><ele>6.8</ele><time>2022-10-31T11:31:26.0000000+00:00</time></trkpt><trkpt lat="39.47903543" lon="-0.37430361"><ele>6.8</ele><time>2022-10-31T11:31:27.0000000+00:00</time></trkpt><trkpt lat="39.47899167" lon="-0.37423446"><ele>7.0</ele><time>2022-10-31T11:31:28.0000000+00:00</time></trkpt><trkpt lat="39.47895312" lon="-0.37416439"><ele>7.2</ele><time>2022-10-31T11:31:29.0000000+00:00</time></trkpt><trkpt lat="39.47890878" lon="-0.37409146"><ele>7.2</ele><time>2022-10-31T11:31:30.0000000+00:00</time></trkpt><trkpt lat="39.47886125" lon="-0.37400999"><ele>7.4</ele><time>2022-10-31T11:31:31.0000000+00:00</time></trkpt><trkpt lat="39.47881457" lon="-0.37392609"><ele>7.6</ele><time>2022-10-31T11:31:32.0000000+00:00</time></trkpt><trkpt lat="39.4787657" lon="-0.37384437"><ele>7.6</ele><time>2022-10-31T11:31:33.0000000+00:00</time></trkpt><trkpt lat="39.47871096" lon="-0.37376968"><ele>7.6</ele><time>2022-10-31T11:31:34.0000000+00:00</time></trkpt><trkpt lat="39.47866193" lon="-0.3736867"><ele>7.6</ele><time>2022-10-31T11:31:35.0000000+00:00</time></trkpt><trkpt lat="39.47862136" lon="-0.37360179"><ele>7.6</ele><time>2022-10-31T11:31:36.0000000+00:00</time></trkpt><trkpt lat="39.47858524" lon="-0.37351705"><ele>7.6</ele><time>2022-10-31T11:31:37.0000000+00:00</time></trkpt><trkpt lat="39.47855054" lon="-0.37343206"><ele>7.6</ele><time>2022-10-31T11:31:38.0000000+00:00</time></trkpt><trkpt lat="39.47851977" lon="-0.37334397"><ele>7.6</ele><time>2022-10-31T11:31:39.0000000+00:00</time></trkpt><trkpt lat="39.47848524" lon="-0.37325554"><ele>7.6</ele><time>2022-10-31T11:31:40.0000000+00:00</time></trkpt><trkpt lat="39.4784445" lon="-0.37317105"><ele>7.6</ele><time>2022-10-31T11:31:41.0000000+00:00</time></trkpt><trkpt lat="39.47840796" lon="-0.37309276"><ele>7.6</ele><time>2022-10-31T11:31:42.0000000+00:00</time></trkpt><trkpt lat="39.47836764" lon="-0.37301405"><ele>7.6</ele><time>2022-10-31T11:31:43.0000000+00:00</time></trkpt><trkpt lat="39.47831383" lon="-0.37292705"><ele>7.4</ele><time>2022-10-31T11:31:44.0000000+00:00</time></trkpt><trkpt lat="39.47825692" lon="-0.3728439"><ele>7.4</ele><time>2022-10-31T11:31:45.0000000+00:00</time></trkpt><trkpt lat="39.47820721" lon="-0.37276218"><ele>7.2</ele><time>2022-10-31T11:31:46.0000000+00:00</time></trkpt><trkpt lat="39.47816379" lon="-0.37267551"><ele>7.2</ele><time>2022-10-31T11:31:47.0000000+00:00</time></trkpt><trkpt lat="39.47811543" lon="-0.37259135"><ele>7.2</ele><time>2022-10-31T11:31:48.0000000+00:00</time></trkpt><trkpt lat="39.47805961" lon="-0.37251047"><ele>7.2</ele><time>2022-10-31T11:31:49.0000000+00:00</time></trkpt><trkpt lat="39.47800429" lon="-0.37242967"><ele>7.2</ele><time>2022-10-31T11:31:50.0000000+00:00</time></trkpt><trkpt lat="39.47794888" lon="-0.37235272"><ele>7.2</ele><time>2022-10-31T11:31:51.0000000+00:00</time></trkpt><trkpt lat="39.47789784" lon="-0.37227544"><ele>7.2</ele><time>2022-10-31T11:31:52.0000000+00:00</time></trkpt><trkpt lat="39.47784495" lon="-0.37220185"><ele>7.2</ele><time>2022-10-31T11:31:53.0000000+00:00</time></trkpt><trkpt lat="39.4777877" lon="-0.3721306"><ele>7.2</ele><time>2022-10-31T11:31:54.0000000+00:00</time></trkpt><trkpt lat="39.47773255" lon="-0.37206044"><ele>7.2</ele><time>2022-10-31T11:31:55.0000000+00:00</time></trkpt><trkpt lat="39.47767882" lon="-0.37200018"><ele>7.2</ele><time>2022-10-31T11:31:56.0000000+00:00</time></trkpt><trkpt lat="39.47762425" lon="-0.37194176"><ele>7.0</ele><time>2022-10-31T11:31:57.0000000+00:00</time></trkpt><trkpt lat="39.47757362" lon="-0.37188049"><ele>6.8</ele><time>2022-10-31T11:31:58.0000000+00:00</time></trkpt><trkpt lat="39.47753037" lon="-0.37179977"><ele>6.8</ele><time>2022-10-31T11:31:59.0000000+00:00</time></trkpt><trkpt lat="39.47748972" lon="-0.37172684"><ele>6.6</ele><time>2022-10-31T11:32:00.0000000+00:00</time></trkpt><trkpt lat="39.47745008" lon="-0.37164889"><ele>6.6</ele><time>2022-10-31T11:32:01.0000000+00:00</time></trkpt><trkpt lat="39.47741797" lon="-0.37156859"><ele>6.6</ele><time>2022-10-31T11:32:02.0000000+00:00</time></trkpt><trkpt lat="39.47737363" lon="-0.37149467"><ele>6.6</ele><time>2022-10-31T11:32:03.0000000+00:00</time></trkpt><trkpt lat="39.4773396" lon="-0.37142376"><ele>6.6</ele><time>2022-10-31T11:32:04.0000000+00:00</time></trkpt><trkpt lat="39.47730884" lon="-0.3713624"><ele>6.6</ele><time>2022-10-31T11:32:05.0000000+00:00</time></trkpt><trkpt lat="39.47728428" lon="-0.37131596"><ele>6.6</ele><time>2022-10-31T11:32:06.0000000+00:00</time></trkpt><trkpt lat="39.47726894" lon="-0.37127397"><ele>6.6</ele><time>2022-10-31T11:32:07.0000000+00:00</time></trkpt><trkpt lat="39.47724924" lon="-0.37124128"><ele>6.4</ele><time>2022-10-31T11:32:08.0000000+00:00</time></trkpt><trkpt lat="39.47722779" lon="-0.37121396"><ele>6.4</ele><time>2022-10-31T11:32:09.0000000+00:00</time></trkpt><trkpt lat="39.47719518" lon="-0.37117129"><ele>6.4</ele><time>2022-10-31T11:32:10.0000000+00:00</time></trkpt><trkpt lat="39.47715704" lon="-0.37112528"><ele>6.4</ele><time>2022-10-31T11:32:11.0000000+00:00</time></trkpt><trkpt lat="39.47712058" lon="-0.37106476"><ele>6.4</ele><time>2022-10-31T11:32:12.0000000+00:00</time></trkpt><trkpt lat="39.47709158" lon="-0.37099988"><ele>6.4</ele><time>2022-10-31T11:32:13.0000000+00:00</time></trkpt><trkpt lat="39.47705085" lon="-0.3709418"><ele>6.6</ele><time>2022-10-31T11:32:14.0000000+00:00</time></trkpt><trkpt lat="39.47701187" lon="-0.3708765"><ele>6.6</ele><time>2022-10-31T11:32:15.0000000+00:00</time></trkpt><trkpt lat="39.47698245" lon="-0.3708076"><ele>6.6</ele><time>2022-10-31T11:32:16.0000000+00:00</time></trkpt><trkpt lat="39.47695496" lon="-0.37073962"><ele>6.4</ele><time>2022-10-31T11:32:17.0000000+00:00</time></trkpt><trkpt lat="39.47692076" lon="-0.37066779"><ele>6.4</ele><time>2022-10-31T11:32:18.0000000+00:00</time></trkpt><trkpt lat="39.47688229" lon="-0.3705895"><ele>6.4</ele><time>2022-10-31T11:32:19.0000000+00:00</time></trkpt><trkpt lat="39.47683384" lon="-0.37052044"><ele>6.4</ele><time>2022-10-31T11:32:20.0000000+00:00</time></trkpt><trkpt lat="39.47678363" lon="-0.3704538"><ele>6.4</ele><time>2022-10-31T11:32:21.0000000+00:00</time></trkpt><trkpt lat="39.47673686" lon="-0.37039521"><ele>6.4</ele><time>2022-10-31T11:32:22.0000000+00:00</time></trkpt><trkpt lat="39.47670316" lon="-0.37034014"><ele>6.4</ele><time>2022-10-31T11:32:23.0000000+00:00</time></trkpt><trkpt lat="39.47667106" lon="-0.37029966"><ele>6.4</ele><time>2022-10-31T11:32:24.0000000+00:00</time></trkpt><trkpt lat="39.47664172" lon="-0.37026915"><ele>6.4</ele><time>2022-10-31T11:32:25.0000000+00:00</time></trkpt><trkpt lat="39.47661147" lon="-0.37023998"><ele>6.4</ele><time>2022-10-31T11:32:26.0000000+00:00</time></trkpt><trkpt lat="39.47657995" lon="-0.37020494"><ele>6.4</ele><time>2022-10-31T11:32:27.0000000+00:00</time></trkpt><trkpt lat="39.47655086" lon="-0.37016085"><ele>6.4</ele><time>2022-10-31T11:32:28.0000000+00:00</time></trkpt><trkpt lat="39.4765175" lon="-0.37010998"><ele>6.4</ele><time>2022-10-31T11:32:29.0000000+00:00</time></trkpt><trkpt lat="39.47648523" lon="-0.37003948"><ele>6.4</ele><time>2022-10-31T11:32:30.0000000+00:00</time></trkpt><trkpt lat="39.47644626" lon="-0.36998928"><ele>6.6</ele><time>2022-10-31T11:32:31.0000000+00:00</time></trkpt><trkpt lat="39.47640711" lon="-0.3699327"><ele>6.6</ele><time>2022-10-31T11:32:32.0000000+00:00</time></trkpt><trkpt lat="39.47636847" lon="-0.36987168"><ele>6.6</ele><time>2022-10-31T11:32:33.0000000+00:00</time></trkpt><trkpt lat="39.47632589" lon="-0.36982021"><ele>6.6</ele><time>2022-10-31T11:32:34.0000000+00:00</time></trkpt><trkpt lat="39.47628273" lon="-0.36976883"><ele>6.6</ele><time>2022-10-31T11:32:35.0000000+00:00</time></trkpt><trkpt lat="39.47624149" lon="-0.36971309"><ele>6.4</ele><time>2022-10-31T11:32:36.0000000+00:00</time></trkpt><trkpt lat="39.47619706" lon="-0.36965777"><ele>6.4</ele><time>2022-10-31T11:32:37.0000000+00:00</time></trkpt><trkpt lat="39.47615138" lon="-0.36959466"><ele>6.4</ele><time>2022-10-31T11:32:38.0000000+00:00</time></trkpt><trkpt lat="39.47609749" lon="-0.36953213"><ele>6.2</ele><time>2022-10-31T11:32:39.0000000+00:00</time></trkpt><trkpt lat="39.47603965" lon="-0.36946046"><ele>6.0</ele><time>2022-10-31T11:32:40.0000000+00:00</time></trkpt><trkpt lat="39.47598207" lon="-0.36940455"><ele>6.0</ele><time>2022-10-31T11:32:41.0000000+00:00</time></trkpt><trkpt lat="39.47592465" lon="-0.36934932"><ele>6.0</ele><time>2022-10-31T11:32:42.0000000+00:00</time></trkpt><trkpt lat="39.47586707" lon="-0.36929383"><ele>6.0</ele><time>2022-10-31T11:32:43.0000000+00:00</time></trkpt><trkpt lat="39.47552576" lon="-0.3689091"><ele>6.2</ele><time>2022-10-31T11:32:49.0000000+00:00</time></trkpt><trkpt lat="39.47542937" lon="-0.36895621"><ele>6.2</ele><time>2022-10-31T11:32:50.0000000+00:00</time></trkpt><trkpt lat="39.47537321" lon="-0.36895218"><ele>6.4</ele><time>2022-10-31T11:32:51.0000000+00:00</time></trkpt><trkpt lat="39.47534144" lon="-0.36898043"><ele>6.4</ele><time>2022-10-31T11:32:52.0000000+00:00</time></trkpt><trkpt lat="39.47528528" lon="-0.36901186"><ele>6.4</ele><time>2022-10-31T11:32:53.0000000+00:00</time></trkpt><trkpt lat="39.47522082" lon="-0.3690003"><ele>6.4</ele><time>2022-10-31T11:32:54.0000000+00:00</time></trkpt><trkpt lat="39.47515545" lon="-0.36896702"><ele>6.4</ele><time>2022-10-31T11:32:55.0000000+00:00</time></trkpt><trkpt lat="39.47509476" lon="-0.36892268"><ele>6.4</ele><time>2022-10-31T11:32:56.0000000+00:00</time></trkpt><trkpt lat="39.47503382" lon="-0.36887557"><ele>6.4</ele><time>2022-10-31T11:32:57.0000000+00:00</time></trkpt><trkpt lat="39.47498546" lon="-0.36881866"><ele>6.4</ele><time>2022-10-31T11:32:58.0000000+00:00</time></trkpt><trkpt lat="39.47491354" lon="-0.36874691"><ele>6.4</ele><time>2022-10-31T11:32:59.0000000+00:00</time></trkpt><trkpt lat="39.4748656" lon="-0.36868572"><ele>6.4</ele><time>2022-10-31T11:33:00.0000000+00:00</time></trkpt><trkpt lat="39.47479125" lon="-0.36861146"><ele>6.4</ele><time>2022-10-31T11:33:01.0000000+00:00</time></trkpt><trkpt lat="39.47473778" lon="-0.36856502"><ele>6.4</ele><time>2022-10-31T11:33:02.0000000+00:00</time></trkpt><trkpt lat="39.47467365" lon="-0.36850384"><ele>6.2</ele><time>2022-10-31T11:33:03.0000000+00:00</time></trkpt><trkpt lat="39.47461464" lon="-0.36842538"><ele>6.2</ele><time>2022-10-31T11:33:04.0000000+00:00</time></trkpt><trkpt lat="39.47454935" lon="-0.36836553"><ele>6.2</ele><time>2022-10-31T11:33:05.0000000+00:00</time></trkpt><trkpt lat="39.47448967" lon="-0.36830896"><ele>6.2</ele><time>2022-10-31T11:33:06.0000000+00:00</time></trkpt><trkpt lat="39.47443242" lon="-0.36825028"><ele>6.2</ele><time>2022-10-31T11:33:07.0000000+00:00</time></trkpt><trkpt lat="39.47437258" lon="-0.36819463"><ele>6.2</ele><time>2022-10-31T11:33:08.0000000+00:00</time></trkpt><trkpt lat="39.47431214" lon="-0.36814132"><ele>6.0</ele><time>2022-10-31T11:33:09.0000000+00:00</time></trkpt><trkpt lat="39.47425246" lon="-0.36808734"><ele>6.0</ele><time>2022-10-31T11:33:10.0000000+00:00</time></trkpt><trkpt lat="39.47419287" lon="-0.36803277"><ele>6.0</ele><time>2022-10-31T11:33:11.0000000+00:00</time></trkpt><trkpt lat="39.47413134" lon="-0.36797309"><ele>5.8</ele><time>2022-10-31T11:33:12.0000000+00:00</time></trkpt><trkpt lat="39.47407711" lon="-0.36791224"><ele>5.8</ele><time>2022-10-31T11:33:13.0000000+00:00</time></trkpt><trkpt lat="39.47402766" lon="-0.36785516"><ele>5.6</ele><time>2022-10-31T11:33:14.0000000+00:00</time></trkpt><trkpt lat="39.47398793" lon="-0.3678068"><ele>5.6</ele><time>2022-10-31T11:33:15.0000000+00:00</time></trkpt><trkpt lat="39.4739601" lon="-0.36775223"><ele>5.6</ele><time>2022-10-31T11:33:16.0000000+00:00</time></trkpt><trkpt lat="39.47394409" lon="-0.3676949"><ele>5.4</ele><time>2022-10-31T11:33:17.0000000+00:00</time></trkpt><trkpt lat="39.47396044" lon="-0.36759641"><ele>5.4</ele><time>2022-10-31T11:33:18.0000000+00:00</time></trkpt><trkpt lat="39.4739767" lon="-0.36749323"><ele>5.2</ele><time>2022-10-31T11:33:19.0000000+00:00</time></trkpt><trkpt lat="39.47402146" lon="-0.36737949"><ele>5.2</ele><time>2022-10-31T11:33:20.0000000+00:00</time></trkpt><trkpt lat="39.47406747" lon="-0.36729139"><ele>5.2</ele><time>2022-10-31T11:33:21.0000000+00:00</time></trkpt><trkpt lat="39.47410653" lon="-0.36722149"><ele>5.2</ele><time>2022-10-31T11:33:22.0000000+00:00</time></trkpt><trkpt lat="39.47414895" lon="-0.36713423"><ele>5.2</ele><time>2022-10-31T11:33:23.0000000+00:00</time></trkpt><trkpt lat="39.4741787" lon="-0.36705041"><ele>5.2</ele><time>2022-10-31T11:33:24.0000000+00:00</time></trkpt><trkpt lat="39.47419002" lon="-0.36697523"><ele>5.2</ele><time>2022-10-31T11:33:25.0000000+00:00</time></trkpt><trkpt lat="39.47417376" lon="-0.36691714"><ele>5.2</ele><time>2022-10-31T11:33:26.0000000+00:00</time></trkpt><trkpt lat="39.47412062" lon="-0.36686509"><ele>5.2</ele><time>2022-10-31T11:33:27.0000000+00:00</time></trkpt><trkpt lat="39.47407829" lon="-0.36683491"><ele>4.8</ele><time>2022-10-31T11:33:28.0000000+00:00</time></trkpt><trkpt lat="39.47401073" lon="-0.36678286"><ele>4.8</ele><time>2022-10-31T11:33:29.0000000+00:00</time></trkpt><trkpt lat="39.47396161" lon="-0.36674297"><ele>4.6</ele><time>2022-10-31T11:33:30.0000000+00:00</time></trkpt><trkpt lat="39.47389808" lon="-0.36669175"><ele>4.6</ele><time>2022-10-31T11:33:31.0000000+00:00</time></trkpt><trkpt lat="39.47383991" lon="-0.36662981"><ele>4.6</ele><time>2022-10-31T11:33:32.0000000+00:00</time></trkpt><trkpt lat="39.47379054" lon="-0.3665703"><ele>4.6</ele><time>2022-10-31T11:33:33.0000000+00:00</time></trkpt><trkpt lat="39.47373211" lon="-0.36651598"><ele>4.8</ele><time>2022-10-31T11:33:34.0000000+00:00</time></trkpt><trkpt lat="39.47367017" lon="-0.36646904"><ele>4.8</ele><time>2022-10-31T11:33:35.0000000+00:00</time></trkpt><trkpt lat="39.47360798" lon="-0.3664263"><ele>5.0</ele><time>2022-10-31T11:33:36.0000000+00:00</time></trkpt><trkpt lat="39.47354687" lon="-0.36637844"><ele>5.0</ele><time>2022-10-31T11:33:37.0000000+00:00</time></trkpt><trkpt lat="39.47348426" lon="-0.36632873"><ele>5.0</ele><time>2022-10-31T11:33:38.0000000+00:00</time></trkpt><trkpt lat="39.47342039" lon="-0.36628137"><ele>5.0</ele><time>2022-10-31T11:33:39.0000000+00:00</time></trkpt><trkpt lat="39.47336029" lon="-0.36624692"><ele>4.8</ele><time>2022-10-31T11:33:40.0000000+00:00</time></trkpt><trkpt lat="39.47330464" lon="-0.36622136"><ele>4.8</ele><time>2022-10-31T11:33:41.0000000+00:00</time></trkpt><trkpt lat="39.47325141" lon="-0.36618465"><ele>4.8</ele><time>2022-10-31T11:33:42.0000000+00:00</time></trkpt><trkpt lat="39.47319534" lon="-0.36614467"><ele>4.6</ele><time>2022-10-31T11:33:43.0000000+00:00</time></trkpt><trkpt lat="39.47316223" lon="-0.36611994"><ele>4.4</ele><time>2022-10-31T11:33:44.0000000+00:00</time></trkpt><trkpt lat="39.47311856" lon="-0.36609421"><ele>4.4</ele><time>2022-10-31T11:33:45.0000000+00:00</time></trkpt><trkpt lat="39.47309299" lon="-0.36608247"><ele>4.4</ele><time>2022-10-31T11:33:46.0000000+00:00</time></trkpt><trkpt lat="39.47305796" lon="-0.36608356"><ele>4.2</ele><time>2022-10-31T11:33:47.0000000+00:00</time></trkpt><trkpt lat="39.47300582" lon="-0.36616646"><ele>4.2</ele><time>2022-10-31T11:33:48.0000000+00:00</time></trkpt><trkpt lat="39.47294531" lon="-0.36618808"><ele>4.2</ele><time>2022-10-31T11:33:49.0000000+00:00</time></trkpt><trkpt lat="39.47289661" lon="-0.36621164"><ele>4.2</ele><time>2022-10-31T11:33:50.0000000+00:00</time></trkpt><trkpt lat="39.47282142" lon="-0.36625036"><ele>4.2</ele><time>2022-10-31T11:33:51.0000000+00:00</time></trkpt><trkpt lat="39.4727692" lon="-0.36628087"><ele>4.0</ele><time>2022-10-31T11:33:52.0000000+00:00</time></trkpt><trkpt lat="39.47270516" lon="-0.36633418"><ele>4.0</ele><time>2022-10-31T11:33:53.0000000+00:00</time></trkpt><trkpt lat="39.47265948" lon="-0.36639855"><ele>4.0</ele><time>2022-10-31T11:33:54.0000000+00:00</time></trkpt><trkpt lat="39.47261196" lon="-0.36644658"><ele>4.0</ele><time>2022-10-31T11:33:55.0000000+00:00</time></trkpt><trkpt lat="39.47255982" lon="-0.36646863"><ele>4.0</ele><time>2022-10-31T11:33:56.0000000+00:00</time></trkpt><trkpt lat="39.47250978" lon="-0.36645773"><ele>4.0</ele><time>2022-10-31T11:33:57.0000000+00:00</time></trkpt><trkpt lat="39.47246075" lon="-0.36643837"><ele>4.2</ele><time>2022-10-31T11:33:58.0000000+00:00</time></trkpt><trkpt lat="39.47241146" lon="-0.36642504"><ele>4.2</ele><time>2022-10-31T11:33:59.0000000+00:00</time></trkpt><trkpt lat="39.47235891" lon="-0.36639746"><ele>4.2</ele><time>2022-10-31T11:34:00.0000000+00:00</time></trkpt><trkpt lat="39.47229873" lon="-0.3663615"><ele>4.4</ele><time>2022-10-31T11:34:01.0000000+00:00</time></trkpt><trkpt lat="39.47224382" lon="-0.36631431"><ele>4.6</ele><time>2022-10-31T11:34:02.0000000+00:00</time></trkpt><trkpt lat="39.47218465" lon="-0.36625229"><ele>4.8</ele><time>2022-10-31T11:34:03.0000000+00:00</time></trkpt><trkpt lat="39.47213209" lon="-0.3661968"><ele>4.8</ele><time>2022-10-31T11:34:04.0000000+00:00</time></trkpt><trkpt lat="39.47207954" lon="-0.36614391"><ele>5.0</ele><time>2022-10-31T11:34:05.0000000+00:00</time></trkpt><trkpt lat="39.47202422" lon="-0.3660963"><ele>5.0</ele><time>2022-10-31T11:34:06.0000000+00:00</time></trkpt><trkpt lat="39.47196219" lon="-0.36605925"><ele>5.0</ele><time>2022-10-31T11:34:07.0000000+00:00</time></trkpt><trkpt lat="39.4719005" lon="-0.3660321"><ele>5.0</ele><time>2022-10-31T11:34:08.0000000+00:00</time></trkpt><trkpt lat="39.47184124" lon="-0.36600033"><ele>5.0</ele><time>2022-10-31T11:34:09.0000000+00:00</time></trkpt><trkpt lat="39.47178307" lon="-0.36595356"><ele>4.8</ele><time>2022-10-31T11:34:10.0000000+00:00</time></trkpt><trkpt lat="39.47172398" lon="-0.36590578"><ele>4.8</ele><time>2022-10-31T11:34:11.0000000+00:00</time></trkpt><trkpt lat="39.47165223" lon="-0.3658451"><ele>4.8</ele><time>2022-10-31T11:34:12.0000000+00:00</time></trkpt><trkpt lat="39.47160387" lon="-0.36580009"><ele>4.8</ele><time>2022-10-31T11:34:13.0000000+00:00</time></trkpt><trkpt lat="39.47154678" lon="-0.36575289"><ele>4.8</ele><time>2022-10-31T11:34:14.0000000+00:00</time></trkpt><trkpt lat="39.47149029" lon="-0.36571434"><ele>5.0</ele><time>2022-10-31T11:34:15.0000000+00:00</time></trkpt><trkpt lat="39.47143153" lon="-0.36567402"><ele>5.0</ele><time>2022-10-31T11:34:16.0000000+00:00</time></trkpt><trkpt lat="39.47137236" lon="-0.36562675"><ele>5.0</ele><time>2022-10-31T11:34:17.0000000+00:00</time></trkpt><trkpt lat="39.47131469" lon="-0.36558777"><ele>5.0</ele><time>2022-10-31T11:34:18.0000000+00:00</time></trkpt><trkpt lat="39.47125392" lon="-0.36554276"><ele>5.0</ele><time>2022-10-31T11:34:19.0000000+00:00</time></trkpt><trkpt lat="39.47118645" lon="-0.36550186"><ele>5.0</ele><time>2022-10-31T11:34:20.0000000+00:00</time></trkpt><trkpt lat="39.47111026" lon="-0.36546439"><ele>5.0</ele><time>2022-10-31T11:34:21.0000000+00:00</time></trkpt><trkpt lat="39.47103448" lon="-0.36542625"><ele>4.8</ele><time>2022-10-31T11:34:22.0000000+00:00</time></trkpt><trkpt lat="39.47096014" lon="-0.36536054"><ele>4.6</ele><time>2022-10-31T11:34:23.0000000+00:00</time></trkpt><trkpt lat="39.47091714" lon="-0.36529985"><ele>4.4</ele><time>2022-10-31T11:34:24.0000000+00:00</time></trkpt><trkpt lat="39.47085863" lon="-0.36524252"><ele>4.4</ele><time>2022-10-31T11:34:25.0000000+00:00</time></trkpt><trkpt lat="39.47080289" lon="-0.36520388"><ele>4.2</ele><time>2022-10-31T11:34:26.0000000+00:00</time></trkpt><trkpt lat="39.47075092" lon="-0.36517706"><ele>4.2</ele><time>2022-10-31T11:34:27.0000000+00:00</time></trkpt><trkpt lat="39.47069963" lon="-0.36515141"><ele>4.0</ele><time>2022-10-31T11:34:28.0000000+00:00</time></trkpt><trkpt lat="39.47064657" lon="-0.36511763"><ele>4.0</ele><time>2022-10-31T11:34:29.0000000+00:00</time></trkpt><trkpt lat="39.47059066" lon="-0.36507254"><ele>4.0</ele><time>2022-10-31T11:34:30.0000000+00:00</time></trkpt><trkpt lat="39.47054724" lon="-0.36496894"><ele>4.0</ele><time>2022-10-31T11:34:31.0000000+00:00</time></trkpt><trkpt lat="39.47047281" lon="-0.36486944"><ele>4.0</ele><time>2022-10-31T11:34:32.0000000+00:00</time></trkpt><trkpt lat="39.47040441" lon="-0.364778"><ele>4.0</ele><time>2022-10-31T11:34:33.0000000+00:00</time></trkpt><trkpt lat="39.47032948" lon="-0.36471228"><ele>4.0</ele><time>2022-10-31T11:34:34.0000000+00:00</time></trkpt><trkpt lat="39.47025287" lon="-0.36466132"><ele>4.0</ele><time>2022-10-31T11:34:35.0000000+00:00</time></trkpt><trkpt lat="39.47016528" lon="-0.3646298"><ele>3.8</ele><time>2022-10-31T11:34:36.0000000+00:00</time></trkpt><trkpt lat="39.47006" lon="-0.36461053"><ele>3.8</ele><time>2022-10-31T11:34:37.0000000+00:00</time></trkpt><trkpt lat="39.4699963" lon="-0.36457214"><ele>3.8</ele><time>2022-10-31T11:34:38.0000000+00:00</time></trkpt><trkpt lat="39.46993235" lon="-0.36452671"><ele>3.8</ele><time>2022-10-31T11:34:39.0000000+00:00</time></trkpt><trkpt lat="39.46986403" lon="-0.36448798"><ele>3.8</ele><time>2022-10-31T11:34:40.0000000+00:00</time></trkpt><trkpt lat="39.46978868" lon="-0.36444071"><ele>3.6</ele><time>2022-10-31T11:34:41.0000000+00:00</time></trkpt><trkpt lat="39.46971551" lon="-0.364391"><ele>3.4</ele><time>2022-10-31T11:34:42.0000000+00:00</time></trkpt><trkpt lat="39.46964837" lon="-0.36433753"><ele>3.4</ele><time>2022-10-31T11:34:43.0000000+00:00</time></trkpt><trkpt lat="39.46959623" lon="-0.36428866"><ele>3.4</ele><time>2022-10-31T11:34:44.0000000+00:00</time></trkpt><trkpt lat="39.4695415" lon="-0.36424415"><ele>3.2</ele><time>2022-10-31T11:34:45.0000000+00:00</time></trkpt><trkpt lat="39.46948308" lon="-0.36420149"><ele>3.2</ele><time>2022-10-31T11:34:46.0000000+00:00</time></trkpt><trkpt lat="39.46942625" lon="-0.36415522"><ele>3.2</ele><time>2022-10-31T11:34:47.0000000+00:00</time></trkpt><trkpt lat="39.46935441" lon="-0.36411893"><ele>3.2</ele><time>2022-10-31T11:34:48.0000000+00:00</time></trkpt><trkpt lat="39.46928811" lon="-0.36408188"><ele>3.2</ele><time>2022-10-31T11:34:49.0000000+00:00</time></trkpt><trkpt lat="39.46922944" lon="-0.36403636"><ele>3.2</ele><time>2022-10-31T11:34:50.0000000+00:00</time></trkpt><trkpt lat="39.46917915" lon="-0.36398624"><ele>3.0</ele><time>2022-10-31T11:34:51.0000000+00:00</time></trkpt><trkpt lat="39.46913179" lon="-0.36393754"><ele>3.2</ele><time>2022-10-31T11:34:52.0000000+00:00</time></trkpt><trkpt lat="39.46907345" lon="-0.36388985"><ele>3.2</ele><time>2022-10-31T11:34:53.0000000+00:00</time></trkpt><trkpt lat="39.46901386" lon="-0.36385012"><ele>3.0</ele><time>2022-10-31T11:34:54.0000000+00:00</time></trkpt><trkpt lat="39.4689489" lon="-0.36381114"><ele>3.2</ele><time>2022-10-31T11:34:55.0000000+00:00</time></trkpt><trkpt lat="39.46887656" lon="-0.36376446"><ele>3.2</ele><time>2022-10-31T11:34:56.0000000+00:00</time></trkpt><trkpt lat="39.46882459" lon="-0.36372431"><ele>3.2</ele><time>2022-10-31T11:34:57.0000000+00:00</time></trkpt><trkpt lat="39.4687598" lon="-0.36367343"><ele>3.2</ele><time>2022-10-31T11:34:58.0000000+00:00</time></trkpt><trkpt lat="39.46868177" lon="-0.36361291"><ele>3.2</ele><time>2022-10-31T11:34:59.0000000+00:00</time></trkpt><trkpt lat="39.46862946" lon="-0.36357293"><ele>3.2</ele><time>2022-10-31T11:35:00.0000000+00:00</time></trkpt><trkpt lat="39.46855922" lon="-0.36352239"><ele>3.2</ele><time>2022-10-31T11:35:01.0000000+00:00</time></trkpt><trkpt lat="39.46855679" lon="-0.36358592"><ele>3.0</ele><time>2022-10-31T11:35:02.0000000+00:00</time></trkpt><trkpt lat="39.46852787" lon="-0.36358517"><ele>3.0</ele><time>2022-10-31T11:35:03.0000000+00:00</time></trkpt><trkpt lat="39.46850382" lon="-0.3635513"><ele>2.8</ele><time>2022-10-31T11:35:04.0000000+00:00</time></trkpt><trkpt lat="39.46846685" lon="-0.36352339"><ele>2.8</ele><time>2022-10-31T11:35:05.0000000+00:00</time></trkpt><trkpt lat="39.46843073" lon="-0.36350596"><ele>2.8</ele><time>2022-10-31T11:35:06.0000000+00:00</time></trkpt><trkpt lat="39.46840022" lon="-0.36349171"><ele>2.6</ele><time>2022-10-31T11:35:07.0000000+00:00</time></trkpt><trkpt lat="39.46836376" lon="-0.3634622"><ele>2.6</ele><time>2022-10-31T11:35:08.0000000+00:00</time></trkpt><trkpt lat="39.46831632" lon="-0.36343723"><ele>2.6</ele><time>2022-10-31T11:35:09.0000000+00:00</time></trkpt><trkpt lat="39.46828069" lon="-0.36341443"><ele>2.4</ele><time>2022-10-31T11:35:10.0000000+00:00</time></trkpt><trkpt lat="39.46825001" lon="-0.36339649"><ele>2.4</ele><time>2022-10-31T11:35:11.0000000+00:00</time></trkpt><trkpt lat="39.46820794" lon="-0.36337763"><ele>2.4</ele><time>2022-10-31T11:35:12.0000000+00:00</time></trkpt><trkpt lat="39.46817726" lon="-0.36336011"><ele>2.2</ele><time>2022-10-31T11:35:13.0000000+00:00</time></trkpt><trkpt lat="39.46814524" lon="-0.36333648"><ele>2.2</ele><time>2022-10-31T11:35:14.0000000+00:00</time></trkpt><trkpt lat="39.4681211" lon="-0.36331359"><ele>2.2</ele><time>2022-10-31T11:35:15.0000000+00:00</time></trkpt><trkpt lat="39.46808715" lon="-0.36328141"><ele>2.2</ele><time>2022-10-31T11:35:16.0000000+00:00</time></trkpt><trkpt lat="39.46804265" lon="-0.36324914"><ele>2.6</ele><time>2022-10-31T11:35:17.0000000+00:00</time></trkpt><trkpt lat="39.46799051" lon="-0.36321569"><ele>2.8</ele><time>2022-10-31T11:35:18.0000000+00:00</time></trkpt><trkpt lat="39.46791021" lon="-0.36317579"><ele>2.8</ele><time>2022-10-31T11:35:19.0000000+00:00</time></trkpt><trkpt lat="39.46785053" lon="-0.36314436"><ele>3.0</ele><time>2022-10-31T11:35:20.0000000+00:00</time></trkpt><trkpt lat="39.46779974" lon="-0.36311285"><ele>3.0</ele><time>2022-10-31T11:35:21.0000000+00:00</time></trkpt><trkpt lat="39.46775498" lon="-0.36308921"><ele>3.0</ele><time>2022-10-31T11:35:22.0000000+00:00</time></trkpt><trkpt lat="39.46770427" lon="-0.36306264"><ele>3.0</ele><time>2022-10-31T11:35:23.0000000+00:00</time></trkpt><trkpt lat="39.46765247" lon="-0.3630364"><ele>3.0</ele><time>2022-10-31T11:35:24.0000000+00:00</time></trkpt><trkpt lat="39.46759891" lon="-0.36301369"><ele>3.0</ele><time>2022-10-31T11:35:25.0000000+00:00</time></trkpt><trkpt lat="39.46753202" lon="-0.36297974"><ele>3.0</ele><time>2022-10-31T11:35:26.0000000+00:00</time></trkpt><trkpt lat="39.46748651" lon="-0.36295728"><ele>3.0</ele><time>2022-10-31T11:35:27.0000000+00:00</time></trkpt><trkpt lat="39.46743152" lon="-0.36293021"><ele>3.0</ele><time>2022-10-31T11:35:28.0000000+00:00</time></trkpt><trkpt lat="39.46737444" lon="-0.36289995"><ele>3.0</ele><time>2022-10-31T11:35:29.0000000+00:00</time></trkpt><trkpt lat="39.46731694" lon="-0.36286726"><ele>3.0</ele><time>2022-10-31T11:35:30.0000000+00:00</time></trkpt><trkpt lat="39.46725952" lon="-0.36283021"><ele>3.0</ele><time>2022-10-31T11:35:31.0000000+00:00</time></trkpt><trkpt lat="39.46720337" lon="-0.36278838"><ele>2.8</ele><time>2022-10-31T11:35:32.0000000+00:00</time></trkpt><trkpt lat="39.4671462" lon="-0.36274823"><ele>2.8</ele><time>2022-10-31T11:35:33.0000000+00:00</time></trkpt><trkpt lat="39.46708853" lon="-0.36271236"><ele>3.0</ele><time>2022-10-31T11:35:34.0000000+00:00</time></trkpt><trkpt lat="39.46703405" lon="-0.36268135"><ele>3.2</ele><time>2022-10-31T11:35:35.0000000+00:00</time></trkpt><trkpt lat="39.4669758" lon="-0.36265151"><ele>3.2</ele><time>2022-10-31T11:35:36.0000000+00:00</time></trkpt><trkpt lat="39.46691947" lon="-0.36261697"><ele>3.2</ele><time>2022-10-31T11:35:37.0000000+00:00</time></trkpt><trkpt lat="39.46685895" lon="-0.36258009"><ele>3.2</ele><time>2022-10-31T11:35:38.0000000+00:00</time></trkpt><trkpt lat="39.46678855" lon="-0.36254246"><ele>3.2</ele><time>2022-10-31T11:35:39.0000000+00:00</time></trkpt><trkpt lat="39.46673892" lon="-0.36251731"><ele>3.2</ele><time>2022-10-31T11:35:40.0000000+00:00</time></trkpt><trkpt lat="39.46667832" lon="-0.36248202"><ele>3.2</ele><time>2022-10-31T11:35:41.0000000+00:00</time></trkpt><trkpt lat="39.46661823" lon="-0.36244565"><ele>3.2</ele><time>2022-10-31T11:35:42.0000000+00:00</time></trkpt><trkpt lat="39.46655863" lon="-0.36241002"><ele>3.2</ele><time>2022-10-31T11:35:43.0000000+00:00</time></trkpt><trkpt lat="39.46649887" lon="-0.36237457"><ele>3.2</ele><time>2022-10-31T11:35:44.0000000+00:00</time></trkpt><trkpt lat="39.46643919" lon="-0.36233962"><ele>3.2</ele><time>2022-10-31T11:35:45.0000000+00:00</time></trkpt><trkpt lat="39.46638102" lon="-0.36230232"><ele>3.2</ele><time>2022-10-31T11:35:46.0000000+00:00</time></trkpt><trkpt lat="39.46632402" lon="-0.3622656"><ele>3.2</ele><time>2022-10-31T11:35:47.0000000+00:00</time></trkpt><trkpt lat="39.46626669" lon="-0.36222336"><ele>3.0</ele><time>2022-10-31T11:35:48.0000000+00:00</time></trkpt><trkpt lat="39.46620047" lon="-0.36216561"><ele>3.0</ele><time>2022-10-31T11:35:49.0000000+00:00</time></trkpt><trkpt lat="39.46614775" lon="-0.36211557"><ele>2.8</ele><time>2022-10-31T11:35:50.0000000+00:00</time></trkpt><trkpt lat="39.46609536" lon="-0.36207173"><ele>2.8</ele><time>2022-10-31T11:35:51.0000000+00:00</time></trkpt><trkpt lat="39.46603786" lon="-0.36203477"><ele>2.8</ele><time>2022-10-31T11:35:52.0000000+00:00</time></trkpt><trkpt lat="39.46597961" lon="-0.36199931"><ele>2.8</ele><time>2022-10-31T11:35:53.0000000+00:00</time></trkpt><trkpt lat="39.46591775" lon="-0.36196687"><ele>2.8</ele><time>2022-10-31T11:35:54.0000000+00:00</time></trkpt><trkpt lat="39.46585706" lon="-0.36193058"><ele>2.8</ele><time>2022-10-31T11:35:55.0000000+00:00</time></trkpt><trkpt lat="39.46579638" lon="-0.36189253"><ele>2.8</ele><time>2022-10-31T11:35:56.0000000+00:00</time></trkpt><trkpt lat="39.46573972" lon="-0.36185397"><ele>2.8</ele><time>2022-10-31T11:35:57.0000000+00:00</time></trkpt><trkpt lat="39.46568121" lon="-0.36181592"><ele>2.8</ele><time>2022-10-31T11:35:58.0000000+00:00</time></trkpt><trkpt lat="39.46561944" lon="-0.36178004"><ele>3.0</ele><time>2022-10-31T11:35:59.0000000+00:00</time></trkpt><trkpt lat="39.46556127" lon="-0.36174844"><ele>3.0</ele><time>2022-10-31T11:36:00.0000000+00:00</time></trkpt><trkpt lat="39.46551709" lon="-0.3617305"><ele>3.0</ele><time>2022-10-31T11:36:01.0000000+00:00</time></trkpt><trkpt lat="39.4654435" lon="-0.36169949"><ele>3.0</ele><time>2022-10-31T11:36:02.0000000+00:00</time></trkpt><trkpt lat="39.46537762" lon="-0.36166437"><ele>2.8</ele><time>2022-10-31T11:36:03.0000000+00:00</time></trkpt><trkpt lat="39.46531308" lon="-0.36162707"><ele>2.8</ele><time>2022-10-31T11:36:04.0000000+00:00</time></trkpt><trkpt lat="39.46525122" lon="-0.36158516"><ele>2.8</ele><time>2022-10-31T11:36:05.0000000+00:00</time></trkpt><trkpt lat="39.46520411" lon="-0.36154761"><ele>2.6</ele><time>2022-10-31T11:36:06.0000000+00:00</time></trkpt><trkpt lat="39.46513237" lon="-0.36149807"><ele>2.8</ele><time>2022-10-31T11:36:07.0000000+00:00</time></trkpt><trkpt lat="39.46508425" lon="-0.36147368"><ele>2.8</ele><time>2022-10-31T11:36:08.0000000+00:00</time></trkpt><trkpt lat="39.46500798" lon="-0.36142934"><ele>2.8</ele><time>2022-10-31T11:36:09.0000000+00:00</time></trkpt><trkpt lat="39.46494671" lon="-0.36139179"><ele>2.8</ele><time>2022-10-31T11:36:10.0000000+00:00</time></trkpt><trkpt lat="39.46490027" lon="-0.3613643"><ele>3.0</ele><time>2022-10-31T11:36:11.0000000+00:00</time></trkpt><trkpt lat="39.46484973" lon="-0.36134049"><ele>3.0</ele><time>2022-10-31T11:36:12.0000000+00:00</time></trkpt><trkpt lat="39.46478611" lon="-0.36130252"><ele>3.0</ele><time>2022-10-31T11:36:13.0000000+00:00</time></trkpt><trkpt lat="39.46472341" lon="-0.36126036"><ele>3.0</ele><time>2022-10-31T11:36:14.0000000+00:00</time></trkpt><trkpt lat="39.4646629" lon="-0.36121518"><ele>3.0</ele><time>2022-10-31T11:36:15.0000000+00:00</time></trkpt><trkpt lat="39.46460154" lon="-0.36117571"><ele>3.0</ele><time>2022-10-31T11:36:16.0000000+00:00</time></trkpt><trkpt lat="39.46453951" lon="-0.36113924"><ele>3.0</ele><time>2022-10-31T11:36:17.0000000+00:00</time></trkpt><trkpt lat="39.46446626" lon="-0.3610949"><ele>2.8</ele><time>2022-10-31T11:36:18.0000000+00:00</time></trkpt><trkpt lat="39.46441722" lon="-0.36106691"><ele>2.6</ele><time>2022-10-31T11:36:19.0000000+00:00</time></trkpt><trkpt lat="39.46434941" lon="-0.36102533"><ele>2.2</ele><time>2022-10-31T11:36:20.0000000+00:00</time></trkpt><trkpt lat="39.46428848" lon="-0.36099508"><ele>2.0</ele><time>2022-10-31T11:36:21.0000000+00:00</time></trkpt><trkpt lat="39.46422285" lon="-0.36096624"><ele>2.2</ele><time>2022-10-31T11:36:22.0000000+00:00</time></trkpt><trkpt lat="39.46415906" lon="-0.36093808"><ele>2.2</ele><time>2022-10-31T11:36:23.0000000+00:00</time></trkpt><trkpt lat="39.46410726" lon="-0.36091729"><ele>2.4</ele><time>2022-10-31T11:36:24.0000000+00:00</time></trkpt><trkpt lat="39.46404423" lon="-0.3608867"><ele>2.4</ele><time>2022-10-31T11:36:25.0000000+00:00</time></trkpt><trkpt lat="39.4639791" lon="-0.36085443"><ele>2.6</ele><time>2022-10-31T11:36:26.0000000+00:00</time></trkpt><trkpt lat="39.46391255" lon="-0.36082283"><ele>2.6</ele><time>2022-10-31T11:36:27.0000000+00:00</time></trkpt><trkpt lat="39.46383527" lon="-0.36079089"><ele>2.6</ele><time>2022-10-31T11:36:28.0000000+00:00</time></trkpt><trkpt lat="39.46377047" lon="-0.36076566"><ele>2.6</ele><time>2022-10-31T11:36:29.0000000+00:00</time></trkpt><trkpt lat="39.46370535" lon="-0.36073918"><ele>2.6</ele><time>2022-10-31T11:36:30.0000000+00:00</time></trkpt><trkpt lat="39.46363879" lon="-0.36070875"><ele>2.6</ele><time>2022-10-31T11:36:31.0000000+00:00</time></trkpt><trkpt lat="39.46357409" lon="-0.36067899"><ele>2.8</ele><time>2022-10-31T11:36:32.0000000+00:00</time></trkpt><trkpt lat="39.46351214" lon="-0.36065376"><ele>2.8</ele><time>2022-10-31T11:36:33.0000000+00:00</time></trkpt><trkpt lat="39.46344869" lon="-0.36062988"><ele>2.8</ele><time>2022-10-31T11:36:34.0000000+00:00</time></trkpt><trkpt lat="39.46339153" lon="-0.36061177"><ele>2.6</ele><time>2022-10-31T11:36:35.0000000+00:00</time></trkpt><trkpt lat="39.46331098" lon="-0.36058839"><ele>2.6</ele><time>2022-10-31T11:36:36.0000000+00:00</time></trkpt><trkpt lat="39.46325717" lon="-0.36057296"><ele>2.6</ele><time>2022-10-31T11:36:37.0000000+00:00</time></trkpt><trkpt lat="39.46318978" lon="-0.3605536"><ele>2.6</ele><time>2022-10-31T11:36:38.0000000+00:00</time></trkpt><trkpt lat="39.46310864" lon="-0.36052954"><ele>2.4</ele><time>2022-10-31T11:36:39.0000000+00:00</time></trkpt><trkpt lat="39.46304561" lon="-0.36051043"><ele>2.4</ele><time>2022-10-31T11:36:40.0000000+00:00</time></trkpt><trkpt lat="39.46299791" lon="-0.36049535"><ele>2.4</ele><time>2022-10-31T11:36:41.0000000+00:00</time></trkpt><trkpt lat="39.46292801" lon="-0.36045981"><ele>2.4</ele><time>2022-10-31T11:36:42.0000000+00:00</time></trkpt><trkpt lat="39.46288107" lon="-0.36042879"><ele>2.6</ele><time>2022-10-31T11:36:43.0000000+00:00</time></trkpt><trkpt lat="39.46282424" lon="-0.36038923"><ele>2.6</ele><time>2022-10-31T11:36:44.0000000+00:00</time></trkpt><trkpt lat="39.46277387" lon="-0.36035864"><ele>2.4</ele><time>2022-10-31T11:36:45.0000000+00:00</time></trkpt><trkpt lat="39.46272064" lon="-0.36033089"><ele>2.4</ele><time>2022-10-31T11:36:46.0000000+00:00</time></trkpt><trkpt lat="39.46267068" lon="-0.36031421"><ele>2.4</ele><time>2022-10-31T11:36:47.0000000+00:00</time></trkpt><trkpt lat="39.46261235" lon="-0.36028563"><ele>2.4</ele><time>2022-10-31T11:36:48.0000000+00:00</time></trkpt><trkpt lat="39.46253833" lon="-0.36025303"><ele>2.4</ele><time>2022-10-31T11:36:49.0000000+00:00</time></trkpt><trkpt lat="39.46248042" lon="-0.36024448"><ele>2.6</ele><time>2022-10-31T11:36:50.0000000+00:00</time></trkpt><trkpt lat="39.46242065" lon="-0.36023961"><ele>2.8</ele><time>2022-10-31T11:36:51.0000000+00:00</time></trkpt><trkpt lat="39.46236097" lon="-0.36022117"><ele>3.0</ele><time>2022-10-31T11:36:52.0000000+00:00</time></trkpt><trkpt lat="39.46230096" lon="-0.36019946"><ele>3.0</ele><time>2022-10-31T11:36:53.0000000+00:00</time></trkpt><trkpt lat="39.4622241" lon="-0.36016753"><ele>3.2</ele><time>2022-10-31T11:36:54.0000000+00:00</time></trkpt><trkpt lat="39.46216266" lon="-0.36013643"><ele>3.2</ele><time>2022-10-31T11:36:55.0000000+00:00</time></trkpt><trkpt lat="39.46211941" lon="-0.36013484"><ele>3.2</ele><time>2022-10-31T11:36:56.0000000+00:00</time></trkpt><trkpt lat="39.46204724" lon="-0.36010383"><ele>3.2</ele><time>2022-10-31T11:36:57.0000000+00:00</time></trkpt><trkpt lat="39.46199913" lon="-0.36008279"><ele>3.2</ele><time>2022-10-31T11:36:58.0000000+00:00</time></trkpt><trkpt lat="39.46193978" lon="-0.36005647"><ele>3.4</ele><time>2022-10-31T11:36:59.0000000+00:00</time></trkpt><trkpt lat="39.46187558" lon="-0.36003602"><ele>3.4</ele><time>2022-10-31T11:37:00.0000000+00:00</time></trkpt><trkpt lat="39.46180165" lon="-0.36001649"><ele>3.4</ele><time>2022-10-31T11:37:01.0000000+00:00</time></trkpt><trkpt lat="39.46168204" lon="-0.36000408"><ele>3.6</ele><time>2022-10-31T11:37:02.0000000+00:00</time></trkpt><trkpt lat="39.46157123" lon="-0.3599781"><ele>3.6</ele><time>2022-10-31T11:37:03.0000000+00:00</time></trkpt><trkpt lat="39.46151189" lon="-0.35994985"><ele>3.8</ele><time>2022-10-31T11:37:04.0000000+00:00</time></trkpt><trkpt lat="39.46144978" lon="-0.35991817"><ele>3.8</ele><time>2022-10-31T11:37:05.0000000+00:00</time></trkpt><trkpt lat="39.46139479" lon="-0.35989881"><ele>3.8</ele><time>2022-10-31T11:37:06.0000000+00:00</time></trkpt><trkpt lat="39.4613388" lon="-0.3598719"><ele>3.8</ele><time>2022-10-31T11:37:07.0000000+00:00</time></trkpt><trkpt lat="39.46125976" lon="-0.35981457"><ele>3.8</ele><time>2022-10-31T11:37:08.0000000+00:00</time></trkpt><trkpt lat="39.46120746" lon="-0.35976662"><ele>3.8</ele><time>2022-10-31T11:37:09.0000000+00:00</time></trkpt><trkpt lat="39.46113981" lon="-0.35970619"><ele>3.8</ele><time>2022-10-31T11:37:10.0000000+00:00</time></trkpt><trkpt lat="39.46105449" lon="-0.35964299"><ele>4.0</ele><time>2022-10-31T11:37:11.0000000+00:00</time></trkpt><trkpt lat="39.46099355" lon="-0.3595844"><ele>4.0</ele><time>2022-10-31T11:37:12.0000000+00:00</time></trkpt><trkpt lat="39.46094317" lon="-0.35952045"><ele>3.8</ele><time>2022-10-31T11:37:13.0000000+00:00</time></trkpt><trkpt lat="39.46090462" lon="-0.3594782"><ele>3.6</ele><time>2022-10-31T11:37:14.0000000+00:00</time></trkpt><trkpt lat="39.46087997" lon="-0.35945138"><ele>3.4</ele><time>2022-10-31T11:37:15.0000000+00:00</time></trkpt><trkpt lat="39.46085357" lon="-0.35942523"><ele>3.4</ele><time>2022-10-31T11:37:16.0000000+00:00</time></trkpt><trkpt lat="39.46082834" lon="-0.35940302"><ele>3.0</ele><time>2022-10-31T11:37:17.0000000+00:00</time></trkpt><trkpt lat="39.46080973" lon="-0.35938642"><ele>2.8</ele><time>2022-10-31T11:37:18.0000000+00:00</time></trkpt><trkpt lat="39.46079339" lon="-0.35936873"><ele>2.8</ele><time>2022-10-31T11:37:19.0000000+00:00</time></trkpt><trkpt lat="39.46077243" lon="-0.35934426"><ele>2.6</ele><time>2022-10-31T11:37:20.0000000+00:00</time></trkpt><trkpt lat="39.46075928" lon="-0.35932951"><ele>2.6</ele><time>2022-10-31T11:37:21.0000000+00:00</time></trkpt><trkpt lat="39.460726" lon="-0.35929573"><ele>2.8</ele><time>2022-10-31T11:37:22.0000000+00:00</time></trkpt><trkpt lat="39.46066313" lon="-0.35926103"><ele>2.8</ele><time>2022-10-31T11:37:23.0000000+00:00</time></trkpt><trkpt lat="39.46060295" lon="-0.35923043"><ele>2.8</ele><time>2022-10-31T11:37:24.0000000+00:00</time></trkpt><trkpt lat="39.46055266" lon="-0.35920177"><ele>2.8</ele><time>2022-10-31T11:37:25.0000000+00:00</time></trkpt><trkpt lat="39.46049617" lon="-0.35916631"><ele>3.0</ele><time>2022-10-31T11:37:26.0000000+00:00</time></trkpt><trkpt lat="39.46044437" lon="-0.35912356"><ele>3.0</ele><time>2022-10-31T11:37:27.0000000+00:00</time></trkpt><trkpt lat="39.46039424" lon="-0.35908006"><ele>3.0</ele><time>2022-10-31T11:37:28.0000000+00:00</time></trkpt><trkpt lat="39.46034429" lon="-0.35904067"><ele>3.2</ele><time>2022-10-31T11:37:29.0000000+00:00</time></trkpt><trkpt lat="39.46029324" lon="-0.35899825"><ele>3.2</ele><time>2022-10-31T11:37:30.0000000+00:00</time></trkpt><trkpt lat="39.46023272" lon="-0.35895006"><ele>3.4</ele><time>2022-10-31T11:37:31.0000000+00:00</time></trkpt><trkpt lat="39.46016852" lon="-0.35890153"><ele>3.4</ele><time>2022-10-31T11:37:32.0000000+00:00</time></trkpt><trkpt lat="39.4600873" lon="-0.35884629"><ele>3.6</ele><time>2022-10-31T11:37:33.0000000+00:00</time></trkpt><trkpt lat="39.46002167" lon="-0.35879751"><ele>3.6</ele><time>2022-10-31T11:37:34.0000000+00:00</time></trkpt><trkpt lat="39.45997414" lon="-0.35876071"><ele>3.4</ele><time>2022-10-31T11:37:35.0000000+00:00</time></trkpt><trkpt lat="39.45991932" lon="-0.35872308"><ele>3.4</ele><time>2022-10-31T11:37:36.0000000+00:00</time></trkpt><trkpt lat="39.45986727" lon="-0.35868569"><ele>3.2</ele><time>2022-10-31T11:37:37.0000000+00:00</time></trkpt><trkpt lat="39.45981581" lon="-0.35864689"><ele>3.0</ele><time>2022-10-31T11:37:38.0000000+00:00</time></trkpt><trkpt lat="39.45976401" lon="-0.3585981"><ele>3.0</ele><time>2022-10-31T11:37:39.0000000+00:00</time></trkpt><trkpt lat="39.45971539" lon="-0.35853901"><ele>3.0</ele><time>2022-10-31T11:37:40.0000000+00:00</time></trkpt><trkpt lat="39.4596708" lon="-0.35847422"><ele>3.0</ele><time>2022-10-31T11:37:41.0000000+00:00</time></trkpt><trkpt lat="39.45962747" lon="-0.35839266"><ele>3.0</ele><time>2022-10-31T11:37:42.0000000+00:00</time></trkpt><trkpt lat="39.45960685" lon="-0.35833223"><ele>3.0</ele><time>2022-10-31T11:37:43.0000000+00:00</time></trkpt><trkpt lat="39.45958472" lon="-0.35825478"><ele>3.0</ele><time>2022-10-31T11:37:44.0000000+00:00</time></trkpt><trkpt lat="39.45956519" lon="-0.35817197"><ele>3.0</ele><time>2022-10-31T11:37:45.0000000+00:00</time></trkpt><trkpt lat="39.45953996" lon="-0.35809058"><ele>3.0</ele><time>2022-10-31T11:37:46.0000000+00:00</time></trkpt><trkpt lat="39.45951766" lon="-0.35801196"><ele>3.0</ele><time>2022-10-31T11:37:47.0000000+00:00</time></trkpt><trkpt lat="39.45948657" lon="-0.35792931"><ele>3.0</ele><time>2022-10-31T11:37:48.0000000+00:00</time></trkpt><trkpt lat="39.45946134" lon="-0.35784633"><ele>3.0</ele><time>2022-10-31T11:37:49.0000000+00:00</time></trkpt><trkpt lat="39.45944005" lon="-0.35776486"><ele>3.0</ele><time>2022-10-31T11:37:50.0000000+00:00</time></trkpt><trkpt lat="39.45942203" lon="-0.35768347"><ele>3.0</ele><time>2022-10-31T11:37:51.0000000+00:00</time></trkpt><trkpt lat="39.45940434" lon="-0.35760443"><ele>3.0</ele><time>2022-10-31T11:37:52.0000000+00:00</time></trkpt><trkpt lat="39.45938632" lon="-0.35752782"><ele>3.0</ele><time>2022-10-31T11:37:53.0000000+00:00</time></trkpt><trkpt lat="39.45937316" lon="-0.35745406"><ele>2.8</ele><time>2022-10-31T11:37:54.0000000+00:00</time></trkpt><trkpt lat="39.45936193" lon="-0.35737644"><ele>2.8</ele><time>2022-10-31T11:37:55.0000000+00:00</time></trkpt><trkpt lat="39.45935229" lon="-0.35730159"><ele>2.8</ele><time>2022-10-31T11:37:56.0000000+00:00</time></trkpt><trkpt lat="39.45933058" lon="-0.35722649"><ele>2.8</ele><time>2022-10-31T11:37:57.0000000+00:00</time></trkpt><trkpt lat="39.45931373" lon="-0.35715222"><ele>2.8</ele><time>2022-10-31T11:37:58.0000000+00:00</time></trkpt><trkpt lat="39.45929588" lon="-0.35707763"><ele>2.8</ele><time>2022-10-31T11:37:59.0000000+00:00</time></trkpt><trkpt lat="39.45928004" lon="-0.35700311"><ele>2.8</ele><time>2022-10-31T11:38:00.0000000+00:00</time></trkpt><trkpt lat="39.45926839" lon="-0.35693589"><ele>2.8</ele><time>2022-10-31T11:38:01.0000000+00:00</time></trkpt><trkpt lat="39.45925816" lon="-0.35686581"><ele>3.0</ele><time>2022-10-31T11:38:02.0000000+00:00</time></trkpt><trkpt lat="39.45924341" lon="-0.35679742"><ele>3.0</ele><time>2022-10-31T11:38:03.0000000+00:00</time></trkpt><trkpt lat="39.4592253" lon="-0.35673623"><ele>2.8</ele><time>2022-10-31T11:38:04.0000000+00:00</time></trkpt><trkpt lat="39.45921038" lon="-0.35668041"><ele>2.6</ele><time>2022-10-31T11:38:05.0000000+00:00</time></trkpt><trkpt lat="39.45919613" lon="-0.356624"><ele>2.4</ele><time>2022-10-31T11:38:06.0000000+00:00</time></trkpt><trkpt lat="39.45918063" lon="-0.3565649"><ele>2.4</ele><time>2022-10-31T11:38:07.0000000+00:00</time></trkpt><trkpt lat="39.45916336" lon="-0.35650422"><ele>2.4</ele><time>2022-10-31T11:38:08.0000000+00:00</time></trkpt><trkpt lat="39.45915087" lon="-0.35644705"><ele>2.4</ele><time>2022-10-31T11:38:09.0000000+00:00</time></trkpt><trkpt lat="39.45913947" lon="-0.35638536"><ele>2.4</ele><time>2022-10-31T11:38:10.0000000+00:00</time></trkpt><trkpt lat="39.45912723" lon="-0.35632703"><ele>2.4</ele><time>2022-10-31T11:38:11.0000000+00:00</time></trkpt><trkpt lat="39.4591176" lon="-0.35627514"><ele>2.4</ele><time>2022-10-31T11:38:12.0000000+00:00</time></trkpt><trkpt lat="39.45910603" lon="-0.35622041"><ele>2.4</ele><time>2022-10-31T11:38:13.0000000+00:00</time></trkpt><trkpt lat="39.45909102" lon="-0.35616106"><ele>2.4</ele><time>2022-10-31T11:38:14.0000000+00:00</time></trkpt><trkpt lat="39.45907267" lon="-0.35609979"><ele>2.4</ele><time>2022-10-31T11:38:15.0000000+00:00</time></trkpt><trkpt lat="39.45905389" lon="-0.35603643"><ele>2.6</ele><time>2022-10-31T11:38:16.0000000+00:00</time></trkpt><trkpt lat="39.45903637" lon="-0.35597297"><ele>2.6</ele><time>2022-10-31T11:38:17.0000000+00:00</time></trkpt><trkpt lat="39.45901643" lon="-0.35590827"><ele>2.6</ele><time>2022-10-31T11:38:18.0000000+00:00</time></trkpt><trkpt lat="39.45900268" lon="-0.35584423"><ele>2.6</ele><time>2022-10-31T11:38:19.0000000+00:00</time></trkpt><trkpt lat="39.45899002" lon="-0.3557739"><ele>2.8</ele><time>2022-10-31T11:38:20.0000000+00:00</time></trkpt><trkpt lat="39.4589741" lon="-0.355704"><ele>2.8</ele><time>2022-10-31T11:38:21.0000000+00:00</time></trkpt><trkpt lat="39.45895457" lon="-0.35563334"><ele>2.8</ele><time>2022-10-31T11:38:22.0000000+00:00</time></trkpt><trkpt lat="39.45892967" lon="-0.3555641"><ele>2.8</ele><time>2022-10-31T11:38:23.0000000+00:00</time></trkpt><trkpt lat="39.45890352" lon="-0.35549512"><ele>2.8</ele><time>2022-10-31T11:38:24.0000000+00:00</time></trkpt><trkpt lat="39.45888357" lon="-0.35542505"><ele>2.8</ele><time>2022-10-31T11:38:25.0000000+00:00</time></trkpt><trkpt lat="39.45886765" lon="-0.35535137"><ele>3.0</ele><time>2022-10-31T11:38:26.0000000+00:00</time></trkpt><trkpt lat="39.45885348" lon="-0.35527459"><ele>3.0</ele><time>2022-10-31T11:38:27.0000000+00:00</time></trkpt><trkpt lat="39.45883253" lon="-0.35521022"><ele>3.0</ele><time>2022-10-31T11:38:28.0000000+00:00</time></trkpt><trkpt lat="39.45879992" lon="-0.3551544"><ele>3.0</ele><time>2022-10-31T11:38:29.0000000+00:00</time></trkpt><trkpt lat="39.45877" lon="-0.35510134"><ele>3.0</ele><time>2022-10-31T11:38:30.0000000+00:00</time></trkpt><trkpt lat="39.45874636" lon="-0.35504007"><ele>3.2</ele><time>2022-10-31T11:38:31.0000000+00:00</time></trkpt><trkpt lat="39.45873203" lon="-0.35497293"><ele>3.2</ele><time>2022-10-31T11:38:32.0000000+00:00</time></trkpt><trkpt lat="39.45872415" lon="-0.35490453"><ele>3.2</ele><time>2022-10-31T11:38:33.0000000+00:00</time></trkpt><trkpt lat="39.45871526" lon="-0.35482868"><ele>3.2</ele><time>2022-10-31T11:38:34.0000000+00:00</time></trkpt><trkpt lat="39.4587016" lon="-0.35475626"><ele>3.2</ele><time>2022-10-31T11:38:35.0000000+00:00</time></trkpt><trkpt lat="39.45867989" lon="-0.35467789"><ele>3.2</ele><time>2022-10-31T11:38:36.0000000+00:00</time></trkpt><trkpt lat="39.458656" lon="-0.35459977"><ele>3.4</ele><time>2022-10-31T11:38:37.0000000+00:00</time></trkpt><trkpt lat="39.45863287" lon="-0.3545167"><ele>3.4</ele><time>2022-10-31T11:38:38.0000000+00:00</time></trkpt><trkpt lat="39.45861066" lon="-0.35443381"><ele>3.4</ele><time>2022-10-31T11:38:39.0000000+00:00</time></trkpt><trkpt lat="39.45858501" lon="-0.35435543"><ele>3.4</ele><time>2022-10-31T11:38:40.0000000+00:00</time></trkpt><trkpt lat="39.45856028" lon="-0.35428754"><ele>3.4</ele><time>2022-10-31T11:38:41.0000000+00:00</time></trkpt><trkpt lat="39.45853405" lon="-0.35422409"><ele>3.4</ele><time>2022-10-31T11:38:42.0000000+00:00</time></trkpt><trkpt lat="39.45850412" lon="-0.35416273"><ele>3.4</ele><time>2022-10-31T11:38:43.0000000+00:00</time></trkpt><trkpt lat="39.45845559" lon="-0.35411714"><ele>3.4</ele><time>2022-10-31T11:38:44.0000000+00:00</time></trkpt><trkpt lat="39.45840337" lon="-0.35408646"><ele>3.4</ele><time>2022-10-31T11:38:45.0000000+00:00</time></trkpt><trkpt lat="39.45836021" lon="-0.35405796"><ele>3.6</ele><time>2022-10-31T11:38:46.0000000+00:00</time></trkpt><trkpt lat="39.45831469" lon="-0.35400826"><ele>3.6</ele><time>2022-10-31T11:38:47.0000000+00:00</time></trkpt><trkpt lat="39.45827278" lon="-0.35395235"><ele>3.6</ele><time>2022-10-31T11:38:48.0000000+00:00</time></trkpt><trkpt lat="39.458239" lon="-0.35387364"><ele>3.6</ele><time>2022-10-31T11:38:49.0000000+00:00</time></trkpt><trkpt lat="39.45820497" lon="-0.35380776"><ele>3.4</ele><time>2022-10-31T11:38:50.0000000+00:00</time></trkpt><trkpt lat="39.4581655" lon="-0.35376166"><ele>3.4</ele><time>2022-10-31T11:38:51.0000000+00:00</time></trkpt><trkpt lat="39.45811319" lon="-0.35374951"><ele>3.4</ele><time>2022-10-31T11:38:52.0000000+00:00</time></trkpt><trkpt lat="39.45806491" lon="-0.35373794"><ele>3.2</ele><time>2022-10-31T11:38:53.0000000+00:00</time></trkpt><trkpt lat="39.45801496" lon="-0.35373107"><ele>3.0</ele><time>2022-10-31T11:38:54.0000000+00:00</time></trkpt><trkpt lat="39.45796391" lon="-0.35372394"><ele>3.0</ele><time>2022-10-31T11:38:55.0000000+00:00</time></trkpt><trkpt lat="39.45792024" lon="-0.35372143"><ele>2.8</ele><time>2022-10-31T11:38:56.0000000+00:00</time></trkpt><trkpt lat="39.45788001" lon="-0.35372201"><ele>2.6</ele><time>2022-10-31T11:38:57.0000000+00:00</time></trkpt><trkpt lat="39.45784028" lon="-0.35371866"><ele>2.4</ele><time>2022-10-31T11:38:58.0000000+00:00</time></trkpt><trkpt lat="39.45780365" lon="-0.35370969"><ele>2.0</ele><time>2022-10-31T11:38:59.0000000+00:00</time></trkpt><trkpt lat="39.4577661" lon="-0.35370089"><ele>2.0</ele><time>2022-10-31T11:39:00.0000000+00:00</time></trkpt><trkpt lat="39.45773123" lon="-0.35368463"><ele>1.6</ele><time>2022-10-31T11:39:01.0000000+00:00</time></trkpt><trkpt lat="39.45769921" lon="-0.35366778"><ele>1.6</ele><time>2022-10-31T11:39:02.0000000+00:00</time></trkpt><trkpt lat="39.45766962" lon="-0.35364859"><ele>1.4</ele><time>2022-10-31T11:39:03.0000000+00:00</time></trkpt><trkpt lat="39.45764766" lon="-0.35363233"><ele>1.2</ele><time>2022-10-31T11:39:04.0000000+00:00</time></trkpt><trkpt lat="39.45763593" lon="-0.35363669"><ele>1.2</ele><time>2022-10-31T11:39:05.0000000+00:00</time></trkpt><trkpt lat="39.45762478" lon="-0.35362361"><ele>1.0</ele><time>2022-10-31T11:39:06.0000000+00:00</time></trkpt><trkpt lat="39.45761237" lon="-0.35361204"><ele>1.0</ele><time>2022-10-31T11:39:07.0000000+00:00</time></trkpt><trkpt lat="39.45760156" lon="-0.35359645"><ele>1.0</ele><time>2022-10-31T11:39:08.0000000+00:00</time></trkpt><trkpt lat="39.45759125" lon="-0.3535822"><ele>1.0</ele><time>2022-10-31T11:39:09.0000000+00:00</time></trkpt><trkpt lat="39.45758128" lon="-0.35357256"><ele>1.0</ele><time>2022-10-31T11:39:10.0000000+00:00</time></trkpt><trkpt lat="39.45757214" lon="-0.35356435"><ele>1.0</ele><time>2022-10-31T11:39:11.0000000+00:00</time></trkpt><trkpt lat="39.45755772" lon="-0.35355153"><ele>1.0</ele><time>2022-10-31T11:39:12.0000000+00:00</time></trkpt><trkpt lat="39.45754482" lon="-0.35353744"><ele>1.0</ele><time>2022-10-31T11:39:13.0000000+00:00</time></trkpt><trkpt lat="39.45753342" lon="-0.35351238"><ele>1.2</ele><time>2022-10-31T11:39:14.0000000+00:00</time></trkpt><trkpt lat="39.45752017" lon="-0.35348196"><ele>1.2</ele><time>2022-10-31T11:39:15.0000000+00:00</time></trkpt><trkpt lat="39.45750341" lon="-0.35344709"><ele>1.2</ele><time>2022-10-31T11:39:16.0000000+00:00</time></trkpt><trkpt lat="39.45748237" lon="-0.35341373"><ele>1.2</ele><time>2022-10-31T11:39:17.0000000+00:00</time></trkpt><trkpt lat="39.45745898" lon="-0.35338305"><ele>1.2</ele><time>2022-10-31T11:39:18.0000000+00:00</time></trkpt><trkpt lat="39.45743468" lon="-0.35335531"><ele>1.2</ele><time>2022-10-31T11:39:19.0000000+00:00</time></trkpt><trkpt lat="39.45741163" lon="-0.35332178"><ele>1.2</ele><time>2022-10-31T11:39:20.0000000+00:00</time></trkpt><trkpt lat="39.45738673" lon="-0.35327828"><ele>1.2</ele><time>2022-10-31T11:39:21.0000000+00:00</time></trkpt><trkpt lat="39.4573615" lon="-0.35323083"><ele>1.2</ele><time>2022-10-31T11:39:22.0000000+00:00</time></trkpt><trkpt lat="39.45733711" lon="-0.35317937"><ele>1.2</ele><time>2022-10-31T11:39:23.0000000+00:00</time></trkpt><trkpt lat="39.45730987" lon="-0.35313126"><ele>1.2</ele><time>2022-10-31T11:39:24.0000000+00:00</time></trkpt><trkpt lat="39.45727886" lon="-0.35308633"><ele>1.2</ele><time>2022-10-31T11:39:25.0000000+00:00</time></trkpt><trkpt lat="39.45724818" lon="-0.35304157"><ele>1.2</ele><time>2022-10-31T11:39:26.0000000+00:00</time></trkpt><trkpt lat="39.45721566" lon="-0.35299497"><ele>1.4</ele><time>2022-10-31T11:39:27.0000000+00:00</time></trkpt><trkpt lat="39.45718188" lon="-0.3529482"><ele>1.4</ele><time>2022-10-31T11:39:28.0000000+00:00</time></trkpt><trkpt lat="39.45714827" lon="-0.3529"><ele>1.4</ele><time>2022-10-31T11:39:29.0000000+00:00</time></trkpt><trkpt lat="39.45711742" lon="-0.35284862"><ele>1.2</ele><time>2022-10-31T11:39:30.0000000+00:00</time></trkpt><trkpt lat="39.45708767" lon="-0.35279003"><ele>1.2</ele><time>2022-10-31T11:39:31.0000000+00:00</time></trkpt><trkpt lat="39.45706219" lon="-0.35273463"><ele>1.2</ele><time>2022-10-31T11:39:32.0000000+00:00</time></trkpt><trkpt lat="39.45704458" lon="-0.35267654"><ele>1.2</ele><time>2022-10-31T11:39:33.0000000+00:00</time></trkpt><trkpt lat="39.45702966" lon="-0.35261242"><ele>1.2</ele><time>2022-10-31T11:39:34.0000000+00:00</time></trkpt><trkpt lat="39.45702103" lon="-0.35254913"><ele>1.2</ele><time>2022-10-31T11:39:35.0000000+00:00</time></trkpt><trkpt lat="39.45701843" lon="-0.35248719"><ele>1.4</ele><time>2022-10-31T11:39:36.0000000+00:00</time></trkpt><trkpt lat="39.45702656" lon="-0.35243137"><ele>1.4</ele><time>2022-10-31T11:39:37.0000000+00:00</time></trkpt><trkpt lat="39.45703897" lon="-0.35238753"><ele>1.4</ele><time>2022-10-31T11:39:38.0000000+00:00</time></trkpt><trkpt lat="39.45705255" lon="-0.35234973"><ele>1.4</ele><time>2022-10-31T11:39:39.0000000+00:00</time></trkpt><trkpt lat="39.45706554" lon="-0.35231855"><ele>1.4</ele><time>2022-10-31T11:39:40.0000000+00:00</time></trkpt><trkpt lat="39.45707384" lon="-0.35228603"><ele>1.4</ele><time>2022-10-31T11:39:41.0000000+00:00</time></trkpt><trkpt lat="39.45708054" lon="-0.3522561"><ele>1.4</ele><time>2022-10-31T11:39:42.0000000+00:00</time></trkpt><trkpt lat="39.45708356" lon="-0.35223029"><ele>1.4</ele><time>2022-10-31T11:39:43.0000000+00:00</time></trkpt><trkpt lat="39.45708004" lon="-0.35220506"><ele>1.4</ele><time>2022-10-31T11:39:44.0000000+00:00</time></trkpt><trkpt lat="39.45707023" lon="-0.35217337"><ele>1.6</ele><time>2022-10-31T11:39:45.0000000+00:00</time></trkpt><trkpt lat="39.45706286" lon="-0.35214613"><ele>1.6</ele><time>2022-10-31T11:39:46.0000000+00:00</time></trkpt><trkpt lat="39.45705095" lon="-0.35212375"><ele>1.8</ele><time>2022-10-31T11:39:47.0000000+00:00</time></trkpt><trkpt lat="39.45704048" lon="-0.35210196"><ele>1.8</ele><time>2022-10-31T11:39:48.0000000+00:00</time></trkpt><trkpt lat="39.45703042" lon="-0.35208033"><ele>1.8</ele><time>2022-10-31T11:39:49.0000000+00:00</time></trkpt><trkpt lat="39.45701659" lon="-0.35205955"><ele>1.8</ele><time>2022-10-31T11:39:50.0000000+00:00</time></trkpt><trkpt lat="39.45700075" lon="-0.35203482"><ele>1.8</ele><time>2022-10-31T11:39:51.0000000+00:00</time></trkpt><trkpt lat="39.45698113" lon="-0.35200817"><ele>1.8</ele><time>2022-10-31T11:39:52.0000000+00:00</time></trkpt><trkpt lat="39.45696445" lon="-0.35198436"><ele>1.8</ele><time>2022-10-31T11:39:53.0000000+00:00</time></trkpt><trkpt lat="39.45694467" lon="-0.35195964"><ele>1.8</ele><time>2022-10-31T11:39:54.0000000+00:00</time></trkpt><trkpt lat="39.45692774" lon="-0.35193139"><ele>2.0</ele><time>2022-10-31T11:39:55.0000000+00:00</time></trkpt><trkpt lat="39.45691081" lon="-0.35189459"><ele>2.0</ele><time>2022-10-31T11:39:56.0000000+00:00</time></trkpt><trkpt lat="39.45689119" lon="-0.35184681"><ele>2.0</ele><time>2022-10-31T11:39:57.0000000+00:00</time></trkpt><trkpt lat="39.45686664" lon="-0.35179761"><ele>2.0</ele><time>2022-10-31T11:39:58.0000000+00:00</time></trkpt><trkpt lat="39.4568321" lon="-0.3517583"><ele>2.0</ele><time>2022-10-31T11:39:59.0000000+00:00</time></trkpt><trkpt lat="39.45679111" lon="-0.35171958"><ele>2.0</ele><time>2022-10-31T11:40:00.0000000+00:00</time></trkpt><trkpt lat="39.45674853" lon="-0.35167608"><ele>2.0</ele><time>2022-10-31T11:40:01.0000000+00:00</time></trkpt><trkpt lat="39.45670587" lon="-0.35162562"><ele>2.0</ele><time>2022-10-31T11:40:02.0000000+00:00</time></trkpt><trkpt lat="39.45666388" lon="-0.35157147"><ele>2.0</ele><time>2022-10-31T11:40:03.0000000+00:00</time></trkpt><trkpt lat="39.45662281" lon="-0.35151447"><ele>2.0</ele><time>2022-10-31T11:40:04.0000000+00:00</time></trkpt><trkpt lat="39.45658417" lon="-0.35146058"><ele>2.2</ele><time>2022-10-31T11:40:05.0000000+00:00</time></trkpt><trkpt lat="39.45654938" lon="-0.35140182"><ele>2.2</ele><time>2022-10-31T11:40:06.0000000+00:00</time></trkpt><trkpt lat="39.45650948" lon="-0.35133979"><ele>2.2</ele><time>2022-10-31T11:40:07.0000000+00:00</time></trkpt><trkpt lat="39.45647076" lon="-0.35128405"><ele>2.4</ele><time>2022-10-31T11:40:08.0000000+00:00</time></trkpt><trkpt lat="39.45643245" lon="-0.351231"><ele>2.4</ele><time>2022-10-31T11:40:09.0000000+00:00</time></trkpt><trkpt lat="39.45639423" lon="-0.351174"><ele>2.4</ele><time>2022-10-31T11:40:10.0000000+00:00</time></trkpt><trkpt lat="39.45635459" lon="-0.35111306"><ele>2.4</ele><time>2022-10-31T11:40:11.0000000+00:00</time></trkpt><trkpt lat="39.45631494" lon="-0.35105364"><ele>2.2</ele><time>2022-10-31T11:40:12.0000000+00:00</time></trkpt><trkpt lat="39.45627521" lon="-0.3509906"><ele>2.2</ele><time>2022-10-31T11:40:13.0000000+00:00</time></trkpt><trkpt lat="39.45623908" lon="-0.35092388"><ele>1.8</ele><time>2022-10-31T11:40:14.0000000+00:00</time></trkpt><trkpt lat="39.45619768" lon="-0.35086714"><ele>1.8</ele><time>2022-10-31T11:40:15.0000000+00:00</time></trkpt><trkpt lat="39.4561551" lon="-0.35080754"><ele>1.8</ele><time>2022-10-31T11:40:16.0000000+00:00</time></trkpt><trkpt lat="39.45611637" lon="-0.35074694"><ele>1.6</ele><time>2022-10-31T11:40:17.0000000+00:00</time></trkpt><trkpt lat="39.45608125" lon="-0.35069162"><ele>1.6</ele><time>2022-10-31T11:40:18.0000000+00:00</time></trkpt><trkpt lat="39.45604127" lon="-0.35064024"><ele>1.6</ele><time>2022-10-31T11:40:19.0000000+00:00</time></trkpt><trkpt lat="39.45601001" lon="-0.35059892"><ele>1.6</ele><time>2022-10-31T11:40:20.0000000+00:00</time></trkpt><trkpt lat="39.4559639" lon="-0.35054016"><ele>1.8</ele><time>2022-10-31T11:40:21.0000000+00:00</time></trkpt><trkpt lat="39.45592853" lon="-0.35048987"><ele>1.6</ele><time>2022-10-31T11:40:22.0000000+00:00</time></trkpt><trkpt lat="39.4558945" lon="-0.35043388"><ele>1.6</ele><time>2022-10-31T11:40:23.0000000+00:00</time></trkpt><trkpt lat="39.45586064" lon="-0.35037713"><ele>1.6</ele><time>2022-10-31T11:40:24.0000000+00:00</time></trkpt><trkpt lat="39.45582426" lon="-0.35031963"><ele>1.6</ele><time>2022-10-31T11:40:25.0000000+00:00</time></trkpt><trkpt lat="39.45579015" lon="-0.35026071"><ele>1.6</ele><time>2022-10-31T11:40:26.0000000+00:00</time></trkpt><trkpt lat="39.45575478" lon="-0.35020438"><ele>1.6</ele><time>2022-10-31T11:40:27.0000000+00:00</time></trkpt><trkpt lat="39.45571924" lon="-0.3501509"><ele>1.6</ele><time>2022-10-31T11:40:28.0000000+00:00</time></trkpt><trkpt lat="39.45568336" lon="-0.35009835"><ele>1.6</ele><time>2022-10-31T11:40:29.0000000+00:00</time></trkpt><trkpt lat="39.45564841" lon="-0.3500468"><ele>1.6</ele><time>2022-10-31T11:40:30.0000000+00:00</time></trkpt><trkpt lat="39.45561228" lon="-0.34999257"><ele>1.6</ele><time>2022-10-31T11:40:31.0000000+00:00</time></trkpt><trkpt lat="39.45557817" lon="-0.34993842"><ele>1.6</ele><time>2022-10-31T11:40:32.0000000+00:00</time></trkpt><trkpt lat="39.45555051" lon="-0.34988604"><ele>1.6</ele><time>2022-10-31T11:40:33.0000000+00:00</time></trkpt><trkpt lat="39.45552394" lon="-0.34983935"><ele>1.8</ele><time>2022-10-31T11:40:34.0000000+00:00</time></trkpt><trkpt lat="39.45549955" lon="-0.34979375"><ele>2.0</ele><time>2022-10-31T11:40:35.0000000+00:00</time></trkpt><trkpt lat="39.45547407" lon="-0.34974539"><ele>2.0</ele><time>2022-10-31T11:40:36.0000000+00:00</time></trkpt><trkpt lat="39.45544196" lon="-0.34969308"><ele>2.0</ele><time>2022-10-31T11:40:37.0000000+00:00</time></trkpt><trkpt lat="39.45540433" lon="-0.34963952"><ele>2.2</ele><time>2022-10-31T11:40:38.0000000+00:00</time></trkpt><trkpt lat="39.45536049" lon="-0.34958705"><ele>2.0</ele><time>2022-10-31T11:40:39.0000000+00:00</time></trkpt><trkpt lat="39.45531305" lon="-0.34953634"><ele>1.6</ele><time>2022-10-31T11:40:40.0000000+00:00</time></trkpt><trkpt lat="39.45526762" lon="-0.34948044"><ele>1.4</ele><time>2022-10-31T11:40:41.0000000+00:00</time></trkpt><trkpt lat="39.45522278" lon="-0.34943232"><ele>1.2</ele><time>2022-10-31T11:40:42.0000000+00:00</time></trkpt><trkpt lat="39.45518154" lon="-0.3494003"><ele>1.0</ele><time>2022-10-31T11:40:43.0000000+00:00</time></trkpt><trkpt lat="39.45497291" lon="-0.3493366"><ele>1.0</ele><time>2022-10-31T11:40:47.0000000+00:00</time></trkpt><trkpt lat="39.45491172" lon="-0.34923116"><ele>1.0</ele><time>2022-10-31T11:40:48.0000000+00:00</time></trkpt><trkpt lat="39.45487049" lon="-0.34912907"><ele>1.0</ele><time>2022-10-31T11:40:49.0000000+00:00</time></trkpt><trkpt lat="39.45484232" lon="-0.34900669"><ele>1.0</ele><time>2022-10-31T11:40:50.0000000+00:00</time></trkpt><trkpt lat="39.45485992" lon="-0.34897249"><ele>1.0</ele><time>2022-10-31T11:40:51.0000000+00:00</time></trkpt><trkpt lat="39.45486998" lon="-0.34896629"><ele>1.0</ele><time>2022-10-31T11:40:52.0000000+00:00</time></trkpt><trkpt lat="39.45487702" lon="-0.34894995"><ele>1.0</ele><time>2022-10-31T11:40:53.0000000+00:00</time></trkpt><trkpt lat="39.4548725" lon="-0.3489222"><ele>0.8</ele><time>2022-10-31T11:40:54.0000000+00:00</time></trkpt><trkpt lat="39.45485733" lon="-0.34890602"><ele>0.6</ele><time>2022-10-31T11:40:55.0000000+00:00</time></trkpt><trkpt lat="39.45484257" lon="-0.34889898"><ele>0.4</ele><time>2022-10-31T11:40:56.0000000+00:00</time></trkpt><trkpt lat="39.45482807" lon="-0.34890359"><ele>0.4</ele><time>2022-10-31T11:40:57.0000000+00:00</time></trkpt><trkpt lat="39.45481785" lon="-0.34891172"><ele>0.2</ele><time>2022-10-31T11:40:58.0000000+00:00</time></trkpt><trkpt lat="39.45481097" lon="-0.34891072"><ele>0.2</ele><time>2022-10-31T11:40:59.0000000+00:00</time></trkpt><trkpt lat="39.45480385" lon="-0.34891843"><ele>0.2</ele><time>2022-10-31T11:41:00.0000000+00:00</time></trkpt><trkpt lat="39.45480276" lon="-0.3489248"><ele>0.2</ele><time>2022-10-31T11:41:01.0000000+00:00</time></trkpt><trkpt lat="39.45479882" lon="-0.3489362"><ele>0.2</ele><time>2022-10-31T11:41:02.0000000+00:00</time></trkpt><trkpt lat="39.45479086" lon="-0.34895221"><ele>0.2</ele><time>2022-10-31T11:41:03.0000000+00:00</time></trkpt><trkpt lat="39.4547808" lon="-0.34897207"><ele>0.4</ele><time>2022-10-31T11:41:04.0000000+00:00</time></trkpt><trkpt lat="39.45474367" lon="-0.34898632"><ele>0.4</ele><time>2022-10-31T11:41:05.0000000+00:00</time></trkpt><trkpt lat="39.45473202" lon="-0.34899412"><ele>0.4</ele><time>2022-10-31T11:41:06.0000000+00:00</time></trkpt><trkpt lat="39.45472313" lon="-0.34901826"><ele>0.4</ele><time>2022-10-31T11:41:07.0000000+00:00</time></trkpt><trkpt lat="39.45471743" lon="-0.34904709"><ele>0.4</ele><time>2022-10-31T11:41:08.0000000+00:00</time></trkpt><trkpt lat="39.45470721" lon="-0.34907165"><ele>0.4</ele><time>2022-10-31T11:41:09.0000000+00:00</time></trkpt><trkpt lat="39.45469187" lon="-0.34908925"><ele>0.6</ele><time>2022-10-31T11:41:10.0000000+00:00</time></trkpt><trkpt lat="39.4546715" lon="-0.34910426"><ele>0.6</ele><time>2022-10-31T11:41:11.0000000+00:00</time></trkpt><trkpt lat="39.45464795" lon="-0.34911498"><ele>0.6</ele><time>2022-10-31T11:41:12.0000000+00:00</time></trkpt><trkpt lat="39.45462691" lon="-0.34912437"><ele>0.8</ele><time>2022-10-31T11:41:13.0000000+00:00</time></trkpt><trkpt lat="39.45460989" lon="-0.34913074"><ele>0.8</ele><time>2022-10-31T11:41:14.0000000+00:00</time></trkpt><trkpt lat="39.45459522" lon="-0.34913535"><ele>1.0</ele><time>2022-10-31T11:41:15.0000000+00:00</time></trkpt><trkpt lat="39.45458081" lon="-0.34914206"><ele>1.0</ele><time>2022-10-31T11:41:16.0000000+00:00</time></trkpt><trkpt lat="39.45456572" lon="-0.34915379"><ele>1.2</ele><time>2022-10-31T11:41:17.0000000+00:00</time></trkpt><trkpt lat="39.45455021" lon="-0.34916301"><ele>1.2</ele><time>2022-10-31T11:41:18.0000000+00:00</time></trkpt><trkpt lat="39.45454074" lon="-0.34917156"><ele>1.2</ele><time>2022-10-31T11:41:19.0000000+00:00</time></trkpt><trkpt lat="39.45452901" lon="-0.34917424"><ele>1.2</ele><time>2022-10-31T11:41:20.0000000+00:00</time></trkpt><trkpt lat="39.45451451" lon="-0.34916955"><ele>1.2</ele><time>2022-10-31T11:41:21.0000000+00:00</time></trkpt><trkpt lat="39.45449632" lon="-0.34916"><ele>1.4</ele><time>2022-10-31T11:41:22.0000000+00:00</time></trkpt><trkpt lat="39.45447964" lon="-0.34914441"><ele>1.4</ele><time>2022-10-31T11:41:23.0000000+00:00</time></trkpt><trkpt lat="39.45446648" lon="-0.34912462"><ele>1.4</ele><time>2022-10-31T11:41:24.0000000+00:00</time></trkpt><trkpt lat="39.45445122" lon="-0.3490983"><ele>1.6</ele><time>2022-10-31T11:41:25.0000000+00:00</time></trkpt><trkpt lat="39.45443689" lon="-0.34906327"><ele>1.6</ele><time>2022-10-31T11:41:26.0000000+00:00</time></trkpt><trkpt lat="39.45442163" lon="-0.34903192"><ele>1.8</ele><time>2022-10-31T11:41:27.0000000+00:00</time></trkpt><trkpt lat="39.45440806" lon="-0.34900342"><ele>1.8</ele><time>2022-10-31T11:41:28.0000000+00:00</time></trkpt><trkpt lat="39.45439548" lon="-0.3489802"><ele>2.0</ele><time>2022-10-31T11:41:29.0000000+00:00</time></trkpt><trkpt lat="39.45438408" lon="-0.34896721"><ele>2.0</ele><time>2022-10-31T11:41:30.0000000+00:00</time></trkpt><trkpt lat="39.45436824" lon="-0.34895992"><ele>2.0</ele><time>2022-10-31T11:41:31.0000000+00:00</time></trkpt><trkpt lat="39.45434905" lon="-0.34896151"><ele>2.0</ele><time>2022-10-31T11:41:32.0000000+00:00</time></trkpt><trkpt lat="39.45432918" lon="-0.34897006"><ele>2.0</ele><time>2022-10-31T11:41:33.0000000+00:00</time></trkpt><trkpt lat="39.45431124" lon="-0.34898439"><ele>2.2</ele><time>2022-10-31T11:41:34.0000000+00:00</time></trkpt><trkpt lat="39.45428786" lon="-0.34899856"><ele>2.2</ele><time>2022-10-31T11:41:35.0000000+00:00</time></trkpt><trkpt lat="39.45425861" lon="-0.34901474"><ele>2.2</ele><time>2022-10-31T11:41:36.0000000+00:00</time></trkpt><trkpt lat="39.45422935" lon="-0.34903142"><ele>2.4</ele><time>2022-10-31T11:41:37.0000000+00:00</time></trkpt><trkpt lat="39.4542001" lon="-0.34904843"><ele>2.4</ele><time>2022-10-31T11:41:38.0000000+00:00</time></trkpt><trkpt lat="39.45416842" lon="-0.34906612"><ele>2.4</ele><time>2022-10-31T11:41:39.0000000+00:00</time></trkpt><trkpt lat="39.45413766" lon="-0.34908414"><ele>2.6</ele><time>2022-10-31T11:41:40.0000000+00:00</time></trkpt><trkpt lat="39.45410505" lon="-0.34910308"><ele>2.6</ele><time>2022-10-31T11:41:41.0000000+00:00</time></trkpt><trkpt lat="39.45407077" lon="-0.3491232"><ele>2.6</ele><time>2022-10-31T11:41:42.0000000+00:00</time></trkpt><trkpt lat="39.45403347" lon="-0.34914549"><ele>2.4</ele><time>2022-10-31T11:41:43.0000000+00:00</time></trkpt><trkpt lat="39.45399734" lon="-0.34917123"><ele>2.4</ele><time>2022-10-31T11:41:44.0000000+00:00</time></trkpt><trkpt lat="39.45396239" lon="-0.34919629"><ele>2.4</ele><time>2022-10-31T11:41:45.0000000+00:00</time></trkpt><trkpt lat="39.4539245" lon="-0.34922001"><ele>2.4</ele><time>2022-10-31T11:41:46.0000000+00:00</time></trkpt><trkpt lat="39.45388477" lon="-0.34923895"><ele>2.4</ele><time>2022-10-31T11:41:47.0000000+00:00</time></trkpt><trkpt lat="39.45384555" lon="-0.3492589"><ele>2.4</ele><time>2022-10-31T11:41:48.0000000+00:00</time></trkpt><trkpt lat="39.45380682" lon="-0.3492812"><ele>2.2</ele><time>2022-10-31T11:41:49.0000000+00:00</time></trkpt><trkpt lat="39.45376827" lon="-0.34930643"><ele>2.2</ele><time>2022-10-31T11:41:50.0000000+00:00</time></trkpt><trkpt lat="39.45373264" lon="-0.34933652"><ele>2.2</ele><time>2022-10-31T11:41:51.0000000+00:00</time></trkpt><trkpt lat="39.45369434" lon="-0.34936024"><ele>2.0</ele><time>2022-10-31T11:41:52.0000000+00:00</time></trkpt><trkpt lat="39.45365645" lon="-0.34938823"><ele>2.0</ele><time>2022-10-31T11:41:53.0000000+00:00</time></trkpt><trkpt lat="39.45361831" lon="-0.34941405"><ele>2.0</ele><time>2022-10-31T11:41:54.0000000+00:00</time></trkpt><trkpt lat="39.45357942" lon="-0.34944221"><ele>2.0</ele><time>2022-10-31T11:41:55.0000000+00:00</time></trkpt><trkpt lat="39.45353793" lon="-0.34946912"><ele>2.2</ele><time>2022-10-31T11:41:56.0000000+00:00</time></trkpt><trkpt lat="39.4534977" lon="-0.34949561"><ele>2.2</ele><time>2022-10-31T11:41:57.0000000+00:00</time></trkpt><trkpt lat="39.45346031" lon="-0.34952964"><ele>2.2</ele><time>2022-10-31T11:41:58.0000000+00:00</time></trkpt><trkpt lat="39.4534226" lon="-0.34956342"><ele>2.2</ele><time>2022-10-31T11:41:59.0000000+00:00</time></trkpt><trkpt lat="39.45338085" lon="-0.34959795"><ele>2.2</ele><time>2022-10-31T11:42:00.0000000+00:00</time></trkpt><trkpt lat="39.45333961" lon="-0.34962905"><ele>2.2</ele><time>2022-10-31T11:42:01.0000000+00:00</time></trkpt><trkpt lat="39.45329343" lon="-0.34965662"><ele>2.4</ele><time>2022-10-31T11:42:02.0000000+00:00</time></trkpt><trkpt lat="39.45324582" lon="-0.34968068"><ele>2.4</ele><time>2022-10-31T11:42:03.0000000+00:00</time></trkpt><trkpt lat="39.45320249" lon="-0.3497008"><ele>2.6</ele><time>2022-10-31T11:42:04.0000000+00:00</time></trkpt><trkpt lat="39.45316091" lon="-0.34972049"><ele>2.6</ele><time>2022-10-31T11:42:05.0000000+00:00</time></trkpt><trkpt lat="39.45312319" lon="-0.34974254"><ele>2.6</ele><time>2022-10-31T11:42:06.0000000+00:00</time></trkpt><trkpt lat="39.45308749" lon="-0.34975955"><ele>2.8</ele><time>2022-10-31T11:42:07.0000000+00:00</time></trkpt><trkpt lat="39.45305605" lon="-0.34977707"><ele>2.8</ele><time>2022-10-31T11:42:08.0000000+00:00</time></trkpt><trkpt lat="39.4530325" lon="-0.34979316"><ele>3.0</ele><time>2022-10-31T11:42:09.0000000+00:00</time></trkpt><trkpt lat="39.4530144" lon="-0.34980473"><ele>3.0</ele><time>2022-10-31T11:42:10.0000000+00:00</time></trkpt><trkpt lat="39.45299923" lon="-0.34981236"><ele>3.2</ele><time>2022-10-31T11:42:11.0000000+00:00</time></trkpt><trkpt lat="39.45298808" lon="-0.34982401"><ele>3.2</ele><time>2022-10-31T11:42:12.0000000+00:00</time></trkpt><trkpt lat="39.45298079" lon="-0.34982988"><ele>3.2</ele><time>2022-10-31T11:42:13.0000000+00:00</time></trkpt><trkpt lat="39.45297785" lon="-0.34983424"><ele>3.4</ele><time>2022-10-31T11:42:14.0000000+00:00</time></trkpt><trkpt lat="39.45297785" lon="-0.34983424"><ele>3.4</ele><time>2022-10-31T11:42:15.0000000+00:00</time></trkpt><trkpt lat="39.45297785" lon="-0.34983424"><ele>3.4</ele><time>2022-10-31T11:42:16.0000000+00:00</time></trkpt><trkpt lat="39.45297785" lon="-0.34983424"><ele>3.4</ele><time>2022-10-31T11:42:17.0000000+00:00</time></trkpt><trkpt lat="39.45297785" lon="-0.34983424"><ele>3.4</ele><time>2022-10-31T11:42:18.0000000+00:00</time></trkpt><trkpt lat="39.45297785" lon="-0.34983424"><ele>3.4</ele><time>2022-10-31T11:42:19.0000000+00:00</time></trkpt><trkpt lat="39.45297785" lon="-0.34983424"><ele>3.4</ele><time>2022-10-31T11:42:20.0000000+00:00</time></trkpt><trkpt lat="39.45297785" lon="-0.34983424"><ele>3.4</ele><time>2022-10-31T11:42:21.0000000+00:00</time></trkpt><trkpt lat="39.45297785" lon="-0.34983424"><ele>3.4</ele><time>2022-10-31T11:42:22.0000000+00:00</time></trkpt><trkpt lat="39.45297785" lon="-0.34983424"><ele>3.4</ele><time>2022-10-31T11:42:23.0000000+00:00</time></trkpt><trkpt lat="39.45297785" lon="-0.34983424"><ele>3.4</ele><time>2022-10-31T11:42:24.0000000+00:00</time></trkpt><trkpt lat="39.45297785" lon="-0.34983424"><ele>3.4</ele><time>2022-10-31T11:42:25.0000000+00:00</time></trkpt><trkpt lat="39.45297785" lon="-0.34983424"><ele>3.6</ele><time>2022-10-31T11:42:26.0000000+00:00</time></trkpt><trkpt lat="39.45297785" lon="-0.34983424"><ele>3.6</ele><time>2022-10-31T11:42:27.0000000+00:00</time></trkpt><trkpt lat="39.45297785" lon="-0.34983424"><ele>3.4</ele><time>2022-10-31T11:42:28.0000000+00:00</time></trkpt><trkpt lat="39.45297785" lon="-0.34983424"><ele>3.4</ele><time>2022-10-31T11:42:29.0000000+00:00</time></trkpt><trkpt lat="39.45297785" lon="-0.34983424"><ele>3.4</ele><time>2022-10-31T11:42:30.0000000+00:00</time></trkpt><trkpt lat="39.45297785" lon="-0.34983424"><ele>3.4</ele><time>2022-10-31T11:42:31.0000000+00:00</time></trkpt><trkpt lat="39.45297785" lon="-0.34983424"><ele>3.4</ele><time>2022-10-31T11:42:32.0000000+00:00</time></trkpt><trkpt lat="39.45297785" lon="-0.34983424"><ele>3.4</ele><time>2022-10-31T11:42:33.0000000+00:00</time></trkpt><trkpt lat="39.45297785" lon="-0.34983424"><ele>3.4</ele><time>2022-10-31T11:42:34.0000000+00:00</time></trkpt><trkpt lat="39.45297785" lon="-0.34983424"><ele>3.4</ele><time>2022-10-31T11:42:35.0000000+00:00</time></trkpt><trkpt lat="39.45297785" lon="-0.34983424"><ele>3.4</ele><time>2022-10-31T11:42:36.0000000+00:00</time></trkpt><trkpt lat="39.45297785" lon="-0.34983424"><ele>3.6</ele><time>2022-10-31T11:42:37.0000000+00:00</time></trkpt><trkpt lat="39.45297785" lon="-0.34983424"><ele>3.6</ele><time>2022-10-31T11:42:38.0000000+00:00</time></trkpt><trkpt lat="39.45297785" lon="-0.34983424"><ele>3.6</ele><time>2022-10-31T11:42:39.0000000+00:00</time></trkpt><trkpt lat="39.45297785" lon="-0.34983424"><ele>3.6</ele><time>2022-10-31T11:42:40.0000000+00:00</time></trkpt><trkpt lat="39.45297785" lon="-0.34983424"><ele>3.6</ele><time>2022-10-31T11:42:41.0000000+00:00</time></trkpt><trkpt lat="39.45297785" lon="-0.34983424"><ele>3.4</ele><time>2022-10-31T11:42:42.0000000+00:00</time></trkpt><trkpt lat="39.45297785" lon="-0.34983424"><ele>3.4</ele><time>2022-10-31T11:42:43.0000000+00:00</time></trkpt><trkpt lat="39.45297785" lon="-0.34983424"><ele>3.4</ele><time>2022-10-31T11:42:44.0000000+00:00</time></trkpt><trkpt lat="39.45297785" lon="-0.34983424"><ele>3.4</ele><time>2022-10-31T11:42:45.0000000+00:00</time></trkpt><trkpt lat="39.45297785" lon="-0.34983424"><ele>3.4</ele><time>2022-10-31T11:42:46.0000000+00:00</time></trkpt><trkpt lat="39.45297785" lon="-0.34983424"><ele>3.4</ele><time>2022-10-31T11:42:47.0000000+00:00</time></trkpt><trkpt lat="39.45297785" lon="-0.34983424"><ele>3.4</ele><time>2022-10-31T11:42:48.0000000+00:00</time></trkpt><trkpt lat="39.45297785" lon="-0.34983424"><ele>3.4</ele><time>2022-10-31T11:42:49.0000000+00:00</time></trkpt><trkpt lat="39.45297785" lon="-0.34983424"><ele>3.4</ele><time>2022-10-31T11:42:50.0000000+00:00</time></trkpt><trkpt lat="39.45297785" lon="-0.34983424"><ele>3.4</ele><time>2022-10-31T11:42:51.0000000+00:00</time></trkpt><trkpt lat="39.45297785" lon="-0.34983424"><ele>3.4</ele><time>2022-10-31T11:42:52.0000000+00:00</time></trkpt><trkpt lat="39.45297785" lon="-0.34983424"><ele>3.4</ele><time>2022-10-31T11:42:53.0000000+00:00</time></trkpt><trkpt lat="39.45297785" lon="-0.34983424"><ele>3.4</ele><time>2022-10-31T11:42:54.0000000+00:00</time></trkpt><trkpt lat="39.45297785" lon="-0.34983424"><ele>3.4</ele><time>2022-10-31T11:42:55.0000000+00:00</time></trkpt><trkpt lat="39.45297785" lon="-0.34983424"><ele>3.4</ele><time>2022-10-31T11:42:56.0000000+00:00</time></trkpt><trkpt lat="39.45297785" lon="-0.34983424"><ele>3.4</ele><time>2022-10-31T11:42:57.0000000+00:00</time></trkpt><trkpt lat="39.45297785" lon="-0.34983424"><ele>3.4</ele><time>2022-10-31T11:42:58.0000000+00:00</time></trkpt><trkpt lat="39.45297785" lon="-0.34983424"><ele>3.4</ele><time>2022-10-31T11:42:59.0000000+00:00</time></trkpt><trkpt lat="39.45297785" lon="-0.34983424"><ele>3.4</ele><time>2022-10-31T11:43:00.0000000+00:00</time></trkpt><trkpt lat="39.45297785" lon="-0.34983424"><ele>3.4</ele><time>2022-10-31T11:43:01.0000000+00:00</time></trkpt><trkpt lat="39.45297785" lon="-0.34983424"><ele>3.4</ele><time>2022-10-31T11:43:02.0000000+00:00</time></trkpt><trkpt lat="39.45297785" lon="-0.34983424"><ele>3.4</ele><time>2022-10-31T11:43:03.0000000+00:00</time></trkpt><trkpt lat="39.45297785" lon="-0.34983424"><ele>3.4</ele><time>2022-10-31T11:43:04.0000000+00:00</time></trkpt><trkpt lat="39.45297785" lon="-0.34983424"><ele>3.4</ele><time>2022-10-31T11:43:05.0000000+00:00</time></trkpt><trkpt lat="39.45297785" lon="-0.34983424"><ele>3.4</ele><time>2022-10-31T11:43:06.0000000+00:00</time></trkpt><trkpt lat="39.45297785" lon="-0.34983424"><ele>3.4</ele><time>2022-10-31T11:43:07.0000000+00:00</time></trkpt><trkpt lat="39.45297416" lon="-0.34983088"><ele>3.2</ele><time>2022-10-31T11:43:08.0000000+00:00</time></trkpt><trkpt lat="39.45296385" lon="-0.34983315"><ele>3.2</ele><time>2022-10-31T11:43:09.0000000+00:00</time></trkpt><trkpt lat="39.45295505" lon="-0.34984421"><ele>3.2</ele><time>2022-10-31T11:43:10.0000000+00:00</time></trkpt><trkpt lat="39.45295329" lon="-0.34986156"><ele>3.4</ele><time>2022-10-31T11:43:11.0000000+00:00</time></trkpt><trkpt lat="39.45295597" lon="-0.34987556"><ele>3.4</ele><time>2022-10-31T11:43:12.0000000+00:00</time></trkpt><trkpt lat="39.45296377" lon="-0.3498935"><ele>3.4</ele><time>2022-10-31T11:43:13.0000000+00:00</time></trkpt><trkpt lat="39.45297525" lon="-0.34991789"><ele>3.6</ele><time>2022-10-31T11:43:14.0000000+00:00</time></trkpt><trkpt lat="39.45298866" lon="-0.34994831"><ele>3.6</ele><time>2022-10-31T11:43:15.0000000+00:00</time></trkpt><trkpt lat="39.45300459" lon="-0.34997572"><ele>3.6</ele><time>2022-10-31T11:43:16.0000000+00:00</time></trkpt><trkpt lat="39.45302211" lon="-0.35000523"><ele>3.8</ele><time>2022-10-31T11:43:17.0000000+00:00</time></trkpt><trkpt lat="39.45303787" lon="-0.35003817"><ele>3.8</ele><time>2022-10-31T11:43:18.0000000+00:00</time></trkpt><trkpt lat="39.45305094" lon="-0.35007756"><ele>3.8</ele><time>2022-10-31T11:43:19.0000000+00:00</time></trkpt><trkpt lat="39.45306175" lon="-0.35011637"><ele>3.8</ele><time>2022-10-31T11:43:20.0000000+00:00</time></trkpt><trkpt lat="39.45306938" lon="-0.35015199"><ele>3.8</ele><time>2022-10-31T11:43:21.0000000+00:00</time></trkpt><trkpt lat="39.45307718" lon="-0.35018954"><ele>3.8</ele><time>2022-10-31T11:43:22.0000000+00:00</time></trkpt><trkpt lat="39.4530864" lon="-0.35022165"><ele>3.8</ele><time>2022-10-31T11:43:23.0000000+00:00</time></trkpt><trkpt lat="39.45309713" lon="-0.35025937"><ele>3.8</ele><time>2022-10-31T11:43:24.0000000+00:00</time></trkpt><trkpt lat="39.45310878" lon="-0.35029792"><ele>3.8</ele><time>2022-10-31T11:43:25.0000000+00:00</time></trkpt><trkpt lat="39.45312001" lon="-0.35033413"><ele>3.8</ele><time>2022-10-31T11:43:26.0000000+00:00</time></trkpt><trkpt lat="39.45312948" lon="-0.35036732"><ele>3.8</ele><time>2022-10-31T11:43:27.0000000+00:00</time></trkpt><trkpt lat="39.45314054" lon="-0.35039784"><ele>3.8</ele><time>2022-10-31T11:43:28.0000000+00:00</time></trkpt><trkpt lat="39.45315094" lon="-0.35042675"><ele>3.6</ele><time>2022-10-31T11:43:29.0000000+00:00</time></trkpt><trkpt lat="39.45315974" lon="-0.35045751"><ele>3.6</ele><time>2022-10-31T11:43:30.0000000+00:00</time></trkpt><trkpt lat="39.45317164" lon="-0.35048962"><ele>3.6</ele><time>2022-10-31T11:43:31.0000000+00:00</time></trkpt><trkpt lat="39.45318379" lon="-0.35052306"><ele>3.6</ele><time>2022-10-31T11:43:32.0000000+00:00</time></trkpt><trkpt lat="39.45319695" lon="-0.35055776"><ele>3.8</ele><time>2022-10-31T11:43:33.0000000+00:00</time></trkpt><trkpt lat="39.45321288" lon="-0.35059515"><ele>3.8</ele><time>2022-10-31T11:43:34.0000000+00:00</time></trkpt><trkpt lat="39.45322596" lon="-0.3506342"><ele>3.8</ele><time>2022-10-31T11:43:35.0000000+00:00</time></trkpt><trkpt lat="39.45324163" lon="-0.3506731"><ele>3.8</ele><time>2022-10-31T11:43:36.0000000+00:00</time></trkpt><trkpt lat="39.45325689" lon="-0.35071014"><ele>3.8</ele><time>2022-10-31T11:43:37.0000000+00:00</time></trkpt><trkpt lat="39.45327021" lon="-0.35074476"><ele>3.8</ele><time>2022-10-31T11:43:38.0000000+00:00</time></trkpt><trkpt lat="39.45328153" lon="-0.35078432"><ele>3.8</ele><time>2022-10-31T11:43:39.0000000+00:00</time></trkpt><trkpt lat="39.45329251" lon="-0.35082674"><ele>3.8</ele><time>2022-10-31T11:43:40.0000000+00:00</time></trkpt><trkpt lat="39.45330567" lon="-0.35086856"><ele>3.8</ele><time>2022-10-31T11:43:41.0000000+00:00</time></trkpt><trkpt lat="39.45332126" lon="-0.35090972"><ele>3.8</ele><time>2022-10-31T11:43:42.0000000+00:00</time></trkpt><trkpt lat="39.45333526" lon="-0.35094886"><ele>3.8</ele><time>2022-10-31T11:43:43.0000000+00:00</time></trkpt><trkpt lat="39.45334959" lon="-0.35098599"><ele>3.8</ele><time>2022-10-31T11:43:44.0000000+00:00</time></trkpt><trkpt lat="39.45335898" lon="-0.35101868"><ele>3.8</ele><time>2022-10-31T11:43:45.0000000+00:00</time></trkpt><trkpt lat="39.45336593" lon="-0.35104877"><ele>3.8</ele><time>2022-10-31T11:43:46.0000000+00:00</time></trkpt><trkpt lat="39.45337205" lon="-0.3510761"><ele>3.6</ele><time>2022-10-31T11:43:47.0000000+00:00</time></trkpt><trkpt lat="39.45337457" lon="-0.35109806"><ele>3.6</ele><time>2022-10-31T11:43:48.0000000+00:00</time></trkpt><trkpt lat="39.45336417" lon="-0.35111792"><ele>3.6</ele><time>2022-10-31T11:43:49.0000000+00:00</time></trkpt><trkpt lat="39.45334263" lon="-0.35113351"><ele>3.6</ele><time>2022-10-31T11:43:50.0000000+00:00</time></trkpt><trkpt lat="39.45332059" lon="-0.35114324"><ele>3.6</ele><time>2022-10-31T11:43:51.0000000+00:00</time></trkpt><trkpt lat="39.45329502" lon="-0.35114064"><ele>3.4</ele><time>2022-10-31T11:43:52.0000000+00:00</time></trkpt><trkpt lat="39.45326434" lon="-0.35113092"><ele>3.4</ele><time>2022-10-31T11:43:53.0000000+00:00</time></trkpt><trkpt lat="39.45323082" lon="-0.35112086"><ele>3.4</ele><time>2022-10-31T11:43:54.0000000+00:00</time></trkpt><trkpt lat="39.45319763" lon="-0.35110963"><ele>3.2</ele><time>2022-10-31T11:43:55.0000000+00:00</time></trkpt><trkpt lat="39.45316049" lon="-0.35109487"><ele>3.2</ele><time>2022-10-31T11:43:56.0000000+00:00</time></trkpt><trkpt lat="39.45312663" lon="-0.3510818"><ele>3.2</ele><time>2022-10-31T11:43:57.0000000+00:00</time></trkpt><trkpt lat="39.45309302" lon="-0.35107182"><ele>3.4</ele><time>2022-10-31T11:43:58.0000000+00:00</time></trkpt><trkpt lat="39.45305647" lon="-0.35106503"><ele>3.4</ele><time>2022-10-31T11:43:59.0000000+00:00</time></trkpt><trkpt lat="39.45301465" lon="-0.35106118"><ele>3.4</ele><time>2022-10-31T11:44:00.0000000+00:00</time></trkpt><trkpt lat="39.45298447" lon="-0.35107937"><ele>3.4</ele><time>2022-10-31T11:44:01.0000000+00:00</time></trkpt><trkpt lat="39.4529626" lon="-0.35111415"><ele>3.4</ele><time>2022-10-31T11:44:02.0000000+00:00</time></trkpt><trkpt lat="39.45294499" lon="-0.35115128"><ele>3.4</ele><time>2022-10-31T11:44:03.0000000+00:00</time></trkpt><trkpt lat="39.45293217" lon="-0.35119277"><ele>3.4</ele><time>2022-10-31T11:44:04.0000000+00:00</time></trkpt><trkpt lat="39.45291742" lon="-0.35123519"><ele>3.4</ele><time>2022-10-31T11:44:05.0000000+00:00</time></trkpt><trkpt lat="39.45290334" lon="-0.35128137"><ele>3.4</ele><time>2022-10-31T11:44:06.0000000+00:00</time></trkpt><trkpt lat="39.45289915" lon="-0.35131909"><ele>3.4</ele><time>2022-10-31T11:44:07.0000000+00:00</time></trkpt><trkpt lat="39.45289864" lon="-0.35134616"><ele>3.6</ele><time>2022-10-31T11:44:08.0000000+00:00</time></trkpt><trkpt lat="39.45290049" lon="-0.35136251"><ele>3.8</ele><time>2022-10-31T11:44:09.0000000+00:00</time></trkpt><trkpt lat="39.45289655" lon="-0.35137475"><ele>4.0</ele><time>2022-10-31T11:44:10.0000000+00:00</time></trkpt><trkpt lat="39.45288951" lon="-0.35138816"><ele>4.0</ele><time>2022-10-31T11:44:11.0000000+00:00</time></trkpt><trkpt lat="39.45288138" lon="-0.3514092"><ele>4.0</ele><time>2022-10-31T11:44:12.0000000+00:00</time></trkpt><trkpt lat="39.45286696" lon="-0.35143283"><ele>4.0</ele><time>2022-10-31T11:44:13.0000000+00:00</time></trkpt><trkpt lat="39.45285254" lon="-0.3514563"><ele>4.0</ele><time>2022-10-31T11:44:14.0000000+00:00</time></trkpt><trkpt lat="39.45283662" lon="-0.35148019"><ele>4.0</ele><time>2022-10-31T11:44:15.0000000+00:00</time></trkpt><trkpt lat="39.45281751" lon="-0.35150576"><ele>4.0</ele><time>2022-10-31T11:44:16.0000000+00:00</time></trkpt><trkpt lat="39.45279789" lon="-0.35153266"><ele>4.0</ele><time>2022-10-31T11:44:17.0000000+00:00</time></trkpt><trkpt lat="39.45278255" lon="-0.35156149"><ele>4.0</ele><time>2022-10-31T11:44:18.0000000+00:00</time></trkpt><trkpt lat="39.45276797" lon="-0.3515884"><ele>4.0</ele><time>2022-10-31T11:44:19.0000000+00:00</time></trkpt><trkpt lat="39.45275422" lon="-0.35161187"><ele>4.0</ele><time>2022-10-31T11:44:20.0000000+00:00</time></trkpt><trkpt lat="39.45274425" lon="-0.35163299"><ele>4.0</ele><time>2022-10-31T11:44:21.0000000+00:00</time></trkpt><trkpt lat="39.45273729" lon="-0.35165227"><ele>4.0</ele><time>2022-10-31T11:44:22.0000000+00:00</time></trkpt><trkpt lat="39.45273" lon="-0.35166694"><ele>4.0</ele><time>2022-10-31T11:44:23.0000000+00:00</time></trkpt><trkpt lat="39.45272262" lon="-0.35168236"><ele>4.0</ele><time>2022-10-31T11:44:24.0000000+00:00</time></trkpt><trkpt lat="39.45271416" lon="-0.35169217"><ele>3.8</ele><time>2022-10-31T11:44:25.0000000+00:00</time></trkpt><trkpt lat="39.45271256" lon="-0.35169519"><ele>3.8</ele><time>2022-10-31T11:44:26.0000000+00:00</time></trkpt><trkpt lat="39.45271256" lon="-0.35169519"><ele>3.8</ele><time>2022-10-31T11:44:27.0000000+00:00</time></trkpt><trkpt lat="39.45271256" lon="-0.35169519"><ele>4.0</ele><time>2022-10-31T11:44:28.0000000+00:00</time></trkpt><trkpt lat="39.45271256" lon="-0.35169519"><ele>4.0</ele><time>2022-10-31T11:44:29.0000000+00:00</time></trkpt><trkpt lat="39.45271256" lon="-0.35169519"><ele>4.0</ele><time>2022-10-31T11:44:30.0000000+00:00</time></trkpt><trkpt lat="39.45271256" lon="-0.35169519"><ele>4.0</ele><time>2022-10-31T11:44:31.0000000+00:00</time></trkpt><trkpt lat="39.45271256" lon="-0.35169519"><ele>4.0</ele><time>2022-10-31T11:44:32.0000000+00:00</time></trkpt><trkpt lat="39.45271256" lon="-0.35169519"><ele>4.0</ele><time>2022-10-31T11:44:33.0000000+00:00</time></trkpt><trkpt lat="39.45271256" lon="-0.35169519"><ele>4.0</ele><time>2022-10-31T11:44:34.0000000+00:00</time></trkpt><trkpt lat="39.45271256" lon="-0.35169519"><ele>4.0</ele><time>2022-10-31T11:44:35.0000000+00:00</time></trkpt><trkpt lat="39.45271256" lon="-0.35169519"><ele>4.0</ele><time>2022-10-31T11:44:36.0000000+00:00</time></trkpt><trkpt lat="39.45271256" lon="-0.35169519"><ele>4.0</ele><time>2022-10-31T11:44:37.0000000+00:00</time></trkpt><trkpt lat="39.45271256" lon="-0.35169519"><ele>4.0</ele><time>2022-10-31T11:44:38.0000000+00:00</time></trkpt><trkpt lat="39.45271256" lon="-0.35169519"><ele>4.0</ele><time>2022-10-31T11:44:39.0000000+00:00</time></trkpt><trkpt lat="39.45271256" lon="-0.35169519"><ele>4.0</ele><time>2022-10-31T11:44:40.0000000+00:00</time></trkpt><trkpt lat="39.45271256" lon="-0.35169519"><ele>4.0</ele><time>2022-10-31T11:44:41.0000000+00:00</time></trkpt><trkpt lat="39.45271256" lon="-0.35169519"><ele>4.0</ele><time>2022-10-31T11:44:42.0000000+00:00</time></trkpt><trkpt lat="39.45271256" lon="-0.35169519"><ele>4.0</ele><time>2022-10-31T11:44:43.0000000+00:00</time></trkpt><trkpt lat="39.45271256" lon="-0.35169519"><ele>4.0</ele><time>2022-10-31T11:44:44.0000000+00:00</time></trkpt><trkpt lat="39.45271256" lon="-0.35169519"><ele>4.0</ele><time>2022-10-31T11:44:45.0000000+00:00</time></trkpt><trkpt lat="39.45271256" lon="-0.35169519"><ele>4.0</ele><time>2022-10-31T11:44:46.0000000+00:00</time></trkpt><trkpt lat="39.45271256" lon="-0.35169519"><ele>4.0</ele><time>2022-10-31T11:44:47.0000000+00:00</time></trkpt><trkpt lat="39.45271256" lon="-0.35169519"><ele>4.0</ele><time>2022-10-31T11:44:48.0000000+00:00</time></trkpt><trkpt lat="39.45271256" lon="-0.35169519"><ele>4.0</ele><time>2022-10-31T11:44:49.0000000+00:00</time></trkpt><trkpt lat="39.45271256" lon="-0.35169519"><ele>4.0</ele><time>2022-10-31T11:44:50.0000000+00:00</time></trkpt><trkpt lat="39.45271256" lon="-0.35169519"><ele>4.0</ele><time>2022-10-31T11:44:51.0000000+00:00</time></trkpt><trkpt lat="39.45271256" lon="-0.35169519"><ele>4.0</ele><time>2022-10-31T11:44:52.0000000+00:00</time></trkpt><trkpt lat="39.45271256" lon="-0.35169519"><ele>4.0</ele><time>2022-10-31T11:44:53.0000000+00:00</time></trkpt><trkpt lat="39.45271256" lon="-0.35169519"><ele>4.0</ele><time>2022-10-31T11:44:54.0000000+00:00</time></trkpt><trkpt lat="39.45271256" lon="-0.35169519"><ele>4.0</ele><time>2022-10-31T11:44:55.0000000+00:00</time></trkpt><trkpt lat="39.45271256" lon="-0.35169519"><ele>4.0</ele><time>2022-10-31T11:44:56.0000000+00:00</time></trkpt><trkpt lat="39.45271256" lon="-0.35169519"><ele>4.0</ele><time>2022-10-31T11:44:57.0000000+00:00</time></trkpt><trkpt lat="39.45271256" lon="-0.35169519"><ele>4.0</ele><time>2022-10-31T11:44:58.0000000+00:00</time></trkpt><trkpt lat="39.45271256" lon="-0.35169519"><ele>4.0</ele><time>2022-10-31T11:44:59.0000000+00:00</time></trkpt><trkpt lat="39.45271256" lon="-0.35169519"><ele>4.0</ele><time>2022-10-31T11:45:00.0000000+00:00</time></trkpt><trkpt lat="39.45271256" lon="-0.35169519"><ele>4.0</ele><time>2022-10-31T11:45:01.0000000+00:00</time></trkpt><trkpt lat="39.45271256" lon="-0.35169519"><ele>4.0</ele><time>2022-10-31T11:45:02.0000000+00:00</time></trkpt><trkpt lat="39.45271256" lon="-0.35169519"><ele>4.0</ele><time>2022-10-31T11:45:03.0000000+00:00</time></trkpt><trkpt lat="39.45271256" lon="-0.35169519"><ele>4.0</ele><time>2022-10-31T11:45:04.0000000+00:00</time></trkpt><trkpt lat="39.45271039" lon="-0.35169267"><ele>4.0</ele><time>2022-10-31T11:45:05.0000000+00:00</time></trkpt><trkpt lat="39.45269932" lon="-0.35168622"><ele>4.0</ele><time>2022-10-31T11:45:06.0000000+00:00</time></trkpt><trkpt lat="39.45269295" lon="-0.351677"><ele>4.0</ele><time>2022-10-31T11:45:07.0000000+00:00</time></trkpt><trkpt lat="39.45268817" lon="-0.35166074"><ele>4.0</ele><time>2022-10-31T11:45:08.0000000+00:00</time></trkpt><trkpt lat="39.45268926" lon="-0.35164163"><ele>4.0</ele><time>2022-10-31T11:45:09.0000000+00:00</time></trkpt><trkpt lat="39.45269823" lon="-0.35162746"><ele>4.0</ele><time>2022-10-31T11:45:10.0000000+00:00</time></trkpt><trkpt lat="39.45271399" lon="-0.35160676"><ele>4.0</ele><time>2022-10-31T11:45:11.0000000+00:00</time></trkpt><trkpt lat="39.45272455" lon="-0.35158966"><ele>4.2</ele><time>2022-10-31T11:45:12.0000000+00:00</time></trkpt><trkpt lat="39.45273989" lon="-0.35156066"><ele>4.2</ele><time>2022-10-31T11:45:13.0000000+00:00</time></trkpt><trkpt lat="39.45275229" lon="-0.35153191"><ele>4.4</ele><time>2022-10-31T11:45:14.0000000+00:00</time></trkpt><trkpt lat="39.45276294" lon="-0.35150031"><ele>4.4</ele><time>2022-10-31T11:45:15.0000000+00:00</time></trkpt><trkpt lat="39.45277241" lon="-0.3514827"><ele>4.4</ele><time>2022-10-31T11:45:16.0000000+00:00</time></trkpt><trkpt lat="39.45278725" lon="-0.35145479"><ele>4.4</ele><time>2022-10-31T11:45:17.0000000+00:00</time></trkpt><trkpt lat="39.45280116" lon="-0.35143174"><ele>4.4</ele><time>2022-10-31T11:45:18.0000000+00:00</time></trkpt><trkpt lat="39.45281315" lon="-0.35141121"><ele>4.4</ele><time>2022-10-31T11:45:19.0000000+00:00</time></trkpt><trkpt lat="39.45282471" lon="-0.35139704"><ele>4.4</ele><time>2022-10-31T11:45:20.0000000+00:00</time></trkpt><trkpt lat="39.45283678" lon="-0.3513807"><ele>4.4</ele><time>2022-10-31T11:45:21.0000000+00:00</time></trkpt><trkpt lat="39.45284324" lon="-0.35136804"><ele>4.2</ele><time>2022-10-31T11:45:22.0000000+00:00</time></trkpt><trkpt lat="39.4528502" lon="-0.35135438"><ele>4.2</ele><time>2022-10-31T11:45:23.0000000+00:00</time></trkpt><trkpt lat="39.45285665" lon="-0.35134289"><ele>4.4</ele><time>2022-10-31T11:45:24.0000000+00:00</time></trkpt><trkpt lat="39.45286176" lon="-0.35133443"><ele>4.4</ele><time>2022-10-31T11:45:25.0000000+00:00</time></trkpt><trkpt lat="39.45286511" lon="-0.35131917"><ele>4.4</ele><time>2022-10-31T11:45:26.0000000+00:00</time></trkpt><trkpt lat="39.45287098" lon="-0.35130811"><ele>4.4</ele><time>2022-10-31T11:45:27.0000000+00:00</time></trkpt><trkpt lat="39.45287576" lon="-0.35130006"><ele>4.4</ele><time>2022-10-31T11:45:28.0000000+00:00</time></trkpt><trkpt lat="39.45287886" lon="-0.35129445"><ele>4.4</ele><time>2022-10-31T11:45:29.0000000+00:00</time></trkpt><trkpt lat="39.45287886" lon="-0.35129445"><ele>4.4</ele><time>2022-10-31T11:45:30.0000000+00:00</time></trkpt><trkpt lat="39.45287886" lon="-0.35129445"><ele>4.4</ele><time>2022-10-31T11:45:31.0000000+00:00</time></trkpt><trkpt lat="39.45287886" lon="-0.35129445"><ele>4.4</ele><time>2022-10-31T11:45:32.0000000+00:00</time></trkpt><trkpt lat="39.45287886" lon="-0.35129445"><ele>4.4</ele><time>2022-10-31T11:45:33.0000000+00:00</time></trkpt><trkpt lat="39.45287886" lon="-0.35129445"><ele>4.2</ele><time>2022-10-31T11:45:34.0000000+00:00</time></trkpt><trkpt lat="39.45287886" lon="-0.35129445"><ele>4.2</ele><time>2022-10-31T11:45:35.0000000+00:00</time></trkpt><trkpt lat="39.45287886" lon="-0.35129445"><ele>4.2</ele><time>2022-10-31T11:45:36.0000000+00:00</time></trkpt><trkpt lat="39.45287886" lon="-0.35129445"><ele>4.2</ele><time>2022-10-31T11:45:37.0000000+00:00</time></trkpt><trkpt lat="39.45287886" lon="-0.35129445"><ele>4.2</ele><time>2022-10-31T11:45:38.0000000+00:00</time></trkpt><trkpt lat="39.45287886" lon="-0.35129445"><ele>4.2</ele><time>2022-10-31T11:45:39.0000000+00:00</time></trkpt><trkpt lat="39.45287886" lon="-0.35129445"><ele>4.2</ele><time>2022-10-31T11:45:40.0000000+00:00</time></trkpt><trkpt lat="39.45287886" lon="-0.35129445"><ele>4.2</ele><time>2022-10-31T11:45:41.0000000+00:00</time></trkpt><trkpt lat="39.45287886" lon="-0.35129445"><ele>4.2</ele><time>2022-10-31T11:45:42.0000000+00:00</time></trkpt><trkpt lat="39.45287886" lon="-0.35129445"><ele>4.2</ele><time>2022-10-31T11:45:43.0000000+00:00</time></trkpt><trkpt lat="39.45287886" lon="-0.35129445"><ele>4.4</ele><time>2022-10-31T11:45:44.0000000+00:00</time></trkpt><trkpt lat="39.45287886" lon="-0.35129445"><ele>4.4</ele><time>2022-10-31T11:45:45.0000000+00:00</time></trkpt><trkpt lat="39.45287886" lon="-0.35129445"><ele>4.4</ele><time>2022-10-31T11:45:46.0000000+00:00</time></trkpt><trkpt lat="39.45287886" lon="-0.35129445"><ele>4.4</ele><time>2022-10-31T11:45:47.0000000+00:00</time></trkpt><trkpt lat="39.45287886" lon="-0.35129445"><ele>4.4</ele><time>2022-10-31T11:45:48.0000000+00:00</time></trkpt><trkpt lat="39.45287886" lon="-0.35129445"><ele>4.4</ele><time>2022-10-31T11:45:49.0000000+00:00</time></trkpt><trkpt lat="39.45287886" lon="-0.35129445"><ele>4.4</ele><time>2022-10-31T11:45:50.0000000+00:00</time></trkpt><trkpt lat="39.45287886" lon="-0.35129445"><ele>4.4</ele><time>2022-10-31T11:45:51.0000000+00:00</time></trkpt><trkpt lat="39.45287945" lon="-0.35129311"><ele>4.6</ele><time>2022-10-31T11:45:52.0000000+00:00</time></trkpt><trkpt lat="39.45288112" lon="-0.35128489"><ele>4.6</ele><time>2022-10-31T11:45:53.0000000+00:00</time></trkpt><trkpt lat="39.45288347" lon="-0.35126276"><ele>4.6</ele><time>2022-10-31T11:45:54.0000000+00:00</time></trkpt><trkpt lat="39.45288875" lon="-0.35123376"><ele>4.4</ele><time>2022-10-31T11:45:55.0000000+00:00</time></trkpt><trkpt lat="39.45289571" lon="-0.35120359"><ele>4.4</ele><time>2022-10-31T11:45:56.0000000+00:00</time></trkpt><trkpt lat="39.45290736" lon="-0.35115707"><ele>4.2</ele><time>2022-10-31T11:45:57.0000000+00:00</time></trkpt><trkpt lat="39.45291616" lon="-0.35112865"><ele>4.0</ele><time>2022-10-31T11:45:58.0000000+00:00</time></trkpt><trkpt lat="39.4529284" lon="-0.35108364"><ele>4.0</ele><time>2022-10-31T11:45:59.0000000+00:00</time></trkpt><trkpt lat="39.45293636" lon="-0.35104282"><ele>3.8</ele><time>2022-10-31T11:46:00.0000000+00:00</time></trkpt><trkpt lat="39.45293804" lon="-0.35100921"><ele>3.8</ele><time>2022-10-31T11:46:01.0000000+00:00</time></trkpt><trkpt lat="39.45293737" lon="-0.35096051"><ele>3.8</ele><time>2022-10-31T11:46:02.0000000+00:00</time></trkpt><trkpt lat="39.45293334" lon="-0.35092196"><ele>3.8</ele><time>2022-10-31T11:46:03.0000000+00:00</time></trkpt><trkpt lat="39.45292228" lon="-0.35089379"><ele>3.8</ele><time>2022-10-31T11:46:04.0000000+00:00</time></trkpt><trkpt lat="39.45289688" lon="-0.3508585"><ele>3.8</ele><time>2022-10-31T11:46:05.0000000+00:00</time></trkpt><trkpt lat="39.45286796" lon="-0.35083017"><ele>3.8</ele><time>2022-10-31T11:46:06.0000000+00:00</time></trkpt><trkpt lat="39.45284081" lon="-0.35080729"><ele>3.8</ele><time>2022-10-31T11:46:07.0000000+00:00</time></trkpt><trkpt lat="39.45279764" lon="-0.3507653"><ele>3.8</ele><time>2022-10-31T11:46:08.0000000+00:00</time></trkpt><trkpt lat="39.45275967" lon="-0.35071995"><ele>3.8</ele><time>2022-10-31T11:46:09.0000000+00:00</time></trkpt><trkpt lat="39.45273033" lon="-0.35068542"><ele>3.6</ele><time>2022-10-31T11:46:10.0000000+00:00</time></trkpt><trkpt lat="39.45268524" lon="-0.35063638"><ele>3.6</ele><time>2022-10-31T11:46:11.0000000+00:00</time></trkpt><trkpt lat="39.45265238" lon="-0.35060311"><ele>3.6</ele><time>2022-10-31T11:46:12.0000000+00:00</time></trkpt><trkpt lat="39.45261072" lon="-0.35056204"><ele>3.6</ele><time>2022-10-31T11:46:13.0000000+00:00</time></trkpt><trkpt lat="39.45256982" lon="-0.35052138"><ele>3.6</ele><time>2022-10-31T11:46:14.0000000+00:00</time></trkpt><trkpt lat="39.45253059" lon="-0.35047981"><ele>3.6</ele><time>2022-10-31T11:46:15.0000000+00:00</time></trkpt><trkpt lat="39.45249271" lon="-0.35044025"><ele>3.4</ele><time>2022-10-31T11:46:16.0000000+00:00</time></trkpt><trkpt lat="39.45245046" lon="-0.35039549"><ele>3.4</ele><time>2022-10-31T11:46:17.0000000+00:00</time></trkpt><trkpt lat="39.45242297" lon="-0.35037126"><ele>3.4</ele><time>2022-10-31T11:46:18.0000000+00:00</time></trkpt><trkpt lat="39.45239003" lon="-0.3503426"><ele>3.4</ele><time>2022-10-31T11:46:19.0000000+00:00</time></trkpt><trkpt lat="39.45235709" lon="-0.35031385"><ele>3.4</ele><time>2022-10-31T11:46:20.0000000+00:00</time></trkpt><trkpt lat="39.45231962" lon="-0.35027965"><ele>3.2</ele><time>2022-10-31T11:46:21.0000000+00:00</time></trkpt><trkpt lat="39.45229565" lon="-0.3502571"><ele>3.2</ele><time>2022-10-31T11:46:22.0000000+00:00</time></trkpt><trkpt lat="39.45226363" lon="-0.35022173"><ele>3.2</ele><time>2022-10-31T11:46:23.0000000+00:00</time></trkpt><trkpt lat="39.45223949" lon="-0.35019441"><ele>3.2</ele><time>2022-10-31T11:46:24.0000000+00:00</time></trkpt><trkpt lat="39.45221149" lon="-0.350167"><ele>3.2</ele><time>2022-10-31T11:46:25.0000000+00:00</time></trkpt><trkpt lat="39.45218761" lon="-0.35013766"><ele>3.2</ele><time>2022-10-31T11:46:26.0000000+00:00</time></trkpt><trkpt lat="39.45216238" lon="-0.35011226"><ele>3.2</ele><time>2022-10-31T11:46:27.0000000+00:00</time></trkpt><trkpt lat="39.45213832" lon="-0.35009148"><ele>3.0</ele><time>2022-10-31T11:46:28.0000000+00:00</time></trkpt><trkpt lat="39.45209867" lon="-0.35005242"><ele>3.0</ele><time>2022-10-31T11:46:29.0000000+00:00</time></trkpt><trkpt lat="39.45206431" lon="-0.35001855"><ele>3.2</ele><time>2022-10-31T11:46:30.0000000+00:00</time></trkpt><trkpt lat="39.45203405" lon="-0.34998863"><ele>3.2</ele><time>2022-10-31T11:46:31.0000000+00:00</time></trkpt><trkpt lat="39.45199491" lon="-0.3499489"><ele>3.2</ele><time>2022-10-31T11:46:32.0000000+00:00</time></trkpt><trkpt lat="39.45195593" lon="-0.34990406"><ele>3.4</ele><time>2022-10-31T11:46:33.0000000+00:00</time></trkpt><trkpt lat="39.45191444" lon="-0.34986039"><ele>3.2</ele><time>2022-10-31T11:46:34.0000000+00:00</time></trkpt><trkpt lat="39.4518706" lon="-0.34981588"><ele>3.2</ele><time>2022-10-31T11:46:35.0000000+00:00</time></trkpt><trkpt lat="39.45182232" lon="-0.34976374"><ele>3.2</ele><time>2022-10-31T11:46:36.0000000+00:00</time></trkpt><trkpt lat="39.45179382" lon="-0.34972879"><ele>3.2</ele><time>2022-10-31T11:46:37.0000000+00:00</time></trkpt><trkpt lat="39.45175258" lon="-0.3496759"><ele>3.2</ele><time>2022-10-31T11:46:38.0000000+00:00</time></trkpt><trkpt lat="39.45171453" lon="-0.34962335"><ele>3.2</ele><time>2022-10-31T11:46:39.0000000+00:00</time></trkpt><trkpt lat="39.45168117" lon="-0.34957733"><ele>3.2</ele><time>2022-10-31T11:46:40.0000000+00:00</time></trkpt><trkpt lat="39.45163121" lon="-0.34952033"><ele>3.2</ele><time>2022-10-31T11:46:41.0000000+00:00</time></trkpt><trkpt lat="39.45156969" lon="-0.34945286"><ele>3.2</ele><time>2022-10-31T11:46:42.0000000+00:00</time></trkpt><trkpt lat="39.45151798" lon="-0.34939829"><ele>3.2</ele><time>2022-10-31T11:46:43.0000000+00:00</time></trkpt><trkpt lat="39.45146416" lon="-0.34934188"><ele>3.2</ele><time>2022-10-31T11:46:44.0000000+00:00</time></trkpt><trkpt lat="39.45140851" lon="-0.34928648"><ele>3.2</ele><time>2022-10-31T11:46:45.0000000+00:00</time></trkpt><trkpt lat="39.451364" lon="-0.34924172"><ele>3.2</ele><time>2022-10-31T11:46:46.0000000+00:00</time></trkpt><trkpt lat="39.45129619" lon="-0.34917349"><ele>3.2</ele><time>2022-10-31T11:46:47.0000000+00:00</time></trkpt><trkpt lat="39.45125059" lon="-0.34912504"><ele>3.0</ele><time>2022-10-31T11:46:48.0000000+00:00</time></trkpt><trkpt lat="39.4511977" lon="-0.34906394"><ele>3.0</ele><time>2022-10-31T11:46:49.0000000+00:00</time></trkpt><trkpt lat="39.45113333" lon="-0.34898859"><ele>2.8</ele><time>2022-10-31T11:46:50.0000000+00:00</time></trkpt><trkpt lat="39.45108061" lon="-0.34892161"><ele>2.6</ele><time>2022-10-31T11:46:51.0000000+00:00</time></trkpt><trkpt lat="39.45103786" lon="-0.34886696"><ele>2.6</ele><time>2022-10-31T11:46:52.0000000+00:00</time></trkpt><trkpt lat="39.45097365" lon="-0.3487958"><ele>2.6</ele><time>2022-10-31T11:46:53.0000000+00:00</time></trkpt><trkpt lat="39.4509154" lon="-0.34873696"><ele>2.6</ele><time>2022-10-31T11:46:54.0000000+00:00</time></trkpt><trkpt lat="39.45087072" lon="-0.34868935"><ele>2.6</ele><time>2022-10-31T11:46:55.0000000+00:00</time></trkpt><trkpt lat="39.45080426" lon="-0.34861727"><ele>2.4</ele><time>2022-10-31T11:46:56.0000000+00:00</time></trkpt><trkpt lat="39.45076084" lon="-0.34856631"><ele>2.4</ele><time>2022-10-31T11:46:57.0000000+00:00</time></trkpt><trkpt lat="39.45070661" lon="-0.34850118"><ele>2.6</ele><time>2022-10-31T11:46:58.0000000+00:00</time></trkpt><trkpt lat="39.45065321" lon="-0.34843328"><ele>2.4</ele><time>2022-10-31T11:46:59.0000000+00:00</time></trkpt><trkpt lat="39.45059949" lon="-0.34836573"><ele>2.4</ele><time>2022-10-31T11:47:00.0000000+00:00</time></trkpt><trkpt lat="39.45054777" lon="-0.3482985"><ele>2.4</ele><time>2022-10-31T11:47:01.0000000+00:00</time></trkpt><trkpt lat="39.45049672" lon="-0.34823103"><ele>2.2</ele><time>2022-10-31T11:47:02.0000000+00:00</time></trkpt><trkpt lat="39.45044492" lon="-0.34816532"><ele>2.0</ele><time>2022-10-31T11:47:03.0000000+00:00</time></trkpt><trkpt lat="39.45039128" lon="-0.34810103"><ele>2.0</ele><time>2022-10-31T11:47:04.0000000+00:00</time></trkpt><trkpt lat="39.45034049" lon="-0.34803598"><ele>1.8</ele><time>2022-10-31T11:47:05.0000000+00:00</time></trkpt><trkpt lat="39.45027888" lon="-0.34795233"><ele>1.8</ele><time>2022-10-31T11:47:06.0000000+00:00</time></trkpt><trkpt lat="39.45022347" lon="-0.34788913"><ele>1.8</ele><time>2022-10-31T11:47:07.0000000+00:00</time></trkpt><trkpt lat="39.4501783" lon="-0.34784068"><ele>1.8</ele><time>2022-10-31T11:47:08.0000000+00:00</time></trkpt><trkpt lat="39.4501094" lon="-0.34776541"><ele>1.8</ele><time>2022-10-31T11:47:09.0000000+00:00</time></trkpt><trkpt lat="39.45005114" lon="-0.34770364"><ele>1.8</ele><time>2022-10-31T11:47:10.0000000+00:00</time></trkpt><trkpt lat="39.44999415" lon="-0.34764505"><ele>2.0</ele><time>2022-10-31T11:47:11.0000000+00:00</time></trkpt><trkpt lat="39.44994964" lon="-0.34759878"><ele>2.0</ele><time>2022-10-31T11:47:12.0000000+00:00</time></trkpt><trkpt lat="39.44989516" lon="-0.3475391"><ele>1.8</ele><time>2022-10-31T11:47:13.0000000+00:00</time></trkpt><trkpt lat="39.44984193" lon="-0.34747758"><ele>1.8</ele><time>2022-10-31T11:47:14.0000000+00:00</time></trkpt><trkpt lat="39.44979155" lon="-0.34741413"><ele>1.6</ele><time>2022-10-31T11:47:15.0000000+00:00</time></trkpt><trkpt lat="39.44973121" lon="-0.34733282"><ele>1.6</ele><time>2022-10-31T11:47:16.0000000+00:00</time></trkpt><trkpt lat="39.44968234" lon="-0.34726116"><ele>1.6</ele><time>2022-10-31T11:47:17.0000000+00:00</time></trkpt><trkpt lat="39.4496442" lon="-0.34720064"><ele>1.6</ele><time>2022-10-31T11:47:18.0000000+00:00</time></trkpt><trkpt lat="39.44959366" lon="-0.3471268"><ele>1.6</ele><time>2022-10-31T11:47:19.0000000+00:00</time></trkpt><trkpt lat="39.44952895" lon="-0.34704105"><ele>1.6</ele><time>2022-10-31T11:47:20.0000000+00:00</time></trkpt><trkpt lat="39.44948327" lon="-0.34698565"><ele>1.6</ele><time>2022-10-31T11:47:21.0000000+00:00</time></trkpt><trkpt lat="39.44942812" lon="-0.34692085"><ele>1.6</ele><time>2022-10-31T11:47:22.0000000+00:00</time></trkpt><trkpt lat="39.44937397" lon="-0.34685514"><ele>1.6</ele><time>2022-10-31T11:47:23.0000000+00:00</time></trkpt><trkpt lat="39.44931664" lon="-0.34678741"><ele>1.6</ele><time>2022-10-31T11:47:24.0000000+00:00</time></trkpt><trkpt lat="39.4492479" lon="-0.34670812"><ele>1.6</ele><time>2022-10-31T11:47:25.0000000+00:00</time></trkpt><trkpt lat="39.44918856" lon="-0.34664274"><ele>1.6</ele><time>2022-10-31T11:47:26.0000000+00:00</time></trkpt><trkpt lat="39.44914145" lon="-0.34658901"><ele>1.6</ele><time>2022-10-31T11:47:27.0000000+00:00</time></trkpt><trkpt lat="39.4490708" lon="-0.34651056"><ele>1.8</ele><time>2022-10-31T11:47:28.0000000+00:00</time></trkpt><trkpt lat="39.44902176" lon="-0.34646303"><ele>1.8</ele><time>2022-10-31T11:47:29.0000000+00:00</time></trkpt><trkpt lat="39.44895823" lon="-0.34640168"><ele>1.6</ele><time>2022-10-31T11:47:30.0000000+00:00</time></trkpt><trkpt lat="39.44888338" lon="-0.34632926"><ele>1.8</ele><time>2022-10-31T11:47:31.0000000+00:00</time></trkpt><trkpt lat="39.44883216" lon="-0.34627955"><ele>1.8</ele><time>2022-10-31T11:47:32.0000000+00:00</time></trkpt><trkpt lat="39.4487703" lon="-0.34621929"><ele>1.8</ele><time>2022-10-31T11:47:33.0000000+00:00</time></trkpt><trkpt lat="39.44869604" lon="-0.34614762"><ele>1.8</ele><time>2022-10-31T11:47:34.0000000+00:00</time></trkpt><trkpt lat="39.44863276" lon="-0.34609406"><ele>1.8</ele><time>2022-10-31T11:47:35.0000000+00:00</time></trkpt><trkpt lat="39.4485823" lon="-0.34605366"><ele>1.8</ele><time>2022-10-31T11:47:36.0000000+00:00</time></trkpt><trkpt lat="39.44850703" lon="-0.34598736"><ele>1.8</ele><time>2022-10-31T11:47:37.0000000+00:00</time></trkpt><trkpt lat="39.44844458" lon="-0.3459271"><ele>1.8</ele><time>2022-10-31T11:47:38.0000000+00:00</time></trkpt><trkpt lat="39.44839521" lon="-0.3458784"><ele>1.8</ele><time>2022-10-31T11:47:39.0000000+00:00</time></trkpt><trkpt lat="39.44833579" lon="-0.34581461"><ele>1.8</ele><time>2022-10-31T11:47:40.0000000+00:00</time></trkpt><trkpt lat="39.44827988" lon="-0.34575082"><ele>1.8</ele><time>2022-10-31T11:47:41.0000000+00:00</time></trkpt><trkpt lat="39.44821249" lon="-0.34567069"><ele>1.8</ele><time>2022-10-31T11:47:42.0000000+00:00</time></trkpt><trkpt lat="39.44816848" lon="-0.34561713"><ele>2.0</ele><time>2022-10-31T11:47:43.0000000+00:00</time></trkpt><trkpt lat="39.44811367" lon="-0.34555133"><ele>2.0</ele><time>2022-10-31T11:47:44.0000000+00:00</time></trkpt><trkpt lat="39.44804703" lon="-0.34547615"><ele>2.0</ele><time>2022-10-31T11:47:45.0000000+00:00</time></trkpt><trkpt lat="39.44799464" lon="-0.34541831"><ele>2.0</ele><time>2022-10-31T11:47:46.0000000+00:00</time></trkpt><trkpt lat="39.44794326" lon="-0.34535738"><ele>2.0</ele><time>2022-10-31T11:47:47.0000000+00:00</time></trkpt><trkpt lat="39.44789423" lon="-0.34529284"><ele>2.0</ele><time>2022-10-31T11:47:48.0000000+00:00</time></trkpt><trkpt lat="39.44785466" lon="-0.3452412"><ele>1.8</ele><time>2022-10-31T11:47:49.0000000+00:00</time></trkpt><trkpt lat="39.44779641" lon="-0.34516476"><ele>1.8</ele><time>2022-10-31T11:47:50.0000000+00:00</time></trkpt><trkpt lat="39.44775643" lon="-0.34511237"><ele>1.6</ele><time>2022-10-31T11:47:51.0000000+00:00</time></trkpt><trkpt lat="39.44770295" lon="-0.34503384"><ele>1.8</ele><time>2022-10-31T11:47:52.0000000+00:00</time></trkpt><trkpt lat="39.44765895" lon="-0.3449703"><ele>1.8</ele><time>2022-10-31T11:47:53.0000000+00:00</time></trkpt><trkpt lat="39.4476131" lon="-0.34490559"><ele>1.8</ele><time>2022-10-31T11:47:54.0000000+00:00</time></trkpt><trkpt lat="39.44756675" lon="-0.34483954"><ele>1.8</ele><time>2022-10-31T11:47:55.0000000+00:00</time></trkpt><trkpt lat="39.44752249" lon="-0.34477475"><ele>1.6</ele><time>2022-10-31T11:47:56.0000000+00:00</time></trkpt><trkpt lat="39.44748905" lon="-0.34472295"><ele>1.6</ele><time>2022-10-31T11:47:57.0000000+00:00</time></trkpt><trkpt lat="39.44743599" lon="-0.34464307"><ele>1.6</ele><time>2022-10-31T11:47:58.0000000+00:00</time></trkpt><trkpt lat="39.44739006" lon="-0.34457644"><ele>1.6</ele><time>2022-10-31T11:47:59.0000000+00:00</time></trkpt><trkpt lat="39.44735318" lon="-0.3445212"><ele>1.6</ele><time>2022-10-31T11:48:00.0000000+00:00</time></trkpt><trkpt lat="39.44730749" lon="-0.34445666"><ele>1.6</ele><time>2022-10-31T11:48:01.0000000+00:00</time></trkpt><trkpt lat="39.44726106" lon="-0.34439413"><ele>1.6</ele><time>2022-10-31T11:48:02.0000000+00:00</time></trkpt><trkpt lat="39.44720331" lon="-0.3443197"><ele>1.8</ele><time>2022-10-31T11:48:03.0000000+00:00</time></trkpt><trkpt lat="39.44715712" lon="-0.34425767"><ele>1.8</ele><time>2022-10-31T11:48:04.0000000+00:00</time></trkpt><trkpt lat="39.44711991" lon="-0.34420487"><ele>2.0</ele><time>2022-10-31T11:48:05.0000000+00:00</time></trkpt><trkpt lat="39.44707708" lon="-0.34413924"><ele>2.0</ele><time>2022-10-31T11:48:06.0000000+00:00</time></trkpt><trkpt lat="39.44703047" lon="-0.34405818"><ele>2.2</ele><time>2022-10-31T11:48:07.0000000+00:00</time></trkpt><trkpt lat="39.44698974" lon="-0.34398878"><ele>2.2</ele><time>2022-10-31T11:48:08.0000000+00:00</time></trkpt><trkpt lat="39.44696166" lon="-0.34393044"><ele>2.2</ele><time>2022-10-31T11:48:09.0000000+00:00</time></trkpt><trkpt lat="39.44692117" lon="-0.34384587"><ele>2.2</ele><time>2022-10-31T11:48:10.0000000+00:00</time></trkpt><trkpt lat="39.44688681" lon="-0.34377823"><ele>2.2</ele><time>2022-10-31T11:48:11.0000000+00:00</time></trkpt><trkpt lat="39.44686049" lon="-0.34372601"><ele>2.2</ele><time>2022-10-31T11:48:12.0000000+00:00</time></trkpt><trkpt lat="39.44682922" lon="-0.34366499"><ele>2.0</ele><time>2022-10-31T11:48:13.0000000+00:00</time></trkpt><trkpt lat="39.44679192" lon="-0.34358662"><ele>2.0</ele><time>2022-10-31T11:48:14.0000000+00:00</time></trkpt><trkpt lat="39.44676502" lon="-0.34354001"><ele>2.0</ele><time>2022-10-31T11:48:15.0000000+00:00</time></trkpt><trkpt lat="39.44673149" lon="-0.34348209"><ele>1.8</ele><time>2022-10-31T11:48:16.0000000+00:00</time></trkpt><trkpt lat="39.44670123" lon="-0.34342686"><ele>1.8</ele><time>2022-10-31T11:48:17.0000000+00:00</time></trkpt><trkpt lat="39.4466677" lon="-0.3433655"><ele>1.6</ele><time>2022-10-31T11:48:18.0000000+00:00</time></trkpt><trkpt lat="39.44664063" lon="-0.34331814"><ele>1.6</ele><time>2022-10-31T11:48:19.0000000+00:00</time></trkpt><trkpt lat="39.44661255" lon="-0.34327162"><ele>1.4</ele><time>2022-10-31T11:48:20.0000000+00:00</time></trkpt><trkpt lat="39.44658933" lon="-0.34323508"><ele>1.4</ele><time>2022-10-31T11:48:21.0000000+00:00</time></trkpt><trkpt lat="39.44655907" lon="-0.34318957"><ele>1.4</ele><time>2022-10-31T11:48:22.0000000+00:00</time></trkpt><trkpt lat="39.44652353" lon="-0.34314933"><ele>1.4</ele><time>2022-10-31T11:48:23.0000000+00:00</time></trkpt><trkpt lat="39.44648766" lon="-0.34311656"><ele>1.4</ele><time>2022-10-31T11:48:24.0000000+00:00</time></trkpt><trkpt lat="39.44644567" lon="-0.34308437"><ele>1.4</ele><time>2022-10-31T11:48:25.0000000+00:00</time></trkpt><trkpt lat="39.44641667" lon="-0.34305437"><ele>1.4</ele><time>2022-10-31T11:48:26.0000000+00:00</time></trkpt><trkpt lat="39.44640434" lon="-0.34303358"><ele>1.4</ele><time>2022-10-31T11:48:27.0000000+00:00</time></trkpt><trkpt lat="39.44639797" lon="-0.34299997"><ele>1.4</ele><time>2022-10-31T11:48:28.0000000+00:00</time></trkpt><trkpt lat="39.44639923" lon="-0.34297013"><ele>1.4</ele><time>2022-10-31T11:48:29.0000000+00:00</time></trkpt><trkpt lat="39.44640594" lon="-0.34294515"><ele>1.4</ele><time>2022-10-31T11:48:30.0000000+00:00</time></trkpt><trkpt lat="39.44640577" lon="-0.3429071"><ele>1.4</ele><time>2022-10-31T11:48:31.0000000+00:00</time></trkpt><trkpt lat="39.44639437" lon="-0.34288723"><ele>1.4</ele><time>2022-10-31T11:48:32.0000000+00:00</time></trkpt><trkpt lat="39.44637526" lon="-0.3428796"><ele>1.4</ele><time>2022-10-31T11:48:33.0000000+00:00</time></trkpt><trkpt lat="39.44634919" lon="-0.34287818"><ele>1.6</ele><time>2022-10-31T11:48:34.0000000+00:00</time></trkpt><trkpt lat="39.44632153" lon="-0.3428755"><ele>1.6</ele><time>2022-10-31T11:48:35.0000000+00:00</time></trkpt><trkpt lat="39.44629504" lon="-0.34287181"><ele>1.6</ele><time>2022-10-31T11:48:36.0000000+00:00</time></trkpt><trkpt lat="39.44626504" lon="-0.34286971"><ele>1.6</ele><time>2022-10-31T11:48:37.0000000+00:00</time></trkpt><trkpt lat="39.4462243" lon="-0.34286778"><ele>1.8</ele><time>2022-10-31T11:48:38.0000000+00:00</time></trkpt><trkpt lat="39.44619966" lon="-0.34285647"><ele>1.8</ele><time>2022-10-31T11:48:39.0000000+00:00</time></trkpt><trkpt lat="39.44616261" lon="-0.34282738"><ele>1.8</ele><time>2022-10-31T11:48:40.0000000+00:00</time></trkpt><trkpt lat="39.44613143" lon="-0.34279469"><ele>1.8</ele><time>2022-10-31T11:48:41.0000000+00:00</time></trkpt><trkpt lat="39.44610536" lon="-0.34276284"><ele>2.0</ele><time>2022-10-31T11:48:42.0000000+00:00</time></trkpt><trkpt lat="39.44607426" lon="-0.34271565"><ele>2.0</ele><time>2022-10-31T11:48:43.0000000+00:00</time></trkpt><trkpt lat="39.44604459" lon="-0.34266318"><ele>2.2</ele><time>2022-10-31T11:48:44.0000000+00:00</time></trkpt><trkpt lat="39.44601056" lon="-0.34260795"><ele>2.2</ele><time>2022-10-31T11:48:45.0000000+00:00</time></trkpt><trkpt lat="39.44597175" lon="-0.34253578"><ele>2.2</ele><time>2022-10-31T11:48:46.0000000+00:00</time></trkpt><trkpt lat="39.44593781" lon="-0.34247266"><ele>2.4</ele><time>2022-10-31T11:48:47.0000000+00:00</time></trkpt><trkpt lat="39.4459016" lon="-0.34241097"><ele>2.4</ele><time>2022-10-31T11:48:48.0000000+00:00</time></trkpt><trkpt lat="39.44586279" lon="-0.34235339"><ele>2.4</ele><time>2022-10-31T11:48:49.0000000+00:00</time></trkpt><trkpt lat="39.44583077" lon="-0.34231039"><ele>2.6</ele><time>2022-10-31T11:48:50.0000000+00:00</time></trkpt><trkpt lat="39.44578459" lon="-0.34224451"><ele>2.6</ele><time>2022-10-31T11:48:51.0000000+00:00</time></trkpt><trkpt lat="39.44574787" lon="-0.34218684"><ele>2.6</ele><time>2022-10-31T11:48:52.0000000+00:00</time></trkpt><trkpt lat="39.44571015" lon="-0.34212657"><ele>2.6</ele><time>2022-10-31T11:48:53.0000000+00:00</time></trkpt><trkpt lat="39.44567051" lon="-0.34206505"><ele>2.6</ele><time>2022-10-31T11:48:54.0000000+00:00</time></trkpt><trkpt lat="39.44563103" lon="-0.34200747"><ele>2.6</ele><time>2022-10-31T11:48:55.0000000+00:00</time></trkpt><trkpt lat="39.44559306" lon="-0.34194812"><ele>2.6</ele><time>2022-10-31T11:48:56.0000000+00:00</time></trkpt><trkpt lat="39.44556322" lon="-0.34190202"><ele>2.8</ele><time>2022-10-31T11:48:57.0000000+00:00</time></trkpt><trkpt lat="39.44553296" lon="-0.34184109"><ele>2.8</ele><time>2022-10-31T11:48:58.0000000+00:00</time></trkpt><trkpt lat="39.44551134" lon="-0.3417571"><ele>2.8</ele><time>2022-10-31T11:48:59.0000000+00:00</time></trkpt><trkpt lat="39.44550555" lon="-0.34168803"><ele>2.8</ele><time>2022-10-31T11:49:00.0000000+00:00</time></trkpt><trkpt lat="39.44550388" lon="-0.34163011"><ele>3.0</ele><time>2022-10-31T11:49:01.0000000+00:00</time></trkpt><trkpt lat="39.44550287" lon="-0.34158041"><ele>3.4</ele><time>2022-10-31T11:49:02.0000000+00:00</time></trkpt><trkpt lat="39.44550279" lon="-0.34154587"><ele>4.0</ele><time>2022-10-31T11:49:03.0000000+00:00</time></trkpt><trkpt lat="39.44550153" lon="-0.34149919"><ele>4.4</ele><time>2022-10-31T11:49:04.0000000+00:00</time></trkpt><trkpt lat="39.44550304" lon="-0.34147044"><ele>5.0</ele><time>2022-10-31T11:49:05.0000000+00:00</time></trkpt><trkpt lat="39.44550538" lon="-0.34143632"><ele>5.4</ele><time>2022-10-31T11:49:06.0000000+00:00</time></trkpt><trkpt lat="39.44550404" lon="-0.3414085"><ele>5.6</ele><time>2022-10-31T11:49:07.0000000+00:00</time></trkpt><trkpt lat="39.44550463" lon="-0.34137849"><ele>6.0</ele><time>2022-10-31T11:49:08.0000000+00:00</time></trkpt><trkpt lat="39.44550354" lon="-0.34135225"><ele>6.4</ele><time>2022-10-31T11:49:09.0000000+00:00</time></trkpt><trkpt lat="39.44550371" lon="-0.34132317"><ele>6.6</ele><time>2022-10-31T11:49:10.0000000+00:00</time></trkpt><trkpt lat="39.4455043" lon="-0.34130154"><ele>6.8</ele><time>2022-10-31T11:49:11.0000000+00:00</time></trkpt><trkpt lat="39.44550538" lon="-0.34128285"><ele>7.0</ele><time>2022-10-31T11:49:12.0000000+00:00</time></trkpt><trkpt lat="39.4455074" lon="-0.34125896"><ele>7.0</ele><time>2022-10-31T11:49:13.0000000+00:00</time></trkpt><trkpt lat="39.44550765" lon="-0.34124027"><ele>7.4</ele><time>2022-10-31T11:49:14.0000000+00:00</time></trkpt><trkpt lat="39.44550471" lon="-0.34121437"><ele>7.6</ele><time>2022-10-31T11:49:15.0000000+00:00</time></trkpt><trkpt lat="39.44550421" lon="-0.34119492"><ele>7.6</ele><time>2022-10-31T11:49:16.0000000+00:00</time></trkpt><trkpt lat="39.44550471" lon="-0.34117833"><ele>7.8</ele><time>2022-10-31T11:49:17.0000000+00:00</time></trkpt><trkpt lat="39.44550471" lon="-0.34115436"><ele>8.0</ele><time>2022-10-31T11:49:18.0000000+00:00</time></trkpt><trkpt lat="39.44550362" lon="-0.34113986"><ele>8.2</ele><time>2022-10-31T11:49:19.0000000+00:00</time></trkpt><trkpt lat="39.4454996" lon="-0.3411184"><ele>8.4</ele><time>2022-10-31T11:49:20.0000000+00:00</time></trkpt><trkpt lat="39.44549851" lon="-0.34109711"><ele>8.8</ele><time>2022-10-31T11:49:21.0000000+00:00</time></trkpt><trkpt lat="39.44549893" lon="-0.34108655"><ele>9.2</ele><time>2022-10-31T11:49:22.0000000+00:00</time></trkpt><trkpt lat="39.44550262" lon="-0.3410707"><ele>9.4</ele><time>2022-10-31T11:49:23.0000000+00:00</time></trkpt><trkpt lat="39.44550597" lon="-0.34105168"><ele>9.6</ele><time>2022-10-31T11:49:24.0000000+00:00</time></trkpt><trkpt lat="39.44550748" lon="-0.34104095"><ele>10.0</ele><time>2022-10-31T11:49:25.0000000+00:00</time></trkpt><trkpt lat="39.44550983" lon="-0.34102578"><ele>10.2</ele><time>2022-10-31T11:49:26.0000000+00:00</time></trkpt><trkpt lat="39.44550991" lon="-0.34100667"><ele>10.2</ele><time>2022-10-31T11:49:27.0000000+00:00</time></trkpt><trkpt lat="39.44550999" lon="-0.34097993"><ele>10.4</ele><time>2022-10-31T11:49:28.0000000+00:00</time></trkpt><trkpt lat="39.44550698" lon="-0.34095646"><ele>10.4</ele><time>2022-10-31T11:49:29.0000000+00:00</time></trkpt><trkpt lat="39.4455053" lon="-0.3409226"><ele>10.4</ele><time>2022-10-31T11:49:30.0000000+00:00</time></trkpt><trkpt lat="39.44550337" lon="-0.34089804"><ele>10.4</ele><time>2022-10-31T11:49:31.0000000+00:00</time></trkpt><trkpt lat="39.44550178" lon="-0.34087549"><ele>10.6</ele><time>2022-10-31T11:49:32.0000000+00:00</time></trkpt><trkpt lat="39.44549935" lon="-0.34084741"><ele>10.6</ele><time>2022-10-31T11:49:33.0000000+00:00</time></trkpt><trkpt lat="39.44549508" lon="-0.34081707"><ele>10.6</ele><time>2022-10-31T11:49:34.0000000+00:00</time></trkpt><trkpt lat="39.44549038" lon="-0.34077725"><ele>10.6</ele><time>2022-10-31T11:49:35.0000000+00:00</time></trkpt><trkpt lat="39.44548544" lon="-0.34072403"><ele>10.4</ele><time>2022-10-31T11:49:36.0000000+00:00</time></trkpt><trkpt lat="39.44548217" lon="-0.34066686"><ele>10.4</ele><time>2022-10-31T11:49:37.0000000+00:00</time></trkpt><trkpt lat="39.44548124" lon="-0.34060484"><ele>10.2</ele><time>2022-10-31T11:49:38.0000000+00:00</time></trkpt><trkpt lat="39.44548384" lon="-0.34053619"><ele>9.8</ele><time>2022-10-31T11:49:39.0000000+00:00</time></trkpt><trkpt lat="39.44548535" lon="-0.34049353"><ele>9.2</ele><time>2022-10-31T11:49:40.0000000+00:00</time></trkpt><trkpt lat="39.44547948" lon="-0.3404709"><ele>8.2</ele><time>2022-10-31T11:49:41.0000000+00:00</time></trkpt><trkpt lat="39.44546389" lon="-0.34045992"><ele>7.6</ele><time>2022-10-31T11:49:42.0000000+00:00</time></trkpt><trkpt lat="39.44545493" lon="-0.3404714"><ele>7.2</ele><time>2022-10-31T11:49:43.0000000+00:00</time></trkpt><trkpt lat="39.44545518" lon="-0.34049219"><ele>6.8</ele><time>2022-10-31T11:49:44.0000000+00:00</time></trkpt><trkpt lat="39.44545593" lon="-0.34053116"><ele>6.4</ele><time>2022-10-31T11:49:45.0000000+00:00</time></trkpt><trkpt lat="39.4454561" lon="-0.34056427"><ele>6.2</ele><time>2022-10-31T11:49:46.0000000+00:00</time></trkpt><trkpt lat="39.44545861" lon="-0.34059587"><ele>5.8</ele><time>2022-10-31T11:49:47.0000000+00:00</time></trkpt><trkpt lat="39.44546029" lon="-0.34061733"><ele>5.4</ele><time>2022-10-31T11:49:48.0000000+00:00</time></trkpt><trkpt lat="39.44546121" lon="-0.34062361"><ele>5.2</ele><time>2022-10-31T11:49:49.0000000+00:00</time></trkpt><trkpt lat="39.44546121" lon="-0.34062361"><ele>4.8</ele><time>2022-10-31T11:49:50.0000000+00:00</time></trkpt><trkpt lat="39.44546121" lon="-0.34062361"><ele>4.6</ele><time>2022-10-31T11:49:51.0000000+00:00</time></trkpt><trkpt lat="39.44546121" lon="-0.34062361"><ele>4.6</ele><time>2022-10-31T11:49:52.0000000+00:00</time></trkpt><trkpt lat="39.44546121" lon="-0.34062361"><ele>4.2</ele><time>2022-10-31T11:49:53.0000000+00:00</time></trkpt><trkpt lat="39.44546121" lon="-0.34062361"><ele>4.2</ele><time>2022-10-31T11:49:54.0000000+00:00</time></trkpt><trkpt lat="39.44546121" lon="-0.34062361"><ele>4.2</ele><time>2022-10-31T11:49:55.0000000+00:00</time></trkpt><trkpt lat="39.44546121" lon="-0.34062361"><ele>4.2</ele><time>2022-10-31T11:49:56.0000000+00:00</time></trkpt><trkpt lat="39.44546121" lon="-0.34062361"><ele>4.2</ele><time>2022-10-31T11:49:57.0000000+00:00</time></trkpt><trkpt lat="39.44546121" lon="-0.34062361"><ele>4.2</ele><time>2022-10-31T11:49:58.0000000+00:00</time></trkpt><trkpt lat="39.44546121" lon="-0.34062361"><ele>4.2</ele><time>2022-10-31T11:49:59.0000000+00:00</time></trkpt><trkpt lat="39.44546121" lon="-0.34062361"><ele>4.2</ele><time>2022-10-31T11:50:00.0000000+00:00</time></trkpt><trkpt lat="39.44546121" lon="-0.34062361"><ele>4.2</ele><time>2022-10-31T11:50:01.0000000+00:00</time></trkpt><trkpt lat="39.44546121" lon="-0.34062361"><ele>4.2</ele><time>2022-10-31T11:50:02.0000000+00:00</time></trkpt><trkpt lat="39.44546121" lon="-0.34062361"><ele>4.2</ele><time>2022-10-31T11:50:03.0000000+00:00</time></trkpt><trkpt lat="39.44545987" lon="-0.34062747"><ele>4.2</ele><time>2022-10-31T11:50:04.0000000+00:00</time></trkpt><trkpt lat="39.44546113" lon="-0.34064113"><ele>4.2</ele><time>2022-10-31T11:50:05.0000000+00:00</time></trkpt><trkpt lat="39.44547152" lon="-0.34065949"><ele>4.2</ele><time>2022-10-31T11:50:06.0000000+00:00</time></trkpt><trkpt lat="39.44548133" lon="-0.34066645"><ele>4.2</ele><time>2022-10-31T11:50:07.0000000+00:00</time></trkpt><trkpt lat="39.44548544" lon="-0.34066619"><ele>4.2</ele><time>2022-10-31T11:50:08.0000000+00:00</time></trkpt><trkpt lat="39.44548619" lon="-0.34066125"><ele>4.2</ele><time>2022-10-31T11:50:09.0000000+00:00</time></trkpt><trkpt lat="39.4454825" lon="-0.34064155"><ele>4.2</ele><time>2022-10-31T11:50:10.0000000+00:00</time></trkpt><trkpt lat="39.44547462" lon="-0.34061548"><ele>4.2</ele><time>2022-10-31T11:50:11.0000000+00:00</time></trkpt><trkpt lat="39.44546783" lon="-0.34058388"><ele>4.2</ele><time>2022-10-31T11:50:12.0000000+00:00</time></trkpt><trkpt lat="39.44546356" lon="-0.34054357"><ele>3.8</ele><time>2022-10-31T11:50:13.0000000+00:00</time></trkpt><trkpt lat="39.44546658" lon="-0.34049378"><ele>3.4</ele><time>2022-10-31T11:50:14.0000000+00:00</time></trkpt><trkpt lat="39.44547286" lon="-0.34043251"><ele>3.0</ele><time>2022-10-31T11:50:15.0000000+00:00</time></trkpt><trkpt lat="39.4454711" lon="-0.34038666"><ele>2.6</ele><time>2022-10-31T11:50:16.0000000+00:00</time></trkpt><trkpt lat="39.44546448" lon="-0.34034408"><ele>2.2</ele><time>2022-10-31T11:50:17.0000000+00:00</time></trkpt><trkpt lat="39.44545602" lon="-0.34030192"><ele>2.2</ele><time>2022-10-31T11:50:18.0000000+00:00</time></trkpt><trkpt lat="39.44544403" lon="-0.340273"><ele>2.2</ele><time>2022-10-31T11:50:19.0000000+00:00</time></trkpt><trkpt lat="39.44543221" lon="-0.34025523"><ele>2.2</ele><time>2022-10-31T11:50:20.0000000+00:00</time></trkpt><trkpt lat="39.44541763" lon="-0.34023603"><ele>2.2</ele><time>2022-10-31T11:50:21.0000000+00:00</time></trkpt><trkpt lat="39.44539776" lon="-0.34021349"><ele>2.2</ele><time>2022-10-31T11:50:22.0000000+00:00</time></trkpt><trkpt lat="39.44537194" lon="-0.3401901"><ele>2.2</ele><time>2022-10-31T11:50:23.0000000+00:00</time></trkpt><trkpt lat="39.44534219" lon="-0.34016831"><ele>2.2</ele><time>2022-10-31T11:50:24.0000000+00:00</time></trkpt><trkpt lat="39.44530657" lon="-0.34015616"><ele>2.2</ele><time>2022-10-31T11:50:25.0000000+00:00</time></trkpt><trkpt lat="39.44527002" lon="-0.34015423"><ele>2.0</ele><time>2022-10-31T11:50:26.0000000+00:00</time></trkpt><trkpt lat="39.4452344" lon="-0.34015272"><ele>2.0</ele><time>2022-10-31T11:50:27.0000000+00:00</time></trkpt><trkpt lat="39.4452095" lon="-0.34014878"><ele>1.8</ele><time>2022-10-31T11:50:28.0000000+00:00</time></trkpt><trkpt lat="39.44518025" lon="-0.34014576"><ele>1.8</ele><time>2022-10-31T11:50:29.0000000+00:00</time></trkpt><trkpt lat="39.4451505" lon="-0.34015138"><ele>1.6</ele><time>2022-10-31T11:50:30.0000000+00:00</time></trkpt><trkpt lat="39.44511881" lon="-0.34016864"><ele>1.6</ele><time>2022-10-31T11:50:31.0000000+00:00</time></trkpt><trkpt lat="39.44508378" lon="-0.34019111"><ele>1.6</ele><time>2022-10-31T11:50:32.0000000+00:00</time></trkpt><trkpt lat="39.44504547" lon="-0.34022564"><ele>1.8</ele><time>2022-10-31T11:50:33.0000000+00:00</time></trkpt><trkpt lat="39.44502108" lon="-0.3402554"><ele>1.8</ele><time>2022-10-31T11:50:34.0000000+00:00</time></trkpt><trkpt lat="39.44498613" lon="-0.34028859"><ele>2.0</ele><time>2022-10-31T11:50:35.0000000+00:00</time></trkpt><trkpt lat="39.44493734" lon="-0.34032413"><ele>2.2</ele><time>2022-10-31T11:50:36.0000000+00:00</time></trkpt><trkpt lat="39.44489133" lon="-0.34035171"><ele>2.2</ele><time>2022-10-31T11:50:37.0000000+00:00</time></trkpt><trkpt lat="39.44484456" lon="-0.34037266"><ele>2.4</ele><time>2022-10-31T11:50:38.0000000+00:00</time></trkpt><trkpt lat="39.44479426" lon="-0.34038272"><ele>2.4</ele><time>2022-10-31T11:50:39.0000000+00:00</time></trkpt><trkpt lat="39.44474028" lon="-0.34037844"><ele>2.4</ele><time>2022-10-31T11:50:40.0000000+00:00</time></trkpt><trkpt lat="39.44468698" lon="-0.34036822"><ele>2.4</ele><time>2022-10-31T11:50:41.0000000+00:00</time></trkpt><trkpt lat="39.44463668" lon="-0.34035137"><ele>2.4</ele><time>2022-10-31T11:50:42.0000000+00:00</time></trkpt><trkpt lat="39.4445874" lon="-0.3403284"><ele>2.4</ele><time>2022-10-31T11:50:43.0000000+00:00</time></trkpt><trkpt lat="39.44453912" lon="-0.34030066"><ele>2.4</ele><time>2022-10-31T11:50:44.0000000+00:00</time></trkpt><trkpt lat="39.44449344" lon="-0.34026604"><ele>2.4</ele><time>2022-10-31T11:50:45.0000000+00:00</time></trkpt><trkpt lat="39.4444444" lon="-0.34022832"><ele>2.2</ele><time>2022-10-31T11:50:46.0000000+00:00</time></trkpt><trkpt lat="39.44439554" lon="-0.34018524"><ele>2.4</ele><time>2022-10-31T11:50:47.0000000+00:00</time></trkpt><trkpt lat="39.44434374" lon="-0.34014073"><ele>2.4</ele><time>2022-10-31T11:50:48.0000000+00:00</time></trkpt><trkpt lat="39.44429194" lon="-0.34009463"><ele>2.4</ele><time>2022-10-31T11:50:49.0000000+00:00</time></trkpt><trkpt lat="39.44424047" lon="-0.34004769"><ele>2.0</ele><time>2022-10-31T11:50:50.0000000+00:00</time></trkpt><trkpt lat="39.44418968" lon="-0.33999782"><ele>2.0</ele><time>2022-10-31T11:50:51.0000000+00:00</time></trkpt><trkpt lat="39.44413796" lon="-0.33994694"><ele>1.8</ele><time>2022-10-31T11:50:52.0000000+00:00</time></trkpt><trkpt lat="39.44408708" lon="-0.33989481"><ele>1.8</ele><time>2022-10-31T11:50:53.0000000+00:00</time></trkpt><trkpt lat="39.44403495" lon="-0.33984225"><ele>1.8</ele><time>2022-10-31T11:50:54.0000000+00:00</time></trkpt><trkpt lat="39.44398407" lon="-0.33978844"><ele>1.8</ele><time>2022-10-31T11:50:55.0000000+00:00</time></trkpt><trkpt lat="39.44392355" lon="-0.33972725"><ele>2.0</ele><time>2022-10-31T11:50:56.0000000+00:00</time></trkpt><trkpt lat="39.44386982" lon="-0.33967654"><ele>2.0</ele><time>2022-10-31T11:50:57.0000000+00:00</time></trkpt><trkpt lat="39.44382624" lon="-0.33963664"><ele>2.0</ele><time>2022-10-31T11:50:58.0000000+00:00</time></trkpt><trkpt lat="39.44377092" lon="-0.33958342"><ele>2.0</ele><time>2022-10-31T11:50:59.0000000+00:00</time></trkpt><trkpt lat="39.44371644" lon="-0.3395333"><ele>2.2</ele><time>2022-10-31T11:51:00.0000000+00:00</time></trkpt><trkpt lat="39.44365952" lon="-0.33948544"><ele>2.2</ele><time>2022-10-31T11:51:01.0000000+00:00</time></trkpt><trkpt lat="39.4435928" lon="-0.33942567"><ele>2.0</ele><time>2022-10-31T11:51:02.0000000+00:00</time></trkpt><trkpt lat="39.44355207" lon="-0.33938938"><ele>2.2</ele><time>2022-10-31T11:51:03.0000000+00:00</time></trkpt><trkpt lat="39.44349809" lon="-0.33934873"><ele>2.2</ele><time>2022-10-31T11:51:04.0000000+00:00</time></trkpt><trkpt lat="39.4434405" lon="-0.33930724"><ele>2.2</ele><time>2022-10-31T11:51:05.0000000+00:00</time></trkpt><trkpt lat="39.4433732" lon="-0.33926005"><ele>2.2</ele><time>2022-10-31T11:51:06.0000000+00:00</time></trkpt><trkpt lat="39.44332919" lon="-0.33922912"><ele>2.2</ele><time>2022-10-31T11:51:07.0000000+00:00</time></trkpt><trkpt lat="39.44327303" lon="-0.33918411"><ele>2.2</ele><time>2022-10-31T11:51:08.0000000+00:00</time></trkpt><trkpt lat="39.44320547" lon="-0.33913147"><ele>2.2</ele><time>2022-10-31T11:51:09.0000000+00:00</time></trkpt><trkpt lat="39.44316038" lon="-0.33909844"><ele>2.2</ele><time>2022-10-31T11:51:10.0000000+00:00</time></trkpt><trkpt lat="39.44310372" lon="-0.33905662"><ele>2.2</ele><time>2022-10-31T11:51:11.0000000+00:00</time></trkpt><trkpt lat="39.44304396" lon="-0.33900993"><ele>2.2</ele><time>2022-10-31T11:51:12.0000000+00:00</time></trkpt><trkpt lat="39.44298386" lon="-0.33896961"><ele>2.2</ele><time>2022-10-31T11:51:13.0000000+00:00</time></trkpt><trkpt lat="39.44292183" lon="-0.33892661"><ele>2.2</ele><time>2022-10-31T11:51:14.0000000+00:00</time></trkpt><trkpt lat="39.44286299" lon="-0.33888211"><ele>2.4</ele><time>2022-10-31T11:51:15.0000000+00:00</time></trkpt><trkpt lat="39.44280457" lon="-0.33884279"><ele>2.4</ele><time>2022-10-31T11:51:16.0000000+00:00</time></trkpt><trkpt lat="39.44273315" lon="-0.33879871"><ele>2.4</ele><time>2022-10-31T11:51:17.0000000+00:00</time></trkpt><trkpt lat="39.44268278" lon="-0.33876778"><ele>2.6</ele><time>2022-10-31T11:51:18.0000000+00:00</time></trkpt><trkpt lat="39.44262075" lon="-0.33873098"><ele>2.6</ele><time>2022-10-31T11:51:19.0000000+00:00</time></trkpt><trkpt lat="39.44256225" lon="-0.33868915"><ele>2.6</ele><time>2022-10-31T11:51:20.0000000+00:00</time></trkpt><trkpt lat="39.44250307" lon="-0.33865286"><ele>2.6</ele><time>2022-10-31T11:51:21.0000000+00:00</time></trkpt><trkpt lat="39.44244457" lon="-0.3386185"><ele>2.6</ele><time>2022-10-31T11:51:22.0000000+00:00</time></trkpt><trkpt lat="39.44238732" lon="-0.33858446"><ele>2.6</ele><time>2022-10-31T11:51:23.0000000+00:00</time></trkpt><trkpt lat="39.44233116" lon="-0.33855605"><ele>2.6</ele><time>2022-10-31T11:51:24.0000000+00:00</time></trkpt><trkpt lat="39.44227223" lon="-0.33852831"><ele>2.6</ele><time>2022-10-31T11:51:25.0000000+00:00</time></trkpt><trkpt lat="39.44221281" lon="-0.33849612"><ele>2.6</ele><time>2022-10-31T11:51:26.0000000+00:00</time></trkpt><trkpt lat="39.44215279" lon="-0.33846645"><ele>2.6</ele><time>2022-10-31T11:51:27.0000000+00:00</time></trkpt><trkpt lat="39.44209227" lon="-0.33843979"><ele>2.8</ele><time>2022-10-31T11:51:28.0000000+00:00</time></trkpt><trkpt lat="39.44203042" lon="-0.33841088"><ele>2.8</ele><time>2022-10-31T11:51:29.0000000+00:00</time></trkpt><trkpt lat="39.44196839" lon="-0.33838187"><ele>2.8</ele><time>2022-10-31T11:51:30.0000000+00:00</time></trkpt><trkpt lat="39.44190502" lon="-0.33835589"><ele>2.8</ele><time>2022-10-31T11:51:31.0000000+00:00</time></trkpt><trkpt lat="39.441844" lon="-0.33833133"><ele>2.6</ele><time>2022-10-31T11:51:32.0000000+00:00</time></trkpt><trkpt lat="39.44178189" lon="-0.33830451"><ele>2.6</ele><time>2022-10-31T11:51:33.0000000+00:00</time></trkpt><trkpt lat="39.44171911" lon="-0.33827475"><ele>2.6</ele><time>2022-10-31T11:51:34.0000000+00:00</time></trkpt><trkpt lat="39.44165675" lon="-0.33824676"><ele>2.6</ele><time>2022-10-31T11:51:35.0000000+00:00</time></trkpt><trkpt lat="39.44159548" lon="-0.33822069"><ele>2.6</ele><time>2022-10-31T11:51:36.0000000+00:00</time></trkpt><trkpt lat="39.44153429" lon="-0.33819596"><ele>2.6</ele><time>2022-10-31T11:51:37.0000000+00:00</time></trkpt><trkpt lat="39.44147092" lon="-0.33817191"><ele>2.6</ele><time>2022-10-31T11:51:38.0000000+00:00</time></trkpt><trkpt lat="39.44140563" lon="-0.33814844"><ele>2.6</ele><time>2022-10-31T11:51:39.0000000+00:00</time></trkpt><trkpt lat="39.44134201" lon="-0.33812321"><ele>2.6</ele><time>2022-10-31T11:51:40.0000000+00:00</time></trkpt><trkpt lat="39.4412804" lon="-0.33809748"><ele>2.6</ele><time>2022-10-31T11:51:41.0000000+00:00</time></trkpt><trkpt lat="39.44122198" lon="-0.33807451"><ele>2.6</ele><time>2022-10-31T11:51:42.0000000+00:00</time></trkpt><trkpt lat="39.44116188" lon="-0.33805431"><ele>2.8</ele><time>2022-10-31T11:51:43.0000000+00:00</time></trkpt><trkpt lat="39.44110287" lon="-0.33803687"><ele>2.8</ele><time>2022-10-31T11:51:44.0000000+00:00</time></trkpt><trkpt lat="39.44104537" lon="-0.33802061"><ele>2.8</ele><time>2022-10-31T11:51:45.0000000+00:00</time></trkpt><trkpt lat="39.44098771" lon="-0.3380015"><ele>2.8</ele><time>2022-10-31T11:51:46.0000000+00:00</time></trkpt><trkpt lat="39.44092719" lon="-0.33798306"><ele>2.8</ele><time>2022-10-31T11:51:47.0000000+00:00</time></trkpt><trkpt lat="39.4408686" lon="-0.33796831"><ele>3.0</ele><time>2022-10-31T11:51:48.0000000+00:00</time></trkpt><trkpt lat="39.44080741" lon="-0.33795322"><ele>3.2</ele><time>2022-10-31T11:51:49.0000000+00:00</time></trkpt><trkpt lat="39.44074622" lon="-0.33793889"><ele>3.4</ele><time>2022-10-31T11:51:50.0000000+00:00</time></trkpt><trkpt lat="39.44068378" lon="-0.33792716"><ele>3.4</ele><time>2022-10-31T11:51:51.0000000+00:00</time></trkpt><trkpt lat="39.4406189" lon="-0.33791576"><ele>3.4</ele><time>2022-10-31T11:51:52.0000000+00:00</time></trkpt><trkpt lat="39.44055621" lon="-0.33790696"><ele>3.4</ele><time>2022-10-31T11:51:53.0000000+00:00</time></trkpt><trkpt lat="39.44048923" lon="-0.33789388"><ele>3.4</ele><time>2022-10-31T11:51:54.0000000+00:00</time></trkpt><trkpt lat="39.44042713" lon="-0.33788064"><ele>3.4</ele><time>2022-10-31T11:51:55.0000000+00:00</time></trkpt><trkpt lat="39.44036443" lon="-0.33786572"><ele>3.6</ele><time>2022-10-31T11:51:56.0000000+00:00</time></trkpt><trkpt lat="39.44030291" lon="-0.33785541"><ele>3.6</ele><time>2022-10-31T11:51:57.0000000+00:00</time></trkpt><trkpt lat="39.4402439" lon="-0.33784267"><ele>3.6</ele><time>2022-10-31T11:51:58.0000000+00:00</time></trkpt><trkpt lat="39.44018179" lon="-0.33783227"><ele>3.8</ele><time>2022-10-31T11:51:59.0000000+00:00</time></trkpt><trkpt lat="39.4401175" lon="-0.33782364"><ele>3.8</ele><time>2022-10-31T11:52:00.0000000+00:00</time></trkpt><trkpt lat="39.44004969" lon="-0.33781643"><ele>4.0</ele><time>2022-10-31T11:52:01.0000000+00:00</time></trkpt><trkpt lat="39.4399833" lon="-0.33780931"><ele>4.0</ele><time>2022-10-31T11:52:02.0000000+00:00</time></trkpt><trkpt lat="39.43991826" lon="-0.33780109"><ele>4.0</ele><time>2022-10-31T11:52:03.0000000+00:00</time></trkpt><trkpt lat="39.43985766" lon="-0.33779355"><ele>4.2</ele><time>2022-10-31T11:52:04.0000000+00:00</time></trkpt><trkpt lat="39.43978356" lon="-0.33778952"><ele>4.2</ele><time>2022-10-31T11:52:05.0000000+00:00</time></trkpt><trkpt lat="39.43973218" lon="-0.33778592"><ele>4.2</ele><time>2022-10-31T11:52:06.0000000+00:00</time></trkpt><trkpt lat="39.43966781" lon="-0.3377819"><ele>4.2</ele><time>2022-10-31T11:52:07.0000000+00:00</time></trkpt><trkpt lat="39.43961056" lon="-0.33778458"><ele>4.2</ele><time>2022-10-31T11:52:08.0000000+00:00</time></trkpt><trkpt lat="39.43955482" lon="-0.33778491"><ele>4.4</ele><time>2022-10-31T11:52:09.0000000+00:00</time></trkpt><trkpt lat="39.43950268" lon="-0.33778936"><ele>4.4</ele><time>2022-10-31T11:52:10.0000000+00:00</time></trkpt><trkpt lat="39.43945432" lon="-0.33779246"><ele>4.6</ele><time>2022-10-31T11:52:11.0000000+00:00</time></trkpt><trkpt lat="39.43940613" lon="-0.33779372"><ele>4.6</ele><time>2022-10-31T11:52:12.0000000+00:00</time></trkpt><trkpt lat="39.43935022" lon="-0.33779489"><ele>4.8</ele><time>2022-10-31T11:52:13.0000000+00:00</time></trkpt><trkpt lat="39.43931485" lon="-0.33779288"><ele>5.0</ele><time>2022-10-31T11:52:14.0000000+00:00</time></trkpt><trkpt lat="39.43927369" lon="-0.33779078"><ele>5.0</ele><time>2022-10-31T11:52:15.0000000+00:00</time></trkpt><trkpt lat="39.43923245" lon="-0.33779137"><ele>5.2</ele><time>2022-10-31T11:52:16.0000000+00:00</time></trkpt><trkpt lat="39.43919197" lon="-0.33778994"><ele>5.4</ele><time>2022-10-31T11:52:17.0000000+00:00</time></trkpt><trkpt lat="39.43915282" lon="-0.33778634"><ele>5.6</ele><time>2022-10-31T11:52:18.0000000+00:00</time></trkpt><trkpt lat="39.43911603" lon="-0.33778307"><ele>5.8</ele><time>2022-10-31T11:52:19.0000000+00:00</time></trkpt><trkpt lat="39.43907269" lon="-0.33777922"><ele>5.8</ele><time>2022-10-31T11:52:20.0000000+00:00</time></trkpt><trkpt lat="39.43904797" lon="-0.33778483"><ele>6.0</ele><time>2022-10-31T11:52:21.0000000+00:00</time></trkpt><trkpt lat="39.43900547" lon="-0.33778433"><ele>6.2</ele><time>2022-10-31T11:52:22.0000000+00:00</time></trkpt><trkpt lat="39.43897932" lon="-0.33778232"><ele>6.2</ele><time>2022-10-31T11:52:23.0000000+00:00</time></trkpt><trkpt lat="39.43894814" lon="-0.33778483"><ele>6.4</ele><time>2022-10-31T11:52:24.0000000+00:00</time></trkpt><trkpt lat="39.43891453" lon="-0.33778508"><ele>6.6</ele><time>2022-10-31T11:52:25.0000000+00:00</time></trkpt><trkpt lat="39.43887413" lon="-0.33778667"><ele>6.8</ele><time>2022-10-31T11:52:26.0000000+00:00</time></trkpt><trkpt lat="39.43884378" lon="-0.33779137"><ele>7.0</ele><time>2022-10-31T11:52:27.0000000+00:00</time></trkpt><trkpt lat="39.43880875" lon="-0.33779824"><ele>7.2</ele><time>2022-10-31T11:52:28.0000000+00:00</time></trkpt><trkpt lat="39.43877321" lon="-0.33780394"><ele>7.2</ele><time>2022-10-31T11:52:29.0000000+00:00</time></trkpt><trkpt lat="39.43874094" lon="-0.33781031"><ele>7.4</ele><time>2022-10-31T11:52:30.0000000+00:00</time></trkpt><trkpt lat="39.43870674" lon="-0.33781693"><ele>7.4</ele><time>2022-10-31T11:52:31.0000000+00:00</time></trkpt><trkpt lat="39.43867363" lon="-0.3378218"><ele>7.8</ele><time>2022-10-31T11:52:32.0000000+00:00</time></trkpt><trkpt lat="39.43864061" lon="-0.3378249"><ele>7.8</ele><time>2022-10-31T11:52:33.0000000+00:00</time></trkpt><trkpt lat="39.43860213" lon="-0.33782691"><ele>8.0</ele><time>2022-10-31T11:52:34.0000000+00:00</time></trkpt><trkpt lat="39.43856659" lon="-0.33783227"><ele>8.2</ele><time>2022-10-31T11:52:35.0000000+00:00</time></trkpt><trkpt lat="39.43853198" lon="-0.33783537"><ele>8.2</ele><time>2022-10-31T11:52:36.0000000+00:00</time></trkpt><trkpt lat="39.43849652" lon="-0.33783697"><ele>8.6</ele><time>2022-10-31T11:52:37.0000000+00:00</time></trkpt><trkpt lat="39.43846609" lon="-0.33784417"><ele>8.6</ele><time>2022-10-31T11:52:38.0000000+00:00</time></trkpt><trkpt lat="39.43843466" lon="-0.3378513"><ele>8.8</ele><time>2022-10-31T11:52:39.0000000+00:00</time></trkpt><trkpt lat="39.43840231" lon="-0.33785792"><ele>9.0</ele><time>2022-10-31T11:52:40.0000000+00:00</time></trkpt><trkpt lat="39.43836962" lon="-0.33786815"><ele>9.2</ele><time>2022-10-31T11:52:41.0000000+00:00</time></trkpt><trkpt lat="39.43833148" lon="-0.33788131"><ele>9.4</ele><time>2022-10-31T11:52:42.0000000+00:00</time></trkpt><trkpt lat="39.43830508" lon="-0.33788701"><ele>9.4</ele><time>2022-10-31T11:52:43.0000000+00:00</time></trkpt><trkpt lat="39.43827222" lon="-0.33789053"><ele>9.8</ele><time>2022-10-31T11:52:44.0000000+00:00</time></trkpt><trkpt lat="39.43823333" lon="-0.33789623"><ele>9.8</ele><time>2022-10-31T11:52:45.0000000+00:00</time></trkpt><trkpt lat="39.43820919" lon="-0.33790193"><ele>10.0</ele><time>2022-10-31T11:52:46.0000000+00:00</time></trkpt><trkpt lat="39.43817692" lon="-0.33790595"><ele>10.4</ele><time>2022-10-31T11:52:47.0000000+00:00</time></trkpt><trkpt lat="39.43814498" lon="-0.33791123"><ele>10.4</ele><time>2022-10-31T11:52:48.0000000+00:00</time></trkpt><trkpt lat="39.43811271" lon="-0.33791861"><ele>10.6</ele><time>2022-10-31T11:52:49.0000000+00:00</time></trkpt><trkpt lat="39.43807759" lon="-0.33792514"><ele>10.8</ele><time>2022-10-31T11:52:50.0000000+00:00</time></trkpt><trkpt lat="39.43803988" lon="-0.33793294"><ele>10.8</ele><time>2022-10-31T11:52:51.0000000+00:00</time></trkpt><trkpt lat="39.43800442" lon="-0.33794157"><ele>11.0</ele><time>2022-10-31T11:52:52.0000000+00:00</time></trkpt><trkpt lat="39.43797047" lon="-0.33794937"><ele>11.2</ele><time>2022-10-31T11:52:53.0000000+00:00</time></trkpt><trkpt lat="39.43793125" lon="-0.3379549"><ele>11.2</ele><time>2022-10-31T11:52:54.0000000+00:00</time></trkpt><trkpt lat="39.43789202" lon="-0.33796437"><ele>11.2</ele><time>2022-10-31T11:52:55.0000000+00:00</time></trkpt><trkpt lat="39.43785044" lon="-0.33797183"><ele>11.2</ele><time>2022-10-31T11:52:56.0000000+00:00</time></trkpt><trkpt lat="39.43780795" lon="-0.33798206"><ele>11.2</ele><time>2022-10-31T11:52:57.0000000+00:00</time></trkpt><trkpt lat="39.43776285" lon="-0.33799061"><ele>10.8</ele><time>2022-10-31T11:52:58.0000000+00:00</time></trkpt><trkpt lat="39.43771382" lon="-0.33799849"><ele>10.6</ele><time>2022-10-31T11:52:59.0000000+00:00</time></trkpt><trkpt lat="39.43766319" lon="-0.33800678"><ele>10.6</ele><time>2022-10-31T11:53:00.0000000+00:00</time></trkpt><trkpt lat="39.43760779" lon="-0.33802028"><ele>10.4</ele><time>2022-10-31T11:53:01.0000000+00:00</time></trkpt><trkpt lat="39.43754794" lon="-0.33803159"><ele>10.2</ele><time>2022-10-31T11:53:02.0000000+00:00</time></trkpt><trkpt lat="39.4374855" lon="-0.33804325"><ele>10.0</ele><time>2022-10-31T11:53:03.0000000+00:00</time></trkpt><trkpt lat="39.4374223" lon="-0.33805699"><ele>9.6</ele><time>2022-10-31T11:53:04.0000000+00:00</time></trkpt><trkpt lat="39.43735566" lon="-0.3380699"><ele>9.4</ele><time>2022-10-31T11:53:05.0000000+00:00</time></trkpt><trkpt lat="39.4372855" lon="-0.33808222"><ele>9.0</ele><time>2022-10-31T11:53:06.0000000+00:00</time></trkpt><trkpt lat="39.4372135" lon="-0.33810108"><ele>8.8</ele><time>2022-10-31T11:53:07.0000000+00:00</time></trkpt><trkpt lat="39.43713656" lon="-0.33811784"><ele>8.4</ele><time>2022-10-31T11:53:08.0000000+00:00</time></trkpt><trkpt lat="39.43704159" lon="-0.33813637"><ele>8.0</ele><time>2022-10-31T11:53:09.0000000+00:00</time></trkpt><trkpt lat="39.43697797" lon="-0.33815187"><ele>7.6</ele><time>2022-10-31T11:53:10.0000000+00:00</time></trkpt><trkpt lat="39.43689466" lon="-0.33817509"><ele>7.2</ele><time>2022-10-31T11:53:11.0000000+00:00</time></trkpt><trkpt lat="39.43681117" lon="-0.33820175"><ele>7.0</ele><time>2022-10-31T11:53:12.0000000+00:00</time></trkpt><trkpt lat="39.43672668" lon="-0.3382331"><ele>6.8</ele><time>2022-10-31T11:53:13.0000000+00:00</time></trkpt><trkpt lat="39.43664186" lon="-0.33826796"><ele>6.4</ele><time>2022-10-31T11:53:14.0000000+00:00</time></trkpt><trkpt lat="39.43655829" lon="-0.33830644"><ele>6.2</ele><time>2022-10-31T11:53:15.0000000+00:00</time></trkpt><trkpt lat="39.43647506" lon="-0.33834374"><ele>5.6</ele><time>2022-10-31T11:53:16.0000000+00:00</time></trkpt><trkpt lat="39.43640817" lon="-0.33837458"><ele>5.4</ele><time>2022-10-31T11:53:17.0000000+00:00</time></trkpt><trkpt lat="39.4363106" lon="-0.33842538"><ele>5.2</ele><time>2022-10-31T11:53:18.0000000+00:00</time></trkpt><trkpt lat="39.43622947" lon="-0.33846628"><ele>5.0</ele><time>2022-10-31T11:53:19.0000000+00:00</time></trkpt><trkpt lat="39.43615386" lon="-0.3385128"><ele>4.8</ele><time>2022-10-31T11:53:20.0000000+00:00</time></trkpt><trkpt lat="39.43608111" lon="-0.33855823"><ele>4.6</ele><time>2022-10-31T11:53:21.0000000+00:00</time></trkpt><trkpt lat="39.43600886" lon="-0.33860073"><ele>4.4</ele><time>2022-10-31T11:53:22.0000000+00:00</time></trkpt><trkpt lat="39.43593702" lon="-0.33864213"><ele>4.4</ele><time>2022-10-31T11:53:23.0000000+00:00</time></trkpt><trkpt lat="39.4358677" lon="-0.33868404"><ele>4.2</ele><time>2022-10-31T11:53:24.0000000+00:00</time></trkpt><trkpt lat="39.43580149" lon="-0.33872226"><ele>4.0</ele><time>2022-10-31T11:53:25.0000000+00:00</time></trkpt><trkpt lat="39.43573485" lon="-0.33876677"><ele>3.6</ele><time>2022-10-31T11:53:26.0000000+00:00</time></trkpt><trkpt lat="39.43566587" lon="-0.33880885"><ele>3.0</ele><time>2022-10-31T11:53:27.0000000+00:00</time></trkpt><trkpt lat="39.43559789" lon="-0.3388495"><ele>2.8</ele><time>2022-10-31T11:53:28.0000000+00:00</time></trkpt><trkpt lat="39.43553209" lon="-0.33889124"><ele>2.6</ele><time>2022-10-31T11:53:29.0000000+00:00</time></trkpt><trkpt lat="39.43546378" lon="-0.33892863"><ele>2.6</ele><time>2022-10-31T11:53:30.0000000+00:00</time></trkpt><trkpt lat="39.43539061" lon="-0.33896676"><ele>2.6</ele><time>2022-10-31T11:53:31.0000000+00:00</time></trkpt><trkpt lat="39.43531844" lon="-0.33900146"><ele>2.8</ele><time>2022-10-31T11:53:32.0000000+00:00</time></trkpt><trkpt lat="39.43524711" lon="-0.33903114"><ele>2.8</ele><time>2022-10-31T11:53:33.0000000+00:00</time></trkpt><trkpt lat="39.43517913" lon="-0.33906274"><ele>3.0</ele><time>2022-10-31T11:53:34.0000000+00:00</time></trkpt><trkpt lat="39.43511333" lon="-0.33909534"><ele>3.0</ele><time>2022-10-31T11:53:35.0000000+00:00</time></trkpt><trkpt lat="39.43504795" lon="-0.33913088"><ele>3.0</ele><time>2022-10-31T11:53:36.0000000+00:00</time></trkpt><trkpt lat="39.43498618" lon="-0.33916323"><ele>3.0</ele><time>2022-10-31T11:53:37.0000000+00:00</time></trkpt><trkpt lat="39.43492197" lon="-0.3391976"><ele>3.0</ele><time>2022-10-31T11:53:38.0000000+00:00</time></trkpt><trkpt lat="39.43485785" lon="-0.33923054"><ele>3.0</ele><time>2022-10-31T11:53:39.0000000+00:00</time></trkpt><trkpt lat="39.43479172" lon="-0.33926331"><ele>3.0</ele><time>2022-10-31T11:53:40.0000000+00:00</time></trkpt><trkpt lat="39.43472358" lon="-0.33930045"><ele>3.0</ele><time>2022-10-31T11:53:41.0000000+00:00</time></trkpt><trkpt lat="39.43466063" lon="-0.3393292"><ele>3.0</ele><time>2022-10-31T11:53:42.0000000+00:00</time></trkpt><trkpt lat="39.43459366" lon="-0.33935485"><ele>3.2</ele><time>2022-10-31T11:53:43.0000000+00:00</time></trkpt><trkpt lat="39.4345302" lon="-0.33938896"><ele>3.2</ele><time>2022-10-31T11:53:44.0000000+00:00</time></trkpt><trkpt lat="39.43446499" lon="-0.33942157"><ele>3.0</ele><time>2022-10-31T11:53:45.0000000+00:00</time></trkpt><trkpt lat="39.43439961" lon="-0.33945392"><ele>3.0</ele><time>2022-10-31T11:53:46.0000000+00:00</time></trkpt><trkpt lat="39.43432862" lon="-0.33948845"><ele>3.0</ele><time>2022-10-31T11:53:47.0000000+00:00</time></trkpt><trkpt lat="39.43425369" lon="-0.33952366"><ele>2.8</ele><time>2022-10-31T11:53:48.0000000+00:00</time></trkpt><trkpt lat="39.43418277" lon="-0.33955542"><ele>2.8</ele><time>2022-10-31T11:53:49.0000000+00:00</time></trkpt><trkpt lat="39.4341122" lon="-0.33958451"><ele>2.8</ele><time>2022-10-31T11:53:50.0000000+00:00</time></trkpt><trkpt lat="39.43403944" lon="-0.33961468"><ele>2.6</ele><time>2022-10-31T11:53:51.0000000+00:00</time></trkpt><trkpt lat="39.43397339" lon="-0.33964595"><ele>2.6</ele><time>2022-10-31T11:53:52.0000000+00:00</time></trkpt><trkpt lat="39.43390693" lon="-0.33967109"><ele>2.6</ele><time>2022-10-31T11:53:53.0000000+00:00</time></trkpt><trkpt lat="39.43383794" lon="-0.33969951"><ele>2.6</ele><time>2022-10-31T11:53:54.0000000+00:00</time></trkpt><trkpt lat="39.43376653" lon="-0.33972574"><ele>2.6</ele><time>2022-10-31T11:53:55.0000000+00:00</time></trkpt><trkpt lat="39.43369528" lon="-0.33975877"><ele>2.6</ele><time>2022-10-31T11:53:56.0000000+00:00</time></trkpt><trkpt lat="39.4336242" lon="-0.33979012"><ele>2.2</ele><time>2022-10-31T11:53:57.0000000+00:00</time></trkpt><trkpt lat="39.43355103" lon="-0.33982155"><ele>2.0</ele><time>2022-10-31T11:53:58.0000000+00:00</time></trkpt><trkpt lat="39.43347752" lon="-0.33985063"><ele>2.0</ele><time>2022-10-31T11:53:59.0000000+00:00</time></trkpt><trkpt lat="39.43340317" lon="-0.33987989"><ele>1.8</ele><time>2022-10-31T11:54:00.0000000+00:00</time></trkpt><trkpt lat="39.43333008" lon="-0.33990772"><ele>1.8</ele><time>2022-10-31T11:54:01.0000000+00:00</time></trkpt><trkpt lat="39.43325389" lon="-0.33993018"><ele>2.2</ele><time>2022-10-31T11:54:02.0000000+00:00</time></trkpt><trkpt lat="39.43319681" lon="-0.33994812"><ele>2.4</ele><time>2022-10-31T11:54:03.0000000+00:00</time></trkpt><trkpt lat="39.43311132" lon="-0.33998072"><ele>2.6</ele><time>2022-10-31T11:54:04.0000000+00:00</time></trkpt><trkpt lat="39.43304049" lon="-0.34001106"><ele>2.6</ele><time>2022-10-31T11:54:05.0000000+00:00</time></trkpt><trkpt lat="39.43297058" lon="-0.34004216"><ele>2.8</ele><time>2022-10-31T11:54:06.0000000+00:00</time></trkpt><trkpt lat="39.43289976" lon="-0.3400689"><ele>2.8</ele><time>2022-10-31T11:54:07.0000000+00:00</time></trkpt><trkpt lat="39.43282692" lon="-0.34009237"><ele>2.8</ele><time>2022-10-31T11:54:08.0000000+00:00</time></trkpt><trkpt lat="39.43275232" lon="-0.34011458"><ele>2.8</ele><time>2022-10-31T11:54:09.0000000+00:00</time></trkpt><trkpt lat="39.43267705" lon="-0.34013621"><ele>2.8</ele><time>2022-10-31T11:54:10.0000000+00:00</time></trkpt><trkpt lat="39.43260237" lon="-0.34015775"><ele>2.8</ele><time>2022-10-31T11:54:11.0000000+00:00</time></trkpt><trkpt lat="39.43252827" lon="-0.34018004"><ele>2.8</ele><time>2022-10-31T11:54:12.0000000+00:00</time></trkpt><trkpt lat="39.43245459" lon="-0.34020159"><ele>2.8</ele><time>2022-10-31T11:54:13.0000000+00:00</time></trkpt><trkpt lat="39.432381" lon="-0.34022371"><ele>3.0</ele><time>2022-10-31T11:54:14.0000000+00:00</time></trkpt><trkpt lat="39.432309" lon="-0.340245"><ele>3.0</ele><time>2022-10-31T11:54:15.0000000+00:00</time></trkpt><trkpt lat="39.43225326" lon="-0.34026328"><ele>3.0</ele><time>2022-10-31T11:54:16.0000000+00:00</time></trkpt><trkpt lat="39.43218252" lon="-0.34028574"><ele>3.0</ele><time>2022-10-31T11:54:17.0000000+00:00</time></trkpt><trkpt lat="39.43209543" lon="-0.34031197"><ele>3.0</ele><time>2022-10-31T11:54:18.0000000+00:00</time></trkpt><trkpt lat="39.43202251" lon="-0.34033176"><ele>3.0</ele><time>2022-10-31T11:54:19.0000000+00:00</time></trkpt><trkpt lat="39.43196325" lon="-0.34034617"><ele>3.0</ele><time>2022-10-31T11:54:20.0000000+00:00</time></trkpt><trkpt lat="39.43189234" lon="-0.34036495"><ele>3.0</ele><time>2022-10-31T11:54:21.0000000+00:00</time></trkpt><trkpt lat="39.43180357" lon="-0.34038582"><ele>3.0</ele><time>2022-10-31T11:54:22.0000000+00:00</time></trkpt><trkpt lat="39.43172864" lon="-0.34040225"><ele>3.0</ele><time>2022-10-31T11:54:23.0000000+00:00</time></trkpt><trkpt lat="39.43165328" lon="-0.34041817"><ele>3.0</ele><time>2022-10-31T11:54:24.0000000+00:00</time></trkpt><trkpt lat="39.43158153" lon="-0.34043293"><ele>3.0</ele><time>2022-10-31T11:54:25.0000000+00:00</time></trkpt><trkpt lat="39.43150828" lon="-0.34044751"><ele>3.0</ele><time>2022-10-31T11:54:26.0000000+00:00</time></trkpt><trkpt lat="39.43143527" lon="-0.34046201"><ele>3.0</ele><time>2022-10-31T11:54:27.0000000+00:00</time></trkpt><trkpt lat="39.43136444" lon="-0.3404771"><ele>3.0</ele><time>2022-10-31T11:54:28.0000000+00:00</time></trkpt><trkpt lat="39.43129211" lon="-0.34049403"><ele>3.0</ele><time>2022-10-31T11:54:29.0000000+00:00</time></trkpt><trkpt lat="39.43122027" lon="-0.34050803"><ele>3.0</ele><time>2022-10-31T11:54:30.0000000+00:00</time></trkpt><trkpt lat="39.43115045" lon="-0.34052127"><ele>3.0</ele><time>2022-10-31T11:54:31.0000000+00:00</time></trkpt><trkpt lat="39.43108172" lon="-0.3405346"><ele>3.0</ele><time>2022-10-31T11:54:32.0000000+00:00</time></trkpt><trkpt lat="39.43101425" lon="-0.34054675"><ele>2.8</ele><time>2022-10-31T11:54:33.0000000+00:00</time></trkpt><trkpt lat="39.43094459" lon="-0.34056025"><ele>2.8</ele><time>2022-10-31T11:54:34.0000000+00:00</time></trkpt><trkpt lat="39.43087385" lon="-0.34057156"><ele>2.8</ele><time>2022-10-31T11:54:35.0000000+00:00</time></trkpt><trkpt lat="39.43080378" lon="-0.34057374"><ele>2.8</ele><time>2022-10-31T11:54:36.0000000+00:00</time></trkpt><trkpt lat="39.43074904" lon="-0.34056276"><ele>2.6</ele><time>2022-10-31T11:54:37.0000000+00:00</time></trkpt><trkpt lat="39.43068023" lon="-0.34054088"><ele>2.8</ele><time>2022-10-31T11:54:38.0000000+00:00</time></trkpt><trkpt lat="39.43061275" lon="-0.34051163"><ele>2.6</ele><time>2022-10-31T11:54:39.0000000+00:00</time></trkpt><trkpt lat="39.43054704" lon="-0.3404797"><ele>2.8</ele><time>2022-10-31T11:54:40.0000000+00:00</time></trkpt><trkpt lat="39.43046867" lon="-0.34043536"><ele>2.8</ele><time>2022-10-31T11:54:41.0000000+00:00</time></trkpt><trkpt lat="39.43040631" lon="-0.34038649"><ele>2.8</ele><time>2022-10-31T11:54:42.0000000+00:00</time></trkpt><trkpt lat="39.43034831" lon="-0.34033503"><ele>2.8</ele><time>2022-10-31T11:54:43.0000000+00:00</time></trkpt><trkpt lat="39.43029366" lon="-0.34027979"><ele>2.8</ele><time>2022-10-31T11:54:44.0000000+00:00</time></trkpt><trkpt lat="39.43024395" lon="-0.34021516"><ele>2.8</ele><time>2022-10-31T11:54:45.0000000+00:00</time></trkpt><trkpt lat="39.43019793" lon="-0.34014341"><ele>3.0</ele><time>2022-10-31T11:54:46.0000000+00:00</time></trkpt><trkpt lat="39.43015116" lon="-0.3400803"><ele>3.0</ele><time>2022-10-31T11:54:47.0000000+00:00</time></trkpt><trkpt lat="39.43010288" lon="-0.34001341"><ele>3.2</ele><time>2022-10-31T11:54:48.0000000+00:00</time></trkpt><trkpt lat="39.43005594" lon="-0.33994761"><ele>3.2</ele><time>2022-10-31T11:54:49.0000000+00:00</time></trkpt><trkpt lat="39.43001764" lon="-0.3398788"><ele>3.2</ele><time>2022-10-31T11:54:50.0000000+00:00</time></trkpt><trkpt lat="39.42998881" lon="-0.33980613"><ele>3.4</ele><time>2022-10-31T11:54:51.0000000+00:00</time></trkpt><trkpt lat="39.42996986" lon="-0.33973387"><ele>3.6</ele><time>2022-10-31T11:54:52.0000000+00:00</time></trkpt><trkpt lat="39.42995578" lon="-0.33965986"><ele>3.8</ele><time>2022-10-31T11:54:53.0000000+00:00</time></trkpt><trkpt lat="39.42994338" lon="-0.33958552"><ele>3.8</ele><time>2022-10-31T11:54:54.0000000+00:00</time></trkpt><trkpt lat="39.42992862" lon="-0.33950974"><ele>3.8</ele><time>2022-10-31T11:54:55.0000000+00:00</time></trkpt><trkpt lat="39.42990834" lon="-0.33943414"><ele>4.0</ele><time>2022-10-31T11:54:56.0000000+00:00</time></trkpt><trkpt lat="39.4298878" lon="-0.33935426"><ele>4.0</ele><time>2022-10-31T11:54:57.0000000+00:00</time></trkpt><trkpt lat="39.42987297" lon="-0.33927991"><ele>4.0</ele><time>2022-10-31T11:54:58.0000000+00:00</time></trkpt><trkpt lat="39.4298645" lon="-0.33920129"><ele>4.0</ele><time>2022-10-31T11:54:59.0000000+00:00</time></trkpt><trkpt lat="39.42986593" lon="-0.33911663"><ele>3.8</ele><time>2022-10-31T11:55:00.0000000+00:00</time></trkpt><trkpt lat="39.42987037" lon="-0.33902946"><ele>3.8</ele><time>2022-10-31T11:55:01.0000000+00:00</time></trkpt><trkpt lat="39.42987473" lon="-0.3389438"><ele>3.8</ele><time>2022-10-31T11:55:02.0000000+00:00</time></trkpt><trkpt lat="39.42988277" lon="-0.33885554"><ele>3.8</ele><time>2022-10-31T11:55:03.0000000+00:00</time></trkpt><trkpt lat="39.42989711" lon="-0.33876778"><ele>3.6</ele><time>2022-10-31T11:55:04.0000000+00:00</time></trkpt><trkpt lat="39.42991312" lon="-0.33868404"><ele>3.6</ele><time>2022-10-31T11:55:05.0000000+00:00</time></trkpt><trkpt lat="39.42992745" lon="-0.33860693"><ele>3.6</ele><time>2022-10-31T11:55:06.0000000+00:00</time></trkpt><trkpt lat="39.42993918" lon="-0.33853929"><ele>3.4</ele><time>2022-10-31T11:55:07.0000000+00:00</time></trkpt><trkpt lat="39.42994799" lon="-0.33848891"><ele>3.2</ele><time>2022-10-31T11:55:08.0000000+00:00</time></trkpt><trkpt lat="39.42995268" lon="-0.33845094"><ele>3.0</ele><time>2022-10-31T11:55:09.0000000+00:00</time></trkpt><trkpt lat="39.42995167" lon="-0.33842244"><ele>2.8</ele><time>2022-10-31T11:55:10.0000000+00:00</time></trkpt><trkpt lat="39.42994262" lon="-0.33840367"><ele>2.6</ele><time>2022-10-31T11:55:11.0000000+00:00</time></trkpt><trkpt lat="39.42993608" lon="-0.33838028"><ele>2.4</ele><time>2022-10-31T11:55:12.0000000+00:00</time></trkpt><trkpt lat="39.42993164" lon="-0.33835128"><ele>2.4</ele><time>2022-10-31T11:55:13.0000000+00:00</time></trkpt><trkpt lat="39.42992829" lon="-0.33831733"><ele>2.4</ele><time>2022-10-31T11:55:14.0000000+00:00</time></trkpt><trkpt lat="39.429921" lon="-0.33827987"><ele>2.4</ele><time>2022-10-31T11:55:15.0000000+00:00</time></trkpt><trkpt lat="39.42991035" lon="-0.33823988"><ele>2.4</ele><time>2022-10-31T11:55:16.0000000+00:00</time></trkpt><trkpt lat="39.42990398" lon="-0.33819714"><ele>2.4</ele><time>2022-10-31T11:55:17.0000000+00:00</time></trkpt><trkpt lat="39.42989644" lon="-0.3381471"><ele>2.4</ele><time>2022-10-31T11:55:18.0000000+00:00</time></trkpt><trkpt lat="39.42987808" lon="-0.33810494"><ele>2.6</ele><time>2022-10-31T11:55:19.0000000+00:00</time></trkpt><trkpt lat="39.42984833" lon="-0.3380673"><ele>2.6</ele><time>2022-10-31T11:55:20.0000000+00:00</time></trkpt><trkpt lat="39.42980977" lon="-0.33803679"><ele>2.6</ele><time>2022-10-31T11:55:21.0000000+00:00</time></trkpt><trkpt lat="39.42976568" lon="-0.33801106"><ele>2.6</ele><time>2022-10-31T11:55:22.0000000+00:00</time></trkpt><trkpt lat="39.42972033" lon="-0.33798675"><ele>2.6</ele><time>2022-10-31T11:55:23.0000000+00:00</time></trkpt><trkpt lat="39.42967616" lon="-0.33796563"><ele>2.6</ele><time>2022-10-31T11:55:24.0000000+00:00</time></trkpt><trkpt lat="39.4296288" lon="-0.33794895"><ele>2.6</ele><time>2022-10-31T11:55:25.0000000+00:00</time></trkpt><trkpt lat="39.42957516" lon="-0.33793688"><ele>2.6</ele><time>2022-10-31T11:55:26.0000000+00:00</time></trkpt><trkpt lat="39.42952026" lon="-0.3379352"><ele>2.6</ele><time>2022-10-31T11:55:27.0000000+00:00</time></trkpt><trkpt lat="39.42946519" lon="-0.33794048"><ele>2.6</ele><time>2022-10-31T11:55:28.0000000+00:00</time></trkpt><trkpt lat="39.42941456" lon="-0.33795415"><ele>2.8</ele><time>2022-10-31T11:55:29.0000000+00:00</time></trkpt><trkpt lat="39.42936712" lon="-0.33797133"><ele>3.0</ele><time>2022-10-31T11:55:30.0000000+00:00</time></trkpt><trkpt lat="39.42931783" lon="-0.3379839"><ele>3.0</ele><time>2022-10-31T11:55:31.0000000+00:00</time></trkpt><trkpt lat="39.42926914" lon="-0.33800041"><ele>3.2</ele><time>2022-10-31T11:55:32.0000000+00:00</time></trkpt><trkpt lat="39.42922773" lon="-0.33801659"><ele>3.2</ele><time>2022-10-31T11:55:33.0000000+00:00</time></trkpt><trkpt lat="39.42919361" lon="-0.33804224"><ele>3.2</ele><time>2022-10-31T11:55:34.0000000+00:00</time></trkpt><trkpt lat="39.42916302" lon="-0.33807895"><ele>3.2</ele><time>2022-10-31T11:55:35.0000000+00:00</time></trkpt><trkpt lat="39.42913787" lon="-0.338116"><ele>3.4</ele><time>2022-10-31T11:55:36.0000000+00:00</time></trkpt><trkpt lat="39.42911474" lon="-0.33815833"><ele>3.4</ele><time>2022-10-31T11:55:37.0000000+00:00</time></trkpt><trkpt lat="39.42909529" lon="-0.33820359"><ele>3.4</ele><time>2022-10-31T11:55:38.0000000+00:00</time></trkpt><trkpt lat="39.4290756" lon="-0.33825464"><ele>3.4</ele><time>2022-10-31T11:55:39.0000000+00:00</time></trkpt><trkpt lat="39.42906579" lon="-0.33830484"><ele>3.4</ele><time>2022-10-31T11:55:40.0000000+00:00</time></trkpt><trkpt lat="39.42906537" lon="-0.33836301"><ele>3.4</ele><time>2022-10-31T11:55:41.0000000+00:00</time></trkpt><trkpt lat="39.42906177" lon="-0.33841766"><ele>3.8</ele><time>2022-10-31T11:55:42.0000000+00:00</time></trkpt><trkpt lat="39.42906001" lon="-0.3384755"><ele>3.8</ele><time>2022-10-31T11:55:43.0000000+00:00</time></trkpt><trkpt lat="39.42906261" lon="-0.33853652"><ele>4.0</ele><time>2022-10-31T11:55:44.0000000+00:00</time></trkpt><trkpt lat="39.42906789" lon="-0.33859712"><ele>4.4</ele><time>2022-10-31T11:55:45.0000000+00:00</time></trkpt><trkpt lat="39.42907509" lon="-0.33866108"><ele>4.6</ele><time>2022-10-31T11:55:46.0000000+00:00</time></trkpt><trkpt lat="39.42907895" lon="-0.33872193"><ele>4.8</ele><time>2022-10-31T11:55:47.0000000+00:00</time></trkpt><trkpt lat="39.42907887" lon="-0.33878211"><ele>5.0</ele><time>2022-10-31T11:55:48.0000000+00:00</time></trkpt><trkpt lat="39.42907417" lon="-0.33884011"><ele>5.0</ele><time>2022-10-31T11:55:49.0000000+00:00</time></trkpt><trkpt lat="39.42906059" lon="-0.3388956"><ele>5.2</ele><time>2022-10-31T11:55:50.0000000+00:00</time></trkpt><trkpt lat="39.4290352" lon="-0.33894514"><ele>5.2</ele><time>2022-10-31T11:55:51.0000000+00:00</time></trkpt><trkpt lat="39.42899823" lon="-0.33897976"><ele>5.4</ele><time>2022-10-31T11:55:52.0000000+00:00</time></trkpt><trkpt lat="39.42895867" lon="-0.33900901"><ele>5.4</ele><time>2022-10-31T11:55:53.0000000+00:00</time></trkpt><trkpt lat="39.42891416" lon="-0.33902912"><ele>5.6</ele><time>2022-10-31T11:55:54.0000000+00:00</time></trkpt><trkpt lat="39.42886219" lon="-0.33904463"><ele>5.8</ele><time>2022-10-31T11:55:55.0000000+00:00</time></trkpt><trkpt lat="39.42880922" lon="-0.33905804"><ele>5.8</ele><time>2022-10-31T11:55:56.0000000+00:00</time></trkpt><trkpt lat="39.42875541" lon="-0.33906693"><ele>6.0</ele><time>2022-10-31T11:55:57.0000000+00:00</time></trkpt><trkpt lat="39.42870244" lon="-0.33906835"><ele>6.2</ele><time>2022-10-31T11:55:58.0000000+00:00</time></trkpt><trkpt lat="39.42864787" lon="-0.33906559"><ele>6.2</ele><time>2022-10-31T11:55:59.0000000+00:00</time></trkpt><trkpt lat="39.42859506" lon="-0.33906559"><ele>6.4</ele><time>2022-10-31T11:56:00.0000000+00:00</time></trkpt><trkpt lat="39.42854284" lon="-0.33906642"><ele>6.4</ele><time>2022-10-31T11:56:01.0000000+00:00</time></trkpt><trkpt lat="39.42849205" lon="-0.33907095"><ele>6.6</ele><time>2022-10-31T11:56:02.0000000+00:00</time></trkpt><trkpt lat="39.42844251" lon="-0.3390759"><ele>6.8</ele><time>2022-10-31T11:56:03.0000000+00:00</time></trkpt><trkpt lat="39.42839013" lon="-0.33908051"><ele>7.0</ele><time>2022-10-31T11:56:04.0000000+00:00</time></trkpt><trkpt lat="39.42833707" lon="-0.33908553"><ele>7.0</ele><time>2022-10-31T11:56:05.0000000+00:00</time></trkpt><trkpt lat="39.42828619" lon="-0.33909467"><ele>7.2</ele><time>2022-10-31T11:56:06.0000000+00:00</time></trkpt><trkpt lat="39.42823841" lon="-0.33910791"><ele>7.2</ele><time>2022-10-31T11:56:07.0000000+00:00</time></trkpt><trkpt lat="39.42819047" lon="-0.33912459"><ele>7.2</ele><time>2022-10-31T11:56:08.0000000+00:00</time></trkpt><trkpt lat="39.42814303" lon="-0.33914454"><ele>7.2</ele><time>2022-10-31T11:56:09.0000000+00:00</time></trkpt><trkpt lat="39.4280955" lon="-0.33916441"><ele>7.2</ele><time>2022-10-31T11:56:10.0000000+00:00</time></trkpt><trkpt lat="39.42804571" lon="-0.33919048"><ele>7.2</ele><time>2022-10-31T11:56:11.0000000+00:00</time></trkpt><trkpt lat="39.42799819" lon="-0.33921923"><ele>7.2</ele><time>2022-10-31T11:56:12.0000000+00:00</time></trkpt><trkpt lat="39.42795427" lon="-0.33925074"><ele>7.4</ele><time>2022-10-31T11:56:13.0000000+00:00</time></trkpt><trkpt lat="39.42790934" lon="-0.33927958"><ele>7.4</ele><time>2022-10-31T11:56:14.0000000+00:00</time></trkpt><trkpt lat="39.42786357" lon="-0.33930623"><ele>7.6</ele><time>2022-10-31T11:56:15.0000000+00:00</time></trkpt><trkpt lat="39.42781789" lon="-0.33933138"><ele>7.8</ele><time>2022-10-31T11:56:16.0000000+00:00</time></trkpt><trkpt lat="39.4277733" lon="-0.33935485"><ele>8.0</ele><time>2022-10-31T11:56:17.0000000+00:00</time></trkpt><trkpt lat="39.42772846" lon="-0.33937974"><ele>8.0</ele><time>2022-10-31T11:56:18.0000000+00:00</time></trkpt><trkpt lat="39.42768521" lon="-0.33940547"><ele>8.0</ele><time>2022-10-31T11:56:19.0000000+00:00</time></trkpt><trkpt lat="39.4276381" lon="-0.33943129"><ele>8.0</ele><time>2022-10-31T11:56:20.0000000+00:00</time></trkpt><trkpt lat="39.42759317" lon="-0.33945979"><ele>8.2</ele><time>2022-10-31T11:56:21.0000000+00:00</time></trkpt><trkpt lat="39.42754791" lon="-0.33948661"><ele>8.2</ele><time>2022-10-31T11:56:22.0000000+00:00</time></trkpt><trkpt lat="39.42750164" lon="-0.33951536"><ele>8.4</ele><time>2022-10-31T11:56:23.0000000+00:00</time></trkpt><trkpt lat="39.4274563" lon="-0.33954268"><ele>8.4</ele><time>2022-10-31T11:56:24.0000000+00:00</time></trkpt><trkpt lat="39.42741036" lon="-0.33957043"><ele>8.4</ele><time>2022-10-31T11:56:25.0000000+00:00</time></trkpt><trkpt lat="39.42736577" lon="-0.33959532"><ele>8.6</ele><time>2022-10-31T11:56:26.0000000+00:00</time></trkpt><trkpt lat="39.42732001" lon="-0.33962449"><ele>8.6</ele><time>2022-10-31T11:56:27.0000000+00:00</time></trkpt><trkpt lat="39.4272703" lon="-0.33965274"><ele>8.6</ele><time>2022-10-31T11:56:28.0000000+00:00</time></trkpt><trkpt lat="39.42721825" lon="-0.33968224"><ele>8.8</ele><time>2022-10-31T11:56:29.0000000+00:00</time></trkpt><trkpt lat="39.42716863" lon="-0.33971225"><ele>8.8</ele><time>2022-10-31T11:56:30.0000000+00:00</time></trkpt><trkpt lat="39.42712027" lon="-0.33973999"><ele>8.6</ele><time>2022-10-31T11:56:31.0000000+00:00</time></trkpt><trkpt lat="39.42707065" lon="-0.33977059"><ele>8.6</ele><time>2022-10-31T11:56:32.0000000+00:00</time></trkpt><trkpt lat="39.42702061" lon="-0.33980227"><ele>8.6</ele><time>2022-10-31T11:56:33.0000000+00:00</time></trkpt><trkpt lat="39.42696654" lon="-0.33983387"><ele>8.4</ele><time>2022-10-31T11:56:34.0000000+00:00</time></trkpt><trkpt lat="39.42691181" lon="-0.33986455"><ele>8.2</ele><time>2022-10-31T11:56:35.0000000+00:00</time></trkpt><trkpt lat="39.42685967" lon="-0.33989632"><ele>8.2</ele><time>2022-10-31T11:56:36.0000000+00:00</time></trkpt><trkpt lat="39.42680301" lon="-0.33992657"><ele>8.0</ele><time>2022-10-31T11:56:37.0000000+00:00</time></trkpt><trkpt lat="39.42674736" lon="-0.33995977"><ele>7.8</ele><time>2022-10-31T11:56:38.0000000+00:00</time></trkpt><trkpt lat="39.42668868" lon="-0.33999145"><ele>7.8</ele><time>2022-10-31T11:56:39.0000000+00:00</time></trkpt><trkpt lat="39.42662783" lon="-0.34002355"><ele>7.8</ele><time>2022-10-31T11:56:40.0000000+00:00</time></trkpt><trkpt lat="39.42656807" lon="-0.34005926"><ele>7.6</ele><time>2022-10-31T11:56:41.0000000+00:00</time></trkpt><trkpt lat="39.42650906" lon="-0.34009438"><ele>7.6</ele><time>2022-10-31T11:56:42.0000000+00:00</time></trkpt><trkpt lat="39.42644938" lon="-0.34012942"><ele>7.6</ele><time>2022-10-31T11:56:43.0000000+00:00</time></trkpt><trkpt lat="39.42638836" lon="-0.34016554"><ele>7.6</ele><time>2022-10-31T11:56:44.0000000+00:00</time></trkpt><trkpt lat="39.42632885" lon="-0.34020234"><ele>7.6</ele><time>2022-10-31T11:56:45.0000000+00:00</time></trkpt><trkpt lat="39.42626858" lon="-0.34024073"><ele>7.8</ele><time>2022-10-31T11:56:46.0000000+00:00</time></trkpt><trkpt lat="39.42620597" lon="-0.34027794"><ele>7.6</ele><time>2022-10-31T11:56:47.0000000+00:00</time></trkpt><trkpt lat="39.42613808" lon="-0.34031097"><ele>7.6</ele><time>2022-10-31T11:56:48.0000000+00:00</time></trkpt><trkpt lat="39.42606867" lon="-0.34033503"><ele>7.6</ele><time>2022-10-31T11:56:49.0000000+00:00</time></trkpt><trkpt lat="39.42599667" lon="-0.34034332"><ele>7.4</ele><time>2022-10-31T11:56:50.0000000+00:00</time></trkpt><trkpt lat="39.42592425" lon="-0.34033402"><ele>7.2</ele><time>2022-10-31T11:56:51.0000000+00:00</time></trkpt><trkpt lat="39.42585728" lon="-0.34029446"><ele>7.0</ele><time>2022-10-31T11:56:52.0000000+00:00</time></trkpt><trkpt lat="39.42580305" lon="-0.34022413"><ele>7.0</ele><time>2022-10-31T11:56:53.0000000+00:00</time></trkpt><trkpt lat="39.42576801" lon="-0.34014015"><ele>6.8</ele><time>2022-10-31T11:56:54.0000000+00:00</time></trkpt><trkpt lat="39.42574597" lon="-0.34004048"><ele>6.8</ele><time>2022-10-31T11:56:55.0000000+00:00</time></trkpt><trkpt lat="39.42572854" lon="-0.33994694"><ele>6.8</ele><time>2022-10-31T11:56:56.0000000+00:00</time></trkpt><trkpt lat="39.4257116" lon="-0.33985114"><ele>6.8</ele><time>2022-10-31T11:56:57.0000000+00:00</time></trkpt><trkpt lat="39.42569702" lon="-0.33975642"><ele>6.8</ele><time>2022-10-31T11:56:58.0000000+00:00</time></trkpt><trkpt lat="39.42568562" lon="-0.3396659"><ele>6.6</ele><time>2022-10-31T11:56:59.0000000+00:00</time></trkpt><trkpt lat="39.42567749" lon="-0.33957671"><ele>6.8</ele><time>2022-10-31T11:57:00.0000000+00:00</time></trkpt><trkpt lat="39.42567087" lon="-0.33948979"><ele>6.8</ele><time>2022-10-31T11:57:01.0000000+00:00</time></trkpt><trkpt lat="39.42566852" lon="-0.33940505"><ele>6.8</ele><time>2022-10-31T11:57:02.0000000+00:00</time></trkpt><trkpt lat="39.42567313" lon="-0.33932149"><ele>6.8</ele><time>2022-10-31T11:57:03.0000000+00:00</time></trkpt><trkpt lat="39.42567732" lon="-0.33923448"><ele>6.8</ele><time>2022-10-31T11:57:04.0000000+00:00</time></trkpt><trkpt lat="39.42567565" lon="-0.33914027"><ele>6.8</ele><time>2022-10-31T11:57:05.0000000+00:00</time></trkpt><trkpt lat="39.42566961" lon="-0.33904631"><ele>6.6</ele><time>2022-10-31T11:57:06.0000000+00:00</time></trkpt><trkpt lat="39.42565553" lon="-0.33895344"><ele>6.6</ele><time>2022-10-31T11:57:07.0000000+00:00</time></trkpt><trkpt lat="39.42563726" lon="-0.33886174"><ele>6.6</ele><time>2022-10-31T11:57:08.0000000+00:00</time></trkpt><trkpt lat="39.4256132" lon="-0.33877264"><ele>6.6</ele><time>2022-10-31T11:57:09.0000000+00:00</time></trkpt><trkpt lat="39.42558294" lon="-0.33868186"><ele>6.4</ele><time>2022-10-31T11:57:10.0000000+00:00</time></trkpt><trkpt lat="39.42541799" lon="-0.33836871"><ele>5.6</ele><time>2022-10-31T11:57:14.0000000+00:00</time></trkpt><trkpt lat="39.42539049" lon="-0.33828808"><ele>5.4</ele><time>2022-10-31T11:57:15.0000000+00:00</time></trkpt><trkpt lat="39.42535638" lon="-0.33821968"><ele>5.2</ele><time>2022-10-31T11:57:16.0000000+00:00</time></trkpt><trkpt lat="39.42532637" lon="-0.33814249"><ele>5.2</ele><time>2022-10-31T11:57:17.0000000+00:00</time></trkpt><trkpt lat="39.42530399" lon="-0.33806806"><ele>5.2</ele><time>2022-10-31T11:57:18.0000000+00:00</time></trkpt><trkpt lat="39.4252791" lon="-0.33798935"><ele>5.2</ele><time>2022-10-31T11:57:19.0000000+00:00</time></trkpt><trkpt lat="39.42525337" lon="-0.33791785"><ele>5.2</ele><time>2022-10-31T11:57:20.0000000+00:00</time></trkpt><trkpt lat="39.42522671" lon="-0.33784107"><ele>5.2</ele><time>2022-10-31T11:57:21.0000000+00:00</time></trkpt><trkpt lat="39.42520349" lon="-0.33776463"><ele>5.2</ele><time>2022-10-31T11:57:22.0000000+00:00</time></trkpt><trkpt lat="39.42517902" lon="-0.33769154"><ele>5.2</ele><time>2022-10-31T11:57:23.0000000+00:00</time></trkpt><trkpt lat="39.4251537" lon="-0.33761703"><ele>5.0</ele><time>2022-10-31T11:57:24.0000000+00:00</time></trkpt><trkpt lat="39.42512772" lon="-0.33753119"><ele>5.0</ele><time>2022-10-31T11:57:25.0000000+00:00</time></trkpt><trkpt lat="39.42510165" lon="-0.33744964"><ele>5.0</ele><time>2022-10-31T11:57:26.0000000+00:00</time></trkpt><trkpt lat="39.42507542" lon="-0.33737068"><ele>5.0</ele><time>2022-10-31T11:57:27.0000000+00:00</time></trkpt><trkpt lat="39.4250496" lon="-0.33728896"><ele>4.8</ele><time>2022-10-31T11:57:28.0000000+00:00</time></trkpt><trkpt lat="39.42502462" lon="-0.33720447"><ele>4.8</ele><time>2022-10-31T11:57:29.0000000+00:00</time></trkpt><trkpt lat="39.42500224" lon="-0.3371173"><ele>4.8</ele><time>2022-10-31T11:57:30.0000000+00:00</time></trkpt><trkpt lat="39.42497743" lon="-0.33702971"><ele>5.0</ele><time>2022-10-31T11:57:31.0000000+00:00</time></trkpt><trkpt lat="39.42494944" lon="-0.33694555"><ele>5.2</ele><time>2022-10-31T11:57:32.0000000+00:00</time></trkpt><trkpt lat="39.42492127" lon="-0.33685964"><ele>5.2</ele><time>2022-10-31T11:57:33.0000000+00:00</time></trkpt><trkpt lat="39.42488498" lon="-0.33677758"><ele>5.2</ele><time>2022-10-31T11:57:34.0000000+00:00</time></trkpt><trkpt lat="39.42484676" lon="-0.33669711"><ele>5.2</ele><time>2022-10-31T11:57:35.0000000+00:00</time></trkpt><trkpt lat="39.42480963" lon="-0.33661849"><ele>5.2</ele><time>2022-10-31T11:57:36.0000000+00:00</time></trkpt><trkpt lat="39.42477568" lon="-0.33653811"><ele>5.2</ele><time>2022-10-31T11:57:37.0000000+00:00</time></trkpt><trkpt lat="39.42474366" lon="-0.33645546"><ele>5.2</ele><time>2022-10-31T11:57:38.0000000+00:00</time></trkpt><trkpt lat="39.42471785" lon="-0.33637684"><ele>5.2</ele><time>2022-10-31T11:57:39.0000000+00:00</time></trkpt><trkpt lat="39.42468968" lon="-0.33629277"><ele>5.2</ele><time>2022-10-31T11:57:40.0000000+00:00</time></trkpt><trkpt lat="39.42465892" lon="-0.33621021"><ele>5.0</ele><time>2022-10-31T11:57:41.0000000+00:00</time></trkpt><trkpt lat="39.42463143" lon="-0.33613033"><ele>5.0</ele><time>2022-10-31T11:57:42.0000000+00:00</time></trkpt><trkpt lat="39.42460285" lon="-0.33605137"><ele>5.0</ele><time>2022-10-31T11:57:43.0000000+00:00</time></trkpt><trkpt lat="39.4245741" lon="-0.33597157"><ele>5.0</ele><time>2022-10-31T11:57:44.0000000+00:00</time></trkpt><trkpt lat="39.42454526" lon="-0.33589086"><ele>4.8</ele><time>2022-10-31T11:57:45.0000000+00:00</time></trkpt><trkpt lat="39.42451593" lon="-0.33581106"><ele>4.8</ele><time>2022-10-31T11:57:46.0000000+00:00</time></trkpt><trkpt lat="39.42448843" lon="-0.33573185"><ele>4.8</ele><time>2022-10-31T11:57:47.0000000+00:00</time></trkpt><trkpt lat="39.42445491" lon="-0.33565474"><ele>4.6</ele><time>2022-10-31T11:57:48.0000000+00:00</time></trkpt><trkpt lat="39.42442641" lon="-0.33557989"><ele>4.4</ele><time>2022-10-31T11:57:49.0000000+00:00</time></trkpt><trkpt lat="39.4243995" lon="-0.33550554"><ele>4.4</ele><time>2022-10-31T11:57:50.0000000+00:00</time></trkpt><trkpt lat="39.42437771" lon="-0.33543781"><ele>4.4</ele><time>2022-10-31T11:57:51.0000000+00:00</time></trkpt><trkpt lat="39.42436279" lon="-0.33539046"><ele>4.2</ele><time>2022-10-31T11:57:52.0000000+00:00</time></trkpt><trkpt lat="39.42435147" lon="-0.3353633"><ele>3.8</ele><time>2022-10-31T11:57:53.0000000+00:00</time></trkpt><trkpt lat="39.42433965" lon="-0.33535182"><ele>3.6</ele><time>2022-10-31T11:57:54.0000000+00:00</time></trkpt><trkpt lat="39.42432281" lon="-0.33535232"><ele>3.6</ele><time>2022-10-31T11:57:55.0000000+00:00</time></trkpt><trkpt lat="39.42430688" lon="-0.33536204"><ele>3.4</ele><time>2022-10-31T11:57:56.0000000+00:00</time></trkpt><trkpt lat="39.42428744" lon="-0.33537361"><ele>3.2</ele><time>2022-10-31T11:57:57.0000000+00:00</time></trkpt><trkpt lat="39.42426698" lon="-0.33538819"><ele>3.2</ele><time>2022-10-31T11:57:58.0000000+00:00</time></trkpt><trkpt lat="39.42424754" lon="-0.33540504"><ele>3.2</ele><time>2022-10-31T11:57:59.0000000+00:00</time></trkpt><trkpt lat="39.42423555" lon="-0.33542457"><ele>3.0</ele><time>2022-10-31T11:58:00.0000000+00:00</time></trkpt><trkpt lat="39.42422248" lon="-0.33542851"><ele>2.8</ele><time>2022-10-31T11:58:01.0000000+00:00</time></trkpt><trkpt lat="39.42421057" lon="-0.33541485"><ele>2.8</ele><time>2022-10-31T11:58:02.0000000+00:00</time></trkpt><trkpt lat="39.42420219" lon="-0.33539649"><ele>2.8</ele><time>2022-10-31T11:58:03.0000000+00:00</time></trkpt><trkpt lat="39.42419322" lon="-0.33537042"><ele>2.8</ele><time>2022-10-31T11:58:04.0000000+00:00</time></trkpt><trkpt lat="39.42417998" lon="-0.33533581"><ele>2.8</ele><time>2022-10-31T11:58:05.0000000+00:00</time></trkpt><trkpt lat="39.42416632" lon="-0.33529038"><ele>3.0</ele><time>2022-10-31T11:58:06.0000000+00:00</time></trkpt><trkpt lat="39.4241514" lon="-0.33524226"><ele>3.2</ele><time>2022-10-31T11:58:07.0000000+00:00</time></trkpt><trkpt lat="39.42413698" lon="-0.33519658"><ele>3.2</ele><time>2022-10-31T11:58:08.0000000+00:00</time></trkpt><trkpt lat="39.42411879" lon="-0.33515015"><ele>3.2</ele><time>2022-10-31T11:58:09.0000000+00:00</time></trkpt><trkpt lat="39.4240975" lon="-0.33510413"><ele>3.2</ele><time>2022-10-31T11:58:10.0000000+00:00</time></trkpt><trkpt lat="39.42407428" lon="-0.33505837"><ele>3.2</ele><time>2022-10-31T11:58:11.0000000+00:00</time></trkpt><trkpt lat="39.42404863" lon="-0.33501017"><ele>3.0</ele><time>2022-10-31T11:58:12.0000000+00:00</time></trkpt><trkpt lat="39.42402114" lon="-0.33496281"><ele>3.0</ele><time>2022-10-31T11:58:13.0000000+00:00</time></trkpt><trkpt lat="39.42399415" lon="-0.33491814"><ele>2.8</ele><time>2022-10-31T11:58:14.0000000+00:00</time></trkpt><trkpt lat="39.42396163" lon="-0.33487774"><ele>2.8</ele><time>2022-10-31T11:58:15.0000000+00:00</time></trkpt><trkpt lat="39.42392349" lon="-0.33484865"><ele>2.8</ele><time>2022-10-31T11:58:16.0000000+00:00</time></trkpt><trkpt lat="39.42388468" lon="-0.33483792"><ele>2.8</ele><time>2022-10-31T11:58:17.0000000+00:00</time></trkpt><trkpt lat="39.42384956" lon="-0.33483164"><ele>2.8</ele><time>2022-10-31T11:58:18.0000000+00:00</time></trkpt><trkpt lat="39.42382048" lon="-0.3348339"><ele>2.6</ele><time>2022-10-31T11:58:19.0000000+00:00</time></trkpt><trkpt lat="39.42380363" lon="-0.33483851"><ele>2.6</ele><time>2022-10-31T11:58:20.0000000+00:00</time></trkpt><trkpt lat="39.42379676" lon="-0.33483868"><ele>2.6</ele><time>2022-10-31T11:58:21.0000000+00:00</time></trkpt><trkpt lat="39.42379676" lon="-0.33483868"><ele>2.6</ele><time>2022-10-31T11:58:22.0000000+00:00</time></trkpt><trkpt lat="39.42379676" lon="-0.33483868"><ele>2.6</ele><time>2022-10-31T11:58:23.0000000+00:00</time></trkpt><trkpt lat="39.42379676" lon="-0.33483868"><ele>2.4</ele><time>2022-10-31T11:58:24.0000000+00:00</time></trkpt><trkpt lat="39.42379676" lon="-0.33483868"><ele>2.4</ele><time>2022-10-31T11:58:25.0000000+00:00</time></trkpt><trkpt lat="39.42379676" lon="-0.33483868"><ele>2.4</ele><time>2022-10-31T11:58:26.0000000+00:00</time></trkpt><trkpt lat="39.42379676" lon="-0.33483868"><ele>2.4</ele><time>2022-10-31T11:58:27.0000000+00:00</time></trkpt><trkpt lat="39.42379676" lon="-0.33483868"><ele>2.4</ele><time>2022-10-31T11:58:28.0000000+00:00</time></trkpt><trkpt lat="39.42379676" lon="-0.33483868"><ele>2.4</ele><time>2022-10-31T11:58:29.0000000+00:00</time></trkpt><trkpt lat="39.42379676" lon="-0.33483868"><ele>2.4</ele><time>2022-10-31T11:58:30.0000000+00:00</time></trkpt><trkpt lat="39.42379676" lon="-0.33483868"><ele>2.4</ele><time>2022-10-31T11:58:31.0000000+00:00</time></trkpt><trkpt lat="39.42379676" lon="-0.33483868"><ele>2.6</ele><time>2022-10-31T11:58:32.0000000+00:00</time></trkpt><trkpt lat="39.42379676" lon="-0.33483868"><ele>2.6</ele><time>2022-10-31T11:58:33.0000000+00:00</time></trkpt><trkpt lat="39.42379676" lon="-0.33483868"><ele>2.6</ele><time>2022-10-31T11:58:34.0000000+00:00</time></trkpt><trkpt lat="39.42379676" lon="-0.33483868"><ele>2.6</ele><time>2022-10-31T11:58:35.0000000+00:00</time></trkpt><trkpt lat="39.42379676" lon="-0.33483868"><ele>2.6</ele><time>2022-10-31T11:58:36.0000000+00:00</time></trkpt><trkpt lat="39.42379676" lon="-0.33483868"><ele>2.4</ele><time>2022-10-31T11:58:37.0000000+00:00</time></trkpt><trkpt lat="39.42379676" lon="-0.33483868"><ele>2.4</ele><time>2022-10-31T11:58:38.0000000+00:00</time></trkpt><trkpt lat="39.42379676" lon="-0.33483868"><ele>2.4</ele><time>2022-10-31T11:58:39.0000000+00:00</time></trkpt><trkpt lat="39.42379676" lon="-0.33483868"><ele>2.6</ele><time>2022-10-31T11:58:40.0000000+00:00</time></trkpt><trkpt lat="39.42379676" lon="-0.33483868"><ele>2.6</ele><time>2022-10-31T11:58:41.0000000+00:00</time></trkpt><trkpt lat="39.42379676" lon="-0.33483868"><ele>2.6</ele><time>2022-10-31T11:58:42.0000000+00:00</time></trkpt><trkpt lat="39.42379676" lon="-0.33483868"><ele>2.6</ele><time>2022-10-31T11:58:43.0000000+00:00</time></trkpt><trkpt lat="39.42379676" lon="-0.33483868"><ele>2.6</ele><time>2022-10-31T11:58:44.0000000+00:00</time></trkpt><trkpt lat="39.42379676" lon="-0.33483868"><ele>2.6</ele><time>2022-10-31T11:58:45.0000000+00:00</time></trkpt><trkpt lat="39.42379676" lon="-0.33483868"><ele>2.6</ele><time>2022-10-31T11:58:46.0000000+00:00</time></trkpt><trkpt lat="39.42379676" lon="-0.33483868"><ele>2.6</ele><time>2022-10-31T11:58:47.0000000+00:00</time></trkpt><trkpt lat="39.42379676" lon="-0.33483868"><ele>2.6</ele><time>2022-10-31T11:58:48.0000000+00:00</time></trkpt><trkpt lat="39.42379676" lon="-0.33483868"><ele>2.6</ele><time>2022-10-31T11:58:49.0000000+00:00</time></trkpt><trkpt lat="39.42379676" lon="-0.33483868"><ele>2.6</ele><time>2022-10-31T11:58:50.0000000+00:00</time></trkpt><trkpt lat="39.42379676" lon="-0.33483868"><ele>2.6</ele><time>2022-10-31T11:58:51.0000000+00:00</time></trkpt><trkpt lat="39.42379676" lon="-0.33483868"><ele>2.6</ele><time>2022-10-31T11:58:52.0000000+00:00</time></trkpt><trkpt lat="39.42379676" lon="-0.33483868"><ele>2.8</ele><time>2022-10-31T11:58:53.0000000+00:00</time></trkpt><trkpt lat="39.42379676" lon="-0.33483868"><ele>2.6</ele><time>2022-10-31T11:58:54.0000000+00:00</time></trkpt><trkpt lat="39.42379676" lon="-0.33483868"><ele>2.6</ele><time>2022-10-31T11:58:55.0000000+00:00</time></trkpt><trkpt lat="39.42379676" lon="-0.33483868"><ele>2.6</ele><time>2022-10-31T11:58:56.0000000+00:00</time></trkpt><trkpt lat="39.42379676" lon="-0.33483868"><ele>2.6</ele><time>2022-10-31T11:58:57.0000000+00:00</time></trkpt><trkpt lat="39.42379676" lon="-0.33483868"><ele>2.6</ele><time>2022-10-31T11:58:58.0000000+00:00</time></trkpt><trkpt lat="39.42379676" lon="-0.33483868"><ele>2.6</ele><time>2022-10-31T11:58:59.0000000+00:00</time></trkpt><trkpt lat="39.42379676" lon="-0.33483868"><ele>2.6</ele><time>2022-10-31T11:59:00.0000000+00:00</time></trkpt><trkpt lat="39.42379676" lon="-0.33483868"><ele>2.6</ele><time>2022-10-31T11:59:01.0000000+00:00</time></trkpt><trkpt lat="39.42379676" lon="-0.33483868"><ele>2.6</ele><time>2022-10-31T11:59:02.0000000+00:00</time></trkpt><trkpt lat="39.42379676" lon="-0.33483868"><ele>2.6</ele><time>2022-10-31T11:59:03.0000000+00:00</time></trkpt><trkpt lat="39.42379676" lon="-0.33483868"><ele>2.4</ele><time>2022-10-31T11:59:04.0000000+00:00</time></trkpt><trkpt lat="39.42379676" lon="-0.33483868"><ele>2.4</ele><time>2022-10-31T11:59:05.0000000+00:00</time></trkpt><trkpt lat="39.42379676" lon="-0.33483868"><ele>2.6</ele><time>2022-10-31T11:59:06.0000000+00:00</time></trkpt><trkpt lat="39.42379676" lon="-0.33483868"><ele>2.6</ele><time>2022-10-31T11:59:07.0000000+00:00</time></trkpt><trkpt lat="39.42379676" lon="-0.33483868"><ele>2.6</ele><time>2022-10-31T11:59:08.0000000+00:00</time></trkpt><trkpt lat="39.42379676" lon="-0.33483868"><ele>2.6</ele><time>2022-10-31T11:59:09.0000000+00:00</time></trkpt><trkpt lat="39.42379676" lon="-0.33483868"><ele>2.6</ele><time>2022-10-31T11:59:10.0000000+00:00</time></trkpt><trkpt lat="39.42379676" lon="-0.33483868"><ele>2.6</ele><time>2022-10-31T11:59:11.0000000+00:00</time></trkpt><trkpt lat="39.42379676" lon="-0.33483868"><ele>2.6</ele><time>2022-10-31T11:59:12.0000000+00:00</time></trkpt><trkpt lat="39.42379676" lon="-0.33483868"><ele>2.6</ele><time>2022-10-31T11:59:13.0000000+00:00</time></trkpt><trkpt lat="39.42379676" lon="-0.33483868"><ele>2.6</ele><time>2022-10-31T11:59:14.0000000+00:00</time></trkpt><trkpt lat="39.42379676" lon="-0.33483868"><ele>2.6</ele><time>2022-10-31T11:59:15.0000000+00:00</time></trkpt><trkpt lat="39.42379676" lon="-0.33483868"><ele>2.6</ele><time>2022-10-31T11:59:16.0000000+00:00</time></trkpt><trkpt lat="39.42379676" lon="-0.33483868"><ele>2.6</ele><time>2022-10-31T11:59:17.0000000+00:00</time></trkpt><trkpt lat="39.42379676" lon="-0.33483868"><ele>2.6</ele><time>2022-10-31T11:59:18.0000000+00:00</time></trkpt><trkpt lat="39.42379676" lon="-0.33483868"><ele>2.6</ele><time>2022-10-31T11:59:19.0000000+00:00</time></trkpt><trkpt lat="39.42379676" lon="-0.33483868"><ele>2.6</ele><time>2022-10-31T11:59:20.0000000+00:00</time></trkpt><trkpt lat="39.42379676" lon="-0.33483868"><ele>2.6</ele><time>2022-10-31T11:59:21.0000000+00:00</time></trkpt><trkpt lat="39.42379676" lon="-0.33483868"><ele>2.6</ele><time>2022-10-31T11:59:22.0000000+00:00</time></trkpt><trkpt lat="39.42379676" lon="-0.33483868"><ele>2.6</ele><time>2022-10-31T11:59:23.0000000+00:00</time></trkpt><trkpt lat="39.42379676" lon="-0.33483868"><ele>2.6</ele><time>2022-10-31T11:59:24.0000000+00:00</time></trkpt><trkpt lat="39.42379676" lon="-0.33483868"><ele>2.6</ele><time>2022-10-31T11:59:25.0000000+00:00</time></trkpt><trkpt lat="39.42379676" lon="-0.33483868"><ele>2.6</ele><time>2022-10-31T11:59:26.0000000+00:00</time></trkpt><trkpt lat="39.42379676" lon="-0.33483868"><ele>2.6</ele><time>2022-10-31T11:59:27.0000000+00:00</time></trkpt><trkpt lat="39.42379676" lon="-0.33483868"><ele>2.6</ele><time>2022-10-31T11:59:28.0000000+00:00</time></trkpt><trkpt lat="39.42379676" lon="-0.33483868"><ele>2.6</ele><time>2022-10-31T11:59:29.0000000+00:00</time></trkpt><trkpt lat="39.42379676" lon="-0.33483868"><ele>2.6</ele><time>2022-10-31T11:59:30.0000000+00:00</time></trkpt><trkpt lat="39.42379676" lon="-0.33483868"><ele>2.6</ele><time>2022-10-31T11:59:31.0000000+00:00</time></trkpt><trkpt lat="39.42379676" lon="-0.33483868"><ele>2.6</ele><time>2022-10-31T11:59:32.0000000+00:00</time></trkpt><trkpt lat="39.42379676" lon="-0.33483868"><ele>2.6</ele><time>2022-10-31T11:59:33.0000000+00:00</time></trkpt><trkpt lat="39.42379676" lon="-0.33483868"><ele>2.6</ele><time>2022-10-31T11:59:34.0000000+00:00</time></trkpt><trkpt lat="39.42379676" lon="-0.33483868"><ele>2.6</ele><time>2022-10-31T11:59:35.0000000+00:00</time></trkpt><trkpt lat="39.42379676" lon="-0.33483868"><ele>2.6</ele><time>2022-10-31T11:59:36.0000000+00:00</time></trkpt><trkpt lat="39.42379676" lon="-0.33483868"><ele>2.6</ele><time>2022-10-31T11:59:37.0000000+00:00</time></trkpt><trkpt lat="39.42379676" lon="-0.33483868"><ele>2.6</ele><time>2022-10-31T11:59:38.0000000+00:00</time></trkpt><trkpt lat="39.42379676" lon="-0.33483868"><ele>2.6</ele><time>2022-10-31T11:59:39.0000000+00:00</time></trkpt><trkpt lat="39.42379676" lon="-0.33483868"><ele>2.6</ele><time>2022-10-31T11:59:40.0000000+00:00</time></trkpt><trkpt lat="39.42379676" lon="-0.33483868"><ele>2.6</ele><time>2022-10-31T11:59:41.0000000+00:00</time></trkpt><trkpt lat="39.42379676" lon="-0.33483868"><ele>2.6</ele><time>2022-10-31T11:59:42.0000000+00:00</time></trkpt><trkpt lat="39.42379676" lon="-0.33483868"><ele>2.6</ele><time>2022-10-31T11:59:43.0000000+00:00</time></trkpt><trkpt lat="39.42379676" lon="-0.33483868"><ele>2.6</ele><time>2022-10-31T11:59:44.0000000+00:00</time></trkpt><trkpt lat="39.42379676" lon="-0.33483868"><ele>2.6</ele><time>2022-10-31T11:59:45.0000000+00:00</time></trkpt><trkpt lat="39.42379676" lon="-0.33483868"><ele>2.6</ele><time>2022-10-31T11:59:46.0000000+00:00</time></trkpt><trkpt lat="39.42379676" lon="-0.33483868"><ele>2.6</ele><time>2022-10-31T11:59:47.0000000+00:00</time></trkpt><trkpt lat="39.42379676" lon="-0.33483868"><ele>2.6</ele><time>2022-10-31T11:59:48.0000000+00:00</time></trkpt><trkpt lat="39.42379676" lon="-0.33483868"><ele>2.6</ele><time>2022-10-31T11:59:49.0000000+00:00</time></trkpt><trkpt lat="39.42379676" lon="-0.33483868"><ele>2.6</ele><time>2022-10-31T11:59:50.0000000+00:00</time></trkpt><trkpt lat="39.42379676" lon="-0.33483868"><ele>2.6</ele><time>2022-10-31T11:59:51.0000000+00:00</time></trkpt><trkpt lat="39.42379676" lon="-0.33483868"><ele>2.6</ele><time>2022-10-31T11:59:52.0000000+00:00</time></trkpt><trkpt lat="39.42379676" lon="-0.33483868"><ele>2.6</ele><time>2022-10-31T11:59:53.0000000+00:00</time></trkpt><trkpt lat="39.42379676" lon="-0.33483868"><ele>2.6</ele><time>2022-10-31T11:59:54.0000000+00:00</time></trkpt><trkpt lat="39.42379676" lon="-0.33483868"><ele>2.6</ele><time>2022-10-31T11:59:55.0000000+00:00</time></trkpt><trkpt lat="39.42379676" lon="-0.33483868"><ele>2.6</ele><time>2022-10-31T11:59:56.0000000+00:00</time></trkpt><trkpt lat="39.42379676" lon="-0.33483868"><ele>2.6</ele><time>2022-10-31T11:59:57.0000000+00:00</time></trkpt><trkpt lat="39.42379676" lon="-0.33483868"><ele>2.6</ele><time>2022-10-31T11:59:58.0000000+00:00</time></trkpt><trkpt lat="39.42379676" lon="-0.33483868"><ele>2.6</ele><time>2022-10-31T11:59:59.0000000+00:00</time></trkpt><trkpt lat="39.42379676" lon="-0.33483868"><ele>2.6</ele><time>2022-10-31T12:00:00.0000000+00:00</time></trkpt><trkpt lat="39.42379676" lon="-0.33483868"><ele>2.6</ele><time>2022-10-31T12:00:01.0000000+00:00</time></trkpt><trkpt lat="39.42379676" lon="-0.33483868"><ele>2.6</ele><time>2022-10-31T12:00:02.0000000+00:00</time></trkpt><trkpt lat="39.42379676" lon="-0.33483868"><ele>2.6</ele><time>2022-10-31T12:00:03.0000000+00:00</time></trkpt><trkpt lat="39.42379676" lon="-0.33483868"><ele>2.6</ele><time>2022-10-31T12:00:04.0000000+00:00</time></trkpt><trkpt lat="39.42379676" lon="-0.33483868"><ele>2.6</ele><time>2022-10-31T12:00:05.0000000+00:00</time></trkpt><trkpt lat="39.42379676" lon="-0.33483868"><ele>2.6</ele><time>2022-10-31T12:00:06.0000000+00:00</time></trkpt><trkpt lat="39.42379676" lon="-0.33483868"><ele>2.6</ele><time>2022-10-31T12:00:07.0000000+00:00</time></trkpt><trkpt lat="39.42379676" lon="-0.33483868"><ele>2.6</ele><time>2022-10-31T12:00:08.0000000+00:00</time></trkpt><trkpt lat="39.42379676" lon="-0.33483868"><ele>2.6</ele><time>2022-10-31T12:00:09.0000000+00:00</time></trkpt><trkpt lat="39.42379676" lon="-0.33483868"><ele>2.6</ele><time>2022-10-31T12:00:10.0000000+00:00</time></trkpt><trkpt lat="39.42379676" lon="-0.33483868"><ele>2.6</ele><time>2022-10-31T12:00:11.0000000+00:00</time></trkpt><trkpt lat="39.42379676" lon="-0.33483868"><ele>2.6</ele><time>2022-10-31T12:00:12.0000000+00:00</time></trkpt><trkpt lat="39.42379676" lon="-0.33483868"><ele>2.6</ele><time>2022-10-31T12:00:13.0000000+00:00</time></trkpt><trkpt lat="39.42379676" lon="-0.33483868"><ele>2.6</ele><time>2022-10-31T12:00:14.0000000+00:00</time></trkpt><trkpt lat="39.42379676" lon="-0.33483868"><ele>2.6</ele><time>2022-10-31T12:00:15.0000000+00:00</time></trkpt><trkpt lat="39.42379676" lon="-0.33483868"><ele>2.6</ele><time>2022-10-31T12:00:16.0000000+00:00</time></trkpt><trkpt lat="39.42379676" lon="-0.33483868"><ele>2.6</ele><time>2022-10-31T12:00:17.0000000+00:00</time></trkpt><trkpt lat="39.42379676" lon="-0.33483868"><ele>2.6</ele><time>2022-10-31T12:00:18.0000000+00:00</time></trkpt><trkpt lat="39.42379676" lon="-0.33483868"><ele>2.6</ele><time>2022-10-31T12:00:19.0000000+00:00</time></trkpt><trkpt lat="39.42379676" lon="-0.33483868"><ele>2.6</ele><time>2022-10-31T12:00:20.0000000+00:00</time></trkpt><trkpt lat="39.42379676" lon="-0.33483868"><ele>2.6</ele><time>2022-10-31T12:00:21.0000000+00:00</time></trkpt><trkpt lat="39.42379676" lon="-0.33483868"><ele>2.6</ele><time>2022-10-31T12:00:22.0000000+00:00</time></trkpt><trkpt lat="39.42379676" lon="-0.33483868"><ele>2.6</ele><time>2022-10-31T12:00:23.0000000+00:00</time></trkpt><trkpt lat="39.42379676" lon="-0.33483868"><ele>2.6</ele><time>2022-10-31T12:00:24.0000000+00:00</time></trkpt><trkpt lat="39.42379676" lon="-0.33483868"><ele>2.6</ele><time>2022-10-31T12:00:25.0000000+00:00</time></trkpt><trkpt lat="39.42379676" lon="-0.33483868"><ele>2.6</ele><time>2022-10-31T12:00:26.0000000+00:00</time></trkpt><trkpt lat="39.42379676" lon="-0.33483868"><ele>2.6</ele><time>2022-10-31T12:00:27.0000000+00:00</time></trkpt><trkpt lat="39.42379676" lon="-0.33483868"><ele>2.6</ele><time>2022-10-31T12:00:28.0000000+00:00</time></trkpt><trkpt lat="39.42379676" lon="-0.33483868"><ele>2.6</ele><time>2022-10-31T12:00:29.0000000+00:00</time></trkpt><trkpt lat="39.42379676" lon="-0.33483868"><ele>2.6</ele><time>2022-10-31T12:00:30.0000000+00:00</time></trkpt><trkpt lat="39.42379676" lon="-0.33483868"><ele>2.6</ele><time>2022-10-31T12:00:31.0000000+00:00</time></trkpt><trkpt lat="39.42379676" lon="-0.33483868"><ele>2.6</ele><time>2022-10-31T12:00:32.0000000+00:00</time></trkpt><trkpt lat="39.42379676" lon="-0.33483868"><ele>2.6</ele><time>2022-10-31T12:00:33.0000000+00:00</time></trkpt><trkpt lat="39.42379676" lon="-0.33483868"><ele>2.6</ele><time>2022-10-31T12:00:34.0000000+00:00</time></trkpt><trkpt lat="39.42379676" lon="-0.33483868"><ele>2.6</ele><time>2022-10-31T12:00:35.0000000+00:00</time></trkpt><trkpt lat="39.42379676" lon="-0.33483868"><ele>2.6</ele><time>2022-10-31T12:00:36.0000000+00:00</time></trkpt><trkpt lat="39.42379676" lon="-0.33483868"><ele>2.6</ele><time>2022-10-31T12:00:37.0000000+00:00</time></trkpt><trkpt lat="39.42379676" lon="-0.33483868"><ele>2.6</ele><time>2022-10-31T12:00:38.0000000+00:00</time></trkpt><trkpt lat="39.42379676" lon="-0.33483868"><ele>2.6</ele><time>2022-10-31T12:00:39.0000000+00:00</time></trkpt><trkpt lat="39.42379676" lon="-0.33483868"><ele>2.6</ele><time>2022-10-31T12:00:40.0000000+00:00</time></trkpt><trkpt lat="39.42379676" lon="-0.33483868"><ele>2.6</ele><time>2022-10-31T12:00:41.0000000+00:00</time></trkpt><trkpt lat="39.42379676" lon="-0.33483868"><ele>2.6</ele><time>2022-10-31T12:00:42.0000000+00:00</time></trkpt><trkpt lat="39.42379676" lon="-0.33483868"><ele>2.6</ele><time>2022-10-31T12:00:43.0000000+00:00</time></trkpt><trkpt lat="39.42379676" lon="-0.33483868"><ele>2.6</ele><time>2022-10-31T12:00:44.0000000+00:00</time></trkpt><trkpt lat="39.42379466" lon="-0.33483733"><ele>2.6</ele><time>2022-10-31T12:00:45.0000000+00:00</time></trkpt><trkpt lat="39.42378586" lon="-0.33483415"><ele>2.6</ele><time>2022-10-31T12:00:46.0000000+00:00</time></trkpt><trkpt lat="39.42377362" lon="-0.33482845"><ele>2.6</ele><time>2022-10-31T12:00:47.0000000+00:00</time></trkpt><trkpt lat="39.42375686" lon="-0.33482099"><ele>2.6</ele><time>2022-10-31T12:00:48.0000000+00:00</time></trkpt><trkpt lat="39.42373473" lon="-0.33481118"><ele>2.6</ele><time>2022-10-31T12:00:49.0000000+00:00</time></trkpt><trkpt lat="39.42370581" lon="-0.3348033"><ele>2.6</ele><time>2022-10-31T12:00:50.0000000+00:00</time></trkpt><trkpt lat="39.42367405" lon="-0.3347976"><ele>2.6</ele><time>2022-10-31T12:00:51.0000000+00:00</time></trkpt><trkpt lat="39.42364479" lon="-0.33479358"><ele>2.6</ele><time>2022-10-31T12:00:52.0000000+00:00</time></trkpt><trkpt lat="39.42361076" lon="-0.33478746"><ele>2.6</ele><time>2022-10-31T12:00:53.0000000+00:00</time></trkpt><trkpt lat="39.42357522" lon="-0.3347759"><ele>2.6</ele><time>2022-10-31T12:00:54.0000000+00:00</time></trkpt><trkpt lat="39.4235396" lon="-0.33476341"><ele>2.4</ele><time>2022-10-31T12:00:55.0000000+00:00</time></trkpt><trkpt lat="39.42350465" lon="-0.33475092"><ele>2.4</ele><time>2022-10-31T12:00:56.0000000+00:00</time></trkpt><trkpt lat="39.42346743" lon="-0.33473918"><ele>2.4</ele><time>2022-10-31T12:00:57.0000000+00:00</time></trkpt><trkpt lat="39.42343005" lon="-0.33473013"><ele>2.6</ele><time>2022-10-31T12:00:58.0000000+00:00</time></trkpt><trkpt lat="39.42339066" lon="-0.33472192"><ele>2.6</ele><time>2022-10-31T12:00:59.0000000+00:00</time></trkpt><trkpt lat="39.42334757" lon="-0.33470809"><ele>2.6</ele><time>2022-10-31T12:01:00.0000000+00:00</time></trkpt><trkpt lat="39.42330147" lon="-0.33469266"><ele>2.8</ele><time>2022-10-31T12:01:01.0000000+00:00</time></trkpt><trkpt lat="39.42325152" lon="-0.33467925"><ele>2.8</ele><time>2022-10-31T12:01:02.0000000+00:00</time></trkpt><trkpt lat="39.42320189" lon="-0.33466743"><ele>2.8</ele><time>2022-10-31T12:01:03.0000000+00:00</time></trkpt><trkpt lat="39.4231537" lon="-0.33465419"><ele>3.0</ele><time>2022-10-31T12:01:04.0000000+00:00</time></trkpt><trkpt lat="39.42310475" lon="-0.33463986"><ele>3.0</ele><time>2022-10-31T12:01:05.0000000+00:00</time></trkpt><trkpt lat="39.42305379" lon="-0.33462175"><ele>3.0</ele><time>2022-10-31T12:01:06.0000000+00:00</time></trkpt><trkpt lat="39.4230035" lon="-0.33460633"><ele>2.8</ele><time>2022-10-31T12:01:07.0000000+00:00</time></trkpt><trkpt lat="39.42295329" lon="-0.33459351"><ele>2.8</ele><time>2022-10-31T12:01:08.0000000+00:00</time></trkpt><trkpt lat="39.42290417" lon="-0.33458713"><ele>2.8</ele><time>2022-10-31T12:01:09.0000000+00:00</time></trkpt><trkpt lat="39.42285497" lon="-0.33457465"><ele>2.8</ele><time>2022-10-31T12:01:10.0000000+00:00</time></trkpt><trkpt lat="39.4228025" lon="-0.33455973"><ele>2.8</ele><time>2022-10-31T12:01:11.0000000+00:00</time></trkpt><trkpt lat="39.42274919" lon="-0.33454657"><ele>2.8</ele><time>2022-10-31T12:01:12.0000000+00:00</time></trkpt><trkpt lat="39.42269672" lon="-0.33453299"><ele>2.8</ele><time>2022-10-31T12:01:13.0000000+00:00</time></trkpt><trkpt lat="39.42264467" lon="-0.33451882"><ele>2.8</ele><time>2022-10-31T12:01:14.0000000+00:00</time></trkpt><trkpt lat="39.4225922" lon="-0.33450147"><ele>2.8</ele><time>2022-10-31T12:01:15.0000000+00:00</time></trkpt><trkpt lat="39.42253704" lon="-0.33448462"><ele>2.8</ele><time>2022-10-31T12:01:16.0000000+00:00</time></trkpt><trkpt lat="39.4224829" lon="-0.33446526"><ele>2.8</ele><time>2022-10-31T12:01:17.0000000+00:00</time></trkpt><trkpt lat="39.42242699" lon="-0.33444766"><ele>2.8</ele><time>2022-10-31T12:01:18.0000000+00:00</time></trkpt><trkpt lat="39.42237133" lon="-0.33443106"><ele>2.8</ele><time>2022-10-31T12:01:19.0000000+00:00</time></trkpt><trkpt lat="39.42231827" lon="-0.33441296"><ele>2.8</ele><time>2022-10-31T12:01:20.0000000+00:00</time></trkpt><trkpt lat="39.4222648" lon="-0.33439594"><ele>2.8</ele><time>2022-10-31T12:01:21.0000000+00:00</time></trkpt><trkpt lat="39.42221032" lon="-0.33437859"><ele>2.8</ele><time>2022-10-31T12:01:22.0000000+00:00</time></trkpt><trkpt lat="39.42215868" lon="-0.33436166"><ele>2.8</ele><time>2022-10-31T12:01:23.0000000+00:00</time></trkpt><trkpt lat="39.4221068" lon="-0.33434414"><ele>2.8</ele><time>2022-10-31T12:01:24.0000000+00:00</time></trkpt><trkpt lat="39.42205282" lon="-0.33432679"><ele>2.6</ele><time>2022-10-31T12:01:25.0000000+00:00</time></trkpt><trkpt lat="39.42199742" lon="-0.33430819"><ele>2.6</ele><time>2022-10-31T12:01:26.0000000+00:00</time></trkpt><trkpt lat="39.42194285" lon="-0.33428991"><ele>2.6</ele><time>2022-10-31T12:01:27.0000000+00:00</time></trkpt><trkpt lat="39.4218908" lon="-0.3342734"><ele>2.6</ele><time>2022-10-31T12:01:28.0000000+00:00</time></trkpt><trkpt lat="39.42183808" lon="-0.33425999"><ele>2.6</ele><time>2022-10-31T12:01:29.0000000+00:00</time></trkpt><trkpt lat="39.42178493" lon="-0.33424775"><ele>2.6</ele><time>2022-10-31T12:01:30.0000000+00:00</time></trkpt><trkpt lat="39.42173163" lon="-0.33423551"><ele>2.6</ele><time>2022-10-31T12:01:31.0000000+00:00</time></trkpt><trkpt lat="39.42167739" lon="-0.33422428"><ele>2.6</ele><time>2022-10-31T12:01:32.0000000+00:00</time></trkpt><trkpt lat="39.42162283" lon="-0.33420819"><ele>2.6</ele><time>2022-10-31T12:01:33.0000000+00:00</time></trkpt><trkpt lat="39.42156952" lon="-0.33419251"><ele>2.8</ele><time>2022-10-31T12:01:34.0000000+00:00</time></trkpt><trkpt lat="39.4215147" lon="-0.33418078"><ele>3.0</ele><time>2022-10-31T12:01:35.0000000+00:00</time></trkpt><trkpt lat="39.42146047" lon="-0.33417022"><ele>3.0</ele><time>2022-10-31T12:01:36.0000000+00:00</time></trkpt><trkpt lat="39.42140649" lon="-0.33415647"><ele>3.0</ele><time>2022-10-31T12:01:37.0000000+00:00</time></trkpt><trkpt lat="39.42135042" lon="-0.33414549"><ele>3.2</ele><time>2022-10-31T12:01:38.0000000+00:00</time></trkpt><trkpt lat="39.4212925" lon="-0.33413535"><ele>3.0</ele><time>2022-10-31T12:01:39.0000000+00:00</time></trkpt><trkpt lat="39.42123349" lon="-0.33412538"><ele>2.8</ele><time>2022-10-31T12:01:40.0000000+00:00</time></trkpt><trkpt lat="39.42117658" lon="-0.33411549"><ele>2.8</ele><time>2022-10-31T12:01:41.0000000+00:00</time></trkpt><trkpt lat="39.42112092" lon="-0.33410333"><ele>2.8</ele><time>2022-10-31T12:01:42.0000000+00:00</time></trkpt><trkpt lat="39.42106518" lon="-0.33409009"><ele>2.8</ele><time>2022-10-31T12:01:43.0000000+00:00</time></trkpt><trkpt lat="39.42100835" lon="-0.33407542"><ele>2.8</ele><time>2022-10-31T12:01:44.0000000+00:00</time></trkpt><trkpt lat="39.42095026" lon="-0.33406117"><ele>3.0</ele><time>2022-10-31T12:01:45.0000000+00:00</time></trkpt><trkpt lat="39.42089553" lon="-0.33404566"><ele>3.0</ele><time>2022-10-31T12:01:46.0000000+00:00</time></trkpt><trkpt lat="39.42083971" lon="-0.33402932"><ele>3.0</ele><time>2022-10-31T12:01:47.0000000+00:00</time></trkpt><trkpt lat="39.42078522" lon="-0.33401549"><ele>3.0</ele><time>2022-10-31T12:01:48.0000000+00:00</time></trkpt><trkpt lat="39.42073133" lon="-0.33400426"><ele>3.0</ele><time>2022-10-31T12:01:49.0000000+00:00</time></trkpt><trkpt lat="39.42067903" lon="-0.33399135"><ele>3.2</ele><time>2022-10-31T12:01:50.0000000+00:00</time></trkpt><trkpt lat="39.42063443" lon="-0.33398724"><ele>3.0</ele><time>2022-10-31T12:01:51.0000000+00:00</time></trkpt><trkpt lat="39.42058791" lon="-0.33399059"><ele>2.8</ele><time>2022-10-31T12:01:52.0000000+00:00</time></trkpt><trkpt lat="39.42054106" lon="-0.33400736"><ele>2.8</ele><time>2022-10-31T12:01:53.0000000+00:00</time></trkpt><trkpt lat="39.42049739" lon="-0.33403234"><ele>2.8</ele><time>2022-10-31T12:01:54.0000000+00:00</time></trkpt><trkpt lat="39.42045012" lon="-0.33405589"><ele>2.8</ele><time>2022-10-31T12:01:55.0000000+00:00</time></trkpt><trkpt lat="39.42039756" lon="-0.33407969"><ele>2.8</ele><time>2022-10-31T12:01:56.0000000+00:00</time></trkpt><trkpt lat="39.42034727" lon="-0.33411104"><ele>2.8</ele><time>2022-10-31T12:01:57.0000000+00:00</time></trkpt><trkpt lat="39.42029614" lon="-0.33414021"><ele>2.8</ele><time>2022-10-31T12:01:58.0000000+00:00</time></trkpt><trkpt lat="39.4202456" lon="-0.33417776"><ele>2.6</ele><time>2022-10-31T12:01:59.0000000+00:00</time></trkpt><trkpt lat="39.42019472" lon="-0.33421112"><ele>2.6</ele><time>2022-10-31T12:02:00.0000000+00:00</time></trkpt><trkpt lat="39.42014384" lon="-0.33424079"><ele>2.6</ele><time>2022-10-31T12:02:01.0000000+00:00</time></trkpt><trkpt lat="39.42008978" lon="-0.33426309"><ele>2.6</ele><time>2022-10-31T12:02:02.0000000+00:00</time></trkpt><trkpt lat="39.42003404" lon="-0.33428052"><ele>2.8</ele><time>2022-10-31T12:02:03.0000000+00:00</time></trkpt><trkpt lat="39.41997662" lon="-0.33429025"><ele>2.8</ele><time>2022-10-31T12:02:04.0000000+00:00</time></trkpt><trkpt lat="39.41991401" lon="-0.33429461"><ele>3.0</ele><time>2022-10-31T12:02:05.0000000+00:00</time></trkpt><trkpt lat="39.41985291" lon="-0.33429595"><ele>3.0</ele><time>2022-10-31T12:02:06.0000000+00:00</time></trkpt><trkpt lat="39.41979222" lon="-0.3342972"><ele>3.0</ele><time>2022-10-31T12:02:07.0000000+00:00</time></trkpt><trkpt lat="39.41973363" lon="-0.3343024"><ele>3.0</ele><time>2022-10-31T12:02:08.0000000+00:00</time></trkpt><trkpt lat="39.41967194" lon="-0.33430492"><ele>2.8</ele><time>2022-10-31T12:02:09.0000000+00:00</time></trkpt><trkpt lat="39.41961075" lon="-0.33430601"><ele>2.8</ele><time>2022-10-31T12:02:10.0000000+00:00</time></trkpt><trkpt lat="39.41954906" lon="-0.33430693"><ele>2.6</ele><time>2022-10-31T12:02:11.0000000+00:00</time></trkpt><trkpt lat="39.41948636" lon="-0.33431212"><ele>2.6</ele><time>2022-10-31T12:02:12.0000000+00:00</time></trkpt><trkpt lat="39.41942727" lon="-0.33431774"><ele>2.6</ele><time>2022-10-31T12:02:13.0000000+00:00</time></trkpt><trkpt lat="39.41936776" lon="-0.33431933"><ele>2.6</ele><time>2022-10-31T12:02:14.0000000+00:00</time></trkpt><trkpt lat="39.41930632" lon="-0.33431992"><ele>2.6</ele><time>2022-10-31T12:02:15.0000000+00:00</time></trkpt><trkpt lat="39.41924396" lon="-0.33432009"><ele>2.6</ele><time>2022-10-31T12:02:16.0000000+00:00</time></trkpt><trkpt lat="39.41917925" lon="-0.33432235"><ele>2.6</ele><time>2022-10-31T12:02:17.0000000+00:00</time></trkpt><trkpt lat="39.41911295" lon="-0.33432051"><ele>2.8</ele><time>2022-10-31T12:02:18.0000000+00:00</time></trkpt><trkpt lat="39.41905235" lon="-0.33432093"><ele>2.8</ele><time>2022-10-31T12:02:19.0000000+00:00</time></trkpt><trkpt lat="39.41899108" lon="-0.33432327"><ele>2.8</ele><time>2022-10-31T12:02:20.0000000+00:00</time></trkpt><trkpt lat="39.41892838" lon="-0.33432721"><ele>2.8</ele><time>2022-10-31T12:02:21.0000000+00:00</time></trkpt><trkpt lat="39.4188656" lon="-0.33433023"><ele>2.8</ele><time>2022-10-31T12:02:22.0000000+00:00</time></trkpt><trkpt lat="39.41880299" lon="-0.33433241"><ele>2.8</ele><time>2022-10-31T12:02:23.0000000+00:00</time></trkpt><trkpt lat="39.41874331" lon="-0.33433719"><ele>2.8</ele><time>2022-10-31T12:02:24.0000000+00:00</time></trkpt><trkpt lat="39.41868665" lon="-0.33435286"><ele>2.8</ele><time>2022-10-31T12:02:25.0000000+00:00</time></trkpt><trkpt lat="39.41863124" lon="-0.33438153"><ele>2.8</ele><time>2022-10-31T12:02:26.0000000+00:00</time></trkpt><trkpt lat="39.41857726" lon="-0.33441857"><ele>2.8</ele><time>2022-10-31T12:02:27.0000000+00:00</time></trkpt><trkpt lat="39.41852278" lon="-0.33445529"><ele>2.8</ele><time>2022-10-31T12:02:28.0000000+00:00</time></trkpt><trkpt lat="39.41846645" lon="-0.33448244"><ele>2.8</ele><time>2022-10-31T12:02:29.0000000+00:00</time></trkpt><trkpt lat="39.41840669" lon="-0.33450265"><ele>3.0</ele><time>2022-10-31T12:02:30.0000000+00:00</time></trkpt><trkpt lat="39.4183445" lon="-0.3345153"><ele>3.0</ele><time>2022-10-31T12:02:31.0000000+00:00</time></trkpt><trkpt lat="39.41828088" lon="-0.33451924"><ele>3.0</ele><time>2022-10-31T12:02:32.0000000+00:00</time></trkpt><trkpt lat="39.41821441" lon="-0.3345153"><ele>3.0</ele><time>2022-10-31T12:02:33.0000000+00:00</time></trkpt><trkpt lat="39.41815306" lon="-0.33451648"><ele>3.0</ele><time>2022-10-31T12:02:34.0000000+00:00</time></trkpt><trkpt lat="39.41809011" lon="-0.33451513"><ele>3.0</ele><time>2022-10-31T12:02:35.0000000+00:00</time></trkpt><trkpt lat="39.41802724" lon="-0.33451765"><ele>3.0</ele><time>2022-10-31T12:02:36.0000000+00:00</time></trkpt><trkpt lat="39.41796706" lon="-0.33453684"><ele>3.0</ele><time>2022-10-31T12:02:37.0000000+00:00</time></trkpt><trkpt lat="39.41791132" lon="-0.33456802"><ele>3.2</ele><time>2022-10-31T12:02:38.0000000+00:00</time></trkpt><trkpt lat="39.41785567" lon="-0.33460172"><ele>3.2</ele><time>2022-10-31T12:02:39.0000000+00:00</time></trkpt><trkpt lat="39.41779649" lon="-0.33462108"><ele>3.4</ele><time>2022-10-31T12:02:40.0000000+00:00</time></trkpt><trkpt lat="39.41773413" lon="-0.33462754"><ele>3.4</ele><time>2022-10-31T12:02:41.0000000+00:00</time></trkpt><trkpt lat="39.41766774" lon="-0.33462594"><ele>3.6</ele><time>2022-10-31T12:02:42.0000000+00:00</time></trkpt><trkpt lat="39.41760111" lon="-0.33462041"><ele>3.8</ele><time>2022-10-31T12:02:43.0000000+00:00</time></trkpt><trkpt lat="39.41753347" lon="-0.3346101"><ele>3.8</ele><time>2022-10-31T12:02:44.0000000+00:00</time></trkpt><trkpt lat="39.41746666" lon="-0.33459912"><ele>4.0</ele><time>2022-10-31T12:02:45.0000000+00:00</time></trkpt><trkpt lat="39.41740204" lon="-0.33458194"><ele>4.0</ele><time>2022-10-31T12:02:46.0000000+00:00</time></trkpt><trkpt lat="39.41734965" lon="-0.33455922"><ele>4.0</ele><time>2022-10-31T12:02:47.0000000+00:00</time></trkpt><trkpt lat="39.41728997" lon="-0.33452754"><ele>4.0</ele><time>2022-10-31T12:02:48.0000000+00:00</time></trkpt><trkpt lat="39.4172572" lon="-0.33449896"><ele>4.0</ele><time>2022-10-31T12:02:49.0000000+00:00</time></trkpt><trkpt lat="39.41722007" lon="-0.33445202"><ele>3.8</ele><time>2022-10-31T12:02:50.0000000+00:00</time></trkpt><trkpt lat="39.41718193" lon="-0.33440055"><ele>3.6</ele><time>2022-10-31T12:02:51.0000000+00:00</time></trkpt><trkpt lat="39.41713524" lon="-0.33435605"><ele>3.4</ele><time>2022-10-31T12:02:52.0000000+00:00</time></trkpt><trkpt lat="39.41708126" lon="-0.33432101"><ele>3.4</ele><time>2022-10-31T12:02:53.0000000+00:00</time></trkpt><trkpt lat="39.41701882" lon="-0.33428983"><ele>3.4</ele><time>2022-10-31T12:02:54.0000000+00:00</time></trkpt><trkpt lat="39.41695587" lon="-0.33426049"><ele>3.4</ele><time>2022-10-31T12:02:55.0000000+00:00</time></trkpt><trkpt lat="39.41688823" lon="-0.33423417"><ele>3.4</ele><time>2022-10-31T12:02:56.0000000+00:00</time></trkpt><trkpt lat="39.41682017" lon="-0.33421238"><ele>3.2</ele><time>2022-10-31T12:02:57.0000000+00:00</time></trkpt><trkpt lat="39.41675169" lon="-0.33418908"><ele>3.2</ele><time>2022-10-31T12:02:58.0000000+00:00</time></trkpt><trkpt lat="39.41668304" lon="-0.33415966"><ele>3.2</ele><time>2022-10-31T12:02:59.0000000+00:00</time></trkpt><trkpt lat="39.41661791" lon="-0.33413057"><ele>3.2</ele><time>2022-10-31T12:03:00.0000000+00:00</time></trkpt><trkpt lat="39.41655354" lon="-0.33410551"><ele>3.2</ele><time>2022-10-31T12:03:01.0000000+00:00</time></trkpt><trkpt lat="39.41648883" lon="-0.33408858"><ele>3.2</ele><time>2022-10-31T12:03:02.0000000+00:00</time></trkpt><trkpt lat="39.41642253" lon="-0.33406243"><ele>3.2</ele><time>2022-10-31T12:03:03.0000000+00:00</time></trkpt><trkpt lat="39.41635681" lon="-0.33404424"><ele>3.2</ele><time>2022-10-31T12:03:04.0000000+00:00</time></trkpt><trkpt lat="39.41628557" lon="-0.3340372"><ele>3.2</ele><time>2022-10-31T12:03:05.0000000+00:00</time></trkpt><trkpt lat="39.41621709" lon="-0.33404499"><ele>3.2</ele><time>2022-10-31T12:03:06.0000000+00:00</time></trkpt><trkpt lat="39.41615456" lon="-0.33406427"><ele>3.2</ele><time>2022-10-31T12:03:07.0000000+00:00</time></trkpt><trkpt lat="39.41609144" lon="-0.33408011"><ele>3.4</ele><time>2022-10-31T12:03:08.0000000+00:00</time></trkpt><trkpt lat="39.41602774" lon="-0.33408942"><ele>3.6</ele><time>2022-10-31T12:03:09.0000000+00:00</time></trkpt><trkpt lat="39.41596504" lon="-0.3340833"><ele>3.6</ele><time>2022-10-31T12:03:10.0000000+00:00</time></trkpt><trkpt lat="39.41590168" lon="-0.3340667"><ele>3.6</ele><time>2022-10-31T12:03:11.0000000+00:00</time></trkpt><trkpt lat="39.41583638" lon="-0.33404449"><ele>3.8</ele><time>2022-10-31T12:03:12.0000000+00:00</time></trkpt><trkpt lat="39.41577226" lon="-0.3340211"><ele>3.8</ele><time>2022-10-31T12:03:13.0000000+00:00</time></trkpt><trkpt lat="39.41570931" lon="-0.33400023"><ele>4.0</ele><time>2022-10-31T12:03:14.0000000+00:00</time></trkpt><trkpt lat="39.41564586" lon="-0.33397609"><ele>4.0</ele><time>2022-10-31T12:03:15.0000000+00:00</time></trkpt><trkpt lat="39.41558559" lon="-0.33394718"><ele>4.0</ele><time>2022-10-31T12:03:16.0000000+00:00</time></trkpt><trkpt lat="39.41552885" lon="-0.33390686"><ele>4.0</ele><time>2022-10-31T12:03:17.0000000+00:00</time></trkpt><trkpt lat="39.41547982" lon="-0.33385632"><ele>4.0</ele><time>2022-10-31T12:03:18.0000000+00:00</time></trkpt><trkpt lat="39.41543422" lon="-0.33379966"><ele>3.8</ele><time>2022-10-31T12:03:19.0000000+00:00</time></trkpt><trkpt lat="39.41538292" lon="-0.33374769"><ele>3.6</ele><time>2022-10-31T12:03:20.0000000+00:00</time></trkpt><trkpt lat="39.41532475" lon="-0.33370435"><ele>3.4</ele><time>2022-10-31T12:03:21.0000000+00:00</time></trkpt><trkpt lat="39.41526457" lon="-0.33367175"><ele>3.2</ele><time>2022-10-31T12:03:22.0000000+00:00</time></trkpt><trkpt lat="39.41520061" lon="-0.3336409"><ele>3.2</ele><time>2022-10-31T12:03:23.0000000+00:00</time></trkpt><trkpt lat="39.41513339" lon="-0.33360905"><ele>3.0</ele><time>2022-10-31T12:03:24.0000000+00:00</time></trkpt><trkpt lat="39.41506776" lon="-0.33357879"><ele>3.0</ele><time>2022-10-31T12:03:25.0000000+00:00</time></trkpt><trkpt lat="39.41500213" lon="-0.33354786"><ele>3.0</ele><time>2022-10-31T12:03:26.0000000+00:00</time></trkpt><trkpt lat="39.41493692" lon="-0.33351685"><ele>3.0</ele><time>2022-10-31T12:03:27.0000000+00:00</time></trkpt><trkpt lat="39.41487079" lon="-0.33348391"><ele>3.0</ele><time>2022-10-31T12:03:28.0000000+00:00</time></trkpt><trkpt lat="39.41480633" lon="-0.33344979"><ele>3.0</ele><time>2022-10-31T12:03:29.0000000+00:00</time></trkpt><trkpt lat="39.41474363" lon="-0.33341794"><ele>3.0</ele><time>2022-10-31T12:03:30.0000000+00:00</time></trkpt><trkpt lat="39.41468286" lon="-0.33338601"><ele>3.0</ele><time>2022-10-31T12:03:31.0000000+00:00</time></trkpt><trkpt lat="39.41462008" lon="-0.33335139"><ele>3.0</ele><time>2022-10-31T12:03:32.0000000+00:00</time></trkpt><trkpt lat="39.41455898" lon="-0.33331761"><ele>3.0</ele><time>2022-10-31T12:03:33.0000000+00:00</time></trkpt><trkpt lat="39.41449796" lon="-0.33328534"><ele>3.0</ele><time>2022-10-31T12:03:34.0000000+00:00</time></trkpt><trkpt lat="39.41443753" lon="-0.33325424"><ele>3.0</ele><time>2022-10-31T12:03:35.0000000+00:00</time></trkpt><trkpt lat="39.41437927" lon="-0.33321946"><ele>3.2</ele><time>2022-10-31T12:03:36.0000000+00:00</time></trkpt><trkpt lat="39.41432085" lon="-0.33317613"><ele>3.2</ele><time>2022-10-31T12:03:37.0000000+00:00</time></trkpt><trkpt lat="39.41426125" lon="-0.33313665"><ele>3.2</ele><time>2022-10-31T12:03:38.0000000+00:00</time></trkpt><trkpt lat="39.41419973" lon="-0.33310035"><ele>3.2</ele><time>2022-10-31T12:03:39.0000000+00:00</time></trkpt><trkpt lat="39.41413703" lon="-0.33306733"><ele>3.4</ele><time>2022-10-31T12:03:40.0000000+00:00</time></trkpt><trkpt lat="39.41407392" lon="-0.33303598"><ele>3.4</ele><time>2022-10-31T12:03:41.0000000+00:00</time></trkpt><trkpt lat="39.41400737" lon="-0.33300765"><ele>3.4</ele><time>2022-10-31T12:03:42.0000000+00:00</time></trkpt><trkpt lat="39.41393646" lon="-0.33299348"><ele>3.4</ele><time>2022-10-31T12:03:43.0000000+00:00</time></trkpt><trkpt lat="39.41386605" lon="-0.33298996"><ele>3.2</ele><time>2022-10-31T12:03:44.0000000+00:00</time></trkpt><trkpt lat="39.41379723" lon="-0.33299759"><ele>3.2</ele><time>2022-10-31T12:03:45.0000000+00:00</time></trkpt><trkpt lat="39.41373227" lon="-0.33301243"><ele>3.2</ele><time>2022-10-31T12:03:46.0000000+00:00</time></trkpt><trkpt lat="39.41366907" lon="-0.33302693"><ele>3.0</ele><time>2022-10-31T12:03:47.0000000+00:00</time></trkpt><trkpt lat="39.41360487" lon="-0.33303875"><ele>3.0</ele><time>2022-10-31T12:03:48.0000000+00:00</time></trkpt><trkpt lat="39.41353991" lon="-0.33304797"><ele>2.8</ele><time>2022-10-31T12:03:49.0000000+00:00</time></trkpt><trkpt lat="39.41347671" lon="-0.33306079"><ele>2.6</ele><time>2022-10-31T12:03:50.0000000+00:00</time></trkpt><trkpt lat="39.41341309" lon="-0.33307353"><ele>2.6</ele><time>2022-10-31T12:03:51.0000000+00:00</time></trkpt><trkpt lat="39.41334863" lon="-0.33308283"><ele>2.6</ele><time>2022-10-31T12:03:52.0000000+00:00</time></trkpt><trkpt lat="39.41328459" lon="-0.33309407"><ele>2.6</ele><time>2022-10-31T12:03:53.0000000+00:00</time></trkpt><trkpt lat="39.41322056" lon="-0.33310521"><ele>2.6</ele><time>2022-10-31T12:03:54.0000000+00:00</time></trkpt><trkpt lat="39.41315702" lon="-0.33311737"><ele>2.8</ele><time>2022-10-31T12:03:55.0000000+00:00</time></trkpt><trkpt lat="39.41309533" lon="-0.33314176"><ele>3.0</ele><time>2022-10-31T12:03:56.0000000+00:00</time></trkpt><trkpt lat="39.41303976" lon="-0.33318283"><ele>3.2</ele><time>2022-10-31T12:03:57.0000000+00:00</time></trkpt><trkpt lat="39.41298888" lon="-0.33321401"><ele>3.2</ele><time>2022-10-31T12:03:58.0000000+00:00</time></trkpt><trkpt lat="39.41293281" lon="-0.33322667"><ele>3.2</ele><time>2022-10-31T12:03:59.0000000+00:00</time></trkpt><trkpt lat="39.41287405" lon="-0.33322147"><ele>3.4</ele><time>2022-10-31T12:04:00.0000000+00:00</time></trkpt><trkpt lat="39.41281311" lon="-0.33320722"><ele>3.4</ele><time>2022-10-31T12:04:01.0000000+00:00</time></trkpt><trkpt lat="39.41274966" lon="-0.33319431"><ele>3.2</ele><time>2022-10-31T12:04:02.0000000+00:00</time></trkpt><trkpt lat="39.41268789" lon="-0.33318384"><ele>3.2</ele><time>2022-10-31T12:04:03.0000000+00:00</time></trkpt><trkpt lat="39.41262879" lon="-0.33317344"><ele>3.4</ele><time>2022-10-31T12:04:04.0000000+00:00</time></trkpt><trkpt lat="39.41256853" lon="-0.33316221"><ele>3.4</ele><time>2022-10-31T12:04:05.0000000+00:00</time></trkpt><trkpt lat="39.41250793" lon="-0.33315048"><ele>3.6</ele><time>2022-10-31T12:04:06.0000000+00:00</time></trkpt><trkpt lat="39.41244691" lon="-0.33314134"><ele>3.6</ele><time>2022-10-31T12:04:07.0000000+00:00</time></trkpt><trkpt lat="39.41237843" lon="-0.33313095"><ele>3.4</ele><time>2022-10-31T12:04:08.0000000+00:00</time></trkpt><trkpt lat="39.4123133" lon="-0.33311988"><ele>3.4</ele><time>2022-10-31T12:04:09.0000000+00:00</time></trkpt><trkpt lat="39.41224608" lon="-0.33310647"><ele>3.4</ele><time>2022-10-31T12:04:10.0000000+00:00</time></trkpt><trkpt lat="39.4121807" lon="-0.33309398"><ele>3.4</ele><time>2022-10-31T12:04:11.0000000+00:00</time></trkpt><trkpt lat="39.41211591" lon="-0.33308175"><ele>3.4</ele><time>2022-10-31T12:04:12.0000000+00:00</time></trkpt><trkpt lat="39.41205262" lon="-0.33307236"><ele>3.4</ele><time>2022-10-31T12:04:13.0000000+00:00</time></trkpt><trkpt lat="39.41198817" lon="-0.33306406"><ele>3.4</ele><time>2022-10-31T12:04:14.0000000+00:00</time></trkpt><trkpt lat="39.41192916" lon="-0.3330628"><ele>3.4</ele><time>2022-10-31T12:04:15.0000000+00:00</time></trkpt><trkpt lat="39.41187141" lon="-0.33307529"><ele>3.4</ele><time>2022-10-31T12:04:16.0000000+00:00</time></trkpt><trkpt lat="39.41181139" lon="-0.33309465"><ele>3.4</ele><time>2022-10-31T12:04:17.0000000+00:00</time></trkpt><trkpt lat="39.4117492" lon="-0.33311997"><ele>3.4</ele><time>2022-10-31T12:04:18.0000000+00:00</time></trkpt><trkpt lat="39.41168835" lon="-0.33315098"><ele>3.4</ele><time>2022-10-31T12:04:19.0000000+00:00</time></trkpt><trkpt lat="39.41162942" lon="-0.33319105"><ele>3.4</ele><time>2022-10-31T12:04:20.0000000+00:00</time></trkpt><trkpt lat="39.41157234" lon="-0.33323287"><ele>3.4</ele><time>2022-10-31T12:04:21.0000000+00:00</time></trkpt><trkpt lat="39.41151434" lon="-0.33327076"><ele>3.4</ele><time>2022-10-31T12:04:22.0000000+00:00</time></trkpt><trkpt lat="39.41145089" lon="-0.33329758"><ele>3.6</ele><time>2022-10-31T12:04:23.0000000+00:00</time></trkpt><trkpt lat="39.41138576" lon="-0.33331443"><ele>3.6</ele><time>2022-10-31T12:04:24.0000000+00:00</time></trkpt><trkpt lat="39.41131963" lon="-0.33332323"><ele>3.6</ele><time>2022-10-31T12:04:25.0000000+00:00</time></trkpt><trkpt lat="39.41125299" lon="-0.33331979"><ele>3.6</ele><time>2022-10-31T12:04:26.0000000+00:00</time></trkpt><trkpt lat="39.41118602" lon="-0.3333099"><ele>3.6</ele><time>2022-10-31T12:04:27.0000000+00:00</time></trkpt><trkpt lat="39.41110421" lon="-0.33329473"><ele>3.8</ele><time>2022-10-31T12:04:28.0000000+00:00</time></trkpt><trkpt lat="39.41105006" lon="-0.33328752"><ele>3.8</ele><time>2022-10-31T12:04:29.0000000+00:00</time></trkpt><trkpt lat="39.41098611" lon="-0.33327729"><ele>4.0</ele><time>2022-10-31T12:04:30.0000000+00:00</time></trkpt><trkpt lat="39.41092467" lon="-0.33326673"><ele>4.0</ele><time>2022-10-31T12:04:31.0000000+00:00</time></trkpt><trkpt lat="39.41086055" lon="-0.33324779"><ele>4.0</ele><time>2022-10-31T12:04:32.0000000+00:00</time></trkpt><trkpt lat="39.41079542" lon="-0.33322918"><ele>4.0</ele><time>2022-10-31T12:04:33.0000000+00:00</time></trkpt><trkpt lat="39.41072845" lon="-0.33321376"><ele>4.0</ele><time>2022-10-31T12:04:34.0000000+00:00</time></trkpt><trkpt lat="39.41066374" lon="-0.33319993"><ele>4.0</ele><time>2022-10-31T12:04:35.0000000+00:00</time></trkpt><trkpt lat="39.41059912" lon="-0.3331856"><ele>3.8</ele><time>2022-10-31T12:04:36.0000000+00:00</time></trkpt><trkpt lat="39.41053189" lon="-0.3331711"><ele>3.8</ele><time>2022-10-31T12:04:37.0000000+00:00</time></trkpt><trkpt lat="39.41046593" lon="-0.3331571"><ele>3.8</ele><time>2022-10-31T12:04:38.0000000+00:00</time></trkpt><trkpt lat="39.4104039" lon="-0.33314411"><ele>3.8</ele><time>2022-10-31T12:04:39.0000000+00:00</time></trkpt><trkpt lat="39.41033592" lon="-0.33312852"><ele>3.8</ele><time>2022-10-31T12:04:40.0000000+00:00</time></trkpt><trkpt lat="39.41026937" lon="-0.33311779"><ele>3.8</ele><time>2022-10-31T12:04:41.0000000+00:00</time></trkpt><trkpt lat="39.4101993" lon="-0.33310446"><ele>3.8</ele><time>2022-10-31T12:04:42.0000000+00:00</time></trkpt><trkpt lat="39.41012881" lon="-0.33309113"><ele>3.6</ele><time>2022-10-31T12:04:43.0000000+00:00</time></trkpt><trkpt lat="39.41006167" lon="-0.33307579"><ele>3.6</ele><time>2022-10-31T12:04:44.0000000+00:00</time></trkpt><trkpt lat="39.40999394" lon="-0.33306347"><ele>3.6</ele><time>2022-10-31T12:04:45.0000000+00:00</time></trkpt><trkpt lat="39.40992722" lon="-0.33304998"><ele>3.6</ele><time>2022-10-31T12:04:46.0000000+00:00</time></trkpt><trkpt lat="39.40986017" lon="-0.33303606"><ele>3.6</ele><time>2022-10-31T12:04:47.0000000+00:00</time></trkpt><trkpt lat="39.40979286" lon="-0.33302441"><ele>3.4</ele><time>2022-10-31T12:04:48.0000000+00:00</time></trkpt><trkpt lat="39.40972245" lon="-0.33301025"><ele>3.4</ele><time>2022-10-31T12:04:49.0000000+00:00</time></trkpt><trkpt lat="39.40965431" lon="-0.33299441"><ele>3.4</ele><time>2022-10-31T12:04:50.0000000+00:00</time></trkpt><trkpt lat="39.40958625" lon="-0.33298141"><ele>3.4</ele><time>2022-10-31T12:04:51.0000000+00:00</time></trkpt><trkpt lat="39.40951978" lon="-0.33297144"><ele>3.4</ele><time>2022-10-31T12:04:52.0000000+00:00</time></trkpt><trkpt lat="39.40945147" lon="-0.33296021"><ele>3.6</ele><time>2022-10-31T12:04:53.0000000+00:00</time></trkpt><trkpt lat="39.4093798" lon="-0.3329452"><ele>3.6</ele><time>2022-10-31T12:04:54.0000000+00:00</time></trkpt><trkpt lat="39.40931157" lon="-0.33293238"><ele>3.6</ele><time>2022-10-31T12:04:55.0000000+00:00</time></trkpt><trkpt lat="39.40924318" lon="-0.33292006"><ele>3.8</ele><time>2022-10-31T12:04:56.0000000+00:00</time></trkpt><trkpt lat="39.40917419" lon="-0.33290606"><ele>3.8</ele><time>2022-10-31T12:04:57.0000000+00:00</time></trkpt><trkpt lat="39.40910437" lon="-0.33289106"><ele>3.8</ele><time>2022-10-31T12:04:58.0000000+00:00</time></trkpt><trkpt lat="39.40903463" lon="-0.33287639"><ele>3.6</ele><time>2022-10-31T12:04:59.0000000+00:00</time></trkpt><trkpt lat="39.40896666" lon="-0.3328634"><ele>3.6</ele><time>2022-10-31T12:05:00.0000000+00:00</time></trkpt><trkpt lat="39.40889658" lon="-0.33285367"><ele>3.6</ele><time>2022-10-31T12:05:01.0000000+00:00</time></trkpt><trkpt lat="39.40882852" lon="-0.33284186"><ele>3.6</ele><time>2022-10-31T12:05:02.0000000+00:00</time></trkpt><trkpt lat="39.40876264" lon="-0.33283523"><ele>3.6</ele><time>2022-10-31T12:05:03.0000000+00:00</time></trkpt><trkpt lat="39.40869953" lon="-0.33283146"><ele>3.6</ele><time>2022-10-31T12:05:04.0000000+00:00</time></trkpt><trkpt lat="39.40863046" lon="-0.33282124"><ele>3.4</ele><time>2022-10-31T12:05:05.0000000+00:00</time></trkpt><trkpt lat="39.40856131" lon="-0.33280858"><ele>3.4</ele><time>2022-10-31T12:05:06.0000000+00:00</time></trkpt><trkpt lat="39.40848679" lon="-0.33279316"><ele>3.4</ele><time>2022-10-31T12:05:07.0000000+00:00</time></trkpt><trkpt lat="39.40841706" lon="-0.33277782"><ele>3.4</ele><time>2022-10-31T12:05:08.0000000+00:00</time></trkpt><trkpt lat="39.40834631" lon="-0.33276382"><ele>3.4</ele><time>2022-10-31T12:05:09.0000000+00:00</time></trkpt><trkpt lat="39.40827951" lon="-0.33275502"><ele>3.4</ele><time>2022-10-31T12:05:10.0000000+00:00</time></trkpt><trkpt lat="39.40820868" lon="-0.33274395"><ele>3.4</ele><time>2022-10-31T12:05:11.0000000+00:00</time></trkpt><trkpt lat="39.40813677" lon="-0.33273147"><ele>3.4</ele><time>2022-10-31T12:05:12.0000000+00:00</time></trkpt><trkpt lat="39.40806577" lon="-0.33271604"><ele>3.6</ele><time>2022-10-31T12:05:13.0000000+00:00</time></trkpt><trkpt lat="39.4079983" lon="-0.33270062"><ele>3.8</ele><time>2022-10-31T12:05:14.0000000+00:00</time></trkpt><trkpt lat="39.40793476" lon="-0.33268394"><ele>3.8</ele><time>2022-10-31T12:05:15.0000000+00:00</time></trkpt><trkpt lat="39.4078693" lon="-0.3326707"><ele>3.8</ele><time>2022-10-31T12:05:16.0000000+00:00</time></trkpt><trkpt lat="39.40780384" lon="-0.33265838"><ele>3.8</ele><time>2022-10-31T12:05:17.0000000+00:00</time></trkpt><trkpt lat="39.4077351" lon="-0.33264245"><ele>3.8</ele><time>2022-10-31T12:05:18.0000000+00:00</time></trkpt><trkpt lat="39.40766889" lon="-0.33262879"><ele>3.8</ele><time>2022-10-31T12:05:19.0000000+00:00</time></trkpt><trkpt lat="39.40760384" lon="-0.33261756"><ele>3.8</ele><time>2022-10-31T12:05:20.0000000+00:00</time></trkpt><trkpt lat="39.40753897" lon="-0.33260616"><ele>3.8</ele><time>2022-10-31T12:05:21.0000000+00:00</time></trkpt><trkpt lat="39.40747753" lon="-0.33259484"><ele>3.8</ele><time>2022-10-31T12:05:22.0000000+00:00</time></trkpt><trkpt lat="39.40741668" lon="-0.33258118"><ele>3.6</ele><time>2022-10-31T12:05:23.0000000+00:00</time></trkpt><trkpt lat="39.40736127" lon="-0.33256483"><ele>3.6</ele><time>2022-10-31T12:05:24.0000000+00:00</time></trkpt><trkpt lat="39.40730377" lon="-0.33254832"><ele>3.6</ele><time>2022-10-31T12:05:25.0000000+00:00</time></trkpt><trkpt lat="39.40724619" lon="-0.33253499"><ele>3.6</ele><time>2022-10-31T12:05:26.0000000+00:00</time></trkpt><trkpt lat="39.40718819" lon="-0.33251915"><ele>3.6</ele><time>2022-10-31T12:05:27.0000000+00:00</time></trkpt><trkpt lat="39.40712943" lon="-0.33250172"><ele>3.6</ele><time>2022-10-31T12:05:28.0000000+00:00</time></trkpt><trkpt lat="39.40706489" lon="-0.33248152"><ele>3.6</ele><time>2022-10-31T12:05:29.0000000+00:00</time></trkpt><trkpt lat="39.4069975" lon="-0.33246308"><ele>3.6</ele><time>2022-10-31T12:05:30.0000000+00:00</time></trkpt><trkpt lat="39.40693094" lon="-0.332449"><ele>3.8</ele><time>2022-10-31T12:05:31.0000000+00:00</time></trkpt><trkpt lat="39.40686481" lon="-0.33243366"><ele>3.8</ele><time>2022-10-31T12:05:32.0000000+00:00</time></trkpt><trkpt lat="39.40679792" lon="-0.33242192"><ele>3.8</ele><time>2022-10-31T12:05:33.0000000+00:00</time></trkpt><trkpt lat="39.40672869" lon="-0.33240885"><ele>4.0</ele><time>2022-10-31T12:05:34.0000000+00:00</time></trkpt><trkpt lat="39.40666013" lon="-0.33239694"><ele>4.0</ele><time>2022-10-31T12:05:35.0000000+00:00</time></trkpt><trkpt lat="39.40659123" lon="-0.3323842"><ele>4.0</ele><time>2022-10-31T12:05:36.0000000+00:00</time></trkpt><trkpt lat="39.4065214" lon="-0.33237364"><ele>4.0</ele><time>2022-10-31T12:05:37.0000000+00:00</time></trkpt><trkpt lat="39.40645267" lon="-0.33236618"><ele>4.0</ele><time>2022-10-31T12:05:38.0000000+00:00</time></trkpt><trkpt lat="39.40638511" lon="-0.33235654"><ele>4.0</ele><time>2022-10-31T12:05:39.0000000+00:00</time></trkpt><trkpt lat="39.40631974" lon="-0.33234774"><ele>4.0</ele><time>2022-10-31T12:05:40.0000000+00:00</time></trkpt><trkpt lat="39.40625042" lon="-0.3323397"><ele>4.0</ele><time>2022-10-31T12:05:41.0000000+00:00</time></trkpt><trkpt lat="39.40618051" lon="-0.3323298"><ele>4.0</ele><time>2022-10-31T12:05:42.0000000+00:00</time></trkpt><trkpt lat="39.40610985" lon="-0.33231882"><ele>4.0</ele><time>2022-10-31T12:05:43.0000000+00:00</time></trkpt><trkpt lat="39.40604297" lon="-0.33230483"><ele>3.6</ele><time>2022-10-31T12:05:44.0000000+00:00</time></trkpt><trkpt lat="39.40597524" lon="-0.33229829"><ele>3.6</ele><time>2022-10-31T12:05:45.0000000+00:00</time></trkpt><trkpt lat="39.40590659" lon="-0.33229133"><ele>3.4</ele><time>2022-10-31T12:05:46.0000000+00:00</time></trkpt><trkpt lat="39.4058387" lon="-0.33228722"><ele>3.6</ele><time>2022-10-31T12:05:47.0000000+00:00</time></trkpt><trkpt lat="39.40577022" lon="-0.33228546"><ele>3.8</ele><time>2022-10-31T12:05:48.0000000+00:00</time></trkpt><trkpt lat="39.40570048" lon="-0.33228396"><ele>4.0</ele><time>2022-10-31T12:05:49.0000000+00:00</time></trkpt><trkpt lat="39.40562949" lon="-0.33228312"><ele>4.0</ele><time>2022-10-31T12:05:50.0000000+00:00</time></trkpt><trkpt lat="39.40556025" lon="-0.33228463"><ele>4.0</ele><time>2022-10-31T12:05:51.0000000+00:00</time></trkpt><trkpt lat="39.40549412" lon="-0.33228689"><ele>4.0</ele><time>2022-10-31T12:05:52.0000000+00:00</time></trkpt><trkpt lat="39.40542664" lon="-0.33228639"><ele>4.0</ele><time>2022-10-31T12:05:53.0000000+00:00</time></trkpt><trkpt lat="39.40535733" lon="-0.33228429"><ele>4.0</ele><time>2022-10-31T12:05:54.0000000+00:00</time></trkpt><trkpt lat="39.40528759" lon="-0.33228429"><ele>4.0</ele><time>2022-10-31T12:05:55.0000000+00:00</time></trkpt><trkpt lat="39.40521777" lon="-0.3322863"><ele>4.0</ele><time>2022-10-31T12:05:56.0000000+00:00</time></trkpt><trkpt lat="39.40515071" lon="-0.33228966"><ele>4.0</ele><time>2022-10-31T12:05:57.0000000+00:00</time></trkpt><trkpt lat="39.40508064" lon="-0.33228379"><ele>4.0</ele><time>2022-10-31T12:05:58.0000000+00:00</time></trkpt><trkpt lat="39.40500872" lon="-0.33228077"><ele>3.8</ele><time>2022-10-31T12:05:59.0000000+00:00</time></trkpt><trkpt lat="39.40493823" lon="-0.33227683"><ele>3.8</ele><time>2022-10-31T12:06:00.0000000+00:00</time></trkpt><trkpt lat="39.40486481" lon="-0.33227339"><ele>3.8</ele><time>2022-10-31T12:06:01.0000000+00:00</time></trkpt><trkpt lat="39.40479155" lon="-0.33227105"><ele>3.8</ele><time>2022-10-31T12:06:02.0000000+00:00</time></trkpt><trkpt lat="39.40471896" lon="-0.3322708"><ele>3.8</ele><time>2022-10-31T12:06:03.0000000+00:00</time></trkpt><trkpt lat="39.40464872" lon="-0.33226443"><ele>3.6</ele><time>2022-10-31T12:06:04.0000000+00:00</time></trkpt><trkpt lat="39.4045794" lon="-0.33225738"><ele>3.6</ele><time>2022-10-31T12:06:05.0000000+00:00</time></trkpt><trkpt lat="39.40450933" lon="-0.33225034"><ele>3.6</ele><time>2022-10-31T12:06:06.0000000+00:00</time></trkpt><trkpt lat="39.40443909" lon="-0.33224858"><ele>3.4</ele><time>2022-10-31T12:06:07.0000000+00:00</time></trkpt><trkpt lat="39.40437027" lon="-0.33224515"><ele>3.4</ele><time>2022-10-31T12:06:08.0000000+00:00</time></trkpt><trkpt lat="39.40430313" lon="-0.3322428"><ele>3.4</ele><time>2022-10-31T12:06:09.0000000+00:00</time></trkpt><trkpt lat="39.40423776" lon="-0.33223894"><ele>3.4</ele><time>2022-10-31T12:06:10.0000000+00:00</time></trkpt><trkpt lat="39.40417062" lon="-0.33223475"><ele>3.4</ele><time>2022-10-31T12:06:11.0000000+00:00</time></trkpt><trkpt lat="39.40410415" lon="-0.33223056"><ele>3.4</ele><time>2022-10-31T12:06:12.0000000+00:00</time></trkpt><trkpt lat="39.40403936" lon="-0.33222889"><ele>3.4</ele><time>2022-10-31T12:06:13.0000000+00:00</time></trkpt><trkpt lat="39.40397481" lon="-0.33221824"><ele>3.4</ele><time>2022-10-31T12:06:14.0000000+00:00</time></trkpt><trkpt lat="39.40390868" lon="-0.33220282"><ele>3.2</ele><time>2022-10-31T12:06:15.0000000+00:00</time></trkpt><trkpt lat="39.40384456" lon="-0.33218321"><ele>3.2</ele><time>2022-10-31T12:06:16.0000000+00:00</time></trkpt><trkpt lat="39.40378304" lon="-0.33216393"><ele>3.2</ele><time>2022-10-31T12:06:17.0000000+00:00</time></trkpt><trkpt lat="39.4037247" lon="-0.33213601"><ele>3.2</ele><time>2022-10-31T12:06:18.0000000+00:00</time></trkpt><trkpt lat="39.40365915" lon="-0.33210467"><ele>3.2</ele><time>2022-10-31T12:06:19.0000000+00:00</time></trkpt><trkpt lat="39.4035978" lon="-0.33207248"><ele>3.2</ele><time>2022-10-31T12:06:20.0000000+00:00</time></trkpt><trkpt lat="39.4035356" lon="-0.33204013"><ele>3.2</ele><time>2022-10-31T12:06:21.0000000+00:00</time></trkpt><trkpt lat="39.40347618" lon="-0.33200677"><ele>3.2</ele><time>2022-10-31T12:06:22.0000000+00:00</time></trkpt><trkpt lat="39.40341549" lon="-0.33196888"><ele>3.2</ele><time>2022-10-31T12:06:23.0000000+00:00</time></trkpt><trkpt lat="39.40335472" lon="-0.3319258"><ele>3.4</ele><time>2022-10-31T12:06:24.0000000+00:00</time></trkpt><trkpt lat="39.40329664" lon="-0.33187819"><ele>3.4</ele><time>2022-10-31T12:06:25.0000000+00:00</time></trkpt><trkpt lat="39.40323863" lon="-0.33182697"><ele>3.6</ele><time>2022-10-31T12:06:26.0000000+00:00</time></trkpt><trkpt lat="39.40318189" lon="-0.33176964"><ele>3.6</ele><time>2022-10-31T12:06:27.0000000+00:00</time></trkpt><trkpt lat="39.40312757" lon="-0.33171432"><ele>3.6</ele><time>2022-10-31T12:06:28.0000000+00:00</time></trkpt><trkpt lat="39.40307527" lon="-0.33165908"><ele>3.6</ele><time>2022-10-31T12:06:29.0000000+00:00</time></trkpt><trkpt lat="39.40301132" lon="-0.33159454"><ele>3.6</ele><time>2022-10-31T12:06:30.0000000+00:00</time></trkpt><trkpt lat="39.40296605" lon="-0.33155339"><ele>3.6</ele><time>2022-10-31T12:06:31.0000000+00:00</time></trkpt><trkpt lat="39.40290981" lon="-0.33150687"><ele>3.6</ele><time>2022-10-31T12:06:32.0000000+00:00</time></trkpt><trkpt lat="39.40285508" lon="-0.33146471"><ele>3.6</ele><time>2022-10-31T12:06:33.0000000+00:00</time></trkpt><trkpt lat="39.40279992" lon="-0.33142531"><ele>3.6</ele><time>2022-10-31T12:06:34.0000000+00:00</time></trkpt><trkpt lat="39.40274477" lon="-0.33139145"><ele>3.6</ele><time>2022-10-31T12:06:35.0000000+00:00</time></trkpt><trkpt lat="39.40268979" lon="-0.33136396"><ele>3.6</ele><time>2022-10-31T12:06:36.0000000+00:00</time></trkpt><trkpt lat="39.40263539" lon="-0.33133915"><ele>3.4</ele><time>2022-10-31T12:06:37.0000000+00:00</time></trkpt><trkpt lat="39.40258375" lon="-0.33131962"><ele>3.4</ele><time>2022-10-31T12:06:38.0000000+00:00</time></trkpt><trkpt lat="39.40253531" lon="-0.33130453"><ele>3.4</ele><time>2022-10-31T12:06:39.0000000+00:00</time></trkpt><trkpt lat="39.40248879" lon="-0.33128978"><ele>3.4</ele><time>2022-10-31T12:06:40.0000000+00:00</time></trkpt><trkpt lat="39.40244277" lon="-0.33127477"><ele>3.4</ele><time>2022-10-31T12:06:41.0000000+00:00</time></trkpt><trkpt lat="39.40239022" lon="-0.33125575"><ele>3.4</ele><time>2022-10-31T12:06:42.0000000+00:00</time></trkpt><trkpt lat="39.40233112" lon="-0.33123412"><ele>3.4</ele><time>2022-10-31T12:06:43.0000000+00:00</time></trkpt><trkpt lat="39.4022727" lon="-0.33121476"><ele>3.4</ele><time>2022-10-31T12:06:44.0000000+00:00</time></trkpt><trkpt lat="39.4022012" lon="-0.33118836"><ele>3.4</ele><time>2022-10-31T12:06:45.0000000+00:00</time></trkpt><trkpt lat="39.40214111" lon="-0.33116497"><ele>3.4</ele><time>2022-10-31T12:06:46.0000000+00:00</time></trkpt><trkpt lat="39.40208419" lon="-0.33114603"><ele>3.6</ele><time>2022-10-31T12:06:47.0000000+00:00</time></trkpt><trkpt lat="39.40203952" lon="-0.33113094"><ele>3.6</ele><time>2022-10-31T12:06:48.0000000+00:00</time></trkpt><trkpt lat="39.40198269" lon="-0.33111133"><ele>3.6</ele><time>2022-10-31T12:06:49.0000000+00:00</time></trkpt><trkpt lat="39.40192544" lon="-0.33108861"><ele>3.6</ele><time>2022-10-31T12:06:50.0000000+00:00</time></trkpt><trkpt lat="39.4018676" lon="-0.33106682"><ele>3.6</ele><time>2022-10-31T12:06:51.0000000+00:00</time></trkpt><trkpt lat="39.4018086" lon="-0.33104226"><ele>3.6</ele><time>2022-10-31T12:06:52.0000000+00:00</time></trkpt><trkpt lat="39.40174473" lon="-0.33101527"><ele>3.6</ele><time>2022-10-31T12:06:53.0000000+00:00</time></trkpt><trkpt lat="39.40166619" lon="-0.33098736"><ele>3.6</ele><time>2022-10-31T12:06:54.0000000+00:00</time></trkpt><trkpt lat="39.40161187" lon="-0.33097328"><ele>3.6</ele><time>2022-10-31T12:06:55.0000000+00:00</time></trkpt><trkpt lat="39.40154851" lon="-0.33095894"><ele>3.6</ele><time>2022-10-31T12:06:56.0000000+00:00</time></trkpt><trkpt lat="39.40148606" lon="-0.33094076"><ele>3.6</ele><time>2022-10-31T12:06:57.0000000+00:00</time></trkpt><trkpt lat="39.40142118" lon="-0.33092659"><ele>3.6</ele><time>2022-10-31T12:06:58.0000000+00:00</time></trkpt><trkpt lat="39.40135572" lon="-0.33093447"><ele>3.4</ele><time>2022-10-31T12:06:59.0000000+00:00</time></trkpt><trkpt lat="39.40129453" lon="-0.33096825"><ele>3.4</ele><time>2022-10-31T12:07:00.0000000+00:00</time></trkpt><trkpt lat="39.40123636" lon="-0.33101318"><ele>3.2</ele><time>2022-10-31T12:07:01.0000000+00:00</time></trkpt><trkpt lat="39.40117484" lon="-0.33105182"><ele>3.0</ele><time>2022-10-31T12:07:02.0000000+00:00</time></trkpt><trkpt lat="39.40110636" lon="-0.33107386"><ele>2.6</ele><time>2022-10-31T12:07:03.0000000+00:00</time></trkpt><trkpt lat="39.40103486" lon="-0.33108316"><ele>2.6</ele><time>2022-10-31T12:07:04.0000000+00:00</time></trkpt><trkpt lat="39.40096152" lon="-0.33107696"><ele>2.4</ele><time>2022-10-31T12:07:05.0000000+00:00</time></trkpt><trkpt lat="39.40088592" lon="-0.33105467"><ele>2.4</ele><time>2022-10-31T12:07:06.0000000+00:00</time></trkpt><trkpt lat="39.40081157" lon="-0.33102424"><ele>2.4</ele><time>2022-10-31T12:07:07.0000000+00:00</time></trkpt><trkpt lat="39.40073915" lon="-0.33099163"><ele>2.4</ele><time>2022-10-31T12:07:08.0000000+00:00</time></trkpt><trkpt lat="39.40066874" lon="-0.3309659"><ele>2.4</ele><time>2022-10-31T12:07:09.0000000+00:00</time></trkpt><trkpt lat="39.40060018" lon="-0.33094562"><ele>2.4</ele><time>2022-10-31T12:07:10.0000000+00:00</time></trkpt><trkpt lat="39.40053572" lon="-0.33092634"><ele>2.6</ele><time>2022-10-31T12:07:11.0000000+00:00</time></trkpt><trkpt lat="39.40047068" lon="-0.33091008"><ele>2.6</ele><time>2022-10-31T12:07:12.0000000+00:00</time></trkpt><trkpt lat="39.4004079" lon="-0.33089315"><ele>2.6</ele><time>2022-10-31T12:07:13.0000000+00:00</time></trkpt><trkpt lat="39.40035082" lon="-0.33087437"><ele>2.6</ele><time>2022-10-31T12:07:14.0000000+00:00</time></trkpt><trkpt lat="39.40029231" lon="-0.33085811"><ele>2.6</ele><time>2022-10-31T12:07:15.0000000+00:00</time></trkpt><trkpt lat="39.40023397" lon="-0.33084135"><ele>2.6</ele><time>2022-10-31T12:07:16.0000000+00:00</time></trkpt><trkpt lat="39.40017723" lon="-0.33082408"><ele>2.4</ele><time>2022-10-31T12:07:17.0000000+00:00</time></trkpt><trkpt lat="39.40012341" lon="-0.33080656"><ele>2.4</ele><time>2022-10-31T12:07:18.0000000+00:00</time></trkpt><trkpt lat="39.40006927" lon="-0.33079055"><ele>2.2</ele><time>2022-10-31T12:07:19.0000000+00:00</time></trkpt><trkpt lat="39.40001529" lon="-0.33077555"><ele>2.2</ele><time>2022-10-31T12:07:20.0000000+00:00</time></trkpt><trkpt lat="39.39996055" lon="-0.33076189"><ele>2.2</ele><time>2022-10-31T12:07:21.0000000+00:00</time></trkpt><trkpt lat="39.39990398" lon="-0.33074755"><ele>2.2</ele><time>2022-10-31T12:07:22.0000000+00:00</time></trkpt><trkpt lat="39.39984673" lon="-0.33073179"><ele>2.2</ele><time>2022-10-31T12:07:23.0000000+00:00</time></trkpt><trkpt lat="39.39978755" lon="-0.3307121"><ele>2.0</ele><time>2022-10-31T12:07:24.0000000+00:00</time></trkpt><trkpt lat="39.39973156" lon="-0.3306955"><ele>2.2</ele><time>2022-10-31T12:07:25.0000000+00:00</time></trkpt><trkpt lat="39.39967381" lon="-0.3306789"><ele>2.2</ele><time>2022-10-31T12:07:26.0000000+00:00</time></trkpt><trkpt lat="39.39961522" lon="-0.33066348"><ele>2.2</ele><time>2022-10-31T12:07:27.0000000+00:00</time></trkpt><trkpt lat="39.39955546" lon="-0.33064739"><ele>2.2</ele><time>2022-10-31T12:07:28.0000000+00:00</time></trkpt><trkpt lat="39.39949519" lon="-0.33062928"><ele>2.2</ele><time>2022-10-31T12:07:29.0000000+00:00</time></trkpt><trkpt lat="39.39943501" lon="-0.33061143"><ele>2.2</ele><time>2022-10-31T12:07:30.0000000+00:00</time></trkpt><trkpt lat="39.39937483" lon="-0.33059559"><ele>2.2</ele><time>2022-10-31T12:07:31.0000000+00:00</time></trkpt><trkpt lat="39.39931473" lon="-0.33057723"><ele>2.2</ele><time>2022-10-31T12:07:32.0000000+00:00</time></trkpt><trkpt lat="39.39925438" lon="-0.33056047"><ele>2.2</ele><time>2022-10-31T12:07:33.0000000+00:00</time></trkpt><trkpt lat="39.39919403" lon="-0.33054337"><ele>2.2</ele><time>2022-10-31T12:07:34.0000000+00:00</time></trkpt><trkpt lat="39.39913276" lon="-0.33052594"><ele>2.2</ele><time>2022-10-31T12:07:35.0000000+00:00</time></trkpt><trkpt lat="39.39907232" lon="-0.33050775"><ele>2.4</ele><time>2022-10-31T12:07:36.0000000+00:00</time></trkpt><trkpt lat="39.39900929" lon="-0.33048931"><ele>2.4</ele><time>2022-10-31T12:07:37.0000000+00:00</time></trkpt><trkpt lat="39.39895045" lon="-0.33047338"><ele>2.4</ele><time>2022-10-31T12:07:38.0000000+00:00</time></trkpt><trkpt lat="39.39889102" lon="-0.33045695"><ele>2.4</ele><time>2022-10-31T12:07:39.0000000+00:00</time></trkpt><trkpt lat="39.39882883" lon="-0.33044673"><ele>2.4</ele><time>2022-10-31T12:07:40.0000000+00:00</time></trkpt><trkpt lat="39.39876446" lon="-0.33043583"><ele>2.2</ele><time>2022-10-31T12:07:41.0000000+00:00</time></trkpt><trkpt lat="39.39870134" lon="-0.33041689"><ele>2.2</ele><time>2022-10-31T12:07:42.0000000+00:00</time></trkpt><trkpt lat="39.3986389" lon="-0.33038981"><ele>2.4</ele><time>2022-10-31T12:07:43.0000000+00:00</time></trkpt><trkpt lat="39.39858131" lon="-0.3303557"><ele>2.4</ele><time>2022-10-31T12:07:44.0000000+00:00</time></trkpt><trkpt lat="39.39852582" lon="-0.33031781"><ele>2.4</ele><time>2022-10-31T12:07:45.0000000+00:00</time></trkpt><trkpt lat="39.39846883" lon="-0.33027766"><ele>2.4</ele><time>2022-10-31T12:07:46.0000000+00:00</time></trkpt><trkpt lat="39.3984125" lon="-0.33024581"><ele>2.6</ele><time>2022-10-31T12:07:47.0000000+00:00</time></trkpt><trkpt lat="39.39835701" lon="-0.33022586"><ele>2.6</ele><time>2022-10-31T12:07:48.0000000+00:00</time></trkpt><trkpt lat="39.39830085" lon="-0.33021522"><ele>2.8</ele><time>2022-10-31T12:07:49.0000000+00:00</time></trkpt><trkpt lat="39.39824159" lon="-0.33021136"><ele>2.8</ele><time>2022-10-31T12:07:50.0000000+00:00</time></trkpt><trkpt lat="39.39818049" lon="-0.33020868"><ele>2.8</ele><time>2022-10-31T12:07:51.0000000+00:00</time></trkpt><trkpt lat="39.39811679" lon="-0.33020373"><ele>2.6</ele><time>2022-10-31T12:07:52.0000000+00:00</time></trkpt><trkpt lat="39.39805191" lon="-0.33019887"><ele>2.6</ele><time>2022-10-31T12:07:53.0000000+00:00</time></trkpt><trkpt lat="39.39798972" lon="-0.33019468"><ele>2.4</ele><time>2022-10-31T12:07:54.0000000+00:00</time></trkpt><trkpt lat="39.3979292" lon="-0.33018949"><ele>2.4</ele><time>2022-10-31T12:07:55.0000000+00:00</time></trkpt><trkpt lat="39.39786986" lon="-0.33018337"><ele>2.4</ele><time>2022-10-31T12:07:56.0000000+00:00</time></trkpt><trkpt lat="39.39780716" lon="-0.33017934"><ele>2.2</ele><time>2022-10-31T12:07:57.0000000+00:00</time></trkpt><trkpt lat="39.39774103" lon="-0.33018597"><ele>2.2</ele><time>2022-10-31T12:07:58.0000000+00:00</time></trkpt><trkpt lat="39.39767288" lon="-0.33020306"><ele>2.0</ele><time>2022-10-31T12:07:59.0000000+00:00</time></trkpt><trkpt lat="39.39760926" lon="-0.33021983"><ele>2.0</ele><time>2022-10-31T12:08:00.0000000+00:00</time></trkpt><trkpt lat="39.39754497" lon="-0.33022502"><ele>2.0</ele><time>2022-10-31T12:08:01.0000000+00:00</time></trkpt><trkpt lat="39.39748152" lon="-0.33021706"><ele>2.0</ele><time>2022-10-31T12:08:02.0000000+00:00</time></trkpt><trkpt lat="39.39741757" lon="-0.33019485"><ele>2.0</ele><time>2022-10-31T12:08:03.0000000+00:00</time></trkpt><trkpt lat="39.39735353" lon="-0.33016652"><ele>2.2</ele><time>2022-10-31T12:08:04.0000000+00:00</time></trkpt><trkpt lat="39.39729217" lon="-0.33013836"><ele>2.2</ele><time>2022-10-31T12:08:05.0000000+00:00</time></trkpt><trkpt lat="39.39722654" lon="-0.33011044"><ele>2.2</ele><time>2022-10-31T12:08:06.0000000+00:00</time></trkpt><trkpt lat="39.39716318" lon="-0.33008538"><ele>2.4</ele><time>2022-10-31T12:08:07.0000000+00:00</time></trkpt><trkpt lat="39.39710459" lon="-0.33005345"><ele>2.4</ele><time>2022-10-31T12:08:08.0000000+00:00</time></trkpt><trkpt lat="39.3970553" lon="-0.33001095"><ele>2.6</ele><time>2022-10-31T12:08:09.0000000+00:00</time></trkpt><trkpt lat="39.39701431" lon="-0.32995312"><ele>2.6</ele><time>2022-10-31T12:08:10.0000000+00:00</time></trkpt><trkpt lat="39.39698104" lon="-0.32988547"><ele>2.6</ele><time>2022-10-31T12:08:11.0000000+00:00</time></trkpt><trkpt lat="39.3969574" lon="-0.32980719"><ele>2.6</ele><time>2022-10-31T12:08:12.0000000+00:00</time></trkpt><trkpt lat="39.39694399" lon="-0.3297237"><ele>2.6</ele><time>2022-10-31T12:08:13.0000000+00:00</time></trkpt><trkpt lat="39.39693963" lon="-0.32963829"><ele>2.6</ele><time>2022-10-31T12:08:14.0000000+00:00</time></trkpt><trkpt lat="39.39693879" lon="-0.32955196"><ele>2.6</ele><time>2022-10-31T12:08:15.0000000+00:00</time></trkpt><trkpt lat="39.3969336" lon="-0.32946185"><ele>2.6</ele><time>2022-10-31T12:08:16.0000000+00:00</time></trkpt><trkpt lat="39.39692169" lon="-0.32937443"><ele>2.6</ele><time>2022-10-31T12:08:17.0000000+00:00</time></trkpt><trkpt lat="39.39690191" lon="-0.32929648"><ele>2.6</ele><time>2022-10-31T12:08:18.0000000+00:00</time></trkpt><trkpt lat="39.39686897" lon="-0.32923345"><ele>2.4</ele><time>2022-10-31T12:08:19.0000000+00:00</time></trkpt><trkpt lat="39.39682262" lon="-0.32918877"><ele>2.4</ele><time>2022-10-31T12:08:20.0000000+00:00</time></trkpt><trkpt lat="39.39677878" lon="-0.32916622"><ele>2.4</ele><time>2022-10-31T12:08:21.0000000+00:00</time></trkpt><trkpt lat="39.39672028" lon="-0.32914896"><ele>2.2</ele><time>2022-10-31T12:08:22.0000000+00:00</time></trkpt><trkpt lat="39.39666077" lon="-0.32913613"><ele>2.2</ele><time>2022-10-31T12:08:23.0000000+00:00</time></trkpt><trkpt lat="39.39658692" lon="-0.32911769"><ele>2.2</ele><time>2022-10-31T12:08:24.0000000+00:00</time></trkpt><trkpt lat="39.39653755" lon="-0.32910445"><ele>2.2</ele><time>2022-10-31T12:08:25.0000000+00:00</time></trkpt><trkpt lat="39.39647829" lon="-0.32909095"><ele>2.2</ele><time>2022-10-31T12:08:26.0000000+00:00</time></trkpt><trkpt lat="39.39640621" lon="-0.32907461"><ele>2.2</ele><time>2022-10-31T12:08:27.0000000+00:00</time></trkpt><trkpt lat="39.3963467" lon="-0.32906195"><ele>2.2</ele><time>2022-10-31T12:08:28.0000000+00:00</time></trkpt><trkpt lat="39.39630068" lon="-0.32904234"><ele>2.2</ele><time>2022-10-31T12:08:29.0000000+00:00</time></trkpt><trkpt lat="39.39624284" lon="-0.32899934"><ele>2.2</ele><time>2022-10-31T12:08:30.0000000+00:00</time></trkpt><trkpt lat="39.3962063" lon="-0.32894544"><ele>2.2</ele><time>2022-10-31T12:08:31.0000000+00:00</time></trkpt><trkpt lat="39.39618275" lon="-0.32887898"><ele>2.2</ele><time>2022-10-31T12:08:32.0000000+00:00</time></trkpt><trkpt lat="39.39616565" lon="-0.32881075"><ele>2.4</ele><time>2022-10-31T12:08:33.0000000+00:00</time></trkpt><trkpt lat="39.39614737" lon="-0.32874813"><ele>2.6</ele><time>2022-10-31T12:08:34.0000000+00:00</time></trkpt><trkpt lat="39.39612206" lon="-0.32869298"><ele>2.6</ele><time>2022-10-31T12:08:35.0000000+00:00</time></trkpt><trkpt lat="39.39608837" lon="-0.32865635"><ele>2.8</ele><time>2022-10-31T12:08:36.0000000+00:00</time></trkpt><trkpt lat="39.39604989" lon="-0.32863531"><ele>2.8</ele><time>2022-10-31T12:08:37.0000000+00:00</time></trkpt><trkpt lat="39.39601083" lon="-0.32862852"><ele>2.8</ele><time>2022-10-31T12:08:38.0000000+00:00</time></trkpt><trkpt lat="39.39596708" lon="-0.3286266"><ele>2.8</ele><time>2022-10-31T12:08:39.0000000+00:00</time></trkpt><trkpt lat="39.39592509" lon="-0.32862593"><ele>2.6</ele><time>2022-10-31T12:08:40.0000000+00:00</time></trkpt><trkpt lat="39.39588611" lon="-0.32862593"><ele>2.6</ele><time>2022-10-31T12:08:41.0000000+00:00</time></trkpt><trkpt lat="39.39584546" lon="-0.32862475"><ele>2.6</ele><time>2022-10-31T12:08:42.0000000+00:00</time></trkpt><trkpt lat="39.39580573" lon="-0.32862324"><ele>2.6</ele><time>2022-10-31T12:08:43.0000000+00:00</time></trkpt><trkpt lat="39.39576675" lon="-0.32861712"><ele>2.6</ele><time>2022-10-31T12:08:44.0000000+00:00</time></trkpt><trkpt lat="39.39572811" lon="-0.32861201"><ele>2.6</ele><time>2022-10-31T12:08:45.0000000+00:00</time></trkpt><trkpt lat="39.39568654" lon="-0.32861075"><ele>2.6</ele><time>2022-10-31T12:08:46.0000000+00:00</time></trkpt><trkpt lat="39.39564371" lon="-0.32860774"><ele>2.6</ele><time>2022-10-31T12:08:47.0000000+00:00</time></trkpt><trkpt lat="39.3955992" lon="-0.32860279"><ele>2.6</ele><time>2022-10-31T12:08:48.0000000+00:00</time></trkpt><trkpt lat="39.39555218" lon="-0.32859734"><ele>2.8</ele><time>2022-10-31T12:08:49.0000000+00:00</time></trkpt><trkpt lat="39.39550373" lon="-0.32859349"><ele>2.8</ele><time>2022-10-31T12:08:50.0000000+00:00</time></trkpt><trkpt lat="39.3954536" lon="-0.32858888"><ele>2.8</ele><time>2022-10-31T12:08:51.0000000+00:00</time></trkpt><trkpt lat="39.39540206" lon="-0.32858351"><ele>2.8</ele><time>2022-10-31T12:08:52.0000000+00:00</time></trkpt><trkpt lat="39.39535034" lon="-0.32857739"><ele>2.8</ele><time>2022-10-31T12:08:53.0000000+00:00</time></trkpt><trkpt lat="39.39529619" lon="-0.32856977"><ele>2.8</ele><time>2022-10-31T12:08:54.0000000+00:00</time></trkpt><trkpt lat="39.39524087" lon="-0.32855921"><ele>2.8</ele><time>2022-10-31T12:08:55.0000000+00:00</time></trkpt><trkpt lat="39.3951832" lon="-0.32854755"><ele>2.8</ele><time>2022-10-31T12:08:56.0000000+00:00</time></trkpt><trkpt lat="39.39512386" lon="-0.32853465"><ele>2.8</ele><time>2022-10-31T12:08:57.0000000+00:00</time></trkpt><trkpt lat="39.3950641" lon="-0.3285245"><ele>2.8</ele><time>2022-10-31T12:08:58.0000000+00:00</time></trkpt><trkpt lat="39.39500324" lon="-0.32852258"><ele>2.8</ele><time>2022-10-31T12:08:59.0000000+00:00</time></trkpt><trkpt lat="39.3949439" lon="-0.32852861"><ele>2.8</ele><time>2022-10-31T12:09:00.0000000+00:00</time></trkpt><trkpt lat="39.39488447" lon="-0.32854118"><ele>2.8</ele><time>2022-10-31T12:09:01.0000000+00:00</time></trkpt><trkpt lat="39.39482295" lon="-0.32855418"><ele>2.8</ele><time>2022-10-31T12:09:02.0000000+00:00</time></trkpt><trkpt lat="39.39476218" lon="-0.32856734"><ele>2.8</ele><time>2022-10-31T12:09:03.0000000+00:00</time></trkpt><trkpt lat="39.39469756" lon="-0.3285732"><ele>2.8</ele><time>2022-10-31T12:09:04.0000000+00:00</time></trkpt><trkpt lat="39.39463109" lon="-0.32857597"><ele>2.8</ele><time>2022-10-31T12:09:05.0000000+00:00</time></trkpt><trkpt lat="39.39456462" lon="-0.328581"><ele>2.8</ele><time>2022-10-31T12:09:06.0000000+00:00</time></trkpt><trkpt lat="39.39449924" lon="-0.32858544"><ele>2.8</ele><time>2022-10-31T12:09:07.0000000+00:00</time></trkpt><trkpt lat="39.39443202" lon="-0.32858653"><ele>2.8</ele><time>2022-10-31T12:09:08.0000000+00:00</time></trkpt><trkpt lat="39.39436597" lon="-0.32858913"><ele>2.8</ele><time>2022-10-31T12:09:09.0000000+00:00</time></trkpt><trkpt lat="39.39429799" lon="-0.32859198"><ele>2.8</ele><time>2022-10-31T12:09:10.0000000+00:00</time></trkpt><trkpt lat="39.39422884" lon="-0.32859592"><ele>2.8</ele><time>2022-10-31T12:09:11.0000000+00:00</time></trkpt><trkpt lat="39.39416003" lon="-0.3286017"><ele>2.8</ele><time>2022-10-31T12:09:12.0000000+00:00</time></trkpt><trkpt lat="39.39409113" lon="-0.32860707"><ele>2.8</ele><time>2022-10-31T12:09:13.0000000+00:00</time></trkpt><trkpt lat="39.39402231" lon="-0.32860958"><ele>2.8</ele><time>2022-10-31T12:09:14.0000000+00:00</time></trkpt><trkpt lat="39.39394972" lon="-0.32861277"><ele>2.8</ele><time>2022-10-31T12:09:15.0000000+00:00</time></trkpt><trkpt lat="39.39387973" lon="-0.32862869"><ele>2.8</ele><time>2022-10-31T12:09:16.0000000+00:00</time></trkpt><trkpt lat="39.39381025" lon="-0.32865149"><ele>2.8</ele><time>2022-10-31T12:09:17.0000000+00:00</time></trkpt><trkpt lat="39.39374462" lon="-0.32867312"><ele>2.8</ele><time>2022-10-31T12:09:18.0000000+00:00</time></trkpt><trkpt lat="39.39367572" lon="-0.32869055"><ele>2.8</ele><time>2022-10-31T12:09:19.0000000+00:00</time></trkpt><trkpt lat="39.39360933" lon="-0.32870648"><ele>2.8</ele><time>2022-10-31T12:09:20.0000000+00:00</time></trkpt><trkpt lat="39.39354136" lon="-0.32871989"><ele>2.8</ele><time>2022-10-31T12:09:21.0000000+00:00</time></trkpt><trkpt lat="39.39346944" lon="-0.32872894"><ele>2.8</ele><time>2022-10-31T12:09:22.0000000+00:00</time></trkpt><trkpt lat="39.39339861" lon="-0.32873766"><ele>3.0</ele><time>2022-10-31T12:09:23.0000000+00:00</time></trkpt><trkpt lat="39.39332552" lon="-0.32874855"><ele>3.0</ele><time>2022-10-31T12:09:24.0000000+00:00</time></trkpt><trkpt lat="39.3932547" lon="-0.32875551"><ele>3.0</ele><time>2022-10-31T12:09:25.0000000+00:00</time></trkpt><trkpt lat="39.3931842" lon="-0.32876138"><ele>2.8</ele><time>2022-10-31T12:09:26.0000000+00:00</time></trkpt><trkpt lat="39.39311338" lon="-0.32876557"><ele>2.8</ele><time>2022-10-31T12:09:27.0000000+00:00</time></trkpt><trkpt lat="39.39304364" lon="-0.32876775"><ele>2.6</ele><time>2022-10-31T12:09:28.0000000+00:00</time></trkpt><trkpt lat="39.39297692" lon="-0.32876875"><ele>2.6</ele><time>2022-10-31T12:09:29.0000000+00:00</time></trkpt><trkpt lat="39.39291238" lon="-0.32877579"><ele>2.6</ele><time>2022-10-31T12:09:30.0000000+00:00</time></trkpt><trkpt lat="39.39284692" lon="-0.32878527"><ele>2.4</ele><time>2022-10-31T12:09:31.0000000+00:00</time></trkpt><trkpt lat="39.39278305" lon="-0.32879222"><ele>2.4</ele><time>2022-10-31T12:09:32.0000000+00:00</time></trkpt><trkpt lat="39.39272177" lon="-0.32879666"><ele>2.4</ele><time>2022-10-31T12:09:33.0000000+00:00</time></trkpt><trkpt lat="39.39266168" lon="-0.32880127"><ele>2.4</ele><time>2022-10-31T12:09:34.0000000+00:00</time></trkpt><trkpt lat="39.39260099" lon="-0.32880538"><ele>2.4</ele><time>2022-10-31T12:09:35.0000000+00:00</time></trkpt><trkpt lat="39.39254575" lon="-0.32880982"><ele>2.4</ele><time>2022-10-31T12:09:36.0000000+00:00</time></trkpt><trkpt lat="39.39249178" lon="-0.32881611"><ele>2.6</ele><time>2022-10-31T12:09:37.0000000+00:00</time></trkpt><trkpt lat="39.39243478" lon="-0.32881921"><ele>2.6</ele><time>2022-10-31T12:09:38.0000000+00:00</time></trkpt><trkpt lat="39.39237728" lon="-0.32882835"><ele>2.6</ele><time>2022-10-31T12:09:39.0000000+00:00</time></trkpt><trkpt lat="39.39231919" lon="-0.32884318"><ele>2.6</ele><time>2022-10-31T12:09:40.0000000+00:00</time></trkpt><trkpt lat="39.39226194" lon="-0.328869"><ele>2.6</ele><time>2022-10-31T12:09:41.0000000+00:00</time></trkpt><trkpt lat="39.39220419" lon="-0.32889532"><ele>2.8</ele><time>2022-10-31T12:09:42.0000000+00:00</time></trkpt><trkpt lat="39.392143" lon="-0.32891938"><ele>2.8</ele><time>2022-10-31T12:09:43.0000000+00:00</time></trkpt><trkpt lat="39.39207746" lon="-0.32894813"><ele>2.8</ele><time>2022-10-31T12:09:44.0000000+00:00</time></trkpt><trkpt lat="39.39201417" lon="-0.32898786"><ele>2.8</ele><time>2022-10-31T12:09:45.0000000+00:00</time></trkpt><trkpt lat="39.39195592" lon="-0.32903429"><ele>2.8</ele><time>2022-10-31T12:09:46.0000000+00:00</time></trkpt><trkpt lat="39.39189641" lon="-0.32907872"><ele>2.8</ele><time>2022-10-31T12:09:47.0000000+00:00</time></trkpt><trkpt lat="39.39183656" lon="-0.32912599"><ele>2.8</ele><time>2022-10-31T12:09:48.0000000+00:00</time></trkpt><trkpt lat="39.39177789" lon="-0.3291772"><ele>2.8</ele><time>2022-10-31T12:09:49.0000000+00:00</time></trkpt><trkpt lat="39.39172039" lon="-0.32923185"><ele>2.8</ele><time>2022-10-31T12:09:50.0000000+00:00</time></trkpt><trkpt lat="39.39166515" lon="-0.32928592"><ele>2.8</ele><time>2022-10-31T12:09:51.0000000+00:00</time></trkpt><trkpt lat="39.39161134" lon="-0.32934073"><ele>2.8</ele><time>2022-10-31T12:09:52.0000000+00:00</time></trkpt><trkpt lat="39.39155635" lon="-0.32939689"><ele>2.8</ele><time>2022-10-31T12:09:53.0000000+00:00</time></trkpt><trkpt lat="39.39149844" lon="-0.32944945"><ele>2.8</ele><time>2022-10-31T12:09:54.0000000+00:00</time></trkpt><trkpt lat="39.39143783" lon="-0.3294989"><ele>2.8</ele><time>2022-10-31T12:09:55.0000000+00:00</time></trkpt><trkpt lat="39.39137598" lon="-0.32954928"><ele>2.8</ele><time>2022-10-31T12:09:56.0000000+00:00</time></trkpt><trkpt lat="39.39131772" lon="-0.32960284"><ele>2.8</ele><time>2022-10-31T12:09:57.0000000+00:00</time></trkpt><trkpt lat="39.39125964" lon="-0.32965497"><ele>3.0</ele><time>2022-10-31T12:09:58.0000000+00:00</time></trkpt><trkpt lat="39.39120071" lon="-0.32970442"><ele>3.0</ele><time>2022-10-31T12:09:59.0000000+00:00</time></trkpt><trkpt lat="39.39114271" lon="-0.32975438"><ele>3.0</ele><time>2022-10-31T12:10:00.0000000+00:00</time></trkpt><trkpt lat="39.39108294" lon="-0.32980467"><ele>3.0</ele><time>2022-10-31T12:10:01.0000000+00:00</time></trkpt><trkpt lat="39.39102125" lon="-0.32985052"><ele>3.0</ele><time>2022-10-31T12:10:02.0000000+00:00</time></trkpt><trkpt lat="39.3909578" lon="-0.32989444"><ele>3.2</ele><time>2022-10-31T12:10:03.0000000+00:00</time></trkpt><trkpt lat="39.39089594" lon="-0.32994255"><ele>3.2</ele><time>2022-10-31T12:10:04.0000000+00:00</time></trkpt><trkpt lat="39.39083425" lon="-0.32999444"><ele>3.2</ele><time>2022-10-31T12:10:05.0000000+00:00</time></trkpt><trkpt lat="39.39077323" lon="-0.33004398"><ele>3.2</ele><time>2022-10-31T12:10:06.0000000+00:00</time></trkpt><trkpt lat="39.39071515" lon="-0.33009175"><ele>3.0</ele><time>2022-10-31T12:10:07.0000000+00:00</time></trkpt><trkpt lat="39.39065714" lon="-0.33013945"><ele>3.0</ele><time>2022-10-31T12:10:08.0000000+00:00</time></trkpt><trkpt lat="39.39059713" lon="-0.3301889"><ele>3.0</ele><time>2022-10-31T12:10:09.0000000+00:00</time></trkpt><trkpt lat="39.39053594" lon="-0.33023441"><ele>2.8</ele><time>2022-10-31T12:10:10.0000000+00:00</time></trkpt><trkpt lat="39.39045833" lon="-0.33028537"><ele>2.6</ele><time>2022-10-31T12:10:11.0000000+00:00</time></trkpt><trkpt lat="39.39040829" lon="-0.33032276"><ele>2.4</ele><time>2022-10-31T12:10:12.0000000+00:00</time></trkpt><trkpt lat="39.3903507" lon="-0.33037531"><ele>2.4</ele><time>2022-10-31T12:10:13.0000000+00:00</time></trkpt><trkpt lat="39.39029991" lon="-0.33043231"><ele>2.2</ele><time>2022-10-31T12:10:14.0000000+00:00</time></trkpt><trkpt lat="39.39026227" lon="-0.33048419"><ele>2.2</ele><time>2022-10-31T12:10:15.0000000+00:00</time></trkpt><trkpt lat="39.39024383" lon="-0.33053817"><ele>2.2</ele><time>2022-10-31T12:10:16.0000000+00:00</time></trkpt><trkpt lat="39.39023914" lon="-0.33059903"><ele>2.0</ele><time>2022-10-31T12:10:17.0000000+00:00</time></trkpt><trkpt lat="39.39025641" lon="-0.33065996"><ele>2.0</ele><time>2022-10-31T12:10:18.0000000+00:00</time></trkpt><trkpt lat="39.39028591" lon="-0.33070196"><ele>1.8</ele><time>2022-10-31T12:10:19.0000000+00:00</time></trkpt><trkpt lat="39.39030971" lon="-0.33072417"><ele>1.8</ele><time>2022-10-31T12:10:20.0000000+00:00</time></trkpt><trkpt lat="39.39032748" lon="-0.33073942"><ele>1.4</ele><time>2022-10-31T12:10:21.0000000+00:00</time></trkpt><trkpt lat="39.39034165" lon="-0.33075141"><ele>1.2</ele><time>2022-10-31T12:10:22.0000000+00:00</time></trkpt><trkpt lat="39.39034944" lon="-0.33077228"><ele>1.2</ele><time>2022-10-31T12:10:23.0000000+00:00</time></trkpt><trkpt lat="39.39035263" lon="-0.33079986"><ele>1.0</ele><time>2022-10-31T12:10:24.0000000+00:00</time></trkpt><trkpt lat="39.39034685" lon="-0.33082148"><ele>1.0</ele><time>2022-10-31T12:10:25.0000000+00:00</time></trkpt><trkpt lat="39.39033134" lon="-0.33083255"><ele>1.0</ele><time>2022-10-31T12:10:26.0000000+00:00</time></trkpt><trkpt lat="39.39030712" lon="-0.33082953"><ele>1.2</ele><time>2022-10-31T12:10:27.0000000+00:00</time></trkpt><trkpt lat="39.39028105" lon="-0.33081695"><ele>1.2</ele><time>2022-10-31T12:10:28.0000000+00:00</time></trkpt><trkpt lat="39.39025406" lon="-0.3308074"><ele>1.2</ele><time>2022-10-31T12:10:29.0000000+00:00</time></trkpt><trkpt lat="39.39021726" lon="-0.33080212"><ele>1.4</ele><time>2022-10-31T12:10:30.0000000+00:00</time></trkpt><trkpt lat="39.39017326" lon="-0.33080195"><ele>1.4</ele><time>2022-10-31T12:10:31.0000000+00:00</time></trkpt><trkpt lat="39.39013361" lon="-0.33081369"><ele>1.6</ele><time>2022-10-31T12:10:32.0000000+00:00</time></trkpt><trkpt lat="39.39009698" lon="-0.33082835"><ele>1.6</ele><time>2022-10-31T12:10:33.0000000+00:00</time></trkpt><trkpt lat="39.39006178" lon="-0.33084478"><ele>1.6</ele><time>2022-10-31T12:10:34.0000000+00:00</time></trkpt><trkpt lat="39.3900259" lon="-0.33085845"><ele>1.6</ele><time>2022-10-31T12:10:35.0000000+00:00</time></trkpt><trkpt lat="39.38998961" lon="-0.33087462"><ele>1.6</ele><time>2022-10-31T12:10:36.0000000+00:00</time></trkpt><trkpt lat="39.38995189" lon="-0.33088803"><ele>1.6</ele><time>2022-10-31T12:10:37.0000000+00:00</time></trkpt><trkpt lat="39.3899161" lon="-0.33089843"><ele>1.6</ele><time>2022-10-31T12:10:38.0000000+00:00</time></trkpt><trkpt lat="39.38988484" lon="-0.33091058"><ele>1.4</ele><time>2022-10-31T12:10:39.0000000+00:00</time></trkpt><trkpt lat="39.38985298" lon="-0.33092449"><ele>1.4</ele><time>2022-10-31T12:10:40.0000000+00:00</time></trkpt><trkpt lat="39.38982021" lon="-0.33093564"><ele>1.4</ele><time>2022-10-31T12:10:41.0000000+00:00</time></trkpt><trkpt lat="39.38978861" lon="-0.33094302"><ele>1.4</ele><time>2022-10-31T12:10:42.0000000+00:00</time></trkpt><trkpt lat="39.38975793" lon="-0.33094763"><ele>1.4</ele><time>2022-10-31T12:10:43.0000000+00:00</time></trkpt><trkpt lat="39.38972407" lon="-0.33096029"><ele>1.4</ele><time>2022-10-31T12:10:44.0000000+00:00</time></trkpt><trkpt lat="39.38969272" lon="-0.33097361"><ele>1.4</ele><time>2022-10-31T12:10:45.0000000+00:00</time></trkpt><trkpt lat="39.38966263" lon="-0.33098468"><ele>1.4</ele><time>2022-10-31T12:10:46.0000000+00:00</time></trkpt><trkpt lat="39.38962961" lon="-0.33099465"><ele>1.4</ele><time>2022-10-31T12:10:47.0000000+00:00</time></trkpt><trkpt lat="39.38958937" lon="-0.3310089"><ele>1.6</ele><time>2022-10-31T12:10:48.0000000+00:00</time></trkpt><trkpt lat="39.38955065" lon="-0.33102256"><ele>1.6</ele><time>2022-10-31T12:10:49.0000000+00:00</time></trkpt><trkpt lat="39.38950991" lon="-0.33104142"><ele>1.6</ele><time>2022-10-31T12:10:50.0000000+00:00</time></trkpt><trkpt lat="39.38946901" lon="-0.33106028"><ele>1.6</ele><time>2022-10-31T12:10:51.0000000+00:00</time></trkpt><trkpt lat="39.389425" lon="-0.3310773"><ele>1.6</ele><time>2022-10-31T12:10:52.0000000+00:00</time></trkpt><trkpt lat="39.38937781" lon="-0.33108811"><ele>1.6</ele><time>2022-10-31T12:10:53.0000000+00:00</time></trkpt><trkpt lat="39.38933247" lon="-0.33110068"><ele>1.6</ele><time>2022-10-31T12:10:54.0000000+00:00</time></trkpt><trkpt lat="39.38928586" lon="-0.3311094"><ele>1.6</ele><time>2022-10-31T12:10:55.0000000+00:00</time></trkpt><trkpt lat="39.38923834" lon="-0.331112"><ele>1.8</ele><time>2022-10-31T12:10:56.0000000+00:00</time></trkpt><trkpt lat="39.38919375" lon="-0.33110856"><ele>1.8</ele><time>2022-10-31T12:10:57.0000000+00:00</time></trkpt><trkpt lat="39.38914949" lon="-0.33109984"><ele>2.0</ele><time>2022-10-31T12:10:58.0000000+00:00</time></trkpt><trkpt lat="39.38910641" lon="-0.33109297"><ele>2.0</ele><time>2022-10-31T12:10:59.0000000+00:00</time></trkpt><trkpt lat="39.38906584" lon="-0.33109188"><ele>1.8</ele><time>2022-10-31T12:11:00.0000000+00:00</time></trkpt><trkpt lat="39.38903566" lon="-0.33109867"><ele>1.8</ele><time>2022-10-31T12:11:01.0000000+00:00</time></trkpt><trkpt lat="39.38900918" lon="-0.33110722"><ele>1.8</ele><time>2022-10-31T12:11:02.0000000+00:00</time></trkpt><trkpt lat="39.3889878" lon="-0.33111485"><ele>1.6</ele><time>2022-10-31T12:11:03.0000000+00:00</time></trkpt><trkpt lat="39.38897054" lon="-0.3311161"><ele>1.6</ele><time>2022-10-31T12:11:04.0000000+00:00</time></trkpt><trkpt lat="39.3889583" lon="-0.33111912"><ele>1.6</ele><time>2022-10-31T12:11:05.0000000+00:00</time></trkpt><trkpt lat="39.38895235" lon="-0.33112424"><ele>1.6</ele><time>2022-10-31T12:11:06.0000000+00:00</time></trkpt><trkpt lat="39.38894405" lon="-0.3311234"><ele>1.6</ele><time>2022-10-31T12:11:07.0000000+00:00</time></trkpt><trkpt lat="39.3889324" lon="-0.33111066"><ele>1.6</ele><time>2022-10-31T12:11:08.0000000+00:00</time></trkpt><trkpt lat="39.38891756" lon="-0.33108459"><ele>1.8</ele><time>2022-10-31T12:11:09.0000000+00:00</time></trkpt><trkpt lat="39.38889728" lon="-0.33105366"><ele>1.8</ele><time>2022-10-31T12:11:10.0000000+00:00</time></trkpt><trkpt lat="39.3888744" lon="-0.33101477"><ele>2.0</ele><time>2022-10-31T12:11:11.0000000+00:00</time></trkpt><trkpt lat="39.38885378" lon="-0.33097152"><ele>2.0</ele><time>2022-10-31T12:11:12.0000000+00:00</time></trkpt><trkpt lat="39.38883551" lon="-0.33092324"><ele>2.0</ele><time>2022-10-31T12:11:13.0000000+00:00</time></trkpt><trkpt lat="39.38882168" lon="-0.33086641"><ele>2.2</ele><time>2022-10-31T12:11:14.0000000+00:00</time></trkpt><trkpt lat="39.38880399" lon="-0.33081176"><ele>2.2</ele><time>2022-10-31T12:11:15.0000000+00:00</time></trkpt><trkpt lat="39.38879242" lon="-0.33075233"><ele>2.2</ele><time>2022-10-31T12:11:16.0000000+00:00</time></trkpt><trkpt lat="39.38878655" lon="-0.33069232"><ele>2.2</ele><time>2022-10-31T12:11:17.0000000+00:00</time></trkpt><trkpt lat="39.38877842" lon="-0.33063146"><ele>2.4</ele><time>2022-10-31T12:11:18.0000000+00:00</time></trkpt><trkpt lat="39.38876577" lon="-0.33056835"><ele>2.4</ele><time>2022-10-31T12:11:19.0000000+00:00</time></trkpt><trkpt lat="39.38874892" lon="-0.33050934"><ele>2.6</ele><time>2022-10-31T12:11:20.0000000+00:00</time></trkpt><trkpt lat="39.38872813" lon="-0.33045268"><ele>2.6</ele><time>2022-10-31T12:11:21.0000000+00:00</time></trkpt><trkpt lat="39.38870869" lon="-0.33039618"><ele>2.6</ele><time>2022-10-31T12:11:22.0000000+00:00</time></trkpt><trkpt lat="39.38868371" lon="-0.3303355"><ele>2.8</ele><time>2022-10-31T12:11:23.0000000+00:00</time></trkpt><trkpt lat="39.388662" lon="-0.33026828"><ele>3.0</ele><time>2022-10-31T12:11:24.0000000+00:00</time></trkpt><trkpt lat="39.38864163" lon="-0.33019879"><ele>3.2</ele><time>2022-10-31T12:11:25.0000000+00:00</time></trkpt><trkpt lat="39.38862898" lon="-0.33013349"><ele>3.2</ele><time>2022-10-31T12:11:26.0000000+00:00</time></trkpt><trkpt lat="39.38861473" lon="-0.33006795"><ele>3.2</ele><time>2022-10-31T12:11:27.0000000+00:00</time></trkpt><trkpt lat="39.38859721" lon="-0.33000609"><ele>3.4</ele><time>2022-10-31T12:11:28.0000000+00:00</time></trkpt><trkpt lat="39.38857039" lon="-0.32994624"><ele>3.4</ele><time>2022-10-31T12:11:29.0000000+00:00</time></trkpt><trkpt lat="39.38854625" lon="-0.32988011"><ele>3.4</ele><time>2022-10-31T12:11:30.0000000+00:00</time></trkpt><trkpt lat="39.38852512" lon="-0.32981079"><ele>3.2</ele><time>2022-10-31T12:11:31.0000000+00:00</time></trkpt><trkpt lat="39.38850576" lon="-0.32974776"><ele>3.2</ele><time>2022-10-31T12:11:32.0000000+00:00</time></trkpt><trkpt lat="39.38849319" lon="-0.32968573"><ele>3.2</ele><time>2022-10-31T12:11:33.0000000+00:00</time></trkpt><trkpt lat="39.38848397" lon="-0.32962094"><ele>3.2</ele><time>2022-10-31T12:11:34.0000000+00:00</time></trkpt><trkpt lat="39.38847701" lon="-0.32955229"><ele>3.2</ele><time>2022-10-31T12:11:35.0000000+00:00</time></trkpt><trkpt lat="39.38847416" lon="-0.32948054"><ele>3.2</ele><time>2022-10-31T12:11:36.0000000+00:00</time></trkpt><trkpt lat="39.38847223" lon="-0.32940896"><ele>3.2</ele><time>2022-10-31T12:11:37.0000000+00:00</time></trkpt><trkpt lat="39.38846779" lon="-0.32934082"><ele>3.2</ele><time>2022-10-31T12:11:38.0000000+00:00</time></trkpt><trkpt lat="39.38845648" lon="-0.32927016"><ele>3.4</ele><time>2022-10-31T12:11:39.0000000+00:00</time></trkpt><trkpt lat="39.38844097" lon="-0.32920009"><ele>3.4</ele><time>2022-10-31T12:11:40.0000000+00:00</time></trkpt><trkpt lat="39.38842496" lon="-0.32913177"><ele>3.4</ele><time>2022-10-31T12:11:41.0000000+00:00</time></trkpt><trkpt lat="39.38840786" lon="-0.32906254"><ele>3.4</ele><time>2022-10-31T12:11:42.0000000+00:00</time></trkpt><trkpt lat="39.38838632" lon="-0.32899154"><ele>3.4</ele><time>2022-10-31T12:11:43.0000000+00:00</time></trkpt><trkpt lat="39.38836268" lon="-0.32892088"><ele>3.4</ele><time>2022-10-31T12:11:44.0000000+00:00</time></trkpt><trkpt lat="39.38833393" lon="-0.32884972"><ele>3.4</ele><time>2022-10-31T12:11:45.0000000+00:00</time></trkpt><trkpt lat="39.38830376" lon="-0.3287799"><ele>3.4</ele><time>2022-10-31T12:11:46.0000000+00:00</time></trkpt><trkpt lat="39.38827124" lon="-0.32871746"><ele>3.2</ele><time>2022-10-31T12:11:47.0000000+00:00</time></trkpt><trkpt lat="39.38824047" lon="-0.32865719"><ele>3.2</ele><time>2022-10-31T12:11:48.0000000+00:00</time></trkpt><trkpt lat="39.38820954" lon="-0.32859491"><ele>3.0</ele><time>2022-10-31T12:11:49.0000000+00:00</time></trkpt><trkpt lat="39.38818113" lon="-0.3285292"><ele>3.0</ele><time>2022-10-31T12:11:50.0000000+00:00</time></trkpt><trkpt lat="39.38815607" lon="-0.32845971"><ele>3.0</ele><time>2022-10-31T12:11:51.0000000+00:00</time></trkpt><trkpt lat="39.38813453" lon="-0.32839065"><ele>2.8</ele><time>2022-10-31T12:11:52.0000000+00:00</time></trkpt><trkpt lat="39.38811332" lon="-0.32831898"><ele>3.0</ele><time>2022-10-31T12:11:53.0000000+00:00</time></trkpt><trkpt lat="39.38809513" lon="-0.3282417"><ele>3.0</ele><time>2022-10-31T12:11:54.0000000+00:00</time></trkpt><trkpt lat="39.38807837" lon="-0.32816894"><ele>3.0</ele><time>2022-10-31T12:11:55.0000000+00:00</time></trkpt><trkpt lat="39.38805942" lon="-0.32810189"><ele>3.0</ele><time>2022-10-31T12:11:56.0000000+00:00</time></trkpt><trkpt lat="39.388044" lon="-0.32804456"><ele>3.0</ele><time>2022-10-31T12:11:57.0000000+00:00</time></trkpt><trkpt lat="39.38803076" lon="-0.32800483"><ele>3.0</ele><time>2022-10-31T12:11:58.0000000+00:00</time></trkpt><trkpt lat="39.38801944" lon="-0.32798261"><ele>3.0</ele><time>2022-10-31T12:11:59.0000000+00:00</time></trkpt><trkpt lat="39.38800494" lon="-0.32797306"><ele>2.6</ele><time>2022-10-31T12:12:00.0000000+00:00</time></trkpt><trkpt lat="39.3879886" lon="-0.32796895"><ele>2.4</ele><time>2022-10-31T12:12:01.0000000+00:00</time></trkpt><trkpt lat="39.38796991" lon="-0.32796585"><ele>2.4</ele><time>2022-10-31T12:12:02.0000000+00:00</time></trkpt><trkpt lat="39.38794753" lon="-0.32796593"><ele>2.2</ele><time>2022-10-31T12:12:03.0000000+00:00</time></trkpt><trkpt lat="39.38792112" lon="-0.32796493"><ele>2.2</ele><time>2022-10-31T12:12:04.0000000+00:00</time></trkpt><trkpt lat="39.38789841" lon="-0.32796015"><ele>2.2</ele><time>2022-10-31T12:12:05.0000000+00:00</time></trkpt><trkpt lat="39.38786714" lon="-0.32795118"><ele>2.2</ele><time>2022-10-31T12:12:06.0000000+00:00</time></trkpt><trkpt lat="39.38783244" lon="-0.32794196"><ele>2.2</ele><time>2022-10-31T12:12:07.0000000+00:00</time></trkpt><trkpt lat="39.38778374" lon="-0.32792646"><ele>2.4</ele><time>2022-10-31T12:12:08.0000000+00:00</time></trkpt><trkpt lat="39.38774234" lon="-0.32791338"><ele>2.4</ele><time>2022-10-31T12:12:09.0000000+00:00</time></trkpt><trkpt lat="39.38769976" lon="-0.32790089"><ele>2.6</ele><time>2022-10-31T12:12:10.0000000+00:00</time></trkpt><trkpt lat="39.38765449" lon="-0.32788597"><ele>2.6</ele><time>2022-10-31T12:12:11.0000000+00:00</time></trkpt><trkpt lat="39.38760605" lon="-0.32786921"><ele>2.6</ele><time>2022-10-31T12:12:12.0000000+00:00</time></trkpt><trkpt lat="39.3875545" lon="-0.32785085"><ele>2.6</ele><time>2022-10-31T12:12:13.0000000+00:00</time></trkpt><trkpt lat="39.38750044" lon="-0.32783493"><ele>2.6</ele><time>2022-10-31T12:12:14.0000000+00:00</time></trkpt><trkpt lat="39.38744545" lon="-0.3278195"><ele>2.6</ele><time>2022-10-31T12:12:15.0000000+00:00</time></trkpt><trkpt lat="39.38739248" lon="-0.32780115"><ele>2.6</ele><time>2022-10-31T12:12:16.0000000+00:00</time></trkpt><trkpt lat="39.38733783" lon="-0.32778237"><ele>2.6</ele><time>2022-10-31T12:12:17.0000000+00:00</time></trkpt><trkpt lat="39.38728418" lon="-0.32776183"><ele>2.6</ele><time>2022-10-31T12:12:18.0000000+00:00</time></trkpt><trkpt lat="39.38722911" lon="-0.32774013"><ele>2.6</ele><time>2022-10-31T12:12:19.0000000+00:00</time></trkpt><trkpt lat="39.38717027" lon="-0.32771917"><ele>2.6</ele><time>2022-10-31T12:12:20.0000000+00:00</time></trkpt><trkpt lat="39.38711336" lon="-0.32769947"><ele>2.8</ele><time>2022-10-31T12:12:21.0000000+00:00</time></trkpt><trkpt lat="39.38705636" lon="-0.32767944"><ele>2.8</ele><time>2022-10-31T12:12:22.0000000+00:00</time></trkpt><trkpt lat="39.3869992" lon="-0.32765941"><ele>2.6</ele><time>2022-10-31T12:12:23.0000000+00:00</time></trkpt><trkpt lat="39.38694136" lon="-0.32763812"><ele>2.6</ele><time>2022-10-31T12:12:24.0000000+00:00</time></trkpt><trkpt lat="39.38688185" lon="-0.32761683"><ele>2.6</ele><time>2022-10-31T12:12:25.0000000+00:00</time></trkpt><trkpt lat="39.38682284" lon="-0.32759504"><ele>2.8</ele><time>2022-10-31T12:12:26.0000000+00:00</time></trkpt><trkpt lat="39.38675998" lon="-0.32757198"><ele>2.8</ele><time>2022-10-31T12:12:27.0000000+00:00</time></trkpt><trkpt lat="39.38669686" lon="-0.32754743"><ele>3.0</ele><time>2022-10-31T12:12:28.0000000+00:00</time></trkpt><trkpt lat="39.38663291" lon="-0.32752588"><ele>3.0</ele><time>2022-10-31T12:12:29.0000000+00:00</time></trkpt><trkpt lat="39.38656937" lon="-0.32750895"><ele>3.0</ele><time>2022-10-31T12:12:30.0000000+00:00</time></trkpt><trkpt lat="39.38650349" lon="-0.32748423"><ele>3.2</ele><time>2022-10-31T12:12:31.0000000+00:00</time></trkpt><trkpt lat="39.38643644" lon="-0.32745942"><ele>3.2</ele><time>2022-10-31T12:12:32.0000000+00:00</time></trkpt><trkpt lat="39.38636729" lon="-0.3274362"><ele>3.2</ele><time>2022-10-31T12:12:33.0000000+00:00</time></trkpt><trkpt lat="39.38629763" lon="-0.32741105"><ele>3.4</ele><time>2022-10-31T12:12:34.0000000+00:00</time></trkpt><trkpt lat="39.3862279" lon="-0.32738641"><ele>3.4</ele><time>2022-10-31T12:12:35.0000000+00:00</time></trkpt><trkpt lat="39.38615866" lon="-0.32736135"><ele>3.4</ele><time>2022-10-31T12:12:36.0000000+00:00</time></trkpt><trkpt lat="39.386088" lon="-0.32733805"><ele>3.2</ele><time>2022-10-31T12:12:37.0000000+00:00</time></trkpt><trkpt lat="39.3860196" lon="-0.32731491"><ele>3.2</ele><time>2022-10-31T12:12:38.0000000+00:00</time></trkpt><trkpt lat="39.38595138" lon="-0.32729295"><ele>3.2</ele><time>2022-10-31T12:12:39.0000000+00:00</time></trkpt><trkpt lat="39.38588256" lon="-0.32726848"><ele>3.2</ele><time>2022-10-31T12:12:40.0000000+00:00</time></trkpt><trkpt lat="39.38581098" lon="-0.3272471"><ele>3.2</ele><time>2022-10-31T12:12:41.0000000+00:00</time></trkpt><trkpt lat="39.38573621" lon="-0.32723319"><ele>3.2</ele><time>2022-10-31T12:12:42.0000000+00:00</time></trkpt><trkpt lat="39.38566019" lon="-0.32722984"><ele>3.2</ele><time>2022-10-31T12:12:43.0000000+00:00</time></trkpt><trkpt lat="39.3855866" lon="-0.32723369"><ele>3.2</ele><time>2022-10-31T12:12:44.0000000+00:00</time></trkpt><trkpt lat="39.38551476" lon="-0.32724249"><ele>3.2</ele><time>2022-10-31T12:12:45.0000000+00:00</time></trkpt><trkpt lat="39.38544477" lon="-0.327258"><ele>3.2</ele><time>2022-10-31T12:12:46.0000000+00:00</time></trkpt><trkpt lat="39.38537562" lon="-0.32727401"><ele>3.2</ele><time>2022-10-31T12:12:47.0000000+00:00</time></trkpt><trkpt lat="39.3853079" lon="-0.32728423"><ele>3.2</ele><time>2022-10-31T12:12:48.0000000+00:00</time></trkpt><trkpt lat="39.38524" lon="-0.32729044"><ele>3.2</ele><time>2022-10-31T12:12:49.0000000+00:00</time></trkpt><trkpt lat="39.38517144" lon="-0.3272901"><ele>3.2</ele><time>2022-10-31T12:12:50.0000000+00:00</time></trkpt><trkpt lat="39.38510472" lon="-0.32728298"><ele>3.2</ele><time>2022-10-31T12:12:51.0000000+00:00</time></trkpt><trkpt lat="39.38503616" lon="-0.32726873"><ele>3.2</ele><time>2022-10-31T12:12:52.0000000+00:00</time></trkpt><trkpt lat="39.38496751" lon="-0.3272523"><ele>3.4</ele><time>2022-10-31T12:12:53.0000000+00:00</time></trkpt><trkpt lat="39.38490037" lon="-0.32723"><ele>3.4</ele><time>2022-10-31T12:12:54.0000000+00:00</time></trkpt><trkpt lat="39.38483566" lon="-0.32719924"><ele>3.4</ele><time>2022-10-31T12:12:55.0000000+00:00</time></trkpt><trkpt lat="39.38477305" lon="-0.32715951"><ele>3.4</ele><time>2022-10-31T12:12:56.0000000+00:00</time></trkpt><trkpt lat="39.38471178" lon="-0.32711752"><ele>3.4</ele><time>2022-10-31T12:12:57.0000000+00:00</time></trkpt><trkpt lat="39.38465235" lon="-0.32707142"><ele>3.4</ele><time>2022-10-31T12:12:58.0000000+00:00</time></trkpt><trkpt lat="39.38459686" lon="-0.32701987"><ele>3.4</ele><time>2022-10-31T12:12:59.0000000+00:00</time></trkpt><trkpt lat="39.38454095" lon="-0.32696514"><ele>3.6</ele><time>2022-10-31T12:13:00.0000000+00:00</time></trkpt><trkpt lat="39.38448949" lon="-0.32690588"><ele>3.6</ele><time>2022-10-31T12:13:01.0000000+00:00</time></trkpt><trkpt lat="39.38443869" lon="-0.3268446"><ele>3.6</ele><time>2022-10-31T12:13:02.0000000+00:00</time></trkpt><trkpt lat="39.3843884" lon="-0.32678593"><ele>3.6</ele><time>2022-10-31T12:13:03.0000000+00:00</time></trkpt><trkpt lat="39.38433727" lon="-0.32673455"><ele>3.6</ele><time>2022-10-31T12:13:04.0000000+00:00</time></trkpt><trkpt lat="39.3842838" lon="-0.32668795"><ele>3.6</ele><time>2022-10-31T12:13:05.0000000+00:00</time></trkpt><trkpt lat="39.38422521" lon="-0.32664344"><ele>3.6</ele><time>2022-10-31T12:13:06.0000000+00:00</time></trkpt><trkpt lat="39.38416167" lon="-0.32659943"><ele>3.6</ele><time>2022-10-31T12:13:07.0000000+00:00</time></trkpt><trkpt lat="39.38409906" lon="-0.32656121"><ele>3.6</ele><time>2022-10-31T12:13:08.0000000+00:00</time></trkpt><trkpt lat="39.38403754" lon="-0.32652861"><ele>3.6</ele><time>2022-10-31T12:13:09.0000000+00:00</time></trkpt><trkpt lat="39.38397693" lon="-0.32650254"><ele>3.8</ele><time>2022-10-31T12:13:10.0000000+00:00</time></trkpt><trkpt lat="39.38391273" lon="-0.32647689"><ele>3.8</ele><time>2022-10-31T12:13:11.0000000+00:00</time></trkpt><trkpt lat="39.38385028" lon="-0.32645074"><ele>3.6</ele><time>2022-10-31T12:13:12.0000000+00:00</time></trkpt><trkpt lat="39.38378817" lon="-0.32642291"><ele>3.6</ele><time>2022-10-31T12:13:13.0000000+00:00</time></trkpt><trkpt lat="39.3837264" lon="-0.32638854"><ele>3.6</ele><time>2022-10-31T12:13:14.0000000+00:00</time></trkpt><trkpt lat="39.38366504" lon="-0.32635007"><ele>3.6</ele><time>2022-10-31T12:13:15.0000000+00:00</time></trkpt><trkpt lat="39.38360763" lon="-0.32630975"><ele>3.6</ele><time>2022-10-31T12:13:16.0000000+00:00</time></trkpt><trkpt lat="39.38355155" lon="-0.32626583"><ele>3.6</ele><time>2022-10-31T12:13:17.0000000+00:00</time></trkpt><trkpt lat="39.38349674" lon="-0.32621931"><ele>3.6</ele><time>2022-10-31T12:13:18.0000000+00:00</time></trkpt><trkpt lat="39.38344401" lon="-0.32616844"><ele>3.6</ele><time>2022-10-31T12:13:19.0000000+00:00</time></trkpt><trkpt lat="39.38339188" lon="-0.32611487"><ele>3.6</ele><time>2022-10-31T12:13:20.0000000+00:00</time></trkpt><trkpt lat="39.38334041" lon="-0.32606282"><ele>3.6</ele><time>2022-10-31T12:13:21.0000000+00:00</time></trkpt><trkpt lat="39.38328979" lon="-0.32601153"><ele>3.8</ele><time>2022-10-31T12:13:22.0000000+00:00</time></trkpt><trkpt lat="39.38323807" lon="-0.32595989"><ele>3.8</ele><time>2022-10-31T12:13:23.0000000+00:00</time></trkpt><trkpt lat="39.38318669" lon="-0.32590834"><ele>3.8</ele><time>2022-10-31T12:13:24.0000000+00:00</time></trkpt><trkpt lat="39.38313372" lon="-0.3258552"><ele>3.8</ele><time>2022-10-31T12:13:25.0000000+00:00</time></trkpt><trkpt lat="39.38308485" lon="-0.32580382"><ele>3.8</ele><time>2022-10-31T12:13:26.0000000+00:00</time></trkpt><trkpt lat="39.38303699" lon="-0.32575185"><ele>3.6</ele><time>2022-10-31T12:13:27.0000000+00:00</time></trkpt><trkpt lat="39.38298846" lon="-0.3257019"><ele>3.6</ele><time>2022-10-31T12:13:28.0000000+00:00</time></trkpt><trkpt lat="39.38293858" lon="-0.32565236"><ele>3.8</ele><time>2022-10-31T12:13:29.0000000+00:00</time></trkpt><trkpt lat="39.3828888" lon="-0.32560199"><ele>3.8</ele><time>2022-10-31T12:13:30.0000000+00:00</time></trkpt><trkpt lat="39.38283825" lon="-0.32555102"><ele>3.8</ele><time>2022-10-31T12:13:31.0000000+00:00</time></trkpt><trkpt lat="39.38278855" lon="-0.32549864"><ele>3.8</ele><time>2022-10-31T12:13:32.0000000+00:00</time></trkpt><trkpt lat="39.38274002" lon="-0.32544617"><ele>3.6</ele><time>2022-10-31T12:13:33.0000000+00:00</time></trkpt><trkpt lat="39.38269132" lon="-0.32539764"><ele>3.6</ele><time>2022-10-31T12:13:34.0000000+00:00</time></trkpt><trkpt lat="39.38263952" lon="-0.32534961"><ele>3.6</ele><time>2022-10-31T12:13:35.0000000+00:00</time></trkpt><trkpt lat="39.38259057" lon="-0.32530208"><ele>3.6</ele><time>2022-10-31T12:13:36.0000000+00:00</time></trkpt><trkpt lat="39.38253994" lon="-0.32525422"><ele>3.4</ele><time>2022-10-31T12:13:37.0000000+00:00</time></trkpt><trkpt lat="39.38249032" lon="-0.3252067"><ele>3.4</ele><time>2022-10-31T12:13:38.0000000+00:00</time></trkpt><trkpt lat="39.38244321" lon="-0.32515758"><ele>3.4</ele><time>2022-10-31T12:13:39.0000000+00:00</time></trkpt><trkpt lat="39.38239376" lon="-0.32510452"><ele>3.4</ele><time>2022-10-31T12:13:40.0000000+00:00</time></trkpt><trkpt lat="39.38234347" lon="-0.32505213"><ele>3.4</ele><time>2022-10-31T12:13:41.0000000+00:00</time></trkpt><trkpt lat="39.38229368" lon="-0.32499799"><ele>3.4</ele><time>2022-10-31T12:13:42.0000000+00:00</time></trkpt><trkpt lat="39.3822449" lon="-0.32494744"><ele>3.4</ele><time>2022-10-31T12:13:43.0000000+00:00</time></trkpt><trkpt lat="39.38219821" lon="-0.32490042"><ele>3.4</ele><time>2022-10-31T12:13:44.0000000+00:00</time></trkpt><trkpt lat="39.38214943" lon="-0.32485206"><ele>3.4</ele><time>2022-10-31T12:13:45.0000000+00:00</time></trkpt><trkpt lat="39.38209939" lon="-0.32480185"><ele>3.4</ele><time>2022-10-31T12:13:46.0000000+00:00</time></trkpt><trkpt lat="39.38204801" lon="-0.32475617"><ele>3.4</ele><time>2022-10-31T12:13:47.0000000+00:00</time></trkpt><trkpt lat="39.38199822" lon="-0.32471116"><ele>3.4</ele><time>2022-10-31T12:13:48.0000000+00:00</time></trkpt><trkpt lat="39.38194826" lon="-0.32467042"><ele>3.4</ele><time>2022-10-31T12:13:49.0000000+00:00</time></trkpt><trkpt lat="39.38189755" lon="-0.32463237"><ele>3.2</ele><time>2022-10-31T12:13:50.0000000+00:00</time></trkpt><trkpt lat="39.38184382" lon="-0.32459331"><ele>3.2</ele><time>2022-10-31T12:13:51.0000000+00:00</time></trkpt><trkpt lat="39.38178951" lon="-0.32456171"><ele>3.2</ele><time>2022-10-31T12:13:52.0000000+00:00</time></trkpt><trkpt lat="39.38173201" lon="-0.32452986"><ele>3.2</ele><time>2022-10-31T12:13:53.0000000+00:00</time></trkpt><trkpt lat="39.38167384" lon="-0.32449884"><ele>3.2</ele><time>2022-10-31T12:13:54.0000000+00:00</time></trkpt><trkpt lat="39.38162933" lon="-0.32448049"><ele>3.2</ele><time>2022-10-31T12:13:55.0000000+00:00</time></trkpt><trkpt lat="39.38156957" lon="-0.32445928"><ele>3.2</ele><time>2022-10-31T12:13:56.0000000+00:00</time></trkpt><trkpt lat="39.38152338" lon="-0.32444495"><ele>3.2</ele><time>2022-10-31T12:13:57.0000000+00:00</time></trkpt><trkpt lat="39.38147955" lon="-0.32443615"><ele>3.2</ele><time>2022-10-31T12:13:58.0000000+00:00</time></trkpt><trkpt lat="39.38143546" lon="-0.3244307"><ele>3.2</ele><time>2022-10-31T12:13:59.0000000+00:00</time></trkpt><trkpt lat="39.38138869" lon="-0.32442768"><ele>3.0</ele><time>2022-10-31T12:14:00.0000000+00:00</time></trkpt><trkpt lat="39.38133605" lon="-0.32442676"><ele>3.0</ele><time>2022-10-31T12:14:01.0000000+00:00</time></trkpt><trkpt lat="39.38128383" lon="-0.32442458"><ele>3.0</ele><time>2022-10-31T12:14:02.0000000+00:00</time></trkpt><trkpt lat="39.38123002" lon="-0.32442877"><ele>2.8</ele><time>2022-10-31T12:14:03.0000000+00:00</time></trkpt><trkpt lat="39.38117671" lon="-0.32443891"><ele>2.8</ele><time>2022-10-31T12:14:04.0000000+00:00</time></trkpt><trkpt lat="39.38112122" lon="-0.32444746"><ele>2.8</ele><time>2022-10-31T12:14:05.0000000+00:00</time></trkpt><trkpt lat="39.38106724" lon="-0.3244566"><ele>2.8</ele><time>2022-10-31T12:14:06.0000000+00:00</time></trkpt><trkpt lat="39.38101041" lon="-0.32446624"><ele>2.8</ele><time>2022-10-31T12:14:07.0000000+00:00</time></trkpt><trkpt lat="39.38095283" lon="-0.32447563"><ele>2.8</ele><time>2022-10-31T12:14:08.0000000+00:00</time></trkpt><trkpt lat="39.38089441" lon="-0.3244742"><ele>2.8</ele><time>2022-10-31T12:14:09.0000000+00:00</time></trkpt><trkpt lat="39.3808385" lon="-0.32446154"><ele>2.8</ele><time>2022-10-31T12:14:10.0000000+00:00</time></trkpt><trkpt lat="39.38078184" lon="-0.32444654"><ele>3.0</ele><time>2022-10-31T12:14:11.0000000+00:00</time></trkpt><trkpt lat="39.38072769" lon="-0.32442927"><ele>3.0</ele><time>2022-10-31T12:14:12.0000000+00:00</time></trkpt><trkpt lat="39.38067413" lon="-0.32440539"><ele>3.0</ele><time>2022-10-31T12:14:13.0000000+00:00</time></trkpt><trkpt lat="39.38061814" lon="-0.3243799"><ele>3.2</ele><time>2022-10-31T12:14:14.0000000+00:00</time></trkpt><trkpt lat="39.38056416" lon="-0.32435149"><ele>3.2</ele><time>2022-10-31T12:14:15.0000000+00:00</time></trkpt><trkpt lat="39.38051119" lon="-0.32432207"><ele>3.2</ele><time>2022-10-31T12:14:16.0000000+00:00</time></trkpt><trkpt lat="39.38045737" lon="-0.32429198"><ele>3.4</ele><time>2022-10-31T12:14:17.0000000+00:00</time></trkpt><trkpt lat="39.38040566" lon="-0.32425921"><ele>3.4</ele><time>2022-10-31T12:14:18.0000000+00:00</time></trkpt><trkpt lat="39.38035528" lon="-0.32422828"><ele>3.2</ele><time>2022-10-31T12:14:19.0000000+00:00</time></trkpt><trkpt lat="39.38030122" lon="-0.32420103"><ele>3.2</ele><time>2022-10-31T12:14:20.0000000+00:00</time></trkpt><trkpt lat="39.38024372" lon="-0.32418092"><ele>3.2</ele><time>2022-10-31T12:14:21.0000000+00:00</time></trkpt><trkpt lat="39.3801863" lon="-0.32417488"><ele>3.2</ele><time>2022-10-31T12:14:22.0000000+00:00</time></trkpt><trkpt lat="39.38012771" lon="-0.32418452"><ele>3.0</ele><time>2022-10-31T12:14:23.0000000+00:00</time></trkpt><trkpt lat="39.38006912" lon="-0.32420472"><ele>3.0</ele><time>2022-10-31T12:14:24.0000000+00:00</time></trkpt><trkpt lat="39.38001498" lon="-0.32422543"><ele>3.0</ele><time>2022-10-31T12:14:25.0000000+00:00</time></trkpt><trkpt lat="39.37995773" lon="-0.32424118"><ele>3.0</ele><time>2022-10-31T12:14:26.0000000+00:00</time></trkpt><trkpt lat="39.37989637" lon="-0.32424999"><ele>3.0</ele><time>2022-10-31T12:14:27.0000000+00:00</time></trkpt><trkpt lat="39.37983695" lon="-0.32424915"><ele>3.0</ele><time>2022-10-31T12:14:28.0000000+00:00</time></trkpt><trkpt lat="39.379775" lon="-0.32423431"><ele>3.0</ele><time>2022-10-31T12:14:29.0000000+00:00</time></trkpt><trkpt lat="39.37971373" lon="-0.32421134"><ele>3.2</ele><time>2022-10-31T12:14:30.0000000+00:00</time></trkpt><trkpt lat="39.37965464" lon="-0.32418536"><ele>3.2</ele><time>2022-10-31T12:14:31.0000000+00:00</time></trkpt><trkpt lat="39.37959655" lon="-0.32415602"><ele>3.4</ele><time>2022-10-31T12:14:32.0000000+00:00</time></trkpt><trkpt lat="39.37953654" lon="-0.3241297"><ele>3.4</ele><time>2022-10-31T12:14:33.0000000+00:00</time></trkpt><trkpt lat="39.37947418" lon="-0.32410221"><ele>3.4</ele><time>2022-10-31T12:14:34.0000000+00:00</time></trkpt><trkpt lat="39.37941257" lon="-0.32407505"><ele>3.2</ele><time>2022-10-31T12:14:35.0000000+00:00</time></trkpt><trkpt lat="39.37935105" lon="-0.3240479"><ele>3.2</ele><time>2022-10-31T12:14:36.0000000+00:00</time></trkpt><trkpt lat="39.37929162" lon="-0.32401688"><ele>3.2</ele><time>2022-10-31T12:14:37.0000000+00:00</time></trkpt><trkpt lat="39.37923261" lon="-0.32398922"><ele>3.2</ele><time>2022-10-31T12:14:38.0000000+00:00</time></trkpt><trkpt lat="39.3791741" lon="-0.32396349"><ele>3.2</ele><time>2022-10-31T12:14:39.0000000+00:00</time></trkpt><trkpt lat="39.37911493" lon="-0.3239365"><ele>3.2</ele><time>2022-10-31T12:14:40.0000000+00:00</time></trkpt><trkpt lat="39.37905542" lon="-0.32390582"><ele>3.4</ele><time>2022-10-31T12:14:41.0000000+00:00</time></trkpt><trkpt lat="39.37899322" lon="-0.32387749"><ele>3.4</ele><time>2022-10-31T12:14:42.0000000+00:00</time></trkpt><trkpt lat="39.37893061" lon="-0.32384765"><ele>3.4</ele><time>2022-10-31T12:14:43.0000000+00:00</time></trkpt><trkpt lat="39.37886967" lon="-0.3238205"><ele>3.4</ele><time>2022-10-31T12:14:44.0000000+00:00</time></trkpt><trkpt lat="39.37880756" lon="-0.32379468"><ele>3.4</ele><time>2022-10-31T12:14:45.0000000+00:00</time></trkpt><trkpt lat="39.37874629" lon="-0.32376451"><ele>3.4</ele><time>2022-10-31T12:14:46.0000000+00:00</time></trkpt><trkpt lat="39.3786846" lon="-0.32373282"><ele>3.6</ele><time>2022-10-31T12:14:47.0000000+00:00</time></trkpt><trkpt lat="39.37862283" lon="-0.32370206"><ele>3.6</ele><time>2022-10-31T12:14:48.0000000+00:00</time></trkpt><trkpt lat="39.37856181" lon="-0.32367507"><ele>3.6</ele><time>2022-10-31T12:14:49.0000000+00:00</time></trkpt><trkpt lat="39.37850037" lon="-0.32364657"><ele>3.6</ele><time>2022-10-31T12:14:50.0000000+00:00</time></trkpt><trkpt lat="39.37844169" lon="-0.32361799"><ele>3.6</ele><time>2022-10-31T12:14:51.0000000+00:00</time></trkpt><trkpt lat="39.37838436" lon="-0.32358949"><ele>3.4</ele><time>2022-10-31T12:14:52.0000000+00:00</time></trkpt><trkpt lat="39.37832527" lon="-0.32355772"><ele>3.4</ele><time>2022-10-31T12:14:53.0000000+00:00</time></trkpt><trkpt lat="39.37826257" lon="-0.32353023"><ele>3.2</ele><time>2022-10-31T12:14:54.0000000+00:00</time></trkpt><trkpt lat="39.37820013" lon="-0.323504"><ele>3.2</ele><time>2022-10-31T12:14:55.0000000+00:00</time></trkpt><trkpt lat="39.37813735" lon="-0.3234848"><ele>3.2</ele><time>2022-10-31T12:14:56.0000000+00:00</time></trkpt><trkpt lat="39.37807524" lon="-0.3234698"><ele>3.4</ele><time>2022-10-31T12:14:57.0000000+00:00</time></trkpt><trkpt lat="39.37801422" lon="-0.32346292"><ele>3.4</ele><time>2022-10-31T12:14:58.0000000+00:00</time></trkpt><trkpt lat="39.37795512" lon="-0.32345722"><ele>3.4</ele><time>2022-10-31T12:14:59.0000000+00:00</time></trkpt><trkpt lat="39.37789419" lon="-0.32345563"><ele>3.4</ele><time>2022-10-31T12:15:00.0000000+00:00</time></trkpt><trkpt lat="39.37783082" lon="-0.32345513"><ele>3.4</ele><time>2022-10-31T12:15:01.0000000+00:00</time></trkpt><trkpt lat="39.37776611" lon="-0.32345848"><ele>3.4</ele><time>2022-10-31T12:15:02.0000000+00:00</time></trkpt><trkpt lat="39.37770098" lon="-0.32346116"><ele>3.4</ele><time>2022-10-31T12:15:03.0000000+00:00</time></trkpt><trkpt lat="39.37763611" lon="-0.32346468"><ele>3.4</ele><time>2022-10-31T12:15:04.0000000+00:00</time></trkpt><trkpt lat="39.37757165" lon="-0.32346536"><ele>3.4</ele><time>2022-10-31T12:15:05.0000000+00:00</time></trkpt><trkpt lat="39.37750468" lon="-0.32346284"><ele>3.2</ele><time>2022-10-31T12:15:06.0000000+00:00</time></trkpt><trkpt lat="39.37743712" lon="-0.32346284"><ele>3.4</ele><time>2022-10-31T12:15:07.0000000+00:00</time></trkpt><trkpt lat="39.37737158" lon="-0.32346494"><ele>3.2</ele><time>2022-10-31T12:15:08.0000000+00:00</time></trkpt><trkpt lat="39.37730494" lon="-0.32346569"><ele>3.4</ele><time>2022-10-31T12:15:09.0000000+00:00</time></trkpt><trkpt lat="39.37723805" lon="-0.32346628"><ele>3.2</ele><time>2022-10-31T12:15:10.0000000+00:00</time></trkpt><trkpt lat="39.37717058" lon="-0.32346712"><ele>3.4</ele><time>2022-10-31T12:15:11.0000000+00:00</time></trkpt><trkpt lat="39.37710478" lon="-0.32346418"><ele>3.4</ele><time>2022-10-31T12:15:12.0000000+00:00</time></trkpt><trkpt lat="39.37704041" lon="-0.32345572"><ele>3.6</ele><time>2022-10-31T12:15:13.0000000+00:00</time></trkpt><trkpt lat="39.3769767" lon="-0.32343828"><ele>3.6</ele><time>2022-10-31T12:15:14.0000000+00:00</time></trkpt><trkpt lat="39.37691719" lon="-0.32340232"><ele>3.6</ele><time>2022-10-31T12:15:15.0000000+00:00</time></trkpt><trkpt lat="39.37686489" lon="-0.32335036"><ele>3.8</ele><time>2022-10-31T12:15:16.0000000+00:00</time></trkpt><trkpt lat="39.3768203" lon="-0.323289"><ele>3.8</ele><time>2022-10-31T12:15:17.0000000+00:00</time></trkpt><trkpt lat="39.37678141" lon="-0.32322228"><ele>3.8</ele><time>2022-10-31T12:15:18.0000000+00:00</time></trkpt><trkpt lat="39.37674603" lon="-0.32315313"><ele>3.8</ele><time>2022-10-31T12:15:19.0000000+00:00</time></trkpt><trkpt lat="39.37671519" lon="-0.32308515"><ele>4.0</ele><time>2022-10-31T12:15:20.0000000+00:00</time></trkpt><trkpt lat="39.37668141" lon="-0.32302229"><ele>4.0</ele><time>2022-10-31T12:15:21.0000000+00:00</time></trkpt><trkpt lat="39.37664453" lon="-0.32297158"><ele>4.0</ele><time>2022-10-31T12:15:22.0000000+00:00</time></trkpt><trkpt lat="39.37660304" lon="-0.32292992"><ele>4.0</ele><time>2022-10-31T12:15:23.0000000+00:00</time></trkpt><trkpt lat="39.37655308" lon="-0.32290142"><ele>4.0</ele><time>2022-10-31T12:15:24.0000000+00:00</time></trkpt><trkpt lat="39.3764981" lon="-0.32287711"><ele>3.8</ele><time>2022-10-31T12:15:25.0000000+00:00</time></trkpt><trkpt lat="39.37644085" lon="-0.32285783"><ele>3.6</ele><time>2022-10-31T12:15:26.0000000+00:00</time></trkpt><trkpt lat="39.37638268" lon="-0.32284224"><ele>3.6</ele><time>2022-10-31T12:15:27.0000000+00:00</time></trkpt><trkpt lat="39.37632518" lon="-0.32282523"><ele>3.6</ele><time>2022-10-31T12:15:28.0000000+00:00</time></trkpt><trkpt lat="39.37626408" lon="-0.32280386"><ele>3.6</ele><time>2022-10-31T12:15:29.0000000+00:00</time></trkpt><trkpt lat="39.37620658" lon="-0.322785"><ele>3.6</ele><time>2022-10-31T12:15:30.0000000+00:00</time></trkpt><trkpt lat="39.37614824" lon="-0.32276815"><ele>3.6</ele><time>2022-10-31T12:15:31.0000000+00:00</time></trkpt><trkpt lat="39.37608839" lon="-0.3227508"><ele>3.6</ele><time>2022-10-31T12:15:32.0000000+00:00</time></trkpt><trkpt lat="39.37602737" lon="-0.32273035"><ele>3.6</ele><time>2022-10-31T12:15:33.0000000+00:00</time></trkpt><trkpt lat="39.37596551" lon="-0.32270989"><ele>3.6</ele><time>2022-10-31T12:15:34.0000000+00:00</time></trkpt><trkpt lat="39.37590516" lon="-0.32268852"><ele>3.6</ele><time>2022-10-31T12:15:35.0000000+00:00</time></trkpt><trkpt lat="39.37584389" lon="-0.3226705"><ele>3.8</ele><time>2022-10-31T12:15:36.0000000+00:00</time></trkpt><trkpt lat="39.37578203" lon="-0.322657"><ele>3.8</ele><time>2022-10-31T12:15:37.0000000+00:00</time></trkpt><trkpt lat="39.37571858" lon="-0.32264787"><ele>3.8</ele><time>2022-10-31T12:15:38.0000000+00:00</time></trkpt><trkpt lat="39.37565756" lon="-0.32264359"><ele>3.6</ele><time>2022-10-31T12:15:39.0000000+00:00</time></trkpt><trkpt lat="39.37559394" lon="-0.32263949"><ele>3.6</ele><time>2022-10-31T12:15:40.0000000+00:00</time></trkpt><trkpt lat="39.37553049" lon="-0.32263504"><ele>3.6</ele><time>2022-10-31T12:15:41.0000000+00:00</time></trkpt><trkpt lat="39.37546562" lon="-0.32263454"><ele>3.6</ele><time>2022-10-31T12:15:42.0000000+00:00</time></trkpt><trkpt lat="39.37539973" lon="-0.32263421"><ele>3.4</ele><time>2022-10-31T12:15:43.0000000+00:00</time></trkpt><trkpt lat="39.37533687" lon="-0.32263362"><ele>3.4</ele><time>2022-10-31T12:15:44.0000000+00:00</time></trkpt><trkpt lat="39.37527317" lon="-0.32263253"><ele>3.4</ele><time>2022-10-31T12:15:45.0000000+00:00</time></trkpt><trkpt lat="39.37520737" lon="-0.32263027"><ele>3.4</ele><time>2022-10-31T12:15:46.0000000+00:00</time></trkpt><trkpt lat="39.37514073" lon="-0.32262901"><ele>3.4</ele><time>2022-10-31T12:15:47.0000000+00:00</time></trkpt><trkpt lat="39.37507426" lon="-0.32262691"><ele>3.4</ele><time>2022-10-31T12:15:48.0000000+00:00</time></trkpt><trkpt lat="39.37500763" lon="-0.32262021"><ele>3.4</ele><time>2022-10-31T12:15:49.0000000+00:00</time></trkpt><trkpt lat="39.374942" lon="-0.32260914"><ele>3.4</ele><time>2022-10-31T12:15:50.0000000+00:00</time></trkpt><trkpt lat="39.37487645" lon="-0.32259464"><ele>3.4</ele><time>2022-10-31T12:15:51.0000000+00:00</time></trkpt><trkpt lat="39.37481191" lon="-0.32257897"><ele>3.4</ele><time>2022-10-31T12:15:52.0000000+00:00</time></trkpt><trkpt lat="39.37475181" lon="-0.32256237"><ele>3.6</ele><time>2022-10-31T12:15:53.0000000+00:00</time></trkpt><trkpt lat="39.37468819" lon="-0.32254418"><ele>3.6</ele><time>2022-10-31T12:15:54.0000000+00:00</time></trkpt><trkpt lat="39.37463044" lon="-0.32252675"><ele>3.6</ele><time>2022-10-31T12:15:55.0000000+00:00</time></trkpt><trkpt lat="39.37457328" lon="-0.32250781"><ele>3.6</ele><time>2022-10-31T12:15:56.0000000+00:00</time></trkpt><trkpt lat="39.37451502" lon="-0.32249155"><ele>3.6</ele><time>2022-10-31T12:15:57.0000000+00:00</time></trkpt><trkpt lat="39.37446021" lon="-0.32247545"><ele>3.6</ele><time>2022-10-31T12:15:58.0000000+00:00</time></trkpt><trkpt lat="39.37440656" lon="-0.32245467"><ele>3.4</ele><time>2022-10-31T12:15:59.0000000+00:00</time></trkpt><trkpt lat="39.37435317" lon="-0.32243237"><ele>3.4</ele><time>2022-10-31T12:16:00.0000000+00:00</time></trkpt><trkpt lat="39.37430045" lon="-0.32241183"><ele>3.4</ele><time>2022-10-31T12:16:01.0000000+00:00</time></trkpt><trkpt lat="39.37424932" lon="-0.32239826"><ele>3.2</ele><time>2022-10-31T12:16:02.0000000+00:00</time></trkpt><trkpt lat="39.37419886" lon="-0.32238795"><ele>3.2</ele><time>2022-10-31T12:16:03.0000000+00:00</time></trkpt><trkpt lat="39.37414706" lon="-0.32238325"><ele>3.2</ele><time>2022-10-31T12:16:04.0000000+00:00</time></trkpt><trkpt lat="39.37409434" lon="-0.32238518"><ele>3.2</ele><time>2022-10-31T12:16:05.0000000+00:00</time></trkpt><trkpt lat="39.37404119" lon="-0.32238962"><ele>3.2</ele><time>2022-10-31T12:16:06.0000000+00:00</time></trkpt><trkpt lat="39.37399426" lon="-0.32239851"><ele>3.2</ele><time>2022-10-31T12:16:07.0000000+00:00</time></trkpt><trkpt lat="39.37395369" lon="-0.32240563"><ele>3.0</ele><time>2022-10-31T12:16:08.0000000+00:00</time></trkpt><trkpt lat="39.37391924" lon="-0.32241024"><ele>3.0</ele><time>2022-10-31T12:16:09.0000000+00:00</time></trkpt><trkpt lat="39.37388856" lon="-0.32241234"><ele>3.0</ele><time>2022-10-31T12:16:10.0000000+00:00</time></trkpt><trkpt lat="39.37386459" lon="-0.32240773"><ele>2.8</ele><time>2022-10-31T12:16:11.0000000+00:00</time></trkpt><trkpt lat="39.37385486" lon="-0.32240002"><ele>2.6</ele><time>2022-10-31T12:16:12.0000000+00:00</time></trkpt><trkpt lat="39.37385453" lon="-0.32238543"><ele>2.6</ele><time>2022-10-31T12:16:13.0000000+00:00</time></trkpt><trkpt lat="39.37386258" lon="-0.3223773"><ele>2.4</ele><time>2022-10-31T12:16:14.0000000+00:00</time></trkpt><trkpt lat="39.37387364" lon="-0.32236917"><ele>2.4</ele><time>2022-10-31T12:16:15.0000000+00:00</time></trkpt><trkpt lat="39.37388663" lon="-0.32236163"><ele>2.4</ele><time>2022-10-31T12:16:16.0000000+00:00</time></trkpt><trkpt lat="39.3739044" lon="-0.3223576"><ele>2.4</ele><time>2022-10-31T12:16:17.0000000+00:00</time></trkpt><trkpt lat="39.37392318" lon="-0.32235551"><ele>2.4</ele><time>2022-10-31T12:16:18.0000000+00:00</time></trkpt><trkpt lat="39.37394003" lon="-0.32235794"><ele>2.4</ele><time>2022-10-31T12:16:19.0000000+00:00</time></trkpt><trkpt lat="39.37395595" lon="-0.32235886"><ele>2.6</ele><time>2022-10-31T12:16:20.0000000+00:00</time></trkpt><trkpt lat="39.37396945" lon="-0.32235869"><ele>2.6</ele><time>2022-10-31T12:16:21.0000000+00:00</time></trkpt><trkpt lat="39.37398604" lon="-0.32236003"><ele>2.6</ele><time>2022-10-31T12:16:22.0000000+00:00</time></trkpt><trkpt lat="39.37400079" lon="-0.32235836"><ele>2.6</ele><time>2022-10-31T12:16:23.0000000+00:00</time></trkpt><trkpt lat="39.37401655" lon="-0.32235844"><ele>2.6</ele><time>2022-10-31T12:16:24.0000000+00:00</time></trkpt><trkpt lat="39.37403139" lon="-0.32235475"><ele>2.6</ele><time>2022-10-31T12:16:25.0000000+00:00</time></trkpt><trkpt lat="39.37404371" lon="-0.32235207"><ele>2.6</ele><time>2022-10-31T12:16:26.0000000+00:00</time></trkpt><trkpt lat="39.37405469" lon="-0.32235123"><ele>2.6</ele><time>2022-10-31T12:16:27.0000000+00:00</time></trkpt><trkpt lat="39.37406508" lon="-0.3223488"><ele>2.6</ele><time>2022-10-31T12:16:28.0000000+00:00</time></trkpt><trkpt lat="39.37407673" lon="-0.3223452"><ele>2.6</ele><time>2022-10-31T12:16:29.0000000+00:00</time></trkpt><trkpt lat="39.37408428" lon="-0.32233262"><ele>2.6</ele><time>2022-10-31T12:16:30.0000000+00:00</time></trkpt><trkpt lat="39.37408025" lon="-0.32231796"><ele>2.6</ele><time>2022-10-31T12:16:31.0000000+00:00</time></trkpt><trkpt lat="39.37407154" lon="-0.32230672"><ele>2.8</ele><time>2022-10-31T12:16:32.0000000+00:00</time></trkpt><trkpt lat="39.3740624" lon="-0.32229759"><ele>2.8</ele><time>2022-10-31T12:16:33.0000000+00:00</time></trkpt><trkpt lat="39.37405511" lon="-0.32229055"><ele>2.8</ele><time>2022-10-31T12:16:34.0000000+00:00</time></trkpt><trkpt lat="39.37404949" lon="-0.32228652"><ele>2.8</ele><time>2022-10-31T12:16:35.0000000+00:00</time></trkpt><trkpt lat="39.37404614" lon="-0.32228694"><ele>2.8</ele><time>2022-10-31T12:16:36.0000000+00:00</time></trkpt><trkpt lat="39.37404237" lon="-0.32228418"><ele>2.8</ele><time>2022-10-31T12:16:37.0000000+00:00</time></trkpt><trkpt lat="39.37403985" lon="-0.32227848"><ele>2.8</ele><time>2022-10-31T12:16:38.0000000+00:00</time></trkpt><trkpt lat="39.374037" lon="-0.32226783"><ele>2.8</ele><time>2022-10-31T12:16:39.0000000+00:00</time></trkpt><trkpt lat="39.37403063" lon="-0.32226046"><ele>2.8</ele><time>2022-10-31T12:16:40.0000000+00:00</time></trkpt><trkpt lat="39.37402577" lon="-0.32225283"><ele>2.8</ele><time>2022-10-31T12:16:41.0000000+00:00</time></trkpt><trkpt lat="39.374022" lon="-0.32224361"><ele>2.8</ele><time>2022-10-31T12:16:42.0000000+00:00</time></trkpt><trkpt lat="39.37402125" lon="-0.32223288"><ele>2.8</ele><time>2022-10-31T12:16:43.0000000+00:00</time></trkpt><trkpt lat="39.37402309" lon="-0.32222391"><ele>2.8</ele><time>2022-10-31T12:16:44.0000000+00:00</time></trkpt><trkpt lat="39.37402829" lon="-0.32221721"><ele>2.8</ele><time>2022-10-31T12:16:45.0000000+00:00</time></trkpt><trkpt lat="39.37404153" lon="-0.32221788"><ele>2.6</ele><time>2022-10-31T12:16:46.0000000+00:00</time></trkpt><trkpt lat="39.37405041" lon="-0.32221913"><ele>2.6</ele><time>2022-10-31T12:16:47.0000000+00:00</time></trkpt><trkpt lat="39.37405377" lon="-0.32222961"><ele>2.6</ele><time>2022-10-31T12:16:48.0000000+00:00</time></trkpt><trkpt lat="39.37404991" lon="-0.32225207"><ele>2.6</ele><time>2022-10-31T12:16:49.0000000+00:00</time></trkpt><trkpt lat="39.37404321" lon="-0.32227982"><ele>2.6</ele><time>2022-10-31T12:16:50.0000000+00:00</time></trkpt><trkpt lat="39.37402837" lon="-0.3223089"><ele>2.6</ele><time>2022-10-31T12:16:51.0000000+00:00</time></trkpt><trkpt lat="39.37400532" lon="-0.3223338"><ele>2.6</ele><time>2022-10-31T12:16:52.0000000+00:00</time></trkpt><trkpt lat="39.37397548" lon="-0.32235559"><ele>2.8</ele><time>2022-10-31T12:16:53.0000000+00:00</time></trkpt><trkpt lat="39.37394531" lon="-0.32237764"><ele>2.8</ele><time>2022-10-31T12:16:54.0000000+00:00</time></trkpt><trkpt lat="39.37391521" lon="-0.32239884"><ele>2.6</ele><time>2022-10-31T12:16:55.0000000+00:00</time></trkpt><trkpt lat="39.37388454" lon="-0.32242189"><ele>2.6</ele><time>2022-10-31T12:16:56.0000000+00:00</time></trkpt><trkpt lat="39.37385428" lon="-0.32243639"><ele>2.6</ele><time>2022-10-31T12:16:57.0000000+00:00</time></trkpt><trkpt lat="39.37382285" lon="-0.32244058"><ele>2.6</ele><time>2022-10-31T12:16:58.0000000+00:00</time></trkpt><trkpt lat="39.37378647" lon="-0.32243815"><ele>2.6</ele><time>2022-10-31T12:16:59.0000000+00:00</time></trkpt><trkpt lat="39.37374942" lon="-0.32242357"><ele>2.6</ele><time>2022-10-31T12:17:00.0000000+00:00</time></trkpt><trkpt lat="39.37370986" lon="-0.32240622"><ele>2.6</ele><time>2022-10-31T12:17:01.0000000+00:00</time></trkpt><trkpt lat="39.37366686" lon="-0.32239188"><ele>2.6</ele><time>2022-10-31T12:17:02.0000000+00:00</time></trkpt><trkpt lat="39.37362" lon="-0.3223799"><ele>2.6</ele><time>2022-10-31T12:17:03.0000000+00:00</time></trkpt><trkpt lat="39.37357131" lon="-0.322369"><ele>2.6</ele><time>2022-10-31T12:17:04.0000000+00:00</time></trkpt><trkpt lat="39.37352361" lon="-0.3223633"><ele>2.6</ele><time>2022-10-31T12:17:05.0000000+00:00</time></trkpt><trkpt lat="39.37347424" lon="-0.32235886"><ele>2.6</ele><time>2022-10-31T12:17:06.0000000+00:00</time></trkpt><trkpt lat="39.37342345" lon="-0.32235593"><ele>2.4</ele><time>2022-10-31T12:17:07.0000000+00:00</time></trkpt><trkpt lat="39.37337056" lon="-0.32235073"><ele>2.4</ele><time>2022-10-31T12:17:08.0000000+00:00</time></trkpt><trkpt lat="39.37332035" lon="-0.32234939"><ele>2.4</ele><time>2022-10-31T12:17:09.0000000+00:00</time></trkpt><trkpt lat="39.37326805" lon="-0.32234428"><ele>2.4</ele><time>2022-10-31T12:17:10.0000000+00:00</time></trkpt><trkpt lat="39.37321373" lon="-0.32233707"><ele>2.4</ele><time>2022-10-31T12:17:11.0000000+00:00</time></trkpt><trkpt lat="39.37315757" lon="-0.32233321"><ele>2.4</ele><time>2022-10-31T12:17:12.0000000+00:00</time></trkpt><trkpt lat="39.37310334" lon="-0.32233346"><ele>2.4</ele><time>2022-10-31T12:17:13.0000000+00:00</time></trkpt><trkpt lat="39.37304752" lon="-0.32233531"><ele>2.4</ele><time>2022-10-31T12:17:14.0000000+00:00</time></trkpt><trkpt lat="39.37298642" lon="-0.3223317"><ele>2.4</ele><time>2022-10-31T12:17:15.0000000+00:00</time></trkpt><trkpt lat="39.3729269" lon="-0.32232994"><ele>2.6</ele><time>2022-10-31T12:17:16.0000000+00:00</time></trkpt><trkpt lat="39.37286706" lon="-0.32233128"><ele>2.6</ele><time>2022-10-31T12:17:17.0000000+00:00</time></trkpt><trkpt lat="39.3728104" lon="-0.32233589"><ele>2.6</ele><time>2022-10-31T12:17:18.0000000+00:00</time></trkpt><trkpt lat="39.37275575" lon="-0.32234218"><ele>2.6</ele><time>2022-10-31T12:17:19.0000000+00:00</time></trkpt><trkpt lat="39.37269959" lon="-0.32234654"><ele>2.6</ele><time>2022-10-31T12:17:20.0000000+00:00</time></trkpt><trkpt lat="39.37263932" lon="-0.32234805"><ele>2.6</ele><time>2022-10-31T12:17:21.0000000+00:00</time></trkpt><trkpt lat="39.37258249" lon="-0.32234478"><ele>2.6</ele><time>2022-10-31T12:17:22.0000000+00:00</time></trkpt><trkpt lat="39.37252474" lon="-0.32233749"><ele>2.6</ele><time>2022-10-31T12:17:23.0000000+00:00</time></trkpt><trkpt lat="39.37246732" lon="-0.32232869"><ele>2.6</ele><time>2022-10-31T12:17:24.0000000+00:00</time></trkpt><trkpt lat="39.37241008" lon="-0.32231611"><ele>2.8</ele><time>2022-10-31T12:17:25.0000000+00:00</time></trkpt><trkpt lat="39.37235492" lon="-0.32229952"><ele>2.8</ele><time>2022-10-31T12:17:26.0000000+00:00</time></trkpt><trkpt lat="39.37230002" lon="-0.32227554"><ele>2.8</ele><time>2022-10-31T12:17:27.0000000+00:00</time></trkpt><trkpt lat="39.37224504" lon="-0.32224914"><ele>2.8</ele><time>2022-10-31T12:17:28.0000000+00:00</time></trkpt><trkpt lat="39.37219005" lon="-0.32222064"><ele>2.6</ele><time>2022-10-31T12:17:29.0000000+00:00</time></trkpt><trkpt lat="39.3721354" lon="-0.32219005"><ele>2.6</ele><time>2022-10-31T12:17:30.0000000+00:00</time></trkpt><trkpt lat="39.37207899" lon="-0.32215769"><ele>2.6</ele><time>2022-10-31T12:17:31.0000000+00:00</time></trkpt><trkpt lat="39.37202359" lon="-0.32212651"><ele>2.8</ele><time>2022-10-31T12:17:32.0000000+00:00</time></trkpt><trkpt lat="39.37196776" lon="-0.32209927"><ele>2.6</ele><time>2022-10-31T12:17:33.0000000+00:00</time></trkpt><trkpt lat="39.37191253" lon="-0.32207027"><ele>2.8</ele><time>2022-10-31T12:17:34.0000000+00:00</time></trkpt><trkpt lat="39.37187045" lon="-0.32204278"><ele>2.8</ele><time>2022-10-31T12:17:35.0000000+00:00</time></trkpt><trkpt lat="39.37182326" lon="-0.32200196"><ele>2.8</ele><time>2022-10-31T12:17:36.0000000+00:00</time></trkpt><trkpt lat="39.3717707" lon="-0.32194278"><ele>2.8</ele><time>2022-10-31T12:17:37.0000000+00:00</time></trkpt><trkpt lat="39.37172947" lon="-0.32188394"><ele>2.8</ele><time>2022-10-31T12:17:38.0000000+00:00</time></trkpt><trkpt lat="39.37168789" lon="-0.321822"><ele>2.8</ele><time>2022-10-31T12:17:39.0000000+00:00</time></trkpt><trkpt lat="39.37165034" lon="-0.32175905"><ele>2.8</ele><time>2022-10-31T12:17:40.0000000+00:00</time></trkpt><trkpt lat="39.37161497" lon="-0.32169242"><ele>2.8</ele><time>2022-10-31T12:17:41.0000000+00:00</time></trkpt><trkpt lat="39.37157951" lon="-0.32162804"><ele>2.8</ele><time>2022-10-31T12:17:42.0000000+00:00</time></trkpt><trkpt lat="39.37154464" lon="-0.32156291"><ele>3.0</ele><time>2022-10-31T12:17:43.0000000+00:00</time></trkpt><trkpt lat="39.37151061" lon="-0.32150181"><ele>3.0</ele><time>2022-10-31T12:17:44.0000000+00:00</time></trkpt><trkpt lat="39.37147709" lon="-0.32144465"><ele>3.0</ele><time>2022-10-31T12:17:45.0000000+00:00</time></trkpt><trkpt lat="39.37144171" lon="-0.32138748"><ele>3.4</ele><time>2022-10-31T12:17:46.0000000+00:00</time></trkpt><trkpt lat="39.37140316" lon="-0.32133861"><ele>3.4</ele><time>2022-10-31T12:17:47.0000000+00:00</time></trkpt><trkpt lat="39.37137122" lon="-0.32131146"><ele>3.6</ele><time>2022-10-31T12:17:48.0000000+00:00</time></trkpt><trkpt lat="39.37133158" lon="-0.32128329"><ele>3.4</ele><time>2022-10-31T12:17:49.0000000+00:00</time></trkpt><trkpt lat="39.37129336" lon="-0.32127022"><ele>3.6</ele><time>2022-10-31T12:17:50.0000000+00:00</time></trkpt><trkpt lat="39.37125706" lon="-0.32127173"><ele>3.4</ele><time>2022-10-31T12:17:51.0000000+00:00</time></trkpt><trkpt lat="39.37122454" lon="-0.32127667"><ele>3.4</ele><time>2022-10-31T12:17:52.0000000+00:00</time></trkpt><trkpt lat="39.37119202" lon="-0.3212786"><ele>3.4</ele><time>2022-10-31T12:17:53.0000000+00:00</time></trkpt><trkpt lat="39.37115841" lon="-0.32128028"><ele>3.2</ele><time>2022-10-31T12:17:54.0000000+00:00</time></trkpt><trkpt lat="39.37111767" lon="-0.32128489"><ele>3.2</ele><time>2022-10-31T12:17:55.0000000+00:00</time></trkpt><trkpt lat="39.37108607" lon="-0.3212926"><ele>3.2</ele><time>2022-10-31T12:17:56.0000000+00:00</time></trkpt><trkpt lat="39.37105363" lon="-0.32129981"><ele>3.2</ele><time>2022-10-31T12:17:57.0000000+00:00</time></trkpt><trkpt lat="39.37102052" lon="-0.32131439"><ele>3.2</ele><time>2022-10-31T12:17:58.0000000+00:00</time></trkpt><trkpt lat="39.37098314" lon="-0.32133241"><ele>3.2</ele><time>2022-10-31T12:17:59.0000000+00:00</time></trkpt><trkpt lat="39.37094349" lon="-0.32135077"><ele>3.2</ele><time>2022-10-31T12:18:00.0000000+00:00</time></trkpt><trkpt lat="39.3709046" lon="-0.32136963"><ele>3.4</ele><time>2022-10-31T12:18:01.0000000+00:00</time></trkpt><trkpt lat="39.37085867" lon="-0.32139922"><ele>3.4</ele><time>2022-10-31T12:18:02.0000000+00:00</time></trkpt><trkpt lat="39.37083545" lon="-0.32143115"><ele>3.4</ele><time>2022-10-31T12:18:03.0000000+00:00</time></trkpt><trkpt lat="39.3708155" lon="-0.32147893"><ele>3.4</ele><time>2022-10-31T12:18:04.0000000+00:00</time></trkpt><trkpt lat="39.37080243" lon="-0.32153349"><ele>3.4</ele><time>2022-10-31T12:18:05.0000000+00:00</time></trkpt><trkpt lat="39.37078717" lon="-0.32159007"><ele>3.4</ele><time>2022-10-31T12:18:06.0000000+00:00</time></trkpt><trkpt lat="39.37076965" lon="-0.32164975"><ele>3.6</ele><time>2022-10-31T12:18:07.0000000+00:00</time></trkpt><trkpt lat="39.37075046" lon="-0.32171194"><ele>3.6</ele><time>2022-10-31T12:18:08.0000000+00:00</time></trkpt><trkpt lat="39.37072624" lon="-0.32177179"><ele>3.6</ele><time>2022-10-31T12:18:09.0000000+00:00</time></trkpt><trkpt lat="39.37069019" lon="-0.32182041"><ele>3.6</ele><time>2022-10-31T12:18:10.0000000+00:00</time></trkpt><trkpt lat="39.37064753" lon="-0.32185226"><ele>3.6</ele><time>2022-10-31T12:18:11.0000000+00:00</time></trkpt><trkpt lat="39.37059556" lon="-0.32186123"><ele>3.6</ele><time>2022-10-31T12:18:12.0000000+00:00</time></trkpt><trkpt lat="39.3705394" lon="-0.32185326"><ele>3.6</ele><time>2022-10-31T12:18:13.0000000+00:00</time></trkpt><trkpt lat="39.37048123" lon="-0.32183742"><ele>3.6</ele><time>2022-10-31T12:18:14.0000000+00:00</time></trkpt><trkpt lat="39.37042264" lon="-0.32182242"><ele>3.6</ele><time>2022-10-31T12:18:15.0000000+00:00</time></trkpt><trkpt lat="39.37036472" lon="-0.32180356"><ele>3.6</ele><time>2022-10-31T12:18:16.0000000+00:00</time></trkpt><trkpt lat="39.37030731" lon="-0.3217816"><ele>3.6</ele><time>2022-10-31T12:18:17.0000000+00:00</time></trkpt><trkpt lat="39.37024679" lon="-0.32175972"><ele>3.6</ele><time>2022-10-31T12:18:18.0000000+00:00</time></trkpt><trkpt lat="39.37018468" lon="-0.32174002"><ele>3.6</ele><time>2022-10-31T12:18:19.0000000+00:00</time></trkpt><trkpt lat="39.37012333" lon="-0.32171999"><ele>3.6</ele><time>2022-10-31T12:18:20.0000000+00:00</time></trkpt><trkpt lat="39.37006205" lon="-0.32169845"><ele>3.8</ele><time>2022-10-31T12:18:21.0000000+00:00</time></trkpt><trkpt lat="39.36999994" lon="-0.32167532"><ele>4.0</ele><time>2022-10-31T12:18:22.0000000+00:00</time></trkpt><trkpt lat="39.36993993" lon="-0.32165268"><ele>4.0</ele><time>2022-10-31T12:18:23.0000000+00:00</time></trkpt><trkpt lat="39.36987748" lon="-0.32162972"><ele>4.0</ele><time>2022-10-31T12:18:24.0000000+00:00</time></trkpt><trkpt lat="39.36981688" lon="-0.32160717"><ele>4.0</ele><time>2022-10-31T12:18:25.0000000+00:00</time></trkpt><trkpt lat="39.3697562" lon="-0.32158261"><ele>4.0</ele><time>2022-10-31T12:18:26.0000000+00:00</time></trkpt><trkpt lat="39.36969836" lon="-0.32155755"><ele>4.0</ele><time>2022-10-31T12:18:27.0000000+00:00</time></trkpt><trkpt lat="39.36963977" lon="-0.32153375"><ele>3.8</ele><time>2022-10-31T12:18:28.0000000+00:00</time></trkpt><trkpt lat="39.36958051" lon="-0.32151053"><ele>3.8</ele><time>2022-10-31T12:18:29.0000000+00:00</time></trkpt><trkpt lat="39.36952058" lon="-0.32148991"><ele>3.8</ele><time>2022-10-31T12:18:30.0000000+00:00</time></trkpt><trkpt lat="39.36946493" lon="-0.3214687"><ele>3.8</ele><time>2022-10-31T12:18:31.0000000+00:00</time></trkpt><trkpt lat="39.36940651" lon="-0.32144389"><ele>3.8</ele><time>2022-10-31T12:18:32.0000000+00:00</time></trkpt><trkpt lat="39.36934641" lon="-0.32142528"><ele>3.8</ele><time>2022-10-31T12:18:33.0000000+00:00</time></trkpt><trkpt lat="39.36928874" lon="-0.32140936"><ele>3.6</ele><time>2022-10-31T12:18:34.0000000+00:00</time></trkpt><trkpt lat="39.36923082" lon="-0.32138446"><ele>3.6</ele><time>2022-10-31T12:18:35.0000000+00:00</time></trkpt><trkpt lat="39.36917366" lon="-0.32136133"><ele>3.6</ele><time>2022-10-31T12:18:36.0000000+00:00</time></trkpt><trkpt lat="39.3691149" lon="-0.32134214"><ele>3.6</ele><time>2022-10-31T12:18:37.0000000+00:00</time></trkpt><trkpt lat="39.36905455" lon="-0.32132152"><ele>3.4</ele><time>2022-10-31T12:18:38.0000000+00:00</time></trkpt><trkpt lat="39.36899562" lon="-0.32130098"><ele>3.4</ele><time>2022-10-31T12:18:39.0000000+00:00</time></trkpt><trkpt lat="39.36893603" lon="-0.32127625"><ele>3.4</ele><time>2022-10-31T12:18:40.0000000+00:00</time></trkpt><trkpt lat="39.36887694" lon="-0.32125211"><ele>3.4</ele><time>2022-10-31T12:18:41.0000000+00:00</time></trkpt><trkpt lat="39.3688212" lon="-0.32123191"><ele>3.4</ele><time>2022-10-31T12:18:42.0000000+00:00</time></trkpt><trkpt lat="39.36876454" lon="-0.32121238"><ele>3.6</ele><time>2022-10-31T12:18:43.0000000+00:00</time></trkpt><trkpt lat="39.36870704" lon="-0.3211885"><ele>3.8</ele><time>2022-10-31T12:18:44.0000000+00:00</time></trkpt><trkpt lat="39.36864727" lon="-0.32116452"><ele>3.8</ele><time>2022-10-31T12:18:45.0000000+00:00</time></trkpt><trkpt lat="39.36858709" lon="-0.32114323"><ele>3.8</ele><time>2022-10-31T12:18:46.0000000+00:00</time></trkpt><trkpt lat="39.36852548" lon="-0.32112094"><ele>4.0</ele><time>2022-10-31T12:18:47.0000000+00:00</time></trkpt><trkpt lat="39.36846396" lon="-0.3210973"><ele>4.0</ele><time>2022-10-31T12:18:48.0000000+00:00</time></trkpt><trkpt lat="39.36840319" lon="-0.32107215"><ele>4.0</ele><time>2022-10-31T12:18:49.0000000+00:00</time></trkpt><trkpt lat="39.36834259" lon="-0.32105221"><ele>4.0</ele><time>2022-10-31T12:18:50.0000000+00:00</time></trkpt><trkpt lat="39.36828308" lon="-0.32103226"><ele>3.8</ele><time>2022-10-31T12:18:51.0000000+00:00</time></trkpt><trkpt lat="39.36822189" lon="-0.32101298"><ele>3.8</ele><time>2022-10-31T12:18:52.0000000+00:00</time></trkpt><trkpt lat="39.36816087" lon="-0.32099202"><ele>3.8</ele><time>2022-10-31T12:18:53.0000000+00:00</time></trkpt><trkpt lat="39.36809926" lon="-0.32097199"><ele>3.8</ele><time>2022-10-31T12:18:54.0000000+00:00</time></trkpt><trkpt lat="39.36804076" lon="-0.32095665"><ele>3.8</ele><time>2022-10-31T12:18:55.0000000+00:00</time></trkpt><trkpt lat="39.36798234" lon="-0.32093377"><ele>3.8</ele><time>2022-10-31T12:18:56.0000000+00:00</time></trkpt><trkpt lat="39.36792215" lon="-0.32091072"><ele>3.8</ele><time>2022-10-31T12:18:57.0000000+00:00</time></trkpt><trkpt lat="39.36786206" lon="-0.32089094"><ele>3.8</ele><time>2022-10-31T12:18:58.0000000+00:00</time></trkpt><trkpt lat="39.36780062" lon="-0.32086336"><ele>4.0</ele><time>2022-10-31T12:18:59.0000000+00:00</time></trkpt><trkpt lat="39.36773926" lon="-0.32083822"><ele>4.0</ele><time>2022-10-31T12:19:00.0000000+00:00</time></trkpt><trkpt lat="39.36767933" lon="-0.32081567"><ele>4.0</ele><time>2022-10-31T12:19:01.0000000+00:00</time></trkpt><trkpt lat="39.3676168" lon="-0.32079237"><ele>4.0</ele><time>2022-10-31T12:19:02.0000000+00:00</time></trkpt><trkpt lat="39.36755335" lon="-0.32076932"><ele>4.0</ele><time>2022-10-31T12:19:03.0000000+00:00</time></trkpt><trkpt lat="39.36748864" lon="-0.32074425"><ele>4.0</ele><time>2022-10-31T12:19:04.0000000+00:00</time></trkpt><trkpt lat="39.36742745" lon="-0.32072154"><ele>4.0</ele><time>2022-10-31T12:19:05.0000000+00:00</time></trkpt><trkpt lat="39.36736534" lon="-0.3207026"><ele>4.0</ele><time>2022-10-31T12:19:06.0000000+00:00</time></trkpt><trkpt lat="39.36730131" lon="-0.32068349"><ele>4.0</ele><time>2022-10-31T12:19:07.0000000+00:00</time></trkpt><trkpt lat="39.36723693" lon="-0.32066111"><ele>4.0</ele><time>2022-10-31T12:19:08.0000000+00:00</time></trkpt><trkpt lat="39.36717591" lon="-0.3206378"><ele>4.0</ele><time>2022-10-31T12:19:09.0000000+00:00</time></trkpt><trkpt lat="39.36711489" lon="-0.3206166"><ele>4.0</ele><time>2022-10-31T12:19:10.0000000+00:00</time></trkpt><trkpt lat="39.36705094" lon="-0.32059615"><ele>4.0</ele><time>2022-10-31T12:19:11.0000000+00:00</time></trkpt><trkpt lat="39.36698766" lon="-0.3205762"><ele>4.0</ele><time>2022-10-31T12:19:12.0000000+00:00</time></trkpt><trkpt lat="39.36692479" lon="-0.32055541"><ele>3.8</ele><time>2022-10-31T12:19:13.0000000+00:00</time></trkpt><trkpt lat="39.36686218" lon="-0.3205285"><ele>3.8</ele><time>2022-10-31T12:19:14.0000000+00:00</time></trkpt><trkpt lat="39.36679672" lon="-0.32050319"><ele>4.0</ele><time>2022-10-31T12:19:15.0000000+00:00</time></trkpt><trkpt lat="39.36673318" lon="-0.32048064"><ele>4.0</ele><time>2022-10-31T12:19:16.0000000+00:00</time></trkpt><trkpt lat="39.36666772" lon="-0.32045441"><ele>4.2</ele><time>2022-10-31T12:19:17.0000000+00:00</time></trkpt><trkpt lat="39.3666046" lon="-0.32043178"><ele>4.2</ele><time>2022-10-31T12:19:18.0000000+00:00</time></trkpt><trkpt lat="39.36654132" lon="-0.32041082"><ele>4.2</ele><time>2022-10-31T12:19:19.0000000+00:00</time></trkpt><trkpt lat="39.36648357" lon="-0.32039288"><ele>4.4</ele><time>2022-10-31T12:19:20.0000000+00:00</time></trkpt><trkpt lat="39.36642565" lon="-0.32037252"><ele>4.6</ele><time>2022-10-31T12:19:21.0000000+00:00</time></trkpt><trkpt lat="39.36636622" lon="-0.32035349"><ele>4.6</ele><time>2022-10-31T12:19:22.0000000+00:00</time></trkpt><trkpt lat="39.36630688" lon="-0.32034075"><ele>4.8</ele><time>2022-10-31T12:19:23.0000000+00:00</time></trkpt><trkpt lat="39.36625114" lon="-0.32032482"><ele>4.8</ele><time>2022-10-31T12:19:24.0000000+00:00</time></trkpt><trkpt lat="39.36619883" lon="-0.32030664"><ele>4.4</ele><time>2022-10-31T12:19:25.0000000+00:00</time></trkpt><trkpt lat="39.36614804" lon="-0.32029121"><ele>4.0</ele><time>2022-10-31T12:19:26.0000000+00:00</time></trkpt><trkpt lat="39.36609641" lon="-0.32027646"><ele>3.8</ele><time>2022-10-31T12:19:27.0000000+00:00</time></trkpt><trkpt lat="39.36604771" lon="-0.32026514"><ele>3.8</ele><time>2022-10-31T12:19:28.0000000+00:00</time></trkpt><trkpt lat="39.3660001" lon="-0.32025894"><ele>3.6</ele><time>2022-10-31T12:19:29.0000000+00:00</time></trkpt><trkpt lat="39.36595316" lon="-0.32025316"><ele>3.6</ele><time>2022-10-31T12:19:30.0000000+00:00</time></trkpt><trkpt lat="39.36589868" lon="-0.32024117"><ele>3.6</ele><time>2022-10-31T12:19:31.0000000+00:00</time></trkpt><trkpt lat="39.36584822" lon="-0.32022969"><ele>3.6</ele><time>2022-10-31T12:19:32.0000000+00:00</time></trkpt><trkpt lat="39.36580857" lon="-0.32022089"><ele>3.6</ele><time>2022-10-31T12:19:33.0000000+00:00</time></trkpt><trkpt lat="39.3657416" lon="-0.32020211"><ele>3.6</ele><time>2022-10-31T12:19:34.0000000+00:00</time></trkpt><trkpt lat="39.36569466" lon="-0.32018971"><ele>3.6</ele><time>2022-10-31T12:19:35.0000000+00:00</time></trkpt><trkpt lat="39.36563834" lon="-0.32017663"><ele>3.6</ele><time>2022-10-31T12:19:36.0000000+00:00</time></trkpt><trkpt lat="39.36558209" lon="-0.32016213"><ele>3.6</ele><time>2022-10-31T12:19:37.0000000+00:00</time></trkpt><trkpt lat="39.36552669" lon="-0.3201473"><ele>3.6</ele><time>2022-10-31T12:19:38.0000000+00:00</time></trkpt><trkpt lat="39.36546894" lon="-0.32013372"><ele>3.6</ele><time>2022-10-31T12:19:39.0000000+00:00</time></trkpt><trkpt lat="39.36541504" lon="-0.3201193"><ele>3.8</ele><time>2022-10-31T12:19:40.0000000+00:00</time></trkpt><trkpt lat="39.36535964" lon="-0.3201053"><ele>3.8</ele><time>2022-10-31T12:19:41.0000000+00:00</time></trkpt><trkpt lat="39.36530239" lon="-0.32009139"><ele>3.8</ele><time>2022-10-31T12:19:42.0000000+00:00</time></trkpt><trkpt lat="39.36524598" lon="-0.32007881"><ele>3.8</ele><time>2022-10-31T12:19:43.0000000+00:00</time></trkpt><trkpt lat="39.36518764" lon="-0.32006549"><ele>3.6</ele><time>2022-10-31T12:19:44.0000000+00:00</time></trkpt><trkpt lat="39.36512746" lon="-0.32005191"><ele>3.6</ele><time>2022-10-31T12:19:45.0000000+00:00</time></trkpt><trkpt lat="39.36507055" lon="-0.32003992"><ele>3.4</ele><time>2022-10-31T12:19:46.0000000+00:00</time></trkpt><trkpt lat="39.36501045" lon="-0.32002685"><ele>3.4</ele><time>2022-10-31T12:19:47.0000000+00:00</time></trkpt><trkpt lat="39.36494691" lon="-0.32001704"><ele>3.4</ele><time>2022-10-31T12:19:48.0000000+00:00</time></trkpt><trkpt lat="39.36488363" lon="-0.32000623"><ele>3.4</ele><time>2022-10-31T12:19:49.0000000+00:00</time></trkpt><trkpt lat="39.36481951" lon="-0.31999424"><ele>3.4</ele><time>2022-10-31T12:19:50.0000000+00:00</time></trkpt><trkpt lat="39.36475539" lon="-0.31998276"><ele>3.4</ele><time>2022-10-31T12:19:51.0000000+00:00</time></trkpt><trkpt lat="39.36469009" lon="-0.31996868"><ele>3.4</ele><time>2022-10-31T12:19:52.0000000+00:00</time></trkpt><trkpt lat="39.36462538" lon="-0.31995401"><ele>3.4</ele><time>2022-10-31T12:19:53.0000000+00:00</time></trkpt><trkpt lat="39.36456487" lon="-0.3199318"><ele>3.4</ele><time>2022-10-31T12:19:54.0000000+00:00</time></trkpt><trkpt lat="39.36450125" lon="-0.31991235"><ele>3.6</ele><time>2022-10-31T12:19:55.0000000+00:00</time></trkpt><trkpt lat="39.36443771" lon="-0.31989844"><ele>3.6</ele><time>2022-10-31T12:19:56.0000000+00:00</time></trkpt><trkpt lat="39.36437652" lon="-0.31988293"><ele>3.8</ele><time>2022-10-31T12:19:57.0000000+00:00</time></trkpt><trkpt lat="39.36431559" lon="-0.31986801"><ele>3.8</ele><time>2022-10-31T12:19:58.0000000+00:00</time></trkpt><trkpt lat="39.36425759" lon="-0.31985091"><ele>3.8</ele><time>2022-10-31T12:19:59.0000000+00:00</time></trkpt><trkpt lat="39.36419933" lon="-0.31983448"><ele>3.8</ele><time>2022-10-31T12:20:00.0000000+00:00</time></trkpt><trkpt lat="39.36414317" lon="-0.31981629"><ele>3.8</ele><time>2022-10-31T12:20:01.0000000+00:00</time></trkpt><trkpt lat="39.36408752" lon="-0.31979752"><ele>3.8</ele><time>2022-10-31T12:20:02.0000000+00:00</time></trkpt><trkpt lat="39.36403438" lon="-0.31978268"><ele>3.8</ele><time>2022-10-31T12:20:03.0000000+00:00</time></trkpt><trkpt lat="39.36398082" lon="-0.3197717"><ele>3.6</ele><time>2022-10-31T12:20:04.0000000+00:00</time></trkpt><trkpt lat="39.36393052" lon="-0.31976097"><ele>3.6</ele><time>2022-10-31T12:20:05.0000000+00:00</time></trkpt><trkpt lat="39.3638809" lon="-0.31975033"><ele>3.6</ele><time>2022-10-31T12:20:06.0000000+00:00</time></trkpt><trkpt lat="39.36383363" lon="-0.31973801"><ele>3.6</ele><time>2022-10-31T12:20:07.0000000+00:00</time></trkpt><trkpt lat="39.36377739" lon="-0.31972636"><ele>3.6</ele><time>2022-10-31T12:20:08.0000000+00:00</time></trkpt><trkpt lat="39.36374051" lon="-0.31972149"><ele>3.6</ele><time>2022-10-31T12:20:09.0000000+00:00</time></trkpt><trkpt lat="39.36368535" lon="-0.31971144"><ele>3.6</ele><time>2022-10-31T12:20:10.0000000+00:00</time></trkpt><trkpt lat="39.36363749" lon="-0.3196966"><ele>3.6</ele><time>2022-10-31T12:20:11.0000000+00:00</time></trkpt><trkpt lat="39.3636012" lon="-0.31969132"><ele>3.6</ele><time>2022-10-31T12:20:12.0000000+00:00</time></trkpt><trkpt lat="39.3635468" lon="-0.31968285"><ele>3.4</ele><time>2022-10-31T12:20:13.0000000+00:00</time></trkpt><trkpt lat="39.36350238" lon="-0.31967489"><ele>3.4</ele><time>2022-10-31T12:20:14.0000000+00:00</time></trkpt><trkpt lat="39.36346835" lon="-0.31967036"><ele>3.4</ele><time>2022-10-31T12:20:15.0000000+00:00</time></trkpt><trkpt lat="39.36341085" lon="-0.31965955"><ele>3.4</ele><time>2022-10-31T12:20:16.0000000+00:00</time></trkpt><trkpt lat="39.36337011" lon="-0.31964941"><ele>3.4</ele><time>2022-10-31T12:20:17.0000000+00:00</time></trkpt><trkpt lat="39.36331605" lon="-0.31963524"><ele>3.4</ele><time>2022-10-31T12:20:18.0000000+00:00</time></trkpt><trkpt lat="39.36326441" lon="-0.31962628"><ele>3.4</ele><time>2022-10-31T12:20:19.0000000+00:00</time></trkpt><trkpt lat="39.36321463" lon="-0.31961974"><ele>3.4</ele><time>2022-10-31T12:20:20.0000000+00:00</time></trkpt><trkpt lat="39.36316098" lon="-0.31961261"><ele>3.4</ele><time>2022-10-31T12:20:21.0000000+00:00</time></trkpt><trkpt lat="39.36309602" lon="-0.3195992"><ele>3.4</ele><time>2022-10-31T12:20:22.0000000+00:00</time></trkpt><trkpt lat="39.36305218" lon="-0.31958822"><ele>3.4</ele><time>2022-10-31T12:20:23.0000000+00:00</time></trkpt><trkpt lat="39.36299368" lon="-0.3195728"><ele>3.6</ele><time>2022-10-31T12:20:24.0000000+00:00</time></trkpt><trkpt lat="39.36293559" lon="-0.31955671"><ele>3.4</ele><time>2022-10-31T12:20:25.0000000+00:00</time></trkpt><trkpt lat="39.36287767" lon="-0.31954237"><ele>3.4</ele><time>2022-10-31T12:20:26.0000000+00:00</time></trkpt><trkpt lat="39.36281967" lon="-0.31952603"><ele>3.4</ele><time>2022-10-31T12:20:27.0000000+00:00</time></trkpt><trkpt lat="39.36276292" lon="-0.31951035"><ele>3.4</ele><time>2022-10-31T12:20:28.0000000+00:00</time></trkpt><trkpt lat="39.36270752" lon="-0.31949937"><ele>3.4</ele><time>2022-10-31T12:20:29.0000000+00:00</time></trkpt><trkpt lat="39.36264918" lon="-0.31948546"><ele>3.4</ele><time>2022-10-31T12:20:30.0000000+00:00</time></trkpt><trkpt lat="39.36259051" lon="-0.31946962"><ele>3.4</ele><time>2022-10-31T12:20:31.0000000+00:00</time></trkpt><trkpt lat="39.36252974" lon="-0.31945411"><ele>3.4</ele><time>2022-10-31T12:20:32.0000000+00:00</time></trkpt><trkpt lat="39.36246973" lon="-0.31943844"><ele>3.6</ele><time>2022-10-31T12:20:33.0000000+00:00</time></trkpt><trkpt lat="39.3624108" lon="-0.31942503"><ele>3.6</ele><time>2022-10-31T12:20:34.0000000+00:00</time></trkpt><trkpt lat="39.36234995" lon="-0.31940927"><ele>3.6</ele><time>2022-10-31T12:20:35.0000000+00:00</time></trkpt><trkpt lat="39.36229052" lon="-0.31939091"><ele>3.6</ele><time>2022-10-31T12:20:36.0000000+00:00</time></trkpt><trkpt lat="39.36223202" lon="-0.31937423"><ele>3.4</ele><time>2022-10-31T12:20:37.0000000+00:00</time></trkpt><trkpt lat="39.36217183" lon="-0.31935764"><ele>3.6</ele><time>2022-10-31T12:20:38.0000000+00:00</time></trkpt><trkpt lat="39.36211039" lon="-0.3193371"><ele>3.6</ele><time>2022-10-31T12:20:39.0000000+00:00</time></trkpt><trkpt lat="39.36204937" lon="-0.31931824"><ele>3.6</ele><time>2022-10-31T12:20:40.0000000+00:00</time></trkpt><trkpt lat="39.36198768" lon="-0.31929913"><ele>3.6</ele><time>2022-10-31T12:20:41.0000000+00:00</time></trkpt><trkpt lat="39.36192524" lon="-0.31927566"><ele>3.4</ele><time>2022-10-31T12:20:42.0000000+00:00</time></trkpt><trkpt lat="39.36186271" lon="-0.31925144"><ele>3.4</ele><time>2022-10-31T12:20:43.0000000+00:00</time></trkpt><trkpt lat="39.36179775" lon="-0.31922864"><ele>3.4</ele><time>2022-10-31T12:20:44.0000000+00:00</time></trkpt><trkpt lat="39.36173497" lon="-0.31920651"><ele>3.4</ele><time>2022-10-31T12:20:45.0000000+00:00</time></trkpt><trkpt lat="39.36167085" lon="-0.31918522"><ele>3.2</ele><time>2022-10-31T12:20:46.0000000+00:00</time></trkpt><trkpt lat="39.36160798" lon="-0.3191641"><ele>3.2</ele><time>2022-10-31T12:20:47.0000000+00:00</time></trkpt><trkpt lat="39.36154353" lon="-0.31913996"><ele>3.0</ele><time>2022-10-31T12:20:48.0000000+00:00</time></trkpt><trkpt lat="39.36148007" lon="-0.31911615"><ele>3.0</ele><time>2022-10-31T12:20:49.0000000+00:00</time></trkpt><trkpt lat="39.36141612" lon="-0.31909419"><ele>3.0</ele><time>2022-10-31T12:20:50.0000000+00:00</time></trkpt><trkpt lat="39.36135175" lon="-0.31907072"><ele>3.0</ele><time>2022-10-31T12:20:51.0000000+00:00</time></trkpt><trkpt lat="39.3612888" lon="-0.3190465"><ele>3.2</ele><time>2022-10-31T12:20:52.0000000+00:00</time></trkpt><trkpt lat="39.36122652" lon="-0.31902093"><ele>3.4</ele><time>2022-10-31T12:20:53.0000000+00:00</time></trkpt><trkpt lat="39.36116508" lon="-0.31899688"><ele>3.6</ele><time>2022-10-31T12:20:54.0000000+00:00</time></trkpt><trkpt lat="39.36110255" lon="-0.31897819"><ele>3.6</ele><time>2022-10-31T12:20:55.0000000+00:00</time></trkpt><trkpt lat="39.36104111" lon="-0.31895991"><ele>3.8</ele><time>2022-10-31T12:20:56.0000000+00:00</time></trkpt><trkpt lat="39.36097808" lon="-0.3189434"><ele>3.8</ele><time>2022-10-31T12:20:57.0000000+00:00</time></trkpt><trkpt lat="39.36091497" lon="-0.3189289"><ele>3.8</ele><time>2022-10-31T12:20:58.0000000+00:00</time></trkpt><trkpt lat="39.36085068" lon="-0.31891574"><ele>4.0</ele><time>2022-10-31T12:20:59.0000000+00:00</time></trkpt><trkpt lat="39.36078656" lon="-0.31890258"><ele>4.0</ele><time>2022-10-31T12:21:00.0000000+00:00</time></trkpt><trkpt lat="39.36072101" lon="-0.31888817"><ele>4.0</ele><time>2022-10-31T12:21:01.0000000+00:00</time></trkpt><trkpt lat="39.36065504" lon="-0.31887014"><ele>4.0</ele><time>2022-10-31T12:21:02.0000000+00:00</time></trkpt><trkpt lat="39.36059193" lon="-0.31885237"><ele>4.0</ele><time>2022-10-31T12:21:03.0000000+00:00</time></trkpt><trkpt lat="39.3605263" lon="-0.31883427"><ele>4.0</ele><time>2022-10-31T12:21:04.0000000+00:00</time></trkpt><trkpt lat="39.36046511" lon="-0.31881382"><ele>3.8</ele><time>2022-10-31T12:21:05.0000000+00:00</time></trkpt><trkpt lat="39.36040417" lon="-0.31878867"><ele>3.8</ele><time>2022-10-31T12:21:06.0000000+00:00</time></trkpt><trkpt lat="39.36034533" lon="-0.31875908"><ele>3.8</ele><time>2022-10-31T12:21:07.0000000+00:00</time></trkpt><trkpt lat="39.36028599" lon="-0.31872648"><ele>3.8</ele><time>2022-10-31T12:21:08.0000000+00:00</time></trkpt><trkpt lat="39.36022874" lon="-0.31869077"><ele>3.8</ele><time>2022-10-31T12:21:09.0000000+00:00</time></trkpt><trkpt lat="39.36017158" lon="-0.31865481"><ele>3.8</ele><time>2022-10-31T12:21:10.0000000+00:00</time></trkpt><trkpt lat="39.36011416" lon="-0.31861802"><ele>3.8</ele><time>2022-10-31T12:21:11.0000000+00:00</time></trkpt><trkpt lat="39.36005356" lon="-0.31858424"><ele>4.0</ele><time>2022-10-31T12:21:12.0000000+00:00</time></trkpt><trkpt lat="39.35999103" lon="-0.31855507"><ele>4.0</ele><time>2022-10-31T12:21:13.0000000+00:00</time></trkpt><trkpt lat="39.35992741" lon="-0.31853009"><ele>4.0</ele><time>2022-10-31T12:21:14.0000000+00:00</time></trkpt><trkpt lat="39.35986513" lon="-0.31850687"><ele>4.0</ele><time>2022-10-31T12:21:15.0000000+00:00</time></trkpt><trkpt lat="39.35980227" lon="-0.31848374"><ele>4.0</ele><time>2022-10-31T12:21:16.0000000+00:00</time></trkpt><trkpt lat="39.35973924" lon="-0.31846379"><ele>4.2</ele><time>2022-10-31T12:21:17.0000000+00:00</time></trkpt><trkpt lat="39.35967453" lon="-0.31844677"><ele>4.4</ele><time>2022-10-31T12:21:18.0000000+00:00</time></trkpt><trkpt lat="39.35961208" lon="-0.31843135"><ele>4.4</ele><time>2022-10-31T12:21:19.0000000+00:00</time></trkpt><trkpt lat="39.35954863" lon="-0.31841744"><ele>4.4</ele><time>2022-10-31T12:21:20.0000000+00:00</time></trkpt><trkpt lat="39.35948443" lon="-0.31840025"><ele>4.4</ele><time>2022-10-31T12:21:21.0000000+00:00</time></trkpt><trkpt lat="39.35942131" lon="-0.31838282"><ele>4.4</ele><time>2022-10-31T12:21:22.0000000+00:00</time></trkpt><trkpt lat="39.35935685" lon="-0.31836413"><ele>4.4</ele><time>2022-10-31T12:21:23.0000000+00:00</time></trkpt><trkpt lat="39.35929273" lon="-0.31834242"><ele>4.6</ele><time>2022-10-31T12:21:24.0000000+00:00</time></trkpt><trkpt lat="39.35922903" lon="-0.31831895"><ele>4.6</ele><time>2022-10-31T12:21:25.0000000+00:00</time></trkpt><trkpt lat="39.35916826" lon="-0.31829355"><ele>4.6</ele><time>2022-10-31T12:21:26.0000000+00:00</time></trkpt><trkpt lat="39.3591054" lon="-0.31826682"><ele>4.8</ele><time>2022-10-31T12:21:27.0000000+00:00</time></trkpt><trkpt lat="39.3590458" lon="-0.31824192"><ele>4.8</ele><time>2022-10-31T12:21:28.0000000+00:00</time></trkpt><trkpt lat="39.35898721" lon="-0.31821736"><ele>4.8</ele><time>2022-10-31T12:21:29.0000000+00:00</time></trkpt><trkpt lat="39.35891421" lon="-0.31819029"><ele>4.6</ele><time>2022-10-31T12:21:30.0000000+00:00</time></trkpt><trkpt lat="39.35886459" lon="-0.31816707"><ele>4.6</ele><time>2022-10-31T12:21:31.0000000+00:00</time></trkpt><trkpt lat="39.35880583" lon="-0.31814528"><ele>4.4</ele><time>2022-10-31T12:21:32.0000000+00:00</time></trkpt><trkpt lat="39.358734" lon="-0.31812307"><ele>4.4</ele><time>2022-10-31T12:21:33.0000000+00:00</time></trkpt><trkpt lat="39.35868555" lon="-0.31810739"><ele>4.4</ele><time>2022-10-31T12:21:34.0000000+00:00</time></trkpt><trkpt lat="39.35861279" lon="-0.31808585"><ele>4.2</ele><time>2022-10-31T12:21:35.0000000+00:00</time></trkpt><trkpt lat="39.35855093" lon="-0.31806339"><ele>4.2</ele><time>2022-10-31T12:21:36.0000000+00:00</time></trkpt><trkpt lat="39.35848539" lon="-0.31803615"><ele>4.2</ele><time>2022-10-31T12:21:37.0000000+00:00</time></trkpt><trkpt lat="39.35842043" lon="-0.31801108"><ele>4.2</ele><time>2022-10-31T12:21:38.0000000+00:00</time></trkpt><trkpt lat="39.35835413" lon="-0.31798879"><ele>4.2</ele><time>2022-10-31T12:21:39.0000000+00:00</time></trkpt><trkpt lat="39.35830099" lon="-0.31797051"><ele>4.2</ele><time>2022-10-31T12:21:40.0000000+00:00</time></trkpt><trkpt lat="39.35823318" lon="-0.31794579"><ele>4.2</ele><time>2022-10-31T12:21:41.0000000+00:00</time></trkpt><trkpt lat="39.35815766" lon="-0.31791989"><ele>4.2</ele><time>2022-10-31T12:21:42.0000000+00:00</time></trkpt><trkpt lat="39.3581077" lon="-0.31790095"><ele>4.2</ele><time>2022-10-31T12:21:43.0000000+00:00</time></trkpt><trkpt lat="39.35804534" lon="-0.31787882"><ele>4.2</ele><time>2022-10-31T12:21:44.0000000+00:00</time></trkpt><trkpt lat="39.35798264" lon="-0.31785761"><ele>4.2</ele><time>2022-10-31T12:21:45.0000000+00:00</time></trkpt><trkpt lat="39.35791936" lon="-0.31783439"><ele>4.4</ele><time>2022-10-31T12:21:46.0000000+00:00</time></trkpt><trkpt lat="39.35785649" lon="-0.31781076"><ele>4.2</ele><time>2022-10-31T12:21:47.0000000+00:00</time></trkpt><trkpt lat="39.35779321" lon="-0.31778921"><ele>4.2</ele><time>2022-10-31T12:21:48.0000000+00:00</time></trkpt><trkpt lat="39.3577285" lon="-0.31776725"><ele>4.2</ele><time>2022-10-31T12:21:49.0000000+00:00</time></trkpt><trkpt lat="39.35766195" lon="-0.31774982"><ele>4.2</ele><time>2022-10-31T12:21:50.0000000+00:00</time></trkpt><trkpt lat="39.35759624" lon="-0.31773624"><ele>4.2</ele><time>2022-10-31T12:21:51.0000000+00:00</time></trkpt><trkpt lat="39.35753228" lon="-0.3177266"><ele>4.2</ele><time>2022-10-31T12:21:52.0000000+00:00</time></trkpt><trkpt lat="39.35746774" lon="-0.31771881"><ele>4.2</ele><time>2022-10-31T12:21:53.0000000+00:00</time></trkpt><trkpt lat="39.35740178" lon="-0.3177116"><ele>4.4</ele><time>2022-10-31T12:21:54.0000000+00:00</time></trkpt><trkpt lat="39.35733447" lon="-0.31770531"><ele>4.4</ele><time>2022-10-31T12:21:55.0000000+00:00</time></trkpt><trkpt lat="39.35726783" lon="-0.31770062"><ele>4.4</ele><time>2022-10-31T12:21:56.0000000+00:00</time></trkpt><trkpt lat="39.35720095" lon="-0.31770062"><ele>4.4</ele><time>2022-10-31T12:21:57.0000000+00:00</time></trkpt><trkpt lat="39.35713314" lon="-0.31770749"><ele>4.2</ele><time>2022-10-31T12:21:58.0000000+00:00</time></trkpt><trkpt lat="39.35706901" lon="-0.31771721"><ele>4.2</ele><time>2022-10-31T12:21:59.0000000+00:00</time></trkpt><trkpt lat="39.35700405" lon="-0.31772199"><ele>4.2</ele><time>2022-10-31T12:22:00.0000000+00:00</time></trkpt><trkpt lat="39.35693834" lon="-0.31772685"><ele>4.2</ele><time>2022-10-31T12:22:01.0000000+00:00</time></trkpt><trkpt lat="39.35687179" lon="-0.31773096"><ele>4.2</ele><time>2022-10-31T12:22:02.0000000+00:00</time></trkpt><trkpt lat="39.3568044" lon="-0.31773616"><ele>4.2</ele><time>2022-10-31T12:22:03.0000000+00:00</time></trkpt><trkpt lat="39.35674011" lon="-0.31774202"><ele>4.2</ele><time>2022-10-31T12:22:04.0000000+00:00</time></trkpt><trkpt lat="39.35667582" lon="-0.31775057"><ele>4.2</ele><time>2022-10-31T12:22:05.0000000+00:00</time></trkpt><trkpt lat="39.35660717" lon="-0.31775409"><ele>4.2</ele><time>2022-10-31T12:22:06.0000000+00:00</time></trkpt><trkpt lat="39.35654045" lon="-0.3177582"><ele>4.2</ele><time>2022-10-31T12:22:07.0000000+00:00</time></trkpt><trkpt lat="39.35647465" lon="-0.31776214"><ele>4.2</ele><time>2022-10-31T12:22:08.0000000+00:00</time></trkpt><trkpt lat="39.35640768" lon="-0.31776474"><ele>4.2</ele><time>2022-10-31T12:22:09.0000000+00:00</time></trkpt><trkpt lat="39.35634172" lon="-0.31776826"><ele>4.2</ele><time>2022-10-31T12:22:10.0000000+00:00</time></trkpt><trkpt lat="39.35627483" lon="-0.31777329"><ele>4.2</ele><time>2022-10-31T12:22:11.0000000+00:00</time></trkpt><trkpt lat="39.35619419" lon="-0.31778117"><ele>4.2</ele><time>2022-10-31T12:22:12.0000000+00:00</time></trkpt><trkpt lat="39.35614214" lon="-0.31778561"><ele>4.0</ele><time>2022-10-31T12:22:13.0000000+00:00</time></trkpt><trkpt lat="39.35606369" lon="-0.31779139"><ele>4.0</ele><time>2022-10-31T12:22:14.0000000+00:00</time></trkpt><trkpt lat="39.35601206" lon="-0.3177955"><ele>4.0</ele><time>2022-10-31T12:22:15.0000000+00:00</time></trkpt><trkpt lat="39.35594693" lon="-0.3177986"><ele>4.2</ele><time>2022-10-31T12:22:16.0000000+00:00</time></trkpt><trkpt lat="39.35588222" lon="-0.31780053"><ele>4.2</ele><time>2022-10-31T12:22:17.0000000+00:00</time></trkpt><trkpt lat="39.35581894" lon="-0.31779584"><ele>4.2</ele><time>2022-10-31T12:22:18.0000000+00:00</time></trkpt><trkpt lat="39.35574962" lon="-0.3177919"><ele>4.4</ele><time>2022-10-31T12:22:19.0000000+00:00</time></trkpt><trkpt lat="39.3556808" lon="-0.31778511"><ele>4.4</ele><time>2022-10-31T12:22:20.0000000+00:00</time></trkpt><trkpt lat="39.35561509" lon="-0.31777681"><ele>4.4</ele><time>2022-10-31T12:22:21.0000000+00:00</time></trkpt><trkpt lat="39.35554879" lon="-0.31776482"><ele>4.4</ele><time>2022-10-31T12:22:22.0000000+00:00</time></trkpt><trkpt lat="39.35548374" lon="-0.31774672"><ele>4.6</ele><time>2022-10-31T12:22:23.0000000+00:00</time></trkpt><trkpt lat="39.35540747" lon="-0.31771855"><ele>4.6</ele><time>2022-10-31T12:22:24.0000000+00:00</time></trkpt><trkpt lat="39.35535785" lon="-0.31769609"><ele>4.6</ele><time>2022-10-31T12:22:25.0000000+00:00</time></trkpt><trkpt lat="39.35529809" lon="-0.31766734"><ele>4.6</ele><time>2022-10-31T12:22:26.0000000+00:00</time></trkpt><trkpt lat="39.35523765" lon="-0.31763583"><ele>4.6</ele><time>2022-10-31T12:22:27.0000000+00:00</time></trkpt><trkpt lat="39.35518233" lon="-0.31759869"><ele>4.6</ele><time>2022-10-31T12:22:28.0000000+00:00</time></trkpt><trkpt lat="39.35513078" lon="-0.31755611"><ele>4.6</ele><time>2022-10-31T12:22:29.0000000+00:00</time></trkpt><trkpt lat="39.35507982" lon="-0.31750716"><ele>4.6</ele><time>2022-10-31T12:22:30.0000000+00:00</time></trkpt><trkpt lat="39.35503498" lon="-0.31745461"><ele>4.4</ele><time>2022-10-31T12:22:31.0000000+00:00</time></trkpt><trkpt lat="39.35499122" lon="-0.31740306"><ele>4.4</ele><time>2022-10-31T12:22:32.0000000+00:00</time></trkpt><trkpt lat="39.35494822" lon="-0.31735092"><ele>4.4</ele><time>2022-10-31T12:22:33.0000000+00:00</time></trkpt><trkpt lat="39.3549033" lon="-0.31729912"><ele>4.4</ele><time>2022-10-31T12:22:34.0000000+00:00</time></trkpt><trkpt lat="39.35485711" lon="-0.31724665"><ele>4.4</ele><time>2022-10-31T12:22:35.0000000+00:00</time></trkpt><trkpt lat="39.3548095" lon="-0.31719334"><ele>4.4</ele><time>2022-10-31T12:22:36.0000000+00:00</time></trkpt><trkpt lat="39.35476273" lon="-0.31713937"><ele>4.6</ele><time>2022-10-31T12:22:37.0000000+00:00</time></trkpt><trkpt lat="39.35471471" lon="-0.31708438"><ele>4.6</ele><time>2022-10-31T12:22:38.0000000+00:00</time></trkpt><trkpt lat="39.35466634" lon="-0.31702856"><ele>4.6</ele><time>2022-10-31T12:22:39.0000000+00:00</time></trkpt><trkpt lat="39.35462032" lon="-0.31697173"><ele>4.6</ele><time>2022-10-31T12:22:40.0000000+00:00</time></trkpt><trkpt lat="39.35457355" lon="-0.31691649"><ele>4.6</ele><time>2022-10-31T12:22:41.0000000+00:00</time></trkpt><trkpt lat="39.35453072" lon="-0.31686109"><ele>4.8</ele><time>2022-10-31T12:22:42.0000000+00:00</time></trkpt><trkpt lat="39.35448655" lon="-0.31681071"><ele>4.8</ele><time>2022-10-31T12:22:43.0000000+00:00</time></trkpt><trkpt lat="39.35444363" lon="-0.31676335"><ele>4.8</ele><time>2022-10-31T12:22:44.0000000+00:00</time></trkpt><trkpt lat="39.35440223" lon="-0.31671256"><ele>4.8</ele><time>2022-10-31T12:22:45.0000000+00:00</time></trkpt><trkpt lat="39.35436174" lon="-0.31666151"><ele>4.8</ele><time>2022-10-31T12:22:46.0000000+00:00</time></trkpt><trkpt lat="39.35432009" lon="-0.31661022"><ele>4.6</ele><time>2022-10-31T12:22:47.0000000+00:00</time></trkpt><trkpt lat="39.35428069" lon="-0.31655892"><ele>4.6</ele><time>2022-10-31T12:22:48.0000000+00:00</time></trkpt><trkpt lat="39.35424012" lon="-0.31650913"><ele>4.4</ele><time>2022-10-31T12:22:49.0000000+00:00</time></trkpt><trkpt lat="39.35419813" lon="-0.31645808"><ele>4.4</ele><time>2022-10-31T12:22:50.0000000+00:00</time></trkpt><trkpt lat="39.35415354" lon="-0.31641106"><ele>4.2</ele><time>2022-10-31T12:22:51.0000000+00:00</time></trkpt><trkpt lat="39.35410987" lon="-0.31636211"><ele>4.2</ele><time>2022-10-31T12:22:52.0000000+00:00</time></trkpt><trkpt lat="39.35406586" lon="-0.31631014"><ele>4.2</ele><time>2022-10-31T12:22:53.0000000+00:00</time></trkpt><trkpt lat="39.35402077" lon="-0.31625331"><ele>4.2</ele><time>2022-10-31T12:22:54.0000000+00:00</time></trkpt><trkpt lat="39.35397626" lon="-0.31619724"><ele>4.2</ele><time>2022-10-31T12:22:55.0000000+00:00</time></trkpt><trkpt lat="39.35393125" lon="-0.3161441"><ele>4.2</ele><time>2022-10-31T12:22:56.0000000+00:00</time></trkpt><trkpt lat="39.35388632" lon="-0.31609263"><ele>4.2</ele><time>2022-10-31T12:22:57.0000000+00:00</time></trkpt><trkpt lat="39.35384114" lon="-0.31604167"><ele>4.2</ele><time>2022-10-31T12:22:58.0000000+00:00</time></trkpt><trkpt lat="39.3537927" lon="-0.31598928"><ele>4.2</ele><time>2022-10-31T12:22:59.0000000+00:00</time></trkpt><trkpt lat="39.35374341" lon="-0.31593438"><ele>4.4</ele><time>2022-10-31T12:23:00.0000000+00:00</time></trkpt><trkpt lat="39.35369094" lon="-0.31588568"><ele>4.4</ele><time>2022-10-31T12:23:01.0000000+00:00</time></trkpt><trkpt lat="39.35363445" lon="-0.31584545"><ele>4.4</ele><time>2022-10-31T12:23:02.0000000+00:00</time></trkpt><trkpt lat="39.35357577" lon="-0.31581041"><ele>4.6</ele><time>2022-10-31T12:23:03.0000000+00:00</time></trkpt><trkpt lat="39.35351819" lon="-0.31578116"><ele>4.6</ele><time>2022-10-31T12:23:04.0000000+00:00</time></trkpt><trkpt lat="39.35345742" lon="-0.31574931"><ele>4.6</ele><time>2022-10-31T12:23:05.0000000+00:00</time></trkpt><trkpt lat="39.35339707" lon="-0.31571922"><ele>4.6</ele><time>2022-10-31T12:23:06.0000000+00:00</time></trkpt><trkpt lat="39.35333412" lon="-0.31569114"><ele>4.6</ele><time>2022-10-31T12:23:07.0000000+00:00</time></trkpt><trkpt lat="39.3532721" lon="-0.31566692"><ele>4.8</ele><time>2022-10-31T12:23:08.0000000+00:00</time></trkpt><trkpt lat="39.3532073" lon="-0.3156442"><ele>4.8</ele><time>2022-10-31T12:23:09.0000000+00:00</time></trkpt><trkpt lat="39.35314377" lon="-0.315623"><ele>5.0</ele><time>2022-10-31T12:23:10.0000000+00:00</time></trkpt><trkpt lat="39.35308702" lon="-0.3156121"><ele>5.0</ele><time>2022-10-31T12:23:11.0000000+00:00</time></trkpt><trkpt lat="39.35303103" lon="-0.31560212"><ele>5.2</ele><time>2022-10-31T12:23:12.0000000+00:00</time></trkpt><trkpt lat="39.35297571" lon="-0.31559642"><ele>5.2</ele><time>2022-10-31T12:23:13.0000000+00:00</time></trkpt><trkpt lat="39.35292341" lon="-0.31559232"><ele>5.0</ele><time>2022-10-31T12:23:14.0000000+00:00</time></trkpt><trkpt lat="39.35287228" lon="-0.31558913"><ele>4.8</ele><time>2022-10-31T12:23:15.0000000+00:00</time></trkpt><trkpt lat="39.35282081" lon="-0.31557304"><ele>4.6</ele><time>2022-10-31T12:23:16.0000000+00:00</time></trkpt><trkpt lat="39.35276792" lon="-0.31555091"><ele>4.6</ele><time>2022-10-31T12:23:17.0000000+00:00</time></trkpt><trkpt lat="39.35271612" lon="-0.31552644"><ele>4.4</ele><time>2022-10-31T12:23:18.0000000+00:00</time></trkpt><trkpt lat="39.3526748" lon="-0.31551252"><ele>4.4</ele><time>2022-10-31T12:23:19.0000000+00:00</time></trkpt><trkpt lat="39.352622" lon="-0.31549584"><ele>4.4</ele><time>2022-10-31T12:23:20.0000000+00:00</time></trkpt><trkpt lat="39.35255804" lon="-0.31547824"><ele>4.4</ele><time>2022-10-31T12:23:21.0000000+00:00</time></trkpt><trkpt lat="39.35250289" lon="-0.31546391"><ele>4.4</ele><time>2022-10-31T12:23:22.0000000+00:00</time></trkpt><trkpt lat="39.3524448" lon="-0.31544949"><ele>4.4</ele><time>2022-10-31T12:23:23.0000000+00:00</time></trkpt><trkpt lat="39.35239736" lon="-0.31543667"><ele>4.4</ele><time>2022-10-31T12:23:24.0000000+00:00</time></trkpt><trkpt lat="39.35233751" lon="-0.31541764"><ele>4.4</ele><time>2022-10-31T12:23:25.0000000+00:00</time></trkpt><trkpt lat="39.35227021" lon="-0.31539392"><ele>4.4</ele><time>2022-10-31T12:23:26.0000000+00:00</time></trkpt><trkpt lat="39.35221824" lon="-0.31537682"><ele>4.4</ele><time>2022-10-31T12:23:27.0000000+00:00</time></trkpt><trkpt lat="39.35216703" lon="-0.31536408"><ele>4.4</ele><time>2022-10-31T12:23:28.0000000+00:00</time></trkpt><trkpt lat="39.35211958" lon="-0.31535419"><ele>4.4</ele><time>2022-10-31T12:23:29.0000000+00:00</time></trkpt><trkpt lat="39.35208237" lon="-0.31535427"><ele>4.2</ele><time>2022-10-31T12:23:30.0000000+00:00</time></trkpt><trkpt lat="39.35202445" lon="-0.31536064"><ele>4.2</ele><time>2022-10-31T12:23:31.0000000+00:00</time></trkpt><trkpt lat="39.35198128" lon="-0.31537741"><ele>4.2</ele><time>2022-10-31T12:23:32.0000000+00:00</time></trkpt><trkpt lat="39.35193962" lon="-0.31540523"><ele>4.0</ele><time>2022-10-31T12:23:33.0000000+00:00</time></trkpt><trkpt lat="39.35190065" lon="-0.31544312"><ele>4.0</ele><time>2022-10-31T12:23:34.0000000+00:00</time></trkpt><trkpt lat="39.35185807" lon="-0.31548469"><ele>3.8</ele><time>2022-10-31T12:23:35.0000000+00:00</time></trkpt><trkpt lat="39.35181339" lon="-0.31552845"><ele>3.8</ele><time>2022-10-31T12:23:36.0000000+00:00</time></trkpt><trkpt lat="39.35176671" lon="-0.3155722"><ele>3.8</ele><time>2022-10-31T12:23:37.0000000+00:00</time></trkpt><trkpt lat="39.35172639" lon="-0.31560564"><ele>3.6</ele><time>2022-10-31T12:23:38.0000000+00:00</time></trkpt><trkpt lat="39.35167425" lon="-0.31564194"><ele>3.6</ele><time>2022-10-31T12:23:39.0000000+00:00</time></trkpt><trkpt lat="39.35161491" lon="-0.31568896"><ele>3.6</ele><time>2022-10-31T12:23:40.0000000+00:00</time></trkpt><trkpt lat="39.35156261" lon="-0.31573003"><ele>3.6</ele><time>2022-10-31T12:23:41.0000000+00:00</time></trkpt><trkpt lat="39.35152137" lon="-0.31576096"><ele>3.8</ele><time>2022-10-31T12:23:42.0000000+00:00</time></trkpt><trkpt lat="39.35146328" lon="-0.31581243"><ele>3.8</ele><time>2022-10-31T12:23:43.0000000+00:00</time></trkpt><trkpt lat="39.35141441" lon="-0.31585442"><ele>3.8</ele><time>2022-10-31T12:23:44.0000000+00:00</time></trkpt><trkpt lat="39.3513746" lon="-0.31588719"><ele>3.8</ele><time>2022-10-31T12:23:45.0000000+00:00</time></trkpt><trkpt lat="39.35132615" lon="-0.31592659"><ele>3.8</ele><time>2022-10-31T12:23:46.0000000+00:00</time></trkpt><trkpt lat="39.35127955" lon="-0.31596556"><ele>3.8</ele><time>2022-10-31T12:23:47.0000000+00:00</time></trkpt><trkpt lat="39.35122456" lon="-0.31600337"><ele>3.8</ele><time>2022-10-31T12:23:48.0000000+00:00</time></trkpt><trkpt lat="39.35117997" lon="-0.31603027"><ele>3.8</ele><time>2022-10-31T12:23:49.0000000+00:00</time></trkpt><trkpt lat="39.35113614" lon="-0.31605894"><ele>3.8</ele><time>2022-10-31T12:23:50.0000000+00:00</time></trkpt><trkpt lat="39.35109364" lon="-0.3160866"><ele>3.8</ele><time>2022-10-31T12:23:51.0000000+00:00</time></trkpt><trkpt lat="39.35105039" lon="-0.31611099"><ele>3.8</ele><time>2022-10-31T12:23:52.0000000+00:00</time></trkpt><trkpt lat="39.35100881" lon="-0.3161389"><ele>3.8</ele><time>2022-10-31T12:23:53.0000000+00:00</time></trkpt><trkpt lat="39.35097017" lon="-0.31617159"><ele>3.8</ele><time>2022-10-31T12:23:54.0000000+00:00</time></trkpt><trkpt lat="39.35093975" lon="-0.3162016"><ele>3.8</ele><time>2022-10-31T12:23:55.0000000+00:00</time></trkpt><trkpt lat="39.35089205" lon="-0.31624049"><ele>3.8</ele><time>2022-10-31T12:23:56.0000000+00:00</time></trkpt><trkpt lat="39.35084822" lon="-0.31626631"><ele>3.8</ele><time>2022-10-31T12:23:57.0000000+00:00</time></trkpt><trkpt lat="39.35081922" lon="-0.31629003"><ele>3.6</ele><time>2022-10-31T12:23:58.0000000+00:00</time></trkpt><trkpt lat="39.35078125" lon="-0.31632959"><ele>3.6</ele><time>2022-10-31T12:23:59.0000000+00:00</time></trkpt><trkpt lat="39.35074847" lon="-0.31635926"><ele>3.6</ele><time>2022-10-31T12:24:00.0000000+00:00</time></trkpt><trkpt lat="39.35071654" lon="-0.31638701"><ele>3.6</ele><time>2022-10-31T12:24:01.0000000+00:00</time></trkpt><trkpt lat="39.3506877" lon="-0.31640955"><ele>3.4</ele><time>2022-10-31T12:24:02.0000000+00:00</time></trkpt><trkpt lat="39.35064479" lon="-0.31644249"><ele>3.4</ele><time>2022-10-31T12:24:03.0000000+00:00</time></trkpt><trkpt lat="39.35061017" lon="-0.31647728"><ele>3.2</ele><time>2022-10-31T12:24:04.0000000+00:00</time></trkpt><trkpt lat="39.35058092" lon="-0.31651299"><ele>3.2</ele><time>2022-10-31T12:24:05.0000000+00:00</time></trkpt><trkpt lat="39.35055971" lon="-0.31654509"><ele>3.0</ele><time>2022-10-31T12:24:06.0000000+00:00</time></trkpt><trkpt lat="39.35052962" lon="-0.31658826"><ele>3.0</ele><time>2022-10-31T12:24:07.0000000+00:00</time></trkpt><trkpt lat="39.35049953" lon="-0.31662924"><ele>3.0</ele><time>2022-10-31T12:24:08.0000000+00:00</time></trkpt><trkpt lat="39.35046751" lon="-0.31666696"><ele>2.8</ele><time>2022-10-31T12:24:09.0000000+00:00</time></trkpt><trkpt lat="39.35042644" lon="-0.31670468"><ele>2.8</ele><time>2022-10-31T12:24:10.0000000+00:00</time></trkpt><trkpt lat="39.35040046" lon="-0.31673209"><ele>2.8</ele><time>2022-10-31T12:24:11.0000000+00:00</time></trkpt><trkpt lat="39.35036156" lon="-0.31677014"><ele>2.8</ele><time>2022-10-31T12:24:12.0000000+00:00</time></trkpt><trkpt lat="39.35033985" lon="-0.31679479"><ele>2.8</ele><time>2022-10-31T12:24:13.0000000+00:00</time></trkpt><trkpt lat="39.35031018" lon="-0.31682672"><ele>2.8</ele><time>2022-10-31T12:24:14.0000000+00:00</time></trkpt><trkpt lat="39.350278" lon="-0.31686612"><ele>2.8</ele><time>2022-10-31T12:24:15.0000000+00:00</time></trkpt><trkpt lat="39.35026224" lon="-0.31689009"><ele>2.8</ele><time>2022-10-31T12:24:16.0000000+00:00</time></trkpt><trkpt lat="39.35024338" lon="-0.31691322"><ele>2.6</ele><time>2022-10-31T12:24:17.0000000+00:00</time></trkpt><trkpt lat="39.3502329" lon="-0.31692521"><ele>2.6</ele><time>2022-10-31T12:24:18.0000000+00:00</time></trkpt><trkpt lat="39.3502277" lon="-0.31694306"><ele>2.6</ele><time>2022-10-31T12:24:19.0000000+00:00</time></trkpt><trkpt lat="39.35022494" lon="-0.31694574"><ele>2.6</ele><time>2022-10-31T12:24:20.0000000+00:00</time></trkpt><trkpt lat="39.35022494" lon="-0.31694574"><ele>2.6</ele><time>2022-10-31T12:24:21.0000000+00:00</time></trkpt><trkpt lat="39.35022494" lon="-0.31694574"><ele>2.6</ele><time>2022-10-31T12:24:22.0000000+00:00</time></trkpt><trkpt lat="39.35022494" lon="-0.31694574"><ele>2.6</ele><time>2022-10-31T12:24:23.0000000+00:00</time></trkpt><trkpt lat="39.35022494" lon="-0.31694574"><ele>2.6</ele><time>2022-10-31T12:24:24.0000000+00:00</time></trkpt><trkpt lat="39.35022494" lon="-0.31694574"><ele>2.6</ele><time>2022-10-31T12:24:25.0000000+00:00</time></trkpt><trkpt lat="39.35022494" lon="-0.31694574"><ele>2.6</ele><time>2022-10-31T12:24:26.0000000+00:00</time></trkpt><trkpt lat="39.35022494" lon="-0.31694574"><ele>2.6</ele><time>2022-10-31T12:24:27.0000000+00:00</time></trkpt><trkpt lat="39.35022494" lon="-0.31694574"><ele>2.6</ele><time>2022-10-31T12:24:28.0000000+00:00</time></trkpt><trkpt lat="39.35022494" lon="-0.31694574"><ele>2.6</ele><time>2022-10-31T12:24:29.0000000+00:00</time></trkpt><trkpt lat="39.35022494" lon="-0.31694574"><ele>2.6</ele><time>2022-10-31T12:24:30.0000000+00:00</time></trkpt><trkpt lat="39.35022494" lon="-0.31694574"><ele>2.6</ele><time>2022-10-31T12:24:31.0000000+00:00</time></trkpt><trkpt lat="39.35022494" lon="-0.31694574"><ele>2.6</ele><time>2022-10-31T12:24:32.0000000+00:00</time></trkpt><trkpt lat="39.35022494" lon="-0.31694574"><ele>2.6</ele><time>2022-10-31T12:24:33.0000000+00:00</time></trkpt><trkpt lat="39.35022494" lon="-0.31694574"><ele>2.6</ele><time>2022-10-31T12:24:34.0000000+00:00</time></trkpt><trkpt lat="39.35022494" lon="-0.31694574"><ele>2.6</ele><time>2022-10-31T12:24:35.0000000+00:00</time></trkpt><trkpt lat="39.35022494" lon="-0.31694574"><ele>2.6</ele><time>2022-10-31T12:24:36.0000000+00:00</time></trkpt><trkpt lat="39.35022494" lon="-0.31694574"><ele>2.6</ele><time>2022-10-31T12:24:37.0000000+00:00</time></trkpt><trkpt lat="39.35022494" lon="-0.31694574"><ele>2.6</ele><time>2022-10-31T12:24:38.0000000+00:00</time></trkpt><trkpt lat="39.35022494" lon="-0.31694574"><ele>2.6</ele><time>2022-10-31T12:24:39.0000000+00:00</time></trkpt><trkpt lat="39.35022494" lon="-0.31694574"><ele>2.6</ele><time>2022-10-31T12:24:40.0000000+00:00</time></trkpt><trkpt lat="39.35022494" lon="-0.31694574"><ele>2.6</ele><time>2022-10-31T12:24:41.0000000+00:00</time></trkpt><trkpt lat="39.35022494" lon="-0.31694574"><ele>2.6</ele><time>2022-10-31T12:24:42.0000000+00:00</time></trkpt><trkpt lat="39.35022494" lon="-0.31694574"><ele>2.6</ele><time>2022-10-31T12:24:43.0000000+00:00</time></trkpt><trkpt lat="39.35022494" lon="-0.31694574"><ele>2.6</ele><time>2022-10-31T12:24:44.0000000+00:00</time></trkpt><trkpt lat="39.35022494" lon="-0.31694574"><ele>2.6</ele><time>2022-10-31T12:24:45.0000000+00:00</time></trkpt><trkpt lat="39.35022494" lon="-0.31694574"><ele>2.6</ele><time>2022-10-31T12:24:46.0000000+00:00</time></trkpt><trkpt lat="39.35022494" lon="-0.31694574"><ele>2.6</ele><time>2022-10-31T12:24:47.0000000+00:00</time></trkpt><trkpt lat="39.35022494" lon="-0.31694574"><ele>2.6</ele><time>2022-10-31T12:24:48.0000000+00:00</time></trkpt><trkpt lat="39.35022494" lon="-0.31694574"><ele>2.6</ele><time>2022-10-31T12:24:49.0000000+00:00</time></trkpt><trkpt lat="39.35022494" lon="-0.31694574"><ele>2.8</ele><time>2022-10-31T12:24:50.0000000+00:00</time></trkpt><trkpt lat="39.35022494" lon="-0.31694574"><ele>2.8</ele><time>2022-10-31T12:24:51.0000000+00:00</time></trkpt><trkpt lat="39.35022494" lon="-0.31694574"><ele>2.8</ele><time>2022-10-31T12:24:52.0000000+00:00</time></trkpt><trkpt lat="39.35022494" lon="-0.31694574"><ele>2.8</ele><time>2022-10-31T12:24:53.0000000+00:00</time></trkpt><trkpt lat="39.35022494" lon="-0.31694574"><ele>2.8</ele><time>2022-10-31T12:24:54.0000000+00:00</time></trkpt><trkpt lat="39.35022494" lon="-0.31694574"><ele>2.8</ele><time>2022-10-31T12:24:55.0000000+00:00</time></trkpt><trkpt lat="39.35022494" lon="-0.31694574"><ele>2.6</ele><time>2022-10-31T12:24:56.0000000+00:00</time></trkpt><trkpt lat="39.35022494" lon="-0.31694574"><ele>2.6</ele><time>2022-10-31T12:24:57.0000000+00:00</time></trkpt><trkpt lat="39.35022494" lon="-0.31694574"><ele>2.6</ele><time>2022-10-31T12:24:58.0000000+00:00</time></trkpt><trkpt lat="39.35022494" lon="-0.31694574"><ele>2.6</ele><time>2022-10-31T12:24:59.0000000+00:00</time></trkpt><trkpt lat="39.35022494" lon="-0.31694574"><ele>2.6</ele><time>2022-10-31T12:25:00.0000000+00:00</time></trkpt><trkpt lat="39.35022494" lon="-0.31694574"><ele>2.6</ele><time>2022-10-31T12:25:01.0000000+00:00</time></trkpt><trkpt lat="39.35022494" lon="-0.31694574"><ele>2.6</ele><time>2022-10-31T12:25:02.0000000+00:00</time></trkpt><trkpt lat="39.35022494" lon="-0.31694574"><ele>2.6</ele><time>2022-10-31T12:25:03.0000000+00:00</time></trkpt><trkpt lat="39.35022494" lon="-0.31694574"><ele>2.6</ele><time>2022-10-31T12:25:04.0000000+00:00</time></trkpt><trkpt lat="39.35022494" lon="-0.31694574"><ele>2.6</ele><time>2022-10-31T12:25:05.0000000+00:00</time></trkpt><trkpt lat="39.35022494" lon="-0.31694574"><ele>2.6</ele><time>2022-10-31T12:25:06.0000000+00:00</time></trkpt><trkpt lat="39.35022494" lon="-0.31694574"><ele>2.6</ele><time>2022-10-31T12:25:07.0000000+00:00</time></trkpt><trkpt lat="39.35022494" lon="-0.31694574"><ele>2.8</ele><time>2022-10-31T12:25:08.0000000+00:00</time></trkpt><trkpt lat="39.35023022" lon="-0.31694658"><ele>2.8</ele><time>2022-10-31T12:25:09.0000000+00:00</time></trkpt><trkpt lat="39.35023231" lon="-0.31694918"><ele>2.8</ele><time>2022-10-31T12:25:10.0000000+00:00</time></trkpt><trkpt lat="39.35023659" lon="-0.31694926"><ele>2.8</ele><time>2022-10-31T12:25:11.0000000+00:00</time></trkpt><trkpt lat="39.35023542" lon="-0.3169465"><ele>2.8</ele><time>2022-10-31T12:25:12.0000000+00:00</time></trkpt><trkpt lat="39.35023542" lon="-0.3169465"><ele>2.6</ele><time>2022-10-31T12:25:13.0000000+00:00</time></trkpt><trkpt lat="39.35023542" lon="-0.3169465"><ele>2.6</ele><time>2022-10-31T12:25:14.0000000+00:00</time></trkpt><trkpt lat="39.35023542" lon="-0.3169465"><ele>2.6</ele><time>2022-10-31T12:25:15.0000000+00:00</time></trkpt><trkpt lat="39.35023542" lon="-0.3169465"><ele>2.6</ele><time>2022-10-31T12:25:16.0000000+00:00</time></trkpt><trkpt lat="39.35023542" lon="-0.3169465"><ele>2.6</ele><time>2022-10-31T12:25:17.0000000+00:00</time></trkpt><trkpt lat="39.35023542" lon="-0.3169465"><ele>2.4</ele><time>2022-10-31T12:25:18.0000000+00:00</time></trkpt><trkpt lat="39.35023542" lon="-0.3169465"><ele>2.4</ele><time>2022-10-31T12:25:19.0000000+00:00</time></trkpt><trkpt lat="39.35023542" lon="-0.3169465"><ele>2.4</ele><time>2022-10-31T12:25:20.0000000+00:00</time></trkpt><trkpt lat="39.35023542" lon="-0.3169465"><ele>2.4</ele><time>2022-10-31T12:25:21.0000000+00:00</time></trkpt><trkpt lat="39.35023835" lon="-0.31694432"><ele>2.4</ele><time>2022-10-31T12:25:22.0000000+00:00</time></trkpt><trkpt lat="39.35023919" lon="-0.3169413"><ele>2.4</ele><time>2022-10-31T12:25:23.0000000+00:00</time></trkpt><trkpt lat="39.35023919" lon="-0.3169413"><ele>2.2</ele><time>2022-10-31T12:25:24.0000000+00:00</time></trkpt><trkpt lat="39.35023919" lon="-0.3169413"><ele>2.4</ele><time>2022-10-31T12:25:25.0000000+00:00</time></trkpt><trkpt lat="39.35023919" lon="-0.3169413"><ele>2.4</ele><time>2022-10-31T12:25:26.0000000+00:00</time></trkpt><trkpt lat="39.35023919" lon="-0.3169413"><ele>2.4</ele><time>2022-10-31T12:25:27.0000000+00:00</time></trkpt><trkpt lat="39.35023919" lon="-0.3169413"><ele>2.4</ele><time>2022-10-31T12:25:28.0000000+00:00</time></trkpt><trkpt lat="39.35023919" lon="-0.3169413"><ele>2.4</ele><time>2022-10-31T12:25:29.0000000+00:00</time></trkpt><trkpt lat="39.35023919" lon="-0.3169413"><ele>2.4</ele><time>2022-10-31T12:25:30.0000000+00:00</time></trkpt><trkpt lat="39.35023919" lon="-0.3169413"><ele>2.4</ele><time>2022-10-31T12:25:31.0000000+00:00</time></trkpt><trkpt lat="39.35023919" lon="-0.3169413"><ele>2.4</ele><time>2022-10-31T12:25:32.0000000+00:00</time></trkpt><trkpt lat="39.35023919" lon="-0.3169413"><ele>2.4</ele><time>2022-10-31T12:25:33.0000000+00:00</time></trkpt><trkpt lat="39.35023919" lon="-0.3169413"><ele>2.4</ele><time>2022-10-31T12:25:34.0000000+00:00</time></trkpt><trkpt lat="39.35023919" lon="-0.3169413"><ele>2.4</ele><time>2022-10-31T12:25:35.0000000+00:00</time></trkpt><trkpt lat="39.35024137" lon="-0.31694482"><ele>2.4</ele><time>2022-10-31T12:25:36.0000000+00:00</time></trkpt><trkpt lat="39.35024313" lon="-0.31694792"><ele>2.4</ele><time>2022-10-31T12:25:37.0000000+00:00</time></trkpt><trkpt lat="39.35024313" lon="-0.31694792"><ele>2.4</ele><time>2022-10-31T12:25:38.0000000+00:00</time></trkpt><trkpt lat="39.35024313" lon="-0.31694792"><ele>2.4</ele><time>2022-10-31T12:25:39.0000000+00:00</time></trkpt><trkpt lat="39.35024313" lon="-0.31694792"><ele>2.4</ele><time>2022-10-31T12:25:40.0000000+00:00</time></trkpt><trkpt lat="39.35024313" lon="-0.31694792"><ele>2.4</ele><time>2022-10-31T12:25:41.0000000+00:00</time></trkpt><trkpt lat="39.35024313" lon="-0.31694792"><ele>2.4</ele><time>2022-10-31T12:25:42.0000000+00:00</time></trkpt><trkpt lat="39.35024313" lon="-0.31694792"><ele>2.4</ele><time>2022-10-31T12:25:43.0000000+00:00</time></trkpt><trkpt lat="39.35024313" lon="-0.31694792"><ele>2.4</ele><time>2022-10-31T12:25:44.0000000+00:00</time></trkpt><trkpt lat="39.35024313" lon="-0.31694792"><ele>2.4</ele><time>2022-10-31T12:25:45.0000000+00:00</time></trkpt><trkpt lat="39.35024313" lon="-0.31694792"><ele>2.4</ele><time>2022-10-31T12:25:46.0000000+00:00</time></trkpt><trkpt lat="39.35024313" lon="-0.31694792"><ele>2.4</ele><time>2022-10-31T12:25:47.0000000+00:00</time></trkpt><trkpt lat="39.35024313" lon="-0.31694792"><ele>2.4</ele><time>2022-10-31T12:25:48.0000000+00:00</time></trkpt><trkpt lat="39.35024313" lon="-0.31694792"><ele>2.4</ele><time>2022-10-31T12:25:49.0000000+00:00</time></trkpt><trkpt lat="39.35024313" lon="-0.31694792"><ele>2.4</ele><time>2022-10-31T12:25:50.0000000+00:00</time></trkpt><trkpt lat="39.35024313" lon="-0.31694792"><ele>2.4</ele><time>2022-10-31T12:25:51.0000000+00:00</time></trkpt><trkpt lat="39.35024313" lon="-0.31694792"><ele>2.4</ele><time>2022-10-31T12:25:52.0000000+00:00</time></trkpt><trkpt lat="39.35024313" lon="-0.31694792"><ele>2.4</ele><time>2022-10-31T12:25:53.0000000+00:00</time></trkpt><trkpt lat="39.35024313" lon="-0.31694792"><ele>2.4</ele><time>2022-10-31T12:25:54.0000000+00:00</time></trkpt><trkpt lat="39.35024313" lon="-0.31694792"><ele>2.4</ele><time>2022-10-31T12:25:55.0000000+00:00</time></trkpt><trkpt lat="39.35024313" lon="-0.31694792"><ele>2.4</ele><time>2022-10-31T12:25:56.0000000+00:00</time></trkpt><trkpt lat="39.35024313" lon="-0.31694792"><ele>2.4</ele><time>2022-10-31T12:25:57.0000000+00:00</time></trkpt><trkpt lat="39.35024313" lon="-0.31694792"><ele>2.4</ele><time>2022-10-31T12:25:58.0000000+00:00</time></trkpt><trkpt lat="39.35024313" lon="-0.31694792"><ele>2.4</ele><time>2022-10-31T12:25:59.0000000+00:00</time></trkpt><trkpt lat="39.35024313" lon="-0.31694792"><ele>2.4</ele><time>2022-10-31T12:26:00.0000000+00:00</time></trkpt><trkpt lat="39.35024313" lon="-0.31694792"><ele>2.4</ele><time>2022-10-31T12:26:01.0000000+00:00</time></trkpt><trkpt lat="39.35024313" lon="-0.31694792"><ele>2.4</ele><time>2022-10-31T12:26:02.0000000+00:00</time></trkpt><trkpt lat="39.35024313" lon="-0.31694792"><ele>2.4</ele><time>2022-10-31T12:26:03.0000000+00:00</time></trkpt><trkpt lat="39.35024313" lon="-0.31694792"><ele>2.4</ele><time>2022-10-31T12:26:04.0000000+00:00</time></trkpt><trkpt lat="39.35024405" lon="-0.31695052"><ele>2.4</ele><time>2022-10-31T12:26:05.0000000+00:00</time></trkpt><trkpt lat="39.35024221" lon="-0.31695362"><ele>2.4</ele><time>2022-10-31T12:26:06.0000000+00:00</time></trkpt><trkpt lat="39.35024221" lon="-0.31695362"><ele>2.4</ele><time>2022-10-31T12:26:07.0000000+00:00</time></trkpt><trkpt lat="39.35024221" lon="-0.31695362"><ele>2.4</ele><time>2022-10-31T12:26:08.0000000+00:00</time></trkpt><trkpt lat="39.35024221" lon="-0.31695362"><ele>2.4</ele><time>2022-10-31T12:26:09.0000000+00:00</time></trkpt><trkpt lat="39.35024221" lon="-0.31695362"><ele>2.4</ele><time>2022-10-31T12:26:10.0000000+00:00</time></trkpt><trkpt lat="39.35024221" lon="-0.31695362"><ele>2.4</ele><time>2022-10-31T12:26:11.0000000+00:00</time></trkpt><trkpt lat="39.35024221" lon="-0.31695362"><ele>2.4</ele><time>2022-10-31T12:26:12.0000000+00:00</time></trkpt><trkpt lat="39.35024221" lon="-0.31695362"><ele>2.4</ele><time>2022-10-31T12:26:13.0000000+00:00</time></trkpt><trkpt lat="39.35024221" lon="-0.31695362"><ele>2.4</ele><time>2022-10-31T12:26:14.0000000+00:00</time></trkpt><trkpt lat="39.35024221" lon="-0.31695362"><ele>2.4</ele><time>2022-10-31T12:26:15.0000000+00:00</time></trkpt><trkpt lat="39.35024221" lon="-0.31695362"><ele>2.4</ele><time>2022-10-31T12:26:16.0000000+00:00</time></trkpt><trkpt lat="39.35024221" lon="-0.31695362"><ele>2.4</ele><time>2022-10-31T12:26:17.0000000+00:00</time></trkpt><trkpt lat="39.35024221" lon="-0.31695362"><ele>2.4</ele><time>2022-10-31T12:26:18.0000000+00:00</time></trkpt><trkpt lat="39.35024221" lon="-0.31695362"><ele>2.4</ele><time>2022-10-31T12:26:19.0000000+00:00</time></trkpt><trkpt lat="39.35024221" lon="-0.31695362"><ele>2.4</ele><time>2022-10-31T12:26:20.0000000+00:00</time></trkpt><trkpt lat="39.35024623" lon="-0.31695287"><ele>2.4</ele><time>2022-10-31T12:26:21.0000000+00:00</time></trkpt><trkpt lat="39.3502536" lon="-0.3169491"><ele>2.4</ele><time>2022-10-31T12:26:22.0000000+00:00</time></trkpt><trkpt lat="39.35025553" lon="-0.31694574"><ele>2.4</ele><time>2022-10-31T12:26:23.0000000+00:00</time></trkpt><trkpt lat="39.35025553" lon="-0.31694574"><ele>2.4</ele><time>2022-10-31T12:26:24.0000000+00:00</time></trkpt><trkpt lat="39.35025553" lon="-0.31694574"><ele>2.4</ele><time>2022-10-31T12:26:25.0000000+00:00</time></trkpt><trkpt lat="39.35025746" lon="-0.31694524"><ele>2.4</ele><time>2022-10-31T12:26:26.0000000+00:00</time></trkpt><trkpt lat="39.35025905" lon="-0.31694189"><ele>2.4</ele><time>2022-10-31T12:26:27.0000000+00:00</time></trkpt><trkpt lat="39.35025905" lon="-0.31694189"><ele>2.4</ele><time>2022-10-31T12:26:28.0000000+00:00</time></trkpt><trkpt lat="39.35025905" lon="-0.31694189"><ele>2.4</ele><time>2022-10-31T12:26:29.0000000+00:00</time></trkpt><trkpt lat="39.35025905" lon="-0.31694189"><ele>2.4</ele><time>2022-10-31T12:26:30.0000000+00:00</time></trkpt><trkpt lat="39.35025905" lon="-0.31694189"><ele>2.4</ele><time>2022-10-31T12:26:31.0000000+00:00</time></trkpt><trkpt lat="39.35025905" lon="-0.31694189"><ele>2.4</ele><time>2022-10-31T12:26:32.0000000+00:00</time></trkpt><trkpt lat="39.35025905" lon="-0.31694189"><ele>2.4</ele><time>2022-10-31T12:26:33.0000000+00:00</time></trkpt><trkpt lat="39.35025905" lon="-0.31694189"><ele>2.4</ele><time>2022-10-31T12:26:34.0000000+00:00</time></trkpt><trkpt lat="39.35025905" lon="-0.31694189"><ele>2.4</ele><time>2022-10-31T12:26:35.0000000+00:00</time></trkpt><trkpt lat="39.35025905" lon="-0.31694189"><ele>2.4</ele><time>2022-10-31T12:26:36.0000000+00:00</time></trkpt><trkpt lat="39.35025905" lon="-0.31694189"><ele>2.4</ele><time>2022-10-31T12:26:37.0000000+00:00</time></trkpt><trkpt lat="39.35025905" lon="-0.31694189"><ele>2.4</ele><time>2022-10-31T12:26:38.0000000+00:00</time></trkpt><trkpt lat="39.35025905" lon="-0.31694189"><ele>2.4</ele><time>2022-10-31T12:26:39.0000000+00:00</time></trkpt><trkpt lat="39.35025905" lon="-0.31694189"><ele>2.4</ele><time>2022-10-31T12:26:40.0000000+00:00</time></trkpt><trkpt lat="39.35025905" lon="-0.31694189"><ele>2.4</ele><time>2022-10-31T12:26:41.0000000+00:00</time></trkpt><trkpt lat="39.35025905" lon="-0.31694189"><ele>2.4</ele><time>2022-10-31T12:26:42.0000000+00:00</time></trkpt><trkpt lat="39.35025905" lon="-0.31694189"><ele>2.4</ele><time>2022-10-31T12:26:43.0000000+00:00</time></trkpt><trkpt lat="39.35025905" lon="-0.31694189"><ele>2.4</ele><time>2022-10-31T12:26:44.0000000+00:00</time></trkpt><trkpt lat="39.35025905" lon="-0.31694189"><ele>2.4</ele><time>2022-10-31T12:26:45.0000000+00:00</time></trkpt><trkpt lat="39.35025905" lon="-0.31694189"><ele>2.4</ele><time>2022-10-31T12:26:46.0000000+00:00</time></trkpt><trkpt lat="39.35025905" lon="-0.31694189"><ele>2.4</ele><time>2022-10-31T12:26:47.0000000+00:00</time></trkpt><trkpt lat="39.35025788" lon="-0.31694507"><ele>2.4</ele><time>2022-10-31T12:26:48.0000000+00:00</time></trkpt><trkpt lat="39.35025972" lon="-0.31694314"><ele>2.4</ele><time>2022-10-31T12:26:49.0000000+00:00</time></trkpt><trkpt lat="39.35025972" lon="-0.31694314"><ele>2.4</ele><time>2022-10-31T12:26:50.0000000+00:00</time></trkpt><trkpt lat="39.35025972" lon="-0.31694314"><ele>2.4</ele><time>2022-10-31T12:26:51.0000000+00:00</time></trkpt><trkpt lat="39.35025972" lon="-0.31694314"><ele>2.4</ele><time>2022-10-31T12:26:52.0000000+00:00</time></trkpt><trkpt lat="39.35025972" lon="-0.31694314"><ele>2.4</ele><time>2022-10-31T12:26:53.0000000+00:00</time></trkpt><trkpt lat="39.35025972" lon="-0.31694314"><ele>2.4</ele><time>2022-10-31T12:26:54.0000000+00:00</time></trkpt><trkpt lat="39.35025972" lon="-0.31694314"><ele>2.4</ele><time>2022-10-31T12:26:55.0000000+00:00</time></trkpt><trkpt lat="39.35025972" lon="-0.31694314"><ele>2.4</ele><time>2022-10-31T12:26:56.0000000+00:00</time></trkpt><trkpt lat="39.35025972" lon="-0.31694314"><ele>2.4</ele><time>2022-10-31T12:26:57.0000000+00:00</time></trkpt><trkpt lat="39.35025972" lon="-0.31694314"><ele>2.4</ele><time>2022-10-31T12:26:58.0000000+00:00</time></trkpt><trkpt lat="39.35025972" lon="-0.31694314"><ele>2.4</ele><time>2022-10-31T12:26:59.0000000+00:00</time></trkpt><trkpt lat="39.35025972" lon="-0.31694314"><ele>2.4</ele><time>2022-10-31T12:27:00.0000000+00:00</time></trkpt><trkpt lat="39.35025972" lon="-0.31694314"><ele>2.4</ele><time>2022-10-31T12:27:01.0000000+00:00</time></trkpt><trkpt lat="39.35025972" lon="-0.31694314"><ele>2.4</ele><time>2022-10-31T12:27:02.0000000+00:00</time></trkpt><trkpt lat="39.35025972" lon="-0.31694314"><ele>2.4</ele><time>2022-10-31T12:27:03.0000000+00:00</time></trkpt><trkpt lat="39.35025972" lon="-0.31694314"><ele>2.4</ele><time>2022-10-31T12:27:04.0000000+00:00</time></trkpt><trkpt lat="39.35025972" lon="-0.31694314"><ele>2.4</ele><time>2022-10-31T12:27:05.0000000+00:00</time></trkpt><trkpt lat="39.35025972" lon="-0.31694314"><ele>2.4</ele><time>2022-10-31T12:27:06.0000000+00:00</time></trkpt><trkpt lat="39.35025972" lon="-0.31694314"><ele>2.4</ele><time>2022-10-31T12:27:07.0000000+00:00</time></trkpt><trkpt lat="39.35025972" lon="-0.31694314"><ele>2.4</ele><time>2022-10-31T12:27:08.0000000+00:00</time></trkpt><trkpt lat="39.35025972" lon="-0.31694314"><ele>2.4</ele><time>2022-10-31T12:27:09.0000000+00:00</time></trkpt><trkpt lat="39.35025972" lon="-0.31694314"><ele>2.4</ele><time>2022-10-31T12:27:10.0000000+00:00</time></trkpt><trkpt lat="39.35025972" lon="-0.31694314"><ele>2.4</ele><time>2022-10-31T12:27:11.0000000+00:00</time></trkpt><trkpt lat="39.35026492" lon="-0.31693904"><ele>2.4</ele><time>2022-10-31T12:27:12.0000000+00:00</time></trkpt><trkpt lat="39.35026668" lon="-0.31693669"><ele>2.4</ele><time>2022-10-31T12:27:13.0000000+00:00</time></trkpt><trkpt lat="39.35026668" lon="-0.31693669"><ele>2.4</ele><time>2022-10-31T12:27:14.0000000+00:00</time></trkpt><trkpt lat="39.35026668" lon="-0.31693669"><ele>2.4</ele><time>2022-10-31T12:27:15.0000000+00:00</time></trkpt><trkpt lat="39.35026668" lon="-0.31693669"><ele>2.4</ele><time>2022-10-31T12:27:16.0000000+00:00</time></trkpt><trkpt lat="39.35026668" lon="-0.31693669"><ele>2.4</ele><time>2022-10-31T12:27:17.0000000+00:00</time></trkpt><trkpt lat="39.35026668" lon="-0.31693669"><ele>2.4</ele><time>2022-10-31T12:27:18.0000000+00:00</time></trkpt><trkpt lat="39.35026668" lon="-0.31693669"><ele>2.4</ele><time>2022-10-31T12:27:19.0000000+00:00</time></trkpt><trkpt lat="39.35026668" lon="-0.31693669"><ele>2.4</ele><time>2022-10-31T12:27:20.0000000+00:00</time></trkpt><trkpt lat="39.35026668" lon="-0.31693669"><ele>2.4</ele><time>2022-10-31T12:27:21.0000000+00:00</time></trkpt><trkpt lat="39.35026668" lon="-0.31693669"><ele>2.4</ele><time>2022-10-31T12:27:22.0000000+00:00</time></trkpt><trkpt lat="39.35026668" lon="-0.31693669"><ele>2.4</ele><time>2022-10-31T12:27:23.0000000+00:00</time></trkpt><trkpt lat="39.35026668" lon="-0.31693669"><ele>2.4</ele><time>2022-10-31T12:27:24.0000000+00:00</time></trkpt><trkpt lat="39.35026668" lon="-0.31693669"><ele>2.4</ele><time>2022-10-31T12:27:25.0000000+00:00</time></trkpt><trkpt lat="39.35026668" lon="-0.31693669"><ele>2.4</ele><time>2022-10-31T12:27:26.0000000+00:00</time></trkpt><trkpt lat="39.35026668" lon="-0.31693669"><ele>2.4</ele><time>2022-10-31T12:27:27.0000000+00:00</time></trkpt><trkpt lat="39.35026668" lon="-0.31693669"><ele>2.4</ele><time>2022-10-31T12:27:28.0000000+00:00</time></trkpt><trkpt lat="39.35026668" lon="-0.31693669"><ele>2.4</ele><time>2022-10-31T12:27:29.0000000+00:00</time></trkpt><trkpt lat="39.35027028" lon="-0.31694071"><ele>2.4</ele><time>2022-10-31T12:27:30.0000000+00:00</time></trkpt><trkpt lat="39.35027238" lon="-0.31694365"><ele>2.4</ele><time>2022-10-31T12:27:31.0000000+00:00</time></trkpt><trkpt lat="39.35027238" lon="-0.31694365"><ele>2.4</ele><time>2022-10-31T12:27:32.0000000+00:00</time></trkpt><trkpt lat="39.35027238" lon="-0.31694365"><ele>2.4</ele><time>2022-10-31T12:27:33.0000000+00:00</time></trkpt><trkpt lat="39.35027238" lon="-0.31694365"><ele>2.4</ele><time>2022-10-31T12:27:34.0000000+00:00</time></trkpt><trkpt lat="39.35027238" lon="-0.31694365"><ele>2.4</ele><time>2022-10-31T12:27:35.0000000+00:00</time></trkpt><trkpt lat="39.35027238" lon="-0.31694365"><ele>2.4</ele><time>2022-10-31T12:27:36.0000000+00:00</time></trkpt><trkpt lat="39.35027238" lon="-0.31694365"><ele>2.4</ele><time>2022-10-31T12:27:37.0000000+00:00</time></trkpt><trkpt lat="39.35027238" lon="-0.31694365"><ele>2.4</ele><time>2022-10-31T12:27:38.0000000+00:00</time></trkpt><trkpt lat="39.35027238" lon="-0.31694365"><ele>2.4</ele><time>2022-10-31T12:27:39.0000000+00:00</time></trkpt><trkpt lat="39.35027238" lon="-0.31694365"><ele>2.4</ele><time>2022-10-31T12:27:40.0000000+00:00</time></trkpt><trkpt lat="39.35027238" lon="-0.31694365"><ele>2.4</ele><time>2022-10-31T12:27:41.0000000+00:00</time></trkpt><trkpt lat="39.35027238" lon="-0.31694365"><ele>2.4</ele><time>2022-10-31T12:27:42.0000000+00:00</time></trkpt><trkpt lat="39.35027238" lon="-0.31694365"><ele>2.4</ele><time>2022-10-31T12:27:43.0000000+00:00</time></trkpt><trkpt lat="39.35027238" lon="-0.31694365"><ele>2.4</ele><time>2022-10-31T12:27:44.0000000+00:00</time></trkpt><trkpt lat="39.35027238" lon="-0.31694365"><ele>2.4</ele><time>2022-10-31T12:27:45.0000000+00:00</time></trkpt><trkpt lat="39.35027238" lon="-0.31694365"><ele>2.4</ele><time>2022-10-31T12:27:46.0000000+00:00</time></trkpt><trkpt lat="39.35027238" lon="-0.31694365"><ele>2.4</ele><time>2022-10-31T12:27:47.0000000+00:00</time></trkpt><trkpt lat="39.35027238" lon="-0.31694365"><ele>2.4</ele><time>2022-10-31T12:27:48.0000000+00:00</time></trkpt><trkpt lat="39.35027238" lon="-0.31694365"><ele>2.4</ele><time>2022-10-31T12:27:49.0000000+00:00</time></trkpt><trkpt lat="39.35027238" lon="-0.31694365"><ele>2.4</ele><time>2022-10-31T12:27:50.0000000+00:00</time></trkpt><trkpt lat="39.35027238" lon="-0.31694365"><ele>2.4</ele><time>2022-10-31T12:27:51.0000000+00:00</time></trkpt><trkpt lat="39.35026869" lon="-0.3169439"><ele>2.4</ele><time>2022-10-31T12:27:52.0000000+00:00</time></trkpt><trkpt lat="39.35025587" lon="-0.31694826"><ele>2.4</ele><time>2022-10-31T12:27:53.0000000+00:00</time></trkpt><trkpt lat="39.35024137" lon="-0.31694809"><ele>2.4</ele><time>2022-10-31T12:27:54.0000000+00:00</time></trkpt><trkpt lat="39.35022854" lon="-0.31694717"><ele>2.4</ele><time>2022-10-31T12:27:55.0000000+00:00</time></trkpt><trkpt lat="39.35021689" lon="-0.31694608"><ele>2.4</ele><time>2022-10-31T12:27:56.0000000+00:00</time></trkpt><trkpt lat="39.35020767" lon="-0.31694499"><ele>2.4</ele><time>2022-10-31T12:27:57.0000000+00:00</time></trkpt><trkpt lat="39.35019317" lon="-0.31694138"><ele>2.8</ele><time>2022-10-31T12:27:58.0000000+00:00</time></trkpt><trkpt lat="39.35017054" lon="-0.31693837"><ele>3.0</ele><time>2022-10-31T12:27:59.0000000+00:00</time></trkpt><trkpt lat="39.35014581" lon="-0.31693518"><ele>3.2</ele><time>2022-10-31T12:28:00.0000000+00:00</time></trkpt><trkpt lat="39.35012075" lon="-0.31693116"><ele>3.4</ele><time>2022-10-31T12:28:01.0000000+00:00</time></trkpt><trkpt lat="39.35009896" lon="-0.31692378"><ele>3.6</ele><time>2022-10-31T12:28:02.0000000+00:00</time></trkpt><trkpt lat="39.35008043" lon="-0.3169123"><ele>3.6</ele><time>2022-10-31T12:28:03.0000000+00:00</time></trkpt><trkpt lat="39.35006359" lon="-0.31689981"><ele>3.8</ele><time>2022-10-31T12:28:04.0000000+00:00</time></trkpt><trkpt lat="39.35004288" lon="-0.31689403"><ele>3.8</ele><time>2022-10-31T12:28:05.0000000+00:00</time></trkpt><trkpt lat="39.3500195" lon="-0.31689419"><ele>3.8</ele><time>2022-10-31T12:28:06.0000000+00:00</time></trkpt><trkpt lat="39.34999779" lon="-0.31689352"><ele>3.8</ele><time>2022-10-31T12:28:07.0000000+00:00</time></trkpt><trkpt lat="39.34997533" lon="-0.31688841"><ele>3.8</ele><time>2022-10-31T12:28:08.0000000+00:00</time></trkpt><trkpt lat="39.34995311" lon="-0.31687819"><ele>3.8</ele><time>2022-10-31T12:28:09.0000000+00:00</time></trkpt><trkpt lat="39.34993149" lon="-0.31686578"><ele>3.8</ele><time>2022-10-31T12:28:10.0000000+00:00</time></trkpt><trkpt lat="39.34990726" lon="-0.31685421"><ele>3.8</ele><time>2022-10-31T12:28:11.0000000+00:00</time></trkpt><trkpt lat="39.34988128" lon="-0.31684558"><ele>3.8</ele><time>2022-10-31T12:28:12.0000000+00:00</time></trkpt><trkpt lat="39.34985245" lon="-0.31684005"><ele>3.8</ele><time>2022-10-31T12:28:13.0000000+00:00</time></trkpt><trkpt lat="39.34982294" lon="-0.31683384"><ele>3.8</ele><time>2022-10-31T12:28:14.0000000+00:00</time></trkpt><trkpt lat="39.34979411" lon="-0.3168268"><ele>3.8</ele><time>2022-10-31T12:28:15.0000000+00:00</time></trkpt><trkpt lat="39.34976754" lon="-0.31681851"><ele>3.8</ele><time>2022-10-31T12:28:16.0000000+00:00</time></trkpt><trkpt lat="39.34974097" lon="-0.31681004"><ele>3.8</ele><time>2022-10-31T12:28:17.0000000+00:00</time></trkpt><trkpt lat="39.3497144" lon="-0.31680191"><ele>4.0</ele><time>2022-10-31T12:28:18.0000000+00:00</time></trkpt><trkpt lat="39.34968984" lon="-0.31679126"><ele>4.0</ele><time>2022-10-31T12:28:19.0000000+00:00</time></trkpt><trkpt lat="39.34966419" lon="-0.31677542"><ele>4.0</ele><time>2022-10-31T12:28:20.0000000+00:00</time></trkpt><trkpt lat="39.34964156" lon="-0.31675925"><ele>4.0</ele><time>2022-10-31T12:28:21.0000000+00:00</time></trkpt><trkpt lat="39.34961373" lon="-0.31674776"><ele>4.0</ele><time>2022-10-31T12:28:22.0000000+00:00</time></trkpt><trkpt lat="39.34958456" lon="-0.31673695"><ele>4.0</ele><time>2022-10-31T12:28:23.0000000+00:00</time></trkpt><trkpt lat="39.34955455" lon="-0.31672698"><ele>4.0</ele><time>2022-10-31T12:28:24.0000000+00:00</time></trkpt><trkpt lat="39.34952589" lon="-0.31671558"><ele>4.0</ele><time>2022-10-31T12:28:25.0000000+00:00</time></trkpt><trkpt lat="39.34949999" lon="-0.31670443"><ele>3.8</ele><time>2022-10-31T12:28:26.0000000+00:00</time></trkpt><trkpt lat="39.34947434" lon="-0.31669471"><ele>3.8</ele><time>2022-10-31T12:28:27.0000000+00:00</time></trkpt><trkpt lat="39.34944844" lon="-0.31668456"><ele>3.8</ele><time>2022-10-31T12:28:28.0000000+00:00</time></trkpt><trkpt lat="39.3494243" lon="-0.31667459"><ele>3.8</ele><time>2022-10-31T12:28:29.0000000+00:00</time></trkpt><trkpt lat="39.34939932" lon="-0.31666084"><ele>3.8</ele><time>2022-10-31T12:28:30.0000000+00:00</time></trkpt><trkpt lat="39.349373" lon="-0.31664684"><ele>3.8</ele><time>2022-10-31T12:28:31.0000000+00:00</time></trkpt><trkpt lat="39.34934358" lon="-0.31663486"><ele>3.8</ele><time>2022-10-31T12:28:32.0000000+00:00</time></trkpt><trkpt lat="39.3493124" lon="-0.31662329"><ele>3.6</ele><time>2022-10-31T12:28:33.0000000+00:00</time></trkpt><trkpt lat="39.34928231" lon="-0.31661172"><ele>3.4</ele><time>2022-10-31T12:28:34.0000000+00:00</time></trkpt><trkpt lat="39.34925088" lon="-0.3166015"><ele>3.4</ele><time>2022-10-31T12:28:35.0000000+00:00</time></trkpt><trkpt lat="39.34922623" lon="-0.31659882"><ele>3.2</ele><time>2022-10-31T12:28:36.0000000+00:00</time></trkpt><trkpt lat="39.34920084" lon="-0.31659982"><ele>3.2</ele><time>2022-10-31T12:28:37.0000000+00:00</time></trkpt><trkpt lat="39.34917695" lon="-0.31659823"><ele>3.2</ele><time>2022-10-31T12:28:38.0000000+00:00</time></trkpt><trkpt lat="39.34915356" lon="-0.31659245"><ele>3.2</ele><time>2022-10-31T12:28:39.0000000+00:00</time></trkpt><trkpt lat="39.34913026" lon="-0.31658507"><ele>3.2</ele><time>2022-10-31T12:28:40.0000000+00:00</time></trkpt><trkpt lat="39.34910914" lon="-0.316573"><ele>3.2</ele><time>2022-10-31T12:28:41.0000000+00:00</time></trkpt><trkpt lat="39.34908575" lon="-0.31655892"><ele>3.2</ele><time>2022-10-31T12:28:42.0000000+00:00</time></trkpt><trkpt lat="39.34906086" lon="-0.31654886"><ele>3.2</ele><time>2022-10-31T12:28:43.0000000+00:00</time></trkpt><trkpt lat="39.34903488" lon="-0.31654081"><ele>3.2</ele><time>2022-10-31T12:28:44.0000000+00:00</time></trkpt><trkpt lat="39.3490135" lon="-0.31653629"><ele>3.2</ele><time>2022-10-31T12:28:45.0000000+00:00</time></trkpt><trkpt lat="39.34898316" lon="-0.31653008"><ele>3.2</ele><time>2022-10-31T12:28:46.0000000+00:00</time></trkpt><trkpt lat="39.3489529" lon="-0.31652606"><ele>3.2</ele><time>2022-10-31T12:28:47.0000000+00:00</time></trkpt><trkpt lat="39.34892759" lon="-0.31652003"><ele>3.2</ele><time>2022-10-31T12:28:48.0000000+00:00</time></trkpt><trkpt lat="39.34890336" lon="-0.3165041"><ele>3.2</ele><time>2022-10-31T12:28:49.0000000+00:00</time></trkpt><trkpt lat="39.34887721" lon="-0.31648994"><ele>3.2</ele><time>2022-10-31T12:28:50.0000000+00:00</time></trkpt><trkpt lat="39.3488555" lon="-0.31647862"><ele>3.2</ele><time>2022-10-31T12:28:51.0000000+00:00</time></trkpt><trkpt lat="39.34883153" lon="-0.31646781"><ele>3.2</ele><time>2022-10-31T12:28:52.0000000+00:00</time></trkpt><trkpt lat="39.34880488" lon="-0.316458"><ele>3.2</ele><time>2022-10-31T12:28:53.0000000+00:00</time></trkpt><trkpt lat="39.3487794" lon="-0.31644937"><ele>3.2</ele><time>2022-10-31T12:28:54.0000000+00:00</time></trkpt><trkpt lat="39.34875215" lon="-0.31644316"><ele>3.2</ele><time>2022-10-31T12:28:55.0000000+00:00</time></trkpt><trkpt lat="39.3487219" lon="-0.31644216"><ele>3.2</ele><time>2022-10-31T12:28:56.0000000+00:00</time></trkpt><trkpt lat="39.34869331" lon="-0.31645155"><ele>3.2</ele><time>2022-10-31T12:28:57.0000000+00:00</time></trkpt><trkpt lat="39.3486675" lon="-0.3164715"><ele>3.2</ele><time>2022-10-31T12:28:58.0000000+00:00</time></trkpt><trkpt lat="39.34864579" lon="-0.31650159"><ele>3.0</ele><time>2022-10-31T12:28:59.0000000+00:00</time></trkpt><trkpt lat="39.34862852" lon="-0.31653352"><ele>3.0</ele><time>2022-10-31T12:29:00.0000000+00:00</time></trkpt><trkpt lat="39.3486141" lon="-0.31656789"><ele>2.8</ele><time>2022-10-31T12:29:01.0000000+00:00</time></trkpt><trkpt lat="39.34860136" lon="-0.31660267"><ele>2.8</ele><time>2022-10-31T12:29:02.0000000+00:00</time></trkpt><trkpt lat="39.34859131" lon="-0.31664106"><ele>2.8</ele><time>2022-10-31T12:29:03.0000000+00:00</time></trkpt><trkpt lat="39.34857806" lon="-0.31667962"><ele>2.6</ele><time>2022-10-31T12:29:04.0000000+00:00</time></trkpt><trkpt lat="39.34856272" lon="-0.31671876"><ele>2.6</ele><time>2022-10-31T12:29:05.0000000+00:00</time></trkpt><trkpt lat="39.34854345" lon="-0.31675288"><ele>2.6</ele><time>2022-10-31T12:29:06.0000000+00:00</time></trkpt><trkpt lat="39.34852249" lon="-0.31678632"><ele>2.6</ele><time>2022-10-31T12:29:07.0000000+00:00</time></trkpt><trkpt lat="39.34850128" lon="-0.31682152"><ele>2.6</ele><time>2022-10-31T12:29:08.0000000+00:00</time></trkpt><trkpt lat="39.34848142" lon="-0.31685815"><ele>2.8</ele><time>2022-10-31T12:29:09.0000000+00:00</time></trkpt><trkpt lat="39.34846222" lon="-0.31689411"><ele>2.8</ele><time>2022-10-31T12:29:10.0000000+00:00</time></trkpt><trkpt lat="39.34844395" lon="-0.31692856"><ele>2.8</ele><time>2022-10-31T12:29:11.0000000+00:00</time></trkpt><trkpt lat="39.34842367" lon="-0.31696033"><ele>2.8</ele><time>2022-10-31T12:29:12.0000000+00:00</time></trkpt><trkpt lat="39.34840187" lon="-0.31698816"><ele>2.8</ele><time>2022-10-31T12:29:13.0000000+00:00</time></trkpt><trkpt lat="39.34837757" lon="-0.31701163"><ele>2.8</ele><time>2022-10-31T12:29:14.0000000+00:00</time></trkpt><trkpt lat="39.34835225" lon="-0.31703409"><ele>2.8</ele><time>2022-10-31T12:29:15.0000000+00:00</time></trkpt><trkpt lat="39.34832501" lon="-0.31705312"><ele>2.8</ele><time>2022-10-31T12:29:16.0000000+00:00</time></trkpt><trkpt lat="39.34829484" lon="-0.31706569"><ele>2.8</ele><time>2022-10-31T12:29:17.0000000+00:00</time></trkpt><trkpt lat="39.34826542" lon="-0.31707256"><ele>2.8</ele><time>2022-10-31T12:29:18.0000000+00:00</time></trkpt><trkpt lat="39.34823499" lon="-0.31707508"><ele>2.8</ele><time>2022-10-31T12:29:19.0000000+00:00</time></trkpt><trkpt lat="39.34820314" lon="-0.31707591"><ele>3.0</ele><time>2022-10-31T12:29:20.0000000+00:00</time></trkpt><trkpt lat="39.34817162" lon="-0.31707499"><ele>3.0</ele><time>2022-10-31T12:29:21.0000000+00:00</time></trkpt><trkpt lat="39.34814044" lon="-0.31707172"><ele>3.0</ele><time>2022-10-31T12:29:22.0000000+00:00</time></trkpt><trkpt lat="39.34810725" lon="-0.31706845"><ele>3.2</ele><time>2022-10-31T12:29:23.0000000+00:00</time></trkpt><trkpt lat="39.34807506" lon="-0.31706862"><ele>3.4</ele><time>2022-10-31T12:29:24.0000000+00:00</time></trkpt><trkpt lat="39.34804263" lon="-0.31707021"><ele>3.4</ele><time>2022-10-31T12:29:25.0000000+00:00</time></trkpt><trkpt lat="39.34800834" lon="-0.3170708"><ele>3.4</ele><time>2022-10-31T12:29:26.0000000+00:00</time></trkpt><trkpt lat="39.34797348" lon="-0.31707617"><ele>3.4</ele><time>2022-10-31T12:29:27.0000000+00:00</time></trkpt><trkpt lat="39.34793861" lon="-0.31708882"><ele>3.4</ele><time>2022-10-31T12:29:28.0000000+00:00</time></trkpt><trkpt lat="39.34790826" lon="-0.31710919"><ele>3.4</ele><time>2022-10-31T12:29:29.0000000+00:00</time></trkpt><trkpt lat="39.34788697" lon="-0.31712847"><ele>3.2</ele><time>2022-10-31T12:29:30.0000000+00:00</time></trkpt><trkpt lat="39.34786049" lon="-0.3171661"><ele>3.2</ele><time>2022-10-31T12:29:31.0000000+00:00</time></trkpt><trkpt lat="39.34784272" lon="-0.31720265"><ele>3.2</ele><time>2022-10-31T12:29:32.0000000+00:00</time></trkpt><trkpt lat="39.34782528" lon="-0.31723802"><ele>3.2</ele><time>2022-10-31T12:29:33.0000000+00:00</time></trkpt><trkpt lat="39.34781078" lon="-0.31727473"><ele>3.4</ele><time>2022-10-31T12:29:34.0000000+00:00</time></trkpt><trkpt lat="39.34779838" lon="-0.31731379"><ele>3.4</ele><time>2022-10-31T12:29:35.0000000+00:00</time></trkpt><trkpt lat="39.34778656" lon="-0.31734967"><ele>3.6</ele><time>2022-10-31T12:29:36.0000000+00:00</time></trkpt><trkpt lat="39.34777868" lon="-0.31738797"><ele>3.6</ele><time>2022-10-31T12:29:37.0000000+00:00</time></trkpt><trkpt lat="39.34777273" lon="-0.31742938"><ele>3.8</ele><time>2022-10-31T12:29:38.0000000+00:00</time></trkpt><trkpt lat="39.34777038" lon="-0.3174733"><ele>4.0</ele><time>2022-10-31T12:29:39.0000000+00:00</time></trkpt><trkpt lat="39.34777516" lon="-0.31752024"><ele>4.0</ele><time>2022-10-31T12:29:40.0000000+00:00</time></trkpt><trkpt lat="39.34778161" lon="-0.31756433"><ele>4.2</ele><time>2022-10-31T12:29:41.0000000+00:00</time></trkpt><trkpt lat="39.34778882" lon="-0.31760925"><ele>4.2</ele><time>2022-10-31T12:29:42.0000000+00:00</time></trkpt><trkpt lat="39.34779611" lon="-0.31765586"><ele>4.4</ele><time>2022-10-31T12:29:43.0000000+00:00</time></trkpt><trkpt lat="39.34779679" lon="-0.31770246"><ele>4.4</ele><time>2022-10-31T12:29:44.0000000+00:00</time></trkpt><trkpt lat="39.34778924" lon="-0.31774554"><ele>4.4</ele><time>2022-10-31T12:29:45.0000000+00:00</time></trkpt><trkpt lat="39.347777" lon="-0.31778804"><ele>4.4</ele><time>2022-10-31T12:29:46.0000000+00:00</time></trkpt><trkpt lat="39.34776418" lon="-0.31783003"><ele>4.4</ele><time>2022-10-31T12:29:47.0000000+00:00</time></trkpt><trkpt lat="39.347747" lon="-0.31787119"><ele>4.4</ele><time>2022-10-31T12:29:48.0000000+00:00</time></trkpt><trkpt lat="39.3477247" lon="-0.31791385"><ele>4.2</ele><time>2022-10-31T12:29:49.0000000+00:00</time></trkpt><trkpt lat="39.34770534" lon="-0.31795794"><ele>4.2</ele><time>2022-10-31T12:29:50.0000000+00:00</time></trkpt><trkpt lat="39.34769226" lon="-0.31800035"><ele>4.2</ele><time>2022-10-31T12:29:51.0000000+00:00</time></trkpt><trkpt lat="39.34767843" lon="-0.31803355"><ele>4.2</ele><time>2022-10-31T12:29:52.0000000+00:00</time></trkpt><trkpt lat="39.34766251" lon="-0.31807487"><ele>4.2</ele><time>2022-10-31T12:29:53.0000000+00:00</time></trkpt><trkpt lat="39.34764532" lon="-0.31812809"><ele>4.0</ele><time>2022-10-31T12:29:54.0000000+00:00</time></trkpt><trkpt lat="39.34762948" lon="-0.31815827"><ele>4.0</ele><time>2022-10-31T12:29:55.0000000+00:00</time></trkpt><trkpt lat="39.34761238" lon="-0.31819557"><ele>4.2</ele><time>2022-10-31T12:29:56.0000000+00:00</time></trkpt><trkpt lat="39.34760626" lon="-0.31821971"><ele>4.2</ele><time>2022-10-31T12:29:57.0000000+00:00</time></trkpt><trkpt lat="39.34759797" lon="-0.31823639"><ele>4.2</ele><time>2022-10-31T12:29:58.0000000+00:00</time></trkpt><trkpt lat="39.34758548" lon="-0.31824418"><ele>4.2</ele><time>2022-10-31T12:29:59.0000000+00:00</time></trkpt><trkpt lat="39.34757131" lon="-0.31825047"><ele>4.2</ele><time>2022-10-31T12:30:00.0000000+00:00</time></trkpt><trkpt lat="39.34756092" lon="-0.31826153"><ele>4.4</ele><time>2022-10-31T12:30:01.0000000+00:00</time></trkpt><trkpt lat="39.34755111" lon="-0.31827654"><ele>4.4</ele><time>2022-10-31T12:30:02.0000000+00:00</time></trkpt><trkpt lat="39.34754256" lon="-0.31828911"><ele>4.4</ele><time>2022-10-31T12:30:03.0000000+00:00</time></trkpt><trkpt lat="39.3475284" lon="-0.31830386"><ele>4.4</ele><time>2022-10-31T12:30:04.0000000+00:00</time></trkpt><trkpt lat="39.34751825" lon="-0.31830881"><ele>4.6</ele><time>2022-10-31T12:30:05.0000000+00:00</time></trkpt><trkpt lat="39.34750468" lon="-0.31831551"><ele>4.6</ele><time>2022-10-31T12:30:06.0000000+00:00</time></trkpt><trkpt lat="39.3474911" lon="-0.31831509"><ele>4.6</ele><time>2022-10-31T12:30:07.0000000+00:00</time></trkpt><trkpt lat="39.34748221" lon="-0.31831032"><ele>4.6</ele><time>2022-10-31T12:30:08.0000000+00:00</time></trkpt><trkpt lat="39.34747291" lon="-0.31830487"><ele>4.6</ele><time>2022-10-31T12:30:09.0000000+00:00</time></trkpt><trkpt lat="39.34746369" lon="-0.31830118"><ele>4.6</ele><time>2022-10-31T12:30:10.0000000+00:00</time></trkpt><trkpt lat="39.34745765" lon="-0.31829246"><ele>4.6</ele><time>2022-10-31T12:30:11.0000000+00:00</time></trkpt><trkpt lat="39.34744986" lon="-0.31828408"><ele>4.6</ele><time>2022-10-31T12:30:12.0000000+00:00</time></trkpt><trkpt lat="39.3474393" lon="-0.31828023"><ele>4.6</ele><time>2022-10-31T12:30:13.0000000+00:00</time></trkpt><trkpt lat="39.34742136" lon="-0.31827771"><ele>4.6</ele><time>2022-10-31T12:30:14.0000000+00:00</time></trkpt><trkpt lat="39.34740862" lon="-0.31826799"><ele>4.8</ele><time>2022-10-31T12:30:15.0000000+00:00</time></trkpt><trkpt lat="39.34739831" lon="-0.31826187"><ele>4.8</ele><time>2022-10-31T12:30:16.0000000+00:00</time></trkpt><trkpt lat="39.34738649" lon="-0.31825399"><ele>4.8</ele><time>2022-10-31T12:30:17.0000000+00:00</time></trkpt><trkpt lat="39.34737484" lon="-0.31823773"><ele>4.8</ele><time>2022-10-31T12:30:18.0000000+00:00</time></trkpt><trkpt lat="39.34736277" lon="-0.31822172"><ele>4.8</ele><time>2022-10-31T12:30:19.0000000+00:00</time></trkpt><trkpt lat="39.34735078" lon="-0.31820596"><ele>4.8</ele><time>2022-10-31T12:30:20.0000000+00:00</time></trkpt><trkpt lat="39.34733737" lon="-0.31819079"><ele>5.0</ele><time>2022-10-31T12:30:21.0000000+00:00</time></trkpt><trkpt lat="39.34732363" lon="-0.31818082"><ele>5.0</ele><time>2022-10-31T12:30:22.0000000+00:00</time></trkpt><trkpt lat="39.34730611" lon="-0.31816757"><ele>5.0</ele><time>2022-10-31T12:30:23.0000000+00:00</time></trkpt><trkpt lat="39.34729094" lon="-0.31815894"><ele>5.0</ele><time>2022-10-31T12:30:24.0000000+00:00</time></trkpt><trkpt lat="39.34728557" lon="-0.31815819"><ele>5.0</ele><time>2022-10-31T12:30:25.0000000+00:00</time></trkpt><trkpt lat="39.34728557" lon="-0.31815819"><ele>5.0</ele><time>2022-10-31T12:30:26.0000000+00:00</time></trkpt><trkpt lat="39.34728557" lon="-0.31815819"><ele>5.0</ele><time>2022-10-31T12:30:27.0000000+00:00</time></trkpt><trkpt lat="39.34728557" lon="-0.31815819"><ele>5.0</ele><time>2022-10-31T12:30:28.0000000+00:00</time></trkpt><trkpt lat="39.34728557" lon="-0.31815819"><ele>5.0</ele><time>2022-10-31T12:30:29.0000000+00:00</time></trkpt><trkpt lat="39.34728557" lon="-0.31815819"><ele>5.0</ele><time>2022-10-31T12:30:30.0000000+00:00</time></trkpt><trkpt lat="39.34728557" lon="-0.31815819"><ele>5.0</ele><time>2022-10-31T12:30:31.0000000+00:00</time></trkpt><trkpt lat="39.34728557" lon="-0.31815819"><ele>5.0</ele><time>2022-10-31T12:30:32.0000000+00:00</time></trkpt><trkpt lat="39.34728557" lon="-0.31815819"><ele>5.0</ele><time>2022-10-31T12:30:33.0000000+00:00</time></trkpt><trkpt lat="39.34728557" lon="-0.31815819"><ele>5.0</ele><time>2022-10-31T12:30:34.0000000+00:00</time></trkpt><trkpt lat="39.34728557" lon="-0.31815819"><ele>5.0</ele><time>2022-10-31T12:30:35.0000000+00:00</time></trkpt><trkpt lat="39.34728557" lon="-0.31815819"><ele>5.0</ele><time>2022-10-31T12:30:36.0000000+00:00</time></trkpt><trkpt lat="39.34728557" lon="-0.31815819"><ele>5.0</ele><time>2022-10-31T12:30:37.0000000+00:00</time></trkpt><trkpt lat="39.34728557" lon="-0.31815819"><ele>5.0</ele><time>2022-10-31T12:30:38.0000000+00:00</time></trkpt><trkpt lat="39.3472844" lon="-0.31815919"><ele>5.0</ele><time>2022-10-31T12:30:39.0000000+00:00</time></trkpt><trkpt lat="39.34728239" lon="-0.31816104"><ele>5.0</ele><time>2022-10-31T12:30:40.0000000+00:00</time></trkpt><trkpt lat="39.34728239" lon="-0.31816104"><ele>5.0</ele><time>2022-10-31T12:30:41.0000000+00:00</time></trkpt><trkpt lat="39.34728239" lon="-0.31816104"><ele>5.0</ele><time>2022-10-31T12:30:42.0000000+00:00</time></trkpt><trkpt lat="39.34728239" lon="-0.31816104"><ele>5.2</ele><time>2022-10-31T12:30:43.0000000+00:00</time></trkpt><trkpt lat="39.3472792" lon="-0.31816162"><ele>5.2</ele><time>2022-10-31T12:30:44.0000000+00:00</time></trkpt><trkpt lat="39.34727208" lon="-0.31816472"><ele>5.2</ele><time>2022-10-31T12:30:45.0000000+00:00</time></trkpt><trkpt lat="39.34726319" lon="-0.31816321"><ele>5.2</ele><time>2022-10-31T12:30:46.0000000+00:00</time></trkpt><trkpt lat="39.34725448" lon="-0.31816497"><ele>5.0</ele><time>2022-10-31T12:30:47.0000000+00:00</time></trkpt><trkpt lat="39.347244" lon="-0.31817386"><ele>5.0</ele><time>2022-10-31T12:30:48.0000000+00:00</time></trkpt><trkpt lat="39.3472321" lon="-0.31817688"><ele>5.0</ele><time>2022-10-31T12:30:49.0000000+00:00</time></trkpt><trkpt lat="39.34721625" lon="-0.31817755"><ele>5.0</ele><time>2022-10-31T12:30:50.0000000+00:00</time></trkpt><trkpt lat="39.34720393" lon="-0.31817788"><ele>4.8</ele><time>2022-10-31T12:30:51.0000000+00:00</time></trkpt><trkpt lat="39.34718818" lon="-0.31817109"><ele>4.8</ele><time>2022-10-31T12:30:52.0000000+00:00</time></trkpt><trkpt lat="39.34717367" lon="-0.31815819"><ele>4.8</ele><time>2022-10-31T12:30:53.0000000+00:00</time></trkpt><trkpt lat="39.34715993" lon="-0.31814251"><ele>4.8</ele><time>2022-10-31T12:30:54.0000000+00:00</time></trkpt><trkpt lat="39.34714534" lon="-0.31811938"><ele>4.8</ele><time>2022-10-31T12:30:55.0000000+00:00</time></trkpt><trkpt lat="39.34713" lon="-0.3180923"><ele>5.0</ele><time>2022-10-31T12:30:56.0000000+00:00</time></trkpt><trkpt lat="39.3471145" lon="-0.31807252"><ele>5.0</ele><time>2022-10-31T12:30:57.0000000+00:00</time></trkpt><trkpt lat="39.34709296" lon="-0.31804855"><ele>5.0</ele><time>2022-10-31T12:30:58.0000000+00:00</time></trkpt><trkpt lat="39.347072" lon="-0.31802969"><ele>5.0</ele><time>2022-10-31T12:30:59.0000000+00:00</time></trkpt><trkpt lat="39.34704711" lon="-0.31800622"><ele>5.2</ele><time>2022-10-31T12:31:00.0000000+00:00</time></trkpt><trkpt lat="39.34702054" lon="-0.31797831"><ele>5.2</ele><time>2022-10-31T12:31:01.0000000+00:00</time></trkpt><trkpt lat="39.34699631" lon="-0.31794839"><ele>5.2</ele><time>2022-10-31T12:31:02.0000000+00:00</time></trkpt><trkpt lat="39.34697075" lon="-0.31791905"><ele>5.0</ele><time>2022-10-31T12:31:03.0000000+00:00</time></trkpt><trkpt lat="39.34694418" lon="-0.31789022"><ele>5.0</ele><time>2022-10-31T12:31:04.0000000+00:00</time></trkpt><trkpt lat="39.34691442" lon="-0.31785945"><ele>5.0</ele><time>2022-10-31T12:31:05.0000000+00:00</time></trkpt><trkpt lat="39.34688928" lon="-0.3178297"><ele>5.0</ele><time>2022-10-31T12:31:06.0000000+00:00</time></trkpt><trkpt lat="39.34686279" lon="-0.31780413"><ele>5.0</ele><time>2022-10-31T12:31:07.0000000+00:00</time></trkpt><trkpt lat="39.34683463" lon="-0.31777673"><ele>5.0</ele><time>2022-10-31T12:31:08.0000000+00:00</time></trkpt><trkpt lat="39.34680143" lon="-0.31774613"><ele>5.0</ele><time>2022-10-31T12:31:09.0000000+00:00</time></trkpt><trkpt lat="39.34676833" lon="-0.31771294"><ele>5.0</ele><time>2022-10-31T12:31:10.0000000+00:00</time></trkpt><trkpt lat="39.34673932" lon="-0.31767891"><ele>5.0</ele><time>2022-10-31T12:31:11.0000000+00:00</time></trkpt><trkpt lat="39.34671502" lon="-0.31765033"><ele>5.0</ele><time>2022-10-31T12:31:12.0000000+00:00</time></trkpt><trkpt lat="39.34667755" lon="-0.31760884"><ele>5.2</ele><time>2022-10-31T12:31:13.0000000+00:00</time></trkpt><trkpt lat="39.34664427" lon="-0.31757212"><ele>5.2</ele><time>2022-10-31T12:31:14.0000000+00:00</time></trkpt><trkpt lat="39.34661368" lon="-0.31753742"><ele>5.2</ele><time>2022-10-31T12:31:15.0000000+00:00</time></trkpt><trkpt lat="39.34658367" lon="-0.31750239"><ele>5.2</ele><time>2022-10-31T12:31:16.0000000+00:00</time></trkpt><trkpt lat="39.34655819" lon="-0.31747146"><ele>5.2</ele><time>2022-10-31T12:31:17.0000000+00:00</time></trkpt><trkpt lat="39.34651989" lon="-0.31742276"><ele>5.2</ele><time>2022-10-31T12:31:18.0000000+00:00</time></trkpt><trkpt lat="39.34648586" lon="-0.31738521"><ele>5.2</ele><time>2022-10-31T12:31:19.0000000+00:00</time></trkpt><trkpt lat="39.34645065" lon="-0.31734774"><ele>5.2</ele><time>2022-10-31T12:31:20.0000000+00:00</time></trkpt><trkpt lat="39.34641528" lon="-0.31731287"><ele>5.4</ele><time>2022-10-31T12:31:21.0000000+00:00</time></trkpt><trkpt lat="39.34637664" lon="-0.31727616"><ele>5.4</ele><time>2022-10-31T12:31:22.0000000+00:00</time></trkpt><trkpt lat="39.34633867" lon="-0.31724028"><ele>5.4</ele><time>2022-10-31T12:31:23.0000000+00:00</time></trkpt><trkpt lat="39.34630045" lon="-0.31720508"><ele>5.4</ele><time>2022-10-31T12:31:24.0000000+00:00</time></trkpt><trkpt lat="39.34626298" lon="-0.31716451"><ele>5.4</ele><time>2022-10-31T12:31:25.0000000+00:00</time></trkpt><trkpt lat="39.34623063" lon="-0.31712771"><ele>5.4</ele><time>2022-10-31T12:31:26.0000000+00:00</time></trkpt><trkpt lat="39.34619534" lon="-0.31708782"><ele>5.4</ele><time>2022-10-31T12:31:27.0000000+00:00</time></trkpt><trkpt lat="39.34616064" lon="-0.3170527"><ele>5.4</ele><time>2022-10-31T12:31:28.0000000+00:00</time></trkpt><trkpt lat="39.34612082" lon="-0.31701565"><ele>5.4</ele><time>2022-10-31T12:31:29.0000000+00:00</time></trkpt><trkpt lat="39.3460826" lon="-0.31697474"><ele>5.6</ele><time>2022-10-31T12:31:30.0000000+00:00</time></trkpt><trkpt lat="39.34604522" lon="-0.31693543"><ele>5.6</ele><time>2022-10-31T12:31:31.0000000+00:00</time></trkpt><trkpt lat="39.34601027" lon="-0.31689545"><ele>5.6</ele><time>2022-10-31T12:31:32.0000000+00:00</time></trkpt><trkpt lat="39.34597481" lon="-0.31685564"><ele>5.6</ele><time>2022-10-31T12:31:33.0000000+00:00</time></trkpt><trkpt lat="39.3459376" lon="-0.31681524"><ele>5.6</ele><time>2022-10-31T12:31:34.0000000+00:00</time></trkpt><trkpt lat="39.34590231" lon="-0.31677282"><ele>5.6</ele><time>2022-10-31T12:31:35.0000000+00:00</time></trkpt><trkpt lat="39.34586467" lon="-0.31672941"><ele>5.6</ele><time>2022-10-31T12:31:36.0000000+00:00</time></trkpt><trkpt lat="39.34582888" lon="-0.31668574"><ele>5.6</ele><time>2022-10-31T12:31:37.0000000+00:00</time></trkpt><trkpt lat="39.3457982" lon="-0.31664215"><ele>5.6</ele><time>2022-10-31T12:31:38.0000000+00:00</time></trkpt><trkpt lat="39.34576577" lon="-0.31660108"><ele>5.6</ele><time>2022-10-31T12:31:39.0000000+00:00</time></trkpt><trkpt lat="39.34573291" lon="-0.3165616"><ele>5.6</ele><time>2022-10-31T12:31:40.0000000+00:00</time></trkpt><trkpt lat="39.34569854" lon="-0.31652464"><ele>5.6</ele><time>2022-10-31T12:31:41.0000000+00:00</time></trkpt><trkpt lat="39.34566703" lon="-0.31648918"><ele>5.6</ele><time>2022-10-31T12:31:42.0000000+00:00</time></trkpt><trkpt lat="39.34563409" lon="-0.31645599"><ele>5.6</ele><time>2022-10-31T12:31:43.0000000+00:00</time></trkpt><trkpt lat="39.34560819" lon="-0.31642447"><ele>5.6</ele><time>2022-10-31T12:31:44.0000000+00:00</time></trkpt><trkpt lat="39.34558597" lon="-0.31639346"><ele>5.4</ele><time>2022-10-31T12:31:45.0000000+00:00</time></trkpt><trkpt lat="39.34556896" lon="-0.31636756"><ele>5.4</ele><time>2022-10-31T12:31:46.0000000+00:00</time></trkpt><trkpt lat="39.34555505" lon="-0.31635423"><ele>5.4</ele><time>2022-10-31T12:31:47.0000000+00:00</time></trkpt><trkpt lat="39.34554289" lon="-0.31634711"><ele>5.4</ele><time>2022-10-31T12:31:48.0000000+00:00</time></trkpt><trkpt lat="39.34552646" lon="-0.3163451"><ele>5.2</ele><time>2022-10-31T12:31:49.0000000+00:00</time></trkpt><trkpt lat="39.34551272" lon="-0.3163451"><ele>5.2</ele><time>2022-10-31T12:31:50.0000000+00:00</time></trkpt><trkpt lat="39.34550274" lon="-0.31634417"><ele>5.2</ele><time>2022-10-31T12:31:51.0000000+00:00</time></trkpt><trkpt lat="39.34549562" lon="-0.31633889"><ele>5.0</ele><time>2022-10-31T12:31:52.0000000+00:00</time></trkpt><trkpt lat="39.34548757" lon="-0.31633093"><ele>5.0</ele><time>2022-10-31T12:31:53.0000000+00:00</time></trkpt><trkpt lat="39.34547869" lon="-0.31632305"><ele>5.0</ele><time>2022-10-31T12:31:54.0000000+00:00</time></trkpt><trkpt lat="39.34547382" lon="-0.31631123"><ele>5.0</ele><time>2022-10-31T12:31:55.0000000+00:00</time></trkpt><trkpt lat="39.34547131" lon="-0.31629841"><ele>5.0</ele><time>2022-10-31T12:31:56.0000000+00:00</time></trkpt><trkpt lat="39.34547265" lon="-0.3162793"><ele>5.0</ele><time>2022-10-31T12:31:57.0000000+00:00</time></trkpt><trkpt lat="39.34547936" lon="-0.31626597"><ele>5.0</ele><time>2022-10-31T12:31:58.0000000+00:00</time></trkpt><trkpt lat="39.34549084" lon="-0.31625222"><ele>5.0</ele><time>2022-10-31T12:31:59.0000000+00:00</time></trkpt><trkpt lat="39.34550048" lon="-0.3162425"><ele>5.0</ele><time>2022-10-31T12:32:00.0000000+00:00</time></trkpt><trkpt lat="39.34551154" lon="-0.31623622"><ele>5.2</ele><time>2022-10-31T12:32:01.0000000+00:00</time></trkpt><trkpt lat="39.34552395" lon="-0.31622465"><ele>5.2</ele><time>2022-10-31T12:32:02.0000000+00:00</time></trkpt><trkpt lat="39.34552889" lon="-0.31621702"><ele>5.4</ele><time>2022-10-31T12:32:03.0000000+00:00</time></trkpt><trkpt lat="39.34552889" lon="-0.31621702"><ele>5.4</ele><time>2022-10-31T12:32:04.0000000+00:00</time></trkpt><trkpt lat="39.34552889" lon="-0.31621702"><ele>5.4</ele><time>2022-10-31T12:32:05.0000000+00:00</time></trkpt><trkpt lat="39.34552889" lon="-0.31621702"><ele>4.8</ele><time>2022-10-31T12:32:06.0000000+00:00</time></trkpt><trkpt lat="39.34553199" lon="-0.31621669"><ele>4.8</ele><time>2022-10-31T12:32:07.0000000+00:00</time></trkpt><trkpt lat="39.34552923" lon="-0.31621836"><ele>4.8</ele><time>2022-10-31T12:32:08.0000000+00:00</time></trkpt><trkpt lat="39.34552923" lon="-0.31621836"><ele>4.8</ele><time>2022-10-31T12:32:09.0000000+00:00</time></trkpt><trkpt lat="39.34552923" lon="-0.31621836"><ele>4.8</ele><time>2022-10-31T12:32:10.0000000+00:00</time></trkpt><trkpt lat="39.34552923" lon="-0.31621836"><ele>4.8</ele><time>2022-10-31T12:32:11.0000000+00:00</time></trkpt><trkpt lat="39.34552923" lon="-0.31621836"><ele>4.8</ele><time>2022-10-31T12:32:12.0000000+00:00</time></trkpt><trkpt lat="39.34552923" lon="-0.31621836"><ele>4.8</ele><time>2022-10-31T12:32:13.0000000+00:00</time></trkpt><trkpt lat="39.34552923" lon="-0.31621836"><ele>4.8</ele><time>2022-10-31T12:32:14.0000000+00:00</time></trkpt><trkpt lat="39.34552923" lon="-0.31621836"><ele>4.8</ele><time>2022-10-31T12:32:15.0000000+00:00</time></trkpt><trkpt lat="39.34552923" lon="-0.31621836"><ele>4.8</ele><time>2022-10-31T12:32:16.0000000+00:00</time></trkpt><trkpt lat="39.34552923" lon="-0.31621836"><ele>4.8</ele><time>2022-10-31T12:32:17.0000000+00:00</time></trkpt><trkpt lat="39.34552923" lon="-0.31621836"><ele>4.8</ele><time>2022-10-31T12:32:18.0000000+00:00</time></trkpt><trkpt lat="39.34552923" lon="-0.31621836"><ele>4.8</ele><time>2022-10-31T12:32:19.0000000+00:00</time></trkpt><trkpt lat="39.34552923" lon="-0.31621836"><ele>4.8</ele><time>2022-10-31T12:32:20.0000000+00:00</time></trkpt><trkpt lat="39.34552923" lon="-0.31621836"><ele>4.8</ele><time>2022-10-31T12:32:21.0000000+00:00</time></trkpt><trkpt lat="39.34552923" lon="-0.31621836"><ele>4.8</ele><time>2022-10-31T12:32:22.0000000+00:00</time></trkpt><trkpt lat="39.34552923" lon="-0.31621836"><ele>4.8</ele><time>2022-10-31T12:32:23.0000000+00:00</time></trkpt><trkpt lat="39.34552688" lon="-0.31622104"><ele>4.8</ele><time>2022-10-31T12:32:24.0000000+00:00</time></trkpt><trkpt lat="39.34552604" lon="-0.31622406"><ele>4.8</ele><time>2022-10-31T12:32:25.0000000+00:00</time></trkpt><trkpt lat="39.34552604" lon="-0.31622406"><ele>4.8</ele><time>2022-10-31T12:32:26.0000000+00:00</time></trkpt><trkpt lat="39.34552604" lon="-0.31622406"><ele>4.8</ele><time>2022-10-31T12:32:27.0000000+00:00</time></trkpt><trkpt lat="39.34552604" lon="-0.31622406"><ele>4.8</ele><time>2022-10-31T12:32:28.0000000+00:00</time></trkpt><trkpt lat="39.34552604" lon="-0.31622406"><ele>4.8</ele><time>2022-10-31T12:32:29.0000000+00:00</time></trkpt><trkpt lat="39.34552604" lon="-0.31622406"><ele>4.8</ele><time>2022-10-31T12:32:30.0000000+00:00</time></trkpt><trkpt lat="39.34552604" lon="-0.31622406"><ele>4.8</ele><time>2022-10-31T12:32:31.0000000+00:00</time></trkpt><trkpt lat="39.34552604" lon="-0.31622406"><ele>4.8</ele><time>2022-10-31T12:32:32.0000000+00:00</time></trkpt><trkpt lat="39.34552604" lon="-0.31622406"><ele>4.8</ele><time>2022-10-31T12:32:33.0000000+00:00</time></trkpt><trkpt lat="39.34552604" lon="-0.31622406"><ele>4.8</ele><time>2022-10-31T12:32:34.0000000+00:00</time></trkpt><trkpt lat="39.34552604" lon="-0.31622406"><ele>4.8</ele><time>2022-10-31T12:32:35.0000000+00:00</time></trkpt><trkpt lat="39.34552604" lon="-0.31622406"><ele>4.8</ele><time>2022-10-31T12:32:36.0000000+00:00</time></trkpt><trkpt lat="39.34552604" lon="-0.31622406"><ele>4.8</ele><time>2022-10-31T12:32:37.0000000+00:00</time></trkpt><trkpt lat="39.34552604" lon="-0.31622406"><ele>4.8</ele><time>2022-10-31T12:32:38.0000000+00:00</time></trkpt><trkpt lat="39.34552604" lon="-0.31622406"><ele>4.8</ele><time>2022-10-31T12:32:39.0000000+00:00</time></trkpt><trkpt lat="39.34552604" lon="-0.31622406"><ele>4.8</ele><time>2022-10-31T12:32:40.0000000+00:00</time></trkpt><trkpt lat="39.34552604" lon="-0.31622406"><ele>4.8</ele><time>2022-10-31T12:32:41.0000000+00:00</time></trkpt><trkpt lat="39.34552604" lon="-0.31622406"><ele>4.8</ele><time>2022-10-31T12:32:42.0000000+00:00</time></trkpt><trkpt lat="39.34552604" lon="-0.31622406"><ele>4.8</ele><time>2022-10-31T12:32:43.0000000+00:00</time></trkpt><trkpt lat="39.34552604" lon="-0.31622406"><ele>4.8</ele><time>2022-10-31T12:32:44.0000000+00:00</time></trkpt><trkpt lat="39.34552604" lon="-0.31622406"><ele>4.8</ele><time>2022-10-31T12:32:45.0000000+00:00</time></trkpt><trkpt lat="39.34552604" lon="-0.31622406"><ele>4.8</ele><time>2022-10-31T12:32:46.0000000+00:00</time></trkpt><trkpt lat="39.34552604" lon="-0.31622406"><ele>4.8</ele><time>2022-10-31T12:32:47.0000000+00:00</time></trkpt><trkpt lat="39.34552604" lon="-0.31622406"><ele>4.8</ele><time>2022-10-31T12:32:48.0000000+00:00</time></trkpt><trkpt lat="39.34552604" lon="-0.31622406"><ele>4.8</ele><time>2022-10-31T12:32:49.0000000+00:00</time></trkpt><trkpt lat="39.34552604" lon="-0.31622406"><ele>4.8</ele><time>2022-10-31T12:32:50.0000000+00:00</time></trkpt><trkpt lat="39.34552604" lon="-0.31622406"><ele>4.8</ele><time>2022-10-31T12:32:51.0000000+00:00</time></trkpt><trkpt lat="39.34552604" lon="-0.31622406"><ele>4.8</ele><time>2022-10-31T12:32:52.0000000+00:00</time></trkpt><trkpt lat="39.34552604" lon="-0.31622406"><ele>4.8</ele><time>2022-10-31T12:32:53.0000000+00:00</time></trkpt><trkpt lat="39.34552604" lon="-0.31622406"><ele>4.8</ele><time>2022-10-31T12:32:54.0000000+00:00</time></trkpt><trkpt lat="39.34552604" lon="-0.31622406"><ele>4.8</ele><time>2022-10-31T12:32:55.0000000+00:00</time></trkpt><trkpt lat="39.34552604" lon="-0.31622406"><ele>4.8</ele><time>2022-10-31T12:32:56.0000000+00:00</time></trkpt><trkpt lat="39.34552604" lon="-0.31622406"><ele>4.8</ele><time>2022-10-31T12:32:57.0000000+00:00</time></trkpt><trkpt lat="39.34552604" lon="-0.31622406"><ele>4.8</ele><time>2022-10-31T12:32:58.0000000+00:00</time></trkpt><trkpt lat="39.34552604" lon="-0.31622406"><ele>4.8</ele><time>2022-10-31T12:32:59.0000000+00:00</time></trkpt><trkpt lat="39.34552604" lon="-0.31622406"><ele>4.8</ele><time>2022-10-31T12:33:00.0000000+00:00</time></trkpt><trkpt lat="39.34552604" lon="-0.31622406"><ele>4.8</ele><time>2022-10-31T12:33:01.0000000+00:00</time></trkpt><trkpt lat="39.34552604" lon="-0.31622406"><ele>4.8</ele><time>2022-10-31T12:33:02.0000000+00:00</time></trkpt><trkpt lat="39.34552604" lon="-0.31622406"><ele>4.8</ele><time>2022-10-31T12:33:03.0000000+00:00</time></trkpt><trkpt lat="39.34552604" lon="-0.31622406"><ele>4.8</ele><time>2022-10-31T12:33:04.0000000+00:00</time></trkpt><trkpt lat="39.34552604" lon="-0.31622406"><ele>4.8</ele><time>2022-10-31T12:33:05.0000000+00:00</time></trkpt><trkpt lat="39.34552604" lon="-0.31622406"><ele>4.8</ele><time>2022-10-31T12:33:06.0000000+00:00</time></trkpt><trkpt lat="39.34552604" lon="-0.31622406"><ele>4.8</ele><time>2022-10-31T12:33:07.0000000+00:00</time></trkpt><trkpt lat="39.34552604" lon="-0.31622406"><ele>4.8</ele><time>2022-10-31T12:33:08.0000000+00:00</time></trkpt><trkpt lat="39.34552604" lon="-0.31622406"><ele>4.8</ele><time>2022-10-31T12:33:09.0000000+00:00</time></trkpt><trkpt lat="39.34552604" lon="-0.31622406"><ele>4.8</ele><time>2022-10-31T12:33:10.0000000+00:00</time></trkpt><trkpt lat="39.34552604" lon="-0.31622406"><ele>4.8</ele><time>2022-10-31T12:33:11.0000000+00:00</time></trkpt><trkpt lat="39.34552604" lon="-0.31622406"><ele>4.8</ele><time>2022-10-31T12:33:12.0000000+00:00</time></trkpt><trkpt lat="39.34552604" lon="-0.31622406"><ele>4.8</ele><time>2022-10-31T12:33:13.0000000+00:00</time></trkpt><trkpt lat="39.34552604" lon="-0.31622406"><ele>4.8</ele><time>2022-10-31T12:33:14.0000000+00:00</time></trkpt><trkpt lat="39.34552604" lon="-0.31622406"><ele>4.8</ele><time>2022-10-31T12:33:15.0000000+00:00</time></trkpt><trkpt lat="39.34552604" lon="-0.31622406"><ele>4.8</ele><time>2022-10-31T12:33:16.0000000+00:00</time></trkpt><trkpt lat="39.34552604" lon="-0.31622406"><ele>4.8</ele><time>2022-10-31T12:33:17.0000000+00:00</time></trkpt><trkpt lat="39.34552604" lon="-0.31622406"><ele>4.8</ele><time>2022-10-31T12:33:18.0000000+00:00</time></trkpt><trkpt lat="39.34552604" lon="-0.31622406"><ele>4.8</ele><time>2022-10-31T12:33:19.0000000+00:00</time></trkpt><trkpt lat="39.34552604" lon="-0.31622406"><ele>4.8</ele><time>2022-10-31T12:33:20.0000000+00:00</time></trkpt><trkpt lat="39.34552604" lon="-0.31622406"><ele>4.8</ele><time>2022-10-31T12:33:21.0000000+00:00</time></trkpt><trkpt lat="39.34552604" lon="-0.31622406"><ele>4.8</ele><time>2022-10-31T12:33:22.0000000+00:00</time></trkpt><trkpt lat="39.34552604" lon="-0.31622406"><ele>4.8</ele><time>2022-10-31T12:33:23.0000000+00:00</time></trkpt><trkpt lat="39.34552604" lon="-0.31622406"><ele>4.8</ele><time>2022-10-31T12:33:24.0000000+00:00</time></trkpt><trkpt lat="39.34552604" lon="-0.31622406"><ele>4.8</ele><time>2022-10-31T12:33:25.0000000+00:00</time></trkpt><trkpt lat="39.34552604" lon="-0.31622406"><ele>4.8</ele><time>2022-10-31T12:33:26.0000000+00:00</time></trkpt><trkpt lat="39.34552604" lon="-0.31622406"><ele>4.8</ele><time>2022-10-31T12:33:27.0000000+00:00</time></trkpt><trkpt lat="39.34552604" lon="-0.31622406"><ele>4.8</ele><time>2022-10-31T12:33:28.0000000+00:00</time></trkpt><trkpt lat="39.34552604" lon="-0.31622406"><ele>4.8</ele><time>2022-10-31T12:33:29.0000000+00:00</time></trkpt><trkpt lat="39.34552604" lon="-0.31622406"><ele>4.8</ele><time>2022-10-31T12:33:30.0000000+00:00</time></trkpt><trkpt lat="39.34552604" lon="-0.31622406"><ele>4.8</ele><time>2022-10-31T12:33:31.0000000+00:00</time></trkpt><trkpt lat="39.34552604" lon="-0.31622406"><ele>4.8</ele><time>2022-10-31T12:33:32.0000000+00:00</time></trkpt><trkpt lat="39.34552604" lon="-0.31622406"><ele>4.8</ele><time>2022-10-31T12:33:33.0000000+00:00</time></trkpt><trkpt lat="39.34552604" lon="-0.31622406"><ele>4.8</ele><time>2022-10-31T12:33:34.0000000+00:00</time></trkpt><trkpt lat="39.34552738" lon="-0.31622213"><ele>4.8</ele><time>2022-10-31T12:33:35.0000000+00:00</time></trkpt><trkpt lat="39.34553401" lon="-0.31621845"><ele>4.8</ele><time>2022-10-31T12:33:36.0000000+00:00</time></trkpt><trkpt lat="39.34554323" lon="-0.31621249"><ele>4.8</ele><time>2022-10-31T12:33:37.0000000+00:00</time></trkpt><trkpt lat="39.34555421" lon="-0.31620688"><ele>4.8</ele><time>2022-10-31T12:33:38.0000000+00:00</time></trkpt><trkpt lat="39.34556636" lon="-0.31620302"><ele>4.8</ele><time>2022-10-31T12:33:39.0000000+00:00</time></trkpt><trkpt lat="39.34557843" lon="-0.31620227"><ele>4.8</ele><time>2022-10-31T12:33:40.0000000+00:00</time></trkpt><trkpt lat="39.34558908" lon="-0.31619933"><ele>5.2</ele><time>2022-10-31T12:33:41.0000000+00:00</time></trkpt><trkpt lat="39.34560022" lon="-0.31619984"><ele>5.4</ele><time>2022-10-31T12:33:42.0000000+00:00</time></trkpt><trkpt lat="39.3456107" lon="-0.31620143"><ele>5.6</ele><time>2022-10-31T12:33:43.0000000+00:00</time></trkpt><trkpt lat="39.34562269" lon="-0.31620394"><ele>5.8</ele><time>2022-10-31T12:33:44.0000000+00:00</time></trkpt><trkpt lat="39.34563375" lon="-0.31620185"><ele>5.8</ele><time>2022-10-31T12:33:45.0000000+00:00</time></trkpt><trkpt lat="39.3456423" lon="-0.31619271"><ele>6.0</ele><time>2022-10-31T12:33:46.0000000+00:00</time></trkpt><trkpt lat="39.34565353" lon="-0.31617939"><ele>6.0</ele><time>2022-10-31T12:33:47.0000000+00:00</time></trkpt><trkpt lat="39.34566468" lon="-0.31616698"><ele>6.0</ele><time>2022-10-31T12:33:48.0000000+00:00</time></trkpt><trkpt lat="39.34567206" lon="-0.31615064"><ele>6.0</ele><time>2022-10-31T12:33:49.0000000+00:00</time></trkpt><trkpt lat="39.34567273" lon="-0.31613144"><ele>5.8</ele><time>2022-10-31T12:33:50.0000000+00:00</time></trkpt><trkpt lat="39.34567616" lon="-0.31611024"><ele>5.8</ele><time>2022-10-31T12:33:51.0000000+00:00</time></trkpt><trkpt lat="39.34568672" lon="-0.31608861"><ele>5.8</ele><time>2022-10-31T12:33:52.0000000+00:00</time></trkpt><trkpt lat="39.34569947" lon="-0.31606296"><ele>5.8</ele><time>2022-10-31T12:33:53.0000000+00:00</time></trkpt><trkpt lat="39.34571112" lon="-0.31603077"><ele>6.0</ele><time>2022-10-31T12:33:54.0000000+00:00</time></trkpt><trkpt lat="39.3457226" lon="-0.31599473"><ele>6.0</ele><time>2022-10-31T12:33:55.0000000+00:00</time></trkpt><trkpt lat="39.34574196" lon="-0.31596338"><ele>6.0</ele><time>2022-10-31T12:33:56.0000000+00:00</time></trkpt><trkpt lat="39.34576635" lon="-0.31593212"><ele>6.2</ele><time>2022-10-31T12:33:57.0000000+00:00</time></trkpt><trkpt lat="39.34578982" lon="-0.31590027"><ele>6.2</ele><time>2022-10-31T12:33:58.0000000+00:00</time></trkpt><trkpt lat="39.34581245" lon="-0.31586322"><ele>6.2</ele><time>2022-10-31T12:33:59.0000000+00:00</time></trkpt><trkpt lat="39.34583047" lon="-0.31581712"><ele>6.4</ele><time>2022-10-31T12:34:00.0000000+00:00</time></trkpt><trkpt lat="39.34584506" lon="-0.31576867"><ele>6.4</ele><time>2022-10-31T12:34:01.0000000+00:00</time></trkpt><trkpt lat="39.34585352" lon="-0.31572039"><ele>6.4</ele><time>2022-10-31T12:34:02.0000000+00:00</time></trkpt><trkpt lat="39.34585202" lon="-0.3156701"><ele>6.4</ele><time>2022-10-31T12:34:03.0000000+00:00</time></trkpt><trkpt lat="39.34583559" lon="-0.3156261"><ele>6.4</ele><time>2022-10-31T12:34:04.0000000+00:00</time></trkpt><trkpt lat="39.34580918" lon="-0.31558905"><ele>6.4</ele><time>2022-10-31T12:34:05.0000000+00:00</time></trkpt><trkpt lat="39.34578161" lon="-0.31555116"><ele>6.4</ele><time>2022-10-31T12:34:06.0000000+00:00</time></trkpt><trkpt lat="39.34575328" lon="-0.31551956"><ele>6.4</ele><time>2022-10-31T12:34:07.0000000+00:00</time></trkpt><trkpt lat="39.34572243" lon="-0.31548855"><ele>6.4</ele><time>2022-10-31T12:34:08.0000000+00:00</time></trkpt><trkpt lat="39.34569293" lon="-0.3154577"><ele>6.2</ele><time>2022-10-31T12:34:09.0000000+00:00</time></trkpt><trkpt lat="39.34565982" lon="-0.31542443"><ele>6.2</ele><time>2022-10-31T12:34:10.0000000+00:00</time></trkpt><trkpt lat="39.34562478" lon="-0.31538998"><ele>6.2</ele><time>2022-10-31T12:34:11.0000000+00:00</time></trkpt><trkpt lat="39.34559452" lon="-0.31535385"><ele>6.2</ele><time>2022-10-31T12:34:12.0000000+00:00</time></trkpt><trkpt lat="39.34556535" lon="-0.31531664"><ele>6.2</ele><time>2022-10-31T12:34:13.0000000+00:00</time></trkpt><trkpt lat="39.34553954" lon="-0.31528328"><ele>6.2</ele><time>2022-10-31T12:34:14.0000000+00:00</time></trkpt><trkpt lat="39.34551205" lon="-0.31525235"><ele>6.2</ele><time>2022-10-31T12:34:15.0000000+00:00</time></trkpt><trkpt lat="39.34548095" lon="-0.31522016"><ele>6.2</ele><time>2022-10-31T12:34:16.0000000+00:00</time></trkpt><trkpt lat="39.34544809" lon="-0.31518563"><ele>6.2</ele><time>2022-10-31T12:34:17.0000000+00:00</time></trkpt><trkpt lat="39.34540912" lon="-0.31514724"><ele>6.2</ele><time>2022-10-31T12:34:18.0000000+00:00</time></trkpt><trkpt lat="39.34537089" lon="-0.31510701"><ele>6.2</ele><time>2022-10-31T12:34:19.0000000+00:00</time></trkpt><trkpt lat="39.34533075" lon="-0.31506694"><ele>6.2</ele><time>2022-10-31T12:34:20.0000000+00:00</time></trkpt><trkpt lat="39.34528766" lon="-0.31502738"><ele>6.2</ele><time>2022-10-31T12:34:21.0000000+00:00</time></trkpt><trkpt lat="39.34524911" lon="-0.31498564"><ele>6.4</ele><time>2022-10-31T12:34:22.0000000+00:00</time></trkpt><trkpt lat="39.34521549" lon="-0.31494347"><ele>6.4</ele><time>2022-10-31T12:34:23.0000000+00:00</time></trkpt><trkpt lat="39.34518415" lon="-0.31490148"><ele>6.4</ele><time>2022-10-31T12:34:24.0000000+00:00</time></trkpt><trkpt lat="39.34514861" lon="-0.31485949"><ele>6.4</ele><time>2022-10-31T12:34:25.0000000+00:00</time></trkpt><trkpt lat="39.34511374" lon="-0.31481884"><ele>6.4</ele><time>2022-10-31T12:34:26.0000000+00:00</time></trkpt><trkpt lat="39.34507652" lon="-0.31477617"><ele>6.4</ele><time>2022-10-31T12:34:27.0000000+00:00</time></trkpt><trkpt lat="39.3450383" lon="-0.31473233"><ele>6.4</ele><time>2022-10-31T12:34:28.0000000+00:00</time></trkpt><trkpt lat="39.34500226" lon="-0.31468741"><ele>6.4</ele><time>2022-10-31T12:34:29.0000000+00:00</time></trkpt><trkpt lat="39.34496705" lon="-0.31464047"><ele>6.4</ele><time>2022-10-31T12:34:30.0000000+00:00</time></trkpt><trkpt lat="39.34493068" lon="-0.31459102"><ele>6.4</ele><time>2022-10-31T12:34:31.0000000+00:00</time></trkpt><trkpt lat="39.34489279" lon="-0.31454324"><ele>6.6</ele><time>2022-10-31T12:34:32.0000000+00:00</time></trkpt><trkpt lat="39.34485943" lon="-0.3144911"><ele>6.6</ele><time>2022-10-31T12:34:33.0000000+00:00</time></trkpt><trkpt lat="39.34483043" lon="-0.3144326"><ele>6.6</ele><time>2022-10-31T12:34:34.0000000+00:00</time></trkpt><trkpt lat="39.34480202" lon="-0.31437585"><ele>6.6</ele><time>2022-10-31T12:34:35.0000000+00:00</time></trkpt><trkpt lat="39.34477922" lon="-0.31431953"><ele>6.6</ele><time>2022-10-31T12:34:36.0000000+00:00</time></trkpt><trkpt lat="39.34476262" lon="-0.31426035"><ele>6.8</ele><time>2022-10-31T12:34:37.0000000+00:00</time></trkpt><trkpt lat="39.34474904" lon="-0.31419589"><ele>6.8</ele><time>2022-10-31T12:34:38.0000000+00:00</time></trkpt><trkpt lat="39.3447451" lon="-0.31413831"><ele>6.8</ele><time>2022-10-31T12:34:39.0000000+00:00</time></trkpt><trkpt lat="39.34474552" lon="-0.31406773"><ele>6.8</ele><time>2022-10-31T12:34:40.0000000+00:00</time></trkpt><trkpt lat="39.34474845" lon="-0.31398475"><ele>6.8</ele><time>2022-10-31T12:34:41.0000000+00:00</time></trkpt><trkpt lat="39.344757" lon="-0.31391317"><ele>6.8</ele><time>2022-10-31T12:34:42.0000000+00:00</time></trkpt><trkpt lat="39.34476731" lon="-0.31384343"><ele>6.8</ele><time>2022-10-31T12:34:43.0000000+00:00</time></trkpt><trkpt lat="39.34477922" lon="-0.31377579"><ele>6.8</ele><time>2022-10-31T12:34:44.0000000+00:00</time></trkpt><trkpt lat="39.34479187" lon="-0.31371175"><ele>6.8</ele><time>2022-10-31T12:34:45.0000000+00:00</time></trkpt><trkpt lat="39.34480947" lon="-0.31364671"><ele>6.8</ele><time>2022-10-31T12:34:46.0000000+00:00</time></trkpt><trkpt lat="39.34482724" lon="-0.31358234"><ele>6.8</ele><time>2022-10-31T12:34:47.0000000+00:00</time></trkpt><trkpt lat="39.34484652" lon="-0.31351377"><ele>6.8</ele><time>2022-10-31T12:34:48.0000000+00:00</time></trkpt><trkpt lat="39.34486354" lon="-0.31344747"><ele>6.8</ele><time>2022-10-31T12:34:49.0000000+00:00</time></trkpt><trkpt lat="39.34487854" lon="-0.3133826"><ele>6.8</ele><time>2022-10-31T12:34:50.0000000+00:00</time></trkpt><trkpt lat="39.34489329" lon="-0.31331588"><ele>6.8</ele><time>2022-10-31T12:34:51.0000000+00:00</time></trkpt><trkpt lat="39.34490897" lon="-0.31325033"><ele>6.8</ele><time>2022-10-31T12:34:52.0000000+00:00</time></trkpt><trkpt lat="39.34492875" lon="-0.31318126"><ele>6.8</ele><time>2022-10-31T12:34:53.0000000+00:00</time></trkpt><trkpt lat="39.34495063" lon="-0.31311253"><ele>7.0</ele><time>2022-10-31T12:34:54.0000000+00:00</time></trkpt><trkpt lat="39.34496513" lon="-0.31304757"><ele>7.0</ele><time>2022-10-31T12:34:55.0000000+00:00</time></trkpt><trkpt lat="39.34497946" lon="-0.31299032"><ele>7.0</ele><time>2022-10-31T12:34:56.0000000+00:00</time></trkpt><trkpt lat="39.34499497" lon="-0.31293048"><ele>7.0</ele><time>2022-10-31T12:34:57.0000000+00:00</time></trkpt><trkpt lat="39.34501701" lon="-0.31287122"><ele>7.0</ele><time>2022-10-31T12:34:58.0000000+00:00</time></trkpt><trkpt lat="39.34504107" lon="-0.31281246"><ele>7.0</ele><time>2022-10-31T12:34:59.0000000+00:00</time></trkpt><trkpt lat="39.3450699" lon="-0.31275353"><ele>7.0</ele><time>2022-10-31T12:35:00.0000000+00:00</time></trkpt><trkpt lat="39.34510184" lon="-0.31269805"><ele>7.2</ele><time>2022-10-31T12:35:01.0000000+00:00</time></trkpt><trkpt lat="39.34513453" lon="-0.31264692"><ele>7.2</ele><time>2022-10-31T12:35:02.0000000+00:00</time></trkpt><trkpt lat="39.34517258" lon="-0.3126004"><ele>7.2</ele><time>2022-10-31T12:35:03.0000000+00:00</time></trkpt><trkpt lat="39.34521047" lon="-0.31256033"><ele>7.2</ele><time>2022-10-31T12:35:04.0000000+00:00</time></trkpt><trkpt lat="39.34525237" lon="-0.31252588"><ele>7.2</ele><time>2022-10-31T12:35:05.0000000+00:00</time></trkpt><trkpt lat="39.34529579" lon="-0.31249948"><ele>7.2</ele><time>2022-10-31T12:35:06.0000000+00:00</time></trkpt><trkpt lat="39.34534424" lon="-0.31247894"><ele>7.2</ele><time>2022-10-31T12:35:07.0000000+00:00</time></trkpt><trkpt lat="39.34539143" lon="-0.31246629"><ele>7.2</ele><time>2022-10-31T12:35:08.0000000+00:00</time></trkpt><trkpt lat="39.34544122" lon="-0.31246008"><ele>7.2</ele><time>2022-10-31T12:35:09.0000000+00:00</time></trkpt><trkpt lat="39.34549151" lon="-0.31245723"><ele>7.0</ele><time>2022-10-31T12:35:10.0000000+00:00</time></trkpt><trkpt lat="39.34554381" lon="-0.31246117"><ele>7.0</ele><time>2022-10-31T12:35:11.0000000+00:00</time></trkpt><trkpt lat="39.34559779" lon="-0.31246821"><ele>7.0</ele><time>2022-10-31T12:35:12.0000000+00:00</time></trkpt><trkpt lat="39.34564976" lon="-0.31247727"><ele>7.0</ele><time>2022-10-31T12:35:13.0000000+00:00</time></trkpt><trkpt lat="39.34570156" lon="-0.31249269"><ele>7.0</ele><time>2022-10-31T12:35:14.0000000+00:00</time></trkpt><trkpt lat="39.34575336" lon="-0.31250887"><ele>7.0</ele><time>2022-10-31T12:35:15.0000000+00:00</time></trkpt><trkpt lat="39.34580382" lon="-0.31252136"><ele>7.0</ele><time>2022-10-31T12:35:16.0000000+00:00</time></trkpt><trkpt lat="39.34585336" lon="-0.31253058"><ele>7.0</ele><time>2022-10-31T12:35:17.0000000+00:00</time></trkpt><trkpt lat="39.34589946" lon="-0.31254047"><ele>7.0</ele><time>2022-10-31T12:35:18.0000000+00:00</time></trkpt><trkpt lat="39.34594095" lon="-0.31255388"><ele>7.0</ele><time>2022-10-31T12:35:19.0000000+00:00</time></trkpt><trkpt lat="39.34598303" lon="-0.31256612"><ele>7.0</ele><time>2022-10-31T12:35:20.0000000+00:00</time></trkpt><trkpt lat="39.34602569" lon="-0.31257886"><ele>7.0</ele><time>2022-10-31T12:35:21.0000000+00:00</time></trkpt><trkpt lat="39.34606718" lon="-0.31259101"><ele>7.2</ele><time>2022-10-31T12:35:22.0000000+00:00</time></trkpt><trkpt lat="39.34610431" lon="-0.31259989"><ele>7.2</ele><time>2022-10-31T12:35:23.0000000+00:00</time></trkpt><trkpt lat="39.34613968" lon="-0.3126071"><ele>7.2</ele><time>2022-10-31T12:35:24.0000000+00:00</time></trkpt><trkpt lat="39.34617246" lon="-0.31261439"><ele>7.2</ele><time>2022-10-31T12:35:25.0000000+00:00</time></trkpt><trkpt lat="39.34620414" lon="-0.31262403"><ele>7.2</ele><time>2022-10-31T12:35:26.0000000+00:00</time></trkpt><trkpt lat="39.34623381" lon="-0.31263367"><ele>7.2</ele><time>2022-10-31T12:35:27.0000000+00:00</time></trkpt><trkpt lat="39.34626415" lon="-0.3126418"><ele>7.2</ele><time>2022-10-31T12:35:28.0000000+00:00</time></trkpt><trkpt lat="39.34629416" lon="-0.312647"><ele>7.2</ele><time>2022-10-31T12:35:29.0000000+00:00</time></trkpt><trkpt lat="39.34632417" lon="-0.31264583"><ele>7.2</ele><time>2022-10-31T12:35:30.0000000+00:00</time></trkpt><trkpt lat="39.34635275" lon="-0.31264046"><ele>7.2</ele><time>2022-10-31T12:35:31.0000000+00:00</time></trkpt><trkpt lat="39.34637605" lon="-0.31263158"><ele>7.2</ele><time>2022-10-31T12:35:32.0000000+00:00</time></trkpt><trkpt lat="39.34639743" lon="-0.31262127"><ele>7.2</ele><time>2022-10-31T12:35:33.0000000+00:00</time></trkpt><trkpt lat="39.34641922" lon="-0.31260635"><ele>7.2</ele><time>2022-10-31T12:35:34.0000000+00:00</time></trkpt><trkpt lat="39.34644403" lon="-0.31258824"><ele>7.2</ele><time>2022-10-31T12:35:35.0000000+00:00</time></trkpt><trkpt lat="39.34646465" lon="-0.31256955"><ele>7.2</ele><time>2022-10-31T12:35:36.0000000+00:00</time></trkpt><trkpt lat="39.3464846" lon="-0.31254801"><ele>7.2</ele><time>2022-10-31T12:35:37.0000000+00:00</time></trkpt><trkpt lat="39.34649969" lon="-0.3125268"><ele>7.2</ele><time>2022-10-31T12:35:38.0000000+00:00</time></trkpt><trkpt lat="39.34651109" lon="-0.31250308"><ele>7.2</ele><time>2022-10-31T12:35:39.0000000+00:00</time></trkpt><trkpt lat="39.34652098" lon="-0.31247752"><ele>7.2</ele><time>2022-10-31T12:35:40.0000000+00:00</time></trkpt><trkpt lat="39.34652793" lon="-0.31245413"><ele>7.2</ele><time>2022-10-31T12:35:41.0000000+00:00</time></trkpt><trkpt lat="39.34653397" lon="-0.31243159"><ele>7.2</ele><time>2022-10-31T12:35:42.0000000+00:00</time></trkpt><trkpt lat="39.34654118" lon="-0.31240828"><ele>7.2</ele><time>2022-10-31T12:35:43.0000000+00:00</time></trkpt><trkpt lat="39.34654562" lon="-0.31238448"><ele>7.2</ele><time>2022-10-31T12:35:44.0000000+00:00</time></trkpt><trkpt lat="39.34654738" lon="-0.31236042"><ele>7.0</ele><time>2022-10-31T12:35:45.0000000+00:00</time></trkpt><trkpt lat="39.34654512" lon="-0.31233737"><ele>7.0</ele><time>2022-10-31T12:35:46.0000000+00:00</time></trkpt><trkpt lat="39.34653849" lon="-0.31231189"><ele>7.0</ele><time>2022-10-31T12:35:47.0000000+00:00</time></trkpt><trkpt lat="39.34652852" lon="-0.31228775"><ele>7.0</ele><time>2022-10-31T12:35:48.0000000+00:00</time></trkpt><trkpt lat="39.34651461" lon="-0.31226344"><ele>7.0</ele><time>2022-10-31T12:35:49.0000000+00:00</time></trkpt><trkpt lat="39.34649902" lon="-0.31223528"><ele>7.0</ele><time>2022-10-31T12:35:50.0000000+00:00</time></trkpt><trkpt lat="39.34648192" lon="-0.31220486"><ele>7.0</ele><time>2022-10-31T12:35:51.0000000+00:00</time></trkpt><trkpt lat="39.34646415" lon="-0.31217091"><ele>7.0</ele><time>2022-10-31T12:35:52.0000000+00:00</time></trkpt><trkpt lat="39.34644403" lon="-0.31213487"><ele>7.0</ele><time>2022-10-31T12:35:53.0000000+00:00</time></trkpt><trkpt lat="39.34643012" lon="-0.31208742"><ele>7.0</ele><time>2022-10-31T12:35:54.0000000+00:00</time></trkpt><trkpt lat="39.34641679" lon="-0.31203185"><ele>7.0</ele><time>2022-10-31T12:35:55.0000000+00:00</time></trkpt><trkpt lat="39.34640195" lon="-0.31198139"><ele>6.8</ele><time>2022-10-31T12:35:56.0000000+00:00</time></trkpt><trkpt lat="39.34638326" lon="-0.31193337"><ele>6.6</ele><time>2022-10-31T12:35:57.0000000+00:00</time></trkpt><trkpt lat="39.34636197" lon="-0.3118876"><ele>6.6</ele><time>2022-10-31T12:35:58.0000000+00:00</time></trkpt><trkpt lat="39.34634227" lon="-0.3118358"><ele>6.4</ele><time>2022-10-31T12:35:59.0000000+00:00</time></trkpt><trkpt lat="39.34632241" lon="-0.31178408"><ele>6.4</ele><time>2022-10-31T12:36:00.0000000+00:00</time></trkpt><trkpt lat="39.34630313" lon="-0.31173564"><ele>6.4</ele><time>2022-10-31T12:36:01.0000000+00:00</time></trkpt><trkpt lat="39.34628821" lon="-0.31168828"><ele>6.4</ele><time>2022-10-31T12:36:02.0000000+00:00</time></trkpt><trkpt lat="39.34627354" lon="-0.31164654"><ele>6.6</ele><time>2022-10-31T12:36:03.0000000+00:00</time></trkpt><trkpt lat="39.34625971" lon="-0.31160723"><ele>6.6</ele><time>2022-10-31T12:36:04.0000000+00:00</time></trkpt><trkpt lat="39.34624613" lon="-0.31157244"><ele>6.6</ele><time>2022-10-31T12:36:05.0000000+00:00</time></trkpt><trkpt lat="39.34623297" lon="-0.31154067"><ele>6.6</ele><time>2022-10-31T12:36:06.0000000+00:00</time></trkpt><trkpt lat="39.34622216" lon="-0.31151293"><ele>6.6</ele><time>2022-10-31T12:36:07.0000000+00:00</time></trkpt><trkpt lat="39.34621411" lon="-0.31148753"><ele>6.6</ele><time>2022-10-31T12:36:08.0000000+00:00</time></trkpt><trkpt lat="39.3462064" lon="-0.31145694"><ele>6.6</ele><time>2022-10-31T12:36:09.0000000+00:00</time></trkpt><trkpt lat="39.34619484" lon="-0.31142626"><ele>6.6</ele><time>2022-10-31T12:36:10.0000000+00:00</time></trkpt><trkpt lat="39.34618293" lon="-0.31139382"><ele>6.6</ele><time>2022-10-31T12:36:11.0000000+00:00</time></trkpt><trkpt lat="39.34616374" lon="-0.31136231"><ele>6.6</ele><time>2022-10-31T12:36:12.0000000+00:00</time></trkpt><trkpt lat="39.34613943" lon="-0.3113318"><ele>6.8</ele><time>2022-10-31T12:36:13.0000000+00:00</time></trkpt><trkpt lat="39.34611336" lon="-0.31130036"><ele>6.8</ele><time>2022-10-31T12:36:14.0000000+00:00</time></trkpt><trkpt lat="39.34608679" lon="-0.31126918"><ele>6.8</ele><time>2022-10-31T12:36:15.0000000+00:00</time></trkpt><trkpt lat="39.34605494" lon="-0.31124068"><ele>6.8</ele><time>2022-10-31T12:36:16.0000000+00:00</time></trkpt><trkpt lat="39.34601974" lon="-0.31121763"><ele>6.8</ele><time>2022-10-31T12:36:17.0000000+00:00</time></trkpt><trkpt lat="39.34598403" lon="-0.31119861"><ele>6.8</ele><time>2022-10-31T12:36:18.0000000+00:00</time></trkpt><trkpt lat="39.34594698" lon="-0.31117589"><ele>6.6</ele><time>2022-10-31T12:36:19.0000000+00:00</time></trkpt><trkpt lat="39.34590993" lon="-0.31115402"><ele>6.6</ele><time>2022-10-31T12:36:20.0000000+00:00</time></trkpt><trkpt lat="39.3458718" lon="-0.31113373"><ele>6.4</ele><time>2022-10-31T12:36:21.0000000+00:00</time></trkpt><trkpt lat="39.34583332" lon="-0.31111714"><ele>6.4</ele><time>2022-10-31T12:36:22.0000000+00:00</time></trkpt><trkpt lat="39.34579586" lon="-0.31110054"><ele>6.2</ele><time>2022-10-31T12:36:23.0000000+00:00</time></trkpt><trkpt lat="39.34576183" lon="-0.31108394"><ele>6.2</ele><time>2022-10-31T12:36:24.0000000+00:00</time></trkpt><trkpt lat="39.34572922" lon="-0.31106927"><ele>6.2</ele><time>2022-10-31T12:36:25.0000000+00:00</time></trkpt><trkpt lat="39.34570056" lon="-0.31105746"><ele>6.2</ele><time>2022-10-31T12:36:26.0000000+00:00</time></trkpt><trkpt lat="39.34567181" lon="-0.31104513"><ele>6.2</ele><time>2022-10-31T12:36:27.0000000+00:00</time></trkpt><trkpt lat="39.34563987" lon="-0.31103156"><ele>6.2</ele><time>2022-10-31T12:36:28.0000000+00:00</time></trkpt><trkpt lat="39.34560861" lon="-0.31101823"><ele>6.2</ele><time>2022-10-31T12:36:29.0000000+00:00</time></trkpt><trkpt lat="39.34557793" lon="-0.31100482"><ele>6.2</ele><time>2022-10-31T12:36:30.0000000+00:00</time></trkpt><trkpt lat="39.34555144" lon="-0.3109966"><ele>6.2</ele><time>2022-10-31T12:36:31.0000000+00:00</time></trkpt><trkpt lat="39.34552915" lon="-0.31099266"><ele>6.2</ele><time>2022-10-31T12:36:32.0000000+00:00</time></trkpt><trkpt lat="39.34551221" lon="-0.31099199"><ele>6.2</ele><time>2022-10-31T12:36:33.0000000+00:00</time></trkpt><trkpt lat="39.34549277" lon="-0.31099283"><ele>6.2</ele><time>2022-10-31T12:36:34.0000000+00:00</time></trkpt><trkpt lat="39.34547558" lon="-0.31099417"><ele>6.2</ele><time>2022-10-31T12:36:35.0000000+00:00</time></trkpt><trkpt lat="39.34545924" lon="-0.31099157"><ele>6.2</ele><time>2022-10-31T12:36:36.0000000+00:00</time></trkpt><trkpt lat="39.34544893" lon="-0.31098252"><ele>6.2</ele><time>2022-10-31T12:36:37.0000000+00:00</time></trkpt><trkpt lat="39.34544927" lon="-0.31096836"><ele>6.2</ele><time>2022-10-31T12:36:38.0000000+00:00</time></trkpt><trkpt lat="39.34545522" lon="-0.3109578"><ele>6.2</ele><time>2022-10-31T12:36:39.0000000+00:00</time></trkpt><trkpt lat="39.34546343" lon="-0.31095251"><ele>6.2</ele><time>2022-10-31T12:36:40.0000000+00:00</time></trkpt><trkpt lat="39.34547726" lon="-0.31095444"><ele>6.2</ele><time>2022-10-31T12:36:41.0000000+00:00</time></trkpt><trkpt lat="39.3454921" lon="-0.31095964"><ele>6.4</ele><time>2022-10-31T12:36:42.0000000+00:00</time></trkpt><trkpt lat="39.34550886" lon="-0.31097003"><ele>6.4</ele><time>2022-10-31T12:36:43.0000000+00:00</time></trkpt><trkpt lat="39.34552764" lon="-0.3109842"><ele>6.6</ele><time>2022-10-31T12:36:44.0000000+00:00</time></trkpt><trkpt lat="39.34554859" lon="-0.31100398"><ele>6.6</ele><time>2022-10-31T12:36:45.0000000+00:00</time></trkpt><trkpt lat="39.34557491" lon="-0.31102334"><ele>6.6</ele><time>2022-10-31T12:36:46.0000000+00:00</time></trkpt><trkpt lat="39.34560324" lon="-0.31104128"><ele>6.8</ele><time>2022-10-31T12:36:47.0000000+00:00</time></trkpt><trkpt lat="39.34563593" lon="-0.31105746"><ele>6.8</ele><time>2022-10-31T12:36:48.0000000+00:00</time></trkpt><trkpt lat="39.34566745" lon="-0.31107204"><ele>7.0</ele><time>2022-10-31T12:36:49.0000000+00:00</time></trkpt><trkpt lat="39.34570449" lon="-0.31109065"><ele>7.0</ele><time>2022-10-31T12:36:50.0000000+00:00</time></trkpt><trkpt lat="39.34573853" lon="-0.311108"><ele>7.0</ele><time>2022-10-31T12:36:51.0000000+00:00</time></trkpt><trkpt lat="39.34577432" lon="-0.31112577"><ele>7.0</ele><time>2022-10-31T12:36:52.0000000+00:00</time></trkpt><trkpt lat="39.34581078" lon="-0.31114387"><ele>7.0</ele><time>2022-10-31T12:36:53.0000000+00:00</time></trkpt><trkpt lat="39.34585118" lon="-0.311166"><ele>7.2</ele><time>2022-10-31T12:36:54.0000000+00:00</time></trkpt><trkpt lat="39.34589292" lon="-0.31118704"><ele>7.2</ele><time>2022-10-31T12:36:55.0000000+00:00</time></trkpt><trkpt lat="39.34593299" lon="-0.311209"><ele>7.0</ele><time>2022-10-31T12:36:56.0000000+00:00</time></trkpt><trkpt lat="39.34597322" lon="-0.31123188"><ele>7.0</ele><time>2022-10-31T12:36:57.0000000+00:00</time></trkpt><trkpt lat="39.34601613" lon="-0.31125636"><ele>7.0</ele><time>2022-10-31T12:36:58.0000000+00:00</time></trkpt><trkpt lat="39.34605586" lon="-0.31128511"><ele>6.8</ele><time>2022-10-31T12:36:59.0000000+00:00</time></trkpt><trkpt lat="39.34609484" lon="-0.31131713"><ele>6.8</ele><time>2022-10-31T12:37:00.0000000+00:00</time></trkpt><trkpt lat="39.34613197" lon="-0.31135719"><ele>6.8</ele><time>2022-10-31T12:37:01.0000000+00:00</time></trkpt><trkpt lat="39.34616173" lon="-0.3114048"><ele>6.8</ele><time>2022-10-31T12:37:02.0000000+00:00</time></trkpt><trkpt lat="39.34618427" lon="-0.31145535"><ele>6.8</ele><time>2022-10-31T12:37:03.0000000+00:00</time></trkpt><trkpt lat="39.3462059" lon="-0.31150731"><ele>6.8</ele><time>2022-10-31T12:37:04.0000000+00:00</time></trkpt><trkpt lat="39.3462297" lon="-0.31155844"><ele>6.8</ele><time>2022-10-31T12:37:05.0000000+00:00</time></trkpt><trkpt lat="39.34625938" lon="-0.31160035"><ele>6.8</ele><time>2022-10-31T12:37:06.0000000+00:00</time></trkpt><trkpt lat="39.34629668" lon="-0.31162449"><ele>6.8</ele><time>2022-10-31T12:37:07.0000000+00:00</time></trkpt><trkpt lat="39.34633951" lon="-0.31162608"><ele>6.8</ele><time>2022-10-31T12:37:08.0000000+00:00</time></trkpt><trkpt lat="39.34638158" lon="-0.31160664"><ele>6.8</ele><time>2022-10-31T12:37:09.0000000+00:00</time></trkpt><trkpt lat="39.34642165" lon="-0.31158141"><ele>7.0</ele><time>2022-10-31T12:37:10.0000000+00:00</time></trkpt><trkpt lat="39.34646079" lon="-0.31155651"><ele>7.0</ele><time>2022-10-31T12:37:11.0000000+00:00</time></trkpt><trkpt lat="39.34650178" lon="-0.31153263"><ele>7.2</ele><time>2022-10-31T12:37:12.0000000+00:00</time></trkpt><trkpt lat="39.34654503" lon="-0.31150547"><ele>7.2</ele><time>2022-10-31T12:37:13.0000000+00:00</time></trkpt><trkpt lat="39.34658837" lon="-0.3114784"><ele>7.2</ele><time>2022-10-31T12:37:14.0000000+00:00</time></trkpt><trkpt lat="39.34663103" lon="-0.3114509"><ele>7.2</ele><time>2022-10-31T12:37:15.0000000+00:00</time></trkpt><trkpt lat="39.34667193" lon="-0.31142023"><ele>7.2</ele><time>2022-10-31T12:37:16.0000000+00:00</time></trkpt><trkpt lat="39.34671225" lon="-0.31139148"><ele>7.2</ele><time>2022-10-31T12:37:17.0000000+00:00</time></trkpt><trkpt lat="39.34675173" lon="-0.31136415"><ele>7.4</ele><time>2022-10-31T12:37:18.0000000+00:00</time></trkpt><trkpt lat="39.34678978" lon="-0.31133867"><ele>7.4</ele><time>2022-10-31T12:37:19.0000000+00:00</time></trkpt><trkpt lat="39.34682407" lon="-0.31131386"><ele>7.2</ele><time>2022-10-31T12:37:20.0000000+00:00</time></trkpt><trkpt lat="39.34686204" lon="-0.31129156"><ele>7.2</ele><time>2022-10-31T12:37:21.0000000+00:00</time></trkpt><trkpt lat="39.34689841" lon="-0.31127019"><ele>7.2</ele><time>2022-10-31T12:37:22.0000000+00:00</time></trkpt><trkpt lat="39.34693127" lon="-0.31125049"><ele>7.0</ele><time>2022-10-31T12:37:23.0000000+00:00</time></trkpt><trkpt lat="39.34696052" lon="-0.31123155"><ele>7.0</ele><time>2022-10-31T12:37:24.0000000+00:00</time></trkpt><trkpt lat="39.34699162" lon="-0.31121629"><ele>7.0</ele><time>2022-10-31T12:37:25.0000000+00:00</time></trkpt><trkpt lat="39.34701769" lon="-0.31120439"><ele>6.8</ele><time>2022-10-31T12:37:26.0000000+00:00</time></trkpt><trkpt lat="39.34704476" lon="-0.31118989"><ele>6.8</ele><time>2022-10-31T12:37:27.0000000+00:00</time></trkpt><trkpt lat="39.34706882" lon="-0.31117329"><ele>7.0</ele><time>2022-10-31T12:37:28.0000000+00:00</time></trkpt><trkpt lat="39.34708927" lon="-0.31115787"><ele>7.0</ele><time>2022-10-31T12:37:29.0000000+00:00</time></trkpt><trkpt lat="39.34711022" lon="-0.31114019"><ele>7.0</ele><time>2022-10-31T12:37:30.0000000+00:00</time></trkpt><trkpt lat="39.34713059" lon="-0.31112325"><ele>7.0</ele><time>2022-10-31T12:37:31.0000000+00:00</time></trkpt><trkpt lat="39.34714886" lon="-0.31110867"><ele>7.0</ele><time>2022-10-31T12:37:32.0000000+00:00</time></trkpt><trkpt lat="39.34716915" lon="-0.31110104"><ele>7.0</ele><time>2022-10-31T12:37:33.0000000+00:00</time></trkpt><trkpt lat="39.34718776" lon="-0.31109677"><ele>6.8</ele><time>2022-10-31T12:37:34.0000000+00:00</time></trkpt><trkpt lat="39.34720217" lon="-0.31109124"><ele>6.8</ele><time>2022-10-31T12:37:35.0000000+00:00</time></trkpt><trkpt lat="39.34721718" lon="-0.31108897"><ele>6.8</ele><time>2022-10-31T12:37:36.0000000+00:00</time></trkpt><trkpt lat="39.34723042" lon="-0.31109207"><ele>6.8</ele><time>2022-10-31T12:37:37.0000000+00:00</time></trkpt><trkpt lat="39.3472435" lon="-0.31109895"><ele>6.8</ele><time>2022-10-31T12:37:38.0000000+00:00</time></trkpt><trkpt lat="39.34725925" lon="-0.31110607"><ele>6.8</ele><time>2022-10-31T12:37:39.0000000+00:00</time></trkpt><trkpt lat="39.34727619" lon="-0.31111253"><ele>6.8</ele><time>2022-10-31T12:37:40.0000000+00:00</time></trkpt><trkpt lat="39.34729186" lon="-0.31111412"><ele>6.8</ele><time>2022-10-31T12:37:41.0000000+00:00</time></trkpt><trkpt lat="39.34730016" lon="-0.3111147"><ele>6.6</ele><time>2022-10-31T12:37:42.0000000+00:00</time></trkpt><trkpt lat="39.34730477" lon="-0.31111588"><ele>6.6</ele><time>2022-10-31T12:37:43.0000000+00:00</time></trkpt><trkpt lat="39.34730804" lon="-0.31111672"><ele>6.6</ele><time>2022-10-31T12:37:44.0000000+00:00</time></trkpt><trkpt lat="39.34730561" lon="-0.31111118"><ele>6.6</ele><time>2022-10-31T12:37:45.0000000+00:00</time></trkpt><trkpt lat="39.34730611" lon="-0.31110372"><ele>6.6</ele><time>2022-10-31T12:37:46.0000000+00:00</time></trkpt><trkpt lat="39.34731256" lon="-0.31109534"><ele>6.4</ele><time>2022-10-31T12:37:47.0000000+00:00</time></trkpt><trkpt lat="39.34731256" lon="-0.31108587"><ele>6.4</ele><time>2022-10-31T12:37:48.0000000+00:00</time></trkpt><trkpt lat="39.3473139" lon="-0.31107581"><ele>6.4</ele><time>2022-10-31T12:37:49.0000000+00:00</time></trkpt><trkpt lat="39.34731751" lon="-0.311065"><ele>6.4</ele><time>2022-10-31T12:37:50.0000000+00:00</time></trkpt><trkpt lat="39.34732463" lon="-0.31105871"><ele>6.2</ele><time>2022-10-31T12:37:51.0000000+00:00</time></trkpt><trkpt lat="39.34733067" lon="-0.31105251"><ele>6.2</ele><time>2022-10-31T12:37:52.0000000+00:00</time></trkpt><trkpt lat="39.34733293" lon="-0.31104991"><ele>6.2</ele><time>2022-10-31T12:37:53.0000000+00:00</time></trkpt><trkpt lat="39.34733293" lon="-0.31104991"><ele>6.2</ele><time>2022-10-31T12:37:54.0000000+00:00</time></trkpt><trkpt lat="39.34733293" lon="-0.31104991"><ele>6.4</ele><time>2022-10-31T12:37:55.0000000+00:00</time></trkpt><trkpt lat="39.34733293" lon="-0.31104757"><ele>6.4</ele><time>2022-10-31T12:37:56.0000000+00:00</time></trkpt><trkpt lat="39.3473357" lon="-0.31103927"><ele>6.4</ele><time>2022-10-31T12:37:57.0000000+00:00</time></trkpt><trkpt lat="39.34733662" lon="-0.31103449"><ele>6.4</ele><time>2022-10-31T12:37:58.0000000+00:00</time></trkpt><trkpt lat="39.34733486" lon="-0.31103533"><ele>6.4</ele><time>2022-10-31T12:37:59.0000000+00:00</time></trkpt><trkpt lat="39.34733461" lon="-0.31102862"><ele>6.4</ele><time>2022-10-31T12:38:00.0000000+00:00</time></trkpt><trkpt lat="39.34733653" lon="-0.311022"><ele>6.4</ele><time>2022-10-31T12:38:01.0000000+00:00</time></trkpt><trkpt lat="39.34733737" lon="-0.31101873"><ele>6.4</ele><time>2022-10-31T12:38:02.0000000+00:00</time></trkpt><trkpt lat="39.34733737" lon="-0.31101873"><ele>6.4</ele><time>2022-10-31T12:38:03.0000000+00:00</time></trkpt><trkpt lat="39.34733737" lon="-0.31101873"><ele>6.4</ele><time>2022-10-31T12:38:04.0000000+00:00</time></trkpt><trkpt lat="39.34733737" lon="-0.31101873"><ele>6.4</ele><time>2022-10-31T12:38:05.0000000+00:00</time></trkpt><trkpt lat="39.34733938" lon="-0.31101362"><ele>6.4</ele><time>2022-10-31T12:38:06.0000000+00:00</time></trkpt><trkpt lat="39.34734324" lon="-0.31100557"><ele>6.4</ele><time>2022-10-31T12:38:07.0000000+00:00</time></trkpt><trkpt lat="39.34734684" lon="-0.31100063"><ele>6.4</ele><time>2022-10-31T12:38:08.0000000+00:00</time></trkpt><trkpt lat="39.34734835" lon="-0.31099753"><ele>6.4</ele><time>2022-10-31T12:38:09.0000000+00:00</time></trkpt><trkpt lat="39.34734835" lon="-0.31099753"><ele>6.4</ele><time>2022-10-31T12:38:10.0000000+00:00</time></trkpt><trkpt lat="39.34734835" lon="-0.31099753"><ele>6.4</ele><time>2022-10-31T12:38:11.0000000+00:00</time></trkpt><trkpt lat="39.34734835" lon="-0.31099753"><ele>6.4</ele><time>2022-10-31T12:38:12.0000000+00:00</time></trkpt><trkpt lat="39.34734835" lon="-0.31099753"><ele>6.2</ele><time>2022-10-31T12:38:13.0000000+00:00</time></trkpt><trkpt lat="39.34734835" lon="-0.31099753"><ele>6.2</ele><time>2022-10-31T12:38:14.0000000+00:00</time></trkpt><trkpt lat="39.34734835" lon="-0.31099753"><ele>6.2</ele><time>2022-10-31T12:38:15.0000000+00:00</time></trkpt><trkpt lat="39.34734835" lon="-0.31099753"><ele>6.2</ele><time>2022-10-31T12:38:16.0000000+00:00</time></trkpt><trkpt lat="39.34734609" lon="-0.31100079"><ele>6.2</ele><time>2022-10-31T12:38:17.0000000+00:00</time></trkpt><trkpt lat="39.34734492" lon="-0.31100381"><ele>6.2</ele><time>2022-10-31T12:38:18.0000000+00:00</time></trkpt><trkpt lat="39.34734492" lon="-0.31100381"><ele>6.2</ele><time>2022-10-31T12:38:19.0000000+00:00</time></trkpt><trkpt lat="39.34734483" lon="-0.31100046"><ele>6.2</ele><time>2022-10-31T12:38:20.0000000+00:00</time></trkpt><trkpt lat="39.34734458" lon="-0.31099711"><ele>6.2</ele><time>2022-10-31T12:38:21.0000000+00:00</time></trkpt><trkpt lat="39.34734508" lon="-0.31099526"><ele>6.0</ele><time>2022-10-31T12:38:22.0000000+00:00</time></trkpt><trkpt lat="39.34734249" lon="-0.31099442"><ele>6.0</ele><time>2022-10-31T12:38:23.0000000+00:00</time></trkpt><trkpt lat="39.34734249" lon="-0.31099442"><ele>6.0</ele><time>2022-10-31T12:38:24.0000000+00:00</time></trkpt><trkpt lat="39.34734249" lon="-0.31099442"><ele>6.0</ele><time>2022-10-31T12:38:25.0000000+00:00</time></trkpt><trkpt lat="39.34734249" lon="-0.31099442"><ele>6.0</ele><time>2022-10-31T12:38:26.0000000+00:00</time></trkpt><trkpt lat="39.34734249" lon="-0.31099442"><ele>6.0</ele><time>2022-10-31T12:38:27.0000000+00:00</time></trkpt><trkpt lat="39.34734249" lon="-0.31099442"><ele>6.0</ele><time>2022-10-31T12:38:28.0000000+00:00</time></trkpt><trkpt lat="39.34734249" lon="-0.31099442"><ele>6.0</ele><time>2022-10-31T12:38:29.0000000+00:00</time></trkpt><trkpt lat="39.34734249" lon="-0.31099442"><ele>6.0</ele><time>2022-10-31T12:38:30.0000000+00:00</time></trkpt><trkpt lat="39.34734483" lon="-0.31099409"><ele>6.0</ele><time>2022-10-31T12:38:31.0000000+00:00</time></trkpt><trkpt lat="39.34734785" lon="-0.31099434"><ele>6.0</ele><time>2022-10-31T12:38:32.0000000+00:00</time></trkpt><trkpt lat="39.34734785" lon="-0.31099602"><ele>6.0</ele><time>2022-10-31T12:38:33.0000000+00:00</time></trkpt><trkpt lat="39.34734793" lon="-0.31099903"><ele>6.2</ele><time>2022-10-31T12:38:34.0000000+00:00</time></trkpt><trkpt lat="39.34734793" lon="-0.31099903"><ele>6.2</ele><time>2022-10-31T12:38:35.0000000+00:00</time></trkpt><trkpt lat="39.34734793" lon="-0.31099903"><ele>6.2</ele><time>2022-10-31T12:38:36.0000000+00:00</time></trkpt><trkpt lat="39.34734793" lon="-0.31099903"><ele>6.2</ele><time>2022-10-31T12:38:37.0000000+00:00</time></trkpt><trkpt lat="39.34734793" lon="-0.31099903"><ele>6.4</ele><time>2022-10-31T12:38:38.0000000+00:00</time></trkpt><trkpt lat="39.34734793" lon="-0.31099903"><ele>6.4</ele><time>2022-10-31T12:38:39.0000000+00:00</time></trkpt><trkpt lat="39.34734793" lon="-0.31099903"><ele>6.4</ele><time>2022-10-31T12:38:40.0000000+00:00</time></trkpt><trkpt lat="39.34734793" lon="-0.31099903"><ele>6.4</ele><time>2022-10-31T12:38:41.0000000+00:00</time></trkpt><trkpt lat="39.34734793" lon="-0.31099903"><ele>6.4</ele><time>2022-10-31T12:38:42.0000000+00:00</time></trkpt><trkpt lat="39.34734793" lon="-0.31099903"><ele>6.4</ele><time>2022-10-31T12:38:43.0000000+00:00</time></trkpt><trkpt lat="39.34734793" lon="-0.31099903"><ele>6.4</ele><time>2022-10-31T12:38:44.0000000+00:00</time></trkpt><trkpt lat="39.34734793" lon="-0.31099903"><ele>6.4</ele><time>2022-10-31T12:38:45.0000000+00:00</time></trkpt><trkpt lat="39.34734793" lon="-0.31099903"><ele>6.4</ele><time>2022-10-31T12:38:46.0000000+00:00</time></trkpt><trkpt lat="39.34734793" lon="-0.31099903"><ele>6.4</ele><time>2022-10-31T12:38:47.0000000+00:00</time></trkpt><trkpt lat="39.34734793" lon="-0.31099903"><ele>6.4</ele><time>2022-10-31T12:38:48.0000000+00:00</time></trkpt><trkpt lat="39.34734793" lon="-0.31099903"><ele>6.4</ele><time>2022-10-31T12:38:49.0000000+00:00</time></trkpt><trkpt lat="39.34734793" lon="-0.31099903"><ele>6.2</ele><time>2022-10-31T12:38:50.0000000+00:00</time></trkpt><trkpt lat="39.34734793" lon="-0.31099903"><ele>6.2</ele><time>2022-10-31T12:38:51.0000000+00:00</time></trkpt><trkpt lat="39.34734793" lon="-0.31099903"><ele>6.2</ele><time>2022-10-31T12:38:52.0000000+00:00</time></trkpt><trkpt lat="39.34734793" lon="-0.31099903"><ele>6.2</ele><time>2022-10-31T12:38:53.0000000+00:00</time></trkpt><trkpt lat="39.34734793" lon="-0.31099903"><ele>6.2</ele><time>2022-10-31T12:38:54.0000000+00:00</time></trkpt><trkpt lat="39.34734793" lon="-0.31099903"><ele>6.2</ele><time>2022-10-31T12:38:55.0000000+00:00</time></trkpt><trkpt lat="39.34734793" lon="-0.31099903"><ele>6.2</ele><time>2022-10-31T12:38:56.0000000+00:00</time></trkpt><trkpt lat="39.34734793" lon="-0.31099903"><ele>6.2</ele><time>2022-10-31T12:38:57.0000000+00:00</time></trkpt><trkpt lat="39.34734793" lon="-0.31099903"><ele>6.2</ele><time>2022-10-31T12:38:58.0000000+00:00</time></trkpt><trkpt lat="39.34734793" lon="-0.31099903"><ele>6.2</ele><time>2022-10-31T12:38:59.0000000+00:00</time></trkpt><trkpt lat="39.34734793" lon="-0.31099903"><ele>6.2</ele><time>2022-10-31T12:39:00.0000000+00:00</time></trkpt><trkpt lat="39.34734793" lon="-0.31099903"><ele>6.2</ele><time>2022-10-31T12:39:01.0000000+00:00</time></trkpt><trkpt lat="39.34734793" lon="-0.31099903"><ele>6.2</ele><time>2022-10-31T12:39:02.0000000+00:00</time></trkpt><trkpt lat="39.34734793" lon="-0.31099903"><ele>6.2</ele><time>2022-10-31T12:39:03.0000000+00:00</time></trkpt><trkpt lat="39.34734793" lon="-0.31099903"><ele>6.2</ele><time>2022-10-31T12:39:04.0000000+00:00</time></trkpt><trkpt lat="39.34734793" lon="-0.31099903"><ele>6.2</ele><time>2022-10-31T12:39:05.0000000+00:00</time></trkpt><trkpt lat="39.34734793" lon="-0.31099903"><ele>6.2</ele><time>2022-10-31T12:39:06.0000000+00:00</time></trkpt><trkpt lat="39.34734793" lon="-0.31099903"><ele>6.2</ele><time>2022-10-31T12:39:07.0000000+00:00</time></trkpt><trkpt lat="39.34734793" lon="-0.31099903"><ele>6.2</ele><time>2022-10-31T12:39:08.0000000+00:00</time></trkpt><trkpt lat="39.34734793" lon="-0.31099903"><ele>6.2</ele><time>2022-10-31T12:39:09.0000000+00:00</time></trkpt><trkpt lat="39.34734793" lon="-0.31099903"><ele>6.2</ele><time>2022-10-31T12:39:10.0000000+00:00</time></trkpt><trkpt lat="39.34734793" lon="-0.31099903"><ele>6.2</ele><time>2022-10-31T12:39:11.0000000+00:00</time></trkpt><trkpt lat="39.34735288" lon="-0.31099468"><ele>6.2</ele><time>2022-10-31T12:39:12.0000000+00:00</time></trkpt><trkpt lat="39.34735548" lon="-0.31099484"><ele>5.8</ele><time>2022-10-31T12:39:13.0000000+00:00</time></trkpt><trkpt lat="39.34735548" lon="-0.31099484"><ele>5.8</ele><time>2022-10-31T12:39:14.0000000+00:00</time></trkpt><trkpt lat="39.34735548" lon="-0.31099484"><ele>5.8</ele><time>2022-10-31T12:39:15.0000000+00:00</time></trkpt><trkpt lat="39.34735548" lon="-0.31099484"><ele>5.8</ele><time>2022-10-31T12:39:16.0000000+00:00</time></trkpt><trkpt lat="39.34735548" lon="-0.31099484"><ele>5.8</ele><time>2022-10-31T12:39:17.0000000+00:00</time></trkpt><trkpt lat="39.34735665" lon="-0.31099669"><ele>5.8</ele><time>2022-10-31T12:39:18.0000000+00:00</time></trkpt><trkpt lat="39.34735824" lon="-0.31100029"><ele>5.8</ele><time>2022-10-31T12:39:19.0000000+00:00</time></trkpt><trkpt lat="39.34735816" lon="-0.31099442"><ele>5.8</ele><time>2022-10-31T12:39:20.0000000+00:00</time></trkpt><trkpt lat="39.34735833" lon="-0.31098965"><ele>5.8</ele><time>2022-10-31T12:39:21.0000000+00:00</time></trkpt><trkpt lat="39.34735833" lon="-0.31098965"><ele>5.8</ele><time>2022-10-31T12:39:22.0000000+00:00</time></trkpt><trkpt lat="39.34736227" lon="-0.31098755"><ele>5.8</ele><time>2022-10-31T12:39:23.0000000+00:00</time></trkpt><trkpt lat="39.3473657" lon="-0.3109894"><ele>5.8</ele><time>2022-10-31T12:39:24.0000000+00:00</time></trkpt><trkpt lat="39.3473657" lon="-0.3109894"><ele>5.8</ele><time>2022-10-31T12:39:25.0000000+00:00</time></trkpt><trkpt lat="39.3473657" lon="-0.3109894"><ele>5.8</ele><time>2022-10-31T12:39:26.0000000+00:00</time></trkpt><trkpt lat="39.3473657" lon="-0.3109894"><ele>5.8</ele><time>2022-10-31T12:39:27.0000000+00:00</time></trkpt><trkpt lat="39.3473657" lon="-0.3109894"><ele>5.8</ele><time>2022-10-31T12:39:28.0000000+00:00</time></trkpt><trkpt lat="39.3473657" lon="-0.3109894"><ele>5.8</ele><time>2022-10-31T12:39:29.0000000+00:00</time></trkpt><trkpt lat="39.3473657" lon="-0.3109894"><ele>5.8</ele><time>2022-10-31T12:39:30.0000000+00:00</time></trkpt><trkpt lat="39.3473657" lon="-0.3109894"><ele>5.8</ele><time>2022-10-31T12:39:31.0000000+00:00</time></trkpt><trkpt lat="39.3473657" lon="-0.3109894"><ele>5.8</ele><time>2022-10-31T12:39:32.0000000+00:00</time></trkpt><trkpt lat="39.3473657" lon="-0.3109894"><ele>5.8</ele><time>2022-10-31T12:39:33.0000000+00:00</time></trkpt><trkpt lat="39.3473657" lon="-0.3109894"><ele>5.8</ele><time>2022-10-31T12:39:34.0000000+00:00</time></trkpt><trkpt lat="39.3473657" lon="-0.3109894"><ele>5.8</ele><time>2022-10-31T12:39:35.0000000+00:00</time></trkpt><trkpt lat="39.3473657" lon="-0.3109894"><ele>5.8</ele><time>2022-10-31T12:39:36.0000000+00:00</time></trkpt><trkpt lat="39.3473657" lon="-0.3109894"><ele>5.8</ele><time>2022-10-31T12:39:37.0000000+00:00</time></trkpt><trkpt lat="39.3473657" lon="-0.3109894"><ele>5.8</ele><time>2022-10-31T12:39:38.0000000+00:00</time></trkpt><trkpt lat="39.3473657" lon="-0.3109894"><ele>5.8</ele><time>2022-10-31T12:39:39.0000000+00:00</time></trkpt><trkpt lat="39.3473657" lon="-0.3109894"><ele>5.8</ele><time>2022-10-31T12:39:40.0000000+00:00</time></trkpt><trkpt lat="39.3473657" lon="-0.3109894"><ele>5.8</ele><time>2022-10-31T12:39:41.0000000+00:00</time></trkpt><trkpt lat="39.3473657" lon="-0.3109894"><ele>5.8</ele><time>2022-10-31T12:39:42.0000000+00:00</time></trkpt><trkpt lat="39.3473657" lon="-0.3109894"><ele>5.8</ele><time>2022-10-31T12:39:43.0000000+00:00</time></trkpt><trkpt lat="39.3473657" lon="-0.3109894"><ele>5.8</ele><time>2022-10-31T12:39:44.0000000+00:00</time></trkpt><trkpt lat="39.3473657" lon="-0.3109894"><ele>5.8</ele><time>2022-10-31T12:39:45.0000000+00:00</time></trkpt><trkpt lat="39.3473657" lon="-0.3109894"><ele>5.8</ele><time>2022-10-31T12:39:46.0000000+00:00</time></trkpt><trkpt lat="39.34736436" lon="-0.31098881"><ele>5.8</ele><time>2022-10-31T12:39:47.0000000+00:00</time></trkpt><trkpt lat="39.34736554" lon="-0.31099157"><ele>5.8</ele><time>2022-10-31T12:39:48.0000000+00:00</time></trkpt><trkpt lat="39.34736554" lon="-0.31099157"><ele>5.8</ele><time>2022-10-31T12:39:49.0000000+00:00</time></trkpt><trkpt lat="39.34736554" lon="-0.31099157"><ele>5.8</ele><time>2022-10-31T12:39:50.0000000+00:00</time></trkpt><trkpt lat="39.34736554" lon="-0.31099157"><ele>5.8</ele><time>2022-10-31T12:39:51.0000000+00:00</time></trkpt><trkpt lat="39.34736554" lon="-0.31099157"><ele>5.8</ele><time>2022-10-31T12:39:52.0000000+00:00</time></trkpt><trkpt lat="39.34736554" lon="-0.31099157"><ele>5.8</ele><time>2022-10-31T12:39:53.0000000+00:00</time></trkpt><trkpt lat="39.34736461" lon="-0.31098789"><ele>5.8</ele><time>2022-10-31T12:39:54.0000000+00:00</time></trkpt><trkpt lat="39.34736679" lon="-0.31098655"><ele>5.8</ele><time>2022-10-31T12:39:55.0000000+00:00</time></trkpt><trkpt lat="39.34736679" lon="-0.31098655"><ele>5.8</ele><time>2022-10-31T12:39:56.0000000+00:00</time></trkpt><trkpt lat="39.34736679" lon="-0.31098655"><ele>5.8</ele><time>2022-10-31T12:39:57.0000000+00:00</time></trkpt><trkpt lat="39.34736679" lon="-0.31098655"><ele>5.8</ele><time>2022-10-31T12:39:58.0000000+00:00</time></trkpt><trkpt lat="39.34736679" lon="-0.31098655"><ele>5.8</ele><time>2022-10-31T12:39:59.0000000+00:00</time></trkpt><trkpt lat="39.34736637" lon="-0.3109868"><ele>5.8</ele><time>2022-10-31T12:40:00.0000000+00:00</time></trkpt><trkpt lat="39.34736394" lon="-0.31098705"><ele>5.8</ele><time>2022-10-31T12:40:01.0000000+00:00</time></trkpt><trkpt lat="39.34736394" lon="-0.31098705"><ele>5.8</ele><time>2022-10-31T12:40:02.0000000+00:00</time></trkpt><trkpt lat="39.34736394" lon="-0.31098705"><ele>5.8</ele><time>2022-10-31T12:40:03.0000000+00:00</time></trkpt><trkpt lat="39.34736394" lon="-0.31098705"><ele>5.8</ele><time>2022-10-31T12:40:04.0000000+00:00</time></trkpt><trkpt lat="39.34736394" lon="-0.31098705"><ele>5.8</ele><time>2022-10-31T12:40:05.0000000+00:00</time></trkpt><trkpt lat="39.34736394" lon="-0.31098705"><ele>5.8</ele><time>2022-10-31T12:40:06.0000000+00:00</time></trkpt><trkpt lat="39.34736394" lon="-0.31098705"><ele>5.8</ele><time>2022-10-31T12:40:07.0000000+00:00</time></trkpt><trkpt lat="39.34736394" lon="-0.31098705"><ele>5.8</ele><time>2022-10-31T12:40:08.0000000+00:00</time></trkpt><trkpt lat="39.34736394" lon="-0.31098705"><ele>5.8</ele><time>2022-10-31T12:40:09.0000000+00:00</time></trkpt><trkpt lat="39.34736394" lon="-0.31098705"><ele>5.8</ele><time>2022-10-31T12:40:10.0000000+00:00</time></trkpt><trkpt lat="39.34736394" lon="-0.31098705"><ele>5.8</ele><time>2022-10-31T12:40:11.0000000+00:00</time></trkpt><trkpt lat="39.34736394" lon="-0.31098705"><ele>5.8</ele><time>2022-10-31T12:40:12.0000000+00:00</time></trkpt><trkpt lat="39.34736394" lon="-0.31098705"><ele>5.8</ele><time>2022-10-31T12:40:13.0000000+00:00</time></trkpt><trkpt lat="39.34736394" lon="-0.31098705"><ele>5.8</ele><time>2022-10-31T12:40:14.0000000+00:00</time></trkpt><trkpt lat="39.34736394" lon="-0.31098705"><ele>5.8</ele><time>2022-10-31T12:40:15.0000000+00:00</time></trkpt><trkpt lat="39.34736394" lon="-0.31098705"><ele>5.8</ele><time>2022-10-31T12:40:16.0000000+00:00</time></trkpt><trkpt lat="39.34736394" lon="-0.31098705"><ele>5.8</ele><time>2022-10-31T12:40:17.0000000+00:00</time></trkpt><trkpt lat="39.34736143" lon="-0.31098646"><ele>5.8</ele><time>2022-10-31T12:40:18.0000000+00:00</time></trkpt><trkpt lat="39.34735875" lon="-0.31098814"><ele>5.8</ele><time>2022-10-31T12:40:19.0000000+00:00</time></trkpt><trkpt lat="39.34735875" lon="-0.31098814"><ele>5.8</ele><time>2022-10-31T12:40:20.0000000+00:00</time></trkpt><trkpt lat="39.34735875" lon="-0.31098814"><ele>5.8</ele><time>2022-10-31T12:40:21.0000000+00:00</time></trkpt><trkpt lat="39.34735875" lon="-0.31098814"><ele>5.8</ele><time>2022-10-31T12:40:22.0000000+00:00</time></trkpt><trkpt lat="39.34735875" lon="-0.31098814"><ele>5.8</ele><time>2022-10-31T12:40:23.0000000+00:00</time></trkpt><trkpt lat="39.34735875" lon="-0.31098814"><ele>5.8</ele><time>2022-10-31T12:40:24.0000000+00:00</time></trkpt><trkpt lat="39.34735875" lon="-0.31098814"><ele>5.8</ele><time>2022-10-31T12:40:25.0000000+00:00</time></trkpt><trkpt lat="39.34735875" lon="-0.31098814"><ele>5.8</ele><time>2022-10-31T12:40:26.0000000+00:00</time></trkpt><trkpt lat="39.34735875" lon="-0.31098814"><ele>5.8</ele><time>2022-10-31T12:40:27.0000000+00:00</time></trkpt><trkpt lat="39.34735875" lon="-0.31098814"><ele>5.8</ele><time>2022-10-31T12:40:28.0000000+00:00</time></trkpt><trkpt lat="39.34735875" lon="-0.31098814"><ele>5.8</ele><time>2022-10-31T12:40:29.0000000+00:00</time></trkpt><trkpt lat="39.34735875" lon="-0.31098814"><ele>5.8</ele><time>2022-10-31T12:40:30.0000000+00:00</time></trkpt><trkpt lat="39.34735875" lon="-0.31098814"><ele>5.8</ele><time>2022-10-31T12:40:31.0000000+00:00</time></trkpt><trkpt lat="39.34735875" lon="-0.31098814"><ele>5.8</ele><time>2022-10-31T12:40:32.0000000+00:00</time></trkpt><trkpt lat="39.34735875" lon="-0.31098814"><ele>5.8</ele><time>2022-10-31T12:40:33.0000000+00:00</time></trkpt><trkpt lat="39.34735875" lon="-0.31098814"><ele>5.8</ele><time>2022-10-31T12:40:34.0000000+00:00</time></trkpt><trkpt lat="39.34735875" lon="-0.31098814"><ele>5.8</ele><time>2022-10-31T12:40:35.0000000+00:00</time></trkpt><trkpt lat="39.34735875" lon="-0.31098814"><ele>5.8</ele><time>2022-10-31T12:40:36.0000000+00:00</time></trkpt><trkpt lat="39.34735875" lon="-0.31098814"><ele>5.8</ele><time>2022-10-31T12:40:37.0000000+00:00</time></trkpt><trkpt lat="39.34735875" lon="-0.31098814"><ele>5.8</ele><time>2022-10-31T12:40:38.0000000+00:00</time></trkpt><trkpt lat="39.34735875" lon="-0.31098814"><ele>5.8</ele><time>2022-10-31T12:40:39.0000000+00:00</time></trkpt><trkpt lat="39.34735875" lon="-0.31098814"><ele>5.8</ele><time>2022-10-31T12:40:40.0000000+00:00</time></trkpt><trkpt lat="39.34735875" lon="-0.31098814"><ele>5.8</ele><time>2022-10-31T12:40:41.0000000+00:00</time></trkpt><trkpt lat="39.34735875" lon="-0.31098814"><ele>5.8</ele><time>2022-10-31T12:40:42.0000000+00:00</time></trkpt><trkpt lat="39.34735875" lon="-0.31098814"><ele>5.8</ele><time>2022-10-31T12:40:43.0000000+00:00</time></trkpt><trkpt lat="39.34735875" lon="-0.31098814"><ele>5.8</ele><time>2022-10-31T12:40:44.0000000+00:00</time></trkpt><trkpt lat="39.34735875" lon="-0.31098814"><ele>5.8</ele><time>2022-10-31T12:40:45.0000000+00:00</time></trkpt><trkpt lat="39.34735875" lon="-0.31098814"><ele>5.8</ele><time>2022-10-31T12:40:46.0000000+00:00</time></trkpt><trkpt lat="39.34735875" lon="-0.31098814"><ele>5.8</ele><time>2022-10-31T12:40:47.0000000+00:00</time></trkpt><trkpt lat="39.34735875" lon="-0.31098814"><ele>5.8</ele><time>2022-10-31T12:40:48.0000000+00:00</time></trkpt><trkpt lat="39.34735875" lon="-0.31098814"><ele>5.8</ele><time>2022-10-31T12:40:49.0000000+00:00</time></trkpt><trkpt lat="39.34735875" lon="-0.31098814"><ele>5.8</ele><time>2022-10-31T12:40:50.0000000+00:00</time></trkpt><trkpt lat="39.34735875" lon="-0.31098814"><ele>5.8</ele><time>2022-10-31T12:40:51.0000000+00:00</time></trkpt><trkpt lat="39.34735875" lon="-0.31098814"><ele>5.8</ele><time>2022-10-31T12:40:52.0000000+00:00</time></trkpt><trkpt lat="39.34735875" lon="-0.31098814"><ele>5.8</ele><time>2022-10-31T12:40:53.0000000+00:00</time></trkpt><trkpt lat="39.34735875" lon="-0.31098814"><ele>5.8</ele><time>2022-10-31T12:40:54.0000000+00:00</time></trkpt><trkpt lat="39.34735875" lon="-0.31098814"><ele>5.8</ele><time>2022-10-31T12:40:55.0000000+00:00</time></trkpt><trkpt lat="39.34735875" lon="-0.31098814"><ele>5.8</ele><time>2022-10-31T12:40:56.0000000+00:00</time></trkpt><trkpt lat="39.34735875" lon="-0.31098814"><ele>5.8</ele><time>2022-10-31T12:40:57.0000000+00:00</time></trkpt><trkpt lat="39.34735875" lon="-0.31098814"><ele>5.8</ele><time>2022-10-31T12:40:58.0000000+00:00</time></trkpt><trkpt lat="39.34735875" lon="-0.31098814"><ele>5.8</ele><time>2022-10-31T12:40:59.0000000+00:00</time></trkpt><trkpt lat="39.34735875" lon="-0.31098814"><ele>5.8</ele><time>2022-10-31T12:41:00.0000000+00:00</time></trkpt><trkpt lat="39.34735875" lon="-0.31098814"><ele>5.8</ele><time>2022-10-31T12:41:01.0000000+00:00</time></trkpt><trkpt lat="39.34735875" lon="-0.31098814"><ele>5.8</ele><time>2022-10-31T12:41:02.0000000+00:00</time></trkpt><trkpt lat="39.34735875" lon="-0.31098814"><ele>5.8</ele><time>2022-10-31T12:41:03.0000000+00:00</time></trkpt><trkpt lat="39.34735875" lon="-0.31098814"><ele>5.8</ele><time>2022-10-31T12:41:04.0000000+00:00</time></trkpt><trkpt lat="39.34735875" lon="-0.31098814"><ele>5.8</ele><time>2022-10-31T12:41:05.0000000+00:00</time></trkpt><trkpt lat="39.34735875" lon="-0.31098814"><ele>5.8</ele><time>2022-10-31T12:41:06.0000000+00:00</time></trkpt><trkpt lat="39.34735875" lon="-0.31098814"><ele>5.8</ele><time>2022-10-31T12:41:07.0000000+00:00</time></trkpt><trkpt lat="39.34735875" lon="-0.31098814"><ele>5.8</ele><time>2022-10-31T12:41:08.0000000+00:00</time></trkpt><trkpt lat="39.34735875" lon="-0.31098814"><ele>5.8</ele><time>2022-10-31T12:41:09.0000000+00:00</time></trkpt><trkpt lat="39.34735875" lon="-0.31098814"><ele>5.8</ele><time>2022-10-31T12:41:10.0000000+00:00</time></trkpt><trkpt lat="39.34735875" lon="-0.31098814"><ele>5.8</ele><time>2022-10-31T12:41:11.0000000+00:00</time></trkpt><trkpt lat="39.34735875" lon="-0.31098814"><ele>5.8</ele><time>2022-10-31T12:41:12.0000000+00:00</time></trkpt><trkpt lat="39.34735875" lon="-0.31098814"><ele>5.8</ele><time>2022-10-31T12:41:13.0000000+00:00</time></trkpt><trkpt lat="39.34735875" lon="-0.31098814"><ele>5.8</ele><time>2022-10-31T12:41:14.0000000+00:00</time></trkpt><trkpt lat="39.34735875" lon="-0.31098814"><ele>5.8</ele><time>2022-10-31T12:41:15.0000000+00:00</time></trkpt><trkpt lat="39.34735875" lon="-0.31098814"><ele>5.8</ele><time>2022-10-31T12:41:16.0000000+00:00</time></trkpt><trkpt lat="39.34735875" lon="-0.31098814"><ele>5.8</ele><time>2022-10-31T12:41:17.0000000+00:00</time></trkpt><trkpt lat="39.34735875" lon="-0.31098814"><ele>5.8</ele><time>2022-10-31T12:41:18.0000000+00:00</time></trkpt><trkpt lat="39.34735875" lon="-0.31098814"><ele>5.8</ele><time>2022-10-31T12:41:19.0000000+00:00</time></trkpt><trkpt lat="39.34735875" lon="-0.31098814"><ele>5.8</ele><time>2022-10-31T12:41:20.0000000+00:00</time></trkpt><trkpt lat="39.34735875" lon="-0.31098814"><ele>5.8</ele><time>2022-10-31T12:41:21.0000000+00:00</time></trkpt><trkpt lat="39.34735875" lon="-0.31098814"><ele>5.8</ele><time>2022-10-31T12:41:22.0000000+00:00</time></trkpt><trkpt lat="39.34735875" lon="-0.31098814"><ele>5.8</ele><time>2022-10-31T12:41:23.0000000+00:00</time></trkpt><trkpt lat="39.34735875" lon="-0.31098814"><ele>5.8</ele><time>2022-10-31T12:41:24.0000000+00:00</time></trkpt><trkpt lat="39.34735875" lon="-0.31098814"><ele>5.8</ele><time>2022-10-31T12:41:25.0000000+00:00</time></trkpt><trkpt lat="39.34735875" lon="-0.31098814"><ele>5.8</ele><time>2022-10-31T12:41:26.0000000+00:00</time></trkpt><trkpt lat="39.34735875" lon="-0.31098814"><ele>5.8</ele><time>2022-10-31T12:41:27.0000000+00:00</time></trkpt><trkpt lat="39.34735875" lon="-0.31098814"><ele>5.8</ele><time>2022-10-31T12:41:28.0000000+00:00</time></trkpt><trkpt lat="39.34735875" lon="-0.31098814"><ele>5.8</ele><time>2022-10-31T12:41:29.0000000+00:00</time></trkpt><trkpt lat="39.34735875" lon="-0.31098814"><ele>5.8</ele><time>2022-10-31T12:41:30.0000000+00:00</time></trkpt><trkpt lat="39.34735875" lon="-0.31098814"><ele>5.8</ele><time>2022-10-31T12:41:31.0000000+00:00</time></trkpt><trkpt lat="39.34735875" lon="-0.31098814"><ele>5.8</ele><time>2022-10-31T12:41:32.0000000+00:00</time></trkpt><trkpt lat="39.34735875" lon="-0.31098814"><ele>5.8</ele><time>2022-10-31T12:41:33.0000000+00:00</time></trkpt><trkpt lat="39.34735875" lon="-0.31098814"><ele>5.8</ele><time>2022-10-31T12:41:34.0000000+00:00</time></trkpt><trkpt lat="39.34735875" lon="-0.31098814"><ele>5.8</ele><time>2022-10-31T12:41:35.0000000+00:00</time></trkpt><trkpt lat="39.34735875" lon="-0.31098814"><ele>5.8</ele><time>2022-10-31T12:41:36.0000000+00:00</time></trkpt><trkpt lat="39.34735875" lon="-0.31098814"><ele>5.8</ele><time>2022-10-31T12:41:37.0000000+00:00</time></trkpt><trkpt lat="39.34735875" lon="-0.31098814"><ele>5.8</ele><time>2022-10-31T12:41:38.0000000+00:00</time></trkpt><trkpt lat="39.34735875" lon="-0.31098814"><ele>5.8</ele><time>2022-10-31T12:41:39.0000000+00:00</time></trkpt><trkpt lat="39.34735875" lon="-0.31098814"><ele>5.8</ele><time>2022-10-31T12:41:40.0000000+00:00</time></trkpt><trkpt lat="39.34735875" lon="-0.31098814"><ele>5.8</ele><time>2022-10-31T12:41:41.0000000+00:00</time></trkpt><trkpt lat="39.34735875" lon="-0.31098814"><ele>5.8</ele><time>2022-10-31T12:41:42.0000000+00:00</time></trkpt><trkpt lat="39.34735875" lon="-0.31098814"><ele>5.8</ele><time>2022-10-31T12:41:43.0000000+00:00</time></trkpt><trkpt lat="39.34735875" lon="-0.31098814"><ele>5.8</ele><time>2022-10-31T12:41:44.0000000+00:00</time></trkpt><trkpt lat="39.34735875" lon="-0.31098814"><ele>5.8</ele><time>2022-10-31T12:41:45.0000000+00:00</time></trkpt><trkpt lat="39.34735875" lon="-0.31098814"><ele>5.8</ele><time>2022-10-31T12:41:46.0000000+00:00</time></trkpt><trkpt lat="39.34735875" lon="-0.31098814"><ele>5.8</ele><time>2022-10-31T12:41:47.0000000+00:00</time></trkpt><trkpt lat="39.34735875" lon="-0.31098814"><ele>5.8</ele><time>2022-10-31T12:41:48.0000000+00:00</time></trkpt><trkpt lat="39.34735875" lon="-0.31098814"><ele>5.8</ele><time>2022-10-31T12:41:49.0000000+00:00</time></trkpt><trkpt lat="39.34735875" lon="-0.31098814"><ele>5.8</ele><time>2022-10-31T12:41:50.0000000+00:00</time></trkpt><trkpt lat="39.34735875" lon="-0.31098814"><ele>5.8</ele><time>2022-10-31T12:41:51.0000000+00:00</time></trkpt><trkpt lat="39.34735875" lon="-0.31098814"><ele>5.8</ele><time>2022-10-31T12:41:52.0000000+00:00</time></trkpt><trkpt lat="39.34735875" lon="-0.31098814"><ele>5.8</ele><time>2022-10-31T12:41:53.0000000+00:00</time></trkpt><trkpt lat="39.34735875" lon="-0.31098814"><ele>5.8</ele><time>2022-10-31T12:41:54.0000000+00:00</time></trkpt><trkpt lat="39.34735875" lon="-0.31098814"><ele>5.8</ele><time>2022-10-31T12:41:55.0000000+00:00</time></trkpt><trkpt lat="39.34735875" lon="-0.31098814"><ele>5.8</ele><time>2022-10-31T12:41:56.0000000+00:00</time></trkpt><trkpt lat="39.34735875" lon="-0.31098814"><ele>5.8</ele><time>2022-10-31T12:41:57.0000000+00:00</time></trkpt><trkpt lat="39.34735875" lon="-0.31098814"><ele>5.8</ele><time>2022-10-31T12:41:58.0000000+00:00</time></trkpt><trkpt lat="39.34735875" lon="-0.31098814"><ele>5.8</ele><time>2022-10-31T12:41:59.0000000+00:00</time></trkpt><trkpt lat="39.34735875" lon="-0.31098814"><ele>5.8</ele><time>2022-10-31T12:42:00.0000000+00:00</time></trkpt><trkpt lat="39.34735875" lon="-0.31098814"><ele>5.8</ele><time>2022-10-31T12:42:01.0000000+00:00</time></trkpt><trkpt lat="39.34735875" lon="-0.31098814"><ele>5.8</ele><time>2022-10-31T12:42:02.0000000+00:00</time></trkpt><trkpt lat="39.34735875" lon="-0.31098814"><ele>5.8</ele><time>2022-10-31T12:42:03.0000000+00:00</time></trkpt><trkpt lat="39.34735875" lon="-0.31098814"><ele>5.8</ele><time>2022-10-31T12:42:04.0000000+00:00</time></trkpt><trkpt lat="39.34735875" lon="-0.31098814"><ele>5.8</ele><time>2022-10-31T12:42:05.0000000+00:00</time></trkpt><trkpt lat="39.34735875" lon="-0.31098814"><ele>5.8</ele><time>2022-10-31T12:42:06.0000000+00:00</time></trkpt><trkpt lat="39.34735875" lon="-0.31098814"><ele>5.8</ele><time>2022-10-31T12:42:07.0000000+00:00</time></trkpt><trkpt lat="39.34735875" lon="-0.31098814"><ele>5.8</ele><time>2022-10-31T12:42:08.0000000+00:00</time></trkpt><trkpt lat="39.34735875" lon="-0.31098814"><ele>5.8</ele><time>2022-10-31T12:42:09.0000000+00:00</time></trkpt><trkpt lat="39.34735875" lon="-0.31098814"><ele>5.8</ele><time>2022-10-31T12:42:10.0000000+00:00</time></trkpt><trkpt lat="39.34735875" lon="-0.31098814"><ele>5.8</ele><time>2022-10-31T12:42:11.0000000+00:00</time></trkpt><trkpt lat="39.34735875" lon="-0.31098814"><ele>5.8</ele><time>2022-10-31T12:42:12.0000000+00:00</time></trkpt><trkpt lat="39.34735875" lon="-0.31098814"><ele>5.8</ele><time>2022-10-31T12:42:13.0000000+00:00</time></trkpt><trkpt lat="39.34735875" lon="-0.31098814"><ele>5.8</ele><time>2022-10-31T12:42:14.0000000+00:00</time></trkpt><trkpt lat="39.34735875" lon="-0.31098814"><ele>5.8</ele><time>2022-10-31T12:42:15.0000000+00:00</time></trkpt><trkpt lat="39.34736076" lon="-0.31098764"><ele>5.8</ele><time>2022-10-31T12:42:16.0000000+00:00</time></trkpt><trkpt lat="39.34736344" lon="-0.31098504"><ele>5.8</ele><time>2022-10-31T12:42:17.0000000+00:00</time></trkpt><trkpt lat="39.34736135" lon="-0.3109868"><ele>5.8</ele><time>2022-10-31T12:42:18.0000000+00:00</time></trkpt><trkpt lat="39.34735841" lon="-0.31098923"><ele>5.8</ele><time>2022-10-31T12:42:19.0000000+00:00</time></trkpt><trkpt lat="39.34735841" lon="-0.31098923"><ele>5.8</ele><time>2022-10-31T12:42:20.0000000+00:00</time></trkpt><trkpt lat="39.34735841" lon="-0.31098923"><ele>5.8</ele><time>2022-10-31T12:42:21.0000000+00:00</time></trkpt><trkpt lat="39.34735841" lon="-0.31098923"><ele>5.8</ele><time>2022-10-31T12:42:22.0000000+00:00</time></trkpt><trkpt lat="39.34735841" lon="-0.31098923"><ele>5.8</ele><time>2022-10-31T12:42:23.0000000+00:00</time></trkpt><trkpt lat="39.34735841" lon="-0.31098923"><ele>5.8</ele><time>2022-10-31T12:42:24.0000000+00:00</time></trkpt><trkpt lat="39.34736093" lon="-0.31098805"><ele>5.8</ele><time>2022-10-31T12:42:25.0000000+00:00</time></trkpt><trkpt lat="39.34736285" lon="-0.31098965"><ele>5.8</ele><time>2022-10-31T12:42:26.0000000+00:00</time></trkpt><trkpt lat="39.34736067" lon="-0.31099392"><ele>5.8</ele><time>2022-10-31T12:42:27.0000000+00:00</time></trkpt><trkpt lat="39.34735841" lon="-0.31099635"><ele>5.8</ele><time>2022-10-31T12:42:28.0000000+00:00</time></trkpt><trkpt lat="39.34735841" lon="-0.31099635"><ele>5.8</ele><time>2022-10-31T12:42:29.0000000+00:00</time></trkpt><trkpt lat="39.34735841" lon="-0.31099635"><ele>5.8</ele><time>2022-10-31T12:42:30.0000000+00:00</time></trkpt><trkpt lat="39.34735841" lon="-0.31099635"><ele>5.8</ele><time>2022-10-31T12:42:31.0000000+00:00</time></trkpt><trkpt lat="39.34735841" lon="-0.31099635"><ele>5.8</ele><time>2022-10-31T12:42:32.0000000+00:00</time></trkpt><trkpt lat="39.34735841" lon="-0.31099635"><ele>5.8</ele><time>2022-10-31T12:42:33.0000000+00:00</time></trkpt><trkpt lat="39.34735841" lon="-0.31099635"><ele>5.8</ele><time>2022-10-31T12:42:34.0000000+00:00</time></trkpt><trkpt lat="39.34735841" lon="-0.31099635"><ele>5.8</ele><time>2022-10-31T12:42:35.0000000+00:00</time></trkpt><trkpt lat="39.34735841" lon="-0.31099635"><ele>5.8</ele><time>2022-10-31T12:42:36.0000000+00:00</time></trkpt><trkpt lat="39.34735841" lon="-0.31099635"><ele>5.8</ele><time>2022-10-31T12:42:37.0000000+00:00</time></trkpt><trkpt lat="39.34735841" lon="-0.31099635"><ele>5.8</ele><time>2022-10-31T12:42:38.0000000+00:00</time></trkpt><trkpt lat="39.34735841" lon="-0.31099635"><ele>5.8</ele><time>2022-10-31T12:42:39.0000000+00:00</time></trkpt><trkpt lat="39.34735841" lon="-0.31099635"><ele>5.8</ele><time>2022-10-31T12:42:40.0000000+00:00</time></trkpt><trkpt lat="39.34735841" lon="-0.31099635"><ele>5.8</ele><time>2022-10-31T12:42:41.0000000+00:00</time></trkpt><trkpt lat="39.34735841" lon="-0.31099635"><ele>5.8</ele><time>2022-10-31T12:42:42.0000000+00:00</time></trkpt><trkpt lat="39.34735841" lon="-0.31099635"><ele>5.8</ele><time>2022-10-31T12:42:43.0000000+00:00</time></trkpt><trkpt lat="39.34735841" lon="-0.31099635"><ele>5.8</ele><time>2022-10-31T12:42:44.0000000+00:00</time></trkpt><trkpt lat="39.34735841" lon="-0.31099635"><ele>5.8</ele><time>2022-10-31T12:42:45.0000000+00:00</time></trkpt><trkpt lat="39.34735841" lon="-0.31099635"><ele>5.8</ele><time>2022-10-31T12:42:46.0000000+00:00</time></trkpt><trkpt lat="39.34735841" lon="-0.31099635"><ele>5.8</ele><time>2022-10-31T12:42:47.0000000+00:00</time></trkpt><trkpt lat="39.34735841" lon="-0.31099635"><ele>5.8</ele><time>2022-10-31T12:42:48.0000000+00:00</time></trkpt><trkpt lat="39.34735841" lon="-0.31099635"><ele>5.8</ele><time>2022-10-31T12:42:49.0000000+00:00</time></trkpt><trkpt lat="39.34735841" lon="-0.31099635"><ele>5.8</ele><time>2022-10-31T12:42:50.0000000+00:00</time></trkpt><trkpt lat="39.34736151" lon="-0.31099275"><ele>5.8</ele><time>2022-10-31T12:42:51.0000000+00:00</time></trkpt><trkpt lat="39.3473647" lon="-0.310993"><ele>5.8</ele><time>2022-10-31T12:42:52.0000000+00:00</time></trkpt><trkpt lat="39.3473647" lon="-0.310993"><ele>5.8</ele><time>2022-10-31T12:42:53.0000000+00:00</time></trkpt><trkpt lat="39.3473647" lon="-0.310993"><ele>5.8</ele><time>2022-10-31T12:42:54.0000000+00:00</time></trkpt><trkpt lat="39.3473647" lon="-0.310993"><ele>5.8</ele><time>2022-10-31T12:42:55.0000000+00:00</time></trkpt><trkpt lat="39.3473647" lon="-0.310993"><ele>5.8</ele><time>2022-10-31T12:42:56.0000000+00:00</time></trkpt><trkpt lat="39.3473647" lon="-0.310993"><ele>5.8</ele><time>2022-10-31T12:42:57.0000000+00:00</time></trkpt><trkpt lat="39.3473647" lon="-0.310993"><ele>5.8</ele><time>2022-10-31T12:42:58.0000000+00:00</time></trkpt><trkpt lat="39.3473647" lon="-0.310993"><ele>5.8</ele><time>2022-10-31T12:42:59.0000000+00:00</time></trkpt><trkpt lat="39.3473647" lon="-0.310993"><ele>5.8</ele><time>2022-10-31T12:43:00.0000000+00:00</time></trkpt><trkpt lat="39.3473647" lon="-0.310993"><ele>5.8</ele><time>2022-10-31T12:43:01.0000000+00:00</time></trkpt><trkpt lat="39.3473647" lon="-0.310993"><ele>5.8</ele><time>2022-10-31T12:43:02.0000000+00:00</time></trkpt><trkpt lat="39.3473647" lon="-0.310993"><ele>5.8</ele><time>2022-10-31T12:43:03.0000000+00:00</time></trkpt><trkpt lat="39.3473647" lon="-0.310993"><ele>5.8</ele><time>2022-10-31T12:43:04.0000000+00:00</time></trkpt><trkpt lat="39.3473647" lon="-0.310993"><ele>5.8</ele><time>2022-10-31T12:43:05.0000000+00:00</time></trkpt><trkpt lat="39.3473647" lon="-0.310993"><ele>5.8</ele><time>2022-10-31T12:43:06.0000000+00:00</time></trkpt><trkpt lat="39.3473647" lon="-0.310993"><ele>5.8</ele><time>2022-10-31T12:43:07.0000000+00:00</time></trkpt><trkpt lat="39.3473647" lon="-0.310993"><ele>5.8</ele><time>2022-10-31T12:43:08.0000000+00:00</time></trkpt><trkpt lat="39.3473647" lon="-0.310993"><ele>5.8</ele><time>2022-10-31T12:43:09.0000000+00:00</time></trkpt><trkpt lat="39.3473647" lon="-0.310993"><ele>5.8</ele><time>2022-10-31T12:43:10.0000000+00:00</time></trkpt><trkpt lat="39.3473647" lon="-0.310993"><ele>5.8</ele><time>2022-10-31T12:43:11.0000000+00:00</time></trkpt><trkpt lat="39.3473647" lon="-0.310993"><ele>5.8</ele><time>2022-10-31T12:43:12.0000000+00:00</time></trkpt><trkpt lat="39.3473647" lon="-0.310993"><ele>5.8</ele><time>2022-10-31T12:43:13.0000000+00:00</time></trkpt><trkpt lat="39.3473647" lon="-0.310993"><ele>5.8</ele><time>2022-10-31T12:43:14.0000000+00:00</time></trkpt><trkpt lat="39.3473647" lon="-0.310993"><ele>5.8</ele><time>2022-10-31T12:43:15.0000000+00:00</time></trkpt><trkpt lat="39.3473647" lon="-0.310993"><ele>5.8</ele><time>2022-10-31T12:43:16.0000000+00:00</time></trkpt><trkpt lat="39.3473647" lon="-0.310993"><ele>5.8</ele><time>2022-10-31T12:43:17.0000000+00:00</time></trkpt><trkpt lat="39.3473647" lon="-0.310993"><ele>5.8</ele><time>2022-10-31T12:43:18.0000000+00:00</time></trkpt><trkpt lat="39.3473647" lon="-0.310993"><ele>5.8</ele><time>2022-10-31T12:43:19.0000000+00:00</time></trkpt><trkpt lat="39.3473647" lon="-0.310993"><ele>5.8</ele><time>2022-10-31T12:43:20.0000000+00:00</time></trkpt><trkpt lat="39.3473647" lon="-0.310993"><ele>5.8</ele><time>2022-10-31T12:43:21.0000000+00:00</time></trkpt><trkpt lat="39.3473647" lon="-0.310993"><ele>5.8</ele><time>2022-10-31T12:43:22.0000000+00:00</time></trkpt><trkpt lat="39.3473647" lon="-0.310993"><ele>5.8</ele><time>2022-10-31T12:43:23.0000000+00:00</time></trkpt><trkpt lat="39.3473647" lon="-0.310993"><ele>5.8</ele><time>2022-10-31T12:43:24.0000000+00:00</time></trkpt><trkpt lat="39.3473647" lon="-0.310993"><ele>5.8</ele><time>2022-10-31T12:43:25.0000000+00:00</time></trkpt><trkpt lat="39.3473647" lon="-0.310993"><ele>5.8</ele><time>2022-10-31T12:43:26.0000000+00:00</time></trkpt><trkpt lat="39.3473647" lon="-0.310993"><ele>5.8</ele><time>2022-10-31T12:43:27.0000000+00:00</time></trkpt><trkpt lat="39.3473647" lon="-0.310993"><ele>5.8</ele><time>2022-10-31T12:43:28.0000000+00:00</time></trkpt><trkpt lat="39.3473647" lon="-0.310993"><ele>5.8</ele><time>2022-10-31T12:43:29.0000000+00:00</time></trkpt><trkpt lat="39.3473647" lon="-0.310993"><ele>5.8</ele><time>2022-10-31T12:43:30.0000000+00:00</time></trkpt><trkpt lat="39.3473647" lon="-0.310993"><ele>5.8</ele><time>2022-10-31T12:43:31.0000000+00:00</time></trkpt><trkpt lat="39.3473647" lon="-0.310993"><ele>5.8</ele><time>2022-10-31T12:43:32.0000000+00:00</time></trkpt><trkpt lat="39.3473647" lon="-0.310993"><ele>5.8</ele><time>2022-10-31T12:43:33.0000000+00:00</time></trkpt><trkpt lat="39.3473647" lon="-0.310993"><ele>5.8</ele><time>2022-10-31T12:43:34.0000000+00:00</time></trkpt><trkpt lat="39.3473647" lon="-0.310993"><ele>5.8</ele><time>2022-10-31T12:43:35.0000000+00:00</time></trkpt><trkpt lat="39.3473647" lon="-0.310993"><ele>5.8</ele><time>2022-10-31T12:43:36.0000000+00:00</time></trkpt><trkpt lat="39.3473647" lon="-0.310993"><ele>5.8</ele><time>2022-10-31T12:43:37.0000000+00:00</time></trkpt><trkpt lat="39.34736344" lon="-0.31099308"><ele>5.8</ele><time>2022-10-31T12:43:38.0000000+00:00</time></trkpt><trkpt lat="39.34736101" lon="-0.31099308"><ele>5.8</ele><time>2022-10-31T12:43:39.0000000+00:00</time></trkpt><trkpt lat="39.34736101" lon="-0.31099308"><ele>5.8</ele><time>2022-10-31T12:43:40.0000000+00:00</time></trkpt><trkpt lat="39.34736101" lon="-0.31099308"><ele>5.8</ele><time>2022-10-31T12:43:41.0000000+00:00</time></trkpt><trkpt lat="39.34736101" lon="-0.31099308"><ele>5.8</ele><time>2022-10-31T12:43:42.0000000+00:00</time></trkpt><trkpt lat="39.34736101" lon="-0.31099308"><ele>5.8</ele><time>2022-10-31T12:43:43.0000000+00:00</time></trkpt><trkpt lat="39.34736101" lon="-0.31099308"><ele>5.8</ele><time>2022-10-31T12:43:44.0000000+00:00</time></trkpt><trkpt lat="39.34736101" lon="-0.31099308"><ele>5.8</ele><time>2022-10-31T12:43:45.0000000+00:00</time></trkpt><trkpt lat="39.34736101" lon="-0.31099308"><ele>5.8</ele><time>2022-10-31T12:43:46.0000000+00:00</time></trkpt><trkpt lat="39.34736101" lon="-0.31099308"><ele>5.8</ele><time>2022-10-31T12:43:47.0000000+00:00</time></trkpt><trkpt lat="39.34736101" lon="-0.31099308"><ele>5.8</ele><time>2022-10-31T12:43:48.0000000+00:00</time></trkpt><trkpt lat="39.34736101" lon="-0.31099308"><ele>5.8</ele><time>2022-10-31T12:43:49.0000000+00:00</time></trkpt><trkpt lat="39.34736101" lon="-0.31099308"><ele>5.8</ele><time>2022-10-31T12:43:50.0000000+00:00</time></trkpt><trkpt lat="39.34736101" lon="-0.31099308"><ele>5.8</ele><time>2022-10-31T12:43:51.0000000+00:00</time></trkpt><trkpt lat="39.34736101" lon="-0.31099308"><ele>5.8</ele><time>2022-10-31T12:43:52.0000000+00:00</time></trkpt><trkpt lat="39.34736101" lon="-0.31099308"><ele>5.8</ele><time>2022-10-31T12:43:53.0000000+00:00</time></trkpt><trkpt lat="39.34736101" lon="-0.31099308"><ele>5.8</ele><time>2022-10-31T12:43:54.0000000+00:00</time></trkpt><trkpt lat="39.34736101" lon="-0.31099308"><ele>5.8</ele><time>2022-10-31T12:43:55.0000000+00:00</time></trkpt><trkpt lat="39.34736101" lon="-0.31099308"><ele>5.8</ele><time>2022-10-31T12:43:56.0000000+00:00</time></trkpt><trkpt lat="39.34736101" lon="-0.31099308"><ele>5.8</ele><time>2022-10-31T12:43:57.0000000+00:00</time></trkpt><trkpt lat="39.34736101" lon="-0.31099308"><ele>5.8</ele><time>2022-10-31T12:43:58.0000000+00:00</time></trkpt><trkpt lat="39.34736101" lon="-0.31099308"><ele>5.8</ele><time>2022-10-31T12:43:59.0000000+00:00</time></trkpt><trkpt lat="39.34736101" lon="-0.31099308"><ele>5.8</ele><time>2022-10-31T12:44:00.0000000+00:00</time></trkpt><trkpt lat="39.34736101" lon="-0.31099308"><ele>5.8</ele><time>2022-10-31T12:44:01.0000000+00:00</time></trkpt><trkpt lat="39.34736101" lon="-0.31099308"><ele>5.8</ele><time>2022-10-31T12:44:02.0000000+00:00</time></trkpt><trkpt lat="39.34736101" lon="-0.31099308"><ele>5.8</ele><time>2022-10-31T12:44:03.0000000+00:00</time></trkpt><trkpt lat="39.34736101" lon="-0.31099308"><ele>5.8</ele><time>2022-10-31T12:44:04.0000000+00:00</time></trkpt><trkpt lat="39.34736101" lon="-0.31099308"><ele>5.8</ele><time>2022-10-31T12:44:05.0000000+00:00</time></trkpt><trkpt lat="39.34736101" lon="-0.31099308"><ele>5.8</ele><time>2022-10-31T12:44:06.0000000+00:00</time></trkpt><trkpt lat="39.34736101" lon="-0.31099308"><ele>5.8</ele><time>2022-10-31T12:44:07.0000000+00:00</time></trkpt><trkpt lat="39.34736101" lon="-0.31099308"><ele>5.8</ele><time>2022-10-31T12:44:08.0000000+00:00</time></trkpt><trkpt lat="39.34736101" lon="-0.31099308"><ele>5.8</ele><time>2022-10-31T12:44:09.0000000+00:00</time></trkpt><trkpt lat="39.34736051" lon="-0.31099426"><ele>5.8</ele><time>2022-10-31T12:44:10.0000000+00:00</time></trkpt><trkpt lat="39.34736344" lon="-0.31099417"><ele>5.8</ele><time>2022-10-31T12:44:11.0000000+00:00</time></trkpt><trkpt lat="39.34736344" lon="-0.31099417"><ele>5.8</ele><time>2022-10-31T12:44:12.0000000+00:00</time></trkpt><trkpt lat="39.34736344" lon="-0.31099417"><ele>5.8</ele><time>2022-10-31T12:44:13.0000000+00:00</time></trkpt><trkpt lat="39.34736344" lon="-0.31099417"><ele>5.8</ele><time>2022-10-31T12:44:14.0000000+00:00</time></trkpt><trkpt lat="39.34736344" lon="-0.31099417"><ele>5.8</ele><time>2022-10-31T12:44:15.0000000+00:00</time></trkpt><trkpt lat="39.34736344" lon="-0.31099417"><ele>5.8</ele><time>2022-10-31T12:44:16.0000000+00:00</time></trkpt><trkpt lat="39.34736428" lon="-0.3109935"><ele>5.8</ele><time>2022-10-31T12:44:17.0000000+00:00</time></trkpt><trkpt lat="39.34736738" lon="-0.31099099"><ele>5.8</ele><time>2022-10-31T12:44:18.0000000+00:00</time></trkpt><trkpt lat="39.34736738" lon="-0.31099099"><ele>5.8</ele><time>2022-10-31T12:44:19.0000000+00:00</time></trkpt><trkpt lat="39.34736738" lon="-0.31099099"><ele>5.8</ele><time>2022-10-31T12:44:20.0000000+00:00</time></trkpt><trkpt lat="39.34736738" lon="-0.31099099"><ele>5.8</ele><time>2022-10-31T12:44:21.0000000+00:00</time></trkpt><trkpt lat="39.34736738" lon="-0.31099099"><ele>5.8</ele><time>2022-10-31T12:44:22.0000000+00:00</time></trkpt><trkpt lat="39.34736738" lon="-0.31099099"><ele>5.8</ele><time>2022-10-31T12:44:23.0000000+00:00</time></trkpt><trkpt lat="39.34736738" lon="-0.31099099"><ele>5.8</ele><time>2022-10-31T12:44:24.0000000+00:00</time></trkpt><trkpt lat="39.34736738" lon="-0.31099099"><ele>5.8</ele><time>2022-10-31T12:44:25.0000000+00:00</time></trkpt><trkpt lat="39.34736738" lon="-0.31099099"><ele>5.8</ele><time>2022-10-31T12:44:26.0000000+00:00</time></trkpt><trkpt lat="39.34736738" lon="-0.31099099"><ele>5.8</ele><time>2022-10-31T12:44:27.0000000+00:00</time></trkpt><trkpt lat="39.34736738" lon="-0.31099099"><ele>5.8</ele><time>2022-10-31T12:44:28.0000000+00:00</time></trkpt><trkpt lat="39.34736738" lon="-0.31099099"><ele>5.8</ele><time>2022-10-31T12:44:29.0000000+00:00</time></trkpt><trkpt lat="39.34736738" lon="-0.31099099"><ele>5.8</ele><time>2022-10-31T12:44:30.0000000+00:00</time></trkpt><trkpt lat="39.34736738" lon="-0.31099099"><ele>5.8</ele><time>2022-10-31T12:44:31.0000000+00:00</time></trkpt><trkpt lat="39.34736738" lon="-0.31099099"><ele>5.8</ele><time>2022-10-31T12:44:32.0000000+00:00</time></trkpt><trkpt lat="39.34736738" lon="-0.31099099"><ele>5.8</ele><time>2022-10-31T12:44:33.0000000+00:00</time></trkpt><trkpt lat="39.34736738" lon="-0.31099099"><ele>5.8</ele><time>2022-10-31T12:44:34.0000000+00:00</time></trkpt><trkpt lat="39.34736738" lon="-0.31099099"><ele>5.8</ele><time>2022-10-31T12:44:35.0000000+00:00</time></trkpt><trkpt lat="39.34736738" lon="-0.31099099"><ele>5.8</ele><time>2022-10-31T12:44:36.0000000+00:00</time></trkpt><trkpt lat="39.34736738" lon="-0.31099099"><ele>5.8</ele><time>2022-10-31T12:44:37.0000000+00:00</time></trkpt><trkpt lat="39.34736738" lon="-0.31099099"><ele>5.8</ele><time>2022-10-31T12:44:38.0000000+00:00</time></trkpt><trkpt lat="39.34736738" lon="-0.31099099"><ele>5.8</ele><time>2022-10-31T12:44:39.0000000+00:00</time></trkpt><trkpt lat="39.34736738" lon="-0.31099099"><ele>5.8</ele><time>2022-10-31T12:44:40.0000000+00:00</time></trkpt><trkpt lat="39.34736738" lon="-0.31099099"><ele>5.8</ele><time>2022-10-31T12:44:41.0000000+00:00</time></trkpt><trkpt lat="39.34736738" lon="-0.31099099"><ele>5.8</ele><time>2022-10-31T12:44:42.0000000+00:00</time></trkpt><trkpt lat="39.34736738" lon="-0.31099099"><ele>5.8</ele><time>2022-10-31T12:44:43.0000000+00:00</time></trkpt><trkpt lat="39.34736738" lon="-0.31099099"><ele>5.8</ele><time>2022-10-31T12:44:44.0000000+00:00</time></trkpt><trkpt lat="39.34736738" lon="-0.31099099"><ele>5.8</ele><time>2022-10-31T12:44:45.0000000+00:00</time></trkpt><trkpt lat="39.34736738" lon="-0.31099099"><ele>5.8</ele><time>2022-10-31T12:44:46.0000000+00:00</time></trkpt><trkpt lat="39.34736738" lon="-0.31099099"><ele>5.8</ele><time>2022-10-31T12:44:47.0000000+00:00</time></trkpt><trkpt lat="39.34736738" lon="-0.31099099"><ele>5.8</ele><time>2022-10-31T12:44:48.0000000+00:00</time></trkpt><trkpt lat="39.34736738" lon="-0.31099099"><ele>5.8</ele><time>2022-10-31T12:44:49.0000000+00:00</time></trkpt><trkpt lat="39.34736738" lon="-0.31099099"><ele>5.8</ele><time>2022-10-31T12:44:50.0000000+00:00</time></trkpt><trkpt lat="39.34736738" lon="-0.31099099"><ele>5.8</ele><time>2022-10-31T12:44:51.0000000+00:00</time></trkpt><trkpt lat="39.34736738" lon="-0.31099099"><ele>5.8</ele><time>2022-10-31T12:44:52.0000000+00:00</time></trkpt><trkpt lat="39.34736319" lon="-0.31098881"><ele>5.8</ele><time>2022-10-31T12:44:53.0000000+00:00</time></trkpt><trkpt lat="39.34736059" lon="-0.3109899"><ele>5.8</ele><time>2022-10-31T12:44:54.0000000+00:00</time></trkpt><trkpt lat="39.34736059" lon="-0.3109899"><ele>5.8</ele><time>2022-10-31T12:44:55.0000000+00:00</time></trkpt><trkpt lat="39.34736059" lon="-0.3109899"><ele>5.8</ele><time>2022-10-31T12:44:56.0000000+00:00</time></trkpt><trkpt lat="39.34736059" lon="-0.3109899"><ele>5.8</ele><time>2022-10-31T12:44:57.0000000+00:00</time></trkpt><trkpt lat="39.34736059" lon="-0.3109899"><ele>5.8</ele><time>2022-10-31T12:44:58.0000000+00:00</time></trkpt><trkpt lat="39.34736059" lon="-0.3109899"><ele>5.8</ele><time>2022-10-31T12:44:59.0000000+00:00</time></trkpt><trkpt lat="39.34736059" lon="-0.3109899"><ele>5.8</ele><time>2022-10-31T12:45:00.0000000+00:00</time></trkpt><trkpt lat="39.34736059" lon="-0.3109899"><ele>5.8</ele><time>2022-10-31T12:45:01.0000000+00:00</time></trkpt><trkpt lat="39.34736059" lon="-0.3109899"><ele>5.8</ele><time>2022-10-31T12:45:02.0000000+00:00</time></trkpt><trkpt lat="39.34736059" lon="-0.3109899"><ele>5.8</ele><time>2022-10-31T12:45:03.0000000+00:00</time></trkpt><trkpt lat="39.34736059" lon="-0.3109899"><ele>5.8</ele><time>2022-10-31T12:45:04.0000000+00:00</time></trkpt><trkpt lat="39.34736059" lon="-0.3109899"><ele>5.8</ele><time>2022-10-31T12:45:05.0000000+00:00</time></trkpt><trkpt lat="39.34736059" lon="-0.3109899"><ele>5.8</ele><time>2022-10-31T12:45:06.0000000+00:00</time></trkpt><trkpt lat="39.34736059" lon="-0.3109899"><ele>5.8</ele><time>2022-10-31T12:45:07.0000000+00:00</time></trkpt><trkpt lat="39.34736059" lon="-0.3109899"><ele>5.8</ele><time>2022-10-31T12:45:08.0000000+00:00</time></trkpt><trkpt lat="39.34736059" lon="-0.3109899"><ele>5.8</ele><time>2022-10-31T12:45:09.0000000+00:00</time></trkpt><trkpt lat="39.34736059" lon="-0.3109899"><ele>5.8</ele><time>2022-10-31T12:45:10.0000000+00:00</time></trkpt><trkpt lat="39.34736059" lon="-0.3109899"><ele>5.8</ele><time>2022-10-31T12:45:11.0000000+00:00</time></trkpt><trkpt lat="39.34736059" lon="-0.3109899"><ele>5.8</ele><time>2022-10-31T12:45:12.0000000+00:00</time></trkpt><trkpt lat="39.34736059" lon="-0.3109899"><ele>5.8</ele><time>2022-10-31T12:45:13.0000000+00:00</time></trkpt><trkpt lat="39.34736059" lon="-0.3109899"><ele>5.8</ele><time>2022-10-31T12:45:14.0000000+00:00</time></trkpt><trkpt lat="39.34736059" lon="-0.3109899"><ele>5.8</ele><time>2022-10-31T12:45:15.0000000+00:00</time></trkpt><trkpt lat="39.34736059" lon="-0.3109899"><ele>5.8</ele><time>2022-10-31T12:45:16.0000000+00:00</time></trkpt><trkpt lat="39.34736059" lon="-0.3109899"><ele>5.8</ele><time>2022-10-31T12:45:17.0000000+00:00</time></trkpt><trkpt lat="39.34736059" lon="-0.3109899"><ele>5.8</ele><time>2022-10-31T12:45:18.0000000+00:00</time></trkpt><trkpt lat="39.34736059" lon="-0.3109899"><ele>5.8</ele><time>2022-10-31T12:45:19.0000000+00:00</time></trkpt><trkpt lat="39.34736059" lon="-0.3109899"><ele>5.8</ele><time>2022-10-31T12:45:20.0000000+00:00</time></trkpt><trkpt lat="39.34736059" lon="-0.3109899"><ele>5.8</ele><time>2022-10-31T12:45:21.0000000+00:00</time></trkpt><trkpt lat="39.34736059" lon="-0.3109899"><ele>5.8</ele><time>2022-10-31T12:45:22.0000000+00:00</time></trkpt><trkpt lat="39.34736059" lon="-0.3109899"><ele>5.8</ele><time>2022-10-31T12:45:23.0000000+00:00</time></trkpt><trkpt lat="39.34736059" lon="-0.3109899"><ele>5.8</ele><time>2022-10-31T12:45:24.0000000+00:00</time></trkpt><trkpt lat="39.34736059" lon="-0.3109899"><ele>5.8</ele><time>2022-10-31T12:45:25.0000000+00:00</time></trkpt><trkpt lat="39.34736059" lon="-0.3109899"><ele>5.8</ele><time>2022-10-31T12:45:26.0000000+00:00</time></trkpt><trkpt lat="39.34736059" lon="-0.3109899"><ele>5.8</ele><time>2022-10-31T12:45:27.0000000+00:00</time></trkpt><trkpt lat="39.34736059" lon="-0.3109899"><ele>5.8</ele><time>2022-10-31T12:45:28.0000000+00:00</time></trkpt><trkpt lat="39.34736059" lon="-0.3109899"><ele>5.8</ele><time>2022-10-31T12:45:29.0000000+00:00</time></trkpt><trkpt lat="39.34736059" lon="-0.3109899"><ele>5.8</ele><time>2022-10-31T12:45:30.0000000+00:00</time></trkpt><trkpt lat="39.34736059" lon="-0.3109899"><ele>5.8</ele><time>2022-10-31T12:45:31.0000000+00:00</time></trkpt><trkpt lat="39.34736059" lon="-0.3109899"><ele>5.8</ele><time>2022-10-31T12:45:32.0000000+00:00</time></trkpt><trkpt lat="39.34736059" lon="-0.3109899"><ele>5.8</ele><time>2022-10-31T12:45:33.0000000+00:00</time></trkpt><trkpt lat="39.34736059" lon="-0.3109899"><ele>5.8</ele><time>2022-10-31T12:45:34.0000000+00:00</time></trkpt><trkpt lat="39.34736059" lon="-0.3109899"><ele>5.8</ele><time>2022-10-31T12:45:35.0000000+00:00</time></trkpt><trkpt lat="39.34736059" lon="-0.3109899"><ele>5.8</ele><time>2022-10-31T12:45:36.0000000+00:00</time></trkpt><trkpt lat="39.34736059" lon="-0.3109899"><ele>5.8</ele><time>2022-10-31T12:45:37.0000000+00:00</time></trkpt><trkpt lat="39.34736059" lon="-0.3109899"><ele>5.8</ele><time>2022-10-31T12:45:38.0000000+00:00</time></trkpt><trkpt lat="39.34736059" lon="-0.3109899"><ele>5.8</ele><time>2022-10-31T12:45:39.0000000+00:00</time></trkpt><trkpt lat="39.34736059" lon="-0.3109899"><ele>5.8</ele><time>2022-10-31T12:45:40.0000000+00:00</time></trkpt><trkpt lat="39.34736059" lon="-0.3109899"><ele>5.8</ele><time>2022-10-31T12:45:41.0000000+00:00</time></trkpt><trkpt lat="39.34736059" lon="-0.3109899"><ele>5.8</ele><time>2022-10-31T12:45:42.0000000+00:00</time></trkpt><trkpt lat="39.34736059" lon="-0.3109899"><ele>5.8</ele><time>2022-10-31T12:45:43.0000000+00:00</time></trkpt><trkpt lat="39.34736059" lon="-0.3109899"><ele>5.8</ele><time>2022-10-31T12:45:44.0000000+00:00</time></trkpt><trkpt lat="39.34736059" lon="-0.3109899"><ele>5.8</ele><time>2022-10-31T12:45:45.0000000+00:00</time></trkpt><trkpt lat="39.34736059" lon="-0.3109899"><ele>5.8</ele><time>2022-10-31T12:45:46.0000000+00:00</time></trkpt><trkpt lat="39.34736059" lon="-0.3109899"><ele>5.8</ele><time>2022-10-31T12:45:47.0000000+00:00</time></trkpt><trkpt lat="39.34736059" lon="-0.3109899"><ele>5.8</ele><time>2022-10-31T12:45:48.0000000+00:00</time></trkpt><trkpt lat="39.34736059" lon="-0.3109899"><ele>5.8</ele><time>2022-10-31T12:45:49.0000000+00:00</time></trkpt><trkpt lat="39.34736059" lon="-0.3109899"><ele>5.8</ele><time>2022-10-31T12:45:50.0000000+00:00</time></trkpt><trkpt lat="39.34736059" lon="-0.3109899"><ele>5.8</ele><time>2022-10-31T12:45:51.0000000+00:00</time></trkpt><trkpt lat="39.34736059" lon="-0.3109899"><ele>5.8</ele><time>2022-10-31T12:45:52.0000000+00:00</time></trkpt><trkpt lat="39.34736059" lon="-0.3109899"><ele>5.8</ele><time>2022-10-31T12:45:53.0000000+00:00</time></trkpt><trkpt lat="39.34736059" lon="-0.3109899"><ele>5.8</ele><time>2022-10-31T12:45:54.0000000+00:00</time></trkpt><trkpt lat="39.34736059" lon="-0.3109899"><ele>5.8</ele><time>2022-10-31T12:45:55.0000000+00:00</time></trkpt><trkpt lat="39.34736059" lon="-0.3109899"><ele>5.8</ele><time>2022-10-31T12:45:56.0000000+00:00</time></trkpt><trkpt lat="39.34736059" lon="-0.3109899"><ele>5.8</ele><time>2022-10-31T12:45:57.0000000+00:00</time></trkpt><trkpt lat="39.34736059" lon="-0.3109899"><ele>5.8</ele><time>2022-10-31T12:45:58.0000000+00:00</time></trkpt><trkpt lat="39.34736059" lon="-0.3109899"><ele>5.8</ele><time>2022-10-31T12:45:59.0000000+00:00</time></trkpt><trkpt lat="39.34736059" lon="-0.3109899"><ele>5.8</ele><time>2022-10-31T12:46:00.0000000+00:00</time></trkpt><trkpt lat="39.34736059" lon="-0.3109899"><ele>5.8</ele><time>2022-10-31T12:46:01.0000000+00:00</time></trkpt><trkpt lat="39.34736059" lon="-0.3109899"><ele>5.8</ele><time>2022-10-31T12:46:02.0000000+00:00</time></trkpt><trkpt lat="39.34736059" lon="-0.3109899"><ele>5.8</ele><time>2022-10-31T12:46:03.0000000+00:00</time></trkpt><trkpt lat="39.34736059" lon="-0.3109899"><ele>5.8</ele><time>2022-10-31T12:46:04.0000000+00:00</time></trkpt><trkpt lat="39.34736059" lon="-0.3109899"><ele>5.8</ele><time>2022-10-31T12:46:05.0000000+00:00</time></trkpt><trkpt lat="39.34736059" lon="-0.3109899"><ele>5.8</ele><time>2022-10-31T12:46:06.0000000+00:00</time></trkpt><trkpt lat="39.34736059" lon="-0.3109899"><ele>5.8</ele><time>2022-10-31T12:46:07.0000000+00:00</time></trkpt><trkpt lat="39.34736059" lon="-0.3109899"><ele>5.8</ele><time>2022-10-31T12:46:08.0000000+00:00</time></trkpt><trkpt lat="39.34735875" lon="-0.31098713"><ele>5.8</ele><time>2022-10-31T12:46:09.0000000+00:00</time></trkpt><trkpt lat="39.34735598" lon="-0.31098738"><ele>5.8</ele><time>2022-10-31T12:46:10.0000000+00:00</time></trkpt><trkpt lat="39.34735598" lon="-0.31098738"><ele>5.8</ele><time>2022-10-31T12:46:11.0000000+00:00</time></trkpt><trkpt lat="39.34735598" lon="-0.31098738"><ele>5.8</ele><time>2022-10-31T12:46:12.0000000+00:00</time></trkpt><trkpt lat="39.34735598" lon="-0.31098738"><ele>5.8</ele><time>2022-10-31T12:46:13.0000000+00:00</time></trkpt><trkpt lat="39.34735598" lon="-0.31098738"><ele>5.8</ele><time>2022-10-31T12:46:14.0000000+00:00</time></trkpt><trkpt lat="39.34735598" lon="-0.31098738"><ele>5.8</ele><time>2022-10-31T12:46:15.0000000+00:00</time></trkpt><trkpt lat="39.34735598" lon="-0.31098738"><ele>5.8</ele><time>2022-10-31T12:46:16.0000000+00:00</time></trkpt><trkpt lat="39.34735598" lon="-0.31098738"><ele>5.8</ele><time>2022-10-31T12:46:17.0000000+00:00</time></trkpt><trkpt lat="39.34735598" lon="-0.31098738"><ele>5.8</ele><time>2022-10-31T12:46:18.0000000+00:00</time></trkpt><trkpt lat="39.34735598" lon="-0.31098738"><ele>5.8</ele><time>2022-10-31T12:46:19.0000000+00:00</time></trkpt><trkpt lat="39.34735598" lon="-0.31098738"><ele>5.8</ele><time>2022-10-31T12:46:20.0000000+00:00</time></trkpt><trkpt lat="39.34735598" lon="-0.31098738"><ele>5.8</ele><time>2022-10-31T12:46:21.0000000+00:00</time></trkpt><trkpt lat="39.34735598" lon="-0.31098738"><ele>5.8</ele><time>2022-10-31T12:46:22.0000000+00:00</time></trkpt><trkpt lat="39.34735598" lon="-0.31098738"><ele>5.8</ele><time>2022-10-31T12:46:23.0000000+00:00</time></trkpt><trkpt lat="39.34735598" lon="-0.31098738"><ele>5.8</ele><time>2022-10-31T12:46:24.0000000+00:00</time></trkpt><trkpt lat="39.34735598" lon="-0.31098738"><ele>5.8</ele><time>2022-10-31T12:46:25.0000000+00:00</time></trkpt><trkpt lat="39.34735598" lon="-0.31098738"><ele>5.8</ele><time>2022-10-31T12:46:26.0000000+00:00</time></trkpt><trkpt lat="39.34735598" lon="-0.31098738"><ele>5.8</ele><time>2022-10-31T12:46:27.0000000+00:00</time></trkpt><trkpt lat="39.34735598" lon="-0.31098738"><ele>5.8</ele><time>2022-10-31T12:46:28.0000000+00:00</time></trkpt><trkpt lat="39.34735598" lon="-0.31098738"><ele>5.8</ele><time>2022-10-31T12:46:29.0000000+00:00</time></trkpt><trkpt lat="39.34735598" lon="-0.31098738"><ele>5.8</ele><time>2022-10-31T12:46:30.0000000+00:00</time></trkpt><trkpt lat="39.34735598" lon="-0.31098738"><ele>5.8</ele><time>2022-10-31T12:46:31.0000000+00:00</time></trkpt><trkpt lat="39.34735598" lon="-0.31098738"><ele>5.8</ele><time>2022-10-31T12:46:32.0000000+00:00</time></trkpt><trkpt lat="39.34735598" lon="-0.31098738"><ele>5.8</ele><time>2022-10-31T12:46:33.0000000+00:00</time></trkpt><trkpt lat="39.34735598" lon="-0.31098738"><ele>5.8</ele><time>2022-10-31T12:46:34.0000000+00:00</time></trkpt><trkpt lat="39.34735598" lon="-0.31098738"><ele>5.8</ele><time>2022-10-31T12:46:35.0000000+00:00</time></trkpt><trkpt lat="39.34735598" lon="-0.31098738"><ele>5.8</ele><time>2022-10-31T12:46:36.0000000+00:00</time></trkpt><trkpt lat="39.34735598" lon="-0.31098738"><ele>5.8</ele><time>2022-10-31T12:46:37.0000000+00:00</time></trkpt><trkpt lat="39.34735598" lon="-0.31098738"><ele>5.8</ele><time>2022-10-31T12:46:38.0000000+00:00</time></trkpt><trkpt lat="39.34735598" lon="-0.31098738"><ele>5.8</ele><time>2022-10-31T12:46:39.0000000+00:00</time></trkpt><trkpt lat="39.34735598" lon="-0.31098738"><ele>5.8</ele><time>2022-10-31T12:46:40.0000000+00:00</time></trkpt><trkpt lat="39.34735598" lon="-0.31098738"><ele>5.8</ele><time>2022-10-31T12:46:41.0000000+00:00</time></trkpt><trkpt lat="39.34735598" lon="-0.31098738"><ele>5.8</ele><time>2022-10-31T12:46:42.0000000+00:00</time></trkpt><trkpt lat="39.34735598" lon="-0.31098738"><ele>5.8</ele><time>2022-10-31T12:46:43.0000000+00:00</time></trkpt><trkpt lat="39.34735598" lon="-0.31098738"><ele>5.8</ele><time>2022-10-31T12:46:44.0000000+00:00</time></trkpt><trkpt lat="39.34735598" lon="-0.31098738"><ele>5.8</ele><time>2022-10-31T12:46:45.0000000+00:00</time></trkpt><trkpt lat="39.34735598" lon="-0.31098738"><ele>5.8</ele><time>2022-10-31T12:46:46.0000000+00:00</time></trkpt><trkpt lat="39.34735598" lon="-0.31098738"><ele>5.8</ele><time>2022-10-31T12:46:47.0000000+00:00</time></trkpt><trkpt lat="39.34735598" lon="-0.31098738"><ele>5.8</ele><time>2022-10-31T12:46:48.0000000+00:00</time></trkpt><trkpt lat="39.34735598" lon="-0.31098738"><ele>5.8</ele><time>2022-10-31T12:46:49.0000000+00:00</time></trkpt><trkpt lat="39.34735598" lon="-0.31098738"><ele>5.8</ele><time>2022-10-31T12:46:50.0000000+00:00</time></trkpt><trkpt lat="39.34735598" lon="-0.31098738"><ele>5.8</ele><time>2022-10-31T12:46:51.0000000+00:00</time></trkpt><trkpt lat="39.34735598" lon="-0.31098738"><ele>5.8</ele><time>2022-10-31T12:46:52.0000000+00:00</time></trkpt><trkpt lat="39.34735598" lon="-0.31098738"><ele>5.8</ele><time>2022-10-31T12:46:53.0000000+00:00</time></trkpt><trkpt lat="39.34735598" lon="-0.31098738"><ele>5.8</ele><time>2022-10-31T12:46:54.0000000+00:00</time></trkpt><trkpt lat="39.34735598" lon="-0.31098738"><ele>5.8</ele><time>2022-10-31T12:46:55.0000000+00:00</time></trkpt><trkpt lat="39.34735598" lon="-0.31098738"><ele>5.8</ele><time>2022-10-31T12:46:56.0000000+00:00</time></trkpt><trkpt lat="39.34735598" lon="-0.31098738"><ele>5.8</ele><time>2022-10-31T12:46:57.0000000+00:00</time></trkpt><trkpt lat="39.34735598" lon="-0.31098738"><ele>5.8</ele><time>2022-10-31T12:46:58.0000000+00:00</time></trkpt><trkpt lat="39.34735598" lon="-0.31098738"><ele>5.8</ele><time>2022-10-31T12:46:59.0000000+00:00</time></trkpt><trkpt lat="39.34735598" lon="-0.31098738"><ele>5.8</ele><time>2022-10-31T12:47:00.0000000+00:00</time></trkpt><trkpt lat="39.34735598" lon="-0.31098738"><ele>5.8</ele><time>2022-10-31T12:47:01.0000000+00:00</time></trkpt><trkpt lat="39.34735598" lon="-0.31098738"><ele>5.8</ele><time>2022-10-31T12:47:02.0000000+00:00</time></trkpt><trkpt lat="39.34735598" lon="-0.31098738"><ele>5.8</ele><time>2022-10-31T12:47:03.0000000+00:00</time></trkpt><trkpt lat="39.34735598" lon="-0.31098738"><ele>5.8</ele><time>2022-10-31T12:47:04.0000000+00:00</time></trkpt><trkpt lat="39.34735598" lon="-0.31098738"><ele>5.8</ele><time>2022-10-31T12:47:05.0000000+00:00</time></trkpt><trkpt lat="39.34735598" lon="-0.31098738"><ele>5.8</ele><time>2022-10-31T12:47:06.0000000+00:00</time></trkpt><trkpt lat="39.34735598" lon="-0.31098738"><ele>5.8</ele><time>2022-10-31T12:47:07.0000000+00:00</time></trkpt><trkpt lat="39.34735598" lon="-0.31098738"><ele>5.8</ele><time>2022-10-31T12:47:08.0000000+00:00</time></trkpt><trkpt lat="39.34735598" lon="-0.31098738"><ele>5.8</ele><time>2022-10-31T12:47:09.0000000+00:00</time></trkpt><trkpt lat="39.34735598" lon="-0.31098738"><ele>5.8</ele><time>2022-10-31T12:47:10.0000000+00:00</time></trkpt><trkpt lat="39.34735598" lon="-0.31098738"><ele>5.8</ele><time>2022-10-31T12:47:11.0000000+00:00</time></trkpt><trkpt lat="39.34735598" lon="-0.31098738"><ele>5.8</ele><time>2022-10-31T12:47:12.0000000+00:00</time></trkpt><trkpt lat="39.34735598" lon="-0.31098738"><ele>5.8</ele><time>2022-10-31T12:47:13.0000000+00:00</time></trkpt><trkpt lat="39.34735598" lon="-0.31098738"><ele>5.8</ele><time>2022-10-31T12:47:14.0000000+00:00</time></trkpt><trkpt lat="39.34735598" lon="-0.31098738"><ele>5.8</ele><time>2022-10-31T12:47:15.0000000+00:00</time></trkpt><trkpt lat="39.34735598" lon="-0.31098738"><ele>5.8</ele><time>2022-10-31T12:47:16.0000000+00:00</time></trkpt><trkpt lat="39.34735598" lon="-0.31098738"><ele>5.8</ele><time>2022-10-31T12:47:17.0000000+00:00</time></trkpt><trkpt lat="39.34735598" lon="-0.31098738"><ele>5.8</ele><time>2022-10-31T12:47:18.0000000+00:00</time></trkpt><trkpt lat="39.34735598" lon="-0.31098738"><ele>5.8</ele><time>2022-10-31T12:47:19.0000000+00:00</time></trkpt><trkpt lat="39.34735598" lon="-0.31098738"><ele>5.8</ele><time>2022-10-31T12:47:20.0000000+00:00</time></trkpt><trkpt lat="39.34735598" lon="-0.31098738"><ele>5.8</ele><time>2022-10-31T12:47:21.0000000+00:00</time></trkpt><trkpt lat="39.34735598" lon="-0.31098738"><ele>5.8</ele><time>2022-10-31T12:47:22.0000000+00:00</time></trkpt><trkpt lat="39.34735598" lon="-0.31098738"><ele>5.8</ele><time>2022-10-31T12:47:23.0000000+00:00</time></trkpt><trkpt lat="39.34735598" lon="-0.31098738"><ele>5.8</ele><time>2022-10-31T12:47:24.0000000+00:00</time></trkpt><trkpt lat="39.34735598" lon="-0.31098738"><ele>5.8</ele><time>2022-10-31T12:47:25.0000000+00:00</time></trkpt><trkpt lat="39.34735598" lon="-0.31098738"><ele>5.8</ele><time>2022-10-31T12:47:26.0000000+00:00</time></trkpt><trkpt lat="39.34735598" lon="-0.31098738"><ele>5.8</ele><time>2022-10-31T12:47:27.0000000+00:00</time></trkpt><trkpt lat="39.34735598" lon="-0.31098738"><ele>5.8</ele><time>2022-10-31T12:47:28.0000000+00:00</time></trkpt><trkpt lat="39.34735598" lon="-0.31098738"><ele>5.8</ele><time>2022-10-31T12:47:29.0000000+00:00</time></trkpt><trkpt lat="39.34735598" lon="-0.31098738"><ele>5.8</ele><time>2022-10-31T12:47:30.0000000+00:00</time></trkpt><trkpt lat="39.34735598" lon="-0.31098738"><ele>5.8</ele><time>2022-10-31T12:47:31.0000000+00:00</time></trkpt><trkpt lat="39.34735598" lon="-0.31098738"><ele>5.8</ele><time>2022-10-31T12:47:32.0000000+00:00</time></trkpt><trkpt lat="39.34735598" lon="-0.31098738"><ele>5.8</ele><time>2022-10-31T12:47:33.0000000+00:00</time></trkpt><trkpt lat="39.34735598" lon="-0.31098738"><ele>5.8</ele><time>2022-10-31T12:47:34.0000000+00:00</time></trkpt><trkpt lat="39.34735598" lon="-0.31098738"><ele>5.8</ele><time>2022-10-31T12:47:35.0000000+00:00</time></trkpt><trkpt lat="39.34735598" lon="-0.31098738"><ele>5.8</ele><time>2022-10-31T12:47:36.0000000+00:00</time></trkpt><trkpt lat="39.34735598" lon="-0.31098738"><ele>5.8</ele><time>2022-10-31T12:47:37.0000000+00:00</time></trkpt><trkpt lat="39.34735598" lon="-0.31098738"><ele>5.8</ele><time>2022-10-31T12:47:38.0000000+00:00</time></trkpt><trkpt lat="39.34735598" lon="-0.31098738"><ele>5.8</ele><time>2022-10-31T12:47:39.0000000+00:00</time></trkpt><trkpt lat="39.34735598" lon="-0.31098738"><ele>5.8</ele><time>2022-10-31T12:47:40.0000000+00:00</time></trkpt><trkpt lat="39.34735598" lon="-0.31098738"><ele>5.8</ele><time>2022-10-31T12:47:41.0000000+00:00</time></trkpt><trkpt lat="39.34735598" lon="-0.31098738"><ele>5.8</ele><time>2022-10-31T12:47:42.0000000+00:00</time></trkpt><trkpt lat="39.34735598" lon="-0.31098738"><ele>5.8</ele><time>2022-10-31T12:47:43.0000000+00:00</time></trkpt><trkpt lat="39.34735598" lon="-0.31098738"><ele>5.8</ele><time>2022-10-31T12:47:44.0000000+00:00</time></trkpt><trkpt lat="39.34735598" lon="-0.31098738"><ele>5.8</ele><time>2022-10-31T12:47:45.0000000+00:00</time></trkpt><trkpt lat="39.34735598" lon="-0.31098738"><ele>5.8</ele><time>2022-10-31T12:47:46.0000000+00:00</time></trkpt><trkpt lat="39.34735598" lon="-0.31098738"><ele>5.8</ele><time>2022-10-31T12:47:47.0000000+00:00</time></trkpt><trkpt lat="39.34735598" lon="-0.31098738"><ele>5.8</ele><time>2022-10-31T12:47:48.0000000+00:00</time></trkpt><trkpt lat="39.34735598" lon="-0.31098738"><ele>5.8</ele><time>2022-10-31T12:47:49.0000000+00:00</time></trkpt><trkpt lat="39.34735598" lon="-0.31098738"><ele>5.8</ele><time>2022-10-31T12:47:50.0000000+00:00</time></trkpt><trkpt lat="39.34735598" lon="-0.31098738"><ele>5.8</ele><time>2022-10-31T12:47:51.0000000+00:00</time></trkpt><trkpt lat="39.34735598" lon="-0.31098738"><ele>5.8</ele><time>2022-10-31T12:47:52.0000000+00:00</time></trkpt><trkpt lat="39.34735598" lon="-0.31098738"><ele>5.8</ele><time>2022-10-31T12:47:53.0000000+00:00</time></trkpt><trkpt lat="39.34735598" lon="-0.31098738"><ele>5.8</ele><time>2022-10-31T12:47:54.0000000+00:00</time></trkpt><trkpt lat="39.34735598" lon="-0.31098738"><ele>5.8</ele><time>2022-10-31T12:47:55.0000000+00:00</time></trkpt><trkpt lat="39.34735598" lon="-0.31098738"><ele>5.8</ele><time>2022-10-31T12:47:56.0000000+00:00</time></trkpt><trkpt lat="39.34735598" lon="-0.31098738"><ele>5.8</ele><time>2022-10-31T12:47:57.0000000+00:00</time></trkpt><trkpt lat="39.34735598" lon="-0.31098738"><ele>5.8</ele><time>2022-10-31T12:47:58.0000000+00:00</time></trkpt><trkpt lat="39.34735598" lon="-0.31098738"><ele>5.8</ele><time>2022-10-31T12:47:59.0000000+00:00</time></trkpt><trkpt lat="39.34735598" lon="-0.31098738"><ele>5.8</ele><time>2022-10-31T12:48:00.0000000+00:00</time></trkpt><trkpt lat="39.34735598" lon="-0.31098738"><ele>5.8</ele><time>2022-10-31T12:48:01.0000000+00:00</time></trkpt><trkpt lat="39.34735598" lon="-0.31098738"><ele>5.8</ele><time>2022-10-31T12:48:02.0000000+00:00</time></trkpt><trkpt lat="39.34735598" lon="-0.31098738"><ele>5.8</ele><time>2022-10-31T12:48:03.0000000+00:00</time></trkpt><trkpt lat="39.34735598" lon="-0.31098738"><ele>5.8</ele><time>2022-10-31T12:48:04.0000000+00:00</time></trkpt><trkpt lat="39.34735598" lon="-0.31098738"><ele>5.8</ele><time>2022-10-31T12:48:05.0000000+00:00</time></trkpt><trkpt lat="39.34735598" lon="-0.31098738"><ele>5.8</ele><time>2022-10-31T12:48:06.0000000+00:00</time></trkpt><trkpt lat="39.34735598" lon="-0.31098738"><ele>5.8</ele><time>2022-10-31T12:48:07.0000000+00:00</time></trkpt><trkpt lat="39.34735598" lon="-0.31098738"><ele>5.8</ele><time>2022-10-31T12:48:08.0000000+00:00</time></trkpt><trkpt lat="39.34735598" lon="-0.31098738"><ele>5.8</ele><time>2022-10-31T12:48:09.0000000+00:00</time></trkpt><trkpt lat="39.34735598" lon="-0.31098738"><ele>5.8</ele><time>2022-10-31T12:48:10.0000000+00:00</time></trkpt><trkpt lat="39.34735598" lon="-0.31098738"><ele>5.8</ele><time>2022-10-31T12:48:11.0000000+00:00</time></trkpt><trkpt lat="39.34735598" lon="-0.31098738"><ele>5.8</ele><time>2022-10-31T12:48:12.0000000+00:00</time></trkpt><trkpt lat="39.34735598" lon="-0.31098738"><ele>5.8</ele><time>2022-10-31T12:48:13.0000000+00:00</time></trkpt><trkpt lat="39.34735598" lon="-0.31098738"><ele>5.8</ele><time>2022-10-31T12:48:14.0000000+00:00</time></trkpt><trkpt lat="39.34735598" lon="-0.31098738"><ele>5.8</ele><time>2022-10-31T12:48:15.0000000+00:00</time></trkpt><trkpt lat="39.34735598" lon="-0.31098738"><ele>5.8</ele><time>2022-10-31T12:48:16.0000000+00:00</time></trkpt><trkpt lat="39.34735598" lon="-0.31098738"><ele>5.8</ele><time>2022-10-31T12:48:17.0000000+00:00</time></trkpt><trkpt lat="39.34735598" lon="-0.31098738"><ele>5.8</ele><time>2022-10-31T12:48:18.0000000+00:00</time></trkpt><trkpt lat="39.34735598" lon="-0.31098738"><ele>5.8</ele><time>2022-10-31T12:48:19.0000000+00:00</time></trkpt><trkpt lat="39.34735598" lon="-0.31098738"><ele>5.8</ele><time>2022-10-31T12:48:20.0000000+00:00</time></trkpt><trkpt lat="39.34735598" lon="-0.31098738"><ele>5.8</ele><time>2022-10-31T12:48:21.0000000+00:00</time></trkpt><trkpt lat="39.34735598" lon="-0.31098738"><ele>5.8</ele><time>2022-10-31T12:48:22.0000000+00:00</time></trkpt><trkpt lat="39.34735598" lon="-0.31098738"><ele>5.8</ele><time>2022-10-31T12:48:23.0000000+00:00</time></trkpt><trkpt lat="39.34735598" lon="-0.31098738"><ele>5.8</ele><time>2022-10-31T12:48:24.0000000+00:00</time></trkpt><trkpt lat="39.34735598" lon="-0.31098738"><ele>5.8</ele><time>2022-10-31T12:48:25.0000000+00:00</time></trkpt><trkpt lat="39.34735598" lon="-0.31098738"><ele>5.8</ele><time>2022-10-31T12:48:26.0000000+00:00</time></trkpt><trkpt lat="39.34735598" lon="-0.31098738"><ele>5.8</ele><time>2022-10-31T12:48:27.0000000+00:00</time></trkpt><trkpt lat="39.34735598" lon="-0.31098738"><ele>5.8</ele><time>2022-10-31T12:48:28.0000000+00:00</time></trkpt><trkpt lat="39.34735598" lon="-0.31098738"><ele>5.8</ele><time>2022-10-31T12:48:29.0000000+00:00</time></trkpt><trkpt lat="39.34735598" lon="-0.31098738"><ele>5.8</ele><time>2022-10-31T12:48:30.0000000+00:00</time></trkpt><trkpt lat="39.34735598" lon="-0.31098738"><ele>5.8</ele><time>2022-10-31T12:48:31.0000000+00:00</time></trkpt><trkpt lat="39.34735598" lon="-0.31098738"><ele>5.8</ele><time>2022-10-31T12:48:32.0000000+00:00</time></trkpt><trkpt lat="39.34735598" lon="-0.31098738"><ele>5.8</ele><time>2022-10-31T12:48:33.0000000+00:00</time></trkpt><trkpt lat="39.34735598" lon="-0.31098738"><ele>5.8</ele><time>2022-10-31T12:48:34.0000000+00:00</time></trkpt><trkpt lat="39.34735598" lon="-0.31098738"><ele>5.8</ele><time>2022-10-31T12:48:35.0000000+00:00</time></trkpt><trkpt lat="39.34735598" lon="-0.31098738"><ele>5.8</ele><time>2022-10-31T12:48:36.0000000+00:00</time></trkpt><trkpt lat="39.34735598" lon="-0.31098738"><ele>5.8</ele><time>2022-10-31T12:48:37.0000000+00:00</time></trkpt><trkpt lat="39.34735598" lon="-0.31098738"><ele>5.8</ele><time>2022-10-31T12:48:38.0000000+00:00</time></trkpt><trkpt lat="39.34735598" lon="-0.31098738"><ele>5.8</ele><time>2022-10-31T12:48:39.0000000+00:00</time></trkpt><trkpt lat="39.34735598" lon="-0.31098738"><ele>5.8</ele><time>2022-10-31T12:48:40.0000000+00:00</time></trkpt><trkpt lat="39.34735598" lon="-0.31098738"><ele>5.8</ele><time>2022-10-31T12:48:41.0000000+00:00</time></trkpt><trkpt lat="39.34735598" lon="-0.31098738"><ele>5.8</ele><time>2022-10-31T12:48:42.0000000+00:00</time></trkpt><trkpt lat="39.34735598" lon="-0.31098738"><ele>5.8</ele><time>2022-10-31T12:48:43.0000000+00:00</time></trkpt><trkpt lat="39.34735598" lon="-0.31098738"><ele>5.8</ele><time>2022-10-31T12:48:44.0000000+00:00</time></trkpt><trkpt lat="39.34735598" lon="-0.31098738"><ele>5.8</ele><time>2022-10-31T12:48:45.0000000+00:00</time></trkpt><trkpt lat="39.34735598" lon="-0.31098738"><ele>5.8</ele><time>2022-10-31T12:48:46.0000000+00:00</time></trkpt><trkpt lat="39.34735598" lon="-0.31098738"><ele>5.8</ele><time>2022-10-31T12:48:47.0000000+00:00</time></trkpt><trkpt lat="39.34735598" lon="-0.31098738"><ele>5.8</ele><time>2022-10-31T12:48:48.0000000+00:00</time></trkpt><trkpt lat="39.34735598" lon="-0.31098738"><ele>5.8</ele><time>2022-10-31T12:48:49.0000000+00:00</time></trkpt><trkpt lat="39.34735598" lon="-0.31098738"><ele>5.8</ele><time>2022-10-31T12:48:50.0000000+00:00</time></trkpt><trkpt lat="39.34735598" lon="-0.31098738"><ele>5.8</ele><time>2022-10-31T12:48:51.0000000+00:00</time></trkpt><trkpt lat="39.34735598" lon="-0.31098738"><ele>5.8</ele><time>2022-10-31T12:48:52.0000000+00:00</time></trkpt><trkpt lat="39.34735598" lon="-0.31098738"><ele>5.8</ele><time>2022-10-31T12:48:53.0000000+00:00</time></trkpt><trkpt lat="39.34735598" lon="-0.31098738"><ele>5.8</ele><time>2022-10-31T12:48:54.0000000+00:00</time></trkpt><trkpt lat="39.34735598" lon="-0.31098738"><ele>5.8</ele><time>2022-10-31T12:48:55.0000000+00:00</time></trkpt><trkpt lat="39.34735598" lon="-0.31098738"><ele>5.8</ele><time>2022-10-31T12:48:56.0000000+00:00</time></trkpt><trkpt lat="39.34735598" lon="-0.31098738"><ele>5.8</ele><time>2022-10-31T12:48:57.0000000+00:00</time></trkpt><trkpt lat="39.34735598" lon="-0.31098738"><ele>5.8</ele><time>2022-10-31T12:48:58.0000000+00:00</time></trkpt><trkpt lat="39.34735598" lon="-0.31098738"><ele>5.8</ele><time>2022-10-31T12:48:59.0000000+00:00</time></trkpt><trkpt lat="39.34735598" lon="-0.31098738"><ele>5.8</ele><time>2022-10-31T12:49:00.0000000+00:00</time></trkpt><trkpt lat="39.34735598" lon="-0.31098738"><ele>5.8</ele><time>2022-10-31T12:49:01.0000000+00:00</time></trkpt><trkpt lat="39.34735598" lon="-0.31098738"><ele>5.8</ele><time>2022-10-31T12:49:02.0000000+00:00</time></trkpt><trkpt lat="39.34735598" lon="-0.31098738"><ele>5.8</ele><time>2022-10-31T12:49:03.0000000+00:00</time></trkpt><trkpt lat="39.34735598" lon="-0.31098738"><ele>5.8</ele><time>2022-10-31T12:49:04.0000000+00:00</time></trkpt><trkpt lat="39.34735598" lon="-0.31098738"><ele>5.8</ele><time>2022-10-31T12:49:05.0000000+00:00</time></trkpt><trkpt lat="39.34735598" lon="-0.31098738"><ele>5.8</ele><time>2022-10-31T12:49:06.0000000+00:00</time></trkpt><trkpt lat="39.34735598" lon="-0.31098738"><ele>5.8</ele><time>2022-10-31T12:49:07.0000000+00:00</time></trkpt><trkpt lat="39.34735598" lon="-0.31098738"><ele>5.8</ele><time>2022-10-31T12:49:08.0000000+00:00</time></trkpt><trkpt lat="39.34735598" lon="-0.31098738"><ele>5.8</ele><time>2022-10-31T12:49:09.0000000+00:00</time></trkpt><trkpt lat="39.34735598" lon="-0.31098738"><ele>5.8</ele><time>2022-10-31T12:49:10.0000000+00:00</time></trkpt><trkpt lat="39.34735598" lon="-0.31098738"><ele>5.8</ele><time>2022-10-31T12:49:11.0000000+00:00</time></trkpt><trkpt lat="39.34735598" lon="-0.31098738"><ele>5.8</ele><time>2022-10-31T12:49:12.0000000+00:00</time></trkpt><trkpt lat="39.34735598" lon="-0.31098738"><ele>5.8</ele><time>2022-10-31T12:49:13.0000000+00:00</time></trkpt><trkpt lat="39.34735598" lon="-0.31098738"><ele>5.8</ele><time>2022-10-31T12:49:14.0000000+00:00</time></trkpt><trkpt lat="39.34735598" lon="-0.31098738"><ele>5.8</ele><time>2022-10-31T12:49:15.0000000+00:00</time></trkpt><trkpt lat="39.34735598" lon="-0.31098738"><ele>5.8</ele><time>2022-10-31T12:49:16.0000000+00:00</time></trkpt><trkpt lat="39.34735598" lon="-0.31098738"><ele>5.8</ele><time>2022-10-31T12:49:17.0000000+00:00</time></trkpt><trkpt lat="39.34735598" lon="-0.31098738"><ele>5.8</ele><time>2022-10-31T12:49:18.0000000+00:00</time></trkpt><trkpt lat="39.34735598" lon="-0.31098738"><ele>5.8</ele><time>2022-10-31T12:49:19.0000000+00:00</time></trkpt><trkpt lat="39.34735598" lon="-0.31098738"><ele>5.8</ele><time>2022-10-31T12:49:20.0000000+00:00</time></trkpt><trkpt lat="39.34735598" lon="-0.31098738"><ele>5.8</ele><time>2022-10-31T12:49:21.0000000+00:00</time></trkpt><trkpt lat="39.34735598" lon="-0.31098738"><ele>5.8</ele><time>2022-10-31T12:49:22.0000000+00:00</time></trkpt><trkpt lat="39.34735598" lon="-0.31098738"><ele>5.8</ele><time>2022-10-31T12:49:23.0000000+00:00</time></trkpt><trkpt lat="39.34735598" lon="-0.31098738"><ele>5.8</ele><time>2022-10-31T12:49:24.0000000+00:00</time></trkpt><trkpt lat="39.34735598" lon="-0.31098738"><ele>5.8</ele><time>2022-10-31T12:49:25.0000000+00:00</time></trkpt><trkpt lat="39.34735598" lon="-0.31098738"><ele>5.8</ele><time>2022-10-31T12:49:26.0000000+00:00</time></trkpt><trkpt lat="39.34735598" lon="-0.31098738"><ele>5.8</ele><time>2022-10-31T12:49:27.0000000+00:00</time></trkpt><trkpt lat="39.34735598" lon="-0.31098738"><ele>5.8</ele><time>2022-10-31T12:49:28.0000000+00:00</time></trkpt><trkpt lat="39.34735598" lon="-0.31098738"><ele>5.8</ele><time>2022-10-31T12:49:29.0000000+00:00</time></trkpt><trkpt lat="39.34735598" lon="-0.31098738"><ele>5.8</ele><time>2022-10-31T12:49:30.0000000+00:00</time></trkpt><trkpt lat="39.34735598" lon="-0.31098738"><ele>5.8</ele><time>2022-10-31T12:49:31.0000000+00:00</time></trkpt><trkpt lat="39.34735598" lon="-0.31098738"><ele>5.8</ele><time>2022-10-31T12:49:32.0000000+00:00</time></trkpt><trkpt lat="39.34735598" lon="-0.31098738"><ele>5.8</ele><time>2022-10-31T12:49:33.0000000+00:00</time></trkpt><trkpt lat="39.34735598" lon="-0.31098738"><ele>5.8</ele><time>2022-10-31T12:49:34.0000000+00:00</time></trkpt><trkpt lat="39.34735598" lon="-0.31098738"><ele>5.8</ele><time>2022-10-31T12:49:35.0000000+00:00</time></trkpt><trkpt lat="39.34735598" lon="-0.31098738"><ele>5.8</ele><time>2022-10-31T12:49:36.0000000+00:00</time></trkpt><trkpt lat="39.34735598" lon="-0.31098738"><ele>5.8</ele><time>2022-10-31T12:49:37.0000000+00:00</time></trkpt><trkpt lat="39.34735598" lon="-0.31098738"><ele>5.8</ele><time>2022-10-31T12:49:38.0000000+00:00</time></trkpt><trkpt lat="39.34735598" lon="-0.31098738"><ele>5.8</ele><time>2022-10-31T12:49:39.0000000+00:00</time></trkpt><trkpt lat="39.34735598" lon="-0.31098738"><ele>5.8</ele><time>2022-10-31T12:49:40.0000000+00:00</time></trkpt><trkpt lat="39.34735598" lon="-0.31098738"><ele>5.8</ele><time>2022-10-31T12:49:41.0000000+00:00</time></trkpt><trkpt lat="39.34735598" lon="-0.31098738"><ele>5.8</ele><time>2022-10-31T12:49:42.0000000+00:00</time></trkpt><trkpt lat="39.34735598" lon="-0.31098738"><ele>5.8</ele><time>2022-10-31T12:49:43.0000000+00:00</time></trkpt><trkpt lat="39.34735598" lon="-0.31098738"><ele>5.8</ele><time>2022-10-31T12:49:44.0000000+00:00</time></trkpt><trkpt lat="39.34735598" lon="-0.31098738"><ele>5.8</ele><time>2022-10-31T12:49:45.0000000+00:00</time></trkpt><trkpt lat="39.34735598" lon="-0.31098738"><ele>5.8</ele><time>2022-10-31T12:49:46.0000000+00:00</time></trkpt><trkpt lat="39.34735598" lon="-0.31098738"><ele>5.8</ele><time>2022-10-31T12:49:47.0000000+00:00</time></trkpt><trkpt lat="39.34735598" lon="-0.31098738"><ele>5.8</ele><time>2022-10-31T12:49:48.0000000+00:00</time></trkpt><trkpt lat="39.34735598" lon="-0.31098738"><ele>5.8</ele><time>2022-10-31T12:49:49.0000000+00:00</time></trkpt><trkpt lat="39.34735598" lon="-0.31098738"><ele>5.8</ele><time>2022-10-31T12:49:50.0000000+00:00</time></trkpt><trkpt lat="39.34735598" lon="-0.31098738"><ele>5.8</ele><time>2022-10-31T12:49:51.0000000+00:00</time></trkpt><trkpt lat="39.34735598" lon="-0.31098738"><ele>5.8</ele><time>2022-10-31T12:49:52.0000000+00:00</time></trkpt><trkpt lat="39.34735598" lon="-0.31098738"><ele>5.8</ele><time>2022-10-31T12:49:53.0000000+00:00</time></trkpt><trkpt lat="39.34735598" lon="-0.31098738"><ele>5.8</ele><time>2022-10-31T12:49:54.0000000+00:00</time></trkpt><trkpt lat="39.34735598" lon="-0.31098738"><ele>5.8</ele><time>2022-10-31T12:49:55.0000000+00:00</time></trkpt><trkpt lat="39.34735598" lon="-0.31098738"><ele>5.8</ele><time>2022-10-31T12:49:56.0000000+00:00</time></trkpt><trkpt lat="39.34735598" lon="-0.31098738"><ele>5.8</ele><time>2022-10-31T12:49:57.0000000+00:00</time></trkpt><trkpt lat="39.34735598" lon="-0.31098738"><ele>5.8</ele><time>2022-10-31T12:49:58.0000000+00:00</time></trkpt><trkpt lat="39.34735598" lon="-0.31098738"><ele>5.8</ele><time>2022-10-31T12:49:59.0000000+00:00</time></trkpt><trkpt lat="39.34735598" lon="-0.31098738"><ele>5.8</ele><time>2022-10-31T12:50:00.0000000+00:00</time></trkpt><trkpt lat="39.34735598" lon="-0.31098738"><ele>5.8</ele><time>2022-10-31T12:50:01.0000000+00:00</time></trkpt><trkpt lat="39.34735598" lon="-0.31098738"><ele>5.8</ele><time>2022-10-31T12:50:02.0000000+00:00</time></trkpt><trkpt lat="39.34735598" lon="-0.31098738"><ele>5.8</ele><time>2022-10-31T12:50:03.0000000+00:00</time></trkpt><trkpt lat="39.34735598" lon="-0.31098738"><ele>5.8</ele><time>2022-10-31T12:50:04.0000000+00:00</time></trkpt><trkpt lat="39.34735598" lon="-0.31098738"><ele>5.8</ele><time>2022-10-31T12:50:05.0000000+00:00</time></trkpt><trkpt lat="39.34735598" lon="-0.31098738"><ele>5.8</ele><time>2022-10-31T12:50:06.0000000+00:00</time></trkpt><trkpt lat="39.34735598" lon="-0.31098738"><ele>5.8</ele><time>2022-10-31T12:50:07.0000000+00:00</time></trkpt><trkpt lat="39.34735598" lon="-0.31098738"><ele>5.8</ele><time>2022-10-31T12:50:08.0000000+00:00</time></trkpt><trkpt lat="39.34735598" lon="-0.31098738"><ele>5.8</ele><time>2022-10-31T12:50:09.0000000+00:00</time></trkpt><trkpt lat="39.34735598" lon="-0.31098738"><ele>5.8</ele><time>2022-10-31T12:50:10.0000000+00:00</time></trkpt><trkpt lat="39.34735598" lon="-0.31098738"><ele>5.8</ele><time>2022-10-31T12:50:11.0000000+00:00</time></trkpt><trkpt lat="39.34735598" lon="-0.31098738"><ele>5.8</ele><time>2022-10-31T12:50:12.0000000+00:00</time></trkpt><trkpt lat="39.34735598" lon="-0.31098738"><ele>5.8</ele><time>2022-10-31T12:50:13.0000000+00:00</time></trkpt><trkpt lat="39.34735598" lon="-0.31098738"><ele>5.8</ele><time>2022-10-31T12:50:14.0000000+00:00</time></trkpt><trkpt lat="39.34735598" lon="-0.31098738"><ele>5.8</ele><time>2022-10-31T12:50:15.0000000+00:00</time></trkpt><trkpt lat="39.34735598" lon="-0.31098738"><ele>5.8</ele><time>2022-10-31T12:50:16.0000000+00:00</time></trkpt><trkpt lat="39.34735598" lon="-0.31098738"><ele>5.8</ele><time>2022-10-31T12:50:17.0000000+00:00</time></trkpt><trkpt lat="39.34735598" lon="-0.31098738"><ele>5.8</ele><time>2022-10-31T12:50:18.0000000+00:00</time></trkpt><trkpt lat="39.34735598" lon="-0.31098738"><ele>5.8</ele><time>2022-10-31T12:50:19.0000000+00:00</time></trkpt><trkpt lat="39.34735598" lon="-0.31098738"><ele>5.8</ele><time>2022-10-31T12:50:20.0000000+00:00</time></trkpt><trkpt lat="39.34735598" lon="-0.31098738"><ele>5.8</ele><time>2022-10-31T12:50:21.0000000+00:00</time></trkpt><trkpt lat="39.34735598" lon="-0.31098738"><ele>5.8</ele><time>2022-10-31T12:50:22.0000000+00:00</time></trkpt><trkpt lat="39.34735598" lon="-0.31098738"><ele>5.8</ele><time>2022-10-31T12:50:23.0000000+00:00</time></trkpt><trkpt lat="39.34735598" lon="-0.31098738"><ele>5.8</ele><time>2022-10-31T12:50:24.0000000+00:00</time></trkpt><trkpt lat="39.34735598" lon="-0.31098738"><ele>5.8</ele><time>2022-10-31T12:50:25.0000000+00:00</time></trkpt><trkpt lat="39.34735598" lon="-0.31098738"><ele>5.8</ele><time>2022-10-31T12:50:26.0000000+00:00</time></trkpt><trkpt lat="39.34735598" lon="-0.31098738"><ele>5.8</ele><time>2022-10-31T12:50:27.0000000+00:00</time></trkpt><trkpt lat="39.34735598" lon="-0.31098738"><ele>5.8</ele><time>2022-10-31T12:50:28.0000000+00:00</time></trkpt><trkpt lat="39.34735598" lon="-0.31098738"><ele>5.8</ele><time>2022-10-31T12:50:29.0000000+00:00</time></trkpt><trkpt lat="39.34735598" lon="-0.31098738"><ele>5.8</ele><time>2022-10-31T12:50:30.0000000+00:00</time></trkpt><trkpt lat="39.34735598" lon="-0.31098738"><ele>5.8</ele><time>2022-10-31T12:50:31.0000000+00:00</time></trkpt><trkpt lat="39.34735598" lon="-0.31098738"><ele>5.8</ele><time>2022-10-31T12:50:32.0000000+00:00</time></trkpt><trkpt lat="39.34735598" lon="-0.31098738"><ele>5.8</ele><time>2022-10-31T12:50:33.0000000+00:00</time></trkpt><trkpt lat="39.34735598" lon="-0.31098738"><ele>5.8</ele><time>2022-10-31T12:50:34.0000000+00:00</time></trkpt><trkpt lat="39.34735598" lon="-0.31098738"><ele>5.8</ele><time>2022-10-31T12:50:35.0000000+00:00</time></trkpt><trkpt lat="39.34735598" lon="-0.31098738"><ele>5.8</ele><time>2022-10-31T12:50:36.0000000+00:00</time></trkpt><trkpt lat="39.34735598" lon="-0.31098738"><ele>5.8</ele><time>2022-10-31T12:50:37.0000000+00:00</time></trkpt><trkpt lat="39.34735598" lon="-0.31098738"><ele>5.8</ele><time>2022-10-31T12:50:38.0000000+00:00</time></trkpt><trkpt lat="39.34735598" lon="-0.31098738"><ele>5.8</ele><time>2022-10-31T12:50:39.0000000+00:00</time></trkpt><trkpt lat="39.34735598" lon="-0.31098738"><ele>5.8</ele><time>2022-10-31T12:50:40.0000000+00:00</time></trkpt><trkpt lat="39.34735598" lon="-0.31098738"><ele>5.8</ele><time>2022-10-31T12:50:41.0000000+00:00</time></trkpt><trkpt lat="39.34735598" lon="-0.31098738"><ele>5.8</ele><time>2022-10-31T12:50:42.0000000+00:00</time></trkpt><trkpt lat="39.34735598" lon="-0.31098738"><ele>5.8</ele><time>2022-10-31T12:50:43.0000000+00:00</time></trkpt><trkpt lat="39.34735598" lon="-0.31098738"><ele>5.8</ele><time>2022-10-31T12:50:44.0000000+00:00</time></trkpt><trkpt lat="39.34735598" lon="-0.31098738"><ele>5.8</ele><time>2022-10-31T12:50:45.0000000+00:00</time></trkpt><trkpt lat="39.34735598" lon="-0.31098738"><ele>5.8</ele><time>2022-10-31T12:50:46.0000000+00:00</time></trkpt><trkpt lat="39.34735598" lon="-0.31098738"><ele>5.8</ele><time>2022-10-31T12:50:47.0000000+00:00</time></trkpt><trkpt lat="39.34735598" lon="-0.31098738"><ele>5.8</ele><time>2022-10-31T12:50:48.0000000+00:00</time></trkpt><trkpt lat="39.34735598" lon="-0.31098738"><ele>5.8</ele><time>2022-10-31T12:50:49.0000000+00:00</time></trkpt><trkpt lat="39.34735598" lon="-0.31098738"><ele>5.8</ele><time>2022-10-31T12:50:50.0000000+00:00</time></trkpt><trkpt lat="39.34735598" lon="-0.31098738"><ele>5.8</ele><time>2022-10-31T12:50:51.0000000+00:00</time></trkpt><trkpt lat="39.34735598" lon="-0.31098738"><ele>5.8</ele><time>2022-10-31T12:50:52.0000000+00:00</time></trkpt><trkpt lat="39.34735598" lon="-0.31098738"><ele>5.8</ele><time>2022-10-31T12:50:53.0000000+00:00</time></trkpt><trkpt lat="39.34735598" lon="-0.31098738"><ele>5.8</ele><time>2022-10-31T12:50:54.0000000+00:00</time></trkpt><trkpt lat="39.34735598" lon="-0.31098738"><ele>5.8</ele><time>2022-10-31T12:50:55.0000000+00:00</time></trkpt><trkpt lat="39.34735598" lon="-0.31098738"><ele>5.8</ele><time>2022-10-31T12:50:56.0000000+00:00</time></trkpt><trkpt lat="39.34735598" lon="-0.31098738"><ele>5.8</ele><time>2022-10-31T12:50:57.0000000+00:00</time></trkpt><trkpt lat="39.34735598" lon="-0.31098738"><ele>5.8</ele><time>2022-10-31T12:50:58.0000000+00:00</time></trkpt><trkpt lat="39.34735598" lon="-0.31098738"><ele>5.8</ele><time>2022-10-31T12:50:59.0000000+00:00</time></trkpt><trkpt lat="39.34735598" lon="-0.31098738"><ele>5.8</ele><time>2022-10-31T12:51:00.0000000+00:00</time></trkpt><trkpt lat="39.34735598" lon="-0.31098738"><ele>5.8</ele><time>2022-10-31T12:51:01.0000000+00:00</time></trkpt><trkpt lat="39.34735598" lon="-0.31098738"><ele>5.8</ele><time>2022-10-31T12:51:02.0000000+00:00</time></trkpt><trkpt lat="39.34735598" lon="-0.31098738"><ele>5.8</ele><time>2022-10-31T12:51:03.0000000+00:00</time></trkpt><trkpt lat="39.34735598" lon="-0.31098738"><ele>5.8</ele><time>2022-10-31T12:51:04.0000000+00:00</time></trkpt><trkpt lat="39.34735598" lon="-0.31098738"><ele>5.8</ele><time>2022-10-31T12:51:05.0000000+00:00</time></trkpt><trkpt lat="39.34735598" lon="-0.31098738"><ele>5.8</ele><time>2022-10-31T12:51:06.0000000+00:00</time></trkpt><trkpt lat="39.34735598" lon="-0.31098738"><ele>5.8</ele><time>2022-10-31T12:51:07.0000000+00:00</time></trkpt><trkpt lat="39.34735598" lon="-0.31098738"><ele>5.8</ele><time>2022-10-31T12:51:08.0000000+00:00</time></trkpt><trkpt lat="39.34735598" lon="-0.31098738"><ele>5.8</ele><time>2022-10-31T12:51:09.0000000+00:00</time></trkpt><trkpt lat="39.34735598" lon="-0.31098738"><ele>5.8</ele><time>2022-10-31T12:51:10.0000000+00:00</time></trkpt><trkpt lat="39.34735598" lon="-0.31098738"><ele>5.8</ele><time>2022-10-31T12:51:11.0000000+00:00</time></trkpt><trkpt lat="39.34735598" lon="-0.31098738"><ele>5.8</ele><time>2022-10-31T12:51:12.0000000+00:00</time></trkpt><trkpt lat="39.34735598" lon="-0.31098738"><ele>5.8</ele><time>2022-10-31T12:51:13.0000000+00:00</time></trkpt><trkpt lat="39.34735598" lon="-0.31098738"><ele>5.8</ele><time>2022-10-31T12:51:14.0000000+00:00</time></trkpt><trkpt lat="39.34735598" lon="-0.31098738"><ele>5.8</ele><time>2022-10-31T12:51:15.0000000+00:00</time></trkpt><trkpt lat="39.34735598" lon="-0.31098738"><ele>5.8</ele><time>2022-10-31T12:51:16.0000000+00:00</time></trkpt><trkpt lat="39.34735598" lon="-0.31098738"><ele>5.8</ele><time>2022-10-31T12:51:17.0000000+00:00</time></trkpt><trkpt lat="39.34735598" lon="-0.31098738"><ele>5.8</ele><time>2022-10-31T12:51:18.0000000+00:00</time></trkpt><trkpt lat="39.34735598" lon="-0.31098738"><ele>5.8</ele><time>2022-10-31T12:51:19.0000000+00:00</time></trkpt><trkpt lat="39.34735598" lon="-0.31098738"><ele>5.8</ele><time>2022-10-31T12:51:20.0000000+00:00</time></trkpt><trkpt lat="39.34735598" lon="-0.31098738"><ele>5.8</ele><time>2022-10-31T12:51:21.0000000+00:00</time></trkpt><trkpt lat="39.34735598" lon="-0.31098738"><ele>5.8</ele><time>2022-10-31T12:51:22.0000000+00:00</time></trkpt><trkpt lat="39.34735598" lon="-0.31098738"><ele>5.8</ele><time>2022-10-31T12:51:23.0000000+00:00</time></trkpt><trkpt lat="39.34735598" lon="-0.31098738"><ele>5.8</ele><time>2022-10-31T12:51:24.0000000+00:00</time></trkpt><trkpt lat="39.34735598" lon="-0.31098738"><ele>5.8</ele><time>2022-10-31T12:51:25.0000000+00:00</time></trkpt><trkpt lat="39.34735598" lon="-0.31098738"><ele>5.8</ele><time>2022-10-31T12:51:26.0000000+00:00</time></trkpt><trkpt lat="39.34735598" lon="-0.31098738"><ele>5.8</ele><time>2022-10-31T12:51:27.0000000+00:00</time></trkpt><trkpt lat="39.3473569" lon="-0.31098889"><ele>5.8</ele><time>2022-10-31T12:51:28.0000000+00:00</time></trkpt><trkpt lat="39.34735933" lon="-0.3109878"><ele>5.8</ele><time>2022-10-31T12:51:29.0000000+00:00</time></trkpt><trkpt lat="39.34735933" lon="-0.3109878"><ele>5.8</ele><time>2022-10-31T12:51:30.0000000+00:00</time></trkpt><trkpt lat="39.34735933" lon="-0.3109878"><ele>5.8</ele><time>2022-10-31T12:51:31.0000000+00:00</time></trkpt><trkpt lat="39.34735933" lon="-0.3109878"><ele>5.8</ele><time>2022-10-31T12:51:32.0000000+00:00</time></trkpt><trkpt lat="39.34735933" lon="-0.3109878"><ele>5.8</ele><time>2022-10-31T12:51:33.0000000+00:00</time></trkpt><trkpt lat="39.34735933" lon="-0.3109878"><ele>5.8</ele><time>2022-10-31T12:51:34.0000000+00:00</time></trkpt><trkpt lat="39.34735933" lon="-0.3109878"><ele>5.8</ele><time>2022-10-31T12:51:35.0000000+00:00</time></trkpt><trkpt lat="39.34735933" lon="-0.3109878"><ele>5.8</ele><time>2022-10-31T12:51:36.0000000+00:00</time></trkpt><trkpt lat="39.34735933" lon="-0.3109878"><ele>5.8</ele><time>2022-10-31T12:51:37.0000000+00:00</time></trkpt><trkpt lat="39.34735933" lon="-0.3109878"><ele>5.8</ele><time>2022-10-31T12:51:38.0000000+00:00</time></trkpt><trkpt lat="39.34735933" lon="-0.3109878"><ele>5.8</ele><time>2022-10-31T12:51:39.0000000+00:00</time></trkpt><trkpt lat="39.34735933" lon="-0.3109878"><ele>5.8</ele><time>2022-10-31T12:51:40.0000000+00:00</time></trkpt><trkpt lat="39.34735933" lon="-0.3109878"><ele>5.8</ele><time>2022-10-31T12:51:41.0000000+00:00</time></trkpt><trkpt lat="39.34735933" lon="-0.3109878"><ele>5.8</ele><time>2022-10-31T12:51:42.0000000+00:00</time></trkpt><trkpt lat="39.34735933" lon="-0.3109878"><ele>5.8</ele><time>2022-10-31T12:51:43.0000000+00:00</time></trkpt><trkpt lat="39.34735933" lon="-0.3109878"><ele>5.8</ele><time>2022-10-31T12:51:44.0000000+00:00</time></trkpt><trkpt lat="39.34735933" lon="-0.3109878"><ele>5.8</ele><time>2022-10-31T12:51:45.0000000+00:00</time></trkpt><trkpt lat="39.34735933" lon="-0.3109878"><ele>5.8</ele><time>2022-10-31T12:51:46.0000000+00:00</time></trkpt><trkpt lat="39.34735933" lon="-0.3109878"><ele>5.8</ele><time>2022-10-31T12:51:47.0000000+00:00</time></trkpt><trkpt lat="39.34735933" lon="-0.3109878"><ele>5.8</ele><time>2022-10-31T12:51:48.0000000+00:00</time></trkpt><trkpt lat="39.34735933" lon="-0.3109878"><ele>5.8</ele><time>2022-10-31T12:51:49.0000000+00:00</time></trkpt><trkpt lat="39.34735933" lon="-0.3109878"><ele>5.8</ele><time>2022-10-31T12:51:50.0000000+00:00</time></trkpt><trkpt lat="39.34735933" lon="-0.3109878"><ele>5.8</ele><time>2022-10-31T12:51:51.0000000+00:00</time></trkpt><trkpt lat="39.34735933" lon="-0.3109878"><ele>5.8</ele><time>2022-10-31T12:51:52.0000000+00:00</time></trkpt><trkpt lat="39.34735933" lon="-0.3109878"><ele>5.8</ele><time>2022-10-31T12:51:53.0000000+00:00</time></trkpt><trkpt lat="39.34735933" lon="-0.3109878"><ele>5.8</ele><time>2022-10-31T12:51:54.0000000+00:00</time></trkpt><trkpt lat="39.34735933" lon="-0.3109878"><ele>5.8</ele><time>2022-10-31T12:51:55.0000000+00:00</time></trkpt><trkpt lat="39.34735933" lon="-0.3109878"><ele>5.8</ele><time>2022-10-31T12:51:56.0000000+00:00</time></trkpt><trkpt lat="39.34735933" lon="-0.3109878"><ele>5.8</ele><time>2022-10-31T12:51:57.0000000+00:00</time></trkpt><trkpt lat="39.34735933" lon="-0.3109878"><ele>5.8</ele><time>2022-10-31T12:51:58.0000000+00:00</time></trkpt><trkpt lat="39.34735933" lon="-0.3109878"><ele>5.8</ele><time>2022-10-31T12:51:59.0000000+00:00</time></trkpt><trkpt lat="39.34735933" lon="-0.3109878"><ele>5.8</ele><time>2022-10-31T12:52:00.0000000+00:00</time></trkpt><trkpt lat="39.34735933" lon="-0.3109878"><ele>5.8</ele><time>2022-10-31T12:52:01.0000000+00:00</time></trkpt><trkpt lat="39.34735933" lon="-0.3109878"><ele>5.8</ele><time>2022-10-31T12:52:02.0000000+00:00</time></trkpt><trkpt lat="39.34735933" lon="-0.3109878"><ele>5.8</ele><time>2022-10-31T12:52:03.0000000+00:00</time></trkpt><trkpt lat="39.34735933" lon="-0.3109878"><ele>5.8</ele><time>2022-10-31T12:52:04.0000000+00:00</time></trkpt><trkpt lat="39.34735933" lon="-0.3109878"><ele>5.8</ele><time>2022-10-31T12:52:05.0000000+00:00</time></trkpt><trkpt lat="39.34735933" lon="-0.3109878"><ele>5.8</ele><time>2022-10-31T12:52:06.0000000+00:00</time></trkpt><trkpt lat="39.34735933" lon="-0.3109878"><ele>5.8</ele><time>2022-10-31T12:52:07.0000000+00:00</time></trkpt><trkpt lat="39.34735933" lon="-0.3109878"><ele>5.8</ele><time>2022-10-31T12:52:08.0000000+00:00</time></trkpt><trkpt lat="39.34735933" lon="-0.3109878"><ele>5.8</ele><time>2022-10-31T12:52:09.0000000+00:00</time></trkpt><trkpt lat="39.34735933" lon="-0.3109878"><ele>5.8</ele><time>2022-10-31T12:52:10.0000000+00:00</time></trkpt><trkpt lat="39.34735933" lon="-0.3109878"><ele>5.8</ele><time>2022-10-31T12:52:11.0000000+00:00</time></trkpt><trkpt lat="39.34735933" lon="-0.3109878"><ele>5.8</ele><time>2022-10-31T12:52:12.0000000+00:00</time></trkpt><trkpt lat="39.34735933" lon="-0.3109878"><ele>5.8</ele><time>2022-10-31T12:52:13.0000000+00:00</time></trkpt><trkpt lat="39.34735933" lon="-0.3109878"><ele>5.8</ele><time>2022-10-31T12:52:14.0000000+00:00</time></trkpt><trkpt lat="39.34735933" lon="-0.3109878"><ele>5.8</ele><time>2022-10-31T12:52:15.0000000+00:00</time></trkpt><trkpt lat="39.34735933" lon="-0.3109878"><ele>5.8</ele><time>2022-10-31T12:52:16.0000000+00:00</time></trkpt><trkpt lat="39.34735933" lon="-0.3109878"><ele>5.8</ele><time>2022-10-31T12:52:17.0000000+00:00</time></trkpt><trkpt lat="39.34735933" lon="-0.3109878"><ele>5.8</ele><time>2022-10-31T12:52:18.0000000+00:00</time></trkpt><trkpt lat="39.34735933" lon="-0.3109878"><ele>5.8</ele><time>2022-10-31T12:52:19.0000000+00:00</time></trkpt><trkpt lat="39.34735933" lon="-0.3109878"><ele>5.8</ele><time>2022-10-31T12:52:20.0000000+00:00</time></trkpt><trkpt lat="39.34735933" lon="-0.3109878"><ele>5.8</ele><time>2022-10-31T12:52:21.0000000+00:00</time></trkpt><trkpt lat="39.34735933" lon="-0.3109878"><ele>5.8</ele><time>2022-10-31T12:52:22.0000000+00:00</time></trkpt><trkpt lat="39.34735933" lon="-0.3109878"><ele>5.8</ele><time>2022-10-31T12:52:23.0000000+00:00</time></trkpt><trkpt lat="39.34735933" lon="-0.3109878"><ele>5.8</ele><time>2022-10-31T12:52:24.0000000+00:00</time></trkpt><trkpt lat="39.34735933" lon="-0.3109878"><ele>5.8</ele><time>2022-10-31T12:52:25.0000000+00:00</time></trkpt><trkpt lat="39.34735933" lon="-0.3109878"><ele>5.8</ele><time>2022-10-31T12:52:26.0000000+00:00</time></trkpt><trkpt lat="39.34735933" lon="-0.3109878"><ele>5.8</ele><time>2022-10-31T12:52:27.0000000+00:00</time></trkpt><trkpt lat="39.34735933" lon="-0.3109878"><ele>5.8</ele><time>2022-10-31T12:52:28.0000000+00:00</time></trkpt><trkpt lat="39.34735933" lon="-0.3109878"><ele>5.8</ele><time>2022-10-31T12:52:29.0000000+00:00</time></trkpt><trkpt lat="39.34735933" lon="-0.3109878"><ele>5.8</ele><time>2022-10-31T12:52:30.0000000+00:00</time></trkpt><trkpt lat="39.34735933" lon="-0.3109878"><ele>5.8</ele><time>2022-10-31T12:52:31.0000000+00:00</time></trkpt><trkpt lat="39.34735933" lon="-0.3109878"><ele>5.8</ele><time>2022-10-31T12:52:32.0000000+00:00</time></trkpt><trkpt lat="39.34735933" lon="-0.3109878"><ele>5.8</ele><time>2022-10-31T12:52:33.0000000+00:00</time></trkpt><trkpt lat="39.34735933" lon="-0.3109878"><ele>5.8</ele><time>2022-10-31T12:52:34.0000000+00:00</time></trkpt><trkpt lat="39.34735933" lon="-0.3109878"><ele>5.8</ele><time>2022-10-31T12:52:35.0000000+00:00</time></trkpt><trkpt lat="39.34735933" lon="-0.3109878"><ele>5.8</ele><time>2022-10-31T12:52:36.0000000+00:00</time></trkpt><trkpt lat="39.34735933" lon="-0.3109878"><ele>5.8</ele><time>2022-10-31T12:52:37.0000000+00:00</time></trkpt><trkpt lat="39.34735933" lon="-0.3109878"><ele>5.8</ele><time>2022-10-31T12:52:38.0000000+00:00</time></trkpt><trkpt lat="39.34735933" lon="-0.3109878"><ele>5.8</ele><time>2022-10-31T12:52:39.0000000+00:00</time></trkpt><trkpt lat="39.34735933" lon="-0.3109878"><ele>5.8</ele><time>2022-10-31T12:52:40.0000000+00:00</time></trkpt><trkpt lat="39.34735933" lon="-0.3109878"><ele>5.8</ele><time>2022-10-31T12:52:41.0000000+00:00</time></trkpt><trkpt lat="39.34735933" lon="-0.3109878"><ele>5.8</ele><time>2022-10-31T12:52:42.0000000+00:00</time></trkpt><trkpt lat="39.34735933" lon="-0.3109878"><ele>5.8</ele><time>2022-10-31T12:52:43.0000000+00:00</time></trkpt><trkpt lat="39.34735933" lon="-0.3109878"><ele>5.8</ele><time>2022-10-31T12:52:44.0000000+00:00</time></trkpt><trkpt lat="39.34735933" lon="-0.3109878"><ele>5.8</ele><time>2022-10-31T12:52:45.0000000+00:00</time></trkpt><trkpt lat="39.34735933" lon="-0.3109878"><ele>5.8</ele><time>2022-10-31T12:52:46.0000000+00:00</time></trkpt><trkpt lat="39.34735933" lon="-0.3109878"><ele>5.8</ele><time>2022-10-31T12:52:47.0000000+00:00</time></trkpt><trkpt lat="39.34735933" lon="-0.3109878"><ele>5.8</ele><time>2022-10-31T12:52:48.0000000+00:00</time></trkpt><trkpt lat="39.34735933" lon="-0.3109878"><ele>5.8</ele><time>2022-10-31T12:52:49.0000000+00:00</time></trkpt><trkpt lat="39.34735933" lon="-0.3109878"><ele>5.8</ele><time>2022-10-31T12:52:50.0000000+00:00</time></trkpt><trkpt lat="39.34735933" lon="-0.3109878"><ele>5.8</ele><time>2022-10-31T12:52:51.0000000+00:00</time></trkpt><trkpt lat="39.34735933" lon="-0.3109878"><ele>5.8</ele><time>2022-10-31T12:52:52.0000000+00:00</time></trkpt><trkpt lat="39.34735933" lon="-0.3109878"><ele>5.8</ele><time>2022-10-31T12:52:53.0000000+00:00</time></trkpt><trkpt lat="39.34735933" lon="-0.3109878"><ele>5.8</ele><time>2022-10-31T12:52:54.0000000+00:00</time></trkpt><trkpt lat="39.34735933" lon="-0.3109878"><ele>5.8</ele><time>2022-10-31T12:52:55.0000000+00:00</time></trkpt><trkpt lat="39.34735933" lon="-0.3109878"><ele>5.8</ele><time>2022-10-31T12:52:56.0000000+00:00</time></trkpt><trkpt lat="39.34735933" lon="-0.3109878"><ele>5.8</ele><time>2022-10-31T12:52:57.0000000+00:00</time></trkpt><trkpt lat="39.34735933" lon="-0.3109878"><ele>5.8</ele><time>2022-10-31T12:52:58.0000000+00:00</time></trkpt><trkpt lat="39.34735933" lon="-0.3109878"><ele>5.8</ele><time>2022-10-31T12:52:59.0000000+00:00</time></trkpt><trkpt lat="39.34735933" lon="-0.3109878"><ele>5.8</ele><time>2022-10-31T12:53:00.0000000+00:00</time></trkpt><trkpt lat="39.34735933" lon="-0.3109878"><ele>5.8</ele><time>2022-10-31T12:53:01.0000000+00:00</time></trkpt><trkpt lat="39.34735933" lon="-0.3109878"><ele>5.8</ele><time>2022-10-31T12:53:02.0000000+00:00</time></trkpt><trkpt lat="39.34735933" lon="-0.3109878"><ele>5.8</ele><time>2022-10-31T12:53:03.0000000+00:00</time></trkpt><trkpt lat="39.34735933" lon="-0.3109878"><ele>5.8</ele><time>2022-10-31T12:53:04.0000000+00:00</time></trkpt><trkpt lat="39.34735933" lon="-0.3109878"><ele>5.8</ele><time>2022-10-31T12:53:05.0000000+00:00</time></trkpt><trkpt lat="39.34735933" lon="-0.3109878"><ele>5.8</ele><time>2022-10-31T12:53:06.0000000+00:00</time></trkpt><trkpt lat="39.34735933" lon="-0.3109878"><ele>5.8</ele><time>2022-10-31T12:53:07.0000000+00:00</time></trkpt><trkpt lat="39.34735933" lon="-0.3109878"><ele>5.8</ele><time>2022-10-31T12:53:08.0000000+00:00</time></trkpt><trkpt lat="39.34735933" lon="-0.3109878"><ele>5.8</ele><time>2022-10-31T12:53:09.0000000+00:00</time></trkpt><trkpt lat="39.34735933" lon="-0.3109878"><ele>5.8</ele><time>2022-10-31T12:53:10.0000000+00:00</time></trkpt><trkpt lat="39.34735933" lon="-0.3109878"><ele>5.8</ele><time>2022-10-31T12:53:11.0000000+00:00</time></trkpt><trkpt lat="39.34735933" lon="-0.3109878"><ele>5.8</ele><time>2022-10-31T12:53:12.0000000+00:00</time></trkpt><trkpt lat="39.34735933" lon="-0.3109878"><ele>5.8</ele><time>2022-10-31T12:53:13.0000000+00:00</time></trkpt><trkpt lat="39.34735933" lon="-0.3109878"><ele>5.8</ele><time>2022-10-31T12:53:14.0000000+00:00</time></trkpt><trkpt lat="39.34735933" lon="-0.3109878"><ele>5.8</ele><time>2022-10-31T12:53:15.0000000+00:00</time></trkpt><trkpt lat="39.34735933" lon="-0.3109878"><ele>5.8</ele><time>2022-10-31T12:53:16.0000000+00:00</time></trkpt><trkpt lat="39.34735933" lon="-0.3109878"><ele>5.8</ele><time>2022-10-31T12:53:17.0000000+00:00</time></trkpt><trkpt lat="39.34735933" lon="-0.3109878"><ele>5.8</ele><time>2022-10-31T12:53:18.0000000+00:00</time></trkpt><trkpt lat="39.34735933" lon="-0.3109878"><ele>5.8</ele><time>2022-10-31T12:53:19.0000000+00:00</time></trkpt><trkpt lat="39.34735933" lon="-0.3109878"><ele>5.8</ele><time>2022-10-31T12:53:20.0000000+00:00</time></trkpt><trkpt lat="39.34735933" lon="-0.3109878"><ele>5.8</ele><time>2022-10-31T12:53:21.0000000+00:00</time></trkpt><trkpt lat="39.34735933" lon="-0.3109878"><ele>5.8</ele><time>2022-10-31T12:53:22.0000000+00:00</time></trkpt><trkpt lat="39.34735933" lon="-0.3109878"><ele>5.8</ele><time>2022-10-31T12:53:23.0000000+00:00</time></trkpt><trkpt lat="39.34735933" lon="-0.3109878"><ele>5.8</ele><time>2022-10-31T12:53:24.0000000+00:00</time></trkpt><trkpt lat="39.34735933" lon="-0.3109878"><ele>5.8</ele><time>2022-10-31T12:53:25.0000000+00:00</time></trkpt><trkpt lat="39.34735933" lon="-0.3109878"><ele>5.8</ele><time>2022-10-31T12:53:26.0000000+00:00</time></trkpt><trkpt lat="39.34735933" lon="-0.3109878"><ele>5.8</ele><time>2022-10-31T12:53:27.0000000+00:00</time></trkpt><trkpt lat="39.34735933" lon="-0.3109878"><ele>5.8</ele><time>2022-10-31T12:53:28.0000000+00:00</time></trkpt><trkpt lat="39.34735933" lon="-0.3109878"><ele>5.8</ele><time>2022-10-31T12:53:29.0000000+00:00</time></trkpt><trkpt lat="39.34735933" lon="-0.3109878"><ele>5.8</ele><time>2022-10-31T12:53:30.0000000+00:00</time></trkpt><trkpt lat="39.34735858" lon="-0.3109909"><ele>5.8</ele><time>2022-10-31T12:53:31.0000000+00:00</time></trkpt><trkpt lat="39.34735724" lon="-0.31099577"><ele>5.8</ele><time>2022-10-31T12:53:32.0000000+00:00</time></trkpt><trkpt lat="39.34735724" lon="-0.31099577"><ele>5.8</ele><time>2022-10-31T12:53:33.0000000+00:00</time></trkpt><trkpt lat="39.34735724" lon="-0.31099577"><ele>5.8</ele><time>2022-10-31T12:53:34.0000000+00:00</time></trkpt><trkpt lat="39.34735724" lon="-0.31099577"><ele>5.8</ele><time>2022-10-31T12:53:35.0000000+00:00</time></trkpt><trkpt lat="39.34735724" lon="-0.31099577"><ele>5.8</ele><time>2022-10-31T12:53:36.0000000+00:00</time></trkpt><trkpt lat="39.34735724" lon="-0.31099577"><ele>5.8</ele><time>2022-10-31T12:53:37.0000000+00:00</time></trkpt><trkpt lat="39.34735724" lon="-0.31099577"><ele>5.8</ele><time>2022-10-31T12:53:38.0000000+00:00</time></trkpt><trkpt lat="39.34735724" lon="-0.31099577"><ele>5.8</ele><time>2022-10-31T12:53:39.0000000+00:00</time></trkpt><trkpt lat="39.34735724" lon="-0.31099577"><ele>5.8</ele><time>2022-10-31T12:53:40.0000000+00:00</time></trkpt><trkpt lat="39.34735724" lon="-0.31099577"><ele>5.8</ele><time>2022-10-31T12:53:41.0000000+00:00</time></trkpt><trkpt lat="39.34735724" lon="-0.31099577"><ele>5.8</ele><time>2022-10-31T12:53:42.0000000+00:00</time></trkpt><trkpt lat="39.34735724" lon="-0.31099577"><ele>5.8</ele><time>2022-10-31T12:53:43.0000000+00:00</time></trkpt><trkpt lat="39.34735623" lon="-0.31099484"><ele>5.8</ele><time>2022-10-31T12:53:44.0000000+00:00</time></trkpt><trkpt lat="39.34735682" lon="-0.31099149"><ele>5.8</ele><time>2022-10-31T12:53:45.0000000+00:00</time></trkpt><trkpt lat="39.34735682" lon="-0.31099149"><ele>5.8</ele><time>2022-10-31T12:53:46.0000000+00:00</time></trkpt><trkpt lat="39.34735682" lon="-0.31099149"><ele>5.8</ele><time>2022-10-31T12:53:47.0000000+00:00</time></trkpt><trkpt lat="39.34735682" lon="-0.31099149"><ele>5.8</ele><time>2022-10-31T12:53:48.0000000+00:00</time></trkpt><trkpt lat="39.34735682" lon="-0.31099149"><ele>5.8</ele><time>2022-10-31T12:53:49.0000000+00:00</time></trkpt><trkpt lat="39.34735682" lon="-0.31099149"><ele>5.8</ele><time>2022-10-31T12:53:50.0000000+00:00</time></trkpt><trkpt lat="39.34735682" lon="-0.31099149"><ele>5.8</ele><time>2022-10-31T12:53:51.0000000+00:00</time></trkpt><trkpt lat="39.34735682" lon="-0.31099149"><ele>5.8</ele><time>2022-10-31T12:53:52.0000000+00:00</time></trkpt><trkpt lat="39.34735682" lon="-0.31099149"><ele>5.8</ele><time>2022-10-31T12:53:53.0000000+00:00</time></trkpt><trkpt lat="39.34735682" lon="-0.31099149"><ele>5.8</ele><time>2022-10-31T12:53:54.0000000+00:00</time></trkpt><trkpt lat="39.34735682" lon="-0.31099149"><ele>5.8</ele><time>2022-10-31T12:53:55.0000000+00:00</time></trkpt><trkpt lat="39.34735682" lon="-0.31099149"><ele>5.8</ele><time>2022-10-31T12:53:56.0000000+00:00</time></trkpt><trkpt lat="39.34735682" lon="-0.31099149"><ele>5.8</ele><time>2022-10-31T12:53:57.0000000+00:00</time></trkpt><trkpt lat="39.34735682" lon="-0.31099149"><ele>5.8</ele><time>2022-10-31T12:53:58.0000000+00:00</time></trkpt><trkpt lat="39.34735682" lon="-0.31099149"><ele>5.8</ele><time>2022-10-31T12:53:59.0000000+00:00</time></trkpt><trkpt lat="39.34735682" lon="-0.31099149"><ele>5.8</ele><time>2022-10-31T12:54:00.0000000+00:00</time></trkpt><trkpt lat="39.34735682" lon="-0.31099149"><ele>5.8</ele><time>2022-10-31T12:54:01.0000000+00:00</time></trkpt><trkpt lat="39.34735682" lon="-0.31099149"><ele>5.8</ele><time>2022-10-31T12:54:02.0000000+00:00</time></trkpt><trkpt lat="39.34735682" lon="-0.31099149"><ele>5.8</ele><time>2022-10-31T12:54:03.0000000+00:00</time></trkpt><trkpt lat="39.34735682" lon="-0.31099149"><ele>5.8</ele><time>2022-10-31T12:54:04.0000000+00:00</time></trkpt><trkpt lat="39.34735682" lon="-0.31099149"><ele>5.8</ele><time>2022-10-31T12:54:05.0000000+00:00</time></trkpt><trkpt lat="39.34735682" lon="-0.31099149"><ele>5.8</ele><time>2022-10-31T12:54:06.0000000+00:00</time></trkpt><trkpt lat="39.34735682" lon="-0.31099149"><ele>5.8</ele><time>2022-10-31T12:54:07.0000000+00:00</time></trkpt><trkpt lat="39.34735682" lon="-0.31099149"><ele>5.8</ele><time>2022-10-31T12:54:08.0000000+00:00</time></trkpt><trkpt lat="39.34735682" lon="-0.31099149"><ele>5.8</ele><time>2022-10-31T12:54:09.0000000+00:00</time></trkpt><trkpt lat="39.34735682" lon="-0.31099149"><ele>5.8</ele><time>2022-10-31T12:54:10.0000000+00:00</time></trkpt><trkpt lat="39.34735682" lon="-0.31099149"><ele>5.8</ele><time>2022-10-31T12:54:11.0000000+00:00</time></trkpt><trkpt lat="39.34735682" lon="-0.31099149"><ele>5.8</ele><time>2022-10-31T12:54:12.0000000+00:00</time></trkpt><trkpt lat="39.34735682" lon="-0.31099149"><ele>5.8</ele><time>2022-10-31T12:54:13.0000000+00:00</time></trkpt><trkpt lat="39.34735682" lon="-0.31099149"><ele>5.8</ele><time>2022-10-31T12:54:14.0000000+00:00</time></trkpt><trkpt lat="39.34735682" lon="-0.31099149"><ele>5.8</ele><time>2022-10-31T12:54:15.0000000+00:00</time></trkpt><trkpt lat="39.34735682" lon="-0.31099149"><ele>5.8</ele><time>2022-10-31T12:54:16.0000000+00:00</time></trkpt><trkpt lat="39.34735682" lon="-0.31099149"><ele>5.8</ele><time>2022-10-31T12:54:17.0000000+00:00</time></trkpt><trkpt lat="39.34735682" lon="-0.31099149"><ele>5.8</ele><time>2022-10-31T12:54:18.0000000+00:00</time></trkpt><trkpt lat="39.34735682" lon="-0.31099149"><ele>5.8</ele><time>2022-10-31T12:54:19.0000000+00:00</time></trkpt><trkpt lat="39.34735682" lon="-0.31099149"><ele>5.8</ele><time>2022-10-31T12:54:20.0000000+00:00</time></trkpt><trkpt lat="39.34735682" lon="-0.31099149"><ele>5.8</ele><time>2022-10-31T12:54:21.0000000+00:00</time></trkpt><trkpt lat="39.34735682" lon="-0.31099149"><ele>5.8</ele><time>2022-10-31T12:54:22.0000000+00:00</time></trkpt><trkpt lat="39.34735682" lon="-0.31099149"><ele>5.8</ele><time>2022-10-31T12:54:23.0000000+00:00</time></trkpt><trkpt lat="39.34735799" lon="-0.31098805"><ele>5.8</ele><time>2022-10-31T12:54:24.0000000+00:00</time></trkpt><trkpt lat="39.34735816" lon="-0.31098353"><ele>5.8</ele><time>2022-10-31T12:54:25.0000000+00:00</time></trkpt><trkpt lat="39.34735816" lon="-0.31098353"><ele>5.8</ele><time>2022-10-31T12:54:26.0000000+00:00</time></trkpt><trkpt lat="39.34735816" lon="-0.31098353"><ele>5.8</ele><time>2022-10-31T12:54:27.0000000+00:00</time></trkpt><trkpt lat="39.34735816" lon="-0.31098353"><ele>5.8</ele><time>2022-10-31T12:54:28.0000000+00:00</time></trkpt><trkpt lat="39.34735816" lon="-0.31098353"><ele>5.8</ele><time>2022-10-31T12:54:29.0000000+00:00</time></trkpt><trkpt lat="39.34735816" lon="-0.31098353"><ele>5.8</ele><time>2022-10-31T12:54:30.0000000+00:00</time></trkpt><trkpt lat="39.34735816" lon="-0.31098353"><ele>5.8</ele><time>2022-10-31T12:54:31.0000000+00:00</time></trkpt><trkpt lat="39.34735816" lon="-0.31098353"><ele>5.8</ele><time>2022-10-31T12:54:32.0000000+00:00</time></trkpt><trkpt lat="39.34735816" lon="-0.31098353"><ele>5.8</ele><time>2022-10-31T12:54:33.0000000+00:00</time></trkpt><trkpt lat="39.34735816" lon="-0.31098353"><ele>5.8</ele><time>2022-10-31T12:54:34.0000000+00:00</time></trkpt><trkpt lat="39.34735816" lon="-0.31098353"><ele>5.8</ele><time>2022-10-31T12:54:35.0000000+00:00</time></trkpt><trkpt lat="39.34735816" lon="-0.31098353"><ele>5.8</ele><time>2022-10-31T12:54:36.0000000+00:00</time></trkpt><trkpt lat="39.34735816" lon="-0.31098353"><ele>5.8</ele><time>2022-10-31T12:54:37.0000000+00:00</time></trkpt><trkpt lat="39.34735816" lon="-0.31098353"><ele>5.8</ele><time>2022-10-31T12:54:38.0000000+00:00</time></trkpt><trkpt lat="39.34735816" lon="-0.31098353"><ele>5.8</ele><time>2022-10-31T12:54:39.0000000+00:00</time></trkpt><trkpt lat="39.34735816" lon="-0.31098353"><ele>5.8</ele><time>2022-10-31T12:54:40.0000000+00:00</time></trkpt><trkpt lat="39.34735816" lon="-0.31098353"><ele>5.8</ele><time>2022-10-31T12:54:41.0000000+00:00</time></trkpt><trkpt lat="39.34735816" lon="-0.31098353"><ele>5.8</ele><time>2022-10-31T12:54:42.0000000+00:00</time></trkpt><trkpt lat="39.34735816" lon="-0.31098353"><ele>5.8</ele><time>2022-10-31T12:54:43.0000000+00:00</time></trkpt><trkpt lat="39.34735816" lon="-0.31098353"><ele>5.8</ele><time>2022-10-31T12:54:44.0000000+00:00</time></trkpt><trkpt lat="39.34735816" lon="-0.31098353"><ele>5.8</ele><time>2022-10-31T12:54:45.0000000+00:00</time></trkpt><trkpt lat="39.34735816" lon="-0.31098353"><ele>5.8</ele><time>2022-10-31T12:54:46.0000000+00:00</time></trkpt><trkpt lat="39.34735816" lon="-0.31098353"><ele>5.8</ele><time>2022-10-31T12:54:47.0000000+00:00</time></trkpt><trkpt lat="39.34735816" lon="-0.31098353"><ele>5.8</ele><time>2022-10-31T12:54:48.0000000+00:00</time></trkpt><trkpt lat="39.34735816" lon="-0.31098353"><ele>5.8</ele><time>2022-10-31T12:54:49.0000000+00:00</time></trkpt><trkpt lat="39.34735816" lon="-0.31098353"><ele>5.8</ele><time>2022-10-31T12:54:50.0000000+00:00</time></trkpt><trkpt lat="39.34735816" lon="-0.31098353"><ele>5.8</ele><time>2022-10-31T12:54:51.0000000+00:00</time></trkpt><trkpt lat="39.34735816" lon="-0.31098353"><ele>5.8</ele><time>2022-10-31T12:54:52.0000000+00:00</time></trkpt><trkpt lat="39.34735816" lon="-0.31098353"><ele>5.8</ele><time>2022-10-31T12:54:53.0000000+00:00</time></trkpt><trkpt lat="39.34735816" lon="-0.31098353"><ele>5.8</ele><time>2022-10-31T12:54:54.0000000+00:00</time></trkpt><trkpt lat="39.34735816" lon="-0.31098353"><ele>5.8</ele><time>2022-10-31T12:54:55.0000000+00:00</time></trkpt><trkpt lat="39.34735816" lon="-0.31098353"><ele>5.8</ele><time>2022-10-31T12:54:56.0000000+00:00</time></trkpt><trkpt lat="39.34735816" lon="-0.31098353"><ele>5.8</ele><time>2022-10-31T12:54:57.0000000+00:00</time></trkpt><trkpt lat="39.34735816" lon="-0.31098353"><ele>5.8</ele><time>2022-10-31T12:54:58.0000000+00:00</time></trkpt><trkpt lat="39.34735816" lon="-0.31098353"><ele>5.8</ele><time>2022-10-31T12:54:59.0000000+00:00</time></trkpt><trkpt lat="39.34735816" lon="-0.31098353"><ele>5.8</ele><time>2022-10-31T12:55:00.0000000+00:00</time></trkpt><trkpt lat="39.34735816" lon="-0.31098353"><ele>5.8</ele><time>2022-10-31T12:55:01.0000000+00:00</time></trkpt><trkpt lat="39.34735816" lon="-0.31098353"><ele>5.8</ele><time>2022-10-31T12:55:02.0000000+00:00</time></trkpt><trkpt lat="39.34735816" lon="-0.31098353"><ele>5.8</ele><time>2022-10-31T12:55:03.0000000+00:00</time></trkpt><trkpt lat="39.34735816" lon="-0.31098353"><ele>5.8</ele><time>2022-10-31T12:55:04.0000000+00:00</time></trkpt><trkpt lat="39.34735816" lon="-0.31098353"><ele>5.8</ele><time>2022-10-31T12:55:05.0000000+00:00</time></trkpt><trkpt lat="39.34735816" lon="-0.31098353"><ele>5.8</ele><time>2022-10-31T12:55:06.0000000+00:00</time></trkpt><trkpt lat="39.34735816" lon="-0.31098353"><ele>5.8</ele><time>2022-10-31T12:55:07.0000000+00:00</time></trkpt><trkpt lat="39.34735816" lon="-0.31098353"><ele>5.8</ele><time>2022-10-31T12:55:08.0000000+00:00</time></trkpt><trkpt lat="39.34735816" lon="-0.31098353"><ele>5.8</ele><time>2022-10-31T12:55:09.0000000+00:00</time></trkpt><trkpt lat="39.34735816" lon="-0.31098353"><ele>5.8</ele><time>2022-10-31T12:55:10.0000000+00:00</time></trkpt><trkpt lat="39.34735816" lon="-0.31098353"><ele>5.8</ele><time>2022-10-31T12:55:11.0000000+00:00</time></trkpt><trkpt lat="39.34735816" lon="-0.31098353"><ele>5.8</ele><time>2022-10-31T12:55:12.0000000+00:00</time></trkpt><trkpt lat="39.34735816" lon="-0.31098353"><ele>5.8</ele><time>2022-10-31T12:55:13.0000000+00:00</time></trkpt><trkpt lat="39.34735816" lon="-0.31098353"><ele>5.8</ele><time>2022-10-31T12:55:14.0000000+00:00</time></trkpt><trkpt lat="39.34735816" lon="-0.31098353"><ele>5.8</ele><time>2022-10-31T12:55:15.0000000+00:00</time></trkpt><trkpt lat="39.34735816" lon="-0.31098353"><ele>5.8</ele><time>2022-10-31T12:55:16.0000000+00:00</time></trkpt><trkpt lat="39.34735816" lon="-0.31098353"><ele>5.8</ele><time>2022-10-31T12:55:17.0000000+00:00</time></trkpt><trkpt lat="39.34735816" lon="-0.31098353"><ele>5.8</ele><time>2022-10-31T12:55:18.0000000+00:00</time></trkpt><trkpt lat="39.34735816" lon="-0.31098353"><ele>5.8</ele><time>2022-10-31T12:55:19.0000000+00:00</time></trkpt><trkpt lat="39.34735816" lon="-0.31098353"><ele>5.8</ele><time>2022-10-31T12:55:20.0000000+00:00</time></trkpt><trkpt lat="39.34735816" lon="-0.31098353"><ele>5.8</ele><time>2022-10-31T12:55:21.0000000+00:00</time></trkpt><trkpt lat="39.34735816" lon="-0.31098353"><ele>5.8</ele><time>2022-10-31T12:55:22.0000000+00:00</time></trkpt><trkpt lat="39.34735816" lon="-0.31098353"><ele>5.8</ele><time>2022-10-31T12:55:23.0000000+00:00</time></trkpt><trkpt lat="39.34735816" lon="-0.31098353"><ele>5.8</ele><time>2022-10-31T12:55:24.0000000+00:00</time></trkpt><trkpt lat="39.34735816" lon="-0.31098353"><ele>5.8</ele><time>2022-10-31T12:55:25.0000000+00:00</time></trkpt><trkpt lat="39.34735816" lon="-0.31098353"><ele>5.8</ele><time>2022-10-31T12:55:26.0000000+00:00</time></trkpt><trkpt lat="39.34735816" lon="-0.31098353"><ele>5.8</ele><time>2022-10-31T12:55:27.0000000+00:00</time></trkpt><trkpt lat="39.34735816" lon="-0.31098353"><ele>5.8</ele><time>2022-10-31T12:55:28.0000000+00:00</time></trkpt><trkpt lat="39.34735816" lon="-0.31098353"><ele>5.8</ele><time>2022-10-31T12:55:29.0000000+00:00</time></trkpt><trkpt lat="39.34735816" lon="-0.31098353"><ele>5.8</ele><time>2022-10-31T12:55:30.0000000+00:00</time></trkpt><trkpt lat="39.34735816" lon="-0.31098353"><ele>5.8</ele><time>2022-10-31T12:55:31.0000000+00:00</time></trkpt><trkpt lat="39.34735816" lon="-0.31098353"><ele>5.8</ele><time>2022-10-31T12:55:32.0000000+00:00</time></trkpt><trkpt lat="39.34735816" lon="-0.31098353"><ele>5.8</ele><time>2022-10-31T12:55:33.0000000+00:00</time></trkpt><trkpt lat="39.34735816" lon="-0.31098353"><ele>5.8</ele><time>2022-10-31T12:55:34.0000000+00:00</time></trkpt><trkpt lat="39.34735816" lon="-0.31098353"><ele>5.8</ele><time>2022-10-31T12:55:35.0000000+00:00</time></trkpt><trkpt lat="39.34735816" lon="-0.31098353"><ele>5.8</ele><time>2022-10-31T12:55:36.0000000+00:00</time></trkpt><trkpt lat="39.34735816" lon="-0.31098353"><ele>5.8</ele><time>2022-10-31T12:55:37.0000000+00:00</time></trkpt><trkpt lat="39.34735816" lon="-0.31098353"><ele>5.8</ele><time>2022-10-31T12:55:38.0000000+00:00</time></trkpt><trkpt lat="39.34735816" lon="-0.31098353"><ele>5.8</ele><time>2022-10-31T12:55:39.0000000+00:00</time></trkpt><trkpt lat="39.34735816" lon="-0.31098353"><ele>5.8</ele><time>2022-10-31T12:55:40.0000000+00:00</time></trkpt><trkpt lat="39.34735816" lon="-0.31098353"><ele>5.8</ele><time>2022-10-31T12:55:41.0000000+00:00</time></trkpt><trkpt lat="39.34735816" lon="-0.31098353"><ele>5.8</ele><time>2022-10-31T12:55:42.0000000+00:00</time></trkpt><trkpt lat="39.34735816" lon="-0.31098353"><ele>5.8</ele><time>2022-10-31T12:55:43.0000000+00:00</time></trkpt><trkpt lat="39.34735816" lon="-0.31098353"><ele>5.8</ele><time>2022-10-31T12:55:44.0000000+00:00</time></trkpt><trkpt lat="39.34735816" lon="-0.31098353"><ele>5.8</ele><time>2022-10-31T12:55:45.0000000+00:00</time></trkpt><trkpt lat="39.34735816" lon="-0.31098353"><ele>5.8</ele><time>2022-10-31T12:55:46.0000000+00:00</time></trkpt><trkpt lat="39.34735816" lon="-0.31098353"><ele>5.8</ele><time>2022-10-31T12:55:47.0000000+00:00</time></trkpt><trkpt lat="39.34735816" lon="-0.31098353"><ele>5.8</ele><time>2022-10-31T12:55:48.0000000+00:00</time></trkpt><trkpt lat="39.34735816" lon="-0.31098353"><ele>5.8</ele><time>2022-10-31T12:55:49.0000000+00:00</time></trkpt><trkpt lat="39.34735816" lon="-0.31098353"><ele>5.8</ele><time>2022-10-31T12:55:50.0000000+00:00</time></trkpt><trkpt lat="39.34735816" lon="-0.31098353"><ele>5.8</ele><time>2022-10-31T12:55:51.0000000+00:00</time></trkpt><trkpt lat="39.34735816" lon="-0.31098353"><ele>5.8</ele><time>2022-10-31T12:55:52.0000000+00:00</time></trkpt><trkpt lat="39.34735816" lon="-0.31098353"><ele>5.8</ele><time>2022-10-31T12:55:53.0000000+00:00</time></trkpt><trkpt lat="39.34735816" lon="-0.31098353"><ele>5.8</ele><time>2022-10-31T12:55:54.0000000+00:00</time></trkpt><trkpt lat="39.34735816" lon="-0.31098353"><ele>5.8</ele><time>2022-10-31T12:55:55.0000000+00:00</time></trkpt><trkpt lat="39.34735816" lon="-0.31098353"><ele>5.8</ele><time>2022-10-31T12:55:56.0000000+00:00</time></trkpt><trkpt lat="39.34735816" lon="-0.31098353"><ele>5.8</ele><time>2022-10-31T12:55:57.0000000+00:00</time></trkpt><trkpt lat="39.34735816" lon="-0.31098353"><ele>5.8</ele><time>2022-10-31T12:55:58.0000000+00:00</time></trkpt><trkpt lat="39.34735816" lon="-0.31098353"><ele>5.8</ele><time>2022-10-31T12:55:59.0000000+00:00</time></trkpt><trkpt lat="39.34735816" lon="-0.31098353"><ele>5.8</ele><time>2022-10-31T12:56:00.0000000+00:00</time></trkpt><trkpt lat="39.34735816" lon="-0.31098353"><ele>5.8</ele><time>2022-10-31T12:56:01.0000000+00:00</time></trkpt><trkpt lat="39.34735816" lon="-0.31098353"><ele>5.8</ele><time>2022-10-31T12:56:02.0000000+00:00</time></trkpt><trkpt lat="39.34735816" lon="-0.31098353"><ele>5.8</ele><time>2022-10-31T12:56:03.0000000+00:00</time></trkpt><trkpt lat="39.34735816" lon="-0.31098353"><ele>5.8</ele><time>2022-10-31T12:56:04.0000000+00:00</time></trkpt><trkpt lat="39.34735816" lon="-0.31098353"><ele>5.8</ele><time>2022-10-31T12:56:05.0000000+00:00</time></trkpt><trkpt lat="39.34735816" lon="-0.31098353"><ele>5.8</ele><time>2022-10-31T12:56:06.0000000+00:00</time></trkpt><trkpt lat="39.34735816" lon="-0.31098353"><ele>5.8</ele><time>2022-10-31T12:56:07.0000000+00:00</time></trkpt><trkpt lat="39.34735816" lon="-0.31098353"><ele>5.8</ele><time>2022-10-31T12:56:08.0000000+00:00</time></trkpt><trkpt lat="39.34735816" lon="-0.31098353"><ele>5.8</ele><time>2022-10-31T12:56:09.0000000+00:00</time></trkpt><trkpt lat="39.34735816" lon="-0.31098353"><ele>5.8</ele><time>2022-10-31T12:56:10.0000000+00:00</time></trkpt><trkpt lat="39.34735816" lon="-0.31098353"><ele>5.8</ele><time>2022-10-31T12:56:11.0000000+00:00</time></trkpt><trkpt lat="39.34735816" lon="-0.31098353"><ele>5.8</ele><time>2022-10-31T12:56:12.0000000+00:00</time></trkpt><trkpt lat="39.34735816" lon="-0.31098353"><ele>5.8</ele><time>2022-10-31T12:56:13.0000000+00:00</time></trkpt><trkpt lat="39.34735816" lon="-0.31098353"><ele>5.8</ele><time>2022-10-31T12:56:14.0000000+00:00</time></trkpt><trkpt lat="39.34735816" lon="-0.31098353"><ele>5.8</ele><time>2022-10-31T12:56:15.0000000+00:00</time></trkpt><trkpt lat="39.34735816" lon="-0.31098353"><ele>5.8</ele><time>2022-10-31T12:56:16.0000000+00:00</time></trkpt><trkpt lat="39.34735816" lon="-0.31098353"><ele>5.8</ele><time>2022-10-31T12:56:17.0000000+00:00</time></trkpt><trkpt lat="39.34735816" lon="-0.31098353"><ele>5.8</ele><time>2022-10-31T12:56:18.0000000+00:00</time></trkpt><trkpt lat="39.34735816" lon="-0.31098353"><ele>5.8</ele><time>2022-10-31T12:56:19.0000000+00:00</time></trkpt><trkpt lat="39.34735816" lon="-0.31098353"><ele>5.8</ele><time>2022-10-31T12:56:20.0000000+00:00</time></trkpt><trkpt lat="39.34735816" lon="-0.31098353"><ele>5.8</ele><time>2022-10-31T12:56:21.0000000+00:00</time></trkpt><trkpt lat="39.34735816" lon="-0.31098353"><ele>5.8</ele><time>2022-10-31T12:56:22.0000000+00:00</time></trkpt><trkpt lat="39.34735816" lon="-0.31098353"><ele>5.8</ele><time>2022-10-31T12:56:23.0000000+00:00</time></trkpt><trkpt lat="39.34735816" lon="-0.31098353"><ele>5.8</ele><time>2022-10-31T12:56:24.0000000+00:00</time></trkpt><trkpt lat="39.34735816" lon="-0.31098353"><ele>5.8</ele><time>2022-10-31T12:56:25.0000000+00:00</time></trkpt><trkpt lat="39.34735816" lon="-0.31098353"><ele>5.8</ele><time>2022-10-31T12:56:26.0000000+00:00</time></trkpt><trkpt lat="39.34735816" lon="-0.31098353"><ele>5.8</ele><time>2022-10-31T12:56:27.0000000+00:00</time></trkpt><trkpt lat="39.34735816" lon="-0.31098353"><ele>5.8</ele><time>2022-10-31T12:56:28.0000000+00:00</time></trkpt><trkpt lat="39.34735816" lon="-0.31098353"><ele>5.8</ele><time>2022-10-31T12:56:29.0000000+00:00</time></trkpt><trkpt lat="39.34735816" lon="-0.31098353"><ele>5.8</ele><time>2022-10-31T12:56:30.0000000+00:00</time></trkpt><trkpt lat="39.34735816" lon="-0.31098353"><ele>5.8</ele><time>2022-10-31T12:56:31.0000000+00:00</time></trkpt><trkpt lat="39.34735816" lon="-0.31098353"><ele>5.8</ele><time>2022-10-31T12:56:32.0000000+00:00</time></trkpt><trkpt lat="39.34735816" lon="-0.31098353"><ele>5.8</ele><time>2022-10-31T12:56:33.0000000+00:00</time></trkpt><trkpt lat="39.34735816" lon="-0.31098353"><ele>5.8</ele><time>2022-10-31T12:56:34.0000000+00:00</time></trkpt><trkpt lat="39.34735816" lon="-0.31098353"><ele>5.8</ele><time>2022-10-31T12:56:35.0000000+00:00</time></trkpt><trkpt lat="39.34736017" lon="-0.31098344"><ele>5.8</ele><time>2022-10-31T12:56:36.0000000+00:00</time></trkpt><trkpt lat="39.34736277" lon="-0.31098378"><ele>5.8</ele><time>2022-10-31T12:56:37.0000000+00:00</time></trkpt><trkpt lat="39.34736277" lon="-0.31098378"><ele>5.8</ele><time>2022-10-31T12:56:38.0000000+00:00</time></trkpt><trkpt lat="39.34736277" lon="-0.31098378"><ele>5.8</ele><time>2022-10-31T12:56:39.0000000+00:00</time></trkpt><trkpt lat="39.34736277" lon="-0.31098378"><ele>5.8</ele><time>2022-10-31T12:56:40.0000000+00:00</time></trkpt><trkpt lat="39.34736277" lon="-0.31098378"><ele>5.8</ele><time>2022-10-31T12:56:41.0000000+00:00</time></trkpt><trkpt lat="39.34736277" lon="-0.31098378"><ele>5.8</ele><time>2022-10-31T12:56:42.0000000+00:00</time></trkpt><trkpt lat="39.34736277" lon="-0.31098378"><ele>5.8</ele><time>2022-10-31T12:56:43.0000000+00:00</time></trkpt><trkpt lat="39.34736277" lon="-0.31098378"><ele>5.8</ele><time>2022-10-31T12:56:44.0000000+00:00</time></trkpt><trkpt lat="39.34736277" lon="-0.31098378"><ele>5.8</ele><time>2022-10-31T12:56:45.0000000+00:00</time></trkpt><trkpt lat="39.34736277" lon="-0.31098378"><ele>5.8</ele><time>2022-10-31T12:56:46.0000000+00:00</time></trkpt><trkpt lat="39.34736277" lon="-0.31098378"><ele>5.8</ele><time>2022-10-31T12:56:47.0000000+00:00</time></trkpt><trkpt lat="39.34736277" lon="-0.31098378"><ele>5.8</ele><time>2022-10-31T12:56:48.0000000+00:00</time></trkpt><trkpt lat="39.34736277" lon="-0.31098378"><ele>5.8</ele><time>2022-10-31T12:56:49.0000000+00:00</time></trkpt><trkpt lat="39.34736277" lon="-0.31098378"><ele>5.8</ele><time>2022-10-31T12:56:50.0000000+00:00</time></trkpt><trkpt lat="39.34736277" lon="-0.31098378"><ele>5.8</ele><time>2022-10-31T12:56:51.0000000+00:00</time></trkpt><trkpt lat="39.34736277" lon="-0.31098378"><ele>5.8</ele><time>2022-10-31T12:56:52.0000000+00:00</time></trkpt><trkpt lat="39.34736277" lon="-0.31098378"><ele>5.8</ele><time>2022-10-31T12:56:53.0000000+00:00</time></trkpt><trkpt lat="39.34736277" lon="-0.31098378"><ele>5.8</ele><time>2022-10-31T12:56:54.0000000+00:00</time></trkpt><trkpt lat="39.34736277" lon="-0.31098378"><ele>5.8</ele><time>2022-10-31T12:56:55.0000000+00:00</time></trkpt><trkpt lat="39.34736277" lon="-0.31098378"><ele>5.8</ele><time>2022-10-31T12:56:56.0000000+00:00</time></trkpt><trkpt lat="39.34736277" lon="-0.31098378"><ele>5.8</ele><time>2022-10-31T12:56:57.0000000+00:00</time></trkpt><trkpt lat="39.34736277" lon="-0.31098378"><ele>5.8</ele><time>2022-10-31T12:56:58.0000000+00:00</time></trkpt><trkpt lat="39.34736277" lon="-0.31098378"><ele>5.8</ele><time>2022-10-31T12:56:59.0000000+00:00</time></trkpt><trkpt lat="39.34736277" lon="-0.31098378"><ele>5.8</ele><time>2022-10-31T12:57:00.0000000+00:00</time></trkpt><trkpt lat="39.34736277" lon="-0.31098378"><ele>5.8</ele><time>2022-10-31T12:57:01.0000000+00:00</time></trkpt><trkpt lat="39.34736277" lon="-0.31098378"><ele>5.8</ele><time>2022-10-31T12:57:02.0000000+00:00</time></trkpt><trkpt lat="39.34736277" lon="-0.31098378"><ele>5.8</ele><time>2022-10-31T12:57:03.0000000+00:00</time></trkpt><trkpt lat="39.34736277" lon="-0.31098378"><ele>5.8</ele><time>2022-10-31T12:57:04.0000000+00:00</time></trkpt><trkpt lat="39.34736277" lon="-0.31098378"><ele>5.8</ele><time>2022-10-31T12:57:05.0000000+00:00</time></trkpt><trkpt lat="39.34736277" lon="-0.31098378"><ele>5.8</ele><time>2022-10-31T12:57:06.0000000+00:00</time></trkpt><trkpt lat="39.34736277" lon="-0.31098378"><ele>5.8</ele><time>2022-10-31T12:57:07.0000000+00:00</time></trkpt><trkpt lat="39.34736277" lon="-0.31098378"><ele>5.8</ele><time>2022-10-31T12:57:08.0000000+00:00</time></trkpt><trkpt lat="39.34736277" lon="-0.31098378"><ele>5.8</ele><time>2022-10-31T12:57:09.0000000+00:00</time></trkpt><trkpt lat="39.34736277" lon="-0.31098378"><ele>5.8</ele><time>2022-10-31T12:57:10.0000000+00:00</time></trkpt><trkpt lat="39.34736277" lon="-0.31098378"><ele>5.8</ele><time>2022-10-31T12:57:11.0000000+00:00</time></trkpt><trkpt lat="39.34736277" lon="-0.31098378"><ele>5.8</ele><time>2022-10-31T12:57:12.0000000+00:00</time></trkpt><trkpt lat="39.34736277" lon="-0.31098378"><ele>5.8</ele><time>2022-10-31T12:57:13.0000000+00:00</time></trkpt><trkpt lat="39.34736277" lon="-0.31098378"><ele>5.8</ele><time>2022-10-31T12:57:14.0000000+00:00</time></trkpt><trkpt lat="39.34736277" lon="-0.31098378"><ele>5.8</ele><time>2022-10-31T12:57:15.0000000+00:00</time></trkpt><trkpt lat="39.34736277" lon="-0.31098378"><ele>5.8</ele><time>2022-10-31T12:57:16.0000000+00:00</time></trkpt><trkpt lat="39.34736277" lon="-0.31098378"><ele>5.8</ele><time>2022-10-31T12:57:17.0000000+00:00</time></trkpt><trkpt lat="39.34736277" lon="-0.31098378"><ele>5.8</ele><time>2022-10-31T12:57:18.0000000+00:00</time></trkpt><trkpt lat="39.34736277" lon="-0.31098378"><ele>5.8</ele><time>2022-10-31T12:57:19.0000000+00:00</time></trkpt><trkpt lat="39.34736277" lon="-0.31098378"><ele>5.8</ele><time>2022-10-31T12:57:20.0000000+00:00</time></trkpt><trkpt lat="39.34736277" lon="-0.31098378"><ele>5.8</ele><time>2022-10-31T12:57:21.0000000+00:00</time></trkpt><trkpt lat="39.34736277" lon="-0.31098378"><ele>5.8</ele><time>2022-10-31T12:57:22.0000000+00:00</time></trkpt><trkpt lat="39.34736277" lon="-0.31098378"><ele>5.8</ele><time>2022-10-31T12:57:23.0000000+00:00</time></trkpt><trkpt lat="39.34736277" lon="-0.31098378"><ele>5.8</ele><time>2022-10-31T12:57:24.0000000+00:00</time></trkpt><trkpt lat="39.34736277" lon="-0.31098378"><ele>5.8</ele><time>2022-10-31T12:57:25.0000000+00:00</time></trkpt><trkpt lat="39.34736277" lon="-0.31098378"><ele>5.8</ele><time>2022-10-31T12:57:26.0000000+00:00</time></trkpt><trkpt lat="39.34736277" lon="-0.31098378"><ele>5.8</ele><time>2022-10-31T12:57:27.0000000+00:00</time></trkpt><trkpt lat="39.34736277" lon="-0.31098378"><ele>5.8</ele><time>2022-10-31T12:57:28.0000000+00:00</time></trkpt><trkpt lat="39.34736277" lon="-0.31098378"><ele>5.8</ele><time>2022-10-31T12:57:29.0000000+00:00</time></trkpt><trkpt lat="39.34736277" lon="-0.31098378"><ele>5.8</ele><time>2022-10-31T12:57:30.0000000+00:00</time></trkpt><trkpt lat="39.34736277" lon="-0.31098378"><ele>5.8</ele><time>2022-10-31T12:57:31.0000000+00:00</time></trkpt><trkpt lat="39.34736277" lon="-0.31098378"><ele>5.8</ele><time>2022-10-31T12:57:32.0000000+00:00</time></trkpt><trkpt lat="39.34736277" lon="-0.31098378"><ele>5.8</ele><time>2022-10-31T12:57:33.0000000+00:00</time></trkpt><trkpt lat="39.34736277" lon="-0.31098378"><ele>5.8</ele><time>2022-10-31T12:57:34.0000000+00:00</time></trkpt><trkpt lat="39.34736277" lon="-0.31098378"><ele>5.8</ele><time>2022-10-31T12:57:35.0000000+00:00</time></trkpt><trkpt lat="39.34736277" lon="-0.31098378"><ele>5.8</ele><time>2022-10-31T12:57:36.0000000+00:00</time></trkpt><trkpt lat="39.34736277" lon="-0.31098378"><ele>5.8</ele><time>2022-10-31T12:57:37.0000000+00:00</time></trkpt><trkpt lat="39.34736277" lon="-0.31098378"><ele>5.8</ele><time>2022-10-31T12:57:38.0000000+00:00</time></trkpt><trkpt lat="39.34736277" lon="-0.31098378"><ele>5.8</ele><time>2022-10-31T12:57:39.0000000+00:00</time></trkpt><trkpt lat="39.34736277" lon="-0.31098378"><ele>5.8</ele><time>2022-10-31T12:57:40.0000000+00:00</time></trkpt><trkpt lat="39.34736277" lon="-0.31098378"><ele>5.8</ele><time>2022-10-31T12:57:41.0000000+00:00</time></trkpt><trkpt lat="39.34736277" lon="-0.31098378"><ele>5.8</ele><time>2022-10-31T12:57:42.0000000+00:00</time></trkpt><trkpt lat="39.34736277" lon="-0.31098378"><ele>5.8</ele><time>2022-10-31T12:57:43.0000000+00:00</time></trkpt><trkpt lat="39.34736277" lon="-0.31098378"><ele>5.8</ele><time>2022-10-31T12:57:44.0000000+00:00</time></trkpt><trkpt lat="39.34736277" lon="-0.31098378"><ele>5.8</ele><time>2022-10-31T12:57:45.0000000+00:00</time></trkpt><trkpt lat="39.34736277" lon="-0.31098378"><ele>5.8</ele><time>2022-10-31T12:57:46.0000000+00:00</time></trkpt><trkpt lat="39.34736277" lon="-0.31098378"><ele>5.8</ele><time>2022-10-31T12:57:47.0000000+00:00</time></trkpt><trkpt lat="39.34736277" lon="-0.31098378"><ele>5.8</ele><time>2022-10-31T12:57:48.0000000+00:00</time></trkpt><trkpt lat="39.34736277" lon="-0.31098378"><ele>5.8</ele><time>2022-10-31T12:57:49.0000000+00:00</time></trkpt><trkpt lat="39.34736277" lon="-0.31098378"><ele>5.8</ele><time>2022-10-31T12:57:50.0000000+00:00</time></trkpt><trkpt lat="39.34736277" lon="-0.31098378"><ele>5.8</ele><time>2022-10-31T12:57:51.0000000+00:00</time></trkpt><trkpt lat="39.34736277" lon="-0.31098378"><ele>5.8</ele><time>2022-10-31T12:57:52.0000000+00:00</time></trkpt><trkpt lat="39.34736277" lon="-0.31098378"><ele>5.8</ele><time>2022-10-31T12:57:53.0000000+00:00</time></trkpt><trkpt lat="39.34736277" lon="-0.31098378"><ele>5.8</ele><time>2022-10-31T12:57:54.0000000+00:00</time></trkpt><trkpt lat="39.34736277" lon="-0.31098378"><ele>5.8</ele><time>2022-10-31T12:57:55.0000000+00:00</time></trkpt><trkpt lat="39.34736277" lon="-0.31098378"><ele>5.8</ele><time>2022-10-31T12:57:56.0000000+00:00</time></trkpt><trkpt lat="39.34736277" lon="-0.31098378"><ele>5.8</ele><time>2022-10-31T12:57:57.0000000+00:00</time></trkpt><trkpt lat="39.34736277" lon="-0.31098378"><ele>5.8</ele><time>2022-10-31T12:57:58.0000000+00:00</time></trkpt><trkpt lat="39.34736277" lon="-0.31098378"><ele>5.8</ele><time>2022-10-31T12:57:59.0000000+00:00</time></trkpt><trkpt lat="39.34736277" lon="-0.31098378"><ele>5.8</ele><time>2022-10-31T12:58:00.0000000+00:00</time></trkpt><trkpt lat="39.34736277" lon="-0.31098378"><ele>5.8</ele><time>2022-10-31T12:58:01.0000000+00:00</time></trkpt><trkpt lat="39.34736277" lon="-0.31098378"><ele>5.8</ele><time>2022-10-31T12:58:02.0000000+00:00</time></trkpt><trkpt lat="39.34736277" lon="-0.31098378"><ele>5.8</ele><time>2022-10-31T12:58:03.0000000+00:00</time></trkpt><trkpt lat="39.34736277" lon="-0.31098378"><ele>5.8</ele><time>2022-10-31T12:58:04.0000000+00:00</time></trkpt><trkpt lat="39.34736277" lon="-0.31098378"><ele>5.8</ele><time>2022-10-31T12:58:05.0000000+00:00</time></trkpt><trkpt lat="39.34736277" lon="-0.31098378"><ele>5.8</ele><time>2022-10-31T12:58:06.0000000+00:00</time></trkpt><trkpt lat="39.34736277" lon="-0.31098378"><ele>5.8</ele><time>2022-10-31T12:58:07.0000000+00:00</time></trkpt><trkpt lat="39.34736277" lon="-0.31098378"><ele>5.8</ele><time>2022-10-31T12:58:08.0000000+00:00</time></trkpt><trkpt lat="39.34736277" lon="-0.31098378"><ele>5.8</ele><time>2022-10-31T12:58:09.0000000+00:00</time></trkpt><trkpt lat="39.34736277" lon="-0.31098378"><ele>5.8</ele><time>2022-10-31T12:58:10.0000000+00:00</time></trkpt><trkpt lat="39.34736277" lon="-0.31098378"><ele>5.8</ele><time>2022-10-31T12:58:11.0000000+00:00</time></trkpt><trkpt lat="39.34736277" lon="-0.31098378"><ele>5.8</ele><time>2022-10-31T12:58:12.0000000+00:00</time></trkpt><trkpt lat="39.34736277" lon="-0.31098378"><ele>5.8</ele><time>2022-10-31T12:58:13.0000000+00:00</time></trkpt><trkpt lat="39.34736277" lon="-0.31098378"><ele>5.8</ele><time>2022-10-31T12:58:14.0000000+00:00</time></trkpt><trkpt lat="39.34736277" lon="-0.31098378"><ele>5.8</ele><time>2022-10-31T12:58:15.0000000+00:00</time></trkpt><trkpt lat="39.34736277" lon="-0.31098378"><ele>5.8</ele><time>2022-10-31T12:58:16.0000000+00:00</time></trkpt><trkpt lat="39.34736277" lon="-0.31098378"><ele>5.8</ele><time>2022-10-31T12:58:17.0000000+00:00</time></trkpt><trkpt lat="39.34736277" lon="-0.31098378"><ele>5.8</ele><time>2022-10-31T12:58:18.0000000+00:00</time></trkpt><trkpt lat="39.34736277" lon="-0.31098378"><ele>5.8</ele><time>2022-10-31T12:58:19.0000000+00:00</time></trkpt><trkpt lat="39.34736277" lon="-0.31098378"><ele>5.8</ele><time>2022-10-31T12:58:20.0000000+00:00</time></trkpt><trkpt lat="39.34736277" lon="-0.31098378"><ele>5.8</ele><time>2022-10-31T12:58:21.0000000+00:00</time></trkpt><trkpt lat="39.34736277" lon="-0.31098378"><ele>5.8</ele><time>2022-10-31T12:58:22.0000000+00:00</time></trkpt><trkpt lat="39.34736277" lon="-0.31098378"><ele>5.8</ele><time>2022-10-31T12:58:23.0000000+00:00</time></trkpt><trkpt lat="39.34736277" lon="-0.31098378"><ele>5.8</ele><time>2022-10-31T12:58:24.0000000+00:00</time></trkpt><trkpt lat="39.34736277" lon="-0.31098378"><ele>5.8</ele><time>2022-10-31T12:58:25.0000000+00:00</time></trkpt><trkpt lat="39.34736277" lon="-0.31098378"><ele>5.8</ele><time>2022-10-31T12:58:26.0000000+00:00</time></trkpt><trkpt lat="39.34736277" lon="-0.31098378"><ele>5.8</ele><time>2022-10-31T12:58:27.0000000+00:00</time></trkpt><trkpt lat="39.34736277" lon="-0.31098378"><ele>5.8</ele><time>2022-10-31T12:58:28.0000000+00:00</time></trkpt><trkpt lat="39.34736277" lon="-0.31098378"><ele>5.8</ele><time>2022-10-31T12:58:29.0000000+00:00</time></trkpt><trkpt lat="39.34736277" lon="-0.31098378"><ele>5.8</ele><time>2022-10-31T12:58:30.0000000+00:00</time></trkpt><trkpt lat="39.34736277" lon="-0.31098378"><ele>5.8</ele><time>2022-10-31T12:58:31.0000000+00:00</time></trkpt><trkpt lat="39.34736277" lon="-0.31098378"><ele>5.8</ele><time>2022-10-31T12:58:32.0000000+00:00</time></trkpt><trkpt lat="39.34736277" lon="-0.31098378"><ele>5.8</ele><time>2022-10-31T12:58:33.0000000+00:00</time></trkpt><trkpt lat="39.34736277" lon="-0.31098378"><ele>5.8</ele><time>2022-10-31T12:58:34.0000000+00:00</time></trkpt><trkpt lat="39.34736277" lon="-0.31098378"><ele>5.8</ele><time>2022-10-31T12:58:35.0000000+00:00</time></trkpt><trkpt lat="39.34736277" lon="-0.31098378"><ele>5.8</ele><time>2022-10-31T12:58:36.0000000+00:00</time></trkpt><trkpt lat="39.34736277" lon="-0.31098378"><ele>5.8</ele><time>2022-10-31T12:58:37.0000000+00:00</time></trkpt><trkpt lat="39.34736277" lon="-0.31098378"><ele>5.8</ele><time>2022-10-31T12:58:38.0000000+00:00</time></trkpt><trkpt lat="39.34736277" lon="-0.31098378"><ele>5.8</ele><time>2022-10-31T12:58:39.0000000+00:00</time></trkpt><trkpt lat="39.34736277" lon="-0.31098378"><ele>5.8</ele><time>2022-10-31T12:58:40.0000000+00:00</time></trkpt><trkpt lat="39.34736277" lon="-0.31098378"><ele>5.8</ele><time>2022-10-31T12:58:41.0000000+00:00</time></trkpt><trkpt lat="39.34736277" lon="-0.31098378"><ele>5.8</ele><time>2022-10-31T12:58:42.0000000+00:00</time></trkpt><trkpt lat="39.34736277" lon="-0.31098378"><ele>5.8</ele><time>2022-10-31T12:58:43.0000000+00:00</time></trkpt><trkpt lat="39.34736277" lon="-0.31098378"><ele>5.8</ele><time>2022-10-31T12:58:44.0000000+00:00</time></trkpt><trkpt lat="39.34736277" lon="-0.31098378"><ele>5.8</ele><time>2022-10-31T12:58:45.0000000+00:00</time></trkpt><trkpt lat="39.34736277" lon="-0.31098378"><ele>5.8</ele><time>2022-10-31T12:58:46.0000000+00:00</time></trkpt><trkpt lat="39.34736277" lon="-0.31098378"><ele>5.8</ele><time>2022-10-31T12:58:47.0000000+00:00</time></trkpt><trkpt lat="39.34736277" lon="-0.31098378"><ele>5.8</ele><time>2022-10-31T12:58:48.0000000+00:00</time></trkpt><trkpt lat="39.34736277" lon="-0.31098378"><ele>5.8</ele><time>2022-10-31T12:58:49.0000000+00:00</time></trkpt><trkpt lat="39.34736277" lon="-0.31098378"><ele>5.8</ele><time>2022-10-31T12:58:50.0000000+00:00</time></trkpt><trkpt lat="39.34736277" lon="-0.31098378"><ele>5.8</ele><time>2022-10-31T12:58:51.0000000+00:00</time></trkpt><trkpt lat="39.34736277" lon="-0.31098378"><ele>5.8</ele><time>2022-10-31T12:58:52.0000000+00:00</time></trkpt><trkpt lat="39.34736277" lon="-0.31098378"><ele>5.8</ele><time>2022-10-31T12:58:53.0000000+00:00</time></trkpt><trkpt lat="39.34736277" lon="-0.31098378"><ele>5.8</ele><time>2022-10-31T12:58:54.0000000+00:00</time></trkpt><trkpt lat="39.34736277" lon="-0.31098378"><ele>5.8</ele><time>2022-10-31T12:58:55.0000000+00:00</time></trkpt><trkpt lat="39.34736277" lon="-0.31098378"><ele>5.8</ele><time>2022-10-31T12:58:56.0000000+00:00</time></trkpt><trkpt lat="39.34736277" lon="-0.31098378"><ele>5.8</ele><time>2022-10-31T12:58:57.0000000+00:00</time></trkpt><trkpt lat="39.34736277" lon="-0.31098378"><ele>5.8</ele><time>2022-10-31T12:58:58.0000000+00:00</time></trkpt><trkpt lat="39.34736277" lon="-0.31098378"><ele>5.8</ele><time>2022-10-31T12:58:59.0000000+00:00</time></trkpt><trkpt lat="39.34736277" lon="-0.31098378"><ele>5.8</ele><time>2022-10-31T12:59:00.0000000+00:00</time></trkpt><trkpt lat="39.34736277" lon="-0.31098378"><ele>5.8</ele><time>2022-10-31T12:59:01.0000000+00:00</time></trkpt><trkpt lat="39.34736277" lon="-0.31098378"><ele>5.8</ele><time>2022-10-31T12:59:02.0000000+00:00</time></trkpt><trkpt lat="39.34736378" lon="-0.31098696"><ele>5.8</ele><time>2022-10-31T12:59:03.0000000+00:00</time></trkpt><trkpt lat="39.34736252" lon="-0.31099023"><ele>5.8</ele><time>2022-10-31T12:59:04.0000000+00:00</time></trkpt><trkpt lat="39.34736252" lon="-0.31099023"><ele>5.8</ele><time>2022-10-31T12:59:05.0000000+00:00</time></trkpt><trkpt lat="39.34736252" lon="-0.31099023"><ele>5.8</ele><time>2022-10-31T12:59:06.0000000+00:00</time></trkpt><trkpt lat="39.34736277" lon="-0.31098696"><ele>5.8</ele><time>2022-10-31T12:59:07.0000000+00:00</time></trkpt><trkpt lat="39.34736495" lon="-0.31098453"><ele>5.8</ele><time>2022-10-31T12:59:08.0000000+00:00</time></trkpt><trkpt lat="39.34736495" lon="-0.31098453"><ele>5.8</ele><time>2022-10-31T12:59:09.0000000+00:00</time></trkpt><trkpt lat="39.34736495" lon="-0.31098453"><ele>5.8</ele><time>2022-10-31T12:59:10.0000000+00:00</time></trkpt><trkpt lat="39.34736495" lon="-0.31098453"><ele>5.8</ele><time>2022-10-31T12:59:11.0000000+00:00</time></trkpt><trkpt lat="39.34736495" lon="-0.31098453"><ele>5.8</ele><time>2022-10-31T12:59:12.0000000+00:00</time></trkpt><trkpt lat="39.34736495" lon="-0.31098453"><ele>5.8</ele><time>2022-10-31T12:59:13.0000000+00:00</time></trkpt><trkpt lat="39.34736495" lon="-0.31098453"><ele>5.8</ele><time>2022-10-31T12:59:14.0000000+00:00</time></trkpt><trkpt lat="39.34736495" lon="-0.31098453"><ele>5.8</ele><time>2022-10-31T12:59:15.0000000+00:00</time></trkpt><trkpt lat="39.34736495" lon="-0.31098453"><ele>5.8</ele><time>2022-10-31T12:59:16.0000000+00:00</time></trkpt><trkpt lat="39.34736495" lon="-0.31098453"><ele>5.8</ele><time>2022-10-31T12:59:17.0000000+00:00</time></trkpt><trkpt lat="39.34736495" lon="-0.31098453"><ele>5.8</ele><time>2022-10-31T12:59:18.0000000+00:00</time></trkpt><trkpt lat="39.34736495" lon="-0.31098453"><ele>5.8</ele><time>2022-10-31T12:59:19.0000000+00:00</time></trkpt><trkpt lat="39.34736495" lon="-0.31098453"><ele>5.8</ele><time>2022-10-31T12:59:20.0000000+00:00</time></trkpt><trkpt lat="39.34736495" lon="-0.31098453"><ele>5.8</ele><time>2022-10-31T12:59:21.0000000+00:00</time></trkpt><trkpt lat="39.34736495" lon="-0.31098453"><ele>5.8</ele><time>2022-10-31T12:59:22.0000000+00:00</time></trkpt><trkpt lat="39.34736403" lon="-0.31098705"><ele>5.8</ele><time>2022-10-31T12:59:23.0000000+00:00</time></trkpt><trkpt lat="39.34736084" lon="-0.31099007"><ele>5.8</ele><time>2022-10-31T12:59:24.0000000+00:00</time></trkpt><trkpt lat="39.34736084" lon="-0.31099007"><ele>5.8</ele><time>2022-10-31T12:59:25.0000000+00:00</time></trkpt><trkpt lat="39.34736084" lon="-0.31099007"><ele>5.8</ele><time>2022-10-31T12:59:26.0000000+00:00</time></trkpt><trkpt lat="39.34736084" lon="-0.31099007"><ele>5.8</ele><time>2022-10-31T12:59:27.0000000+00:00</time></trkpt><trkpt lat="39.34736084" lon="-0.31099007"><ele>5.8</ele><time>2022-10-31T12:59:28.0000000+00:00</time></trkpt><trkpt lat="39.34736084" lon="-0.31099007"><ele>5.8</ele><time>2022-10-31T12:59:29.0000000+00:00</time></trkpt><trkpt lat="39.34736084" lon="-0.31099007"><ele>5.8</ele><time>2022-10-31T12:59:30.0000000+00:00</time></trkpt><trkpt lat="39.34736084" lon="-0.31099007"><ele>5.8</ele><time>2022-10-31T12:59:31.0000000+00:00</time></trkpt><trkpt lat="39.34736084" lon="-0.31099007"><ele>5.8</ele><time>2022-10-31T12:59:32.0000000+00:00</time></trkpt><trkpt lat="39.34736084" lon="-0.31099007"><ele>5.8</ele><time>2022-10-31T12:59:33.0000000+00:00</time></trkpt><trkpt lat="39.34736084" lon="-0.31099007"><ele>5.8</ele><time>2022-10-31T12:59:34.0000000+00:00</time></trkpt><trkpt lat="39.34736084" lon="-0.31099007"><ele>5.8</ele><time>2022-10-31T12:59:35.0000000+00:00</time></trkpt><trkpt lat="39.34736084" lon="-0.31099007"><ele>5.8</ele><time>2022-10-31T12:59:36.0000000+00:00</time></trkpt><trkpt lat="39.34736084" lon="-0.31099007"><ele>5.8</ele><time>2022-10-31T12:59:37.0000000+00:00</time></trkpt><trkpt lat="39.34736084" lon="-0.31099007"><ele>5.8</ele><time>2022-10-31T12:59:38.0000000+00:00</time></trkpt><trkpt lat="39.34736084" lon="-0.31099007"><ele>5.8</ele><time>2022-10-31T12:59:39.0000000+00:00</time></trkpt><trkpt lat="39.34736218" lon="-0.31098638"><ele>5.8</ele><time>2022-10-31T12:59:40.0000000+00:00</time></trkpt><trkpt lat="39.34736311" lon="-0.31098303"><ele>5.8</ele><time>2022-10-31T12:59:41.0000000+00:00</time></trkpt><trkpt lat="39.34736311" lon="-0.31098303"><ele>5.8</ele><time>2022-10-31T12:59:42.0000000+00:00</time></trkpt><trkpt lat="39.34736311" lon="-0.31098303"><ele>5.8</ele><time>2022-10-31T12:59:43.0000000+00:00</time></trkpt><trkpt lat="39.34736311" lon="-0.31098303"><ele>5.8</ele><time>2022-10-31T12:59:44.0000000+00:00</time></trkpt><trkpt lat="39.34736311" lon="-0.31098303"><ele>5.8</ele><time>2022-10-31T12:59:45.0000000+00:00</time></trkpt><trkpt lat="39.34736311" lon="-0.31098303"><ele>5.8</ele><time>2022-10-31T12:59:46.0000000+00:00</time></trkpt><trkpt lat="39.34736311" lon="-0.31098303"><ele>5.8</ele><time>2022-10-31T12:59:47.0000000+00:00</time></trkpt><trkpt lat="39.34736311" lon="-0.31098303"><ele>5.8</ele><time>2022-10-31T12:59:48.0000000+00:00</time></trkpt><trkpt lat="39.34736311" lon="-0.31098303"><ele>5.8</ele><time>2022-10-31T12:59:49.0000000+00:00</time></trkpt><trkpt lat="39.34736311" lon="-0.31098303"><ele>5.8</ele><time>2022-10-31T12:59:50.0000000+00:00</time></trkpt><trkpt lat="39.34736311" lon="-0.31098303"><ele>5.8</ele><time>2022-10-31T12:59:51.0000000+00:00</time></trkpt><trkpt lat="39.34736311" lon="-0.31098303"><ele>5.8</ele><time>2022-10-31T12:59:52.0000000+00:00</time></trkpt><trkpt lat="39.34736311" lon="-0.31098303"><ele>5.8</ele><time>2022-10-31T12:59:53.0000000+00:00</time></trkpt><trkpt lat="39.34736311" lon="-0.31098303"><ele>5.8</ele><time>2022-10-31T12:59:54.0000000+00:00</time></trkpt><trkpt lat="39.34736311" lon="-0.31098303"><ele>5.8</ele><time>2022-10-31T12:59:55.0000000+00:00</time></trkpt><trkpt lat="39.34736311" lon="-0.31098303"><ele>5.8</ele><time>2022-10-31T12:59:56.0000000+00:00</time></trkpt><trkpt lat="39.34736311" lon="-0.31098303"><ele>5.8</ele><time>2022-10-31T12:59:57.0000000+00:00</time></trkpt><trkpt lat="39.34736311" lon="-0.31098303"><ele>5.8</ele><time>2022-10-31T12:59:58.0000000+00:00</time></trkpt><trkpt lat="39.34736311" lon="-0.31098303"><ele>5.8</ele><time>2022-10-31T12:59:59.0000000+00:00</time></trkpt><trkpt lat="39.34736311" lon="-0.31098303"><ele>5.8</ele><time>2022-10-31T13:00:00.0000000+00:00</time></trkpt><trkpt lat="39.34736311" lon="-0.31098303"><ele>5.8</ele><time>2022-10-31T13:00:01.0000000+00:00</time></trkpt><trkpt lat="39.34736311" lon="-0.31098303"><ele>5.8</ele><time>2022-10-31T13:00:02.0000000+00:00</time></trkpt><trkpt lat="39.34736311" lon="-0.31098303"><ele>5.8</ele><time>2022-10-31T13:00:03.0000000+00:00</time></trkpt><trkpt lat="39.34736311" lon="-0.31098303"><ele>5.8</ele><time>2022-10-31T13:00:04.0000000+00:00</time></trkpt><trkpt lat="39.34736311" lon="-0.31098303"><ele>5.8</ele><time>2022-10-31T13:00:05.0000000+00:00</time></trkpt><trkpt lat="39.34736311" lon="-0.31098303"><ele>5.8</ele><time>2022-10-31T13:00:06.0000000+00:00</time></trkpt><trkpt lat="39.34736311" lon="-0.31098303"><ele>5.8</ele><time>2022-10-31T13:00:07.0000000+00:00</time></trkpt><trkpt lat="39.34736311" lon="-0.31098303"><ele>5.8</ele><time>2022-10-31T13:00:08.0000000+00:00</time></trkpt><trkpt lat="39.34736311" lon="-0.31098303"><ele>5.8</ele><time>2022-10-31T13:00:09.0000000+00:00</time></trkpt><trkpt lat="39.34736311" lon="-0.31098303"><ele>5.8</ele><time>2022-10-31T13:00:10.0000000+00:00</time></trkpt><trkpt lat="39.34736311" lon="-0.31098303"><ele>5.8</ele><time>2022-10-31T13:00:11.0000000+00:00</time></trkpt><trkpt lat="39.34736311" lon="-0.31098303"><ele>5.8</ele><time>2022-10-31T13:00:12.0000000+00:00</time></trkpt><trkpt lat="39.34736311" lon="-0.31098303"><ele>5.8</ele><time>2022-10-31T13:00:13.0000000+00:00</time></trkpt><trkpt lat="39.34736311" lon="-0.31098303"><ele>5.8</ele><time>2022-10-31T13:00:14.0000000+00:00</time></trkpt><trkpt lat="39.34736311" lon="-0.31098303"><ele>5.8</ele><time>2022-10-31T13:00:15.0000000+00:00</time></trkpt><trkpt lat="39.34736311" lon="-0.31098303"><ele>5.8</ele><time>2022-10-31T13:00:16.0000000+00:00</time></trkpt><trkpt lat="39.34736311" lon="-0.31098303"><ele>5.8</ele><time>2022-10-31T13:00:17.0000000+00:00</time></trkpt><trkpt lat="39.34736311" lon="-0.31098303"><ele>5.8</ele><time>2022-10-31T13:00:18.0000000+00:00</time></trkpt><trkpt lat="39.34736311" lon="-0.31098303"><ele>5.8</ele><time>2022-10-31T13:00:19.0000000+00:00</time></trkpt><trkpt lat="39.34736311" lon="-0.31098303"><ele>5.8</ele><time>2022-10-31T13:00:20.0000000+00:00</time></trkpt><trkpt lat="39.34736311" lon="-0.31098303"><ele>5.8</ele><time>2022-10-31T13:00:21.0000000+00:00</time></trkpt><trkpt lat="39.34736311" lon="-0.31098303"><ele>5.8</ele><time>2022-10-31T13:00:22.0000000+00:00</time></trkpt><trkpt lat="39.34736311" lon="-0.31098303"><ele>5.8</ele><time>2022-10-31T13:00:23.0000000+00:00</time></trkpt><trkpt lat="39.34736311" lon="-0.31098303"><ele>5.8</ele><time>2022-10-31T13:00:24.0000000+00:00</time></trkpt><trkpt lat="39.34736311" lon="-0.31098303"><ele>5.8</ele><time>2022-10-31T13:00:25.0000000+00:00</time></trkpt><trkpt lat="39.34736311" lon="-0.31098303"><ele>5.8</ele><time>2022-10-31T13:00:26.0000000+00:00</time></trkpt><trkpt lat="39.34736311" lon="-0.31098303"><ele>5.8</ele><time>2022-10-31T13:00:27.0000000+00:00</time></trkpt><trkpt lat="39.34736311" lon="-0.31098303"><ele>5.8</ele><time>2022-10-31T13:00:28.0000000+00:00</time></trkpt><trkpt lat="39.34736311" lon="-0.31098303"><ele>5.8</ele><time>2022-10-31T13:00:29.0000000+00:00</time></trkpt><trkpt lat="39.34736311" lon="-0.31098303"><ele>5.8</ele><time>2022-10-31T13:00:30.0000000+00:00</time></trkpt><trkpt lat="39.34736311" lon="-0.31098303"><ele>5.8</ele><time>2022-10-31T13:00:31.0000000+00:00</time></trkpt><trkpt lat="39.34736311" lon="-0.31098303"><ele>5.8</ele><time>2022-10-31T13:00:32.0000000+00:00</time></trkpt><trkpt lat="39.34736311" lon="-0.31098303"><ele>5.8</ele><time>2022-10-31T13:00:33.0000000+00:00</time></trkpt><trkpt lat="39.34736311" lon="-0.31098303"><ele>5.8</ele><time>2022-10-31T13:00:34.0000000+00:00</time></trkpt><trkpt lat="39.34736311" lon="-0.31098303"><ele>5.8</ele><time>2022-10-31T13:00:35.0000000+00:00</time></trkpt><trkpt lat="39.34736311" lon="-0.31098303"><ele>5.8</ele><time>2022-10-31T13:00:36.0000000+00:00</time></trkpt><trkpt lat="39.34736311" lon="-0.31098303"><ele>5.8</ele><time>2022-10-31T13:00:37.0000000+00:00</time></trkpt><trkpt lat="39.34736311" lon="-0.31098303"><ele>5.8</ele><time>2022-10-31T13:00:38.0000000+00:00</time></trkpt><trkpt lat="39.34736311" lon="-0.31098303"><ele>5.8</ele><time>2022-10-31T13:00:39.0000000+00:00</time></trkpt><trkpt lat="39.34736311" lon="-0.31098303"><ele>5.8</ele><time>2022-10-31T13:00:40.0000000+00:00</time></trkpt><trkpt lat="39.34736311" lon="-0.31098303"><ele>5.8</ele><time>2022-10-31T13:00:41.0000000+00:00</time></trkpt><trkpt lat="39.34736311" lon="-0.31098303"><ele>5.8</ele><time>2022-10-31T13:00:42.0000000+00:00</time></trkpt><trkpt lat="39.34736311" lon="-0.31098303"><ele>5.8</ele><time>2022-10-31T13:00:43.0000000+00:00</time></trkpt><trkpt lat="39.34736311" lon="-0.31098303"><ele>5.8</ele><time>2022-10-31T13:00:44.0000000+00:00</time></trkpt><trkpt lat="39.34736311" lon="-0.31098303"><ele>5.8</ele><time>2022-10-31T13:00:45.0000000+00:00</time></trkpt><trkpt lat="39.34736311" lon="-0.31098303"><ele>5.8</ele><time>2022-10-31T13:00:46.0000000+00:00</time></trkpt><trkpt lat="39.34736311" lon="-0.31098303"><ele>5.8</ele><time>2022-10-31T13:00:47.0000000+00:00</time></trkpt><trkpt lat="39.34736311" lon="-0.31098303"><ele>5.8</ele><time>2022-10-31T13:00:48.0000000+00:00</time></trkpt><trkpt lat="39.34736311" lon="-0.31098303"><ele>5.8</ele><time>2022-10-31T13:00:49.0000000+00:00</time></trkpt><trkpt lat="39.34736311" lon="-0.31098303"><ele>5.8</ele><time>2022-10-31T13:00:50.0000000+00:00</time></trkpt><trkpt lat="39.34736311" lon="-0.31098303"><ele>5.8</ele><time>2022-10-31T13:00:51.0000000+00:00</time></trkpt><trkpt lat="39.34736311" lon="-0.31098303"><ele>5.8</ele><time>2022-10-31T13:00:52.0000000+00:00</time></trkpt><trkpt lat="39.34736311" lon="-0.31098303"><ele>5.8</ele><time>2022-10-31T13:00:53.0000000+00:00</time></trkpt><trkpt lat="39.34736311" lon="-0.31098303"><ele>5.8</ele><time>2022-10-31T13:00:54.0000000+00:00</time></trkpt><trkpt lat="39.34736311" lon="-0.31098303"><ele>5.8</ele><time>2022-10-31T13:00:55.0000000+00:00</time></trkpt><trkpt lat="39.34736311" lon="-0.31098303"><ele>5.8</ele><time>2022-10-31T13:00:56.0000000+00:00</time></trkpt><trkpt lat="39.34736311" lon="-0.31098303"><ele>5.8</ele><time>2022-10-31T13:00:57.0000000+00:00</time></trkpt><trkpt lat="39.34736311" lon="-0.31098303"><ele>5.8</ele><time>2022-10-31T13:00:58.0000000+00:00</time></trkpt><trkpt lat="39.34736311" lon="-0.31098303"><ele>5.8</ele><time>2022-10-31T13:00:59.0000000+00:00</time></trkpt><trkpt lat="39.34736311" lon="-0.31098303"><ele>5.8</ele><time>2022-10-31T13:01:00.0000000+00:00</time></trkpt><trkpt lat="39.34736311" lon="-0.31098303"><ele>5.8</ele><time>2022-10-31T13:01:01.0000000+00:00</time></trkpt><trkpt lat="39.34736311" lon="-0.31098303"><ele>5.8</ele><time>2022-10-31T13:01:02.0000000+00:00</time></trkpt><trkpt lat="39.34736311" lon="-0.31098303"><ele>5.8</ele><time>2022-10-31T13:01:03.0000000+00:00</time></trkpt><trkpt lat="39.34736311" lon="-0.31098303"><ele>5.8</ele><time>2022-10-31T13:01:04.0000000+00:00</time></trkpt><trkpt lat="39.34736311" lon="-0.31098303"><ele>5.8</ele><time>2022-10-31T13:01:05.0000000+00:00</time></trkpt><trkpt lat="39.34736311" lon="-0.31098303"><ele>5.8</ele><time>2022-10-31T13:01:06.0000000+00:00</time></trkpt><trkpt lat="39.34736311" lon="-0.31098303"><ele>5.8</ele><time>2022-10-31T13:01:07.0000000+00:00</time></trkpt><trkpt lat="39.34736311" lon="-0.31098303"><ele>5.8</ele><time>2022-10-31T13:01:08.0000000+00:00</time></trkpt><trkpt lat="39.34736311" lon="-0.31098303"><ele>5.8</ele><time>2022-10-31T13:01:09.0000000+00:00</time></trkpt><trkpt lat="39.34736311" lon="-0.31098303"><ele>5.8</ele><time>2022-10-31T13:01:10.0000000+00:00</time></trkpt><trkpt lat="39.34736311" lon="-0.31098303"><ele>5.8</ele><time>2022-10-31T13:01:11.0000000+00:00</time></trkpt><trkpt lat="39.34736311" lon="-0.31098303"><ele>5.8</ele><time>2022-10-31T13:01:12.0000000+00:00</time></trkpt><trkpt lat="39.34736311" lon="-0.31098303"><ele>5.8</ele><time>2022-10-31T13:01:13.0000000+00:00</time></trkpt><trkpt lat="39.34736311" lon="-0.31098303"><ele>5.8</ele><time>2022-10-31T13:01:14.0000000+00:00</time></trkpt><trkpt lat="39.34736311" lon="-0.31098303"><ele>5.8</ele><time>2022-10-31T13:01:15.0000000+00:00</time></trkpt><trkpt lat="39.34736311" lon="-0.31098303"><ele>5.8</ele><time>2022-10-31T13:01:16.0000000+00:00</time></trkpt><trkpt lat="39.34736311" lon="-0.31098303"><ele>5.8</ele><time>2022-10-31T13:01:17.0000000+00:00</time></trkpt><trkpt lat="39.34736311" lon="-0.31098303"><ele>5.8</ele><time>2022-10-31T13:01:18.0000000+00:00</time></trkpt><trkpt lat="39.34736311" lon="-0.31098303"><ele>5.8</ele><time>2022-10-31T13:01:19.0000000+00:00</time></trkpt><trkpt lat="39.34736311" lon="-0.31098303"><ele>5.8</ele><time>2022-10-31T13:01:20.0000000+00:00</time></trkpt><trkpt lat="39.34736311" lon="-0.31098303"><ele>5.8</ele><time>2022-10-31T13:01:21.0000000+00:00</time></trkpt><trkpt lat="39.34736311" lon="-0.31098303"><ele>5.8</ele><time>2022-10-31T13:01:22.0000000+00:00</time></trkpt><trkpt lat="39.34736311" lon="-0.31098303"><ele>5.8</ele><time>2022-10-31T13:01:23.0000000+00:00</time></trkpt><trkpt lat="39.34736311" lon="-0.31098303"><ele>5.8</ele><time>2022-10-31T13:01:24.0000000+00:00</time></trkpt><trkpt lat="39.34736311" lon="-0.31098303"><ele>5.8</ele><time>2022-10-31T13:01:25.0000000+00:00</time></trkpt><trkpt lat="39.34736311" lon="-0.31098303"><ele>5.8</ele><time>2022-10-31T13:01:26.0000000+00:00</time></trkpt><trkpt lat="39.34736311" lon="-0.31098303"><ele>5.8</ele><time>2022-10-31T13:01:27.0000000+00:00</time></trkpt><trkpt lat="39.34736311" lon="-0.31098303"><ele>5.8</ele><time>2022-10-31T13:01:28.0000000+00:00</time></trkpt><trkpt lat="39.34736311" lon="-0.31098303"><ele>5.8</ele><time>2022-10-31T13:01:29.0000000+00:00</time></trkpt><trkpt lat="39.34736311" lon="-0.31098303"><ele>5.8</ele><time>2022-10-31T13:01:30.0000000+00:00</time></trkpt><trkpt lat="39.34736311" lon="-0.31098303"><ele>5.8</ele><time>2022-10-31T13:01:31.0000000+00:00</time></trkpt><trkpt lat="39.34736311" lon="-0.31098303"><ele>5.8</ele><time>2022-10-31T13:01:32.0000000+00:00</time></trkpt><trkpt lat="39.34736311" lon="-0.31098303"><ele>5.8</ele><time>2022-10-31T13:01:33.0000000+00:00</time></trkpt><trkpt lat="39.34736311" lon="-0.31098303"><ele>5.8</ele><time>2022-10-31T13:01:34.0000000+00:00</time></trkpt><trkpt lat="39.34736311" lon="-0.31098303"><ele>5.8</ele><time>2022-10-31T13:01:35.0000000+00:00</time></trkpt><trkpt lat="39.34736311" lon="-0.31098303"><ele>5.8</ele><time>2022-10-31T13:01:36.0000000+00:00</time></trkpt><trkpt lat="39.34736311" lon="-0.31098303"><ele>5.8</ele><time>2022-10-31T13:01:37.0000000+00:00</time></trkpt><trkpt lat="39.34736311" lon="-0.31098303"><ele>5.8</ele><time>2022-10-31T13:01:38.0000000+00:00</time></trkpt><trkpt lat="39.34736311" lon="-0.31098303"><ele>5.8</ele><time>2022-10-31T13:01:39.0000000+00:00</time></trkpt><trkpt lat="39.34736311" lon="-0.31098303"><ele>5.8</ele><time>2022-10-31T13:01:40.0000000+00:00</time></trkpt><trkpt lat="39.34736311" lon="-0.31098303"><ele>5.8</ele><time>2022-10-31T13:01:41.0000000+00:00</time></trkpt><trkpt lat="39.34736311" lon="-0.31098303"><ele>5.8</ele><time>2022-10-31T13:01:42.0000000+00:00</time></trkpt><trkpt lat="39.34736311" lon="-0.31098303"><ele>5.8</ele><time>2022-10-31T13:01:43.0000000+00:00</time></trkpt><trkpt lat="39.34736311" lon="-0.31098303"><ele>5.8</ele><time>2022-10-31T13:01:44.0000000+00:00</time></trkpt><trkpt lat="39.34736311" lon="-0.31098303"><ele>5.8</ele><time>2022-10-31T13:01:45.0000000+00:00</time></trkpt><trkpt lat="39.34736311" lon="-0.31098303"><ele>5.8</ele><time>2022-10-31T13:01:46.0000000+00:00</time></trkpt><trkpt lat="39.34736311" lon="-0.31098303"><ele>5.8</ele><time>2022-10-31T13:01:47.0000000+00:00</time></trkpt><trkpt lat="39.34736311" lon="-0.31098303"><ele>5.8</ele><time>2022-10-31T13:01:48.0000000+00:00</time></trkpt><trkpt lat="39.34736311" lon="-0.31098303"><ele>5.8</ele><time>2022-10-31T13:01:49.0000000+00:00</time></trkpt><trkpt lat="39.34736311" lon="-0.31098303"><ele>5.8</ele><time>2022-10-31T13:01:50.0000000+00:00</time></trkpt><trkpt lat="39.34736311" lon="-0.31098303"><ele>5.8</ele><time>2022-10-31T13:01:51.0000000+00:00</time></trkpt><trkpt lat="39.34736311" lon="-0.31098303"><ele>5.8</ele><time>2022-10-31T13:01:52.0000000+00:00</time></trkpt><trkpt lat="39.34736311" lon="-0.31098303"><ele>5.8</ele><time>2022-10-31T13:01:53.0000000+00:00</time></trkpt><trkpt lat="39.34736311" lon="-0.31098303"><ele>5.8</ele><time>2022-10-31T13:01:54.0000000+00:00</time></trkpt><trkpt lat="39.34736311" lon="-0.31098303"><ele>5.8</ele><time>2022-10-31T13:01:55.0000000+00:00</time></trkpt><trkpt lat="39.34736311" lon="-0.31098303"><ele>5.8</ele><time>2022-10-31T13:01:56.0000000+00:00</time></trkpt><trkpt lat="39.34736311" lon="-0.31098303"><ele>5.8</ele><time>2022-10-31T13:01:57.0000000+00:00</time></trkpt><trkpt lat="39.34736311" lon="-0.31098303"><ele>5.8</ele><time>2022-10-31T13:01:58.0000000+00:00</time></trkpt><trkpt lat="39.34736311" lon="-0.31098303"><ele>5.8</ele><time>2022-10-31T13:01:59.0000000+00:00</time></trkpt><trkpt lat="39.34736311" lon="-0.31098303"><ele>5.8</ele><time>2022-10-31T13:02:00.0000000+00:00</time></trkpt><trkpt lat="39.34736311" lon="-0.31098303"><ele>5.8</ele><time>2022-10-31T13:02:01.0000000+00:00</time></trkpt><trkpt lat="39.34736311" lon="-0.31098303"><ele>5.8</ele><time>2022-10-31T13:02:02.0000000+00:00</time></trkpt><trkpt lat="39.34736311" lon="-0.31098303"><ele>5.8</ele><time>2022-10-31T13:02:03.0000000+00:00</time></trkpt><trkpt lat="39.34736311" lon="-0.31098303"><ele>5.8</ele><time>2022-10-31T13:02:04.0000000+00:00</time></trkpt><trkpt lat="39.34736311" lon="-0.31098303"><ele>5.8</ele><time>2022-10-31T13:02:05.0000000+00:00</time></trkpt><trkpt lat="39.34736311" lon="-0.31098303"><ele>5.8</ele><time>2022-10-31T13:02:06.0000000+00:00</time></trkpt><trkpt lat="39.34736311" lon="-0.31098303"><ele>5.8</ele><time>2022-10-31T13:02:07.0000000+00:00</time></trkpt><trkpt lat="39.34736311" lon="-0.31098303"><ele>5.8</ele><time>2022-10-31T13:02:08.0000000+00:00</time></trkpt><trkpt lat="39.34736311" lon="-0.31098303"><ele>5.8</ele><time>2022-10-31T13:02:09.0000000+00:00</time></trkpt><trkpt lat="39.34736311" lon="-0.31098303"><ele>5.8</ele><time>2022-10-31T13:02:10.0000000+00:00</time></trkpt><trkpt lat="39.34736311" lon="-0.31098303"><ele>5.8</ele><time>2022-10-31T13:02:11.0000000+00:00</time></trkpt><trkpt lat="39.34736311" lon="-0.31098303"><ele>5.8</ele><time>2022-10-31T13:02:12.0000000+00:00</time></trkpt><trkpt lat="39.34736311" lon="-0.31098303"><ele>5.8</ele><time>2022-10-31T13:02:13.0000000+00:00</time></trkpt><trkpt lat="39.34736311" lon="-0.31098303"><ele>5.8</ele><time>2022-10-31T13:02:14.0000000+00:00</time></trkpt><trkpt lat="39.34736311" lon="-0.31098303"><ele>5.8</ele><time>2022-10-31T13:02:15.0000000+00:00</time></trkpt><trkpt lat="39.34736311" lon="-0.31098303"><ele>5.8</ele><time>2022-10-31T13:02:16.0000000+00:00</time></trkpt><trkpt lat="39.34736311" lon="-0.31098303"><ele>5.8</ele><time>2022-10-31T13:02:17.0000000+00:00</time></trkpt><trkpt lat="39.34736311" lon="-0.31098303"><ele>5.8</ele><time>2022-10-31T13:02:18.0000000+00:00</time></trkpt><trkpt lat="39.34736311" lon="-0.31098303"><ele>5.8</ele><time>2022-10-31T13:02:19.0000000+00:00</time></trkpt><trkpt lat="39.34736311" lon="-0.31098303"><ele>5.8</ele><time>2022-10-31T13:02:20.0000000+00:00</time></trkpt><trkpt lat="39.34736311" lon="-0.31098303"><ele>5.8</ele><time>2022-10-31T13:02:21.0000000+00:00</time></trkpt><trkpt lat="39.34736311" lon="-0.31098303"><ele>5.8</ele><time>2022-10-31T13:02:22.0000000+00:00</time></trkpt><trkpt lat="39.34736311" lon="-0.31098303"><ele>5.8</ele><time>2022-10-31T13:02:23.0000000+00:00</time></trkpt><trkpt lat="39.34736311" lon="-0.31098303"><ele>5.8</ele><time>2022-10-31T13:02:24.0000000+00:00</time></trkpt><trkpt lat="39.34736311" lon="-0.31098303"><ele>5.8</ele><time>2022-10-31T13:02:25.0000000+00:00</time></trkpt><trkpt lat="39.34736311" lon="-0.31098303"><ele>5.8</ele><time>2022-10-31T13:02:26.0000000+00:00</time></trkpt><trkpt lat="39.34736311" lon="-0.31098303"><ele>5.8</ele><time>2022-10-31T13:02:27.0000000+00:00</time></trkpt><trkpt lat="39.34736311" lon="-0.31098303"><ele>5.8</ele><time>2022-10-31T13:02:28.0000000+00:00</time></trkpt><trkpt lat="39.34736311" lon="-0.31098303"><ele>5.8</ele><time>2022-10-31T13:02:29.0000000+00:00</time></trkpt><trkpt lat="39.34736311" lon="-0.31098303"><ele>5.8</ele><time>2022-10-31T13:02:30.0000000+00:00</time></trkpt><trkpt lat="39.34736311" lon="-0.31098303"><ele>5.8</ele><time>2022-10-31T13:02:31.0000000+00:00</time></trkpt><trkpt lat="39.34736311" lon="-0.31098303"><ele>5.8</ele><time>2022-10-31T13:02:32.0000000+00:00</time></trkpt><trkpt lat="39.34736311" lon="-0.31098303"><ele>5.8</ele><time>2022-10-31T13:02:33.0000000+00:00</time></trkpt><trkpt lat="39.34736311" lon="-0.31098303"><ele>5.8</ele><time>2022-10-31T13:02:34.0000000+00:00</time></trkpt><trkpt lat="39.34736311" lon="-0.31098303"><ele>5.8</ele><time>2022-10-31T13:02:35.0000000+00:00</time></trkpt><trkpt lat="39.34736311" lon="-0.31098303"><ele>5.8</ele><time>2022-10-31T13:02:36.0000000+00:00</time></trkpt><trkpt lat="39.34736311" lon="-0.31098303"><ele>5.8</ele><time>2022-10-31T13:02:37.0000000+00:00</time></trkpt><trkpt lat="39.34736311" lon="-0.31098303"><ele>5.8</ele><time>2022-10-31T13:02:38.0000000+00:00</time></trkpt><trkpt lat="39.34736311" lon="-0.31098303"><ele>5.8</ele><time>2022-10-31T13:02:39.0000000+00:00</time></trkpt><trkpt lat="39.34736311" lon="-0.31098303"><ele>5.8</ele><time>2022-10-31T13:02:40.0000000+00:00</time></trkpt><trkpt lat="39.34736311" lon="-0.31098303"><ele>5.8</ele><time>2022-10-31T13:02:41.0000000+00:00</time></trkpt><trkpt lat="39.34736311" lon="-0.31098303"><ele>5.8</ele><time>2022-10-31T13:02:42.0000000+00:00</time></trkpt><trkpt lat="39.34736311" lon="-0.31098303"><ele>5.8</ele><time>2022-10-31T13:02:43.0000000+00:00</time></trkpt><trkpt lat="39.34736311" lon="-0.31098303"><ele>5.8</ele><time>2022-10-31T13:02:44.0000000+00:00</time></trkpt><trkpt lat="39.34736311" lon="-0.31098303"><ele>5.8</ele><time>2022-10-31T13:02:45.0000000+00:00</time></trkpt><trkpt lat="39.34736311" lon="-0.31098303"><ele>5.8</ele><time>2022-10-31T13:02:46.0000000+00:00</time></trkpt><trkpt lat="39.34736311" lon="-0.31098303"><ele>5.8</ele><time>2022-10-31T13:02:47.0000000+00:00</time></trkpt><trkpt lat="39.34736311" lon="-0.31098303"><ele>5.8</ele><time>2022-10-31T13:02:48.0000000+00:00</time></trkpt><trkpt lat="39.34736311" lon="-0.31098303"><ele>5.8</ele><time>2022-10-31T13:02:49.0000000+00:00</time></trkpt><trkpt lat="39.34736311" lon="-0.31098303"><ele>5.8</ele><time>2022-10-31T13:02:50.0000000+00:00</time></trkpt><trkpt lat="39.34736311" lon="-0.31098303"><ele>5.8</ele><time>2022-10-31T13:02:51.0000000+00:00</time></trkpt><trkpt lat="39.34736311" lon="-0.31098303"><ele>5.8</ele><time>2022-10-31T13:02:52.0000000+00:00</time></trkpt><trkpt lat="39.34736311" lon="-0.31098303"><ele>5.8</ele><time>2022-10-31T13:02:53.0000000+00:00</time></trkpt><trkpt lat="39.34736311" lon="-0.31098303"><ele>5.8</ele><time>2022-10-31T13:02:54.0000000+00:00</time></trkpt><trkpt lat="39.34736311" lon="-0.31098303"><ele>5.8</ele><time>2022-10-31T13:02:55.0000000+00:00</time></trkpt><trkpt lat="39.34736311" lon="-0.31098303"><ele>5.8</ele><time>2022-10-31T13:02:56.0000000+00:00</time></trkpt><trkpt lat="39.34736311" lon="-0.31098303"><ele>5.8</ele><time>2022-10-31T13:02:57.0000000+00:00</time></trkpt><trkpt lat="39.34736311" lon="-0.31098303"><ele>5.8</ele><time>2022-10-31T13:02:58.0000000+00:00</time></trkpt><trkpt lat="39.34736311" lon="-0.31098303"><ele>5.8</ele><time>2022-10-31T13:02:59.0000000+00:00</time></trkpt><trkpt lat="39.34736311" lon="-0.31098303"><ele>5.8</ele><time>2022-10-31T13:03:00.0000000+00:00</time></trkpt><trkpt lat="39.34736311" lon="-0.31098303"><ele>5.8</ele><time>2022-10-31T13:03:01.0000000+00:00</time></trkpt><trkpt lat="39.34736311" lon="-0.31098303"><ele>5.8</ele><time>2022-10-31T13:03:02.0000000+00:00</time></trkpt><trkpt lat="39.34736311" lon="-0.31098303"><ele>5.8</ele><time>2022-10-31T13:03:03.0000000+00:00</time></trkpt><trkpt lat="39.34736311" lon="-0.31098303"><ele>5.8</ele><time>2022-10-31T13:03:04.0000000+00:00</time></trkpt><trkpt lat="39.34736311" lon="-0.31098303"><ele>5.8</ele><time>2022-10-31T13:03:05.0000000+00:00</time></trkpt><trkpt lat="39.34736311" lon="-0.31098303"><ele>5.8</ele><time>2022-10-31T13:03:06.0000000+00:00</time></trkpt><trkpt lat="39.34736311" lon="-0.31098303"><ele>5.8</ele><time>2022-10-31T13:03:07.0000000+00:00</time></trkpt><trkpt lat="39.34736311" lon="-0.31098303"><ele>5.8</ele><time>2022-10-31T13:03:08.0000000+00:00</time></trkpt><trkpt lat="39.34736311" lon="-0.31098303"><ele>5.8</ele><time>2022-10-31T13:03:09.0000000+00:00</time></trkpt><trkpt lat="39.34736311" lon="-0.31098303"><ele>5.8</ele><time>2022-10-31T13:03:10.0000000+00:00</time></trkpt><trkpt lat="39.34736311" lon="-0.31098303"><ele>5.8</ele><time>2022-10-31T13:03:11.0000000+00:00</time></trkpt><trkpt lat="39.34736311" lon="-0.31098303"><ele>5.8</ele><time>2022-10-31T13:03:12.0000000+00:00</time></trkpt><trkpt lat="39.34736311" lon="-0.31098303"><ele>5.8</ele><time>2022-10-31T13:03:13.0000000+00:00</time></trkpt><trkpt lat="39.34736311" lon="-0.31098303"><ele>5.8</ele><time>2022-10-31T13:03:14.0000000+00:00</time></trkpt><trkpt lat="39.34736311" lon="-0.31098303"><ele>5.8</ele><time>2022-10-31T13:03:15.0000000+00:00</time></trkpt><trkpt lat="39.34736311" lon="-0.31098303"><ele>5.8</ele><time>2022-10-31T13:03:16.0000000+00:00</time></trkpt><trkpt lat="39.34736311" lon="-0.31098303"><ele>5.8</ele><time>2022-10-31T13:03:17.0000000+00:00</time></trkpt><trkpt lat="39.34736311" lon="-0.31098303"><ele>5.8</ele><time>2022-10-31T13:03:18.0000000+00:00</time></trkpt><trkpt lat="39.34736311" lon="-0.31098303"><ele>5.8</ele><time>2022-10-31T13:03:19.0000000+00:00</time></trkpt><trkpt lat="39.34736311" lon="-0.31098303"><ele>5.8</ele><time>2022-10-31T13:03:20.0000000+00:00</time></trkpt><trkpt lat="39.34736311" lon="-0.31098303"><ele>5.8</ele><time>2022-10-31T13:03:21.0000000+00:00</time></trkpt><trkpt lat="39.34736311" lon="-0.31098303"><ele>5.8</ele><time>2022-10-31T13:03:22.0000000+00:00</time></trkpt><trkpt lat="39.34736311" lon="-0.31098303"><ele>5.8</ele><time>2022-10-31T13:03:23.0000000+00:00</time></trkpt><trkpt lat="39.34736051" lon="-0.31098118"><ele>5.8</ele><time>2022-10-31T13:03:24.0000000+00:00</time></trkpt><trkpt lat="39.34735841" lon="-0.31097959"><ele>5.8</ele><time>2022-10-31T13:03:25.0000000+00:00</time></trkpt><trkpt lat="39.34735841" lon="-0.31097959"><ele>5.8</ele><time>2022-10-31T13:03:26.0000000+00:00</time></trkpt><trkpt lat="39.34735841" lon="-0.31097959"><ele>5.8</ele><time>2022-10-31T13:03:27.0000000+00:00</time></trkpt><trkpt lat="39.34735841" lon="-0.31097959"><ele>5.8</ele><time>2022-10-31T13:03:28.0000000+00:00</time></trkpt><trkpt lat="39.34735841" lon="-0.31097959"><ele>5.8</ele><time>2022-10-31T13:03:29.0000000+00:00</time></trkpt><trkpt lat="39.34735841" lon="-0.31097959"><ele>5.8</ele><time>2022-10-31T13:03:30.0000000+00:00</time></trkpt><trkpt lat="39.34735841" lon="-0.31097959"><ele>5.8</ele><time>2022-10-31T13:03:31.0000000+00:00</time></trkpt><trkpt lat="39.34735841" lon="-0.31097959"><ele>5.8</ele><time>2022-10-31T13:03:32.0000000+00:00</time></trkpt><trkpt lat="39.34735841" lon="-0.31097959"><ele>5.8</ele><time>2022-10-31T13:03:33.0000000+00:00</time></trkpt><trkpt lat="39.34735841" lon="-0.31097959"><ele>5.8</ele><time>2022-10-31T13:03:34.0000000+00:00</time></trkpt><trkpt lat="39.34735841" lon="-0.31097959"><ele>5.8</ele><time>2022-10-31T13:03:35.0000000+00:00</time></trkpt><trkpt lat="39.34735841" lon="-0.31097959"><ele>5.8</ele><time>2022-10-31T13:03:36.0000000+00:00</time></trkpt><trkpt lat="39.34735841" lon="-0.31097959"><ele>5.8</ele><time>2022-10-31T13:03:37.0000000+00:00</time></trkpt><trkpt lat="39.34735841" lon="-0.31097959"><ele>5.8</ele><time>2022-10-31T13:03:38.0000000+00:00</time></trkpt><trkpt lat="39.34735841" lon="-0.31097959"><ele>5.8</ele><time>2022-10-31T13:03:39.0000000+00:00</time></trkpt><trkpt lat="39.34735841" lon="-0.31097959"><ele>5.8</ele><time>2022-10-31T13:03:40.0000000+00:00</time></trkpt><trkpt lat="39.34735841" lon="-0.31097959"><ele>5.8</ele><time>2022-10-31T13:03:41.0000000+00:00</time></trkpt><trkpt lat="39.34735841" lon="-0.31097959"><ele>5.8</ele><time>2022-10-31T13:03:42.0000000+00:00</time></trkpt><trkpt lat="39.34735841" lon="-0.31097959"><ele>5.8</ele><time>2022-10-31T13:03:43.0000000+00:00</time></trkpt><trkpt lat="39.34735841" lon="-0.31097959"><ele>5.8</ele><time>2022-10-31T13:03:44.0000000+00:00</time></trkpt><trkpt lat="39.34735841" lon="-0.31097959"><ele>5.8</ele><time>2022-10-31T13:03:45.0000000+00:00</time></trkpt><trkpt lat="39.34735841" lon="-0.31097959"><ele>5.8</ele><time>2022-10-31T13:03:46.0000000+00:00</time></trkpt><trkpt lat="39.34735841" lon="-0.31097959"><ele>5.8</ele><time>2022-10-31T13:03:47.0000000+00:00</time></trkpt><trkpt lat="39.34735841" lon="-0.31097959"><ele>5.8</ele><time>2022-10-31T13:03:48.0000000+00:00</time></trkpt><trkpt lat="39.34735841" lon="-0.31097959"><ele>5.8</ele><time>2022-10-31T13:03:49.0000000+00:00</time></trkpt><trkpt lat="39.34735841" lon="-0.31097959"><ele>5.8</ele><time>2022-10-31T13:03:50.0000000+00:00</time></trkpt><trkpt lat="39.34735841" lon="-0.31097959"><ele>5.8</ele><time>2022-10-31T13:03:51.0000000+00:00</time></trkpt><trkpt lat="39.34735841" lon="-0.31097959"><ele>5.8</ele><time>2022-10-31T13:03:52.0000000+00:00</time></trkpt><trkpt lat="39.34735841" lon="-0.31097959"><ele>5.8</ele><time>2022-10-31T13:03:53.0000000+00:00</time></trkpt><trkpt lat="39.34735841" lon="-0.31097959"><ele>5.8</ele><time>2022-10-31T13:03:54.0000000+00:00</time></trkpt><trkpt lat="39.34735841" lon="-0.31097959"><ele>5.8</ele><time>2022-10-31T13:03:55.0000000+00:00</time></trkpt><trkpt lat="39.34735841" lon="-0.31097959"><ele>5.8</ele><time>2022-10-31T13:03:56.0000000+00:00</time></trkpt><trkpt lat="39.34735841" lon="-0.31097959"><ele>5.8</ele><time>2022-10-31T13:03:57.0000000+00:00</time></trkpt><trkpt lat="39.34735841" lon="-0.31097959"><ele>5.8</ele><time>2022-10-31T13:03:58.0000000+00:00</time></trkpt><trkpt lat="39.34735841" lon="-0.31097959"><ele>5.8</ele><time>2022-10-31T13:03:59.0000000+00:00</time></trkpt><trkpt lat="39.34735841" lon="-0.31097959"><ele>5.8</ele><time>2022-10-31T13:04:00.0000000+00:00</time></trkpt><trkpt lat="39.34735841" lon="-0.31097959"><ele>5.8</ele><time>2022-10-31T13:04:01.0000000+00:00</time></trkpt><trkpt lat="39.34735841" lon="-0.31097959"><ele>5.8</ele><time>2022-10-31T13:04:02.0000000+00:00</time></trkpt><trkpt lat="39.34735841" lon="-0.31097959"><ele>5.8</ele><time>2022-10-31T13:04:03.0000000+00:00</time></trkpt><trkpt lat="39.34735841" lon="-0.31097959"><ele>5.8</ele><time>2022-10-31T13:04:04.0000000+00:00</time></trkpt><trkpt lat="39.34735841" lon="-0.31097959"><ele>5.8</ele><time>2022-10-31T13:04:05.0000000+00:00</time></trkpt><trkpt lat="39.34735841" lon="-0.31097959"><ele>5.8</ele><time>2022-10-31T13:04:06.0000000+00:00</time></trkpt><trkpt lat="39.34735841" lon="-0.31097959"><ele>5.8</ele><time>2022-10-31T13:04:07.0000000+00:00</time></trkpt><trkpt lat="39.34735841" lon="-0.31097959"><ele>5.8</ele><time>2022-10-31T13:04:08.0000000+00:00</time></trkpt><trkpt lat="39.34735841" lon="-0.31097959"><ele>5.8</ele><time>2022-10-31T13:04:09.0000000+00:00</time></trkpt><trkpt lat="39.34735841" lon="-0.31097959"><ele>5.8</ele><time>2022-10-31T13:04:10.0000000+00:00</time></trkpt><trkpt lat="39.34735841" lon="-0.31097959"><ele>5.8</ele><time>2022-10-31T13:04:11.0000000+00:00</time></trkpt><trkpt lat="39.34735841" lon="-0.31097959"><ele>5.8</ele><time>2022-10-31T13:04:12.0000000+00:00</time></trkpt><trkpt lat="39.34735841" lon="-0.31097959"><ele>5.8</ele><time>2022-10-31T13:04:13.0000000+00:00</time></trkpt><trkpt lat="39.34735841" lon="-0.31097959"><ele>5.8</ele><time>2022-10-31T13:04:14.0000000+00:00</time></trkpt><trkpt lat="39.34735841" lon="-0.31097959"><ele>5.8</ele><time>2022-10-31T13:04:15.0000000+00:00</time></trkpt><trkpt lat="39.34735841" lon="-0.31097959"><ele>5.8</ele><time>2022-10-31T13:04:16.0000000+00:00</time></trkpt><trkpt lat="39.34735841" lon="-0.31097959"><ele>5.8</ele><time>2022-10-31T13:04:17.0000000+00:00</time></trkpt><trkpt lat="39.34735841" lon="-0.31097959"><ele>5.8</ele><time>2022-10-31T13:04:18.0000000+00:00</time></trkpt><trkpt lat="39.34735841" lon="-0.31097959"><ele>5.8</ele><time>2022-10-31T13:04:19.0000000+00:00</time></trkpt><trkpt lat="39.34735841" lon="-0.31097959"><ele>5.8</ele><time>2022-10-31T13:04:20.0000000+00:00</time></trkpt><trkpt lat="39.34735841" lon="-0.31097959"><ele>5.8</ele><time>2022-10-31T13:04:21.0000000+00:00</time></trkpt><trkpt lat="39.34735841" lon="-0.31097959"><ele>5.8</ele><time>2022-10-31T13:04:22.0000000+00:00</time></trkpt><trkpt lat="39.34735841" lon="-0.31097959"><ele>5.8</ele><time>2022-10-31T13:04:23.0000000+00:00</time></trkpt><trkpt lat="39.34735841" lon="-0.31097959"><ele>5.8</ele><time>2022-10-31T13:04:24.0000000+00:00</time></trkpt><trkpt lat="39.34735841" lon="-0.31097959"><ele>5.8</ele><time>2022-10-31T13:04:25.0000000+00:00</time></trkpt><trkpt lat="39.34735841" lon="-0.31097959"><ele>5.8</ele><time>2022-10-31T13:04:26.0000000+00:00</time></trkpt><trkpt lat="39.34735841" lon="-0.31097959"><ele>5.8</ele><time>2022-10-31T13:04:27.0000000+00:00</time></trkpt><trkpt lat="39.34735841" lon="-0.31097959"><ele>5.8</ele><time>2022-10-31T13:04:28.0000000+00:00</time></trkpt><trkpt lat="39.34735841" lon="-0.31097959"><ele>5.8</ele><time>2022-10-31T13:04:29.0000000+00:00</time></trkpt><trkpt lat="39.34735841" lon="-0.31097959"><ele>5.8</ele><time>2022-10-31T13:04:30.0000000+00:00</time></trkpt><trkpt lat="39.34735841" lon="-0.31097959"><ele>5.8</ele><time>2022-10-31T13:04:31.0000000+00:00</time></trkpt><trkpt lat="39.34735841" lon="-0.31097959"><ele>5.8</ele><time>2022-10-31T13:04:32.0000000+00:00</time></trkpt><trkpt lat="39.34735841" lon="-0.31097959"><ele>5.8</ele><time>2022-10-31T13:04:33.0000000+00:00</time></trkpt><trkpt lat="39.34735841" lon="-0.31097959"><ele>5.8</ele><time>2022-10-31T13:04:34.0000000+00:00</time></trkpt><trkpt lat="39.34735841" lon="-0.31097959"><ele>5.8</ele><time>2022-10-31T13:04:35.0000000+00:00</time></trkpt><trkpt lat="39.34735841" lon="-0.31097959"><ele>5.8</ele><time>2022-10-31T13:04:36.0000000+00:00</time></trkpt><trkpt lat="39.34735841" lon="-0.31097959"><ele>5.8</ele><time>2022-10-31T13:04:37.0000000+00:00</time></trkpt><trkpt lat="39.34735841" lon="-0.31097959"><ele>5.8</ele><time>2022-10-31T13:04:38.0000000+00:00</time></trkpt><trkpt lat="39.34735841" lon="-0.31097959"><ele>5.8</ele><time>2022-10-31T13:04:39.0000000+00:00</time></trkpt><trkpt lat="39.34735841" lon="-0.31097959"><ele>5.8</ele><time>2022-10-31T13:04:40.0000000+00:00</time></trkpt><trkpt lat="39.34735841" lon="-0.31097959"><ele>5.8</ele><time>2022-10-31T13:04:41.0000000+00:00</time></trkpt><trkpt lat="39.34735841" lon="-0.31097959"><ele>5.8</ele><time>2022-10-31T13:04:42.0000000+00:00</time></trkpt><trkpt lat="39.34735841" lon="-0.31097959"><ele>5.8</ele><time>2022-10-31T13:04:43.0000000+00:00</time></trkpt><trkpt lat="39.34735841" lon="-0.31097959"><ele>5.8</ele><time>2022-10-31T13:04:44.0000000+00:00</time></trkpt><trkpt lat="39.34735841" lon="-0.31097959"><ele>5.8</ele><time>2022-10-31T13:04:45.0000000+00:00</time></trkpt><trkpt lat="39.34735841" lon="-0.31097959"><ele>5.8</ele><time>2022-10-31T13:04:46.0000000+00:00</time></trkpt><trkpt lat="39.34735841" lon="-0.31097959"><ele>5.8</ele><time>2022-10-31T13:04:47.0000000+00:00</time></trkpt><trkpt lat="39.34735841" lon="-0.31097959"><ele>5.8</ele><time>2022-10-31T13:04:48.0000000+00:00</time></trkpt><trkpt lat="39.34735841" lon="-0.31097959"><ele>5.8</ele><time>2022-10-31T13:04:49.0000000+00:00</time></trkpt><trkpt lat="39.34735841" lon="-0.31097959"><ele>5.8</ele><time>2022-10-31T13:04:50.0000000+00:00</time></trkpt><trkpt lat="39.34735841" lon="-0.31097959"><ele>5.8</ele><time>2022-10-31T13:04:51.0000000+00:00</time></trkpt><trkpt lat="39.34735841" lon="-0.31097959"><ele>5.8</ele><time>2022-10-31T13:04:52.0000000+00:00</time></trkpt><trkpt lat="39.34735841" lon="-0.31097959"><ele>5.8</ele><time>2022-10-31T13:04:53.0000000+00:00</time></trkpt><trkpt lat="39.34735841" lon="-0.31097959"><ele>5.8</ele><time>2022-10-31T13:04:54.0000000+00:00</time></trkpt><trkpt lat="39.34735841" lon="-0.31097959"><ele>5.8</ele><time>2022-10-31T13:04:55.0000000+00:00</time></trkpt><trkpt lat="39.34735841" lon="-0.31097959"><ele>5.8</ele><time>2022-10-31T13:04:56.0000000+00:00</time></trkpt><trkpt lat="39.34735841" lon="-0.31097959"><ele>5.8</ele><time>2022-10-31T13:04:57.0000000+00:00</time></trkpt><trkpt lat="39.34735841" lon="-0.31097959"><ele>5.8</ele><time>2022-10-31T13:04:58.0000000+00:00</time></trkpt><trkpt lat="39.34735841" lon="-0.31097959"><ele>5.8</ele><time>2022-10-31T13:04:59.0000000+00:00</time></trkpt><trkpt lat="39.34735841" lon="-0.31097959"><ele>5.8</ele><time>2022-10-31T13:05:00.0000000+00:00</time></trkpt><trkpt lat="39.34735841" lon="-0.31097959"><ele>5.8</ele><time>2022-10-31T13:05:01.0000000+00:00</time></trkpt><trkpt lat="39.34735841" lon="-0.31097959"><ele>5.8</ele><time>2022-10-31T13:05:02.0000000+00:00</time></trkpt><trkpt lat="39.34735841" lon="-0.31097959"><ele>5.8</ele><time>2022-10-31T13:05:03.0000000+00:00</time></trkpt><trkpt lat="39.34735841" lon="-0.31097959"><ele>5.8</ele><time>2022-10-31T13:05:04.0000000+00:00</time></trkpt><trkpt lat="39.34735841" lon="-0.31097959"><ele>5.8</ele><time>2022-10-31T13:05:05.0000000+00:00</time></trkpt><trkpt lat="39.34735841" lon="-0.31097959"><ele>5.8</ele><time>2022-10-31T13:05:06.0000000+00:00</time></trkpt><trkpt lat="39.34735841" lon="-0.31097959"><ele>5.8</ele><time>2022-10-31T13:05:07.0000000+00:00</time></trkpt><trkpt lat="39.34735841" lon="-0.31097959"><ele>5.8</ele><time>2022-10-31T13:05:08.0000000+00:00</time></trkpt><trkpt lat="39.34735841" lon="-0.31097959"><ele>5.8</ele><time>2022-10-31T13:05:09.0000000+00:00</time></trkpt><trkpt lat="39.34735841" lon="-0.31097959"><ele>5.8</ele><time>2022-10-31T13:05:10.0000000+00:00</time></trkpt><trkpt lat="39.34735841" lon="-0.31097959"><ele>5.8</ele><time>2022-10-31T13:05:11.0000000+00:00</time></trkpt><trkpt lat="39.34735841" lon="-0.31097959"><ele>5.8</ele><time>2022-10-31T13:05:12.0000000+00:00</time></trkpt><trkpt lat="39.34735841" lon="-0.31097959"><ele>5.8</ele><time>2022-10-31T13:05:13.0000000+00:00</time></trkpt><trkpt lat="39.34735841" lon="-0.31097959"><ele>5.8</ele><time>2022-10-31T13:05:14.0000000+00:00</time></trkpt><trkpt lat="39.34735841" lon="-0.31097959"><ele>5.8</ele><time>2022-10-31T13:05:15.0000000+00:00</time></trkpt><trkpt lat="39.34735841" lon="-0.31097959"><ele>5.8</ele><time>2022-10-31T13:05:16.0000000+00:00</time></trkpt><trkpt lat="39.34735841" lon="-0.31097959"><ele>5.8</ele><time>2022-10-31T13:05:17.0000000+00:00</time></trkpt><trkpt lat="39.34735841" lon="-0.31097959"><ele>5.8</ele><time>2022-10-31T13:05:18.0000000+00:00</time></trkpt><trkpt lat="39.34735841" lon="-0.31097959"><ele>5.8</ele><time>2022-10-31T13:05:19.0000000+00:00</time></trkpt><trkpt lat="39.34735841" lon="-0.31097959"><ele>5.8</ele><time>2022-10-31T13:05:20.0000000+00:00</time></trkpt><trkpt lat="39.34735841" lon="-0.31097959"><ele>5.8</ele><time>2022-10-31T13:05:21.0000000+00:00</time></trkpt><trkpt lat="39.34735841" lon="-0.31097959"><ele>5.8</ele><time>2022-10-31T13:05:22.0000000+00:00</time></trkpt><trkpt lat="39.34735841" lon="-0.31097959"><ele>5.8</ele><time>2022-10-31T13:05:23.0000000+00:00</time></trkpt><trkpt lat="39.34735841" lon="-0.31097959"><ele>5.8</ele><time>2022-10-31T13:05:24.0000000+00:00</time></trkpt><trkpt lat="39.34735841" lon="-0.31097959"><ele>5.8</ele><time>2022-10-31T13:05:25.0000000+00:00</time></trkpt><trkpt lat="39.34735841" lon="-0.31097959"><ele>5.8</ele><time>2022-10-31T13:05:26.0000000+00:00</time></trkpt><trkpt lat="39.34735841" lon="-0.31097959"><ele>5.8</ele><time>2022-10-31T13:05:27.0000000+00:00</time></trkpt><trkpt lat="39.34735841" lon="-0.31097959"><ele>5.8</ele><time>2022-10-31T13:05:28.0000000+00:00</time></trkpt><trkpt lat="39.34735841" lon="-0.31097959"><ele>5.8</ele><time>2022-10-31T13:05:29.0000000+00:00</time></trkpt><trkpt lat="39.34735841" lon="-0.31097959"><ele>5.8</ele><time>2022-10-31T13:05:30.0000000+00:00</time></trkpt><trkpt lat="39.34735841" lon="-0.31097959"><ele>5.8</ele><time>2022-10-31T13:05:31.0000000+00:00</time></trkpt><trkpt lat="39.34735841" lon="-0.31097959"><ele>5.8</ele><time>2022-10-31T13:05:32.0000000+00:00</time></trkpt><trkpt lat="39.34735841" lon="-0.31097959"><ele>5.8</ele><time>2022-10-31T13:05:33.0000000+00:00</time></trkpt><trkpt lat="39.34735841" lon="-0.31097959"><ele>5.8</ele><time>2022-10-31T13:05:34.0000000+00:00</time></trkpt><trkpt lat="39.34735841" lon="-0.31097959"><ele>5.8</ele><time>2022-10-31T13:05:35.0000000+00:00</time></trkpt><trkpt lat="39.34735841" lon="-0.31097959"><ele>5.8</ele><time>2022-10-31T13:05:36.0000000+00:00</time></trkpt><trkpt lat="39.34735841" lon="-0.31097959"><ele>5.8</ele><time>2022-10-31T13:05:37.0000000+00:00</time></trkpt><trkpt lat="39.34735841" lon="-0.31097959"><ele>5.8</ele><time>2022-10-31T13:05:38.0000000+00:00</time></trkpt><trkpt lat="39.34735841" lon="-0.31097959"><ele>5.8</ele><time>2022-10-31T13:05:39.0000000+00:00</time></trkpt><trkpt lat="39.34735841" lon="-0.31097959"><ele>5.8</ele><time>2022-10-31T13:05:40.0000000+00:00</time></trkpt><trkpt lat="39.34735841" lon="-0.31097959"><ele>5.8</ele><time>2022-10-31T13:05:41.0000000+00:00</time></trkpt><trkpt lat="39.34735841" lon="-0.31097959"><ele>5.8</ele><time>2022-10-31T13:05:42.0000000+00:00</time></trkpt><trkpt lat="39.34735841" lon="-0.31097959"><ele>5.8</ele><time>2022-10-31T13:05:43.0000000+00:00</time></trkpt><trkpt lat="39.34735841" lon="-0.31097959"><ele>5.8</ele><time>2022-10-31T13:05:44.0000000+00:00</time></trkpt><trkpt lat="39.34735841" lon="-0.31097959"><ele>5.8</ele><time>2022-10-31T13:05:45.0000000+00:00</time></trkpt><trkpt lat="39.34735841" lon="-0.31097959"><ele>5.8</ele><time>2022-10-31T13:05:46.0000000+00:00</time></trkpt><trkpt lat="39.34735841" lon="-0.31097959"><ele>5.8</ele><time>2022-10-31T13:05:47.0000000+00:00</time></trkpt><trkpt lat="39.34735841" lon="-0.31097959"><ele>5.8</ele><time>2022-10-31T13:05:48.0000000+00:00</time></trkpt><trkpt lat="39.34735841" lon="-0.31097959"><ele>5.8</ele><time>2022-10-31T13:05:49.0000000+00:00</time></trkpt><trkpt lat="39.34735841" lon="-0.31097959"><ele>5.8</ele><time>2022-10-31T13:05:50.0000000+00:00</time></trkpt><trkpt lat="39.34735841" lon="-0.31097959"><ele>5.8</ele><time>2022-10-31T13:05:51.0000000+00:00</time></trkpt><trkpt lat="39.34735841" lon="-0.31097959"><ele>5.8</ele><time>2022-10-31T13:05:52.0000000+00:00</time></trkpt><trkpt lat="39.34735841" lon="-0.31097959"><ele>5.8</ele><time>2022-10-31T13:05:53.0000000+00:00</time></trkpt><trkpt lat="39.34735841" lon="-0.31097959"><ele>5.8</ele><time>2022-10-31T13:05:54.0000000+00:00</time></trkpt><trkpt lat="39.34735841" lon="-0.31097959"><ele>5.8</ele><time>2022-10-31T13:05:55.0000000+00:00</time></trkpt><trkpt lat="39.34735841" lon="-0.31097959"><ele>5.8</ele><time>2022-10-31T13:05:56.0000000+00:00</time></trkpt><trkpt lat="39.34735841" lon="-0.31097959"><ele>5.8</ele><time>2022-10-31T13:05:57.0000000+00:00</time></trkpt><trkpt lat="39.34735841" lon="-0.31097959"><ele>5.8</ele><time>2022-10-31T13:05:58.0000000+00:00</time></trkpt><trkpt lat="39.34735841" lon="-0.31097959"><ele>5.8</ele><time>2022-10-31T13:05:59.0000000+00:00</time></trkpt><trkpt lat="39.34735841" lon="-0.31097959"><ele>5.8</ele><time>2022-10-31T13:06:00.0000000+00:00</time></trkpt><trkpt lat="39.34735841" lon="-0.31097959"><ele>5.8</ele><time>2022-10-31T13:06:01.0000000+00:00</time></trkpt><trkpt lat="39.34735841" lon="-0.31097959"><ele>5.8</ele><time>2022-10-31T13:06:02.0000000+00:00</time></trkpt><trkpt lat="39.34735841" lon="-0.31097959"><ele>5.8</ele><time>2022-10-31T13:06:03.0000000+00:00</time></trkpt><trkpt lat="39.34735841" lon="-0.31097959"><ele>5.8</ele><time>2022-10-31T13:06:04.0000000+00:00</time></trkpt><trkpt lat="39.34735841" lon="-0.31097959"><ele>5.8</ele><time>2022-10-31T13:06:05.0000000+00:00</time></trkpt><trkpt lat="39.34735841" lon="-0.31097959"><ele>5.8</ele><time>2022-10-31T13:06:06.0000000+00:00</time></trkpt><trkpt lat="39.34735841" lon="-0.31097959"><ele>5.8</ele><time>2022-10-31T13:06:07.0000000+00:00</time></trkpt><trkpt lat="39.34735841" lon="-0.31097959"><ele>5.8</ele><time>2022-10-31T13:06:08.0000000+00:00</time></trkpt><trkpt lat="39.34735841" lon="-0.31097959"><ele>5.8</ele><time>2022-10-31T13:06:09.0000000+00:00</time></trkpt><trkpt lat="39.34735841" lon="-0.31097959"><ele>5.8</ele><time>2022-10-31T13:06:10.0000000+00:00</time></trkpt><trkpt lat="39.34735841" lon="-0.31097959"><ele>5.8</ele><time>2022-10-31T13:06:11.0000000+00:00</time></trkpt><trkpt lat="39.34735841" lon="-0.31097959"><ele>5.8</ele><time>2022-10-31T13:06:12.0000000+00:00</time></trkpt><trkpt lat="39.34735841" lon="-0.31097959"><ele>5.8</ele><time>2022-10-31T13:06:13.0000000+00:00</time></trkpt><trkpt lat="39.34735841" lon="-0.31097959"><ele>5.8</ele><time>2022-10-31T13:06:14.0000000+00:00</time></trkpt><trkpt lat="39.34735841" lon="-0.31097959"><ele>5.8</ele><time>2022-10-31T13:06:15.0000000+00:00</time></trkpt><trkpt lat="39.34735841" lon="-0.31097959"><ele>5.8</ele><time>2022-10-31T13:06:16.0000000+00:00</time></trkpt><trkpt lat="39.34735841" lon="-0.31097959"><ele>5.8</ele><time>2022-10-31T13:06:17.0000000+00:00</time></trkpt><trkpt lat="39.34735841" lon="-0.31097959"><ele>5.8</ele><time>2022-10-31T13:06:18.0000000+00:00</time></trkpt><trkpt lat="39.34735841" lon="-0.31097959"><ele>5.8</ele><time>2022-10-31T13:06:19.0000000+00:00</time></trkpt><trkpt lat="39.34735841" lon="-0.31097959"><ele>5.8</ele><time>2022-10-31T13:06:20.0000000+00:00</time></trkpt><trkpt lat="39.34735841" lon="-0.31097959"><ele>5.8</ele><time>2022-10-31T13:06:21.0000000+00:00</time></trkpt><trkpt lat="39.34735841" lon="-0.31097959"><ele>5.8</ele><time>2022-10-31T13:06:22.0000000+00:00</time></trkpt><trkpt lat="39.34735841" lon="-0.31097959"><ele>5.8</ele><time>2022-10-31T13:06:23.0000000+00:00</time></trkpt><trkpt lat="39.34735841" lon="-0.31097959"><ele>5.8</ele><time>2022-10-31T13:06:24.0000000+00:00</time></trkpt><trkpt lat="39.34735841" lon="-0.31097959"><ele>5.8</ele><time>2022-10-31T13:06:25.0000000+00:00</time></trkpt><trkpt lat="39.34735841" lon="-0.31097959"><ele>5.8</ele><time>2022-10-31T13:06:26.0000000+00:00</time></trkpt><trkpt lat="39.34735841" lon="-0.31097959"><ele>5.8</ele><time>2022-10-31T13:06:27.0000000+00:00</time></trkpt><trkpt lat="39.34735841" lon="-0.31097959"><ele>5.8</ele><time>2022-10-31T13:06:28.0000000+00:00</time></trkpt><trkpt lat="39.34735841" lon="-0.31097959"><ele>5.8</ele><time>2022-10-31T13:06:29.0000000+00:00</time></trkpt><trkpt lat="39.34735841" lon="-0.31097959"><ele>5.8</ele><time>2022-10-31T13:06:30.0000000+00:00</time></trkpt><trkpt lat="39.34735841" lon="-0.31097959"><ele>5.8</ele><time>2022-10-31T13:06:31.0000000+00:00</time></trkpt><trkpt lat="39.34735841" lon="-0.31097959"><ele>5.8</ele><time>2022-10-31T13:06:32.0000000+00:00</time></trkpt><trkpt lat="39.34735841" lon="-0.31097959"><ele>5.8</ele><time>2022-10-31T13:06:33.0000000+00:00</time></trkpt><trkpt lat="39.34735841" lon="-0.31097959"><ele>5.8</ele><time>2022-10-31T13:06:34.0000000+00:00</time></trkpt><trkpt lat="39.34735841" lon="-0.31097959"><ele>5.8</ele><time>2022-10-31T13:06:35.0000000+00:00</time></trkpt><trkpt lat="39.34735841" lon="-0.31097959"><ele>5.8</ele><time>2022-10-31T13:06:36.0000000+00:00</time></trkpt><trkpt lat="39.34735841" lon="-0.31097959"><ele>5.8</ele><time>2022-10-31T13:06:37.0000000+00:00</time></trkpt><trkpt lat="39.34735841" lon="-0.31097959"><ele>5.8</ele><time>2022-10-31T13:06:38.0000000+00:00</time></trkpt><trkpt lat="39.34735841" lon="-0.31097959"><ele>5.8</ele><time>2022-10-31T13:06:39.0000000+00:00</time></trkpt><trkpt lat="39.34735841" lon="-0.31097959"><ele>5.8</ele><time>2022-10-31T13:06:40.0000000+00:00</time></trkpt><trkpt lat="39.34735841" lon="-0.31097959"><ele>5.8</ele><time>2022-10-31T13:06:41.0000000+00:00</time></trkpt><trkpt lat="39.34735841" lon="-0.31097959"><ele>5.8</ele><time>2022-10-31T13:06:42.0000000+00:00</time></trkpt><trkpt lat="39.34735841" lon="-0.31097959"><ele>5.8</ele><time>2022-10-31T13:06:43.0000000+00:00</time></trkpt><trkpt lat="39.34735841" lon="-0.31097959"><ele>5.8</ele><time>2022-10-31T13:06:44.0000000+00:00</time></trkpt><trkpt lat="39.34735841" lon="-0.31097959"><ele>5.8</ele><time>2022-10-31T13:06:45.0000000+00:00</time></trkpt><trkpt lat="39.34735841" lon="-0.31097959"><ele>5.8</ele><time>2022-10-31T13:06:46.0000000+00:00</time></trkpt><trkpt lat="39.34735841" lon="-0.31097959"><ele>5.8</ele><time>2022-10-31T13:06:47.0000000+00:00</time></trkpt><trkpt lat="39.34735841" lon="-0.31097959"><ele>5.8</ele><time>2022-10-31T13:06:48.0000000+00:00</time></trkpt><trkpt lat="39.34735841" lon="-0.31097959"><ele>5.8</ele><time>2022-10-31T13:06:49.0000000+00:00</time></trkpt><trkpt lat="39.34735841" lon="-0.31097959"><ele>5.8</ele><time>2022-10-31T13:06:50.0000000+00:00</time></trkpt><trkpt lat="39.34735841" lon="-0.31097959"><ele>5.8</ele><time>2022-10-31T13:06:51.0000000+00:00</time></trkpt><trkpt lat="39.34735841" lon="-0.31097959"><ele>5.8</ele><time>2022-10-31T13:06:52.0000000+00:00</time></trkpt><trkpt lat="39.34735841" lon="-0.31097959"><ele>5.8</ele><time>2022-10-31T13:06:53.0000000+00:00</time></trkpt><trkpt lat="39.34735841" lon="-0.31097959"><ele>5.8</ele><time>2022-10-31T13:06:54.0000000+00:00</time></trkpt><trkpt lat="39.34735841" lon="-0.31097959"><ele>5.8</ele><time>2022-10-31T13:06:55.0000000+00:00</time></trkpt><trkpt lat="39.34735841" lon="-0.31097959"><ele>5.8</ele><time>2022-10-31T13:06:56.0000000+00:00</time></trkpt><trkpt lat="39.34735841" lon="-0.31097959"><ele>5.8</ele><time>2022-10-31T13:06:57.0000000+00:00</time></trkpt><trkpt lat="39.34735841" lon="-0.31097959"><ele>5.8</ele><time>2022-10-31T13:06:58.0000000+00:00</time></trkpt><trkpt lat="39.34735841" lon="-0.31097959"><ele>5.8</ele><time>2022-10-31T13:06:59.0000000+00:00</time></trkpt><trkpt lat="39.34735841" lon="-0.31097959"><ele>5.8</ele><time>2022-10-31T13:07:00.0000000+00:00</time></trkpt><trkpt lat="39.34735841" lon="-0.31097959"><ele>5.8</ele><time>2022-10-31T13:07:01.0000000+00:00</time></trkpt><trkpt lat="39.34735841" lon="-0.31097959"><ele>5.8</ele><time>2022-10-31T13:07:02.0000000+00:00</time></trkpt><trkpt lat="39.34735841" lon="-0.31097959"><ele>5.8</ele><time>2022-10-31T13:07:03.0000000+00:00</time></trkpt><trkpt lat="39.34735841" lon="-0.31097959"><ele>5.8</ele><time>2022-10-31T13:07:04.0000000+00:00</time></trkpt><trkpt lat="39.34735841" lon="-0.31097959"><ele>5.8</ele><time>2022-10-31T13:07:05.0000000+00:00</time></trkpt><trkpt lat="39.34735841" lon="-0.31097959"><ele>5.8</ele><time>2022-10-31T13:07:06.0000000+00:00</time></trkpt><trkpt lat="39.34735841" lon="-0.31097959"><ele>5.8</ele><time>2022-10-31T13:07:07.0000000+00:00</time></trkpt><trkpt lat="39.34735841" lon="-0.31097959"><ele>5.8</ele><time>2022-10-31T13:07:08.0000000+00:00</time></trkpt><trkpt lat="39.34735841" lon="-0.31097959"><ele>5.8</ele><time>2022-10-31T13:07:09.0000000+00:00</time></trkpt><trkpt lat="39.34735841" lon="-0.31097959"><ele>5.8</ele><time>2022-10-31T13:07:10.0000000+00:00</time></trkpt><trkpt lat="39.34735841" lon="-0.31097959"><ele>5.8</ele><time>2022-10-31T13:07:11.0000000+00:00</time></trkpt><trkpt lat="39.34735841" lon="-0.31097959"><ele>5.8</ele><time>2022-10-31T13:07:12.0000000+00:00</time></trkpt><trkpt lat="39.34735841" lon="-0.31097959"><ele>5.8</ele><time>2022-10-31T13:07:13.0000000+00:00</time></trkpt><trkpt lat="39.34735841" lon="-0.31097959"><ele>5.8</ele><time>2022-10-31T13:07:14.0000000+00:00</time></trkpt><trkpt lat="39.34735841" lon="-0.31097959"><ele>5.8</ele><time>2022-10-31T13:07:15.0000000+00:00</time></trkpt><trkpt lat="39.34735841" lon="-0.31097959"><ele>5.8</ele><time>2022-10-31T13:07:16.0000000+00:00</time></trkpt><trkpt lat="39.34735841" lon="-0.31097959"><ele>5.8</ele><time>2022-10-31T13:07:17.0000000+00:00</time></trkpt><trkpt lat="39.34735841" lon="-0.31097959"><ele>5.8</ele><time>2022-10-31T13:07:18.0000000+00:00</time></trkpt><trkpt lat="39.34735841" lon="-0.31097959"><ele>5.8</ele><time>2022-10-31T13:07:19.0000000+00:00</time></trkpt><trkpt lat="39.34735841" lon="-0.31097959"><ele>5.8</ele><time>2022-10-31T13:07:20.0000000+00:00</time></trkpt><trkpt lat="39.34735841" lon="-0.31097959"><ele>5.8</ele><time>2022-10-31T13:07:21.0000000+00:00</time></trkpt><trkpt lat="39.34735841" lon="-0.31097959"><ele>5.8</ele><time>2022-10-31T13:07:22.0000000+00:00</time></trkpt><trkpt lat="39.34735841" lon="-0.31097959"><ele>5.8</ele><time>2022-10-31T13:07:23.0000000+00:00</time></trkpt><trkpt lat="39.34735841" lon="-0.31097959"><ele>5.8</ele><time>2022-10-31T13:07:24.0000000+00:00</time></trkpt><trkpt lat="39.34735841" lon="-0.31097959"><ele>5.8</ele><time>2022-10-31T13:07:25.0000000+00:00</time></trkpt><trkpt lat="39.34735841" lon="-0.31097959"><ele>5.8</ele><time>2022-10-31T13:07:26.0000000+00:00</time></trkpt><trkpt lat="39.34735841" lon="-0.31097959"><ele>5.8</ele><time>2022-10-31T13:07:27.0000000+00:00</time></trkpt><trkpt lat="39.34735841" lon="-0.31097959"><ele>5.8</ele><time>2022-10-31T13:07:28.0000000+00:00</time></trkpt><trkpt lat="39.34735841" lon="-0.31097959"><ele>5.8</ele><time>2022-10-31T13:07:29.0000000+00:00</time></trkpt><trkpt lat="39.34735841" lon="-0.31097959"><ele>5.8</ele><time>2022-10-31T13:07:30.0000000+00:00</time></trkpt><trkpt lat="39.34735841" lon="-0.31097959"><ele>5.8</ele><time>2022-10-31T13:07:31.0000000+00:00</time></trkpt><trkpt lat="39.34735841" lon="-0.31097959"><ele>5.8</ele><time>2022-10-31T13:07:32.0000000+00:00</time></trkpt><trkpt lat="39.34735841" lon="-0.31097959"><ele>5.8</ele><time>2022-10-31T13:07:33.0000000+00:00</time></trkpt><trkpt lat="39.34735841" lon="-0.31097959"><ele>5.8</ele><time>2022-10-31T13:07:34.0000000+00:00</time></trkpt><trkpt lat="39.34735841" lon="-0.31097959"><ele>5.8</ele><time>2022-10-31T13:07:35.0000000+00:00</time></trkpt><trkpt lat="39.34735841" lon="-0.31097959"><ele>5.8</ele><time>2022-10-31T13:07:36.0000000+00:00</time></trkpt><trkpt lat="39.34735841" lon="-0.31097959"><ele>5.8</ele><time>2022-10-31T13:07:37.0000000+00:00</time></trkpt><trkpt lat="39.34735841" lon="-0.31097959"><ele>5.8</ele><time>2022-10-31T13:07:38.0000000+00:00</time></trkpt><trkpt lat="39.34735841" lon="-0.31097959"><ele>5.8</ele><time>2022-10-31T13:07:39.0000000+00:00</time></trkpt><trkpt lat="39.34735841" lon="-0.31097959"><ele>5.8</ele><time>2022-10-31T13:07:40.0000000+00:00</time></trkpt><trkpt lat="39.34735841" lon="-0.31097959"><ele>5.8</ele><time>2022-10-31T13:07:41.0000000+00:00</time></trkpt><trkpt lat="39.34735841" lon="-0.31097959"><ele>5.8</ele><time>2022-10-31T13:07:42.0000000+00:00</time></trkpt><trkpt lat="39.34735841" lon="-0.31097959"><ele>5.8</ele><time>2022-10-31T13:07:43.0000000+00:00</time></trkpt><trkpt lat="39.34735841" lon="-0.31097959"><ele>5.8</ele><time>2022-10-31T13:07:44.0000000+00:00</time></trkpt><trkpt lat="39.34735841" lon="-0.31097959"><ele>5.8</ele><time>2022-10-31T13:07:45.0000000+00:00</time></trkpt><trkpt lat="39.34735841" lon="-0.31097959"><ele>5.8</ele><time>2022-10-31T13:07:46.0000000+00:00</time></trkpt><trkpt lat="39.34735841" lon="-0.31097959"><ele>5.8</ele><time>2022-10-31T13:07:47.0000000+00:00</time></trkpt><trkpt lat="39.34735841" lon="-0.31097959"><ele>5.8</ele><time>2022-10-31T13:07:48.0000000+00:00</time></trkpt><trkpt lat="39.34735841" lon="-0.31097959"><ele>5.8</ele><time>2022-10-31T13:07:49.0000000+00:00</time></trkpt><trkpt lat="39.34735841" lon="-0.31097959"><ele>5.8</ele><time>2022-10-31T13:07:50.0000000+00:00</time></trkpt><trkpt lat="39.34735841" lon="-0.31097959"><ele>5.8</ele><time>2022-10-31T13:07:51.0000000+00:00</time></trkpt><trkpt lat="39.34735841" lon="-0.31097959"><ele>5.8</ele><time>2022-10-31T13:07:52.0000000+00:00</time></trkpt><trkpt lat="39.34735841" lon="-0.31097959"><ele>5.8</ele><time>2022-10-31T13:07:53.0000000+00:00</time></trkpt><trkpt lat="39.34735841" lon="-0.31097959"><ele>5.8</ele><time>2022-10-31T13:07:54.0000000+00:00</time></trkpt><trkpt lat="39.34735841" lon="-0.31097959"><ele>5.8</ele><time>2022-10-31T13:07:55.0000000+00:00</time></trkpt><trkpt lat="39.34735841" lon="-0.31097959"><ele>5.8</ele><time>2022-10-31T13:07:56.0000000+00:00</time></trkpt><trkpt lat="39.34735841" lon="-0.31097959"><ele>5.8</ele><time>2022-10-31T13:07:57.0000000+00:00</time></trkpt><trkpt lat="39.34735841" lon="-0.31097959"><ele>5.8</ele><time>2022-10-31T13:07:58.0000000+00:00</time></trkpt><trkpt lat="39.34735841" lon="-0.31097959"><ele>5.8</ele><time>2022-10-31T13:07:59.0000000+00:00</time></trkpt><trkpt lat="39.34735841" lon="-0.31097959"><ele>5.8</ele><time>2022-10-31T13:08:00.0000000+00:00</time></trkpt><trkpt lat="39.34735841" lon="-0.31097959"><ele>5.8</ele><time>2022-10-31T13:08:01.0000000+00:00</time></trkpt><trkpt lat="39.34735841" lon="-0.31097959"><ele>5.8</ele><time>2022-10-31T13:08:02.0000000+00:00</time></trkpt><trkpt lat="39.34735841" lon="-0.31097959"><ele>5.8</ele><time>2022-10-31T13:08:03.0000000+00:00</time></trkpt><trkpt lat="39.34735841" lon="-0.31097959"><ele>5.8</ele><time>2022-10-31T13:08:04.0000000+00:00</time></trkpt><trkpt lat="39.34735841" lon="-0.31097959"><ele>5.8</ele><time>2022-10-31T13:08:05.0000000+00:00</time></trkpt><trkpt lat="39.34735841" lon="-0.31097959"><ele>5.8</ele><time>2022-10-31T13:08:06.0000000+00:00</time></trkpt><trkpt lat="39.34735841" lon="-0.31097959"><ele>5.8</ele><time>2022-10-31T13:08:07.0000000+00:00</time></trkpt><trkpt lat="39.34735841" lon="-0.31097959"><ele>5.8</ele><time>2022-10-31T13:08:08.0000000+00:00</time></trkpt><trkpt lat="39.34735841" lon="-0.31097959"><ele>5.8</ele><time>2022-10-31T13:08:09.0000000+00:00</time></trkpt><trkpt lat="39.34735841" lon="-0.31097959"><ele>5.8</ele><time>2022-10-31T13:08:10.0000000+00:00</time></trkpt><trkpt lat="39.34735841" lon="-0.31097959"><ele>5.8</ele><time>2022-10-31T13:08:11.0000000+00:00</time></trkpt><trkpt lat="39.34735841" lon="-0.31097959"><ele>5.8</ele><time>2022-10-31T13:08:12.0000000+00:00</time></trkpt><trkpt lat="39.34735841" lon="-0.31097959"><ele>5.8</ele><time>2022-10-31T13:08:13.0000000+00:00</time></trkpt><trkpt lat="39.34735841" lon="-0.31097959"><ele>5.8</ele><time>2022-10-31T13:08:14.0000000+00:00</time></trkpt><trkpt lat="39.34735841" lon="-0.31097959"><ele>5.8</ele><time>2022-10-31T13:08:15.0000000+00:00</time></trkpt><trkpt lat="39.34735841" lon="-0.31097959"><ele>5.8</ele><time>2022-10-31T13:08:16.0000000+00:00</time></trkpt><trkpt lat="39.34735841" lon="-0.31097959"><ele>5.8</ele><time>2022-10-31T13:08:17.0000000+00:00</time></trkpt><trkpt lat="39.34735841" lon="-0.31097959"><ele>5.8</ele><time>2022-10-31T13:08:18.0000000+00:00</time></trkpt><trkpt lat="39.34735841" lon="-0.31097959"><ele>5.8</ele><time>2022-10-31T13:08:19.0000000+00:00</time></trkpt><trkpt lat="39.34735841" lon="-0.31097959"><ele>5.8</ele><time>2022-10-31T13:08:20.0000000+00:00</time></trkpt><trkpt lat="39.34735841" lon="-0.31097959"><ele>5.8</ele><time>2022-10-31T13:08:21.0000000+00:00</time></trkpt><trkpt lat="39.34735841" lon="-0.31097959"><ele>5.8</ele><time>2022-10-31T13:08:22.0000000+00:00</time></trkpt><trkpt lat="39.34735841" lon="-0.31097959"><ele>5.8</ele><time>2022-10-31T13:08:23.0000000+00:00</time></trkpt><trkpt lat="39.34735841" lon="-0.31097959"><ele>5.8</ele><time>2022-10-31T13:08:24.0000000+00:00</time></trkpt><trkpt lat="39.34735841" lon="-0.31097959"><ele>5.8</ele><time>2022-10-31T13:08:25.0000000+00:00</time></trkpt><trkpt lat="39.34735841" lon="-0.31097959"><ele>5.8</ele><time>2022-10-31T13:08:26.0000000+00:00</time></trkpt><trkpt lat="39.34735841" lon="-0.31097959"><ele>5.8</ele><time>2022-10-31T13:08:27.0000000+00:00</time></trkpt><trkpt lat="39.34735841" lon="-0.31097959"><ele>5.8</ele><time>2022-10-31T13:08:28.0000000+00:00</time></trkpt><trkpt lat="39.34735841" lon="-0.31097959"><ele>5.8</ele><time>2022-10-31T13:08:29.0000000+00:00</time></trkpt><trkpt lat="39.34735841" lon="-0.31097959"><ele>5.8</ele><time>2022-10-31T13:08:30.0000000+00:00</time></trkpt><trkpt lat="39.34735841" lon="-0.31097959"><ele>5.8</ele><time>2022-10-31T13:08:31.0000000+00:00</time></trkpt><trkpt lat="39.34735841" lon="-0.31097959"><ele>5.8</ele><time>2022-10-31T13:08:32.0000000+00:00</time></trkpt><trkpt lat="39.34735841" lon="-0.31097959"><ele>5.8</ele><time>2022-10-31T13:08:33.0000000+00:00</time></trkpt><trkpt lat="39.34735841" lon="-0.31097959"><ele>5.8</ele><time>2022-10-31T13:08:34.0000000+00:00</time></trkpt><trkpt lat="39.34735841" lon="-0.31097959"><ele>5.8</ele><time>2022-10-31T13:08:35.0000000+00:00</time></trkpt><trkpt lat="39.34735841" lon="-0.31097959"><ele>5.8</ele><time>2022-10-31T13:08:36.0000000+00:00</time></trkpt><trkpt lat="39.34735841" lon="-0.31097959"><ele>5.8</ele><time>2022-10-31T13:08:37.0000000+00:00</time></trkpt><trkpt lat="39.34735841" lon="-0.31097959"><ele>5.8</ele><time>2022-10-31T13:08:38.0000000+00:00</time></trkpt><trkpt lat="39.34735841" lon="-0.31097959"><ele>5.8</ele><time>2022-10-31T13:08:39.0000000+00:00</time></trkpt><trkpt lat="39.34735841" lon="-0.31097959"><ele>5.8</ele><time>2022-10-31T13:08:40.0000000+00:00</time></trkpt><trkpt lat="39.34735841" lon="-0.31097959"><ele>5.8</ele><time>2022-10-31T13:08:41.0000000+00:00</time></trkpt><trkpt lat="39.34735841" lon="-0.31097959"><ele>5.8</ele><time>2022-10-31T13:08:42.0000000+00:00</time></trkpt><trkpt lat="39.34735841" lon="-0.31097959"><ele>5.8</ele><time>2022-10-31T13:08:43.0000000+00:00</time></trkpt><trkpt lat="39.34735841" lon="-0.31097959"><ele>5.8</ele><time>2022-10-31T13:08:44.0000000+00:00</time></trkpt><trkpt lat="39.34735841" lon="-0.31097959"><ele>5.8</ele><time>2022-10-31T13:08:45.0000000+00:00</time></trkpt><trkpt lat="39.34735841" lon="-0.31097959"><ele>5.8</ele><time>2022-10-31T13:08:46.0000000+00:00</time></trkpt><trkpt lat="39.34735841" lon="-0.31097959"><ele>5.8</ele><time>2022-10-31T13:08:47.0000000+00:00</time></trkpt><trkpt lat="39.34735841" lon="-0.31097959"><ele>5.8</ele><time>2022-10-31T13:08:48.0000000+00:00</time></trkpt><trkpt lat="39.34735841" lon="-0.31097959"><ele>5.8</ele><time>2022-10-31T13:08:49.0000000+00:00</time></trkpt><trkpt lat="39.34735841" lon="-0.31097959"><ele>5.8</ele><time>2022-10-31T13:08:50.0000000+00:00</time></trkpt><trkpt lat="39.34735841" lon="-0.31097959"><ele>5.8</ele><time>2022-10-31T13:08:51.0000000+00:00</time></trkpt><trkpt lat="39.34735841" lon="-0.31097959"><ele>5.8</ele><time>2022-10-31T13:08:52.0000000+00:00</time></trkpt><trkpt lat="39.34735841" lon="-0.31097959"><ele>5.8</ele><time>2022-10-31T13:08:53.0000000+00:00</time></trkpt><trkpt lat="39.34735841" lon="-0.31097959"><ele>5.8</ele><time>2022-10-31T13:08:54.0000000+00:00</time></trkpt><trkpt lat="39.34735841" lon="-0.31097959"><ele>5.8</ele><time>2022-10-31T13:08:55.0000000+00:00</time></trkpt><trkpt lat="39.34735841" lon="-0.31097959"><ele>5.8</ele><time>2022-10-31T13:08:56.0000000+00:00</time></trkpt><trkpt lat="39.34735841" lon="-0.31097959"><ele>5.8</ele><time>2022-10-31T13:08:57.0000000+00:00</time></trkpt><trkpt lat="39.34735841" lon="-0.31097959"><ele>5.8</ele><time>2022-10-31T13:08:58.0000000+00:00</time></trkpt><trkpt lat="39.34735841" lon="-0.31097959"><ele>5.8</ele><time>2022-10-31T13:08:59.0000000+00:00</time></trkpt><trkpt lat="39.34735841" lon="-0.31097959"><ele>5.8</ele><time>2022-10-31T13:09:00.0000000+00:00</time></trkpt><trkpt lat="39.34735841" lon="-0.31097959"><ele>5.8</ele><time>2022-10-31T13:09:01.0000000+00:00</time></trkpt><trkpt lat="39.34735841" lon="-0.31097959"><ele>5.8</ele><time>2022-10-31T13:09:02.0000000+00:00</time></trkpt><trkpt lat="39.34735841" lon="-0.31097959"><ele>5.8</ele><time>2022-10-31T13:09:03.0000000+00:00</time></trkpt><trkpt lat="39.34735841" lon="-0.31097959"><ele>5.8</ele><time>2022-10-31T13:09:04.0000000+00:00</time></trkpt><trkpt lat="39.34735841" lon="-0.31097959"><ele>5.8</ele><time>2022-10-31T13:09:05.0000000+00:00</time></trkpt><trkpt lat="39.34735841" lon="-0.31097959"><ele>5.8</ele><time>2022-10-31T13:09:06.0000000+00:00</time></trkpt><trkpt lat="39.34735841" lon="-0.31097959"><ele>5.8</ele><time>2022-10-31T13:09:07.0000000+00:00</time></trkpt><trkpt lat="39.34735841" lon="-0.31097959"><ele>5.8</ele><time>2022-10-31T13:09:08.0000000+00:00</time></trkpt><trkpt lat="39.34735841" lon="-0.31097959"><ele>5.8</ele><time>2022-10-31T13:09:09.0000000+00:00</time></trkpt><trkpt lat="39.34735841" lon="-0.31097959"><ele>5.8</ele><time>2022-10-31T13:09:10.0000000+00:00</time></trkpt><trkpt lat="39.34735841" lon="-0.31097959"><ele>5.8</ele><time>2022-10-31T13:09:11.0000000+00:00</time></trkpt><trkpt lat="39.34735841" lon="-0.31097959"><ele>5.8</ele><time>2022-10-31T13:09:12.0000000+00:00</time></trkpt><trkpt lat="39.34735841" lon="-0.31097959"><ele>5.8</ele><time>2022-10-31T13:09:13.0000000+00:00</time></trkpt><trkpt lat="39.34735841" lon="-0.31097959"><ele>5.8</ele><time>2022-10-31T13:09:14.0000000+00:00</time></trkpt><trkpt lat="39.34735841" lon="-0.31097959"><ele>5.8</ele><time>2022-10-31T13:09:15.0000000+00:00</time></trkpt><trkpt lat="39.34735841" lon="-0.31097959"><ele>5.8</ele><time>2022-10-31T13:09:16.0000000+00:00</time></trkpt><trkpt lat="39.34735841" lon="-0.31097959"><ele>5.8</ele><time>2022-10-31T13:09:17.0000000+00:00</time></trkpt><trkpt lat="39.34735841" lon="-0.31097959"><ele>5.8</ele><time>2022-10-31T13:09:18.0000000+00:00</time></trkpt><trkpt lat="39.34735841" lon="-0.31097959"><ele>5.8</ele><time>2022-10-31T13:09:19.0000000+00:00</time></trkpt><trkpt lat="39.34735841" lon="-0.31097959"><ele>5.8</ele><time>2022-10-31T13:09:20.0000000+00:00</time></trkpt><trkpt lat="39.34735841" lon="-0.31097959"><ele>5.8</ele><time>2022-10-31T13:09:21.0000000+00:00</time></trkpt><trkpt lat="39.34735841" lon="-0.31097959"><ele>5.8</ele><time>2022-10-31T13:09:22.0000000+00:00</time></trkpt><trkpt lat="39.34735841" lon="-0.31097959"><ele>5.8</ele><time>2022-10-31T13:09:23.0000000+00:00</time></trkpt><trkpt lat="39.34735841" lon="-0.31097959"><ele>5.8</ele><time>2022-10-31T13:09:24.0000000+00:00</time></trkpt><trkpt lat="39.34735841" lon="-0.31097959"><ele>5.8</ele><time>2022-10-31T13:09:25.0000000+00:00</time></trkpt><trkpt lat="39.34735841" lon="-0.31097959"><ele>5.8</ele><time>2022-10-31T13:09:26.0000000+00:00</time></trkpt><trkpt lat="39.34735841" lon="-0.31097959"><ele>5.8</ele><time>2022-10-31T13:09:27.0000000+00:00</time></trkpt><trkpt lat="39.34735841" lon="-0.31097959"><ele>5.8</ele><time>2022-10-31T13:09:28.0000000+00:00</time></trkpt><trkpt lat="39.34735841" lon="-0.31097959"><ele>5.8</ele><time>2022-10-31T13:09:29.0000000+00:00</time></trkpt><trkpt lat="39.34735841" lon="-0.31097959"><ele>5.8</ele><time>2022-10-31T13:09:30.0000000+00:00</time></trkpt><trkpt lat="39.34735841" lon="-0.31097959"><ele>5.8</ele><time>2022-10-31T13:09:31.0000000+00:00</time></trkpt><trkpt lat="39.34735841" lon="-0.31097959"><ele>5.8</ele><time>2022-10-31T13:09:32.0000000+00:00</time></trkpt><trkpt lat="39.34735841" lon="-0.31097959"><ele>5.8</ele><time>2022-10-31T13:09:33.0000000+00:00</time></trkpt><trkpt lat="39.34735841" lon="-0.31097959"><ele>5.8</ele><time>2022-10-31T13:09:34.0000000+00:00</time></trkpt><trkpt lat="39.34735841" lon="-0.31097959"><ele>5.8</ele><time>2022-10-31T13:09:35.0000000+00:00</time></trkpt><trkpt lat="39.34735841" lon="-0.31097959"><ele>5.8</ele><time>2022-10-31T13:09:36.0000000+00:00</time></trkpt><trkpt lat="39.34735841" lon="-0.31097959"><ele>5.8</ele><time>2022-10-31T13:09:37.0000000+00:00</time></trkpt><trkpt lat="39.34735841" lon="-0.31097959"><ele>5.8</ele><time>2022-10-31T13:09:38.0000000+00:00</time></trkpt><trkpt lat="39.34735841" lon="-0.31097959"><ele>5.8</ele><time>2022-10-31T13:09:39.0000000+00:00</time></trkpt><trkpt lat="39.34735841" lon="-0.31097959"><ele>5.8</ele><time>2022-10-31T13:09:40.0000000+00:00</time></trkpt><trkpt lat="39.34735841" lon="-0.31097959"><ele>5.8</ele><time>2022-10-31T13:09:41.0000000+00:00</time></trkpt><trkpt lat="39.34735841" lon="-0.31097959"><ele>5.8</ele><time>2022-10-31T13:09:42.0000000+00:00</time></trkpt><trkpt lat="39.34735841" lon="-0.31097959"><ele>5.8</ele><time>2022-10-31T13:09:43.0000000+00:00</time></trkpt><trkpt lat="39.34735841" lon="-0.31097959"><ele>5.8</ele><time>2022-10-31T13:09:44.0000000+00:00</time></trkpt><trkpt lat="39.34735841" lon="-0.31097959"><ele>5.8</ele><time>2022-10-31T13:09:45.0000000+00:00</time></trkpt><trkpt lat="39.34735841" lon="-0.31097959"><ele>5.8</ele><time>2022-10-31T13:09:46.0000000+00:00</time></trkpt><trkpt lat="39.34735841" lon="-0.31097959"><ele>5.8</ele><time>2022-10-31T13:09:47.0000000+00:00</time></trkpt><trkpt lat="39.34735841" lon="-0.31097959"><ele>5.8</ele><time>2022-10-31T13:09:48.0000000+00:00</time></trkpt><trkpt lat="39.34735841" lon="-0.31097959"><ele>5.8</ele><time>2022-10-31T13:09:49.0000000+00:00</time></trkpt><trkpt lat="39.34735841" lon="-0.31097959"><ele>5.8</ele><time>2022-10-31T13:09:50.0000000+00:00</time></trkpt><trkpt lat="39.34735841" lon="-0.31097959"><ele>5.8</ele><time>2022-10-31T13:09:51.0000000+00:00</time></trkpt><trkpt lat="39.34735841" lon="-0.31097959"><ele>5.8</ele><time>2022-10-31T13:09:52.0000000+00:00</time></trkpt><trkpt lat="39.34735841" lon="-0.31097959"><ele>5.8</ele><time>2022-10-31T13:09:53.0000000+00:00</time></trkpt><trkpt lat="39.34735841" lon="-0.31097959"><ele>5.8</ele><time>2022-10-31T13:09:54.0000000+00:00</time></trkpt><trkpt lat="39.34735841" lon="-0.31097959"><ele>5.8</ele><time>2022-10-31T13:09:55.0000000+00:00</time></trkpt><trkpt lat="39.34735841" lon="-0.31097959"><ele>5.8</ele><time>2022-10-31T13:09:56.0000000+00:00</time></trkpt><trkpt lat="39.34735841" lon="-0.31097959"><ele>5.8</ele><time>2022-10-31T13:09:57.0000000+00:00</time></trkpt><trkpt lat="39.34735841" lon="-0.31097959"><ele>5.8</ele><time>2022-10-31T13:09:58.0000000+00:00</time></trkpt><trkpt lat="39.34735841" lon="-0.31097959"><ele>5.8</ele><time>2022-10-31T13:09:59.0000000+00:00</time></trkpt><trkpt lat="39.34735841" lon="-0.31097959"><ele>5.8</ele><time>2022-10-31T13:10:00.0000000+00:00</time></trkpt><trkpt lat="39.34735841" lon="-0.31097959"><ele>5.8</ele><time>2022-10-31T13:10:01.0000000+00:00</time></trkpt><trkpt lat="39.34735841" lon="-0.31097959"><ele>5.8</ele><time>2022-10-31T13:10:02.0000000+00:00</time></trkpt><trkpt lat="39.34735841" lon="-0.31097959"><ele>5.8</ele><time>2022-10-31T13:10:03.0000000+00:00</time></trkpt><trkpt lat="39.34735841" lon="-0.31097959"><ele>5.8</ele><time>2022-10-31T13:10:04.0000000+00:00</time></trkpt><trkpt lat="39.34735841" lon="-0.31097959"><ele>5.8</ele><time>2022-10-31T13:10:05.0000000+00:00</time></trkpt><trkpt lat="39.34735841" lon="-0.31097959"><ele>5.8</ele><time>2022-10-31T13:10:06.0000000+00:00</time></trkpt><trkpt lat="39.34735841" lon="-0.31097959"><ele>5.8</ele><time>2022-10-31T13:10:07.0000000+00:00</time></trkpt><trkpt lat="39.34735841" lon="-0.31097959"><ele>5.8</ele><time>2022-10-31T13:10:08.0000000+00:00</time></trkpt><trkpt lat="39.34735841" lon="-0.31097959"><ele>5.8</ele><time>2022-10-31T13:10:09.0000000+00:00</time></trkpt><trkpt lat="39.34735841" lon="-0.31097959"><ele>5.8</ele><time>2022-10-31T13:10:10.0000000+00:00</time></trkpt><trkpt lat="39.34735841" lon="-0.31097959"><ele>5.8</ele><time>2022-10-31T13:10:11.0000000+00:00</time></trkpt><trkpt lat="39.34735841" lon="-0.31097959"><ele>5.8</ele><time>2022-10-31T13:10:12.0000000+00:00</time></trkpt><trkpt lat="39.34735841" lon="-0.31097959"><ele>5.8</ele><time>2022-10-31T13:10:13.0000000+00:00</time></trkpt><trkpt lat="39.34735841" lon="-0.31097959"><ele>5.8</ele><time>2022-10-31T13:10:14.0000000+00:00</time></trkpt><trkpt lat="39.34735841" lon="-0.31097959"><ele>5.8</ele><time>2022-10-31T13:10:15.0000000+00:00</time></trkpt><trkpt lat="39.34735841" lon="-0.31097959"><ele>5.8</ele><time>2022-10-31T13:10:16.0000000+00:00</time></trkpt><trkpt lat="39.34735841" lon="-0.31097959"><ele>5.8</ele><time>2022-10-31T13:10:17.0000000+00:00</time></trkpt><trkpt lat="39.34735841" lon="-0.31097959"><ele>5.8</ele><time>2022-10-31T13:10:18.0000000+00:00</time></trkpt><trkpt lat="39.34735841" lon="-0.31097959"><ele>5.8</ele><time>2022-10-31T13:10:19.0000000+00:00</time></trkpt><trkpt lat="39.34735841" lon="-0.31097959"><ele>5.8</ele><time>2022-10-31T13:10:20.0000000+00:00</time></trkpt><trkpt lat="39.34735841" lon="-0.31097959"><ele>5.8</ele><time>2022-10-31T13:10:21.0000000+00:00</time></trkpt><trkpt lat="39.34735841" lon="-0.31097959"><ele>5.8</ele><time>2022-10-31T13:10:22.0000000+00:00</time></trkpt><trkpt lat="39.34735841" lon="-0.31097959"><ele>5.8</ele><time>2022-10-31T13:10:23.0000000+00:00</time></trkpt><trkpt lat="39.34735841" lon="-0.31097959"><ele>5.8</ele><time>2022-10-31T13:10:24.0000000+00:00</time></trkpt><trkpt lat="39.34735841" lon="-0.31097959"><ele>5.8</ele><time>2022-10-31T13:10:25.0000000+00:00</time></trkpt><trkpt lat="39.34735841" lon="-0.31097959"><ele>5.8</ele><time>2022-10-31T13:10:26.0000000+00:00</time></trkpt><trkpt lat="39.34735841" lon="-0.31097959"><ele>5.8</ele><time>2022-10-31T13:10:27.0000000+00:00</time></trkpt><trkpt lat="39.34735841" lon="-0.31097959"><ele>5.8</ele><time>2022-10-31T13:10:28.0000000+00:00</time></trkpt><trkpt lat="39.34735841" lon="-0.31097959"><ele>5.8</ele><time>2022-10-31T13:10:29.0000000+00:00</time></trkpt><trkpt lat="39.34735841" lon="-0.31097959"><ele>5.8</ele><time>2022-10-31T13:10:30.0000000+00:00</time></trkpt><trkpt lat="39.34735841" lon="-0.31097959"><ele>5.8</ele><time>2022-10-31T13:10:31.0000000+00:00</time></trkpt><trkpt lat="39.34735841" lon="-0.31097959"><ele>5.8</ele><time>2022-10-31T13:10:32.0000000+00:00</time></trkpt><trkpt lat="39.34735841" lon="-0.31097959"><ele>5.8</ele><time>2022-10-31T13:10:33.0000000+00:00</time></trkpt><trkpt lat="39.34735841" lon="-0.31097959"><ele>5.8</ele><time>2022-10-31T13:10:34.0000000+00:00</time></trkpt><trkpt lat="39.34735841" lon="-0.31097959"><ele>5.8</ele><time>2022-10-31T13:10:35.0000000+00:00</time></trkpt><trkpt lat="39.34735841" lon="-0.31097959"><ele>5.8</ele><time>2022-10-31T13:10:36.0000000+00:00</time></trkpt><trkpt lat="39.34735841" lon="-0.31097959"><ele>5.8</ele><time>2022-10-31T13:10:37.0000000+00:00</time></trkpt><trkpt lat="39.34735841" lon="-0.31097959"><ele>5.8</ele><time>2022-10-31T13:10:38.0000000+00:00</time></trkpt><trkpt lat="39.34735841" lon="-0.31097959"><ele>5.8</ele><time>2022-10-31T13:10:39.0000000+00:00</time></trkpt><trkpt lat="39.34735841" lon="-0.31097959"><ele>5.8</ele><time>2022-10-31T13:10:40.0000000+00:00</time></trkpt><trkpt lat="39.34735841" lon="-0.31097959"><ele>5.8</ele><time>2022-10-31T13:10:41.0000000+00:00</time></trkpt><trkpt lat="39.34735841" lon="-0.31097959"><ele>5.8</ele><time>2022-10-31T13:10:42.0000000+00:00</time></trkpt><trkpt lat="39.34735841" lon="-0.31097959"><ele>5.8</ele><time>2022-10-31T13:10:43.0000000+00:00</time></trkpt><trkpt lat="39.34735841" lon="-0.31097959"><ele>5.8</ele><time>2022-10-31T13:10:44.0000000+00:00</time></trkpt><trkpt lat="39.34735841" lon="-0.31097959"><ele>5.8</ele><time>2022-10-31T13:10:45.0000000+00:00</time></trkpt><trkpt lat="39.34735841" lon="-0.31097959"><ele>5.8</ele><time>2022-10-31T13:10:46.0000000+00:00</time></trkpt><trkpt lat="39.34735841" lon="-0.31097959"><ele>5.8</ele><time>2022-10-31T13:10:47.0000000+00:00</time></trkpt><trkpt lat="39.34735841" lon="-0.31097959"><ele>5.8</ele><time>2022-10-31T13:10:48.0000000+00:00</time></trkpt><trkpt lat="39.34735841" lon="-0.31097959"><ele>5.8</ele><time>2022-10-31T13:10:49.0000000+00:00</time></trkpt><trkpt lat="39.34735841" lon="-0.31097959"><ele>5.8</ele><time>2022-10-31T13:10:50.0000000+00:00</time></trkpt><trkpt lat="39.34735841" lon="-0.31097959"><ele>5.8</ele><time>2022-10-31T13:10:51.0000000+00:00</time></trkpt><trkpt lat="39.34735841" lon="-0.31097959"><ele>5.8</ele><time>2022-10-31T13:10:52.0000000+00:00</time></trkpt><trkpt lat="39.34735841" lon="-0.31097959"><ele>5.8</ele><time>2022-10-31T13:10:53.0000000+00:00</time></trkpt><trkpt lat="39.34735841" lon="-0.31097959"><ele>5.8</ele><time>2022-10-31T13:10:54.0000000+00:00</time></trkpt><trkpt lat="39.34735841" lon="-0.31097959"><ele>5.8</ele><time>2022-10-31T13:10:55.0000000+00:00</time></trkpt><trkpt lat="39.34735841" lon="-0.31097959"><ele>5.8</ele><time>2022-10-31T13:10:56.0000000+00:00</time></trkpt><trkpt lat="39.34735841" lon="-0.31097959"><ele>5.8</ele><time>2022-10-31T13:10:57.0000000+00:00</time></trkpt><trkpt lat="39.34735841" lon="-0.31097959"><ele>5.8</ele><time>2022-10-31T13:10:58.0000000+00:00</time></trkpt><trkpt lat="39.34735841" lon="-0.31097959"><ele>5.8</ele><time>2022-10-31T13:10:59.0000000+00:00</time></trkpt><trkpt lat="39.34735841" lon="-0.31097959"><ele>5.8</ele><time>2022-10-31T13:11:00.0000000+00:00</time></trkpt><trkpt lat="39.34735841" lon="-0.31097959"><ele>5.8</ele><time>2022-10-31T13:11:01.0000000+00:00</time></trkpt><trkpt lat="39.34735841" lon="-0.31097959"><ele>5.8</ele><time>2022-10-31T13:11:02.0000000+00:00</time></trkpt><trkpt lat="39.34735841" lon="-0.31097959"><ele>5.8</ele><time>2022-10-31T13:11:03.0000000+00:00</time></trkpt><trkpt lat="39.34735841" lon="-0.31097959"><ele>5.8</ele><time>2022-10-31T13:11:04.0000000+00:00</time></trkpt><trkpt lat="39.34735841" lon="-0.31097959"><ele>5.8</ele><time>2022-10-31T13:11:05.0000000+00:00</time></trkpt><trkpt lat="39.34735841" lon="-0.31097959"><ele>5.8</ele><time>2022-10-31T13:11:06.0000000+00:00</time></trkpt><trkpt lat="39.34735841" lon="-0.31097959"><ele>5.8</ele><time>2022-10-31T13:11:07.0000000+00:00</time></trkpt><trkpt lat="39.34735841" lon="-0.31097959"><ele>5.8</ele><time>2022-10-31T13:11:08.0000000+00:00</time></trkpt><trkpt lat="39.34735841" lon="-0.31097959"><ele>5.8</ele><time>2022-10-31T13:11:09.0000000+00:00</time></trkpt><trkpt lat="39.34735841" lon="-0.31097959"><ele>5.8</ele><time>2022-10-31T13:11:10.0000000+00:00</time></trkpt><trkpt lat="39.34735841" lon="-0.31097959"><ele>5.8</ele><time>2022-10-31T13:11:11.0000000+00:00</time></trkpt><trkpt lat="39.34735841" lon="-0.31097959"><ele>5.8</ele><time>2022-10-31T13:11:12.0000000+00:00</time></trkpt><trkpt lat="39.34735841" lon="-0.31097959"><ele>5.8</ele><time>2022-10-31T13:11:13.0000000+00:00</time></trkpt><trkpt lat="39.34735841" lon="-0.31097959"><ele>5.8</ele><time>2022-10-31T13:11:14.0000000+00:00</time></trkpt><trkpt lat="39.34735841" lon="-0.31097959"><ele>5.8</ele><time>2022-10-31T13:11:15.0000000+00:00</time></trkpt><trkpt lat="39.34735841" lon="-0.31097959"><ele>5.8</ele><time>2022-10-31T13:11:16.0000000+00:00</time></trkpt><trkpt lat="39.34735841" lon="-0.31097959"><ele>5.8</ele><time>2022-10-31T13:11:17.0000000+00:00</time></trkpt><trkpt lat="39.34735841" lon="-0.31097959"><ele>5.8</ele><time>2022-10-31T13:11:18.0000000+00:00</time></trkpt><trkpt lat="39.34735841" lon="-0.31097959"><ele>5.8</ele><time>2022-10-31T13:11:19.0000000+00:00</time></trkpt><trkpt lat="39.34735841" lon="-0.31097959"><ele>5.8</ele><time>2022-10-31T13:11:20.0000000+00:00</time></trkpt><trkpt lat="39.34735841" lon="-0.31097959"><ele>5.8</ele><time>2022-10-31T13:11:21.0000000+00:00</time></trkpt><trkpt lat="39.34735841" lon="-0.31097959"><ele>5.8</ele><time>2022-10-31T13:11:22.0000000+00:00</time></trkpt><trkpt lat="39.34735841" lon="-0.31097959"><ele>5.8</ele><time>2022-10-31T13:11:23.0000000+00:00</time></trkpt><trkpt lat="39.34735841" lon="-0.31097959"><ele>5.8</ele><time>2022-10-31T13:11:24.0000000+00:00</time></trkpt><trkpt lat="39.34735841" lon="-0.31097959"><ele>5.8</ele><time>2022-10-31T13:11:25.0000000+00:00</time></trkpt><trkpt lat="39.34735841" lon="-0.31097959"><ele>5.8</ele><time>2022-10-31T13:11:26.0000000+00:00</time></trkpt><trkpt lat="39.34735841" lon="-0.31097959"><ele>5.8</ele><time>2022-10-31T13:11:27.0000000+00:00</time></trkpt><trkpt lat="39.34735841" lon="-0.31097959"><ele>5.8</ele><time>2022-10-31T13:11:28.0000000+00:00</time></trkpt><trkpt lat="39.34735841" lon="-0.31097959"><ele>5.8</ele><time>2022-10-31T13:11:29.0000000+00:00</time></trkpt><trkpt lat="39.34735841" lon="-0.31097959"><ele>5.8</ele><time>2022-10-31T13:11:30.0000000+00:00</time></trkpt><trkpt lat="39.34735841" lon="-0.31097959"><ele>5.8</ele><time>2022-10-31T13:11:31.0000000+00:00</time></trkpt><trkpt lat="39.34735841" lon="-0.31097959"><ele>5.8</ele><time>2022-10-31T13:11:32.0000000+00:00</time></trkpt><trkpt lat="39.34735841" lon="-0.31097959"><ele>5.8</ele><time>2022-10-31T13:11:33.0000000+00:00</time></trkpt><trkpt lat="39.34735841" lon="-0.31097959"><ele>5.8</ele><time>2022-10-31T13:11:34.0000000+00:00</time></trkpt><trkpt lat="39.34735841" lon="-0.31097959"><ele>5.8</ele><time>2022-10-31T13:11:35.0000000+00:00</time></trkpt><trkpt lat="39.34735841" lon="-0.31097959"><ele>5.8</ele><time>2022-10-31T13:11:36.0000000+00:00</time></trkpt><trkpt lat="39.34735841" lon="-0.31097959"><ele>5.8</ele><time>2022-10-31T13:11:37.0000000+00:00</time></trkpt><trkpt lat="39.34735841" lon="-0.31097959"><ele>5.8</ele><time>2022-10-31T13:11:38.0000000+00:00</time></trkpt><trkpt lat="39.34735841" lon="-0.31097959"><ele>5.8</ele><time>2022-10-31T13:11:39.0000000+00:00</time></trkpt><trkpt lat="39.34735841" lon="-0.31097959"><ele>5.8</ele><time>2022-10-31T13:11:40.0000000+00:00</time></trkpt><trkpt lat="39.34735841" lon="-0.31097959"><ele>5.8</ele><time>2022-10-31T13:11:41.0000000+00:00</time></trkpt><trkpt lat="39.34735841" lon="-0.31097959"><ele>5.8</ele><time>2022-10-31T13:11:42.0000000+00:00</time></trkpt><trkpt lat="39.34735841" lon="-0.31097959"><ele>5.8</ele><time>2022-10-31T13:11:43.0000000+00:00</time></trkpt><trkpt lat="39.34735841" lon="-0.31097959"><ele>5.8</ele><time>2022-10-31T13:11:44.0000000+00:00</time></trkpt><trkpt lat="39.34735841" lon="-0.31097959"><ele>5.8</ele><time>2022-10-31T13:11:45.0000000+00:00</time></trkpt><trkpt lat="39.34735841" lon="-0.31097959"><ele>5.8</ele><time>2022-10-31T13:11:46.0000000+00:00</time></trkpt><trkpt lat="39.34735841" lon="-0.31097959"><ele>5.8</ele><time>2022-10-31T13:11:47.0000000+00:00</time></trkpt><trkpt lat="39.34735841" lon="-0.31097959"><ele>5.8</ele><time>2022-10-31T13:11:48.0000000+00:00</time></trkpt><trkpt lat="39.34735841" lon="-0.31097959"><ele>5.8</ele><time>2022-10-31T13:11:49.0000000+00:00</time></trkpt><trkpt lat="39.34735841" lon="-0.31097959"><ele>5.8</ele><time>2022-10-31T13:11:50.0000000+00:00</time></trkpt><trkpt lat="39.34735841" lon="-0.31097959"><ele>5.8</ele><time>2022-10-31T13:11:51.0000000+00:00</time></trkpt><trkpt lat="39.34735841" lon="-0.31097959"><ele>5.8</ele><time>2022-10-31T13:11:52.0000000+00:00</time></trkpt><trkpt lat="39.34735841" lon="-0.31097959"><ele>5.8</ele><time>2022-10-31T13:11:53.0000000+00:00</time></trkpt><trkpt lat="39.34735841" lon="-0.31097959"><ele>5.8</ele><time>2022-10-31T13:11:54.0000000+00:00</time></trkpt><trkpt lat="39.34735841" lon="-0.31097959"><ele>5.8</ele><time>2022-10-31T13:11:55.0000000+00:00</time></trkpt><trkpt lat="39.34735841" lon="-0.31097959"><ele>5.8</ele><time>2022-10-31T13:11:56.0000000+00:00</time></trkpt><trkpt lat="39.34735841" lon="-0.31097959"><ele>5.8</ele><time>2022-10-31T13:11:57.0000000+00:00</time></trkpt><trkpt lat="39.34735841" lon="-0.31097959"><ele>5.8</ele><time>2022-10-31T13:11:58.0000000+00:00</time></trkpt><trkpt lat="39.34735841" lon="-0.31097959"><ele>5.8</ele><time>2022-10-31T13:11:59.0000000+00:00</time></trkpt><trkpt lat="39.34735841" lon="-0.31097959"><ele>5.8</ele><time>2022-10-31T13:12:00.0000000+00:00</time></trkpt><trkpt lat="39.34735841" lon="-0.31097959"><ele>5.8</ele><time>2022-10-31T13:12:01.0000000+00:00</time></trkpt><trkpt lat="39.34735841" lon="-0.31097959"><ele>5.8</ele><time>2022-10-31T13:12:02.0000000+00:00</time></trkpt><trkpt lat="39.34735841" lon="-0.31097959"><ele>5.8</ele><time>2022-10-31T13:12:03.0000000+00:00</time></trkpt><trkpt lat="39.34735841" lon="-0.31097959"><ele>5.8</ele><time>2022-10-31T13:12:04.0000000+00:00</time></trkpt><trkpt lat="39.34735841" lon="-0.31097959"><ele>5.8</ele><time>2022-10-31T13:12:05.0000000+00:00</time></trkpt><trkpt lat="39.34735841" lon="-0.31097959"><ele>5.8</ele><time>2022-10-31T13:12:06.0000000+00:00</time></trkpt><trkpt lat="39.34735841" lon="-0.31097959"><ele>5.8</ele><time>2022-10-31T13:12:07.0000000+00:00</time></trkpt><trkpt lat="39.34735841" lon="-0.31097959"><ele>5.8</ele><time>2022-10-31T13:12:08.0000000+00:00</time></trkpt><trkpt lat="39.34735841" lon="-0.31097959"><ele>5.8</ele><time>2022-10-31T13:12:09.0000000+00:00</time></trkpt><trkpt lat="39.34735841" lon="-0.31097959"><ele>5.8</ele><time>2022-10-31T13:12:10.0000000+00:00</time></trkpt><trkpt lat="39.34735841" lon="-0.31097959"><ele>5.8</ele><time>2022-10-31T13:12:11.0000000+00:00</time></trkpt><trkpt lat="39.34735841" lon="-0.31097959"><ele>5.8</ele><time>2022-10-31T13:12:12.0000000+00:00</time></trkpt><trkpt lat="39.34735841" lon="-0.31097959"><ele>5.8</ele><time>2022-10-31T13:12:13.0000000+00:00</time></trkpt><trkpt lat="39.34735841" lon="-0.31097959"><ele>5.8</ele><time>2022-10-31T13:12:14.0000000+00:00</time></trkpt><trkpt lat="39.34735841" lon="-0.31097959"><ele>5.8</ele><time>2022-10-31T13:12:15.0000000+00:00</time></trkpt><trkpt lat="39.34735841" lon="-0.31097959"><ele>5.8</ele><time>2022-10-31T13:12:16.0000000+00:00</time></trkpt><trkpt lat="39.34735841" lon="-0.31097959"><ele>5.8</ele><time>2022-10-31T13:12:17.0000000+00:00</time></trkpt><trkpt lat="39.34735841" lon="-0.31097959"><ele>5.8</ele><time>2022-10-31T13:12:18.0000000+00:00</time></trkpt><trkpt lat="39.34735841" lon="-0.31097959"><ele>5.8</ele><time>2022-10-31T13:12:19.0000000+00:00</time></trkpt><trkpt lat="39.34735841" lon="-0.31097959"><ele>5.8</ele><time>2022-10-31T13:12:20.0000000+00:00</time></trkpt><trkpt lat="39.34735841" lon="-0.31097959"><ele>5.8</ele><time>2022-10-31T13:12:21.0000000+00:00</time></trkpt><trkpt lat="39.34735841" lon="-0.31097959"><ele>5.8</ele><time>2022-10-31T13:12:22.0000000+00:00</time></trkpt><trkpt lat="39.34735841" lon="-0.31097959"><ele>5.8</ele><time>2022-10-31T13:12:23.0000000+00:00</time></trkpt><trkpt lat="39.34735841" lon="-0.31097959"><ele>5.8</ele><time>2022-10-31T13:12:24.0000000+00:00</time></trkpt><trkpt lat="39.34735841" lon="-0.31097959"><ele>5.8</ele><time>2022-10-31T13:12:25.0000000+00:00</time></trkpt><trkpt lat="39.34735841" lon="-0.31097959"><ele>5.8</ele><time>2022-10-31T13:12:26.0000000+00:00</time></trkpt><trkpt lat="39.34735841" lon="-0.31097959"><ele>5.8</ele><time>2022-10-31T13:12:27.0000000+00:00</time></trkpt><trkpt lat="39.34735841" lon="-0.31097959"><ele>5.8</ele><time>2022-10-31T13:12:28.0000000+00:00</time></trkpt><trkpt lat="39.34735841" lon="-0.31097959"><ele>5.8</ele><time>2022-10-31T13:12:29.0000000+00:00</time></trkpt><trkpt lat="39.34735841" lon="-0.31097959"><ele>5.8</ele><time>2022-10-31T13:12:30.0000000+00:00</time></trkpt><trkpt lat="39.34735841" lon="-0.31097959"><ele>5.8</ele><time>2022-10-31T13:12:31.0000000+00:00</time></trkpt><trkpt lat="39.34735841" lon="-0.31097959"><ele>5.8</ele><time>2022-10-31T13:12:32.0000000+00:00</time></trkpt><trkpt lat="39.34735841" lon="-0.31097959"><ele>5.8</ele><time>2022-10-31T13:12:33.0000000+00:00</time></trkpt><trkpt lat="39.34735841" lon="-0.31097959"><ele>5.8</ele><time>2022-10-31T13:12:34.0000000+00:00</time></trkpt><trkpt lat="39.34735841" lon="-0.31097959"><ele>5.8</ele><time>2022-10-31T13:12:35.0000000+00:00</time></trkpt><trkpt lat="39.34735841" lon="-0.31097959"><ele>5.8</ele><time>2022-10-31T13:12:36.0000000+00:00</time></trkpt><trkpt lat="39.34735841" lon="-0.31097959"><ele>5.8</ele><time>2022-10-31T13:12:37.0000000+00:00</time></trkpt><trkpt lat="39.34735841" lon="-0.31097959"><ele>5.8</ele><time>2022-10-31T13:12:38.0000000+00:00</time></trkpt><trkpt lat="39.34735841" lon="-0.31097959"><ele>5.8</ele><time>2022-10-31T13:12:39.0000000+00:00</time></trkpt><trkpt lat="39.34735841" lon="-0.31097959"><ele>5.8</ele><time>2022-10-31T13:12:40.0000000+00:00</time></trkpt><trkpt lat="39.34735841" lon="-0.31097959"><ele>5.8</ele><time>2022-10-31T13:12:41.0000000+00:00</time></trkpt><trkpt lat="39.34735841" lon="-0.31097959"><ele>5.8</ele><time>2022-10-31T13:12:42.0000000+00:00</time></trkpt><trkpt lat="39.34735841" lon="-0.31097959"><ele>5.8</ele><time>2022-10-31T13:12:43.0000000+00:00</time></trkpt><trkpt lat="39.34735841" lon="-0.31097959"><ele>5.8</ele><time>2022-10-31T13:12:44.0000000+00:00</time></trkpt><trkpt lat="39.34735841" lon="-0.31097959"><ele>5.8</ele><time>2022-10-31T13:12:45.0000000+00:00</time></trkpt><trkpt lat="39.34735841" lon="-0.31097959"><ele>5.8</ele><time>2022-10-31T13:12:46.0000000+00:00</time></trkpt><trkpt lat="39.34735841" lon="-0.31097959"><ele>5.8</ele><time>2022-10-31T13:12:47.0000000+00:00</time></trkpt><trkpt lat="39.34735841" lon="-0.31097959"><ele>5.8</ele><time>2022-10-31T13:12:48.0000000+00:00</time></trkpt><trkpt lat="39.34735841" lon="-0.31097959"><ele>5.8</ele><time>2022-10-31T13:12:49.0000000+00:00</time></trkpt><trkpt lat="39.34735841" lon="-0.31097959"><ele>5.8</ele><time>2022-10-31T13:12:50.0000000+00:00</time></trkpt><trkpt lat="39.34735841" lon="-0.31097959"><ele>5.8</ele><time>2022-10-31T13:12:51.0000000+00:00</time></trkpt><trkpt lat="39.34735841" lon="-0.31097959"><ele>5.8</ele><time>2022-10-31T13:12:52.0000000+00:00</time></trkpt><trkpt lat="39.34735841" lon="-0.31097959"><ele>5.8</ele><time>2022-10-31T13:12:53.0000000+00:00</time></trkpt><trkpt lat="39.34735841" lon="-0.31097959"><ele>5.8</ele><time>2022-10-31T13:12:54.0000000+00:00</time></trkpt><trkpt lat="39.34735841" lon="-0.31097959"><ele>5.8</ele><time>2022-10-31T13:12:55.0000000+00:00</time></trkpt><trkpt lat="39.34735841" lon="-0.31097959"><ele>5.8</ele><time>2022-10-31T13:12:56.0000000+00:00</time></trkpt><trkpt lat="39.34735841" lon="-0.31097959"><ele>5.8</ele><time>2022-10-31T13:12:57.0000000+00:00</time></trkpt><trkpt lat="39.34735841" lon="-0.31097959"><ele>5.8</ele><time>2022-10-31T13:12:58.0000000+00:00</time></trkpt><trkpt lat="39.34735841" lon="-0.31097959"><ele>5.8</ele><time>2022-10-31T13:12:59.0000000+00:00</time></trkpt><trkpt lat="39.34735841" lon="-0.31097959"><ele>5.8</ele><time>2022-10-31T13:13:00.0000000+00:00</time></trkpt><trkpt lat="39.34735841" lon="-0.31097959"><ele>5.8</ele><time>2022-10-31T13:13:01.0000000+00:00</time></trkpt><trkpt lat="39.34735841" lon="-0.31097959"><ele>5.8</ele><time>2022-10-31T13:13:02.0000000+00:00</time></trkpt><trkpt lat="39.34735841" lon="-0.31097959"><ele>5.8</ele><time>2022-10-31T13:13:03.0000000+00:00</time></trkpt><trkpt lat="39.34735841" lon="-0.31097959"><ele>5.8</ele><time>2022-10-31T13:13:04.0000000+00:00</time></trkpt><trkpt lat="39.34735841" lon="-0.31097959"><ele>5.8</ele><time>2022-10-31T13:13:05.0000000+00:00</time></trkpt><trkpt lat="39.34735841" lon="-0.31097959"><ele>5.8</ele><time>2022-10-31T13:13:06.0000000+00:00</time></trkpt><trkpt lat="39.34735841" lon="-0.31097959"><ele>5.8</ele><time>2022-10-31T13:13:07.0000000+00:00</time></trkpt><trkpt lat="39.34735841" lon="-0.31097959"><ele>5.8</ele><time>2022-10-31T13:13:08.0000000+00:00</time></trkpt><trkpt lat="39.34735841" lon="-0.31097959"><ele>5.8</ele><time>2022-10-31T13:13:09.0000000+00:00</time></trkpt><trkpt lat="39.34735841" lon="-0.31097959"><ele>5.8</ele><time>2022-10-31T13:13:10.0000000+00:00</time></trkpt><trkpt lat="39.34735841" lon="-0.31097959"><ele>5.8</ele><time>2022-10-31T13:13:11.0000000+00:00</time></trkpt><trkpt lat="39.34735841" lon="-0.31097959"><ele>5.8</ele><time>2022-10-31T13:13:12.0000000+00:00</time></trkpt><trkpt lat="39.34735841" lon="-0.31097959"><ele>5.8</ele><time>2022-10-31T13:13:13.0000000+00:00</time></trkpt><trkpt lat="39.34735841" lon="-0.31097959"><ele>5.8</ele><time>2022-10-31T13:13:14.0000000+00:00</time></trkpt><trkpt lat="39.34735841" lon="-0.31097959"><ele>5.8</ele><time>2022-10-31T13:13:15.0000000+00:00</time></trkpt><trkpt lat="39.34735841" lon="-0.31097959"><ele>5.8</ele><time>2022-10-31T13:13:16.0000000+00:00</time></trkpt><trkpt lat="39.34735841" lon="-0.31097959"><ele>5.8</ele><time>2022-10-31T13:13:17.0000000+00:00</time></trkpt><trkpt lat="39.34735841" lon="-0.31097959"><ele>5.8</ele><time>2022-10-31T13:13:18.0000000+00:00</time></trkpt><trkpt lat="39.34735841" lon="-0.31097959"><ele>5.8</ele><time>2022-10-31T13:13:19.0000000+00:00</time></trkpt><trkpt lat="39.34735841" lon="-0.31097959"><ele>5.8</ele><time>2022-10-31T13:13:20.0000000+00:00</time></trkpt><trkpt lat="39.34735841" lon="-0.31097959"><ele>5.8</ele><time>2022-10-31T13:13:21.0000000+00:00</time></trkpt><trkpt lat="39.34735841" lon="-0.31097959"><ele>5.8</ele><time>2022-10-31T13:13:22.0000000+00:00</time></trkpt><trkpt lat="39.34735841" lon="-0.31097959"><ele>5.8</ele><time>2022-10-31T13:13:23.0000000+00:00</time></trkpt><trkpt lat="39.34735841" lon="-0.31097959"><ele>5.8</ele><time>2022-10-31T13:13:24.0000000+00:00</time></trkpt><trkpt lat="39.34735841" lon="-0.31097959"><ele>5.8</ele><time>2022-10-31T13:13:25.0000000+00:00</time></trkpt><trkpt lat="39.34735841" lon="-0.31097959"><ele>5.8</ele><time>2022-10-31T13:13:26.0000000+00:00</time></trkpt><trkpt lat="39.34735841" lon="-0.31097959"><ele>5.8</ele><time>2022-10-31T13:13:27.0000000+00:00</time></trkpt><trkpt lat="39.34735841" lon="-0.31097959"><ele>5.8</ele><time>2022-10-31T13:13:28.0000000+00:00</time></trkpt><trkpt lat="39.34735841" lon="-0.31097959"><ele>5.8</ele><time>2022-10-31T13:13:29.0000000+00:00</time></trkpt><trkpt lat="39.34735841" lon="-0.31097959"><ele>5.8</ele><time>2022-10-31T13:13:30.0000000+00:00</time></trkpt><trkpt lat="39.34735841" lon="-0.31097959"><ele>5.8</ele><time>2022-10-31T13:13:31.0000000+00:00</time></trkpt><trkpt lat="39.34735841" lon="-0.31097959"><ele>5.8</ele><time>2022-10-31T13:13:32.0000000+00:00</time></trkpt><trkpt lat="39.34735841" lon="-0.31097959"><ele>5.8</ele><time>2022-10-31T13:13:33.0000000+00:00</time></trkpt><trkpt lat="39.34735841" lon="-0.31097959"><ele>5.8</ele><time>2022-10-31T13:13:34.0000000+00:00</time></trkpt><trkpt lat="39.34735841" lon="-0.31097959"><ele>5.8</ele><time>2022-10-31T13:13:35.0000000+00:00</time></trkpt><trkpt lat="39.34735841" lon="-0.31097959"><ele>5.8</ele><time>2022-10-31T13:13:36.0000000+00:00</time></trkpt><trkpt lat="39.34735841" lon="-0.31097959"><ele>5.8</ele><time>2022-10-31T13:13:37.0000000+00:00</time></trkpt><trkpt lat="39.34735841" lon="-0.31097959"><ele>5.8</ele><time>2022-10-31T13:13:38.0000000+00:00</time></trkpt><trkpt lat="39.34735841" lon="-0.31097959"><ele>5.8</ele><time>2022-10-31T13:13:39.0000000+00:00</time></trkpt><trkpt lat="39.34735841" lon="-0.31097959"><ele>5.8</ele><time>2022-10-31T13:13:40.0000000+00:00</time></trkpt><trkpt lat="39.34735841" lon="-0.31097959"><ele>5.8</ele><time>2022-10-31T13:13:41.0000000+00:00</time></trkpt><trkpt lat="39.34735841" lon="-0.31097959"><ele>5.8</ele><time>2022-10-31T13:13:42.0000000+00:00</time></trkpt><trkpt lat="39.34735841" lon="-0.31097959"><ele>5.8</ele><time>2022-10-31T13:13:43.0000000+00:00</time></trkpt><trkpt lat="39.34735841" lon="-0.31097959"><ele>5.8</ele><time>2022-10-31T13:13:44.0000000+00:00</time></trkpt><trkpt lat="39.34735841" lon="-0.31097959"><ele>5.8</ele><time>2022-10-31T13:13:45.0000000+00:00</time></trkpt><trkpt lat="39.34735841" lon="-0.31097959"><ele>5.8</ele><time>2022-10-31T13:13:46.0000000+00:00</time></trkpt><trkpt lat="39.34735841" lon="-0.31097959"><ele>5.8</ele><time>2022-10-31T13:13:47.0000000+00:00</time></trkpt><trkpt lat="39.34735841" lon="-0.31097959"><ele>5.8</ele><time>2022-10-31T13:13:48.0000000+00:00</time></trkpt><trkpt lat="39.34735841" lon="-0.31097959"><ele>5.8</ele><time>2022-10-31T13:13:49.0000000+00:00</time></trkpt><trkpt lat="39.34735841" lon="-0.31097959"><ele>5.8</ele><time>2022-10-31T13:13:50.0000000+00:00</time></trkpt><trkpt lat="39.34735841" lon="-0.31097959"><ele>5.8</ele><time>2022-10-31T13:13:51.0000000+00:00</time></trkpt><trkpt lat="39.34735841" lon="-0.31097959"><ele>5.8</ele><time>2022-10-31T13:13:52.0000000+00:00</time></trkpt><trkpt lat="39.34735841" lon="-0.31097959"><ele>5.8</ele><time>2022-10-31T13:13:53.0000000+00:00</time></trkpt><trkpt lat="39.34735841" lon="-0.31097959"><ele>5.8</ele><time>2022-10-31T13:13:54.0000000+00:00</time></trkpt><trkpt lat="39.34735841" lon="-0.31097959"><ele>5.8</ele><time>2022-10-31T13:13:55.0000000+00:00</time></trkpt><trkpt lat="39.34735841" lon="-0.31097959"><ele>5.8</ele><time>2022-10-31T13:13:56.0000000+00:00</time></trkpt><trkpt lat="39.34735841" lon="-0.31097959"><ele>5.8</ele><time>2022-10-31T13:13:57.0000000+00:00</time></trkpt><trkpt lat="39.34735841" lon="-0.31097959"><ele>5.8</ele><time>2022-10-31T13:13:58.0000000+00:00</time></trkpt><trkpt lat="39.34735841" lon="-0.31097959"><ele>5.8</ele><time>2022-10-31T13:13:59.0000000+00:00</time></trkpt><trkpt lat="39.34735841" lon="-0.31097959"><ele>5.8</ele><time>2022-10-31T13:14:00.0000000+00:00</time></trkpt><trkpt lat="39.34735841" lon="-0.31097959"><ele>5.8</ele><time>2022-10-31T13:14:01.0000000+00:00</time></trkpt><trkpt lat="39.34735841" lon="-0.31097959"><ele>5.8</ele><time>2022-10-31T13:14:02.0000000+00:00</time></trkpt><trkpt lat="39.34735841" lon="-0.31097959"><ele>5.8</ele><time>2022-10-31T13:14:03.0000000+00:00</time></trkpt><trkpt lat="39.34735841" lon="-0.31097959"><ele>5.8</ele><time>2022-10-31T13:14:04.0000000+00:00</time></trkpt><trkpt lat="39.34735841" lon="-0.31097959"><ele>5.8</ele><time>2022-10-31T13:14:05.0000000+00:00</time></trkpt><trkpt lat="39.34735841" lon="-0.31097959"><ele>5.8</ele><time>2022-10-31T13:14:06.0000000+00:00</time></trkpt><trkpt lat="39.34735841" lon="-0.31097959"><ele>5.8</ele><time>2022-10-31T13:14:07.0000000+00:00</time></trkpt><trkpt lat="39.34735841" lon="-0.31097959"><ele>5.8</ele><time>2022-10-31T13:14:08.0000000+00:00</time></trkpt><trkpt lat="39.34735841" lon="-0.31097959"><ele>5.8</ele><time>2022-10-31T13:14:09.0000000+00:00</time></trkpt><trkpt lat="39.34735841" lon="-0.31097959"><ele>5.8</ele><time>2022-10-31T13:14:10.0000000+00:00</time></trkpt><trkpt lat="39.34735841" lon="-0.31097959"><ele>5.8</ele><time>2022-10-31T13:14:11.0000000+00:00</time></trkpt><trkpt lat="39.34735841" lon="-0.31097959"><ele>5.8</ele><time>2022-10-31T13:14:12.0000000+00:00</time></trkpt><trkpt lat="39.34735841" lon="-0.31097959"><ele>5.8</ele><time>2022-10-31T13:14:13.0000000+00:00</time></trkpt><trkpt lat="39.34735841" lon="-0.31097959"><ele>5.8</ele><time>2022-10-31T13:14:14.0000000+00:00</time></trkpt><trkpt lat="39.34735841" lon="-0.31097959"><ele>5.8</ele><time>2022-10-31T13:14:15.0000000+00:00</time></trkpt><trkpt lat="39.34735841" lon="-0.31097959"><ele>5.8</ele><time>2022-10-31T13:14:16.0000000+00:00</time></trkpt><trkpt lat="39.34735841" lon="-0.31097959"><ele>5.8</ele><time>2022-10-31T13:14:17.0000000+00:00</time></trkpt><trkpt lat="39.34735841" lon="-0.31097959"><ele>5.8</ele><time>2022-10-31T13:14:18.0000000+00:00</time></trkpt><trkpt lat="39.34735841" lon="-0.31097959"><ele>5.8</ele><time>2022-10-31T13:14:19.0000000+00:00</time></trkpt><trkpt lat="39.34735841" lon="-0.31097959"><ele>5.8</ele><time>2022-10-31T13:14:20.0000000+00:00</time></trkpt><trkpt lat="39.34735841" lon="-0.31097959"><ele>5.8</ele><time>2022-10-31T13:14:21.0000000+00:00</time></trkpt><trkpt lat="39.34735841" lon="-0.31097959"><ele>5.8</ele><time>2022-10-31T13:14:22.0000000+00:00</time></trkpt><trkpt lat="39.34735841" lon="-0.31097959"><ele>5.8</ele><time>2022-10-31T13:14:23.0000000+00:00</time></trkpt><trkpt lat="39.34735841" lon="-0.31097959"><ele>5.8</ele><time>2022-10-31T13:14:24.0000000+00:00</time></trkpt><trkpt lat="39.34735841" lon="-0.31097959"><ele>5.8</ele><time>2022-10-31T13:14:25.0000000+00:00</time></trkpt><trkpt lat="39.34735841" lon="-0.31097959"><ele>5.8</ele><time>2022-10-31T13:14:26.0000000+00:00</time></trkpt><trkpt lat="39.34735841" lon="-0.31097959"><ele>5.8</ele><time>2022-10-31T13:14:27.0000000+00:00</time></trkpt><trkpt lat="39.34735841" lon="-0.31097959"><ele>5.8</ele><time>2022-10-31T13:14:28.0000000+00:00</time></trkpt><trkpt lat="39.34735841" lon="-0.31097959"><ele>5.8</ele><time>2022-10-31T13:14:29.0000000+00:00</time></trkpt><trkpt lat="39.34735841" lon="-0.31097959"><ele>5.8</ele><time>2022-10-31T13:14:30.0000000+00:00</time></trkpt><trkpt lat="39.34735841" lon="-0.31097959"><ele>5.8</ele><time>2022-10-31T13:14:31.0000000+00:00</time></trkpt><trkpt lat="39.34735841" lon="-0.31097959"><ele>5.8</ele><time>2022-10-31T13:14:32.0000000+00:00</time></trkpt><trkpt lat="39.34735841" lon="-0.31097959"><ele>5.8</ele><time>2022-10-31T13:14:33.0000000+00:00</time></trkpt><trkpt lat="39.34735841" lon="-0.31097959"><ele>5.8</ele><time>2022-10-31T13:14:34.0000000+00:00</time></trkpt><trkpt lat="39.34735841" lon="-0.31097959"><ele>5.8</ele><time>2022-10-31T13:14:35.0000000+00:00</time></trkpt><trkpt lat="39.34735841" lon="-0.31097959"><ele>5.8</ele><time>2022-10-31T13:14:36.0000000+00:00</time></trkpt><trkpt lat="39.34735841" lon="-0.31097959"><ele>5.8</ele><time>2022-10-31T13:14:37.0000000+00:00</time></trkpt><trkpt lat="39.34735841" lon="-0.31097959"><ele>5.8</ele><time>2022-10-31T13:14:38.0000000+00:00</time></trkpt><trkpt lat="39.34735841" lon="-0.31097959"><ele>5.8</ele><time>2022-10-31T13:14:39.0000000+00:00</time></trkpt><trkpt lat="39.34735841" lon="-0.31097959"><ele>5.8</ele><time>2022-10-31T13:14:40.0000000+00:00</time></trkpt><trkpt lat="39.34735841" lon="-0.31097959"><ele>5.8</ele><time>2022-10-31T13:14:41.0000000+00:00</time></trkpt><trkpt lat="39.34735841" lon="-0.31097959"><ele>5.8</ele><time>2022-10-31T13:14:42.0000000+00:00</time></trkpt><trkpt lat="39.34735841" lon="-0.31097959"><ele>5.8</ele><time>2022-10-31T13:14:43.0000000+00:00</time></trkpt><trkpt lat="39.34735841" lon="-0.31097959"><ele>5.8</ele><time>2022-10-31T13:14:44.0000000+00:00</time></trkpt><trkpt lat="39.34735841" lon="-0.31097959"><ele>5.8</ele><time>2022-10-31T13:14:45.0000000+00:00</time></trkpt><trkpt lat="39.34735841" lon="-0.31097959"><ele>5.8</ele><time>2022-10-31T13:14:46.0000000+00:00</time></trkpt><trkpt lat="39.34735841" lon="-0.31097959"><ele>5.8</ele><time>2022-10-31T13:14:47.0000000+00:00</time></trkpt><trkpt lat="39.34735841" lon="-0.31097959"><ele>5.8</ele><time>2022-10-31T13:14:48.0000000+00:00</time></trkpt><trkpt lat="39.34735841" lon="-0.31097959"><ele>5.8</ele><time>2022-10-31T13:14:49.0000000+00:00</time></trkpt><trkpt lat="39.34735841" lon="-0.31097959"><ele>5.8</ele><time>2022-10-31T13:14:50.0000000+00:00</time></trkpt><trkpt lat="39.34735841" lon="-0.31097959"><ele>5.8</ele><time>2022-10-31T13:14:51.0000000+00:00</time></trkpt><trkpt lat="39.34735841" lon="-0.31097959"><ele>5.8</ele><time>2022-10-31T13:14:52.0000000+00:00</time></trkpt><trkpt lat="39.34735841" lon="-0.31097959"><ele>5.8</ele><time>2022-10-31T13:14:53.0000000+00:00</time></trkpt><trkpt lat="39.34735841" lon="-0.31097959"><ele>5.8</ele><time>2022-10-31T13:14:54.0000000+00:00</time></trkpt><trkpt lat="39.34735841" lon="-0.31097959"><ele>5.8</ele><time>2022-10-31T13:14:55.0000000+00:00</time></trkpt><trkpt lat="39.34735841" lon="-0.31097959"><ele>5.8</ele><time>2022-10-31T13:14:56.0000000+00:00</time></trkpt><trkpt lat="39.34735841" lon="-0.31097959"><ele>5.8</ele><time>2022-10-31T13:14:57.0000000+00:00</time></trkpt><trkpt lat="39.34735841" lon="-0.31097959"><ele>5.8</ele><time>2022-10-31T13:14:58.0000000+00:00</time></trkpt><trkpt lat="39.34735841" lon="-0.31097959"><ele>5.8</ele><time>2022-10-31T13:14:59.0000000+00:00</time></trkpt><trkpt lat="39.34735841" lon="-0.31097959"><ele>5.8</ele><time>2022-10-31T13:15:00.0000000+00:00</time></trkpt><trkpt lat="39.34735841" lon="-0.31097959"><ele>5.8</ele><time>2022-10-31T13:15:01.0000000+00:00</time></trkpt><trkpt lat="39.34735841" lon="-0.31097959"><ele>5.8</ele><time>2022-10-31T13:15:02.0000000+00:00</time></trkpt><trkpt lat="39.34735841" lon="-0.31097959"><ele>5.8</ele><time>2022-10-31T13:15:03.0000000+00:00</time></trkpt><trkpt lat="39.34735841" lon="-0.31097959"><ele>5.8</ele><time>2022-10-31T13:15:04.0000000+00:00</time></trkpt><trkpt lat="39.34735841" lon="-0.31097959"><ele>5.8</ele><time>2022-10-31T13:15:05.0000000+00:00</time></trkpt><trkpt lat="39.34735841" lon="-0.31097959"><ele>5.8</ele><time>2022-10-31T13:15:06.0000000+00:00</time></trkpt><trkpt lat="39.34735841" lon="-0.31097959"><ele>5.8</ele><time>2022-10-31T13:15:07.0000000+00:00</time></trkpt><trkpt lat="39.34735841" lon="-0.31097959"><ele>5.8</ele><time>2022-10-31T13:15:08.0000000+00:00</time></trkpt><trkpt lat="39.34735841" lon="-0.31097959"><ele>5.8</ele><time>2022-10-31T13:15:09.0000000+00:00</time></trkpt><trkpt lat="39.34735841" lon="-0.31097959"><ele>5.8</ele><time>2022-10-31T13:15:10.0000000+00:00</time></trkpt><trkpt lat="39.34735841" lon="-0.31097959"><ele>5.8</ele><time>2022-10-31T13:15:11.0000000+00:00</time></trkpt><trkpt lat="39.34735841" lon="-0.31097959"><ele>5.8</ele><time>2022-10-31T13:15:12.0000000+00:00</time></trkpt><trkpt lat="39.34735841" lon="-0.31097959"><ele>5.8</ele><time>2022-10-31T13:15:13.0000000+00:00</time></trkpt><trkpt lat="39.34735841" lon="-0.31097959"><ele>5.8</ele><time>2022-10-31T13:15:14.0000000+00:00</time></trkpt><trkpt lat="39.34735841" lon="-0.31097959"><ele>5.8</ele><time>2022-10-31T13:15:15.0000000+00:00</time></trkpt><trkpt lat="39.34735841" lon="-0.31097959"><ele>5.8</ele><time>2022-10-31T13:15:16.0000000+00:00</time></trkpt><trkpt lat="39.34735841" lon="-0.31097959"><ele>5.8</ele><time>2022-10-31T13:15:17.0000000+00:00</time></trkpt><trkpt lat="39.34735841" lon="-0.31097959"><ele>5.8</ele><time>2022-10-31T13:15:18.0000000+00:00</time></trkpt><trkpt lat="39.34735841" lon="-0.31097959"><ele>5.8</ele><time>2022-10-31T13:15:19.0000000+00:00</time></trkpt><trkpt lat="39.34735841" lon="-0.31097959"><ele>5.8</ele><time>2022-10-31T13:15:20.0000000+00:00</time></trkpt><trkpt lat="39.34735841" lon="-0.31097959"><ele>5.8</ele><time>2022-10-31T13:15:21.0000000+00:00</time></trkpt><trkpt lat="39.34735841" lon="-0.31097959"><ele>5.8</ele><time>2022-10-31T13:15:22.0000000+00:00</time></trkpt><trkpt lat="39.34735841" lon="-0.31097959"><ele>5.8</ele><time>2022-10-31T13:15:23.0000000+00:00</time></trkpt><trkpt lat="39.34735841" lon="-0.31097959"><ele>5.8</ele><time>2022-10-31T13:15:24.0000000+00:00</time></trkpt><trkpt lat="39.34735841" lon="-0.31097959"><ele>5.8</ele><time>2022-10-31T13:15:25.0000000+00:00</time></trkpt><trkpt lat="39.34735841" lon="-0.31097959"><ele>5.8</ele><time>2022-10-31T13:15:26.0000000+00:00</time></trkpt><trkpt lat="39.34735841" lon="-0.31097959"><ele>5.8</ele><time>2022-10-31T13:15:27.0000000+00:00</time></trkpt><trkpt lat="39.34735841" lon="-0.31097959"><ele>5.8</ele><time>2022-10-31T13:15:28.0000000+00:00</time></trkpt><trkpt lat="39.34735841" lon="-0.31097959"><ele>5.8</ele><time>2022-10-31T13:15:29.0000000+00:00</time></trkpt><trkpt lat="39.34735841" lon="-0.31097959"><ele>5.8</ele><time>2022-10-31T13:15:30.0000000+00:00</time></trkpt><trkpt lat="39.34735841" lon="-0.31097959"><ele>5.8</ele><time>2022-10-31T13:15:31.0000000+00:00</time></trkpt><trkpt lat="39.34735841" lon="-0.31097959"><ele>5.8</ele><time>2022-10-31T13:15:32.0000000+00:00</time></trkpt><trkpt lat="39.34735841" lon="-0.31097959"><ele>5.8</ele><time>2022-10-31T13:15:33.0000000+00:00</time></trkpt><trkpt lat="39.34735841" lon="-0.31097959"><ele>5.8</ele><time>2022-10-31T13:15:34.0000000+00:00</time></trkpt><trkpt lat="39.34735841" lon="-0.31097959"><ele>5.8</ele><time>2022-10-31T13:15:35.0000000+00:00</time></trkpt><trkpt lat="39.34735841" lon="-0.31097959"><ele>5.8</ele><time>2022-10-31T13:15:36.0000000+00:00</time></trkpt><trkpt lat="39.34735841" lon="-0.31097959"><ele>5.8</ele><time>2022-10-31T13:15:37.0000000+00:00</time></trkpt><trkpt lat="39.34735841" lon="-0.31097959"><ele>5.8</ele><time>2022-10-31T13:15:38.0000000+00:00</time></trkpt><trkpt lat="39.34735841" lon="-0.31097959"><ele>5.8</ele><time>2022-10-31T13:15:39.0000000+00:00</time></trkpt><trkpt lat="39.34735841" lon="-0.31097959"><ele>5.8</ele><time>2022-10-31T13:15:40.0000000+00:00</time></trkpt><trkpt lat="39.34735841" lon="-0.31097959"><ele>5.8</ele><time>2022-10-31T13:15:41.0000000+00:00</time></trkpt><trkpt lat="39.34735841" lon="-0.31097959"><ele>5.8</ele><time>2022-10-31T13:15:42.0000000+00:00</time></trkpt><trkpt lat="39.34735841" lon="-0.31097959"><ele>5.8</ele><time>2022-10-31T13:15:43.0000000+00:00</time></trkpt><trkpt lat="39.34735841" lon="-0.31097959"><ele>5.8</ele><time>2022-10-31T13:15:44.0000000+00:00</time></trkpt><trkpt lat="39.34735841" lon="-0.31097959"><ele>5.8</ele><time>2022-10-31T13:15:45.0000000+00:00</time></trkpt><trkpt lat="39.34735841" lon="-0.31097959"><ele>5.8</ele><time>2022-10-31T13:15:46.0000000+00:00</time></trkpt><trkpt lat="39.34735841" lon="-0.31097959"><ele>5.8</ele><time>2022-10-31T13:15:47.0000000+00:00</time></trkpt><trkpt lat="39.34735841" lon="-0.31097959"><ele>5.8</ele><time>2022-10-31T13:15:48.0000000+00:00</time></trkpt><trkpt lat="39.34735841" lon="-0.31097959"><ele>5.8</ele><time>2022-10-31T13:15:49.0000000+00:00</time></trkpt><trkpt lat="39.34735841" lon="-0.31097959"><ele>5.8</ele><time>2022-10-31T13:15:50.0000000+00:00</time></trkpt><trkpt lat="39.34735841" lon="-0.31097959"><ele>5.8</ele><time>2022-10-31T13:15:51.0000000+00:00</time></trkpt><trkpt lat="39.34735841" lon="-0.31097959"><ele>5.8</ele><time>2022-10-31T13:15:52.0000000+00:00</time></trkpt><trkpt lat="39.34735841" lon="-0.31097959"><ele>5.8</ele><time>2022-10-31T13:15:53.0000000+00:00</time></trkpt><trkpt lat="39.34735841" lon="-0.31097959"><ele>5.8</ele><time>2022-10-31T13:15:54.0000000+00:00</time></trkpt><trkpt lat="39.34735841" lon="-0.31097959"><ele>5.8</ele><time>2022-10-31T13:15:55.0000000+00:00</time></trkpt><trkpt lat="39.34735841" lon="-0.31097959"><ele>5.8</ele><time>2022-10-31T13:15:56.0000000+00:00</time></trkpt><trkpt lat="39.34735841" lon="-0.31097959"><ele>5.8</ele><time>2022-10-31T13:15:57.0000000+00:00</time></trkpt><trkpt lat="39.34735841" lon="-0.31097959"><ele>5.8</ele><time>2022-10-31T13:15:58.0000000+00:00</time></trkpt><trkpt lat="39.34735841" lon="-0.31097959"><ele>5.8</ele><time>2022-10-31T13:15:59.0000000+00:00</time></trkpt><trkpt lat="39.34735841" lon="-0.31097959"><ele>5.8</ele><time>2022-10-31T13:16:00.0000000+00:00</time></trkpt><trkpt lat="39.34735841" lon="-0.31097959"><ele>5.8</ele><time>2022-10-31T13:16:01.0000000+00:00</time></trkpt><trkpt lat="39.34735841" lon="-0.31097959"><ele>5.8</ele><time>2022-10-31T13:16:02.0000000+00:00</time></trkpt><trkpt lat="39.34735841" lon="-0.31097959"><ele>5.8</ele><time>2022-10-31T13:16:03.0000000+00:00</time></trkpt><trkpt lat="39.34735841" lon="-0.31097959"><ele>5.8</ele><time>2022-10-31T13:16:04.0000000+00:00</time></trkpt><trkpt lat="39.34735841" lon="-0.31097959"><ele>5.8</ele><time>2022-10-31T13:16:05.0000000+00:00</time></trkpt><trkpt lat="39.34735841" lon="-0.31097959"><ele>5.8</ele><time>2022-10-31T13:16:06.0000000+00:00</time></trkpt><trkpt lat="39.34735841" lon="-0.31097959"><ele>5.8</ele><time>2022-10-31T13:16:07.0000000+00:00</time></trkpt><trkpt lat="39.34735841" lon="-0.31097959"><ele>5.8</ele><time>2022-10-31T13:16:08.0000000+00:00</time></trkpt><trkpt lat="39.34735841" lon="-0.31097959"><ele>5.8</ele><time>2022-10-31T13:16:09.0000000+00:00</time></trkpt><trkpt lat="39.34735841" lon="-0.31097959"><ele>5.8</ele><time>2022-10-31T13:16:10.0000000+00:00</time></trkpt><trkpt lat="39.34735841" lon="-0.31097959"><ele>5.8</ele><time>2022-10-31T13:16:11.0000000+00:00</time></trkpt><trkpt lat="39.34735841" lon="-0.31097959"><ele>5.8</ele><time>2022-10-31T13:16:12.0000000+00:00</time></trkpt><trkpt lat="39.34735841" lon="-0.31097959"><ele>5.8</ele><time>2022-10-31T13:16:13.0000000+00:00</time></trkpt><trkpt lat="39.34735841" lon="-0.31097959"><ele>5.8</ele><time>2022-10-31T13:16:14.0000000+00:00</time></trkpt><trkpt lat="39.34735841" lon="-0.31097959"><ele>5.8</ele><time>2022-10-31T13:16:15.0000000+00:00</time></trkpt><trkpt lat="39.34735841" lon="-0.31097959"><ele>5.8</ele><time>2022-10-31T13:16:16.0000000+00:00</time></trkpt><trkpt lat="39.34735841" lon="-0.31097959"><ele>5.8</ele><time>2022-10-31T13:16:17.0000000+00:00</time></trkpt><trkpt lat="39.34735841" lon="-0.31097959"><ele>5.8</ele><time>2022-10-31T13:16:18.0000000+00:00</time></trkpt><trkpt lat="39.34735841" lon="-0.31097959"><ele>5.8</ele><time>2022-10-31T13:16:19.0000000+00:00</time></trkpt><trkpt lat="39.34735841" lon="-0.31097959"><ele>5.8</ele><time>2022-10-31T13:16:20.0000000+00:00</time></trkpt><trkpt lat="39.34735841" lon="-0.31097959"><ele>5.8</ele><time>2022-10-31T13:16:21.0000000+00:00</time></trkpt><trkpt lat="39.34735841" lon="-0.31097959"><ele>5.8</ele><time>2022-10-31T13:16:22.0000000+00:00</time></trkpt><trkpt lat="39.34735841" lon="-0.31097959"><ele>5.8</ele><time>2022-10-31T13:16:23.0000000+00:00</time></trkpt><trkpt lat="39.34735841" lon="-0.31097959"><ele>5.8</ele><time>2022-10-31T13:16:24.0000000+00:00</time></trkpt><trkpt lat="39.34735841" lon="-0.31097959"><ele>5.8</ele><time>2022-10-31T13:16:25.0000000+00:00</time></trkpt><trkpt lat="39.34735841" lon="-0.31097959"><ele>5.8</ele><time>2022-10-31T13:16:26.0000000+00:00</time></trkpt><trkpt lat="39.34735841" lon="-0.31097959"><ele>5.8</ele><time>2022-10-31T13:16:27.0000000+00:00</time></trkpt><trkpt lat="39.34735841" lon="-0.31097959"><ele>5.8</ele><time>2022-10-31T13:16:28.0000000+00:00</time></trkpt><trkpt lat="39.34735841" lon="-0.31097959"><ele>5.8</ele><time>2022-10-31T13:16:29.0000000+00:00</time></trkpt><trkpt lat="39.34735841" lon="-0.31097959"><ele>5.8</ele><time>2022-10-31T13:16:30.0000000+00:00</time></trkpt><trkpt lat="39.34735841" lon="-0.31097959"><ele>5.8</ele><time>2022-10-31T13:16:31.0000000+00:00</time></trkpt><trkpt lat="39.34735841" lon="-0.31097959"><ele>5.8</ele><time>2022-10-31T13:16:32.0000000+00:00</time></trkpt><trkpt lat="39.34735841" lon="-0.31097959"><ele>5.8</ele><time>2022-10-31T13:16:33.0000000+00:00</time></trkpt><trkpt lat="39.34735841" lon="-0.31097959"><ele>5.8</ele><time>2022-10-31T13:16:34.0000000+00:00</time></trkpt><trkpt lat="39.34735841" lon="-0.31097959"><ele>5.8</ele><time>2022-10-31T13:16:35.0000000+00:00</time></trkpt><trkpt lat="39.34735841" lon="-0.31097959"><ele>5.8</ele><time>2022-10-31T13:16:36.0000000+00:00</time></trkpt><trkpt lat="39.34735841" lon="-0.31097959"><ele>5.8</ele><time>2022-10-31T13:16:37.0000000+00:00</time></trkpt><trkpt lat="39.34735841" lon="-0.31097959"><ele>5.8</ele><time>2022-10-31T13:16:38.0000000+00:00</time></trkpt><trkpt lat="39.34735841" lon="-0.31097959"><ele>5.8</ele><time>2022-10-31T13:16:39.0000000+00:00</time></trkpt><trkpt lat="39.34735841" lon="-0.31097959"><ele>5.8</ele><time>2022-10-31T13:16:40.0000000+00:00</time></trkpt><trkpt lat="39.34735841" lon="-0.31097959"><ele>5.8</ele><time>2022-10-31T13:16:41.0000000+00:00</time></trkpt><trkpt lat="39.34735841" lon="-0.31097959"><ele>5.8</ele><time>2022-10-31T13:16:42.0000000+00:00</time></trkpt><trkpt lat="39.34735841" lon="-0.31097959"><ele>5.8</ele><time>2022-10-31T13:16:43.0000000+00:00</time></trkpt><trkpt lat="39.34735841" lon="-0.31097959"><ele>5.8</ele><time>2022-10-31T13:16:44.0000000+00:00</time></trkpt><trkpt lat="39.34735841" lon="-0.31097959"><ele>5.8</ele><time>2022-10-31T13:16:45.0000000+00:00</time></trkpt><trkpt lat="39.34735841" lon="-0.31097959"><ele>5.8</ele><time>2022-10-31T13:16:46.0000000+00:00</time></trkpt><trkpt lat="39.34735841" lon="-0.31097959"><ele>5.8</ele><time>2022-10-31T13:16:47.0000000+00:00</time></trkpt><trkpt lat="39.34735841" lon="-0.31097959"><ele>5.8</ele><time>2022-10-31T13:16:48.0000000+00:00</time></trkpt><trkpt lat="39.34735841" lon="-0.31097959"><ele>5.8</ele><time>2022-10-31T13:16:49.0000000+00:00</time></trkpt><trkpt lat="39.34735841" lon="-0.31097959"><ele>5.8</ele><time>2022-10-31T13:16:50.0000000+00:00</time></trkpt><trkpt lat="39.34735841" lon="-0.31097959"><ele>5.8</ele><time>2022-10-31T13:16:51.0000000+00:00</time></trkpt><trkpt lat="39.34735841" lon="-0.31097959"><ele>5.8</ele><time>2022-10-31T13:16:52.0000000+00:00</time></trkpt><trkpt lat="39.34735841" lon="-0.31097959"><ele>5.8</ele><time>2022-10-31T13:16:53.0000000+00:00</time></trkpt><trkpt lat="39.34735841" lon="-0.31097959"><ele>5.8</ele><time>2022-10-31T13:16:54.0000000+00:00</time></trkpt><trkpt lat="39.34735841" lon="-0.31097959"><ele>5.8</ele><time>2022-10-31T13:16:55.0000000+00:00</time></trkpt><trkpt lat="39.34735841" lon="-0.31097959"><ele>5.8</ele><time>2022-10-31T13:16:56.0000000+00:00</time></trkpt><trkpt lat="39.34735841" lon="-0.31097959"><ele>5.8</ele><time>2022-10-31T13:16:57.0000000+00:00</time></trkpt><trkpt lat="39.34735841" lon="-0.31097959"><ele>5.8</ele><time>2022-10-31T13:16:58.0000000+00:00</time></trkpt><trkpt lat="39.34735841" lon="-0.31097959"><ele>5.8</ele><time>2022-10-31T13:16:59.0000000+00:00</time></trkpt><trkpt lat="39.34735841" lon="-0.31097959"><ele>5.8</ele><time>2022-10-31T13:17:00.0000000+00:00</time></trkpt><trkpt lat="39.34735841" lon="-0.31097959"><ele>5.8</ele><time>2022-10-31T13:17:01.0000000+00:00</time></trkpt><trkpt lat="39.34735841" lon="-0.31097959"><ele>5.8</ele><time>2022-10-31T13:17:02.0000000+00:00</time></trkpt><trkpt lat="39.34735841" lon="-0.31097959"><ele>5.8</ele><time>2022-10-31T13:17:03.0000000+00:00</time></trkpt><trkpt lat="39.34735841" lon="-0.31097959"><ele>5.8</ele><time>2022-10-31T13:17:04.0000000+00:00</time></trkpt><trkpt lat="39.34735841" lon="-0.31097959"><ele>5.8</ele><time>2022-10-31T13:17:05.0000000+00:00</time></trkpt><trkpt lat="39.34735841" lon="-0.31097959"><ele>5.8</ele><time>2022-10-31T13:17:06.0000000+00:00</time></trkpt><trkpt lat="39.34735841" lon="-0.31097959"><ele>5.8</ele><time>2022-10-31T13:17:07.0000000+00:00</time></trkpt><trkpt lat="39.34735841" lon="-0.31097959"><ele>5.8</ele><time>2022-10-31T13:17:08.0000000+00:00</time></trkpt><trkpt lat="39.34735841" lon="-0.31097959"><ele>5.8</ele><time>2022-10-31T13:17:09.0000000+00:00</time></trkpt><trkpt lat="39.34735841" lon="-0.31097959"><ele>5.8</ele><time>2022-10-31T13:17:10.0000000+00:00</time></trkpt><trkpt lat="39.34735841" lon="-0.31097959"><ele>5.8</ele><time>2022-10-31T13:17:11.0000000+00:00</time></trkpt><trkpt lat="39.34735841" lon="-0.31097959"><ele>5.8</ele><time>2022-10-31T13:17:12.0000000+00:00</time></trkpt><trkpt lat="39.34735841" lon="-0.31097959"><ele>5.8</ele><time>2022-10-31T13:17:13.0000000+00:00</time></trkpt><trkpt lat="39.34735841" lon="-0.31097959"><ele>5.8</ele><time>2022-10-31T13:17:14.0000000+00:00</time></trkpt><trkpt lat="39.34735841" lon="-0.31097959"><ele>5.8</ele><time>2022-10-31T13:17:15.0000000+00:00</time></trkpt><trkpt lat="39.34735841" lon="-0.31097959"><ele>5.8</ele><time>2022-10-31T13:17:16.0000000+00:00</time></trkpt><trkpt lat="39.34735841" lon="-0.31097959"><ele>5.8</ele><time>2022-10-31T13:17:17.0000000+00:00</time></trkpt><trkpt lat="39.34735841" lon="-0.31097959"><ele>5.8</ele><time>2022-10-31T13:17:18.0000000+00:00</time></trkpt><trkpt lat="39.34735841" lon="-0.31097959"><ele>5.8</ele><time>2022-10-31T13:17:19.0000000+00:00</time></trkpt><trkpt lat="39.34735841" lon="-0.31097959"><ele>5.8</ele><time>2022-10-31T13:17:20.0000000+00:00</time></trkpt><trkpt lat="39.34735841" lon="-0.31097959"><ele>5.8</ele><time>2022-10-31T13:17:21.0000000+00:00</time></trkpt><trkpt lat="39.34735841" lon="-0.31097959"><ele>5.8</ele><time>2022-10-31T13:17:22.0000000+00:00</time></trkpt><trkpt lat="39.34735841" lon="-0.31097959"><ele>5.8</ele><time>2022-10-31T13:17:23.0000000+00:00</time></trkpt><trkpt lat="39.34735841" lon="-0.31097959"><ele>5.8</ele><time>2022-10-31T13:17:24.0000000+00:00</time></trkpt><trkpt lat="39.34735841" lon="-0.31097959"><ele>5.8</ele><time>2022-10-31T13:17:25.0000000+00:00</time></trkpt><trkpt lat="39.34735841" lon="-0.31097959"><ele>5.8</ele><time>2022-10-31T13:17:26.0000000+00:00</time></trkpt><trkpt lat="39.34735841" lon="-0.31097959"><ele>5.8</ele><time>2022-10-31T13:17:27.0000000+00:00</time></trkpt><trkpt lat="39.34735841" lon="-0.31097959"><ele>5.8</ele><time>2022-10-31T13:17:28.0000000+00:00</time></trkpt><trkpt lat="39.34735841" lon="-0.31097959"><ele>5.8</ele><time>2022-10-31T13:17:29.0000000+00:00</time></trkpt><trkpt lat="39.34735841" lon="-0.31097959"><ele>5.8</ele><time>2022-10-31T13:17:30.0000000+00:00</time></trkpt><trkpt lat="39.34735791" lon="-0.31097934"><ele>5.8</ele><time>2022-10-31T13:17:31.0000000+00:00</time></trkpt><trkpt lat="39.34736109" lon="-0.31097934"><ele>5.8</ele><time>2022-10-31T13:17:32.0000000+00:00</time></trkpt><trkpt lat="39.34736109" lon="-0.31097934"><ele>5.8</ele><time>2022-10-31T13:17:33.0000000+00:00</time></trkpt><trkpt lat="39.34736109" lon="-0.31097934"><ele>5.8</ele><time>2022-10-31T13:17:34.0000000+00:00</time></trkpt><trkpt lat="39.34736109" lon="-0.31097934"><ele>5.8</ele><time>2022-10-31T13:17:35.0000000+00:00</time></trkpt><trkpt lat="39.34736109" lon="-0.31097934"><ele>5.8</ele><time>2022-10-31T13:17:36.0000000+00:00</time></trkpt><trkpt lat="39.34736109" lon="-0.31097934"><ele>5.8</ele><time>2022-10-31T13:17:37.0000000+00:00</time></trkpt><trkpt lat="39.34736109" lon="-0.31097934"><ele>5.8</ele><time>2022-10-31T13:17:38.0000000+00:00</time></trkpt><trkpt lat="39.34736109" lon="-0.31097934"><ele>5.8</ele><time>2022-10-31T13:17:39.0000000+00:00</time></trkpt><trkpt lat="39.34736109" lon="-0.31097934"><ele>5.8</ele><time>2022-10-31T13:17:40.0000000+00:00</time></trkpt><trkpt lat="39.34736109" lon="-0.31097934"><ele>5.8</ele><time>2022-10-31T13:17:41.0000000+00:00</time></trkpt><trkpt lat="39.34736109" lon="-0.31097934"><ele>5.8</ele><time>2022-10-31T13:17:42.0000000+00:00</time></trkpt><trkpt lat="39.34736109" lon="-0.31097934"><ele>5.8</ele><time>2022-10-31T13:17:43.0000000+00:00</time></trkpt><trkpt lat="39.34736109" lon="-0.31097934"><ele>5.8</ele><time>2022-10-31T13:17:44.0000000+00:00</time></trkpt><trkpt lat="39.34736109" lon="-0.31097934"><ele>5.8</ele><time>2022-10-31T13:17:45.0000000+00:00</time></trkpt><trkpt lat="39.34736109" lon="-0.31097934"><ele>5.8</ele><time>2022-10-31T13:17:46.0000000+00:00</time></trkpt><trkpt lat="39.34736109" lon="-0.31097934"><ele>5.8</ele><time>2022-10-31T13:17:47.0000000+00:00</time></trkpt><trkpt lat="39.34736109" lon="-0.31097934"><ele>5.8</ele><time>2022-10-31T13:17:48.0000000+00:00</time></trkpt><trkpt lat="39.34736109" lon="-0.31097934"><ele>5.8</ele><time>2022-10-31T13:17:49.0000000+00:00</time></trkpt><trkpt lat="39.34736109" lon="-0.31097934"><ele>5.8</ele><time>2022-10-31T13:17:50.0000000+00:00</time></trkpt><trkpt lat="39.34736109" lon="-0.31097934"><ele>5.8</ele><time>2022-10-31T13:17:51.0000000+00:00</time></trkpt><trkpt lat="39.34736109" lon="-0.31097934"><ele>5.8</ele><time>2022-10-31T13:17:52.0000000+00:00</time></trkpt><trkpt lat="39.34736109" lon="-0.31097934"><ele>5.8</ele><time>2022-10-31T13:17:53.0000000+00:00</time></trkpt><trkpt lat="39.34736109" lon="-0.31097934"><ele>5.8</ele><time>2022-10-31T13:17:54.0000000+00:00</time></trkpt><trkpt lat="39.34736109" lon="-0.31097934"><ele>5.8</ele><time>2022-10-31T13:17:55.0000000+00:00</time></trkpt><trkpt lat="39.34736109" lon="-0.31097934"><ele>5.8</ele><time>2022-10-31T13:17:56.0000000+00:00</time></trkpt><trkpt lat="39.34736109" lon="-0.31097934"><ele>5.8</ele><time>2022-10-31T13:17:57.0000000+00:00</time></trkpt><trkpt lat="39.34736109" lon="-0.31097934"><ele>5.8</ele><time>2022-10-31T13:17:58.0000000+00:00</time></trkpt><trkpt lat="39.34736109" lon="-0.31097934"><ele>5.8</ele><time>2022-10-31T13:17:59.0000000+00:00</time></trkpt><trkpt lat="39.34736109" lon="-0.31097934"><ele>5.8</ele><time>2022-10-31T13:18:00.0000000+00:00</time></trkpt><trkpt lat="39.34736109" lon="-0.31097934"><ele>5.8</ele><time>2022-10-31T13:18:01.0000000+00:00</time></trkpt><trkpt lat="39.34736109" lon="-0.31097934"><ele>5.8</ele><time>2022-10-31T13:18:02.0000000+00:00</time></trkpt><trkpt lat="39.34736109" lon="-0.31097934"><ele>5.8</ele><time>2022-10-31T13:18:03.0000000+00:00</time></trkpt><trkpt lat="39.34736109" lon="-0.31097934"><ele>5.8</ele><time>2022-10-31T13:18:04.0000000+00:00</time></trkpt><trkpt lat="39.34736109" lon="-0.31097934"><ele>5.8</ele><time>2022-10-31T13:18:05.0000000+00:00</time></trkpt><trkpt lat="39.34736109" lon="-0.31097934"><ele>5.8</ele><time>2022-10-31T13:18:06.0000000+00:00</time></trkpt><trkpt lat="39.34736109" lon="-0.31097934"><ele>5.8</ele><time>2022-10-31T13:18:07.0000000+00:00</time></trkpt><trkpt lat="39.34736109" lon="-0.31097934"><ele>5.8</ele><time>2022-10-31T13:18:08.0000000+00:00</time></trkpt><trkpt lat="39.34736109" lon="-0.31097934"><ele>5.8</ele><time>2022-10-31T13:18:09.0000000+00:00</time></trkpt><trkpt lat="39.34736109" lon="-0.31097934"><ele>5.8</ele><time>2022-10-31T13:18:10.0000000+00:00</time></trkpt><trkpt lat="39.34736109" lon="-0.31097934"><ele>5.8</ele><time>2022-10-31T13:18:11.0000000+00:00</time></trkpt><trkpt lat="39.34736109" lon="-0.31097934"><ele>5.8</ele><time>2022-10-31T13:18:12.0000000+00:00</time></trkpt><trkpt lat="39.34736109" lon="-0.31097934"><ele>5.8</ele><time>2022-10-31T13:18:13.0000000+00:00</time></trkpt><trkpt lat="39.34736109" lon="-0.31097934"><ele>5.8</ele><time>2022-10-31T13:18:14.0000000+00:00</time></trkpt><trkpt lat="39.34736109" lon="-0.31097934"><ele>5.8</ele><time>2022-10-31T13:18:15.0000000+00:00</time></trkpt><trkpt lat="39.34736109" lon="-0.31097934"><ele>5.8</ele><time>2022-10-31T13:18:16.0000000+00:00</time></trkpt><trkpt lat="39.34736109" lon="-0.31097934"><ele>5.8</ele><time>2022-10-31T13:18:17.0000000+00:00</time></trkpt><trkpt lat="39.34736109" lon="-0.31097934"><ele>5.8</ele><time>2022-10-31T13:18:18.0000000+00:00</time></trkpt><trkpt lat="39.34736109" lon="-0.31097934"><ele>5.8</ele><time>2022-10-31T13:18:19.0000000+00:00</time></trkpt><trkpt lat="39.34736109" lon="-0.31097934"><ele>5.8</ele><time>2022-10-31T13:18:20.0000000+00:00</time></trkpt><trkpt lat="39.34736109" lon="-0.31097934"><ele>5.8</ele><time>2022-10-31T13:18:21.0000000+00:00</time></trkpt><trkpt lat="39.34736109" lon="-0.31097934"><ele>5.8</ele><time>2022-10-31T13:18:22.0000000+00:00</time></trkpt><trkpt lat="39.34736109" lon="-0.31097934"><ele>5.8</ele><time>2022-10-31T13:18:23.0000000+00:00</time></trkpt><trkpt lat="39.34736109" lon="-0.31097934"><ele>5.8</ele><time>2022-10-31T13:18:24.0000000+00:00</time></trkpt><trkpt lat="39.34735984" lon="-0.31098059"><ele>5.8</ele><time>2022-10-31T13:18:25.0000000+00:00</time></trkpt><trkpt lat="39.34735732" lon="-0.31098411"><ele>5.8</ele><time>2022-10-31T13:18:26.0000000+00:00</time></trkpt><trkpt lat="39.34735732" lon="-0.31098411"><ele>5.8</ele><time>2022-10-31T13:18:27.0000000+00:00</time></trkpt><trkpt lat="39.34735732" lon="-0.31098411"><ele>5.8</ele><time>2022-10-31T13:18:28.0000000+00:00</time></trkpt><trkpt lat="39.34735824" lon="-0.31098403"><ele>5.8</ele><time>2022-10-31T13:18:29.0000000+00:00</time></trkpt><trkpt lat="39.34735816" lon="-0.31098068"><ele>5.8</ele><time>2022-10-31T13:18:30.0000000+00:00</time></trkpt><trkpt lat="39.34735548" lon="-0.31097942"><ele>5.8</ele><time>2022-10-31T13:18:31.0000000+00:00</time></trkpt><trkpt lat="39.34735145" lon="-0.31097816"><ele>5.8</ele><time>2022-10-31T13:18:32.0000000+00:00</time></trkpt><trkpt lat="39.34735145" lon="-0.31097816"><ele>5.8</ele><time>2022-10-31T13:18:33.0000000+00:00</time></trkpt><trkpt lat="39.34735145" lon="-0.31097816"><ele>5.8</ele><time>2022-10-31T13:18:34.0000000+00:00</time></trkpt><trkpt lat="39.34735145" lon="-0.31097816"><ele>5.8</ele><time>2022-10-31T13:18:35.0000000+00:00</time></trkpt><trkpt lat="39.34735145" lon="-0.31097816"><ele>5.8</ele><time>2022-10-31T13:18:36.0000000+00:00</time></trkpt><trkpt lat="39.34735145" lon="-0.31097816"><ele>5.8</ele><time>2022-10-31T13:18:37.0000000+00:00</time></trkpt><trkpt lat="39.3473502" lon="-0.3109785"><ele>5.8</ele><time>2022-10-31T13:18:38.0000000+00:00</time></trkpt><trkpt lat="39.34734131" lon="-0.31098428"><ele>5.8</ele><time>2022-10-31T13:18:39.0000000+00:00</time></trkpt><trkpt lat="39.34732933" lon="-0.31099124"><ele>5.8</ele><time>2022-10-31T13:18:40.0000000+00:00</time></trkpt><trkpt lat="39.34731793" lon="-0.3109961"><ele>5.8</ele><time>2022-10-31T13:18:41.0000000+00:00</time></trkpt><trkpt lat="39.34731055" lon="-0.31100121"><ele>5.8</ele><time>2022-10-31T13:18:42.0000000+00:00</time></trkpt><trkpt lat="39.34729932" lon="-0.31100758"><ele>5.8</ele><time>2022-10-31T13:18:43.0000000+00:00</time></trkpt><trkpt lat="39.34728943" lon="-0.31101462"><ele>5.8</ele><time>2022-10-31T13:18:44.0000000+00:00</time></trkpt><trkpt lat="39.34728138" lon="-0.31102183"><ele>7.6</ele><time>2022-10-31T13:18:45.0000000+00:00</time></trkpt><trkpt lat="39.34727761" lon="-0.31102661"><ele>8.6</ele><time>2022-10-31T13:18:46.0000000+00:00</time></trkpt><trkpt lat="39.34727912" lon="-0.31103441"><ele>9.2</ele><time>2022-10-31T13:18:47.0000000+00:00</time></trkpt><trkpt lat="39.34727962" lon="-0.31104731"><ele>9.6</ele><time>2022-10-31T13:18:48.0000000+00:00</time></trkpt><trkpt lat="39.34727476" lon="-0.31105645"><ele>9.6</ele><time>2022-10-31T13:18:49.0000000+00:00</time></trkpt><trkpt lat="39.34727023" lon="-0.31106106"><ele>9.6</ele><time>2022-10-31T13:18:50.0000000+00:00</time></trkpt><trkpt lat="39.3472678" lon="-0.31106123"><ele>9.8</ele><time>2022-10-31T13:18:51.0000000+00:00</time></trkpt><trkpt lat="39.34725992" lon="-0.31106265"><ele>9.8</ele><time>2022-10-31T13:18:52.0000000+00:00</time></trkpt><trkpt lat="39.34725062" lon="-0.31106525"><ele>9.8</ele><time>2022-10-31T13:18:53.0000000+00:00</time></trkpt><trkpt lat="39.34724107" lon="-0.31106517"><ele>9.8</ele><time>2022-10-31T13:18:54.0000000+00:00</time></trkpt><trkpt lat="39.34723377" lon="-0.31106123"><ele>9.8</ele><time>2022-10-31T13:18:55.0000000+00:00</time></trkpt><trkpt lat="39.3472269" lon="-0.31105628"><ele>9.8</ele><time>2022-10-31T13:18:56.0000000+00:00</time></trkpt><trkpt lat="39.3472191" lon="-0.31105519"><ele>9.8</ele><time>2022-10-31T13:18:57.0000000+00:00</time></trkpt><trkpt lat="39.34721097" lon="-0.31105544"><ele>9.8</ele><time>2022-10-31T13:18:58.0000000+00:00</time></trkpt><trkpt lat="39.34720452" lon="-0.31105754"><ele>9.8</ele><time>2022-10-31T13:18:59.0000000+00:00</time></trkpt><trkpt lat="39.34719857" lon="-0.31106073"><ele>9.8</ele><time>2022-10-31T13:19:00.0000000+00:00</time></trkpt><trkpt lat="39.34719438" lon="-0.31106475"><ele>9.6</ele><time>2022-10-31T13:19:01.0000000+00:00</time></trkpt><trkpt lat="39.34719128" lon="-0.31106634"><ele>9.6</ele><time>2022-10-31T13:19:02.0000000+00:00</time></trkpt><trkpt lat="39.34719128" lon="-0.31106634"><ele>9.6</ele><time>2022-10-31T13:19:03.0000000+00:00</time></trkpt><trkpt lat="39.34719396" lon="-0.31106751"><ele>9.6</ele><time>2022-10-31T13:19:04.0000000+00:00</time></trkpt><trkpt lat="39.34720418" lon="-0.31107179"><ele>9.6</ele><time>2022-10-31T13:19:05.0000000+00:00</time></trkpt><trkpt lat="39.34721785" lon="-0.31107456"><ele>9.6</ele><time>2022-10-31T13:19:06.0000000+00:00</time></trkpt><trkpt lat="39.34722757" lon="-0.31107154"><ele>9.6</ele><time>2022-10-31T13:19:07.0000000+00:00</time></trkpt><trkpt lat="39.34723654" lon="-0.31106927"><ele>9.6</ele><time>2022-10-31T13:19:08.0000000+00:00</time></trkpt><trkpt lat="39.34724366" lon="-0.31106953"><ele>9.6</ele><time>2022-10-31T13:19:09.0000000+00:00</time></trkpt><trkpt lat="39.34725037" lon="-0.31106844"><ele>9.6</ele><time>2022-10-31T13:19:10.0000000+00:00</time></trkpt><trkpt lat="39.34726001" lon="-0.31106886"><ele>9.8</ele><time>2022-10-31T13:19:11.0000000+00:00</time></trkpt><trkpt lat="39.34727082" lon="-0.31107137"><ele>9.8</ele><time>2022-10-31T13:19:12.0000000+00:00</time></trkpt><trkpt lat="39.34728323" lon="-0.31106877"><ele>9.8</ele><time>2022-10-31T13:19:13.0000000+00:00</time></trkpt><trkpt lat="39.34729328" lon="-0.31106735"><ele>9.8</ele><time>2022-10-31T13:19:14.0000000+00:00</time></trkpt><trkpt lat="39.34730209" lon="-0.31106701"><ele>9.8</ele><time>2022-10-31T13:19:15.0000000+00:00</time></trkpt><trkpt lat="39.34730619" lon="-0.31106751"><ele>9.8</ele><time>2022-10-31T13:19:16.0000000+00:00</time></trkpt><trkpt lat="39.34730938" lon="-0.31106668"><ele>9.8</ele><time>2022-10-31T13:19:17.0000000+00:00</time></trkpt><trkpt lat="39.34731298" lon="-0.31106575"><ele>9.6</ele><time>2022-10-31T13:19:18.0000000+00:00</time></trkpt><trkpt lat="39.34731298" lon="-0.31106575"><ele>9.6</ele><time>2022-10-31T13:19:19.0000000+00:00</time></trkpt><trkpt lat="39.34731298" lon="-0.31106575"><ele>9.8</ele><time>2022-10-31T13:19:20.0000000+00:00</time></trkpt><trkpt lat="39.34731298" lon="-0.31106575"><ele>9.8</ele><time>2022-10-31T13:19:21.0000000+00:00</time></trkpt><trkpt lat="39.34731298" lon="-0.31106575"><ele>9.8</ele><time>2022-10-31T13:19:22.0000000+00:00</time></trkpt><trkpt lat="39.34731298" lon="-0.31106575"><ele>10.0</ele><time>2022-10-31T13:19:23.0000000+00:00</time></trkpt><trkpt lat="39.34731298" lon="-0.31106575"><ele>10.2</ele><time>2022-10-31T13:19:24.0000000+00:00</time></trkpt><trkpt lat="39.34731298" lon="-0.31106575"><ele>10.2</ele><time>2022-10-31T13:19:25.0000000+00:00</time></trkpt><trkpt lat="39.34731416" lon="-0.31106617"><ele>10.2</ele><time>2022-10-31T13:19:26.0000000+00:00</time></trkpt><trkpt lat="39.34732086" lon="-0.311065"><ele>10.2</ele><time>2022-10-31T13:19:27.0000000+00:00</time></trkpt><trkpt lat="39.34732396" lon="-0.31106483"><ele>10.2</ele><time>2022-10-31T13:19:28.0000000+00:00</time></trkpt><trkpt lat="39.34732396" lon="-0.31106483"><ele>10.2</ele><time>2022-10-31T13:19:29.0000000+00:00</time></trkpt><trkpt lat="39.34732396" lon="-0.31106483"><ele>10.2</ele><time>2022-10-31T13:19:30.0000000+00:00</time></trkpt><trkpt lat="39.34732396" lon="-0.31106483"><ele>10.2</ele><time>2022-10-31T13:19:31.0000000+00:00</time></trkpt><trkpt lat="39.34732815" lon="-0.31106148"><ele>10.2</ele><time>2022-10-31T13:19:32.0000000+00:00</time></trkpt><trkpt lat="39.3473326" lon="-0.31105779"><ele>10.2</ele><time>2022-10-31T13:19:33.0000000+00:00</time></trkpt><trkpt lat="39.34733804" lon="-0.31105427"><ele>10.2</ele><time>2022-10-31T13:19:34.0000000+00:00</time></trkpt><trkpt lat="39.34734031" lon="-0.31105201"><ele>10.2</ele><time>2022-10-31T13:19:35.0000000+00:00</time></trkpt><trkpt lat="39.34734031" lon="-0.31105201"><ele>10.2</ele><time>2022-10-31T13:19:36.0000000+00:00</time></trkpt><trkpt lat="39.34734274" lon="-0.31105083"><ele>10.2</ele><time>2022-10-31T13:19:37.0000000+00:00</time></trkpt><trkpt lat="39.34735238" lon="-0.31104589"><ele>10.2</ele><time>2022-10-31T13:19:38.0000000+00:00</time></trkpt><trkpt lat="39.34735724" lon="-0.31103977"><ele>10.2</ele><time>2022-10-31T13:19:39.0000000+00:00</time></trkpt><trkpt lat="39.34735665" lon="-0.31102954"><ele>10.2</ele><time>2022-10-31T13:19:40.0000000+00:00</time></trkpt><trkpt lat="39.34734819" lon="-0.31101571"><ele>10.2</ele><time>2022-10-31T13:19:41.0000000+00:00</time></trkpt><trkpt lat="39.34734299" lon="-0.31100943"><ele>10.2</ele><time>2022-10-31T13:19:42.0000000+00:00</time></trkpt><trkpt lat="39.34733779" lon="-0.31100415"><ele>10.2</ele><time>2022-10-31T13:19:43.0000000+00:00</time></trkpt><trkpt lat="39.34733595" lon="-0.31100155"><ele>10.2</ele><time>2022-10-31T13:19:44.0000000+00:00</time></trkpt><trkpt lat="39.34733972" lon="-0.31099727"><ele>10.2</ele><time>2022-10-31T13:19:45.0000000+00:00</time></trkpt><trkpt lat="39.34734274" lon="-0.31099618"><ele>10.2</ele><time>2022-10-31T13:19:46.0000000+00:00</time></trkpt><trkpt lat="39.34734366" lon="-0.31098856"><ele>10.0</ele><time>2022-10-31T13:19:47.0000000+00:00</time></trkpt><trkpt lat="39.34734156" lon="-0.31098437"><ele>9.8</ele><time>2022-10-31T13:19:48.0000000+00:00</time></trkpt><trkpt lat="39.34734156" lon="-0.31098437"><ele>9.8</ele><time>2022-10-31T13:19:49.0000000+00:00</time></trkpt><trkpt lat="39.34734156" lon="-0.31098437"><ele>9.6</ele><time>2022-10-31T13:19:50.0000000+00:00</time></trkpt><trkpt lat="39.34734098" lon="-0.31098319"><ele>9.6</ele><time>2022-10-31T13:19:51.0000000+00:00</time></trkpt><trkpt lat="39.34733846" lon="-0.31098386"><ele>9.4</ele><time>2022-10-31T13:19:52.0000000+00:00</time></trkpt><trkpt lat="39.34734047" lon="-0.31098353"><ele>9.4</ele><time>2022-10-31T13:19:53.0000000+00:00</time></trkpt><trkpt lat="39.34734198" lon="-0.31098705"><ele>9.4</ele><time>2022-10-31T13:19:54.0000000+00:00</time></trkpt><trkpt lat="39.34734014" lon="-0.31098965"><ele>9.4</ele><time>2022-10-31T13:19:55.0000000+00:00</time></trkpt><trkpt lat="39.34734014" lon="-0.31098965"><ele>9.4</ele><time>2022-10-31T13:19:56.0000000+00:00</time></trkpt><trkpt lat="39.34734014" lon="-0.31098965"><ele>9.4</ele><time>2022-10-31T13:19:57.0000000+00:00</time></trkpt><trkpt lat="39.34734014" lon="-0.31098965"><ele>9.4</ele><time>2022-10-31T13:19:58.0000000+00:00</time></trkpt><trkpt lat="39.34734014" lon="-0.31098965"><ele>9.4</ele><time>2022-10-31T13:19:59.0000000+00:00</time></trkpt><trkpt lat="39.34734014" lon="-0.31098965"><ele>9.6</ele><time>2022-10-31T13:20:00.0000000+00:00</time></trkpt><trkpt lat="39.34734014" lon="-0.31098965"><ele>9.6</ele><time>2022-10-31T13:20:01.0000000+00:00</time></trkpt><trkpt lat="39.34734014" lon="-0.31098965"><ele>9.6</ele><time>2022-10-31T13:20:02.0000000+00:00</time></trkpt><trkpt lat="39.34734014" lon="-0.31098965"><ele>9.6</ele><time>2022-10-31T13:20:03.0000000+00:00</time></trkpt><trkpt lat="39.34734014" lon="-0.31098965"><ele>9.6</ele><time>2022-10-31T13:20:04.0000000+00:00</time></trkpt><trkpt lat="39.34734014" lon="-0.31098965"><ele>9.6</ele><time>2022-10-31T13:20:05.0000000+00:00</time></trkpt><trkpt lat="39.34734014" lon="-0.31098965"><ele>9.6</ele><time>2022-10-31T13:20:06.0000000+00:00</time></trkpt><trkpt lat="39.34734014" lon="-0.31098965"><ele>9.6</ele><time>2022-10-31T13:20:07.0000000+00:00</time></trkpt><trkpt lat="39.34734014" lon="-0.31098965"><ele>9.6</ele><time>2022-10-31T13:20:08.0000000+00:00</time></trkpt><trkpt lat="39.34734014" lon="-0.31098965"><ele>9.6</ele><time>2022-10-31T13:20:09.0000000+00:00</time></trkpt><trkpt lat="39.34734173" lon="-0.31098487"><ele>9.6</ele><time>2022-10-31T13:20:10.0000000+00:00</time></trkpt><trkpt lat="39.34734148" lon="-0.31098194"><ele>9.6</ele><time>2022-10-31T13:20:11.0000000+00:00</time></trkpt><trkpt lat="39.34734148" lon="-0.31098194"><ele>9.8</ele><time>2022-10-31T13:20:12.0000000+00:00</time></trkpt><trkpt lat="39.34734148" lon="-0.31098194"><ele>9.8</ele><time>2022-10-31T13:20:13.0000000+00:00</time></trkpt><trkpt lat="39.34734148" lon="-0.31098194"><ele>9.8</ele><time>2022-10-31T13:20:14.0000000+00:00</time></trkpt><trkpt lat="39.34734148" lon="-0.31098194"><ele>10.0</ele><time>2022-10-31T13:20:15.0000000+00:00</time></trkpt><trkpt lat="39.34734148" lon="-0.31098194"><ele>10.0</ele><time>2022-10-31T13:20:16.0000000+00:00</time></trkpt><trkpt lat="39.34734148" lon="-0.31098194"><ele>10.0</ele><time>2022-10-31T13:20:17.0000000+00:00</time></trkpt><trkpt lat="39.34734148" lon="-0.31098194"><ele>10.0</ele><time>2022-10-31T13:20:18.0000000+00:00</time></trkpt><trkpt lat="39.34734299" lon="-0.31098487"><ele>10.0</ele><time>2022-10-31T13:20:19.0000000+00:00</time></trkpt><trkpt lat="39.34734341" lon="-0.31098713"><ele>10.0</ele><time>2022-10-31T13:20:20.0000000+00:00</time></trkpt><trkpt lat="39.34734341" lon="-0.31098713"><ele>9.8</ele><time>2022-10-31T13:20:21.0000000+00:00</time></trkpt><trkpt lat="39.34734341" lon="-0.31098713"><ele>9.8</ele><time>2022-10-31T13:20:22.0000000+00:00</time></trkpt><trkpt lat="39.34734341" lon="-0.31098713"><ele>9.8</ele><time>2022-10-31T13:20:23.0000000+00:00</time></trkpt><trkpt lat="39.34734341" lon="-0.31098713"><ele>9.8</ele><time>2022-10-31T13:20:24.0000000+00:00</time></trkpt><trkpt lat="39.34734399" lon="-0.31098562"><ele>9.8</ele><time>2022-10-31T13:20:25.0000000+00:00</time></trkpt><trkpt lat="39.3473414" lon="-0.31098328"><ele>9.8</ele><time>2022-10-31T13:20:26.0000000+00:00</time></trkpt><trkpt lat="39.34733779" lon="-0.31098051"><ele>9.8</ele><time>2022-10-31T13:20:27.0000000+00:00</time></trkpt><trkpt lat="39.34733779" lon="-0.31098051"><ele>9.8</ele><time>2022-10-31T13:20:28.0000000+00:00</time></trkpt><trkpt lat="39.34733779" lon="-0.31098051"><ele>9.6</ele><time>2022-10-31T13:20:29.0000000+00:00</time></trkpt><trkpt lat="39.34733779" lon="-0.31098051"><ele>9.8</ele><time>2022-10-31T13:20:30.0000000+00:00</time></trkpt><trkpt lat="39.34733779" lon="-0.31098051"><ele>9.8</ele><time>2022-10-31T13:20:31.0000000+00:00</time></trkpt><trkpt lat="39.34733779" lon="-0.31098051"><ele>9.8</ele><time>2022-10-31T13:20:32.0000000+00:00</time></trkpt><trkpt lat="39.34733779" lon="-0.31098051"><ele>9.6</ele><time>2022-10-31T13:20:33.0000000+00:00</time></trkpt><trkpt lat="39.34733779" lon="-0.31098051"><ele>9.6</ele><time>2022-10-31T13:20:34.0000000+00:00</time></trkpt><trkpt lat="39.34733779" lon="-0.31098051"><ele>9.6</ele><time>2022-10-31T13:20:35.0000000+00:00</time></trkpt><trkpt lat="39.34733779" lon="-0.31098051"><ele>9.6</ele><time>2022-10-31T13:20:36.0000000+00:00</time></trkpt><trkpt lat="39.34733779" lon="-0.31098051"><ele>9.6</ele><time>2022-10-31T13:20:37.0000000+00:00</time></trkpt><trkpt lat="39.34733779" lon="-0.31098051"><ele>9.6</ele><time>2022-10-31T13:20:38.0000000+00:00</time></trkpt><trkpt lat="39.34733779" lon="-0.31098051"><ele>9.8</ele><time>2022-10-31T13:20:39.0000000+00:00</time></trkpt><trkpt lat="39.34733779" lon="-0.31098051"><ele>9.8</ele><time>2022-10-31T13:20:40.0000000+00:00</time></trkpt><trkpt lat="39.34733779" lon="-0.31098051"><ele>9.8</ele><time>2022-10-31T13:20:41.0000000+00:00</time></trkpt><trkpt lat="39.34733779" lon="-0.31098051"><ele>9.8</ele><time>2022-10-31T13:20:42.0000000+00:00</time></trkpt><trkpt lat="39.34733779" lon="-0.31098051"><ele>9.8</ele><time>2022-10-31T13:20:43.0000000+00:00</time></trkpt><trkpt lat="39.34733779" lon="-0.31098051"><ele>9.8</ele><time>2022-10-31T13:20:44.0000000+00:00</time></trkpt><trkpt lat="39.34733779" lon="-0.31098051"><ele>9.8</ele><time>2022-10-31T13:20:45.0000000+00:00</time></trkpt><trkpt lat="39.34733779" lon="-0.31098051"><ele>9.8</ele><time>2022-10-31T13:20:46.0000000+00:00</time></trkpt><trkpt lat="39.34733779" lon="-0.31098051"><ele>9.8</ele><time>2022-10-31T13:20:47.0000000+00:00</time></trkpt><trkpt lat="39.34733779" lon="-0.31098051"><ele>9.8</ele><time>2022-10-31T13:20:48.0000000+00:00</time></trkpt><trkpt lat="39.34733779" lon="-0.31098051"><ele>9.8</ele><time>2022-10-31T13:20:49.0000000+00:00</time></trkpt><trkpt lat="39.34733779" lon="-0.31098051"><ele>9.8</ele><time>2022-10-31T13:20:50.0000000+00:00</time></trkpt><trkpt lat="39.34733779" lon="-0.31098051"><ele>9.8</ele><time>2022-10-31T13:20:51.0000000+00:00</time></trkpt><trkpt lat="39.34733779" lon="-0.31098051"><ele>9.8</ele><time>2022-10-31T13:20:52.0000000+00:00</time></trkpt><trkpt lat="39.34733779" lon="-0.31098051"><ele>9.8</ele><time>2022-10-31T13:20:53.0000000+00:00</time></trkpt><trkpt lat="39.34733779" lon="-0.31098051"><ele>9.8</ele><time>2022-10-31T13:20:54.0000000+00:00</time></trkpt><trkpt lat="39.34733779" lon="-0.31098051"><ele>10.0</ele><time>2022-10-31T13:20:55.0000000+00:00</time></trkpt><trkpt lat="39.34733779" lon="-0.31098051"><ele>10.0</ele><time>2022-10-31T13:20:56.0000000+00:00</time></trkpt><trkpt lat="39.34733779" lon="-0.31098051"><ele>10.0</ele><time>2022-10-31T13:20:57.0000000+00:00</time></trkpt><trkpt lat="39.34733779" lon="-0.31098051"><ele>10.0</ele><time>2022-10-31T13:20:58.0000000+00:00</time></trkpt><trkpt lat="39.34733779" lon="-0.31098051"><ele>10.2</ele><time>2022-10-31T13:20:59.0000000+00:00</time></trkpt><trkpt lat="39.34733779" lon="-0.31098051"><ele>10.2</ele><time>2022-10-31T13:21:00.0000000+00:00</time></trkpt><trkpt lat="39.34733779" lon="-0.31098051"><ele>10.2</ele><time>2022-10-31T13:21:01.0000000+00:00</time></trkpt><trkpt lat="39.34733779" lon="-0.31098051"><ele>10.4</ele><time>2022-10-31T13:21:02.0000000+00:00</time></trkpt><trkpt lat="39.34733779" lon="-0.31098051"><ele>10.4</ele><time>2022-10-31T13:21:03.0000000+00:00</time></trkpt><trkpt lat="39.34733779" lon="-0.31098051"><ele>10.4</ele><time>2022-10-31T13:21:04.0000000+00:00</time></trkpt><trkpt lat="39.34733779" lon="-0.31098051"><ele>10.4</ele><time>2022-10-31T13:21:05.0000000+00:00</time></trkpt><trkpt lat="39.34733779" lon="-0.31098051"><ele>10.4</ele><time>2022-10-31T13:21:06.0000000+00:00</time></trkpt><trkpt lat="39.34733779" lon="-0.31098051"><ele>10.2</ele><time>2022-10-31T13:21:07.0000000+00:00</time></trkpt><trkpt lat="39.34733779" lon="-0.31098051"><ele>10.0</ele><time>2022-10-31T13:21:08.0000000+00:00</time></trkpt><trkpt lat="39.34733779" lon="-0.31098051"><ele>10.0</ele><time>2022-10-31T13:21:09.0000000+00:00</time></trkpt><trkpt lat="39.34733779" lon="-0.31098051"><ele>10.0</ele><time>2022-10-31T13:21:10.0000000+00:00</time></trkpt><trkpt lat="39.34733779" lon="-0.31098051"><ele>9.8</ele><time>2022-10-31T13:21:11.0000000+00:00</time></trkpt><trkpt lat="39.34733779" lon="-0.31098051"><ele>10.0</ele><time>2022-10-31T13:21:12.0000000+00:00</time></trkpt><trkpt lat="39.34734047" lon="-0.31098294"><ele>10.2</ele><time>2022-10-31T13:21:13.0000000+00:00</time></trkpt><trkpt lat="39.34734265" lon="-0.31098587"><ele>10.2</ele><time>2022-10-31T13:21:14.0000000+00:00</time></trkpt><trkpt lat="39.34734274" lon="-0.31098303"><ele>10.2</ele><time>2022-10-31T13:21:15.0000000+00:00</time></trkpt><trkpt lat="39.34734114" lon="-0.31097909"><ele>10.4</ele><time>2022-10-31T13:21:16.0000000+00:00</time></trkpt><trkpt lat="39.34734114" lon="-0.31097909"><ele>10.4</ele><time>2022-10-31T13:21:17.0000000+00:00</time></trkpt><trkpt lat="39.34734114" lon="-0.31097909"><ele>10.4</ele><time>2022-10-31T13:21:18.0000000+00:00</time></trkpt><trkpt lat="39.34734114" lon="-0.31097909"><ele>10.4</ele><time>2022-10-31T13:21:19.0000000+00:00</time></trkpt><trkpt lat="39.34734114" lon="-0.31097909"><ele>10.4</ele><time>2022-10-31T13:21:20.0000000+00:00</time></trkpt><trkpt lat="39.34734114" lon="-0.31097909"><ele>10.6</ele><time>2022-10-31T13:21:21.0000000+00:00</time></trkpt><trkpt lat="39.34734114" lon="-0.31097909"><ele>10.6</ele><time>2022-10-31T13:21:22.0000000+00:00</time></trkpt><trkpt lat="39.34734114" lon="-0.31097909"><ele>10.6</ele><time>2022-10-31T13:21:23.0000000+00:00</time></trkpt><trkpt lat="39.34734114" lon="-0.31097909"><ele>10.6</ele><time>2022-10-31T13:21:24.0000000+00:00</time></trkpt><trkpt lat="39.34734114" lon="-0.31097909"><ele>10.6</ele><time>2022-10-31T13:21:25.0000000+00:00</time></trkpt><trkpt lat="39.34734114" lon="-0.31097909"><ele>10.6</ele><time>2022-10-31T13:21:26.0000000+00:00</time></trkpt><trkpt lat="39.34734114" lon="-0.31097909"><ele>10.6</ele><time>2022-10-31T13:21:27.0000000+00:00</time></trkpt><trkpt lat="39.34733964" lon="-0.31098093"><ele>10.6</ele><time>2022-10-31T13:21:28.0000000+00:00</time></trkpt><trkpt lat="39.3473362" lon="-0.31098026"><ele>10.4</ele><time>2022-10-31T13:21:29.0000000+00:00</time></trkpt><trkpt lat="39.34733343" lon="-0.31097766"><ele>10.4</ele><time>2022-10-31T13:21:30.0000000+00:00</time></trkpt><trkpt lat="39.34733343" lon="-0.31097766"><ele>10.4</ele><time>2022-10-31T13:21:31.0000000+00:00</time></trkpt><trkpt lat="39.34733343" lon="-0.31097766"><ele>10.4</ele><time>2022-10-31T13:21:32.0000000+00:00</time></trkpt><trkpt lat="39.34733343" lon="-0.31097766"><ele>10.4</ele><time>2022-10-31T13:21:33.0000000+00:00</time></trkpt><trkpt lat="39.34733343" lon="-0.31097766"><ele>10.4</ele><time>2022-10-31T13:21:34.0000000+00:00</time></trkpt><trkpt lat="39.34733343" lon="-0.31097766"><ele>10.4</ele><time>2022-10-31T13:21:35.0000000+00:00</time></trkpt><trkpt lat="39.34733343" lon="-0.31097766"><ele>10.4</ele><time>2022-10-31T13:21:36.0000000+00:00</time></trkpt><trkpt lat="39.34733343" lon="-0.31097766"><ele>10.4</ele><time>2022-10-31T13:21:37.0000000+00:00</time></trkpt><trkpt lat="39.34733343" lon="-0.31097766"><ele>10.4</ele><time>2022-10-31T13:21:38.0000000+00:00</time></trkpt><trkpt lat="39.34733343" lon="-0.31097766"><ele>10.4</ele><time>2022-10-31T13:21:39.0000000+00:00</time></trkpt><trkpt lat="39.34733343" lon="-0.31097766"><ele>10.4</ele><time>2022-10-31T13:21:40.0000000+00:00</time></trkpt><trkpt lat="39.34733343" lon="-0.31097766"><ele>10.0</ele><time>2022-10-31T13:21:41.0000000+00:00</time></trkpt><trkpt lat="39.34733343" lon="-0.31097766"><ele>10.2</ele><time>2022-10-31T13:21:42.0000000+00:00</time></trkpt><trkpt lat="39.34733343" lon="-0.31097766"><ele>10.4</ele><time>2022-10-31T13:21:43.0000000+00:00</time></trkpt><trkpt lat="39.34733343" lon="-0.31097766"><ele>10.4</ele><time>2022-10-31T13:21:44.0000000+00:00</time></trkpt><trkpt lat="39.34733343" lon="-0.31097766"><ele>10.2</ele><time>2022-10-31T13:21:45.0000000+00:00</time></trkpt><trkpt lat="39.34733343" lon="-0.31097766"><ele>10.0</ele><time>2022-10-31T13:21:46.0000000+00:00</time></trkpt><trkpt lat="39.34733343" lon="-0.31097766"><ele>10.0</ele><time>2022-10-31T13:21:47.0000000+00:00</time></trkpt><trkpt lat="39.34733343" lon="-0.31097766"><ele>10.0</ele><time>2022-10-31T13:21:48.0000000+00:00</time></trkpt><trkpt lat="39.34733343" lon="-0.31097766"><ele>10.0</ele><time>2022-10-31T13:21:49.0000000+00:00</time></trkpt><trkpt lat="39.34733343" lon="-0.31097766"><ele>10.0</ele><time>2022-10-31T13:21:50.0000000+00:00</time></trkpt><trkpt lat="39.34733343" lon="-0.31097766"><ele>10.0</ele><time>2022-10-31T13:21:51.0000000+00:00</time></trkpt><trkpt lat="39.34733343" lon="-0.31097766"><ele>10.0</ele><time>2022-10-31T13:21:52.0000000+00:00</time></trkpt><trkpt lat="39.34733343" lon="-0.31097766"><ele>10.0</ele><time>2022-10-31T13:21:53.0000000+00:00</time></trkpt><trkpt lat="39.34733343" lon="-0.31097766"><ele>10.0</ele><time>2022-10-31T13:21:54.0000000+00:00</time></trkpt><trkpt lat="39.34733343" lon="-0.31097766"><ele>10.0</ele><time>2022-10-31T13:21:55.0000000+00:00</time></trkpt><trkpt lat="39.34733343" lon="-0.31097766"><ele>10.0</ele><time>2022-10-31T13:21:56.0000000+00:00</time></trkpt><trkpt lat="39.34733343" lon="-0.31097766"><ele>10.0</ele><time>2022-10-31T13:21:57.0000000+00:00</time></trkpt><trkpt lat="39.34733343" lon="-0.31097766"><ele>10.0</ele><time>2022-10-31T13:21:58.0000000+00:00</time></trkpt><trkpt lat="39.34733343" lon="-0.31097766"><ele>10.0</ele><time>2022-10-31T13:21:59.0000000+00:00</time></trkpt><trkpt lat="39.34733343" lon="-0.31097766"><ele>10.0</ele><time>2022-10-31T13:22:00.0000000+00:00</time></trkpt><trkpt lat="39.34733343" lon="-0.31097766"><ele>10.0</ele><time>2022-10-31T13:22:01.0000000+00:00</time></trkpt><trkpt lat="39.34733343" lon="-0.31097766"><ele>10.0</ele><time>2022-10-31T13:22:02.0000000+00:00</time></trkpt><trkpt lat="39.34733343" lon="-0.31097766"><ele>10.0</ele><time>2022-10-31T13:22:03.0000000+00:00</time></trkpt><trkpt lat="39.34733343" lon="-0.31097766"><ele>10.0</ele><time>2022-10-31T13:22:04.0000000+00:00</time></trkpt><trkpt lat="39.34733343" lon="-0.31097766"><ele>9.8</ele><time>2022-10-31T13:22:05.0000000+00:00</time></trkpt><trkpt lat="39.34733343" lon="-0.31097766"><ele>9.8</ele><time>2022-10-31T13:22:06.0000000+00:00</time></trkpt><trkpt lat="39.34733343" lon="-0.31097766"><ele>9.8</ele><time>2022-10-31T13:22:07.0000000+00:00</time></trkpt><trkpt lat="39.34733343" lon="-0.31097766"><ele>9.8</ele><time>2022-10-31T13:22:08.0000000+00:00</time></trkpt><trkpt lat="39.34733343" lon="-0.31097766"><ele>9.8</ele><time>2022-10-31T13:22:09.0000000+00:00</time></trkpt><trkpt lat="39.34733343" lon="-0.31097766"><ele>9.8</ele><time>2022-10-31T13:22:10.0000000+00:00</time></trkpt><trkpt lat="39.34733343" lon="-0.31097766"><ele>9.8</ele><time>2022-10-31T13:22:11.0000000+00:00</time></trkpt><trkpt lat="39.34733343" lon="-0.31097766"><ele>9.8</ele><time>2022-10-31T13:22:12.0000000+00:00</time></trkpt><trkpt lat="39.34733343" lon="-0.31097766"><ele>9.8</ele><time>2022-10-31T13:22:13.0000000+00:00</time></trkpt><trkpt lat="39.34733343" lon="-0.31097766"><ele>9.8</ele><time>2022-10-31T13:22:14.0000000+00:00</time></trkpt><trkpt lat="39.34733343" lon="-0.31097766"><ele>9.8</ele><time>2022-10-31T13:22:15.0000000+00:00</time></trkpt><trkpt lat="39.34733343" lon="-0.31097766"><ele>9.8</ele><time>2022-10-31T13:22:16.0000000+00:00</time></trkpt><trkpt lat="39.34733343" lon="-0.31097766"><ele>9.8</ele><time>2022-10-31T13:22:17.0000000+00:00</time></trkpt><trkpt lat="39.34733343" lon="-0.31097766"><ele>9.8</ele><time>2022-10-31T13:22:18.0000000+00:00</time></trkpt><trkpt lat="39.34733343" lon="-0.31097766"><ele>9.8</ele><time>2022-10-31T13:22:19.0000000+00:00</time></trkpt><trkpt lat="39.34733343" lon="-0.31097766"><ele>9.8</ele><time>2022-10-31T13:22:20.0000000+00:00</time></trkpt><trkpt lat="39.34733343" lon="-0.31097766"><ele>9.8</ele><time>2022-10-31T13:22:21.0000000+00:00</time></trkpt><trkpt lat="39.34733343" lon="-0.31097766"><ele>9.8</ele><time>2022-10-31T13:22:22.0000000+00:00</time></trkpt><trkpt lat="39.34733343" lon="-0.31097766"><ele>9.8</ele><time>2022-10-31T13:22:23.0000000+00:00</time></trkpt><trkpt lat="39.34733343" lon="-0.31097766"><ele>9.8</ele><time>2022-10-31T13:22:24.0000000+00:00</time></trkpt><trkpt lat="39.34733343" lon="-0.31097766"><ele>9.8</ele><time>2022-10-31T13:22:25.0000000+00:00</time></trkpt><trkpt lat="39.34733343" lon="-0.31097766"><ele>9.8</ele><time>2022-10-31T13:22:26.0000000+00:00</time></trkpt><trkpt lat="39.34733343" lon="-0.31097766"><ele>9.8</ele><time>2022-10-31T13:22:27.0000000+00:00</time></trkpt><trkpt lat="39.34733343" lon="-0.31097766"><ele>9.8</ele><time>2022-10-31T13:22:28.0000000+00:00</time></trkpt><trkpt lat="39.34733343" lon="-0.31097766"><ele>9.8</ele><time>2022-10-31T13:22:29.0000000+00:00</time></trkpt><trkpt lat="39.34733343" lon="-0.31097766"><ele>9.8</ele><time>2022-10-31T13:22:30.0000000+00:00</time></trkpt><trkpt lat="39.34733343" lon="-0.31097766"><ele>9.8</ele><time>2022-10-31T13:22:31.0000000+00:00</time></trkpt><trkpt lat="39.34733343" lon="-0.31097766"><ele>9.8</ele><time>2022-10-31T13:22:32.0000000+00:00</time></trkpt><trkpt lat="39.34733343" lon="-0.31097766"><ele>9.8</ele><time>2022-10-31T13:22:33.0000000+00:00</time></trkpt><trkpt lat="39.34733343" lon="-0.31097766"><ele>9.8</ele><time>2022-10-31T13:22:34.0000000+00:00</time></trkpt><trkpt lat="39.34733343" lon="-0.31097766"><ele>9.8</ele><time>2022-10-31T13:22:35.0000000+00:00</time></trkpt><trkpt lat="39.34733343" lon="-0.31097766"><ele>9.8</ele><time>2022-10-31T13:22:36.0000000+00:00</time></trkpt><trkpt lat="39.34733343" lon="-0.31097766"><ele>9.8</ele><time>2022-10-31T13:22:37.0000000+00:00</time></trkpt><trkpt lat="39.34733343" lon="-0.31097766"><ele>9.8</ele><time>2022-10-31T13:22:38.0000000+00:00</time></trkpt><trkpt lat="39.34733343" lon="-0.31097766"><ele>9.8</ele><time>2022-10-31T13:22:39.0000000+00:00</time></trkpt><trkpt lat="39.34733343" lon="-0.31097766"><ele>9.8</ele><time>2022-10-31T13:22:40.0000000+00:00</time></trkpt><trkpt lat="39.34733343" lon="-0.31097766"><ele>9.8</ele><time>2022-10-31T13:22:41.0000000+00:00</time></trkpt><trkpt lat="39.34733343" lon="-0.31097766"><ele>9.8</ele><time>2022-10-31T13:22:42.0000000+00:00</time></trkpt><trkpt lat="39.34733343" lon="-0.31097766"><ele>9.8</ele><time>2022-10-31T13:22:43.0000000+00:00</time></trkpt><trkpt lat="39.34733343" lon="-0.31097766"><ele>9.8</ele><time>2022-10-31T13:22:44.0000000+00:00</time></trkpt><trkpt lat="39.34733343" lon="-0.31097766"><ele>9.8</ele><time>2022-10-31T13:22:45.0000000+00:00</time></trkpt><trkpt lat="39.34733343" lon="-0.31097766"><ele>9.8</ele><time>2022-10-31T13:22:46.0000000+00:00</time></trkpt><trkpt lat="39.34733343" lon="-0.31097766"><ele>9.8</ele><time>2022-10-31T13:22:47.0000000+00:00</time></trkpt><trkpt lat="39.34733343" lon="-0.31097766"><ele>9.8</ele><time>2022-10-31T13:22:48.0000000+00:00</time></trkpt><trkpt lat="39.34733343" lon="-0.31097766"><ele>9.8</ele><time>2022-10-31T13:22:49.0000000+00:00</time></trkpt><trkpt lat="39.34733343" lon="-0.31097766"><ele>9.8</ele><time>2022-10-31T13:22:50.0000000+00:00</time></trkpt><trkpt lat="39.34733343" lon="-0.31097766"><ele>9.8</ele><time>2022-10-31T13:22:51.0000000+00:00</time></trkpt><trkpt lat="39.34733427" lon="-0.31097456"><ele>9.8</ele><time>2022-10-31T13:22:52.0000000+00:00</time></trkpt><trkpt lat="39.3473326" lon="-0.31097179"><ele>9.8</ele><time>2022-10-31T13:22:53.0000000+00:00</time></trkpt><trkpt lat="39.3473326" lon="-0.31097179"><ele>9.8</ele><time>2022-10-31T13:22:54.0000000+00:00</time></trkpt><trkpt lat="39.3473326" lon="-0.31097179"><ele>9.8</ele><time>2022-10-31T13:22:55.0000000+00:00</time></trkpt><trkpt lat="39.3473326" lon="-0.31097179"><ele>9.8</ele><time>2022-10-31T13:22:56.0000000+00:00</time></trkpt><trkpt lat="39.3473326" lon="-0.31097179"><ele>9.8</ele><time>2022-10-31T13:22:57.0000000+00:00</time></trkpt><trkpt lat="39.34733561" lon="-0.31097104"><ele>9.8</ele><time>2022-10-31T13:22:58.0000000+00:00</time></trkpt><trkpt lat="39.34733771" lon="-0.31097305"><ele>9.8</ele><time>2022-10-31T13:22:59.0000000+00:00</time></trkpt><trkpt lat="39.34733771" lon="-0.31097305"><ele>9.8</ele><time>2022-10-31T13:23:00.0000000+00:00</time></trkpt><trkpt lat="39.34733771" lon="-0.31097305"><ele>9.8</ele><time>2022-10-31T13:23:01.0000000+00:00</time></trkpt><trkpt lat="39.34733771" lon="-0.31097305"><ele>9.8</ele><time>2022-10-31T13:23:02.0000000+00:00</time></trkpt><trkpt lat="39.34733771" lon="-0.31097305"><ele>9.8</ele><time>2022-10-31T13:23:03.0000000+00:00</time></trkpt><trkpt lat="39.34733771" lon="-0.31097305"><ele>9.8</ele><time>2022-10-31T13:23:04.0000000+00:00</time></trkpt><trkpt lat="39.34733771" lon="-0.31097305"><ele>9.8</ele><time>2022-10-31T13:23:05.0000000+00:00</time></trkpt><trkpt lat="39.34733771" lon="-0.31097305"><ele>9.8</ele><time>2022-10-31T13:23:06.0000000+00:00</time></trkpt><trkpt lat="39.34733771" lon="-0.31097305"><ele>9.8</ele><time>2022-10-31T13:23:07.0000000+00:00</time></trkpt><trkpt lat="39.34733771" lon="-0.31097305"><ele>9.8</ele><time>2022-10-31T13:23:08.0000000+00:00</time></trkpt><trkpt lat="39.34733771" lon="-0.31097305"><ele>9.8</ele><time>2022-10-31T13:23:09.0000000+00:00</time></trkpt><trkpt lat="39.34733771" lon="-0.31097305"><ele>9.8</ele><time>2022-10-31T13:23:10.0000000+00:00</time></trkpt><trkpt lat="39.34733729" lon="-0.31097431"><ele>9.8</ele><time>2022-10-31T13:23:11.0000000+00:00</time></trkpt><trkpt lat="39.34733494" lon="-0.31097506"><ele>9.8</ele><time>2022-10-31T13:23:12.0000000+00:00</time></trkpt><trkpt lat="39.34733494" lon="-0.31097506"><ele>9.8</ele><time>2022-10-31T13:23:13.0000000+00:00</time></trkpt><trkpt lat="39.34733494" lon="-0.31097506"><ele>9.8</ele><time>2022-10-31T13:23:14.0000000+00:00</time></trkpt><trkpt lat="39.34733494" lon="-0.31097506"><ele>9.8</ele><time>2022-10-31T13:23:15.0000000+00:00</time></trkpt><trkpt lat="39.34733494" lon="-0.31097506"><ele>9.8</ele><time>2022-10-31T13:23:16.0000000+00:00</time></trkpt><trkpt lat="39.34733494" lon="-0.31097506"><ele>9.8</ele><time>2022-10-31T13:23:17.0000000+00:00</time></trkpt><trkpt lat="39.34733494" lon="-0.31097506"><ele>9.8</ele><time>2022-10-31T13:23:18.0000000+00:00</time></trkpt><trkpt lat="39.34733452" lon="-0.31097741"><ele>9.8</ele><time>2022-10-31T13:23:19.0000000+00:00</time></trkpt><trkpt lat="39.34733167" lon="-0.31097816"><ele>9.8</ele><time>2022-10-31T13:23:20.0000000+00:00</time></trkpt><trkpt lat="39.34733167" lon="-0.31097816"><ele>9.8</ele><time>2022-10-31T13:23:21.0000000+00:00</time></trkpt><trkpt lat="39.34733167" lon="-0.31097816"><ele>9.8</ele><time>2022-10-31T13:23:22.0000000+00:00</time></trkpt><trkpt lat="39.34733167" lon="-0.31097816"><ele>9.8</ele><time>2022-10-31T13:23:23.0000000+00:00</time></trkpt><trkpt lat="39.34733167" lon="-0.31097816"><ele>9.8</ele><time>2022-10-31T13:23:24.0000000+00:00</time></trkpt><trkpt lat="39.34733167" lon="-0.31097816"><ele>9.8</ele><time>2022-10-31T13:23:25.0000000+00:00</time></trkpt><trkpt lat="39.34733167" lon="-0.31097816"><ele>9.8</ele><time>2022-10-31T13:23:26.0000000+00:00</time></trkpt><trkpt lat="39.34733167" lon="-0.31097816"><ele>9.8</ele><time>2022-10-31T13:23:27.0000000+00:00</time></trkpt><trkpt lat="39.34733167" lon="-0.31097816"><ele>9.8</ele><time>2022-10-31T13:23:28.0000000+00:00</time></trkpt><trkpt lat="39.34733167" lon="-0.31097816"><ele>9.8</ele><time>2022-10-31T13:23:29.0000000+00:00</time></trkpt><trkpt lat="39.34733167" lon="-0.31097816"><ele>9.8</ele><time>2022-10-31T13:23:30.0000000+00:00</time></trkpt><trkpt lat="39.34733167" lon="-0.31097816"><ele>9.8</ele><time>2022-10-31T13:23:31.0000000+00:00</time></trkpt><trkpt lat="39.34733167" lon="-0.31097816"><ele>9.8</ele><time>2022-10-31T13:23:32.0000000+00:00</time></trkpt><trkpt lat="39.34733167" lon="-0.31097816"><ele>9.8</ele><time>2022-10-31T13:23:33.0000000+00:00</time></trkpt><trkpt lat="39.34733167" lon="-0.31097816"><ele>9.8</ele><time>2022-10-31T13:23:34.0000000+00:00</time></trkpt><trkpt lat="39.34733167" lon="-0.31097816"><ele>9.8</ele><time>2022-10-31T13:23:35.0000000+00:00</time></trkpt><trkpt lat="39.34733167" lon="-0.31097816"><ele>9.8</ele><time>2022-10-31T13:23:36.0000000+00:00</time></trkpt><trkpt lat="39.34733167" lon="-0.31097816"><ele>9.8</ele><time>2022-10-31T13:23:37.0000000+00:00</time></trkpt><trkpt lat="39.34733167" lon="-0.31097816"><ele>9.8</ele><time>2022-10-31T13:23:38.0000000+00:00</time></trkpt><trkpt lat="39.34733167" lon="-0.31097816"><ele>9.8</ele><time>2022-10-31T13:23:39.0000000+00:00</time></trkpt><trkpt lat="39.34733167" lon="-0.31097816"><ele>9.8</ele><time>2022-10-31T13:23:40.0000000+00:00</time></trkpt><trkpt lat="39.34733167" lon="-0.31097816"><ele>9.8</ele><time>2022-10-31T13:23:41.0000000+00:00</time></trkpt><trkpt lat="39.34733167" lon="-0.31097816"><ele>9.8</ele><time>2022-10-31T13:23:42.0000000+00:00</time></trkpt><trkpt lat="39.34733167" lon="-0.31097816"><ele>9.8</ele><time>2022-10-31T13:23:43.0000000+00:00</time></trkpt><trkpt lat="39.34733167" lon="-0.31097816"><ele>9.8</ele><time>2022-10-31T13:23:44.0000000+00:00</time></trkpt><trkpt lat="39.34733167" lon="-0.31097816"><ele>9.8</ele><time>2022-10-31T13:23:45.0000000+00:00</time></trkpt><trkpt lat="39.34733167" lon="-0.31097816"><ele>9.8</ele><time>2022-10-31T13:23:46.0000000+00:00</time></trkpt><trkpt lat="39.34733167" lon="-0.31097816"><ele>9.8</ele><time>2022-10-31T13:23:47.0000000+00:00</time></trkpt><trkpt lat="39.34733167" lon="-0.31097816"><ele>9.8</ele><time>2022-10-31T13:23:48.0000000+00:00</time></trkpt><trkpt lat="39.34733167" lon="-0.31097816"><ele>9.8</ele><time>2022-10-31T13:23:49.0000000+00:00</time></trkpt><trkpt lat="39.34733167" lon="-0.31097816"><ele>9.8</ele><time>2022-10-31T13:23:50.0000000+00:00</time></trkpt><trkpt lat="39.34733167" lon="-0.31097816"><ele>9.8</ele><time>2022-10-31T13:23:51.0000000+00:00</time></trkpt><trkpt lat="39.34733167" lon="-0.31097816"><ele>9.8</ele><time>2022-10-31T13:23:52.0000000+00:00</time></trkpt><trkpt lat="39.34733167" lon="-0.31097816"><ele>9.8</ele><time>2022-10-31T13:23:53.0000000+00:00</time></trkpt><trkpt lat="39.34733167" lon="-0.31097816"><ele>9.8</ele><time>2022-10-31T13:23:54.0000000+00:00</time></trkpt><trkpt lat="39.34733167" lon="-0.31097816"><ele>9.8</ele><time>2022-10-31T13:23:55.0000000+00:00</time></trkpt><trkpt lat="39.34733167" lon="-0.31097816"><ele>9.8</ele><time>2022-10-31T13:23:56.0000000+00:00</time></trkpt><trkpt lat="39.34733167" lon="-0.31097816"><ele>9.8</ele><time>2022-10-31T13:23:57.0000000+00:00</time></trkpt><trkpt lat="39.34733167" lon="-0.31097816"><ele>9.8</ele><time>2022-10-31T13:23:58.0000000+00:00</time></trkpt><trkpt lat="39.34733167" lon="-0.31097816"><ele>9.8</ele><time>2022-10-31T13:23:59.0000000+00:00</time></trkpt><trkpt lat="39.34733125" lon="-0.31098043"><ele>9.8</ele><time>2022-10-31T13:24:00.0000000+00:00</time></trkpt><trkpt lat="39.34732949" lon="-0.31098303"><ele>9.8</ele><time>2022-10-31T13:24:01.0000000+00:00</time></trkpt><trkpt lat="39.34732765" lon="-0.31098319"><ele>9.8</ele><time>2022-10-31T13:24:02.0000000+00:00</time></trkpt><trkpt lat="39.34732086" lon="-0.31098453"><ele>9.8</ele><time>2022-10-31T13:24:03.0000000+00:00</time></trkpt><trkpt lat="39.34731156" lon="-0.31098663"><ele>9.8</ele><time>2022-10-31T13:24:04.0000000+00:00</time></trkpt><trkpt lat="39.34730896" lon="-0.31099669"><ele>9.8</ele><time>2022-10-31T13:24:05.0000000+00:00</time></trkpt><trkpt lat="39.34730904" lon="-0.3110044"><ele>9.8</ele><time>2022-10-31T13:24:06.0000000+00:00</time></trkpt><trkpt lat="39.34730996" lon="-0.31101337"><ele>9.8</ele><time>2022-10-31T13:24:07.0000000+00:00</time></trkpt><trkpt lat="39.34731047" lon="-0.31102225"><ele>9.8</ele><time>2022-10-31T13:24:08.0000000+00:00</time></trkpt><trkpt lat="39.34730611" lon="-0.31103348"><ele>10.4</ele><time>2022-10-31T13:24:09.0000000+00:00</time></trkpt><trkpt lat="39.34730192" lon="-0.31104757"><ele>10.6</ele><time>2022-10-31T13:24:10.0000000+00:00</time></trkpt><trkpt lat="39.34729831" lon="-0.31105888"><ele>10.8</ele><time>2022-10-31T13:24:11.0000000+00:00</time></trkpt><trkpt lat="39.34729287" lon="-0.31106894"><ele>10.8</ele><time>2022-10-31T13:24:12.0000000+00:00</time></trkpt><trkpt lat="39.347287" lon="-0.31107967"><ele>10.8</ele><time>2022-10-31T13:24:13.0000000+00:00</time></trkpt><trkpt lat="39.34728063" lon="-0.31108587"><ele>10.8</ele><time>2022-10-31T13:24:14.0000000+00:00</time></trkpt><trkpt lat="39.34727443" lon="-0.31108755"><ele>10.8</ele><time>2022-10-31T13:24:15.0000000+00:00</time></trkpt><trkpt lat="39.34726973" lon="-0.31108914"><ele>10.8</ele><time>2022-10-31T13:24:16.0000000+00:00</time></trkpt><trkpt lat="39.34726973" lon="-0.31108914"><ele>10.8</ele><time>2022-10-31T13:24:17.0000000+00:00</time></trkpt><trkpt lat="39.34726973" lon="-0.31108914"><ele>10.6</ele><time>2022-10-31T13:24:18.0000000+00:00</time></trkpt><trkpt lat="39.34726973" lon="-0.31108914"><ele>10.6</ele><time>2022-10-31T13:24:19.0000000+00:00</time></trkpt><trkpt lat="39.34726671" lon="-0.31108889"><ele>10.6</ele><time>2022-10-31T13:24:20.0000000+00:00</time></trkpt><trkpt lat="39.34725925" lon="-0.31109316"><ele>10.6</ele><time>2022-10-31T13:24:21.0000000+00:00</time></trkpt><trkpt lat="39.3472507" lon="-0.31110096"><ele>10.6</ele><time>2022-10-31T13:24:22.0000000+00:00</time></trkpt><trkpt lat="39.34724215" lon="-0.3111059"><ele>10.6</ele><time>2022-10-31T13:24:23.0000000+00:00</time></trkpt><trkpt lat="39.34723218" lon="-0.31110523"><ele>10.6</ele><time>2022-10-31T13:24:24.0000000+00:00</time></trkpt><trkpt lat="39.34721801" lon="-0.31110406"><ele>10.6</ele><time>2022-10-31T13:24:25.0000000+00:00</time></trkpt><trkpt lat="39.34719555" lon="-0.31110381"><ele>10.6</ele><time>2022-10-31T13:24:26.0000000+00:00</time></trkpt><trkpt lat="39.34717141" lon="-0.31110599"><ele>10.6</ele><time>2022-10-31T13:24:27.0000000+00:00</time></trkpt><trkpt lat="39.3471497" lon="-0.31111085"><ele>10.6</ele><time>2022-10-31T13:24:28.0000000+00:00</time></trkpt><trkpt lat="39.34712707" lon="-0.3111204"><ele>10.6</ele><time>2022-10-31T13:24:29.0000000+00:00</time></trkpt><trkpt lat="39.34710193" lon="-0.31112988"><ele>10.6</ele><time>2022-10-31T13:24:30.0000000+00:00</time></trkpt><trkpt lat="39.3470751" lon="-0.31114295"><ele>10.6</ele><time>2022-10-31T13:24:31.0000000+00:00</time></trkpt><trkpt lat="39.34704803" lon="-0.31115896"><ele>10.6</ele><time>2022-10-31T13:24:32.0000000+00:00</time></trkpt><trkpt lat="39.34702062" lon="-0.31117355"><ele>10.6</ele><time>2022-10-31T13:24:33.0000000+00:00</time></trkpt><trkpt lat="39.34699497" lon="-0.31118746"><ele>10.6</ele><time>2022-10-31T13:24:34.0000000+00:00</time></trkpt><trkpt lat="39.34696765" lon="-0.31120431"><ele>10.6</ele><time>2022-10-31T13:24:35.0000000+00:00</time></trkpt><trkpt lat="39.34694317" lon="-0.31122241"><ele>10.6</ele><time>2022-10-31T13:24:36.0000000+00:00</time></trkpt><trkpt lat="39.34691954" lon="-0.31123892"><ele>10.6</ele><time>2022-10-31T13:24:37.0000000+00:00</time></trkpt><trkpt lat="39.34689615" lon="-0.31125326"><ele>10.6</ele><time>2022-10-31T13:24:38.0000000+00:00</time></trkpt><trkpt lat="39.34687218" lon="-0.31126491"><ele>10.6</ele><time>2022-10-31T13:24:39.0000000+00:00</time></trkpt><trkpt lat="39.34684862" lon="-0.31127715"><ele>10.8</ele><time>2022-10-31T13:24:40.0000000+00:00</time></trkpt><trkpt lat="39.34682666" lon="-0.31129232"><ele>10.8</ele><time>2022-10-31T13:24:41.0000000+00:00</time></trkpt><trkpt lat="39.34680705" lon="-0.31131143"><ele>10.8</ele><time>2022-10-31T13:24:42.0000000+00:00</time></trkpt><trkpt lat="39.34678861" lon="-0.31132886"><ele>10.8</ele><time>2022-10-31T13:24:43.0000000+00:00</time></trkpt><trkpt lat="39.34677076" lon="-0.31134588"><ele>10.8</ele><time>2022-10-31T13:24:44.0000000+00:00</time></trkpt><trkpt lat="39.34674771" lon="-0.31136365"><ele>10.8</ele><time>2022-10-31T13:24:45.0000000+00:00</time></trkpt><trkpt lat="39.34673019" lon="-0.31137605"><ele>10.6</ele><time>2022-10-31T13:24:46.0000000+00:00</time></trkpt><trkpt lat="39.34670303" lon="-0.31139248"><ele>10.6</ele><time>2022-10-31T13:24:47.0000000+00:00</time></trkpt><trkpt lat="39.34667294" lon="-0.31140816"><ele>10.8</ele><time>2022-10-31T13:24:48.0000000+00:00</time></trkpt><trkpt lat="39.34664067" lon="-0.31142282"><ele>10.8</ele><time>2022-10-31T13:24:49.0000000+00:00</time></trkpt><trkpt lat="39.34660873" lon="-0.31143934"><ele>10.8</ele><time>2022-10-31T13:24:50.0000000+00:00</time></trkpt><trkpt lat="39.34657571" lon="-0.31145736"><ele>10.8</ele><time>2022-10-31T13:24:51.0000000+00:00</time></trkpt><trkpt lat="39.34654277" lon="-0.31147772"><ele>10.8</ele><time>2022-10-31T13:24:52.0000000+00:00</time></trkpt><trkpt lat="39.34650832" lon="-0.31149927"><ele>10.8</ele><time>2022-10-31T13:24:53.0000000+00:00</time></trkpt><trkpt lat="39.34647387" lon="-0.31152357"><ele>10.8</ele><time>2022-10-31T13:24:54.0000000+00:00</time></trkpt><trkpt lat="39.34643691" lon="-0.31154512"><ele>10.8</ele><time>2022-10-31T13:24:55.0000000+00:00</time></trkpt><trkpt lat="39.34640195" lon="-0.31156615"><ele>11.0</ele><time>2022-10-31T13:24:56.0000000+00:00</time></trkpt><trkpt lat="39.34636926" lon="-0.31158736"><ele>10.8</ele><time>2022-10-31T13:24:57.0000000+00:00</time></trkpt><trkpt lat="39.34633683" lon="-0.31160597"><ele>10.8</ele><time>2022-10-31T13:24:58.0000000+00:00</time></trkpt><trkpt lat="39.34630439" lon="-0.31161754"><ele>10.8</ele><time>2022-10-31T13:24:59.0000000+00:00</time></trkpt><trkpt lat="39.34627346" lon="-0.31161913"><ele>10.8</ele><time>2022-10-31T13:25:00.0000000+00:00</time></trkpt><trkpt lat="39.34624102" lon="-0.31160815"><ele>11.0</ele><time>2022-10-31T13:25:01.0000000+00:00</time></trkpt><trkpt lat="39.3462137" lon="-0.31158007"><ele>11.2</ele><time>2022-10-31T13:25:02.0000000+00:00</time></trkpt><trkpt lat="39.34619375" lon="-0.31153858"><ele>11.2</ele><time>2022-10-31T13:25:03.0000000+00:00</time></trkpt><trkpt lat="39.34617564" lon="-0.31149072"><ele>11.4</ele><time>2022-10-31T13:25:04.0000000+00:00</time></trkpt><trkpt lat="39.34615653" lon="-0.31144152"><ele>11.4</ele><time>2022-10-31T13:25:05.0000000+00:00</time></trkpt><trkpt lat="39.3461334" lon="-0.311396"><ele>11.6</ele><time>2022-10-31T13:25:06.0000000+00:00</time></trkpt><trkpt lat="39.34610691" lon="-0.31135283"><ele>11.6</ele><time>2022-10-31T13:25:07.0000000+00:00</time></trkpt><trkpt lat="39.34607866" lon="-0.31131428"><ele>11.6</ele><time>2022-10-31T13:25:08.0000000+00:00</time></trkpt><trkpt lat="39.34604572" lon="-0.3112784"><ele>11.6</ele><time>2022-10-31T13:25:09.0000000+00:00</time></trkpt><trkpt lat="39.34600809" lon="-0.31124647"><ele>11.6</ele><time>2022-10-31T13:25:10.0000000+00:00</time></trkpt><trkpt lat="39.3459764" lon="-0.31122719"><ele>11.6</ele><time>2022-10-31T13:25:11.0000000+00:00</time></trkpt><trkpt lat="39.34593533" lon="-0.31120188"><ele>11.4</ele><time>2022-10-31T13:25:12.0000000+00:00</time></trkpt><trkpt lat="39.34588672" lon="-0.31117128"><ele>11.4</ele><time>2022-10-31T13:25:13.0000000+00:00</time></trkpt><trkpt lat="39.34585285" lon="-0.31115175"><ele>11.4</ele><time>2022-10-31T13:25:14.0000000+00:00</time></trkpt><trkpt lat="39.34581111" lon="-0.31112828"><ele>11.4</ele><time>2022-10-31T13:25:15.0000000+00:00</time></trkpt><trkpt lat="39.34576878" lon="-0.3111085"><ele>11.4</ele><time>2022-10-31T13:25:16.0000000+00:00</time></trkpt><trkpt lat="39.34572486" lon="-0.31108931"><ele>11.4</ele><time>2022-10-31T13:25:17.0000000+00:00</time></trkpt><trkpt lat="39.34568312" lon="-0.31107062"><ele>11.4</ele><time>2022-10-31T13:25:18.0000000+00:00</time></trkpt><trkpt lat="39.3456304" lon="-0.31104748"><ele>11.2</ele><time>2022-10-31T13:25:19.0000000+00:00</time></trkpt><trkpt lat="39.34559637" lon="-0.31103675"><ele>11.0</ele><time>2022-10-31T13:25:20.0000000+00:00</time></trkpt><trkpt lat="39.34554675" lon="-0.31101823"><ele>11.0</ele><time>2022-10-31T13:25:21.0000000+00:00</time></trkpt><trkpt lat="39.34550861" lon="-0.31100113"><ele>10.8</ele><time>2022-10-31T13:25:22.0000000+00:00</time></trkpt><trkpt lat="39.34547936" lon="-0.31098621"><ele>10.8</ele><time>2022-10-31T13:25:23.0000000+00:00</time></trkpt><trkpt lat="39.34543552" lon="-0.31096609"><ele>10.8</ele><time>2022-10-31T13:25:24.0000000+00:00</time></trkpt><trkpt lat="39.34540107" lon="-0.31095402"><ele>11.0</ele><time>2022-10-31T13:25:25.0000000+00:00</time></trkpt><trkpt lat="39.34536637" lon="-0.31093692"><ele>11.0</ele><time>2022-10-31T13:25:26.0000000+00:00</time></trkpt><trkpt lat="39.34532982" lon="-0.31091681"><ele>11.2</ele><time>2022-10-31T13:25:27.0000000+00:00</time></trkpt><trkpt lat="39.34529956" lon="-0.31089803"><ele>11.2</ele><time>2022-10-31T13:25:28.0000000+00:00</time></trkpt><trkpt lat="39.34525933" lon="-0.31087406"><ele>11.2</ele><time>2022-10-31T13:25:29.0000000+00:00</time></trkpt><trkpt lat="39.34521382" lon="-0.31084648"><ele>11.2</ele><time>2022-10-31T13:25:30.0000000+00:00</time></trkpt><trkpt lat="39.34518004" lon="-0.31082561"><ele>11.4</ele><time>2022-10-31T13:25:31.0000000+00:00</time></trkpt><trkpt lat="39.34513453" lon="-0.31079854"><ele>11.4</ele><time>2022-10-31T13:25:32.0000000+00:00</time></trkpt><trkpt lat="39.34509052" lon="-0.31077088"><ele>11.4</ele><time>2022-10-31T13:25:33.0000000+00:00</time></trkpt><trkpt lat="39.34504828" lon="-0.31074498"><ele>11.4</ele><time>2022-10-31T13:25:34.0000000+00:00</time></trkpt><trkpt lat="39.34499664" lon="-0.31071547"><ele>11.4</ele><time>2022-10-31T13:25:35.0000000+00:00</time></trkpt><trkpt lat="39.34495658" lon="-0.3106972"><ele>11.4</ele><time>2022-10-31T13:25:36.0000000+00:00</time></trkpt><trkpt lat="39.34491593" lon="-0.31068706"><ele>11.4</ele><time>2022-10-31T13:25:37.0000000+00:00</time></trkpt><trkpt lat="39.34488332" lon="-0.31068245"><ele>11.4</ele><time>2022-10-31T13:25:38.0000000+00:00</time></trkpt><trkpt lat="39.34484057" lon="-0.31067591"><ele>11.4</ele><time>2022-10-31T13:25:39.0000000+00:00</time></trkpt><trkpt lat="39.34478802" lon="-0.31066636"><ele>11.4</ele><time>2022-10-31T13:25:40.0000000+00:00</time></trkpt><trkpt lat="39.3447534" lon="-0.31065848"><ele>11.4</ele><time>2022-10-31T13:25:41.0000000+00:00</time></trkpt><trkpt lat="39.34471074" lon="-0.31064767"><ele>11.4</ele><time>2022-10-31T13:25:42.0000000+00:00</time></trkpt><trkpt lat="39.34465936" lon="-0.31063191"><ele>11.4</ele><time>2022-10-31T13:25:43.0000000+00:00</time></trkpt><trkpt lat="39.34461761" lon="-0.31061422"><ele>11.4</ele><time>2022-10-31T13:25:44.0000000+00:00</time></trkpt><trkpt lat="39.34457646" lon="-0.31059452"><ele>11.6</ele><time>2022-10-31T13:25:45.0000000+00:00</time></trkpt><trkpt lat="39.34453296" lon="-0.3105755"><ele>11.6</ele><time>2022-10-31T13:25:46.0000000+00:00</time></trkpt><trkpt lat="39.34449683" lon="-0.310561"><ele>11.6</ele><time>2022-10-31T13:25:47.0000000+00:00</time></trkpt><trkpt lat="39.34444151" lon="-0.31054163"><ele>11.6</ele><time>2022-10-31T13:25:48.0000000+00:00</time></trkpt><trkpt lat="39.34439315" lon="-0.3105294"><ele>11.6</ele><time>2022-10-31T13:25:49.0000000+00:00</time></trkpt><trkpt lat="39.34435375" lon="-0.31052135"><ele>11.6</ele><time>2022-10-31T13:25:50.0000000+00:00</time></trkpt><trkpt lat="39.34429734" lon="-0.31051691"><ele>11.6</ele><time>2022-10-31T13:25:51.0000000+00:00</time></trkpt><trkpt lat="39.34426063" lon="-0.31051875"><ele>11.6</ele><time>2022-10-31T13:25:52.0000000+00:00</time></trkpt><trkpt lat="39.3442126" lon="-0.31052437"><ele>11.6</ele><time>2022-10-31T13:25:53.0000000+00:00</time></trkpt><trkpt lat="39.34416491" lon="-0.31054054"><ele>11.6</ele><time>2022-10-31T13:25:54.0000000+00:00</time></trkpt><trkpt lat="39.34411026" lon="-0.31056703"><ele>11.6</ele><time>2022-10-31T13:25:55.0000000+00:00</time></trkpt><trkpt lat="39.34406759" lon="-0.31059218"><ele>11.6</ele><time>2022-10-31T13:25:56.0000000+00:00</time></trkpt><trkpt lat="39.34402443" lon="-0.31061724"><ele>11.4</ele><time>2022-10-31T13:25:57.0000000+00:00</time></trkpt><trkpt lat="39.34398277" lon="-0.31064264"><ele>11.2</ele><time>2022-10-31T13:25:58.0000000+00:00</time></trkpt><trkpt lat="39.34394564" lon="-0.31066904"><ele>11.2</ele><time>2022-10-31T13:25:59.0000000+00:00</time></trkpt><trkpt lat="39.34390926" lon="-0.31069444"><ele>11.2</ele><time>2022-10-31T13:26:00.0000000+00:00</time></trkpt><trkpt lat="39.3438697" lon="-0.31071723"><ele>11.2</ele><time>2022-10-31T13:26:01.0000000+00:00</time></trkpt><trkpt lat="39.34383399" lon="-0.31074062"><ele>11.2</ele><time>2022-10-31T13:26:02.0000000+00:00</time></trkpt><trkpt lat="39.34379912" lon="-0.31076568"><ele>11.2</ele><time>2022-10-31T13:26:03.0000000+00:00</time></trkpt><trkpt lat="39.34376794" lon="-0.31078806"><ele>11.2</ele><time>2022-10-31T13:26:04.0000000+00:00</time></trkpt><trkpt lat="39.34373567" lon="-0.31080717"><ele>11.2</ele><time>2022-10-31T13:26:05.0000000+00:00</time></trkpt><trkpt lat="39.3437029" lon="-0.3108236"><ele>11.2</ele><time>2022-10-31T13:26:06.0000000+00:00</time></trkpt><trkpt lat="39.3436687" lon="-0.31084078"><ele>11.2</ele><time>2022-10-31T13:26:07.0000000+00:00</time></trkpt><trkpt lat="39.34363609" lon="-0.31085528"><ele>11.2</ele><time>2022-10-31T13:26:08.0000000+00:00</time></trkpt><trkpt lat="39.34360265" lon="-0.31087305"><ele>11.4</ele><time>2022-10-31T13:26:09.0000000+00:00</time></trkpt><trkpt lat="39.34356837" lon="-0.31089275"><ele>11.4</ele><time>2022-10-31T13:26:10.0000000+00:00</time></trkpt><trkpt lat="39.34353224" lon="-0.31091287"><ele>11.4</ele><time>2022-10-31T13:26:11.0000000+00:00</time></trkpt><trkpt lat="39.3434941" lon="-0.31093173"><ele>11.6</ele><time>2022-10-31T13:26:12.0000000+00:00</time></trkpt><trkpt lat="39.34345538" lon="-0.31094749"><ele>11.6</ele><time>2022-10-31T13:26:13.0000000+00:00</time></trkpt><trkpt lat="39.34341548" lon="-0.31096542"><ele>11.6</ele><time>2022-10-31T13:26:14.0000000+00:00</time></trkpt><trkpt lat="39.34337164" lon="-0.31098034"><ele>11.6</ele><time>2022-10-31T13:26:15.0000000+00:00</time></trkpt><trkpt lat="39.34332479" lon="-0.31099836"><ele>11.6</ele><time>2022-10-31T13:26:16.0000000+00:00</time></trkpt><trkpt lat="39.34328162" lon="-0.3110153"><ele>11.6</ele><time>2022-10-31T13:26:17.0000000+00:00</time></trkpt><trkpt lat="39.34323535" lon="-0.3110313"><ele>11.6</ele><time>2022-10-31T13:26:18.0000000+00:00</time></trkpt><trkpt lat="39.34318967" lon="-0.31104857"><ele>11.6</ele><time>2022-10-31T13:26:19.0000000+00:00</time></trkpt><trkpt lat="39.34314533" lon="-0.31106408"><ele>11.4</ele><time>2022-10-31T13:26:20.0000000+00:00</time></trkpt><trkpt lat="39.34310912" lon="-0.31107162"><ele>11.4</ele><time>2022-10-31T13:26:21.0000000+00:00</time></trkpt><trkpt lat="39.3430616" lon="-0.31107481"><ele>11.6</ele><time>2022-10-31T13:26:22.0000000+00:00</time></trkpt><trkpt lat="39.34300242" lon="-0.31107095"><ele>11.6</ele><time>2022-10-31T13:26:23.0000000+00:00</time></trkpt><trkpt lat="39.34296043" lon="-0.31106064"><ele>11.6</ele><time>2022-10-31T13:26:24.0000000+00:00</time></trkpt><trkpt lat="39.34290502" lon="-0.31104648"><ele>11.6</ele><time>2022-10-31T13:26:25.0000000+00:00</time></trkpt><trkpt lat="39.3428528" lon="-0.31103374"><ele>11.6</ele><time>2022-10-31T13:26:26.0000000+00:00</time></trkpt><trkpt lat="39.34280125" lon="-0.31102401"><ele>11.6</ele><time>2022-10-31T13:26:27.0000000+00:00</time></trkpt><trkpt lat="39.34274719" lon="-0.31101773"><ele>11.6</ele><time>2022-10-31T13:26:28.0000000+00:00</time></trkpt><trkpt lat="39.3426974" lon="-0.31101379"><ele>11.6</ele><time>2022-10-31T13:26:29.0000000+00:00</time></trkpt><trkpt lat="39.34264602" lon="-0.3110127"><ele>11.6</ele><time>2022-10-31T13:26:30.0000000+00:00</time></trkpt><trkpt lat="39.34259372" lon="-0.31101001"><ele>11.8</ele><time>2022-10-31T13:26:31.0000000+00:00</time></trkpt><trkpt lat="39.34253069" lon="-0.31100633"><ele>11.8</ele><time>2022-10-31T13:26:32.0000000+00:00</time></trkpt><trkpt lat="39.34249087" lon="-0.31100012"><ele>11.8</ele><time>2022-10-31T13:26:33.0000000+00:00</time></trkpt><trkpt lat="39.34244259" lon="-0.31098797"><ele>11.8</ele><time>2022-10-31T13:26:34.0000000+00:00</time></trkpt><trkpt lat="39.34239465" lon="-0.31097062"><ele>11.8</ele><time>2022-10-31T13:26:35.0000000+00:00</time></trkpt><trkpt lat="39.34234587" lon="-0.31094874"><ele>11.8</ele><time>2022-10-31T13:26:36.0000000+00:00</time></trkpt><trkpt lat="39.34229666" lon="-0.31092536"><ele>11.8</ele><time>2022-10-31T13:26:37.0000000+00:00</time></trkpt><trkpt lat="39.3422457" lon="-0.31090172"><ele>12.0</ele><time>2022-10-31T13:26:38.0000000+00:00</time></trkpt><trkpt lat="39.34219457" lon="-0.31087901"><ele>12.0</ele><time>2022-10-31T13:26:39.0000000+00:00</time></trkpt><trkpt lat="39.34214361" lon="-0.31085989"><ele>12.0</ele><time>2022-10-31T13:26:40.0000000+00:00</time></trkpt><trkpt lat="39.34209315" lon="-0.31084648"><ele>12.0</ele><time>2022-10-31T13:26:41.0000000+00:00</time></trkpt><trkpt lat="39.3420416" lon="-0.31083785"><ele>12.0</ele><time>2022-10-31T13:26:42.0000000+00:00</time></trkpt><trkpt lat="39.34198821" lon="-0.31083425"><ele>12.2</ele><time>2022-10-31T13:26:43.0000000+00:00</time></trkpt><trkpt lat="39.34193423" lon="-0.31083995"><ele>12.2</ele><time>2022-10-31T13:26:44.0000000+00:00</time></trkpt><trkpt lat="39.34186659" lon="-0.31085562"><ele>12.4</ele><time>2022-10-31T13:26:45.0000000+00:00</time></trkpt><trkpt lat="39.3418147" lon="-0.31087599"><ele>12.2</ele><time>2022-10-31T13:26:46.0000000+00:00</time></trkpt><trkpt lat="39.34176483" lon="-0.31090273"><ele>12.2</ele><time>2022-10-31T13:26:47.0000000+00:00</time></trkpt><trkpt lat="39.34171639" lon="-0.31093768"><ele>12.0</ele><time>2022-10-31T13:26:48.0000000+00:00</time></trkpt><trkpt lat="39.34168034" lon="-0.31097121"><ele>12.0</ele><time>2022-10-31T13:26:49.0000000+00:00</time></trkpt><trkpt lat="39.34163164" lon="-0.31102845"><ele>12.0</ele><time>2022-10-31T13:26:50.0000000+00:00</time></trkpt><trkpt lat="39.3415961" lon="-0.31107984"><ele>12.0</ele><time>2022-10-31T13:26:51.0000000+00:00</time></trkpt><trkpt lat="39.34156383" lon="-0.31113147"><ele>12.0</ele><time>2022-10-31T13:26:52.0000000+00:00</time></trkpt><trkpt lat="39.34153156" lon="-0.31118662"><ele>12.0</ele><time>2022-10-31T13:26:53.0000000+00:00</time></trkpt><trkpt lat="39.34150592" lon="-0.31124529"><ele>12.0</ele><time>2022-10-31T13:26:54.0000000+00:00</time></trkpt><trkpt lat="39.34148655" lon="-0.31131"><ele>12.0</ele><time>2022-10-31T13:26:55.0000000+00:00</time></trkpt><trkpt lat="39.34147113" lon="-0.31137303"><ele>11.8</ele><time>2022-10-31T13:26:56.0000000+00:00</time></trkpt><trkpt lat="39.3414547" lon="-0.31143347"><ele>11.8</ele><time>2022-10-31T13:26:57.0000000+00:00</time></trkpt><trkpt lat="39.34144422" lon="-0.31149373"><ele>11.8</ele><time>2022-10-31T13:26:58.0000000+00:00</time></trkpt><trkpt lat="39.34143517" lon="-0.31155425"><ele>11.8</ele><time>2022-10-31T13:26:59.0000000+00:00</time></trkpt><trkpt lat="39.34142704" lon="-0.31161645"><ele>11.8</ele><time>2022-10-31T13:27:00.0000000+00:00</time></trkpt><trkpt lat="39.34141791" lon="-0.31167981"><ele>11.8</ele><time>2022-10-31T13:27:01.0000000+00:00</time></trkpt><trkpt lat="39.34140785" lon="-0.3117436"><ele>11.8</ele><time>2022-10-31T13:27:02.0000000+00:00</time></trkpt><trkpt lat="39.34139494" lon="-0.31180705"><ele>12.0</ele><time>2022-10-31T13:27:03.0000000+00:00</time></trkpt><trkpt lat="39.34137574" lon="-0.31186732"><ele>12.0</ele><time>2022-10-31T13:27:04.0000000+00:00</time></trkpt><trkpt lat="39.34135278" lon="-0.31192624"><ele>12.0</ele><time>2022-10-31T13:27:05.0000000+00:00</time></trkpt><trkpt lat="39.34133459" lon="-0.31198885"><ele>12.0</ele><time>2022-10-31T13:27:06.0000000+00:00</time></trkpt><trkpt lat="39.34131648" lon="-0.31205465"><ele>12.2</ele><time>2022-10-31T13:27:07.0000000+00:00</time></trkpt><trkpt lat="39.34129779" lon="-0.31212045"><ele>12.2</ele><time>2022-10-31T13:27:08.0000000+00:00</time></trkpt><trkpt lat="39.34128841" lon="-0.31218784"><ele>12.2</ele><time>2022-10-31T13:27:09.0000000+00:00</time></trkpt><trkpt lat="39.34128053" lon="-0.31225272"><ele>12.2</ele><time>2022-10-31T13:27:10.0000000+00:00</time></trkpt><trkpt lat="39.34127466" lon="-0.31231793"><ele>12.2</ele><time>2022-10-31T13:27:11.0000000+00:00</time></trkpt><trkpt lat="39.34127022" lon="-0.31236822"><ele>12.4</ele><time>2022-10-31T13:27:12.0000000+00:00</time></trkpt><trkpt lat="39.34125806" lon="-0.31242706"><ele>12.4</ele><time>2022-10-31T13:27:13.0000000+00:00</time></trkpt><trkpt lat="39.34123878" lon="-0.31248154"><ele>12.4</ele><time>2022-10-31T13:27:14.0000000+00:00</time></trkpt><trkpt lat="39.34121322" lon="-0.31253167"><ele>12.2</ele><time>2022-10-31T13:27:15.0000000+00:00</time></trkpt><trkpt lat="39.34118707" lon="-0.31258481"><ele>12.2</ele><time>2022-10-31T13:27:16.0000000+00:00</time></trkpt><trkpt lat="39.34115404" lon="-0.31264968"><ele>12.2</ele><time>2022-10-31T13:27:17.0000000+00:00</time></trkpt><trkpt lat="39.34113384" lon="-0.31269268"><ele>12.2</ele><time>2022-10-31T13:27:18.0000000+00:00</time></trkpt><trkpt lat="39.341104" lon="-0.31275974"><ele>12.2</ele><time>2022-10-31T13:27:19.0000000+00:00</time></trkpt><trkpt lat="39.34108213" lon="-0.31281749"><ele>12.2</ele><time>2022-10-31T13:27:20.0000000+00:00</time></trkpt><trkpt lat="39.3410631" lon="-0.31287256"><ele>12.2</ele><time>2022-10-31T13:27:21.0000000+00:00</time></trkpt><trkpt lat="39.34104265" lon="-0.31292696"><ele>12.2</ele><time>2022-10-31T13:27:22.0000000+00:00</time></trkpt><trkpt lat="39.3410315" lon="-0.31297515"><ele>12.2</ele><time>2022-10-31T13:27:23.0000000+00:00</time></trkpt><trkpt lat="39.34102211" lon="-0.31302427"><ele>12.2</ele><time>2022-10-31T13:27:24.0000000+00:00</time></trkpt><trkpt lat="39.34101616" lon="-0.31306098"><ele>12.2</ele><time>2022-10-31T13:27:25.0000000+00:00</time></trkpt><trkpt lat="39.34101088" lon="-0.31311605"><ele>12.2</ele><time>2022-10-31T13:27:26.0000000+00:00</time></trkpt><trkpt lat="39.34100585" lon="-0.31316131"><ele>12.2</ele><time>2022-10-31T13:27:27.0000000+00:00</time></trkpt><trkpt lat="39.34099353" lon="-0.31320741"><ele>12.2</ele><time>2022-10-31T13:27:28.0000000+00:00</time></trkpt><trkpt lat="39.34097903" lon="-0.31324941"><ele>12.2</ele><time>2022-10-31T13:27:29.0000000+00:00</time></trkpt><trkpt lat="39.34096755" lon="-0.3132821"><ele>12.2</ele><time>2022-10-31T13:27:30.0000000+00:00</time></trkpt><trkpt lat="39.34095346" lon="-0.31333021"><ele>12.2</ele><time>2022-10-31T13:27:31.0000000+00:00</time></trkpt><trkpt lat="39.34094299" lon="-0.31337027"><ele>12.0</ele><time>2022-10-31T13:27:32.0000000+00:00</time></trkpt><trkpt lat="39.3409367" lon="-0.3133997"><ele>12.0</ele><time>2022-10-31T13:27:33.0000000+00:00</time></trkpt><trkpt lat="39.34092664" lon="-0.31344043"><ele>12.0</ele><time>2022-10-31T13:27:34.0000000+00:00</time></trkpt><trkpt lat="39.34090845" lon="-0.31348896"><ele>12.0</ele><time>2022-10-31T13:27:35.0000000+00:00</time></trkpt><trkpt lat="39.34089622" lon="-0.31352299"><ele>11.8</ele><time>2022-10-31T13:27:36.0000000+00:00</time></trkpt><trkpt lat="39.34087744" lon="-0.31356222"><ele>11.8</ele><time>2022-10-31T13:27:37.0000000+00:00</time></trkpt><trkpt lat="39.34086436" lon="-0.31361276"><ele>11.8</ele><time>2022-10-31T13:27:38.0000000+00:00</time></trkpt><trkpt lat="39.34086026" lon="-0.31364587"><ele>11.8</ele><time>2022-10-31T13:27:39.0000000+00:00</time></trkpt><trkpt lat="39.34085238" lon="-0.31368879"><ele>11.8</ele><time>2022-10-31T13:27:40.0000000+00:00</time></trkpt><trkpt lat="39.34084316" lon="-0.31373078"><ele>11.8</ele><time>2022-10-31T13:27:41.0000000+00:00</time></trkpt><trkpt lat="39.34083193" lon="-0.3137737"><ele>11.6</ele><time>2022-10-31T13:27:42.0000000+00:00</time></trkpt><trkpt lat="39.34081508" lon="-0.31381628"><ele>11.6</ele><time>2022-10-31T13:27:43.0000000+00:00</time></trkpt><trkpt lat="39.34080452" lon="-0.31385567"><ele>11.6</ele><time>2022-10-31T13:27:44.0000000+00:00</time></trkpt><trkpt lat="39.34079471" lon="-0.31389264"><ele>11.6</ele><time>2022-10-31T13:27:45.0000000+00:00</time></trkpt><trkpt lat="39.34078272" lon="-0.31393262"><ele>11.6</ele><time>2022-10-31T13:27:46.0000000+00:00</time></trkpt><trkpt lat="39.34076739" lon="-0.31398215"><ele>11.6</ele><time>2022-10-31T13:27:47.0000000+00:00</time></trkpt><trkpt lat="39.34075397" lon="-0.31401836"><ele>11.6</ele><time>2022-10-31T13:27:48.0000000+00:00</time></trkpt><trkpt lat="39.34073981" lon="-0.31405256"><ele>11.6</ele><time>2022-10-31T13:27:49.0000000+00:00</time></trkpt><trkpt lat="39.34073" lon="-0.31407896"><ele>11.6</ele><time>2022-10-31T13:27:50.0000000+00:00</time></trkpt><trkpt lat="39.34071994" lon="-0.31411115"><ele>11.6</ele><time>2022-10-31T13:27:51.0000000+00:00</time></trkpt><trkpt lat="39.34071098" lon="-0.31414082"><ele>11.6</ele><time>2022-10-31T13:27:52.0000000+00:00</time></trkpt><trkpt lat="39.34070117" lon="-0.31417192"><ele>11.8</ele><time>2022-10-31T13:27:53.0000000+00:00</time></trkpt><trkpt lat="39.34068231" lon="-0.31420092"><ele>11.8</ele><time>2022-10-31T13:27:54.0000000+00:00</time></trkpt><trkpt lat="39.34066806" lon="-0.31423495"><ele>11.6</ele><time>2022-10-31T13:27:55.0000000+00:00</time></trkpt><trkpt lat="39.34065566" lon="-0.31425758"><ele>11.6</ele><time>2022-10-31T13:27:56.0000000+00:00</time></trkpt><trkpt lat="39.34064593" lon="-0.31427938"><ele>11.8</ele><time>2022-10-31T13:27:57.0000000+00:00</time></trkpt><trkpt lat="39.3406352" lon="-0.31430888"><ele>11.8</ele><time>2022-10-31T13:27:58.0000000+00:00</time></trkpt><trkpt lat="39.34062841" lon="-0.31433134"><ele>11.6</ele><time>2022-10-31T13:27:59.0000000+00:00</time></trkpt><trkpt lat="39.34061877" lon="-0.31435263"><ele>11.6</ele><time>2022-10-31T13:28:00.0000000+00:00</time></trkpt><trkpt lat="39.34061299" lon="-0.3143668"><ele>11.6</ele><time>2022-10-31T13:28:01.0000000+00:00</time></trkpt><trkpt lat="39.34060545" lon="-0.31438725"><ele>11.6</ele><time>2022-10-31T13:28:02.0000000+00:00</time></trkpt><trkpt lat="39.34059883" lon="-0.31440686"><ele>11.8</ele><time>2022-10-31T13:28:03.0000000+00:00</time></trkpt><trkpt lat="39.34059011" lon="-0.31443285"><ele>11.8</ele><time>2022-10-31T13:28:04.0000000+00:00</time></trkpt><trkpt lat="39.34058533" lon="-0.31445917"><ele>11.8</ele><time>2022-10-31T13:28:05.0000000+00:00</time></trkpt><trkpt lat="39.34057293" lon="-0.31449379"><ele>11.8</ele><time>2022-10-31T13:28:06.0000000+00:00</time></trkpt><trkpt lat="39.34055356" lon="-0.31452103"><ele>11.8</ele><time>2022-10-31T13:28:07.0000000+00:00</time></trkpt><trkpt lat="39.34054116" lon="-0.31454919"><ele>11.8</ele><time>2022-10-31T13:28:08.0000000+00:00</time></trkpt><trkpt lat="39.34053035" lon="-0.31457995"><ele>12.0</ele><time>2022-10-31T13:28:09.0000000+00:00</time></trkpt><trkpt lat="39.34052163" lon="-0.31461272"><ele>12.0</ele><time>2022-10-31T13:28:10.0000000+00:00</time></trkpt><trkpt lat="39.34051132" lon="-0.31464625"><ele>12.0</ele><time>2022-10-31T13:28:11.0000000+00:00</time></trkpt><trkpt lat="39.34049883" lon="-0.31468472"><ele>12.0</ele><time>2022-10-31T13:28:12.0000000+00:00</time></trkpt><trkpt lat="39.34048374" lon="-0.31472731"><ele>12.0</ele><time>2022-10-31T13:28:13.0000000+00:00</time></trkpt><trkpt lat="39.34046974" lon="-0.31477232"><ele>12.0</ele><time>2022-10-31T13:28:14.0000000+00:00</time></trkpt><trkpt lat="39.34045784" lon="-0.31482236"><ele>12.2</ele><time>2022-10-31T13:28:15.0000000+00:00</time></trkpt><trkpt lat="39.34044468" lon="-0.3148724"><ele>12.2</ele><time>2022-10-31T13:28:16.0000000+00:00</time></trkpt><trkpt lat="39.34042926" lon="-0.31491883"><ele>12.2</ele><time>2022-10-31T13:28:17.0000000+00:00</time></trkpt><trkpt lat="39.34041568" lon="-0.31496518"><ele>12.2</ele><time>2022-10-31T13:28:18.0000000+00:00</time></trkpt><trkpt lat="39.34041409" lon="-0.31501112"><ele>12.2</ele><time>2022-10-31T13:28:19.0000000+00:00</time></trkpt><trkpt lat="39.34040059" lon="-0.31505596"><ele>12.2</ele><time>2022-10-31T13:28:20.0000000+00:00</time></trkpt><trkpt lat="39.34038039" lon="-0.31510147"><ele>12.2</ele><time>2022-10-31T13:28:21.0000000+00:00</time></trkpt><trkpt lat="39.3403617" lon="-0.31514959"><ele>12.2</ele><time>2022-10-31T13:28:22.0000000+00:00</time></trkpt><trkpt lat="39.34033865" lon="-0.31521027"><ele>12.4</ele><time>2022-10-31T13:28:23.0000000+00:00</time></trkpt><trkpt lat="39.34031711" lon="-0.31526266"><ele>12.4</ele><time>2022-10-31T13:28:24.0000000+00:00</time></trkpt><trkpt lat="39.34030311" lon="-0.31530348"><ele>12.4</ele><time>2022-10-31T13:28:25.0000000+00:00</time></trkpt><trkpt lat="39.34028895" lon="-0.31535125"><ele>12.4</ele><time>2022-10-31T13:28:26.0000000+00:00</time></trkpt><trkpt lat="39.34027528" lon="-0.31539333"><ele>12.4</ele><time>2022-10-31T13:28:27.0000000+00:00</time></trkpt><trkpt lat="39.34026036" lon="-0.31543683"><ele>12.6</ele><time>2022-10-31T13:28:28.0000000+00:00</time></trkpt><trkpt lat="39.34024394" lon="-0.31548528"><ele>12.6</ele><time>2022-10-31T13:28:29.0000000+00:00</time></trkpt><trkpt lat="39.34023639" lon="-0.31551856"><ele>12.6</ele><time>2022-10-31T13:28:30.0000000+00:00</time></trkpt><trkpt lat="39.3402234" lon="-0.31556348"><ele>12.6</ele><time>2022-10-31T13:28:31.0000000+00:00</time></trkpt><trkpt lat="39.34021426" lon="-0.31559399"><ele>12.6</ele><time>2022-10-31T13:28:32.0000000+00:00</time></trkpt><trkpt lat="39.34020521" lon="-0.31563272"><ele>12.6</ele><time>2022-10-31T13:28:33.0000000+00:00</time></trkpt><trkpt lat="39.34019951" lon="-0.31567111"><ele>12.6</ele><time>2022-10-31T13:28:34.0000000+00:00</time></trkpt><trkpt lat="39.34018602" lon="-0.31571293"><ele>12.6</ele><time>2022-10-31T13:28:35.0000000+00:00</time></trkpt><trkpt lat="39.34016791" lon="-0.31576264"><ele>12.6</ele><time>2022-10-31T13:28:36.0000000+00:00</time></trkpt><trkpt lat="39.3401602" lon="-0.31579575"><ele>12.6</ele><time>2022-10-31T13:28:37.0000000+00:00</time></trkpt><trkpt lat="39.34014553" lon="-0.3158369"><ele>12.6</ele><time>2022-10-31T13:28:38.0000000+00:00</time></trkpt><trkpt lat="39.34012667" lon="-0.31589222"><ele>12.6</ele><time>2022-10-31T13:28:39.0000000+00:00</time></trkpt><trkpt lat="39.34011175" lon="-0.31592885"><ele>12.6</ele><time>2022-10-31T13:28:40.0000000+00:00</time></trkpt><trkpt lat="39.34009063" lon="-0.3159742"><ele>12.6</ele><time>2022-10-31T13:28:41.0000000+00:00</time></trkpt><trkpt lat="39.34007948" lon="-0.31599968"><ele>12.6</ele><time>2022-10-31T13:28:42.0000000+00:00</time></trkpt><trkpt lat="39.34006632" lon="-0.31602759"><ele>12.6</ele><time>2022-10-31T13:28:43.0000000+00:00</time></trkpt><trkpt lat="39.34005115" lon="-0.31605139"><ele>12.6</ele><time>2022-10-31T13:28:44.0000000+00:00</time></trkpt><trkpt lat="39.34003506" lon="-0.31607428"><ele>12.6</ele><time>2022-10-31T13:28:45.0000000+00:00</time></trkpt><trkpt lat="39.34001628" lon="-0.3160985"><ele>12.6</ele><time>2022-10-31T13:28:46.0000000+00:00</time></trkpt><trkpt lat="39.34000203" lon="-0.31612407"><ele>12.6</ele><time>2022-10-31T13:28:47.0000000+00:00</time></trkpt><trkpt lat="39.33999147" lon="-0.31615173"><ele>12.6</ele><time>2022-10-31T13:28:48.0000000+00:00</time></trkpt><trkpt lat="39.33997789" lon="-0.31619112"><ele>12.6</ele><time>2022-10-31T13:28:49.0000000+00:00</time></trkpt><trkpt lat="39.33997236" lon="-0.31622197"><ele>12.4</ele><time>2022-10-31T13:28:50.0000000+00:00</time></trkpt><trkpt lat="39.33996826" lon="-0.31625709"><ele>12.4</ele><time>2022-10-31T13:28:51.0000000+00:00</time></trkpt><trkpt lat="39.33995845" lon="-0.31629472"><ele>12.2</ele><time>2022-10-31T13:28:52.0000000+00:00</time></trkpt><trkpt lat="39.33995384" lon="-0.31632573"><ele>12.2</ele><time>2022-10-31T13:28:53.0000000+00:00</time></trkpt><trkpt lat="39.33994898" lon="-0.31637519"><ele>12.0</ele><time>2022-10-31T13:28:54.0000000+00:00</time></trkpt><trkpt lat="39.33994864" lon="-0.31640905"><ele>12.0</ele><time>2022-10-31T13:28:55.0000000+00:00</time></trkpt><trkpt lat="39.33994445" lon="-0.31644819"><ele>12.0</ele><time>2022-10-31T13:28:56.0000000+00:00</time></trkpt><trkpt lat="39.33992559" lon="-0.31650284"><ele>12.0</ele><time>2022-10-31T13:28:57.0000000+00:00</time></trkpt><trkpt lat="39.33991042" lon="-0.31653679"><ele>12.0</ele><time>2022-10-31T13:28:58.0000000+00:00</time></trkpt><trkpt lat="39.33990388" lon="-0.31655406"><ele>12.2</ele><time>2022-10-31T13:28:59.0000000+00:00</time></trkpt><trkpt lat="39.33989215" lon="-0.31657786"><ele>12.2</ele><time>2022-10-31T13:29:00.0000000+00:00</time></trkpt><trkpt lat="39.33988092" lon="-0.31660317"><ele>12.0</ele><time>2022-10-31T13:29:01.0000000+00:00</time></trkpt><trkpt lat="39.33987153" lon="-0.3166326"><ele>12.0</ele><time>2022-10-31T13:29:02.0000000+00:00</time></trkpt><trkpt lat="39.33986189" lon="-0.31666545"><ele>12.0</ele><time>2022-10-31T13:29:03.0000000+00:00</time></trkpt><trkpt lat="39.33985418" lon="-0.3166999"><ele>12.0</ele><time>2022-10-31T13:29:04.0000000+00:00</time></trkpt><trkpt lat="39.3398489" lon="-0.31673217"><ele>12.0</ele><time>2022-10-31T13:29:05.0000000+00:00</time></trkpt><trkpt lat="39.33983976" lon="-0.31676302"><ele>12.0</ele><time>2022-10-31T13:29:06.0000000+00:00</time></trkpt><trkpt lat="39.33982903" lon="-0.31679311"><ele>12.0</ele><time>2022-10-31T13:29:07.0000000+00:00</time></trkpt><trkpt lat="39.33982107" lon="-0.31681884"><ele>12.0</ele><time>2022-10-31T13:29:08.0000000+00:00</time></trkpt><trkpt lat="39.33981076" lon="-0.31684466"><ele>12.0</ele><time>2022-10-31T13:29:09.0000000+00:00</time></trkpt><trkpt lat="39.33980162" lon="-0.31686762"><ele>12.0</ele><time>2022-10-31T13:29:10.0000000+00:00</time></trkpt><trkpt lat="39.33979257" lon="-0.31689839"><ele>12.0</ele><time>2022-10-31T13:29:11.0000000+00:00</time></trkpt><trkpt lat="39.33978385" lon="-0.3169294"><ele>12.0</ele><time>2022-10-31T13:29:12.0000000+00:00</time></trkpt><trkpt lat="39.33977321" lon="-0.31695999"><ele>12.0</ele><time>2022-10-31T13:29:13.0000000+00:00</time></trkpt><trkpt lat="39.33975728" lon="-0.31699788"><ele>12.0</ele><time>2022-10-31T13:29:14.0000000+00:00</time></trkpt><trkpt lat="39.33975108" lon="-0.31702311"><ele>12.0</ele><time>2022-10-31T13:29:15.0000000+00:00</time></trkpt><trkpt lat="39.33974932" lon="-0.31705731"><ele>12.0</ele><time>2022-10-31T13:29:16.0000000+00:00</time></trkpt><trkpt lat="39.33974513" lon="-0.31709586"><ele>12.0</ele><time>2022-10-31T13:29:17.0000000+00:00</time></trkpt><trkpt lat="39.3397406" lon="-0.31713258"><ele>12.0</ele><time>2022-10-31T13:29:18.0000000+00:00</time></trkpt><trkpt lat="39.3397313" lon="-0.31717264"><ele>12.0</ele><time>2022-10-31T13:29:19.0000000+00:00</time></trkpt><trkpt lat="39.3397292" lon="-0.31718941"><ele>12.0</ele><time>2022-10-31T13:29:20.0000000+00:00</time></trkpt><trkpt lat="39.33972334" lon="-0.31720919"><ele>11.8</ele><time>2022-10-31T13:29:21.0000000+00:00</time></trkpt><trkpt lat="39.33971303" lon="-0.31722687"><ele>11.8</ele><time>2022-10-31T13:29:22.0000000+00:00</time></trkpt><trkpt lat="39.33970146" lon="-0.31724162"><ele>11.8</ele><time>2022-10-31T13:29:23.0000000+00:00</time></trkpt><trkpt lat="39.33968964" lon="-0.31726618"><ele>11.8</ele><time>2022-10-31T13:29:24.0000000+00:00</time></trkpt><trkpt lat="39.33968428" lon="-0.31728655"><ele>11.8</ele><time>2022-10-31T13:29:25.0000000+00:00</time></trkpt><trkpt lat="39.33968067" lon="-0.31731664"><ele>11.8</ele><time>2022-10-31T13:29:26.0000000+00:00</time></trkpt><trkpt lat="39.33967187" lon="-0.31735118"><ele>11.8</ele><time>2022-10-31T13:29:27.0000000+00:00</time></trkpt><trkpt lat="39.33966776" lon="-0.31737364"><ele>11.8</ele><time>2022-10-31T13:29:28.0000000+00:00</time></trkpt><trkpt lat="39.33966324" lon="-0.31740826"><ele>11.8</ele><time>2022-10-31T13:29:29.0000000+00:00</time></trkpt><trkpt lat="39.33966282" lon="-0.31744924"><ele>11.8</ele><time>2022-10-31T13:29:30.0000000+00:00</time></trkpt><trkpt lat="39.3396629" lon="-0.31748646"><ele>12.0</ele><time>2022-10-31T13:29:31.0000000+00:00</time></trkpt><trkpt lat="39.33966911" lon="-0.3175194"><ele>12.0</ele><time>2022-10-31T13:29:32.0000000+00:00</time></trkpt><trkpt lat="39.33968511" lon="-0.31755938"><ele>12.0</ele><time>2022-10-31T13:29:33.0000000+00:00</time></trkpt><trkpt lat="39.33969609" lon="-0.31758889"><ele>12.0</ele><time>2022-10-31T13:29:34.0000000+00:00</time></trkpt><trkpt lat="39.33970967" lon="-0.31763231"><ele>12.0</ele><time>2022-10-31T13:29:35.0000000+00:00</time></trkpt><trkpt lat="39.33971915" lon="-0.31766173"><ele>12.2</ele><time>2022-10-31T13:29:36.0000000+00:00</time></trkpt><trkpt lat="39.33972518" lon="-0.31768788"><ele>12.2</ele><time>2022-10-31T13:29:37.0000000+00:00</time></trkpt><trkpt lat="39.33972132" lon="-0.31771445"><ele>12.4</ele><time>2022-10-31T13:29:38.0000000+00:00</time></trkpt><trkpt lat="39.33971487" lon="-0.31773415"><ele>12.4</ele><time>2022-10-31T13:29:39.0000000+00:00</time></trkpt><trkpt lat="39.33970515" lon="-0.31775845"><ele>12.6</ele><time>2022-10-31T13:29:40.0000000+00:00</time></trkpt><trkpt lat="39.3396945" lon="-0.31778988"><ele>12.8</ele><time>2022-10-31T13:29:41.0000000+00:00</time></trkpt><trkpt lat="39.33968813" lon="-0.31780925"><ele>12.8</ele><time>2022-10-31T13:29:42.0000000+00:00</time></trkpt><trkpt lat="39.33968193" lon="-0.31783464"><ele>12.8</ele><time>2022-10-31T13:29:43.0000000+00:00</time></trkpt><trkpt lat="39.33967891" lon="-0.31786767"><ele>12.8</ele><time>2022-10-31T13:29:44.0000000+00:00</time></trkpt><trkpt lat="39.33968671" lon="-0.31789064"><ele>12.8</ele><time>2022-10-31T13:29:45.0000000+00:00</time></trkpt><trkpt lat="39.3396945" lon="-0.31791452"><ele>13.0</ele><time>2022-10-31T13:29:46.0000000+00:00</time></trkpt><trkpt lat="39.33969987" lon="-0.31794428"><ele>13.0</ele><time>2022-10-31T13:29:47.0000000+00:00</time></trkpt><trkpt lat="39.33970138" lon="-0.31797638"><ele>13.0</ele><time>2022-10-31T13:29:48.0000000+00:00</time></trkpt><trkpt lat="39.33969693" lon="-0.31801175"><ele>12.8</ele><time>2022-10-31T13:29:49.0000000+00:00</time></trkpt><trkpt lat="39.33968495" lon="-0.31805006"><ele>12.8</ele><time>2022-10-31T13:29:50.0000000+00:00</time></trkpt><trkpt lat="39.33967715" lon="-0.31808057"><ele>12.8</ele><time>2022-10-31T13:29:51.0000000+00:00</time></trkpt><trkpt lat="39.33967447" lon="-0.3181167"><ele>12.6</ele><time>2022-10-31T13:29:52.0000000+00:00</time></trkpt><trkpt lat="39.33967799" lon="-0.31814151"><ele>12.6</ele><time>2022-10-31T13:29:53.0000000+00:00</time></trkpt><trkpt lat="39.33968386" lon="-0.31816112"><ele>12.6</ele><time>2022-10-31T13:29:54.0000000+00:00</time></trkpt><trkpt lat="39.33968947" lon="-0.31817554"><ele>12.6</ele><time>2022-10-31T13:29:55.0000000+00:00</time></trkpt><trkpt lat="39.3396935" lon="-0.31818576"><ele>12.6</ele><time>2022-10-31T13:29:56.0000000+00:00</time></trkpt><trkpt lat="39.33969693" lon="-0.31819632"><ele>12.8</ele><time>2022-10-31T13:29:57.0000000+00:00</time></trkpt><trkpt lat="39.33968713" lon="-0.31821443"><ele>12.8</ele><time>2022-10-31T13:29:58.0000000+00:00</time></trkpt><trkpt lat="39.33968025" lon="-0.31823538"><ele>13.0</ele><time>2022-10-31T13:29:59.0000000+00:00</time></trkpt><trkpt lat="39.33967757" lon="-0.31826137"><ele>13.0</ele><time>2022-10-31T13:30:00.0000000+00:00</time></trkpt><trkpt lat="39.33968034" lon="-0.31828425"><ele>13.2</ele><time>2022-10-31T13:30:01.0000000+00:00</time></trkpt><trkpt lat="39.33968511" lon="-0.3183078"><ele>13.4</ele><time>2022-10-31T13:30:02.0000000+00:00</time></trkpt><trkpt lat="39.33969333" lon="-0.31832423"><ele>13.4</ele><time>2022-10-31T13:30:03.0000000+00:00</time></trkpt><trkpt lat="39.33970498" lon="-0.31834502"><ele>13.4</ele><time>2022-10-31T13:30:04.0000000+00:00</time></trkpt><trkpt lat="39.33971512" lon="-0.31836798"><ele>13.4</ele><time>2022-10-31T13:30:05.0000000+00:00</time></trkpt><trkpt lat="39.33972174" lon="-0.31838852"><ele>13.2</ele><time>2022-10-31T13:30:06.0000000+00:00</time></trkpt><trkpt lat="39.33972007" lon="-0.31840822"><ele>13.0</ele><time>2022-10-31T13:30:07.0000000+00:00</time></trkpt><trkpt lat="39.3397178" lon="-0.31843588"><ele>12.8</ele><time>2022-10-31T13:30:08.0000000+00:00</time></trkpt><trkpt lat="39.3397204" lon="-0.31845826"><ele>12.6</ele><time>2022-10-31T13:30:09.0000000+00:00</time></trkpt><trkpt lat="39.33971705" lon="-0.3184891"><ele>12.6</ele><time>2022-10-31T13:30:10.0000000+00:00</time></trkpt><trkpt lat="39.33971135" lon="-0.31850461"><ele>12.6</ele><time>2022-10-31T13:30:11.0000000+00:00</time></trkpt><trkpt lat="39.33971085" lon="-0.31851148"><ele>12.4</ele><time>2022-10-31T13:30:12.0000000+00:00</time></trkpt><trkpt lat="39.33971085" lon="-0.31851148"><ele>12.2</ele><time>2022-10-31T13:30:13.0000000+00:00</time></trkpt><trkpt lat="39.33971085" lon="-0.31851148"><ele>12.2</ele><time>2022-10-31T13:30:14.0000000+00:00</time></trkpt><trkpt lat="39.33971001" lon="-0.3185145"><ele>12.2</ele><time>2022-10-31T13:30:15.0000000+00:00</time></trkpt><trkpt lat="39.33970163" lon="-0.31853076"><ele>12.2</ele><time>2022-10-31T13:30:16.0000000+00:00</time></trkpt><trkpt lat="39.33969467" lon="-0.3185487"><ele>12.2</ele><time>2022-10-31T13:30:17.0000000+00:00</time></trkpt><trkpt lat="39.33969693" lon="-0.31856571"><ele>12.2</ele><time>2022-10-31T13:30:18.0000000+00:00</time></trkpt><trkpt lat="39.33970481" lon="-0.31857661"><ele>12.2</ele><time>2022-10-31T13:30:19.0000000+00:00</time></trkpt><trkpt lat="39.33971311" lon="-0.3185808"><ele>12.2</ele><time>2022-10-31T13:30:20.0000000+00:00</time></trkpt><trkpt lat="39.33972191" lon="-0.31858147"><ele>12.2</ele><time>2022-10-31T13:30:21.0000000+00:00</time></trkpt><trkpt lat="39.33972661" lon="-0.31858072"><ele>12.2</ele><time>2022-10-31T13:30:22.0000000+00:00</time></trkpt><trkpt lat="39.33972929" lon="-0.31857845"><ele>12.2</ele><time>2022-10-31T13:30:23.0000000+00:00</time></trkpt><trkpt lat="39.33972929" lon="-0.31857845"><ele>12.2</ele><time>2022-10-31T13:30:24.0000000+00:00</time></trkpt><trkpt lat="39.33972929" lon="-0.31857845"><ele>12.0</ele><time>2022-10-31T13:30:25.0000000+00:00</time></trkpt><trkpt lat="39.33972929" lon="-0.31857845"><ele>12.0</ele><time>2022-10-31T13:30:26.0000000+00:00</time></trkpt><trkpt lat="39.33972929" lon="-0.31857845"><ele>12.0</ele><time>2022-10-31T13:30:27.0000000+00:00</time></trkpt><trkpt lat="39.33972929" lon="-0.31857845"><ele>12.0</ele><time>2022-10-31T13:30:28.0000000+00:00</time></trkpt><trkpt lat="39.33972929" lon="-0.31857845"><ele>12.0</ele><time>2022-10-31T13:30:29.0000000+00:00</time></trkpt><trkpt lat="39.33972929" lon="-0.31857845"><ele>12.0</ele><time>2022-10-31T13:30:30.0000000+00:00</time></trkpt><trkpt lat="39.33971847" lon="-0.31858449"><ele>12.0</ele><time>2022-10-31T13:30:31.0000000+00:00</time></trkpt><trkpt lat="39.33971655" lon="-0.31858943"><ele>12.0</ele><time>2022-10-31T13:30:32.0000000+00:00</time></trkpt><trkpt lat="39.33971655" lon="-0.31858943"><ele>12.0</ele><time>2022-10-31T13:30:33.0000000+00:00</time></trkpt><trkpt lat="39.33971655" lon="-0.31858943"><ele>12.0</ele><time>2022-10-31T13:30:34.0000000+00:00</time></trkpt><trkpt lat="39.33971655" lon="-0.31858943"><ele>11.8</ele><time>2022-10-31T13:30:35.0000000+00:00</time></trkpt><trkpt lat="39.33972116" lon="-0.31859614"><ele>11.8</ele><time>2022-10-31T13:30:36.0000000+00:00</time></trkpt><trkpt lat="39.33973122" lon="-0.3186015"><ele>11.8</ele><time>2022-10-31T13:30:37.0000000+00:00</time></trkpt><trkpt lat="39.33974354" lon="-0.3186005"><ele>11.8</ele><time>2022-10-31T13:30:38.0000000+00:00</time></trkpt><trkpt lat="39.33975812" lon="-0.31860796"><ele>12.0</ele><time>2022-10-31T13:30:39.0000000+00:00</time></trkpt><trkpt lat="39.33977245" lon="-0.31861676"><ele>12.0</ele><time>2022-10-31T13:30:40.0000000+00:00</time></trkpt><trkpt lat="39.3397841" lon="-0.31862212"><ele>12.0</ele><time>2022-10-31T13:30:41.0000000+00:00</time></trkpt><trkpt lat="39.33979835" lon="-0.3186207"><ele>12.0</ele><time>2022-10-31T13:30:42.0000000+00:00</time></trkpt><trkpt lat="39.3398095" lon="-0.31862523"><ele>12.2</ele><time>2022-10-31T13:30:43.0000000+00:00</time></trkpt><trkpt lat="39.33982216" lon="-0.31863377"><ele>12.2</ele><time>2022-10-31T13:30:44.0000000+00:00</time></trkpt><trkpt lat="39.33983104" lon="-0.31863906"><ele>12.2</ele><time>2022-10-31T13:30:45.0000000+00:00</time></trkpt><trkpt lat="39.33984026" lon="-0.31864568"><ele>12.0</ele><time>2022-10-31T13:30:46.0000000+00:00</time></trkpt><trkpt lat="39.3398489" lon="-0.31865188"><ele>12.0</ele><time>2022-10-31T13:30:47.0000000+00:00</time></trkpt><trkpt lat="39.33985485" lon="-0.31865632"><ele>12.0</ele><time>2022-10-31T13:30:48.0000000+00:00</time></trkpt><trkpt lat="39.33985711" lon="-0.31865833"><ele>12.0</ele><time>2022-10-31T13:30:49.0000000+00:00</time></trkpt><trkpt lat="39.33985711" lon="-0.31865833"><ele>12.0</ele><time>2022-10-31T13:30:50.0000000+00:00</time></trkpt><trkpt lat="39.33985711" lon="-0.31865833"><ele>12.0</ele><time>2022-10-31T13:30:51.0000000+00:00</time></trkpt><trkpt lat="39.33985711" lon="-0.31865833"><ele>12.0</ele><time>2022-10-31T13:30:52.0000000+00:00</time></trkpt><trkpt lat="39.33985711" lon="-0.31865833"><ele>12.0</ele><time>2022-10-31T13:30:53.0000000+00:00</time></trkpt><trkpt lat="39.33985711" lon="-0.31865833"><ele>12.0</ele><time>2022-10-31T13:30:54.0000000+00:00</time></trkpt><trkpt lat="39.33985711" lon="-0.31865833"><ele>12.0</ele><time>2022-10-31T13:30:55.0000000+00:00</time></trkpt><trkpt lat="39.33985711" lon="-0.31865833"><ele>12.0</ele><time>2022-10-31T13:30:56.0000000+00:00</time></trkpt><trkpt lat="39.33985711" lon="-0.31865833"><ele>12.0</ele><time>2022-10-31T13:30:57.0000000+00:00</time></trkpt><trkpt lat="39.33986097" lon="-0.31865523"><ele>12.0</ele><time>2022-10-31T13:30:58.0000000+00:00</time></trkpt><trkpt lat="39.33986784" lon="-0.31865364"><ele>12.0</ele><time>2022-10-31T13:30:59.0000000+00:00</time></trkpt><trkpt lat="39.3398779" lon="-0.31865699"><ele>12.0</ele><time>2022-10-31T13:31:00.0000000+00:00</time></trkpt><trkpt lat="39.33989173" lon="-0.31866286"><ele>12.0</ele><time>2022-10-31T13:31:01.0000000+00:00</time></trkpt><trkpt lat="39.33990439" lon="-0.31867015"><ele>12.0</ele><time>2022-10-31T13:31:02.0000000+00:00</time></trkpt><trkpt lat="39.33992065" lon="-0.31867485"><ele>12.0</ele><time>2022-10-31T13:31:03.0000000+00:00</time></trkpt><trkpt lat="39.33993883" lon="-0.3186818"><ele>11.8</ele><time>2022-10-31T13:31:04.0000000+00:00</time></trkpt><trkpt lat="39.33995266" lon="-0.31869127"><ele>11.8</ele><time>2022-10-31T13:31:05.0000000+00:00</time></trkpt><trkpt lat="39.33996373" lon="-0.31869873"><ele>11.8</ele><time>2022-10-31T13:31:06.0000000+00:00</time></trkpt><trkpt lat="39.33997538" lon="-0.31870678"><ele>12.0</ele><time>2022-10-31T13:31:07.0000000+00:00</time></trkpt><trkpt lat="39.33998753" lon="-0.31871491"><ele>12.0</ele><time>2022-10-31T13:31:08.0000000+00:00</time></trkpt><trkpt lat="39.33999994" lon="-0.31871592"><ele>12.0</ele><time>2022-10-31T13:31:09.0000000+00:00</time></trkpt><trkpt lat="39.34001301" lon="-0.31872061"><ele>12.0</ele><time>2022-10-31T13:31:10.0000000+00:00</time></trkpt><trkpt lat="39.34002659" lon="-0.31872891"><ele>12.0</ele><time>2022-10-31T13:31:11.0000000+00:00</time></trkpt><trkpt lat="39.3400385" lon="-0.31872941"><ele>12.0</ele><time>2022-10-31T13:31:12.0000000+00:00</time></trkpt><trkpt lat="39.34005308" lon="-0.31874022"><ele>12.0</ele><time>2022-10-31T13:31:13.0000000+00:00</time></trkpt><trkpt lat="39.34006297" lon="-0.31875531"><ele>12.0</ele><time>2022-10-31T13:31:14.0000000+00:00</time></trkpt><trkpt lat="39.34007177" lon="-0.31876587"><ele>12.0</ele><time>2022-10-31T13:31:15.0000000+00:00</time></trkpt><trkpt lat="39.34007965" lon="-0.31877358"><ele>12.0</ele><time>2022-10-31T13:31:16.0000000+00:00</time></trkpt><trkpt lat="39.34009013" lon="-0.31878247"><ele>12.0</ele><time>2022-10-31T13:31:17.0000000+00:00</time></trkpt><trkpt lat="39.34010044" lon="-0.31879085"><ele>12.0</ele><time>2022-10-31T13:31:18.0000000+00:00</time></trkpt><trkpt lat="39.34011125" lon="-0.31879814"><ele>12.0</ele><time>2022-10-31T13:31:19.0000000+00:00</time></trkpt><trkpt lat="39.34011955" lon="-0.31880309"><ele>12.0</ele><time>2022-10-31T13:31:20.0000000+00:00</time></trkpt><trkpt lat="39.34012508" lon="-0.31880854"><ele>12.0</ele><time>2022-10-31T13:31:21.0000000+00:00</time></trkpt><trkpt lat="39.34013438" lon="-0.31881491"><ele>12.0</ele><time>2022-10-31T13:31:22.0000000+00:00</time></trkpt><trkpt lat="39.34014419" lon="-0.31882002"><ele>12.0</ele><time>2022-10-31T13:31:23.0000000+00:00</time></trkpt><trkpt lat="39.34015534" lon="-0.31882421"><ele>11.8</ele><time>2022-10-31T13:31:24.0000000+00:00</time></trkpt><trkpt lat="39.34016657" lon="-0.31882924"><ele>11.8</ele><time>2022-10-31T13:31:25.0000000+00:00</time></trkpt><trkpt lat="39.34018007" lon="-0.31883578"><ele>11.8</ele><time>2022-10-31T13:31:26.0000000+00:00</time></trkpt><trkpt lat="39.3401923" lon="-0.31884642"><ele>11.8</ele><time>2022-10-31T13:31:27.0000000+00:00</time></trkpt><trkpt lat="39.34020043" lon="-0.31885615"><ele>11.8</ele><time>2022-10-31T13:31:28.0000000+00:00</time></trkpt><trkpt lat="39.34021167" lon="-0.31886654"><ele>11.8</ele><time>2022-10-31T13:31:29.0000000+00:00</time></trkpt><trkpt lat="39.34022256" lon="-0.31887308"><ele>11.8</ele><time>2022-10-31T13:31:30.0000000+00:00</time></trkpt><trkpt lat="39.34022977" lon="-0.31887861"><ele>11.8</ele><time>2022-10-31T13:31:31.0000000+00:00</time></trkpt><trkpt lat="39.34024008" lon="-0.31888029"><ele>11.8</ele><time>2022-10-31T13:31:32.0000000+00:00</time></trkpt><trkpt lat="39.34025358" lon="-0.31888347"><ele>11.8</ele><time>2022-10-31T13:31:33.0000000+00:00</time></trkpt><trkpt lat="39.34026229" lon="-0.31889244"><ele>11.8</ele><time>2022-10-31T13:31:34.0000000+00:00</time></trkpt><trkpt lat="39.34026891" lon="-0.31890359"><ele>11.8</ele><time>2022-10-31T13:31:35.0000000+00:00</time></trkpt><trkpt lat="39.34027017" lon="-0.31891717"><ele>11.8</ele><time>2022-10-31T13:31:36.0000000+00:00</time></trkpt><trkpt lat="39.34026774" lon="-0.31893586"><ele>11.6</ele><time>2022-10-31T13:31:37.0000000+00:00</time></trkpt><trkpt lat="39.34025768" lon="-0.31895748"><ele>11.6</ele><time>2022-10-31T13:31:38.0000000+00:00</time></trkpt><trkpt lat="39.34024964" lon="-0.3189802"><ele>11.6</ele><time>2022-10-31T13:31:39.0000000+00:00</time></trkpt><trkpt lat="39.34023949" lon="-0.31900157"><ele>11.4</ele><time>2022-10-31T13:31:40.0000000+00:00</time></trkpt><trkpt lat="39.3402291" lon="-0.31901716"><ele>11.4</ele><time>2022-10-31T13:31:41.0000000+00:00</time></trkpt><trkpt lat="39.34021913" lon="-0.31903527"><ele>11.4</ele><time>2022-10-31T13:31:42.0000000+00:00</time></trkpt><trkpt lat="39.34021007" lon="-0.31904424"><ele>11.4</ele><time>2022-10-31T13:31:43.0000000+00:00</time></trkpt><trkpt lat="39.34020236" lon="-0.31905036"><ele>11.4</ele><time>2022-10-31T13:31:44.0000000+00:00</time></trkpt><trkpt lat="39.34019842" lon="-0.31905287"><ele>11.4</ele><time>2022-10-31T13:31:45.0000000+00:00</time></trkpt><trkpt lat="39.34019842" lon="-0.31905287"><ele>11.6</ele><time>2022-10-31T13:31:46.0000000+00:00</time></trkpt><trkpt lat="39.34019842" lon="-0.31905287"><ele>11.6</ele><time>2022-10-31T13:31:47.0000000+00:00</time></trkpt><trkpt lat="39.34019842" lon="-0.31905287"><ele>11.6</ele><time>2022-10-31T13:31:48.0000000+00:00</time></trkpt><trkpt lat="39.34019306" lon="-0.3190527"><ele>11.8</ele><time>2022-10-31T13:31:49.0000000+00:00</time></trkpt><trkpt lat="39.3401835" lon="-0.31905337"><ele>11.8</ele><time>2022-10-31T13:31:50.0000000+00:00</time></trkpt><trkpt lat="39.34016691" lon="-0.31905245"><ele>11.8</ele><time>2022-10-31T13:31:51.0000000+00:00</time></trkpt><trkpt lat="39.34014997" lon="-0.31905136"><ele>11.8</ele><time>2022-10-31T13:31:52.0000000+00:00</time></trkpt><trkpt lat="39.34012634" lon="-0.31905002"><ele>11.8</ele><time>2022-10-31T13:31:53.0000000+00:00</time></trkpt><trkpt lat="39.34009918" lon="-0.31905161"><ele>11.8</ele><time>2022-10-31T13:31:54.0000000+00:00</time></trkpt><trkpt lat="39.34007571" lon="-0.31907114"><ele>11.8</ele><time>2022-10-31T13:31:55.0000000+00:00</time></trkpt><trkpt lat="39.34004713" lon="-0.31908849"><ele>12.0</ele><time>2022-10-31T13:31:56.0000000+00:00</time></trkpt><trkpt lat="39.340011" lon="-0.31911708"><ele>12.0</ele><time>2022-10-31T13:31:57.0000000+00:00</time></trkpt><trkpt lat="39.33998644" lon="-0.31913702"><ele>12.0</ele><time>2022-10-31T13:31:58.0000000+00:00</time></trkpt><trkpt lat="39.33995736" lon="-0.31916569"><ele>12.0</ele><time>2022-10-31T13:31:59.0000000+00:00</time></trkpt><trkpt lat="39.33993632" lon="-0.31919276"><ele>12.0</ele><time>2022-10-31T13:32:00.0000000+00:00</time></trkpt><trkpt lat="39.33991763" lon="-0.31922394"><ele>11.8</ele><time>2022-10-31T13:32:01.0000000+00:00</time></trkpt><trkpt lat="39.33988947" lon="-0.31926694"><ele>11.6</ele><time>2022-10-31T13:32:02.0000000+00:00</time></trkpt><trkpt lat="39.33986792" lon="-0.3193117"><ele>11.4</ele><time>2022-10-31T13:32:03.0000000+00:00</time></trkpt><trkpt lat="39.33985217" lon="-0.31936082"><ele>11.2</ele><time>2022-10-31T13:32:04.0000000+00:00</time></trkpt><trkpt lat="39.33983632" lon="-0.31941338"><ele>11.2</ele><time>2022-10-31T13:32:05.0000000+00:00</time></trkpt><trkpt lat="39.33981612" lon="-0.31946886"><ele>11.2</ele><time>2022-10-31T13:32:06.0000000+00:00</time></trkpt><trkpt lat="39.33979006" lon="-0.31952519"><ele>11.0</ele><time>2022-10-31T13:32:07.0000000+00:00</time></trkpt><trkpt lat="39.33976919" lon="-0.31956894"><ele>11.0</ele><time>2022-10-31T13:32:08.0000000+00:00</time></trkpt><trkpt lat="39.33974882" lon="-0.31962527"><ele>11.0</ele><time>2022-10-31T13:32:09.0000000+00:00</time></trkpt><trkpt lat="39.33972711" lon="-0.31968168"><ele>10.8</ele><time>2022-10-31T13:32:10.0000000+00:00</time></trkpt><trkpt lat="39.33970481" lon="-0.31973851"><ele>11.0</ele><time>2022-10-31T13:32:11.0000000+00:00</time></trkpt><trkpt lat="39.33968805" lon="-0.31979073"><ele>11.0</ele><time>2022-10-31T13:32:12.0000000+00:00</time></trkpt><trkpt lat="39.33967765" lon="-0.31983926"><ele>11.0</ele><time>2022-10-31T13:32:13.0000000+00:00</time></trkpt><trkpt lat="39.33966315" lon="-0.31990011"><ele>11.0</ele><time>2022-10-31T13:32:14.0000000+00:00</time></trkpt><trkpt lat="39.33964723" lon="-0.31995627"><ele>11.0</ele><time>2022-10-31T13:32:15.0000000+00:00</time></trkpt><trkpt lat="39.3396251" lon="-0.32001352"><ele>11.2</ele><time>2022-10-31T13:32:16.0000000+00:00</time></trkpt><trkpt lat="39.33960758" lon="-0.32006272"><ele>11.2</ele><time>2022-10-31T13:32:17.0000000+00:00</time></trkpt><trkpt lat="39.33958386" lon="-0.32012416"><ele>11.2</ele><time>2022-10-31T13:32:18.0000000+00:00</time></trkpt><trkpt lat="39.33956073" lon="-0.32018518"><ele>11.2</ele><time>2022-10-31T13:32:19.0000000+00:00</time></trkpt><trkpt lat="39.33953818" lon="-0.32024478"><ele>11.2</ele><time>2022-10-31T13:32:20.0000000+00:00</time></trkpt><trkpt lat="39.33950884" lon="-0.32031493"><ele>11.2</ele><time>2022-10-31T13:32:21.0000000+00:00</time></trkpt><trkpt lat="39.33948504" lon="-0.32035818"><ele>11.2</ele><time>2022-10-31T13:32:22.0000000+00:00</time></trkpt><trkpt lat="39.33944397" lon="-0.32042172"><ele>11.2</ele><time>2022-10-31T13:32:23.0000000+00:00</time></trkpt><trkpt lat="39.33940223" lon="-0.32047126"><ele>11.2</ele><time>2022-10-31T13:32:24.0000000+00:00</time></trkpt><trkpt lat="39.33935814" lon="-0.32051643"><ele>11.2</ele><time>2022-10-31T13:32:25.0000000+00:00</time></trkpt><trkpt lat="39.33930885" lon="-0.3205539"><ele>11.2</ele><time>2022-10-31T13:32:26.0000000+00:00</time></trkpt><trkpt lat="39.33925646" lon="-0.32058433"><ele>11.2</ele><time>2022-10-31T13:32:27.0000000+00:00</time></trkpt><trkpt lat="39.33920349" lon="-0.32060931"><ele>11.2</ele><time>2022-10-31T13:32:28.0000000+00:00</time></trkpt><trkpt lat="39.33914624" lon="-0.32062154"><ele>11.2</ele><time>2022-10-31T13:32:29.0000000+00:00</time></trkpt><trkpt lat="39.33909796" lon="-0.32062314"><ele>11.2</ele><time>2022-10-31T13:32:30.0000000+00:00</time></trkpt><trkpt lat="39.33903887" lon="-0.32062389"><ele>11.2</ele><time>2022-10-31T13:32:31.0000000+00:00</time></trkpt><trkpt lat="39.33898129" lon="-0.32062079"><ele>11.2</ele><time>2022-10-31T13:32:32.0000000+00:00</time></trkpt><trkpt lat="39.33892186" lon="-0.3206119"><ele>11.2</ele><time>2022-10-31T13:32:33.0000000+00:00</time></trkpt><trkpt lat="39.33886285" lon="-0.32060151"><ele>11.2</ele><time>2022-10-31T13:32:34.0000000+00:00</time></trkpt><trkpt lat="39.33880074" lon="-0.32059271"><ele>11.2</ele><time>2022-10-31T13:32:35.0000000+00:00</time></trkpt><trkpt lat="39.33874265" lon="-0.3205829"><ele>11.2</ele><time>2022-10-31T13:32:36.0000000+00:00</time></trkpt><trkpt lat="39.33868172" lon="-0.32056924"><ele>11.2</ele><time>2022-10-31T13:32:37.0000000+00:00</time></trkpt><trkpt lat="39.3386207" lon="-0.32055558"><ele>11.2</ele><time>2022-10-31T13:32:38.0000000+00:00</time></trkpt><trkpt lat="39.33855951" lon="-0.32054317"><ele>11.2</ele><time>2022-10-31T13:32:39.0000000+00:00</time></trkpt><trkpt lat="39.3384881" lon="-0.3205301"><ele>11.4</ele><time>2022-10-31T13:32:40.0000000+00:00</time></trkpt><trkpt lat="39.33843906" lon="-0.32052289"><ele>11.4</ele><time>2022-10-31T13:32:41.0000000+00:00</time></trkpt><trkpt lat="39.33837955" lon="-0.32051157"><ele>11.4</ele><time>2022-10-31T13:32:42.0000000+00:00</time></trkpt><trkpt lat="39.33831794" lon="-0.3204959"><ele>11.4</ele><time>2022-10-31T13:32:43.0000000+00:00</time></trkpt><trkpt lat="39.33825298" lon="-0.32048081"><ele>11.4</ele><time>2022-10-31T13:32:44.0000000+00:00</time></trkpt><trkpt lat="39.33818827" lon="-0.32046589"><ele>11.6</ele><time>2022-10-31T13:32:45.0000000+00:00</time></trkpt><trkpt lat="39.33812516" lon="-0.32045022"><ele>11.6</ele><time>2022-10-31T13:32:46.0000000+00:00</time></trkpt><trkpt lat="39.33806397" lon="-0.32043546"><ele>11.6</ele><time>2022-10-31T13:32:47.0000000+00:00</time></trkpt><trkpt lat="39.33799909" lon="-0.3204208"><ele>11.4</ele><time>2022-10-31T13:32:48.0000000+00:00</time></trkpt><trkpt lat="39.33793405" lon="-0.32040839"><ele>11.4</ele><time>2022-10-31T13:32:49.0000000+00:00</time></trkpt><trkpt lat="39.33786884" lon="-0.32039406"><ele>11.4</ele><time>2022-10-31T13:32:50.0000000+00:00</time></trkpt><trkpt lat="39.33780531" lon="-0.3203783"><ele>11.4</ele><time>2022-10-31T13:32:51.0000000+00:00</time></trkpt><trkpt lat="39.33774068" lon="-0.3203633"><ele>11.4</ele><time>2022-10-31T13:32:52.0000000+00:00</time></trkpt><trkpt lat="39.33767304" lon="-0.32034938"><ele>11.4</ele><time>2022-10-31T13:32:53.0000000+00:00</time></trkpt><trkpt lat="39.33760431" lon="-0.32033907"><ele>11.4</ele><time>2022-10-31T13:32:54.0000000+00:00</time></trkpt><trkpt lat="39.33753868" lon="-0.32032751"><ele>11.6</ele><time>2022-10-31T13:32:55.0000000+00:00</time></trkpt><trkpt lat="39.33747372" lon="-0.32031535"><ele>11.6</ele><time>2022-10-31T13:32:56.0000000+00:00</time></trkpt><trkpt lat="39.33740909" lon="-0.3203032"><ele>11.6</ele><time>2022-10-31T13:32:57.0000000+00:00</time></trkpt><trkpt lat="39.33734581" lon="-0.32029079"><ele>11.6</ele><time>2022-10-31T13:32:58.0000000+00:00</time></trkpt><trkpt lat="39.33728085" lon="-0.32027889"><ele>11.6</ele><time>2022-10-31T13:32:59.0000000+00:00</time></trkpt><trkpt lat="39.33721589" lon="-0.32026598"><ele>11.6</ele><time>2022-10-31T13:33:00.0000000+00:00</time></trkpt><trkpt lat="39.33714984" lon="-0.32025299"><ele>11.6</ele><time>2022-10-31T13:33:01.0000000+00:00</time></trkpt><trkpt lat="39.33708513" lon="-0.32024142"><ele>11.6</ele><time>2022-10-31T13:33:02.0000000+00:00</time></trkpt><trkpt lat="39.33702068" lon="-0.32022583"><ele>11.6</ele><time>2022-10-31T13:33:03.0000000+00:00</time></trkpt><trkpt lat="39.33695714" lon="-0.32020781"><ele>11.6</ele><time>2022-10-31T13:33:04.0000000+00:00</time></trkpt><trkpt lat="39.33689444" lon="-0.32019314"><ele>11.6</ele><time>2022-10-31T13:33:05.0000000+00:00</time></trkpt><trkpt lat="39.33683426" lon="-0.32017604"><ele>11.4</ele><time>2022-10-31T13:33:06.0000000+00:00</time></trkpt><trkpt lat="39.336775" lon="-0.32016213"><ele>11.4</ele><time>2022-10-31T13:33:07.0000000+00:00</time></trkpt><trkpt lat="39.33671591" lon="-0.32015073"><ele>11.4</ele><time>2022-10-31T13:33:08.0000000+00:00</time></trkpt><trkpt lat="39.33665765" lon="-0.32014042"><ele>11.4</ele><time>2022-10-31T13:33:09.0000000+00:00</time></trkpt><trkpt lat="39.33658901" lon="-0.3201281"><ele>11.4</ele><time>2022-10-31T13:33:10.0000000+00:00</time></trkpt><trkpt lat="39.33653318" lon="-0.32011821"><ele>11.2</ele><time>2022-10-31T13:33:11.0000000+00:00</time></trkpt><trkpt lat="39.33649111" lon="-0.32011125"><ele>11.2</ele><time>2022-10-31T13:33:12.0000000+00:00</time></trkpt><trkpt lat="39.33643788" lon="-0.32010203"><ele>11.2</ele><time>2022-10-31T13:33:13.0000000+00:00</time></trkpt><trkpt lat="39.33638533" lon="-0.32009147"><ele>11.2</ele><time>2022-10-31T13:33:14.0000000+00:00</time></trkpt><trkpt lat="39.3363326" lon="-0.32008284"><ele>11.2</ele><time>2022-10-31T13:33:15.0000000+00:00</time></trkpt><trkpt lat="39.33627167" lon="-0.32007387"><ele>11.2</ele><time>2022-10-31T13:33:16.0000000+00:00</time></trkpt><trkpt lat="39.33623076" lon="-0.32006708"><ele>11.2</ele><time>2022-10-31T13:33:17.0000000+00:00</time></trkpt><trkpt lat="39.33616891" lon="-0.32005099"><ele>11.2</ele><time>2022-10-31T13:33:18.0000000+00:00</time></trkpt><trkpt lat="39.33612968" lon="-0.32003556"><ele>11.2</ele><time>2022-10-31T13:33:19.0000000+00:00</time></trkpt><trkpt lat="39.33607671" lon="-0.32002014"><ele>11.2</ele><time>2022-10-31T13:33:20.0000000+00:00</time></trkpt><trkpt lat="39.33602164" lon="-0.32001033"><ele>11.4</ele><time>2022-10-31T13:33:21.0000000+00:00</time></trkpt><trkpt lat="39.33596288" lon="-0.32000246"><ele>11.4</ele><time>2022-10-31T13:33:22.0000000+00:00</time></trkpt><trkpt lat="39.33590538" lon="-0.31999315"><ele>11.4</ele><time>2022-10-31T13:33:23.0000000+00:00</time></trkpt><trkpt lat="39.33584754" lon="-0.3199836"><ele>11.4</ele><time>2022-10-31T13:33:24.0000000+00:00</time></trkpt><trkpt lat="39.33578594" lon="-0.31997697"><ele>11.4</ele><time>2022-10-31T13:33:25.0000000+00:00</time></trkpt><trkpt lat="39.33572458" lon="-0.31997295"><ele>11.4</ele><time>2022-10-31T13:33:26.0000000+00:00</time></trkpt><trkpt lat="39.33566105" lon="-0.31996935"><ele>11.4</ele><time>2022-10-31T13:33:27.0000000+00:00</time></trkpt><trkpt lat="39.33558838" lon="-0.31996599"><ele>11.6</ele><time>2022-10-31T13:33:28.0000000+00:00</time></trkpt><trkpt lat="39.33551755" lon="-0.31996214"><ele>11.6</ele><time>2022-10-31T13:33:29.0000000+00:00</time></trkpt><trkpt lat="39.33547036" lon="-0.31996063"><ele>11.6</ele><time>2022-10-31T13:33:30.0000000+00:00</time></trkpt><trkpt lat="39.3353966" lon="-0.31995971"><ele>11.6</ele><time>2022-10-31T13:33:31.0000000+00:00</time></trkpt><trkpt lat="39.33534597" lon="-0.31995929"><ele>11.6</ele><time>2022-10-31T13:33:32.0000000+00:00</time></trkpt><trkpt lat="39.33528235" lon="-0.31995711"><ele>11.6</ele><time>2022-10-31T13:33:33.0000000+00:00</time></trkpt><trkpt lat="39.33523357" lon="-0.3199551"><ele>11.6</ele><time>2022-10-31T13:33:34.0000000+00:00</time></trkpt><trkpt lat="39.33516006" lon="-0.31994864"><ele>11.6</ele><time>2022-10-31T13:33:35.0000000+00:00</time></trkpt><trkpt lat="39.33511019" lon="-0.31994303"><ele>11.6</ele><time>2022-10-31T13:33:36.0000000+00:00</time></trkpt><trkpt lat="39.3350459" lon="-0.31993666"><ele>11.6</ele><time>2022-10-31T13:33:37.0000000+00:00</time></trkpt><trkpt lat="39.33498454" lon="-0.31992702"><ele>11.6</ele><time>2022-10-31T13:33:38.0000000+00:00</time></trkpt><trkpt lat="39.33492352" lon="-0.3199183"><ele>11.6</ele><time>2022-10-31T13:33:39.0000000+00:00</time></trkpt><trkpt lat="39.33486284" lon="-0.319909"><ele>11.6</ele><time>2022-10-31T13:33:40.0000000+00:00</time></trkpt><trkpt lat="39.33480358" lon="-0.31990095"><ele>11.6</ele><time>2022-10-31T13:33:41.0000000+00:00</time></trkpt><trkpt lat="39.33474298" lon="-0.31988645"><ele>11.6</ele><time>2022-10-31T13:33:42.0000000+00:00</time></trkpt><trkpt lat="39.33468078" lon="-0.31987254"><ele>11.4</ele><time>2022-10-31T13:33:43.0000000+00:00</time></trkpt><trkpt lat="39.33461892" lon="-0.31986097"><ele>11.6</ele><time>2022-10-31T13:33:44.0000000+00:00</time></trkpt><trkpt lat="39.33455631" lon="-0.31985275"><ele>11.6</ele><time>2022-10-31T13:33:45.0000000+00:00</time></trkpt><trkpt lat="39.33449529" lon="-0.31984437"><ele>11.6</ele><time>2022-10-31T13:33:46.0000000+00:00</time></trkpt><trkpt lat="39.33443251" lon="-0.31983666"><ele>11.6</ele><time>2022-10-31T13:33:47.0000000+00:00</time></trkpt><trkpt lat="39.33437157" lon="-0.31982677"><ele>11.6</ele><time>2022-10-31T13:33:48.0000000+00:00</time></trkpt><trkpt lat="39.33431156" lon="-0.31981219"><ele>11.4</ele><time>2022-10-31T13:33:49.0000000+00:00</time></trkpt><trkpt lat="39.33425146" lon="-0.31979752"><ele>11.4</ele><time>2022-10-31T13:33:50.0000000+00:00</time></trkpt><trkpt lat="39.33419086" lon="-0.31978645"><ele>11.4</ele><time>2022-10-31T13:33:51.0000000+00:00</time></trkpt><trkpt lat="39.33413001" lon="-0.31977547"><ele>11.4</ele><time>2022-10-31T13:33:52.0000000+00:00</time></trkpt><trkpt lat="39.33406798" lon="-0.31976382"><ele>11.4</ele><time>2022-10-31T13:33:53.0000000+00:00</time></trkpt><trkpt lat="39.33400529" lon="-0.3197546"><ele>11.4</ele><time>2022-10-31T13:33:54.0000000+00:00</time></trkpt><trkpt lat="39.33394359" lon="-0.31974798"><ele>11.4</ele><time>2022-10-31T13:33:55.0000000+00:00</time></trkpt><trkpt lat="39.33388132" lon="-0.31974245"><ele>11.6</ele><time>2022-10-31T13:33:56.0000000+00:00</time></trkpt><trkpt lat="39.3338213" lon="-0.31973206"><ele>11.6</ele><time>2022-10-31T13:33:57.0000000+00:00</time></trkpt><trkpt lat="39.3337638" lon="-0.31971856"><ele>11.6</ele><time>2022-10-31T13:33:58.0000000+00:00</time></trkpt><trkpt lat="39.33370521" lon="-0.3197049"><ele>11.6</ele><time>2022-10-31T13:33:59.0000000+00:00</time></trkpt><trkpt lat="39.33364704" lon="-0.31969576"><ele>11.6</ele><time>2022-10-31T13:34:00.0000000+00:00</time></trkpt><trkpt lat="39.33357948" lon="-0.31968537"><ele>11.6</ele><time>2022-10-31T13:34:01.0000000+00:00</time></trkpt><trkpt lat="39.33353556" lon="-0.31967715"><ele>11.6</ele><time>2022-10-31T13:34:02.0000000+00:00</time></trkpt><trkpt lat="39.33347186" lon="-0.31966643"><ele>11.4</ele><time>2022-10-31T13:34:03.0000000+00:00</time></trkpt><trkpt lat="39.33342123" lon="-0.3196562"><ele>11.4</ele><time>2022-10-31T13:34:04.0000000+00:00</time></trkpt><trkpt lat="39.33337069" lon="-0.31964681"><ele>11.4</ele><time>2022-10-31T13:34:05.0000000+00:00</time></trkpt><trkpt lat="39.33332308" lon="-0.31963323"><ele>11.4</ele><time>2022-10-31T13:34:06.0000000+00:00</time></trkpt><trkpt lat="39.3332831" lon="-0.31962577"><ele>11.4</ele><time>2022-10-31T13:34:07.0000000+00:00</time></trkpt><trkpt lat="39.33322359" lon="-0.31961789"><ele>11.4</ele><time>2022-10-31T13:34:08.0000000+00:00</time></trkpt><trkpt lat="39.33318486" lon="-0.31961286"><ele>11.4</ele><time>2022-10-31T13:34:09.0000000+00:00</time></trkpt><trkpt lat="39.33313793" lon="-0.3196049"><ele>11.4</ele><time>2022-10-31T13:34:10.0000000+00:00</time></trkpt><trkpt lat="39.33309333" lon="-0.31960054"><ele>11.4</ele><time>2022-10-31T13:34:11.0000000+00:00</time></trkpt><trkpt lat="39.33305101" lon="-0.31959526"><ele>11.4</ele><time>2022-10-31T13:34:12.0000000+00:00</time></trkpt><trkpt lat="39.33300851" lon="-0.31959275"><ele>11.4</ele><time>2022-10-31T13:34:13.0000000+00:00</time></trkpt><trkpt lat="39.33296434" lon="-0.31958554"><ele>11.6</ele><time>2022-10-31T13:34:14.0000000+00:00</time></trkpt><trkpt lat="39.33291773" lon="-0.31958009"><ele>11.6</ele><time>2022-10-31T13:34:15.0000000+00:00</time></trkpt><trkpt lat="39.33286501" lon="-0.31957355"><ele>11.8</ele><time>2022-10-31T13:34:16.0000000+00:00</time></trkpt><trkpt lat="39.33281422" lon="-0.31956718"><ele>11.8</ele><time>2022-10-31T13:34:17.0000000+00:00</time></trkpt><trkpt lat="39.33275202" lon="-0.31956249"><ele>11.8</ele><time>2022-10-31T13:34:18.0000000+00:00</time></trkpt><trkpt lat="39.33269746" lon="-0.3195552"><ele>11.8</ele><time>2022-10-31T13:34:19.0000000+00:00</time></trkpt><trkpt lat="39.33265345" lon="-0.31954975"><ele>11.8</ele><time>2022-10-31T13:34:20.0000000+00:00</time></trkpt><trkpt lat="39.33259872" lon="-0.31954313"><ele>12.0</ele><time>2022-10-31T13:34:21.0000000+00:00</time></trkpt><trkpt lat="39.33254289" lon="-0.31953349"><ele>12.0</ele><time>2022-10-31T13:34:22.0000000+00:00</time></trkpt><trkpt lat="39.33248774" lon="-0.31952502"><ele>12.0</ele><time>2022-10-31T13:34:23.0000000+00:00</time></trkpt><trkpt lat="39.33242027" lon="-0.31951463"><ele>12.0</ele><time>2022-10-31T13:34:24.0000000+00:00</time></trkpt><trkpt lat="39.33236386" lon="-0.31950591"><ele>12.2</ele><time>2022-10-31T13:34:25.0000000+00:00</time></trkpt><trkpt lat="39.33232153" lon="-0.31949661"><ele>12.2</ele><time>2022-10-31T13:34:26.0000000+00:00</time></trkpt><trkpt lat="39.33226738" lon="-0.31948739"><ele>12.2</ele><time>2022-10-31T13:34:27.0000000+00:00</time></trkpt><trkpt lat="39.33221013" lon="-0.31947901"><ele>12.2</ele><time>2022-10-31T13:34:28.0000000+00:00</time></trkpt><trkpt lat="39.33213889" lon="-0.31947247"><ele>12.2</ele><time>2022-10-31T13:34:29.0000000+00:00</time></trkpt><trkpt lat="39.33208005" lon="-0.31946534"><ele>12.2</ele><time>2022-10-31T13:34:30.0000000+00:00</time></trkpt><trkpt lat="39.33203436" lon="-0.3194552"><ele>12.4</ele><time>2022-10-31T13:34:31.0000000+00:00</time></trkpt><trkpt lat="39.33197821" lon="-0.31944305"><ele>12.4</ele><time>2022-10-31T13:34:32.0000000+00:00</time></trkpt><trkpt lat="39.3319197" lon="-0.31943508"><ele>12.4</ele><time>2022-10-31T13:34:33.0000000+00:00</time></trkpt><trkpt lat="39.33186178" lon="-0.31942519"><ele>12.6</ele><time>2022-10-31T13:34:34.0000000+00:00</time></trkpt><trkpt lat="39.3318047" lon="-0.3194179"><ele>12.8</ele><time>2022-10-31T13:34:35.0000000+00:00</time></trkpt><trkpt lat="39.33173706" lon="-0.31940432"><ele>12.8</ele><time>2022-10-31T13:34:36.0000000+00:00</time></trkpt><trkpt lat="39.33169364" lon="-0.31939552"><ele>13.0</ele><time>2022-10-31T13:34:37.0000000+00:00</time></trkpt><trkpt lat="39.33164083" lon="-0.31938287"><ele>13.0</ele><time>2022-10-31T13:34:38.0000000+00:00</time></trkpt><trkpt lat="39.33157973" lon="-0.31937004"><ele>13.0</ele><time>2022-10-31T13:34:39.0000000+00:00</time></trkpt><trkpt lat="39.33153229" lon="-0.31936208"><ele>13.2</ele><time>2022-10-31T13:34:40.0000000+00:00</time></trkpt><trkpt lat="39.33150061" lon="-0.31935722"><ele>13.2</ele><time>2022-10-31T13:34:41.0000000+00:00</time></trkpt><trkpt lat="39.33147211" lon="-0.31935378"><ele>13.2</ele><time>2022-10-31T13:34:42.0000000+00:00</time></trkpt><trkpt lat="39.33145677" lon="-0.31935588"><ele>13.2</ele><time>2022-10-31T13:34:43.0000000+00:00</time></trkpt><trkpt lat="39.3314514" lon="-0.31935663"><ele>13.2</ele><time>2022-10-31T13:34:44.0000000+00:00</time></trkpt><trkpt lat="39.3314514" lon="-0.31935663"><ele>13.2</ele><time>2022-10-31T13:34:45.0000000+00:00</time></trkpt><trkpt lat="39.3314514" lon="-0.31935663"><ele>13.2</ele><time>2022-10-31T13:34:46.0000000+00:00</time></trkpt><trkpt lat="39.3314514" lon="-0.31935663"><ele>13.2</ele><time>2022-10-31T13:34:47.0000000+00:00</time></trkpt><trkpt lat="39.3314514" lon="-0.31935663"><ele>13.2</ele><time>2022-10-31T13:34:48.0000000+00:00</time></trkpt><trkpt lat="39.3314514" lon="-0.31935663"><ele>13.2</ele><time>2022-10-31T13:34:49.0000000+00:00</time></trkpt><trkpt lat="39.3314514" lon="-0.31935663"><ele>13.2</ele><time>2022-10-31T13:34:50.0000000+00:00</time></trkpt><trkpt lat="39.3314514" lon="-0.31935663"><ele>13.2</ele><time>2022-10-31T13:34:51.0000000+00:00</time></trkpt><trkpt lat="39.3314514" lon="-0.31935663"><ele>13.2</ele><time>2022-10-31T13:34:52.0000000+00:00</time></trkpt><trkpt lat="39.3314514" lon="-0.31935663"><ele>13.2</ele><time>2022-10-31T13:34:53.0000000+00:00</time></trkpt><trkpt lat="39.3314514" lon="-0.31935663"><ele>13.2</ele><time>2022-10-31T13:34:54.0000000+00:00</time></trkpt><trkpt lat="39.3314514" lon="-0.31935663"><ele>13.2</ele><time>2022-10-31T13:34:55.0000000+00:00</time></trkpt><trkpt lat="39.3314514" lon="-0.31935663"><ele>13.2</ele><time>2022-10-31T13:34:56.0000000+00:00</time></trkpt><trkpt lat="39.3314514" lon="-0.31935663"><ele>13.2</ele><time>2022-10-31T13:34:57.0000000+00:00</time></trkpt><trkpt lat="39.3314514" lon="-0.31935663"><ele>13.2</ele><time>2022-10-31T13:34:58.0000000+00:00</time></trkpt><trkpt lat="39.3314514" lon="-0.31935663"><ele>13.2</ele><time>2022-10-31T13:34:59.0000000+00:00</time></trkpt><trkpt lat="39.3314514" lon="-0.31935663"><ele>13.2</ele><time>2022-10-31T13:35:00.0000000+00:00</time></trkpt><trkpt lat="39.3314514" lon="-0.31935663"><ele>13.2</ele><time>2022-10-31T13:35:01.0000000+00:00</time></trkpt><trkpt lat="39.3314514" lon="-0.31935663"><ele>13.2</ele><time>2022-10-31T13:35:02.0000000+00:00</time></trkpt><trkpt lat="39.3314514" lon="-0.31935663"><ele>13.2</ele><time>2022-10-31T13:35:03.0000000+00:00</time></trkpt><trkpt lat="39.3314514" lon="-0.31935663"><ele>13.2</ele><time>2022-10-31T13:35:04.0000000+00:00</time></trkpt><trkpt lat="39.3314514" lon="-0.31935663"><ele>13.2</ele><time>2022-10-31T13:35:05.0000000+00:00</time></trkpt><trkpt lat="39.3314514" lon="-0.31935663"><ele>13.2</ele><time>2022-10-31T13:35:06.0000000+00:00</time></trkpt><trkpt lat="39.33145031" lon="-0.31935562"><ele>13.2</ele><time>2022-10-31T13:35:07.0000000+00:00</time></trkpt><trkpt lat="39.33144839" lon="-0.31935076"><ele>13.2</ele><time>2022-10-31T13:35:08.0000000+00:00</time></trkpt><trkpt lat="39.33144671" lon="-0.31934917"><ele>13.2</ele><time>2022-10-31T13:35:09.0000000+00:00</time></trkpt><trkpt lat="39.33144671" lon="-0.31934917"><ele>13.2</ele><time>2022-10-31T13:35:10.0000000+00:00</time></trkpt><trkpt lat="39.33144671" lon="-0.31934917"><ele>13.2</ele><time>2022-10-31T13:35:11.0000000+00:00</time></trkpt><trkpt lat="39.33144612" lon="-0.31934951"><ele>13.2</ele><time>2022-10-31T13:35:12.0000000+00:00</time></trkpt><trkpt lat="39.33143917" lon="-0.319349"><ele>13.2</ele><time>2022-10-31T13:35:13.0000000+00:00</time></trkpt><trkpt lat="39.33142718" lon="-0.31934314"><ele>13.2</ele><time>2022-10-31T13:35:14.0000000+00:00</time></trkpt><trkpt lat="39.33140597" lon="-0.31933249"><ele>13.2</ele><time>2022-10-31T13:35:15.0000000+00:00</time></trkpt><trkpt lat="39.33137362" lon="-0.31932503"><ele>13.0</ele><time>2022-10-31T13:35:16.0000000+00:00</time></trkpt><trkpt lat="39.33134512" lon="-0.31932335"><ele>13.0</ele><time>2022-10-31T13:35:17.0000000+00:00</time></trkpt><trkpt lat="39.33131537" lon="-0.31932159"><ele>13.0</ele><time>2022-10-31T13:35:18.0000000+00:00</time></trkpt><trkpt lat="39.33128217" lon="-0.31931749"><ele>13.0</ele><time>2022-10-31T13:35:19.0000000+00:00</time></trkpt><trkpt lat="39.33124605" lon="-0.31931187"><ele>13.2</ele><time>2022-10-31T13:35:20.0000000+00:00</time></trkpt><trkpt lat="39.33120556" lon="-0.31930533"><ele>13.2</ele><time>2022-10-31T13:35:21.0000000+00:00</time></trkpt><trkpt lat="39.3311717" lon="-0.31929729"><ele>13.2</ele><time>2022-10-31T13:35:22.0000000+00:00</time></trkpt><trkpt lat="39.33111738" lon="-0.31928857"><ele>13.2</ele><time>2022-10-31T13:35:23.0000000+00:00</time></trkpt><trkpt lat="39.33107782" lon="-0.31928538"><ele>13.2</ele><time>2022-10-31T13:35:24.0000000+00:00</time></trkpt><trkpt lat="39.33102862" lon="-0.31927784"><ele>13.0</ele><time>2022-10-31T13:35:25.0000000+00:00</time></trkpt><trkpt lat="39.3309697" lon="-0.31926686"><ele>13.0</ele><time>2022-10-31T13:35:26.0000000+00:00</time></trkpt><trkpt lat="39.33091882" lon="-0.31925789"><ele>13.0</ele><time>2022-10-31T13:35:27.0000000+00:00</time></trkpt><trkpt lat="39.33087339" lon="-0.3192485"><ele>13.0</ele><time>2022-10-31T13:35:28.0000000+00:00</time></trkpt><trkpt lat="39.33081723" lon="-0.31923266"><ele>13.0</ele><time>2022-10-31T13:35:29.0000000+00:00</time></trkpt><trkpt lat="39.33076241" lon="-0.31921322"><ele>13.0</ele><time>2022-10-31T13:35:30.0000000+00:00</time></trkpt><trkpt lat="39.33068438" lon="-0.31918581"><ele>12.6</ele><time>2022-10-31T13:35:31.0000000+00:00</time></trkpt><trkpt lat="39.3306278" lon="-0.31916804"><ele>12.4</ele><time>2022-10-31T13:35:32.0000000+00:00</time></trkpt><trkpt lat="39.33058178" lon="-0.31915446"><ele>12.2</ele><time>2022-10-31T13:35:33.0000000+00:00</time></trkpt><trkpt lat="39.33051255" lon="-0.3191351"><ele>12.2</ele><time>2022-10-31T13:35:34.0000000+00:00</time></trkpt><trkpt lat="39.33045454" lon="-0.31912202"><ele>12.0</ele><time>2022-10-31T13:35:35.0000000+00:00</time></trkpt><trkpt lat="39.3304061" lon="-0.31911104"><ele>12.0</ele><time>2022-10-31T13:35:36.0000000+00:00</time></trkpt><trkpt lat="39.3303465" lon="-0.31909662"><ele>11.8</ele><time>2022-10-31T13:35:37.0000000+00:00</time></trkpt><trkpt lat="39.33028598" lon="-0.31907902"><ele>11.8</ele><time>2022-10-31T13:35:38.0000000+00:00</time></trkpt><trkpt lat="39.33023812" lon="-0.31906444"><ele>11.6</ele><time>2022-10-31T13:35:39.0000000+00:00</time></trkpt><trkpt lat="39.3301657" lon="-0.31904373"><ele>11.6</ele><time>2022-10-31T13:35:40.0000000+00:00</time></trkpt><trkpt lat="39.33010695" lon="-0.31902789"><ele>11.6</ele><time>2022-10-31T13:35:41.0000000+00:00</time></trkpt><trkpt lat="39.33004928" lon="-0.31901239"><ele>11.4</ele><time>2022-10-31T13:35:42.0000000+00:00</time></trkpt><trkpt lat="39.32999211" lon="-0.31899571"><ele>11.4</ele><time>2022-10-31T13:35:43.0000000+00:00</time></trkpt><trkpt lat="39.32993788" lon="-0.31898364"><ele>11.4</ele><time>2022-10-31T13:35:44.0000000+00:00</time></trkpt><trkpt lat="39.32988659" lon="-0.31897157"><ele>11.2</ele><time>2022-10-31T13:35:45.0000000+00:00</time></trkpt><trkpt lat="39.32983688" lon="-0.31896"><ele>11.0</ele><time>2022-10-31T13:35:46.0000000+00:00</time></trkpt><trkpt lat="39.32979615" lon="-0.31895002"><ele>10.8</ele><time>2022-10-31T13:35:47.0000000+00:00</time></trkpt><trkpt lat="39.32973144" lon="-0.31893561"><ele>10.6</ele><time>2022-10-31T13:35:48.0000000+00:00</time></trkpt><trkpt lat="39.32967788" lon="-0.31892203"><ele>10.8</ele><time>2022-10-31T13:35:49.0000000+00:00</time></trkpt><trkpt lat="39.32963161" lon="-0.31891088"><ele>10.8</ele><time>2022-10-31T13:35:50.0000000+00:00</time></trkpt><trkpt lat="39.32956732" lon="-0.31889286"><ele>11.0</ele><time>2022-10-31T13:35:51.0000000+00:00</time></trkpt><trkpt lat="39.32951451" lon="-0.31887274"><ele>11.0</ele><time>2022-10-31T13:35:52.0000000+00:00</time></trkpt><trkpt lat="39.32946037" lon="-0.31885355"><ele>11.0</ele><time>2022-10-31T13:35:53.0000000+00:00</time></trkpt><trkpt lat="39.32940773" lon="-0.31883268"><ele>11.0</ele><time>2022-10-31T13:35:54.0000000+00:00</time></trkpt><trkpt lat="39.32936532" lon="-0.3188191"><ele>11.0</ele><time>2022-10-31T13:35:55.0000000+00:00</time></trkpt><trkpt lat="39.32929876" lon="-0.31879982"><ele>10.8</ele><time>2022-10-31T13:35:56.0000000+00:00</time></trkpt><trkpt lat="39.32924428" lon="-0.31878272"><ele>10.8</ele><time>2022-10-31T13:35:57.0000000+00:00</time></trkpt><trkpt lat="39.32918921" lon="-0.31876847"><ele>10.8</ele><time>2022-10-31T13:35:58.0000000+00:00</time></trkpt><trkpt lat="39.32913423" lon="-0.31875447"><ele>10.8</ele><time>2022-10-31T13:35:59.0000000+00:00</time></trkpt><trkpt lat="39.32907765" lon="-0.31874601"><ele>11.0</ele><time>2022-10-31T13:36:00.0000000+00:00</time></trkpt><trkpt lat="39.32902015" lon="-0.31874106"><ele>11.0</ele><time>2022-10-31T13:36:01.0000000+00:00</time></trkpt><trkpt lat="39.32896173" lon="-0.31873645"><ele>11.0</ele><time>2022-10-31T13:36:02.0000000+00:00</time></trkpt><trkpt lat="39.32890188" lon="-0.31873285"><ele>11.0</ele><time>2022-10-31T13:36:03.0000000+00:00</time></trkpt><trkpt lat="39.32884195" lon="-0.31872958"><ele>11.0</ele><time>2022-10-31T13:36:04.0000000+00:00</time></trkpt><trkpt lat="39.32877858" lon="-0.31872681"><ele>11.2</ele><time>2022-10-31T13:36:05.0000000+00:00</time></trkpt><trkpt lat="39.32871681" lon="-0.31872514"><ele>11.2</ele><time>2022-10-31T13:36:06.0000000+00:00</time></trkpt><trkpt lat="39.3286687" lon="-0.31872463"><ele>11.2</ele><time>2022-10-31T13:36:07.0000000+00:00</time></trkpt><trkpt lat="39.32860876" lon="-0.31872564"><ele>11.4</ele><time>2022-10-31T13:36:08.0000000+00:00</time></trkpt><trkpt lat="39.32853584" lon="-0.31872271"><ele>11.4</ele><time>2022-10-31T13:36:09.0000000+00:00</time></trkpt><trkpt lat="39.32848044" lon="-0.31871927"><ele>11.4</ele><time>2022-10-31T13:36:10.0000000+00:00</time></trkpt><trkpt lat="39.32842503" lon="-0.31871231"><ele>11.2</ele><time>2022-10-31T13:36:11.0000000+00:00</time></trkpt><trkpt lat="39.32836779" lon="-0.31870863"><ele>11.2</ele><time>2022-10-31T13:36:12.0000000+00:00</time></trkpt><trkpt lat="39.3283123" lon="-0.31870536"><ele>11.2</ele><time>2022-10-31T13:36:13.0000000+00:00</time></trkpt><trkpt lat="39.32825714" lon="-0.31870008"><ele>11.2</ele><time>2022-10-31T13:36:14.0000000+00:00</time></trkpt><trkpt lat="39.32819596" lon="-0.31869496"><ele>11.2</ele><time>2022-10-31T13:36:15.0000000+00:00</time></trkpt><trkpt lat="39.32812513" lon="-0.31869136"><ele>11.2</ele><time>2022-10-31T13:36:16.0000000+00:00</time></trkpt><trkpt lat="39.3280662" lon="-0.31868935"><ele>11.2</ele><time>2022-10-31T13:36:17.0000000+00:00</time></trkpt><trkpt lat="39.3280046" lon="-0.31868742"><ele>11.2</ele><time>2022-10-31T13:36:18.0000000+00:00</time></trkpt><trkpt lat="39.32794559" lon="-0.31868926"><ele>11.2</ele><time>2022-10-31T13:36:19.0000000+00:00</time></trkpt><trkpt lat="39.32789756" lon="-0.31868398"><ele>11.2</ele><time>2022-10-31T13:36:20.0000000+00:00</time></trkpt><trkpt lat="39.32785096" lon="-0.31867971"><ele>11.2</ele><time>2022-10-31T13:36:21.0000000+00:00</time></trkpt><trkpt lat="39.32777753" lon="-0.31867242"><ele>11.2</ele><time>2022-10-31T13:36:22.0000000+00:00</time></trkpt><trkpt lat="39.32771064" lon="-0.31866814"><ele>11.2</ele><time>2022-10-31T13:36:23.0000000+00:00</time></trkpt><trkpt lat="39.32764585" lon="-0.31866529"><ele>11.2</ele><time>2022-10-31T13:36:24.0000000+00:00</time></trkpt><trkpt lat="39.32758324" lon="-0.31866311"><ele>11.2</ele><time>2022-10-31T13:36:25.0000000+00:00</time></trkpt><trkpt lat="39.32752113" lon="-0.31865984"><ele>11.2</ele><time>2022-10-31T13:36:26.0000000+00:00</time></trkpt><trkpt lat="39.32745852" lon="-0.31865699"><ele>11.2</ele><time>2022-10-31T13:36:27.0000000+00:00</time></trkpt><trkpt lat="39.32739674" lon="-0.31864794"><ele>11.4</ele><time>2022-10-31T13:36:28.0000000+00:00</time></trkpt><trkpt lat="39.32733572" lon="-0.31863788"><ele>11.4</ele><time>2022-10-31T13:36:29.0000000+00:00</time></trkpt><trkpt lat="39.3272721" lon="-0.318629"><ele>11.4</ele><time>2022-10-31T13:36:30.0000000+00:00</time></trkpt><trkpt lat="39.32720815" lon="-0.31862036"><ele>11.4</ele><time>2022-10-31T13:36:31.0000000+00:00</time></trkpt><trkpt lat="39.32714537" lon="-0.31861525"><ele>11.4</ele><time>2022-10-31T13:36:32.0000000+00:00</time></trkpt><trkpt lat="39.32709474" lon="-0.31860938"><ele>11.4</ele><time>2022-10-31T13:36:33.0000000+00:00</time></trkpt><trkpt lat="39.3270209" lon="-0.3186041"><ele>11.4</ele><time>2022-10-31T13:36:34.0000000+00:00</time></trkpt><trkpt lat="39.32695971" lon="-0.31859966"><ele>11.4</ele><time>2022-10-31T13:36:35.0000000+00:00</time></trkpt><trkpt lat="39.32689752" lon="-0.31859245"><ele>11.4</ele><time>2022-10-31T13:36:36.0000000+00:00</time></trkpt><trkpt lat="39.32683557" lon="-0.3185839"><ele>11.2</ele><time>2022-10-31T13:36:37.0000000+00:00</time></trkpt><trkpt lat="39.3267743" lon="-0.31857393"><ele>11.2</ele><time>2022-10-31T13:36:38.0000000+00:00</time></trkpt><trkpt lat="39.3267132" lon="-0.31855993"><ele>11.2</ele><time>2022-10-31T13:36:39.0000000+00:00</time></trkpt><trkpt lat="39.32666131" lon="-0.31855012"><ele>11.2</ele><time>2022-10-31T13:36:40.0000000+00:00</time></trkpt><trkpt lat="39.3265868" lon="-0.31853713"><ele>11.2</ele><time>2022-10-31T13:36:41.0000000+00:00</time></trkpt><trkpt lat="39.32652645" lon="-0.31852908"><ele>11.2</ele><time>2022-10-31T13:36:42.0000000+00:00</time></trkpt><trkpt lat="39.32647557" lon="-0.31852204"><ele>11.2</ele><time>2022-10-31T13:36:43.0000000+00:00</time></trkpt><trkpt lat="39.32640173" lon="-0.31851031"><ele>11.4</ele><time>2022-10-31T13:36:44.0000000+00:00</time></trkpt><trkpt lat="39.32633853" lon="-0.31850327"><ele>11.4</ele><time>2022-10-31T13:36:45.0000000+00:00</time></trkpt><trkpt lat="39.32627901" lon="-0.31849774"><ele>11.2</ele><time>2022-10-31T13:36:46.0000000+00:00</time></trkpt><trkpt lat="39.32622051" lon="-0.31849455"><ele>11.2</ele><time>2022-10-31T13:36:47.0000000+00:00</time></trkpt><trkpt lat="39.32615873" lon="-0.3184917"><ele>11.2</ele><time>2022-10-31T13:36:48.0000000+00:00</time></trkpt><trkpt lat="39.32609872" lon="-0.31848818"><ele>11.0</ele><time>2022-10-31T13:36:49.0000000+00:00</time></trkpt><trkpt lat="39.32604281" lon="-0.31848097"><ele>11.0</ele><time>2022-10-31T13:36:50.0000000+00:00</time></trkpt><trkpt lat="39.3259942" lon="-0.31847494"><ele>11.0</ele><time>2022-10-31T13:36:51.0000000+00:00</time></trkpt><trkpt lat="39.32595044" lon="-0.31846941"><ele>11.0</ele><time>2022-10-31T13:36:52.0000000+00:00</time></trkpt><trkpt lat="39.32591734" lon="-0.31846245"><ele>11.0</ele><time>2022-10-31T13:36:53.0000000+00:00</time></trkpt><trkpt lat="39.32589714" lon="-0.3184596"><ele>11.2</ele><time>2022-10-31T13:36:54.0000000+00:00</time></trkpt><trkpt lat="39.32586897" lon="-0.31845549"><ele>11.2</ele><time>2022-10-31T13:36:55.0000000+00:00</time></trkpt><trkpt lat="39.32584458" lon="-0.31844594"><ele>11.2</ele><time>2022-10-31T13:36:56.0000000+00:00</time></trkpt><trkpt lat="39.32581885" lon="-0.31843697"><ele>11.4</ele><time>2022-10-31T13:36:57.0000000+00:00</time></trkpt><trkpt lat="39.32579035" lon="-0.31843009"><ele>11.4</ele><time>2022-10-31T13:36:58.0000000+00:00</time></trkpt><trkpt lat="39.32575825" lon="-0.31842691"><ele>11.4</ele><time>2022-10-31T13:36:59.0000000+00:00</time></trkpt><trkpt lat="39.32572179" lon="-0.31842188"><ele>11.6</ele><time>2022-10-31T13:37:00.0000000+00:00</time></trkpt><trkpt lat="39.32568306" lon="-0.31841425"><ele>11.8</ele><time>2022-10-31T13:37:01.0000000+00:00</time></trkpt><trkpt lat="39.32564409" lon="-0.31840436"><ele>11.8</ele><time>2022-10-31T13:37:02.0000000+00:00</time></trkpt><trkpt lat="39.32560268" lon="-0.31839363"><ele>11.8</ele><time>2022-10-31T13:37:03.0000000+00:00</time></trkpt><trkpt lat="39.32556253" lon="-0.31838425"><ele>11.8</ele><time>2022-10-31T13:37:04.0000000+00:00</time></trkpt><trkpt lat="39.32551894" lon="-0.31837578"><ele>11.8</ele><time>2022-10-31T13:37:05.0000000+00:00</time></trkpt><trkpt lat="39.3254772" lon="-0.31836572"><ele>12.0</ele><time>2022-10-31T13:37:06.0000000+00:00</time></trkpt><trkpt lat="39.32543177" lon="-0.31835684"><ele>12.2</ele><time>2022-10-31T13:37:07.0000000+00:00</time></trkpt><trkpt lat="39.32538458" lon="-0.31835013"><ele>12.2</ele><time>2022-10-31T13:37:08.0000000+00:00</time></trkpt><trkpt lat="39.32534276" lon="-0.3183456"><ele>12.2</ele><time>2022-10-31T13:37:09.0000000+00:00</time></trkpt><trkpt lat="39.32530303" lon="-0.31834301"><ele>12.6</ele><time>2022-10-31T13:37:10.0000000+00:00</time></trkpt><trkpt lat="39.32526028" lon="-0.31833731"><ele>12.6</ele><time>2022-10-31T13:37:11.0000000+00:00</time></trkpt><trkpt lat="39.32521518" lon="-0.31832825"><ele>12.8</ele><time>2022-10-31T13:37:12.0000000+00:00</time></trkpt><trkpt lat="39.32518107" lon="-0.31832222"><ele>12.8</ele><time>2022-10-31T13:37:13.0000000+00:00</time></trkpt><trkpt lat="39.32512784" lon="-0.31831753"><ele>13.0</ele><time>2022-10-31T13:37:14.0000000+00:00</time></trkpt><trkpt lat="39.32508183" lon="-0.31832063"><ele>13.0</ele><time>2022-10-31T13:37:15.0000000+00:00</time></trkpt><trkpt lat="39.32503908" lon="-0.3183332"><ele>13.2</ele><time>2022-10-31T13:37:16.0000000+00:00</time></trkpt><trkpt lat="39.32499977" lon="-0.31835365"><ele>13.4</ele><time>2022-10-31T13:37:17.0000000+00:00</time></trkpt><trkpt lat="39.32496306" lon="-0.31838022"><ele>13.4</ele><time>2022-10-31T13:37:18.0000000+00:00</time></trkpt><trkpt lat="39.32492685" lon="-0.31840763"><ele>13.4</ele><time>2022-10-31T13:37:19.0000000+00:00</time></trkpt><trkpt lat="39.32489147" lon="-0.31843244"><ele>13.4</ele><time>2022-10-31T13:37:20.0000000+00:00</time></trkpt><trkpt lat="39.3248582" lon="-0.31845901"><ele>13.4</ele><time>2022-10-31T13:37:21.0000000+00:00</time></trkpt><trkpt lat="39.32482651" lon="-0.31848826"><ele>13.4</ele><time>2022-10-31T13:37:22.0000000+00:00</time></trkpt><trkpt lat="39.32479424" lon="-0.3185171"><ele>13.4</ele><time>2022-10-31T13:37:23.0000000+00:00</time></trkpt><trkpt lat="39.32475795" lon="-0.31854283"><ele>13.2</ele><time>2022-10-31T13:37:24.0000000+00:00</time></trkpt><trkpt lat="39.32471981" lon="-0.31856144"><ele>13.2</ele><time>2022-10-31T13:37:25.0000000+00:00</time></trkpt><trkpt lat="39.32467899" lon="-0.31856848"><ele>13.2</ele><time>2022-10-31T13:37:26.0000000+00:00</time></trkpt><trkpt lat="39.32463583" lon="-0.3185689"><ele>13.0</ele><time>2022-10-31T13:37:27.0000000+00:00</time></trkpt><trkpt lat="39.32459056" lon="-0.31856102"><ele>12.8</ele><time>2022-10-31T13:37:28.0000000+00:00</time></trkpt><trkpt lat="39.32454673" lon="-0.31854761"><ele>12.8</ele><time>2022-10-31T13:37:29.0000000+00:00</time></trkpt><trkpt lat="39.32451186" lon="-0.31853168"><ele>12.8</ele><time>2022-10-31T13:37:30.0000000+00:00</time></trkpt><trkpt lat="39.32446425" lon="-0.31850847"><ele>12.8</ele><time>2022-10-31T13:37:31.0000000+00:00</time></trkpt><trkpt lat="39.32440549" lon="-0.31847963"><ele>12.6</ele><time>2022-10-31T13:37:32.0000000+00:00</time></trkpt><trkpt lat="39.32435378" lon="-0.31845599"><ele>12.6</ele><time>2022-10-31T13:37:33.0000000+00:00</time></trkpt><trkpt lat="39.32430642" lon="-0.31843328"><ele>12.4</ele><time>2022-10-31T13:37:34.0000000+00:00</time></trkpt><trkpt lat="39.32425688" lon="-0.31841216"><ele>12.4</ele><time>2022-10-31T13:37:35.0000000+00:00</time></trkpt><trkpt lat="39.32421673" lon="-0.31839313"><ele>12.4</ele><time>2022-10-31T13:37:36.0000000+00:00</time></trkpt><trkpt lat="39.32416795" lon="-0.31836673"><ele>12.2</ele><time>2022-10-31T13:37:37.0000000+00:00</time></trkpt><trkpt lat="39.3241195" lon="-0.31833991"><ele>12.2</ele><time>2022-10-31T13:37:38.0000000+00:00</time></trkpt><trkpt lat="39.32406041" lon="-0.31831074"><ele>12.2</ele><time>2022-10-31T13:37:39.0000000+00:00</time></trkpt><trkpt lat="39.3240128" lon="-0.31829012"><ele>12.2</ele><time>2022-10-31T13:37:40.0000000+00:00</time></trkpt><trkpt lat="39.32396444" lon="-0.31826749"><ele>12.0</ele><time>2022-10-31T13:37:41.0000000+00:00</time></trkpt><trkpt lat="39.32391674" lon="-0.31824888"><ele>12.0</ele><time>2022-10-31T13:37:42.0000000+00:00</time></trkpt><trkpt lat="39.32386863" lon="-0.31822608"><ele>11.8</ele><time>2022-10-31T13:37:43.0000000+00:00</time></trkpt><trkpt lat="39.32382085" lon="-0.31820512"><ele>11.8</ele><time>2022-10-31T13:37:44.0000000+00:00</time></trkpt><trkpt lat="39.32377375" lon="-0.31818375"><ele>11.8</ele><time>2022-10-31T13:37:45.0000000+00:00</time></trkpt><trkpt lat="39.32372605" lon="-0.31816053"><ele>11.8</ele><time>2022-10-31T13:37:46.0000000+00:00</time></trkpt><trkpt lat="39.32367937" lon="-0.31813815"><ele>11.8</ele><time>2022-10-31T13:37:47.0000000+00:00</time></trkpt><trkpt lat="39.32363159" lon="-0.31811762"><ele>11.8</ele><time>2022-10-31T13:37:48.0000000+00:00</time></trkpt><trkpt lat="39.32358675" lon="-0.31810379"><ele>11.8</ele><time>2022-10-31T13:37:49.0000000+00:00</time></trkpt><trkpt lat="39.32354199" lon="-0.31809356"><ele>11.8</ele><time>2022-10-31T13:37:50.0000000+00:00</time></trkpt><trkpt lat="39.32349555" lon="-0.31808627"><ele>11.8</ele><time>2022-10-31T13:37:51.0000000+00:00</time></trkpt><trkpt lat="39.32345197" lon="-0.31807864"><ele>11.8</ele><time>2022-10-31T13:37:52.0000000+00:00</time></trkpt><trkpt lat="39.32340763" lon="-0.31807168"><ele>11.6</ele><time>2022-10-31T13:37:53.0000000+00:00</time></trkpt><trkpt lat="39.32336387" lon="-0.31806205"><ele>11.6</ele><time>2022-10-31T13:37:54.0000000+00:00</time></trkpt><trkpt lat="39.32332858" lon="-0.31805316"><ele>11.6</ele><time>2022-10-31T13:37:55.0000000+00:00</time></trkpt><trkpt lat="39.32328433" lon="-0.31804159"><ele>11.4</ele><time>2022-10-31T13:37:56.0000000+00:00</time></trkpt><trkpt lat="39.32324057" lon="-0.31803438"><ele>11.4</ele><time>2022-10-31T13:37:57.0000000+00:00</time></trkpt><trkpt lat="39.32319406" lon="-0.31802994"><ele>11.2</ele><time>2022-10-31T13:37:58.0000000+00:00</time></trkpt><trkpt lat="39.32313714" lon="-0.31802131"><ele>11.2</ele><time>2022-10-31T13:37:59.0000000+00:00</time></trkpt><trkpt lat="39.32308853" lon="-0.31801368"><ele>11.2</ele><time>2022-10-31T13:38:00.0000000+00:00</time></trkpt><trkpt lat="39.32304444" lon="-0.31800563"><ele>11.2</ele><time>2022-10-31T13:38:01.0000000+00:00</time></trkpt><trkpt lat="39.32299943" lon="-0.31800136"><ele>11.2</ele><time>2022-10-31T13:38:02.0000000+00:00</time></trkpt><trkpt lat="39.3229571" lon="-0.31799566"><ele>11.2</ele><time>2022-10-31T13:38:03.0000000+00:00</time></trkpt><trkpt lat="39.32291385" lon="-0.31798812"><ele>11.2</ele><time>2022-10-31T13:38:04.0000000+00:00</time></trkpt><trkpt lat="39.32287093" lon="-0.31798384"><ele>11.2</ele><time>2022-10-31T13:38:05.0000000+00:00</time></trkpt><trkpt lat="39.3228307" lon="-0.31798116"><ele>11.2</ele><time>2022-10-31T13:38:06.0000000+00:00</time></trkpt><trkpt lat="39.32278854" lon="-0.31797529"><ele>11.2</ele><time>2022-10-31T13:38:07.0000000+00:00</time></trkpt><trkpt lat="39.32275032" lon="-0.31797068"><ele>11.2</ele><time>2022-10-31T13:38:08.0000000+00:00</time></trkpt><trkpt lat="39.32271168" lon="-0.31796431"><ele>11.2</ele><time>2022-10-31T13:38:09.0000000+00:00</time></trkpt><trkpt lat="39.32267513" lon="-0.31796021"><ele>11.2</ele><time>2022-10-31T13:38:10.0000000+00:00</time></trkpt><trkpt lat="39.32264219" lon="-0.3179566"><ele>11.2</ele><time>2022-10-31T13:38:11.0000000+00:00</time></trkpt><trkpt lat="39.32260757" lon="-0.31795501"><ele>11.2</ele><time>2022-10-31T13:38:12.0000000+00:00</time></trkpt><trkpt lat="39.32257212" lon="-0.31794763"><ele>11.2</ele><time>2022-10-31T13:38:13.0000000+00:00</time></trkpt><trkpt lat="39.32253859" lon="-0.31793992"><ele>11.2</ele><time>2022-10-31T13:38:14.0000000+00:00</time></trkpt><trkpt lat="39.32250305" lon="-0.31793389"><ele>11.2</ele><time>2022-10-31T13:38:15.0000000+00:00</time></trkpt><trkpt lat="39.32247304" lon="-0.31793305"><ele>11.2</ele><time>2022-10-31T13:38:16.0000000+00:00</time></trkpt><trkpt lat="39.32244455" lon="-0.3179307"><ele>11.2</ele><time>2022-10-31T13:38:17.0000000+00:00</time></trkpt><trkpt lat="39.32242041" lon="-0.31792768"><ele>11.2</ele><time>2022-10-31T13:38:18.0000000+00:00</time></trkpt><trkpt lat="39.3223914" lon="-0.31792576"><ele>11.2</ele><time>2022-10-31T13:38:19.0000000+00:00</time></trkpt><trkpt lat="39.3223593" lon="-0.31792349"><ele>11.2</ele><time>2022-10-31T13:38:20.0000000+00:00</time></trkpt><trkpt lat="39.32233156" lon="-0.3179188"><ele>11.2</ele><time>2022-10-31T13:38:21.0000000+00:00</time></trkpt><trkpt lat="39.32230557" lon="-0.31791586"><ele>11.2</ele><time>2022-10-31T13:38:22.0000000+00:00</time></trkpt><trkpt lat="39.32228386" lon="-0.31791578"><ele>11.2</ele><time>2022-10-31T13:38:23.0000000+00:00</time></trkpt><trkpt lat="39.32225151" lon="-0.31791545"><ele>11.2</ele><time>2022-10-31T13:38:24.0000000+00:00</time></trkpt><trkpt lat="39.32222611" lon="-0.31791167"><ele>11.2</ele><time>2022-10-31T13:38:25.0000000+00:00</time></trkpt><trkpt lat="39.32220122" lon="-0.31790639"><ele>11.2</ele><time>2022-10-31T13:38:26.0000000+00:00</time></trkpt><trkpt lat="39.32217591" lon="-0.31790514"><ele>11.2</ele><time>2022-10-31T13:38:27.0000000+00:00</time></trkpt><trkpt lat="39.32215294" lon="-0.31790354"><ele>11.2</ele><time>2022-10-31T13:38:28.0000000+00:00</time></trkpt><trkpt lat="39.32212855" lon="-0.31790488"><ele>11.2</ele><time>2022-10-31T13:38:29.0000000+00:00</time></trkpt><trkpt lat="39.3220977" lon="-0.31790312"><ele>11.2</ele><time>2022-10-31T13:38:30.0000000+00:00</time></trkpt><trkpt lat="39.32206317" lon="-0.31790136"><ele>11.2</ele><time>2022-10-31T13:38:31.0000000+00:00</time></trkpt><trkpt lat="39.32202922" lon="-0.31790178"><ele>11.2</ele><time>2022-10-31T13:38:32.0000000+00:00</time></trkpt><trkpt lat="39.32199435" lon="-0.31790162"><ele>11.2</ele><time>2022-10-31T13:38:33.0000000+00:00</time></trkpt><trkpt lat="39.32195772" lon="-0.31790162"><ele>11.2</ele><time>2022-10-31T13:38:34.0000000+00:00</time></trkpt><trkpt lat="39.32192353" lon="-0.31790447"><ele>11.0</ele><time>2022-10-31T13:38:35.0000000+00:00</time></trkpt><trkpt lat="39.32188757" lon="-0.31790757"><ele>11.0</ele><time>2022-10-31T13:38:36.0000000+00:00</time></trkpt><trkpt lat="39.32185278" lon="-0.31791"><ele>11.0</ele><time>2022-10-31T13:38:37.0000000+00:00</time></trkpt><trkpt lat="39.321818" lon="-0.31791017"><ele>11.0</ele><time>2022-10-31T13:38:38.0000000+00:00</time></trkpt><trkpt lat="39.32178372" lon="-0.31790882"><ele>11.0</ele><time>2022-10-31T13:38:39.0000000+00:00</time></trkpt><trkpt lat="39.32174969" lon="-0.31791"><ele>11.0</ele><time>2022-10-31T13:38:40.0000000+00:00</time></trkpt><trkpt lat="39.32171758" lon="-0.3179167"><ele>11.0</ele><time>2022-10-31T13:38:41.0000000+00:00</time></trkpt><trkpt lat="39.32168992" lon="-0.31792542"><ele>11.0</ele><time>2022-10-31T13:38:42.0000000+00:00</time></trkpt><trkpt lat="39.32166302" lon="-0.31793489"><ele>11.2</ele><time>2022-10-31T13:38:43.0000000+00:00</time></trkpt><trkpt lat="39.32164977" lon="-0.31793774"><ele>11.2</ele><time>2022-10-31T13:38:44.0000000+00:00</time></trkpt><trkpt lat="39.32163687" lon="-0.3179416"><ele>11.2</ele><time>2022-10-31T13:38:45.0000000+00:00</time></trkpt><trkpt lat="39.32162773" lon="-0.31793883"><ele>11.2</ele><time>2022-10-31T13:38:46.0000000+00:00</time></trkpt><trkpt lat="39.32162253" lon="-0.31793623"><ele>11.2</ele><time>2022-10-31T13:38:47.0000000+00:00</time></trkpt><trkpt lat="39.32162253" lon="-0.31793623"><ele>11.2</ele><time>2022-10-31T13:38:48.0000000+00:00</time></trkpt><trkpt lat="39.32162253" lon="-0.31793623"><ele>11.2</ele><time>2022-10-31T13:38:49.0000000+00:00</time></trkpt><trkpt lat="39.32162253" lon="-0.31793623"><ele>11.2</ele><time>2022-10-31T13:38:50.0000000+00:00</time></trkpt><trkpt lat="39.32162253" lon="-0.31793623"><ele>11.2</ele><time>2022-10-31T13:38:51.0000000+00:00</time></trkpt><trkpt lat="39.32162253" lon="-0.31793623"><ele>11.2</ele><time>2022-10-31T13:38:52.0000000+00:00</time></trkpt><trkpt lat="39.32162253" lon="-0.31793623"><ele>11.2</ele><time>2022-10-31T13:38:53.0000000+00:00</time></trkpt><trkpt lat="39.32162253" lon="-0.31793623"><ele>11.2</ele><time>2022-10-31T13:38:54.0000000+00:00</time></trkpt><trkpt lat="39.32162253" lon="-0.31793623"><ele>11.2</ele><time>2022-10-31T13:38:55.0000000+00:00</time></trkpt><trkpt lat="39.32162253" lon="-0.31793623"><ele>11.0</ele><time>2022-10-31T13:38:56.0000000+00:00</time></trkpt><trkpt lat="39.32162253" lon="-0.31793623"><ele>11.0</ele><time>2022-10-31T13:38:57.0000000+00:00</time></trkpt><trkpt lat="39.32162253" lon="-0.31793623"><ele>11.2</ele><time>2022-10-31T13:38:58.0000000+00:00</time></trkpt><trkpt lat="39.32162253" lon="-0.31793623"><ele>11.0</ele><time>2022-10-31T13:38:59.0000000+00:00</time></trkpt><trkpt lat="39.32162253" lon="-0.31793623"><ele>11.0</ele><time>2022-10-31T13:39:00.0000000+00:00</time></trkpt><trkpt lat="39.32162253" lon="-0.31793623"><ele>11.2</ele><time>2022-10-31T13:39:01.0000000+00:00</time></trkpt><trkpt lat="39.32162253" lon="-0.31793623"><ele>11.2</ele><time>2022-10-31T13:39:02.0000000+00:00</time></trkpt><trkpt lat="39.32162253" lon="-0.31793623"><ele>11.2</ele><time>2022-10-31T13:39:03.0000000+00:00</time></trkpt><trkpt lat="39.32162253" lon="-0.31793623"><ele>11.2</ele><time>2022-10-31T13:39:04.0000000+00:00</time></trkpt><trkpt lat="39.32162253" lon="-0.31793623"><ele>11.2</ele><time>2022-10-31T13:39:05.0000000+00:00</time></trkpt><trkpt lat="39.32162253" lon="-0.31793623"><ele>11.2</ele><time>2022-10-31T13:39:06.0000000+00:00</time></trkpt><trkpt lat="39.32162253" lon="-0.31793623"><ele>11.2</ele><time>2022-10-31T13:39:07.0000000+00:00</time></trkpt><trkpt lat="39.32162253" lon="-0.31793623"><ele>11.2</ele><time>2022-10-31T13:39:08.0000000+00:00</time></trkpt><trkpt lat="39.32162253" lon="-0.31793623"><ele>11.2</ele><time>2022-10-31T13:39:09.0000000+00:00</time></trkpt><trkpt lat="39.32162253" lon="-0.31793623"><ele>11.2</ele><time>2022-10-31T13:39:10.0000000+00:00</time></trkpt><trkpt lat="39.32162253" lon="-0.31793623"><ele>11.0</ele><time>2022-10-31T13:39:11.0000000+00:00</time></trkpt><trkpt lat="39.32162253" lon="-0.31793623"><ele>11.0</ele><time>2022-10-31T13:39:12.0000000+00:00</time></trkpt><trkpt lat="39.32162253" lon="-0.31793623"><ele>11.0</ele><time>2022-10-31T13:39:13.0000000+00:00</time></trkpt><trkpt lat="39.32162253" lon="-0.31793623"><ele>11.0</ele><time>2022-10-31T13:39:14.0000000+00:00</time></trkpt><trkpt lat="39.32162253" lon="-0.31793623"><ele>11.0</ele><time>2022-10-31T13:39:15.0000000+00:00</time></trkpt><trkpt lat="39.32162253" lon="-0.31793623"><ele>11.0</ele><time>2022-10-31T13:39:16.0000000+00:00</time></trkpt><trkpt lat="39.32162253" lon="-0.31793623"><ele>11.0</ele><time>2022-10-31T13:39:17.0000000+00:00</time></trkpt><trkpt lat="39.32162253" lon="-0.31793623"><ele>11.0</ele><time>2022-10-31T13:39:18.0000000+00:00</time></trkpt><trkpt lat="39.32162253" lon="-0.31793623"><ele>11.0</ele><time>2022-10-31T13:39:19.0000000+00:00</time></trkpt><trkpt lat="39.32162253" lon="-0.31793623"><ele>11.0</ele><time>2022-10-31T13:39:20.0000000+00:00</time></trkpt><trkpt lat="39.32162253" lon="-0.31793623"><ele>11.0</ele><time>2022-10-31T13:39:21.0000000+00:00</time></trkpt><trkpt lat="39.32162253" lon="-0.31793623"><ele>11.0</ele><time>2022-10-31T13:39:22.0000000+00:00</time></trkpt><trkpt lat="39.32162253" lon="-0.31793623"><ele>11.0</ele><time>2022-10-31T13:39:23.0000000+00:00</time></trkpt><trkpt lat="39.32162253" lon="-0.31793623"><ele>11.0</ele><time>2022-10-31T13:39:24.0000000+00:00</time></trkpt><trkpt lat="39.32162253" lon="-0.31793623"><ele>11.0</ele><time>2022-10-31T13:39:25.0000000+00:00</time></trkpt><trkpt lat="39.32162253" lon="-0.31793623"><ele>11.0</ele><time>2022-10-31T13:39:26.0000000+00:00</time></trkpt><trkpt lat="39.32162253" lon="-0.31793623"><ele>11.0</ele><time>2022-10-31T13:39:27.0000000+00:00</time></trkpt><trkpt lat="39.32162253" lon="-0.31793623"><ele>11.0</ele><time>2022-10-31T13:39:28.0000000+00:00</time></trkpt><trkpt lat="39.32162253" lon="-0.31793623"><ele>11.0</ele><time>2022-10-31T13:39:29.0000000+00:00</time></trkpt><trkpt lat="39.32162253" lon="-0.31793623"><ele>11.0</ele><time>2022-10-31T13:39:30.0000000+00:00</time></trkpt><trkpt lat="39.32162253" lon="-0.31793623"><ele>11.0</ele><time>2022-10-31T13:39:31.0000000+00:00</time></trkpt><trkpt lat="39.32162253" lon="-0.31793623"><ele>11.0</ele><time>2022-10-31T13:39:32.0000000+00:00</time></trkpt><trkpt lat="39.32162253" lon="-0.31793623"><ele>11.0</ele><time>2022-10-31T13:39:33.0000000+00:00</time></trkpt><trkpt lat="39.32162253" lon="-0.31793623"><ele>11.0</ele><time>2022-10-31T13:39:34.0000000+00:00</time></trkpt><trkpt lat="39.32162253" lon="-0.31793623"><ele>11.0</ele><time>2022-10-31T13:39:35.0000000+00:00</time></trkpt><trkpt lat="39.32162253" lon="-0.31793623"><ele>11.0</ele><time>2022-10-31T13:39:36.0000000+00:00</time></trkpt><trkpt lat="39.32162253" lon="-0.31793623"><ele>11.0</ele><time>2022-10-31T13:39:37.0000000+00:00</time></trkpt><trkpt lat="39.32162253" lon="-0.31793623"><ele>11.0</ele><time>2022-10-31T13:39:38.0000000+00:00</time></trkpt><trkpt lat="39.32162253" lon="-0.31793623"><ele>11.0</ele><time>2022-10-31T13:39:39.0000000+00:00</time></trkpt><trkpt lat="39.32162253" lon="-0.31793623"><ele>11.0</ele><time>2022-10-31T13:39:40.0000000+00:00</time></trkpt><trkpt lat="39.32162253" lon="-0.31793623"><ele>11.0</ele><time>2022-10-31T13:39:41.0000000+00:00</time></trkpt><trkpt lat="39.32162253" lon="-0.31793623"><ele>11.0</ele><time>2022-10-31T13:39:42.0000000+00:00</time></trkpt><trkpt lat="39.32162253" lon="-0.31793623"><ele>11.0</ele><time>2022-10-31T13:39:43.0000000+00:00</time></trkpt><trkpt lat="39.32162253" lon="-0.31793623"><ele>11.0</ele><time>2022-10-31T13:39:44.0000000+00:00</time></trkpt><trkpt lat="39.32162253" lon="-0.31793623"><ele>11.0</ele><time>2022-10-31T13:39:45.0000000+00:00</time></trkpt><trkpt lat="39.32162253" lon="-0.31793623"><ele>11.0</ele><time>2022-10-31T13:39:46.0000000+00:00</time></trkpt><trkpt lat="39.32162253" lon="-0.31793623"><ele>11.0</ele><time>2022-10-31T13:39:47.0000000+00:00</time></trkpt><trkpt lat="39.32162253" lon="-0.31793623"><ele>11.0</ele><time>2022-10-31T13:39:48.0000000+00:00</time></trkpt><trkpt lat="39.32162253" lon="-0.31793623"><ele>11.0</ele><time>2022-10-31T13:39:49.0000000+00:00</time></trkpt><trkpt lat="39.32162253" lon="-0.31793623"><ele>11.0</ele><time>2022-10-31T13:39:50.0000000+00:00</time></trkpt><trkpt lat="39.32162253" lon="-0.31793623"><ele>11.0</ele><time>2022-10-31T13:39:51.0000000+00:00</time></trkpt><trkpt lat="39.32162253" lon="-0.31793623"><ele>11.0</ele><time>2022-10-31T13:39:52.0000000+00:00</time></trkpt><trkpt lat="39.32162253" lon="-0.31793623"><ele>11.0</ele><time>2022-10-31T13:39:53.0000000+00:00</time></trkpt><trkpt lat="39.32162253" lon="-0.31793623"><ele>11.0</ele><time>2022-10-31T13:39:54.0000000+00:00</time></trkpt><trkpt lat="39.32162253" lon="-0.31793623"><ele>11.0</ele><time>2022-10-31T13:39:55.0000000+00:00</time></trkpt><trkpt lat="39.32162253" lon="-0.31793623"><ele>11.0</ele><time>2022-10-31T13:39:56.0000000+00:00</time></trkpt><trkpt lat="39.32162253" lon="-0.31793623"><ele>11.0</ele><time>2022-10-31T13:39:57.0000000+00:00</time></trkpt><trkpt lat="39.32162253" lon="-0.31793623"><ele>11.0</ele><time>2022-10-31T13:39:58.0000000+00:00</time></trkpt><trkpt lat="39.32162253" lon="-0.31793623"><ele>11.0</ele><time>2022-10-31T13:39:59.0000000+00:00</time></trkpt><trkpt lat="39.32162253" lon="-0.31793623"><ele>11.0</ele><time>2022-10-31T13:40:00.0000000+00:00</time></trkpt><trkpt lat="39.32162253" lon="-0.31793623"><ele>11.0</ele><time>2022-10-31T13:40:01.0000000+00:00</time></trkpt><trkpt lat="39.32162253" lon="-0.31793623"><ele>11.0</ele><time>2022-10-31T13:40:02.0000000+00:00</time></trkpt><trkpt lat="39.32162253" lon="-0.31793623"><ele>11.0</ele><time>2022-10-31T13:40:03.0000000+00:00</time></trkpt><trkpt lat="39.32162253" lon="-0.31793623"><ele>11.0</ele><time>2022-10-31T13:40:04.0000000+00:00</time></trkpt><trkpt lat="39.32162253" lon="-0.31793623"><ele>11.0</ele><time>2022-10-31T13:40:05.0000000+00:00</time></trkpt><trkpt lat="39.32162253" lon="-0.31793623"><ele>11.0</ele><time>2022-10-31T13:40:06.0000000+00:00</time></trkpt><trkpt lat="39.32162253" lon="-0.31793623"><ele>11.0</ele><time>2022-10-31T13:40:07.0000000+00:00</time></trkpt><trkpt lat="39.32162253" lon="-0.31793623"><ele>11.0</ele><time>2022-10-31T13:40:08.0000000+00:00</time></trkpt><trkpt lat="39.32162253" lon="-0.31793623"><ele>11.0</ele><time>2022-10-31T13:40:09.0000000+00:00</time></trkpt><trkpt lat="39.32162253" lon="-0.31793623"><ele>11.0</ele><time>2022-10-31T13:40:10.0000000+00:00</time></trkpt><trkpt lat="39.32162253" lon="-0.31793623"><ele>11.0</ele><time>2022-10-31T13:40:11.0000000+00:00</time></trkpt><trkpt lat="39.32162253" lon="-0.31793623"><ele>11.0</ele><time>2022-10-31T13:40:12.0000000+00:00</time></trkpt><trkpt lat="39.32162253" lon="-0.31793623"><ele>11.0</ele><time>2022-10-31T13:40:13.0000000+00:00</time></trkpt><trkpt lat="39.32162253" lon="-0.31793623"><ele>11.0</ele><time>2022-10-31T13:40:14.0000000+00:00</time></trkpt><trkpt lat="39.32162253" lon="-0.31793623"><ele>11.0</ele><time>2022-10-31T13:40:15.0000000+00:00</time></trkpt><trkpt lat="39.32162253" lon="-0.31793623"><ele>11.0</ele><time>2022-10-31T13:40:16.0000000+00:00</time></trkpt><trkpt lat="39.32162253" lon="-0.31793623"><ele>11.0</ele><time>2022-10-31T13:40:17.0000000+00:00</time></trkpt><trkpt lat="39.32162253" lon="-0.31793623"><ele>11.0</ele><time>2022-10-31T13:40:18.0000000+00:00</time></trkpt><trkpt lat="39.32162253" lon="-0.31793623"><ele>11.0</ele><time>2022-10-31T13:40:19.0000000+00:00</time></trkpt><trkpt lat="39.32162253" lon="-0.31793623"><ele>11.0</ele><time>2022-10-31T13:40:20.0000000+00:00</time></trkpt><trkpt lat="39.32162253" lon="-0.31793623"><ele>11.0</ele><time>2022-10-31T13:40:21.0000000+00:00</time></trkpt><trkpt lat="39.32162253" lon="-0.31793623"><ele>11.0</ele><time>2022-10-31T13:40:22.0000000+00:00</time></trkpt><trkpt lat="39.32162253" lon="-0.31793623"><ele>11.0</ele><time>2022-10-31T13:40:23.0000000+00:00</time></trkpt><trkpt lat="39.32162253" lon="-0.31793623"><ele>11.0</ele><time>2022-10-31T13:40:24.0000000+00:00</time></trkpt><trkpt lat="39.32162253" lon="-0.31793623"><ele>11.0</ele><time>2022-10-31T13:40:25.0000000+00:00</time></trkpt><trkpt lat="39.32162253" lon="-0.31793623"><ele>11.0</ele><time>2022-10-31T13:40:26.0000000+00:00</time></trkpt><trkpt lat="39.32162253" lon="-0.31793623"><ele>11.0</ele><time>2022-10-31T13:40:27.0000000+00:00</time></trkpt><trkpt lat="39.32162253" lon="-0.31793623"><ele>11.0</ele><time>2022-10-31T13:40:28.0000000+00:00</time></trkpt><trkpt lat="39.32162253" lon="-0.31793623"><ele>11.0</ele><time>2022-10-31T13:40:29.0000000+00:00</time></trkpt><trkpt lat="39.32162253" lon="-0.31793623"><ele>11.0</ele><time>2022-10-31T13:40:30.0000000+00:00</time></trkpt><trkpt lat="39.32162253" lon="-0.31793623"><ele>11.0</ele><time>2022-10-31T13:40:31.0000000+00:00</time></trkpt><trkpt lat="39.32162253" lon="-0.31793623"><ele>11.0</ele><time>2022-10-31T13:40:32.0000000+00:00</time></trkpt><trkpt lat="39.32162253" lon="-0.31793623"><ele>11.0</ele><time>2022-10-31T13:40:33.0000000+00:00</time></trkpt><trkpt lat="39.32162253" lon="-0.31793623"><ele>11.0</ele><time>2022-10-31T13:40:34.0000000+00:00</time></trkpt><trkpt lat="39.32162253" lon="-0.31793623"><ele>11.0</ele><time>2022-10-31T13:40:35.0000000+00:00</time></trkpt><trkpt lat="39.32162253" lon="-0.31793623"><ele>11.0</ele><time>2022-10-31T13:40:36.0000000+00:00</time></trkpt><trkpt lat="39.32162253" lon="-0.31793623"><ele>11.0</ele><time>2022-10-31T13:40:37.0000000+00:00</time></trkpt><trkpt lat="39.32162253" lon="-0.31793623"><ele>11.0</ele><time>2022-10-31T13:40:38.0000000+00:00</time></trkpt><trkpt lat="39.32162253" lon="-0.31793623"><ele>11.0</ele><time>2022-10-31T13:40:39.0000000+00:00</time></trkpt><trkpt lat="39.32162253" lon="-0.31793623"><ele>11.0</ele><time>2022-10-31T13:40:40.0000000+00:00</time></trkpt><trkpt lat="39.32162253" lon="-0.31793623"><ele>11.0</ele><time>2022-10-31T13:40:41.0000000+00:00</time></trkpt><trkpt lat="39.32162253" lon="-0.31793623"><ele>11.0</ele><time>2022-10-31T13:40:42.0000000+00:00</time></trkpt><trkpt lat="39.32162253" lon="-0.31793623"><ele>11.0</ele><time>2022-10-31T13:40:43.0000000+00:00</time></trkpt><trkpt lat="39.32162253" lon="-0.31793623"><ele>11.0</ele><time>2022-10-31T13:40:44.0000000+00:00</time></trkpt><trkpt lat="39.32162253" lon="-0.31793623"><ele>11.0</ele><time>2022-10-31T13:40:45.0000000+00:00</time></trkpt><trkpt lat="39.32162253" lon="-0.31793623"><ele>11.0</ele><time>2022-10-31T13:40:46.0000000+00:00</time></trkpt><trkpt lat="39.32162253" lon="-0.31793623"><ele>11.0</ele><time>2022-10-31T13:40:47.0000000+00:00</time></trkpt><trkpt lat="39.32162253" lon="-0.31793623"><ele>11.0</ele><time>2022-10-31T13:40:48.0000000+00:00</time></trkpt><trkpt lat="39.32162253" lon="-0.31793623"><ele>11.0</ele><time>2022-10-31T13:40:49.0000000+00:00</time></trkpt><trkpt lat="39.32162253" lon="-0.31793623"><ele>11.0</ele><time>2022-10-31T13:40:50.0000000+00:00</time></trkpt><trkpt lat="39.32162253" lon="-0.31793623"><ele>11.0</ele><time>2022-10-31T13:40:51.0000000+00:00</time></trkpt><trkpt lat="39.32162253" lon="-0.31793623"><ele>11.0</ele><time>2022-10-31T13:40:52.0000000+00:00</time></trkpt><trkpt lat="39.32162253" lon="-0.31793623"><ele>11.0</ele><time>2022-10-31T13:40:53.0000000+00:00</time></trkpt><trkpt lat="39.32162253" lon="-0.31793623"><ele>11.0</ele><time>2022-10-31T13:40:54.0000000+00:00</time></trkpt><trkpt lat="39.32162253" lon="-0.31793623"><ele>11.0</ele><time>2022-10-31T13:40:55.0000000+00:00</time></trkpt><trkpt lat="39.32162253" lon="-0.31793623"><ele>11.0</ele><time>2022-10-31T13:40:56.0000000+00:00</time></trkpt><trkpt lat="39.32162253" lon="-0.31793623"><ele>11.0</ele><time>2022-10-31T13:40:57.0000000+00:00</time></trkpt><trkpt lat="39.32162253" lon="-0.31793623"><ele>11.0</ele><time>2022-10-31T13:40:58.0000000+00:00</time></trkpt><trkpt lat="39.32162253" lon="-0.31793623"><ele>11.0</ele><time>2022-10-31T13:40:59.0000000+00:00</time></trkpt><trkpt lat="39.32162253" lon="-0.31793623"><ele>11.0</ele><time>2022-10-31T13:41:00.0000000+00:00</time></trkpt><trkpt lat="39.32162253" lon="-0.31793623"><ele>11.0</ele><time>2022-10-31T13:41:01.0000000+00:00</time></trkpt><trkpt lat="39.32162253" lon="-0.31793623"><ele>11.0</ele><time>2022-10-31T13:41:02.0000000+00:00</time></trkpt><trkpt lat="39.32162253" lon="-0.31793623"><ele>11.0</ele><time>2022-10-31T13:41:03.0000000+00:00</time></trkpt><trkpt lat="39.32162253" lon="-0.31793623"><ele>11.0</ele><time>2022-10-31T13:41:04.0000000+00:00</time></trkpt><trkpt lat="39.32162253" lon="-0.31793623"><ele>11.0</ele><time>2022-10-31T13:41:05.0000000+00:00</time></trkpt><trkpt lat="39.32162253" lon="-0.31793623"><ele>11.0</ele><time>2022-10-31T13:41:06.0000000+00:00</time></trkpt><trkpt lat="39.32162253" lon="-0.31793623"><ele>11.0</ele><time>2022-10-31T13:41:07.0000000+00:00</time></trkpt><trkpt lat="39.32162253" lon="-0.31793623"><ele>11.0</ele><time>2022-10-31T13:41:08.0000000+00:00</time></trkpt><trkpt lat="39.32162253" lon="-0.31793623"><ele>11.0</ele><time>2022-10-31T13:41:09.0000000+00:00</time></trkpt><trkpt lat="39.32162253" lon="-0.31793623"><ele>11.0</ele><time>2022-10-31T13:41:10.0000000+00:00</time></trkpt><trkpt lat="39.3216222" lon="-0.31793648"><ele>11.0</ele><time>2022-10-31T13:41:11.0000000+00:00</time></trkpt><trkpt lat="39.32161775" lon="-0.31793481"><ele>11.0</ele><time>2022-10-31T13:41:12.0000000+00:00</time></trkpt><trkpt lat="39.32160636" lon="-0.31793204"><ele>11.0</ele><time>2022-10-31T13:41:13.0000000+00:00</time></trkpt><trkpt lat="39.32159454" lon="-0.31792726"><ele>11.0</ele><time>2022-10-31T13:41:14.0000000+00:00</time></trkpt><trkpt lat="39.32158331" lon="-0.31792224"><ele>11.0</ele><time>2022-10-31T13:41:15.0000000+00:00</time></trkpt><trkpt lat="39.32156352" lon="-0.31791511"><ele>11.0</ele><time>2022-10-31T13:41:16.0000000+00:00</time></trkpt><trkpt lat="39.32154316" lon="-0.31791234"><ele>11.0</ele><time>2022-10-31T13:41:17.0000000+00:00</time></trkpt><trkpt lat="39.32151675" lon="-0.31791452"><ele>11.0</ele><time>2022-10-31T13:41:18.0000000+00:00</time></trkpt><trkpt lat="39.32148775" lon="-0.3179167"><ele>11.0</ele><time>2022-10-31T13:41:19.0000000+00:00</time></trkpt><trkpt lat="39.32145556" lon="-0.31791184"><ele>11.0</ele><time>2022-10-31T13:41:20.0000000+00:00</time></trkpt><trkpt lat="39.32142061" lon="-0.31790681"><ele>11.0</ele><time>2022-10-31T13:41:21.0000000+00:00</time></trkpt><trkpt lat="39.32138256" lon="-0.31790011"><ele>11.0</ele><time>2022-10-31T13:41:22.0000000+00:00</time></trkpt><trkpt lat="39.32134249" lon="-0.31789223"><ele>11.0</ele><time>2022-10-31T13:41:23.0000000+00:00</time></trkpt><trkpt lat="39.32130301" lon="-0.31788452"><ele>11.0</ele><time>2022-10-31T13:41:24.0000000+00:00</time></trkpt><trkpt lat="39.32126479" lon="-0.31788041"><ele>11.0</ele><time>2022-10-31T13:41:25.0000000+00:00</time></trkpt><trkpt lat="39.32122473" lon="-0.31787999"><ele>11.0</ele><time>2022-10-31T13:41:26.0000000+00:00</time></trkpt><trkpt lat="39.32118181" lon="-0.31787538"><ele>11.0</ele><time>2022-10-31T13:41:27.0000000+00:00</time></trkpt><trkpt lat="39.32113856" lon="-0.31787094"><ele>11.0</ele><time>2022-10-31T13:41:28.0000000+00:00</time></trkpt><trkpt lat="39.32109053" lon="-0.31786474"><ele>11.0</ele><time>2022-10-31T13:41:29.0000000+00:00</time></trkpt><trkpt lat="39.32104955" lon="-0.31785853"><ele>11.0</ele><time>2022-10-31T13:41:30.0000000+00:00</time></trkpt><trkpt lat="39.32100881" lon="-0.31784755"><ele>11.0</ele><time>2022-10-31T13:41:31.0000000+00:00</time></trkpt><trkpt lat="39.32096112" lon="-0.31783959"><ele>11.0</ele><time>2022-10-31T13:41:32.0000000+00:00</time></trkpt><trkpt lat="39.32090772" lon="-0.31783749"><ele>11.2</ele><time>2022-10-31T13:41:33.0000000+00:00</time></trkpt><trkpt lat="39.32086447" lon="-0.31783431"><ele>11.2</ele><time>2022-10-31T13:41:34.0000000+00:00</time></trkpt><trkpt lat="39.32082793" lon="-0.31782911"><ele>11.2</ele><time>2022-10-31T13:41:35.0000000+00:00</time></trkpt><trkpt lat="39.32077915" lon="-0.31781897"><ele>11.2</ele><time>2022-10-31T13:41:36.0000000+00:00</time></trkpt><trkpt lat="39.32072961" lon="-0.31780874"><ele>11.2</ele><time>2022-10-31T13:41:37.0000000+00:00</time></trkpt><trkpt lat="39.32067948" lon="-0.31780246"><ele>11.2</ele><time>2022-10-31T13:41:38.0000000+00:00</time></trkpt><trkpt lat="39.32062928" lon="-0.31779751"><ele>11.2</ele><time>2022-10-31T13:41:39.0000000+00:00</time></trkpt><trkpt lat="39.32058125" lon="-0.31779416"><ele>11.2</ele><time>2022-10-31T13:41:40.0000000+00:00</time></trkpt><trkpt lat="39.32053238" lon="-0.31779064"><ele>11.2</ele><time>2022-10-31T13:41:41.0000000+00:00</time></trkpt><trkpt lat="39.32048176" lon="-0.31778796"><ele>11.2</ele><time>2022-10-31T13:41:42.0000000+00:00</time></trkpt><trkpt lat="39.32042987" lon="-0.31778444"><ele>11.4</ele><time>2022-10-31T13:41:43.0000000+00:00</time></trkpt><trkpt lat="39.32036994" lon="-0.3177805"><ele>11.4</ele><time>2022-10-31T13:41:44.0000000+00:00</time></trkpt><trkpt lat="39.32031915" lon="-0.31777832"><ele>11.4</ele><time>2022-10-31T13:41:45.0000000+00:00</time></trkpt><trkpt lat="39.32027749" lon="-0.31777656"><ele>11.4</ele><time>2022-10-31T13:41:46.0000000+00:00</time></trkpt><trkpt lat="39.32022904" lon="-0.31777421"><ele>11.4</ele><time>2022-10-31T13:41:47.0000000+00:00</time></trkpt><trkpt lat="39.32018009" lon="-0.31777111"><ele>11.4</ele><time>2022-10-31T13:41:48.0000000+00:00</time></trkpt><trkpt lat="39.32011857" lon="-0.31776901"><ele>11.4</ele><time>2022-10-31T13:41:49.0000000+00:00</time></trkpt><trkpt lat="39.32007842" lon="-0.31776918"><ele>11.4</ele><time>2022-10-31T13:41:50.0000000+00:00</time></trkpt><trkpt lat="39.32002729" lon="-0.31776591"><ele>11.6</ele><time>2022-10-31T13:41:51.0000000+00:00</time></trkpt><trkpt lat="39.31996753" lon="-0.31776197"><ele>11.6</ele><time>2022-10-31T13:41:52.0000000+00:00</time></trkpt><trkpt lat="39.31991623" lon="-0.31775694"><ele>11.6</ele><time>2022-10-31T13:41:53.0000000+00:00</time></trkpt><trkpt lat="39.31987465" lon="-0.317753"><ele>11.8</ele><time>2022-10-31T13:41:54.0000000+00:00</time></trkpt><trkpt lat="39.31982235" lon="-0.3177463"><ele>11.8</ele><time>2022-10-31T13:41:55.0000000+00:00</time></trkpt><trkpt lat="39.31976988" lon="-0.3177406"><ele>11.8</ele><time>2022-10-31T13:41:56.0000000+00:00</time></trkpt><trkpt lat="39.3197159" lon="-0.31773691"><ele>11.8</ele><time>2022-10-31T13:41:57.0000000+00:00</time></trkpt><trkpt lat="39.31966511" lon="-0.31773238"><ele>12.0</ele><time>2022-10-31T13:41:58.0000000+00:00</time></trkpt><trkpt lat="39.31961096" lon="-0.31772551"><ele>11.8</ele><time>2022-10-31T13:41:59.0000000+00:00</time></trkpt><trkpt lat="39.31954717" lon="-0.31771721"><ele>11.8</ele><time>2022-10-31T13:42:00.0000000+00:00</time></trkpt><trkpt lat="39.31949596" lon="-0.31770858"><ele>11.8</ele><time>2022-10-31T13:42:01.0000000+00:00</time></trkpt><trkpt lat="39.31944047" lon="-0.31770338"><ele>11.8</ele><time>2022-10-31T13:42:02.0000000+00:00</time></trkpt><trkpt lat="39.31938389" lon="-0.31769944"><ele>11.8</ele><time>2022-10-31T13:42:03.0000000+00:00</time></trkpt><trkpt lat="39.31933972" lon="-0.31769743"><ele>11.8</ele><time>2022-10-31T13:42:04.0000000+00:00</time></trkpt><trkpt lat="39.31927552" lon="-0.31769483"><ele>11.8</ele><time>2022-10-31T13:42:05.0000000+00:00</time></trkpt><trkpt lat="39.31922095" lon="-0.31769048"><ele>11.8</ele><time>2022-10-31T13:42:06.0000000+00:00</time></trkpt><trkpt lat="39.31917887" lon="-0.31768813"><ele>11.8</ele><time>2022-10-31T13:42:07.0000000+00:00</time></trkpt><trkpt lat="39.31911425" lon="-0.31768008"><ele>11.8</ele><time>2022-10-31T13:42:08.0000000+00:00</time></trkpt><trkpt lat="39.31905759" lon="-0.31767312"><ele>11.8</ele><time>2022-10-31T13:42:09.0000000+00:00</time></trkpt><trkpt lat="39.31901123" lon="-0.31766642"><ele>11.8</ele><time>2022-10-31T13:42:10.0000000+00:00</time></trkpt><trkpt lat="39.31895549" lon="-0.31766223"><ele>11.8</ele><time>2022-10-31T13:42:11.0000000+00:00</time></trkpt><trkpt lat="39.31888836" lon="-0.31765938"><ele>11.8</ele><time>2022-10-31T13:42:12.0000000+00:00</time></trkpt><trkpt lat="39.31883354" lon="-0.31765544"><ele>11.8</ele><time>2022-10-31T13:42:13.0000000+00:00</time></trkpt><trkpt lat="39.31878769" lon="-0.317652"><ele>11.8</ele><time>2022-10-31T13:42:14.0000000+00:00</time></trkpt><trkpt lat="39.31871938" lon="-0.3176484"><ele>11.8</ele><time>2022-10-31T13:42:15.0000000+00:00</time></trkpt><trkpt lat="39.3186623" lon="-0.31764396"><ele>11.8</ele><time>2022-10-31T13:42:16.0000000+00:00</time></trkpt><trkpt lat="39.31860664" lon="-0.31763918"><ele>11.8</ele><time>2022-10-31T13:42:17.0000000+00:00</time></trkpt><trkpt lat="39.31856297" lon="-0.31763733"><ele>12.0</ele><time>2022-10-31T13:42:18.0000000+00:00</time></trkpt><trkpt lat="39.31849541" lon="-0.31763407"><ele>12.0</ele><time>2022-10-31T13:42:19.0000000+00:00</time></trkpt><trkpt lat="39.31844202" lon="-0.31763046"><ele>12.0</ele><time>2022-10-31T13:42:20.0000000+00:00</time></trkpt><trkpt lat="39.31839944" lon="-0.31762946"><ele>12.0</ele><time>2022-10-31T13:42:21.0000000+00:00</time></trkpt><trkpt lat="39.31834915" lon="-0.31762644"><ele>11.8</ele><time>2022-10-31T13:42:22.0000000+00:00</time></trkpt><trkpt lat="39.31829819" lon="-0.31761395"><ele>11.8</ele><time>2022-10-31T13:42:23.0000000+00:00</time></trkpt><trkpt lat="39.31825158" lon="-0.31760121"><ele>11.8</ele><time>2022-10-31T13:42:24.0000000+00:00</time></trkpt><trkpt lat="39.31819928" lon="-0.31758553"><ele>11.8</ele><time>2022-10-31T13:42:25.0000000+00:00</time></trkpt><trkpt lat="39.31815938" lon="-0.31756986"><ele>11.8</ele><time>2022-10-31T13:42:26.0000000+00:00</time></trkpt><trkpt lat="39.31813097" lon="-0.31755737"><ele>12.0</ele><time>2022-10-31T13:42:27.0000000+00:00</time></trkpt><trkpt lat="39.31809476" lon="-0.31753725"><ele>12.0</ele><time>2022-10-31T13:42:28.0000000+00:00</time></trkpt><trkpt lat="39.31807045" lon="-0.31752661"><ele>12.2</ele><time>2022-10-31T13:42:29.0000000+00:00</time></trkpt><trkpt lat="39.31805436" lon="-0.31751722"><ele>12.4</ele><time>2022-10-31T13:42:30.0000000+00:00</time></trkpt><trkpt lat="39.31803659" lon="-0.31750641"><ele>12.4</ele><time>2022-10-31T13:42:31.0000000+00:00</time></trkpt><trkpt lat="39.31802183" lon="-0.31749576"><ele>12.6</ele><time>2022-10-31T13:42:32.0000000+00:00</time></trkpt><trkpt lat="39.31800432" lon="-0.31748629"><ele>12.6</ele><time>2022-10-31T13:42:33.0000000+00:00</time></trkpt><trkpt lat="39.31799459" lon="-0.31748445"><ele>12.6</ele><time>2022-10-31T13:42:34.0000000+00:00</time></trkpt><trkpt lat="39.31798076" lon="-0.3174816"><ele>12.6</ele><time>2022-10-31T13:42:35.0000000+00:00</time></trkpt><trkpt lat="39.31797196" lon="-0.31747665"><ele>12.6</ele><time>2022-10-31T13:42:36.0000000+00:00</time></trkpt><trkpt lat="39.31796182" lon="-0.31747481"><ele>12.6</ele><time>2022-10-31T13:42:37.0000000+00:00</time></trkpt><trkpt lat="39.31795813" lon="-0.31747523"><ele>12.6</ele><time>2022-10-31T13:42:38.0000000+00:00</time></trkpt><trkpt lat="39.31795813" lon="-0.31747523"><ele>12.6</ele><time>2022-10-31T13:42:39.0000000+00:00</time></trkpt><trkpt lat="39.31795813" lon="-0.31747523"><ele>12.8</ele><time>2022-10-31T13:42:40.0000000+00:00</time></trkpt><trkpt lat="39.31795813" lon="-0.31747523"><ele>12.8</ele><time>2022-10-31T13:42:41.0000000+00:00</time></trkpt><trkpt lat="39.31795813" lon="-0.31747523"><ele>12.8</ele><time>2022-10-31T13:42:42.0000000+00:00</time></trkpt><trkpt lat="39.31795813" lon="-0.31747523"><ele>12.8</ele><time>2022-10-31T13:42:43.0000000+00:00</time></trkpt><trkpt lat="39.31795813" lon="-0.31747523"><ele>12.8</ele><time>2022-10-31T13:42:44.0000000+00:00</time></trkpt><trkpt lat="39.31795813" lon="-0.31747523"><ele>12.8</ele><time>2022-10-31T13:42:45.0000000+00:00</time></trkpt><trkpt lat="39.31795813" lon="-0.31747523"><ele>12.8</ele><time>2022-10-31T13:42:46.0000000+00:00</time></trkpt><trkpt lat="39.31795813" lon="-0.31747523"><ele>13.0</ele><time>2022-10-31T13:42:47.0000000+00:00</time></trkpt><trkpt lat="39.31795813" lon="-0.31747523"><ele>13.0</ele><time>2022-10-31T13:42:48.0000000+00:00</time></trkpt><trkpt lat="39.31795813" lon="-0.31747523"><ele>13.0</ele><time>2022-10-31T13:42:49.0000000+00:00</time></trkpt><trkpt lat="39.31795813" lon="-0.31747523"><ele>13.0</ele><time>2022-10-31T13:42:50.0000000+00:00</time></trkpt><trkpt lat="39.31795813" lon="-0.31747523"><ele>12.8</ele><time>2022-10-31T13:42:51.0000000+00:00</time></trkpt><trkpt lat="39.31795813" lon="-0.31747523"><ele>12.8</ele><time>2022-10-31T13:42:52.0000000+00:00</time></trkpt><trkpt lat="39.31795813" lon="-0.31747523"><ele>12.8</ele><time>2022-10-31T13:42:53.0000000+00:00</time></trkpt><trkpt lat="39.31795813" lon="-0.31747523"><ele>12.8</ele><time>2022-10-31T13:42:54.0000000+00:00</time></trkpt><trkpt lat="39.31795813" lon="-0.31747523"><ele>12.8</ele><time>2022-10-31T13:42:55.0000000+00:00</time></trkpt><trkpt lat="39.31795813" lon="-0.31747523"><ele>12.8</ele><time>2022-10-31T13:42:56.0000000+00:00</time></trkpt><trkpt lat="39.31795813" lon="-0.31747523"><ele>12.8</ele><time>2022-10-31T13:42:57.0000000+00:00</time></trkpt><trkpt lat="39.31795813" lon="-0.31747523"><ele>12.8</ele><time>2022-10-31T13:42:58.0000000+00:00</time></trkpt><trkpt lat="39.31795813" lon="-0.31747523"><ele>12.8</ele><time>2022-10-31T13:42:59.0000000+00:00</time></trkpt><trkpt lat="39.31795813" lon="-0.31747523"><ele>12.8</ele><time>2022-10-31T13:43:00.0000000+00:00</time></trkpt><trkpt lat="39.31795813" lon="-0.31747523"><ele>12.8</ele><time>2022-10-31T13:43:01.0000000+00:00</time></trkpt><trkpt lat="39.31795813" lon="-0.31747523"><ele>12.8</ele><time>2022-10-31T13:43:02.0000000+00:00</time></trkpt><trkpt lat="39.31795813" lon="-0.31747523"><ele>12.8</ele><time>2022-10-31T13:43:03.0000000+00:00</time></trkpt><trkpt lat="39.31795813" lon="-0.31747523"><ele>12.8</ele><time>2022-10-31T13:43:04.0000000+00:00</time></trkpt><trkpt lat="39.31795813" lon="-0.31747523"><ele>12.8</ele><time>2022-10-31T13:43:05.0000000+00:00</time></trkpt><trkpt lat="39.31795813" lon="-0.31747523"><ele>13.0</ele><time>2022-10-31T13:43:06.0000000+00:00</time></trkpt><trkpt lat="39.31795813" lon="-0.31747523"><ele>13.0</ele><time>2022-10-31T13:43:07.0000000+00:00</time></trkpt><trkpt lat="39.31795813" lon="-0.31747523"><ele>13.0</ele><time>2022-10-31T13:43:08.0000000+00:00</time></trkpt><trkpt lat="39.31795813" lon="-0.31747523"><ele>12.8</ele><time>2022-10-31T13:43:09.0000000+00:00</time></trkpt><trkpt lat="39.31795813" lon="-0.31747523"><ele>12.8</ele><time>2022-10-31T13:43:10.0000000+00:00</time></trkpt><trkpt lat="39.31795813" lon="-0.31747523"><ele>12.8</ele><time>2022-10-31T13:43:11.0000000+00:00</time></trkpt><trkpt lat="39.31795813" lon="-0.31747523"><ele>12.8</ele><time>2022-10-31T13:43:12.0000000+00:00</time></trkpt><trkpt lat="39.31795813" lon="-0.31747523"><ele>12.8</ele><time>2022-10-31T13:43:13.0000000+00:00</time></trkpt><trkpt lat="39.31795813" lon="-0.31747523"><ele>12.8</ele><time>2022-10-31T13:43:14.0000000+00:00</time></trkpt><trkpt lat="39.31795813" lon="-0.31747523"><ele>12.8</ele><time>2022-10-31T13:43:15.0000000+00:00</time></trkpt><trkpt lat="39.31795813" lon="-0.31747523"><ele>12.8</ele><time>2022-10-31T13:43:16.0000000+00:00</time></trkpt><trkpt lat="39.31795813" lon="-0.31747523"><ele>12.8</ele><time>2022-10-31T13:43:17.0000000+00:00</time></trkpt><trkpt lat="39.31795813" lon="-0.31747523"><ele>12.8</ele><time>2022-10-31T13:43:18.0000000+00:00</time></trkpt><trkpt lat="39.31795813" lon="-0.31747523"><ele>12.8</ele><time>2022-10-31T13:43:19.0000000+00:00</time></trkpt><trkpt lat="39.31795813" lon="-0.31747523"><ele>12.8</ele><time>2022-10-31T13:43:20.0000000+00:00</time></trkpt><trkpt lat="39.31795813" lon="-0.31747523"><ele>12.8</ele><time>2022-10-31T13:43:21.0000000+00:00</time></trkpt><trkpt lat="39.31795813" lon="-0.31747523"><ele>12.8</ele><time>2022-10-31T13:43:22.0000000+00:00</time></trkpt><trkpt lat="39.31795813" lon="-0.31747523"><ele>12.8</ele><time>2022-10-31T13:43:23.0000000+00:00</time></trkpt><trkpt lat="39.31795813" lon="-0.31747523"><ele>12.8</ele><time>2022-10-31T13:43:24.0000000+00:00</time></trkpt><trkpt lat="39.31795813" lon="-0.31747523"><ele>12.8</ele><time>2022-10-31T13:43:25.0000000+00:00</time></trkpt><trkpt lat="39.31795905" lon="-0.31747531"><ele>12.6</ele><time>2022-10-31T13:43:26.0000000+00:00</time></trkpt><trkpt lat="39.31795889" lon="-0.31746777"><ele>12.6</ele><time>2022-10-31T13:43:27.0000000+00:00</time></trkpt><trkpt lat="39.3179443" lon="-0.31745595"><ele>12.6</ele><time>2022-10-31T13:43:28.0000000+00:00</time></trkpt><trkpt lat="39.31792519" lon="-0.31744438"><ele>12.6</ele><time>2022-10-31T13:43:29.0000000+00:00</time></trkpt><trkpt lat="39.31790608" lon="-0.31743474"><ele>12.8</ele><time>2022-10-31T13:43:30.0000000+00:00</time></trkpt><trkpt lat="39.31787876" lon="-0.31742209"><ele>13.0</ele><time>2022-10-31T13:43:31.0000000+00:00</time></trkpt><trkpt lat="39.31784942" lon="-0.31740851"><ele>13.2</ele><time>2022-10-31T13:43:32.0000000+00:00</time></trkpt><trkpt lat="39.31781799" lon="-0.31739552"><ele>13.2</ele><time>2022-10-31T13:43:33.0000000+00:00</time></trkpt><trkpt lat="39.31778572" lon="-0.31737892"><ele>13.2</ele><time>2022-10-31T13:43:34.0000000+00:00</time></trkpt><trkpt lat="39.31774364" lon="-0.31736115"><ele>13.4</ele><time>2022-10-31T13:43:35.0000000+00:00</time></trkpt><trkpt lat="39.31771556" lon="-0.31734766"><ele>13.4</ele><time>2022-10-31T13:43:36.0000000+00:00</time></trkpt><trkpt lat="39.31768279" lon="-0.31733315"><ele>13.4</ele><time>2022-10-31T13:43:37.0000000+00:00</time></trkpt><trkpt lat="39.31764985" lon="-0.31731715"><ele>13.4</ele><time>2022-10-31T13:43:38.0000000+00:00</time></trkpt><trkpt lat="39.31761322" lon="-0.31730072"><ele>13.6</ele><time>2022-10-31T13:43:39.0000000+00:00</time></trkpt><trkpt lat="39.31757315" lon="-0.31728731"><ele>13.6</ele><time>2022-10-31T13:43:40.0000000+00:00</time></trkpt><trkpt lat="39.31753242" lon="-0.31728236"><ele>13.8</ele><time>2022-10-31T13:43:41.0000000+00:00</time></trkpt><trkpt lat="39.31748581" lon="-0.31728496"><ele>13.8</ele><time>2022-10-31T13:43:42.0000000+00:00</time></trkpt><trkpt lat="39.31745513" lon="-0.31729267"><ele>13.8</ele><time>2022-10-31T13:43:43.0000000+00:00</time></trkpt><trkpt lat="39.31740979" lon="-0.31730977"><ele>14.0</ele><time>2022-10-31T13:43:44.0000000+00:00</time></trkpt><trkpt lat="39.31737106" lon="-0.31732461"><ele>14.0</ele><time>2022-10-31T13:43:45.0000000+00:00</time></trkpt><trkpt lat="39.31733997" lon="-0.31733902"><ele>14.2</ele><time>2022-10-31T13:43:46.0000000+00:00</time></trkpt><trkpt lat="39.31731407" lon="-0.31735503"><ele>14.2</ele><time>2022-10-31T13:43:47.0000000+00:00</time></trkpt><trkpt lat="39.31729202" lon="-0.31737037"><ele>14.4</ele><time>2022-10-31T13:43:48.0000000+00:00</time></trkpt><trkpt lat="39.31727316" lon="-0.3173873"><ele>14.4</ele><time>2022-10-31T13:43:49.0000000+00:00</time></trkpt><trkpt lat="39.31725372" lon="-0.31740658"><ele>14.4</ele><time>2022-10-31T13:43:50.0000000+00:00</time></trkpt><trkpt lat="39.31723469" lon="-0.31742661"><ele>14.6</ele><time>2022-10-31T13:43:51.0000000+00:00</time></trkpt><trkpt lat="39.31721306" lon="-0.31744614"><ele>14.6</ele><time>2022-10-31T13:43:52.0000000+00:00</time></trkpt><trkpt lat="39.31718851" lon="-0.31746919"><ele>14.6</ele><time>2022-10-31T13:43:53.0000000+00:00</time></trkpt><trkpt lat="39.31716286" lon="-0.31749467"><ele>14.6</ele><time>2022-10-31T13:43:54.0000000+00:00</time></trkpt><trkpt lat="39.31713545" lon="-0.31752099"><ele>14.6</ele><time>2022-10-31T13:43:55.0000000+00:00</time></trkpt><trkpt lat="39.31710628" lon="-0.31754647"><ele>14.6</ele><time>2022-10-31T13:43:56.0000000+00:00</time></trkpt><trkpt lat="39.31707979" lon="-0.3175702"><ele>14.6</ele><time>2022-10-31T13:43:57.0000000+00:00</time></trkpt><trkpt lat="39.31705213" lon="-0.31759433"><ele>14.6</ele><time>2022-10-31T13:43:58.0000000+00:00</time></trkpt><trkpt lat="39.31702288" lon="-0.31761998"><ele>14.6</ele><time>2022-10-31T13:43:59.0000000+00:00</time></trkpt><trkpt lat="39.31699254" lon="-0.31764102"><ele>14.6</ele><time>2022-10-31T13:44:00.0000000+00:00</time></trkpt><trkpt lat="39.31696203" lon="-0.31766399"><ele>14.6</ele><time>2022-10-31T13:44:01.0000000+00:00</time></trkpt><trkpt lat="39.31692984" lon="-0.31768578"><ele>14.6</ele><time>2022-10-31T13:44:02.0000000+00:00</time></trkpt><trkpt lat="39.31689858" lon="-0.31770841"><ele>14.6</ele><time>2022-10-31T13:44:03.0000000+00:00</time></trkpt><trkpt lat="39.31686572" lon="-0.31772434"><ele>14.6</ele><time>2022-10-31T13:44:04.0000000+00:00</time></trkpt><trkpt lat="39.316828" lon="-0.31773624"><ele>14.6</ele><time>2022-10-31T13:44:05.0000000+00:00</time></trkpt><trkpt lat="39.31678785" lon="-0.31774161"><ele>14.4</ele><time>2022-10-31T13:44:06.0000000+00:00</time></trkpt><trkpt lat="39.31674544" lon="-0.31774068"><ele>14.4</ele><time>2022-10-31T13:44:07.0000000+00:00</time></trkpt><trkpt lat="39.31670948" lon="-0.31774001"><ele>14.2</ele><time>2022-10-31T13:44:08.0000000+00:00</time></trkpt><trkpt lat="39.31666631" lon="-0.3177406"><ele>14.2</ele><time>2022-10-31T13:44:09.0000000+00:00</time></trkpt><trkpt lat="39.31662189" lon="-0.31774362"><ele>14.0</ele><time>2022-10-31T13:44:10.0000000+00:00</time></trkpt><trkpt lat="39.31656917" lon="-0.31774261"><ele>14.0</ele><time>2022-10-31T13:44:11.0000000+00:00</time></trkpt><trkpt lat="39.31652332" lon="-0.3177401"><ele>14.0</ele><time>2022-10-31T13:44:12.0000000+00:00</time></trkpt><trkpt lat="39.31648719" lon="-0.31773599"><ele>13.8</ele><time>2022-10-31T13:44:13.0000000+00:00</time></trkpt><trkpt lat="39.31643103" lon="-0.31773314"><ele>13.8</ele><time>2022-10-31T13:44:14.0000000+00:00</time></trkpt><trkpt lat="39.31638275" lon="-0.31772979"><ele>13.8</ele><time>2022-10-31T13:44:15.0000000+00:00</time></trkpt><trkpt lat="39.31633481" lon="-0.31772962"><ele>13.8</ele><time>2022-10-31T13:44:16.0000000+00:00</time></trkpt><trkpt lat="39.31629089" lon="-0.31773138"><ele>13.6</ele><time>2022-10-31T13:44:17.0000000+00:00</time></trkpt><trkpt lat="39.31624554" lon="-0.31773029"><ele>13.6</ele><time>2022-10-31T13:44:18.0000000+00:00</time></trkpt><trkpt lat="39.31620531" lon="-0.31773096"><ele>13.6</ele><time>2022-10-31T13:44:19.0000000+00:00</time></trkpt><trkpt lat="39.31615686" lon="-0.31772987"><ele>13.4</ele><time>2022-10-31T13:44:20.0000000+00:00</time></trkpt><trkpt lat="39.31610741" lon="-0.31772861"><ele>13.2</ele><time>2022-10-31T13:44:21.0000000+00:00</time></trkpt><trkpt lat="39.31605619" lon="-0.31773121"><ele>13.2</ele><time>2022-10-31T13:44:22.0000000+00:00</time></trkpt><trkpt lat="39.3160049" lon="-0.31773557"><ele>13.0</ele><time>2022-10-31T13:44:23.0000000+00:00</time></trkpt><trkpt lat="39.31594413" lon="-0.31773658"><ele>12.8</ele><time>2022-10-31T13:44:24.0000000+00:00</time></trkpt><trkpt lat="39.31590272" lon="-0.31773306"><ele>12.8</ele><time>2022-10-31T13:44:25.0000000+00:00</time></trkpt><trkpt lat="39.31585159" lon="-0.31773188"><ele>12.6</ele><time>2022-10-31T13:44:26.0000000+00:00</time></trkpt><trkpt lat="39.31579007" lon="-0.31773037"><ele>12.4</ele><time>2022-10-31T13:44:27.0000000+00:00</time></trkpt><trkpt lat="39.31574757" lon="-0.31772878"><ele>12.0</ele><time>2022-10-31T13:44:28.0000000+00:00</time></trkpt><trkpt lat="39.31569452" lon="-0.31772669"><ele>11.6</ele><time>2022-10-31T13:44:29.0000000+00:00</time></trkpt><trkpt lat="39.31564104" lon="-0.31772819"><ele>11.6</ele><time>2022-10-31T13:44:30.0000000+00:00</time></trkpt><trkpt lat="39.3155853" lon="-0.31773088"><ele>11.4</ele><time>2022-10-31T13:44:31.0000000+00:00</time></trkpt><trkpt lat="39.31552906" lon="-0.31772937"><ele>11.4</ele><time>2022-10-31T13:44:32.0000000+00:00</time></trkpt><trkpt lat="39.31547399" lon="-0.31772769"><ele>11.6</ele><time>2022-10-31T13:44:33.0000000+00:00</time></trkpt><trkpt lat="39.3154092" lon="-0.31772501"><ele>11.6</ele><time>2022-10-31T13:44:34.0000000+00:00</time></trkpt><trkpt lat="39.31535329" lon="-0.31772316"><ele>11.8</ele><time>2022-10-31T13:44:35.0000000+00:00</time></trkpt><trkpt lat="39.31530023" lon="-0.31772006"><ele>12.0</ele><time>2022-10-31T13:44:36.0000000+00:00</time></trkpt><trkpt lat="39.31524918" lon="-0.31771721"><ele>12.0</ele><time>2022-10-31T13:44:37.0000000+00:00</time></trkpt><trkpt lat="39.31519889" lon="-0.31771822"><ele>12.0</ele><time>2022-10-31T13:44:38.0000000+00:00</time></trkpt><trkpt lat="39.31515606" lon="-0.31771889"><ele>12.2</ele><time>2022-10-31T13:44:39.0000000+00:00</time></trkpt><trkpt lat="39.31509982" lon="-0.31771839"><ele>12.2</ele><time>2022-10-31T13:44:40.0000000+00:00</time></trkpt><trkpt lat="39.31504383" lon="-0.31771772"><ele>12.4</ele><time>2022-10-31T13:44:41.0000000+00:00</time></trkpt><trkpt lat="39.31498943" lon="-0.31771939"><ele>12.4</ele><time>2022-10-31T13:44:42.0000000+00:00</time></trkpt><trkpt lat="39.31492573" lon="-0.31772308"><ele>12.4</ele><time>2022-10-31T13:44:43.0000000+00:00</time></trkpt><trkpt lat="39.31488298" lon="-0.31772392"><ele>12.2</ele><time>2022-10-31T13:44:44.0000000+00:00</time></trkpt><trkpt lat="39.31483084" lon="-0.31772057"><ele>12.2</ele><time>2022-10-31T13:44:45.0000000+00:00</time></trkpt><trkpt lat="39.31477779" lon="-0.31772015"><ele>12.4</ele><time>2022-10-31T13:44:46.0000000+00:00</time></trkpt><trkpt lat="39.31471392" lon="-0.31772006"><ele>12.4</ele><time>2022-10-31T13:44:47.0000000+00:00</time></trkpt><trkpt lat="39.31466203" lon="-0.31772258"><ele>12.4</ele><time>2022-10-31T13:44:48.0000000+00:00</time></trkpt><trkpt lat="39.31461032" lon="-0.31772409"><ele>12.4</ele><time>2022-10-31T13:44:49.0000000+00:00</time></trkpt><trkpt lat="39.31455843" lon="-0.31772308"><ele>12.4</ele><time>2022-10-31T13:44:50.0000000+00:00</time></trkpt><trkpt lat="39.31450781" lon="-0.31772082"><ele>12.4</ele><time>2022-10-31T13:44:51.0000000+00:00</time></trkpt><trkpt lat="39.31446875" lon="-0.3177183"><ele>12.4</ele><time>2022-10-31T13:44:52.0000000+00:00</time></trkpt><trkpt lat="39.31441577" lon="-0.3177157"><ele>12.4</ele><time>2022-10-31T13:44:53.0000000+00:00</time></trkpt><trkpt lat="39.31436548" lon="-0.31771512"><ele>12.4</ele><time>2022-10-31T13:44:54.0000000+00:00</time></trkpt><trkpt lat="39.31432148" lon="-0.31771797"><ele>12.2</ele><time>2022-10-31T13:44:55.0000000+00:00</time></trkpt><trkpt lat="39.31428191" lon="-0.3177266"><ele>12.2</ele><time>2022-10-31T13:44:56.0000000+00:00</time></trkpt><trkpt lat="39.31423808" lon="-0.31774093"><ele>12.0</ele><time>2022-10-31T13:44:57.0000000+00:00</time></trkpt><trkpt lat="39.3142027" lon="-0.31775141"><ele>11.8</ele><time>2022-10-31T13:44:58.0000000+00:00</time></trkpt><trkpt lat="39.31417043" lon="-0.31776063"><ele>11.8</ele><time>2022-10-31T13:44:59.0000000+00:00</time></trkpt><trkpt lat="39.31414621" lon="-0.31776985"><ele>11.8</ele><time>2022-10-31T13:45:00.0000000+00:00</time></trkpt><trkpt lat="39.3141136" lon="-0.31777396"><ele>11.8</ele><time>2022-10-31T13:45:01.0000000+00:00</time></trkpt><trkpt lat="39.31408133" lon="-0.31777463"><ele>11.8</ele><time>2022-10-31T13:45:02.0000000+00:00</time></trkpt><trkpt lat="39.31404018" lon="-0.3177727"><ele>11.8</ele><time>2022-10-31T13:45:03.0000000+00:00</time></trkpt><trkpt lat="39.31400674" lon="-0.31776859"><ele>11.8</ele><time>2022-10-31T13:45:04.0000000+00:00</time></trkpt><trkpt lat="39.31397321" lon="-0.31776583"><ele>11.8</ele><time>2022-10-31T13:45:05.0000000+00:00</time></trkpt><trkpt lat="39.31394178" lon="-0.3177634"><ele>11.8</ele><time>2022-10-31T13:45:06.0000000+00:00</time></trkpt><trkpt lat="39.31391504" lon="-0.31776164"><ele>11.8</ele><time>2022-10-31T13:45:07.0000000+00:00</time></trkpt><trkpt lat="39.3138919" lon="-0.31775443"><ele>11.8</ele><time>2022-10-31T13:45:08.0000000+00:00</time></trkpt><trkpt lat="39.31387036" lon="-0.31773951"><ele>11.8</ele><time>2022-10-31T13:45:09.0000000+00:00</time></trkpt><trkpt lat="39.31384823" lon="-0.31772375"><ele>11.8</ele><time>2022-10-31T13:45:10.0000000+00:00</time></trkpt><trkpt lat="39.31382367" lon="-0.31771411"><ele>11.8</ele><time>2022-10-31T13:45:11.0000000+00:00</time></trkpt><trkpt lat="39.31379694" lon="-0.31771042"><ele>11.8</ele><time>2022-10-31T13:45:12.0000000+00:00</time></trkpt><trkpt lat="39.31376534" lon="-0.31770749"><ele>11.8</ele><time>2022-10-31T13:45:13.0000000+00:00</time></trkpt><trkpt lat="39.31373105" lon="-0.31770498"><ele>12.2</ele><time>2022-10-31T13:45:14.0000000+00:00</time></trkpt><trkpt lat="39.31369308" lon="-0.31770255"><ele>12.2</ele><time>2022-10-31T13:45:15.0000000+00:00</time></trkpt><trkpt lat="39.31365394" lon="-0.31770137"><ele>12.4</ele><time>2022-10-31T13:45:16.0000000+00:00</time></trkpt><trkpt lat="39.31361631" lon="-0.31769978"><ele>12.6</ele><time>2022-10-31T13:45:17.0000000+00:00</time></trkpt><trkpt lat="39.31357599" lon="-0.31769953"><ele>12.6</ele><time>2022-10-31T13:45:18.0000000+00:00</time></trkpt><trkpt lat="39.31353433" lon="-0.31770229"><ele>12.6</ele><time>2022-10-31T13:45:19.0000000+00:00</time></trkpt><trkpt lat="39.31349158" lon="-0.31770288"><ele>12.8</ele><time>2022-10-31T13:45:20.0000000+00:00</time></trkpt><trkpt lat="39.31344984" lon="-0.31770338"><ele>12.6</ele><time>2022-10-31T13:45:21.0000000+00:00</time></trkpt><trkpt lat="39.31340735" lon="-0.31770229"><ele>12.6</ele><time>2022-10-31T13:45:22.0000000+00:00</time></trkpt><trkpt lat="39.31336451" lon="-0.3177038"><ele>12.6</ele><time>2022-10-31T13:45:23.0000000+00:00</time></trkpt><trkpt lat="39.31331799" lon="-0.31770481"><ele>12.6</ele><time>2022-10-31T13:45:24.0000000+00:00</time></trkpt><trkpt lat="39.31327231" lon="-0.31770481"><ele>12.6</ele><time>2022-10-31T13:45:25.0000000+00:00</time></trkpt><trkpt lat="39.31322646" lon="-0.31770313"><ele>12.6</ele><time>2022-10-31T13:45:26.0000000+00:00</time></trkpt><trkpt lat="39.31317953" lon="-0.31770263"><ele>12.8</ele><time>2022-10-31T13:45:27.0000000+00:00</time></trkpt><trkpt lat="39.31313133" lon="-0.31770397"><ele>12.8</ele><time>2022-10-31T13:45:28.0000000+00:00</time></trkpt><trkpt lat="39.31308481" lon="-0.31770405"><ele>12.8</ele><time>2022-10-31T13:45:29.0000000+00:00</time></trkpt><trkpt lat="39.31303779" lon="-0.31770355"><ele>12.6</ele><time>2022-10-31T13:45:30.0000000+00:00</time></trkpt><trkpt lat="39.31298942" lon="-0.31770296"><ele>12.8</ele><time>2022-10-31T13:45:31.0000000+00:00</time></trkpt><trkpt lat="39.31294207" lon="-0.31770087"><ele>12.8</ele><time>2022-10-31T13:45:32.0000000+00:00</time></trkpt><trkpt lat="39.31289345" lon="-0.31769601"><ele>12.6</ele><time>2022-10-31T13:45:33.0000000+00:00</time></trkpt><trkpt lat="39.31284576" lon="-0.31769257"><ele>12.6</ele><time>2022-10-31T13:45:34.0000000+00:00</time></trkpt><trkpt lat="39.3127984" lon="-0.31768888"><ele>12.6</ele><time>2022-10-31T13:45:35.0000000+00:00</time></trkpt><trkpt lat="39.31275037" lon="-0.31768696"><ele>12.8</ele><time>2022-10-31T13:45:36.0000000+00:00</time></trkpt><trkpt lat="39.31270285" lon="-0.31768553"><ele>12.8</ele><time>2022-10-31T13:45:37.0000000+00:00</time></trkpt><trkpt lat="39.31265566" lon="-0.31768645"><ele>12.8</ele><time>2022-10-31T13:45:38.0000000+00:00</time></trkpt><trkpt lat="39.31261115" lon="-0.31768771"><ele>12.8</ele><time>2022-10-31T13:45:39.0000000+00:00</time></trkpt><trkpt lat="39.31256698" lon="-0.31768712"><ele>12.8</ele><time>2022-10-31T13:45:40.0000000+00:00</time></trkpt><trkpt lat="39.31252481" lon="-0.31768419"><ele>12.8</ele><time>2022-10-31T13:45:41.0000000+00:00</time></trkpt><trkpt lat="39.31248232" lon="-0.31768327"><ele>12.8</ele><time>2022-10-31T13:45:42.0000000+00:00</time></trkpt><trkpt lat="39.31244343" lon="-0.3176805"><ele>12.8</ele><time>2022-10-31T13:45:43.0000000+00:00</time></trkpt><trkpt lat="39.31240621" lon="-0.31767983"><ele>12.8</ele><time>2022-10-31T13:45:44.0000000+00:00</time></trkpt><trkpt lat="39.31236816" lon="-0.31767891"><ele>12.8</ele><time>2022-10-31T13:45:45.0000000+00:00</time></trkpt><trkpt lat="39.31233228" lon="-0.3176748"><ele>12.6</ele><time>2022-10-31T13:45:46.0000000+00:00</time></trkpt><trkpt lat="39.31229339" lon="-0.31767631"><ele>12.6</ele><time>2022-10-31T13:45:47.0000000+00:00</time></trkpt><trkpt lat="39.31225802" lon="-0.31767547"><ele>12.6</ele><time>2022-10-31T13:45:48.0000000+00:00</time></trkpt><trkpt lat="39.31222281" lon="-0.31767547"><ele>12.6</ele><time>2022-10-31T13:45:49.0000000+00:00</time></trkpt><trkpt lat="39.3121918" lon="-0.31767782"><ele>12.6</ele><time>2022-10-31T13:45:50.0000000+00:00</time></trkpt><trkpt lat="39.31216104" lon="-0.31768017"><ele>12.6</ele><time>2022-10-31T13:45:51.0000000+00:00</time></trkpt><trkpt lat="39.31212911" lon="-0.31768461"><ele>12.6</ele><time>2022-10-31T13:45:52.0000000+00:00</time></trkpt><trkpt lat="39.31209549" lon="-0.31768419"><ele>12.6</ele><time>2022-10-31T13:45:53.0000000+00:00</time></trkpt><trkpt lat="39.31205853" lon="-0.31768469"><ele>12.6</ele><time>2022-10-31T13:45:54.0000000+00:00</time></trkpt><trkpt lat="39.31202257" lon="-0.31768461"><ele>12.6</ele><time>2022-10-31T13:45:55.0000000+00:00</time></trkpt><trkpt lat="39.31198125" lon="-0.31768276"><ele>12.6</ele><time>2022-10-31T13:45:56.0000000+00:00</time></trkpt><trkpt lat="39.31193934" lon="-0.31767765"><ele>12.8</ele><time>2022-10-31T13:45:57.0000000+00:00</time></trkpt><trkpt lat="39.31189894" lon="-0.31767623"><ele>12.6</ele><time>2022-10-31T13:45:58.0000000+00:00</time></trkpt><trkpt lat="39.31185552" lon="-0.31767874"><ele>12.8</ele><time>2022-10-31T13:45:59.0000000+00:00</time></trkpt><trkpt lat="39.31180866" lon="-0.31768444"><ele>12.8</ele><time>2022-10-31T13:46:00.0000000+00:00</time></trkpt><trkpt lat="39.31176483" lon="-0.31768712"><ele>12.8</ele><time>2022-10-31T13:46:01.0000000+00:00</time></trkpt><trkpt lat="39.31172401" lon="-0.31769131"><ele>12.8</ele><time>2022-10-31T13:46:02.0000000+00:00</time></trkpt><trkpt lat="39.31168268" lon="-0.3176919"><ele>12.8</ele><time>2022-10-31T13:46:03.0000000+00:00</time></trkpt><trkpt lat="39.31163516" lon="-0.31768846"><ele>12.8</ele><time>2022-10-31T13:46:04.0000000+00:00</time></trkpt><trkpt lat="39.31160264" lon="-0.31768419"><ele>12.8</ele><time>2022-10-31T13:46:05.0000000+00:00</time></trkpt><trkpt lat="39.31156299" lon="-0.31768553"><ele>12.8</ele><time>2022-10-31T13:46:06.0000000+00:00</time></trkpt><trkpt lat="39.31152561" lon="-0.31769014"><ele>12.6</ele><time>2022-10-31T13:46:07.0000000+00:00</time></trkpt><trkpt lat="39.3114873" lon="-0.31769014"><ele>12.4</ele><time>2022-10-31T13:46:08.0000000+00:00</time></trkpt><trkpt lat="39.31144715" lon="-0.31768461"><ele>12.2</ele><time>2022-10-31T13:46:09.0000000+00:00</time></trkpt><trkpt lat="39.31141145" lon="-0.31768008"><ele>12.0</ele><time>2022-10-31T13:46:10.0000000+00:00</time></trkpt><trkpt lat="39.3113739" lon="-0.31768687"><ele>12.0</ele><time>2022-10-31T13:46:11.0000000+00:00</time></trkpt><trkpt lat="39.31133525" lon="-0.31769374"><ele>12.2</ele><time>2022-10-31T13:46:12.0000000+00:00</time></trkpt><trkpt lat="39.31129527" lon="-0.31770028"><ele>12.2</ele><time>2022-10-31T13:46:13.0000000+00:00</time></trkpt><trkpt lat="39.31125697" lon="-0.31770221"><ele>12.4</ele><time>2022-10-31T13:46:14.0000000+00:00</time></trkpt><trkpt lat="39.31121958" lon="-0.31770263"><ele>12.4</ele><time>2022-10-31T13:46:15.0000000+00:00</time></trkpt><trkpt lat="39.31118581" lon="-0.31770255"><ele>12.4</ele><time>2022-10-31T13:46:16.0000000+00:00</time></trkpt><trkpt lat="39.31114256" lon="-0.3177059"><ele>12.6</ele><time>2022-10-31T13:46:17.0000000+00:00</time></trkpt><trkpt lat="39.31111305" lon="-0.31770875"><ele>12.6</ele><time>2022-10-31T13:46:18.0000000+00:00</time></trkpt><trkpt lat="39.31107156" lon="-0.31771336"><ele>12.8</ele><time>2022-10-31T13:46:19.0000000+00:00</time></trkpt><trkpt lat="39.31103233" lon="-0.31771772"><ele>12.8</ele><time>2022-10-31T13:46:20.0000000+00:00</time></trkpt><trkpt lat="39.31099503" lon="-0.31773079"><ele>12.8</ele><time>2022-10-31T13:46:21.0000000+00:00</time></trkpt><trkpt lat="39.31096176" lon="-0.317752"><ele>12.8</ele><time>2022-10-31T13:46:22.0000000+00:00</time></trkpt><trkpt lat="39.3109258" lon="-0.31777035"><ele>12.8</ele><time>2022-10-31T13:46:23.0000000+00:00</time></trkpt><trkpt lat="39.31088347" lon="-0.31778662"><ele>12.8</ele><time>2022-10-31T13:46:24.0000000+00:00</time></trkpt><trkpt lat="39.31083921" lon="-0.31780179"><ele>12.8</ele><time>2022-10-31T13:46:25.0000000+00:00</time></trkpt><trkpt lat="39.31079823" lon="-0.31782333"><ele>12.8</ele><time>2022-10-31T13:46:26.0000000+00:00</time></trkpt><trkpt lat="39.31076026" lon="-0.31784839"><ele>12.8</ele><time>2022-10-31T13:46:27.0000000+00:00</time></trkpt><trkpt lat="39.31072405" lon="-0.31787178"><ele>12.8</ele><time>2022-10-31T13:46:28.0000000+00:00</time></trkpt><trkpt lat="39.31068834" lon="-0.31789064"><ele>12.8</ele><time>2022-10-31T13:46:29.0000000+00:00</time></trkpt><trkpt lat="39.31065339" lon="-0.31790564"><ele>12.8</ele><time>2022-10-31T13:46:30.0000000+00:00</time></trkpt><trkpt lat="39.31061802" lon="-0.31791863"><ele>12.8</ele><time>2022-10-31T13:46:31.0000000+00:00</time></trkpt><trkpt lat="39.310587" lon="-0.31793187"><ele>12.8</ele><time>2022-10-31T13:46:32.0000000+00:00</time></trkpt><trkpt lat="39.31056093" lon="-0.31794587"><ele>12.6</ele><time>2022-10-31T13:46:33.0000000+00:00</time></trkpt><trkpt lat="39.31053998" lon="-0.3179556"><ele>12.6</ele><time>2022-10-31T13:46:34.0000000+00:00</time></trkpt><trkpt lat="39.31052472" lon="-0.31796758"><ele>12.6</ele><time>2022-10-31T13:46:35.0000000+00:00</time></trkpt><trkpt lat="39.31051358" lon="-0.31798099"><ele>12.6</ele><time>2022-10-31T13:46:36.0000000+00:00</time></trkpt><trkpt lat="39.31049757" lon="-0.31798552"><ele>12.6</ele><time>2022-10-31T13:46:37.0000000+00:00</time></trkpt><trkpt lat="39.31048374" lon="-0.31798862"><ele>12.6</ele><time>2022-10-31T13:46:38.0000000+00:00</time></trkpt><trkpt lat="39.31047401" lon="-0.3179913"><ele>12.4</ele><time>2022-10-31T13:46:39.0000000+00:00</time></trkpt><trkpt lat="39.31046982" lon="-0.31799499"><ele>12.4</ele><time>2022-10-31T13:46:40.0000000+00:00</time></trkpt><trkpt lat="39.31046982" lon="-0.31799499"><ele>12.2</ele><time>2022-10-31T13:46:41.0000000+00:00</time></trkpt><trkpt lat="39.31046982" lon="-0.31799499"><ele>12.2</ele><time>2022-10-31T13:46:42.0000000+00:00</time></trkpt><trkpt lat="39.31046982" lon="-0.31799499"><ele>12.2</ele><time>2022-10-31T13:46:43.0000000+00:00</time></trkpt><trkpt lat="39.31046982" lon="-0.31799499"><ele>12.0</ele><time>2022-10-31T13:46:44.0000000+00:00</time></trkpt><trkpt lat="39.31046982" lon="-0.31799499"><ele>12.0</ele><time>2022-10-31T13:46:45.0000000+00:00</time></trkpt><trkpt lat="39.31046982" lon="-0.31799499"><ele>12.0</ele><time>2022-10-31T13:46:46.0000000+00:00</time></trkpt><trkpt lat="39.31046982" lon="-0.31799499"><ele>12.0</ele><time>2022-10-31T13:46:47.0000000+00:00</time></trkpt><trkpt lat="39.31046982" lon="-0.31799499"><ele>12.0</ele><time>2022-10-31T13:46:48.0000000+00:00</time></trkpt><trkpt lat="39.31046404" lon="-0.3179882"><ele>12.0</ele><time>2022-10-31T13:46:49.0000000+00:00</time></trkpt><trkpt lat="39.31045088" lon="-0.31798158"><ele>12.0</ele><time>2022-10-31T13:46:50.0000000+00:00</time></trkpt><trkpt lat="39.31044585" lon="-0.31798049"><ele>12.0</ele><time>2022-10-31T13:46:51.0000000+00:00</time></trkpt><trkpt lat="39.31044325" lon="-0.3179815"><ele>12.0</ele><time>2022-10-31T13:46:52.0000000+00:00</time></trkpt><trkpt lat="39.31043579" lon="-0.317968"><ele>12.0</ele><time>2022-10-31T13:46:53.0000000+00:00</time></trkpt><trkpt lat="39.31042649" lon="-0.31794973"><ele>12.0</ele><time>2022-10-31T13:46:54.0000000+00:00</time></trkpt><trkpt lat="39.31041408" lon="-0.31793305"><ele>12.2</ele><time>2022-10-31T13:46:55.0000000+00:00</time></trkpt><trkpt lat="39.31040503" lon="-0.31791528"><ele>12.2</ele><time>2022-10-31T13:46:56.0000000+00:00</time></trkpt><trkpt lat="39.31039464" lon="-0.31789717"><ele>12.2</ele><time>2022-10-31T13:46:57.0000000+00:00</time></trkpt><trkpt lat="39.3103876" lon="-0.31787521"><ele>12.2</ele><time>2022-10-31T13:46:58.0000000+00:00</time></trkpt><trkpt lat="39.31037737" lon="-0.31784898"><ele>12.2</ele><time>2022-10-31T13:46:59.0000000+00:00</time></trkpt><trkpt lat="39.31036782" lon="-0.3178219"><ele>12.4</ele><time>2022-10-31T13:47:00.0000000+00:00</time></trkpt><trkpt lat="39.31034904" lon="-0.31780128"><ele>12.4</ele><time>2022-10-31T13:47:01.0000000+00:00</time></trkpt><trkpt lat="39.3103285" lon="-0.31778134"><ele>12.4</ele><time>2022-10-31T13:47:02.0000000+00:00</time></trkpt><trkpt lat="39.31030168" lon="-0.31776533"><ele>12.4</ele><time>2022-10-31T13:47:03.0000000+00:00</time></trkpt><trkpt lat="39.31027302" lon="-0.31775929"><ele>12.4</ele><time>2022-10-31T13:47:04.0000000+00:00</time></trkpt><trkpt lat="39.31024611" lon="-0.31776139"><ele>12.6</ele><time>2022-10-31T13:47:05.0000000+00:00</time></trkpt><trkpt lat="39.31021736" lon="-0.31776591"><ele>12.6</ele><time>2022-10-31T13:47:06.0000000+00:00</time></trkpt><trkpt lat="39.31018584" lon="-0.31777253"><ele>12.6</ele><time>2022-10-31T13:47:07.0000000+00:00</time></trkpt><trkpt lat="39.31015433" lon="-0.31777907"><ele>12.8</ele><time>2022-10-31T13:47:08.0000000+00:00</time></trkpt><trkpt lat="39.31012038" lon="-0.31778913"><ele>12.8</ele><time>2022-10-31T13:47:09.0000000+00:00</time></trkpt><trkpt lat="39.31008903" lon="-0.31779894"><ele>12.8</ele><time>2022-10-31T13:47:10.0000000+00:00</time></trkpt><trkpt lat="39.31005735" lon="-0.31780774"><ele>12.8</ele><time>2022-10-31T13:47:11.0000000+00:00</time></trkpt><trkpt lat="39.31002533" lon="-0.31781671"><ele>12.8</ele><time>2022-10-31T13:47:12.0000000+00:00</time></trkpt><trkpt lat="39.30999423" lon="-0.31782299"><ele>13.0</ele><time>2022-10-31T13:47:13.0000000+00:00</time></trkpt><trkpt lat="39.30996121" lon="-0.31782802"><ele>13.0</ele><time>2022-10-31T13:47:14.0000000+00:00</time></trkpt><trkpt lat="39.30992517" lon="-0.31783582"><ele>13.0</ele><time>2022-10-31T13:47:15.0000000+00:00</time></trkpt><trkpt lat="39.30989063" lon="-0.31784244"><ele>13.0</ele><time>2022-10-31T13:47:16.0000000+00:00</time></trkpt><trkpt lat="39.3098587" lon="-0.31784906"><ele>13.0</ele><time>2022-10-31T13:47:17.0000000+00:00</time></trkpt><trkpt lat="39.3098307" lon="-0.31785325"><ele>13.0</ele><time>2022-10-31T13:47:18.0000000+00:00</time></trkpt><trkpt lat="39.30980589" lon="-0.31785443"><ele>13.0</ele><time>2022-10-31T13:47:19.0000000+00:00</time></trkpt><trkpt lat="39.3097815" lon="-0.31785904"><ele>13.0</ele><time>2022-10-31T13:47:20.0000000+00:00</time></trkpt><trkpt lat="39.30976046" lon="-0.31786348"><ele>12.8</ele><time>2022-10-31T13:47:21.0000000+00:00</time></trkpt><trkpt lat="39.30974118" lon="-0.31786566"><ele>12.8</ele><time>2022-10-31T13:47:22.0000000+00:00</time></trkpt><trkpt lat="39.30972425" lon="-0.31786968"><ele>12.8</ele><time>2022-10-31T13:47:23.0000000+00:00</time></trkpt><trkpt lat="39.30970992" lon="-0.31787463"><ele>12.6</ele><time>2022-10-31T13:47:24.0000000+00:00</time></trkpt><trkpt lat="39.30970003" lon="-0.3178784"><ele>12.6</ele><time>2022-10-31T13:47:25.0000000+00:00</time></trkpt><trkpt lat="39.30968997" lon="-0.31787907"><ele>12.6</ele><time>2022-10-31T13:47:26.0000000+00:00</time></trkpt><trkpt lat="39.30967983" lon="-0.3178794"><ele>12.6</ele><time>2022-10-31T13:47:27.0000000+00:00</time></trkpt><trkpt lat="39.30966851" lon="-0.31788183"><ele>12.6</ele><time>2022-10-31T13:47:28.0000000+00:00</time></trkpt><trkpt lat="39.30965653" lon="-0.31788334"><ele>12.6</ele><time>2022-10-31T13:47:29.0000000+00:00</time></trkpt><trkpt lat="39.30964194" lon="-0.31788695"><ele>12.6</ele><time>2022-10-31T13:47:30.0000000+00:00</time></trkpt><trkpt lat="39.30962107" lon="-0.31788913"><ele>12.6</ele><time>2022-10-31T13:47:31.0000000+00:00</time></trkpt><trkpt lat="39.30959769" lon="-0.31789114"><ele>12.6</ele><time>2022-10-31T13:47:32.0000000+00:00</time></trkpt><trkpt lat="39.30957195" lon="-0.31789608"><ele>12.6</ele><time>2022-10-31T13:47:33.0000000+00:00</time></trkpt><trkpt lat="39.30954522" lon="-0.3179012"><ele>12.6</ele><time>2022-10-31T13:47:34.0000000+00:00</time></trkpt><trkpt lat="39.30951781" lon="-0.31790715"><ele>12.6</ele><time>2022-10-31T13:47:35.0000000+00:00</time></trkpt><trkpt lat="39.30948587" lon="-0.31790556"><ele>12.6</ele><time>2022-10-31T13:47:36.0000000+00:00</time></trkpt><trkpt lat="39.30945109" lon="-0.31791008"><ele>12.6</ele><time>2022-10-31T13:47:37.0000000+00:00</time></trkpt><trkpt lat="39.30941345" lon="-0.31791721"><ele>12.6</ele><time>2022-10-31T13:47:38.0000000+00:00</time></trkpt><trkpt lat="39.30937867" lon="-0.31792316"><ele>12.6</ele><time>2022-10-31T13:47:39.0000000+00:00</time></trkpt><trkpt lat="39.30934799" lon="-0.31792525"><ele>12.6</ele><time>2022-10-31T13:47:40.0000000+00:00</time></trkpt><trkpt lat="39.30931564" lon="-0.31792844"><ele>12.6</ele><time>2022-10-31T13:47:41.0000000+00:00</time></trkpt><trkpt lat="39.30928487" lon="-0.31793104"><ele>12.6</ele><time>2022-10-31T13:47:42.0000000+00:00</time></trkpt><trkpt lat="39.30925344" lon="-0.31793833"><ele>12.6</ele><time>2022-10-31T13:47:43.0000000+00:00</time></trkpt><trkpt lat="39.30921933" lon="-0.31794621"><ele>12.6</ele><time>2022-10-31T13:47:44.0000000+00:00</time></trkpt><trkpt lat="39.30918756" lon="-0.31795694"><ele>12.6</ele><time>2022-10-31T13:47:45.0000000+00:00</time></trkpt><trkpt lat="39.30915495" lon="-0.31796129"><ele>12.6</ele><time>2022-10-31T13:47:46.0000000+00:00</time></trkpt><trkpt lat="39.30912017" lon="-0.31796674"><ele>12.6</ele><time>2022-10-31T13:47:47.0000000+00:00</time></trkpt><trkpt lat="39.30908161" lon="-0.31797211"><ele>12.8</ele><time>2022-10-31T13:47:48.0000000+00:00</time></trkpt><trkpt lat="39.30904532" lon="-0.31797655"><ele>12.8</ele><time>2022-10-31T13:47:49.0000000+00:00</time></trkpt><trkpt lat="39.30900718" lon="-0.31798108"><ele>13.0</ele><time>2022-10-31T13:47:50.0000000+00:00</time></trkpt><trkpt lat="39.30896938" lon="-0.31799248"><ele>13.0</ele><time>2022-10-31T13:47:51.0000000+00:00</time></trkpt><trkpt lat="39.30892948" lon="-0.31800144"><ele>13.0</ele><time>2022-10-31T13:47:52.0000000+00:00</time></trkpt><trkpt lat="39.30888749" lon="-0.31801242"><ele>13.0</ele><time>2022-10-31T13:47:53.0000000+00:00</time></trkpt><trkpt lat="39.30884616" lon="-0.31802231"><ele>13.0</ele><time>2022-10-31T13:47:54.0000000+00:00</time></trkpt><trkpt lat="39.30880836" lon="-0.31802977"><ele>13.0</ele><time>2022-10-31T13:47:55.0000000+00:00</time></trkpt><trkpt lat="39.30876779" lon="-0.31803405"><ele>13.0</ele><time>2022-10-31T13:47:56.0000000+00:00</time></trkpt><trkpt lat="39.30872429" lon="-0.31804084"><ele>13.0</ele><time>2022-10-31T13:47:57.0000000+00:00</time></trkpt><trkpt lat="39.30867819" lon="-0.31804972"><ele>13.2</ele><time>2022-10-31T13:47:58.0000000+00:00</time></trkpt><trkpt lat="39.30862857" lon="-0.31805425"><ele>13.2</ele><time>2022-10-31T13:47:59.0000000+00:00</time></trkpt><trkpt lat="39.30858507" lon="-0.31805911"><ele>13.2</ele><time>2022-10-31T13:48:00.0000000+00:00</time></trkpt><trkpt lat="39.30854249" lon="-0.31806196"><ele>13.2</ele><time>2022-10-31T13:48:01.0000000+00:00</time></trkpt><trkpt lat="39.3084948" lon="-0.31806934"><ele>13.2</ele><time>2022-10-31T13:48:02.0000000+00:00</time></trkpt><trkpt lat="39.3084663" lon="-0.31807068"><ele>13.2</ele><time>2022-10-31T13:48:03.0000000+00:00</time></trkpt><trkpt lat="39.30843109" lon="-0.31807437"><ele>13.2</ele><time>2022-10-31T13:48:04.0000000+00:00</time></trkpt><trkpt lat="39.3083948" lon="-0.31807898"><ele>13.2</ele><time>2022-10-31T13:48:05.0000000+00:00</time></trkpt><trkpt lat="39.30834937" lon="-0.31808711"><ele>13.2</ele><time>2022-10-31T13:48:06.0000000+00:00</time></trkpt><trkpt lat="39.3083176" lon="-0.31809306"><ele>13.2</ele><time>2022-10-31T13:48:07.0000000+00:00</time></trkpt><trkpt lat="39.30827863" lon="-0.31809968"><ele>13.2</ele><time>2022-10-31T13:48:08.0000000+00:00</time></trkpt><trkpt lat="39.30823823" lon="-0.31810488"><ele>13.2</ele><time>2022-10-31T13:48:09.0000000+00:00</time></trkpt><trkpt lat="39.30819623" lon="-0.3181125"><ele>13.2</ele><time>2022-10-31T13:48:10.0000000+00:00</time></trkpt><trkpt lat="39.30815625" lon="-0.31811594"><ele>13.2</ele><time>2022-10-31T13:48:11.0000000+00:00</time></trkpt><trkpt lat="39.30811468" lon="-0.31812206"><ele>13.2</ele><time>2022-10-31T13:48:12.0000000+00:00</time></trkpt><trkpt lat="39.3080731" lon="-0.31813279"><ele>13.4</ele><time>2022-10-31T13:48:13.0000000+00:00</time></trkpt><trkpt lat="39.30803941" lon="-0.31813924"><ele>13.4</ele><time>2022-10-31T13:48:14.0000000+00:00</time></trkpt><trkpt lat="39.30801124" lon="-0.31814545"><ele>13.4</ele><time>2022-10-31T13:48:15.0000000+00:00</time></trkpt><trkpt lat="39.30798769" lon="-0.31815022"><ele>13.4</ele><time>2022-10-31T13:48:16.0000000+00:00</time></trkpt><trkpt lat="39.30796883" lon="-0.3181555"><ele>13.0</ele><time>2022-10-31T13:48:17.0000000+00:00</time></trkpt><trkpt lat="39.30794846" lon="-0.3181524"><ele>13.0</ele><time>2022-10-31T13:48:18.0000000+00:00</time></trkpt><trkpt lat="39.30792583" lon="-0.31815198"><ele>12.8</ele><time>2022-10-31T13:48:19.0000000+00:00</time></trkpt><trkpt lat="39.30789935" lon="-0.31815517"><ele>12.8</ele><time>2022-10-31T13:48:20.0000000+00:00</time></trkpt><trkpt lat="39.30786766" lon="-0.31816011"><ele>12.8</ele><time>2022-10-31T13:48:21.0000000+00:00</time></trkpt><trkpt lat="39.30782885" lon="-0.3181633"><ele>13.0</ele><time>2022-10-31T13:48:22.0000000+00:00</time></trkpt><trkpt lat="39.30779072" lon="-0.31816883"><ele>13.0</ele><time>2022-10-31T13:48:23.0000000+00:00</time></trkpt><trkpt lat="39.30775115" lon="-0.31817084"><ele>13.0</ele><time>2022-10-31T13:48:24.0000000+00:00</time></trkpt><trkpt lat="39.30770899" lon="-0.31817512"><ele>13.0</ele><time>2022-10-31T13:48:25.0000000+00:00</time></trkpt><trkpt lat="39.30766708" lon="-0.31817822"><ele>13.0</ele><time>2022-10-31T13:48:26.0000000+00:00</time></trkpt><trkpt lat="39.3076276" lon="-0.31817981"><ele>13.0</ele><time>2022-10-31T13:48:27.0000000+00:00</time></trkpt><trkpt lat="39.30758586" lon="-0.31818543"><ele>13.0</ele><time>2022-10-31T13:48:28.0000000+00:00</time></trkpt><trkpt lat="39.30754622" lon="-0.31819481"><ele>12.8</ele><time>2022-10-31T13:48:29.0000000+00:00</time></trkpt><trkpt lat="39.30751671" lon="-0.31819993"><ele>12.8</ele><time>2022-10-31T13:48:30.0000000+00:00</time></trkpt><trkpt lat="39.30749693" lon="-0.31820244"><ele>12.8</ele><time>2022-10-31T13:48:31.0000000+00:00</time></trkpt><trkpt lat="39.3074831" lon="-0.31819934"><ele>12.8</ele><time>2022-10-31T13:48:32.0000000+00:00</time></trkpt><trkpt lat="39.30747489" lon="-0.3181975"><ele>12.8</ele><time>2022-10-31T13:48:33.0000000+00:00</time></trkpt><trkpt lat="39.30745946" lon="-0.3182016"><ele>12.6</ele><time>2022-10-31T13:48:34.0000000+00:00</time></trkpt><trkpt lat="39.30744429" lon="-0.31820571"><ele>12.6</ele><time>2022-10-31T13:48:35.0000000+00:00</time></trkpt><trkpt lat="39.30743105" lon="-0.31820881"><ele>12.6</ele><time>2022-10-31T13:48:36.0000000+00:00</time></trkpt><trkpt lat="39.30741965" lon="-0.31821175"><ele>12.6</ele><time>2022-10-31T13:48:37.0000000+00:00</time></trkpt><trkpt lat="39.30740054" lon="-0.31822206"><ele>12.6</ele><time>2022-10-31T13:48:38.0000000+00:00</time></trkpt><trkpt lat="39.30736709" lon="-0.31824812"><ele>12.6</ele><time>2022-10-31T13:48:39.0000000+00:00</time></trkpt><trkpt lat="39.30734119" lon="-0.31826137"><ele>12.8</ele><time>2022-10-31T13:48:40.0000000+00:00</time></trkpt><trkpt lat="39.30731278" lon="-0.3182695"><ele>12.8</ele><time>2022-10-31T13:48:41.0000000+00:00</time></trkpt><trkpt lat="39.30727984" lon="-0.31827335"><ele>12.8</ele><time>2022-10-31T13:48:42.0000000+00:00</time></trkpt><trkpt lat="39.30724631" lon="-0.31827327"><ele>12.8</ele><time>2022-10-31T13:48:43.0000000+00:00</time></trkpt><trkpt lat="39.30721119" lon="-0.31828048"><ele>12.8</ele><time>2022-10-31T13:48:44.0000000+00:00</time></trkpt><trkpt lat="39.30717724" lon="-0.31825894"><ele>12.8</ele><time>2022-10-31T13:48:45.0000000+00:00</time></trkpt><trkpt lat="39.30714154" lon="-0.31825475"><ele>13.0</ele><time>2022-10-31T13:48:46.0000000+00:00</time></trkpt><trkpt lat="39.3071029" lon="-0.31826329"><ele>13.0</ele><time>2022-10-31T13:48:47.0000000+00:00</time></trkpt><trkpt lat="39.307064" lon="-0.31827293"><ele>13.0</ele><time>2022-10-31T13:48:48.0000000+00:00</time></trkpt><trkpt lat="39.30702486" lon="-0.318284"><ele>13.0</ele><time>2022-10-31T13:48:49.0000000+00:00</time></trkpt><trkpt lat="39.30698329" lon="-0.31829112"><ele>13.0</ele><time>2022-10-31T13:48:50.0000000+00:00</time></trkpt><trkpt lat="39.30694448" lon="-0.31829422"><ele>13.0</ele><time>2022-10-31T13:48:51.0000000+00:00</time></trkpt><trkpt lat="39.30689679" lon="-0.31829867"><ele>13.0</ele><time>2022-10-31T13:48:52.0000000+00:00</time></trkpt><trkpt lat="39.3068646" lon="-0.31829976"><ele>12.8</ele><time>2022-10-31T13:48:53.0000000+00:00</time></trkpt><trkpt lat="39.3068237" lon="-0.3183047"><ele>12.8</ele><time>2022-10-31T13:48:54.0000000+00:00</time></trkpt><trkpt lat="39.30678539" lon="-0.31831208"><ele>12.8</ele><time>2022-10-31T13:48:55.0000000+00:00</time></trkpt><trkpt lat="39.3067496" lon="-0.31832021"><ele>12.8</ele><time>2022-10-31T13:48:56.0000000+00:00</time></trkpt><trkpt lat="39.30671901" lon="-0.31832264"><ele>12.8</ele><time>2022-10-31T13:48:57.0000000+00:00</time></trkpt><trkpt lat="39.30669361" lon="-0.31832842"><ele>12.8</ele><time>2022-10-31T13:48:58.0000000+00:00</time></trkpt><trkpt lat="39.30667467" lon="-0.31833194"><ele>12.8</ele><time>2022-10-31T13:48:59.0000000+00:00</time></trkpt><trkpt lat="39.3066641" lon="-0.31832557"><ele>12.6</ele><time>2022-10-31T13:49:00.0000000+00:00</time></trkpt><trkpt lat="39.30664902" lon="-0.31832683"><ele>12.6</ele><time>2022-10-31T13:49:01.0000000+00:00</time></trkpt><trkpt lat="39.30663611" lon="-0.31832993"><ele>12.4</ele><time>2022-10-31T13:49:02.0000000+00:00</time></trkpt><trkpt lat="39.30662622" lon="-0.31833085"><ele>12.4</ele><time>2022-10-31T13:49:03.0000000+00:00</time></trkpt><trkpt lat="39.30662178" lon="-0.31833312"><ele>12.2</ele><time>2022-10-31T13:49:04.0000000+00:00</time></trkpt><trkpt lat="39.30662178" lon="-0.31833312"><ele>12.2</ele><time>2022-10-31T13:49:05.0000000+00:00</time></trkpt><trkpt lat="39.30662178" lon="-0.31833312"><ele>12.0</ele><time>2022-10-31T13:49:06.0000000+00:00</time></trkpt><trkpt lat="39.30662178" lon="-0.31833312"><ele>12.0</ele><time>2022-10-31T13:49:07.0000000+00:00</time></trkpt><trkpt lat="39.30662178" lon="-0.31833312"><ele>12.0</ele><time>2022-10-31T13:49:08.0000000+00:00</time></trkpt><trkpt lat="39.30662178" lon="-0.31833312"><ele>12.0</ele><time>2022-10-31T13:49:09.0000000+00:00</time></trkpt><trkpt lat="39.30662178" lon="-0.31833312"><ele>12.0</ele><time>2022-10-31T13:49:10.0000000+00:00</time></trkpt><trkpt lat="39.30662178" lon="-0.31833312"><ele>12.2</ele><time>2022-10-31T13:49:11.0000000+00:00</time></trkpt><trkpt lat="39.30662178" lon="-0.31833312"><ele>12.2</ele><time>2022-10-31T13:49:12.0000000+00:00</time></trkpt><trkpt lat="39.30662178" lon="-0.31833312"><ele>12.2</ele><time>2022-10-31T13:49:13.0000000+00:00</time></trkpt><trkpt lat="39.30662178" lon="-0.31833312"><ele>12.2</ele><time>2022-10-31T13:49:14.0000000+00:00</time></trkpt><trkpt lat="39.30662178" lon="-0.31833312"><ele>12.2</ele><time>2022-10-31T13:49:15.0000000+00:00</time></trkpt><trkpt lat="39.30662178" lon="-0.31833312"><ele>12.2</ele><time>2022-10-31T13:49:16.0000000+00:00</time></trkpt><trkpt lat="39.30662178" lon="-0.31833312"><ele>12.2</ele><time>2022-10-31T13:49:17.0000000+00:00</time></trkpt><trkpt lat="39.30662178" lon="-0.31833312"><ele>12.2</ele><time>2022-10-31T13:49:18.0000000+00:00</time></trkpt><trkpt lat="39.30662178" lon="-0.31833312"><ele>12.2</ele><time>2022-10-31T13:49:19.0000000+00:00</time></trkpt><trkpt lat="39.30662052" lon="-0.31833739"><ele>12.2</ele><time>2022-10-31T13:49:20.0000000+00:00</time></trkpt><trkpt lat="39.30661473" lon="-0.31834678"><ele>12.2</ele><time>2022-10-31T13:49:21.0000000+00:00</time></trkpt><trkpt lat="39.30660702" lon="-0.31836145"><ele>12.2</ele><time>2022-10-31T13:49:22.0000000+00:00</time></trkpt><trkpt lat="39.30660468" lon="-0.3183788"><ele>12.2</ele><time>2022-10-31T13:49:23.0000000+00:00</time></trkpt><trkpt lat="39.30660367" lon="-0.31840176"><ele>12.2</ele><time>2022-10-31T13:49:24.0000000+00:00</time></trkpt><trkpt lat="39.30660183" lon="-0.31842674"><ele>12.2</ele><time>2022-10-31T13:49:25.0000000+00:00</time></trkpt><trkpt lat="39.3066056" lon="-0.31845348"><ele>12.2</ele><time>2022-10-31T13:49:26.0000000+00:00</time></trkpt><trkpt lat="39.30660971" lon="-0.31848122"><ele>12.4</ele><time>2022-10-31T13:49:27.0000000+00:00</time></trkpt><trkpt lat="39.30661297" lon="-0.31850729"><ele>12.4</ele><time>2022-10-31T13:49:28.0000000+00:00</time></trkpt><trkpt lat="39.30661205" lon="-0.31853227"><ele>12.4</ele><time>2022-10-31T13:49:29.0000000+00:00</time></trkpt><trkpt lat="39.30660971" lon="-0.31855364"><ele>12.6</ele><time>2022-10-31T13:49:30.0000000+00:00</time></trkpt><trkpt lat="39.30660845" lon="-0.31857485"><ele>12.6</ele><time>2022-10-31T13:49:31.0000000+00:00</time></trkpt><trkpt lat="39.30660954" lon="-0.31859849"><ele>12.6</ele><time>2022-10-31T13:49:32.0000000+00:00</time></trkpt><trkpt lat="39.3066087" lon="-0.31862229"><ele>12.8</ele><time>2022-10-31T13:49:33.0000000+00:00</time></trkpt><trkpt lat="39.30661398" lon="-0.318644"><ele>12.8</ele><time>2022-10-31T13:49:34.0000000+00:00</time></trkpt><trkpt lat="39.30661289" lon="-0.31867351"><ele>12.8</ele><time>2022-10-31T13:49:35.0000000+00:00</time></trkpt><trkpt lat="39.30660786" lon="-0.31870167"><ele>12.6</ele><time>2022-10-31T13:49:36.0000000+00:00</time></trkpt><trkpt lat="39.30660023" lon="-0.31873025"><ele>12.6</ele><time>2022-10-31T13:49:37.0000000+00:00</time></trkpt><trkpt lat="39.30659864" lon="-0.31875506"><ele>12.4</ele><time>2022-10-31T13:49:38.0000000+00:00</time></trkpt><trkpt lat="39.30659319" lon="-0.31878281"><ele>12.4</ele><time>2022-10-31T13:49:39.0000000+00:00</time></trkpt><trkpt lat="39.30659043" lon="-0.3188139"><ele>12.4</ele><time>2022-10-31T13:49:40.0000000+00:00</time></trkpt><trkpt lat="39.30658925" lon="-0.31884626"><ele>12.4</ele><time>2022-10-31T13:49:41.0000000+00:00</time></trkpt><trkpt lat="39.30658967" lon="-0.31887635"><ele>12.2</ele><time>2022-10-31T13:49:42.0000000+00:00</time></trkpt><trkpt lat="39.30658464" lon="-0.31890845"><ele>12.2</ele><time>2022-10-31T13:49:43.0000000+00:00</time></trkpt><trkpt lat="39.30657408" lon="-0.31893913"><ele>12.0</ele><time>2022-10-31T13:49:44.0000000+00:00</time></trkpt><trkpt lat="39.30656813" lon="-0.31896595"><ele>12.0</ele><time>2022-10-31T13:49:45.0000000+00:00</time></trkpt><trkpt lat="39.30656143" lon="-0.31899269"><ele>12.0</ele><time>2022-10-31T13:49:46.0000000+00:00</time></trkpt><trkpt lat="39.30655992" lon="-0.31901758"><ele>12.0</ele><time>2022-10-31T13:49:47.0000000+00:00</time></trkpt><trkpt lat="39.30656335" lon="-0.31904164"><ele>12.0</ele><time>2022-10-31T13:49:48.0000000+00:00</time></trkpt><trkpt lat="39.30657107" lon="-0.31906519"><ele>12.0</ele><time>2022-10-31T13:49:49.0000000+00:00</time></trkpt><trkpt lat="39.30657601" lon="-0.31909679"><ele>12.0</ele><time>2022-10-31T13:49:50.0000000+00:00</time></trkpt><trkpt lat="39.30657869" lon="-0.31913308"><ele>12.0</ele><time>2022-10-31T13:49:51.0000000+00:00</time></trkpt><trkpt lat="39.30658205" lon="-0.31917189"><ele>12.0</ele><time>2022-10-31T13:49:52.0000000+00:00</time></trkpt><trkpt lat="39.30658607" lon="-0.31921447"><ele>12.0</ele><time>2022-10-31T13:49:53.0000000+00:00</time></trkpt><trkpt lat="39.30658783" lon="-0.31926409"><ele>12.0</ele><time>2022-10-31T13:49:54.0000000+00:00</time></trkpt><trkpt lat="39.30658397" lon="-0.31931816"><ele>12.0</ele><time>2022-10-31T13:49:55.0000000+00:00</time></trkpt><trkpt lat="39.30657852" lon="-0.31937272"><ele>12.0</ele><time>2022-10-31T13:49:56.0000000+00:00</time></trkpt><trkpt lat="39.30657098" lon="-0.31942871"><ele>12.0</ele><time>2022-10-31T13:49:57.0000000+00:00</time></trkpt><trkpt lat="39.30656277" lon="-0.31948504"><ele>12.0</ele><time>2022-10-31T13:49:58.0000000+00:00</time></trkpt><trkpt lat="39.30655816" lon="-0.31954195"><ele>12.2</ele><time>2022-10-31T13:49:59.0000000+00:00</time></trkpt><trkpt lat="39.30655304" lon="-0.31959937"><ele>12.0</ele><time>2022-10-31T13:50:00.0000000+00:00</time></trkpt><trkpt lat="39.30654726" lon="-0.31965721"><ele>12.0</ele><time>2022-10-31T13:50:01.0000000+00:00</time></trkpt><trkpt lat="39.30654114" lon="-0.31971705"><ele>12.2</ele><time>2022-10-31T13:50:02.0000000+00:00</time></trkpt><trkpt lat="39.30653871" lon="-0.31977505"><ele>12.2</ele><time>2022-10-31T13:50:03.0000000+00:00</time></trkpt><trkpt lat="39.30653477" lon="-0.3198339"><ele>12.2</ele><time>2022-10-31T13:50:04.0000000+00:00</time></trkpt><trkpt lat="39.3065289" lon="-0.31989173"><ele>12.2</ele><time>2022-10-31T13:50:05.0000000+00:00</time></trkpt><trkpt lat="39.30652346" lon="-0.3199406"><ele>12.2</ele><time>2022-10-31T13:50:06.0000000+00:00</time></trkpt><trkpt lat="39.30651591" lon="-0.31998192"><ele>12.2</ele><time>2022-10-31T13:50:07.0000000+00:00</time></trkpt><trkpt lat="39.30650929" lon="-0.32001687"><ele>12.4</ele><time>2022-10-31T13:50:08.0000000+00:00</time></trkpt><trkpt lat="39.30650124" lon="-0.32004562"><ele>12.6</ele><time>2022-10-31T13:50:09.0000000+00:00</time></trkpt><trkpt lat="39.30649512" lon="-0.32006792"><ele>12.6</ele><time>2022-10-31T13:50:10.0000000+00:00</time></trkpt><trkpt lat="39.30649228" lon="-0.32009156"><ele>12.8</ele><time>2022-10-31T13:50:11.0000000+00:00</time></trkpt><trkpt lat="39.30648892" lon="-0.32011209"><ele>12.8</ele><time>2022-10-31T13:50:12.0000000+00:00</time></trkpt><trkpt lat="39.30648783" lon="-0.32013011"><ele>12.8</ele><time>2022-10-31T13:50:13.0000000+00:00</time></trkpt><trkpt lat="39.30649571" lon="-0.32014654"><ele>12.8</ele><time>2022-10-31T13:50:14.0000000+00:00</time></trkpt><trkpt lat="39.30649596" lon="-0.32016548"><ele>12.6</ele><time>2022-10-31T13:50:15.0000000+00:00</time></trkpt><trkpt lat="39.30649395" lon="-0.32018543"><ele>12.6</ele><time>2022-10-31T13:50:16.0000000+00:00</time></trkpt><trkpt lat="39.3064844" lon="-0.32020379"><ele>12.4</ele><time>2022-10-31T13:50:17.0000000+00:00</time></trkpt><trkpt lat="39.30647367" lon="-0.32022131"><ele>12.4</ele><time>2022-10-31T13:50:18.0000000+00:00</time></trkpt><trkpt lat="39.30646218" lon="-0.32023832"><ele>12.2</ele><time>2022-10-31T13:50:19.0000000+00:00</time></trkpt><trkpt lat="39.30644601" lon="-0.32026087"><ele>12.2</ele><time>2022-10-31T13:50:20.0000000+00:00</time></trkpt><trkpt lat="39.306431" lon="-0.32028786"><ele>12.2</ele><time>2022-10-31T13:50:21.0000000+00:00</time></trkpt><trkpt lat="39.3064181" lon="-0.32031728"><ele>12.2</ele><time>2022-10-31T13:50:22.0000000+00:00</time></trkpt><trkpt lat="39.30640737" lon="-0.32034863"><ele>12.0</ele><time>2022-10-31T13:50:23.0000000+00:00</time></trkpt><trkpt lat="39.30639672" lon="-0.32037822"><ele>12.0</ele><time>2022-10-31T13:50:24.0000000+00:00</time></trkpt><trkpt lat="39.30638365" lon="-0.32041074"><ele>12.0</ele><time>2022-10-31T13:50:25.0000000+00:00</time></trkpt><trkpt lat="39.30636797" lon="-0.32044276"><ele>12.0</ele><time>2022-10-31T13:50:26.0000000+00:00</time></trkpt><trkpt lat="39.30635565" lon="-0.32047754"><ele>12.0</ele><time>2022-10-31T13:50:27.0000000+00:00</time></trkpt><trkpt lat="39.30634408" lon="-0.3205104"><ele>12.0</ele><time>2022-10-31T13:50:28.0000000+00:00</time></trkpt><trkpt lat="39.30633746" lon="-0.32054426"><ele>12.0</ele><time>2022-10-31T13:50:29.0000000+00:00</time></trkpt><trkpt lat="39.30632799" lon="-0.32057586"><ele>12.0</ele><time>2022-10-31T13:50:30.0000000+00:00</time></trkpt><trkpt lat="39.30631952" lon="-0.32060721"><ele>12.0</ele><time>2022-10-31T13:50:31.0000000+00:00</time></trkpt><trkpt lat="39.30631022" lon="-0.32063596"><ele>12.0</ele><time>2022-10-31T13:50:32.0000000+00:00</time></trkpt><trkpt lat="39.30630284" lon="-0.32066429"><ele>12.0</ele><time>2022-10-31T13:50:33.0000000+00:00</time></trkpt><trkpt lat="39.30629228" lon="-0.3206917"><ele>12.0</ele><time>2022-10-31T13:50:34.0000000+00:00</time></trkpt><trkpt lat="39.30628063" lon="-0.32071576"><ele>11.8</ele><time>2022-10-31T13:50:35.0000000+00:00</time></trkpt><trkpt lat="39.30626814" lon="-0.3207378"><ele>11.8</ele><time>2022-10-31T13:50:36.0000000+00:00</time></trkpt><trkpt lat="39.30625465" lon="-0.32076119"><ele>11.8</ele><time>2022-10-31T13:50:37.0000000+00:00</time></trkpt><trkpt lat="39.30623956" lon="-0.32078642"><ele>11.8</ele><time>2022-10-31T13:50:38.0000000+00:00</time></trkpt><trkpt lat="39.30623068" lon="-0.32080871"><ele>11.8</ele><time>2022-10-31T13:50:39.0000000+00:00</time></trkpt><trkpt lat="39.30622389" lon="-0.32082941"><ele>11.8</ele><time>2022-10-31T13:50:40.0000000+00:00</time></trkpt><trkpt lat="39.30621953" lon="-0.32085163"><ele>11.8</ele><time>2022-10-31T13:50:41.0000000+00:00</time></trkpt><trkpt lat="39.30621726" lon="-0.32087225"><ele>11.8</ele><time>2022-10-31T13:50:42.0000000+00:00</time></trkpt><trkpt lat="39.306214" lon="-0.32089236"><ele>11.6</ele><time>2022-10-31T13:50:43.0000000+00:00</time></trkpt><trkpt lat="39.30620696" lon="-0.32091206"><ele>11.6</ele><time>2022-10-31T13:50:44.0000000+00:00</time></trkpt><trkpt lat="39.3061974" lon="-0.32093427"><ele>11.6</ele><time>2022-10-31T13:50:45.0000000+00:00</time></trkpt><trkpt lat="39.30618977" lon="-0.32095623"><ele>11.6</ele><time>2022-10-31T13:50:46.0000000+00:00</time></trkpt><trkpt lat="39.30618282" lon="-0.3209787"><ele>11.6</ele><time>2022-10-31T13:50:47.0000000+00:00</time></trkpt><trkpt lat="39.3061777" lon="-0.32100191"><ele>11.6</ele><time>2022-10-31T13:50:48.0000000+00:00</time></trkpt><trkpt lat="39.30617334" lon="-0.3210279"><ele>11.6</ele><time>2022-10-31T13:50:49.0000000+00:00</time></trkpt><trkpt lat="39.30616446" lon="-0.32106126"><ele>11.6</ele><time>2022-10-31T13:50:50.0000000+00:00</time></trkpt><trkpt lat="39.30615398" lon="-0.32109981"><ele>11.6</ele><time>2022-10-31T13:50:51.0000000+00:00</time></trkpt><trkpt lat="39.3061425" lon="-0.3211434"><ele>11.6</ele><time>2022-10-31T13:50:52.0000000+00:00</time></trkpt><trkpt lat="39.30612825" lon="-0.32118992"><ele>11.6</ele><time>2022-10-31T13:50:53.0000000+00:00</time></trkpt><trkpt lat="39.30610838" lon="-0.32124247"><ele>11.6</ele><time>2022-10-31T13:50:54.0000000+00:00</time></trkpt><trkpt lat="39.30609003" lon="-0.32129536"><ele>11.6</ele><time>2022-10-31T13:50:55.0000000+00:00</time></trkpt><trkpt lat="39.30607159" lon="-0.32135001"><ele>11.6</ele><time>2022-10-31T13:50:56.0000000+00:00</time></trkpt><trkpt lat="39.30605424" lon="-0.32140601"><ele>11.6</ele><time>2022-10-31T13:50:57.0000000+00:00</time></trkpt><trkpt lat="39.30603538" lon="-0.32146191"><ele>11.6</ele><time>2022-10-31T13:50:58.0000000+00:00</time></trkpt><trkpt lat="39.30601434" lon="-0.32152117"><ele>11.6</ele><time>2022-10-31T13:50:59.0000000+00:00</time></trkpt><trkpt lat="39.30599732" lon="-0.32158303"><ele>11.6</ele><time>2022-10-31T13:51:00.0000000+00:00</time></trkpt><trkpt lat="39.30597846" lon="-0.32164103"><ele>11.4</ele><time>2022-10-31T13:51:01.0000000+00:00</time></trkpt><trkpt lat="39.30595818" lon="-0.32169627"><ele>11.4</ele><time>2022-10-31T13:51:02.0000000+00:00</time></trkpt><trkpt lat="39.30593764" lon="-0.32175218"><ele>11.4</ele><time>2022-10-31T13:51:03.0000000+00:00</time></trkpt><trkpt lat="39.30592063" lon="-0.32180591"><ele>11.4</ele><time>2022-10-31T13:51:04.0000000+00:00</time></trkpt><trkpt lat="39.30590169" lon="-0.32186902"><ele>11.4</ele><time>2022-10-31T13:51:05.0000000+00:00</time></trkpt><trkpt lat="39.30588853" lon="-0.321909"><ele>11.4</ele><time>2022-10-31T13:51:06.0000000+00:00</time></trkpt><trkpt lat="39.30586908" lon="-0.32196977"><ele>11.2</ele><time>2022-10-31T13:51:07.0000000+00:00</time></trkpt><trkpt lat="39.30584905" lon="-0.32201864"><ele>11.2</ele><time>2022-10-31T13:51:08.0000000+00:00</time></trkpt><trkpt lat="39.30583589" lon="-0.32205602"><ele>11.2</ele><time>2022-10-31T13:51:09.0000000+00:00</time></trkpt><trkpt lat="39.30581862" lon="-0.32210464"><ele>11.2</ele><time>2022-10-31T13:51:10.0000000+00:00</time></trkpt><trkpt lat="39.30580035" lon="-0.32216222"><ele>11.0</ele><time>2022-10-31T13:51:11.0000000+00:00</time></trkpt><trkpt lat="39.30578778" lon="-0.32220111"><ele>11.0</ele><time>2022-10-31T13:51:12.0000000+00:00</time></trkpt><trkpt lat="39.30576774" lon="-0.3222587"><ele>11.0</ele><time>2022-10-31T13:51:13.0000000+00:00</time></trkpt><trkpt lat="39.30575408" lon="-0.32230471"><ele>10.8</ele><time>2022-10-31T13:51:14.0000000+00:00</time></trkpt><trkpt lat="39.30574302" lon="-0.32233715"><ele>10.8</ele><time>2022-10-31T13:51:15.0000000+00:00</time></trkpt><trkpt lat="39.305726" lon="-0.32238669"><ele>10.8</ele><time>2022-10-31T13:51:16.0000000+00:00</time></trkpt><trkpt lat="39.30572164" lon="-0.32241988"><ele>10.6</ele><time>2022-10-31T13:51:17.0000000+00:00</time></trkpt><trkpt lat="39.30570982" lon="-0.32246011"><ele>10.8</ele><time>2022-10-31T13:51:18.0000000+00:00</time></trkpt><trkpt lat="39.30569373" lon="-0.32250764"><ele>10.8</ele><time>2022-10-31T13:51:19.0000000+00:00</time></trkpt><trkpt lat="39.30567814" lon="-0.32254938"><ele>10.8</ele><time>2022-10-31T13:51:20.0000000+00:00</time></trkpt><trkpt lat="39.30566666" lon="-0.32257997"><ele>10.8</ele><time>2022-10-31T13:51:21.0000000+00:00</time></trkpt><trkpt lat="39.30565325" lon="-0.32261971"><ele>10.8</ele><time>2022-10-31T13:51:22.0000000+00:00</time></trkpt><trkpt lat="39.30563766" lon="-0.32266681"><ele>10.8</ele><time>2022-10-31T13:51:23.0000000+00:00</time></trkpt><trkpt lat="39.30563045" lon="-0.32269782"><ele>10.8</ele><time>2022-10-31T13:51:24.0000000+00:00</time></trkpt><trkpt lat="39.30561762" lon="-0.32273496"><ele>10.8</ele><time>2022-10-31T13:51:25.0000000+00:00</time></trkpt><trkpt lat="39.30560195" lon="-0.32277502"><ele>10.8</ele><time>2022-10-31T13:51:26.0000000+00:00</time></trkpt><trkpt lat="39.3055846" lon="-0.32281148"><ele>10.8</ele><time>2022-10-31T13:51:27.0000000+00:00</time></trkpt><trkpt lat="39.30556976" lon="-0.32284694"><ele>10.8</ele><time>2022-10-31T13:51:28.0000000+00:00</time></trkpt><trkpt lat="39.30556021" lon="-0.32288021"><ele>10.8</ele><time>2022-10-31T13:51:29.0000000+00:00</time></trkpt><trkpt lat="39.30555183" lon="-0.32290787"><ele>10.8</ele><time>2022-10-31T13:51:30.0000000+00:00</time></trkpt><trkpt lat="39.30553825" lon="-0.32294836"><ele>11.0</ele><time>2022-10-31T13:51:31.0000000+00:00</time></trkpt><trkpt lat="39.30552601" lon="-0.32298055"><ele>11.0</ele><time>2022-10-31T13:51:32.0000000+00:00</time></trkpt><trkpt lat="39.30551545" lon="-0.32300678"><ele>11.0</ele><time>2022-10-31T13:51:33.0000000+00:00</time></trkpt><trkpt lat="39.30549944" lon="-0.32304567"><ele>11.0</ele><time>2022-10-31T13:51:34.0000000+00:00</time></trkpt><trkpt lat="39.30548703" lon="-0.32307602"><ele>11.0</ele><time>2022-10-31T13:51:35.0000000+00:00</time></trkpt><trkpt lat="39.30547907" lon="-0.32309965"><ele>11.0</ele><time>2022-10-31T13:51:36.0000000+00:00</time></trkpt><trkpt lat="39.30546574" lon="-0.32313603"><ele>11.0</ele><time>2022-10-31T13:51:37.0000000+00:00</time></trkpt><trkpt lat="39.30545661" lon="-0.32316294"><ele>11.0</ele><time>2022-10-31T13:51:38.0000000+00:00</time></trkpt><trkpt lat="39.30544831" lon="-0.32318473"><ele>11.0</ele><time>2022-10-31T13:51:39.0000000+00:00</time></trkpt><trkpt lat="39.3054349" lon="-0.32322262"><ele>11.0</ele><time>2022-10-31T13:51:40.0000000+00:00</time></trkpt><trkpt lat="39.3054261" lon="-0.32324986"><ele>11.0</ele><time>2022-10-31T13:51:41.0000000+00:00</time></trkpt><trkpt lat="39.30541109" lon="-0.323289"><ele>11.0</ele><time>2022-10-31T13:51:42.0000000+00:00</time></trkpt><trkpt lat="39.3053976" lon="-0.32333233"><ele>11.0</ele><time>2022-10-31T13:51:43.0000000+00:00</time></trkpt><trkpt lat="39.30538251" lon="-0.32337969"><ele>11.0</ele><time>2022-10-31T13:51:44.0000000+00:00</time></trkpt><trkpt lat="39.30536734" lon="-0.32343728"><ele>11.0</ele><time>2022-10-31T13:51:45.0000000+00:00</time></trkpt><trkpt lat="39.30535527" lon="-0.32348388"><ele>11.0</ele><time>2022-10-31T13:51:46.0000000+00:00</time></trkpt><trkpt lat="39.30533943" lon="-0.32353099"><ele>11.0</ele><time>2022-10-31T13:51:47.0000000+00:00</time></trkpt><trkpt lat="39.30532417" lon="-0.32357776"><ele>11.0</ele><time>2022-10-31T13:51:48.0000000+00:00</time></trkpt><trkpt lat="39.30530875" lon="-0.32362562"><ele>10.8</ele><time>2022-10-31T13:51:49.0000000+00:00</time></trkpt><trkpt lat="39.30529316" lon="-0.32367356"><ele>11.0</ele><time>2022-10-31T13:51:50.0000000+00:00</time></trkpt><trkpt lat="39.30527874" lon="-0.32372444"><ele>11.0</ele><time>2022-10-31T13:51:51.0000000+00:00</time></trkpt><trkpt lat="39.3052629" lon="-0.32377708"><ele>10.8</ele><time>2022-10-31T13:51:52.0000000+00:00</time></trkpt><trkpt lat="39.30524513" lon="-0.32382955"><ele>11.0</ele><time>2022-10-31T13:51:53.0000000+00:00</time></trkpt><trkpt lat="39.30522644" lon="-0.32387875"><ele>11.0</ele><time>2022-10-31T13:51:54.0000000+00:00</time></trkpt><trkpt lat="39.30520783" lon="-0.32392996"><ele>10.8</ele><time>2022-10-31T13:51:55.0000000+00:00</time></trkpt><trkpt lat="39.30518956" lon="-0.32398202"><ele>10.8</ele><time>2022-10-31T13:51:56.0000000+00:00</time></trkpt><trkpt lat="39.30516936" lon="-0.32403264"><ele>10.8</ele><time>2022-10-31T13:51:57.0000000+00:00</time></trkpt><trkpt lat="39.30514933" lon="-0.32408746"><ele>10.6</ele><time>2022-10-31T13:51:58.0000000+00:00</time></trkpt><trkpt lat="39.30513357" lon="-0.32413004"><ele>10.6</ele><time>2022-10-31T13:51:59.0000000+00:00</time></trkpt><trkpt lat="39.30511337" lon="-0.32418142"><ele>10.4</ele><time>2022-10-31T13:52:00.0000000+00:00</time></trkpt><trkpt lat="39.30509375" lon="-0.3242411"><ele>10.6</ele><time>2022-10-31T13:52:01.0000000+00:00</time></trkpt><trkpt lat="39.30507808" lon="-0.32428661"><ele>10.6</ele><time>2022-10-31T13:52:02.0000000+00:00</time></trkpt><trkpt lat="39.30506056" lon="-0.3243302"><ele>10.6</ele><time>2022-10-31T13:52:03.0000000+00:00</time></trkpt><trkpt lat="39.30504338" lon="-0.32437161"><ele>10.6</ele><time>2022-10-31T13:52:04.0000000+00:00</time></trkpt><trkpt lat="39.30503014" lon="-0.3244084"><ele>10.6</ele><time>2022-10-31T13:52:05.0000000+00:00</time></trkpt><trkpt lat="39.30501396" lon="-0.32444512"><ele>10.6</ele><time>2022-10-31T13:52:06.0000000+00:00</time></trkpt><trkpt lat="39.30499778" lon="-0.32448468"><ele>10.6</ele><time>2022-10-31T13:52:07.0000000+00:00</time></trkpt><trkpt lat="39.3049858" lon="-0.32452365"><ele>10.4</ele><time>2022-10-31T13:52:08.0000000+00:00</time></trkpt><trkpt lat="39.30497448" lon="-0.32456221"><ele>10.4</ele><time>2022-10-31T13:52:09.0000000+00:00</time></trkpt><trkpt lat="39.30496509" lon="-0.32459138"><ele>10.4</ele><time>2022-10-31T13:52:10.0000000+00:00</time></trkpt><trkpt lat="39.30494992" lon="-0.32463069"><ele>10.4</ele><time>2022-10-31T13:52:11.0000000+00:00</time></trkpt><trkpt lat="39.30493483" lon="-0.32466397"><ele>10.4</ele><time>2022-10-31T13:52:12.0000000+00:00</time></trkpt><trkpt lat="39.30492176" lon="-0.32469716"><ele>10.4</ele><time>2022-10-31T13:52:13.0000000+00:00</time></trkpt><trkpt lat="39.3049091" lon="-0.32473253"><ele>10.4</ele><time>2022-10-31T13:52:14.0000000+00:00</time></trkpt><trkpt lat="39.30489586" lon="-0.32476807"><ele>10.4</ele><time>2022-10-31T13:52:15.0000000+00:00</time></trkpt><trkpt lat="39.30488471" lon="-0.32479489"><ele>10.4</ele><time>2022-10-31T13:52:16.0000000+00:00</time></trkpt><trkpt lat="39.30487147" lon="-0.32482658"><ele>10.4</ele><time>2022-10-31T13:52:17.0000000+00:00</time></trkpt><trkpt lat="39.30485915" lon="-0.32486178"><ele>10.4</ele><time>2022-10-31T13:52:18.0000000+00:00</time></trkpt><trkpt lat="39.30485034" lon="-0.32488785"><ele>10.4</ele><time>2022-10-31T13:52:19.0000000+00:00</time></trkpt><trkpt lat="39.30484079" lon="-0.32491878"><ele>10.4</ele><time>2022-10-31T13:52:20.0000000+00:00</time></trkpt><trkpt lat="39.30483207" lon="-0.32494946"><ele>10.4</ele><time>2022-10-31T13:52:21.0000000+00:00</time></trkpt><trkpt lat="39.3048226" lon="-0.32497963"><ele>10.4</ele><time>2022-10-31T13:52:22.0000000+00:00</time></trkpt><trkpt lat="39.30481497" lon="-0.32501198"><ele>10.4</ele><time>2022-10-31T13:52:23.0000000+00:00</time></trkpt><trkpt lat="39.3048055" lon="-0.32504727"><ele>10.4</ele><time>2022-10-31T13:52:24.0000000+00:00</time></trkpt><trkpt lat="39.30479712" lon="-0.32507451"><ele>10.6</ele><time>2022-10-31T13:52:25.0000000+00:00</time></trkpt><trkpt lat="39.30478471" lon="-0.32511215"><ele>10.6</ele><time>2022-10-31T13:52:26.0000000+00:00</time></trkpt><trkpt lat="39.30477105" lon="-0.32515892"><ele>10.6</ele><time>2022-10-31T13:52:27.0000000+00:00</time></trkpt><trkpt lat="39.30475907" lon="-0.32520125"><ele>10.6</ele><time>2022-10-31T13:52:28.0000000+00:00</time></trkpt><trkpt lat="39.30474565" lon="-0.32524802"><ele>10.6</ele><time>2022-10-31T13:52:29.0000000+00:00</time></trkpt><trkpt lat="39.3047309" lon="-0.32529839"><ele>10.6</ele><time>2022-10-31T13:52:30.0000000+00:00</time></trkpt><trkpt lat="39.30471238" lon="-0.32535061"><ele>10.4</ele><time>2022-10-31T13:52:31.0000000+00:00</time></trkpt><trkpt lat="39.30469285" lon="-0.3254035"><ele>10.4</ele><time>2022-10-31T13:52:32.0000000+00:00</time></trkpt><trkpt lat="39.30467684" lon="-0.325447"><ele>10.4</ele><time>2022-10-31T13:52:33.0000000+00:00</time></trkpt><trkpt lat="39.30465329" lon="-0.32551113"><ele>10.4</ele><time>2022-10-31T13:52:34.0000000+00:00</time></trkpt><trkpt lat="39.30463728" lon="-0.32556863"><ele>10.4</ele><time>2022-10-31T13:52:35.0000000+00:00</time></trkpt><trkpt lat="39.30461967" lon="-0.3256273"><ele>10.4</ele><time>2022-10-31T13:52:36.0000000+00:00</time></trkpt><trkpt lat="39.30460174" lon="-0.32568446"><ele>10.6</ele><time>2022-10-31T13:52:37.0000000+00:00</time></trkpt><trkpt lat="39.30458271" lon="-0.32573953"><ele>10.6</ele><time>2022-10-31T13:52:38.0000000+00:00</time></trkpt><trkpt lat="39.30456586" lon="-0.32579242"><ele>10.6</ele><time>2022-10-31T13:52:39.0000000+00:00</time></trkpt><trkpt lat="39.30454809" lon="-0.32584456"><ele>10.8</ele><time>2022-10-31T13:52:40.0000000+00:00</time></trkpt><trkpt lat="39.30453342" lon="-0.32588722"><ele>10.8</ele><time>2022-10-31T13:52:41.0000000+00:00</time></trkpt><trkpt lat="39.30451415" lon="-0.32594916"><ele>10.6</ele><time>2022-10-31T13:52:42.0000000+00:00</time></trkpt><trkpt lat="39.30449889" lon="-0.32599728"><ele>10.6</ele><time>2022-10-31T13:52:43.0000000+00:00</time></trkpt><trkpt lat="39.30448313" lon="-0.32604447"><ele>10.6</ele><time>2022-10-31T13:52:44.0000000+00:00</time></trkpt><trkpt lat="39.30446788" lon="-0.32609283"><ele>10.6</ele><time>2022-10-31T13:52:45.0000000+00:00</time></trkpt><trkpt lat="39.30445287" lon="-0.32613851"><ele>10.6</ele><time>2022-10-31T13:52:46.0000000+00:00</time></trkpt><trkpt lat="39.30443888" lon="-0.32618134"><ele>10.6</ele><time>2022-10-31T13:52:47.0000000+00:00</time></trkpt><trkpt lat="39.30442572" lon="-0.32622183"><ele>10.6</ele><time>2022-10-31T13:52:48.0000000+00:00</time></trkpt><trkpt lat="39.30441507" lon="-0.32625695"><ele>10.6</ele><time>2022-10-31T13:52:49.0000000+00:00</time></trkpt><trkpt lat="39.30439378" lon="-0.3263069"><ele>10.6</ele><time>2022-10-31T13:52:50.0000000+00:00</time></trkpt><trkpt lat="39.30437635" lon="-0.32634446"><ele>10.6</ele><time>2022-10-31T13:52:51.0000000+00:00</time></trkpt><trkpt lat="39.30435975" lon="-0.32638234"><ele>10.6</ele><time>2022-10-31T13:52:52.0000000+00:00</time></trkpt><trkpt lat="39.30434366" lon="-0.32642408"><ele>10.4</ele><time>2022-10-31T13:52:53.0000000+00:00</time></trkpt><trkpt lat="39.30432849" lon="-0.32646792"><ele>10.4</ele><time>2022-10-31T13:52:54.0000000+00:00</time></trkpt><trkpt lat="39.30431558" lon="-0.32651058"><ele>10.4</ele><time>2022-10-31T13:52:55.0000000+00:00</time></trkpt><trkpt lat="39.30430208" lon="-0.32655409"><ele>10.4</ele><time>2022-10-31T13:52:56.0000000+00:00</time></trkpt><trkpt lat="39.30428825" lon="-0.32660044"><ele>10.4</ele><time>2022-10-31T13:52:57.0000000+00:00</time></trkpt><trkpt lat="39.30427291" lon="-0.32664998"><ele>10.4</ele><time>2022-10-31T13:52:58.0000000+00:00</time></trkpt><trkpt lat="39.304259" lon="-0.32669147"><ele>10.4</ele><time>2022-10-31T13:52:59.0000000+00:00</time></trkpt><trkpt lat="39.30424165" lon="-0.32674327"><ele>10.4</ele><time>2022-10-31T13:53:00.0000000+00:00</time></trkpt><trkpt lat="39.30421885" lon="-0.32680864"><ele>10.6</ele><time>2022-10-31T13:53:01.0000000+00:00</time></trkpt><trkpt lat="39.30420058" lon="-0.32686371"><ele>10.6</ele><time>2022-10-31T13:53:02.0000000+00:00</time></trkpt><trkpt lat="39.30418105" lon="-0.32691878"><ele>10.8</ele><time>2022-10-31T13:53:03.0000000+00:00</time></trkpt><trkpt lat="39.30415934" lon="-0.32697125"><ele>10.8</ele><time>2022-10-31T13:53:04.0000000+00:00</time></trkpt><trkpt lat="39.30413864" lon="-0.32702113"><ele>10.8</ele><time>2022-10-31T13:53:05.0000000+00:00</time></trkpt><trkpt lat="39.30411961" lon="-0.32706924"><ele>10.8</ele><time>2022-10-31T13:53:06.0000000+00:00</time></trkpt><trkpt lat="39.30410134" lon="-0.32711517"><ele>10.6</ele><time>2022-10-31T13:53:07.0000000+00:00</time></trkpt><trkpt lat="39.30408717" lon="-0.3271513"><ele>10.6</ele><time>2022-10-31T13:53:08.0000000+00:00</time></trkpt><trkpt lat="39.30406965" lon="-0.32720167"><ele>10.6</ele><time>2022-10-31T13:53:09.0000000+00:00</time></trkpt><trkpt lat="39.30405482" lon="-0.32724836"><ele>10.6</ele><time>2022-10-31T13:53:10.0000000+00:00</time></trkpt><trkpt lat="39.3040409" lon="-0.32729605"><ele>10.6</ele><time>2022-10-31T13:53:11.0000000+00:00</time></trkpt><trkpt lat="39.30402054" lon="-0.32735397"><ele>10.6</ele><time>2022-10-31T13:53:12.0000000+00:00</time></trkpt><trkpt lat="39.30400327" lon="-0.3274051"><ele>10.6</ele><time>2022-10-31T13:53:13.0000000+00:00</time></trkpt><trkpt lat="39.30398818" lon="-0.32745841"><ele>10.6</ele><time>2022-10-31T13:53:14.0000000+00:00</time></trkpt><trkpt lat="39.30397242" lon="-0.3275108"><ele>10.6</ele><time>2022-10-31T13:53:15.0000000+00:00</time></trkpt><trkpt lat="39.30395549" lon="-0.32756494"><ele>10.6</ele><time>2022-10-31T13:53:16.0000000+00:00</time></trkpt><trkpt lat="39.30393856" lon="-0.32760912"><ele>10.6</ele><time>2022-10-31T13:53:17.0000000+00:00</time></trkpt><trkpt lat="39.30391031" lon="-0.32767609"><ele>10.6</ele><time>2022-10-31T13:53:18.0000000+00:00</time></trkpt><trkpt lat="39.30388894" lon="-0.32773116"><ele>10.6</ele><time>2022-10-31T13:53:19.0000000+00:00</time></trkpt><trkpt lat="39.30386874" lon="-0.32779"><ele>10.6</ele><time>2022-10-31T13:53:20.0000000+00:00</time></trkpt><trkpt lat="39.30384938" lon="-0.32784666"><ele>10.6</ele><time>2022-10-31T13:53:21.0000000+00:00</time></trkpt><trkpt lat="39.30383043" lon="-0.32790366"><ele>10.4</ele><time>2022-10-31T13:53:22.0000000+00:00</time></trkpt><trkpt lat="39.30381275" lon="-0.32796007"><ele>10.4</ele><time>2022-10-31T13:53:23.0000000+00:00</time></trkpt><trkpt lat="39.30379397" lon="-0.32801765"><ele>10.6</ele><time>2022-10-31T13:53:24.0000000+00:00</time></trkpt><trkpt lat="39.30377595" lon="-0.32806316"><ele>10.4</ele><time>2022-10-31T13:53:25.0000000+00:00</time></trkpt><trkpt lat="39.30375181" lon="-0.32813609"><ele>10.4</ele><time>2022-10-31T13:53:26.0000000+00:00</time></trkpt><trkpt lat="39.30373354" lon="-0.32819501"><ele>10.6</ele><time>2022-10-31T13:53:27.0000000+00:00</time></trkpt><trkpt lat="39.30371862" lon="-0.32824229"><ele>10.6</ele><time>2022-10-31T13:53:28.0000000+00:00</time></trkpt><trkpt lat="39.30369339" lon="-0.32831848"><ele>10.6</ele><time>2022-10-31T13:53:29.0000000+00:00</time></trkpt><trkpt lat="39.30367646" lon="-0.32836868"><ele>10.6</ele><time>2022-10-31T13:53:30.0000000+00:00</time></trkpt><trkpt lat="39.30365576" lon="-0.32843247"><ele>10.6</ele><time>2022-10-31T13:53:31.0000000+00:00</time></trkpt><trkpt lat="39.30363405" lon="-0.32849542"><ele>10.6</ele><time>2022-10-31T13:53:32.0000000+00:00</time></trkpt><trkpt lat="39.30361259" lon="-0.32855711"><ele>10.8</ele><time>2022-10-31T13:53:33.0000000+00:00</time></trkpt><trkpt lat="39.30358694" lon="-0.32863372"><ele>10.6</ele><time>2022-10-31T13:53:34.0000000+00:00</time></trkpt><trkpt lat="39.30356632" lon="-0.32870145"><ele>10.6</ele><time>2022-10-31T13:53:35.0000000+00:00</time></trkpt><trkpt lat="39.30354352" lon="-0.32877085"><ele>10.6</ele><time>2022-10-31T13:53:36.0000000+00:00</time></trkpt><trkpt lat="39.30352072" lon="-0.32884235"><ele>10.6</ele><time>2022-10-31T13:53:37.0000000+00:00</time></trkpt><trkpt lat="39.30349935" lon="-0.32889934"><ele>10.6</ele><time>2022-10-31T13:53:38.0000000+00:00</time></trkpt><trkpt lat="39.30347378" lon="-0.32897947"><ele>10.6</ele><time>2022-10-31T13:53:39.0000000+00:00</time></trkpt><trkpt lat="39.30345208" lon="-0.3290493"><ele>10.6</ele><time>2022-10-31T13:53:40.0000000+00:00</time></trkpt><trkpt lat="39.30343146" lon="-0.32910721"><ele>10.6</ele><time>2022-10-31T13:53:41.0000000+00:00</time></trkpt><trkpt lat="39.30340338" lon="-0.32919053"><ele>10.6</ele><time>2022-10-31T13:53:42.0000000+00:00</time></trkpt><trkpt lat="39.30338225" lon="-0.32926102"><ele>10.6</ele><time>2022-10-31T13:53:43.0000000+00:00</time></trkpt><trkpt lat="39.30336423" lon="-0.32931651"><ele>10.6</ele><time>2022-10-31T13:53:44.0000000+00:00</time></trkpt><trkpt lat="39.3033354" lon="-0.32939614"><ele>10.6</ele><time>2022-10-31T13:53:45.0000000+00:00</time></trkpt><trkpt lat="39.30331143" lon="-0.32946303"><ele>10.6</ele><time>2022-10-31T13:53:46.0000000+00:00</time></trkpt><trkpt lat="39.30329357" lon="-0.32951709"><ele>10.6</ele><time>2022-10-31T13:53:47.0000000+00:00</time></trkpt><trkpt lat="39.30326776" lon="-0.32959521"><ele>10.8</ele><time>2022-10-31T13:53:48.0000000+00:00</time></trkpt><trkpt lat="39.30325124" lon="-0.32964475"><ele>10.8</ele><time>2022-10-31T13:53:49.0000000+00:00</time></trkpt><trkpt lat="39.30323331" lon="-0.32970945"><ele>10.8</ele><time>2022-10-31T13:53:50.0000000+00:00</time></trkpt><trkpt lat="39.30321638" lon="-0.32977575"><ele>11.0</ele><time>2022-10-31T13:53:51.0000000+00:00</time></trkpt><trkpt lat="39.30320858" lon="-0.32981649"><ele>11.0</ele><time>2022-10-31T13:53:52.0000000+00:00</time></trkpt><trkpt lat="39.30320137" lon="-0.32986167"><ele>11.2</ele><time>2022-10-31T13:53:53.0000000+00:00</time></trkpt><trkpt lat="39.3031981" lon="-0.32989872"><ele>11.2</ele><time>2022-10-31T13:53:54.0000000+00:00</time></trkpt><trkpt lat="39.30319777" lon="-0.32993493"><ele>11.4</ele><time>2022-10-31T13:53:55.0000000+00:00</time></trkpt><trkpt lat="39.30319944" lon="-0.32995412"><ele>11.6</ele><time>2022-10-31T13:53:56.0000000+00:00</time></trkpt><trkpt lat="39.30319659" lon="-0.32998497"><ele>11.8</ele><time>2022-10-31T13:53:57.0000000+00:00</time></trkpt><trkpt lat="39.30320095" lon="-0.33000894"><ele>11.8</ele><time>2022-10-31T13:53:58.0000000+00:00</time></trkpt><trkpt lat="39.3032064" lon="-0.33002579"><ele>11.8</ele><time>2022-10-31T13:53:59.0000000+00:00</time></trkpt><trkpt lat="39.30321026" lon="-0.33004649"><ele>11.8</ele><time>2022-10-31T13:54:00.0000000+00:00</time></trkpt><trkpt lat="39.30321646" lon="-0.33006476"><ele>11.8</ele><time>2022-10-31T13:54:01.0000000+00:00</time></trkpt><trkpt lat="39.30321621" lon="-0.33007314"><ele>11.8</ele><time>2022-10-31T13:54:02.0000000+00:00</time></trkpt><trkpt lat="39.30320514" lon="-0.33008262"><ele>11.6</ele><time>2022-10-31T13:54:03.0000000+00:00</time></trkpt><trkpt lat="39.30319232" lon="-0.33008957"><ele>11.4</ele><time>2022-10-31T13:54:04.0000000+00:00</time></trkpt><trkpt lat="39.30317849" lon="-0.33009712"><ele>11.4</ele><time>2022-10-31T13:54:05.0000000+00:00</time></trkpt><trkpt lat="39.30316483" lon="-0.33010525"><ele>11.4</ele><time>2022-10-31T13:54:06.0000000+00:00</time></trkpt><trkpt lat="39.30314857" lon="-0.33010525"><ele>11.2</ele><time>2022-10-31T13:54:07.0000000+00:00</time></trkpt><trkpt lat="39.30312619" lon="-0.33010315"><ele>11.2</ele><time>2022-10-31T13:54:08.0000000+00:00</time></trkpt><trkpt lat="39.30310833" lon="-0.33010248"><ele>11.2</ele><time>2022-10-31T13:54:09.0000000+00:00</time></trkpt><trkpt lat="39.30308855" lon="-0.33010298"><ele>11.2</ele><time>2022-10-31T13:54:10.0000000+00:00</time></trkpt><trkpt lat="39.30306768" lon="-0.33009946"><ele>11.0</ele><time>2022-10-31T13:54:11.0000000+00:00</time></trkpt><trkpt lat="39.30303793" lon="-0.3300962"><ele>11.0</ele><time>2022-10-31T13:54:12.0000000+00:00</time></trkpt><trkpt lat="39.30301203" lon="-0.33009184"><ele>11.0</ele><time>2022-10-31T13:54:13.0000000+00:00</time></trkpt><trkpt lat="39.30297699" lon="-0.33008806"><ele>11.0</ele><time>2022-10-31T13:54:14.0000000+00:00</time></trkpt><trkpt lat="39.30293374" lon="-0.33008463"><ele>11.0</ele><time>2022-10-31T13:54:15.0000000+00:00</time></trkpt><trkpt lat="39.30290247" lon="-0.33008153"><ele>11.0</ele><time>2022-10-31T13:54:16.0000000+00:00</time></trkpt><trkpt lat="39.30286308" lon="-0.33008262"><ele>11.0</ele><time>2022-10-31T13:54:17.0000000+00:00</time></trkpt><trkpt lat="39.30282033" lon="-0.3300889"><ele>11.0</ele><time>2022-10-31T13:54:18.0000000+00:00</time></trkpt><trkpt lat="39.30278312" lon="-0.33009796"><ele>11.0</ele><time>2022-10-31T13:54:19.0000000+00:00</time></trkpt><trkpt lat="39.30274623" lon="-0.3301034"><ele>11.0</ele><time>2022-10-31T13:54:20.0000000+00:00</time></trkpt><trkpt lat="39.30270667" lon="-0.33010642"><ele>11.0</ele><time>2022-10-31T13:54:21.0000000+00:00</time></trkpt><trkpt lat="39.30267013" lon="-0.33010818"><ele>11.0</ele><time>2022-10-31T13:54:22.0000000+00:00</time></trkpt><trkpt lat="39.30263551" lon="-0.33011254"><ele>11.0</ele><time>2022-10-31T13:54:23.0000000+00:00</time></trkpt><trkpt lat="39.30260014" lon="-0.33011464"><ele>11.0</ele><time>2022-10-31T13:54:24.0000000+00:00</time></trkpt><trkpt lat="39.30256963" lon="-0.33011472"><ele>11.0</ele><time>2022-10-31T13:54:25.0000000+00:00</time></trkpt><trkpt lat="39.30252981" lon="-0.33011422"><ele>11.0</ele><time>2022-10-31T13:54:26.0000000+00:00</time></trkpt><trkpt lat="39.30247994" lon="-0.33011363"><ele>11.0</ele><time>2022-10-31T13:54:27.0000000+00:00</time></trkpt><trkpt lat="39.30243803" lon="-0.33011715"><ele>11.0</ele><time>2022-10-31T13:54:28.0000000+00:00</time></trkpt><trkpt lat="39.30239453" lon="-0.33012059"><ele>11.0</ele><time>2022-10-31T13:54:29.0000000+00:00</time></trkpt><trkpt lat="39.30235019" lon="-0.33012562"><ele>11.0</ele><time>2022-10-31T13:54:30.0000000+00:00</time></trkpt><trkpt lat="39.30230644" lon="-0.33013031"><ele>11.0</ele><time>2022-10-31T13:54:31.0000000+00:00</time></trkpt><trkpt lat="39.30227157" lon="-0.33013308"><ele>11.0</ele><time>2022-10-31T13:54:32.0000000+00:00</time></trkpt><trkpt lat="39.30222681" lon="-0.33013333"><ele>11.0</ele><time>2022-10-31T13:54:33.0000000+00:00</time></trkpt><trkpt lat="39.30217844" lon="-0.33013593"><ele>11.2</ele><time>2022-10-31T13:54:34.0000000+00:00</time></trkpt><trkpt lat="39.30213134" lon="-0.33013785"><ele>11.2</ele><time>2022-10-31T13:54:35.0000000+00:00</time></trkpt><trkpt lat="39.30207459" lon="-0.33013928"><ele>11.2</ele><time>2022-10-31T13:54:36.0000000+00:00</time></trkpt><trkpt lat="39.30202522" lon="-0.33013945"><ele>11.2</ele><time>2022-10-31T13:54:37.0000000+00:00</time></trkpt><trkpt lat="39.30198457" lon="-0.33013735"><ele>11.2</ele><time>2022-10-31T13:54:38.0000000+00:00</time></trkpt><trkpt lat="39.30192263" lon="-0.33013417"><ele>11.2</ele><time>2022-10-31T13:54:39.0000000+00:00</time></trkpt><trkpt lat="39.30187217" lon="-0.33013132"><ele>11.2</ele><time>2022-10-31T13:54:40.0000000+00:00</time></trkpt><trkpt lat="39.30183034" lon="-0.33012562"><ele>11.2</ele><time>2022-10-31T13:54:41.0000000+00:00</time></trkpt><trkpt lat="39.30178039" lon="-0.33011774"><ele>11.4</ele><time>2022-10-31T13:54:42.0000000+00:00</time></trkpt><trkpt lat="39.30171669" lon="-0.33010801"><ele>11.4</ele><time>2022-10-31T13:54:43.0000000+00:00</time></trkpt><trkpt lat="39.30166639" lon="-0.33009888"><ele>11.4</ele><time>2022-10-31T13:54:44.0000000+00:00</time></trkpt><trkpt lat="39.30161367" lon="-0.33008555"><ele>11.4</ele><time>2022-10-31T13:54:45.0000000+00:00</time></trkpt><trkpt lat="39.30156212" lon="-0.33007029"><ele>11.4</ele><time>2022-10-31T13:54:46.0000000+00:00</time></trkpt><trkpt lat="39.30151485" lon="-0.33005638"><ele>11.4</ele><time>2022-10-31T13:54:47.0000000+00:00</time></trkpt><trkpt lat="39.30146623" lon="-0.33004113"><ele>11.4</ele><time>2022-10-31T13:54:48.0000000+00:00</time></trkpt><trkpt lat="39.30142156" lon="-0.33002118"><ele>11.4</ele><time>2022-10-31T13:54:49.0000000+00:00</time></trkpt><trkpt lat="39.30138317" lon="-0.33000207"><ele>11.4</ele><time>2022-10-31T13:54:50.0000000+00:00</time></trkpt><trkpt lat="39.30132751" lon="-0.32996871"><ele>11.4</ele><time>2022-10-31T13:54:51.0000000+00:00</time></trkpt><trkpt lat="39.30128401" lon="-0.32994323"><ele>11.4</ele><time>2022-10-31T13:54:52.0000000+00:00</time></trkpt><trkpt lat="39.30124981" lon="-0.32992361"><ele>11.4</ele><time>2022-10-31T13:54:53.0000000+00:00</time></trkpt><trkpt lat="39.30119994" lon="-0.32989394"><ele>11.4</ele><time>2022-10-31T13:54:54.0000000+00:00</time></trkpt><trkpt lat="39.30116197" lon="-0.32987039"><ele>11.4</ele><time>2022-10-31T13:54:55.0000000+00:00</time></trkpt><trkpt lat="39.3011318" lon="-0.32984901"><ele>11.4</ele><time>2022-10-31T13:54:56.0000000+00:00</time></trkpt><trkpt lat="39.30109508" lon="-0.32982588"><ele>11.4</ele><time>2022-10-31T13:54:57.0000000+00:00</time></trkpt><trkpt lat="39.30105309" lon="-0.32979989"><ele>11.4</ele><time>2022-10-31T13:54:58.0000000+00:00</time></trkpt><trkpt lat="39.30102954" lon="-0.3297838"><ele>11.4</ele><time>2022-10-31T13:54:59.0000000+00:00</time></trkpt><trkpt lat="39.30100313" lon="-0.32976268"><ele>11.4</ele><time>2022-10-31T13:55:00.0000000+00:00</time></trkpt><trkpt lat="39.30097732" lon="-0.32973368"><ele>11.4</ele><time>2022-10-31T13:55:01.0000000+00:00</time></trkpt><trkpt lat="39.30096307" lon="-0.32971222"><ele>11.4</ele><time>2022-10-31T13:55:02.0000000+00:00</time></trkpt><trkpt lat="39.3009417" lon="-0.32968682"><ele>11.2</ele><time>2022-10-31T13:55:03.0000000+00:00</time></trkpt><trkpt lat="39.30092426" lon="-0.3296766"><ele>11.2</ele><time>2022-10-31T13:55:04.0000000+00:00</time></trkpt><trkpt lat="39.30091286" lon="-0.32967341"><ele>11.0</ele><time>2022-10-31T13:55:05.0000000+00:00</time></trkpt><trkpt lat="39.30089819" lon="-0.32966629"><ele>11.0</ele><time>2022-10-31T13:55:06.0000000+00:00</time></trkpt><trkpt lat="39.3008914" lon="-0.32966411"><ele>11.0</ele><time>2022-10-31T13:55:07.0000000+00:00</time></trkpt><trkpt lat="39.3008914" lon="-0.32966411"><ele>10.8</ele><time>2022-10-31T13:55:08.0000000+00:00</time></trkpt><trkpt lat="39.3008914" lon="-0.32966411"><ele>10.8</ele><time>2022-10-31T13:55:09.0000000+00:00</time></trkpt><trkpt lat="39.3008914" lon="-0.32966411"><ele>10.6</ele><time>2022-10-31T13:55:10.0000000+00:00</time></trkpt><trkpt lat="39.3008914" lon="-0.32966411"><ele>10.6</ele><time>2022-10-31T13:55:11.0000000+00:00</time></trkpt><trkpt lat="39.3008914" lon="-0.32966411"><ele>10.6</ele><time>2022-10-31T13:55:12.0000000+00:00</time></trkpt><trkpt lat="39.3008914" lon="-0.32966411"><ele>10.6</ele><time>2022-10-31T13:55:13.0000000+00:00</time></trkpt><trkpt lat="39.3008914" lon="-0.32966411"><ele>10.6</ele><time>2022-10-31T13:55:14.0000000+00:00</time></trkpt><trkpt lat="39.30088855" lon="-0.32966645"><ele>10.6</ele><time>2022-10-31T13:55:15.0000000+00:00</time></trkpt><trkpt lat="39.30088009" lon="-0.32967391"><ele>10.6</ele><time>2022-10-31T13:55:16.0000000+00:00</time></trkpt><trkpt lat="39.30087095" lon="-0.32968037"><ele>10.6</ele><time>2022-10-31T13:55:17.0000000+00:00</time></trkpt><trkpt lat="39.30086106" lon="-0.32968875"><ele>10.6</ele><time>2022-10-31T13:55:18.0000000+00:00</time></trkpt><trkpt lat="39.30085142" lon="-0.32970241"><ele>10.6</ele><time>2022-10-31T13:55:19.0000000+00:00</time></trkpt><trkpt lat="39.30084698" lon="-0.32972161"><ele>10.6</ele><time>2022-10-31T13:55:20.0000000+00:00</time></trkpt><trkpt lat="39.30085243" lon="-0.32974474"><ele>10.6</ele><time>2022-10-31T13:55:21.0000000+00:00</time></trkpt><trkpt lat="39.30086081" lon="-0.32977869"><ele>10.8</ele><time>2022-10-31T13:55:22.0000000+00:00</time></trkpt><trkpt lat="39.30086986" lon="-0.32980878"><ele>10.8</ele><time>2022-10-31T13:55:23.0000000+00:00</time></trkpt><trkpt lat="39.30088361" lon="-0.32983828"><ele>10.8</ele><time>2022-10-31T13:55:24.0000000+00:00</time></trkpt><trkpt lat="39.30089752" lon="-0.32986427"><ele>11.0</ele><time>2022-10-31T13:55:25.0000000+00:00</time></trkpt><trkpt lat="39.3009111" lon="-0.32989855"><ele>11.0</ele><time>2022-10-31T13:55:26.0000000+00:00</time></trkpt><trkpt lat="39.30092921" lon="-0.3299418"><ele>11.0</ele><time>2022-10-31T13:55:27.0000000+00:00</time></trkpt><trkpt lat="39.3009484" lon="-0.3299791"><ele>11.0</ele><time>2022-10-31T13:55:28.0000000+00:00</time></trkpt><trkpt lat="39.30096558" lon="-0.33001179"><ele>11.0</ele><time>2022-10-31T13:55:29.0000000+00:00</time></trkpt><trkpt lat="39.30098578" lon="-0.33006342"><ele>11.0</ele><time>2022-10-31T13:55:30.0000000+00:00</time></trkpt><trkpt lat="39.30099928" lon="-0.33011338"><ele>11.0</ele><time>2022-10-31T13:55:31.0000000+00:00</time></trkpt><trkpt lat="39.30101135" lon="-0.33015437"><ele>11.0</ele><time>2022-10-31T13:55:32.0000000+00:00</time></trkpt><trkpt lat="39.30102577" lon="-0.33020583"><ele>11.0</ele><time>2022-10-31T13:55:33.0000000+00:00</time></trkpt><trkpt lat="39.30104144" lon="-0.3302578"><ele>11.0</ele><time>2022-10-31T13:55:34.0000000+00:00</time></trkpt><trkpt lat="39.30106147" lon="-0.33032016"><ele>11.0</ele><time>2022-10-31T13:55:35.0000000+00:00</time></trkpt><trkpt lat="39.30107974" lon="-0.33037246"><ele>11.0</ele><time>2022-10-31T13:55:36.0000000+00:00</time></trkpt><trkpt lat="39.30109626" lon="-0.33042896"><ele>11.0</ele><time>2022-10-31T13:55:37.0000000+00:00</time></trkpt><trkpt lat="39.30111017" lon="-0.33047447"><ele>11.0</ele><time>2022-10-31T13:55:38.0000000+00:00</time></trkpt><trkpt lat="39.30112911" lon="-0.33053063"><ele>11.0</ele><time>2022-10-31T13:55:39.0000000+00:00</time></trkpt><trkpt lat="39.3011499" lon="-0.33058813"><ele>11.0</ele><time>2022-10-31T13:55:40.0000000+00:00</time></trkpt><trkpt lat="39.30117228" lon="-0.33064487"><ele>11.2</ele><time>2022-10-31T13:55:41.0000000+00:00</time></trkpt><trkpt lat="39.30119374" lon="-0.33070045"><ele>11.2</ele><time>2022-10-31T13:55:42.0000000+00:00</time></trkpt><trkpt lat="39.30121863" lon="-0.3307696"><ele>11.2</ele><time>2022-10-31T13:55:43.0000000+00:00</time></trkpt><trkpt lat="39.30123456" lon="-0.33081654"><ele>11.2</ele><time>2022-10-31T13:55:44.0000000+00:00</time></trkpt><trkpt lat="39.30125744" lon="-0.33088678"><ele>11.2</ele><time>2022-10-31T13:55:45.0000000+00:00</time></trkpt><trkpt lat="39.30127605" lon="-0.33094754"><ele>11.2</ele><time>2022-10-31T13:55:46.0000000+00:00</time></trkpt><trkpt lat="39.30129642" lon="-0.33101033"><ele>11.2</ele><time>2022-10-31T13:55:47.0000000+00:00</time></trkpt><trkpt lat="39.30131871" lon="-0.33107336"><ele>11.2</ele><time>2022-10-31T13:55:48.0000000+00:00</time></trkpt><trkpt lat="39.30134168" lon="-0.33113522"><ele>11.2</ele><time>2022-10-31T13:55:49.0000000+00:00</time></trkpt><trkpt lat="39.30135652" lon="-0.33118651"><ele>11.2</ele><time>2022-10-31T13:55:50.0000000+00:00</time></trkpt><trkpt lat="39.30138032" lon="-0.33126338"><ele>11.2</ele><time>2022-10-31T13:55:51.0000000+00:00</time></trkpt><trkpt lat="39.30140027" lon="-0.33132942"><ele>11.2</ele><time>2022-10-31T13:55:52.0000000+00:00</time></trkpt><trkpt lat="39.30141561" lon="-0.33138349"><ele>11.2</ele><time>2022-10-31T13:55:53.0000000+00:00</time></trkpt><trkpt lat="39.30144293" lon="-0.33146479"><ele>11.2</ele><time>2022-10-31T13:55:54.0000000+00:00</time></trkpt><trkpt lat="39.30146783" lon="-0.33152958"><ele>11.2</ele><time>2022-10-31T13:55:55.0000000+00:00</time></trkpt><trkpt lat="39.30148903" lon="-0.33158432"><ele>11.2</ele><time>2022-10-31T13:55:56.0000000+00:00</time></trkpt><trkpt lat="39.30152021" lon="-0.3316678"><ele>11.2</ele><time>2022-10-31T13:55:57.0000000+00:00</time></trkpt><trkpt lat="39.30154528" lon="-0.33173653"><ele>11.2</ele><time>2022-10-31T13:55:58.0000000+00:00</time></trkpt><trkpt lat="39.30156422" lon="-0.33179076"><ele>11.2</ele><time>2022-10-31T13:55:59.0000000+00:00</time></trkpt><trkpt lat="39.30158869" lon="-0.33186067"><ele>11.2</ele><time>2022-10-31T13:56:00.0000000+00:00</time></trkpt><trkpt lat="39.30161376" lon="-0.33193016"><ele>11.2</ele><time>2022-10-31T13:56:01.0000000+00:00</time></trkpt><trkpt lat="39.30163773" lon="-0.33199889"><ele>11.2</ele><time>2022-10-31T13:56:02.0000000+00:00</time></trkpt><trkpt lat="39.30166514" lon="-0.33208296"><ele>11.2</ele><time>2022-10-31T13:56:03.0000000+00:00</time></trkpt><trkpt lat="39.30168542" lon="-0.33215496"><ele>11.2</ele><time>2022-10-31T13:56:04.0000000+00:00</time></trkpt><trkpt lat="39.30170302" lon="-0.33221263"><ele>11.2</ele><time>2022-10-31T13:56:05.0000000+00:00</time></trkpt><trkpt lat="39.30172976" lon="-0.33229862"><ele>11.2</ele><time>2022-10-31T13:56:06.0000000+00:00</time></trkpt><trkpt lat="39.30175181" lon="-0.33237012"><ele>11.2</ele><time>2022-10-31T13:56:07.0000000+00:00</time></trkpt><trkpt lat="39.30177008" lon="-0.33242771"><ele>11.2</ele><time>2022-10-31T13:56:08.0000000+00:00</time></trkpt><trkpt lat="39.3017995" lon="-0.33251345"><ele>11.2</ele><time>2022-10-31T13:56:09.0000000+00:00</time></trkpt><trkpt lat="39.30181936" lon="-0.33257145"><ele>11.4</ele><time>2022-10-31T13:56:10.0000000+00:00</time></trkpt><trkpt lat="39.30184308" lon="-0.33264337"><ele>11.4</ele><time>2022-10-31T13:56:11.0000000+00:00</time></trkpt><trkpt lat="39.30186823" lon="-0.33272887"><ele>11.4</ele><time>2022-10-31T13:56:12.0000000+00:00</time></trkpt><trkpt lat="39.30188885" lon="-0.33279844"><ele>11.4</ele><time>2022-10-31T13:56:13.0000000+00:00</time></trkpt><trkpt lat="39.30190352" lon="-0.33285091"><ele>11.4</ele><time>2022-10-31T13:56:14.0000000+00:00</time></trkpt><trkpt lat="39.30192975" lon="-0.33292802"><ele>11.6</ele><time>2022-10-31T13:56:15.0000000+00:00</time></trkpt><trkpt lat="39.30194811" lon="-0.33299265"><ele>11.6</ele><time>2022-10-31T13:56:16.0000000+00:00</time></trkpt><trkpt lat="39.30196236" lon="-0.33304243"><ele>11.6</ele><time>2022-10-31T13:56:17.0000000+00:00</time></trkpt><trkpt lat="39.30198616" lon="-0.33311871"><ele>11.4</ele><time>2022-10-31T13:56:18.0000000+00:00</time></trkpt><trkpt lat="39.30200284" lon="-0.33316699"><ele>11.4</ele><time>2022-10-31T13:56:19.0000000+00:00</time></trkpt><trkpt lat="39.30202497" lon="-0.33322457"><ele>11.4</ele><time>2022-10-31T13:56:20.0000000+00:00</time></trkpt><trkpt lat="39.30204903" lon="-0.33329247"><ele>11.4</ele><time>2022-10-31T13:56:21.0000000+00:00</time></trkpt><trkpt lat="39.30206428" lon="-0.3333363"><ele>11.2</ele><time>2022-10-31T13:56:22.0000000+00:00</time></trkpt><trkpt lat="39.30208457" lon="-0.33339313"><ele>11.2</ele><time>2022-10-31T13:56:23.0000000+00:00</time></trkpt><trkpt lat="39.30210552" lon="-0.3334601"><ele>11.2</ele><time>2022-10-31T13:56:24.0000000+00:00</time></trkpt><trkpt lat="39.30212245" lon="-0.33351492"><ele>11.2</ele><time>2022-10-31T13:56:25.0000000+00:00</time></trkpt><trkpt lat="39.30213603" lon="-0.33355817"><ele>11.2</ele><time>2022-10-31T13:56:26.0000000+00:00</time></trkpt><trkpt lat="39.30215288" lon="-0.33361123"><ele>11.2</ele><time>2022-10-31T13:56:27.0000000+00:00</time></trkpt><trkpt lat="39.30217174" lon="-0.33367426"><ele>11.2</ele><time>2022-10-31T13:56:28.0000000+00:00</time></trkpt><trkpt lat="39.30218817" lon="-0.33372531"><ele>11.2</ele><time>2022-10-31T13:56:29.0000000+00:00</time></trkpt><trkpt lat="39.30220719" lon="-0.33377367"><ele>11.2</ele><time>2022-10-31T13:56:30.0000000+00:00</time></trkpt><trkpt lat="39.30222706" lon="-0.33381826"><ele>11.2</ele><time>2022-10-31T13:56:31.0000000+00:00</time></trkpt><trkpt lat="39.30224785" lon="-0.33386009"><ele>11.2</ele><time>2022-10-31T13:56:32.0000000+00:00</time></trkpt><trkpt lat="39.30226662" lon="-0.33389479"><ele>11.2</ele><time>2022-10-31T13:56:33.0000000+00:00</time></trkpt><trkpt lat="39.30229261" lon="-0.33393335"><ele>11.2</ele><time>2022-10-31T13:56:34.0000000+00:00</time></trkpt><trkpt lat="39.3023258" lon="-0.33397651"><ele>11.2</ele><time>2022-10-31T13:56:35.0000000+00:00</time></trkpt><trkpt lat="39.30234633" lon="-0.33400283"><ele>11.2</ele><time>2022-10-31T13:56:36.0000000+00:00</time></trkpt><trkpt lat="39.3023771" lon="-0.33403996"><ele>11.2</ele><time>2022-10-31T13:56:37.0000000+00:00</time></trkpt><trkpt lat="39.30240367" lon="-0.33407148"><ele>11.2</ele><time>2022-10-31T13:56:38.0000000+00:00</time></trkpt><trkpt lat="39.30242789" lon="-0.33410291"><ele>11.2</ele><time>2022-10-31T13:56:39.0000000+00:00</time></trkpt><trkpt lat="39.30245698" lon="-0.33413585"><ele>11.2</ele><time>2022-10-31T13:56:40.0000000+00:00</time></trkpt><trkpt lat="39.30248715" lon="-0.3341703"><ele>11.2</ele><time>2022-10-31T13:56:41.0000000+00:00</time></trkpt><trkpt lat="39.30251364" lon="-0.33419763"><ele>11.0</ele><time>2022-10-31T13:56:42.0000000+00:00</time></trkpt><trkpt lat="39.30254742" lon="-0.33423149"><ele>11.0</ele><time>2022-10-31T13:56:43.0000000+00:00</time></trkpt><trkpt lat="39.30257935" lon="-0.33426837"><ele>11.2</ele><time>2022-10-31T13:56:44.0000000+00:00</time></trkpt><trkpt lat="39.30262025" lon="-0.33431162"><ele>11.2</ele><time>2022-10-31T13:56:45.0000000+00:00</time></trkpt><trkpt lat="39.30264557" lon="-0.3343423"><ele>11.2</ele><time>2022-10-31T13:56:46.0000000+00:00</time></trkpt><trkpt lat="39.30268714" lon="-0.33438924"><ele>11.2</ele><time>2022-10-31T13:56:47.0000000+00:00</time></trkpt><trkpt lat="39.30272142" lon="-0.33442721"><ele>11.2</ele><time>2022-10-31T13:56:48.0000000+00:00</time></trkpt><trkpt lat="39.30275462" lon="-0.3344625"><ele>11.2</ele><time>2022-10-31T13:56:49.0000000+00:00</time></trkpt><trkpt lat="39.30277959" lon="-0.33449133"><ele>11.2</ele><time>2022-10-31T13:56:50.0000000+00:00</time></trkpt><trkpt lat="39.30281681" lon="-0.33453383"><ele>11.2</ele><time>2022-10-31T13:56:51.0000000+00:00</time></trkpt><trkpt lat="39.30284791" lon="-0.33456794"><ele>11.2</ele><time>2022-10-31T13:56:52.0000000+00:00</time></trkpt><trkpt lat="39.30287951" lon="-0.33460256"><ele>11.2</ele><time>2022-10-31T13:56:53.0000000+00:00</time></trkpt><trkpt lat="39.30291169" lon="-0.33463709"><ele>11.4</ele><time>2022-10-31T13:56:54.0000000+00:00</time></trkpt><trkpt lat="39.30293432" lon="-0.33466366"><ele>11.4</ele><time>2022-10-31T13:56:55.0000000+00:00</time></trkpt><trkpt lat="39.30296676" lon="-0.33470431"><ele>11.4</ele><time>2022-10-31T13:56:56.0000000+00:00</time></trkpt><trkpt lat="39.30298973" lon="-0.3347365"><ele>11.4</ele><time>2022-10-31T13:56:57.0000000+00:00</time></trkpt><trkpt lat="39.30301085" lon="-0.33476106"><ele>11.4</ele><time>2022-10-31T13:56:58.0000000+00:00</time></trkpt><trkpt lat="39.30304362" lon="-0.33479794"><ele>11.4</ele><time>2022-10-31T13:56:59.0000000+00:00</time></trkpt><trkpt lat="39.30306726" lon="-0.33482418"><ele>11.4</ele><time>2022-10-31T13:57:00.0000000+00:00</time></trkpt><trkpt lat="39.3030976" lon="-0.33485904"><ele>11.4</ele><time>2022-10-31T13:57:01.0000000+00:00</time></trkpt><trkpt lat="39.30313599" lon="-0.33490204"><ele>11.4</ele><time>2022-10-31T13:57:02.0000000+00:00</time></trkpt><trkpt lat="39.30316969" lon="-0.33494052"><ele>11.4</ele><time>2022-10-31T13:57:03.0000000+00:00</time></trkpt><trkpt lat="39.30319785" lon="-0.33496893"><ele>12.0</ele><time>2022-10-31T13:57:04.0000000+00:00</time></trkpt><trkpt lat="39.30323306" lon="-0.33500824"><ele>12.4</ele><time>2022-10-31T13:57:05.0000000+00:00</time></trkpt><trkpt lat="39.30327253" lon="-0.33505778"><ele>12.6</ele><time>2022-10-31T13:57:06.0000000+00:00</time></trkpt><trkpt lat="39.30330732" lon="-0.33510086"><ele>12.6</ele><time>2022-10-31T13:57:07.0000000+00:00</time></trkpt><trkpt lat="39.3033406" lon="-0.33514294"><ele>12.6</ele><time>2022-10-31T13:57:08.0000000+00:00</time></trkpt><trkpt lat="39.30337329" lon="-0.33518367"><ele>12.4</ele><time>2022-10-31T13:57:09.0000000+00:00</time></trkpt><trkpt lat="39.30340011" lon="-0.33521854"><ele>12.2</ele><time>2022-10-31T13:57:10.0000000+00:00</time></trkpt><trkpt lat="39.30343732" lon="-0.3352664"><ele>12.0</ele><time>2022-10-31T13:57:11.0000000+00:00</time></trkpt><trkpt lat="39.30346691" lon="-0.33529842"><ele>11.8</ele><time>2022-10-31T13:57:12.0000000+00:00</time></trkpt><trkpt lat="39.30348912" lon="-0.33531519"><ele>11.8</ele><time>2022-10-31T13:57:13.0000000+00:00</time></trkpt><trkpt lat="39.30351678" lon="-0.33533279"><ele>11.6</ele><time>2022-10-31T13:57:14.0000000+00:00</time></trkpt><trkpt lat="39.30354034" lon="-0.33533421"><ele>11.6</ele><time>2022-10-31T13:57:15.0000000+00:00</time></trkpt><trkpt lat="39.30355534" lon="-0.33532675"><ele>11.6</ele><time>2022-10-31T13:57:16.0000000+00:00</time></trkpt><trkpt lat="39.3035711" lon="-0.33531209"><ele>11.4</ele><time>2022-10-31T13:57:17.0000000+00:00</time></trkpt><trkpt lat="39.30357504" lon="-0.3353027"><ele>11.4</ele><time>2022-10-31T13:57:18.0000000+00:00</time></trkpt><trkpt lat="39.30357738" lon="-0.33529884"><ele>11.4</ele><time>2022-10-31T13:57:19.0000000+00:00</time></trkpt><trkpt lat="39.30357738" lon="-0.33529884"><ele>11.2</ele><time>2022-10-31T13:57:20.0000000+00:00</time></trkpt><trkpt lat="39.30357738" lon="-0.33529884"><ele>11.2</ele><time>2022-10-31T13:57:21.0000000+00:00</time></trkpt><trkpt lat="39.30357738" lon="-0.33529884"><ele>11.0</ele><time>2022-10-31T13:57:22.0000000+00:00</time></trkpt><trkpt lat="39.30357738" lon="-0.33529884"><ele>11.0</ele><time>2022-10-31T13:57:23.0000000+00:00</time></trkpt><trkpt lat="39.30357738" lon="-0.33529884"><ele>10.8</ele><time>2022-10-31T13:57:24.0000000+00:00</time></trkpt><trkpt lat="39.30357738" lon="-0.33529884"><ele>10.8</ele><time>2022-10-31T13:57:25.0000000+00:00</time></trkpt><trkpt lat="39.30357738" lon="-0.33529884"><ele>10.8</ele><time>2022-10-31T13:57:26.0000000+00:00</time></trkpt><trkpt lat="39.30357738" lon="-0.33529884"><ele>10.8</ele><time>2022-10-31T13:57:27.0000000+00:00</time></trkpt><trkpt lat="39.30357738" lon="-0.33529884"><ele>10.8</ele><time>2022-10-31T13:57:28.0000000+00:00</time></trkpt><trkpt lat="39.30357738" lon="-0.33529884"><ele>10.8</ele><time>2022-10-31T13:57:29.0000000+00:00</time></trkpt><trkpt lat="39.30357738" lon="-0.33529884"><ele>10.8</ele><time>2022-10-31T13:57:30.0000000+00:00</time></trkpt><trkpt lat="39.30357738" lon="-0.33529884"><ele>10.8</ele><time>2022-10-31T13:57:31.0000000+00:00</time></trkpt><trkpt lat="39.30357738" lon="-0.33529884"><ele>10.6</ele><time>2022-10-31T13:57:32.0000000+00:00</time></trkpt><trkpt lat="39.30357738" lon="-0.33529884"><ele>10.6</ele><time>2022-10-31T13:57:33.0000000+00:00</time></trkpt><trkpt lat="39.30357738" lon="-0.33529884"><ele>10.6</ele><time>2022-10-31T13:57:34.0000000+00:00</time></trkpt><trkpt lat="39.30357738" lon="-0.33529884"><ele>10.6</ele><time>2022-10-31T13:57:35.0000000+00:00</time></trkpt><trkpt lat="39.30357738" lon="-0.33529884"><ele>10.8</ele><time>2022-10-31T13:57:36.0000000+00:00</time></trkpt><trkpt lat="39.30357738" lon="-0.33529884"><ele>10.8</ele><time>2022-10-31T13:57:37.0000000+00:00</time></trkpt><trkpt lat="39.30357738" lon="-0.33529884"><ele>10.8</ele><time>2022-10-31T13:57:38.0000000+00:00</time></trkpt><trkpt lat="39.30357738" lon="-0.33529884"><ele>10.8</ele><time>2022-10-31T13:57:39.0000000+00:00</time></trkpt><trkpt lat="39.30357738" lon="-0.33529884"><ele>10.8</ele><time>2022-10-31T13:57:40.0000000+00:00</time></trkpt><trkpt lat="39.30357738" lon="-0.33529884"><ele>10.8</ele><time>2022-10-31T13:57:41.0000000+00:00</time></trkpt><trkpt lat="39.30357738" lon="-0.33529884"><ele>10.8</ele><time>2022-10-31T13:57:42.0000000+00:00</time></trkpt><trkpt lat="39.30357738" lon="-0.33529884"><ele>10.8</ele><time>2022-10-31T13:57:43.0000000+00:00</time></trkpt><trkpt lat="39.30357738" lon="-0.33529884"><ele>10.6</ele><time>2022-10-31T13:57:44.0000000+00:00</time></trkpt><trkpt lat="39.30357738" lon="-0.33529884"><ele>10.8</ele><time>2022-10-31T13:57:45.0000000+00:00</time></trkpt><trkpt lat="39.30357738" lon="-0.33529884"><ele>10.6</ele><time>2022-10-31T13:57:46.0000000+00:00</time></trkpt><trkpt lat="39.30357738" lon="-0.33529884"><ele>10.6</ele><time>2022-10-31T13:57:47.0000000+00:00</time></trkpt><trkpt lat="39.30357738" lon="-0.33529884"><ele>10.6</ele><time>2022-10-31T13:57:48.0000000+00:00</time></trkpt><trkpt lat="39.30357738" lon="-0.33529884"><ele>10.6</ele><time>2022-10-31T13:57:49.0000000+00:00</time></trkpt><trkpt lat="39.30357738" lon="-0.33529884"><ele>10.6</ele><time>2022-10-31T13:57:50.0000000+00:00</time></trkpt><trkpt lat="39.30357738" lon="-0.33529884"><ele>10.6</ele><time>2022-10-31T13:57:51.0000000+00:00</time></trkpt><trkpt lat="39.30357738" lon="-0.33529884"><ele>10.6</ele><time>2022-10-31T13:57:52.0000000+00:00</time></trkpt><trkpt lat="39.30357738" lon="-0.33529884"><ele>10.6</ele><time>2022-10-31T13:57:53.0000000+00:00</time></trkpt><trkpt lat="39.30357738" lon="-0.33529884"><ele>10.6</ele><time>2022-10-31T13:57:54.0000000+00:00</time></trkpt><trkpt lat="39.30357738" lon="-0.33529884"><ele>10.6</ele><time>2022-10-31T13:57:55.0000000+00:00</time></trkpt><trkpt lat="39.30357738" lon="-0.33529884"><ele>10.6</ele><time>2022-10-31T13:57:56.0000000+00:00</time></trkpt><trkpt lat="39.30357738" lon="-0.33529884"><ele>10.8</ele><time>2022-10-31T13:57:57.0000000+00:00</time></trkpt><trkpt lat="39.30357738" lon="-0.33529884"><ele>10.8</ele><time>2022-10-31T13:57:58.0000000+00:00</time></trkpt><trkpt lat="39.30357738" lon="-0.33529884"><ele>10.8</ele><time>2022-10-31T13:57:59.0000000+00:00</time></trkpt><trkpt lat="39.30357738" lon="-0.33529884"><ele>10.8</ele><time>2022-10-31T13:58:00.0000000+00:00</time></trkpt><trkpt lat="39.30357738" lon="-0.33529884"><ele>10.8</ele><time>2022-10-31T13:58:01.0000000+00:00</time></trkpt><trkpt lat="39.30357738" lon="-0.33529884"><ele>10.8</ele><time>2022-10-31T13:58:02.0000000+00:00</time></trkpt><trkpt lat="39.30357738" lon="-0.33529884"><ele>10.8</ele><time>2022-10-31T13:58:03.0000000+00:00</time></trkpt><trkpt lat="39.30357738" lon="-0.33529884"><ele>10.8</ele><time>2022-10-31T13:58:04.0000000+00:00</time></trkpt><trkpt lat="39.30357738" lon="-0.33529884"><ele>10.8</ele><time>2022-10-31T13:58:05.0000000+00:00</time></trkpt><trkpt lat="39.30357839" lon="-0.33529733"><ele>10.8</ele><time>2022-10-31T13:58:06.0000000+00:00</time></trkpt><trkpt lat="39.30358325" lon="-0.33529272"><ele>10.8</ele><time>2022-10-31T13:58:07.0000000+00:00</time></trkpt><trkpt lat="39.3035856" lon="-0.33529214"><ele>10.8</ele><time>2022-10-31T13:58:08.0000000+00:00</time></trkpt><trkpt lat="39.30358526" lon="-0.33529415"><ele>10.8</ele><time>2022-10-31T13:58:09.0000000+00:00</time></trkpt><trkpt lat="39.30358367" lon="-0.33529323"><ele>10.8</ele><time>2022-10-31T13:58:10.0000000+00:00</time></trkpt><trkpt lat="39.30357755" lon="-0.33529817"><ele>11.0</ele><time>2022-10-31T13:58:11.0000000+00:00</time></trkpt><trkpt lat="39.30356682" lon="-0.33530739"><ele>11.0</ele><time>2022-10-31T13:58:12.0000000+00:00</time></trkpt><trkpt lat="39.3035545" lon="-0.33531586"><ele>11.0</ele><time>2022-10-31T13:58:13.0000000+00:00</time></trkpt><trkpt lat="39.30353992" lon="-0.33532734"><ele>11.0</ele><time>2022-10-31T13:58:14.0000000+00:00</time></trkpt><trkpt lat="39.30352558" lon="-0.33533908"><ele>11.0</ele><time>2022-10-31T13:58:15.0000000+00:00</time></trkpt><trkpt lat="39.30349885" lon="-0.33535953"><ele>11.0</ele><time>2022-10-31T13:58:16.0000000+00:00</time></trkpt><trkpt lat="39.30347261" lon="-0.33537814"><ele>11.0</ele><time>2022-10-31T13:58:17.0000000+00:00</time></trkpt><trkpt lat="39.30345149" lon="-0.33539347"><ele>11.0</ele><time>2022-10-31T13:58:18.0000000+00:00</time></trkpt><trkpt lat="39.30341964" lon="-0.33542147"><ele>11.0</ele><time>2022-10-31T13:58:19.0000000+00:00</time></trkpt><trkpt lat="39.30338946" lon="-0.33544863"><ele>11.0</ele><time>2022-10-31T13:58:20.0000000+00:00</time></trkpt><trkpt lat="39.30335627" lon="-0.33547863"><ele>11.0</ele><time>2022-10-31T13:58:21.0000000+00:00</time></trkpt><trkpt lat="39.3033214" lon="-0.33550923"><ele>11.0</ele><time>2022-10-31T13:58:22.0000000+00:00</time></trkpt><trkpt lat="39.30328326" lon="-0.3355415"><ele>11.0</ele><time>2022-10-31T13:58:23.0000000+00:00</time></trkpt><trkpt lat="39.30325309" lon="-0.33556681"><ele>11.0</ele><time>2022-10-31T13:58:24.0000000+00:00</time></trkpt><trkpt lat="39.30320716" lon="-0.33560336"><ele>10.8</ele><time>2022-10-31T13:58:25.0000000+00:00</time></trkpt><trkpt lat="39.30317606" lon="-0.33562632"><ele>10.8</ele><time>2022-10-31T13:58:26.0000000+00:00</time></trkpt><trkpt lat="39.30313801" lon="-0.33565482"><ele>10.8</ele><time>2022-10-31T13:58:27.0000000+00:00</time></trkpt><trkpt lat="39.30309308" lon="-0.3356943"><ele>10.6</ele><time>2022-10-31T13:58:28.0000000+00:00</time></trkpt><trkpt lat="39.30305687" lon="-0.33572741"><ele>10.6</ele><time>2022-10-31T13:58:29.0000000+00:00</time></trkpt><trkpt lat="39.30302703" lon="-0.33575867"><ele>10.6</ele><time>2022-10-31T13:58:30.0000000+00:00</time></trkpt><trkpt lat="39.30298965" lon="-0.33580109"><ele>10.6</ele><time>2022-10-31T13:58:31.0000000+00:00</time></trkpt><trkpt lat="39.30295277" lon="-0.33584568"><ele>10.6</ele><time>2022-10-31T13:58:32.0000000+00:00</time></trkpt><trkpt lat="39.30291412" lon="-0.33588759"><ele>10.6</ele><time>2022-10-31T13:58:33.0000000+00:00</time></trkpt><trkpt lat="39.30287431" lon="-0.33593033"><ele>10.6</ele><time>2022-10-31T13:58:34.0000000+00:00</time></trkpt><trkpt lat="39.30282972" lon="-0.33598415"><ele>10.6</ele><time>2022-10-31T13:58:35.0000000+00:00</time></trkpt><trkpt lat="39.30280281" lon="-0.33602052"><ele>10.6</ele><time>2022-10-31T13:58:36.0000000+00:00</time></trkpt><trkpt lat="39.30276183" lon="-0.33607911"><ele>10.6</ele><time>2022-10-31T13:58:37.0000000+00:00</time></trkpt><trkpt lat="39.30272662" lon="-0.33612832"><ele>10.6</ele><time>2022-10-31T13:58:38.0000000+00:00</time></trkpt><trkpt lat="39.30269728" lon="-0.33616964"><ele>10.6</ele><time>2022-10-31T13:58:39.0000000+00:00</time></trkpt><trkpt lat="39.30265521" lon="-0.33623384"><ele>10.6</ele><time>2022-10-31T13:58:40.0000000+00:00</time></trkpt><trkpt lat="39.30262428" lon="-0.33629034"><ele>10.8</ele><time>2022-10-31T13:58:41.0000000+00:00</time></trkpt><trkpt lat="39.30260089" lon="-0.3363382"><ele>10.8</ele><time>2022-10-31T13:58:42.0000000+00:00</time></trkpt><trkpt lat="39.30256988" lon="-0.33640869"><ele>10.8</ele><time>2022-10-31T13:58:43.0000000+00:00</time></trkpt><trkpt lat="39.30254448" lon="-0.33646703"><ele>10.8</ele><time>2022-10-31T13:58:44.0000000+00:00</time></trkpt><trkpt lat="39.30252043" lon="-0.33652956"><ele>10.8</ele><time>2022-10-31T13:58:45.0000000+00:00</time></trkpt><trkpt lat="39.30250182" lon="-0.33658136"><ele>11.0</ele><time>2022-10-31T13:58:46.0000000+00:00</time></trkpt><trkpt lat="39.30247508" lon="-0.33665839"><ele>11.0</ele><time>2022-10-31T13:58:47.0000000+00:00</time></trkpt><trkpt lat="39.3024532" lon="-0.33671765"><ele>11.0</ele><time>2022-10-31T13:58:48.0000000+00:00</time></trkpt><trkpt lat="39.30243468" lon="-0.33676677"><ele>11.0</ele><time>2022-10-31T13:58:49.0000000+00:00</time></trkpt><trkpt lat="39.30241037" lon="-0.33683089"><ele>11.2</ele><time>2022-10-31T13:58:50.0000000+00:00</time></trkpt><trkpt lat="39.30238171" lon="-0.33690716"><ele>11.2</ele><time>2022-10-31T13:58:51.0000000+00:00</time></trkpt><trkpt lat="39.30236226" lon="-0.33695754"><ele>11.2</ele><time>2022-10-31T13:58:52.0000000+00:00</time></trkpt><trkpt lat="39.3023351" lon="-0.33701948"><ele>11.2</ele><time>2022-10-31T13:58:53.0000000+00:00</time></trkpt><trkpt lat="39.30230694" lon="-0.33709349"><ele>11.2</ele><time>2022-10-31T13:58:54.0000000+00:00</time></trkpt><trkpt lat="39.30228582" lon="-0.33714336"><ele>11.2</ele><time>2022-10-31T13:58:55.0000000+00:00</time></trkpt><trkpt lat="39.30225271" lon="-0.33721645"><ele>11.2</ele><time>2022-10-31T13:58:56.0000000+00:00</time></trkpt><trkpt lat="39.30222312" lon="-0.33727722"><ele>11.2</ele><time>2022-10-31T13:58:57.0000000+00:00</time></trkpt><trkpt lat="39.30220351" lon="-0.33732584"><ele>11.2</ele><time>2022-10-31T13:58:58.0000000+00:00</time></trkpt><trkpt lat="39.30217333" lon="-0.33739977"><ele>11.0</ele><time>2022-10-31T13:58:59.0000000+00:00</time></trkpt><trkpt lat="39.30214777" lon="-0.33746347"><ele>11.0</ele><time>2022-10-31T13:59:00.0000000+00:00</time></trkpt><trkpt lat="39.30212706" lon="-0.3375146"><ele>11.0</ele><time>2022-10-31T13:59:01.0000000+00:00</time></trkpt><trkpt lat="39.30209739" lon="-0.33759196"><ele>11.0</ele><time>2022-10-31T13:59:02.0000000+00:00</time></trkpt><trkpt lat="39.30207091" lon="-0.33765659"><ele>11.2</ele><time>2022-10-31T13:59:03.0000000+00:00</time></trkpt><trkpt lat="39.30205171" lon="-0.33770755"><ele>11.2</ele><time>2022-10-31T13:59:04.0000000+00:00</time></trkpt><trkpt lat="39.30202489" lon="-0.33778584"><ele>11.2</ele><time>2022-10-31T13:59:05.0000000+00:00</time></trkpt><trkpt lat="39.30200033" lon="-0.33785365"><ele>11.2</ele><time>2022-10-31T13:59:06.0000000+00:00</time></trkpt><trkpt lat="39.30197409" lon="-0.33792322"><ele>11.2</ele><time>2022-10-31T13:59:07.0000000+00:00</time></trkpt><trkpt lat="39.30194769" lon="-0.33799237"><ele>11.0</ele><time>2022-10-31T13:59:08.0000000+00:00</time></trkpt><trkpt lat="39.30191936" lon="-0.33806101"><ele>11.0</ele><time>2022-10-31T13:59:09.0000000+00:00</time></trkpt><trkpt lat="39.30189623" lon="-0.33811701"><ele>10.8</ele><time>2022-10-31T13:59:10.0000000+00:00</time></trkpt><trkpt lat="39.30186681" lon="-0.33818674"><ele>10.8</ele><time>2022-10-31T13:59:11.0000000+00:00</time></trkpt><trkpt lat="39.30183512" lon="-0.33827065"><ele>10.8</ele><time>2022-10-31T13:59:12.0000000+00:00</time></trkpt><trkpt lat="39.30181534" lon="-0.33832882"><ele>10.8</ele><time>2022-10-31T13:59:13.0000000+00:00</time></trkpt><trkpt lat="39.30178952" lon="-0.33840132"><ele>10.8</ele><time>2022-10-31T13:59:14.0000000+00:00</time></trkpt><trkpt lat="39.30176413" lon="-0.33847257"><ele>10.8</ele><time>2022-10-31T13:59:15.0000000+00:00</time></trkpt><trkpt lat="39.30173823" lon="-0.33854373"><ele>10.8</ele><time>2022-10-31T13:59:16.0000000+00:00</time></trkpt><trkpt lat="39.30170638" lon="-0.33862604"><ele>10.8</ele><time>2022-10-31T13:59:17.0000000+00:00</time></trkpt><trkpt lat="39.30167905" lon="-0.3386962"><ele>10.8</ele><time>2022-10-31T13:59:18.0000000+00:00</time></trkpt><trkpt lat="39.30165374" lon="-0.33875219"><ele>10.8</ele><time>2022-10-31T13:59:19.0000000+00:00</time></trkpt><trkpt lat="39.3016161" lon="-0.3388381"><ele>10.8</ele><time>2022-10-31T13:59:20.0000000+00:00</time></trkpt><trkpt lat="39.30158878" lon="-0.33890893"><ele>10.8</ele><time>2022-10-31T13:59:21.0000000+00:00</time></trkpt><trkpt lat="39.30156707" lon="-0.33896609"><ele>10.8</ele><time>2022-10-31T13:59:22.0000000+00:00</time></trkpt><trkpt lat="39.3015358" lon="-0.33905008"><ele>10.8</ele><time>2022-10-31T13:59:23.0000000+00:00</time></trkpt><trkpt lat="39.3015089" lon="-0.33912074"><ele>10.8</ele><time>2022-10-31T13:59:24.0000000+00:00</time></trkpt><trkpt lat="39.30148778" lon="-0.33917807"><ele>10.8</ele><time>2022-10-31T13:59:25.0000000+00:00</time></trkpt><trkpt lat="39.30145366" lon="-0.3392629"><ele>10.8</ele><time>2022-10-31T13:59:26.0000000+00:00</time></trkpt><trkpt lat="39.3014322" lon="-0.33931872"><ele>10.8</ele><time>2022-10-31T13:59:27.0000000+00:00</time></trkpt><trkpt lat="39.30139666" lon="-0.33939835"><ele>10.8</ele><time>2022-10-31T13:59:28.0000000+00:00</time></trkpt><trkpt lat="39.30137336" lon="-0.33945216"><ele>10.8</ele><time>2022-10-31T13:59:29.0000000+00:00</time></trkpt><trkpt lat="39.30133447" lon="-0.33953682"><ele>10.8</ele><time>2022-10-31T13:59:30.0000000+00:00</time></trkpt><trkpt lat="39.30130547" lon="-0.33960748"><ele>10.8</ele><time>2022-10-31T13:59:31.0000000+00:00</time></trkpt><trkpt lat="39.30128175" lon="-0.33966414"><ele>10.8</ele><time>2022-10-31T13:59:32.0000000+00:00</time></trkpt><trkpt lat="39.30124831" lon="-0.33974762"><ele>10.8</ele><time>2022-10-31T13:59:33.0000000+00:00</time></trkpt><trkpt lat="39.301225" lon="-0.3398187"><ele>10.6</ele><time>2022-10-31T13:59:34.0000000+00:00</time></trkpt><trkpt lat="39.30120572" lon="-0.33987704"><ele>10.6</ele><time>2022-10-31T13:59:35.0000000+00:00</time></trkpt><trkpt lat="39.301181" lon="-0.33995214"><ele>10.6</ele><time>2022-10-31T13:59:36.0000000+00:00</time></trkpt><trkpt lat="39.30114923" lon="-0.34003881"><ele>10.6</ele><time>2022-10-31T13:59:37.0000000+00:00</time></trkpt><trkpt lat="39.30112694" lon="-0.34009606"><ele>10.6</ele><time>2022-10-31T13:59:38.0000000+00:00</time></trkpt><trkpt lat="39.30109232" lon="-0.3401839"><ele>10.6</ele><time>2022-10-31T13:59:39.0000000+00:00</time></trkpt><trkpt lat="39.30106315" lon="-0.34026034"><ele>10.6</ele><time>2022-10-31T13:59:40.0000000+00:00</time></trkpt><trkpt lat="39.30103683" lon="-0.34033511"><ele>10.6</ele><time>2022-10-31T13:59:41.0000000+00:00</time></trkpt><trkpt lat="39.30101009" lon="-0.34041013"><ele>10.6</ele><time>2022-10-31T13:59:42.0000000+00:00</time></trkpt><trkpt lat="39.30098453" lon="-0.34048372"><ele>10.6</ele><time>2022-10-31T13:59:43.0000000+00:00</time></trkpt><trkpt lat="39.300966" lon="-0.34054156"><ele>10.8</ele><time>2022-10-31T13:59:44.0000000+00:00</time></trkpt><trkpt lat="39.30093708" lon="-0.34062906"><ele>10.8</ele><time>2022-10-31T13:59:45.0000000+00:00</time></trkpt><trkpt lat="39.30091471" lon="-0.3407009"><ele>10.8</ele><time>2022-10-31T13:59:46.0000000+00:00</time></trkpt><trkpt lat="39.30089224" lon="-0.34077524"><ele>10.8</ele><time>2022-10-31T13:59:47.0000000+00:00</time></trkpt><trkpt lat="39.3008707" lon="-0.34085034"><ele>10.8</ele><time>2022-10-31T13:59:48.0000000+00:00</time></trkpt><trkpt lat="39.30084715" lon="-0.34092478"><ele>10.8</ele><time>2022-10-31T13:59:49.0000000+00:00</time></trkpt><trkpt lat="39.30082552" lon="-0.34099812"><ele>10.8</ele><time>2022-10-31T13:59:50.0000000+00:00</time></trkpt><trkpt lat="39.30080331" lon="-0.34107364"><ele>10.8</ele><time>2022-10-31T13:59:51.0000000+00:00</time></trkpt><trkpt lat="39.30078152" lon="-0.3411469"><ele>10.8</ele><time>2022-10-31T13:59:52.0000000+00:00</time></trkpt><trkpt lat="39.30076492" lon="-0.34120297"><ele>11.0</ele><time>2022-10-31T13:59:53.0000000+00:00</time></trkpt><trkpt lat="39.30073768" lon="-0.34128855"><ele>11.0</ele><time>2022-10-31T13:59:54.0000000+00:00</time></trkpt><trkpt lat="39.30071295" lon="-0.34136055"><ele>11.0</ele><time>2022-10-31T13:59:55.0000000+00:00</time></trkpt><trkpt lat="39.3006873" lon="-0.34143071"><ele>11.0</ele><time>2022-10-31T13:59:56.0000000+00:00</time></trkpt><trkpt lat="39.30066836" lon="-0.34148569"><ele>11.0</ele><time>2022-10-31T13:59:57.0000000+00:00</time></trkpt><trkpt lat="39.30063936" lon="-0.34157177"><ele>10.8</ele><time>2022-10-31T13:59:58.0000000+00:00</time></trkpt><trkpt lat="39.30061203" lon="-0.34164654"><ele>10.8</ele><time>2022-10-31T13:59:59.0000000+00:00</time></trkpt><trkpt lat="39.30058597" lon="-0.34171988"><ele>10.8</ele><time>2022-10-31T14:00:00.0000000+00:00</time></trkpt><trkpt lat="39.30056459" lon="-0.34177906"><ele>10.6</ele><time>2022-10-31T14:00:01.0000000+00:00</time></trkpt><trkpt lat="39.30053894" lon="-0.34185374"><ele>10.6</ele><time>2022-10-31T14:00:02.0000000+00:00</time></trkpt><trkpt lat="39.30050827" lon="-0.34194209"><ele>10.8</ele><time>2022-10-31T14:00:03.0000000+00:00</time></trkpt><trkpt lat="39.30048128" lon="-0.34201241"><ele>10.8</ele><time>2022-10-31T14:00:04.0000000+00:00</time></trkpt><trkpt lat="39.30045856" lon="-0.3420674"><ele>10.8</ele><time>2022-10-31T14:00:05.0000000+00:00</time></trkpt><trkpt lat="39.30042587" lon="-0.34215055"><ele>11.0</ele><time>2022-10-31T14:00:06.0000000+00:00</time></trkpt><trkpt lat="39.30039377" lon="-0.34221944"><ele>11.0</ele><time>2022-10-31T14:00:07.0000000+00:00</time></trkpt><trkpt lat="39.30035479" lon="-0.34228759"><ele>10.8</ele><time>2022-10-31T14:00:08.0000000+00:00</time></trkpt><trkpt lat="39.30032328" lon="-0.34234392"><ele>10.8</ele><time>2022-10-31T14:00:09.0000000+00:00</time></trkpt><trkpt lat="39.30027969" lon="-0.34242857"><ele>10.6</ele><time>2022-10-31T14:00:10.0000000+00:00</time></trkpt><trkpt lat="39.30024373" lon="-0.34249554"><ele>10.6</ele><time>2022-10-31T14:00:11.0000000+00:00</time></trkpt><trkpt lat="39.30021482" lon="-0.34255053"><ele>10.6</ele><time>2022-10-31T14:00:12.0000000+00:00</time></trkpt><trkpt lat="39.30017668" lon="-0.34261591"><ele>10.6</ele><time>2022-10-31T14:00:13.0000000+00:00</time></trkpt><trkpt lat="39.300131" lon="-0.34269302"><ele>10.6</ele><time>2022-10-31T14:00:14.0000000+00:00</time></trkpt><trkpt lat="39.30009881" lon="-0.34274449"><ele>10.6</ele><time>2022-10-31T14:00:15.0000000+00:00</time></trkpt><trkpt lat="39.30004936" lon="-0.34281984"><ele>10.6</ele><time>2022-10-31T14:00:16.0000000+00:00</time></trkpt><trkpt lat="39.30000552" lon="-0.34287952"><ele>10.6</ele><time>2022-10-31T14:00:17.0000000+00:00</time></trkpt><trkpt lat="39.29997132" lon="-0.34292428"><ele>10.6</ele><time>2022-10-31T14:00:18.0000000+00:00</time></trkpt><trkpt lat="39.29992673" lon="-0.34298102"><ele>10.6</ele><time>2022-10-31T14:00:19.0000000+00:00</time></trkpt><trkpt lat="39.29988046" lon="-0.34303718"><ele>10.6</ele><time>2022-10-31T14:00:20.0000000+00:00</time></trkpt><trkpt lat="39.29983453" lon="-0.3430915"><ele>10.4</ele><time>2022-10-31T14:00:21.0000000+00:00</time></trkpt><trkpt lat="39.29977728" lon="-0.34315738"><ele>10.4</ele><time>2022-10-31T14:00:22.0000000+00:00</time></trkpt><trkpt lat="39.29972942" lon="-0.34321404"><ele>10.4</ele><time>2022-10-31T14:00:23.0000000+00:00</time></trkpt><trkpt lat="39.29969061" lon="-0.34325955"><ele>10.4</ele><time>2022-10-31T14:00:24.0000000+00:00</time></trkpt><trkpt lat="39.29963403" lon="-0.34332711"><ele>10.4</ele><time>2022-10-31T14:00:25.0000000+00:00</time></trkpt><trkpt lat="39.29958592" lon="-0.34338009"><ele>10.6</ele><time>2022-10-31T14:00:26.0000000+00:00</time></trkpt><trkpt lat="39.29954812" lon="-0.34342225"><ele>10.6</ele><time>2022-10-31T14:00:27.0000000+00:00</time></trkpt><trkpt lat="39.29949414" lon="-0.34348779"><ele>10.6</ele><time>2022-10-31T14:00:28.0000000+00:00</time></trkpt><trkpt lat="39.2994493" lon="-0.34353809"><ele>10.8</ele><time>2022-10-31T14:00:29.0000000+00:00</time></trkpt><trkpt lat="39.29940244" lon="-0.34358779"><ele>10.8</ele><time>2022-10-31T14:00:30.0000000+00:00</time></trkpt><trkpt lat="39.299355" lon="-0.34363959"><ele>10.8</ele><time>2022-10-31T14:00:31.0000000+00:00</time></trkpt><trkpt lat="39.29930479" lon="-0.34369089"><ele>11.0</ele><time>2022-10-31T14:00:32.0000000+00:00</time></trkpt><trkpt lat="39.29926431" lon="-0.3437281"><ele>11.0</ele><time>2022-10-31T14:00:33.0000000+00:00</time></trkpt><trkpt lat="39.29919935" lon="-0.34378259"><ele>11.0</ele><time>2022-10-31T14:00:34.0000000+00:00</time></trkpt><trkpt lat="39.29914235" lon="-0.34382315"><ele>11.0</ele><time>2022-10-31T14:00:35.0000000+00:00</time></trkpt><trkpt lat="39.29909592" lon="-0.3438483"><ele>10.8</ele><time>2022-10-31T14:00:36.0000000+00:00</time></trkpt><trkpt lat="39.29902442" lon="-0.34387814"><ele>10.8</ele><time>2022-10-31T14:00:37.0000000+00:00</time></trkpt><trkpt lat="39.2989629" lon="-0.34390186"><ele>11.0</ele><time>2022-10-31T14:00:38.0000000+00:00</time></trkpt><trkpt lat="39.29891453" lon="-0.34391955"><ele>11.0</ele><time>2022-10-31T14:00:39.0000000+00:00</time></trkpt><trkpt lat="39.2988515" lon="-0.34393799"><ele>11.0</ele><time>2022-10-31T14:00:40.0000000+00:00</time></trkpt><trkpt lat="39.29878864" lon="-0.34395601"><ele>10.8</ele><time>2022-10-31T14:00:41.0000000+00:00</time></trkpt><trkpt lat="39.29872485" lon="-0.34397076"><ele>11.0</ele><time>2022-10-31T14:00:42.0000000+00:00</time></trkpt><trkpt lat="39.29866081" lon="-0.34398459"><ele>11.0</ele><time>2022-10-31T14:00:43.0000000+00:00</time></trkpt><trkpt lat="39.29859661" lon="-0.34400135"><ele>10.8</ele><time>2022-10-31T14:00:44.0000000+00:00</time></trkpt><trkpt lat="39.29853408" lon="-0.34401879"><ele>10.8</ele><time>2022-10-31T14:00:45.0000000+00:00</time></trkpt><trkpt lat="39.29846635" lon="-0.34403354"><ele>10.8</ele><time>2022-10-31T14:00:46.0000000+00:00</time></trkpt><trkpt lat="39.29840156" lon="-0.34404662"><ele>11.0</ele><time>2022-10-31T14:00:47.0000000+00:00</time></trkpt><trkpt lat="39.29833585" lon="-0.34405835"><ele>10.8</ele><time>2022-10-31T14:00:48.0000000+00:00</time></trkpt><trkpt lat="39.29827198" lon="-0.34407235"><ele>10.8</ele><time>2022-10-31T14:00:49.0000000+00:00</time></trkpt><trkpt lat="39.29820727" lon="-0.34408517"><ele>10.8</ele><time>2022-10-31T14:00:50.0000000+00:00</time></trkpt><trkpt lat="39.29814608" lon="-0.34409699"><ele>11.0</ele><time>2022-10-31T14:00:51.0000000+00:00</time></trkpt><trkpt lat="39.29808632" lon="-0.34410546"><ele>11.0</ele><time>2022-10-31T14:00:52.0000000+00:00</time></trkpt><trkpt lat="39.29802379" lon="-0.34411836"><ele>11.0</ele><time>2022-10-31T14:00:53.0000000+00:00</time></trkpt><trkpt lat="39.29796092" lon="-0.34413597"><ele>11.0</ele><time>2022-10-31T14:00:54.0000000+00:00</time></trkpt><trkpt lat="39.2978989" lon="-0.34414946"><ele>11.0</ele><time>2022-10-31T14:00:55.0000000+00:00</time></trkpt><trkpt lat="39.29783436" lon="-0.34416321"><ele>11.0</ele><time>2022-10-31T14:00:56.0000000+00:00</time></trkpt><trkpt lat="39.2977725" lon="-0.34417838"><ele>11.0</ele><time>2022-10-31T14:00:57.0000000+00:00</time></trkpt><trkpt lat="39.29770988" lon="-0.34419539"><ele>11.0</ele><time>2022-10-31T14:00:58.0000000+00:00</time></trkpt><trkpt lat="39.29764694" lon="-0.34420948"><ele>11.0</ele><time>2022-10-31T14:00:59.0000000+00:00</time></trkpt><trkpt lat="39.29758533" lon="-0.34422406"><ele>11.0</ele><time>2022-10-31T14:01:00.0000000+00:00</time></trkpt><trkpt lat="39.2975223" lon="-0.34423965"><ele>10.8</ele><time>2022-10-31T14:01:01.0000000+00:00</time></trkpt><trkpt lat="39.29745851" lon="-0.34425583"><ele>10.8</ele><time>2022-10-31T14:01:02.0000000+00:00</time></trkpt><trkpt lat="39.29739565" lon="-0.34427058"><ele>10.8</ele><time>2022-10-31T14:01:03.0000000+00:00</time></trkpt><trkpt lat="39.29733362" lon="-0.34428768"><ele>10.8</ele><time>2022-10-31T14:01:04.0000000+00:00</time></trkpt><trkpt lat="39.29727143" lon="-0.34430025"><ele>10.8</ele><time>2022-10-31T14:01:05.0000000+00:00</time></trkpt><trkpt lat="39.29721384" lon="-0.34431299"><ele>10.8</ele><time>2022-10-31T14:01:06.0000000+00:00</time></trkpt><trkpt lat="39.29715626" lon="-0.34432498"><ele>10.6</ele><time>2022-10-31T14:01:07.0000000+00:00</time></trkpt><trkpt lat="39.29710077" lon="-0.3443347"><ele>10.6</ele><time>2022-10-31T14:01:08.0000000+00:00</time></trkpt><trkpt lat="39.29704537" lon="-0.344343"><ele>10.6</ele><time>2022-10-31T14:01:09.0000000+00:00</time></trkpt><trkpt lat="39.29699348" lon="-0.34435197"><ele>10.6</ele><time>2022-10-31T14:01:10.0000000+00:00</time></trkpt><trkpt lat="39.29694219" lon="-0.34436152"><ele>10.4</ele><time>2022-10-31T14:01:11.0000000+00:00</time></trkpt><trkpt lat="39.29689399" lon="-0.34437527"><ele>10.4</ele><time>2022-10-31T14:01:12.0000000+00:00</time></trkpt><trkpt lat="39.29684822" lon="-0.34438675"><ele>10.4</ele><time>2022-10-31T14:01:13.0000000+00:00</time></trkpt><trkpt lat="39.29680523" lon="-0.34440075"><ele>10.4</ele><time>2022-10-31T14:01:14.0000000+00:00</time></trkpt><trkpt lat="39.29676248" lon="-0.34441257"><ele>10.4</ele><time>2022-10-31T14:01:15.0000000+00:00</time></trkpt><trkpt lat="39.29672577" lon="-0.34442003"><ele>10.4</ele><time>2022-10-31T14:01:16.0000000+00:00</time></trkpt><trkpt lat="39.29669341" lon="-0.34442984"><ele>10.4</ele><time>2022-10-31T14:01:17.0000000+00:00</time></trkpt><trkpt lat="39.29666776" lon="-0.34443436"><ele>10.4</ele><time>2022-10-31T14:01:18.0000000+00:00</time></trkpt><trkpt lat="39.29664807" lon="-0.34443663"><ele>10.6</ele><time>2022-10-31T14:01:19.0000000+00:00</time></trkpt><trkpt lat="39.29663474" lon="-0.34443989"><ele>10.6</ele><time>2022-10-31T14:01:20.0000000+00:00</time></trkpt><trkpt lat="39.29662384" lon="-0.34444207"><ele>10.6</ele><time>2022-10-31T14:01:21.0000000+00:00</time></trkpt><trkpt lat="39.29661294" lon="-0.34444492"><ele>10.8</ele><time>2022-10-31T14:01:22.0000000+00:00</time></trkpt><trkpt lat="39.29660222" lon="-0.34444861"><ele>10.8</ele><time>2022-10-31T14:01:23.0000000+00:00</time></trkpt><trkpt lat="39.29659199" lon="-0.34445146"><ele>10.8</ele><time>2022-10-31T14:01:24.0000000+00:00</time></trkpt><trkpt lat="39.29658026" lon="-0.34445071"><ele>10.8</ele><time>2022-10-31T14:01:25.0000000+00:00</time></trkpt><trkpt lat="39.29656827" lon="-0.34444811"><ele>10.8</ele><time>2022-10-31T14:01:26.0000000+00:00</time></trkpt><trkpt lat="39.29655251" lon="-0.34444744"><ele>10.8</ele><time>2022-10-31T14:01:27.0000000+00:00</time></trkpt><trkpt lat="39.29653608" lon="-0.34444518"><ele>10.8</ele><time>2022-10-31T14:01:28.0000000+00:00</time></trkpt><trkpt lat="39.29651831" lon="-0.34445238"><ele>10.8</ele><time>2022-10-31T14:01:29.0000000+00:00</time></trkpt><trkpt lat="39.29650138" lon="-0.34446001"><ele>10.8</ele><time>2022-10-31T14:01:30.0000000+00:00</time></trkpt><trkpt lat="39.29648361" lon="-0.34446772"><ele>10.8</ele><time>2022-10-31T14:01:31.0000000+00:00</time></trkpt><trkpt lat="39.29646408" lon="-0.34447661"><ele>10.8</ele><time>2022-10-31T14:01:32.0000000+00:00</time></trkpt><trkpt lat="39.29644254" lon="-0.34448675"><ele>10.8</ele><time>2022-10-31T14:01:33.0000000+00:00</time></trkpt><trkpt lat="39.29641882" lon="-0.34449672"><ele>10.8</ele><time>2022-10-31T14:01:34.0000000+00:00</time></trkpt><trkpt lat="39.29639275" lon="-0.3445041"><ele>10.8</ele><time>2022-10-31T14:01:35.0000000+00:00</time></trkpt><trkpt lat="39.29636518" lon="-0.34451164"><ele>10.8</ele><time>2022-10-31T14:01:36.0000000+00:00</time></trkpt><trkpt lat="39.29633517" lon="-0.34452254"><ele>10.8</ele><time>2022-10-31T14:01:37.0000000+00:00</time></trkpt><trkpt lat="39.2963034" lon="-0.34453536"><ele>10.8</ele><time>2022-10-31T14:01:38.0000000+00:00</time></trkpt><trkpt lat="39.29626979" lon="-0.3445466"><ele>10.8</ele><time>2022-10-31T14:01:39.0000000+00:00</time></trkpt><trkpt lat="39.29623123" lon="-0.3445538"><ele>10.8</ele><time>2022-10-31T14:01:40.0000000+00:00</time></trkpt><trkpt lat="39.29618958" lon="-0.34456202"><ele>10.8</ele><time>2022-10-31T14:01:41.0000000+00:00</time></trkpt><trkpt lat="39.29614641" lon="-0.34457065"><ele>10.8</ele><time>2022-10-31T14:01:42.0000000+00:00</time></trkpt><trkpt lat="39.29610123" lon="-0.34458121"><ele>10.8</ele><time>2022-10-31T14:01:43.0000000+00:00</time></trkpt><trkpt lat="39.29605513" lon="-0.34459429"><ele>10.8</ele><time>2022-10-31T14:01:44.0000000+00:00</time></trkpt><trkpt lat="39.2960066" lon="-0.34460586"><ele>11.0</ele><time>2022-10-31T14:01:45.0000000+00:00</time></trkpt><trkpt lat="39.2959558" lon="-0.34461776"><ele>11.0</ele><time>2022-10-31T14:01:46.0000000+00:00</time></trkpt><trkpt lat="39.29590627" lon="-0.34462907"><ele>11.0</ele><time>2022-10-31T14:01:47.0000000+00:00</time></trkpt><trkpt lat="39.2958553" lon="-0.34464148"><ele>11.0</ele><time>2022-10-31T14:01:48.0000000+00:00</time></trkpt><trkpt lat="39.29580208" lon="-0.34465472"><ele>11.0</ele><time>2022-10-31T14:01:49.0000000+00:00</time></trkpt><trkpt lat="39.29574844" lon="-0.34466369"><ele>11.0</ele><time>2022-10-31T14:01:50.0000000+00:00</time></trkpt><trkpt lat="39.29569714" lon="-0.34467551"><ele>10.8</ele><time>2022-10-31T14:01:51.0000000+00:00</time></trkpt><trkpt lat="39.29564584" lon="-0.3446875"><ele>10.8</ele><time>2022-10-31T14:01:52.0000000+00:00</time></trkpt><trkpt lat="39.29559211" lon="-0.34470124"><ele>10.8</ele><time>2022-10-31T14:01:53.0000000+00:00</time></trkpt><trkpt lat="39.29553763" lon="-0.344717"><ele>10.8</ele><time>2022-10-31T14:01:54.0000000+00:00</time></trkpt><trkpt lat="39.29548608" lon="-0.34473578"><ele>10.8</ele><time>2022-10-31T14:01:55.0000000+00:00</time></trkpt><trkpt lat="39.29543302" lon="-0.34474785"><ele>10.8</ele><time>2022-10-31T14:01:56.0000000+00:00</time></trkpt><trkpt lat="39.29537779" lon="-0.34475924"><ele>11.0</ele><time>2022-10-31T14:01:57.0000000+00:00</time></trkpt><trkpt lat="39.2953202" lon="-0.34477199"><ele>11.0</ele><time>2022-10-31T14:01:58.0000000+00:00</time></trkpt><trkpt lat="39.2952627" lon="-0.3447854"><ele>11.0</ele><time>2022-10-31T14:01:59.0000000+00:00</time></trkpt><trkpt lat="39.29520923" lon="-0.34479956"><ele>11.0</ele><time>2022-10-31T14:02:00.0000000+00:00</time></trkpt><trkpt lat="39.295155" lon="-0.34481155"><ele>11.0</ele><time>2022-10-31T14:02:01.0000000+00:00</time></trkpt><trkpt lat="39.29510068" lon="-0.34482454"><ele>11.0</ele><time>2022-10-31T14:02:02.0000000+00:00</time></trkpt><trkpt lat="39.29504394" lon="-0.34483787"><ele>11.0</ele><time>2022-10-31T14:02:03.0000000+00:00</time></trkpt><trkpt lat="39.29498769" lon="-0.3448486"><ele>11.0</ele><time>2022-10-31T14:02:04.0000000+00:00</time></trkpt><trkpt lat="39.29493154" lon="-0.34486217"><ele>10.8</ele><time>2022-10-31T14:02:05.0000000+00:00</time></trkpt><trkpt lat="39.29487353" lon="-0.34487408"><ele>10.8</ele><time>2022-10-31T14:02:06.0000000+00:00</time></trkpt><trkpt lat="39.29481452" lon="-0.34488531"><ele>10.8</ele><time>2022-10-31T14:02:07.0000000+00:00</time></trkpt><trkpt lat="39.29475292" lon="-0.3448978"><ele>10.8</ele><time>2022-10-31T14:02:08.0000000+00:00</time></trkpt><trkpt lat="39.29469332" lon="-0.34491004"><ele>10.8</ele><time>2022-10-31T14:02:09.0000000+00:00</time></trkpt><trkpt lat="39.29463415" lon="-0.34492412"><ele>10.8</ele><time>2022-10-31T14:02:10.0000000+00:00</time></trkpt><trkpt lat="39.29457388" lon="-0.34493795"><ele>11.0</ele><time>2022-10-31T14:02:11.0000000+00:00</time></trkpt><trkpt lat="39.29451294" lon="-0.34495127"><ele>11.0</ele><time>2022-10-31T14:02:12.0000000+00:00</time></trkpt><trkpt lat="39.29445201" lon="-0.34496594"><ele>11.0</ele><time>2022-10-31T14:02:13.0000000+00:00</time></trkpt><trkpt lat="39.29439266" lon="-0.34498153"><ele>11.0</ele><time>2022-10-31T14:02:14.0000000+00:00</time></trkpt><trkpt lat="39.29433608" lon="-0.34499863"><ele>11.0</ele><time>2022-10-31T14:02:15.0000000+00:00</time></trkpt><trkpt lat="39.29428169" lon="-0.34501188"><ele>11.0</ele><time>2022-10-31T14:02:16.0000000+00:00</time></trkpt><trkpt lat="39.29422427" lon="-0.34502822"><ele>11.2</ele><time>2022-10-31T14:02:17.0000000+00:00</time></trkpt><trkpt lat="39.29416367" lon="-0.34504272"><ele>11.2</ele><time>2022-10-31T14:02:18.0000000+00:00</time></trkpt><trkpt lat="39.29410282" lon="-0.34505588"><ele>11.2</ele><time>2022-10-31T14:02:19.0000000+00:00</time></trkpt><trkpt lat="39.2940433" lon="-0.34506753"><ele>11.2</ele><time>2022-10-31T14:02:20.0000000+00:00</time></trkpt><trkpt lat="39.29398337" lon="-0.34508228"><ele>11.0</ele><time>2022-10-31T14:02:21.0000000+00:00</time></trkpt><trkpt lat="39.29392604" lon="-0.34509771"><ele>11.0</ele><time>2022-10-31T14:02:22.0000000+00:00</time></trkpt><trkpt lat="39.29386997" lon="-0.3451102"><ele>10.8</ele><time>2022-10-31T14:02:23.0000000+00:00</time></trkpt><trkpt lat="39.29381146" lon="-0.34512419"><ele>10.8</ele><time>2022-10-31T14:02:24.0000000+00:00</time></trkpt><trkpt lat="39.29375094" lon="-0.34513811"><ele>10.8</ele><time>2022-10-31T14:02:25.0000000+00:00</time></trkpt><trkpt lat="39.29368976" lon="-0.34515437"><ele>10.8</ele><time>2022-10-31T14:02:26.0000000+00:00</time></trkpt><trkpt lat="39.29362974" lon="-0.34516837"><ele>10.8</ele><time>2022-10-31T14:02:27.0000000+00:00</time></trkpt><trkpt lat="39.29357157" lon="-0.34518069"><ele>11.0</ele><time>2022-10-31T14:02:28.0000000+00:00</time></trkpt><trkpt lat="39.29351131" lon="-0.34519234"><ele>11.0</ele><time>2022-10-31T14:02:29.0000000+00:00</time></trkpt><trkpt lat="39.29344911" lon="-0.34520801"><ele>11.0</ele><time>2022-10-31T14:02:30.0000000+00:00</time></trkpt><trkpt lat="39.29339287" lon="-0.34522142"><ele>11.0</ele><time>2022-10-31T14:02:31.0000000+00:00</time></trkpt><trkpt lat="39.29332129" lon="-0.3452355"><ele>10.8</ele><time>2022-10-31T14:02:32.0000000+00:00</time></trkpt><trkpt lat="39.29325901" lon="-0.34524623"><ele>10.8</ele><time>2022-10-31T14:02:33.0000000+00:00</time></trkpt><trkpt lat="39.29320084" lon="-0.34525923"><ele>10.8</ele><time>2022-10-31T14:02:34.0000000+00:00</time></trkpt><trkpt lat="39.29313948" lon="-0.34527088"><ele>10.8</ele><time>2022-10-31T14:02:35.0000000+00:00</time></trkpt><trkpt lat="39.29308634" lon="-0.34527934"><ele>10.8</ele><time>2022-10-31T14:02:36.0000000+00:00</time></trkpt><trkpt lat="39.29302197" lon="-0.34529091"><ele>10.8</ele><time>2022-10-31T14:02:37.0000000+00:00</time></trkpt><trkpt lat="39.29295802" lon="-0.3453044"><ele>10.8</ele><time>2022-10-31T14:02:38.0000000+00:00</time></trkpt><trkpt lat="39.29289758" lon="-0.34531723"><ele>10.8</ele><time>2022-10-31T14:02:39.0000000+00:00</time></trkpt><trkpt lat="39.29283631" lon="-0.34533064"><ele>10.8</ele><time>2022-10-31T14:02:40.0000000+00:00</time></trkpt><trkpt lat="39.29277487" lon="-0.34534304"><ele>10.8</ele><time>2022-10-31T14:02:41.0000000+00:00</time></trkpt><trkpt lat="39.2927136" lon="-0.3453583"><ele>11.0</ele><time>2022-10-31T14:02:42.0000000+00:00</time></trkpt><trkpt lat="39.29265124" lon="-0.34537355"><ele>11.0</ele><time>2022-10-31T14:02:43.0000000+00:00</time></trkpt><trkpt lat="39.29258812" lon="-0.34539074"><ele>11.0</ele><time>2022-10-31T14:02:44.0000000+00:00</time></trkpt><trkpt lat="39.29252476" lon="-0.3454065"><ele>11.0</ele><time>2022-10-31T14:02:45.0000000+00:00</time></trkpt><trkpt lat="39.29246097" lon="-0.34542007"><ele>11.0</ele><time>2022-10-31T14:02:46.0000000+00:00</time></trkpt><trkpt lat="39.29239299" lon="-0.34543566"><ele>11.0</ele><time>2022-10-31T14:02:47.0000000+00:00</time></trkpt><trkpt lat="39.29232719" lon="-0.34545084"><ele>11.0</ele><time>2022-10-31T14:02:48.0000000+00:00</time></trkpt><trkpt lat="39.29226366" lon="-0.34546324"><ele>11.0</ele><time>2022-10-31T14:02:49.0000000+00:00</time></trkpt><trkpt lat="39.29219979" lon="-0.34547623"><ele>11.0</ele><time>2022-10-31T14:02:50.0000000+00:00</time></trkpt><trkpt lat="39.29213709" lon="-0.34549249"><ele>11.2</ele><time>2022-10-31T14:02:51.0000000+00:00</time></trkpt><trkpt lat="39.29207515" lon="-0.34551085"><ele>11.2</ele><time>2022-10-31T14:02:52.0000000+00:00</time></trkpt><trkpt lat="39.29201229" lon="-0.34552661"><ele>11.2</ele><time>2022-10-31T14:02:53.0000000+00:00</time></trkpt><trkpt lat="39.29194808" lon="-0.3455427"><ele>11.2</ele><time>2022-10-31T14:02:54.0000000+00:00</time></trkpt><trkpt lat="39.29188631" lon="-0.34555586"><ele>11.2</ele><time>2022-10-31T14:02:55.0000000+00:00</time></trkpt><trkpt lat="39.29182369" lon="-0.34557003"><ele>11.4</ele><time>2022-10-31T14:02:56.0000000+00:00</time></trkpt><trkpt lat="39.29176116" lon="-0.34558721"><ele>11.2</ele><time>2022-10-31T14:02:57.0000000+00:00</time></trkpt><trkpt lat="39.29169981" lon="-0.34560196"><ele>11.2</ele><time>2022-10-31T14:02:58.0000000+00:00</time></trkpt><trkpt lat="39.2916351" lon="-0.34561697"><ele>11.2</ele><time>2022-10-31T14:02:59.0000000+00:00</time></trkpt><trkpt lat="39.2915714" lon="-0.34563658"><ele>11.2</ele><time>2022-10-31T14:03:00.0000000+00:00</time></trkpt><trkpt lat="39.2915092" lon="-0.3456551"><ele>11.2</ele><time>2022-10-31T14:03:01.0000000+00:00</time></trkpt><trkpt lat="39.29144374" lon="-0.34566877"><ele>11.2</ele><time>2022-10-31T14:03:02.0000000+00:00</time></trkpt><trkpt lat="39.2913797" lon="-0.34568"><ele>11.2</ele><time>2022-10-31T14:03:03.0000000+00:00</time></trkpt><trkpt lat="39.29131592" lon="-0.34569508"><ele>11.2</ele><time>2022-10-31T14:03:04.0000000+00:00</time></trkpt><trkpt lat="39.29124769" lon="-0.34570732"><ele>11.2</ele><time>2022-10-31T14:03:05.0000000+00:00</time></trkpt><trkpt lat="39.2911829" lon="-0.3457204"><ele>11.2</ele><time>2022-10-31T14:03:06.0000000+00:00</time></trkpt><trkpt lat="39.29112087" lon="-0.34572962"><ele>11.2</ele><time>2022-10-31T14:03:07.0000000+00:00</time></trkpt><trkpt lat="39.29105683" lon="-0.34574219"><ele>11.2</ele><time>2022-10-31T14:03:08.0000000+00:00</time></trkpt><trkpt lat="39.29099615" lon="-0.34575585"><ele>11.2</ele><time>2022-10-31T14:03:09.0000000+00:00</time></trkpt><trkpt lat="39.29093605" lon="-0.34577446"><ele>11.2</ele><time>2022-10-31T14:03:10.0000000+00:00</time></trkpt><trkpt lat="39.29087511" lon="-0.34579114"><ele>11.2</ele><time>2022-10-31T14:03:11.0000000+00:00</time></trkpt><trkpt lat="39.29081476" lon="-0.34580858"><ele>11.2</ele><time>2022-10-31T14:03:12.0000000+00:00</time></trkpt><trkpt lat="39.29075567" lon="-0.34582735"><ele>11.2</ele><time>2022-10-31T14:03:13.0000000+00:00</time></trkpt><trkpt lat="39.29069742" lon="-0.34584948"><ele>11.2</ele><time>2022-10-31T14:03:14.0000000+00:00</time></trkpt><trkpt lat="39.29063656" lon="-0.34587655"><ele>11.2</ele><time>2022-10-31T14:03:15.0000000+00:00</time></trkpt><trkpt lat="39.29057973" lon="-0.34590606"><ele>11.2</ele><time>2022-10-31T14:03:16.0000000+00:00</time></trkpt><trkpt lat="39.29052215" lon="-0.34593682"><ele>11.2</ele><time>2022-10-31T14:03:17.0000000+00:00</time></trkpt><trkpt lat="39.29046515" lon="-0.3459654"><ele>11.2</ele><time>2022-10-31T14:03:18.0000000+00:00</time></trkpt><trkpt lat="39.29040816" lon="-0.34598954"><ele>11.2</ele><time>2022-10-31T14:03:19.0000000+00:00</time></trkpt><trkpt lat="39.29035108" lon="-0.34602005"><ele>11.2</ele><time>2022-10-31T14:03:20.0000000+00:00</time></trkpt><trkpt lat="39.29029475" lon="-0.34605375"><ele>11.2</ele><time>2022-10-31T14:03:21.0000000+00:00</time></trkpt><trkpt lat="39.29023884" lon="-0.34608794"><ele>11.2</ele><time>2022-10-31T14:03:22.0000000+00:00</time></trkpt><trkpt lat="39.29018076" lon="-0.34612089"><ele>11.4</ele><time>2022-10-31T14:03:23.0000000+00:00</time></trkpt><trkpt lat="39.29012334" lon="-0.34615601"><ele>11.4</ele><time>2022-10-31T14:03:24.0000000+00:00</time></trkpt><trkpt lat="39.29006735" lon="-0.34619222"><ele>11.4</ele><time>2022-10-31T14:03:25.0000000+00:00</time></trkpt><trkpt lat="39.29001303" lon="-0.34622558"><ele>11.4</ele><time>2022-10-31T14:03:26.0000000+00:00</time></trkpt><trkpt lat="39.28995797" lon="-0.34626011"><ele>11.4</ele><time>2022-10-31T14:03:27.0000000+00:00</time></trkpt><trkpt lat="39.28990306" lon="-0.34629464"><ele>11.4</ele><time>2022-10-31T14:03:28.0000000+00:00</time></trkpt><trkpt lat="39.28984833" lon="-0.34632624"><ele>11.4</ele><time>2022-10-31T14:03:29.0000000+00:00</time></trkpt><trkpt lat="39.28979309" lon="-0.34636002"><ele>11.2</ele><time>2022-10-31T14:03:30.0000000+00:00</time></trkpt><trkpt lat="39.28973652" lon="-0.34639715"><ele>11.2</ele><time>2022-10-31T14:03:31.0000000+00:00</time></trkpt><trkpt lat="39.28968069" lon="-0.34643093"><ele>11.2</ele><time>2022-10-31T14:03:32.0000000+00:00</time></trkpt><trkpt lat="39.28962638" lon="-0.34646597"><ele>11.2</ele><time>2022-10-31T14:03:33.0000000+00:00</time></trkpt><trkpt lat="39.28957122" lon="-0.34650033"><ele>11.2</ele><time>2022-10-31T14:03:34.0000000+00:00</time></trkpt><trkpt lat="39.28951733" lon="-0.34653126"><ele>11.0</ele><time>2022-10-31T14:03:35.0000000+00:00</time></trkpt><trkpt lat="39.28946301" lon="-0.34656412"><ele>11.0</ele><time>2022-10-31T14:03:36.0000000+00:00</time></trkpt><trkpt lat="39.28941021" lon="-0.3465953"><ele>11.0</ele><time>2022-10-31T14:03:37.0000000+00:00</time></trkpt><trkpt lat="39.28936126" lon="-0.34662925"><ele>11.0</ele><time>2022-10-31T14:03:38.0000000+00:00</time></trkpt><trkpt lat="39.28931482" lon="-0.34666487"><ele>11.0</ele><time>2022-10-31T14:03:39.0000000+00:00</time></trkpt><trkpt lat="39.28926352" lon="-0.34670016"><ele>11.0</ele><time>2022-10-31T14:03:40.0000000+00:00</time></trkpt><trkpt lat="39.28921181" lon="-0.34673687"><ele>11.0</ele><time>2022-10-31T14:03:41.0000000+00:00</time></trkpt><trkpt lat="39.28916101" lon="-0.34677249"><ele>11.2</ele><time>2022-10-31T14:03:42.0000000+00:00</time></trkpt><trkpt lat="39.28910988" lon="-0.34680837"><ele>11.0</ele><time>2022-10-31T14:03:43.0000000+00:00</time></trkpt><trkpt lat="39.28905733" lon="-0.34684307"><ele>11.0</ele><time>2022-10-31T14:03:44.0000000+00:00</time></trkpt><trkpt lat="39.28900478" lon="-0.3468771"><ele>11.0</ele><time>2022-10-31T14:03:45.0000000+00:00</time></trkpt><trkpt lat="39.2889549" lon="-0.34691147"><ele>11.0</ele><time>2022-10-31T14:03:46.0000000+00:00</time></trkpt><trkpt lat="39.28890151" lon="-0.34694793"><ele>11.0</ele><time>2022-10-31T14:03:47.0000000+00:00</time></trkpt><trkpt lat="39.28884854" lon="-0.34698489"><ele>11.0</ele><time>2022-10-31T14:03:48.0000000+00:00</time></trkpt><trkpt lat="39.28879657" lon="-0.34701901"><ele>11.0</ele><time>2022-10-31T14:03:49.0000000+00:00</time></trkpt><trkpt lat="39.28874494" lon="-0.3470553"><ele>11.0</ele><time>2022-10-31T14:03:50.0000000+00:00</time></trkpt><trkpt lat="39.28869045" lon="-0.34709327"><ele>11.2</ele><time>2022-10-31T14:03:51.0000000+00:00</time></trkpt><trkpt lat="39.28862583" lon="-0.34713845"><ele>11.2</ele><time>2022-10-31T14:03:52.0000000+00:00</time></trkpt><trkpt lat="39.28857302" lon="-0.34717248"><ele>11.2</ele><time>2022-10-31T14:03:53.0000000+00:00</time></trkpt><trkpt lat="39.28853103" lon="-0.34719871"><ele>11.2</ele><time>2022-10-31T14:03:54.0000000+00:00</time></trkpt><trkpt lat="39.28846582" lon="-0.34723199"><ele>11.2</ele><time>2022-10-31T14:03:55.0000000+00:00</time></trkpt><trkpt lat="39.28841293" lon="-0.34725756"><ele>11.2</ele><time>2022-10-31T14:03:56.0000000+00:00</time></trkpt><trkpt lat="39.28835778" lon="-0.34728128"><ele>11.2</ele><time>2022-10-31T14:03:57.0000000+00:00</time></trkpt><trkpt lat="39.28830313" lon="-0.34730634"><ele>11.2</ele><time>2022-10-31T14:03:58.0000000+00:00</time></trkpt><trkpt lat="39.28824521" lon="-0.34733106"><ele>11.2</ele><time>2022-10-31T14:03:59.0000000+00:00</time></trkpt><trkpt lat="39.28818737" lon="-0.34735311"><ele>11.2</ele><time>2022-10-31T14:04:00.0000000+00:00</time></trkpt><trkpt lat="39.28812753" lon="-0.34737239"><ele>11.2</ele><time>2022-10-31T14:04:01.0000000+00:00</time></trkpt><trkpt lat="39.28807698" lon="-0.34738605"><ele>11.2</ele><time>2022-10-31T14:04:02.0000000+00:00</time></trkpt><trkpt lat="39.28801655" lon="-0.34740239"><ele>11.2</ele><time>2022-10-31T14:04:03.0000000+00:00</time></trkpt><trkpt lat="39.28794455" lon="-0.3474231"><ele>11.2</ele><time>2022-10-31T14:04:04.0000000+00:00</time></trkpt><trkpt lat="39.28788219" lon="-0.34743768"><ele>11.2</ele><time>2022-10-31T14:04:05.0000000+00:00</time></trkpt><trkpt lat="39.28783248" lon="-0.34745076"><ele>11.4</ele><time>2022-10-31T14:04:06.0000000+00:00</time></trkpt><trkpt lat="39.28776132" lon="-0.34747129"><ele>11.4</ele><time>2022-10-31T14:04:07.0000000+00:00</time></trkpt><trkpt lat="39.28770122" lon="-0.34748479"><ele>11.4</ele><time>2022-10-31T14:04:08.0000000+00:00</time></trkpt><trkpt lat="39.28764079" lon="-0.34749929"><ele>11.4</ele><time>2022-10-31T14:04:09.0000000+00:00</time></trkpt><trkpt lat="39.2875827" lon="-0.34751672"><ele>11.4</ele><time>2022-10-31T14:04:10.0000000+00:00</time></trkpt><trkpt lat="39.28752503" lon="-0.34753424"><ele>11.6</ele><time>2022-10-31T14:04:11.0000000+00:00</time></trkpt><trkpt lat="39.28747868" lon="-0.3475479"><ele>11.4</ele><time>2022-10-31T14:04:12.0000000+00:00</time></trkpt><trkpt lat="39.28741858" lon="-0.34756484"><ele>11.4</ele><time>2022-10-31T14:04:13.0000000+00:00</time></trkpt><trkpt lat="39.28734801" lon="-0.34758185"><ele>11.4</ele><time>2022-10-31T14:04:14.0000000+00:00</time></trkpt><trkpt lat="39.28729042" lon="-0.34759895"><ele>11.4</ele><time>2022-10-31T14:04:15.0000000+00:00</time></trkpt><trkpt lat="39.28723049" lon="-0.34761437"><ele>11.4</ele><time>2022-10-31T14:04:16.0000000+00:00</time></trkpt><trkpt lat="39.28717031" lon="-0.34763021"><ele>11.4</ele><time>2022-10-31T14:04:17.0000000+00:00</time></trkpt><trkpt lat="39.28711097" lon="-0.34764748"><ele>11.4</ele><time>2022-10-31T14:04:18.0000000+00:00</time></trkpt><trkpt lat="39.28705204" lon="-0.34766659"><ele>11.4</ele><time>2022-10-31T14:04:19.0000000+00:00</time></trkpt><trkpt lat="39.28699035" lon="-0.34768302"><ele>11.4</ele><time>2022-10-31T14:04:20.0000000+00:00</time></trkpt><trkpt lat="39.28694207" lon="-0.34769559"><ele>11.4</ele><time>2022-10-31T14:04:21.0000000+00:00</time></trkpt><trkpt lat="39.28687963" lon="-0.34771169"><ele>11.4</ele><time>2022-10-31T14:04:22.0000000+00:00</time></trkpt><trkpt lat="39.28685012" lon="-0.34771814"><ele>11.4</ele><time>2022-10-31T14:04:23.0000000+00:00</time></trkpt><trkpt lat="39.28683931" lon="-0.34772074"><ele>11.2</ele><time>2022-10-31T14:04:24.0000000+00:00</time></trkpt><trkpt lat="39.28683931" lon="-0.34772074"><ele>11.2</ele><time>2022-10-31T14:04:25.0000000+00:00</time></trkpt><trkpt lat="39.28683931" lon="-0.34772074"><ele>11.0</ele><time>2022-10-31T14:04:26.0000000+00:00</time></trkpt><trkpt lat="39.28683814" lon="-0.34771747"><ele>11.0</ele><time>2022-10-31T14:04:27.0000000+00:00</time></trkpt><trkpt lat="39.28683554" lon="-0.34771781"><ele>11.0</ele><time>2022-10-31T14:04:28.0000000+00:00</time></trkpt><trkpt lat="39.28683554" lon="-0.34771781"><ele>11.0</ele><time>2022-10-31T14:04:29.0000000+00:00</time></trkpt><trkpt lat="39.28683554" lon="-0.34771781"><ele>11.0</ele><time>2022-10-31T14:04:30.0000000+00:00</time></trkpt><trkpt lat="39.28683554" lon="-0.34771781"><ele>11.0</ele><time>2022-10-31T14:04:31.0000000+00:00</time></trkpt><trkpt lat="39.28683554" lon="-0.34771781"><ele>11.0</ele><time>2022-10-31T14:04:32.0000000+00:00</time></trkpt><trkpt lat="39.28683554" lon="-0.34771781"><ele>11.0</ele><time>2022-10-31T14:04:33.0000000+00:00</time></trkpt><trkpt lat="39.28683554" lon="-0.34771781"><ele>11.0</ele><time>2022-10-31T14:04:34.0000000+00:00</time></trkpt><trkpt lat="39.28683554" lon="-0.34771781"><ele>11.0</ele><time>2022-10-31T14:04:35.0000000+00:00</time></trkpt><trkpt lat="39.28683554" lon="-0.34771781"><ele>11.0</ele><time>2022-10-31T14:04:36.0000000+00:00</time></trkpt><trkpt lat="39.28683554" lon="-0.34771781"><ele>11.0</ele><time>2022-10-31T14:04:37.0000000+00:00</time></trkpt><trkpt lat="39.28683554" lon="-0.34771781"><ele>11.0</ele><time>2022-10-31T14:04:38.0000000+00:00</time></trkpt><trkpt lat="39.28683554" lon="-0.34771781"><ele>11.0</ele><time>2022-10-31T14:04:39.0000000+00:00</time></trkpt><trkpt lat="39.28683554" lon="-0.34771781"><ele>11.0</ele><time>2022-10-31T14:04:40.0000000+00:00</time></trkpt><trkpt lat="39.28683554" lon="-0.34771781"><ele>11.0</ele><time>2022-10-31T14:04:41.0000000+00:00</time></trkpt><trkpt lat="39.28683554" lon="-0.34771781"><ele>11.0</ele><time>2022-10-31T14:04:42.0000000+00:00</time></trkpt><trkpt lat="39.28683554" lon="-0.34771781"><ele>11.0</ele><time>2022-10-31T14:04:43.0000000+00:00</time></trkpt><trkpt lat="39.28683554" lon="-0.34771781"><ele>11.0</ele><time>2022-10-31T14:04:44.0000000+00:00</time></trkpt><trkpt lat="39.28683554" lon="-0.34771781"><ele>11.0</ele><time>2022-10-31T14:04:45.0000000+00:00</time></trkpt><trkpt lat="39.28683554" lon="-0.34771781"><ele>11.0</ele><time>2022-10-31T14:04:46.0000000+00:00</time></trkpt><trkpt lat="39.28683554" lon="-0.34771781"><ele>11.0</ele><time>2022-10-31T14:04:47.0000000+00:00</time></trkpt><trkpt lat="39.28683554" lon="-0.34771781"><ele>11.0</ele><time>2022-10-31T14:04:48.0000000+00:00</time></trkpt><trkpt lat="39.28683872" lon="-0.34771554"><ele>11.0</ele><time>2022-10-31T14:04:49.0000000+00:00</time></trkpt><trkpt lat="39.28684241" lon="-0.34771713"><ele>11.0</ele><time>2022-10-31T14:04:50.0000000+00:00</time></trkpt><trkpt lat="39.28684241" lon="-0.34771713"><ele>11.0</ele><time>2022-10-31T14:04:51.0000000+00:00</time></trkpt><trkpt lat="39.28684074" lon="-0.34771672"><ele>11.0</ele><time>2022-10-31T14:04:52.0000000+00:00</time></trkpt><trkpt lat="39.28683445" lon="-0.34771621"><ele>11.0</ele><time>2022-10-31T14:04:53.0000000+00:00</time></trkpt><trkpt lat="39.28682422" lon="-0.34771982"><ele>11.0</ele><time>2022-10-31T14:04:54.0000000+00:00</time></trkpt><trkpt lat="39.28680922" lon="-0.34772082"><ele>11.0</ele><time>2022-10-31T14:04:55.0000000+00:00</time></trkpt><trkpt lat="39.28679329" lon="-0.34771898"><ele>11.0</ele><time>2022-10-31T14:04:56.0000000+00:00</time></trkpt><trkpt lat="39.28677477" lon="-0.34771638"><ele>11.0</ele><time>2022-10-31T14:04:57.0000000+00:00</time></trkpt><trkpt lat="39.2867591" lon="-0.34771814"><ele>11.0</ele><time>2022-10-31T14:04:58.0000000+00:00</time></trkpt><trkpt lat="39.28673303" lon="-0.34772334"><ele>11.0</ele><time>2022-10-31T14:04:59.0000000+00:00</time></trkpt><trkpt lat="39.28670973" lon="-0.34772853"><ele>11.0</ele><time>2022-10-31T14:05:00.0000000+00:00</time></trkpt><trkpt lat="39.28668768" lon="-0.34773557"><ele>11.0</ele><time>2022-10-31T14:05:01.0000000+00:00</time></trkpt><trkpt lat="39.28666773" lon="-0.34773767"><ele>10.8</ele><time>2022-10-31T14:05:02.0000000+00:00</time></trkpt><trkpt lat="39.28663848" lon="-0.34774253"><ele>10.8</ele><time>2022-10-31T14:05:03.0000000+00:00</time></trkpt><trkpt lat="39.28661451" lon="-0.34774773"><ele>10.8</ele><time>2022-10-31T14:05:04.0000000+00:00</time></trkpt><trkpt lat="39.28659196" lon="-0.34776039"><ele>10.8</ele><time>2022-10-31T14:05:05.0000000+00:00</time></trkpt><trkpt lat="39.28657151" lon="-0.34778277"><ele>10.8</ele><time>2022-10-31T14:05:06.0000000+00:00</time></trkpt><trkpt lat="39.28655944" lon="-0.34780942"><ele>11.0</ele><time>2022-10-31T14:05:07.0000000+00:00</time></trkpt><trkpt lat="39.28655332" lon="-0.34783507"><ele>11.0</ele><time>2022-10-31T14:05:08.0000000+00:00</time></trkpt><trkpt lat="39.28655617" lon="-0.34786114"><ele>11.0</ele><time>2022-10-31T14:05:09.0000000+00:00</time></trkpt><trkpt lat="39.28656363" lon="-0.34787513"><ele>11.2</ele><time>2022-10-31T14:05:10.0000000+00:00</time></trkpt><trkpt lat="39.28656983" lon="-0.34789173"><ele>11.2</ele><time>2022-10-31T14:05:11.0000000+00:00</time></trkpt><trkpt lat="39.28657888" lon="-0.34791947"><ele>11.2</ele><time>2022-10-31T14:05:12.0000000+00:00</time></trkpt><trkpt lat="39.2865866" lon="-0.34793967"><ele>11.2</ele><time>2022-10-31T14:05:13.0000000+00:00</time></trkpt><trkpt lat="39.28659179" lon="-0.3479613"><ele>11.2</ele><time>2022-10-31T14:05:14.0000000+00:00</time></trkpt><trkpt lat="39.28659758" lon="-0.34798125"><ele>11.2</ele><time>2022-10-31T14:05:15.0000000+00:00</time></trkpt><trkpt lat="39.28659841" lon="-0.34798862"><ele>11.0</ele><time>2022-10-31T14:05:16.0000000+00:00</time></trkpt><trkpt lat="39.28659624" lon="-0.34799173"><ele>11.0</ele><time>2022-10-31T14:05:17.0000000+00:00</time></trkpt><trkpt lat="39.28659624" lon="-0.34799173"><ele>11.0</ele><time>2022-10-31T14:05:18.0000000+00:00</time></trkpt><trkpt lat="39.28660085" lon="-0.34799332"><ele>10.8</ele><time>2022-10-31T14:05:19.0000000+00:00</time></trkpt><trkpt lat="39.28660948" lon="-0.34799885"><ele>10.8</ele><time>2022-10-31T14:05:20.0000000+00:00</time></trkpt><trkpt lat="39.28661501" lon="-0.34800371"><ele>10.8</ele><time>2022-10-31T14:05:21.0000000+00:00</time></trkpt><trkpt lat="39.28661945" lon="-0.34800589"><ele>10.8</ele><time>2022-10-31T14:05:22.0000000+00:00</time></trkpt><trkpt lat="39.28662205" lon="-0.34800631"><ele>10.8</ele><time>2022-10-31T14:05:23.0000000+00:00</time></trkpt><trkpt lat="39.28662825" lon="-0.34800455"><ele>10.8</ele><time>2022-10-31T14:05:24.0000000+00:00</time></trkpt><trkpt lat="39.28663194" lon="-0.34800338"><ele>11.0</ele><time>2022-10-31T14:05:25.0000000+00:00</time></trkpt><trkpt lat="39.28663152" lon="-0.34800321"><ele>11.0</ele><time>2022-10-31T14:05:26.0000000+00:00</time></trkpt><trkpt lat="39.28663161" lon="-0.34799986"><ele>11.0</ele><time>2022-10-31T14:05:27.0000000+00:00</time></trkpt><trkpt lat="39.28663521" lon="-0.34799885"><ele>10.8</ele><time>2022-10-31T14:05:28.0000000+00:00</time></trkpt><trkpt lat="39.28664108" lon="-0.34799441"><ele>10.8</ele><time>2022-10-31T14:05:29.0000000+00:00</time></trkpt><trkpt lat="39.28664527" lon="-0.34798963"><ele>10.8</ele><time>2022-10-31T14:05:30.0000000+00:00</time></trkpt><trkpt lat="39.28664527" lon="-0.34798963"><ele>10.6</ele><time>2022-10-31T14:05:31.0000000+00:00</time></trkpt><trkpt lat="39.28664829" lon="-0.34798997"><ele>10.6</ele><time>2022-10-31T14:05:32.0000000+00:00</time></trkpt><trkpt lat="39.28665239" lon="-0.34798837"><ele>10.6</ele><time>2022-10-31T14:05:33.0000000+00:00</time></trkpt><trkpt lat="39.28665239" lon="-0.34798837"><ele>10.4</ele><time>2022-10-31T14:05:34.0000000+00:00</time></trkpt><trkpt lat="39.28665239" lon="-0.34798837"><ele>10.2</ele><time>2022-10-31T14:05:35.0000000+00:00</time></trkpt><trkpt lat="39.28665239" lon="-0.34798837"><ele>10.0</ele><time>2022-10-31T14:05:36.0000000+00:00</time></trkpt><trkpt lat="39.28665239" lon="-0.34798837"><ele>9.8</ele><time>2022-10-31T14:05:37.0000000+00:00</time></trkpt><trkpt lat="39.28665239" lon="-0.34798837"><ele>9.8</ele><time>2022-10-31T14:05:38.0000000+00:00</time></trkpt><trkpt lat="39.28665239" lon="-0.34798837"><ele>9.8</ele><time>2022-10-31T14:05:39.0000000+00:00</time></trkpt><trkpt lat="39.28665239" lon="-0.34798837"><ele>9.8</ele><time>2022-10-31T14:05:40.0000000+00:00</time></trkpt><trkpt lat="39.28665239" lon="-0.34798837"><ele>9.8</ele><time>2022-10-31T14:05:41.0000000+00:00</time></trkpt><trkpt lat="39.28665239" lon="-0.34798837"><ele>9.8</ele><time>2022-10-31T14:05:42.0000000+00:00</time></trkpt><trkpt lat="39.28665239" lon="-0.34798837"><ele>9.8</ele><time>2022-10-31T14:05:43.0000000+00:00</time></trkpt><trkpt lat="39.2866555" lon="-0.34798837"><ele>9.8</ele><time>2022-10-31T14:05:44.0000000+00:00</time></trkpt><trkpt lat="39.28666086" lon="-0.3479893"><ele>9.8</ele><time>2022-10-31T14:05:45.0000000+00:00</time></trkpt><trkpt lat="39.28666346" lon="-0.34798879"><ele>9.8</ele><time>2022-10-31T14:05:46.0000000+00:00</time></trkpt><trkpt lat="39.28666346" lon="-0.34798879"><ele>10.0</ele><time>2022-10-31T14:05:47.0000000+00:00</time></trkpt><trkpt lat="39.28666346" lon="-0.34798879"><ele>10.0</ele><time>2022-10-31T14:05:48.0000000+00:00</time></trkpt><trkpt lat="39.28666346" lon="-0.34798879"><ele>9.8</ele><time>2022-10-31T14:05:49.0000000+00:00</time></trkpt><trkpt lat="39.28666346" lon="-0.34798879"><ele>9.8</ele><time>2022-10-31T14:05:50.0000000+00:00</time></trkpt><trkpt lat="39.28666346" lon="-0.34798879"><ele>10.0</ele><time>2022-10-31T14:05:51.0000000+00:00</time></trkpt><trkpt lat="39.28666346" lon="-0.34798879"><ele>9.8</ele><time>2022-10-31T14:05:52.0000000+00:00</time></trkpt><trkpt lat="39.28666346" lon="-0.34798879"><ele>9.8</ele><time>2022-10-31T14:05:53.0000000+00:00</time></trkpt><trkpt lat="39.28666346" lon="-0.34798879"><ele>9.8</ele><time>2022-10-31T14:05:54.0000000+00:00</time></trkpt><trkpt lat="39.28666346" lon="-0.34798879"><ele>9.8</ele><time>2022-10-31T14:05:55.0000000+00:00</time></trkpt><trkpt lat="39.28666346" lon="-0.34798879"><ele>10.0</ele><time>2022-10-31T14:05:56.0000000+00:00</time></trkpt><trkpt lat="39.28666346" lon="-0.34798879"><ele>10.0</ele><time>2022-10-31T14:05:57.0000000+00:00</time></trkpt><trkpt lat="39.28666346" lon="-0.34798879"><ele>10.0</ele><time>2022-10-31T14:05:58.0000000+00:00</time></trkpt><trkpt lat="39.28666346" lon="-0.34798879"><ele>10.0</ele><time>2022-10-31T14:05:59.0000000+00:00</time></trkpt><trkpt lat="39.28666346" lon="-0.34798879"><ele>10.0</ele><time>2022-10-31T14:06:00.0000000+00:00</time></trkpt><trkpt lat="39.28666346" lon="-0.34798879"><ele>10.0</ele><time>2022-10-31T14:06:01.0000000+00:00</time></trkpt><trkpt lat="39.28666346" lon="-0.34798879"><ele>10.0</ele><time>2022-10-31T14:06:02.0000000+00:00</time></trkpt><trkpt lat="39.28666346" lon="-0.34798879"><ele>10.0</ele><time>2022-10-31T14:06:03.0000000+00:00</time></trkpt><trkpt lat="39.28666346" lon="-0.34798879"><ele>10.0</ele><time>2022-10-31T14:06:04.0000000+00:00</time></trkpt><trkpt lat="39.28666346" lon="-0.34798879"><ele>10.0</ele><time>2022-10-31T14:06:05.0000000+00:00</time></trkpt><trkpt lat="39.28666346" lon="-0.34798879"><ele>10.0</ele><time>2022-10-31T14:06:06.0000000+00:00</time></trkpt><trkpt lat="39.28666346" lon="-0.34798879"><ele>10.0</ele><time>2022-10-31T14:06:07.0000000+00:00</time></trkpt><trkpt lat="39.28666346" lon="-0.34798879"><ele>10.0</ele><time>2022-10-31T14:06:08.0000000+00:00</time></trkpt><trkpt lat="39.28666346" lon="-0.34798879"><ele>10.0</ele><time>2022-10-31T14:06:09.0000000+00:00</time></trkpt><trkpt lat="39.28666346" lon="-0.34798879"><ele>10.0</ele><time>2022-10-31T14:06:10.0000000+00:00</time></trkpt><trkpt lat="39.28666346" lon="-0.34798879"><ele>10.0</ele><time>2022-10-31T14:06:11.0000000+00:00</time></trkpt><trkpt lat="39.28666346" lon="-0.34798879"><ele>10.0</ele><time>2022-10-31T14:06:12.0000000+00:00</time></trkpt><trkpt lat="39.28666346" lon="-0.34798879"><ele>10.0</ele><time>2022-10-31T14:06:13.0000000+00:00</time></trkpt><trkpt lat="39.28666346" lon="-0.34798879"><ele>10.0</ele><time>2022-10-31T14:06:14.0000000+00:00</time></trkpt><trkpt lat="39.28666346" lon="-0.34798879"><ele>10.0</ele><time>2022-10-31T14:06:15.0000000+00:00</time></trkpt><trkpt lat="39.28666329" lon="-0.34798603"><ele>10.2</ele><time>2022-10-31T14:06:16.0000000+00:00</time></trkpt><trkpt lat="39.2866617" lon="-0.34797731"><ele>10.4</ele><time>2022-10-31T14:06:17.0000000+00:00</time></trkpt><trkpt lat="39.28665935" lon="-0.34796675"><ele>10.6</ele><time>2022-10-31T14:06:18.0000000+00:00</time></trkpt><trkpt lat="39.28665575" lon="-0.34795434"><ele>10.8</ele><time>2022-10-31T14:06:19.0000000+00:00</time></trkpt><trkpt lat="39.28664963" lon="-0.34794495"><ele>10.8</ele><time>2022-10-31T14:06:20.0000000+00:00</time></trkpt><trkpt lat="39.28664275" lon="-0.34793599"><ele>10.8</ele><time>2022-10-31T14:06:21.0000000+00:00</time></trkpt><trkpt lat="39.28664125" lon="-0.34793196"><ele>10.8</ele><time>2022-10-31T14:06:22.0000000+00:00</time></trkpt><trkpt lat="39.28664125" lon="-0.34793196"><ele>10.8</ele><time>2022-10-31T14:06:23.0000000+00:00</time></trkpt><trkpt lat="39.28664125" lon="-0.34793196"><ele>10.8</ele><time>2022-10-31T14:06:24.0000000+00:00</time></trkpt><trkpt lat="39.28663982" lon="-0.3479318"><ele>10.8</ele><time>2022-10-31T14:06:25.0000000+00:00</time></trkpt><trkpt lat="39.28663731" lon="-0.34793138"><ele>10.8</ele><time>2022-10-31T14:06:26.0000000+00:00</time></trkpt><trkpt lat="39.28663731" lon="-0.34793138"><ele>10.8</ele><time>2022-10-31T14:06:27.0000000+00:00</time></trkpt><trkpt lat="39.28663731" lon="-0.34793138"><ele>10.8</ele><time>2022-10-31T14:06:28.0000000+00:00</time></trkpt><trkpt lat="39.28663731" lon="-0.34793138"><ele>10.8</ele><time>2022-10-31T14:06:29.0000000+00:00</time></trkpt><trkpt lat="39.28663731" lon="-0.34793138"><ele>10.8</ele><time>2022-10-31T14:06:30.0000000+00:00</time></trkpt><trkpt lat="39.28663731" lon="-0.34793138"><ele>10.8</ele><time>2022-10-31T14:06:31.0000000+00:00</time></trkpt><trkpt lat="39.28663731" lon="-0.34793138"><ele>10.8</ele><time>2022-10-31T14:06:32.0000000+00:00</time></trkpt><trkpt lat="39.28663731" lon="-0.34793138"><ele>10.8</ele><time>2022-10-31T14:06:33.0000000+00:00</time></trkpt><trkpt lat="39.28663731" lon="-0.34793138"><ele>10.8</ele><time>2022-10-31T14:06:34.0000000+00:00</time></trkpt><trkpt lat="39.28663731" lon="-0.34793138"><ele>10.8</ele><time>2022-10-31T14:06:35.0000000+00:00</time></trkpt><trkpt lat="39.28663731" lon="-0.34793138"><ele>10.8</ele><time>2022-10-31T14:06:36.0000000+00:00</time></trkpt><trkpt lat="39.28662985" lon="-0.34792978"><ele>10.8</ele><time>2022-10-31T14:06:37.0000000+00:00</time></trkpt><trkpt lat="39.28662515" lon="-0.34793087"><ele>10.8</ele><time>2022-10-31T14:06:38.0000000+00:00</time></trkpt><trkpt lat="39.28662607" lon="-0.34794646"><ele>10.8</ele><time>2022-10-31T14:06:39.0000000+00:00</time></trkpt><trkpt lat="39.28662884" lon="-0.3479587"><ele>10.8</ele><time>2022-10-31T14:06:40.0000000+00:00</time></trkpt><trkpt lat="39.2866363" lon="-0.34797002"><ele>10.8</ele><time>2022-10-31T14:06:41.0000000+00:00</time></trkpt><trkpt lat="39.28664141" lon="-0.34798066"><ele>10.8</ele><time>2022-10-31T14:06:42.0000000+00:00</time></trkpt><trkpt lat="39.28664343" lon="-0.34799307"><ele>10.8</ele><time>2022-10-31T14:06:43.0000000+00:00</time></trkpt><trkpt lat="39.28664862" lon="-0.34800145"><ele>10.8</ele><time>2022-10-31T14:06:44.0000000+00:00</time></trkpt><trkpt lat="39.28665198" lon="-0.34800665"><ele>10.6</ele><time>2022-10-31T14:06:45.0000000+00:00</time></trkpt><trkpt lat="39.28665198" lon="-0.34800363"><ele>10.6</ele><time>2022-10-31T14:06:46.0000000+00:00</time></trkpt><trkpt lat="39.28664938" lon="-0.34800296"><ele>10.6</ele><time>2022-10-31T14:06:47.0000000+00:00</time></trkpt><trkpt lat="39.28664938" lon="-0.34800296"><ele>10.6</ele><time>2022-10-31T14:06:48.0000000+00:00</time></trkpt><trkpt lat="39.28664938" lon="-0.34800296"><ele>10.4</ele><time>2022-10-31T14:06:49.0000000+00:00</time></trkpt><trkpt lat="39.28664938" lon="-0.34800296"><ele>10.4</ele><time>2022-10-31T14:06:50.0000000+00:00</time></trkpt><trkpt lat="39.28664938" lon="-0.34800296"><ele>10.4</ele><time>2022-10-31T14:06:51.0000000+00:00</time></trkpt><trkpt lat="39.28664938" lon="-0.34800296"><ele>10.4</ele><time>2022-10-31T14:06:52.0000000+00:00</time></trkpt><trkpt lat="39.28664938" lon="-0.34800296"><ele>10.4</ele><time>2022-10-31T14:06:53.0000000+00:00</time></trkpt><trkpt lat="39.28664938" lon="-0.34800296"><ele>10.4</ele><time>2022-10-31T14:06:54.0000000+00:00</time></trkpt><trkpt lat="39.28664938" lon="-0.34800296"><ele>10.4</ele><time>2022-10-31T14:06:55.0000000+00:00</time></trkpt><trkpt lat="39.28664938" lon="-0.34800296"><ele>10.6</ele><time>2022-10-31T14:06:56.0000000+00:00</time></trkpt><trkpt lat="39.28664938" lon="-0.34800296"><ele>10.8</ele><time>2022-10-31T14:06:57.0000000+00:00</time></trkpt><trkpt lat="39.28664938" lon="-0.34800296"><ele>11.0</ele><time>2022-10-31T14:06:58.0000000+00:00</time></trkpt><trkpt lat="39.28664938" lon="-0.34800296"><ele>11.2</ele><time>2022-10-31T14:06:59.0000000+00:00</time></trkpt><trkpt lat="39.28664938" lon="-0.34800296"><ele>11.2</ele><time>2022-10-31T14:07:00.0000000+00:00</time></trkpt><trkpt lat="39.28664938" lon="-0.34800296"><ele>11.2</ele><time>2022-10-31T14:07:01.0000000+00:00</time></trkpt><trkpt lat="39.28664938" lon="-0.34800296"><ele>11.2</ele><time>2022-10-31T14:07:02.0000000+00:00</time></trkpt><trkpt lat="39.28664552" lon="-0.34800204"><ele>11.2</ele><time>2022-10-31T14:07:03.0000000+00:00</time></trkpt><trkpt lat="39.28664527" lon="-0.3479955"><ele>11.0</ele><time>2022-10-31T14:07:04.0000000+00:00</time></trkpt><trkpt lat="39.28664435" lon="-0.34798946"><ele>10.8</ele><time>2022-10-31T14:07:05.0000000+00:00</time></trkpt><trkpt lat="39.28664275" lon="-0.34798284"><ele>10.8</ele><time>2022-10-31T14:07:06.0000000+00:00</time></trkpt><trkpt lat="39.28663722" lon="-0.34797312"><ele>10.8</ele><time>2022-10-31T14:07:07.0000000+00:00</time></trkpt><trkpt lat="39.28662716" lon="-0.34795845"><ele>10.8</ele><time>2022-10-31T14:07:08.0000000+00:00</time></trkpt><trkpt lat="39.28661794" lon="-0.3479411"><ele>10.8</ele><time>2022-10-31T14:07:09.0000000+00:00</time></trkpt><trkpt lat="39.28660403" lon="-0.3479209"><ele>10.8</ele><time>2022-10-31T14:07:10.0000000+00:00</time></trkpt><trkpt lat="39.28659137" lon="-0.3479038"><ele>11.0</ele><time>2022-10-31T14:07:11.0000000+00:00</time></trkpt><trkpt lat="39.28658224" lon="-0.34788737"><ele>11.0</ele><time>2022-10-31T14:07:12.0000000+00:00</time></trkpt><trkpt lat="39.28657461" lon="-0.34787673"><ele>11.0</ele><time>2022-10-31T14:07:13.0000000+00:00</time></trkpt><trkpt lat="39.28657293" lon="-0.3478582"><ele>11.2</ele><time>2022-10-31T14:07:14.0000000+00:00</time></trkpt><trkpt lat="39.2865726" lon="-0.34783993"><ele>11.2</ele><time>2022-10-31T14:07:15.0000000+00:00</time></trkpt><trkpt lat="39.28656573" lon="-0.34782786"><ele>11.4</ele><time>2022-10-31T14:07:16.0000000+00:00</time></trkpt><trkpt lat="39.28655709" lon="-0.34781101"><ele>11.4</ele><time>2022-10-31T14:07:17.0000000+00:00</time></trkpt><trkpt lat="39.28654812" lon="-0.34780095"><ele>11.4</ele><time>2022-10-31T14:07:18.0000000+00:00</time></trkpt><trkpt lat="39.28652667" lon="-0.34778578"><ele>11.2</ele><time>2022-10-31T14:07:19.0000000+00:00</time></trkpt><trkpt lat="39.28650244" lon="-0.34778193"><ele>11.0</ele><time>2022-10-31T14:07:20.0000000+00:00</time></trkpt><trkpt lat="39.28647269" lon="-0.34778629"><ele>11.0</ele><time>2022-10-31T14:07:21.0000000+00:00</time></trkpt><trkpt lat="39.28643933" lon="-0.3477945"><ele>11.0</ele><time>2022-10-31T14:07:22.0000000+00:00</time></trkpt><trkpt lat="39.28639985" lon="-0.3478028"><ele>10.8</ele><time>2022-10-31T14:07:23.0000000+00:00</time></trkpt><trkpt lat="39.28636339" lon="-0.34781386"><ele>10.8</ele><time>2022-10-31T14:07:24.0000000+00:00</time></trkpt><trkpt lat="39.28632366" lon="-0.34782543"><ele>10.8</ele><time>2022-10-31T14:07:25.0000000+00:00</time></trkpt><trkpt lat="39.28628485" lon="-0.34783775"><ele>10.8</ele><time>2022-10-31T14:07:26.0000000+00:00</time></trkpt><trkpt lat="39.28624445" lon="-0.34784915"><ele>10.8</ele><time>2022-10-31T14:07:27.0000000+00:00</time></trkpt><trkpt lat="39.28620522" lon="-0.34786189"><ele>10.8</ele><time>2022-10-31T14:07:28.0000000+00:00</time></trkpt><trkpt lat="39.28616859" lon="-0.34787287"><ele>10.8</ele><time>2022-10-31T14:07:29.0000000+00:00</time></trkpt><trkpt lat="39.28614043" lon="-0.34788318"><ele>10.8</ele><time>2022-10-31T14:07:30.0000000+00:00</time></trkpt><trkpt lat="39.28609651" lon="-0.34789626"><ele>10.8</ele><time>2022-10-31T14:07:31.0000000+00:00</time></trkpt><trkpt lat="39.28606197" lon="-0.34790414"><ele>10.8</ele><time>2022-10-31T14:07:32.0000000+00:00</time></trkpt><trkpt lat="39.28602576" lon="-0.34791562"><ele>10.8</ele><time>2022-10-31T14:07:33.0000000+00:00</time></trkpt><trkpt lat="39.28598846" lon="-0.34792752"><ele>10.8</ele><time>2022-10-31T14:07:34.0000000+00:00</time></trkpt><trkpt lat="39.28595058" lon="-0.3479375"><ele>10.8</ele><time>2022-10-31T14:07:35.0000000+00:00</time></trkpt><trkpt lat="39.28591948" lon="-0.34794571"><ele>10.8</ele><time>2022-10-31T14:07:36.0000000+00:00</time></trkpt><trkpt lat="39.28587011" lon="-0.3479587"><ele>10.8</ele><time>2022-10-31T14:07:37.0000000+00:00</time></trkpt><trkpt lat="39.285836" lon="-0.34796884"><ele>10.8</ele><time>2022-10-31T14:07:38.0000000+00:00</time></trkpt><trkpt lat="39.28579358" lon="-0.34798418"><ele>10.8</ele><time>2022-10-31T14:07:39.0000000+00:00</time></trkpt><trkpt lat="39.28575042" lon="-0.34799676"><ele>11.0</ele><time>2022-10-31T14:07:40.0000000+00:00</time></trkpt><trkpt lat="39.28570482" lon="-0.34800514"><ele>11.0</ele><time>2022-10-31T14:07:41.0000000+00:00</time></trkpt><trkpt lat="39.28565905" lon="-0.34801503"><ele>11.2</ele><time>2022-10-31T14:07:42.0000000+00:00</time></trkpt><trkpt lat="39.28561153" lon="-0.34802827"><ele>11.2</ele><time>2022-10-31T14:07:43.0000000+00:00</time></trkpt><trkpt lat="39.28556476" lon="-0.34804344"><ele>11.0</ele><time>2022-10-31T14:07:44.0000000+00:00</time></trkpt><trkpt lat="39.28551472" lon="-0.34806012"><ele>11.0</ele><time>2022-10-31T14:07:45.0000000+00:00</time></trkpt><trkpt lat="39.28546443" lon="-0.34807823"><ele>11.0</ele><time>2022-10-31T14:07:46.0000000+00:00</time></trkpt><trkpt lat="39.28541455" lon="-0.34809256"><ele>11.0</ele><time>2022-10-31T14:07:47.0000000+00:00</time></trkpt><trkpt lat="39.28536535" lon="-0.34810874"><ele>11.0</ele><time>2022-10-31T14:07:48.0000000+00:00</time></trkpt><trkpt lat="39.28531816" lon="-0.3481219"><ele>11.0</ele><time>2022-10-31T14:07:49.0000000+00:00</time></trkpt><trkpt lat="39.28526888" lon="-0.34813263"><ele>11.0</ele><time>2022-10-31T14:07:50.0000000+00:00</time></trkpt><trkpt lat="39.28521808" lon="-0.34814319"><ele>11.0</ele><time>2022-10-31T14:07:51.0000000+00:00</time></trkpt><trkpt lat="39.28516788" lon="-0.34815467"><ele>11.0</ele><time>2022-10-31T14:07:52.0000000+00:00</time></trkpt><trkpt lat="39.28511733" lon="-0.34816842"><ele>11.0</ele><time>2022-10-31T14:07:53.0000000+00:00</time></trkpt><trkpt lat="39.28506645" lon="-0.34818401"><ele>11.0</ele><time>2022-10-31T14:07:54.0000000+00:00</time></trkpt><trkpt lat="39.28501407" lon="-0.34819742"><ele>11.0</ele><time>2022-10-31T14:07:55.0000000+00:00</time></trkpt><trkpt lat="39.28496252" lon="-0.34820949"><ele>11.0</ele><time>2022-10-31T14:07:56.0000000+00:00</time></trkpt><trkpt lat="39.28490929" lon="-0.34822055"><ele>10.8</ele><time>2022-10-31T14:07:57.0000000+00:00</time></trkpt><trkpt lat="39.28484341" lon="-0.34823631"><ele>10.8</ele><time>2022-10-31T14:07:58.0000000+00:00</time></trkpt><trkpt lat="39.284801" lon="-0.34824628"><ele>10.8</ele><time>2022-10-31T14:07:59.0000000+00:00</time></trkpt><trkpt lat="39.28474342" lon="-0.34825978"><ele>10.8</ele><time>2022-10-31T14:08:00.0000000+00:00</time></trkpt><trkpt lat="39.28468726" lon="-0.34827646"><ele>11.0</ele><time>2022-10-31T14:08:01.0000000+00:00</time></trkpt><trkpt lat="39.28463328" lon="-0.34829356"><ele>11.2</ele><time>2022-10-31T14:08:02.0000000+00:00</time></trkpt><trkpt lat="39.2845803" lon="-0.34830647"><ele>11.2</ele><time>2022-10-31T14:08:03.0000000+00:00</time></trkpt><trkpt lat="39.28452582" lon="-0.34831594"><ele>11.2</ele><time>2022-10-31T14:08:04.0000000+00:00</time></trkpt><trkpt lat="39.28447251" lon="-0.34832935"><ele>11.2</ele><time>2022-10-31T14:08:05.0000000+00:00</time></trkpt><trkpt lat="39.28441862" lon="-0.34834209"><ele>11.2</ele><time>2022-10-31T14:08:06.0000000+00:00</time></trkpt><trkpt lat="39.28436405" lon="-0.34835667"><ele>11.2</ele><time>2022-10-31T14:08:07.0000000+00:00</time></trkpt><trkpt lat="39.28431141" lon="-0.34837386"><ele>11.2</ele><time>2022-10-31T14:08:08.0000000+00:00</time></trkpt><trkpt lat="39.28425802" lon="-0.3483923"><ele>11.2</ele><time>2022-10-31T14:08:09.0000000+00:00</time></trkpt><trkpt lat="39.28420278" lon="-0.34840847"><ele>11.2</ele><time>2022-10-31T14:08:10.0000000+00:00</time></trkpt><trkpt lat="39.28414612" lon="-0.3484208"><ele>11.2</ele><time>2022-10-31T14:08:11.0000000+00:00</time></trkpt><trkpt lat="39.28409021" lon="-0.34843043"><ele>11.2</ele><time>2022-10-31T14:08:12.0000000+00:00</time></trkpt><trkpt lat="39.28403213" lon="-0.34844359"><ele>11.2</ele><time>2022-10-31T14:08:13.0000000+00:00</time></trkpt><trkpt lat="39.2839732" lon="-0.34845818"><ele>11.2</ele><time>2022-10-31T14:08:14.0000000+00:00</time></trkpt><trkpt lat="39.28391411" lon="-0.34847193"><ele>11.2</ele><time>2022-10-31T14:08:15.0000000+00:00</time></trkpt><trkpt lat="39.28385493" lon="-0.34848701"><ele>11.2</ele><time>2022-10-31T14:08:16.0000000+00:00</time></trkpt><trkpt lat="39.28379458" lon="-0.34850168"><ele>11.2</ele><time>2022-10-31T14:08:17.0000000+00:00</time></trkpt><trkpt lat="39.2837318" lon="-0.34851459"><ele>11.4</ele><time>2022-10-31T14:08:18.0000000+00:00</time></trkpt><trkpt lat="39.28366919" lon="-0.34852825"><ele>11.4</ele><time>2022-10-31T14:08:19.0000000+00:00</time></trkpt><trkpt lat="39.28360851" lon="-0.34854418"><ele>11.4</ele><time>2022-10-31T14:08:20.0000000+00:00</time></trkpt><trkpt lat="39.28354774" lon="-0.34856111"><ele>11.6</ele><time>2022-10-31T14:08:21.0000000+00:00</time></trkpt><trkpt lat="39.28347641" lon="-0.34857578"><ele>11.6</ele><time>2022-10-31T14:08:22.0000000+00:00</time></trkpt><trkpt lat="39.28342821" lon="-0.34858567"><ele>11.6</ele><time>2022-10-31T14:08:23.0000000+00:00</time></trkpt><trkpt lat="39.28336845" lon="-0.34860159"><ele>11.6</ele><time>2022-10-31T14:08:24.0000000+00:00</time></trkpt><trkpt lat="39.28330936" lon="-0.34861744"><ele>11.4</ele><time>2022-10-31T14:08:25.0000000+00:00</time></trkpt><trkpt lat="39.28323358" lon="-0.34863328"><ele>11.6</ele><time>2022-10-31T14:08:26.0000000+00:00</time></trkpt><trkpt lat="39.28316988" lon="-0.34864484"><ele>11.4</ele><time>2022-10-31T14:08:27.0000000+00:00</time></trkpt><trkpt lat="39.28310668" lon="-0.34865968"><ele>11.4</ele><time>2022-10-31T14:08:28.0000000+00:00</time></trkpt><trkpt lat="39.28305958" lon="-0.34867569"><ele>11.4</ele><time>2022-10-31T14:08:29.0000000+00:00</time></trkpt><trkpt lat="39.28298866" lon="-0.34869966"><ele>11.2</ele><time>2022-10-31T14:08:30.0000000+00:00</time></trkpt><trkpt lat="39.28292731" lon="-0.34871458"><ele>11.2</ele><time>2022-10-31T14:08:31.0000000+00:00</time></trkpt><trkpt lat="39.28286444" lon="-0.34872816"><ele>11.2</ele><time>2022-10-31T14:08:32.0000000+00:00</time></trkpt><trkpt lat="39.282802" lon="-0.34874048"><ele>11.2</ele><time>2022-10-31T14:08:33.0000000+00:00</time></trkpt><trkpt lat="39.28274249" lon="-0.34875481"><ele>11.2</ele><time>2022-10-31T14:08:34.0000000+00:00</time></trkpt><trkpt lat="39.2826927" lon="-0.34876747"><ele>11.0</ele><time>2022-10-31T14:08:35.0000000+00:00</time></trkpt><trkpt lat="39.28261978" lon="-0.34878457"><ele>11.0</ele><time>2022-10-31T14:08:36.0000000+00:00</time></trkpt><trkpt lat="39.28257083" lon="-0.34879253"><ele>11.0</ele><time>2022-10-31T14:08:37.0000000+00:00</time></trkpt><trkpt lat="39.28250662" lon="-0.34880402"><ele>11.0</ele><time>2022-10-31T14:08:38.0000000+00:00</time></trkpt><trkpt lat="39.28243194" lon="-0.34882162"><ele>11.0</ele><time>2022-10-31T14:08:39.0000000+00:00</time></trkpt><trkpt lat="39.28236966" lon="-0.34883712"><ele>11.2</ele><time>2022-10-31T14:08:40.0000000+00:00</time></trkpt><trkpt lat="39.28231912" lon="-0.34884827"><ele>11.2</ele><time>2022-10-31T14:08:41.0000000+00:00</time></trkpt><trkpt lat="39.28225097" lon="-0.34886294"><ele>11.2</ele><time>2022-10-31T14:08:42.0000000+00:00</time></trkpt><trkpt lat="39.28218601" lon="-0.34888038"><ele>11.2</ele><time>2022-10-31T14:08:43.0000000+00:00</time></trkpt><trkpt lat="39.28212298" lon="-0.34889814"><ele>11.2</ele><time>2022-10-31T14:08:44.0000000+00:00</time></trkpt><trkpt lat="39.28205869" lon="-0.34891583"><ele>11.4</ele><time>2022-10-31T14:08:45.0000000+00:00</time></trkpt><trkpt lat="39.28198217" lon="-0.34893645"><ele>11.4</ele><time>2022-10-31T14:08:46.0000000+00:00</time></trkpt><trkpt lat="39.28193313" lon="-0.34895003"><ele>11.4</ele><time>2022-10-31T14:08:47.0000000+00:00</time></trkpt><trkpt lat="39.28185836" lon="-0.3489688"><ele>11.4</ele><time>2022-10-31T14:08:48.0000000+00:00</time></trkpt><trkpt lat="39.28179374" lon="-0.34898222"><ele>11.4</ele><time>2022-10-31T14:08:49.0000000+00:00</time></trkpt><trkpt lat="39.2817416" lon="-0.34899345"><ele>11.4</ele><time>2022-10-31T14:08:50.0000000+00:00</time></trkpt><trkpt lat="39.28166315" lon="-0.34901122"><ele>11.4</ele><time>2022-10-31T14:08:51.0000000+00:00</time></trkpt><trkpt lat="39.2816002" lon="-0.34902957"><ele>11.4</ele><time>2022-10-31T14:08:52.0000000+00:00</time></trkpt><trkpt lat="39.28155217" lon="-0.34904642"><ele>11.6</ele><time>2022-10-31T14:08:53.0000000+00:00</time></trkpt><trkpt lat="39.28147632" lon="-0.3490693"><ele>11.6</ele><time>2022-10-31T14:08:54.0000000+00:00</time></trkpt><trkpt lat="39.28141203" lon="-0.34908548"><ele>11.6</ele><time>2022-10-31T14:08:55.0000000+00:00</time></trkpt><trkpt lat="39.28134757" lon="-0.34910233"><ele>11.6</ele><time>2022-10-31T14:08:56.0000000+00:00</time></trkpt><trkpt lat="39.28128437" lon="-0.3491201"><ele>11.6</ele><time>2022-10-31T14:08:57.0000000+00:00</time></trkpt><trkpt lat="39.28122109" lon="-0.34913644"><ele>11.6</ele><time>2022-10-31T14:08:58.0000000+00:00</time></trkpt><trkpt lat="39.28116979" lon="-0.34915019"><ele>11.4</ele><time>2022-10-31T14:08:59.0000000+00:00</time></trkpt><trkpt lat="39.28108899" lon="-0.34917005"><ele>11.4</ele><time>2022-10-31T14:09:00.0000000+00:00</time></trkpt><trkpt lat="39.28102277" lon="-0.3491869"><ele>11.4</ele><time>2022-10-31T14:09:01.0000000+00:00</time></trkpt><trkpt lat="39.2809703" lon="-0.34919981"><ele>11.4</ele><time>2022-10-31T14:09:02.0000000+00:00</time></trkpt><trkpt lat="39.28090534" lon="-0.34921674"><ele>11.6</ele><time>2022-10-31T14:09:03.0000000+00:00</time></trkpt><trkpt lat="39.28084223" lon="-0.34923174"><ele>11.6</ele><time>2022-10-31T14:09:04.0000000+00:00</time></trkpt><trkpt lat="39.28077651" lon="-0.3492491"><ele>11.6</ele><time>2022-10-31T14:09:05.0000000+00:00</time></trkpt><trkpt lat="39.28069839" lon="-0.34926938"><ele>11.6</ele><time>2022-10-31T14:09:06.0000000+00:00</time></trkpt><trkpt lat="39.28063503" lon="-0.3492843"><ele>11.6</ele><time>2022-10-31T14:09:07.0000000+00:00</time></trkpt><trkpt lat="39.2805844" lon="-0.34929302"><ele>11.6</ele><time>2022-10-31T14:09:08.0000000+00:00</time></trkpt><trkpt lat="39.28050938" lon="-0.34931162"><ele>11.4</ele><time>2022-10-31T14:09:09.0000000+00:00</time></trkpt><trkpt lat="39.28044836" lon="-0.34932319"><ele>11.4</ele><time>2022-10-31T14:09:10.0000000+00:00</time></trkpt><trkpt lat="39.28040251" lon="-0.34933342"><ele>11.2</ele><time>2022-10-31T14:09:11.0000000+00:00</time></trkpt><trkpt lat="39.28033546" lon="-0.3493511"><ele>11.2</ele><time>2022-10-31T14:09:12.0000000+00:00</time></trkpt><trkpt lat="39.2802933" lon="-0.34936368"><ele>11.0</ele><time>2022-10-31T14:09:13.0000000+00:00</time></trkpt><trkpt lat="39.28023127" lon="-0.34938396"><ele>11.0</ele><time>2022-10-31T14:09:14.0000000+00:00</time></trkpt><trkpt lat="39.28018777" lon="-0.34939704"><ele>11.0</ele><time>2022-10-31T14:09:15.0000000+00:00</time></trkpt><trkpt lat="39.28012624" lon="-0.3494102"><ele>10.8</ele><time>2022-10-31T14:09:16.0000000+00:00</time></trkpt><trkpt lat="39.2800788" lon="-0.34942218"><ele>10.8</ele><time>2022-10-31T14:09:17.0000000+00:00</time></trkpt><trkpt lat="39.28004067" lon="-0.34942998"><ele>10.8</ele><time>2022-10-31T14:09:18.0000000+00:00</time></trkpt><trkpt lat="39.27998375" lon="-0.34944473"><ele>10.8</ele><time>2022-10-31T14:09:19.0000000+00:00</time></trkpt><trkpt lat="39.27993698" lon="-0.34946401"><ele>10.8</ele><time>2022-10-31T14:09:20.0000000+00:00</time></trkpt><trkpt lat="39.27990044" lon="-0.34948044"><ele>10.8</ele><time>2022-10-31T14:09:21.0000000+00:00</time></trkpt><trkpt lat="39.27984537" lon="-0.34950466"><ele>10.8</ele><time>2022-10-31T14:09:22.0000000+00:00</time></trkpt><trkpt lat="39.27979901" lon="-0.34952033"><ele>10.8</ele><time>2022-10-31T14:09:23.0000000+00:00</time></trkpt><trkpt lat="39.27976113" lon="-0.34953316"><ele>10.8</ele><time>2022-10-31T14:09:24.0000000+00:00</time></trkpt><trkpt lat="39.27971159" lon="-0.34955093"><ele>10.8</ele><time>2022-10-31T14:09:25.0000000+00:00</time></trkpt><trkpt lat="39.27966021" lon="-0.34956543"><ele>11.0</ele><time>2022-10-31T14:09:26.0000000+00:00</time></trkpt><trkpt lat="39.27959575" lon="-0.34958395"><ele>11.0</ele><time>2022-10-31T14:09:27.0000000+00:00</time></trkpt><trkpt lat="39.27954085" lon="-0.34960181"><ele>11.0</ele><time>2022-10-31T14:09:28.0000000+00:00</time></trkpt><trkpt lat="39.27948553" lon="-0.3496215"><ele>11.2</ele><time>2022-10-31T14:09:29.0000000+00:00</time></trkpt><trkpt lat="39.27943993" lon="-0.34963466"><ele>11.2</ele><time>2022-10-31T14:09:30.0000000+00:00</time></trkpt><trkpt lat="39.27936953" lon="-0.34965679"><ele>11.2</ele><time>2022-10-31T14:09:31.0000000+00:00</time></trkpt><trkpt lat="39.2793101" lon="-0.34967607"><ele>11.2</ele><time>2022-10-31T14:09:32.0000000+00:00</time></trkpt><trkpt lat="39.27926282" lon="-0.34968738"><ele>11.2</ele><time>2022-10-31T14:09:33.0000000+00:00</time></trkpt><trkpt lat="39.27919133" lon="-0.34970608"><ele>11.2</ele><time>2022-10-31T14:09:34.0000000+00:00</time></trkpt><trkpt lat="39.27912997" lon="-0.34972427"><ele>11.2</ele><time>2022-10-31T14:09:35.0000000+00:00</time></trkpt><trkpt lat="39.27906878" lon="-0.34974539"><ele>11.2</ele><time>2022-10-31T14:09:36.0000000+00:00</time></trkpt><trkpt lat="39.27900818" lon="-0.34976743"><ele>11.4</ele><time>2022-10-31T14:09:37.0000000+00:00</time></trkpt><trkpt lat="39.27894783" lon="-0.34979057"><ele>11.4</ele><time>2022-10-31T14:09:38.0000000+00:00</time></trkpt><trkpt lat="39.27888706" lon="-0.34981295"><ele>11.4</ele><time>2022-10-31T14:09:39.0000000+00:00</time></trkpt><trkpt lat="39.27882713" lon="-0.34983591"><ele>11.4</ele><time>2022-10-31T14:09:40.0000000+00:00</time></trkpt><trkpt lat="39.27876603" lon="-0.3498624"><ele>11.4</ele><time>2022-10-31T14:09:41.0000000+00:00</time></trkpt><trkpt lat="39.27871582" lon="-0.34988461"><ele>11.4</ele><time>2022-10-31T14:09:42.0000000+00:00</time></trkpt><trkpt lat="39.27864131" lon="-0.34991403"><ele>11.4</ele><time>2022-10-31T14:09:43.0000000+00:00</time></trkpt><trkpt lat="39.27857936" lon="-0.34994035"><ele>11.4</ele><time>2022-10-31T14:09:44.0000000+00:00</time></trkpt><trkpt lat="39.27853167" lon="-0.34996407"><ele>11.4</ele><time>2022-10-31T14:09:45.0000000+00:00</time></trkpt><trkpt lat="39.27847115" lon="-0.3499924"><ele>11.6</ele><time>2022-10-31T14:09:46.0000000+00:00</time></trkpt><trkpt lat="39.27839815" lon="-0.35002568"><ele>11.6</ele><time>2022-10-31T14:09:47.0000000+00:00</time></trkpt><trkpt lat="39.27835154" lon="-0.35004856"><ele>11.6</ele><time>2022-10-31T14:09:48.0000000+00:00</time></trkpt><trkpt lat="39.2782865" lon="-0.3500805"><ele>11.6</ele><time>2022-10-31T14:09:49.0000000+00:00</time></trkpt><trkpt lat="39.27824006" lon="-0.35009944"><ele>11.6</ele><time>2022-10-31T14:09:50.0000000+00:00</time></trkpt><trkpt lat="39.27819966" lon="-0.35011025"><ele>11.6</ele><time>2022-10-31T14:09:51.0000000+00:00</time></trkpt><trkpt lat="39.27816656" lon="-0.35012215"><ele>11.4</ele><time>2022-10-31T14:09:52.0000000+00:00</time></trkpt><trkpt lat="39.27814367" lon="-0.35013288"><ele>11.4</ele><time>2022-10-31T14:09:53.0000000+00:00</time></trkpt><trkpt lat="39.27813085" lon="-0.35013791"><ele>11.4</ele><time>2022-10-31T14:09:54.0000000+00:00</time></trkpt><trkpt lat="39.27811425" lon="-0.35014353"><ele>11.4</ele><time>2022-10-31T14:09:55.0000000+00:00</time></trkpt><trkpt lat="39.27809833" lon="-0.35015149"><ele>11.4</ele><time>2022-10-31T14:09:56.0000000+00:00</time></trkpt><trkpt lat="39.2780845" lon="-0.35015895"><ele>11.4</ele><time>2022-10-31T14:09:57.0000000+00:00</time></trkpt><trkpt lat="39.27805432" lon="-0.35016633"><ele>11.4</ele><time>2022-10-31T14:09:58.0000000+00:00</time></trkpt><trkpt lat="39.27801769" lon="-0.35017588"><ele>11.4</ele><time>2022-10-31T14:09:59.0000000+00:00</time></trkpt><trkpt lat="39.27798693" lon="-0.35018929"><ele>11.2</ele><time>2022-10-31T14:10:00.0000000+00:00</time></trkpt><trkpt lat="39.27793882" lon="-0.35020656"><ele>11.0</ele><time>2022-10-31T14:10:01.0000000+00:00</time></trkpt><trkpt lat="39.27789842" lon="-0.35022316"><ele>11.0</ele><time>2022-10-31T14:10:02.0000000+00:00</time></trkpt><trkpt lat="39.27785466" lon="-0.3502416"><ele>11.0</ele><time>2022-10-31T14:10:03.0000000+00:00</time></trkpt><trkpt lat="39.27781829" lon="-0.35025409"><ele>10.8</ele><time>2022-10-31T14:10:04.0000000+00:00</time></trkpt><trkpt lat="39.27776498" lon="-0.35027152"><ele>10.8</ele><time>2022-10-31T14:10:05.0000000+00:00</time></trkpt><trkpt lat="39.27772106" lon="-0.35028359"><ele>10.8</ele><time>2022-10-31T14:10:06.0000000+00:00</time></trkpt><trkpt lat="39.27768745" lon="-0.35029239"><ele>10.8</ele><time>2022-10-31T14:10:07.0000000+00:00</time></trkpt><trkpt lat="39.27764579" lon="-0.35030379"><ele>10.6</ele><time>2022-10-31T14:10:08.0000000+00:00</time></trkpt><trkpt lat="39.27760472" lon="-0.35031552"><ele>10.6</ele><time>2022-10-31T14:10:09.0000000+00:00</time></trkpt><trkpt lat="39.27756465" lon="-0.35032416"><ele>10.8</ele><time>2022-10-31T14:10:10.0000000+00:00</time></trkpt><trkpt lat="39.27751796" lon="-0.35033522"><ele>10.8</ele><time>2022-10-31T14:10:11.0000000+00:00</time></trkpt><trkpt lat="39.2774774" lon="-0.35034712"><ele>10.8</ele><time>2022-10-31T14:10:12.0000000+00:00</time></trkpt><trkpt lat="39.27744278" lon="-0.35035718"><ele>10.8</ele><time>2022-10-31T14:10:13.0000000+00:00</time></trkpt><trkpt lat="39.27739911" lon="-0.35036934"><ele>10.8</ele><time>2022-10-31T14:10:14.0000000+00:00</time></trkpt><trkpt lat="39.27734312" lon="-0.35038074"><ele>10.8</ele><time>2022-10-31T14:10:15.0000000+00:00</time></trkpt><trkpt lat="39.27730816" lon="-0.3503882"><ele>10.8</ele><time>2022-10-31T14:10:16.0000000+00:00</time></trkpt><trkpt lat="39.27725293" lon="-0.35040253"><ele>11.0</ele><time>2022-10-31T14:10:17.0000000+00:00</time></trkpt><trkpt lat="39.27720549" lon="-0.35041393"><ele>11.0</ele><time>2022-10-31T14:10:18.0000000+00:00</time></trkpt><trkpt lat="39.27716676" lon="-0.35042415"><ele>11.0</ele><time>2022-10-31T14:10:19.0000000+00:00</time></trkpt><trkpt lat="39.27710683" lon="-0.35044016"><ele>11.0</ele><time>2022-10-31T14:10:20.0000000+00:00</time></trkpt><trkpt lat="39.27705746" lon="-0.35045123"><ele>11.0</ele><time>2022-10-31T14:10:21.0000000+00:00</time></trkpt><trkpt lat="39.27701765" lon="-0.35045701"><ele>11.0</ele><time>2022-10-31T14:10:22.0000000+00:00</time></trkpt><trkpt lat="39.27695654" lon="-0.35046858"><ele>10.8</ele><time>2022-10-31T14:10:23.0000000+00:00</time></trkpt><trkpt lat="39.27690374" lon="-0.35047696"><ele>10.8</ele><time>2022-10-31T14:10:24.0000000+00:00</time></trkpt><trkpt lat="39.27686267" lon="-0.35048174"><ele>10.8</ele><time>2022-10-31T14:10:25.0000000+00:00</time></trkpt><trkpt lat="39.2767998" lon="-0.35048995"><ele>10.8</ele><time>2022-10-31T14:10:26.0000000+00:00</time></trkpt><trkpt lat="39.27674507" lon="-0.35049582"><ele>11.0</ele><time>2022-10-31T14:10:27.0000000+00:00</time></trkpt><trkpt lat="39.27670199" lon="-0.3504985"><ele>11.0</ele><time>2022-10-31T14:10:28.0000000+00:00</time></trkpt><trkpt lat="39.27664801" lon="-0.35049926"><ele>11.0</ele><time>2022-10-31T14:10:29.0000000+00:00</time></trkpt><trkpt lat="39.27659025" lon="-0.35049423"><ele>11.0</ele><time>2022-10-31T14:10:30.0000000+00:00</time></trkpt><trkpt lat="39.27653326" lon="-0.35048937"><ele>11.0</ele><time>2022-10-31T14:10:31.0000000+00:00</time></trkpt><trkpt lat="39.27647727" lon="-0.35048534"><ele>11.2</ele><time>2022-10-31T14:10:32.0000000+00:00</time></trkpt><trkpt lat="39.27640946" lon="-0.35048056"><ele>11.2</ele><time>2022-10-31T14:10:33.0000000+00:00</time></trkpt><trkpt lat="39.27636277" lon="-0.35047637"><ele>11.2</ele><time>2022-10-31T14:10:34.0000000+00:00</time></trkpt><trkpt lat="39.27629429" lon="-0.35047084"><ele>11.4</ele><time>2022-10-31T14:10:35.0000000+00:00</time></trkpt><trkpt lat="39.27623805" lon="-0.35046556"><ele>11.4</ele><time>2022-10-31T14:10:36.0000000+00:00</time></trkpt><trkpt lat="39.27619362" lon="-0.35045919"><ele>11.4</ele><time>2022-10-31T14:10:37.0000000+00:00</time></trkpt><trkpt lat="39.2761373" lon="-0.35045357"><ele>11.4</ele><time>2022-10-31T14:10:38.0000000+00:00</time></trkpt><trkpt lat="39.27606697" lon="-0.35044813"><ele>11.4</ele><time>2022-10-31T14:10:39.0000000+00:00</time></trkpt><trkpt lat="39.27602171" lon="-0.35044964"><ele>11.4</ele><time>2022-10-31T14:10:40.0000000+00:00</time></trkpt><trkpt lat="39.27595331" lon="-0.35045911"><ele>11.4</ele><time>2022-10-31T14:10:41.0000000+00:00</time></trkpt><trkpt lat="39.27589598" lon="-0.35047554"><ele>11.4</ele><time>2022-10-31T14:10:42.0000000+00:00</time></trkpt><trkpt lat="39.27583949" lon="-0.35050076"><ele>11.4</ele><time>2022-10-31T14:10:43.0000000+00:00</time></trkpt><trkpt lat="39.27578576" lon="-0.35053639"><ele>11.6</ele><time>2022-10-31T14:10:44.0000000+00:00</time></trkpt><trkpt lat="39.2757322" lon="-0.35057964"><ele>11.6</ele><time>2022-10-31T14:10:45.0000000+00:00</time></trkpt><trkpt lat="39.27569188" lon="-0.35061744"><ele>11.6</ele><time>2022-10-31T14:10:46.0000000+00:00</time></trkpt><trkpt lat="39.27563774" lon="-0.35067796"><ele>11.6</ele><time>2022-10-31T14:10:47.0000000+00:00</time></trkpt><trkpt lat="39.27559574" lon="-0.35073445"><ele>11.6</ele><time>2022-10-31T14:10:48.0000000+00:00</time></trkpt><trkpt lat="39.27555224" lon="-0.3507891"><ele>11.6</ele><time>2022-10-31T14:10:49.0000000+00:00</time></trkpt><trkpt lat="39.27551821" lon="-0.35083193"><ele>11.4</ele><time>2022-10-31T14:10:50.0000000+00:00</time></trkpt><trkpt lat="39.27547789" lon="-0.3508829"><ele>11.4</ele><time>2022-10-31T14:10:51.0000000+00:00</time></trkpt><trkpt lat="39.27543858" lon="-0.35093528"><ele>11.4</ele><time>2022-10-31T14:10:52.0000000+00:00</time></trkpt><trkpt lat="39.27539039" lon="-0.35100016"><ele>11.4</ele><time>2022-10-31T14:10:53.0000000+00:00</time></trkpt><trkpt lat="39.27535719" lon="-0.35104324"><ele>11.2</ele><time>2022-10-31T14:10:54.0000000+00:00</time></trkpt><trkpt lat="39.27530338" lon="-0.35110652"><ele>11.2</ele><time>2022-10-31T14:10:55.0000000+00:00</time></trkpt><trkpt lat="39.27527002" lon="-0.35114944"><ele>11.0</ele><time>2022-10-31T14:10:56.0000000+00:00</time></trkpt><trkpt lat="39.27522015" lon="-0.35121532"><ele>11.0</ele><time>2022-10-31T14:10:57.0000000+00:00</time></trkpt><trkpt lat="39.27518042" lon="-0.35127098"><ele>11.0</ele><time>2022-10-31T14:10:58.0000000+00:00</time></trkpt><trkpt lat="39.27515066" lon="-0.35131708"><ele>11.0</ele><time>2022-10-31T14:10:59.0000000+00:00</time></trkpt><trkpt lat="39.27510666" lon="-0.35138522"><ele>11.2</ele><time>2022-10-31T14:11:00.0000000+00:00</time></trkpt><trkpt lat="39.27507212" lon="-0.35144297"><ele>11.2</ele><time>2022-10-31T14:11:01.0000000+00:00</time></trkpt><trkpt lat="39.27504446" lon="-0.3514884"><ele>11.2</ele><time>2022-10-31T14:11:02.0000000+00:00</time></trkpt><trkpt lat="39.27500884" lon="-0.35154373"><ele>11.4</ele><time>2022-10-31T14:11:03.0000000+00:00</time></trkpt><trkpt lat="39.2749707" lon="-0.35159972"><ele>11.4</ele><time>2022-10-31T14:11:04.0000000+00:00</time></trkpt><trkpt lat="39.27492846" lon="-0.3516542"><ele>11.2</ele><time>2022-10-31T14:11:05.0000000+00:00</time></trkpt><trkpt lat="39.27488194" lon="-0.35172016"><ele>11.2</ele><time>2022-10-31T14:11:06.0000000+00:00</time></trkpt><trkpt lat="39.27484221" lon="-0.35177331"><ele>11.4</ele><time>2022-10-31T14:11:07.0000000+00:00</time></trkpt><trkpt lat="39.27480617" lon="-0.35181186"><ele>11.4</ele><time>2022-10-31T14:11:08.0000000+00:00</time></trkpt><trkpt lat="39.27475261" lon="-0.35186584"><ele>11.4</ele><time>2022-10-31T14:11:09.0000000+00:00</time></trkpt><trkpt lat="39.27470542" lon="-0.35190876"><ele>11.4</ele><time>2022-10-31T14:11:10.0000000+00:00</time></trkpt><trkpt lat="39.27466912" lon="-0.35194371"><ele>11.4</ele><time>2022-10-31T14:11:11.0000000+00:00</time></trkpt><trkpt lat="39.27462478" lon="-0.35198914"><ele>11.4</ele><time>2022-10-31T14:11:12.0000000+00:00</time></trkpt><trkpt lat="39.2745791" lon="-0.35203683"><ele>11.4</ele><time>2022-10-31T14:11:13.0000000+00:00</time></trkpt><trkpt lat="39.27453769" lon="-0.35208704"><ele>11.4</ele><time>2022-10-31T14:11:14.0000000+00:00</time></trkpt><trkpt lat="39.27449092" lon="-0.35214949"><ele>11.4</ele><time>2022-10-31T14:11:15.0000000+00:00</time></trkpt><trkpt lat="39.27446335" lon="-0.35219609"><ele>11.4</ele><time>2022-10-31T14:11:16.0000000+00:00</time></trkpt><trkpt lat="39.27443074" lon="-0.35225711"><ele>11.4</ele><time>2022-10-31T14:11:17.0000000+00:00</time></trkpt><trkpt lat="39.27439973" lon="-0.35233841"><ele>11.2</ele><time>2022-10-31T14:11:18.0000000+00:00</time></trkpt><trkpt lat="39.27437911" lon="-0.35240941"><ele>11.4</ele><time>2022-10-31T14:11:19.0000000+00:00</time></trkpt><trkpt lat="39.27436704" lon="-0.35246674"><ele>11.4</ele><time>2022-10-31T14:11:20.0000000+00:00</time></trkpt><trkpt lat="39.27434877" lon="-0.35255835"><ele>11.4</ele><time>2022-10-31T14:11:21.0000000+00:00</time></trkpt><trkpt lat="39.27434332" lon="-0.35261652"><ele>11.4</ele><time>2022-10-31T14:11:22.0000000+00:00</time></trkpt><trkpt lat="39.27433427" lon="-0.35268953"><ele>11.4</ele><time>2022-10-31T14:11:23.0000000+00:00</time></trkpt><trkpt lat="39.27432513" lon="-0.35277871"><ele>11.4</ele><time>2022-10-31T14:11:24.0000000+00:00</time></trkpt><trkpt lat="39.27431507" lon="-0.35285248"><ele>11.4</ele><time>2022-10-31T14:11:25.0000000+00:00</time></trkpt><trkpt lat="39.27430744" lon="-0.3529083"><ele>11.4</ele><time>2022-10-31T14:11:26.0000000+00:00</time></trkpt><trkpt lat="39.27429345" lon="-0.35299329"><ele>11.4</ele><time>2022-10-31T14:11:27.0000000+00:00</time></trkpt><trkpt lat="39.27427425" lon="-0.35305808"><ele>11.6</ele><time>2022-10-31T14:11:28.0000000+00:00</time></trkpt><trkpt lat="39.27425288" lon="-0.35310737"><ele>11.6</ele><time>2022-10-31T14:11:29.0000000+00:00</time></trkpt><trkpt lat="39.27421633" lon="-0.35316143"><ele>11.6</ele><time>2022-10-31T14:11:30.0000000+00:00</time></trkpt><trkpt lat="39.27416587" lon="-0.353216"><ele>11.6</ele><time>2022-10-31T14:11:31.0000000+00:00</time></trkpt><trkpt lat="39.27412639" lon="-0.35324534"><ele>11.6</ele><time>2022-10-31T14:11:32.0000000+00:00</time></trkpt><trkpt lat="39.27407552" lon="-0.35327576"><ele>11.6</ele><time>2022-10-31T14:11:33.0000000+00:00</time></trkpt><trkpt lat="39.27402321" lon="-0.35330141"><ele>11.6</ele><time>2022-10-31T14:11:34.0000000+00:00</time></trkpt><trkpt lat="39.2739699" lon="-0.35332044"><ele>11.6</ele><time>2022-10-31T14:11:35.0000000+00:00</time></trkpt><trkpt lat="39.27391592" lon="-0.35333016"><ele>11.6</ele><time>2022-10-31T14:11:36.0000000+00:00</time></trkpt><trkpt lat="39.27385055" lon="-0.35334483"><ele>11.4</ele><time>2022-10-31T14:11:37.0000000+00:00</time></trkpt><trkpt lat="39.27380612" lon="-0.35335539"><ele>11.4</ele><time>2022-10-31T14:11:38.0000000+00:00</time></trkpt><trkpt lat="39.27374921" lon="-0.35336645"><ele>11.4</ele><time>2022-10-31T14:11:39.0000000+00:00</time></trkpt><trkpt lat="39.27368534" lon="-0.35337693"><ele>11.4</ele><time>2022-10-31T14:11:40.0000000+00:00</time></trkpt><trkpt lat="39.27363195" lon="-0.3533854"><ele>11.4</ele><time>2022-10-31T14:11:41.0000000+00:00</time></trkpt><trkpt lat="39.27358978" lon="-0.35339101"><ele>11.4</ele><time>2022-10-31T14:11:42.0000000+00:00</time></trkpt><trkpt lat="39.27352617" lon="-0.35340065"><ele>11.4</ele><time>2022-10-31T14:11:43.0000000+00:00</time></trkpt><trkpt lat="39.27347227" lon="-0.35340786"><ele>11.4</ele><time>2022-10-31T14:11:44.0000000+00:00</time></trkpt><trkpt lat="39.27342776" lon="-0.3534118"><ele>11.6</ele><time>2022-10-31T14:11:45.0000000+00:00</time></trkpt><trkpt lat="39.27336004" lon="-0.3534149"><ele>11.6</ele><time>2022-10-31T14:11:46.0000000+00:00</time></trkpt><trkpt lat="39.27330514" lon="-0.3534175"><ele>11.8</ele><time>2022-10-31T14:11:47.0000000+00:00</time></trkpt><trkpt lat="39.27325971" lon="-0.35341767"><ele>11.8</ele><time>2022-10-31T14:11:48.0000000+00:00</time></trkpt><trkpt lat="39.27319542" lon="-0.35342169"><ele>11.8</ele><time>2022-10-31T14:11:49.0000000+00:00</time></trkpt><trkpt lat="39.27313968" lon="-0.3534258"><ele>11.8</ele><time>2022-10-31T14:11:50.0000000+00:00</time></trkpt><trkpt lat="39.27309576" lon="-0.35343024"><ele>11.8</ele><time>2022-10-31T14:11:51.0000000+00:00</time></trkpt><trkpt lat="39.27303189" lon="-0.3534351"><ele>11.6</ele><time>2022-10-31T14:11:52.0000000+00:00</time></trkpt><trkpt lat="39.27297866" lon="-0.3534398"><ele>11.6</ele><time>2022-10-31T14:11:53.0000000+00:00</time></trkpt><trkpt lat="39.27293633" lon="-0.3534429"><ele>11.6</ele><time>2022-10-31T14:11:54.0000000+00:00</time></trkpt><trkpt lat="39.27288177" lon="-0.35344658"><ele>11.6</ele><time>2022-10-31T14:11:55.0000000+00:00</time></trkpt><trkpt lat="39.27282753" lon="-0.35345178"><ele>11.6</ele><time>2022-10-31T14:11:56.0000000+00:00</time></trkpt><trkpt lat="39.27277481" lon="-0.35345413"><ele>11.6</ele><time>2022-10-31T14:11:57.0000000+00:00</time></trkpt><trkpt lat="39.27272008" lon="-0.35345572"><ele>11.8</ele><time>2022-10-31T14:11:58.0000000+00:00</time></trkpt><trkpt lat="39.27265403" lon="-0.35346125"><ele>11.8</ele><time>2022-10-31T14:11:59.0000000+00:00</time></trkpt><trkpt lat="39.27259854" lon="-0.35346561"><ele>11.8</ele><time>2022-10-31T14:12:00.0000000+00:00</time></trkpt><trkpt lat="39.27254465" lon="-0.35347148"><ele>11.8</ele><time>2022-10-31T14:12:01.0000000+00:00</time></trkpt><trkpt lat="39.27248798" lon="-0.3534776"><ele>11.8</ele><time>2022-10-31T14:12:02.0000000+00:00</time></trkpt><trkpt lat="39.27244532" lon="-0.35348464"><ele>11.8</ele><time>2022-10-31T14:12:03.0000000+00:00</time></trkpt><trkpt lat="39.27239126" lon="-0.35349235"><ele>11.8</ele><time>2022-10-31T14:12:04.0000000+00:00</time></trkpt><trkpt lat="39.27232638" lon="-0.35350073"><ele>11.8</ele><time>2022-10-31T14:12:05.0000000+00:00</time></trkpt><trkpt lat="39.27227173" lon="-0.35350937"><ele>11.8</ele><time>2022-10-31T14:12:06.0000000+00:00</time></trkpt><trkpt lat="39.2722201" lon="-0.35351775"><ele>11.8</ele><time>2022-10-31T14:12:07.0000000+00:00</time></trkpt><trkpt lat="39.27216813" lon="-0.35352387"><ele>11.8</ele><time>2022-10-31T14:12:08.0000000+00:00</time></trkpt><trkpt lat="39.27212421" lon="-0.35352596"><ele>11.8</ele><time>2022-10-31T14:12:09.0000000+00:00</time></trkpt><trkpt lat="39.27205841" lon="-0.35353459"><ele>11.6</ele><time>2022-10-31T14:12:10.0000000+00:00</time></trkpt><trkpt lat="39.27200317" lon="-0.3535434"><ele>11.6</ele><time>2022-10-31T14:12:11.0000000+00:00</time></trkpt><trkpt lat="39.27195909" lon="-0.35354784"><ele>11.6</ele><time>2022-10-31T14:12:12.0000000+00:00</time></trkpt><trkpt lat="39.27190485" lon="-0.35354809"><ele>11.6</ele><time>2022-10-31T14:12:13.0000000+00:00</time></trkpt><trkpt lat="39.27184945" lon="-0.35355027"><ele>11.6</ele><time>2022-10-31T14:12:14.0000000+00:00</time></trkpt><trkpt lat="39.27179396" lon="-0.35355505"><ele>11.4</ele><time>2022-10-31T14:12:15.0000000+00:00</time></trkpt><trkpt lat="39.27173906" lon="-0.35356016"><ele>11.4</ele><time>2022-10-31T14:12:16.0000000+00:00</time></trkpt><trkpt lat="39.27168315" lon="-0.35356544"><ele>11.6</ele><time>2022-10-31T14:12:17.0000000+00:00</time></trkpt><trkpt lat="39.27162641" lon="-0.35357315"><ele>11.6</ele><time>2022-10-31T14:12:18.0000000+00:00</time></trkpt><trkpt lat="39.27155692" lon="-0.35357977"><ele>11.6</ele><time>2022-10-31T14:12:19.0000000+00:00</time></trkpt><trkpt lat="39.27151451" lon="-0.35358388"><ele>11.6</ele><time>2022-10-31T14:12:20.0000000+00:00</time></trkpt><trkpt lat="39.27146112" lon="-0.35359142"><ele>11.8</ele><time>2022-10-31T14:12:21.0000000+00:00</time></trkpt><trkpt lat="39.2714094" lon="-0.35359612"><ele>11.8</ele><time>2022-10-31T14:12:22.0000000+00:00</time></trkpt><trkpt lat="39.2713571" lon="-0.353604"><ele>11.8</ele><time>2022-10-31T14:12:23.0000000+00:00</time></trkpt><trkpt lat="39.27130077" lon="-0.35361087"><ele>11.8</ele><time>2022-10-31T14:12:24.0000000+00:00</time></trkpt><trkpt lat="39.27123455" lon="-0.35361816"><ele>11.8</ele><time>2022-10-31T14:12:25.0000000+00:00</time></trkpt><trkpt lat="39.27118041" lon="-0.35362436"><ele>11.6</ele><time>2022-10-31T14:12:26.0000000+00:00</time></trkpt><trkpt lat="39.27113598" lon="-0.35363006"><ele>11.6</ele><time>2022-10-31T14:12:27.0000000+00:00</time></trkpt><trkpt lat="39.27107387" lon="-0.35363736"><ele>11.6</ele><time>2022-10-31T14:12:28.0000000+00:00</time></trkpt><trkpt lat="39.27102082" lon="-0.35364398"><ele>11.4</ele><time>2022-10-31T14:12:29.0000000+00:00</time></trkpt><trkpt lat="39.27097807" lon="-0.35364976"><ele>11.6</ele><time>2022-10-31T14:12:30.0000000+00:00</time></trkpt><trkpt lat="39.27091277" lon="-0.35365487"><ele>11.6</ele><time>2022-10-31T14:12:31.0000000+00:00</time></trkpt><trkpt lat="39.27085863" lon="-0.35365689"><ele>11.6</ele><time>2022-10-31T14:12:32.0000000+00:00</time></trkpt><trkpt lat="39.27081437" lon="-0.35365915"><ele>11.8</ele><time>2022-10-31T14:12:33.0000000+00:00</time></trkpt><trkpt lat="39.27074958" lon="-0.35366426"><ele>11.8</ele><time>2022-10-31T14:12:34.0000000+00:00</time></trkpt><trkpt lat="39.2706956" lon="-0.35366879"><ele>11.8</ele><time>2022-10-31T14:12:35.0000000+00:00</time></trkpt><trkpt lat="39.27065059" lon="-0.3536703"><ele>11.8</ele><time>2022-10-31T14:12:36.0000000+00:00</time></trkpt><trkpt lat="39.27058336" lon="-0.35367214"><ele>11.8</ele><time>2022-10-31T14:12:37.0000000+00:00</time></trkpt><trkpt lat="39.27054036" lon="-0.3536765"><ele>11.6</ele><time>2022-10-31T14:12:38.0000000+00:00</time></trkpt><trkpt lat="39.27048672" lon="-0.35368212"><ele>11.6</ele><time>2022-10-31T14:12:39.0000000+00:00</time></trkpt><trkpt lat="39.27043282" lon="-0.35368195"><ele>11.6</ele><time>2022-10-31T14:12:40.0000000+00:00</time></trkpt><trkpt lat="39.27037147" lon="-0.35368455"><ele>11.6</ele><time>2022-10-31T14:12:41.0000000+00:00</time></trkpt><trkpt lat="39.2703216" lon="-0.35369108"><ele>11.8</ele><time>2022-10-31T14:12:42.0000000+00:00</time></trkpt><trkpt lat="39.2702786" lon="-0.35369544"><ele>11.8</ele><time>2022-10-31T14:12:43.0000000+00:00</time></trkpt><trkpt lat="39.27021263" lon="-0.35370181"><ele>11.8</ele><time>2022-10-31T14:12:44.0000000+00:00</time></trkpt><trkpt lat="39.27016033" lon="-0.35370609"><ele>11.8</ele><time>2022-10-31T14:12:45.0000000+00:00</time></trkpt><trkpt lat="39.27011632" lon="-0.35370793"><ele>11.8</ele><time>2022-10-31T14:12:46.0000000+00:00</time></trkpt><trkpt lat="39.27004919" lon="-0.35371078"><ele>11.8</ele><time>2022-10-31T14:12:47.0000000+00:00</time></trkpt><trkpt lat="39.26999236" lon="-0.35371598"><ele>11.8</ele><time>2022-10-31T14:12:48.0000000+00:00</time></trkpt><trkpt lat="39.26993712" lon="-0.35372193"><ele>11.6</ele><time>2022-10-31T14:12:49.0000000+00:00</time></trkpt><trkpt lat="39.26988188" lon="-0.35372595"><ele>11.6</ele><time>2022-10-31T14:12:50.0000000+00:00</time></trkpt><trkpt lat="39.26982732" lon="-0.35373073"><ele>11.6</ele><time>2022-10-31T14:12:51.0000000+00:00</time></trkpt><trkpt lat="39.26978507" lon="-0.35373392"><ele>11.6</ele><time>2022-10-31T14:12:52.0000000+00:00</time></trkpt><trkpt lat="39.26971743" lon="-0.35373953"><ele>11.4</ele><time>2022-10-31T14:12:53.0000000+00:00</time></trkpt><trkpt lat="39.26967066" lon="-0.35374339"><ele>11.4</ele><time>2022-10-31T14:12:54.0000000+00:00</time></trkpt><trkpt lat="39.26961358" lon="-0.35374808"><ele>11.4</ele><time>2022-10-31T14:12:55.0000000+00:00</time></trkpt><trkpt lat="39.26955926" lon="-0.35375554"><ele>11.4</ele><time>2022-10-31T14:12:56.0000000+00:00</time></trkpt><trkpt lat="39.26949573" lon="-0.35376652"><ele>11.4</ele><time>2022-10-31T14:12:57.0000000+00:00</time></trkpt><trkpt lat="39.26945424" lon="-0.35377331"><ele>11.4</ele><time>2022-10-31T14:12:58.0000000+00:00</time></trkpt><trkpt lat="39.26939146" lon="-0.35378731"><ele>11.4</ele><time>2022-10-31T14:12:59.0000000+00:00</time></trkpt><trkpt lat="39.26935047" lon="-0.35379485"><ele>11.4</ele><time>2022-10-31T14:13:00.0000000+00:00</time></trkpt><trkpt lat="39.26929808" lon="-0.3538024"><ele>11.4</ele><time>2022-10-31T14:13:01.0000000+00:00</time></trkpt><trkpt lat="39.26923614" lon="-0.35381313"><ele>11.6</ele><time>2022-10-31T14:13:02.0000000+00:00</time></trkpt><trkpt lat="39.26918417" lon="-0.35382"><ele>11.6</ele><time>2022-10-31T14:13:03.0000000+00:00</time></trkpt><trkpt lat="39.26914319" lon="-0.35382478"><ele>11.6</ele><time>2022-10-31T14:13:04.0000000+00:00</time></trkpt><trkpt lat="39.2690903" lon="-0.35382452"><ele>11.6</ele><time>2022-10-31T14:13:05.0000000+00:00</time></trkpt><trkpt lat="39.2690281" lon="-0.35381614"><ele>11.8</ele><time>2022-10-31T14:13:06.0000000+00:00</time></trkpt><trkpt lat="39.26898778" lon="-0.35380399"><ele>11.8</ele><time>2022-10-31T14:13:07.0000000+00:00</time></trkpt><trkpt lat="39.26892811" lon="-0.3537837"><ele>11.8</ele><time>2022-10-31T14:13:08.0000000+00:00</time></trkpt><trkpt lat="39.26888201" lon="-0.35375588"><ele>12.0</ele><time>2022-10-31T14:13:09.0000000+00:00</time></trkpt><trkpt lat="39.26884378" lon="-0.35372562"><ele>12.0</ele><time>2022-10-31T14:13:10.0000000+00:00</time></trkpt><trkpt lat="39.26878695" lon="-0.35367901"><ele>12.0</ele><time>2022-10-31T14:13:11.0000000+00:00</time></trkpt><trkpt lat="39.26873867" lon="-0.35364205"><ele>12.0</ele><time>2022-10-31T14:13:12.0000000+00:00</time></trkpt><trkpt lat="39.26869878" lon="-0.35361121"><ele>12.0</ele><time>2022-10-31T14:13:13.0000000+00:00</time></trkpt><trkpt lat="39.26864924" lon="-0.35357298"><ele>12.0</ele><time>2022-10-31T14:13:14.0000000+00:00</time></trkpt><trkpt lat="39.26858881" lon="-0.35352613"><ele>12.0</ele><time>2022-10-31T14:13:15.0000000+00:00</time></trkpt><trkpt lat="39.2685505" lon="-0.35349562"><ele>12.0</ele><time>2022-10-31T14:13:16.0000000+00:00</time></trkpt><trkpt lat="39.26849258" lon="-0.35345136"><ele>12.2</ele><time>2022-10-31T14:13:17.0000000+00:00</time></trkpt><trkpt lat="39.26844992" lon="-0.35341071"><ele>12.2</ele><time>2022-10-31T14:13:18.0000000+00:00</time></trkpt><trkpt lat="39.26840616" lon="-0.35337349"><ele>12.0</ele><time>2022-10-31T14:13:19.0000000+00:00</time></trkpt><trkpt lat="39.26836912" lon="-0.35334374"><ele>12.2</ele><time>2022-10-31T14:13:20.0000000+00:00</time></trkpt><trkpt lat="39.26832796" lon="-0.35330778"><ele>12.2</ele><time>2022-10-31T14:13:21.0000000+00:00</time></trkpt><trkpt lat="39.26828899" lon="-0.35326839"><ele>12.2</ele><time>2022-10-31T14:13:22.0000000+00:00</time></trkpt><trkpt lat="39.26825504" lon="-0.35322958"><ele>12.0</ele><time>2022-10-31T14:13:23.0000000+00:00</time></trkpt><trkpt lat="39.26822201" lon="-0.3531968"><ele>11.8</ele><time>2022-10-31T14:13:24.0000000+00:00</time></trkpt><trkpt lat="39.2681843" lon="-0.35315841"><ele>11.8</ele><time>2022-10-31T14:13:25.0000000+00:00</time></trkpt><trkpt lat="39.2681589" lon="-0.35312866"><ele>11.4</ele><time>2022-10-31T14:13:26.0000000+00:00</time></trkpt><trkpt lat="39.26812026" lon="-0.35308952"><ele>11.4</ele><time>2022-10-31T14:13:27.0000000+00:00</time></trkpt><trkpt lat="39.26809117" lon="-0.3530616"><ele>11.2</ele><time>2022-10-31T14:13:28.0000000+00:00</time></trkpt><trkpt lat="39.26807223" lon="-0.35304149"><ele>11.2</ele><time>2022-10-31T14:13:29.0000000+00:00</time></trkpt><trkpt lat="39.26805018" lon="-0.35301341"><ele>11.2</ele><time>2022-10-31T14:13:30.0000000+00:00</time></trkpt><trkpt lat="39.26802219" lon="-0.35298625"><ele>11.2</ele><time>2022-10-31T14:13:31.0000000+00:00</time></trkpt><trkpt lat="39.2680014" lon="-0.35296932"><ele>11.2</ele><time>2022-10-31T14:13:32.0000000+00:00</time></trkpt><trkpt lat="39.26797341" lon="-0.35293973"><ele>11.4</ele><time>2022-10-31T14:13:33.0000000+00:00</time></trkpt><trkpt lat="39.26794751" lon="-0.35291467"><ele>11.4</ele><time>2022-10-31T14:13:34.0000000+00:00</time></trkpt><trkpt lat="39.26792479" lon="-0.3528964"><ele>11.6</ele><time>2022-10-31T14:13:35.0000000+00:00</time></trkpt><trkpt lat="39.26789252" lon="-0.35286471"><ele>11.6</ele><time>2022-10-31T14:13:36.0000000+00:00</time></trkpt><trkpt lat="39.26786997" lon="-0.35283932"><ele>11.6</ele><time>2022-10-31T14:13:37.0000000+00:00</time></trkpt><trkpt lat="39.26784273" lon="-0.35281065"><ele>11.6</ele><time>2022-10-31T14:13:38.0000000+00:00</time></trkpt><trkpt lat="39.26780367" lon="-0.35277955"><ele>11.8</ele><time>2022-10-31T14:13:39.0000000+00:00</time></trkpt><trkpt lat="39.26777316" lon="-0.35275223"><ele>11.8</ele><time>2022-10-31T14:13:40.0000000+00:00</time></trkpt><trkpt lat="39.26774894" lon="-0.3527306"><ele>11.8</ele><time>2022-10-31T14:13:41.0000000+00:00</time></trkpt><trkpt lat="39.26770493" lon="-0.35270118"><ele>12.0</ele><time>2022-10-31T14:13:42.0000000+00:00</time></trkpt><trkpt lat="39.26767308" lon="-0.35268274"><ele>12.0</ele><time>2022-10-31T14:13:43.0000000+00:00</time></trkpt><trkpt lat="39.26763469" lon="-0.35266137"><ele>12.0</ele><time>2022-10-31T14:13:44.0000000+00:00</time></trkpt><trkpt lat="39.26758868" lon="-0.35264142"><ele>12.0</ele><time>2022-10-31T14:13:45.0000000+00:00</time></trkpt><trkpt lat="39.26754786" lon="-0.35262776"><ele>12.0</ele><time>2022-10-31T14:13:46.0000000+00:00</time></trkpt><trkpt lat="39.2675124" lon="-0.35261669"><ele>12.0</ele><time>2022-10-31T14:13:47.0000000+00:00</time></trkpt><trkpt lat="39.26746052" lon="-0.35260286"><ele>12.0</ele><time>2022-10-31T14:13:48.0000000+00:00</time></trkpt><trkpt lat="39.26741978" lon="-0.35259616"><ele>12.0</ele><time>2022-10-31T14:13:49.0000000+00:00</time></trkpt><trkpt lat="39.26737368" lon="-0.35259113"><ele>11.8</ele><time>2022-10-31T14:13:50.0000000+00:00</time></trkpt><trkpt lat="39.26732674" lon="-0.35258392"><ele>11.8</ele><time>2022-10-31T14:13:51.0000000+00:00</time></trkpt><trkpt lat="39.26728073" lon="-0.35258124"><ele>11.8</ele><time>2022-10-31T14:13:52.0000000+00:00</time></trkpt><trkpt lat="39.26724703" lon="-0.35258543"><ele>11.8</ele><time>2022-10-31T14:13:53.0000000+00:00</time></trkpt><trkpt lat="39.2671928" lon="-0.35258618"><ele>11.8</ele><time>2022-10-31T14:13:54.0000000+00:00</time></trkpt><trkpt lat="39.26715349" lon="-0.3525866"><ele>11.8</ele><time>2022-10-31T14:13:55.0000000+00:00</time></trkpt><trkpt lat="39.2671042" lon="-0.35258803"><ele>11.8</ele><time>2022-10-31T14:13:56.0000000+00:00</time></trkpt><trkpt lat="39.26704695" lon="-0.35258777"><ele>12.0</ele><time>2022-10-31T14:13:57.0000000+00:00</time></trkpt><trkpt lat="39.26699876" lon="-0.35258878"><ele>12.0</ele><time>2022-10-31T14:13:58.0000000+00:00</time></trkpt><trkpt lat="39.26696213" lon="-0.35259306"><ele>12.0</ele><time>2022-10-31T14:13:59.0000000+00:00</time></trkpt><trkpt lat="39.26690362" lon="-0.35259699"><ele>12.0</ele><time>2022-10-31T14:14:00.0000000+00:00</time></trkpt><trkpt lat="39.26685249" lon="-0.35259674"><ele>12.0</ele><time>2022-10-31T14:14:01.0000000+00:00</time></trkpt><trkpt lat="39.26681385" lon="-0.35259632"><ele>12.0</ele><time>2022-10-31T14:14:02.0000000+00:00</time></trkpt><trkpt lat="39.26675778" lon="-0.35259725"><ele>11.8</ele><time>2022-10-31T14:14:03.0000000+00:00</time></trkpt><trkpt lat="39.26671729" lon="-0.35259716"><ele>11.8</ele><time>2022-10-31T14:14:04.0000000+00:00</time></trkpt><trkpt lat="39.26666751" lon="-0.35259951"><ele>11.8</ele><time>2022-10-31T14:14:05.0000000+00:00</time></trkpt><trkpt lat="39.26661084" lon="-0.35260571"><ele>11.8</ele><time>2022-10-31T14:14:06.0000000+00:00</time></trkpt><trkpt lat="39.26656047" lon="-0.35260814"><ele>11.8</ele><time>2022-10-31T14:14:07.0000000+00:00</time></trkpt><trkpt lat="39.26651789" lon="-0.352612"><ele>11.8</ele><time>2022-10-31T14:14:08.0000000+00:00</time></trkpt><trkpt lat="39.26645611" lon="-0.35262147"><ele>11.8</ele><time>2022-10-31T14:14:09.0000000+00:00</time></trkpt><trkpt lat="39.26640339" lon="-0.35262968"><ele>11.8</ele><time>2022-10-31T14:14:10.0000000+00:00</time></trkpt><trkpt lat="39.26635268" lon="-0.35263161"><ele>11.6</ele><time>2022-10-31T14:14:11.0000000+00:00</time></trkpt><trkpt lat="39.26629786" lon="-0.35263756"><ele>11.8</ele><time>2022-10-31T14:14:12.0000000+00:00</time></trkpt><trkpt lat="39.26623542" lon="-0.35264729"><ele>11.8</ele><time>2022-10-31T14:14:13.0000000+00:00</time></trkpt><trkpt lat="39.26619359" lon="-0.35265366"><ele>11.8</ele><time>2022-10-31T14:14:14.0000000+00:00</time></trkpt><trkpt lat="39.2661407" lon="-0.35266137"><ele>11.8</ele><time>2022-10-31T14:14:15.0000000+00:00</time></trkpt><trkpt lat="39.26608731" lon="-0.35266925"><ele>11.8</ele><time>2022-10-31T14:14:16.0000000+00:00</time></trkpt><trkpt lat="39.26603417" lon="-0.35267528"><ele>11.8</ele><time>2022-10-31T14:14:17.0000000+00:00</time></trkpt><trkpt lat="39.2659682" lon="-0.35268098"><ele>11.8</ele><time>2022-10-31T14:14:18.0000000+00:00</time></trkpt><trkpt lat="39.26591615" lon="-0.35268551"><ele>12.0</ele><time>2022-10-31T14:14:19.0000000+00:00</time></trkpt><trkpt lat="39.26587726" lon="-0.35268794"><ele>12.0</ele><time>2022-10-31T14:14:20.0000000+00:00</time></trkpt><trkpt lat="39.26582144" lon="-0.35269607"><ele>12.2</ele><time>2022-10-31T14:14:21.0000000+00:00</time></trkpt><trkpt lat="39.26577567" lon="-0.35270336"><ele>12.2</ele><time>2022-10-31T14:14:22.0000000+00:00</time></trkpt><trkpt lat="39.26573007" lon="-0.35271174"><ele>12.2</ele><time>2022-10-31T14:14:23.0000000+00:00</time></trkpt><trkpt lat="39.26568582" lon="-0.35271669"><ele>12.2</ele><time>2022-10-31T14:14:24.0000000+00:00</time></trkpt><trkpt lat="39.26564139" lon="-0.35272314"><ele>12.2</ele><time>2022-10-31T14:14:25.0000000+00:00</time></trkpt><trkpt lat="39.26560736" lon="-0.35272976"><ele>12.0</ele><time>2022-10-31T14:14:26.0000000+00:00</time></trkpt><trkpt lat="39.26555506" lon="-0.35274033"><ele>11.8</ele><time>2022-10-31T14:14:27.0000000+00:00</time></trkpt><trkpt lat="39.26551005" lon="-0.35275013"><ele>11.8</ele><time>2022-10-31T14:14:28.0000000+00:00</time></trkpt><trkpt lat="39.26547317" lon="-0.35275684"><ele>11.6</ele><time>2022-10-31T14:14:29.0000000+00:00</time></trkpt><trkpt lat="39.26541684" lon="-0.35276606"><ele>11.6</ele><time>2022-10-31T14:14:30.0000000+00:00</time></trkpt><trkpt lat="39.2653787" lon="-0.35277117"><ele>11.6</ele><time>2022-10-31T14:14:31.0000000+00:00</time></trkpt><trkpt lat="39.26532942" lon="-0.35277578"><ele>11.6</ele><time>2022-10-31T14:14:32.0000000+00:00</time></trkpt><trkpt lat="39.26526882" lon="-0.35278232"><ele>11.6</ele><time>2022-10-31T14:14:33.0000000+00:00</time></trkpt><trkpt lat="39.26521819" lon="-0.35279087"><ele>11.6</ele><time>2022-10-31T14:14:34.0000000+00:00</time></trkpt><trkpt lat="39.26517838" lon="-0.35279808"><ele>11.6</ele><time>2022-10-31T14:14:35.0000000+00:00</time></trkpt><trkpt lat="39.26511778" lon="-0.35280914"><ele>11.8</ele><time>2022-10-31T14:14:36.0000000+00:00</time></trkpt><trkpt lat="39.26506606" lon="-0.35281878"><ele>11.8</ele><time>2022-10-31T14:14:37.0000000+00:00</time></trkpt><trkpt lat="39.26502524" lon="-0.35282725"><ele>11.8</ele><time>2022-10-31T14:14:38.0000000+00:00</time></trkpt><trkpt lat="39.26497495" lon="-0.35283831"><ele>11.8</ele><time>2022-10-31T14:14:39.0000000+00:00</time></trkpt><trkpt lat="39.26491368" lon="-0.35284921"><ele>11.8</ele><time>2022-10-31T14:14:40.0000000+00:00</time></trkpt><trkpt lat="39.2648716" lon="-0.3528539"><ele>11.8</ele><time>2022-10-31T14:14:41.0000000+00:00</time></trkpt><trkpt lat="39.26480832" lon="-0.35286237"><ele>11.8</ele><time>2022-10-31T14:14:42.0000000+00:00</time></trkpt><trkpt lat="39.26475685" lon="-0.35287452"><ele>11.8</ele><time>2022-10-31T14:14:43.0000000+00:00</time></trkpt><trkpt lat="39.26471461" lon="-0.35288441"><ele>11.8</ele><time>2022-10-31T14:14:44.0000000+00:00</time></trkpt><trkpt lat="39.26466364" lon="-0.35289581"><ele>11.8</ele><time>2022-10-31T14:14:45.0000000+00:00</time></trkpt><trkpt lat="39.26461788" lon="-0.3529031"><ele>11.6</ele><time>2022-10-31T14:14:46.0000000+00:00</time></trkpt><trkpt lat="39.26458142" lon="-0.35290746"><ele>11.4</ele><time>2022-10-31T14:14:47.0000000+00:00</time></trkpt><trkpt lat="39.264553" lon="-0.35290905"><ele>11.4</ele><time>2022-10-31T14:14:48.0000000+00:00</time></trkpt><trkpt lat="39.26452249" lon="-0.35291006"><ele>11.4</ele><time>2022-10-31T14:14:49.0000000+00:00</time></trkpt><trkpt lat="39.2644986" lon="-0.35290905"><ele>11.2</ele><time>2022-10-31T14:14:50.0000000+00:00</time></trkpt><trkpt lat="39.26448092" lon="-0.35290922"><ele>11.2</ele><time>2022-10-31T14:14:51.0000000+00:00</time></trkpt><trkpt lat="39.26445385" lon="-0.352914"><ele>11.2</ele><time>2022-10-31T14:14:52.0000000+00:00</time></trkpt><trkpt lat="39.26443666" lon="-0.352915"><ele>11.2</ele><time>2022-10-31T14:14:53.0000000+00:00</time></trkpt><trkpt lat="39.26442577" lon="-0.35291551"><ele>11.2</ele><time>2022-10-31T14:14:54.0000000+00:00</time></trkpt><trkpt lat="39.26441236" lon="-0.35291425"><ele>11.2</ele><time>2022-10-31T14:14:55.0000000+00:00</time></trkpt><trkpt lat="39.26439576" lon="-0.35290578"><ele>11.2</ele><time>2022-10-31T14:14:56.0000000+00:00</time></trkpt><trkpt lat="39.26438444" lon="-0.35289983"><ele>11.2</ele><time>2022-10-31T14:14:57.0000000+00:00</time></trkpt><trkpt lat="39.26437078" lon="-0.35290059"><ele>11.2</ele><time>2022-10-31T14:14:58.0000000+00:00</time></trkpt><trkpt lat="39.26436659" lon="-0.35291333"><ele>11.2</ele><time>2022-10-31T14:14:59.0000000+00:00</time></trkpt><trkpt lat="39.26437061" lon="-0.35292003"><ele>11.2</ele><time>2022-10-31T14:15:00.0000000+00:00</time></trkpt><trkpt lat="39.2643826" lon="-0.35292422"><ele>11.2</ele><time>2022-10-31T14:15:01.0000000+00:00</time></trkpt><trkpt lat="39.2643935" lon="-0.35292104"><ele>11.2</ele><time>2022-10-31T14:15:02.0000000+00:00</time></trkpt><trkpt lat="39.26440381" lon="-0.35291492"><ele>11.2</ele><time>2022-10-31T14:15:03.0000000+00:00</time></trkpt><trkpt lat="39.26442158" lon="-0.35290327"><ele>11.2</ele><time>2022-10-31T14:15:04.0000000+00:00</time></trkpt><trkpt lat="39.26443557" lon="-0.35289187"><ele>11.4</ele><time>2022-10-31T14:15:05.0000000+00:00</time></trkpt><trkpt lat="39.26445393" lon="-0.35287393"><ele>11.4</ele><time>2022-10-31T14:15:06.0000000+00:00</time></trkpt><trkpt lat="39.2644665" lon="-0.35283923"><ele>11.4</ele><time>2022-10-31T14:15:07.0000000+00:00</time></trkpt><trkpt lat="39.26446768" lon="-0.35281107"><ele>11.6</ele><time>2022-10-31T14:15:08.0000000+00:00</time></trkpt><trkpt lat="39.2644665" lon="-0.35277444"><ele>11.6</ele><time>2022-10-31T14:15:09.0000000+00:00</time></trkpt><trkpt lat="39.26446181" lon="-0.35272951"><ele>11.6</ele><time>2022-10-31T14:15:10.0000000+00:00</time></trkpt><trkpt lat="39.26445527" lon="-0.35268568"><ele>11.8</ele><time>2022-10-31T14:15:11.0000000+00:00</time></trkpt><trkpt lat="39.26444831" lon="-0.35265056"><ele>11.6</ele><time>2022-10-31T14:15:12.0000000+00:00</time></trkpt><trkpt lat="39.26443934" lon="-0.35259683"><ele>11.6</ele><time>2022-10-31T14:15:13.0000000+00:00</time></trkpt><trkpt lat="39.2644339" lon="-0.35254637"><ele>11.8</ele><time>2022-10-31T14:15:14.0000000+00:00</time></trkpt><trkpt lat="39.2644282" lon="-0.35250153"><ele>11.8</ele><time>2022-10-31T14:15:15.0000000+00:00</time></trkpt><trkpt lat="39.26441738" lon="-0.35244796"><ele>11.8</ele><time>2022-10-31T14:15:16.0000000+00:00</time></trkpt><trkpt lat="39.26440205" lon="-0.35238435"><ele>11.8</ele><time>2022-10-31T14:15:17.0000000+00:00</time></trkpt><trkpt lat="39.26439107" lon="-0.35234034"><ele>11.8</ele><time>2022-10-31T14:15:18.0000000+00:00</time></trkpt><trkpt lat="39.26437313" lon="-0.3522763"><ele>11.8</ele><time>2022-10-31T14:15:19.0000000+00:00</time></trkpt><trkpt lat="39.26436265" lon="-0.35222132"><ele>11.8</ele><time>2022-10-31T14:15:20.0000000+00:00</time></trkpt><trkpt lat="39.26435284" lon="-0.35217815"><ele>11.8</ele><time>2022-10-31T14:15:21.0000000+00:00</time></trkpt><trkpt lat="39.26433868" lon="-0.35211445"><ele>12.0</ele><time>2022-10-31T14:15:22.0000000+00:00</time></trkpt><trkpt lat="39.26432569" lon="-0.35206717"><ele>12.0</ele><time>2022-10-31T14:15:23.0000000+00:00</time></trkpt><trkpt lat="39.26431689" lon="-0.3520318"><ele>12.2</ele><time>2022-10-31T14:15:24.0000000+00:00</time></trkpt><trkpt lat="39.26430163" lon="-0.35198118"><ele>12.2</ele><time>2022-10-31T14:15:25.0000000+00:00</time></trkpt><trkpt lat="39.26429048" lon="-0.35194773"><ele>12.2</ele><time>2022-10-31T14:15:26.0000000+00:00</time></trkpt><trkpt lat="39.26427749" lon="-0.35189325"><ele>12.0</ele><time>2022-10-31T14:15:27.0000000+00:00</time></trkpt><trkpt lat="39.26426827" lon="-0.35184547"><ele>12.0</ele><time>2022-10-31T14:15:28.0000000+00:00</time></trkpt><trkpt lat="39.26425863" lon="-0.35179736"><ele>11.8</ele><time>2022-10-31T14:15:29.0000000+00:00</time></trkpt><trkpt lat="39.26425075" lon="-0.35174741"><ele>11.8</ele><time>2022-10-31T14:15:30.0000000+00:00</time></trkpt><trkpt lat="39.26424354" lon="-0.35170415"><ele>11.8</ele><time>2022-10-31T14:15:31.0000000+00:00</time></trkpt><trkpt lat="39.26423458" lon="-0.35165076"><ele>12.0</ele><time>2022-10-31T14:15:32.0000000+00:00</time></trkpt><trkpt lat="39.26422183" lon="-0.35158245"><ele>12.0</ele><time>2022-10-31T14:15:33.0000000+00:00</time></trkpt><trkpt lat="39.26421127" lon="-0.35153928"><ele>12.0</ele><time>2022-10-31T14:15:34.0000000+00:00</time></trkpt><trkpt lat="39.26419434" lon="-0.35147642"><ele>12.0</ele><time>2022-10-31T14:15:35.0000000+00:00</time></trkpt><trkpt lat="39.26418336" lon="-0.35142194"><ele>12.0</ele><time>2022-10-31T14:15:36.0000000+00:00</time></trkpt><trkpt lat="39.26417138" lon="-0.35136687"><ele>12.0</ele><time>2022-10-31T14:15:37.0000000+00:00</time></trkpt><trkpt lat="39.26415931" lon="-0.35131012"><ele>12.0</ele><time>2022-10-31T14:15:38.0000000+00:00</time></trkpt><trkpt lat="39.26415017" lon="-0.35125363"><ele>12.0</ele><time>2022-10-31T14:15:39.0000000+00:00</time></trkpt><trkpt lat="39.26414271" lon="-0.35120862"><ele>12.0</ele><time>2022-10-31T14:15:40.0000000+00:00</time></trkpt><trkpt lat="39.26412796" lon="-0.3511403"><ele>12.0</ele><time>2022-10-31T14:15:41.0000000+00:00</time></trkpt><trkpt lat="39.26411631" lon="-0.35108423"><ele>12.0</ele><time>2022-10-31T14:15:42.0000000+00:00</time></trkpt><trkpt lat="39.26410499" lon="-0.35102748"><ele>12.0</ele><time>2022-10-31T14:15:43.0000000+00:00</time></trkpt><trkpt lat="39.26409384" lon="-0.35097024"><ele>12.0</ele><time>2022-10-31T14:15:44.0000000+00:00</time></trkpt><trkpt lat="39.2640801" lon="-0.35091089"><ele>12.2</ele><time>2022-10-31T14:15:45.0000000+00:00</time></trkpt><trkpt lat="39.26406643" lon="-0.35085205"><ele>12.2</ele><time>2022-10-31T14:15:46.0000000+00:00</time></trkpt><trkpt lat="39.26405361" lon="-0.35079178"><ele>12.2</ele><time>2022-10-31T14:15:47.0000000+00:00</time></trkpt><trkpt lat="39.26404104" lon="-0.35073311"><ele>12.0</ele><time>2022-10-31T14:15:48.0000000+00:00</time></trkpt><trkpt lat="39.26403006" lon="-0.35067234"><ele>12.0</ele><time>2022-10-31T14:15:49.0000000+00:00</time></trkpt><trkpt lat="39.26402193" lon="-0.35061065"><ele>12.0</ele><time>2022-10-31T14:15:50.0000000+00:00</time></trkpt><trkpt lat="39.26401413" lon="-0.35054879"><ele>12.2</ele><time>2022-10-31T14:15:51.0000000+00:00</time></trkpt><trkpt lat="39.26400684" lon="-0.35050311"><ele>12.2</ele><time>2022-10-31T14:15:52.0000000+00:00</time></trkpt><trkpt lat="39.26399854" lon="-0.35044938"><ele>12.2</ele><time>2022-10-31T14:15:53.0000000+00:00</time></trkpt><trkpt lat="39.26398664" lon="-0.35039842"><ele>12.2</ele><time>2022-10-31T14:15:54.0000000+00:00</time></trkpt><trkpt lat="39.26396803" lon="-0.35034159"><ele>12.2</ele><time>2022-10-31T14:15:55.0000000+00:00</time></trkpt><trkpt lat="39.26394917" lon="-0.35030144"><ele>12.2</ele><time>2022-10-31T14:15:56.0000000+00:00</time></trkpt><trkpt lat="39.26392428" lon="-0.35026498"><ele>12.2</ele><time>2022-10-31T14:15:57.0000000+00:00</time></trkpt><trkpt lat="39.26389913" lon="-0.35023824"><ele>12.2</ele><time>2022-10-31T14:15:58.0000000+00:00</time></trkpt><trkpt lat="39.26386225" lon="-0.35020011"><ele>12.0</ele><time>2022-10-31T14:15:59.0000000+00:00</time></trkpt><trkpt lat="39.26382906" lon="-0.35016666"><ele>12.0</ele><time>2022-10-31T14:16:00.0000000+00:00</time></trkpt><trkpt lat="39.26379955" lon="-0.35012903"><ele>12.0</ele><time>2022-10-31T14:16:01.0000000+00:00</time></trkpt><trkpt lat="39.26377332" lon="-0.35008402"><ele>12.0</ele><time>2022-10-31T14:16:02.0000000+00:00</time></trkpt><trkpt lat="39.26375639" lon="-0.35003238"><ele>12.0</ele><time>2022-10-31T14:16:03.0000000+00:00</time></trkpt><trkpt lat="39.26374507" lon="-0.34997706"><ele>12.0</ele><time>2022-10-31T14:16:04.0000000+00:00</time></trkpt><trkpt lat="39.26373535" lon="-0.34991814"><ele>12.2</ele><time>2022-10-31T14:16:05.0000000+00:00</time></trkpt><trkpt lat="39.26372722" lon="-0.3498567"><ele>12.2</ele><time>2022-10-31T14:16:06.0000000+00:00</time></trkpt><trkpt lat="39.26372093" lon="-0.34980901"><ele>12.2</ele><time>2022-10-31T14:16:07.0000000+00:00</time></trkpt><trkpt lat="39.26371196" lon="-0.34973449"><ele>12.2</ele><time>2022-10-31T14:16:08.0000000+00:00</time></trkpt><trkpt lat="39.26370316" lon="-0.3496728"><ele>12.2</ele><time>2022-10-31T14:16:09.0000000+00:00</time></trkpt><trkpt lat="39.26369553" lon="-0.34961203"><ele>12.2</ele><time>2022-10-31T14:16:10.0000000+00:00</time></trkpt><trkpt lat="39.26369076" lon="-0.34954883"><ele>12.2</ele><time>2022-10-31T14:16:11.0000000+00:00</time></trkpt><trkpt lat="39.26368422" lon="-0.34948245"><ele>12.2</ele><time>2022-10-31T14:16:12.0000000+00:00</time></trkpt><trkpt lat="39.26367911" lon="-0.3494164"><ele>12.4</ele><time>2022-10-31T14:16:13.0000000+00:00</time></trkpt><trkpt lat="39.2636745" lon="-0.3493506"><ele>12.4</ele><time>2022-10-31T14:16:14.0000000+00:00</time></trkpt><trkpt lat="39.26367005" lon="-0.3492822"><ele>12.4</ele><time>2022-10-31T14:16:15.0000000+00:00</time></trkpt><trkpt lat="39.26366444" lon="-0.3492159"><ele>12.4</ele><time>2022-10-31T14:16:16.0000000+00:00</time></trkpt><trkpt lat="39.26365782" lon="-0.34915136"><ele>12.4</ele><time>2022-10-31T14:16:17.0000000+00:00</time></trkpt><trkpt lat="39.26365128" lon="-0.34908414"><ele>12.4</ele><time>2022-10-31T14:16:18.0000000+00:00</time></trkpt><trkpt lat="39.26364424" lon="-0.34901826"><ele>12.4</ele><time>2022-10-31T14:16:19.0000000+00:00</time></trkpt><trkpt lat="39.26363519" lon="-0.34895271"><ele>12.4</ele><time>2022-10-31T14:16:20.0000000+00:00</time></trkpt><trkpt lat="39.26362789" lon="-0.34888775"><ele>12.4</ele><time>2022-10-31T14:16:21.0000000+00:00</time></trkpt><trkpt lat="39.2636201" lon="-0.34882212"><ele>12.4</ele><time>2022-10-31T14:16:22.0000000+00:00</time></trkpt><trkpt lat="39.26361138" lon="-0.34875783"><ele>12.4</ele><time>2022-10-31T14:16:23.0000000+00:00</time></trkpt><trkpt lat="39.26360359" lon="-0.34869254"><ele>12.4</ele><time>2022-10-31T14:16:24.0000000+00:00</time></trkpt><trkpt lat="39.26359437" lon="-0.348629"><ele>12.4</ele><time>2022-10-31T14:16:25.0000000+00:00</time></trkpt><trkpt lat="39.26358942" lon="-0.34856304"><ele>12.4</ele><time>2022-10-31T14:16:26.0000000+00:00</time></trkpt><trkpt lat="39.26358531" lon="-0.34849623"><ele>12.4</ele><time>2022-10-31T14:16:27.0000000+00:00</time></trkpt><trkpt lat="39.2635797" lon="-0.34843161"><ele>12.4</ele><time>2022-10-31T14:16:28.0000000+00:00</time></trkpt><trkpt lat="39.26357391" lon="-0.34836682"><ele>12.4</ele><time>2022-10-31T14:16:29.0000000+00:00</time></trkpt><trkpt lat="39.26356863" lon="-0.34830194"><ele>12.4</ele><time>2022-10-31T14:16:30.0000000+00:00</time></trkpt><trkpt lat="39.26356327" lon="-0.34823597"><ele>12.4</ele><time>2022-10-31T14:16:31.0000000+00:00</time></trkpt><trkpt lat="39.2635564" lon="-0.34817219"><ele>12.4</ele><time>2022-10-31T14:16:32.0000000+00:00</time></trkpt><trkpt lat="39.26354961" lon="-0.34810681"><ele>12.4</ele><time>2022-10-31T14:16:33.0000000+00:00</time></trkpt><trkpt lat="39.26354357" lon="-0.34804529"><ele>12.4</ele><time>2022-10-31T14:16:34.0000000+00:00</time></trkpt><trkpt lat="39.26353921" lon="-0.3479965"><ele>12.4</ele><time>2022-10-31T14:16:35.0000000+00:00</time></trkpt><trkpt lat="39.26352882" lon="-0.34792568"><ele>12.4</ele><time>2022-10-31T14:16:36.0000000+00:00</time></trkpt><trkpt lat="39.26352295" lon="-0.34787044"><ele>12.4</ele><time>2022-10-31T14:16:37.0000000+00:00</time></trkpt><trkpt lat="39.26352069" lon="-0.34781286"><ele>12.4</ele><time>2022-10-31T14:16:38.0000000+00:00</time></trkpt><trkpt lat="39.26352044" lon="-0.34775142"><ele>12.4</ele><time>2022-10-31T14:16:39.0000000+00:00</time></trkpt><trkpt lat="39.2635165" lon="-0.3476914"><ele>12.4</ele><time>2022-10-31T14:16:40.0000000+00:00</time></trkpt><trkpt lat="39.26351155" lon="-0.34763424"><ele>12.2</ele><time>2022-10-31T14:16:41.0000000+00:00</time></trkpt><trkpt lat="39.26350493" lon="-0.34757976"><ele>12.4</ele><time>2022-10-31T14:16:42.0000000+00:00</time></trkpt><trkpt lat="39.26349311" lon="-0.34752796"><ele>12.4</ele><time>2022-10-31T14:16:43.0000000+00:00</time></trkpt><trkpt lat="39.2634771" lon="-0.34748127"><ele>12.4</ele><time>2022-10-31T14:16:44.0000000+00:00</time></trkpt><trkpt lat="39.26345858" lon="-0.34744397"><ele>12.4</ele><time>2022-10-31T14:16:45.0000000+00:00</time></trkpt><trkpt lat="39.26343327" lon="-0.34742083"><ele>12.4</ele><time>2022-10-31T14:16:46.0000000+00:00</time></trkpt><trkpt lat="39.26340083" lon="-0.34741203"><ele>12.4</ele><time>2022-10-31T14:16:47.0000000+00:00</time></trkpt><trkpt lat="39.26336378" lon="-0.34740415"><ele>12.4</ele><time>2022-10-31T14:16:48.0000000+00:00</time></trkpt><trkpt lat="39.2633248" lon="-0.34739787"><ele>12.4</ele><time>2022-10-31T14:16:49.0000000+00:00</time></trkpt><trkpt lat="39.26328708" lon="-0.34738689"><ele>12.4</ele><time>2022-10-31T14:16:50.0000000+00:00</time></trkpt><trkpt lat="39.26324635" lon="-0.34737281"><ele>12.4</ele><time>2022-10-31T14:16:51.0000000+00:00</time></trkpt><trkpt lat="39.26320377" lon="-0.34735814"><ele>12.6</ele><time>2022-10-31T14:16:52.0000000+00:00</time></trkpt><trkpt lat="39.26315909" lon="-0.34734355"><ele>12.6</ele><time>2022-10-31T14:16:53.0000000+00:00</time></trkpt><trkpt lat="39.26311802" lon="-0.34733291"><ele>12.6</ele><time>2022-10-31T14:16:54.0000000+00:00</time></trkpt><trkpt lat="39.26307477" lon="-0.34731958"><ele>12.6</ele><time>2022-10-31T14:16:55.0000000+00:00</time></trkpt><trkpt lat="39.26302984" lon="-0.34730156"><ele>12.6</ele><time>2022-10-31T14:16:56.0000000+00:00</time></trkpt><trkpt lat="39.26298517" lon="-0.3472796"><ele>12.8</ele><time>2022-10-31T14:16:57.0000000+00:00</time></trkpt><trkpt lat="39.2629389" lon="-0.34725303"><ele>12.8</ele><time>2022-10-31T14:16:58.0000000+00:00</time></trkpt><trkpt lat="39.26289305" lon="-0.34722311"><ele>13.0</ele><time>2022-10-31T14:16:59.0000000+00:00</time></trkpt><trkpt lat="39.26284947" lon="-0.34718874"><ele>13.0</ele><time>2022-10-31T14:17:00.0000000+00:00</time></trkpt><trkpt lat="39.26280873" lon="-0.34714909"><ele>13.0</ele><time>2022-10-31T14:17:01.0000000+00:00</time></trkpt><trkpt lat="39.26276992" lon="-0.34710936"><ele>13.2</ele><time>2022-10-31T14:17:02.0000000+00:00</time></trkpt><trkpt lat="39.26272977" lon="-0.3470672"><ele>13.4</ele><time>2022-10-31T14:17:03.0000000+00:00</time></trkpt><trkpt lat="39.26269096" lon="-0.34702471"><ele>13.4</ele><time>2022-10-31T14:17:04.0000000+00:00</time></trkpt><trkpt lat="39.26265014" lon="-0.34698313"><ele>13.4</ele><time>2022-10-31T14:17:05.0000000+00:00</time></trkpt><trkpt lat="39.26261083" lon="-0.34694089"><ele>13.4</ele><time>2022-10-31T14:17:06.0000000+00:00</time></trkpt><trkpt lat="39.26257236" lon="-0.3468994"><ele>13.2</ele><time>2022-10-31T14:17:07.0000000+00:00</time></trkpt><trkpt lat="39.26252953" lon="-0.34686143"><ele>13.2</ele><time>2022-10-31T14:17:08.0000000+00:00</time></trkpt><trkpt lat="39.26248142" lon="-0.34682832"><ele>13.2</ele><time>2022-10-31T14:17:09.0000000+00:00</time></trkpt><trkpt lat="39.26243054" lon="-0.34680041"><ele>13.2</ele><time>2022-10-31T14:17:10.0000000+00:00</time></trkpt><trkpt lat="39.26237899" lon="-0.34677903"><ele>13.2</ele><time>2022-10-31T14:17:11.0000000+00:00</time></trkpt><trkpt lat="39.26232744" lon="-0.34675975"><ele>13.2</ele><time>2022-10-31T14:17:12.0000000+00:00</time></trkpt><trkpt lat="39.26227463" lon="-0.34674073"><ele>13.2</ele><time>2022-10-31T14:17:13.0000000+00:00</time></trkpt><trkpt lat="39.26222049" lon="-0.34672648"><ele>13.2</ele><time>2022-10-31T14:17:14.0000000+00:00</time></trkpt><trkpt lat="39.26216642" lon="-0.3467165"><ele>13.2</ele><time>2022-10-31T14:17:15.0000000+00:00</time></trkpt><trkpt lat="39.26210851" lon="-0.34671181"><ele>13.2</ele><time>2022-10-31T14:17:16.0000000+00:00</time></trkpt><trkpt lat="39.26204891" lon="-0.34670703"><ele>13.2</ele><time>2022-10-31T14:17:17.0000000+00:00</time></trkpt><trkpt lat="39.2620034" lon="-0.34670468"><ele>13.2</ele><time>2022-10-31T14:17:18.0000000+00:00</time></trkpt><trkpt lat="39.26193458" lon="-0.34669865"><ele>13.2</ele><time>2022-10-31T14:17:19.0000000+00:00</time></trkpt><trkpt lat="39.26187834" lon="-0.34669295"><ele>13.2</ele><time>2022-10-31T14:17:20.0000000+00:00</time></trkpt><trkpt lat="39.26182025" lon="-0.34668432"><ele>13.0</ele><time>2022-10-31T14:17:21.0000000+00:00</time></trkpt><trkpt lat="39.26176217" lon="-0.34667384"><ele>13.0</ele><time>2022-10-31T14:17:22.0000000+00:00</time></trkpt><trkpt lat="39.26170299" lon="-0.34665884"><ele>12.8</ele><time>2022-10-31T14:17:23.0000000+00:00</time></trkpt><trkpt lat="39.26164834" lon="-0.34664559"><ele>12.8</ele><time>2022-10-31T14:17:24.0000000+00:00</time></trkpt><trkpt lat="39.26159201" lon="-0.34662874"><ele>12.8</ele><time>2022-10-31T14:17:25.0000000+00:00</time></trkpt><trkpt lat="39.26153803" lon="-0.34661315"><ele>12.6</ele><time>2022-10-31T14:17:26.0000000+00:00</time></trkpt><trkpt lat="39.26148196" lon="-0.34659597"><ele>12.4</ele><time>2022-10-31T14:17:27.0000000+00:00</time></trkpt><trkpt lat="39.26142756" lon="-0.34657795"><ele>12.6</ele><time>2022-10-31T14:17:28.0000000+00:00</time></trkpt><trkpt lat="39.261375" lon="-0.3465601"><ele>12.8</ele><time>2022-10-31T14:17:29.0000000+00:00</time></trkpt><trkpt lat="39.26132111" lon="-0.34654342"><ele>13.0</ele><time>2022-10-31T14:17:30.0000000+00:00</time></trkpt><trkpt lat="39.26126654" lon="-0.3465259"><ele>13.0</ele><time>2022-10-31T14:17:31.0000000+00:00</time></trkpt><trkpt lat="39.26121114" lon="-0.3465083"><ele>13.2</ele><time>2022-10-31T14:17:32.0000000+00:00</time></trkpt><trkpt lat="39.26115498" lon="-0.34649061"><ele>13.2</ele><time>2022-10-31T14:17:33.0000000+00:00</time></trkpt><trkpt lat="39.26109865" lon="-0.34647167"><ele>13.2</ele><time>2022-10-31T14:17:34.0000000+00:00</time></trkpt><trkpt lat="39.26104426" lon="-0.34645373"><ele>13.0</ele><time>2022-10-31T14:17:35.0000000+00:00</time></trkpt><trkpt lat="39.26098927" lon="-0.34643378"><ele>13.0</ele><time>2022-10-31T14:17:36.0000000+00:00</time></trkpt><trkpt lat="39.26093244" lon="-0.34641593"><ele>13.0</ele><time>2022-10-31T14:17:37.0000000+00:00</time></trkpt><trkpt lat="39.26087653" lon="-0.34639807"><ele>13.0</ele><time>2022-10-31T14:17:38.0000000+00:00</time></trkpt><trkpt lat="39.26082046" lon="-0.34638148"><ele>13.2</ele><time>2022-10-31T14:17:39.0000000+00:00</time></trkpt><trkpt lat="39.2607731" lon="-0.34636798"><ele>13.2</ele><time>2022-10-31T14:17:40.0000000+00:00</time></trkpt><trkpt lat="39.26070864" lon="-0.34634871"><ele>13.2</ele><time>2022-10-31T14:17:41.0000000+00:00</time></trkpt><trkpt lat="39.26065668" lon="-0.34633714"><ele>13.2</ele><time>2022-10-31T14:17:42.0000000+00:00</time></trkpt><trkpt lat="39.2606063" lon="-0.34632599"><ele>13.2</ele><time>2022-10-31T14:17:43.0000000+00:00</time></trkpt><trkpt lat="39.26055542" lon="-0.34631702"><ele>13.2</ele><time>2022-10-31T14:17:44.0000000+00:00</time></trkpt><trkpt lat="39.26050496" lon="-0.34631191"><ele>13.0</ele><time>2022-10-31T14:17:45.0000000+00:00</time></trkpt><trkpt lat="39.26045383" lon="-0.34631015"><ele>13.0</ele><time>2022-10-31T14:17:46.0000000+00:00</time></trkpt><trkpt lat="39.26040329" lon="-0.34630931"><ele>12.8</ele><time>2022-10-31T14:17:47.0000000+00:00</time></trkpt><trkpt lat="39.26034898" lon="-0.34630755"><ele>12.8</ele><time>2022-10-31T14:17:48.0000000+00:00</time></trkpt><trkpt lat="39.2602934" lon="-0.34630193"><ele>12.8</ele><time>2022-10-31T14:17:49.0000000+00:00</time></trkpt><trkpt lat="39.26023666" lon="-0.34629489"><ele>12.8</ele><time>2022-10-31T14:17:50.0000000+00:00</time></trkpt><trkpt lat="39.26017815" lon="-0.34628643"><ele>12.6</ele><time>2022-10-31T14:17:51.0000000+00:00</time></trkpt><trkpt lat="39.26012057" lon="-0.3462814"><ele>12.6</ele><time>2022-10-31T14:17:52.0000000+00:00</time></trkpt><trkpt lat="39.26006516" lon="-0.34627721"><ele>12.6</ele><time>2022-10-31T14:17:53.0000000+00:00</time></trkpt><trkpt lat="39.26001462" lon="-0.34627293"><ele>12.6</ele><time>2022-10-31T14:17:54.0000000+00:00</time></trkpt><trkpt lat="39.25996081" lon="-0.34626958"><ele>12.4</ele><time>2022-10-31T14:17:55.0000000+00:00</time></trkpt><trkpt lat="39.25990465" lon="-0.34626539"><ele>12.4</ele><time>2022-10-31T14:17:56.0000000+00:00</time></trkpt><trkpt lat="39.25984548" lon="-0.34625986"><ele>12.4</ele><time>2022-10-31T14:17:57.0000000+00:00</time></trkpt><trkpt lat="39.25978496" lon="-0.34625206"><ele>12.4</ele><time>2022-10-31T14:17:58.0000000+00:00</time></trkpt><trkpt lat="39.25972796" lon="-0.34624494"><ele>12.4</ele><time>2022-10-31T14:17:59.0000000+00:00</time></trkpt><trkpt lat="39.2596713" lon="-0.34623421"><ele>12.4</ele><time>2022-10-31T14:18:00.0000000+00:00</time></trkpt><trkpt lat="39.25962403" lon="-0.3462234"><ele>12.4</ele><time>2022-10-31T14:18:01.0000000+00:00</time></trkpt><trkpt lat="39.25956535" lon="-0.34621124"><ele>12.4</ele><time>2022-10-31T14:18:02.0000000+00:00</time></trkpt><trkpt lat="39.25949687" lon="-0.34619205"><ele>12.6</ele><time>2022-10-31T14:18:03.0000000+00:00</time></trkpt><trkpt lat="39.2594413" lon="-0.34617629"><ele>12.6</ele><time>2022-10-31T14:18:04.0000000+00:00</time></trkpt><trkpt lat="39.25938833" lon="-0.34615911"><ele>12.6</ele><time>2022-10-31T14:18:05.0000000+00:00</time></trkpt><trkpt lat="39.25933426" lon="-0.34613916"><ele>12.6</ele><time>2022-10-31T14:18:06.0000000+00:00</time></trkpt><trkpt lat="39.25928271" lon="-0.34611695"><ele>12.4</ele><time>2022-10-31T14:18:07.0000000+00:00</time></trkpt><trkpt lat="39.25923536" lon="-0.34609574"><ele>12.4</ele><time>2022-10-31T14:18:08.0000000+00:00</time></trkpt><trkpt lat="39.25918783" lon="-0.34607478"><ele>12.4</ele><time>2022-10-31T14:18:09.0000000+00:00</time></trkpt><trkpt lat="39.25914324" lon="-0.34605525"><ele>12.2</ele><time>2022-10-31T14:18:10.0000000+00:00</time></trkpt><trkpt lat="39.25909882" lon="-0.34603832"><ele>12.2</ele><time>2022-10-31T14:18:11.0000000+00:00</time></trkpt><trkpt lat="39.25905716" lon="-0.34602097"><ele>12.0</ele><time>2022-10-31T14:18:12.0000000+00:00</time></trkpt><trkpt lat="39.25901483" lon="-0.34600371"><ele>12.0</ele><time>2022-10-31T14:18:13.0000000+00:00</time></trkpt><trkpt lat="39.25897191" lon="-0.3459918"><ele>12.0</ele><time>2022-10-31T14:18:14.0000000+00:00</time></trkpt><trkpt lat="39.25892933" lon="-0.34597864"><ele>12.0</ele><time>2022-10-31T14:18:15.0000000+00:00</time></trkpt><trkpt lat="39.25888575" lon="-0.34596029"><ele>12.0</ele><time>2022-10-31T14:18:16.0000000+00:00</time></trkpt><trkpt lat="39.25884057" lon="-0.34594386"><ele>12.2</ele><time>2022-10-31T14:18:17.0000000+00:00</time></trkpt><trkpt lat="39.25879045" lon="-0.34592601"><ele>12.2</ele><time>2022-10-31T14:18:18.0000000+00:00</time></trkpt><trkpt lat="39.25874351" lon="-0.34590975"><ele>12.2</ele><time>2022-10-31T14:18:19.0000000+00:00</time></trkpt><trkpt lat="39.25869623" lon="-0.34589734"><ele>12.2</ele><time>2022-10-31T14:18:20.0000000+00:00</time></trkpt><trkpt lat="39.2586477" lon="-0.34588611"><ele>12.4</ele><time>2022-10-31T14:18:21.0000000+00:00</time></trkpt><trkpt lat="39.25859934" lon="-0.34587555"><ele>12.4</ele><time>2022-10-31T14:18:22.0000000+00:00</time></trkpt><trkpt lat="39.25854829" lon="-0.34586549"><ele>12.2</ele><time>2022-10-31T14:18:23.0000000+00:00</time></trkpt><trkpt lat="39.2584985" lon="-0.34586071"><ele>12.0</ele><time>2022-10-31T14:18:24.0000000+00:00</time></trkpt><trkpt lat="39.25844662" lon="-0.3458592"><ele>12.2</ele><time>2022-10-31T14:18:25.0000000+00:00</time></trkpt><trkpt lat="39.25839532" lon="-0.34585979"><ele>12.2</ele><time>2022-10-31T14:18:26.0000000+00:00</time></trkpt><trkpt lat="39.25834428" lon="-0.34586582"><ele>12.2</ele><time>2022-10-31T14:18:27.0000000+00:00</time></trkpt><trkpt lat="39.25829155" lon="-0.34586893"><ele>12.2</ele><time>2022-10-31T14:18:28.0000000+00:00</time></trkpt><trkpt lat="39.25823573" lon="-0.34587052"><ele>12.2</ele><time>2022-10-31T14:18:29.0000000+00:00</time></trkpt><trkpt lat="39.25818284" lon="-0.34587856"><ele>12.4</ele><time>2022-10-31T14:18:30.0000000+00:00</time></trkpt><trkpt lat="39.25812811" lon="-0.34588778"><ele>12.2</ele><time>2022-10-31T14:18:31.0000000+00:00</time></trkpt><trkpt lat="39.25807706" lon="-0.3458986"><ele>12.2</ele><time>2022-10-31T14:18:32.0000000+00:00</time></trkpt><trkpt lat="39.25802694" lon="-0.34590916"><ele>12.2</ele><time>2022-10-31T14:18:33.0000000+00:00</time></trkpt><trkpt lat="39.25797321" lon="-0.34591402"><ele>12.2</ele><time>2022-10-31T14:18:34.0000000+00:00</time></trkpt><trkpt lat="39.2579204" lon="-0.34591972"><ele>12.2</ele><time>2022-10-31T14:18:35.0000000+00:00</time></trkpt><trkpt lat="39.25786852" lon="-0.34592684"><ele>12.2</ele><time>2022-10-31T14:18:36.0000000+00:00</time></trkpt><trkpt lat="39.25781563" lon="-0.34593606"><ele>12.2</ele><time>2022-10-31T14:18:37.0000000+00:00</time></trkpt><trkpt lat="39.25776039" lon="-0.34594051"><ele>12.2</ele><time>2022-10-31T14:18:38.0000000+00:00</time></trkpt><trkpt lat="39.25770625" lon="-0.34594411"><ele>12.2</ele><time>2022-10-31T14:18:39.0000000+00:00</time></trkpt><trkpt lat="39.25765076" lon="-0.34595107"><ele>12.2</ele><time>2022-10-31T14:18:40.0000000+00:00</time></trkpt><trkpt lat="39.25759728" lon="-0.34595836"><ele>12.2</ele><time>2022-10-31T14:18:41.0000000+00:00</time></trkpt><trkpt lat="39.25754255" lon="-0.34596381"><ele>12.2</ele><time>2022-10-31T14:18:42.0000000+00:00</time></trkpt><trkpt lat="39.25748454" lon="-0.34596968"><ele>12.2</ele><time>2022-10-31T14:18:43.0000000+00:00</time></trkpt><trkpt lat="39.2574387" lon="-0.34597487"><ele>12.2</ele><time>2022-10-31T14:18:44.0000000+00:00</time></trkpt><trkpt lat="39.25736929" lon="-0.34598812"><ele>12.2</ele><time>2022-10-31T14:18:45.0000000+00:00</time></trkpt><trkpt lat="39.25731305" lon="-0.34600102"><ele>12.2</ele><time>2022-10-31T14:18:46.0000000+00:00</time></trkpt><trkpt lat="39.25725555" lon="-0.34601712"><ele>12.2</ele><time>2022-10-31T14:18:47.0000000+00:00</time></trkpt><trkpt lat="39.25720098" lon="-0.3460317"><ele>12.2</ele><time>2022-10-31T14:18:48.0000000+00:00</time></trkpt><trkpt lat="39.25714583" lon="-0.34604687"><ele>12.2</ele><time>2022-10-31T14:18:49.0000000+00:00</time></trkpt><trkpt lat="39.25709386" lon="-0.34606062"><ele>12.0</ele><time>2022-10-31T14:18:50.0000000+00:00</time></trkpt><trkpt lat="39.25704106" lon="-0.34606934"><ele>12.0</ele><time>2022-10-31T14:18:51.0000000+00:00</time></trkpt><trkpt lat="39.25699152" lon="-0.3460685"><ele>12.0</ele><time>2022-10-31T14:18:52.0000000+00:00</time></trkpt><trkpt lat="39.25694182" lon="-0.34606506"><ele>12.0</ele><time>2022-10-31T14:18:53.0000000+00:00</time></trkpt><trkpt lat="39.25689605" lon="-0.34605601"><ele>12.0</ele><time>2022-10-31T14:18:54.0000000+00:00</time></trkpt><trkpt lat="39.25685205" lon="-0.34604293"><ele>12.0</ele><time>2022-10-31T14:18:55.0000000+00:00</time></trkpt><trkpt lat="39.25680486" lon="-0.34602709"><ele>12.2</ele><time>2022-10-31T14:18:56.0000000+00:00</time></trkpt><trkpt lat="39.25675641" lon="-0.34600706"><ele>12.2</ele><time>2022-10-31T14:18:57.0000000+00:00</time></trkpt><trkpt lat="39.25670411" lon="-0.34598619"><ele>12.2</ele><time>2022-10-31T14:18:58.0000000+00:00</time></trkpt><trkpt lat="39.25665046" lon="-0.34597001"><ele>12.2</ele><time>2022-10-31T14:18:59.0000000+00:00</time></trkpt><trkpt lat="39.25659405" lon="-0.34595727"><ele>12.2</ele><time>2022-10-31T14:19:00.0000000+00:00</time></trkpt><trkpt lat="39.25654108" lon="-0.34594872"><ele>12.2</ele><time>2022-10-31T14:19:01.0000000+00:00</time></trkpt><trkpt lat="39.25648768" lon="-0.34594487"><ele>12.2</ele><time>2022-10-31T14:19:02.0000000+00:00</time></trkpt><trkpt lat="39.25643547" lon="-0.34594587"><ele>12.4</ele><time>2022-10-31T14:19:03.0000000+00:00</time></trkpt><trkpt lat="39.25638417" lon="-0.34595031"><ele>12.4</ele><time>2022-10-31T14:19:04.0000000+00:00</time></trkpt><trkpt lat="39.25633614" lon="-0.34595769"><ele>12.4</ele><time>2022-10-31T14:19:05.0000000+00:00</time></trkpt><trkpt lat="39.2562944" lon="-0.34595794"><ele>12.6</ele><time>2022-10-31T14:19:06.0000000+00:00</time></trkpt><trkpt lat="39.25623572" lon="-0.34595995"><ele>12.6</ele><time>2022-10-31T14:19:07.0000000+00:00</time></trkpt><trkpt lat="39.25618778" lon="-0.34595995"><ele>12.6</ele><time>2022-10-31T14:19:08.0000000+00:00</time></trkpt><trkpt lat="39.25614285" lon="-0.34595911"><ele>12.6</ele><time>2022-10-31T14:19:09.0000000+00:00</time></trkpt><trkpt lat="39.25609902" lon="-0.34595911"><ele>12.6</ele><time>2022-10-31T14:19:10.0000000+00:00</time></trkpt><trkpt lat="39.25606633" lon="-0.34596372"><ele>12.6</ele><time>2022-10-31T14:19:11.0000000+00:00</time></trkpt><trkpt lat="39.25604428" lon="-0.34596833"><ele>12.6</ele><time>2022-10-31T14:19:12.0000000+00:00</time></trkpt><trkpt lat="39.25602324" lon="-0.34596783"><ele>12.6</ele><time>2022-10-31T14:19:13.0000000+00:00</time></trkpt><trkpt lat="39.25600698" lon="-0.34596507"><ele>12.6</ele><time>2022-10-31T14:19:14.0000000+00:00</time></trkpt><trkpt lat="39.25599022" lon="-0.34596833"><ele>12.6</ele><time>2022-10-31T14:19:15.0000000+00:00</time></trkpt><trkpt lat="39.25597589" lon="-0.34597278"><ele>12.6</ele><time>2022-10-31T14:19:16.0000000+00:00</time></trkpt><trkpt lat="39.25596298" lon="-0.34597429"><ele>12.6</ele><time>2022-10-31T14:19:17.0000000+00:00</time></trkpt><trkpt lat="39.2559489" lon="-0.34597445"><ele>12.6</ele><time>2022-10-31T14:19:18.0000000+00:00</time></trkpt><trkpt lat="39.25593674" lon="-0.34596926"><ele>12.6</ele><time>2022-10-31T14:19:19.0000000+00:00</time></trkpt><trkpt lat="39.25592258" lon="-0.34595752"><ele>12.6</ele><time>2022-10-31T14:19:20.0000000+00:00</time></trkpt><trkpt lat="39.25591227" lon="-0.34594026"><ele>12.6</ele><time>2022-10-31T14:19:21.0000000+00:00</time></trkpt><trkpt lat="39.25590682" lon="-0.34591008"><ele>12.6</ele><time>2022-10-31T14:19:22.0000000+00:00</time></trkpt><trkpt lat="39.25590439" lon="-0.34588024"><ele>12.8</ele><time>2022-10-31T14:19:23.0000000+00:00</time></trkpt><trkpt lat="39.25590531" lon="-0.34582626"><ele>12.8</ele><time>2022-10-31T14:19:24.0000000+00:00</time></trkpt><trkpt lat="39.25590565" lon="-0.34577463"><ele>12.8</ele><time>2022-10-31T14:19:25.0000000+00:00</time></trkpt><trkpt lat="39.25590271" lon="-0.34571797"><ele>13.0</ele><time>2022-10-31T14:19:26.0000000+00:00</time></trkpt><trkpt lat="39.25589735" lon="-0.34567287"><ele>13.0</ele><time>2022-10-31T14:19:27.0000000+00:00</time></trkpt><trkpt lat="39.25589014" lon="-0.34561814"><ele>13.2</ele><time>2022-10-31T14:19:28.0000000+00:00</time></trkpt><trkpt lat="39.25588218" lon="-0.34554949"><ele>13.2</ele><time>2022-10-31T14:19:29.0000000+00:00</time></trkpt><trkpt lat="39.25587706" lon="-0.34548897"><ele>13.2</ele><time>2022-10-31T14:19:30.0000000+00:00</time></trkpt><trkpt lat="39.25587153" lon="-0.3454277"><ele>13.2</ele><time>2022-10-31T14:19:31.0000000+00:00</time></trkpt><trkpt lat="39.25586751" lon="-0.34536241"><ele>13.4</ele><time>2022-10-31T14:19:32.0000000+00:00</time></trkpt><trkpt lat="39.25586256" lon="-0.3453029"><ele>13.4</ele><time>2022-10-31T14:19:33.0000000+00:00</time></trkpt><trkpt lat="39.25585468" lon="-0.34524238"><ele>13.4</ele><time>2022-10-31T14:19:34.0000000+00:00</time></trkpt><trkpt lat="39.25584538" lon="-0.34518438"><ele>13.4</ele><time>2022-10-31T14:19:35.0000000+00:00</time></trkpt><trkpt lat="39.25583666" lon="-0.34512755"><ele>13.4</ele><time>2022-10-31T14:19:36.0000000+00:00</time></trkpt><trkpt lat="39.25582828" lon="-0.34506787"><ele>13.4</ele><time>2022-10-31T14:19:37.0000000+00:00</time></trkpt><trkpt lat="39.25581814" lon="-0.34500525"><ele>13.4</ele><time>2022-10-31T14:19:38.0000000+00:00</time></trkpt><trkpt lat="39.25581127" lon="-0.3449413"><ele>13.4</ele><time>2022-10-31T14:19:39.0000000+00:00</time></trkpt><trkpt lat="39.25580422" lon="-0.34488137"><ele>13.4</ele><time>2022-10-31T14:19:40.0000000+00:00</time></trkpt><trkpt lat="39.25579911" lon="-0.34482211"><ele>13.4</ele><time>2022-10-31T14:19:41.0000000+00:00</time></trkpt><trkpt lat="39.25579081" lon="-0.3447569"><ele>13.4</ele><time>2022-10-31T14:19:42.0000000+00:00</time></trkpt><trkpt lat="39.25578277" lon="-0.34469043"><ele>13.4</ele><time>2022-10-31T14:19:43.0000000+00:00</time></trkpt><trkpt lat="39.25577497" lon="-0.3446284"><ele>13.4</ele><time>2022-10-31T14:19:44.0000000+00:00</time></trkpt><trkpt lat="39.25576357" lon="-0.34456378"><ele>13.4</ele><time>2022-10-31T14:19:45.0000000+00:00</time></trkpt><trkpt lat="39.25575603" lon="-0.34449731"><ele>13.4</ele><time>2022-10-31T14:19:46.0000000+00:00</time></trkpt><trkpt lat="39.25574899" lon="-0.34443202"><ele>13.4</ele><time>2022-10-31T14:19:47.0000000+00:00</time></trkpt><trkpt lat="39.25574337" lon="-0.34436722"><ele>13.4</ele><time>2022-10-31T14:19:48.0000000+00:00</time></trkpt><trkpt lat="39.25573851" lon="-0.34431702"><ele>13.4</ele><time>2022-10-31T14:19:49.0000000+00:00</time></trkpt><trkpt lat="39.25573306" lon="-0.34424057"><ele>13.4</ele><time>2022-10-31T14:19:50.0000000+00:00</time></trkpt><trkpt lat="39.25573021" lon="-0.34417746"><ele>13.4</ele><time>2022-10-31T14:19:51.0000000+00:00</time></trkpt><trkpt lat="39.25573256" lon="-0.34411551"><ele>13.4</ele><time>2022-10-31T14:19:52.0000000+00:00</time></trkpt><trkpt lat="39.25574329" lon="-0.344056"><ele>13.2</ele><time>2022-10-31T14:19:53.0000000+00:00</time></trkpt><trkpt lat="39.25576089" lon="-0.34399733"><ele>13.2</ele><time>2022-10-31T14:19:54.0000000+00:00</time></trkpt><trkpt lat="39.25578721" lon="-0.34393983"><ele>13.4</ele><time>2022-10-31T14:19:55.0000000+00:00</time></trkpt><trkpt lat="39.25581688" lon="-0.34388401"><ele>13.4</ele><time>2022-10-31T14:19:56.0000000+00:00</time></trkpt><trkpt lat="39.25584597" lon="-0.3438307"><ele>13.4</ele><time>2022-10-31T14:19:57.0000000+00:00</time></trkpt><trkpt lat="39.25587405" lon="-0.34377823"><ele>13.4</ele><time>2022-10-31T14:19:58.0000000+00:00</time></trkpt><trkpt lat="39.25589852" lon="-0.34372425"><ele>13.4</ele><time>2022-10-31T14:19:59.0000000+00:00</time></trkpt><trkpt lat="39.2559178" lon="-0.34366633"><ele>13.6</ele><time>2022-10-31T14:20:00.0000000+00:00</time></trkpt><trkpt lat="39.25592635" lon="-0.34360531"><ele>13.8</ele><time>2022-10-31T14:20:01.0000000+00:00</time></trkpt><trkpt lat="39.25592803" lon="-0.34354504"><ele>14.0</ele><time>2022-10-31T14:20:02.0000000+00:00</time></trkpt><trkpt lat="39.25592174" lon="-0.3434914"><ele>14.0</ele><time>2022-10-31T14:20:03.0000000+00:00</time></trkpt><trkpt lat="39.25590674" lon="-0.34344136"><ele>14.2</ele><time>2022-10-31T14:20:04.0000000+00:00</time></trkpt><trkpt lat="39.25588494" lon="-0.34339501"><ele>14.0</ele><time>2022-10-31T14:20:05.0000000+00:00</time></trkpt><trkpt lat="39.25586457" lon="-0.3433479"><ele>13.6</ele><time>2022-10-31T14:20:06.0000000+00:00</time></trkpt><trkpt lat="39.2558437" lon="-0.3433023"><ele>13.6</ele><time>2022-10-31T14:20:07.0000000+00:00</time></trkpt><trkpt lat="39.2558209" lon="-0.3432531"><ele>13.4</ele><time>2022-10-31T14:20:08.0000000+00:00</time></trkpt><trkpt lat="39.25579769" lon="-0.34320423"><ele>13.4</ele><time>2022-10-31T14:20:09.0000000+00:00</time></trkpt><trkpt lat="39.25577606" lon="-0.34316576"><ele>13.4</ele><time>2022-10-31T14:20:10.0000000+00:00</time></trkpt><trkpt lat="39.25574547" lon="-0.34311664"><ele>13.4</ele><time>2022-10-31T14:20:11.0000000+00:00</time></trkpt><trkpt lat="39.25570549" lon="-0.34305948"><ele>13.4</ele><time>2022-10-31T14:20:12.0000000+00:00</time></trkpt><trkpt lat="39.25566685" lon="-0.34302059"><ele>13.4</ele><time>2022-10-31T14:20:13.0000000+00:00</time></trkpt><trkpt lat="39.255621" lon="-0.34299586"><ele>13.4</ele><time>2022-10-31T14:20:14.0000000+00:00</time></trkpt><trkpt lat="39.25556945" lon="-0.34298362"><ele>13.4</ele><time>2022-10-31T14:20:15.0000000+00:00</time></trkpt><trkpt lat="39.25551924" lon="-0.34297817"><ele>13.4</ele><time>2022-10-31T14:20:16.0000000+00:00</time></trkpt><trkpt lat="39.25546836" lon="-0.342976"><ele>13.2</ele><time>2022-10-31T14:20:17.0000000+00:00</time></trkpt><trkpt lat="39.25541916" lon="-0.34297139"><ele>13.2</ele><time>2022-10-31T14:20:18.0000000+00:00</time></trkpt><trkpt lat="39.25536744" lon="-0.34296434"><ele>13.0</ele><time>2022-10-31T14:20:19.0000000+00:00</time></trkpt><trkpt lat="39.25531648" lon="-0.34295797"><ele>13.0</ele><time>2022-10-31T14:20:20.0000000+00:00</time></trkpt><trkpt lat="39.25526669" lon="-0.3429532"><ele>13.0</ele><time>2022-10-31T14:20:21.0000000+00:00</time></trkpt><trkpt lat="39.25521414" lon="-0.34294708"><ele>13.0</ele><time>2022-10-31T14:20:22.0000000+00:00</time></trkpt><trkpt lat="39.25516192" lon="-0.34293803"><ele>13.0</ele><time>2022-10-31T14:20:23.0000000+00:00</time></trkpt><trkpt lat="39.25510794" lon="-0.34292168"><ele>13.0</ele><time>2022-10-31T14:20:24.0000000+00:00</time></trkpt><trkpt lat="39.25505773" lon="-0.34290718"><ele>13.0</ele><time>2022-10-31T14:20:25.0000000+00:00</time></trkpt><trkpt lat="39.2550082" lon="-0.34289117"><ele>13.0</ele><time>2022-10-31T14:20:26.0000000+00:00</time></trkpt><trkpt lat="39.25496377" lon="-0.34286787"><ele>13.0</ele><time>2022-10-31T14:20:27.0000000+00:00</time></trkpt><trkpt lat="39.25492262" lon="-0.34283199"><ele>13.0</ele><time>2022-10-31T14:20:28.0000000+00:00</time></trkpt><trkpt lat="39.25488523" lon="-0.34279109"><ele>13.2</ele><time>2022-10-31T14:20:29.0000000+00:00</time></trkpt><trkpt lat="39.25485137" lon="-0.34274248"><ele>13.4</ele><time>2022-10-31T14:20:30.0000000+00:00</time></trkpt><trkpt lat="39.25482321" lon="-0.34268271"><ele>13.6</ele><time>2022-10-31T14:20:31.0000000+00:00</time></trkpt><trkpt lat="39.25480074" lon="-0.34262404"><ele>13.6</ele><time>2022-10-31T14:20:32.0000000+00:00</time></trkpt><trkpt lat="39.25478289" lon="-0.34257685"><ele>13.6</ele><time>2022-10-31T14:20:33.0000000+00:00</time></trkpt><trkpt lat="39.2547595" lon="-0.3425025"><ele>13.8</ele><time>2022-10-31T14:20:34.0000000+00:00</time></trkpt><trkpt lat="39.25474282" lon="-0.34243897"><ele>13.6</ele><time>2022-10-31T14:20:35.0000000+00:00</time></trkpt><trkpt lat="39.25472606" lon="-0.34237459"><ele>13.6</ele><time>2022-10-31T14:20:36.0000000+00:00</time></trkpt><trkpt lat="39.25471156" lon="-0.34230628"><ele>13.6</ele><time>2022-10-31T14:20:37.0000000+00:00</time></trkpt><trkpt lat="39.25469941" lon="-0.3422368"><ele>13.6</ele><time>2022-10-31T14:20:38.0000000+00:00</time></trkpt><trkpt lat="39.25468817" lon="-0.34216605"><ele>13.6</ele><time>2022-10-31T14:20:39.0000000+00:00</time></trkpt><trkpt lat="39.25467862" lon="-0.34209606"><ele>13.6</ele><time>2022-10-31T14:20:40.0000000+00:00</time></trkpt><trkpt lat="39.25466714" lon="-0.34202666"><ele>13.6</ele><time>2022-10-31T14:20:41.0000000+00:00</time></trkpt><trkpt lat="39.25465758" lon="-0.3419581"><ele>13.6</ele><time>2022-10-31T14:20:42.0000000+00:00</time></trkpt><trkpt lat="39.25464794" lon="-0.34189054"><ele>13.6</ele><time>2022-10-31T14:20:43.0000000+00:00</time></trkpt><trkpt lat="39.25463973" lon="-0.34181887"><ele>13.6</ele><time>2022-10-31T14:20:44.0000000+00:00</time></trkpt><trkpt lat="39.25463093" lon="-0.3417436"><ele>13.6</ele><time>2022-10-31T14:20:45.0000000+00:00</time></trkpt><trkpt lat="39.2546202" lon="-0.34167403"><ele>13.6</ele><time>2022-10-31T14:20:46.0000000+00:00</time></trkpt><trkpt lat="39.25460955" lon="-0.34160698"><ele>13.6</ele><time>2022-10-31T14:20:47.0000000+00:00</time></trkpt><trkpt lat="39.25460033" lon="-0.34153858"><ele>13.6</ele><time>2022-10-31T14:20:48.0000000+00:00</time></trkpt><trkpt lat="39.25459237" lon="-0.34148444"><ele>13.6</ele><time>2022-10-31T14:20:49.0000000+00:00</time></trkpt><trkpt lat="39.25458139" lon="-0.34140347"><ele>13.6</ele><time>2022-10-31T14:20:50.0000000+00:00</time></trkpt><trkpt lat="39.25456991" lon="-0.34133934"><ele>13.6</ele><time>2022-10-31T14:20:51.0000000+00:00</time></trkpt><trkpt lat="39.25455784" lon="-0.34127464"><ele>13.6</ele><time>2022-10-31T14:20:52.0000000+00:00</time></trkpt><trkpt lat="39.25455038" lon="-0.34121932"><ele>13.6</ele><time>2022-10-31T14:20:53.0000000+00:00</time></trkpt><trkpt lat="39.25453923" lon="-0.34115586"><ele>13.6</ele><time>2022-10-31T14:20:54.0000000+00:00</time></trkpt><trkpt lat="39.25452422" lon="-0.34108428"><ele>13.6</ele><time>2022-10-31T14:20:55.0000000+00:00</time></trkpt><trkpt lat="39.25451442" lon="-0.34102586"><ele>13.6</ele><time>2022-10-31T14:20:56.0000000+00:00</time></trkpt><trkpt lat="39.25450746" lon="-0.34097834"><ele>13.6</ele><time>2022-10-31T14:20:57.0000000+00:00</time></trkpt><trkpt lat="39.25449656" lon="-0.34090793"><ele>13.6</ele><time>2022-10-31T14:20:58.0000000+00:00</time></trkpt><trkpt lat="39.25448818" lon="-0.34084699"><ele>13.6</ele><time>2022-10-31T14:20:59.0000000+00:00</time></trkpt><trkpt lat="39.25447636" lon="-0.34078329"><ele>13.6</ele><time>2022-10-31T14:21:00.0000000+00:00</time></trkpt><trkpt lat="39.25446362" lon="-0.34071833"><ele>13.4</ele><time>2022-10-31T14:21:01.0000000+00:00</time></trkpt><trkpt lat="39.25444728" lon="-0.34065639"><ele>13.2</ele><time>2022-10-31T14:21:02.0000000+00:00</time></trkpt><trkpt lat="39.25442515" lon="-0.34059486"><ele>13.2</ele><time>2022-10-31T14:21:03.0000000+00:00</time></trkpt><trkpt lat="39.25439925" lon="-0.34053166"><ele>13.2</ele><time>2022-10-31T14:21:04.0000000+00:00</time></trkpt><trkpt lat="39.2543705" lon="-0.3404693"><ele>13.2</ele><time>2022-10-31T14:21:05.0000000+00:00</time></trkpt><trkpt lat="39.25433856" lon="-0.34040862"><ele>13.4</ele><time>2022-10-31T14:21:06.0000000+00:00</time></trkpt><trkpt lat="39.25430127" lon="-0.34035414"><ele>13.4</ele><time>2022-10-31T14:21:07.0000000+00:00</time></trkpt><trkpt lat="39.25426254" lon="-0.34030502"><ele>13.4</ele><time>2022-10-31T14:21:08.0000000+00:00</time></trkpt><trkpt lat="39.25421988" lon="-0.34026043"><ele>13.4</ele><time>2022-10-31T14:21:09.0000000+00:00</time></trkpt><trkpt lat="39.25417428" lon="-0.34021759"><ele>13.4</ele><time>2022-10-31T14:21:10.0000000+00:00</time></trkpt><trkpt lat="39.25412944" lon="-0.34017392"><ele>13.4</ele><time>2022-10-31T14:21:11.0000000+00:00</time></trkpt><trkpt lat="39.25408652" lon="-0.34013227"><ele>13.2</ele><time>2022-10-31T14:21:12.0000000+00:00</time></trkpt><trkpt lat="39.25404134" lon="-0.34009329"><ele>13.2</ele><time>2022-10-31T14:21:13.0000000+00:00</time></trkpt><trkpt lat="39.25399742" lon="-0.34005641"><ele>13.0</ele><time>2022-10-31T14:21:14.0000000+00:00</time></trkpt><trkpt lat="39.25395518" lon="-0.34002523"><ele>13.0</ele><time>2022-10-31T14:21:15.0000000+00:00</time></trkpt><trkpt lat="39.25391285" lon="-0.33999531"><ele>12.6</ele><time>2022-10-31T14:21:16.0000000+00:00</time></trkpt><trkpt lat="39.25386683" lon="-0.33996614"><ele>12.6</ele><time>2022-10-31T14:21:17.0000000+00:00</time></trkpt><trkpt lat="39.25382174" lon="-0.33993211"><ele>12.4</ele><time>2022-10-31T14:21:18.0000000+00:00</time></trkpt><trkpt lat="39.25378016" lon="-0.33989338"><ele>12.4</ele><time>2022-10-31T14:21:19.0000000+00:00</time></trkpt><trkpt lat="39.25373934" lon="-0.33985642"><ele>12.4</ele><time>2022-10-31T14:21:20.0000000+00:00</time></trkpt><trkpt lat="39.25369626" lon="-0.33982038"><ele>12.8</ele><time>2022-10-31T14:21:21.0000000+00:00</time></trkpt><trkpt lat="39.25365058" lon="-0.33978433"><ele>12.8</ele><time>2022-10-31T14:21:22.0000000+00:00</time></trkpt><trkpt lat="39.25360465" lon="-0.33974729"><ele>13.0</ele><time>2022-10-31T14:21:23.0000000+00:00</time></trkpt><trkpt lat="39.25357112" lon="-0.33971594"><ele>13.2</ele><time>2022-10-31T14:21:24.0000000+00:00</time></trkpt><trkpt lat="39.25352066" lon="-0.33966942"><ele>13.2</ele><time>2022-10-31T14:21:25.0000000+00:00</time></trkpt><trkpt lat="39.25347724" lon="-0.33962994"><ele>13.2</ele><time>2022-10-31T14:21:26.0000000+00:00</time></trkpt><trkpt lat="39.25343382" lon="-0.33959121"><ele>13.2</ele><time>2022-10-31T14:21:27.0000000+00:00</time></trkpt><trkpt lat="39.25338965" lon="-0.33955358"><ele>13.2</ele><time>2022-10-31T14:21:28.0000000+00:00</time></trkpt><trkpt lat="39.25334766" lon="-0.33951955"><ele>13.2</ele><time>2022-10-31T14:21:29.0000000+00:00</time></trkpt><trkpt lat="39.25330608" lon="-0.33948493"><ele>13.2</ele><time>2022-10-31T14:21:30.0000000+00:00</time></trkpt><trkpt lat="39.25326442" lon="-0.33944436"><ele>13.2</ele><time>2022-10-31T14:21:31.0000000+00:00</time></trkpt><trkpt lat="39.25322218" lon="-0.3394079"><ele>13.0</ele><time>2022-10-31T14:21:32.0000000+00:00</time></trkpt><trkpt lat="39.25317968" lon="-0.33936909"><ele>13.0</ele><time>2022-10-31T14:21:33.0000000+00:00</time></trkpt><trkpt lat="39.25313518" lon="-0.33933045"><ele>13.0</ele><time>2022-10-31T14:21:34.0000000+00:00</time></trkpt><trkpt lat="39.25309125" lon="-0.33929475"><ele>13.0</ele><time>2022-10-31T14:21:35.0000000+00:00</time></trkpt><trkpt lat="39.25305588" lon="-0.33926943"><ele>13.0</ele><time>2022-10-31T14:21:36.0000000+00:00</time></trkpt><trkpt lat="39.2530097" lon="-0.33924043"><ele>13.0</ele><time>2022-10-31T14:21:37.0000000+00:00</time></trkpt><trkpt lat="39.2529548" lon="-0.33920229"><ele>13.0</ele><time>2022-10-31T14:21:38.0000000+00:00</time></trkpt><trkpt lat="39.25290643" lon="-0.33917178"><ele>13.0</ele><time>2022-10-31T14:21:39.0000000+00:00</time></trkpt><trkpt lat="39.25285757" lon="-0.33914086"><ele>13.0</ele><time>2022-10-31T14:21:40.0000000+00:00</time></trkpt><trkpt lat="39.25281121" lon="-0.33911026"><ele>13.0</ele><time>2022-10-31T14:21:41.0000000+00:00</time></trkpt><trkpt lat="39.25276478" lon="-0.339079"><ele>13.0</ele><time>2022-10-31T14:21:42.0000000+00:00</time></trkpt><trkpt lat="39.252716" lon="-0.33904907"><ele>13.0</ele><time>2022-10-31T14:21:43.0000000+00:00</time></trkpt><trkpt lat="39.25266931" lon="-0.3390189"><ele>13.0</ele><time>2022-10-31T14:21:44.0000000+00:00</time></trkpt><trkpt lat="39.25262396" lon="-0.33898705"><ele>13.0</ele><time>2022-10-31T14:21:45.0000000+00:00</time></trkpt><trkpt lat="39.25257484" lon="-0.33895285"><ele>13.0</ele><time>2022-10-31T14:21:46.0000000+00:00</time></trkpt><trkpt lat="39.25252606" lon="-0.33892083"><ele>13.0</ele><time>2022-10-31T14:21:47.0000000+00:00</time></trkpt><trkpt lat="39.25248063" lon="-0.33889619"><ele>13.0</ele><time>2022-10-31T14:21:48.0000000+00:00</time></trkpt><trkpt lat="39.25243537" lon="-0.3388718"><ele>13.2</ele><time>2022-10-31T14:21:49.0000000+00:00</time></trkpt><trkpt lat="39.25238642" lon="-0.33884548"><ele>13.2</ele><time>2022-10-31T14:21:50.0000000+00:00</time></trkpt><trkpt lat="39.25234141" lon="-0.33882"><ele>13.2</ele><time>2022-10-31T14:21:51.0000000+00:00</time></trkpt><trkpt lat="39.25230897" lon="-0.33880306"><ele>13.2</ele><time>2022-10-31T14:21:52.0000000+00:00</time></trkpt><trkpt lat="39.25226379" lon="-0.33877633"><ele>13.2</ele><time>2022-10-31T14:21:53.0000000+00:00</time></trkpt><trkpt lat="39.25222792" lon="-0.3387568"><ele>13.0</ele><time>2022-10-31T14:21:54.0000000+00:00</time></trkpt><trkpt lat="39.25219229" lon="-0.33874054"><ele>12.8</ele><time>2022-10-31T14:21:55.0000000+00:00</time></trkpt><trkpt lat="39.25215768" lon="-0.33872411"><ele>12.8</ele><time>2022-10-31T14:21:56.0000000+00:00</time></trkpt><trkpt lat="39.25212423" lon="-0.33871237"><ele>12.6</ele><time>2022-10-31T14:21:57.0000000+00:00</time></trkpt><trkpt lat="39.252099" lon="-0.33870676"><ele>12.4</ele><time>2022-10-31T14:21:58.0000000+00:00</time></trkpt><trkpt lat="39.25206129" lon="-0.33870047"><ele>12.4</ele><time>2022-10-31T14:21:59.0000000+00:00</time></trkpt><trkpt lat="39.25203245" lon="-0.33869888"><ele>12.4</ele><time>2022-10-31T14:22:00.0000000+00:00</time></trkpt><trkpt lat="39.2520006" lon="-0.33869108"><ele>12.6</ele><time>2022-10-31T14:22:01.0000000+00:00</time></trkpt><trkpt lat="39.25196883" lon="-0.33868589"><ele>12.6</ele><time>2022-10-31T14:22:02.0000000+00:00</time></trkpt><trkpt lat="39.25193832" lon="-0.33868077"><ele>12.6</ele><time>2022-10-31T14:22:03.0000000+00:00</time></trkpt><trkpt lat="39.25190446" lon="-0.33867264"><ele>12.8</ele><time>2022-10-31T14:22:04.0000000+00:00</time></trkpt><trkpt lat="39.25186783" lon="-0.33866761"><ele>12.8</ele><time>2022-10-31T14:22:05.0000000+00:00</time></trkpt><trkpt lat="39.25182877" lon="-0.3386594"><ele>13.0</ele><time>2022-10-31T14:22:06.0000000+00:00</time></trkpt><trkpt lat="39.25179256" lon="-0.33864942"><ele>13.0</ele><time>2022-10-31T14:22:07.0000000+00:00</time></trkpt><trkpt lat="39.25174034" lon="-0.33863819"><ele>13.0</ele><time>2022-10-31T14:22:08.0000000+00:00</time></trkpt><trkpt lat="39.25169827" lon="-0.33862805"><ele>13.0</ele><time>2022-10-31T14:22:09.0000000+00:00</time></trkpt><trkpt lat="39.25166264" lon="-0.33862009"><ele>13.0</ele><time>2022-10-31T14:22:10.0000000+00:00</time></trkpt><trkpt lat="39.25160774" lon="-0.33860869"><ele>13.0</ele><time>2022-10-31T14:22:11.0000000+00:00</time></trkpt><trkpt lat="39.25155954" lon="-0.33859813"><ele>13.0</ele><time>2022-10-31T14:22:12.0000000+00:00</time></trkpt><trkpt lat="39.25150925" lon="-0.33859109"><ele>13.0</ele><time>2022-10-31T14:22:13.0000000+00:00</time></trkpt><trkpt lat="39.25145712" lon="-0.33858648"><ele>13.0</ele><time>2022-10-31T14:22:14.0000000+00:00</time></trkpt><trkpt lat="39.25140423" lon="-0.33858648"><ele>13.0</ele><time>2022-10-31T14:22:15.0000000+00:00</time></trkpt><trkpt lat="39.25135193" lon="-0.33858589"><ele>13.2</ele><time>2022-10-31T14:22:16.0000000+00:00</time></trkpt><trkpt lat="39.25129862" lon="-0.3385869"><ele>13.2</ele><time>2022-10-31T14:22:17.0000000+00:00</time></trkpt><trkpt lat="39.2512433" lon="-0.33858966"><ele>13.2</ele><time>2022-10-31T14:22:18.0000000+00:00</time></trkpt><trkpt lat="39.25119862" lon="-0.33859201"><ele>13.2</ele><time>2022-10-31T14:22:19.0000000+00:00</time></trkpt><trkpt lat="39.25114405" lon="-0.33859327"><ele>13.4</ele><time>2022-10-31T14:22:20.0000000+00:00</time></trkpt><trkpt lat="39.25108194" lon="-0.33859813"><ele>13.4</ele><time>2022-10-31T14:22:21.0000000+00:00</time></trkpt><trkpt lat="39.25103358" lon="-0.33860358"><ele>13.2</ele><time>2022-10-31T14:22:22.0000000+00:00</time></trkpt><trkpt lat="39.25098673" lon="-0.33860408"><ele>13.2</ele><time>2022-10-31T14:22:23.0000000+00:00</time></trkpt><trkpt lat="39.25093786" lon="-0.33860014"><ele>13.2</ele><time>2022-10-31T14:22:24.0000000+00:00</time></trkpt><trkpt lat="39.25089008" lon="-0.33859779"><ele>13.2</ele><time>2022-10-31T14:22:25.0000000+00:00</time></trkpt><trkpt lat="39.25085546" lon="-0.33859561"><ele>13.2</ele><time>2022-10-31T14:22:26.0000000+00:00</time></trkpt><trkpt lat="39.25080936" lon="-0.33858832"><ele>13.2</ele><time>2022-10-31T14:22:27.0000000+00:00</time></trkpt><trkpt lat="39.25078112" lon="-0.33857239"><ele>13.2</ele><time>2022-10-31T14:22:28.0000000+00:00</time></trkpt><trkpt lat="39.25076402" lon="-0.33854859"><ele>13.4</ele><time>2022-10-31T14:22:29.0000000+00:00</time></trkpt><trkpt lat="39.25075857" lon="-0.33852034"><ele>13.4</ele><time>2022-10-31T14:22:30.0000000+00:00</time></trkpt><trkpt lat="39.25076217" lon="-0.33849486"><ele>13.6</ele><time>2022-10-31T14:22:31.0000000+00:00</time></trkpt><trkpt lat="39.25076804" lon="-0.33847449"><ele>13.8</ele><time>2022-10-31T14:22:32.0000000+00:00</time></trkpt><trkpt lat="39.25077491" lon="-0.33844432"><ele>13.8</ele><time>2022-10-31T14:22:33.0000000+00:00</time></trkpt><trkpt lat="39.25078221" lon="-0.33842563"><ele>13.8</ele><time>2022-10-31T14:22:34.0000000+00:00</time></trkpt><trkpt lat="39.25078908" lon="-0.33840182"><ele>13.8</ele><time>2022-10-31T14:22:35.0000000+00:00</time></trkpt><trkpt lat="39.25080031" lon="-0.3383683"><ele>13.8</ele><time>2022-10-31T14:22:36.0000000+00:00</time></trkpt><trkpt lat="39.25081322" lon="-0.33833703"><ele>13.8</ele><time>2022-10-31T14:22:37.0000000+00:00</time></trkpt><trkpt lat="39.25082864" lon="-0.33830761"><ele>13.8</ele><time>2022-10-31T14:22:38.0000000+00:00</time></trkpt><trkpt lat="39.25084935" lon="-0.33826076"><ele>14.0</ele><time>2022-10-31T14:22:39.0000000+00:00</time></trkpt><trkpt lat="39.25086586" lon="-0.33821449"><ele>14.0</ele><time>2022-10-31T14:22:40.0000000+00:00</time></trkpt><trkpt lat="39.25087684" lon="-0.3381756"><ele>14.0</ele><time>2022-10-31T14:22:41.0000000+00:00</time></trkpt><trkpt lat="39.25089042" lon="-0.33812472"><ele>14.2</ele><time>2022-10-31T14:22:42.0000000+00:00</time></trkpt><trkpt lat="39.25090517" lon="-0.33806546"><ele>14.2</ele><time>2022-10-31T14:22:43.0000000+00:00</time></trkpt><trkpt lat="39.25091892" lon="-0.33802556"><ele>14.2</ele><time>2022-10-31T14:22:44.0000000+00:00</time></trkpt><trkpt lat="39.25094456" lon="-0.33796731"><ele>14.2</ele><time>2022-10-31T14:22:45.0000000+00:00</time></trkpt><trkpt lat="39.25096409" lon="-0.33791936"><ele>14.0</ele><time>2022-10-31T14:22:46.0000000+00:00</time></trkpt><trkpt lat="39.250977" lon="-0.33787971"><ele>14.0</ele><time>2022-10-31T14:22:47.0000000+00:00</time></trkpt><trkpt lat="39.2509936" lon="-0.33782146"><ele>14.2</ele><time>2022-10-31T14:22:48.0000000+00:00</time></trkpt><trkpt lat="39.25100651" lon="-0.33777352"><ele>14.2</ele><time>2022-10-31T14:22:49.0000000+00:00</time></trkpt><trkpt lat="39.25101514" lon="-0.33773638"><ele>14.2</ele><time>2022-10-31T14:22:50.0000000+00:00</time></trkpt><trkpt lat="39.25103065" lon="-0.3376871"><ele>14.4</ele><time>2022-10-31T14:22:51.0000000+00:00</time></trkpt><trkpt lat="39.25104179" lon="-0.33764762"><ele>14.4</ele><time>2022-10-31T14:22:52.0000000+00:00</time></trkpt><trkpt lat="39.25105445" lon="-0.33760697"><ele>14.4</ele><time>2022-10-31T14:22:53.0000000+00:00</time></trkpt><trkpt lat="39.25107256" lon="-0.3375638"><ele>14.4</ele><time>2022-10-31T14:22:54.0000000+00:00</time></trkpt><trkpt lat="39.25109041" lon="-0.33751963"><ele>14.4</ele><time>2022-10-31T14:22:55.0000000+00:00</time></trkpt><trkpt lat="39.25110533" lon="-0.3374695"><ele>14.2</ele><time>2022-10-31T14:22:56.0000000+00:00</time></trkpt><trkpt lat="39.25111589" lon="-0.3374208"><ele>14.0</ele><time>2022-10-31T14:22:57.0000000+00:00</time></trkpt><trkpt lat="39.25112587" lon="-0.33738233"><ele>14.0</ele><time>2022-10-31T14:22:58.0000000+00:00</time></trkpt><trkpt lat="39.25114037" lon="-0.33733548"><ele>14.2</ele><time>2022-10-31T14:22:59.0000000+00:00</time></trkpt><trkpt lat="39.25115378" lon="-0.33728762"><ele>14.0</ele><time>2022-10-31T14:23:00.0000000+00:00</time></trkpt><trkpt lat="39.25116912" lon="-0.33722769"><ele>14.0</ele><time>2022-10-31T14:23:01.0000000+00:00</time></trkpt><trkpt lat="39.25118026" lon="-0.33718544"><ele>14.2</ele><time>2022-10-31T14:23:02.0000000+00:00</time></trkpt><trkpt lat="39.2511946" lon="-0.33713314"><ele>14.2</ele><time>2022-10-31T14:23:03.0000000+00:00</time></trkpt><trkpt lat="39.25121228" lon="-0.3370686"><ele>14.2</ele><time>2022-10-31T14:23:04.0000000+00:00</time></trkpt><trkpt lat="39.25122963" lon="-0.3370121"><ele>14.2</ele><time>2022-10-31T14:23:05.0000000+00:00</time></trkpt><trkpt lat="39.25124439" lon="-0.3369676"><ele>14.2</ele><time>2022-10-31T14:23:06.0000000+00:00</time></trkpt><trkpt lat="39.25126148" lon="-0.33691328"><ele>14.2</ele><time>2022-10-31T14:23:07.0000000+00:00</time></trkpt><trkpt lat="39.25127674" lon="-0.33684354"><ele>14.2</ele><time>2022-10-31T14:23:08.0000000+00:00</time></trkpt><trkpt lat="39.25128982" lon="-0.33678588"><ele>14.4</ele><time>2022-10-31T14:23:09.0000000+00:00</time></trkpt><trkpt lat="39.25130532" lon="-0.33672687"><ele>14.4</ele><time>2022-10-31T14:23:10.0000000+00:00</time></trkpt><trkpt lat="39.25131831" lon="-0.33666828"><ele>14.4</ele><time>2022-10-31T14:23:11.0000000+00:00</time></trkpt><trkpt lat="39.25132686" lon="-0.33660634"><ele>14.4</ele><time>2022-10-31T14:23:12.0000000+00:00</time></trkpt><trkpt lat="39.25133633" lon="-0.33654355"><ele>14.4</ele><time>2022-10-31T14:23:13.0000000+00:00</time></trkpt><trkpt lat="39.25134597" lon="-0.33648019"><ele>14.4</ele><time>2022-10-31T14:23:14.0000000+00:00</time></trkpt><trkpt lat="39.25135352" lon="-0.3364169"><ele>14.4</ele><time>2022-10-31T14:23:15.0000000+00:00</time></trkpt><trkpt lat="39.25136215" lon="-0.33635278"><ele>14.4</ele><time>2022-10-31T14:23:16.0000000+00:00</time></trkpt><trkpt lat="39.25137229" lon="-0.33628707"><ele>14.4</ele><time>2022-10-31T14:23:17.0000000+00:00</time></trkpt><trkpt lat="39.25137858" lon="-0.3362351"><ele>14.4</ele><time>2022-10-31T14:23:18.0000000+00:00</time></trkpt><trkpt lat="39.25138746" lon="-0.33615883"><ele>14.4</ele><time>2022-10-31T14:23:19.0000000+00:00</time></trkpt><trkpt lat="39.25139291" lon="-0.33609093"><ele>14.4</ele><time>2022-10-31T14:23:20.0000000+00:00</time></trkpt><trkpt lat="39.25140004" lon="-0.33602438"><ele>14.4</ele><time>2022-10-31T14:23:21.0000000+00:00</time></trkpt><trkpt lat="39.25141311" lon="-0.33596101"><ele>14.4</ele><time>2022-10-31T14:23:22.0000000+00:00</time></trkpt><trkpt lat="39.25143298" lon="-0.33589999"><ele>14.6</ele><time>2022-10-31T14:23:23.0000000+00:00</time></trkpt><trkpt lat="39.25145343" lon="-0.33585523"><ele>14.6</ele><time>2022-10-31T14:23:24.0000000+00:00</time></trkpt><trkpt lat="39.25149324" lon="-0.33579706"><ele>14.6</ele><time>2022-10-31T14:23:25.0000000+00:00</time></trkpt><trkpt lat="39.25152744" lon="-0.33576421"><ele>14.6</ele><time>2022-10-31T14:23:26.0000000+00:00</time></trkpt><trkpt lat="39.251581" lon="-0.33571618"><ele>14.6</ele><time>2022-10-31T14:23:27.0000000+00:00</time></trkpt><trkpt lat="39.25162601" lon="-0.33567946"><ele>14.6</ele><time>2022-10-31T14:23:28.0000000+00:00</time></trkpt><trkpt lat="39.2516758" lon="-0.33564384"><ele>14.8</ele><time>2022-10-31T14:23:29.0000000+00:00</time></trkpt><trkpt lat="39.25171662" lon="-0.33561685"><ele>14.8</ele><time>2022-10-31T14:23:30.0000000+00:00</time></trkpt><trkpt lat="39.25177303" lon="-0.33557184"><ele>14.8</ele><time>2022-10-31T14:23:31.0000000+00:00</time></trkpt><trkpt lat="39.25182165" lon="-0.33553555"><ele>14.8</ele><time>2022-10-31T14:23:32.0000000+00:00</time></trkpt><trkpt lat="39.2518602" lon="-0.33550764"><ele>14.8</ele><time>2022-10-31T14:23:33.0000000+00:00</time></trkpt><trkpt lat="39.25190756" lon="-0.33547067"><ele>14.8</ele><time>2022-10-31T14:23:34.0000000+00:00</time></trkpt><trkpt lat="39.25196548" lon="-0.33542616"><ele>14.8</ele><time>2022-10-31T14:23:35.0000000+00:00</time></trkpt><trkpt lat="39.25200077" lon="-0.33539649"><ele>14.6</ele><time>2022-10-31T14:23:36.0000000+00:00</time></trkpt><trkpt lat="39.25205399" lon="-0.33534888"><ele>14.6</ele><time>2022-10-31T14:23:37.0000000+00:00</time></trkpt><trkpt lat="39.25209699" lon="-0.33531301"><ele>14.4</ele><time>2022-10-31T14:23:38.0000000+00:00</time></trkpt><trkpt lat="39.2521306" lon="-0.33528602"><ele>14.2</ele><time>2022-10-31T14:23:39.0000000+00:00</time></trkpt><trkpt lat="39.25218492" lon="-0.33524453"><ele>14.2</ele><time>2022-10-31T14:23:40.0000000+00:00</time></trkpt><trkpt lat="39.2522358" lon="-0.3352115"><ele>14.2</ele><time>2022-10-31T14:23:41.0000000+00:00</time></trkpt><trkpt lat="39.25227284" lon="-0.33518552"><ele>14.2</ele><time>2022-10-31T14:23:42.0000000+00:00</time></trkpt><trkpt lat="39.25232959" lon="-0.33514503"><ele>14.2</ele><time>2022-10-31T14:23:43.0000000+00:00</time></trkpt><trkpt lat="39.2523751" lon="-0.33510899"><ele>14.2</ele><time>2022-10-31T14:23:44.0000000+00:00</time></trkpt><trkpt lat="39.25241081" lon="-0.33508242"><ele>14.2</ele><time>2022-10-31T14:23:45.0000000+00:00</time></trkpt><trkpt lat="39.25245599" lon="-0.33504856"><ele>14.2</ele><time>2022-10-31T14:23:46.0000000+00:00</time></trkpt><trkpt lat="39.25249832" lon="-0.33501612"><ele>14.4</ele><time>2022-10-31T14:23:47.0000000+00:00</time></trkpt><trkpt lat="39.2525507" lon="-0.33497488"><ele>14.4</ele><time>2022-10-31T14:23:48.0000000+00:00</time></trkpt><trkpt lat="39.25258784" lon="-0.33494915"><ele>14.4</ele><time>2022-10-31T14:23:49.0000000+00:00</time></trkpt><trkpt lat="39.25263151" lon="-0.33491814"><ele>14.4</ele><time>2022-10-31T14:23:50.0000000+00:00</time></trkpt><trkpt lat="39.25267551" lon="-0.33488402"><ele>14.2</ele><time>2022-10-31T14:23:51.0000000+00:00</time></trkpt><trkpt lat="39.25271994" lon="-0.33485184"><ele>14.4</ele><time>2022-10-31T14:23:52.0000000+00:00</time></trkpt><trkpt lat="39.25277383" lon="-0.33481211"><ele>14.4</ele><time>2022-10-31T14:23:53.0000000+00:00</time></trkpt><trkpt lat="39.25281658" lon="-0.33477891"><ele>14.4</ele><time>2022-10-31T14:23:54.0000000+00:00</time></trkpt><trkpt lat="39.25285731" lon="-0.33474614"><ele>14.6</ele><time>2022-10-31T14:23:55.0000000+00:00</time></trkpt><trkpt lat="39.25289922" lon="-0.33471404"><ele>14.6</ele><time>2022-10-31T14:23:56.0000000+00:00</time></trkpt><trkpt lat="39.25294214" lon="-0.33468227"><ele>14.8</ele><time>2022-10-31T14:23:57.0000000+00:00</time></trkpt><trkpt lat="39.25297516" lon="-0.3346583"><ele>14.6</ele><time>2022-10-31T14:23:58.0000000+00:00</time></trkpt><trkpt lat="39.25301682" lon="-0.33462552"><ele>14.6</ele><time>2022-10-31T14:23:59.0000000+00:00</time></trkpt><trkpt lat="39.25306921" lon="-0.3345894"><ele>14.4</ele><time>2022-10-31T14:24:00.0000000+00:00</time></trkpt><trkpt lat="39.25310567" lon="-0.33456375"><ele>14.4</ele><time>2022-10-31T14:24:01.0000000+00:00</time></trkpt><trkpt lat="39.25314607" lon="-0.33452737"><ele>14.4</ele><time>2022-10-31T14:24:02.0000000+00:00</time></trkpt><trkpt lat="39.25319234" lon="-0.33447499"><ele>14.4</ele><time>2022-10-31T14:24:03.0000000+00:00</time></trkpt><trkpt lat="39.2532169" lon="-0.33443634"><ele>14.4</ele><time>2022-10-31T14:24:04.0000000+00:00</time></trkpt><trkpt lat="39.25323903" lon="-0.33437147"><ele>14.2</ele><time>2022-10-31T14:24:05.0000000+00:00</time></trkpt><trkpt lat="39.25323953" lon="-0.3343081"><ele>14.2</ele><time>2022-10-31T14:24:06.0000000+00:00</time></trkpt><trkpt lat="39.25323006" lon="-0.33425689"><ele>14.2</ele><time>2022-10-31T14:24:07.0000000+00:00</time></trkpt><trkpt lat="39.25321288" lon="-0.33420257"><ele>14.2</ele><time>2022-10-31T14:24:08.0000000+00:00</time></trkpt><trkpt lat="39.25318949" lon="-0.33413904"><ele>14.0</ele><time>2022-10-31T14:24:09.0000000+00:00</time></trkpt><trkpt lat="39.25317532" lon="-0.33409378"><ele>14.0</ele><time>2022-10-31T14:24:10.0000000+00:00</time></trkpt><trkpt lat="39.25315512" lon="-0.33402756"><ele>14.0</ele><time>2022-10-31T14:24:11.0000000+00:00</time></trkpt><trkpt lat="39.25313685" lon="-0.33397199"><ele>13.8</ele><time>2022-10-31T14:24:12.0000000+00:00</time></trkpt><trkpt lat="39.25311933" lon="-0.3339289"><ele>13.8</ele><time>2022-10-31T14:24:13.0000000+00:00</time></trkpt><trkpt lat="39.25308991" lon="-0.33386319"><ele>13.8</ele><time>2022-10-31T14:24:14.0000000+00:00</time></trkpt><trkpt lat="39.25306385" lon="-0.33381072"><ele>13.8</ele><time>2022-10-31T14:24:15.0000000+00:00</time></trkpt><trkpt lat="39.25304314" lon="-0.33376772"><ele>13.8</ele><time>2022-10-31T14:24:16.0000000+00:00</time></trkpt><trkpt lat="39.25301422" lon="-0.33370209"><ele>13.6</ele><time>2022-10-31T14:24:17.0000000+00:00</time></trkpt><trkpt lat="39.25299796" lon="-0.33365842"><ele>13.6</ele><time>2022-10-31T14:24:18.0000000+00:00</time></trkpt><trkpt lat="39.25298262" lon="-0.33360444"><ele>13.6</ele><time>2022-10-31T14:24:19.0000000+00:00</time></trkpt><trkpt lat="39.25297164" lon="-0.33354191"><ele>13.6</ele><time>2022-10-31T14:24:20.0000000+00:00</time></trkpt><trkpt lat="39.25296075" lon="-0.33346949"><ele>13.8</ele><time>2022-10-31T14:24:21.0000000+00:00</time></trkpt><trkpt lat="39.25295756" lon="-0.33341677"><ele>13.8</ele><time>2022-10-31T14:24:22.0000000+00:00</time></trkpt><trkpt lat="39.25295153" lon="-0.33334125"><ele>13.8</ele><time>2022-10-31T14:24:23.0000000+00:00</time></trkpt><trkpt lat="39.25294968" lon="-0.33327738"><ele>13.8</ele><time>2022-10-31T14:24:24.0000000+00:00</time></trkpt><trkpt lat="39.2529496" lon="-0.33322524"><ele>14.0</ele><time>2022-10-31T14:24:25.0000000+00:00</time></trkpt><trkpt lat="39.25295027" lon="-0.33315995"><ele>14.0</ele><time>2022-10-31T14:24:26.0000000+00:00</time></trkpt><trkpt lat="39.25295396" lon="-0.33308283"><ele>14.0</ele><time>2022-10-31T14:24:27.0000000+00:00</time></trkpt><trkpt lat="39.25295631" lon="-0.33303112"><ele>14.0</ele><time>2022-10-31T14:24:28.0000000+00:00</time></trkpt><trkpt lat="39.25295907" lon="-0.33296867"><ele>14.0</ele><time>2022-10-31T14:24:29.0000000+00:00</time></trkpt><trkpt lat="39.25296242" lon="-0.33288578"><ele>14.0</ele><time>2022-10-31T14:24:30.0000000+00:00</time></trkpt><trkpt lat="39.25296485" lon="-0.33281864"><ele>14.0</ele><time>2022-10-31T14:24:31.0000000+00:00</time></trkpt><trkpt lat="39.25296821" lon="-0.33275108"><ele>14.0</ele><time>2022-10-31T14:24:32.0000000+00:00</time></trkpt><trkpt lat="39.25297131" lon="-0.33268453"><ele>14.0</ele><time>2022-10-31T14:24:33.0000000+00:00</time></trkpt><trkpt lat="39.25297315" lon="-0.33263231"><ele>14.0</ele><time>2022-10-31T14:24:34.0000000+00:00</time></trkpt><trkpt lat="39.25297927" lon="-0.33254882"><ele>14.0</ele><time>2022-10-31T14:24:35.0000000+00:00</time></trkpt><trkpt lat="39.25298531" lon="-0.3324811"><ele>14.0</ele><time>2022-10-31T14:24:36.0000000+00:00</time></trkpt><trkpt lat="39.25298832" lon="-0.33242896"><ele>14.0</ele><time>2022-10-31T14:24:37.0000000+00:00</time></trkpt><trkpt lat="39.2529905" lon="-0.33235042"><ele>14.0</ele><time>2022-10-31T14:24:38.0000000+00:00</time></trkpt><trkpt lat="39.25299126" lon="-0.33228823"><ele>14.0</ele><time>2022-10-31T14:24:39.0000000+00:00</time></trkpt><trkpt lat="39.25299444" lon="-0.33222595"><ele>14.0</ele><time>2022-10-31T14:24:40.0000000+00:00</time></trkpt><trkpt lat="39.2529988" lon="-0.33216259"><ele>14.4</ele><time>2022-10-31T14:24:41.0000000+00:00</time></trkpt><trkpt lat="39.25300551" lon="-0.3320967"><ele>14.8</ele><time>2022-10-31T14:24:42.0000000+00:00</time></trkpt><trkpt lat="39.25301028" lon="-0.33204549"><ele>15.0</ele><time>2022-10-31T14:24:43.0000000+00:00</time></trkpt><trkpt lat="39.25301665" lon="-0.33197743"><ele>15.0</ele><time>2022-10-31T14:24:44.0000000+00:00</time></trkpt><trkpt lat="39.25301967" lon="-0.33193443"><ele>15.0</ele><time>2022-10-31T14:24:45.0000000+00:00</time></trkpt><trkpt lat="39.25302655" lon="-0.33187366"><ele>14.8</ele><time>2022-10-31T14:24:46.0000000+00:00</time></trkpt><trkpt lat="39.2530361" lon="-0.33182647"><ele>14.6</ele><time>2022-10-31T14:24:47.0000000+00:00</time></trkpt><trkpt lat="39.25304423" lon="-0.33178138"><ele>14.4</ele><time>2022-10-31T14:24:48.0000000+00:00</time></trkpt><trkpt lat="39.25305219" lon="-0.33174743"><ele>14.4</ele><time>2022-10-31T14:24:49.0000000+00:00</time></trkpt><trkpt lat="39.25307323" lon="-0.33171147"><ele>14.2</ele><time>2022-10-31T14:24:50.0000000+00:00</time></trkpt><trkpt lat="39.2531024" lon="-0.33167845"><ele>14.2</ele><time>2022-10-31T14:24:51.0000000+00:00</time></trkpt><trkpt lat="39.25314155" lon="-0.33163914"><ele>14.4</ele><time>2022-10-31T14:24:52.0000000+00:00</time></trkpt><trkpt lat="39.25317692" lon="-0.33160879"><ele>14.2</ele><time>2022-10-31T14:24:53.0000000+00:00</time></trkpt><trkpt lat="39.25321288" lon="-0.33157669"><ele>14.0</ele><time>2022-10-31T14:24:54.0000000+00:00</time></trkpt><trkpt lat="39.25324196" lon="-0.33154903"><ele>14.0</ele><time>2022-10-31T14:24:55.0000000+00:00</time></trkpt><trkpt lat="39.25328345" lon="-0.33150503"><ele>14.2</ele><time>2022-10-31T14:24:56.0000000+00:00</time></trkpt><trkpt lat="39.25332033" lon="-0.33146764"><ele>14.0</ele><time>2022-10-31T14:24:57.0000000+00:00</time></trkpt><trkpt lat="39.25334833" lon="-0.33143361"><ele>14.0</ele><time>2022-10-31T14:24:58.0000000+00:00</time></trkpt><trkpt lat="39.25338219" lon="-0.33138801"><ele>14.0</ele><time>2022-10-31T14:24:59.0000000+00:00</time></trkpt><trkpt lat="39.25341832" lon="-0.33132825"><ele>14.0</ele><time>2022-10-31T14:25:00.0000000+00:00</time></trkpt><trkpt lat="39.25343793" lon="-0.33128316"><ele>14.0</ele><time>2022-10-31T14:25:01.0000000+00:00</time></trkpt><trkpt lat="39.25346048" lon="-0.33121292"><ele>14.0</ele><time>2022-10-31T14:25:02.0000000+00:00</time></trkpt><trkpt lat="39.25347389" lon="-0.33115123"><ele>14.0</ele><time>2022-10-31T14:25:03.0000000+00:00</time></trkpt><trkpt lat="39.25348671" lon="-0.33108979"><ele>14.0</ele><time>2022-10-31T14:25:04.0000000+00:00</time></trkpt><trkpt lat="39.25349711" lon="-0.33102525"><ele>14.0</ele><time>2022-10-31T14:25:05.0000000+00:00</time></trkpt><trkpt lat="39.25350926" lon="-0.33096146"><ele>14.0</ele><time>2022-10-31T14:25:06.0000000+00:00</time></trkpt><trkpt lat="39.25351881" lon="-0.33090974"><ele>14.0</ele><time>2022-10-31T14:25:07.0000000+00:00</time></trkpt><trkpt lat="39.25352896" lon="-0.33084797"><ele>13.8</ele><time>2022-10-31T14:25:08.0000000+00:00</time></trkpt><trkpt lat="39.25353969" lon="-0.33076976"><ele>13.8</ele><time>2022-10-31T14:25:09.0000000+00:00</time></trkpt><trkpt lat="39.25355201" lon="-0.3307033"><ele>13.8</ele><time>2022-10-31T14:25:10.0000000+00:00</time></trkpt><trkpt lat="39.25356165" lon="-0.33065057"><ele>13.8</ele><time>2022-10-31T14:25:11.0000000+00:00</time></trkpt><trkpt lat="39.25357338" lon="-0.33058536"><ele>13.8</ele><time>2022-10-31T14:25:12.0000000+00:00</time></trkpt><trkpt lat="39.25358964" lon="-0.33050724"><ele>13.8</ele><time>2022-10-31T14:25:13.0000000+00:00</time></trkpt><trkpt lat="39.25360582" lon="-0.3304417"><ele>13.8</ele><time>2022-10-31T14:25:14.0000000+00:00</time></trkpt><trkpt lat="39.25362334" lon="-0.33037732"><ele>13.6</ele><time>2022-10-31T14:25:15.0000000+00:00</time></trkpt><trkpt lat="39.25364396" lon="-0.33031496"><ele>13.6</ele><time>2022-10-31T14:25:16.0000000+00:00</time></trkpt><trkpt lat="39.25366751" lon="-0.33025553"><ele>13.8</ele><time>2022-10-31T14:25:17.0000000+00:00</time></trkpt><trkpt lat="39.25369048" lon="-0.33021136"><ele>13.8</ele><time>2022-10-31T14:25:18.0000000+00:00</time></trkpt><trkpt lat="39.25372836" lon="-0.33014548"><ele>13.8</ele><time>2022-10-31T14:25:19.0000000+00:00</time></trkpt><trkpt lat="39.25376223" lon="-0.3300936"><ele>14.0</ele><time>2022-10-31T14:25:20.0000000+00:00</time></trkpt><trkpt lat="39.25379693" lon="-0.33004171"><ele>14.0</ele><time>2022-10-31T14:25:21.0000000+00:00</time></trkpt><trkpt lat="39.25383381" lon="-0.32999109"><ele>14.0</ele><time>2022-10-31T14:25:22.0000000+00:00</time></trkpt><trkpt lat="39.25387295" lon="-0.32994457"><ele>14.0</ele><time>2022-10-31T14:25:23.0000000+00:00</time></trkpt><trkpt lat="39.25391151" lon="-0.32989704"><ele>14.0</ele><time>2022-10-31T14:25:24.0000000+00:00</time></trkpt><trkpt lat="39.25394445" lon="-0.32984734"><ele>14.0</ele><time>2022-10-31T14:25:25.0000000+00:00</time></trkpt><trkpt lat="39.25396926" lon="-0.32980945"><ele>14.0</ele><time>2022-10-31T14:25:26.0000000+00:00</time></trkpt><trkpt lat="39.25400153" lon="-0.32976436"><ele>13.8</ele><time>2022-10-31T14:25:27.0000000+00:00</time></trkpt><trkpt lat="39.25404252" lon="-0.32971398"><ele>13.8</ele><time>2022-10-31T14:25:28.0000000+00:00</time></trkpt><trkpt lat="39.25407638" lon="-0.32967534"><ele>13.8</ele><time>2022-10-31T14:25:29.0000000+00:00</time></trkpt><trkpt lat="39.25410722" lon="-0.3296346"><ele>13.8</ele><time>2022-10-31T14:25:30.0000000+00:00</time></trkpt><trkpt lat="39.2541343" lon="-0.32959412"><ele>13.8</ele><time>2022-10-31T14:25:31.0000000+00:00</time></trkpt><trkpt lat="39.25415425" lon="-0.32956596"><ele>13.8</ele><time>2022-10-31T14:25:32.0000000+00:00</time></trkpt><trkpt lat="39.25417788" lon="-0.32953511"><ele>13.8</ele><time>2022-10-31T14:25:33.0000000+00:00</time></trkpt><trkpt lat="39.25420269" lon="-0.32950309"><ele>13.8</ele><time>2022-10-31T14:25:34.0000000+00:00</time></trkpt><trkpt lat="39.25421904" lon="-0.3294823"><ele>13.6</ele><time>2022-10-31T14:25:35.0000000+00:00</time></trkpt><trkpt lat="39.25423949" lon="-0.32945314"><ele>13.6</ele><time>2022-10-31T14:25:36.0000000+00:00</time></trkpt><trkpt lat="39.2542555" lon="-0.32942841"><ele>13.4</ele><time>2022-10-31T14:25:37.0000000+00:00</time></trkpt><trkpt lat="39.25426715" lon="-0.3294067"><ele>13.4</ele><time>2022-10-31T14:25:38.0000000+00:00</time></trkpt><trkpt lat="39.25427713" lon="-0.3293699"><ele>13.2</ele><time>2022-10-31T14:25:39.0000000+00:00</time></trkpt><trkpt lat="39.2542793" lon="-0.32933847"><ele>13.0</ele><time>2022-10-31T14:25:40.0000000+00:00</time></trkpt><trkpt lat="39.25427771" lon="-0.32931475"><ele>12.8</ele><time>2022-10-31T14:25:41.0000000+00:00</time></trkpt><trkpt lat="39.25427017" lon="-0.32928156"><ele>12.8</ele><time>2022-10-31T14:25:42.0000000+00:00</time></trkpt><trkpt lat="39.25425835" lon="-0.32925909"><ele>12.6</ele><time>2022-10-31T14:25:43.0000000+00:00</time></trkpt><trkpt lat="39.25424444" lon="-0.32923479"><ele>12.6</ele><time>2022-10-31T14:25:44.0000000+00:00</time></trkpt><trkpt lat="39.2542291" lon="-0.3292114"><ele>12.6</ele><time>2022-10-31T14:25:45.0000000+00:00</time></trkpt><trkpt lat="39.25422306" lon="-0.32919992"><ele>12.6</ele><time>2022-10-31T14:25:46.0000000+00:00</time></trkpt><trkpt lat="39.25422172" lon="-0.32919556"><ele>12.6</ele><time>2022-10-31T14:25:47.0000000+00:00</time></trkpt><trkpt lat="39.25422172" lon="-0.32919556"><ele>12.6</ele><time>2022-10-31T14:25:48.0000000+00:00</time></trkpt><trkpt lat="39.25422172" lon="-0.32919556"><ele>12.6</ele><time>2022-10-31T14:25:49.0000000+00:00</time></trkpt><trkpt lat="39.25422172" lon="-0.32919556"><ele>12.4</ele><time>2022-10-31T14:25:50.0000000+00:00</time></trkpt><trkpt lat="39.25422172" lon="-0.32919556"><ele>12.4</ele><time>2022-10-31T14:25:51.0000000+00:00</time></trkpt><trkpt lat="39.25422172" lon="-0.32919556"><ele>12.4</ele><time>2022-10-31T14:25:52.0000000+00:00</time></trkpt><trkpt lat="39.25422172" lon="-0.32919556"><ele>12.4</ele><time>2022-10-31T14:25:53.0000000+00:00</time></trkpt><trkpt lat="39.25422172" lon="-0.32919556"><ele>12.4</ele><time>2022-10-31T14:25:54.0000000+00:00</time></trkpt><trkpt lat="39.25422172" lon="-0.32919556"><ele>12.4</ele><time>2022-10-31T14:25:55.0000000+00:00</time></trkpt><trkpt lat="39.25422172" lon="-0.32919556"><ele>12.4</ele><time>2022-10-31T14:25:56.0000000+00:00</time></trkpt><trkpt lat="39.25422172" lon="-0.32919556"><ele>12.4</ele><time>2022-10-31T14:25:57.0000000+00:00</time></trkpt><trkpt lat="39.25422172" lon="-0.32919556"><ele>12.4</ele><time>2022-10-31T14:25:58.0000000+00:00</time></trkpt><trkpt lat="39.25422172" lon="-0.32919556"><ele>12.4</ele><time>2022-10-31T14:25:59.0000000+00:00</time></trkpt><trkpt lat="39.25422172" lon="-0.32919556"><ele>12.4</ele><time>2022-10-31T14:26:00.0000000+00:00</time></trkpt><trkpt lat="39.25422172" lon="-0.32919556"><ele>12.4</ele><time>2022-10-31T14:26:01.0000000+00:00</time></trkpt><trkpt lat="39.25422172" lon="-0.32919556"><ele>12.4</ele><time>2022-10-31T14:26:02.0000000+00:00</time></trkpt><trkpt lat="39.25422172" lon="-0.32919556"><ele>12.4</ele><time>2022-10-31T14:26:03.0000000+00:00</time></trkpt><trkpt lat="39.25422172" lon="-0.32919556"><ele>12.4</ele><time>2022-10-31T14:26:04.0000000+00:00</time></trkpt><trkpt lat="39.25422172" lon="-0.32919556"><ele>12.4</ele><time>2022-10-31T14:26:05.0000000+00:00</time></trkpt><trkpt lat="39.25422172" lon="-0.32919556"><ele>12.4</ele><time>2022-10-31T14:26:06.0000000+00:00</time></trkpt><trkpt lat="39.25422172" lon="-0.32919556"><ele>12.4</ele><time>2022-10-31T14:26:07.0000000+00:00</time></trkpt><trkpt lat="39.25422172" lon="-0.32919556"><ele>12.4</ele><time>2022-10-31T14:26:08.0000000+00:00</time></trkpt><trkpt lat="39.25422172" lon="-0.32919556"><ele>12.4</ele><time>2022-10-31T14:26:09.0000000+00:00</time></trkpt><trkpt lat="39.25422172" lon="-0.32919556"><ele>12.4</ele><time>2022-10-31T14:26:10.0000000+00:00</time></trkpt><trkpt lat="39.25422172" lon="-0.32919556"><ele>12.4</ele><time>2022-10-31T14:26:11.0000000+00:00</time></trkpt><trkpt lat="39.25422172" lon="-0.32919556"><ele>12.4</ele><time>2022-10-31T14:26:12.0000000+00:00</time></trkpt><trkpt lat="39.25421954" lon="-0.32919858"><ele>12.4</ele><time>2022-10-31T14:26:13.0000000+00:00</time></trkpt><trkpt lat="39.25421946" lon="-0.32920067"><ele>12.4</ele><time>2022-10-31T14:26:14.0000000+00:00</time></trkpt><trkpt lat="39.25421946" lon="-0.32920067"><ele>12.4</ele><time>2022-10-31T14:26:15.0000000+00:00</time></trkpt><trkpt lat="39.25421946" lon="-0.32920067"><ele>12.4</ele><time>2022-10-31T14:26:16.0000000+00:00</time></trkpt><trkpt lat="39.25421946" lon="-0.32920067"><ele>12.4</ele><time>2022-10-31T14:26:17.0000000+00:00</time></trkpt><trkpt lat="39.25421946" lon="-0.32920067"><ele>12.4</ele><time>2022-10-31T14:26:18.0000000+00:00</time></trkpt><trkpt lat="39.25421946" lon="-0.32920067"><ele>12.4</ele><time>2022-10-31T14:26:19.0000000+00:00</time></trkpt><trkpt lat="39.25421946" lon="-0.32920067"><ele>12.4</ele><time>2022-10-31T14:26:20.0000000+00:00</time></trkpt><trkpt lat="39.25421946" lon="-0.32920067"><ele>12.4</ele><time>2022-10-31T14:26:21.0000000+00:00</time></trkpt><trkpt lat="39.25421946" lon="-0.32920067"><ele>12.4</ele><time>2022-10-31T14:26:22.0000000+00:00</time></trkpt><trkpt lat="39.25421946" lon="-0.32920067"><ele>12.4</ele><time>2022-10-31T14:26:23.0000000+00:00</time></trkpt><trkpt lat="39.25421946" lon="-0.32920067"><ele>12.4</ele><time>2022-10-31T14:26:24.0000000+00:00</time></trkpt><trkpt lat="39.25421946" lon="-0.32920067"><ele>12.4</ele><time>2022-10-31T14:26:25.0000000+00:00</time></trkpt><trkpt lat="39.25421946" lon="-0.32920067"><ele>12.4</ele><time>2022-10-31T14:26:26.0000000+00:00</time></trkpt><trkpt lat="39.25421946" lon="-0.32920067"><ele>12.4</ele><time>2022-10-31T14:26:27.0000000+00:00</time></trkpt><trkpt lat="39.25421946" lon="-0.32920067"><ele>12.4</ele><time>2022-10-31T14:26:28.0000000+00:00</time></trkpt><trkpt lat="39.25421946" lon="-0.32920067"><ele>12.4</ele><time>2022-10-31T14:26:29.0000000+00:00</time></trkpt><trkpt lat="39.25421946" lon="-0.32920067"><ele>12.4</ele><time>2022-10-31T14:26:30.0000000+00:00</time></trkpt><trkpt lat="39.25421946" lon="-0.32920067"><ele>12.4</ele><time>2022-10-31T14:26:31.0000000+00:00</time></trkpt><trkpt lat="39.25421946" lon="-0.32920067"><ele>12.4</ele><time>2022-10-31T14:26:32.0000000+00:00</time></trkpt><trkpt lat="39.25421946" lon="-0.32920067"><ele>12.4</ele><time>2022-10-31T14:26:33.0000000+00:00</time></trkpt><trkpt lat="39.25421946" lon="-0.32920067"><ele>12.4</ele><time>2022-10-31T14:26:34.0000000+00:00</time></trkpt><trkpt lat="39.25421946" lon="-0.32920067"><ele>12.4</ele><time>2022-10-31T14:26:35.0000000+00:00</time></trkpt><trkpt lat="39.25421946" lon="-0.32920067"><ele>12.4</ele><time>2022-10-31T14:26:36.0000000+00:00</time></trkpt><trkpt lat="39.25421946" lon="-0.32920067"><ele>12.4</ele><time>2022-10-31T14:26:37.0000000+00:00</time></trkpt><trkpt lat="39.25421946" lon="-0.32920067"><ele>12.4</ele><time>2022-10-31T14:26:38.0000000+00:00</time></trkpt><trkpt lat="39.25421946" lon="-0.32920067"><ele>12.4</ele><time>2022-10-31T14:26:39.0000000+00:00</time></trkpt><trkpt lat="39.25421946" lon="-0.32920067"><ele>12.4</ele><time>2022-10-31T14:26:40.0000000+00:00</time></trkpt><trkpt lat="39.25421946" lon="-0.32920067"><ele>12.4</ele><time>2022-10-31T14:26:41.0000000+00:00</time></trkpt><trkpt lat="39.25421946" lon="-0.32920067"><ele>12.4</ele><time>2022-10-31T14:26:42.0000000+00:00</time></trkpt><trkpt lat="39.25421946" lon="-0.32920067"><ele>12.4</ele><time>2022-10-31T14:26:43.0000000+00:00</time></trkpt><trkpt lat="39.25421946" lon="-0.32920067"><ele>12.4</ele><time>2022-10-31T14:26:44.0000000+00:00</time></trkpt><trkpt lat="39.25421946" lon="-0.32920067"><ele>12.4</ele><time>2022-10-31T14:26:45.0000000+00:00</time></trkpt><trkpt lat="39.25421946" lon="-0.32920067"><ele>12.4</ele><time>2022-10-31T14:26:46.0000000+00:00</time></trkpt><trkpt lat="39.25421946" lon="-0.32920067"><ele>12.4</ele><time>2022-10-31T14:26:47.0000000+00:00</time></trkpt><trkpt lat="39.25421946" lon="-0.32920067"><ele>12.4</ele><time>2022-10-31T14:26:48.0000000+00:00</time></trkpt><trkpt lat="39.25421946" lon="-0.32920067"><ele>12.4</ele><time>2022-10-31T14:26:49.0000000+00:00</time></trkpt><trkpt lat="39.25421946" lon="-0.32920067"><ele>12.4</ele><time>2022-10-31T14:26:50.0000000+00:00</time></trkpt><trkpt lat="39.25421946" lon="-0.32920067"><ele>12.4</ele><time>2022-10-31T14:26:51.0000000+00:00</time></trkpt><trkpt lat="39.25421946" lon="-0.32920067"><ele>12.4</ele><time>2022-10-31T14:26:52.0000000+00:00</time></trkpt><trkpt lat="39.25421946" lon="-0.32920067"><ele>12.4</ele><time>2022-10-31T14:26:53.0000000+00:00</time></trkpt><trkpt lat="39.25421946" lon="-0.32920067"><ele>12.4</ele><time>2022-10-31T14:26:54.0000000+00:00</time></trkpt><trkpt lat="39.25421946" lon="-0.32920067"><ele>12.4</ele><time>2022-10-31T14:26:55.0000000+00:00</time></trkpt><trkpt lat="39.25421946" lon="-0.32920067"><ele>12.4</ele><time>2022-10-31T14:26:56.0000000+00:00</time></trkpt><trkpt lat="39.25421946" lon="-0.32920067"><ele>12.4</ele><time>2022-10-31T14:26:57.0000000+00:00</time></trkpt><trkpt lat="39.25421946" lon="-0.32920067"><ele>12.4</ele><time>2022-10-31T14:26:58.0000000+00:00</time></trkpt><trkpt lat="39.25421946" lon="-0.32920067"><ele>12.4</ele><time>2022-10-31T14:26:59.0000000+00:00</time></trkpt><trkpt lat="39.25421946" lon="-0.32920067"><ele>12.4</ele><time>2022-10-31T14:27:00.0000000+00:00</time></trkpt><trkpt lat="39.25421946" lon="-0.32920067"><ele>12.4</ele><time>2022-10-31T14:27:01.0000000+00:00</time></trkpt><trkpt lat="39.25421946" lon="-0.32920067"><ele>12.4</ele><time>2022-10-31T14:27:02.0000000+00:00</time></trkpt><trkpt lat="39.25421946" lon="-0.32920067"><ele>12.4</ele><time>2022-10-31T14:27:03.0000000+00:00</time></trkpt><trkpt lat="39.25421946" lon="-0.32920067"><ele>12.4</ele><time>2022-10-31T14:27:04.0000000+00:00</time></trkpt><trkpt lat="39.25421946" lon="-0.32920067"><ele>12.4</ele><time>2022-10-31T14:27:05.0000000+00:00</time></trkpt><trkpt lat="39.25421946" lon="-0.32920067"><ele>12.4</ele><time>2022-10-31T14:27:06.0000000+00:00</time></trkpt><trkpt lat="39.25421946" lon="-0.32920067"><ele>12.4</ele><time>2022-10-31T14:27:07.0000000+00:00</time></trkpt><trkpt lat="39.25421946" lon="-0.32920067"><ele>12.4</ele><time>2022-10-31T14:27:08.0000000+00:00</time></trkpt><trkpt lat="39.25421946" lon="-0.32920067"><ele>12.4</ele><time>2022-10-31T14:27:09.0000000+00:00</time></trkpt><trkpt lat="39.25421946" lon="-0.32920067"><ele>12.4</ele><time>2022-10-31T14:27:10.0000000+00:00</time></trkpt><trkpt lat="39.25421946" lon="-0.32920067"><ele>12.4</ele><time>2022-10-31T14:27:11.0000000+00:00</time></trkpt><trkpt lat="39.25421678" lon="-0.32920109"><ele>12.4</ele><time>2022-10-31T14:27:12.0000000+00:00</time></trkpt><trkpt lat="39.25421133" lon="-0.32919422"><ele>12.4</ele><time>2022-10-31T14:27:13.0000000+00:00</time></trkpt><trkpt lat="39.25420412" lon="-0.32918466"><ele>12.4</ele><time>2022-10-31T14:27:14.0000000+00:00</time></trkpt><trkpt lat="39.254198" lon="-0.32917603"><ele>12.4</ele><time>2022-10-31T14:27:15.0000000+00:00</time></trkpt><trkpt lat="39.25418903" lon="-0.32915684"><ele>12.4</ele><time>2022-10-31T14:27:16.0000000+00:00</time></trkpt><trkpt lat="39.25418115" lon="-0.32914057"><ele>12.4</ele><time>2022-10-31T14:27:17.0000000+00:00</time></trkpt><trkpt lat="39.25416372" lon="-0.32911501"><ele>12.4</ele><time>2022-10-31T14:27:18.0000000+00:00</time></trkpt><trkpt lat="39.25414796" lon="-0.32909799"><ele>12.4</ele><time>2022-10-31T14:27:19.0000000+00:00</time></trkpt><trkpt lat="39.25412273" lon="-0.32907478"><ele>12.6</ele><time>2022-10-31T14:27:20.0000000+00:00</time></trkpt><trkpt lat="39.25409608" lon="-0.32905173"><ele>12.8</ele><time>2022-10-31T14:27:21.0000000+00:00</time></trkpt><trkpt lat="39.25406138" lon="-0.32902457"><ele>12.8</ele><time>2022-10-31T14:27:22.0000000+00:00</time></trkpt><trkpt lat="39.25402751" lon="-0.32900353"><ele>12.8</ele><time>2022-10-31T14:27:23.0000000+00:00</time></trkpt><trkpt lat="39.25399281" lon="-0.32898593"><ele>12.8</ele><time>2022-10-31T14:27:24.0000000+00:00</time></trkpt><trkpt lat="39.25395761" lon="-0.328969"><ele>12.8</ele><time>2022-10-31T14:27:25.0000000+00:00</time></trkpt><trkpt lat="39.2539224" lon="-0.3289519"><ele>12.8</ele><time>2022-10-31T14:27:26.0000000+00:00</time></trkpt><trkpt lat="39.25389625" lon="-0.32894092"><ele>12.8</ele><time>2022-10-31T14:27:27.0000000+00:00</time></trkpt><trkpt lat="39.25386046" lon="-0.32892809"><ele>12.8</ele><time>2022-10-31T14:27:28.0000000+00:00</time></trkpt><trkpt lat="39.25381486" lon="-0.32891594"><ele>12.6</ele><time>2022-10-31T14:27:29.0000000+00:00</time></trkpt><trkpt lat="39.25378259" lon="-0.32890865"><ele>12.6</ele><time>2022-10-31T14:27:30.0000000+00:00</time></trkpt><trkpt lat="39.25374052" lon="-0.3289001"><ele>12.6</ele><time>2022-10-31T14:27:31.0000000+00:00</time></trkpt><trkpt lat="39.2536893" lon="-0.32889213"><ele>12.6</ele><time>2022-10-31T14:27:32.0000000+00:00</time></trkpt><trkpt lat="39.25364622" lon="-0.32888342"><ele>12.6</ele><time>2022-10-31T14:27:33.0000000+00:00</time></trkpt><trkpt lat="39.25361102" lon="-0.3288742"><ele>12.6</ele><time>2022-10-31T14:27:34.0000000+00:00</time></trkpt><trkpt lat="39.25356492" lon="-0.32886188"><ele>12.6</ele><time>2022-10-31T14:27:35.0000000+00:00</time></trkpt><trkpt lat="39.25351085" lon="-0.32884528"><ele>12.6</ele><time>2022-10-31T14:27:36.0000000+00:00</time></trkpt><trkpt lat="39.25346727" lon="-0.3288234"><ele>12.6</ele><time>2022-10-31T14:27:37.0000000+00:00</time></trkpt><trkpt lat="39.25342745" lon="-0.32879608"><ele>12.8</ele><time>2022-10-31T14:27:38.0000000+00:00</time></trkpt><trkpt lat="39.25339359" lon="-0.32876314"><ele>12.8</ele><time>2022-10-31T14:27:39.0000000+00:00</time></trkpt><trkpt lat="39.25337129" lon="-0.32872986"><ele>12.8</ele><time>2022-10-31T14:27:40.0000000+00:00</time></trkpt><trkpt lat="39.25334808" lon="-0.32867974"><ele>12.8</ele><time>2022-10-31T14:27:41.0000000+00:00</time></trkpt><trkpt lat="39.25333014" lon="-0.3286224"><ele>13.0</ele><time>2022-10-31T14:27:42.0000000+00:00</time></trkpt><trkpt lat="39.25331924" lon="-0.32856231"><ele>13.0</ele><time>2022-10-31T14:27:43.0000000+00:00</time></trkpt><trkpt lat="39.25331321" lon="-0.32850003"><ele>13.0</ele><time>2022-10-31T14:27:44.0000000+00:00</time></trkpt><trkpt lat="39.25330323" lon="-0.32842518"><ele>13.0</ele><time>2022-10-31T14:27:45.0000000+00:00</time></trkpt><trkpt lat="39.25329527" lon="-0.32837397"><ele>13.2</ele><time>2022-10-31T14:27:46.0000000+00:00</time></trkpt><trkpt lat="39.25327809" lon="-0.32829786"><ele>13.2</ele><time>2022-10-31T14:27:47.0000000+00:00</time></trkpt><trkpt lat="39.25325738" lon="-0.32823877"><ele>13.2</ele><time>2022-10-31T14:27:48.0000000+00:00</time></trkpt><trkpt lat="39.25322805" lon="-0.32818789"><ele>13.2</ele><time>2022-10-31T14:27:49.0000000+00:00</time></trkpt><trkpt lat="39.25318765" lon="-0.32814799"><ele>13.2</ele><time>2022-10-31T14:27:50.0000000+00:00</time></trkpt><trkpt lat="39.25315118" lon="-0.32812955"><ele>13.2</ele><time>2022-10-31T14:27:51.0000000+00:00</time></trkpt><trkpt lat="39.25309955" lon="-0.32812016"><ele>13.0</ele><time>2022-10-31T14:27:52.0000000+00:00</time></trkpt><trkpt lat="39.25303836" lon="-0.32813014"><ele>13.0</ele><time>2022-10-31T14:27:53.0000000+00:00</time></trkpt><trkpt lat="39.25300115" lon="-0.32814673"><ele>12.8</ele><time>2022-10-31T14:27:54.0000000+00:00</time></trkpt><trkpt lat="39.25295505" lon="-0.32816852"><ele>12.6</ele><time>2022-10-31T14:27:55.0000000+00:00</time></trkpt><trkpt lat="39.25289897" lon="-0.32820641"><ele>12.6</ele><time>2022-10-31T14:27:56.0000000+00:00</time></trkpt><trkpt lat="39.25285522" lon="-0.32824019"><ele>12.6</ele><time>2022-10-31T14:27:57.0000000+00:00</time></trkpt><trkpt lat="39.25281071" lon="-0.32827439"><ele>12.6</ele><time>2022-10-31T14:27:58.0000000+00:00</time></trkpt><trkpt lat="39.2527693" lon="-0.32830599"><ele>12.6</ele><time>2022-10-31T14:27:59.0000000+00:00</time></trkpt><trkpt lat="39.25273947" lon="-0.3283334"><ele>12.6</ele><time>2022-10-31T14:28:00.0000000+00:00</time></trkpt><trkpt lat="39.25269487" lon="-0.32837296"><ele>12.6</ele><time>2022-10-31T14:28:01.0000000+00:00</time></trkpt><trkpt lat="39.25265757" lon="-0.32840397"><ele>12.6</ele><time>2022-10-31T14:28:02.0000000+00:00</time></trkpt><trkpt lat="39.25263025" lon="-0.32843147"><ele>12.6</ele><time>2022-10-31T14:28:03.0000000+00:00</time></trkpt><trkpt lat="39.25259714" lon="-0.32846541"><ele>12.6</ele><time>2022-10-31T14:28:04.0000000+00:00</time></trkpt><trkpt lat="39.25255833" lon="-0.32850347"><ele>12.6</ele><time>2022-10-31T14:28:05.0000000+00:00</time></trkpt><trkpt lat="39.25252573" lon="-0.3285323"><ele>12.6</ele><time>2022-10-31T14:28:06.0000000+00:00</time></trkpt><trkpt lat="39.25250251" lon="-0.32855258"><ele>12.6</ele><time>2022-10-31T14:28:07.0000000+00:00</time></trkpt><trkpt lat="39.25246957" lon="-0.32858041"><ele>12.6</ele><time>2022-10-31T14:28:08.0000000+00:00</time></trkpt><trkpt lat="39.25243688" lon="-0.32860832"><ele>12.4</ele><time>2022-10-31T14:28:09.0000000+00:00</time></trkpt><trkpt lat="39.25240637" lon="-0.32863406"><ele>12.4</ele><time>2022-10-31T14:28:10.0000000+00:00</time></trkpt><trkpt lat="39.25237091" lon="-0.32866289"><ele>12.4</ele><time>2022-10-31T14:28:11.0000000+00:00</time></trkpt><trkpt lat="39.25234367" lon="-0.32868854"><ele>12.4</ele><time>2022-10-31T14:28:12.0000000+00:00</time></trkpt><trkpt lat="39.2523202" lon="-0.3287079"><ele>12.4</ele><time>2022-10-31T14:28:13.0000000+00:00</time></trkpt><trkpt lat="39.25228466" lon="-0.32873254"><ele>12.4</ele><time>2022-10-31T14:28:14.0000000+00:00</time></trkpt><trkpt lat="39.25225616" lon="-0.32874788"><ele>12.4</ele><time>2022-10-31T14:28:15.0000000+00:00</time></trkpt><trkpt lat="39.25223236" lon="-0.32875861"><ele>12.4</ele><time>2022-10-31T14:28:16.0000000+00:00</time></trkpt><trkpt lat="39.25220395" lon="-0.32876959"><ele>12.4</ele><time>2022-10-31T14:28:17.0000000+00:00</time></trkpt><trkpt lat="39.25217033" lon="-0.32878107"><ele>12.4</ele><time>2022-10-31T14:28:18.0000000+00:00</time></trkpt><trkpt lat="39.25215089" lon="-0.3287918"><ele>12.4</ele><time>2022-10-31T14:28:19.0000000+00:00</time></trkpt><trkpt lat="39.25212289" lon="-0.3288027"><ele>12.4</ele><time>2022-10-31T14:28:20.0000000+00:00</time></trkpt><trkpt lat="39.25209859" lon="-0.32880781"><ele>12.4</ele><time>2022-10-31T14:28:21.0000000+00:00</time></trkpt><trkpt lat="39.2520752" lon="-0.32880429"><ele>12.4</ele><time>2022-10-31T14:28:22.0000000+00:00</time></trkpt><trkpt lat="39.25205114" lon="-0.32879633"><ele>12.4</ele><time>2022-10-31T14:28:23.0000000+00:00</time></trkpt><trkpt lat="39.25203069" lon="-0.32879097"><ele>12.4</ele><time>2022-10-31T14:28:24.0000000+00:00</time></trkpt><trkpt lat="39.25200446" lon="-0.32878543"><ele>12.4</ele><time>2022-10-31T14:28:25.0000000+00:00</time></trkpt><trkpt lat="39.25198208" lon="-0.32878233"><ele>12.4</ele><time>2022-10-31T14:28:26.0000000+00:00</time></trkpt><trkpt lat="39.25196095" lon="-0.32878392"><ele>12.4</ele><time>2022-10-31T14:28:27.0000000+00:00</time></trkpt><trkpt lat="39.25193816" lon="-0.32878619"><ele>12.4</ele><time>2022-10-31T14:28:28.0000000+00:00</time></trkpt><trkpt lat="39.25192399" lon="-0.32878761"><ele>12.4</ele><time>2022-10-31T14:28:29.0000000+00:00</time></trkpt><trkpt lat="39.25189859" lon="-0.32879164"><ele>12.4</ele><time>2022-10-31T14:28:30.0000000+00:00</time></trkpt><trkpt lat="39.25187596" lon="-0.32879608"><ele>12.2</ele><time>2022-10-31T14:28:31.0000000+00:00</time></trkpt><trkpt lat="39.25185526" lon="-0.32880086"><ele>12.2</ele><time>2022-10-31T14:28:32.0000000+00:00</time></trkpt><trkpt lat="39.2518245" lon="-0.32880404"><ele>12.2</ele><time>2022-10-31T14:28:33.0000000+00:00</time></trkpt><trkpt lat="39.25179675" lon="-0.32880438"><ele>12.2</ele><time>2022-10-31T14:28:34.0000000+00:00</time></trkpt><trkpt lat="39.25177127" lon="-0.32880505"><ele>12.2</ele><time>2022-10-31T14:28:35.0000000+00:00</time></trkpt><trkpt lat="39.2517297" lon="-0.32880731"><ele>12.2</ele><time>2022-10-31T14:28:36.0000000+00:00</time></trkpt><trkpt lat="39.2516924" lon="-0.32880681"><ele>12.2</ele><time>2022-10-31T14:28:37.0000000+00:00</time></trkpt><trkpt lat="39.25166206" lon="-0.32880496"><ele>12.2</ele><time>2022-10-31T14:28:38.0000000+00:00</time></trkpt><trkpt lat="39.25161419" lon="-0.32880748"><ele>12.2</ele><time>2022-10-31T14:28:39.0000000+00:00</time></trkpt><trkpt lat="39.25157203" lon="-0.32881091"><ele>12.4</ele><time>2022-10-31T14:28:40.0000000+00:00</time></trkpt><trkpt lat="39.25153549" lon="-0.32881175"><ele>12.4</ele><time>2022-10-31T14:28:41.0000000+00:00</time></trkpt><trkpt lat="39.25147807" lon="-0.32880957"><ele>12.4</ele><time>2022-10-31T14:28:42.0000000+00:00</time></trkpt><trkpt lat="39.25143885" lon="-0.32880438"><ele>12.4</ele><time>2022-10-31T14:28:43.0000000+00:00</time></trkpt><trkpt lat="39.25139157" lon="-0.32879306"><ele>12.6</ele><time>2022-10-31T14:28:44.0000000+00:00</time></trkpt><trkpt lat="39.25133441" lon="-0.3287804"><ele>12.6</ele><time>2022-10-31T14:28:45.0000000+00:00</time></trkpt><trkpt lat="39.25129459" lon="-0.32876842"><ele>12.6</ele><time>2022-10-31T14:28:46.0000000+00:00</time></trkpt><trkpt lat="39.25124489" lon="-0.3287504"><ele>12.8</ele><time>2022-10-31T14:28:47.0000000+00:00</time></trkpt><trkpt lat="39.25119745" lon="-0.32872986"><ele>12.8</ele><time>2022-10-31T14:28:48.0000000+00:00</time></trkpt><trkpt lat="39.25115118" lon="-0.32870438"><ele>12.8</ele><time>2022-10-31T14:28:49.0000000+00:00</time></trkpt><trkpt lat="39.25109988" lon="-0.32866842"><ele>12.8</ele><time>2022-10-31T14:28:50.0000000+00:00</time></trkpt><trkpt lat="39.25105227" lon="-0.32863339"><ele>12.8</ele><time>2022-10-31T14:28:51.0000000+00:00</time></trkpt><trkpt lat="39.25099611" lon="-0.32859583"><ele>13.0</ele><time>2022-10-31T14:28:52.0000000+00:00</time></trkpt><trkpt lat="39.25094775" lon="-0.32856734"><ele>13.0</ele><time>2022-10-31T14:28:53.0000000+00:00</time></trkpt><trkpt lat="39.25089855" lon="-0.32854093"><ele>13.0</ele><time>2022-10-31T14:28:54.0000000+00:00</time></trkpt><trkpt lat="39.25085974" lon="-0.32851822"><ele>13.0</ele><time>2022-10-31T14:28:55.0000000+00:00</time></trkpt><trkpt lat="39.250804" lon="-0.32848092"><ele>12.8</ele><time>2022-10-31T14:28:56.0000000+00:00</time></trkpt><trkpt lat="39.25075991" lon="-0.32844647"><ele>12.8</ele><time>2022-10-31T14:28:57.0000000+00:00</time></trkpt><trkpt lat="39.25072529" lon="-0.32842434"><ele>12.8</ele><time>2022-10-31T14:28:58.0000000+00:00</time></trkpt><trkpt lat="39.25068062" lon="-0.32840154"><ele>12.6</ele><time>2022-10-31T14:28:59.0000000+00:00</time></trkpt><trkpt lat="39.25063578" lon="-0.32837883"><ele>12.4</ele><time>2022-10-31T14:29:00.0000000+00:00</time></trkpt><trkpt lat="39.25058867" lon="-0.32835762"><ele>12.4</ele><time>2022-10-31T14:29:01.0000000+00:00</time></trkpt><trkpt lat="39.25053368" lon="-0.32833273"><ele>12.2</ele><time>2022-10-31T14:29:02.0000000+00:00</time></trkpt><trkpt lat="39.25049027" lon="-0.3283142"><ele>12.2</ele><time>2022-10-31T14:29:03.0000000+00:00</time></trkpt><trkpt lat="39.25045691" lon="-0.32830046"><ele>12.2</ele><time>2022-10-31T14:29:04.0000000+00:00</time></trkpt><trkpt lat="39.25040829" lon="-0.32827715"><ele>12.2</ele><time>2022-10-31T14:29:05.0000000+00:00</time></trkpt><trkpt lat="39.25036957" lon="-0.3282598"><ele>12.2</ele><time>2022-10-31T14:29:06.0000000+00:00</time></trkpt><trkpt lat="39.25034015" lon="-0.32824589"><ele>12.2</ele><time>2022-10-31T14:29:07.0000000+00:00</time></trkpt><trkpt lat="39.25029958" lon="-0.32822678"><ele>12.2</ele><time>2022-10-31T14:29:08.0000000+00:00</time></trkpt><trkpt lat="39.25026245" lon="-0.32820272"><ele>12.2</ele><time>2022-10-31T14:29:09.0000000+00:00</time></trkpt><trkpt lat="39.25022012" lon="-0.32816945"><ele>12.2</ele><time>2022-10-31T14:29:10.0000000+00:00</time></trkpt><trkpt lat="39.2501969" lon="-0.32813726"><ele>12.4</ele><time>2022-10-31T14:29:11.0000000+00:00</time></trkpt><trkpt lat="39.25017435" lon="-0.32808856"><ele>12.4</ele><time>2022-10-31T14:29:12.0000000+00:00</time></trkpt><trkpt lat="39.25015625" lon="-0.32802318"><ele>12.6</ele><time>2022-10-31T14:29:13.0000000+00:00</time></trkpt><trkpt lat="39.25014745" lon="-0.32797541"><ele>12.8</ele><time>2022-10-31T14:29:14.0000000+00:00</time></trkpt><trkpt lat="39.25013496" lon="-0.32790617"><ele>12.8</ele><time>2022-10-31T14:29:15.0000000+00:00</time></trkpt><trkpt lat="39.25012448" lon="-0.32784607"><ele>13.0</ele><time>2022-10-31T14:29:16.0000000+00:00</time></trkpt><trkpt lat="39.25011803" lon="-0.3277988"><ele>13.0</ele><time>2022-10-31T14:29:17.0000000+00:00</time></trkpt><trkpt lat="39.25011132" lon="-0.32772831"><ele>13.0</ele><time>2022-10-31T14:29:18.0000000+00:00</time></trkpt><trkpt lat="39.25010855" lon="-0.32767944"><ele>13.0</ele><time>2022-10-31T14:29:19.0000000+00:00</time></trkpt><trkpt lat="39.25010403" lon="-0.32761842"><ele>13.0</ele><time>2022-10-31T14:29:20.0000000+00:00</time></trkpt><trkpt lat="39.25009472" lon="-0.32754483"><ele>13.0</ele><time>2022-10-31T14:29:21.0000000+00:00</time></trkpt><trkpt lat="39.25008575" lon="-0.32748423"><ele>13.0</ele><time>2022-10-31T14:29:22.0000000+00:00</time></trkpt><trkpt lat="39.2500788" lon="-0.32743528"><ele>12.8</ele><time>2022-10-31T14:29:23.0000000+00:00</time></trkpt><trkpt lat="39.25006405" lon="-0.32736177"><ele>12.8</ele><time>2022-10-31T14:29:24.0000000+00:00</time></trkpt><trkpt lat="39.25005139" lon="-0.32730343"><ele>12.8</ele><time>2022-10-31T14:29:25.0000000+00:00</time></trkpt><trkpt lat="39.25004175" lon="-0.32725959"><ele>12.8</ele><time>2022-10-31T14:29:26.0000000+00:00</time></trkpt><trkpt lat="39.25002943" lon="-0.32720871"><ele>12.6</ele><time>2022-10-31T14:29:27.0000000+00:00</time></trkpt><trkpt lat="39.25001602" lon="-0.32716278"><ele>12.4</ele><time>2022-10-31T14:29:28.0000000+00:00</time></trkpt><trkpt lat="39.2500011" lon="-0.327114"><ele>12.4</ele><time>2022-10-31T14:29:29.0000000+00:00</time></trkpt><trkpt lat="39.24997889" lon="-0.32705407"><ele>12.4</ele><time>2022-10-31T14:29:30.0000000+00:00</time></trkpt><trkpt lat="39.24995508" lon="-0.32700981"><ele>12.6</ele><time>2022-10-31T14:29:31.0000000+00:00</time></trkpt><trkpt lat="39.24992901" lon="-0.32697821"><ele>12.6</ele><time>2022-10-31T14:29:32.0000000+00:00</time></trkpt><trkpt lat="39.24988325" lon="-0.3269451"><ele>12.6</ele><time>2022-10-31T14:29:33.0000000+00:00</time></trkpt><trkpt lat="39.24984528" lon="-0.32692105"><ele>12.6</ele><time>2022-10-31T14:29:34.0000000+00:00</time></trkpt><trkpt lat="39.24981359" lon="-0.32689976"><ele>12.6</ele><time>2022-10-31T14:29:35.0000000+00:00</time></trkpt><trkpt lat="39.24976749" lon="-0.32686614"><ele>12.6</ele><time>2022-10-31T14:29:36.0000000+00:00</time></trkpt><trkpt lat="39.24972994" lon="-0.32683421"><ele>12.8</ele><time>2022-10-31T14:29:37.0000000+00:00</time></trkpt><trkpt lat="39.24970061" lon="-0.32680848"><ele>12.8</ele><time>2022-10-31T14:29:38.0000000+00:00</time></trkpt><trkpt lat="39.24965744" lon="-0.32676774"><ele>12.8</ele><time>2022-10-31T14:29:39.0000000+00:00</time></trkpt><trkpt lat="39.2496219" lon="-0.32673338"><ele>13.0</ele><time>2022-10-31T14:29:40.0000000+00:00</time></trkpt><trkpt lat="39.24959483" lon="-0.32670865"><ele>13.0</ele><time>2022-10-31T14:29:41.0000000+00:00</time></trkpt><trkpt lat="39.2495499" lon="-0.32667043"><ele>13.0</ele><time>2022-10-31T14:29:42.0000000+00:00</time></trkpt><trkpt lat="39.24951193" lon="-0.3266395"><ele>13.0</ele><time>2022-10-31T14:29:43.0000000+00:00</time></trkpt><trkpt lat="39.2494815" lon="-0.32661167"><ele>13.0</ele><time>2022-10-31T14:29:44.0000000+00:00</time></trkpt><trkpt lat="39.24943708" lon="-0.32657236"><ele>12.8</ele><time>2022-10-31T14:29:45.0000000+00:00</time></trkpt><trkpt lat="39.24940053" lon="-0.32654185"><ele>12.8</ele><time>2022-10-31T14:29:46.0000000+00:00</time></trkpt><trkpt lat="39.24936357" lon="-0.32650698"><ele>12.8</ele><time>2022-10-31T14:29:47.0000000+00:00</time></trkpt><trkpt lat="39.24932635" lon="-0.32647077"><ele>12.8</ele><time>2022-10-31T14:29:48.0000000+00:00</time></trkpt><trkpt lat="39.24929065" lon="-0.32643682"><ele>12.8</ele><time>2022-10-31T14:29:49.0000000+00:00</time></trkpt><trkpt lat="39.24925922" lon="-0.32641059"><ele>12.8</ele><time>2022-10-31T14:29:50.0000000+00:00</time></trkpt><trkpt lat="39.24921722" lon="-0.32637421"><ele>12.8</ele><time>2022-10-31T14:29:51.0000000+00:00</time></trkpt><trkpt lat="39.24917917" lon="-0.32633708"><ele>12.8</ele><time>2022-10-31T14:29:52.0000000+00:00</time></trkpt><trkpt lat="39.24914254" lon="-0.32629978"><ele>12.8</ele><time>2022-10-31T14:29:53.0000000+00:00</time></trkpt><trkpt lat="39.24909996" lon="-0.32625586"><ele>12.8</ele><time>2022-10-31T14:29:54.0000000+00:00</time></trkpt><trkpt lat="39.24906501" lon="-0.32621906"><ele>12.4</ele><time>2022-10-31T14:29:55.0000000+00:00</time></trkpt><trkpt lat="39.24902871" lon="-0.32618084"><ele>12.4</ele><time>2022-10-31T14:29:56.0000000+00:00</time></trkpt><trkpt lat="39.24899141" lon="-0.32614153"><ele>12.4</ele><time>2022-10-31T14:29:57.0000000+00:00</time></trkpt><trkpt lat="39.24895654" lon="-0.32609752"><ele>12.2</ele><time>2022-10-31T14:29:58.0000000+00:00</time></trkpt><trkpt lat="39.24891983" lon="-0.32605469"><ele>12.2</ele><time>2022-10-31T14:29:59.0000000+00:00</time></trkpt><trkpt lat="39.24889175" lon="-0.32602125"><ele>12.4</ele><time>2022-10-31T14:30:00.0000000+00:00</time></trkpt><trkpt lat="39.24884976" lon="-0.32597423"><ele>12.6</ele><time>2022-10-31T14:30:01.0000000+00:00</time></trkpt><trkpt lat="39.24881497" lon="-0.32593533"><ele>12.6</ele><time>2022-10-31T14:30:02.0000000+00:00</time></trkpt><trkpt lat="39.24878857" lon="-0.32590407"><ele>12.6</ele><time>2022-10-31T14:30:03.0000000+00:00</time></trkpt><trkpt lat="39.24875169" lon="-0.32585051"><ele>12.8</ele><time>2022-10-31T14:30:04.0000000+00:00</time></trkpt><trkpt lat="39.24873032" lon="-0.32579896"><ele>12.8</ele><time>2022-10-31T14:30:05.0000000+00:00</time></trkpt><trkpt lat="39.24872244" lon="-0.32575278"><ele>12.8</ele><time>2022-10-31T14:30:06.0000000+00:00</time></trkpt><trkpt lat="39.24872068" lon="-0.32567893"><ele>12.8</ele><time>2022-10-31T14:30:07.0000000+00:00</time></trkpt><trkpt lat="39.24872998" lon="-0.32561858"><ele>13.0</ele><time>2022-10-31T14:30:08.0000000+00:00</time></trkpt><trkpt lat="39.24874063" lon="-0.32557181"><ele>13.2</ele><time>2022-10-31T14:30:09.0000000+00:00</time></trkpt><trkpt lat="39.24875588" lon="-0.32551171"><ele>13.2</ele><time>2022-10-31T14:30:10.0000000+00:00</time></trkpt><trkpt lat="39.24877399" lon="-0.3254569"><ele>13.2</ele><time>2022-10-31T14:30:11.0000000+00:00</time></trkpt><trkpt lat="39.24879586" lon="-0.32539998"><ele>13.4</ele><time>2022-10-31T14:30:12.0000000+00:00</time></trkpt><trkpt lat="39.24882126" lon="-0.3253315"><ele>13.4</ele><time>2022-10-31T14:30:13.0000000+00:00</time></trkpt><trkpt lat="39.24883727" lon="-0.32527249"><ele>13.4</ele><time>2022-10-31T14:30:14.0000000+00:00</time></trkpt><trkpt lat="39.24884666" lon="-0.32522413"><ele>13.4</ele><time>2022-10-31T14:30:15.0000000+00:00</time></trkpt><trkpt lat="39.24885714" lon="-0.3251476"><ele>13.4</ele><time>2022-10-31T14:30:16.0000000+00:00</time></trkpt><trkpt lat="39.24886166" lon="-0.32508097"><ele>13.4</ele><time>2022-10-31T14:30:17.0000000+00:00</time></trkpt><trkpt lat="39.24886216" lon="-0.32502632"><ele>13.4</ele><time>2022-10-31T14:30:18.0000000+00:00</time></trkpt><trkpt lat="39.24885605" lon="-0.32496002"><ele>13.4</ele><time>2022-10-31T14:30:19.0000000+00:00</time></trkpt><trkpt lat="39.24883853" lon="-0.32488634"><ele>13.4</ele><time>2022-10-31T14:30:20.0000000+00:00</time></trkpt><trkpt lat="39.24882118" lon="-0.32484015"><ele>13.2</ele><time>2022-10-31T14:30:21.0000000+00:00</time></trkpt><trkpt lat="39.24878857" lon="-0.3247757"><ele>13.2</ele><time>2022-10-31T14:30:22.0000000+00:00</time></trkpt><trkpt lat="39.24875555" lon="-0.32472909"><ele>13.0</ele><time>2022-10-31T14:30:23.0000000+00:00</time></trkpt><trkpt lat="39.2487299" lon="-0.32469062"><ele>13.0</ele><time>2022-10-31T14:30:24.0000000+00:00</time></trkpt><trkpt lat="39.24868941" lon="-0.32462901"><ele>12.8</ele><time>2022-10-31T14:30:25.0000000+00:00</time></trkpt><trkpt lat="39.24865622" lon="-0.3245799"><ele>12.8</ele><time>2022-10-31T14:30:26.0000000+00:00</time></trkpt><trkpt lat="39.24863099" lon="-0.32454126"><ele>12.8</ele><time>2022-10-31T14:30:27.0000000+00:00</time></trkpt><trkpt lat="39.24859269" lon="-0.32448351"><ele>12.8</ele><time>2022-10-31T14:30:28.0000000+00:00</time></trkpt><trkpt lat="39.24856276" lon="-0.3244333"><ele>12.8</ele><time>2022-10-31T14:30:29.0000000+00:00</time></trkpt><trkpt lat="39.2485403" lon="-0.32439432"><ele>12.8</ele><time>2022-10-31T14:30:30.0000000+00:00</time></trkpt><trkpt lat="39.24850736" lon="-0.32433121"><ele>12.8</ele><time>2022-10-31T14:30:31.0000000+00:00</time></trkpt><trkpt lat="39.24848054" lon="-0.32428125"><ele>12.8</ele><time>2022-10-31T14:30:32.0000000+00:00</time></trkpt><trkpt lat="39.24845967" lon="-0.32424261"><ele>12.8</ele><time>2022-10-31T14:30:33.0000000+00:00</time></trkpt><trkpt lat="39.24843276" lon="-0.32418829"><ele>12.8</ele><time>2022-10-31T14:30:34.0000000+00:00</time></trkpt><trkpt lat="39.24840552" lon="-0.32413574"><ele>12.8</ele><time>2022-10-31T14:30:35.0000000+00:00</time></trkpt><trkpt lat="39.24837115" lon="-0.32407623"><ele>13.0</ele><time>2022-10-31T14:30:36.0000000+00:00</time></trkpt><trkpt lat="39.24835129" lon="-0.32403834"><ele>13.0</ele><time>2022-10-31T14:30:37.0000000+00:00</time></trkpt><trkpt lat="39.24832438" lon="-0.32399124"><ele>13.0</ele><time>2022-10-31T14:30:38.0000000+00:00</time></trkpt><trkpt lat="39.24829387" lon="-0.32393625"><ele>13.0</ele><time>2022-10-31T14:30:39.0000000+00:00</time></trkpt><trkpt lat="39.24827484" lon="-0.32390423"><ele>12.8</ele><time>2022-10-31T14:30:40.0000000+00:00</time></trkpt><trkpt lat="39.24824827" lon="-0.32385729"><ele>12.8</ele><time>2022-10-31T14:30:41.0000000+00:00</time></trkpt><trkpt lat="39.2482233" lon="-0.32381756"><ele>12.8</ele><time>2022-10-31T14:30:42.0000000+00:00</time></trkpt><trkpt lat="39.24820268" lon="-0.32378404"><ele>12.6</ele><time>2022-10-31T14:30:43.0000000+00:00</time></trkpt><trkpt lat="39.24817669" lon="-0.32374028"><ele>12.6</ele><time>2022-10-31T14:30:44.0000000+00:00</time></trkpt><trkpt lat="39.24814836" lon="-0.32368706"><ele>12.6</ele><time>2022-10-31T14:30:45.0000000+00:00</time></trkpt><trkpt lat="39.24812766" lon="-0.32364934"><ele>12.6</ele><time>2022-10-31T14:30:46.0000000+00:00</time></trkpt><trkpt lat="39.2480979" lon="-0.32359343"><ele>12.6</ele><time>2022-10-31T14:30:47.0000000+00:00</time></trkpt><trkpt lat="39.24807368" lon="-0.32354993"><ele>12.8</ele><time>2022-10-31T14:30:48.0000000+00:00</time></trkpt><trkpt lat="39.2480539" lon="-0.32351338"><ele>12.8</ele><time>2022-10-31T14:30:49.0000000+00:00</time></trkpt><trkpt lat="39.24802079" lon="-0.32345974"><ele>12.8</ele><time>2022-10-31T14:30:50.0000000+00:00</time></trkpt><trkpt lat="39.247999" lon="-0.32342303"><ele>12.8</ele><time>2022-10-31T14:30:51.0000000+00:00</time></trkpt><trkpt lat="39.24797276" lon="-0.32338003"><ele>12.8</ele><time>2022-10-31T14:30:52.0000000+00:00</time></trkpt><trkpt lat="39.24794049" lon="-0.3233237"><ele>12.8</ele><time>2022-10-31T14:30:53.0000000+00:00</time></trkpt><trkpt lat="39.24792012" lon="-0.32328749"><ele>12.8</ele><time>2022-10-31T14:30:54.0000000+00:00</time></trkpt><trkpt lat="39.24789355" lon="-0.32323368"><ele>12.8</ele><time>2022-10-31T14:30:55.0000000+00:00</time></trkpt><trkpt lat="39.24786547" lon="-0.32318263"><ele>12.8</ele><time>2022-10-31T14:30:56.0000000+00:00</time></trkpt><trkpt lat="39.2478275" lon="-0.32312522"><ele>12.8</ele><time>2022-10-31T14:30:57.0000000+00:00</time></trkpt><trkpt lat="39.24780336" lon="-0.32308482"><ele>13.0</ele><time>2022-10-31T14:30:58.0000000+00:00</time></trkpt><trkpt lat="39.24777076" lon="-0.32302304"><ele>13.0</ele><time>2022-10-31T14:30:59.0000000+00:00</time></trkpt><trkpt lat="39.24775098" lon="-0.32298197"><ele>13.0</ele><time>2022-10-31T14:31:00.0000000+00:00</time></trkpt><trkpt lat="39.24772684" lon="-0.32292858"><ele>13.0</ele><time>2022-10-31T14:31:01.0000000+00:00</time></trkpt><trkpt lat="39.24769674" lon="-0.32286068"><ele>13.0</ele><time>2022-10-31T14:31:02.0000000+00:00</time></trkpt><trkpt lat="39.24767244" lon="-0.32280503"><ele>13.0</ele><time>2022-10-31T14:31:03.0000000+00:00</time></trkpt><trkpt lat="39.24765257" lon="-0.32276345"><ele>13.0</ele><time>2022-10-31T14:31:04.0000000+00:00</time></trkpt><trkpt lat="39.24762483" lon="-0.32270637"><ele>13.0</ele><time>2022-10-31T14:31:05.0000000+00:00</time></trkpt><trkpt lat="39.2476063" lon="-0.3226586"><ele>13.0</ele><time>2022-10-31T14:31:06.0000000+00:00</time></trkpt><trkpt lat="39.24759097" lon="-0.32261174"><ele>13.0</ele><time>2022-10-31T14:31:07.0000000+00:00</time></trkpt><trkpt lat="39.24757781" lon="-0.32256547"><ele>13.0</ele><time>2022-10-31T14:31:08.0000000+00:00</time></trkpt><trkpt lat="39.24756632" lon="-0.32251795"><ele>13.0</ele><time>2022-10-31T14:31:09.0000000+00:00</time></trkpt><trkpt lat="39.24755895" lon="-0.32247956"><ele>13.0</ele><time>2022-10-31T14:31:10.0000000+00:00</time></trkpt><trkpt lat="39.2475509" lon="-0.3224317"><ele>13.0</ele><time>2022-10-31T14:31:11.0000000+00:00</time></trkpt><trkpt lat="39.24754193" lon="-0.32238124"><ele>13.0</ele><time>2022-10-31T14:31:12.0000000+00:00</time></trkpt><trkpt lat="39.24753682" lon="-0.32234537"><ele>13.0</ele><time>2022-10-31T14:31:13.0000000+00:00</time></trkpt><trkpt lat="39.24753254" lon="-0.32231896"><ele>13.0</ele><time>2022-10-31T14:31:14.0000000+00:00</time></trkpt><trkpt lat="39.24752592" lon="-0.32229692"><ele>12.8</ele><time>2022-10-31T14:31:15.0000000+00:00</time></trkpt><trkpt lat="39.24751997" lon="-0.32228041"><ele>12.8</ele><time>2022-10-31T14:31:16.0000000+00:00</time></trkpt><trkpt lat="39.24750974" lon="-0.32226381"><ele>12.8</ele><time>2022-10-31T14:31:17.0000000+00:00</time></trkpt><trkpt lat="39.24749457" lon="-0.32224973"><ele>12.8</ele><time>2022-10-31T14:31:18.0000000+00:00</time></trkpt><trkpt lat="39.24748703" lon="-0.32223824"><ele>12.6</ele><time>2022-10-31T14:31:19.0000000+00:00</time></trkpt><trkpt lat="39.24747119" lon="-0.32222626"><ele>12.6</ele><time>2022-10-31T14:31:20.0000000+00:00</time></trkpt><trkpt lat="39.24745761" lon="-0.32221528"><ele>12.6</ele><time>2022-10-31T14:31:21.0000000+00:00</time></trkpt><trkpt lat="39.24743774" lon="-0.32221092"><ele>12.6</ele><time>2022-10-31T14:31:22.0000000+00:00</time></trkpt><trkpt lat="39.2474074" lon="-0.32221033"><ele>12.4</ele><time>2022-10-31T14:31:23.0000000+00:00</time></trkpt><trkpt lat="39.24737999" lon="-0.32221578"><ele>12.4</ele><time>2022-10-31T14:31:24.0000000+00:00</time></trkpt><trkpt lat="39.24735468" lon="-0.3222224"><ele>12.4</ele><time>2022-10-31T14:31:25.0000000+00:00</time></trkpt><trkpt lat="39.24731906" lon="-0.32222802"><ele>12.4</ele><time>2022-10-31T14:31:26.0000000+00:00</time></trkpt><trkpt lat="39.24729249" lon="-0.32223439"><ele>12.2</ele><time>2022-10-31T14:31:27.0000000+00:00</time></trkpt><trkpt lat="39.2472717" lon="-0.32224051"><ele>12.2</ele><time>2022-10-31T14:31:28.0000000+00:00</time></trkpt><trkpt lat="39.2472411" lon="-0.3222483"><ele>12.2</ele><time>2022-10-31T14:31:29.0000000+00:00</time></trkpt><trkpt lat="39.24721336" lon="-0.32225811"><ele>12.2</ele><time>2022-10-31T14:31:30.0000000+00:00</time></trkpt><trkpt lat="39.24718495" lon="-0.3222685"><ele>12.2</ele><time>2022-10-31T14:31:31.0000000+00:00</time></trkpt><trkpt lat="39.24715645" lon="-0.32228015"><ele>12.2</ele><time>2022-10-31T14:31:32.0000000+00:00</time></trkpt><trkpt lat="39.24712183" lon="-0.32229063"><ele>12.4</ele><time>2022-10-31T14:31:33.0000000+00:00</time></trkpt><trkpt lat="39.24709434" lon="-0.32229851"><ele>12.4</ele><time>2022-10-31T14:31:34.0000000+00:00</time></trkpt><trkpt lat="39.24704731" lon="-0.32231075"><ele>12.4</ele><time>2022-10-31T14:31:35.0000000+00:00</time></trkpt><trkpt lat="39.24701253" lon="-0.32231997"><ele>12.4</ele><time>2022-10-31T14:31:36.0000000+00:00</time></trkpt><trkpt lat="39.24696853" lon="-0.3223291"><ele>12.4</ele><time>2022-10-31T14:31:37.0000000+00:00</time></trkpt><trkpt lat="39.24692469" lon="-0.32234109"><ele>12.4</ele><time>2022-10-31T14:31:38.0000000+00:00</time></trkpt><trkpt lat="39.24687314" lon="-0.32235291"><ele>12.4</ele><time>2022-10-31T14:31:39.0000000+00:00</time></trkpt><trkpt lat="39.2468298" lon="-0.32236112"><ele>12.4</ele><time>2022-10-31T14:31:40.0000000+00:00</time></trkpt><trkpt lat="39.24678932" lon="-0.32237504"><ele>12.4</ele><time>2022-10-31T14:31:41.0000000+00:00</time></trkpt><trkpt lat="39.24674716" lon="-0.32239155"><ele>12.4</ele><time>2022-10-31T14:31:42.0000000+00:00</time></trkpt><trkpt lat="39.24671179" lon="-0.32240362"><ele>12.6</ele><time>2022-10-31T14:31:43.0000000+00:00</time></trkpt><trkpt lat="39.2466651" lon="-0.3224198"><ele>12.6</ele><time>2022-10-31T14:31:44.0000000+00:00</time></trkpt><trkpt lat="39.24660978" lon="-0.32244352"><ele>12.6</ele><time>2022-10-31T14:31:45.0000000+00:00</time></trkpt><trkpt lat="39.24657441" lon="-0.32246129"><ele>12.6</ele><time>2022-10-31T14:31:46.0000000+00:00</time></trkpt><trkpt lat="39.24652621" lon="-0.32248635"><ele>12.6</ele><time>2022-10-31T14:31:47.0000000+00:00</time></trkpt><trkpt lat="39.24648841" lon="-0.32250906"><ele>12.6</ele><time>2022-10-31T14:31:48.0000000+00:00</time></trkpt><trkpt lat="39.24646016" lon="-0.32252574"><ele>12.6</ele><time>2022-10-31T14:31:49.0000000+00:00</time></trkpt><trkpt lat="39.24641381" lon="-0.32255198"><ele>12.6</ele><time>2022-10-31T14:31:50.0000000+00:00</time></trkpt><trkpt lat="39.24637341" lon="-0.32257268"><ele>12.6</ele><time>2022-10-31T14:31:51.0000000+00:00</time></trkpt><trkpt lat="39.24634181" lon="-0.32258534"><ele>12.6</ele><time>2022-10-31T14:31:52.0000000+00:00</time></trkpt><trkpt lat="39.24629454" lon="-0.32259489"><ele>12.6</ele><time>2022-10-31T14:31:53.0000000+00:00</time></trkpt><trkpt lat="39.24625615" lon="-0.32259523"><ele>12.6</ele><time>2022-10-31T14:31:54.0000000+00:00</time></trkpt><trkpt lat="39.2462196" lon="-0.32259431"><ele>12.6</ele><time>2022-10-31T14:31:55.0000000+00:00</time></trkpt><trkpt lat="39.24618314" lon="-0.32259464"><ele>12.6</ele><time>2022-10-31T14:31:56.0000000+00:00</time></trkpt><trkpt lat="39.24614836" lon="-0.32259154"><ele>12.6</ele><time>2022-10-31T14:31:57.0000000+00:00</time></trkpt><trkpt lat="39.24611743" lon="-0.32258324"><ele>12.6</ele><time>2022-10-31T14:31:58.0000000+00:00</time></trkpt><trkpt lat="39.24609228" lon="-0.32257453"><ele>12.6</ele><time>2022-10-31T14:31:59.0000000+00:00</time></trkpt><trkpt lat="39.2460616" lon="-0.32256598"><ele>12.6</ele><time>2022-10-31T14:32:00.0000000+00:00</time></trkpt><trkpt lat="39.24602112" lon="-0.32255382"><ele>12.6</ele><time>2022-10-31T14:32:01.0000000+00:00</time></trkpt><trkpt lat="39.24599212" lon="-0.32254351"><ele>12.6</ele><time>2022-10-31T14:32:02.0000000+00:00</time></trkpt><trkpt lat="39.24594954" lon="-0.3225317"><ele>12.6</ele><time>2022-10-31T14:32:03.0000000+00:00</time></trkpt><trkpt lat="39.24591039" lon="-0.32252306"><ele>12.6</ele><time>2022-10-31T14:32:04.0000000+00:00</time></trkpt><trkpt lat="39.24587946" lon="-0.32251585"><ele>12.6</ele><time>2022-10-31T14:32:05.0000000+00:00</time></trkpt><trkpt lat="39.24583169" lon="-0.32250512"><ele>12.8</ele><time>2022-10-31T14:32:06.0000000+00:00</time></trkpt><trkpt lat="39.24579137" lon="-0.32249758"><ele>12.8</ele><time>2022-10-31T14:32:07.0000000+00:00</time></trkpt><trkpt lat="39.24575868" lon="-0.3224902"><ele>12.8</ele><time>2022-10-31T14:32:08.0000000+00:00</time></trkpt><trkpt lat="39.24570688" lon="-0.32247922"><ele>12.8</ele><time>2022-10-31T14:32:09.0000000+00:00</time></trkpt><trkpt lat="39.24567411" lon="-0.32247084"><ele>13.0</ele><time>2022-10-31T14:32:10.0000000+00:00</time></trkpt><trkpt lat="39.24563161" lon="-0.32245877"><ele>13.2</ele><time>2022-10-31T14:32:11.0000000+00:00</time></trkpt><trkpt lat="39.2455814" lon="-0.32244167"><ele>13.2</ele><time>2022-10-31T14:32:12.0000000+00:00</time></trkpt><trkpt lat="39.24554033" lon="-0.32242307"><ele>13.2</ele><time>2022-10-31T14:32:13.0000000+00:00</time></trkpt><trkpt lat="39.24550672" lon="-0.32240924"><ele>13.2</ele><time>2022-10-31T14:32:14.0000000+00:00</time></trkpt><trkpt lat="39.245454" lon="-0.32239549"><ele>13.2</ele><time>2022-10-31T14:32:15.0000000+00:00</time></trkpt><trkpt lat="39.24541092" lon="-0.32238702"><ele>13.2</ele><time>2022-10-31T14:32:16.0000000+00:00</time></trkpt><trkpt lat="39.24537605" lon="-0.32237864"><ele>13.2</ele><time>2022-10-31T14:32:17.0000000+00:00</time></trkpt><trkpt lat="39.24532274" lon="-0.3223685"><ele>13.2</ele><time>2022-10-31T14:32:18.0000000+00:00</time></trkpt><trkpt lat="39.24527622" lon="-0.3223592"><ele>13.0</ele><time>2022-10-31T14:32:19.0000000+00:00</time></trkpt><trkpt lat="39.24524051" lon="-0.32235299"><ele>13.0</ele><time>2022-10-31T14:32:20.0000000+00:00</time></trkpt><trkpt lat="39.24519626" lon="-0.3223457"><ele>13.0</ele><time>2022-10-31T14:32:21.0000000+00:00</time></trkpt><trkpt lat="39.24514144" lon="-0.32233564"><ele>13.0</ele><time>2022-10-31T14:32:22.0000000+00:00</time></trkpt><trkpt lat="39.24510355" lon="-0.32232491"><ele>12.8</ele><time>2022-10-31T14:32:23.0000000+00:00</time></trkpt><trkpt lat="39.24505913" lon="-0.32231167"><ele>12.8</ele><time>2022-10-31T14:32:24.0000000+00:00</time></trkpt><trkpt lat="39.24500682" lon="-0.32229717"><ele>13.0</ele><time>2022-10-31T14:32:25.0000000+00:00</time></trkpt><trkpt lat="39.24496441" lon="-0.32228678"><ele>13.0</ele><time>2022-10-31T14:32:26.0000000+00:00</time></trkpt><trkpt lat="39.24492032" lon="-0.32227932"><ele>13.2</ele><time>2022-10-31T14:32:27.0000000+00:00</time></trkpt><trkpt lat="39.24488529" lon="-0.32226993"><ele>13.2</ele><time>2022-10-31T14:32:28.0000000+00:00</time></trkpt><trkpt lat="39.24483382" lon="-0.32225635"><ele>13.2</ele><time>2022-10-31T14:32:29.0000000+00:00</time></trkpt><trkpt lat="39.24479166" lon="-0.32224168"><ele>13.2</ele><time>2022-10-31T14:32:30.0000000+00:00</time></trkpt><trkpt lat="39.244749" lon="-0.32222567"><ele>13.2</ele><time>2022-10-31T14:32:31.0000000+00:00</time></trkpt><trkpt lat="39.24470415" lon="-0.32221343"><ele>13.2</ele><time>2022-10-31T14:32:32.0000000+00:00</time></trkpt><trkpt lat="39.24466015" lon="-0.32220312"><ele>13.2</ele><time>2022-10-31T14:32:33.0000000+00:00</time></trkpt><trkpt lat="39.24461396" lon="-0.32219189"><ele>13.2</ele><time>2022-10-31T14:32:34.0000000+00:00</time></trkpt><trkpt lat="39.2445682" lon="-0.32217924"><ele>13.2</ele><time>2022-10-31T14:32:35.0000000+00:00</time></trkpt><trkpt lat="39.24453316" lon="-0.32216574"><ele>13.2</ele><time>2022-10-31T14:32:36.0000000+00:00</time></trkpt><trkpt lat="39.24447902" lon="-0.32214646"><ele>13.4</ele><time>2022-10-31T14:32:37.0000000+00:00</time></trkpt><trkpt lat="39.24443518" lon="-0.32212501"><ele>13.4</ele><time>2022-10-31T14:32:38.0000000+00:00</time></trkpt><trkpt lat="39.24439042" lon="-0.32210539"><ele>13.4</ele><time>2022-10-31T14:32:39.0000000+00:00</time></trkpt><trkpt lat="39.24434901" lon="-0.32208997"><ele>13.4</ele><time>2022-10-31T14:32:40.0000000+00:00</time></trkpt><trkpt lat="39.24431004" lon="-0.32207455"><ele>13.6</ele><time>2022-10-31T14:32:41.0000000+00:00</time></trkpt><trkpt lat="39.24427978" lon="-0.32205963"><ele>13.4</ele><time>2022-10-31T14:32:42.0000000+00:00</time></trkpt><trkpt lat="39.24423267" lon="-0.3220349"><ele>13.4</ele><time>2022-10-31T14:32:43.0000000+00:00</time></trkpt><trkpt lat="39.24420241" lon="-0.32201612"><ele>13.4</ele><time>2022-10-31T14:32:44.0000000+00:00</time></trkpt><trkpt lat="39.24415925" lon="-0.32197841"><ele>13.4</ele><time>2022-10-31T14:32:45.0000000+00:00</time></trkpt><trkpt lat="39.24412505" lon="-0.32193876"><ele>13.4</ele><time>2022-10-31T14:32:46.0000000+00:00</time></trkpt><trkpt lat="39.2440989" lon="-0.32190599"><ele>13.4</ele><time>2022-10-31T14:32:47.0000000+00:00</time></trkpt><trkpt lat="39.24406285" lon="-0.32185343"><ele>13.4</ele><time>2022-10-31T14:32:48.0000000+00:00</time></trkpt><trkpt lat="39.24403528" lon="-0.3218018"><ele>13.4</ele><time>2022-10-31T14:32:49.0000000+00:00</time></trkpt><trkpt lat="39.24400913" lon="-0.32174975"><ele>13.4</ele><time>2022-10-31T14:32:50.0000000+00:00</time></trkpt><trkpt lat="39.24398415" lon="-0.32169703"><ele>13.6</ele><time>2022-10-31T14:32:51.0000000+00:00</time></trkpt><trkpt lat="39.24395959" lon="-0.32164782"><ele>13.6</ele><time>2022-10-31T14:32:52.0000000+00:00</time></trkpt><trkpt lat="39.24394123" lon="-0.32160482"><ele>13.6</ele><time>2022-10-31T14:32:53.0000000+00:00</time></trkpt><trkpt lat="39.24391852" lon="-0.32154506"><ele>13.6</ele><time>2022-10-31T14:32:54.0000000+00:00</time></trkpt><trkpt lat="39.24390008" lon="-0.32149511"><ele>13.8</ele><time>2022-10-31T14:32:55.0000000+00:00</time></trkpt><trkpt lat="39.24388683" lon="-0.32145479"><ele>13.6</ele><time>2022-10-31T14:32:56.0000000+00:00</time></trkpt><trkpt lat="39.24386596" lon="-0.3214024"><ele>13.6</ele><time>2022-10-31T14:32:57.0000000+00:00</time></trkpt><trkpt lat="39.24384912" lon="-0.32135999"><ele>13.6</ele><time>2022-10-31T14:32:58.0000000+00:00</time></trkpt><trkpt lat="39.24383478" lon="-0.32131665"><ele>13.4</ele><time>2022-10-31T14:32:59.0000000+00:00</time></trkpt><trkpt lat="39.24382556" lon="-0.32128112"><ele>13.4</ele><time>2022-10-31T14:33:00.0000000+00:00</time></trkpt><trkpt lat="39.24381073" lon="-0.32122898"><ele>13.4</ele><time>2022-10-31T14:33:01.0000000+00:00</time></trkpt><trkpt lat="39.24379681" lon="-0.32118992"><ele>13.4</ele><time>2022-10-31T14:33:02.0000000+00:00</time></trkpt><trkpt lat="39.24378466" lon="-0.32115832"><ele>13.4</ele><time>2022-10-31T14:33:03.0000000+00:00</time></trkpt><trkpt lat="39.24376957" lon="-0.32112412"><ele>13.4</ele><time>2022-10-31T14:33:04.0000000+00:00</time></trkpt><trkpt lat="39.24375499" lon="-0.32108523"><ele>13.4</ele><time>2022-10-31T14:33:05.0000000+00:00</time></trkpt><trkpt lat="39.24374342" lon="-0.32105321"><ele>13.4</ele><time>2022-10-31T14:33:06.0000000+00:00</time></trkpt><trkpt lat="39.24372825" lon="-0.32101759"><ele>13.4</ele><time>2022-10-31T14:33:07.0000000+00:00</time></trkpt><trkpt lat="39.24371375" lon="-0.32097819"><ele>13.4</ele><time>2022-10-31T14:33:08.0000000+00:00</time></trkpt><trkpt lat="39.24369975" lon="-0.32093721"><ele>13.4</ele><time>2022-10-31T14:33:09.0000000+00:00</time></trkpt><trkpt lat="39.24368441" lon="-0.32089421"><ele>13.4</ele><time>2022-10-31T14:33:10.0000000+00:00</time></trkpt><trkpt lat="39.24367142" lon="-0.32086068"><ele>13.4</ele><time>2022-10-31T14:33:11.0000000+00:00</time></trkpt><trkpt lat="39.24364879" lon="-0.32080779"><ele>13.4</ele><time>2022-10-31T14:33:12.0000000+00:00</time></trkpt><trkpt lat="39.24362767" lon="-0.32076186"><ele>13.6</ele><time>2022-10-31T14:33:13.0000000+00:00</time></trkpt><trkpt lat="39.24360864" lon="-0.32071249"><ele>13.6</ele><time>2022-10-31T14:33:14.0000000+00:00</time></trkpt><trkpt lat="39.24359012" lon="-0.32066194"><ele>13.8</ele><time>2022-10-31T14:33:15.0000000+00:00</time></trkpt><trkpt lat="39.24357033" lon="-0.32061283"><ele>13.8</ele><time>2022-10-31T14:33:16.0000000+00:00</time></trkpt><trkpt lat="39.24355466" lon="-0.32056798"><ele>14.0</ele><time>2022-10-31T14:33:17.0000000+00:00</time></trkpt><trkpt lat="39.24353295" lon="-0.32052373"><ele>14.0</ele><time>2022-10-31T14:33:18.0000000+00:00</time></trkpt><trkpt lat="39.24350973" lon="-0.32047804"><ele>14.0</ele><time>2022-10-31T14:33:19.0000000+00:00</time></trkpt><trkpt lat="39.24348744" lon="-0.32043974"><ele>14.0</ele><time>2022-10-31T14:33:20.0000000+00:00</time></trkpt><trkpt lat="39.24346221" lon="-0.32038526"><ele>13.8</ele><time>2022-10-31T14:33:21.0000000+00:00</time></trkpt><trkpt lat="39.24344561" lon="-0.32034427"><ele>13.6</ele><time>2022-10-31T14:33:22.0000000+00:00</time></trkpt><trkpt lat="39.24342876" lon="-0.32030588"><ele>13.4</ele><time>2022-10-31T14:33:23.0000000+00:00</time></trkpt><trkpt lat="39.24341359" lon="-0.32026925"><ele>13.2</ele><time>2022-10-31T14:33:24.0000000+00:00</time></trkpt><trkpt lat="39.24340177" lon="-0.32023841"><ele>13.2</ele><time>2022-10-31T14:33:25.0000000+00:00</time></trkpt><trkpt lat="39.24338937" lon="-0.32020169"><ele>13.0</ele><time>2022-10-31T14:33:26.0000000+00:00</time></trkpt><trkpt lat="39.24337411" lon="-0.3201592"><ele>13.0</ele><time>2022-10-31T14:33:27.0000000+00:00</time></trkpt><trkpt lat="39.24336414" lon="-0.32012726"><ele>13.0</ele><time>2022-10-31T14:33:28.0000000+00:00</time></trkpt><trkpt lat="39.24335626" lon="-0.32010002"><ele>13.0</ele><time>2022-10-31T14:33:29.0000000+00:00</time></trkpt><trkpt lat="39.24334394" lon="-0.32005836"><ele>13.0</ele><time>2022-10-31T14:33:30.0000000+00:00</time></trkpt><trkpt lat="39.24333346" lon="-0.32002651"><ele>13.2</ele><time>2022-10-31T14:33:31.0000000+00:00</time></trkpt><trkpt lat="39.24332198" lon="-0.31999776"><ele>13.2</ele><time>2022-10-31T14:33:32.0000000+00:00</time></trkpt><trkpt lat="39.24331142" lon="-0.31997161"><ele>13.2</ele><time>2022-10-31T14:33:33.0000000+00:00</time></trkpt><trkpt lat="39.24330069" lon="-0.31994772"><ele>13.2</ele><time>2022-10-31T14:33:34.0000000+00:00</time></trkpt><trkpt lat="39.24328778" lon="-0.3199188"><ele>13.2</ele><time>2022-10-31T14:33:35.0000000+00:00</time></trkpt><trkpt lat="39.24327227" lon="-0.31988829"><ele>13.2</ele><time>2022-10-31T14:33:36.0000000+00:00</time></trkpt><trkpt lat="39.24325727" lon="-0.3198546"><ele>13.2</ele><time>2022-10-31T14:33:37.0000000+00:00</time></trkpt><trkpt lat="39.2432416" lon="-0.31981403"><ele>13.2</ele><time>2022-10-31T14:33:38.0000000+00:00</time></trkpt><trkpt lat="39.24322659" lon="-0.31977187"><ele>13.2</ele><time>2022-10-31T14:33:39.0000000+00:00</time></trkpt><trkpt lat="39.2432115" lon="-0.31972904"><ele>13.2</ele><time>2022-10-31T14:33:40.0000000+00:00</time></trkpt><trkpt lat="39.24319491" lon="-0.31968562"><ele>13.0</ele><time>2022-10-31T14:33:41.0000000+00:00</time></trkpt><trkpt lat="39.24317597" lon="-0.31964463"><ele>12.8</ele><time>2022-10-31T14:33:42.0000000+00:00</time></trkpt><trkpt lat="39.24315794" lon="-0.31960172"><ele>12.8</ele><time>2022-10-31T14:33:43.0000000+00:00</time></trkpt><trkpt lat="39.24314043" lon="-0.31955344"><ele>12.8</ele><time>2022-10-31T14:33:44.0000000+00:00</time></trkpt><trkpt lat="39.24311997" lon="-0.31950356"><ele>13.0</ele><time>2022-10-31T14:33:45.0000000+00:00</time></trkpt><trkpt lat="39.24310246" lon="-0.31946409"><ele>13.4</ele><time>2022-10-31T14:33:46.0000000+00:00</time></trkpt><trkpt lat="39.24308142" lon="-0.31941296"><ele>13.6</ele><time>2022-10-31T14:33:47.0000000+00:00</time></trkpt><trkpt lat="39.24305686" lon="-0.3193506"><ele>13.8</ele><time>2022-10-31T14:33:48.0000000+00:00</time></trkpt><trkpt lat="39.24303657" lon="-0.31930315"><ele>13.8</ele><time>2022-10-31T14:33:49.0000000+00:00</time></trkpt><trkpt lat="39.24301478" lon="-0.31925295"><ele>13.8</ele><time>2022-10-31T14:33:50.0000000+00:00</time></trkpt><trkpt lat="39.24299458" lon="-0.3192019"><ele>13.8</ele><time>2022-10-31T14:33:51.0000000+00:00</time></trkpt><trkpt lat="39.24297497" lon="-0.31914935"><ele>13.8</ele><time>2022-10-31T14:33:52.0000000+00:00</time></trkpt><trkpt lat="39.24295963" lon="-0.3191045"><ele>13.8</ele><time>2022-10-31T14:33:53.0000000+00:00</time></trkpt><trkpt lat="39.2429354" lon="-0.31903426"><ele>13.8</ele><time>2022-10-31T14:33:54.0000000+00:00</time></trkpt><trkpt lat="39.24291344" lon="-0.31897961"><ele>13.8</ele><time>2022-10-31T14:33:55.0000000+00:00</time></trkpt><trkpt lat="39.2428919" lon="-0.3189263"><ele>13.6</ele><time>2022-10-31T14:33:56.0000000+00:00</time></trkpt><trkpt lat="39.24286843" lon="-0.31887207"><ele>13.6</ele><time>2022-10-31T14:33:57.0000000+00:00</time></trkpt><trkpt lat="39.24284731" lon="-0.31882078"><ele>13.6</ele><time>2022-10-31T14:33:58.0000000+00:00</time></trkpt><trkpt lat="39.24282644" lon="-0.31876696"><ele>13.6</ele><time>2022-10-31T14:33:59.0000000+00:00</time></trkpt><trkpt lat="39.24280331" lon="-0.31871592"><ele>13.6</ele><time>2022-10-31T14:34:00.0000000+00:00</time></trkpt><trkpt lat="39.24278512" lon="-0.31867384"><ele>13.8</ele><time>2022-10-31T14:34:01.0000000+00:00</time></trkpt><trkpt lat="39.24275737" lon="-0.31860947"><ele>14.0</ele><time>2022-10-31T14:34:02.0000000+00:00</time></trkpt><trkpt lat="39.24273256" lon="-0.31855758"><ele>14.0</ele><time>2022-10-31T14:34:03.0000000+00:00</time></trkpt><trkpt lat="39.24270943" lon="-0.31850771"><ele>14.0</ele><time>2022-10-31T14:34:04.0000000+00:00</time></trkpt><trkpt lat="39.24269015" lon="-0.31847511"><ele>14.0</ele><time>2022-10-31T14:34:05.0000000+00:00</time></trkpt><trkpt lat="39.24265503" lon="-0.31843563"><ele>14.0</ele><time>2022-10-31T14:34:06.0000000+00:00</time></trkpt><trkpt lat="39.24262561" lon="-0.31841853"><ele>13.8</ele><time>2022-10-31T14:34:07.0000000+00:00</time></trkpt><trkpt lat="39.24259979" lon="-0.31841174"><ele>13.8</ele><time>2022-10-31T14:34:08.0000000+00:00</time></trkpt><trkpt lat="39.2425614" lon="-0.31841283"><ele>13.8</ele><time>2022-10-31T14:34:09.0000000+00:00</time></trkpt><trkpt lat="39.24253098" lon="-0.31842465"><ele>13.8</ele><time>2022-10-31T14:34:10.0000000+00:00</time></trkpt><trkpt lat="39.24250893" lon="-0.31843931"><ele>13.6</ele><time>2022-10-31T14:34:11.0000000+00:00</time></trkpt><trkpt lat="39.24248136" lon="-0.31845943"><ele>13.6</ele><time>2022-10-31T14:34:12.0000000+00:00</time></trkpt><trkpt lat="39.2424516" lon="-0.31848081"><ele>13.6</ele><time>2022-10-31T14:34:13.0000000+00:00</time></trkpt><trkpt lat="39.24243643" lon="-0.31849279"><ele>13.4</ele><time>2022-10-31T14:34:14.0000000+00:00</time></trkpt><trkpt lat="39.24241003" lon="-0.31851199"><ele>13.4</ele><time>2022-10-31T14:34:15.0000000+00:00</time></trkpt><trkpt lat="39.24238916" lon="-0.31853143"><ele>13.4</ele><time>2022-10-31T14:34:16.0000000+00:00</time></trkpt><trkpt lat="39.24236711" lon="-0.31854526"><ele>13.6</ele><time>2022-10-31T14:34:17.0000000+00:00</time></trkpt><trkpt lat="39.24232897" lon="-0.31856613"><ele>13.6</ele><time>2022-10-31T14:34:18.0000000+00:00</time></trkpt><trkpt lat="39.24229721" lon="-0.31858868"><ele>13.6</ele><time>2022-10-31T14:34:19.0000000+00:00</time></trkpt><trkpt lat="39.24227307" lon="-0.31861031"><ele>13.6</ele><time>2022-10-31T14:34:20.0000000+00:00</time></trkpt><trkpt lat="39.24224113" lon="-0.31863604"><ele>13.8</ele><time>2022-10-31T14:34:21.0000000+00:00</time></trkpt><trkpt lat="39.24219704" lon="-0.31866169"><ele>13.8</ele><time>2022-10-31T14:34:22.0000000+00:00</time></trkpt><trkpt lat="39.24215681" lon="-0.31868239"><ele>13.8</ele><time>2022-10-31T14:34:23.0000000+00:00</time></trkpt><trkpt lat="39.24211775" lon="-0.3187041"><ele>13.8</ele><time>2022-10-31T14:34:24.0000000+00:00</time></trkpt><trkpt lat="39.24207643" lon="-0.31872623"><ele>13.8</ele><time>2022-10-31T14:34:25.0000000+00:00</time></trkpt><trkpt lat="39.24203862" lon="-0.31874986"><ele>13.8</ele><time>2022-10-31T14:34:26.0000000+00:00</time></trkpt><trkpt lat="39.24200208" lon="-0.31877208"><ele>13.6</ele><time>2022-10-31T14:34:27.0000000+00:00</time></trkpt><trkpt lat="39.24196671" lon="-0.31879404"><ele>13.6</ele><time>2022-10-31T14:34:28.0000000+00:00</time></trkpt><trkpt lat="39.24194089" lon="-0.31881072"><ele>13.4</ele><time>2022-10-31T14:34:29.0000000+00:00</time></trkpt><trkpt lat="39.24190778" lon="-0.31883033"><ele>13.4</ele><time>2022-10-31T14:34:30.0000000+00:00</time></trkpt><trkpt lat="39.24186562" lon="-0.31885472"><ele>13.4</ele><time>2022-10-31T14:34:31.0000000+00:00</time></trkpt><trkpt lat="39.24183318" lon="-0.3188766"><ele>13.4</ele><time>2022-10-31T14:34:32.0000000+00:00</time></trkpt><trkpt lat="39.24180293" lon="-0.31889831"><ele>13.4</ele><time>2022-10-31T14:34:33.0000000+00:00</time></trkpt><trkpt lat="39.24177351" lon="-0.3189227"><ele>13.4</ele><time>2022-10-31T14:34:34.0000000+00:00</time></trkpt><trkpt lat="39.24174308" lon="-0.31894516"><ele>13.4</ele><time>2022-10-31T14:34:35.0000000+00:00</time></trkpt><trkpt lat="39.24171433" lon="-0.31896964"><ele>13.4</ele><time>2022-10-31T14:34:36.0000000+00:00</time></trkpt><trkpt lat="39.24169337" lon="-0.31898934"><ele>13.4</ele><time>2022-10-31T14:34:37.0000000+00:00</time></trkpt><trkpt lat="39.24166018" lon="-0.31901758"><ele>13.4</ele><time>2022-10-31T14:34:38.0000000+00:00</time></trkpt><trkpt lat="39.24163881" lon="-0.31903569"><ele>13.4</ele><time>2022-10-31T14:34:39.0000000+00:00</time></trkpt><trkpt lat="39.24160595" lon="-0.31906502"><ele>13.4</ele><time>2022-10-31T14:34:40.0000000+00:00</time></trkpt><trkpt lat="39.24157938" lon="-0.31908933"><ele>13.6</ele><time>2022-10-31T14:34:41.0000000+00:00</time></trkpt><trkpt lat="39.24155264" lon="-0.3191123"><ele>13.8</ele><time>2022-10-31T14:34:42.0000000+00:00</time></trkpt><trkpt lat="39.24152548" lon="-0.31913535"><ele>13.8</ele><time>2022-10-31T14:34:43.0000000+00:00</time></trkpt><trkpt lat="39.24150067" lon="-0.31915982"><ele>13.8</ele><time>2022-10-31T14:34:44.0000000+00:00</time></trkpt><trkpt lat="39.24148349" lon="-0.31917709"><ele>13.8</ele><time>2022-10-31T14:34:45.0000000+00:00</time></trkpt><trkpt lat="39.24145558" lon="-0.31919695"><ele>13.8</ele><time>2022-10-31T14:34:46.0000000+00:00</time></trkpt><trkpt lat="39.24143077" lon="-0.31920349"><ele>13.8</ele><time>2022-10-31T14:34:47.0000000+00:00</time></trkpt><trkpt lat="39.24140789" lon="-0.31920785"><ele>13.8</ele><time>2022-10-31T14:34:48.0000000+00:00</time></trkpt><trkpt lat="39.24138257" lon="-0.3192112"><ele>13.8</ele><time>2022-10-31T14:34:49.0000000+00:00</time></trkpt><trkpt lat="39.24136045" lon="-0.31921498"><ele>13.8</ele><time>2022-10-31T14:34:50.0000000+00:00</time></trkpt><trkpt lat="39.24133027" lon="-0.31921322"><ele>13.8</ele><time>2022-10-31T14:34:51.0000000+00:00</time></trkpt><trkpt lat="39.24129373" lon="-0.31919679"><ele>13.8</ele><time>2022-10-31T14:34:52.0000000+00:00</time></trkpt><trkpt lat="39.24126347" lon="-0.31917147"><ele>14.0</ele><time>2022-10-31T14:34:53.0000000+00:00</time></trkpt><trkpt lat="39.24123606" lon="-0.31914013"><ele>14.0</ele><time>2022-10-31T14:34:54.0000000+00:00</time></trkpt><trkpt lat="39.24120697" lon="-0.31910341"><ele>14.0</ele><time>2022-10-31T14:34:55.0000000+00:00</time></trkpt><trkpt lat="39.2411742" lon="-0.31906595"><ele>14.2</ele><time>2022-10-31T14:34:56.0000000+00:00</time></trkpt><trkpt lat="39.24113983" lon="-0.31903183"><ele>14.2</ele><time>2022-10-31T14:34:57.0000000+00:00</time></trkpt><trkpt lat="39.24110496" lon="-0.31899621"><ele>14.2</ele><time>2022-10-31T14:34:58.0000000+00:00</time></trkpt><trkpt lat="39.24107219" lon="-0.31895748"><ele>14.2</ele><time>2022-10-31T14:34:59.0000000+00:00</time></trkpt><trkpt lat="39.24104302" lon="-0.31891314"><ele>14.2</ele><time>2022-10-31T14:35:00.0000000+00:00</time></trkpt><trkpt lat="39.24102232" lon="-0.31887543"><ele>14.2</ele><time>2022-10-31T14:35:01.0000000+00:00</time></trkpt><trkpt lat="39.24100162" lon="-0.31882396"><ele>14.2</ele><time>2022-10-31T14:35:02.0000000+00:00</time></trkpt><trkpt lat="39.24098225" lon="-0.31875305"><ele>14.2</ele><time>2022-10-31T14:35:03.0000000+00:00</time></trkpt><trkpt lat="39.24096725" lon="-0.31869672"><ele>14.2</ele><time>2022-10-31T14:35:04.0000000+00:00</time></trkpt><trkpt lat="39.24095426" lon="-0.31863671"><ele>14.0</ele><time>2022-10-31T14:35:05.0000000+00:00</time></trkpt><trkpt lat="39.24093951" lon="-0.31857569"><ele>14.0</ele><time>2022-10-31T14:35:06.0000000+00:00</time></trkpt><trkpt lat="39.24092257" lon="-0.31851701"><ele>13.6</ele><time>2022-10-31T14:35:07.0000000+00:00</time></trkpt><trkpt lat="39.24091076" lon="-0.31846044"><ele>13.0</ele><time>2022-10-31T14:35:08.0000000+00:00</time></trkpt><trkpt lat="39.24090237" lon="-0.31840746"><ele>12.6</ele><time>2022-10-31T14:35:09.0000000+00:00</time></trkpt><trkpt lat="39.24089927" lon="-0.31835633"><ele>12.4</ele><time>2022-10-31T14:35:10.0000000+00:00</time></trkpt><trkpt lat="39.24089617" lon="-0.31830437"><ele>12.2</ele><time>2022-10-31T14:35:11.0000000+00:00</time></trkpt><trkpt lat="39.24089609" lon="-0.3182638"><ele>12.2</ele><time>2022-10-31T14:35:12.0000000+00:00</time></trkpt><trkpt lat="39.24088997" lon="-0.31821376"><ele>12.2</ele><time>2022-10-31T14:35:13.0000000+00:00</time></trkpt><trkpt lat="39.24088603" lon="-0.31817118"><ele>12.2</ele><time>2022-10-31T14:35:14.0000000+00:00</time></trkpt><trkpt lat="39.24088444" lon="-0.31811988"><ele>12.4</ele><time>2022-10-31T14:35:15.0000000+00:00</time></trkpt><trkpt lat="39.24088142" lon="-0.31806406"><ele>12.6</ele><time>2022-10-31T14:35:16.0000000+00:00</time></trkpt><trkpt lat="39.24087773" lon="-0.31802181"><ele>13.2</ele><time>2022-10-31T14:35:17.0000000+00:00</time></trkpt><trkpt lat="39.2408748" lon="-0.31798175"><ele>13.8</ele><time>2022-10-31T14:35:18.0000000+00:00</time></trkpt><trkpt lat="39.2408691" lon="-0.31793355"><ele>14.0</ele><time>2022-10-31T14:35:19.0000000+00:00</time></trkpt><trkpt lat="39.24086097" lon="-0.31788401"><ele>14.2</ele><time>2022-10-31T14:35:20.0000000+00:00</time></trkpt><trkpt lat="39.24085024" lon="-0.31783364"><ele>14.4</ele><time>2022-10-31T14:35:21.0000000+00:00</time></trkpt><trkpt lat="39.24084186" lon="-0.31777949"><ele>14.4</ele><time>2022-10-31T14:35:22.0000000+00:00</time></trkpt><trkpt lat="39.24083708" lon="-0.31772476"><ele>14.4</ele><time>2022-10-31T14:35:23.0000000+00:00</time></trkpt><trkpt lat="39.24083658" lon="-0.31767874"><ele>14.6</ele><time>2022-10-31T14:35:24.0000000+00:00</time></trkpt><trkpt lat="39.24084093" lon="-0.31764295"><ele>14.6</ele><time>2022-10-31T14:35:25.0000000+00:00</time></trkpt><trkpt lat="39.24085007" lon="-0.31761789"><ele>14.6</ele><time>2022-10-31T14:35:26.0000000+00:00</time></trkpt><trkpt lat="39.24086323" lon="-0.31760364"><ele>14.4</ele><time>2022-10-31T14:35:27.0000000+00:00</time></trkpt><trkpt lat="39.24087614" lon="-0.31760045"><ele>14.2</ele><time>2022-10-31T14:35:28.0000000+00:00</time></trkpt><trkpt lat="39.24089039" lon="-0.31760129"><ele>14.2</ele><time>2022-10-31T14:35:29.0000000+00:00</time></trkpt><trkpt lat="39.24090673" lon="-0.31760565"><ele>14.0</ele><time>2022-10-31T14:35:30.0000000+00:00</time></trkpt><trkpt lat="39.24092685" lon="-0.31761454"><ele>14.0</ele><time>2022-10-31T14:35:31.0000000+00:00</time></trkpt><trkpt lat="39.24094772" lon="-0.31762451"><ele>14.0</ele><time>2022-10-31T14:35:32.0000000+00:00</time></trkpt><trkpt lat="39.240968" lon="-0.31763591"><ele>14.0</ele><time>2022-10-31T14:35:33.0000000+00:00</time></trkpt><trkpt lat="39.24099902" lon="-0.31765603"><ele>14.0</ele><time>2022-10-31T14:35:34.0000000+00:00</time></trkpt><trkpt lat="39.24102676" lon="-0.31767262"><ele>14.0</ele><time>2022-10-31T14:35:35.0000000+00:00</time></trkpt><trkpt lat="39.24105769" lon="-0.3176883"><ele>14.0</ele><time>2022-10-31T14:35:36.0000000+00:00</time></trkpt><trkpt lat="39.24108686" lon="-0.31770548"><ele>14.0</ele><time>2022-10-31T14:35:37.0000000+00:00</time></trkpt><trkpt lat="39.24111821" lon="-0.31773155"><ele>14.0</ele><time>2022-10-31T14:35:38.0000000+00:00</time></trkpt><trkpt lat="39.24115014" lon="-0.31774127"><ele>14.0</ele><time>2022-10-31T14:35:39.0000000+00:00</time></trkpt><trkpt lat="39.24118266" lon="-0.31775443"><ele>14.0</ele><time>2022-10-31T14:35:40.0000000+00:00</time></trkpt><trkpt lat="39.24121351" lon="-0.31776759"><ele>14.2</ele><time>2022-10-31T14:35:41.0000000+00:00</time></trkpt><trkpt lat="39.24123731" lon="-0.31778083"><ele>14.2</ele><time>2022-10-31T14:35:42.0000000+00:00</time></trkpt><trkpt lat="39.24126221" lon="-0.31779827"><ele>14.2</ele><time>2022-10-31T14:35:43.0000000+00:00</time></trkpt><trkpt lat="39.24128777" lon="-0.31781369"><ele>14.2</ele><time>2022-10-31T14:35:44.0000000+00:00</time></trkpt><trkpt lat="39.24131527" lon="-0.31782375"><ele>14.2</ele><time>2022-10-31T14:35:45.0000000+00:00</time></trkpt><trkpt lat="39.24134435" lon="-0.31782987"><ele>14.2</ele><time>2022-10-31T14:35:46.0000000+00:00</time></trkpt><trkpt lat="39.24136841" lon="-0.31784101"><ele>14.2</ele><time>2022-10-31T14:35:47.0000000+00:00</time></trkpt><trkpt lat="39.24139246" lon="-0.31785367"><ele>14.2</ele><time>2022-10-31T14:35:48.0000000+00:00</time></trkpt><trkpt lat="39.24141778" lon="-0.31786549"><ele>14.2</ele><time>2022-10-31T14:35:49.0000000+00:00</time></trkpt><trkpt lat="39.24144628" lon="-0.31787345"><ele>14.2</ele><time>2022-10-31T14:35:50.0000000+00:00</time></trkpt><trkpt lat="39.24147276" lon="-0.3178753"><ele>14.4</ele><time>2022-10-31T14:35:51.0000000+00:00</time></trkpt><trkpt lat="39.24150453" lon="-0.31787211"><ele>14.4</ele><time>2022-10-31T14:35:52.0000000+00:00</time></trkpt><trkpt lat="39.24153219" lon="-0.31786675"><ele>14.4</ele><time>2022-10-31T14:35:53.0000000+00:00</time></trkpt><trkpt lat="39.24157209" lon="-0.31786297"><ele>14.4</ele><time>2022-10-31T14:35:54.0000000+00:00</time></trkpt><trkpt lat="39.24159841" lon="-0.31785736"><ele>14.4</ele><time>2022-10-31T14:35:55.0000000+00:00</time></trkpt><trkpt lat="39.24163168" lon="-0.31785267"><ele>14.6</ele><time>2022-10-31T14:35:56.0000000+00:00</time></trkpt><trkpt lat="39.24167158" lon="-0.31784562"><ele>14.6</ele><time>2022-10-31T14:35:57.0000000+00:00</time></trkpt><trkpt lat="39.2417062" lon="-0.31784026"><ele>14.8</ele><time>2022-10-31T14:35:58.0000000+00:00</time></trkpt><trkpt lat="39.24174082" lon="-0.31783397"><ele>14.8</ele><time>2022-10-31T14:35:59.0000000+00:00</time></trkpt><trkpt lat="39.24177376" lon="-0.31782559"><ele>14.8</ele><time>2022-10-31T14:36:00.0000000+00:00</time></trkpt><trkpt lat="39.24179832" lon="-0.31781528"><ele>15.0</ele><time>2022-10-31T14:36:01.0000000+00:00</time></trkpt><trkpt lat="39.24183469" lon="-0.31779726"><ele>15.0</ele><time>2022-10-31T14:36:02.0000000+00:00</time></trkpt><trkpt lat="39.24186244" lon="-0.31778016"><ele>15.0</ele><time>2022-10-31T14:36:03.0000000+00:00</time></trkpt><trkpt lat="39.24189203" lon="-0.3177665"><ele>15.2</ele><time>2022-10-31T14:36:04.0000000+00:00</time></trkpt><trkpt lat="39.24192614" lon="-0.31775812"><ele>15.2</ele><time>2022-10-31T14:36:05.0000000+00:00</time></trkpt><trkpt lat="39.24196386" lon="-0.31774965"><ele>15.2</ele><time>2022-10-31T14:36:06.0000000+00:00</time></trkpt><trkpt lat="39.24199973" lon="-0.31774278"><ele>15.4</ele><time>2022-10-31T14:36:07.0000000+00:00</time></trkpt><trkpt lat="39.24203452" lon="-0.31773482"><ele>15.4</ele><time>2022-10-31T14:36:08.0000000+00:00</time></trkpt><trkpt lat="39.24206587" lon="-0.31772493"><ele>15.6</ele><time>2022-10-31T14:36:09.0000000+00:00</time></trkpt><trkpt lat="39.24209931" lon="-0.31771512"><ele>15.6</ele><time>2022-10-31T14:36:10.0000000+00:00</time></trkpt><trkpt lat="39.24212999" lon="-0.3177085"><ele>15.6</ele><time>2022-10-31T14:36:11.0000000+00:00</time></trkpt><trkpt lat="39.24216083" lon="-0.31769592"><ele>15.6</ele><time>2022-10-31T14:36:12.0000000+00:00</time></trkpt><trkpt lat="39.24219461" lon="-0.31768385"><ele>15.8</ele><time>2022-10-31T14:36:13.0000000+00:00</time></trkpt><trkpt lat="39.24222881" lon="-0.31766935"><ele>15.6</ele><time>2022-10-31T14:36:14.0000000+00:00</time></trkpt><trkpt lat="39.24225999" lon="-0.31765536"><ele>15.6</ele><time>2022-10-31T14:36:15.0000000+00:00</time></trkpt><trkpt lat="39.24228966" lon="-0.31763884"><ele>15.6</ele><time>2022-10-31T14:36:16.0000000+00:00</time></trkpt><trkpt lat="39.24230752" lon="-0.31762593"><ele>15.4</ele><time>2022-10-31T14:36:17.0000000+00:00</time></trkpt><trkpt lat="39.24233962" lon="-0.31760356"><ele>15.4</ele><time>2022-10-31T14:36:18.0000000+00:00</time></trkpt><trkpt lat="39.24236946" lon="-0.31758101"><ele>15.4</ele><time>2022-10-31T14:36:19.0000000+00:00</time></trkpt><trkpt lat="39.24240131" lon="-0.31755779"><ele>15.4</ele><time>2022-10-31T14:36:20.0000000+00:00</time></trkpt><trkpt lat="39.24243299" lon="-0.31752862"><ele>15.4</ele><time>2022-10-31T14:36:21.0000000+00:00</time></trkpt><trkpt lat="39.24246199" lon="-0.31749509"><ele>15.4</ele><time>2022-10-31T14:36:22.0000000+00:00</time></trkpt><trkpt lat="39.2424858" lon="-0.31745821"><ele>15.4</ele><time>2022-10-31T14:36:23.0000000+00:00</time></trkpt><trkpt lat="39.24250365" lon="-0.31742016"><ele>15.4</ele><time>2022-10-31T14:36:24.0000000+00:00</time></trkpt><trkpt lat="39.2425153" lon="-0.31738202"><ele>15.4</ele><time>2022-10-31T14:36:25.0000000+00:00</time></trkpt><trkpt lat="39.24253165" lon="-0.31734539"><ele>15.4</ele><time>2022-10-31T14:36:26.0000000+00:00</time></trkpt><trkpt lat="39.24255042" lon="-0.31731061"><ele>15.4</ele><time>2022-10-31T14:36:27.0000000+00:00</time></trkpt><trkpt lat="39.24256467" lon="-0.31726543"><ele>15.4</ele><time>2022-10-31T14:36:28.0000000+00:00</time></trkpt><trkpt lat="39.24257347" lon="-0.31722855"><ele>15.4</ele><time>2022-10-31T14:36:29.0000000+00:00</time></trkpt><trkpt lat="39.2425863" lon="-0.3171692"><ele>15.4</ele><time>2022-10-31T14:36:30.0000000+00:00</time></trkpt><trkpt lat="39.2426003" lon="-0.31712302"><ele>15.2</ele><time>2022-10-31T14:36:31.0000000+00:00</time></trkpt><trkpt lat="39.24261564" lon="-0.31707902"><ele>15.2</ele><time>2022-10-31T14:36:32.0000000+00:00</time></trkpt><trkpt lat="39.24263332" lon="-0.31703962"><ele>15.4</ele><time>2022-10-31T14:36:33.0000000+00:00</time></trkpt><trkpt lat="39.24265084" lon="-0.31700458"><ele>15.4</ele><time>2022-10-31T14:36:34.0000000+00:00</time></trkpt><trkpt lat="39.242665" lon="-0.31696896"><ele>15.4</ele><time>2022-10-31T14:36:35.0000000+00:00</time></trkpt><trkpt lat="39.24267707" lon="-0.31693661"><ele>15.4</ele><time>2022-10-31T14:36:36.0000000+00:00</time></trkpt><trkpt lat="39.24268856" lon="-0.31691213"><ele>15.4</ele><time>2022-10-31T14:36:37.0000000+00:00</time></trkpt><trkpt lat="39.24270524" lon="-0.3168771"><ele>15.4</ele><time>2022-10-31T14:36:38.0000000+00:00</time></trkpt><trkpt lat="39.24272234" lon="-0.31683871"><ele>15.4</ele><time>2022-10-31T14:36:39.0000000+00:00</time></trkpt><trkpt lat="39.24274338" lon="-0.3167921"><ele>15.4</ele><time>2022-10-31T14:36:40.0000000+00:00</time></trkpt><trkpt lat="39.24276148" lon="-0.3167538"><ele>15.4</ele><time>2022-10-31T14:36:41.0000000+00:00</time></trkpt><trkpt lat="39.2427821" lon="-0.3167144"><ele>15.4</ele><time>2022-10-31T14:36:42.0000000+00:00</time></trkpt><trkpt lat="39.24280264" lon="-0.31667677"><ele>15.4</ele><time>2022-10-31T14:36:43.0000000+00:00</time></trkpt><trkpt lat="39.24281915" lon="-0.31664584"><ele>15.4</ele><time>2022-10-31T14:36:44.0000000+00:00</time></trkpt><trkpt lat="39.24283214" lon="-0.31661768"><ele>15.4</ele><time>2022-10-31T14:36:45.0000000+00:00</time></trkpt><trkpt lat="39.24284069" lon="-0.31659379"><ele>15.4</ele><time>2022-10-31T14:36:46.0000000+00:00</time></trkpt><trkpt lat="39.24284714" lon="-0.31657426"><ele>15.4</ele><time>2022-10-31T14:36:47.0000000+00:00</time></trkpt><trkpt lat="39.24284999" lon="-0.31655934"><ele>15.2</ele><time>2022-10-31T14:36:48.0000000+00:00</time></trkpt><trkpt lat="39.24285268" lon="-0.31654752"><ele>15.2</ele><time>2022-10-31T14:36:49.0000000+00:00</time></trkpt><trkpt lat="39.24285787" lon="-0.31653989"><ele>15.2</ele><time>2022-10-31T14:36:50.0000000+00:00</time></trkpt><trkpt lat="39.24286659" lon="-0.31653218"><ele>15.2</ele><time>2022-10-31T14:36:51.0000000+00:00</time></trkpt><trkpt lat="39.24288084" lon="-0.31652514"><ele>15.2</ele><time>2022-10-31T14:36:52.0000000+00:00</time></trkpt><trkpt lat="39.24289886" lon="-0.31652137"><ele>15.0</ele><time>2022-10-31T14:36:53.0000000+00:00</time></trkpt><trkpt lat="39.24292174" lon="-0.31652011"><ele>15.0</ele><time>2022-10-31T14:36:54.0000000+00:00</time></trkpt><trkpt lat="39.24294798" lon="-0.31651533"><ele>15.0</ele><time>2022-10-31T14:36:55.0000000+00:00</time></trkpt><trkpt lat="39.24296977" lon="-0.31650452"><ele>15.0</ele><time>2022-10-31T14:36:56.0000000+00:00</time></trkpt><trkpt lat="39.24298813" lon="-0.31649111"><ele>15.0</ele><time>2022-10-31T14:36:57.0000000+00:00</time></trkpt><trkpt lat="39.24299777" lon="-0.31646898"><ele>15.0</ele><time>2022-10-31T14:36:58.0000000+00:00</time></trkpt><trkpt lat="39.24299567" lon="-0.31645289"><ele>15.0</ele><time>2022-10-31T14:36:59.0000000+00:00</time></trkpt><trkpt lat="39.24298134" lon="-0.31644199"><ele>15.0</ele><time>2022-10-31T14:37:00.0000000+00:00</time></trkpt><trkpt lat="39.24296533" lon="-0.31644509"><ele>15.0</ele><time>2022-10-31T14:37:01.0000000+00:00</time></trkpt><trkpt lat="39.24295192" lon="-0.31645565"><ele>15.0</ele><time>2022-10-31T14:37:02.0000000+00:00</time></trkpt><trkpt lat="39.24293499" lon="-0.31647141"><ele>15.0</ele><time>2022-10-31T14:37:03.0000000+00:00</time></trkpt><trkpt lat="39.24291923" lon="-0.31648759"><ele>15.0</ele><time>2022-10-31T14:37:04.0000000+00:00</time></trkpt><trkpt lat="39.24289819" lon="-0.3165072"><ele>15.0</ele><time>2022-10-31T14:37:05.0000000+00:00</time></trkpt><trkpt lat="39.24287581" lon="-0.31652816"><ele>15.0</ele><time>2022-10-31T14:37:06.0000000+00:00</time></trkpt><trkpt lat="39.24286039" lon="-0.31654727"><ele>15.0</ele><time>2022-10-31T14:37:07.0000000+00:00</time></trkpt><trkpt lat="39.24284404" lon="-0.31656504"><ele>15.0</ele><time>2022-10-31T14:37:08.0000000+00:00</time></trkpt><trkpt lat="39.24282543" lon="-0.31658432"><ele>15.0</ele><time>2022-10-31T14:37:09.0000000+00:00</time></trkpt><trkpt lat="39.24280758" lon="-0.31660728"><ele>15.0</ele><time>2022-10-31T14:37:10.0000000+00:00</time></trkpt><trkpt lat="39.24279434" lon="-0.31663477"><ele>15.0</ele><time>2022-10-31T14:37:11.0000000+00:00</time></trkpt><trkpt lat="39.24278059" lon="-0.31665514"><ele>15.0</ele><time>2022-10-31T14:37:12.0000000+00:00</time></trkpt><trkpt lat="39.24276383" lon="-0.31666755"><ele>15.0</ele><time>2022-10-31T14:37:13.0000000+00:00</time></trkpt><trkpt lat="39.24274421" lon="-0.31667677"><ele>15.0</ele><time>2022-10-31T14:37:14.0000000+00:00</time></trkpt><trkpt lat="39.24272217" lon="-0.31668859"><ele>15.0</ele><time>2022-10-31T14:37:15.0000000+00:00</time></trkpt><trkpt lat="39.24269694" lon="-0.31670099"><ele>15.2</ele><time>2022-10-31T14:37:16.0000000+00:00</time></trkpt><trkpt lat="39.24267439" lon="-0.3167113"><ele>15.0</ele><time>2022-10-31T14:37:17.0000000+00:00</time></trkpt><trkpt lat="39.24265419" lon="-0.31671289"><ele>15.2</ele><time>2022-10-31T14:37:18.0000000+00:00</time></trkpt><trkpt lat="39.242636" lon="-0.31671046"><ele>15.2</ele><time>2022-10-31T14:37:19.0000000+00:00</time></trkpt><trkpt lat="39.24261941" lon="-0.31670367"><ele>15.2</ele><time>2022-10-31T14:37:20.0000000+00:00</time></trkpt><trkpt lat="39.242607" lon="-0.31669336"><ele>15.4</ele><time>2022-10-31T14:37:21.0000000+00:00</time></trkpt><trkpt lat="39.24259208" lon="-0.31667928"><ele>15.4</ele><time>2022-10-31T14:37:22.0000000+00:00</time></trkpt><trkpt lat="39.24258068" lon="-0.31666612"><ele>15.6</ele><time>2022-10-31T14:37:23.0000000+00:00</time></trkpt><trkpt lat="39.24257062" lon="-0.31665606"><ele>15.6</ele><time>2022-10-31T14:37:24.0000000+00:00</time></trkpt><trkpt lat="39.24256207" lon="-0.31664232"><ele>15.8</ele><time>2022-10-31T14:37:25.0000000+00:00</time></trkpt><trkpt lat="39.24255411" lon="-0.31662933"><ele>15.8</ele><time>2022-10-31T14:37:26.0000000+00:00</time></trkpt><trkpt lat="39.2425428" lon="-0.31661818"><ele>16.0</ele><time>2022-10-31T14:37:27.0000000+00:00</time></trkpt><trkpt lat="39.24252972" lon="-0.3166067"><ele>16.2</ele><time>2022-10-31T14:37:28.0000000+00:00</time></trkpt><trkpt lat="39.24251673" lon="-0.31659974"><ele>16.4</ele><time>2022-10-31T14:37:29.0000000+00:00</time></trkpt><trkpt lat="39.24250784" lon="-0.31659245"><ele>16.6</ele><time>2022-10-31T14:37:30.0000000+00:00</time></trkpt><trkpt lat="39.24250525" lon="-0.31658926"><ele>16.8</ele><time>2022-10-31T14:37:31.0000000+00:00</time></trkpt><trkpt lat="39.24250525" lon="-0.31658926"><ele>17.0</ele><time>2022-10-31T14:37:32.0000000+00:00</time></trkpt><trkpt lat="39.24250525" lon="-0.31658926"><ele>17.0</ele><time>2022-10-31T14:37:33.0000000+00:00</time></trkpt><trkpt lat="39.24250525" lon="-0.31658926"><ele>17.2</ele><time>2022-10-31T14:37:34.0000000+00:00</time></trkpt><trkpt lat="39.24250525" lon="-0.31658926"><ele>17.0</ele><time>2022-10-31T14:37:35.0000000+00:00</time></trkpt><trkpt lat="39.24250525" lon="-0.31658926"><ele>17.2</ele><time>2022-10-31T14:37:36.0000000+00:00</time></trkpt><trkpt lat="39.24250525" lon="-0.31658926"><ele>17.2</ele><time>2022-10-31T14:37:37.0000000+00:00</time></trkpt><trkpt lat="39.24250525" lon="-0.31658926"><ele>17.2</ele><time>2022-10-31T14:37:38.0000000+00:00</time></trkpt><trkpt lat="39.24250525" lon="-0.31658926"><ele>17.2</ele><time>2022-10-31T14:37:39.0000000+00:00</time></trkpt><trkpt lat="39.24250525" lon="-0.31658926"><ele>17.2</ele><time>2022-10-31T14:37:40.0000000+00:00</time></trkpt><trkpt lat="39.24250525" lon="-0.31658926"><ele>17.2</ele><time>2022-10-31T14:37:41.0000000+00:00</time></trkpt><trkpt lat="39.24250525" lon="-0.31658926"><ele>17.2</ele><time>2022-10-31T14:37:42.0000000+00:00</time></trkpt><trkpt lat="39.24250525" lon="-0.31658926"><ele>17.2</ele><time>2022-10-31T14:37:43.0000000+00:00</time></trkpt><trkpt lat="39.24250525" lon="-0.31658926"><ele>17.2</ele><time>2022-10-31T14:37:44.0000000+00:00</time></trkpt><trkpt lat="39.24250399" lon="-0.31658675"><ele>17.0</ele><time>2022-10-31T14:37:45.0000000+00:00</time></trkpt><trkpt lat="39.24249812" lon="-0.31657811"><ele>17.2</ele><time>2022-10-31T14:37:46.0000000+00:00</time></trkpt><trkpt lat="39.24249175" lon="-0.31657107"><ele>17.2</ele><time>2022-10-31T14:37:47.0000000+00:00</time></trkpt><trkpt lat="39.24248496" lon="-0.31656487"><ele>17.2</ele><time>2022-10-31T14:37:48.0000000+00:00</time></trkpt><trkpt lat="39.24247851" lon="-0.316558"><ele>17.4</ele><time>2022-10-31T14:37:49.0000000+00:00</time></trkpt><trkpt lat="39.24247306" lon="-0.31655313"><ele>17.6</ele><time>2022-10-31T14:37:50.0000000+00:00</time></trkpt><trkpt lat="39.24246619" lon="-0.31654819"><ele>17.6</ele><time>2022-10-31T14:37:51.0000000+00:00</time></trkpt><trkpt lat="39.24245931" lon="-0.316545"><ele>17.8</ele><time>2022-10-31T14:37:52.0000000+00:00</time></trkpt><trkpt lat="39.24244992" lon="-0.31654542"><ele>17.8</ele><time>2022-10-31T14:37:53.0000000+00:00</time></trkpt><trkpt lat="39.24243735" lon="-0.31654559"><ele>17.8</ele><time>2022-10-31T14:37:54.0000000+00:00</time></trkpt><trkpt lat="39.24242243" lon="-0.31654785"><ele>17.8</ele><time>2022-10-31T14:37:55.0000000+00:00</time></trkpt><trkpt lat="39.2424138" lon="-0.31655146"><ele>17.8</ele><time>2022-10-31T14:37:56.0000000+00:00</time></trkpt><trkpt lat="39.24240709" lon="-0.31655448"><ele>17.8</ele><time>2022-10-31T14:37:57.0000000+00:00</time></trkpt><trkpt lat="39.24240081" lon="-0.31655615"><ele>17.8</ele><time>2022-10-31T14:37:58.0000000+00:00</time></trkpt><trkpt lat="39.24239226" lon="-0.31655867"><ele>18.0</ele><time>2022-10-31T14:37:59.0000000+00:00</time></trkpt><trkpt lat="39.24238103" lon="-0.31655607"><ele>18.0</ele><time>2022-10-31T14:38:00.0000000+00:00</time></trkpt><trkpt lat="39.24237155" lon="-0.31655188"><ele>18.2</ele><time>2022-10-31T14:38:01.0000000+00:00</time></trkpt><trkpt lat="39.24236099" lon="-0.31654618"><ele>18.2</ele><time>2022-10-31T14:38:02.0000000+00:00</time></trkpt><trkpt lat="39.24235378" lon="-0.31654207"><ele>18.2</ele><time>2022-10-31T14:38:03.0000000+00:00</time></trkpt><trkpt lat="39.2423454" lon="-0.3165357"><ele>18.4</ele><time>2022-10-31T14:38:04.0000000+00:00</time></trkpt><trkpt lat="39.24233509" lon="-0.31653067"><ele>18.4</ele><time>2022-10-31T14:38:05.0000000+00:00</time></trkpt><trkpt lat="39.24232512" lon="-0.31652615"><ele>18.6</ele><time>2022-10-31T14:38:06.0000000+00:00</time></trkpt><trkpt lat="39.24230777" lon="-0.31652187"><ele>18.6</ele><time>2022-10-31T14:38:07.0000000+00:00</time></trkpt><trkpt lat="39.24229905" lon="-0.31651433"><ele>18.8</ele><time>2022-10-31T14:38:08.0000000+00:00</time></trkpt><trkpt lat="39.24229159" lon="-0.31651206"><ele>18.8</ele><time>2022-10-31T14:38:09.0000000+00:00</time></trkpt><trkpt lat="39.24228572" lon="-0.31650871"><ele>19.0</ele><time>2022-10-31T14:38:10.0000000+00:00</time></trkpt><trkpt lat="39.2422781" lon="-0.31650905"><ele>19.0</ele><time>2022-10-31T14:38:11.0000000+00:00</time></trkpt><trkpt lat="39.24226854" lon="-0.31651089"><ele>19.2</ele><time>2022-10-31T14:38:12.0000000+00:00</time></trkpt><trkpt lat="39.24226066" lon="-0.3165155"><ele>19.2</ele><time>2022-10-31T14:38:13.0000000+00:00</time></trkpt><trkpt lat="39.24225479" lon="-0.31651734"><ele>19.2</ele><time>2022-10-31T14:38:14.0000000+00:00</time></trkpt><trkpt lat="39.24225178" lon="-0.31651424"><ele>19.2</ele><time>2022-10-31T14:38:15.0000000+00:00</time></trkpt><trkpt lat="39.24224985" lon="-0.3165212"><ele>19.4</ele><time>2022-10-31T14:38:16.0000000+00:00</time></trkpt><trkpt lat="39.24224633" lon="-0.31652799"><ele>19.6</ele><time>2022-10-31T14:38:17.0000000+00:00</time></trkpt><trkpt lat="39.24224541" lon="-0.31653704"><ele>19.6</ele><time>2022-10-31T14:38:18.0000000+00:00</time></trkpt><trkpt lat="39.24224365" lon="-0.31654375"><ele>19.6</ele><time>2022-10-31T14:38:19.0000000+00:00</time></trkpt><trkpt lat="39.24223778" lon="-0.31654936"><ele>19.8</ele><time>2022-10-31T14:38:20.0000000+00:00</time></trkpt><trkpt lat="39.24223241" lon="-0.31655188"><ele>19.8</ele><time>2022-10-31T14:38:21.0000000+00:00</time></trkpt><trkpt lat="39.24222638" lon="-0.31655389"><ele>19.8</ele><time>2022-10-31T14:38:22.0000000+00:00</time></trkpt><trkpt lat="39.24221825" lon="-0.31655355"><ele>19.8</ele><time>2022-10-31T14:38:23.0000000+00:00</time></trkpt><trkpt lat="39.24220651" lon="-0.31655481"><ele>20.0</ele><time>2022-10-31T14:38:24.0000000+00:00</time></trkpt><trkpt lat="39.24219738" lon="-0.316558"><ele>20.0</ele><time>2022-10-31T14:38:25.0000000+00:00</time></trkpt><trkpt lat="39.24218866" lon="-0.31655624"><ele>20.0</ele><time>2022-10-31T14:38:26.0000000+00:00</time></trkpt><trkpt lat="39.24218246" lon="-0.31655188"><ele>20.2</ele><time>2022-10-31T14:38:27.0000000+00:00</time></trkpt><trkpt lat="39.24217936" lon="-0.31655012"><ele>20.2</ele><time>2022-10-31T14:38:28.0000000+00:00</time></trkpt><trkpt lat="39.24217307" lon="-0.31655104"><ele>20.2</ele><time>2022-10-31T14:38:29.0000000+00:00</time></trkpt><trkpt lat="39.24216469" lon="-0.31655632"><ele>20.2</ele><time>2022-10-31T14:38:30.0000000+00:00</time></trkpt><trkpt lat="39.24215555" lon="-0.316559"><ele>20.4</ele><time>2022-10-31T14:38:31.0000000+00:00</time></trkpt><trkpt lat="39.24214306" lon="-0.31655917"><ele>20.4</ele><time>2022-10-31T14:38:32.0000000+00:00</time></trkpt><trkpt lat="39.24213577" lon="-0.31656462"><ele>20.4</ele><time>2022-10-31T14:38:33.0000000+00:00</time></trkpt><trkpt lat="39.24212848" lon="-0.31656948"><ele>20.4</ele><time>2022-10-31T14:38:34.0000000+00:00</time></trkpt><trkpt lat="39.24211917" lon="-0.316573"><ele>20.6</ele><time>2022-10-31T14:38:35.0000000+00:00</time></trkpt><trkpt lat="39.2421056" lon="-0.31657216"><ele>20.6</ele><time>2022-10-31T14:38:36.0000000+00:00</time></trkpt><trkpt lat="39.24209286" lon="-0.31657132"><ele>20.6</ele><time>2022-10-31T14:38:37.0000000+00:00</time></trkpt><trkpt lat="39.2420838" lon="-0.31657401"><ele>20.8</ele><time>2022-10-31T14:38:38.0000000+00:00</time></trkpt><trkpt lat="39.24207291" lon="-0.31657677"><ele>20.8</ele><time>2022-10-31T14:38:39.0000000+00:00</time></trkpt><trkpt lat="39.24205866" lon="-0.31657535"><ele>20.8</ele><time>2022-10-31T14:38:40.0000000+00:00</time></trkpt><trkpt lat="39.24204458" lon="-0.31656596"><ele>20.8</ele><time>2022-10-31T14:38:41.0000000+00:00</time></trkpt><trkpt lat="39.2420341" lon="-0.31656252"><ele>21.0</ele><time>2022-10-31T14:38:42.0000000+00:00</time></trkpt><trkpt lat="39.24202161" lon="-0.31655682"><ele>21.0</ele><time>2022-10-31T14:38:43.0000000+00:00</time></trkpt><trkpt lat="39.24200795" lon="-0.31654995"><ele>21.0</ele><time>2022-10-31T14:38:44.0000000+00:00</time></trkpt><trkpt lat="39.24199001" lon="-0.31654249"><ele>21.0</ele><time>2022-10-31T14:38:45.0000000+00:00</time></trkpt><trkpt lat="39.24198691" lon="-0.31654107"><ele>21.0</ele><time>2022-10-31T14:38:46.0000000+00:00</time></trkpt><trkpt lat="39.2419849" lon="-0.3165409"><ele>21.0</ele><time>2022-10-31T14:38:47.0000000+00:00</time></trkpt><trkpt lat="39.24197601" lon="-0.31653805"><ele>21.0</ele><time>2022-10-31T14:38:48.0000000+00:00</time></trkpt><trkpt lat="39.24197031" lon="-0.31653537"><ele>21.0</ele><time>2022-10-31T14:38:49.0000000+00:00</time></trkpt><trkpt lat="39.24197031" lon="-0.31653537"><ele>21.2</ele><time>2022-10-31T14:38:50.0000000+00:00</time></trkpt><trkpt lat="39.24197031" lon="-0.31653537"><ele>21.2</ele><time>2022-10-31T14:38:51.0000000+00:00</time></trkpt><trkpt lat="39.24196704" lon="-0.31653277"><ele>21.4</ele><time>2022-10-31T14:38:52.0000000+00:00</time></trkpt><trkpt lat="39.24196084" lon="-0.31652883"><ele>21.4</ele><time>2022-10-31T14:38:53.0000000+00:00</time></trkpt><trkpt lat="39.24195531" lon="-0.3165248"><ele>21.4</ele><time>2022-10-31T14:38:54.0000000+00:00</time></trkpt><trkpt lat="39.24195011" lon="-0.31651944"><ele>21.6</ele><time>2022-10-31T14:38:55.0000000+00:00</time></trkpt><trkpt lat="39.24194433" lon="-0.31651307"><ele>21.6</ele><time>2022-10-31T14:38:56.0000000+00:00</time></trkpt><trkpt lat="39.24193821" lon="-0.31650544"><ele>21.6</ele><time>2022-10-31T14:38:57.0000000+00:00</time></trkpt><trkpt lat="39.24193226" lon="-0.31649957"><ele>21.8</ele><time>2022-10-31T14:38:58.0000000+00:00</time></trkpt><trkpt lat="39.24192245" lon="-0.31648667"><ele>21.8</ele><time>2022-10-31T14:38:59.0000000+00:00</time></trkpt><trkpt lat="39.24191491" lon="-0.31647543"><ele>21.8</ele><time>2022-10-31T14:39:00.0000000+00:00</time></trkpt><trkpt lat="39.24190669" lon="-0.31645507"><ele>21.8</ele><time>2022-10-31T14:39:01.0000000+00:00</time></trkpt><trkpt lat="39.24189957" lon="-0.3164357"><ele>22.0</ele><time>2022-10-31T14:39:02.0000000+00:00</time></trkpt><trkpt lat="39.24189605" lon="-0.316429"><ele>22.0</ele><time>2022-10-31T14:39:03.0000000+00:00</time></trkpt><trkpt lat="39.24189672" lon="-0.31642573"><ele>22.0</ele><time>2022-10-31T14:39:04.0000000+00:00</time></trkpt><trkpt lat="39.24189689" lon="-0.31641592"><ele>22.0</ele><time>2022-10-31T14:39:05.0000000+00:00</time></trkpt><trkpt lat="39.24189932" lon="-0.31640167"><ele>22.0</ele><time>2022-10-31T14:39:06.0000000+00:00</time></trkpt><trkpt lat="39.24190041" lon="-0.31639405"><ele>22.2</ele><time>2022-10-31T14:39:07.0000000+00:00</time></trkpt><trkpt lat="39.2419041" lon="-0.31638131"><ele>22.2</ele><time>2022-10-31T14:39:08.0000000+00:00</time></trkpt><trkpt lat="39.2419098" lon="-0.31636898"><ele>22.2</ele><time>2022-10-31T14:39:09.0000000+00:00</time></trkpt><trkpt lat="39.24191608" lon="-0.3163549"><ele>22.0</ele><time>2022-10-31T14:39:10.0000000+00:00</time></trkpt><trkpt lat="39.24191876" lon="-0.31634191"><ele>22.0</ele><time>2022-10-31T14:39:11.0000000+00:00</time></trkpt><trkpt lat="39.24192471" lon="-0.31633177"><ele>22.0</ele><time>2022-10-31T14:39:12.0000000+00:00</time></trkpt><trkpt lat="39.24193142" lon="-0.31631945"><ele>22.0</ele><time>2022-10-31T14:39:13.0000000+00:00</time></trkpt><trkpt lat="39.24193804" lon="-0.31630319"><ele>22.0</ele><time>2022-10-31T14:39:14.0000000+00:00</time></trkpt><trkpt lat="39.24194533" lon="-0.31629103"><ele>22.0</ele><time>2022-10-31T14:39:15.0000000+00:00</time></trkpt><trkpt lat="39.24194844" lon="-0.3162798"><ele>22.2</ele><time>2022-10-31T14:39:16.0000000+00:00</time></trkpt><trkpt lat="39.24195003" lon="-0.31627393"><ele>22.2</ele><time>2022-10-31T14:39:17.0000000+00:00</time></trkpt><trkpt lat="39.24195405" lon="-0.31626748"><ele>22.2</ele><time>2022-10-31T14:39:18.0000000+00:00</time></trkpt><trkpt lat="39.24195623" lon="-0.3162648"><ele>22.2</ele><time>2022-10-31T14:39:19.0000000+00:00</time></trkpt><trkpt lat="39.24195623" lon="-0.3162648"><ele>22.2</ele><time>2022-10-31T14:39:20.0000000+00:00</time></trkpt><trkpt lat="39.24195623" lon="-0.3162648"><ele>22.2</ele><time>2022-10-31T14:39:21.0000000+00:00</time></trkpt><trkpt lat="39.24195623" lon="-0.3162648"><ele>22.4</ele><time>2022-10-31T14:39:22.0000000+00:00</time></trkpt><trkpt lat="39.24195623" lon="-0.3162648"><ele>22.4</ele><time>2022-10-31T14:39:23.0000000+00:00</time></trkpt><trkpt lat="39.24196218" lon="-0.31626111"><ele>22.6</ele><time>2022-10-31T14:39:24.0000000+00:00</time></trkpt><trkpt lat="39.24196906" lon="-0.31624837"><ele>22.6</ele><time>2022-10-31T14:39:25.0000000+00:00</time></trkpt><trkpt lat="39.24196906" lon="-0.3162363"><ele>22.6</ele><time>2022-10-31T14:39:26.0000000+00:00</time></trkpt><trkpt lat="39.2419688" lon="-0.31622247"><ele>22.6</ele><time>2022-10-31T14:39:27.0000000+00:00</time></trkpt><trkpt lat="39.24196864" lon="-0.31621266"><ele>22.6</ele><time>2022-10-31T14:39:28.0000000+00:00</time></trkpt><trkpt lat="39.24196855" lon="-0.31620755"><ele>22.8</ele><time>2022-10-31T14:39:29.0000000+00:00</time></trkpt><trkpt lat="39.24196855" lon="-0.31620755"><ele>22.8</ele><time>2022-10-31T14:39:30.0000000+00:00</time></trkpt><trkpt lat="39.24196939" lon="-0.31620269"><ele>22.8</ele><time>2022-10-31T14:39:31.0000000+00:00</time></trkpt><trkpt lat="39.24196671" lon="-0.31620679"><ele>22.8</ele><time>2022-10-31T14:39:32.0000000+00:00</time></trkpt><trkpt lat="39.24196595" lon="-0.31620537"><ele>22.8</ele><time>2022-10-31T14:39:33.0000000+00:00</time></trkpt><trkpt lat="39.24196294" lon="-0.31620202"><ele>22.8</ele><time>2022-10-31T14:39:34.0000000+00:00</time></trkpt><trkpt lat="39.24196294" lon="-0.31620202"><ele>23.0</ele><time>2022-10-31T14:39:35.0000000+00:00</time></trkpt><trkpt lat="39.24196512" lon="-0.31619648"><ele>23.0</ele><time>2022-10-31T14:39:36.0000000+00:00</time></trkpt><trkpt lat="39.2419652" lon="-0.3161928"><ele>23.0</ele><time>2022-10-31T14:39:37.0000000+00:00</time></trkpt><trkpt lat="39.2419652" lon="-0.3161928"><ele>23.0</ele><time>2022-10-31T14:39:38.0000000+00:00</time></trkpt><trkpt lat="39.2419652" lon="-0.3161928"><ele>23.0</ele><time>2022-10-31T14:39:39.0000000+00:00</time></trkpt><trkpt lat="39.2419652" lon="-0.3161928"><ele>23.0</ele><time>2022-10-31T14:39:40.0000000+00:00</time></trkpt><trkpt lat="39.2419652" lon="-0.3161928"><ele>23.0</ele><time>2022-10-31T14:39:41.0000000+00:00</time></trkpt><trkpt lat="39.2419652" lon="-0.3161928"><ele>23.0</ele><time>2022-10-31T14:39:42.0000000+00:00</time></trkpt><trkpt lat="39.24196403" lon="-0.31619313"><ele>23.0</ele><time>2022-10-31T14:39:43.0000000+00:00</time></trkpt><trkpt lat="39.24196461" lon="-0.31618877"><ele>23.0</ele><time>2022-10-31T14:39:44.0000000+00:00</time></trkpt><trkpt lat="39.24196218" lon="-0.3161814"><ele>23.0</ele><time>2022-10-31T14:39:45.0000000+00:00</time></trkpt><trkpt lat="39.2419595" lon="-0.3161788"><ele>23.0</ele><time>2022-10-31T14:39:46.0000000+00:00</time></trkpt><trkpt lat="39.2419595" lon="-0.3161788"><ele>23.2</ele><time>2022-10-31T14:39:47.0000000+00:00</time></trkpt><trkpt lat="39.24195983" lon="-0.31617897"><ele>23.2</ele><time>2022-10-31T14:39:48.0000000+00:00</time></trkpt><trkpt lat="39.24195833" lon="-0.31618265"><ele>23.2</ele><time>2022-10-31T14:39:49.0000000+00:00</time></trkpt><trkpt lat="39.24195925" lon="-0.31619062"><ele>23.2</ele><time>2022-10-31T14:39:50.0000000+00:00</time></trkpt><trkpt lat="39.24196092" lon="-0.31620093"><ele>23.0</ele><time>2022-10-31T14:39:51.0000000+00:00</time></trkpt><trkpt lat="39.2419569" lon="-0.31621484"><ele>22.8</ele><time>2022-10-31T14:39:52.0000000+00:00</time></trkpt><trkpt lat="39.24196327" lon="-0.31622808"><ele>22.8</ele><time>2022-10-31T14:39:53.0000000+00:00</time></trkpt><trkpt lat="39.24196989" lon="-0.31623999"><ele>22.6</ele><time>2022-10-31T14:39:54.0000000+00:00</time></trkpt><trkpt lat="39.24197685" lon="-0.31624854"><ele>22.6</ele><time>2022-10-31T14:39:55.0000000+00:00</time></trkpt><trkpt lat="39.24197903" lon="-0.31625181"><ele>22.6</ele><time>2022-10-31T14:39:56.0000000+00:00</time></trkpt><trkpt lat="39.24197903" lon="-0.31625181"><ele>22.6</ele><time>2022-10-31T14:39:57.0000000+00:00</time></trkpt><trkpt lat="39.2419766" lon="-0.31625222"><ele>22.6</ele><time>2022-10-31T14:39:58.0000000+00:00</time></trkpt><trkpt lat="39.24197224" lon="-0.31624963"><ele>22.6</ele><time>2022-10-31T14:39:59.0000000+00:00</time></trkpt><trkpt lat="39.24197224" lon="-0.31624963"><ele>22.6</ele><time>2022-10-31T14:40:00.0000000+00:00</time></trkpt><trkpt lat="39.24197316" lon="-0.31625155"><ele>22.6</ele><time>2022-10-31T14:40:01.0000000+00:00</time></trkpt><trkpt lat="39.24197258" lon="-0.31625507"><ele>22.6</ele><time>2022-10-31T14:40:02.0000000+00:00</time></trkpt><trkpt lat="39.24197258" lon="-0.31625507"><ele>22.6</ele><time>2022-10-31T14:40:03.0000000+00:00</time></trkpt><trkpt lat="39.2419704" lon="-0.3162477"><ele>22.8</ele><time>2022-10-31T14:40:04.0000000+00:00</time></trkpt><trkpt lat="39.24197056" lon="-0.31624091"><ele>22.8</ele><time>2022-10-31T14:40:05.0000000+00:00</time></trkpt><trkpt lat="39.24197056" lon="-0.31624091"><ele>22.8</ele><time>2022-10-31T14:40:06.0000000+00:00</time></trkpt><trkpt lat="39.24197056" lon="-0.31624091"><ele>22.8</ele><time>2022-10-31T14:40:07.0000000+00:00</time></trkpt><trkpt lat="39.24197056" lon="-0.31624091"><ele>22.8</ele><time>2022-10-31T14:40:08.0000000+00:00</time></trkpt><trkpt lat="39.24197056" lon="-0.31624091"><ele>22.8</ele><time>2022-10-31T14:40:09.0000000+00:00</time></trkpt><trkpt lat="39.24197056" lon="-0.31624091"><ele>22.8</ele><time>2022-10-31T14:40:10.0000000+00:00</time></trkpt><trkpt lat="39.24197056" lon="-0.31624091"><ele>22.8</ele><time>2022-10-31T14:40:11.0000000+00:00</time></trkpt><trkpt lat="39.24197056" lon="-0.31624091"><ele>22.6</ele><time>2022-10-31T14:40:12.0000000+00:00</time></trkpt><trkpt lat="39.24197056" lon="-0.31624091"><ele>22.6</ele><time>2022-10-31T14:40:13.0000000+00:00</time></trkpt><trkpt lat="39.24197056" lon="-0.31624091"><ele>22.6</ele><time>2022-10-31T14:40:14.0000000+00:00</time></trkpt><trkpt lat="39.24197056" lon="-0.31624091"><ele>22.6</ele><time>2022-10-31T14:40:15.0000000+00:00</time></trkpt><trkpt lat="39.24197056" lon="-0.31624091"><ele>22.6</ele><time>2022-10-31T14:40:16.0000000+00:00</time></trkpt><trkpt lat="39.24197056" lon="-0.31624091"><ele>22.8</ele><time>2022-10-31T14:40:17.0000000+00:00</time></trkpt><trkpt lat="39.24197056" lon="-0.31624091"><ele>22.8</ele><time>2022-10-31T14:40:18.0000000+00:00</time></trkpt><trkpt lat="39.24196805" lon="-0.31623655"><ele>22.8</ele><time>2022-10-31T14:40:19.0000000+00:00</time></trkpt><trkpt lat="39.24196461" lon="-0.31623135"><ele>22.8</ele><time>2022-10-31T14:40:20.0000000+00:00</time></trkpt><trkpt lat="39.24196419" lon="-0.31622716"><ele>22.8</ele><time>2022-10-31T14:40:21.0000000+00:00</time></trkpt><trkpt lat="39.24196419" lon="-0.31622716"><ele>22.8</ele><time>2022-10-31T14:40:22.0000000+00:00</time></trkpt><trkpt lat="39.24196419" lon="-0.31622716"><ele>22.6</ele><time>2022-10-31T14:40:23.0000000+00:00</time></trkpt><trkpt lat="39.24196419" lon="-0.31622716"><ele>22.6</ele><time>2022-10-31T14:40:24.0000000+00:00</time></trkpt><trkpt lat="39.24196419" lon="-0.31622716"><ele>22.6</ele><time>2022-10-31T14:40:25.0000000+00:00</time></trkpt><trkpt lat="39.24196419" lon="-0.31622716"><ele>22.6</ele><time>2022-10-31T14:40:26.0000000+00:00</time></trkpt><trkpt lat="39.24196419" lon="-0.31622716"><ele>22.6</ele><time>2022-10-31T14:40:27.0000000+00:00</time></trkpt><trkpt lat="39.24196419" lon="-0.31622716"><ele>22.6</ele><time>2022-10-31T14:40:28.0000000+00:00</time></trkpt><trkpt lat="39.24196419" lon="-0.31622716"><ele>22.6</ele><time>2022-10-31T14:40:29.0000000+00:00</time></trkpt><trkpt lat="39.24196419" lon="-0.31622716"><ele>22.6</ele><time>2022-10-31T14:40:30.0000000+00:00</time></trkpt><trkpt lat="39.24196562" lon="-0.31622515"><ele>22.6</ele><time>2022-10-31T14:40:31.0000000+00:00</time></trkpt><trkpt lat="39.24196654" lon="-0.31622104"><ele>22.6</ele><time>2022-10-31T14:40:32.0000000+00:00</time></trkpt><trkpt lat="39.24196654" lon="-0.31622104"><ele>22.6</ele><time>2022-10-31T14:40:33.0000000+00:00</time></trkpt><trkpt lat="39.24196654" lon="-0.31622104"><ele>22.6</ele><time>2022-10-31T14:40:34.0000000+00:00</time></trkpt><trkpt lat="39.24196654" lon="-0.31622104"><ele>22.6</ele><time>2022-10-31T14:40:35.0000000+00:00</time></trkpt><trkpt lat="39.24196654" lon="-0.31622104"><ele>22.6</ele><time>2022-10-31T14:40:36.0000000+00:00</time></trkpt><trkpt lat="39.24196654" lon="-0.31622104"><ele>22.6</ele><time>2022-10-31T14:40:37.0000000+00:00</time></trkpt><trkpt lat="39.24196654" lon="-0.31622104"><ele>22.6</ele><time>2022-10-31T14:40:38.0000000+00:00</time></trkpt><trkpt lat="39.24196654" lon="-0.31622104"><ele>22.6</ele><time>2022-10-31T14:40:39.0000000+00:00</time></trkpt><trkpt lat="39.24196654" lon="-0.31622104"><ele>22.6</ele><time>2022-10-31T14:40:40.0000000+00:00</time></trkpt><trkpt lat="39.24196369" lon="-0.31621677"><ele>22.6</ele><time>2022-10-31T14:40:41.0000000+00:00</time></trkpt><trkpt lat="39.24196109" lon="-0.31621618"><ele>22.6</ele><time>2022-10-31T14:40:42.0000000+00:00</time></trkpt><trkpt lat="39.24196109" lon="-0.31621618"><ele>22.6</ele><time>2022-10-31T14:40:43.0000000+00:00</time></trkpt><trkpt lat="39.24196109" lon="-0.31621618"><ele>22.6</ele><time>2022-10-31T14:40:44.0000000+00:00</time></trkpt><trkpt lat="39.24196109" lon="-0.31621618"><ele>22.6</ele><time>2022-10-31T14:40:45.0000000+00:00</time></trkpt><trkpt lat="39.24196109" lon="-0.31621618"><ele>22.6</ele><time>2022-10-31T14:40:46.0000000+00:00</time></trkpt><trkpt lat="39.24196109" lon="-0.31621618"><ele>22.6</ele><time>2022-10-31T14:40:47.0000000+00:00</time></trkpt><trkpt lat="39.24196109" lon="-0.31621618"><ele>22.6</ele><time>2022-10-31T14:40:48.0000000+00:00</time></trkpt><trkpt lat="39.24196109" lon="-0.31621618"><ele>22.6</ele><time>2022-10-31T14:40:49.0000000+00:00</time></trkpt><trkpt lat="39.24196109" lon="-0.31621618"><ele>22.6</ele><time>2022-10-31T14:40:50.0000000+00:00</time></trkpt><trkpt lat="39.24196109" lon="-0.31621618"><ele>22.6</ele><time>2022-10-31T14:40:51.0000000+00:00</time></trkpt><trkpt lat="39.24196109" lon="-0.31621618"><ele>22.6</ele><time>2022-10-31T14:40:52.0000000+00:00</time></trkpt><trkpt lat="39.24196109" lon="-0.31621618"><ele>22.6</ele><time>2022-10-31T14:40:53.0000000+00:00</time></trkpt><trkpt lat="39.24196" lon="-0.31622104"><ele>22.6</ele><time>2022-10-31T14:40:54.0000000+00:00</time></trkpt><trkpt lat="39.24196193" lon="-0.31622792"><ele>22.6</ele><time>2022-10-31T14:40:55.0000000+00:00</time></trkpt><trkpt lat="39.24196537" lon="-0.31622951"><ele>22.6</ele><time>2022-10-31T14:40:56.0000000+00:00</time></trkpt><trkpt lat="39.24196537" lon="-0.31622951"><ele>22.6</ele><time>2022-10-31T14:40:57.0000000+00:00</time></trkpt><trkpt lat="39.24196537" lon="-0.31622951"><ele>22.6</ele><time>2022-10-31T14:40:58.0000000+00:00</time></trkpt><trkpt lat="39.24196537" lon="-0.31622951"><ele>22.6</ele><time>2022-10-31T14:40:59.0000000+00:00</time></trkpt><trkpt lat="39.24196537" lon="-0.31622951"><ele>22.6</ele><time>2022-10-31T14:41:00.0000000+00:00</time></trkpt><trkpt lat="39.24196537" lon="-0.31622951"><ele>22.6</ele><time>2022-10-31T14:41:01.0000000+00:00</time></trkpt><trkpt lat="39.24196537" lon="-0.31622951"><ele>22.6</ele><time>2022-10-31T14:41:02.0000000+00:00</time></trkpt><trkpt lat="39.24196537" lon="-0.31622951"><ele>22.6</ele><time>2022-10-31T14:41:03.0000000+00:00</time></trkpt><trkpt lat="39.24196537" lon="-0.31622951"><ele>22.6</ele><time>2022-10-31T14:41:04.0000000+00:00</time></trkpt><trkpt lat="39.24196537" lon="-0.31622951"><ele>22.6</ele><time>2022-10-31T14:41:05.0000000+00:00</time></trkpt><trkpt lat="39.24196537" lon="-0.31622951"><ele>22.6</ele><time>2022-10-31T14:41:06.0000000+00:00</time></trkpt><trkpt lat="39.24196537" lon="-0.31622951"><ele>22.6</ele><time>2022-10-31T14:41:07.0000000+00:00</time></trkpt><trkpt lat="39.24196537" lon="-0.31622951"><ele>22.6</ele><time>2022-10-31T14:41:08.0000000+00:00</time></trkpt><trkpt lat="39.24196537" lon="-0.31622951"><ele>22.6</ele><time>2022-10-31T14:41:09.0000000+00:00</time></trkpt><trkpt lat="39.24196537" lon="-0.31622951"><ele>22.6</ele><time>2022-10-31T14:41:10.0000000+00:00</time></trkpt><trkpt lat="39.24196537" lon="-0.31622951"><ele>22.6</ele><time>2022-10-31T14:41:11.0000000+00:00</time></trkpt><trkpt lat="39.24196537" lon="-0.31622951"><ele>22.6</ele><time>2022-10-31T14:41:12.0000000+00:00</time></trkpt><trkpt lat="39.24196537" lon="-0.31622951"><ele>22.6</ele><time>2022-10-31T14:41:13.0000000+00:00</time></trkpt><trkpt lat="39.24196537" lon="-0.31622951"><ele>22.6</ele><time>2022-10-31T14:41:14.0000000+00:00</time></trkpt><trkpt lat="39.24196537" lon="-0.31622951"><ele>22.6</ele><time>2022-10-31T14:41:15.0000000+00:00</time></trkpt><trkpt lat="39.24196537" lon="-0.31622951"><ele>22.6</ele><time>2022-10-31T14:41:16.0000000+00:00</time></trkpt><trkpt lat="39.24196537" lon="-0.31622951"><ele>22.6</ele><time>2022-10-31T14:41:17.0000000+00:00</time></trkpt><trkpt lat="39.24196537" lon="-0.31622951"><ele>22.6</ele><time>2022-10-31T14:41:18.0000000+00:00</time></trkpt><trkpt lat="39.24196629" lon="-0.31623412"><ele>22.6</ele><time>2022-10-31T14:41:19.0000000+00:00</time></trkpt><trkpt lat="39.24196671" lon="-0.3162373"><ele>22.6</ele><time>2022-10-31T14:41:20.0000000+00:00</time></trkpt><trkpt lat="39.24196671" lon="-0.3162373"><ele>22.6</ele><time>2022-10-31T14:41:21.0000000+00:00</time></trkpt><trkpt lat="39.24196671" lon="-0.3162373"><ele>22.6</ele><time>2022-10-31T14:41:22.0000000+00:00</time></trkpt><trkpt lat="39.24196671" lon="-0.3162373"><ele>22.6</ele><time>2022-10-31T14:41:23.0000000+00:00</time></trkpt><trkpt lat="39.24196671" lon="-0.3162373"><ele>22.6</ele><time>2022-10-31T14:41:24.0000000+00:00</time></trkpt><trkpt lat="39.24196671" lon="-0.3162373"><ele>22.6</ele><time>2022-10-31T14:41:25.0000000+00:00</time></trkpt><trkpt lat="39.24196713" lon="-0.31624099"><ele>22.6</ele><time>2022-10-31T14:41:26.0000000+00:00</time></trkpt><trkpt lat="39.24196679" lon="-0.31624426"><ele>22.6</ele><time>2022-10-31T14:41:27.0000000+00:00</time></trkpt><trkpt lat="39.24196679" lon="-0.31624426"><ele>22.6</ele><time>2022-10-31T14:41:28.0000000+00:00</time></trkpt><trkpt lat="39.24196679" lon="-0.31624426"><ele>22.6</ele><time>2022-10-31T14:41:29.0000000+00:00</time></trkpt><trkpt lat="39.24196679" lon="-0.31624426"><ele>22.6</ele><time>2022-10-31T14:41:30.0000000+00:00</time></trkpt><trkpt lat="39.24196679" lon="-0.31624426"><ele>22.6</ele><time>2022-10-31T14:41:31.0000000+00:00</time></trkpt><trkpt lat="39.24196679" lon="-0.31624426"><ele>22.6</ele><time>2022-10-31T14:41:32.0000000+00:00</time></trkpt><trkpt lat="39.24196679" lon="-0.31624426"><ele>22.6</ele><time>2022-10-31T14:41:33.0000000+00:00</time></trkpt><trkpt lat="39.24196679" lon="-0.31624426"><ele>22.6</ele><time>2022-10-31T14:41:34.0000000+00:00</time></trkpt><trkpt lat="39.24196679" lon="-0.31624426"><ele>22.6</ele><time>2022-10-31T14:41:35.0000000+00:00</time></trkpt><trkpt lat="39.24196679" lon="-0.31624426"><ele>22.6</ele><time>2022-10-31T14:41:36.0000000+00:00</time></trkpt><trkpt lat="39.24196679" lon="-0.31624426"><ele>22.6</ele><time>2022-10-31T14:41:37.0000000+00:00</time></trkpt><trkpt lat="39.24196679" lon="-0.31624426"><ele>22.6</ele><time>2022-10-31T14:41:38.0000000+00:00</time></trkpt><trkpt lat="39.24196679" lon="-0.31624426"><ele>22.6</ele><time>2022-10-31T14:41:39.0000000+00:00</time></trkpt><trkpt lat="39.24196679" lon="-0.31624426"><ele>22.6</ele><time>2022-10-31T14:41:40.0000000+00:00</time></trkpt><trkpt lat="39.24196679" lon="-0.31624426"><ele>22.6</ele><time>2022-10-31T14:41:41.0000000+00:00</time></trkpt><trkpt lat="39.24196679" lon="-0.31624426"><ele>22.6</ele><time>2022-10-31T14:41:42.0000000+00:00</time></trkpt><trkpt lat="39.24196889" lon="-0.31623647"><ele>22.6</ele><time>2022-10-31T14:41:43.0000000+00:00</time></trkpt><trkpt lat="39.24196906" lon="-0.316227"><ele>22.6</ele><time>2022-10-31T14:41:44.0000000+00:00</time></trkpt><trkpt lat="39.24196939" lon="-0.31622029"><ele>22.6</ele><time>2022-10-31T14:41:45.0000000+00:00</time></trkpt><trkpt lat="39.24196621" lon="-0.31620763"><ele>22.6</ele><time>2022-10-31T14:41:46.0000000+00:00</time></trkpt><trkpt lat="39.24196503" lon="-0.31620537"><ele>22.6</ele><time>2022-10-31T14:41:47.0000000+00:00</time></trkpt><trkpt lat="39.2419621" lon="-0.31619464"><ele>22.6</ele><time>2022-10-31T14:41:48.0000000+00:00</time></trkpt><trkpt lat="39.24195849" lon="-0.3161912"><ele>22.6</ele><time>2022-10-31T14:41:49.0000000+00:00</time></trkpt><trkpt lat="39.24195849" lon="-0.3161912"><ele>22.6</ele><time>2022-10-31T14:41:50.0000000+00:00</time></trkpt><trkpt lat="39.24195849" lon="-0.3161912"><ele>22.6</ele><time>2022-10-31T14:41:51.0000000+00:00</time></trkpt><trkpt lat="39.24195849" lon="-0.3161912"><ele>22.6</ele><time>2022-10-31T14:41:52.0000000+00:00</time></trkpt><trkpt lat="39.24195849" lon="-0.3161912"><ele>22.6</ele><time>2022-10-31T14:41:53.0000000+00:00</time></trkpt><trkpt lat="39.24195849" lon="-0.3161912"><ele>22.6</ele><time>2022-10-31T14:41:54.0000000+00:00</time></trkpt><trkpt lat="39.24195849" lon="-0.3161912"><ele>22.6</ele><time>2022-10-31T14:41:55.0000000+00:00</time></trkpt><trkpt lat="39.24195849" lon="-0.3161912"><ele>22.6</ele><time>2022-10-31T14:41:56.0000000+00:00</time></trkpt><trkpt lat="39.24195849" lon="-0.3161912"><ele>22.6</ele><time>2022-10-31T14:41:57.0000000+00:00</time></trkpt><trkpt lat="39.24195849" lon="-0.3161912"><ele>22.8</ele><time>2022-10-31T14:41:58.0000000+00:00</time></trkpt><trkpt lat="39.24195849" lon="-0.3161912"><ele>22.8</ele><time>2022-10-31T14:41:59.0000000+00:00</time></trkpt><trkpt lat="39.24195849" lon="-0.3161912"><ele>22.8</ele><time>2022-10-31T14:42:00.0000000+00:00</time></trkpt><trkpt lat="39.24195849" lon="-0.3161912"><ele>22.8</ele><time>2022-10-31T14:42:01.0000000+00:00</time></trkpt><trkpt lat="39.24195849" lon="-0.3161912"><ele>23.0</ele><time>2022-10-31T14:42:02.0000000+00:00</time></trkpt><trkpt lat="39.24195849" lon="-0.3161912"><ele>23.2</ele><time>2022-10-31T14:42:03.0000000+00:00</time></trkpt><trkpt lat="39.24195849" lon="-0.3161912"><ele>23.4</ele><time>2022-10-31T14:42:04.0000000+00:00</time></trkpt><trkpt lat="39.24195849" lon="-0.3161912"><ele>23.4</ele><time>2022-10-31T14:42:05.0000000+00:00</time></trkpt><trkpt lat="39.24195849" lon="-0.3161912"><ele>23.6</ele><time>2022-10-31T14:42:06.0000000+00:00</time></trkpt><trkpt lat="39.24195849" lon="-0.3161912"><ele>23.6</ele><time>2022-10-31T14:42:07.0000000+00:00</time></trkpt><trkpt lat="39.24195849" lon="-0.3161912"><ele>23.8</ele><time>2022-10-31T14:42:08.0000000+00:00</time></trkpt><trkpt lat="39.24195849" lon="-0.3161912"><ele>24.0</ele><time>2022-10-31T14:42:09.0000000+00:00</time></trkpt><trkpt lat="39.24195849" lon="-0.3161912"><ele>24.2</ele><time>2022-10-31T14:42:10.0000000+00:00</time></trkpt><trkpt lat="39.24196528" lon="-0.31618911"><ele>24.2</ele><time>2022-10-31T14:42:11.0000000+00:00</time></trkpt><trkpt lat="39.24196855" lon="-0.31619003"><ele>24.4</ele><time>2022-10-31T14:42:12.0000000+00:00</time></trkpt><trkpt lat="39.24196855" lon="-0.31619003"><ele>24.6</ele><time>2022-10-31T14:42:13.0000000+00:00</time></trkpt><trkpt lat="39.24196855" lon="-0.31619003"><ele>24.8</ele><time>2022-10-31T14:42:14.0000000+00:00</time></trkpt><trkpt lat="39.24197023" lon="-0.31618324"><ele>24.8</ele><time>2022-10-31T14:42:15.0000000+00:00</time></trkpt><trkpt lat="39.24197551" lon="-0.31617109"><ele>25.0</ele><time>2022-10-31T14:42:16.0000000+00:00</time></trkpt><trkpt lat="39.24198582" lon="-0.31615759"><ele>25.0</ele><time>2022-10-31T14:42:17.0000000+00:00</time></trkpt><trkpt lat="39.24199395" lon="-0.31614385"><ele>25.0</ele><time>2022-10-31T14:42:18.0000000+00:00</time></trkpt><trkpt lat="39.24200024" lon="-0.31613362"><ele>25.0</ele><time>2022-10-31T14:42:19.0000000+00:00</time></trkpt><trkpt lat="39.2419978" lon="-0.3161306"><ele>25.0</ele><time>2022-10-31T14:42:20.0000000+00:00</time></trkpt><trkpt lat="39.2419978" lon="-0.3161306"><ele>25.2</ele><time>2022-10-31T14:42:21.0000000+00:00</time></trkpt><trkpt lat="39.2419978" lon="-0.3161306"><ele>25.6</ele><time>2022-10-31T14:42:22.0000000+00:00</time></trkpt><trkpt lat="39.2419978" lon="-0.3161306"><ele>25.8</ele><time>2022-10-31T14:42:23.0000000+00:00</time></trkpt><trkpt lat="39.2419978" lon="-0.3161306"><ele>26.0</ele><time>2022-10-31T14:42:24.0000000+00:00</time></trkpt><trkpt lat="39.2419978" lon="-0.3161306"><ele>26.0</ele><time>2022-10-31T14:42:25.0000000+00:00</time></trkpt><trkpt lat="39.2419978" lon="-0.3161306"><ele>26.2</ele><time>2022-10-31T14:42:26.0000000+00:00</time></trkpt><trkpt lat="39.2419978" lon="-0.3161306"><ele>26.2</ele><time>2022-10-31T14:42:27.0000000+00:00</time></trkpt><trkpt lat="39.2419978" lon="-0.3161306"><ele>26.4</ele><time>2022-10-31T14:42:28.0000000+00:00</time></trkpt><trkpt lat="39.24199889" lon="-0.31612692"><ele>26.4</ele><time>2022-10-31T14:42:29.0000000+00:00</time></trkpt><trkpt lat="39.24199688" lon="-0.31612432"><ele>26.6</ele><time>2022-10-31T14:42:30.0000000+00:00</time></trkpt><trkpt lat="39.24199688" lon="-0.31612432"><ele>26.8</ele><time>2022-10-31T14:42:31.0000000+00:00</time></trkpt><trkpt lat="39.24199688" lon="-0.31612432"><ele>27.0</ele><time>2022-10-31T14:42:32.0000000+00:00</time></trkpt><trkpt lat="39.24199688" lon="-0.31612432"><ele>27.2</ele><time>2022-10-31T14:42:33.0000000+00:00</time></trkpt><trkpt lat="39.24199957" lon="-0.31611677"><ele>27.2</ele><time>2022-10-31T14:42:34.0000000+00:00</time></trkpt><trkpt lat="39.24200619" lon="-0.31609867"><ele>27.4</ele><time>2022-10-31T14:42:35.0000000+00:00</time></trkpt><trkpt lat="39.24201038" lon="-0.3160788"><ele>27.4</ele><time>2022-10-31T14:42:36.0000000+00:00</time></trkpt><trkpt lat="39.24201876" lon="-0.31606288"><ele>27.4</ele><time>2022-10-31T14:42:37.0000000+00:00</time></trkpt><trkpt lat="39.24202253" lon="-0.31605274"><ele>27.6</ele><time>2022-10-31T14:42:38.0000000+00:00</time></trkpt><trkpt lat="39.24202278" lon="-0.31604863"><ele>27.6</ele><time>2022-10-31T14:42:39.0000000+00:00</time></trkpt><trkpt lat="39.24202278" lon="-0.31604863"><ele>27.6</ele><time>2022-10-31T14:42:40.0000000+00:00</time></trkpt><trkpt lat="39.24202278" lon="-0.31604863"><ele>28.0</ele><time>2022-10-31T14:42:41.0000000+00:00</time></trkpt><trkpt lat="39.24202278" lon="-0.31604863"><ele>28.0</ele><time>2022-10-31T14:42:42.0000000+00:00</time></trkpt><trkpt lat="39.24202329" lon="-0.31604075"><ele>28.2</ele><time>2022-10-31T14:42:43.0000000+00:00</time></trkpt><trkpt lat="39.24202371" lon="-0.3160379"><ele>28.6</ele><time>2022-10-31T14:42:44.0000000+00:00</time></trkpt><trkpt lat="39.24202371" lon="-0.3160379"><ele>28.6</ele><time>2022-10-31T14:42:45.0000000+00:00</time></trkpt><trkpt lat="39.24202371" lon="-0.3160379"><ele>28.8</ele><time>2022-10-31T14:42:46.0000000+00:00</time></trkpt><trkpt lat="39.24202371" lon="-0.3160379"><ele>29.0</ele><time>2022-10-31T14:42:47.0000000+00:00</time></trkpt><trkpt lat="39.24202438" lon="-0.31603656"><ele>29.2</ele><time>2022-10-31T14:42:48.0000000+00:00</time></trkpt><trkpt lat="39.24202572" lon="-0.31603396"><ele>29.4</ele><time>2022-10-31T14:42:49.0000000+00:00</time></trkpt><trkpt lat="39.24202982" lon="-0.31602851"><ele>29.6</ele><time>2022-10-31T14:42:50.0000000+00:00</time></trkpt><trkpt lat="39.24203184" lon="-0.31602667"><ele>29.8</ele><time>2022-10-31T14:42:51.0000000+00:00</time></trkpt><trkpt lat="39.24203309" lon="-0.31601896"><ele>30.0</ele><time>2022-10-31T14:42:52.0000000+00:00</time></trkpt><trkpt lat="39.24204114" lon="-0.31600487"><ele>30.0</ele><time>2022-10-31T14:42:53.0000000+00:00</time></trkpt><trkpt lat="39.24205497" lon="-0.31599255"><ele>30.2</ele><time>2022-10-31T14:42:54.0000000+00:00</time></trkpt><trkpt lat="39.24206184" lon="-0.31598736"><ele>30.2</ele><time>2022-10-31T14:42:55.0000000+00:00</time></trkpt><trkpt lat="39.24207106" lon="-0.31598023"><ele>30.2</ele><time>2022-10-31T14:42:56.0000000+00:00</time></trkpt><trkpt lat="39.24208188" lon="-0.3159768"><ele>30.2</ele><time>2022-10-31T14:42:57.0000000+00:00</time></trkpt><trkpt lat="39.24209101" lon="-0.31597897"><ele>30.4</ele><time>2022-10-31T14:42:58.0000000+00:00</time></trkpt><trkpt lat="39.24209504" lon="-0.31598065"><ele>30.4</ele><time>2022-10-31T14:42:59.0000000+00:00</time></trkpt><trkpt lat="39.24209504" lon="-0.31598065"><ele>30.4</ele><time>2022-10-31T14:43:00.0000000+00:00</time></trkpt><trkpt lat="39.24209504" lon="-0.31598065"><ele>30.4</ele><time>2022-10-31T14:43:01.0000000+00:00</time></trkpt><trkpt lat="39.24210182" lon="-0.31597386"><ele>30.4</ele><time>2022-10-31T14:43:02.0000000+00:00</time></trkpt><trkpt lat="39.24210576" lon="-0.31597269"><ele>30.6</ele><time>2022-10-31T14:43:03.0000000+00:00</time></trkpt><trkpt lat="39.24211079" lon="-0.31596305"><ele>30.6</ele><time>2022-10-31T14:43:04.0000000+00:00</time></trkpt><trkpt lat="39.24211783" lon="-0.31594779"><ele>30.8</ele><time>2022-10-31T14:43:05.0000000+00:00</time></trkpt><trkpt lat="39.24212119" lon="-0.31594385"><ele>31.2</ele><time>2022-10-31T14:43:06.0000000+00:00</time></trkpt><trkpt lat="39.24213192" lon="-0.31592751"><ele>31.2</ele><time>2022-10-31T14:43:07.0000000+00:00</time></trkpt><trkpt lat="39.24213552" lon="-0.31592189"><ele>31.4</ele><time>2022-10-31T14:43:08.0000000+00:00</time></trkpt><trkpt lat="39.24214323" lon="-0.31591787"><ele>31.4</ele><time>2022-10-31T14:43:09.0000000+00:00</time></trkpt><trkpt lat="39.24215455" lon="-0.31591066"><ele>31.6</ele><time>2022-10-31T14:43:10.0000000+00:00</time></trkpt><trkpt lat="39.24216989" lon="-0.31590438"><ele>31.6</ele><time>2022-10-31T14:43:11.0000000+00:00</time></trkpt><trkpt lat="39.24218346" lon="-0.31589549"><ele>31.6</ele><time>2022-10-31T14:43:12.0000000+00:00</time></trkpt><trkpt lat="39.24219579" lon="-0.31588887"><ele>31.6</ele><time>2022-10-31T14:43:13.0000000+00:00</time></trkpt><trkpt lat="39.24220827" lon="-0.31588275"><ele>31.6</ele><time>2022-10-31T14:43:14.0000000+00:00</time></trkpt><trkpt lat="39.24221498" lon="-0.31586858"><ele>31.8</ele><time>2022-10-31T14:43:15.0000000+00:00</time></trkpt><trkpt lat="39.24221984" lon="-0.31585274"><ele>31.8</ele><time>2022-10-31T14:43:16.0000000+00:00</time></trkpt><trkpt lat="39.24223183" lon="-0.31584084"><ele>31.8</ele><time>2022-10-31T14:43:17.0000000+00:00</time></trkpt><trkpt lat="39.24224834" lon="-0.31583078"><ele>31.8</ele><time>2022-10-31T14:43:18.0000000+00:00</time></trkpt><trkpt lat="39.24226494" lon="-0.31583615"><ele>31.8</ele><time>2022-10-31T14:43:19.0000000+00:00</time></trkpt><trkpt lat="39.24228019" lon="-0.31584679"><ele>31.8</ele><time>2022-10-31T14:43:20.0000000+00:00</time></trkpt><trkpt lat="39.24229235" lon="-0.31586171"><ele>31.8</ele><time>2022-10-31T14:43:21.0000000+00:00</time></trkpt><trkpt lat="39.24230316" lon="-0.31586967"><ele>31.8</ele><time>2022-10-31T14:43:22.0000000+00:00</time></trkpt><trkpt lat="39.24231883" lon="-0.31587973"><ele>31.6</ele><time>2022-10-31T14:43:23.0000000+00:00</time></trkpt><trkpt lat="39.24232679" lon="-0.31588267"><ele>31.6</ele><time>2022-10-31T14:43:24.0000000+00:00</time></trkpt><trkpt lat="39.24233073" lon="-0.3158856"><ele>31.6</ele><time>2022-10-31T14:43:25.0000000+00:00</time></trkpt><trkpt lat="39.24233761" lon="-0.3158877"><ele>31.6</ele><time>2022-10-31T14:43:26.0000000+00:00</time></trkpt><trkpt lat="39.24234054" lon="-0.31589021"><ele>31.6</ele><time>2022-10-31T14:43:27.0000000+00:00</time></trkpt><trkpt lat="39.24234482" lon="-0.31588962"><ele>31.6</ele><time>2022-10-31T14:43:28.0000000+00:00</time></trkpt><trkpt lat="39.24235722" lon="-0.31589918"><ele>31.6</ele><time>2022-10-31T14:43:29.0000000+00:00</time></trkpt><trkpt lat="39.24236041" lon="-0.31590094"><ele>31.6</ele><time>2022-10-31T14:43:30.0000000+00:00</time></trkpt><trkpt lat="39.24236175" lon="-0.31590044"><ele>31.6</ele><time>2022-10-31T14:43:31.0000000+00:00</time></trkpt><trkpt lat="39.24237273" lon="-0.31590052"><ele>31.6</ele><time>2022-10-31T14:43:32.0000000+00:00</time></trkpt><trkpt lat="39.24238346" lon="-0.31589801"><ele>31.8</ele><time>2022-10-31T14:43:33.0000000+00:00</time></trkpt><trkpt lat="39.24238497" lon="-0.31589742"><ele>31.6</ele><time>2022-10-31T14:43:34.0000000+00:00</time></trkpt><trkpt lat="39.24238832" lon="-0.3158975"><ele>31.6</ele><time>2022-10-31T14:43:35.0000000+00:00</time></trkpt><trkpt lat="39.2423905" lon="-0.31589666"><ele>31.6</ele><time>2022-10-31T14:43:36.0000000+00:00</time></trkpt><trkpt lat="39.2423905" lon="-0.31589666"><ele>31.6</ele><time>2022-10-31T14:43:37.0000000+00:00</time></trkpt><trkpt lat="39.2423905" lon="-0.31589666"><ele>31.6</ele><time>2022-10-31T14:43:38.0000000+00:00</time></trkpt><trkpt lat="39.2423905" lon="-0.31589666"><ele>31.6</ele><time>2022-10-31T14:43:39.0000000+00:00</time></trkpt><trkpt lat="39.2423905" lon="-0.31589666"><ele>31.6</ele><time>2022-10-31T14:43:40.0000000+00:00</time></trkpt><trkpt lat="39.2423905" lon="-0.31589666"><ele>31.6</ele><time>2022-10-31T14:43:41.0000000+00:00</time></trkpt><trkpt lat="39.2423905" lon="-0.31589666"><ele>31.6</ele><time>2022-10-31T14:43:42.0000000+00:00</time></trkpt><trkpt lat="39.2423905" lon="-0.31589666"><ele>31.6</ele><time>2022-10-31T14:43:43.0000000+00:00</time></trkpt><trkpt lat="39.2423905" lon="-0.31589666"><ele>31.6</ele><time>2022-10-31T14:43:44.0000000+00:00</time></trkpt><trkpt lat="39.24238983" lon="-0.3159027"><ele>31.6</ele><time>2022-10-31T14:43:45.0000000+00:00</time></trkpt><trkpt lat="39.24238807" lon="-0.31590681"><ele>31.6</ele><time>2022-10-31T14:43:46.0000000+00:00</time></trkpt><trkpt lat="39.24238807" lon="-0.31590681"><ele>31.6</ele><time>2022-10-31T14:43:47.0000000+00:00</time></trkpt><trkpt lat="39.24238807" lon="-0.31590681"><ele>31.6</ele><time>2022-10-31T14:43:48.0000000+00:00</time></trkpt><trkpt lat="39.24238807" lon="-0.31590681"><ele>31.6</ele><time>2022-10-31T14:43:49.0000000+00:00</time></trkpt><trkpt lat="39.24238807" lon="-0.31590681"><ele>31.6</ele><time>2022-10-31T14:43:50.0000000+00:00</time></trkpt><trkpt lat="39.24238622" lon="-0.31590496"><ele>31.6</ele><time>2022-10-31T14:43:51.0000000+00:00</time></trkpt><trkpt lat="39.24238404" lon="-0.31590379"><ele>31.6</ele><time>2022-10-31T14:43:52.0000000+00:00</time></trkpt><trkpt lat="39.24238471" lon="-0.31591242"><ele>31.6</ele><time>2022-10-31T14:43:53.0000000+00:00</time></trkpt><trkpt lat="39.2423858" lon="-0.31591862"><ele>31.6</ele><time>2022-10-31T14:43:54.0000000+00:00</time></trkpt><trkpt lat="39.24238765" lon="-0.3159265"><ele>31.6</ele><time>2022-10-31T14:43:55.0000000+00:00</time></trkpt><trkpt lat="39.24238832" lon="-0.31593514"><ele>31.6</ele><time>2022-10-31T14:43:56.0000000+00:00</time></trkpt><trkpt lat="39.24238631" lon="-0.31594017"><ele>31.6</ele><time>2022-10-31T14:43:57.0000000+00:00</time></trkpt><trkpt lat="39.2423853" lon="-0.31594092"><ele>31.6</ele><time>2022-10-31T14:43:58.0000000+00:00</time></trkpt><trkpt lat="39.24238136" lon="-0.31594335"><ele>31.8</ele><time>2022-10-31T14:43:59.0000000+00:00</time></trkpt><trkpt lat="39.24237734" lon="-0.3159462"><ele>31.8</ele><time>2022-10-31T14:44:00.0000000+00:00</time></trkpt><trkpt lat="39.24237734" lon="-0.3159462"><ele>31.8</ele><time>2022-10-31T14:44:01.0000000+00:00</time></trkpt><trkpt lat="39.24237734" lon="-0.3159462"><ele>31.8</ele><time>2022-10-31T14:44:02.0000000+00:00</time></trkpt><trkpt lat="39.24237734" lon="-0.3159462"><ele>31.8</ele><time>2022-10-31T14:44:03.0000000+00:00</time></trkpt><trkpt lat="39.24237734" lon="-0.3159462"><ele>31.8</ele><time>2022-10-31T14:44:04.0000000+00:00</time></trkpt><trkpt lat="39.24237885" lon="-0.3159493"><ele>31.8</ele><time>2022-10-31T14:44:05.0000000+00:00</time></trkpt><trkpt lat="39.24238899" lon="-0.31596422"><ele>31.8</ele><time>2022-10-31T14:44:06.0000000+00:00</time></trkpt><trkpt lat="39.24239025" lon="-0.31596657"><ele>31.8</ele><time>2022-10-31T14:44:07.0000000+00:00</time></trkpt><trkpt lat="39.24239025" lon="-0.31596657"><ele>31.8</ele><time>2022-10-31T14:44:08.0000000+00:00</time></trkpt><trkpt lat="39.24239025" lon="-0.31596657"><ele>31.8</ele><time>2022-10-31T14:44:09.0000000+00:00</time></trkpt><trkpt lat="39.24239025" lon="-0.31596657"><ele>31.8</ele><time>2022-10-31T14:44:10.0000000+00:00</time></trkpt><trkpt lat="39.24239025" lon="-0.31596657"><ele>31.8</ele><time>2022-10-31T14:44:11.0000000+00:00</time></trkpt><trkpt lat="39.24239025" lon="-0.31596657"><ele>31.8</ele><time>2022-10-31T14:44:12.0000000+00:00</time></trkpt><trkpt lat="39.24239025" lon="-0.31596657"><ele>31.8</ele><time>2022-10-31T14:44:13.0000000+00:00</time></trkpt><trkpt lat="39.24239025" lon="-0.31596657"><ele>31.8</ele><time>2022-10-31T14:44:14.0000000+00:00</time></trkpt><trkpt lat="39.24239025" lon="-0.31596657"><ele>31.8</ele><time>2022-10-31T14:44:15.0000000+00:00</time></trkpt><trkpt lat="39.24239033" lon="-0.3159659"><ele>31.8</ele><time>2022-10-31T14:44:16.0000000+00:00</time></trkpt><trkpt lat="39.24238756" lon="-0.31596422"><ele>31.8</ele><time>2022-10-31T14:44:17.0000000+00:00</time></trkpt><trkpt lat="39.24238756" lon="-0.31596422"><ele>31.8</ele><time>2022-10-31T14:44:18.0000000+00:00</time></trkpt><trkpt lat="39.24238756" lon="-0.31596422"><ele>31.8</ele><time>2022-10-31T14:44:19.0000000+00:00</time></trkpt><trkpt lat="39.24238756" lon="-0.31596422"><ele>31.8</ele><time>2022-10-31T14:44:20.0000000+00:00</time></trkpt><trkpt lat="39.24238756" lon="-0.31596422"><ele>31.8</ele><time>2022-10-31T14:44:21.0000000+00:00</time></trkpt><trkpt lat="39.24238756" lon="-0.31596422"><ele>31.8</ele><time>2022-10-31T14:44:22.0000000+00:00</time></trkpt><trkpt lat="39.2423858" lon="-0.31596338"><ele>31.8</ele><time>2022-10-31T14:44:23.0000000+00:00</time></trkpt><trkpt lat="39.24238438" lon="-0.31595366"><ele>31.8</ele><time>2022-10-31T14:44:24.0000000+00:00</time></trkpt><trkpt lat="39.24238253" lon="-0.31594302"><ele>31.8</ele><time>2022-10-31T14:44:25.0000000+00:00</time></trkpt><trkpt lat="39.24238245" lon="-0.31593195"><ele>31.8</ele><time>2022-10-31T14:44:26.0000000+00:00</time></trkpt><trkpt lat="39.24238203" lon="-0.3159229"><ele>32.0</ele><time>2022-10-31T14:44:27.0000000+00:00</time></trkpt><trkpt lat="39.24238036" lon="-0.31591821"><ele>31.8</ele><time>2022-10-31T14:44:28.0000000+00:00</time></trkpt><trkpt lat="39.24238036" lon="-0.31591821"><ele>32.0</ele><time>2022-10-31T14:44:29.0000000+00:00</time></trkpt><trkpt lat="39.24238362" lon="-0.3159177"><ele>32.0</ele><time>2022-10-31T14:44:30.0000000+00:00</time></trkpt><trkpt lat="39.24238564" lon="-0.31591401"><ele>32.0</ele><time>2022-10-31T14:44:31.0000000+00:00</time></trkpt><trkpt lat="39.24238941" lon="-0.31590764"><ele>31.8</ele><time>2022-10-31T14:44:32.0000000+00:00</time></trkpt><trkpt lat="39.24239662" lon="-0.31589884"><ele>32.0</ele><time>2022-10-31T14:44:33.0000000+00:00</time></trkpt><trkpt lat="39.24240341" lon="-0.31589004"><ele>31.8</ele><time>2022-10-31T14:44:34.0000000+00:00</time></trkpt><trkpt lat="39.24240793" lon="-0.31588376"><ele>31.8</ele><time>2022-10-31T14:44:35.0000000+00:00</time></trkpt><trkpt lat="39.24240936" lon="-0.31588032"><ele>31.8</ele><time>2022-10-31T14:44:36.0000000+00:00</time></trkpt><trkpt lat="39.24241195" lon="-0.31587688"><ele>31.8</ele><time>2022-10-31T14:44:37.0000000+00:00</time></trkpt><trkpt lat="39.24241833" lon="-0.31587546"><ele>31.8</ele><time>2022-10-31T14:44:38.0000000+00:00</time></trkpt><trkpt lat="39.24241874" lon="-0.31587135"><ele>31.8</ele><time>2022-10-31T14:44:39.0000000+00:00</time></trkpt><trkpt lat="39.24241874" lon="-0.31587135"><ele>31.8</ele><time>2022-10-31T14:44:40.0000000+00:00</time></trkpt><trkpt lat="39.24241874" lon="-0.31587135"><ele>31.8</ele><time>2022-10-31T14:44:41.0000000+00:00</time></trkpt><trkpt lat="39.24241874" lon="-0.31587135"><ele>31.8</ele><time>2022-10-31T14:44:42.0000000+00:00</time></trkpt><trkpt lat="39.24241874" lon="-0.31587135"><ele>31.8</ele><time>2022-10-31T14:44:43.0000000+00:00</time></trkpt><trkpt lat="39.24241874" lon="-0.31587135"><ele>32.0</ele><time>2022-10-31T14:44:44.0000000+00:00</time></trkpt><trkpt lat="39.24241874" lon="-0.31587135"><ele>32.0</ele><time>2022-10-31T14:44:45.0000000+00:00</time></trkpt><trkpt lat="39.24241874" lon="-0.31587135"><ele>32.0</ele><time>2022-10-31T14:44:46.0000000+00:00</time></trkpt><trkpt lat="39.24241874" lon="-0.31587135"><ele>32.0</ele><time>2022-10-31T14:44:47.0000000+00:00</time></trkpt><trkpt lat="39.24241874" lon="-0.31587135"><ele>32.0</ele><time>2022-10-31T14:44:48.0000000+00:00</time></trkpt><trkpt lat="39.24241874" lon="-0.31587135"><ele>32.0</ele><time>2022-10-31T14:44:49.0000000+00:00</time></trkpt><trkpt lat="39.24241874" lon="-0.31587135"><ele>32.0</ele><time>2022-10-31T14:44:50.0000000+00:00</time></trkpt><trkpt lat="39.24241874" lon="-0.31587135"><ele>32.0</ele><time>2022-10-31T14:44:51.0000000+00:00</time></trkpt><trkpt lat="39.24241874" lon="-0.31587135"><ele>32.0</ele><time>2022-10-31T14:44:52.0000000+00:00</time></trkpt><trkpt lat="39.24241874" lon="-0.31587135"><ele>32.0</ele><time>2022-10-31T14:44:53.0000000+00:00</time></trkpt><trkpt lat="39.24241874" lon="-0.31587135"><ele>32.0</ele><time>2022-10-31T14:44:54.0000000+00:00</time></trkpt><trkpt lat="39.24241874" lon="-0.31587135"><ele>31.8</ele><time>2022-10-31T14:44:55.0000000+00:00</time></trkpt><trkpt lat="39.24241874" lon="-0.31587135"><ele>31.8</ele><time>2022-10-31T14:44:56.0000000+00:00</time></trkpt><trkpt lat="39.24241874" lon="-0.31587135"><ele>31.8</ele><time>2022-10-31T14:44:57.0000000+00:00</time></trkpt><trkpt lat="39.24241874" lon="-0.31587135"><ele>31.8</ele><time>2022-10-31T14:44:58.0000000+00:00</time></trkpt><trkpt lat="39.24241455" lon="-0.31586716"><ele>31.8</ele><time>2022-10-31T14:44:59.0000000+00:00</time></trkpt><trkpt lat="39.24241045" lon="-0.31586825"><ele>31.8</ele><time>2022-10-31T14:45:00.0000000+00:00</time></trkpt><trkpt lat="39.24240969" lon="-0.31587026"><ele>31.8</ele><time>2022-10-31T14:45:01.0000000+00:00</time></trkpt><trkpt lat="39.24240676" lon="-0.31587018"><ele>31.8</ele><time>2022-10-31T14:45:02.0000000+00:00</time></trkpt><trkpt lat="39.24240676" lon="-0.31587018"><ele>31.8</ele><time>2022-10-31T14:45:03.0000000+00:00</time></trkpt><trkpt lat="39.24240676" lon="-0.31587018"><ele>31.8</ele><time>2022-10-31T14:45:04.0000000+00:00</time></trkpt><trkpt lat="39.24240676" lon="-0.31587018"><ele>31.8</ele><time>2022-10-31T14:45:05.0000000+00:00</time></trkpt><trkpt lat="39.24240676" lon="-0.31587018"><ele>31.8</ele><time>2022-10-31T14:45:06.0000000+00:00</time></trkpt><trkpt lat="39.24240676" lon="-0.31587018"><ele>31.8</ele><time>2022-10-31T14:45:07.0000000+00:00</time></trkpt><trkpt lat="39.24240676" lon="-0.31587018"><ele>31.8</ele><time>2022-10-31T14:45:08.0000000+00:00</time></trkpt><trkpt lat="39.24240491" lon="-0.31587026"><ele>31.8</ele><time>2022-10-31T14:45:09.0000000+00:00</time></trkpt><trkpt lat="39.24239435" lon="-0.31586884"><ele>31.8</ele><time>2022-10-31T14:45:10.0000000+00:00</time></trkpt><trkpt lat="39.24237935" lon="-0.31586791"><ele>31.8</ele><time>2022-10-31T14:45:11.0000000+00:00</time></trkpt><trkpt lat="39.24236175" lon="-0.31586666"><ele>31.8</ele><time>2022-10-31T14:45:12.0000000+00:00</time></trkpt><trkpt lat="39.24234641" lon="-0.31586481"><ele>31.8</ele><time>2022-10-31T14:45:13.0000000+00:00</time></trkpt><trkpt lat="39.2423371" lon="-0.31586037"><ele>31.8</ele><time>2022-10-31T14:45:14.0000000+00:00</time></trkpt><trkpt lat="39.24232822" lon="-0.31585576"><ele>31.8</ele><time>2022-10-31T14:45:15.0000000+00:00</time></trkpt><trkpt lat="39.24232411" lon="-0.31585626"><ele>31.8</ele><time>2022-10-31T14:45:16.0000000+00:00</time></trkpt><trkpt lat="39.24231959" lon="-0.31585517"><ele>31.8</ele><time>2022-10-31T14:45:17.0000000+00:00</time></trkpt><trkpt lat="39.24230492" lon="-0.31585082"><ele>31.8</ele><time>2022-10-31T14:45:18.0000000+00:00</time></trkpt><trkpt lat="39.24229167" lon="-0.31584553"><ele>31.8</ele><time>2022-10-31T14:45:19.0000000+00:00</time></trkpt><trkpt lat="39.24228304" lon="-0.31584369"><ele>31.8</ele><time>2022-10-31T14:45:20.0000000+00:00</time></trkpt><trkpt lat="39.24227164" lon="-0.31584704"><ele>31.8</ele><time>2022-10-31T14:45:21.0000000+00:00</time></trkpt><trkpt lat="39.242261" lon="-0.31584981"><ele>31.8</ele><time>2022-10-31T14:45:22.0000000+00:00</time></trkpt><trkpt lat="39.24225127" lon="-0.31585526"><ele>31.8</ele><time>2022-10-31T14:45:23.0000000+00:00</time></trkpt><trkpt lat="39.2422387" lon="-0.31585182"><ele>31.8</ele><time>2022-10-31T14:45:24.0000000+00:00</time></trkpt><trkpt lat="39.24222755" lon="-0.31584688"><ele>31.8</ele><time>2022-10-31T14:45:25.0000000+00:00</time></trkpt><trkpt lat="39.24221775" lon="-0.31585174"><ele>31.8</ele><time>2022-10-31T14:45:26.0000000+00:00</time></trkpt><trkpt lat="39.24220677" lon="-0.31585526"><ele>31.8</ele><time>2022-10-31T14:45:27.0000000+00:00</time></trkpt><trkpt lat="39.24219746" lon="-0.31586238"><ele>31.8</ele><time>2022-10-31T14:45:28.0000000+00:00</time></trkpt><trkpt lat="39.24219185" lon="-0.31587806"><ele>31.8</ele><time>2022-10-31T14:45:29.0000000+00:00</time></trkpt><trkpt lat="39.24218279" lon="-0.3158882"><ele>31.8</ele><time>2022-10-31T14:45:30.0000000+00:00</time></trkpt><trkpt lat="39.24217533" lon="-0.31589943"><ele>31.8</ele><time>2022-10-31T14:45:31.0000000+00:00</time></trkpt><trkpt lat="39.24217131" lon="-0.3159151"><ele>31.8</ele><time>2022-10-31T14:45:32.0000000+00:00</time></trkpt><trkpt lat="39.24217098" lon="-0.31593212"><ele>31.8</ele><time>2022-10-31T14:45:33.0000000+00:00</time></trkpt><trkpt lat="39.24217181" lon="-0.31594779"><ele>31.8</ele><time>2022-10-31T14:45:34.0000000+00:00</time></trkpt><trkpt lat="39.242175" lon="-0.31596565"><ele>31.8</ele><time>2022-10-31T14:45:35.0000000+00:00</time></trkpt><trkpt lat="39.24217433" lon="-0.31598291"><ele>31.8</ele><time>2022-10-31T14:45:36.0000000+00:00</time></trkpt><trkpt lat="39.24217047" lon="-0.31599599"><ele>31.8</ele><time>2022-10-31T14:45:37.0000000+00:00</time></trkpt><trkpt lat="39.24216989" lon="-0.31600521"><ele>31.8</ele><time>2022-10-31T14:45:38.0000000+00:00</time></trkpt><trkpt lat="39.2421667" lon="-0.31601963"><ele>31.8</ele><time>2022-10-31T14:45:39.0000000+00:00</time></trkpt><trkpt lat="39.24216452" lon="-0.3160343"><ele>31.8</ele><time>2022-10-31T14:45:40.0000000+00:00</time></trkpt><trkpt lat="39.24216125" lon="-0.31604989"><ele>31.8</ele><time>2022-10-31T14:45:41.0000000+00:00</time></trkpt><trkpt lat="39.24216184" lon="-0.31606548"><ele>31.8</ele><time>2022-10-31T14:45:42.0000000+00:00</time></trkpt><trkpt lat="39.24216192" lon="-0.31608014"><ele>31.8</ele><time>2022-10-31T14:45:43.0000000+00:00</time></trkpt><trkpt lat="39.2421641" lon="-0.31609339"><ele>31.8</ele><time>2022-10-31T14:45:44.0000000+00:00</time></trkpt><trkpt lat="39.24216913" lon="-0.31610697"><ele>31.8</ele><time>2022-10-31T14:45:45.0000000+00:00</time></trkpt><trkpt lat="39.2421745" lon="-0.31612633"><ele>31.8</ele><time>2022-10-31T14:45:46.0000000+00:00</time></trkpt><trkpt lat="39.2421776" lon="-0.31613823"><ele>31.8</ele><time>2022-10-31T14:45:47.0000000+00:00</time></trkpt><trkpt lat="39.24218112" lon="-0.31615407"><ele>31.8</ele><time>2022-10-31T14:45:48.0000000+00:00</time></trkpt><trkpt lat="39.24218464" lon="-0.31617033"><ele>31.8</ele><time>2022-10-31T14:45:49.0000000+00:00</time></trkpt><trkpt lat="39.24218413" lon="-0.31618064"><ele>31.8</ele><time>2022-10-31T14:45:50.0000000+00:00</time></trkpt><trkpt lat="39.24218967" lon="-0.3161902"><ele>31.8</ele><time>2022-10-31T14:45:51.0000000+00:00</time></trkpt><trkpt lat="39.24219813" lon="-0.31620797"><ele>31.8</ele><time>2022-10-31T14:45:52.0000000+00:00</time></trkpt><trkpt lat="39.24220584" lon="-0.31622515"><ele>31.8</ele><time>2022-10-31T14:45:53.0000000+00:00</time></trkpt><trkpt lat="39.24221356" lon="-0.31623311"><ele>31.8</ele><time>2022-10-31T14:45:54.0000000+00:00</time></trkpt><trkpt lat="39.24222252" lon="-0.31624761"><ele>31.8</ele><time>2022-10-31T14:45:55.0000000+00:00</time></trkpt><trkpt lat="39.24223024" lon="-0.31626094"><ele>31.6</ele><time>2022-10-31T14:45:56.0000000+00:00</time></trkpt><trkpt lat="39.24223124" lon="-0.31627033"><ele>31.6</ele><time>2022-10-31T14:45:57.0000000+00:00</time></trkpt><trkpt lat="39.24223359" lon="-0.31628441"><ele>31.6</ele><time>2022-10-31T14:45:58.0000000+00:00</time></trkpt><trkpt lat="39.24223702" lon="-0.31629874"><ele>31.6</ele><time>2022-10-31T14:45:59.0000000+00:00</time></trkpt><trkpt lat="39.24224834" lon="-0.31630738"><ele>31.6</ele><time>2022-10-31T14:46:00.0000000+00:00</time></trkpt><trkpt lat="39.24225764" lon="-0.31631081"><ele>31.6</ele><time>2022-10-31T14:46:01.0000000+00:00</time></trkpt><trkpt lat="39.24226083" lon="-0.31631257"><ele>31.6</ele><time>2022-10-31T14:46:02.0000000+00:00</time></trkpt><trkpt lat="39.24226083" lon="-0.31631257"><ele>31.6</ele><time>2022-10-31T14:46:03.0000000+00:00</time></trkpt><trkpt lat="39.24226083" lon="-0.31631257"><ele>31.6</ele><time>2022-10-31T14:46:04.0000000+00:00</time></trkpt><trkpt lat="39.24226083" lon="-0.31631257"><ele>31.6</ele><time>2022-10-31T14:46:05.0000000+00:00</time></trkpt><trkpt lat="39.24226083" lon="-0.31631257"><ele>31.6</ele><time>2022-10-31T14:46:06.0000000+00:00</time></trkpt><trkpt lat="39.24226083" lon="-0.31631257"><ele>31.6</ele><time>2022-10-31T14:46:07.0000000+00:00</time></trkpt><trkpt lat="39.24226083" lon="-0.31631257"><ele>31.6</ele><time>2022-10-31T14:46:08.0000000+00:00</time></trkpt><trkpt lat="39.24226083" lon="-0.31631257"><ele>31.8</ele><time>2022-10-31T14:46:09.0000000+00:00</time></trkpt><trkpt lat="39.24225915" lon="-0.31631241"><ele>31.8</ele><time>2022-10-31T14:46:10.0000000+00:00</time></trkpt><trkpt lat="39.24225664" lon="-0.31631216"><ele>31.8</ele><time>2022-10-31T14:46:11.0000000+00:00</time></trkpt><trkpt lat="39.24225664" lon="-0.31631216"><ele>31.8</ele><time>2022-10-31T14:46:12.0000000+00:00</time></trkpt><trkpt lat="39.24225664" lon="-0.31631216"><ele>31.8</ele><time>2022-10-31T14:46:13.0000000+00:00</time></trkpt><trkpt lat="39.24225664" lon="-0.31631216"><ele>32.0</ele><time>2022-10-31T14:46:14.0000000+00:00</time></trkpt><trkpt lat="39.24225664" lon="-0.31631216"><ele>32.0</ele><time>2022-10-31T14:46:15.0000000+00:00</time></trkpt><trkpt lat="39.24225664" lon="-0.31631216"><ele>32.2</ele><time>2022-10-31T14:46:16.0000000+00:00</time></trkpt><trkpt lat="39.24225664" lon="-0.31631216"><ele>32.2</ele><time>2022-10-31T14:46:17.0000000+00:00</time></trkpt><trkpt lat="39.24225664" lon="-0.31631216"><ele>32.4</ele><time>2022-10-31T14:46:18.0000000+00:00</time></trkpt><trkpt lat="39.24225664" lon="-0.31631216"><ele>32.6</ele><time>2022-10-31T14:46:19.0000000+00:00</time></trkpt><trkpt lat="39.24225664" lon="-0.31631216"><ele>32.6</ele><time>2022-10-31T14:46:20.0000000+00:00</time></trkpt><trkpt lat="39.24225664" lon="-0.31631216"><ele>32.6</ele><time>2022-10-31T14:46:21.0000000+00:00</time></trkpt><trkpt lat="39.24225664" lon="-0.31631216"><ele>32.8</ele><time>2022-10-31T14:46:22.0000000+00:00</time></trkpt><trkpt lat="39.24225664" lon="-0.31631216"><ele>32.8</ele><time>2022-10-31T14:46:23.0000000+00:00</time></trkpt><trkpt lat="39.24225664" lon="-0.31631216"><ele>32.8</ele><time>2022-10-31T14:46:24.0000000+00:00</time></trkpt><trkpt lat="39.24225664" lon="-0.31631216"><ele>32.8</ele><time>2022-10-31T14:46:25.0000000+00:00</time></trkpt><trkpt lat="39.24225664" lon="-0.31631216"><ele>32.8</ele><time>2022-10-31T14:46:26.0000000+00:00</time></trkpt><trkpt lat="39.24225664" lon="-0.31631216"><ele>32.8</ele><time>2022-10-31T14:46:27.0000000+00:00</time></trkpt><trkpt lat="39.24225664" lon="-0.31631216"><ele>32.8</ele><time>2022-10-31T14:46:28.0000000+00:00</time></trkpt><trkpt lat="39.24225664" lon="-0.31631216"><ele>32.6</ele><time>2022-10-31T14:46:29.0000000+00:00</time></trkpt><trkpt lat="39.24225664" lon="-0.31631216"><ele>32.6</ele><time>2022-10-31T14:46:30.0000000+00:00</time></trkpt><trkpt lat="39.24225664" lon="-0.31631216"><ele>32.6</ele><time>2022-10-31T14:46:31.0000000+00:00</time></trkpt><trkpt lat="39.24225664" lon="-0.31631216"><ele>32.6</ele><time>2022-10-31T14:46:32.0000000+00:00</time></trkpt><trkpt lat="39.24225664" lon="-0.31631216"><ele>32.6</ele><time>2022-10-31T14:46:33.0000000+00:00</time></trkpt><trkpt lat="39.24225664" lon="-0.31631216"><ele>32.6</ele><time>2022-10-31T14:46:34.0000000+00:00</time></trkpt><trkpt lat="39.24225555" lon="-0.31631433"><ele>32.6</ele><time>2022-10-31T14:46:35.0000000+00:00</time></trkpt><trkpt lat="39.24225295" lon="-0.31631584"><ele>32.6</ele><time>2022-10-31T14:46:36.0000000+00:00</time></trkpt><trkpt lat="39.24225295" lon="-0.31631584"><ele>32.6</ele><time>2022-10-31T14:46:37.0000000+00:00</time></trkpt><trkpt lat="39.24225295" lon="-0.31631584"><ele>32.4</ele><time>2022-10-31T14:46:38.0000000+00:00</time></trkpt><trkpt lat="39.24225295" lon="-0.31631584"><ele>32.2</ele><time>2022-10-31T14:46:39.0000000+00:00</time></trkpt><trkpt lat="39.24225295" lon="-0.31631584"><ele>32.2</ele><time>2022-10-31T14:46:40.0000000+00:00</time></trkpt><trkpt lat="39.24225421" lon="-0.31631316"><ele>32.0</ele><time>2022-10-31T14:46:41.0000000+00:00</time></trkpt><trkpt lat="39.24225756" lon="-0.31630981"><ele>31.8</ele><time>2022-10-31T14:46:42.0000000+00:00</time></trkpt><trkpt lat="39.24225505" lon="-0.31630587"><ele>31.8</ele><time>2022-10-31T14:46:43.0000000+00:00</time></trkpt><trkpt lat="39.24224641" lon="-0.31629791"><ele>31.6</ele><time>2022-10-31T14:46:44.0000000+00:00</time></trkpt><trkpt lat="39.24223895" lon="-0.31628693"><ele>31.6</ele><time>2022-10-31T14:46:45.0000000+00:00</time></trkpt><trkpt lat="39.24223099" lon="-0.31627276"><ele>31.6</ele><time>2022-10-31T14:46:46.0000000+00:00</time></trkpt><trkpt lat="39.24222261" lon="-0.31626438"><ele>31.6</ele><time>2022-10-31T14:46:47.0000000+00:00</time></trkpt><trkpt lat="39.24221247" lon="-0.31625801"><ele>31.6</ele><time>2022-10-31T14:46:48.0000000+00:00</time></trkpt><trkpt lat="39.24220266" lon="-0.31624929"><ele>31.6</ele><time>2022-10-31T14:46:49.0000000+00:00</time></trkpt><trkpt lat="39.24219637" lon="-0.31623613"><ele>31.6</ele><time>2022-10-31T14:46:50.0000000+00:00</time></trkpt><trkpt lat="39.24219302" lon="-0.31621828"><ele>31.6</ele><time>2022-10-31T14:46:51.0000000+00:00</time></trkpt><trkpt lat="39.24219034" lon="-0.31620177"><ele>31.6</ele><time>2022-10-31T14:46:52.0000000+00:00</time></trkpt><trkpt lat="39.24218598" lon="-0.31618961"><ele>31.6</ele><time>2022-10-31T14:46:53.0000000+00:00</time></trkpt><trkpt lat="39.24218296" lon="-0.31618064"><ele>31.6</ele><time>2022-10-31T14:46:54.0000000+00:00</time></trkpt><trkpt lat="39.24218095" lon="-0.31617126"><ele>31.8</ele><time>2022-10-31T14:46:55.0000000+00:00</time></trkpt><trkpt lat="39.24217433" lon="-0.31615851"><ele>31.8</ele><time>2022-10-31T14:46:56.0000000+00:00</time></trkpt><trkpt lat="39.2421693" lon="-0.31614251"><ele>31.6</ele><time>2022-10-31T14:46:57.0000000+00:00</time></trkpt><trkpt lat="39.2421662" lon="-0.31612331"><ele>31.6</ele><time>2022-10-31T14:46:58.0000000+00:00</time></trkpt><trkpt lat="39.24216804" lon="-0.31610395"><ele>31.6</ele><time>2022-10-31T14:46:59.0000000+00:00</time></trkpt><trkpt lat="39.24217198" lon="-0.31609112"><ele>31.6</ele><time>2022-10-31T14:47:00.0000000+00:00</time></trkpt><trkpt lat="39.24217701" lon="-0.31607654"><ele>31.6</ele><time>2022-10-31T14:47:01.0000000+00:00</time></trkpt><trkpt lat="39.24218112" lon="-0.31606196"><ele>31.8</ele><time>2022-10-31T14:47:02.0000000+00:00</time></trkpt><trkpt lat="39.24218573" lon="-0.31604452"><ele>31.8</ele><time>2022-10-31T14:47:03.0000000+00:00</time></trkpt><trkpt lat="39.2421926" lon="-0.31603371"><ele>31.8</ele><time>2022-10-31T14:47:04.0000000+00:00</time></trkpt><trkpt lat="39.24219528" lon="-0.31602097"><ele>31.8</ele><time>2022-10-31T14:47:05.0000000+00:00</time></trkpt><trkpt lat="39.24219973" lon="-0.31601166"><ele>31.6</ele><time>2022-10-31T14:47:06.0000000+00:00</time></trkpt><trkpt lat="39.2422014" lon="-0.31600772"><ele>31.6</ele><time>2022-10-31T14:47:07.0000000+00:00</time></trkpt><trkpt lat="39.24220056" lon="-0.31600689"><ele>31.6</ele><time>2022-10-31T14:47:08.0000000+00:00</time></trkpt><trkpt lat="39.24219847" lon="-0.31599666"><ele>31.6</ele><time>2022-10-31T14:47:09.0000000+00:00</time></trkpt><trkpt lat="39.24219771" lon="-0.31599172"><ele>31.6</ele><time>2022-10-31T14:47:10.0000000+00:00</time></trkpt><trkpt lat="39.24219537" lon="-0.31598945"><ele>31.8</ele><time>2022-10-31T14:47:11.0000000+00:00</time></trkpt><trkpt lat="39.24219327" lon="-0.31598702"><ele>32.0</ele><time>2022-10-31T14:47:12.0000000+00:00</time></trkpt><trkpt lat="39.24219327" lon="-0.31598702"><ele>32.0</ele><time>2022-10-31T14:47:13.0000000+00:00</time></trkpt><trkpt lat="39.24219327" lon="-0.31598702"><ele>32.0</ele><time>2022-10-31T14:47:14.0000000+00:00</time></trkpt><trkpt lat="39.24219453" lon="-0.31598409"><ele>31.2</ele><time>2022-10-31T14:47:15.0000000+00:00</time></trkpt><trkpt lat="39.2421952" lon="-0.31597428"><ele>31.2</ele><time>2022-10-31T14:47:16.0000000+00:00</time></trkpt><trkpt lat="39.24219428" lon="-0.3159612"><ele>31.2</ele><time>2022-10-31T14:47:17.0000000+00:00</time></trkpt><trkpt lat="39.24220056" lon="-0.3159519"><ele>31.2</ele><time>2022-10-31T14:47:18.0000000+00:00</time></trkpt><trkpt lat="39.24220283" lon="-0.31593857"><ele>31.2</ele><time>2022-10-31T14:47:19.0000000+00:00</time></trkpt><trkpt lat="39.24220693" lon="-0.31592533"><ele>31.2</ele><time>2022-10-31T14:47:20.0000000+00:00</time></trkpt><trkpt lat="39.24220366" lon="-0.31591477"><ele>31.2</ele><time>2022-10-31T14:47:21.0000000+00:00</time></trkpt><trkpt lat="39.2421983" lon="-0.31590991"><ele>31.2</ele><time>2022-10-31T14:47:22.0000000+00:00</time></trkpt><trkpt lat="39.24219235" lon="-0.31590312"><ele>31.2</ele><time>2022-10-31T14:47:23.0000000+00:00</time></trkpt><trkpt lat="39.24219076" lon="-0.31590186"><ele>31.2</ele><time>2022-10-31T14:47:24.0000000+00:00</time></trkpt><trkpt lat="39.24218925" lon="-0.31590153"><ele>31.2</ele><time>2022-10-31T14:47:25.0000000+00:00</time></trkpt><trkpt lat="39.24218606" lon="-0.31589809"><ele>31.2</ele><time>2022-10-31T14:47:26.0000000+00:00</time></trkpt><trkpt lat="39.24218539" lon="-0.31589708"><ele>31.0</ele><time>2022-10-31T14:47:27.0000000+00:00</time></trkpt><trkpt lat="39.24217961" lon="-0.31588946"><ele>30.8</ele><time>2022-10-31T14:47:28.0000000+00:00</time></trkpt><trkpt lat="39.24217257" lon="-0.31587957"><ele>30.6</ele><time>2022-10-31T14:47:29.0000000+00:00</time></trkpt><trkpt lat="39.24217206" lon="-0.3158763"><ele>30.6</ele><time>2022-10-31T14:47:30.0000000+00:00</time></trkpt><trkpt lat="39.24217215" lon="-0.31586951"><ele>30.4</ele><time>2022-10-31T14:47:31.0000000+00:00</time></trkpt><trkpt lat="39.24217064" lon="-0.31585769"><ele>30.2</ele><time>2022-10-31T14:47:32.0000000+00:00</time></trkpt><trkpt lat="39.2421662" lon="-0.31583799"><ele>30.2</ele><time>2022-10-31T14:47:33.0000000+00:00</time></trkpt><trkpt lat="39.24216561" lon="-0.31582374"><ele>30.0</ele><time>2022-10-31T14:47:34.0000000+00:00</time></trkpt><trkpt lat="39.24216293" lon="-0.31581628"><ele>30.0</ele><time>2022-10-31T14:47:35.0000000+00:00</time></trkpt><trkpt lat="39.24216041" lon="-0.31581234"><ele>30.0</ele><time>2022-10-31T14:47:36.0000000+00:00</time></trkpt><trkpt lat="39.24215371" lon="-0.31581402"><ele>30.0</ele><time>2022-10-31T14:47:37.0000000+00:00</time></trkpt><trkpt lat="39.24214759" lon="-0.31582081"><ele>30.0</ele><time>2022-10-31T14:47:38.0000000+00:00</time></trkpt><trkpt lat="39.24214474" lon="-0.31583179"><ele>30.0</ele><time>2022-10-31T14:47:39.0000000+00:00</time></trkpt><trkpt lat="39.24214382" lon="-0.31583514"><ele>30.0</ele><time>2022-10-31T14:47:40.0000000+00:00</time></trkpt><trkpt lat="39.24214382" lon="-0.31583514"><ele>30.0</ele><time>2022-10-31T14:47:41.0000000+00:00</time></trkpt><trkpt lat="39.24214382" lon="-0.31583514"><ele>30.0</ele><time>2022-10-31T14:47:42.0000000+00:00</time></trkpt><trkpt lat="39.24214382" lon="-0.31583514"><ele>30.0</ele><time>2022-10-31T14:47:43.0000000+00:00</time></trkpt><trkpt lat="39.24214575" lon="-0.31584067"><ele>30.0</ele><time>2022-10-31T14:47:44.0000000+00:00</time></trkpt><trkpt lat="39.24214474" lon="-0.31583724"><ele>30.0</ele><time>2022-10-31T14:47:45.0000000+00:00</time></trkpt><trkpt lat="39.24214474" lon="-0.31583724"><ele>30.0</ele><time>2022-10-31T14:47:46.0000000+00:00</time></trkpt><trkpt lat="39.24214474" lon="-0.31583724"><ele>30.0</ele><time>2022-10-31T14:47:47.0000000+00:00</time></trkpt><trkpt lat="39.24214474" lon="-0.31583724"><ele>30.0</ele><time>2022-10-31T14:47:48.0000000+00:00</time></trkpt><trkpt lat="39.24214474" lon="-0.31583724"><ele>30.0</ele><time>2022-10-31T14:47:49.0000000+00:00</time></trkpt><trkpt lat="39.24214474" lon="-0.31583724"><ele>30.0</ele><time>2022-10-31T14:47:50.0000000+00:00</time></trkpt><trkpt lat="39.24214474" lon="-0.31583724"><ele>30.0</ele><time>2022-10-31T14:47:51.0000000+00:00</time></trkpt><trkpt lat="39.24214474" lon="-0.31583724"><ele>30.0</ele><time>2022-10-31T14:47:52.0000000+00:00</time></trkpt><trkpt lat="39.24214474" lon="-0.31583724"><ele>30.0</ele><time>2022-10-31T14:47:53.0000000+00:00</time></trkpt><trkpt lat="39.24214474" lon="-0.31583724"><ele>30.0</ele><time>2022-10-31T14:47:54.0000000+00:00</time></trkpt><trkpt lat="39.24214474" lon="-0.31583724"><ele>30.0</ele><time>2022-10-31T14:47:55.0000000+00:00</time></trkpt><trkpt lat="39.24214474" lon="-0.31583724"><ele>30.0</ele><time>2022-10-31T14:47:56.0000000+00:00</time></trkpt><trkpt lat="39.24214474" lon="-0.31583724"><ele>30.0</ele><time>2022-10-31T14:47:57.0000000+00:00</time></trkpt><trkpt lat="39.2421377" lon="-0.31583883"><ele>30.0</ele><time>2022-10-31T14:47:58.0000000+00:00</time></trkpt><trkpt lat="39.24213292" lon="-0.31584562"><ele>30.0</ele><time>2022-10-31T14:47:59.0000000+00:00</time></trkpt><trkpt lat="39.24213175" lon="-0.31585123"><ele>30.0</ele><time>2022-10-31T14:48:00.0000000+00:00</time></trkpt><trkpt lat="39.24213175" lon="-0.31585123"><ele>30.0</ele><time>2022-10-31T14:48:01.0000000+00:00</time></trkpt><trkpt lat="39.24213007" lon="-0.31585367"><ele>30.0</ele><time>2022-10-31T14:48:02.0000000+00:00</time></trkpt><trkpt lat="39.24212722" lon="-0.3158576"><ele>30.0</ele><time>2022-10-31T14:48:03.0000000+00:00</time></trkpt><trkpt lat="39.24212722" lon="-0.3158576"><ele>30.2</ele><time>2022-10-31T14:48:04.0000000+00:00</time></trkpt><trkpt lat="39.24212722" lon="-0.3158576"><ele>30.4</ele><time>2022-10-31T14:48:05.0000000+00:00</time></trkpt><trkpt lat="39.24212722" lon="-0.3158576"><ele>30.4</ele><time>2022-10-31T14:48:06.0000000+00:00</time></trkpt><trkpt lat="39.24212722" lon="-0.3158576"><ele>30.6</ele><time>2022-10-31T14:48:07.0000000+00:00</time></trkpt><trkpt lat="39.24212722" lon="-0.3158576"><ele>30.6</ele><time>2022-10-31T14:48:08.0000000+00:00</time></trkpt><trkpt lat="39.24212722" lon="-0.3158576"><ele>30.6</ele><time>2022-10-31T14:48:09.0000000+00:00</time></trkpt><trkpt lat="39.24212722" lon="-0.3158576"><ele>30.6</ele><time>2022-10-31T14:48:10.0000000+00:00</time></trkpt><trkpt lat="39.24212722" lon="-0.3158576"><ele>30.6</ele><time>2022-10-31T14:48:11.0000000+00:00</time></trkpt><trkpt lat="39.24212722" lon="-0.3158576"><ele>30.6</ele><time>2022-10-31T14:48:12.0000000+00:00</time></trkpt><trkpt lat="39.24212722" lon="-0.3158576"><ele>30.6</ele><time>2022-10-31T14:48:13.0000000+00:00</time></trkpt><trkpt lat="39.24212722" lon="-0.3158576"><ele>30.6</ele><time>2022-10-31T14:48:14.0000000+00:00</time></trkpt><trkpt lat="39.24212722" lon="-0.3158576"><ele>30.6</ele><time>2022-10-31T14:48:15.0000000+00:00</time></trkpt><trkpt lat="39.24212722" lon="-0.3158576"><ele>30.6</ele><time>2022-10-31T14:48:16.0000000+00:00</time></trkpt><trkpt lat="39.24212722" lon="-0.3158576"><ele>30.6</ele><time>2022-10-31T14:48:17.0000000+00:00</time></trkpt><trkpt lat="39.24212722" lon="-0.3158576"><ele>30.4</ele><time>2022-10-31T14:48:18.0000000+00:00</time></trkpt><trkpt lat="39.24212722" lon="-0.3158576"><ele>30.2</ele><time>2022-10-31T14:48:19.0000000+00:00</time></trkpt><trkpt lat="39.24212722" lon="-0.3158576"><ele>30.2</ele><time>2022-10-31T14:48:20.0000000+00:00</time></trkpt><trkpt lat="39.24212722" lon="-0.3158576"><ele>30.0</ele><time>2022-10-31T14:48:21.0000000+00:00</time></trkpt><trkpt lat="39.24212722" lon="-0.3158576"><ele>30.0</ele><time>2022-10-31T14:48:22.0000000+00:00</time></trkpt><trkpt lat="39.24212722" lon="-0.3158576"><ele>30.0</ele><time>2022-10-31T14:48:23.0000000+00:00</time></trkpt><trkpt lat="39.24212722" lon="-0.3158576"><ele>29.8</ele><time>2022-10-31T14:48:24.0000000+00:00</time></trkpt><trkpt lat="39.24212722" lon="-0.3158576"><ele>29.6</ele><time>2022-10-31T14:48:25.0000000+00:00</time></trkpt><trkpt lat="39.24212722" lon="-0.3158576"><ele>29.6</ele><time>2022-10-31T14:48:26.0000000+00:00</time></trkpt><trkpt lat="39.24212722" lon="-0.3158576"><ele>29.6</ele><time>2022-10-31T14:48:27.0000000+00:00</time></trkpt><trkpt lat="39.24212722" lon="-0.3158576"><ele>29.6</ele><time>2022-10-31T14:48:28.0000000+00:00</time></trkpt><trkpt lat="39.24212722" lon="-0.3158576"><ele>29.6</ele><time>2022-10-31T14:48:29.0000000+00:00</time></trkpt><trkpt lat="39.24212722" lon="-0.3158576"><ele>29.6</ele><time>2022-10-31T14:48:30.0000000+00:00</time></trkpt><trkpt lat="39.24212722" lon="-0.3158576"><ele>29.6</ele><time>2022-10-31T14:48:31.0000000+00:00</time></trkpt><trkpt lat="39.24212722" lon="-0.3158576"><ele>29.6</ele><time>2022-10-31T14:48:32.0000000+00:00</time></trkpt><trkpt lat="39.24212722" lon="-0.3158576"><ele>29.6</ele><time>2022-10-31T14:48:33.0000000+00:00</time></trkpt><trkpt lat="39.24212722" lon="-0.3158576"><ele>29.4</ele><time>2022-10-31T14:48:34.0000000+00:00</time></trkpt><trkpt lat="39.24212722" lon="-0.3158576"><ele>29.2</ele><time>2022-10-31T14:48:35.0000000+00:00</time></trkpt><trkpt lat="39.24212722" lon="-0.3158576"><ele>29.2</ele><time>2022-10-31T14:48:36.0000000+00:00</time></trkpt><trkpt lat="39.24212722" lon="-0.3158576"><ele>29.0</ele><time>2022-10-31T14:48:37.0000000+00:00</time></trkpt><trkpt lat="39.24212722" lon="-0.3158576"><ele>29.0</ele><time>2022-10-31T14:48:38.0000000+00:00</time></trkpt><trkpt lat="39.24212722" lon="-0.3158576"><ele>29.0</ele><time>2022-10-31T14:48:39.0000000+00:00</time></trkpt><trkpt lat="39.24212722" lon="-0.3158576"><ele>29.0</ele><time>2022-10-31T14:48:40.0000000+00:00</time></trkpt><trkpt lat="39.24212722" lon="-0.3158576"><ele>29.0</ele><time>2022-10-31T14:48:41.0000000+00:00</time></trkpt><trkpt lat="39.24212722" lon="-0.3158576"><ele>29.0</ele><time>2022-10-31T14:48:42.0000000+00:00</time></trkpt><trkpt lat="39.24212722" lon="-0.3158576"><ele>29.0</ele><time>2022-10-31T14:48:43.0000000+00:00</time></trkpt><trkpt lat="39.24212722" lon="-0.3158576"><ele>29.0</ele><time>2022-10-31T14:48:44.0000000+00:00</time></trkpt><trkpt lat="39.24212722" lon="-0.3158576"><ele>29.0</ele><time>2022-10-31T14:48:45.0000000+00:00</time></trkpt><trkpt lat="39.24212722" lon="-0.3158576"><ele>29.0</ele><time>2022-10-31T14:48:46.0000000+00:00</time></trkpt><trkpt lat="39.24212722" lon="-0.3158576"><ele>29.0</ele><time>2022-10-31T14:48:47.0000000+00:00</time></trkpt><trkpt lat="39.24212722" lon="-0.3158576"><ele>29.0</ele><time>2022-10-31T14:48:48.0000000+00:00</time></trkpt><trkpt lat="39.24212722" lon="-0.3158576"><ele>29.0</ele><time>2022-10-31T14:48:49.0000000+00:00</time></trkpt><trkpt lat="39.24212722" lon="-0.3158576"><ele>29.0</ele><time>2022-10-31T14:48:50.0000000+00:00</time></trkpt><trkpt lat="39.24212722" lon="-0.3158576"><ele>29.0</ele><time>2022-10-31T14:48:51.0000000+00:00</time></trkpt><trkpt lat="39.24212722" lon="-0.3158576"><ele>29.0</ele><time>2022-10-31T14:48:52.0000000+00:00</time></trkpt><trkpt lat="39.24212722" lon="-0.3158576"><ele>29.0</ele><time>2022-10-31T14:48:53.0000000+00:00</time></trkpt><trkpt lat="39.24212722" lon="-0.3158576"><ele>29.0</ele><time>2022-10-31T14:48:54.0000000+00:00</time></trkpt><trkpt lat="39.24212722" lon="-0.3158576"><ele>29.0</ele><time>2022-10-31T14:48:55.0000000+00:00</time></trkpt><trkpt lat="39.24212722" lon="-0.3158576"><ele>29.0</ele><time>2022-10-31T14:48:56.0000000+00:00</time></trkpt><trkpt lat="39.24212722" lon="-0.3158576"><ele>29.0</ele><time>2022-10-31T14:48:57.0000000+00:00</time></trkpt><trkpt lat="39.24212722" lon="-0.3158576"><ele>29.0</ele><time>2022-10-31T14:48:58.0000000+00:00</time></trkpt><trkpt lat="39.24212722" lon="-0.3158576"><ele>29.0</ele><time>2022-10-31T14:48:59.0000000+00:00</time></trkpt><trkpt lat="39.24212722" lon="-0.3158576"><ele>29.0</ele><time>2022-10-31T14:49:00.0000000+00:00</time></trkpt><trkpt lat="39.24212722" lon="-0.3158576"><ele>29.0</ele><time>2022-10-31T14:49:01.0000000+00:00</time></trkpt><trkpt lat="39.24212722" lon="-0.3158576"><ele>29.0</ele><time>2022-10-31T14:49:02.0000000+00:00</time></trkpt><trkpt lat="39.24212722" lon="-0.3158576"><ele>29.0</ele><time>2022-10-31T14:49:03.0000000+00:00</time></trkpt><trkpt lat="39.24212722" lon="-0.3158576"><ele>29.0</ele><time>2022-10-31T14:49:04.0000000+00:00</time></trkpt><trkpt lat="39.24212722" lon="-0.3158576"><ele>29.0</ele><time>2022-10-31T14:49:05.0000000+00:00</time></trkpt><trkpt lat="39.24212722" lon="-0.3158576"><ele>29.0</ele><time>2022-10-31T14:49:06.0000000+00:00</time></trkpt><trkpt lat="39.24212722" lon="-0.3158576"><ele>29.0</ele><time>2022-10-31T14:49:07.0000000+00:00</time></trkpt><trkpt lat="39.24212722" lon="-0.3158576"><ele>29.0</ele><time>2022-10-31T14:49:08.0000000+00:00</time></trkpt><trkpt lat="39.24212722" lon="-0.3158576"><ele>29.0</ele><time>2022-10-31T14:49:09.0000000+00:00</time></trkpt><trkpt lat="39.24212722" lon="-0.3158576"><ele>29.0</ele><time>2022-10-31T14:49:10.0000000+00:00</time></trkpt><trkpt lat="39.24212722" lon="-0.3158576"><ele>29.0</ele><time>2022-10-31T14:49:11.0000000+00:00</time></trkpt><trkpt lat="39.24212722" lon="-0.3158576"><ele>29.0</ele><time>2022-10-31T14:49:12.0000000+00:00</time></trkpt><trkpt lat="39.24212722" lon="-0.3158576"><ele>29.0</ele><time>2022-10-31T14:49:13.0000000+00:00</time></trkpt><trkpt lat="39.24212722" lon="-0.3158576"><ele>29.0</ele><time>2022-10-31T14:49:14.0000000+00:00</time></trkpt><trkpt lat="39.24212722" lon="-0.3158576"><ele>29.0</ele><time>2022-10-31T14:49:15.0000000+00:00</time></trkpt><trkpt lat="39.24212722" lon="-0.3158576"><ele>29.0</ele><time>2022-10-31T14:49:16.0000000+00:00</time></trkpt><trkpt lat="39.24212722" lon="-0.3158576"><ele>29.0</ele><time>2022-10-31T14:49:17.0000000+00:00</time></trkpt><trkpt lat="39.24212722" lon="-0.3158576"><ele>29.0</ele><time>2022-10-31T14:49:18.0000000+00:00</time></trkpt><trkpt lat="39.24212722" lon="-0.3158576"><ele>29.0</ele><time>2022-10-31T14:49:19.0000000+00:00</time></trkpt><trkpt lat="39.24212722" lon="-0.3158576"><ele>29.0</ele><time>2022-10-31T14:49:20.0000000+00:00</time></trkpt><trkpt lat="39.24212722" lon="-0.3158576"><ele>29.0</ele><time>2022-10-31T14:49:21.0000000+00:00</time></trkpt><trkpt lat="39.24212722" lon="-0.3158576"><ele>29.0</ele><time>2022-10-31T14:49:22.0000000+00:00</time></trkpt><trkpt lat="39.24212722" lon="-0.3158576"><ele>29.0</ele><time>2022-10-31T14:49:23.0000000+00:00</time></trkpt><trkpt lat="39.24212722" lon="-0.3158576"><ele>29.0</ele><time>2022-10-31T14:49:24.0000000+00:00</time></trkpt><trkpt lat="39.24212722" lon="-0.3158576"><ele>29.0</ele><time>2022-10-31T14:49:25.0000000+00:00</time></trkpt><trkpt lat="39.24212722" lon="-0.3158576"><ele>29.0</ele><time>2022-10-31T14:49:26.0000000+00:00</time></trkpt><trkpt lat="39.24212722" lon="-0.3158576"><ele>29.0</ele><time>2022-10-31T14:49:27.0000000+00:00</time></trkpt><trkpt lat="39.24212722" lon="-0.3158576"><ele>29.0</ele><time>2022-10-31T14:49:28.0000000+00:00</time></trkpt><trkpt lat="39.24212722" lon="-0.3158576"><ele>29.0</ele><time>2022-10-31T14:49:29.0000000+00:00</time></trkpt><trkpt lat="39.24212722" lon="-0.3158576"><ele>29.0</ele><time>2022-10-31T14:49:30.0000000+00:00</time></trkpt><trkpt lat="39.24212722" lon="-0.3158576"><ele>29.0</ele><time>2022-10-31T14:49:31.0000000+00:00</time></trkpt><trkpt lat="39.24212722" lon="-0.3158576"><ele>29.0</ele><time>2022-10-31T14:49:32.0000000+00:00</time></trkpt><trkpt lat="39.24212722" lon="-0.3158576"><ele>29.0</ele><time>2022-10-31T14:49:33.0000000+00:00</time></trkpt><trkpt lat="39.24212722" lon="-0.3158576"><ele>29.0</ele><time>2022-10-31T14:49:34.0000000+00:00</time></trkpt><trkpt lat="39.24212722" lon="-0.3158576"><ele>29.0</ele><time>2022-10-31T14:49:35.0000000+00:00</time></trkpt><trkpt lat="39.24212722" lon="-0.3158576"><ele>29.0</ele><time>2022-10-31T14:49:36.0000000+00:00</time></trkpt><trkpt lat="39.24212722" lon="-0.3158576"><ele>29.0</ele><time>2022-10-31T14:49:37.0000000+00:00</time></trkpt><trkpt lat="39.24212722" lon="-0.3158576"><ele>29.0</ele><time>2022-10-31T14:49:38.0000000+00:00</time></trkpt><trkpt lat="39.24212722" lon="-0.3158576"><ele>29.0</ele><time>2022-10-31T14:49:39.0000000+00:00</time></trkpt><trkpt lat="39.24212722" lon="-0.3158576"><ele>29.0</ele><time>2022-10-31T14:49:40.0000000+00:00</time></trkpt><trkpt lat="39.24212722" lon="-0.3158576"><ele>29.0</ele><time>2022-10-31T14:49:41.0000000+00:00</time></trkpt><trkpt lat="39.24212722" lon="-0.3158576"><ele>29.0</ele><time>2022-10-31T14:49:42.0000000+00:00</time></trkpt><trkpt lat="39.24212722" lon="-0.3158576"><ele>29.0</ele><time>2022-10-31T14:49:43.0000000+00:00</time></trkpt><trkpt lat="39.24212722" lon="-0.3158576"><ele>29.0</ele><time>2022-10-31T14:49:44.0000000+00:00</time></trkpt><trkpt lat="39.24212722" lon="-0.3158576"><ele>29.0</ele><time>2022-10-31T14:49:45.0000000+00:00</time></trkpt><trkpt lat="39.24212722" lon="-0.3158576"><ele>29.0</ele><time>2022-10-31T14:49:46.0000000+00:00</time></trkpt><trkpt lat="39.24212722" lon="-0.3158576"><ele>29.0</ele><time>2022-10-31T14:49:47.0000000+00:00</time></trkpt><trkpt lat="39.24212722" lon="-0.3158576"><ele>29.0</ele><time>2022-10-31T14:49:48.0000000+00:00</time></trkpt><trkpt lat="39.24212722" lon="-0.3158576"><ele>29.0</ele><time>2022-10-31T14:49:49.0000000+00:00</time></trkpt><trkpt lat="39.24212722" lon="-0.3158576"><ele>29.0</ele><time>2022-10-31T14:49:50.0000000+00:00</time></trkpt><trkpt lat="39.24212722" lon="-0.3158576"><ele>29.0</ele><time>2022-10-31T14:49:51.0000000+00:00</time></trkpt><trkpt lat="39.24212722" lon="-0.3158576"><ele>29.0</ele><time>2022-10-31T14:49:52.0000000+00:00</time></trkpt><trkpt lat="39.24212722" lon="-0.3158576"><ele>29.0</ele><time>2022-10-31T14:49:53.0000000+00:00</time></trkpt><trkpt lat="39.24212722" lon="-0.3158576"><ele>29.0</ele><time>2022-10-31T14:49:54.0000000+00:00</time></trkpt><trkpt lat="39.24212722" lon="-0.3158576"><ele>29.0</ele><time>2022-10-31T14:49:55.0000000+00:00</time></trkpt><trkpt lat="39.24212722" lon="-0.3158576"><ele>29.0</ele><time>2022-10-31T14:49:56.0000000+00:00</time></trkpt><trkpt lat="39.24212722" lon="-0.3158576"><ele>29.0</ele><time>2022-10-31T14:49:57.0000000+00:00</time></trkpt><trkpt lat="39.24212722" lon="-0.3158576"><ele>29.0</ele><time>2022-10-31T14:49:58.0000000+00:00</time></trkpt><trkpt lat="39.24212722" lon="-0.3158576"><ele>29.0</ele><time>2022-10-31T14:49:59.0000000+00:00</time></trkpt><trkpt lat="39.24212722" lon="-0.3158576"><ele>29.0</ele><time>2022-10-31T14:50:00.0000000+00:00</time></trkpt><trkpt lat="39.24212722" lon="-0.3158576"><ele>29.0</ele><time>2022-10-31T14:50:01.0000000+00:00</time></trkpt><trkpt lat="39.24212722" lon="-0.3158576"><ele>29.0</ele><time>2022-10-31T14:50:02.0000000+00:00</time></trkpt><trkpt lat="39.24212722" lon="-0.3158576"><ele>29.0</ele><time>2022-10-31T14:50:03.0000000+00:00</time></trkpt><trkpt lat="39.24212722" lon="-0.3158576"><ele>29.0</ele><time>2022-10-31T14:50:04.0000000+00:00</time></trkpt><trkpt lat="39.24212722" lon="-0.3158576"><ele>29.0</ele><time>2022-10-31T14:50:05.0000000+00:00</time></trkpt><trkpt lat="39.24212722" lon="-0.3158576"><ele>29.0</ele><time>2022-10-31T14:50:06.0000000+00:00</time></trkpt><trkpt lat="39.24212722" lon="-0.3158576"><ele>29.0</ele><time>2022-10-31T14:50:07.0000000+00:00</time></trkpt><trkpt lat="39.24212722" lon="-0.3158576"><ele>29.0</ele><time>2022-10-31T14:50:08.0000000+00:00</time></trkpt><trkpt lat="39.24212722" lon="-0.3158576"><ele>29.0</ele><time>2022-10-31T14:50:09.0000000+00:00</time></trkpt><trkpt lat="39.24212722" lon="-0.3158576"><ele>29.0</ele><time>2022-10-31T14:50:10.0000000+00:00</time></trkpt><trkpt lat="39.24212722" lon="-0.3158576"><ele>29.0</ele><time>2022-10-31T14:50:11.0000000+00:00</time></trkpt><trkpt lat="39.24212722" lon="-0.3158576"><ele>29.0</ele><time>2022-10-31T14:50:12.0000000+00:00</time></trkpt><trkpt lat="39.24212722" lon="-0.3158576"><ele>29.0</ele><time>2022-10-31T14:50:13.0000000+00:00</time></trkpt><trkpt lat="39.24212722" lon="-0.3158576"><ele>29.0</ele><time>2022-10-31T14:50:14.0000000+00:00</time></trkpt><trkpt lat="39.24212722" lon="-0.3158576"><ele>29.0</ele><time>2022-10-31T14:50:15.0000000+00:00</time></trkpt><trkpt lat="39.24212722" lon="-0.3158576"><ele>29.0</ele><time>2022-10-31T14:50:16.0000000+00:00</time></trkpt><trkpt lat="39.24212722" lon="-0.3158576"><ele>29.0</ele><time>2022-10-31T14:50:17.0000000+00:00</time></trkpt><trkpt lat="39.24212722" lon="-0.3158576"><ele>29.0</ele><time>2022-10-31T14:50:18.0000000+00:00</time></trkpt><trkpt lat="39.24212722" lon="-0.3158576"><ele>29.0</ele><time>2022-10-31T14:50:19.0000000+00:00</time></trkpt><trkpt lat="39.24212722" lon="-0.3158576"><ele>29.0</ele><time>2022-10-31T14:50:20.0000000+00:00</time></trkpt><trkpt lat="39.24212722" lon="-0.3158576"><ele>29.0</ele><time>2022-10-31T14:50:21.0000000+00:00</time></trkpt><trkpt lat="39.24212722" lon="-0.3158576"><ele>29.0</ele><time>2022-10-31T14:50:22.0000000+00:00</time></trkpt><trkpt lat="39.24212722" lon="-0.3158576"><ele>29.0</ele><time>2022-10-31T14:50:23.0000000+00:00</time></trkpt><trkpt lat="39.24212722" lon="-0.3158576"><ele>29.0</ele><time>2022-10-31T14:50:24.0000000+00:00</time></trkpt><trkpt lat="39.24212722" lon="-0.3158576"><ele>29.0</ele><time>2022-10-31T14:50:25.0000000+00:00</time></trkpt><trkpt lat="39.24212722" lon="-0.3158576"><ele>29.0</ele><time>2022-10-31T14:50:26.0000000+00:00</time></trkpt><trkpt lat="39.24212689" lon="-0.31585878"><ele>29.0</ele><time>2022-10-31T14:50:27.0000000+00:00</time></trkpt><trkpt lat="39.24212932" lon="-0.3158602"><ele>29.0</ele><time>2022-10-31T14:50:28.0000000+00:00</time></trkpt><trkpt lat="39.24212932" lon="-0.3158602"><ele>29.0</ele><time>2022-10-31T14:50:29.0000000+00:00</time></trkpt><trkpt lat="39.24212932" lon="-0.3158602"><ele>29.0</ele><time>2022-10-31T14:50:30.0000000+00:00</time></trkpt><trkpt lat="39.24212932" lon="-0.3158602"><ele>29.0</ele><time>2022-10-31T14:50:31.0000000+00:00</time></trkpt><trkpt lat="39.24212932" lon="-0.3158602"><ele>29.0</ele><time>2022-10-31T14:50:32.0000000+00:00</time></trkpt><trkpt lat="39.24212932" lon="-0.3158602"><ele>29.0</ele><time>2022-10-31T14:50:33.0000000+00:00</time></trkpt><trkpt lat="39.24212932" lon="-0.3158602"><ele>29.0</ele><time>2022-10-31T14:50:34.0000000+00:00</time></trkpt><trkpt lat="39.24212932" lon="-0.3158602"><ele>29.0</ele><time>2022-10-31T14:50:35.0000000+00:00</time></trkpt><trkpt lat="39.24212932" lon="-0.3158602"><ele>29.0</ele><time>2022-10-31T14:50:36.0000000+00:00</time></trkpt><trkpt lat="39.24212932" lon="-0.3158602"><ele>29.0</ele><time>2022-10-31T14:50:37.0000000+00:00</time></trkpt><trkpt lat="39.24212932" lon="-0.3158602"><ele>29.0</ele><time>2022-10-31T14:50:38.0000000+00:00</time></trkpt><trkpt lat="39.24212932" lon="-0.3158602"><ele>29.0</ele><time>2022-10-31T14:50:39.0000000+00:00</time></trkpt><trkpt lat="39.24212932" lon="-0.3158602"><ele>29.0</ele><time>2022-10-31T14:50:40.0000000+00:00</time></trkpt><trkpt lat="39.24212932" lon="-0.3158602"><ele>29.0</ele><time>2022-10-31T14:50:41.0000000+00:00</time></trkpt><trkpt lat="39.24212932" lon="-0.3158602"><ele>29.0</ele><time>2022-10-31T14:50:42.0000000+00:00</time></trkpt><trkpt lat="39.24212932" lon="-0.3158602"><ele>29.0</ele><time>2022-10-31T14:50:43.0000000+00:00</time></trkpt><trkpt lat="39.24212932" lon="-0.3158602"><ele>29.0</ele><time>2022-10-31T14:50:44.0000000+00:00</time></trkpt><trkpt lat="39.24212932" lon="-0.3158602"><ele>29.0</ele><time>2022-10-31T14:50:45.0000000+00:00</time></trkpt><trkpt lat="39.24212932" lon="-0.3158602"><ele>29.0</ele><time>2022-10-31T14:50:46.0000000+00:00</time></trkpt><trkpt lat="39.24212932" lon="-0.3158602"><ele>29.0</ele><time>2022-10-31T14:50:47.0000000+00:00</time></trkpt><trkpt lat="39.24212932" lon="-0.3158602"><ele>29.0</ele><time>2022-10-31T14:50:48.0000000+00:00</time></trkpt><trkpt lat="39.24212932" lon="-0.3158602"><ele>29.0</ele><time>2022-10-31T14:50:49.0000000+00:00</time></trkpt><trkpt lat="39.24212932" lon="-0.3158602"><ele>29.0</ele><time>2022-10-31T14:50:50.0000000+00:00</time></trkpt><trkpt lat="39.24212932" lon="-0.3158602"><ele>29.0</ele><time>2022-10-31T14:50:51.0000000+00:00</time></trkpt><trkpt lat="39.24212932" lon="-0.3158602"><ele>29.0</ele><time>2022-10-31T14:50:52.0000000+00:00</time></trkpt><trkpt lat="39.24212932" lon="-0.3158602"><ele>29.0</ele><time>2022-10-31T14:50:53.0000000+00:00</time></trkpt><trkpt lat="39.24212932" lon="-0.3158602"><ele>29.0</ele><time>2022-10-31T14:50:54.0000000+00:00</time></trkpt><trkpt lat="39.24212932" lon="-0.3158602"><ele>29.0</ele><time>2022-10-31T14:50:55.0000000+00:00</time></trkpt><trkpt lat="39.24212932" lon="-0.3158602"><ele>29.0</ele><time>2022-10-31T14:50:56.0000000+00:00</time></trkpt><trkpt lat="39.24212932" lon="-0.3158602"><ele>29.0</ele><time>2022-10-31T14:50:57.0000000+00:00</time></trkpt><trkpt lat="39.24212932" lon="-0.3158602"><ele>29.0</ele><time>2022-10-31T14:50:58.0000000+00:00</time></trkpt><trkpt lat="39.24212932" lon="-0.3158602"><ele>29.0</ele><time>2022-10-31T14:50:59.0000000+00:00</time></trkpt><trkpt lat="39.24212932" lon="-0.3158602"><ele>29.0</ele><time>2022-10-31T14:51:00.0000000+00:00</time></trkpt><trkpt lat="39.24212932" lon="-0.3158602"><ele>29.0</ele><time>2022-10-31T14:51:01.0000000+00:00</time></trkpt><trkpt lat="39.24212932" lon="-0.3158602"><ele>29.0</ele><time>2022-10-31T14:51:02.0000000+00:00</time></trkpt><trkpt lat="39.24212932" lon="-0.3158602"><ele>29.0</ele><time>2022-10-31T14:51:03.0000000+00:00</time></trkpt><trkpt lat="39.24212932" lon="-0.3158602"><ele>29.0</ele><time>2022-10-31T14:51:04.0000000+00:00</time></trkpt><trkpt lat="39.24212932" lon="-0.3158602"><ele>29.0</ele><time>2022-10-31T14:51:05.0000000+00:00</time></trkpt><trkpt lat="39.24212932" lon="-0.3158602"><ele>29.0</ele><time>2022-10-31T14:51:06.0000000+00:00</time></trkpt><trkpt lat="39.24212932" lon="-0.3158602"><ele>29.0</ele><time>2022-10-31T14:51:07.0000000+00:00</time></trkpt><trkpt lat="39.24212932" lon="-0.3158602"><ele>29.0</ele><time>2022-10-31T14:51:08.0000000+00:00</time></trkpt><trkpt lat="39.24212932" lon="-0.3158602"><ele>29.0</ele><time>2022-10-31T14:51:09.0000000+00:00</time></trkpt><trkpt lat="39.24212932" lon="-0.3158602"><ele>29.0</ele><time>2022-10-31T14:51:10.0000000+00:00</time></trkpt><trkpt lat="39.24212932" lon="-0.3158602"><ele>29.0</ele><time>2022-10-31T14:51:11.0000000+00:00</time></trkpt><trkpt lat="39.24212932" lon="-0.3158602"><ele>29.0</ele><time>2022-10-31T14:51:12.0000000+00:00</time></trkpt><trkpt lat="39.24212932" lon="-0.3158602"><ele>29.0</ele><time>2022-10-31T14:51:13.0000000+00:00</time></trkpt><trkpt lat="39.24212932" lon="-0.3158602"><ele>29.0</ele><time>2022-10-31T14:51:14.0000000+00:00</time></trkpt><trkpt lat="39.24212932" lon="-0.3158602"><ele>29.0</ele><time>2022-10-31T14:51:15.0000000+00:00</time></trkpt><trkpt lat="39.24212932" lon="-0.3158602"><ele>29.0</ele><time>2022-10-31T14:51:16.0000000+00:00</time></trkpt><trkpt lat="39.24212932" lon="-0.3158602"><ele>29.0</ele><time>2022-10-31T14:51:17.0000000+00:00</time></trkpt><trkpt lat="39.24212932" lon="-0.3158602"><ele>29.0</ele><time>2022-10-31T14:51:18.0000000+00:00</time></trkpt><trkpt lat="39.24212932" lon="-0.3158602"><ele>29.0</ele><time>2022-10-31T14:51:19.0000000+00:00</time></trkpt><trkpt lat="39.24212932" lon="-0.3158602"><ele>29.0</ele><time>2022-10-31T14:51:20.0000000+00:00</time></trkpt><trkpt lat="39.24212932" lon="-0.3158602"><ele>29.0</ele><time>2022-10-31T14:51:21.0000000+00:00</time></trkpt><trkpt lat="39.24212932" lon="-0.3158602"><ele>29.0</ele><time>2022-10-31T14:51:22.0000000+00:00</time></trkpt><trkpt lat="39.24212932" lon="-0.3158602"><ele>29.0</ele><time>2022-10-31T14:51:23.0000000+00:00</time></trkpt><trkpt lat="39.24213049" lon="-0.31586255"><ele>29.0</ele><time>2022-10-31T14:51:24.0000000+00:00</time></trkpt><trkpt lat="39.24213259" lon="-0.3158649"><ele>29.0</ele><time>2022-10-31T14:51:25.0000000+00:00</time></trkpt><trkpt lat="39.24213259" lon="-0.3158649"><ele>29.0</ele><time>2022-10-31T14:51:26.0000000+00:00</time></trkpt><trkpt lat="39.24213259" lon="-0.3158649"><ele>29.0</ele><time>2022-10-31T14:51:27.0000000+00:00</time></trkpt><trkpt lat="39.24213259" lon="-0.3158649"><ele>29.0</ele><time>2022-10-31T14:51:28.0000000+00:00</time></trkpt><trkpt lat="39.24213259" lon="-0.3158649"><ele>29.0</ele><time>2022-10-31T14:51:29.0000000+00:00</time></trkpt><trkpt lat="39.24213259" lon="-0.3158649"><ele>29.0</ele><time>2022-10-31T14:51:30.0000000+00:00</time></trkpt><trkpt lat="39.24213259" lon="-0.3158649"><ele>29.0</ele><time>2022-10-31T14:51:31.0000000+00:00</time></trkpt><trkpt lat="39.24213259" lon="-0.3158649"><ele>29.0</ele><time>2022-10-31T14:51:32.0000000+00:00</time></trkpt><trkpt lat="39.24213259" lon="-0.3158649"><ele>29.0</ele><time>2022-10-31T14:51:33.0000000+00:00</time></trkpt><trkpt lat="39.24213259" lon="-0.3158649"><ele>29.0</ele><time>2022-10-31T14:51:34.0000000+00:00</time></trkpt><trkpt lat="39.24213259" lon="-0.3158649"><ele>29.0</ele><time>2022-10-31T14:51:35.0000000+00:00</time></trkpt><trkpt lat="39.24213259" lon="-0.3158649"><ele>29.0</ele><time>2022-10-31T14:51:36.0000000+00:00</time></trkpt><trkpt lat="39.24213259" lon="-0.3158649"><ele>29.0</ele><time>2022-10-31T14:51:37.0000000+00:00</time></trkpt><trkpt lat="39.24213259" lon="-0.3158649"><ele>29.0</ele><time>2022-10-31T14:51:38.0000000+00:00</time></trkpt><trkpt lat="39.24213259" lon="-0.3158649"><ele>29.0</ele><time>2022-10-31T14:51:39.0000000+00:00</time></trkpt><trkpt lat="39.24213259" lon="-0.3158649"><ele>29.0</ele><time>2022-10-31T14:51:40.0000000+00:00</time></trkpt><trkpt lat="39.24213259" lon="-0.3158649"><ele>29.0</ele><time>2022-10-31T14:51:41.0000000+00:00</time></trkpt><trkpt lat="39.24213259" lon="-0.3158649"><ele>29.0</ele><time>2022-10-31T14:51:42.0000000+00:00</time></trkpt><trkpt lat="39.24213259" lon="-0.3158649"><ele>29.0</ele><time>2022-10-31T14:51:43.0000000+00:00</time></trkpt><trkpt lat="39.24213259" lon="-0.3158649"><ele>29.0</ele><time>2022-10-31T14:51:44.0000000+00:00</time></trkpt><trkpt lat="39.24213259" lon="-0.3158649"><ele>29.0</ele><time>2022-10-31T14:51:45.0000000+00:00</time></trkpt><trkpt lat="39.24213259" lon="-0.3158649"><ele>29.0</ele><time>2022-10-31T14:51:46.0000000+00:00</time></trkpt><trkpt lat="39.24213259" lon="-0.3158649"><ele>29.0</ele><time>2022-10-31T14:51:47.0000000+00:00</time></trkpt><trkpt lat="39.24213259" lon="-0.3158649"><ele>29.0</ele><time>2022-10-31T14:51:48.0000000+00:00</time></trkpt><trkpt lat="39.24213259" lon="-0.3158649"><ele>29.0</ele><time>2022-10-31T14:51:49.0000000+00:00</time></trkpt><trkpt lat="39.24213259" lon="-0.3158649"><ele>29.0</ele><time>2022-10-31T14:51:50.0000000+00:00</time></trkpt><trkpt lat="39.24213259" lon="-0.3158649"><ele>29.0</ele><time>2022-10-31T14:51:51.0000000+00:00</time></trkpt><trkpt lat="39.24213259" lon="-0.3158649"><ele>29.0</ele><time>2022-10-31T14:51:52.0000000+00:00</time></trkpt><trkpt lat="39.24213259" lon="-0.3158649"><ele>29.0</ele><time>2022-10-31T14:51:53.0000000+00:00</time></trkpt><trkpt lat="39.24213259" lon="-0.3158649"><ele>29.0</ele><time>2022-10-31T14:51:54.0000000+00:00</time></trkpt><trkpt lat="39.24213259" lon="-0.3158649"><ele>29.0</ele><time>2022-10-31T14:51:55.0000000+00:00</time></trkpt><trkpt lat="39.24213259" lon="-0.3158649"><ele>29.0</ele><time>2022-10-31T14:51:56.0000000+00:00</time></trkpt><trkpt lat="39.24213259" lon="-0.3158649"><ele>29.0</ele><time>2022-10-31T14:51:57.0000000+00:00</time></trkpt><trkpt lat="39.24213259" lon="-0.3158649"><ele>29.0</ele><time>2022-10-31T14:51:58.0000000+00:00</time></trkpt><trkpt lat="39.24213259" lon="-0.3158649"><ele>29.0</ele><time>2022-10-31T14:51:59.0000000+00:00</time></trkpt><trkpt lat="39.24213259" lon="-0.3158649"><ele>29.0</ele><time>2022-10-31T14:52:00.0000000+00:00</time></trkpt><trkpt lat="39.24213259" lon="-0.3158649"><ele>29.0</ele><time>2022-10-31T14:52:01.0000000+00:00</time></trkpt><trkpt lat="39.24213259" lon="-0.3158649"><ele>29.0</ele><time>2022-10-31T14:52:02.0000000+00:00</time></trkpt><trkpt lat="39.24213259" lon="-0.3158649"><ele>29.0</ele><time>2022-10-31T14:52:03.0000000+00:00</time></trkpt><trkpt lat="39.24213259" lon="-0.3158649"><ele>29.0</ele><time>2022-10-31T14:52:04.0000000+00:00</time></trkpt><trkpt lat="39.24213259" lon="-0.3158649"><ele>29.0</ele><time>2022-10-31T14:52:05.0000000+00:00</time></trkpt><trkpt lat="39.24213259" lon="-0.3158649"><ele>29.0</ele><time>2022-10-31T14:52:06.0000000+00:00</time></trkpt><trkpt lat="39.24213259" lon="-0.3158649"><ele>29.0</ele><time>2022-10-31T14:52:07.0000000+00:00</time></trkpt><trkpt lat="39.24213259" lon="-0.3158649"><ele>29.0</ele><time>2022-10-31T14:52:08.0000000+00:00</time></trkpt><trkpt lat="39.24213259" lon="-0.3158649"><ele>29.0</ele><time>2022-10-31T14:52:09.0000000+00:00</time></trkpt><trkpt lat="39.24213259" lon="-0.3158649"><ele>29.0</ele><time>2022-10-31T14:52:10.0000000+00:00</time></trkpt><trkpt lat="39.24213259" lon="-0.3158649"><ele>29.0</ele><time>2022-10-31T14:52:11.0000000+00:00</time></trkpt><trkpt lat="39.24213259" lon="-0.3158649"><ele>29.0</ele><time>2022-10-31T14:52:12.0000000+00:00</time></trkpt><trkpt lat="39.24213259" lon="-0.3158649"><ele>29.0</ele><time>2022-10-31T14:52:13.0000000+00:00</time></trkpt><trkpt lat="39.24213259" lon="-0.3158649"><ele>29.0</ele><time>2022-10-31T14:52:14.0000000+00:00</time></trkpt><trkpt lat="39.24213259" lon="-0.3158649"><ele>29.0</ele><time>2022-10-31T14:52:15.0000000+00:00</time></trkpt><trkpt lat="39.24213259" lon="-0.3158649"><ele>29.0</ele><time>2022-10-31T14:52:16.0000000+00:00</time></trkpt><trkpt lat="39.24213259" lon="-0.3158649"><ele>29.0</ele><time>2022-10-31T14:52:17.0000000+00:00</time></trkpt><trkpt lat="39.24213259" lon="-0.3158649"><ele>29.0</ele><time>2022-10-31T14:52:18.0000000+00:00</time></trkpt><trkpt lat="39.24213259" lon="-0.3158649"><ele>29.0</ele><time>2022-10-31T14:52:19.0000000+00:00</time></trkpt><trkpt lat="39.24213259" lon="-0.3158649"><ele>29.0</ele><time>2022-10-31T14:52:20.0000000+00:00</time></trkpt><trkpt lat="39.24213259" lon="-0.3158649"><ele>29.0</ele><time>2022-10-31T14:52:21.0000000+00:00</time></trkpt><trkpt lat="39.24213259" lon="-0.3158649"><ele>29.0</ele><time>2022-10-31T14:52:22.0000000+00:00</time></trkpt><trkpt lat="39.24213259" lon="-0.3158649"><ele>29.0</ele><time>2022-10-31T14:52:23.0000000+00:00</time></trkpt><trkpt lat="39.24213259" lon="-0.3158649"><ele>29.0</ele><time>2022-10-31T14:52:24.0000000+00:00</time></trkpt><trkpt lat="39.24213259" lon="-0.3158649"><ele>29.0</ele><time>2022-10-31T14:52:25.0000000+00:00</time></trkpt><trkpt lat="39.24213259" lon="-0.3158649"><ele>29.0</ele><time>2022-10-31T14:52:26.0000000+00:00</time></trkpt><trkpt lat="39.24213259" lon="-0.3158649"><ele>29.0</ele><time>2022-10-31T14:52:27.0000000+00:00</time></trkpt><trkpt lat="39.24213259" lon="-0.3158649"><ele>29.0</ele><time>2022-10-31T14:52:28.0000000+00:00</time></trkpt><trkpt lat="39.24213259" lon="-0.3158649"><ele>29.0</ele><time>2022-10-31T14:52:29.0000000+00:00</time></trkpt><trkpt lat="39.24213259" lon="-0.3158649"><ele>29.0</ele><time>2022-10-31T14:52:30.0000000+00:00</time></trkpt><trkpt lat="39.24213259" lon="-0.3158649"><ele>29.0</ele><time>2022-10-31T14:52:31.0000000+00:00</time></trkpt><trkpt lat="39.24213259" lon="-0.3158649"><ele>29.0</ele><time>2022-10-31T14:52:32.0000000+00:00</time></trkpt><trkpt lat="39.24213259" lon="-0.3158649"><ele>29.0</ele><time>2022-10-31T14:52:33.0000000+00:00</time></trkpt><trkpt lat="39.24213259" lon="-0.3158649"><ele>29.0</ele><time>2022-10-31T14:52:34.0000000+00:00</time></trkpt><trkpt lat="39.24213259" lon="-0.3158649"><ele>29.0</ele><time>2022-10-31T14:52:35.0000000+00:00</time></trkpt><trkpt lat="39.24213259" lon="-0.3158649"><ele>29.0</ele><time>2022-10-31T14:52:36.0000000+00:00</time></trkpt><trkpt lat="39.24213259" lon="-0.3158649"><ele>29.0</ele><time>2022-10-31T14:52:37.0000000+00:00</time></trkpt><trkpt lat="39.24213259" lon="-0.3158649"><ele>29.0</ele><time>2022-10-31T14:52:38.0000000+00:00</time></trkpt><trkpt lat="39.24213259" lon="-0.3158649"><ele>29.0</ele><time>2022-10-31T14:52:39.0000000+00:00</time></trkpt><trkpt lat="39.24213259" lon="-0.3158649"><ele>29.0</ele><time>2022-10-31T14:52:40.0000000+00:00</time></trkpt><trkpt lat="39.24213259" lon="-0.3158649"><ele>29.0</ele><time>2022-10-31T14:52:41.0000000+00:00</time></trkpt><trkpt lat="39.24213259" lon="-0.3158649"><ele>29.0</ele><time>2022-10-31T14:52:42.0000000+00:00</time></trkpt><trkpt lat="39.24213259" lon="-0.3158649"><ele>29.0</ele><time>2022-10-31T14:52:43.0000000+00:00</time></trkpt><trkpt lat="39.24213259" lon="-0.3158649"><ele>29.0</ele><time>2022-10-31T14:52:44.0000000+00:00</time></trkpt><trkpt lat="39.24213259" lon="-0.3158649"><ele>29.0</ele><time>2022-10-31T14:52:45.0000000+00:00</time></trkpt><trkpt lat="39.24213259" lon="-0.3158649"><ele>29.0</ele><time>2022-10-31T14:52:46.0000000+00:00</time></trkpt><trkpt lat="39.24213259" lon="-0.3158649"><ele>29.0</ele><time>2022-10-31T14:52:47.0000000+00:00</time></trkpt><trkpt lat="39.24213259" lon="-0.3158649"><ele>29.0</ele><time>2022-10-31T14:52:48.0000000+00:00</time></trkpt><trkpt lat="39.24213259" lon="-0.3158649"><ele>29.0</ele><time>2022-10-31T14:52:49.0000000+00:00</time></trkpt><trkpt lat="39.24212982" lon="-0.3158685"><ele>29.0</ele><time>2022-10-31T14:52:50.0000000+00:00</time></trkpt><trkpt lat="39.24213141" lon="-0.31587152"><ele>29.0</ele><time>2022-10-31T14:52:51.0000000+00:00</time></trkpt><trkpt lat="39.24213141" lon="-0.31587152"><ele>29.0</ele><time>2022-10-31T14:52:52.0000000+00:00</time></trkpt><trkpt lat="39.24213141" lon="-0.31587152"><ele>29.0</ele><time>2022-10-31T14:52:53.0000000+00:00</time></trkpt><trkpt lat="39.24213141" lon="-0.31587152"><ele>29.0</ele><time>2022-10-31T14:52:54.0000000+00:00</time></trkpt><trkpt lat="39.24213141" lon="-0.31587152"><ele>29.0</ele><time>2022-10-31T14:52:55.0000000+00:00</time></trkpt><trkpt lat="39.24213141" lon="-0.31587152"><ele>29.0</ele><time>2022-10-31T14:52:56.0000000+00:00</time></trkpt><trkpt lat="39.24213141" lon="-0.31587152"><ele>29.0</ele><time>2022-10-31T14:52:57.0000000+00:00</time></trkpt><trkpt lat="39.24213141" lon="-0.31587152"><ele>29.0</ele><time>2022-10-31T14:52:58.0000000+00:00</time></trkpt><trkpt lat="39.24213141" lon="-0.31587152"><ele>29.0</ele><time>2022-10-31T14:52:59.0000000+00:00</time></trkpt><trkpt lat="39.24213141" lon="-0.31587152"><ele>29.0</ele><time>2022-10-31T14:53:00.0000000+00:00</time></trkpt><trkpt lat="39.24213141" lon="-0.31587152"><ele>29.0</ele><time>2022-10-31T14:53:01.0000000+00:00</time></trkpt><trkpt lat="39.24213141" lon="-0.31587152"><ele>29.0</ele><time>2022-10-31T14:53:02.0000000+00:00</time></trkpt><trkpt lat="39.24213141" lon="-0.31587152"><ele>29.0</ele><time>2022-10-31T14:53:03.0000000+00:00</time></trkpt><trkpt lat="39.24213141" lon="-0.31587152"><ele>29.0</ele><time>2022-10-31T14:53:04.0000000+00:00</time></trkpt><trkpt lat="39.24213141" lon="-0.31587152"><ele>29.0</ele><time>2022-10-31T14:53:05.0000000+00:00</time></trkpt><trkpt lat="39.24213141" lon="-0.31587152"><ele>29.0</ele><time>2022-10-31T14:53:06.0000000+00:00</time></trkpt><trkpt lat="39.24213141" lon="-0.31587152"><ele>29.0</ele><time>2022-10-31T14:53:07.0000000+00:00</time></trkpt><trkpt lat="39.24213141" lon="-0.31587152"><ele>29.0</ele><time>2022-10-31T14:53:08.0000000+00:00</time></trkpt><trkpt lat="39.24213141" lon="-0.31587152"><ele>29.0</ele><time>2022-10-31T14:53:09.0000000+00:00</time></trkpt><trkpt lat="39.24213141" lon="-0.31587152"><ele>29.0</ele><time>2022-10-31T14:53:10.0000000+00:00</time></trkpt><trkpt lat="39.24213141" lon="-0.31587152"><ele>29.0</ele><time>2022-10-31T14:53:11.0000000+00:00</time></trkpt><trkpt lat="39.24213141" lon="-0.31587152"><ele>29.0</ele><time>2022-10-31T14:53:12.0000000+00:00</time></trkpt><trkpt lat="39.24213141" lon="-0.31587152"><ele>29.0</ele><time>2022-10-31T14:53:13.0000000+00:00</time></trkpt><trkpt lat="39.24213141" lon="-0.31587152"><ele>29.0</ele><time>2022-10-31T14:53:14.0000000+00:00</time></trkpt><trkpt lat="39.24213141" lon="-0.31587152"><ele>29.0</ele><time>2022-10-31T14:53:15.0000000+00:00</time></trkpt><trkpt lat="39.24213141" lon="-0.31587152"><ele>29.0</ele><time>2022-10-31T14:53:16.0000000+00:00</time></trkpt><trkpt lat="39.24213141" lon="-0.31587152"><ele>29.0</ele><time>2022-10-31T14:53:17.0000000+00:00</time></trkpt><trkpt lat="39.24213141" lon="-0.31587152"><ele>29.0</ele><time>2022-10-31T14:53:18.0000000+00:00</time></trkpt><trkpt lat="39.24213141" lon="-0.31587152"><ele>29.0</ele><time>2022-10-31T14:53:19.0000000+00:00</time></trkpt><trkpt lat="39.24213141" lon="-0.31587152"><ele>29.0</ele><time>2022-10-31T14:53:20.0000000+00:00</time></trkpt><trkpt lat="39.24213141" lon="-0.31587152"><ele>29.0</ele><time>2022-10-31T14:53:21.0000000+00:00</time></trkpt><trkpt lat="39.24213141" lon="-0.31587152"><ele>29.0</ele><time>2022-10-31T14:53:22.0000000+00:00</time></trkpt><trkpt lat="39.24213141" lon="-0.31587152"><ele>29.0</ele><time>2022-10-31T14:53:23.0000000+00:00</time></trkpt><trkpt lat="39.24213141" lon="-0.31587152"><ele>29.0</ele><time>2022-10-31T14:53:24.0000000+00:00</time></trkpt><trkpt lat="39.24213141" lon="-0.31587152"><ele>29.0</ele><time>2022-10-31T14:53:25.0000000+00:00</time></trkpt><trkpt lat="39.24213141" lon="-0.31587152"><ele>29.0</ele><time>2022-10-31T14:53:26.0000000+00:00</time></trkpt><trkpt lat="39.24213141" lon="-0.31587152"><ele>29.0</ele><time>2022-10-31T14:53:27.0000000+00:00</time></trkpt><trkpt lat="39.24213141" lon="-0.31587152"><ele>29.0</ele><time>2022-10-31T14:53:28.0000000+00:00</time></trkpt><trkpt lat="39.24213141" lon="-0.31587152"><ele>29.0</ele><time>2022-10-31T14:53:29.0000000+00:00</time></trkpt><trkpt lat="39.24213141" lon="-0.31587152"><ele>29.0</ele><time>2022-10-31T14:53:30.0000000+00:00</time></trkpt><trkpt lat="39.24213141" lon="-0.31587152"><ele>29.0</ele><time>2022-10-31T14:53:31.0000000+00:00</time></trkpt><trkpt lat="39.24213141" lon="-0.31587152"><ele>29.0</ele><time>2022-10-31T14:53:32.0000000+00:00</time></trkpt><trkpt lat="39.24213141" lon="-0.31587152"><ele>29.0</ele><time>2022-10-31T14:53:33.0000000+00:00</time></trkpt><trkpt lat="39.24213141" lon="-0.31587152"><ele>29.0</ele><time>2022-10-31T14:53:34.0000000+00:00</time></trkpt><trkpt lat="39.24213141" lon="-0.31587152"><ele>29.0</ele><time>2022-10-31T14:53:35.0000000+00:00</time></trkpt><trkpt lat="39.24213041" lon="-0.31587093"><ele>29.0</ele><time>2022-10-31T14:53:36.0000000+00:00</time></trkpt><trkpt lat="39.24213259" lon="-0.31587303"><ele>29.0</ele><time>2022-10-31T14:53:37.0000000+00:00</time></trkpt><trkpt lat="39.24213259" lon="-0.31587303"><ele>29.0</ele><time>2022-10-31T14:53:38.0000000+00:00</time></trkpt><trkpt lat="39.24213259" lon="-0.31587303"><ele>29.0</ele><time>2022-10-31T14:53:39.0000000+00:00</time></trkpt><trkpt lat="39.24213259" lon="-0.31587303"><ele>29.0</ele><time>2022-10-31T14:53:40.0000000+00:00</time></trkpt><trkpt lat="39.24213259" lon="-0.31587303"><ele>29.0</ele><time>2022-10-31T14:53:41.0000000+00:00</time></trkpt><trkpt lat="39.24213259" lon="-0.31587303"><ele>29.0</ele><time>2022-10-31T14:53:42.0000000+00:00</time></trkpt><trkpt lat="39.24213259" lon="-0.31587303"><ele>29.0</ele><time>2022-10-31T14:53:43.0000000+00:00</time></trkpt><trkpt lat="39.24213259" lon="-0.31587303"><ele>29.0</ele><time>2022-10-31T14:53:44.0000000+00:00</time></trkpt><trkpt lat="39.24213259" lon="-0.31587303"><ele>29.0</ele><time>2022-10-31T14:53:45.0000000+00:00</time></trkpt><trkpt lat="39.24213259" lon="-0.31587303"><ele>29.0</ele><time>2022-10-31T14:53:46.0000000+00:00</time></trkpt><trkpt lat="39.24213259" lon="-0.31587303"><ele>29.0</ele><time>2022-10-31T14:53:47.0000000+00:00</time></trkpt><trkpt lat="39.24213259" lon="-0.31587303"><ele>29.0</ele><time>2022-10-31T14:53:48.0000000+00:00</time></trkpt><trkpt lat="39.24213259" lon="-0.31587303"><ele>29.0</ele><time>2022-10-31T14:53:49.0000000+00:00</time></trkpt><trkpt lat="39.24213259" lon="-0.31587303"><ele>29.0</ele><time>2022-10-31T14:53:50.0000000+00:00</time></trkpt><trkpt lat="39.24213259" lon="-0.31587303"><ele>29.0</ele><time>2022-10-31T14:53:51.0000000+00:00</time></trkpt><trkpt lat="39.24213259" lon="-0.31587303"><ele>29.0</ele><time>2022-10-31T14:53:52.0000000+00:00</time></trkpt><trkpt lat="39.24213259" lon="-0.31587303"><ele>29.0</ele><time>2022-10-31T14:53:53.0000000+00:00</time></trkpt><trkpt lat="39.24213259" lon="-0.31587303"><ele>29.0</ele><time>2022-10-31T14:53:54.0000000+00:00</time></trkpt><trkpt lat="39.24213259" lon="-0.31587303"><ele>29.0</ele><time>2022-10-31T14:53:55.0000000+00:00</time></trkpt><trkpt lat="39.24213259" lon="-0.31587303"><ele>29.0</ele><time>2022-10-31T14:53:56.0000000+00:00</time></trkpt><trkpt lat="39.24213259" lon="-0.31587303"><ele>29.0</ele><time>2022-10-31T14:53:57.0000000+00:00</time></trkpt><trkpt lat="39.24213259" lon="-0.31587303"><ele>29.0</ele><time>2022-10-31T14:53:58.0000000+00:00</time></trkpt><trkpt lat="39.24213259" lon="-0.31587303"><ele>29.0</ele><time>2022-10-31T14:53:59.0000000+00:00</time></trkpt><trkpt lat="39.24213259" lon="-0.31587303"><ele>29.0</ele><time>2022-10-31T14:54:00.0000000+00:00</time></trkpt><trkpt lat="39.24213259" lon="-0.31587303"><ele>29.0</ele><time>2022-10-31T14:54:01.0000000+00:00</time></trkpt><trkpt lat="39.24213259" lon="-0.31587303"><ele>29.0</ele><time>2022-10-31T14:54:02.0000000+00:00</time></trkpt><trkpt lat="39.24213259" lon="-0.31587303"><ele>29.0</ele><time>2022-10-31T14:54:03.0000000+00:00</time></trkpt><trkpt lat="39.24213259" lon="-0.31587303"><ele>29.0</ele><time>2022-10-31T14:54:04.0000000+00:00</time></trkpt><trkpt lat="39.24213259" lon="-0.31587303"><ele>29.0</ele><time>2022-10-31T14:54:05.0000000+00:00</time></trkpt><trkpt lat="39.24213259" lon="-0.31587303"><ele>29.0</ele><time>2022-10-31T14:54:06.0000000+00:00</time></trkpt><trkpt lat="39.24213259" lon="-0.31587303"><ele>29.0</ele><time>2022-10-31T14:54:07.0000000+00:00</time></trkpt><trkpt lat="39.24213259" lon="-0.31587303"><ele>29.0</ele><time>2022-10-31T14:54:08.0000000+00:00</time></trkpt><trkpt lat="39.24213259" lon="-0.31587303"><ele>29.0</ele><time>2022-10-31T14:54:09.0000000+00:00</time></trkpt><trkpt lat="39.24213259" lon="-0.31587303"><ele>29.0</ele><time>2022-10-31T14:54:10.0000000+00:00</time></trkpt><trkpt lat="39.24213259" lon="-0.31587303"><ele>29.0</ele><time>2022-10-31T14:54:11.0000000+00:00</time></trkpt><trkpt lat="39.24213259" lon="-0.31587303"><ele>29.0</ele><time>2022-10-31T14:54:12.0000000+00:00</time></trkpt><trkpt lat="39.24213259" lon="-0.31587303"><ele>29.0</ele><time>2022-10-31T14:54:13.0000000+00:00</time></trkpt><trkpt lat="39.24213259" lon="-0.31587303"><ele>29.0</ele><time>2022-10-31T14:54:14.0000000+00:00</time></trkpt><trkpt lat="39.24213259" lon="-0.31587303"><ele>29.0</ele><time>2022-10-31T14:54:15.0000000+00:00</time></trkpt><trkpt lat="39.24213259" lon="-0.31587303"><ele>29.0</ele><time>2022-10-31T14:54:16.0000000+00:00</time></trkpt><trkpt lat="39.24213259" lon="-0.31587303"><ele>29.0</ele><time>2022-10-31T14:54:17.0000000+00:00</time></trkpt><trkpt lat="39.24213259" lon="-0.31587303"><ele>29.0</ele><time>2022-10-31T14:54:18.0000000+00:00</time></trkpt><trkpt lat="39.24213259" lon="-0.31587303"><ele>29.0</ele><time>2022-10-31T14:54:19.0000000+00:00</time></trkpt><trkpt lat="39.24213259" lon="-0.31587303"><ele>29.0</ele><time>2022-10-31T14:54:20.0000000+00:00</time></trkpt><trkpt lat="39.24213259" lon="-0.31587303"><ele>29.0</ele><time>2022-10-31T14:54:21.0000000+00:00</time></trkpt><trkpt lat="39.24213259" lon="-0.31587303"><ele>29.0</ele><time>2022-10-31T14:54:22.0000000+00:00</time></trkpt><trkpt lat="39.24213259" lon="-0.31587303"><ele>29.0</ele><time>2022-10-31T14:54:23.0000000+00:00</time></trkpt><trkpt lat="39.24213259" lon="-0.31587303"><ele>29.0</ele><time>2022-10-31T14:54:24.0000000+00:00</time></trkpt><trkpt lat="39.24213259" lon="-0.31587303"><ele>29.0</ele><time>2022-10-31T14:54:25.0000000+00:00</time></trkpt><trkpt lat="39.24213259" lon="-0.31587303"><ele>29.0</ele><time>2022-10-31T14:54:26.0000000+00:00</time></trkpt><trkpt lat="39.24213259" lon="-0.31587303"><ele>29.0</ele><time>2022-10-31T14:54:27.0000000+00:00</time></trkpt><trkpt lat="39.24213259" lon="-0.31587303"><ele>29.0</ele><time>2022-10-31T14:54:28.0000000+00:00</time></trkpt><trkpt lat="39.24213259" lon="-0.31587303"><ele>29.0</ele><time>2022-10-31T14:54:29.0000000+00:00</time></trkpt><trkpt lat="39.24213259" lon="-0.31587303"><ele>29.0</ele><time>2022-10-31T14:54:30.0000000+00:00</time></trkpt><trkpt lat="39.24213259" lon="-0.31587303"><ele>29.0</ele><time>2022-10-31T14:54:31.0000000+00:00</time></trkpt><trkpt lat="39.24213259" lon="-0.31587303"><ele>29.0</ele><time>2022-10-31T14:54:32.0000000+00:00</time></trkpt><trkpt lat="39.24213259" lon="-0.31587303"><ele>29.0</ele><time>2022-10-31T14:54:33.0000000+00:00</time></trkpt><trkpt lat="39.24213259" lon="-0.31587303"><ele>29.0</ele><time>2022-10-31T14:54:34.0000000+00:00</time></trkpt><trkpt lat="39.24213259" lon="-0.31587303"><ele>29.0</ele><time>2022-10-31T14:54:35.0000000+00:00</time></trkpt><trkpt lat="39.24213259" lon="-0.31587303"><ele>29.0</ele><time>2022-10-31T14:54:36.0000000+00:00</time></trkpt><trkpt lat="39.24213259" lon="-0.31587303"><ele>29.0</ele><time>2022-10-31T14:54:37.0000000+00:00</time></trkpt><trkpt lat="39.24213259" lon="-0.31587303"><ele>29.0</ele><time>2022-10-31T14:54:38.0000000+00:00</time></trkpt><trkpt lat="39.24213259" lon="-0.31587303"><ele>29.0</ele><time>2022-10-31T14:54:39.0000000+00:00</time></trkpt><trkpt lat="39.24213259" lon="-0.31587303"><ele>29.0</ele><time>2022-10-31T14:54:40.0000000+00:00</time></trkpt><trkpt lat="39.24213259" lon="-0.31587303"><ele>29.0</ele><time>2022-10-31T14:54:41.0000000+00:00</time></trkpt><trkpt lat="39.24213259" lon="-0.31587303"><ele>29.0</ele><time>2022-10-31T14:54:42.0000000+00:00</time></trkpt><trkpt lat="39.24213259" lon="-0.31587303"><ele>29.0</ele><time>2022-10-31T14:54:43.0000000+00:00</time></trkpt><trkpt lat="39.24213259" lon="-0.31587303"><ele>29.0</ele><time>2022-10-31T14:54:44.0000000+00:00</time></trkpt><trkpt lat="39.24213259" lon="-0.31587303"><ele>29.0</ele><time>2022-10-31T14:54:45.0000000+00:00</time></trkpt><trkpt lat="39.24213259" lon="-0.31587303"><ele>29.0</ele><time>2022-10-31T14:54:46.0000000+00:00</time></trkpt><trkpt lat="39.24213259" lon="-0.31587303"><ele>29.0</ele><time>2022-10-31T14:54:47.0000000+00:00</time></trkpt><trkpt lat="39.24213259" lon="-0.31587303"><ele>29.0</ele><time>2022-10-31T14:54:48.0000000+00:00</time></trkpt><trkpt lat="39.24213259" lon="-0.31587303"><ele>29.0</ele><time>2022-10-31T14:54:49.0000000+00:00</time></trkpt><trkpt lat="39.24213259" lon="-0.31587303"><ele>29.0</ele><time>2022-10-31T14:54:50.0000000+00:00</time></trkpt><trkpt lat="39.24213259" lon="-0.31587303"><ele>29.0</ele><time>2022-10-31T14:54:51.0000000+00:00</time></trkpt><trkpt lat="39.24213259" lon="-0.31587303"><ele>29.0</ele><time>2022-10-31T14:54:52.0000000+00:00</time></trkpt><trkpt lat="39.24213259" lon="-0.31587303"><ele>29.0</ele><time>2022-10-31T14:54:53.0000000+00:00</time></trkpt><trkpt lat="39.24213259" lon="-0.31587303"><ele>29.0</ele><time>2022-10-31T14:54:54.0000000+00:00</time></trkpt><trkpt lat="39.24213259" lon="-0.31587303"><ele>29.0</ele><time>2022-10-31T14:54:55.0000000+00:00</time></trkpt><trkpt lat="39.24213259" lon="-0.31587303"><ele>29.0</ele><time>2022-10-31T14:54:56.0000000+00:00</time></trkpt><trkpt lat="39.24213259" lon="-0.31587303"><ele>29.0</ele><time>2022-10-31T14:54:57.0000000+00:00</time></trkpt><trkpt lat="39.24213259" lon="-0.31587303"><ele>29.0</ele><time>2022-10-31T14:54:58.0000000+00:00</time></trkpt><trkpt lat="39.24213259" lon="-0.31587303"><ele>29.0</ele><time>2022-10-31T14:54:59.0000000+00:00</time></trkpt><trkpt lat="39.24213259" lon="-0.31587303"><ele>29.0</ele><time>2022-10-31T14:55:00.0000000+00:00</time></trkpt><trkpt lat="39.24213259" lon="-0.31587303"><ele>29.0</ele><time>2022-10-31T14:55:01.0000000+00:00</time></trkpt><trkpt lat="39.24213259" lon="-0.31587303"><ele>29.0</ele><time>2022-10-31T14:55:02.0000000+00:00</time></trkpt><trkpt lat="39.24213259" lon="-0.31587303"><ele>29.0</ele><time>2022-10-31T14:55:03.0000000+00:00</time></trkpt><trkpt lat="39.24213259" lon="-0.31587303"><ele>29.0</ele><time>2022-10-31T14:55:04.0000000+00:00</time></trkpt><trkpt lat="39.24213259" lon="-0.31587303"><ele>29.0</ele><time>2022-10-31T14:55:05.0000000+00:00</time></trkpt><trkpt lat="39.24213259" lon="-0.31587303"><ele>29.0</ele><time>2022-10-31T14:55:06.0000000+00:00</time></trkpt><trkpt lat="39.24213259" lon="-0.31587303"><ele>29.0</ele><time>2022-10-31T14:55:07.0000000+00:00</time></trkpt><trkpt lat="39.24213259" lon="-0.31587303"><ele>29.0</ele><time>2022-10-31T14:55:08.0000000+00:00</time></trkpt><trkpt lat="39.24213259" lon="-0.31587303"><ele>29.0</ele><time>2022-10-31T14:55:09.0000000+00:00</time></trkpt><trkpt lat="39.24213259" lon="-0.31587303"><ele>29.0</ele><time>2022-10-31T14:55:10.0000000+00:00</time></trkpt><trkpt lat="39.24213259" lon="-0.31587303"><ele>29.0</ele><time>2022-10-31T14:55:11.0000000+00:00</time></trkpt><trkpt lat="39.24213259" lon="-0.31587303"><ele>29.0</ele><time>2022-10-31T14:55:12.0000000+00:00</time></trkpt><trkpt lat="39.24213259" lon="-0.31587303"><ele>29.0</ele><time>2022-10-31T14:55:13.0000000+00:00</time></trkpt><trkpt lat="39.24213259" lon="-0.31587303"><ele>29.0</ele><time>2022-10-31T14:55:14.0000000+00:00</time></trkpt><trkpt lat="39.24213259" lon="-0.31587303"><ele>29.0</ele><time>2022-10-31T14:55:15.0000000+00:00</time></trkpt><trkpt lat="39.24212965" lon="-0.31587227"><ele>29.0</ele><time>2022-10-31T14:55:16.0000000+00:00</time></trkpt><trkpt lat="39.24212974" lon="-0.31587529"><ele>29.0</ele><time>2022-10-31T14:55:17.0000000+00:00</time></trkpt><trkpt lat="39.24212974" lon="-0.31587529"><ele>29.0</ele><time>2022-10-31T14:55:18.0000000+00:00</time></trkpt><trkpt lat="39.24212974" lon="-0.31587529"><ele>29.0</ele><time>2022-10-31T14:55:19.0000000+00:00</time></trkpt><trkpt lat="39.24212974" lon="-0.31587529"><ele>29.0</ele><time>2022-10-31T14:55:20.0000000+00:00</time></trkpt><trkpt lat="39.24212974" lon="-0.31587529"><ele>29.0</ele><time>2022-10-31T14:55:21.0000000+00:00</time></trkpt><trkpt lat="39.24212974" lon="-0.31587529"><ele>29.0</ele><time>2022-10-31T14:55:22.0000000+00:00</time></trkpt><trkpt lat="39.24212974" lon="-0.31587529"><ele>29.0</ele><time>2022-10-31T14:55:23.0000000+00:00</time></trkpt><trkpt lat="39.24212974" lon="-0.31587529"><ele>29.0</ele><time>2022-10-31T14:55:24.0000000+00:00</time></trkpt><trkpt lat="39.24212974" lon="-0.31587529"><ele>29.0</ele><time>2022-10-31T14:55:25.0000000+00:00</time></trkpt><trkpt lat="39.24212974" lon="-0.31587529"><ele>29.0</ele><time>2022-10-31T14:55:26.0000000+00:00</time></trkpt><trkpt lat="39.24212974" lon="-0.31587529"><ele>29.0</ele><time>2022-10-31T14:55:27.0000000+00:00</time></trkpt><trkpt lat="39.24212974" lon="-0.31587529"><ele>29.0</ele><time>2022-10-31T14:55:28.0000000+00:00</time></trkpt><trkpt lat="39.24212974" lon="-0.31587529"><ele>29.0</ele><time>2022-10-31T14:55:29.0000000+00:00</time></trkpt><trkpt lat="39.24212974" lon="-0.31587529"><ele>29.0</ele><time>2022-10-31T14:55:30.0000000+00:00</time></trkpt><trkpt lat="39.24212974" lon="-0.31587529"><ele>29.0</ele><time>2022-10-31T14:55:31.0000000+00:00</time></trkpt><trkpt lat="39.24212974" lon="-0.31587529"><ele>29.0</ele><time>2022-10-31T14:55:32.0000000+00:00</time></trkpt><trkpt lat="39.24212974" lon="-0.31587529"><ele>29.0</ele><time>2022-10-31T14:55:33.0000000+00:00</time></trkpt><trkpt lat="39.24212974" lon="-0.31587529"><ele>29.0</ele><time>2022-10-31T14:55:34.0000000+00:00</time></trkpt><trkpt lat="39.24212974" lon="-0.31587529"><ele>29.0</ele><time>2022-10-31T14:55:35.0000000+00:00</time></trkpt><trkpt lat="39.24212974" lon="-0.31587529"><ele>29.0</ele><time>2022-10-31T14:55:36.0000000+00:00</time></trkpt><trkpt lat="39.24212974" lon="-0.31587529"><ele>29.0</ele><time>2022-10-31T14:55:37.0000000+00:00</time></trkpt><trkpt lat="39.24212974" lon="-0.31587529"><ele>29.0</ele><time>2022-10-31T14:55:38.0000000+00:00</time></trkpt><trkpt lat="39.24212974" lon="-0.31587529"><ele>29.0</ele><time>2022-10-31T14:55:39.0000000+00:00</time></trkpt><trkpt lat="39.24212974" lon="-0.31587529"><ele>29.0</ele><time>2022-10-31T14:55:40.0000000+00:00</time></trkpt><trkpt lat="39.24212974" lon="-0.31587529"><ele>29.0</ele><time>2022-10-31T14:55:41.0000000+00:00</time></trkpt><trkpt lat="39.24212974" lon="-0.31587529"><ele>29.0</ele><time>2022-10-31T14:55:42.0000000+00:00</time></trkpt><trkpt lat="39.24212974" lon="-0.31587529"><ele>29.0</ele><time>2022-10-31T14:55:43.0000000+00:00</time></trkpt><trkpt lat="39.24212974" lon="-0.31587529"><ele>29.0</ele><time>2022-10-31T14:55:44.0000000+00:00</time></trkpt><trkpt lat="39.24212974" lon="-0.31587529"><ele>29.0</ele><time>2022-10-31T14:55:45.0000000+00:00</time></trkpt><trkpt lat="39.24212974" lon="-0.31587529"><ele>29.0</ele><time>2022-10-31T14:55:46.0000000+00:00</time></trkpt><trkpt lat="39.24212974" lon="-0.31587529"><ele>29.0</ele><time>2022-10-31T14:55:47.0000000+00:00</time></trkpt><trkpt lat="39.24212974" lon="-0.31587529"><ele>29.0</ele><time>2022-10-31T14:55:48.0000000+00:00</time></trkpt><trkpt lat="39.24212974" lon="-0.31587529"><ele>29.0</ele><time>2022-10-31T14:55:49.0000000+00:00</time></trkpt><trkpt lat="39.24212974" lon="-0.31587529"><ele>29.0</ele><time>2022-10-31T14:55:50.0000000+00:00</time></trkpt><trkpt lat="39.24212974" lon="-0.31587529"><ele>29.0</ele><time>2022-10-31T14:55:51.0000000+00:00</time></trkpt><trkpt lat="39.24212974" lon="-0.31587529"><ele>29.0</ele><time>2022-10-31T14:55:52.0000000+00:00</time></trkpt><trkpt lat="39.24212974" lon="-0.31587529"><ele>29.0</ele><time>2022-10-31T14:55:53.0000000+00:00</time></trkpt><trkpt lat="39.24212974" lon="-0.31587529"><ele>29.0</ele><time>2022-10-31T14:55:54.0000000+00:00</time></trkpt><trkpt lat="39.24212974" lon="-0.31587529"><ele>29.0</ele><time>2022-10-31T14:55:55.0000000+00:00</time></trkpt><trkpt lat="39.24212974" lon="-0.31587529"><ele>29.0</ele><time>2022-10-31T14:55:56.0000000+00:00</time></trkpt><trkpt lat="39.24212974" lon="-0.31587529"><ele>29.0</ele><time>2022-10-31T14:55:57.0000000+00:00</time></trkpt><trkpt lat="39.24212974" lon="-0.31587529"><ele>29.0</ele><time>2022-10-31T14:55:58.0000000+00:00</time></trkpt><trkpt lat="39.24212974" lon="-0.31587529"><ele>29.0</ele><time>2022-10-31T14:55:59.0000000+00:00</time></trkpt><trkpt lat="39.24212974" lon="-0.31587529"><ele>29.0</ele><time>2022-10-31T14:56:00.0000000+00:00</time></trkpt><trkpt lat="39.24212974" lon="-0.31587529"><ele>29.0</ele><time>2022-10-31T14:56:01.0000000+00:00</time></trkpt><trkpt lat="39.24212974" lon="-0.31587529"><ele>29.0</ele><time>2022-10-31T14:56:02.0000000+00:00</time></trkpt><trkpt lat="39.24212974" lon="-0.31587529"><ele>29.0</ele><time>2022-10-31T14:56:03.0000000+00:00</time></trkpt><trkpt lat="39.24212974" lon="-0.31587529"><ele>29.0</ele><time>2022-10-31T14:56:04.0000000+00:00</time></trkpt><trkpt lat="39.24212974" lon="-0.31587529"><ele>29.0</ele><time>2022-10-31T14:56:05.0000000+00:00</time></trkpt><trkpt lat="39.24212974" lon="-0.31587529"><ele>29.0</ele><time>2022-10-31T14:56:06.0000000+00:00</time></trkpt><trkpt lat="39.24212974" lon="-0.31587529"><ele>29.0</ele><time>2022-10-31T14:56:07.0000000+00:00</time></trkpt><trkpt lat="39.24212974" lon="-0.31587529"><ele>29.0</ele><time>2022-10-31T14:56:08.0000000+00:00</time></trkpt><trkpt lat="39.24212974" lon="-0.31587529"><ele>29.0</ele><time>2022-10-31T14:56:09.0000000+00:00</time></trkpt><trkpt lat="39.24212974" lon="-0.31587529"><ele>29.0</ele><time>2022-10-31T14:56:10.0000000+00:00</time></trkpt><trkpt lat="39.24212974" lon="-0.31587529"><ele>29.0</ele><time>2022-10-31T14:56:11.0000000+00:00</time></trkpt><trkpt lat="39.24212974" lon="-0.31587529"><ele>29.0</ele><time>2022-10-31T14:56:12.0000000+00:00</time></trkpt><trkpt lat="39.24212974" lon="-0.31587529"><ele>29.0</ele><time>2022-10-31T14:56:13.0000000+00:00</time></trkpt><trkpt lat="39.24212974" lon="-0.31587529"><ele>29.0</ele><time>2022-10-31T14:56:14.0000000+00:00</time></trkpt><trkpt lat="39.24212974" lon="-0.31587529"><ele>29.0</ele><time>2022-10-31T14:56:15.0000000+00:00</time></trkpt><trkpt lat="39.24212974" lon="-0.31587529"><ele>29.0</ele><time>2022-10-31T14:56:16.0000000+00:00</time></trkpt><trkpt lat="39.24212974" lon="-0.31587529"><ele>29.0</ele><time>2022-10-31T14:56:17.0000000+00:00</time></trkpt><trkpt lat="39.24212974" lon="-0.31587529"><ele>29.0</ele><time>2022-10-31T14:56:18.0000000+00:00</time></trkpt><trkpt lat="39.24212974" lon="-0.31587529"><ele>29.0</ele><time>2022-10-31T14:56:19.0000000+00:00</time></trkpt><trkpt lat="39.24212974" lon="-0.31587529"><ele>29.0</ele><time>2022-10-31T14:56:20.0000000+00:00</time></trkpt><trkpt lat="39.24212974" lon="-0.31587529"><ele>29.0</ele><time>2022-10-31T14:56:21.0000000+00:00</time></trkpt><trkpt lat="39.24212974" lon="-0.31587529"><ele>29.0</ele><time>2022-10-31T14:56:22.0000000+00:00</time></trkpt><trkpt lat="39.24212974" lon="-0.31587529"><ele>29.0</ele><time>2022-10-31T14:56:23.0000000+00:00</time></trkpt><trkpt lat="39.24212974" lon="-0.31587529"><ele>29.0</ele><time>2022-10-31T14:56:24.0000000+00:00</time></trkpt><trkpt lat="39.24212974" lon="-0.31587529"><ele>29.0</ele><time>2022-10-31T14:56:25.0000000+00:00</time></trkpt><trkpt lat="39.24212974" lon="-0.31587529"><ele>29.0</ele><time>2022-10-31T14:56:26.0000000+00:00</time></trkpt><trkpt lat="39.24212974" lon="-0.31587529"><ele>29.0</ele><time>2022-10-31T14:56:27.0000000+00:00</time></trkpt><trkpt lat="39.24212974" lon="-0.31587529"><ele>29.0</ele><time>2022-10-31T14:56:28.0000000+00:00</time></trkpt><trkpt lat="39.24212974" lon="-0.31587529"><ele>29.0</ele><time>2022-10-31T14:56:29.0000000+00:00</time></trkpt><trkpt lat="39.24212974" lon="-0.31587529"><ele>29.0</ele><time>2022-10-31T14:56:30.0000000+00:00</time></trkpt><trkpt lat="39.24212974" lon="-0.31587529"><ele>29.0</ele><time>2022-10-31T14:56:31.0000000+00:00</time></trkpt><trkpt lat="39.24212974" lon="-0.31587529"><ele>29.0</ele><time>2022-10-31T14:56:32.0000000+00:00</time></trkpt><trkpt lat="39.24212974" lon="-0.31587529"><ele>29.0</ele><time>2022-10-31T14:56:33.0000000+00:00</time></trkpt><trkpt lat="39.24212974" lon="-0.31587529"><ele>29.0</ele><time>2022-10-31T14:56:34.0000000+00:00</time></trkpt><trkpt lat="39.24212974" lon="-0.31587529"><ele>29.0</ele><time>2022-10-31T14:56:35.0000000+00:00</time></trkpt><trkpt lat="39.24212974" lon="-0.31587529"><ele>29.0</ele><time>2022-10-31T14:56:36.0000000+00:00</time></trkpt><trkpt lat="39.24212974" lon="-0.31587529"><ele>29.0</ele><time>2022-10-31T14:56:37.0000000+00:00</time></trkpt><trkpt lat="39.24212974" lon="-0.31587529"><ele>29.0</ele><time>2022-10-31T14:56:38.0000000+00:00</time></trkpt><trkpt lat="39.24212974" lon="-0.31587529"><ele>29.0</ele><time>2022-10-31T14:56:39.0000000+00:00</time></trkpt><trkpt lat="39.24212974" lon="-0.31587529"><ele>29.0</ele><time>2022-10-31T14:56:40.0000000+00:00</time></trkpt><trkpt lat="39.24212974" lon="-0.31587529"><ele>29.0</ele><time>2022-10-31T14:56:41.0000000+00:00</time></trkpt><trkpt lat="39.24212974" lon="-0.31587529"><ele>29.0</ele><time>2022-10-31T14:56:42.0000000+00:00</time></trkpt><trkpt lat="39.24212974" lon="-0.31587529"><ele>29.0</ele><time>2022-10-31T14:56:43.0000000+00:00</time></trkpt><trkpt lat="39.24212974" lon="-0.31587529"><ele>29.0</ele><time>2022-10-31T14:56:44.0000000+00:00</time></trkpt><trkpt lat="39.24212974" lon="-0.31587529"><ele>29.0</ele><time>2022-10-31T14:56:45.0000000+00:00</time></trkpt><trkpt lat="39.24212974" lon="-0.31587529"><ele>29.0</ele><time>2022-10-31T14:56:46.0000000+00:00</time></trkpt><trkpt lat="39.24212974" lon="-0.31587529"><ele>29.0</ele><time>2022-10-31T14:56:47.0000000+00:00</time></trkpt><trkpt lat="39.24212974" lon="-0.31587529"><ele>29.0</ele><time>2022-10-31T14:56:48.0000000+00:00</time></trkpt><trkpt lat="39.24212974" lon="-0.31587529"><ele>29.0</ele><time>2022-10-31T14:56:49.0000000+00:00</time></trkpt><trkpt lat="39.24212974" lon="-0.31587529"><ele>29.0</ele><time>2022-10-31T14:56:50.0000000+00:00</time></trkpt><trkpt lat="39.24212974" lon="-0.31587529"><ele>29.0</ele><time>2022-10-31T14:56:51.0000000+00:00</time></trkpt><trkpt lat="39.24212974" lon="-0.31587529"><ele>29.0</ele><time>2022-10-31T14:56:52.0000000+00:00</time></trkpt><trkpt lat="39.24212974" lon="-0.31587529"><ele>29.0</ele><time>2022-10-31T14:56:53.0000000+00:00</time></trkpt><trkpt lat="39.24212974" lon="-0.31587529"><ele>29.0</ele><time>2022-10-31T14:56:54.0000000+00:00</time></trkpt><trkpt lat="39.24212974" lon="-0.31587529"><ele>29.0</ele><time>2022-10-31T14:56:55.0000000+00:00</time></trkpt><trkpt lat="39.24212974" lon="-0.31587529"><ele>29.0</ele><time>2022-10-31T14:56:56.0000000+00:00</time></trkpt><trkpt lat="39.24212974" lon="-0.31587529"><ele>29.0</ele><time>2022-10-31T14:56:57.0000000+00:00</time></trkpt><trkpt lat="39.24212974" lon="-0.31587529"><ele>29.0</ele><time>2022-10-31T14:56:58.0000000+00:00</time></trkpt><trkpt lat="39.24212974" lon="-0.31587529"><ele>29.0</ele><time>2022-10-31T14:56:59.0000000+00:00</time></trkpt><trkpt lat="39.24212974" lon="-0.31587529"><ele>29.0</ele><time>2022-10-31T14:57:00.0000000+00:00</time></trkpt><trkpt lat="39.24212974" lon="-0.31587529"><ele>29.0</ele><time>2022-10-31T14:57:01.0000000+00:00</time></trkpt><trkpt lat="39.24212974" lon="-0.31587529"><ele>29.0</ele><time>2022-10-31T14:57:02.0000000+00:00</time></trkpt><trkpt lat="39.24212974" lon="-0.31587529"><ele>29.0</ele><time>2022-10-31T14:57:03.0000000+00:00</time></trkpt><trkpt lat="39.24212974" lon="-0.31587529"><ele>29.0</ele><time>2022-10-31T14:57:04.0000000+00:00</time></trkpt><trkpt lat="39.24212974" lon="-0.31587529"><ele>29.0</ele><time>2022-10-31T14:57:05.0000000+00:00</time></trkpt><trkpt lat="39.24212974" lon="-0.31587529"><ele>29.0</ele><time>2022-10-31T14:57:06.0000000+00:00</time></trkpt><trkpt lat="39.24212974" lon="-0.31587529"><ele>29.0</ele><time>2022-10-31T14:57:07.0000000+00:00</time></trkpt><trkpt lat="39.24212974" lon="-0.31587529"><ele>29.0</ele><time>2022-10-31T14:57:08.0000000+00:00</time></trkpt><trkpt lat="39.24212974" lon="-0.31587529"><ele>29.0</ele><time>2022-10-31T14:57:09.0000000+00:00</time></trkpt><trkpt lat="39.24212974" lon="-0.31587529"><ele>29.0</ele><time>2022-10-31T14:57:10.0000000+00:00</time></trkpt><trkpt lat="39.24212974" lon="-0.31587529"><ele>29.0</ele><time>2022-10-31T14:57:11.0000000+00:00</time></trkpt><trkpt lat="39.24212974" lon="-0.31587529"><ele>29.0</ele><time>2022-10-31T14:57:12.0000000+00:00</time></trkpt><trkpt lat="39.24212974" lon="-0.31587529"><ele>29.0</ele><time>2022-10-31T14:57:13.0000000+00:00</time></trkpt><trkpt lat="39.24212974" lon="-0.31587529"><ele>29.0</ele><time>2022-10-31T14:57:14.0000000+00:00</time></trkpt><trkpt lat="39.24212974" lon="-0.31587529"><ele>29.0</ele><time>2022-10-31T14:57:15.0000000+00:00</time></trkpt><trkpt lat="39.24212974" lon="-0.31587529"><ele>29.0</ele><time>2022-10-31T14:57:16.0000000+00:00</time></trkpt><trkpt lat="39.24212974" lon="-0.31587529"><ele>29.0</ele><time>2022-10-31T14:57:17.0000000+00:00</time></trkpt><trkpt lat="39.24212974" lon="-0.31587529"><ele>29.0</ele><time>2022-10-31T14:57:18.0000000+00:00</time></trkpt><trkpt lat="39.24212974" lon="-0.31587529"><ele>29.0</ele><time>2022-10-31T14:57:19.0000000+00:00</time></trkpt><trkpt lat="39.24212974" lon="-0.31587529"><ele>29.0</ele><time>2022-10-31T14:57:20.0000000+00:00</time></trkpt><trkpt lat="39.24212974" lon="-0.31587529"><ele>29.0</ele><time>2022-10-31T14:57:21.0000000+00:00</time></trkpt><trkpt lat="39.24212974" lon="-0.31587529"><ele>29.0</ele><time>2022-10-31T14:57:22.0000000+00:00</time></trkpt><trkpt lat="39.24212974" lon="-0.31587529"><ele>29.0</ele><time>2022-10-31T14:57:23.0000000+00:00</time></trkpt><trkpt lat="39.24212974" lon="-0.31587529"><ele>29.0</ele><time>2022-10-31T14:57:24.0000000+00:00</time></trkpt><trkpt lat="39.24212974" lon="-0.31587529"><ele>29.0</ele><time>2022-10-31T14:57:25.0000000+00:00</time></trkpt><trkpt lat="39.24212974" lon="-0.31587529"><ele>29.0</ele><time>2022-10-31T14:57:26.0000000+00:00</time></trkpt><trkpt lat="39.24212974" lon="-0.31587529"><ele>29.0</ele><time>2022-10-31T14:57:27.0000000+00:00</time></trkpt><trkpt lat="39.24212974" lon="-0.31587529"><ele>29.0</ele><time>2022-10-31T14:57:28.0000000+00:00</time></trkpt><trkpt lat="39.24212974" lon="-0.31587529"><ele>29.0</ele><time>2022-10-31T14:57:29.0000000+00:00</time></trkpt><trkpt lat="39.24212974" lon="-0.31587529"><ele>29.0</ele><time>2022-10-31T14:57:30.0000000+00:00</time></trkpt><trkpt lat="39.24212974" lon="-0.31587529"><ele>29.0</ele><time>2022-10-31T14:57:31.0000000+00:00</time></trkpt><trkpt lat="39.24212974" lon="-0.31587529"><ele>29.0</ele><time>2022-10-31T14:57:32.0000000+00:00</time></trkpt><trkpt lat="39.24212974" lon="-0.31587529"><ele>29.0</ele><time>2022-10-31T14:57:33.0000000+00:00</time></trkpt><trkpt lat="39.24212974" lon="-0.31587529"><ele>29.0</ele><time>2022-10-31T14:57:34.0000000+00:00</time></trkpt><trkpt lat="39.24212974" lon="-0.31587529"><ele>29.0</ele><time>2022-10-31T14:57:35.0000000+00:00</time></trkpt><trkpt lat="39.24212974" lon="-0.31587529"><ele>29.0</ele><time>2022-10-31T14:57:36.0000000+00:00</time></trkpt><trkpt lat="39.24212974" lon="-0.31587529"><ele>29.0</ele><time>2022-10-31T14:57:37.0000000+00:00</time></trkpt><trkpt lat="39.24212974" lon="-0.31587529"><ele>29.0</ele><time>2022-10-31T14:57:38.0000000+00:00</time></trkpt><trkpt lat="39.24212974" lon="-0.31587529"><ele>29.0</ele><time>2022-10-31T14:57:39.0000000+00:00</time></trkpt><trkpt lat="39.24212974" lon="-0.31587529"><ele>29.0</ele><time>2022-10-31T14:57:40.0000000+00:00</time></trkpt><trkpt lat="39.24212974" lon="-0.31587529"><ele>29.0</ele><time>2022-10-31T14:57:41.0000000+00:00</time></trkpt><trkpt lat="39.24212974" lon="-0.31587529"><ele>29.0</ele><time>2022-10-31T14:57:42.0000000+00:00</time></trkpt><trkpt lat="39.24212974" lon="-0.31587529"><ele>29.0</ele><time>2022-10-31T14:57:43.0000000+00:00</time></trkpt><trkpt lat="39.24212974" lon="-0.31587529"><ele>29.0</ele><time>2022-10-31T14:57:44.0000000+00:00</time></trkpt><trkpt lat="39.24212974" lon="-0.31587529"><ele>29.0</ele><time>2022-10-31T14:57:45.0000000+00:00</time></trkpt><trkpt lat="39.24212974" lon="-0.31587529"><ele>29.0</ele><time>2022-10-31T14:57:46.0000000+00:00</time></trkpt><trkpt lat="39.24212974" lon="-0.31587529"><ele>29.0</ele><time>2022-10-31T14:57:47.0000000+00:00</time></trkpt><trkpt lat="39.24212974" lon="-0.31587529"><ele>29.0</ele><time>2022-10-31T14:57:48.0000000+00:00</time></trkpt><trkpt lat="39.24212865" lon="-0.31587546"><ele>29.0</ele><time>2022-10-31T14:57:49.0000000+00:00</time></trkpt><trkpt lat="39.24212362" lon="-0.31588074"><ele>29.0</ele><time>2022-10-31T14:57:50.0000000+00:00</time></trkpt><trkpt lat="39.24211708" lon="-0.31589038"><ele>29.0</ele><time>2022-10-31T14:57:51.0000000+00:00</time></trkpt><trkpt lat="39.24211666" lon="-0.31589625"><ele>29.0</ele><time>2022-10-31T14:57:52.0000000+00:00</time></trkpt><trkpt lat="39.24211666" lon="-0.31589625"><ele>29.0</ele><time>2022-10-31T14:57:53.0000000+00:00</time></trkpt><trkpt lat="39.24211666" lon="-0.31589625"><ele>29.0</ele><time>2022-10-31T14:57:54.0000000+00:00</time></trkpt><trkpt lat="39.24211733" lon="-0.31589792"><ele>29.0</ele><time>2022-10-31T14:57:55.0000000+00:00</time></trkpt><trkpt lat="39.24211926" lon="-0.31590605"><ele>29.0</ele><time>2022-10-31T14:57:56.0000000+00:00</time></trkpt><trkpt lat="39.24212286" lon="-0.31591469"><ele>29.0</ele><time>2022-10-31T14:57:57.0000000+00:00</time></trkpt><trkpt lat="39.2421242" lon="-0.31591636"><ele>29.0</ele><time>2022-10-31T14:57:58.0000000+00:00</time></trkpt><trkpt lat="39.2421242" lon="-0.31591636"><ele>29.0</ele><time>2022-10-31T14:57:59.0000000+00:00</time></trkpt><trkpt lat="39.2421242" lon="-0.31591636"><ele>29.0</ele><time>2022-10-31T14:58:00.0000000+00:00</time></trkpt><trkpt lat="39.2421242" lon="-0.31591636"><ele>29.0</ele><time>2022-10-31T14:58:01.0000000+00:00</time></trkpt><trkpt lat="39.2421242" lon="-0.31591636"><ele>29.0</ele><time>2022-10-31T14:58:02.0000000+00:00</time></trkpt><trkpt lat="39.2421242" lon="-0.31591636"><ele>29.0</ele><time>2022-10-31T14:58:03.0000000+00:00</time></trkpt><trkpt lat="39.2421242" lon="-0.31591636"><ele>29.0</ele><time>2022-10-31T14:58:04.0000000+00:00</time></trkpt><trkpt lat="39.2421242" lon="-0.31591636"><ele>29.0</ele><time>2022-10-31T14:58:05.0000000+00:00</time></trkpt><trkpt lat="39.2421242" lon="-0.31591636"><ele>29.0</ele><time>2022-10-31T14:58:06.0000000+00:00</time></trkpt><trkpt lat="39.2421242" lon="-0.31591636"><ele>29.0</ele><time>2022-10-31T14:58:07.0000000+00:00</time></trkpt><trkpt lat="39.2421242" lon="-0.31591636"><ele>29.0</ele><time>2022-10-31T14:58:08.0000000+00:00</time></trkpt><trkpt lat="39.2421242" lon="-0.31591636"><ele>29.0</ele><time>2022-10-31T14:58:09.0000000+00:00</time></trkpt><trkpt lat="39.2421242" lon="-0.31591636"><ele>29.0</ele><time>2022-10-31T14:58:10.0000000+00:00</time></trkpt><trkpt lat="39.2421242" lon="-0.31591636"><ele>29.0</ele><time>2022-10-31T14:58:11.0000000+00:00</time></trkpt><trkpt lat="39.24212244" lon="-0.31591728"><ele>29.0</ele><time>2022-10-31T14:58:12.0000000+00:00</time></trkpt><trkpt lat="39.2421227" lon="-0.31591376"><ele>29.0</ele><time>2022-10-31T14:58:13.0000000+00:00</time></trkpt><trkpt lat="39.2421227" lon="-0.31591376"><ele>29.0</ele><time>2022-10-31T14:58:14.0000000+00:00</time></trkpt><trkpt lat="39.2421227" lon="-0.31591376"><ele>29.0</ele><time>2022-10-31T14:58:15.0000000+00:00</time></trkpt><trkpt lat="39.2421227" lon="-0.31591376"><ele>29.0</ele><time>2022-10-31T14:58:16.0000000+00:00</time></trkpt><trkpt lat="39.2421227" lon="-0.31591376"><ele>29.0</ele><time>2022-10-31T14:58:17.0000000+00:00</time></trkpt><trkpt lat="39.2421227" lon="-0.31591376"><ele>29.0</ele><time>2022-10-31T14:58:18.0000000+00:00</time></trkpt><trkpt lat="39.2421227" lon="-0.31591376"><ele>29.0</ele><time>2022-10-31T14:58:19.0000000+00:00</time></trkpt><trkpt lat="39.2421227" lon="-0.31591376"><ele>29.0</ele><time>2022-10-31T14:58:20.0000000+00:00</time></trkpt><trkpt lat="39.2421227" lon="-0.31591376"><ele>29.0</ele><time>2022-10-31T14:58:21.0000000+00:00</time></trkpt><trkpt lat="39.2421227" lon="-0.31591376"><ele>29.0</ele><time>2022-10-31T14:58:22.0000000+00:00</time></trkpt><trkpt lat="39.2421227" lon="-0.31591376"><ele>29.0</ele><time>2022-10-31T14:58:23.0000000+00:00</time></trkpt><trkpt lat="39.2421227" lon="-0.31591376"><ele>29.0</ele><time>2022-10-31T14:58:24.0000000+00:00</time></trkpt><trkpt lat="39.2421227" lon="-0.31591376"><ele>29.0</ele><time>2022-10-31T14:58:25.0000000+00:00</time></trkpt><trkpt lat="39.2421227" lon="-0.31591376"><ele>29.0</ele><time>2022-10-31T14:58:26.0000000+00:00</time></trkpt><trkpt lat="39.2421227" lon="-0.31591376"><ele>29.0</ele><time>2022-10-31T14:58:27.0000000+00:00</time></trkpt><trkpt lat="39.2421227" lon="-0.31591376"><ele>29.0</ele><time>2022-10-31T14:58:28.0000000+00:00</time></trkpt><trkpt lat="39.24212303" lon="-0.31591695"><ele>29.0</ele><time>2022-10-31T14:58:29.0000000+00:00</time></trkpt><trkpt lat="39.24212052" lon="-0.31591795"><ele>29.0</ele><time>2022-10-31T14:58:30.0000000+00:00</time></trkpt><trkpt lat="39.24212052" lon="-0.31591795"><ele>29.0</ele><time>2022-10-31T14:58:31.0000000+00:00</time></trkpt><trkpt lat="39.24212052" lon="-0.31591795"><ele>29.0</ele><time>2022-10-31T14:58:32.0000000+00:00</time></trkpt><trkpt lat="39.24212052" lon="-0.31591795"><ele>29.0</ele><time>2022-10-31T14:58:33.0000000+00:00</time></trkpt><trkpt lat="39.24212052" lon="-0.31591795"><ele>29.0</ele><time>2022-10-31T14:58:34.0000000+00:00</time></trkpt><trkpt lat="39.24212052" lon="-0.31591795"><ele>29.0</ele><time>2022-10-31T14:58:35.0000000+00:00</time></trkpt><trkpt lat="39.24212052" lon="-0.31591795"><ele>29.0</ele><time>2022-10-31T14:58:36.0000000+00:00</time></trkpt><trkpt lat="39.24212052" lon="-0.31591795"><ele>29.0</ele><time>2022-10-31T14:58:37.0000000+00:00</time></trkpt><trkpt lat="39.24212052" lon="-0.31591795"><ele>29.0</ele><time>2022-10-31T14:58:38.0000000+00:00</time></trkpt><trkpt lat="39.24212052" lon="-0.31591795"><ele>29.0</ele><time>2022-10-31T14:58:39.0000000+00:00</time></trkpt><trkpt lat="39.24212052" lon="-0.31591795"><ele>29.0</ele><time>2022-10-31T14:58:40.0000000+00:00</time></trkpt><trkpt lat="39.24212052" lon="-0.31591795"><ele>29.0</ele><time>2022-10-31T14:58:41.0000000+00:00</time></trkpt><trkpt lat="39.24212052" lon="-0.31591795"><ele>29.0</ele><time>2022-10-31T14:58:42.0000000+00:00</time></trkpt><trkpt lat="39.24212052" lon="-0.31591795"><ele>29.0</ele><time>2022-10-31T14:58:43.0000000+00:00</time></trkpt><trkpt lat="39.24212052" lon="-0.31591795"><ele>29.0</ele><time>2022-10-31T14:58:44.0000000+00:00</time></trkpt><trkpt lat="39.24212052" lon="-0.31591795"><ele>29.0</ele><time>2022-10-31T14:58:45.0000000+00:00</time></trkpt><trkpt lat="39.24212052" lon="-0.31591795"><ele>29.0</ele><time>2022-10-31T14:58:46.0000000+00:00</time></trkpt><trkpt lat="39.24212052" lon="-0.31591795"><ele>29.0</ele><time>2022-10-31T14:58:47.0000000+00:00</time></trkpt><trkpt lat="39.24212052" lon="-0.31591795"><ele>29.0</ele><time>2022-10-31T14:58:48.0000000+00:00</time></trkpt><trkpt lat="39.24212052" lon="-0.31591795"><ele>29.0</ele><time>2022-10-31T14:58:49.0000000+00:00</time></trkpt><trkpt lat="39.24212052" lon="-0.31591795"><ele>29.0</ele><time>2022-10-31T14:58:50.0000000+00:00</time></trkpt><trkpt lat="39.24212052" lon="-0.31591795"><ele>29.0</ele><time>2022-10-31T14:58:51.0000000+00:00</time></trkpt><trkpt lat="39.24212052" lon="-0.31591795"><ele>29.0</ele><time>2022-10-31T14:58:52.0000000+00:00</time></trkpt><trkpt lat="39.24211825" lon="-0.3159167"><ele>29.0</ele><time>2022-10-31T14:58:53.0000000+00:00</time></trkpt><trkpt lat="39.24211607" lon="-0.31591527"><ele>29.0</ele><time>2022-10-31T14:58:54.0000000+00:00</time></trkpt><trkpt lat="39.24211607" lon="-0.31591527"><ele>29.0</ele><time>2022-10-31T14:58:55.0000000+00:00</time></trkpt><trkpt lat="39.24211213" lon="-0.31591645"><ele>29.0</ele><time>2022-10-31T14:58:56.0000000+00:00</time></trkpt><trkpt lat="39.2421097" lon="-0.31591536"><ele>29.0</ele><time>2022-10-31T14:58:57.0000000+00:00</time></trkpt><trkpt lat="39.2421097" lon="-0.31591536"><ele>29.0</ele><time>2022-10-31T14:58:58.0000000+00:00</time></trkpt><trkpt lat="39.2421097" lon="-0.31591536"><ele>29.0</ele><time>2022-10-31T14:58:59.0000000+00:00</time></trkpt><trkpt lat="39.2421097" lon="-0.31591536"><ele>29.0</ele><time>2022-10-31T14:59:00.0000000+00:00</time></trkpt><trkpt lat="39.2421097" lon="-0.31591536"><ele>29.0</ele><time>2022-10-31T14:59:01.0000000+00:00</time></trkpt><trkpt lat="39.24211096" lon="-0.31591435"><ele>29.0</ele><time>2022-10-31T14:59:02.0000000+00:00</time></trkpt><trkpt lat="39.2421123" lon="-0.31591762"><ele>29.0</ele><time>2022-10-31T14:59:03.0000000+00:00</time></trkpt><trkpt lat="39.24211096" lon="-0.31591971"><ele>29.0</ele><time>2022-10-31T14:59:04.0000000+00:00</time></trkpt><trkpt lat="39.24211297" lon="-0.31592382"><ele>29.0</ele><time>2022-10-31T14:59:05.0000000+00:00</time></trkpt><trkpt lat="39.24211063" lon="-0.315925"><ele>29.0</ele><time>2022-10-31T14:59:06.0000000+00:00</time></trkpt><trkpt lat="39.24210677" lon="-0.31592583"><ele>29.0</ele><time>2022-10-31T14:59:07.0000000+00:00</time></trkpt><trkpt lat="39.24210141" lon="-0.31592659"><ele>29.0</ele><time>2022-10-31T14:59:08.0000000+00:00</time></trkpt><trkpt lat="39.24209931" lon="-0.3159286"><ele>29.0</ele><time>2022-10-31T14:59:09.0000000+00:00</time></trkpt><trkpt lat="39.24209931" lon="-0.3159286"><ele>29.0</ele><time>2022-10-31T14:59:10.0000000+00:00</time></trkpt><trkpt lat="39.24209931" lon="-0.3159286"><ele>29.0</ele><time>2022-10-31T14:59:11.0000000+00:00</time></trkpt><trkpt lat="39.24209688" lon="-0.31593095"><ele>29.0</ele><time>2022-10-31T14:59:12.0000000+00:00</time></trkpt><trkpt lat="39.24209428" lon="-0.31593975"><ele>29.0</ele><time>2022-10-31T14:59:13.0000000+00:00</time></trkpt><trkpt lat="39.24209168" lon="-0.31594771"><ele>29.0</ele><time>2022-10-31T14:59:14.0000000+00:00</time></trkpt><trkpt lat="39.24208975" lon="-0.31595634"><ele>29.0</ele><time>2022-10-31T14:59:15.0000000+00:00</time></trkpt><trkpt lat="39.24208439" lon="-0.3159664"><ele>29.0</ele><time>2022-10-31T14:59:16.0000000+00:00</time></trkpt><trkpt lat="39.24207877" lon="-0.31597545"><ele>29.0</ele><time>2022-10-31T14:59:17.0000000+00:00</time></trkpt><trkpt lat="39.24207341" lon="-0.31598702"><ele>29.0</ele><time>2022-10-31T14:59:18.0000000+00:00</time></trkpt><trkpt lat="39.24206855" lon="-0.31599708"><ele>29.0</ele><time>2022-10-31T14:59:19.0000000+00:00</time></trkpt><trkpt lat="39.24206436" lon="-0.31600437"><ele>29.0</ele><time>2022-10-31T14:59:20.0000000+00:00</time></trkpt><trkpt lat="39.24206318" lon="-0.31600881"><ele>29.0</ele><time>2022-10-31T14:59:21.0000000+00:00</time></trkpt><trkpt lat="39.24205639" lon="-0.31601108"><ele>27.6</ele><time>2022-10-31T14:59:22.0000000+00:00</time></trkpt><trkpt lat="39.24204508" lon="-0.31601669"><ele>27.0</ele><time>2022-10-31T14:59:23.0000000+00:00</time></trkpt><trkpt lat="39.24204231" lon="-0.31602449"><ele>26.2</ele><time>2022-10-31T14:59:24.0000000+00:00</time></trkpt><trkpt lat="39.24204357" lon="-0.31602969"><ele>25.8</ele><time>2022-10-31T14:59:25.0000000+00:00</time></trkpt><trkpt lat="39.24204357" lon="-0.31602969"><ele>25.4</ele><time>2022-10-31T14:59:26.0000000+00:00</time></trkpt><trkpt lat="39.24204215" lon="-0.31603765"><ele>25.0</ele><time>2022-10-31T14:59:27.0000000+00:00</time></trkpt><trkpt lat="39.24203963" lon="-0.31604452"><ele>24.8</ele><time>2022-10-31T14:59:28.0000000+00:00</time></trkpt><trkpt lat="39.24203854" lon="-0.31605139"><ele>24.6</ele><time>2022-10-31T14:59:29.0000000+00:00</time></trkpt><trkpt lat="39.24203586" lon="-0.31605248"><ele>24.4</ele><time>2022-10-31T14:59:30.0000000+00:00</time></trkpt><trkpt lat="39.24203108" lon="-0.3160586"><ele>24.0</ele><time>2022-10-31T14:59:31.0000000+00:00</time></trkpt><trkpt lat="39.24202706" lon="-0.31607034"><ele>23.8</ele><time>2022-10-31T14:59:32.0000000+00:00</time></trkpt><trkpt lat="39.24202463" lon="-0.31608333"><ele>23.6</ele><time>2022-10-31T14:59:33.0000000+00:00</time></trkpt><trkpt lat="39.24202379" lon="-0.31608844"><ele>23.6</ele><time>2022-10-31T14:59:34.0000000+00:00</time></trkpt><trkpt lat="39.24202379" lon="-0.31608844"><ele>23.6</ele><time>2022-10-31T14:59:35.0000000+00:00</time></trkpt><trkpt lat="39.24202236" lon="-0.31609339"><ele>23.6</ele><time>2022-10-31T14:59:36.0000000+00:00</time></trkpt><trkpt lat="39.24202044" lon="-0.31610236"><ele>23.2</ele><time>2022-10-31T14:59:37.0000000+00:00</time></trkpt><trkpt lat="39.24201725" lon="-0.3161125"><ele>23.0</ele><time>2022-10-31T14:59:38.0000000+00:00</time></trkpt><trkpt lat="39.24201549" lon="-0.3161161"><ele>22.8</ele><time>2022-10-31T14:59:39.0000000+00:00</time></trkpt><trkpt lat="39.24201549" lon="-0.3161161"><ele>22.4</ele><time>2022-10-31T14:59:40.0000000+00:00</time></trkpt><trkpt lat="39.24201448" lon="-0.31611937"><ele>22.2</ele><time>2022-10-31T14:59:41.0000000+00:00</time></trkpt><trkpt lat="39.24201306" lon="-0.31612356"><ele>21.8</ele><time>2022-10-31T14:59:42.0000000+00:00</time></trkpt><trkpt lat="39.24201306" lon="-0.31612356"><ele>21.6</ele><time>2022-10-31T14:59:43.0000000+00:00</time></trkpt><trkpt lat="39.24201306" lon="-0.31612356"><ele>21.4</ele><time>2022-10-31T14:59:44.0000000+00:00</time></trkpt><trkpt lat="39.24201189" lon="-0.31612909"><ele>21.2</ele><time>2022-10-31T14:59:45.0000000+00:00</time></trkpt><trkpt lat="39.24200979" lon="-0.31614259"><ele>21.2</ele><time>2022-10-31T14:59:46.0000000+00:00</time></trkpt><trkpt lat="39.24200895" lon="-0.31615659"><ele>21.0</ele><time>2022-10-31T14:59:47.0000000+00:00</time></trkpt><trkpt lat="39.24200962" lon="-0.3161612"><ele>21.0</ele><time>2022-10-31T14:59:48.0000000+00:00</time></trkpt><trkpt lat="39.24200962" lon="-0.3161612"><ele>21.0</ele><time>2022-10-31T14:59:49.0000000+00:00</time></trkpt><trkpt lat="39.24200962" lon="-0.3161612"><ele>20.8</ele><time>2022-10-31T14:59:50.0000000+00:00</time></trkpt><trkpt lat="39.24200962" lon="-0.3161612"><ele>20.8</ele><time>2022-10-31T14:59:51.0000000+00:00</time></trkpt><trkpt lat="39.24200962" lon="-0.3161612"><ele>20.8</ele><time>2022-10-31T14:59:52.0000000+00:00</time></trkpt><trkpt lat="39.24200493" lon="-0.31617578"><ele>20.8</ele><time>2022-10-31T14:59:53.0000000+00:00</time></trkpt><trkpt lat="39.24200418" lon="-0.3161902"><ele>20.8</ele><time>2022-10-31T14:59:54.0000000+00:00</time></trkpt><trkpt lat="39.24200468" lon="-0.31619238"><ele>20.8</ele><time>2022-10-31T14:59:55.0000000+00:00</time></trkpt><trkpt lat="39.24200468" lon="-0.31619238"><ele>20.8</ele><time>2022-10-31T14:59:56.0000000+00:00</time></trkpt><trkpt lat="39.24200468" lon="-0.31619238"><ele>20.8</ele><time>2022-10-31T14:59:57.0000000+00:00</time></trkpt><trkpt lat="39.24200468" lon="-0.31619238"><ele>20.8</ele><time>2022-10-31T14:59:58.0000000+00:00</time></trkpt><trkpt lat="39.24200468" lon="-0.31619238"><ele>20.8</ele><time>2022-10-31T14:59:59.0000000+00:00</time></trkpt><trkpt lat="39.24200468" lon="-0.31619238"><ele>20.8</ele><time>2022-10-31T15:00:00.0000000+00:00</time></trkpt><trkpt lat="39.24200468" lon="-0.31619238"><ele>20.8</ele><time>2022-10-31T15:00:01.0000000+00:00</time></trkpt><trkpt lat="39.24200468" lon="-0.31619238"><ele>20.6</ele><time>2022-10-31T15:00:02.0000000+00:00</time></trkpt><trkpt lat="39.24200468" lon="-0.31619238"><ele>20.6</ele><time>2022-10-31T15:00:03.0000000+00:00</time></trkpt><trkpt lat="39.24200468" lon="-0.31619238"><ele>20.6</ele><time>2022-10-31T15:00:04.0000000+00:00</time></trkpt><trkpt lat="39.24200468" lon="-0.31619238"><ele>20.6</ele><time>2022-10-31T15:00:05.0000000+00:00</time></trkpt><trkpt lat="39.24200468" lon="-0.31619238"><ele>20.6</ele><time>2022-10-31T15:00:06.0000000+00:00</time></trkpt><trkpt lat="39.24200468" lon="-0.31619238"><ele>20.6</ele><time>2022-10-31T15:00:07.0000000+00:00</time></trkpt><trkpt lat="39.24200468" lon="-0.31619238"><ele>20.8</ele><time>2022-10-31T15:00:08.0000000+00:00</time></trkpt><trkpt lat="39.24200468" lon="-0.31619238"><ele>20.8</ele><time>2022-10-31T15:00:09.0000000+00:00</time></trkpt><trkpt lat="39.24200468" lon="-0.31619238"><ele>20.8</ele><time>2022-10-31T15:00:10.0000000+00:00</time></trkpt><trkpt lat="39.24200468" lon="-0.31619238"><ele>20.8</ele><time>2022-10-31T15:00:11.0000000+00:00</time></trkpt><trkpt lat="39.24200468" lon="-0.31619238"><ele>21.0</ele><time>2022-10-31T15:00:12.0000000+00:00</time></trkpt><trkpt lat="39.24200468" lon="-0.31619238"><ele>21.2</ele><time>2022-10-31T15:00:13.0000000+00:00</time></trkpt><trkpt lat="39.24200468" lon="-0.31619238"><ele>21.4</ele><time>2022-10-31T15:00:14.0000000+00:00</time></trkpt><trkpt lat="39.24200468" lon="-0.31619238"><ele>21.6</ele><time>2022-10-31T15:00:15.0000000+00:00</time></trkpt><trkpt lat="39.24200468" lon="-0.31619238"><ele>21.6</ele><time>2022-10-31T15:00:16.0000000+00:00</time></trkpt><trkpt lat="39.24200468" lon="-0.31619238"><ele>21.6</ele><time>2022-10-31T15:00:17.0000000+00:00</time></trkpt><trkpt lat="39.24200468" lon="-0.31619238"><ele>21.6</ele><time>2022-10-31T15:00:18.0000000+00:00</time></trkpt><trkpt lat="39.24200468" lon="-0.31619238"><ele>21.2</ele><time>2022-10-31T15:00:19.0000000+00:00</time></trkpt><trkpt lat="39.24200468" lon="-0.31619238"><ele>21.0</ele><time>2022-10-31T15:00:20.0000000+00:00</time></trkpt><trkpt lat="39.24200468" lon="-0.31619238"><ele>21.0</ele><time>2022-10-31T15:00:21.0000000+00:00</time></trkpt><trkpt lat="39.24200468" lon="-0.31619238"><ele>20.8</ele><time>2022-10-31T15:00:22.0000000+00:00</time></trkpt><trkpt lat="39.24200468" lon="-0.31619238"><ele>20.8</ele><time>2022-10-31T15:00:23.0000000+00:00</time></trkpt><trkpt lat="39.24200468" lon="-0.31619238"><ele>20.8</ele><time>2022-10-31T15:00:24.0000000+00:00</time></trkpt><trkpt lat="39.24200468" lon="-0.31619238"><ele>20.8</ele><time>2022-10-31T15:00:25.0000000+00:00</time></trkpt><trkpt lat="39.24200468" lon="-0.31619238"><ele>20.8</ele><time>2022-10-31T15:00:26.0000000+00:00</time></trkpt><trkpt lat="39.24200468" lon="-0.31619238"><ele>20.8</ele><time>2022-10-31T15:00:27.0000000+00:00</time></trkpt><trkpt lat="39.24200468" lon="-0.31619238"><ele>20.8</ele><time>2022-10-31T15:00:28.0000000+00:00</time></trkpt><trkpt lat="39.24200468" lon="-0.31619238"><ele>20.8</ele><time>2022-10-31T15:00:29.0000000+00:00</time></trkpt><trkpt lat="39.24200468" lon="-0.31619238"><ele>20.8</ele><time>2022-10-31T15:00:30.0000000+00:00</time></trkpt><trkpt lat="39.24200468" lon="-0.31619238"><ele>20.8</ele><time>2022-10-31T15:00:31.0000000+00:00</time></trkpt><trkpt lat="39.24200468" lon="-0.31619238"><ele>20.8</ele><time>2022-10-31T15:00:32.0000000+00:00</time></trkpt><trkpt lat="39.24200468" lon="-0.31619238"><ele>20.8</ele><time>2022-10-31T15:00:33.0000000+00:00</time></trkpt><trkpt lat="39.24200468" lon="-0.31619238"><ele>20.8</ele><time>2022-10-31T15:00:34.0000000+00:00</time></trkpt><trkpt lat="39.24200468" lon="-0.31619238"><ele>20.8</ele><time>2022-10-31T15:00:35.0000000+00:00</time></trkpt><trkpt lat="39.24200468" lon="-0.31619238"><ele>20.8</ele><time>2022-10-31T15:00:36.0000000+00:00</time></trkpt><trkpt lat="39.24200468" lon="-0.31619238"><ele>20.8</ele><time>2022-10-31T15:00:37.0000000+00:00</time></trkpt><trkpt lat="39.24200468" lon="-0.31619238"><ele>20.6</ele><time>2022-10-31T15:00:38.0000000+00:00</time></trkpt><trkpt lat="39.24200468" lon="-0.31619238"><ele>20.6</ele><time>2022-10-31T15:00:39.0000000+00:00</time></trkpt><trkpt lat="39.24200468" lon="-0.31619238"><ele>20.6</ele><time>2022-10-31T15:00:40.0000000+00:00</time></trkpt><trkpt lat="39.24200468" lon="-0.31619238"><ele>20.4</ele><time>2022-10-31T15:00:41.0000000+00:00</time></trkpt><trkpt lat="39.24200468" lon="-0.31619238"><ele>20.4</ele><time>2022-10-31T15:00:42.0000000+00:00</time></trkpt><trkpt lat="39.24200468" lon="-0.31619238"><ele>20.4</ele><time>2022-10-31T15:00:43.0000000+00:00</time></trkpt><trkpt lat="39.24200468" lon="-0.31619238"><ele>20.6</ele><time>2022-10-31T15:00:44.0000000+00:00</time></trkpt><trkpt lat="39.24200627" lon="-0.31619489"><ele>20.8</ele><time>2022-10-31T15:00:45.0000000+00:00</time></trkpt><trkpt lat="39.24200937" lon="-0.31619464"><ele>20.8</ele><time>2022-10-31T15:00:46.0000000+00:00</time></trkpt><trkpt lat="39.24200937" lon="-0.31619464"><ele>20.8</ele><time>2022-10-31T15:00:47.0000000+00:00</time></trkpt><trkpt lat="39.24200937" lon="-0.31619464"><ele>21.0</ele><time>2022-10-31T15:00:48.0000000+00:00</time></trkpt><trkpt lat="39.24200954" lon="-0.31619799"><ele>21.0</ele><time>2022-10-31T15:00:49.0000000+00:00</time></trkpt><trkpt lat="39.24200602" lon="-0.31619439"><ele>21.2</ele><time>2022-10-31T15:00:50.0000000+00:00</time></trkpt><trkpt lat="39.24200602" lon="-0.31619439"><ele>21.2</ele><time>2022-10-31T15:00:51.0000000+00:00</time></trkpt><trkpt lat="39.24200602" lon="-0.31619439"><ele>21.0</ele><time>2022-10-31T15:00:52.0000000+00:00</time></trkpt><trkpt lat="39.24200602" lon="-0.31619439"><ele>21.0</ele><time>2022-10-31T15:00:53.0000000+00:00</time></trkpt><trkpt lat="39.24200602" lon="-0.31619439"><ele>21.0</ele><time>2022-10-31T15:00:54.0000000+00:00</time></trkpt><trkpt lat="39.24200602" lon="-0.31619439"><ele>21.2</ele><time>2022-10-31T15:00:55.0000000+00:00</time></trkpt><trkpt lat="39.24200602" lon="-0.31619439"><ele>21.2</ele><time>2022-10-31T15:00:56.0000000+00:00</time></trkpt><trkpt lat="39.24200602" lon="-0.31619439"><ele>21.2</ele><time>2022-10-31T15:00:57.0000000+00:00</time></trkpt><trkpt lat="39.24200443" lon="-0.31619464"><ele>21.2</ele><time>2022-10-31T15:00:58.0000000+00:00</time></trkpt><trkpt lat="39.24200065" lon="-0.31619296"><ele>21.2</ele><time>2022-10-31T15:00:59.0000000+00:00</time></trkpt><trkpt lat="39.24200065" lon="-0.31619296"><ele>21.2</ele><time>2022-10-31T15:01:00.0000000+00:00</time></trkpt><trkpt lat="39.24200065" lon="-0.31619296"><ele>21.2</ele><time>2022-10-31T15:01:01.0000000+00:00</time></trkpt><trkpt lat="39.24200065" lon="-0.31619296"><ele>21.2</ele><time>2022-10-31T15:01:02.0000000+00:00</time></trkpt><trkpt lat="39.24200065" lon="-0.31619296"><ele>21.2</ele><time>2022-10-31T15:01:03.0000000+00:00</time></trkpt><trkpt lat="39.2419999" lon="-0.31619028"><ele>21.2</ele><time>2022-10-31T15:01:04.0000000+00:00</time></trkpt><trkpt lat="39.24199881" lon="-0.31618693"><ele>21.4</ele><time>2022-10-31T15:01:05.0000000+00:00</time></trkpt><trkpt lat="39.24199881" lon="-0.31618693"><ele>21.4</ele><time>2022-10-31T15:01:06.0000000+00:00</time></trkpt><trkpt lat="39.24199881" lon="-0.31618693"><ele>21.4</ele><time>2022-10-31T15:01:07.0000000+00:00</time></trkpt><trkpt lat="39.24199881" lon="-0.31618693"><ele>21.4</ele><time>2022-10-31T15:01:08.0000000+00:00</time></trkpt><trkpt lat="39.24199881" lon="-0.31618693"><ele>21.4</ele><time>2022-10-31T15:01:09.0000000+00:00</time></trkpt><trkpt lat="39.24199881" lon="-0.31618693"><ele>21.4</ele><time>2022-10-31T15:01:10.0000000+00:00</time></trkpt><trkpt lat="39.24199881" lon="-0.31618693"><ele>21.2</ele><time>2022-10-31T15:01:11.0000000+00:00</time></trkpt><trkpt lat="39.24199881" lon="-0.31618693"><ele>21.0</ele><time>2022-10-31T15:01:12.0000000+00:00</time></trkpt><trkpt lat="39.24199881" lon="-0.31618693"><ele>21.0</ele><time>2022-10-31T15:01:13.0000000+00:00</time></trkpt><trkpt lat="39.24199881" lon="-0.31618693"><ele>20.8</ele><time>2022-10-31T15:01:14.0000000+00:00</time></trkpt><trkpt lat="39.24199881" lon="-0.31618693"><ele>20.8</ele><time>2022-10-31T15:01:15.0000000+00:00</time></trkpt><trkpt lat="39.24199881" lon="-0.31618693"><ele>20.8</ele><time>2022-10-31T15:01:16.0000000+00:00</time></trkpt><trkpt lat="39.24199881" lon="-0.31618693"><ele>20.8</ele><time>2022-10-31T15:01:17.0000000+00:00</time></trkpt><trkpt lat="39.24199881" lon="-0.31618693"><ele>20.8</ele><time>2022-10-31T15:01:18.0000000+00:00</time></trkpt><trkpt lat="39.24199881" lon="-0.31618693"><ele>20.8</ele><time>2022-10-31T15:01:19.0000000+00:00</time></trkpt><trkpt lat="39.24199881" lon="-0.31618693"><ele>20.8</ele><time>2022-10-31T15:01:20.0000000+00:00</time></trkpt><trkpt lat="39.24199881" lon="-0.31618693"><ele>20.8</ele><time>2022-10-31T15:01:21.0000000+00:00</time></trkpt><trkpt lat="39.24199881" lon="-0.31618693"><ele>20.8</ele><time>2022-10-31T15:01:22.0000000+00:00</time></trkpt><trkpt lat="39.24199881" lon="-0.31618693"><ele>20.8</ele><time>2022-10-31T15:01:23.0000000+00:00</time></trkpt><trkpt lat="39.24199881" lon="-0.31618693"><ele>20.8</ele><time>2022-10-31T15:01:24.0000000+00:00</time></trkpt><trkpt lat="39.24199881" lon="-0.31618693"><ele>20.8</ele><time>2022-10-31T15:01:25.0000000+00:00</time></trkpt><trkpt lat="39.24199881" lon="-0.31618693"><ele>20.8</ele><time>2022-10-31T15:01:26.0000000+00:00</time></trkpt><trkpt lat="39.24199881" lon="-0.31618693"><ele>20.8</ele><time>2022-10-31T15:01:27.0000000+00:00</time></trkpt><trkpt lat="39.24199881" lon="-0.31618693"><ele>20.8</ele><time>2022-10-31T15:01:28.0000000+00:00</time></trkpt><trkpt lat="39.24199881" lon="-0.31618693"><ele>20.8</ele><time>2022-10-31T15:01:29.0000000+00:00</time></trkpt><trkpt lat="39.24199881" lon="-0.31618693"><ele>20.8</ele><time>2022-10-31T15:01:30.0000000+00:00</time></trkpt><trkpt lat="39.24199881" lon="-0.31618693"><ele>20.8</ele><time>2022-10-31T15:01:31.0000000+00:00</time></trkpt><trkpt lat="39.24199881" lon="-0.31618693"><ele>20.8</ele><time>2022-10-31T15:01:32.0000000+00:00</time></trkpt><trkpt lat="39.24199881" lon="-0.31618693"><ele>20.8</ele><time>2022-10-31T15:01:33.0000000+00:00</time></trkpt><trkpt lat="39.24199881" lon="-0.31618693"><ele>20.8</ele><time>2022-10-31T15:01:34.0000000+00:00</time></trkpt><trkpt lat="39.24199881" lon="-0.31618693"><ele>20.8</ele><time>2022-10-31T15:01:35.0000000+00:00</time></trkpt><trkpt lat="39.24199881" lon="-0.31618693"><ele>20.8</ele><time>2022-10-31T15:01:36.0000000+00:00</time></trkpt><trkpt lat="39.24199881" lon="-0.31618693"><ele>20.8</ele><time>2022-10-31T15:01:37.0000000+00:00</time></trkpt><trkpt lat="39.24199881" lon="-0.31618693"><ele>20.8</ele><time>2022-10-31T15:01:38.0000000+00:00</time></trkpt><trkpt lat="39.24199881" lon="-0.31618693"><ele>20.8</ele><time>2022-10-31T15:01:39.0000000+00:00</time></trkpt><trkpt lat="39.24199881" lon="-0.31618693"><ele>20.8</ele><time>2022-10-31T15:01:40.0000000+00:00</time></trkpt><trkpt lat="39.24199881" lon="-0.31618693"><ele>20.8</ele><time>2022-10-31T15:01:41.0000000+00:00</time></trkpt><trkpt lat="39.24199881" lon="-0.31618693"><ele>20.8</ele><time>2022-10-31T15:01:42.0000000+00:00</time></trkpt><trkpt lat="39.24199881" lon="-0.31618693"><ele>20.8</ele><time>2022-10-31T15:01:43.0000000+00:00</time></trkpt><trkpt lat="39.24199881" lon="-0.31618693"><ele>20.8</ele><time>2022-10-31T15:01:44.0000000+00:00</time></trkpt><trkpt lat="39.24199881" lon="-0.31618693"><ele>20.8</ele><time>2022-10-31T15:01:45.0000000+00:00</time></trkpt><trkpt lat="39.24199881" lon="-0.31618693"><ele>20.8</ele><time>2022-10-31T15:01:46.0000000+00:00</time></trkpt><trkpt lat="39.24199881" lon="-0.31618693"><ele>20.8</ele><time>2022-10-31T15:01:47.0000000+00:00</time></trkpt><trkpt lat="39.24199881" lon="-0.31618693"><ele>20.8</ele><time>2022-10-31T15:01:48.0000000+00:00</time></trkpt><trkpt lat="39.24199881" lon="-0.31618693"><ele>20.8</ele><time>2022-10-31T15:01:49.0000000+00:00</time></trkpt><trkpt lat="39.24199881" lon="-0.31618693"><ele>20.8</ele><time>2022-10-31T15:01:50.0000000+00:00</time></trkpt><trkpt lat="39.24199881" lon="-0.31618693"><ele>20.8</ele><time>2022-10-31T15:01:51.0000000+00:00</time></trkpt><trkpt lat="39.24199881" lon="-0.31618693"><ele>20.8</ele><time>2022-10-31T15:01:52.0000000+00:00</time></trkpt><trkpt lat="39.24199881" lon="-0.31618693"><ele>20.8</ele><time>2022-10-31T15:01:53.0000000+00:00</time></trkpt><trkpt lat="39.24199881" lon="-0.31618693"><ele>20.8</ele><time>2022-10-31T15:01:54.0000000+00:00</time></trkpt><trkpt lat="39.24199881" lon="-0.31618693"><ele>20.8</ele><time>2022-10-31T15:01:55.0000000+00:00</time></trkpt><trkpt lat="39.24199881" lon="-0.31618693"><ele>21.0</ele><time>2022-10-31T15:01:56.0000000+00:00</time></trkpt><trkpt lat="39.24199881" lon="-0.31618693"><ele>21.0</ele><time>2022-10-31T15:01:57.0000000+00:00</time></trkpt><trkpt lat="39.24199881" lon="-0.31618693"><ele>21.2</ele><time>2022-10-31T15:01:58.0000000+00:00</time></trkpt><trkpt lat="39.24199881" lon="-0.31618693"><ele>21.2</ele><time>2022-10-31T15:01:59.0000000+00:00</time></trkpt><trkpt lat="39.24199881" lon="-0.31618693"><ele>21.2</ele><time>2022-10-31T15:02:00.0000000+00:00</time></trkpt><trkpt lat="39.24199881" lon="-0.31618693"><ele>21.2</ele><time>2022-10-31T15:02:01.0000000+00:00</time></trkpt><trkpt lat="39.24199881" lon="-0.31618693"><ele>21.2</ele><time>2022-10-31T15:02:02.0000000+00:00</time></trkpt><trkpt lat="39.24199881" lon="-0.31618693"><ele>21.2</ele><time>2022-10-31T15:02:03.0000000+00:00</time></trkpt><trkpt lat="39.24199881" lon="-0.31618693"><ele>21.2</ele><time>2022-10-31T15:02:04.0000000+00:00</time></trkpt><trkpt lat="39.2419963" lon="-0.31619146"><ele>21.2</ele><time>2022-10-31T15:02:05.0000000+00:00</time></trkpt><trkpt lat="39.24198498" lon="-0.31619179"><ele>21.2</ele><time>2022-10-31T15:02:06.0000000+00:00</time></trkpt><trkpt lat="39.2419683" lon="-0.31619187"><ele>21.2</ele><time>2022-10-31T15:02:07.0000000+00:00</time></trkpt><trkpt lat="39.24194751" lon="-0.31619514"><ele>22.6</ele><time>2022-10-31T15:02:08.0000000+00:00</time></trkpt><trkpt lat="39.24192824" lon="-0.31620948"><ele>22.6</ele><time>2022-10-31T15:02:09.0000000+00:00</time></trkpt><trkpt lat="39.24191365" lon="-0.31623387"><ele>22.6</ele><time>2022-10-31T15:02:10.0000000+00:00</time></trkpt><trkpt lat="39.24190443" lon="-0.31625709"><ele>22.6</ele><time>2022-10-31T15:02:11.0000000+00:00</time></trkpt><trkpt lat="39.24189412" lon="-0.31629078"><ele>22.6</ele><time>2022-10-31T15:02:12.0000000+00:00</time></trkpt><trkpt lat="39.24188758" lon="-0.31631945"><ele>22.6</ele><time>2022-10-31T15:02:13.0000000+00:00</time></trkpt><trkpt lat="39.24187644" lon="-0.31634501"><ele>22.6</ele><time>2022-10-31T15:02:14.0000000+00:00</time></trkpt><trkpt lat="39.24185917" lon="-0.31636831"><ele>22.6</ele><time>2022-10-31T15:02:15.0000000+00:00</time></trkpt><trkpt lat="39.24183419" lon="-0.31639053"><ele>22.4</ele><time>2022-10-31T15:02:16.0000000+00:00</time></trkpt><trkpt lat="39.24180536" lon="-0.31641265"><ele>22.4</ele><time>2022-10-31T15:02:17.0000000+00:00</time></trkpt><trkpt lat="39.2417756" lon="-0.31643"><ele>22.4</ele><time>2022-10-31T15:02:18.0000000+00:00</time></trkpt><trkpt lat="39.24172875" lon="-0.31645306"><ele>22.4</ele><time>2022-10-31T15:02:19.0000000+00:00</time></trkpt><trkpt lat="39.24165582" lon="-0.31647602"><ele>22.4</ele><time>2022-10-31T15:02:20.0000000+00:00</time></trkpt><trkpt lat="39.24159891" lon="-0.31649689"><ele>22.4</ele><time>2022-10-31T15:02:21.0000000+00:00</time></trkpt><trkpt lat="39.24153286" lon="-0.31652858"><ele>22.0</ele><time>2022-10-31T15:02:22.0000000+00:00</time></trkpt><trkpt lat="39.24146044" lon="-0.31656981"><ele>21.2</ele><time>2022-10-31T15:02:23.0000000+00:00</time></trkpt><trkpt lat="39.24140319" lon="-0.31659194"><ele>20.2</ele><time>2022-10-31T15:02:24.0000000+00:00</time></trkpt><trkpt lat="39.2413389" lon="-0.31662195"><ele>19.6</ele><time>2022-10-31T15:02:25.0000000+00:00</time></trkpt><trkpt lat="39.24130202" lon="-0.31664156"><ele>18.8</ele><time>2022-10-31T15:02:26.0000000+00:00</time></trkpt><trkpt lat="39.2412659" lon="-0.31666948"><ele>18.4</ele><time>2022-10-31T15:02:27.0000000+00:00</time></trkpt><trkpt lat="39.24123539" lon="-0.31669538"><ele>17.8</ele><time>2022-10-31T15:02:28.0000000+00:00</time></trkpt><trkpt lat="39.24120287" lon="-0.31671742"><ele>17.4</ele><time>2022-10-31T15:02:29.0000000+00:00</time></trkpt><trkpt lat="39.24117303" lon="-0.31673217"><ele>17.0</ele><time>2022-10-31T15:02:30.0000000+00:00</time></trkpt><trkpt lat="39.24114553" lon="-0.31674106"><ele>16.6</ele><time>2022-10-31T15:02:31.0000000+00:00</time></trkpt><trkpt lat="39.24112072" lon="-0.31674483"><ele>16.0</ele><time>2022-10-31T15:02:32.0000000+00:00</time></trkpt><trkpt lat="39.24110061" lon="-0.31674902"><ele>15.8</ele><time>2022-10-31T15:02:33.0000000+00:00</time></trkpt><trkpt lat="39.24107881" lon="-0.31675992"><ele>15.6</ele><time>2022-10-31T15:02:34.0000000+00:00</time></trkpt><trkpt lat="39.24105786" lon="-0.31677232"><ele>15.2</ele><time>2022-10-31T15:02:35.0000000+00:00</time></trkpt><trkpt lat="39.24103917" lon="-0.31678582"><ele>14.8</ele><time>2022-10-31T15:02:36.0000000+00:00</time></trkpt><trkpt lat="39.24102559" lon="-0.31679856"><ele>14.8</ele><time>2022-10-31T15:02:37.0000000+00:00</time></trkpt><trkpt lat="39.24101654" lon="-0.31681255"><ele>14.6</ele><time>2022-10-31T15:02:38.0000000+00:00</time></trkpt><trkpt lat="39.24100673" lon="-0.31682462"><ele>14.4</ele><time>2022-10-31T15:02:39.0000000+00:00</time></trkpt><trkpt lat="39.24099617" lon="-0.31684005"><ele>14.2</ele><time>2022-10-31T15:02:40.0000000+00:00</time></trkpt><trkpt lat="39.24098544" lon="-0.31686268"><ele>14.2</ele><time>2022-10-31T15:02:41.0000000+00:00</time></trkpt><trkpt lat="39.24097865" lon="-0.31688766"><ele>14.2</ele><time>2022-10-31T15:02:42.0000000+00:00</time></trkpt><trkpt lat="39.24096784" lon="-0.31690995"><ele>14.2</ele><time>2022-10-31T15:02:43.0000000+00:00</time></trkpt><trkpt lat="39.24095828" lon="-0.31693275"><ele>14.2</ele><time>2022-10-31T15:02:44.0000000+00:00</time></trkpt><trkpt lat="39.24094655" lon="-0.31695798"><ele>14.2</ele><time>2022-10-31T15:02:45.0000000+00:00</time></trkpt><trkpt lat="39.24093188" lon="-0.3169874"><ele>14.0</ele><time>2022-10-31T15:02:46.0000000+00:00</time></trkpt><trkpt lat="39.2409147" lon="-0.31702034"><ele>14.0</ele><time>2022-10-31T15:02:47.0000000+00:00</time></trkpt><trkpt lat="39.24089785" lon="-0.31705781"><ele>14.0</ele><time>2022-10-31T15:02:48.0000000+00:00</time></trkpt><trkpt lat="39.2408815" lon="-0.31709796"><ele>14.0</ele><time>2022-10-31T15:02:49.0000000+00:00</time></trkpt><trkpt lat="39.24086717" lon="-0.3171423"><ele>14.0</ele><time>2022-10-31T15:02:50.0000000+00:00</time></trkpt><trkpt lat="39.24085426" lon="-0.31719041"><ele>14.0</ele><time>2022-10-31T15:02:51.0000000+00:00</time></trkpt><trkpt lat="39.24083917" lon="-0.3172345"><ele>14.0</ele><time>2022-10-31T15:02:52.0000000+00:00</time></trkpt><trkpt lat="39.24082819" lon="-0.31727842"><ele>14.0</ele><time>2022-10-31T15:02:53.0000000+00:00</time></trkpt><trkpt lat="39.24081822" lon="-0.3173267"><ele>14.0</ele><time>2022-10-31T15:02:54.0000000+00:00</time></trkpt><trkpt lat="39.24081068" lon="-0.31738034"><ele>14.0</ele><time>2022-10-31T15:02:55.0000000+00:00</time></trkpt><trkpt lat="39.2408064" lon="-0.31743893"><ele>14.0</ele><time>2022-10-31T15:02:56.0000000+00:00</time></trkpt><trkpt lat="39.24080623" lon="-0.31750708"><ele>14.0</ele><time>2022-10-31T15:02:57.0000000+00:00</time></trkpt><trkpt lat="39.24080556" lon="-0.31755075"><ele>14.0</ele><time>2022-10-31T15:02:58.0000000+00:00</time></trkpt><trkpt lat="39.24080975" lon="-0.31762091"><ele>14.0</ele><time>2022-10-31T15:02:59.0000000+00:00</time></trkpt><trkpt lat="39.24081747" lon="-0.3176717"><ele>14.0</ele><time>2022-10-31T15:03:00.0000000+00:00</time></trkpt><trkpt lat="39.24082945" lon="-0.31773398"><ele>14.0</ele><time>2022-10-31T15:03:01.0000000+00:00</time></trkpt><trkpt lat="39.24084387" lon="-0.31780916"><ele>14.0</ele><time>2022-10-31T15:03:02.0000000+00:00</time></trkpt><trkpt lat="39.24085678" lon="-0.31787186"><ele>14.0</ele><time>2022-10-31T15:03:03.0000000+00:00</time></trkpt><trkpt lat="39.24086968" lon="-0.31793531"><ele>14.0</ele><time>2022-10-31T15:03:04.0000000+00:00</time></trkpt><trkpt lat="39.24088075" lon="-0.31799759"><ele>14.2</ele><time>2022-10-31T15:03:05.0000000+00:00</time></trkpt><trkpt lat="39.2408924" lon="-0.31805744"><ele>14.2</ele><time>2022-10-31T15:03:06.0000000+00:00</time></trkpt><trkpt lat="39.24090472" lon="-0.31811745"><ele>14.2</ele><time>2022-10-31T15:03:07.0000000+00:00</time></trkpt><trkpt lat="39.24091587" lon="-0.31817889"><ele>14.2</ele><time>2022-10-31T15:03:08.0000000+00:00</time></trkpt><trkpt lat="39.24092584" lon="-0.31824142"><ele>14.2</ele><time>2022-10-31T15:03:09.0000000+00:00</time></trkpt><trkpt lat="39.24093464" lon="-0.3183047"><ele>14.2</ele><time>2022-10-31T15:03:10.0000000+00:00</time></trkpt><trkpt lat="39.24094571" lon="-0.31836689"><ele>14.4</ele><time>2022-10-31T15:03:11.0000000+00:00</time></trkpt><trkpt lat="39.24095593" lon="-0.31843009"><ele>14.2</ele><time>2022-10-31T15:03:12.0000000+00:00</time></trkpt><trkpt lat="39.24095929" lon="-0.31847938"><ele>14.2</ele><time>2022-10-31T15:03:13.0000000+00:00</time></trkpt><trkpt lat="39.24096641" lon="-0.31855498"><ele>14.2</ele><time>2022-10-31T15:03:14.0000000+00:00</time></trkpt><trkpt lat="39.24097882" lon="-0.31861919"><ele>14.2</ele><time>2022-10-31T15:03:15.0000000+00:00</time></trkpt><trkpt lat="39.2409903" lon="-0.31868071"><ele>14.0</ele><time>2022-10-31T15:03:16.0000000+00:00</time></trkpt><trkpt lat="39.24099642" lon="-0.3187326"><ele>14.0</ele><time>2022-10-31T15:03:17.0000000+00:00</time></trkpt><trkpt lat="39.24099684" lon="-0.31876763"><ele>14.0</ele><time>2022-10-31T15:03:18.0000000+00:00</time></trkpt><trkpt lat="39.24099717" lon="-0.31879429"><ele>13.8</ele><time>2022-10-31T15:03:19.0000000+00:00</time></trkpt><trkpt lat="39.24099156" lon="-0.31881264"><ele>13.8</ele><time>2022-10-31T15:03:20.0000000+00:00</time></trkpt><trkpt lat="39.24097915" lon="-0.31882295"><ele>13.8</ele><time>2022-10-31T15:03:21.0000000+00:00</time></trkpt><trkpt lat="39.24096205" lon="-0.31883343"><ele>13.8</ele><time>2022-10-31T15:03:22.0000000+00:00</time></trkpt><trkpt lat="39.24094353" lon="-0.31883477"><ele>13.8</ele><time>2022-10-31T15:03:23.0000000+00:00</time></trkpt><trkpt lat="39.24092107" lon="-0.31883519"><ele>13.8</ele><time>2022-10-31T15:03:24.0000000+00:00</time></trkpt><trkpt lat="39.24089659" lon="-0.31883637"><ele>13.6</ele><time>2022-10-31T15:03:25.0000000+00:00</time></trkpt><trkpt lat="39.24086851" lon="-0.31883922"><ele>13.6</ele><time>2022-10-31T15:03:26.0000000+00:00</time></trkpt><trkpt lat="39.24083767" lon="-0.31884123"><ele>13.8</ele><time>2022-10-31T15:03:27.0000000+00:00</time></trkpt><trkpt lat="39.24080498" lon="-0.3188398"><ele>13.8</ele><time>2022-10-31T15:03:28.0000000+00:00</time></trkpt><trkpt lat="39.24076927" lon="-0.31883829"><ele>13.8</ele><time>2022-10-31T15:03:29.0000000+00:00</time></trkpt><trkpt lat="39.24072803" lon="-0.31883419"><ele>13.8</ele><time>2022-10-31T15:03:30.0000000+00:00</time></trkpt><trkpt lat="39.24068805" lon="-0.31883159"><ele>13.8</ele><time>2022-10-31T15:03:31.0000000+00:00</time></trkpt><trkpt lat="39.24064597" lon="-0.31882823"><ele>13.8</ele><time>2022-10-31T15:03:32.0000000+00:00</time></trkpt><trkpt lat="39.24060507" lon="-0.31882748"><ele>13.8</ele><time>2022-10-31T15:03:33.0000000+00:00</time></trkpt><trkpt lat="39.2405707" lon="-0.31882371"><ele>14.0</ele><time>2022-10-31T15:03:34.0000000+00:00</time></trkpt><trkpt lat="39.24052728" lon="-0.31882002"><ele>14.0</ele><time>2022-10-31T15:03:35.0000000+00:00</time></trkpt><trkpt lat="39.24048118" lon="-0.31882044"><ele>14.2</ele><time>2022-10-31T15:03:36.0000000+00:00</time></trkpt><trkpt lat="39.24043701" lon="-0.3188217"><ele>14.2</ele><time>2022-10-31T15:03:37.0000000+00:00</time></trkpt><trkpt lat="39.24038865" lon="-0.31882371"><ele>14.2</ele><time>2022-10-31T15:03:38.0000000+00:00</time></trkpt><trkpt lat="39.24034322" lon="-0.31882756"><ele>14.2</ele><time>2022-10-31T15:03:39.0000000+00:00</time></trkpt><trkpt lat="39.24029871" lon="-0.31883092"><ele>14.2</ele><time>2022-10-31T15:03:40.0000000+00:00</time></trkpt><trkpt lat="39.2402454" lon="-0.31883486"><ele>14.2</ele><time>2022-10-31T15:03:41.0000000+00:00</time></trkpt><trkpt lat="39.24020852" lon="-0.31883838"><ele>14.2</ele><time>2022-10-31T15:03:42.0000000+00:00</time></trkpt><trkpt lat="39.24015823" lon="-0.31883896"><ele>14.2</ele><time>2022-10-31T15:03:43.0000000+00:00</time></trkpt><trkpt lat="39.24010852" lon="-0.31883293"><ele>14.2</ele><time>2022-10-31T15:03:44.0000000+00:00</time></trkpt><trkpt lat="39.24006209" lon="-0.31882103"><ele>14.2</ele><time>2022-10-31T15:03:45.0000000+00:00</time></trkpt><trkpt lat="39.24001599" lon="-0.31880544"><ele>14.2</ele><time>2022-10-31T15:03:46.0000000+00:00</time></trkpt><trkpt lat="39.23996804" lon="-0.318788"><ele>14.2</ele><time>2022-10-31T15:03:47.0000000+00:00</time></trkpt><trkpt lat="39.23991985" lon="-0.3187668"><ele>14.4</ele><time>2022-10-31T15:03:48.0000000+00:00</time></trkpt><trkpt lat="39.23987324" lon="-0.31874333"><ele>14.4</ele><time>2022-10-31T15:03:49.0000000+00:00</time></trkpt><trkpt lat="39.23982907" lon="-0.31871935"><ele>14.4</ele><time>2022-10-31T15:03:50.0000000+00:00</time></trkpt><trkpt lat="39.2397818" lon="-0.31869169"><ele>14.6</ele><time>2022-10-31T15:03:51.0000000+00:00</time></trkpt><trkpt lat="39.23973285" lon="-0.31866361"><ele>14.6</ele><time>2022-10-31T15:03:52.0000000+00:00</time></trkpt><trkpt lat="39.23968641" lon="-0.31863126"><ele>14.6</ele><time>2022-10-31T15:03:53.0000000+00:00</time></trkpt><trkpt lat="39.23964207" lon="-0.31859756"><ele>14.6</ele><time>2022-10-31T15:03:54.0000000+00:00</time></trkpt><trkpt lat="39.23959748" lon="-0.31856161"><ele>14.6</ele><time>2022-10-31T15:03:55.0000000+00:00</time></trkpt><trkpt lat="39.23955146" lon="-0.31852707"><ele>14.8</ele><time>2022-10-31T15:03:56.0000000+00:00</time></trkpt><trkpt lat="39.23950612" lon="-0.31849472"><ele>14.8</ele><time>2022-10-31T15:03:57.0000000+00:00</time></trkpt><trkpt lat="39.23945993" lon="-0.31846278"><ele>14.8</ele><time>2022-10-31T15:03:58.0000000+00:00</time></trkpt><trkpt lat="39.23941626" lon="-0.31842884"><ele>14.6</ele><time>2022-10-31T15:03:59.0000000+00:00</time></trkpt><trkpt lat="39.23937125" lon="-0.31839598"><ele>14.6</ele><time>2022-10-31T15:04:00.0000000+00:00</time></trkpt><trkpt lat="39.23932314" lon="-0.31836371"><ele>14.6</ele><time>2022-10-31T15:04:01.0000000+00:00</time></trkpt><trkpt lat="39.23927603" lon="-0.31833035"><ele>14.6</ele><time>2022-10-31T15:04:02.0000000+00:00</time></trkpt><trkpt lat="39.23922868" lon="-0.31829783"><ele>14.6</ele><time>2022-10-31T15:04:03.0000000+00:00</time></trkpt><trkpt lat="39.23918283" lon="-0.3182674"><ele>14.6</ele><time>2022-10-31T15:04:04.0000000+00:00</time></trkpt><trkpt lat="39.23912793" lon="-0.31822952"><ele>14.6</ele><time>2022-10-31T15:04:05.0000000+00:00</time></trkpt><trkpt lat="39.23907856" lon="-0.31819808"><ele>14.6</ele><time>2022-10-31T15:04:06.0000000+00:00</time></trkpt><trkpt lat="39.23903061" lon="-0.3181685"><ele>14.8</ele><time>2022-10-31T15:04:07.0000000+00:00</time></trkpt><trkpt lat="39.23898309" lon="-0.31813623"><ele>14.8</ele><time>2022-10-31T15:04:08.0000000+00:00</time></trkpt><trkpt lat="39.23894495" lon="-0.31811024"><ele>14.8</ele><time>2022-10-31T15:04:09.0000000+00:00</time></trkpt><trkpt lat="39.23889005" lon="-0.31807085"><ele>14.8</ele><time>2022-10-31T15:04:10.0000000+00:00</time></trkpt><trkpt lat="39.23884495" lon="-0.31803447"><ele>14.6</ele><time>2022-10-31T15:04:11.0000000+00:00</time></trkpt><trkpt lat="39.23879885" lon="-0.31799818"><ele>14.6</ele><time>2022-10-31T15:04:12.0000000+00:00</time></trkpt><trkpt lat="39.23875242" lon="-0.31796766"><ele>14.6</ele><time>2022-10-31T15:04:13.0000000+00:00</time></trkpt><trkpt lat="39.23870363" lon="-0.31793866"><ele>14.6</ele><time>2022-10-31T15:04:14.0000000+00:00</time></trkpt><trkpt lat="39.23865711" lon="-0.31790757"><ele>14.6</ele><time>2022-10-31T15:04:15.0000000+00:00</time></trkpt><trkpt lat="39.23861018" lon="-0.31787924"><ele>14.6</ele><time>2022-10-31T15:04:16.0000000+00:00</time></trkpt><trkpt lat="39.2385629" lon="-0.31785074"><ele>14.8</ele><time>2022-10-31T15:04:17.0000000+00:00</time></trkpt><trkpt lat="39.23852485" lon="-0.31782811"><ele>14.8</ele><time>2022-10-31T15:04:18.0000000+00:00</time></trkpt><trkpt lat="39.23846626" lon="-0.31778938"><ele>14.8</ele><time>2022-10-31T15:04:19.0000000+00:00</time></trkpt><trkpt lat="39.23842024" lon="-0.31775619"><ele>14.8</ele><time>2022-10-31T15:04:20.0000000+00:00</time></trkpt><trkpt lat="39.23836928" lon="-0.31772132"><ele>14.8</ele><time>2022-10-31T15:04:21.0000000+00:00</time></trkpt><trkpt lat="39.23831848" lon="-0.31768637"><ele>14.8</ele><time>2022-10-31T15:04:22.0000000+00:00</time></trkpt><trkpt lat="39.23826819" lon="-0.31765343"><ele>14.8</ele><time>2022-10-31T15:04:23.0000000+00:00</time></trkpt><trkpt lat="39.23821472" lon="-0.31761948"><ele>14.8</ele><time>2022-10-31T15:04:24.0000000+00:00</time></trkpt><trkpt lat="39.23816158" lon="-0.31758931"><ele>14.6</ele><time>2022-10-31T15:04:25.0000000+00:00</time></trkpt><trkpt lat="39.23811246" lon="-0.31756148"><ele>14.8</ele><time>2022-10-31T15:04:26.0000000+00:00</time></trkpt><trkpt lat="39.23806015" lon="-0.31752963"><ele>14.8</ele><time>2022-10-31T15:04:27.0000000+00:00</time></trkpt><trkpt lat="39.23800953" lon="-0.31750004"><ele>14.8</ele><time>2022-10-31T15:04:28.0000000+00:00</time></trkpt><trkpt lat="39.23795689" lon="-0.31747129"><ele>14.8</ele><time>2022-10-31T15:04:29.0000000+00:00</time></trkpt><trkpt lat="39.23790534" lon="-0.31744162"><ele>14.8</ele><time>2022-10-31T15:04:30.0000000+00:00</time></trkpt><trkpt lat="39.2378558" lon="-0.31741228"><ele>14.8</ele><time>2022-10-31T15:04:31.0000000+00:00</time></trkpt><trkpt lat="39.237804" lon="-0.31738236"><ele>14.8</ele><time>2022-10-31T15:04:32.0000000+00:00</time></trkpt><trkpt lat="39.23774969" lon="-0.31735478"><ele>14.6</ele><time>2022-10-31T15:04:33.0000000+00:00</time></trkpt><trkpt lat="39.2376978" lon="-0.31732486"><ele>14.6</ele><time>2022-10-31T15:04:34.0000000+00:00</time></trkpt><trkpt lat="39.23764693" lon="-0.31729443"><ele>14.6</ele><time>2022-10-31T15:04:35.0000000+00:00</time></trkpt><trkpt lat="39.2375937" lon="-0.31727037"><ele>14.6</ele><time>2022-10-31T15:04:36.0000000+00:00</time></trkpt><trkpt lat="39.23753746" lon="-0.31724808"><ele>14.6</ele><time>2022-10-31T15:04:37.0000000+00:00</time></trkpt><trkpt lat="39.23748231" lon="-0.31722914"><ele>14.6</ele><time>2022-10-31T15:04:38.0000000+00:00</time></trkpt><trkpt lat="39.23742975" lon="-0.31721212"><ele>14.6</ele><time>2022-10-31T15:04:39.0000000+00:00</time></trkpt><trkpt lat="39.23737527" lon="-0.31719678"><ele>14.6</ele><time>2022-10-31T15:04:40.0000000+00:00</time></trkpt><trkpt lat="39.23731936" lon="-0.31718077"><ele>14.6</ele><time>2022-10-31T15:04:41.0000000+00:00</time></trkpt><trkpt lat="39.23726287" lon="-0.31716627"><ele>14.6</ele><time>2022-10-31T15:04:42.0000000+00:00</time></trkpt><trkpt lat="39.23720813" lon="-0.31715177"><ele>14.6</ele><time>2022-10-31T15:04:43.0000000+00:00</time></trkpt><trkpt lat="39.23715172" lon="-0.3171371"><ele>14.6</ele><time>2022-10-31T15:04:44.0000000+00:00</time></trkpt><trkpt lat="39.23709481" lon="-0.3171257"><ele>14.6</ele><time>2022-10-31T15:04:45.0000000+00:00</time></trkpt><trkpt lat="39.23703865" lon="-0.31711581"><ele>14.6</ele><time>2022-10-31T15:04:46.0000000+00:00</time></trkpt><trkpt lat="39.23698383" lon="-0.31710684"><ele>14.6</ele><time>2022-10-31T15:04:47.0000000+00:00</time></trkpt><trkpt lat="39.23692835" lon="-0.31709553"><ele>14.6</ele><time>2022-10-31T15:04:48.0000000+00:00</time></trkpt><trkpt lat="39.2368721" lon="-0.31708245"><ele>14.6</ele><time>2022-10-31T15:04:49.0000000+00:00</time></trkpt><trkpt lat="39.23681377" lon="-0.31706938"><ele>14.6</ele><time>2022-10-31T15:04:50.0000000+00:00</time></trkpt><trkpt lat="39.23675635" lon="-0.31705638"><ele>14.6</ele><time>2022-10-31T15:04:51.0000000+00:00</time></trkpt><trkpt lat="39.2366996" lon="-0.31704742"><ele>14.6</ele><time>2022-10-31T15:04:52.0000000+00:00</time></trkpt><trkpt lat="39.23664638" lon="-0.31704046"><ele>14.6</ele><time>2022-10-31T15:04:53.0000000+00:00</time></trkpt><trkpt lat="39.23659391" lon="-0.31703082"><ele>14.8</ele><time>2022-10-31T15:04:54.0000000+00:00</time></trkpt><trkpt lat="39.23654144" lon="-0.31702085"><ele>14.8</ele><time>2022-10-31T15:04:55.0000000+00:00</time></trkpt><trkpt lat="39.2364883" lon="-0.31701028"><ele>14.8</ele><time>2022-10-31T15:04:56.0000000+00:00</time></trkpt><trkpt lat="39.23643264" lon="-0.31699888"><ele>14.8</ele><time>2022-10-31T15:04:57.0000000+00:00</time></trkpt><trkpt lat="39.23637715" lon="-0.31698547"><ele>14.8</ele><time>2022-10-31T15:04:58.0000000+00:00</time></trkpt><trkpt lat="39.23632342" lon="-0.316975"><ele>14.6</ele><time>2022-10-31T15:04:59.0000000+00:00</time></trkpt><trkpt lat="39.23626693" lon="-0.31696762"><ele>14.6</ele><time>2022-10-31T15:05:00.0000000+00:00</time></trkpt><trkpt lat="39.23621287" lon="-0.31696284"><ele>14.6</ele><time>2022-10-31T15:05:01.0000000+00:00</time></trkpt><trkpt lat="39.23615763" lon="-0.31695404"><ele>14.6</ele><time>2022-10-31T15:05:02.0000000+00:00</time></trkpt><trkpt lat="39.23610248" lon="-0.31694423"><ele>14.6</ele><time>2022-10-31T15:05:03.0000000+00:00</time></trkpt><trkpt lat="39.23604774" lon="-0.31693191"><ele>14.6</ele><time>2022-10-31T15:05:04.0000000+00:00</time></trkpt><trkpt lat="39.23599376" lon="-0.31692202"><ele>14.8</ele><time>2022-10-31T15:05:05.0000000+00:00</time></trkpt><trkpt lat="39.23593836" lon="-0.31691406"><ele>14.8</ele><time>2022-10-31T15:05:06.0000000+00:00</time></trkpt><trkpt lat="39.23587935" lon="-0.31690442"><ele>14.8</ele><time>2022-10-31T15:05:07.0000000+00:00</time></trkpt><trkpt lat="39.23582168" lon="-0.31689671"><ele>15.0</ele><time>2022-10-31T15:05:08.0000000+00:00</time></trkpt><trkpt lat="39.23576552" lon="-0.31689202"><ele>15.0</ele><time>2022-10-31T15:05:09.0000000+00:00</time></trkpt><trkpt lat="39.2357092" lon="-0.31688917"><ele>15.0</ele><time>2022-10-31T15:05:10.0000000+00:00</time></trkpt><trkpt lat="39.23565111" lon="-0.31688841"><ele>15.0</ele><time>2022-10-31T15:05:11.0000000+00:00</time></trkpt><trkpt lat="39.23559227" lon="-0.31688875"><ele>14.8</ele><time>2022-10-31T15:05:12.0000000+00:00</time></trkpt><trkpt lat="39.23553502" lon="-0.31689084"><ele>14.8</ele><time>2022-10-31T15:05:13.0000000+00:00</time></trkpt><trkpt lat="39.23547752" lon="-0.31689252"><ele>14.8</ele><time>2022-10-31T15:05:14.0000000+00:00</time></trkpt><trkpt lat="39.23541483" lon="-0.31689419"><ele>14.8</ele><time>2022-10-31T15:05:15.0000000+00:00</time></trkpt><trkpt lat="39.23535288" lon="-0.31689755"><ele>14.8</ele><time>2022-10-31T15:05:16.0000000+00:00</time></trkpt><trkpt lat="39.23529463" lon="-0.31690291"><ele>14.8</ele><time>2022-10-31T15:05:17.0000000+00:00</time></trkpt><trkpt lat="39.2352347" lon="-0.31691213"><ele>14.8</ele><time>2022-10-31T15:05:18.0000000+00:00</time></trkpt><trkpt lat="39.23517259" lon="-0.31692311"><ele>14.8</ele><time>2022-10-31T15:05:19.0000000+00:00</time></trkpt><trkpt lat="39.23511073" lon="-0.31693091"><ele>14.8</ele><time>2022-10-31T15:05:20.0000000+00:00</time></trkpt><trkpt lat="39.23504937" lon="-0.31693753"><ele>14.6</ele><time>2022-10-31T15:05:21.0000000+00:00</time></trkpt><trkpt lat="39.23498928" lon="-0.31694482"><ele>14.6</ele><time>2022-10-31T15:05:22.0000000+00:00</time></trkpt><trkpt lat="39.23492834" lon="-0.31695102"><ele>14.6</ele><time>2022-10-31T15:05:23.0000000+00:00</time></trkpt><trkpt lat="39.23486967" lon="-0.31695907"><ele>14.8</ele><time>2022-10-31T15:05:24.0000000+00:00</time></trkpt><trkpt lat="39.23481016" lon="-0.31696796"><ele>14.8</ele><time>2022-10-31T15:05:25.0000000+00:00</time></trkpt><trkpt lat="39.23474897" lon="-0.31697357"><ele>14.8</ele><time>2022-10-31T15:05:26.0000000+00:00</time></trkpt><trkpt lat="39.23469029" lon="-0.31698095"><ele>14.8</ele><time>2022-10-31T15:05:27.0000000+00:00</time></trkpt><trkpt lat="39.23463338" lon="-0.31698715"><ele>15.0</ele><time>2022-10-31T15:05:28.0000000+00:00</time></trkpt><trkpt lat="39.23457479" lon="-0.31699461"><ele>15.0</ele><time>2022-10-31T15:05:29.0000000+00:00</time></trkpt><trkpt lat="39.2345131" lon="-0.31700064"><ele>14.8</ele><time>2022-10-31T15:05:30.0000000+00:00</time></trkpt><trkpt lat="39.23445309" lon="-0.31700467"><ele>14.8</ele><time>2022-10-31T15:05:31.0000000+00:00</time></trkpt><trkpt lat="39.23439349" lon="-0.31700869"><ele>14.6</ele><time>2022-10-31T15:05:32.0000000+00:00</time></trkpt><trkpt lat="39.23433515" lon="-0.31701397"><ele>14.6</ele><time>2022-10-31T15:05:33.0000000+00:00</time></trkpt><trkpt lat="39.23427623" lon="-0.31701825"><ele>14.6</ele><time>2022-10-31T15:05:34.0000000+00:00</time></trkpt><trkpt lat="39.23421554" lon="-0.31702252"><ele>14.6</ele><time>2022-10-31T15:05:35.0000000+00:00</time></trkpt><trkpt lat="39.23415528" lon="-0.31702646"><ele>14.8</ele><time>2022-10-31T15:05:36.0000000+00:00</time></trkpt><trkpt lat="39.23409535" lon="-0.31702872"><ele>14.8</ele><time>2022-10-31T15:05:37.0000000+00:00</time></trkpt><trkpt lat="39.23403592" lon="-0.31703233"><ele>15.0</ele><time>2022-10-31T15:05:38.0000000+00:00</time></trkpt><trkpt lat="39.23397683" lon="-0.31703602"><ele>15.0</ele><time>2022-10-31T15:05:39.0000000+00:00</time></trkpt><trkpt lat="39.23391555" lon="-0.31703711"><ele>15.0</ele><time>2022-10-31T15:05:40.0000000+00:00</time></trkpt><trkpt lat="39.23385571" lon="-0.31703375"><ele>15.0</ele><time>2022-10-31T15:05:41.0000000+00:00</time></trkpt><trkpt lat="39.23379511" lon="-0.31703015"><ele>15.0</ele><time>2022-10-31T15:05:42.0000000+00:00</time></trkpt><trkpt lat="39.2337356" lon="-0.31701959"><ele>14.8</ele><time>2022-10-31T15:05:43.0000000+00:00</time></trkpt><trkpt lat="39.23367399" lon="-0.31701087"><ele>14.8</ele><time>2022-10-31T15:05:44.0000000+00:00</time></trkpt><trkpt lat="39.23361381" lon="-0.31700542"><ele>14.8</ele><time>2022-10-31T15:05:45.0000000+00:00</time></trkpt><trkpt lat="39.23355547" lon="-0.31699679"><ele>14.8</ele><time>2022-10-31T15:05:46.0000000+00:00</time></trkpt><trkpt lat="39.23349252" lon="-0.31698422"><ele>14.8</ele><time>2022-10-31T15:05:47.0000000+00:00</time></trkpt><trkpt lat="39.23343376" lon="-0.31697332"><ele>14.8</ele><time>2022-10-31T15:05:48.0000000+00:00</time></trkpt><trkpt lat="39.23337584" lon="-0.3169605"><ele>14.6</ele><time>2022-10-31T15:05:49.0000000+00:00</time></trkpt><trkpt lat="39.23331424" lon="-0.31694717"><ele>14.8</ele><time>2022-10-31T15:05:50.0000000+00:00</time></trkpt><trkpt lat="39.23325322" lon="-0.31693736"><ele>14.8</ele><time>2022-10-31T15:05:51.0000000+00:00</time></trkpt><trkpt lat="39.23319371" lon="-0.3169273"><ele>14.8</ele><time>2022-10-31T15:05:52.0000000+00:00</time></trkpt><trkpt lat="39.23313344" lon="-0.31691372"><ele>15.0</ele><time>2022-10-31T15:05:53.0000000+00:00</time></trkpt><trkpt lat="39.23307552" lon="-0.31689981"><ele>15.0</ele><time>2022-10-31T15:05:54.0000000+00:00</time></trkpt><trkpt lat="39.23301794" lon="-0.31688967"><ele>15.0</ele><time>2022-10-31T15:05:55.0000000+00:00</time></trkpt><trkpt lat="39.23295784" lon="-0.3168828"><ele>15.0</ele><time>2022-10-31T15:05:56.0000000+00:00</time></trkpt><trkpt lat="39.23289414" lon="-0.31687617"><ele>14.8</ele><time>2022-10-31T15:05:57.0000000+00:00</time></trkpt><trkpt lat="39.23283328" lon="-0.31686905"><ele>14.8</ele><time>2022-10-31T15:05:58.0000000+00:00</time></trkpt><trkpt lat="39.23277327" lon="-0.31686838"><ele>14.8</ele><time>2022-10-31T15:05:59.0000000+00:00</time></trkpt><trkpt lat="39.23271074" lon="-0.31686913"><ele>14.8</ele><time>2022-10-31T15:06:00.0000000+00:00</time></trkpt><trkpt lat="39.23264846" lon="-0.31687123"><ele>14.8</ele><time>2022-10-31T15:06:01.0000000+00:00</time></trkpt><trkpt lat="39.23258862" lon="-0.31687785"><ele>14.8</ele><time>2022-10-31T15:06:02.0000000+00:00</time></trkpt><trkpt lat="39.23252835" lon="-0.31688296"><ele>14.8</ele><time>2022-10-31T15:06:03.0000000+00:00</time></trkpt><trkpt lat="39.23246733" lon="-0.31689084"><ele>15.0</ele><time>2022-10-31T15:06:04.0000000+00:00</time></trkpt><trkpt lat="39.23240614" lon="-0.31690149"><ele>15.0</ele><time>2022-10-31T15:06:05.0000000+00:00</time></trkpt><trkpt lat="39.23234864" lon="-0.31691708"><ele>15.0</ele><time>2022-10-31T15:06:06.0000000+00:00</time></trkpt><trkpt lat="39.23229173" lon="-0.31693141"><ele>15.0</ele><time>2022-10-31T15:06:07.0000000+00:00</time></trkpt><trkpt lat="39.23223205" lon="-0.31694323"><ele>15.0</ele><time>2022-10-31T15:06:08.0000000+00:00</time></trkpt><trkpt lat="39.23217363" lon="-0.31695932"><ele>15.0</ele><time>2022-10-31T15:06:09.0000000+00:00</time></trkpt><trkpt lat="39.23211521" lon="-0.31697977"><ele>15.0</ele><time>2022-10-31T15:06:10.0000000+00:00</time></trkpt><trkpt lat="39.23205678" lon="-0.31700006"><ele>15.0</ele><time>2022-10-31T15:06:11.0000000+00:00</time></trkpt><trkpt lat="39.2319956" lon="-0.31701665"><ele>14.8</ele><time>2022-10-31T15:06:12.0000000+00:00</time></trkpt><trkpt lat="39.23193365" lon="-0.31703476"><ele>14.8</ele><time>2022-10-31T15:06:13.0000000+00:00</time></trkpt><trkpt lat="39.23187456" lon="-0.31705647"><ele>14.8</ele><time>2022-10-31T15:06:14.0000000+00:00</time></trkpt><trkpt lat="39.23181622" lon="-0.31707281"><ele>15.0</ele><time>2022-10-31T15:06:15.0000000+00:00</time></trkpt><trkpt lat="39.23175931" lon="-0.31708824"><ele>15.0</ele><time>2022-10-31T15:06:16.0000000+00:00</time></trkpt><trkpt lat="39.23169829" lon="-0.31709947"><ele>15.2</ele><time>2022-10-31T15:06:17.0000000+00:00</time></trkpt><trkpt lat="39.23163886" lon="-0.31710802"><ele>15.2</ele><time>2022-10-31T15:06:18.0000000+00:00</time></trkpt><trkpt lat="39.23157709" lon="-0.317105"><ele>15.2</ele><time>2022-10-31T15:06:19.0000000+00:00</time></trkpt><trkpt lat="39.23151565" lon="-0.31709595"><ele>15.2</ele><time>2022-10-31T15:06:20.0000000+00:00</time></trkpt><trkpt lat="39.23145119" lon="-0.31708421"><ele>15.2</ele><time>2022-10-31T15:06:21.0000000+00:00</time></trkpt><trkpt lat="39.23139026" lon="-0.31707214"><ele>15.2</ele><time>2022-10-31T15:06:22.0000000+00:00</time></trkpt><trkpt lat="39.23132856" lon="-0.31706242"><ele>15.2</ele><time>2022-10-31T15:06:23.0000000+00:00</time></trkpt><trkpt lat="39.23126981" lon="-0.31705094"><ele>15.0</ele><time>2022-10-31T15:06:24.0000000+00:00</time></trkpt><trkpt lat="39.23121063" lon="-0.31703778"><ele>15.0</ele><time>2022-10-31T15:06:25.0000000+00:00</time></trkpt><trkpt lat="39.23115179" lon="-0.31702261"><ele>15.0</ele><time>2022-10-31T15:06:26.0000000+00:00</time></trkpt><trkpt lat="39.23109362" lon="-0.31700601"><ele>15.0</ele><time>2022-10-31T15:06:27.0000000+00:00</time></trkpt><trkpt lat="39.2310476" lon="-0.31699285"><ele>15.0</ele><time>2022-10-31T15:06:28.0000000+00:00</time></trkpt><trkpt lat="39.23097971" lon="-0.31697801"><ele>15.2</ele><time>2022-10-31T15:06:29.0000000+00:00</time></trkpt><trkpt lat="39.23092254" lon="-0.3169662"><ele>15.2</ele><time>2022-10-31T15:06:30.0000000+00:00</time></trkpt><trkpt lat="39.23086253" lon="-0.3169553"><ele>15.2</ele><time>2022-10-31T15:06:31.0000000+00:00</time></trkpt><trkpt lat="39.23080419" lon="-0.31694558"><ele>15.2</ele><time>2022-10-31T15:06:32.0000000+00:00</time></trkpt><trkpt lat="39.23074502" lon="-0.31693879"><ele>15.2</ele><time>2022-10-31T15:06:33.0000000+00:00</time></trkpt><trkpt lat="39.23068416" lon="-0.31693024"><ele>15.2</ele><time>2022-10-31T15:06:34.0000000+00:00</time></trkpt><trkpt lat="39.23062365" lon="-0.31692412"><ele>15.2</ele><time>2022-10-31T15:06:35.0000000+00:00</time></trkpt><trkpt lat="39.23057302" lon="-0.31691833"><ele>15.2</ele><time>2022-10-31T15:06:36.0000000+00:00</time></trkpt><trkpt lat="39.23049917" lon="-0.31691607"><ele>15.2</ele><time>2022-10-31T15:06:37.0000000+00:00</time></trkpt><trkpt lat="39.23043598" lon="-0.31691926"><ele>15.4</ele><time>2022-10-31T15:06:38.0000000+00:00</time></trkpt><trkpt lat="39.23037051" lon="-0.31693434"><ele>15.4</ele><time>2022-10-31T15:06:39.0000000+00:00</time></trkpt><trkpt lat="39.23031268" lon="-0.31696502"><ele>15.4</ele><time>2022-10-31T15:06:40.0000000+00:00</time></trkpt><trkpt lat="39.23025979" lon="-0.31701095"><ele>15.4</ele><time>2022-10-31T15:06:41.0000000+00:00</time></trkpt><trkpt lat="39.23021268" lon="-0.31706535"><ele>15.4</ele><time>2022-10-31T15:06:42.0000000+00:00</time></trkpt><trkpt lat="39.23016775" lon="-0.31712445"><ele>15.4</ele><time>2022-10-31T15:06:43.0000000+00:00</time></trkpt><trkpt lat="39.23012442" lon="-0.31718438"><ele>15.4</ele><time>2022-10-31T15:06:44.0000000+00:00</time></trkpt><trkpt lat="39.23008243" lon="-0.31724741"><ele>15.4</ele><time>2022-10-31T15:06:45.0000000+00:00</time></trkpt><trkpt lat="39.2300401" lon="-0.31731161"><ele>15.4</ele><time>2022-10-31T15:06:46.0000000+00:00</time></trkpt><trkpt lat="39.22999626" lon="-0.3173733"><ele>15.6</ele><time>2022-10-31T15:06:47.0000000+00:00</time></trkpt><trkpt lat="39.22995418" lon="-0.31743516"><ele>15.6</ele><time>2022-10-31T15:06:48.0000000+00:00</time></trkpt><trkpt lat="39.22991412" lon="-0.31749853"><ele>15.8</ele><time>2022-10-31T15:06:49.0000000+00:00</time></trkpt><trkpt lat="39.22987296" lon="-0.31756039"><ele>15.8</ele><time>2022-10-31T15:06:50.0000000+00:00</time></trkpt><trkpt lat="39.2298282" lon="-0.31761906"><ele>15.6</ele><time>2022-10-31T15:06:51.0000000+00:00</time></trkpt><trkpt lat="39.229779" lon="-0.31767287"><ele>15.6</ele><time>2022-10-31T15:06:52.0000000+00:00</time></trkpt><trkpt lat="39.22972293" lon="-0.31771705"><ele>15.6</ele><time>2022-10-31T15:06:53.0000000+00:00</time></trkpt><trkpt lat="39.22966383" lon="-0.31775158"><ele>15.6</ele><time>2022-10-31T15:06:54.0000000+00:00</time></trkpt><trkpt lat="39.22960449" lon="-0.3177789"><ele>15.6</ele><time>2022-10-31T15:06:55.0000000+00:00</time></trkpt><trkpt lat="39.22954473" lon="-0.31780472"><ele>15.4</ele><time>2022-10-31T15:06:56.0000000+00:00</time></trkpt><trkpt lat="39.2294874" lon="-0.31782953"><ele>15.4</ele><time>2022-10-31T15:06:57.0000000+00:00</time></trkpt><trkpt lat="39.22942956" lon="-0.31784562"><ele>15.4</ele><time>2022-10-31T15:06:58.0000000+00:00</time></trkpt><trkpt lat="39.22937307" lon="-0.31786096"><ele>15.4</ele><time>2022-10-31T15:06:59.0000000+00:00</time></trkpt><trkpt lat="39.22931599" lon="-0.31787429"><ele>15.4</ele><time>2022-10-31T15:07:00.0000000+00:00</time></trkpt><trkpt lat="39.22925782" lon="-0.3178825"><ele>15.4</ele><time>2022-10-31T15:07:01.0000000+00:00</time></trkpt><trkpt lat="39.2292035" lon="-0.31789147"><ele>15.4</ele><time>2022-10-31T15:07:02.0000000+00:00</time></trkpt><trkpt lat="39.2291569" lon="-0.31789902"><ele>15.4</ele><time>2022-10-31T15:07:03.0000000+00:00</time></trkpt><trkpt lat="39.22910191" lon="-0.31790773"><ele>15.4</ele><time>2022-10-31T15:07:04.0000000+00:00</time></trkpt><trkpt lat="39.22904709" lon="-0.31791452"><ele>15.6</ele><time>2022-10-31T15:07:05.0000000+00:00</time></trkpt><trkpt lat="39.22897836" lon="-0.31792827"><ele>15.6</ele><time>2022-10-31T15:07:06.0000000+00:00</time></trkpt><trkpt lat="39.22893201" lon="-0.31793682"><ele>15.8</ele><time>2022-10-31T15:07:07.0000000+00:00</time></trkpt><trkpt lat="39.22887376" lon="-0.3179452"><ele>15.8</ele><time>2022-10-31T15:07:08.0000000+00:00</time></trkpt><trkpt lat="39.22880285" lon="-0.31795375"><ele>15.8</ele><time>2022-10-31T15:07:09.0000000+00:00</time></trkpt><trkpt lat="39.22875649" lon="-0.31795912"><ele>15.8</ele><time>2022-10-31T15:07:10.0000000+00:00</time></trkpt><trkpt lat="39.22868592" lon="-0.31796607"><ele>15.8</ele><time>2022-10-31T15:07:11.0000000+00:00</time></trkpt><trkpt lat="39.22864015" lon="-0.31796892"><ele>15.6</ele><time>2022-10-31T15:07:12.0000000+00:00</time></trkpt><trkpt lat="39.22856907" lon="-0.31797043"><ele>15.6</ele><time>2022-10-31T15:07:13.0000000+00:00</time></trkpt><trkpt lat="39.22850981" lon="-0.31796825"><ele>15.6</ele><time>2022-10-31T15:07:14.0000000+00:00</time></trkpt><trkpt lat="39.22845072" lon="-0.31796766"><ele>15.6</ele><time>2022-10-31T15:07:15.0000000+00:00</time></trkpt><trkpt lat="39.22839238" lon="-0.31796691"><ele>15.6</ele><time>2022-10-31T15:07:16.0000000+00:00</time></trkpt><trkpt lat="39.22833321" lon="-0.31796632"><ele>15.6</ele><time>2022-10-31T15:07:17.0000000+00:00</time></trkpt><trkpt lat="39.22827504" lon="-0.31796532"><ele>15.8</ele><time>2022-10-31T15:07:18.0000000+00:00</time></trkpt><trkpt lat="39.22822944" lon="-0.31796574"><ele>16.0</ele><time>2022-10-31T15:07:19.0000000+00:00</time></trkpt><trkpt lat="39.22816029" lon="-0.31796532"><ele>16.0</ele><time>2022-10-31T15:07:20.0000000+00:00</time></trkpt><trkpt lat="39.22810061" lon="-0.31796373"><ele>16.0</ele><time>2022-10-31T15:07:21.0000000+00:00</time></trkpt><trkpt lat="39.22804294" lon="-0.31796071"><ele>16.0</ele><time>2022-10-31T15:07:22.0000000+00:00</time></trkpt><trkpt lat="39.2279872" lon="-0.31796146"><ele>16.0</ele><time>2022-10-31T15:07:23.0000000+00:00</time></trkpt><trkpt lat="39.2279318" lon="-0.31796197"><ele>15.8</ele><time>2022-10-31T15:07:24.0000000+00:00</time></trkpt><trkpt lat="39.22787623" lon="-0.31796431"><ele>15.8</ele><time>2022-10-31T15:07:25.0000000+00:00</time></trkpt><trkpt lat="39.2278194" lon="-0.31796465"><ele>15.8</ele><time>2022-10-31T15:07:26.0000000+00:00</time></trkpt><trkpt lat="39.2277598" lon="-0.31796188"><ele>15.8</ele><time>2022-10-31T15:07:27.0000000+00:00</time></trkpt><trkpt lat="39.22770171" lon="-0.31795979"><ele>16.0</ele><time>2022-10-31T15:07:28.0000000+00:00</time></trkpt><trkpt lat="39.22765385" lon="-0.31795853"><ele>16.0</ele><time>2022-10-31T15:07:29.0000000+00:00</time></trkpt><trkpt lat="39.22759761" lon="-0.31795736"><ele>16.0</ele><time>2022-10-31T15:07:30.0000000+00:00</time></trkpt><trkpt lat="39.22753056" lon="-0.31795744"><ele>16.0</ele><time>2022-10-31T15:07:31.0000000+00:00</time></trkpt><trkpt lat="39.22747356" lon="-0.31795291"><ele>16.0</ele><time>2022-10-31T15:07:32.0000000+00:00</time></trkpt><trkpt lat="39.22741547" lon="-0.31794889"><ele>16.0</ele><time>2022-10-31T15:07:33.0000000+00:00</time></trkpt><trkpt lat="39.22735713" lon="-0.31794579"><ele>15.8</ele><time>2022-10-31T15:07:34.0000000+00:00</time></trkpt><trkpt lat="39.22729804" lon="-0.3179447"><ele>15.8</ele><time>2022-10-31T15:07:35.0000000+00:00</time></trkpt><trkpt lat="39.22723861" lon="-0.31794529"><ele>15.8</ele><time>2022-10-31T15:07:36.0000000+00:00</time></trkpt><trkpt lat="39.22717852" lon="-0.3179442"><ele>15.8</ele><time>2022-10-31T15:07:37.0000000+00:00</time></trkpt><trkpt lat="39.22711968" lon="-0.31794311"><ele>15.6</ele><time>2022-10-31T15:07:38.0000000+00:00</time></trkpt><trkpt lat="39.22706394" lon="-0.31794529"><ele>15.6</ele><time>2022-10-31T15:07:39.0000000+00:00</time></trkpt><trkpt lat="39.22700644" lon="-0.31795291"><ele>15.8</ele><time>2022-10-31T15:07:40.0000000+00:00</time></trkpt><trkpt lat="39.22694868" lon="-0.3179701"><ele>15.8</ele><time>2022-10-31T15:07:41.0000000+00:00</time></trkpt><trkpt lat="39.22689688" lon="-0.31800882"><ele>15.8</ele><time>2022-10-31T15:07:42.0000000+00:00</time></trkpt><trkpt lat="39.22686051" lon="-0.31806825"><ele>16.0</ele><time>2022-10-31T15:07:43.0000000+00:00</time></trkpt><trkpt lat="39.22683578" lon="-0.3181384"><ele>16.0</ele><time>2022-10-31T15:07:44.0000000+00:00</time></trkpt><trkpt lat="39.22682094" lon="-0.31821527"><ele>16.0</ele><time>2022-10-31T15:07:45.0000000+00:00</time></trkpt><trkpt lat="39.22681072" lon="-0.31829179"><ele>16.0</ele><time>2022-10-31T15:07:46.0000000+00:00</time></trkpt><trkpt lat="39.22680158" lon="-0.31836673"><ele>16.2</ele><time>2022-10-31T15:07:47.0000000+00:00</time></trkpt><trkpt lat="39.2267937" lon="-0.31844242"><ele>16.2</ele><time>2022-10-31T15:07:48.0000000+00:00</time></trkpt><trkpt lat="39.22678415" lon="-0.31851769"><ele>16.4</ele><time>2022-10-31T15:07:49.0000000+00:00</time></trkpt><trkpt lat="39.2267642" lon="-0.31858843"><ele>16.4</ele><time>2022-10-31T15:07:50.0000000+00:00</time></trkpt><trkpt lat="39.22673377" lon="-0.31865012"><ele>16.4</ele><time>2022-10-31T15:07:51.0000000+00:00</time></trkpt><trkpt lat="39.22669144" lon="-0.31869974"><ele>16.4</ele><time>2022-10-31T15:07:52.0000000+00:00</time></trkpt><trkpt lat="39.22664082" lon="-0.31872874"><ele>16.2</ele><time>2022-10-31T15:07:53.0000000+00:00</time></trkpt><trkpt lat="39.22658499" lon="-0.31874266"><ele>16.2</ele><time>2022-10-31T15:07:54.0000000+00:00</time></trkpt><trkpt lat="39.22652741" lon="-0.31874961"><ele>16.2</ele><time>2022-10-31T15:07:55.0000000+00:00</time></trkpt><trkpt lat="39.22647092" lon="-0.31875473"><ele>16.0</ele><time>2022-10-31T15:07:56.0000000+00:00</time></trkpt><trkpt lat="39.22641233" lon="-0.31876328"><ele>16.0</ele><time>2022-10-31T15:07:57.0000000+00:00</time></trkpt><trkpt lat="39.22635198" lon="-0.31877308"><ele>16.0</ele><time>2022-10-31T15:07:58.0000000+00:00</time></trkpt><trkpt lat="39.22629138" lon="-0.31878054"><ele>16.0</ele><time>2022-10-31T15:07:59.0000000+00:00</time></trkpt><trkpt lat="39.22623036" lon="-0.31878565"><ele>16.0</ele><time>2022-10-31T15:08:00.0000000+00:00</time></trkpt><trkpt lat="39.22616992" lon="-0.31879144"><ele>16.2</ele><time>2022-10-31T15:08:01.0000000+00:00</time></trkpt><trkpt lat="39.22611108" lon="-0.31880057"><ele>16.2</ele><time>2022-10-31T15:08:02.0000000+00:00</time></trkpt><trkpt lat="39.22605157" lon="-0.3188103"><ele>16.2</ele><time>2022-10-31T15:08:03.0000000+00:00</time></trkpt><trkpt lat="39.2259903" lon="-0.3188201"><ele>16.2</ele><time>2022-10-31T15:08:04.0000000+00:00</time></trkpt><trkpt lat="39.22593037" lon="-0.31882924"><ele>16.2</ele><time>2022-10-31T15:08:05.0000000+00:00</time></trkpt><trkpt lat="39.22586977" lon="-0.31883653"><ele>16.2</ele><time>2022-10-31T15:08:06.0000000+00:00</time></trkpt><trkpt lat="39.22581428" lon="-0.3188455"><ele>16.2</ele><time>2022-10-31T15:08:07.0000000+00:00</time></trkpt><trkpt lat="39.22575837" lon="-0.31885279"><ele>16.2</ele><time>2022-10-31T15:08:08.0000000+00:00</time></trkpt><trkpt lat="39.22569936" lon="-0.31885481"><ele>16.0</ele><time>2022-10-31T15:08:09.0000000+00:00</time></trkpt><trkpt lat="39.22563884" lon="-0.31885539"><ele>16.0</ele><time>2022-10-31T15:08:10.0000000+00:00</time></trkpt><trkpt lat="39.22557917" lon="-0.31885807"><ele>16.2</ele><time>2022-10-31T15:08:11.0000000+00:00</time></trkpt><trkpt lat="39.22552032" lon="-0.31885782"><ele>16.2</ele><time>2022-10-31T15:08:12.0000000+00:00</time></trkpt><trkpt lat="39.22545947" lon="-0.31885581"><ele>16.2</ele><time>2022-10-31T15:08:13.0000000+00:00</time></trkpt><trkpt lat="39.22539979" lon="-0.31885841"><ele>16.2</ele><time>2022-10-31T15:08:14.0000000+00:00</time></trkpt><trkpt lat="39.22534288" lon="-0.31886185"><ele>16.2</ele><time>2022-10-31T15:08:15.0000000+00:00</time></trkpt><trkpt lat="39.22528454" lon="-0.31886394"><ele>16.2</ele><time>2022-10-31T15:08:16.0000000+00:00</time></trkpt><trkpt lat="39.22522763" lon="-0.31886168"><ele>16.2</ele><time>2022-10-31T15:08:17.0000000+00:00</time></trkpt><trkpt lat="39.22517306" lon="-0.31885732"><ele>16.2</ele><time>2022-10-31T15:08:18.0000000+00:00</time></trkpt><trkpt lat="39.22512285" lon="-0.31885623"><ele>16.4</ele><time>2022-10-31T15:08:19.0000000+00:00</time></trkpt><trkpt lat="39.22507667" lon="-0.31885615"><ele>16.4</ele><time>2022-10-31T15:08:20.0000000+00:00</time></trkpt><trkpt lat="39.22502856" lon="-0.31885682"><ele>16.4</ele><time>2022-10-31T15:08:21.0000000+00:00</time></trkpt><trkpt lat="39.22498212" lon="-0.31886268"><ele>16.4</ele><time>2022-10-31T15:08:22.0000000+00:00</time></trkpt><trkpt lat="39.2249372" lon="-0.31886897"><ele>16.6</ele><time>2022-10-31T15:08:23.0000000+00:00</time></trkpt><trkpt lat="39.22489227" lon="-0.31887559"><ele>16.6</ele><time>2022-10-31T15:08:24.0000000+00:00</time></trkpt><trkpt lat="39.22484877" lon="-0.31888699"><ele>16.6</ele><time>2022-10-31T15:08:25.0000000+00:00</time></trkpt><trkpt lat="39.22480753" lon="-0.31890694"><ele>16.6</ele><time>2022-10-31T15:08:26.0000000+00:00</time></trkpt><trkpt lat="39.22477174" lon="-0.31894139"><ele>16.6</ele><time>2022-10-31T15:08:27.0000000+00:00</time></trkpt><trkpt lat="39.22474173" lon="-0.31898414"><ele>16.6</ele><time>2022-10-31T15:08:28.0000000+00:00</time></trkpt><trkpt lat="39.22472111" lon="-0.31903535"><ele>16.6</ele><time>2022-10-31T15:08:29.0000000+00:00</time></trkpt><trkpt lat="39.22470929" lon="-0.3190947"><ele>16.6</ele><time>2022-10-31T15:08:30.0000000+00:00</time></trkpt><trkpt lat="39.22470426" lon="-0.31915924"><ele>16.6</ele><time>2022-10-31T15:08:31.0000000+00:00</time></trkpt><trkpt lat="39.22470468" lon="-0.31922596"><ele>16.6</ele><time>2022-10-31T15:08:32.0000000+00:00</time></trkpt><trkpt lat="39.22470778" lon="-0.31929226"><ele>16.8</ele><time>2022-10-31T15:08:33.0000000+00:00</time></trkpt><trkpt lat="39.2247103" lon="-0.31934716"><ele>16.8</ele><time>2022-10-31T15:08:34.0000000+00:00</time></trkpt><trkpt lat="39.22471331" lon="-0.31943106"><ele>16.8</ele><time>2022-10-31T15:08:35.0000000+00:00</time></trkpt><trkpt lat="39.22471642" lon="-0.31949937"><ele>16.8</ele><time>2022-10-31T15:08:36.0000000+00:00</time></trkpt><trkpt lat="39.22472136" lon="-0.31957054"><ele>16.8</ele><time>2022-10-31T15:08:37.0000000+00:00</time></trkpt><trkpt lat="39.22472958" lon="-0.31964061"><ele>16.8</ele><time>2022-10-31T15:08:38.0000000+00:00</time></trkpt><trkpt lat="39.22473444" lon="-0.31970951"><ele>16.8</ele><time>2022-10-31T15:08:39.0000000+00:00</time></trkpt><trkpt lat="39.22473528" lon="-0.31977941"><ele>16.8</ele><time>2022-10-31T15:08:40.0000000+00:00</time></trkpt><trkpt lat="39.22473326" lon="-0.31985426"><ele>16.8</ele><time>2022-10-31T15:08:41.0000000+00:00</time></trkpt><trkpt lat="39.22473201" lon="-0.31992593"><ele>16.8</ele><time>2022-10-31T15:08:42.0000000+00:00</time></trkpt><trkpt lat="39.22473234" lon="-0.32000028"><ele>16.8</ele><time>2022-10-31T15:08:43.0000000+00:00</time></trkpt><trkpt lat="39.2247362" lon="-0.32007848"><ele>16.8</ele><time>2022-10-31T15:08:44.0000000+00:00</time></trkpt><trkpt lat="39.2247419" lon="-0.32015475"><ele>16.8</ele><time>2022-10-31T15:08:45.0000000+00:00</time></trkpt><trkpt lat="39.22474408" lon="-0.32022969"><ele>16.8</ele><time>2022-10-31T15:08:46.0000000+00:00</time></trkpt><trkpt lat="39.22475061" lon="-0.32030404"><ele>16.8</ele><time>2022-10-31T15:08:47.0000000+00:00</time></trkpt><trkpt lat="39.22475782" lon="-0.32037797"><ele>16.8</ele><time>2022-10-31T15:08:48.0000000+00:00</time></trkpt><trkpt lat="39.22476076" lon="-0.32045047"><ele>16.8</ele><time>2022-10-31T15:08:49.0000000+00:00</time></trkpt><trkpt lat="39.22476126" lon="-0.32052163"><ele>16.8</ele><time>2022-10-31T15:08:50.0000000+00:00</time></trkpt><trkpt lat="39.2247605" lon="-0.32059053"><ele>16.8</ele><time>2022-10-31T15:08:51.0000000+00:00</time></trkpt><trkpt lat="39.22476436" lon="-0.32065331"><ele>16.8</ele><time>2022-10-31T15:08:52.0000000+00:00</time></trkpt><trkpt lat="39.22477207" lon="-0.32070746"><ele>16.6</ele><time>2022-10-31T15:08:53.0000000+00:00</time></trkpt><trkpt lat="39.22477786" lon="-0.32075658"><ele>16.6</ele><time>2022-10-31T15:08:54.0000000+00:00</time></trkpt><trkpt lat="39.22478003" lon="-0.32079823"><ele>16.6</ele><time>2022-10-31T15:08:55.0000000+00:00</time></trkpt><trkpt lat="39.22477978" lon="-0.32082891"><ele>16.4</ele><time>2022-10-31T15:08:56.0000000+00:00</time></trkpt><trkpt lat="39.22478071" lon="-0.3208559"><ele>16.4</ele><time>2022-10-31T15:08:57.0000000+00:00</time></trkpt><trkpt lat="39.22478112" lon="-0.32087937"><ele>16.4</ele><time>2022-10-31T15:08:58.0000000+00:00</time></trkpt><trkpt lat="39.22477886" lon="-0.32089672"><ele>16.4</ele><time>2022-10-31T15:08:59.0000000+00:00</time></trkpt><trkpt lat="39.22477568" lon="-0.32091382"><ele>16.4</ele><time>2022-10-31T15:09:00.0000000+00:00</time></trkpt><trkpt lat="39.22476813" lon="-0.32092773"><ele>16.4</ele><time>2022-10-31T15:09:01.0000000+00:00</time></trkpt><trkpt lat="39.22475145" lon="-0.32093603"><ele>16.4</ele><time>2022-10-31T15:09:02.0000000+00:00</time></trkpt><trkpt lat="39.22472069" lon="-0.32094123"><ele>16.4</ele><time>2022-10-31T15:09:03.0000000+00:00</time></trkpt><trkpt lat="39.2246813" lon="-0.32093117"><ele>16.4</ele><time>2022-10-31T15:09:04.0000000+00:00</time></trkpt><trkpt lat="39.22463436" lon="-0.32090829"><ele>16.4</ele><time>2022-10-31T15:09:05.0000000+00:00</time></trkpt><trkpt lat="39.22458063" lon="-0.32087971"><ele>16.4</ele><time>2022-10-31T15:09:06.0000000+00:00</time></trkpt><trkpt lat="39.22452405" lon="-0.32084693"><ele>16.6</ele><time>2022-10-31T15:09:07.0000000+00:00</time></trkpt><trkpt lat="39.22446295" lon="-0.32080988"><ele>16.6</ele><time>2022-10-31T15:09:08.0000000+00:00</time></trkpt><trkpt lat="39.22439966" lon="-0.32076781"><ele>16.8</ele><time>2022-10-31T15:09:09.0000000+00:00</time></trkpt><trkpt lat="39.22433336" lon="-0.32072322"><ele>16.8</ele><time>2022-10-31T15:09:10.0000000+00:00</time></trkpt><trkpt lat="39.22426773" lon="-0.32067468"><ele>17.2</ele><time>2022-10-31T15:09:11.0000000+00:00</time></trkpt><trkpt lat="39.22419959" lon="-0.3206197"><ele>17.4</ele><time>2022-10-31T15:09:12.0000000+00:00</time></trkpt><trkpt lat="39.22413345" lon="-0.32057318"><ele>17.4</ele><time>2022-10-31T15:09:13.0000000+00:00</time></trkpt><trkpt lat="39.22406707" lon="-0.32052934"><ele>17.6</ele><time>2022-10-31T15:09:14.0000000+00:00</time></trkpt><trkpt lat="39.22400538" lon="-0.3204871"><ele>17.6</ele><time>2022-10-31T15:09:15.0000000+00:00</time></trkpt><trkpt lat="39.2239493" lon="-0.32044779"><ele>17.6</ele><time>2022-10-31T15:09:16.0000000+00:00</time></trkpt><trkpt lat="39.22389943" lon="-0.32041107"><ele>17.4</ele><time>2022-10-31T15:09:17.0000000+00:00</time></trkpt><trkpt lat="39.22385115" lon="-0.32037662"><ele>17.2</ele><time>2022-10-31T15:09:18.0000000+00:00</time></trkpt><trkpt lat="39.22380111" lon="-0.32034829"><ele>17.2</ele><time>2022-10-31T15:09:19.0000000+00:00</time></trkpt><trkpt lat="39.22374906" lon="-0.32032223"><ele>17.0</ele><time>2022-10-31T15:09:20.0000000+00:00</time></trkpt><trkpt lat="39.22370019" lon="-0.32029306"><ele>16.8</ele><time>2022-10-31T15:09:21.0000000+00:00</time></trkpt><trkpt lat="39.22365015" lon="-0.32025517"><ele>16.8</ele><time>2022-10-31T15:09:22.0000000+00:00</time></trkpt><trkpt lat="39.22359634" lon="-0.32021343"><ele>16.8</ele><time>2022-10-31T15:09:23.0000000+00:00</time></trkpt><trkpt lat="39.22353624" lon="-0.32017102"><ele>17.0</ele><time>2022-10-31T15:09:24.0000000+00:00</time></trkpt><trkpt lat="39.22347589" lon="-0.32013179"><ele>17.0</ele><time>2022-10-31T15:09:25.0000000+00:00</time></trkpt><trkpt lat="39.22341705" lon="-0.32009206"><ele>17.0</ele><time>2022-10-31T15:09:26.0000000+00:00</time></trkpt><trkpt lat="39.22335461" lon="-0.32005183"><ele>17.0</ele><time>2022-10-31T15:09:27.0000000+00:00</time></trkpt><trkpt lat="39.22328898" lon="-0.32001486"><ele>17.2</ele><time>2022-10-31T15:09:28.0000000+00:00</time></trkpt><trkpt lat="39.22322469" lon="-0.31997806"><ele>17.2</ele><time>2022-10-31T15:09:29.0000000+00:00</time></trkpt><trkpt lat="39.2231625" lon="-0.31994538"><ele>17.2</ele><time>2022-10-31T15:09:30.0000000+00:00</time></trkpt><trkpt lat="39.22310039" lon="-0.31991378"><ele>17.2</ele><time>2022-10-31T15:09:31.0000000+00:00</time></trkpt><trkpt lat="39.22303693" lon="-0.31988595"><ele>17.0</ele><time>2022-10-31T15:09:32.0000000+00:00</time></trkpt><trkpt lat="39.22296829" lon="-0.31985586"><ele>17.2</ele><time>2022-10-31T15:09:33.0000000+00:00</time></trkpt><trkpt lat="39.2228967" lon="-0.31982518"><ele>17.0</ele><time>2022-10-31T15:09:34.0000000+00:00</time></trkpt><trkpt lat="39.22282646" lon="-0.31979769"><ele>16.8</ele><time>2022-10-31T15:09:35.0000000+00:00</time></trkpt><trkpt lat="39.22275513" lon="-0.31977355"><ele>16.6</ele><time>2022-10-31T15:09:36.0000000+00:00</time></trkpt><trkpt lat="39.22268766" lon="-0.31974656"><ele>16.6</ele><time>2022-10-31T15:09:37.0000000+00:00</time></trkpt><trkpt lat="39.2226196" lon="-0.31972141"><ele>16.6</ele><time>2022-10-31T15:09:38.0000000+00:00</time></trkpt><trkpt lat="39.22255548" lon="-0.3196997"><ele>16.4</ele><time>2022-10-31T15:09:39.0000000+00:00</time></trkpt><trkpt lat="39.22249345" lon="-0.31967799"><ele>16.4</ele><time>2022-10-31T15:09:40.0000000+00:00</time></trkpt><trkpt lat="39.22243436" lon="-0.31965452"><ele>16.4</ele><time>2022-10-31T15:09:41.0000000+00:00</time></trkpt><trkpt lat="39.22237267" lon="-0.31962887"><ele>16.4</ele><time>2022-10-31T15:09:42.0000000+00:00</time></trkpt><trkpt lat="39.22230561" lon="-0.31960079"><ele>16.6</ele><time>2022-10-31T15:09:43.0000000+00:00</time></trkpt><trkpt lat="39.22224166" lon="-0.3195728"><ele>16.6</ele><time>2022-10-31T15:09:44.0000000+00:00</time></trkpt><trkpt lat="39.22217988" lon="-0.31954397"><ele>16.6</ele><time>2022-10-31T15:09:45.0000000+00:00</time></trkpt><trkpt lat="39.22211995" lon="-0.31951471"><ele>16.6</ele><time>2022-10-31T15:09:46.0000000+00:00</time></trkpt><trkpt lat="39.22206162" lon="-0.31948429"><ele>16.6</ele><time>2022-10-31T15:09:47.0000000+00:00</time></trkpt><trkpt lat="39.22200739" lon="-0.31945143"><ele>16.6</ele><time>2022-10-31T15:09:48.0000000+00:00</time></trkpt><trkpt lat="39.22195265" lon="-0.31941664"><ele>16.6</ele><time>2022-10-31T15:09:49.0000000+00:00</time></trkpt><trkpt lat="39.22190169" lon="-0.31938555"><ele>16.6</ele><time>2022-10-31T15:09:50.0000000+00:00</time></trkpt><trkpt lat="39.22185048" lon="-0.31935722"><ele>16.6</ele><time>2022-10-31T15:09:51.0000000+00:00</time></trkpt><trkpt lat="39.22179801" lon="-0.3193314"><ele>16.6</ele><time>2022-10-31T15:09:52.0000000+00:00</time></trkpt><trkpt lat="39.22174478" lon="-0.31930651"><ele>16.8</ele><time>2022-10-31T15:09:53.0000000+00:00</time></trkpt><trkpt lat="39.22168694" lon="-0.31928798"><ele>16.8</ele><time>2022-10-31T15:09:54.0000000+00:00</time></trkpt><trkpt lat="39.22162551" lon="-0.31927717"><ele>16.8</ele><time>2022-10-31T15:09:55.0000000+00:00</time></trkpt><trkpt lat="39.22156381" lon="-0.319276"><ele>16.8</ele><time>2022-10-31T15:09:56.0000000+00:00</time></trkpt><trkpt lat="39.22150548" lon="-0.31928346"><ele>16.8</ele><time>2022-10-31T15:09:57.0000000+00:00</time></trkpt><trkpt lat="39.22145535" lon="-0.31929678"><ele>17.0</ele><time>2022-10-31T15:09:58.0000000+00:00</time></trkpt><trkpt lat="39.22141244" lon="-0.3193148"><ele>16.8</ele><time>2022-10-31T15:09:59.0000000+00:00</time></trkpt><trkpt lat="39.2213738" lon="-0.31933165"><ele>16.8</ele><time>2022-10-31T15:10:00.0000000+00:00</time></trkpt><trkpt lat="39.22133725" lon="-0.31934473"><ele>16.8</ele><time>2022-10-31T15:10:01.0000000+00:00</time></trkpt><trkpt lat="39.2213059" lon="-0.31935546"><ele>16.8</ele><time>2022-10-31T15:10:02.0000000+00:00</time></trkpt><trkpt lat="39.22127506" lon="-0.31936082"><ele>16.8</ele><time>2022-10-31T15:10:03.0000000+00:00</time></trkpt><trkpt lat="39.22124907" lon="-0.31937063"><ele>16.6</ele><time>2022-10-31T15:10:04.0000000+00:00</time></trkpt><trkpt lat="39.22121823" lon="-0.31938069"><ele>16.6</ele><time>2022-10-31T15:10:05.0000000+00:00</time></trkpt><trkpt lat="39.22118604" lon="-0.3193894"><ele>16.6</ele><time>2022-10-31T15:10:06.0000000+00:00</time></trkpt><trkpt lat="39.22115025" lon="-0.31939569"><ele>16.6</ele><time>2022-10-31T15:10:07.0000000+00:00</time></trkpt><trkpt lat="39.22111404" lon="-0.31939745"><ele>16.6</ele><time>2022-10-31T15:10:08.0000000+00:00</time></trkpt><trkpt lat="39.2210728" lon="-0.31939745"><ele>16.6</ele><time>2022-10-31T15:10:09.0000000+00:00</time></trkpt><trkpt lat="39.22103106" lon="-0.31939963"><ele>16.6</ele><time>2022-10-31T15:10:10.0000000+00:00</time></trkpt><trkpt lat="39.2209853" lon="-0.31940457"><ele>16.8</ele><time>2022-10-31T15:10:11.0000000+00:00</time></trkpt><trkpt lat="39.22093693" lon="-0.31941237"><ele>16.8</ele><time>2022-10-31T15:10:12.0000000+00:00</time></trkpt><trkpt lat="39.22088672" lon="-0.31941924"><ele>16.8</ele><time>2022-10-31T15:10:13.0000000+00:00</time></trkpt><trkpt lat="39.22083736" lon="-0.31942494"><ele>16.8</ele><time>2022-10-31T15:10:14.0000000+00:00</time></trkpt><trkpt lat="39.22078597" lon="-0.31943232"><ele>17.0</ele><time>2022-10-31T15:10:15.0000000+00:00</time></trkpt><trkpt lat="39.22073124" lon="-0.31943928"><ele>17.0</ele><time>2022-10-31T15:10:16.0000000+00:00</time></trkpt><trkpt lat="39.22067592" lon="-0.31944908"><ele>17.0</ele><time>2022-10-31T15:10:17.0000000+00:00</time></trkpt><trkpt lat="39.2206206" lon="-0.31945738"><ele>17.0</ele><time>2022-10-31T15:10:18.0000000+00:00</time></trkpt><trkpt lat="39.2205636" lon="-0.31946769"><ele>17.0</ele><time>2022-10-31T15:10:19.0000000+00:00</time></trkpt><trkpt lat="39.2205092" lon="-0.31947959"><ele>17.0</ele><time>2022-10-31T15:10:20.0000000+00:00</time></trkpt><trkpt lat="39.22045481" lon="-0.31948797"><ele>17.0</ele><time>2022-10-31T15:10:21.0000000+00:00</time></trkpt><trkpt lat="39.22039915" lon="-0.31949401"><ele>17.0</ele><time>2022-10-31T15:10:22.0000000+00:00</time></trkpt><trkpt lat="39.22034299" lon="-0.31950248"><ele>17.0</ele><time>2022-10-31T15:10:23.0000000+00:00</time></trkpt><trkpt lat="39.22028583" lon="-0.31951354"><ele>17.0</ele><time>2022-10-31T15:10:24.0000000+00:00</time></trkpt><trkpt lat="39.220229" lon="-0.31952393"><ele>17.0</ele><time>2022-10-31T15:10:25.0000000+00:00</time></trkpt><trkpt lat="39.22017493" lon="-0.31953366"><ele>17.0</ele><time>2022-10-31T15:10:26.0000000+00:00</time></trkpt><trkpt lat="39.22012305" lon="-0.31954103"><ele>17.0</ele><time>2022-10-31T15:10:27.0000000+00:00</time></trkpt><trkpt lat="39.22007016" lon="-0.31954682"><ele>16.2</ele><time>2022-10-31T15:10:28.0000000+00:00</time></trkpt><trkpt lat="39.22001878" lon="-0.31955285"><ele>15.8</ele><time>2022-10-31T15:10:29.0000000+00:00</time></trkpt><trkpt lat="39.21996849" lon="-0.3195666"><ele>15.4</ele><time>2022-10-31T15:10:30.0000000+00:00</time></trkpt><trkpt lat="39.21991954" lon="-0.31957942"><ele>15.4</ele><time>2022-10-31T15:10:31.0000000+00:00</time></trkpt><trkpt lat="39.21987218" lon="-0.31959124"><ele>15.2</ele><time>2022-10-31T15:10:32.0000000+00:00</time></trkpt><trkpt lat="39.21982574" lon="-0.31960364"><ele>15.2</ele><time>2022-10-31T15:10:33.0000000+00:00</time></trkpt><trkpt lat="39.21978191" lon="-0.31961446"><ele>15.2</ele><time>2022-10-31T15:10:34.0000000+00:00</time></trkpt><trkpt lat="39.21973748" lon="-0.31962544"><ele>15.2</ele><time>2022-10-31T15:10:35.0000000+00:00</time></trkpt><trkpt lat="39.2196918" lon="-0.31963583"><ele>15.2</ele><time>2022-10-31T15:10:36.0000000+00:00</time></trkpt><trkpt lat="39.21964813" lon="-0.31964824"><ele>15.4</ele><time>2022-10-31T15:10:37.0000000+00:00</time></trkpt><trkpt lat="39.21960513" lon="-0.31966089"><ele>15.6</ele><time>2022-10-31T15:10:38.0000000+00:00</time></trkpt><trkpt lat="39.21956264" lon="-0.31967908"><ele>16.2</ele><time>2022-10-31T15:10:39.0000000+00:00</time></trkpt><trkpt lat="39.21951721" lon="-0.31969492"><ele>16.6</ele><time>2022-10-31T15:10:40.0000000+00:00</time></trkpt><trkpt lat="39.21946985" lon="-0.31971202"><ele>16.8</ele><time>2022-10-31T15:10:41.0000000+00:00</time></trkpt><trkpt lat="39.2194214" lon="-0.3197282"><ele>17.0</ele><time>2022-10-31T15:10:42.0000000+00:00</time></trkpt><trkpt lat="39.21937136" lon="-0.3197453"><ele>17.0</ele><time>2022-10-31T15:10:43.0000000+00:00</time></trkpt><trkpt lat="39.21932048" lon="-0.31976424"><ele>17.2</ele><time>2022-10-31T15:10:44.0000000+00:00</time></trkpt><trkpt lat="39.21926977" lon="-0.31978461"><ele>17.2</ele><time>2022-10-31T15:10:45.0000000+00:00</time></trkpt><trkpt lat="39.21921914" lon="-0.31980624"><ele>17.2</ele><time>2022-10-31T15:10:46.0000000+00:00</time></trkpt><trkpt lat="39.21916542" lon="-0.31982929"><ele>17.2</ele><time>2022-10-31T15:10:47.0000000+00:00</time></trkpt><trkpt lat="39.21911345" lon="-0.31984932"><ele>17.2</ele><time>2022-10-31T15:10:48.0000000+00:00</time></trkpt><trkpt lat="39.21906299" lon="-0.31987203"><ele>17.2</ele><time>2022-10-31T15:10:49.0000000+00:00</time></trkpt><trkpt lat="39.21901035" lon="-0.31989575"><ele>17.2</ele><time>2022-10-31T15:10:50.0000000+00:00</time></trkpt><trkpt lat="39.21895956" lon="-0.3199209"><ele>17.2</ele><time>2022-10-31T15:10:51.0000000+00:00</time></trkpt><trkpt lat="39.21890776" lon="-0.31994688"><ele>17.2</ele><time>2022-10-31T15:10:52.0000000+00:00</time></trkpt><trkpt lat="39.21885696" lon="-0.31997379"><ele>17.2</ele><time>2022-10-31T15:10:53.0000000+00:00</time></trkpt><trkpt lat="39.21880391" lon="-0.32000279"><ele>17.4</ele><time>2022-10-31T15:10:54.0000000+00:00</time></trkpt><trkpt lat="39.21875143" lon="-0.32002978"><ele>17.2</ele><time>2022-10-31T15:10:55.0000000+00:00</time></trkpt><trkpt lat="39.21869854" lon="-0.32005685"><ele>17.4</ele><time>2022-10-31T15:10:56.0000000+00:00</time></trkpt><trkpt lat="39.21864348" lon="-0.3200825"><ele>17.4</ele><time>2022-10-31T15:10:57.0000000+00:00</time></trkpt><trkpt lat="39.21858765" lon="-0.32010891"><ele>17.4</ele><time>2022-10-31T15:10:58.0000000+00:00</time></trkpt><trkpt lat="39.21853518" lon="-0.32013724"><ele>17.4</ele><time>2022-10-31T15:10:59.0000000+00:00</time></trkpt><trkpt lat="39.2184874" lon="-0.3201659"><ele>17.4</ele><time>2022-10-31T15:11:00.0000000+00:00</time></trkpt><trkpt lat="39.2184382" lon="-0.32019147"><ele>17.4</ele><time>2022-10-31T15:11:01.0000000+00:00</time></trkpt><trkpt lat="39.218388" lon="-0.32021863"><ele>17.4</ele><time>2022-10-31T15:11:02.0000000+00:00</time></trkpt><trkpt lat="39.21833494" lon="-0.32024201"><ele>17.4</ele><time>2022-10-31T15:11:03.0000000+00:00</time></trkpt><trkpt lat="39.21828297" lon="-0.32026741"><ele>17.4</ele><time>2022-10-31T15:11:04.0000000+00:00</time></trkpt><trkpt lat="39.21823075" lon="-0.32029356"><ele>17.4</ele><time>2022-10-31T15:11:05.0000000+00:00</time></trkpt><trkpt lat="39.21817484" lon="-0.32031259"><ele>17.4</ele><time>2022-10-31T15:11:06.0000000+00:00</time></trkpt><trkpt lat="39.218116" lon="-0.32033019"><ele>17.4</ele><time>2022-10-31T15:11:07.0000000+00:00</time></trkpt><trkpt lat="39.21805716" lon="-0.32034662"><ele>17.4</ele><time>2022-10-31T15:11:08.0000000+00:00</time></trkpt><trkpt lat="39.218" lon="-0.32035768"><ele>17.6</ele><time>2022-10-31T15:11:09.0000000+00:00</time></trkpt><trkpt lat="39.21794292" lon="-0.3203607"><ele>17.6</ele><time>2022-10-31T15:11:10.0000000+00:00</time></trkpt><trkpt lat="39.21788366" lon="-0.32036263"><ele>17.6</ele><time>2022-10-31T15:11:11.0000000+00:00</time></trkpt><trkpt lat="39.21782549" lon="-0.32036229"><ele>17.6</ele><time>2022-10-31T15:11:12.0000000+00:00</time></trkpt><trkpt lat="39.21776706" lon="-0.32035961"><ele>17.6</ele><time>2022-10-31T15:11:13.0000000+00:00</time></trkpt><trkpt lat="39.21770948" lon="-0.32035743"><ele>17.6</ele><time>2022-10-31T15:11:14.0000000+00:00</time></trkpt><trkpt lat="39.21765265" lon="-0.3203576"><ele>17.6</ele><time>2022-10-31T15:11:15.0000000+00:00</time></trkpt><trkpt lat="39.21759641" lon="-0.32035701"><ele>17.6</ele><time>2022-10-31T15:11:16.0000000+00:00</time></trkpt><trkpt lat="39.21754134" lon="-0.32035718"><ele>17.6</ele><time>2022-10-31T15:11:17.0000000+00:00</time></trkpt><trkpt lat="39.2174882" lon="-0.32035751"><ele>17.6</ele><time>2022-10-31T15:11:18.0000000+00:00</time></trkpt><trkpt lat="39.21743757" lon="-0.32036137"><ele>17.6</ele><time>2022-10-31T15:11:19.0000000+00:00</time></trkpt><trkpt lat="39.21738535" lon="-0.32037218"><ele>17.4</ele><time>2022-10-31T15:11:20.0000000+00:00</time></trkpt><trkpt lat="39.21733598" lon="-0.32038526"><ele>17.4</ele><time>2022-10-31T15:11:21.0000000+00:00</time></trkpt><trkpt lat="39.21728494" lon="-0.32040278"><ele>17.4</ele><time>2022-10-31T15:11:22.0000000+00:00</time></trkpt><trkpt lat="39.21723624" lon="-0.32042272"><ele>17.4</ele><time>2022-10-31T15:11:23.0000000+00:00</time></trkpt><trkpt lat="39.21718829" lon="-0.32044695"><ele>17.4</ele><time>2022-10-31T15:11:24.0000000+00:00</time></trkpt><trkpt lat="39.21713959" lon="-0.32047176"><ele>17.6</ele><time>2022-10-31T15:11:25.0000000+00:00</time></trkpt><trkpt lat="39.21709207" lon="-0.32049657"><ele>17.6</ele><time>2022-10-31T15:11:26.0000000+00:00</time></trkpt><trkpt lat="39.21704178" lon="-0.32052515"><ele>17.6</ele><time>2022-10-31T15:11:27.0000000+00:00</time></trkpt><trkpt lat="39.21699316" lon="-0.32055767"><ele>17.6</ele><time>2022-10-31T15:11:28.0000000+00:00</time></trkpt><trkpt lat="39.21694296" lon="-0.32059045"><ele>17.6</ele><time>2022-10-31T15:11:29.0000000+00:00</time></trkpt><trkpt lat="39.21689292" lon="-0.32062381"><ele>17.6</ele><time>2022-10-31T15:11:30.0000000+00:00</time></trkpt><trkpt lat="39.21684112" lon="-0.32065876"><ele>17.6</ele><time>2022-10-31T15:11:31.0000000+00:00</time></trkpt><trkpt lat="39.21678906" lon="-0.32069371"><ele>17.6</ele><time>2022-10-31T15:11:32.0000000+00:00</time></trkpt><trkpt lat="39.21673735" lon="-0.32072556"><ele>17.6</ele><time>2022-10-31T15:11:33.0000000+00:00</time></trkpt><trkpt lat="39.21668655" lon="-0.32075347"><ele>17.6</ele><time>2022-10-31T15:11:34.0000000+00:00</time></trkpt><trkpt lat="39.21663861" lon="-0.32077275"><ele>17.6</ele><time>2022-10-31T15:11:35.0000000+00:00</time></trkpt><trkpt lat="39.21659343" lon="-0.32076881"><ele>17.6</ele><time>2022-10-31T15:11:36.0000000+00:00</time></trkpt><trkpt lat="39.21655647" lon="-0.32074358"><ele>17.6</ele><time>2022-10-31T15:11:37.0000000+00:00</time></trkpt><trkpt lat="39.21652788" lon="-0.32069807"><ele>17.6</ele><time>2022-10-31T15:11:38.0000000+00:00</time></trkpt><trkpt lat="39.21650416" lon="-0.32063596"><ele>17.8</ele><time>2022-10-31T15:11:39.0000000+00:00</time></trkpt><trkpt lat="39.21648044" lon="-0.32056823"><ele>17.8</ele><time>2022-10-31T15:11:40.0000000+00:00</time></trkpt><trkpt lat="39.21645974" lon="-0.32050369"><ele>17.8</ele><time>2022-10-31T15:11:41.0000000+00:00</time></trkpt><trkpt lat="39.21643895" lon="-0.3204384"><ele>17.8</ele><time>2022-10-31T15:11:42.0000000+00:00</time></trkpt><trkpt lat="39.21641506" lon="-0.32037268"><ele>17.8</ele><time>2022-10-31T15:11:43.0000000+00:00</time></trkpt><trkpt lat="39.21639637" lon="-0.32030689"><ele>17.8</ele><time>2022-10-31T15:11:44.0000000+00:00</time></trkpt><trkpt lat="39.21638086" lon="-0.32025173"><ele>17.8</ele><time>2022-10-31T15:11:45.0000000+00:00</time></trkpt><trkpt lat="39.21635128" lon="-0.32017185"><ele>17.6</ele><time>2022-10-31T15:11:46.0000000+00:00</time></trkpt><trkpt lat="39.21632881" lon="-0.32010849"><ele>17.6</ele><time>2022-10-31T15:11:47.0000000+00:00</time></trkpt><trkpt lat="39.21630979" lon="-0.32004445"><ele>17.6</ele><time>2022-10-31T15:11:48.0000000+00:00</time></trkpt><trkpt lat="39.21628858" lon="-0.31997882"><ele>17.6</ele><time>2022-10-31T15:11:49.0000000+00:00</time></trkpt><trkpt lat="39.21626536" lon="-0.31991713"><ele>17.6</ele><time>2022-10-31T15:11:50.0000000+00:00</time></trkpt><trkpt lat="39.21623896" lon="-0.31985393"><ele>17.6</ele><time>2022-10-31T15:11:51.0000000+00:00</time></trkpt><trkpt lat="39.21621733" lon="-0.31978771"><ele>17.8</ele><time>2022-10-31T15:11:52.0000000+00:00</time></trkpt><trkpt lat="39.21620677" lon="-0.31972828"><ele>17.8</ele><time>2022-10-31T15:11:53.0000000+00:00</time></trkpt><trkpt lat="39.21618766" lon="-0.3196453"><ele>17.8</ele><time>2022-10-31T15:11:54.0000000+00:00</time></trkpt><trkpt lat="39.21616855" lon="-0.31957783"><ele>17.8</ele><time>2022-10-31T15:11:55.0000000+00:00</time></trkpt><trkpt lat="39.21614835" lon="-0.31951295"><ele>17.8</ele><time>2022-10-31T15:11:56.0000000+00:00</time></trkpt><trkpt lat="39.21612664" lon="-0.31945227"><ele>17.8</ele><time>2022-10-31T15:11:57.0000000+00:00</time></trkpt><trkpt lat="39.21610368" lon="-0.31939644"><ele>17.8</ele><time>2022-10-31T15:11:58.0000000+00:00</time></trkpt><trkpt lat="39.21608163" lon="-0.31934389"><ele>17.8</ele><time>2022-10-31T15:11:59.0000000+00:00</time></trkpt><trkpt lat="39.21606252" lon="-0.31929066"><ele>17.8</ele><time>2022-10-31T15:12:00.0000000+00:00</time></trkpt><trkpt lat="39.21604433" lon="-0.31923409"><ele>17.8</ele><time>2022-10-31T15:12:01.0000000+00:00</time></trkpt><trkpt lat="39.21601826" lon="-0.31918547"><ele>17.8</ele><time>2022-10-31T15:12:02.0000000+00:00</time></trkpt><trkpt lat="39.2159818" lon="-0.31915261"><ele>17.8</ele><time>2022-10-31T15:12:03.0000000+00:00</time></trkpt><trkpt lat="39.21594199" lon="-0.31914407"><ele>17.6</ele><time>2022-10-31T15:12:04.0000000+00:00</time></trkpt><trkpt lat="39.21590041" lon="-0.31915169"><ele>17.6</ele><time>2022-10-31T15:12:05.0000000+00:00</time></trkpt><trkpt lat="39.21586035" lon="-0.31916427"><ele>17.6</ele><time>2022-10-31T15:12:06.0000000+00:00</time></trkpt><trkpt lat="39.21582196" lon="-0.31918857"><ele>17.6</ele><time>2022-10-31T15:12:07.0000000+00:00</time></trkpt><trkpt lat="39.21578156" lon="-0.31921146"><ele>17.6</ele><time>2022-10-31T15:12:08.0000000+00:00</time></trkpt><trkpt lat="39.21573638" lon="-0.31923962"><ele>17.6</ele><time>2022-10-31T15:12:09.0000000+00:00</time></trkpt><trkpt lat="39.21569925" lon="-0.31926577"><ele>17.6</ele><time>2022-10-31T15:12:10.0000000+00:00</time></trkpt><trkpt lat="39.21564619" lon="-0.3193019"><ele>17.6</ele><time>2022-10-31T15:12:11.0000000+00:00</time></trkpt><trkpt lat="39.21560219" lon="-0.31933392"><ele>17.6</ele><time>2022-10-31T15:12:12.0000000+00:00</time></trkpt><trkpt lat="39.21555785" lon="-0.31936384"><ele>17.6</ele><time>2022-10-31T15:12:13.0000000+00:00</time></trkpt><trkpt lat="39.2155156" lon="-0.31939611"><ele>17.6</ele><time>2022-10-31T15:12:14.0000000+00:00</time></trkpt><trkpt lat="39.2154752" lon="-0.31942561"><ele>17.6</ele><time>2022-10-31T15:12:15.0000000+00:00</time></trkpt><trkpt lat="39.21543396" lon="-0.3194464"><ele>17.6</ele><time>2022-10-31T15:12:16.0000000+00:00</time></trkpt><trkpt lat="39.21539457" lon="-0.3194516"><ele>17.6</ele><time>2022-10-31T15:12:17.0000000+00:00</time></trkpt><trkpt lat="39.21535081" lon="-0.31944615"><ele>17.6</ele><time>2022-10-31T15:12:18.0000000+00:00</time></trkpt><trkpt lat="39.21530781" lon="-0.31942972"><ele>17.6</ele><time>2022-10-31T15:12:19.0000000+00:00</time></trkpt><trkpt lat="39.21527177" lon="-0.31940851"><ele>17.6</ele><time>2022-10-31T15:12:20.0000000+00:00</time></trkpt><trkpt lat="39.21522039" lon="-0.3193708"><ele>17.8</ele><time>2022-10-31T15:12:21.0000000+00:00</time></trkpt><trkpt lat="39.21518074" lon="-0.31933333"><ele>17.8</ele><time>2022-10-31T15:12:22.0000000+00:00</time></trkpt><trkpt lat="39.21514009" lon="-0.31929033"><ele>17.8</ele><time>2022-10-31T15:12:23.0000000+00:00</time></trkpt><trkpt lat="39.21509869" lon="-0.31924859"><ele>18.0</ele><time>2022-10-31T15:12:24.0000000+00:00</time></trkpt><trkpt lat="39.21505745" lon="-0.31920861"><ele>18.0</ele><time>2022-10-31T15:12:25.0000000+00:00</time></trkpt><trkpt lat="39.21501545" lon="-0.3191682"><ele>18.0</ele><time>2022-10-31T15:12:26.0000000+00:00</time></trkpt><trkpt lat="39.21497103" lon="-0.31912755"><ele>18.0</ele><time>2022-10-31T15:12:27.0000000+00:00</time></trkpt><trkpt lat="39.21492417" lon="-0.31908531"><ele>18.0</ele><time>2022-10-31T15:12:28.0000000+00:00</time></trkpt><trkpt lat="39.21487715" lon="-0.31904633"><ele>18.0</ele><time>2022-10-31T15:12:29.0000000+00:00</time></trkpt><trkpt lat="39.21482812" lon="-0.31900778"><ele>18.0</ele><time>2022-10-31T15:12:30.0000000+00:00</time></trkpt><trkpt lat="39.21477841" lon="-0.31896687"><ele>18.0</ele><time>2022-10-31T15:12:31.0000000+00:00</time></trkpt><trkpt lat="39.21473122" lon="-0.31892597"><ele>18.0</ele><time>2022-10-31T15:12:32.0000000+00:00</time></trkpt><trkpt lat="39.21468026" lon="-0.31888347"><ele>18.0</ele><time>2022-10-31T15:12:33.0000000+00:00</time></trkpt><trkpt lat="39.21462846" lon="-0.31884039"><ele>18.0</ele><time>2022-10-31T15:12:34.0000000+00:00</time></trkpt><trkpt lat="39.21458295" lon="-0.31880259"><ele>18.0</ele><time>2022-10-31T15:12:35.0000000+00:00</time></trkpt><trkpt lat="39.21453651" lon="-0.31877283"><ele>18.0</ele><time>2022-10-31T15:12:36.0000000+00:00</time></trkpt><trkpt lat="39.21448823" lon="-0.31874182"><ele>18.0</ele><time>2022-10-31T15:12:37.0000000+00:00</time></trkpt><trkpt lat="39.21444029" lon="-0.31871265"><ele>18.2</ele><time>2022-10-31T15:12:38.0000000+00:00</time></trkpt><trkpt lat="39.21439226" lon="-0.31867912"><ele>18.2</ele><time>2022-10-31T15:12:39.0000000+00:00</time></trkpt><trkpt lat="39.21434197" lon="-0.31864576"><ele>18.2</ele><time>2022-10-31T15:12:40.0000000+00:00</time></trkpt><trkpt lat="39.21429084" lon="-0.31860922"><ele>18.2</ele><time>2022-10-31T15:12:41.0000000+00:00</time></trkpt><trkpt lat="39.21423996" lon="-0.31857007"><ele>18.2</ele><time>2022-10-31T15:12:42.0000000+00:00</time></trkpt><trkpt lat="39.21418757" lon="-0.31853185"><ele>18.2</ele><time>2022-10-31T15:12:43.0000000+00:00</time></trkpt><trkpt lat="39.21413787" lon="-0.31849288"><ele>18.2</ele><time>2022-10-31T15:12:44.0000000+00:00</time></trkpt><trkpt lat="39.21410115" lon="-0.31845977"><ele>18.2</ele><time>2022-10-31T15:12:45.0000000+00:00</time></trkpt><trkpt lat="39.21404684" lon="-0.31842104"><ele>18.2</ele><time>2022-10-31T15:12:46.0000000+00:00</time></trkpt><trkpt lat="39.21400242" lon="-0.31839598"><ele>18.2</ele><time>2022-10-31T15:12:47.0000000+00:00</time></trkpt><trkpt lat="39.21397048" lon="-0.31837762"><ele>18.2</ele><time>2022-10-31T15:12:48.0000000+00:00</time></trkpt><trkpt lat="39.21392597" lon="-0.31835575"><ele>18.2</ele><time>2022-10-31T15:12:49.0000000+00:00</time></trkpt><trkpt lat="39.21389379" lon="-0.31834594"><ele>18.2</ele><time>2022-10-31T15:12:50.0000000+00:00</time></trkpt><trkpt lat="39.21386696" lon="-0.31833898"><ele>18.4</ele><time>2022-10-31T15:12:51.0000000+00:00</time></trkpt><trkpt lat="39.21384433" lon="-0.31833429"><ele>18.6</ele><time>2022-10-31T15:12:52.0000000+00:00</time></trkpt><trkpt lat="39.21382832" lon="-0.31833152"><ele>18.6</ele><time>2022-10-31T15:12:53.0000000+00:00</time></trkpt><trkpt lat="39.21380703" lon="-0.31832926"><ele>18.8</ele><time>2022-10-31T15:12:54.0000000+00:00</time></trkpt><trkpt lat="39.21377711" lon="-0.31832591"><ele>19.0</ele><time>2022-10-31T15:12:55.0000000+00:00</time></trkpt><trkpt lat="39.21376077" lon="-0.31832683"><ele>19.2</ele><time>2022-10-31T15:12:56.0000000+00:00</time></trkpt><trkpt lat="39.21374207" lon="-0.31833177"><ele>19.4</ele><time>2022-10-31T15:12:57.0000000+00:00</time></trkpt><trkpt lat="39.21372891" lon="-0.31833915"><ele>19.6</ele><time>2022-10-31T15:12:58.0000000+00:00</time></trkpt><trkpt lat="39.21371425" lon="-0.31834435"><ele>19.8</ele><time>2022-10-31T15:12:59.0000000+00:00</time></trkpt><trkpt lat="39.21369958" lon="-0.31834896"><ele>20.0</ele><time>2022-10-31T15:13:00.0000000+00:00</time></trkpt><trkpt lat="39.21368809" lon="-0.31835516"><ele>20.0</ele><time>2022-10-31T15:13:01.0000000+00:00</time></trkpt><trkpt lat="39.21367561" lon="-0.3183565"><ele>20.2</ele><time>2022-10-31T15:13:02.0000000+00:00</time></trkpt><trkpt lat="39.21366127" lon="-0.31835944"><ele>20.4</ele><time>2022-10-31T15:13:03.0000000+00:00</time></trkpt><trkpt lat="39.21364895" lon="-0.31836329"><ele>20.4</ele><time>2022-10-31T15:13:04.0000000+00:00</time></trkpt><trkpt lat="39.21363495" lon="-0.31836882"><ele>20.6</ele><time>2022-10-31T15:13:05.0000000+00:00</time></trkpt><trkpt lat="39.21362037" lon="-0.31837494"><ele>20.8</ele><time>2022-10-31T15:13:06.0000000+00:00</time></trkpt><trkpt lat="39.21360528" lon="-0.31838307"><ele>21.0</ele><time>2022-10-31T15:13:07.0000000+00:00</time></trkpt><trkpt lat="39.21359011" lon="-0.3183907"><ele>21.2</ele><time>2022-10-31T15:13:08.0000000+00:00</time></trkpt><trkpt lat="39.21357611" lon="-0.31839975"><ele>21.4</ele><time>2022-10-31T15:13:09.0000000+00:00</time></trkpt><trkpt lat="39.21356237" lon="-0.31840981"><ele>21.4</ele><time>2022-10-31T15:13:10.0000000+00:00</time></trkpt><trkpt lat="39.21354996" lon="-0.3184187"><ele>21.6</ele><time>2022-10-31T15:13:11.0000000+00:00</time></trkpt><trkpt lat="39.21353814" lon="-0.31842875"><ele>21.8</ele><time>2022-10-31T15:13:12.0000000+00:00</time></trkpt><trkpt lat="39.21352691" lon="-0.31844057"><ele>21.8</ele><time>2022-10-31T15:13:13.0000000+00:00</time></trkpt><trkpt lat="39.21351601" lon="-0.31845273"><ele>22.0</ele><time>2022-10-31T15:13:14.0000000+00:00</time></trkpt><trkpt lat="39.21350269" lon="-0.31846136"><ele>22.0</ele><time>2022-10-31T15:13:15.0000000+00:00</time></trkpt><trkpt lat="39.21349028" lon="-0.31846982"><ele>22.2</ele><time>2022-10-31T15:13:16.0000000+00:00</time></trkpt><trkpt lat="39.2134762" lon="-0.31847921"><ele>22.4</ele><time>2022-10-31T15:13:17.0000000+00:00</time></trkpt><trkpt lat="39.21346379" lon="-0.31849003"><ele>22.4</ele><time>2022-10-31T15:13:18.0000000+00:00</time></trkpt><trkpt lat="39.2134539" lon="-0.31850008"><ele>22.4</ele><time>2022-10-31T15:13:19.0000000+00:00</time></trkpt><trkpt lat="39.21344259" lon="-0.31851123"><ele>22.6</ele><time>2022-10-31T15:13:20.0000000+00:00</time></trkpt><trkpt lat="39.21343161" lon="-0.31852204"><ele>22.8</ele><time>2022-10-31T15:13:21.0000000+00:00</time></trkpt><trkpt lat="39.21341887" lon="-0.31853193"><ele>22.8</ele><time>2022-10-31T15:13:22.0000000+00:00</time></trkpt><trkpt lat="39.21340521" lon="-0.31854291"><ele>23.0</ele><time>2022-10-31T15:13:23.0000000+00:00</time></trkpt><trkpt lat="39.2133907" lon="-0.31855331"><ele>23.0</ele><time>2022-10-31T15:13:24.0000000+00:00</time></trkpt><trkpt lat="39.21337537" lon="-0.31856161"><ele>23.0</ele><time>2022-10-31T15:13:25.0000000+00:00</time></trkpt><trkpt lat="39.21336045" lon="-0.31857183"><ele>23.2</ele><time>2022-10-31T15:13:26.0000000+00:00</time></trkpt><trkpt lat="39.21334754" lon="-0.31858206"><ele>23.4</ele><time>2022-10-31T15:13:27.0000000+00:00</time></trkpt><trkpt lat="39.21333371" lon="-0.31858977"><ele>23.4</ele><time>2022-10-31T15:13:28.0000000+00:00</time></trkpt><trkpt lat="39.21331954" lon="-0.31859715"><ele>23.4</ele><time>2022-10-31T15:13:29.0000000+00:00</time></trkpt><trkpt lat="39.21330538" lon="-0.31860737"><ele>23.6</ele><time>2022-10-31T15:13:30.0000000+00:00</time></trkpt><trkpt lat="39.2132923" lon="-0.3186217"><ele>23.6</ele><time>2022-10-31T15:13:31.0000000+00:00</time></trkpt><trkpt lat="39.21327914" lon="-0.31863495"><ele>23.8</ele><time>2022-10-31T15:13:32.0000000+00:00</time></trkpt><trkpt lat="39.21326774" lon="-0.31864677"><ele>23.8</ele><time>2022-10-31T15:13:33.0000000+00:00</time></trkpt><trkpt lat="39.21325584" lon="-0.31865708"><ele>23.8</ele><time>2022-10-31T15:13:34.0000000+00:00</time></trkpt><trkpt lat="39.21324109" lon="-0.31866672"><ele>23.8</ele><time>2022-10-31T15:13:35.0000000+00:00</time></trkpt><trkpt lat="39.21322684" lon="-0.31867753"><ele>24.0</ele><time>2022-10-31T15:13:36.0000000+00:00</time></trkpt><trkpt lat="39.21321259" lon="-0.31868809"><ele>24.0</ele><time>2022-10-31T15:13:37.0000000+00:00</time></trkpt><trkpt lat="39.21319859" lon="-0.31870033"><ele>24.0</ele><time>2022-10-31T15:13:38.0000000+00:00</time></trkpt><trkpt lat="39.21318283" lon="-0.31871206"><ele>24.0</ele><time>2022-10-31T15:13:39.0000000+00:00</time></trkpt><trkpt lat="39.21316397" lon="-0.31872748"><ele>24.0</ele><time>2022-10-31T15:13:40.0000000+00:00</time></trkpt><trkpt lat="39.21314151" lon="-0.31874232"><ele>24.2</ele><time>2022-10-31T15:13:41.0000000+00:00</time></trkpt><trkpt lat="39.21311896" lon="-0.31875791"><ele>24.2</ele><time>2022-10-31T15:13:42.0000000+00:00</time></trkpt><trkpt lat="39.21309792" lon="-0.31877484"><ele>24.2</ele><time>2022-10-31T15:13:43.0000000+00:00</time></trkpt><trkpt lat="39.21307831" lon="-0.31878892"><ele>24.2</ele><time>2022-10-31T15:13:44.0000000+00:00</time></trkpt><trkpt lat="39.21305593" lon="-0.31880183"><ele>24.4</ele><time>2022-10-31T15:13:45.0000000+00:00</time></trkpt><trkpt lat="39.21303313" lon="-0.31881323"><ele>24.4</ele><time>2022-10-31T15:13:46.0000000+00:00</time></trkpt><trkpt lat="39.21300069" lon="-0.31882631"><ele>24.4</ele><time>2022-10-31T15:13:47.0000000+00:00</time></trkpt><trkpt lat="39.21297463" lon="-0.3188398"><ele>24.4</ele><time>2022-10-31T15:13:48.0000000+00:00</time></trkpt><trkpt lat="39.21294462" lon="-0.31885983"><ele>24.4</ele><time>2022-10-31T15:13:49.0000000+00:00</time></trkpt><trkpt lat="39.21291486" lon="-0.31888372"><ele>24.4</ele><time>2022-10-31T15:13:50.0000000+00:00</time></trkpt><trkpt lat="39.21288335" lon="-0.31890845"><ele>24.2</ele><time>2022-10-31T15:13:51.0000000+00:00</time></trkpt><trkpt lat="39.2128489" lon="-0.3189336"><ele>24.0</ele><time>2022-10-31T15:13:52.0000000+00:00</time></trkpt><trkpt lat="39.21281193" lon="-0.31896344"><ele>23.8</ele><time>2022-10-31T15:13:53.0000000+00:00</time></trkpt><trkpt lat="39.21276935" lon="-0.31899311"><ele>23.8</ele><time>2022-10-31T15:13:54.0000000+00:00</time></trkpt><trkpt lat="39.21272627" lon="-0.3190268"><ele>23.6</ele><time>2022-10-31T15:13:55.0000000+00:00</time></trkpt><trkpt lat="39.21267984" lon="-0.31906569"><ele>23.4</ele><time>2022-10-31T15:13:56.0000000+00:00</time></trkpt><trkpt lat="39.21263156" lon="-0.31910853"><ele>23.2</ele><time>2022-10-31T15:13:57.0000000+00:00</time></trkpt><trkpt lat="39.2125795" lon="-0.31915094"><ele>23.0</ele><time>2022-10-31T15:13:58.0000000+00:00</time></trkpt><trkpt lat="39.21251983" lon="-0.3191905"><ele>22.6</ele><time>2022-10-31T15:13:59.0000000+00:00</time></trkpt><trkpt lat="39.21245696" lon="-0.31923459"><ele>22.0</ele><time>2022-10-31T15:14:00.0000000+00:00</time></trkpt><trkpt lat="39.21239091" lon="-0.31928228"><ele>21.8</ele><time>2022-10-31T15:14:01.0000000+00:00</time></trkpt><trkpt lat="39.21231782" lon="-0.31932545"><ele>21.2</ele><time>2022-10-31T15:14:02.0000000+00:00</time></trkpt><trkpt lat="39.21223777" lon="-0.31936074"><ele>20.8</ele><time>2022-10-31T15:14:03.0000000+00:00</time></trkpt><trkpt lat="39.21215161" lon="-0.31938303"><ele>20.4</ele><time>2022-10-31T15:14:04.0000000+00:00</time></trkpt><trkpt lat="39.21206662" lon="-0.31939116"><ele>20.2</ele><time>2022-10-31T15:14:05.0000000+00:00</time></trkpt><trkpt lat="39.21198171" lon="-0.31937767"><ele>20.0</ele><time>2022-10-31T15:14:06.0000000+00:00</time></trkpt><trkpt lat="39.21190669" lon="-0.31933702"><ele>19.6</ele><time>2022-10-31T15:14:07.0000000+00:00</time></trkpt><trkpt lat="39.21184232" lon="-0.31927482"><ele>19.4</ele><time>2022-10-31T15:14:08.0000000+00:00</time></trkpt><trkpt lat="39.21178825" lon="-0.3191998"><ele>19.4</ele><time>2022-10-31T15:14:09.0000000+00:00</time></trkpt><trkpt lat="39.21174726" lon="-0.31911984"><ele>19.4</ele><time>2022-10-31T15:14:10.0000000+00:00</time></trkpt><trkpt lat="39.211716" lon="-0.31903829"><ele>19.2</ele><time>2022-10-31T15:14:11.0000000+00:00</time></trkpt><trkpt lat="39.21168566" lon="-0.31895354"><ele>19.2</ele><time>2022-10-31T15:14:12.0000000+00:00</time></trkpt><trkpt lat="39.21165984" lon="-0.31887048"><ele>19.2</ele><time>2022-10-31T15:14:13.0000000+00:00</time></trkpt><trkpt lat="39.21163126" lon="-0.31879379"><ele>19.2</ele><time>2022-10-31T15:14:14.0000000+00:00</time></trkpt><trkpt lat="39.21160284" lon="-0.31871726"><ele>19.2</ele><time>2022-10-31T15:14:15.0000000+00:00</time></trkpt><trkpt lat="39.21157443" lon="-0.3186476"><ele>19.0</ele><time>2022-10-31T15:14:16.0000000+00:00</time></trkpt><trkpt lat="39.2115456" lon="-0.31858105"><ele>18.8</ele><time>2022-10-31T15:14:17.0000000+00:00</time></trkpt><trkpt lat="39.21151525" lon="-0.318515"><ele>18.8</ele><time>2022-10-31T15:14:18.0000000+00:00</time></trkpt><trkpt lat="39.21148206" lon="-0.31845943"><ele>18.8</ele><time>2022-10-31T15:14:19.0000000+00:00</time></trkpt><trkpt lat="39.21144686" lon="-0.31840788"><ele>18.6</ele><time>2022-10-31T15:14:20.0000000+00:00</time></trkpt><trkpt lat="39.21142029" lon="-0.31836899"><ele>18.6</ele><time>2022-10-31T15:14:21.0000000+00:00</time></trkpt><trkpt lat="39.21137268" lon="-0.31831308"><ele>18.6</ele><time>2022-10-31T15:14:22.0000000+00:00</time></trkpt><trkpt lat="39.2113332" lon="-0.31826673"><ele>18.4</ele><time>2022-10-31T15:14:23.0000000+00:00</time></trkpt><trkpt lat="39.21129934" lon="-0.31822734"><ele>18.4</ele><time>2022-10-31T15:14:24.0000000+00:00</time></trkpt><trkpt lat="39.21126623" lon="-0.31819205"><ele>18.4</ele><time>2022-10-31T15:14:25.0000000+00:00</time></trkpt><trkpt lat="39.21123823" lon="-0.31815986"><ele>18.2</ele><time>2022-10-31T15:14:26.0000000+00:00</time></trkpt><trkpt lat="39.21120931" lon="-0.31812784"><ele>18.2</ele><time>2022-10-31T15:14:27.0000000+00:00</time></trkpt><trkpt lat="39.2111804" lon="-0.31809574"><ele>18.2</ele><time>2022-10-31T15:14:28.0000000+00:00</time></trkpt><trkpt lat="39.21115441" lon="-0.3180654"><ele>18.2</ele><time>2022-10-31T15:14:29.0000000+00:00</time></trkpt><trkpt lat="39.21112583" lon="-0.31803472"><ele>18.2</ele><time>2022-10-31T15:14:30.0000000+00:00</time></trkpt><trkpt lat="39.2111001" lon="-0.31800438"><ele>18.2</ele><time>2022-10-31T15:14:31.0000000+00:00</time></trkpt><trkpt lat="39.21107252" lon="-0.31797102"><ele>18.2</ele><time>2022-10-31T15:14:32.0000000+00:00</time></trkpt><trkpt lat="39.21103849" lon="-0.31794026"><ele>18.2</ele><time>2022-10-31T15:14:33.0000000+00:00</time></trkpt><trkpt lat="39.21100413" lon="-0.31790966"><ele>18.2</ele><time>2022-10-31T15:14:34.0000000+00:00</time></trkpt><trkpt lat="39.21097068" lon="-0.31787421"><ele>18.2</ele><time>2022-10-31T15:14:35.0000000+00:00</time></trkpt><trkpt lat="39.21093774" lon="-0.317839"><ele>18.2</ele><time>2022-10-31T15:14:36.0000000+00:00</time></trkpt><trkpt lat="39.2109027" lon="-0.31780506"><ele>18.2</ele><time>2022-10-31T15:14:37.0000000+00:00</time></trkpt><trkpt lat="39.2108701" lon="-0.31777153"><ele>18.2</ele><time>2022-10-31T15:14:38.0000000+00:00</time></trkpt><trkpt lat="39.21083816" lon="-0.3177401"><ele>18.2</ele><time>2022-10-31T15:14:39.0000000+00:00</time></trkpt><trkpt lat="39.21080212" lon="-0.31770665"><ele>18.2</ele><time>2022-10-31T15:14:40.0000000+00:00</time></trkpt><trkpt lat="39.21076574" lon="-0.31767245"><ele>18.2</ele><time>2022-10-31T15:14:41.0000000+00:00</time></trkpt><trkpt lat="39.21073004" lon="-0.31763851"><ele>18.2</ele><time>2022-10-31T15:14:42.0000000+00:00</time></trkpt><trkpt lat="39.21069726" lon="-0.31760347"><ele>18.4</ele><time>2022-10-31T15:14:43.0000000+00:00</time></trkpt><trkpt lat="39.21066617" lon="-0.31757003"><ele>18.4</ele><time>2022-10-31T15:14:44.0000000+00:00</time></trkpt><trkpt lat="39.21063323" lon="-0.31753784"><ele>18.4</ele><time>2022-10-31T15:14:45.0000000+00:00</time></trkpt><trkpt lat="39.21060213" lon="-0.31750867"><ele>18.4</ele><time>2022-10-31T15:14:46.0000000+00:00</time></trkpt><trkpt lat="39.21057179" lon="-0.31747649"><ele>18.4</ele><time>2022-10-31T15:14:47.0000000+00:00</time></trkpt><trkpt lat="39.21053893" lon="-0.31743709"><ele>18.4</ele><time>2022-10-31T15:14:48.0000000+00:00</time></trkpt><trkpt lat="39.21050976" lon="-0.31740323"><ele>18.4</ele><time>2022-10-31T15:14:49.0000000+00:00</time></trkpt><trkpt lat="39.21047992" lon="-0.31737012"><ele>18.4</ele><time>2022-10-31T15:14:50.0000000+00:00</time></trkpt><trkpt lat="39.21044841" lon="-0.31733391"><ele>18.4</ele><time>2022-10-31T15:14:51.0000000+00:00</time></trkpt><trkpt lat="39.21042108" lon="-0.31729745"><ele>18.4</ele><time>2022-10-31T15:14:52.0000000+00:00</time></trkpt><trkpt lat="39.21038856" lon="-0.3172547"><ele>18.4</ele><time>2022-10-31T15:14:53.0000000+00:00</time></trkpt><trkpt lat="39.21035947" lon="-0.31721229"><ele>18.4</ele><time>2022-10-31T15:14:54.0000000+00:00</time></trkpt><trkpt lat="39.2103386" lon="-0.31717164"><ele>18.4</ele><time>2022-10-31T15:14:55.0000000+00:00</time></trkpt><trkpt lat="39.21032318" lon="-0.31712302"><ele>18.4</ele><time>2022-10-31T15:14:56.0000000+00:00</time></trkpt><trkpt lat="39.21031203" lon="-0.31707105"><ele>18.4</ele><time>2022-10-31T15:14:57.0000000+00:00</time></trkpt><trkpt lat="39.21030306" lon="-0.31701674"><ele>18.4</ele><time>2022-10-31T15:14:58.0000000+00:00</time></trkpt><trkpt lat="39.21029577" lon="-0.31695681"><ele>18.4</ele><time>2022-10-31T15:14:59.0000000+00:00</time></trkpt><trkpt lat="39.21028881" lon="-0.31689319"><ele>18.4</ele><time>2022-10-31T15:15:00.0000000+00:00</time></trkpt><trkpt lat="39.2102842" lon="-0.31682747"><ele>18.4</ele><time>2022-10-31T15:15:01.0000000+00:00</time></trkpt><trkpt lat="39.21027901" lon="-0.31676402"><ele>18.4</ele><time>2022-10-31T15:15:02.0000000+00:00</time></trkpt><trkpt lat="39.21027289" lon="-0.31669973"><ele>18.4</ele><time>2022-10-31T15:15:03.0000000+00:00</time></trkpt><trkpt lat="39.21026191" lon="-0.3166357"><ele>18.4</ele><time>2022-10-31T15:15:04.0000000+00:00</time></trkpt><trkpt lat="39.21025411" lon="-0.3165725"><ele>18.4</ele><time>2022-10-31T15:15:05.0000000+00:00</time></trkpt><trkpt lat="39.21024934" lon="-0.31650812"><ele>18.4</ele><time>2022-10-31T15:15:06.0000000+00:00</time></trkpt><trkpt lat="39.21024741" lon="-0.31644015"><ele>18.2</ele><time>2022-10-31T15:15:07.0000000+00:00</time></trkpt><trkpt lat="39.21024531" lon="-0.31636865"><ele>18.2</ele><time>2022-10-31T15:15:08.0000000+00:00</time></trkpt><trkpt lat="39.21024196" lon="-0.31630117"><ele>18.2</ele><time>2022-10-31T15:15:09.0000000+00:00</time></trkpt><trkpt lat="39.21024028" lon="-0.31623161"><ele>18.2</ele><time>2022-10-31T15:15:10.0000000+00:00</time></trkpt><trkpt lat="39.21023869" lon="-0.31616187"><ele>18.2</ele><time>2022-10-31T15:15:11.0000000+00:00</time></trkpt><trkpt lat="39.21023408" lon="-0.31608987"><ele>18.2</ele><time>2022-10-31T15:15:12.0000000+00:00</time></trkpt><trkpt lat="39.21022763" lon="-0.31601753"><ele>18.2</ele><time>2022-10-31T15:15:13.0000000+00:00</time></trkpt><trkpt lat="39.21022176" lon="-0.31594654"><ele>18.2</ele><time>2022-10-31T15:15:14.0000000+00:00</time></trkpt><trkpt lat="39.21021673" lon="-0.31587554"><ele>18.2</ele><time>2022-10-31T15:15:15.0000000+00:00</time></trkpt><trkpt lat="39.2102122" lon="-0.31580312"><ele>18.2</ele><time>2022-10-31T15:15:16.0000000+00:00</time></trkpt><trkpt lat="39.21020793" lon="-0.31573364"><ele>18.2</ele><time>2022-10-31T15:15:17.0000000+00:00</time></trkpt><trkpt lat="39.21020064" lon="-0.31566742"><ele>18.2</ele><time>2022-10-31T15:15:18.0000000+00:00</time></trkpt><trkpt lat="39.21019192" lon="-0.31560137"><ele>18.2</ele><time>2022-10-31T15:15:19.0000000+00:00</time></trkpt><trkpt lat="39.21018438" lon="-0.31553683"><ele>18.2</ele><time>2022-10-31T15:15:20.0000000+00:00</time></trkpt><trkpt lat="39.21018027" lon="-0.31548746"><ele>18.0</ele><time>2022-10-31T15:15:21.0000000+00:00</time></trkpt><trkpt lat="39.21017557" lon="-0.31541605"><ele>18.0</ele><time>2022-10-31T15:15:22.0000000+00:00</time></trkpt><trkpt lat="39.21016786" lon="-0.31535679"><ele>18.0</ele><time>2022-10-31T15:15:23.0000000+00:00</time></trkpt><trkpt lat="39.2101506" lon="-0.31529979"><ele>18.0</ele><time>2022-10-31T15:15:24.0000000+00:00</time></trkpt><trkpt lat="39.21012143" lon="-0.31525696"><ele>17.8</ele><time>2022-10-31T15:15:25.0000000+00:00</time></trkpt><trkpt lat="39.21008354" lon="-0.31522561"><ele>17.8</ele><time>2022-10-31T15:15:26.0000000+00:00</time></trkpt><trkpt lat="39.21004247" lon="-0.31519636"><ele>18.0</ele><time>2022-10-31T15:15:27.0000000+00:00</time></trkpt><trkpt lat="39.21000207" lon="-0.3151671"><ele>18.0</ele><time>2022-10-31T15:15:28.0000000+00:00</time></trkpt><trkpt lat="39.20995999" lon="-0.31514154"><ele>18.0</ele><time>2022-10-31T15:15:29.0000000+00:00</time></trkpt><trkpt lat="39.20991339" lon="-0.31510986"><ele>18.0</ele><time>2022-10-31T15:15:30.0000000+00:00</time></trkpt><trkpt lat="39.20986729" lon="-0.31508127"><ele>18.0</ele><time>2022-10-31T15:15:31.0000000+00:00</time></trkpt><trkpt lat="39.20981867" lon="-0.31505085"><ele>18.0</ele><time>2022-10-31T15:15:32.0000000+00:00</time></trkpt><trkpt lat="39.2097709" lon="-0.31501757"><ele>18.0</ele><time>2022-10-31T15:15:33.0000000+00:00</time></trkpt><trkpt lat="39.20972304" lon="-0.31498413"><ele>17.8</ele><time>2022-10-31T15:15:34.0000000+00:00</time></trkpt><trkpt lat="39.20967082" lon="-0.31494909"><ele>17.6</ele><time>2022-10-31T15:15:35.0000000+00:00</time></trkpt><trkpt lat="39.20961902" lon="-0.31491716"><ele>17.6</ele><time>2022-10-31T15:15:36.0000000+00:00</time></trkpt><trkpt lat="39.20956981" lon="-0.31488455"><ele>17.6</ele><time>2022-10-31T15:15:37.0000000+00:00</time></trkpt><trkpt lat="39.2095181" lon="-0.31484474"><ele>17.6</ele><time>2022-10-31T15:15:38.0000000+00:00</time></trkpt><trkpt lat="39.20946538" lon="-0.31480484"><ele>17.6</ele><time>2022-10-31T15:15:39.0000000+00:00</time></trkpt><trkpt lat="39.20941223" lon="-0.31476502"><ele>17.6</ele><time>2022-10-31T15:15:40.0000000+00:00</time></trkpt><trkpt lat="39.20936102" lon="-0.31472714"><ele>17.6</ele><time>2022-10-31T15:15:41.0000000+00:00</time></trkpt><trkpt lat="39.20930998" lon="-0.31469361"><ele>17.8</ele><time>2022-10-31T15:15:42.0000000+00:00</time></trkpt><trkpt lat="39.20925893" lon="-0.31466536"><ele>17.8</ele><time>2022-10-31T15:15:43.0000000+00:00</time></trkpt><trkpt lat="39.20921903" lon="-0.31464139"><ele>17.6</ele><time>2022-10-31T15:15:44.0000000+00:00</time></trkpt><trkpt lat="39.20915734" lon="-0.31460476"><ele>16.6</ele><time>2022-10-31T15:15:45.0000000+00:00</time></trkpt><trkpt lat="39.20911183" lon="-0.31457165"><ele>16.0</ele><time>2022-10-31T15:15:46.0000000+00:00</time></trkpt><trkpt lat="39.20906799" lon="-0.31453896"><ele>15.8</ele><time>2022-10-31T15:15:47.0000000+00:00</time></trkpt><trkpt lat="39.20902549" lon="-0.31452522"><ele>15.6</ele><time>2022-10-31T15:15:48.0000000+00:00</time></trkpt><trkpt lat="39.20898308" lon="-0.31452497"><ele>15.6</ele><time>2022-10-31T15:15:49.0000000+00:00</time></trkpt><trkpt lat="39.20893975" lon="-0.31452958"><ele>15.6</ele><time>2022-10-31T15:15:50.0000000+00:00</time></trkpt><trkpt lat="39.20889557" lon="-0.31454047"><ele>15.8</ele><time>2022-10-31T15:15:51.0000000+00:00</time></trkpt><trkpt lat="39.20885802" lon="-0.31456126"><ele>16.2</ele><time>2022-10-31T15:15:52.0000000+00:00</time></trkpt><trkpt lat="39.20882458" lon="-0.31458867"><ele>16.4</ele><time>2022-10-31T15:15:53.0000000+00:00</time></trkpt><trkpt lat="39.20879818" lon="-0.31461264"><ele>16.6</ele><time>2022-10-31T15:15:54.0000000+00:00</time></trkpt><trkpt lat="39.2087737" lon="-0.31462907"><ele>16.8</ele><time>2022-10-31T15:15:55.0000000+00:00</time></trkpt><trkpt lat="39.20874856" lon="-0.31463997"><ele>17.2</ele><time>2022-10-31T15:15:56.0000000+00:00</time></trkpt><trkpt lat="39.20872517" lon="-0.31464843"><ele>17.2</ele><time>2022-10-31T15:15:57.0000000+00:00</time></trkpt><trkpt lat="39.20869852" lon="-0.31465304"><ele>17.4</ele><time>2022-10-31T15:15:58.0000000+00:00</time></trkpt><trkpt lat="39.20866884" lon="-0.31464826"><ele>17.2</ele><time>2022-10-31T15:15:59.0000000+00:00</time></trkpt><trkpt lat="39.2086375" lon="-0.314631"><ele>17.2</ele><time>2022-10-31T15:16:00.0000000+00:00</time></trkpt><trkpt lat="39.20860807" lon="-0.31460166"><ele>17.2</ele><time>2022-10-31T15:16:01.0000000+00:00</time></trkpt><trkpt lat="39.20858435" lon="-0.31457266"><ele>17.2</ele><time>2022-10-31T15:16:02.0000000+00:00</time></trkpt><trkpt lat="39.20854739" lon="-0.31452681"><ele>17.2</ele><time>2022-10-31T15:16:03.0000000+00:00</time></trkpt><trkpt lat="39.20851814" lon="-0.31448867"><ele>17.2</ele><time>2022-10-31T15:16:04.0000000+00:00</time></trkpt><trkpt lat="39.20849852" lon="-0.31445204"><ele>17.4</ele><time>2022-10-31T15:16:05.0000000+00:00</time></trkpt><trkpt lat="39.20846835" lon="-0.31439412"><ele>17.4</ele><time>2022-10-31T15:16:06.0000000+00:00</time></trkpt><trkpt lat="39.20844027" lon="-0.31434643"><ele>17.4</ele><time>2022-10-31T15:16:07.0000000+00:00</time></trkpt><trkpt lat="39.20840959" lon="-0.31430159"><ele>17.4</ele><time>2022-10-31T15:16:08.0000000+00:00</time></trkpt><trkpt lat="39.20837757" lon="-0.3142554"><ele>17.4</ele><time>2022-10-31T15:16:09.0000000+00:00</time></trkpt><trkpt lat="39.20834346" lon="-0.31420679"><ele>17.4</ele><time>2022-10-31T15:16:10.0000000+00:00</time></trkpt><trkpt lat="39.2083127" lon="-0.31415817"><ele>17.6</ele><time>2022-10-31T15:16:11.0000000+00:00</time></trkpt><trkpt lat="39.20828219" lon="-0.31410906"><ele>17.4</ele><time>2022-10-31T15:16:12.0000000+00:00</time></trkpt><trkpt lat="39.20825897" lon="-0.31407125"><ele>17.4</ele><time>2022-10-31T15:16:13.0000000+00:00</time></trkpt><trkpt lat="39.20822804" lon="-0.31402314"><ele>17.6</ele><time>2022-10-31T15:16:14.0000000+00:00</time></trkpt><trkpt lat="39.20819728" lon="-0.31397671"><ele>17.6</ele><time>2022-10-31T15:16:15.0000000+00:00</time></trkpt><trkpt lat="39.20816953" lon="-0.31393329"><ele>17.6</ele><time>2022-10-31T15:16:16.0000000+00:00</time></trkpt><trkpt lat="39.20814816" lon="-0.31389507"><ele>17.6</ele><time>2022-10-31T15:16:17.0000000+00:00</time></trkpt><trkpt lat="39.20813173" lon="-0.31386397"><ele>17.6</ele><time>2022-10-31T15:16:18.0000000+00:00</time></trkpt><trkpt lat="39.2081169" lon="-0.31383924"><ele>17.6</ele><time>2022-10-31T15:16:19.0000000+00:00</time></trkpt><trkpt lat="39.208106" lon="-0.31381871"><ele>17.6</ele><time>2022-10-31T15:16:20.0000000+00:00</time></trkpt><trkpt lat="39.2080977" lon="-0.31379591"><ele>17.6</ele><time>2022-10-31T15:16:21.0000000+00:00</time></trkpt><trkpt lat="39.20808454" lon="-0.31376691"><ele>17.6</ele><time>2022-10-31T15:16:22.0000000+00:00</time></trkpt><trkpt lat="39.20806753" lon="-0.31374419"><ele>17.6</ele><time>2022-10-31T15:16:23.0000000+00:00</time></trkpt><trkpt lat="39.20805152" lon="-0.31372542"><ele>17.6</ele><time>2022-10-31T15:16:24.0000000+00:00</time></trkpt><trkpt lat="39.20803308" lon="-0.3136934"><ele>17.6</ele><time>2022-10-31T15:16:25.0000000+00:00</time></trkpt><trkpt lat="39.20801397" lon="-0.31366373"><ele>17.6</ele><time>2022-10-31T15:16:26.0000000+00:00</time></trkpt><trkpt lat="39.20798907" lon="-0.31362902"><ele>17.6</ele><time>2022-10-31T15:16:27.0000000+00:00</time></trkpt><trkpt lat="39.20795948" lon="-0.31358058"><ele>18.0</ele><time>2022-10-31T15:16:28.0000000+00:00</time></trkpt><trkpt lat="39.20793484" lon="-0.3135276"><ele>18.0</ele><time>2022-10-31T15:16:29.0000000+00:00</time></trkpt><trkpt lat="39.20791464" lon="-0.31346918"><ele>18.2</ele><time>2022-10-31T15:16:30.0000000+00:00</time></trkpt><trkpt lat="39.20789947" lon="-0.31341336"><ele>18.2</ele><time>2022-10-31T15:16:31.0000000+00:00</time></trkpt><trkpt lat="39.20788991" lon="-0.3133629"><ele>18.2</ele><time>2022-10-31T15:16:32.0000000+00:00</time></trkpt><trkpt lat="39.20787642" lon="-0.3133111"><ele>18.2</ele><time>2022-10-31T15:16:33.0000000+00:00</time></trkpt><trkpt lat="39.20785823" lon="-0.31326248"><ele>18.2</ele><time>2022-10-31T15:16:34.0000000+00:00</time></trkpt><trkpt lat="39.20784063" lon="-0.31321781"><ele>18.2</ele><time>2022-10-31T15:16:35.0000000+00:00</time></trkpt><trkpt lat="39.20781607" lon="-0.31317179"><ele>18.0</ele><time>2022-10-31T15:16:36.0000000+00:00</time></trkpt><trkpt lat="39.20777609" lon="-0.31312443"><ele>18.0</ele><time>2022-10-31T15:16:37.0000000+00:00</time></trkpt><trkpt lat="39.20773602" lon="-0.31307414"><ele>18.0</ele><time>2022-10-31T15:16:38.0000000+00:00</time></trkpt><trkpt lat="39.20768682" lon="-0.31302134"><ele>17.8</ele><time>2022-10-31T15:16:39.0000000+00:00</time></trkpt><trkpt lat="39.20765296" lon="-0.31297289"><ele>17.8</ele><time>2022-10-31T15:16:40.0000000+00:00</time></trkpt><trkpt lat="39.20761851" lon="-0.3129174"><ele>17.8</ele><time>2022-10-31T15:16:41.0000000+00:00</time></trkpt><trkpt lat="39.2075916" lon="-0.31286954"><ele>17.6</ele><time>2022-10-31T15:16:42.0000000+00:00</time></trkpt><trkpt lat="39.20756344" lon="-0.31282445"><ele>17.6</ele><time>2022-10-31T15:16:43.0000000+00:00</time></trkpt><trkpt lat="39.20753301" lon="-0.31277994"><ele>17.6</ele><time>2022-10-31T15:16:44.0000000+00:00</time></trkpt><trkpt lat="39.2075082" lon="-0.31272713"><ele>17.6</ele><time>2022-10-31T15:16:45.0000000+00:00</time></trkpt><trkpt lat="39.20748616" lon="-0.31266904"><ele>17.6</ele><time>2022-10-31T15:16:46.0000000+00:00</time></trkpt><trkpt lat="39.20745741" lon="-0.31261305"><ele>17.6</ele><time>2022-10-31T15:16:47.0000000+00:00</time></trkpt><trkpt lat="39.20742916" lon="-0.31256092"><ele>17.6</ele><time>2022-10-31T15:16:48.0000000+00:00</time></trkpt><trkpt lat="39.20739555" lon="-0.3125139"><ele>17.6</ele><time>2022-10-31T15:16:49.0000000+00:00</time></trkpt><trkpt lat="39.20736093" lon="-0.31247324"><ele>17.6</ele><time>2022-10-31T15:16:50.0000000+00:00</time></trkpt><trkpt lat="39.2073181" lon="-0.31244407"><ele>17.6</ele><time>2022-10-31T15:16:51.0000000+00:00</time></trkpt><trkpt lat="39.20728767" lon="-0.31242237"><ele>17.4</ele><time>2022-10-31T15:16:52.0000000+00:00</time></trkpt><trkpt lat="39.20726856" lon="-0.31240501"><ele>17.4</ele><time>2022-10-31T15:16:53.0000000+00:00</time></trkpt><trkpt lat="39.20724794" lon="-0.31239387"><ele>17.4</ele><time>2022-10-31T15:16:54.0000000+00:00</time></trkpt><trkpt lat="39.20722783" lon="-0.31238012"><ele>17.4</ele><time>2022-10-31T15:16:55.0000000+00:00</time></trkpt><trkpt lat="39.20720754" lon="-0.31235707"><ele>17.4</ele><time>2022-10-31T15:16:56.0000000+00:00</time></trkpt><trkpt lat="39.20718885" lon="-0.31233318"><ele>17.4</ele><time>2022-10-31T15:16:57.0000000+00:00</time></trkpt><trkpt lat="39.20716262" lon="-0.31231508"><ele>17.4</ele><time>2022-10-31T15:16:58.0000000+00:00</time></trkpt><trkpt lat="39.20713244" lon="-0.31231407"><ele>17.4</ele><time>2022-10-31T15:16:59.0000000+00:00</time></trkpt><trkpt lat="39.20709724" lon="-0.31232002"><ele>17.4</ele><time>2022-10-31T15:17:00.0000000+00:00</time></trkpt><trkpt lat="39.20706178" lon="-0.31232983"><ele>17.4</ele><time>2022-10-31T15:17:01.0000000+00:00</time></trkpt><trkpt lat="39.20702457" lon="-0.31234626"><ele>17.4</ele><time>2022-10-31T15:17:02.0000000+00:00</time></trkpt><trkpt lat="39.20698416" lon="-0.31236"><ele>17.4</ele><time>2022-10-31T15:17:03.0000000+00:00</time></trkpt><trkpt lat="39.20694343" lon="-0.31238238"><ele>17.4</ele><time>2022-10-31T15:17:04.0000000+00:00</time></trkpt><trkpt lat="39.20690236" lon="-0.31240091"><ele>17.4</ele><time>2022-10-31T15:17:05.0000000+00:00</time></trkpt><trkpt lat="39.20686514" lon="-0.31241717"><ele>17.4</ele><time>2022-10-31T15:17:06.0000000+00:00</time></trkpt><trkpt lat="39.20682684" lon="-0.31242823"><ele>17.6</ele><time>2022-10-31T15:17:07.0000000+00:00</time></trkpt><trkpt lat="39.20678543" lon="-0.31242983"><ele>17.6</ele><time>2022-10-31T15:17:08.0000000+00:00</time></trkpt><trkpt lat="39.20674084" lon="-0.31243217"><ele>17.6</ele><time>2022-10-31T15:17:09.0000000+00:00</time></trkpt><trkpt lat="39.20669834" lon="-0.31243066"><ele>17.6</ele><time>2022-10-31T15:17:10.0000000+00:00</time></trkpt><trkpt lat="39.20666423" lon="-0.31243712"><ele>17.4</ele><time>2022-10-31T15:17:11.0000000+00:00</time></trkpt><trkpt lat="39.2066421" lon="-0.31244081"><ele>17.4</ele><time>2022-10-31T15:17:12.0000000+00:00</time></trkpt><trkpt lat="39.20663673" lon="-0.31247165"><ele>17.2</ele><time>2022-10-31T15:17:13.0000000+00:00</time></trkpt><trkpt lat="39.20662173" lon="-0.31246897"><ele>17.2</ele><time>2022-10-31T15:17:14.0000000+00:00</time></trkpt><trkpt lat="39.2066048" lon="-0.312446"><ele>17.2</ele><time>2022-10-31T15:17:15.0000000+00:00</time></trkpt><trkpt lat="39.2065929" lon="-0.31240032"><ele>17.2</ele><time>2022-10-31T15:17:16.0000000+00:00</time></trkpt><trkpt lat="39.20658485" lon="-0.31236218"><ele>17.0</ele><time>2022-10-31T15:17:17.0000000+00:00</time></trkpt><trkpt lat="39.20657479" lon="-0.31232312"><ele>17.0</ele><time>2022-10-31T15:17:18.0000000+00:00</time></trkpt><trkpt lat="39.20656557" lon="-0.31228088"><ele>17.0</ele><time>2022-10-31T15:17:19.0000000+00:00</time></trkpt><trkpt lat="39.20655828" lon="-0.31223402"><ele>17.0</ele><time>2022-10-31T15:17:20.0000000+00:00</time></trkpt><trkpt lat="39.20654881" lon="-0.31218465"><ele>17.0</ele><time>2022-10-31T15:17:21.0000000+00:00</time></trkpt><trkpt lat="39.20654252" lon="-0.31212883"><ele>17.0</ele><time>2022-10-31T15:17:22.0000000+00:00</time></trkpt><trkpt lat="39.20653531" lon="-0.31207376"><ele>17.0</ele><time>2022-10-31T15:17:23.0000000+00:00</time></trkpt><trkpt lat="39.20652039" lon="-0.31201945"><ele>17.0</ele><time>2022-10-31T15:17:24.0000000+00:00</time></trkpt><trkpt lat="39.20649709" lon="-0.3119648"><ele>17.0</ele><time>2022-10-31T15:17:25.0000000+00:00</time></trkpt><trkpt lat="39.20647739" lon="-0.31190814"><ele>17.0</ele><time>2022-10-31T15:17:26.0000000+00:00</time></trkpt><trkpt lat="39.20646432" lon="-0.31185097"><ele>17.0</ele><time>2022-10-31T15:17:27.0000000+00:00</time></trkpt><trkpt lat="39.20645719" lon="-0.311784"><ele>17.2</ele><time>2022-10-31T15:17:28.0000000+00:00</time></trkpt><trkpt lat="39.20644747" lon="-0.31171845"><ele>17.2</ele><time>2022-10-31T15:17:29.0000000+00:00</time></trkpt><trkpt lat="39.20643884" lon="-0.31164679"><ele>17.2</ele><time>2022-10-31T15:17:30.0000000+00:00</time></trkpt><trkpt lat="39.20643616" lon="-0.3115773"><ele>17.2</ele><time>2022-10-31T15:17:31.0000000+00:00</time></trkpt><trkpt lat="39.20643314" lon="-0.31150756"><ele>17.2</ele><time>2022-10-31T15:17:32.0000000+00:00</time></trkpt><trkpt lat="39.20642585" lon="-0.31144219"><ele>17.0</ele><time>2022-10-31T15:17:33.0000000+00:00</time></trkpt><trkpt lat="39.20642149" lon="-0.31137739"><ele>16.8</ele><time>2022-10-31T15:17:34.0000000+00:00</time></trkpt><trkpt lat="39.2064183" lon="-0.31131679"><ele>16.6</ele><time>2022-10-31T15:17:35.0000000+00:00</time></trkpt><trkpt lat="39.20641218" lon="-0.31125854"><ele>16.6</ele><time>2022-10-31T15:17:36.0000000+00:00</time></trkpt><trkpt lat="39.20639374" lon="-0.31120976"><ele>16.8</ele><time>2022-10-31T15:17:37.0000000+00:00</time></trkpt><trkpt lat="39.20637857" lon="-0.31115544"><ele>17.0</ele><time>2022-10-31T15:17:38.0000000+00:00</time></trkpt><trkpt lat="39.2063567" lon="-0.31109962"><ele>17.2</ele><time>2022-10-31T15:17:39.0000000+00:00</time></trkpt><trkpt lat="39.20634211" lon="-0.31104807"><ele>17.2</ele><time>2022-10-31T15:17:40.0000000+00:00</time></trkpt><trkpt lat="39.20632677" lon="-0.31099618"><ele>17.2</ele><time>2022-10-31T15:17:41.0000000+00:00</time></trkpt><trkpt lat="39.20633113" lon="-0.31095042"><ele>17.2</ele><time>2022-10-31T15:17:42.0000000+00:00</time></trkpt><trkpt lat="39.20633742" lon="-0.31090952"><ele>17.2</ele><time>2022-10-31T15:17:43.0000000+00:00</time></trkpt><trkpt lat="39.20634069" lon="-0.31085981"><ele>17.2</ele><time>2022-10-31T15:17:44.0000000+00:00</time></trkpt><trkpt lat="39.20634546" lon="-0.31080667"><ele>17.2</ele><time>2022-10-31T15:17:45.0000000+00:00</time></trkpt><trkpt lat="39.20634907" lon="-0.31075034"><ele>17.2</ele><time>2022-10-31T15:17:46.0000000+00:00</time></trkpt><trkpt lat="39.20635074" lon="-0.31069125"><ele>17.2</ele><time>2022-10-31T15:17:47.0000000+00:00</time></trkpt><trkpt lat="39.20635401" lon="-0.3106299"><ele>17.2</ele><time>2022-10-31T15:17:48.0000000+00:00</time></trkpt><trkpt lat="39.20635519" lon="-0.3105646"><ele>17.2</ele><time>2022-10-31T15:17:49.0000000+00:00</time></trkpt><trkpt lat="39.20635678" lon="-0.31048841"><ele>17.2</ele><time>2022-10-31T15:17:50.0000000+00:00</time></trkpt><trkpt lat="39.20635837" lon="-0.31042211"><ele>17.2</ele><time>2022-10-31T15:17:51.0000000+00:00</time></trkpt><trkpt lat="39.20635812" lon="-0.31036813"><ele>17.2</ele><time>2022-10-31T15:17:52.0000000+00:00</time></trkpt><trkpt lat="39.20635485" lon="-0.31028523"><ele>17.2</ele><time>2022-10-31T15:17:53.0000000+00:00</time></trkpt><trkpt lat="39.20634806" lon="-0.31021466"><ele>17.4</ele><time>2022-10-31T15:17:54.0000000+00:00</time></trkpt><trkpt lat="39.20634605" lon="-0.31015095"><ele>17.4</ele><time>2022-10-31T15:17:55.0000000+00:00</time></trkpt><trkpt lat="39.20635183" lon="-0.31009102"><ele>17.2</ele><time>2022-10-31T15:17:56.0000000+00:00</time></trkpt><trkpt lat="39.20635309" lon="-0.31003302"><ele>17.2</ele><time>2022-10-31T15:17:57.0000000+00:00</time></trkpt><trkpt lat="39.20635301" lon="-0.30998415"><ele>17.2</ele><time>2022-10-31T15:17:58.0000000+00:00</time></trkpt><trkpt lat="39.20633105" lon="-0.30994602"><ele>17.0</ele><time>2022-10-31T15:17:59.0000000+00:00</time></trkpt><trkpt lat="39.20631395" lon="-0.3099171"><ele>16.8</ele><time>2022-10-31T15:18:00.0000000+00:00</time></trkpt><trkpt lat="39.20629241" lon="-0.30989195"><ele>16.8</ele><time>2022-10-31T15:18:01.0000000+00:00</time></trkpt><trkpt lat="39.20627204" lon="-0.30986446"><ele>16.6</ele><time>2022-10-31T15:18:02.0000000+00:00</time></trkpt><trkpt lat="39.20624966" lon="-0.30983789"><ele>16.6</ele><time>2022-10-31T15:18:03.0000000+00:00</time></trkpt><trkpt lat="39.20623088" lon="-0.30981517"><ele>16.6</ele><time>2022-10-31T15:18:04.0000000+00:00</time></trkpt><trkpt lat="39.20621554" lon="-0.30980051"><ele>16.6</ele><time>2022-10-31T15:18:05.0000000+00:00</time></trkpt><trkpt lat="39.20621052" lon="-0.30977779"><ele>16.6</ele><time>2022-10-31T15:18:06.0000000+00:00</time></trkpt><trkpt lat="39.20621353" lon="-0.30974804"><ele>16.6</ele><time>2022-10-31T15:18:07.0000000+00:00</time></trkpt><trkpt lat="39.20622217" lon="-0.30971786"><ele>16.6</ele><time>2022-10-31T15:18:08.0000000+00:00</time></trkpt><trkpt lat="39.20622803" lon="-0.30968693"><ele>16.6</ele><time>2022-10-31T15:18:09.0000000+00:00</time></trkpt><trkpt lat="39.20623088" lon="-0.3096534"><ele>16.6</ele><time>2022-10-31T15:18:10.0000000+00:00</time></trkpt><trkpt lat="39.20622946" lon="-0.30962918"><ele>16.6</ele><time>2022-10-31T15:18:11.0000000+00:00</time></trkpt><trkpt lat="39.20622401" lon="-0.30959708"><ele>16.6</ele><time>2022-10-31T15:18:12.0000000+00:00</time></trkpt><trkpt lat="39.20621236" lon="-0.30955399"><ele>16.6</ele><time>2022-10-31T15:18:13.0000000+00:00</time></trkpt><trkpt lat="39.20619979" lon="-0.30951628"><ele>16.8</ele><time>2022-10-31T15:18:14.0000000+00:00</time></trkpt><trkpt lat="39.20618545" lon="-0.30948116"><ele>16.8</ele><time>2022-10-31T15:18:15.0000000+00:00</time></trkpt><trkpt lat="39.20616961" lon="-0.30944662"><ele>16.8</ele><time>2022-10-31T15:18:16.0000000+00:00</time></trkpt><trkpt lat="39.20615125" lon="-0.30941058"><ele>16.8</ele><time>2022-10-31T15:18:17.0000000+00:00</time></trkpt><trkpt lat="39.20613474" lon="-0.30937621"><ele>16.8</ele><time>2022-10-31T15:18:18.0000000+00:00</time></trkpt><trkpt lat="39.20611773" lon="-0.30934101"><ele>16.8</ele><time>2022-10-31T15:18:19.0000000+00:00</time></trkpt><trkpt lat="39.20610021" lon="-0.30930681"><ele>16.8</ele><time>2022-10-31T15:18:20.0000000+00:00</time></trkpt><trkpt lat="39.20608068" lon="-0.30926666"><ele>16.8</ele><time>2022-10-31T15:18:21.0000000+00:00</time></trkpt><trkpt lat="39.2060635" lon="-0.30922593"><ele>16.8</ele><time>2022-10-31T15:18:22.0000000+00:00</time></trkpt><trkpt lat="39.20604221" lon="-0.30918645"><ele>16.8</ele><time>2022-10-31T15:18:23.0000000+00:00</time></trkpt><trkpt lat="39.20602402" lon="-0.30914638"><ele>17.0</ele><time>2022-10-31T15:18:24.0000000+00:00</time></trkpt><trkpt lat="39.20601237" lon="-0.30910514"><ele>17.0</ele><time>2022-10-31T15:18:25.0000000+00:00</time></trkpt><trkpt lat="39.20600055" lon="-0.30907069"><ele>17.0</ele><time>2022-10-31T15:18:26.0000000+00:00</time></trkpt><trkpt lat="39.20598714" lon="-0.30903406"><ele>17.0</ele><time>2022-10-31T15:18:27.0000000+00:00</time></trkpt><trkpt lat="39.20596803" lon="-0.30899584"><ele>17.0</ele><time>2022-10-31T15:18:28.0000000+00:00</time></trkpt><trkpt lat="39.20595177" lon="-0.30895201"><ele>17.0</ele><time>2022-10-31T15:18:29.0000000+00:00</time></trkpt><trkpt lat="39.20593643" lon="-0.30892057"><ele>17.0</ele><time>2022-10-31T15:18:30.0000000+00:00</time></trkpt><trkpt lat="39.20592251" lon="-0.30889501"><ele>17.0</ele><time>2022-10-31T15:18:31.0000000+00:00</time></trkpt><trkpt lat="39.20591019" lon="-0.30887196"><ele>16.8</ele><time>2022-10-31T15:18:32.0000000+00:00</time></trkpt><trkpt lat="39.20590516" lon="-0.30885411"><ele>16.6</ele><time>2022-10-31T15:18:33.0000000+00:00</time></trkpt><trkpt lat="39.20590214" lon="-0.30882888"><ele>16.6</ele><time>2022-10-31T15:18:34.0000000+00:00</time></trkpt><trkpt lat="39.20589971" lon="-0.30880482"><ele>16.6</ele><time>2022-10-31T15:18:35.0000000+00:00</time></trkpt><trkpt lat="39.20589645" lon="-0.30878898"><ele>16.6</ele><time>2022-10-31T15:18:36.0000000+00:00</time></trkpt><trkpt lat="39.20588764" lon="-0.30877515"><ele>16.4</ele><time>2022-10-31T15:18:37.0000000+00:00</time></trkpt><trkpt lat="39.20588228" lon="-0.30875721"><ele>16.4</ele><time>2022-10-31T15:18:38.0000000+00:00</time></trkpt><trkpt lat="39.20588035" lon="-0.30873324"><ele>16.4</ele><time>2022-10-31T15:18:39.0000000+00:00</time></trkpt><trkpt lat="39.20587884" lon="-0.30871195"><ele>16.4</ele><time>2022-10-31T15:18:40.0000000+00:00</time></trkpt><trkpt lat="39.20587935" lon="-0.30869233"><ele>16.4</ele><time>2022-10-31T15:18:41.0000000+00:00</time></trkpt><trkpt lat="39.20588186" lon="-0.30867515"><ele>16.4</ele><time>2022-10-31T15:18:42.0000000+00:00</time></trkpt><trkpt lat="39.20588438" lon="-0.30866208"><ele>16.6</ele><time>2022-10-31T15:18:43.0000000+00:00</time></trkpt><trkpt lat="39.2058853" lon="-0.30864615"><ele>16.6</ele><time>2022-10-31T15:18:44.0000000+00:00</time></trkpt><trkpt lat="39.20588329" lon="-0.30862561"><ele>16.6</ele><time>2022-10-31T15:18:45.0000000+00:00</time></trkpt><trkpt lat="39.20587641" lon="-0.30860583"><ele>16.6</ele><time>2022-10-31T15:18:46.0000000+00:00</time></trkpt><trkpt lat="39.20586954" lon="-0.30858706"><ele>16.6</ele><time>2022-10-31T15:18:47.0000000+00:00</time></trkpt><trkpt lat="39.205863" lon="-0.3085682"><ele>16.6</ele><time>2022-10-31T15:18:48.0000000+00:00</time></trkpt><trkpt lat="39.20585579" lon="-0.30855378"><ele>16.6</ele><time>2022-10-31T15:18:49.0000000+00:00</time></trkpt><trkpt lat="39.20584682" lon="-0.30853844"><ele>16.6</ele><time>2022-10-31T15:18:50.0000000+00:00</time></trkpt><trkpt lat="39.2058402" lon="-0.30851564"><ele>16.6</ele><time>2022-10-31T15:18:51.0000000+00:00</time></trkpt><trkpt lat="39.20583727" lon="-0.3084822"><ele>16.6</ele><time>2022-10-31T15:18:52.0000000+00:00</time></trkpt><trkpt lat="39.20582763" lon="-0.3084599"><ele>16.6</ele><time>2022-10-31T15:18:53.0000000+00:00</time></trkpt><trkpt lat="39.20580902" lon="-0.30844633"><ele>16.6</ele><time>2022-10-31T15:18:54.0000000+00:00</time></trkpt><trkpt lat="39.20579611" lon="-0.30842847"><ele>16.6</ele><time>2022-10-31T15:18:55.0000000+00:00</time></trkpt><trkpt lat="39.20578362" lon="-0.30840534"><ele>16.6</ele><time>2022-10-31T15:18:56.0000000+00:00</time></trkpt><trkpt lat="39.20577264" lon="-0.30837625"><ele>16.6</ele><time>2022-10-31T15:18:57.0000000+00:00</time></trkpt><trkpt lat="39.20575814" lon="-0.30834055"><ele>16.6</ele><time>2022-10-31T15:18:58.0000000+00:00</time></trkpt><trkpt lat="39.20574834" lon="-0.30830828"><ele>16.6</ele><time>2022-10-31T15:18:59.0000000+00:00</time></trkpt><trkpt lat="39.205734" lon="-0.30827927"><ele>16.6</ele><time>2022-10-31T15:19:00.0000000+00:00</time></trkpt><trkpt lat="39.20571975" lon="-0.30825337"><ele>16.8</ele><time>2022-10-31T15:19:01.0000000+00:00</time></trkpt><trkpt lat="39.20570291" lon="-0.30821549"><ele>16.8</ele><time>2022-10-31T15:19:02.0000000+00:00</time></trkpt><trkpt lat="39.20568589" lon="-0.30816939"><ele>16.8</ele><time>2022-10-31T15:19:03.0000000+00:00</time></trkpt><trkpt lat="39.20567541" lon="-0.30813594"><ele>16.8</ele><time>2022-10-31T15:19:04.0000000+00:00</time></trkpt><trkpt lat="39.20567055" lon="-0.30811239"><ele>16.6</ele><time>2022-10-31T15:19:05.0000000+00:00</time></trkpt><trkpt lat="39.20567206" lon="-0.30809487"><ele>16.6</ele><time>2022-10-31T15:19:06.0000000+00:00</time></trkpt><trkpt lat="39.20566946" lon="-0.30808054"><ele>16.6</ele><time>2022-10-31T15:19:07.0000000+00:00</time></trkpt><trkpt lat="39.20566636" lon="-0.30806453"><ele>16.6</ele><time>2022-10-31T15:19:08.0000000+00:00</time></trkpt><trkpt lat="39.20566024" lon="-0.30805321"><ele>16.6</ele><time>2022-10-31T15:19:09.0000000+00:00</time></trkpt><trkpt lat="39.20564817" lon="-0.30804886"><ele>16.8</ele><time>2022-10-31T15:19:10.0000000+00:00</time></trkpt><trkpt lat="39.20563661" lon="-0.30804349"><ele>16.8</ele><time>2022-10-31T15:19:11.0000000+00:00</time></trkpt><trkpt lat="39.20562261" lon="-0.30803427"><ele>16.8</ele><time>2022-10-31T15:19:12.0000000+00:00</time></trkpt><trkpt lat="39.20560811" lon="-0.30802664"><ele>16.8</ele><time>2022-10-31T15:19:13.0000000+00:00</time></trkpt><trkpt lat="39.20559646" lon="-0.30801583"><ele>16.8</ele><time>2022-10-31T15:19:14.0000000+00:00</time></trkpt><trkpt lat="39.20558799" lon="-0.30800401"><ele>16.8</ele><time>2022-10-31T15:19:15.0000000+00:00</time></trkpt><trkpt lat="39.20558313" lon="-0.30799664"><ele>16.8</ele><time>2022-10-31T15:19:16.0000000+00:00</time></trkpt><trkpt lat="39.20557852" lon="-0.30799253"><ele>16.6</ele><time>2022-10-31T15:19:17.0000000+00:00</time></trkpt><trkpt lat="39.20557584" lon="-0.30799152"><ele>16.6</ele><time>2022-10-31T15:19:18.0000000+00:00</time></trkpt><trkpt lat="39.20557584" lon="-0.30799152"><ele>16.6</ele><time>2022-10-31T15:19:19.0000000+00:00</time></trkpt><trkpt lat="39.20557248" lon="-0.30799781"><ele>16.6</ele><time>2022-10-31T15:19:20.0000000+00:00</time></trkpt><trkpt lat="39.20557349" lon="-0.30800225"><ele>16.6</ele><time>2022-10-31T15:19:21.0000000+00:00</time></trkpt><trkpt lat="39.20557274" lon="-0.30801399"><ele>16.6</ele><time>2022-10-31T15:19:22.0000000+00:00</time></trkpt><trkpt lat="39.205575" lon="-0.30803989"><ele>16.6</ele><time>2022-10-31T15:19:23.0000000+00:00</time></trkpt><trkpt lat="39.20557986" lon="-0.30806612"><ele>16.6</ele><time>2022-10-31T15:19:24.0000000+00:00</time></trkpt><trkpt lat="39.20558799" lon="-0.30809261"><ele>16.6</ele><time>2022-10-31T15:19:25.0000000+00:00</time></trkpt><trkpt lat="39.20559352" lon="-0.30812077"><ele>16.6</ele><time>2022-10-31T15:19:26.0000000+00:00</time></trkpt><trkpt lat="39.20560056" lon="-0.30815338"><ele>16.6</ele><time>2022-10-31T15:19:27.0000000+00:00</time></trkpt><trkpt lat="39.20561045" lon="-0.30818238"><ele>16.6</ele><time>2022-10-31T15:19:28.0000000+00:00</time></trkpt><trkpt lat="39.20563015" lon="-0.30820811"><ele>16.6</ele><time>2022-10-31T15:19:29.0000000+00:00</time></trkpt><trkpt lat="39.20564675" lon="-0.30824172"><ele>16.6</ele><time>2022-10-31T15:19:30.0000000+00:00</time></trkpt><trkpt lat="39.20565865" lon="-0.30827081"><ele>16.6</ele><time>2022-10-31T15:19:31.0000000+00:00</time></trkpt><trkpt lat="39.20567332" lon="-0.30829713"><ele>16.6</ele><time>2022-10-31T15:19:32.0000000+00:00</time></trkpt><trkpt lat="39.20568765" lon="-0.30832563"><ele>16.6</ele><time>2022-10-31T15:19:33.0000000+00:00</time></trkpt><trkpt lat="39.20570048" lon="-0.30835446"><ele>16.6</ele><time>2022-10-31T15:19:34.0000000+00:00</time></trkpt><trkpt lat="39.20571062" lon="-0.30838078"><ele>16.6</ele><time>2022-10-31T15:19:35.0000000+00:00</time></trkpt><trkpt lat="39.20571825" lon="-0.30840509"><ele>16.6</ele><time>2022-10-31T15:19:36.0000000+00:00</time></trkpt><trkpt lat="39.20572914" lon="-0.30842931"><ele>16.6</ele><time>2022-10-31T15:19:37.0000000+00:00</time></trkpt><trkpt lat="39.20573384" lon="-0.30844482"><ele>16.6</ele><time>2022-10-31T15:19:38.0000000+00:00</time></trkpt><trkpt lat="39.20574423" lon="-0.30846234"><ele>16.4</ele><time>2022-10-31T15:19:39.0000000+00:00</time></trkpt><trkpt lat="39.20575915" lon="-0.3084765"><ele>16.4</ele><time>2022-10-31T15:19:40.0000000+00:00</time></trkpt><trkpt lat="39.20576217" lon="-0.30848052"><ele>16.4</ele><time>2022-10-31T15:19:41.0000000+00:00</time></trkpt><trkpt lat="39.20576217" lon="-0.30848052"><ele>16.4</ele><time>2022-10-31T15:19:42.0000000+00:00</time></trkpt><trkpt lat="39.20576217" lon="-0.30848052"><ele>16.4</ele><time>2022-10-31T15:19:43.0000000+00:00</time></trkpt><trkpt lat="39.20576217" lon="-0.30848052"><ele>16.4</ele><time>2022-10-31T15:19:44.0000000+00:00</time></trkpt><trkpt lat="39.20576217" lon="-0.30848052"><ele>16.6</ele><time>2022-10-31T15:19:45.0000000+00:00</time></trkpt><trkpt lat="39.20576217" lon="-0.30848052"><ele>16.6</ele><time>2022-10-31T15:19:46.0000000+00:00</time></trkpt><trkpt lat="39.20576217" lon="-0.30848052"><ele>16.6</ele><time>2022-10-31T15:19:47.0000000+00:00</time></trkpt><trkpt lat="39.20576217" lon="-0.30848052"><ele>16.6</ele><time>2022-10-31T15:19:48.0000000+00:00</time></trkpt><trkpt lat="39.20576217" lon="-0.30848052"><ele>16.6</ele><time>2022-10-31T15:19:49.0000000+00:00</time></trkpt><trkpt lat="39.20576217" lon="-0.30848052"><ele>16.6</ele><time>2022-10-31T15:19:50.0000000+00:00</time></trkpt><trkpt lat="39.20576217" lon="-0.30848052"><ele>16.4</ele><time>2022-10-31T15:19:51.0000000+00:00</time></trkpt><trkpt lat="39.20576309" lon="-0.30846736"><ele>16.4</ele><time>2022-10-31T15:19:52.0000000+00:00</time></trkpt><trkpt lat="39.20576569" lon="-0.30845278"><ele>16.4</ele><time>2022-10-31T15:19:53.0000000+00:00</time></trkpt><trkpt lat="39.20577097" lon="-0.30843685"><ele>16.4</ele><time>2022-10-31T15:19:54.0000000+00:00</time></trkpt><trkpt lat="39.20577172" lon="-0.30843157"><ele>16.4</ele><time>2022-10-31T15:19:55.0000000+00:00</time></trkpt><trkpt lat="39.20577172" lon="-0.30843157"><ele>16.4</ele><time>2022-10-31T15:19:56.0000000+00:00</time></trkpt><trkpt lat="39.20577172" lon="-0.30843157"><ele>16.4</ele><time>2022-10-31T15:19:57.0000000+00:00</time></trkpt><trkpt lat="39.20577457" lon="-0.30842202"><ele>16.4</ele><time>2022-10-31T15:19:58.0000000+00:00</time></trkpt><trkpt lat="39.20577742" lon="-0.30840727"><ele>16.4</ele><time>2022-10-31T15:19:59.0000000+00:00</time></trkpt><trkpt lat="39.20577876" lon="-0.30840173"><ele>16.4</ele><time>2022-10-31T15:20:00.0000000+00:00</time></trkpt><trkpt lat="39.20577876" lon="-0.30840173"><ele>16.2</ele><time>2022-10-31T15:20:01.0000000+00:00</time></trkpt><trkpt lat="39.20577876" lon="-0.30840173"><ele>16.2</ele><time>2022-10-31T15:20:02.0000000+00:00</time></trkpt><trkpt lat="39.20577876" lon="-0.30840173"><ele>16.2</ele><time>2022-10-31T15:20:03.0000000+00:00</time></trkpt></trkseg><trkseg><trkpt lat="39.50291497" lon="-0.44847138"><ele>48.6</ele><time>2022-11-01T11:19:32.0000000+00:00</time></trkpt><trkpt lat="39.50290944" lon="-0.44857557"><ele>48.6</ele><time>2022-11-01T11:19:33.0000000+00:00</time></trkpt><trkpt lat="39.50286367" lon="-0.44870331"><ele>48.6</ele><time>2022-11-01T11:19:34.0000000+00:00</time></trkpt><trkpt lat="39.5028542" lon="-0.44878294"><ele>48.8</ele><time>2022-11-01T11:19:35.0000000+00:00</time></trkpt><trkpt lat="39.50291161" lon="-0.44886709"><ele>48.8</ele><time>2022-11-01T11:19:36.0000000+00:00</time></trkpt><trkpt lat="39.50293567" lon="-0.44892962"><ele>49.0</ele><time>2022-11-01T11:19:37.0000000+00:00</time></trkpt><trkpt lat="39.50299015" lon="-0.44898293"><ele>49.0</ele><time>2022-11-01T11:19:38.0000000+00:00</time></trkpt><trkpt lat="39.50301656" lon="-0.44903674"><ele>48.8</ele><time>2022-11-01T11:19:39.0000000+00:00</time></trkpt><trkpt lat="39.50303198" lon="-0.44910271"><ele>48.8</ele><time>2022-11-01T11:19:40.0000000+00:00</time></trkpt><trkpt lat="39.50304707" lon="-0.44917504"><ele>48.8</ele><time>2022-11-01T11:19:41.0000000+00:00</time></trkpt><trkpt lat="39.50306308" lon="-0.44924235"><ele>48.8</ele><time>2022-11-01T11:19:42.0000000+00:00</time></trkpt><trkpt lat="39.50306676" lon="-0.44931561"><ele>48.8</ele><time>2022-11-01T11:19:43.0000000+00:00</time></trkpt><trkpt lat="39.50306366" lon="-0.44939172"><ele>48.8</ele><time>2022-11-01T11:19:44.0000000+00:00</time></trkpt><trkpt lat="39.50305042" lon="-0.44945559"><ele>48.8</ele><time>2022-11-01T11:19:45.0000000+00:00</time></trkpt><trkpt lat="39.5030412" lon="-0.44951887"><ele>49.0</ele><time>2022-11-01T11:19:46.0000000+00:00</time></trkpt><trkpt lat="39.50308395" lon="-0.44953454"><ele>49.0</ele><time>2022-11-01T11:19:47.0000000+00:00</time></trkpt><trkpt lat="39.50313952" lon="-0.44952985"><ele>49.0</ele><time>2022-11-01T11:19:48.0000000+00:00</time></trkpt><trkpt lat="39.5031557" lon="-0.44955717"><ele>49.2</ele><time>2022-11-01T11:19:49.0000000+00:00</time></trkpt><trkpt lat="39.50319878" lon="-0.44960101"><ele>49.2</ele><time>2022-11-01T11:19:50.0000000+00:00</time></trkpt><trkpt lat="39.50324446" lon="-0.44964267"><ele>49.2</ele><time>2022-11-01T11:19:51.0000000+00:00</time></trkpt><trkpt lat="39.5032748" lon="-0.44969263"><ele>49.2</ele><time>2022-11-01T11:19:52.0000000+00:00</time></trkpt><trkpt lat="39.50329978" lon="-0.44973705"><ele>49.2</ele><time>2022-11-01T11:19:53.0000000+00:00</time></trkpt><trkpt lat="39.50331621" lon="-0.4497772"><ele>49.4</ele><time>2022-11-01T11:19:54.0000000+00:00</time></trkpt><trkpt lat="39.50335041" lon="-0.44983554"><ele>49.4</ele><time>2022-11-01T11:19:55.0000000+00:00</time></trkpt><trkpt lat="39.50337589" lon="-0.44986907"><ele>49.4</ele><time>2022-11-01T11:19:56.0000000+00:00</time></trkpt><trkpt lat="39.50338813" lon="-0.44991064"><ele>49.4</ele><time>2022-11-01T11:19:57.0000000+00:00</time></trkpt><trkpt lat="39.50340623" lon="-0.44996269"><ele>49.4</ele><time>2022-11-01T11:19:58.0000000+00:00</time></trkpt><trkpt lat="39.50341377" lon="-0.45001223"><ele>49.6</ele><time>2022-11-01T11:19:59.0000000+00:00</time></trkpt><trkpt lat="39.50341377" lon="-0.45001223"><ele>49.6</ele><time>2022-11-01T11:20:00.0000000+00:00</time></trkpt><trkpt lat="39.50339433" lon="-0.45008247"><ele>49.6</ele><time>2022-11-01T11:20:01.0000000+00:00</time></trkpt><trkpt lat="39.50341109" lon="-0.45016092"><ele>49.6</ele><time>2022-11-01T11:20:02.0000000+00:00</time></trkpt><trkpt lat="39.5034235" lon="-0.45021507"><ele>49.6</ele><time>2022-11-01T11:20:03.0000000+00:00</time></trkpt><trkpt lat="39.50343959" lon="-0.45026762"><ele>49.6</ele><time>2022-11-01T11:20:04.0000000+00:00</time></trkpt><trkpt lat="39.5034494" lon="-0.45032311"><ele>49.6</ele><time>2022-11-01T11:20:05.0000000+00:00</time></trkpt><trkpt lat="39.50344571" lon="-0.45036854"><ele>49.6</ele><time>2022-11-01T11:20:06.0000000+00:00</time></trkpt><trkpt lat="39.50343473" lon="-0.45039872"><ele>49.6</ele><time>2022-11-01T11:20:07.0000000+00:00</time></trkpt><trkpt lat="39.50343205" lon="-0.45040685"><ele>49.6</ele><time>2022-11-01T11:20:08.0000000+00:00</time></trkpt><trkpt lat="39.50343205" lon="-0.45040685"><ele>49.6</ele><time>2022-11-01T11:20:09.0000000+00:00</time></trkpt><trkpt lat="39.50345585" lon="-0.45038271"><ele>49.6</ele><time>2022-11-01T11:20:10.0000000+00:00</time></trkpt><trkpt lat="39.50349877" lon="-0.45034834"><ele>49.6</ele><time>2022-11-01T11:20:11.0000000+00:00</time></trkpt><trkpt lat="39.50355157" lon="-0.45032169"><ele>49.6</ele><time>2022-11-01T11:20:12.0000000+00:00</time></trkpt><trkpt lat="39.50360614" lon="-0.45030031"><ele>49.6</ele><time>2022-11-01T11:20:13.0000000+00:00</time></trkpt><trkpt lat="39.50366347" lon="-0.45026888"><ele>49.6</ele><time>2022-11-01T11:20:14.0000000+00:00</time></trkpt><trkpt lat="39.50372173" lon="-0.45024147"><ele>49.8</ele><time>2022-11-01T11:20:15.0000000+00:00</time></trkpt><trkpt lat="39.50377889" lon="-0.45021968"><ele>49.8</ele><time>2022-11-01T11:20:16.0000000+00:00</time></trkpt><trkpt lat="39.5038348" lon="-0.45019453"><ele>49.8</ele><time>2022-11-01T11:20:17.0000000+00:00</time></trkpt><trkpt lat="39.50389573" lon="-0.45019009"><ele>49.8</ele><time>2022-11-01T11:20:18.0000000+00:00</time></trkpt><trkpt lat="39.50396505" lon="-0.45019227"><ele>49.8</ele><time>2022-11-01T11:20:19.0000000+00:00</time></trkpt><trkpt lat="39.50402775" lon="-0.45018598"><ele>49.8</ele><time>2022-11-01T11:20:20.0000000+00:00</time></trkpt><trkpt lat="39.50408517" lon="-0.45018615"><ele>49.8</ele><time>2022-11-01T11:20:21.0000000+00:00</time></trkpt><trkpt lat="39.5041404" lon="-0.45018422"><ele>49.8</ele><time>2022-11-01T11:20:22.0000000+00:00</time></trkpt><trkpt lat="39.50419782" lon="-0.45017601"><ele>50.0</ele><time>2022-11-01T11:20:23.0000000+00:00</time></trkpt><trkpt lat="39.50426227" lon="-0.45016495"><ele>50.0</ele><time>2022-11-01T11:20:24.0000000+00:00</time></trkpt><trkpt lat="39.50432455" lon="-0.45016101"><ele>50.0</ele><time>2022-11-01T11:20:25.0000000+00:00</time></trkpt><trkpt lat="39.50438708" lon="-0.45016377"><ele>50.0</ele><time>2022-11-01T11:20:26.0000000+00:00</time></trkpt><trkpt lat="39.50445841" lon="-0.4501621"><ele>50.0</ele><time>2022-11-01T11:20:27.0000000+00:00</time></trkpt><trkpt lat="39.50450887" lon="-0.45017341"><ele>50.0</ele><time>2022-11-01T11:20:28.0000000+00:00</time></trkpt><trkpt lat="39.5045522" lon="-0.45019495"><ele>50.0</ele><time>2022-11-01T11:20:29.0000000+00:00</time></trkpt><trkpt lat="39.50459068" lon="-0.45022345"><ele>50.0</ele><time>2022-11-01T11:20:30.0000000+00:00</time></trkpt><trkpt lat="39.50462462" lon="-0.45025857"><ele>50.0</ele><time>2022-11-01T11:20:31.0000000+00:00</time></trkpt><trkpt lat="39.50465312" lon="-0.45029922"><ele>50.2</ele><time>2022-11-01T11:20:32.0000000+00:00</time></trkpt><trkpt lat="39.50468196" lon="-0.45034415"><ele>50.2</ele><time>2022-11-01T11:20:33.0000000+00:00</time></trkpt><trkpt lat="39.50471624" lon="-0.45038338"><ele>50.2</ele><time>2022-11-01T11:20:34.0000000+00:00</time></trkpt><trkpt lat="39.50475044" lon="-0.45043317"><ele>50.2</ele><time>2022-11-01T11:20:35.0000000+00:00</time></trkpt><trkpt lat="39.50478086" lon="-0.45048698"><ele>50.2</ele><time>2022-11-01T11:20:36.0000000+00:00</time></trkpt><trkpt lat="39.50481104" lon="-0.4505361"><ele>50.4</ele><time>2022-11-01T11:20:37.0000000+00:00</time></trkpt><trkpt lat="39.50483996" lon="-0.4505718"><ele>50.4</ele><time>2022-11-01T11:20:38.0000000+00:00</time></trkpt><trkpt lat="39.50487927" lon="-0.45060852"><ele>50.4</ele><time>2022-11-01T11:20:39.0000000+00:00</time></trkpt><trkpt lat="39.50491514" lon="-0.45066359"><ele>50.6</ele><time>2022-11-01T11:20:40.0000000+00:00</time></trkpt><trkpt lat="39.5049485" lon="-0.45072419"><ele>50.6</ele><time>2022-11-01T11:20:41.0000000+00:00</time></trkpt><trkpt lat="39.50498161" lon="-0.45078496"><ele>50.6</ele><time>2022-11-01T11:20:42.0000000+00:00</time></trkpt><trkpt lat="39.50501354" lon="-0.4508464"><ele>50.6</ele><time>2022-11-01T11:20:43.0000000+00:00</time></trkpt><trkpt lat="39.50506233" lon="-0.45090649"><ele>50.6</ele><time>2022-11-01T11:20:44.0000000+00:00</time></trkpt><trkpt lat="39.50508756" lon="-0.45095829"><ele>50.6</ele><time>2022-11-01T11:20:45.0000000+00:00</time></trkpt><trkpt lat="39.50510801" lon="-0.45102418"><ele>50.6</ele><time>2022-11-01T11:20:46.0000000+00:00</time></trkpt><trkpt lat="39.50513718" lon="-0.45109416"><ele>50.6</ele><time>2022-11-01T11:20:47.0000000+00:00</time></trkpt><trkpt lat="39.50515713" lon="-0.4511572"><ele>50.6</ele><time>2022-11-01T11:20:48.0000000+00:00</time></trkpt><trkpt lat="39.50518244" lon="-0.45122056"><ele>50.6</ele><time>2022-11-01T11:20:49.0000000+00:00</time></trkpt><trkpt lat="39.50519619" lon="-0.45128896"><ele>50.6</ele><time>2022-11-01T11:20:50.0000000+00:00</time></trkpt><trkpt lat="39.50520775" lon="-0.45135828"><ele>50.6</ele><time>2022-11-01T11:20:51.0000000+00:00</time></trkpt><trkpt lat="39.50521865" lon="-0.45143087"><ele>50.6</ele><time>2022-11-01T11:20:52.0000000+00:00</time></trkpt><trkpt lat="39.50522821" lon="-0.45150387"><ele>50.6</ele><time>2022-11-01T11:20:53.0000000+00:00</time></trkpt><trkpt lat="39.50523977" lon="-0.45157512"><ele>50.8</ele><time>2022-11-01T11:20:54.0000000+00:00</time></trkpt><trkpt lat="39.50525318" lon="-0.45164234"><ele>50.8</ele><time>2022-11-01T11:20:55.0000000+00:00</time></trkpt><trkpt lat="39.50526316" lon="-0.45171116"><ele>50.8</ele><time>2022-11-01T11:20:56.0000000+00:00</time></trkpt><trkpt lat="39.50528009" lon="-0.45178123"><ele>50.8</ele><time>2022-11-01T11:20:57.0000000+00:00</time></trkpt><trkpt lat="39.50528671" lon="-0.45184828"><ele>51.0</ele><time>2022-11-01T11:20:58.0000000+00:00</time></trkpt><trkpt lat="39.50529836" lon="-0.45191215"><ele>51.0</ele><time>2022-11-01T11:20:59.0000000+00:00</time></trkpt><trkpt lat="39.50531152" lon="-0.45197108"><ele>51.0</ele><time>2022-11-01T11:21:00.0000000+00:00</time></trkpt><trkpt lat="39.50532569" lon="-0.45202816"><ele>51.0</ele><time>2022-11-01T11:21:01.0000000+00:00</time></trkpt><trkpt lat="39.50534362" lon="-0.45208474"><ele>51.0</ele><time>2022-11-01T11:21:02.0000000+00:00</time></trkpt><trkpt lat="39.50535678" lon="-0.45212329"><ele>51.0</ele><time>2022-11-01T11:21:03.0000000+00:00</time></trkpt><trkpt lat="39.50537749" lon="-0.45217937"><ele>51.0</ele><time>2022-11-01T11:21:04.0000000+00:00</time></trkpt><trkpt lat="39.50539576" lon="-0.45222363"><ele>51.0</ele><time>2022-11-01T11:21:05.0000000+00:00</time></trkpt><trkpt lat="39.5054137" lon="-0.45226813"><ele>51.0</ele><time>2022-11-01T11:21:06.0000000+00:00</time></trkpt><trkpt lat="39.50542904" lon="-0.45229982"><ele>51.0</ele><time>2022-11-01T11:21:07.0000000+00:00</time></trkpt><trkpt lat="39.50545217" lon="-0.4523579"><ele>51.2</ele><time>2022-11-01T11:21:08.0000000+00:00</time></trkpt><trkpt lat="39.50547614" lon="-0.45241339"><ele>51.2</ele><time>2022-11-01T11:21:09.0000000+00:00</time></trkpt><trkpt lat="39.50549366" lon="-0.45246016"><ele>51.2</ele><time>2022-11-01T11:21:10.0000000+00:00</time></trkpt><trkpt lat="39.50552207" lon="-0.45252831"><ele>51.2</ele><time>2022-11-01T11:21:11.0000000+00:00</time></trkpt><trkpt lat="39.50554865" lon="-0.4525879"><ele>51.2</ele><time>2022-11-01T11:21:12.0000000+00:00</time></trkpt><trkpt lat="39.50557714" lon="-0.45264674"><ele>51.2</ele><time>2022-11-01T11:21:13.0000000+00:00</time></trkpt><trkpt lat="39.50560086" lon="-0.45269083"><ele>51.2</ele><time>2022-11-01T11:21:14.0000000+00:00</time></trkpt><trkpt lat="39.50563439" lon="-0.45276359"><ele>51.2</ele><time>2022-11-01T11:21:15.0000000+00:00</time></trkpt><trkpt lat="39.50566448" lon="-0.45282478"><ele>51.2</ele><time>2022-11-01T11:21:16.0000000+00:00</time></trkpt><trkpt lat="39.50569432" lon="-0.45288353"><ele>51.2</ele><time>2022-11-01T11:21:17.0000000+00:00</time></trkpt><trkpt lat="39.50572617" lon="-0.4529412"><ele>51.4</ele><time>2022-11-01T11:21:18.0000000+00:00</time></trkpt><trkpt lat="39.5057571" lon="-0.4529935"><ele>51.2</ele><time>2022-11-01T11:21:19.0000000+00:00</time></trkpt><trkpt lat="39.50578451" lon="-0.45304002"><ele>51.2</ele><time>2022-11-01T11:21:20.0000000+00:00</time></trkpt><trkpt lat="39.50581024" lon="-0.45309794"><ele>51.2</ele><time>2022-11-01T11:21:21.0000000+00:00</time></trkpt><trkpt lat="39.50584319" lon="-0.45316651"><ele>51.4</ele><time>2022-11-01T11:21:22.0000000+00:00</time></trkpt><trkpt lat="39.5058685" lon="-0.4532168"><ele>51.4</ele><time>2022-11-01T11:21:23.0000000+00:00</time></trkpt><trkpt lat="39.50590521" lon="-0.45329006"><ele>51.4</ele><time>2022-11-01T11:21:24.0000000+00:00</time></trkpt><trkpt lat="39.5059343" lon="-0.45335082"><ele>51.4</ele><time>2022-11-01T11:21:25.0000000+00:00</time></trkpt><trkpt lat="39.50596221" lon="-0.45341285"><ele>51.4</ele><time>2022-11-01T11:21:26.0000000+00:00</time></trkpt><trkpt lat="39.50599029" lon="-0.45347177"><ele>51.4</ele><time>2022-11-01T11:21:27.0000000+00:00</time></trkpt><trkpt lat="39.50601828" lon="-0.45353036"><ele>51.4</ele><time>2022-11-01T11:21:28.0000000+00:00</time></trkpt><trkpt lat="39.50604494" lon="-0.4535918"><ele>51.4</ele><time>2022-11-01T11:21:29.0000000+00:00</time></trkpt><trkpt lat="39.50606899" lon="-0.45364972"><ele>51.4</ele><time>2022-11-01T11:21:30.0000000+00:00</time></trkpt><trkpt lat="39.50609355" lon="-0.45370395"><ele>51.4</ele><time>2022-11-01T11:21:31.0000000+00:00</time></trkpt><trkpt lat="39.50612012" lon="-0.45375533"><ele>51.4</ele><time>2022-11-01T11:21:32.0000000+00:00</time></trkpt><trkpt lat="39.50613915" lon="-0.45379967"><ele>51.4</ele><time>2022-11-01T11:21:33.0000000+00:00</time></trkpt><trkpt lat="39.50616354" lon="-0.45386941"><ele>51.6</ele><time>2022-11-01T11:21:34.0000000+00:00</time></trkpt><trkpt lat="39.50618265" lon="-0.45392809"><ele>51.6</ele><time>2022-11-01T11:21:35.0000000+00:00</time></trkpt><trkpt lat="39.5062031" lon="-0.4539803"><ele>51.6</ele><time>2022-11-01T11:21:36.0000000+00:00</time></trkpt><trkpt lat="39.50622381" lon="-0.45403143"><ele>51.6</ele><time>2022-11-01T11:21:37.0000000+00:00</time></trkpt><trkpt lat="39.50624812" lon="-0.4540751"><ele>51.6</ele><time>2022-11-01T11:21:38.0000000+00:00</time></trkpt><trkpt lat="39.5062772" lon="-0.45411735"><ele>51.6</ele><time>2022-11-01T11:21:39.0000000+00:00</time></trkpt><trkpt lat="39.50630444" lon="-0.45414878"><ele>51.6</ele><time>2022-11-01T11:21:40.0000000+00:00</time></trkpt><trkpt lat="39.50634006" lon="-0.45419513"><ele>51.6</ele><time>2022-11-01T11:21:41.0000000+00:00</time></trkpt><trkpt lat="39.50636571" lon="-0.45426227"><ele>51.8</ele><time>2022-11-01T11:21:42.0000000+00:00</time></trkpt><trkpt lat="39.50637259" lon="-0.45432606"><ele>51.8</ele><time>2022-11-01T11:21:43.0000000+00:00</time></trkpt><trkpt lat="39.5063741" lon="-0.45439169"><ele>51.8</ele><time>2022-11-01T11:21:44.0000000+00:00</time></trkpt><trkpt lat="39.50637342" lon="-0.45445237"><ele>52.0</ele><time>2022-11-01T11:21:45.0000000+00:00</time></trkpt><trkpt lat="39.50638047" lon="-0.45451775"><ele>52.0</ele><time>2022-11-01T11:21:46.0000000+00:00</time></trkpt><trkpt lat="39.50640142" lon="-0.45457726"><ele>52.0</ele><time>2022-11-01T11:21:47.0000000+00:00</time></trkpt><trkpt lat="39.50643294" lon="-0.4546294"><ele>52.0</ele><time>2022-11-01T11:21:48.0000000+00:00</time></trkpt><trkpt lat="39.50647174" lon="-0.45467827"><ele>52.0</ele><time>2022-11-01T11:21:49.0000000+00:00</time></trkpt><trkpt lat="39.50651164" lon="-0.45472965"><ele>52.0</ele><time>2022-11-01T11:21:50.0000000+00:00</time></trkpt><trkpt lat="39.5065497" lon="-0.45478019"><ele>51.8</ele><time>2022-11-01T11:21:51.0000000+00:00</time></trkpt><trkpt lat="39.50658708" lon="-0.45482788"><ele>51.8</ele><time>2022-11-01T11:21:52.0000000+00:00</time></trkpt><trkpt lat="39.50661943" lon="-0.4548796"><ele>51.8</ele><time>2022-11-01T11:21:53.0000000+00:00</time></trkpt><trkpt lat="39.50665824" lon="-0.45493442"><ele>51.8</ele><time>2022-11-01T11:21:54.0000000+00:00</time></trkpt><trkpt lat="39.50669789" lon="-0.45498496"><ele>52.0</ele><time>2022-11-01T11:21:55.0000000+00:00</time></trkpt><trkpt lat="39.50673435" lon="-0.45503148"><ele>52.0</ele><time>2022-11-01T11:21:56.0000000+00:00</time></trkpt><trkpt lat="39.50676327" lon="-0.45506459"><ele>52.0</ele><time>2022-11-01T11:21:57.0000000+00:00</time></trkpt><trkpt lat="39.5067973" lon="-0.45510775"><ele>52.0</ele><time>2022-11-01T11:21:58.0000000+00:00</time></trkpt><trkpt lat="39.50683611" lon="-0.45515779"><ele>52.0</ele><time>2022-11-01T11:21:59.0000000+00:00</time></trkpt><trkpt lat="39.50686351" lon="-0.4551966"><ele>52.0</ele><time>2022-11-01T11:22:00.0000000+00:00</time></trkpt><trkpt lat="39.50688271" lon="-0.45523298"><ele>52.0</ele><time>2022-11-01T11:22:01.0000000+00:00</time></trkpt><trkpt lat="39.50690685" lon="-0.45526098"><ele>51.8</ele><time>2022-11-01T11:22:02.0000000+00:00</time></trkpt><trkpt lat="39.50692613" lon="-0.45528947"><ele>51.8</ele><time>2022-11-01T11:22:03.0000000+00:00</time></trkpt><trkpt lat="39.50693308" lon="-0.45532024"><ele>51.8</ele><time>2022-11-01T11:22:04.0000000+00:00</time></trkpt><trkpt lat="39.50693317" lon="-0.45534186"><ele>51.8</ele><time>2022-11-01T11:22:05.0000000+00:00</time></trkpt><trkpt lat="39.50693132" lon="-0.4553722"><ele>51.8</ele><time>2022-11-01T11:22:06.0000000+00:00</time></trkpt><trkpt lat="39.5069392" lon="-0.45540171"><ele>51.8</ele><time>2022-11-01T11:22:07.0000000+00:00</time></trkpt><trkpt lat="39.50694918" lon="-0.45541629"><ele>51.8</ele><time>2022-11-01T11:22:08.0000000+00:00</time></trkpt><trkpt lat="39.50696485" lon="-0.45544496"><ele>51.8</ele><time>2022-11-01T11:22:09.0000000+00:00</time></trkpt><trkpt lat="39.50696971" lon="-0.45547497"><ele>51.8</ele><time>2022-11-01T11:22:10.0000000+00:00</time></trkpt><trkpt lat="39.50696351" lon="-0.4555126"><ele>51.8</ele><time>2022-11-01T11:22:11.0000000+00:00</time></trkpt><trkpt lat="39.50694851" lon="-0.45555577"><ele>52.0</ele><time>2022-11-01T11:22:12.0000000+00:00</time></trkpt><trkpt lat="39.50693627" lon="-0.4555794"><ele>52.0</ele><time>2022-11-01T11:22:13.0000000+00:00</time></trkpt><trkpt lat="39.50692286" lon="-0.45560447"><ele>52.0</ele><time>2022-11-01T11:22:14.0000000+00:00</time></trkpt><trkpt lat="39.50690861" lon="-0.4556297"><ele>52.0</ele><time>2022-11-01T11:22:15.0000000+00:00</time></trkpt><trkpt lat="39.50689369" lon="-0.45565551"><ele>52.0</ele><time>2022-11-01T11:22:16.0000000+00:00</time></trkpt><trkpt lat="39.50687391" lon="-0.45567814"><ele>52.0</ele><time>2022-11-01T11:22:17.0000000+00:00</time></trkpt><trkpt lat="39.50685178" lon="-0.45569197"><ele>52.0</ele><time>2022-11-01T11:22:18.0000000+00:00</time></trkpt><trkpt lat="39.50683158" lon="-0.45570991"><ele>52.0</ele><time>2022-11-01T11:22:19.0000000+00:00</time></trkpt><trkpt lat="39.50681901" lon="-0.45572726"><ele>52.0</ele><time>2022-11-01T11:22:20.0000000+00:00</time></trkpt><trkpt lat="39.50680451" lon="-0.45576439"><ele>52.0</ele><time>2022-11-01T11:22:21.0000000+00:00</time></trkpt><trkpt lat="39.50678933" lon="-0.45579633"><ele>52.0</ele><time>2022-11-01T11:22:22.0000000+00:00</time></trkpt><trkpt lat="39.50677198" lon="-0.45583128"><ele>52.0</ele><time>2022-11-01T11:22:23.0000000+00:00</time></trkpt><trkpt lat="39.50675656" lon="-0.45585693"><ele>52.0</ele><time>2022-11-01T11:22:24.0000000+00:00</time></trkpt><trkpt lat="39.50673678" lon="-0.45588937"><ele>52.2</ele><time>2022-11-01T11:22:25.0000000+00:00</time></trkpt><trkpt lat="39.50671423" lon="-0.45592516"><ele>52.2</ele><time>2022-11-01T11:22:26.0000000+00:00</time></trkpt><trkpt lat="39.50668842" lon="-0.45596941"><ele>52.2</ele><time>2022-11-01T11:22:27.0000000+00:00</time></trkpt><trkpt lat="39.50666981" lon="-0.45600328"><ele>52.2</ele><time>2022-11-01T11:22:28.0000000+00:00</time></trkpt><trkpt lat="39.50664659" lon="-0.45604209"><ele>52.4</ele><time>2022-11-01T11:22:29.0000000+00:00</time></trkpt><trkpt lat="39.50661935" lon="-0.45608718"><ele>52.2</ele><time>2022-11-01T11:22:30.0000000+00:00</time></trkpt><trkpt lat="39.5066015" lon="-0.45612381"><ele>52.2</ele><time>2022-11-01T11:22:31.0000000+00:00</time></trkpt><trkpt lat="39.50658247" lon="-0.45617175"><ele>52.2</ele><time>2022-11-01T11:22:32.0000000+00:00</time></trkpt><trkpt lat="39.50656638" lon="-0.45623411"><ele>52.2</ele><time>2022-11-01T11:22:33.0000000+00:00</time></trkpt><trkpt lat="39.50656084" lon="-0.45628583"><ele>52.2</ele><time>2022-11-01T11:22:34.0000000+00:00</time></trkpt><trkpt lat="39.50656763" lon="-0.45633218"><ele>52.2</ele><time>2022-11-01T11:22:35.0000000+00:00</time></trkpt><trkpt lat="39.50658507" lon="-0.45638566"><ele>52.2</ele><time>2022-11-01T11:22:36.0000000+00:00</time></trkpt><trkpt lat="39.50661264" lon="-0.45644039"><ele>52.4</ele><time>2022-11-01T11:22:37.0000000+00:00</time></trkpt><trkpt lat="39.50663486" lon="-0.45647308"><ele>52.4</ele><time>2022-11-01T11:22:38.0000000+00:00</time></trkpt><trkpt lat="39.50666335" lon="-0.45651231"><ele>52.4</ele><time>2022-11-01T11:22:39.0000000+00:00</time></trkpt><trkpt lat="39.50669713" lon="-0.45656"><ele>52.4</ele><time>2022-11-01T11:22:40.0000000+00:00</time></trkpt><trkpt lat="39.50672588" lon="-0.45660694"><ele>52.4</ele><time>2022-11-01T11:22:41.0000000+00:00</time></trkpt><trkpt lat="39.50674768" lon="-0.4566455"><ele>52.6</ele><time>2022-11-01T11:22:42.0000000+00:00</time></trkpt><trkpt lat="39.50678137" lon="-0.45670543"><ele>52.6</ele><time>2022-11-01T11:22:43.0000000+00:00</time></trkpt><trkpt lat="39.50680451" lon="-0.45674717"><ele>52.8</ele><time>2022-11-01T11:22:44.0000000+00:00</time></trkpt><trkpt lat="39.50683979" lon="-0.45680509"><ele>52.8</ele><time>2022-11-01T11:22:45.0000000+00:00</time></trkpt><trkpt lat="39.50686544" lon="-0.45684314"><ele>52.8</ele><time>2022-11-01T11:22:46.0000000+00:00</time></trkpt><trkpt lat="39.50689629" lon="-0.45689151"><ele>52.8</ele><time>2022-11-01T11:22:47.0000000+00:00</time></trkpt><trkpt lat="39.50692965" lon="-0.45693928"><ele>52.8</ele><time>2022-11-01T11:22:48.0000000+00:00</time></trkpt><trkpt lat="39.50696276" lon="-0.45698295"><ele>53.0</ele><time>2022-11-01T11:22:49.0000000+00:00</time></trkpt><trkpt lat="39.50699419" lon="-0.45703149"><ele>53.0</ele><time>2022-11-01T11:22:50.0000000+00:00</time></trkpt><trkpt lat="39.5070283" lon="-0.45707566"><ele>53.0</ele><time>2022-11-01T11:22:51.0000000+00:00</time></trkpt><trkpt lat="39.50706996" lon="-0.45712536"><ele>53.0</ele><time>2022-11-01T11:22:52.0000000+00:00</time></trkpt><trkpt lat="39.50710282" lon="-0.45717389"><ele>53.0</ele><time>2022-11-01T11:22:53.0000000+00:00</time></trkpt><trkpt lat="39.50713048" lon="-0.45720834"><ele>53.2</ele><time>2022-11-01T11:22:54.0000000+00:00</time></trkpt><trkpt lat="39.50716367" lon="-0.45726291"><ele>53.2</ele><time>2022-11-01T11:22:55.0000000+00:00</time></trkpt><trkpt lat="39.50718613" lon="-0.4572951"><ele>53.2</ele><time>2022-11-01T11:22:56.0000000+00:00</time></trkpt><trkpt lat="39.50721547" lon="-0.45733399"><ele>53.4</ele><time>2022-11-01T11:22:57.0000000+00:00</time></trkpt><trkpt lat="39.50724539" lon="-0.4573738"><ele>53.4</ele><time>2022-11-01T11:22:58.0000000+00:00</time></trkpt><trkpt lat="39.50727389" lon="-0.45742183"><ele>53.4</ele><time>2022-11-01T11:22:59.0000000+00:00</time></trkpt><trkpt lat="39.50729854" lon="-0.45746869"><ele>53.6</ele><time>2022-11-01T11:23:00.0000000+00:00</time></trkpt><trkpt lat="39.50732812" lon="-0.45752845"><ele>53.6</ele><time>2022-11-01T11:23:01.0000000+00:00</time></trkpt><trkpt lat="39.50735427" lon="-0.4575779"><ele>53.6</ele><time>2022-11-01T11:23:02.0000000+00:00</time></trkpt><trkpt lat="39.50737741" lon="-0.45761579"><ele>53.8</ele><time>2022-11-01T11:23:03.0000000+00:00</time></trkpt><trkpt lat="39.50740641" lon="-0.45765954"><ele>53.8</ele><time>2022-11-01T11:23:04.0000000+00:00</time></trkpt><trkpt lat="39.50744086" lon="-0.45771528"><ele>53.8</ele><time>2022-11-01T11:23:05.0000000+00:00</time></trkpt><trkpt lat="39.5074707" lon="-0.45775786"><ele>54.0</ele><time>2022-11-01T11:23:06.0000000+00:00</time></trkpt><trkpt lat="39.50749953" lon="-0.45780321"><ele>54.0</ele><time>2022-11-01T11:23:07.0000000+00:00</time></trkpt><trkpt lat="39.50752166" lon="-0.45783833"><ele>54.2</ele><time>2022-11-01T11:23:08.0000000+00:00</time></trkpt><trkpt lat="39.50755863" lon="-0.45789348"><ele>54.2</ele><time>2022-11-01T11:23:09.0000000+00:00</time></trkpt><trkpt lat="39.50758763" lon="-0.45793857"><ele>54.2</ele><time>2022-11-01T11:23:10.0000000+00:00</time></trkpt><trkpt lat="39.50761554" lon="-0.45798317"><ele>54.4</ele><time>2022-11-01T11:23:11.0000000+00:00</time></trkpt><trkpt lat="39.50764169" lon="-0.45802834"><ele>54.6</ele><time>2022-11-01T11:23:12.0000000+00:00</time></trkpt><trkpt lat="39.50766491" lon="-0.45807252"><ele>54.6</ele><time>2022-11-01T11:23:13.0000000+00:00</time></trkpt><trkpt lat="39.50768444" lon="-0.45811669"><ele>54.6</ele><time>2022-11-01T11:23:14.0000000+00:00</time></trkpt><trkpt lat="39.50771243" lon="-0.4581612"><ele>54.8</ele><time>2022-11-01T11:23:15.0000000+00:00</time></trkpt><trkpt lat="39.5077442" lon="-0.45820537"><ele>55.0</ele><time>2022-11-01T11:23:16.0000000+00:00</time></trkpt><trkpt lat="39.50777018" lon="-0.45823907"><ele>55.0</ele><time>2022-11-01T11:23:17.0000000+00:00</time></trkpt><trkpt lat="39.50779776" lon="-0.45828098"><ele>55.2</ele><time>2022-11-01T11:23:18.0000000+00:00</time></trkpt><trkpt lat="39.50782157" lon="-0.45834107"><ele>55.2</ele><time>2022-11-01T11:23:19.0000000+00:00</time></trkpt><trkpt lat="39.50784612" lon="-0.45841014"><ele>55.4</ele><time>2022-11-01T11:23:20.0000000+00:00</time></trkpt><trkpt lat="39.50786943" lon="-0.45844157"><ele>55.4</ele><time>2022-11-01T11:23:21.0000000+00:00</time></trkpt><trkpt lat="39.50791117" lon="-0.45850402"><ele>55.4</ele><time>2022-11-01T11:23:22.0000000+00:00</time></trkpt><trkpt lat="39.50795115" lon="-0.45856956"><ele>55.6</ele><time>2022-11-01T11:23:23.0000000+00:00</time></trkpt><trkpt lat="39.50799231" lon="-0.45863385"><ele>55.8</ele><time>2022-11-01T11:23:24.0000000+00:00</time></trkpt><trkpt lat="39.50802391" lon="-0.45868289"><ele>55.8</ele><time>2022-11-01T11:23:25.0000000+00:00</time></trkpt><trkpt lat="39.50806556" lon="-0.45874508"><ele>55.8</ele><time>2022-11-01T11:23:26.0000000+00:00</time></trkpt><trkpt lat="39.50809725" lon="-0.45879135"><ele>55.8</ele><time>2022-11-01T11:23:27.0000000+00:00</time></trkpt><trkpt lat="39.50815139" lon="-0.45884642"><ele>55.8</ele><time>2022-11-01T11:23:28.0000000+00:00</time></trkpt><trkpt lat="39.5081446" lon="-0.45889981"><ele>56.0</ele><time>2022-11-01T11:23:29.0000000+00:00</time></trkpt><trkpt lat="39.50813597" lon="-0.45893619"><ele>56.0</ele><time>2022-11-01T11:23:30.0000000+00:00</time></trkpt><trkpt lat="39.50817855" lon="-0.45894943"><ele>56.2</ele><time>2022-11-01T11:23:31.0000000+00:00</time></trkpt><trkpt lat="39.5082332" lon="-0.45899369"><ele>56.4</ele><time>2022-11-01T11:23:32.0000000+00:00</time></trkpt><trkpt lat="39.50826447" lon="-0.45901598"><ele>56.4</ele><time>2022-11-01T11:23:33.0000000+00:00</time></trkpt><trkpt lat="39.5082969" lon="-0.45903334"><ele>56.6</ele><time>2022-11-01T11:23:34.0000000+00:00</time></trkpt><trkpt lat="39.50833454" lon="-0.45907382"><ele>56.6</ele><time>2022-11-01T11:23:35.0000000+00:00</time></trkpt><trkpt lat="39.50835466" lon="-0.4591195"><ele>56.8</ele><time>2022-11-01T11:23:36.0000000+00:00</time></trkpt><trkpt lat="39.50838232" lon="-0.45917583"><ele>57.0</ele><time>2022-11-01T11:23:37.0000000+00:00</time></trkpt><trkpt lat="39.50840905" lon="-0.45922872"><ele>57.0</ele><time>2022-11-01T11:23:38.0000000+00:00</time></trkpt><trkpt lat="39.50843797" lon="-0.45927222"><ele>57.2</ele><time>2022-11-01T11:23:39.0000000+00:00</time></trkpt><trkpt lat="39.50846714" lon="-0.45931371"><ele>57.2</ele><time>2022-11-01T11:23:40.0000000+00:00</time></trkpt><trkpt lat="39.50849447" lon="-0.45935411"><ele>57.2</ele><time>2022-11-01T11:23:41.0000000+00:00</time></trkpt><trkpt lat="39.50852078" lon="-0.4593925"><ele>57.4</ele><time>2022-11-01T11:23:42.0000000+00:00</time></trkpt><trkpt lat="39.50855666" lon="-0.45943533"><ele>57.4</ele><time>2022-11-01T11:23:43.0000000+00:00</time></trkpt><trkpt lat="39.50858038" lon="-0.45946911"><ele>57.6</ele><time>2022-11-01T11:23:44.0000000+00:00</time></trkpt><trkpt lat="39.50860988" lon="-0.45951488"><ele>57.6</ele><time>2022-11-01T11:23:45.0000000+00:00</time></trkpt><trkpt lat="39.50863553" lon="-0.45956056"><ele>57.8</ele><time>2022-11-01T11:23:46.0000000+00:00</time></trkpt><trkpt lat="39.50865976" lon="-0.45961051"><ele>57.8</ele><time>2022-11-01T11:23:47.0000000+00:00</time></trkpt><trkpt lat="39.50868901" lon="-0.45965728"><ele>57.8</ele><time>2022-11-01T11:23:48.0000000+00:00</time></trkpt><trkpt lat="39.50872497" lon="-0.45971562"><ele>58.0</ele><time>2022-11-01T11:23:49.0000000+00:00</time></trkpt><trkpt lat="39.50875212" lon="-0.45975426"><ele>58.0</ele><time>2022-11-01T11:23:50.0000000+00:00</time></trkpt><trkpt lat="39.50878347" lon="-0.45980782"><ele>58.2</ele><time>2022-11-01T11:23:51.0000000+00:00</time></trkpt><trkpt lat="39.50880921" lon="-0.45985376"><ele>58.4</ele><time>2022-11-01T11:23:52.0000000+00:00</time></trkpt><trkpt lat="39.50883142" lon="-0.45990162"><ele>58.4</ele><time>2022-11-01T11:23:53.0000000+00:00</time></trkpt><trkpt lat="39.50885832" lon="-0.45994956"><ele>58.6</ele><time>2022-11-01T11:23:54.0000000+00:00</time></trkpt><trkpt lat="39.50888146" lon="-0.45998535"><ele>58.8</ele><time>2022-11-01T11:23:55.0000000+00:00</time></trkpt><trkpt lat="39.50891817" lon="-0.46004101"><ele>58.8</ele><time>2022-11-01T11:23:56.0000000+00:00</time></trkpt><trkpt lat="39.50894265" lon="-0.4600799"><ele>58.8</ele><time>2022-11-01T11:23:57.0000000+00:00</time></trkpt><trkpt lat="39.50897433" lon="-0.46014159"><ele>59.0</ele><time>2022-11-01T11:23:58.0000000+00:00</time></trkpt><trkpt lat="39.50900115" lon="-0.46019104"><ele>59.0</ele><time>2022-11-01T11:23:59.0000000+00:00</time></trkpt><trkpt lat="39.50902948" lon="-0.46023974"><ele>59.0</ele><time>2022-11-01T11:24:00.0000000+00:00</time></trkpt><trkpt lat="39.50905806" lon="-0.46028517"><ele>59.2</ele><time>2022-11-01T11:24:01.0000000+00:00</time></trkpt><trkpt lat="39.50908992" lon="-0.46033412"><ele>59.2</ele><time>2022-11-01T11:24:02.0000000+00:00</time></trkpt><trkpt lat="39.50912093" lon="-0.46038064"><ele>59.2</ele><time>2022-11-01T11:24:03.0000000+00:00</time></trkpt><trkpt lat="39.50914591" lon="-0.46042054"><ele>59.2</ele><time>2022-11-01T11:24:04.0000000+00:00</time></trkpt><trkpt lat="39.50917742" lon="-0.46046882"><ele>59.4</ele><time>2022-11-01T11:24:05.0000000+00:00</time></trkpt><trkpt lat="39.5092029" lon="-0.46051685"><ele>59.4</ele><time>2022-11-01T11:24:06.0000000+00:00</time></trkpt><trkpt lat="39.50922679" lon="-0.46056622"><ele>59.4</ele><time>2022-11-01T11:24:07.0000000+00:00</time></trkpt><trkpt lat="39.50925102" lon="-0.46061735"><ele>59.4</ele><time>2022-11-01T11:24:08.0000000+00:00</time></trkpt><trkpt lat="39.5092775" lon="-0.46066663"><ele>59.4</ele><time>2022-11-01T11:24:09.0000000+00:00</time></trkpt><trkpt lat="39.50930801" lon="-0.46071013"><ele>59.6</ele><time>2022-11-01T11:24:10.0000000+00:00</time></trkpt><trkpt lat="39.50934053" lon="-0.46075749"><ele>59.6</ele><time>2022-11-01T11:24:11.0000000+00:00</time></trkpt><trkpt lat="39.50937498" lon="-0.46080301"><ele>59.8</ele><time>2022-11-01T11:24:12.0000000+00:00</time></trkpt><trkpt lat="39.50940876" lon="-0.46084718"><ele>59.8</ele><time>2022-11-01T11:24:13.0000000+00:00</time></trkpt><trkpt lat="39.5094407" lon="-0.46089328"><ele>60.0</ele><time>2022-11-01T11:24:14.0000000+00:00</time></trkpt><trkpt lat="39.50947288" lon="-0.46093737"><ele>60.0</ele><time>2022-11-01T11:24:15.0000000+00:00</time></trkpt><trkpt lat="39.50950147" lon="-0.46098439"><ele>60.2</ele><time>2022-11-01T11:24:16.0000000+00:00</time></trkpt><trkpt lat="39.50953927" lon="-0.46103225"><ele>60.2</ele><time>2022-11-01T11:24:17.0000000+00:00</time></trkpt><trkpt lat="39.50956425" lon="-0.4610631"><ele>60.4</ele><time>2022-11-01T11:24:18.0000000+00:00</time></trkpt><trkpt lat="39.50959484" lon="-0.46110367"><ele>60.4</ele><time>2022-11-01T11:24:19.0000000+00:00</time></trkpt><trkpt lat="39.50962854" lon="-0.46114717"><ele>60.4</ele><time>2022-11-01T11:24:20.0000000+00:00</time></trkpt><trkpt lat="39.50965955" lon="-0.46119251"><ele>60.6</ele><time>2022-11-01T11:24:21.0000000+00:00</time></trkpt><trkpt lat="39.50968503" lon="-0.46123954"><ele>60.6</ele><time>2022-11-01T11:24:22.0000000+00:00</time></trkpt><trkpt lat="39.50971202" lon="-0.46128631"><ele>60.8</ele><time>2022-11-01T11:24:23.0000000+00:00</time></trkpt><trkpt lat="39.50974396" lon="-0.46132931"><ele>60.8</ele><time>2022-11-01T11:24:24.0000000+00:00</time></trkpt><trkpt lat="39.50977514" lon="-0.46137641"><ele>61.0</ele><time>2022-11-01T11:24:25.0000000+00:00</time></trkpt><trkpt lat="39.50980514" lon="-0.46142218"><ele>61.0</ele><time>2022-11-01T11:24:26.0000000+00:00</time></trkpt><trkpt lat="39.50983314" lon="-0.4614697"><ele>61.0</ele><time>2022-11-01T11:24:27.0000000+00:00</time></trkpt><trkpt lat="39.50986289" lon="-0.46151782"><ele>61.2</ele><time>2022-11-01T11:24:28.0000000+00:00</time></trkpt><trkpt lat="39.50989332" lon="-0.46156526"><ele>61.2</ele><time>2022-11-01T11:24:29.0000000+00:00</time></trkpt><trkpt lat="39.50992886" lon="-0.46161169"><ele>61.4</ele><time>2022-11-01T11:24:30.0000000+00:00</time></trkpt><trkpt lat="39.50996222" lon="-0.46165503"><ele>61.4</ele><time>2022-11-01T11:24:31.0000000+00:00</time></trkpt><trkpt lat="39.50999457" lon="-0.46169828"><ele>61.6</ele><time>2022-11-01T11:24:32.0000000+00:00</time></trkpt><trkpt lat="39.5100219" lon="-0.46174253"><ele>61.6</ele><time>2022-11-01T11:24:33.0000000+00:00</time></trkpt><trkpt lat="39.51005015" lon="-0.46178377"><ele>61.6</ele><time>2022-11-01T11:24:34.0000000+00:00</time></trkpt><trkpt lat="39.51008091" lon="-0.461823"><ele>61.6</ele><time>2022-11-01T11:24:35.0000000+00:00</time></trkpt><trkpt lat="39.51011385" lon="-0.4618639"><ele>61.6</ele><time>2022-11-01T11:24:36.0000000+00:00</time></trkpt><trkpt lat="39.51014595" lon="-0.46190481"><ele>61.8</ele><time>2022-11-01T11:24:37.0000000+00:00</time></trkpt><trkpt lat="39.51017621" lon="-0.46194881"><ele>61.8</ele><time>2022-11-01T11:24:38.0000000+00:00</time></trkpt><trkpt lat="39.51020907" lon="-0.46199349"><ele>62.0</ele><time>2022-11-01T11:24:39.0000000+00:00</time></trkpt><trkpt lat="39.51024109" lon="-0.46203489"><ele>62.0</ele><time>2022-11-01T11:24:40.0000000+00:00</time></trkpt><trkpt lat="39.51027344" lon="-0.46207421"><ele>62.0</ele><time>2022-11-01T11:24:41.0000000+00:00</time></trkpt><trkpt lat="39.51030303" lon="-0.46211561"><ele>62.0</ele><time>2022-11-01T11:24:42.0000000+00:00</time></trkpt><trkpt lat="39.5103306" lon="-0.4621618"><ele>62.2</ele><time>2022-11-01T11:24:43.0000000+00:00</time></trkpt><trkpt lat="39.51035718" lon="-0.46220748"><ele>62.2</ele><time>2022-11-01T11:24:44.0000000+00:00</time></trkpt><trkpt lat="39.51038257" lon="-0.46225023"><ele>62.4</ele><time>2022-11-01T11:24:45.0000000+00:00</time></trkpt><trkpt lat="39.51040738" lon="-0.46229071"><ele>62.6</ele><time>2022-11-01T11:24:46.0000000+00:00</time></trkpt><trkpt lat="39.51043454" lon="-0.46232474"><ele>62.8</ele><time>2022-11-01T11:24:47.0000000+00:00</time></trkpt><trkpt lat="39.51045784" lon="-0.46236397"><ele>63.0</ele><time>2022-11-01T11:24:48.0000000+00:00</time></trkpt><trkpt lat="39.51048022" lon="-0.46240437"><ele>63.2</ele><time>2022-11-01T11:24:49.0000000+00:00</time></trkpt><trkpt lat="39.51050302" lon="-0.46244812"><ele>63.2</ele><time>2022-11-01T11:24:50.0000000+00:00</time></trkpt><trkpt lat="39.51052976" lon="-0.46249221"><ele>63.4</ele><time>2022-11-01T11:24:51.0000000+00:00</time></trkpt><trkpt lat="39.51055926" lon="-0.46253831"><ele>63.6</ele><time>2022-11-01T11:24:52.0000000+00:00</time></trkpt><trkpt lat="39.51059036" lon="-0.46258433"><ele>63.8</ele><time>2022-11-01T11:24:53.0000000+00:00</time></trkpt><trkpt lat="39.51062062" lon="-0.46262741"><ele>63.8</ele><time>2022-11-01T11:24:54.0000000+00:00</time></trkpt><trkpt lat="39.51065348" lon="-0.46266471"><ele>64.0</ele><time>2022-11-01T11:24:55.0000000+00:00</time></trkpt><trkpt lat="39.51068508" lon="-0.46270117"><ele>64.0</ele><time>2022-11-01T11:24:56.0000000+00:00</time></trkpt><trkpt lat="39.51072112" lon="-0.46274543"><ele>64.0</ele><time>2022-11-01T11:24:57.0000000+00:00</time></trkpt><trkpt lat="39.51075733" lon="-0.46277409"><ele>64.0</ele><time>2022-11-01T11:24:58.0000000+00:00</time></trkpt><trkpt lat="39.51079379" lon="-0.46279656"><ele>64.2</ele><time>2022-11-01T11:24:59.0000000+00:00</time></trkpt><trkpt lat="39.5108181" lon="-0.46281475"><ele>64.2</ele><time>2022-11-01T11:25:00.0000000+00:00</time></trkpt><trkpt lat="39.51084534" lon="-0.46284207"><ele>64.4</ele><time>2022-11-01T11:25:01.0000000+00:00</time></trkpt><trkpt lat="39.51086822" lon="-0.46287426"><ele>64.4</ele><time>2022-11-01T11:25:02.0000000+00:00</time></trkpt><trkpt lat="39.51088498" lon="-0.46291617"><ele>64.4</ele><time>2022-11-01T11:25:03.0000000+00:00</time></trkpt><trkpt lat="39.51090217" lon="-0.46295799"><ele>64.6</ele><time>2022-11-01T11:25:04.0000000+00:00</time></trkpt><trkpt lat="39.51092295" lon="-0.46300091"><ele>64.6</ele><time>2022-11-01T11:25:05.0000000+00:00</time></trkpt><trkpt lat="39.51094315" lon="-0.46304449"><ele>64.6</ele><time>2022-11-01T11:25:06.0000000+00:00</time></trkpt><trkpt lat="39.5109626" lon="-0.46308917"><ele>64.8</ele><time>2022-11-01T11:25:07.0000000+00:00</time></trkpt><trkpt lat="39.51098213" lon="-0.46313234"><ele>64.8</ele><time>2022-11-01T11:25:08.0000000+00:00</time></trkpt><trkpt lat="39.51100753" lon="-0.46318615"><ele>65.0</ele><time>2022-11-01T11:25:09.0000000+00:00</time></trkpt><trkpt lat="39.51102563" lon="-0.46322471"><ele>65.4</ele><time>2022-11-01T11:25:10.0000000+00:00</time></trkpt><trkpt lat="39.51105245" lon="-0.46327391"><ele>65.4</ele><time>2022-11-01T11:25:11.0000000+00:00</time></trkpt><trkpt lat="39.51108112" lon="-0.463319"><ele>65.6</ele><time>2022-11-01T11:25:12.0000000+00:00</time></trkpt><trkpt lat="39.51110568" lon="-0.46336963"><ele>65.6</ele><time>2022-11-01T11:25:13.0000000+00:00</time></trkpt><trkpt lat="39.51112613" lon="-0.46341514"><ele>65.8</ele><time>2022-11-01T11:25:14.0000000+00:00</time></trkpt><trkpt lat="39.51115044" lon="-0.46346015"><ele>65.8</ele><time>2022-11-01T11:25:15.0000000+00:00</time></trkpt><trkpt lat="39.51117642" lon="-0.46350265"><ele>65.8</ele><time>2022-11-01T11:25:16.0000000+00:00</time></trkpt><trkpt lat="39.51121054" lon="-0.463548"><ele>65.8</ele><time>2022-11-01T11:25:17.0000000+00:00</time></trkpt><trkpt lat="39.51124784" lon="-0.46357691"><ele>65.8</ele><time>2022-11-01T11:25:18.0000000+00:00</time></trkpt><trkpt lat="39.51127759" lon="-0.46361622"><ele>65.8</ele><time>2022-11-01T11:25:19.0000000+00:00</time></trkpt><trkpt lat="39.51129796" lon="-0.46365009"><ele>65.8</ele><time>2022-11-01T11:25:20.0000000+00:00</time></trkpt><trkpt lat="39.51133224" lon="-0.46370432"><ele>65.8</ele><time>2022-11-01T11:25:21.0000000+00:00</time></trkpt><trkpt lat="39.5113599" lon="-0.46374715"><ele>65.8</ele><time>2022-11-01T11:25:22.0000000+00:00</time></trkpt><trkpt lat="39.51138983" lon="-0.4637883"><ele>66.0</ele><time>2022-11-01T11:25:23.0000000+00:00</time></trkpt><trkpt lat="39.51141757" lon="-0.46382426"><ele>66.0</ele><time>2022-11-01T11:25:24.0000000+00:00</time></trkpt><trkpt lat="39.51145671" lon="-0.46387866"><ele>66.2</ele><time>2022-11-01T11:25:25.0000000+00:00</time></trkpt><trkpt lat="39.51148924" lon="-0.46392166"><ele>66.2</ele><time>2022-11-01T11:25:26.0000000+00:00</time></trkpt><trkpt lat="39.51151061" lon="-0.46395578"><ele>66.4</ele><time>2022-11-01T11:25:27.0000000+00:00</time></trkpt><trkpt lat="39.51154229" lon="-0.4640033"><ele>66.4</ele><time>2022-11-01T11:25:28.0000000+00:00</time></trkpt><trkpt lat="39.51157582" lon="-0.4640437"><ele>66.4</ele><time>2022-11-01T11:25:29.0000000+00:00</time></trkpt><trkpt lat="39.51160843" lon="-0.46407815"><ele>66.4</ele><time>2022-11-01T11:25:30.0000000+00:00</time></trkpt><trkpt lat="39.5116381" lon="-0.46411411"><ele>66.6</ele><time>2022-11-01T11:25:31.0000000+00:00</time></trkpt><trkpt lat="39.51166584" lon="-0.46415233"><ele>66.4</ele><time>2022-11-01T11:25:32.0000000+00:00</time></trkpt><trkpt lat="39.51169359" lon="-0.46419784"><ele>66.4</ele><time>2022-11-01T11:25:33.0000000+00:00</time></trkpt><trkpt lat="39.5117241" lon="-0.46424864"><ele>66.4</ele><time>2022-11-01T11:25:34.0000000+00:00</time></trkpt><trkpt lat="39.5117645" lon="-0.46430446"><ele>66.4</ele><time>2022-11-01T11:25:35.0000000+00:00</time></trkpt><trkpt lat="39.51179333" lon="-0.46434411"><ele>66.4</ele><time>2022-11-01T11:25:36.0000000+00:00</time></trkpt><trkpt lat="39.51182895" lon="-0.46439608"><ele>66.4</ele><time>2022-11-01T11:25:37.0000000+00:00</time></trkpt><trkpt lat="39.51186491" lon="-0.46444721"><ele>66.4</ele><time>2022-11-01T11:25:38.0000000+00:00</time></trkpt><trkpt lat="39.51189903" lon="-0.46449171"><ele>66.4</ele><time>2022-11-01T11:25:39.0000000+00:00</time></trkpt><trkpt lat="39.51193088" lon="-0.46454335"><ele>66.2</ele><time>2022-11-01T11:25:40.0000000+00:00</time></trkpt><trkpt lat="39.51196231" lon="-0.46459548"><ele>66.2</ele><time>2022-11-01T11:25:41.0000000+00:00</time></trkpt><trkpt lat="39.51199709" lon="-0.46464217"><ele>66.2</ele><time>2022-11-01T11:25:42.0000000+00:00</time></trkpt><trkpt lat="39.51203506" lon="-0.46468852"><ele>66.2</ele><time>2022-11-01T11:25:43.0000000+00:00</time></trkpt><trkpt lat="39.51207044" lon="-0.46473621"><ele>66.4</ele><time>2022-11-01T11:25:44.0000000+00:00</time></trkpt><trkpt lat="39.51210556" lon="-0.46478776"><ele>66.4</ele><time>2022-11-01T11:25:45.0000000+00:00</time></trkpt><trkpt lat="39.51213766" lon="-0.46483588"><ele>66.4</ele><time>2022-11-01T11:25:46.0000000+00:00</time></trkpt><trkpt lat="39.5121706" lon="-0.46488239"><ele>66.6</ele><time>2022-11-01T11:25:47.0000000+00:00</time></trkpt><trkpt lat="39.5122048" lon="-0.46493059"><ele>66.6</ele><time>2022-11-01T11:25:48.0000000+00:00</time></trkpt><trkpt lat="39.51223724" lon="-0.46497778"><ele>66.6</ele><time>2022-11-01T11:25:49.0000000+00:00</time></trkpt><trkpt lat="39.51226808" lon="-0.4650295"><ele>66.6</ele><time>2022-11-01T11:25:50.0000000+00:00</time></trkpt><trkpt lat="39.51230102" lon="-0.46508172"><ele>66.8</ele><time>2022-11-01T11:25:51.0000000+00:00</time></trkpt><trkpt lat="39.5123338" lon="-0.46513377"><ele>66.8</ele><time>2022-11-01T11:25:52.0000000+00:00</time></trkpt><trkpt lat="39.51237076" lon="-0.46518062"><ele>66.8</ele><time>2022-11-01T11:25:53.0000000+00:00</time></trkpt><trkpt lat="39.51240504" lon="-0.46522647"><ele>67.0</ele><time>2022-11-01T11:25:54.0000000+00:00</time></trkpt><trkpt lat="39.51243874" lon="-0.46527341"><ele>67.0</ele><time>2022-11-01T11:25:55.0000000+00:00</time></trkpt><trkpt lat="39.51247168" lon="-0.46532295"><ele>67.2</ele><time>2022-11-01T11:25:56.0000000+00:00</time></trkpt><trkpt lat="39.51250554" lon="-0.46537098"><ele>67.2</ele><time>2022-11-01T11:25:57.0000000+00:00</time></trkpt><trkpt lat="39.51253815" lon="-0.46541557"><ele>67.4</ele><time>2022-11-01T11:25:58.0000000+00:00</time></trkpt><trkpt lat="39.51257176" lon="-0.46546008"><ele>67.4</ele><time>2022-11-01T11:25:59.0000000+00:00</time></trkpt><trkpt lat="39.51260562" lon="-0.46550425"><ele>67.4</ele><time>2022-11-01T11:26:00.0000000+00:00</time></trkpt><trkpt lat="39.51263932" lon="-0.46554867"><ele>67.4</ele><time>2022-11-01T11:26:01.0000000+00:00</time></trkpt><trkpt lat="39.5126731" lon="-0.46559108"><ele>67.6</ele><time>2022-11-01T11:26:02.0000000+00:00</time></trkpt><trkpt lat="39.51270704" lon="-0.46563618"><ele>67.6</ele><time>2022-11-01T11:26:03.0000000+00:00</time></trkpt><trkpt lat="39.51274233" lon="-0.46568186"><ele>67.8</ele><time>2022-11-01T11:26:04.0000000+00:00</time></trkpt><trkpt lat="39.51277829" lon="-0.46572553"><ele>67.8</ele><time>2022-11-01T11:26:05.0000000+00:00</time></trkpt><trkpt lat="39.5128295" lon="-0.46577448"><ele>67.8</ele><time>2022-11-01T11:26:06.0000000+00:00</time></trkpt><trkpt lat="39.51287108" lon="-0.46581061"><ele>67.8</ele><time>2022-11-01T11:26:07.0000000+00:00</time></trkpt><trkpt lat="39.51291391" lon="-0.4658438"><ele>67.8</ele><time>2022-11-01T11:26:08.0000000+00:00</time></trkpt><trkpt lat="39.51294769" lon="-0.46587288"><ele>67.8</ele><time>2022-11-01T11:26:09.0000000+00:00</time></trkpt><trkpt lat="39.51299136" lon="-0.46590666"><ele>67.8</ele><time>2022-11-01T11:26:10.0000000+00:00</time></trkpt><trkpt lat="39.51303997" lon="-0.46594312"><ele>67.8</ele><time>2022-11-01T11:26:11.0000000+00:00</time></trkpt><trkpt lat="39.51309127" lon="-0.46597548"><ele>67.6</ele><time>2022-11-01T11:26:12.0000000+00:00</time></trkpt><trkpt lat="39.51314265" lon="-0.46600515"><ele>67.6</ele><time>2022-11-01T11:26:13.0000000+00:00</time></trkpt><trkpt lat="39.5131937" lon="-0.46603239"><ele>67.6</ele><time>2022-11-01T11:26:14.0000000+00:00</time></trkpt><trkpt lat="39.5132455" lon="-0.46605955"><ele>67.6</ele><time>2022-11-01T11:26:15.0000000+00:00</time></trkpt><trkpt lat="39.5132983" lon="-0.46607967"><ele>67.6</ele><time>2022-11-01T11:26:16.0000000+00:00</time></trkpt><trkpt lat="39.51335236" lon="-0.46608713"><ele>67.6</ele><time>2022-11-01T11:26:17.0000000+00:00</time></trkpt><trkpt lat="39.51340257" lon="-0.46609551"><ele>67.6</ele><time>2022-11-01T11:26:18.0000000+00:00</time></trkpt><trkpt lat="39.51345353" lon="-0.46610037"><ele>67.8</ele><time>2022-11-01T11:26:19.0000000+00:00</time></trkpt><trkpt lat="39.51349997" lon="-0.46610573"><ele>67.8</ele><time>2022-11-01T11:26:20.0000000+00:00</time></trkpt><trkpt lat="39.51354934" lon="-0.46611412"><ele>67.8</ele><time>2022-11-01T11:26:21.0000000+00:00</time></trkpt><trkpt lat="39.51359787" lon="-0.46612803"><ele>67.8</ele><time>2022-11-01T11:26:22.0000000+00:00</time></trkpt><trkpt lat="39.51364934" lon="-0.46614597"><ele>68.0</ele><time>2022-11-01T11:26:23.0000000+00:00</time></trkpt><trkpt lat="39.51369996" lon="-0.46617706"><ele>68.0</ele><time>2022-11-01T11:26:24.0000000+00:00</time></trkpt><trkpt lat="39.5137459" lon="-0.46621084"><ele>68.0</ele><time>2022-11-01T11:26:25.0000000+00:00</time></trkpt><trkpt lat="39.51379007" lon="-0.46624823"><ele>68.0</ele><time>2022-11-01T11:26:26.0000000+00:00</time></trkpt><trkpt lat="39.51383282" lon="-0.46628754"><ele>68.0</ele><time>2022-11-01T11:26:27.0000000+00:00</time></trkpt><trkpt lat="39.51387682" lon="-0.46632651"><ele>68.0</ele><time>2022-11-01T11:26:28.0000000+00:00</time></trkpt><trkpt lat="39.51391714" lon="-0.46636851"><ele>68.2</ele><time>2022-11-01T11:26:29.0000000+00:00</time></trkpt><trkpt lat="39.51394639" lon="-0.46640488"><ele>68.2</ele><time>2022-11-01T11:26:30.0000000+00:00</time></trkpt><trkpt lat="39.51396818" lon="-0.46643682"><ele>68.4</ele><time>2022-11-01T11:26:31.0000000+00:00</time></trkpt><trkpt lat="39.513979" lon="-0.46645727"><ele>68.4</ele><time>2022-11-01T11:26:32.0000000+00:00</time></trkpt><trkpt lat="39.51399425" lon="-0.46648669"><ele>68.6</ele><time>2022-11-01T11:26:33.0000000+00:00</time></trkpt><trkpt lat="39.51400699" lon="-0.46650119"><ele>68.4</ele><time>2022-11-01T11:26:34.0000000+00:00</time></trkpt><trkpt lat="39.51401428" lon="-0.466512"><ele>68.4</ele><time>2022-11-01T11:26:35.0000000+00:00</time></trkpt><trkpt lat="39.514023" lon="-0.46652022"><ele>68.4</ele><time>2022-11-01T11:26:36.0000000+00:00</time></trkpt><trkpt lat="39.51403214" lon="-0.46652751"><ele>68.4</ele><time>2022-11-01T11:26:37.0000000+00:00</time></trkpt><trkpt lat="39.51404379" lon="-0.46653715"><ele>68.4</ele><time>2022-11-01T11:26:38.0000000+00:00</time></trkpt><trkpt lat="39.51405619" lon="-0.46654436"><ele>68.4</ele><time>2022-11-01T11:26:39.0000000+00:00</time></trkpt><trkpt lat="39.51406717" lon="-0.46654595"><ele>68.4</ele><time>2022-11-01T11:26:40.0000000+00:00</time></trkpt><trkpt lat="39.51407782" lon="-0.46653723"><ele>68.4</ele><time>2022-11-01T11:26:41.0000000+00:00</time></trkpt><trkpt lat="39.514081" lon="-0.46652106"><ele>68.4</ele><time>2022-11-01T11:26:42.0000000+00:00</time></trkpt><trkpt lat="39.51407505" lon="-0.46650169"><ele>68.4</ele><time>2022-11-01T11:26:43.0000000+00:00</time></trkpt><trkpt lat="39.51405779" lon="-0.46647504"><ele>68.4</ele><time>2022-11-01T11:26:44.0000000+00:00</time></trkpt><trkpt lat="39.51403256" lon="-0.46644805"><ele>68.6</ele><time>2022-11-01T11:26:45.0000000+00:00</time></trkpt><trkpt lat="39.5140033" lon="-0.46643179"><ele>68.6</ele><time>2022-11-01T11:26:46.0000000+00:00</time></trkpt><trkpt lat="39.5139738" lon="-0.46642341"><ele>68.6</ele><time>2022-11-01T11:26:47.0000000+00:00</time></trkpt><trkpt lat="39.51394036" lon="-0.4664302"><ele>68.6</ele><time>2022-11-01T11:26:48.0000000+00:00</time></trkpt><trkpt lat="39.51391387" lon="-0.46646004"><ele>68.6</ele><time>2022-11-01T11:26:49.0000000+00:00</time></trkpt><trkpt lat="39.51388973" lon="-0.4665027"><ele>68.6</ele><time>2022-11-01T11:26:50.0000000+00:00</time></trkpt><trkpt lat="39.51387464" lon="-0.46655383"><ele>68.6</ele><time>2022-11-01T11:26:51.0000000+00:00</time></trkpt><trkpt lat="39.51385763" lon="-0.46659716"><ele>68.6</ele><time>2022-11-01T11:26:52.0000000+00:00</time></trkpt><trkpt lat="39.51383877" lon="-0.46664184"><ele>68.6</ele><time>2022-11-01T11:26:53.0000000+00:00</time></trkpt><trkpt lat="39.5138184" lon="-0.46668643"><ele>68.6</ele><time>2022-11-01T11:26:54.0000000+00:00</time></trkpt><trkpt lat="39.51379451" lon="-0.46673228"><ele>68.6</ele><time>2022-11-01T11:26:55.0000000+00:00</time></trkpt><trkpt lat="39.51376274" lon="-0.46677763"><ele>68.6</ele><time>2022-11-01T11:26:56.0000000+00:00</time></trkpt><trkpt lat="39.51373341" lon="-0.46682364"><ele>68.6</ele><time>2022-11-01T11:26:57.0000000+00:00</time></trkpt><trkpt lat="39.51371036" lon="-0.46687729"><ele>68.6</ele><time>2022-11-01T11:26:58.0000000+00:00</time></trkpt><trkpt lat="39.51367591" lon="-0.46693722"><ele>68.6</ele><time>2022-11-01T11:26:59.0000000+00:00</time></trkpt><trkpt lat="39.51366283" lon="-0.4669798"><ele>68.8</ele><time>2022-11-01T11:27:00.0000000+00:00</time></trkpt><trkpt lat="39.51366392" lon="-0.46702422"><ele>68.8</ele><time>2022-11-01T11:27:01.0000000+00:00</time></trkpt><trkpt lat="39.51367264" lon="-0.46704526"><ele>69.0</ele><time>2022-11-01T11:27:02.0000000+00:00</time></trkpt><trkpt lat="39.51367498" lon="-0.46705348"><ele>69.2</ele><time>2022-11-01T11:27:03.0000000+00:00</time></trkpt><trkpt lat="39.51367649" lon="-0.46705716"><ele>69.2</ele><time>2022-11-01T11:27:04.0000000+00:00</time></trkpt><trkpt lat="39.51367398" lon="-0.46707384"><ele>69.4</ele><time>2022-11-01T11:27:05.0000000+00:00</time></trkpt><trkpt lat="39.51367255" lon="-0.46709044"><ele>69.6</ele><time>2022-11-01T11:27:06.0000000+00:00</time></trkpt><trkpt lat="39.51367104" lon="-0.46710586"><ele>69.8</ele><time>2022-11-01T11:27:07.0000000+00:00</time></trkpt><trkpt lat="39.51367012" lon="-0.4671233"><ele>70.0</ele><time>2022-11-01T11:27:08.0000000+00:00</time></trkpt><trkpt lat="39.51366769" lon="-0.46714048"><ele>70.2</ele><time>2022-11-01T11:27:09.0000000+00:00</time></trkpt><trkpt lat="39.51366694" lon="-0.46715297"><ele>70.4</ele><time>2022-11-01T11:27:10.0000000+00:00</time></trkpt><trkpt lat="39.51366761" lon="-0.46716328"><ele>70.6</ele><time>2022-11-01T11:27:11.0000000+00:00</time></trkpt><trkpt lat="39.51367163" lon="-0.46718197"><ele>70.8</ele><time>2022-11-01T11:27:12.0000000+00:00</time></trkpt><trkpt lat="39.51367448" lon="-0.4671994"><ele>71.0</ele><time>2022-11-01T11:27:13.0000000+00:00</time></trkpt><trkpt lat="39.5136754" lon="-0.46721256"><ele>71.2</ele><time>2022-11-01T11:27:14.0000000+00:00</time></trkpt><trkpt lat="39.5136775" lon="-0.46722623"><ele>71.4</ele><time>2022-11-01T11:27:15.0000000+00:00</time></trkpt><trkpt lat="39.51367926" lon="-0.46723796"><ele>71.6</ele><time>2022-11-01T11:27:16.0000000+00:00</time></trkpt><trkpt lat="39.51368856" lon="-0.46725037"><ele>71.8</ele><time>2022-11-01T11:27:17.0000000+00:00</time></trkpt><trkpt lat="39.51370147" lon="-0.46726487"><ele>72.0</ele><time>2022-11-01T11:27:18.0000000+00:00</time></trkpt><trkpt lat="39.5137091" lon="-0.46727526"><ele>72.2</ele><time>2022-11-01T11:27:19.0000000+00:00</time></trkpt><trkpt lat="39.51372276" lon="-0.46728121"><ele>72.2</ele><time>2022-11-01T11:27:20.0000000+00:00</time></trkpt><trkpt lat="39.51373651" lon="-0.46728674"><ele>72.4</ele><time>2022-11-01T11:27:21.0000000+00:00</time></trkpt><trkpt lat="39.51375436" lon="-0.46729236"><ele>72.4</ele><time>2022-11-01T11:27:22.0000000+00:00</time></trkpt><trkpt lat="39.51377045" lon="-0.46729663"><ele>72.4</ele><time>2022-11-01T11:27:23.0000000+00:00</time></trkpt><trkpt lat="39.51379384" lon="-0.46731181"><ele>72.6</ele><time>2022-11-01T11:27:24.0000000+00:00</time></trkpt><trkpt lat="39.51381899" lon="-0.46733226"><ele>72.6</ele><time>2022-11-01T11:27:25.0000000+00:00</time></trkpt><trkpt lat="39.5138396" lon="-0.46735095"><ele>72.6</ele><time>2022-11-01T11:27:26.0000000+00:00</time></trkpt><trkpt lat="39.51387405" lon="-0.46737819"><ele>72.6</ele><time>2022-11-01T11:27:27.0000000+00:00</time></trkpt><trkpt lat="39.51390389" lon="-0.46739152"><ele>72.6</ele><time>2022-11-01T11:27:28.0000000+00:00</time></trkpt><trkpt lat="39.51393885" lon="-0.46740904"><ele>72.6</ele><time>2022-11-01T11:27:29.0000000+00:00</time></trkpt><trkpt lat="39.51397405" lon="-0.46742907"><ele>72.6</ele><time>2022-11-01T11:27:30.0000000+00:00</time></trkpt><trkpt lat="39.51400205" lon="-0.4674434"><ele>72.6</ele><time>2022-11-01T11:27:31.0000000+00:00</time></trkpt><trkpt lat="39.51404228" lon="-0.46747224"><ele>72.6</ele><time>2022-11-01T11:27:32.0000000+00:00</time></trkpt><trkpt lat="39.51408737" lon="-0.46751188"><ele>72.8</ele><time>2022-11-01T11:27:33.0000000+00:00</time></trkpt><trkpt lat="39.5141235" lon="-0.46754155"><ele>73.0</ele><time>2022-11-01T11:27:34.0000000+00:00</time></trkpt><trkpt lat="39.51416289" lon="-0.46756988"><ele>73.0</ele><time>2022-11-01T11:27:35.0000000+00:00</time></trkpt><trkpt lat="39.5141955" lon="-0.46759293"><ele>73.2</ele><time>2022-11-01T11:27:36.0000000+00:00</time></trkpt><trkpt lat="39.51423791" lon="-0.46762487"><ele>73.2</ele><time>2022-11-01T11:27:37.0000000+00:00</time></trkpt><trkpt lat="39.51428041" lon="-0.46765764"><ele>73.4</ele><time>2022-11-01T11:27:38.0000000+00:00</time></trkpt><trkpt lat="39.51432441" lon="-0.46769327"><ele>73.4</ele><time>2022-11-01T11:27:39.0000000+00:00</time></trkpt><trkpt lat="39.51437051" lon="-0.46773073"><ele>73.4</ele><time>2022-11-01T11:27:40.0000000+00:00</time></trkpt><trkpt lat="39.51441485" lon="-0.46776644"><ele>73.4</ele><time>2022-11-01T11:27:41.0000000+00:00</time></trkpt><trkpt lat="39.51445333" lon="-0.46779661"><ele>73.4</ele><time>2022-11-01T11:27:42.0000000+00:00</time></trkpt><trkpt lat="39.5144975" lon="-0.46783106"><ele>73.4</ele><time>2022-11-01T11:27:43.0000000+00:00</time></trkpt><trkpt lat="39.5145493" lon="-0.46787172"><ele>73.4</ele><time>2022-11-01T11:27:44.0000000+00:00</time></trkpt><trkpt lat="39.51458165" lon="-0.4678951"><ele>73.6</ele><time>2022-11-01T11:27:45.0000000+00:00</time></trkpt><trkpt lat="39.51462071" lon="-0.46792016"><ele>73.6</ele><time>2022-11-01T11:27:46.0000000+00:00</time></trkpt><trkpt lat="39.51466304" lon="-0.46794464"><ele>73.8</ele><time>2022-11-01T11:27:47.0000000+00:00</time></trkpt><trkpt lat="39.51470411" lon="-0.46797322"><ele>73.8</ele><time>2022-11-01T11:27:48.0000000+00:00</time></trkpt><trkpt lat="39.51474376" lon="-0.46800817"><ele>74.0</ele><time>2022-11-01T11:27:49.0000000+00:00</time></trkpt><trkpt lat="39.51478391" lon="-0.46803617"><ele>74.2</ele><time>2022-11-01T11:27:50.0000000+00:00</time></trkpt><trkpt lat="39.51482473" lon="-0.46805897"><ele>74.2</ele><time>2022-11-01T11:27:51.0000000+00:00</time></trkpt><trkpt lat="39.51486354" lon="-0.46808319"><ele>74.4</ele><time>2022-11-01T11:27:52.0000000+00:00</time></trkpt><trkpt lat="39.51489505" lon="-0.46810549"><ele>74.4</ele><time>2022-11-01T11:27:53.0000000+00:00</time></trkpt><trkpt lat="39.51493059" lon="-0.46812804"><ele>74.4</ele><time>2022-11-01T11:27:54.0000000+00:00</time></trkpt><trkpt lat="39.51497166" lon="-0.46816458"><ele>74.6</ele><time>2022-11-01T11:27:55.0000000+00:00</time></trkpt><trkpt lat="39.51501098" lon="-0.46819207"><ele>74.8</ele><time>2022-11-01T11:27:56.0000000+00:00</time></trkpt><trkpt lat="39.51504584" lon="-0.46821973"><ele>74.8</ele><time>2022-11-01T11:27:57.0000000+00:00</time></trkpt><trkpt lat="39.51508231" lon="-0.46824278"><ele>75.0</ele><time>2022-11-01T11:27:58.0000000+00:00</time></trkpt><trkpt lat="39.51511994" lon="-0.46826516"><ele>75.2</ele><time>2022-11-01T11:27:59.0000000+00:00</time></trkpt><trkpt lat="39.51515758" lon="-0.46829006"><ele>75.4</ele><time>2022-11-01T11:28:00.0000000+00:00</time></trkpt><trkpt lat="39.51518658" lon="-0.4683095"><ele>75.6</ele><time>2022-11-01T11:28:01.0000000+00:00</time></trkpt><trkpt lat="39.51521365" lon="-0.46832727"><ele>75.8</ele><time>2022-11-01T11:28:02.0000000+00:00</time></trkpt><trkpt lat="39.51524257" lon="-0.4683442"><ele>75.8</ele><time>2022-11-01T11:28:03.0000000+00:00</time></trkpt><trkpt lat="39.51527157" lon="-0.46836474"><ele>76.0</ele><time>2022-11-01T11:28:04.0000000+00:00</time></trkpt><trkpt lat="39.51529915" lon="-0.46838729"><ele>76.2</ele><time>2022-11-01T11:28:05.0000000+00:00</time></trkpt><trkpt lat="39.5153289" lon="-0.46840992"><ele>76.2</ele><time>2022-11-01T11:28:06.0000000+00:00</time></trkpt><trkpt lat="39.51535673" lon="-0.46843071"><ele>76.4</ele><time>2022-11-01T11:28:07.0000000+00:00</time></trkpt><trkpt lat="39.51538464" lon="-0.46844965"><ele>76.4</ele><time>2022-11-01T11:28:08.0000000+00:00</time></trkpt><trkpt lat="39.51541213" lon="-0.46846029"><ele>76.6</ele><time>2022-11-01T11:28:09.0000000+00:00</time></trkpt><trkpt lat="39.51543837" lon="-0.46847982"><ele>76.6</ele><time>2022-11-01T11:28:10.0000000+00:00</time></trkpt><trkpt lat="39.51546838" lon="-0.46849835"><ele>76.8</ele><time>2022-11-01T11:28:11.0000000+00:00</time></trkpt><trkpt lat="39.51550023" lon="-0.46851939"><ele>76.8</ele><time>2022-11-01T11:28:12.0000000+00:00</time></trkpt><trkpt lat="39.51553216" lon="-0.46853682"><ele>77.0</ele><time>2022-11-01T11:28:13.0000000+00:00</time></trkpt><trkpt lat="39.51556603" lon="-0.46856255"><ele>77.2</ele><time>2022-11-01T11:28:14.0000000+00:00</time></trkpt><trkpt lat="39.51560022" lon="-0.46858904"><ele>77.2</ele><time>2022-11-01T11:28:15.0000000+00:00</time></trkpt><trkpt lat="39.51564054" lon="-0.4686188"><ele>77.4</ele><time>2022-11-01T11:28:16.0000000+00:00</time></trkpt><trkpt lat="39.51567206" lon="-0.46864134"><ele>77.6</ele><time>2022-11-01T11:28:17.0000000+00:00</time></trkpt><trkpt lat="39.51569477" lon="-0.46865341"><ele>77.8</ele><time>2022-11-01T11:28:18.0000000+00:00</time></trkpt><trkpt lat="39.51572654" lon="-0.46867169"><ele>77.8</ele><time>2022-11-01T11:28:19.0000000+00:00</time></trkpt><trkpt lat="39.51575772" lon="-0.46869289"><ele>78.0</ele><time>2022-11-01T11:28:20.0000000+00:00</time></trkpt><trkpt lat="39.51579091" lon="-0.46871695"><ele>78.2</ele><time>2022-11-01T11:28:21.0000000+00:00</time></trkpt><trkpt lat="39.51582209" lon="-0.46874008"><ele>78.2</ele><time>2022-11-01T11:28:22.0000000+00:00</time></trkpt><trkpt lat="39.51585302" lon="-0.46876405"><ele>78.4</ele><time>2022-11-01T11:28:23.0000000+00:00</time></trkpt><trkpt lat="39.51588387" lon="-0.46878677"><ele>78.6</ele><time>2022-11-01T11:28:24.0000000+00:00</time></trkpt><trkpt lat="39.51591211" lon="-0.46880798"><ele>78.6</ele><time>2022-11-01T11:28:25.0000000+00:00</time></trkpt><trkpt lat="39.51593944" lon="-0.46882859"><ele>78.6</ele><time>2022-11-01T11:28:26.0000000+00:00</time></trkpt><trkpt lat="39.51596836" lon="-0.46885324"><ele>78.8</ele><time>2022-11-01T11:28:27.0000000+00:00</time></trkpt><trkpt lat="39.51599794" lon="-0.46887872"><ele>78.8</ele><time>2022-11-01T11:28:28.0000000+00:00</time></trkpt><trkpt lat="39.51603097" lon="-0.46890294"><ele>79.0</ele><time>2022-11-01T11:28:29.0000000+00:00</time></trkpt><trkpt lat="39.51607011" lon="-0.46893111"><ele>79.2</ele><time>2022-11-01T11:28:30.0000000+00:00</time></trkpt><trkpt lat="39.51609761" lon="-0.46894703"><ele>79.4</ele><time>2022-11-01T11:28:31.0000000+00:00</time></trkpt><trkpt lat="39.5161318" lon="-0.46896882"><ele>79.4</ele><time>2022-11-01T11:28:32.0000000+00:00</time></trkpt><trkpt lat="39.51616592" lon="-0.46899229"><ele>79.4</ele><time>2022-11-01T11:28:33.0000000+00:00</time></trkpt><trkpt lat="39.51619769" lon="-0.46901752"><ele>79.6</ele><time>2022-11-01T11:28:34.0000000+00:00</time></trkpt><trkpt lat="39.51623071" lon="-0.46904116"><ele>79.6</ele><time>2022-11-01T11:28:35.0000000+00:00</time></trkpt><trkpt lat="39.51626541" lon="-0.46906329"><ele>79.8</ele><time>2022-11-01T11:28:36.0000000+00:00</time></trkpt><trkpt lat="39.51629852" lon="-0.46908718"><ele>79.8</ele><time>2022-11-01T11:28:37.0000000+00:00</time></trkpt><trkpt lat="39.5163323" lon="-0.46910998"><ele>79.8</ele><time>2022-11-01T11:28:38.0000000+00:00</time></trkpt><trkpt lat="39.51636457" lon="-0.46913261"><ele>80.0</ele><time>2022-11-01T11:28:39.0000000+00:00</time></trkpt><trkpt lat="39.51639785" lon="-0.46915758"><ele>80.0</ele><time>2022-11-01T11:28:40.0000000+00:00</time></trkpt><trkpt lat="39.51642869" lon="-0.46918474"><ele>80.0</ele><time>2022-11-01T11:28:41.0000000+00:00</time></trkpt><trkpt lat="39.51646515" lon="-0.46920938"><ele>80.2</ele><time>2022-11-01T11:28:42.0000000+00:00</time></trkpt><trkpt lat="39.51650044" lon="-0.46923604"><ele>80.4</ele><time>2022-11-01T11:28:43.0000000+00:00</time></trkpt><trkpt lat="39.51653648" lon="-0.46926387"><ele>80.6</ele><time>2022-11-01T11:28:44.0000000+00:00</time></trkpt><trkpt lat="39.51657185" lon="-0.46929019"><ele>80.6</ele><time>2022-11-01T11:28:45.0000000+00:00</time></trkpt><trkpt lat="39.51660446" lon="-0.46931692"><ele>80.6</ele><time>2022-11-01T11:28:46.0000000+00:00</time></trkpt><trkpt lat="39.51663916" lon="-0.469344"><ele>80.8</ele><time>2022-11-01T11:28:47.0000000+00:00</time></trkpt><trkpt lat="39.51667688" lon="-0.46936914"><ele>80.6</ele><time>2022-11-01T11:28:48.0000000+00:00</time></trkpt><trkpt lat="39.51671024" lon="-0.469388"><ele>80.6</ele><time>2022-11-01T11:28:49.0000000+00:00</time></trkpt><trkpt lat="39.51674301" lon="-0.46941172"><ele>80.8</ele><time>2022-11-01T11:28:50.0000000+00:00</time></trkpt><trkpt lat="39.51677587" lon="-0.46943762"><ele>80.8</ele><time>2022-11-01T11:28:51.0000000+00:00</time></trkpt><trkpt lat="39.51681099" lon="-0.46946067"><ele>81.0</ele><time>2022-11-01T11:28:52.0000000+00:00</time></trkpt><trkpt lat="39.51684862" lon="-0.46948205"><ele>81.0</ele><time>2022-11-01T11:28:53.0000000+00:00</time></trkpt><trkpt lat="39.51688081" lon="-0.46950753"><ele>81.0</ele><time>2022-11-01T11:28:54.0000000+00:00</time></trkpt><trkpt lat="39.51691467" lon="-0.46953351"><ele>81.2</ele><time>2022-11-01T11:28:55.0000000+00:00</time></trkpt><trkpt lat="39.5169472" lon="-0.46956101"><ele>81.2</ele><time>2022-11-01T11:28:56.0000000+00:00</time></trkpt><trkpt lat="39.51697938" lon="-0.46958573"><ele>81.2</ele><time>2022-11-01T11:28:57.0000000+00:00</time></trkpt><trkpt lat="39.5170135" lon="-0.46960803"><ele>81.2</ele><time>2022-11-01T11:28:58.0000000+00:00</time></trkpt><trkpt lat="39.51704971" lon="-0.4696289"><ele>81.2</ele><time>2022-11-01T11:28:59.0000000+00:00</time></trkpt><trkpt lat="39.51708759" lon="-0.46964784"><ele>81.4</ele><time>2022-11-01T11:29:00.0000000+00:00</time></trkpt><trkpt lat="39.51712146" lon="-0.46966511"><ele>81.6</ele><time>2022-11-01T11:29:01.0000000+00:00</time></trkpt><trkpt lat="39.51715758" lon="-0.46968673"><ele>81.6</ele><time>2022-11-01T11:29:02.0000000+00:00</time></trkpt><trkpt lat="39.51719262" lon="-0.4697097"><ele>81.6</ele><time>2022-11-01T11:29:03.0000000+00:00</time></trkpt><trkpt lat="39.5172274" lon="-0.46973459"><ele>81.8</ele><time>2022-11-01T11:29:04.0000000+00:00</time></trkpt><trkpt lat="39.51726361" lon="-0.46975823"><ele>81.8</ele><time>2022-11-01T11:29:05.0000000+00:00</time></trkpt><trkpt lat="39.51729806" lon="-0.46977919"><ele>81.8</ele><time>2022-11-01T11:29:06.0000000+00:00</time></trkpt><trkpt lat="39.5173326" lon="-0.46979947"><ele>82.0</ele><time>2022-11-01T11:29:07.0000000+00:00</time></trkpt><trkpt lat="39.51736813" lon="-0.46982344"><ele>82.0</ele><time>2022-11-01T11:29:08.0000000+00:00</time></trkpt><trkpt lat="39.51740577" lon="-0.46985018"><ele>82.0</ele><time>2022-11-01T11:29:09.0000000+00:00</time></trkpt><trkpt lat="39.51744097" lon="-0.46987474"><ele>82.2</ele><time>2022-11-01T11:29:10.0000000+00:00</time></trkpt><trkpt lat="39.51747383" lon="-0.46989896"><ele>82.2</ele><time>2022-11-01T11:29:11.0000000+00:00</time></trkpt><trkpt lat="39.51750862" lon="-0.46991766"><ele>82.4</ele><time>2022-11-01T11:29:12.0000000+00:00</time></trkpt><trkpt lat="39.51754348" lon="-0.46993827"><ele>82.4</ele><time>2022-11-01T11:29:13.0000000+00:00</time></trkpt><trkpt lat="39.51757584" lon="-0.46995973"><ele>82.6</ele><time>2022-11-01T11:29:14.0000000+00:00</time></trkpt><trkpt lat="39.51760794" lon="-0.46998597"><ele>82.6</ele><time>2022-11-01T11:29:15.0000000+00:00</time></trkpt><trkpt lat="39.51764482" lon="-0.47000977"><ele>82.8</ele><time>2022-11-01T11:29:16.0000000+00:00</time></trkpt><trkpt lat="39.51767835" lon="-0.47003157"><ele>82.8</ele><time>2022-11-01T11:29:17.0000000+00:00</time></trkpt><trkpt lat="39.51771481" lon="-0.47005562"><ele>82.8</ele><time>2022-11-01T11:29:18.0000000+00:00</time></trkpt><trkpt lat="39.51774901" lon="-0.47008085"><ele>82.8</ele><time>2022-11-01T11:29:19.0000000+00:00</time></trkpt><trkpt lat="39.51778371" lon="-0.47010759"><ele>83.0</ele><time>2022-11-01T11:29:20.0000000+00:00</time></trkpt><trkpt lat="39.51781908" lon="-0.47013332"><ele>83.0</ele><time>2022-11-01T11:29:21.0000000+00:00</time></trkpt><trkpt lat="39.51785361" lon="-0.4701578"><ele>83.0</ele><time>2022-11-01T11:29:22.0000000+00:00</time></trkpt><trkpt lat="39.51789209" lon="-0.47019132"><ele>83.2</ele><time>2022-11-01T11:29:23.0000000+00:00</time></trkpt><trkpt lat="39.51792444" lon="-0.47021915"><ele>83.2</ele><time>2022-11-01T11:29:24.0000000+00:00</time></trkpt><trkpt lat="39.51795244" lon="-0.47024103"><ele>83.2</ele><time>2022-11-01T11:29:25.0000000+00:00</time></trkpt><trkpt lat="39.51799334" lon="-0.47026936"><ele>83.4</ele><time>2022-11-01T11:29:26.0000000+00:00</time></trkpt><trkpt lat="39.51801849" lon="-0.47029065"><ele>83.4</ele><time>2022-11-01T11:29:27.0000000+00:00</time></trkpt><trkpt lat="39.51804975" lon="-0.47031353"><ele>83.4</ele><time>2022-11-01T11:29:28.0000000+00:00</time></trkpt><trkpt lat="39.51809007" lon="-0.4703391"><ele>83.6</ele><time>2022-11-01T11:29:29.0000000+00:00</time></trkpt><trkpt lat="39.51811731" lon="-0.47036081"><ele>83.8</ele><time>2022-11-01T11:29:30.0000000+00:00</time></trkpt><trkpt lat="39.51815226" lon="-0.47038612"><ele>83.8</ele><time>2022-11-01T11:29:31.0000000+00:00</time></trkpt><trkpt lat="39.51819451" lon="-0.47041898"><ele>84.0</ele><time>2022-11-01T11:29:32.0000000+00:00</time></trkpt><trkpt lat="39.5182194" lon="-0.47044437"><ele>84.0</ele><time>2022-11-01T11:29:33.0000000+00:00</time></trkpt><trkpt lat="39.51825771" lon="-0.47047053"><ele>84.0</ele><time>2022-11-01T11:29:34.0000000+00:00</time></trkpt><trkpt lat="39.51829551" lon="-0.47049592"><ele>84.0</ele><time>2022-11-01T11:29:35.0000000+00:00</time></trkpt><trkpt lat="39.51833021" lon="-0.4705199"><ele>84.0</ele><time>2022-11-01T11:29:36.0000000+00:00</time></trkpt><trkpt lat="39.51836885" lon="-0.47055141"><ele>84.2</ele><time>2022-11-01T11:29:37.0000000+00:00</time></trkpt><trkpt lat="39.51840154" lon="-0.47057522"><ele>84.4</ele><time>2022-11-01T11:29:38.0000000+00:00</time></trkpt><trkpt lat="39.51842585" lon="-0.47059382"><ele>84.6</ele><time>2022-11-01T11:29:39.0000000+00:00</time></trkpt><trkpt lat="39.51845376" lon="-0.47061738"><ele>84.6</ele><time>2022-11-01T11:29:40.0000000+00:00</time></trkpt><trkpt lat="39.51849181" lon="-0.4706452"><ele>84.8</ele><time>2022-11-01T11:29:41.0000000+00:00</time></trkpt><trkpt lat="39.51851738" lon="-0.47066566"><ele>84.8</ele><time>2022-11-01T11:29:42.0000000+00:00</time></trkpt><trkpt lat="39.51855132" lon="-0.47069265"><ele>84.8</ele><time>2022-11-01T11:29:43.0000000+00:00</time></trkpt><trkpt lat="39.51859089" lon="-0.47072793"><ele>84.8</ele><time>2022-11-01T11:29:44.0000000+00:00</time></trkpt><trkpt lat="39.51861846" lon="-0.47075174"><ele>85.0</ele><time>2022-11-01T11:29:45.0000000+00:00</time></trkpt><trkpt lat="39.51865886" lon="-0.4707799"><ele>85.0</ele><time>2022-11-01T11:29:46.0000000+00:00</time></trkpt><trkpt lat="39.51869315" lon="-0.47079868"><ele>85.2</ele><time>2022-11-01T11:29:47.0000000+00:00</time></trkpt><trkpt lat="39.5187203" lon="-0.47081167"><ele>85.2</ele><time>2022-11-01T11:29:48.0000000+00:00</time></trkpt><trkpt lat="39.51875174" lon="-0.47082902"><ele>85.2</ele><time>2022-11-01T11:29:49.0000000+00:00</time></trkpt><trkpt lat="39.51878803" lon="-0.4708421"><ele>85.4</ele><time>2022-11-01T11:29:50.0000000+00:00</time></trkpt><trkpt lat="39.51882189" lon="-0.47086054"><ele>85.4</ele><time>2022-11-01T11:29:51.0000000+00:00</time></trkpt><trkpt lat="39.51885735" lon="-0.47088367"><ele>85.6</ele><time>2022-11-01T11:29:52.0000000+00:00</time></trkpt><trkpt lat="39.51889372" lon="-0.47091276"><ele>85.6</ele><time>2022-11-01T11:29:53.0000000+00:00</time></trkpt><trkpt lat="39.51892038" lon="-0.47093002"><ele>85.8</ele><time>2022-11-01T11:29:54.0000000+00:00</time></trkpt><trkpt lat="39.51895952" lon="-0.47095601"><ele>85.8</ele><time>2022-11-01T11:29:55.0000000+00:00</time></trkpt><trkpt lat="39.51898349" lon="-0.47097528"><ele>85.8</ele><time>2022-11-01T11:29:56.0000000+00:00</time></trkpt><trkpt lat="39.51901359" lon="-0.47099993"><ele>86.0</ele><time>2022-11-01T11:29:57.0000000+00:00</time></trkpt><trkpt lat="39.51904343" lon="-0.47102968"><ele>86.0</ele><time>2022-11-01T11:29:58.0000000+00:00</time></trkpt><trkpt lat="39.5190684" lon="-0.47105877"><ele>86.0</ele><time>2022-11-01T11:29:59.0000000+00:00</time></trkpt><trkpt lat="39.51909238" lon="-0.47108576"><ele>86.0</ele><time>2022-11-01T11:30:00.0000000+00:00</time></trkpt><trkpt lat="39.51911501" lon="-0.47110286"><ele>86.0</ele><time>2022-11-01T11:30:01.0000000+00:00</time></trkpt><trkpt lat="39.5191368" lon="-0.47112012"><ele>86.2</ele><time>2022-11-01T11:30:02.0000000+00:00</time></trkpt><trkpt lat="39.51915465" lon="-0.47113789"><ele>86.2</ele><time>2022-11-01T11:30:03.0000000+00:00</time></trkpt><trkpt lat="39.51917309" lon="-0.471157"><ele>86.2</ele><time>2022-11-01T11:30:04.0000000+00:00</time></trkpt><trkpt lat="39.51918843" lon="-0.47117234"><ele>86.2</ele><time>2022-11-01T11:30:05.0000000+00:00</time></trkpt><trkpt lat="39.51920805" lon="-0.47119011"><ele>86.2</ele><time>2022-11-01T11:30:06.0000000+00:00</time></trkpt><trkpt lat="39.51922422" lon="-0.47120998"><ele>86.4</ele><time>2022-11-01T11:30:07.0000000+00:00</time></trkpt><trkpt lat="39.51924291" lon="-0.47123789"><ele>86.4</ele><time>2022-11-01T11:30:08.0000000+00:00</time></trkpt><trkpt lat="39.51926228" lon="-0.47126899"><ele>86.4</ele><time>2022-11-01T11:30:09.0000000+00:00</time></trkpt><trkpt lat="39.51928684" lon="-0.47131391"><ele>86.4</ele><time>2022-11-01T11:30:10.0000000+00:00</time></trkpt><trkpt lat="39.51930762" lon="-0.47134275"><ele>86.6</ele><time>2022-11-01T11:30:11.0000000+00:00</time></trkpt><trkpt lat="39.51933537" lon="-0.47137728"><ele>86.6</ele><time>2022-11-01T11:30:12.0000000+00:00</time></trkpt><trkpt lat="39.51936563" lon="-0.47140963"><ele>86.8</ele><time>2022-11-01T11:30:13.0000000+00:00</time></trkpt><trkpt lat="39.51939764" lon="-0.47144987"><ele>87.0</ele><time>2022-11-01T11:30:14.0000000+00:00</time></trkpt><trkpt lat="39.51941877" lon="-0.47147744"><ele>87.0</ele><time>2022-11-01T11:30:15.0000000+00:00</time></trkpt><trkpt lat="39.51944567" lon="-0.47151114"><ele>87.2</ele><time>2022-11-01T11:30:16.0000000+00:00</time></trkpt><trkpt lat="39.51947015" lon="-0.47154249"><ele>87.2</ele><time>2022-11-01T11:30:17.0000000+00:00</time></trkpt><trkpt lat="39.51949026" lon="-0.47157987"><ele>87.2</ele><time>2022-11-01T11:30:18.0000000+00:00</time></trkpt><trkpt lat="39.51951449" lon="-0.47162077"><ele>87.4</ele><time>2022-11-01T11:30:19.0000000+00:00</time></trkpt><trkpt lat="39.51953569" lon="-0.47166352"><ele>87.4</ele><time>2022-11-01T11:30:20.0000000+00:00</time></trkpt><trkpt lat="39.5195559" lon="-0.47170744"><ele>87.4</ele><time>2022-11-01T11:30:21.0000000+00:00</time></trkpt><trkpt lat="39.51957593" lon="-0.47174692"><ele>87.6</ele><time>2022-11-01T11:30:22.0000000+00:00</time></trkpt><trkpt lat="39.51959747" lon="-0.47179084"><ele>87.6</ele><time>2022-11-01T11:30:23.0000000+00:00</time></trkpt><trkpt lat="39.51962245" lon="-0.47183552"><ele>87.8</ele><time>2022-11-01T11:30:24.0000000+00:00</time></trkpt><trkpt lat="39.51965011" lon="-0.47188506"><ele>87.8</ele><time>2022-11-01T11:30:25.0000000+00:00</time></trkpt><trkpt lat="39.51967081" lon="-0.4719159"><ele>87.8</ele><time>2022-11-01T11:30:26.0000000+00:00</time></trkpt><trkpt lat="39.51968271" lon="-0.47195672"><ele>87.8</ele><time>2022-11-01T11:30:27.0000000+00:00</time></trkpt><trkpt lat="39.51969679" lon="-0.47200131"><ele>87.8</ele><time>2022-11-01T11:30:28.0000000+00:00</time></trkpt><trkpt lat="39.5197144" lon="-0.47205479"><ele>88.0</ele><time>2022-11-01T11:30:29.0000000+00:00</time></trkpt><trkpt lat="39.51972772" lon="-0.47208983"><ele>88.2</ele><time>2022-11-01T11:30:30.0000000+00:00</time></trkpt><trkpt lat="39.51974742" lon="-0.472134"><ele>88.2</ele><time>2022-11-01T11:30:31.0000000+00:00</time></trkpt><trkpt lat="39.51976611" lon="-0.47217943"><ele>88.2</ele><time>2022-11-01T11:30:32.0000000+00:00</time></trkpt><trkpt lat="39.51978799" lon="-0.47222997"><ele>88.4</ele><time>2022-11-01T11:30:33.0000000+00:00</time></trkpt><trkpt lat="39.51980936" lon="-0.47227733"><ele>88.4</ele><time>2022-11-01T11:30:34.0000000+00:00</time></trkpt><trkpt lat="39.51983702" lon="-0.47233357"><ele>88.4</ele><time>2022-11-01T11:30:35.0000000+00:00</time></trkpt><trkpt lat="39.5198558" lon="-0.47236526"><ele>88.6</ele><time>2022-11-01T11:30:36.0000000+00:00</time></trkpt><trkpt lat="39.51987533" lon="-0.47241043"><ele>88.6</ele><time>2022-11-01T11:30:37.0000000+00:00</time></trkpt><trkpt lat="39.51990265" lon="-0.47247305"><ele>88.8</ele><time>2022-11-01T11:30:38.0000000+00:00</time></trkpt><trkpt lat="39.51991799" lon="-0.4725168"><ele>88.8</ele><time>2022-11-01T11:30:39.0000000+00:00</time></trkpt><trkpt lat="39.51993987" lon="-0.47256843"><ele>89.0</ele><time>2022-11-01T11:30:40.0000000+00:00</time></trkpt><trkpt lat="39.51995999" lon="-0.47261705"><ele>89.0</ele><time>2022-11-01T11:30:41.0000000+00:00</time></trkpt><trkpt lat="39.51997943" lon="-0.47266332"><ele>89.0</ele><time>2022-11-01T11:30:42.0000000+00:00</time></trkpt><trkpt lat="39.51999787" lon="-0.47271419"><ele>89.0</ele><time>2022-11-01T11:30:43.0000000+00:00</time></trkpt><trkpt lat="39.52001573" lon="-0.47277044"><ele>89.0</ele><time>2022-11-01T11:30:44.0000000+00:00</time></trkpt><trkpt lat="39.52003903" lon="-0.47282626"><ele>89.2</ele><time>2022-11-01T11:30:45.0000000+00:00</time></trkpt><trkpt lat="39.52006325" lon="-0.47287856"><ele>89.2</ele><time>2022-11-01T11:30:46.0000000+00:00</time></trkpt><trkpt lat="39.52008362" lon="-0.47292642"><ele>89.2</ele><time>2022-11-01T11:30:47.0000000+00:00</time></trkpt><trkpt lat="39.52011078" lon="-0.47298208"><ele>89.2</ele><time>2022-11-01T11:30:48.0000000+00:00</time></trkpt><trkpt lat="39.52012938" lon="-0.47301728"><ele>89.2</ele><time>2022-11-01T11:30:49.0000000+00:00</time></trkpt><trkpt lat="39.52015202" lon="-0.47306179"><ele>89.2</ele><time>2022-11-01T11:30:50.0000000+00:00</time></trkpt><trkpt lat="39.52017557" lon="-0.47311929"><ele>89.4</ele><time>2022-11-01T11:30:51.0000000+00:00</time></trkpt><trkpt lat="39.52019334" lon="-0.47317092"><ele>89.4</ele><time>2022-11-01T11:30:52.0000000+00:00</time></trkpt><trkpt lat="39.52021681" lon="-0.47321568"><ele>89.4</ele><time>2022-11-01T11:30:53.0000000+00:00</time></trkpt><trkpt lat="39.52023843" lon="-0.47326136"><ele>89.4</ele><time>2022-11-01T11:30:54.0000000+00:00</time></trkpt><trkpt lat="39.52025562" lon="-0.4733016"><ele>89.6</ele><time>2022-11-01T11:30:55.0000000+00:00</time></trkpt><trkpt lat="39.52028177" lon="-0.47335876"><ele>89.8</ele><time>2022-11-01T11:30:56.0000000+00:00</time></trkpt><trkpt lat="39.52029887" lon="-0.47340436"><ele>89.8</ele><time>2022-11-01T11:30:57.0000000+00:00</time></trkpt><trkpt lat="39.52031018" lon="-0.4734394"><ele>90.0</ele><time>2022-11-01T11:30:58.0000000+00:00</time></trkpt><trkpt lat="39.52032846" lon="-0.47348625"><ele>90.0</ele><time>2022-11-01T11:30:59.0000000+00:00</time></trkpt><trkpt lat="39.52033944" lon="-0.47351324"><ele>90.0</ele><time>2022-11-01T11:31:00.0000000+00:00</time></trkpt><trkpt lat="39.52035402" lon="-0.47354383"><ele>90.0</ele><time>2022-11-01T11:31:01.0000000+00:00</time></trkpt><trkpt lat="39.52036869" lon="-0.47356999"><ele>90.0</ele><time>2022-11-01T11:31:02.0000000+00:00</time></trkpt><trkpt lat="39.52038411" lon="-0.47360234"><ele>90.0</ele><time>2022-11-01T11:31:03.0000000+00:00</time></trkpt><trkpt lat="39.52038797" lon="-0.4736264"><ele>90.0</ele><time>2022-11-01T11:31:04.0000000+00:00</time></trkpt><trkpt lat="39.52039098" lon="-0.47364769"><ele>89.8</ele><time>2022-11-01T11:31:05.0000000+00:00</time></trkpt><trkpt lat="39.5203909" lon="-0.47367275"><ele>89.8</ele><time>2022-11-01T11:31:06.0000000+00:00</time></trkpt><trkpt lat="39.52039694" lon="-0.47368725"><ele>89.8</ele><time>2022-11-01T11:31:07.0000000+00:00</time></trkpt><trkpt lat="39.52040766" lon="-0.47370762"><ele>89.8</ele><time>2022-11-01T11:31:08.0000000+00:00</time></trkpt><trkpt lat="39.52041864" lon="-0.4737367"><ele>90.0</ele><time>2022-11-01T11:31:09.0000000+00:00</time></trkpt><trkpt lat="39.52042862" lon="-0.47376101"><ele>90.0</ele><time>2022-11-01T11:31:10.0000000+00:00</time></trkpt><trkpt lat="39.52044379" lon="-0.47379571"><ele>90.0</ele><time>2022-11-01T11:31:11.0000000+00:00</time></trkpt><trkpt lat="39.5204489" lon="-0.47382253"><ele>90.2</ele><time>2022-11-01T11:31:12.0000000+00:00</time></trkpt><trkpt lat="39.52045578" lon="-0.47386201"><ele>90.2</ele><time>2022-11-01T11:31:13.0000000+00:00</time></trkpt><trkpt lat="39.52046089" lon="-0.47389344"><ele>90.4</ele><time>2022-11-01T11:31:14.0000000+00:00</time></trkpt><trkpt lat="39.52046491" lon="-0.47391742"><ele>90.6</ele><time>2022-11-01T11:31:15.0000000+00:00</time></trkpt><trkpt lat="39.52046567" lon="-0.47395891"><ele>90.6</ele><time>2022-11-01T11:31:16.0000000+00:00</time></trkpt><trkpt lat="39.52046935" lon="-0.47398992"><ele>90.8</ele><time>2022-11-01T11:31:17.0000000+00:00</time></trkpt><trkpt lat="39.52046994" lon="-0.47400903"><ele>90.8</ele><time>2022-11-01T11:31:18.0000000+00:00</time></trkpt><trkpt lat="39.52046977" lon="-0.47403677"><ele>90.8</ele><time>2022-11-01T11:31:19.0000000+00:00</time></trkpt><trkpt lat="39.52047003" lon="-0.47405681"><ele>91.0</ele><time>2022-11-01T11:31:20.0000000+00:00</time></trkpt><trkpt lat="39.52047397" lon="-0.47407005"><ele>91.0</ele><time>2022-11-01T11:31:21.0000000+00:00</time></trkpt><trkpt lat="39.52047623" lon="-0.47408254"><ele>91.0</ele><time>2022-11-01T11:31:22.0000000+00:00</time></trkpt><trkpt lat="39.52047355" lon="-0.4740926"><ele>91.0</ele><time>2022-11-01T11:31:23.0000000+00:00</time></trkpt><trkpt lat="39.52046642" lon="-0.47410651"><ele>91.0</ele><time>2022-11-01T11:31:24.0000000+00:00</time></trkpt><trkpt lat="39.52045829" lon="-0.47412613"><ele>91.0</ele><time>2022-11-01T11:31:25.0000000+00:00</time></trkpt><trkpt lat="39.52046164" lon="-0.47414767"><ele>91.2</ele><time>2022-11-01T11:31:26.0000000+00:00</time></trkpt><trkpt lat="39.52047464" lon="-0.47416166"><ele>91.2</ele><time>2022-11-01T11:31:27.0000000+00:00</time></trkpt><trkpt lat="39.52050163" lon="-0.47417348"><ele>91.4</ele><time>2022-11-01T11:31:28.0000000+00:00</time></trkpt><trkpt lat="39.52052644" lon="-0.47418027"><ele>91.4</ele><time>2022-11-01T11:31:29.0000000+00:00</time></trkpt><trkpt lat="39.52054437" lon="-0.4741884"><ele>91.6</ele><time>2022-11-01T11:31:30.0000000+00:00</time></trkpt><trkpt lat="39.52057438" lon="-0.4742055"><ele>91.6</ele><time>2022-11-01T11:31:31.0000000+00:00</time></trkpt><trkpt lat="39.52059693" lon="-0.47422185"><ele>91.8</ele><time>2022-11-01T11:31:32.0000000+00:00</time></trkpt><trkpt lat="39.5206147" lon="-0.47424037"><ele>91.8</ele><time>2022-11-01T11:31:33.0000000+00:00</time></trkpt><trkpt lat="39.52063909" lon="-0.47427122"><ele>91.8</ele><time>2022-11-01T11:31:34.0000000+00:00</time></trkpt><trkpt lat="39.5206577" lon="-0.47429385"><ele>91.8</ele><time>2022-11-01T11:31:35.0000000+00:00</time></trkpt><trkpt lat="39.52067572" lon="-0.47431497"><ele>91.8</ele><time>2022-11-01T11:31:36.0000000+00:00</time></trkpt><trkpt lat="39.52069248" lon="-0.47433986"><ele>92.0</ele><time>2022-11-01T11:31:37.0000000+00:00</time></trkpt><trkpt lat="39.5207126" lon="-0.47436752"><ele>92.0</ele><time>2022-11-01T11:31:38.0000000+00:00</time></trkpt><trkpt lat="39.52073489" lon="-0.47439787"><ele>92.0</ele><time>2022-11-01T11:31:39.0000000+00:00</time></trkpt><trkpt lat="39.5207592" lon="-0.47443098"><ele>92.0</ele><time>2022-11-01T11:31:40.0000000+00:00</time></trkpt><trkpt lat="39.52078527" lon="-0.47447045"><ele>92.0</ele><time>2022-11-01T11:31:41.0000000+00:00</time></trkpt><trkpt lat="39.52081184" lon="-0.47451396"><ele>92.0</ele><time>2022-11-01T11:31:42.0000000+00:00</time></trkpt><trkpt lat="39.52083489" lon="-0.47454991"><ele>92.2</ele><time>2022-11-01T11:31:43.0000000+00:00</time></trkpt><trkpt lat="39.5208649" lon="-0.47459057"><ele>92.2</ele><time>2022-11-01T11:31:44.0000000+00:00</time></trkpt><trkpt lat="39.52089826" lon="-0.47462787"><ele>92.2</ele><time>2022-11-01T11:31:45.0000000+00:00</time></trkpt><trkpt lat="39.52093246" lon="-0.47466902"><ele>92.2</ele><time>2022-11-01T11:31:46.0000000+00:00</time></trkpt><trkpt lat="39.52096246" lon="-0.47470984"><ele>92.2</ele><time>2022-11-01T11:31:47.0000000+00:00</time></trkpt><trkpt lat="39.52099079" lon="-0.47474563"><ele>92.2</ele><time>2022-11-01T11:31:48.0000000+00:00</time></trkpt><trkpt lat="39.52102097" lon="-0.4747805"><ele>92.2</ele><time>2022-11-01T11:31:49.0000000+00:00</time></trkpt><trkpt lat="39.52105651" lon="-0.47482283"><ele>92.2</ele><time>2022-11-01T11:31:50.0000000+00:00</time></trkpt><trkpt lat="39.52109037" lon="-0.4748675"><ele>92.2</ele><time>2022-11-01T11:31:51.0000000+00:00</time></trkpt><trkpt lat="39.52112113" lon="-0.47492475"><ele>92.2</ele><time>2022-11-01T11:31:52.0000000+00:00</time></trkpt><trkpt lat="39.52115382" lon="-0.47498485"><ele>92.0</ele><time>2022-11-01T11:31:53.0000000+00:00</time></trkpt><trkpt lat="39.5211726" lon="-0.47502701"><ele>92.0</ele><time>2022-11-01T11:31:54.0000000+00:00</time></trkpt><trkpt lat="39.52120001" lon="-0.47507236"><ele>92.2</ele><time>2022-11-01T11:31:55.0000000+00:00</time></trkpt><trkpt lat="39.52122943" lon="-0.47512692"><ele>92.2</ele><time>2022-11-01T11:31:56.0000000+00:00</time></trkpt><trkpt lat="39.52125155" lon="-0.4751737"><ele>92.2</ele><time>2022-11-01T11:31:57.0000000+00:00</time></trkpt><trkpt lat="39.52127293" lon="-0.47521887"><ele>92.2</ele><time>2022-11-01T11:31:58.0000000+00:00</time></trkpt><trkpt lat="39.52129346" lon="-0.47526782"><ele>92.2</ele><time>2022-11-01T11:31:59.0000000+00:00</time></trkpt><trkpt lat="39.52131132" lon="-0.47531594"><ele>92.2</ele><time>2022-11-01T11:32:00.0000000+00:00</time></trkpt><trkpt lat="39.52132557" lon="-0.47534888"><ele>92.4</ele><time>2022-11-01T11:32:01.0000000+00:00</time></trkpt><trkpt lat="39.52134099" lon="-0.47539137"><ele>92.4</ele><time>2022-11-01T11:32:02.0000000+00:00</time></trkpt><trkpt lat="39.52136102" lon="-0.47544686"><ele>92.4</ele><time>2022-11-01T11:32:03.0000000+00:00</time></trkpt><trkpt lat="39.52137334" lon="-0.47548265"><ele>92.4</ele><time>2022-11-01T11:32:04.0000000+00:00</time></trkpt><trkpt lat="39.5213917" lon="-0.47552775"><ele>92.4</ele><time>2022-11-01T11:32:05.0000000+00:00</time></trkpt><trkpt lat="39.52141249" lon="-0.4755715"><ele>92.4</ele><time>2022-11-01T11:32:06.0000000+00:00</time></trkpt><trkpt lat="39.52143847" lon="-0.47562707"><ele>92.4</ele><time>2022-11-01T11:32:07.0000000+00:00</time></trkpt><trkpt lat="39.52146211" lon="-0.47567275"><ele>92.6</ele><time>2022-11-01T11:32:08.0000000+00:00</time></trkpt><trkpt lat="39.52148323" lon="-0.47572196"><ele>92.6</ele><time>2022-11-01T11:32:09.0000000+00:00</time></trkpt><trkpt lat="39.5215031" lon="-0.47576672"><ele>92.8</ele><time>2022-11-01T11:32:10.0000000+00:00</time></trkpt><trkpt lat="39.5215212" lon="-0.47580795"><ele>92.8</ele><time>2022-11-01T11:32:11.0000000+00:00</time></trkpt><trkpt lat="39.52154308" lon="-0.47585104"><ele>93.0</ele><time>2022-11-01T11:32:12.0000000+00:00</time></trkpt><trkpt lat="39.5215647" lon="-0.47589328"><ele>93.2</ele><time>2022-11-01T11:32:13.0000000+00:00</time></trkpt><trkpt lat="39.52157987" lon="-0.47593502"><ele>93.2</ele><time>2022-11-01T11:32:14.0000000+00:00</time></trkpt><trkpt lat="39.52160368" lon="-0.47597702"><ele>93.4</ele><time>2022-11-01T11:32:15.0000000+00:00</time></trkpt><trkpt lat="39.52161918" lon="-0.47601742"><ele>93.4</ele><time>2022-11-01T11:32:16.0000000+00:00</time></trkpt><trkpt lat="39.52163394" lon="-0.47605597"><ele>93.4</ele><time>2022-11-01T11:32:17.0000000+00:00</time></trkpt><trkpt lat="39.52165112" lon="-0.47608799"><ele>93.6</ele><time>2022-11-01T11:32:18.0000000+00:00</time></trkpt><trkpt lat="39.52166939" lon="-0.47612504"><ele>93.8</ele><time>2022-11-01T11:32:19.0000000+00:00</time></trkpt><trkpt lat="39.52168775" lon="-0.4761631"><ele>93.8</ele><time>2022-11-01T11:32:20.0000000+00:00</time></trkpt><trkpt lat="39.52170845" lon="-0.47619998"><ele>94.0</ele><time>2022-11-01T11:32:21.0000000+00:00</time></trkpt><trkpt lat="39.52173016" lon="-0.47623426"><ele>94.0</ele><time>2022-11-01T11:32:22.0000000+00:00</time></trkpt><trkpt lat="39.52175422" lon="-0.47627114"><ele>94.0</ele><time>2022-11-01T11:32:23.0000000+00:00</time></trkpt><trkpt lat="39.52177551" lon="-0.47630835"><ele>94.0</ele><time>2022-11-01T11:32:24.0000000+00:00</time></trkpt><trkpt lat="39.52179319" lon="-0.47633559"><ele>94.2</ele><time>2022-11-01T11:32:25.0000000+00:00</time></trkpt><trkpt lat="39.52182127" lon="-0.47636183"><ele>94.4</ele><time>2022-11-01T11:32:26.0000000+00:00</time></trkpt><trkpt lat="39.52185622" lon="-0.4763853"><ele>94.4</ele><time>2022-11-01T11:32:27.0000000+00:00</time></trkpt><trkpt lat="39.52187978" lon="-0.47640869"><ele>94.4</ele><time>2022-11-01T11:32:28.0000000+00:00</time></trkpt><trkpt lat="39.52189621" lon="-0.47643123"><ele>94.4</ele><time>2022-11-01T11:32:29.0000000+00:00</time></trkpt><trkpt lat="39.5219175" lon="-0.47647163"><ele>94.6</ele><time>2022-11-01T11:32:30.0000000+00:00</time></trkpt><trkpt lat="39.52193275" lon="-0.47650675"><ele>94.6</ele><time>2022-11-01T11:32:31.0000000+00:00</time></trkpt><trkpt lat="39.52194516" lon="-0.47654221"><ele>94.6</ele><time>2022-11-01T11:32:32.0000000+00:00</time></trkpt><trkpt lat="39.52195505" lon="-0.476578"><ele>94.8</ele><time>2022-11-01T11:32:33.0000000+00:00</time></trkpt><trkpt lat="39.52196955" lon="-0.47660734"><ele>94.8</ele><time>2022-11-01T11:32:34.0000000+00:00</time></trkpt><trkpt lat="39.52198003" lon="-0.47662963"><ele>94.8</ele><time>2022-11-01T11:32:35.0000000+00:00</time></trkpt><trkpt lat="39.5219874" lon="-0.47664816"><ele>95.0</ele><time>2022-11-01T11:32:36.0000000+00:00</time></trkpt><trkpt lat="39.5219952" lon="-0.47666752"><ele>95.0</ele><time>2022-11-01T11:32:37.0000000+00:00</time></trkpt><trkpt lat="39.52200408" lon="-0.47668621"><ele>95.0</ele><time>2022-11-01T11:32:38.0000000+00:00</time></trkpt><trkpt lat="39.52201188" lon="-0.47670473"><ele>95.0</ele><time>2022-11-01T11:32:39.0000000+00:00</time></trkpt><trkpt lat="39.52202261" lon="-0.47673734"><ele>95.0</ele><time>2022-11-01T11:32:40.0000000+00:00</time></trkpt><trkpt lat="39.52203669" lon="-0.47676651"><ele>95.2</ele><time>2022-11-01T11:32:41.0000000+00:00</time></trkpt><trkpt lat="39.52205219" lon="-0.47679618"><ele>95.2</ele><time>2022-11-01T11:32:42.0000000+00:00</time></trkpt><trkpt lat="39.52206728" lon="-0.47682971"><ele>95.4</ele><time>2022-11-01T11:32:43.0000000+00:00</time></trkpt><trkpt lat="39.52207876" lon="-0.47685066"><ele>95.6</ele><time>2022-11-01T11:32:44.0000000+00:00</time></trkpt><trkpt lat="39.52209578" lon="-0.47688989"><ele>95.6</ele><time>2022-11-01T11:32:45.0000000+00:00</time></trkpt><trkpt lat="39.5221055" lon="-0.47691353"><ele>95.6</ele><time>2022-11-01T11:32:46.0000000+00:00</time></trkpt><trkpt lat="39.52211766" lon="-0.47694102"><ele>95.8</ele><time>2022-11-01T11:32:47.0000000+00:00</time></trkpt><trkpt lat="39.5221278" lon="-0.47696508"><ele>95.8</ele><time>2022-11-01T11:32:48.0000000+00:00</time></trkpt><trkpt lat="39.52213668" lon="-0.47698888"><ele>95.8</ele><time>2022-11-01T11:32:49.0000000+00:00</time></trkpt><trkpt lat="39.52215152" lon="-0.47701822"><ele>95.8</ele><time>2022-11-01T11:32:50.0000000+00:00</time></trkpt><trkpt lat="39.52215864" lon="-0.47703817"><ele>95.8</ele><time>2022-11-01T11:32:51.0000000+00:00</time></trkpt><trkpt lat="39.52216971" lon="-0.47707069"><ele>96.0</ele><time>2022-11-01T11:32:52.0000000+00:00</time></trkpt><trkpt lat="39.52217968" lon="-0.47709114"><ele>96.0</ele><time>2022-11-01T11:32:53.0000000+00:00</time></trkpt><trkpt lat="39.52219167" lon="-0.47712341"><ele>96.2</ele><time>2022-11-01T11:32:54.0000000+00:00</time></trkpt><trkpt lat="39.52220709" lon="-0.47716339"><ele>96.2</ele><time>2022-11-01T11:32:55.0000000+00:00</time></trkpt><trkpt lat="39.5222148" lon="-0.47719105"><ele>96.2</ele><time>2022-11-01T11:32:56.0000000+00:00</time></trkpt><trkpt lat="39.52222612" lon="-0.47722491"><ele>96.4</ele><time>2022-11-01T11:32:57.0000000+00:00</time></trkpt><trkpt lat="39.52224012" lon="-0.47726842"><ele>96.6</ele><time>2022-11-01T11:32:58.0000000+00:00</time></trkpt><trkpt lat="39.52225386" lon="-0.47730438"><ele>96.6</ele><time>2022-11-01T11:32:59.0000000+00:00</time></trkpt><trkpt lat="39.52226484" lon="-0.47733036"><ele>96.6</ele><time>2022-11-01T11:33:00.0000000+00:00</time></trkpt><trkpt lat="39.52227515" lon="-0.47737009"><ele>96.6</ele><time>2022-11-01T11:33:01.0000000+00:00</time></trkpt><trkpt lat="39.5222837" lon="-0.47739741"><ele>96.8</ele><time>2022-11-01T11:33:02.0000000+00:00</time></trkpt><trkpt lat="39.52229736" lon="-0.47744167"><ele>96.8</ele><time>2022-11-01T11:33:03.0000000+00:00</time></trkpt><trkpt lat="39.52230809" lon="-0.4774804"><ele>96.8</ele><time>2022-11-01T11:33:04.0000000+00:00</time></trkpt><trkpt lat="39.52232033" lon="-0.47751694"><ele>97.0</ele><time>2022-11-01T11:33:05.0000000+00:00</time></trkpt><trkpt lat="39.52233274" lon="-0.47755122"><ele>97.0</ele><time>2022-11-01T11:33:06.0000000+00:00</time></trkpt><trkpt lat="39.5223438" lon="-0.47758123"><ele>97.2</ele><time>2022-11-01T11:33:07.0000000+00:00</time></trkpt><trkpt lat="39.52235067" lon="-0.47760772"><ele>97.2</ele><time>2022-11-01T11:33:08.0000000+00:00</time></trkpt><trkpt lat="39.52235931" lon="-0.4776477"><ele>97.4</ele><time>2022-11-01T11:33:09.0000000+00:00</time></trkpt><trkpt lat="39.52237154" lon="-0.47769506"><ele>97.4</ele><time>2022-11-01T11:33:10.0000000+00:00</time></trkpt><trkpt lat="39.52238194" lon="-0.47773462"><ele>97.4</ele><time>2022-11-01T11:33:11.0000000+00:00</time></trkpt><trkpt lat="39.52239367" lon="-0.47777074"><ele>97.6</ele><time>2022-11-01T11:33:12.0000000+00:00</time></trkpt><trkpt lat="39.52240239" lon="-0.47780486"><ele>97.6</ele><time>2022-11-01T11:33:13.0000000+00:00</time></trkpt><trkpt lat="39.52241295" lon="-0.47784752"><ele>97.6</ele><time>2022-11-01T11:33:14.0000000+00:00</time></trkpt><trkpt lat="39.52242267" lon="-0.47789061"><ele>97.8</ele><time>2022-11-01T11:33:15.0000000+00:00</time></trkpt><trkpt lat="39.52243407" lon="-0.47794484"><ele>97.8</ele><time>2022-11-01T11:33:16.0000000+00:00</time></trkpt><trkpt lat="39.52244187" lon="-0.47798398"><ele>97.8</ele><time>2022-11-01T11:33:17.0000000+00:00</time></trkpt><trkpt lat="39.52244857" lon="-0.47803016"><ele>97.8</ele><time>2022-11-01T11:33:18.0000000+00:00</time></trkpt><trkpt lat="39.52245922" lon="-0.47808062"><ele>97.8</ele><time>2022-11-01T11:33:19.0000000+00:00</time></trkpt><trkpt lat="39.52247338" lon="-0.47813108"><ele>98.0</ele><time>2022-11-01T11:33:20.0000000+00:00</time></trkpt><trkpt lat="39.52248638" lon="-0.47818179"><ele>98.0</ele><time>2022-11-01T11:33:21.0000000+00:00</time></trkpt><trkpt lat="39.52250021" lon="-0.47823208"><ele>98.2</ele><time>2022-11-01T11:33:22.0000000+00:00</time></trkpt><trkpt lat="39.52251194" lon="-0.47828288"><ele>98.2</ele><time>2022-11-01T11:33:23.0000000+00:00</time></trkpt><trkpt lat="39.52252217" lon="-0.47833334"><ele>98.2</ele><time>2022-11-01T11:33:24.0000000+00:00</time></trkpt><trkpt lat="39.52253826" lon="-0.4783926"><ele>98.4</ele><time>2022-11-01T11:33:25.0000000+00:00</time></trkpt><trkpt lat="39.52254765" lon="-0.47842906"><ele>98.4</ele><time>2022-11-01T11:33:26.0000000+00:00</time></trkpt><trkpt lat="39.52256274" lon="-0.47847441"><ele>98.4</ele><time>2022-11-01T11:33:27.0000000+00:00</time></trkpt><trkpt lat="39.52258017" lon="-0.47852788"><ele>98.4</ele><time>2022-11-01T11:33:28.0000000+00:00</time></trkpt><trkpt lat="39.52259207" lon="-0.47858253"><ele>98.6</ele><time>2022-11-01T11:33:29.0000000+00:00</time></trkpt><trkpt lat="39.52260263" lon="-0.47863416"><ele>98.6</ele><time>2022-11-01T11:33:30.0000000+00:00</time></trkpt><trkpt lat="39.52261923" lon="-0.47869359"><ele>98.6</ele><time>2022-11-01T11:33:31.0000000+00:00</time></trkpt><trkpt lat="39.52263222" lon="-0.47874279"><ele>98.8</ele><time>2022-11-01T11:33:32.0000000+00:00</time></trkpt><trkpt lat="39.52265007" lon="-0.47879158"><ele>98.8</ele><time>2022-11-01T11:33:33.0000000+00:00</time></trkpt><trkpt lat="39.52266592" lon="-0.47883541"><ele>99.0</ele><time>2022-11-01T11:33:34.0000000+00:00</time></trkpt><trkpt lat="39.52268411" lon="-0.47890121"><ele>99.0</ele><time>2022-11-01T11:33:35.0000000+00:00</time></trkpt><trkpt lat="39.5226955" lon="-0.47895092"><ele>99.2</ele><time>2022-11-01T11:33:36.0000000+00:00</time></trkpt><trkpt lat="39.52270791" lon="-0.47898746"><ele>99.2</ele><time>2022-11-01T11:33:37.0000000+00:00</time></trkpt><trkpt lat="39.52272384" lon="-0.47904312"><ele>99.2</ele><time>2022-11-01T11:33:38.0000000+00:00</time></trkpt><trkpt lat="39.52273591" lon="-0.47909332"><ele>99.4</ele><time>2022-11-01T11:33:39.0000000+00:00</time></trkpt><trkpt lat="39.52274714" lon="-0.47913222"><ele>99.4</ele><time>2022-11-01T11:33:40.0000000+00:00</time></trkpt><trkpt lat="39.52276507" lon="-0.47918972"><ele>99.4</ele><time>2022-11-01T11:33:41.0000000+00:00</time></trkpt><trkpt lat="39.52277471" lon="-0.47923129"><ele>99.4</ele><time>2022-11-01T11:33:42.0000000+00:00</time></trkpt><trkpt lat="39.52278284" lon="-0.47928678"><ele>99.4</ele><time>2022-11-01T11:33:43.0000000+00:00</time></trkpt><trkpt lat="39.52279542" lon="-0.4793628"><ele>99.6</ele><time>2022-11-01T11:33:44.0000000+00:00</time></trkpt><trkpt lat="39.52281034" lon="-0.47941385"><ele>99.6</ele><time>2022-11-01T11:33:45.0000000+00:00</time></trkpt><trkpt lat="39.52283355" lon="-0.47947043"><ele>99.6</ele><time>2022-11-01T11:33:46.0000000+00:00</time></trkpt><trkpt lat="39.52286507" lon="-0.47953606"><ele>99.6</ele><time>2022-11-01T11:33:47.0000000+00:00</time></trkpt><trkpt lat="39.52288318" lon="-0.47957637"><ele>99.6</ele><time>2022-11-01T11:33:48.0000000+00:00</time></trkpt><trkpt lat="39.5228996" lon="-0.47962306"><ele>99.6</ele><time>2022-11-01T11:33:49.0000000+00:00</time></trkpt><trkpt lat="39.52291343" lon="-0.47967721"><ele>99.8</ele><time>2022-11-01T11:33:50.0000000+00:00</time></trkpt><trkpt lat="39.52292299" lon="-0.47973488"><ele>99.8</ele><time>2022-11-01T11:33:51.0000000+00:00</time></trkpt><trkpt lat="39.52292802" lon="-0.47979414"><ele>99.8</ele><time>2022-11-01T11:33:52.0000000+00:00</time></trkpt><trkpt lat="39.52293791" lon="-0.47985633"><ele>99.8</ele><time>2022-11-01T11:33:53.0000000+00:00</time></trkpt><trkpt lat="39.52294948" lon="-0.47991827"><ele>100.0</ele><time>2022-11-01T11:33:54.0000000+00:00</time></trkpt><trkpt lat="39.52297328" lon="-0.47998893"><ele>100.0</ele><time>2022-11-01T11:33:55.0000000+00:00</time></trkpt><trkpt lat="39.52298854" lon="-0.4800326"><ele>100.2</ele><time>2022-11-01T11:33:56.0000000+00:00</time></trkpt><trkpt lat="39.52300463" lon="-0.48010485"><ele>100.2</ele><time>2022-11-01T11:33:57.0000000+00:00</time></trkpt><trkpt lat="39.52302374" lon="-0.48016654"><ele>100.2</ele><time>2022-11-01T11:33:58.0000000+00:00</time></trkpt><trkpt lat="39.52303539" lon="-0.48023335"><ele>100.2</ele><time>2022-11-01T11:33:59.0000000+00:00</time></trkpt><trkpt lat="39.52304344" lon="-0.48029043"><ele>100.4</ele><time>2022-11-01T11:34:00.0000000+00:00</time></trkpt><trkpt lat="39.52305953" lon="-0.48033217"><ele>100.6</ele><time>2022-11-01T11:34:01.0000000+00:00</time></trkpt><trkpt lat="39.52307537" lon="-0.48038757"><ele>100.6</ele><time>2022-11-01T11:34:02.0000000+00:00</time></trkpt><trkpt lat="39.52309448" lon="-0.48045002"><ele>100.8</ele><time>2022-11-01T11:34:03.0000000+00:00</time></trkpt><trkpt lat="39.52311024" lon="-0.48048866"><ele>100.8</ele><time>2022-11-01T11:34:04.0000000+00:00</time></trkpt><trkpt lat="39.52312726" lon="-0.48051355"><ele>101.0</ele><time>2022-11-01T11:34:05.0000000+00:00</time></trkpt><trkpt lat="39.52315182" lon="-0.4805791"><ele>101.0</ele><time>2022-11-01T11:34:06.0000000+00:00</time></trkpt><trkpt lat="39.52317017" lon="-0.48062218"><ele>101.2</ele><time>2022-11-01T11:34:07.0000000+00:00</time></trkpt><trkpt lat="39.5231814" lon="-0.48066342"><ele>101.4</ele><time>2022-11-01T11:34:08.0000000+00:00</time></trkpt><trkpt lat="39.52319096" lon="-0.48072729"><ele>101.4</ele><time>2022-11-01T11:34:09.0000000+00:00</time></trkpt><trkpt lat="39.52320403" lon="-0.48077624"><ele>101.6</ele><time>2022-11-01T11:34:10.0000000+00:00</time></trkpt><trkpt lat="39.52321535" lon="-0.48082301"><ele>101.6</ele><time>2022-11-01T11:34:11.0000000+00:00</time></trkpt><trkpt lat="39.52322298" lon="-0.48086124"><ele>101.6</ele><time>2022-11-01T11:34:12.0000000+00:00</time></trkpt><trkpt lat="39.52323949" lon="-0.4808987"><ele>101.6</ele><time>2022-11-01T11:34:13.0000000+00:00</time></trkpt><trkpt lat="39.52325868" lon="-0.48093592"><ele>101.4</ele><time>2022-11-01T11:34:14.0000000+00:00</time></trkpt><trkpt lat="39.52327478" lon="-0.48097816"><ele>101.4</ele><time>2022-11-01T11:34:15.0000000+00:00</time></trkpt><trkpt lat="39.52328492" lon="-0.48102074"><ele>101.4</ele><time>2022-11-01T11:34:16.0000000+00:00</time></trkpt><trkpt lat="39.52329204" lon="-0.48106726"><ele>101.4</ele><time>2022-11-01T11:34:17.0000000+00:00</time></trkpt><trkpt lat="39.52329858" lon="-0.48109786"><ele>101.4</ele><time>2022-11-01T11:34:18.0000000+00:00</time></trkpt><trkpt lat="39.52330571" lon="-0.48114413"><ele>101.4</ele><time>2022-11-01T11:34:19.0000000+00:00</time></trkpt><trkpt lat="39.52332012" lon="-0.48118805"><ele>101.4</ele><time>2022-11-01T11:34:20.0000000+00:00</time></trkpt><trkpt lat="39.52333203" lon="-0.48122367"><ele>101.4</ele><time>2022-11-01T11:34:21.0000000+00:00</time></trkpt><trkpt lat="39.52334477" lon="-0.48125569"><ele>101.4</ele><time>2022-11-01T11:34:22.0000000+00:00</time></trkpt><trkpt lat="39.52335784" lon="-0.48128251"><ele>101.4</ele><time>2022-11-01T11:34:23.0000000+00:00</time></trkpt><trkpt lat="39.52337159" lon="-0.48130883"><ele>101.4</ele><time>2022-11-01T11:34:24.0000000+00:00</time></trkpt><trkpt lat="39.52339196" lon="-0.48133808"><ele>101.4</ele><time>2022-11-01T11:34:25.0000000+00:00</time></trkpt><trkpt lat="39.52341082" lon="-0.48137999"><ele>101.4</ele><time>2022-11-01T11:34:26.0000000+00:00</time></trkpt><trkpt lat="39.52342616" lon="-0.4814193"><ele>101.4</ele><time>2022-11-01T11:34:27.0000000+00:00</time></trkpt><trkpt lat="39.52344325" lon="-0.48146473"><ele>101.6</ele><time>2022-11-01T11:34:28.0000000+00:00</time></trkpt><trkpt lat="39.52346119" lon="-0.4815105"><ele>101.6</ele><time>2022-11-01T11:34:29.0000000+00:00</time></trkpt><trkpt lat="39.52347846" lon="-0.48155576"><ele>101.8</ele><time>2022-11-01T11:34:30.0000000+00:00</time></trkpt><trkpt lat="39.52349405" lon="-0.48160295"><ele>101.8</ele><time>2022-11-01T11:34:31.0000000+00:00</time></trkpt><trkpt lat="39.52351534" lon="-0.48164444"><ele>101.8</ele><time>2022-11-01T11:34:32.0000000+00:00</time></trkpt><trkpt lat="39.52353026" lon="-0.48167872"><ele>102.0</ele><time>2022-11-01T11:34:33.0000000+00:00</time></trkpt><trkpt lat="39.52354141" lon="-0.4817213"><ele>102.0</ele><time>2022-11-01T11:34:34.0000000+00:00</time></trkpt><trkpt lat="39.52353839" lon="-0.48176573"><ele>102.0</ele><time>2022-11-01T11:34:35.0000000+00:00</time></trkpt><trkpt lat="39.52352406" lon="-0.48178777"><ele>102.0</ele><time>2022-11-01T11:34:36.0000000+00:00</time></trkpt><trkpt lat="39.52350302" lon="-0.48181292"><ele>102.2</ele><time>2022-11-01T11:34:37.0000000+00:00</time></trkpt><trkpt lat="39.52347376" lon="-0.48183798"><ele>102.2</ele><time>2022-11-01T11:34:38.0000000+00:00</time></trkpt><trkpt lat="39.52344904" lon="-0.48185566"><ele>102.4</ele><time>2022-11-01T11:34:39.0000000+00:00</time></trkpt><trkpt lat="39.52340755" lon="-0.48187804"><ele>102.4</ele><time>2022-11-01T11:34:40.0000000+00:00</time></trkpt><trkpt lat="39.52337259" lon="-0.4818985"><ele>102.6</ele><time>2022-11-01T11:34:41.0000000+00:00</time></trkpt><trkpt lat="39.52334728" lon="-0.48191283"><ele>102.6</ele><time>2022-11-01T11:34:42.0000000+00:00</time></trkpt><trkpt lat="39.52331702" lon="-0.48193714"><ele>102.8</ele><time>2022-11-01T11:34:43.0000000+00:00</time></trkpt><trkpt lat="39.52329204" lon="-0.48196086"><ele>102.8</ele><time>2022-11-01T11:34:44.0000000+00:00</time></trkpt><trkpt lat="39.52326858" lon="-0.48199028"><ele>103.0</ele><time>2022-11-01T11:34:45.0000000+00:00</time></trkpt><trkpt lat="39.52324066" lon="-0.48201274"><ele>103.0</ele><time>2022-11-01T11:34:46.0000000+00:00</time></trkpt><trkpt lat="39.52321141" lon="-0.48203772"><ele>103.0</ele><time>2022-11-01T11:34:47.0000000+00:00</time></trkpt><trkpt lat="39.52318124" lon="-0.48205884"><ele>103.2</ele><time>2022-11-01T11:34:48.0000000+00:00</time></trkpt><trkpt lat="39.52315207" lon="-0.48207661"><ele>103.2</ele><time>2022-11-01T11:34:49.0000000+00:00</time></trkpt><trkpt lat="39.52313061" lon="-0.48209497"><ele>103.4</ele><time>2022-11-01T11:34:50.0000000+00:00</time></trkpt><trkpt lat="39.52311653" lon="-0.48211249"><ele>103.6</ele><time>2022-11-01T11:34:51.0000000+00:00</time></trkpt><trkpt lat="39.52310756" lon="-0.48212481"><ele>103.8</ele><time>2022-11-01T11:34:52.0000000+00:00</time></trkpt><trkpt lat="39.52309507" lon="-0.48214191"><ele>104.0</ele><time>2022-11-01T11:34:53.0000000+00:00</time></trkpt><trkpt lat="39.52307629" lon="-0.48215171"><ele>104.2</ele><time>2022-11-01T11:34:54.0000000+00:00</time></trkpt><trkpt lat="39.52305878" lon="-0.48215414"><ele>104.2</ele><time>2022-11-01T11:34:55.0000000+00:00</time></trkpt><trkpt lat="39.52303791" lon="-0.48216269"><ele>104.4</ele><time>2022-11-01T11:34:56.0000000+00:00</time></trkpt><trkpt lat="39.5230193" lon="-0.48216881"><ele>104.6</ele><time>2022-11-01T11:34:57.0000000+00:00</time></trkpt><trkpt lat="39.52300832" lon="-0.48217418"><ele>104.8</ele><time>2022-11-01T11:34:58.0000000+00:00</time></trkpt><trkpt lat="39.52299801" lon="-0.48218231"><ele>105.0</ele><time>2022-11-01T11:34:59.0000000+00:00</time></trkpt><trkpt lat="39.52298778" lon="-0.4821901"><ele>105.2</ele><time>2022-11-01T11:35:00.0000000+00:00</time></trkpt><trkpt lat="39.52297613" lon="-0.48219832"><ele>105.2</ele><time>2022-11-01T11:35:01.0000000+00:00</time></trkpt><trkpt lat="39.52296917" lon="-0.48220712"><ele>105.4</ele><time>2022-11-01T11:35:02.0000000+00:00</time></trkpt><trkpt lat="39.52295912" lon="-0.48221793"><ele>105.6</ele><time>2022-11-01T11:35:03.0000000+00:00</time></trkpt><trkpt lat="39.52295107" lon="-0.48222304"><ele>105.8</ele><time>2022-11-01T11:35:04.0000000+00:00</time></trkpt><trkpt lat="39.52293674" lon="-0.4822295"><ele>105.8</ele><time>2022-11-01T11:35:05.0000000+00:00</time></trkpt><trkpt lat="39.52292534" lon="-0.4822295"><ele>105.8</ele><time>2022-11-01T11:35:06.0000000+00:00</time></trkpt><trkpt lat="39.52291528" lon="-0.48222967"><ele>106.0</ele><time>2022-11-01T11:35:07.0000000+00:00</time></trkpt><trkpt lat="39.52291125" lon="-0.48223059"><ele>106.2</ele><time>2022-11-01T11:35:08.0000000+00:00</time></trkpt><trkpt lat="39.52290421" lon="-0.48223503"><ele>106.4</ele><time>2022-11-01T11:35:09.0000000+00:00</time></trkpt><trkpt lat="39.52289432" lon="-0.48224341"><ele>106.6</ele><time>2022-11-01T11:35:10.0000000+00:00</time></trkpt><trkpt lat="39.52288301" lon="-0.48225104"><ele>106.6</ele><time>2022-11-01T11:35:11.0000000+00:00</time></trkpt><trkpt lat="39.52287018" lon="-0.48225917"><ele>106.8</ele><time>2022-11-01T11:35:12.0000000+00:00</time></trkpt><trkpt lat="39.52285744" lon="-0.48226378"><ele>106.8</ele><time>2022-11-01T11:35:13.0000000+00:00</time></trkpt><trkpt lat="39.52284277" lon="-0.4822751"><ele>107.0</ele><time>2022-11-01T11:35:14.0000000+00:00</time></trkpt><trkpt lat="39.52282936" lon="-0.48228499"><ele>107.0</ele><time>2022-11-01T11:35:15.0000000+00:00</time></trkpt><trkpt lat="39.52281201" lon="-0.48229429"><ele>107.0</ele><time>2022-11-01T11:35:16.0000000+00:00</time></trkpt><trkpt lat="39.52279894" lon="-0.48230477"><ele>107.2</ele><time>2022-11-01T11:35:17.0000000+00:00</time></trkpt><trkpt lat="39.52278997" lon="-0.48232053"><ele>107.2</ele><time>2022-11-01T11:35:18.0000000+00:00</time></trkpt><trkpt lat="39.5227774" lon="-0.48233125"><ele>107.2</ele><time>2022-11-01T11:35:19.0000000+00:00</time></trkpt><trkpt lat="39.52275493" lon="-0.48234542"><ele>107.2</ele><time>2022-11-01T11:35:20.0000000+00:00</time></trkpt><trkpt lat="39.52272903" lon="-0.48236805"><ele>107.4</ele><time>2022-11-01T11:35:21.0000000+00:00</time></trkpt><trkpt lat="39.52271017" lon="-0.48238423"><ele>107.4</ele><time>2022-11-01T11:35:22.0000000+00:00</time></trkpt><trkpt lat="39.52269383" lon="-0.48239764"><ele>107.4</ele><time>2022-11-01T11:35:23.0000000+00:00</time></trkpt><trkpt lat="39.5226748" lon="-0.48241407"><ele>107.6</ele><time>2022-11-01T11:35:24.0000000+00:00</time></trkpt><trkpt lat="39.52265066" lon="-0.48243946"><ele>107.6</ele><time>2022-11-01T11:35:25.0000000+00:00</time></trkpt><trkpt lat="39.52263557" lon="-0.48246503"><ele>107.6</ele><time>2022-11-01T11:35:26.0000000+00:00</time></trkpt><trkpt lat="39.52261596" lon="-0.48248523"><ele>107.8</ele><time>2022-11-01T11:35:27.0000000+00:00</time></trkpt><trkpt lat="39.52258872" lon="-0.48249554"><ele>107.8</ele><time>2022-11-01T11:35:28.0000000+00:00</time></trkpt><trkpt lat="39.52256299" lon="-0.48251281"><ele>108.0</ele><time>2022-11-01T11:35:29.0000000+00:00</time></trkpt><trkpt lat="39.52254086" lon="-0.4825341"><ele>108.0</ele><time>2022-11-01T11:35:30.0000000+00:00</time></trkpt><trkpt lat="39.52252351" lon="-0.48255907"><ele>108.2</ele><time>2022-11-01T11:35:31.0000000+00:00</time></trkpt><trkpt lat="39.52250917" lon="-0.48258548"><ele>108.2</ele><time>2022-11-01T11:35:32.0000000+00:00</time></trkpt><trkpt lat="39.52247984" lon="-0.48260291"><ele>108.2</ele><time>2022-11-01T11:35:33.0000000+00:00</time></trkpt><trkpt lat="39.52244572" lon="-0.48262286"><ele>108.2</ele><time>2022-11-01T11:35:34.0000000+00:00</time></trkpt><trkpt lat="39.52241748" lon="-0.48264097"><ele>108.2</ele><time>2022-11-01T11:35:35.0000000+00:00</time></trkpt><trkpt lat="39.5223878" lon="-0.48266309"><ele>108.2</ele><time>2022-11-01T11:35:36.0000000+00:00</time></trkpt><trkpt lat="39.52236534" lon="-0.48269017"><ele>108.2</ele><time>2022-11-01T11:35:37.0000000+00:00</time></trkpt><trkpt lat="39.52233567" lon="-0.4827097"><ele>108.2</ele><time>2022-11-01T11:35:38.0000000+00:00</time></trkpt><trkpt lat="39.5223091" lon="-0.48273333"><ele>108.4</ele><time>2022-11-01T11:35:39.0000000+00:00</time></trkpt><trkpt lat="39.52228538" lon="-0.48276099"><ele>108.4</ele><time>2022-11-01T11:35:40.0000000+00:00</time></trkpt><trkpt lat="39.52226585" lon="-0.48278689"><ele>108.6</ele><time>2022-11-01T11:35:41.0000000+00:00</time></trkpt><trkpt lat="39.52223911" lon="-0.4828117"><ele>108.8</ele><time>2022-11-01T11:35:42.0000000+00:00</time></trkpt><trkpt lat="39.52221028" lon="-0.48283367"><ele>108.8</ele><time>2022-11-01T11:35:43.0000000+00:00</time></trkpt><trkpt lat="39.52218304" lon="-0.48285294"><ele>109.0</ele><time>2022-11-01T11:35:44.0000000+00:00</time></trkpt><trkpt lat="39.52215378" lon="-0.48287164"><ele>109.0</ele><time>2022-11-01T11:35:45.0000000+00:00</time></trkpt><trkpt lat="39.52212579" lon="-0.48288714"><ele>108.8</ele><time>2022-11-01T11:35:46.0000000+00:00</time></trkpt><trkpt lat="39.52209528" lon="-0.48291287"><ele>108.8</ele><time>2022-11-01T11:35:47.0000000+00:00</time></trkpt><trkpt lat="39.52205798" lon="-0.48294162"><ele>108.6</ele><time>2022-11-01T11:35:48.0000000+00:00</time></trkpt><trkpt lat="39.52202864" lon="-0.48296417"><ele>108.6</ele><time>2022-11-01T11:35:49.0000000+00:00</time></trkpt><trkpt lat="39.52199981" lon="-0.48298596"><ele>108.6</ele><time>2022-11-01T11:35:50.0000000+00:00</time></trkpt><trkpt lat="39.5219677" lon="-0.48301354"><ele>108.6</ele><time>2022-11-01T11:35:51.0000000+00:00</time></trkpt><trkpt lat="39.52192898" lon="-0.48304061"><ele>108.4</ele><time>2022-11-01T11:35:52.0000000+00:00</time></trkpt><trkpt lat="39.52188556" lon="-0.48307288"><ele>108.4</ele><time>2022-11-01T11:35:53.0000000+00:00</time></trkpt><trkpt lat="39.52184533" lon="-0.48311018"><ele>108.2</ele><time>2022-11-01T11:35:54.0000000+00:00</time></trkpt><trkpt lat="39.52180761" lon="-0.4831443"><ele>108.2</ele><time>2022-11-01T11:35:55.0000000+00:00</time></trkpt><trkpt lat="39.52176645" lon="-0.48316584"><ele>108.2</ele><time>2022-11-01T11:35:56.0000000+00:00</time></trkpt><trkpt lat="39.52172387" lon="-0.48320121"><ele>108.0</ele><time>2022-11-01T11:35:57.0000000+00:00</time></trkpt><trkpt lat="39.52168012" lon="-0.4832256"><ele>108.0</ele><time>2022-11-01T11:35:58.0000000+00:00</time></trkpt><trkpt lat="39.5216455" lon="-0.48326123"><ele>108.0</ele><time>2022-11-01T11:35:59.0000000+00:00</time></trkpt><trkpt lat="39.52159882" lon="-0.48329953"><ele>108.0</ele><time>2022-11-01T11:36:00.0000000+00:00</time></trkpt><trkpt lat="39.52156328" lon="-0.48332593"><ele>107.8</ele><time>2022-11-01T11:36:01.0000000+00:00</time></trkpt><trkpt lat="39.52152631" lon="-0.48336173"><ele>107.8</ele><time>2022-11-01T11:36:02.0000000+00:00</time></trkpt><trkpt lat="39.52148826" lon="-0.48339441"><ele>107.8</ele><time>2022-11-01T11:36:03.0000000+00:00</time></trkpt><trkpt lat="39.52144995" lon="-0.48342878"><ele>107.8</ele><time>2022-11-01T11:36:04.0000000+00:00</time></trkpt><trkpt lat="39.52141215" lon="-0.48346013"><ele>107.6</ele><time>2022-11-01T11:36:05.0000000+00:00</time></trkpt><trkpt lat="39.52137862" lon="-0.48348871"><ele>107.6</ele><time>2022-11-01T11:36:06.0000000+00:00</time></trkpt><trkpt lat="39.52134937" lon="-0.48350497"><ele>107.6</ele><time>2022-11-01T11:36:07.0000000+00:00</time></trkpt><trkpt lat="39.52132699" lon="-0.48352517"><ele>107.6</ele><time>2022-11-01T11:36:08.0000000+00:00</time></trkpt><trkpt lat="39.52131475" lon="-0.48354303"><ele>107.6</ele><time>2022-11-01T11:36:09.0000000+00:00</time></trkpt><trkpt lat="39.52130704" lon="-0.48355694"><ele>107.6</ele><time>2022-11-01T11:36:10.0000000+00:00</time></trkpt><trkpt lat="39.5212974" lon="-0.48356859"><ele>107.6</ele><time>2022-11-01T11:36:11.0000000+00:00</time></trkpt><trkpt lat="39.52129087" lon="-0.48358443"><ele>107.6</ele><time>2022-11-01T11:36:12.0000000+00:00</time></trkpt><trkpt lat="39.52128592" lon="-0.48359902"><ele>107.6</ele><time>2022-11-01T11:36:13.0000000+00:00</time></trkpt><trkpt lat="39.52128131" lon="-0.48361234"><ele>107.6</ele><time>2022-11-01T11:36:14.0000000+00:00</time></trkpt><trkpt lat="39.52127427" lon="-0.48363003"><ele>107.4</ele><time>2022-11-01T11:36:15.0000000+00:00</time></trkpt><trkpt lat="39.52127511" lon="-0.4836514"><ele>107.4</ele><time>2022-11-01T11:36:16.0000000+00:00</time></trkpt><trkpt lat="39.52128131" lon="-0.48367194"><ele>107.2</ele><time>2022-11-01T11:36:17.0000000+00:00</time></trkpt><trkpt lat="39.52128273" lon="-0.48367957"><ele>107.2</ele><time>2022-11-01T11:36:18.0000000+00:00</time></trkpt><trkpt lat="39.52128114" lon="-0.48368309"><ele>107.2</ele><time>2022-11-01T11:36:19.0000000+00:00</time></trkpt><trkpt lat="39.52127636" lon="-0.48369859"><ele>107.0</ele><time>2022-11-01T11:36:20.0000000+00:00</time></trkpt><trkpt lat="39.52127041" lon="-0.48370823"><ele>107.0</ele><time>2022-11-01T11:36:21.0000000+00:00</time></trkpt><trkpt lat="39.52126237" lon="-0.48371318"><ele>107.0</ele><time>2022-11-01T11:36:22.0000000+00:00</time></trkpt><trkpt lat="39.5212508" lon="-0.48372382"><ele>107.0</ele><time>2022-11-01T11:36:23.0000000+00:00</time></trkpt><trkpt lat="39.52124292" lon="-0.4837338"><ele>107.0</ele><time>2022-11-01T11:36:24.0000000+00:00</time></trkpt><trkpt lat="39.52123521" lon="-0.48374411"><ele>107.0</ele><time>2022-11-01T11:36:25.0000000+00:00</time></trkpt><trkpt lat="39.52122884" lon="-0.48375953"><ele>107.0</ele><time>2022-11-01T11:36:26.0000000+00:00</time></trkpt><trkpt lat="39.52122431" lon="-0.48377185"><ele>107.2</ele><time>2022-11-01T11:36:27.0000000+00:00</time></trkpt><trkpt lat="39.5212171" lon="-0.48379121"><ele>107.2</ele><time>2022-11-01T11:36:28.0000000+00:00</time></trkpt><trkpt lat="39.52121124" lon="-0.48381778"><ele>107.4</ele><time>2022-11-01T11:36:29.0000000+00:00</time></trkpt><trkpt lat="39.52120403" lon="-0.48384159"><ele>107.4</ele><time>2022-11-01T11:36:30.0000000+00:00</time></trkpt><trkpt lat="39.52118785" lon="-0.4838607"><ele>107.4</ele><time>2022-11-01T11:36:31.0000000+00:00</time></trkpt><trkpt lat="39.52117452" lon="-0.48388065"><ele>107.6</ele><time>2022-11-01T11:36:32.0000000+00:00</time></trkpt><trkpt lat="39.52115567" lon="-0.48390965"><ele>107.6</ele><time>2022-11-01T11:36:33.0000000+00:00</time></trkpt><trkpt lat="39.52113739" lon="-0.48393614"><ele>107.6</ele><time>2022-11-01T11:36:34.0000000+00:00</time></trkpt><trkpt lat="39.52111409" lon="-0.48396388"><ele>107.8</ele><time>2022-11-01T11:36:35.0000000+00:00</time></trkpt><trkpt lat="39.52109238" lon="-0.48398953"><ele>107.8</ele><time>2022-11-01T11:36:36.0000000+00:00</time></trkpt><trkpt lat="39.52108341" lon="-0.48401543"><ele>107.8</ele><time>2022-11-01T11:36:37.0000000+00:00</time></trkpt><trkpt lat="39.52108635" lon="-0.4840389"><ele>108.0</ele><time>2022-11-01T11:36:38.0000000+00:00</time></trkpt><trkpt lat="39.52110487" lon="-0.48406874"><ele>108.0</ele><time>2022-11-01T11:36:39.0000000+00:00</time></trkpt><trkpt lat="39.52112398" lon="-0.48410595"><ele>108.0</ele><time>2022-11-01T11:36:40.0000000+00:00</time></trkpt><trkpt lat="39.52113815" lon="-0.48414644"><ele>107.8</ele><time>2022-11-01T11:36:41.0000000+00:00</time></trkpt><trkpt lat="39.52115751" lon="-0.48419355"><ele>107.8</ele><time>2022-11-01T11:36:42.0000000+00:00</time></trkpt><trkpt lat="39.52116438" lon="-0.48423328"><ele>107.6</ele><time>2022-11-01T11:36:43.0000000+00:00</time></trkpt><trkpt lat="39.52116061" lon="-0.48427426"><ele>107.6</ele><time>2022-11-01T11:36:44.0000000+00:00</time></trkpt><trkpt lat="39.52116363" lon="-0.48432087"><ele>107.6</ele><time>2022-11-01T11:36:45.0000000+00:00</time></trkpt><trkpt lat="39.5211498" lon="-0.48434693"><ele>107.6</ele><time>2022-11-01T11:36:46.0000000+00:00</time></trkpt><trkpt lat="39.52113161" lon="-0.48437568"><ele>107.6</ele><time>2022-11-01T11:36:47.0000000+00:00</time></trkpt><trkpt lat="39.52111359" lon="-0.48440477"><ele>107.8</ele><time>2022-11-01T11:36:48.0000000+00:00</time></trkpt><trkpt lat="39.5210928" lon="-0.48443327"><ele>107.8</ele><time>2022-11-01T11:36:49.0000000+00:00</time></trkpt><trkpt lat="39.52106724" lon="-0.48446361"><ele>107.8</ele><time>2022-11-01T11:36:50.0000000+00:00</time></trkpt><trkpt lat="39.52104569" lon="-0.48449253"><ele>108.0</ele><time>2022-11-01T11:36:51.0000000+00:00</time></trkpt><trkpt lat="39.52102633" lon="-0.48451876"><ele>108.0</ele><time>2022-11-01T11:36:52.0000000+00:00</time></trkpt><trkpt lat="39.52101125" lon="-0.48454726"><ele>108.2</ele><time>2022-11-01T11:36:53.0000000+00:00</time></trkpt><trkpt lat="39.52099683" lon="-0.48457048"><ele>108.2</ele><time>2022-11-01T11:36:54.0000000+00:00</time></trkpt><trkpt lat="39.52097906" lon="-0.48459185"><ele>108.2</ele><time>2022-11-01T11:36:55.0000000+00:00</time></trkpt><trkpt lat="39.52096188" lon="-0.48461918"><ele>108.2</ele><time>2022-11-01T11:36:56.0000000+00:00</time></trkpt><trkpt lat="39.52094637" lon="-0.48464231"><ele>108.4</ele><time>2022-11-01T11:36:57.0000000+00:00</time></trkpt><trkpt lat="39.52092575" lon="-0.48466888"><ele>108.4</ele><time>2022-11-01T11:36:58.0000000+00:00</time></trkpt><trkpt lat="39.52091016" lon="-0.48469596"><ele>108.4</ele><time>2022-11-01T11:36:59.0000000+00:00</time></trkpt><trkpt lat="39.52089331" lon="-0.48472362"><ele>108.4</ele><time>2022-11-01T11:37:00.0000000+00:00</time></trkpt><trkpt lat="39.52087244" lon="-0.48475714"><ele>108.4</ele><time>2022-11-01T11:37:01.0000000+00:00</time></trkpt><trkpt lat="39.52085174" lon="-0.48478799"><ele>108.6</ele><time>2022-11-01T11:37:02.0000000+00:00</time></trkpt><trkpt lat="39.52083539" lon="-0.48480978"><ele>108.6</ele><time>2022-11-01T11:37:03.0000000+00:00</time></trkpt><trkpt lat="39.52080689" lon="-0.48484524"><ele>108.6</ele><time>2022-11-01T11:37:04.0000000+00:00</time></trkpt><trkpt lat="39.52078284" lon="-0.48487617"><ele>108.6</ele><time>2022-11-01T11:37:05.0000000+00:00</time></trkpt><trkpt lat="39.52075979" lon="-0.48490408"><ele>108.8</ele><time>2022-11-01T11:37:06.0000000+00:00</time></trkpt><trkpt lat="39.52074193" lon="-0.48492604"><ele>108.8</ele><time>2022-11-01T11:37:07.0000000+00:00</time></trkpt><trkpt lat="39.52071645" lon="-0.48495504"><ele>108.8</ele><time>2022-11-01T11:37:08.0000000+00:00</time></trkpt><trkpt lat="39.52068913" lon="-0.48499066"><ele>109.0</ele><time>2022-11-01T11:37:09.0000000+00:00</time></trkpt><trkpt lat="39.52066289" lon="-0.4850283"><ele>109.0</ele><time>2022-11-01T11:37:10.0000000+00:00</time></trkpt><trkpt lat="39.52064353" lon="-0.48507029"><ele>109.2</ele><time>2022-11-01T11:37:11.0000000+00:00</time></trkpt><trkpt lat="39.52062517" lon="-0.48511229"><ele>109.2</ele><time>2022-11-01T11:37:12.0000000+00:00</time></trkpt><trkpt lat="39.52060556" lon="-0.48515026"><ele>109.4</ele><time>2022-11-01T11:37:13.0000000+00:00</time></trkpt><trkpt lat="39.52058444" lon="-0.48518026"><ele>109.4</ele><time>2022-11-01T11:37:14.0000000+00:00</time></trkpt><trkpt lat="39.52056457" lon="-0.48520465"><ele>109.6</ele><time>2022-11-01T11:37:15.0000000+00:00</time></trkpt><trkpt lat="39.52054454" lon="-0.48522896"><ele>109.6</ele><time>2022-11-01T11:37:16.0000000+00:00</time></trkpt><trkpt lat="39.52052803" lon="-0.48525369"><ele>109.6</ele><time>2022-11-01T11:37:17.0000000+00:00</time></trkpt><trkpt lat="39.52051554" lon="-0.48527515"><ele>109.6</ele><time>2022-11-01T11:37:18.0000000+00:00</time></trkpt><trkpt lat="39.52050389" lon="-0.48529375"><ele>109.6</ele><time>2022-11-01T11:37:19.0000000+00:00</time></trkpt><trkpt lat="39.52049291" lon="-0.48531052"><ele>109.6</ele><time>2022-11-01T11:37:20.0000000+00:00</time></trkpt><trkpt lat="39.52048662" lon="-0.48532351"><ele>109.6</ele><time>2022-11-01T11:37:21.0000000+00:00</time></trkpt><trkpt lat="39.52047681" lon="-0.48534153"><ele>109.6</ele><time>2022-11-01T11:37:22.0000000+00:00</time></trkpt><trkpt lat="39.52046676" lon="-0.48535486"><ele>109.6</ele><time>2022-11-01T11:37:23.0000000+00:00</time></trkpt><trkpt lat="39.5204515" lon="-0.48536374"><ele>109.6</ele><time>2022-11-01T11:37:24.0000000+00:00</time></trkpt><trkpt lat="39.52043147" lon="-0.48537246"><ele>109.6</ele><time>2022-11-01T11:37:25.0000000+00:00</time></trkpt><trkpt lat="39.52041236" lon="-0.48539132"><ele>109.6</ele><time>2022-11-01T11:37:26.0000000+00:00</time></trkpt><trkpt lat="39.52039543" lon="-0.48541571"><ele>109.8</ele><time>2022-11-01T11:37:27.0000000+00:00</time></trkpt><trkpt lat="39.5203769" lon="-0.48544111"><ele>109.8</ele><time>2022-11-01T11:37:28.0000000+00:00</time></trkpt><trkpt lat="39.52035695" lon="-0.48546852"><ele>109.8</ele><time>2022-11-01T11:37:29.0000000+00:00</time></trkpt><trkpt lat="39.52034036" lon="-0.48549232"><ele>109.8</ele><time>2022-11-01T11:37:30.0000000+00:00</time></trkpt><trkpt lat="39.52032108" lon="-0.48552241"><ele>109.8</ele><time>2022-11-01T11:37:31.0000000+00:00</time></trkpt><trkpt lat="39.52029811" lon="-0.48555854"><ele>109.8</ele><time>2022-11-01T11:37:32.0000000+00:00</time></trkpt><trkpt lat="39.52028479" lon="-0.48558603"><ele>109.8</ele><time>2022-11-01T11:37:33.0000000+00:00</time></trkpt><trkpt lat="39.52026467" lon="-0.48562618"><ele>109.6</ele><time>2022-11-01T11:37:34.0000000+00:00</time></trkpt><trkpt lat="39.52023542" lon="-0.48567513"><ele>109.6</ele><time>2022-11-01T11:37:35.0000000+00:00</time></trkpt><trkpt lat="39.52019577" lon="-0.48572869"><ele>109.2</ele><time>2022-11-01T11:37:36.0000000+00:00</time></trkpt><trkpt lat="39.52015445" lon="-0.48578778"><ele>109.0</ele><time>2022-11-01T11:37:37.0000000+00:00</time></trkpt><trkpt lat="39.52011606" lon="-0.48585056"><ele>108.8</ele><time>2022-11-01T11:37:38.0000000+00:00</time></trkpt><trkpt lat="39.52007993" lon="-0.48592248"><ele>108.4</ele><time>2022-11-01T11:37:39.0000000+00:00</time></trkpt><trkpt lat="39.520034" lon="-0.4860089"><ele>108.0</ele><time>2022-11-01T11:37:40.0000000+00:00</time></trkpt><trkpt lat="39.51999318" lon="-0.48608115"><ele>108.0</ele><time>2022-11-01T11:37:41.0000000+00:00</time></trkpt><trkpt lat="39.51995445" lon="-0.48615382"><ele>107.8</ele><time>2022-11-01T11:37:42.0000000+00:00</time></trkpt><trkpt lat="39.51992093" lon="-0.4862285"><ele>107.4</ele><time>2022-11-01T11:37:43.0000000+00:00</time></trkpt><trkpt lat="39.51988681" lon="-0.48629799"><ele>107.2</ele><time>2022-11-01T11:37:44.0000000+00:00</time></trkpt><trkpt lat="39.51985295" lon="-0.48636789"><ele>107.2</ele><time>2022-11-01T11:37:45.0000000+00:00</time></trkpt><trkpt lat="39.5198237" lon="-0.48643353"><ele>107.0</ele><time>2022-11-01T11:37:46.0000000+00:00</time></trkpt><trkpt lat="39.51980358" lon="-0.48647569"><ele>106.8</ele><time>2022-11-01T11:37:47.0000000+00:00</time></trkpt><trkpt lat="39.51978288" lon="-0.48651869"><ele>106.8</ele><time>2022-11-01T11:37:48.0000000+00:00</time></trkpt><trkpt lat="39.51976452" lon="-0.4865497"><ele>106.6</ele><time>2022-11-01T11:37:49.0000000+00:00</time></trkpt><trkpt lat="39.51974407" lon="-0.48658591"><ele>106.6</ele><time>2022-11-01T11:37:50.0000000+00:00</time></trkpt><trkpt lat="39.51972496" lon="-0.48662388"><ele>106.4</ele><time>2022-11-01T11:37:51.0000000+00:00</time></trkpt><trkpt lat="39.51970677" lon="-0.48666243"><ele>106.4</ele><time>2022-11-01T11:37:52.0000000+00:00</time></trkpt><trkpt lat="39.51968858" lon="-0.48670183"><ele>106.4</ele><time>2022-11-01T11:37:53.0000000+00:00</time></trkpt><trkpt lat="39.51966989" lon="-0.4867398"><ele>106.4</ele><time>2022-11-01T11:37:54.0000000+00:00</time></trkpt><trkpt lat="39.5196429" lon="-0.48678481"><ele>106.4</ele><time>2022-11-01T11:37:55.0000000+00:00</time></trkpt><trkpt lat="39.51961574" lon="-0.48682018"><ele>106.4</ele><time>2022-11-01T11:37:56.0000000+00:00</time></trkpt><trkpt lat="39.51959403" lon="-0.48685589"><ele>106.4</ele><time>2022-11-01T11:37:57.0000000+00:00</time></trkpt><trkpt lat="39.51957249" lon="-0.4868931"><ele>106.6</ele><time>2022-11-01T11:37:58.0000000+00:00</time></trkpt><trkpt lat="39.5195538" lon="-0.48692839"><ele>106.6</ele><time>2022-11-01T11:37:59.0000000+00:00</time></trkpt><trkpt lat="39.51953997" lon="-0.4869563"><ele>106.6</ele><time>2022-11-01T11:38:00.0000000+00:00</time></trkpt><trkpt lat="39.51951725" lon="-0.48699277"><ele>106.6</ele><time>2022-11-01T11:38:01.0000000+00:00</time></trkpt><trkpt lat="39.51950158" lon="-0.48703082"><ele>106.6</ele><time>2022-11-01T11:38:02.0000000+00:00</time></trkpt><trkpt lat="39.5194885" lon="-0.48707105"><ele>106.6</ele><time>2022-11-01T11:38:03.0000000+00:00</time></trkpt><trkpt lat="39.51946948" lon="-0.48710944"><ele>106.6</ele><time>2022-11-01T11:38:04.0000000+00:00</time></trkpt><trkpt lat="39.51944651" lon="-0.48714548"><ele>106.6</ele><time>2022-11-01T11:38:05.0000000+00:00</time></trkpt><trkpt lat="39.51942564" lon="-0.48718169"><ele>106.6</ele><time>2022-11-01T11:38:06.0000000+00:00</time></trkpt><trkpt lat="39.51940402" lon="-0.48722503"><ele>106.4</ele><time>2022-11-01T11:38:07.0000000+00:00</time></trkpt><trkpt lat="39.51938038" lon="-0.48727104"><ele>106.2</ele><time>2022-11-01T11:38:08.0000000+00:00</time></trkpt><trkpt lat="39.51934517" lon="-0.4873267"><ele>106.0</ele><time>2022-11-01T11:38:09.0000000+00:00</time></trkpt><trkpt lat="39.51931911" lon="-0.48737649"><ele>105.8</ele><time>2022-11-01T11:38:10.0000000+00:00</time></trkpt><trkpt lat="39.51929438" lon="-0.48742829"><ele>105.6</ele><time>2022-11-01T11:38:11.0000000+00:00</time></trkpt><trkpt lat="39.51926546" lon="-0.48748269"><ele>105.0</ele><time>2022-11-01T11:38:12.0000000+00:00</time></trkpt><trkpt lat="39.51923797" lon="-0.4875391"><ele>104.6</ele><time>2022-11-01T11:38:13.0000000+00:00</time></trkpt><trkpt lat="39.5192197" lon="-0.48758159"><ele>104.2</ele><time>2022-11-01T11:38:14.0000000+00:00</time></trkpt><trkpt lat="39.51919966" lon="-0.48762501"><ele>103.4</ele><time>2022-11-01T11:38:15.0000000+00:00</time></trkpt><trkpt lat="39.51918122" lon="-0.48766424"><ele>103.0</ele><time>2022-11-01T11:38:16.0000000+00:00</time></trkpt><trkpt lat="39.51916161" lon="-0.48770506"><ele>102.4</ele><time>2022-11-01T11:38:17.0000000+00:00</time></trkpt><trkpt lat="39.51913538" lon="-0.48775007"><ele>101.8</ele><time>2022-11-01T11:38:18.0000000+00:00</time></trkpt><trkpt lat="39.51910579" lon="-0.48779944"><ele>101.6</ele><time>2022-11-01T11:38:19.0000000+00:00</time></trkpt><trkpt lat="39.51907544" lon="-0.48785074"><ele>101.4</ele><time>2022-11-01T11:38:20.0000000+00:00</time></trkpt><trkpt lat="39.51904485" lon="-0.48790681"><ele>101.2</ele><time>2022-11-01T11:38:21.0000000+00:00</time></trkpt><trkpt lat="39.51900671" lon="-0.48797982"><ele>101.0</ele><time>2022-11-01T11:38:22.0000000+00:00</time></trkpt><trkpt lat="39.51898442" lon="-0.48802919"><ele>100.6</ele><time>2022-11-01T11:38:23.0000000+00:00</time></trkpt><trkpt lat="39.51895676" lon="-0.48808409"><ele>100.4</ele><time>2022-11-01T11:38:24.0000000+00:00</time></trkpt><trkpt lat="39.51893396" lon="-0.48812449"><ele>100.0</ele><time>2022-11-01T11:38:25.0000000+00:00</time></trkpt><trkpt lat="39.51891761" lon="-0.48816112"><ele>99.4</ele><time>2022-11-01T11:38:26.0000000+00:00</time></trkpt><trkpt lat="39.5189011" lon="-0.48819926"><ele>99.0</ele><time>2022-11-01T11:38:27.0000000+00:00</time></trkpt><trkpt lat="39.51888375" lon="-0.48824142"><ele>98.6</ele><time>2022-11-01T11:38:28.0000000+00:00</time></trkpt><trkpt lat="39.51886213" lon="-0.4882809"><ele>98.4</ele><time>2022-11-01T11:38:29.0000000+00:00</time></trkpt><trkpt lat="39.5188384" lon="-0.48832054"><ele>98.2</ele><time>2022-11-01T11:38:30.0000000+00:00</time></trkpt><trkpt lat="39.51881435" lon="-0.48836153"><ele>98.2</ele><time>2022-11-01T11:38:31.0000000+00:00</time></trkpt><trkpt lat="39.51878753" lon="-0.48841157"><ele>98.2</ele><time>2022-11-01T11:38:32.0000000+00:00</time></trkpt><trkpt lat="39.51877202" lon="-0.48844342"><ele>98.0</ele><time>2022-11-01T11:38:33.0000000+00:00</time></trkpt><trkpt lat="39.51875769" lon="-0.4884824"><ele>97.8</ele><time>2022-11-01T11:38:34.0000000+00:00</time></trkpt><trkpt lat="39.51874344" lon="-0.48851878"><ele>97.8</ele><time>2022-11-01T11:38:35.0000000+00:00</time></trkpt><trkpt lat="39.51872349" lon="-0.488558"><ele>97.4</ele><time>2022-11-01T11:38:36.0000000+00:00</time></trkpt><trkpt lat="39.51870429" lon="-0.48859472"><ele>97.2</ele><time>2022-11-01T11:38:37.0000000+00:00</time></trkpt><trkpt lat="39.51868711" lon="-0.48863193"><ele>97.0</ele><time>2022-11-01T11:38:38.0000000+00:00</time></trkpt><trkpt lat="39.51867211" lon="-0.48867049"><ele>96.8</ele><time>2022-11-01T11:38:39.0000000+00:00</time></trkpt><trkpt lat="39.51864797" lon="-0.48871005"><ele>96.4</ele><time>2022-11-01T11:38:40.0000000+00:00</time></trkpt><trkpt lat="39.51862626" lon="-0.48875104"><ele>96.4</ele><time>2022-11-01T11:38:41.0000000+00:00</time></trkpt><trkpt lat="39.51860304" lon="-0.48880334"><ele>96.2</ele><time>2022-11-01T11:38:42.0000000+00:00</time></trkpt><trkpt lat="39.51858452" lon="-0.48883913"><ele>96.0</ele><time>2022-11-01T11:38:43.0000000+00:00</time></trkpt><trkpt lat="39.51856021" lon="-0.48888473"><ele>96.0</ele><time>2022-11-01T11:38:44.0000000+00:00</time></trkpt><trkpt lat="39.51853179" lon="-0.48894022"><ele>95.8</ele><time>2022-11-01T11:38:45.0000000+00:00</time></trkpt><trkpt lat="39.51850883" lon="-0.48898975"><ele>95.8</ele><time>2022-11-01T11:38:46.0000000+00:00</time></trkpt><trkpt lat="39.51849097" lon="-0.48902739"><ele>95.6</ele><time>2022-11-01T11:38:47.0000000+00:00</time></trkpt><trkpt lat="39.51846725" lon="-0.48907617"><ele>95.4</ele><time>2022-11-01T11:38:48.0000000+00:00</time></trkpt><trkpt lat="39.51844169" lon="-0.48912378"><ele>95.4</ele><time>2022-11-01T11:38:49.0000000+00:00</time></trkpt><trkpt lat="39.51841411" lon="-0.48917156"><ele>95.2</ele><time>2022-11-01T11:38:50.0000000+00:00</time></trkpt><trkpt lat="39.51838561" lon="-0.48921984"><ele>95.2</ele><time>2022-11-01T11:38:51.0000000+00:00</time></trkpt><trkpt lat="39.51835427" lon="-0.48926745"><ele>95.0</ele><time>2022-11-01T11:38:52.0000000+00:00</time></trkpt><trkpt lat="39.51832283" lon="-0.48931656"><ele>95.0</ele><time>2022-11-01T11:38:53.0000000+00:00</time></trkpt><trkpt lat="39.51829869" lon="-0.48936208"><ele>95.0</ele><time>2022-11-01T11:38:54.0000000+00:00</time></trkpt><trkpt lat="39.51827942" lon="-0.48939846"><ele>94.8</ele><time>2022-11-01T11:38:55.0000000+00:00</time></trkpt><trkpt lat="39.51826525" lon="-0.48942578"><ele>94.6</ele><time>2022-11-01T11:38:56.0000000+00:00</time></trkpt><trkpt lat="39.51825226" lon="-0.48944472"><ele>94.4</ele><time>2022-11-01T11:38:57.0000000+00:00</time></trkpt><trkpt lat="39.51824379" lon="-0.48945746"><ele>94.4</ele><time>2022-11-01T11:38:58.0000000+00:00</time></trkpt><trkpt lat="39.51824086" lon="-0.48946652"><ele>94.2</ele><time>2022-11-01T11:38:59.0000000+00:00</time></trkpt><trkpt lat="39.51823608" lon="-0.48947909"><ele>94.2</ele><time>2022-11-01T11:39:00.0000000+00:00</time></trkpt><trkpt lat="39.51822787" lon="-0.48949133"><ele>94.0</ele><time>2022-11-01T11:39:01.0000000+00:00</time></trkpt><trkpt lat="39.51821487" lon="-0.4894961"><ele>94.0</ele><time>2022-11-01T11:39:02.0000000+00:00</time></trkpt><trkpt lat="39.51820088" lon="-0.48949485"><ele>93.8</ele><time>2022-11-01T11:39:03.0000000+00:00</time></trkpt><trkpt lat="39.51818512" lon="-0.48949108"><ele>93.8</ele><time>2022-11-01T11:39:04.0000000+00:00</time></trkpt><trkpt lat="39.51817229" lon="-0.48948554"><ele>93.8</ele><time>2022-11-01T11:39:05.0000000+00:00</time></trkpt><trkpt lat="39.51815872" lon="-0.48947834"><ele>93.8</ele><time>2022-11-01T11:39:06.0000000+00:00</time></trkpt><trkpt lat="39.51814849" lon="-0.48947507"><ele>93.8</ele><time>2022-11-01T11:39:07.0000000+00:00</time></trkpt><trkpt lat="39.51813491" lon="-0.48946509"><ele>93.8</ele><time>2022-11-01T11:39:08.0000000+00:00</time></trkpt><trkpt lat="39.51812284" lon="-0.48945009"><ele>93.8</ele><time>2022-11-01T11:39:09.0000000+00:00</time></trkpt><trkpt lat="39.51811454" lon="-0.48943634"><ele>93.8</ele><time>2022-11-01T11:39:10.0000000+00:00</time></trkpt><trkpt lat="39.51810507" lon="-0.48942209"><ele>93.8</ele><time>2022-11-01T11:39:11.0000000+00:00</time></trkpt><trkpt lat="39.51808948" lon="-0.4893946"><ele>93.8</ele><time>2022-11-01T11:39:12.0000000+00:00</time></trkpt><trkpt lat="39.51807188" lon="-0.4893594"><ele>93.8</ele><time>2022-11-01T11:39:13.0000000+00:00</time></trkpt><trkpt lat="39.51805118" lon="-0.48932679"><ele>94.0</ele><time>2022-11-01T11:39:14.0000000+00:00</time></trkpt><trkpt lat="39.51802972" lon="-0.48929821"><ele>94.0</ele><time>2022-11-01T11:39:15.0000000+00:00</time></trkpt><trkpt lat="39.51800692" lon="-0.48927055"><ele>94.0</ele><time>2022-11-01T11:39:16.0000000+00:00</time></trkpt><trkpt lat="39.51798303" lon="-0.48924029"><ele>94.0</ele><time>2022-11-01T11:39:17.0000000+00:00</time></trkpt><trkpt lat="39.51795738" lon="-0.48920374"><ele>94.0</ele><time>2022-11-01T11:39:18.0000000+00:00</time></trkpt><trkpt lat="39.51793257" lon="-0.48916267"><ele>94.0</ele><time>2022-11-01T11:39:19.0000000+00:00</time></trkpt><trkpt lat="39.51791271" lon="-0.48911699"><ele>94.0</ele><time>2022-11-01T11:39:20.0000000+00:00</time></trkpt><trkpt lat="39.51788865" lon="-0.48907056"><ele>93.8</ele><time>2022-11-01T11:39:21.0000000+00:00</time></trkpt><trkpt lat="39.51785973" lon="-0.48902462"><ele>93.8</ele><time>2022-11-01T11:39:22.0000000+00:00</time></trkpt><trkpt lat="39.51782964" lon="-0.48898405"><ele>93.8</ele><time>2022-11-01T11:39:23.0000000+00:00</time></trkpt><trkpt lat="39.51779737" lon="-0.48895011"><ele>93.8</ele><time>2022-11-01T11:39:24.0000000+00:00</time></trkpt><trkpt lat="39.51777063" lon="-0.48891415"><ele>93.8</ele><time>2022-11-01T11:39:25.0000000+00:00</time></trkpt><trkpt lat="39.51774247" lon="-0.48887283"><ele>93.8</ele><time>2022-11-01T11:39:26.0000000+00:00</time></trkpt><trkpt lat="39.51770383" lon="-0.48882346"><ele>93.8</ele><time>2022-11-01T11:39:27.0000000+00:00</time></trkpt><trkpt lat="39.51766997" lon="-0.48878951"><ele>93.6</ele><time>2022-11-01T11:39:28.0000000+00:00</time></trkpt><trkpt lat="39.51764264" lon="-0.48876386"><ele>93.6</ele><time>2022-11-01T11:39:29.0000000+00:00</time></trkpt><trkpt lat="39.51761456" lon="-0.48873142"><ele>93.4</ele><time>2022-11-01T11:39:30.0000000+00:00</time></trkpt><trkpt lat="39.51759319" lon="-0.48870963"><ele>93.4</ele><time>2022-11-01T11:39:31.0000000+00:00</time></trkpt><trkpt lat="39.51757944" lon="-0.48869094"><ele>93.4</ele><time>2022-11-01T11:39:32.0000000+00:00</time></trkpt><trkpt lat="39.51757073" lon="-0.48867174"><ele>93.4</ele><time>2022-11-01T11:39:33.0000000+00:00</time></trkpt><trkpt lat="39.51756519" lon="-0.48865356"><ele>93.2</ele><time>2022-11-01T11:39:34.0000000+00:00</time></trkpt><trkpt lat="39.51756737" lon="-0.48864115"><ele>93.2</ele><time>2022-11-01T11:39:35.0000000+00:00</time></trkpt><trkpt lat="39.51757483" lon="-0.48863855"><ele>93.2</ele><time>2022-11-01T11:39:36.0000000+00:00</time></trkpt><trkpt lat="39.51758263" lon="-0.48864434"><ele>93.0</ele><time>2022-11-01T11:39:37.0000000+00:00</time></trkpt><trkpt lat="39.51758791" lon="-0.488658"><ele>93.0</ele><time>2022-11-01T11:39:38.0000000+00:00</time></trkpt><trkpt lat="39.51759738" lon="-0.48867744"><ele>93.0</ele><time>2022-11-01T11:39:39.0000000+00:00</time></trkpt><trkpt lat="39.51760618" lon="-0.48870024"><ele>93.0</ele><time>2022-11-01T11:39:40.0000000+00:00</time></trkpt><trkpt lat="39.51761004" lon="-0.48873042"><ele>93.0</ele><time>2022-11-01T11:39:41.0000000+00:00</time></trkpt><trkpt lat="39.51761196" lon="-0.48875875"><ele>93.0</ele><time>2022-11-01T11:39:42.0000000+00:00</time></trkpt><trkpt lat="39.51761305" lon="-0.48878691"><ele>93.0</ele><time>2022-11-01T11:39:43.0000000+00:00</time></trkpt><trkpt lat="39.51760962" lon="-0.48881876"><ele>93.0</ele><time>2022-11-01T11:39:44.0000000+00:00</time></trkpt><trkpt lat="39.51759855" lon="-0.48885648"><ele>93.0</ele><time>2022-11-01T11:39:45.0000000+00:00</time></trkpt><trkpt lat="39.51758103" lon="-0.4888963"><ele>92.8</ele><time>2022-11-01T11:39:46.0000000+00:00</time></trkpt><trkpt lat="39.51755606" lon="-0.48893712"><ele>92.8</ele><time>2022-11-01T11:39:47.0000000+00:00</time></trkpt><trkpt lat="39.51753225" lon="-0.48899177"><ele>92.8</ele><time>2022-11-01T11:39:48.0000000+00:00</time></trkpt><trkpt lat="39.51749948" lon="-0.489047"><ele>92.8</ele><time>2022-11-01T11:39:49.0000000+00:00</time></trkpt><trkpt lat="39.51747517" lon="-0.48909235"><ele>92.6</ele><time>2022-11-01T11:39:50.0000000+00:00</time></trkpt><trkpt lat="39.51744868" lon="-0.48915085"><ele>92.6</ele><time>2022-11-01T11:39:51.0000000+00:00</time></trkpt><trkpt lat="39.51741985" lon="-0.48920701"><ele>92.2</ele><time>2022-11-01T11:39:52.0000000+00:00</time></trkpt><trkpt lat="39.51739043" lon="-0.48924674"><ele>92.2</ele><time>2022-11-01T11:39:53.0000000+00:00</time></trkpt><trkpt lat="39.51736637" lon="-0.48926828"><ele>92.0</ele><time>2022-11-01T11:39:54.0000000+00:00</time></trkpt><trkpt lat="39.51736067" lon="-0.48928723"><ele>91.6</ele><time>2022-11-01T11:39:55.0000000+00:00</time></trkpt><trkpt lat="39.51735556" lon="-0.48930315"><ele>91.4</ele><time>2022-11-01T11:39:56.0000000+00:00</time></trkpt><trkpt lat="39.5173564" lon="-0.48931782"><ele>91.2</ele><time>2022-11-01T11:39:57.0000000+00:00</time></trkpt><trkpt lat="39.51734902" lon="-0.48934515"><ele>91.0</ele><time>2022-11-01T11:39:58.0000000+00:00</time></trkpt><trkpt lat="39.51733586" lon="-0.48938756"><ele>90.8</ele><time>2022-11-01T11:39:59.0000000+00:00</time></trkpt><trkpt lat="39.51732011" lon="-0.48943827"><ele>90.8</ele><time>2022-11-01T11:40:00.0000000+00:00</time></trkpt><trkpt lat="39.51730636" lon="-0.48949384"><ele>90.6</ele><time>2022-11-01T11:40:01.0000000+00:00</time></trkpt><trkpt lat="39.51729664" lon="-0.48955025"><ele>90.4</ele><time>2022-11-01T11:40:02.0000000+00:00</time></trkpt><trkpt lat="39.51729069" lon="-0.48960976"><ele>89.8</ele><time>2022-11-01T11:40:03.0000000+00:00</time></trkpt><trkpt lat="39.51727501" lon="-0.48966651"><ele>89.4</ele><time>2022-11-01T11:40:04.0000000+00:00</time></trkpt><trkpt lat="39.51725774" lon="-0.48972015"><ele>89.2</ele><time>2022-11-01T11:40:05.0000000+00:00</time></trkpt><trkpt lat="39.5172435" lon="-0.48976835"><ele>89.0</ele><time>2022-11-01T11:40:06.0000000+00:00</time></trkpt><trkpt lat="39.51722967" lon="-0.48981252"><ele>89.0</ele><time>2022-11-01T11:40:07.0000000+00:00</time></trkpt><trkpt lat="39.51720963" lon="-0.48985301"><ele>88.8</ele><time>2022-11-01T11:40:08.0000000+00:00</time></trkpt><trkpt lat="39.51719354" lon="-0.4898945"><ele>88.8</ele><time>2022-11-01T11:40:09.0000000+00:00</time></trkpt><trkpt lat="39.51717292" lon="-0.48993054"><ele>88.6</ele><time>2022-11-01T11:40:10.0000000+00:00</time></trkpt><trkpt lat="39.51715817" lon="-0.48995619"><ele>88.6</ele><time>2022-11-01T11:40:11.0000000+00:00</time></trkpt><trkpt lat="39.51714769" lon="-0.48997639"><ele>88.4</ele><time>2022-11-01T11:40:12.0000000+00:00</time></trkpt><trkpt lat="39.51714207" lon="-0.48999089"><ele>88.4</ele><time>2022-11-01T11:40:13.0000000+00:00</time></trkpt><trkpt lat="39.51713512" lon="-0.49001411"><ele>88.4</ele><time>2022-11-01T11:40:14.0000000+00:00</time></trkpt><trkpt lat="39.51712883" lon="-0.49004562"><ele>88.2</ele><time>2022-11-01T11:40:15.0000000+00:00</time></trkpt><trkpt lat="39.51713084" lon="-0.49006431"><ele>88.0</ele><time>2022-11-01T11:40:16.0000000+00:00</time></trkpt><trkpt lat="39.51714199" lon="-0.49008887"><ele>87.8</ele><time>2022-11-01T11:40:17.0000000+00:00</time></trkpt><trkpt lat="39.51715666" lon="-0.49011083"><ele>87.8</ele><time>2022-11-01T11:40:18.0000000+00:00</time></trkpt><trkpt lat="39.51717468" lon="-0.49013707"><ele>87.6</ele><time>2022-11-01T11:40:19.0000000+00:00</time></trkpt><trkpt lat="39.51719597" lon="-0.49017001"><ele>87.6</ele><time>2022-11-01T11:40:20.0000000+00:00</time></trkpt><trkpt lat="39.51721198" lon="-0.49020144"><ele>87.6</ele><time>2022-11-01T11:40:21.0000000+00:00</time></trkpt><trkpt lat="39.51723134" lon="-0.49025064"><ele>87.6</ele><time>2022-11-01T11:40:22.0000000+00:00</time></trkpt><trkpt lat="39.51724509" lon="-0.49029616"><ele>87.6</ele><time>2022-11-01T11:40:23.0000000+00:00</time></trkpt><trkpt lat="39.51725984" lon="-0.49033329"><ele>87.4</ele><time>2022-11-01T11:40:24.0000000+00:00</time></trkpt><trkpt lat="39.51727971" lon="-0.49037268"><ele>87.4</ele><time>2022-11-01T11:40:25.0000000+00:00</time></trkpt><trkpt lat="39.51729982" lon="-0.49041853"><ele>87.4</ele><time>2022-11-01T11:40:26.0000000+00:00</time></trkpt><trkpt lat="39.51731701" lon="-0.49046941"><ele>87.4</ele><time>2022-11-01T11:40:27.0000000+00:00</time></trkpt><trkpt lat="39.51733938" lon="-0.49052079"><ele>87.4</ele><time>2022-11-01T11:40:28.0000000+00:00</time></trkpt><trkpt lat="39.51736118" lon="-0.4905658"><ele>87.4</ele><time>2022-11-01T11:40:29.0000000+00:00</time></trkpt><trkpt lat="39.51738205" lon="-0.49061148"><ele>87.2</ele><time>2022-11-01T11:40:30.0000000+00:00</time></trkpt><trkpt lat="39.51740325" lon="-0.49065608"><ele>87.2</ele><time>2022-11-01T11:40:31.0000000+00:00</time></trkpt><trkpt lat="39.51742329" lon="-0.49070042"><ele>87.2</ele><time>2022-11-01T11:40:32.0000000+00:00</time></trkpt><trkpt lat="39.51743955" lon="-0.49073847"><ele>87.2</ele><time>2022-11-01T11:40:33.0000000+00:00</time></trkpt><trkpt lat="39.51746176" lon="-0.49079086"><ele>87.4</ele><time>2022-11-01T11:40:34.0000000+00:00</time></trkpt><trkpt lat="39.51748146" lon="-0.49083796"><ele>87.4</ele><time>2022-11-01T11:40:35.0000000+00:00</time></trkpt><trkpt lat="39.51749906" lon="-0.49087551"><ele>87.4</ele><time>2022-11-01T11:40:36.0000000+00:00</time></trkpt><trkpt lat="39.51752177" lon="-0.49092413"><ele>87.4</ele><time>2022-11-01T11:40:37.0000000+00:00</time></trkpt><trkpt lat="39.51753594" lon="-0.49096126"><ele>87.4</ele><time>2022-11-01T11:40:38.0000000+00:00</time></trkpt><trkpt lat="39.5175657" lon="-0.49101767"><ele>87.4</ele><time>2022-11-01T11:40:39.0000000+00:00</time></trkpt><trkpt lat="39.51757936" lon="-0.49107031"><ele>87.4</ele><time>2022-11-01T11:40:40.0000000+00:00</time></trkpt><trkpt lat="39.5175926" lon="-0.49113108"><ele>87.2</ele><time>2022-11-01T11:40:41.0000000+00:00</time></trkpt><trkpt lat="39.5176009" lon="-0.49118648"><ele>87.2</ele><time>2022-11-01T11:40:42.0000000+00:00</time></trkpt><trkpt lat="39.51761934" lon="-0.49124658"><ele>87.2</ele><time>2022-11-01T11:40:43.0000000+00:00</time></trkpt><trkpt lat="39.51764189" lon="-0.49130173"><ele>87.0</ele><time>2022-11-01T11:40:44.0000000+00:00</time></trkpt><trkpt lat="39.51765161" lon="-0.49134616"><ele>87.0</ele><time>2022-11-01T11:40:45.0000000+00:00</time></trkpt><trkpt lat="39.51765253" lon="-0.49139042"><ele>86.8</ele><time>2022-11-01T11:40:46.0000000+00:00</time></trkpt><trkpt lat="39.5176475" lon="-0.49140877"><ele>86.8</ele><time>2022-11-01T11:40:47.0000000+00:00</time></trkpt><trkpt lat="39.51763937" lon="-0.49142621"><ele>86.6</ele><time>2022-11-01T11:40:48.0000000+00:00</time></trkpt><trkpt lat="39.51762454" lon="-0.49145286"><ele>86.4</ele><time>2022-11-01T11:40:49.0000000+00:00</time></trkpt><trkpt lat="39.51759931" lon="-0.49147147"><ele>86.4</ele><time>2022-11-01T11:40:50.0000000+00:00</time></trkpt><trkpt lat="39.51757718" lon="-0.49148873"><ele>86.4</ele><time>2022-11-01T11:40:51.0000000+00:00</time></trkpt><trkpt lat="39.51754617" lon="-0.49149955"><ele>86.2</ele><time>2022-11-01T11:40:52.0000000+00:00</time></trkpt><trkpt lat="39.51751918" lon="-0.49151313"><ele>86.2</ele><time>2022-11-01T11:40:53.0000000+00:00</time></trkpt><trkpt lat="39.51747593" lon="-0.49153517"><ele>86.0</ele><time>2022-11-01T11:40:54.0000000+00:00</time></trkpt><trkpt lat="39.51744173" lon="-0.49155814"><ele>85.8</ele><time>2022-11-01T11:40:55.0000000+00:00</time></trkpt><trkpt lat="39.51740652" lon="-0.49157867"><ele>85.8</ele><time>2022-11-01T11:40:56.0000000+00:00</time></trkpt><trkpt lat="39.51736763" lon="-0.49159896"><ele>85.8</ele><time>2022-11-01T11:40:57.0000000+00:00</time></trkpt><trkpt lat="39.51732874" lon="-0.49162226"><ele>85.6</ele><time>2022-11-01T11:40:58.0000000+00:00</time></trkpt><trkpt lat="39.51728993" lon="-0.49164958"><ele>85.6</ele><time>2022-11-01T11:40:59.0000000+00:00</time></trkpt><trkpt lat="39.51724643" lon="-0.49167624"><ele>85.4</ele><time>2022-11-01T11:41:00.0000000+00:00</time></trkpt><trkpt lat="39.51720066" lon="-0.49170482"><ele>85.2</ele><time>2022-11-01T11:41:01.0000000+00:00</time></trkpt><trkpt lat="39.51714953" lon="-0.49173097"><ele>85.0</ele><time>2022-11-01T11:41:02.0000000+00:00</time></trkpt><trkpt lat="39.51710008" lon="-0.49176014"><ele>84.8</ele><time>2022-11-01T11:41:03.0000000+00:00</time></trkpt><trkpt lat="39.51706018" lon="-0.49178353"><ele>84.6</ele><time>2022-11-01T11:41:04.0000000+00:00</time></trkpt><trkpt lat="39.51699648" lon="-0.49181974"><ele>84.6</ele><time>2022-11-01T11:41:05.0000000+00:00</time></trkpt><trkpt lat="39.51694166" lon="-0.49184916"><ele>84.4</ele><time>2022-11-01T11:41:06.0000000+00:00</time></trkpt><trkpt lat="39.5168855" lon="-0.49187975"><ele>84.2</ele><time>2022-11-01T11:41:07.0000000+00:00</time></trkpt><trkpt lat="39.51684234" lon="-0.49190364"><ele>84.2</ele><time>2022-11-01T11:41:08.0000000+00:00</time></trkpt><trkpt lat="39.51677964" lon="-0.49194714"><ele>84.0</ele><time>2022-11-01T11:41:09.0000000+00:00</time></trkpt><trkpt lat="39.51673614" lon="-0.49198058"><ele>83.8</ele><time>2022-11-01T11:41:10.0000000+00:00</time></trkpt><trkpt lat="39.51666825" lon="-0.49202861"><ele>83.6</ele><time>2022-11-01T11:41:11.0000000+00:00</time></trkpt><trkpt lat="39.5166115" lon="-0.49206968"><ele>83.4</ele><time>2022-11-01T11:41:12.0000000+00:00</time></trkpt><trkpt lat="39.51655358" lon="-0.49211134"><ele>83.2</ele><time>2022-11-01T11:41:13.0000000+00:00</time></trkpt><trkpt lat="39.51649256" lon="-0.49215166"><ele>83.2</ele><time>2022-11-01T11:41:14.0000000+00:00</time></trkpt><trkpt lat="39.51642877" lon="-0.49219298"><ele>83.0</ele><time>2022-11-01T11:41:15.0000000+00:00</time></trkpt><trkpt lat="39.51636231" lon="-0.49223288"><ele>82.8</ele><time>2022-11-01T11:41:16.0000000+00:00</time></trkpt><trkpt lat="39.5162976" lon="-0.49226984"><ele>82.6</ele><time>2022-11-01T11:41:17.0000000+00:00</time></trkpt><trkpt lat="39.51623624" lon="-0.49230564"><ele>82.4</ele><time>2022-11-01T11:41:18.0000000+00:00</time></trkpt><trkpt lat="39.51617573" lon="-0.49233933"><ele>82.4</ele><time>2022-11-01T11:41:19.0000000+00:00</time></trkpt><trkpt lat="39.51611722" lon="-0.49237311"><ele>82.4</ele><time>2022-11-01T11:41:20.0000000+00:00</time></trkpt><trkpt lat="39.51607104" lon="-0.49239951"><ele>82.2</ele><time>2022-11-01T11:41:21.0000000+00:00</time></trkpt><trkpt lat="39.51601018" lon="-0.4924343"><ele>82.2</ele><time>2022-11-01T11:41:22.0000000+00:00</time></trkpt><trkpt lat="39.5159391" lon="-0.49247847"><ele>81.8</ele><time>2022-11-01T11:41:23.0000000+00:00</time></trkpt><trkpt lat="39.51588403" lon="-0.49252625"><ele>81.6</ele><time>2022-11-01T11:41:24.0000000+00:00</time></trkpt><trkpt lat="39.51582838" lon="-0.49257939"><ele>81.2</ele><time>2022-11-01T11:41:25.0000000+00:00</time></trkpt><trkpt lat="39.51577147" lon="-0.49262323"><ele>80.8</ele><time>2022-11-01T11:41:26.0000000+00:00</time></trkpt><trkpt lat="39.5157138" lon="-0.49266488"><ele>80.6</ele><time>2022-11-01T11:41:27.0000000+00:00</time></trkpt><trkpt lat="39.51565554" lon="-0.49269967"><ele>80.4</ele><time>2022-11-01T11:41:28.0000000+00:00</time></trkpt><trkpt lat="39.51559478" lon="-0.49273219"><ele>80.0</ele><time>2022-11-01T11:41:29.0000000+00:00</time></trkpt><trkpt lat="39.51553367" lon="-0.49276513"><ele>79.8</ele><time>2022-11-01T11:41:30.0000000+00:00</time></trkpt><trkpt lat="39.51548707" lon="-0.49279279"><ele>79.6</ele><time>2022-11-01T11:41:31.0000000+00:00</time></trkpt><trkpt lat="39.51543527" lon="-0.49282037"><ele>79.4</ele><time>2022-11-01T11:41:32.0000000+00:00</time></trkpt><trkpt lat="39.51537265" lon="-0.49285825"><ele>79.2</ele><time>2022-11-01T11:41:33.0000000+00:00</time></trkpt><trkpt lat="39.51533058" lon="-0.49288809"><ele>79.2</ele><time>2022-11-01T11:41:34.0000000+00:00</time></trkpt><trkpt lat="39.51529227" lon="-0.49290528"><ele>79.2</ele><time>2022-11-01T11:41:35.0000000+00:00</time></trkpt><trkpt lat="39.51525698" lon="-0.49291642"><ele>79.0</ele><time>2022-11-01T11:41:36.0000000+00:00</time></trkpt><trkpt lat="39.51522673" lon="-0.49292263"><ele>79.0</ele><time>2022-11-01T11:41:37.0000000+00:00</time></trkpt><trkpt lat="39.51520518" lon="-0.49292363"><ele>79.0</ele><time>2022-11-01T11:41:38.0000000+00:00</time></trkpt><trkpt lat="39.51519563" lon="-0.4929233"><ele>79.0</ele><time>2022-11-01T11:41:39.0000000+00:00</time></trkpt><trkpt lat="39.51519563" lon="-0.4929233"><ele>78.8</ele><time>2022-11-01T11:41:40.0000000+00:00</time></trkpt><trkpt lat="39.51519563" lon="-0.4929233"><ele>78.6</ele><time>2022-11-01T11:41:41.0000000+00:00</time></trkpt><trkpt lat="39.51519563" lon="-0.4929233"><ele>78.6</ele><time>2022-11-01T11:41:42.0000000+00:00</time></trkpt><trkpt lat="39.51519563" lon="-0.4929233"><ele>78.6</ele><time>2022-11-01T11:41:43.0000000+00:00</time></trkpt><trkpt lat="39.51519563" lon="-0.4929233"><ele>78.6</ele><time>2022-11-01T11:41:44.0000000+00:00</time></trkpt><trkpt lat="39.51519563" lon="-0.4929233"><ele>78.4</ele><time>2022-11-01T11:41:45.0000000+00:00</time></trkpt><trkpt lat="39.51519563" lon="-0.4929233"><ele>78.4</ele><time>2022-11-01T11:41:46.0000000+00:00</time></trkpt><trkpt lat="39.51519563" lon="-0.4929233"><ele>78.2</ele><time>2022-11-01T11:41:47.0000000+00:00</time></trkpt><trkpt lat="39.51519563" lon="-0.4929233"><ele>78.2</ele><time>2022-11-01T11:41:48.0000000+00:00</time></trkpt><trkpt lat="39.51519563" lon="-0.4929233"><ele>78.0</ele><time>2022-11-01T11:41:49.0000000+00:00</time></trkpt><trkpt lat="39.51519563" lon="-0.4929233"><ele>78.0</ele><time>2022-11-01T11:41:50.0000000+00:00</time></trkpt><trkpt lat="39.51519563" lon="-0.4929233"><ele>78.0</ele><time>2022-11-01T11:41:51.0000000+00:00</time></trkpt><trkpt lat="39.51519563" lon="-0.4929233"><ele>77.8</ele><time>2022-11-01T11:41:52.0000000+00:00</time></trkpt><trkpt lat="39.51519563" lon="-0.4929233"><ele>77.8</ele><time>2022-11-01T11:41:53.0000000+00:00</time></trkpt><trkpt lat="39.51519563" lon="-0.4929233"><ele>77.8</ele><time>2022-11-01T11:41:54.0000000+00:00</time></trkpt><trkpt lat="39.51519563" lon="-0.4929233"><ele>77.8</ele><time>2022-11-01T11:41:55.0000000+00:00</time></trkpt><trkpt lat="39.51519563" lon="-0.4929233"><ele>77.8</ele><time>2022-11-01T11:41:56.0000000+00:00</time></trkpt><trkpt lat="39.51519563" lon="-0.4929233"><ele>77.6</ele><time>2022-11-01T11:41:57.0000000+00:00</time></trkpt><trkpt lat="39.51519563" lon="-0.4929233"><ele>77.6</ele><time>2022-11-01T11:41:58.0000000+00:00</time></trkpt><trkpt lat="39.51519563" lon="-0.4929233"><ele>77.6</ele><time>2022-11-01T11:41:59.0000000+00:00</time></trkpt><trkpt lat="39.51519563" lon="-0.4929233"><ele>77.6</ele><time>2022-11-01T11:42:00.0000000+00:00</time></trkpt><trkpt lat="39.51519563" lon="-0.4929233"><ele>77.6</ele><time>2022-11-01T11:42:01.0000000+00:00</time></trkpt><trkpt lat="39.51519563" lon="-0.4929233"><ele>77.6</ele><time>2022-11-01T11:42:02.0000000+00:00</time></trkpt><trkpt lat="39.51519563" lon="-0.4929233"><ele>77.4</ele><time>2022-11-01T11:42:03.0000000+00:00</time></trkpt><trkpt lat="39.51519563" lon="-0.4929233"><ele>77.4</ele><time>2022-11-01T11:42:04.0000000+00:00</time></trkpt><trkpt lat="39.51519563" lon="-0.4929233"><ele>77.4</ele><time>2022-11-01T11:42:05.0000000+00:00</time></trkpt><trkpt lat="39.51519563" lon="-0.4929233"><ele>77.4</ele><time>2022-11-01T11:42:06.0000000+00:00</time></trkpt><trkpt lat="39.51519563" lon="-0.4929233"><ele>77.4</ele><time>2022-11-01T11:42:07.0000000+00:00</time></trkpt><trkpt lat="39.51519563" lon="-0.4929233"><ele>77.4</ele><time>2022-11-01T11:42:08.0000000+00:00</time></trkpt><trkpt lat="39.51519563" lon="-0.4929233"><ele>77.4</ele><time>2022-11-01T11:42:09.0000000+00:00</time></trkpt><trkpt lat="39.51519563" lon="-0.4929233"><ele>77.4</ele><time>2022-11-01T11:42:10.0000000+00:00</time></trkpt><trkpt lat="39.51519563" lon="-0.4929233"><ele>77.4</ele><time>2022-11-01T11:42:11.0000000+00:00</time></trkpt><trkpt lat="39.51519563" lon="-0.4929233"><ele>77.4</ele><time>2022-11-01T11:42:12.0000000+00:00</time></trkpt><trkpt lat="39.51519563" lon="-0.4929233"><ele>77.4</ele><time>2022-11-01T11:42:13.0000000+00:00</time></trkpt><trkpt lat="39.51519563" lon="-0.4929233"><ele>77.4</ele><time>2022-11-01T11:42:14.0000000+00:00</time></trkpt><trkpt lat="39.51519563" lon="-0.4929233"><ele>77.4</ele><time>2022-11-01T11:42:15.0000000+00:00</time></trkpt><trkpt lat="39.51519563" lon="-0.4929233"><ele>77.4</ele><time>2022-11-01T11:42:16.0000000+00:00</time></trkpt><trkpt lat="39.51519789" lon="-0.49291978"><ele>77.4</ele><time>2022-11-01T11:42:17.0000000+00:00</time></trkpt><trkpt lat="39.51520041" lon="-0.4929202"><ele>77.2</ele><time>2022-11-01T11:42:18.0000000+00:00</time></trkpt><trkpt lat="39.51520041" lon="-0.4929202"><ele>77.2</ele><time>2022-11-01T11:42:19.0000000+00:00</time></trkpt><trkpt lat="39.51520041" lon="-0.4929202"><ele>77.2</ele><time>2022-11-01T11:42:20.0000000+00:00</time></trkpt><trkpt lat="39.51520041" lon="-0.4929202"><ele>77.0</ele><time>2022-11-01T11:42:21.0000000+00:00</time></trkpt><trkpt lat="39.51520041" lon="-0.4929202"><ele>77.0</ele><time>2022-11-01T11:42:22.0000000+00:00</time></trkpt><trkpt lat="39.51520041" lon="-0.4929202"><ele>77.0</ele><time>2022-11-01T11:42:23.0000000+00:00</time></trkpt><trkpt lat="39.51520041" lon="-0.4929202"><ele>77.0</ele><time>2022-11-01T11:42:24.0000000+00:00</time></trkpt><trkpt lat="39.51520041" lon="-0.4929202"><ele>77.0</ele><time>2022-11-01T11:42:25.0000000+00:00</time></trkpt><trkpt lat="39.51520041" lon="-0.4929202"><ele>77.0</ele><time>2022-11-01T11:42:26.0000000+00:00</time></trkpt><trkpt lat="39.51520041" lon="-0.4929202"><ele>77.0</ele><time>2022-11-01T11:42:27.0000000+00:00</time></trkpt><trkpt lat="39.51520041" lon="-0.4929202"><ele>77.0</ele><time>2022-11-01T11:42:28.0000000+00:00</time></trkpt><trkpt lat="39.51520041" lon="-0.4929202"><ele>76.8</ele><time>2022-11-01T11:42:29.0000000+00:00</time></trkpt><trkpt lat="39.51520041" lon="-0.4929202"><ele>76.8</ele><time>2022-11-01T11:42:30.0000000+00:00</time></trkpt><trkpt lat="39.51520041" lon="-0.4929202"><ele>76.8</ele><time>2022-11-01T11:42:31.0000000+00:00</time></trkpt><trkpt lat="39.51520041" lon="-0.4929202"><ele>76.8</ele><time>2022-11-01T11:42:32.0000000+00:00</time></trkpt><trkpt lat="39.51520041" lon="-0.4929202"><ele>76.8</ele><time>2022-11-01T11:42:33.0000000+00:00</time></trkpt><trkpt lat="39.51520041" lon="-0.4929202"><ele>76.8</ele><time>2022-11-01T11:42:34.0000000+00:00</time></trkpt><trkpt lat="39.51520041" lon="-0.4929202"><ele>76.6</ele><time>2022-11-01T11:42:35.0000000+00:00</time></trkpt><trkpt lat="39.51520041" lon="-0.4929202"><ele>76.6</ele><time>2022-11-01T11:42:36.0000000+00:00</time></trkpt><trkpt lat="39.51520041" lon="-0.4929202"><ele>76.6</ele><time>2022-11-01T11:42:37.0000000+00:00</time></trkpt><trkpt lat="39.51520041" lon="-0.4929202"><ele>76.6</ele><time>2022-11-01T11:42:38.0000000+00:00</time></trkpt><trkpt lat="39.51519873" lon="-0.49291902"><ele>76.6</ele><time>2022-11-01T11:42:39.0000000+00:00</time></trkpt><trkpt lat="39.51519948" lon="-0.49292187"><ele>76.6</ele><time>2022-11-01T11:42:40.0000000+00:00</time></trkpt><trkpt lat="39.51519948" lon="-0.49292187"><ele>76.6</ele><time>2022-11-01T11:42:41.0000000+00:00</time></trkpt><trkpt lat="39.51519948" lon="-0.49292187"><ele>76.6</ele><time>2022-11-01T11:42:42.0000000+00:00</time></trkpt><trkpt lat="39.51519948" lon="-0.49292187"><ele>76.6</ele><time>2022-11-01T11:42:43.0000000+00:00</time></trkpt><trkpt lat="39.51519948" lon="-0.49292187"><ele>76.6</ele><time>2022-11-01T11:42:44.0000000+00:00</time></trkpt><trkpt lat="39.51519948" lon="-0.49292187"><ele>76.6</ele><time>2022-11-01T11:42:45.0000000+00:00</time></trkpt><trkpt lat="39.51519948" lon="-0.49292187"><ele>76.6</ele><time>2022-11-01T11:42:46.0000000+00:00</time></trkpt><trkpt lat="39.51519948" lon="-0.49292187"><ele>76.6</ele><time>2022-11-01T11:42:47.0000000+00:00</time></trkpt><trkpt lat="39.51519948" lon="-0.49292187"><ele>76.6</ele><time>2022-11-01T11:42:48.0000000+00:00</time></trkpt><trkpt lat="39.51519948" lon="-0.49292187"><ele>76.6</ele><time>2022-11-01T11:42:49.0000000+00:00</time></trkpt><trkpt lat="39.51519948" lon="-0.49292187"><ele>76.6</ele><time>2022-11-01T11:42:50.0000000+00:00</time></trkpt><trkpt lat="39.51519948" lon="-0.49292187"><ele>76.6</ele><time>2022-11-01T11:42:51.0000000+00:00</time></trkpt><trkpt lat="39.51519948" lon="-0.49292187"><ele>76.8</ele><time>2022-11-01T11:42:52.0000000+00:00</time></trkpt><trkpt lat="39.51519948" lon="-0.49292187"><ele>76.8</ele><time>2022-11-01T11:42:53.0000000+00:00</time></trkpt><trkpt lat="39.51519948" lon="-0.49292187"><ele>76.6</ele><time>2022-11-01T11:42:54.0000000+00:00</time></trkpt><trkpt lat="39.51519948" lon="-0.49292187"><ele>76.6</ele><time>2022-11-01T11:42:55.0000000+00:00</time></trkpt><trkpt lat="39.51519948" lon="-0.49292187"><ele>76.6</ele><time>2022-11-01T11:42:56.0000000+00:00</time></trkpt><trkpt lat="39.51519948" lon="-0.49292187"><ele>76.6</ele><time>2022-11-01T11:42:57.0000000+00:00</time></trkpt><trkpt lat="39.51519948" lon="-0.49292187"><ele>76.6</ele><time>2022-11-01T11:42:58.0000000+00:00</time></trkpt><trkpt lat="39.51519948" lon="-0.49292187"><ele>76.6</ele><time>2022-11-01T11:42:59.0000000+00:00</time></trkpt><trkpt lat="39.51519948" lon="-0.49292187"><ele>76.6</ele><time>2022-11-01T11:43:00.0000000+00:00</time></trkpt><trkpt lat="39.51519948" lon="-0.49292187"><ele>76.6</ele><time>2022-11-01T11:43:01.0000000+00:00</time></trkpt><trkpt lat="39.51519948" lon="-0.49292187"><ele>76.6</ele><time>2022-11-01T11:43:02.0000000+00:00</time></trkpt><trkpt lat="39.51519948" lon="-0.49292187"><ele>76.6</ele><time>2022-11-01T11:43:03.0000000+00:00</time></trkpt><trkpt lat="39.51519948" lon="-0.49292187"><ele>76.6</ele><time>2022-11-01T11:43:04.0000000+00:00</time></trkpt><trkpt lat="39.51519948" lon="-0.49292187"><ele>76.6</ele><time>2022-11-01T11:43:05.0000000+00:00</time></trkpt><trkpt lat="39.51519948" lon="-0.49292187"><ele>76.6</ele><time>2022-11-01T11:43:06.0000000+00:00</time></trkpt><trkpt lat="39.51519948" lon="-0.49292187"><ele>76.6</ele><time>2022-11-01T11:43:07.0000000+00:00</time></trkpt><trkpt lat="39.51519948" lon="-0.49292187"><ele>76.6</ele><time>2022-11-01T11:43:08.0000000+00:00</time></trkpt><trkpt lat="39.51519948" lon="-0.49292187"><ele>76.6</ele><time>2022-11-01T11:43:09.0000000+00:00</time></trkpt><trkpt lat="39.51519948" lon="-0.49292187"><ele>76.6</ele><time>2022-11-01T11:43:10.0000000+00:00</time></trkpt><trkpt lat="39.51519948" lon="-0.49292187"><ele>76.6</ele><time>2022-11-01T11:43:11.0000000+00:00</time></trkpt><trkpt lat="39.51519948" lon="-0.49292187"><ele>76.6</ele><time>2022-11-01T11:43:12.0000000+00:00</time></trkpt><trkpt lat="39.51519948" lon="-0.49292187"><ele>76.6</ele><time>2022-11-01T11:43:13.0000000+00:00</time></trkpt><trkpt lat="39.51519948" lon="-0.49292187"><ele>76.6</ele><time>2022-11-01T11:43:14.0000000+00:00</time></trkpt><trkpt lat="39.51519948" lon="-0.49292187"><ele>76.6</ele><time>2022-11-01T11:43:15.0000000+00:00</time></trkpt><trkpt lat="39.51519948" lon="-0.49292187"><ele>76.6</ele><time>2022-11-01T11:43:16.0000000+00:00</time></trkpt><trkpt lat="39.51519948" lon="-0.49292187"><ele>76.8</ele><time>2022-11-01T11:43:17.0000000+00:00</time></trkpt><trkpt lat="39.51519948" lon="-0.49292187"><ele>76.8</ele><time>2022-11-01T11:43:18.0000000+00:00</time></trkpt><trkpt lat="39.51519948" lon="-0.49292187"><ele>76.8</ele><time>2022-11-01T11:43:19.0000000+00:00</time></trkpt><trkpt lat="39.51519948" lon="-0.49292187"><ele>76.6</ele><time>2022-11-01T11:43:20.0000000+00:00</time></trkpt><trkpt lat="39.51519948" lon="-0.49292187"><ele>76.6</ele><time>2022-11-01T11:43:21.0000000+00:00</time></trkpt><trkpt lat="39.51519948" lon="-0.49292187"><ele>76.8</ele><time>2022-11-01T11:43:22.0000000+00:00</time></trkpt><trkpt lat="39.51519948" lon="-0.49292187"><ele>76.8</ele><time>2022-11-01T11:43:23.0000000+00:00</time></trkpt><trkpt lat="39.51519948" lon="-0.49292187"><ele>76.8</ele><time>2022-11-01T11:43:24.0000000+00:00</time></trkpt><trkpt lat="39.51519948" lon="-0.49292187"><ele>76.8</ele><time>2022-11-01T11:43:25.0000000+00:00</time></trkpt><trkpt lat="39.51519948" lon="-0.49292187"><ele>77.0</ele><time>2022-11-01T11:43:26.0000000+00:00</time></trkpt><trkpt lat="39.51519948" lon="-0.49292187"><ele>77.0</ele><time>2022-11-01T11:43:27.0000000+00:00</time></trkpt><trkpt lat="39.51519948" lon="-0.49292187"><ele>77.0</ele><time>2022-11-01T11:43:28.0000000+00:00</time></trkpt><trkpt lat="39.51520418" lon="-0.49292506"><ele>77.0</ele><time>2022-11-01T11:43:29.0000000+00:00</time></trkpt><trkpt lat="39.51520435" lon="-0.49293344"><ele>77.0</ele><time>2022-11-01T11:43:30.0000000+00:00</time></trkpt><trkpt lat="39.51520032" lon="-0.49295012"><ele>77.0</ele><time>2022-11-01T11:43:31.0000000+00:00</time></trkpt><trkpt lat="39.51518658" lon="-0.49296998"><ele>77.0</ele><time>2022-11-01T11:43:32.0000000+00:00</time></trkpt><trkpt lat="39.51516646" lon="-0.49299656"><ele>77.0</ele><time>2022-11-01T11:43:33.0000000+00:00</time></trkpt><trkpt lat="39.5151383" lon="-0.49303025"><ele>76.8</ele><time>2022-11-01T11:43:34.0000000+00:00</time></trkpt><trkpt lat="39.51509555" lon="-0.49306738"><ele>76.8</ele><time>2022-11-01T11:43:35.0000000+00:00</time></trkpt><trkpt lat="39.51504367" lon="-0.49310745"><ele>76.8</ele><time>2022-11-01T11:43:36.0000000+00:00</time></trkpt><trkpt lat="39.51499128" lon="-0.49314584"><ele>76.6</ele><time>2022-11-01T11:43:37.0000000+00:00</time></trkpt><trkpt lat="39.5149378" lon="-0.49318255"><ele>76.2</ele><time>2022-11-01T11:43:38.0000000+00:00</time></trkpt><trkpt lat="39.51489707" lon="-0.49321222"><ele>76.0</ele><time>2022-11-01T11:43:39.0000000+00:00</time></trkpt><trkpt lat="39.51484175" lon="-0.49324986"><ele>75.8</ele><time>2022-11-01T11:43:40.0000000+00:00</time></trkpt><trkpt lat="39.51477435" lon="-0.4932947"><ele>75.8</ele><time>2022-11-01T11:43:41.0000000+00:00</time></trkpt><trkpt lat="39.51471853" lon="-0.4933294"><ele>75.6</ele><time>2022-11-01T11:43:42.0000000+00:00</time></trkpt><trkpt lat="39.51467436" lon="-0.49335488"><ele>75.4</ele><time>2022-11-01T11:43:43.0000000+00:00</time></trkpt><trkpt lat="39.51461032" lon="-0.49339101"><ele>75.4</ele><time>2022-11-01T11:43:44.0000000+00:00</time></trkpt><trkpt lat="39.51455827" lon="-0.49342152"><ele>75.2</ele><time>2022-11-01T11:43:45.0000000+00:00</time></trkpt><trkpt lat="39.51450622" lon="-0.49344834"><ele>75.0</ele><time>2022-11-01T11:43:46.0000000+00:00</time></trkpt><trkpt lat="39.5144514" lon="-0.49347432"><ele>74.6</ele><time>2022-11-01T11:43:47.0000000+00:00</time></trkpt><trkpt lat="39.51440547" lon="-0.49350257"><ele>74.4</ele><time>2022-11-01T11:43:48.0000000+00:00</time></trkpt><trkpt lat="39.51433506" lon="-0.4935449"><ele>74.2</ele><time>2022-11-01T11:43:49.0000000+00:00</time></trkpt><trkpt lat="39.51427555" lon="-0.49358245"><ele>74.2</ele><time>2022-11-01T11:43:50.0000000+00:00</time></trkpt><trkpt lat="39.51421889" lon="-0.493619"><ele>73.8</ele><time>2022-11-01T11:43:51.0000000+00:00</time></trkpt><trkpt lat="39.51416063" lon="-0.49365428"><ele>73.6</ele><time>2022-11-01T11:43:52.0000000+00:00</time></trkpt><trkpt lat="39.51409509" lon="-0.49368949"><ele>73.2</ele><time>2022-11-01T11:43:53.0000000+00:00</time></trkpt><trkpt lat="39.51403281" lon="-0.49372729"><ele>73.2</ele><time>2022-11-01T11:43:54.0000000+00:00</time></trkpt><trkpt lat="39.51397304" lon="-0.49377414"><ele>73.0</ele><time>2022-11-01T11:43:55.0000000+00:00</time></trkpt><trkpt lat="39.51393231" lon="-0.49382066"><ele>72.8</ele><time>2022-11-01T11:43:56.0000000+00:00</time></trkpt><trkpt lat="39.51388554" lon="-0.49388588"><ele>72.6</ele><time>2022-11-01T11:43:57.0000000+00:00</time></trkpt><trkpt lat="39.51384103" lon="-0.49397372"><ele>72.4</ele><time>2022-11-01T11:43:58.0000000+00:00</time></trkpt><trkpt lat="39.51382108" lon="-0.49403759"><ele>72.2</ele><time>2022-11-01T11:43:59.0000000+00:00</time></trkpt><trkpt lat="39.51380591" lon="-0.49412183"><ele>72.0</ele><time>2022-11-01T11:44:00.0000000+00:00</time></trkpt><trkpt lat="39.51379233" lon="-0.49421336"><ele>71.8</ele><time>2022-11-01T11:44:01.0000000+00:00</time></trkpt><trkpt lat="39.51378588" lon="-0.49430941"><ele>71.6</ele><time>2022-11-01T11:44:02.0000000+00:00</time></trkpt><trkpt lat="39.51377573" lon="-0.49442626"><ele>71.2</ele><time>2022-11-01T11:44:03.0000000+00:00</time></trkpt><trkpt lat="39.51376601" lon="-0.49452583"><ele>71.0</ele><time>2022-11-01T11:44:04.0000000+00:00</time></trkpt><trkpt lat="39.51375755" lon="-0.49460152"><ele>70.6</ele><time>2022-11-01T11:44:05.0000000+00:00</time></trkpt><trkpt lat="39.51374816" lon="-0.49469221"><ele>70.6</ele><time>2022-11-01T11:44:06.0000000+00:00</time></trkpt><trkpt lat="39.51373978" lon="-0.49478266"><ele>70.2</ele><time>2022-11-01T11:44:07.0000000+00:00</time></trkpt><trkpt lat="39.51373299" lon="-0.49487435"><ele>69.8</ele><time>2022-11-01T11:44:08.0000000+00:00</time></trkpt><trkpt lat="39.51372762" lon="-0.49496463"><ele>69.8</ele><time>2022-11-01T11:44:09.0000000+00:00</time></trkpt><trkpt lat="39.51372771" lon="-0.49505389"><ele>69.6</ele><time>2022-11-01T11:44:10.0000000+00:00</time></trkpt><trkpt lat="39.5137386" lon="-0.49514065"><ele>69.4</ele><time>2022-11-01T11:44:11.0000000+00:00</time></trkpt><trkpt lat="39.51376786" lon="-0.49522279"><ele>69.4</ele><time>2022-11-01T11:44:12.0000000+00:00</time></trkpt><trkpt lat="39.51380842" lon="-0.49529169"><ele>69.2</ele><time>2022-11-01T11:44:13.0000000+00:00</time></trkpt><trkpt lat="39.51385343" lon="-0.49535774"><ele>69.0</ele><time>2022-11-01T11:44:14.0000000+00:00</time></trkpt><trkpt lat="39.5138904" lon="-0.49542169"><ele>68.8</ele><time>2022-11-01T11:44:15.0000000+00:00</time></trkpt><trkpt lat="39.51392912" lon="-0.49548715"><ele>68.6</ele><time>2022-11-01T11:44:16.0000000+00:00</time></trkpt><trkpt lat="39.51395989" lon="-0.49555128"><ele>68.4</ele><time>2022-11-01T11:44:17.0000000+00:00</time></trkpt><trkpt lat="39.51398855" lon="-0.49561741"><ele>68.6</ele><time>2022-11-01T11:44:18.0000000+00:00</time></trkpt><trkpt lat="39.51401596" lon="-0.49568404"><ele>68.8</ele><time>2022-11-01T11:44:19.0000000+00:00</time></trkpt><trkpt lat="39.51404069" lon="-0.49574641"><ele>69.0</ele><time>2022-11-01T11:44:20.0000000+00:00</time></trkpt><trkpt lat="39.5140603" lon="-0.49580458"><ele>69.2</ele><time>2022-11-01T11:44:21.0000000+00:00</time></trkpt><trkpt lat="39.51407069" lon="-0.49585889"><ele>69.2</ele><time>2022-11-01T11:44:22.0000000+00:00</time></trkpt><trkpt lat="39.51407924" lon="-0.49591145"><ele>69.2</ele><time>2022-11-01T11:44:23.0000000+00:00</time></trkpt><trkpt lat="39.51409215" lon="-0.49597339"><ele>69.2</ele><time>2022-11-01T11:44:24.0000000+00:00</time></trkpt><trkpt lat="39.51410137" lon="-0.49602075"><ele>69.2</ele><time>2022-11-01T11:44:25.0000000+00:00</time></trkpt><trkpt lat="39.51410481" lon="-0.4960676"><ele>69.2</ele><time>2022-11-01T11:44:26.0000000+00:00</time></trkpt><trkpt lat="39.51410757" lon="-0.49611781"><ele>69.2</ele><time>2022-11-01T11:44:27.0000000+00:00</time></trkpt><trkpt lat="39.51411353" lon="-0.496166"><ele>69.2</ele><time>2022-11-01T11:44:28.0000000+00:00</time></trkpt><trkpt lat="39.51412065" lon="-0.49622342"><ele>69.2</ele><time>2022-11-01T11:44:29.0000000+00:00</time></trkpt><trkpt lat="39.51412803" lon="-0.49628151"><ele>69.2</ele><time>2022-11-01T11:44:30.0000000+00:00</time></trkpt><trkpt lat="39.51413012" lon="-0.49633741"><ele>69.2</ele><time>2022-11-01T11:44:31.0000000+00:00</time></trkpt><trkpt lat="39.51412995" lon="-0.496395"><ele>69.2</ele><time>2022-11-01T11:44:32.0000000+00:00</time></trkpt><trkpt lat="39.51413213" lon="-0.49644202"><ele>69.2</ele><time>2022-11-01T11:44:33.0000000+00:00</time></trkpt><trkpt lat="39.5141401" lon="-0.49650891"><ele>69.4</ele><time>2022-11-01T11:44:34.0000000+00:00</time></trkpt><trkpt lat="39.51414647" lon="-0.49657437"><ele>69.4</ele><time>2022-11-01T11:44:35.0000000+00:00</time></trkpt><trkpt lat="39.51415686" lon="-0.49664143"><ele>69.4</ele><time>2022-11-01T11:44:36.0000000+00:00</time></trkpt><trkpt lat="39.51416901" lon="-0.49670572"><ele>69.4</ele><time>2022-11-01T11:44:37.0000000+00:00</time></trkpt><trkpt lat="39.51418066" lon="-0.49676866"><ele>69.6</ele><time>2022-11-01T11:44:38.0000000+00:00</time></trkpt><trkpt lat="39.51419424" lon="-0.49683522"><ele>69.6</ele><time>2022-11-01T11:44:39.0000000+00:00</time></trkpt><trkpt lat="39.51421042" lon="-0.49690512"><ele>69.6</ele><time>2022-11-01T11:44:40.0000000+00:00</time></trkpt><trkpt lat="39.51422316" lon="-0.49697125"><ele>69.6</ele><time>2022-11-01T11:44:41.0000000+00:00</time></trkpt><trkpt lat="39.51423456" lon="-0.4970363"><ele>69.6</ele><time>2022-11-01T11:44:42.0000000+00:00</time></trkpt><trkpt lat="39.51424202" lon="-0.49710092"><ele>69.6</ele><time>2022-11-01T11:44:43.0000000+00:00</time></trkpt><trkpt lat="39.51424663" lon="-0.49716756"><ele>69.6</ele><time>2022-11-01T11:44:44.0000000+00:00</time></trkpt><trkpt lat="39.51425342" lon="-0.49722984"><ele>69.6</ele><time>2022-11-01T11:44:45.0000000+00:00</time></trkpt><trkpt lat="39.51426432" lon="-0.4972875"><ele>69.8</ele><time>2022-11-01T11:44:46.0000000+00:00</time></trkpt><trkpt lat="39.51427186" lon="-0.4973362"><ele>69.8</ele><time>2022-11-01T11:44:47.0000000+00:00</time></trkpt><trkpt lat="39.51426683" lon="-0.49738733"><ele>70.0</ele><time>2022-11-01T11:44:48.0000000+00:00</time></trkpt><trkpt lat="39.51426004" lon="-0.49743989"><ele>70.0</ele><time>2022-11-01T11:44:49.0000000+00:00</time></trkpt><trkpt lat="39.51424923" lon="-0.49749001"><ele>69.8</ele><time>2022-11-01T11:44:50.0000000+00:00</time></trkpt><trkpt lat="39.51422953" lon="-0.49753787"><ele>69.8</ele><time>2022-11-01T11:44:51.0000000+00:00</time></trkpt><trkpt lat="39.51420581" lon="-0.49758079"><ele>69.8</ele><time>2022-11-01T11:44:52.0000000+00:00</time></trkpt><trkpt lat="39.5141789" lon="-0.4976201"><ele>69.6</ele><time>2022-11-01T11:44:53.0000000+00:00</time></trkpt><trkpt lat="39.5141613" lon="-0.4976641"><ele>69.6</ele><time>2022-11-01T11:44:54.0000000+00:00</time></trkpt><trkpt lat="39.51415066" lon="-0.49771322"><ele>69.4</ele><time>2022-11-01T11:44:55.0000000+00:00</time></trkpt><trkpt lat="39.51414756" lon="-0.49774365"><ele>69.2</ele><time>2022-11-01T11:44:56.0000000+00:00</time></trkpt><trkpt lat="39.51414621" lon="-0.49778748"><ele>69.2</ele><time>2022-11-01T11:44:57.0000000+00:00</time></trkpt><trkpt lat="39.51414865" lon="-0.49781799"><ele>69.0</ele><time>2022-11-01T11:44:58.0000000+00:00</time></trkpt><trkpt lat="39.51415979" lon="-0.49786267"><ele>68.6</ele><time>2022-11-01T11:44:59.0000000+00:00</time></trkpt><trkpt lat="39.51417044" lon="-0.49789888"><ele>68.4</ele><time>2022-11-01T11:45:00.0000000+00:00</time></trkpt><trkpt lat="39.51418159" lon="-0.49792704"><ele>68.2</ele><time>2022-11-01T11:45:01.0000000+00:00</time></trkpt><trkpt lat="39.5142017" lon="-0.49796384"><ele>68.0</ele><time>2022-11-01T11:45:02.0000000+00:00</time></trkpt><trkpt lat="39.5142131" lon="-0.49797918"><ele>67.6</ele><time>2022-11-01T11:45:03.0000000+00:00</time></trkpt><trkpt lat="39.51422266" lon="-0.49800131"><ele>67.4</ele><time>2022-11-01T11:45:04.0000000+00:00</time></trkpt><trkpt lat="39.5142328" lon="-0.49802486"><ele>67.4</ele><time>2022-11-01T11:45:05.0000000+00:00</time></trkpt><trkpt lat="39.51424814" lon="-0.49805185"><ele>67.0</ele><time>2022-11-01T11:45:06.0000000+00:00</time></trkpt><trkpt lat="39.51426599" lon="-0.49807901"><ele>67.0</ele><time>2022-11-01T11:45:07.0000000+00:00</time></trkpt><trkpt lat="39.51428535" lon="-0.49810734"><ele>66.8</ele><time>2022-11-01T11:45:08.0000000+00:00</time></trkpt><trkpt lat="39.5143069" lon="-0.49813693"><ele>66.8</ele><time>2022-11-01T11:45:09.0000000+00:00</time></trkpt><trkpt lat="39.51432919" lon="-0.49817565"><ele>66.6</ele><time>2022-11-01T11:45:10.0000000+00:00</time></trkpt><trkpt lat="39.51434914" lon="-0.49822108"><ele>66.6</ele><time>2022-11-01T11:45:11.0000000+00:00</time></trkpt><trkpt lat="39.51436599" lon="-0.49827422"><ele>66.4</ele><time>2022-11-01T11:45:12.0000000+00:00</time></trkpt><trkpt lat="39.51438393" lon="-0.49833977"><ele>66.2</ele><time>2022-11-01T11:45:13.0000000+00:00</time></trkpt><trkpt lat="39.51439926" lon="-0.49841755"><ele>65.8</ele><time>2022-11-01T11:45:14.0000000+00:00</time></trkpt><trkpt lat="39.51441553" lon="-0.49850129"><ele>65.4</ele><time>2022-11-01T11:45:15.0000000+00:00</time></trkpt><trkpt lat="39.51442617" lon="-0.49859248"><ele>65.0</ele><time>2022-11-01T11:45:16.0000000+00:00</time></trkpt><trkpt lat="39.51443967" lon="-0.49867747"><ele>64.6</ele><time>2022-11-01T11:45:17.0000000+00:00</time></trkpt><trkpt lat="39.51445886" lon="-0.49876079"><ele>64.2</ele><time>2022-11-01T11:45:18.0000000+00:00</time></trkpt><trkpt lat="39.51448124" lon="-0.49884201"><ele>64.0</ele><time>2022-11-01T11:45:19.0000000+00:00</time></trkpt><trkpt lat="39.51450882" lon="-0.49893455"><ele>64.0</ele><time>2022-11-01T11:45:20.0000000+00:00</time></trkpt><trkpt lat="39.51453622" lon="-0.49898475"><ele>64.0</ele><time>2022-11-01T11:45:21.0000000+00:00</time></trkpt><trkpt lat="39.51457621" lon="-0.49904192"><ele>64.0</ele><time>2022-11-01T11:45:22.0000000+00:00</time></trkpt><trkpt lat="39.5146301" lon="-0.49910185"><ele>64.0</ele><time>2022-11-01T11:45:23.0000000+00:00</time></trkpt><trkpt lat="39.5146757" lon="-0.49914292"><ele>64.0</ele><time>2022-11-01T11:45:24.0000000+00:00</time></trkpt><trkpt lat="39.51472222" lon="-0.49918341"><ele>64.0</ele><time>2022-11-01T11:45:25.0000000+00:00</time></trkpt><trkpt lat="39.51476463" lon="-0.49921878"><ele>64.0</ele><time>2022-11-01T11:45:26.0000000+00:00</time></trkpt><trkpt lat="39.51480696" lon="-0.49925113"><ele>64.2</ele><time>2022-11-01T11:45:27.0000000+00:00</time></trkpt><trkpt lat="39.51485298" lon="-0.49927997"><ele>64.2</ele><time>2022-11-01T11:45:28.0000000+00:00</time></trkpt><trkpt lat="39.51489874" lon="-0.49931022"><ele>64.4</ele><time>2022-11-01T11:45:29.0000000+00:00</time></trkpt><trkpt lat="39.51493344" lon="-0.49932665"><ele>64.4</ele><time>2022-11-01T11:45:30.0000000+00:00</time></trkpt><trkpt lat="39.51497946" lon="-0.49934627"><ele>64.6</ele><time>2022-11-01T11:45:31.0000000+00:00</time></trkpt><trkpt lat="39.51502866" lon="-0.49936135"><ele>64.8</ele><time>2022-11-01T11:45:32.0000000+00:00</time></trkpt><trkpt lat="39.51508055" lon="-0.49936798"><ele>65.0</ele><time>2022-11-01T11:45:33.0000000+00:00</time></trkpt><trkpt lat="39.51512924" lon="-0.4993663"><ele>65.0</ele><time>2022-11-01T11:45:34.0000000+00:00</time></trkpt><trkpt lat="39.51517476" lon="-0.49936211"><ele>65.0</ele><time>2022-11-01T11:45:35.0000000+00:00</time></trkpt><trkpt lat="39.51521717" lon="-0.4993554"><ele>65.0</ele><time>2022-11-01T11:45:36.0000000+00:00</time></trkpt><trkpt lat="39.51525305" lon="-0.49935465"><ele>65.0</ele><time>2022-11-01T11:45:37.0000000+00:00</time></trkpt><trkpt lat="39.51528146" lon="-0.49936001"><ele>65.0</ele><time>2022-11-01T11:45:38.0000000+00:00</time></trkpt><trkpt lat="39.51531281" lon="-0.49936194"><ele>65.2</ele><time>2022-11-01T11:45:39.0000000+00:00</time></trkpt><trkpt lat="39.51533007" lon="-0.49936948"><ele>65.2</ele><time>2022-11-01T11:45:40.0000000+00:00</time></trkpt><trkpt lat="39.51534147" lon="-0.49938046"><ele>65.4</ele><time>2022-11-01T11:45:41.0000000+00:00</time></trkpt><trkpt lat="39.51535665" lon="-0.49939907"><ele>65.4</ele><time>2022-11-01T11:45:42.0000000+00:00</time></trkpt><trkpt lat="39.51536997" lon="-0.49941667"><ele>65.6</ele><time>2022-11-01T11:45:43.0000000+00:00</time></trkpt><trkpt lat="39.51537291" lon="-0.49942765"><ele>65.8</ele><time>2022-11-01T11:45:44.0000000+00:00</time></trkpt><trkpt lat="39.51537936" lon="-0.49943847"><ele>65.8</ele><time>2022-11-01T11:45:45.0000000+00:00</time></trkpt><trkpt lat="39.5153859" lon="-0.49945255"><ele>66.0</ele><time>2022-11-01T11:45:46.0000000+00:00</time></trkpt><trkpt lat="39.51539462" lon="-0.49946973"><ele>66.0</ele><time>2022-11-01T11:45:47.0000000+00:00</time></trkpt><trkpt lat="39.51540291" lon="-0.49948054"><ele>66.2</ele><time>2022-11-01T11:45:48.0000000+00:00</time></trkpt><trkpt lat="39.51541733" lon="-0.49948683"><ele>66.2</ele><time>2022-11-01T11:45:49.0000000+00:00</time></trkpt><trkpt lat="39.51542714" lon="-0.49949597"><ele>66.2</ele><time>2022-11-01T11:45:50.0000000+00:00</time></trkpt><trkpt lat="39.51543468" lon="-0.49950904"><ele>66.2</ele><time>2022-11-01T11:45:51.0000000+00:00</time></trkpt><trkpt lat="39.51543845" lon="-0.49951684"><ele>66.4</ele><time>2022-11-01T11:45:52.0000000+00:00</time></trkpt><trkpt lat="39.5154444" lon="-0.49953117"><ele>66.4</ele><time>2022-11-01T11:45:53.0000000+00:00</time></trkpt><trkpt lat="39.51545413" lon="-0.49954567"><ele>66.6</ele><time>2022-11-01T11:45:54.0000000+00:00</time></trkpt><trkpt lat="39.5154667" lon="-0.49955808"><ele>66.6</ele><time>2022-11-01T11:45:55.0000000+00:00</time></trkpt><trkpt lat="39.51546997" lon="-0.49956889"><ele>66.6</ele><time>2022-11-01T11:45:56.0000000+00:00</time></trkpt><trkpt lat="39.51547684" lon="-0.49957828"><ele>66.6</ele><time>2022-11-01T11:45:57.0000000+00:00</time></trkpt><trkpt lat="39.51548799" lon="-0.49959177"><ele>66.8</ele><time>2022-11-01T11:45:58.0000000+00:00</time></trkpt><trkpt lat="39.51549847" lon="-0.49960326"><ele>66.8</ele><time>2022-11-01T11:45:59.0000000+00:00</time></trkpt><trkpt lat="39.51550752" lon="-0.49961457"><ele>66.8</ele><time>2022-11-01T11:46:00.0000000+00:00</time></trkpt><trkpt lat="39.51551347" lon="-0.49962614"><ele>66.8</ele><time>2022-11-01T11:46:01.0000000+00:00</time></trkpt><trkpt lat="39.51551582" lon="-0.49964533"><ele>67.0</ele><time>2022-11-01T11:46:02.0000000+00:00</time></trkpt><trkpt lat="39.51552286" lon="-0.49966394"><ele>67.0</ele><time>2022-11-01T11:46:03.0000000+00:00</time></trkpt><trkpt lat="39.51553158" lon="-0.49967744"><ele>67.0</ele><time>2022-11-01T11:46:04.0000000+00:00</time></trkpt><trkpt lat="39.51553778" lon="-0.49968858"><ele>67.2</ele><time>2022-11-01T11:46:05.0000000+00:00</time></trkpt><trkpt lat="39.51554658" lon="-0.49970149"><ele>67.2</ele><time>2022-11-01T11:46:06.0000000+00:00</time></trkpt><trkpt lat="39.5155537" lon="-0.49971323"><ele>67.2</ele><time>2022-11-01T11:46:07.0000000+00:00</time></trkpt><trkpt lat="39.51555924" lon="-0.49972328"><ele>67.4</ele><time>2022-11-01T11:46:08.0000000+00:00</time></trkpt><trkpt lat="39.5155698" lon="-0.49973661"><ele>67.6</ele><time>2022-11-01T11:46:09.0000000+00:00</time></trkpt><trkpt lat="39.51557625" lon="-0.49975036"><ele>67.6</ele><time>2022-11-01T11:46:10.0000000+00:00</time></trkpt><trkpt lat="39.51558237" lon="-0.49976234"><ele>67.8</ele><time>2022-11-01T11:46:11.0000000+00:00</time></trkpt><trkpt lat="39.51558949" lon="-0.49977056"><ele>68.0</ele><time>2022-11-01T11:46:12.0000000+00:00</time></trkpt><trkpt lat="39.51559654" lon="-0.49978313"><ele>68.0</ele><time>2022-11-01T11:46:13.0000000+00:00</time></trkpt><trkpt lat="39.5155998" lon="-0.49978674"><ele>68.2</ele><time>2022-11-01T11:46:14.0000000+00:00</time></trkpt><trkpt lat="39.5156055" lon="-0.49979503"><ele>68.4</ele><time>2022-11-01T11:46:15.0000000+00:00</time></trkpt><trkpt lat="39.51561162" lon="-0.49980383"><ele>68.4</ele><time>2022-11-01T11:46:16.0000000+00:00</time></trkpt><trkpt lat="39.51561774" lon="-0.49981716"><ele>68.6</ele><time>2022-11-01T11:46:17.0000000+00:00</time></trkpt><trkpt lat="39.51562336" lon="-0.49982873"><ele>68.6</ele><time>2022-11-01T11:46:18.0000000+00:00</time></trkpt><trkpt lat="39.51563023" lon="-0.49984449"><ele>68.8</ele><time>2022-11-01T11:46:19.0000000+00:00</time></trkpt><trkpt lat="39.51563551" lon="-0.49986075"><ele>68.8</ele><time>2022-11-01T11:46:20.0000000+00:00</time></trkpt><trkpt lat="39.51564129" lon="-0.49987349"><ele>68.8</ele><time>2022-11-01T11:46:21.0000000+00:00</time></trkpt><trkpt lat="39.51564448" lon="-0.49988522"><ele>69.0</ele><time>2022-11-01T11:46:22.0000000+00:00</time></trkpt><trkpt lat="39.5156475" lon="-0.49989453"><ele>69.0</ele><time>2022-11-01T11:46:23.0000000+00:00</time></trkpt><trkpt lat="39.51565462" lon="-0.49990224"><ele>69.2</ele><time>2022-11-01T11:46:24.0000000+00:00</time></trkpt><trkpt lat="39.51566108" lon="-0.49990383"><ele>69.2</ele><time>2022-11-01T11:46:25.0000000+00:00</time></trkpt><trkpt lat="39.51566753" lon="-0.49990676"><ele>69.4</ele><time>2022-11-01T11:46:26.0000000+00:00</time></trkpt><trkpt lat="39.51567231" lon="-0.49991263"><ele>69.4</ele><time>2022-11-01T11:46:27.0000000+00:00</time></trkpt><trkpt lat="39.51567633" lon="-0.4999164"><ele>69.4</ele><time>2022-11-01T11:46:28.0000000+00:00</time></trkpt><trkpt lat="39.51568077" lon="-0.49992462"><ele>69.6</ele><time>2022-11-01T11:46:29.0000000+00:00</time></trkpt><trkpt lat="39.51568488" lon="-0.49993183"><ele>69.8</ele><time>2022-11-01T11:46:30.0000000+00:00</time></trkpt><trkpt lat="39.51568991" lon="-0.49994306"><ele>69.8</ele><time>2022-11-01T11:46:31.0000000+00:00</time></trkpt><trkpt lat="39.51569628" lon="-0.4999532"><ele>70.0</ele><time>2022-11-01T11:46:32.0000000+00:00</time></trkpt><trkpt lat="39.51570391" lon="-0.49996024"><ele>70.2</ele><time>2022-11-01T11:46:33.0000000+00:00</time></trkpt><trkpt lat="39.51571338" lon="-0.49996971"><ele>70.2</ele><time>2022-11-01T11:46:34.0000000+00:00</time></trkpt><trkpt lat="39.51572084" lon="-0.49998396"><ele>70.2</ele><time>2022-11-01T11:46:35.0000000+00:00</time></trkpt><trkpt lat="39.51572679" lon="-0.50000341"><ele>70.2</ele><time>2022-11-01T11:46:36.0000000+00:00</time></trkpt><trkpt lat="39.51573215" lon="-0.50002"><ele>70.4</ele><time>2022-11-01T11:46:37.0000000+00:00</time></trkpt><trkpt lat="39.51573651" lon="-0.50003283"><ele>70.4</ele><time>2022-11-01T11:46:38.0000000+00:00</time></trkpt><trkpt lat="39.51573936" lon="-0.50005093"><ele>70.4</ele><time>2022-11-01T11:46:39.0000000+00:00</time></trkpt><trkpt lat="39.51574406" lon="-0.50006661"><ele>70.4</ele><time>2022-11-01T11:46:40.0000000+00:00</time></trkpt><trkpt lat="39.51574791" lon="-0.50008304"><ele>70.6</ele><time>2022-11-01T11:46:41.0000000+00:00</time></trkpt><trkpt lat="39.51575043" lon="-0.50010064"><ele>70.6</ele><time>2022-11-01T11:46:42.0000000+00:00</time></trkpt><trkpt lat="39.51575579" lon="-0.5001169"><ele>70.8</ele><time>2022-11-01T11:46:43.0000000+00:00</time></trkpt><trkpt lat="39.51576233" lon="-0.50013316"><ele>70.8</ele><time>2022-11-01T11:46:44.0000000+00:00</time></trkpt><trkpt lat="39.5157682" lon="-0.50014456"><ele>70.8</ele><time>2022-11-01T11:46:45.0000000+00:00</time></trkpt><trkpt lat="39.51577381" lon="-0.50015763"><ele>70.8</ele><time>2022-11-01T11:46:46.0000000+00:00</time></trkpt><trkpt lat="39.51577884" lon="-0.50017306"><ele>71.0</ele><time>2022-11-01T11:46:47.0000000+00:00</time></trkpt><trkpt lat="39.51578697" lon="-0.50019217"><ele>71.0</ele><time>2022-11-01T11:46:48.0000000+00:00</time></trkpt><trkpt lat="39.51579628" lon="-0.50021639"><ele>71.0</ele><time>2022-11-01T11:46:49.0000000+00:00</time></trkpt><trkpt lat="39.51580583" lon="-0.50024145"><ele>71.0</ele><time>2022-11-01T11:46:50.0000000+00:00</time></trkpt><trkpt lat="39.51581296" lon="-0.50026551"><ele>71.2</ele><time>2022-11-01T11:46:51.0000000+00:00</time></trkpt><trkpt lat="39.51582008" lon="-0.50029141"><ele>71.2</ele><time>2022-11-01T11:46:52.0000000+00:00</time></trkpt><trkpt lat="39.51582813" lon="-0.50032049"><ele>71.2</ele><time>2022-11-01T11:46:53.0000000+00:00</time></trkpt><trkpt lat="39.51584028" lon="-0.50035"><ele>71.2</ele><time>2022-11-01T11:46:54.0000000+00:00</time></trkpt><trkpt lat="39.51585076" lon="-0.50037942"><ele>71.2</ele><time>2022-11-01T11:46:55.0000000+00:00</time></trkpt><trkpt lat="39.51586191" lon="-0.50040825"><ele>71.2</ele><time>2022-11-01T11:46:56.0000000+00:00</time></trkpt><trkpt lat="39.51587163" lon="-0.50044388"><ele>71.2</ele><time>2022-11-01T11:46:57.0000000+00:00</time></trkpt><trkpt lat="39.51588261" lon="-0.50048201"><ele>71.4</ele><time>2022-11-01T11:46:58.0000000+00:00</time></trkpt><trkpt lat="39.51589719" lon="-0.50052309"><ele>71.4</ele><time>2022-11-01T11:46:59.0000000+00:00</time></trkpt><trkpt lat="39.51591086" lon="-0.50055946"><ele>71.4</ele><time>2022-11-01T11:47:00.0000000+00:00</time></trkpt><trkpt lat="39.51592393" lon="-0.50059701"><ele>71.4</ele><time>2022-11-01T11:47:01.0000000+00:00</time></trkpt><trkpt lat="39.51593835" lon="-0.50063448"><ele>71.4</ele><time>2022-11-01T11:47:02.0000000+00:00</time></trkpt><trkpt lat="39.51595176" lon="-0.50067153"><ele>71.4</ele><time>2022-11-01T11:47:03.0000000+00:00</time></trkpt><trkpt lat="39.51596794" lon="-0.50071025"><ele>71.4</ele><time>2022-11-01T11:47:04.0000000+00:00</time></trkpt><trkpt lat="39.51598546" lon="-0.50075317"><ele>71.2</ele><time>2022-11-01T11:47:05.0000000+00:00</time></trkpt><trkpt lat="39.5160023" lon="-0.50080027"><ele>71.0</ele><time>2022-11-01T11:47:06.0000000+00:00</time></trkpt><trkpt lat="39.51601538" lon="-0.50085518"><ele>71.0</ele><time>2022-11-01T11:47:07.0000000+00:00</time></trkpt><trkpt lat="39.51603005" lon="-0.50091008"><ele>70.8</ele><time>2022-11-01T11:47:08.0000000+00:00</time></trkpt><trkpt lat="39.51604807" lon="-0.50096892"><ele>70.6</ele><time>2022-11-01T11:47:09.0000000+00:00</time></trkpt><trkpt lat="39.51606886" lon="-0.50103136"><ele>70.6</ele><time>2022-11-01T11:47:10.0000000+00:00</time></trkpt><trkpt lat="39.51608839" lon="-0.5010954"><ele>70.4</ele><time>2022-11-01T11:47:11.0000000+00:00</time></trkpt><trkpt lat="39.51610272" lon="-0.50114653"><ele>70.4</ele><time>2022-11-01T11:47:12.0000000+00:00</time></trkpt><trkpt lat="39.51612652" lon="-0.50121099"><ele>70.2</ele><time>2022-11-01T11:47:13.0000000+00:00</time></trkpt><trkpt lat="39.51615645" lon="-0.50128374"><ele>70.2</ele><time>2022-11-01T11:47:14.0000000+00:00</time></trkpt><trkpt lat="39.51618101" lon="-0.50134225"><ele>70.2</ele><time>2022-11-01T11:47:15.0000000+00:00</time></trkpt><trkpt lat="39.51620137" lon="-0.50139095"><ele>70.0</ele><time>2022-11-01T11:47:16.0000000+00:00</time></trkpt><trkpt lat="39.51621906" lon="-0.50142724"><ele>70.0</ele><time>2022-11-01T11:47:17.0000000+00:00</time></trkpt><trkpt lat="39.51623339" lon="-0.50144862"><ele>70.0</ele><time>2022-11-01T11:47:18.0000000+00:00</time></trkpt><trkpt lat="39.51625602" lon="-0.50147854"><ele>70.0</ele><time>2022-11-01T11:47:19.0000000+00:00</time></trkpt><trkpt lat="39.51627388" lon="-0.50150653"><ele>70.0</ele><time>2022-11-01T11:47:20.0000000+00:00</time></trkpt><trkpt lat="39.51628905" lon="-0.50153738"><ele>70.0</ele><time>2022-11-01T11:47:21.0000000+00:00</time></trkpt><trkpt lat="39.51630196" lon="-0.50156957"><ele>70.0</ele><time>2022-11-01T11:47:22.0000000+00:00</time></trkpt><trkpt lat="39.51631025" lon="-0.50160058"><ele>70.0</ele><time>2022-11-01T11:47:23.0000000+00:00</time></trkpt><trkpt lat="39.51632492" lon="-0.50163084"><ele>70.0</ele><time>2022-11-01T11:47:24.0000000+00:00</time></trkpt><trkpt lat="39.51634244" lon="-0.50166034"><ele>70.0</ele><time>2022-11-01T11:47:25.0000000+00:00</time></trkpt><trkpt lat="39.5163613" lon="-0.50168633"><ele>70.0</ele><time>2022-11-01T11:47:26.0000000+00:00</time></trkpt><trkpt lat="39.51638301" lon="-0.50170192"><ele>70.0</ele><time>2022-11-01T11:47:27.0000000+00:00</time></trkpt><trkpt lat="39.51639776" lon="-0.50171197"><ele>70.0</ele><time>2022-11-01T11:47:28.0000000+00:00</time></trkpt><trkpt lat="39.51640908" lon="-0.50172203"><ele>70.0</ele><time>2022-11-01T11:47:29.0000000+00:00</time></trkpt><trkpt lat="39.51641821" lon="-0.50173335"><ele>69.8</ele><time>2022-11-01T11:47:30.0000000+00:00</time></trkpt><trkpt lat="39.51642735" lon="-0.50174542"><ele>69.8</ele><time>2022-11-01T11:47:31.0000000+00:00</time></trkpt><trkpt lat="39.51643238" lon="-0.5017559"><ele>69.8</ele><time>2022-11-01T11:47:32.0000000+00:00</time></trkpt><trkpt lat="39.51643548" lon="-0.50176587"><ele>69.6</ele><time>2022-11-01T11:47:33.0000000+00:00</time></trkpt><trkpt lat="39.5164359" lon="-0.50178213"><ele>69.6</ele><time>2022-11-01T11:47:34.0000000+00:00</time></trkpt><trkpt lat="39.51643841" lon="-0.50180459"><ele>69.6</ele><time>2022-11-01T11:47:35.0000000+00:00</time></trkpt><trkpt lat="39.51644872" lon="-0.50183544"><ele>69.4</ele><time>2022-11-01T11:47:36.0000000+00:00</time></trkpt><trkpt lat="39.51646457" lon="-0.50186704"><ele>69.4</ele><time>2022-11-01T11:47:37.0000000+00:00</time></trkpt><trkpt lat="39.51648317" lon="-0.50190711"><ele>69.4</ele><time>2022-11-01T11:47:38.0000000+00:00</time></trkpt><trkpt lat="39.51650891" lon="-0.50194432"><ele>69.2</ele><time>2022-11-01T11:47:39.0000000+00:00</time></trkpt><trkpt lat="39.51653028" lon="-0.50198698"><ele>69.0</ele><time>2022-11-01T11:47:40.0000000+00:00</time></trkpt><trkpt lat="39.51655266" lon="-0.50202931"><ele>68.8</ele><time>2022-11-01T11:47:41.0000000+00:00</time></trkpt><trkpt lat="39.51657948" lon="-0.50206988"><ele>68.8</ele><time>2022-11-01T11:47:42.0000000+00:00</time></trkpt><trkpt lat="39.51660739" lon="-0.50211171"><ele>68.6</ele><time>2022-11-01T11:47:43.0000000+00:00</time></trkpt><trkpt lat="39.51663581" lon="-0.50215504"><ele>68.6</ele><time>2022-11-01T11:47:44.0000000+00:00</time></trkpt><trkpt lat="39.51666372" lon="-0.50219678"><ele>68.4</ele><time>2022-11-01T11:47:45.0000000+00:00</time></trkpt><trkpt lat="39.51669146" lon="-0.5022366"><ele>68.4</ele><time>2022-11-01T11:47:46.0000000+00:00</time></trkpt><trkpt lat="39.51671393" lon="-0.50226686"><ele>68.4</ele><time>2022-11-01T11:47:47.0000000+00:00</time></trkpt><trkpt lat="39.51674402" lon="-0.50231514"><ele>68.4</ele><time>2022-11-01T11:47:48.0000000+00:00</time></trkpt><trkpt lat="39.51676154" lon="-0.50235529"><ele>68.4</ele><time>2022-11-01T11:47:49.0000000+00:00</time></trkpt><trkpt lat="39.51678023" lon="-0.50239795"><ele>68.4</ele><time>2022-11-01T11:47:50.0000000+00:00</time></trkpt><trkpt lat="39.51679758" lon="-0.50243793"><ele>68.2</ele><time>2022-11-01T11:47:51.0000000+00:00</time></trkpt><trkpt lat="39.51680889" lon="-0.50246702"><ele>68.2</ele><time>2022-11-01T11:47:52.0000000+00:00</time></trkpt><trkpt lat="39.5168177" lon="-0.50249367"><ele>68.2</ele><time>2022-11-01T11:47:53.0000000+00:00</time></trkpt><trkpt lat="39.51682138" lon="-0.502521"><ele>68.0</ele><time>2022-11-01T11:47:54.0000000+00:00</time></trkpt><trkpt lat="39.51682256" lon="-0.50254329"><ele>68.0</ele><time>2022-11-01T11:47:55.0000000+00:00</time></trkpt><trkpt lat="39.51682423" lon="-0.5025728"><ele>68.0</ele><time>2022-11-01T11:47:56.0000000+00:00</time></trkpt><trkpt lat="39.51683027" lon="-0.50260138"><ele>68.0</ele><time>2022-11-01T11:47:57.0000000+00:00</time></trkpt><trkpt lat="39.51684217" lon="-0.50263298"><ele>68.0</ele><time>2022-11-01T11:47:58.0000000+00:00</time></trkpt><trkpt lat="39.51686245" lon="-0.50265553"><ele>68.0</ele><time>2022-11-01T11:47:59.0000000+00:00</time></trkpt><trkpt lat="39.51688224" lon="-0.50266131"><ele>68.0</ele><time>2022-11-01T11:48:00.0000000+00:00</time></trkpt><trkpt lat="39.51689917" lon="-0.50266248"><ele>68.0</ele><time>2022-11-01T11:48:01.0000000+00:00</time></trkpt><trkpt lat="39.5169161" lon="-0.50266005"><ele>68.0</ele><time>2022-11-01T11:48:02.0000000+00:00</time></trkpt><trkpt lat="39.51692649" lon="-0.50265452"><ele>68.0</ele><time>2022-11-01T11:48:03.0000000+00:00</time></trkpt><trkpt lat="39.51694225" lon="-0.50264941"><ele>68.0</ele><time>2022-11-01T11:48:04.0000000+00:00</time></trkpt><trkpt lat="39.51696002" lon="-0.50264924"><ele>68.0</ele><time>2022-11-01T11:48:05.0000000+00:00</time></trkpt><trkpt lat="39.51697561" lon="-0.50264186"><ele>68.2</ele><time>2022-11-01T11:48:06.0000000+00:00</time></trkpt><trkpt lat="39.51698785" lon="-0.50263113"><ele>68.6</ele><time>2022-11-01T11:48:07.0000000+00:00</time></trkpt><trkpt lat="39.51700126" lon="-0.50261973"><ele>68.8</ele><time>2022-11-01T11:48:08.0000000+00:00</time></trkpt><trkpt lat="39.51701584" lon="-0.50260875"><ele>69.0</ele><time>2022-11-01T11:48:09.0000000+00:00</time></trkpt><trkpt lat="39.51702992" lon="-0.50259903"><ele>69.2</ele><time>2022-11-01T11:48:10.0000000+00:00</time></trkpt><trkpt lat="39.5170456" lon="-0.50259132"><ele>69.4</ele><time>2022-11-01T11:48:11.0000000+00:00</time></trkpt><trkpt lat="39.51706144" lon="-0.50257866"><ele>69.4</ele><time>2022-11-01T11:48:12.0000000+00:00</time></trkpt><trkpt lat="39.51707829" lon="-0.50256391"><ele>69.6</ele><time>2022-11-01T11:48:13.0000000+00:00</time></trkpt><trkpt lat="39.51709614" lon="-0.50254849"><ele>69.6</ele><time>2022-11-01T11:48:14.0000000+00:00</time></trkpt><trkpt lat="39.51711257" lon="-0.50253156"><ele>69.6</ele><time>2022-11-01T11:48:15.0000000+00:00</time></trkpt><trkpt lat="39.51713118" lon="-0.50252007"><ele>69.6</ele><time>2022-11-01T11:48:16.0000000+00:00</time></trkpt><trkpt lat="39.51714937" lon="-0.50250809"><ele>69.8</ele><time>2022-11-01T11:48:17.0000000+00:00</time></trkpt><trkpt lat="39.51716881" lon="-0.50249904"><ele>69.8</ele><time>2022-11-01T11:48:18.0000000+00:00</time></trkpt><trkpt lat="39.51718826" lon="-0.50248747"><ele>69.8</ele><time>2022-11-01T11:48:19.0000000+00:00</time></trkpt><trkpt lat="39.51720871" lon="-0.50247481"><ele>69.8</ele><time>2022-11-01T11:48:20.0000000+00:00</time></trkpt><trkpt lat="39.51723134" lon="-0.50246316"><ele>70.0</ele><time>2022-11-01T11:48:21.0000000+00:00</time></trkpt><trkpt lat="39.51725096" lon="-0.50244983"><ele>70.0</ele><time>2022-11-01T11:48:22.0000000+00:00</time></trkpt><trkpt lat="39.51727074" lon="-0.50244539"><ele>70.0</ele><time>2022-11-01T11:48:23.0000000+00:00</time></trkpt><trkpt lat="39.51729194" lon="-0.50244665"><ele>70.4</ele><time>2022-11-01T11:48:24.0000000+00:00</time></trkpt><trkpt lat="39.51731424" lon="-0.50245855"><ele>70.6</ele><time>2022-11-01T11:48:25.0000000+00:00</time></trkpt><trkpt lat="39.51733301" lon="-0.50247045"><ele>70.6</ele><time>2022-11-01T11:48:26.0000000+00:00</time></trkpt><trkpt lat="39.51735154" lon="-0.50248588"><ele>70.8</ele><time>2022-11-01T11:48:27.0000000+00:00</time></trkpt><trkpt lat="39.51736989" lon="-0.50250541"><ele>71.0</ele><time>2022-11-01T11:48:28.0000000+00:00</time></trkpt><trkpt lat="39.51738674" lon="-0.50252569"><ele>71.0</ele><time>2022-11-01T11:48:29.0000000+00:00</time></trkpt><trkpt lat="39.51740099" lon="-0.50254572"><ele>71.2</ele><time>2022-11-01T11:48:30.0000000+00:00</time></trkpt><trkpt lat="39.51742086" lon="-0.50256827"><ele>71.2</ele><time>2022-11-01T11:48:31.0000000+00:00</time></trkpt><trkpt lat="39.51744064" lon="-0.50258227"><ele>71.2</ele><time>2022-11-01T11:48:32.0000000+00:00</time></trkpt><trkpt lat="39.51746612" lon="-0.50258621"><ele>71.2</ele><time>2022-11-01T11:48:33.0000000+00:00</time></trkpt><trkpt lat="39.51749319" lon="-0.50258411"><ele>71.2</ele><time>2022-11-01T11:48:34.0000000+00:00</time></trkpt><trkpt lat="39.51752152" lon="-0.50257967"><ele>71.4</ele><time>2022-11-01T11:48:35.0000000+00:00</time></trkpt><trkpt lat="39.51754851" lon="-0.50256869"><ele>71.4</ele><time>2022-11-01T11:48:36.0000000+00:00</time></trkpt><trkpt lat="39.51757249" lon="-0.50255151"><ele>71.4</ele><time>2022-11-01T11:48:37.0000000+00:00</time></trkpt><trkpt lat="39.51759428" lon="-0.50253474"><ele>71.4</ele><time>2022-11-01T11:48:38.0000000+00:00</time></trkpt><trkpt lat="39.51761657" lon="-0.50251404"><ele>71.6</ele><time>2022-11-01T11:48:39.0000000+00:00</time></trkpt><trkpt lat="39.51764105" lon="-0.50249727"><ele>71.6</ele><time>2022-11-01T11:48:40.0000000+00:00</time></trkpt><trkpt lat="39.51766159" lon="-0.50248931"><ele>71.6</ele><time>2022-11-01T11:48:41.0000000+00:00</time></trkpt><trkpt lat="39.51767433" lon="-0.502479"><ele>71.8</ele><time>2022-11-01T11:48:42.0000000+00:00</time></trkpt><trkpt lat="39.5176864" lon="-0.50247624"><ele>71.8</ele><time>2022-11-01T11:48:43.0000000+00:00</time></trkpt><trkpt lat="39.51769763" lon="-0.50248168"><ele>71.8</ele><time>2022-11-01T11:48:44.0000000+00:00</time></trkpt><trkpt lat="39.5177076" lon="-0.50249392"><ele>71.8</ele><time>2022-11-01T11:48:45.0000000+00:00</time></trkpt><trkpt lat="39.51771431" lon="-0.50251194"><ele>72.0</ele><time>2022-11-01T11:48:46.0000000+00:00</time></trkpt><trkpt lat="39.5177195" lon="-0.50252636"><ele>72.0</ele><time>2022-11-01T11:48:47.0000000+00:00</time></trkpt><trkpt lat="39.51772847" lon="-0.50254296"><ele>72.2</ele><time>2022-11-01T11:48:48.0000000+00:00</time></trkpt><trkpt lat="39.51773459" lon="-0.50255519"><ele>72.2</ele><time>2022-11-01T11:48:49.0000000+00:00</time></trkpt><trkpt lat="39.51774373" lon="-0.50256525"><ele>72.4</ele><time>2022-11-01T11:48:50.0000000+00:00</time></trkpt><trkpt lat="39.5177558" lon="-0.50257011"><ele>72.4</ele><time>2022-11-01T11:48:51.0000000+00:00</time></trkpt><trkpt lat="39.51776879" lon="-0.50256852"><ele>72.4</ele><time>2022-11-01T11:48:52.0000000+00:00</time></trkpt><trkpt lat="39.51778606" lon="-0.50256475"><ele>72.4</ele><time>2022-11-01T11:48:53.0000000+00:00</time></trkpt><trkpt lat="39.51779695" lon="-0.50255192"><ele>72.4</ele><time>2022-11-01T11:48:54.0000000+00:00</time></trkpt><trkpt lat="39.51780751" lon="-0.50253809"><ele>72.4</ele><time>2022-11-01T11:48:55.0000000+00:00</time></trkpt><trkpt lat="39.51782327" lon="-0.50252913"><ele>72.4</ele><time>2022-11-01T11:48:56.0000000+00:00</time></trkpt><trkpt lat="39.51783878" lon="-0.50251731"><ele>72.4</ele><time>2022-11-01T11:48:57.0000000+00:00</time></trkpt><trkpt lat="39.51785638" lon="-0.50250557"><ele>72.6</ele><time>2022-11-01T11:48:58.0000000+00:00</time></trkpt><trkpt lat="39.51787658" lon="-0.50249275"><ele>72.6</ele><time>2022-11-01T11:48:59.0000000+00:00</time></trkpt><trkpt lat="39.51789083" lon="-0.5024816"><ele>72.8</ele><time>2022-11-01T11:49:00.0000000+00:00</time></trkpt><trkpt lat="39.51790231" lon="-0.5024676"><ele>73.0</ele><time>2022-11-01T11:49:01.0000000+00:00</time></trkpt><trkpt lat="39.5179169" lon="-0.50245444"><ele>73.0</ele><time>2022-11-01T11:49:02.0000000+00:00</time></trkpt><trkpt lat="39.51793349" lon="-0.50245042"><ele>73.2</ele><time>2022-11-01T11:49:03.0000000+00:00</time></trkpt><trkpt lat="39.51794447" lon="-0.50244313"><ele>73.4</ele><time>2022-11-01T11:49:04.0000000+00:00</time></trkpt><trkpt lat="39.51795772" lon="-0.50243718"><ele>73.4</ele><time>2022-11-01T11:49:05.0000000+00:00</time></trkpt><trkpt lat="39.5179682" lon="-0.50242972"><ele>73.6</ele><time>2022-11-01T11:49:06.0000000+00:00</time></trkpt><trkpt lat="39.51797532" lon="-0.50241807"><ele>73.8</ele><time>2022-11-01T11:49:07.0000000+00:00</time></trkpt><trkpt lat="39.51798588" lon="-0.50240859"><ele>74.0</ele><time>2022-11-01T11:49:08.0000000+00:00</time></trkpt><trkpt lat="39.51799544" lon="-0.50240524"><ele>74.0</ele><time>2022-11-01T11:49:09.0000000+00:00</time></trkpt><trkpt lat="39.51800281" lon="-0.50240524"><ele>74.2</ele><time>2022-11-01T11:49:10.0000000+00:00</time></trkpt><trkpt lat="39.51800549" lon="-0.50240625"><ele>74.2</ele><time>2022-11-01T11:49:11.0000000+00:00</time></trkpt><trkpt lat="39.51800549" lon="-0.50240625"><ele>74.2</ele><time>2022-11-01T11:49:12.0000000+00:00</time></trkpt><trkpt lat="39.51800549" lon="-0.50240625"><ele>74.2</ele><time>2022-11-01T11:49:13.0000000+00:00</time></trkpt><trkpt lat="39.51800424" lon="-0.50240222"><ele>74.8</ele><time>2022-11-01T11:49:14.0000000+00:00</time></trkpt><trkpt lat="39.51800759" lon="-0.50239468"><ele>74.8</ele><time>2022-11-01T11:49:15.0000000+00:00</time></trkpt><trkpt lat="39.51801463" lon="-0.50239376"><ele>74.8</ele><time>2022-11-01T11:49:16.0000000+00:00</time></trkpt><trkpt lat="39.51802285" lon="-0.50239543"><ele>74.8</ele><time>2022-11-01T11:49:17.0000000+00:00</time></trkpt><trkpt lat="39.51802746" lon="-0.50239921"><ele>74.8</ele><time>2022-11-01T11:49:18.0000000+00:00</time></trkpt><trkpt lat="39.51802804" lon="-0.50240264"><ele>74.8</ele><time>2022-11-01T11:49:19.0000000+00:00</time></trkpt><trkpt lat="39.51802804" lon="-0.50240264"><ele>74.8</ele><time>2022-11-01T11:49:20.0000000+00:00</time></trkpt><trkpt lat="39.51802804" lon="-0.50240264"><ele>74.8</ele><time>2022-11-01T11:49:21.0000000+00:00</time></trkpt><trkpt lat="39.51802804" lon="-0.50240264"><ele>74.8</ele><time>2022-11-01T11:49:22.0000000+00:00</time></trkpt><trkpt lat="39.51803525" lon="-0.50239745"><ele>74.8</ele><time>2022-11-01T11:49:23.0000000+00:00</time></trkpt><trkpt lat="39.51804338" lon="-0.50239787"><ele>74.8</ele><time>2022-11-01T11:49:24.0000000+00:00</time></trkpt><trkpt lat="39.51805512" lon="-0.50240457"><ele>74.8</ele><time>2022-11-01T11:49:25.0000000+00:00</time></trkpt><trkpt lat="39.5180635" lon="-0.50241161"><ele>74.8</ele><time>2022-11-01T11:49:26.0000000+00:00</time></trkpt><trkpt lat="39.51807213" lon="-0.50242175"><ele>74.8</ele><time>2022-11-01T11:49:27.0000000+00:00</time></trkpt><trkpt lat="39.51808076" lon="-0.50243366"><ele>74.8</ele><time>2022-11-01T11:49:28.0000000+00:00</time></trkpt><trkpt lat="39.51808906" lon="-0.50244103"><ele>74.8</ele><time>2022-11-01T11:49:29.0000000+00:00</time></trkpt><trkpt lat="39.51810256" lon="-0.50244925"><ele>75.2</ele><time>2022-11-01T11:49:30.0000000+00:00</time></trkpt><trkpt lat="39.51812276" lon="-0.50246014"><ele>75.2</ele><time>2022-11-01T11:49:31.0000000+00:00</time></trkpt><trkpt lat="39.51814413" lon="-0.50247129"><ele>75.4</ele><time>2022-11-01T11:49:32.0000000+00:00</time></trkpt><trkpt lat="39.51816115" lon="-0.50247984"><ele>75.4</ele><time>2022-11-01T11:49:33.0000000+00:00</time></trkpt><trkpt lat="39.51817473" lon="-0.50248479"><ele>75.6</ele><time>2022-11-01T11:49:34.0000000+00:00</time></trkpt><trkpt lat="39.51819141" lon="-0.50249409"><ele>75.6</ele><time>2022-11-01T11:49:35.0000000+00:00</time></trkpt><trkpt lat="39.51820683" lon="-0.50250264"><ele>75.6</ele><time>2022-11-01T11:49:36.0000000+00:00</time></trkpt><trkpt lat="39.51822409" lon="-0.50251261"><ele>75.6</ele><time>2022-11-01T11:49:37.0000000+00:00</time></trkpt><trkpt lat="39.51824228" lon="-0.5025127"><ele>75.6</ele><time>2022-11-01T11:49:38.0000000+00:00</time></trkpt><trkpt lat="39.51825813" lon="-0.50250918"><ele>75.6</ele><time>2022-11-01T11:49:39.0000000+00:00</time></trkpt><trkpt lat="39.51827061" lon="-0.50251144"><ele>75.8</ele><time>2022-11-01T11:49:40.0000000+00:00</time></trkpt><trkpt lat="39.51828344" lon="-0.50249727"><ele>75.8</ele><time>2022-11-01T11:49:41.0000000+00:00</time></trkpt><trkpt lat="39.5182919" lon="-0.50247439"><ele>76.0</ele><time>2022-11-01T11:49:42.0000000+00:00</time></trkpt><trkpt lat="39.51830221" lon="-0.50244531"><ele>76.0</ele><time>2022-11-01T11:49:43.0000000+00:00</time></trkpt><trkpt lat="39.5183116" lon="-0.50240734"><ele>76.0</ele><time>2022-11-01T11:49:44.0000000+00:00</time></trkpt><trkpt lat="39.51832627" lon="-0.50239426"><ele>76.0</ele><time>2022-11-01T11:49:45.0000000+00:00</time></trkpt><trkpt lat="39.51834018" lon="-0.50238236"><ele>76.2</ele><time>2022-11-01T11:49:46.0000000+00:00</time></trkpt><trkpt lat="39.51834681" lon="-0.50236953"><ele>76.2</ele><time>2022-11-01T11:49:47.0000000+00:00</time></trkpt><trkpt lat="39.51836248" lon="-0.50235688"><ele>76.2</ele><time>2022-11-01T11:49:48.0000000+00:00</time></trkpt><trkpt lat="39.51837631" lon="-0.50234816"><ele>76.4</ele><time>2022-11-01T11:49:49.0000000+00:00</time></trkpt><trkpt lat="39.51839006" lon="-0.50233995"><ele>76.6</ele><time>2022-11-01T11:49:50.0000000+00:00</time></trkpt><trkpt lat="39.51840363" lon="-0.5023293"><ele>76.6</ele><time>2022-11-01T11:49:51.0000000+00:00</time></trkpt><trkpt lat="39.51841864" lon="-0.50231715"><ele>76.6</ele><time>2022-11-01T11:49:52.0000000+00:00</time></trkpt><trkpt lat="39.51843867" lon="-0.50230483"><ele>76.8</ele><time>2022-11-01T11:49:53.0000000+00:00</time></trkpt><trkpt lat="39.51845845" lon="-0.50230005"><ele>76.8</ele><time>2022-11-01T11:49:54.0000000+00:00</time></trkpt><trkpt lat="39.51848066" lon="-0.50229427"><ele>77.0</ele><time>2022-11-01T11:49:55.0000000+00:00</time></trkpt><trkpt lat="39.51850405" lon="-0.50228488"><ele>77.0</ele><time>2022-11-01T11:49:56.0000000+00:00</time></trkpt><trkpt lat="39.51852853" lon="-0.50226962"><ele>77.0</ele><time>2022-11-01T11:49:57.0000000+00:00</time></trkpt><trkpt lat="39.51855174" lon="-0.50224951"><ele>77.2</ele><time>2022-11-01T11:49:58.0000000+00:00</time></trkpt><trkpt lat="39.51857085" lon="-0.5022247"><ele>77.2</ele><time>2022-11-01T11:49:59.0000000+00:00</time></trkpt><trkpt lat="39.51859566" lon="-0.50219779"><ele>77.4</ele><time>2022-11-01T11:50:00.0000000+00:00</time></trkpt><trkpt lat="39.51861167" lon="-0.50216711"><ele>77.4</ele><time>2022-11-01T11:50:01.0000000+00:00</time></trkpt><trkpt lat="39.51862274" lon="-0.50213979"><ele>77.6</ele><time>2022-11-01T11:50:02.0000000+00:00</time></trkpt><trkpt lat="39.51863707" lon="-0.50211556"><ele>77.6</ele><time>2022-11-01T11:50:03.0000000+00:00</time></trkpt><trkpt lat="39.51865576" lon="-0.5020957"><ele>77.6</ele><time>2022-11-01T11:50:04.0000000+00:00</time></trkpt><trkpt lat="39.51866892" lon="-0.50208329"><ele>77.6</ele><time>2022-11-01T11:50:05.0000000+00:00</time></trkpt><trkpt lat="39.51867982" lon="-0.50207759"><ele>77.6</ele><time>2022-11-01T11:50:06.0000000+00:00</time></trkpt><trkpt lat="39.51868778" lon="-0.50207801"><ele>77.6</ele><time>2022-11-01T11:50:07.0000000+00:00</time></trkpt><trkpt lat="39.518697" lon="-0.50208665"><ele>77.6</ele><time>2022-11-01T11:50:08.0000000+00:00</time></trkpt><trkpt lat="39.51871703" lon="-0.50210098"><ele>77.4</ele><time>2022-11-01T11:50:09.0000000+00:00</time></trkpt><trkpt lat="39.51873648" lon="-0.5021216"><ele>77.4</ele><time>2022-11-01T11:50:10.0000000+00:00</time></trkpt><trkpt lat="39.5187535" lon="-0.5021454"><ele>76.8</ele><time>2022-11-01T11:50:11.0000000+00:00</time></trkpt><trkpt lat="39.51876364" lon="-0.50216644"><ele>76.4</ele><time>2022-11-01T11:50:12.0000000+00:00</time></trkpt><trkpt lat="39.51876422" lon="-0.50217432"><ele>76.0</ele><time>2022-11-01T11:50:13.0000000+00:00</time></trkpt><trkpt lat="39.51876422" lon="-0.50217432"><ele>75.8</ele><time>2022-11-01T11:50:14.0000000+00:00</time></trkpt><trkpt lat="39.51876422" lon="-0.50217432"><ele>75.4</ele><time>2022-11-01T11:50:15.0000000+00:00</time></trkpt><trkpt lat="39.51876422" lon="-0.50217432"><ele>75.4</ele><time>2022-11-01T11:50:16.0000000+00:00</time></trkpt><trkpt lat="39.51876422" lon="-0.50217432"><ele>75.2</ele><time>2022-11-01T11:50:17.0000000+00:00</time></trkpt><trkpt lat="39.51876422" lon="-0.50217432"><ele>75.2</ele><time>2022-11-01T11:50:18.0000000+00:00</time></trkpt><trkpt lat="39.51876422" lon="-0.50217432"><ele>75.2</ele><time>2022-11-01T11:50:19.0000000+00:00</time></trkpt><trkpt lat="39.51876422" lon="-0.50217432"><ele>75.0</ele><time>2022-11-01T11:50:20.0000000+00:00</time></trkpt><trkpt lat="39.51876422" lon="-0.50217432"><ele>75.0</ele><time>2022-11-01T11:50:21.0000000+00:00</time></trkpt><trkpt lat="39.51876422" lon="-0.50217432"><ele>75.0</ele><time>2022-11-01T11:50:22.0000000+00:00</time></trkpt><trkpt lat="39.51876422" lon="-0.50217432"><ele>75.0</ele><time>2022-11-01T11:50:23.0000000+00:00</time></trkpt><trkpt lat="39.51876422" lon="-0.50217432"><ele>75.0</ele><time>2022-11-01T11:50:24.0000000+00:00</time></trkpt><trkpt lat="39.51876666" lon="-0.50217189"><ele>75.0</ele><time>2022-11-01T11:50:25.0000000+00:00</time></trkpt><trkpt lat="39.51876925" lon="-0.50217181"><ele>75.0</ele><time>2022-11-01T11:50:26.0000000+00:00</time></trkpt><trkpt lat="39.51876925" lon="-0.50217181"><ele>75.0</ele><time>2022-11-01T11:50:27.0000000+00:00</time></trkpt><trkpt lat="39.51876925" lon="-0.50217181"><ele>75.0</ele><time>2022-11-01T11:50:28.0000000+00:00</time></trkpt><trkpt lat="39.51876925" lon="-0.50217181"><ele>75.2</ele><time>2022-11-01T11:50:29.0000000+00:00</time></trkpt><trkpt lat="39.51877118" lon="-0.50217449"><ele>75.2</ele><time>2022-11-01T11:50:30.0000000+00:00</time></trkpt><trkpt lat="39.51878057" lon="-0.50217583"><ele>75.2</ele><time>2022-11-01T11:50:31.0000000+00:00</time></trkpt><trkpt lat="39.51879163" lon="-0.50217851"><ele>75.2</ele><time>2022-11-01T11:50:32.0000000+00:00</time></trkpt><trkpt lat="39.51880798" lon="-0.5021858"><ele>75.0</ele><time>2022-11-01T11:50:33.0000000+00:00</time></trkpt><trkpt lat="39.518827" lon="-0.50219829"><ele>75.0</ele><time>2022-11-01T11:50:34.0000000+00:00</time></trkpt><trkpt lat="39.51884964" lon="-0.50221405"><ele>75.0</ele><time>2022-11-01T11:50:35.0000000+00:00</time></trkpt><trkpt lat="39.51887411" lon="-0.50222453"><ele>74.8</ele><time>2022-11-01T11:50:36.0000000+00:00</time></trkpt><trkpt lat="39.51889641" lon="-0.50223576"><ele>74.8</ele><time>2022-11-01T11:50:37.0000000+00:00</time></trkpt><trkpt lat="39.51891979" lon="-0.50226074"><ele>74.8</ele><time>2022-11-01T11:50:38.0000000+00:00</time></trkpt><trkpt lat="39.51894896" lon="-0.50229234"><ele>74.8</ele><time>2022-11-01T11:50:39.0000000+00:00</time></trkpt><trkpt lat="39.51897402" lon="-0.50231891"><ele>74.8</ele><time>2022-11-01T11:50:40.0000000+00:00</time></trkpt><trkpt lat="39.51900009" lon="-0.50234389"><ele>74.8</ele><time>2022-11-01T11:50:41.0000000+00:00</time></trkpt><trkpt lat="39.51902557" lon="-0.50236945"><ele>75.0</ele><time>2022-11-01T11:50:42.0000000+00:00</time></trkpt><trkpt lat="39.51904862" lon="-0.50239242"><ele>75.0</ele><time>2022-11-01T11:50:43.0000000+00:00</time></trkpt><trkpt lat="39.5190757" lon="-0.5024132"><ele>75.0</ele><time>2022-11-01T11:50:44.0000000+00:00</time></trkpt><trkpt lat="39.51911015" lon="-0.50242863"><ele>75.2</ele><time>2022-11-01T11:50:45.0000000+00:00</time></trkpt><trkpt lat="39.51914795" lon="-0.50243693"><ele>75.4</ele><time>2022-11-01T11:50:46.0000000+00:00</time></trkpt><trkpt lat="39.5191881" lon="-0.50243642"><ele>75.6</ele><time>2022-11-01T11:50:47.0000000+00:00</time></trkpt><trkpt lat="39.51922414" lon="-0.50243315"><ele>75.6</ele><time>2022-11-01T11:50:48.0000000+00:00</time></trkpt><trkpt lat="39.51925641" lon="-0.50243659"><ele>75.8</ele><time>2022-11-01T11:50:49.0000000+00:00</time></trkpt><trkpt lat="39.51928105" lon="-0.50243517"><ele>76.2</ele><time>2022-11-01T11:50:50.0000000+00:00</time></trkpt><trkpt lat="39.51930117" lon="-0.50243508"><ele>76.4</ele><time>2022-11-01T11:50:51.0000000+00:00</time></trkpt><trkpt lat="39.51931994" lon="-0.5024391"><ele>76.8</ele><time>2022-11-01T11:50:52.0000000+00:00</time></trkpt><trkpt lat="39.51933989" lon="-0.50244388"><ele>77.0</ele><time>2022-11-01T11:50:53.0000000+00:00</time></trkpt><trkpt lat="39.51935951" lon="-0.50244489"><ele>77.2</ele><time>2022-11-01T11:50:54.0000000+00:00</time></trkpt><trkpt lat="39.51937619" lon="-0.50244439"><ele>77.4</ele><time>2022-11-01T11:50:55.0000000+00:00</time></trkpt><trkpt lat="39.51939404" lon="-0.50244405"><ele>77.6</ele><time>2022-11-01T11:50:56.0000000+00:00</time></trkpt><trkpt lat="39.51940754" lon="-0.50243978"><ele>77.8</ele><time>2022-11-01T11:50:57.0000000+00:00</time></trkpt><trkpt lat="39.51943084" lon="-0.50243693"><ele>77.8</ele><time>2022-11-01T11:50:58.0000000+00:00</time></trkpt><trkpt lat="39.51944693" lon="-0.50243148"><ele>78.0</ele><time>2022-11-01T11:50:59.0000000+00:00</time></trkpt><trkpt lat="39.51945825" lon="-0.50242469"><ele>78.0</ele><time>2022-11-01T11:51:00.0000000+00:00</time></trkpt><trkpt lat="39.51947308" lon="-0.50241765"><ele>78.4</ele><time>2022-11-01T11:51:01.0000000+00:00</time></trkpt><trkpt lat="39.51948674" lon="-0.5024122"><ele>78.6</ele><time>2022-11-01T11:51:02.0000000+00:00</time></trkpt><trkpt lat="39.51949881" lon="-0.50240281"><ele>78.8</ele><time>2022-11-01T11:51:03.0000000+00:00</time></trkpt><trkpt lat="39.51950871" lon="-0.50239451"><ele>79.0</ele><time>2022-11-01T11:51:04.0000000+00:00</time></trkpt><trkpt lat="39.51952153" lon="-0.50238605"><ele>79.2</ele><time>2022-11-01T11:51:05.0000000+00:00</time></trkpt><trkpt lat="39.51953452" lon="-0.5023842"><ele>79.6</ele><time>2022-11-01T11:51:06.0000000+00:00</time></trkpt><trkpt lat="39.51955028" lon="-0.50238244"><ele>79.8</ele><time>2022-11-01T11:51:07.0000000+00:00</time></trkpt><trkpt lat="39.51956939" lon="-0.50238965"><ele>80.2</ele><time>2022-11-01T11:51:08.0000000+00:00</time></trkpt><trkpt lat="39.51958649" lon="-0.50239309"><ele>80.4</ele><time>2022-11-01T11:51:09.0000000+00:00</time></trkpt><trkpt lat="39.51959797" lon="-0.50239284"><ele>80.4</ele><time>2022-11-01T11:51:10.0000000+00:00</time></trkpt><trkpt lat="39.51960728" lon="-0.50239435"><ele>80.6</ele><time>2022-11-01T11:51:11.0000000+00:00</time></trkpt><trkpt lat="39.51961524" lon="-0.50240424"><ele>80.6</ele><time>2022-11-01T11:51:12.0000000+00:00</time></trkpt><trkpt lat="39.51962002" lon="-0.50241882"><ele>80.6</ele><time>2022-11-01T11:51:13.0000000+00:00</time></trkpt><trkpt lat="39.51962731" lon="-0.50243123"><ele>80.6</ele><time>2022-11-01T11:51:14.0000000+00:00</time></trkpt><trkpt lat="39.51963938" lon="-0.50244631"><ele>80.6</ele><time>2022-11-01T11:51:15.0000000+00:00</time></trkpt><trkpt lat="39.51965572" lon="-0.50246215"><ele>80.8</ele><time>2022-11-01T11:51:16.0000000+00:00</time></trkpt><trkpt lat="39.51966922" lon="-0.50247448"><ele>80.8</ele><time>2022-11-01T11:51:17.0000000+00:00</time></trkpt><trkpt lat="39.51967953" lon="-0.50248529"><ele>81.0</ele><time>2022-11-01T11:51:18.0000000+00:00</time></trkpt><trkpt lat="39.5196926" lon="-0.50249317"><ele>81.0</ele><time>2022-11-01T11:51:19.0000000+00:00</time></trkpt><trkpt lat="39.5197071" lon="-0.50250976"><ele>81.0</ele><time>2022-11-01T11:51:20.0000000+00:00</time></trkpt><trkpt lat="39.51972001" lon="-0.50252418"><ele>81.2</ele><time>2022-11-01T11:51:21.0000000+00:00</time></trkpt><trkpt lat="39.51973342" lon="-0.50254782"><ele>81.2</ele><time>2022-11-01T11:51:22.0000000+00:00</time></trkpt><trkpt lat="39.51974742" lon="-0.50256215"><ele>81.4</ele><time>2022-11-01T11:51:23.0000000+00:00</time></trkpt><trkpt lat="39.51975958" lon="-0.50257238"><ele>81.4</ele><time>2022-11-01T11:51:24.0000000+00:00</time></trkpt><trkpt lat="39.51977097" lon="-0.50258721"><ele>81.4</ele><time>2022-11-01T11:51:25.0000000+00:00</time></trkpt><trkpt lat="39.51978455" lon="-0.50260322"><ele>81.4</ele><time>2022-11-01T11:51:26.0000000+00:00</time></trkpt><trkpt lat="39.51979436" lon="-0.50261697"><ele>81.4</ele><time>2022-11-01T11:51:27.0000000+00:00</time></trkpt><trkpt lat="39.51980626" lon="-0.50263088"><ele>81.4</ele><time>2022-11-01T11:51:28.0000000+00:00</time></trkpt><trkpt lat="39.51982009" lon="-0.50264689"><ele>81.4</ele><time>2022-11-01T11:51:29.0000000+00:00</time></trkpt><trkpt lat="39.51983132" lon="-0.50265511"><ele>81.4</ele><time>2022-11-01T11:51:30.0000000+00:00</time></trkpt><trkpt lat="39.51984482" lon="-0.50266282"><ele>81.6</ele><time>2022-11-01T11:51:31.0000000+00:00</time></trkpt><trkpt lat="39.51986519" lon="-0.50268034"><ele>81.6</ele><time>2022-11-01T11:51:32.0000000+00:00</time></trkpt><trkpt lat="39.51988899" lon="-0.5027054"><ele>81.6</ele><time>2022-11-01T11:51:33.0000000+00:00</time></trkpt><trkpt lat="39.51990626" lon="-0.50273205"><ele>81.6</ele><time>2022-11-01T11:51:34.0000000+00:00</time></trkpt><trkpt lat="39.5199304" lon="-0.50275192"><ele>81.8</ele><time>2022-11-01T11:51:35.0000000+00:00</time></trkpt><trkpt lat="39.51994465" lon="-0.50276063"><ele>82.0</ele><time>2022-11-01T11:51:36.0000000+00:00</time></trkpt><trkpt lat="39.51996024" lon="-0.5027613"><ele>82.0</ele><time>2022-11-01T11:51:37.0000000+00:00</time></trkpt><trkpt lat="39.51997457" lon="-0.50276843"><ele>82.0</ele><time>2022-11-01T11:51:38.0000000+00:00</time></trkpt><trkpt lat="39.51998211" lon="-0.50277924"><ele>82.0</ele><time>2022-11-01T11:51:39.0000000+00:00</time></trkpt><trkpt lat="39.51999913" lon="-0.50279341"><ele>82.2</ele><time>2022-11-01T11:51:40.0000000+00:00</time></trkpt><trkpt lat="39.52001296" lon="-0.50281478"><ele>82.2</ele><time>2022-11-01T11:51:41.0000000+00:00</time></trkpt><trkpt lat="39.52002662" lon="-0.5028354"><ele>82.4</ele><time>2022-11-01T11:51:42.0000000+00:00</time></trkpt><trkpt lat="39.52004079" lon="-0.50285828"><ele>82.4</ele><time>2022-11-01T11:51:43.0000000+00:00</time></trkpt><trkpt lat="39.52005277" lon="-0.50288058"><ele>82.4</ele><time>2022-11-01T11:51:44.0000000+00:00</time></trkpt><trkpt lat="39.52006845" lon="-0.50289525"><ele>82.4</ele><time>2022-11-01T11:51:45.0000000+00:00</time></trkpt><trkpt lat="39.52010281" lon="-0.50291687"><ele>82.4</ele><time>2022-11-01T11:51:46.0000000+00:00</time></trkpt><trkpt lat="39.52012804" lon="-0.502924"><ele>82.4</ele><time>2022-11-01T11:51:47.0000000+00:00</time></trkpt><trkpt lat="39.52016702" lon="-0.50292819"><ele>82.2</ele><time>2022-11-01T11:51:48.0000000+00:00</time></trkpt><trkpt lat="39.52019502" lon="-0.50292936"><ele>82.2</ele><time>2022-11-01T11:51:49.0000000+00:00</time></trkpt><trkpt lat="39.52021455" lon="-0.50294487"><ele>82.2</ele><time>2022-11-01T11:51:50.0000000+00:00</time></trkpt><trkpt lat="39.52022301" lon="-0.50296867"><ele>82.0</ele><time>2022-11-01T11:51:51.0000000+00:00</time></trkpt><trkpt lat="39.52023659" lon="-0.50300773"><ele>82.0</ele><time>2022-11-01T11:51:52.0000000+00:00</time></trkpt><trkpt lat="39.52025679" lon="-0.50304277"><ele>81.8</ele><time>2022-11-01T11:51:53.0000000+00:00</time></trkpt><trkpt lat="39.52028562" lon="-0.5030566"><ele>81.8</ele><time>2022-11-01T11:51:54.0000000+00:00</time></trkpt><trkpt lat="39.52031756" lon="-0.50308636"><ele>81.6</ele><time>2022-11-01T11:51:55.0000000+00:00</time></trkpt><trkpt lat="39.52034522" lon="-0.50311242"><ele>81.4</ele><time>2022-11-01T11:51:56.0000000+00:00</time></trkpt><trkpt lat="39.52036567" lon="-0.50313254"><ele>81.4</ele><time>2022-11-01T11:51:57.0000000+00:00</time></trkpt><trkpt lat="39.52038436" lon="-0.50315408"><ele>81.2</ele><time>2022-11-01T11:51:58.0000000+00:00</time></trkpt><trkpt lat="39.52039836" lon="-0.50317864"><ele>81.2</ele><time>2022-11-01T11:51:59.0000000+00:00</time></trkpt><trkpt lat="39.52041412" lon="-0.50319566"><ele>81.2</ele><time>2022-11-01T11:52:00.0000000+00:00</time></trkpt><trkpt lat="39.52042418" lon="-0.50320705"><ele>81.4</ele><time>2022-11-01T11:52:01.0000000+00:00</time></trkpt><trkpt lat="39.52042719" lon="-0.50320865"><ele>81.4</ele><time>2022-11-01T11:52:02.0000000+00:00</time></trkpt><trkpt lat="39.52042719" lon="-0.50320865"><ele>81.6</ele><time>2022-11-01T11:52:03.0000000+00:00</time></trkpt><trkpt lat="39.52042719" lon="-0.50320865"><ele>81.6</ele><time>2022-11-01T11:52:04.0000000+00:00</time></trkpt><trkpt lat="39.52042719" lon="-0.50320865"><ele>81.6</ele><time>2022-11-01T11:52:05.0000000+00:00</time></trkpt><trkpt lat="39.52042719" lon="-0.50320865"><ele>81.6</ele><time>2022-11-01T11:52:06.0000000+00:00</time></trkpt><trkpt lat="39.52042719" lon="-0.50320865"><ele>81.6</ele><time>2022-11-01T11:52:07.0000000+00:00</time></trkpt><trkpt lat="39.52042719" lon="-0.50320865"><ele>81.4</ele><time>2022-11-01T11:52:08.0000000+00:00</time></trkpt><trkpt lat="39.52042719" lon="-0.50320865"><ele>81.4</ele><time>2022-11-01T11:52:09.0000000+00:00</time></trkpt><trkpt lat="39.52042719" lon="-0.50320865"><ele>81.4</ele><time>2022-11-01T11:52:10.0000000+00:00</time></trkpt><trkpt lat="39.52042719" lon="-0.50320865"><ele>81.2</ele><time>2022-11-01T11:52:11.0000000+00:00</time></trkpt><trkpt lat="39.52042719" lon="-0.50320865"><ele>81.2</ele><time>2022-11-01T11:52:12.0000000+00:00</time></trkpt><trkpt lat="39.52042719" lon="-0.50320865"><ele>81.2</ele><time>2022-11-01T11:52:13.0000000+00:00</time></trkpt><trkpt lat="39.52042719" lon="-0.50320865"><ele>81.2</ele><time>2022-11-01T11:52:14.0000000+00:00</time></trkpt><trkpt lat="39.52042719" lon="-0.50320865"><ele>81.0</ele><time>2022-11-01T11:52:15.0000000+00:00</time></trkpt><trkpt lat="39.52042719" lon="-0.50320865"><ele>81.0</ele><time>2022-11-01T11:52:16.0000000+00:00</time></trkpt><trkpt lat="39.52042719" lon="-0.50320865"><ele>81.0</ele><time>2022-11-01T11:52:17.0000000+00:00</time></trkpt><trkpt lat="39.52042719" lon="-0.50320865"><ele>81.0</ele><time>2022-11-01T11:52:18.0000000+00:00</time></trkpt><trkpt lat="39.52042719" lon="-0.50320865"><ele>81.0</ele><time>2022-11-01T11:52:19.0000000+00:00</time></trkpt><trkpt lat="39.52042719" lon="-0.50320865"><ele>81.0</ele><time>2022-11-01T11:52:20.0000000+00:00</time></trkpt><trkpt lat="39.5204303" lon="-0.50321016"><ele>81.0</ele><time>2022-11-01T11:52:21.0000000+00:00</time></trkpt><trkpt lat="39.5204303" lon="-0.50320588"><ele>81.0</ele><time>2022-11-01T11:52:22.0000000+00:00</time></trkpt><trkpt lat="39.52043365" lon="-0.50320596"><ele>81.0</ele><time>2022-11-01T11:52:23.0000000+00:00</time></trkpt><trkpt lat="39.52043893" lon="-0.50320647"><ele>81.0</ele><time>2022-11-01T11:52:24.0000000+00:00</time></trkpt><trkpt lat="39.52044153" lon="-0.50320806"><ele>81.0</ele><time>2022-11-01T11:52:25.0000000+00:00</time></trkpt><trkpt lat="39.52044153" lon="-0.50320806"><ele>81.0</ele><time>2022-11-01T11:52:26.0000000+00:00</time></trkpt><trkpt lat="39.52044153" lon="-0.50320806"><ele>81.0</ele><time>2022-11-01T11:52:27.0000000+00:00</time></trkpt><trkpt lat="39.52044153" lon="-0.50320806"><ele>81.0</ele><time>2022-11-01T11:52:28.0000000+00:00</time></trkpt><trkpt lat="39.52044153" lon="-0.50320806"><ele>80.8</ele><time>2022-11-01T11:52:29.0000000+00:00</time></trkpt><trkpt lat="39.52044153" lon="-0.50320806"><ele>80.8</ele><time>2022-11-01T11:52:30.0000000+00:00</time></trkpt><trkpt lat="39.52044035" lon="-0.50320404"><ele>80.8</ele><time>2022-11-01T11:52:31.0000000+00:00</time></trkpt><trkpt lat="39.52043432" lon="-0.50319155"><ele>80.8</ele><time>2022-11-01T11:52:32.0000000+00:00</time></trkpt><trkpt lat="39.52042719" lon="-0.5031768"><ele>80.8</ele><time>2022-11-01T11:52:33.0000000+00:00</time></trkpt><trkpt lat="39.5204163" lon="-0.50316171"><ele>80.8</ele><time>2022-11-01T11:52:34.0000000+00:00</time></trkpt><trkpt lat="39.52040456" lon="-0.50314612"><ele>80.6</ele><time>2022-11-01T11:52:35.0000000+00:00</time></trkpt><trkpt lat="39.52039476" lon="-0.50313153"><ele>80.6</ele><time>2022-11-01T11:52:36.0000000+00:00</time></trkpt><trkpt lat="39.52038093" lon="-0.50311997"><ele>80.6</ele><time>2022-11-01T11:52:37.0000000+00:00</time></trkpt><trkpt lat="39.52035871" lon="-0.50310362"><ele>80.6</ele><time>2022-11-01T11:52:38.0000000+00:00</time></trkpt><trkpt lat="39.52034002" lon="-0.50309071"><ele>80.6</ele><time>2022-11-01T11:52:39.0000000+00:00</time></trkpt><trkpt lat="39.52032829" lon="-0.5030851"><ele>80.6</ele><time>2022-11-01T11:52:40.0000000+00:00</time></trkpt><trkpt lat="39.52031027" lon="-0.50307864"><ele>80.6</ele><time>2022-11-01T11:52:41.0000000+00:00</time></trkpt><trkpt lat="39.52029627" lon="-0.50307144"><ele>80.6</ele><time>2022-11-01T11:52:42.0000000+00:00</time></trkpt><trkpt lat="39.52028319" lon="-0.50306322"><ele>80.8</ele><time>2022-11-01T11:52:43.0000000+00:00</time></trkpt><trkpt lat="39.52026685" lon="-0.50305543"><ele>80.8</ele><time>2022-11-01T11:52:44.0000000+00:00</time></trkpt><trkpt lat="39.52025" lon="-0.5030561"><ele>80.8</ele><time>2022-11-01T11:52:45.0000000+00:00</time></trkpt><trkpt lat="39.52023516" lon="-0.50306674"><ele>80.8</ele><time>2022-11-01T11:52:46.0000000+00:00</time></trkpt><trkpt lat="39.52021773" lon="-0.50308962"><ele>80.8</ele><time>2022-11-01T11:52:47.0000000+00:00</time></trkpt><trkpt lat="39.52020122" lon="-0.5031177"><ele>80.8</ele><time>2022-11-01T11:52:48.0000000+00:00</time></trkpt><trkpt lat="39.52018169" lon="-0.50314796"><ele>80.6</ele><time>2022-11-01T11:52:49.0000000+00:00</time></trkpt><trkpt lat="39.52015654" lon="-0.50317411"><ele>80.6</ele><time>2022-11-01T11:52:50.0000000+00:00</time></trkpt><trkpt lat="39.52013106" lon="-0.50320479"><ele>80.4</ele><time>2022-11-01T11:52:51.0000000+00:00</time></trkpt><trkpt lat="39.52010256" lon="-0.50323438"><ele>80.2</ele><time>2022-11-01T11:52:52.0000000+00:00</time></trkpt><trkpt lat="39.52006694" lon="-0.50327696"><ele>79.8</ele><time>2022-11-01T11:52:53.0000000+00:00</time></trkpt><trkpt lat="39.52003492" lon="-0.5033208"><ele>79.8</ele><time>2022-11-01T11:52:54.0000000+00:00</time></trkpt><trkpt lat="39.52000357" lon="-0.5033581"><ele>79.6</ele><time>2022-11-01T11:52:55.0000000+00:00</time></trkpt><trkpt lat="39.51997331" lon="-0.50340193"><ele>79.4</ele><time>2022-11-01T11:52:56.0000000+00:00</time></trkpt><trkpt lat="39.51994674" lon="-0.50343923"><ele>79.4</ele><time>2022-11-01T11:52:57.0000000+00:00</time></trkpt><trkpt lat="39.51992621" lon="-0.50347352"><ele>79.2</ele><time>2022-11-01T11:52:58.0000000+00:00</time></trkpt><trkpt lat="39.5199107" lon="-0.50350419"><ele>79.0</ele><time>2022-11-01T11:52:59.0000000+00:00</time></trkpt><trkpt lat="39.51989109" lon="-0.50352716"><ele>79.0</ele><time>2022-11-01T11:53:00.0000000+00:00</time></trkpt><trkpt lat="39.51986787" lon="-0.50353521"><ele>78.8</ele><time>2022-11-01T11:53:01.0000000+00:00</time></trkpt><trkpt lat="39.51984742" lon="-0.50353353"><ele>78.8</ele><time>2022-11-01T11:53:02.0000000+00:00</time></trkpt><trkpt lat="39.51983174" lon="-0.50354811"><ele>78.8</ele><time>2022-11-01T11:53:03.0000000+00:00</time></trkpt><trkpt lat="39.51981967" lon="-0.50356513"><ele>78.6</ele><time>2022-11-01T11:53:04.0000000+00:00</time></trkpt><trkpt lat="39.51981213" lon="-0.5035834"><ele>78.6</ele><time>2022-11-01T11:53:05.0000000+00:00</time></trkpt><trkpt lat="39.51981297" lon="-0.5035974"><ele>78.4</ele><time>2022-11-01T11:53:06.0000000+00:00</time></trkpt><trkpt lat="39.51982219" lon="-0.50360888"><ele>78.4</ele><time>2022-11-01T11:53:07.0000000+00:00</time></trkpt><trkpt lat="39.5198335" lon="-0.50360972"><ele>78.4</ele><time>2022-11-01T11:53:08.0000000+00:00</time></trkpt><trkpt lat="39.51984298" lon="-0.50360503"><ele>78.2</ele><time>2022-11-01T11:53:09.0000000+00:00</time></trkpt><trkpt lat="39.5198532" lon="-0.5035979"><ele>78.2</ele><time>2022-11-01T11:53:10.0000000+00:00</time></trkpt><trkpt lat="39.51986988" lon="-0.50359128"><ele>78.2</ele><time>2022-11-01T11:53:11.0000000+00:00</time></trkpt><trkpt lat="39.51988413" lon="-0.50358399"><ele>78.2</ele><time>2022-11-01T11:53:12.0000000+00:00</time></trkpt><trkpt lat="39.51989763" lon="-0.50356756"><ele>78.0</ele><time>2022-11-01T11:53:13.0000000+00:00</time></trkpt><trkpt lat="39.5199159" lon="-0.50355725"><ele>77.8</ele><time>2022-11-01T11:53:14.0000000+00:00</time></trkpt><trkpt lat="39.51993258" lon="-0.50354744"><ele>77.6</ele><time>2022-11-01T11:53:15.0000000+00:00</time></trkpt><trkpt lat="39.519948" lon="-0.50353906"><ele>77.6</ele><time>2022-11-01T11:53:16.0000000+00:00</time></trkpt><trkpt lat="39.51996611" lon="-0.50353713"><ele>77.2</ele><time>2022-11-01T11:53:17.0000000+00:00</time></trkpt><trkpt lat="39.51998823" lon="-0.50353588"><ele>77.0</ele><time>2022-11-01T11:53:18.0000000+00:00</time></trkpt><trkpt lat="39.52001137" lon="-0.50353093"><ele>76.8</ele><time>2022-11-01T11:53:19.0000000+00:00</time></trkpt><trkpt lat="39.52002746" lon="-0.50353244"><ele>76.2</ele><time>2022-11-01T11:53:20.0000000+00:00</time></trkpt><trkpt lat="39.52004448" lon="-0.5035363"><ele>76.0</ele><time>2022-11-01T11:53:21.0000000+00:00</time></trkpt><trkpt lat="39.5200573" lon="-0.50354526"><ele>75.8</ele><time>2022-11-01T11:53:22.0000000+00:00</time></trkpt><trkpt lat="39.52006912" lon="-0.50355641"><ele>75.8</ele><time>2022-11-01T11:53:23.0000000+00:00</time></trkpt><trkpt lat="39.52007532" lon="-0.5035601"><ele>75.8</ele><time>2022-11-01T11:53:24.0000000+00:00</time></trkpt><trkpt lat="39.52007532" lon="-0.5035601"><ele>75.8</ele><time>2022-11-01T11:53:25.0000000+00:00</time></trkpt><trkpt lat="39.52007532" lon="-0.5035601"><ele>75.8</ele><time>2022-11-01T11:53:26.0000000+00:00</time></trkpt><trkpt lat="39.52007532" lon="-0.5035601"><ele>75.8</ele><time>2022-11-01T11:53:27.0000000+00:00</time></trkpt><trkpt lat="39.52007532" lon="-0.5035601"><ele>75.8</ele><time>2022-11-01T11:53:28.0000000+00:00</time></trkpt><trkpt lat="39.52007532" lon="-0.5035601"><ele>75.8</ele><time>2022-11-01T11:53:29.0000000+00:00</time></trkpt><trkpt lat="39.52007532" lon="-0.5035601"><ele>75.8</ele><time>2022-11-01T11:53:30.0000000+00:00</time></trkpt><trkpt lat="39.52007725" lon="-0.50356102"><ele>75.8</ele><time>2022-11-01T11:53:31.0000000+00:00</time></trkpt><trkpt lat="39.52008396" lon="-0.50356387"><ele>76.2</ele><time>2022-11-01T11:53:32.0000000+00:00</time></trkpt><trkpt lat="39.52008622" lon="-0.50356722"><ele>76.4</ele><time>2022-11-01T11:53:33.0000000+00:00</time></trkpt><trkpt lat="39.52008622" lon="-0.50356722"><ele>76.4</ele><time>2022-11-01T11:53:34.0000000+00:00</time></trkpt><trkpt lat="39.52008622" lon="-0.50356722"><ele>76.4</ele><time>2022-11-01T11:53:35.0000000+00:00</time></trkpt><trkpt lat="39.52008622" lon="-0.50356722"><ele>76.4</ele><time>2022-11-01T11:53:36.0000000+00:00</time></trkpt><trkpt lat="39.52008622" lon="-0.50356722"><ele>76.4</ele><time>2022-11-01T11:53:37.0000000+00:00</time></trkpt><trkpt lat="39.52008622" lon="-0.50356722"><ele>76.4</ele><time>2022-11-01T11:53:38.0000000+00:00</time></trkpt><trkpt lat="39.52008622" lon="-0.50356722"><ele>76.4</ele><time>2022-11-01T11:53:39.0000000+00:00</time></trkpt><trkpt lat="39.52008622" lon="-0.50356722"><ele>76.4</ele><time>2022-11-01T11:53:40.0000000+00:00</time></trkpt><trkpt lat="39.52008622" lon="-0.50356722"><ele>76.4</ele><time>2022-11-01T11:53:41.0000000+00:00</time></trkpt><trkpt lat="39.52008622" lon="-0.50356722"><ele>76.4</ele><time>2022-11-01T11:53:42.0000000+00:00</time></trkpt><trkpt lat="39.52008622" lon="-0.50356722"><ele>76.4</ele><time>2022-11-01T11:53:43.0000000+00:00</time></trkpt><trkpt lat="39.52008622" lon="-0.50356722"><ele>76.4</ele><time>2022-11-01T11:53:44.0000000+00:00</time></trkpt><trkpt lat="39.52008622" lon="-0.50356722"><ele>76.4</ele><time>2022-11-01T11:53:45.0000000+00:00</time></trkpt><trkpt lat="39.52008622" lon="-0.50356722"><ele>76.4</ele><time>2022-11-01T11:53:46.0000000+00:00</time></trkpt><trkpt lat="39.52008622" lon="-0.50356722"><ele>76.4</ele><time>2022-11-01T11:53:47.0000000+00:00</time></trkpt><trkpt lat="39.52009678" lon="-0.50358139"><ele>76.4</ele><time>2022-11-01T11:53:48.0000000+00:00</time></trkpt><trkpt lat="39.52009938" lon="-0.50358449"><ele>76.4</ele><time>2022-11-01T11:53:49.0000000+00:00</time></trkpt><trkpt lat="39.52009938" lon="-0.50358449"><ele>76.6</ele><time>2022-11-01T11:53:50.0000000+00:00</time></trkpt><trkpt lat="39.52009938" lon="-0.50358449"><ele>76.6</ele><time>2022-11-01T11:53:51.0000000+00:00</time></trkpt><trkpt lat="39.52009938" lon="-0.50358449"><ele>76.6</ele><time>2022-11-01T11:53:52.0000000+00:00</time></trkpt><trkpt lat="39.52009938" lon="-0.50358449"><ele>76.8</ele><time>2022-11-01T11:53:53.0000000+00:00</time></trkpt><trkpt lat="39.52009938" lon="-0.50358449"><ele>76.8</ele><time>2022-11-01T11:53:54.0000000+00:00</time></trkpt><trkpt lat="39.52009938" lon="-0.50358449"><ele>76.8</ele><time>2022-11-01T11:53:55.0000000+00:00</time></trkpt><trkpt lat="39.52009963" lon="-0.50359321"><ele>76.8</ele><time>2022-11-01T11:53:56.0000000+00:00</time></trkpt><trkpt lat="39.5200998" lon="-0.50359899"><ele>76.6</ele><time>2022-11-01T11:53:57.0000000+00:00</time></trkpt><trkpt lat="39.52010189" lon="-0.50361056"><ele>76.6</ele><time>2022-11-01T11:53:58.0000000+00:00</time></trkpt><trkpt lat="39.52010064" lon="-0.50361509"><ele>76.6</ele><time>2022-11-01T11:53:59.0000000+00:00</time></trkpt><trkpt lat="39.52010064" lon="-0.50361509"><ele>76.6</ele><time>2022-11-01T11:54:00.0000000+00:00</time></trkpt><trkpt lat="39.52010064" lon="-0.50361509"><ele>76.6</ele><time>2022-11-01T11:54:01.0000000+00:00</time></trkpt><trkpt lat="39.52010064" lon="-0.50361509"><ele>76.6</ele><time>2022-11-01T11:54:02.0000000+00:00</time></trkpt><trkpt lat="39.52010064" lon="-0.50361509"><ele>76.6</ele><time>2022-11-01T11:54:03.0000000+00:00</time></trkpt><trkpt lat="39.52010265" lon="-0.50361601"><ele>76.6</ele><time>2022-11-01T11:54:04.0000000+00:00</time></trkpt><trkpt lat="39.52010466" lon="-0.503614"><ele>76.6</ele><time>2022-11-01T11:54:05.0000000+00:00</time></trkpt><trkpt lat="39.52010918" lon="-0.50360486"><ele>76.6</ele><time>2022-11-01T11:54:06.0000000+00:00</time></trkpt><trkpt lat="39.52011757" lon="-0.50359296"><ele>76.6</ele><time>2022-11-01T11:54:07.0000000+00:00</time></trkpt><trkpt lat="39.52012519" lon="-0.50358801"><ele>76.6</ele><time>2022-11-01T11:54:08.0000000+00:00</time></trkpt><trkpt lat="39.52013173" lon="-0.50358441"><ele>76.6</ele><time>2022-11-01T11:54:09.0000000+00:00</time></trkpt><trkpt lat="39.52014003" lon="-0.50358038"><ele>76.6</ele><time>2022-11-01T11:54:10.0000000+00:00</time></trkpt><trkpt lat="39.52015202" lon="-0.50358064"><ele>77.0</ele><time>2022-11-01T11:54:11.0000000+00:00</time></trkpt><trkpt lat="39.52016291" lon="-0.50357963"><ele>77.2</ele><time>2022-11-01T11:54:12.0000000+00:00</time></trkpt><trkpt lat="39.52016995" lon="-0.50357762"><ele>77.4</ele><time>2022-11-01T11:54:13.0000000+00:00</time></trkpt><trkpt lat="39.52017272" lon="-0.50357661"><ele>77.4</ele><time>2022-11-01T11:54:14.0000000+00:00</time></trkpt><trkpt lat="39.52017272" lon="-0.50357661"><ele>77.6</ele><time>2022-11-01T11:54:15.0000000+00:00</time></trkpt><trkpt lat="39.52017272" lon="-0.50357661"><ele>77.6</ele><time>2022-11-01T11:54:16.0000000+00:00</time></trkpt><trkpt lat="39.52017272" lon="-0.50357661"><ele>77.6</ele><time>2022-11-01T11:54:17.0000000+00:00</time></trkpt><trkpt lat="39.52017272" lon="-0.50357661"><ele>77.6</ele><time>2022-11-01T11:54:18.0000000+00:00</time></trkpt><trkpt lat="39.52017272" lon="-0.50357661"><ele>77.6</ele><time>2022-11-01T11:54:19.0000000+00:00</time></trkpt><trkpt lat="39.52017272" lon="-0.50357661"><ele>77.6</ele><time>2022-11-01T11:54:20.0000000+00:00</time></trkpt><trkpt lat="39.52017272" lon="-0.50357661"><ele>77.6</ele><time>2022-11-01T11:54:21.0000000+00:00</time></trkpt><trkpt lat="39.52017272" lon="-0.50357661"><ele>77.4</ele><time>2022-11-01T11:54:22.0000000+00:00</time></trkpt><trkpt lat="39.52017272" lon="-0.50357661"><ele>77.4</ele><time>2022-11-01T11:54:23.0000000+00:00</time></trkpt><trkpt lat="39.52017272" lon="-0.50357661"><ele>77.4</ele><time>2022-11-01T11:54:24.0000000+00:00</time></trkpt><trkpt lat="39.52017272" lon="-0.50357661"><ele>77.4</ele><time>2022-11-01T11:54:25.0000000+00:00</time></trkpt><trkpt lat="39.52017272" lon="-0.50357661"><ele>77.4</ele><time>2022-11-01T11:54:26.0000000+00:00</time></trkpt><trkpt lat="39.52017272" lon="-0.50357661"><ele>77.4</ele><time>2022-11-01T11:54:27.0000000+00:00</time></trkpt><trkpt lat="39.52017272" lon="-0.50357661"><ele>77.4</ele><time>2022-11-01T11:54:28.0000000+00:00</time></trkpt><trkpt lat="39.52017272" lon="-0.50357661"><ele>77.4</ele><time>2022-11-01T11:54:29.0000000+00:00</time></trkpt><trkpt lat="39.52017272" lon="-0.50357661"><ele>77.4</ele><time>2022-11-01T11:54:30.0000000+00:00</time></trkpt><trkpt lat="39.52017272" lon="-0.50357661"><ele>77.6</ele><time>2022-11-01T11:54:31.0000000+00:00</time></trkpt><trkpt lat="39.52017272" lon="-0.50357661"><ele>77.6</ele><time>2022-11-01T11:54:32.0000000+00:00</time></trkpt><trkpt lat="39.52017272" lon="-0.50357661"><ele>77.6</ele><time>2022-11-01T11:54:33.0000000+00:00</time></trkpt><trkpt lat="39.52017272" lon="-0.50357661"><ele>77.8</ele><time>2022-11-01T11:54:34.0000000+00:00</time></trkpt><trkpt lat="39.52017272" lon="-0.50357661"><ele>77.8</ele><time>2022-11-01T11:54:35.0000000+00:00</time></trkpt><trkpt lat="39.52017272" lon="-0.50357661"><ele>77.8</ele><time>2022-11-01T11:54:36.0000000+00:00</time></trkpt><trkpt lat="39.52017272" lon="-0.50357661"><ele>77.8</ele><time>2022-11-01T11:54:37.0000000+00:00</time></trkpt><trkpt lat="39.52017272" lon="-0.50357661"><ele>77.8</ele><time>2022-11-01T11:54:38.0000000+00:00</time></trkpt><trkpt lat="39.52017272" lon="-0.50357661"><ele>78.0</ele><time>2022-11-01T11:54:39.0000000+00:00</time></trkpt><trkpt lat="39.52017272" lon="-0.50357661"><ele>78.0</ele><time>2022-11-01T11:54:40.0000000+00:00</time></trkpt><trkpt lat="39.52017272" lon="-0.50357661"><ele>78.0</ele><time>2022-11-01T11:54:41.0000000+00:00</time></trkpt><trkpt lat="39.52017272" lon="-0.50357661"><ele>78.0</ele><time>2022-11-01T11:54:42.0000000+00:00</time></trkpt><trkpt lat="39.52017272" lon="-0.50357661"><ele>78.0</ele><time>2022-11-01T11:54:43.0000000+00:00</time></trkpt><trkpt lat="39.52017272" lon="-0.50357661"><ele>78.0</ele><time>2022-11-01T11:54:44.0000000+00:00</time></trkpt><trkpt lat="39.52017272" lon="-0.50357661"><ele>78.2</ele><time>2022-11-01T11:54:45.0000000+00:00</time></trkpt><trkpt lat="39.52017272" lon="-0.50357661"><ele>78.2</ele><time>2022-11-01T11:54:46.0000000+00:00</time></trkpt><trkpt lat="39.52017272" lon="-0.50357661"><ele>78.2</ele><time>2022-11-01T11:54:47.0000000+00:00</time></trkpt><trkpt lat="39.52017272" lon="-0.50357661"><ele>78.2</ele><time>2022-11-01T11:54:48.0000000+00:00</time></trkpt><trkpt lat="39.52017272" lon="-0.50357661"><ele>78.2</ele><time>2022-11-01T11:54:49.0000000+00:00</time></trkpt><trkpt lat="39.52017272" lon="-0.50357661"><ele>78.2</ele><time>2022-11-01T11:54:50.0000000+00:00</time></trkpt><trkpt lat="39.52017272" lon="-0.50357661"><ele>78.2</ele><time>2022-11-01T11:54:51.0000000+00:00</time></trkpt><trkpt lat="39.52017272" lon="-0.50357661"><ele>78.4</ele><time>2022-11-01T11:54:52.0000000+00:00</time></trkpt><trkpt lat="39.52017272" lon="-0.50357661"><ele>78.4</ele><time>2022-11-01T11:54:53.0000000+00:00</time></trkpt><trkpt lat="39.52017272" lon="-0.50357661"><ele>78.4</ele><time>2022-11-01T11:54:54.0000000+00:00</time></trkpt><trkpt lat="39.52017272" lon="-0.50357661"><ele>78.4</ele><time>2022-11-01T11:54:55.0000000+00:00</time></trkpt><trkpt lat="39.52017272" lon="-0.50357661"><ele>78.6</ele><time>2022-11-01T11:54:56.0000000+00:00</time></trkpt><trkpt lat="39.52017272" lon="-0.50357661"><ele>78.8</ele><time>2022-11-01T11:54:57.0000000+00:00</time></trkpt><trkpt lat="39.52017272" lon="-0.50357661"><ele>78.8</ele><time>2022-11-01T11:54:58.0000000+00:00</time></trkpt><trkpt lat="39.52017456" lon="-0.50357519"><ele>78.8</ele><time>2022-11-01T11:54:59.0000000+00:00</time></trkpt><trkpt lat="39.52017993" lon="-0.50356538"><ele>78.8</ele><time>2022-11-01T11:55:00.0000000+00:00</time></trkpt><trkpt lat="39.52018571" lon="-0.50355583"><ele>79.0</ele><time>2022-11-01T11:55:01.0000000+00:00</time></trkpt><trkpt lat="39.52019015" lon="-0.50354786"><ele>79.0</ele><time>2022-11-01T11:55:02.0000000+00:00</time></trkpt><trkpt lat="39.52020038" lon="-0.50353831"><ele>79.0</ele><time>2022-11-01T11:55:03.0000000+00:00</time></trkpt><trkpt lat="39.52021379" lon="-0.50353353"><ele>79.0</ele><time>2022-11-01T11:55:04.0000000+00:00</time></trkpt><trkpt lat="39.52022519" lon="-0.50353085"><ele>79.0</ele><time>2022-11-01T11:55:05.0000000+00:00</time></trkpt><trkpt lat="39.52023575" lon="-0.50353102"><ele>79.0</ele><time>2022-11-01T11:55:06.0000000+00:00</time></trkpt><trkpt lat="39.52024472" lon="-0.50353269"><ele>79.0</ele><time>2022-11-01T11:55:07.0000000+00:00</time></trkpt><trkpt lat="39.52025369" lon="-0.50354074"><ele>79.0</ele><time>2022-11-01T11:55:08.0000000+00:00</time></trkpt><trkpt lat="39.5202588" lon="-0.5035451"><ele>79.2</ele><time>2022-11-01T11:55:09.0000000+00:00</time></trkpt><trkpt lat="39.5202635" lon="-0.50354434"><ele>79.2</ele><time>2022-11-01T11:55:10.0000000+00:00</time></trkpt><trkpt lat="39.5202723" lon="-0.50354258"><ele>79.4</ele><time>2022-11-01T11:55:11.0000000+00:00</time></trkpt><trkpt lat="39.52028194" lon="-0.50353445"><ele>79.4</ele><time>2022-11-01T11:55:12.0000000+00:00</time></trkpt><trkpt lat="39.52028931" lon="-0.50352724"><ele>79.6</ele><time>2022-11-01T11:55:13.0000000+00:00</time></trkpt><trkpt lat="39.52029929" lon="-0.50352322"><ele>79.6</ele><time>2022-11-01T11:55:14.0000000+00:00</time></trkpt><trkpt lat="39.52030876" lon="-0.50352565"><ele>79.8</ele><time>2022-11-01T11:55:15.0000000+00:00</time></trkpt><trkpt lat="39.52032016" lon="-0.50353244"><ele>79.8</ele><time>2022-11-01T11:55:16.0000000+00:00</time></trkpt><trkpt lat="39.52033449" lon="-0.50353755"><ele>79.8</ele><time>2022-11-01T11:55:17.0000000+00:00</time></trkpt><trkpt lat="39.52034916" lon="-0.50353898"><ele>80.0</ele><time>2022-11-01T11:55:18.0000000+00:00</time></trkpt><trkpt lat="39.5203567" lon="-0.50354401"><ele>80.2</ele><time>2022-11-01T11:55:19.0000000+00:00</time></trkpt><trkpt lat="39.52035846" lon="-0.50354627"><ele>80.2</ele><time>2022-11-01T11:55:20.0000000+00:00</time></trkpt><trkpt lat="39.52036198" lon="-0.50354644"><ele>80.4</ele><time>2022-11-01T11:55:21.0000000+00:00</time></trkpt><trkpt lat="39.52036953" lon="-0.50353697"><ele>80.6</ele><time>2022-11-01T11:55:22.0000000+00:00</time></trkpt><trkpt lat="39.52037799" lon="-0.50352808"><ele>80.6</ele><time>2022-11-01T11:55:23.0000000+00:00</time></trkpt><trkpt lat="39.52038755" lon="-0.50352171"><ele>80.6</ele><time>2022-11-01T11:55:24.0000000+00:00</time></trkpt><trkpt lat="39.52039861" lon="-0.50351786"><ele>80.8</ele><time>2022-11-01T11:55:25.0000000+00:00</time></trkpt><trkpt lat="39.52040792" lon="-0.50350939"><ele>80.8</ele><time>2022-11-01T11:55:26.0000000+00:00</time></trkpt><trkpt lat="39.52041529" lon="-0.50349908"><ele>81.0</ele><time>2022-11-01T11:55:27.0000000+00:00</time></trkpt><trkpt lat="39.52042116" lon="-0.50348818"><ele>81.2</ele><time>2022-11-01T11:55:28.0000000+00:00</time></trkpt><trkpt lat="39.52042694" lon="-0.50348081"><ele>81.2</ele><time>2022-11-01T11:55:29.0000000+00:00</time></trkpt><trkpt lat="39.5204339" lon="-0.50347553"><ele>81.2</ele><time>2022-11-01T11:55:30.0000000+00:00</time></trkpt><trkpt lat="39.52043817" lon="-0.50347268"><ele>81.4</ele><time>2022-11-01T11:55:31.0000000+00:00</time></trkpt><trkpt lat="39.52043817" lon="-0.50347268"><ele>81.6</ele><time>2022-11-01T11:55:32.0000000+00:00</time></trkpt><trkpt lat="39.52043817" lon="-0.50347268"><ele>81.8</ele><time>2022-11-01T11:55:33.0000000+00:00</time></trkpt><trkpt lat="39.52044077" lon="-0.5034658"><ele>82.0</ele><time>2022-11-01T11:55:34.0000000+00:00</time></trkpt><trkpt lat="39.5204489" lon="-0.5034627"><ele>82.0</ele><time>2022-11-01T11:55:35.0000000+00:00</time></trkpt><trkpt lat="39.52045695" lon="-0.5034591"><ele>82.2</ele><time>2022-11-01T11:55:36.0000000+00:00</time></trkpt><trkpt lat="39.52046097" lon="-0.50345692"><ele>82.4</ele><time>2022-11-01T11:55:37.0000000+00:00</time></trkpt><trkpt lat="39.52046391" lon="-0.50345306"><ele>82.6</ele><time>2022-11-01T11:55:38.0000000+00:00</time></trkpt><trkpt lat="39.52046793" lon="-0.50344292"><ele>82.6</ele><time>2022-11-01T11:55:39.0000000+00:00</time></trkpt><trkpt lat="39.5204738" lon="-0.50343152"><ele>82.8</ele><time>2022-11-01T11:55:40.0000000+00:00</time></trkpt><trkpt lat="39.52047631" lon="-0.50342783"><ele>82.8</ele><time>2022-11-01T11:55:41.0000000+00:00</time></trkpt><trkpt lat="39.52047631" lon="-0.50342783"><ele>83.2</ele><time>2022-11-01T11:55:42.0000000+00:00</time></trkpt><trkpt lat="39.52047631" lon="-0.50342783"><ele>83.4</ele><time>2022-11-01T11:55:43.0000000+00:00</time></trkpt><trkpt lat="39.52048117" lon="-0.50342557"><ele>83.6</ele><time>2022-11-01T11:55:44.0000000+00:00</time></trkpt><trkpt lat="39.52048352" lon="-0.50342532"><ele>83.6</ele><time>2022-11-01T11:55:45.0000000+00:00</time></trkpt><trkpt lat="39.52048754" lon="-0.50342088"><ele>83.6</ele><time>2022-11-01T11:55:46.0000000+00:00</time></trkpt><trkpt lat="39.52049567" lon="-0.50342079"><ele>83.8</ele><time>2022-11-01T11:55:47.0000000+00:00</time></trkpt><trkpt lat="39.52050691" lon="-0.50341819"><ele>84.0</ele><time>2022-11-01T11:55:48.0000000+00:00</time></trkpt><trkpt lat="39.52052116" lon="-0.50341576"><ele>84.4</ele><time>2022-11-01T11:55:49.0000000+00:00</time></trkpt><trkpt lat="39.520538" lon="-0.50341669"><ele>84.6</ele><time>2022-11-01T11:55:50.0000000+00:00</time></trkpt><trkpt lat="39.52054714" lon="-0.50341845"><ele>84.6</ele><time>2022-11-01T11:55:51.0000000+00:00</time></trkpt><trkpt lat="39.52055527" lon="-0.50342071"><ele>84.8</ele><time>2022-11-01T11:55:52.0000000+00:00</time></trkpt><trkpt lat="39.5205608" lon="-0.50342876"><ele>85.0</ele><time>2022-11-01T11:55:53.0000000+00:00</time></trkpt><trkpt lat="39.5205655" lon="-0.50343387"><ele>85.2</ele><time>2022-11-01T11:55:54.0000000+00:00</time></trkpt><trkpt lat="39.52057622" lon="-0.50344284"><ele>85.4</ele><time>2022-11-01T11:55:55.0000000+00:00</time></trkpt><trkpt lat="39.52059207" lon="-0.5034508"><ele>85.4</ele><time>2022-11-01T11:55:56.0000000+00:00</time></trkpt><trkpt lat="39.52060573" lon="-0.50345315"><ele>85.6</ele><time>2022-11-01T11:55:57.0000000+00:00</time></trkpt><trkpt lat="39.52061696" lon="-0.50345642"><ele>85.8</ele><time>2022-11-01T11:55:58.0000000+00:00</time></trkpt><trkpt lat="39.52062408" lon="-0.50346337"><ele>86.0</ele><time>2022-11-01T11:55:59.0000000+00:00</time></trkpt><trkpt lat="39.52063372" lon="-0.50346974"><ele>86.2</ele><time>2022-11-01T11:56:00.0000000+00:00</time></trkpt><trkpt lat="39.52064236" lon="-0.50347301"><ele>86.2</ele><time>2022-11-01T11:56:01.0000000+00:00</time></trkpt><trkpt lat="39.5206437" lon="-0.50347603"><ele>86.6</ele><time>2022-11-01T11:56:02.0000000+00:00</time></trkpt><trkpt lat="39.5206437" lon="-0.50347603"><ele>86.6</ele><time>2022-11-01T11:56:03.0000000+00:00</time></trkpt><trkpt lat="39.52064588" lon="-0.50347435"><ele>86.8</ele><time>2022-11-01T11:56:04.0000000+00:00</time></trkpt><trkpt lat="39.52064806" lon="-0.50347486"><ele>86.8</ele><time>2022-11-01T11:56:05.0000000+00:00</time></trkpt><trkpt lat="39.52064814" lon="-0.50347913"><ele>86.8</ele><time>2022-11-01T11:56:06.0000000+00:00</time></trkpt><trkpt lat="39.52065141" lon="-0.50349204"><ele>86.8</ele><time>2022-11-01T11:56:07.0000000+00:00</time></trkpt><trkpt lat="39.52066013" lon="-0.50350461"><ele>86.8</ele><time>2022-11-01T11:56:08.0000000+00:00</time></trkpt><trkpt lat="39.52067278" lon="-0.5035176"><ele>86.6</ele><time>2022-11-01T11:56:09.0000000+00:00</time></trkpt><trkpt lat="39.52068653" lon="-0.50353227"><ele>86.6</ele><time>2022-11-01T11:56:10.0000000+00:00</time></trkpt><trkpt lat="39.52070002" lon="-0.50354761"><ele>86.6</ele><time>2022-11-01T11:56:11.0000000+00:00</time></trkpt><trkpt lat="39.52070765" lon="-0.50356085"><ele>86.6</ele><time>2022-11-01T11:56:12.0000000+00:00</time></trkpt><trkpt lat="39.52072232" lon="-0.50357301"><ele>86.6</ele><time>2022-11-01T11:56:13.0000000+00:00</time></trkpt><trkpt lat="39.52073808" lon="-0.50358139"><ele>86.6</ele><time>2022-11-01T11:56:14.0000000+00:00</time></trkpt><trkpt lat="39.52074814" lon="-0.50358793"><ele>86.6</ele><time>2022-11-01T11:56:15.0000000+00:00</time></trkpt><trkpt lat="39.52076172" lon="-0.50359413"><ele>86.8</ele><time>2022-11-01T11:56:16.0000000+00:00</time></trkpt><trkpt lat="39.52077429" lon="-0.50360084"><ele>87.0</ele><time>2022-11-01T11:56:17.0000000+00:00</time></trkpt><trkpt lat="39.52078653" lon="-0.5036093"><ele>87.2</ele><time>2022-11-01T11:56:18.0000000+00:00</time></trkpt><trkpt lat="39.52080153" lon="-0.50362942"><ele>87.4</ele><time>2022-11-01T11:56:19.0000000+00:00</time></trkpt><trkpt lat="39.5208162" lon="-0.50365071"><ele>87.6</ele><time>2022-11-01T11:56:20.0000000+00:00</time></trkpt><trkpt lat="39.5208198" lon="-0.50365926"><ele>87.6</ele><time>2022-11-01T11:56:21.0000000+00:00</time></trkpt><trkpt lat="39.5208198" lon="-0.50365926"><ele>87.6</ele><time>2022-11-01T11:56:22.0000000+00:00</time></trkpt><trkpt lat="39.5208198" lon="-0.50365926"><ele>87.8</ele><time>2022-11-01T11:56:23.0000000+00:00</time></trkpt><trkpt lat="39.5208198" lon="-0.50365926"><ele>87.8</ele><time>2022-11-01T11:56:24.0000000+00:00</time></trkpt><trkpt lat="39.52082165" lon="-0.50365943"><ele>87.8</ele><time>2022-11-01T11:56:25.0000000+00:00</time></trkpt><trkpt lat="39.52082668" lon="-0.50366093"><ele>87.8</ele><time>2022-11-01T11:56:26.0000000+00:00</time></trkpt><trkpt lat="39.5208317" lon="-0.50366923"><ele>87.8</ele><time>2022-11-01T11:56:27.0000000+00:00</time></trkpt><trkpt lat="39.52083908" lon="-0.50368072"><ele>87.8</ele><time>2022-11-01T11:56:28.0000000+00:00</time></trkpt><trkpt lat="39.52084051" lon="-0.50368549"><ele>87.8</ele><time>2022-11-01T11:56:29.0000000+00:00</time></trkpt><trkpt lat="39.52084051" lon="-0.50368549"><ele>87.8</ele><time>2022-11-01T11:56:30.0000000+00:00</time></trkpt><trkpt lat="39.52084227" lon="-0.50368843"><ele>87.8</ele><time>2022-11-01T11:56:31.0000000+00:00</time></trkpt><trkpt lat="39.52084109" lon="-0.50369262"><ele>87.8</ele><time>2022-11-01T11:56:32.0000000+00:00</time></trkpt><trkpt lat="39.52084109" lon="-0.50369262"><ele>87.8</ele><time>2022-11-01T11:56:33.0000000+00:00</time></trkpt><trkpt lat="39.52084109" lon="-0.50369262"><ele>87.8</ele><time>2022-11-01T11:56:34.0000000+00:00</time></trkpt><trkpt lat="39.52084017" lon="-0.50369052"><ele>87.6</ele><time>2022-11-01T11:56:35.0000000+00:00</time></trkpt><trkpt lat="39.5208395" lon="-0.5036865"><ele>87.6</ele><time>2022-11-01T11:56:36.0000000+00:00</time></trkpt><trkpt lat="39.5208395" lon="-0.5036865"><ele>87.6</ele><time>2022-11-01T11:56:37.0000000+00:00</time></trkpt><trkpt lat="39.5208395" lon="-0.5036865"><ele>87.4</ele><time>2022-11-01T11:56:38.0000000+00:00</time></trkpt><trkpt lat="39.5208395" lon="-0.5036865"><ele>87.4</ele><time>2022-11-01T11:56:39.0000000+00:00</time></trkpt><trkpt lat="39.52083665" lon="-0.50368633"><ele>87.4</ele><time>2022-11-01T11:56:40.0000000+00:00</time></trkpt><trkpt lat="39.52083346" lon="-0.50368616"><ele>87.4</ele><time>2022-11-01T11:56:41.0000000+00:00</time></trkpt><trkpt lat="39.52083346" lon="-0.50368616"><ele>87.4</ele><time>2022-11-01T11:56:42.0000000+00:00</time></trkpt><trkpt lat="39.52083346" lon="-0.50368616"><ele>87.2</ele><time>2022-11-01T11:56:43.0000000+00:00</time></trkpt><trkpt lat="39.52083346" lon="-0.50368616"><ele>87.2</ele><time>2022-11-01T11:56:44.0000000+00:00</time></trkpt><trkpt lat="39.52083346" lon="-0.50368616"><ele>87.2</ele><time>2022-11-01T11:56:45.0000000+00:00</time></trkpt><trkpt lat="39.52083464" lon="-0.50368482"><ele>87.2</ele><time>2022-11-01T11:56:46.0000000+00:00</time></trkpt><trkpt lat="39.5208369" lon="-0.50368826"><ele>87.2</ele><time>2022-11-01T11:56:47.0000000+00:00</time></trkpt><trkpt lat="39.5208369" lon="-0.50368826"><ele>87.0</ele><time>2022-11-01T11:56:48.0000000+00:00</time></trkpt><trkpt lat="39.5208369" lon="-0.50368826"><ele>87.2</ele><time>2022-11-01T11:56:49.0000000+00:00</time></trkpt><trkpt lat="39.5208369" lon="-0.50368826"><ele>87.2</ele><time>2022-11-01T11:56:50.0000000+00:00</time></trkpt><trkpt lat="39.5208369" lon="-0.50368826"><ele>87.2</ele><time>2022-11-01T11:56:51.0000000+00:00</time></trkpt><trkpt lat="39.5208333" lon="-0.50368742"><ele>87.2</ele><time>2022-11-01T11:56:52.0000000+00:00</time></trkpt><trkpt lat="39.52083305" lon="-0.50368398"><ele>87.2</ele><time>2022-11-01T11:56:53.0000000+00:00</time></trkpt><trkpt lat="39.52083305" lon="-0.50368398"><ele>87.2</ele><time>2022-11-01T11:56:54.0000000+00:00</time></trkpt><trkpt lat="39.52083305" lon="-0.50368398"><ele>87.2</ele><time>2022-11-01T11:56:55.0000000+00:00</time></trkpt><trkpt lat="39.52083305" lon="-0.50368398"><ele>87.2</ele><time>2022-11-01T11:56:56.0000000+00:00</time></trkpt><trkpt lat="39.52083305" lon="-0.50368398"><ele>87.4</ele><time>2022-11-01T11:56:57.0000000+00:00</time></trkpt><trkpt lat="39.52083305" lon="-0.50368398"><ele>87.4</ele><time>2022-11-01T11:56:58.0000000+00:00</time></trkpt><trkpt lat="39.52083305" lon="-0.50368398"><ele>87.4</ele><time>2022-11-01T11:56:59.0000000+00:00</time></trkpt><trkpt lat="39.52083305" lon="-0.50368398"><ele>87.4</ele><time>2022-11-01T11:57:00.0000000+00:00</time></trkpt><trkpt lat="39.52083305" lon="-0.50368398"><ele>87.4</ele><time>2022-11-01T11:57:01.0000000+00:00</time></trkpt><trkpt lat="39.52083623" lon="-0.50368558"><ele>87.2</ele><time>2022-11-01T11:57:02.0000000+00:00</time></trkpt><trkpt lat="39.52083883" lon="-0.50368424"><ele>87.2</ele><time>2022-11-01T11:57:03.0000000+00:00</time></trkpt><trkpt lat="39.52083883" lon="-0.50368424"><ele>87.2</ele><time>2022-11-01T11:57:04.0000000+00:00</time></trkpt><trkpt lat="39.52083883" lon="-0.50368424"><ele>87.2</ele><time>2022-11-01T11:57:05.0000000+00:00</time></trkpt><trkpt lat="39.52083883" lon="-0.50368424"><ele>87.2</ele><time>2022-11-01T11:57:06.0000000+00:00</time></trkpt><trkpt lat="39.52083883" lon="-0.50368424"><ele>87.2</ele><time>2022-11-01T11:57:07.0000000+00:00</time></trkpt><trkpt lat="39.52083883" lon="-0.50368424"><ele>87.2</ele><time>2022-11-01T11:57:08.0000000+00:00</time></trkpt><trkpt lat="39.52083883" lon="-0.50368424"><ele>87.0</ele><time>2022-11-01T11:57:09.0000000+00:00</time></trkpt><trkpt lat="39.52083883" lon="-0.50368424"><ele>87.0</ele><time>2022-11-01T11:57:10.0000000+00:00</time></trkpt><trkpt lat="39.52083883" lon="-0.50368424"><ele>87.2</ele><time>2022-11-01T11:57:11.0000000+00:00</time></trkpt><trkpt lat="39.52083883" lon="-0.50368424"><ele>87.2</ele><time>2022-11-01T11:57:12.0000000+00:00</time></trkpt><trkpt lat="39.52083883" lon="-0.50368424"><ele>87.2</ele><time>2022-11-01T11:57:13.0000000+00:00</time></trkpt><trkpt lat="39.52084327" lon="-0.50368692"><ele>87.2</ele><time>2022-11-01T11:57:14.0000000+00:00</time></trkpt><trkpt lat="39.52084579" lon="-0.50368533"><ele>87.2</ele><time>2022-11-01T11:57:15.0000000+00:00</time></trkpt><trkpt lat="39.52084579" lon="-0.50368533"><ele>87.2</ele><time>2022-11-01T11:57:16.0000000+00:00</time></trkpt><trkpt lat="39.52084579" lon="-0.50368533"><ele>87.2</ele><time>2022-11-01T11:57:17.0000000+00:00</time></trkpt><trkpt lat="39.52084579" lon="-0.50368533"><ele>87.2</ele><time>2022-11-01T11:57:18.0000000+00:00</time></trkpt><trkpt lat="39.52084579" lon="-0.50368533"><ele>87.2</ele><time>2022-11-01T11:57:19.0000000+00:00</time></trkpt><trkpt lat="39.52084579" lon="-0.50368533"><ele>87.2</ele><time>2022-11-01T11:57:20.0000000+00:00</time></trkpt><trkpt lat="39.52084579" lon="-0.50368533"><ele>87.2</ele><time>2022-11-01T11:57:21.0000000+00:00</time></trkpt><trkpt lat="39.52084579" lon="-0.50368533"><ele>87.2</ele><time>2022-11-01T11:57:22.0000000+00:00</time></trkpt><trkpt lat="39.52084579" lon="-0.50368533"><ele>87.0</ele><time>2022-11-01T11:57:23.0000000+00:00</time></trkpt><trkpt lat="39.52084579" lon="-0.50368533"><ele>87.0</ele><time>2022-11-01T11:57:24.0000000+00:00</time></trkpt><trkpt lat="39.52084579" lon="-0.50368533"><ele>87.0</ele><time>2022-11-01T11:57:25.0000000+00:00</time></trkpt><trkpt lat="39.52084579" lon="-0.50368533"><ele>87.0</ele><time>2022-11-01T11:57:26.0000000+00:00</time></trkpt><trkpt lat="39.52084579" lon="-0.50368533"><ele>87.0</ele><time>2022-11-01T11:57:27.0000000+00:00</time></trkpt><trkpt lat="39.52084579" lon="-0.50368533"><ele>87.0</ele><time>2022-11-01T11:57:28.0000000+00:00</time></trkpt><trkpt lat="39.52084579" lon="-0.50368533"><ele>87.0</ele><time>2022-11-01T11:57:29.0000000+00:00</time></trkpt><trkpt lat="39.52084579" lon="-0.50368533"><ele>87.0</ele><time>2022-11-01T11:57:30.0000000+00:00</time></trkpt><trkpt lat="39.52084579" lon="-0.50368533"><ele>87.0</ele><time>2022-11-01T11:57:31.0000000+00:00</time></trkpt><trkpt lat="39.52084579" lon="-0.50368533"><ele>87.0</ele><time>2022-11-01T11:57:32.0000000+00:00</time></trkpt><trkpt lat="39.52084579" lon="-0.50368533"><ele>87.0</ele><time>2022-11-01T11:57:33.0000000+00:00</time></trkpt><trkpt lat="39.52084579" lon="-0.50368533"><ele>87.0</ele><time>2022-11-01T11:57:34.0000000+00:00</time></trkpt><trkpt lat="39.52084579" lon="-0.50368533"><ele>87.2</ele><time>2022-11-01T11:57:35.0000000+00:00</time></trkpt><trkpt lat="39.52084579" lon="-0.50368533"><ele>87.0</ele><time>2022-11-01T11:57:36.0000000+00:00</time></trkpt><trkpt lat="39.52084579" lon="-0.50368533"><ele>87.0</ele><time>2022-11-01T11:57:37.0000000+00:00</time></trkpt><trkpt lat="39.52084579" lon="-0.50368533"><ele>87.0</ele><time>2022-11-01T11:57:38.0000000+00:00</time></trkpt><trkpt lat="39.52084562" lon="-0.50368683"><ele>87.0</ele><time>2022-11-01T11:57:39.0000000+00:00</time></trkpt><trkpt lat="39.52084696" lon="-0.50368331"><ele>87.0</ele><time>2022-11-01T11:57:40.0000000+00:00</time></trkpt><trkpt lat="39.52084696" lon="-0.50368331"><ele>87.0</ele><time>2022-11-01T11:57:41.0000000+00:00</time></trkpt><trkpt lat="39.52084696" lon="-0.50368331"><ele>87.0</ele><time>2022-11-01T11:57:42.0000000+00:00</time></trkpt><trkpt lat="39.52084696" lon="-0.50368331"><ele>87.0</ele><time>2022-11-01T11:57:43.0000000+00:00</time></trkpt><trkpt lat="39.52084696" lon="-0.50368331"><ele>87.0</ele><time>2022-11-01T11:57:44.0000000+00:00</time></trkpt><trkpt lat="39.52084696" lon="-0.50368331"><ele>87.0</ele><time>2022-11-01T11:57:45.0000000+00:00</time></trkpt><trkpt lat="39.52084696" lon="-0.50368331"><ele>87.0</ele><time>2022-11-01T11:57:46.0000000+00:00</time></trkpt><trkpt lat="39.52084838" lon="-0.50368776"><ele>87.0</ele><time>2022-11-01T11:57:47.0000000+00:00</time></trkpt><trkpt lat="39.52084922" lon="-0.50369136"><ele>87.0</ele><time>2022-11-01T11:57:48.0000000+00:00</time></trkpt><trkpt lat="39.52084922" lon="-0.50369136"><ele>87.0</ele><time>2022-11-01T11:57:49.0000000+00:00</time></trkpt><trkpt lat="39.52084922" lon="-0.50369136"><ele>87.0</ele><time>2022-11-01T11:57:50.0000000+00:00</time></trkpt><trkpt lat="39.52084922" lon="-0.50369136"><ele>87.0</ele><time>2022-11-01T11:57:51.0000000+00:00</time></trkpt><trkpt lat="39.52084922" lon="-0.50369136"><ele>87.0</ele><time>2022-11-01T11:57:52.0000000+00:00</time></trkpt><trkpt lat="39.52084922" lon="-0.50369136"><ele>87.0</ele><time>2022-11-01T11:57:53.0000000+00:00</time></trkpt><trkpt lat="39.52084922" lon="-0.50369136"><ele>87.0</ele><time>2022-11-01T11:57:54.0000000+00:00</time></trkpt><trkpt lat="39.52084922" lon="-0.50369136"><ele>87.0</ele><time>2022-11-01T11:57:55.0000000+00:00</time></trkpt><trkpt lat="39.52084922" lon="-0.50369136"><ele>87.0</ele><time>2022-11-01T11:57:56.0000000+00:00</time></trkpt><trkpt lat="39.52084922" lon="-0.50369136"><ele>87.0</ele><time>2022-11-01T11:57:57.0000000+00:00</time></trkpt><trkpt lat="39.52084922" lon="-0.50369136"><ele>87.0</ele><time>2022-11-01T11:57:58.0000000+00:00</time></trkpt><trkpt lat="39.52084922" lon="-0.50369136"><ele>87.0</ele><time>2022-11-01T11:57:59.0000000+00:00</time></trkpt><trkpt lat="39.52084922" lon="-0.50369136"><ele>87.0</ele><time>2022-11-01T11:58:00.0000000+00:00</time></trkpt><trkpt lat="39.52084922" lon="-0.50369136"><ele>87.0</ele><time>2022-11-01T11:58:01.0000000+00:00</time></trkpt><trkpt lat="39.52084922" lon="-0.50369136"><ele>87.0</ele><time>2022-11-01T11:58:02.0000000+00:00</time></trkpt><trkpt lat="39.52084922" lon="-0.50369136"><ele>87.0</ele><time>2022-11-01T11:58:03.0000000+00:00</time></trkpt><trkpt lat="39.52084922" lon="-0.50369136"><ele>87.0</ele><time>2022-11-01T11:58:04.0000000+00:00</time></trkpt><trkpt lat="39.52084922" lon="-0.50369136"><ele>87.0</ele><time>2022-11-01T11:58:05.0000000+00:00</time></trkpt><trkpt lat="39.52084922" lon="-0.50369136"><ele>87.0</ele><time>2022-11-01T11:58:06.0000000+00:00</time></trkpt><trkpt lat="39.52084922" lon="-0.50369136"><ele>87.0</ele><time>2022-11-01T11:58:07.0000000+00:00</time></trkpt><trkpt lat="39.52084922" lon="-0.50369136"><ele>87.0</ele><time>2022-11-01T11:58:08.0000000+00:00</time></trkpt><trkpt lat="39.52084922" lon="-0.50369136"><ele>87.0</ele><time>2022-11-01T11:58:09.0000000+00:00</time></trkpt><trkpt lat="39.52084922" lon="-0.50369136"><ele>87.0</ele><time>2022-11-01T11:58:10.0000000+00:00</time></trkpt><trkpt lat="39.52084922" lon="-0.50369136"><ele>87.0</ele><time>2022-11-01T11:58:11.0000000+00:00</time></trkpt><trkpt lat="39.52084922" lon="-0.50369136"><ele>87.0</ele><time>2022-11-01T11:58:12.0000000+00:00</time></trkpt><trkpt lat="39.52084922" lon="-0.50369136"><ele>87.0</ele><time>2022-11-01T11:58:13.0000000+00:00</time></trkpt><trkpt lat="39.52084922" lon="-0.50369136"><ele>87.0</ele><time>2022-11-01T11:58:14.0000000+00:00</time></trkpt><trkpt lat="39.52084922" lon="-0.50369136"><ele>87.0</ele><time>2022-11-01T11:58:15.0000000+00:00</time></trkpt><trkpt lat="39.52084922" lon="-0.50369136"><ele>87.0</ele><time>2022-11-01T11:58:16.0000000+00:00</time></trkpt><trkpt lat="39.52084922" lon="-0.50369136"><ele>87.0</ele><time>2022-11-01T11:58:17.0000000+00:00</time></trkpt><trkpt lat="39.52084922" lon="-0.50369136"><ele>87.0</ele><time>2022-11-01T11:58:18.0000000+00:00</time></trkpt><trkpt lat="39.52084922" lon="-0.50369136"><ele>87.0</ele><time>2022-11-01T11:58:19.0000000+00:00</time></trkpt><trkpt lat="39.52084922" lon="-0.50369136"><ele>87.0</ele><time>2022-11-01T11:58:20.0000000+00:00</time></trkpt><trkpt lat="39.52084922" lon="-0.50369136"><ele>87.0</ele><time>2022-11-01T11:58:21.0000000+00:00</time></trkpt><trkpt lat="39.52084922" lon="-0.50369136"><ele>87.0</ele><time>2022-11-01T11:58:22.0000000+00:00</time></trkpt><trkpt lat="39.52084922" lon="-0.50369136"><ele>87.0</ele><time>2022-11-01T11:58:23.0000000+00:00</time></trkpt><trkpt lat="39.52084922" lon="-0.50369136"><ele>87.0</ele><time>2022-11-01T11:58:24.0000000+00:00</time></trkpt><trkpt lat="39.52084922" lon="-0.50369136"><ele>87.0</ele><time>2022-11-01T11:58:25.0000000+00:00</time></trkpt><trkpt lat="39.52084922" lon="-0.50369136"><ele>87.0</ele><time>2022-11-01T11:58:26.0000000+00:00</time></trkpt><trkpt lat="39.52084922" lon="-0.50369136"><ele>87.0</ele><time>2022-11-01T11:58:27.0000000+00:00</time></trkpt><trkpt lat="39.52084922" lon="-0.50369136"><ele>87.0</ele><time>2022-11-01T11:58:28.0000000+00:00</time></trkpt><trkpt lat="39.52085082" lon="-0.50369228"><ele>87.0</ele><time>2022-11-01T11:58:29.0000000+00:00</time></trkpt><trkpt lat="39.52084746" lon="-0.5036948"><ele>87.0</ele><time>2022-11-01T11:58:30.0000000+00:00</time></trkpt><trkpt lat="39.52084285" lon="-0.5036953"><ele>87.0</ele><time>2022-11-01T11:58:31.0000000+00:00</time></trkpt><trkpt lat="39.52084562" lon="-0.50369907"><ele>87.0</ele><time>2022-11-01T11:58:32.0000000+00:00</time></trkpt><trkpt lat="39.52085056" lon="-0.50370561"><ele>87.0</ele><time>2022-11-01T11:58:33.0000000+00:00</time></trkpt><trkpt lat="39.52085358" lon="-0.50370829"><ele>87.0</ele><time>2022-11-01T11:58:34.0000000+00:00</time></trkpt><trkpt lat="39.52085358" lon="-0.50370829"><ele>87.0</ele><time>2022-11-01T11:58:35.0000000+00:00</time></trkpt><trkpt lat="39.52085358" lon="-0.50370829"><ele>87.0</ele><time>2022-11-01T11:58:36.0000000+00:00</time></trkpt><trkpt lat="39.52085358" lon="-0.50370829"><ele>87.0</ele><time>2022-11-01T11:58:37.0000000+00:00</time></trkpt><trkpt lat="39.52085358" lon="-0.50370829"><ele>87.0</ele><time>2022-11-01T11:58:38.0000000+00:00</time></trkpt><trkpt lat="39.52085358" lon="-0.50370829"><ele>87.0</ele><time>2022-11-01T11:58:39.0000000+00:00</time></trkpt><trkpt lat="39.52085358" lon="-0.50370829"><ele>87.0</ele><time>2022-11-01T11:58:40.0000000+00:00</time></trkpt><trkpt lat="39.52085358" lon="-0.50370829"><ele>87.0</ele><time>2022-11-01T11:58:41.0000000+00:00</time></trkpt><trkpt lat="39.52085358" lon="-0.50370829"><ele>87.0</ele><time>2022-11-01T11:58:42.0000000+00:00</time></trkpt><trkpt lat="39.52085358" lon="-0.50370829"><ele>87.0</ele><time>2022-11-01T11:58:43.0000000+00:00</time></trkpt><trkpt lat="39.52085358" lon="-0.50370829"><ele>87.0</ele><time>2022-11-01T11:58:44.0000000+00:00</time></trkpt><trkpt lat="39.52085945" lon="-0.50371341"><ele>87.0</ele><time>2022-11-01T11:58:45.0000000+00:00</time></trkpt><trkpt lat="39.5208623" lon="-0.50371466"><ele>87.0</ele><time>2022-11-01T11:58:46.0000000+00:00</time></trkpt><trkpt lat="39.5208623" lon="-0.50371466"><ele>87.0</ele><time>2022-11-01T11:58:47.0000000+00:00</time></trkpt><trkpt lat="39.5208623" lon="-0.50371466"><ele>87.0</ele><time>2022-11-01T11:58:48.0000000+00:00</time></trkpt><trkpt lat="39.5208623" lon="-0.50371466"><ele>87.0</ele><time>2022-11-01T11:58:49.0000000+00:00</time></trkpt><trkpt lat="39.5208623" lon="-0.50371466"><ele>87.0</ele><time>2022-11-01T11:58:50.0000000+00:00</time></trkpt><trkpt lat="39.5208623" lon="-0.50371466"><ele>87.0</ele><time>2022-11-01T11:58:51.0000000+00:00</time></trkpt><trkpt lat="39.5208623" lon="-0.50371466"><ele>87.0</ele><time>2022-11-01T11:58:52.0000000+00:00</time></trkpt><trkpt lat="39.5208623" lon="-0.50371466"><ele>87.0</ele><time>2022-11-01T11:58:53.0000000+00:00</time></trkpt><trkpt lat="39.5208623" lon="-0.50371466"><ele>87.0</ele><time>2022-11-01T11:58:54.0000000+00:00</time></trkpt><trkpt lat="39.5208623" lon="-0.50371466"><ele>87.0</ele><time>2022-11-01T11:58:55.0000000+00:00</time></trkpt><trkpt lat="39.5208623" lon="-0.50371466"><ele>87.0</ele><time>2022-11-01T11:58:56.0000000+00:00</time></trkpt><trkpt lat="39.5208623" lon="-0.50371466"><ele>87.0</ele><time>2022-11-01T11:58:57.0000000+00:00</time></trkpt><trkpt lat="39.5208623" lon="-0.50371466"><ele>87.0</ele><time>2022-11-01T11:58:58.0000000+00:00</time></trkpt><trkpt lat="39.5208623" lon="-0.50371466"><ele>87.0</ele><time>2022-11-01T11:58:59.0000000+00:00</time></trkpt><trkpt lat="39.5208623" lon="-0.50371466"><ele>87.0</ele><time>2022-11-01T11:59:00.0000000+00:00</time></trkpt><trkpt lat="39.5208623" lon="-0.50371466"><ele>87.0</ele><time>2022-11-01T11:59:01.0000000+00:00</time></trkpt><trkpt lat="39.5208623" lon="-0.50371466"><ele>87.0</ele><time>2022-11-01T11:59:02.0000000+00:00</time></trkpt><trkpt lat="39.5208623" lon="-0.50371466"><ele>87.0</ele><time>2022-11-01T11:59:03.0000000+00:00</time></trkpt><trkpt lat="39.5208623" lon="-0.50371466"><ele>87.0</ele><time>2022-11-01T11:59:04.0000000+00:00</time></trkpt><trkpt lat="39.5208623" lon="-0.50371466"><ele>87.0</ele><time>2022-11-01T11:59:05.0000000+00:00</time></trkpt><trkpt lat="39.5208623" lon="-0.50371466"><ele>87.0</ele><time>2022-11-01T11:59:06.0000000+00:00</time></trkpt><trkpt lat="39.5208623" lon="-0.50371466"><ele>87.0</ele><time>2022-11-01T11:59:07.0000000+00:00</time></trkpt><trkpt lat="39.5208623" lon="-0.50371466"><ele>87.0</ele><time>2022-11-01T11:59:08.0000000+00:00</time></trkpt><trkpt lat="39.5208623" lon="-0.50371466"><ele>87.0</ele><time>2022-11-01T11:59:09.0000000+00:00</time></trkpt><trkpt lat="39.5208623" lon="-0.50371466"><ele>87.0</ele><time>2022-11-01T11:59:10.0000000+00:00</time></trkpt><trkpt lat="39.5208623" lon="-0.50371466"><ele>87.0</ele><time>2022-11-01T11:59:11.0000000+00:00</time></trkpt><trkpt lat="39.5208623" lon="-0.50371466"><ele>87.0</ele><time>2022-11-01T11:59:12.0000000+00:00</time></trkpt><trkpt lat="39.5208623" lon="-0.50371466"><ele>87.0</ele><time>2022-11-01T11:59:13.0000000+00:00</time></trkpt><trkpt lat="39.5208623" lon="-0.50371466"><ele>87.0</ele><time>2022-11-01T11:59:14.0000000+00:00</time></trkpt><trkpt lat="39.5208623" lon="-0.50371466"><ele>87.0</ele><time>2022-11-01T11:59:15.0000000+00:00</time></trkpt><trkpt lat="39.5208623" lon="-0.50371466"><ele>87.0</ele><time>2022-11-01T11:59:16.0000000+00:00</time></trkpt><trkpt lat="39.5208623" lon="-0.50371466"><ele>87.0</ele><time>2022-11-01T11:59:17.0000000+00:00</time></trkpt><trkpt lat="39.5208623" lon="-0.50371466"><ele>87.0</ele><time>2022-11-01T11:59:18.0000000+00:00</time></trkpt><trkpt lat="39.5208623" lon="-0.50371466"><ele>87.0</ele><time>2022-11-01T11:59:19.0000000+00:00</time></trkpt><trkpt lat="39.5208623" lon="-0.50371466"><ele>87.0</ele><time>2022-11-01T11:59:20.0000000+00:00</time></trkpt><trkpt lat="39.5208623" lon="-0.50371466"><ele>87.0</ele><time>2022-11-01T11:59:21.0000000+00:00</time></trkpt><trkpt lat="39.5208623" lon="-0.50371466"><ele>87.0</ele><time>2022-11-01T11:59:22.0000000+00:00</time></trkpt><trkpt lat="39.5208623" lon="-0.50371466"><ele>87.0</ele><time>2022-11-01T11:59:23.0000000+00:00</time></trkpt><trkpt lat="39.5208623" lon="-0.50371466"><ele>87.0</ele><time>2022-11-01T11:59:24.0000000+00:00</time></trkpt><trkpt lat="39.5208623" lon="-0.50371466"><ele>87.0</ele><time>2022-11-01T11:59:25.0000000+00:00</time></trkpt><trkpt lat="39.52086356" lon="-0.50371366"><ele>87.0</ele><time>2022-11-01T11:59:26.0000000+00:00</time></trkpt><trkpt lat="39.52086297" lon="-0.5037103"><ele>87.0</ele><time>2022-11-01T11:59:27.0000000+00:00</time></trkpt><trkpt lat="39.52086297" lon="-0.5037103"><ele>87.0</ele><time>2022-11-01T11:59:28.0000000+00:00</time></trkpt><trkpt lat="39.52086297" lon="-0.5037103"><ele>87.0</ele><time>2022-11-01T11:59:29.0000000+00:00</time></trkpt><trkpt lat="39.52086297" lon="-0.5037103"><ele>87.0</ele><time>2022-11-01T11:59:30.0000000+00:00</time></trkpt><trkpt lat="39.52086297" lon="-0.5037103"><ele>87.0</ele><time>2022-11-01T11:59:31.0000000+00:00</time></trkpt><trkpt lat="39.52086297" lon="-0.5037103"><ele>87.0</ele><time>2022-11-01T11:59:32.0000000+00:00</time></trkpt><trkpt lat="39.52086297" lon="-0.5037103"><ele>87.0</ele><time>2022-11-01T11:59:33.0000000+00:00</time></trkpt><trkpt lat="39.52086297" lon="-0.5037103"><ele>87.0</ele><time>2022-11-01T11:59:34.0000000+00:00</time></trkpt><trkpt lat="39.52086297" lon="-0.5037103"><ele>87.0</ele><time>2022-11-01T11:59:35.0000000+00:00</time></trkpt><trkpt lat="39.52086297" lon="-0.5037103"><ele>87.0</ele><time>2022-11-01T11:59:36.0000000+00:00</time></trkpt><trkpt lat="39.52086297" lon="-0.5037103"><ele>87.0</ele><time>2022-11-01T11:59:37.0000000+00:00</time></trkpt><trkpt lat="39.52086297" lon="-0.5037103"><ele>87.0</ele><time>2022-11-01T11:59:38.0000000+00:00</time></trkpt><trkpt lat="39.52086297" lon="-0.5037103"><ele>87.0</ele><time>2022-11-01T11:59:39.0000000+00:00</time></trkpt><trkpt lat="39.52086297" lon="-0.5037103"><ele>87.0</ele><time>2022-11-01T11:59:40.0000000+00:00</time></trkpt><trkpt lat="39.52086297" lon="-0.5037103"><ele>87.0</ele><time>2022-11-01T11:59:41.0000000+00:00</time></trkpt><trkpt lat="39.52086297" lon="-0.5037103"><ele>87.0</ele><time>2022-11-01T11:59:42.0000000+00:00</time></trkpt><trkpt lat="39.52086297" lon="-0.5037103"><ele>87.0</ele><time>2022-11-01T11:59:43.0000000+00:00</time></trkpt><trkpt lat="39.52086247" lon="-0.50370896"><ele>87.0</ele><time>2022-11-01T11:59:44.0000000+00:00</time></trkpt><trkpt lat="39.52086213" lon="-0.50370494"><ele>87.0</ele><time>2022-11-01T11:59:45.0000000+00:00</time></trkpt><trkpt lat="39.52086138" lon="-0.50370595"><ele>87.0</ele><time>2022-11-01T11:59:46.0000000+00:00</time></trkpt><trkpt lat="39.52086079" lon="-0.50370905"><ele>87.0</ele><time>2022-11-01T11:59:47.0000000+00:00</time></trkpt><trkpt lat="39.52086079" lon="-0.50370905"><ele>87.0</ele><time>2022-11-01T11:59:48.0000000+00:00</time></trkpt><trkpt lat="39.52086079" lon="-0.50370905"><ele>87.0</ele><time>2022-11-01T11:59:49.0000000+00:00</time></trkpt><trkpt lat="39.52086079" lon="-0.50370905"><ele>87.0</ele><time>2022-11-01T11:59:50.0000000+00:00</time></trkpt><trkpt lat="39.52086079" lon="-0.50370905"><ele>87.0</ele><time>2022-11-01T11:59:51.0000000+00:00</time></trkpt><trkpt lat="39.52086079" lon="-0.50370905"><ele>87.0</ele><time>2022-11-01T11:59:52.0000000+00:00</time></trkpt><trkpt lat="39.52086079" lon="-0.50370905"><ele>87.0</ele><time>2022-11-01T11:59:53.0000000+00:00</time></trkpt><trkpt lat="39.52086079" lon="-0.50370905"><ele>87.0</ele><time>2022-11-01T11:59:54.0000000+00:00</time></trkpt><trkpt lat="39.52086079" lon="-0.50370905"><ele>87.0</ele><time>2022-11-01T11:59:55.0000000+00:00</time></trkpt><trkpt lat="39.52086079" lon="-0.50370905"><ele>87.0</ele><time>2022-11-01T11:59:56.0000000+00:00</time></trkpt><trkpt lat="39.52086079" lon="-0.50370905"><ele>87.0</ele><time>2022-11-01T11:59:57.0000000+00:00</time></trkpt><trkpt lat="39.52086079" lon="-0.50370905"><ele>87.0</ele><time>2022-11-01T11:59:58.0000000+00:00</time></trkpt><trkpt lat="39.52086079" lon="-0.50370905"><ele>87.0</ele><time>2022-11-01T11:59:59.0000000+00:00</time></trkpt><trkpt lat="39.52086079" lon="-0.50370905"><ele>87.0</ele><time>2022-11-01T12:00:00.0000000+00:00</time></trkpt><trkpt lat="39.52086079" lon="-0.50370905"><ele>87.0</ele><time>2022-11-01T12:00:01.0000000+00:00</time></trkpt><trkpt lat="39.52086079" lon="-0.50370905"><ele>87.0</ele><time>2022-11-01T12:00:02.0000000+00:00</time></trkpt><trkpt lat="39.52086079" lon="-0.50370905"><ele>87.0</ele><time>2022-11-01T12:00:03.0000000+00:00</time></trkpt><trkpt lat="39.52086079" lon="-0.50370905"><ele>87.0</ele><time>2022-11-01T12:00:04.0000000+00:00</time></trkpt><trkpt lat="39.52086079" lon="-0.50370905"><ele>87.0</ele><time>2022-11-01T12:00:05.0000000+00:00</time></trkpt><trkpt lat="39.52086079" lon="-0.50370905"><ele>87.0</ele><time>2022-11-01T12:00:06.0000000+00:00</time></trkpt><trkpt lat="39.52086079" lon="-0.50370905"><ele>87.0</ele><time>2022-11-01T12:00:07.0000000+00:00</time></trkpt><trkpt lat="39.52086079" lon="-0.50370905"><ele>87.0</ele><time>2022-11-01T12:00:08.0000000+00:00</time></trkpt><trkpt lat="39.52086079" lon="-0.50370905"><ele>87.0</ele><time>2022-11-01T12:00:09.0000000+00:00</time></trkpt><trkpt lat="39.52086079" lon="-0.50370905"><ele>87.0</ele><time>2022-11-01T12:00:10.0000000+00:00</time></trkpt><trkpt lat="39.52086079" lon="-0.50370905"><ele>87.0</ele><time>2022-11-01T12:00:11.0000000+00:00</time></trkpt><trkpt lat="39.52086079" lon="-0.50370905"><ele>87.0</ele><time>2022-11-01T12:00:12.0000000+00:00</time></trkpt><trkpt lat="39.52086079" lon="-0.50370905"><ele>87.0</ele><time>2022-11-01T12:00:13.0000000+00:00</time></trkpt><trkpt lat="39.52086079" lon="-0.50370905"><ele>87.0</ele><time>2022-11-01T12:00:14.0000000+00:00</time></trkpt><trkpt lat="39.52086079" lon="-0.50370905"><ele>87.0</ele><time>2022-11-01T12:00:15.0000000+00:00</time></trkpt><trkpt lat="39.52086079" lon="-0.50370905"><ele>87.0</ele><time>2022-11-01T12:00:16.0000000+00:00</time></trkpt><trkpt lat="39.52086079" lon="-0.50370905"><ele>87.0</ele><time>2022-11-01T12:00:17.0000000+00:00</time></trkpt><trkpt lat="39.52086079" lon="-0.50370905"><ele>87.0</ele><time>2022-11-01T12:00:18.0000000+00:00</time></trkpt><trkpt lat="39.52086079" lon="-0.50370905"><ele>87.0</ele><time>2022-11-01T12:00:19.0000000+00:00</time></trkpt><trkpt lat="39.52086079" lon="-0.50370905"><ele>87.0</ele><time>2022-11-01T12:00:20.0000000+00:00</time></trkpt><trkpt lat="39.52086079" lon="-0.50370905"><ele>87.0</ele><time>2022-11-01T12:00:21.0000000+00:00</time></trkpt><trkpt lat="39.52086079" lon="-0.50370905"><ele>87.0</ele><time>2022-11-01T12:00:22.0000000+00:00</time></trkpt><trkpt lat="39.52086079" lon="-0.50370905"><ele>87.0</ele><time>2022-11-01T12:00:23.0000000+00:00</time></trkpt><trkpt lat="39.52086079" lon="-0.50370905"><ele>87.0</ele><time>2022-11-01T12:00:24.0000000+00:00</time></trkpt><trkpt lat="39.52086079" lon="-0.50370905"><ele>87.0</ele><time>2022-11-01T12:00:25.0000000+00:00</time></trkpt><trkpt lat="39.52086079" lon="-0.50370905"><ele>87.0</ele><time>2022-11-01T12:00:26.0000000+00:00</time></trkpt><trkpt lat="39.52086079" lon="-0.50370905"><ele>87.0</ele><time>2022-11-01T12:00:27.0000000+00:00</time></trkpt><trkpt lat="39.52086079" lon="-0.50370905"><ele>87.0</ele><time>2022-11-01T12:00:28.0000000+00:00</time></trkpt><trkpt lat="39.52086079" lon="-0.50370905"><ele>87.0</ele><time>2022-11-01T12:00:29.0000000+00:00</time></trkpt><trkpt lat="39.52086079" lon="-0.50370905"><ele>87.0</ele><time>2022-11-01T12:00:30.0000000+00:00</time></trkpt><trkpt lat="39.52086079" lon="-0.50370905"><ele>87.0</ele><time>2022-11-01T12:00:31.0000000+00:00</time></trkpt><trkpt lat="39.52086079" lon="-0.50370905"><ele>87.0</ele><time>2022-11-01T12:00:32.0000000+00:00</time></trkpt><trkpt lat="39.52086079" lon="-0.50370905"><ele>87.0</ele><time>2022-11-01T12:00:33.0000000+00:00</time></trkpt><trkpt lat="39.52086079" lon="-0.50370905"><ele>87.0</ele><time>2022-11-01T12:00:34.0000000+00:00</time></trkpt><trkpt lat="39.52086079" lon="-0.50370905"><ele>87.0</ele><time>2022-11-01T12:00:35.0000000+00:00</time></trkpt><trkpt lat="39.52086079" lon="-0.50370905"><ele>87.0</ele><time>2022-11-01T12:00:36.0000000+00:00</time></trkpt><trkpt lat="39.52086079" lon="-0.50370905"><ele>87.0</ele><time>2022-11-01T12:00:37.0000000+00:00</time></trkpt><trkpt lat="39.52086079" lon="-0.50370905"><ele>87.0</ele><time>2022-11-01T12:00:38.0000000+00:00</time></trkpt><trkpt lat="39.52086079" lon="-0.50370905"><ele>87.0</ele><time>2022-11-01T12:00:39.0000000+00:00</time></trkpt><trkpt lat="39.52086079" lon="-0.50370905"><ele>87.0</ele><time>2022-11-01T12:00:40.0000000+00:00</time></trkpt><trkpt lat="39.52086079" lon="-0.50370905"><ele>87.0</ele><time>2022-11-01T12:00:41.0000000+00:00</time></trkpt><trkpt lat="39.52086079" lon="-0.50370905"><ele>87.0</ele><time>2022-11-01T12:00:42.0000000+00:00</time></trkpt><trkpt lat="39.52086079" lon="-0.50370905"><ele>87.0</ele><time>2022-11-01T12:00:43.0000000+00:00</time></trkpt><trkpt lat="39.52086079" lon="-0.50370905"><ele>87.0</ele><time>2022-11-01T12:00:44.0000000+00:00</time></trkpt><trkpt lat="39.52086079" lon="-0.50370905"><ele>87.0</ele><time>2022-11-01T12:00:45.0000000+00:00</time></trkpt><trkpt lat="39.52086079" lon="-0.50370905"><ele>87.0</ele><time>2022-11-01T12:00:46.0000000+00:00</time></trkpt><trkpt lat="39.52086079" lon="-0.50370905"><ele>87.0</ele><time>2022-11-01T12:00:47.0000000+00:00</time></trkpt><trkpt lat="39.52086079" lon="-0.50370905"><ele>87.0</ele><time>2022-11-01T12:00:48.0000000+00:00</time></trkpt><trkpt lat="39.52086079" lon="-0.50370905"><ele>87.0</ele><time>2022-11-01T12:00:49.0000000+00:00</time></trkpt><trkpt lat="39.52086079" lon="-0.50370905"><ele>87.0</ele><time>2022-11-01T12:00:50.0000000+00:00</time></trkpt><trkpt lat="39.52086079" lon="-0.50370905"><ele>87.0</ele><time>2022-11-01T12:00:51.0000000+00:00</time></trkpt><trkpt lat="39.52086079" lon="-0.50370905"><ele>87.0</ele><time>2022-11-01T12:00:52.0000000+00:00</time></trkpt><trkpt lat="39.52086079" lon="-0.50370905"><ele>87.0</ele><time>2022-11-01T12:00:53.0000000+00:00</time></trkpt><trkpt lat="39.52086079" lon="-0.50370905"><ele>87.0</ele><time>2022-11-01T12:00:54.0000000+00:00</time></trkpt><trkpt lat="39.52086079" lon="-0.50370905"><ele>87.0</ele><time>2022-11-01T12:00:55.0000000+00:00</time></trkpt><trkpt lat="39.52086079" lon="-0.50370905"><ele>87.0</ele><time>2022-11-01T12:00:56.0000000+00:00</time></trkpt><trkpt lat="39.52086079" lon="-0.50370905"><ele>87.0</ele><time>2022-11-01T12:00:57.0000000+00:00</time></trkpt><trkpt lat="39.52086079" lon="-0.50370905"><ele>87.0</ele><time>2022-11-01T12:00:58.0000000+00:00</time></trkpt><trkpt lat="39.52086079" lon="-0.50370905"><ele>87.0</ele><time>2022-11-01T12:00:59.0000000+00:00</time></trkpt><trkpt lat="39.52086079" lon="-0.50370905"><ele>87.0</ele><time>2022-11-01T12:01:00.0000000+00:00</time></trkpt><trkpt lat="39.52086079" lon="-0.50370905"><ele>87.0</ele><time>2022-11-01T12:01:01.0000000+00:00</time></trkpt><trkpt lat="39.52086079" lon="-0.50370905"><ele>87.0</ele><time>2022-11-01T12:01:02.0000000+00:00</time></trkpt><trkpt lat="39.52086079" lon="-0.50370905"><ele>87.0</ele><time>2022-11-01T12:01:03.0000000+00:00</time></trkpt><trkpt lat="39.52086079" lon="-0.50370905"><ele>87.0</ele><time>2022-11-01T12:01:04.0000000+00:00</time></trkpt><trkpt lat="39.52086079" lon="-0.50370905"><ele>87.0</ele><time>2022-11-01T12:01:05.0000000+00:00</time></trkpt><trkpt lat="39.52086079" lon="-0.50370905"><ele>87.0</ele><time>2022-11-01T12:01:06.0000000+00:00</time></trkpt><trkpt lat="39.52086079" lon="-0.50370905"><ele>87.0</ele><time>2022-11-01T12:01:07.0000000+00:00</time></trkpt><trkpt lat="39.52086079" lon="-0.50370905"><ele>87.0</ele><time>2022-11-01T12:01:08.0000000+00:00</time></trkpt><trkpt lat="39.52086079" lon="-0.50370905"><ele>87.0</ele><time>2022-11-01T12:01:09.0000000+00:00</time></trkpt><trkpt lat="39.52086079" lon="-0.50370905"><ele>87.0</ele><time>2022-11-01T12:01:10.0000000+00:00</time></trkpt><trkpt lat="39.52086079" lon="-0.50370905"><ele>87.0</ele><time>2022-11-01T12:01:11.0000000+00:00</time></trkpt><trkpt lat="39.52086079" lon="-0.50370905"><ele>87.0</ele><time>2022-11-01T12:01:12.0000000+00:00</time></trkpt><trkpt lat="39.52086079" lon="-0.50370905"><ele>87.0</ele><time>2022-11-01T12:01:13.0000000+00:00</time></trkpt><trkpt lat="39.52086079" lon="-0.50370905"><ele>87.0</ele><time>2022-11-01T12:01:14.0000000+00:00</time></trkpt><trkpt lat="39.52086079" lon="-0.50370905"><ele>87.0</ele><time>2022-11-01T12:01:15.0000000+00:00</time></trkpt><trkpt lat="39.52086079" lon="-0.50370905"><ele>87.0</ele><time>2022-11-01T12:01:16.0000000+00:00</time></trkpt><trkpt lat="39.52086079" lon="-0.50370905"><ele>87.0</ele><time>2022-11-01T12:01:17.0000000+00:00</time></trkpt><trkpt lat="39.52086079" lon="-0.50370905"><ele>87.0</ele><time>2022-11-01T12:01:18.0000000+00:00</time></trkpt><trkpt lat="39.52086079" lon="-0.50370905"><ele>87.0</ele><time>2022-11-01T12:01:19.0000000+00:00</time></trkpt><trkpt lat="39.52086079" lon="-0.50370905"><ele>87.0</ele><time>2022-11-01T12:01:20.0000000+00:00</time></trkpt><trkpt lat="39.52086079" lon="-0.50370905"><ele>87.0</ele><time>2022-11-01T12:01:21.0000000+00:00</time></trkpt><trkpt lat="39.52086079" lon="-0.50370905"><ele>87.0</ele><time>2022-11-01T12:01:22.0000000+00:00</time></trkpt><trkpt lat="39.52086079" lon="-0.50370905"><ele>87.0</ele><time>2022-11-01T12:01:23.0000000+00:00</time></trkpt><trkpt lat="39.52086079" lon="-0.50370905"><ele>87.0</ele><time>2022-11-01T12:01:24.0000000+00:00</time></trkpt><trkpt lat="39.52086079" lon="-0.50370905"><ele>87.0</ele><time>2022-11-01T12:01:25.0000000+00:00</time></trkpt><trkpt lat="39.52086079" lon="-0.50370905"><ele>87.0</ele><time>2022-11-01T12:01:26.0000000+00:00</time></trkpt><trkpt lat="39.52086079" lon="-0.50370905"><ele>87.0</ele><time>2022-11-01T12:01:27.0000000+00:00</time></trkpt><trkpt lat="39.52086079" lon="-0.50370905"><ele>87.0</ele><time>2022-11-01T12:01:28.0000000+00:00</time></trkpt><trkpt lat="39.52086079" lon="-0.50370905"><ele>87.0</ele><time>2022-11-01T12:01:29.0000000+00:00</time></trkpt><trkpt lat="39.52086079" lon="-0.50370905"><ele>87.0</ele><time>2022-11-01T12:01:30.0000000+00:00</time></trkpt><trkpt lat="39.52086079" lon="-0.50370905"><ele>87.0</ele><time>2022-11-01T12:01:31.0000000+00:00</time></trkpt><trkpt lat="39.52086079" lon="-0.50370905"><ele>87.0</ele><time>2022-11-01T12:01:32.0000000+00:00</time></trkpt><trkpt lat="39.52086079" lon="-0.50370905"><ele>87.0</ele><time>2022-11-01T12:01:33.0000000+00:00</time></trkpt><trkpt lat="39.52086079" lon="-0.50370905"><ele>87.0</ele><time>2022-11-01T12:01:34.0000000+00:00</time></trkpt><trkpt lat="39.52086079" lon="-0.50370905"><ele>87.0</ele><time>2022-11-01T12:01:35.0000000+00:00</time></trkpt><trkpt lat="39.52086079" lon="-0.50370905"><ele>87.0</ele><time>2022-11-01T12:01:36.0000000+00:00</time></trkpt><trkpt lat="39.52086079" lon="-0.50370905"><ele>87.0</ele><time>2022-11-01T12:01:37.0000000+00:00</time></trkpt><trkpt lat="39.52086079" lon="-0.50370905"><ele>87.0</ele><time>2022-11-01T12:01:38.0000000+00:00</time></trkpt><trkpt lat="39.52086079" lon="-0.50370905"><ele>87.0</ele><time>2022-11-01T12:01:39.0000000+00:00</time></trkpt><trkpt lat="39.52086079" lon="-0.50370905"><ele>87.0</ele><time>2022-11-01T12:01:40.0000000+00:00</time></trkpt><trkpt lat="39.52086079" lon="-0.50370905"><ele>87.0</ele><time>2022-11-01T12:01:41.0000000+00:00</time></trkpt><trkpt lat="39.52086079" lon="-0.50370905"><ele>87.0</ele><time>2022-11-01T12:01:42.0000000+00:00</time></trkpt><trkpt lat="39.52086079" lon="-0.50370905"><ele>87.0</ele><time>2022-11-01T12:01:43.0000000+00:00</time></trkpt><trkpt lat="39.52086079" lon="-0.50370905"><ele>87.0</ele><time>2022-11-01T12:01:44.0000000+00:00</time></trkpt><trkpt lat="39.52086079" lon="-0.50370905"><ele>87.0</ele><time>2022-11-01T12:01:45.0000000+00:00</time></trkpt><trkpt lat="39.52086079" lon="-0.50370905"><ele>87.0</ele><time>2022-11-01T12:01:46.0000000+00:00</time></trkpt><trkpt lat="39.52086079" lon="-0.50370905"><ele>87.0</ele><time>2022-11-01T12:01:47.0000000+00:00</time></trkpt><trkpt lat="39.52086079" lon="-0.50370905"><ele>87.0</ele><time>2022-11-01T12:01:48.0000000+00:00</time></trkpt><trkpt lat="39.52086079" lon="-0.50370905"><ele>87.0</ele><time>2022-11-01T12:01:49.0000000+00:00</time></trkpt><trkpt lat="39.52086079" lon="-0.50370905"><ele>87.0</ele><time>2022-11-01T12:01:50.0000000+00:00</time></trkpt><trkpt lat="39.52086079" lon="-0.50370905"><ele>87.0</ele><time>2022-11-01T12:01:51.0000000+00:00</time></trkpt><trkpt lat="39.52086079" lon="-0.50370905"><ele>87.0</ele><time>2022-11-01T12:01:52.0000000+00:00</time></trkpt><trkpt lat="39.52086079" lon="-0.50370905"><ele>87.0</ele><time>2022-11-01T12:01:53.0000000+00:00</time></trkpt><trkpt lat="39.52086079" lon="-0.50370905"><ele>87.0</ele><time>2022-11-01T12:01:54.0000000+00:00</time></trkpt><trkpt lat="39.52086079" lon="-0.50370905"><ele>87.0</ele><time>2022-11-01T12:01:55.0000000+00:00</time></trkpt><trkpt lat="39.52086079" lon="-0.50370905"><ele>87.0</ele><time>2022-11-01T12:01:56.0000000+00:00</time></trkpt><trkpt lat="39.52086079" lon="-0.50370905"><ele>87.0</ele><time>2022-11-01T12:01:57.0000000+00:00</time></trkpt><trkpt lat="39.52086079" lon="-0.50370905"><ele>87.0</ele><time>2022-11-01T12:01:58.0000000+00:00</time></trkpt><trkpt lat="39.52086079" lon="-0.50370905"><ele>87.0</ele><time>2022-11-01T12:01:59.0000000+00:00</time></trkpt><trkpt lat="39.52086079" lon="-0.50370905"><ele>87.0</ele><time>2022-11-01T12:02:00.0000000+00:00</time></trkpt><trkpt lat="39.52086079" lon="-0.50370905"><ele>87.0</ele><time>2022-11-01T12:02:01.0000000+00:00</time></trkpt><trkpt lat="39.52086079" lon="-0.50370905"><ele>87.0</ele><time>2022-11-01T12:02:02.0000000+00:00</time></trkpt><trkpt lat="39.52086079" lon="-0.50370905"><ele>87.0</ele><time>2022-11-01T12:02:03.0000000+00:00</time></trkpt><trkpt lat="39.52086079" lon="-0.50370905"><ele>87.0</ele><time>2022-11-01T12:02:04.0000000+00:00</time></trkpt><trkpt lat="39.52086079" lon="-0.50370905"><ele>87.0</ele><time>2022-11-01T12:02:05.0000000+00:00</time></trkpt><trkpt lat="39.52086079" lon="-0.50370905"><ele>87.0</ele><time>2022-11-01T12:02:06.0000000+00:00</time></trkpt><trkpt lat="39.52086079" lon="-0.50370905"><ele>87.0</ele><time>2022-11-01T12:02:07.0000000+00:00</time></trkpt><trkpt lat="39.52086079" lon="-0.50370905"><ele>87.0</ele><time>2022-11-01T12:02:08.0000000+00:00</time></trkpt><trkpt lat="39.52086079" lon="-0.50370905"><ele>87.0</ele><time>2022-11-01T12:02:09.0000000+00:00</time></trkpt><trkpt lat="39.52086079" lon="-0.50370905"><ele>87.0</ele><time>2022-11-01T12:02:10.0000000+00:00</time></trkpt><trkpt lat="39.52086079" lon="-0.50370905"><ele>87.0</ele><time>2022-11-01T12:02:11.0000000+00:00</time></trkpt><trkpt lat="39.52086079" lon="-0.50370905"><ele>87.0</ele><time>2022-11-01T12:02:12.0000000+00:00</time></trkpt><trkpt lat="39.52086079" lon="-0.50370905"><ele>87.0</ele><time>2022-11-01T12:02:13.0000000+00:00</time></trkpt><trkpt lat="39.52086079" lon="-0.50370905"><ele>87.0</ele><time>2022-11-01T12:02:14.0000000+00:00</time></trkpt><trkpt lat="39.52086079" lon="-0.50370905"><ele>87.0</ele><time>2022-11-01T12:02:15.0000000+00:00</time></trkpt><trkpt lat="39.52086079" lon="-0.50370905"><ele>87.0</ele><time>2022-11-01T12:02:16.0000000+00:00</time></trkpt><trkpt lat="39.52086079" lon="-0.50370905"><ele>87.0</ele><time>2022-11-01T12:02:17.0000000+00:00</time></trkpt><trkpt lat="39.52086079" lon="-0.50370905"><ele>87.0</ele><time>2022-11-01T12:02:18.0000000+00:00</time></trkpt><trkpt lat="39.52086079" lon="-0.50370905"><ele>87.0</ele><time>2022-11-01T12:02:19.0000000+00:00</time></trkpt><trkpt lat="39.52086079" lon="-0.50370905"><ele>87.0</ele><time>2022-11-01T12:02:20.0000000+00:00</time></trkpt><trkpt lat="39.52086079" lon="-0.50370905"><ele>87.0</ele><time>2022-11-01T12:02:21.0000000+00:00</time></trkpt><trkpt lat="39.52086079" lon="-0.50370905"><ele>87.0</ele><time>2022-11-01T12:02:22.0000000+00:00</time></trkpt><trkpt lat="39.52086079" lon="-0.50370905"><ele>87.0</ele><time>2022-11-01T12:02:23.0000000+00:00</time></trkpt><trkpt lat="39.52086079" lon="-0.50370905"><ele>87.0</ele><time>2022-11-01T12:02:24.0000000+00:00</time></trkpt><trkpt lat="39.52086079" lon="-0.50370905"><ele>87.0</ele><time>2022-11-01T12:02:25.0000000+00:00</time></trkpt><trkpt lat="39.52086079" lon="-0.50370905"><ele>87.0</ele><time>2022-11-01T12:02:26.0000000+00:00</time></trkpt><trkpt lat="39.52086079" lon="-0.50370905"><ele>87.0</ele><time>2022-11-01T12:02:27.0000000+00:00</time></trkpt><trkpt lat="39.52086079" lon="-0.50370905"><ele>87.0</ele><time>2022-11-01T12:02:28.0000000+00:00</time></trkpt><trkpt lat="39.52086079" lon="-0.50370905"><ele>87.0</ele><time>2022-11-01T12:02:29.0000000+00:00</time></trkpt><trkpt lat="39.52086079" lon="-0.50370905"><ele>87.0</ele><time>2022-11-01T12:02:30.0000000+00:00</time></trkpt><trkpt lat="39.52086079" lon="-0.50370905"><ele>87.0</ele><time>2022-11-01T12:02:31.0000000+00:00</time></trkpt><trkpt lat="39.52086079" lon="-0.50370905"><ele>87.0</ele><time>2022-11-01T12:02:32.0000000+00:00</time></trkpt><trkpt lat="39.52086079" lon="-0.50370905"><ele>87.0</ele><time>2022-11-01T12:02:33.0000000+00:00</time></trkpt><trkpt lat="39.52086079" lon="-0.50370905"><ele>87.0</ele><time>2022-11-01T12:02:34.0000000+00:00</time></trkpt><trkpt lat="39.52086079" lon="-0.50370905"><ele>87.0</ele><time>2022-11-01T12:02:35.0000000+00:00</time></trkpt><trkpt lat="39.52086079" lon="-0.50370905"><ele>87.0</ele><time>2022-11-01T12:02:36.0000000+00:00</time></trkpt><trkpt lat="39.52086079" lon="-0.50370905"><ele>87.0</ele><time>2022-11-01T12:02:37.0000000+00:00</time></trkpt><trkpt lat="39.52086079" lon="-0.50370905"><ele>87.0</ele><time>2022-11-01T12:02:38.0000000+00:00</time></trkpt><trkpt lat="39.52086079" lon="-0.50370905"><ele>87.0</ele><time>2022-11-01T12:02:39.0000000+00:00</time></trkpt><trkpt lat="39.52086079" lon="-0.50370905"><ele>87.0</ele><time>2022-11-01T12:02:40.0000000+00:00</time></trkpt><trkpt lat="39.52086079" lon="-0.50370905"><ele>87.0</ele><time>2022-11-01T12:02:41.0000000+00:00</time></trkpt><trkpt lat="39.52086079" lon="-0.50370905"><ele>87.0</ele><time>2022-11-01T12:02:42.0000000+00:00</time></trkpt><trkpt lat="39.52086079" lon="-0.50370905"><ele>87.0</ele><time>2022-11-01T12:02:43.0000000+00:00</time></trkpt><trkpt lat="39.52086079" lon="-0.50370905"><ele>87.0</ele><time>2022-11-01T12:02:44.0000000+00:00</time></trkpt><trkpt lat="39.52086079" lon="-0.50370905"><ele>87.0</ele><time>2022-11-01T12:02:45.0000000+00:00</time></trkpt><trkpt lat="39.52086079" lon="-0.50370905"><ele>87.0</ele><time>2022-11-01T12:02:46.0000000+00:00</time></trkpt><trkpt lat="39.52086079" lon="-0.50370905"><ele>87.0</ele><time>2022-11-01T12:02:47.0000000+00:00</time></trkpt><trkpt lat="39.52086079" lon="-0.50370905"><ele>87.0</ele><time>2022-11-01T12:02:48.0000000+00:00</time></trkpt><trkpt lat="39.52086079" lon="-0.50370905"><ele>87.0</ele><time>2022-11-01T12:02:49.0000000+00:00</time></trkpt><trkpt lat="39.52086079" lon="-0.50370905"><ele>87.0</ele><time>2022-11-01T12:02:50.0000000+00:00</time></trkpt><trkpt lat="39.52086079" lon="-0.50370905"><ele>87.0</ele><time>2022-11-01T12:02:51.0000000+00:00</time></trkpt><trkpt lat="39.52086079" lon="-0.50370905"><ele>87.0</ele><time>2022-11-01T12:02:52.0000000+00:00</time></trkpt><trkpt lat="39.52086079" lon="-0.50370905"><ele>87.0</ele><time>2022-11-01T12:02:53.0000000+00:00</time></trkpt><trkpt lat="39.52086079" lon="-0.50370905"><ele>87.0</ele><time>2022-11-01T12:02:54.0000000+00:00</time></trkpt><trkpt lat="39.52086079" lon="-0.50370905"><ele>87.0</ele><time>2022-11-01T12:02:55.0000000+00:00</time></trkpt><trkpt lat="39.52086079" lon="-0.50370905"><ele>87.0</ele><time>2022-11-01T12:02:56.0000000+00:00</time></trkpt><trkpt lat="39.52086079" lon="-0.50370905"><ele>87.0</ele><time>2022-11-01T12:02:57.0000000+00:00</time></trkpt><trkpt lat="39.52086079" lon="-0.50370905"><ele>87.0</ele><time>2022-11-01T12:02:58.0000000+00:00</time></trkpt><trkpt lat="39.52086079" lon="-0.50370905"><ele>87.0</ele><time>2022-11-01T12:02:59.0000000+00:00</time></trkpt><trkpt lat="39.52086079" lon="-0.50370905"><ele>87.0</ele><time>2022-11-01T12:03:00.0000000+00:00</time></trkpt><trkpt lat="39.52086079" lon="-0.50370905"><ele>87.0</ele><time>2022-11-01T12:03:01.0000000+00:00</time></trkpt><trkpt lat="39.52086079" lon="-0.50370905"><ele>87.0</ele><time>2022-11-01T12:03:02.0000000+00:00</time></trkpt><trkpt lat="39.52086079" lon="-0.50370905"><ele>87.0</ele><time>2022-11-01T12:03:03.0000000+00:00</time></trkpt><trkpt lat="39.52086079" lon="-0.50370905"><ele>87.0</ele><time>2022-11-01T12:03:04.0000000+00:00</time></trkpt><trkpt lat="39.52086146" lon="-0.50370838"><ele>87.0</ele><time>2022-11-01T12:03:05.0000000+00:00</time></trkpt><trkpt lat="39.52086104" lon="-0.50370469"><ele>87.0</ele><time>2022-11-01T12:03:06.0000000+00:00</time></trkpt><trkpt lat="39.52086104" lon="-0.50370469"><ele>87.0</ele><time>2022-11-01T12:03:07.0000000+00:00</time></trkpt><trkpt lat="39.52086104" lon="-0.50370469"><ele>87.0</ele><time>2022-11-01T12:03:08.0000000+00:00</time></trkpt><trkpt lat="39.52086004" lon="-0.50370595"><ele>87.0</ele><time>2022-11-01T12:03:09.0000000+00:00</time></trkpt><trkpt lat="39.52086012" lon="-0.50370284"><ele>87.0</ele><time>2022-11-01T12:03:10.0000000+00:00</time></trkpt><trkpt lat="39.52086012" lon="-0.50370284"><ele>87.0</ele><time>2022-11-01T12:03:11.0000000+00:00</time></trkpt><trkpt lat="39.52086012" lon="-0.50370284"><ele>87.0</ele><time>2022-11-01T12:03:12.0000000+00:00</time></trkpt><trkpt lat="39.52086012" lon="-0.50370284"><ele>87.0</ele><time>2022-11-01T12:03:13.0000000+00:00</time></trkpt><trkpt lat="39.52086012" lon="-0.50370284"><ele>87.0</ele><time>2022-11-01T12:03:14.0000000+00:00</time></trkpt><trkpt lat="39.52086012" lon="-0.50370284"><ele>87.0</ele><time>2022-11-01T12:03:15.0000000+00:00</time></trkpt><trkpt lat="39.52086012" lon="-0.50370284"><ele>87.0</ele><time>2022-11-01T12:03:16.0000000+00:00</time></trkpt><trkpt lat="39.52086012" lon="-0.50370284"><ele>87.0</ele><time>2022-11-01T12:03:17.0000000+00:00</time></trkpt><trkpt lat="39.52086012" lon="-0.50370284"><ele>87.0</ele><time>2022-11-01T12:03:18.0000000+00:00</time></trkpt><trkpt lat="39.52086012" lon="-0.50370284"><ele>87.0</ele><time>2022-11-01T12:03:19.0000000+00:00</time></trkpt><trkpt lat="39.52086012" lon="-0.50370284"><ele>87.0</ele><time>2022-11-01T12:03:20.0000000+00:00</time></trkpt><trkpt lat="39.52085534" lon="-0.50369756"><ele>87.0</ele><time>2022-11-01T12:03:21.0000000+00:00</time></trkpt><trkpt lat="39.52085526" lon="-0.50369253"><ele>87.0</ele><time>2022-11-01T12:03:22.0000000+00:00</time></trkpt><trkpt lat="39.52085526" lon="-0.50369253"><ele>87.0</ele><time>2022-11-01T12:03:23.0000000+00:00</time></trkpt><trkpt lat="39.52085526" lon="-0.50369253"><ele>87.0</ele><time>2022-11-01T12:03:24.0000000+00:00</time></trkpt><trkpt lat="39.52085526" lon="-0.50369253"><ele>87.0</ele><time>2022-11-01T12:03:25.0000000+00:00</time></trkpt><trkpt lat="39.52085526" lon="-0.50369253"><ele>87.0</ele><time>2022-11-01T12:03:26.0000000+00:00</time></trkpt><trkpt lat="39.52085526" lon="-0.50369253"><ele>87.0</ele><time>2022-11-01T12:03:27.0000000+00:00</time></trkpt><trkpt lat="39.52085526" lon="-0.50369253"><ele>87.0</ele><time>2022-11-01T12:03:28.0000000+00:00</time></trkpt><trkpt lat="39.52085526" lon="-0.50369253"><ele>87.0</ele><time>2022-11-01T12:03:29.0000000+00:00</time></trkpt><trkpt lat="39.52085526" lon="-0.50369253"><ele>87.0</ele><time>2022-11-01T12:03:30.0000000+00:00</time></trkpt><trkpt lat="39.52085526" lon="-0.50369253"><ele>87.0</ele><time>2022-11-01T12:03:31.0000000+00:00</time></trkpt><trkpt lat="39.52085526" lon="-0.50369253"><ele>87.0</ele><time>2022-11-01T12:03:32.0000000+00:00</time></trkpt><trkpt lat="39.52085702" lon="-0.50369346"><ele>87.0</ele><time>2022-11-01T12:03:33.0000000+00:00</time></trkpt><trkpt lat="39.52085861" lon="-0.50369203"><ele>87.0</ele><time>2022-11-01T12:03:34.0000000+00:00</time></trkpt><trkpt lat="39.52085861" lon="-0.50369203"><ele>87.0</ele><time>2022-11-01T12:03:35.0000000+00:00</time></trkpt><trkpt lat="39.52085861" lon="-0.50369203"><ele>87.0</ele><time>2022-11-01T12:03:36.0000000+00:00</time></trkpt><trkpt lat="39.52085861" lon="-0.50369203"><ele>87.0</ele><time>2022-11-01T12:03:37.0000000+00:00</time></trkpt><trkpt lat="39.52085861" lon="-0.50369203"><ele>87.0</ele><time>2022-11-01T12:03:38.0000000+00:00</time></trkpt><trkpt lat="39.52085861" lon="-0.50369203"><ele>87.0</ele><time>2022-11-01T12:03:39.0000000+00:00</time></trkpt><trkpt lat="39.52085861" lon="-0.50369203"><ele>87.0</ele><time>2022-11-01T12:03:40.0000000+00:00</time></trkpt><trkpt lat="39.52085861" lon="-0.50369203"><ele>87.0</ele><time>2022-11-01T12:03:41.0000000+00:00</time></trkpt><trkpt lat="39.52085861" lon="-0.50369203"><ele>87.0</ele><time>2022-11-01T12:03:42.0000000+00:00</time></trkpt><trkpt lat="39.52085861" lon="-0.50369203"><ele>87.0</ele><time>2022-11-01T12:03:43.0000000+00:00</time></trkpt><trkpt lat="39.52085861" lon="-0.50369203"><ele>87.0</ele><time>2022-11-01T12:03:44.0000000+00:00</time></trkpt><trkpt lat="39.52086138" lon="-0.50369069"><ele>87.0</ele><time>2022-11-01T12:03:45.0000000+00:00</time></trkpt><trkpt lat="39.52086431" lon="-0.50368826"><ele>87.0</ele><time>2022-11-01T12:03:46.0000000+00:00</time></trkpt><trkpt lat="39.52086431" lon="-0.50368826"><ele>87.0</ele><time>2022-11-01T12:03:47.0000000+00:00</time></trkpt><trkpt lat="39.52086431" lon="-0.50368826"><ele>87.0</ele><time>2022-11-01T12:03:48.0000000+00:00</time></trkpt><trkpt lat="39.52086431" lon="-0.50368826"><ele>87.0</ele><time>2022-11-01T12:03:49.0000000+00:00</time></trkpt><trkpt lat="39.52086431" lon="-0.50368826"><ele>87.0</ele><time>2022-11-01T12:03:50.0000000+00:00</time></trkpt><trkpt lat="39.52086431" lon="-0.50368826"><ele>87.0</ele><time>2022-11-01T12:03:51.0000000+00:00</time></trkpt><trkpt lat="39.52086431" lon="-0.50368826"><ele>87.0</ele><time>2022-11-01T12:03:52.0000000+00:00</time></trkpt><trkpt lat="39.52086431" lon="-0.50368826"><ele>87.0</ele><time>2022-11-01T12:03:53.0000000+00:00</time></trkpt><trkpt lat="39.52086431" lon="-0.50368826"><ele>87.0</ele><time>2022-11-01T12:03:54.0000000+00:00</time></trkpt><trkpt lat="39.52086431" lon="-0.50368826"><ele>87.0</ele><time>2022-11-01T12:03:55.0000000+00:00</time></trkpt><trkpt lat="39.52086431" lon="-0.50368826"><ele>87.0</ele><time>2022-11-01T12:03:56.0000000+00:00</time></trkpt><trkpt lat="39.52086431" lon="-0.50368826"><ele>87.0</ele><time>2022-11-01T12:03:57.0000000+00:00</time></trkpt><trkpt lat="39.52086431" lon="-0.50368826"><ele>87.0</ele><time>2022-11-01T12:03:58.0000000+00:00</time></trkpt><trkpt lat="39.52086431" lon="-0.50368826"><ele>87.0</ele><time>2022-11-01T12:03:59.0000000+00:00</time></trkpt><trkpt lat="39.52086431" lon="-0.50368826"><ele>87.0</ele><time>2022-11-01T12:04:00.0000000+00:00</time></trkpt><trkpt lat="39.52086431" lon="-0.50368826"><ele>87.0</ele><time>2022-11-01T12:04:01.0000000+00:00</time></trkpt><trkpt lat="39.52086431" lon="-0.50368826"><ele>87.0</ele><time>2022-11-01T12:04:02.0000000+00:00</time></trkpt><trkpt lat="39.52086431" lon="-0.50368826"><ele>87.0</ele><time>2022-11-01T12:04:03.0000000+00:00</time></trkpt><trkpt lat="39.52086431" lon="-0.50368826"><ele>87.0</ele><time>2022-11-01T12:04:04.0000000+00:00</time></trkpt><trkpt lat="39.52086431" lon="-0.50368826"><ele>87.0</ele><time>2022-11-01T12:04:05.0000000+00:00</time></trkpt><trkpt lat="39.52086431" lon="-0.50368826"><ele>87.0</ele><time>2022-11-01T12:04:06.0000000+00:00</time></trkpt><trkpt lat="39.52086431" lon="-0.50368826"><ele>87.0</ele><time>2022-11-01T12:04:07.0000000+00:00</time></trkpt><trkpt lat="39.52086431" lon="-0.50368826"><ele>87.0</ele><time>2022-11-01T12:04:08.0000000+00:00</time></trkpt><trkpt lat="39.52086431" lon="-0.50368826"><ele>87.0</ele><time>2022-11-01T12:04:09.0000000+00:00</time></trkpt><trkpt lat="39.52086557" lon="-0.50369471"><ele>87.0</ele><time>2022-11-01T12:04:10.0000000+00:00</time></trkpt><trkpt lat="39.5208659" lon="-0.50368968"><ele>87.0</ele><time>2022-11-01T12:04:11.0000000+00:00</time></trkpt><trkpt lat="39.5208659" lon="-0.50368968"><ele>87.0</ele><time>2022-11-01T12:04:12.0000000+00:00</time></trkpt><trkpt lat="39.5208659" lon="-0.50368968"><ele>87.0</ele><time>2022-11-01T12:04:13.0000000+00:00</time></trkpt><trkpt lat="39.5208659" lon="-0.50368968"><ele>87.0</ele><time>2022-11-01T12:04:14.0000000+00:00</time></trkpt><trkpt lat="39.5208659" lon="-0.50368968"><ele>87.0</ele><time>2022-11-01T12:04:15.0000000+00:00</time></trkpt><trkpt lat="39.5208659" lon="-0.50368968"><ele>87.0</ele><time>2022-11-01T12:04:16.0000000+00:00</time></trkpt><trkpt lat="39.5208659" lon="-0.50368968"><ele>87.0</ele><time>2022-11-01T12:04:17.0000000+00:00</time></trkpt><trkpt lat="39.52086582" lon="-0.5036896"><ele>87.0</ele><time>2022-11-01T12:04:18.0000000+00:00</time></trkpt><trkpt lat="39.52086599" lon="-0.50368482"><ele>87.0</ele><time>2022-11-01T12:04:19.0000000+00:00</time></trkpt><trkpt lat="39.52086599" lon="-0.50368482"><ele>87.0</ele><time>2022-11-01T12:04:20.0000000+00:00</time></trkpt><trkpt lat="39.52086599" lon="-0.50368482"><ele>87.0</ele><time>2022-11-01T12:04:21.0000000+00:00</time></trkpt><trkpt lat="39.52086599" lon="-0.50368482"><ele>87.0</ele><time>2022-11-01T12:04:22.0000000+00:00</time></trkpt><trkpt lat="39.52086599" lon="-0.50368482"><ele>87.0</ele><time>2022-11-01T12:04:23.0000000+00:00</time></trkpt><trkpt lat="39.52086599" lon="-0.50368482"><ele>87.0</ele><time>2022-11-01T12:04:24.0000000+00:00</time></trkpt><trkpt lat="39.52086599" lon="-0.50368482"><ele>87.0</ele><time>2022-11-01T12:04:25.0000000+00:00</time></trkpt><trkpt lat="39.52086599" lon="-0.50368482"><ele>87.0</ele><time>2022-11-01T12:04:26.0000000+00:00</time></trkpt><trkpt lat="39.52086599" lon="-0.50368482"><ele>87.0</ele><time>2022-11-01T12:04:27.0000000+00:00</time></trkpt><trkpt lat="39.52086599" lon="-0.50368482"><ele>87.0</ele><time>2022-11-01T12:04:28.0000000+00:00</time></trkpt><trkpt lat="39.52086599" lon="-0.50368482"><ele>87.0</ele><time>2022-11-01T12:04:29.0000000+00:00</time></trkpt><trkpt lat="39.52086599" lon="-0.50368482"><ele>87.0</ele><time>2022-11-01T12:04:30.0000000+00:00</time></trkpt><trkpt lat="39.52086599" lon="-0.50368482"><ele>87.0</ele><time>2022-11-01T12:04:31.0000000+00:00</time></trkpt><trkpt lat="39.52086599" lon="-0.50368482"><ele>87.0</ele><time>2022-11-01T12:04:32.0000000+00:00</time></trkpt><trkpt lat="39.52086599" lon="-0.50368482"><ele>87.0</ele><time>2022-11-01T12:04:33.0000000+00:00</time></trkpt><trkpt lat="39.52086599" lon="-0.50368482"><ele>87.0</ele><time>2022-11-01T12:04:34.0000000+00:00</time></trkpt><trkpt lat="39.52086599" lon="-0.50368482"><ele>87.0</ele><time>2022-11-01T12:04:35.0000000+00:00</time></trkpt><trkpt lat="39.52086599" lon="-0.50368482"><ele>87.0</ele><time>2022-11-01T12:04:36.0000000+00:00</time></trkpt><trkpt lat="39.52086599" lon="-0.50368482"><ele>87.0</ele><time>2022-11-01T12:04:37.0000000+00:00</time></trkpt><trkpt lat="39.52086599" lon="-0.50368482"><ele>87.0</ele><time>2022-11-01T12:04:38.0000000+00:00</time></trkpt><trkpt lat="39.52086599" lon="-0.50368482"><ele>87.0</ele><time>2022-11-01T12:04:39.0000000+00:00</time></trkpt><trkpt lat="39.52086599" lon="-0.50368482"><ele>87.0</ele><time>2022-11-01T12:04:40.0000000+00:00</time></trkpt><trkpt lat="39.52086599" lon="-0.50368482"><ele>87.0</ele><time>2022-11-01T12:04:41.0000000+00:00</time></trkpt><trkpt lat="39.52086599" lon="-0.50368482"><ele>87.0</ele><time>2022-11-01T12:04:42.0000000+00:00</time></trkpt><trkpt lat="39.52086599" lon="-0.50368482"><ele>87.0</ele><time>2022-11-01T12:04:43.0000000+00:00</time></trkpt><trkpt lat="39.52086599" lon="-0.50368482"><ele>87.0</ele><time>2022-11-01T12:04:44.0000000+00:00</time></trkpt><trkpt lat="39.52086599" lon="-0.50368482"><ele>87.0</ele><time>2022-11-01T12:04:45.0000000+00:00</time></trkpt><trkpt lat="39.52086599" lon="-0.50368482"><ele>87.0</ele><time>2022-11-01T12:04:46.0000000+00:00</time></trkpt><trkpt lat="39.52086599" lon="-0.50368482"><ele>87.0</ele><time>2022-11-01T12:04:47.0000000+00:00</time></trkpt><trkpt lat="39.52086599" lon="-0.50368482"><ele>87.0</ele><time>2022-11-01T12:04:48.0000000+00:00</time></trkpt><trkpt lat="39.52086599" lon="-0.50368482"><ele>87.0</ele><time>2022-11-01T12:04:49.0000000+00:00</time></trkpt><trkpt lat="39.52086599" lon="-0.50368482"><ele>87.0</ele><time>2022-11-01T12:04:50.0000000+00:00</time></trkpt><trkpt lat="39.52086599" lon="-0.50368482"><ele>87.0</ele><time>2022-11-01T12:04:51.0000000+00:00</time></trkpt><trkpt lat="39.52086599" lon="-0.50368482"><ele>87.0</ele><time>2022-11-01T12:04:52.0000000+00:00</time></trkpt><trkpt lat="39.52086599" lon="-0.50368482"><ele>87.0</ele><time>2022-11-01T12:04:53.0000000+00:00</time></trkpt><trkpt lat="39.52086599" lon="-0.50368482"><ele>87.0</ele><time>2022-11-01T12:04:54.0000000+00:00</time></trkpt><trkpt lat="39.52086599" lon="-0.50368482"><ele>87.0</ele><time>2022-11-01T12:04:55.0000000+00:00</time></trkpt><trkpt lat="39.52086599" lon="-0.50368482"><ele>87.0</ele><time>2022-11-01T12:04:56.0000000+00:00</time></trkpt><trkpt lat="39.52086599" lon="-0.50368482"><ele>87.0</ele><time>2022-11-01T12:04:57.0000000+00:00</time></trkpt><trkpt lat="39.52086599" lon="-0.50368482"><ele>87.0</ele><time>2022-11-01T12:04:58.0000000+00:00</time></trkpt><trkpt lat="39.52086599" lon="-0.50368482"><ele>87.0</ele><time>2022-11-01T12:04:59.0000000+00:00</time></trkpt><trkpt lat="39.52086599" lon="-0.50368482"><ele>87.0</ele><time>2022-11-01T12:05:00.0000000+00:00</time></trkpt><trkpt lat="39.52086599" lon="-0.50368482"><ele>87.0</ele><time>2022-11-01T12:05:01.0000000+00:00</time></trkpt><trkpt lat="39.52086599" lon="-0.50368482"><ele>87.0</ele><time>2022-11-01T12:05:02.0000000+00:00</time></trkpt><trkpt lat="39.52086599" lon="-0.50368482"><ele>87.0</ele><time>2022-11-01T12:05:03.0000000+00:00</time></trkpt><trkpt lat="39.52086599" lon="-0.50368482"><ele>87.0</ele><time>2022-11-01T12:05:04.0000000+00:00</time></trkpt><trkpt lat="39.52086599" lon="-0.50368482"><ele>87.0</ele><time>2022-11-01T12:05:05.0000000+00:00</time></trkpt><trkpt lat="39.52086599" lon="-0.50368482"><ele>87.0</ele><time>2022-11-01T12:05:06.0000000+00:00</time></trkpt><trkpt lat="39.52086599" lon="-0.50368482"><ele>87.0</ele><time>2022-11-01T12:05:07.0000000+00:00</time></trkpt><trkpt lat="39.52086599" lon="-0.50368482"><ele>87.0</ele><time>2022-11-01T12:05:08.0000000+00:00</time></trkpt><trkpt lat="39.52086599" lon="-0.50368482"><ele>87.0</ele><time>2022-11-01T12:05:09.0000000+00:00</time></trkpt><trkpt lat="39.52086599" lon="-0.50368482"><ele>87.0</ele><time>2022-11-01T12:05:10.0000000+00:00</time></trkpt><trkpt lat="39.52086599" lon="-0.50368482"><ele>87.0</ele><time>2022-11-01T12:05:11.0000000+00:00</time></trkpt><trkpt lat="39.52086599" lon="-0.50368482"><ele>87.0</ele><time>2022-11-01T12:05:12.0000000+00:00</time></trkpt><trkpt lat="39.52086599" lon="-0.50368482"><ele>87.0</ele><time>2022-11-01T12:05:13.0000000+00:00</time></trkpt><trkpt lat="39.52086599" lon="-0.50368482"><ele>87.0</ele><time>2022-11-01T12:05:14.0000000+00:00</time></trkpt><trkpt lat="39.52086758" lon="-0.50368474"><ele>87.0</ele><time>2022-11-01T12:05:15.0000000+00:00</time></trkpt><trkpt lat="39.52086724" lon="-0.50367937"><ele>87.0</ele><time>2022-11-01T12:05:16.0000000+00:00</time></trkpt><trkpt lat="39.52086724" lon="-0.50367937"><ele>87.0</ele><time>2022-11-01T12:05:17.0000000+00:00</time></trkpt><trkpt lat="39.52086724" lon="-0.50367937"><ele>87.0</ele><time>2022-11-01T12:05:18.0000000+00:00</time></trkpt><trkpt lat="39.52086859" lon="-0.50368164"><ele>87.0</ele><time>2022-11-01T12:05:19.0000000+00:00</time></trkpt><trkpt lat="39.52086951" lon="-0.50368491"><ele>87.0</ele><time>2022-11-01T12:05:20.0000000+00:00</time></trkpt><trkpt lat="39.52086951" lon="-0.50368491"><ele>87.0</ele><time>2022-11-01T12:05:21.0000000+00:00</time></trkpt><trkpt lat="39.52086951" lon="-0.50368491"><ele>87.0</ele><time>2022-11-01T12:05:22.0000000+00:00</time></trkpt><trkpt lat="39.52086951" lon="-0.50368491"><ele>87.0</ele><time>2022-11-01T12:05:23.0000000+00:00</time></trkpt><trkpt lat="39.52086951" lon="-0.50368491"><ele>87.0</ele><time>2022-11-01T12:05:24.0000000+00:00</time></trkpt><trkpt lat="39.52086951" lon="-0.50368491"><ele>87.0</ele><time>2022-11-01T12:05:25.0000000+00:00</time></trkpt><trkpt lat="39.52086951" lon="-0.50368491"><ele>87.0</ele><time>2022-11-01T12:05:26.0000000+00:00</time></trkpt><trkpt lat="39.52086951" lon="-0.50368491"><ele>87.0</ele><time>2022-11-01T12:05:27.0000000+00:00</time></trkpt><trkpt lat="39.52086951" lon="-0.50368491"><ele>87.0</ele><time>2022-11-01T12:05:28.0000000+00:00</time></trkpt><trkpt lat="39.52086951" lon="-0.50368491"><ele>87.0</ele><time>2022-11-01T12:05:29.0000000+00:00</time></trkpt><trkpt lat="39.52086951" lon="-0.50368491"><ele>87.0</ele><time>2022-11-01T12:05:30.0000000+00:00</time></trkpt><trkpt lat="39.52086951" lon="-0.50368491"><ele>87.0</ele><time>2022-11-01T12:05:31.0000000+00:00</time></trkpt><trkpt lat="39.52086951" lon="-0.50368491"><ele>87.0</ele><time>2022-11-01T12:05:32.0000000+00:00</time></trkpt><trkpt lat="39.52086951" lon="-0.50368491"><ele>87.0</ele><time>2022-11-01T12:05:33.0000000+00:00</time></trkpt><trkpt lat="39.52086951" lon="-0.50368491"><ele>87.0</ele><time>2022-11-01T12:05:34.0000000+00:00</time></trkpt><trkpt lat="39.52086951" lon="-0.50368491"><ele>87.0</ele><time>2022-11-01T12:05:35.0000000+00:00</time></trkpt><trkpt lat="39.52086951" lon="-0.50368491"><ele>87.0</ele><time>2022-11-01T12:05:36.0000000+00:00</time></trkpt><trkpt lat="39.52086951" lon="-0.50368491"><ele>87.0</ele><time>2022-11-01T12:05:37.0000000+00:00</time></trkpt><trkpt lat="39.52086951" lon="-0.50368491"><ele>87.0</ele><time>2022-11-01T12:05:38.0000000+00:00</time></trkpt><trkpt lat="39.52086951" lon="-0.50368491"><ele>87.0</ele><time>2022-11-01T12:05:39.0000000+00:00</time></trkpt><trkpt lat="39.52086951" lon="-0.50368491"><ele>87.0</ele><time>2022-11-01T12:05:40.0000000+00:00</time></trkpt><trkpt lat="39.52086951" lon="-0.50368491"><ele>87.0</ele><time>2022-11-01T12:05:41.0000000+00:00</time></trkpt><trkpt lat="39.52086951" lon="-0.50368491"><ele>87.0</ele><time>2022-11-01T12:05:42.0000000+00:00</time></trkpt><trkpt lat="39.52086951" lon="-0.50368491"><ele>87.0</ele><time>2022-11-01T12:05:43.0000000+00:00</time></trkpt><trkpt lat="39.52086951" lon="-0.50368491"><ele>87.0</ele><time>2022-11-01T12:05:44.0000000+00:00</time></trkpt><trkpt lat="39.52086951" lon="-0.50368491"><ele>87.0</ele><time>2022-11-01T12:05:45.0000000+00:00</time></trkpt><trkpt lat="39.52086951" lon="-0.50368491"><ele>87.0</ele><time>2022-11-01T12:05:46.0000000+00:00</time></trkpt><trkpt lat="39.52086951" lon="-0.50368491"><ele>87.0</ele><time>2022-11-01T12:05:47.0000000+00:00</time></trkpt><trkpt lat="39.52086951" lon="-0.50368491"><ele>87.0</ele><time>2022-11-01T12:05:48.0000000+00:00</time></trkpt><trkpt lat="39.52086951" lon="-0.50368491"><ele>87.0</ele><time>2022-11-01T12:05:49.0000000+00:00</time></trkpt><trkpt lat="39.52086951" lon="-0.50368491"><ele>87.0</ele><time>2022-11-01T12:05:50.0000000+00:00</time></trkpt><trkpt lat="39.52086951" lon="-0.50368491"><ele>87.0</ele><time>2022-11-01T12:05:51.0000000+00:00</time></trkpt><trkpt lat="39.52086951" lon="-0.50368491"><ele>87.0</ele><time>2022-11-01T12:05:52.0000000+00:00</time></trkpt><trkpt lat="39.52086951" lon="-0.50368491"><ele>87.0</ele><time>2022-11-01T12:05:53.0000000+00:00</time></trkpt><trkpt lat="39.52086951" lon="-0.50368491"><ele>87.0</ele><time>2022-11-01T12:05:54.0000000+00:00</time></trkpt><trkpt lat="39.52086951" lon="-0.50368491"><ele>87.0</ele><time>2022-11-01T12:05:55.0000000+00:00</time></trkpt><trkpt lat="39.52086951" lon="-0.50368491"><ele>87.0</ele><time>2022-11-01T12:05:56.0000000+00:00</time></trkpt><trkpt lat="39.52086951" lon="-0.50368491"><ele>87.0</ele><time>2022-11-01T12:05:57.0000000+00:00</time></trkpt><trkpt lat="39.52086951" lon="-0.50368491"><ele>87.0</ele><time>2022-11-01T12:05:58.0000000+00:00</time></trkpt><trkpt lat="39.52086951" lon="-0.50368491"><ele>87.0</ele><time>2022-11-01T12:05:59.0000000+00:00</time></trkpt><trkpt lat="39.52086951" lon="-0.50368491"><ele>87.0</ele><time>2022-11-01T12:06:00.0000000+00:00</time></trkpt><trkpt lat="39.52086691" lon="-0.50368382"><ele>87.0</ele><time>2022-11-01T12:06:01.0000000+00:00</time></trkpt><trkpt lat="39.52086666" lon="-0.50367988"><ele>87.0</ele><time>2022-11-01T12:06:02.0000000+00:00</time></trkpt><trkpt lat="39.52086666" lon="-0.50367988"><ele>87.0</ele><time>2022-11-01T12:06:03.0000000+00:00</time></trkpt><trkpt lat="39.52086666" lon="-0.50367988"><ele>87.0</ele><time>2022-11-01T12:06:04.0000000+00:00</time></trkpt><trkpt lat="39.52086666" lon="-0.50367988"><ele>87.0</ele><time>2022-11-01T12:06:05.0000000+00:00</time></trkpt><trkpt lat="39.52086666" lon="-0.50367988"><ele>87.0</ele><time>2022-11-01T12:06:06.0000000+00:00</time></trkpt><trkpt lat="39.52086716" lon="-0.5036772"><ele>87.0</ele><time>2022-11-01T12:06:07.0000000+00:00</time></trkpt><trkpt lat="39.52086691" lon="-0.50367309"><ele>87.0</ele><time>2022-11-01T12:06:08.0000000+00:00</time></trkpt><trkpt lat="39.52086783" lon="-0.50367091"><ele>87.0</ele><time>2022-11-01T12:06:09.0000000+00:00</time></trkpt><trkpt lat="39.52086758" lon="-0.50366772"><ele>87.0</ele><time>2022-11-01T12:06:10.0000000+00:00</time></trkpt><trkpt lat="39.52086758" lon="-0.50366772"><ele>87.0</ele><time>2022-11-01T12:06:11.0000000+00:00</time></trkpt><trkpt lat="39.52086758" lon="-0.50366772"><ele>87.0</ele><time>2022-11-01T12:06:12.0000000+00:00</time></trkpt><trkpt lat="39.52086758" lon="-0.50366772"><ele>87.0</ele><time>2022-11-01T12:06:13.0000000+00:00</time></trkpt><trkpt lat="39.52086699" lon="-0.50366161"><ele>87.0</ele><time>2022-11-01T12:06:14.0000000+00:00</time></trkpt><trkpt lat="39.52086607" lon="-0.50365398"><ele>87.0</ele><time>2022-11-01T12:06:15.0000000+00:00</time></trkpt><trkpt lat="39.52086607" lon="-0.50365398"><ele>87.0</ele><time>2022-11-01T12:06:16.0000000+00:00</time></trkpt><trkpt lat="39.52086607" lon="-0.50365398"><ele>87.0</ele><time>2022-11-01T12:06:17.0000000+00:00</time></trkpt><trkpt lat="39.52086607" lon="-0.50365398"><ele>87.0</ele><time>2022-11-01T12:06:18.0000000+00:00</time></trkpt><trkpt lat="39.52086607" lon="-0.50365398"><ele>87.0</ele><time>2022-11-01T12:06:19.0000000+00:00</time></trkpt><trkpt lat="39.52086607" lon="-0.50365398"><ele>87.0</ele><time>2022-11-01T12:06:20.0000000+00:00</time></trkpt><trkpt lat="39.52086607" lon="-0.50365398"><ele>87.0</ele><time>2022-11-01T12:06:21.0000000+00:00</time></trkpt><trkpt lat="39.52086607" lon="-0.50365398"><ele>87.0</ele><time>2022-11-01T12:06:22.0000000+00:00</time></trkpt><trkpt lat="39.520868" lon="-0.50365314"><ele>87.0</ele><time>2022-11-01T12:06:23.0000000+00:00</time></trkpt><trkpt lat="39.5208685" lon="-0.5036497"><ele>87.0</ele><time>2022-11-01T12:06:24.0000000+00:00</time></trkpt><trkpt lat="39.52087135" lon="-0.50365356"><ele>87.0</ele><time>2022-11-01T12:06:25.0000000+00:00</time></trkpt><trkpt lat="39.52087345" lon="-0.503658"><ele>87.0</ele><time>2022-11-01T12:06:26.0000000+00:00</time></trkpt><trkpt lat="39.52087345" lon="-0.503658"><ele>87.0</ele><time>2022-11-01T12:06:27.0000000+00:00</time></trkpt><trkpt lat="39.52087345" lon="-0.503658"><ele>87.0</ele><time>2022-11-01T12:06:28.0000000+00:00</time></trkpt><trkpt lat="39.52087345" lon="-0.503658"><ele>87.0</ele><time>2022-11-01T12:06:29.0000000+00:00</time></trkpt><trkpt lat="39.52087345" lon="-0.503658"><ele>87.0</ele><time>2022-11-01T12:06:30.0000000+00:00</time></trkpt><trkpt lat="39.52087345" lon="-0.503658"><ele>87.0</ele><time>2022-11-01T12:06:31.0000000+00:00</time></trkpt><trkpt lat="39.52087345" lon="-0.503658"><ele>87.0</ele><time>2022-11-01T12:06:32.0000000+00:00</time></trkpt><trkpt lat="39.52087604" lon="-0.50366144"><ele>87.0</ele><time>2022-11-01T12:06:33.0000000+00:00</time></trkpt><trkpt lat="39.52087822" lon="-0.50366622"><ele>87.0</ele><time>2022-11-01T12:06:34.0000000+00:00</time></trkpt><trkpt lat="39.52087965" lon="-0.50366689"><ele>87.0</ele><time>2022-11-01T12:06:35.0000000+00:00</time></trkpt><trkpt lat="39.52087998" lon="-0.50366093"><ele>87.0</ele><time>2022-11-01T12:06:36.0000000+00:00</time></trkpt><trkpt lat="39.52087873" lon="-0.50365691"><ele>87.0</ele><time>2022-11-01T12:06:37.0000000+00:00</time></trkpt><trkpt lat="39.52087873" lon="-0.50365691"><ele>87.0</ele><time>2022-11-01T12:06:38.0000000+00:00</time></trkpt><trkpt lat="39.52087873" lon="-0.50365691"><ele>87.0</ele><time>2022-11-01T12:06:39.0000000+00:00</time></trkpt><trkpt lat="39.52087873" lon="-0.50365691"><ele>87.0</ele><time>2022-11-01T12:06:40.0000000+00:00</time></trkpt><trkpt lat="39.52087873" lon="-0.50365691"><ele>87.0</ele><time>2022-11-01T12:06:41.0000000+00:00</time></trkpt><trkpt lat="39.52087873" lon="-0.50365691"><ele>87.0</ele><time>2022-11-01T12:06:42.0000000+00:00</time></trkpt><trkpt lat="39.52087873" lon="-0.50365691"><ele>87.0</ele><time>2022-11-01T12:06:43.0000000+00:00</time></trkpt><trkpt lat="39.52087873" lon="-0.50365691"><ele>87.0</ele><time>2022-11-01T12:06:44.0000000+00:00</time></trkpt><trkpt lat="39.52087873" lon="-0.50365691"><ele>87.0</ele><time>2022-11-01T12:06:45.0000000+00:00</time></trkpt><trkpt lat="39.52087873" lon="-0.50365691"><ele>87.0</ele><time>2022-11-01T12:06:46.0000000+00:00</time></trkpt><trkpt lat="39.52087873" lon="-0.50365691"><ele>87.0</ele><time>2022-11-01T12:06:47.0000000+00:00</time></trkpt><trkpt lat="39.52087873" lon="-0.50365691"><ele>87.0</ele><time>2022-11-01T12:06:48.0000000+00:00</time></trkpt><trkpt lat="39.52087873" lon="-0.50365691"><ele>87.0</ele><time>2022-11-01T12:06:49.0000000+00:00</time></trkpt><trkpt lat="39.52087873" lon="-0.50365691"><ele>87.0</ele><time>2022-11-01T12:06:50.0000000+00:00</time></trkpt><trkpt lat="39.52087873" lon="-0.50365691"><ele>87.0</ele><time>2022-11-01T12:06:51.0000000+00:00</time></trkpt><trkpt lat="39.52087873" lon="-0.50365691"><ele>87.0</ele><time>2022-11-01T12:06:52.0000000+00:00</time></trkpt><trkpt lat="39.52087873" lon="-0.50365691"><ele>87.0</ele><time>2022-11-01T12:06:53.0000000+00:00</time></trkpt><trkpt lat="39.52087873" lon="-0.50365691"><ele>87.0</ele><time>2022-11-01T12:06:54.0000000+00:00</time></trkpt><trkpt lat="39.52087873" lon="-0.50365691"><ele>87.0</ele><time>2022-11-01T12:06:55.0000000+00:00</time></trkpt><trkpt lat="39.52087873" lon="-0.50365691"><ele>87.0</ele><time>2022-11-01T12:06:56.0000000+00:00</time></trkpt><trkpt lat="39.52087873" lon="-0.50365691"><ele>87.0</ele><time>2022-11-01T12:06:57.0000000+00:00</time></trkpt><trkpt lat="39.52087873" lon="-0.50365691"><ele>87.0</ele><time>2022-11-01T12:06:58.0000000+00:00</time></trkpt><trkpt lat="39.52087873" lon="-0.50365691"><ele>87.0</ele><time>2022-11-01T12:06:59.0000000+00:00</time></trkpt><trkpt lat="39.52087873" lon="-0.50365691"><ele>87.0</ele><time>2022-11-01T12:07:00.0000000+00:00</time></trkpt><trkpt lat="39.52087873" lon="-0.50365691"><ele>87.0</ele><time>2022-11-01T12:07:01.0000000+00:00</time></trkpt><trkpt lat="39.52087873" lon="-0.50365691"><ele>87.0</ele><time>2022-11-01T12:07:02.0000000+00:00</time></trkpt><trkpt lat="39.52087873" lon="-0.50365691"><ele>87.0</ele><time>2022-11-01T12:07:03.0000000+00:00</time></trkpt><trkpt lat="39.52087873" lon="-0.50365691"><ele>87.0</ele><time>2022-11-01T12:07:04.0000000+00:00</time></trkpt><trkpt lat="39.52087873" lon="-0.50365691"><ele>87.0</ele><time>2022-11-01T12:07:05.0000000+00:00</time></trkpt><trkpt lat="39.52087873" lon="-0.50365691"><ele>87.0</ele><time>2022-11-01T12:07:06.0000000+00:00</time></trkpt><trkpt lat="39.52087873" lon="-0.50365691"><ele>87.0</ele><time>2022-11-01T12:07:07.0000000+00:00</time></trkpt><trkpt lat="39.52087873" lon="-0.50365691"><ele>87.0</ele><time>2022-11-01T12:07:08.0000000+00:00</time></trkpt><trkpt lat="39.52087873" lon="-0.50365691"><ele>87.0</ele><time>2022-11-01T12:07:09.0000000+00:00</time></trkpt><trkpt lat="39.52087873" lon="-0.50365691"><ele>87.0</ele><time>2022-11-01T12:07:10.0000000+00:00</time></trkpt><trkpt lat="39.52087873" lon="-0.50365691"><ele>87.0</ele><time>2022-11-01T12:07:11.0000000+00:00</time></trkpt><trkpt lat="39.52087873" lon="-0.50365691"><ele>87.0</ele><time>2022-11-01T12:07:12.0000000+00:00</time></trkpt><trkpt lat="39.52087873" lon="-0.50365691"><ele>87.0</ele><time>2022-11-01T12:07:13.0000000+00:00</time></trkpt><trkpt lat="39.52087873" lon="-0.50365691"><ele>87.0</ele><time>2022-11-01T12:07:14.0000000+00:00</time></trkpt><trkpt lat="39.52087873" lon="-0.50365691"><ele>87.0</ele><time>2022-11-01T12:07:15.0000000+00:00</time></trkpt><trkpt lat="39.52087873" lon="-0.50365691"><ele>87.0</ele><time>2022-11-01T12:07:16.0000000+00:00</time></trkpt><trkpt lat="39.52087873" lon="-0.50365691"><ele>87.0</ele><time>2022-11-01T12:07:17.0000000+00:00</time></trkpt><trkpt lat="39.52087873" lon="-0.50365691"><ele>87.0</ele><time>2022-11-01T12:07:18.0000000+00:00</time></trkpt><trkpt lat="39.52087873" lon="-0.50365691"><ele>87.0</ele><time>2022-11-01T12:07:19.0000000+00:00</time></trkpt><trkpt lat="39.52087873" lon="-0.50365691"><ele>87.0</ele><time>2022-11-01T12:07:20.0000000+00:00</time></trkpt><trkpt lat="39.52087873" lon="-0.50365691"><ele>87.0</ele><time>2022-11-01T12:07:21.0000000+00:00</time></trkpt><trkpt lat="39.52087873" lon="-0.50365691"><ele>87.0</ele><time>2022-11-01T12:07:22.0000000+00:00</time></trkpt><trkpt lat="39.52087873" lon="-0.50365691"><ele>87.0</ele><time>2022-11-01T12:07:23.0000000+00:00</time></trkpt><trkpt lat="39.52087873" lon="-0.50365691"><ele>87.0</ele><time>2022-11-01T12:07:24.0000000+00:00</time></trkpt><trkpt lat="39.52087873" lon="-0.50365691"><ele>87.0</ele><time>2022-11-01T12:07:25.0000000+00:00</time></trkpt><trkpt lat="39.52087873" lon="-0.50365691"><ele>87.0</ele><time>2022-11-01T12:07:26.0000000+00:00</time></trkpt><trkpt lat="39.52087873" lon="-0.50365691"><ele>87.0</ele><time>2022-11-01T12:07:27.0000000+00:00</time></trkpt><trkpt lat="39.52087873" lon="-0.50365691"><ele>87.0</ele><time>2022-11-01T12:07:28.0000000+00:00</time></trkpt><trkpt lat="39.52087873" lon="-0.50365691"><ele>87.0</ele><time>2022-11-01T12:07:29.0000000+00:00</time></trkpt><trkpt lat="39.52087873" lon="-0.50365691"><ele>87.0</ele><time>2022-11-01T12:07:30.0000000+00:00</time></trkpt><trkpt lat="39.52087873" lon="-0.50365691"><ele>87.0</ele><time>2022-11-01T12:07:31.0000000+00:00</time></trkpt><trkpt lat="39.52087873" lon="-0.50365691"><ele>87.0</ele><time>2022-11-01T12:07:32.0000000+00:00</time></trkpt><trkpt lat="39.52087873" lon="-0.50365691"><ele>87.0</ele><time>2022-11-01T12:07:33.0000000+00:00</time></trkpt><trkpt lat="39.52087873" lon="-0.50365691"><ele>87.0</ele><time>2022-11-01T12:07:34.0000000+00:00</time></trkpt><trkpt lat="39.52087873" lon="-0.50365691"><ele>87.0</ele><time>2022-11-01T12:07:35.0000000+00:00</time></trkpt><trkpt lat="39.52087873" lon="-0.50365691"><ele>87.0</ele><time>2022-11-01T12:07:36.0000000+00:00</time></trkpt><trkpt lat="39.52087873" lon="-0.50365691"><ele>87.0</ele><time>2022-11-01T12:07:37.0000000+00:00</time></trkpt><trkpt lat="39.52087873" lon="-0.50365691"><ele>87.0</ele><time>2022-11-01T12:07:38.0000000+00:00</time></trkpt><trkpt lat="39.52087873" lon="-0.50365691"><ele>87.0</ele><time>2022-11-01T12:07:39.0000000+00:00</time></trkpt><trkpt lat="39.52087873" lon="-0.50365691"><ele>87.0</ele><time>2022-11-01T12:07:40.0000000+00:00</time></trkpt><trkpt lat="39.52087873" lon="-0.50365691"><ele>87.0</ele><time>2022-11-01T12:07:41.0000000+00:00</time></trkpt><trkpt lat="39.52087873" lon="-0.50365691"><ele>87.0</ele><time>2022-11-01T12:07:42.0000000+00:00</time></trkpt><trkpt lat="39.52087873" lon="-0.50365691"><ele>87.0</ele><time>2022-11-01T12:07:43.0000000+00:00</time></trkpt><trkpt lat="39.52087873" lon="-0.50365691"><ele>87.0</ele><time>2022-11-01T12:07:44.0000000+00:00</time></trkpt><trkpt lat="39.52087873" lon="-0.50365691"><ele>87.0</ele><time>2022-11-01T12:07:45.0000000+00:00</time></trkpt><trkpt lat="39.52087873" lon="-0.50365691"><ele>87.0</ele><time>2022-11-01T12:07:46.0000000+00:00</time></trkpt><trkpt lat="39.52087873" lon="-0.50365691"><ele>87.0</ele><time>2022-11-01T12:07:47.0000000+00:00</time></trkpt><trkpt lat="39.52087873" lon="-0.50365691"><ele>87.0</ele><time>2022-11-01T12:07:48.0000000+00:00</time></trkpt><trkpt lat="39.52087873" lon="-0.50365691"><ele>87.0</ele><time>2022-11-01T12:07:49.0000000+00:00</time></trkpt><trkpt lat="39.52087873" lon="-0.50365691"><ele>87.0</ele><time>2022-11-01T12:07:50.0000000+00:00</time></trkpt><trkpt lat="39.52087873" lon="-0.50365691"><ele>87.0</ele><time>2022-11-01T12:07:51.0000000+00:00</time></trkpt><trkpt lat="39.5208794" lon="-0.50365901"><ele>87.0</ele><time>2022-11-01T12:07:52.0000000+00:00</time></trkpt><trkpt lat="39.52087822" lon="-0.5036554"><ele>87.0</ele><time>2022-11-01T12:07:53.0000000+00:00</time></trkpt><trkpt lat="39.52087822" lon="-0.5036554"><ele>87.0</ele><time>2022-11-01T12:07:54.0000000+00:00</time></trkpt><trkpt lat="39.52087822" lon="-0.5036554"><ele>87.0</ele><time>2022-11-01T12:07:55.0000000+00:00</time></trkpt><trkpt lat="39.52087822" lon="-0.5036554"><ele>87.0</ele><time>2022-11-01T12:07:56.0000000+00:00</time></trkpt><trkpt lat="39.52087822" lon="-0.5036554"><ele>87.0</ele><time>2022-11-01T12:07:57.0000000+00:00</time></trkpt><trkpt lat="39.52087822" lon="-0.5036554"><ele>87.0</ele><time>2022-11-01T12:07:58.0000000+00:00</time></trkpt><trkpt lat="39.52087822" lon="-0.5036554"><ele>87.0</ele><time>2022-11-01T12:07:59.0000000+00:00</time></trkpt><trkpt lat="39.52087822" lon="-0.5036554"><ele>87.0</ele><time>2022-11-01T12:08:00.0000000+00:00</time></trkpt><trkpt lat="39.52087822" lon="-0.5036554"><ele>87.0</ele><time>2022-11-01T12:08:01.0000000+00:00</time></trkpt><trkpt lat="39.52087822" lon="-0.5036554"><ele>87.0</ele><time>2022-11-01T12:08:02.0000000+00:00</time></trkpt><trkpt lat="39.52087822" lon="-0.5036554"><ele>87.0</ele><time>2022-11-01T12:08:03.0000000+00:00</time></trkpt><trkpt lat="39.52087822" lon="-0.5036554"><ele>87.0</ele><time>2022-11-01T12:08:04.0000000+00:00</time></trkpt><trkpt lat="39.52087822" lon="-0.5036554"><ele>87.0</ele><time>2022-11-01T12:08:05.0000000+00:00</time></trkpt><trkpt lat="39.52087822" lon="-0.5036554"><ele>87.0</ele><time>2022-11-01T12:08:06.0000000+00:00</time></trkpt><trkpt lat="39.52087822" lon="-0.5036554"><ele>87.0</ele><time>2022-11-01T12:08:07.0000000+00:00</time></trkpt><trkpt lat="39.52087822" lon="-0.5036554"><ele>87.0</ele><time>2022-11-01T12:08:08.0000000+00:00</time></trkpt><trkpt lat="39.52087822" lon="-0.5036554"><ele>87.0</ele><time>2022-11-01T12:08:09.0000000+00:00</time></trkpt><trkpt lat="39.52087822" lon="-0.5036554"><ele>87.0</ele><time>2022-11-01T12:08:10.0000000+00:00</time></trkpt><trkpt lat="39.52087822" lon="-0.5036554"><ele>87.0</ele><time>2022-11-01T12:08:11.0000000+00:00</time></trkpt><trkpt lat="39.52087822" lon="-0.5036554"><ele>87.0</ele><time>2022-11-01T12:08:12.0000000+00:00</time></trkpt><trkpt lat="39.52087822" lon="-0.5036554"><ele>87.0</ele><time>2022-11-01T12:08:13.0000000+00:00</time></trkpt><trkpt lat="39.52087822" lon="-0.5036554"><ele>87.0</ele><time>2022-11-01T12:08:14.0000000+00:00</time></trkpt><trkpt lat="39.52087822" lon="-0.5036554"><ele>87.0</ele><time>2022-11-01T12:08:15.0000000+00:00</time></trkpt><trkpt lat="39.52087822" lon="-0.5036554"><ele>87.0</ele><time>2022-11-01T12:08:16.0000000+00:00</time></trkpt><trkpt lat="39.52087822" lon="-0.5036554"><ele>87.0</ele><time>2022-11-01T12:08:17.0000000+00:00</time></trkpt><trkpt lat="39.52087822" lon="-0.5036554"><ele>87.0</ele><time>2022-11-01T12:08:18.0000000+00:00</time></trkpt><trkpt lat="39.52087822" lon="-0.5036554"><ele>87.0</ele><time>2022-11-01T12:08:19.0000000+00:00</time></trkpt><trkpt lat="39.52087822" lon="-0.5036554"><ele>87.0</ele><time>2022-11-01T12:08:20.0000000+00:00</time></trkpt><trkpt lat="39.52087822" lon="-0.5036554"><ele>87.0</ele><time>2022-11-01T12:08:21.0000000+00:00</time></trkpt><trkpt lat="39.52087822" lon="-0.5036554"><ele>87.0</ele><time>2022-11-01T12:08:22.0000000+00:00</time></trkpt><trkpt lat="39.52087822" lon="-0.5036554"><ele>87.0</ele><time>2022-11-01T12:08:23.0000000+00:00</time></trkpt><trkpt lat="39.52087822" lon="-0.5036554"><ele>87.0</ele><time>2022-11-01T12:08:24.0000000+00:00</time></trkpt><trkpt lat="39.52087822" lon="-0.5036554"><ele>87.0</ele><time>2022-11-01T12:08:25.0000000+00:00</time></trkpt><trkpt lat="39.52087822" lon="-0.5036554"><ele>87.0</ele><time>2022-11-01T12:08:26.0000000+00:00</time></trkpt><trkpt lat="39.52087822" lon="-0.5036554"><ele>87.0</ele><time>2022-11-01T12:08:27.0000000+00:00</time></trkpt><trkpt lat="39.52087822" lon="-0.5036554"><ele>87.0</ele><time>2022-11-01T12:08:28.0000000+00:00</time></trkpt><trkpt lat="39.52087822" lon="-0.5036554"><ele>87.0</ele><time>2022-11-01T12:08:29.0000000+00:00</time></trkpt><trkpt lat="39.52087822" lon="-0.5036554"><ele>87.0</ele><time>2022-11-01T12:08:30.0000000+00:00</time></trkpt><trkpt lat="39.52087822" lon="-0.5036554"><ele>87.0</ele><time>2022-11-01T12:08:31.0000000+00:00</time></trkpt><trkpt lat="39.52087822" lon="-0.5036554"><ele>87.0</ele><time>2022-11-01T12:08:32.0000000+00:00</time></trkpt><trkpt lat="39.52087822" lon="-0.5036554"><ele>87.0</ele><time>2022-11-01T12:08:33.0000000+00:00</time></trkpt><trkpt lat="39.52087822" lon="-0.5036554"><ele>87.0</ele><time>2022-11-01T12:08:34.0000000+00:00</time></trkpt><trkpt lat="39.52087822" lon="-0.5036554"><ele>87.0</ele><time>2022-11-01T12:08:35.0000000+00:00</time></trkpt><trkpt lat="39.52087764" lon="-0.50365943"><ele>87.0</ele><time>2022-11-01T12:08:36.0000000+00:00</time></trkpt><trkpt lat="39.52087772" lon="-0.50365591"><ele>87.0</ele><time>2022-11-01T12:08:37.0000000+00:00</time></trkpt><trkpt lat="39.52087772" lon="-0.50365591"><ele>87.0</ele><time>2022-11-01T12:08:38.0000000+00:00</time></trkpt><trkpt lat="39.52087772" lon="-0.50365591"><ele>87.0</ele><time>2022-11-01T12:08:39.0000000+00:00</time></trkpt><trkpt lat="39.52087772" lon="-0.50365591"><ele>87.0</ele><time>2022-11-01T12:08:40.0000000+00:00</time></trkpt><trkpt lat="39.52087772" lon="-0.50365591"><ele>87.0</ele><time>2022-11-01T12:08:41.0000000+00:00</time></trkpt><trkpt lat="39.52087755" lon="-0.50365775"><ele>87.0</ele><time>2022-11-01T12:08:42.0000000+00:00</time></trkpt><trkpt lat="39.52087755" lon="-0.50365381"><ele>87.0</ele><time>2022-11-01T12:08:43.0000000+00:00</time></trkpt><trkpt lat="39.52087848" lon="-0.50365406"><ele>87.0</ele><time>2022-11-01T12:08:44.0000000+00:00</time></trkpt><trkpt lat="39.52087814" lon="-0.50365758"><ele>87.0</ele><time>2022-11-01T12:08:45.0000000+00:00</time></trkpt><trkpt lat="39.52087814" lon="-0.50365758"><ele>87.0</ele><time>2022-11-01T12:08:46.0000000+00:00</time></trkpt><trkpt lat="39.52087839" lon="-0.50365741"><ele>87.0</ele><time>2022-11-01T12:08:47.0000000+00:00</time></trkpt><trkpt lat="39.52087789" lon="-0.50365406"><ele>87.0</ele><time>2022-11-01T12:08:48.0000000+00:00</time></trkpt><trkpt lat="39.52087789" lon="-0.50365406"><ele>87.0</ele><time>2022-11-01T12:08:49.0000000+00:00</time></trkpt><trkpt lat="39.52087789" lon="-0.50365406"><ele>87.0</ele><time>2022-11-01T12:08:50.0000000+00:00</time></trkpt><trkpt lat="39.52087789" lon="-0.50365406"><ele>87.0</ele><time>2022-11-01T12:08:51.0000000+00:00</time></trkpt><trkpt lat="39.52087789" lon="-0.50365406"><ele>87.0</ele><time>2022-11-01T12:08:52.0000000+00:00</time></trkpt><trkpt lat="39.52087789" lon="-0.50365406"><ele>87.0</ele><time>2022-11-01T12:08:53.0000000+00:00</time></trkpt><trkpt lat="39.52087789" lon="-0.50365406"><ele>87.0</ele><time>2022-11-01T12:08:54.0000000+00:00</time></trkpt><trkpt lat="39.52087789" lon="-0.50365406"><ele>87.0</ele><time>2022-11-01T12:08:55.0000000+00:00</time></trkpt><trkpt lat="39.52087789" lon="-0.50365406"><ele>87.0</ele><time>2022-11-01T12:08:56.0000000+00:00</time></trkpt><trkpt lat="39.52087789" lon="-0.50365406"><ele>87.0</ele><time>2022-11-01T12:08:57.0000000+00:00</time></trkpt><trkpt lat="39.52087789" lon="-0.50365406"><ele>87.0</ele><time>2022-11-01T12:08:58.0000000+00:00</time></trkpt><trkpt lat="39.52087789" lon="-0.50365406"><ele>87.0</ele><time>2022-11-01T12:08:59.0000000+00:00</time></trkpt><trkpt lat="39.52087789" lon="-0.50365406"><ele>87.0</ele><time>2022-11-01T12:09:00.0000000+00:00</time></trkpt><trkpt lat="39.52087789" lon="-0.50365406"><ele>87.0</ele><time>2022-11-01T12:09:01.0000000+00:00</time></trkpt><trkpt lat="39.52087789" lon="-0.50365406"><ele>87.0</ele><time>2022-11-01T12:09:02.0000000+00:00</time></trkpt><trkpt lat="39.52087789" lon="-0.50365406"><ele>87.0</ele><time>2022-11-01T12:09:03.0000000+00:00</time></trkpt><trkpt lat="39.52087789" lon="-0.50365406"><ele>87.0</ele><time>2022-11-01T12:09:04.0000000+00:00</time></trkpt><trkpt lat="39.52087789" lon="-0.50365406"><ele>87.0</ele><time>2022-11-01T12:09:05.0000000+00:00</time></trkpt><trkpt lat="39.52087789" lon="-0.50365406"><ele>87.0</ele><time>2022-11-01T12:09:06.0000000+00:00</time></trkpt><trkpt lat="39.52087789" lon="-0.50365406"><ele>87.0</ele><time>2022-11-01T12:09:07.0000000+00:00</time></trkpt><trkpt lat="39.52087789" lon="-0.50365406"><ele>87.0</ele><time>2022-11-01T12:09:08.0000000+00:00</time></trkpt><trkpt lat="39.52087789" lon="-0.50365406"><ele>87.0</ele><time>2022-11-01T12:09:09.0000000+00:00</time></trkpt><trkpt lat="39.52087789" lon="-0.50365406"><ele>87.0</ele><time>2022-11-01T12:09:10.0000000+00:00</time></trkpt><trkpt lat="39.52087789" lon="-0.50365406"><ele>87.0</ele><time>2022-11-01T12:09:11.0000000+00:00</time></trkpt><trkpt lat="39.52087789" lon="-0.50365406"><ele>87.0</ele><time>2022-11-01T12:09:12.0000000+00:00</time></trkpt><trkpt lat="39.52087789" lon="-0.50365406"><ele>87.0</ele><time>2022-11-01T12:09:13.0000000+00:00</time></trkpt><trkpt lat="39.52087789" lon="-0.50365406"><ele>87.0</ele><time>2022-11-01T12:09:14.0000000+00:00</time></trkpt><trkpt lat="39.52087789" lon="-0.50365406"><ele>87.0</ele><time>2022-11-01T12:09:15.0000000+00:00</time></trkpt><trkpt lat="39.52087789" lon="-0.50365406"><ele>87.0</ele><time>2022-11-01T12:09:16.0000000+00:00</time></trkpt><trkpt lat="39.52087789" lon="-0.50365406"><ele>87.0</ele><time>2022-11-01T12:09:17.0000000+00:00</time></trkpt><trkpt lat="39.52087789" lon="-0.50365406"><ele>87.0</ele><time>2022-11-01T12:09:18.0000000+00:00</time></trkpt><trkpt lat="39.52087789" lon="-0.50365406"><ele>87.0</ele><time>2022-11-01T12:09:19.0000000+00:00</time></trkpt><trkpt lat="39.52087789" lon="-0.50365406"><ele>87.0</ele><time>2022-11-01T12:09:20.0000000+00:00</time></trkpt><trkpt lat="39.52087789" lon="-0.50365406"><ele>87.0</ele><time>2022-11-01T12:09:21.0000000+00:00</time></trkpt><trkpt lat="39.52087789" lon="-0.50365406"><ele>87.0</ele><time>2022-11-01T12:09:22.0000000+00:00</time></trkpt><trkpt lat="39.52087789" lon="-0.50365406"><ele>87.0</ele><time>2022-11-01T12:09:23.0000000+00:00</time></trkpt><trkpt lat="39.52087789" lon="-0.50365406"><ele>87.0</ele><time>2022-11-01T12:09:24.0000000+00:00</time></trkpt><trkpt lat="39.52087789" lon="-0.50365406"><ele>87.0</ele><time>2022-11-01T12:09:25.0000000+00:00</time></trkpt><trkpt lat="39.52087789" lon="-0.50365406"><ele>87.0</ele><time>2022-11-01T12:09:26.0000000+00:00</time></trkpt><trkpt lat="39.52087789" lon="-0.50365406"><ele>87.0</ele><time>2022-11-01T12:09:27.0000000+00:00</time></trkpt><trkpt lat="39.52087789" lon="-0.50365406"><ele>87.0</ele><time>2022-11-01T12:09:28.0000000+00:00</time></trkpt><trkpt lat="39.52087789" lon="-0.50365406"><ele>87.0</ele><time>2022-11-01T12:09:29.0000000+00:00</time></trkpt><trkpt lat="39.52087789" lon="-0.50365406"><ele>87.0</ele><time>2022-11-01T12:09:30.0000000+00:00</time></trkpt><trkpt lat="39.52087789" lon="-0.50365406"><ele>87.0</ele><time>2022-11-01T12:09:31.0000000+00:00</time></trkpt><trkpt lat="39.52087789" lon="-0.50365406"><ele>87.0</ele><time>2022-11-01T12:09:32.0000000+00:00</time></trkpt><trkpt lat="39.52087789" lon="-0.50365406"><ele>87.0</ele><time>2022-11-01T12:09:33.0000000+00:00</time></trkpt><trkpt lat="39.52087789" lon="-0.50365406"><ele>87.0</ele><time>2022-11-01T12:09:34.0000000+00:00</time></trkpt><trkpt lat="39.52087789" lon="-0.50365406"><ele>87.0</ele><time>2022-11-01T12:09:35.0000000+00:00</time></trkpt><trkpt lat="39.52087789" lon="-0.50365406"><ele>87.0</ele><time>2022-11-01T12:09:36.0000000+00:00</time></trkpt><trkpt lat="39.52087789" lon="-0.50365406"><ele>87.0</ele><time>2022-11-01T12:09:37.0000000+00:00</time></trkpt><trkpt lat="39.52087789" lon="-0.50365406"><ele>87.0</ele><time>2022-11-01T12:09:38.0000000+00:00</time></trkpt><trkpt lat="39.52087789" lon="-0.50365406"><ele>87.0</ele><time>2022-11-01T12:09:39.0000000+00:00</time></trkpt><trkpt lat="39.52087529" lon="-0.50365607"><ele>87.0</ele><time>2022-11-01T12:09:40.0000000+00:00</time></trkpt><trkpt lat="39.52087428" lon="-0.5036513"><ele>87.0</ele><time>2022-11-01T12:09:41.0000000+00:00</time></trkpt><trkpt lat="39.52087428" lon="-0.5036513"><ele>87.0</ele><time>2022-11-01T12:09:42.0000000+00:00</time></trkpt><trkpt lat="39.52087428" lon="-0.5036513"><ele>87.0</ele><time>2022-11-01T12:09:43.0000000+00:00</time></trkpt><trkpt lat="39.52087428" lon="-0.5036513"><ele>87.0</ele><time>2022-11-01T12:09:44.0000000+00:00</time></trkpt><trkpt lat="39.52087428" lon="-0.5036513"><ele>87.0</ele><time>2022-11-01T12:09:45.0000000+00:00</time></trkpt><trkpt lat="39.52087428" lon="-0.5036513"><ele>87.0</ele><time>2022-11-01T12:09:46.0000000+00:00</time></trkpt><trkpt lat="39.52087428" lon="-0.5036513"><ele>87.0</ele><time>2022-11-01T12:09:47.0000000+00:00</time></trkpt><trkpt lat="39.52087428" lon="-0.5036513"><ele>87.0</ele><time>2022-11-01T12:09:48.0000000+00:00</time></trkpt><trkpt lat="39.52087428" lon="-0.5036513"><ele>87.0</ele><time>2022-11-01T12:09:49.0000000+00:00</time></trkpt><trkpt lat="39.52087428" lon="-0.5036513"><ele>87.0</ele><time>2022-11-01T12:09:50.0000000+00:00</time></trkpt><trkpt lat="39.52087428" lon="-0.5036513"><ele>87.0</ele><time>2022-11-01T12:09:51.0000000+00:00</time></trkpt><trkpt lat="39.52087378" lon="-0.50365239"><ele>87.0</ele><time>2022-11-01T12:09:52.0000000+00:00</time></trkpt><trkpt lat="39.52087487" lon="-0.50364652"><ele>87.0</ele><time>2022-11-01T12:09:53.0000000+00:00</time></trkpt><trkpt lat="39.52087579" lon="-0.50364157"><ele>87.0</ele><time>2022-11-01T12:09:54.0000000+00:00</time></trkpt><trkpt lat="39.52087579" lon="-0.50364157"><ele>87.0</ele><time>2022-11-01T12:09:55.0000000+00:00</time></trkpt><trkpt lat="39.52087579" lon="-0.50364157"><ele>87.0</ele><time>2022-11-01T12:09:56.0000000+00:00</time></trkpt><trkpt lat="39.52087579" lon="-0.50364157"><ele>87.0</ele><time>2022-11-01T12:09:57.0000000+00:00</time></trkpt><trkpt lat="39.52087688" lon="-0.50364702"><ele>87.0</ele><time>2022-11-01T12:09:58.0000000+00:00</time></trkpt><trkpt lat="39.52087781" lon="-0.50365096"><ele>87.0</ele><time>2022-11-01T12:09:59.0000000+00:00</time></trkpt><trkpt lat="39.52087781" lon="-0.50365096"><ele>87.0</ele><time>2022-11-01T12:10:00.0000000+00:00</time></trkpt><trkpt lat="39.52087781" lon="-0.50365096"><ele>87.0</ele><time>2022-11-01T12:10:01.0000000+00:00</time></trkpt><trkpt lat="39.52087781" lon="-0.50365096"><ele>87.0</ele><time>2022-11-01T12:10:02.0000000+00:00</time></trkpt><trkpt lat="39.52087781" lon="-0.50365096"><ele>87.0</ele><time>2022-11-01T12:10:03.0000000+00:00</time></trkpt><trkpt lat="39.52087781" lon="-0.50365096"><ele>87.0</ele><time>2022-11-01T12:10:04.0000000+00:00</time></trkpt><trkpt lat="39.52087781" lon="-0.50365096"><ele>87.0</ele><time>2022-11-01T12:10:05.0000000+00:00</time></trkpt><trkpt lat="39.52087781" lon="-0.50365096"><ele>87.0</ele><time>2022-11-01T12:10:06.0000000+00:00</time></trkpt><trkpt lat="39.52087781" lon="-0.50365096"><ele>87.0</ele><time>2022-11-01T12:10:07.0000000+00:00</time></trkpt><trkpt lat="39.52087781" lon="-0.50365096"><ele>87.0</ele><time>2022-11-01T12:10:08.0000000+00:00</time></trkpt><trkpt lat="39.52087781" lon="-0.50365096"><ele>87.0</ele><time>2022-11-01T12:10:09.0000000+00:00</time></trkpt><trkpt lat="39.52087781" lon="-0.50365096"><ele>87.0</ele><time>2022-11-01T12:10:10.0000000+00:00</time></trkpt><trkpt lat="39.52087781" lon="-0.50365096"><ele>87.0</ele><time>2022-11-01T12:10:11.0000000+00:00</time></trkpt><trkpt lat="39.52087781" lon="-0.50365096"><ele>87.0</ele><time>2022-11-01T12:10:12.0000000+00:00</time></trkpt><trkpt lat="39.52087781" lon="-0.50365096"><ele>87.0</ele><time>2022-11-01T12:10:13.0000000+00:00</time></trkpt><trkpt lat="39.52087781" lon="-0.50365096"><ele>87.0</ele><time>2022-11-01T12:10:14.0000000+00:00</time></trkpt><trkpt lat="39.52087781" lon="-0.50365096"><ele>87.0</ele><time>2022-11-01T12:10:15.0000000+00:00</time></trkpt><trkpt lat="39.52087781" lon="-0.50365096"><ele>87.0</ele><time>2022-11-01T12:10:16.0000000+00:00</time></trkpt><trkpt lat="39.52087781" lon="-0.50365096"><ele>87.0</ele><time>2022-11-01T12:10:17.0000000+00:00</time></trkpt><trkpt lat="39.52087781" lon="-0.50365096"><ele>87.0</ele><time>2022-11-01T12:10:18.0000000+00:00</time></trkpt><trkpt lat="39.52087789" lon="-0.50365046"><ele>87.0</ele><time>2022-11-01T12:10:19.0000000+00:00</time></trkpt><trkpt lat="39.52087806" lon="-0.50365423"><ele>87.0</ele><time>2022-11-01T12:10:20.0000000+00:00</time></trkpt><trkpt lat="39.52087806" lon="-0.50365423"><ele>87.0</ele><time>2022-11-01T12:10:21.0000000+00:00</time></trkpt><trkpt lat="39.52087806" lon="-0.50365423"><ele>87.0</ele><time>2022-11-01T12:10:22.0000000+00:00</time></trkpt><trkpt lat="39.52087806" lon="-0.50365423"><ele>87.0</ele><time>2022-11-01T12:10:23.0000000+00:00</time></trkpt><trkpt lat="39.52087806" lon="-0.50365423"><ele>87.0</ele><time>2022-11-01T12:10:24.0000000+00:00</time></trkpt><trkpt lat="39.52088024" lon="-0.50365239"><ele>87.0</ele><time>2022-11-01T12:10:25.0000000+00:00</time></trkpt><trkpt lat="39.52088133" lon="-0.50364878"><ele>87.0</ele><time>2022-11-01T12:10:26.0000000+00:00</time></trkpt><trkpt lat="39.52088133" lon="-0.50364878"><ele>87.0</ele><time>2022-11-01T12:10:27.0000000+00:00</time></trkpt><trkpt lat="39.52088133" lon="-0.50364878"><ele>87.0</ele><time>2022-11-01T12:10:28.0000000+00:00</time></trkpt><trkpt lat="39.52088133" lon="-0.50364878"><ele>87.0</ele><time>2022-11-01T12:10:29.0000000+00:00</time></trkpt><trkpt lat="39.52088133" lon="-0.50364878"><ele>87.0</ele><time>2022-11-01T12:10:30.0000000+00:00</time></trkpt><trkpt lat="39.52088133" lon="-0.50364878"><ele>87.0</ele><time>2022-11-01T12:10:31.0000000+00:00</time></trkpt><trkpt lat="39.52088133" lon="-0.50364878"><ele>87.0</ele><time>2022-11-01T12:10:32.0000000+00:00</time></trkpt><trkpt lat="39.52088133" lon="-0.50364878"><ele>87.0</ele><time>2022-11-01T12:10:33.0000000+00:00</time></trkpt><trkpt lat="39.52088133" lon="-0.50364878"><ele>87.0</ele><time>2022-11-01T12:10:34.0000000+00:00</time></trkpt><trkpt lat="39.52088007" lon="-0.50364886"><ele>87.0</ele><time>2022-11-01T12:10:35.0000000+00:00</time></trkpt><trkpt lat="39.52087982" lon="-0.50364585"><ele>87.0</ele><time>2022-11-01T12:10:36.0000000+00:00</time></trkpt><trkpt lat="39.52087982" lon="-0.50364585"><ele>87.0</ele><time>2022-11-01T12:10:37.0000000+00:00</time></trkpt><trkpt lat="39.52087982" lon="-0.50364585"><ele>87.0</ele><time>2022-11-01T12:10:38.0000000+00:00</time></trkpt><trkpt lat="39.52087982" lon="-0.50364585"><ele>87.0</ele><time>2022-11-01T12:10:39.0000000+00:00</time></trkpt><trkpt lat="39.52087982" lon="-0.50364585"><ele>87.0</ele><time>2022-11-01T12:10:40.0000000+00:00</time></trkpt><trkpt lat="39.52087982" lon="-0.50364585"><ele>87.0</ele><time>2022-11-01T12:10:41.0000000+00:00</time></trkpt><trkpt lat="39.52087982" lon="-0.50364585"><ele>87.0</ele><time>2022-11-01T12:10:42.0000000+00:00</time></trkpt><trkpt lat="39.52087982" lon="-0.50364585"><ele>87.0</ele><time>2022-11-01T12:10:43.0000000+00:00</time></trkpt><trkpt lat="39.52087982" lon="-0.50364585"><ele>87.0</ele><time>2022-11-01T12:10:44.0000000+00:00</time></trkpt><trkpt lat="39.52087948" lon="-0.50364995"><ele>87.0</ele><time>2022-11-01T12:10:45.0000000+00:00</time></trkpt><trkpt lat="39.52087948" lon="-0.50365289"><ele>87.0</ele><time>2022-11-01T12:10:46.0000000+00:00</time></trkpt><trkpt lat="39.52087948" lon="-0.50365289"><ele>87.0</ele><time>2022-11-01T12:10:47.0000000+00:00</time></trkpt><trkpt lat="39.52087948" lon="-0.50365289"><ele>87.0</ele><time>2022-11-01T12:10:48.0000000+00:00</time></trkpt><trkpt lat="39.52087948" lon="-0.50365289"><ele>87.0</ele><time>2022-11-01T12:10:49.0000000+00:00</time></trkpt><trkpt lat="39.52087948" lon="-0.50365289"><ele>87.0</ele><time>2022-11-01T12:10:50.0000000+00:00</time></trkpt><trkpt lat="39.52087948" lon="-0.50365289"><ele>87.0</ele><time>2022-11-01T12:10:51.0000000+00:00</time></trkpt><trkpt lat="39.52088057" lon="-0.50365104"><ele>87.0</ele><time>2022-11-01T12:10:52.0000000+00:00</time></trkpt><trkpt lat="39.52088057" lon="-0.50364694"><ele>87.0</ele><time>2022-11-01T12:10:53.0000000+00:00</time></trkpt><trkpt lat="39.52088057" lon="-0.50364694"><ele>87.0</ele><time>2022-11-01T12:10:54.0000000+00:00</time></trkpt><trkpt lat="39.52088057" lon="-0.50364694"><ele>87.0</ele><time>2022-11-01T12:10:55.0000000+00:00</time></trkpt><trkpt lat="39.52088057" lon="-0.50364694"><ele>87.0</ele><time>2022-11-01T12:10:56.0000000+00:00</time></trkpt><trkpt lat="39.52088057" lon="-0.50364694"><ele>87.0</ele><time>2022-11-01T12:10:57.0000000+00:00</time></trkpt><trkpt lat="39.52088057" lon="-0.50364694"><ele>87.0</ele><time>2022-11-01T12:10:58.0000000+00:00</time></trkpt><trkpt lat="39.52088057" lon="-0.50364694"><ele>87.0</ele><time>2022-11-01T12:10:59.0000000+00:00</time></trkpt><trkpt lat="39.52088057" lon="-0.50364694"><ele>87.0</ele><time>2022-11-01T12:11:00.0000000+00:00</time></trkpt><trkpt lat="39.52088057" lon="-0.50364694"><ele>87.0</ele><time>2022-11-01T12:11:01.0000000+00:00</time></trkpt><trkpt lat="39.52088057" lon="-0.50364694"><ele>87.0</ele><time>2022-11-01T12:11:02.0000000+00:00</time></trkpt><trkpt lat="39.52088057" lon="-0.50364694"><ele>87.0</ele><time>2022-11-01T12:11:03.0000000+00:00</time></trkpt><trkpt lat="39.52088057" lon="-0.50364694"><ele>87.0</ele><time>2022-11-01T12:11:04.0000000+00:00</time></trkpt><trkpt lat="39.52088057" lon="-0.50364694"><ele>87.0</ele><time>2022-11-01T12:11:05.0000000+00:00</time></trkpt><trkpt lat="39.52088057" lon="-0.50364694"><ele>87.0</ele><time>2022-11-01T12:11:06.0000000+00:00</time></trkpt><trkpt lat="39.52088057" lon="-0.50364694"><ele>87.0</ele><time>2022-11-01T12:11:07.0000000+00:00</time></trkpt><trkpt lat="39.52088057" lon="-0.50364694"><ele>87.0</ele><time>2022-11-01T12:11:08.0000000+00:00</time></trkpt><trkpt lat="39.52088057" lon="-0.50364694"><ele>87.0</ele><time>2022-11-01T12:11:09.0000000+00:00</time></trkpt><trkpt lat="39.52088057" lon="-0.50364694"><ele>87.0</ele><time>2022-11-01T12:11:10.0000000+00:00</time></trkpt><trkpt lat="39.52088057" lon="-0.50364694"><ele>87.0</ele><time>2022-11-01T12:11:11.0000000+00:00</time></trkpt><trkpt lat="39.52088057" lon="-0.50364694"><ele>87.0</ele><time>2022-11-01T12:11:12.0000000+00:00</time></trkpt><trkpt lat="39.52088057" lon="-0.50364694"><ele>87.0</ele><time>2022-11-01T12:11:13.0000000+00:00</time></trkpt><trkpt lat="39.52088057" lon="-0.50364694"><ele>87.0</ele><time>2022-11-01T12:11:14.0000000+00:00</time></trkpt><trkpt lat="39.52088057" lon="-0.50364694"><ele>87.0</ele><time>2022-11-01T12:11:15.0000000+00:00</time></trkpt><trkpt lat="39.52088057" lon="-0.50364694"><ele>87.0</ele><time>2022-11-01T12:11:16.0000000+00:00</time></trkpt><trkpt lat="39.52088057" lon="-0.50364694"><ele>87.0</ele><time>2022-11-01T12:11:17.0000000+00:00</time></trkpt><trkpt lat="39.52088057" lon="-0.50364694"><ele>87.0</ele><time>2022-11-01T12:11:18.0000000+00:00</time></trkpt><trkpt lat="39.52088057" lon="-0.50364694"><ele>87.0</ele><time>2022-11-01T12:11:19.0000000+00:00</time></trkpt><trkpt lat="39.52088057" lon="-0.50364694"><ele>87.0</ele><time>2022-11-01T12:11:20.0000000+00:00</time></trkpt><trkpt lat="39.52088057" lon="-0.50364694"><ele>87.0</ele><time>2022-11-01T12:11:21.0000000+00:00</time></trkpt><trkpt lat="39.52088057" lon="-0.50364694"><ele>87.0</ele><time>2022-11-01T12:11:22.0000000+00:00</time></trkpt><trkpt lat="39.52088057" lon="-0.50364694"><ele>87.0</ele><time>2022-11-01T12:11:23.0000000+00:00</time></trkpt><trkpt lat="39.52088057" lon="-0.50364694"><ele>87.0</ele><time>2022-11-01T12:11:24.0000000+00:00</time></trkpt><trkpt lat="39.52088057" lon="-0.50364694"><ele>87.0</ele><time>2022-11-01T12:11:25.0000000+00:00</time></trkpt><trkpt lat="39.52088057" lon="-0.50364694"><ele>87.0</ele><time>2022-11-01T12:11:26.0000000+00:00</time></trkpt><trkpt lat="39.52088057" lon="-0.50364694"><ele>87.0</ele><time>2022-11-01T12:11:27.0000000+00:00</time></trkpt><trkpt lat="39.52088015" lon="-0.50365431"><ele>87.0</ele><time>2022-11-01T12:11:28.0000000+00:00</time></trkpt><trkpt lat="39.52088141" lon="-0.5036575"><ele>87.0</ele><time>2022-11-01T12:11:29.0000000+00:00</time></trkpt><trkpt lat="39.52088141" lon="-0.5036575"><ele>87.0</ele><time>2022-11-01T12:11:30.0000000+00:00</time></trkpt><trkpt lat="39.52088141" lon="-0.5036575"><ele>87.0</ele><time>2022-11-01T12:11:31.0000000+00:00</time></trkpt><trkpt lat="39.52088141" lon="-0.5036575"><ele>87.0</ele><time>2022-11-01T12:11:32.0000000+00:00</time></trkpt><trkpt lat="39.52088141" lon="-0.5036575"><ele>87.0</ele><time>2022-11-01T12:11:33.0000000+00:00</time></trkpt><trkpt lat="39.52088141" lon="-0.5036575"><ele>87.0</ele><time>2022-11-01T12:11:34.0000000+00:00</time></trkpt><trkpt lat="39.52088141" lon="-0.5036575"><ele>87.0</ele><time>2022-11-01T12:11:35.0000000+00:00</time></trkpt><trkpt lat="39.52088141" lon="-0.5036575"><ele>87.0</ele><time>2022-11-01T12:11:36.0000000+00:00</time></trkpt><trkpt lat="39.52088141" lon="-0.5036575"><ele>87.0</ele><time>2022-11-01T12:11:37.0000000+00:00</time></trkpt><trkpt lat="39.52087915" lon="-0.50365591"><ele>87.0</ele><time>2022-11-01T12:11:38.0000000+00:00</time></trkpt><trkpt lat="39.52087814" lon="-0.50365171"><ele>87.0</ele><time>2022-11-01T12:11:39.0000000+00:00</time></trkpt><trkpt lat="39.52087814" lon="-0.50365171"><ele>87.0</ele><time>2022-11-01T12:11:40.0000000+00:00</time></trkpt><trkpt lat="39.52087814" lon="-0.50365171"><ele>87.0</ele><time>2022-11-01T12:11:41.0000000+00:00</time></trkpt><trkpt lat="39.52087814" lon="-0.50365171"><ele>87.0</ele><time>2022-11-01T12:11:42.0000000+00:00</time></trkpt><trkpt lat="39.52087814" lon="-0.50365171"><ele>87.0</ele><time>2022-11-01T12:11:43.0000000+00:00</time></trkpt><trkpt lat="39.52087814" lon="-0.50365171"><ele>87.0</ele><time>2022-11-01T12:11:44.0000000+00:00</time></trkpt><trkpt lat="39.52087814" lon="-0.50365171"><ele>87.0</ele><time>2022-11-01T12:11:45.0000000+00:00</time></trkpt><trkpt lat="39.52087571" lon="-0.50366052"><ele>87.0</ele><time>2022-11-01T12:11:46.0000000+00:00</time></trkpt><trkpt lat="39.52087672" lon="-0.50366404"><ele>87.0</ele><time>2022-11-01T12:11:47.0000000+00:00</time></trkpt><trkpt lat="39.52087672" lon="-0.50366404"><ele>87.0</ele><time>2022-11-01T12:11:48.0000000+00:00</time></trkpt><trkpt lat="39.52087672" lon="-0.50366404"><ele>87.0</ele><time>2022-11-01T12:11:49.0000000+00:00</time></trkpt><trkpt lat="39.5208742" lon="-0.50366194"><ele>87.0</ele><time>2022-11-01T12:11:50.0000000+00:00</time></trkpt><trkpt lat="39.5208732" lon="-0.50365959"><ele>87.0</ele><time>2022-11-01T12:11:51.0000000+00:00</time></trkpt><trkpt lat="39.5208732" lon="-0.50365959"><ele>87.0</ele><time>2022-11-01T12:11:52.0000000+00:00</time></trkpt><trkpt lat="39.5208732" lon="-0.50365959"><ele>87.0</ele><time>2022-11-01T12:11:53.0000000+00:00</time></trkpt><trkpt lat="39.5208732" lon="-0.50365959"><ele>87.0</ele><time>2022-11-01T12:11:54.0000000+00:00</time></trkpt><trkpt lat="39.5208732" lon="-0.50365959"><ele>87.0</ele><time>2022-11-01T12:11:55.0000000+00:00</time></trkpt><trkpt lat="39.5208732" lon="-0.50365959"><ele>87.0</ele><time>2022-11-01T12:11:56.0000000+00:00</time></trkpt><trkpt lat="39.5208732" lon="-0.50365959"><ele>87.0</ele><time>2022-11-01T12:11:57.0000000+00:00</time></trkpt><trkpt lat="39.5208732" lon="-0.50365959"><ele>87.0</ele><time>2022-11-01T12:11:58.0000000+00:00</time></trkpt><trkpt lat="39.5208732" lon="-0.50365959"><ele>87.0</ele><time>2022-11-01T12:11:59.0000000+00:00</time></trkpt><trkpt lat="39.5208732" lon="-0.50365959"><ele>87.0</ele><time>2022-11-01T12:12:00.0000000+00:00</time></trkpt><trkpt lat="39.5208732" lon="-0.50365959"><ele>87.0</ele><time>2022-11-01T12:12:01.0000000+00:00</time></trkpt><trkpt lat="39.5208732" lon="-0.50365959"><ele>87.0</ele><time>2022-11-01T12:12:02.0000000+00:00</time></trkpt><trkpt lat="39.5208732" lon="-0.50365959"><ele>87.0</ele><time>2022-11-01T12:12:03.0000000+00:00</time></trkpt><trkpt lat="39.5208732" lon="-0.50365959"><ele>87.0</ele><time>2022-11-01T12:12:04.0000000+00:00</time></trkpt><trkpt lat="39.5208732" lon="-0.50365959"><ele>87.0</ele><time>2022-11-01T12:12:05.0000000+00:00</time></trkpt><trkpt lat="39.5208732" lon="-0.50365959"><ele>87.0</ele><time>2022-11-01T12:12:06.0000000+00:00</time></trkpt><trkpt lat="39.5208732" lon="-0.50365959"><ele>87.0</ele><time>2022-11-01T12:12:07.0000000+00:00</time></trkpt><trkpt lat="39.52087814" lon="-0.50366412"><ele>87.0</ele><time>2022-11-01T12:12:08.0000000+00:00</time></trkpt><trkpt lat="39.52087873" lon="-0.50366856"><ele>87.0</ele><time>2022-11-01T12:12:09.0000000+00:00</time></trkpt><trkpt lat="39.52087873" lon="-0.50366856"><ele>87.0</ele><time>2022-11-01T12:12:10.0000000+00:00</time></trkpt><trkpt lat="39.52087873" lon="-0.50366856"><ele>87.0</ele><time>2022-11-01T12:12:11.0000000+00:00</time></trkpt><trkpt lat="39.52087873" lon="-0.50366856"><ele>87.0</ele><time>2022-11-01T12:12:12.0000000+00:00</time></trkpt><trkpt lat="39.52088007" lon="-0.50366554"><ele>87.0</ele><time>2022-11-01T12:12:13.0000000+00:00</time></trkpt><trkpt lat="39.52087965" lon="-0.50366202"><ele>87.0</ele><time>2022-11-01T12:12:14.0000000+00:00</time></trkpt><trkpt lat="39.52087965" lon="-0.50366202"><ele>87.0</ele><time>2022-11-01T12:12:15.0000000+00:00</time></trkpt><trkpt lat="39.52087957" lon="-0.50366714"><ele>87.0</ele><time>2022-11-01T12:12:16.0000000+00:00</time></trkpt><trkpt lat="39.52087965" lon="-0.50367954"><ele>87.0</ele><time>2022-11-01T12:12:17.0000000+00:00</time></trkpt><trkpt lat="39.52088141" lon="-0.50369027"><ele>87.0</ele><time>2022-11-01T12:12:18.0000000+00:00</time></trkpt><trkpt lat="39.52088242" lon="-0.50369446"><ele>87.0</ele><time>2022-11-01T12:12:19.0000000+00:00</time></trkpt><trkpt lat="39.5208835" lon="-0.50369958"><ele>87.0</ele><time>2022-11-01T12:12:20.0000000+00:00</time></trkpt><trkpt lat="39.52088418" lon="-0.50370351"><ele>87.0</ele><time>2022-11-01T12:12:21.0000000+00:00</time></trkpt><trkpt lat="39.52088418" lon="-0.50370351"><ele>87.0</ele><time>2022-11-01T12:12:22.0000000+00:00</time></trkpt><trkpt lat="39.52088418" lon="-0.50370351"><ele>87.0</ele><time>2022-11-01T12:12:23.0000000+00:00</time></trkpt><trkpt lat="39.52088216" lon="-0.50370829"><ele>87.0</ele><time>2022-11-01T12:12:24.0000000+00:00</time></trkpt><trkpt lat="39.52087948" lon="-0.5037119"><ele>87.0</ele><time>2022-11-01T12:12:25.0000000+00:00</time></trkpt><trkpt lat="39.52087948" lon="-0.5037119"><ele>87.0</ele><time>2022-11-01T12:12:26.0000000+00:00</time></trkpt><trkpt lat="39.52087948" lon="-0.5037119"><ele>87.0</ele><time>2022-11-01T12:12:27.0000000+00:00</time></trkpt><trkpt lat="39.52087948" lon="-0.5037119"><ele>87.0</ele><time>2022-11-01T12:12:28.0000000+00:00</time></trkpt><trkpt lat="39.52087948" lon="-0.5037119"><ele>87.0</ele><time>2022-11-01T12:12:29.0000000+00:00</time></trkpt><trkpt lat="39.52087948" lon="-0.5037119"><ele>87.0</ele><time>2022-11-01T12:12:30.0000000+00:00</time></trkpt><trkpt lat="39.5208763" lon="-0.50371072"><ele>87.0</ele><time>2022-11-01T12:12:31.0000000+00:00</time></trkpt><trkpt lat="39.5208747" lon="-0.50370771"><ele>87.0</ele><time>2022-11-01T12:12:32.0000000+00:00</time></trkpt><trkpt lat="39.5208747" lon="-0.50370771"><ele>87.0</ele><time>2022-11-01T12:12:33.0000000+00:00</time></trkpt><trkpt lat="39.5208747" lon="-0.50370771"><ele>87.0</ele><time>2022-11-01T12:12:34.0000000+00:00</time></trkpt><trkpt lat="39.5208747" lon="-0.50370771"><ele>87.0</ele><time>2022-11-01T12:12:35.0000000+00:00</time></trkpt><trkpt lat="39.5208747" lon="-0.50370771"><ele>87.0</ele><time>2022-11-01T12:12:36.0000000+00:00</time></trkpt><trkpt lat="39.5208747" lon="-0.50370771"><ele>87.0</ele><time>2022-11-01T12:12:37.0000000+00:00</time></trkpt><trkpt lat="39.5208747" lon="-0.50370771"><ele>87.0</ele><time>2022-11-01T12:12:38.0000000+00:00</time></trkpt><trkpt lat="39.5208747" lon="-0.50370771"><ele>87.0</ele><time>2022-11-01T12:12:39.0000000+00:00</time></trkpt><trkpt lat="39.5208747" lon="-0.50370771"><ele>87.0</ele><time>2022-11-01T12:12:40.0000000+00:00</time></trkpt><trkpt lat="39.5208747" lon="-0.50370771"><ele>87.0</ele><time>2022-11-01T12:12:41.0000000+00:00</time></trkpt><trkpt lat="39.5208747" lon="-0.50370771"><ele>87.0</ele><time>2022-11-01T12:12:42.0000000+00:00</time></trkpt><trkpt lat="39.5208747" lon="-0.50370771"><ele>87.0</ele><time>2022-11-01T12:12:43.0000000+00:00</time></trkpt><trkpt lat="39.5208747" lon="-0.50370771"><ele>87.0</ele><time>2022-11-01T12:12:44.0000000+00:00</time></trkpt><trkpt lat="39.5208747" lon="-0.50370771"><ele>87.0</ele><time>2022-11-01T12:12:45.0000000+00:00</time></trkpt><trkpt lat="39.5208747" lon="-0.50370771"><ele>87.0</ele><time>2022-11-01T12:12:46.0000000+00:00</time></trkpt><trkpt lat="39.5208747" lon="-0.50370771"><ele>87.0</ele><time>2022-11-01T12:12:47.0000000+00:00</time></trkpt><trkpt lat="39.5208747" lon="-0.50370771"><ele>87.0</ele><time>2022-11-01T12:12:48.0000000+00:00</time></trkpt><trkpt lat="39.5208747" lon="-0.50370771"><ele>87.0</ele><time>2022-11-01T12:12:49.0000000+00:00</time></trkpt><trkpt lat="39.5208747" lon="-0.50370771"><ele>87.0</ele><time>2022-11-01T12:12:50.0000000+00:00</time></trkpt><trkpt lat="39.5208747" lon="-0.50370771"><ele>87.0</ele><time>2022-11-01T12:12:51.0000000+00:00</time></trkpt><trkpt lat="39.5208747" lon="-0.50370771"><ele>87.0</ele><time>2022-11-01T12:12:52.0000000+00:00</time></trkpt><trkpt lat="39.5208747" lon="-0.50370771"><ele>87.0</ele><time>2022-11-01T12:12:53.0000000+00:00</time></trkpt><trkpt lat="39.5208747" lon="-0.50370771"><ele>87.0</ele><time>2022-11-01T12:12:54.0000000+00:00</time></trkpt><trkpt lat="39.5208747" lon="-0.50370771"><ele>87.0</ele><time>2022-11-01T12:12:55.0000000+00:00</time></trkpt><trkpt lat="39.5208747" lon="-0.50370771"><ele>87.0</ele><time>2022-11-01T12:12:56.0000000+00:00</time></trkpt><trkpt lat="39.5208747" lon="-0.50370771"><ele>87.0</ele><time>2022-11-01T12:12:57.0000000+00:00</time></trkpt><trkpt lat="39.5208747" lon="-0.50370771"><ele>87.0</ele><time>2022-11-01T12:12:58.0000000+00:00</time></trkpt><trkpt lat="39.5208747" lon="-0.50370771"><ele>87.0</ele><time>2022-11-01T12:12:59.0000000+00:00</time></trkpt><trkpt lat="39.5208747" lon="-0.50370771"><ele>87.0</ele><time>2022-11-01T12:13:00.0000000+00:00</time></trkpt><trkpt lat="39.5208747" lon="-0.50370771"><ele>87.0</ele><time>2022-11-01T12:13:01.0000000+00:00</time></trkpt><trkpt lat="39.5208747" lon="-0.50370771"><ele>87.0</ele><time>2022-11-01T12:13:02.0000000+00:00</time></trkpt><trkpt lat="39.5208747" lon="-0.50370771"><ele>87.0</ele><time>2022-11-01T12:13:03.0000000+00:00</time></trkpt><trkpt lat="39.5208747" lon="-0.50370771"><ele>87.0</ele><time>2022-11-01T12:13:04.0000000+00:00</time></trkpt><trkpt lat="39.5208747" lon="-0.50370771"><ele>87.0</ele><time>2022-11-01T12:13:05.0000000+00:00</time></trkpt><trkpt lat="39.5208747" lon="-0.50370771"><ele>87.0</ele><time>2022-11-01T12:13:06.0000000+00:00</time></trkpt><trkpt lat="39.5208747" lon="-0.50370771"><ele>87.0</ele><time>2022-11-01T12:13:07.0000000+00:00</time></trkpt><trkpt lat="39.5208747" lon="-0.50370771"><ele>87.0</ele><time>2022-11-01T12:13:08.0000000+00:00</time></trkpt><trkpt lat="39.5208747" lon="-0.50370771"><ele>87.0</ele><time>2022-11-01T12:13:09.0000000+00:00</time></trkpt><trkpt lat="39.5208747" lon="-0.50370771"><ele>87.0</ele><time>2022-11-01T12:13:10.0000000+00:00</time></trkpt><trkpt lat="39.5208747" lon="-0.50370771"><ele>87.0</ele><time>2022-11-01T12:13:11.0000000+00:00</time></trkpt><trkpt lat="39.5208747" lon="-0.50370771"><ele>87.0</ele><time>2022-11-01T12:13:12.0000000+00:00</time></trkpt><trkpt lat="39.5208747" lon="-0.50370771"><ele>87.0</ele><time>2022-11-01T12:13:13.0000000+00:00</time></trkpt><trkpt lat="39.5208747" lon="-0.50370771"><ele>87.0</ele><time>2022-11-01T12:13:14.0000000+00:00</time></trkpt><trkpt lat="39.5208747" lon="-0.50370771"><ele>87.0</ele><time>2022-11-01T12:13:15.0000000+00:00</time></trkpt><trkpt lat="39.5208747" lon="-0.50370771"><ele>87.0</ele><time>2022-11-01T12:13:16.0000000+00:00</time></trkpt><trkpt lat="39.5208747" lon="-0.50370771"><ele>87.0</ele><time>2022-11-01T12:13:17.0000000+00:00</time></trkpt><trkpt lat="39.5208747" lon="-0.50370771"><ele>87.0</ele><time>2022-11-01T12:13:18.0000000+00:00</time></trkpt><trkpt lat="39.5208747" lon="-0.50370771"><ele>87.0</ele><time>2022-11-01T12:13:19.0000000+00:00</time></trkpt><trkpt lat="39.5208747" lon="-0.50370771"><ele>87.0</ele><time>2022-11-01T12:13:20.0000000+00:00</time></trkpt><trkpt lat="39.5208747" lon="-0.50370771"><ele>87.0</ele><time>2022-11-01T12:13:21.0000000+00:00</time></trkpt><trkpt lat="39.5208747" lon="-0.50370771"><ele>87.0</ele><time>2022-11-01T12:13:22.0000000+00:00</time></trkpt><trkpt lat="39.5208747" lon="-0.50370771"><ele>87.0</ele><time>2022-11-01T12:13:23.0000000+00:00</time></trkpt><trkpt lat="39.5208747" lon="-0.50370771"><ele>87.0</ele><time>2022-11-01T12:13:24.0000000+00:00</time></trkpt><trkpt lat="39.5208747" lon="-0.50370771"><ele>87.0</ele><time>2022-11-01T12:13:25.0000000+00:00</time></trkpt><trkpt lat="39.5208747" lon="-0.50370771"><ele>87.0</ele><time>2022-11-01T12:13:26.0000000+00:00</time></trkpt><trkpt lat="39.5208747" lon="-0.50370771"><ele>87.0</ele><time>2022-11-01T12:13:27.0000000+00:00</time></trkpt><trkpt lat="39.5208747" lon="-0.50370771"><ele>87.0</ele><time>2022-11-01T12:13:28.0000000+00:00</time></trkpt><trkpt lat="39.5208747" lon="-0.50370771"><ele>87.0</ele><time>2022-11-01T12:13:29.0000000+00:00</time></trkpt><trkpt lat="39.5208747" lon="-0.50370771"><ele>87.0</ele><time>2022-11-01T12:13:30.0000000+00:00</time></trkpt><trkpt lat="39.5208747" lon="-0.50370771"><ele>87.0</ele><time>2022-11-01T12:13:31.0000000+00:00</time></trkpt><trkpt lat="39.5208747" lon="-0.50370771"><ele>87.0</ele><time>2022-11-01T12:13:32.0000000+00:00</time></trkpt><trkpt lat="39.5208747" lon="-0.50370771"><ele>87.0</ele><time>2022-11-01T12:13:33.0000000+00:00</time></trkpt><trkpt lat="39.5208747" lon="-0.50370771"><ele>87.0</ele><time>2022-11-01T12:13:34.0000000+00:00</time></trkpt><trkpt lat="39.5208747" lon="-0.50370771"><ele>87.0</ele><time>2022-11-01T12:13:35.0000000+00:00</time></trkpt><trkpt lat="39.5208747" lon="-0.50370771"><ele>87.0</ele><time>2022-11-01T12:13:36.0000000+00:00</time></trkpt><trkpt lat="39.5208747" lon="-0.50370771"><ele>87.0</ele><time>2022-11-01T12:13:37.0000000+00:00</time></trkpt><trkpt lat="39.5208747" lon="-0.50370771"><ele>87.0</ele><time>2022-11-01T12:13:38.0000000+00:00</time></trkpt><trkpt lat="39.5208747" lon="-0.50370771"><ele>87.0</ele><time>2022-11-01T12:13:39.0000000+00:00</time></trkpt><trkpt lat="39.5208747" lon="-0.50370771"><ele>87.0</ele><time>2022-11-01T12:13:40.0000000+00:00</time></trkpt><trkpt lat="39.5208747" lon="-0.50370771"><ele>87.0</ele><time>2022-11-01T12:13:41.0000000+00:00</time></trkpt><trkpt lat="39.5208747" lon="-0.50370771"><ele>87.0</ele><time>2022-11-01T12:13:42.0000000+00:00</time></trkpt><trkpt lat="39.5208747" lon="-0.50370771"><ele>87.0</ele><time>2022-11-01T12:13:43.0000000+00:00</time></trkpt><trkpt lat="39.5208747" lon="-0.50370771"><ele>87.0</ele><time>2022-11-01T12:13:44.0000000+00:00</time></trkpt><trkpt lat="39.5208747" lon="-0.50370771"><ele>87.0</ele><time>2022-11-01T12:13:45.0000000+00:00</time></trkpt><trkpt lat="39.5208747" lon="-0.50370771"><ele>87.0</ele><time>2022-11-01T12:13:46.0000000+00:00</time></trkpt><trkpt lat="39.5208747" lon="-0.50370771"><ele>87.0</ele><time>2022-11-01T12:13:47.0000000+00:00</time></trkpt><trkpt lat="39.5208747" lon="-0.50370771"><ele>87.0</ele><time>2022-11-01T12:13:48.0000000+00:00</time></trkpt><trkpt lat="39.5208747" lon="-0.50370771"><ele>87.0</ele><time>2022-11-01T12:13:49.0000000+00:00</time></trkpt><trkpt lat="39.5208747" lon="-0.50370771"><ele>87.0</ele><time>2022-11-01T12:13:50.0000000+00:00</time></trkpt><trkpt lat="39.5208747" lon="-0.50370771"><ele>87.0</ele><time>2022-11-01T12:13:51.0000000+00:00</time></trkpt><trkpt lat="39.5208747" lon="-0.50370771"><ele>87.0</ele><time>2022-11-01T12:13:52.0000000+00:00</time></trkpt><trkpt lat="39.5208747" lon="-0.50370771"><ele>87.0</ele><time>2022-11-01T12:13:53.0000000+00:00</time></trkpt><trkpt lat="39.5208747" lon="-0.50370771"><ele>87.0</ele><time>2022-11-01T12:13:54.0000000+00:00</time></trkpt><trkpt lat="39.5208747" lon="-0.50370771"><ele>87.0</ele><time>2022-11-01T12:13:55.0000000+00:00</time></trkpt><trkpt lat="39.5208747" lon="-0.50370771"><ele>87.0</ele><time>2022-11-01T12:13:56.0000000+00:00</time></trkpt><trkpt lat="39.5208747" lon="-0.50370771"><ele>87.0</ele><time>2022-11-01T12:13:57.0000000+00:00</time></trkpt><trkpt lat="39.5208747" lon="-0.50370771"><ele>87.0</ele><time>2022-11-01T12:13:58.0000000+00:00</time></trkpt><trkpt lat="39.5208747" lon="-0.50370771"><ele>87.0</ele><time>2022-11-01T12:13:59.0000000+00:00</time></trkpt><trkpt lat="39.5208747" lon="-0.50370771"><ele>87.0</ele><time>2022-11-01T12:14:00.0000000+00:00</time></trkpt><trkpt lat="39.5208747" lon="-0.50370771"><ele>87.0</ele><time>2022-11-01T12:14:01.0000000+00:00</time></trkpt><trkpt lat="39.5208747" lon="-0.50370771"><ele>87.0</ele><time>2022-11-01T12:14:02.0000000+00:00</time></trkpt><trkpt lat="39.5208747" lon="-0.50370771"><ele>87.0</ele><time>2022-11-01T12:14:03.0000000+00:00</time></trkpt><trkpt lat="39.5208747" lon="-0.50370771"><ele>87.0</ele><time>2022-11-01T12:14:04.0000000+00:00</time></trkpt><trkpt lat="39.5208747" lon="-0.50370771"><ele>87.0</ele><time>2022-11-01T12:14:05.0000000+00:00</time></trkpt><trkpt lat="39.5208747" lon="-0.50370771"><ele>87.0</ele><time>2022-11-01T12:14:06.0000000+00:00</time></trkpt><trkpt lat="39.5208747" lon="-0.50370771"><ele>87.0</ele><time>2022-11-01T12:14:07.0000000+00:00</time></trkpt><trkpt lat="39.5208747" lon="-0.50370771"><ele>87.0</ele><time>2022-11-01T12:14:08.0000000+00:00</time></trkpt><trkpt lat="39.5208747" lon="-0.50370771"><ele>87.0</ele><time>2022-11-01T12:14:09.0000000+00:00</time></trkpt><trkpt lat="39.5208747" lon="-0.50370771"><ele>87.0</ele><time>2022-11-01T12:14:10.0000000+00:00</time></trkpt><trkpt lat="39.5208747" lon="-0.50370771"><ele>87.0</ele><time>2022-11-01T12:14:11.0000000+00:00</time></trkpt><trkpt lat="39.5208747" lon="-0.50370771"><ele>87.0</ele><time>2022-11-01T12:14:12.0000000+00:00</time></trkpt><trkpt lat="39.5208747" lon="-0.50370771"><ele>87.0</ele><time>2022-11-01T12:14:13.0000000+00:00</time></trkpt><trkpt lat="39.5208747" lon="-0.50370771"><ele>87.0</ele><time>2022-11-01T12:14:14.0000000+00:00</time></trkpt><trkpt lat="39.5208747" lon="-0.50370771"><ele>87.0</ele><time>2022-11-01T12:14:15.0000000+00:00</time></trkpt><trkpt lat="39.5208747" lon="-0.50370771"><ele>87.0</ele><time>2022-11-01T12:14:16.0000000+00:00</time></trkpt><trkpt lat="39.5208747" lon="-0.50370771"><ele>87.0</ele><time>2022-11-01T12:14:17.0000000+00:00</time></trkpt><trkpt lat="39.5208747" lon="-0.50370771"><ele>87.0</ele><time>2022-11-01T12:14:18.0000000+00:00</time></trkpt><trkpt lat="39.5208747" lon="-0.50370771"><ele>87.0</ele><time>2022-11-01T12:14:19.0000000+00:00</time></trkpt><trkpt lat="39.5208747" lon="-0.50370771"><ele>87.0</ele><time>2022-11-01T12:14:20.0000000+00:00</time></trkpt><trkpt lat="39.5208747" lon="-0.50370771"><ele>87.0</ele><time>2022-11-01T12:14:21.0000000+00:00</time></trkpt><trkpt lat="39.5208747" lon="-0.50370771"><ele>87.0</ele><time>2022-11-01T12:14:22.0000000+00:00</time></trkpt><trkpt lat="39.5208747" lon="-0.50370771"><ele>87.0</ele><time>2022-11-01T12:14:23.0000000+00:00</time></trkpt><trkpt lat="39.5208747" lon="-0.50370771"><ele>87.0</ele><time>2022-11-01T12:14:24.0000000+00:00</time></trkpt><trkpt lat="39.5208747" lon="-0.50370771"><ele>87.0</ele><time>2022-11-01T12:14:25.0000000+00:00</time></trkpt><trkpt lat="39.5208747" lon="-0.50370771"><ele>87.0</ele><time>2022-11-01T12:14:26.0000000+00:00</time></trkpt><trkpt lat="39.5208747" lon="-0.50370771"><ele>87.0</ele><time>2022-11-01T12:14:27.0000000+00:00</time></trkpt><trkpt lat="39.5208747" lon="-0.50370771"><ele>87.0</ele><time>2022-11-01T12:14:28.0000000+00:00</time></trkpt><trkpt lat="39.5208747" lon="-0.50370771"><ele>87.0</ele><time>2022-11-01T12:14:29.0000000+00:00</time></trkpt><trkpt lat="39.5208747" lon="-0.50370771"><ele>87.0</ele><time>2022-11-01T12:14:30.0000000+00:00</time></trkpt><trkpt lat="39.52087345" lon="-0.50370217"><ele>87.0</ele><time>2022-11-01T12:14:31.0000000+00:00</time></trkpt><trkpt lat="39.52087135" lon="-0.50369555"><ele>87.0</ele><time>2022-11-01T12:14:32.0000000+00:00</time></trkpt><trkpt lat="39.52087135" lon="-0.50369555"><ele>87.0</ele><time>2022-11-01T12:14:33.0000000+00:00</time></trkpt><trkpt lat="39.52087135" lon="-0.50369555"><ele>87.0</ele><time>2022-11-01T12:14:34.0000000+00:00</time></trkpt><trkpt lat="39.52087135" lon="-0.50369555"><ele>87.0</ele><time>2022-11-01T12:14:35.0000000+00:00</time></trkpt><trkpt lat="39.52087135" lon="-0.50369555"><ele>87.0</ele><time>2022-11-01T12:14:36.0000000+00:00</time></trkpt><trkpt lat="39.52087236" lon="-0.50370737"><ele>87.0</ele><time>2022-11-01T12:14:37.0000000+00:00</time></trkpt><trkpt lat="39.52087202" lon="-0.50370368"><ele>87.0</ele><time>2022-11-01T12:14:38.0000000+00:00</time></trkpt><trkpt lat="39.52087202" lon="-0.50370368"><ele>87.0</ele><time>2022-11-01T12:14:39.0000000+00:00</time></trkpt><trkpt lat="39.52087202" lon="-0.50370368"><ele>87.0</ele><time>2022-11-01T12:14:40.0000000+00:00</time></trkpt><trkpt lat="39.52087202" lon="-0.50370368"><ele>87.0</ele><time>2022-11-01T12:14:41.0000000+00:00</time></trkpt><trkpt lat="39.52087202" lon="-0.50370368"><ele>87.0</ele><time>2022-11-01T12:14:42.0000000+00:00</time></trkpt><trkpt lat="39.52087202" lon="-0.50370368"><ele>87.0</ele><time>2022-11-01T12:14:43.0000000+00:00</time></trkpt><trkpt lat="39.52086532" lon="-0.50371139"><ele>87.0</ele><time>2022-11-01T12:14:44.0000000+00:00</time></trkpt><trkpt lat="39.52086456" lon="-0.50370787"><ele>87.0</ele><time>2022-11-01T12:14:45.0000000+00:00</time></trkpt><trkpt lat="39.52086456" lon="-0.50370787"><ele>87.0</ele><time>2022-11-01T12:14:46.0000000+00:00</time></trkpt><trkpt lat="39.52086473" lon="-0.5037088"><ele>87.0</ele><time>2022-11-01T12:14:47.0000000+00:00</time></trkpt><trkpt lat="39.52086523" lon="-0.50370276"><ele>87.0</ele><time>2022-11-01T12:14:48.0000000+00:00</time></trkpt><trkpt lat="39.52086465" lon="-0.50369832"><ele>87.0</ele><time>2022-11-01T12:14:49.0000000+00:00</time></trkpt><trkpt lat="39.52086465" lon="-0.50369832"><ele>87.0</ele><time>2022-11-01T12:14:50.0000000+00:00</time></trkpt><trkpt lat="39.52086465" lon="-0.50369832"><ele>87.0</ele><time>2022-11-01T12:14:51.0000000+00:00</time></trkpt><trkpt lat="39.52086465" lon="-0.50369832"><ele>87.0</ele><time>2022-11-01T12:14:52.0000000+00:00</time></trkpt><trkpt lat="39.52086465" lon="-0.50369832"><ele>87.0</ele><time>2022-11-01T12:14:53.0000000+00:00</time></trkpt><trkpt lat="39.52086465" lon="-0.50369832"><ele>87.0</ele><time>2022-11-01T12:14:54.0000000+00:00</time></trkpt><trkpt lat="39.52086465" lon="-0.50369832"><ele>87.0</ele><time>2022-11-01T12:14:55.0000000+00:00</time></trkpt><trkpt lat="39.52086465" lon="-0.50369832"><ele>87.0</ele><time>2022-11-01T12:14:56.0000000+00:00</time></trkpt><trkpt lat="39.52086465" lon="-0.50369832"><ele>87.0</ele><time>2022-11-01T12:14:57.0000000+00:00</time></trkpt><trkpt lat="39.52086465" lon="-0.50369832"><ele>87.0</ele><time>2022-11-01T12:14:58.0000000+00:00</time></trkpt><trkpt lat="39.52086465" lon="-0.50369832"><ele>87.0</ele><time>2022-11-01T12:14:59.0000000+00:00</time></trkpt><trkpt lat="39.52086465" lon="-0.50369832"><ele>87.0</ele><time>2022-11-01T12:15:00.0000000+00:00</time></trkpt><trkpt lat="39.52086465" lon="-0.50369832"><ele>87.0</ele><time>2022-11-01T12:15:01.0000000+00:00</time></trkpt><trkpt lat="39.52086465" lon="-0.50369832"><ele>87.0</ele><time>2022-11-01T12:15:02.0000000+00:00</time></trkpt><trkpt lat="39.52086465" lon="-0.50369832"><ele>87.0</ele><time>2022-11-01T12:15:03.0000000+00:00</time></trkpt><trkpt lat="39.52086465" lon="-0.50369832"><ele>87.0</ele><time>2022-11-01T12:15:04.0000000+00:00</time></trkpt><trkpt lat="39.52086465" lon="-0.50369832"><ele>87.0</ele><time>2022-11-01T12:15:05.0000000+00:00</time></trkpt><trkpt lat="39.52086465" lon="-0.50369832"><ele>87.0</ele><time>2022-11-01T12:15:06.0000000+00:00</time></trkpt><trkpt lat="39.52086465" lon="-0.50369832"><ele>87.0</ele><time>2022-11-01T12:15:07.0000000+00:00</time></trkpt><trkpt lat="39.52086465" lon="-0.50369832"><ele>87.0</ele><time>2022-11-01T12:15:08.0000000+00:00</time></trkpt><trkpt lat="39.52086465" lon="-0.50369832"><ele>87.0</ele><time>2022-11-01T12:15:09.0000000+00:00</time></trkpt><trkpt lat="39.52086465" lon="-0.50369832"><ele>87.0</ele><time>2022-11-01T12:15:10.0000000+00:00</time></trkpt><trkpt lat="39.52086465" lon="-0.50369832"><ele>87.0</ele><time>2022-11-01T12:15:11.0000000+00:00</time></trkpt><trkpt lat="39.52086465" lon="-0.50369832"><ele>87.0</ele><time>2022-11-01T12:15:12.0000000+00:00</time></trkpt><trkpt lat="39.52086465" lon="-0.50369832"><ele>87.0</ele><time>2022-11-01T12:15:13.0000000+00:00</time></trkpt><trkpt lat="39.52086465" lon="-0.50369832"><ele>87.0</ele><time>2022-11-01T12:15:14.0000000+00:00</time></trkpt><trkpt lat="39.52086465" lon="-0.50369832"><ele>87.0</ele><time>2022-11-01T12:15:15.0000000+00:00</time></trkpt><trkpt lat="39.52086465" lon="-0.50369832"><ele>87.0</ele><time>2022-11-01T12:15:16.0000000+00:00</time></trkpt><trkpt lat="39.52086465" lon="-0.50369832"><ele>87.0</ele><time>2022-11-01T12:15:17.0000000+00:00</time></trkpt><trkpt lat="39.52086465" lon="-0.50369832"><ele>87.0</ele><time>2022-11-01T12:15:18.0000000+00:00</time></trkpt><trkpt lat="39.52086465" lon="-0.50369832"><ele>87.0</ele><time>2022-11-01T12:15:19.0000000+00:00</time></trkpt><trkpt lat="39.52086465" lon="-0.50369832"><ele>87.0</ele><time>2022-11-01T12:15:20.0000000+00:00</time></trkpt><trkpt lat="39.52086465" lon="-0.50369832"><ele>87.0</ele><time>2022-11-01T12:15:21.0000000+00:00</time></trkpt><trkpt lat="39.52086414" lon="-0.50369958"><ele>87.0</ele><time>2022-11-01T12:15:22.0000000+00:00</time></trkpt><trkpt lat="39.52086322" lon="-0.50369597"><ele>87.0</ele><time>2022-11-01T12:15:23.0000000+00:00</time></trkpt><trkpt lat="39.52086322" lon="-0.50369597"><ele>87.0</ele><time>2022-11-01T12:15:24.0000000+00:00</time></trkpt><trkpt lat="39.52086322" lon="-0.50369597"><ele>87.0</ele><time>2022-11-01T12:15:25.0000000+00:00</time></trkpt><trkpt lat="39.52086322" lon="-0.50369597"><ele>87.0</ele><time>2022-11-01T12:15:26.0000000+00:00</time></trkpt><trkpt lat="39.52086322" lon="-0.50369597"><ele>87.0</ele><time>2022-11-01T12:15:27.0000000+00:00</time></trkpt><trkpt lat="39.52086322" lon="-0.50369597"><ele>87.0</ele><time>2022-11-01T12:15:28.0000000+00:00</time></trkpt><trkpt lat="39.52086322" lon="-0.50369597"><ele>87.0</ele><time>2022-11-01T12:15:29.0000000+00:00</time></trkpt><trkpt lat="39.52086322" lon="-0.50369597"><ele>87.0</ele><time>2022-11-01T12:15:30.0000000+00:00</time></trkpt><trkpt lat="39.52086322" lon="-0.50369597"><ele>87.0</ele><time>2022-11-01T12:15:31.0000000+00:00</time></trkpt><trkpt lat="39.52086322" lon="-0.50369597"><ele>87.0</ele><time>2022-11-01T12:15:32.0000000+00:00</time></trkpt><trkpt lat="39.52086322" lon="-0.50369597"><ele>87.0</ele><time>2022-11-01T12:15:33.0000000+00:00</time></trkpt><trkpt lat="39.52086322" lon="-0.50369597"><ele>87.0</ele><time>2022-11-01T12:15:34.0000000+00:00</time></trkpt><trkpt lat="39.52086322" lon="-0.50369597"><ele>87.0</ele><time>2022-11-01T12:15:35.0000000+00:00</time></trkpt><trkpt lat="39.52086322" lon="-0.50369597"><ele>87.0</ele><time>2022-11-01T12:15:36.0000000+00:00</time></trkpt><trkpt lat="39.52086322" lon="-0.50369597"><ele>87.0</ele><time>2022-11-01T12:15:37.0000000+00:00</time></trkpt><trkpt lat="39.52086322" lon="-0.50369597"><ele>87.0</ele><time>2022-11-01T12:15:38.0000000+00:00</time></trkpt><trkpt lat="39.52086322" lon="-0.50369597"><ele>87.0</ele><time>2022-11-01T12:15:39.0000000+00:00</time></trkpt><trkpt lat="39.52086322" lon="-0.50369597"><ele>87.0</ele><time>2022-11-01T12:15:40.0000000+00:00</time></trkpt><trkpt lat="39.52086322" lon="-0.50369597"><ele>87.0</ele><time>2022-11-01T12:15:41.0000000+00:00</time></trkpt><trkpt lat="39.52086322" lon="-0.50369597"><ele>87.0</ele><time>2022-11-01T12:15:42.0000000+00:00</time></trkpt><trkpt lat="39.52086322" lon="-0.50369597"><ele>87.0</ele><time>2022-11-01T12:15:43.0000000+00:00</time></trkpt><trkpt lat="39.52086322" lon="-0.50369597"><ele>87.0</ele><time>2022-11-01T12:15:44.0000000+00:00</time></trkpt><trkpt lat="39.52086322" lon="-0.50369597"><ele>87.0</ele><time>2022-11-01T12:15:45.0000000+00:00</time></trkpt><trkpt lat="39.52086322" lon="-0.50369597"><ele>87.0</ele><time>2022-11-01T12:15:46.0000000+00:00</time></trkpt><trkpt lat="39.52086322" lon="-0.50369597"><ele>87.0</ele><time>2022-11-01T12:15:47.0000000+00:00</time></trkpt><trkpt lat="39.52086322" lon="-0.50369597"><ele>87.0</ele><time>2022-11-01T12:15:48.0000000+00:00</time></trkpt><trkpt lat="39.52086322" lon="-0.50369597"><ele>87.0</ele><time>2022-11-01T12:15:49.0000000+00:00</time></trkpt><trkpt lat="39.52086322" lon="-0.50369597"><ele>87.0</ele><time>2022-11-01T12:15:50.0000000+00:00</time></trkpt><trkpt lat="39.52086322" lon="-0.50369597"><ele>87.0</ele><time>2022-11-01T12:15:51.0000000+00:00</time></trkpt><trkpt lat="39.52086322" lon="-0.50369597"><ele>87.0</ele><time>2022-11-01T12:15:52.0000000+00:00</time></trkpt><trkpt lat="39.52086322" lon="-0.50369597"><ele>87.0</ele><time>2022-11-01T12:15:53.0000000+00:00</time></trkpt><trkpt lat="39.52086322" lon="-0.50369597"><ele>87.0</ele><time>2022-11-01T12:15:54.0000000+00:00</time></trkpt><trkpt lat="39.52086322" lon="-0.50369597"><ele>87.0</ele><time>2022-11-01T12:15:55.0000000+00:00</time></trkpt><trkpt lat="39.52086322" lon="-0.50369597"><ele>87.0</ele><time>2022-11-01T12:15:56.0000000+00:00</time></trkpt><trkpt lat="39.52086322" lon="-0.50369597"><ele>87.0</ele><time>2022-11-01T12:15:57.0000000+00:00</time></trkpt><trkpt lat="39.52086322" lon="-0.50369597"><ele>87.0</ele><time>2022-11-01T12:15:58.0000000+00:00</time></trkpt><trkpt lat="39.52086322" lon="-0.50369597"><ele>87.0</ele><time>2022-11-01T12:15:59.0000000+00:00</time></trkpt><trkpt lat="39.52086322" lon="-0.50369597"><ele>87.0</ele><time>2022-11-01T12:16:00.0000000+00:00</time></trkpt><trkpt lat="39.52086322" lon="-0.50369597"><ele>87.0</ele><time>2022-11-01T12:16:01.0000000+00:00</time></trkpt><trkpt lat="39.52086322" lon="-0.50369597"><ele>87.0</ele><time>2022-11-01T12:16:02.0000000+00:00</time></trkpt><trkpt lat="39.52086322" lon="-0.50369597"><ele>87.0</ele><time>2022-11-01T12:16:03.0000000+00:00</time></trkpt><trkpt lat="39.52086138" lon="-0.50370762"><ele>87.0</ele><time>2022-11-01T12:16:04.0000000+00:00</time></trkpt><trkpt lat="39.52086129" lon="-0.50372187"><ele>87.0</ele><time>2022-11-01T12:16:05.0000000+00:00</time></trkpt><trkpt lat="39.52086121" lon="-0.50372531"><ele>87.0</ele><time>2022-11-01T12:16:06.0000000+00:00</time></trkpt><trkpt lat="39.52086121" lon="-0.50372531"><ele>87.0</ele><time>2022-11-01T12:16:07.0000000+00:00</time></trkpt><trkpt lat="39.52086121" lon="-0.50372531"><ele>87.0</ele><time>2022-11-01T12:16:08.0000000+00:00</time></trkpt><trkpt lat="39.52086121" lon="-0.50372531"><ele>87.0</ele><time>2022-11-01T12:16:09.0000000+00:00</time></trkpt><trkpt lat="39.52086004" lon="-0.503729"><ele>87.0</ele><time>2022-11-01T12:16:10.0000000+00:00</time></trkpt><trkpt lat="39.52085995" lon="-0.50372598"><ele>87.0</ele><time>2022-11-01T12:16:11.0000000+00:00</time></trkpt><trkpt lat="39.52085995" lon="-0.50372598"><ele>87.0</ele><time>2022-11-01T12:16:12.0000000+00:00</time></trkpt><trkpt lat="39.52085995" lon="-0.50372598"><ele>87.0</ele><time>2022-11-01T12:16:13.0000000+00:00</time></trkpt><trkpt lat="39.52085995" lon="-0.50372598"><ele>87.0</ele><time>2022-11-01T12:16:14.0000000+00:00</time></trkpt><trkpt lat="39.52085995" lon="-0.50372598"><ele>87.0</ele><time>2022-11-01T12:16:15.0000000+00:00</time></trkpt><trkpt lat="39.52085995" lon="-0.50372598"><ele>87.0</ele><time>2022-11-01T12:16:16.0000000+00:00</time></trkpt><trkpt lat="39.52085995" lon="-0.50372598"><ele>87.0</ele><time>2022-11-01T12:16:17.0000000+00:00</time></trkpt><trkpt lat="39.52085995" lon="-0.50372598"><ele>87.0</ele><time>2022-11-01T12:16:18.0000000+00:00</time></trkpt><trkpt lat="39.52085995" lon="-0.50372598"><ele>87.0</ele><time>2022-11-01T12:16:19.0000000+00:00</time></trkpt><trkpt lat="39.52085995" lon="-0.50372598"><ele>87.0</ele><time>2022-11-01T12:16:20.0000000+00:00</time></trkpt><trkpt lat="39.52085995" lon="-0.50372598"><ele>87.0</ele><time>2022-11-01T12:16:21.0000000+00:00</time></trkpt><trkpt lat="39.52085995" lon="-0.50372598"><ele>87.0</ele><time>2022-11-01T12:16:22.0000000+00:00</time></trkpt><trkpt lat="39.52085995" lon="-0.50372598"><ele>87.0</ele><time>2022-11-01T12:16:23.0000000+00:00</time></trkpt><trkpt lat="39.52085995" lon="-0.50372598"><ele>87.0</ele><time>2022-11-01T12:16:24.0000000+00:00</time></trkpt><trkpt lat="39.52085995" lon="-0.50372598"><ele>87.0</ele><time>2022-11-01T12:16:25.0000000+00:00</time></trkpt><trkpt lat="39.52085995" lon="-0.50372598"><ele>87.0</ele><time>2022-11-01T12:16:26.0000000+00:00</time></trkpt><trkpt lat="39.52085995" lon="-0.50372598"><ele>87.0</ele><time>2022-11-01T12:16:27.0000000+00:00</time></trkpt><trkpt lat="39.52085995" lon="-0.50372598"><ele>87.0</ele><time>2022-11-01T12:16:28.0000000+00:00</time></trkpt><trkpt lat="39.52085995" lon="-0.50372598"><ele>87.0</ele><time>2022-11-01T12:16:29.0000000+00:00</time></trkpt><trkpt lat="39.52085995" lon="-0.50372598"><ele>87.0</ele><time>2022-11-01T12:16:30.0000000+00:00</time></trkpt><trkpt lat="39.52085995" lon="-0.50372598"><ele>87.0</ele><time>2022-11-01T12:16:31.0000000+00:00</time></trkpt><trkpt lat="39.52085995" lon="-0.50372598"><ele>87.0</ele><time>2022-11-01T12:16:32.0000000+00:00</time></trkpt><trkpt lat="39.52085995" lon="-0.50372598"><ele>87.0</ele><time>2022-11-01T12:16:33.0000000+00:00</time></trkpt><trkpt lat="39.52085995" lon="-0.50372598"><ele>87.0</ele><time>2022-11-01T12:16:34.0000000+00:00</time></trkpt><trkpt lat="39.52085995" lon="-0.50372598"><ele>87.0</ele><time>2022-11-01T12:16:35.0000000+00:00</time></trkpt><trkpt lat="39.52085995" lon="-0.50372598"><ele>87.0</ele><time>2022-11-01T12:16:36.0000000+00:00</time></trkpt><trkpt lat="39.52085995" lon="-0.50372598"><ele>87.0</ele><time>2022-11-01T12:16:37.0000000+00:00</time></trkpt><trkpt lat="39.52085995" lon="-0.50372598"><ele>87.0</ele><time>2022-11-01T12:16:38.0000000+00:00</time></trkpt><trkpt lat="39.52085995" lon="-0.50372598"><ele>87.0</ele><time>2022-11-01T12:16:39.0000000+00:00</time></trkpt><trkpt lat="39.52085995" lon="-0.50372598"><ele>87.0</ele><time>2022-11-01T12:16:40.0000000+00:00</time></trkpt><trkpt lat="39.52085995" lon="-0.50372598"><ele>87.0</ele><time>2022-11-01T12:16:41.0000000+00:00</time></trkpt><trkpt lat="39.52085995" lon="-0.50372598"><ele>87.0</ele><time>2022-11-01T12:16:42.0000000+00:00</time></trkpt><trkpt lat="39.52085995" lon="-0.50372598"><ele>87.0</ele><time>2022-11-01T12:16:43.0000000+00:00</time></trkpt><trkpt lat="39.52085995" lon="-0.50372598"><ele>87.0</ele><time>2022-11-01T12:16:44.0000000+00:00</time></trkpt><trkpt lat="39.52085853" lon="-0.50372732"><ele>87.0</ele><time>2022-11-01T12:16:45.0000000+00:00</time></trkpt><trkpt lat="39.52085836" lon="-0.50372279"><ele>87.0</ele><time>2022-11-01T12:16:46.0000000+00:00</time></trkpt><trkpt lat="39.52085836" lon="-0.50372279"><ele>87.0</ele><time>2022-11-01T12:16:47.0000000+00:00</time></trkpt><trkpt lat="39.52085836" lon="-0.50372279"><ele>87.0</ele><time>2022-11-01T12:16:48.0000000+00:00</time></trkpt><trkpt lat="39.52085836" lon="-0.50372279"><ele>87.0</ele><time>2022-11-01T12:16:49.0000000+00:00</time></trkpt><trkpt lat="39.52085836" lon="-0.50372279"><ele>87.0</ele><time>2022-11-01T12:16:50.0000000+00:00</time></trkpt><trkpt lat="39.52085836" lon="-0.50372279"><ele>87.0</ele><time>2022-11-01T12:16:51.0000000+00:00</time></trkpt><trkpt lat="39.52085836" lon="-0.50372279"><ele>87.0</ele><time>2022-11-01T12:16:52.0000000+00:00</time></trkpt><trkpt lat="39.52085836" lon="-0.50372279"><ele>87.0</ele><time>2022-11-01T12:16:53.0000000+00:00</time></trkpt><trkpt lat="39.52085836" lon="-0.50372279"><ele>87.0</ele><time>2022-11-01T12:16:54.0000000+00:00</time></trkpt><trkpt lat="39.52085836" lon="-0.50372279"><ele>87.0</ele><time>2022-11-01T12:16:55.0000000+00:00</time></trkpt><trkpt lat="39.52085836" lon="-0.50372279"><ele>87.0</ele><time>2022-11-01T12:16:56.0000000+00:00</time></trkpt><trkpt lat="39.52085836" lon="-0.50372279"><ele>87.0</ele><time>2022-11-01T12:16:57.0000000+00:00</time></trkpt><trkpt lat="39.52085836" lon="-0.50372279"><ele>87.0</ele><time>2022-11-01T12:16:58.0000000+00:00</time></trkpt><trkpt lat="39.52085836" lon="-0.50372279"><ele>87.0</ele><time>2022-11-01T12:16:59.0000000+00:00</time></trkpt><trkpt lat="39.52085836" lon="-0.50372279"><ele>87.0</ele><time>2022-11-01T12:17:00.0000000+00:00</time></trkpt><trkpt lat="39.52085836" lon="-0.50372279"><ele>87.0</ele><time>2022-11-01T12:17:01.0000000+00:00</time></trkpt><trkpt lat="39.52085836" lon="-0.50372279"><ele>87.0</ele><time>2022-11-01T12:17:02.0000000+00:00</time></trkpt><trkpt lat="39.52085836" lon="-0.50372279"><ele>87.0</ele><time>2022-11-01T12:17:03.0000000+00:00</time></trkpt><trkpt lat="39.52085836" lon="-0.50372279"><ele>87.0</ele><time>2022-11-01T12:17:04.0000000+00:00</time></trkpt><trkpt lat="39.52085836" lon="-0.50372279"><ele>87.0</ele><time>2022-11-01T12:17:05.0000000+00:00</time></trkpt><trkpt lat="39.52085836" lon="-0.50372279"><ele>87.0</ele><time>2022-11-01T12:17:06.0000000+00:00</time></trkpt><trkpt lat="39.52085836" lon="-0.50372279"><ele>87.0</ele><time>2022-11-01T12:17:07.0000000+00:00</time></trkpt><trkpt lat="39.52085836" lon="-0.50372279"><ele>87.0</ele><time>2022-11-01T12:17:08.0000000+00:00</time></trkpt><trkpt lat="39.52085836" lon="-0.50372279"><ele>87.0</ele><time>2022-11-01T12:17:09.0000000+00:00</time></trkpt><trkpt lat="39.52085836" lon="-0.50372279"><ele>87.0</ele><time>2022-11-01T12:17:10.0000000+00:00</time></trkpt><trkpt lat="39.52085836" lon="-0.50372279"><ele>87.0</ele><time>2022-11-01T12:17:11.0000000+00:00</time></trkpt><trkpt lat="39.52085836" lon="-0.50372279"><ele>87.0</ele><time>2022-11-01T12:17:12.0000000+00:00</time></trkpt><trkpt lat="39.52085836" lon="-0.50372279"><ele>87.0</ele><time>2022-11-01T12:17:13.0000000+00:00</time></trkpt><trkpt lat="39.52085836" lon="-0.50372279"><ele>87.0</ele><time>2022-11-01T12:17:14.0000000+00:00</time></trkpt><trkpt lat="39.52085836" lon="-0.50372279"><ele>87.0</ele><time>2022-11-01T12:17:15.0000000+00:00</time></trkpt><trkpt lat="39.52085836" lon="-0.50372279"><ele>87.0</ele><time>2022-11-01T12:17:16.0000000+00:00</time></trkpt><trkpt lat="39.52085836" lon="-0.50372279"><ele>87.0</ele><time>2022-11-01T12:17:17.0000000+00:00</time></trkpt><trkpt lat="39.52085836" lon="-0.50372279"><ele>87.0</ele><time>2022-11-01T12:17:18.0000000+00:00</time></trkpt><trkpt lat="39.52085836" lon="-0.50372279"><ele>87.0</ele><time>2022-11-01T12:17:19.0000000+00:00</time></trkpt><trkpt lat="39.52085836" lon="-0.50372279"><ele>87.0</ele><time>2022-11-01T12:17:20.0000000+00:00</time></trkpt><trkpt lat="39.52085836" lon="-0.50372279"><ele>87.0</ele><time>2022-11-01T12:17:21.0000000+00:00</time></trkpt><trkpt lat="39.52085836" lon="-0.50372279"><ele>87.0</ele><time>2022-11-01T12:17:22.0000000+00:00</time></trkpt><trkpt lat="39.52085836" lon="-0.50372279"><ele>87.0</ele><time>2022-11-01T12:17:23.0000000+00:00</time></trkpt><trkpt lat="39.52085836" lon="-0.50372279"><ele>87.0</ele><time>2022-11-01T12:17:24.0000000+00:00</time></trkpt><trkpt lat="39.52085836" lon="-0.50372279"><ele>87.0</ele><time>2022-11-01T12:17:25.0000000+00:00</time></trkpt><trkpt lat="39.52085836" lon="-0.50372279"><ele>87.0</ele><time>2022-11-01T12:17:26.0000000+00:00</time></trkpt><trkpt lat="39.52085836" lon="-0.50372279"><ele>87.0</ele><time>2022-11-01T12:17:27.0000000+00:00</time></trkpt><trkpt lat="39.52085836" lon="-0.50372279"><ele>87.0</ele><time>2022-11-01T12:17:28.0000000+00:00</time></trkpt><trkpt lat="39.52085836" lon="-0.50372279"><ele>87.0</ele><time>2022-11-01T12:17:29.0000000+00:00</time></trkpt><trkpt lat="39.52085836" lon="-0.50372279"><ele>87.0</ele><time>2022-11-01T12:17:30.0000000+00:00</time></trkpt><trkpt lat="39.52085836" lon="-0.50372279"><ele>87.0</ele><time>2022-11-01T12:17:31.0000000+00:00</time></trkpt><trkpt lat="39.52085836" lon="-0.50372279"><ele>87.0</ele><time>2022-11-01T12:17:32.0000000+00:00</time></trkpt><trkpt lat="39.52085836" lon="-0.50372279"><ele>87.0</ele><time>2022-11-01T12:17:33.0000000+00:00</time></trkpt><trkpt lat="39.52085836" lon="-0.50372279"><ele>87.0</ele><time>2022-11-01T12:17:34.0000000+00:00</time></trkpt><trkpt lat="39.52085836" lon="-0.50372279"><ele>87.0</ele><time>2022-11-01T12:17:35.0000000+00:00</time></trkpt><trkpt lat="39.52085836" lon="-0.50372279"><ele>87.0</ele><time>2022-11-01T12:17:36.0000000+00:00</time></trkpt><trkpt lat="39.52085836" lon="-0.50372279"><ele>87.0</ele><time>2022-11-01T12:17:37.0000000+00:00</time></trkpt><trkpt lat="39.52085836" lon="-0.50372279"><ele>87.0</ele><time>2022-11-01T12:17:38.0000000+00:00</time></trkpt><trkpt lat="39.52085836" lon="-0.50372279"><ele>87.0</ele><time>2022-11-01T12:17:39.0000000+00:00</time></trkpt><trkpt lat="39.52085836" lon="-0.50372279"><ele>87.0</ele><time>2022-11-01T12:17:40.0000000+00:00</time></trkpt><trkpt lat="39.52085836" lon="-0.50372279"><ele>87.0</ele><time>2022-11-01T12:17:41.0000000+00:00</time></trkpt><trkpt lat="39.52085836" lon="-0.50372279"><ele>87.0</ele><time>2022-11-01T12:17:42.0000000+00:00</time></trkpt><trkpt lat="39.52085836" lon="-0.50372279"><ele>87.0</ele><time>2022-11-01T12:17:43.0000000+00:00</time></trkpt><trkpt lat="39.52085836" lon="-0.50372279"><ele>87.0</ele><time>2022-11-01T12:17:44.0000000+00:00</time></trkpt><trkpt lat="39.52085836" lon="-0.50372279"><ele>87.0</ele><time>2022-11-01T12:17:45.0000000+00:00</time></trkpt><trkpt lat="39.52085836" lon="-0.50372279"><ele>87.0</ele><time>2022-11-01T12:17:46.0000000+00:00</time></trkpt><trkpt lat="39.52085836" lon="-0.50372279"><ele>87.0</ele><time>2022-11-01T12:17:47.0000000+00:00</time></trkpt><trkpt lat="39.52085836" lon="-0.50372279"><ele>87.0</ele><time>2022-11-01T12:17:48.0000000+00:00</time></trkpt><trkpt lat="39.52085836" lon="-0.50372279"><ele>87.0</ele><time>2022-11-01T12:17:49.0000000+00:00</time></trkpt><trkpt lat="39.52085836" lon="-0.50372279"><ele>87.0</ele><time>2022-11-01T12:17:50.0000000+00:00</time></trkpt><trkpt lat="39.52085836" lon="-0.50372279"><ele>87.0</ele><time>2022-11-01T12:17:51.0000000+00:00</time></trkpt><trkpt lat="39.52085836" lon="-0.50372279"><ele>87.0</ele><time>2022-11-01T12:17:52.0000000+00:00</time></trkpt><trkpt lat="39.52085836" lon="-0.50372279"><ele>87.0</ele><time>2022-11-01T12:17:53.0000000+00:00</time></trkpt><trkpt lat="39.52085836" lon="-0.50372279"><ele>87.0</ele><time>2022-11-01T12:17:54.0000000+00:00</time></trkpt><trkpt lat="39.52085836" lon="-0.50372279"><ele>87.0</ele><time>2022-11-01T12:17:55.0000000+00:00</time></trkpt><trkpt lat="39.52085836" lon="-0.50372279"><ele>87.0</ele><time>2022-11-01T12:17:56.0000000+00:00</time></trkpt><trkpt lat="39.52085836" lon="-0.50372279"><ele>87.0</ele><time>2022-11-01T12:17:57.0000000+00:00</time></trkpt><trkpt lat="39.52085836" lon="-0.50372279"><ele>87.0</ele><time>2022-11-01T12:17:58.0000000+00:00</time></trkpt><trkpt lat="39.52085836" lon="-0.50372279"><ele>87.0</ele><time>2022-11-01T12:17:59.0000000+00:00</time></trkpt><trkpt lat="39.52085836" lon="-0.50372279"><ele>87.0</ele><time>2022-11-01T12:18:00.0000000+00:00</time></trkpt><trkpt lat="39.52085836" lon="-0.50372279"><ele>87.0</ele><time>2022-11-01T12:18:01.0000000+00:00</time></trkpt><trkpt lat="39.52085836" lon="-0.50372279"><ele>87.0</ele><time>2022-11-01T12:18:02.0000000+00:00</time></trkpt><trkpt lat="39.52085836" lon="-0.50372279"><ele>87.0</ele><time>2022-11-01T12:18:03.0000000+00:00</time></trkpt><trkpt lat="39.52085836" lon="-0.50372279"><ele>87.0</ele><time>2022-11-01T12:18:04.0000000+00:00</time></trkpt><trkpt lat="39.52085836" lon="-0.50372279"><ele>87.0</ele><time>2022-11-01T12:18:05.0000000+00:00</time></trkpt><trkpt lat="39.52085836" lon="-0.50372279"><ele>87.0</ele><time>2022-11-01T12:18:06.0000000+00:00</time></trkpt><trkpt lat="39.52085836" lon="-0.50372279"><ele>87.0</ele><time>2022-11-01T12:18:07.0000000+00:00</time></trkpt><trkpt lat="39.52085836" lon="-0.50372279"><ele>87.0</ele><time>2022-11-01T12:18:08.0000000+00:00</time></trkpt><trkpt lat="39.52085836" lon="-0.50372279"><ele>87.0</ele><time>2022-11-01T12:18:09.0000000+00:00</time></trkpt><trkpt lat="39.52085836" lon="-0.50372279"><ele>87.0</ele><time>2022-11-01T12:18:10.0000000+00:00</time></trkpt><trkpt lat="39.52085836" lon="-0.50372279"><ele>87.0</ele><time>2022-11-01T12:18:11.0000000+00:00</time></trkpt><trkpt lat="39.52085836" lon="-0.50372279"><ele>87.0</ele><time>2022-11-01T12:18:12.0000000+00:00</time></trkpt><trkpt lat="39.52085836" lon="-0.50372279"><ele>87.0</ele><time>2022-11-01T12:18:13.0000000+00:00</time></trkpt><trkpt lat="39.52085836" lon="-0.50372279"><ele>87.0</ele><time>2022-11-01T12:18:14.0000000+00:00</time></trkpt><trkpt lat="39.52085836" lon="-0.50372279"><ele>87.0</ele><time>2022-11-01T12:18:15.0000000+00:00</time></trkpt><trkpt lat="39.52085836" lon="-0.50372279"><ele>87.0</ele><time>2022-11-01T12:18:16.0000000+00:00</time></trkpt><trkpt lat="39.52085836" lon="-0.50372279"><ele>87.0</ele><time>2022-11-01T12:18:17.0000000+00:00</time></trkpt><trkpt lat="39.52085836" lon="-0.50372279"><ele>87.0</ele><time>2022-11-01T12:18:18.0000000+00:00</time></trkpt><trkpt lat="39.52085836" lon="-0.50372279"><ele>87.0</ele><time>2022-11-01T12:18:19.0000000+00:00</time></trkpt><trkpt lat="39.52085836" lon="-0.50372279"><ele>87.0</ele><time>2022-11-01T12:18:20.0000000+00:00</time></trkpt><trkpt lat="39.52085836" lon="-0.50372279"><ele>87.0</ele><time>2022-11-01T12:18:21.0000000+00:00</time></trkpt><trkpt lat="39.52085836" lon="-0.50372279"><ele>87.0</ele><time>2022-11-01T12:18:22.0000000+00:00</time></trkpt><trkpt lat="39.52085836" lon="-0.50372279"><ele>87.0</ele><time>2022-11-01T12:18:23.0000000+00:00</time></trkpt><trkpt lat="39.52085836" lon="-0.50372279"><ele>87.0</ele><time>2022-11-01T12:18:24.0000000+00:00</time></trkpt><trkpt lat="39.52085836" lon="-0.50372279"><ele>87.0</ele><time>2022-11-01T12:18:25.0000000+00:00</time></trkpt><trkpt lat="39.52085836" lon="-0.50372279"><ele>87.0</ele><time>2022-11-01T12:18:26.0000000+00:00</time></trkpt><trkpt lat="39.52085836" lon="-0.50372279"><ele>87.0</ele><time>2022-11-01T12:18:27.0000000+00:00</time></trkpt><trkpt lat="39.52085836" lon="-0.50372279"><ele>87.0</ele><time>2022-11-01T12:18:28.0000000+00:00</time></trkpt><trkpt lat="39.52085836" lon="-0.50372279"><ele>87.0</ele><time>2022-11-01T12:18:29.0000000+00:00</time></trkpt><trkpt lat="39.52085836" lon="-0.50372279"><ele>87.0</ele><time>2022-11-01T12:18:30.0000000+00:00</time></trkpt><trkpt lat="39.52085836" lon="-0.50372279"><ele>87.0</ele><time>2022-11-01T12:18:31.0000000+00:00</time></trkpt><trkpt lat="39.52085836" lon="-0.50372279"><ele>87.0</ele><time>2022-11-01T12:18:32.0000000+00:00</time></trkpt><trkpt lat="39.52085836" lon="-0.50372279"><ele>87.0</ele><time>2022-11-01T12:18:33.0000000+00:00</time></trkpt><trkpt lat="39.52085836" lon="-0.50372279"><ele>87.0</ele><time>2022-11-01T12:18:34.0000000+00:00</time></trkpt><trkpt lat="39.52085836" lon="-0.50372279"><ele>87.0</ele><time>2022-11-01T12:18:35.0000000+00:00</time></trkpt><trkpt lat="39.52085836" lon="-0.50372279"><ele>87.0</ele><time>2022-11-01T12:18:36.0000000+00:00</time></trkpt><trkpt lat="39.52085836" lon="-0.50372279"><ele>87.0</ele><time>2022-11-01T12:18:37.0000000+00:00</time></trkpt><trkpt lat="39.52085836" lon="-0.50372279"><ele>87.0</ele><time>2022-11-01T12:18:38.0000000+00:00</time></trkpt><trkpt lat="39.52085836" lon="-0.50372279"><ele>87.0</ele><time>2022-11-01T12:18:39.0000000+00:00</time></trkpt><trkpt lat="39.52085836" lon="-0.50372279"><ele>87.0</ele><time>2022-11-01T12:18:40.0000000+00:00</time></trkpt><trkpt lat="39.52085836" lon="-0.50372279"><ele>87.0</ele><time>2022-11-01T12:18:41.0000000+00:00</time></trkpt><trkpt lat="39.52085836" lon="-0.50372279"><ele>87.0</ele><time>2022-11-01T12:18:42.0000000+00:00</time></trkpt><trkpt lat="39.52085836" lon="-0.50372279"><ele>87.0</ele><time>2022-11-01T12:18:43.0000000+00:00</time></trkpt><trkpt lat="39.52085836" lon="-0.50372279"><ele>87.0</ele><time>2022-11-01T12:18:44.0000000+00:00</time></trkpt><trkpt lat="39.52085836" lon="-0.50372279"><ele>87.0</ele><time>2022-11-01T12:18:45.0000000+00:00</time></trkpt><trkpt lat="39.52085836" lon="-0.50372279"><ele>87.0</ele><time>2022-11-01T12:18:46.0000000+00:00</time></trkpt><trkpt lat="39.52085836" lon="-0.50372279"><ele>87.0</ele><time>2022-11-01T12:18:47.0000000+00:00</time></trkpt><trkpt lat="39.52085836" lon="-0.50372279"><ele>87.0</ele><time>2022-11-01T12:18:48.0000000+00:00</time></trkpt><trkpt lat="39.52085836" lon="-0.50372279"><ele>87.0</ele><time>2022-11-01T12:18:49.0000000+00:00</time></trkpt><trkpt lat="39.52085836" lon="-0.50372279"><ele>87.0</ele><time>2022-11-01T12:18:50.0000000+00:00</time></trkpt><trkpt lat="39.52085836" lon="-0.50372279"><ele>87.0</ele><time>2022-11-01T12:18:51.0000000+00:00</time></trkpt><trkpt lat="39.52085836" lon="-0.50372279"><ele>87.0</ele><time>2022-11-01T12:18:52.0000000+00:00</time></trkpt><trkpt lat="39.52085836" lon="-0.50372279"><ele>87.0</ele><time>2022-11-01T12:18:53.0000000+00:00</time></trkpt><trkpt lat="39.52085836" lon="-0.50372279"><ele>87.0</ele><time>2022-11-01T12:18:54.0000000+00:00</time></trkpt><trkpt lat="39.52085836" lon="-0.50372279"><ele>87.0</ele><time>2022-11-01T12:18:55.0000000+00:00</time></trkpt><trkpt lat="39.52085836" lon="-0.50372279"><ele>87.0</ele><time>2022-11-01T12:18:56.0000000+00:00</time></trkpt><trkpt lat="39.52085836" lon="-0.50372279"><ele>87.0</ele><time>2022-11-01T12:18:57.0000000+00:00</time></trkpt><trkpt lat="39.52085836" lon="-0.50372279"><ele>87.0</ele><time>2022-11-01T12:18:58.0000000+00:00</time></trkpt><trkpt lat="39.52085836" lon="-0.50372279"><ele>87.0</ele><time>2022-11-01T12:18:59.0000000+00:00</time></trkpt><trkpt lat="39.52085836" lon="-0.50372279"><ele>87.0</ele><time>2022-11-01T12:19:00.0000000+00:00</time></trkpt><trkpt lat="39.52085836" lon="-0.50372279"><ele>87.0</ele><time>2022-11-01T12:19:01.0000000+00:00</time></trkpt><trkpt lat="39.52085836" lon="-0.50372279"><ele>87.0</ele><time>2022-11-01T12:19:02.0000000+00:00</time></trkpt><trkpt lat="39.52085836" lon="-0.50372279"><ele>87.0</ele><time>2022-11-01T12:19:03.0000000+00:00</time></trkpt><trkpt lat="39.52085836" lon="-0.50372279"><ele>87.0</ele><time>2022-11-01T12:19:04.0000000+00:00</time></trkpt><trkpt lat="39.52085836" lon="-0.50372279"><ele>87.0</ele><time>2022-11-01T12:19:05.0000000+00:00</time></trkpt><trkpt lat="39.52085836" lon="-0.50372279"><ele>87.0</ele><time>2022-11-01T12:19:06.0000000+00:00</time></trkpt><trkpt lat="39.52085836" lon="-0.50372279"><ele>87.0</ele><time>2022-11-01T12:19:07.0000000+00:00</time></trkpt><trkpt lat="39.52085836" lon="-0.50372279"><ele>87.0</ele><time>2022-11-01T12:19:08.0000000+00:00</time></trkpt><trkpt lat="39.52085836" lon="-0.50372279"><ele>87.0</ele><time>2022-11-01T12:19:09.0000000+00:00</time></trkpt><trkpt lat="39.52085836" lon="-0.50372279"><ele>87.0</ele><time>2022-11-01T12:19:10.0000000+00:00</time></trkpt><trkpt lat="39.52085836" lon="-0.50372279"><ele>87.0</ele><time>2022-11-01T12:19:11.0000000+00:00</time></trkpt><trkpt lat="39.52085836" lon="-0.50372279"><ele>87.0</ele><time>2022-11-01T12:19:12.0000000+00:00</time></trkpt><trkpt lat="39.52085836" lon="-0.50372279"><ele>87.0</ele><time>2022-11-01T12:19:13.0000000+00:00</time></trkpt><trkpt lat="39.52085836" lon="-0.50372279"><ele>87.0</ele><time>2022-11-01T12:19:14.0000000+00:00</time></trkpt><trkpt lat="39.52085836" lon="-0.50372279"><ele>87.0</ele><time>2022-11-01T12:19:15.0000000+00:00</time></trkpt><trkpt lat="39.52085836" lon="-0.50372279"><ele>87.0</ele><time>2022-11-01T12:19:16.0000000+00:00</time></trkpt><trkpt lat="39.52085836" lon="-0.50372279"><ele>87.0</ele><time>2022-11-01T12:19:17.0000000+00:00</time></trkpt><trkpt lat="39.52085836" lon="-0.50372279"><ele>87.0</ele><time>2022-11-01T12:19:18.0000000+00:00</time></trkpt><trkpt lat="39.52085836" lon="-0.50372279"><ele>87.0</ele><time>2022-11-01T12:19:19.0000000+00:00</time></trkpt><trkpt lat="39.52085836" lon="-0.50372279"><ele>87.0</ele><time>2022-11-01T12:19:20.0000000+00:00</time></trkpt><trkpt lat="39.52085836" lon="-0.50372279"><ele>87.0</ele><time>2022-11-01T12:19:21.0000000+00:00</time></trkpt><trkpt lat="39.52085836" lon="-0.50372279"><ele>87.0</ele><time>2022-11-01T12:19:22.0000000+00:00</time></trkpt><trkpt lat="39.52085836" lon="-0.50372279"><ele>87.0</ele><time>2022-11-01T12:19:23.0000000+00:00</time></trkpt><trkpt lat="39.52085836" lon="-0.50372279"><ele>87.0</ele><time>2022-11-01T12:19:24.0000000+00:00</time></trkpt><trkpt lat="39.52085836" lon="-0.50372279"><ele>87.0</ele><time>2022-11-01T12:19:25.0000000+00:00</time></trkpt><trkpt lat="39.52085836" lon="-0.50372279"><ele>87.0</ele><time>2022-11-01T12:19:26.0000000+00:00</time></trkpt><trkpt lat="39.52085836" lon="-0.50372279"><ele>87.0</ele><time>2022-11-01T12:19:27.0000000+00:00</time></trkpt><trkpt lat="39.52085836" lon="-0.50372279"><ele>87.0</ele><time>2022-11-01T12:19:28.0000000+00:00</time></trkpt><trkpt lat="39.52085836" lon="-0.50372279"><ele>87.0</ele><time>2022-11-01T12:19:29.0000000+00:00</time></trkpt><trkpt lat="39.52085836" lon="-0.50372279"><ele>87.0</ele><time>2022-11-01T12:19:30.0000000+00:00</time></trkpt><trkpt lat="39.52085836" lon="-0.50372279"><ele>87.0</ele><time>2022-11-01T12:19:31.0000000+00:00</time></trkpt><trkpt lat="39.52085836" lon="-0.50372279"><ele>87.0</ele><time>2022-11-01T12:19:32.0000000+00:00</time></trkpt><trkpt lat="39.52085836" lon="-0.50372279"><ele>87.0</ele><time>2022-11-01T12:19:33.0000000+00:00</time></trkpt><trkpt lat="39.52085836" lon="-0.50372279"><ele>87.0</ele><time>2022-11-01T12:19:34.0000000+00:00</time></trkpt><trkpt lat="39.52085836" lon="-0.50372279"><ele>87.0</ele><time>2022-11-01T12:19:35.0000000+00:00</time></trkpt><trkpt lat="39.52085836" lon="-0.50372279"><ele>87.0</ele><time>2022-11-01T12:19:36.0000000+00:00</time></trkpt><trkpt lat="39.52085836" lon="-0.50372279"><ele>87.0</ele><time>2022-11-01T12:19:37.0000000+00:00</time></trkpt><trkpt lat="39.52085836" lon="-0.50372279"><ele>87.0</ele><time>2022-11-01T12:19:38.0000000+00:00</time></trkpt><trkpt lat="39.52085836" lon="-0.50372279"><ele>87.0</ele><time>2022-11-01T12:19:39.0000000+00:00</time></trkpt><trkpt lat="39.52085836" lon="-0.50372279"><ele>87.0</ele><time>2022-11-01T12:19:40.0000000+00:00</time></trkpt><trkpt lat="39.52085836" lon="-0.50372279"><ele>87.0</ele><time>2022-11-01T12:19:41.0000000+00:00</time></trkpt><trkpt lat="39.52085836" lon="-0.50372279"><ele>87.0</ele><time>2022-11-01T12:19:42.0000000+00:00</time></trkpt><trkpt lat="39.52085836" lon="-0.50372279"><ele>87.0</ele><time>2022-11-01T12:19:43.0000000+00:00</time></trkpt><trkpt lat="39.52085836" lon="-0.50372279"><ele>87.0</ele><time>2022-11-01T12:19:44.0000000+00:00</time></trkpt><trkpt lat="39.52085836" lon="-0.50372279"><ele>87.0</ele><time>2022-11-01T12:19:45.0000000+00:00</time></trkpt><trkpt lat="39.52085836" lon="-0.50372279"><ele>87.0</ele><time>2022-11-01T12:19:46.0000000+00:00</time></trkpt><trkpt lat="39.52085836" lon="-0.50372279"><ele>87.0</ele><time>2022-11-01T12:19:47.0000000+00:00</time></trkpt><trkpt lat="39.52085836" lon="-0.50372279"><ele>87.0</ele><time>2022-11-01T12:19:48.0000000+00:00</time></trkpt><trkpt lat="39.52085836" lon="-0.50372279"><ele>87.0</ele><time>2022-11-01T12:19:49.0000000+00:00</time></trkpt><trkpt lat="39.52085836" lon="-0.50372279"><ele>87.0</ele><time>2022-11-01T12:19:50.0000000+00:00</time></trkpt><trkpt lat="39.52085836" lon="-0.50372279"><ele>87.0</ele><time>2022-11-01T12:19:51.0000000+00:00</time></trkpt><trkpt lat="39.52085836" lon="-0.50372279"><ele>87.0</ele><time>2022-11-01T12:19:52.0000000+00:00</time></trkpt><trkpt lat="39.52085836" lon="-0.50372279"><ele>87.0</ele><time>2022-11-01T12:19:53.0000000+00:00</time></trkpt><trkpt lat="39.52085836" lon="-0.50372279"><ele>87.0</ele><time>2022-11-01T12:19:54.0000000+00:00</time></trkpt><trkpt lat="39.52085836" lon="-0.50372279"><ele>87.0</ele><time>2022-11-01T12:19:55.0000000+00:00</time></trkpt><trkpt lat="39.52085836" lon="-0.50372279"><ele>87.0</ele><time>2022-11-01T12:19:56.0000000+00:00</time></trkpt><trkpt lat="39.52085836" lon="-0.50372279"><ele>87.0</ele><time>2022-11-01T12:19:57.0000000+00:00</time></trkpt><trkpt lat="39.52085836" lon="-0.50372279"><ele>87.0</ele><time>2022-11-01T12:19:58.0000000+00:00</time></trkpt><trkpt lat="39.52085836" lon="-0.50372279"><ele>87.0</ele><time>2022-11-01T12:19:59.0000000+00:00</time></trkpt><trkpt lat="39.52085836" lon="-0.50372279"><ele>87.0</ele><time>2022-11-01T12:20:00.0000000+00:00</time></trkpt><trkpt lat="39.52085836" lon="-0.50372279"><ele>87.0</ele><time>2022-11-01T12:20:01.0000000+00:00</time></trkpt><trkpt lat="39.52085836" lon="-0.50372279"><ele>87.0</ele><time>2022-11-01T12:20:02.0000000+00:00</time></trkpt><trkpt lat="39.52085836" lon="-0.50372279"><ele>87.0</ele><time>2022-11-01T12:20:03.0000000+00:00</time></trkpt><trkpt lat="39.52085836" lon="-0.50372279"><ele>87.0</ele><time>2022-11-01T12:20:04.0000000+00:00</time></trkpt><trkpt lat="39.52085836" lon="-0.50372279"><ele>87.0</ele><time>2022-11-01T12:20:05.0000000+00:00</time></trkpt><trkpt lat="39.52085836" lon="-0.50372279"><ele>87.0</ele><time>2022-11-01T12:20:06.0000000+00:00</time></trkpt><trkpt lat="39.52085836" lon="-0.50372279"><ele>87.0</ele><time>2022-11-01T12:20:07.0000000+00:00</time></trkpt><trkpt lat="39.52085836" lon="-0.50372279"><ele>87.0</ele><time>2022-11-01T12:20:08.0000000+00:00</time></trkpt><trkpt lat="39.52085836" lon="-0.50372279"><ele>87.0</ele><time>2022-11-01T12:20:09.0000000+00:00</time></trkpt><trkpt lat="39.52085836" lon="-0.50372279"><ele>87.0</ele><time>2022-11-01T12:20:10.0000000+00:00</time></trkpt><trkpt lat="39.52085836" lon="-0.50372279"><ele>87.0</ele><time>2022-11-01T12:20:11.0000000+00:00</time></trkpt><trkpt lat="39.52085836" lon="-0.50372279"><ele>87.0</ele><time>2022-11-01T12:20:12.0000000+00:00</time></trkpt><trkpt lat="39.52085836" lon="-0.50372279"><ele>87.0</ele><time>2022-11-01T12:20:13.0000000+00:00</time></trkpt><trkpt lat="39.52085836" lon="-0.50372279"><ele>87.0</ele><time>2022-11-01T12:20:14.0000000+00:00</time></trkpt><trkpt lat="39.52085836" lon="-0.50372279"><ele>87.0</ele><time>2022-11-01T12:20:15.0000000+00:00</time></trkpt><trkpt lat="39.52085836" lon="-0.50372279"><ele>87.0</ele><time>2022-11-01T12:20:16.0000000+00:00</time></trkpt><trkpt lat="39.52085836" lon="-0.50372279"><ele>87.0</ele><time>2022-11-01T12:20:17.0000000+00:00</time></trkpt><trkpt lat="39.52085836" lon="-0.50372279"><ele>87.0</ele><time>2022-11-01T12:20:18.0000000+00:00</time></trkpt><trkpt lat="39.52085836" lon="-0.50372279"><ele>87.0</ele><time>2022-11-01T12:20:19.0000000+00:00</time></trkpt><trkpt lat="39.52085836" lon="-0.50372279"><ele>87.0</ele><time>2022-11-01T12:20:20.0000000+00:00</time></trkpt><trkpt lat="39.52085836" lon="-0.50372279"><ele>87.0</ele><time>2022-11-01T12:20:21.0000000+00:00</time></trkpt><trkpt lat="39.52085836" lon="-0.50372279"><ele>87.0</ele><time>2022-11-01T12:20:22.0000000+00:00</time></trkpt><trkpt lat="39.52085836" lon="-0.50372279"><ele>87.0</ele><time>2022-11-01T12:20:23.0000000+00:00</time></trkpt><trkpt lat="39.52085836" lon="-0.50372279"><ele>87.0</ele><time>2022-11-01T12:20:24.0000000+00:00</time></trkpt><trkpt lat="39.52085836" lon="-0.50372279"><ele>87.0</ele><time>2022-11-01T12:20:25.0000000+00:00</time></trkpt><trkpt lat="39.52085836" lon="-0.50372279"><ele>87.0</ele><time>2022-11-01T12:20:26.0000000+00:00</time></trkpt><trkpt lat="39.52085836" lon="-0.50372279"><ele>87.0</ele><time>2022-11-01T12:20:27.0000000+00:00</time></trkpt><trkpt lat="39.52085836" lon="-0.50372279"><ele>87.0</ele><time>2022-11-01T12:20:28.0000000+00:00</time></trkpt><trkpt lat="39.52085836" lon="-0.50372279"><ele>87.0</ele><time>2022-11-01T12:20:29.0000000+00:00</time></trkpt><trkpt lat="39.52085836" lon="-0.50372279"><ele>87.0</ele><time>2022-11-01T12:20:30.0000000+00:00</time></trkpt><trkpt lat="39.52085836" lon="-0.50372279"><ele>87.0</ele><time>2022-11-01T12:20:31.0000000+00:00</time></trkpt><trkpt lat="39.52085836" lon="-0.50372279"><ele>87.0</ele><time>2022-11-01T12:20:32.0000000+00:00</time></trkpt><trkpt lat="39.52085836" lon="-0.50372279"><ele>87.0</ele><time>2022-11-01T12:20:33.0000000+00:00</time></trkpt><trkpt lat="39.52085836" lon="-0.50372279"><ele>87.0</ele><time>2022-11-01T12:20:34.0000000+00:00</time></trkpt><trkpt lat="39.52085836" lon="-0.50372279"><ele>87.0</ele><time>2022-11-01T12:20:35.0000000+00:00</time></trkpt><trkpt lat="39.52085836" lon="-0.50372279"><ele>87.0</ele><time>2022-11-01T12:20:36.0000000+00:00</time></trkpt><trkpt lat="39.52085836" lon="-0.50372279"><ele>87.0</ele><time>2022-11-01T12:20:37.0000000+00:00</time></trkpt><trkpt lat="39.52085836" lon="-0.50372279"><ele>87.0</ele><time>2022-11-01T12:20:38.0000000+00:00</time></trkpt><trkpt lat="39.52085836" lon="-0.50372279"><ele>87.0</ele><time>2022-11-01T12:20:39.0000000+00:00</time></trkpt><trkpt lat="39.52085836" lon="-0.50372279"><ele>87.0</ele><time>2022-11-01T12:20:40.0000000+00:00</time></trkpt><trkpt lat="39.52085836" lon="-0.50372279"><ele>87.0</ele><time>2022-11-01T12:20:41.0000000+00:00</time></trkpt><trkpt lat="39.52085836" lon="-0.50372279"><ele>87.0</ele><time>2022-11-01T12:20:42.0000000+00:00</time></trkpt><trkpt lat="39.52085836" lon="-0.50372279"><ele>87.0</ele><time>2022-11-01T12:20:43.0000000+00:00</time></trkpt><trkpt lat="39.52085836" lon="-0.50372279"><ele>87.0</ele><time>2022-11-01T12:20:44.0000000+00:00</time></trkpt><trkpt lat="39.52085836" lon="-0.50372279"><ele>87.0</ele><time>2022-11-01T12:20:45.0000000+00:00</time></trkpt><trkpt lat="39.52085836" lon="-0.50372279"><ele>87.0</ele><time>2022-11-01T12:20:46.0000000+00:00</time></trkpt><trkpt lat="39.52085836" lon="-0.50372279"><ele>87.0</ele><time>2022-11-01T12:20:47.0000000+00:00</time></trkpt><trkpt lat="39.52085836" lon="-0.50372279"><ele>87.0</ele><time>2022-11-01T12:20:48.0000000+00:00</time></trkpt><trkpt lat="39.52085836" lon="-0.50372279"><ele>87.0</ele><time>2022-11-01T12:20:49.0000000+00:00</time></trkpt><trkpt lat="39.52085836" lon="-0.50372279"><ele>87.0</ele><time>2022-11-01T12:20:50.0000000+00:00</time></trkpt><trkpt lat="39.52085836" lon="-0.50372279"><ele>87.0</ele><time>2022-11-01T12:20:51.0000000+00:00</time></trkpt><trkpt lat="39.52085836" lon="-0.50372279"><ele>87.0</ele><time>2022-11-01T12:20:52.0000000+00:00</time></trkpt><trkpt lat="39.52085836" lon="-0.50372279"><ele>87.0</ele><time>2022-11-01T12:20:53.0000000+00:00</time></trkpt><trkpt lat="39.52085836" lon="-0.50372279"><ele>87.0</ele><time>2022-11-01T12:20:54.0000000+00:00</time></trkpt><trkpt lat="39.52085836" lon="-0.50372279"><ele>87.0</ele><time>2022-11-01T12:20:55.0000000+00:00</time></trkpt><trkpt lat="39.52085836" lon="-0.50372279"><ele>87.0</ele><time>2022-11-01T12:20:56.0000000+00:00</time></trkpt><trkpt lat="39.52085836" lon="-0.50372279"><ele>87.0</ele><time>2022-11-01T12:20:57.0000000+00:00</time></trkpt><trkpt lat="39.52085836" lon="-0.50372279"><ele>87.0</ele><time>2022-11-01T12:20:58.0000000+00:00</time></trkpt><trkpt lat="39.52085836" lon="-0.50372279"><ele>87.0</ele><time>2022-11-01T12:20:59.0000000+00:00</time></trkpt><trkpt lat="39.52085836" lon="-0.50372279"><ele>87.0</ele><time>2022-11-01T12:21:00.0000000+00:00</time></trkpt><trkpt lat="39.52085836" lon="-0.50372279"><ele>87.0</ele><time>2022-11-01T12:21:01.0000000+00:00</time></trkpt><trkpt lat="39.52085836" lon="-0.50372279"><ele>87.0</ele><time>2022-11-01T12:21:02.0000000+00:00</time></trkpt><trkpt lat="39.52085836" lon="-0.50372279"><ele>87.0</ele><time>2022-11-01T12:21:03.0000000+00:00</time></trkpt><trkpt lat="39.52085836" lon="-0.50372279"><ele>87.0</ele><time>2022-11-01T12:21:04.0000000+00:00</time></trkpt><trkpt lat="39.52086171" lon="-0.50372497"><ele>87.0</ele><time>2022-11-01T12:21:05.0000000+00:00</time></trkpt><trkpt lat="39.5208618" lon="-0.50373319"><ele>87.0</ele><time>2022-11-01T12:21:06.0000000+00:00</time></trkpt><trkpt lat="39.52086213" lon="-0.50373687"><ele>87.0</ele><time>2022-11-01T12:21:07.0000000+00:00</time></trkpt><trkpt lat="39.52086213" lon="-0.50373687"><ele>87.0</ele><time>2022-11-01T12:21:08.0000000+00:00</time></trkpt><trkpt lat="39.52086213" lon="-0.50373687"><ele>87.0</ele><time>2022-11-01T12:21:09.0000000+00:00</time></trkpt><trkpt lat="39.52086213" lon="-0.50373687"><ele>87.0</ele><time>2022-11-01T12:21:10.0000000+00:00</time></trkpt><trkpt lat="39.52086213" lon="-0.50373687"><ele>87.0</ele><time>2022-11-01T12:21:11.0000000+00:00</time></trkpt><trkpt lat="39.52086213" lon="-0.50373687"><ele>87.0</ele><time>2022-11-01T12:21:12.0000000+00:00</time></trkpt><trkpt lat="39.52086213" lon="-0.50373687"><ele>87.0</ele><time>2022-11-01T12:21:13.0000000+00:00</time></trkpt><trkpt lat="39.52086213" lon="-0.50373687"><ele>87.0</ele><time>2022-11-01T12:21:14.0000000+00:00</time></trkpt><trkpt lat="39.52086213" lon="-0.50373687"><ele>87.0</ele><time>2022-11-01T12:21:15.0000000+00:00</time></trkpt><trkpt lat="39.52086213" lon="-0.50373687"><ele>87.0</ele><time>2022-11-01T12:21:16.0000000+00:00</time></trkpt><trkpt lat="39.52086213" lon="-0.50373687"><ele>87.0</ele><time>2022-11-01T12:21:17.0000000+00:00</time></trkpt><trkpt lat="39.52086213" lon="-0.50373687"><ele>87.0</ele><time>2022-11-01T12:21:18.0000000+00:00</time></trkpt><trkpt lat="39.52086213" lon="-0.50373687"><ele>87.0</ele><time>2022-11-01T12:21:19.0000000+00:00</time></trkpt><trkpt lat="39.52086213" lon="-0.50373687"><ele>87.0</ele><time>2022-11-01T12:21:20.0000000+00:00</time></trkpt><trkpt lat="39.52086213" lon="-0.50373687"><ele>87.0</ele><time>2022-11-01T12:21:21.0000000+00:00</time></trkpt><trkpt lat="39.52086213" lon="-0.50373687"><ele>87.0</ele><time>2022-11-01T12:21:22.0000000+00:00</time></trkpt><trkpt lat="39.52086213" lon="-0.50373687"><ele>87.0</ele><time>2022-11-01T12:21:23.0000000+00:00</time></trkpt><trkpt lat="39.52086213" lon="-0.50373687"><ele>87.0</ele><time>2022-11-01T12:21:24.0000000+00:00</time></trkpt><trkpt lat="39.52086213" lon="-0.50373687"><ele>87.0</ele><time>2022-11-01T12:21:25.0000000+00:00</time></trkpt><trkpt lat="39.52086213" lon="-0.50373687"><ele>87.0</ele><time>2022-11-01T12:21:26.0000000+00:00</time></trkpt><trkpt lat="39.52086213" lon="-0.50373687"><ele>87.0</ele><time>2022-11-01T12:21:27.0000000+00:00</time></trkpt><trkpt lat="39.52086213" lon="-0.50373687"><ele>87.0</ele><time>2022-11-01T12:21:28.0000000+00:00</time></trkpt><trkpt lat="39.52086213" lon="-0.50373687"><ele>87.0</ele><time>2022-11-01T12:21:29.0000000+00:00</time></trkpt><trkpt lat="39.52086213" lon="-0.50373687"><ele>87.0</ele><time>2022-11-01T12:21:30.0000000+00:00</time></trkpt><trkpt lat="39.52086213" lon="-0.50373687"><ele>87.0</ele><time>2022-11-01T12:21:31.0000000+00:00</time></trkpt><trkpt lat="39.52086213" lon="-0.50373687"><ele>87.0</ele><time>2022-11-01T12:21:32.0000000+00:00</time></trkpt><trkpt lat="39.52086213" lon="-0.50373687"><ele>87.0</ele><time>2022-11-01T12:21:33.0000000+00:00</time></trkpt><trkpt lat="39.52086213" lon="-0.50373687"><ele>87.0</ele><time>2022-11-01T12:21:34.0000000+00:00</time></trkpt><trkpt lat="39.52086213" lon="-0.50373687"><ele>87.0</ele><time>2022-11-01T12:21:35.0000000+00:00</time></trkpt><trkpt lat="39.52086213" lon="-0.50373687"><ele>87.0</ele><time>2022-11-01T12:21:36.0000000+00:00</time></trkpt><trkpt lat="39.52086213" lon="-0.50373687"><ele>87.0</ele><time>2022-11-01T12:21:37.0000000+00:00</time></trkpt><trkpt lat="39.52086213" lon="-0.50373687"><ele>87.0</ele><time>2022-11-01T12:21:38.0000000+00:00</time></trkpt><trkpt lat="39.52086213" lon="-0.50373687"><ele>87.0</ele><time>2022-11-01T12:21:39.0000000+00:00</time></trkpt><trkpt lat="39.52086213" lon="-0.50373687"><ele>87.0</ele><time>2022-11-01T12:21:40.0000000+00:00</time></trkpt><trkpt lat="39.52086213" lon="-0.50373687"><ele>87.0</ele><time>2022-11-01T12:21:41.0000000+00:00</time></trkpt><trkpt lat="39.52086213" lon="-0.50373687"><ele>87.0</ele><time>2022-11-01T12:21:42.0000000+00:00</time></trkpt><trkpt lat="39.52086213" lon="-0.50373687"><ele>87.0</ele><time>2022-11-01T12:21:43.0000000+00:00</time></trkpt><trkpt lat="39.52086213" lon="-0.50373687"><ele>87.0</ele><time>2022-11-01T12:21:44.0000000+00:00</time></trkpt><trkpt lat="39.52086213" lon="-0.50373687"><ele>87.0</ele><time>2022-11-01T12:21:45.0000000+00:00</time></trkpt><trkpt lat="39.52086213" lon="-0.50373687"><ele>87.0</ele><time>2022-11-01T12:21:46.0000000+00:00</time></trkpt><trkpt lat="39.52086213" lon="-0.50373687"><ele>87.0</ele><time>2022-11-01T12:21:47.0000000+00:00</time></trkpt><trkpt lat="39.52086213" lon="-0.50373687"><ele>87.0</ele><time>2022-11-01T12:21:48.0000000+00:00</time></trkpt><trkpt lat="39.52086213" lon="-0.50373687"><ele>87.0</ele><time>2022-11-01T12:21:49.0000000+00:00</time></trkpt><trkpt lat="39.52086213" lon="-0.50373687"><ele>87.0</ele><time>2022-11-01T12:21:50.0000000+00:00</time></trkpt><trkpt lat="39.52086213" lon="-0.50373687"><ele>87.0</ele><time>2022-11-01T12:21:51.0000000+00:00</time></trkpt><trkpt lat="39.52086213" lon="-0.50373687"><ele>87.0</ele><time>2022-11-01T12:21:52.0000000+00:00</time></trkpt><trkpt lat="39.52086213" lon="-0.50373687"><ele>87.0</ele><time>2022-11-01T12:21:53.0000000+00:00</time></trkpt><trkpt lat="39.52086213" lon="-0.50373687"><ele>87.0</ele><time>2022-11-01T12:21:54.0000000+00:00</time></trkpt><trkpt lat="39.52086213" lon="-0.50373687"><ele>87.0</ele><time>2022-11-01T12:21:55.0000000+00:00</time></trkpt><trkpt lat="39.52086213" lon="-0.50373687"><ele>87.0</ele><time>2022-11-01T12:21:56.0000000+00:00</time></trkpt><trkpt lat="39.52086213" lon="-0.50373687"><ele>87.0</ele><time>2022-11-01T12:21:57.0000000+00:00</time></trkpt><trkpt lat="39.52086213" lon="-0.50373687"><ele>87.0</ele><time>2022-11-01T12:21:58.0000000+00:00</time></trkpt><trkpt lat="39.52086213" lon="-0.50373687"><ele>87.0</ele><time>2022-11-01T12:21:59.0000000+00:00</time></trkpt><trkpt lat="39.52086213" lon="-0.50373687"><ele>87.0</ele><time>2022-11-01T12:22:00.0000000+00:00</time></trkpt><trkpt lat="39.52086213" lon="-0.50373687"><ele>87.0</ele><time>2022-11-01T12:22:01.0000000+00:00</time></trkpt><trkpt lat="39.52086213" lon="-0.50373687"><ele>87.0</ele><time>2022-11-01T12:22:02.0000000+00:00</time></trkpt><trkpt lat="39.52086213" lon="-0.50373687"><ele>87.0</ele><time>2022-11-01T12:22:03.0000000+00:00</time></trkpt><trkpt lat="39.52086213" lon="-0.50373687"><ele>87.0</ele><time>2022-11-01T12:22:04.0000000+00:00</time></trkpt><trkpt lat="39.52086213" lon="-0.50373687"><ele>87.0</ele><time>2022-11-01T12:22:05.0000000+00:00</time></trkpt><trkpt lat="39.52086213" lon="-0.50373687"><ele>87.0</ele><time>2022-11-01T12:22:06.0000000+00:00</time></trkpt><trkpt lat="39.52086213" lon="-0.50373687"><ele>87.0</ele><time>2022-11-01T12:22:07.0000000+00:00</time></trkpt><trkpt lat="39.52086213" lon="-0.50373687"><ele>87.0</ele><time>2022-11-01T12:22:08.0000000+00:00</time></trkpt><trkpt lat="39.52086213" lon="-0.50373687"><ele>87.0</ele><time>2022-11-01T12:22:09.0000000+00:00</time></trkpt><trkpt lat="39.52086213" lon="-0.50373687"><ele>87.0</ele><time>2022-11-01T12:22:10.0000000+00:00</time></trkpt><trkpt lat="39.52086213" lon="-0.50373687"><ele>87.0</ele><time>2022-11-01T12:22:11.0000000+00:00</time></trkpt><trkpt lat="39.52086213" lon="-0.50373687"><ele>87.0</ele><time>2022-11-01T12:22:12.0000000+00:00</time></trkpt><trkpt lat="39.52086213" lon="-0.50373687"><ele>87.0</ele><time>2022-11-01T12:22:13.0000000+00:00</time></trkpt><trkpt lat="39.52086213" lon="-0.50373687"><ele>87.0</ele><time>2022-11-01T12:22:14.0000000+00:00</time></trkpt><trkpt lat="39.52086213" lon="-0.50373687"><ele>87.0</ele><time>2022-11-01T12:22:15.0000000+00:00</time></trkpt><trkpt lat="39.52086213" lon="-0.50373687"><ele>87.0</ele><time>2022-11-01T12:22:16.0000000+00:00</time></trkpt><trkpt lat="39.52086213" lon="-0.50373687"><ele>87.0</ele><time>2022-11-01T12:22:17.0000000+00:00</time></trkpt><trkpt lat="39.52086213" lon="-0.50373687"><ele>87.0</ele><time>2022-11-01T12:22:18.0000000+00:00</time></trkpt><trkpt lat="39.52086213" lon="-0.50373687"><ele>87.0</ele><time>2022-11-01T12:22:19.0000000+00:00</time></trkpt><trkpt lat="39.52086213" lon="-0.50373687"><ele>87.0</ele><time>2022-11-01T12:22:20.0000000+00:00</time></trkpt><trkpt lat="39.52086213" lon="-0.50373687"><ele>87.0</ele><time>2022-11-01T12:22:21.0000000+00:00</time></trkpt><trkpt lat="39.52086213" lon="-0.50373687"><ele>87.0</ele><time>2022-11-01T12:22:22.0000000+00:00</time></trkpt><trkpt lat="39.52086213" lon="-0.50373687"><ele>87.0</ele><time>2022-11-01T12:22:23.0000000+00:00</time></trkpt><trkpt lat="39.52086213" lon="-0.50373687"><ele>87.0</ele><time>2022-11-01T12:22:24.0000000+00:00</time></trkpt><trkpt lat="39.52086213" lon="-0.50373687"><ele>87.0</ele><time>2022-11-01T12:22:25.0000000+00:00</time></trkpt><trkpt lat="39.52086213" lon="-0.50373687"><ele>87.0</ele><time>2022-11-01T12:22:26.0000000+00:00</time></trkpt><trkpt lat="39.52086213" lon="-0.50373687"><ele>87.0</ele><time>2022-11-01T12:22:27.0000000+00:00</time></trkpt><trkpt lat="39.52086213" lon="-0.50373687"><ele>87.0</ele><time>2022-11-01T12:22:28.0000000+00:00</time></trkpt><trkpt lat="39.52086213" lon="-0.50373687"><ele>87.0</ele><time>2022-11-01T12:22:29.0000000+00:00</time></trkpt><trkpt lat="39.52086213" lon="-0.50373687"><ele>87.0</ele><time>2022-11-01T12:22:30.0000000+00:00</time></trkpt><trkpt lat="39.52086213" lon="-0.50373687"><ele>87.0</ele><time>2022-11-01T12:22:31.0000000+00:00</time></trkpt><trkpt lat="39.52086213" lon="-0.50373687"><ele>87.0</ele><time>2022-11-01T12:22:32.0000000+00:00</time></trkpt><trkpt lat="39.52086213" lon="-0.50373687"><ele>87.0</ele><time>2022-11-01T12:22:33.0000000+00:00</time></trkpt><trkpt lat="39.52086213" lon="-0.50373687"><ele>87.0</ele><time>2022-11-01T12:22:34.0000000+00:00</time></trkpt><trkpt lat="39.52086213" lon="-0.50373687"><ele>87.0</ele><time>2022-11-01T12:22:35.0000000+00:00</time></trkpt><trkpt lat="39.52086213" lon="-0.50373687"><ele>87.0</ele><time>2022-11-01T12:22:36.0000000+00:00</time></trkpt><trkpt lat="39.52086213" lon="-0.50373687"><ele>87.0</ele><time>2022-11-01T12:22:37.0000000+00:00</time></trkpt><trkpt lat="39.52086146" lon="-0.50373235"><ele>87.0</ele><time>2022-11-01T12:22:38.0000000+00:00</time></trkpt><trkpt lat="39.52086037" lon="-0.5037269"><ele>87.0</ele><time>2022-11-01T12:22:39.0000000+00:00</time></trkpt><trkpt lat="39.52086037" lon="-0.5037269"><ele>87.0</ele><time>2022-11-01T12:22:40.0000000+00:00</time></trkpt><trkpt lat="39.52086037" lon="-0.5037269"><ele>87.0</ele><time>2022-11-01T12:22:41.0000000+00:00</time></trkpt><trkpt lat="39.52086037" lon="-0.5037269"><ele>87.0</ele><time>2022-11-01T12:22:42.0000000+00:00</time></trkpt><trkpt lat="39.52086037" lon="-0.5037269"><ele>87.0</ele><time>2022-11-01T12:22:43.0000000+00:00</time></trkpt><trkpt lat="39.52086037" lon="-0.5037269"><ele>87.0</ele><time>2022-11-01T12:22:44.0000000+00:00</time></trkpt><trkpt lat="39.52086037" lon="-0.5037269"><ele>87.0</ele><time>2022-11-01T12:22:45.0000000+00:00</time></trkpt><trkpt lat="39.52086196" lon="-0.50372355"><ele>87.0</ele><time>2022-11-01T12:22:46.0000000+00:00</time></trkpt><trkpt lat="39.52086054" lon="-0.50371466"><ele>87.0</ele><time>2022-11-01T12:22:47.0000000+00:00</time></trkpt><trkpt lat="39.52086054" lon="-0.50371466"><ele>87.0</ele><time>2022-11-01T12:22:48.0000000+00:00</time></trkpt><trkpt lat="39.52086054" lon="-0.50371466"><ele>87.0</ele><time>2022-11-01T12:22:49.0000000+00:00</time></trkpt><trkpt lat="39.52086054" lon="-0.50371466"><ele>87.0</ele><time>2022-11-01T12:22:50.0000000+00:00</time></trkpt><trkpt lat="39.52086054" lon="-0.50371466"><ele>87.0</ele><time>2022-11-01T12:22:51.0000000+00:00</time></trkpt><trkpt lat="39.52086054" lon="-0.50371466"><ele>87.0</ele><time>2022-11-01T12:22:52.0000000+00:00</time></trkpt><trkpt lat="39.52086054" lon="-0.50371466"><ele>87.0</ele><time>2022-11-01T12:22:53.0000000+00:00</time></trkpt><trkpt lat="39.52086054" lon="-0.50371466"><ele>87.0</ele><time>2022-11-01T12:22:54.0000000+00:00</time></trkpt><trkpt lat="39.52086054" lon="-0.50371466"><ele>87.0</ele><time>2022-11-01T12:22:55.0000000+00:00</time></trkpt><trkpt lat="39.52085735" lon="-0.50370695"><ele>87.0</ele><time>2022-11-01T12:22:56.0000000+00:00</time></trkpt><trkpt lat="39.52084922" lon="-0.50370083"><ele>87.0</ele><time>2022-11-01T12:22:57.0000000+00:00</time></trkpt><trkpt lat="39.52084495" lon="-0.50369505"><ele>87.0</ele><time>2022-11-01T12:22:58.0000000+00:00</time></trkpt><trkpt lat="39.52084327" lon="-0.50369027"><ele>87.0</ele><time>2022-11-01T12:22:59.0000000+00:00</time></trkpt><trkpt lat="39.52084327" lon="-0.50369027"><ele>87.0</ele><time>2022-11-01T12:23:00.0000000+00:00</time></trkpt><trkpt lat="39.52084327" lon="-0.50369027"><ele>87.0</ele><time>2022-11-01T12:23:01.0000000+00:00</time></trkpt><trkpt lat="39.52084327" lon="-0.50369027"><ele>87.0</ele><time>2022-11-01T12:23:02.0000000+00:00</time></trkpt><trkpt lat="39.52084327" lon="-0.50369027"><ele>87.0</ele><time>2022-11-01T12:23:03.0000000+00:00</time></trkpt><trkpt lat="39.52084327" lon="-0.50369027"><ele>87.0</ele><time>2022-11-01T12:23:04.0000000+00:00</time></trkpt><trkpt lat="39.52084327" lon="-0.50369027"><ele>87.0</ele><time>2022-11-01T12:23:05.0000000+00:00</time></trkpt><trkpt lat="39.52083984" lon="-0.50369354"><ele>87.0</ele><time>2022-11-01T12:23:06.0000000+00:00</time></trkpt><trkpt lat="39.52083849" lon="-0.50369027"><ele>87.0</ele><time>2022-11-01T12:23:07.0000000+00:00</time></trkpt><trkpt lat="39.52083849" lon="-0.50369027"><ele>87.0</ele><time>2022-11-01T12:23:08.0000000+00:00</time></trkpt><trkpt lat="39.52083849" lon="-0.50369027"><ele>87.0</ele><time>2022-11-01T12:23:09.0000000+00:00</time></trkpt><trkpt lat="39.52083849" lon="-0.50369027"><ele>87.0</ele><time>2022-11-01T12:23:10.0000000+00:00</time></trkpt><trkpt lat="39.52083849" lon="-0.50369027"><ele>87.0</ele><time>2022-11-01T12:23:11.0000000+00:00</time></trkpt><trkpt lat="39.52083849" lon="-0.50369027"><ele>87.0</ele><time>2022-11-01T12:23:12.0000000+00:00</time></trkpt><trkpt lat="39.52083849" lon="-0.50369027"><ele>87.0</ele><time>2022-11-01T12:23:13.0000000+00:00</time></trkpt><trkpt lat="39.52083849" lon="-0.50369027"><ele>87.0</ele><time>2022-11-01T12:23:14.0000000+00:00</time></trkpt><trkpt lat="39.52083849" lon="-0.50369027"><ele>87.0</ele><time>2022-11-01T12:23:15.0000000+00:00</time></trkpt><trkpt lat="39.52083849" lon="-0.50369027"><ele>87.0</ele><time>2022-11-01T12:23:16.0000000+00:00</time></trkpt><trkpt lat="39.52083849" lon="-0.50369027"><ele>87.0</ele><time>2022-11-01T12:23:17.0000000+00:00</time></trkpt><trkpt lat="39.52083849" lon="-0.50369027"><ele>87.0</ele><time>2022-11-01T12:23:18.0000000+00:00</time></trkpt><trkpt lat="39.52083849" lon="-0.50369027"><ele>87.0</ele><time>2022-11-01T12:23:19.0000000+00:00</time></trkpt><trkpt lat="39.52083849" lon="-0.50369027"><ele>87.0</ele><time>2022-11-01T12:23:20.0000000+00:00</time></trkpt><trkpt lat="39.52083849" lon="-0.50369027"><ele>87.0</ele><time>2022-11-01T12:23:21.0000000+00:00</time></trkpt><trkpt lat="39.52083925" lon="-0.50369002"><ele>87.0</ele><time>2022-11-01T12:23:22.0000000+00:00</time></trkpt><trkpt lat="39.52083925" lon="-0.50368642"><ele>87.0</ele><time>2022-11-01T12:23:23.0000000+00:00</time></trkpt><trkpt lat="39.52083925" lon="-0.50368642"><ele>87.0</ele><time>2022-11-01T12:23:24.0000000+00:00</time></trkpt><trkpt lat="39.52083925" lon="-0.50368642"><ele>87.0</ele><time>2022-11-01T12:23:25.0000000+00:00</time></trkpt><trkpt lat="39.52083925" lon="-0.50368642"><ele>87.0</ele><time>2022-11-01T12:23:26.0000000+00:00</time></trkpt><trkpt lat="39.52083925" lon="-0.50368642"><ele>87.0</ele><time>2022-11-01T12:23:27.0000000+00:00</time></trkpt><trkpt lat="39.52083925" lon="-0.50368642"><ele>87.0</ele><time>2022-11-01T12:23:28.0000000+00:00</time></trkpt><trkpt lat="39.52083925" lon="-0.50368642"><ele>87.0</ele><time>2022-11-01T12:23:29.0000000+00:00</time></trkpt><trkpt lat="39.52083925" lon="-0.50368642"><ele>87.0</ele><time>2022-11-01T12:23:30.0000000+00:00</time></trkpt><trkpt lat="39.52083925" lon="-0.50368642"><ele>87.0</ele><time>2022-11-01T12:23:31.0000000+00:00</time></trkpt><trkpt lat="39.52083925" lon="-0.50368642"><ele>87.0</ele><time>2022-11-01T12:23:32.0000000+00:00</time></trkpt><trkpt lat="39.52083925" lon="-0.50368642"><ele>87.0</ele><time>2022-11-01T12:23:33.0000000+00:00</time></trkpt><trkpt lat="39.52083925" lon="-0.50368642"><ele>87.0</ele><time>2022-11-01T12:23:34.0000000+00:00</time></trkpt><trkpt lat="39.52083925" lon="-0.50368642"><ele>87.0</ele><time>2022-11-01T12:23:35.0000000+00:00</time></trkpt><trkpt lat="39.52083925" lon="-0.50368642"><ele>87.0</ele><time>2022-11-01T12:23:36.0000000+00:00</time></trkpt><trkpt lat="39.52084151" lon="-0.50368759"><ele>87.0</ele><time>2022-11-01T12:23:37.0000000+00:00</time></trkpt><trkpt lat="39.52084495" lon="-0.50368256"><ele>87.0</ele><time>2022-11-01T12:23:38.0000000+00:00</time></trkpt><trkpt lat="39.52084637" lon="-0.5036772"><ele>87.0</ele><time>2022-11-01T12:23:39.0000000+00:00</time></trkpt><trkpt lat="39.52084637" lon="-0.5036772"><ele>87.0</ele><time>2022-11-01T12:23:40.0000000+00:00</time></trkpt><trkpt lat="39.52084637" lon="-0.5036772"><ele>87.0</ele><time>2022-11-01T12:23:41.0000000+00:00</time></trkpt><trkpt lat="39.52084637" lon="-0.5036772"><ele>87.0</ele><time>2022-11-01T12:23:42.0000000+00:00</time></trkpt><trkpt lat="39.52084637" lon="-0.5036772"><ele>87.0</ele><time>2022-11-01T12:23:43.0000000+00:00</time></trkpt><trkpt lat="39.52084637" lon="-0.5036772"><ele>87.0</ele><time>2022-11-01T12:23:44.0000000+00:00</time></trkpt><trkpt lat="39.52084729" lon="-0.50367795"><ele>87.0</ele><time>2022-11-01T12:23:45.0000000+00:00</time></trkpt><trkpt lat="39.52084788" lon="-0.50367384"><ele>87.0</ele><time>2022-11-01T12:23:46.0000000+00:00</time></trkpt><trkpt lat="39.52085082" lon="-0.50367242"><ele>87.0</ele><time>2022-11-01T12:23:47.0000000+00:00</time></trkpt><trkpt lat="39.52085216" lon="-0.50366839"><ele>87.0</ele><time>2022-11-01T12:23:48.0000000+00:00</time></trkpt><trkpt lat="39.52085216" lon="-0.50366839"><ele>87.0</ele><time>2022-11-01T12:23:49.0000000+00:00</time></trkpt><trkpt lat="39.52085216" lon="-0.50366839"><ele>87.0</ele><time>2022-11-01T12:23:50.0000000+00:00</time></trkpt><trkpt lat="39.52085216" lon="-0.50366839"><ele>87.0</ele><time>2022-11-01T12:23:51.0000000+00:00</time></trkpt><trkpt lat="39.52085216" lon="-0.50366839"><ele>87.0</ele><time>2022-11-01T12:23:52.0000000+00:00</time></trkpt><trkpt lat="39.52085216" lon="-0.50366839"><ele>87.0</ele><time>2022-11-01T12:23:53.0000000+00:00</time></trkpt><trkpt lat="39.52085216" lon="-0.50366839"><ele>87.0</ele><time>2022-11-01T12:23:54.0000000+00:00</time></trkpt><trkpt lat="39.52085216" lon="-0.50366839"><ele>87.0</ele><time>2022-11-01T12:23:55.0000000+00:00</time></trkpt><trkpt lat="39.52085216" lon="-0.50366839"><ele>87.0</ele><time>2022-11-01T12:23:56.0000000+00:00</time></trkpt><trkpt lat="39.52085216" lon="-0.50366839"><ele>87.0</ele><time>2022-11-01T12:23:57.0000000+00:00</time></trkpt><trkpt lat="39.52085216" lon="-0.50366839"><ele>87.0</ele><time>2022-11-01T12:23:58.0000000+00:00</time></trkpt><trkpt lat="39.52085216" lon="-0.50366839"><ele>87.0</ele><time>2022-11-01T12:23:59.0000000+00:00</time></trkpt><trkpt lat="39.52085216" lon="-0.50366839"><ele>87.0</ele><time>2022-11-01T12:24:00.0000000+00:00</time></trkpt><trkpt lat="39.52085216" lon="-0.50366839"><ele>87.0</ele><time>2022-11-01T12:24:01.0000000+00:00</time></trkpt><trkpt lat="39.52085216" lon="-0.50366839"><ele>87.0</ele><time>2022-11-01T12:24:02.0000000+00:00</time></trkpt><trkpt lat="39.52085392" lon="-0.50367652"><ele>87.0</ele><time>2022-11-01T12:24:03.0000000+00:00</time></trkpt><trkpt lat="39.52085274" lon="-0.50367937"><ele>87.0</ele><time>2022-11-01T12:24:04.0000000+00:00</time></trkpt><trkpt lat="39.52085434" lon="-0.50368155"><ele>87.0</ele><time>2022-11-01T12:24:05.0000000+00:00</time></trkpt><trkpt lat="39.52085492" lon="-0.5036777"><ele>87.0</ele><time>2022-11-01T12:24:06.0000000+00:00</time></trkpt><trkpt lat="39.52085492" lon="-0.5036777"><ele>87.0</ele><time>2022-11-01T12:24:07.0000000+00:00</time></trkpt><trkpt lat="39.52085492" lon="-0.5036777"><ele>87.0</ele><time>2022-11-01T12:24:08.0000000+00:00</time></trkpt><trkpt lat="39.52085492" lon="-0.5036777"><ele>87.0</ele><time>2022-11-01T12:24:09.0000000+00:00</time></trkpt><trkpt lat="39.52085492" lon="-0.5036777"><ele>87.0</ele><time>2022-11-01T12:24:10.0000000+00:00</time></trkpt><trkpt lat="39.52085492" lon="-0.5036777"><ele>87.0</ele><time>2022-11-01T12:24:11.0000000+00:00</time></trkpt><trkpt lat="39.52085492" lon="-0.5036777"><ele>87.0</ele><time>2022-11-01T12:24:12.0000000+00:00</time></trkpt><trkpt lat="39.52085492" lon="-0.5036777"><ele>87.0</ele><time>2022-11-01T12:24:13.0000000+00:00</time></trkpt><trkpt lat="39.52085492" lon="-0.5036777"><ele>87.0</ele><time>2022-11-01T12:24:14.0000000+00:00</time></trkpt><trkpt lat="39.52085492" lon="-0.5036777"><ele>87.0</ele><time>2022-11-01T12:24:15.0000000+00:00</time></trkpt><trkpt lat="39.52085492" lon="-0.5036777"><ele>87.0</ele><time>2022-11-01T12:24:16.0000000+00:00</time></trkpt><trkpt lat="39.52085492" lon="-0.5036777"><ele>87.0</ele><time>2022-11-01T12:24:17.0000000+00:00</time></trkpt><trkpt lat="39.52085492" lon="-0.5036777"><ele>87.0</ele><time>2022-11-01T12:24:18.0000000+00:00</time></trkpt><trkpt lat="39.52085492" lon="-0.5036777"><ele>87.0</ele><time>2022-11-01T12:24:19.0000000+00:00</time></trkpt><trkpt lat="39.52085492" lon="-0.5036777"><ele>87.0</ele><time>2022-11-01T12:24:20.0000000+00:00</time></trkpt><trkpt lat="39.52085492" lon="-0.5036777"><ele>87.0</ele><time>2022-11-01T12:24:21.0000000+00:00</time></trkpt><trkpt lat="39.520854" lon="-0.5036777"><ele>87.0</ele><time>2022-11-01T12:24:22.0000000+00:00</time></trkpt><trkpt lat="39.52085534" lon="-0.503673"><ele>87.0</ele><time>2022-11-01T12:24:23.0000000+00:00</time></trkpt><trkpt lat="39.52085534" lon="-0.503673"><ele>87.0</ele><time>2022-11-01T12:24:24.0000000+00:00</time></trkpt><trkpt lat="39.52085534" lon="-0.503673"><ele>87.0</ele><time>2022-11-01T12:24:25.0000000+00:00</time></trkpt><trkpt lat="39.52085534" lon="-0.503673"><ele>87.0</ele><time>2022-11-01T12:24:26.0000000+00:00</time></trkpt><trkpt lat="39.52085534" lon="-0.503673"><ele>87.0</ele><time>2022-11-01T12:24:27.0000000+00:00</time></trkpt><trkpt lat="39.52085534" lon="-0.503673"><ele>87.0</ele><time>2022-11-01T12:24:28.0000000+00:00</time></trkpt><trkpt lat="39.52085534" lon="-0.503673"><ele>87.0</ele><time>2022-11-01T12:24:29.0000000+00:00</time></trkpt><trkpt lat="39.52085501" lon="-0.50367158"><ele>87.0</ele><time>2022-11-01T12:24:30.0000000+00:00</time></trkpt><trkpt lat="39.52085459" lon="-0.50366957"><ele>87.0</ele><time>2022-11-01T12:24:31.0000000+00:00</time></trkpt><trkpt lat="39.52085459" lon="-0.50366957"><ele>87.0</ele><time>2022-11-01T12:24:32.0000000+00:00</time></trkpt><trkpt lat="39.52085459" lon="-0.50366957"><ele>87.0</ele><time>2022-11-01T12:24:33.0000000+00:00</time></trkpt><trkpt lat="39.52085459" lon="-0.50366957"><ele>87.0</ele><time>2022-11-01T12:24:34.0000000+00:00</time></trkpt><trkpt lat="39.52085459" lon="-0.50366957"><ele>87.0</ele><time>2022-11-01T12:24:35.0000000+00:00</time></trkpt><trkpt lat="39.52085459" lon="-0.50366957"><ele>87.0</ele><time>2022-11-01T12:24:36.0000000+00:00</time></trkpt><trkpt lat="39.52085459" lon="-0.50366957"><ele>87.0</ele><time>2022-11-01T12:24:37.0000000+00:00</time></trkpt><trkpt lat="39.52085459" lon="-0.50366957"><ele>87.0</ele><time>2022-11-01T12:24:38.0000000+00:00</time></trkpt><trkpt lat="39.52085459" lon="-0.50366957"><ele>87.0</ele><time>2022-11-01T12:24:39.0000000+00:00</time></trkpt><trkpt lat="39.52085459" lon="-0.50366957"><ele>87.0</ele><time>2022-11-01T12:24:40.0000000+00:00</time></trkpt><trkpt lat="39.52085459" lon="-0.50366957"><ele>87.0</ele><time>2022-11-01T12:24:41.0000000+00:00</time></trkpt><trkpt lat="39.52085459" lon="-0.50366957"><ele>87.0</ele><time>2022-11-01T12:24:42.0000000+00:00</time></trkpt><trkpt lat="39.52085459" lon="-0.50366957"><ele>87.0</ele><time>2022-11-01T12:24:43.0000000+00:00</time></trkpt><trkpt lat="39.52085459" lon="-0.50366957"><ele>87.0</ele><time>2022-11-01T12:24:44.0000000+00:00</time></trkpt><trkpt lat="39.52085459" lon="-0.50366957"><ele>87.0</ele><time>2022-11-01T12:24:45.0000000+00:00</time></trkpt><trkpt lat="39.52085459" lon="-0.50366957"><ele>87.0</ele><time>2022-11-01T12:24:46.0000000+00:00</time></trkpt><trkpt lat="39.52085459" lon="-0.50366957"><ele>87.0</ele><time>2022-11-01T12:24:47.0000000+00:00</time></trkpt><trkpt lat="39.52085459" lon="-0.50366957"><ele>87.0</ele><time>2022-11-01T12:24:48.0000000+00:00</time></trkpt><trkpt lat="39.52085459" lon="-0.50366957"><ele>87.0</ele><time>2022-11-01T12:24:49.0000000+00:00</time></trkpt><trkpt lat="39.52085459" lon="-0.50366957"><ele>87.0</ele><time>2022-11-01T12:24:50.0000000+00:00</time></trkpt><trkpt lat="39.52085459" lon="-0.50366957"><ele>87.0</ele><time>2022-11-01T12:24:51.0000000+00:00</time></trkpt><trkpt lat="39.52085459" lon="-0.50366957"><ele>87.0</ele><time>2022-11-01T12:24:52.0000000+00:00</time></trkpt><trkpt lat="39.52085459" lon="-0.50366957"><ele>87.0</ele><time>2022-11-01T12:24:53.0000000+00:00</time></trkpt><trkpt lat="39.52085459" lon="-0.50366957"><ele>87.0</ele><time>2022-11-01T12:24:54.0000000+00:00</time></trkpt><trkpt lat="39.52085459" lon="-0.50366957"><ele>87.0</ele><time>2022-11-01T12:24:55.0000000+00:00</time></trkpt><trkpt lat="39.52085459" lon="-0.50366957"><ele>87.0</ele><time>2022-11-01T12:24:56.0000000+00:00</time></trkpt><trkpt lat="39.52085459" lon="-0.50366957"><ele>87.0</ele><time>2022-11-01T12:24:57.0000000+00:00</time></trkpt><trkpt lat="39.52085526" lon="-0.50366814"><ele>87.0</ele><time>2022-11-01T12:24:58.0000000+00:00</time></trkpt><trkpt lat="39.52085475" lon="-0.50366529"><ele>87.0</ele><time>2022-11-01T12:24:59.0000000+00:00</time></trkpt><trkpt lat="39.52085475" lon="-0.50366529"><ele>87.0</ele><time>2022-11-01T12:25:00.0000000+00:00</time></trkpt><trkpt lat="39.52085475" lon="-0.50366529"><ele>87.0</ele><time>2022-11-01T12:25:01.0000000+00:00</time></trkpt><trkpt lat="39.52085475" lon="-0.50366529"><ele>87.0</ele><time>2022-11-01T12:25:02.0000000+00:00</time></trkpt><trkpt lat="39.52085475" lon="-0.50366529"><ele>87.0</ele><time>2022-11-01T12:25:03.0000000+00:00</time></trkpt><trkpt lat="39.52085475" lon="-0.50366529"><ele>87.0</ele><time>2022-11-01T12:25:04.0000000+00:00</time></trkpt><trkpt lat="39.52085475" lon="-0.50366529"><ele>87.0</ele><time>2022-11-01T12:25:05.0000000+00:00</time></trkpt><trkpt lat="39.52085475" lon="-0.50366529"><ele>87.0</ele><time>2022-11-01T12:25:06.0000000+00:00</time></trkpt><trkpt lat="39.52085475" lon="-0.50366529"><ele>87.0</ele><time>2022-11-01T12:25:07.0000000+00:00</time></trkpt><trkpt lat="39.52085475" lon="-0.50366529"><ele>87.0</ele><time>2022-11-01T12:25:08.0000000+00:00</time></trkpt><trkpt lat="39.52085475" lon="-0.50366529"><ele>87.0</ele><time>2022-11-01T12:25:09.0000000+00:00</time></trkpt><trkpt lat="39.52085475" lon="-0.50366529"><ele>87.0</ele><time>2022-11-01T12:25:10.0000000+00:00</time></trkpt><trkpt lat="39.52085475" lon="-0.50366529"><ele>87.0</ele><time>2022-11-01T12:25:11.0000000+00:00</time></trkpt><trkpt lat="39.52085475" lon="-0.50366529"><ele>87.0</ele><time>2022-11-01T12:25:12.0000000+00:00</time></trkpt><trkpt lat="39.52085475" lon="-0.50366529"><ele>87.0</ele><time>2022-11-01T12:25:13.0000000+00:00</time></trkpt><trkpt lat="39.52085475" lon="-0.50366529"><ele>87.0</ele><time>2022-11-01T12:25:14.0000000+00:00</time></trkpt><trkpt lat="39.52085475" lon="-0.50366529"><ele>87.0</ele><time>2022-11-01T12:25:15.0000000+00:00</time></trkpt><trkpt lat="39.52085475" lon="-0.50366529"><ele>87.0</ele><time>2022-11-01T12:25:16.0000000+00:00</time></trkpt><trkpt lat="39.52085475" lon="-0.50366529"><ele>87.0</ele><time>2022-11-01T12:25:17.0000000+00:00</time></trkpt><trkpt lat="39.52085475" lon="-0.50366529"><ele>87.0</ele><time>2022-11-01T12:25:18.0000000+00:00</time></trkpt><trkpt lat="39.52085475" lon="-0.50366529"><ele>87.0</ele><time>2022-11-01T12:25:19.0000000+00:00</time></trkpt><trkpt lat="39.52085475" lon="-0.50366529"><ele>87.0</ele><time>2022-11-01T12:25:20.0000000+00:00</time></trkpt><trkpt lat="39.52085475" lon="-0.50366529"><ele>87.0</ele><time>2022-11-01T12:25:21.0000000+00:00</time></trkpt><trkpt lat="39.52085475" lon="-0.50366529"><ele>87.0</ele><time>2022-11-01T12:25:22.0000000+00:00</time></trkpt><trkpt lat="39.52085475" lon="-0.50366529"><ele>87.0</ele><time>2022-11-01T12:25:23.0000000+00:00</time></trkpt><trkpt lat="39.52085475" lon="-0.50366529"><ele>87.0</ele><time>2022-11-01T12:25:24.0000000+00:00</time></trkpt><trkpt lat="39.52085475" lon="-0.50366529"><ele>87.0</ele><time>2022-11-01T12:25:25.0000000+00:00</time></trkpt><trkpt lat="39.52085475" lon="-0.50366529"><ele>87.0</ele><time>2022-11-01T12:25:26.0000000+00:00</time></trkpt><trkpt lat="39.52085475" lon="-0.50366529"><ele>87.0</ele><time>2022-11-01T12:25:27.0000000+00:00</time></trkpt><trkpt lat="39.52085475" lon="-0.50366529"><ele>87.0</ele><time>2022-11-01T12:25:28.0000000+00:00</time></trkpt><trkpt lat="39.52085475" lon="-0.50366529"><ele>87.0</ele><time>2022-11-01T12:25:29.0000000+00:00</time></trkpt><trkpt lat="39.52085475" lon="-0.50366529"><ele>87.0</ele><time>2022-11-01T12:25:30.0000000+00:00</time></trkpt><trkpt lat="39.52085475" lon="-0.50366529"><ele>87.0</ele><time>2022-11-01T12:25:31.0000000+00:00</time></trkpt><trkpt lat="39.52085475" lon="-0.50366529"><ele>87.0</ele><time>2022-11-01T12:25:32.0000000+00:00</time></trkpt><trkpt lat="39.52085475" lon="-0.50366529"><ele>87.0</ele><time>2022-11-01T12:25:33.0000000+00:00</time></trkpt><trkpt lat="39.52085475" lon="-0.50366529"><ele>87.0</ele><time>2022-11-01T12:25:34.0000000+00:00</time></trkpt><trkpt lat="39.52085475" lon="-0.50366529"><ele>87.0</ele><time>2022-11-01T12:25:35.0000000+00:00</time></trkpt><trkpt lat="39.52085475" lon="-0.50366529"><ele>87.0</ele><time>2022-11-01T12:25:36.0000000+00:00</time></trkpt><trkpt lat="39.52085475" lon="-0.50366529"><ele>87.0</ele><time>2022-11-01T12:25:37.0000000+00:00</time></trkpt><trkpt lat="39.52085475" lon="-0.50366529"><ele>87.0</ele><time>2022-11-01T12:25:38.0000000+00:00</time></trkpt><trkpt lat="39.52085475" lon="-0.50366529"><ele>87.0</ele><time>2022-11-01T12:25:39.0000000+00:00</time></trkpt><trkpt lat="39.52085475" lon="-0.50366529"><ele>87.0</ele><time>2022-11-01T12:25:40.0000000+00:00</time></trkpt><trkpt lat="39.52085475" lon="-0.50366529"><ele>87.0</ele><time>2022-11-01T12:25:41.0000000+00:00</time></trkpt><trkpt lat="39.52085475" lon="-0.50366529"><ele>87.0</ele><time>2022-11-01T12:25:42.0000000+00:00</time></trkpt><trkpt lat="39.52085475" lon="-0.50366529"><ele>87.0</ele><time>2022-11-01T12:25:43.0000000+00:00</time></trkpt><trkpt lat="39.52085475" lon="-0.50366529"><ele>87.0</ele><time>2022-11-01T12:25:44.0000000+00:00</time></trkpt><trkpt lat="39.52085475" lon="-0.50366529"><ele>87.0</ele><time>2022-11-01T12:25:45.0000000+00:00</time></trkpt><trkpt lat="39.52085475" lon="-0.50366529"><ele>87.0</ele><time>2022-11-01T12:25:46.0000000+00:00</time></trkpt><trkpt lat="39.52085475" lon="-0.50366529"><ele>87.0</ele><time>2022-11-01T12:25:47.0000000+00:00</time></trkpt><trkpt lat="39.52085475" lon="-0.50366529"><ele>87.0</ele><time>2022-11-01T12:25:48.0000000+00:00</time></trkpt><trkpt lat="39.52085475" lon="-0.50366529"><ele>87.0</ele><time>2022-11-01T12:25:49.0000000+00:00</time></trkpt><trkpt lat="39.52085475" lon="-0.50366529"><ele>87.0</ele><time>2022-11-01T12:25:50.0000000+00:00</time></trkpt><trkpt lat="39.52085475" lon="-0.50366529"><ele>87.0</ele><time>2022-11-01T12:25:51.0000000+00:00</time></trkpt><trkpt lat="39.52085475" lon="-0.50366529"><ele>87.0</ele><time>2022-11-01T12:25:52.0000000+00:00</time></trkpt><trkpt lat="39.52085475" lon="-0.50366529"><ele>87.0</ele><time>2022-11-01T12:25:53.0000000+00:00</time></trkpt><trkpt lat="39.52085475" lon="-0.50366529"><ele>87.0</ele><time>2022-11-01T12:25:54.0000000+00:00</time></trkpt><trkpt lat="39.52085475" lon="-0.50366529"><ele>87.0</ele><time>2022-11-01T12:25:55.0000000+00:00</time></trkpt><trkpt lat="39.52085475" lon="-0.50366529"><ele>87.0</ele><time>2022-11-01T12:25:56.0000000+00:00</time></trkpt><trkpt lat="39.52085475" lon="-0.50366529"><ele>87.0</ele><time>2022-11-01T12:25:57.0000000+00:00</time></trkpt><trkpt lat="39.52085475" lon="-0.50366529"><ele>87.0</ele><time>2022-11-01T12:25:58.0000000+00:00</time></trkpt><trkpt lat="39.52085475" lon="-0.50366529"><ele>87.0</ele><time>2022-11-01T12:25:59.0000000+00:00</time></trkpt><trkpt lat="39.52085475" lon="-0.50366529"><ele>87.0</ele><time>2022-11-01T12:26:00.0000000+00:00</time></trkpt><trkpt lat="39.52085475" lon="-0.50366529"><ele>87.0</ele><time>2022-11-01T12:26:01.0000000+00:00</time></trkpt><trkpt lat="39.52085475" lon="-0.50366529"><ele>87.0</ele><time>2022-11-01T12:26:02.0000000+00:00</time></trkpt><trkpt lat="39.52085475" lon="-0.50366529"><ele>87.0</ele><time>2022-11-01T12:26:03.0000000+00:00</time></trkpt><trkpt lat="39.52085475" lon="-0.50366529"><ele>87.0</ele><time>2022-11-01T12:26:04.0000000+00:00</time></trkpt><trkpt lat="39.52085475" lon="-0.50366529"><ele>87.0</ele><time>2022-11-01T12:26:05.0000000+00:00</time></trkpt><trkpt lat="39.52085475" lon="-0.50366529"><ele>87.0</ele><time>2022-11-01T12:26:06.0000000+00:00</time></trkpt><trkpt lat="39.52085475" lon="-0.50366529"><ele>87.0</ele><time>2022-11-01T12:26:07.0000000+00:00</time></trkpt><trkpt lat="39.52085475" lon="-0.50366529"><ele>87.0</ele><time>2022-11-01T12:26:08.0000000+00:00</time></trkpt><trkpt lat="39.52085475" lon="-0.50366529"><ele>87.0</ele><time>2022-11-01T12:26:09.0000000+00:00</time></trkpt><trkpt lat="39.52085475" lon="-0.50366529"><ele>87.0</ele><time>2022-11-01T12:26:10.0000000+00:00</time></trkpt><trkpt lat="39.52085475" lon="-0.50366529"><ele>87.0</ele><time>2022-11-01T12:26:11.0000000+00:00</time></trkpt><trkpt lat="39.52085475" lon="-0.50366529"><ele>87.0</ele><time>2022-11-01T12:26:12.0000000+00:00</time></trkpt><trkpt lat="39.52085475" lon="-0.50366529"><ele>87.0</ele><time>2022-11-01T12:26:13.0000000+00:00</time></trkpt><trkpt lat="39.52085475" lon="-0.50366529"><ele>87.0</ele><time>2022-11-01T12:26:14.0000000+00:00</time></trkpt><trkpt lat="39.52085475" lon="-0.50366529"><ele>87.0</ele><time>2022-11-01T12:26:15.0000000+00:00</time></trkpt><trkpt lat="39.52085475" lon="-0.50366529"><ele>87.0</ele><time>2022-11-01T12:26:16.0000000+00:00</time></trkpt><trkpt lat="39.52085475" lon="-0.50366529"><ele>87.0</ele><time>2022-11-01T12:26:17.0000000+00:00</time></trkpt><trkpt lat="39.52085475" lon="-0.50366529"><ele>87.0</ele><time>2022-11-01T12:26:18.0000000+00:00</time></trkpt><trkpt lat="39.52085475" lon="-0.50366529"><ele>87.0</ele><time>2022-11-01T12:26:19.0000000+00:00</time></trkpt><trkpt lat="39.52085475" lon="-0.50366529"><ele>87.0</ele><time>2022-11-01T12:26:20.0000000+00:00</time></trkpt><trkpt lat="39.52085475" lon="-0.50366529"><ele>87.0</ele><time>2022-11-01T12:26:21.0000000+00:00</time></trkpt><trkpt lat="39.52085475" lon="-0.50366529"><ele>87.0</ele><time>2022-11-01T12:26:22.0000000+00:00</time></trkpt><trkpt lat="39.52085475" lon="-0.50366529"><ele>87.0</ele><time>2022-11-01T12:26:23.0000000+00:00</time></trkpt><trkpt lat="39.52085475" lon="-0.50366529"><ele>87.0</ele><time>2022-11-01T12:26:24.0000000+00:00</time></trkpt><trkpt lat="39.52085475" lon="-0.50366529"><ele>87.0</ele><time>2022-11-01T12:26:25.0000000+00:00</time></trkpt><trkpt lat="39.52085475" lon="-0.50366529"><ele>87.0</ele><time>2022-11-01T12:26:26.0000000+00:00</time></trkpt><trkpt lat="39.52085475" lon="-0.50366529"><ele>87.0</ele><time>2022-11-01T12:26:27.0000000+00:00</time></trkpt><trkpt lat="39.52085475" lon="-0.50366529"><ele>87.0</ele><time>2022-11-01T12:26:28.0000000+00:00</time></trkpt><trkpt lat="39.52085475" lon="-0.50366529"><ele>87.0</ele><time>2022-11-01T12:26:29.0000000+00:00</time></trkpt><trkpt lat="39.52085475" lon="-0.50366529"><ele>87.0</ele><time>2022-11-01T12:26:30.0000000+00:00</time></trkpt><trkpt lat="39.52085475" lon="-0.50366529"><ele>87.0</ele><time>2022-11-01T12:26:31.0000000+00:00</time></trkpt><trkpt lat="39.52085475" lon="-0.50366529"><ele>87.0</ele><time>2022-11-01T12:26:32.0000000+00:00</time></trkpt><trkpt lat="39.52085475" lon="-0.50366529"><ele>87.0</ele><time>2022-11-01T12:26:33.0000000+00:00</time></trkpt><trkpt lat="39.52085475" lon="-0.50366529"><ele>87.0</ele><time>2022-11-01T12:26:34.0000000+00:00</time></trkpt><trkpt lat="39.52085475" lon="-0.50366529"><ele>87.0</ele><time>2022-11-01T12:26:35.0000000+00:00</time></trkpt><trkpt lat="39.52085475" lon="-0.50366529"><ele>87.0</ele><time>2022-11-01T12:26:36.0000000+00:00</time></trkpt><trkpt lat="39.52085475" lon="-0.50366529"><ele>87.0</ele><time>2022-11-01T12:26:37.0000000+00:00</time></trkpt><trkpt lat="39.52085475" lon="-0.50366529"><ele>87.0</ele><time>2022-11-01T12:26:38.0000000+00:00</time></trkpt><trkpt lat="39.52085475" lon="-0.50366529"><ele>87.0</ele><time>2022-11-01T12:26:39.0000000+00:00</time></trkpt><trkpt lat="39.52085475" lon="-0.50366529"><ele>87.0</ele><time>2022-11-01T12:26:40.0000000+00:00</time></trkpt><trkpt lat="39.52085475" lon="-0.50366529"><ele>87.0</ele><time>2022-11-01T12:26:41.0000000+00:00</time></trkpt><trkpt lat="39.52085475" lon="-0.50366529"><ele>87.0</ele><time>2022-11-01T12:26:42.0000000+00:00</time></trkpt><trkpt lat="39.52085475" lon="-0.50366529"><ele>87.0</ele><time>2022-11-01T12:26:43.0000000+00:00</time></trkpt><trkpt lat="39.52085475" lon="-0.50366529"><ele>87.0</ele><time>2022-11-01T12:26:44.0000000+00:00</time></trkpt><trkpt lat="39.52085475" lon="-0.50366529"><ele>87.0</ele><time>2022-11-01T12:26:45.0000000+00:00</time></trkpt><trkpt lat="39.52085475" lon="-0.50366529"><ele>87.0</ele><time>2022-11-01T12:26:46.0000000+00:00</time></trkpt><trkpt lat="39.52085475" lon="-0.50366529"><ele>87.0</ele><time>2022-11-01T12:26:47.0000000+00:00</time></trkpt><trkpt lat="39.52085475" lon="-0.50366529"><ele>87.0</ele><time>2022-11-01T12:26:48.0000000+00:00</time></trkpt><trkpt lat="39.52085475" lon="-0.50366529"><ele>87.0</ele><time>2022-11-01T12:26:49.0000000+00:00</time></trkpt><trkpt lat="39.52085475" lon="-0.50366529"><ele>87.0</ele><time>2022-11-01T12:26:50.0000000+00:00</time></trkpt><trkpt lat="39.52085475" lon="-0.50366529"><ele>87.0</ele><time>2022-11-01T12:26:51.0000000+00:00</time></trkpt><trkpt lat="39.52085475" lon="-0.50366529"><ele>87.0</ele><time>2022-11-01T12:26:52.0000000+00:00</time></trkpt><trkpt lat="39.52085475" lon="-0.50366529"><ele>87.0</ele><time>2022-11-01T12:26:53.0000000+00:00</time></trkpt><trkpt lat="39.52085475" lon="-0.50366529"><ele>87.0</ele><time>2022-11-01T12:26:54.0000000+00:00</time></trkpt><trkpt lat="39.52085475" lon="-0.50366529"><ele>87.0</ele><time>2022-11-01T12:26:55.0000000+00:00</time></trkpt><trkpt lat="39.52085475" lon="-0.50366529"><ele>87.0</ele><time>2022-11-01T12:26:56.0000000+00:00</time></trkpt><trkpt lat="39.52085475" lon="-0.50366529"><ele>87.0</ele><time>2022-11-01T12:26:57.0000000+00:00</time></trkpt><trkpt lat="39.52085475" lon="-0.50366529"><ele>87.0</ele><time>2022-11-01T12:26:58.0000000+00:00</time></trkpt><trkpt lat="39.52085475" lon="-0.50366529"><ele>87.0</ele><time>2022-11-01T12:26:59.0000000+00:00</time></trkpt><trkpt lat="39.52085475" lon="-0.50366529"><ele>87.0</ele><time>2022-11-01T12:27:00.0000000+00:00</time></trkpt><trkpt lat="39.52085475" lon="-0.50366529"><ele>87.0</ele><time>2022-11-01T12:27:01.0000000+00:00</time></trkpt><trkpt lat="39.52085475" lon="-0.50366529"><ele>87.0</ele><time>2022-11-01T12:27:02.0000000+00:00</time></trkpt><trkpt lat="39.52085475" lon="-0.50366529"><ele>87.0</ele><time>2022-11-01T12:27:03.0000000+00:00</time></trkpt><trkpt lat="39.52085475" lon="-0.50366529"><ele>87.0</ele><time>2022-11-01T12:27:04.0000000+00:00</time></trkpt><trkpt lat="39.52085475" lon="-0.50366529"><ele>87.0</ele><time>2022-11-01T12:27:05.0000000+00:00</time></trkpt><trkpt lat="39.52085475" lon="-0.50366529"><ele>87.0</ele><time>2022-11-01T12:27:06.0000000+00:00</time></trkpt><trkpt lat="39.52085475" lon="-0.50366529"><ele>87.0</ele><time>2022-11-01T12:27:07.0000000+00:00</time></trkpt><trkpt lat="39.52085475" lon="-0.50366529"><ele>87.0</ele><time>2022-11-01T12:27:08.0000000+00:00</time></trkpt><trkpt lat="39.52085475" lon="-0.50366529"><ele>87.0</ele><time>2022-11-01T12:27:09.0000000+00:00</time></trkpt><trkpt lat="39.52085475" lon="-0.50366529"><ele>87.0</ele><time>2022-11-01T12:27:10.0000000+00:00</time></trkpt><trkpt lat="39.52085475" lon="-0.50366529"><ele>87.0</ele><time>2022-11-01T12:27:11.0000000+00:00</time></trkpt><trkpt lat="39.52085475" lon="-0.50366529"><ele>87.0</ele><time>2022-11-01T12:27:12.0000000+00:00</time></trkpt><trkpt lat="39.52085475" lon="-0.50366529"><ele>87.0</ele><time>2022-11-01T12:27:13.0000000+00:00</time></trkpt><trkpt lat="39.52085475" lon="-0.50366529"><ele>87.0</ele><time>2022-11-01T12:27:14.0000000+00:00</time></trkpt><trkpt lat="39.52085475" lon="-0.50366529"><ele>87.0</ele><time>2022-11-01T12:27:15.0000000+00:00</time></trkpt><trkpt lat="39.52085475" lon="-0.50366529"><ele>87.0</ele><time>2022-11-01T12:27:16.0000000+00:00</time></trkpt><trkpt lat="39.52085475" lon="-0.50366529"><ele>87.0</ele><time>2022-11-01T12:27:17.0000000+00:00</time></trkpt><trkpt lat="39.52085475" lon="-0.50366529"><ele>87.0</ele><time>2022-11-01T12:27:18.0000000+00:00</time></trkpt><trkpt lat="39.52085475" lon="-0.50366529"><ele>87.0</ele><time>2022-11-01T12:27:19.0000000+00:00</time></trkpt><trkpt lat="39.52085475" lon="-0.50366529"><ele>87.0</ele><time>2022-11-01T12:27:20.0000000+00:00</time></trkpt><trkpt lat="39.52085475" lon="-0.50366529"><ele>87.0</ele><time>2022-11-01T12:27:21.0000000+00:00</time></trkpt><trkpt lat="39.52085475" lon="-0.50366529"><ele>87.0</ele><time>2022-11-01T12:27:22.0000000+00:00</time></trkpt><trkpt lat="39.52085475" lon="-0.50366529"><ele>87.0</ele><time>2022-11-01T12:27:23.0000000+00:00</time></trkpt><trkpt lat="39.52085475" lon="-0.50366529"><ele>87.0</ele><time>2022-11-01T12:27:24.0000000+00:00</time></trkpt><trkpt lat="39.52085475" lon="-0.50366529"><ele>87.0</ele><time>2022-11-01T12:27:25.0000000+00:00</time></trkpt><trkpt lat="39.52085475" lon="-0.50366529"><ele>87.0</ele><time>2022-11-01T12:27:26.0000000+00:00</time></trkpt><trkpt lat="39.52085475" lon="-0.50366529"><ele>87.0</ele><time>2022-11-01T12:27:27.0000000+00:00</time></trkpt><trkpt lat="39.52085475" lon="-0.50366529"><ele>87.0</ele><time>2022-11-01T12:27:28.0000000+00:00</time></trkpt><trkpt lat="39.52085475" lon="-0.50366529"><ele>87.0</ele><time>2022-11-01T12:27:29.0000000+00:00</time></trkpt><trkpt lat="39.52085475" lon="-0.50366529"><ele>87.0</ele><time>2022-11-01T12:27:30.0000000+00:00</time></trkpt><trkpt lat="39.52085475" lon="-0.50366529"><ele>87.0</ele><time>2022-11-01T12:27:31.0000000+00:00</time></trkpt><trkpt lat="39.52085475" lon="-0.50366529"><ele>87.0</ele><time>2022-11-01T12:27:32.0000000+00:00</time></trkpt><trkpt lat="39.52085475" lon="-0.50366529"><ele>87.0</ele><time>2022-11-01T12:27:33.0000000+00:00</time></trkpt><trkpt lat="39.52085475" lon="-0.50366529"><ele>87.0</ele><time>2022-11-01T12:27:34.0000000+00:00</time></trkpt><trkpt lat="39.52085475" lon="-0.50366529"><ele>87.0</ele><time>2022-11-01T12:27:35.0000000+00:00</time></trkpt><trkpt lat="39.52085475" lon="-0.50366529"><ele>87.0</ele><time>2022-11-01T12:27:36.0000000+00:00</time></trkpt><trkpt lat="39.52085475" lon="-0.50366529"><ele>87.0</ele><time>2022-11-01T12:27:37.0000000+00:00</time></trkpt><trkpt lat="39.52085475" lon="-0.50366529"><ele>87.0</ele><time>2022-11-01T12:27:38.0000000+00:00</time></trkpt><trkpt lat="39.52085475" lon="-0.50366529"><ele>87.0</ele><time>2022-11-01T12:27:39.0000000+00:00</time></trkpt><trkpt lat="39.52085475" lon="-0.50366529"><ele>87.0</ele><time>2022-11-01T12:27:40.0000000+00:00</time></trkpt><trkpt lat="39.52085475" lon="-0.50366529"><ele>87.0</ele><time>2022-11-01T12:27:41.0000000+00:00</time></trkpt><trkpt lat="39.52085475" lon="-0.50366529"><ele>87.0</ele><time>2022-11-01T12:27:42.0000000+00:00</time></trkpt><trkpt lat="39.52085475" lon="-0.50366529"><ele>87.0</ele><time>2022-11-01T12:27:43.0000000+00:00</time></trkpt><trkpt lat="39.52085475" lon="-0.50366529"><ele>87.0</ele><time>2022-11-01T12:27:44.0000000+00:00</time></trkpt><trkpt lat="39.52085475" lon="-0.50366529"><ele>87.0</ele><time>2022-11-01T12:27:45.0000000+00:00</time></trkpt><trkpt lat="39.52085475" lon="-0.50366529"><ele>87.0</ele><time>2022-11-01T12:27:46.0000000+00:00</time></trkpt><trkpt lat="39.52085475" lon="-0.50366529"><ele>87.0</ele><time>2022-11-01T12:27:47.0000000+00:00</time></trkpt><trkpt lat="39.52085475" lon="-0.50366529"><ele>87.0</ele><time>2022-11-01T12:27:48.0000000+00:00</time></trkpt><trkpt lat="39.52085475" lon="-0.50366529"><ele>87.0</ele><time>2022-11-01T12:27:49.0000000+00:00</time></trkpt><trkpt lat="39.52085475" lon="-0.50366529"><ele>87.0</ele><time>2022-11-01T12:27:50.0000000+00:00</time></trkpt><trkpt lat="39.52085475" lon="-0.50366529"><ele>87.0</ele><time>2022-11-01T12:27:51.0000000+00:00</time></trkpt><trkpt lat="39.52085475" lon="-0.50366529"><ele>87.0</ele><time>2022-11-01T12:27:52.0000000+00:00</time></trkpt><trkpt lat="39.52085475" lon="-0.50366529"><ele>87.0</ele><time>2022-11-01T12:27:53.0000000+00:00</time></trkpt><trkpt lat="39.52085475" lon="-0.50366529"><ele>87.0</ele><time>2022-11-01T12:27:54.0000000+00:00</time></trkpt><trkpt lat="39.52085475" lon="-0.50366529"><ele>87.0</ele><time>2022-11-01T12:27:55.0000000+00:00</time></trkpt><trkpt lat="39.52085475" lon="-0.50366529"><ele>87.0</ele><time>2022-11-01T12:27:56.0000000+00:00</time></trkpt><trkpt lat="39.52085475" lon="-0.50366529"><ele>87.0</ele><time>2022-11-01T12:27:57.0000000+00:00</time></trkpt><trkpt lat="39.52085475" lon="-0.50366529"><ele>87.0</ele><time>2022-11-01T12:27:58.0000000+00:00</time></trkpt><trkpt lat="39.52085475" lon="-0.50366529"><ele>87.0</ele><time>2022-11-01T12:27:59.0000000+00:00</time></trkpt><trkpt lat="39.52085475" lon="-0.50366529"><ele>87.0</ele><time>2022-11-01T12:28:00.0000000+00:00</time></trkpt><trkpt lat="39.52085475" lon="-0.50366529"><ele>87.0</ele><time>2022-11-01T12:28:01.0000000+00:00</time></trkpt><trkpt lat="39.52085475" lon="-0.50366529"><ele>87.0</ele><time>2022-11-01T12:28:02.0000000+00:00</time></trkpt><trkpt lat="39.52085475" lon="-0.50366529"><ele>87.0</ele><time>2022-11-01T12:28:03.0000000+00:00</time></trkpt><trkpt lat="39.52085475" lon="-0.50366529"><ele>87.0</ele><time>2022-11-01T12:28:04.0000000+00:00</time></trkpt><trkpt lat="39.52085475" lon="-0.50366529"><ele>87.0</ele><time>2022-11-01T12:28:05.0000000+00:00</time></trkpt><trkpt lat="39.52085475" lon="-0.50366529"><ele>87.0</ele><time>2022-11-01T12:28:06.0000000+00:00</time></trkpt><trkpt lat="39.52085475" lon="-0.50366529"><ele>87.0</ele><time>2022-11-01T12:28:07.0000000+00:00</time></trkpt><trkpt lat="39.52085475" lon="-0.50366529"><ele>87.0</ele><time>2022-11-01T12:28:08.0000000+00:00</time></trkpt><trkpt lat="39.52085475" lon="-0.50366529"><ele>87.0</ele><time>2022-11-01T12:28:09.0000000+00:00</time></trkpt><trkpt lat="39.52085475" lon="-0.50366529"><ele>87.0</ele><time>2022-11-01T12:28:10.0000000+00:00</time></trkpt><trkpt lat="39.52085475" lon="-0.50366529"><ele>87.0</ele><time>2022-11-01T12:28:11.0000000+00:00</time></trkpt><trkpt lat="39.52085475" lon="-0.50366529"><ele>87.0</ele><time>2022-11-01T12:28:12.0000000+00:00</time></trkpt><trkpt lat="39.52085475" lon="-0.50366529"><ele>87.0</ele><time>2022-11-01T12:28:13.0000000+00:00</time></trkpt><trkpt lat="39.52085475" lon="-0.50366529"><ele>87.0</ele><time>2022-11-01T12:28:14.0000000+00:00</time></trkpt><trkpt lat="39.52085475" lon="-0.50366529"><ele>87.0</ele><time>2022-11-01T12:28:15.0000000+00:00</time></trkpt><trkpt lat="39.52085475" lon="-0.50366529"><ele>87.0</ele><time>2022-11-01T12:28:16.0000000+00:00</time></trkpt><trkpt lat="39.52085475" lon="-0.50366529"><ele>87.0</ele><time>2022-11-01T12:28:17.0000000+00:00</time></trkpt><trkpt lat="39.52085475" lon="-0.50366529"><ele>87.0</ele><time>2022-11-01T12:28:18.0000000+00:00</time></trkpt><trkpt lat="39.52085475" lon="-0.50366529"><ele>87.0</ele><time>2022-11-01T12:28:19.0000000+00:00</time></trkpt><trkpt lat="39.52085475" lon="-0.50366529"><ele>87.0</ele><time>2022-11-01T12:28:20.0000000+00:00</time></trkpt><trkpt lat="39.52085475" lon="-0.50366529"><ele>87.0</ele><time>2022-11-01T12:28:21.0000000+00:00</time></trkpt><trkpt lat="39.52085475" lon="-0.50366529"><ele>87.0</ele><time>2022-11-01T12:28:22.0000000+00:00</time></trkpt><trkpt lat="39.52085475" lon="-0.50366529"><ele>87.0</ele><time>2022-11-01T12:28:23.0000000+00:00</time></trkpt><trkpt lat="39.52085475" lon="-0.50366529"><ele>87.0</ele><time>2022-11-01T12:28:24.0000000+00:00</time></trkpt><trkpt lat="39.52085475" lon="-0.50366529"><ele>87.0</ele><time>2022-11-01T12:28:25.0000000+00:00</time></trkpt><trkpt lat="39.52085475" lon="-0.50366529"><ele>87.0</ele><time>2022-11-01T12:28:26.0000000+00:00</time></trkpt><trkpt lat="39.52085475" lon="-0.50366529"><ele>87.0</ele><time>2022-11-01T12:28:27.0000000+00:00</time></trkpt><trkpt lat="39.52085475" lon="-0.50366529"><ele>87.0</ele><time>2022-11-01T12:28:28.0000000+00:00</time></trkpt><trkpt lat="39.52085475" lon="-0.50366529"><ele>87.0</ele><time>2022-11-01T12:28:29.0000000+00:00</time></trkpt><trkpt lat="39.52085475" lon="-0.50366529"><ele>87.0</ele><time>2022-11-01T12:28:30.0000000+00:00</time></trkpt><trkpt lat="39.52085475" lon="-0.50366529"><ele>87.0</ele><time>2022-11-01T12:28:31.0000000+00:00</time></trkpt><trkpt lat="39.52085475" lon="-0.50366529"><ele>87.0</ele><time>2022-11-01T12:28:32.0000000+00:00</time></trkpt><trkpt lat="39.52085475" lon="-0.50366529"><ele>87.0</ele><time>2022-11-01T12:28:33.0000000+00:00</time></trkpt><trkpt lat="39.52085475" lon="-0.50366529"><ele>87.0</ele><time>2022-11-01T12:28:34.0000000+00:00</time></trkpt><trkpt lat="39.52085475" lon="-0.50366529"><ele>87.0</ele><time>2022-11-01T12:28:35.0000000+00:00</time></trkpt><trkpt lat="39.52085475" lon="-0.50366529"><ele>87.0</ele><time>2022-11-01T12:28:36.0000000+00:00</time></trkpt><trkpt lat="39.52085475" lon="-0.50366529"><ele>87.0</ele><time>2022-11-01T12:28:37.0000000+00:00</time></trkpt><trkpt lat="39.52085475" lon="-0.50366529"><ele>87.0</ele><time>2022-11-01T12:28:38.0000000+00:00</time></trkpt><trkpt lat="39.52085475" lon="-0.50366529"><ele>87.0</ele><time>2022-11-01T12:28:39.0000000+00:00</time></trkpt><trkpt lat="39.52085475" lon="-0.50366529"><ele>87.0</ele><time>2022-11-01T12:28:40.0000000+00:00</time></trkpt><trkpt lat="39.52085475" lon="-0.50366529"><ele>87.0</ele><time>2022-11-01T12:28:41.0000000+00:00</time></trkpt><trkpt lat="39.52085475" lon="-0.50366529"><ele>87.0</ele><time>2022-11-01T12:28:42.0000000+00:00</time></trkpt><trkpt lat="39.52085475" lon="-0.50366529"><ele>87.0</ele><time>2022-11-01T12:28:43.0000000+00:00</time></trkpt><trkpt lat="39.52085475" lon="-0.50366529"><ele>87.0</ele><time>2022-11-01T12:28:44.0000000+00:00</time></trkpt><trkpt lat="39.52085475" lon="-0.50366529"><ele>87.0</ele><time>2022-11-01T12:28:45.0000000+00:00</time></trkpt><trkpt lat="39.52085475" lon="-0.50366529"><ele>87.0</ele><time>2022-11-01T12:28:46.0000000+00:00</time></trkpt><trkpt lat="39.52085475" lon="-0.50366529"><ele>87.0</ele><time>2022-11-01T12:28:47.0000000+00:00</time></trkpt><trkpt lat="39.52085475" lon="-0.50366529"><ele>87.0</ele><time>2022-11-01T12:28:48.0000000+00:00</time></trkpt><trkpt lat="39.52085475" lon="-0.50366529"><ele>87.0</ele><time>2022-11-01T12:28:49.0000000+00:00</time></trkpt><trkpt lat="39.52085475" lon="-0.50366529"><ele>87.0</ele><time>2022-11-01T12:28:50.0000000+00:00</time></trkpt><trkpt lat="39.52085475" lon="-0.50366529"><ele>87.0</ele><time>2022-11-01T12:28:51.0000000+00:00</time></trkpt><trkpt lat="39.52085475" lon="-0.50366529"><ele>87.0</ele><time>2022-11-01T12:28:52.0000000+00:00</time></trkpt><trkpt lat="39.52085475" lon="-0.50366529"><ele>87.0</ele><time>2022-11-01T12:28:53.0000000+00:00</time></trkpt><trkpt lat="39.52085475" lon="-0.50366529"><ele>87.0</ele><time>2022-11-01T12:28:54.0000000+00:00</time></trkpt><trkpt lat="39.52085475" lon="-0.50366529"><ele>87.0</ele><time>2022-11-01T12:28:55.0000000+00:00</time></trkpt><trkpt lat="39.52085475" lon="-0.50366529"><ele>87.0</ele><time>2022-11-01T12:28:56.0000000+00:00</time></trkpt><trkpt lat="39.52085475" lon="-0.50366529"><ele>87.0</ele><time>2022-11-01T12:28:57.0000000+00:00</time></trkpt><trkpt lat="39.52085475" lon="-0.50366529"><ele>87.0</ele><time>2022-11-01T12:28:58.0000000+00:00</time></trkpt><trkpt lat="39.52085475" lon="-0.50366529"><ele>87.0</ele><time>2022-11-01T12:28:59.0000000+00:00</time></trkpt><trkpt lat="39.52085475" lon="-0.50366529"><ele>87.0</ele><time>2022-11-01T12:29:00.0000000+00:00</time></trkpt><trkpt lat="39.52085475" lon="-0.50366529"><ele>87.0</ele><time>2022-11-01T12:29:01.0000000+00:00</time></trkpt><trkpt lat="39.52085475" lon="-0.50366529"><ele>87.0</ele><time>2022-11-01T12:29:02.0000000+00:00</time></trkpt><trkpt lat="39.52085475" lon="-0.50366529"><ele>87.0</ele><time>2022-11-01T12:29:03.0000000+00:00</time></trkpt><trkpt lat="39.52085475" lon="-0.50366529"><ele>87.0</ele><time>2022-11-01T12:29:04.0000000+00:00</time></trkpt><trkpt lat="39.52085475" lon="-0.50366529"><ele>87.0</ele><time>2022-11-01T12:29:05.0000000+00:00</time></trkpt><trkpt lat="39.52085475" lon="-0.50366529"><ele>87.0</ele><time>2022-11-01T12:29:06.0000000+00:00</time></trkpt><trkpt lat="39.52085475" lon="-0.50366529"><ele>87.0</ele><time>2022-11-01T12:29:07.0000000+00:00</time></trkpt><trkpt lat="39.52085241" lon="-0.50367225"><ele>87.0</ele><time>2022-11-01T12:29:08.0000000+00:00</time></trkpt><trkpt lat="39.52084998" lon="-0.50367183"><ele>87.0</ele><time>2022-11-01T12:29:09.0000000+00:00</time></trkpt><trkpt lat="39.52084998" lon="-0.50367183"><ele>87.0</ele><time>2022-11-01T12:29:10.0000000+00:00</time></trkpt><trkpt lat="39.52085417" lon="-0.5036699"><ele>87.0</ele><time>2022-11-01T12:29:11.0000000+00:00</time></trkpt><trkpt lat="39.52085643" lon="-0.50366462"><ele>87.0</ele><time>2022-11-01T12:29:12.0000000+00:00</time></trkpt><trkpt lat="39.52085643" lon="-0.50366462"><ele>87.0</ele><time>2022-11-01T12:29:13.0000000+00:00</time></trkpt><trkpt lat="39.52085643" lon="-0.50366462"><ele>87.0</ele><time>2022-11-01T12:29:14.0000000+00:00</time></trkpt><trkpt lat="39.52085643" lon="-0.50366462"><ele>87.0</ele><time>2022-11-01T12:29:15.0000000+00:00</time></trkpt><trkpt lat="39.52085643" lon="-0.50366462"><ele>87.0</ele><time>2022-11-01T12:29:16.0000000+00:00</time></trkpt><trkpt lat="39.52085643" lon="-0.50366462"><ele>87.0</ele><time>2022-11-01T12:29:17.0000000+00:00</time></trkpt><trkpt lat="39.52085643" lon="-0.50366462"><ele>87.0</ele><time>2022-11-01T12:29:18.0000000+00:00</time></trkpt><trkpt lat="39.52085643" lon="-0.50366462"><ele>87.0</ele><time>2022-11-01T12:29:19.0000000+00:00</time></trkpt><trkpt lat="39.52085643" lon="-0.50366462"><ele>87.0</ele><time>2022-11-01T12:29:20.0000000+00:00</time></trkpt><trkpt lat="39.52085643" lon="-0.50366462"><ele>87.0</ele><time>2022-11-01T12:29:21.0000000+00:00</time></trkpt><trkpt lat="39.52085643" lon="-0.50366462"><ele>87.0</ele><time>2022-11-01T12:29:22.0000000+00:00</time></trkpt><trkpt lat="39.52085643" lon="-0.50366462"><ele>87.0</ele><time>2022-11-01T12:29:23.0000000+00:00</time></trkpt><trkpt lat="39.52085643" lon="-0.50366462"><ele>87.0</ele><time>2022-11-01T12:29:24.0000000+00:00</time></trkpt><trkpt lat="39.52085643" lon="-0.50366462"><ele>87.0</ele><time>2022-11-01T12:29:25.0000000+00:00</time></trkpt><trkpt lat="39.52085643" lon="-0.50366462"><ele>87.0</ele><time>2022-11-01T12:29:26.0000000+00:00</time></trkpt><trkpt lat="39.52085643" lon="-0.50366462"><ele>87.0</ele><time>2022-11-01T12:29:27.0000000+00:00</time></trkpt><trkpt lat="39.52085643" lon="-0.50366462"><ele>87.0</ele><time>2022-11-01T12:29:28.0000000+00:00</time></trkpt><trkpt lat="39.52085643" lon="-0.50366462"><ele>87.0</ele><time>2022-11-01T12:29:29.0000000+00:00</time></trkpt><trkpt lat="39.52085643" lon="-0.50366462"><ele>87.0</ele><time>2022-11-01T12:29:30.0000000+00:00</time></trkpt><trkpt lat="39.52085643" lon="-0.50366462"><ele>87.0</ele><time>2022-11-01T12:29:31.0000000+00:00</time></trkpt><trkpt lat="39.52085643" lon="-0.50366462"><ele>87.0</ele><time>2022-11-01T12:29:32.0000000+00:00</time></trkpt><trkpt lat="39.52085643" lon="-0.50366462"><ele>87.0</ele><time>2022-11-01T12:29:33.0000000+00:00</time></trkpt><trkpt lat="39.52085786" lon="-0.50367175"><ele>87.0</ele><time>2022-11-01T12:29:34.0000000+00:00</time></trkpt><trkpt lat="39.52085735" lon="-0.50367468"><ele>87.0</ele><time>2022-11-01T12:29:35.0000000+00:00</time></trkpt><trkpt lat="39.52085735" lon="-0.50367468"><ele>87.0</ele><time>2022-11-01T12:29:36.0000000+00:00</time></trkpt><trkpt lat="39.52085735" lon="-0.50367468"><ele>87.0</ele><time>2022-11-01T12:29:37.0000000+00:00</time></trkpt><trkpt lat="39.52085735" lon="-0.50367468"><ele>87.0</ele><time>2022-11-01T12:29:38.0000000+00:00</time></trkpt><trkpt lat="39.52085735" lon="-0.50367468"><ele>87.0</ele><time>2022-11-01T12:29:39.0000000+00:00</time></trkpt><trkpt lat="39.52085677" lon="-0.50367652"><ele>87.0</ele><time>2022-11-01T12:29:40.0000000+00:00</time></trkpt><trkpt lat="39.52085652" lon="-0.50367326"><ele>87.0</ele><time>2022-11-01T12:29:41.0000000+00:00</time></trkpt><trkpt lat="39.52085652" lon="-0.50367326"><ele>87.0</ele><time>2022-11-01T12:29:42.0000000+00:00</time></trkpt><trkpt lat="39.52085652" lon="-0.50367326"><ele>87.0</ele><time>2022-11-01T12:29:43.0000000+00:00</time></trkpt><trkpt lat="39.52085652" lon="-0.50367326"><ele>87.0</ele><time>2022-11-01T12:29:44.0000000+00:00</time></trkpt><trkpt lat="39.52085652" lon="-0.50367326"><ele>87.0</ele><time>2022-11-01T12:29:45.0000000+00:00</time></trkpt><trkpt lat="39.52085652" lon="-0.50367326"><ele>87.0</ele><time>2022-11-01T12:29:46.0000000+00:00</time></trkpt><trkpt lat="39.52085652" lon="-0.50367326"><ele>87.0</ele><time>2022-11-01T12:29:47.0000000+00:00</time></trkpt><trkpt lat="39.52085652" lon="-0.50367326"><ele>87.0</ele><time>2022-11-01T12:29:48.0000000+00:00</time></trkpt><trkpt lat="39.52085618" lon="-0.50367678"><ele>87.0</ele><time>2022-11-01T12:29:49.0000000+00:00</time></trkpt><trkpt lat="39.52085517" lon="-0.50367485"><ele>87.0</ele><time>2022-11-01T12:29:50.0000000+00:00</time></trkpt><trkpt lat="39.52085517" lon="-0.50367485"><ele>87.0</ele><time>2022-11-01T12:29:51.0000000+00:00</time></trkpt><trkpt lat="39.52085517" lon="-0.50367485"><ele>87.0</ele><time>2022-11-01T12:29:52.0000000+00:00</time></trkpt><trkpt lat="39.52085517" lon="-0.50367485"><ele>87.0</ele><time>2022-11-01T12:29:53.0000000+00:00</time></trkpt><trkpt lat="39.52085517" lon="-0.50367485"><ele>87.0</ele><time>2022-11-01T12:29:54.0000000+00:00</time></trkpt><trkpt lat="39.52085517" lon="-0.50367485"><ele>87.0</ele><time>2022-11-01T12:29:55.0000000+00:00</time></trkpt><trkpt lat="39.52085517" lon="-0.50367485"><ele>87.0</ele><time>2022-11-01T12:29:56.0000000+00:00</time></trkpt><trkpt lat="39.52085517" lon="-0.50367485"><ele>87.0</ele><time>2022-11-01T12:29:57.0000000+00:00</time></trkpt><trkpt lat="39.52085517" lon="-0.50367485"><ele>87.0</ele><time>2022-11-01T12:29:58.0000000+00:00</time></trkpt><trkpt lat="39.52085517" lon="-0.50367485"><ele>87.0</ele><time>2022-11-01T12:29:59.0000000+00:00</time></trkpt><trkpt lat="39.52085517" lon="-0.50367485"><ele>87.0</ele><time>2022-11-01T12:30:00.0000000+00:00</time></trkpt><trkpt lat="39.52085517" lon="-0.50367485"><ele>87.0</ele><time>2022-11-01T12:30:01.0000000+00:00</time></trkpt><trkpt lat="39.52085517" lon="-0.50367485"><ele>87.0</ele><time>2022-11-01T12:30:02.0000000+00:00</time></trkpt><trkpt lat="39.52085517" lon="-0.50367485"><ele>87.0</ele><time>2022-11-01T12:30:03.0000000+00:00</time></trkpt><trkpt lat="39.52085517" lon="-0.50367485"><ele>87.0</ele><time>2022-11-01T12:30:04.0000000+00:00</time></trkpt><trkpt lat="39.52085517" lon="-0.50367485"><ele>87.0</ele><time>2022-11-01T12:30:05.0000000+00:00</time></trkpt><trkpt lat="39.52085517" lon="-0.50367485"><ele>87.0</ele><time>2022-11-01T12:30:06.0000000+00:00</time></trkpt><trkpt lat="39.52085517" lon="-0.50367485"><ele>87.0</ele><time>2022-11-01T12:30:07.0000000+00:00</time></trkpt><trkpt lat="39.52085517" lon="-0.50367485"><ele>87.0</ele><time>2022-11-01T12:30:08.0000000+00:00</time></trkpt><trkpt lat="39.52085517" lon="-0.50367485"><ele>87.0</ele><time>2022-11-01T12:30:09.0000000+00:00</time></trkpt><trkpt lat="39.52085517" lon="-0.50367485"><ele>87.0</ele><time>2022-11-01T12:30:10.0000000+00:00</time></trkpt><trkpt lat="39.52085517" lon="-0.50367485"><ele>87.0</ele><time>2022-11-01T12:30:11.0000000+00:00</time></trkpt><trkpt lat="39.52085517" lon="-0.50367485"><ele>87.0</ele><time>2022-11-01T12:30:12.0000000+00:00</time></trkpt><trkpt lat="39.52085517" lon="-0.50367485"><ele>87.0</ele><time>2022-11-01T12:30:13.0000000+00:00</time></trkpt><trkpt lat="39.52085517" lon="-0.50367485"><ele>87.0</ele><time>2022-11-01T12:30:14.0000000+00:00</time></trkpt><trkpt lat="39.52085517" lon="-0.50367485"><ele>87.0</ele><time>2022-11-01T12:30:15.0000000+00:00</time></trkpt><trkpt lat="39.52085224" lon="-0.50368206"><ele>87.0</ele><time>2022-11-01T12:30:16.0000000+00:00</time></trkpt><trkpt lat="39.52085174" lon="-0.50368558"><ele>87.0</ele><time>2022-11-01T12:30:17.0000000+00:00</time></trkpt><trkpt lat="39.52085174" lon="-0.50368558"><ele>87.0</ele><time>2022-11-01T12:30:18.0000000+00:00</time></trkpt><trkpt lat="39.52085174" lon="-0.50368558"><ele>87.0</ele><time>2022-11-01T12:30:19.0000000+00:00</time></trkpt><trkpt lat="39.52085174" lon="-0.50368558"><ele>87.0</ele><time>2022-11-01T12:30:20.0000000+00:00</time></trkpt><trkpt lat="39.52085174" lon="-0.50368558"><ele>87.0</ele><time>2022-11-01T12:30:21.0000000+00:00</time></trkpt><trkpt lat="39.52085174" lon="-0.50368558"><ele>87.0</ele><time>2022-11-01T12:30:22.0000000+00:00</time></trkpt><trkpt lat="39.52085174" lon="-0.50368558"><ele>87.0</ele><time>2022-11-01T12:30:23.0000000+00:00</time></trkpt><trkpt lat="39.52085174" lon="-0.50368558"><ele>87.0</ele><time>2022-11-01T12:30:24.0000000+00:00</time></trkpt><trkpt lat="39.52085174" lon="-0.50368558"><ele>87.0</ele><time>2022-11-01T12:30:25.0000000+00:00</time></trkpt><trkpt lat="39.52085174" lon="-0.50368558"><ele>87.0</ele><time>2022-11-01T12:30:26.0000000+00:00</time></trkpt><trkpt lat="39.52085174" lon="-0.50368558"><ele>87.0</ele><time>2022-11-01T12:30:27.0000000+00:00</time></trkpt><trkpt lat="39.52085174" lon="-0.50368558"><ele>87.0</ele><time>2022-11-01T12:30:28.0000000+00:00</time></trkpt><trkpt lat="39.52085174" lon="-0.50368558"><ele>87.0</ele><time>2022-11-01T12:30:29.0000000+00:00</time></trkpt><trkpt lat="39.52085174" lon="-0.50368558"><ele>87.0</ele><time>2022-11-01T12:30:30.0000000+00:00</time></trkpt><trkpt lat="39.52085174" lon="-0.50368558"><ele>87.0</ele><time>2022-11-01T12:30:31.0000000+00:00</time></trkpt><trkpt lat="39.52085165" lon="-0.50368382"><ele>87.0</ele><time>2022-11-01T12:30:32.0000000+00:00</time></trkpt><trkpt lat="39.52085157" lon="-0.50368063"><ele>87.0</ele><time>2022-11-01T12:30:33.0000000+00:00</time></trkpt><trkpt lat="39.52085157" lon="-0.50368063"><ele>87.0</ele><time>2022-11-01T12:30:34.0000000+00:00</time></trkpt><trkpt lat="39.52085157" lon="-0.50368063"><ele>87.0</ele><time>2022-11-01T12:30:35.0000000+00:00</time></trkpt><trkpt lat="39.52085157" lon="-0.50368063"><ele>87.0</ele><time>2022-11-01T12:30:36.0000000+00:00</time></trkpt><trkpt lat="39.52085157" lon="-0.50368063"><ele>87.0</ele><time>2022-11-01T12:30:37.0000000+00:00</time></trkpt><trkpt lat="39.52085157" lon="-0.50368063"><ele>87.0</ele><time>2022-11-01T12:30:38.0000000+00:00</time></trkpt><trkpt lat="39.52085157" lon="-0.50368063"><ele>87.0</ele><time>2022-11-01T12:30:39.0000000+00:00</time></trkpt><trkpt lat="39.52085157" lon="-0.50368063"><ele>87.0</ele><time>2022-11-01T12:30:40.0000000+00:00</time></trkpt><trkpt lat="39.52085157" lon="-0.50368063"><ele>87.0</ele><time>2022-11-01T12:30:41.0000000+00:00</time></trkpt><trkpt lat="39.52085157" lon="-0.50368063"><ele>87.0</ele><time>2022-11-01T12:30:42.0000000+00:00</time></trkpt><trkpt lat="39.52085157" lon="-0.50368063"><ele>87.0</ele><time>2022-11-01T12:30:43.0000000+00:00</time></trkpt><trkpt lat="39.52085157" lon="-0.50368063"><ele>87.0</ele><time>2022-11-01T12:30:44.0000000+00:00</time></trkpt><trkpt lat="39.52085157" lon="-0.50368063"><ele>87.0</ele><time>2022-11-01T12:30:45.0000000+00:00</time></trkpt><trkpt lat="39.52085157" lon="-0.50368063"><ele>87.0</ele><time>2022-11-01T12:30:46.0000000+00:00</time></trkpt><trkpt lat="39.52085157" lon="-0.50368063"><ele>87.0</ele><time>2022-11-01T12:30:47.0000000+00:00</time></trkpt><trkpt lat="39.52085157" lon="-0.50368063"><ele>87.0</ele><time>2022-11-01T12:30:48.0000000+00:00</time></trkpt><trkpt lat="39.52085157" lon="-0.50368063"><ele>87.0</ele><time>2022-11-01T12:30:49.0000000+00:00</time></trkpt><trkpt lat="39.52085157" lon="-0.50368063"><ele>87.0</ele><time>2022-11-01T12:30:50.0000000+00:00</time></trkpt><trkpt lat="39.52085157" lon="-0.50368063"><ele>87.0</ele><time>2022-11-01T12:30:51.0000000+00:00</time></trkpt><trkpt lat="39.52085157" lon="-0.50368063"><ele>87.0</ele><time>2022-11-01T12:30:52.0000000+00:00</time></trkpt><trkpt lat="39.52085157" lon="-0.50368063"><ele>87.0</ele><time>2022-11-01T12:30:53.0000000+00:00</time></trkpt><trkpt lat="39.52085157" lon="-0.50368063"><ele>87.0</ele><time>2022-11-01T12:30:54.0000000+00:00</time></trkpt><trkpt lat="39.52085157" lon="-0.50368063"><ele>87.0</ele><time>2022-11-01T12:30:55.0000000+00:00</time></trkpt><trkpt lat="39.52085157" lon="-0.50368063"><ele>87.0</ele><time>2022-11-01T12:30:56.0000000+00:00</time></trkpt><trkpt lat="39.52085157" lon="-0.50368063"><ele>87.0</ele><time>2022-11-01T12:30:57.0000000+00:00</time></trkpt><trkpt lat="39.52085157" lon="-0.50368063"><ele>87.0</ele><time>2022-11-01T12:30:58.0000000+00:00</time></trkpt><trkpt lat="39.52085157" lon="-0.50368063"><ele>87.0</ele><time>2022-11-01T12:30:59.0000000+00:00</time></trkpt><trkpt lat="39.52085157" lon="-0.50368063"><ele>87.0</ele><time>2022-11-01T12:31:00.0000000+00:00</time></trkpt><trkpt lat="39.52085157" lon="-0.50368063"><ele>87.0</ele><time>2022-11-01T12:31:01.0000000+00:00</time></trkpt><trkpt lat="39.52085157" lon="-0.50368063"><ele>87.0</ele><time>2022-11-01T12:31:02.0000000+00:00</time></trkpt><trkpt lat="39.52085157" lon="-0.50368063"><ele>87.0</ele><time>2022-11-01T12:31:03.0000000+00:00</time></trkpt><trkpt lat="39.52085157" lon="-0.50368063"><ele>87.0</ele><time>2022-11-01T12:31:04.0000000+00:00</time></trkpt><trkpt lat="39.52085299" lon="-0.50368683"><ele>87.0</ele><time>2022-11-01T12:31:05.0000000+00:00</time></trkpt><trkpt lat="39.52085224" lon="-0.50369061"><ele>87.0</ele><time>2022-11-01T12:31:06.0000000+00:00</time></trkpt><trkpt lat="39.52085224" lon="-0.50369061"><ele>87.0</ele><time>2022-11-01T12:31:07.0000000+00:00</time></trkpt><trkpt lat="39.52085224" lon="-0.50369061"><ele>87.0</ele><time>2022-11-01T12:31:08.0000000+00:00</time></trkpt><trkpt lat="39.52085224" lon="-0.50369061"><ele>87.0</ele><time>2022-11-01T12:31:09.0000000+00:00</time></trkpt><trkpt lat="39.52085224" lon="-0.50369061"><ele>87.0</ele><time>2022-11-01T12:31:10.0000000+00:00</time></trkpt><trkpt lat="39.52085224" lon="-0.50369061"><ele>87.0</ele><time>2022-11-01T12:31:11.0000000+00:00</time></trkpt><trkpt lat="39.52085224" lon="-0.50369061"><ele>87.0</ele><time>2022-11-01T12:31:12.0000000+00:00</time></trkpt><trkpt lat="39.52085224" lon="-0.50369061"><ele>87.0</ele><time>2022-11-01T12:31:13.0000000+00:00</time></trkpt><trkpt lat="39.52085224" lon="-0.50369061"><ele>87.0</ele><time>2022-11-01T12:31:14.0000000+00:00</time></trkpt><trkpt lat="39.52085224" lon="-0.50369061"><ele>87.0</ele><time>2022-11-01T12:31:15.0000000+00:00</time></trkpt><trkpt lat="39.52085224" lon="-0.50369061"><ele>87.0</ele><time>2022-11-01T12:31:16.0000000+00:00</time></trkpt><trkpt lat="39.52085224" lon="-0.50369061"><ele>87.0</ele><time>2022-11-01T12:31:17.0000000+00:00</time></trkpt><trkpt lat="39.52085224" lon="-0.50369061"><ele>87.0</ele><time>2022-11-01T12:31:18.0000000+00:00</time></trkpt><trkpt lat="39.52085224" lon="-0.50369061"><ele>87.0</ele><time>2022-11-01T12:31:19.0000000+00:00</time></trkpt><trkpt lat="39.52085224" lon="-0.50369061"><ele>87.0</ele><time>2022-11-01T12:31:20.0000000+00:00</time></trkpt><trkpt lat="39.52085224" lon="-0.50369061"><ele>87.0</ele><time>2022-11-01T12:31:21.0000000+00:00</time></trkpt><trkpt lat="39.52085224" lon="-0.50369061"><ele>87.0</ele><time>2022-11-01T12:31:22.0000000+00:00</time></trkpt><trkpt lat="39.52085224" lon="-0.50369061"><ele>87.0</ele><time>2022-11-01T12:31:23.0000000+00:00</time></trkpt><trkpt lat="39.52085224" lon="-0.50369061"><ele>87.0</ele><time>2022-11-01T12:31:24.0000000+00:00</time></trkpt><trkpt lat="39.52085224" lon="-0.50369061"><ele>87.0</ele><time>2022-11-01T12:31:25.0000000+00:00</time></trkpt><trkpt lat="39.52085224" lon="-0.50369061"><ele>87.0</ele><time>2022-11-01T12:31:26.0000000+00:00</time></trkpt><trkpt lat="39.52085224" lon="-0.50369061"><ele>87.0</ele><time>2022-11-01T12:31:27.0000000+00:00</time></trkpt><trkpt lat="39.52085224" lon="-0.50369061"><ele>87.0</ele><time>2022-11-01T12:31:28.0000000+00:00</time></trkpt><trkpt lat="39.52085224" lon="-0.50369061"><ele>87.0</ele><time>2022-11-01T12:31:29.0000000+00:00</time></trkpt><trkpt lat="39.52085635" lon="-0.50369974"><ele>87.0</ele><time>2022-11-01T12:31:30.0000000+00:00</time></trkpt><trkpt lat="39.52085727" lon="-0.50369622"><ele>87.0</ele><time>2022-11-01T12:31:31.0000000+00:00</time></trkpt><trkpt lat="39.52085727" lon="-0.50369622"><ele>87.0</ele><time>2022-11-01T12:31:32.0000000+00:00</time></trkpt><trkpt lat="39.52085727" lon="-0.50369622"><ele>87.0</ele><time>2022-11-01T12:31:33.0000000+00:00</time></trkpt><trkpt lat="39.52085727" lon="-0.50369622"><ele>87.0</ele><time>2022-11-01T12:31:34.0000000+00:00</time></trkpt><trkpt lat="39.52085727" lon="-0.50369622"><ele>87.0</ele><time>2022-11-01T12:31:35.0000000+00:00</time></trkpt><trkpt lat="39.52085727" lon="-0.50369622"><ele>87.0</ele><time>2022-11-01T12:31:36.0000000+00:00</time></trkpt><trkpt lat="39.52085727" lon="-0.50369622"><ele>87.0</ele><time>2022-11-01T12:31:37.0000000+00:00</time></trkpt><trkpt lat="39.52085727" lon="-0.50369622"><ele>87.0</ele><time>2022-11-01T12:31:38.0000000+00:00</time></trkpt><trkpt lat="39.52085727" lon="-0.50369622"><ele>87.0</ele><time>2022-11-01T12:31:39.0000000+00:00</time></trkpt><trkpt lat="39.52085727" lon="-0.50369622"><ele>87.0</ele><time>2022-11-01T12:31:40.0000000+00:00</time></trkpt><trkpt lat="39.52085727" lon="-0.50369622"><ele>87.0</ele><time>2022-11-01T12:31:41.0000000+00:00</time></trkpt><trkpt lat="39.52085727" lon="-0.50369622"><ele>87.0</ele><time>2022-11-01T12:31:42.0000000+00:00</time></trkpt><trkpt lat="39.52085727" lon="-0.50369622"><ele>87.0</ele><time>2022-11-01T12:31:43.0000000+00:00</time></trkpt><trkpt lat="39.52085727" lon="-0.50369622"><ele>87.0</ele><time>2022-11-01T12:31:44.0000000+00:00</time></trkpt><trkpt lat="39.52085727" lon="-0.50369622"><ele>87.0</ele><time>2022-11-01T12:31:45.0000000+00:00</time></trkpt><trkpt lat="39.52085727" lon="-0.50369622"><ele>87.0</ele><time>2022-11-01T12:31:46.0000000+00:00</time></trkpt><trkpt lat="39.52085727" lon="-0.50369622"><ele>87.0</ele><time>2022-11-01T12:31:47.0000000+00:00</time></trkpt><trkpt lat="39.52085727" lon="-0.50369622"><ele>87.0</ele><time>2022-11-01T12:31:48.0000000+00:00</time></trkpt><trkpt lat="39.52085727" lon="-0.50369622"><ele>87.0</ele><time>2022-11-01T12:31:49.0000000+00:00</time></trkpt><trkpt lat="39.52085727" lon="-0.50369622"><ele>87.0</ele><time>2022-11-01T12:31:50.0000000+00:00</time></trkpt><trkpt lat="39.52085727" lon="-0.50369622"><ele>87.0</ele><time>2022-11-01T12:31:51.0000000+00:00</time></trkpt><trkpt lat="39.52085727" lon="-0.50369622"><ele>87.0</ele><time>2022-11-01T12:31:52.0000000+00:00</time></trkpt><trkpt lat="39.52085727" lon="-0.50369622"><ele>87.0</ele><time>2022-11-01T12:31:53.0000000+00:00</time></trkpt><trkpt lat="39.52085727" lon="-0.50369622"><ele>87.0</ele><time>2022-11-01T12:31:54.0000000+00:00</time></trkpt><trkpt lat="39.52085727" lon="-0.50369622"><ele>87.0</ele><time>2022-11-01T12:31:55.0000000+00:00</time></trkpt><trkpt lat="39.52085727" lon="-0.50369622"><ele>87.0</ele><time>2022-11-01T12:31:56.0000000+00:00</time></trkpt><trkpt lat="39.52085727" lon="-0.50369622"><ele>87.0</ele><time>2022-11-01T12:31:57.0000000+00:00</time></trkpt><trkpt lat="39.52085727" lon="-0.50369622"><ele>87.0</ele><time>2022-11-01T12:31:58.0000000+00:00</time></trkpt><trkpt lat="39.52085727" lon="-0.50369622"><ele>87.0</ele><time>2022-11-01T12:31:59.0000000+00:00</time></trkpt><trkpt lat="39.52085727" lon="-0.50369622"><ele>87.0</ele><time>2022-11-01T12:32:00.0000000+00:00</time></trkpt><trkpt lat="39.52085727" lon="-0.50369622"><ele>87.0</ele><time>2022-11-01T12:32:01.0000000+00:00</time></trkpt><trkpt lat="39.52085727" lon="-0.50369622"><ele>87.0</ele><time>2022-11-01T12:32:02.0000000+00:00</time></trkpt><trkpt lat="39.52085727" lon="-0.50369622"><ele>87.0</ele><time>2022-11-01T12:32:03.0000000+00:00</time></trkpt><trkpt lat="39.52085727" lon="-0.50369622"><ele>87.0</ele><time>2022-11-01T12:32:04.0000000+00:00</time></trkpt><trkpt lat="39.52085727" lon="-0.50369622"><ele>87.0</ele><time>2022-11-01T12:32:05.0000000+00:00</time></trkpt><trkpt lat="39.52085727" lon="-0.50369622"><ele>87.0</ele><time>2022-11-01T12:32:06.0000000+00:00</time></trkpt><trkpt lat="39.52085727" lon="-0.50369622"><ele>87.0</ele><time>2022-11-01T12:32:07.0000000+00:00</time></trkpt><trkpt lat="39.52085727" lon="-0.50369622"><ele>87.0</ele><time>2022-11-01T12:32:08.0000000+00:00</time></trkpt><trkpt lat="39.52085727" lon="-0.50369622"><ele>87.0</ele><time>2022-11-01T12:32:09.0000000+00:00</time></trkpt><trkpt lat="39.52085727" lon="-0.50369622"><ele>87.0</ele><time>2022-11-01T12:32:10.0000000+00:00</time></trkpt><trkpt lat="39.52085727" lon="-0.50369622"><ele>87.0</ele><time>2022-11-01T12:32:11.0000000+00:00</time></trkpt><trkpt lat="39.52085727" lon="-0.50369622"><ele>87.0</ele><time>2022-11-01T12:32:12.0000000+00:00</time></trkpt><trkpt lat="39.52085727" lon="-0.50369622"><ele>87.0</ele><time>2022-11-01T12:32:13.0000000+00:00</time></trkpt><trkpt lat="39.52085727" lon="-0.50369622"><ele>87.0</ele><time>2022-11-01T12:32:14.0000000+00:00</time></trkpt><trkpt lat="39.52085727" lon="-0.50369622"><ele>87.0</ele><time>2022-11-01T12:32:15.0000000+00:00</time></trkpt><trkpt lat="39.52085727" lon="-0.50369622"><ele>87.0</ele><time>2022-11-01T12:32:16.0000000+00:00</time></trkpt><trkpt lat="39.52085727" lon="-0.50369622"><ele>87.0</ele><time>2022-11-01T12:32:17.0000000+00:00</time></trkpt><trkpt lat="39.52085727" lon="-0.50369622"><ele>87.0</ele><time>2022-11-01T12:32:18.0000000+00:00</time></trkpt><trkpt lat="39.52085727" lon="-0.50369622"><ele>87.0</ele><time>2022-11-01T12:32:19.0000000+00:00</time></trkpt><trkpt lat="39.52085727" lon="-0.50369622"><ele>87.0</ele><time>2022-11-01T12:32:20.0000000+00:00</time></trkpt><trkpt lat="39.52085727" lon="-0.50369622"><ele>87.0</ele><time>2022-11-01T12:32:21.0000000+00:00</time></trkpt><trkpt lat="39.52085727" lon="-0.50369622"><ele>87.0</ele><time>2022-11-01T12:32:22.0000000+00:00</time></trkpt><trkpt lat="39.52085727" lon="-0.50369622"><ele>87.0</ele><time>2022-11-01T12:32:23.0000000+00:00</time></trkpt><trkpt lat="39.52085727" lon="-0.50369622"><ele>87.0</ele><time>2022-11-01T12:32:24.0000000+00:00</time></trkpt><trkpt lat="39.52085727" lon="-0.50369622"><ele>87.0</ele><time>2022-11-01T12:32:25.0000000+00:00</time></trkpt><trkpt lat="39.52085685" lon="-0.50369446"><ele>87.0</ele><time>2022-11-01T12:32:26.0000000+00:00</time></trkpt><trkpt lat="39.52085593" lon="-0.50368717"><ele>87.0</ele><time>2022-11-01T12:32:27.0000000+00:00</time></trkpt><trkpt lat="39.52084956" lon="-0.50368214"><ele>87.0</ele><time>2022-11-01T12:32:28.0000000+00:00</time></trkpt><trkpt lat="39.52084503" lon="-0.50368373"><ele>87.0</ele><time>2022-11-01T12:32:29.0000000+00:00</time></trkpt><trkpt lat="39.52084503" lon="-0.50368373"><ele>87.0</ele><time>2022-11-01T12:32:30.0000000+00:00</time></trkpt><trkpt lat="39.52084503" lon="-0.50368373"><ele>87.0</ele><time>2022-11-01T12:32:31.0000000+00:00</time></trkpt><trkpt lat="39.52084436" lon="-0.50369019"><ele>87.0</ele><time>2022-11-01T12:32:32.0000000+00:00</time></trkpt><trkpt lat="39.52084176" lon="-0.50369237"><ele>87.0</ele><time>2022-11-01T12:32:33.0000000+00:00</time></trkpt><trkpt lat="39.52084176" lon="-0.50369237"><ele>87.0</ele><time>2022-11-01T12:32:34.0000000+00:00</time></trkpt><trkpt lat="39.52084176" lon="-0.50369237"><ele>87.0</ele><time>2022-11-01T12:32:35.0000000+00:00</time></trkpt><trkpt lat="39.52084176" lon="-0.50369237"><ele>87.0</ele><time>2022-11-01T12:32:36.0000000+00:00</time></trkpt><trkpt lat="39.52084176" lon="-0.50369237"><ele>87.0</ele><time>2022-11-01T12:32:37.0000000+00:00</time></trkpt><trkpt lat="39.52084176" lon="-0.50369237"><ele>87.0</ele><time>2022-11-01T12:32:38.0000000+00:00</time></trkpt><trkpt lat="39.52084176" lon="-0.50369237"><ele>87.0</ele><time>2022-11-01T12:32:39.0000000+00:00</time></trkpt><trkpt lat="39.52084176" lon="-0.50369237"><ele>87.0</ele><time>2022-11-01T12:32:40.0000000+00:00</time></trkpt><trkpt lat="39.52084176" lon="-0.50369237"><ele>87.0</ele><time>2022-11-01T12:32:41.0000000+00:00</time></trkpt><trkpt lat="39.52084176" lon="-0.50369237"><ele>87.0</ele><time>2022-11-01T12:32:42.0000000+00:00</time></trkpt><trkpt lat="39.52084176" lon="-0.50369237"><ele>87.0</ele><time>2022-11-01T12:32:43.0000000+00:00</time></trkpt><trkpt lat="39.52084176" lon="-0.50369237"><ele>87.0</ele><time>2022-11-01T12:32:44.0000000+00:00</time></trkpt><trkpt lat="39.52084176" lon="-0.50369237"><ele>87.0</ele><time>2022-11-01T12:32:45.0000000+00:00</time></trkpt><trkpt lat="39.52084218" lon="-0.50369069"><ele>87.0</ele><time>2022-11-01T12:32:46.0000000+00:00</time></trkpt><trkpt lat="39.52084302" lon="-0.50368759"><ele>87.0</ele><time>2022-11-01T12:32:47.0000000+00:00</time></trkpt><trkpt lat="39.52084344" lon="-0.50368985"><ele>87.0</ele><time>2022-11-01T12:32:48.0000000+00:00</time></trkpt><trkpt lat="39.52084478" lon="-0.50368968"><ele>87.0</ele><time>2022-11-01T12:32:49.0000000+00:00</time></trkpt><trkpt lat="39.52085073" lon="-0.50368558"><ele>87.0</ele><time>2022-11-01T12:32:50.0000000+00:00</time></trkpt><trkpt lat="39.52085643" lon="-0.50368256"><ele>87.0</ele><time>2022-11-01T12:32:51.0000000+00:00</time></trkpt><trkpt lat="39.52085794" lon="-0.50368113"><ele>87.0</ele><time>2022-11-01T12:32:52.0000000+00:00</time></trkpt><trkpt lat="39.52086289" lon="-0.50368214"><ele>87.0</ele><time>2022-11-01T12:32:53.0000000+00:00</time></trkpt><trkpt lat="39.52086976" lon="-0.50368122"><ele>87.0</ele><time>2022-11-01T12:32:54.0000000+00:00</time></trkpt><trkpt lat="39.52087185" lon="-0.50367954"><ele>87.0</ele><time>2022-11-01T12:32:55.0000000+00:00</time></trkpt><trkpt lat="39.52087697" lon="-0.50367736"><ele>87.0</ele><time>2022-11-01T12:32:56.0000000+00:00</time></trkpt><trkpt lat="39.52088853" lon="-0.50367594"><ele>87.0</ele><time>2022-11-01T12:32:57.0000000+00:00</time></trkpt><trkpt lat="39.5208991" lon="-0.50367083"><ele>87.0</ele><time>2022-11-01T12:32:58.0000000+00:00</time></trkpt><trkpt lat="39.52090764" lon="-0.50366655"><ele>87.0</ele><time>2022-11-01T12:32:59.0000000+00:00</time></trkpt><trkpt lat="39.52091703" lon="-0.50366487"><ele>87.0</ele><time>2022-11-01T12:33:00.0000000+00:00</time></trkpt><trkpt lat="39.52092734" lon="-0.50366244"><ele>87.0</ele><time>2022-11-01T12:33:01.0000000+00:00</time></trkpt><trkpt lat="39.52093857" lon="-0.50365741"><ele>87.0</ele><time>2022-11-01T12:33:02.0000000+00:00</time></trkpt><trkpt lat="39.52095492" lon="-0.50365096"><ele>87.0</ele><time>2022-11-01T12:33:03.0000000+00:00</time></trkpt><trkpt lat="39.52097001" lon="-0.50364518"><ele>87.0</ele><time>2022-11-01T12:33:04.0000000+00:00</time></trkpt><trkpt lat="39.52098384" lon="-0.50364208"><ele>87.0</ele><time>2022-11-01T12:33:05.0000000+00:00</time></trkpt><trkpt lat="39.52099314" lon="-0.50363864"><ele>89.4</ele><time>2022-11-01T12:33:06.0000000+00:00</time></trkpt><trkpt lat="39.5210037" lon="-0.50363646"><ele>90.8</ele><time>2022-11-01T12:33:07.0000000+00:00</time></trkpt><trkpt lat="39.52101653" lon="-0.50363747"><ele>91.6</ele><time>2022-11-01T12:33:08.0000000+00:00</time></trkpt><trkpt lat="39.52102767" lon="-0.50363881"><ele>92.0</ele><time>2022-11-01T12:33:09.0000000+00:00</time></trkpt><trkpt lat="39.52104008" lon="-0.50364107"><ele>92.2</ele><time>2022-11-01T12:33:10.0000000+00:00</time></trkpt><trkpt lat="39.52105584" lon="-0.50364501"><ele>92.2</ele><time>2022-11-01T12:33:11.0000000+00:00</time></trkpt><trkpt lat="39.52106522" lon="-0.50364509"><ele>92.4</ele><time>2022-11-01T12:33:12.0000000+00:00</time></trkpt><trkpt lat="39.52107335" lon="-0.50364367"><ele>92.4</ele><time>2022-11-01T12:33:13.0000000+00:00</time></trkpt><trkpt lat="39.52108886" lon="-0.503644"><ele>92.4</ele><time>2022-11-01T12:33:14.0000000+00:00</time></trkpt><trkpt lat="39.52109674" lon="-0.5036471"><ele>92.6</ele><time>2022-11-01T12:33:15.0000000+00:00</time></trkpt><trkpt lat="39.52110495" lon="-0.50365247"><ele>92.8</ele><time>2022-11-01T12:33:16.0000000+00:00</time></trkpt><trkpt lat="39.52111644" lon="-0.503658"><ele>93.0</ele><time>2022-11-01T12:33:17.0000000+00:00</time></trkpt><trkpt lat="39.52113261" lon="-0.50366278"><ele>93.0</ele><time>2022-11-01T12:33:18.0000000+00:00</time></trkpt><trkpt lat="39.52114636" lon="-0.5036658"><ele>93.0</ele><time>2022-11-01T12:33:19.0000000+00:00</time></trkpt><trkpt lat="39.52116002" lon="-0.50366504"><ele>93.0</ele><time>2022-11-01T12:33:20.0000000+00:00</time></trkpt><trkpt lat="39.52117427" lon="-0.50366244"><ele>93.2</ele><time>2022-11-01T12:33:21.0000000+00:00</time></trkpt><trkpt lat="39.52118726" lon="-0.50365901"><ele>93.2</ele><time>2022-11-01T12:33:22.0000000+00:00</time></trkpt><trkpt lat="39.52120202" lon="-0.50365649"><ele>93.2</ele><time>2022-11-01T12:33:23.0000000+00:00</time></trkpt><trkpt lat="39.52121652" lon="-0.50365515"><ele>93.2</ele><time>2022-11-01T12:33:24.0000000+00:00</time></trkpt><trkpt lat="39.52123244" lon="-0.50365691"><ele>93.4</ele><time>2022-11-01T12:33:25.0000000+00:00</time></trkpt><trkpt lat="39.52124317" lon="-0.50365884"><ele>93.4</ele><time>2022-11-01T12:33:26.0000000+00:00</time></trkpt><trkpt lat="39.52125298" lon="-0.50366035"><ele>93.6</ele><time>2022-11-01T12:33:27.0000000+00:00</time></trkpt><trkpt lat="39.52126379" lon="-0.50365658"><ele>93.6</ele><time>2022-11-01T12:33:28.0000000+00:00</time></trkpt><trkpt lat="39.52127486" lon="-0.50365004"><ele>93.8</ele><time>2022-11-01T12:33:29.0000000+00:00</time></trkpt><trkpt lat="39.52128424" lon="-0.50364568"><ele>93.8</ele><time>2022-11-01T12:33:30.0000000+00:00</time></trkpt><trkpt lat="39.52129539" lon="-0.50364258"><ele>93.8</ele><time>2022-11-01T12:33:31.0000000+00:00</time></trkpt><trkpt lat="39.52130956" lon="-0.50363453"><ele>94.0</ele><time>2022-11-01T12:33:32.0000000+00:00</time></trkpt><trkpt lat="39.5213171" lon="-0.50362716"><ele>94.2</ele><time>2022-11-01T12:33:33.0000000+00:00</time></trkpt><trkpt lat="39.5213202" lon="-0.50362556"><ele>94.2</ele><time>2022-11-01T12:33:34.0000000+00:00</time></trkpt><trkpt lat="39.5213202" lon="-0.50362556"><ele>94.4</ele><time>2022-11-01T12:33:35.0000000+00:00</time></trkpt><trkpt lat="39.5213202" lon="-0.50362556"><ele>94.4</ele><time>2022-11-01T12:33:36.0000000+00:00</time></trkpt><trkpt lat="39.5213202" lon="-0.50362556"><ele>94.4</ele><time>2022-11-01T12:33:37.0000000+00:00</time></trkpt><trkpt lat="39.52132163" lon="-0.50362959"><ele>94.4</ele><time>2022-11-01T12:33:38.0000000+00:00</time></trkpt><trkpt lat="39.52132708" lon="-0.50363277"><ele>94.4</ele><time>2022-11-01T12:33:39.0000000+00:00</time></trkpt><trkpt lat="39.52133931" lon="-0.50362472"><ele>94.4</ele><time>2022-11-01T12:33:40.0000000+00:00</time></trkpt><trkpt lat="39.5213575" lon="-0.5036062"><ele>94.2</ele><time>2022-11-01T12:33:41.0000000+00:00</time></trkpt><trkpt lat="39.52137401" lon="-0.50358516"><ele>94.0</ele><time>2022-11-01T12:33:42.0000000+00:00</time></trkpt><trkpt lat="39.52138843" lon="-0.5035663"><ele>93.8</ele><time>2022-11-01T12:33:43.0000000+00:00</time></trkpt><trkpt lat="39.52140419" lon="-0.50355457"><ele>93.8</ele><time>2022-11-01T12:33:44.0000000+00:00</time></trkpt><trkpt lat="39.52142037" lon="-0.50355356"><ele>93.6</ele><time>2022-11-01T12:33:45.0000000+00:00</time></trkpt><trkpt lat="39.52143378" lon="-0.50356278"><ele>93.6</ele><time>2022-11-01T12:33:46.0000000+00:00</time></trkpt><trkpt lat="39.52144325" lon="-0.50357326"><ele>93.4</ele><time>2022-11-01T12:33:47.0000000+00:00</time></trkpt><trkpt lat="39.52144333" lon="-0.50358441"><ele>93.2</ele><time>2022-11-01T12:33:48.0000000+00:00</time></trkpt><trkpt lat="39.52143797" lon="-0.50359304"><ele>93.0</ele><time>2022-11-01T12:33:49.0000000+00:00</time></trkpt><trkpt lat="39.52143135" lon="-0.50359522"><ele>92.8</ele><time>2022-11-01T12:33:50.0000000+00:00</time></trkpt><trkpt lat="39.52142104" lon="-0.5035969"><ele>92.8</ele><time>2022-11-01T12:33:51.0000000+00:00</time></trkpt><trkpt lat="39.52141148" lon="-0.50360151"><ele>92.8</ele><time>2022-11-01T12:33:52.0000000+00:00</time></trkpt><trkpt lat="39.52140067" lon="-0.50360452"><ele>92.8</ele><time>2022-11-01T12:33:53.0000000+00:00</time></trkpt><trkpt lat="39.52139002" lon="-0.50360696"><ele>92.8</ele><time>2022-11-01T12:33:54.0000000+00:00</time></trkpt><trkpt lat="39.52137929" lon="-0.50361165"><ele>93.0</ele><time>2022-11-01T12:33:55.0000000+00:00</time></trkpt><trkpt lat="39.52137142" lon="-0.50362305"><ele>93.0</ele><time>2022-11-01T12:33:56.0000000+00:00</time></trkpt><trkpt lat="39.52136781" lon="-0.50364576"><ele>93.0</ele><time>2022-11-01T12:33:57.0000000+00:00</time></trkpt><trkpt lat="39.52136991" lon="-0.50367669"><ele>92.8</ele><time>2022-11-01T12:33:58.0000000+00:00</time></trkpt><trkpt lat="39.52137251" lon="-0.50371642"><ele>92.6</ele><time>2022-11-01T12:33:59.0000000+00:00</time></trkpt><trkpt lat="39.52138424" lon="-0.50376328"><ele>92.6</ele><time>2022-11-01T12:34:00.0000000+00:00</time></trkpt><trkpt lat="39.52140746" lon="-0.50380921"><ele>92.2</ele><time>2022-11-01T12:34:01.0000000+00:00</time></trkpt><trkpt lat="39.52143445" lon="-0.50384265"><ele>92.0</ele><time>2022-11-01T12:34:02.0000000+00:00</time></trkpt><trkpt lat="39.52146378" lon="-0.50386822"><ele>91.8</ele><time>2022-11-01T12:34:03.0000000+00:00</time></trkpt><trkpt lat="39.52148968" lon="-0.50388532"><ele>91.6</ele><time>2022-11-01T12:34:04.0000000+00:00</time></trkpt><trkpt lat="39.52150754" lon="-0.50389873"><ele>91.6</ele><time>2022-11-01T12:34:05.0000000+00:00</time></trkpt><trkpt lat="39.52152045" lon="-0.50391574"><ele>91.4</ele><time>2022-11-01T12:34:06.0000000+00:00</time></trkpt><trkpt lat="39.52153134" lon="-0.50393444"><ele>91.4</ele><time>2022-11-01T12:34:07.0000000+00:00</time></trkpt><trkpt lat="39.52154048" lon="-0.50394869"><ele>91.2</ele><time>2022-11-01T12:34:08.0000000+00:00</time></trkpt><trkpt lat="39.52154693" lon="-0.50396335"><ele>91.2</ele><time>2022-11-01T12:34:09.0000000+00:00</time></trkpt><trkpt lat="39.52155573" lon="-0.50398037"><ele>91.0</ele><time>2022-11-01T12:34:10.0000000+00:00</time></trkpt><trkpt lat="39.52156747" lon="-0.50399839"><ele>91.0</ele><time>2022-11-01T12:34:11.0000000+00:00</time></trkpt><trkpt lat="39.52158507" lon="-0.50401557"><ele>91.0</ele><time>2022-11-01T12:34:12.0000000+00:00</time></trkpt><trkpt lat="39.52161223" lon="-0.5040253"><ele>91.0</ele><time>2022-11-01T12:34:13.0000000+00:00</time></trkpt><trkpt lat="39.52164349" lon="-0.50402731"><ele>90.6</ele><time>2022-11-01T12:34:14.0000000+00:00</time></trkpt><trkpt lat="39.52167694" lon="-0.50402798"><ele>90.2</ele><time>2022-11-01T12:34:15.0000000+00:00</time></trkpt><trkpt lat="39.52171021" lon="-0.50404793"><ele>89.8</ele><time>2022-11-01T12:34:16.0000000+00:00</time></trkpt><trkpt lat="39.52174525" lon="-0.50408925"><ele>89.6</ele><time>2022-11-01T12:34:17.0000000+00:00</time></trkpt><trkpt lat="39.52176956" lon="-0.50412261"><ele>89.4</ele><time>2022-11-01T12:34:18.0000000+00:00</time></trkpt><trkpt lat="39.52178515" lon="-0.50414273"><ele>89.4</ele><time>2022-11-01T12:34:19.0000000+00:00</time></trkpt><trkpt lat="39.52178992" lon="-0.50414893"><ele>89.2</ele><time>2022-11-01T12:34:20.0000000+00:00</time></trkpt><trkpt lat="39.52178992" lon="-0.50414893"><ele>89.2</ele><time>2022-11-01T12:34:21.0000000+00:00</time></trkpt><trkpt lat="39.52178992" lon="-0.50414893"><ele>89.2</ele><time>2022-11-01T12:34:22.0000000+00:00</time></trkpt><trkpt lat="39.52178992" lon="-0.50414893"><ele>89.2</ele><time>2022-11-01T12:34:23.0000000+00:00</time></trkpt><trkpt lat="39.52178992" lon="-0.50414893"><ele>89.2</ele><time>2022-11-01T12:34:24.0000000+00:00</time></trkpt><trkpt lat="39.52178992" lon="-0.50414893"><ele>89.0</ele><time>2022-11-01T12:34:25.0000000+00:00</time></trkpt><trkpt lat="39.52178992" lon="-0.50414893"><ele>89.0</ele><time>2022-11-01T12:34:26.0000000+00:00</time></trkpt><trkpt lat="39.52178867" lon="-0.50414432"><ele>89.0</ele><time>2022-11-01T12:34:27.0000000+00:00</time></trkpt><trkpt lat="39.52178791" lon="-0.50414013"><ele>88.8</ele><time>2022-11-01T12:34:28.0000000+00:00</time></trkpt><trkpt lat="39.52178674" lon="-0.50413678"><ele>88.8</ele><time>2022-11-01T12:34:29.0000000+00:00</time></trkpt><trkpt lat="39.52179244" lon="-0.50414021"><ele>88.8</ele><time>2022-11-01T12:34:30.0000000+00:00</time></trkpt><trkpt lat="39.5217947" lon="-0.50413845"><ele>88.6</ele><time>2022-11-01T12:34:31.0000000+00:00</time></trkpt><trkpt lat="39.5217947" lon="-0.50413845"><ele>88.6</ele><time>2022-11-01T12:34:32.0000000+00:00</time></trkpt><trkpt lat="39.5217947" lon="-0.50413845"><ele>88.4</ele><time>2022-11-01T12:34:33.0000000+00:00</time></trkpt><trkpt lat="39.5217947" lon="-0.50413845"><ele>88.4</ele><time>2022-11-01T12:34:34.0000000+00:00</time></trkpt><trkpt lat="39.5217947" lon="-0.50413845"><ele>88.4</ele><time>2022-11-01T12:34:35.0000000+00:00</time></trkpt><trkpt lat="39.5217947" lon="-0.50413845"><ele>88.4</ele><time>2022-11-01T12:34:36.0000000+00:00</time></trkpt><trkpt lat="39.5217947" lon="-0.50413845"><ele>88.4</ele><time>2022-11-01T12:34:37.0000000+00:00</time></trkpt><trkpt lat="39.5217947" lon="-0.50413845"><ele>88.4</ele><time>2022-11-01T12:34:38.0000000+00:00</time></trkpt><trkpt lat="39.52179696" lon="-0.50413686"><ele>88.4</ele><time>2022-11-01T12:34:39.0000000+00:00</time></trkpt><trkpt lat="39.52180174" lon="-0.50413024"><ele>88.4</ele><time>2022-11-01T12:34:40.0000000+00:00</time></trkpt><trkpt lat="39.52180702" lon="-0.50412336"><ele>88.4</ele><time>2022-11-01T12:34:41.0000000+00:00</time></trkpt><trkpt lat="39.52180996" lon="-0.50411993"><ele>88.4</ele><time>2022-11-01T12:34:42.0000000+00:00</time></trkpt><trkpt lat="39.52181339" lon="-0.50412152"><ele>88.4</ele><time>2022-11-01T12:34:43.0000000+00:00</time></trkpt><trkpt lat="39.521817" lon="-0.50412328"><ele>88.4</ele><time>2022-11-01T12:34:44.0000000+00:00</time></trkpt><trkpt lat="39.52181993" lon="-0.50412621"><ele>88.4</ele><time>2022-11-01T12:34:45.0000000+00:00</time></trkpt><trkpt lat="39.52182798" lon="-0.5041232"><ele>88.4</ele><time>2022-11-01T12:34:46.0000000+00:00</time></trkpt><trkpt lat="39.52183795" lon="-0.50411842"><ele>88.6</ele><time>2022-11-01T12:34:47.0000000+00:00</time></trkpt><trkpt lat="39.52185136" lon="-0.50411247"><ele>88.6</ele><time>2022-11-01T12:34:48.0000000+00:00</time></trkpt><trkpt lat="39.5218672" lon="-0.50410476"><ele>88.8</ele><time>2022-11-01T12:34:49.0000000+00:00</time></trkpt><trkpt lat="39.52188212" lon="-0.50410291"><ele>88.8</ele><time>2022-11-01T12:34:50.0000000+00:00</time></trkpt><trkpt lat="39.52189646" lon="-0.50410375"><ele>88.8</ele><time>2022-11-01T12:34:51.0000000+00:00</time></trkpt><trkpt lat="39.5219102" lon="-0.50410551"><ele>89.0</ele><time>2022-11-01T12:34:52.0000000+00:00</time></trkpt><trkpt lat="39.52192647" lon="-0.50410719"><ele>89.2</ele><time>2022-11-01T12:34:53.0000000+00:00</time></trkpt><trkpt lat="39.52194315" lon="-0.50410744"><ele>89.4</ele><time>2022-11-01T12:34:54.0000000+00:00</time></trkpt><trkpt lat="39.52195806" lon="-0.50410492"><ele>89.8</ele><time>2022-11-01T12:34:55.0000000+00:00</time></trkpt><trkpt lat="39.52197407" lon="-0.50409922"><ele>90.0</ele><time>2022-11-01T12:34:56.0000000+00:00</time></trkpt><trkpt lat="39.5219936" lon="-0.50409788"><ele>90.4</ele><time>2022-11-01T12:34:57.0000000+00:00</time></trkpt><trkpt lat="39.52201104" lon="-0.50410006"><ele>90.4</ele><time>2022-11-01T12:34:58.0000000+00:00</time></trkpt><trkpt lat="39.5220299" lon="-0.50411088"><ele>90.6</ele><time>2022-11-01T12:34:59.0000000+00:00</time></trkpt><trkpt lat="39.52204918" lon="-0.50412261"><ele>90.8</ele><time>2022-11-01T12:35:00.0000000+00:00</time></trkpt><trkpt lat="39.52206996" lon="-0.50413761"><ele>90.8</ele><time>2022-11-01T12:35:01.0000000+00:00</time></trkpt><trkpt lat="39.52208731" lon="-0.5041501"><ele>91.0</ele><time>2022-11-01T12:35:02.0000000+00:00</time></trkpt><trkpt lat="39.52210031" lon="-0.50416343"><ele>91.0</ele><time>2022-11-01T12:35:03.0000000+00:00</time></trkpt><trkpt lat="39.52211003" lon="-0.50417223"><ele>91.2</ele><time>2022-11-01T12:35:04.0000000+00:00</time></trkpt><trkpt lat="39.52211615" lon="-0.50417969"><ele>91.2</ele><time>2022-11-01T12:35:05.0000000+00:00</time></trkpt><trkpt lat="39.52212906" lon="-0.50419008"><ele>91.2</ele><time>2022-11-01T12:35:06.0000000+00:00</time></trkpt><trkpt lat="39.52214926" lon="-0.50420458"><ele>91.2</ele><time>2022-11-01T12:35:07.0000000+00:00</time></trkpt><trkpt lat="39.5221718" lon="-0.5042154"><ele>91.4</ele><time>2022-11-01T12:35:08.0000000+00:00</time></trkpt><trkpt lat="39.5221977" lon="-0.50421691"><ele>91.4</ele><time>2022-11-01T12:35:09.0000000+00:00</time></trkpt><trkpt lat="39.52222603" lon="-0.50421431"><ele>91.4</ele><time>2022-11-01T12:35:10.0000000+00:00</time></trkpt><trkpt lat="39.52225512" lon="-0.50420794"><ele>91.6</ele><time>2022-11-01T12:35:11.0000000+00:00</time></trkpt><trkpt lat="39.52228496" lon="-0.50420383"><ele>91.6</ele><time>2022-11-01T12:35:12.0000000+00:00</time></trkpt><trkpt lat="39.52231899" lon="-0.50419981"><ele>91.8</ele><time>2022-11-01T12:35:13.0000000+00:00</time></trkpt><trkpt lat="39.52235268" lon="-0.50419905"><ele>91.8</ele><time>2022-11-01T12:35:14.0000000+00:00</time></trkpt><trkpt lat="39.52238722" lon="-0.5041983"><ele>91.8</ele><time>2022-11-01T12:35:15.0000000+00:00</time></trkpt><trkpt lat="39.52242033" lon="-0.50419436"><ele>92.0</ele><time>2022-11-01T12:35:16.0000000+00:00</time></trkpt><trkpt lat="39.52245662" lon="-0.50418112"><ele>92.0</ele><time>2022-11-01T12:35:17.0000000+00:00</time></trkpt><trkpt lat="39.5224909" lon="-0.50416452"><ele>92.0</ele><time>2022-11-01T12:35:18.0000000+00:00</time></trkpt><trkpt lat="39.52252443" lon="-0.50414415"><ele>92.2</ele><time>2022-11-01T12:35:19.0000000+00:00</time></trkpt><trkpt lat="39.52255025" lon="-0.50412697"><ele>92.2</ele><time>2022-11-01T12:35:20.0000000+00:00</time></trkpt><trkpt lat="39.52257087" lon="-0.50411632"><ele>92.2</ele><time>2022-11-01T12:35:21.0000000+00:00</time></trkpt><trkpt lat="39.52258713" lon="-0.50410534"><ele>92.2</ele><time>2022-11-01T12:35:22.0000000+00:00</time></trkpt><trkpt lat="39.52259945" lon="-0.50409193"><ele>92.2</ele><time>2022-11-01T12:35:23.0000000+00:00</time></trkpt><trkpt lat="39.52260875" lon="-0.50407232"><ele>92.2</ele><time>2022-11-01T12:35:24.0000000+00:00</time></trkpt><trkpt lat="39.52262635" lon="-0.50405681"><ele>92.2</ele><time>2022-11-01T12:35:25.0000000+00:00</time></trkpt><trkpt lat="39.52264622" lon="-0.50403351"><ele>92.2</ele><time>2022-11-01T12:35:26.0000000+00:00</time></trkpt><trkpt lat="39.52266474" lon="-0.5040144"><ele>92.2</ele><time>2022-11-01T12:35:27.0000000+00:00</time></trkpt><trkpt lat="39.52267966" lon="-0.50399269"><ele>92.2</ele><time>2022-11-01T12:35:28.0000000+00:00</time></trkpt><trkpt lat="39.52268989" lon="-0.50397148"><ele>92.2</ele><time>2022-11-01T12:35:29.0000000+00:00</time></trkpt><trkpt lat="39.52269827" lon="-0.50394936"><ele>92.2</ele><time>2022-11-01T12:35:30.0000000+00:00</time></trkpt><trkpt lat="39.52270808" lon="-0.50392815"><ele>92.4</ele><time>2022-11-01T12:35:31.0000000+00:00</time></trkpt><trkpt lat="39.52272384" lon="-0.50390728"><ele>92.6</ele><time>2022-11-01T12:35:32.0000000+00:00</time></trkpt><trkpt lat="39.52273616" lon="-0.5038932"><ele>92.6</ele><time>2022-11-01T12:35:33.0000000+00:00</time></trkpt><trkpt lat="39.52274303" lon="-0.50388104"><ele>92.6</ele><time>2022-11-01T12:35:34.0000000+00:00</time></trkpt><trkpt lat="39.52275116" lon="-0.50386679"><ele>92.8</ele><time>2022-11-01T12:35:35.0000000+00:00</time></trkpt><trkpt lat="39.52276172" lon="-0.50385137"><ele>93.0</ele><time>2022-11-01T12:35:36.0000000+00:00</time></trkpt><trkpt lat="39.52277287" lon="-0.50383385"><ele>93.0</ele><time>2022-11-01T12:35:37.0000000+00:00</time></trkpt><trkpt lat="39.52278502" lon="-0.50380871"><ele>93.2</ele><time>2022-11-01T12:35:38.0000000+00:00</time></trkpt><trkpt lat="39.52279961" lon="-0.50377954"><ele>93.2</ele><time>2022-11-01T12:35:39.0000000+00:00</time></trkpt><trkpt lat="39.52281922" lon="-0.5037445"><ele>93.4</ele><time>2022-11-01T12:35:40.0000000+00:00</time></trkpt><trkpt lat="39.52283749" lon="-0.503715"><ele>93.4</ele><time>2022-11-01T12:35:41.0000000+00:00</time></trkpt><trkpt lat="39.52285174" lon="-0.50368717"><ele>93.6</ele><time>2022-11-01T12:35:42.0000000+00:00</time></trkpt><trkpt lat="39.5228639" lon="-0.5036544"><ele>93.6</ele><time>2022-11-01T12:35:43.0000000+00:00</time></trkpt><trkpt lat="39.52287421" lon="-0.5036228"><ele>94.0</ele><time>2022-11-01T12:35:44.0000000+00:00</time></trkpt><trkpt lat="39.52288502" lon="-0.50359421"><ele>94.2</ele><time>2022-11-01T12:35:45.0000000+00:00</time></trkpt><trkpt lat="39.52289566" lon="-0.50356505"><ele>94.2</ele><time>2022-11-01T12:35:46.0000000+00:00</time></trkpt><trkpt lat="39.52290648" lon="-0.50353646"><ele>94.4</ele><time>2022-11-01T12:35:47.0000000+00:00</time></trkpt><trkpt lat="39.52292031" lon="-0.50350956"><ele>94.6</ele><time>2022-11-01T12:35:48.0000000+00:00</time></trkpt><trkpt lat="39.52293598" lon="-0.50348416"><ele>94.6</ele><time>2022-11-01T12:35:49.0000000+00:00</time></trkpt><trkpt lat="39.52294931" lon="-0.50346723"><ele>94.6</ele><time>2022-11-01T12:35:50.0000000+00:00</time></trkpt><trkpt lat="39.52296188" lon="-0.50345482"><ele>94.6</ele><time>2022-11-01T12:35:51.0000000+00:00</time></trkpt><trkpt lat="39.52297588" lon="-0.50344921"><ele>94.8</ele><time>2022-11-01T12:35:52.0000000+00:00</time></trkpt><trkpt lat="39.52299424" lon="-0.50344778"><ele>94.8</ele><time>2022-11-01T12:35:53.0000000+00:00</time></trkpt><trkpt lat="39.52301519" lon="-0.50345407"><ele>94.6</ele><time>2022-11-01T12:35:54.0000000+00:00</time></trkpt><trkpt lat="39.52304386" lon="-0.50346622"><ele>94.6</ele><time>2022-11-01T12:35:55.0000000+00:00</time></trkpt><trkpt lat="39.52307579" lon="-0.50348391"><ele>94.2</ele><time>2022-11-01T12:35:56.0000000+00:00</time></trkpt><trkpt lat="39.52310999" lon="-0.50350679"><ele>94.2</ele><time>2022-11-01T12:35:57.0000000+00:00</time></trkpt><trkpt lat="39.52314687" lon="-0.50352842"><ele>94.0</ele><time>2022-11-01T12:35:58.0000000+00:00</time></trkpt><trkpt lat="39.52318727" lon="-0.50355306"><ele>94.0</ele><time>2022-11-01T12:35:59.0000000+00:00</time></trkpt><trkpt lat="39.52322826" lon="-0.50357896"><ele>94.0</ele><time>2022-11-01T12:36:00.0000000+00:00</time></trkpt><trkpt lat="39.52327201" lon="-0.50360939"><ele>94.0</ele><time>2022-11-01T12:36:01.0000000+00:00</time></trkpt><trkpt lat="39.52331509" lon="-0.50364643"><ele>94.0</ele><time>2022-11-01T12:36:02.0000000+00:00</time></trkpt><trkpt lat="39.52335441" lon="-0.50368943"><ele>94.0</ele><time>2022-11-01T12:36:03.0000000+00:00</time></trkpt><trkpt lat="39.52338944" lon="-0.50373679"><ele>94.0</ele><time>2022-11-01T12:36:04.0000000+00:00</time></trkpt><trkpt lat="39.52342163" lon="-0.50378532"><ele>94.0</ele><time>2022-11-01T12:36:05.0000000+00:00</time></trkpt><trkpt lat="39.5234477" lon="-0.50383335"><ele>94.0</ele><time>2022-11-01T12:36:06.0000000+00:00</time></trkpt><trkpt lat="39.52347368" lon="-0.50387895"><ele>94.0</ele><time>2022-11-01T12:36:07.0000000+00:00</time></trkpt><trkpt lat="39.52349925" lon="-0.50392438"><ele>94.2</ele><time>2022-11-01T12:36:08.0000000+00:00</time></trkpt><trkpt lat="39.52352732" lon="-0.50397073"><ele>94.2</ele><time>2022-11-01T12:36:09.0000000+00:00</time></trkpt><trkpt lat="39.52355599" lon="-0.50401524"><ele>94.4</ele><time>2022-11-01T12:36:10.0000000+00:00</time></trkpt><trkpt lat="39.52358449" lon="-0.50405782"><ele>94.4</ele><time>2022-11-01T12:36:11.0000000+00:00</time></trkpt><trkpt lat="39.5236145" lon="-0.50409704"><ele>94.4</ele><time>2022-11-01T12:36:12.0000000+00:00</time></trkpt><trkpt lat="39.52364517" lon="-0.50412948"><ele>94.4</ele><time>2022-11-01T12:36:13.0000000+00:00</time></trkpt><trkpt lat="39.52367459" lon="-0.504162"><ele>94.4</ele><time>2022-11-01T12:36:14.0000000+00:00</time></trkpt><trkpt lat="39.52369773" lon="-0.50419578"><ele>94.2</ele><time>2022-11-01T12:36:15.0000000+00:00</time></trkpt><trkpt lat="39.52371751" lon="-0.5042242"><ele>94.2</ele><time>2022-11-01T12:36:16.0000000+00:00</time></trkpt><trkpt lat="39.523731" lon="-0.50424289"><ele>94.0</ele><time>2022-11-01T12:36:17.0000000+00:00</time></trkpt><trkpt lat="39.52374316" lon="-0.5042532"><ele>94.0</ele><time>2022-11-01T12:36:18.0000000+00:00</time></trkpt><trkpt lat="39.52375598" lon="-0.50426234"><ele>93.8</ele><time>2022-11-01T12:36:19.0000000+00:00</time></trkpt><trkpt lat="39.52377157" lon="-0.50426326"><ele>93.8</ele><time>2022-11-01T12:36:20.0000000+00:00</time></trkpt><trkpt lat="39.52378482" lon="-0.50426217"><ele>93.8</ele><time>2022-11-01T12:36:21.0000000+00:00</time></trkpt><trkpt lat="39.52379462" lon="-0.50425798"><ele>93.8</ele><time>2022-11-01T12:36:22.0000000+00:00</time></trkpt><trkpt lat="39.52380401" lon="-0.50425395"><ele>93.8</ele><time>2022-11-01T12:36:23.0000000+00:00</time></trkpt><trkpt lat="39.52381298" lon="-0.50425077"><ele>93.8</ele><time>2022-11-01T12:36:24.0000000+00:00</time></trkpt><trkpt lat="39.52382086" lon="-0.50425571"><ele>93.8</ele><time>2022-11-01T12:36:25.0000000+00:00</time></trkpt><trkpt lat="39.52382161" lon="-0.50427055"><ele>93.6</ele><time>2022-11-01T12:36:26.0000000+00:00</time></trkpt><trkpt lat="39.52382958" lon="-0.50429838"><ele>93.6</ele><time>2022-11-01T12:36:27.0000000+00:00</time></trkpt><trkpt lat="39.52384676" lon="-0.5043314"><ele>93.8</ele><time>2022-11-01T12:36:28.0000000+00:00</time></trkpt><trkpt lat="39.52387115" lon="-0.50435688"><ele>93.8</ele><time>2022-11-01T12:36:29.0000000+00:00</time></trkpt><trkpt lat="39.52389889" lon="-0.50438019"><ele>93.8</ele><time>2022-11-01T12:36:30.0000000+00:00</time></trkpt><trkpt lat="39.52393116" lon="-0.50440483"><ele>94.0</ele><time>2022-11-01T12:36:31.0000000+00:00</time></trkpt><trkpt lat="39.52396369" lon="-0.50442847"><ele>94.0</ele><time>2022-11-01T12:36:32.0000000+00:00</time></trkpt><trkpt lat="39.52399545" lon="-0.50444582"><ele>94.0</ele><time>2022-11-01T12:36:33.0000000+00:00</time></trkpt><trkpt lat="39.52402932" lon="-0.5044609"><ele>94.0</ele><time>2022-11-01T12:36:34.0000000+00:00</time></trkpt><trkpt lat="39.52406444" lon="-0.50447876"><ele>94.0</ele><time>2022-11-01T12:36:35.0000000+00:00</time></trkpt><trkpt lat="39.52409796" lon="-0.50450357"><ele>94.0</ele><time>2022-11-01T12:36:36.0000000+00:00</time></trkpt><trkpt lat="39.52412956" lon="-0.50453031"><ele>94.2</ele><time>2022-11-01T12:36:37.0000000+00:00</time></trkpt><trkpt lat="39.52416175" lon="-0.50455713"><ele>94.4</ele><time>2022-11-01T12:36:38.0000000+00:00</time></trkpt><trkpt lat="39.52419109" lon="-0.50458118"><ele>94.4</ele><time>2022-11-01T12:36:39.0000000+00:00</time></trkpt><trkpt lat="39.52421531" lon="-0.50461144"><ele>94.8</ele><time>2022-11-01T12:36:40.0000000+00:00</time></trkpt><trkpt lat="39.52424071" lon="-0.50465017"><ele>95.0</ele><time>2022-11-01T12:36:41.0000000+00:00</time></trkpt><trkpt lat="39.52426527" lon="-0.5046878"><ele>95.0</ele><time>2022-11-01T12:36:42.0000000+00:00</time></trkpt><trkpt lat="39.52428874" lon="-0.50472619"><ele>95.2</ele><time>2022-11-01T12:36:43.0000000+00:00</time></trkpt><trkpt lat="39.52431472" lon="-0.50476173"><ele>95.2</ele><time>2022-11-01T12:36:44.0000000+00:00</time></trkpt><trkpt lat="39.52434297" lon="-0.5047992"><ele>95.2</ele><time>2022-11-01T12:36:45.0000000+00:00</time></trkpt><trkpt lat="39.52437499" lon="-0.5048334"><ele>95.2</ele><time>2022-11-01T12:36:46.0000000+00:00</time></trkpt><trkpt lat="39.52440902" lon="-0.50486215"><ele>95.2</ele><time>2022-11-01T12:36:47.0000000+00:00</time></trkpt><trkpt lat="39.52444196" lon="-0.50488972"><ele>95.2</ele><time>2022-11-01T12:36:48.0000000+00:00</time></trkpt><trkpt lat="39.5244754" lon="-0.50491923"><ele>95.0</ele><time>2022-11-01T12:36:49.0000000+00:00</time></trkpt><trkpt lat="39.52451178" lon="-0.50494437"><ele>95.0</ele><time>2022-11-01T12:36:50.0000000+00:00</time></trkpt><trkpt lat="39.52455126" lon="-0.50496382"><ele>94.8</ele><time>2022-11-01T12:36:51.0000000+00:00</time></trkpt><trkpt lat="39.52459627" lon="-0.50498175"><ele>94.6</ele><time>2022-11-01T12:36:52.0000000+00:00</time></trkpt><trkpt lat="39.52464262" lon="-0.50499517"><ele>94.6</ele><time>2022-11-01T12:36:53.0000000+00:00</time></trkpt><trkpt lat="39.52468847" lon="-0.50500506"><ele>94.4</ele><time>2022-11-01T12:36:54.0000000+00:00</time></trkpt><trkpt lat="39.52473289" lon="-0.50501553"><ele>94.4</ele><time>2022-11-01T12:36:55.0000000+00:00</time></trkpt><trkpt lat="39.52477455" lon="-0.50502769"><ele>94.2</ele><time>2022-11-01T12:36:56.0000000+00:00</time></trkpt><trkpt lat="39.52481479" lon="-0.50504311"><ele>94.2</ele><time>2022-11-01T12:36:57.0000000+00:00</time></trkpt><trkpt lat="39.52485695" lon="-0.50506038"><ele>94.2</ele><time>2022-11-01T12:36:58.0000000+00:00</time></trkpt><trkpt lat="39.52489726" lon="-0.5050789"><ele>94.2</ele><time>2022-11-01T12:36:59.0000000+00:00</time></trkpt><trkpt lat="39.52493942" lon="-0.50509516"><ele>94.2</ele><time>2022-11-01T12:37:00.0000000+00:00</time></trkpt><trkpt lat="39.5249836" lon="-0.50511084"><ele>94.2</ele><time>2022-11-01T12:37:01.0000000+00:00</time></trkpt><trkpt lat="39.52502995" lon="-0.50512777"><ele>94.2</ele><time>2022-11-01T12:37:02.0000000+00:00</time></trkpt><trkpt lat="39.52507471" lon="-0.50514286"><ele>94.2</ele><time>2022-11-01T12:37:03.0000000+00:00</time></trkpt><trkpt lat="39.52511611" lon="-0.50516071"><ele>94.2</ele><time>2022-11-01T12:37:04.0000000+00:00</time></trkpt><trkpt lat="39.52515308" lon="-0.50518233"><ele>94.2</ele><time>2022-11-01T12:37:05.0000000+00:00</time></trkpt><trkpt lat="39.52518736" lon="-0.50520572"><ele>94.2</ele><time>2022-11-01T12:37:06.0000000+00:00</time></trkpt><trkpt lat="39.52522005" lon="-0.50522919"><ele>94.2</ele><time>2022-11-01T12:37:07.0000000+00:00</time></trkpt><trkpt lat="39.52525098" lon="-0.50524838"><ele>94.2</ele><time>2022-11-01T12:37:08.0000000+00:00</time></trkpt><trkpt lat="39.52528375" lon="-0.50526003"><ele>94.4</ele><time>2022-11-01T12:37:09.0000000+00:00</time></trkpt><trkpt lat="39.52531409" lon="-0.50527713"><ele>94.6</ele><time>2022-11-01T12:37:10.0000000+00:00</time></trkpt><trkpt lat="39.52534444" lon="-0.50529398"><ele>94.6</ele><time>2022-11-01T12:37:11.0000000+00:00</time></trkpt><trkpt lat="39.52537478" lon="-0.50530647"><ele>94.8</ele><time>2022-11-01T12:37:12.0000000+00:00</time></trkpt><trkpt lat="39.52540152" lon="-0.50531653"><ele>95.0</ele><time>2022-11-01T12:37:13.0000000+00:00</time></trkpt><trkpt lat="39.52542901" lon="-0.50532416"><ele>95.2</ele><time>2022-11-01T12:37:14.0000000+00:00</time></trkpt><trkpt lat="39.5254581" lon="-0.5053369"><ele>95.4</ele><time>2022-11-01T12:37:15.0000000+00:00</time></trkpt><trkpt lat="39.5254871" lon="-0.50535215"><ele>95.6</ele><time>2022-11-01T12:37:16.0000000+00:00</time></trkpt><trkpt lat="39.52551375" lon="-0.50537"><ele>95.8</ele><time>2022-11-01T12:37:17.0000000+00:00</time></trkpt><trkpt lat="39.52554032" lon="-0.50538912"><ele>96.0</ele><time>2022-11-01T12:37:18.0000000+00:00</time></trkpt><trkpt lat="39.52556262" lon="-0.50541233"><ele>96.2</ele><time>2022-11-01T12:37:19.0000000+00:00</time></trkpt><trkpt lat="39.525586" lon="-0.5054389"><ele>96.4</ele><time>2022-11-01T12:37:20.0000000+00:00</time></trkpt><trkpt lat="39.5256083" lon="-0.50546221"><ele>96.4</ele><time>2022-11-01T12:37:21.0000000+00:00</time></trkpt><trkpt lat="39.52563068" lon="-0.50549096"><ele>96.6</ele><time>2022-11-01T12:37:22.0000000+00:00</time></trkpt><trkpt lat="39.52565465" lon="-0.50551593"><ele>96.8</ele><time>2022-11-01T12:37:23.0000000+00:00</time></trkpt><trkpt lat="39.52568005" lon="-0.50553915"><ele>97.0</ele><time>2022-11-01T12:37:24.0000000+00:00</time></trkpt><trkpt lat="39.52570151" lon="-0.50556086"><ele>97.2</ele><time>2022-11-01T12:37:25.0000000+00:00</time></trkpt><trkpt lat="39.52571626" lon="-0.50558039"><ele>97.4</ele><time>2022-11-01T12:37:26.0000000+00:00</time></trkpt><trkpt lat="39.52573118" lon="-0.50559841"><ele>97.4</ele><time>2022-11-01T12:37:27.0000000+00:00</time></trkpt><trkpt lat="39.5257435" lon="-0.5056202"><ele>97.6</ele><time>2022-11-01T12:37:28.0000000+00:00</time></trkpt><trkpt lat="39.52575758" lon="-0.5056404"><ele>97.8</ele><time>2022-11-01T12:37:29.0000000+00:00</time></trkpt><trkpt lat="39.5257725" lon="-0.50565843"><ele>98.0</ele><time>2022-11-01T12:37:30.0000000+00:00</time></trkpt><trkpt lat="39.52578625" lon="-0.50568014"><ele>98.0</ele><time>2022-11-01T12:37:31.0000000+00:00</time></trkpt><trkpt lat="39.52580008" lon="-0.50570402"><ele>98.4</ele><time>2022-11-01T12:37:32.0000000+00:00</time></trkpt><trkpt lat="39.52581324" lon="-0.50573227"><ele>98.8</ele><time>2022-11-01T12:37:33.0000000+00:00</time></trkpt><trkpt lat="39.52582824" lon="-0.50576253"><ele>98.8</ele><time>2022-11-01T12:37:34.0000000+00:00</time></trkpt><trkpt lat="39.52584165" lon="-0.50578449"><ele>99.0</ele><time>2022-11-01T12:37:35.0000000+00:00</time></trkpt><trkpt lat="39.52585406" lon="-0.50580503"><ele>99.2</ele><time>2022-11-01T12:37:36.0000000+00:00</time></trkpt><trkpt lat="39.5258673" lon="-0.50582564"><ele>99.4</ele><time>2022-11-01T12:37:37.0000000+00:00</time></trkpt><trkpt lat="39.52588046" lon="-0.50584853"><ele>99.6</ele><time>2022-11-01T12:37:38.0000000+00:00</time></trkpt><trkpt lat="39.52589186" lon="-0.50586831"><ele>99.8</ele><time>2022-11-01T12:37:39.0000000+00:00</time></trkpt><trkpt lat="39.52590334" lon="-0.50588759"><ele>99.8</ele><time>2022-11-01T12:37:40.0000000+00:00</time></trkpt><trkpt lat="39.52591692" lon="-0.5059046"><ele>100.0</ele><time>2022-11-01T12:37:41.0000000+00:00</time></trkpt><trkpt lat="39.52593385" lon="-0.50591793"><ele>100.2</ele><time>2022-11-01T12:37:42.0000000+00:00</time></trkpt><trkpt lat="39.52595271" lon="-0.50593645"><ele>100.4</ele><time>2022-11-01T12:37:43.0000000+00:00</time></trkpt><trkpt lat="39.52597291" lon="-0.50595372"><ele>100.6</ele><time>2022-11-01T12:37:44.0000000+00:00</time></trkpt><trkpt lat="39.52599445" lon="-0.50597392"><ele>100.8</ele><time>2022-11-01T12:37:45.0000000+00:00</time></trkpt><trkpt lat="39.52601591" lon="-0.50599001"><ele>101.0</ele><time>2022-11-01T12:37:46.0000000+00:00</time></trkpt><trkpt lat="39.52603905" lon="-0.50600267"><ele>101.0</ele><time>2022-11-01T12:37:47.0000000+00:00</time></trkpt><trkpt lat="39.52606226" lon="-0.50601256"><ele>101.0</ele><time>2022-11-01T12:37:48.0000000+00:00</time></trkpt><trkpt lat="39.52608557" lon="-0.50602086"><ele>101.4</ele><time>2022-11-01T12:37:49.0000000+00:00</time></trkpt><trkpt lat="39.52610677" lon="-0.5060341"><ele>101.4</ele><time>2022-11-01T12:37:50.0000000+00:00</time></trkpt><trkpt lat="39.52612597" lon="-0.50604735"><ele>101.4</ele><time>2022-11-01T12:37:51.0000000+00:00</time></trkpt><trkpt lat="39.5261465" lon="-0.50606076"><ele>101.4</ele><time>2022-11-01T12:37:52.0000000+00:00</time></trkpt><trkpt lat="39.52616427" lon="-0.50607786"><ele>101.4</ele><time>2022-11-01T12:37:53.0000000+00:00</time></trkpt><trkpt lat="39.52618414" lon="-0.50610007"><ele>101.4</ele><time>2022-11-01T12:37:54.0000000+00:00</time></trkpt><trkpt lat="39.52620811" lon="-0.50612454"><ele>101.4</ele><time>2022-11-01T12:37:55.0000000+00:00</time></trkpt><trkpt lat="39.52623351" lon="-0.50615388"><ele>101.2</ele><time>2022-11-01T12:37:56.0000000+00:00</time></trkpt><trkpt lat="39.52625572" lon="-0.50618858"><ele>101.2</ele><time>2022-11-01T12:37:57.0000000+00:00</time></trkpt><trkpt lat="39.52627164" lon="-0.50622907"><ele>101.0</ele><time>2022-11-01T12:37:58.0000000+00:00</time></trkpt><trkpt lat="39.52628246" lon="-0.50627416"><ele>101.0</ele><time>2022-11-01T12:37:59.0000000+00:00</time></trkpt><trkpt lat="39.5262843" lon="-0.50632361"><ele>100.8</ele><time>2022-11-01T12:38:00.0000000+00:00</time></trkpt><trkpt lat="39.52627835" lon="-0.50637122"><ele>100.6</ele><time>2022-11-01T12:38:01.0000000+00:00</time></trkpt><trkpt lat="39.52626653" lon="-0.50641875"><ele>100.4</ele><time>2022-11-01T12:38:02.0000000+00:00</time></trkpt><trkpt lat="39.52625362" lon="-0.50646912"><ele>100.4</ele><time>2022-11-01T12:38:03.0000000+00:00</time></trkpt><trkpt lat="39.52624465" lon="-0.50652118"><ele>100.2</ele><time>2022-11-01T12:38:04.0000000+00:00</time></trkpt><trkpt lat="39.52624231" lon="-0.50657415"><ele>100.0</ele><time>2022-11-01T12:38:05.0000000+00:00</time></trkpt><trkpt lat="39.52624767" lon="-0.50662159"><ele>99.6</ele><time>2022-11-01T12:38:06.0000000+00:00</time></trkpt><trkpt lat="39.52626259" lon="-0.50666585"><ele>99.4</ele><time>2022-11-01T12:38:07.0000000+00:00</time></trkpt><trkpt lat="39.52628288" lon="-0.50670859"><ele>99.2</ele><time>2022-11-01T12:38:08.0000000+00:00</time></trkpt><trkpt lat="39.52631104" lon="-0.50674908"><ele>99.0</ele><time>2022-11-01T12:38:09.0000000+00:00</time></trkpt><trkpt lat="39.52634415" lon="-0.50677942"><ele>98.8</ele><time>2022-11-01T12:38:10.0000000+00:00</time></trkpt><trkpt lat="39.52637943" lon="-0.50680356"><ele>98.8</ele><time>2022-11-01T12:38:11.0000000+00:00</time></trkpt><trkpt lat="39.52641355" lon="-0.50682167"><ele>98.6</ele><time>2022-11-01T12:38:12.0000000+00:00</time></trkpt><trkpt lat="39.52644439" lon="-0.50683323"><ele>98.6</ele><time>2022-11-01T12:38:13.0000000+00:00</time></trkpt><trkpt lat="39.52647055" lon="-0.50684036"><ele>98.4</ele><time>2022-11-01T12:38:14.0000000+00:00</time></trkpt><trkpt lat="39.52649452" lon="-0.50684011"><ele>98.2</ele><time>2022-11-01T12:38:15.0000000+00:00</time></trkpt><trkpt lat="39.52651799" lon="-0.50683533"><ele>98.0</ele><time>2022-11-01T12:38:16.0000000+00:00</time></trkpt><trkpt lat="39.52654791" lon="-0.50683592"><ele>98.0</ele><time>2022-11-01T12:38:17.0000000+00:00</time></trkpt><trkpt lat="39.52658312" lon="-0.50685469"><ele>97.6</ele><time>2022-11-01T12:38:18.0000000+00:00</time></trkpt><trkpt lat="39.52661756" lon="-0.50688512"><ele>97.2</ele><time>2022-11-01T12:38:19.0000000+00:00</time></trkpt><trkpt lat="39.52665059" lon="-0.50692828"><ele>96.8</ele><time>2022-11-01T12:38:20.0000000+00:00</time></trkpt><trkpt lat="39.52668336" lon="-0.50697866"><ele>96.6</ele><time>2022-11-01T12:38:21.0000000+00:00</time></trkpt><trkpt lat="39.526721" lon="-0.50702996"><ele>96.4</ele><time>2022-11-01T12:38:22.0000000+00:00</time></trkpt><trkpt lat="39.52676483" lon="-0.50708293"><ele>96.4</ele><time>2022-11-01T12:38:23.0000000+00:00</time></trkpt><trkpt lat="39.52681211" lon="-0.50713222"><ele>96.2</ele><time>2022-11-01T12:38:24.0000000+00:00</time></trkpt><trkpt lat="39.52685989" lon="-0.50717949"><ele>96.0</ele><time>2022-11-01T12:38:25.0000000+00:00</time></trkpt><trkpt lat="39.52691286" lon="-0.50722425"><ele>95.8</ele><time>2022-11-01T12:38:26.0000000+00:00</time></trkpt><trkpt lat="39.52696483" lon="-0.50727831"><ele>95.6</ele><time>2022-11-01T12:38:27.0000000+00:00</time></trkpt><trkpt lat="39.52701822" lon="-0.50733363"><ele>95.4</ele><time>2022-11-01T12:38:28.0000000+00:00</time></trkpt><trkpt lat="39.52706457" lon="-0.50738887"><ele>95.2</ele><time>2022-11-01T12:38:29.0000000+00:00</time></trkpt><trkpt lat="39.52709609" lon="-0.5074483"><ele>95.2</ele><time>2022-11-01T12:38:30.0000000+00:00</time></trkpt><trkpt lat="39.52711553" lon="-0.50751259"><ele>95.0</ele><time>2022-11-01T12:38:31.0000000+00:00</time></trkpt><trkpt lat="39.52713448" lon="-0.50758157"><ele>95.0</ele><time>2022-11-01T12:38:32.0000000+00:00</time></trkpt><trkpt lat="39.52715099" lon="-0.50766153"><ele>95.0</ele><time>2022-11-01T12:38:33.0000000+00:00</time></trkpt><trkpt lat="39.52716708" lon="-0.50774686"><ele>94.8</ele><time>2022-11-01T12:38:34.0000000+00:00</time></trkpt><trkpt lat="39.52718879" lon="-0.50782867"><ele>94.6</ele><time>2022-11-01T12:38:35.0000000+00:00</time></trkpt><trkpt lat="39.52721125" lon="-0.5079031"><ele>94.2</ele><time>2022-11-01T12:38:36.0000000+00:00</time></trkpt><trkpt lat="39.52724109" lon="-0.50797242"><ele>94.0</ele><time>2022-11-01T12:38:37.0000000+00:00</time></trkpt><trkpt lat="39.5272799" lon="-0.50803143"><ele>93.8</ele><time>2022-11-01T12:38:38.0000000+00:00</time></trkpt><trkpt lat="39.52732634" lon="-0.5080844"><ele>93.4</ele><time>2022-11-01T12:38:39.0000000+00:00</time></trkpt><trkpt lat="39.52737395" lon="-0.50813612"><ele>93.0</ele><time>2022-11-01T12:38:40.0000000+00:00</time></trkpt><trkpt lat="39.52742097" lon="-0.50818792"><ele>92.6</ele><time>2022-11-01T12:38:41.0000000+00:00</time></trkpt><trkpt lat="39.52746866" lon="-0.50823854"><ele>92.4</ele><time>2022-11-01T12:38:42.0000000+00:00</time></trkpt><trkpt lat="39.5275156" lon="-0.50828883"><ele>92.2</ele><time>2022-11-01T12:38:43.0000000+00:00</time></trkpt><trkpt lat="39.52756028" lon="-0.50834231"><ele>92.2</ele><time>2022-11-01T12:38:44.0000000+00:00</time></trkpt><trkpt lat="39.52760579" lon="-0.50839302"><ele>92.0</ele><time>2022-11-01T12:38:45.0000000+00:00</time></trkpt><trkpt lat="39.52764946" lon="-0.50844516"><ele>92.0</ele><time>2022-11-01T12:38:46.0000000+00:00</time></trkpt><trkpt lat="39.52769363" lon="-0.50849604"><ele>92.0</ele><time>2022-11-01T12:38:47.0000000+00:00</time></trkpt><trkpt lat="39.52773194" lon="-0.5085439"><ele>92.0</ele><time>2022-11-01T12:38:48.0000000+00:00</time></trkpt><trkpt lat="39.52776639" lon="-0.5085843"><ele>92.0</ele><time>2022-11-01T12:38:49.0000000+00:00</time></trkpt><trkpt lat="39.52778969" lon="-0.50862218"><ele>92.0</ele><time>2022-11-01T12:38:50.0000000+00:00</time></trkpt><trkpt lat="39.52781207" lon="-0.50865806"><ele>92.0</ele><time>2022-11-01T12:38:51.0000000+00:00</time></trkpt><trkpt lat="39.5278399" lon="-0.50868823"><ele>92.0</ele><time>2022-11-01T12:38:52.0000000+00:00</time></trkpt><trkpt lat="39.52787141" lon="-0.50870751"><ele>92.0</ele><time>2022-11-01T12:38:53.0000000+00:00</time></trkpt><trkpt lat="39.52790486" lon="-0.5087174"><ele>92.0</ele><time>2022-11-01T12:38:54.0000000+00:00</time></trkpt><trkpt lat="39.52793973" lon="-0.50872226"><ele>92.0</ele><time>2022-11-01T12:38:55.0000000+00:00</time></trkpt><trkpt lat="39.52797828" lon="-0.5087262"><ele>92.0</ele><time>2022-11-01T12:38:56.0000000+00:00</time></trkpt><trkpt lat="39.52801659" lon="-0.5087236"><ele>91.8</ele><time>2022-11-01T12:38:57.0000000+00:00</time></trkpt><trkpt lat="39.52805615" lon="-0.50871581"><ele>91.8</ele><time>2022-11-01T12:38:58.0000000+00:00</time></trkpt><trkpt lat="39.52809664" lon="-0.50870625"><ele>91.8</ele><time>2022-11-01T12:38:59.0000000+00:00</time></trkpt><trkpt lat="39.52813888" lon="-0.50869527"><ele>91.8</ele><time>2022-11-01T12:39:00.0000000+00:00</time></trkpt><trkpt lat="39.52818263" lon="-0.50867876"><ele>91.6</ele><time>2022-11-01T12:39:01.0000000+00:00</time></trkpt><trkpt lat="39.52822664" lon="-0.50866409"><ele>91.6</ele><time>2022-11-01T12:39:02.0000000+00:00</time></trkpt><trkpt lat="39.52827375" lon="-0.50865546"><ele>91.2</ele><time>2022-11-01T12:39:03.0000000+00:00</time></trkpt><trkpt lat="39.52832169" lon="-0.50865848"><ele>91.0</ele><time>2022-11-01T12:39:04.0000000+00:00</time></trkpt><trkpt lat="39.52836662" lon="-0.50867239"><ele>91.0</ele><time>2022-11-01T12:39:05.0000000+00:00</time></trkpt><trkpt lat="39.52840601" lon="-0.50869091"><ele>90.8</ele><time>2022-11-01T12:39:06.0000000+00:00</time></trkpt><trkpt lat="39.52843711" lon="-0.50870877"><ele>90.8</ele><time>2022-11-01T12:39:07.0000000+00:00</time></trkpt><trkpt lat="39.52846594" lon="-0.50872922"><ele>90.8</ele><time>2022-11-01T12:39:08.0000000+00:00</time></trkpt><trkpt lat="39.52848941" lon="-0.50874976"><ele>90.8</ele><time>2022-11-01T12:39:09.0000000+00:00</time></trkpt><trkpt lat="39.52851003" lon="-0.50877079"><ele>90.8</ele><time>2022-11-01T12:39:10.0000000+00:00</time></trkpt><trkpt lat="39.52852805" lon="-0.50878999"><ele>90.8</ele><time>2022-11-01T12:39:11.0000000+00:00</time></trkpt><trkpt lat="39.52854691" lon="-0.508806"><ele>90.6</ele><time>2022-11-01T12:39:12.0000000+00:00</time></trkpt><trkpt lat="39.52856309" lon="-0.5088236"><ele>90.6</ele><time>2022-11-01T12:39:13.0000000+00:00</time></trkpt><trkpt lat="39.52857742" lon="-0.50884221"><ele>90.6</ele><time>2022-11-01T12:39:14.0000000+00:00</time></trkpt><trkpt lat="39.5285936" lon="-0.5088614"><ele>90.6</ele><time>2022-11-01T12:39:15.0000000+00:00</time></trkpt><trkpt lat="39.5286086" lon="-0.5088806"><ele>90.4</ele><time>2022-11-01T12:39:16.0000000+00:00</time></trkpt><trkpt lat="39.52862226" lon="-0.50890306"><ele>90.4</ele><time>2022-11-01T12:39:17.0000000+00:00</time></trkpt><trkpt lat="39.52863568" lon="-0.508921"><ele>90.4</ele><time>2022-11-01T12:39:18.0000000+00:00</time></trkpt><trkpt lat="39.52864833" lon="-0.50892997"><ele>90.4</ele><time>2022-11-01T12:39:19.0000000+00:00</time></trkpt><trkpt lat="39.52865914" lon="-0.50893575"><ele>90.4</ele><time>2022-11-01T12:39:20.0000000+00:00</time></trkpt><trkpt lat="39.52866543" lon="-0.50894413"><ele>90.2</ele><time>2022-11-01T12:39:21.0000000+00:00</time></trkpt><trkpt lat="39.52867365" lon="-0.50895612"><ele>90.2</ele><time>2022-11-01T12:39:22.0000000+00:00</time></trkpt><trkpt lat="39.5286822" lon="-0.50896886"><ele>90.2</ele><time>2022-11-01T12:39:23.0000000+00:00</time></trkpt><trkpt lat="39.5286925" lon="-0.5089811"><ele>90.2</ele><time>2022-11-01T12:39:24.0000000+00:00</time></trkpt><trkpt lat="39.52870441" lon="-0.50899426"><ele>90.2</ele><time>2022-11-01T12:39:25.0000000+00:00</time></trkpt><trkpt lat="39.52871866" lon="-0.50900641"><ele>90.2</ele><time>2022-11-01T12:39:26.0000000+00:00</time></trkpt><trkpt lat="39.52873542" lon="-0.50901957"><ele>90.2</ele><time>2022-11-01T12:39:27.0000000+00:00</time></trkpt><trkpt lat="39.52874623" lon="-0.50902611"><ele>90.2</ele><time>2022-11-01T12:39:28.0000000+00:00</time></trkpt><trkpt lat="39.52875319" lon="-0.50903591"><ele>90.2</ele><time>2022-11-01T12:39:29.0000000+00:00</time></trkpt><trkpt lat="39.52876132" lon="-0.50904455"><ele>90.2</ele><time>2022-11-01T12:39:30.0000000+00:00</time></trkpt><trkpt lat="39.52877699" lon="-0.5090474"><ele>90.4</ele><time>2022-11-01T12:39:31.0000000+00:00</time></trkpt><trkpt lat="39.52878714" lon="-0.50905209"><ele>90.4</ele><time>2022-11-01T12:39:32.0000000+00:00</time></trkpt><trkpt lat="39.52879736" lon="-0.50906089"><ele>90.6</ele><time>2022-11-01T12:39:33.0000000+00:00</time></trkpt><trkpt lat="39.52880541" lon="-0.50907321"><ele>90.8</ele><time>2022-11-01T12:39:34.0000000+00:00</time></trkpt><trkpt lat="39.52881312" lon="-0.50908688"><ele>90.8</ele><time>2022-11-01T12:39:35.0000000+00:00</time></trkpt><trkpt lat="39.52882368" lon="-0.50909543"><ele>91.0</ele><time>2022-11-01T12:39:36.0000000+00:00</time></trkpt><trkpt lat="39.52883533" lon="-0.50910129"><ele>91.2</ele><time>2022-11-01T12:39:37.0000000+00:00</time></trkpt><trkpt lat="39.52884514" lon="-0.50910884"><ele>91.4</ele><time>2022-11-01T12:39:38.0000000+00:00</time></trkpt><trkpt lat="39.52885629" lon="-0.50911152"><ele>91.6</ele><time>2022-11-01T12:39:39.0000000+00:00</time></trkpt><trkpt lat="39.52886626" lon="-0.50911831"><ele>91.6</ele><time>2022-11-01T12:39:40.0000000+00:00</time></trkpt><trkpt lat="39.52887858" lon="-0.50912518"><ele>91.8</ele><time>2022-11-01T12:39:41.0000000+00:00</time></trkpt><trkpt lat="39.52888914" lon="-0.50913088"><ele>92.0</ele><time>2022-11-01T12:39:42.0000000+00:00</time></trkpt><trkpt lat="39.52889744" lon="-0.50913532"><ele>92.0</ele><time>2022-11-01T12:39:43.0000000+00:00</time></trkpt><trkpt lat="39.52890792" lon="-0.50913759"><ele>92.2</ele><time>2022-11-01T12:39:44.0000000+00:00</time></trkpt><trkpt lat="39.52891756" lon="-0.5091396"><ele>92.4</ele><time>2022-11-01T12:39:45.0000000+00:00</time></trkpt><trkpt lat="39.52892795" lon="-0.50913541"><ele>92.4</ele><time>2022-11-01T12:39:46.0000000+00:00</time></trkpt><trkpt lat="39.52894053" lon="-0.5091318"><ele>92.6</ele><time>2022-11-01T12:39:47.0000000+00:00</time></trkpt><trkpt lat="39.528951" lon="-0.50913423"><ele>92.6</ele><time>2022-11-01T12:39:48.0000000+00:00</time></trkpt><trkpt lat="39.52896475" lon="-0.50913817"><ele>92.6</ele><time>2022-11-01T12:39:49.0000000+00:00</time></trkpt><trkpt lat="39.52897808" lon="-0.50914454"><ele>92.8</ele><time>2022-11-01T12:39:50.0000000+00:00</time></trkpt><trkpt lat="39.52899073" lon="-0.5091453"><ele>92.8</ele><time>2022-11-01T12:39:51.0000000+00:00</time></trkpt><trkpt lat="39.52900188" lon="-0.50914127"><ele>93.0</ele><time>2022-11-01T12:39:52.0000000+00:00</time></trkpt><trkpt lat="39.52901487" lon="-0.50913826"><ele>93.0</ele><time>2022-11-01T12:39:53.0000000+00:00</time></trkpt><trkpt lat="39.52903206" lon="-0.50913599"><ele>93.2</ele><time>2022-11-01T12:39:54.0000000+00:00</time></trkpt><trkpt lat="39.5290515" lon="-0.50913784"><ele>93.2</ele><time>2022-11-01T12:39:55.0000000+00:00</time></trkpt><trkpt lat="39.5290717" lon="-0.50914186"><ele>93.4</ele><time>2022-11-01T12:39:56.0000000+00:00</time></trkpt><trkpt lat="39.52909224" lon="-0.50914597"><ele>93.4</ele><time>2022-11-01T12:39:57.0000000+00:00</time></trkpt><trkpt lat="39.52911353" lon="-0.50915066"><ele>93.4</ele><time>2022-11-01T12:39:58.0000000+00:00</time></trkpt><trkpt lat="39.52913473" lon="-0.50916005"><ele>93.4</ele><time>2022-11-01T12:39:59.0000000+00:00</time></trkpt><trkpt lat="39.52915485" lon="-0.50916592"><ele>93.4</ele><time>2022-11-01T12:40:00.0000000+00:00</time></trkpt><trkpt lat="39.52917815" lon="-0.50917338"><ele>93.6</ele><time>2022-11-01T12:40:01.0000000+00:00</time></trkpt><trkpt lat="39.52920003" lon="-0.50917547"><ele>93.8</ele><time>2022-11-01T12:40:02.0000000+00:00</time></trkpt><trkpt lat="39.52921839" lon="-0.50918209"><ele>94.0</ele><time>2022-11-01T12:40:03.0000000+00:00</time></trkpt><trkpt lat="39.52923775" lon="-0.50918629"><ele>94.2</ele><time>2022-11-01T12:40:04.0000000+00:00</time></trkpt><trkpt lat="39.52925719" lon="-0.50919039"><ele>94.2</ele><time>2022-11-01T12:40:05.0000000+00:00</time></trkpt><trkpt lat="39.52927572" lon="-0.50919064"><ele>94.4</ele><time>2022-11-01T12:40:06.0000000+00:00</time></trkpt><trkpt lat="39.52929382" lon="-0.50919123"><ele>94.6</ele><time>2022-11-01T12:40:07.0000000+00:00</time></trkpt><trkpt lat="39.52931302" lon="-0.50919198"><ele>94.6</ele><time>2022-11-01T12:40:08.0000000+00:00</time></trkpt><trkpt lat="39.52933196" lon="-0.5091893"><ele>94.8</ele><time>2022-11-01T12:40:09.0000000+00:00</time></trkpt><trkpt lat="39.5293499" lon="-0.50918629"><ele>95.0</ele><time>2022-11-01T12:40:10.0000000+00:00</time></trkpt><trkpt lat="39.52936624" lon="-0.50918411"><ele>95.0</ele><time>2022-11-01T12:40:11.0000000+00:00</time></trkpt><trkpt lat="39.52938686" lon="-0.5091779"><ele>95.0</ele><time>2022-11-01T12:40:12.0000000+00:00</time></trkpt><trkpt lat="39.52940874" lon="-0.50916835"><ele>95.2</ele><time>2022-11-01T12:40:13.0000000+00:00</time></trkpt><trkpt lat="39.52943011" lon="-0.50915946"><ele>95.4</ele><time>2022-11-01T12:40:14.0000000+00:00</time></trkpt><trkpt lat="39.52945333" lon="-0.50914848"><ele>95.4</ele><time>2022-11-01T12:40:15.0000000+00:00</time></trkpt><trkpt lat="39.5294747" lon="-0.5091344"><ele>95.4</ele><time>2022-11-01T12:40:16.0000000+00:00</time></trkpt><trkpt lat="39.5294949" lon="-0.50911881"><ele>95.4</ele><time>2022-11-01T12:40:17.0000000+00:00</time></trkpt><trkpt lat="39.52951745" lon="-0.50910004"><ele>95.6</ele><time>2022-11-01T12:40:18.0000000+00:00</time></trkpt><trkpt lat="39.52954033" lon="-0.50908042"><ele>95.6</ele><time>2022-11-01T12:40:19.0000000+00:00</time></trkpt><trkpt lat="39.52956196" lon="-0.50905796"><ele>95.6</ele><time>2022-11-01T12:40:20.0000000+00:00</time></trkpt><trkpt lat="39.52958778" lon="-0.50903642"><ele>95.6</ele><time>2022-11-01T12:40:21.0000000+00:00</time></trkpt><trkpt lat="39.52961611" lon="-0.50901286"><ele>95.6</ele><time>2022-11-01T12:40:22.0000000+00:00</time></trkpt><trkpt lat="39.52964435" lon="-0.50898738"><ele>95.6</ele><time>2022-11-01T12:40:23.0000000+00:00</time></trkpt><trkpt lat="39.52967227" lon="-0.50896291"><ele>95.6</ele><time>2022-11-01T12:40:24.0000000+00:00</time></trkpt><trkpt lat="39.52970009" lon="-0.50893458"><ele>95.8</ele><time>2022-11-01T12:40:25.0000000+00:00</time></trkpt><trkpt lat="39.52972918" lon="-0.50890247"><ele>95.8</ele><time>2022-11-01T12:40:26.0000000+00:00</time></trkpt><trkpt lat="39.52975868" lon="-0.50887129"><ele>95.8</ele><time>2022-11-01T12:40:27.0000000+00:00</time></trkpt><trkpt lat="39.52978559" lon="-0.5088412"><ele>95.8</ele><time>2022-11-01T12:40:28.0000000+00:00</time></trkpt><trkpt lat="39.52981208" lon="-0.50880843"><ele>95.8</ele><time>2022-11-01T12:40:29.0000000+00:00</time></trkpt><trkpt lat="39.52983856" lon="-0.50877406"><ele>96.0</ele><time>2022-11-01T12:40:30.0000000+00:00</time></trkpt><trkpt lat="39.5298653" lon="-0.50873442"><ele>96.2</ele><time>2022-11-01T12:40:31.0000000+00:00</time></trkpt><trkpt lat="39.52989112" lon="-0.50869678"><ele>96.2</ele><time>2022-11-01T12:40:32.0000000+00:00</time></trkpt><trkpt lat="39.52991224" lon="-0.50865948"><ele>96.4</ele><time>2022-11-01T12:40:33.0000000+00:00</time></trkpt><trkpt lat="39.52992322" lon="-0.50863065"><ele>96.6</ele><time>2022-11-01T12:40:34.0000000+00:00</time></trkpt><trkpt lat="39.52993093" lon="-0.50860768"><ele>96.6</ele><time>2022-11-01T12:40:35.0000000+00:00</time></trkpt><trkpt lat="39.52993747" lon="-0.50858706"><ele>97.0</ele><time>2022-11-01T12:40:36.0000000+00:00</time></trkpt><trkpt lat="39.52994837" lon="-0.50856368"><ele>97.0</ele><time>2022-11-01T12:40:37.0000000+00:00</time></trkpt><trkpt lat="39.52996052" lon="-0.50853476"><ele>97.4</ele><time>2022-11-01T12:40:38.0000000+00:00</time></trkpt><trkpt lat="39.52997284" lon="-0.50850425"><ele>97.6</ele><time>2022-11-01T12:40:39.0000000+00:00</time></trkpt><trkpt lat="39.52998382" lon="-0.50847315"><ele>97.8</ele><time>2022-11-01T12:40:40.0000000+00:00</time></trkpt><trkpt lat="39.52998994" lon="-0.50843895"><ele>97.8</ele><time>2022-11-01T12:40:41.0000000+00:00</time></trkpt><trkpt lat="39.52999807" lon="-0.50839964"><ele>97.8</ele><time>2022-11-01T12:40:42.0000000+00:00</time></trkpt><trkpt lat="39.53000478" lon="-0.50835874"><ele>98.0</ele><time>2022-11-01T12:40:43.0000000+00:00</time></trkpt><trkpt lat="39.53001039" lon="-0.50831775"><ele>98.0</ele><time>2022-11-01T12:40:44.0000000+00:00</time></trkpt><trkpt lat="39.53001659" lon="-0.50827224"><ele>98.2</ele><time>2022-11-01T12:40:45.0000000+00:00</time></trkpt><trkpt lat="39.53002917" lon="-0.50822614"><ele>98.2</ele><time>2022-11-01T12:40:46.0000000+00:00</time></trkpt><trkpt lat="39.53004845" lon="-0.50818222"><ele>98.2</ele><time>2022-11-01T12:40:47.0000000+00:00</time></trkpt><trkpt lat="39.53007284" lon="-0.50813771"><ele>98.2</ele><time>2022-11-01T12:40:48.0000000+00:00</time></trkpt><trkpt lat="39.53010419" lon="-0.50809597"><ele>98.2</ele><time>2022-11-01T12:40:49.0000000+00:00</time></trkpt><trkpt lat="39.53013746" lon="-0.50805423"><ele>98.2</ele><time>2022-11-01T12:40:50.0000000+00:00</time></trkpt><trkpt lat="39.53017158" lon="-0.50801039"><ele>98.2</ele><time>2022-11-01T12:40:51.0000000+00:00</time></trkpt><trkpt lat="39.53020234" lon="-0.50796789"><ele>98.2</ele><time>2022-11-01T12:40:52.0000000+00:00</time></trkpt><trkpt lat="39.53023377" lon="-0.50792489"><ele>98.2</ele><time>2022-11-01T12:40:53.0000000+00:00</time></trkpt><trkpt lat="39.5302642" lon="-0.50788583"><ele>98.2</ele><time>2022-11-01T12:40:54.0000000+00:00</time></trkpt><trkpt lat="39.5302937" lon="-0.50785205"><ele>98.2</ele><time>2022-11-01T12:40:55.0000000+00:00</time></trkpt><trkpt lat="39.53032237" lon="-0.50781844"><ele>98.0</ele><time>2022-11-01T12:40:56.0000000+00:00</time></trkpt><trkpt lat="39.53035304" lon="-0.50778349"><ele>98.0</ele><time>2022-11-01T12:40:57.0000000+00:00</time></trkpt><trkpt lat="39.53038523" lon="-0.50774904"><ele>98.0</ele><time>2022-11-01T12:40:58.0000000+00:00</time></trkpt><trkpt lat="39.53041599" lon="-0.5077166"><ele>98.0</ele><time>2022-11-01T12:40:59.0000000+00:00</time></trkpt><trkpt lat="39.53044483" lon="-0.5076871"><ele>98.0</ele><time>2022-11-01T12:41:00.0000000+00:00</time></trkpt><trkpt lat="39.5304776" lon="-0.5076565"><ele>98.2</ele><time>2022-11-01T12:41:01.0000000+00:00</time></trkpt><trkpt lat="39.53051037" lon="-0.50762666"><ele>98.2</ele><time>2022-11-01T12:41:02.0000000+00:00</time></trkpt><trkpt lat="39.53054147" lon="-0.50759515"><ele>98.4</ele><time>2022-11-01T12:41:03.0000000+00:00</time></trkpt><trkpt lat="39.53057273" lon="-0.50756355"><ele>98.6</ele><time>2022-11-01T12:41:04.0000000+00:00</time></trkpt><trkpt lat="39.53060676" lon="-0.5075343"><ele>98.6</ele><time>2022-11-01T12:41:05.0000000+00:00</time></trkpt><trkpt lat="39.53064021" lon="-0.50750923"><ele>98.8</ele><time>2022-11-01T12:41:06.0000000+00:00</time></trkpt><trkpt lat="39.53067164" lon="-0.50748635"><ele>98.8</ele><time>2022-11-01T12:41:07.0000000+00:00</time></trkpt><trkpt lat="39.53070114" lon="-0.50746799"><ele>98.8</ele><time>2022-11-01T12:41:08.0000000+00:00</time></trkpt><trkpt lat="39.53072939" lon="-0.50745039"><ele>99.0</ele><time>2022-11-01T12:41:09.0000000+00:00</time></trkpt><trkpt lat="39.53075605" lon="-0.50743153"><ele>99.2</ele><time>2022-11-01T12:41:10.0000000+00:00</time></trkpt><trkpt lat="39.53078236" lon="-0.5074167"><ele>99.4</ele><time>2022-11-01T12:41:11.0000000+00:00</time></trkpt><trkpt lat="39.53080542" lon="-0.50740094"><ele>99.4</ele><time>2022-11-01T12:41:12.0000000+00:00</time></trkpt><trkpt lat="39.5308309" lon="-0.50737973"><ele>99.6</ele><time>2022-11-01T12:41:13.0000000+00:00</time></trkpt><trkpt lat="39.53085403" lon="-0.50735853"><ele>99.8</ele><time>2022-11-01T12:41:14.0000000+00:00</time></trkpt><trkpt lat="39.53087733" lon="-0.50733908"><ele>99.8</ele><time>2022-11-01T12:41:15.0000000+00:00</time></trkpt><trkpt lat="39.53090013" lon="-0.50731922"><ele>100.2</ele><time>2022-11-01T12:41:16.0000000+00:00</time></trkpt><trkpt lat="39.53092217" lon="-0.50729876"><ele>100.2</ele><time>2022-11-01T12:41:17.0000000+00:00</time></trkpt><trkpt lat="39.53094439" lon="-0.50727697"><ele>100.4</ele><time>2022-11-01T12:41:18.0000000+00:00</time></trkpt><trkpt lat="39.53096869" lon="-0.50725543"><ele>100.6</ele><time>2022-11-01T12:41:19.0000000+00:00</time></trkpt><trkpt lat="39.53099635" lon="-0.50723825"><ele>100.8</ele><time>2022-11-01T12:41:20.0000000+00:00</time></trkpt><trkpt lat="39.5310236" lon="-0.5072245"><ele>100.8</ele><time>2022-11-01T12:41:21.0000000+00:00</time></trkpt><trkpt lat="39.53105042" lon="-0.50720841"><ele>101.0</ele><time>2022-11-01T12:41:22.0000000+00:00</time></trkpt><trkpt lat="39.53107288" lon="-0.50718972"><ele>101.0</ele><time>2022-11-01T12:41:23.0000000+00:00</time></trkpt><trkpt lat="39.53110063" lon="-0.50717052"><ele>101.0</ele><time>2022-11-01T12:41:24.0000000+00:00</time></trkpt><trkpt lat="39.53112812" lon="-0.50715007"><ele>101.2</ele><time>2022-11-01T12:41:25.0000000+00:00</time></trkpt><trkpt lat="39.53115578" lon="-0.50712702"><ele>101.2</ele><time>2022-11-01T12:41:26.0000000+00:00</time></trkpt><trkpt lat="39.53118227" lon="-0.50710355"><ele>101.4</ele><time>2022-11-01T12:41:27.0000000+00:00</time></trkpt><trkpt lat="39.53120875" lon="-0.50708125"><ele>101.6</ele><time>2022-11-01T12:41:28.0000000+00:00</time></trkpt><trkpt lat="39.53123541" lon="-0.50706214"><ele>101.6</ele><time>2022-11-01T12:41:29.0000000+00:00</time></trkpt><trkpt lat="39.53126592" lon="-0.50704127"><ele>101.8</ele><time>2022-11-01T12:41:30.0000000+00:00</time></trkpt><trkpt lat="39.53129626" lon="-0.50702199"><ele>102.0</ele><time>2022-11-01T12:41:31.0000000+00:00</time></trkpt><trkpt lat="39.53132912" lon="-0.50700163"><ele>102.0</ele><time>2022-11-01T12:41:32.0000000+00:00</time></trkpt><trkpt lat="39.5313613" lon="-0.50698017"><ele>102.0</ele><time>2022-11-01T12:41:33.0000000+00:00</time></trkpt><trkpt lat="39.5313919" lon="-0.5069572"><ele>102.2</ele><time>2022-11-01T12:41:34.0000000+00:00</time></trkpt><trkpt lat="39.53142257" lon="-0.50693256"><ele>102.2</ele><time>2022-11-01T12:41:35.0000000+00:00</time></trkpt><trkpt lat="39.53145308" lon="-0.50690959"><ele>102.4</ele><time>2022-11-01T12:41:36.0000000+00:00</time></trkpt><trkpt lat="39.53148577" lon="-0.5068883"><ele>102.6</ele><time>2022-11-01T12:41:37.0000000+00:00</time></trkpt><trkpt lat="39.53151972" lon="-0.50686559"><ele>102.6</ele><time>2022-11-01T12:41:38.0000000+00:00</time></trkpt><trkpt lat="39.53155023" lon="-0.50684346"><ele>102.8</ele><time>2022-11-01T12:41:39.0000000+00:00</time></trkpt><trkpt lat="39.53157605" lon="-0.50681882"><ele>102.8</ele><time>2022-11-01T12:41:40.0000000+00:00</time></trkpt><trkpt lat="39.53160413" lon="-0.50679577"><ele>103.0</ele><time>2022-11-01T12:41:41.0000000+00:00</time></trkpt><trkpt lat="39.53163162" lon="-0.50677213"><ele>103.0</ele><time>2022-11-01T12:41:42.0000000+00:00</time></trkpt><trkpt lat="39.53165668" lon="-0.50674698"><ele>103.0</ele><time>2022-11-01T12:41:43.0000000+00:00</time></trkpt><trkpt lat="39.53168023" lon="-0.50672025"><ele>103.0</ele><time>2022-11-01T12:41:44.0000000+00:00</time></trkpt><trkpt lat="39.53169951" lon="-0.50669099"><ele>103.2</ele><time>2022-11-01T12:41:45.0000000+00:00</time></trkpt><trkpt lat="39.53171426" lon="-0.5066635"><ele>103.2</ele><time>2022-11-01T12:41:46.0000000+00:00</time></trkpt><trkpt lat="39.5317317" lon="-0.50663902"><ele>103.4</ele><time>2022-11-01T12:41:47.0000000+00:00</time></trkpt><trkpt lat="39.53174947" lon="-0.50661413"><ele>103.4</ele><time>2022-11-01T12:41:48.0000000+00:00</time></trkpt><trkpt lat="39.53176389" lon="-0.50659292"><ele>103.4</ele><time>2022-11-01T12:41:49.0000000+00:00</time></trkpt><trkpt lat="39.53177839" lon="-0.50657406"><ele>103.4</ele><time>2022-11-01T12:41:50.0000000+00:00</time></trkpt><trkpt lat="39.53179465" lon="-0.50655839"><ele>103.8</ele><time>2022-11-01T12:41:51.0000000+00:00</time></trkpt><trkpt lat="39.53181309" lon="-0.50653936"><ele>104.0</ele><time>2022-11-01T12:41:52.0000000+00:00</time></trkpt><trkpt lat="39.53183094" lon="-0.50652017"><ele>104.2</ele><time>2022-11-01T12:41:53.0000000+00:00</time></trkpt><trkpt lat="39.5318446" lon="-0.50650014"><ele>104.4</ele><time>2022-11-01T12:41:54.0000000+00:00</time></trkpt><trkpt lat="39.53185659" lon="-0.50648103"><ele>104.4</ele><time>2022-11-01T12:41:55.0000000+00:00</time></trkpt><trkpt lat="39.53187084" lon="-0.50646041"><ele>104.8</ele><time>2022-11-01T12:41:56.0000000+00:00</time></trkpt><trkpt lat="39.53188391" lon="-0.50644004"><ele>105.0</ele><time>2022-11-01T12:41:57.0000000+00:00</time></trkpt><trkpt lat="39.53189573" lon="-0.50642017"><ele>105.0</ele><time>2022-11-01T12:41:58.0000000+00:00</time></trkpt><trkpt lat="39.53190705" lon="-0.50639972"><ele>105.0</ele><time>2022-11-01T12:41:59.0000000+00:00</time></trkpt><trkpt lat="39.5319182" lon="-0.50637935"><ele>105.0</ele><time>2022-11-01T12:42:00.0000000+00:00</time></trkpt><trkpt lat="39.53192624" lon="-0.50635337"><ele>105.2</ele><time>2022-11-01T12:42:01.0000000+00:00</time></trkpt><trkpt lat="39.5319368" lon="-0.50632646"><ele>105.2</ele><time>2022-11-01T12:42:02.0000000+00:00</time></trkpt><trkpt lat="39.53195055" lon="-0.50630081"><ele>105.0</ele><time>2022-11-01T12:42:03.0000000+00:00</time></trkpt><trkpt lat="39.53196463" lon="-0.50627584"><ele>105.0</ele><time>2022-11-01T12:42:04.0000000+00:00</time></trkpt><trkpt lat="39.53197494" lon="-0.50625178"><ele>105.0</ele><time>2022-11-01T12:42:05.0000000+00:00</time></trkpt><trkpt lat="39.5319871" lon="-0.50622898"><ele>105.0</ele><time>2022-11-01T12:42:06.0000000+00:00</time></trkpt><trkpt lat="39.53200914" lon="-0.50620157"><ele>105.0</ele><time>2022-11-01T12:42:07.0000000+00:00</time></trkpt><trkpt lat="39.53202909" lon="-0.50618204"><ele>105.0</ele><time>2022-11-01T12:42:08.0000000+00:00</time></trkpt><trkpt lat="39.53204912" lon="-0.5061683"><ele>105.2</ele><time>2022-11-01T12:42:09.0000000+00:00</time></trkpt><trkpt lat="39.53206605" lon="-0.50615924"><ele>105.2</ele><time>2022-11-01T12:42:10.0000000+00:00</time></trkpt><trkpt lat="39.53208307" lon="-0.50614994"><ele>105.4</ele><time>2022-11-01T12:42:11.0000000+00:00</time></trkpt><trkpt lat="39.53210184" lon="-0.50614424"><ele>105.4</ele><time>2022-11-01T12:42:12.0000000+00:00</time></trkpt><trkpt lat="39.53212204" lon="-0.5061455"><ele>105.6</ele><time>2022-11-01T12:42:13.0000000+00:00</time></trkpt><trkpt lat="39.53214157" lon="-0.50614491"><ele>105.6</ele><time>2022-11-01T12:42:14.0000000+00:00</time></trkpt><trkpt lat="39.5321611" lon="-0.50613594"><ele>105.8</ele><time>2022-11-01T12:42:15.0000000+00:00</time></trkpt><trkpt lat="39.53218684" lon="-0.50613192"><ele>105.8</ele><time>2022-11-01T12:42:16.0000000+00:00</time></trkpt><trkpt lat="39.53221198" lon="-0.50613536"><ele>106.0</ele><time>2022-11-01T12:42:17.0000000+00:00</time></trkpt><trkpt lat="39.53223738" lon="-0.50613795"><ele>106.2</ele><time>2022-11-01T12:42:18.0000000+00:00</time></trkpt><trkpt lat="39.53226554" lon="-0.50613125"><ele>106.4</ele><time>2022-11-01T12:42:19.0000000+00:00</time></trkpt><trkpt lat="39.53228893" lon="-0.50611784"><ele>106.6</ele><time>2022-11-01T12:42:20.0000000+00:00</time></trkpt><trkpt lat="39.53231718" lon="-0.50611398"><ele>107.0</ele><time>2022-11-01T12:42:21.0000000+00:00</time></trkpt><trkpt lat="39.53234945" lon="-0.50611943"><ele>107.2</ele><time>2022-11-01T12:42:22.0000000+00:00</time></trkpt><trkpt lat="39.53237794" lon="-0.50612806"><ele>107.6</ele><time>2022-11-01T12:42:23.0000000+00:00</time></trkpt><trkpt lat="39.5324051" lon="-0.50612521"><ele>107.8</ele><time>2022-11-01T12:42:24.0000000+00:00</time></trkpt><trkpt lat="39.53243394" lon="-0.50611038"><ele>108.0</ele><time>2022-11-01T12:42:25.0000000+00:00</time></trkpt><trkpt lat="39.53245975" lon="-0.50608842"><ele>108.2</ele><time>2022-11-01T12:42:26.0000000+00:00</time></trkpt><trkpt lat="39.53248163" lon="-0.50606797"><ele>108.4</ele><time>2022-11-01T12:42:27.0000000+00:00</time></trkpt><trkpt lat="39.53250166" lon="-0.50604936"><ele>108.4</ele><time>2022-11-01T12:42:28.0000000+00:00</time></trkpt><trkpt lat="39.53251968" lon="-0.50602857"><ele>108.6</ele><time>2022-11-01T12:42:29.0000000+00:00</time></trkpt><trkpt lat="39.53254005" lon="-0.50601147"><ele>108.6</ele><time>2022-11-01T12:42:30.0000000+00:00</time></trkpt><trkpt lat="39.53256193" lon="-0.50600376"><ele>108.8</ele><time>2022-11-01T12:42:31.0000000+00:00</time></trkpt><trkpt lat="39.53258598" lon="-0.50600577"><ele>108.8</ele><time>2022-11-01T12:42:32.0000000+00:00</time></trkpt><trkpt lat="39.53261163" lon="-0.50601206"><ele>109.0</ele><time>2022-11-01T12:42:33.0000000+00:00</time></trkpt><trkpt lat="39.53263468" lon="-0.50601734"><ele>109.0</ele><time>2022-11-01T12:42:34.0000000+00:00</time></trkpt><trkpt lat="39.53265765" lon="-0.50602413"><ele>109.4</ele><time>2022-11-01T12:42:35.0000000+00:00</time></trkpt><trkpt lat="39.53268564" lon="-0.50603838"><ele>109.4</ele><time>2022-11-01T12:42:36.0000000+00:00</time></trkpt><trkpt lat="39.53270559" lon="-0.50604701"><ele>109.8</ele><time>2022-11-01T12:42:37.0000000+00:00</time></trkpt><trkpt lat="39.53272797" lon="-0.50605707"><ele>110.2</ele><time>2022-11-01T12:42:38.0000000+00:00</time></trkpt><trkpt lat="39.53275429" lon="-0.50606964"><ele>110.4</ele><time>2022-11-01T12:42:39.0000000+00:00</time></trkpt><trkpt lat="39.53278665" lon="-0.50608791"><ele>110.8</ele><time>2022-11-01T12:42:40.0000000+00:00</time></trkpt><trkpt lat="39.53281347" lon="-0.50608951"><ele>111.0</ele><time>2022-11-01T12:42:41.0000000+00:00</time></trkpt><trkpt lat="39.532833" lon="-0.5060797"><ele>111.0</ele><time>2022-11-01T12:42:42.0000000+00:00</time></trkpt><trkpt lat="39.5328532" lon="-0.50606134"><ele>111.2</ele><time>2022-11-01T12:42:43.0000000+00:00</time></trkpt><trkpt lat="39.53287248" lon="-0.50604517"><ele>111.2</ele><time>2022-11-01T12:42:44.0000000+00:00</time></trkpt><trkpt lat="39.53288706" lon="-0.50603033"><ele>111.2</ele><time>2022-11-01T12:42:45.0000000+00:00</time></trkpt><trkpt lat="39.53290835" lon="-0.50601273"><ele>111.2</ele><time>2022-11-01T12:42:46.0000000+00:00</time></trkpt><trkpt lat="39.5329288" lon="-0.50600787"><ele>111.4</ele><time>2022-11-01T12:42:47.0000000+00:00</time></trkpt><trkpt lat="39.53295127" lon="-0.50601206"><ele>111.4</ele><time>2022-11-01T12:42:48.0000000+00:00</time></trkpt><trkpt lat="39.53297448" lon="-0.50602715"><ele>111.4</ele><time>2022-11-01T12:42:49.0000000+00:00</time></trkpt><trkpt lat="39.5329977" lon="-0.50604634"><ele>111.6</ele><time>2022-11-01T12:42:50.0000000+00:00</time></trkpt><trkpt lat="39.53301891" lon="-0.50606369"><ele>111.6</ele><time>2022-11-01T12:42:51.0000000+00:00</time></trkpt><trkpt lat="39.53303676" lon="-0.50607115"><ele>111.8</ele><time>2022-11-01T12:42:52.0000000+00:00</time></trkpt><trkpt lat="39.53305537" lon="-0.50607467"><ele>112.0</ele><time>2022-11-01T12:42:53.0000000+00:00</time></trkpt><trkpt lat="39.53307373" lon="-0.5060828"><ele>112.0</ele><time>2022-11-01T12:42:54.0000000+00:00</time></trkpt><trkpt lat="39.53309049" lon="-0.50609068"><ele>112.2</ele><time>2022-11-01T12:42:55.0000000+00:00</time></trkpt><trkpt lat="39.53311077" lon="-0.50609906"><ele>112.2</ele><time>2022-11-01T12:42:56.0000000+00:00</time></trkpt><trkpt lat="39.53312955" lon="-0.50610267"><ele>112.2</ele><time>2022-11-01T12:42:57.0000000+00:00</time></trkpt><trkpt lat="39.533149" lon="-0.50610543"><ele>112.4</ele><time>2022-11-01T12:42:58.0000000+00:00</time></trkpt><trkpt lat="39.53316869" lon="-0.50610719"><ele>112.4</ele><time>2022-11-01T12:42:59.0000000+00:00</time></trkpt><trkpt lat="39.53318923" lon="-0.50610225"><ele>112.6</ele><time>2022-11-01T12:43:00.0000000+00:00</time></trkpt><trkpt lat="39.53320926" lon="-0.50609093"><ele>112.8</ele><time>2022-11-01T12:43:01.0000000+00:00</time></trkpt><trkpt lat="39.53322996" lon="-0.50607174"><ele>113.0</ele><time>2022-11-01T12:43:02.0000000+00:00</time></trkpt><trkpt lat="39.53324606" lon="-0.50604852"><ele>113.2</ele><time>2022-11-01T12:43:03.0000000+00:00</time></trkpt><trkpt lat="39.53325612" lon="-0.50602849"><ele>113.4</ele><time>2022-11-01T12:43:04.0000000+00:00</time></trkpt><trkpt lat="39.53326374" lon="-0.50601013"><ele>113.6</ele><time>2022-11-01T12:43:05.0000000+00:00</time></trkpt><trkpt lat="39.5332764" lon="-0.50599362"><ele>113.6</ele><time>2022-11-01T12:43:06.0000000+00:00</time></trkpt><trkpt lat="39.53329476" lon="-0.50597635"><ele>113.8</ele><time>2022-11-01T12:43:07.0000000+00:00</time></trkpt><trkpt lat="39.53331764" lon="-0.50595665"><ele>113.8</ele><time>2022-11-01T12:43:08.0000000+00:00</time></trkpt><trkpt lat="39.53334136" lon="-0.50593084"><ele>113.8</ele><time>2022-11-01T12:43:09.0000000+00:00</time></trkpt><trkpt lat="39.53336776" lon="-0.50590351"><ele>113.8</ele><time>2022-11-01T12:43:10.0000000+00:00</time></trkpt><trkpt lat="39.53339249" lon="-0.50588113"><ele>113.8</ele><time>2022-11-01T12:43:11.0000000+00:00</time></trkpt><trkpt lat="39.53341579" lon="-0.50586194"><ele>113.8</ele><time>2022-11-01T12:43:12.0000000+00:00</time></trkpt><trkpt lat="39.53343876" lon="-0.50584157"><ele>114.0</ele><time>2022-11-01T12:43:13.0000000+00:00</time></trkpt><trkpt lat="39.53346223" lon="-0.50582933"><ele>114.0</ele><time>2022-11-01T12:43:14.0000000+00:00</time></trkpt><trkpt lat="39.53349299" lon="-0.5058259"><ele>114.0</ele><time>2022-11-01T12:43:15.0000000+00:00</time></trkpt><trkpt lat="39.53352526" lon="-0.50583344"><ele>114.2</ele><time>2022-11-01T12:43:16.0000000+00:00</time></trkpt><trkpt lat="39.53355367" lon="-0.50585046"><ele>114.2</ele><time>2022-11-01T12:43:17.0000000+00:00</time></trkpt><trkpt lat="39.53357698" lon="-0.50586839"><ele>114.4</ele><time>2022-11-01T12:43:18.0000000+00:00</time></trkpt><trkpt lat="39.53359684" lon="-0.50588314"><ele>115.0</ele><time>2022-11-01T12:43:19.0000000+00:00</time></trkpt><trkpt lat="39.53361369" lon="-0.50589186"><ele>115.4</ele><time>2022-11-01T12:43:20.0000000+00:00</time></trkpt><trkpt lat="39.53363372" lon="-0.50590175"><ele>115.6</ele><time>2022-11-01T12:43:21.0000000+00:00</time></trkpt><trkpt lat="39.53366105" lon="-0.50590712"><ele>115.8</ele><time>2022-11-01T12:43:22.0000000+00:00</time></trkpt><trkpt lat="39.5336908" lon="-0.50590812"><ele>116.0</ele><time>2022-11-01T12:43:23.0000000+00:00</time></trkpt><trkpt lat="39.53371754" lon="-0.5059098"><ele>116.0</ele><time>2022-11-01T12:43:24.0000000+00:00</time></trkpt><trkpt lat="39.53374436" lon="-0.5059103"><ele>116.2</ele><time>2022-11-01T12:43:25.0000000+00:00</time></trkpt><trkpt lat="39.53376657" lon="-0.50591324"><ele>116.4</ele><time>2022-11-01T12:43:26.0000000+00:00</time></trkpt><trkpt lat="39.53379029" lon="-0.50591508"><ele>116.4</ele><time>2022-11-01T12:43:27.0000000+00:00</time></trkpt><trkpt lat="39.53381435" lon="-0.50591139"><ele>116.6</ele><time>2022-11-01T12:43:28.0000000+00:00</time></trkpt><trkpt lat="39.53384042" lon="-0.50591567"><ele>117.0</ele><time>2022-11-01T12:43:29.0000000+00:00</time></trkpt><trkpt lat="39.53387369" lon="-0.50593335"><ele>117.0</ele><time>2022-11-01T12:43:30.0000000+00:00</time></trkpt><trkpt lat="39.53389959" lon="-0.50594324"><ele>117.6</ele><time>2022-11-01T12:43:31.0000000+00:00</time></trkpt><trkpt lat="39.53392332" lon="-0.50595087"><ele>117.8</ele><time>2022-11-01T12:43:32.0000000+00:00</time></trkpt><trkpt lat="39.53394997" lon="-0.50595439"><ele>118.0</ele><time>2022-11-01T12:43:33.0000000+00:00</time></trkpt><trkpt lat="39.53398065" lon="-0.50596411"><ele>118.0</ele><time>2022-11-01T12:43:34.0000000+00:00</time></trkpt><trkpt lat="39.53400529" lon="-0.5059735"><ele>118.0</ele><time>2022-11-01T12:43:35.0000000+00:00</time></trkpt><trkpt lat="39.53403479" lon="-0.50597895"><ele>118.2</ele><time>2022-11-01T12:43:36.0000000+00:00</time></trkpt><trkpt lat="39.5340653" lon="-0.5059725"><ele>118.2</ele><time>2022-11-01T12:43:37.0000000+00:00</time></trkpt><trkpt lat="39.53409456" lon="-0.5059502"><ele>118.2</ele><time>2022-11-01T12:43:38.0000000+00:00</time></trkpt><trkpt lat="39.53412599" lon="-0.50593142"><ele>118.2</ele><time>2022-11-01T12:43:39.0000000+00:00</time></trkpt><trkpt lat="39.53415985" lon="-0.50592321"><ele>118.2</ele><time>2022-11-01T12:43:40.0000000+00:00</time></trkpt><trkpt lat="39.53419481" lon="-0.50591944"><ele>118.2</ele><time>2022-11-01T12:43:41.0000000+00:00</time></trkpt><trkpt lat="39.53422749" lon="-0.5059093"><ele>118.4</ele><time>2022-11-01T12:43:42.0000000+00:00</time></trkpt><trkpt lat="39.53426094" lon="-0.5058953"><ele>118.4</ele><time>2022-11-01T12:43:43.0000000+00:00</time></trkpt><trkpt lat="39.53429002" lon="-0.50588222"><ele>118.4</ele><time>2022-11-01T12:43:44.0000000+00:00</time></trkpt><trkpt lat="39.53431643" lon="-0.50587351"><ele>118.4</ele><time>2022-11-01T12:43:45.0000000+00:00</time></trkpt><trkpt lat="39.53434275" lon="-0.50586194"><ele>118.6</ele><time>2022-11-01T12:43:46.0000000+00:00</time></trkpt><trkpt lat="39.53436965" lon="-0.50585213"><ele>118.6</ele><time>2022-11-01T12:43:47.0000000+00:00</time></trkpt><trkpt lat="39.5343948" lon="-0.50584291"><ele>118.8</ele><time>2022-11-01T12:43:48.0000000+00:00</time></trkpt><trkpt lat="39.53442179" lon="-0.50583336"><ele>118.8</ele><time>2022-11-01T12:43:49.0000000+00:00</time></trkpt><trkpt lat="39.53444668" lon="-0.50582439"><ele>119.0</ele><time>2022-11-01T12:43:50.0000000+00:00</time></trkpt><trkpt lat="39.53447208" lon="-0.50581609"><ele>119.0</ele><time>2022-11-01T12:43:51.0000000+00:00</time></trkpt><trkpt lat="39.53449647" lon="-0.50580444"><ele>119.2</ele><time>2022-11-01T12:43:52.0000000+00:00</time></trkpt><trkpt lat="39.53451374" lon="-0.50578558"><ele>119.4</ele><time>2022-11-01T12:43:53.0000000+00:00</time></trkpt><trkpt lat="39.53452765" lon="-0.50576219"><ele>119.6</ele><time>2022-11-01T12:43:54.0000000+00:00</time></trkpt><trkpt lat="39.53454156" lon="-0.50573705"><ele>119.6</ele><time>2022-11-01T12:43:55.0000000+00:00</time></trkpt><trkpt lat="39.53455715" lon="-0.50571048"><ele>119.8</ele><time>2022-11-01T12:43:56.0000000+00:00</time></trkpt><trkpt lat="39.53457593" lon="-0.50568516"><ele>119.8</ele><time>2022-11-01T12:43:57.0000000+00:00</time></trkpt><trkpt lat="39.53459404" lon="-0.50565717"><ele>119.8</ele><time>2022-11-01T12:43:58.0000000+00:00</time></trkpt><trkpt lat="39.53461323" lon="-0.50562892"><ele>119.8</ele><time>2022-11-01T12:43:59.0000000+00:00</time></trkpt><trkpt lat="39.53463318" lon="-0.50560176"><ele>120.0</ele><time>2022-11-01T12:44:00.0000000+00:00</time></trkpt><trkpt lat="39.5346548" lon="-0.50557997"><ele>120.0</ele><time>2022-11-01T12:44:01.0000000+00:00</time></trkpt><trkpt lat="39.5346771" lon="-0.50556279"><ele>120.0</ele><time>2022-11-01T12:44:02.0000000+00:00</time></trkpt><trkpt lat="39.53470174" lon="-0.50554644"><ele>120.0</ele><time>2022-11-01T12:44:03.0000000+00:00</time></trkpt><trkpt lat="39.53472446" lon="-0.50553027"><ele>120.2</ele><time>2022-11-01T12:44:04.0000000+00:00</time></trkpt><trkpt lat="39.53474524" lon="-0.50550923"><ele>120.4</ele><time>2022-11-01T12:44:05.0000000+00:00</time></trkpt><trkpt lat="39.53476586" lon="-0.50548291"><ele>120.6</ele><time>2022-11-01T12:44:06.0000000+00:00</time></trkpt><trkpt lat="39.53478464" lon="-0.50545667"><ele>120.6</ele><time>2022-11-01T12:44:07.0000000+00:00</time></trkpt><trkpt lat="39.53479922" lon="-0.50542776"><ele>120.8</ele><time>2022-11-01T12:44:08.0000000+00:00</time></trkpt><trkpt lat="39.53482043" lon="-0.50539557"><ele>120.8</ele><time>2022-11-01T12:44:09.0000000+00:00</time></trkpt><trkpt lat="39.5348439" lon="-0.50536187"><ele>120.8</ele><time>2022-11-01T12:44:10.0000000+00:00</time></trkpt><trkpt lat="39.53486661" lon="-0.50532742"><ele>120.8</ele><time>2022-11-01T12:44:11.0000000+00:00</time></trkpt><trkpt lat="39.53489" lon="-0.50529071"><ele>120.8</ele><time>2022-11-01T12:44:12.0000000+00:00</time></trkpt><trkpt lat="39.53491573" lon="-0.50525534"><ele>120.8</ele><time>2022-11-01T12:44:13.0000000+00:00</time></trkpt><trkpt lat="39.53494281" lon="-0.50521846"><ele>120.8</ele><time>2022-11-01T12:44:14.0000000+00:00</time></trkpt><trkpt lat="39.53496812" lon="-0.50517982"><ele>120.8</ele><time>2022-11-01T12:44:15.0000000+00:00</time></trkpt><trkpt lat="39.53499394" lon="-0.50514344"><ele>120.8</ele><time>2022-11-01T12:44:16.0000000+00:00</time></trkpt><trkpt lat="39.53502143" lon="-0.50510405"><ele>120.8</ele><time>2022-11-01T12:44:17.0000000+00:00</time></trkpt><trkpt lat="39.53504641" lon="-0.50506407"><ele>120.8</ele><time>2022-11-01T12:44:18.0000000+00:00</time></trkpt><trkpt lat="39.53506971" lon="-0.50502752"><ele>121.0</ele><time>2022-11-01T12:44:19.0000000+00:00</time></trkpt><trkpt lat="39.53509586" lon="-0.50499408"><ele>121.0</ele><time>2022-11-01T12:44:20.0000000+00:00</time></trkpt><trkpt lat="39.53512318" lon="-0.5049603"><ele>121.2</ele><time>2022-11-01T12:44:21.0000000+00:00</time></trkpt><trkpt lat="39.5351495" lon="-0.50492534"><ele>121.2</ele><time>2022-11-01T12:44:22.0000000+00:00</time></trkpt><trkpt lat="39.53517549" lon="-0.50488595"><ele>121.4</ele><time>2022-11-01T12:44:23.0000000+00:00</time></trkpt><trkpt lat="39.53520223" lon="-0.50484555"><ele>121.4</ele><time>2022-11-01T12:44:24.0000000+00:00</time></trkpt><trkpt lat="39.53522737" lon="-0.50480716"><ele>121.4</ele><time>2022-11-01T12:44:25.0000000+00:00</time></trkpt><trkpt lat="39.53525503" lon="-0.50476818"><ele>121.6</ele><time>2022-11-01T12:44:26.0000000+00:00</time></trkpt><trkpt lat="39.53528152" lon="-0.50472829"><ele>121.8</ele><time>2022-11-01T12:44:27.0000000+00:00</time></trkpt><trkpt lat="39.53530859" lon="-0.50468671"><ele>121.8</ele><time>2022-11-01T12:44:28.0000000+00:00</time></trkpt><trkpt lat="39.53533307" lon="-0.50464874"><ele>122.0</ele><time>2022-11-01T12:44:29.0000000+00:00</time></trkpt><trkpt lat="39.5353619" lon="-0.5046106"><ele>122.0</ele><time>2022-11-01T12:44:30.0000000+00:00</time></trkpt><trkpt lat="39.53538789" lon="-0.50457314"><ele>122.0</ele><time>2022-11-01T12:44:31.0000000+00:00</time></trkpt><trkpt lat="39.53541278" lon="-0.50453844"><ele>122.0</ele><time>2022-11-01T12:44:32.0000000+00:00</time></trkpt><trkpt lat="39.53543734" lon="-0.50450566"><ele>122.2</ele><time>2022-11-01T12:44:33.0000000+00:00</time></trkpt><trkpt lat="39.53546399" lon="-0.50447322"><ele>122.2</ele><time>2022-11-01T12:44:34.0000000+00:00</time></trkpt><trkpt lat="39.53548604" lon="-0.50444104"><ele>122.2</ele><time>2022-11-01T12:44:35.0000000+00:00</time></trkpt><trkpt lat="39.53550582" lon="-0.50440676"><ele>122.2</ele><time>2022-11-01T12:44:36.0000000+00:00</time></trkpt><trkpt lat="39.53552434" lon="-0.5043739"><ele>122.4</ele><time>2022-11-01T12:44:37.0000000+00:00</time></trkpt><trkpt lat="39.53554781" lon="-0.50434222"><ele>122.6</ele><time>2022-11-01T12:44:38.0000000+00:00</time></trkpt><trkpt lat="39.53557505" lon="-0.50431171"><ele>122.6</ele><time>2022-11-01T12:44:39.0000000+00:00</time></trkpt><trkpt lat="39.53560087" lon="-0.50427935"><ele>122.8</ele><time>2022-11-01T12:44:40.0000000+00:00</time></trkpt><trkpt lat="39.53561847" lon="-0.50424348"><ele>122.8</ele><time>2022-11-01T12:44:41.0000000+00:00</time></trkpt><trkpt lat="39.53563549" lon="-0.50420727"><ele>123.0</ele><time>2022-11-01T12:44:42.0000000+00:00</time></trkpt><trkpt lat="39.53565393" lon="-0.50416905"><ele>123.0</ele><time>2022-11-01T12:44:43.0000000+00:00</time></trkpt><trkpt lat="39.53567438" lon="-0.50412806"><ele>123.0</ele><time>2022-11-01T12:44:44.0000000+00:00</time></trkpt><trkpt lat="39.53569332" lon="-0.5040859"><ele>123.2</ele><time>2022-11-01T12:44:45.0000000+00:00</time></trkpt><trkpt lat="39.53571134" lon="-0.5040398"><ele>123.2</ele><time>2022-11-01T12:44:46.0000000+00:00</time></trkpt><trkpt lat="39.53572953" lon="-0.50399403"><ele>123.4</ele><time>2022-11-01T12:44:47.0000000+00:00</time></trkpt><trkpt lat="39.5357463" lon="-0.50395095"><ele>123.4</ele><time>2022-11-01T12:44:48.0000000+00:00</time></trkpt><trkpt lat="39.53576247" lon="-0.50390812"><ele>123.4</ele><time>2022-11-01T12:44:49.0000000+00:00</time></trkpt><trkpt lat="39.5357794" lon="-0.50386227"><ele>123.6</ele><time>2022-11-01T12:44:50.0000000+00:00</time></trkpt><trkpt lat="39.53579449" lon="-0.50381835"><ele>123.6</ele><time>2022-11-01T12:44:51.0000000+00:00</time></trkpt><trkpt lat="39.53581151" lon="-0.5037756"><ele>123.8</ele><time>2022-11-01T12:44:52.0000000+00:00</time></trkpt><trkpt lat="39.53582559" lon="-0.5037352"><ele>123.8</ele><time>2022-11-01T12:44:53.0000000+00:00</time></trkpt><trkpt lat="39.53584076" lon="-0.50369346"><ele>124.0</ele><time>2022-11-01T12:44:54.0000000+00:00</time></trkpt><trkpt lat="39.5358571" lon="-0.5036544"><ele>124.2</ele><time>2022-11-01T12:44:55.0000000+00:00</time></trkpt><trkpt lat="39.5358737" lon="-0.50361768"><ele>124.4</ele><time>2022-11-01T12:44:56.0000000+00:00</time></trkpt><trkpt lat="39.53588979" lon="-0.50358432"><ele>124.4</ele><time>2022-11-01T12:44:57.0000000+00:00</time></trkpt><trkpt lat="39.53591066" lon="-0.50355373"><ele>124.6</ele><time>2022-11-01T12:44:58.0000000+00:00</time></trkpt><trkpt lat="39.53593254" lon="-0.50352766"><ele>124.6</ele><time>2022-11-01T12:44:59.0000000+00:00</time></trkpt><trkpt lat="39.53595769" lon="-0.50349883"><ele>124.6</ele><time>2022-11-01T12:45:00.0000000+00:00</time></trkpt><trkpt lat="39.53597336" lon="-0.50347603"><ele>124.8</ele><time>2022-11-01T12:45:01.0000000+00:00</time></trkpt><trkpt lat="39.53598166" lon="-0.50345675"><ele>124.8</ele><time>2022-11-01T12:45:02.0000000+00:00</time></trkpt><trkpt lat="39.53599465" lon="-0.50342616"><ele>125.0</ele><time>2022-11-01T12:45:03.0000000+00:00</time></trkpt><trkpt lat="39.53601142" lon="-0.50339942"><ele>125.0</ele><time>2022-11-01T12:45:04.0000000+00:00</time></trkpt><trkpt lat="39.53603086" lon="-0.50336941"><ele>125.0</ele><time>2022-11-01T12:45:05.0000000+00:00</time></trkpt><trkpt lat="39.53604897" lon="-0.50333798"><ele>125.2</ele><time>2022-11-01T12:45:06.0000000+00:00</time></trkpt><trkpt lat="39.53606489" lon="-0.50330496"><ele>125.4</ele><time>2022-11-01T12:45:07.0000000+00:00</time></trkpt><trkpt lat="39.53607713" lon="-0.50326766"><ele>125.6</ele><time>2022-11-01T12:45:08.0000000+00:00</time></trkpt><trkpt lat="39.5360861" lon="-0.5032317"><ele>125.8</ele><time>2022-11-01T12:45:09.0000000+00:00</time></trkpt><trkpt lat="39.5360954" lon="-0.50319582"><ele>125.8</ele><time>2022-11-01T12:45:10.0000000+00:00</time></trkpt><trkpt lat="39.53610412" lon="-0.50316783"><ele>126.0</ele><time>2022-11-01T12:45:11.0000000+00:00</time></trkpt><trkpt lat="39.53611426" lon="-0.5031343"><ele>126.2</ele><time>2022-11-01T12:45:12.0000000+00:00</time></trkpt><trkpt lat="39.53612063" lon="-0.5031027"><ele>126.4</ele><time>2022-11-01T12:45:13.0000000+00:00</time></trkpt><trkpt lat="39.53612382" lon="-0.50307177"><ele>126.6</ele><time>2022-11-01T12:45:14.0000000+00:00</time></trkpt><trkpt lat="39.53612641" lon="-0.5030416"><ele>126.6</ele><time>2022-11-01T12:45:15.0000000+00:00</time></trkpt><trkpt lat="39.53613237" lon="-0.50301259"><ele>126.6</ele><time>2022-11-01T12:45:16.0000000+00:00</time></trkpt><trkpt lat="39.53613597" lon="-0.50298602"><ele>126.8</ele><time>2022-11-01T12:45:17.0000000+00:00</time></trkpt><trkpt lat="39.5361374" lon="-0.50295895"><ele>127.0</ele><time>2022-11-01T12:45:18.0000000+00:00</time></trkpt><trkpt lat="39.53614201" lon="-0.50293523"><ele>127.0</ele><time>2022-11-01T12:45:19.0000000+00:00</time></trkpt><trkpt lat="39.53614888" lon="-0.50291042"><ele>127.2</ele><time>2022-11-01T12:45:20.0000000+00:00</time></trkpt><trkpt lat="39.53615072" lon="-0.50288267"><ele>127.2</ele><time>2022-11-01T12:45:21.0000000+00:00</time></trkpt><trkpt lat="39.53615206" lon="-0.5028561"><ele>127.4</ele><time>2022-11-01T12:45:22.0000000+00:00</time></trkpt><trkpt lat="39.53615416" lon="-0.50282928"><ele>127.6</ele><time>2022-11-01T12:45:23.0000000+00:00</time></trkpt><trkpt lat="39.53615391" lon="-0.50280271"><ele>127.6</ele><time>2022-11-01T12:45:24.0000000+00:00</time></trkpt><trkpt lat="39.53616003" lon="-0.50277455"><ele>127.6</ele><time>2022-11-01T12:45:25.0000000+00:00</time></trkpt><trkpt lat="39.53616841" lon="-0.50274949"><ele>127.8</ele><time>2022-11-01T12:45:26.0000000+00:00</time></trkpt><trkpt lat="39.53617444" lon="-0.50272392"><ele>128.0</ele><time>2022-11-01T12:45:27.0000000+00:00</time></trkpt><trkpt lat="39.53618081" lon="-0.50269593"><ele>128.2</ele><time>2022-11-01T12:45:28.0000000+00:00</time></trkpt><trkpt lat="39.53618383" lon="-0.50267237"><ele>128.2</ele><time>2022-11-01T12:45:29.0000000+00:00</time></trkpt><trkpt lat="39.53618366" lon="-0.50265024"><ele>128.4</ele><time>2022-11-01T12:45:30.0000000+00:00</time></trkpt><trkpt lat="39.53618635" lon="-0.50261915"><ele>128.6</ele><time>2022-11-01T12:45:31.0000000+00:00</time></trkpt><trkpt lat="39.53618727" lon="-0.50259576"><ele>128.6</ele><time>2022-11-01T12:45:32.0000000+00:00</time></trkpt><trkpt lat="39.53619096" lon="-0.50257472"><ele>128.6</ele><time>2022-11-01T12:45:33.0000000+00:00</time></trkpt><trkpt lat="39.53619867" lon="-0.50254589"><ele>129.0</ele><time>2022-11-01T12:45:34.0000000+00:00</time></trkpt><trkpt lat="39.53620378" lon="-0.50253038"><ele>129.2</ele><time>2022-11-01T12:45:35.0000000+00:00</time></trkpt><trkpt lat="39.5362099" lon="-0.50251111"><ele>129.4</ele><time>2022-11-01T12:45:36.0000000+00:00</time></trkpt><trkpt lat="39.53621945" lon="-0.50249275"><ele>129.6</ele><time>2022-11-01T12:45:37.0000000+00:00</time></trkpt><trkpt lat="39.53622758" lon="-0.50247716"><ele>130.0</ele><time>2022-11-01T12:45:38.0000000+00:00</time></trkpt><trkpt lat="39.5362353" lon="-0.50245863"><ele>130.2</ele><time>2022-11-01T12:45:39.0000000+00:00</time></trkpt><trkpt lat="39.53624351" lon="-0.50243902"><ele>130.2</ele><time>2022-11-01T12:45:40.0000000+00:00</time></trkpt><trkpt lat="39.53624862" lon="-0.50242025"><ele>130.4</ele><time>2022-11-01T12:45:41.0000000+00:00</time></trkpt><trkpt lat="39.53625399" lon="-0.50240021"><ele>130.4</ele><time>2022-11-01T12:45:42.0000000+00:00</time></trkpt><trkpt lat="39.53625826" lon="-0.50238211"><ele>130.6</ele><time>2022-11-01T12:45:43.0000000+00:00</time></trkpt><trkpt lat="39.5362643" lon="-0.50236543"><ele>130.6</ele><time>2022-11-01T12:45:44.0000000+00:00</time></trkpt><trkpt lat="39.53627084" lon="-0.50234917"><ele>130.6</ele><time>2022-11-01T12:45:45.0000000+00:00</time></trkpt><trkpt lat="39.53627695" lon="-0.50232855"><ele>130.6</ele><time>2022-11-01T12:45:46.0000000+00:00</time></trkpt><trkpt lat="39.53628089" lon="-0.50230701"><ele>130.6</ele><time>2022-11-01T12:45:47.0000000+00:00</time></trkpt><trkpt lat="39.53628073" lon="-0.50228345"><ele>130.6</ele><time>2022-11-01T12:45:48.0000000+00:00</time></trkpt><trkpt lat="39.53628332" lon="-0.50225713"><ele>130.6</ele><time>2022-11-01T12:45:49.0000000+00:00</time></trkpt><trkpt lat="39.53628475" lon="-0.50222972"><ele>130.4</ele><time>2022-11-01T12:45:50.0000000+00:00</time></trkpt><trkpt lat="39.53628793" lon="-0.50219729"><ele>130.4</ele><time>2022-11-01T12:45:51.0000000+00:00</time></trkpt><trkpt lat="39.5362902" lon="-0.50216041"><ele>130.4</ele><time>2022-11-01T12:45:52.0000000+00:00</time></trkpt><trkpt lat="39.53628944" lon="-0.50212051"><ele>130.2</ele><time>2022-11-01T12:45:53.0000000+00:00</time></trkpt><trkpt lat="39.53628324" lon="-0.50208036"><ele>130.2</ele><time>2022-11-01T12:45:54.0000000+00:00</time></trkpt><trkpt lat="39.5362814" lon="-0.50203828"><ele>130.2</ele><time>2022-11-01T12:45:55.0000000+00:00</time></trkpt><trkpt lat="39.53628257" lon="-0.5019926"><ele>130.2</ele><time>2022-11-01T12:45:56.0000000+00:00</time></trkpt><trkpt lat="39.53628634" lon="-0.50194264"><ele>130.0</ele><time>2022-11-01T12:45:57.0000000+00:00</time></trkpt><trkpt lat="39.53629187" lon="-0.50189311"><ele>129.8</ele><time>2022-11-01T12:45:58.0000000+00:00</time></trkpt><trkpt lat="39.53629422" lon="-0.50184189"><ele>129.8</ele><time>2022-11-01T12:45:59.0000000+00:00</time></trkpt><trkpt lat="39.53629254" lon="-0.50178825"><ele>129.8</ele><time>2022-11-01T12:46:00.0000000+00:00</time></trkpt><trkpt lat="39.53628835" lon="-0.50173167"><ele>129.6</ele><time>2022-11-01T12:46:01.0000000+00:00</time></trkpt><trkpt lat="39.53628819" lon="-0.50167568"><ele>129.6</ele><time>2022-11-01T12:46:02.0000000+00:00</time></trkpt><trkpt lat="39.53629254" lon="-0.50162019"><ele>129.6</ele><time>2022-11-01T12:46:03.0000000+00:00</time></trkpt><trkpt lat="39.53630026" lon="-0.50156177"><ele>129.4</ele><time>2022-11-01T12:46:04.0000000+00:00</time></trkpt><trkpt lat="39.53630763" lon="-0.50150243"><ele>129.2</ele><time>2022-11-01T12:46:05.0000000+00:00</time></trkpt><trkpt lat="39.53631375" lon="-0.50144375"><ele>129.0</ele><time>2022-11-01T12:46:06.0000000+00:00</time></trkpt><trkpt lat="39.53632163" lon="-0.50139229"><ele>128.2</ele><time>2022-11-01T12:46:07.0000000+00:00</time></trkpt><trkpt lat="39.53632783" lon="-0.50134988"><ele>127.8</ele><time>2022-11-01T12:46:08.0000000+00:00</time></trkpt><trkpt lat="39.53633529" lon="-0.50130629"><ele>127.6</ele><time>2022-11-01T12:46:09.0000000+00:00</time></trkpt><trkpt lat="39.53634108" lon="-0.50125139"><ele>127.4</ele><time>2022-11-01T12:46:10.0000000+00:00</time></trkpt><trkpt lat="39.53634183" lon="-0.50119825"><ele>127.2</ele><time>2022-11-01T12:46:11.0000000+00:00</time></trkpt><trkpt lat="39.53634812" lon="-0.50114729"><ele>127.2</ele><time>2022-11-01T12:46:12.0000000+00:00</time></trkpt><trkpt lat="39.53635893" lon="-0.50110462"><ele>127.2</ele><time>2022-11-01T12:46:13.0000000+00:00</time></trkpt><trkpt lat="39.53636857" lon="-0.50106355"><ele>127.0</ele><time>2022-11-01T12:46:14.0000000+00:00</time></trkpt><trkpt lat="39.53638181" lon="-0.50101887"><ele>127.0</ele><time>2022-11-01T12:46:15.0000000+00:00</time></trkpt><trkpt lat="39.53639279" lon="-0.50097277"><ele>127.0</ele><time>2022-11-01T12:46:16.0000000+00:00</time></trkpt><trkpt lat="39.53639841" lon="-0.50091729"><ele>127.0</ele><time>2022-11-01T12:46:17.0000000+00:00</time></trkpt><trkpt lat="39.53640319" lon="-0.50086247"><ele>127.0</ele><time>2022-11-01T12:46:18.0000000+00:00</time></trkpt><trkpt lat="39.53641408" lon="-0.50080262"><ele>127.0</ele><time>2022-11-01T12:46:19.0000000+00:00</time></trkpt><trkpt lat="39.53641945" lon="-0.50075325"><ele>127.0</ele><time>2022-11-01T12:46:20.0000000+00:00</time></trkpt><trkpt lat="39.5364228" lon="-0.50069223"><ele>126.8</ele><time>2022-11-01T12:46:21.0000000+00:00</time></trkpt><trkpt lat="39.53642213" lon="-0.50064286"><ele>126.6</ele><time>2022-11-01T12:46:22.0000000+00:00</time></trkpt><trkpt lat="39.53642716" lon="-0.50059006"><ele>126.6</ele><time>2022-11-01T12:46:23.0000000+00:00</time></trkpt><trkpt lat="39.53644074" lon="-0.50052476"><ele>126.6</ele><time>2022-11-01T12:46:24.0000000+00:00</time></trkpt><trkpt lat="39.53645708" lon="-0.50043524"><ele>126.4</ele><time>2022-11-01T12:46:25.0000000+00:00</time></trkpt><trkpt lat="39.53645851" lon="-0.50036131"><ele>126.2</ele><time>2022-11-01T12:46:26.0000000+00:00</time></trkpt><trkpt lat="39.53646001" lon="-0.50027859"><ele>125.6</ele><time>2022-11-01T12:46:27.0000000+00:00</time></trkpt><trkpt lat="39.53647586" lon="-0.50018965"><ele>125.4</ele><time>2022-11-01T12:46:28.0000000+00:00</time></trkpt><trkpt lat="39.53650226" lon="-0.50009611"><ele>124.8</ele><time>2022-11-01T12:46:29.0000000+00:00</time></trkpt><trkpt lat="39.53653386" lon="-0.5000024"><ele>124.4</ele><time>2022-11-01T12:46:30.0000000+00:00</time></trkpt><trkpt lat="39.53656772" lon="-0.49990827"><ele>124.2</ele><time>2022-11-01T12:46:31.0000000+00:00</time></trkpt><trkpt lat="39.53661189" lon="-0.49982328"><ele>124.2</ele><time>2022-11-01T12:46:32.0000000+00:00</time></trkpt><trkpt lat="39.53667224" lon="-0.49971574"><ele>124.2</ele><time>2022-11-01T12:46:33.0000000+00:00</time></trkpt><trkpt lat="39.53671843" lon="-0.49962765"><ele>124.2</ele><time>2022-11-01T12:46:34.0000000+00:00</time></trkpt><trkpt lat="39.53677107" lon="-0.49953746"><ele>124.0</ele><time>2022-11-01T12:46:35.0000000+00:00</time></trkpt><trkpt lat="39.53681348" lon="-0.49945909"><ele>123.8</ele><time>2022-11-01T12:46:36.0000000+00:00</time></trkpt><trkpt lat="39.53686369" lon="-0.49938859"><ele>123.6</ele><time>2022-11-01T12:46:37.0000000+00:00</time></trkpt><trkpt lat="39.53692161" lon="-0.49930729"><ele>123.4</ele><time>2022-11-01T12:46:38.0000000+00:00</time></trkpt><trkpt lat="39.53698053" lon="-0.499229"><ele>123.0</ele><time>2022-11-01T12:46:39.0000000+00:00</time></trkpt><trkpt lat="39.53704733" lon="-0.4991513"><ele>122.8</ele><time>2022-11-01T12:46:40.0000000+00:00</time></trkpt><trkpt lat="39.53711246" lon="-0.49907243"><ele>122.6</ele><time>2022-11-01T12:46:41.0000000+00:00</time></trkpt><trkpt lat="39.53716979" lon="-0.49898903"><ele>122.4</ele><time>2022-11-01T12:46:42.0000000+00:00</time></trkpt><trkpt lat="39.53722" lon="-0.49890923"><ele>122.4</ele><time>2022-11-01T12:46:43.0000000+00:00</time></trkpt><trkpt lat="39.53727331" lon="-0.49883371"><ele>122.0</ele><time>2022-11-01T12:46:44.0000000+00:00</time></trkpt><trkpt lat="39.53731665" lon="-0.49875241"><ele>121.6</ele><time>2022-11-01T12:46:45.0000000+00:00</time></trkpt><trkpt lat="39.53737406" lon="-0.49867219"><ele>121.4</ele><time>2022-11-01T12:46:46.0000000+00:00</time></trkpt><trkpt lat="39.53743164" lon="-0.49858351"><ele>121.4</ele><time>2022-11-01T12:46:47.0000000+00:00</time></trkpt><trkpt lat="39.53748571" lon="-0.49851017"><ele>121.2</ele><time>2022-11-01T12:46:48.0000000+00:00</time></trkpt><trkpt lat="39.53754036" lon="-0.49843834"><ele>121.0</ele><time>2022-11-01T12:46:49.0000000+00:00</time></trkpt><trkpt lat="39.53759249" lon="-0.49837589"><ele>121.0</ele><time>2022-11-01T12:46:50.0000000+00:00</time></trkpt><trkpt lat="39.53765133" lon="-0.49831429"><ele>120.8</ele><time>2022-11-01T12:46:51.0000000+00:00</time></trkpt><trkpt lat="39.53770246" lon="-0.49825444"><ele>120.4</ele><time>2022-11-01T12:46:52.0000000+00:00</time></trkpt><trkpt lat="39.53775745" lon="-0.49819367"><ele>120.2</ele><time>2022-11-01T12:46:53.0000000+00:00</time></trkpt><trkpt lat="39.53780967" lon="-0.49813651"><ele>120.2</ele><time>2022-11-01T12:46:54.0000000+00:00</time></trkpt><trkpt lat="39.53786247" lon="-0.49807875"><ele>120.0</ele><time>2022-11-01T12:46:55.0000000+00:00</time></trkpt><trkpt lat="39.53791495" lon="-0.49801891"><ele>120.0</ele><time>2022-11-01T12:46:56.0000000+00:00</time></trkpt><trkpt lat="39.53796742" lon="-0.49795093"><ele>120.0</ele><time>2022-11-01T12:46:57.0000000+00:00</time></trkpt><trkpt lat="39.5379991" lon="-0.49791053"><ele>120.0</ele><time>2022-11-01T12:46:58.0000000+00:00</time></trkpt><trkpt lat="39.53803053" lon="-0.49786904"><ele>119.8</ele><time>2022-11-01T12:46:59.0000000+00:00</time></trkpt><trkpt lat="39.53805459" lon="-0.49784121"><ele>119.8</ele><time>2022-11-01T12:47:00.0000000+00:00</time></trkpt><trkpt lat="39.53807345" lon="-0.49782428"><ele>119.8</ele><time>2022-11-01T12:47:01.0000000+00:00</time></trkpt><trkpt lat="39.53808409" lon="-0.49781699"><ele>119.8</ele><time>2022-11-01T12:47:02.0000000+00:00</time></trkpt><trkpt lat="39.53808937" lon="-0.49781456"><ele>119.6</ele><time>2022-11-01T12:47:03.0000000+00:00</time></trkpt><trkpt lat="39.53808937" lon="-0.49781456"><ele>119.6</ele><time>2022-11-01T12:47:04.0000000+00:00</time></trkpt><trkpt lat="39.53808937" lon="-0.49781456"><ele>119.6</ele><time>2022-11-01T12:47:05.0000000+00:00</time></trkpt><trkpt lat="39.53808937" lon="-0.49781456"><ele>119.6</ele><time>2022-11-01T12:47:06.0000000+00:00</time></trkpt><trkpt lat="39.53808937" lon="-0.49781456"><ele>119.6</ele><time>2022-11-01T12:47:07.0000000+00:00</time></trkpt><trkpt lat="39.53808937" lon="-0.49781456"><ele>119.6</ele><time>2022-11-01T12:47:08.0000000+00:00</time></trkpt><trkpt lat="39.53808937" lon="-0.49781456"><ele>119.6</ele><time>2022-11-01T12:47:09.0000000+00:00</time></trkpt><trkpt lat="39.53808937" lon="-0.49781456"><ele>119.6</ele><time>2022-11-01T12:47:10.0000000+00:00</time></trkpt><trkpt lat="39.53808937" lon="-0.49781456"><ele>119.6</ele><time>2022-11-01T12:47:11.0000000+00:00</time></trkpt><trkpt lat="39.53808937" lon="-0.49781456"><ele>119.6</ele><time>2022-11-01T12:47:12.0000000+00:00</time></trkpt><trkpt lat="39.53808937" lon="-0.49781456"><ele>119.4</ele><time>2022-11-01T12:47:13.0000000+00:00</time></trkpt><trkpt lat="39.53808937" lon="-0.49781456"><ele>119.4</ele><time>2022-11-01T12:47:14.0000000+00:00</time></trkpt><trkpt lat="39.53808937" lon="-0.49781456"><ele>119.4</ele><time>2022-11-01T12:47:15.0000000+00:00</time></trkpt><trkpt lat="39.53808937" lon="-0.49781456"><ele>119.4</ele><time>2022-11-01T12:47:16.0000000+00:00</time></trkpt><trkpt lat="39.53808937" lon="-0.49781456"><ele>119.4</ele><time>2022-11-01T12:47:17.0000000+00:00</time></trkpt><trkpt lat="39.53808937" lon="-0.49781456"><ele>119.4</ele><time>2022-11-01T12:47:18.0000000+00:00</time></trkpt><trkpt lat="39.53808937" lon="-0.49781456"><ele>119.4</ele><time>2022-11-01T12:47:19.0000000+00:00</time></trkpt><trkpt lat="39.53808937" lon="-0.49781456"><ele>119.4</ele><time>2022-11-01T12:47:20.0000000+00:00</time></trkpt><trkpt lat="39.53808937" lon="-0.49781456"><ele>119.4</ele><time>2022-11-01T12:47:21.0000000+00:00</time></trkpt><trkpt lat="39.53809373" lon="-0.49781816"><ele>119.4</ele><time>2022-11-01T12:47:22.0000000+00:00</time></trkpt><trkpt lat="39.53810404" lon="-0.49782277"><ele>119.4</ele><time>2022-11-01T12:47:23.0000000+00:00</time></trkpt><trkpt lat="39.53811611" lon="-0.49783769"><ele>119.4</ele><time>2022-11-01T12:47:24.0000000+00:00</time></trkpt><trkpt lat="39.53812324" lon="-0.49785672"><ele>119.4</ele><time>2022-11-01T12:47:25.0000000+00:00</time></trkpt><trkpt lat="39.5381322" lon="-0.4978827"><ele>119.4</ele><time>2022-11-01T12:47:26.0000000+00:00</time></trkpt><trkpt lat="39.53814327" lon="-0.4979169"><ele>119.6</ele><time>2022-11-01T12:47:27.0000000+00:00</time></trkpt><trkpt lat="39.53815115" lon="-0.49794498"><ele>119.6</ele><time>2022-11-01T12:47:28.0000000+00:00</time></trkpt><trkpt lat="39.53816406" lon="-0.49798102"><ele>119.6</ele><time>2022-11-01T12:47:29.0000000+00:00</time></trkpt><trkpt lat="39.53817487" lon="-0.49801564"><ele>119.6</ele><time>2022-11-01T12:47:30.0000000+00:00</time></trkpt><trkpt lat="39.53818861" lon="-0.49805562"><ele>119.8</ele><time>2022-11-01T12:47:31.0000000+00:00</time></trkpt><trkpt lat="39.53819767" lon="-0.49810139"><ele>119.8</ele><time>2022-11-01T12:47:32.0000000+00:00</time></trkpt><trkpt lat="39.53820739" lon="-0.49815067"><ele>119.8</ele><time>2022-11-01T12:47:33.0000000+00:00</time></trkpt><trkpt lat="39.53822164" lon="-0.49819836"><ele>119.8</ele><time>2022-11-01T12:47:34.0000000+00:00</time></trkpt><trkpt lat="39.53824184" lon="-0.49824572"><ele>119.8</ele><time>2022-11-01T12:47:35.0000000+00:00</time></trkpt><trkpt lat="39.53826581" lon="-0.49828755"><ele>119.8</ele><time>2022-11-01T12:47:36.0000000+00:00</time></trkpt><trkpt lat="39.53829322" lon="-0.4983246"><ele>119.8</ele><time>2022-11-01T12:47:37.0000000+00:00</time></trkpt><trkpt lat="39.53831082" lon="-0.49834941"><ele>119.8</ele><time>2022-11-01T12:47:38.0000000+00:00</time></trkpt><trkpt lat="39.53832784" lon="-0.49838226"><ele>119.8</ele><time>2022-11-01T12:47:39.0000000+00:00</time></trkpt><trkpt lat="39.53834368" lon="-0.49841135"><ele>119.8</ele><time>2022-11-01T12:47:40.0000000+00:00</time></trkpt><trkpt lat="39.5383565" lon="-0.49844471"><ele>119.8</ele><time>2022-11-01T12:47:41.0000000+00:00</time></trkpt><trkpt lat="39.53836589" lon="-0.49847522"><ele>119.8</ele><time>2022-11-01T12:47:42.0000000+00:00</time></trkpt><trkpt lat="39.53838039" lon="-0.49851067"><ele>119.8</ele><time>2022-11-01T12:47:43.0000000+00:00</time></trkpt><trkpt lat="39.53840269" lon="-0.49855057"><ele>119.8</ele><time>2022-11-01T12:47:44.0000000+00:00</time></trkpt><trkpt lat="39.53842708" lon="-0.49858854"><ele>119.8</ele><time>2022-11-01T12:47:45.0000000+00:00</time></trkpt><trkpt lat="39.53845315" lon="-0.49862945"><ele>119.8</ele><time>2022-11-01T12:47:46.0000000+00:00</time></trkpt><trkpt lat="39.53848324" lon="-0.49867068"><ele>119.6</ele><time>2022-11-01T12:47:47.0000000+00:00</time></trkpt><trkpt lat="39.53851031" lon="-0.49870974"><ele>119.8</ele><time>2022-11-01T12:47:48.0000000+00:00</time></trkpt><trkpt lat="39.53854216" lon="-0.49875224"><ele>119.8</ele><time>2022-11-01T12:47:49.0000000+00:00</time></trkpt><trkpt lat="39.53857066" lon="-0.49879951"><ele>119.8</ele><time>2022-11-01T12:47:50.0000000+00:00</time></trkpt><trkpt lat="39.53859413" lon="-0.49884612"><ele>120.0</ele><time>2022-11-01T12:47:51.0000000+00:00</time></trkpt><trkpt lat="39.53861316" lon="-0.49889205"><ele>120.2</ele><time>2022-11-01T12:47:52.0000000+00:00</time></trkpt><trkpt lat="39.53863394" lon="-0.49894226"><ele>120.2</ele><time>2022-11-01T12:47:53.0000000+00:00</time></trkpt><trkpt lat="39.53866026" lon="-0.49899406"><ele>120.2</ele><time>2022-11-01T12:47:54.0000000+00:00</time></trkpt><trkpt lat="39.53868491" lon="-0.49904108"><ele>120.4</ele><time>2022-11-01T12:47:55.0000000+00:00</time></trkpt><trkpt lat="39.53871709" lon="-0.49907377"><ele>120.4</ele><time>2022-11-01T12:47:56.0000000+00:00</time></trkpt><trkpt lat="39.53874148" lon="-0.49910688"><ele>120.6</ele><time>2022-11-01T12:47:57.0000000+00:00</time></trkpt><trkpt lat="39.53877283" lon="-0.49914359"><ele>120.6</ele><time>2022-11-01T12:47:58.0000000+00:00</time></trkpt><trkpt lat="39.53880242" lon="-0.49919464"><ele>120.6</ele><time>2022-11-01T12:47:59.0000000+00:00</time></trkpt><trkpt lat="39.53883385" lon="-0.49924694"><ele>120.6</ele><time>2022-11-01T12:48:00.0000000+00:00</time></trkpt><trkpt lat="39.53886277" lon="-0.49929145"><ele>120.4</ele><time>2022-11-01T12:48:01.0000000+00:00</time></trkpt><trkpt lat="39.53889462" lon="-0.49933973"><ele>120.6</ele><time>2022-11-01T12:48:02.0000000+00:00</time></trkpt><trkpt lat="39.53892446" lon="-0.49938759"><ele>120.6</ele><time>2022-11-01T12:48:03.0000000+00:00</time></trkpt><trkpt lat="39.53895363" lon="-0.49943662"><ele>120.6</ele><time>2022-11-01T12:48:04.0000000+00:00</time></trkpt><trkpt lat="39.53898649" lon="-0.49948398"><ele>120.6</ele><time>2022-11-01T12:48:05.0000000+00:00</time></trkpt><trkpt lat="39.53902454" lon="-0.49952371"><ele>120.6</ele><time>2022-11-01T12:48:06.0000000+00:00</time></trkpt><trkpt lat="39.5390636" lon="-0.49956713"><ele>120.6</ele><time>2022-11-01T12:48:07.0000000+00:00</time></trkpt><trkpt lat="39.53910224" lon="-0.49960887"><ele>120.6</ele><time>2022-11-01T12:48:08.0000000+00:00</time></trkpt><trkpt lat="39.53914231" lon="-0.49965271"><ele>120.6</ele><time>2022-11-01T12:48:09.0000000+00:00</time></trkpt><trkpt lat="39.53917944" lon="-0.49969839"><ele>120.6</ele><time>2022-11-01T12:48:10.0000000+00:00</time></trkpt><trkpt lat="39.5392159" lon="-0.49974483"><ele>120.6</ele><time>2022-11-01T12:48:11.0000000+00:00</time></trkpt><trkpt lat="39.53925236" lon="-0.49979042"><ele>120.6</ele><time>2022-11-01T12:48:12.0000000+00:00</time></trkpt><trkpt lat="39.53928488" lon="-0.49983317"><ele>120.6</ele><time>2022-11-01T12:48:13.0000000+00:00</time></trkpt><trkpt lat="39.53931699" lon="-0.49987382"><ele>120.8</ele><time>2022-11-01T12:48:14.0000000+00:00</time></trkpt><trkpt lat="39.53935219" lon="-0.49991649"><ele>121.0</ele><time>2022-11-01T12:48:15.0000000+00:00</time></trkpt><trkpt lat="39.53939024" lon="-0.49996024"><ele>121.0</ele><time>2022-11-01T12:48:16.0000000+00:00</time></trkpt><trkpt lat="39.5394262" lon="-0.50000349"><ele>121.0</ele><time>2022-11-01T12:48:17.0000000+00:00</time></trkpt><trkpt lat="39.53946065" lon="-0.50004867"><ele>121.0</ele><time>2022-11-01T12:48:18.0000000+00:00</time></trkpt><trkpt lat="39.53948781" lon="-0.50010047"><ele>121.2</ele><time>2022-11-01T12:48:19.0000000+00:00</time></trkpt><trkpt lat="39.53951782" lon="-0.50015478"><ele>121.2</ele><time>2022-11-01T12:48:20.0000000+00:00</time></trkpt><trkpt lat="39.53954766" lon="-0.50020566"><ele>121.2</ele><time>2022-11-01T12:48:21.0000000+00:00</time></trkpt><trkpt lat="39.53958102" lon="-0.50025403"><ele>121.4</ele><time>2022-11-01T12:48:22.0000000+00:00</time></trkpt><trkpt lat="39.5396179" lon="-0.50030164"><ele>121.4</ele><time>2022-11-01T12:48:23.0000000+00:00</time></trkpt><trkpt lat="39.5396526" lon="-0.50035151"><ele>121.2</ele><time>2022-11-01T12:48:24.0000000+00:00</time></trkpt><trkpt lat="39.53968227" lon="-0.50040264"><ele>121.2</ele><time>2022-11-01T12:48:25.0000000+00:00</time></trkpt><trkpt lat="39.53971328" lon="-0.50044924"><ele>121.0</ele><time>2022-11-01T12:48:26.0000000+00:00</time></trkpt><trkpt lat="39.53974673" lon="-0.50049819"><ele>121.0</ele><time>2022-11-01T12:48:27.0000000+00:00</time></trkpt><trkpt lat="39.53978646" lon="-0.50054605"><ele>120.8</ele><time>2022-11-01T12:48:28.0000000+00:00</time></trkpt><trkpt lat="39.53982635" lon="-0.50059467"><ele>120.8</ele><time>2022-11-01T12:48:29.0000000+00:00</time></trkpt><trkpt lat="39.53986558" lon="-0.50064395"><ele>120.8</ele><time>2022-11-01T12:48:30.0000000+00:00</time></trkpt><trkpt lat="39.53990322" lon="-0.50070095"><ele>120.8</ele><time>2022-11-01T12:48:31.0000000+00:00</time></trkpt><trkpt lat="39.53993448" lon="-0.50076063"><ele>120.6</ele><time>2022-11-01T12:48:32.0000000+00:00</time></trkpt><trkpt lat="39.53996826" lon="-0.5008167"><ele>120.4</ele><time>2022-11-01T12:48:33.0000000+00:00</time></trkpt><trkpt lat="39.54000388" lon="-0.50086834"><ele>120.4</ele><time>2022-11-01T12:48:34.0000000+00:00</time></trkpt><trkpt lat="39.54004227" lon="-0.50091812"><ele>120.2</ele><time>2022-11-01T12:48:35.0000000+00:00</time></trkpt><trkpt lat="39.54008368" lon="-0.50096741"><ele>120.2</ele><time>2022-11-01T12:48:36.0000000+00:00</time></trkpt><trkpt lat="39.54012542" lon="-0.50101879"><ele>120.2</ele><time>2022-11-01T12:48:37.0000000+00:00</time></trkpt><trkpt lat="39.54017328" lon="-0.50108241"><ele>120.0</ele><time>2022-11-01T12:48:38.0000000+00:00</time></trkpt><trkpt lat="39.54021175" lon="-0.50113798"><ele>119.8</ele><time>2022-11-01T12:48:39.0000000+00:00</time></trkpt><trkpt lat="39.54024243" lon="-0.50118098"><ele>119.8</ele><time>2022-11-01T12:48:40.0000000+00:00</time></trkpt><trkpt lat="39.54028015" lon="-0.50124016"><ele>119.6</ele><time>2022-11-01T12:48:41.0000000+00:00</time></trkpt><trkpt lat="39.54031577" lon="-0.50130319"><ele>119.4</ele><time>2022-11-01T12:48:42.0000000+00:00</time></trkpt><trkpt lat="39.54035257" lon="-0.50136379"><ele>119.2</ele><time>2022-11-01T12:48:43.0000000+00:00</time></trkpt><trkpt lat="39.54040001" lon="-0.50143277"><ele>118.8</ele><time>2022-11-01T12:48:44.0000000+00:00</time></trkpt><trkpt lat="39.54043153" lon="-0.50147602"><ele>118.6</ele><time>2022-11-01T12:48:45.0000000+00:00</time></trkpt><trkpt lat="39.54047268" lon="-0.50153378"><ele>118.4</ele><time>2022-11-01T12:48:46.0000000+00:00</time></trkpt><trkpt lat="39.54052272" lon="-0.50161332"><ele>118.0</ele><time>2022-11-01T12:48:47.0000000+00:00</time></trkpt><trkpt lat="39.54056866" lon="-0.50168356"><ele>118.0</ele><time>2022-11-01T12:48:48.0000000+00:00</time></trkpt><trkpt lat="39.54059808" lon="-0.50174064"><ele>117.4</ele><time>2022-11-01T12:48:49.0000000+00:00</time></trkpt><trkpt lat="39.5406389" lon="-0.50180862"><ele>117.0</ele><time>2022-11-01T12:48:50.0000000+00:00</time></trkpt><trkpt lat="39.54068743" lon="-0.50189202"><ele>116.2</ele><time>2022-11-01T12:48:51.0000000+00:00</time></trkpt><trkpt lat="39.5407135" lon="-0.50194524"><ele>115.6</ele><time>2022-11-01T12:48:52.0000000+00:00</time></trkpt><trkpt lat="39.54076069" lon="-0.50202353"><ele>115.0</ele><time>2022-11-01T12:48:53.0000000+00:00</time></trkpt><trkpt lat="39.54080452" lon="-0.50209134"><ele>114.8</ele><time>2022-11-01T12:48:54.0000000+00:00</time></trkpt><trkpt lat="39.54083847" lon="-0.50214381"><ele>114.4</ele><time>2022-11-01T12:48:55.0000000+00:00</time></trkpt><trkpt lat="39.54089027" lon="-0.50222361"><ele>114.4</ele><time>2022-11-01T12:48:56.0000000+00:00</time></trkpt><trkpt lat="39.54092304" lon="-0.50227289"><ele>114.2</ele><time>2022-11-01T12:48:57.0000000+00:00</time></trkpt><trkpt lat="39.54096621" lon="-0.50233039"><ele>114.2</ele><time>2022-11-01T12:48:58.0000000+00:00</time></trkpt><trkpt lat="39.54101935" lon="-0.50238965"><ele>114.2</ele><time>2022-11-01T12:48:59.0000000+00:00</time></trkpt><trkpt lat="39.54106252" lon="-0.50243936"><ele>114.2</ele><time>2022-11-01T12:49:00.0000000+00:00</time></trkpt><trkpt lat="39.5410947" lon="-0.50248294"><ele>114.0</ele><time>2022-11-01T12:49:01.0000000+00:00</time></trkpt><trkpt lat="39.54113561" lon="-0.50254455"><ele>114.0</ele><time>2022-11-01T12:49:02.0000000+00:00</time></trkpt><trkpt lat="39.54115656" lon="-0.50258227"><ele>114.0</ele><time>2022-11-01T12:49:03.0000000+00:00</time></trkpt><trkpt lat="39.54118188" lon="-0.50263088"><ele>114.0</ele><time>2022-11-01T12:49:04.0000000+00:00</time></trkpt><trkpt lat="39.54121096" lon="-0.50268503"><ele>114.0</ele><time>2022-11-01T12:49:05.0000000+00:00</time></trkpt><trkpt lat="39.54124139" lon="-0.50274102"><ele>114.2</ele><time>2022-11-01T12:49:06.0000000+00:00</time></trkpt><trkpt lat="39.54127257" lon="-0.50279936"><ele>114.2</ele><time>2022-11-01T12:49:07.0000000+00:00</time></trkpt><trkpt lat="39.54130626" lon="-0.5028603"><ele>114.2</ele><time>2022-11-01T12:49:08.0000000+00:00</time></trkpt><trkpt lat="39.54134482" lon="-0.50291402"><ele>114.2</ele><time>2022-11-01T12:49:09.0000000+00:00</time></trkpt><trkpt lat="39.54138338" lon="-0.50296398"><ele>114.2</ele><time>2022-11-01T12:49:10.0000000+00:00</time></trkpt><trkpt lat="39.54142411" lon="-0.5030224"><ele>114.4</ele><time>2022-11-01T12:49:11.0000000+00:00</time></trkpt><trkpt lat="39.54145018" lon="-0.50306607"><ele>114.4</ele><time>2022-11-01T12:49:12.0000000+00:00</time></trkpt><trkpt lat="39.54148212" lon="-0.50312391"><ele>114.4</ele><time>2022-11-01T12:49:13.0000000+00:00</time></trkpt><trkpt lat="39.54151791" lon="-0.50318685"><ele>114.6</ele><time>2022-11-01T12:49:14.0000000+00:00</time></trkpt><trkpt lat="39.54153953" lon="-0.50322918"><ele>114.6</ele><time>2022-11-01T12:49:15.0000000+00:00</time></trkpt><trkpt lat="39.54156786" lon="-0.5032845"><ele>114.4</ele><time>2022-11-01T12:49:16.0000000+00:00</time></trkpt><trkpt lat="39.54159678" lon="-0.50334033"><ele>114.4</ele><time>2022-11-01T12:49:17.0000000+00:00</time></trkpt><trkpt lat="39.54162134" lon="-0.50339439"><ele>114.2</ele><time>2022-11-01T12:49:18.0000000+00:00</time></trkpt><trkpt lat="39.54165076" lon="-0.5034394"><ele>114.2</ele><time>2022-11-01T12:49:19.0000000+00:00</time></trkpt><trkpt lat="39.54168194" lon="-0.50348433"><ele>114.2</ele><time>2022-11-01T12:49:20.0000000+00:00</time></trkpt><trkpt lat="39.54170826" lon="-0.5035347"><ele>114.2</ele><time>2022-11-01T12:49:21.0000000+00:00</time></trkpt><trkpt lat="39.54173533" lon="-0.50358147"><ele>114.0</ele><time>2022-11-01T12:49:22.0000000+00:00</time></trkpt><trkpt lat="39.54176526" lon="-0.50362422"><ele>114.0</ele><time>2022-11-01T12:49:23.0000000+00:00</time></trkpt><trkpt lat="39.54179225" lon="-0.5036668"><ele>114.0</ele><time>2022-11-01T12:49:24.0000000+00:00</time></trkpt><trkpt lat="39.54182351" lon="-0.50370812"><ele>113.8</ele><time>2022-11-01T12:49:25.0000000+00:00</time></trkpt><trkpt lat="39.54185729" lon="-0.50375146"><ele>113.8</ele><time>2022-11-01T12:49:26.0000000+00:00</time></trkpt><trkpt lat="39.54189333" lon="-0.50380452"><ele>113.6</ele><time>2022-11-01T12:49:27.0000000+00:00</time></trkpt><trkpt lat="39.54192703" lon="-0.50385372"><ele>113.4</ele><time>2022-11-01T12:49:28.0000000+00:00</time></trkpt><trkpt lat="39.54196047" lon="-0.50390074"><ele>113.4</ele><time>2022-11-01T12:49:29.0000000+00:00</time></trkpt><trkpt lat="39.54199651" lon="-0.50395958"><ele>113.0</ele><time>2022-11-01T12:49:30.0000000+00:00</time></trkpt><trkpt lat="39.54201671" lon="-0.50399638"><ele>113.0</ele><time>2022-11-01T12:49:31.0000000+00:00</time></trkpt><trkpt lat="39.5420494" lon="-0.5040434"><ele>112.8</ele><time>2022-11-01T12:49:32.0000000+00:00</time></trkpt><trkpt lat="39.54207321" lon="-0.50406343"><ele>112.8</ele><time>2022-11-01T12:49:33.0000000+00:00</time></trkpt><trkpt lat="39.54210288" lon="-0.50410073"><ele>112.6</ele><time>2022-11-01T12:49:34.0000000+00:00</time></trkpt><trkpt lat="39.54212266" lon="-0.50413585"><ele>112.6</ele><time>2022-11-01T12:49:35.0000000+00:00</time></trkpt><trkpt lat="39.54215183" lon="-0.50418472"><ele>112.6</ele><time>2022-11-01T12:49:36.0000000+00:00</time></trkpt><trkpt lat="39.54218796" lon="-0.50423903"><ele>112.4</ele><time>2022-11-01T12:49:37.0000000+00:00</time></trkpt><trkpt lat="39.54222844" lon="-0.50430634"><ele>112.2</ele><time>2022-11-01T12:49:38.0000000+00:00</time></trkpt><trkpt lat="39.54225468" lon="-0.5043506"><ele>112.2</ele><time>2022-11-01T12:49:39.0000000+00:00</time></trkpt><trkpt lat="39.54229591" lon="-0.50440609"><ele>112.0</ele><time>2022-11-01T12:49:40.0000000+00:00</time></trkpt><trkpt lat="39.5423255" lon="-0.5044293"><ele>112.0</ele><time>2022-11-01T12:49:41.0000000+00:00</time></trkpt><trkpt lat="39.54238175" lon="-0.50444892"><ele>112.0</ele><time>2022-11-01T12:49:42.0000000+00:00</time></trkpt><trkpt lat="39.5424286" lon="-0.5044583"><ele>112.0</ele><time>2022-11-01T12:49:43.0000000+00:00</time></trkpt><trkpt lat="39.54246825" lon="-0.50445613"><ele>111.8</ele><time>2022-11-01T12:49:44.0000000+00:00</time></trkpt><trkpt lat="39.5425291" lon="-0.50446032"><ele>111.8</ele><time>2022-11-01T12:49:45.0000000+00:00</time></trkpt><trkpt lat="39.54258082" lon="-0.50446794"><ele>111.6</ele><time>2022-11-01T12:49:46.0000000+00:00</time></trkpt><trkpt lat="39.54262256" lon="-0.50447398"><ele>111.4</ele><time>2022-11-01T12:49:47.0000000+00:00</time></trkpt><trkpt lat="39.54268525" lon="-0.50448085"><ele>111.2</ele><time>2022-11-01T12:49:48.0000000+00:00</time></trkpt><trkpt lat="39.54273328" lon="-0.5044806"><ele>111.2</ele><time>2022-11-01T12:49:49.0000000+00:00</time></trkpt><trkpt lat="39.5427715" lon="-0.5044889"><ele>111.2</ele><time>2022-11-01T12:49:50.0000000+00:00</time></trkpt><trkpt lat="39.54283185" lon="-0.50451882"><ele>111.2</ele><time>2022-11-01T12:49:51.0000000+00:00</time></trkpt><trkpt lat="39.5428798" lon="-0.50455587"><ele>111.4</ele><time>2022-11-01T12:49:52.0000000+00:00</time></trkpt><trkpt lat="39.54291433" lon="-0.50459158"><ele>111.4</ele><time>2022-11-01T12:49:53.0000000+00:00</time></trkpt><trkpt lat="39.54295808" lon="-0.50463935"><ele>111.4</ele><time>2022-11-01T12:49:54.0000000+00:00</time></trkpt><trkpt lat="39.54300159" lon="-0.50468629"><ele>111.6</ele><time>2022-11-01T12:49:55.0000000+00:00</time></trkpt><trkpt lat="39.54304107" lon="-0.50473583"><ele>111.6</ele><time>2022-11-01T12:49:56.0000000+00:00</time></trkpt><trkpt lat="39.54308122" lon="-0.50479366"><ele>111.6</ele><time>2022-11-01T12:49:57.0000000+00:00</time></trkpt><trkpt lat="39.54311458" lon="-0.50484597"><ele>111.8</ele><time>2022-11-01T12:49:58.0000000+00:00</time></trkpt><trkpt lat="39.54314752" lon="-0.50489718"><ele>111.8</ele><time>2022-11-01T12:49:59.0000000+00:00</time></trkpt><trkpt lat="39.54317861" lon="-0.50495032"><ele>111.8</ele><time>2022-11-01T12:50:00.0000000+00:00</time></trkpt><trkpt lat="39.54320887" lon="-0.5050069"><ele>111.8</ele><time>2022-11-01T12:50:01.0000000+00:00</time></trkpt><trkpt lat="39.54324039" lon="-0.50506767"><ele>111.8</ele><time>2022-11-01T12:50:02.0000000+00:00</time></trkpt><trkpt lat="39.54327174" lon="-0.50512257"><ele>111.8</ele><time>2022-11-01T12:50:03.0000000+00:00</time></trkpt><trkpt lat="39.54330728" lon="-0.5051789"><ele>111.6</ele><time>2022-11-01T12:50:04.0000000+00:00</time></trkpt><trkpt lat="39.54333887" lon="-0.50523615"><ele>111.4</ele><time>2022-11-01T12:50:05.0000000+00:00</time></trkpt><trkpt lat="39.5433781" lon="-0.50529532"><ele>111.2</ele><time>2022-11-01T12:50:06.0000000+00:00</time></trkpt><trkpt lat="39.54341398" lon="-0.5053545"><ele>111.0</ele><time>2022-11-01T12:50:07.0000000+00:00</time></trkpt><trkpt lat="39.54344248" lon="-0.50540613"><ele>110.8</ele><time>2022-11-01T12:50:08.0000000+00:00</time></trkpt><trkpt lat="39.54346008" lon="-0.50545584"><ele>110.8</ele><time>2022-11-01T12:50:09.0000000+00:00</time></trkpt><trkpt lat="39.5434848" lon="-0.50551074"><ele>110.6</ele><time>2022-11-01T12:50:10.0000000+00:00</time></trkpt><trkpt lat="39.54351481" lon="-0.50556941"><ele>110.6</ele><time>2022-11-01T12:50:11.0000000+00:00</time></trkpt><trkpt lat="39.54354758" lon="-0.50562364"><ele>110.4</ele><time>2022-11-01T12:50:12.0000000+00:00</time></trkpt><trkpt lat="39.54358111" lon="-0.50567737"><ele>110.4</ele><time>2022-11-01T12:50:13.0000000+00:00</time></trkpt><trkpt lat="39.54361665" lon="-0.50573051"><ele>110.2</ele><time>2022-11-01T12:50:14.0000000+00:00</time></trkpt><trkpt lat="39.5436506" lon="-0.50578248"><ele>110.2</ele><time>2022-11-01T12:50:15.0000000+00:00</time></trkpt><trkpt lat="39.54368781" lon="-0.50583512"><ele>110.2</ele><time>2022-11-01T12:50:16.0000000+00:00</time></trkpt><trkpt lat="39.54372335" lon="-0.50589563"><ele>110.2</ele><time>2022-11-01T12:50:17.0000000+00:00</time></trkpt><trkpt lat="39.54375529" lon="-0.50595992"><ele>110.2</ele><time>2022-11-01T12:50:18.0000000+00:00</time></trkpt><trkpt lat="39.54378747" lon="-0.50602371"><ele>110.2</ele><time>2022-11-01T12:50:19.0000000+00:00</time></trkpt><trkpt lat="39.54381589" lon="-0.50608917"><ele>110.2</ele><time>2022-11-01T12:50:20.0000000+00:00</time></trkpt><trkpt lat="39.54384958" lon="-0.50615556"><ele>110.2</ele><time>2022-11-01T12:50:21.0000000+00:00</time></trkpt><trkpt lat="39.54388202" lon="-0.50622278"><ele>110.2</ele><time>2022-11-01T12:50:22.0000000+00:00</time></trkpt><trkpt lat="39.54391178" lon="-0.50628606"><ele>110.4</ele><time>2022-11-01T12:50:23.0000000+00:00</time></trkpt><trkpt lat="39.54394304" lon="-0.50634557"><ele>110.4</ele><time>2022-11-01T12:50:24.0000000+00:00</time></trkpt><trkpt lat="39.54397799" lon="-0.50640257"><ele>110.4</ele><time>2022-11-01T12:50:25.0000000+00:00</time></trkpt><trkpt lat="39.54401186" lon="-0.50646259"><ele>110.4</ele><time>2022-11-01T12:50:26.0000000+00:00</time></trkpt><trkpt lat="39.5440453" lon="-0.50652495"><ele>110.4</ele><time>2022-11-01T12:50:27.0000000+00:00</time></trkpt><trkpt lat="39.5440826" lon="-0.50658387"><ele>110.2</ele><time>2022-11-01T12:50:28.0000000+00:00</time></trkpt><trkpt lat="39.54412166" lon="-0.50664053"><ele>110.2</ele><time>2022-11-01T12:50:29.0000000+00:00</time></trkpt><trkpt lat="39.54415988" lon="-0.50669359"><ele>110.2</ele><time>2022-11-01T12:50:30.0000000+00:00</time></trkpt><trkpt lat="39.54419869" lon="-0.50675101"><ele>110.2</ele><time>2022-11-01T12:50:31.0000000+00:00</time></trkpt><trkpt lat="39.54423482" lon="-0.50681203"><ele>110.4</ele><time>2022-11-01T12:50:32.0000000+00:00</time></trkpt><trkpt lat="39.5442717" lon="-0.50687011"><ele>110.4</ele><time>2022-11-01T12:50:33.0000000+00:00</time></trkpt><trkpt lat="39.5443038" lon="-0.50693046"><ele>110.4</ele><time>2022-11-01T12:50:34.0000000+00:00</time></trkpt><trkpt lat="39.54433439" lon="-0.50698981"><ele>110.4</ele><time>2022-11-01T12:50:35.0000000+00:00</time></trkpt><trkpt lat="39.54436465" lon="-0.50704982"><ele>110.4</ele><time>2022-11-01T12:50:36.0000000+00:00</time></trkpt><trkpt lat="39.5444074" lon="-0.50712266"><ele>110.6</ele><time>2022-11-01T12:50:37.0000000+00:00</time></trkpt><trkpt lat="39.54444453" lon="-0.50718167"><ele>110.6</ele><time>2022-11-01T12:50:38.0000000+00:00</time></trkpt><trkpt lat="39.54447479" lon="-0.50722785"><ele>110.6</ele><time>2022-11-01T12:50:39.0000000+00:00</time></trkpt><trkpt lat="39.54450396" lon="-0.50729265"><ele>110.8</ele><time>2022-11-01T12:50:40.0000000+00:00</time></trkpt><trkpt lat="39.54453003" lon="-0.50735911"><ele>110.8</ele><time>2022-11-01T12:50:41.0000000+00:00</time></trkpt><trkpt lat="39.54455794" lon="-0.5074224"><ele>110.8</ele><time>2022-11-01T12:50:42.0000000+00:00</time></trkpt><trkpt lat="39.54458979" lon="-0.5074711"><ele>110.6</ele><time>2022-11-01T12:50:43.0000000+00:00</time></trkpt><trkpt lat="39.54461561" lon="-0.50750571"><ele>110.6</ele><time>2022-11-01T12:50:44.0000000+00:00</time></trkpt><trkpt lat="39.54463514" lon="-0.50753891"><ele>110.4</ele><time>2022-11-01T12:50:45.0000000+00:00</time></trkpt><trkpt lat="39.54465064" lon="-0.50757939"><ele>110.4</ele><time>2022-11-01T12:50:46.0000000+00:00</time></trkpt><trkpt lat="39.54467445" lon="-0.50763471"><ele>110.4</ele><time>2022-11-01T12:50:47.0000000+00:00</time></trkpt><trkpt lat="39.54470068" lon="-0.50767612"><ele>110.4</ele><time>2022-11-01T12:50:48.0000000+00:00</time></trkpt><trkpt lat="39.54472457" lon="-0.50770805"><ele>110.4</ele><time>2022-11-01T12:50:49.0000000+00:00</time></trkpt><trkpt lat="39.54475416" lon="-0.50774007"><ele>110.4</ele><time>2022-11-01T12:50:50.0000000+00:00</time></trkpt><trkpt lat="39.54478827" lon="-0.50776991"><ele>110.4</ele><time>2022-11-01T12:50:51.0000000+00:00</time></trkpt><trkpt lat="39.54481292" lon="-0.50779338"><ele>110.2</ele><time>2022-11-01T12:50:52.0000000+00:00</time></trkpt><trkpt lat="39.54482909" lon="-0.50781006"><ele>110.2</ele><time>2022-11-01T12:50:53.0000000+00:00</time></trkpt><trkpt lat="39.54485131" lon="-0.50783051"><ele>110.2</ele><time>2022-11-01T12:50:54.0000000+00:00</time></trkpt><trkpt lat="39.54487058" lon="-0.50784141"><ele>110.2</ele><time>2022-11-01T12:50:55.0000000+00:00</time></trkpt><trkpt lat="39.5448871" lon="-0.50784962"><ele>110.2</ele><time>2022-11-01T12:50:56.0000000+00:00</time></trkpt><trkpt lat="39.54490822" lon="-0.50786764"><ele>110.2</ele><time>2022-11-01T12:50:57.0000000+00:00</time></trkpt><trkpt lat="39.54492146" lon="-0.50788265"><ele>110.0</ele><time>2022-11-01T12:50:58.0000000+00:00</time></trkpt><trkpt lat="39.54493906" lon="-0.50790394"><ele>110.0</ele><time>2022-11-01T12:50:59.0000000+00:00</time></trkpt><trkpt lat="39.54495826" lon="-0.50791928"><ele>110.0</ele><time>2022-11-01T12:51:00.0000000+00:00</time></trkpt><trkpt lat="39.54498307" lon="-0.50793629"><ele>110.0</ele><time>2022-11-01T12:51:01.0000000+00:00</time></trkpt><trkpt lat="39.54501039" lon="-0.50795171"><ele>110.0</ele><time>2022-11-01T12:51:02.0000000+00:00</time></trkpt><trkpt lat="39.54504216" lon="-0.5079746"><ele>110.0</ele><time>2022-11-01T12:51:03.0000000+00:00</time></trkpt><trkpt lat="39.54507376" lon="-0.50800125"><ele>110.0</ele><time>2022-11-01T12:51:04.0000000+00:00</time></trkpt><trkpt lat="39.54510486" lon="-0.50802841"><ele>110.0</ele><time>2022-11-01T12:51:05.0000000+00:00</time></trkpt><trkpt lat="39.54513855" lon="-0.50805632"><ele>109.8</ele><time>2022-11-01T12:51:06.0000000+00:00</time></trkpt><trkpt lat="39.54517485" lon="-0.50808415"><ele>109.8</ele><time>2022-11-01T12:51:07.0000000+00:00</time></trkpt><trkpt lat="39.54521307" lon="-0.50811558"><ele>109.8</ele><time>2022-11-01T12:51:08.0000000+00:00</time></trkpt><trkpt lat="39.54524861" lon="-0.50815472"><ele>109.6</ele><time>2022-11-01T12:51:09.0000000+00:00</time></trkpt><trkpt lat="39.54528172" lon="-0.50819605"><ele>109.6</ele><time>2022-11-01T12:51:10.0000000+00:00</time></trkpt><trkpt lat="39.54531667" lon="-0.50823645"><ele>109.8</ele><time>2022-11-01T12:51:11.0000000+00:00</time></trkpt><trkpt lat="39.5453533" lon="-0.50827232"><ele>109.8</ele><time>2022-11-01T12:51:12.0000000+00:00</time></trkpt><trkpt lat="39.54538926" lon="-0.50830535"><ele>109.8</ele><time>2022-11-01T12:51:13.0000000+00:00</time></trkpt><trkpt lat="39.54542345" lon="-0.50833527"><ele>109.8</ele><time>2022-11-01T12:51:14.0000000+00:00</time></trkpt><trkpt lat="39.5454564" lon="-0.50836771"><ele>109.8</ele><time>2022-11-01T12:51:15.0000000+00:00</time></trkpt><trkpt lat="39.54548649" lon="-0.50840551"><ele>109.8</ele><time>2022-11-01T12:51:16.0000000+00:00</time></trkpt><trkpt lat="39.54551683" lon="-0.50844164"><ele>109.8</ele><time>2022-11-01T12:51:17.0000000+00:00</time></trkpt><trkpt lat="39.54554759" lon="-0.5084734"><ele>109.8</ele><time>2022-11-01T12:51:18.0000000+00:00</time></trkpt><trkpt lat="39.54558246" lon="-0.50849972"><ele>109.8</ele><time>2022-11-01T12:51:19.0000000+00:00</time></trkpt><trkpt lat="39.54562093" lon="-0.50852805"><ele>109.4</ele><time>2022-11-01T12:51:20.0000000+00:00</time></trkpt><trkpt lat="39.54566527" lon="-0.50855773"><ele>109.4</ele><time>2022-11-01T12:51:21.0000000+00:00</time></trkpt><trkpt lat="39.54571498" lon="-0.50858849"><ele>109.0</ele><time>2022-11-01T12:51:22.0000000+00:00</time></trkpt><trkpt lat="39.54576577" lon="-0.50861506"><ele>108.8</ele><time>2022-11-01T12:51:23.0000000+00:00</time></trkpt><trkpt lat="39.54581657" lon="-0.50863023"><ele>108.6</ele><time>2022-11-01T12:51:24.0000000+00:00</time></trkpt><trkpt lat="39.54586702" lon="-0.50863534"><ele>108.6</ele><time>2022-11-01T12:51:25.0000000+00:00</time></trkpt><trkpt lat="39.54591774" lon="-0.50862813"><ele>108.4</ele><time>2022-11-01T12:51:26.0000000+00:00</time></trkpt><trkpt lat="39.54596585" lon="-0.50861606"><ele>108.4</ele><time>2022-11-01T12:51:27.0000000+00:00</time></trkpt><trkpt lat="39.54601036" lon="-0.50860165"><ele>108.0</ele><time>2022-11-01T12:51:28.0000000+00:00</time></trkpt><trkpt lat="39.54605176" lon="-0.50858346"><ele>108.0</ele><time>2022-11-01T12:51:29.0000000+00:00</time></trkpt><trkpt lat="39.54608982" lon="-0.50856141"><ele>108.0</ele><time>2022-11-01T12:51:30.0000000+00:00</time></trkpt><trkpt lat="39.54613793" lon="-0.50854054"><ele>108.0</ele><time>2022-11-01T12:51:31.0000000+00:00</time></trkpt><trkpt lat="39.54616953" lon="-0.50853384"><ele>107.8</ele><time>2022-11-01T12:51:32.0000000+00:00</time></trkpt><trkpt lat="39.54620842" lon="-0.50853962"><ele>107.8</ele><time>2022-11-01T12:51:33.0000000+00:00</time></trkpt><trkpt lat="39.54623583" lon="-0.50856208"><ele>107.8</ele><time>2022-11-01T12:51:34.0000000+00:00</time></trkpt><trkpt lat="39.54624999" lon="-0.50860014"><ele>107.6</ele><time>2022-11-01T12:51:35.0000000+00:00</time></trkpt><trkpt lat="39.54625787" lon="-0.50865127"><ele>107.6</ele><time>2022-11-01T12:51:36.0000000+00:00</time></trkpt><trkpt lat="39.54626659" lon="-0.50870391"><ele>107.6</ele><time>2022-11-01T12:51:37.0000000+00:00</time></trkpt><trkpt lat="39.54628335" lon="-0.50875747"><ele>107.2</ele><time>2022-11-01T12:51:38.0000000+00:00</time></trkpt><trkpt lat="39.54630213" lon="-0.50881421"><ele>107.0</ele><time>2022-11-01T12:51:39.0000000+00:00</time></trkpt><trkpt lat="39.54632158" lon="-0.5088645"><ele>106.6</ele><time>2022-11-01T12:51:40.0000000+00:00</time></trkpt><trkpt lat="39.54634178" lon="-0.50890926"><ele>106.4</ele><time>2022-11-01T12:51:41.0000000+00:00</time></trkpt><trkpt lat="39.54636206" lon="-0.50895"><ele>106.2</ele><time>2022-11-01T12:51:42.0000000+00:00</time></trkpt><trkpt lat="39.54638226" lon="-0.50899518"><ele>106.0</ele><time>2022-11-01T12:51:43.0000000+00:00</time></trkpt><trkpt lat="39.54640556" lon="-0.50903566"><ele>106.0</ele><time>2022-11-01T12:51:44.0000000+00:00</time></trkpt><trkpt lat="39.5464261" lon="-0.509079"><ele>106.0</ele><time>2022-11-01T12:51:45.0000000+00:00</time></trkpt><trkpt lat="39.5464473" lon="-0.5091282"><ele>105.8</ele><time>2022-11-01T12:51:46.0000000+00:00</time></trkpt><trkpt lat="39.54647496" lon="-0.50917732"><ele>105.8</ele><time>2022-11-01T12:51:47.0000000+00:00</time></trkpt><trkpt lat="39.54650279" lon="-0.50922576"><ele>105.8</ele><time>2022-11-01T12:51:48.0000000+00:00</time></trkpt><trkpt lat="39.54652526" lon="-0.50927966"><ele>105.8</ele><time>2022-11-01T12:51:49.0000000+00:00</time></trkpt><trkpt lat="39.54653523" lon="-0.50932643"><ele>105.8</ele><time>2022-11-01T12:51:50.0000000+00:00</time></trkpt><trkpt lat="39.54652484" lon="-0.50937546"><ele>105.8</ele><time>2022-11-01T12:51:51.0000000+00:00</time></trkpt><trkpt lat="39.54651168" lon="-0.50941939"><ele>105.8</ele><time>2022-11-01T12:51:52.0000000+00:00</time></trkpt><trkpt lat="39.5464872" lon="-0.50946867"><ele>105.8</ele><time>2022-11-01T12:51:53.0000000+00:00</time></trkpt><trkpt lat="39.54644395" lon="-0.50952592"><ele>105.8</ele><time>2022-11-01T12:51:54.0000000+00:00</time></trkpt><trkpt lat="39.54640271" lon="-0.50957797"><ele>105.8</ele><time>2022-11-01T12:51:55.0000000+00:00</time></trkpt><trkpt lat="39.54637187" lon="-0.50962868"><ele>105.8</ele><time>2022-11-01T12:51:56.0000000+00:00</time></trkpt><trkpt lat="39.54633582" lon="-0.50966975"><ele>105.8</ele><time>2022-11-01T12:51:57.0000000+00:00</time></trkpt><trkpt lat="39.54629039" lon="-0.5097001"><ele>106.0</ele><time>2022-11-01T12:51:58.0000000+00:00</time></trkpt><trkpt lat="39.54625201" lon="-0.50971585"><ele>106.0</ele><time>2022-11-01T12:51:59.0000000+00:00</time></trkpt><trkpt lat="39.54621462" lon="-0.50973463"><ele>106.0</ele><time>2022-11-01T12:52:00.0000000+00:00</time></trkpt><trkpt lat="39.54616374" lon="-0.50975542"><ele>106.0</ele><time>2022-11-01T12:52:01.0000000+00:00</time></trkpt><trkpt lat="39.54611278" lon="-0.50976556"><ele>106.0</ele><time>2022-11-01T12:52:02.0000000+00:00</time></trkpt><trkpt lat="39.54606425" lon="-0.50977436"><ele>105.6</ele><time>2022-11-01T12:52:03.0000000+00:00</time></trkpt><trkpt lat="39.54601714" lon="-0.50978961"><ele>105.6</ele><time>2022-11-01T12:52:04.0000000+00:00</time></trkpt><trkpt lat="39.54595135" lon="-0.5098151"><ele>105.4</ele><time>2022-11-01T12:52:05.0000000+00:00</time></trkpt><trkpt lat="39.54588748" lon="-0.50984929"><ele>105.4</ele><time>2022-11-01T12:52:06.0000000+00:00</time></trkpt><trkpt lat="39.54583517" lon="-0.50989003"><ele>105.4</ele><time>2022-11-01T12:52:07.0000000+00:00</time></trkpt><trkpt lat="39.54579628" lon="-0.50992096"><ele>105.4</ele><time>2022-11-01T12:52:08.0000000+00:00</time></trkpt><trkpt lat="39.54575613" lon="-0.50993906"><ele>105.4</ele><time>2022-11-01T12:52:09.0000000+00:00</time></trkpt><trkpt lat="39.54571657" lon="-0.50994669"><ele>105.4</ele><time>2022-11-01T12:52:10.0000000+00:00</time></trkpt><trkpt lat="39.54567961" lon="-0.50996681"><ele>105.4</ele><time>2022-11-01T12:52:11.0000000+00:00</time></trkpt><trkpt lat="39.54562764" lon="-0.50998726"><ele>105.4</ele><time>2022-11-01T12:52:12.0000000+00:00</time></trkpt><trkpt lat="39.54557634" lon="-0.51000352"><ele>105.2</ele><time>2022-11-01T12:52:13.0000000+00:00</time></trkpt><trkpt lat="39.5455372" lon="-0.51001718"><ele>105.2</ele><time>2022-11-01T12:52:14.0000000+00:00</time></trkpt><trkpt lat="39.5454999" lon="-0.51003244"><ele>105.2</ele><time>2022-11-01T12:52:15.0000000+00:00</time></trkpt><trkpt lat="39.5454574" lon="-0.51005524"><ele>105.2</ele><time>2022-11-01T12:52:16.0000000+00:00</time></trkpt><trkpt lat="39.54541834" lon="-0.5100777"><ele>105.2</ele><time>2022-11-01T12:52:17.0000000+00:00</time></trkpt><trkpt lat="39.54538305" lon="-0.51010192"><ele>105.2</ele><time>2022-11-01T12:52:18.0000000+00:00</time></trkpt><trkpt lat="39.54535548" lon="-0.51012489"><ele>105.2</ele><time>2022-11-01T12:52:19.0000000+00:00</time></trkpt><trkpt lat="39.54532824" lon="-0.51015121"><ele>105.4</ele><time>2022-11-01T12:52:20.0000000+00:00</time></trkpt><trkpt lat="39.54530435" lon="-0.51018373"><ele>105.4</ele><time>2022-11-01T12:52:21.0000000+00:00</time></trkpt><trkpt lat="39.54529186" lon="-0.51020628"><ele>105.8</ele><time>2022-11-01T12:52:22.0000000+00:00</time></trkpt><trkpt lat="39.54527979" lon="-0.51022916"><ele>105.8</ele><time>2022-11-01T12:52:23.0000000+00:00</time></trkpt><trkpt lat="39.54526546" lon="-0.51025154"><ele>106.0</ele><time>2022-11-01T12:52:24.0000000+00:00</time></trkpt><trkpt lat="39.54525271" lon="-0.51028255"><ele>106.2</ele><time>2022-11-01T12:52:25.0000000+00:00</time></trkpt><trkpt lat="39.54524408" lon="-0.51031357"><ele>106.2</ele><time>2022-11-01T12:52:26.0000000+00:00</time></trkpt><trkpt lat="39.54523034" lon="-0.51034735"><ele>106.4</ele><time>2022-11-01T12:52:27.0000000+00:00</time></trkpt><trkpt lat="39.54521734" lon="-0.51038146"><ele>106.4</ele><time>2022-11-01T12:52:28.0000000+00:00</time></trkpt><trkpt lat="39.54520251" lon="-0.51041289"><ele>106.6</ele><time>2022-11-01T12:52:29.0000000+00:00</time></trkpt><trkpt lat="39.54518801" lon="-0.51044215"><ele>106.6</ele><time>2022-11-01T12:52:30.0000000+00:00</time></trkpt><trkpt lat="39.54517476" lon="-0.51046578"><ele>106.6</ele><time>2022-11-01T12:52:31.0000000+00:00</time></trkpt><trkpt lat="39.54516445" lon="-0.51049428"><ele>106.8</ele><time>2022-11-01T12:52:32.0000000+00:00</time></trkpt><trkpt lat="39.54515381" lon="-0.51052697"><ele>106.8</ele><time>2022-11-01T12:52:33.0000000+00:00</time></trkpt><trkpt lat="39.54513604" lon="-0.51056"><ele>107.0</ele><time>2022-11-01T12:52:34.0000000+00:00</time></trkpt><trkpt lat="39.54511643" lon="-0.51057919"><ele>107.0</ele><time>2022-11-01T12:52:35.0000000+00:00</time></trkpt><trkpt lat="39.54509824" lon="-0.51059964"><ele>107.2</ele><time>2022-11-01T12:52:36.0000000+00:00</time></trkpt><trkpt lat="39.5450813" lon="-0.51061875"><ele>107.2</ele><time>2022-11-01T12:52:37.0000000+00:00</time></trkpt><trkpt lat="39.5450684" lon="-0.51064239"><ele>107.4</ele><time>2022-11-01T12:52:38.0000000+00:00</time></trkpt><trkpt lat="39.54505901" lon="-0.51067499"><ele>107.4</ele><time>2022-11-01T12:52:39.0000000+00:00</time></trkpt><trkpt lat="39.54504786" lon="-0.51069561"><ele>107.6</ele><time>2022-11-01T12:52:40.0000000+00:00</time></trkpt><trkpt lat="39.54503713" lon="-0.5107242"><ele>107.6</ele><time>2022-11-01T12:52:41.0000000+00:00</time></trkpt><trkpt lat="39.54502448" lon="-0.51075437"><ele>107.8</ele><time>2022-11-01T12:52:42.0000000+00:00</time></trkpt><trkpt lat="39.54501031" lon="-0.510777"><ele>107.8</ele><time>2022-11-01T12:52:43.0000000+00:00</time></trkpt><trkpt lat="39.54500344" lon="-0.51080433"><ele>108.0</ele><time>2022-11-01T12:52:44.0000000+00:00</time></trkpt><trkpt lat="39.54499464" lon="-0.51083056"><ele>108.0</ele><time>2022-11-01T12:52:45.0000000+00:00</time></trkpt><trkpt lat="39.54498005" lon="-0.51085269"><ele>108.2</ele><time>2022-11-01T12:52:46.0000000+00:00</time></trkpt><trkpt lat="39.54496228" lon="-0.5108749"><ele>108.2</ele><time>2022-11-01T12:52:47.0000000+00:00</time></trkpt><trkpt lat="39.54494728" lon="-0.51089888"><ele>108.4</ele><time>2022-11-01T12:52:48.0000000+00:00</time></trkpt><trkpt lat="39.54493529" lon="-0.51092494"><ele>108.6</ele><time>2022-11-01T12:52:49.0000000+00:00</time></trkpt><trkpt lat="39.54492456" lon="-0.51095478"><ele>108.8</ele><time>2022-11-01T12:52:50.0000000+00:00</time></trkpt><trkpt lat="39.54491735" lon="-0.51098286"><ele>108.8</ele><time>2022-11-01T12:52:51.0000000+00:00</time></trkpt><trkpt lat="39.54491157" lon="-0.51100968"><ele>109.0</ele><time>2022-11-01T12:52:52.0000000+00:00</time></trkpt><trkpt lat="39.54490336" lon="-0.51103625"><ele>109.0</ele><time>2022-11-01T12:52:53.0000000+00:00</time></trkpt><trkpt lat="39.54488969" lon="-0.51105922"><ele>109.2</ele><time>2022-11-01T12:52:54.0000000+00:00</time></trkpt><trkpt lat="39.5448798" lon="-0.51108127"><ele>109.4</ele><time>2022-11-01T12:52:55.0000000+00:00</time></trkpt><trkpt lat="39.54486681" lon="-0.51110641"><ele>109.6</ele><time>2022-11-01T12:52:56.0000000+00:00</time></trkpt><trkpt lat="39.54484963" lon="-0.51113516"><ele>109.6</ele><time>2022-11-01T12:52:57.0000000+00:00</time></trkpt><trkpt lat="39.54483572" lon="-0.51116182"><ele>109.6</ele><time>2022-11-01T12:52:58.0000000+00:00</time></trkpt><trkpt lat="39.5448213" lon="-0.51118478"><ele>109.8</ele><time>2022-11-01T12:52:59.0000000+00:00</time></trkpt><trkpt lat="39.54480068" lon="-0.51121638"><ele>109.8</ele><time>2022-11-01T12:53:00.0000000+00:00</time></trkpt><trkpt lat="39.54478609" lon="-0.51123792"><ele>110.0</ele><time>2022-11-01T12:53:01.0000000+00:00</time></trkpt><trkpt lat="39.54476849" lon="-0.51126584"><ele>110.2</ele><time>2022-11-01T12:53:02.0000000+00:00</time></trkpt><trkpt lat="39.54475726" lon="-0.5112919"><ele>110.2</ele><time>2022-11-01T12:53:03.0000000+00:00</time></trkpt><trkpt lat="39.54474444" lon="-0.51131445"><ele>110.2</ele><time>2022-11-01T12:53:04.0000000+00:00</time></trkpt><trkpt lat="39.54473371" lon="-0.51133633"><ele>110.4</ele><time>2022-11-01T12:53:05.0000000+00:00</time></trkpt><trkpt lat="39.54472541" lon="-0.51135871"><ele>110.4</ele><time>2022-11-01T12:53:06.0000000+00:00</time></trkpt><trkpt lat="39.54471711" lon="-0.51138109"><ele>110.6</ele><time>2022-11-01T12:53:07.0000000+00:00</time></trkpt><trkpt lat="39.54470303" lon="-0.51141411"><ele>110.6</ele><time>2022-11-01T12:53:08.0000000+00:00</time></trkpt><trkpt lat="39.54468962" lon="-0.51143867"><ele>110.8</ele><time>2022-11-01T12:53:09.0000000+00:00</time></trkpt><trkpt lat="39.54467277" lon="-0.5114701"><ele>110.8</ele><time>2022-11-01T12:53:10.0000000+00:00</time></trkpt><trkpt lat="39.54465793" lon="-0.51150086"><ele>110.8</ele><time>2022-11-01T12:53:11.0000000+00:00</time></trkpt><trkpt lat="39.54464218" lon="-0.51153112"><ele>111.0</ele><time>2022-11-01T12:53:12.0000000+00:00</time></trkpt><trkpt lat="39.54462349" lon="-0.51156532"><ele>111.0</ele><time>2022-11-01T12:53:13.0000000+00:00</time></trkpt><trkpt lat="39.54460706" lon="-0.51159306"><ele>111.2</ele><time>2022-11-01T12:53:14.0000000+00:00</time></trkpt><trkpt lat="39.54458711" lon="-0.5116245"><ele>111.2</ele><time>2022-11-01T12:53:15.0000000+00:00</time></trkpt><trkpt lat="39.54456766" lon="-0.51165585"><ele>111.2</ele><time>2022-11-01T12:53:16.0000000+00:00</time></trkpt><trkpt lat="39.54455475" lon="-0.51168568"><ele>111.4</ele><time>2022-11-01T12:53:17.0000000+00:00</time></trkpt><trkpt lat="39.54454277" lon="-0.51173145"><ele>111.4</ele><time>2022-11-01T12:53:18.0000000+00:00</time></trkpt><trkpt lat="39.54453447" lon="-0.51175903"><ele>111.4</ele><time>2022-11-01T12:53:19.0000000+00:00</time></trkpt><trkpt lat="39.54452081" lon="-0.51178996"><ele>111.6</ele><time>2022-11-01T12:53:20.0000000+00:00</time></trkpt><trkpt lat="39.544496" lon="-0.51183597"><ele>111.6</ele><time>2022-11-01T12:53:21.0000000+00:00</time></trkpt><trkpt lat="39.54447781" lon="-0.51187512"><ele>111.6</ele><time>2022-11-01T12:53:22.0000000+00:00</time></trkpt><trkpt lat="39.54446264" lon="-0.51190269"><ele>111.6</ele><time>2022-11-01T12:53:23.0000000+00:00</time></trkpt><trkpt lat="39.54444051" lon="-0.5119467"><ele>111.6</ele><time>2022-11-01T12:53:24.0000000+00:00</time></trkpt><trkpt lat="39.54442693" lon="-0.51198299"><ele>111.6</ele><time>2022-11-01T12:53:25.0000000+00:00</time></trkpt><trkpt lat="39.54441846" lon="-0.51201417"><ele>111.8</ele><time>2022-11-01T12:53:26.0000000+00:00</time></trkpt><trkpt lat="39.54440069" lon="-0.51205658"><ele>111.8</ele><time>2022-11-01T12:53:27.0000000+00:00</time></trkpt><trkpt lat="39.54438091" lon="-0.51208701"><ele>111.8</ele><time>2022-11-01T12:53:28.0000000+00:00</time></trkpt><trkpt lat="39.54436398" lon="-0.51212112"><ele>111.8</ele><time>2022-11-01T12:53:29.0000000+00:00</time></trkpt><trkpt lat="39.5443416" lon="-0.51216085"><ele>111.8</ele><time>2022-11-01T12:53:30.0000000+00:00</time></trkpt><trkpt lat="39.54431302" lon="-0.51220444"><ele>111.8</ele><time>2022-11-01T12:53:31.0000000+00:00</time></trkpt><trkpt lat="39.54429089" lon="-0.51224166"><ele>111.8</ele><time>2022-11-01T12:53:32.0000000+00:00</time></trkpt><trkpt lat="39.54426575" lon="-0.51228977"><ele>111.8</ele><time>2022-11-01T12:53:33.0000000+00:00</time></trkpt><trkpt lat="39.54424747" lon="-0.51234065"><ele>111.8</ele><time>2022-11-01T12:53:34.0000000+00:00</time></trkpt><trkpt lat="39.5442261" lon="-0.51239563"><ele>111.6</ele><time>2022-11-01T12:53:35.0000000+00:00</time></trkpt><trkpt lat="39.5442038" lon="-0.51244802"><ele>111.6</ele><time>2022-11-01T12:53:36.0000000+00:00</time></trkpt><trkpt lat="39.5441831" lon="-0.51251189"><ele>111.4</ele><time>2022-11-01T12:53:37.0000000+00:00</time></trkpt><trkpt lat="39.54416818" lon="-0.51255724"><ele>111.4</ele><time>2022-11-01T12:53:38.0000000+00:00</time></trkpt><trkpt lat="39.5441401" lon="-0.51261415"><ele>111.4</ele><time>2022-11-01T12:53:39.0000000+00:00</time></trkpt><trkpt lat="39.54411118" lon="-0.51266335"><ele>111.2</ele><time>2022-11-01T12:53:40.0000000+00:00</time></trkpt><trkpt lat="39.54409056" lon="-0.51271532"><ele>111.2</ele><time>2022-11-01T12:53:41.0000000+00:00</time></trkpt><trkpt lat="39.54406911" lon="-0.51276594"><ele>111.0</ele><time>2022-11-01T12:53:42.0000000+00:00</time></trkpt><trkpt lat="39.54404539" lon="-0.51281221"><ele>111.0</ele><time>2022-11-01T12:53:43.0000000+00:00</time></trkpt><trkpt lat="39.54402133" lon="-0.51286602"><ele>110.8</ele><time>2022-11-01T12:53:44.0000000+00:00</time></trkpt><trkpt lat="39.54400029" lon="-0.51290928"><ele>110.8</ele><time>2022-11-01T12:53:45.0000000+00:00</time></trkpt><trkpt lat="39.54398051" lon="-0.51295714"><ele>110.8</ele><time>2022-11-01T12:53:46.0000000+00:00</time></trkpt><trkpt lat="39.54395536" lon="-0.51300516"><ele>110.6</ele><time>2022-11-01T12:53:47.0000000+00:00</time></trkpt><trkpt lat="39.54393097" lon="-0.51305437"><ele>110.6</ele><time>2022-11-01T12:53:48.0000000+00:00</time></trkpt><trkpt lat="39.54391044" lon="-0.51309879"><ele>110.6</ele><time>2022-11-01T12:53:49.0000000+00:00</time></trkpt><trkpt lat="39.54388521" lon="-0.51314305"><ele>110.4</ele><time>2022-11-01T12:53:50.0000000+00:00</time></trkpt><trkpt lat="39.54386031" lon="-0.51318797"><ele>110.4</ele><time>2022-11-01T12:53:51.0000000+00:00</time></trkpt><trkpt lat="39.54383265" lon="-0.51323659"><ele>110.4</ele><time>2022-11-01T12:53:52.0000000+00:00</time></trkpt><trkpt lat="39.5438039" lon="-0.51328235"><ele>110.2</ele><time>2022-11-01T12:53:53.0000000+00:00</time></trkpt><trkpt lat="39.54377163" lon="-0.51332845"><ele>110.0</ele><time>2022-11-01T12:53:54.0000000+00:00</time></trkpt><trkpt lat="39.54374095" lon="-0.51338176"><ele>109.8</ele><time>2022-11-01T12:53:55.0000000+00:00</time></trkpt><trkpt lat="39.54371237" lon="-0.51343868"><ele>109.6</ele><time>2022-11-01T12:53:56.0000000+00:00</time></trkpt><trkpt lat="39.54368169" lon="-0.51349416"><ele>109.4</ele><time>2022-11-01T12:53:57.0000000+00:00</time></trkpt><trkpt lat="39.54364657" lon="-0.51356658"><ele>109.2</ele><time>2022-11-01T12:53:58.0000000+00:00</time></trkpt><trkpt lat="39.54361598" lon="-0.51363741"><ele>109.2</ele><time>2022-11-01T12:53:59.0000000+00:00</time></trkpt><trkpt lat="39.54358933" lon="-0.51370497"><ele>109.0</ele><time>2022-11-01T12:54:00.0000000+00:00</time></trkpt><trkpt lat="39.54356292" lon="-0.5137711"><ele>108.8</ele><time>2022-11-01T12:54:01.0000000+00:00</time></trkpt><trkpt lat="39.54353761" lon="-0.51382626"><ele>108.8</ele><time>2022-11-01T12:54:02.0000000+00:00</time></trkpt><trkpt lat="39.54350266" lon="-0.51389323"><ele>108.6</ele><time>2022-11-01T12:54:03.0000000+00:00</time></trkpt><trkpt lat="39.5434791" lon="-0.51395827"><ele>108.6</ele><time>2022-11-01T12:54:04.0000000+00:00</time></trkpt><trkpt lat="39.54345664" lon="-0.51402348"><ele>108.4</ele><time>2022-11-01T12:54:05.0000000+00:00</time></trkpt><trkpt lat="39.54343183" lon="-0.51408433"><ele>108.2</ele><time>2022-11-01T12:54:06.0000000+00:00</time></trkpt><trkpt lat="39.54340769" lon="-0.51415063"><ele>108.0</ele><time>2022-11-01T12:54:07.0000000+00:00</time></trkpt><trkpt lat="39.54338372" lon="-0.51422255"><ele>108.0</ele><time>2022-11-01T12:54:08.0000000+00:00</time></trkpt><trkpt lat="39.5433688" lon="-0.51429832"><ele>107.8</ele><time>2022-11-01T12:54:09.0000000+00:00</time></trkpt><trkpt lat="39.54336008" lon="-0.51436169"><ele>107.8</ele><time>2022-11-01T12:54:10.0000000+00:00</time></trkpt><trkpt lat="39.54335555" lon="-0.5144129"><ele>107.8</ele><time>2022-11-01T12:54:11.0000000+00:00</time></trkpt><trkpt lat="39.54336" lon="-0.5144471"><ele>107.6</ele><time>2022-11-01T12:54:12.0000000+00:00</time></trkpt><trkpt lat="39.54335765" lon="-0.51446353"><ele>107.4</ele><time>2022-11-01T12:54:13.0000000+00:00</time></trkpt><trkpt lat="39.54335656" lon="-0.51446655"><ele>107.2</ele><time>2022-11-01T12:54:14.0000000+00:00</time></trkpt><trkpt lat="39.54335656" lon="-0.51446655"><ele>107.0</ele><time>2022-11-01T12:54:15.0000000+00:00</time></trkpt><trkpt lat="39.54335656" lon="-0.51446655"><ele>107.0</ele><time>2022-11-01T12:54:16.0000000+00:00</time></trkpt><trkpt lat="39.54335656" lon="-0.51446655"><ele>106.8</ele><time>2022-11-01T12:54:17.0000000+00:00</time></trkpt><trkpt lat="39.54335656" lon="-0.51446655"><ele>106.8</ele><time>2022-11-01T12:54:18.0000000+00:00</time></trkpt><trkpt lat="39.54335656" lon="-0.51446655"><ele>106.8</ele><time>2022-11-01T12:54:19.0000000+00:00</time></trkpt><trkpt lat="39.54335656" lon="-0.51446655"><ele>106.8</ele><time>2022-11-01T12:54:20.0000000+00:00</time></trkpt><trkpt lat="39.54335656" lon="-0.51446655"><ele>106.8</ele><time>2022-11-01T12:54:21.0000000+00:00</time></trkpt><trkpt lat="39.54335656" lon="-0.51446655"><ele>106.8</ele><time>2022-11-01T12:54:22.0000000+00:00</time></trkpt><trkpt lat="39.54335656" lon="-0.51446655"><ele>107.0</ele><time>2022-11-01T12:54:23.0000000+00:00</time></trkpt><trkpt lat="39.54335656" lon="-0.51446655"><ele>107.0</ele><time>2022-11-01T12:54:24.0000000+00:00</time></trkpt><trkpt lat="39.54335656" lon="-0.51446655"><ele>106.8</ele><time>2022-11-01T12:54:25.0000000+00:00</time></trkpt><trkpt lat="39.54335656" lon="-0.51446655"><ele>107.0</ele><time>2022-11-01T12:54:26.0000000+00:00</time></trkpt><trkpt lat="39.54335656" lon="-0.51446655"><ele>107.0</ele><time>2022-11-01T12:54:27.0000000+00:00</time></trkpt><trkpt lat="39.54335656" lon="-0.51446655"><ele>107.0</ele><time>2022-11-01T12:54:28.0000000+00:00</time></trkpt><trkpt lat="39.54335656" lon="-0.51446655"><ele>107.0</ele><time>2022-11-01T12:54:29.0000000+00:00</time></trkpt><trkpt lat="39.54335656" lon="-0.51446655"><ele>107.0</ele><time>2022-11-01T12:54:30.0000000+00:00</time></trkpt><trkpt lat="39.54335656" lon="-0.51446655"><ele>107.0</ele><time>2022-11-01T12:54:31.0000000+00:00</time></trkpt><trkpt lat="39.54335656" lon="-0.51446655"><ele>107.0</ele><time>2022-11-01T12:54:32.0000000+00:00</time></trkpt><trkpt lat="39.54335656" lon="-0.51446655"><ele>106.8</ele><time>2022-11-01T12:54:33.0000000+00:00</time></trkpt><trkpt lat="39.54335656" lon="-0.51446655"><ele>106.8</ele><time>2022-11-01T12:54:34.0000000+00:00</time></trkpt><trkpt lat="39.54335656" lon="-0.51446655"><ele>106.8</ele><time>2022-11-01T12:54:35.0000000+00:00</time></trkpt><trkpt lat="39.54335656" lon="-0.51446655"><ele>106.8</ele><time>2022-11-01T12:54:36.0000000+00:00</time></trkpt><trkpt lat="39.54335656" lon="-0.51446655"><ele>106.8</ele><time>2022-11-01T12:54:37.0000000+00:00</time></trkpt><trkpt lat="39.54335589" lon="-0.5144632"><ele>106.8</ele><time>2022-11-01T12:54:38.0000000+00:00</time></trkpt><trkpt lat="39.54335623" lon="-0.51445984"><ele>106.8</ele><time>2022-11-01T12:54:39.0000000+00:00</time></trkpt><trkpt lat="39.54335623" lon="-0.51445984"><ele>106.6</ele><time>2022-11-01T12:54:40.0000000+00:00</time></trkpt><trkpt lat="39.54335623" lon="-0.51445984"><ele>106.6</ele><time>2022-11-01T12:54:41.0000000+00:00</time></trkpt><trkpt lat="39.54335623" lon="-0.51445984"><ele>106.6</ele><time>2022-11-01T12:54:42.0000000+00:00</time></trkpt><trkpt lat="39.54336117" lon="-0.51445699"><ele>106.6</ele><time>2022-11-01T12:54:43.0000000+00:00</time></trkpt><trkpt lat="39.54336369" lon="-0.51444853"><ele>106.8</ele><time>2022-11-01T12:54:44.0000000+00:00</time></trkpt><trkpt lat="39.54336729" lon="-0.51443378"><ele>106.8</ele><time>2022-11-01T12:54:45.0000000+00:00</time></trkpt><trkpt lat="39.54337416" lon="-0.51440888"><ele>107.0</ele><time>2022-11-01T12:54:46.0000000+00:00</time></trkpt><trkpt lat="39.54337911" lon="-0.51438415"><ele>107.0</ele><time>2022-11-01T12:54:47.0000000+00:00</time></trkpt><trkpt lat="39.54338581" lon="-0.51435566"><ele>107.0</ele><time>2022-11-01T12:54:48.0000000+00:00</time></trkpt><trkpt lat="39.54339059" lon="-0.51432297"><ele>107.0</ele><time>2022-11-01T12:54:49.0000000+00:00</time></trkpt><trkpt lat="39.54339554" lon="-0.51428952"><ele>107.0</ele><time>2022-11-01T12:54:50.0000000+00:00</time></trkpt><trkpt lat="39.54340124" lon="-0.51425859"><ele>107.2</ele><time>2022-11-01T12:54:51.0000000+00:00</time></trkpt><trkpt lat="39.54340995" lon="-0.51422507"><ele>107.2</ele><time>2022-11-01T12:54:52.0000000+00:00</time></trkpt><trkpt lat="39.54342211" lon="-0.51419053"><ele>107.2</ele><time>2022-11-01T12:54:53.0000000+00:00</time></trkpt><trkpt lat="39.54343577" lon="-0.51415139"><ele>107.2</ele><time>2022-11-01T12:54:54.0000000+00:00</time></trkpt><trkpt lat="39.54345421" lon="-0.51411141"><ele>107.2</ele><time>2022-11-01T12:54:55.0000000+00:00</time></trkpt><trkpt lat="39.54347148" lon="-0.51407511"><ele>107.2</ele><time>2022-11-01T12:54:56.0000000+00:00</time></trkpt><trkpt lat="39.54348715" lon="-0.51403723"><ele>107.2</ele><time>2022-11-01T12:54:57.0000000+00:00</time></trkpt><trkpt lat="39.54350299" lon="-0.51400093"><ele>107.2</ele><time>2022-11-01T12:54:58.0000000+00:00</time></trkpt><trkpt lat="39.54351699" lon="-0.51396481"><ele>107.4</ele><time>2022-11-01T12:54:59.0000000+00:00</time></trkpt><trkpt lat="39.54353183" lon="-0.51393061"><ele>107.4</ele><time>2022-11-01T12:55:00.0000000+00:00</time></trkpt><trkpt lat="39.5435496" lon="-0.51389298"><ele>107.4</ele><time>2022-11-01T12:55:01.0000000+00:00</time></trkpt><trkpt lat="39.54356628" lon="-0.5138571"><ele>107.6</ele><time>2022-11-01T12:55:02.0000000+00:00</time></trkpt><trkpt lat="39.54358086" lon="-0.5138229"><ele>107.6</ele><time>2022-11-01T12:55:03.0000000+00:00</time></trkpt><trkpt lat="39.54359184" lon="-0.51379181"><ele>107.6</ele><time>2022-11-01T12:55:04.0000000+00:00</time></trkpt><trkpt lat="39.54359888" lon="-0.51376876"><ele>107.6</ele><time>2022-11-01T12:55:05.0000000+00:00</time></trkpt><trkpt lat="39.54360911" lon="-0.51373682"><ele>107.8</ele><time>2022-11-01T12:55:06.0000000+00:00</time></trkpt><trkpt lat="39.5436076" lon="-0.5137152"><ele>107.8</ele><time>2022-11-01T12:55:07.0000000+00:00</time></trkpt><trkpt lat="39.54360718" lon="-0.51369843"><ele>107.8</ele><time>2022-11-01T12:55:08.0000000+00:00</time></trkpt><trkpt lat="39.54361238" lon="-0.51368645"><ele>107.8</ele><time>2022-11-01T12:55:09.0000000+00:00</time></trkpt><trkpt lat="39.54361715" lon="-0.51367429"><ele>107.8</ele><time>2022-11-01T12:55:10.0000000+00:00</time></trkpt><trkpt lat="39.543619" lon="-0.51366834"><ele>108.0</ele><time>2022-11-01T12:55:11.0000000+00:00</time></trkpt><trkpt lat="39.543619" lon="-0.51366834"><ele>108.0</ele><time>2022-11-01T12:55:12.0000000+00:00</time></trkpt><trkpt lat="39.543619" lon="-0.51366834"><ele>108.0</ele><time>2022-11-01T12:55:13.0000000+00:00</time></trkpt><trkpt lat="39.543619" lon="-0.51366834"><ele>108.0</ele><time>2022-11-01T12:55:14.0000000+00:00</time></trkpt><trkpt lat="39.543619" lon="-0.51366834"><ele>108.0</ele><time>2022-11-01T12:55:15.0000000+00:00</time></trkpt><trkpt lat="39.543619" lon="-0.51366834"><ele>108.0</ele><time>2022-11-01T12:55:16.0000000+00:00</time></trkpt><trkpt lat="39.543619" lon="-0.51366834"><ele>108.0</ele><time>2022-11-01T12:55:17.0000000+00:00</time></trkpt><trkpt lat="39.543619" lon="-0.51366834"><ele>108.0</ele><time>2022-11-01T12:55:18.0000000+00:00</time></trkpt><trkpt lat="39.543619" lon="-0.51366834"><ele>108.0</ele><time>2022-11-01T12:55:19.0000000+00:00</time></trkpt><trkpt lat="39.543619" lon="-0.51366834"><ele>108.0</ele><time>2022-11-01T12:55:20.0000000+00:00</time></trkpt><trkpt lat="39.543619" lon="-0.51366834"><ele>108.0</ele><time>2022-11-01T12:55:21.0000000+00:00</time></trkpt><trkpt lat="39.543619" lon="-0.51366834"><ele>107.8</ele><time>2022-11-01T12:55:22.0000000+00:00</time></trkpt><trkpt lat="39.543619" lon="-0.51366834"><ele>107.6</ele><time>2022-11-01T12:55:23.0000000+00:00</time></trkpt><trkpt lat="39.543619" lon="-0.51366834"><ele>107.4</ele><time>2022-11-01T12:55:24.0000000+00:00</time></trkpt><trkpt lat="39.543619" lon="-0.51366834"><ele>107.4</ele><time>2022-11-01T12:55:25.0000000+00:00</time></trkpt><trkpt lat="39.543619" lon="-0.51366834"><ele>107.4</ele><time>2022-11-01T12:55:26.0000000+00:00</time></trkpt><trkpt lat="39.543619" lon="-0.51366834"><ele>107.4</ele><time>2022-11-01T12:55:27.0000000+00:00</time></trkpt><trkpt lat="39.543619" lon="-0.51366834"><ele>107.4</ele><time>2022-11-01T12:55:28.0000000+00:00</time></trkpt><trkpt lat="39.543619" lon="-0.51366834"><ele>107.4</ele><time>2022-11-01T12:55:29.0000000+00:00</time></trkpt><trkpt lat="39.543619" lon="-0.51366834"><ele>107.2</ele><time>2022-11-01T12:55:30.0000000+00:00</time></trkpt><trkpt lat="39.54361992" lon="-0.51366708"><ele>107.2</ele><time>2022-11-01T12:55:31.0000000+00:00</time></trkpt><trkpt lat="39.5436216" lon="-0.51366482"><ele>107.2</ele><time>2022-11-01T12:55:32.0000000+00:00</time></trkpt><trkpt lat="39.5436216" lon="-0.51366482"><ele>107.2</ele><time>2022-11-01T12:55:33.0000000+00:00</time></trkpt><trkpt lat="39.5436216" lon="-0.51366482"><ele>107.2</ele><time>2022-11-01T12:55:34.0000000+00:00</time></trkpt><trkpt lat="39.5436216" lon="-0.51366482"><ele>107.2</ele><time>2022-11-01T12:55:35.0000000+00:00</time></trkpt><trkpt lat="39.5436216" lon="-0.51366482"><ele>107.2</ele><time>2022-11-01T12:55:36.0000000+00:00</time></trkpt><trkpt lat="39.5436216" lon="-0.51366482"><ele>107.4</ele><time>2022-11-01T12:55:37.0000000+00:00</time></trkpt><trkpt lat="39.5436216" lon="-0.51366482"><ele>107.4</ele><time>2022-11-01T12:55:38.0000000+00:00</time></trkpt><trkpt lat="39.5436216" lon="-0.51366482"><ele>107.6</ele><time>2022-11-01T12:55:39.0000000+00:00</time></trkpt><trkpt lat="39.5436216" lon="-0.51366482"><ele>107.8</ele><time>2022-11-01T12:55:40.0000000+00:00</time></trkpt><trkpt lat="39.5436216" lon="-0.51366482"><ele>107.8</ele><time>2022-11-01T12:55:41.0000000+00:00</time></trkpt><trkpt lat="39.5436216" lon="-0.51366482"><ele>107.8</ele><time>2022-11-01T12:55:42.0000000+00:00</time></trkpt><trkpt lat="39.5436216" lon="-0.51366482"><ele>107.8</ele><time>2022-11-01T12:55:43.0000000+00:00</time></trkpt><trkpt lat="39.5436216" lon="-0.51366482"><ele>107.8</ele><time>2022-11-01T12:55:44.0000000+00:00</time></trkpt><trkpt lat="39.5436216" lon="-0.51366482"><ele>107.8</ele><time>2022-11-01T12:55:45.0000000+00:00</time></trkpt><trkpt lat="39.5436216" lon="-0.51366482"><ele>107.8</ele><time>2022-11-01T12:55:46.0000000+00:00</time></trkpt><trkpt lat="39.5436216" lon="-0.51366482"><ele>107.8</ele><time>2022-11-01T12:55:47.0000000+00:00</time></trkpt><trkpt lat="39.5436252" lon="-0.51366155"><ele>108.0</ele><time>2022-11-01T12:55:48.0000000+00:00</time></trkpt><trkpt lat="39.5436314" lon="-0.51365602"><ele>108.0</ele><time>2022-11-01T12:55:49.0000000+00:00</time></trkpt><trkpt lat="39.54363459" lon="-0.51365401"><ele>108.0</ele><time>2022-11-01T12:55:50.0000000+00:00</time></trkpt><trkpt lat="39.54363459" lon="-0.51365401"><ele>108.0</ele><time>2022-11-01T12:55:51.0000000+00:00</time></trkpt><trkpt lat="39.54363459" lon="-0.51365401"><ele>108.0</ele><time>2022-11-01T12:55:52.0000000+00:00</time></trkpt><trkpt lat="39.54363459" lon="-0.51365401"><ele>108.0</ele><time>2022-11-01T12:55:53.0000000+00:00</time></trkpt><trkpt lat="39.54363459" lon="-0.51365401"><ele>108.0</ele><time>2022-11-01T12:55:54.0000000+00:00</time></trkpt><trkpt lat="39.54363459" lon="-0.51365401"><ele>108.2</ele><time>2022-11-01T12:55:55.0000000+00:00</time></trkpt><trkpt lat="39.54363459" lon="-0.51365401"><ele>108.0</ele><time>2022-11-01T12:55:56.0000000+00:00</time></trkpt><trkpt lat="39.54363459" lon="-0.51365401"><ele>108.0</ele><time>2022-11-01T12:55:57.0000000+00:00</time></trkpt><trkpt lat="39.54363459" lon="-0.51365401"><ele>108.0</ele><time>2022-11-01T12:55:58.0000000+00:00</time></trkpt><trkpt lat="39.54363459" lon="-0.51365401"><ele>108.0</ele><time>2022-11-01T12:55:59.0000000+00:00</time></trkpt><trkpt lat="39.54363459" lon="-0.51365401"><ele>108.0</ele><time>2022-11-01T12:56:00.0000000+00:00</time></trkpt><trkpt lat="39.54363635" lon="-0.51365677"><ele>108.0</ele><time>2022-11-01T12:56:01.0000000+00:00</time></trkpt><trkpt lat="39.54363685" lon="-0.51366239"><ele>108.0</ele><time>2022-11-01T12:56:02.0000000+00:00</time></trkpt><trkpt lat="39.54363199" lon="-0.51366884"><ele>108.0</ele><time>2022-11-01T12:56:03.0000000+00:00</time></trkpt><trkpt lat="39.54362302" lon="-0.51367035"><ele>108.0</ele><time>2022-11-01T12:56:04.0000000+00:00</time></trkpt><trkpt lat="39.54361414" lon="-0.51367018"><ele>108.0</ele><time>2022-11-01T12:56:05.0000000+00:00</time></trkpt><trkpt lat="39.54360047" lon="-0.51367111"><ele>108.0</ele><time>2022-11-01T12:56:06.0000000+00:00</time></trkpt><trkpt lat="39.54358136" lon="-0.51367186"><ele>108.0</ele><time>2022-11-01T12:56:07.0000000+00:00</time></trkpt><trkpt lat="39.54355957" lon="-0.513668"><ele>108.0</ele><time>2022-11-01T12:56:08.0000000+00:00</time></trkpt><trkpt lat="39.5435361" lon="-0.51366214"><ele>108.0</ele><time>2022-11-01T12:56:09.0000000+00:00</time></trkpt><trkpt lat="39.54351263" lon="-0.51365233"><ele>108.0</ele><time>2022-11-01T12:56:10.0000000+00:00</time></trkpt><trkpt lat="39.54349453" lon="-0.51364487"><ele>108.2</ele><time>2022-11-01T12:56:11.0000000+00:00</time></trkpt><trkpt lat="39.54347977" lon="-0.51364588"><ele>108.2</ele><time>2022-11-01T12:56:12.0000000+00:00</time></trkpt><trkpt lat="39.54346628" lon="-0.51364873"><ele>108.2</ele><time>2022-11-01T12:56:13.0000000+00:00</time></trkpt><trkpt lat="39.54344926" lon="-0.51364998"><ele>108.2</ele><time>2022-11-01T12:56:14.0000000+00:00</time></trkpt><trkpt lat="39.54343879" lon="-0.51364789"><ele>108.2</ele><time>2022-11-01T12:56:15.0000000+00:00</time></trkpt><trkpt lat="39.54343652" lon="-0.5136473"><ele>108.2</ele><time>2022-11-01T12:56:16.0000000+00:00</time></trkpt><trkpt lat="39.54343652" lon="-0.5136473"><ele>108.2</ele><time>2022-11-01T12:56:17.0000000+00:00</time></trkpt><trkpt lat="39.54343652" lon="-0.5136473"><ele>108.4</ele><time>2022-11-01T12:56:18.0000000+00:00</time></trkpt><trkpt lat="39.54343342" lon="-0.51364906"><ele>108.4</ele><time>2022-11-01T12:56:19.0000000+00:00</time></trkpt><trkpt lat="39.54342772" lon="-0.51365208"><ele>108.4</ele><time>2022-11-01T12:56:20.0000000+00:00</time></trkpt><trkpt lat="39.54341834" lon="-0.51365082"><ele>108.4</ele><time>2022-11-01T12:56:21.0000000+00:00</time></trkpt><trkpt lat="39.54340476" lon="-0.51364806"><ele>108.4</ele><time>2022-11-01T12:56:22.0000000+00:00</time></trkpt><trkpt lat="39.54338967" lon="-0.51364554"><ele>108.4</ele><time>2022-11-01T12:56:23.0000000+00:00</time></trkpt><trkpt lat="39.54337567" lon="-0.5136406"><ele>108.4</ele><time>2022-11-01T12:56:24.0000000+00:00</time></trkpt><trkpt lat="39.54336343" lon="-0.51363154"><ele>108.4</ele><time>2022-11-01T12:56:25.0000000+00:00</time></trkpt><trkpt lat="39.54335321" lon="-0.51362685"><ele>108.4</ele><time>2022-11-01T12:56:26.0000000+00:00</time></trkpt><trkpt lat="39.54334407" lon="-0.51362358"><ele>108.4</ele><time>2022-11-01T12:56:27.0000000+00:00</time></trkpt><trkpt lat="39.54333334" lon="-0.51362651"><ele>108.4</ele><time>2022-11-01T12:56:28.0000000+00:00</time></trkpt><trkpt lat="39.54332664" lon="-0.51363766"><ele>108.4</ele><time>2022-11-01T12:56:29.0000000+00:00</time></trkpt><trkpt lat="39.54332429" lon="-0.51364864"><ele>108.4</ele><time>2022-11-01T12:56:30.0000000+00:00</time></trkpt><trkpt lat="39.5433237" lon="-0.51365334"><ele>108.4</ele><time>2022-11-01T12:56:31.0000000+00:00</time></trkpt><trkpt lat="39.5433237" lon="-0.51365334"><ele>108.4</ele><time>2022-11-01T12:56:32.0000000+00:00</time></trkpt><trkpt lat="39.5433237" lon="-0.51365334"><ele>108.2</ele><time>2022-11-01T12:56:33.0000000+00:00</time></trkpt><trkpt lat="39.5433237" lon="-0.51365334"><ele>108.2</ele><time>2022-11-01T12:56:34.0000000+00:00</time></trkpt><trkpt lat="39.5433237" lon="-0.51365334"><ele>108.2</ele><time>2022-11-01T12:56:35.0000000+00:00</time></trkpt><trkpt lat="39.5433237" lon="-0.51365334"><ele>108.2</ele><time>2022-11-01T12:56:36.0000000+00:00</time></trkpt><trkpt lat="39.5433237" lon="-0.51365334"><ele>108.0</ele><time>2022-11-01T12:56:37.0000000+00:00</time></trkpt><trkpt lat="39.5433237" lon="-0.51365334"><ele>108.0</ele><time>2022-11-01T12:56:38.0000000+00:00</time></trkpt><trkpt lat="39.5433237" lon="-0.51365334"><ele>108.0</ele><time>2022-11-01T12:56:39.0000000+00:00</time></trkpt><trkpt lat="39.5433237" lon="-0.51365334"><ele>108.0</ele><time>2022-11-01T12:56:40.0000000+00:00</time></trkpt><trkpt lat="39.5433237" lon="-0.51365334"><ele>108.0</ele><time>2022-11-01T12:56:41.0000000+00:00</time></trkpt><trkpt lat="39.5433237" lon="-0.51365334"><ele>108.0</ele><time>2022-11-01T12:56:42.0000000+00:00</time></trkpt><trkpt lat="39.5433237" lon="-0.51365334"><ele>108.0</ele><time>2022-11-01T12:56:43.0000000+00:00</time></trkpt><trkpt lat="39.5433237" lon="-0.51365334"><ele>108.2</ele><time>2022-11-01T12:56:44.0000000+00:00</time></trkpt><trkpt lat="39.5433237" lon="-0.51365334"><ele>108.2</ele><time>2022-11-01T12:56:45.0000000+00:00</time></trkpt><trkpt lat="39.54332052" lon="-0.51365711"><ele>108.2</ele><time>2022-11-01T12:56:46.0000000+00:00</time></trkpt><trkpt lat="39.54331415" lon="-0.51367178"><ele>108.2</ele><time>2022-11-01T12:56:47.0000000+00:00</time></trkpt><trkpt lat="39.54330501" lon="-0.51369097"><ele>108.4</ele><time>2022-11-01T12:56:48.0000000+00:00</time></trkpt><trkpt lat="39.54329805" lon="-0.51371561"><ele>108.4</ele><time>2022-11-01T12:56:49.0000000+00:00</time></trkpt><trkpt lat="39.54329043" lon="-0.51374277"><ele>108.4</ele><time>2022-11-01T12:56:50.0000000+00:00</time></trkpt><trkpt lat="39.54328381" lon="-0.5137685"><ele>108.4</ele><time>2022-11-01T12:56:51.0000000+00:00</time></trkpt><trkpt lat="39.54327651" lon="-0.51379583"><ele>108.6</ele><time>2022-11-01T12:56:52.0000000+00:00</time></trkpt><trkpt lat="39.54326721" lon="-0.51382248"><ele>108.6</ele><time>2022-11-01T12:56:53.0000000+00:00</time></trkpt><trkpt lat="39.54325858" lon="-0.51384872"><ele>108.8</ele><time>2022-11-01T12:56:54.0000000+00:00</time></trkpt><trkpt lat="39.54325807" lon="-0.51386967"><ele>108.8</ele><time>2022-11-01T12:56:55.0000000+00:00</time></trkpt><trkpt lat="39.54326017" lon="-0.51388761"><ele>108.8</ele><time>2022-11-01T12:56:56.0000000+00:00</time></trkpt><trkpt lat="39.54326293" lon="-0.51391712"><ele>108.8</ele><time>2022-11-01T12:56:57.0000000+00:00</time></trkpt><trkpt lat="39.54326185" lon="-0.5139457"><ele>109.0</ele><time>2022-11-01T12:56:58.0000000+00:00</time></trkpt><trkpt lat="39.54325967" lon="-0.51397344"><ele>109.0</ele><time>2022-11-01T12:56:59.0000000+00:00</time></trkpt><trkpt lat="39.54325497" lon="-0.51400479"><ele>109.0</ele><time>2022-11-01T12:57:00.0000000+00:00</time></trkpt><trkpt lat="39.54324776" lon="-0.51403614"><ele>109.0</ele><time>2022-11-01T12:57:01.0000000+00:00</time></trkpt><trkpt lat="39.54323586" lon="-0.51406732"><ele>109.0</ele><time>2022-11-01T12:57:02.0000000+00:00</time></trkpt><trkpt lat="39.5432279" lon="-0.51410194"><ele>109.0</ele><time>2022-11-01T12:57:03.0000000+00:00</time></trkpt><trkpt lat="39.54322119" lon="-0.51413488"><ele>109.0</ele><time>2022-11-01T12:57:04.0000000+00:00</time></trkpt><trkpt lat="39.54321499" lon="-0.51416455"><ele>109.0</ele><time>2022-11-01T12:57:05.0000000+00:00</time></trkpt><trkpt lat="39.54321055" lon="-0.51418978"><ele>108.8</ele><time>2022-11-01T12:57:06.0000000+00:00</time></trkpt><trkpt lat="39.54320661" lon="-0.51421224"><ele>108.8</ele><time>2022-11-01T12:57:07.0000000+00:00</time></trkpt><trkpt lat="39.54320367" lon="-0.51423454"><ele>108.8</ele><time>2022-11-01T12:57:08.0000000+00:00</time></trkpt><trkpt lat="39.5432025" lon="-0.51425113"><ele>108.6</ele><time>2022-11-01T12:57:09.0000000+00:00</time></trkpt><trkpt lat="39.54319873" lon="-0.51425843"><ele>108.6</ele><time>2022-11-01T12:57:10.0000000+00:00</time></trkpt><trkpt lat="39.54319571" lon="-0.51426161"><ele>108.6</ele><time>2022-11-01T12:57:11.0000000+00:00</time></trkpt><trkpt lat="39.54319571" lon="-0.51426161"><ele>108.4</ele><time>2022-11-01T12:57:12.0000000+00:00</time></trkpt><trkpt lat="39.54319571" lon="-0.51426161"><ele>108.2</ele><time>2022-11-01T12:57:13.0000000+00:00</time></trkpt><trkpt lat="39.54319571" lon="-0.51426161"><ele>108.2</ele><time>2022-11-01T12:57:14.0000000+00:00</time></trkpt><trkpt lat="39.54319672" lon="-0.51425709"><ele>108.2</ele><time>2022-11-01T12:57:15.0000000+00:00</time></trkpt><trkpt lat="39.54319982" lon="-0.51424518"><ele>108.2</ele><time>2022-11-01T12:57:16.0000000+00:00</time></trkpt><trkpt lat="39.54320351" lon="-0.51422993"><ele>108.2</ele><time>2022-11-01T12:57:17.0000000+00:00</time></trkpt><trkpt lat="39.54320921" lon="-0.51420973"><ele>108.4</ele><time>2022-11-01T12:57:18.0000000+00:00</time></trkpt><trkpt lat="39.5432165" lon="-0.51418693"><ele>108.4</ele><time>2022-11-01T12:57:19.0000000+00:00</time></trkpt><trkpt lat="39.54322404" lon="-0.51416011"><ele>108.4</ele><time>2022-11-01T12:57:20.0000000+00:00</time></trkpt><trkpt lat="39.54323268" lon="-0.51412876"><ele>108.6</ele><time>2022-11-01T12:57:21.0000000+00:00</time></trkpt><trkpt lat="39.54323921" lon="-0.51409808"><ele>108.6</ele><time>2022-11-01T12:57:22.0000000+00:00</time></trkpt><trkpt lat="39.54324433" lon="-0.51406338"><ele>108.6</ele><time>2022-11-01T12:57:23.0000000+00:00</time></trkpt><trkpt lat="39.54325045" lon="-0.51403245"><ele>108.8</ele><time>2022-11-01T12:57:24.0000000+00:00</time></trkpt><trkpt lat="39.543259" lon="-0.51400244"><ele>108.8</ele><time>2022-11-01T12:57:25.0000000+00:00</time></trkpt><trkpt lat="39.54326889" lon="-0.51397084"><ele>108.8</ele><time>2022-11-01T12:57:26.0000000+00:00</time></trkpt><trkpt lat="39.54327853" lon="-0.51394251"><ele>108.8</ele><time>2022-11-01T12:57:27.0000000+00:00</time></trkpt><trkpt lat="39.54328422" lon="-0.51391519"><ele>108.8</ele><time>2022-11-01T12:57:28.0000000+00:00</time></trkpt><trkpt lat="39.54328557" lon="-0.51388837"><ele>108.8</ele><time>2022-11-01T12:57:29.0000000+00:00</time></trkpt><trkpt lat="39.5432828" lon="-0.5138649"><ele>109.0</ele><time>2022-11-01T12:57:30.0000000+00:00</time></trkpt><trkpt lat="39.54328255" lon="-0.51384537"><ele>109.0</ele><time>2022-11-01T12:57:31.0000000+00:00</time></trkpt><trkpt lat="39.54328414" lon="-0.51382332"><ele>109.0</ele><time>2022-11-01T12:57:32.0000000+00:00</time></trkpt><trkpt lat="39.54328791" lon="-0.51379725"><ele>109.0</ele><time>2022-11-01T12:57:33.0000000+00:00</time></trkpt><trkpt lat="39.54329185" lon="-0.51376808"><ele>109.0</ele><time>2022-11-01T12:57:34.0000000+00:00</time></trkpt><trkpt lat="39.54329948" lon="-0.51373322"><ele>108.8</ele><time>2022-11-01T12:57:35.0000000+00:00</time></trkpt><trkpt lat="39.54330836" lon="-0.51369625"><ele>108.8</ele><time>2022-11-01T12:57:36.0000000+00:00</time></trkpt><trkpt lat="39.54331616" lon="-0.51366348"><ele>108.6</ele><time>2022-11-01T12:57:37.0000000+00:00</time></trkpt><trkpt lat="39.54332052" lon="-0.51363741"><ele>108.4</ele><time>2022-11-01T12:57:38.0000000+00:00</time></trkpt><trkpt lat="39.54332245" lon="-0.51362149"><ele>108.4</ele><time>2022-11-01T12:57:39.0000000+00:00</time></trkpt><trkpt lat="39.54332555" lon="-0.51360464"><ele>108.2</ele><time>2022-11-01T12:57:40.0000000+00:00</time></trkpt><trkpt lat="39.54332722" lon="-0.51359349"><ele>108.2</ele><time>2022-11-01T12:57:41.0000000+00:00</time></trkpt><trkpt lat="39.54333108" lon="-0.51358804"><ele>108.2</ele><time>2022-11-01T12:57:42.0000000+00:00</time></trkpt><trkpt lat="39.54333779" lon="-0.51359081"><ele>108.2</ele><time>2022-11-01T12:57:43.0000000+00:00</time></trkpt><trkpt lat="39.54334826" lon="-0.5135986"><ele>108.0</ele><time>2022-11-01T12:57:44.0000000+00:00</time></trkpt><trkpt lat="39.54336117" lon="-0.5136064"><ele>108.0</ele><time>2022-11-01T12:57:45.0000000+00:00</time></trkpt><trkpt lat="39.54337156" lon="-0.51361285"><ele>108.0</ele><time>2022-11-01T12:57:46.0000000+00:00</time></trkpt><trkpt lat="39.54338137" lon="-0.51362149"><ele>108.0</ele><time>2022-11-01T12:57:47.0000000+00:00</time></trkpt><trkpt lat="39.54339453" lon="-0.51362844"><ele>108.0</ele><time>2022-11-01T12:57:48.0000000+00:00</time></trkpt><trkpt lat="39.54341129" lon="-0.51363221"><ele>108.0</ele><time>2022-11-01T12:57:49.0000000+00:00</time></trkpt><trkpt lat="39.54342839" lon="-0.51363632"><ele>108.2</ele><time>2022-11-01T12:57:50.0000000+00:00</time></trkpt><trkpt lat="39.54344323" lon="-0.51364169"><ele>108.2</ele><time>2022-11-01T12:57:51.0000000+00:00</time></trkpt><trkpt lat="39.54346024" lon="-0.5136463"><ele>108.2</ele><time>2022-11-01T12:57:52.0000000+00:00</time></trkpt><trkpt lat="39.54348757" lon="-0.51364848"><ele>108.2</ele><time>2022-11-01T12:57:53.0000000+00:00</time></trkpt><trkpt lat="39.54351825" lon="-0.51365091"><ele>108.2</ele><time>2022-11-01T12:57:54.0000000+00:00</time></trkpt><trkpt lat="39.54354658" lon="-0.51365803"><ele>108.2</ele><time>2022-11-01T12:57:55.0000000+00:00</time></trkpt><trkpt lat="39.54357642" lon="-0.51367094"><ele>108.2</ele><time>2022-11-01T12:57:56.0000000+00:00</time></trkpt><trkpt lat="39.54359042" lon="-0.5136929"><ele>108.2</ele><time>2022-11-01T12:57:57.0000000+00:00</time></trkpt><trkpt lat="39.54359368" lon="-0.51372316"><ele>108.0</ele><time>2022-11-01T12:57:58.0000000+00:00</time></trkpt><trkpt lat="39.54358304" lon="-0.51376088"><ele>108.0</ele><time>2022-11-01T12:57:59.0000000+00:00</time></trkpt><trkpt lat="39.5435708" lon="-0.51379977"><ele>108.0</ele><time>2022-11-01T12:58:00.0000000+00:00</time></trkpt><trkpt lat="39.54355706" lon="-0.51384671"><ele>108.0</ele><time>2022-11-01T12:58:01.0000000+00:00</time></trkpt><trkpt lat="39.54353652" lon="-0.51390655"><ele>107.8</ele><time>2022-11-01T12:58:02.0000000+00:00</time></trkpt><trkpt lat="39.54351531" lon="-0.51395827"><ele>107.8</ele><time>2022-11-01T12:58:03.0000000+00:00</time></trkpt><trkpt lat="39.5434921" lon="-0.51400043"><ele>107.8</ele><time>2022-11-01T12:58:04.0000000+00:00</time></trkpt><trkpt lat="39.54346251" lon="-0.51404871"><ele>107.8</ele><time>2022-11-01T12:58:05.0000000+00:00</time></trkpt><trkpt lat="39.54343921" lon="-0.51410378"><ele>107.6</ele><time>2022-11-01T12:58:06.0000000+00:00</time></trkpt><trkpt lat="39.5434159" lon="-0.51416254"><ele>107.6</ele><time>2022-11-01T12:58:07.0000000+00:00</time></trkpt><trkpt lat="39.54339671" lon="-0.51424208"><ele>107.6</ele><time>2022-11-01T12:58:08.0000000+00:00</time></trkpt><trkpt lat="39.54338648" lon="-0.51430821"><ele>107.4</ele><time>2022-11-01T12:58:09.0000000+00:00</time></trkpt><trkpt lat="39.54337869" lon="-0.51436261"><ele>107.4</ele><time>2022-11-01T12:58:10.0000000+00:00</time></trkpt><trkpt lat="39.5433683" lon="-0.51442372"><ele>107.4</ele><time>2022-11-01T12:58:11.0000000+00:00</time></trkpt><trkpt lat="39.54335732" lon="-0.51448826"><ele>106.8</ele><time>2022-11-01T12:58:12.0000000+00:00</time></trkpt><trkpt lat="39.54334374" lon="-0.51455012"><ele>106.8</ele><time>2022-11-01T12:58:13.0000000+00:00</time></trkpt><trkpt lat="39.54333921" lon="-0.51461524"><ele>106.8</ele><time>2022-11-01T12:58:14.0000000+00:00</time></trkpt><trkpt lat="39.54334156" lon="-0.51467886"><ele>106.6</ele><time>2022-11-01T12:58:15.0000000+00:00</time></trkpt><trkpt lat="39.5433486" lon="-0.51473678"><ele>106.6</ele><time>2022-11-01T12:58:16.0000000+00:00</time></trkpt><trkpt lat="39.54335438" lon="-0.51481155"><ele>106.4</ele><time>2022-11-01T12:58:17.0000000+00:00</time></trkpt><trkpt lat="39.54334986" lon="-0.51486888"><ele>106.4</ele><time>2022-11-01T12:58:18.0000000+00:00</time></trkpt><trkpt lat="39.54334307" lon="-0.51491247"><ele>106.4</ele><time>2022-11-01T12:58:19.0000000+00:00</time></trkpt><trkpt lat="39.54333753" lon="-0.51496561"><ele>106.4</ele><time>2022-11-01T12:58:20.0000000+00:00</time></trkpt><trkpt lat="39.54333896" lon="-0.51501322"><ele>106.4</ele><time>2022-11-01T12:58:21.0000000+00:00</time></trkpt><trkpt lat="39.54334248" lon="-0.51505865"><ele>106.2</ele><time>2022-11-01T12:58:22.0000000+00:00</time></trkpt><trkpt lat="39.54334826" lon="-0.51510416"><ele>106.2</ele><time>2022-11-01T12:58:23.0000000+00:00</time></trkpt><trkpt lat="39.54335463" lon="-0.51514431"><ele>106.0</ele><time>2022-11-01T12:58:24.0000000+00:00</time></trkpt><trkpt lat="39.54336494" lon="-0.5151739"><ele>106.0</ele><time>2022-11-01T12:58:25.0000000+00:00</time></trkpt><trkpt lat="39.54338095" lon="-0.51519888"><ele>106.0</ele><time>2022-11-01T12:58:26.0000000+00:00</time></trkpt><trkpt lat="39.54340216" lon="-0.51522704"><ele>105.8</ele><time>2022-11-01T12:58:27.0000000+00:00</time></trkpt><trkpt lat="39.54341699" lon="-0.51525168"><ele>105.6</ele><time>2022-11-01T12:58:28.0000000+00:00</time></trkpt><trkpt lat="39.54343334" lon="-0.51528177"><ele>105.6</ele><time>2022-11-01T12:58:29.0000000+00:00</time></trkpt><trkpt lat="39.54344742" lon="-0.51531153"><ele>105.4</ele><time>2022-11-01T12:58:30.0000000+00:00</time></trkpt><trkpt lat="39.54345974" lon="-0.51534204"><ele>105.4</ele><time>2022-11-01T12:58:31.0000000+00:00</time></trkpt><trkpt lat="39.54347424" lon="-0.51537934"><ele>105.2</ele><time>2022-11-01T12:58:32.0000000+00:00</time></trkpt><trkpt lat="39.54348589" lon="-0.51542494"><ele>105.2</ele><time>2022-11-01T12:58:33.0000000+00:00</time></trkpt><trkpt lat="39.54350081" lon="-0.51547246"><ele>105.2</ele><time>2022-11-01T12:58:34.0000000+00:00</time></trkpt><trkpt lat="39.54352428" lon="-0.51551797"><ele>105.2</ele><time>2022-11-01T12:58:35.0000000+00:00</time></trkpt><trkpt lat="39.54354951" lon="-0.51556114"><ele>105.0</ele><time>2022-11-01T12:58:36.0000000+00:00</time></trkpt><trkpt lat="39.54357642" lon="-0.51559811"><ele>105.0</ele><time>2022-11-01T12:58:37.0000000+00:00</time></trkpt><trkpt lat="39.54360073" lon="-0.51563742"><ele>105.0</ele><time>2022-11-01T12:58:38.0000000+00:00</time></trkpt><trkpt lat="39.54361422" lon="-0.51568737"><ele>105.0</ele><time>2022-11-01T12:58:39.0000000+00:00</time></trkpt><trkpt lat="39.54362277" lon="-0.51573792"><ele>105.0</ele><time>2022-11-01T12:58:40.0000000+00:00</time></trkpt><trkpt lat="39.54362989" lon="-0.51578938"><ele>105.0</ele><time>2022-11-01T12:58:41.0000000+00:00</time></trkpt><trkpt lat="39.54362956" lon="-0.51583733"><ele>105.0</ele><time>2022-11-01T12:58:42.0000000+00:00</time></trkpt><trkpt lat="39.54361422" lon="-0.51588468"><ele>105.2</ele><time>2022-11-01T12:58:43.0000000+00:00</time></trkpt><trkpt lat="39.54359628" lon="-0.51592894"><ele>105.2</ele><time>2022-11-01T12:58:44.0000000+00:00</time></trkpt><trkpt lat="39.54357491" lon="-0.51597278"><ele>105.2</ele><time>2022-11-01T12:58:45.0000000+00:00</time></trkpt><trkpt lat="39.54356125" lon="-0.51601963"><ele>105.2</ele><time>2022-11-01T12:58:46.0000000+00:00</time></trkpt><trkpt lat="39.54355823" lon="-0.516069"><ele>105.2</ele><time>2022-11-01T12:58:47.0000000+00:00</time></trkpt><trkpt lat="39.54356058" lon="-0.51612156"><ele>105.4</ele><time>2022-11-01T12:58:48.0000000+00:00</time></trkpt><trkpt lat="39.54355865" lon="-0.51618098"><ele>105.4</ele><time>2022-11-01T12:58:49.0000000+00:00</time></trkpt><trkpt lat="39.54355387" lon="-0.51624192"><ele>105.6</ele><time>2022-11-01T12:58:50.0000000+00:00</time></trkpt><trkpt lat="39.54354591" lon="-0.51629229"><ele>105.6</ele><time>2022-11-01T12:58:51.0000000+00:00</time></trkpt><trkpt lat="39.54353007" lon="-0.51634552"><ele>105.6</ele><time>2022-11-01T12:58:52.0000000+00:00</time></trkpt><trkpt lat="39.54350534" lon="-0.51640176"><ele>105.6</ele><time>2022-11-01T12:58:53.0000000+00:00</time></trkpt><trkpt lat="39.54347852" lon="-0.51646018"><ele>105.4</ele><time>2022-11-01T12:58:54.0000000+00:00</time></trkpt><trkpt lat="39.54345941" lon="-0.51652389"><ele>105.4</ele><time>2022-11-01T12:58:55.0000000+00:00</time></trkpt><trkpt lat="39.54345237" lon="-0.51657812"><ele>105.2</ele><time>2022-11-01T12:58:56.0000000+00:00</time></trkpt><trkpt lat="39.54345614" lon="-0.51663009"><ele>105.0</ele><time>2022-11-01T12:58:57.0000000+00:00</time></trkpt><trkpt lat="39.54346008" lon="-0.51668826"><ele>104.6</ele><time>2022-11-01T12:58:58.0000000+00:00</time></trkpt><trkpt lat="39.54344826" lon="-0.51675439"><ele>104.4</ele><time>2022-11-01T12:58:59.0000000+00:00</time></trkpt><trkpt lat="39.54345161" lon="-0.5168217"><ele>104.4</ele><time>2022-11-01T12:59:00.0000000+00:00</time></trkpt><trkpt lat="39.54345228" lon="-0.51688992"><ele>104.4</ele><time>2022-11-01T12:59:01.0000000+00:00</time></trkpt><trkpt lat="39.54346494" lon="-0.51695698"><ele>104.4</ele><time>2022-11-01T12:59:02.0000000+00:00</time></trkpt><trkpt lat="39.54347768" lon="-0.51701188"><ele>104.4</ele><time>2022-11-01T12:59:03.0000000+00:00</time></trkpt><trkpt lat="39.54349478" lon="-0.51706159"><ele>104.2</ele><time>2022-11-01T12:59:04.0000000+00:00</time></trkpt><trkpt lat="39.54352562" lon="-0.51710744"><ele>104.2</ele><time>2022-11-01T12:59:05.0000000+00:00</time></trkpt><trkpt lat="39.54356066" lon="-0.51714373"><ele>104.2</ele><time>2022-11-01T12:59:06.0000000+00:00</time></trkpt><trkpt lat="39.54359025" lon="-0.51716996"><ele>104.0</ele><time>2022-11-01T12:59:07.0000000+00:00</time></trkpt><trkpt lat="39.54363199" lon="-0.51720366"><ele>104.0</ele><time>2022-11-01T12:59:08.0000000+00:00</time></trkpt><trkpt lat="39.54365823" lon="-0.51722252"><ele>104.0</ele><time>2022-11-01T12:59:09.0000000+00:00</time></trkpt><trkpt lat="39.54367767" lon="-0.5172335"><ele>104.0</ele><time>2022-11-01T12:59:10.0000000+00:00</time></trkpt><trkpt lat="39.54369444" lon="-0.51724448"><ele>103.8</ele><time>2022-11-01T12:59:11.0000000+00:00</time></trkpt><trkpt lat="39.54371388" lon="-0.51725496"><ele>103.8</ele><time>2022-11-01T12:59:12.0000000+00:00</time></trkpt><trkpt lat="39.54372964" lon="-0.51725538"><ele>103.8</ele><time>2022-11-01T12:59:13.0000000+00:00</time></trkpt><trkpt lat="39.54373408" lon="-0.51725479"><ele>103.8</ele><time>2022-11-01T12:59:14.0000000+00:00</time></trkpt><trkpt lat="39.54374028" lon="-0.51726049"><ele>103.6</ele><time>2022-11-01T12:59:15.0000000+00:00</time></trkpt><trkpt lat="39.54375847" lon="-0.51727155"><ele>103.6</ele><time>2022-11-01T12:59:16.0000000+00:00</time></trkpt><trkpt lat="39.54378136" lon="-0.51727348"><ele>103.6</ele><time>2022-11-01T12:59:17.0000000+00:00</time></trkpt><trkpt lat="39.54381011" lon="-0.51727407"><ele>103.6</ele><time>2022-11-01T12:59:18.0000000+00:00</time></trkpt><trkpt lat="39.54383919" lon="-0.51728195"><ele>103.6</ele><time>2022-11-01T12:59:19.0000000+00:00</time></trkpt><trkpt lat="39.54387012" lon="-0.51730324"><ele>103.6</ele><time>2022-11-01T12:59:20.0000000+00:00</time></trkpt><trkpt lat="39.54390214" lon="-0.51732629"><ele>103.6</ele><time>2022-11-01T12:59:21.0000000+00:00</time></trkpt><trkpt lat="39.54393583" lon="-0.51734615"><ele>103.6</ele><time>2022-11-01T12:59:22.0000000+00:00</time></trkpt><trkpt lat="39.54397104" lon="-0.51736032"><ele>103.6</ele><time>2022-11-01T12:59:23.0000000+00:00</time></trkpt><trkpt lat="39.54400951" lon="-0.51737046"><ele>103.6</ele><time>2022-11-01T12:59:24.0000000+00:00</time></trkpt><trkpt lat="39.54404932" lon="-0.51737918"><ele>103.6</ele><time>2022-11-01T12:59:25.0000000+00:00</time></trkpt><trkpt lat="39.54408679" lon="-0.51739678"><ele>103.6</ele><time>2022-11-01T12:59:26.0000000+00:00</time></trkpt><trkpt lat="39.5441251" lon="-0.51742134"><ele>103.4</ele><time>2022-11-01T12:59:27.0000000+00:00</time></trkpt><trkpt lat="39.54416458" lon="-0.51745453"><ele>103.4</ele><time>2022-11-01T12:59:28.0000000+00:00</time></trkpt><trkpt lat="39.54420263" lon="-0.51748596"><ele>103.4</ele><time>2022-11-01T12:59:29.0000000+00:00</time></trkpt><trkpt lat="39.5442411" lon="-0.51751153"><ele>103.4</ele><time>2022-11-01T12:59:30.0000000+00:00</time></trkpt><trkpt lat="39.54428695" lon="-0.51753801"><ele>103.4</ele><time>2022-11-01T12:59:31.0000000+00:00</time></trkpt><trkpt lat="39.54433297" lon="-0.51757045"><ele>103.4</ele><time>2022-11-01T12:59:32.0000000+00:00</time></trkpt><trkpt lat="39.54438175" lon="-0.51759074"><ele>103.4</ele><time>2022-11-01T12:59:33.0000000+00:00</time></trkpt><trkpt lat="39.54442483" lon="-0.51761504"><ele>103.4</ele><time>2022-11-01T12:59:34.0000000+00:00</time></trkpt><trkpt lat="39.54446347" lon="-0.51765276"><ele>103.4</ele><time>2022-11-01T12:59:35.0000000+00:00</time></trkpt><trkpt lat="39.54450111" lon="-0.5176935"><ele>103.4</ele><time>2022-11-01T12:59:36.0000000+00:00</time></trkpt><trkpt lat="39.54453883" lon="-0.51773759"><ele>103.4</ele><time>2022-11-01T12:59:37.0000000+00:00</time></trkpt><trkpt lat="39.54457948" lon="-0.5177836"><ele>103.4</ele><time>2022-11-01T12:59:38.0000000+00:00</time></trkpt><trkpt lat="39.54461443" lon="-0.51783708"><ele>103.4</ele><time>2022-11-01T12:59:39.0000000+00:00</time></trkpt><trkpt lat="39.54465056" lon="-0.5179043"><ele>103.4</ele><time>2022-11-01T12:59:40.0000000+00:00</time></trkpt><trkpt lat="39.54468358" lon="-0.5179592"><ele>103.4</ele><time>2022-11-01T12:59:41.0000000+00:00</time></trkpt><trkpt lat="39.54472574" lon="-0.51800774"><ele>103.4</ele><time>2022-11-01T12:59:42.0000000+00:00</time></trkpt><trkpt lat="39.54476539" lon="-0.51805417"><ele>103.4</ele><time>2022-11-01T12:59:43.0000000+00:00</time></trkpt><trkpt lat="39.54479942" lon="-0.51808611"><ele>103.4</ele><time>2022-11-01T12:59:44.0000000+00:00</time></trkpt><trkpt lat="39.54483043" lon="-0.51813397"><ele>103.4</ele><time>2022-11-01T12:59:45.0000000+00:00</time></trkpt><trkpt lat="39.54485541" lon="-0.51818493"><ele>103.4</ele><time>2022-11-01T12:59:46.0000000+00:00</time></trkpt><trkpt lat="39.54486908" lon="-0.51824478"><ele>103.2</ele><time>2022-11-01T12:59:47.0000000+00:00</time></trkpt><trkpt lat="39.54487938" lon="-0.51828803"><ele>103.2</ele><time>2022-11-01T12:59:48.0000000+00:00</time></trkpt><trkpt lat="39.54489933" lon="-0.51831158"><ele>103.2</ele><time>2022-11-01T12:59:49.0000000+00:00</time></trkpt><trkpt lat="39.54492741" lon="-0.51834025"><ele>103.2</ele><time>2022-11-01T12:59:50.0000000+00:00</time></trkpt><trkpt lat="39.54496421" lon="-0.5183669"><ele>103.2</ele><time>2022-11-01T12:59:51.0000000+00:00</time></trkpt><trkpt lat="39.54499958" lon="-0.51837939"><ele>103.0</ele><time>2022-11-01T12:59:52.0000000+00:00</time></trkpt><trkpt lat="39.54503018" lon="-0.51838459"><ele>103.0</ele><time>2022-11-01T12:59:53.0000000+00:00</time></trkpt><trkpt lat="39.54507644" lon="-0.51838702"><ele>102.8</ele><time>2022-11-01T12:59:54.0000000+00:00</time></trkpt><trkpt lat="39.54512581" lon="-0.51840562"><ele>102.8</ele><time>2022-11-01T12:59:55.0000000+00:00</time></trkpt><trkpt lat="39.54517325" lon="-0.51842314"><ele>102.6</ele><time>2022-11-01T12:59:56.0000000+00:00</time></trkpt><trkpt lat="39.54521994" lon="-0.51844795"><ele>102.6</ele><time>2022-11-01T12:59:57.0000000+00:00</time></trkpt><trkpt lat="39.54526319" lon="-0.51847301"><ele>102.6</ele><time>2022-11-01T12:59:58.0000000+00:00</time></trkpt><trkpt lat="39.54530275" lon="-0.51850218"><ele>102.4</ele><time>2022-11-01T12:59:59.0000000+00:00</time></trkpt><trkpt lat="39.54533033" lon="-0.51854292"><ele>102.4</ele><time>2022-11-01T13:00:00.0000000+00:00</time></trkpt><trkpt lat="39.54534777" lon="-0.51859262"><ele>102.2</ele><time>2022-11-01T13:00:01.0000000+00:00</time></trkpt><trkpt lat="39.54535321" lon="-0.51864954"><ele>102.2</ele><time>2022-11-01T13:00:02.0000000+00:00</time></trkpt><trkpt lat="39.54535816" lon="-0.51870586"><ele>102.2</ele><time>2022-11-01T13:00:03.0000000+00:00</time></trkpt><trkpt lat="39.54536545" lon="-0.51876018"><ele>102.2</ele><time>2022-11-01T13:00:04.0000000+00:00</time></trkpt><trkpt lat="39.54536679" lon="-0.51881181"><ele>102.2</ele><time>2022-11-01T13:00:05.0000000+00:00</time></trkpt><trkpt lat="39.54536704" lon="-0.51885766"><ele>102.2</ele><time>2022-11-01T13:00:06.0000000+00:00</time></trkpt><trkpt lat="39.54535833" lon="-0.51889965"><ele>102.2</ele><time>2022-11-01T13:00:07.0000000+00:00</time></trkpt><trkpt lat="39.54534223" lon="-0.51892865"><ele>102.2</ele><time>2022-11-01T13:00:08.0000000+00:00</time></trkpt><trkpt lat="39.54532019" lon="-0.5189476"><ele>102.4</ele><time>2022-11-01T13:00:09.0000000+00:00</time></trkpt><trkpt lat="39.54529706" lon="-0.51896554"><ele>102.6</ele><time>2022-11-01T13:00:10.0000000+00:00</time></trkpt><trkpt lat="39.54527811" lon="-0.51898917"><ele>102.6</ele><time>2022-11-01T13:00:11.0000000+00:00</time></trkpt><trkpt lat="39.54526202" lon="-0.51901558"><ele>102.8</ele><time>2022-11-01T13:00:12.0000000+00:00</time></trkpt><trkpt lat="39.5452476" lon="-0.5190465"><ele>103.0</ele><time>2022-11-01T13:00:13.0000000+00:00</time></trkpt><trkpt lat="39.54522589" lon="-0.51907031"><ele>103.0</ele><time>2022-11-01T13:00:14.0000000+00:00</time></trkpt><trkpt lat="39.54520058" lon="-0.51909043"><ele>103.0</ele><time>2022-11-01T13:00:15.0000000+00:00</time></trkpt><trkpt lat="39.54517309" lon="-0.5191082"><ele>103.2</ele><time>2022-11-01T13:00:16.0000000+00:00</time></trkpt><trkpt lat="39.54514844" lon="-0.51913133"><ele>103.2</ele><time>2022-11-01T13:00:17.0000000+00:00</time></trkpt><trkpt lat="39.54512472" lon="-0.5191543"><ele>103.4</ele><time>2022-11-01T13:00:18.0000000+00:00</time></trkpt><trkpt lat="39.54510486" lon="-0.5191812"><ele>103.6</ele><time>2022-11-01T13:00:19.0000000+00:00</time></trkpt><trkpt lat="39.54508633" lon="-0.51920199"><ele>103.6</ele><time>2022-11-01T13:00:20.0000000+00:00</time></trkpt><trkpt lat="39.54506672" lon="-0.51921724"><ele>103.8</ele><time>2022-11-01T13:00:21.0000000+00:00</time></trkpt><trkpt lat="39.54504308" lon="-0.51922504"><ele>103.8</ele><time>2022-11-01T13:00:22.0000000+00:00</time></trkpt><trkpt lat="39.54502498" lon="-0.51922353"><ele>104.0</ele><time>2022-11-01T13:00:23.0000000+00:00</time></trkpt><trkpt lat="39.54500629" lon="-0.51921708"><ele>104.0</ele><time>2022-11-01T13:00:24.0000000+00:00</time></trkpt><trkpt lat="39.54498634" lon="-0.51920568"><ele>104.2</ele><time>2022-11-01T13:00:25.0000000+00:00</time></trkpt><trkpt lat="39.54496731" lon="-0.51918782"><ele>104.2</ele><time>2022-11-01T13:00:26.0000000+00:00</time></trkpt><trkpt lat="39.54494753" lon="-0.51916226"><ele>104.2</ele><time>2022-11-01T13:00:27.0000000+00:00</time></trkpt><trkpt lat="39.54492984" lon="-0.51912588"><ele>104.2</ele><time>2022-11-01T13:00:28.0000000+00:00</time></trkpt><trkpt lat="39.54491023" lon="-0.51908959"><ele>104.2</ele><time>2022-11-01T13:00:29.0000000+00:00</time></trkpt><trkpt lat="39.54488115" lon="-0.51906084"><ele>104.4</ele><time>2022-11-01T13:00:30.0000000+00:00</time></trkpt><trkpt lat="39.54484829" lon="-0.51904324"><ele>104.4</ele><time>2022-11-01T13:00:31.0000000+00:00</time></trkpt><trkpt lat="39.54481803" lon="-0.51903075"><ele>104.6</ele><time>2022-11-01T13:00:32.0000000+00:00</time></trkpt><trkpt lat="39.54479087" lon="-0.5190175"><ele>104.6</ele><time>2022-11-01T13:00:33.0000000+00:00</time></trkpt><trkpt lat="39.54476413" lon="-0.5190082"><ele>104.6</ele><time>2022-11-01T13:00:34.0000000+00:00</time></trkpt><trkpt lat="39.54474393" lon="-0.51900342"><ele>104.6</ele><time>2022-11-01T13:00:35.0000000+00:00</time></trkpt><trkpt lat="39.544726" lon="-0.51899747"><ele>104.6</ele><time>2022-11-01T13:00:36.0000000+00:00</time></trkpt><trkpt lat="39.54470923" lon="-0.51899076"><ele>104.6</ele><time>2022-11-01T13:00:37.0000000+00:00</time></trkpt><trkpt lat="39.54469339" lon="-0.51898808"><ele>104.6</ele><time>2022-11-01T13:00:38.0000000+00:00</time></trkpt><trkpt lat="39.54467587" lon="-0.51898322"><ele>104.6</ele><time>2022-11-01T13:00:39.0000000+00:00</time></trkpt><trkpt lat="39.54465802" lon="-0.51897241"><ele>104.6</ele><time>2022-11-01T13:00:40.0000000+00:00</time></trkpt><trkpt lat="39.54463203" lon="-0.51895925"><ele>104.6</ele><time>2022-11-01T13:00:41.0000000+00:00</time></trkpt><trkpt lat="39.54460597" lon="-0.51894324"><ele>104.6</ele><time>2022-11-01T13:00:42.0000000+00:00</time></trkpt><trkpt lat="39.54457965" lon="-0.51892321"><ele>104.8</ele><time>2022-11-01T13:00:43.0000000+00:00</time></trkpt><trkpt lat="39.5445514" lon="-0.51890007"><ele>104.8</ele><time>2022-11-01T13:00:44.0000000+00:00</time></trkpt><trkpt lat="39.54452089" lon="-0.51887526"><ele>104.8</ele><time>2022-11-01T13:00:45.0000000+00:00</time></trkpt><trkpt lat="39.54449105" lon="-0.51885389"><ele>104.8</ele><time>2022-11-01T13:00:46.0000000+00:00</time></trkpt><trkpt lat="39.54446331" lon="-0.51883503"><ele>105.0</ele><time>2022-11-01T13:00:47.0000000+00:00</time></trkpt><trkpt lat="39.54443925" lon="-0.5188191"><ele>105.0</ele><time>2022-11-01T13:00:48.0000000+00:00</time></trkpt><trkpt lat="39.54441821" lon="-0.51880536"><ele>105.0</ele><time>2022-11-01T13:00:49.0000000+00:00</time></trkpt><trkpt lat="39.54440019" lon="-0.51879061"><ele>105.0</ele><time>2022-11-01T13:00:50.0000000+00:00</time></trkpt><trkpt lat="39.54438242" lon="-0.51877476"><ele>105.2</ele><time>2022-11-01T13:00:51.0000000+00:00</time></trkpt><trkpt lat="39.54436189" lon="-0.51875758"><ele>105.2</ele><time>2022-11-01T13:00:52.0000000+00:00</time></trkpt><trkpt lat="39.5443411" lon="-0.51873445"><ele>105.2</ele><time>2022-11-01T13:00:53.0000000+00:00</time></trkpt><trkpt lat="39.54432216" lon="-0.51871936"><ele>105.2</ele><time>2022-11-01T13:00:54.0000000+00:00</time></trkpt><trkpt lat="39.54430548" lon="-0.51870955"><ele>105.2</ele><time>2022-11-01T13:00:55.0000000+00:00</time></trkpt><trkpt lat="39.54429114" lon="-0.51870134"><ele>105.2</ele><time>2022-11-01T13:00:56.0000000+00:00</time></trkpt><trkpt lat="39.54427907" lon="-0.51869044"><ele>105.2</ele><time>2022-11-01T13:00:57.0000000+00:00</time></trkpt><trkpt lat="39.54426784" lon="-0.51867711"><ele>105.2</ele><time>2022-11-01T13:00:58.0000000+00:00</time></trkpt><trkpt lat="39.54425577" lon="-0.51866395"><ele>105.2</ele><time>2022-11-01T13:00:59.0000000+00:00</time></trkpt><trkpt lat="39.54424286" lon="-0.51865071"><ele>105.2</ele><time>2022-11-01T13:01:00.0000000+00:00</time></trkpt><trkpt lat="39.54422962" lon="-0.51863797"><ele>105.2</ele><time>2022-11-01T13:01:01.0000000+00:00</time></trkpt><trkpt lat="39.54421571" lon="-0.51862372"><ele>105.2</ele><time>2022-11-01T13:01:02.0000000+00:00</time></trkpt><trkpt lat="39.54419467" lon="-0.51860679"><ele>105.2</ele><time>2022-11-01T13:01:03.0000000+00:00</time></trkpt><trkpt lat="39.54417338" lon="-0.51857879"><ele>105.2</ele><time>2022-11-01T13:01:04.0000000+00:00</time></trkpt><trkpt lat="39.54415611" lon="-0.51855734"><ele>105.2</ele><time>2022-11-01T13:01:05.0000000+00:00</time></trkpt><trkpt lat="39.54413398" lon="-0.51853672"><ele>105.2</ele><time>2022-11-01T13:01:06.0000000+00:00</time></trkpt><trkpt lat="39.54410984" lon="-0.51851685"><ele>105.2</ele><time>2022-11-01T13:01:07.0000000+00:00</time></trkpt><trkpt lat="39.54408084" lon="-0.51849942"><ele>105.4</ele><time>2022-11-01T13:01:08.0000000+00:00</time></trkpt><trkpt lat="39.54405377" lon="-0.51848165"><ele>105.4</ele><time>2022-11-01T13:01:09.0000000+00:00</time></trkpt><trkpt lat="39.54402544" lon="-0.51845885"><ele>105.4</ele><time>2022-11-01T13:01:10.0000000+00:00</time></trkpt><trkpt lat="39.54399543" lon="-0.51843337"><ele>105.6</ele><time>2022-11-01T13:01:11.0000000+00:00</time></trkpt><trkpt lat="39.54396676" lon="-0.51840219"><ele>105.6</ele><time>2022-11-01T13:01:12.0000000+00:00</time></trkpt><trkpt lat="39.54393433" lon="-0.51837159"><ele>105.6</ele><time>2022-11-01T13:01:13.0000000+00:00</time></trkpt><trkpt lat="39.54389711" lon="-0.51834418"><ele>105.6</ele><time>2022-11-01T13:01:14.0000000+00:00</time></trkpt><trkpt lat="39.54385931" lon="-0.51831937"><ele>105.6</ele><time>2022-11-01T13:01:15.0000000+00:00</time></trkpt><trkpt lat="39.54382276" lon="-0.51829046"><ele>105.6</ele><time>2022-11-01T13:01:16.0000000+00:00</time></trkpt><trkpt lat="39.54378479" lon="-0.51825919"><ele>105.6</ele><time>2022-11-01T13:01:17.0000000+00:00</time></trkpt><trkpt lat="39.54374515" lon="-0.51822784"><ele>105.6</ele><time>2022-11-01T13:01:18.0000000+00:00</time></trkpt><trkpt lat="39.54370751" lon="-0.518197"><ele>105.6</ele><time>2022-11-01T13:01:19.0000000+00:00</time></trkpt><trkpt lat="39.54367398" lon="-0.51816288"><ele>105.6</ele><time>2022-11-01T13:01:20.0000000+00:00</time></trkpt><trkpt lat="39.54364163" lon="-0.51812148"><ele>105.6</ele><time>2022-11-01T13:01:21.0000000+00:00</time></trkpt><trkpt lat="39.54360475" lon="-0.51807923"><ele>105.6</ele><time>2022-11-01T13:01:22.0000000+00:00</time></trkpt><trkpt lat="39.54356577" lon="-0.51803699"><ele>105.6</ele><time>2022-11-01T13:01:23.0000000+00:00</time></trkpt><trkpt lat="39.54352588" lon="-0.51799181"><ele>105.6</ele><time>2022-11-01T13:01:24.0000000+00:00</time></trkpt><trkpt lat="39.54348849" lon="-0.51794294"><ele>105.6</ele><time>2022-11-01T13:01:25.0000000+00:00</time></trkpt><trkpt lat="39.54345161" lon="-0.51790271"><ele>105.6</ele><time>2022-11-01T13:01:26.0000000+00:00</time></trkpt><trkpt lat="39.54341624" lon="-0.51786239"><ele>105.6</ele><time>2022-11-01T13:01:27.0000000+00:00</time></trkpt><trkpt lat="39.5433828" lon="-0.51782518"><ele>105.6</ele><time>2022-11-01T13:01:28.0000000+00:00</time></trkpt><trkpt lat="39.54334139" lon="-0.51778888"><ele>105.6</ele><time>2022-11-01T13:01:29.0000000+00:00</time></trkpt><trkpt lat="39.54330057" lon="-0.51775536"><ele>105.6</ele><time>2022-11-01T13:01:30.0000000+00:00</time></trkpt><trkpt lat="39.5432491" lon="-0.51772527"><ele>105.6</ele><time>2022-11-01T13:01:31.0000000+00:00</time></trkpt><trkpt lat="39.54320736" lon="-0.51768939"><ele>105.6</ele><time>2022-11-01T13:01:32.0000000+00:00</time></trkpt><trkpt lat="39.54316688" lon="-0.51764044"><ele>105.6</ele><time>2022-11-01T13:01:33.0000000+00:00</time></trkpt><trkpt lat="39.54312103" lon="-0.51759853"><ele>105.6</ele><time>2022-11-01T13:01:34.0000000+00:00</time></trkpt><trkpt lat="39.54308071" lon="-0.51755838"><ele>105.6</ele><time>2022-11-01T13:01:35.0000000+00:00</time></trkpt><trkpt lat="39.54303905" lon="-0.5175127"><ele>105.4</ele><time>2022-11-01T13:01:36.0000000+00:00</time></trkpt><trkpt lat="39.54300636" lon="-0.51747884"><ele>105.4</ele><time>2022-11-01T13:01:37.0000000+00:00</time></trkpt><trkpt lat="39.54297837" lon="-0.51745411"><ele>105.2</ele><time>2022-11-01T13:01:38.0000000+00:00</time></trkpt><trkpt lat="39.54295314" lon="-0.51743249"><ele>105.2</ele><time>2022-11-01T13:01:39.0000000+00:00</time></trkpt><trkpt lat="39.54293361" lon="-0.51741371"><ele>105.2</ele><time>2022-11-01T13:01:40.0000000+00:00</time></trkpt><trkpt lat="39.54291609" lon="-0.51739519"><ele>105.0</ele><time>2022-11-01T13:01:41.0000000+00:00</time></trkpt><trkpt lat="39.54289941" lon="-0.51737465"><ele>105.0</ele><time>2022-11-01T13:01:42.0000000+00:00</time></trkpt><trkpt lat="39.54288986" lon="-0.51735537"><ele>105.0</ele><time>2022-11-01T13:01:43.0000000+00:00</time></trkpt><trkpt lat="39.54288634" lon="-0.51733551"><ele>104.8</ele><time>2022-11-01T13:01:44.0000000+00:00</time></trkpt><trkpt lat="39.54288692" lon="-0.51731698"><ele>104.8</ele><time>2022-11-01T13:01:45.0000000+00:00</time></trkpt><trkpt lat="39.5428979" lon="-0.51730357"><ele>104.6</ele><time>2022-11-01T13:01:46.0000000+00:00</time></trkpt><trkpt lat="39.54291198" lon="-0.51729796"><ele>104.6</ele><time>2022-11-01T13:01:47.0000000+00:00</time></trkpt><trkpt lat="39.54292146" lon="-0.51730449"><ele>104.4</ele><time>2022-11-01T13:01:48.0000000+00:00</time></trkpt><trkpt lat="39.54293135" lon="-0.51731715"><ele>104.4</ele><time>2022-11-01T13:01:49.0000000+00:00</time></trkpt><trkpt lat="39.54293931" lon="-0.51733383"><ele>104.4</ele><time>2022-11-01T13:01:50.0000000+00:00</time></trkpt><trkpt lat="39.54294291" lon="-0.5173568"><ele>104.4</ele><time>2022-11-01T13:01:51.0000000+00:00</time></trkpt><trkpt lat="39.54294836" lon="-0.51738706"><ele>104.6</ele><time>2022-11-01T13:01:52.0000000+00:00</time></trkpt><trkpt lat="39.54295599" lon="-0.51741857"><ele>104.6</ele><time>2022-11-01T13:01:53.0000000+00:00</time></trkpt><trkpt lat="39.54296546" lon="-0.51744791"><ele>104.6</ele><time>2022-11-01T13:01:54.0000000+00:00</time></trkpt><trkpt lat="39.54297812" lon="-0.51747305"><ele>104.6</ele><time>2022-11-01T13:01:55.0000000+00:00</time></trkpt><trkpt lat="39.54298734" lon="-0.51750155"><ele>104.6</ele><time>2022-11-01T13:01:56.0000000+00:00</time></trkpt><trkpt lat="39.54299396" lon="-0.51753491"><ele>104.8</ele><time>2022-11-01T13:01:57.0000000+00:00</time></trkpt><trkpt lat="39.54299547" lon="-0.51756936"><ele>104.8</ele><time>2022-11-01T13:01:58.0000000+00:00</time></trkpt><trkpt lat="39.54299572" lon="-0.51760054"><ele>104.8</ele><time>2022-11-01T13:01:59.0000000+00:00</time></trkpt><trkpt lat="39.54299572" lon="-0.51763105"><ele>105.0</ele><time>2022-11-01T13:02:00.0000000+00:00</time></trkpt><trkpt lat="39.54299429" lon="-0.51766307"><ele>105.2</ele><time>2022-11-01T13:02:01.0000000+00:00</time></trkpt><trkpt lat="39.54298642" lon="-0.51769434"><ele>105.4</ele><time>2022-11-01T13:02:02.0000000+00:00</time></trkpt><trkpt lat="39.5429803" lon="-0.5177225"><ele>105.6</ele><time>2022-11-01T13:02:03.0000000+00:00</time></trkpt><trkpt lat="39.54297342" lon="-0.51774899"><ele>105.6</ele><time>2022-11-01T13:02:04.0000000+00:00</time></trkpt><trkpt lat="39.5429637" lon="-0.51777438"><ele>105.8</ele><time>2022-11-01T13:02:05.0000000+00:00</time></trkpt><trkpt lat="39.54295272" lon="-0.51779794"><ele>105.8</ele><time>2022-11-01T13:02:06.0000000+00:00</time></trkpt><trkpt lat="39.54294425" lon="-0.51781965"><ele>106.0</ele><time>2022-11-01T13:02:07.0000000+00:00</time></trkpt><trkpt lat="39.5429352" lon="-0.51784219"><ele>106.2</ele><time>2022-11-01T13:02:08.0000000+00:00</time></trkpt><trkpt lat="39.54292808" lon="-0.51786684"><ele>106.4</ele><time>2022-11-01T13:02:09.0000000+00:00</time></trkpt><trkpt lat="39.54292037" lon="-0.51789148"><ele>106.6</ele><time>2022-11-01T13:02:10.0000000+00:00</time></trkpt><trkpt lat="39.54291056" lon="-0.51791243"><ele>106.6</ele><time>2022-11-01T13:02:11.0000000+00:00</time></trkpt><trkpt lat="39.5429005" lon="-0.51793523"><ele>106.6</ele><time>2022-11-01T13:02:12.0000000+00:00</time></trkpt><trkpt lat="39.54289145" lon="-0.51795996"><ele>106.8</ele><time>2022-11-01T13:02:13.0000000+00:00</time></trkpt><trkpt lat="39.54288206" lon="-0.51798049"><ele>106.8</ele><time>2022-11-01T13:02:14.0000000+00:00</time></trkpt><trkpt lat="39.54287494" lon="-0.51800137"><ele>106.8</ele><time>2022-11-01T13:02:15.0000000+00:00</time></trkpt><trkpt lat="39.54286873" lon="-0.51802483"><ele>107.0</ele><time>2022-11-01T13:02:16.0000000+00:00</time></trkpt><trkpt lat="39.54286463" lon="-0.51805124"><ele>107.2</ele><time>2022-11-01T13:02:17.0000000+00:00</time></trkpt><trkpt lat="39.54286262" lon="-0.51808334"><ele>107.2</ele><time>2022-11-01T13:02:18.0000000+00:00</time></trkpt><trkpt lat="39.54286345" lon="-0.51810932"><ele>107.4</ele><time>2022-11-01T13:02:19.0000000+00:00</time></trkpt><trkpt lat="39.54286262" lon="-0.51813372"><ele>107.4</ele><time>2022-11-01T13:02:20.0000000+00:00</time></trkpt><trkpt lat="39.54286002" lon="-0.51816062"><ele>107.4</ele><time>2022-11-01T13:02:21.0000000+00:00</time></trkpt><trkpt lat="39.54285633" lon="-0.51818878"><ele>107.4</ele><time>2022-11-01T13:02:22.0000000+00:00</time></trkpt><trkpt lat="39.5428544" lon="-0.5182177"><ele>107.4</ele><time>2022-11-01T13:02:23.0000000+00:00</time></trkpt><trkpt lat="39.54285155" lon="-0.5182467"><ele>107.6</ele><time>2022-11-01T13:02:24.0000000+00:00</time></trkpt><trkpt lat="39.54284635" lon="-0.5182757"><ele>107.6</ele><time>2022-11-01T13:02:25.0000000+00:00</time></trkpt><trkpt lat="39.54284124" lon="-0.51830487"><ele>107.8</ele><time>2022-11-01T13:02:26.0000000+00:00</time></trkpt><trkpt lat="39.5428363" lon="-0.51833337"><ele>108.0</ele><time>2022-11-01T13:02:27.0000000+00:00</time></trkpt><trkpt lat="39.54282808" lon="-0.51836237"><ele>108.0</ele><time>2022-11-01T13:02:28.0000000+00:00</time></trkpt><trkpt lat="39.54281987" lon="-0.5183907"><ele>108.2</ele><time>2022-11-01T13:02:29.0000000+00:00</time></trkpt><trkpt lat="39.54281626" lon="-0.51841987"><ele>108.2</ele><time>2022-11-01T13:02:30.0000000+00:00</time></trkpt><trkpt lat="39.54281341" lon="-0.51844594"><ele>108.4</ele><time>2022-11-01T13:02:31.0000000+00:00</time></trkpt><trkpt lat="39.54280947" lon="-0.51847117"><ele>108.4</ele><time>2022-11-01T13:02:32.0000000+00:00</time></trkpt><trkpt lat="39.54280344" lon="-0.51849808"><ele>108.4</ele><time>2022-11-01T13:02:33.0000000+00:00</time></trkpt><trkpt lat="39.54279623" lon="-0.51853186"><ele>108.4</ele><time>2022-11-01T13:02:34.0000000+00:00</time></trkpt><trkpt lat="39.54279036" lon="-0.51856639"><ele>108.4</ele><time>2022-11-01T13:02:35.0000000+00:00</time></trkpt><trkpt lat="39.54278374" lon="-0.51860101"><ele>108.4</ele><time>2022-11-01T13:02:36.0000000+00:00</time></trkpt><trkpt lat="39.54277662" lon="-0.51863663"><ele>108.4</ele><time>2022-11-01T13:02:37.0000000+00:00</time></trkpt><trkpt lat="39.54277025" lon="-0.51866823"><ele>108.4</ele><time>2022-11-01T13:02:38.0000000+00:00</time></trkpt><trkpt lat="39.54276312" lon="-0.51870159"><ele>108.4</ele><time>2022-11-01T13:02:39.0000000+00:00</time></trkpt><trkpt lat="39.54275734" lon="-0.51873554"><ele>108.4</ele><time>2022-11-01T13:02:40.0000000+00:00</time></trkpt><trkpt lat="39.54275155" lon="-0.51876705"><ele>108.4</ele><time>2022-11-01T13:02:41.0000000+00:00</time></trkpt><trkpt lat="39.54274879" lon="-0.51879857"><ele>108.4</ele><time>2022-11-01T13:02:42.0000000+00:00</time></trkpt><trkpt lat="39.54274896" lon="-0.51882849"><ele>108.4</ele><time>2022-11-01T13:02:43.0000000+00:00</time></trkpt><trkpt lat="39.54275147" lon="-0.51885716"><ele>108.6</ele><time>2022-11-01T13:02:44.0000000+00:00</time></trkpt><trkpt lat="39.54275449" lon="-0.518887"><ele>108.6</ele><time>2022-11-01T13:02:45.0000000+00:00</time></trkpt><trkpt lat="39.54276195" lon="-0.51891684"><ele>108.8</ele><time>2022-11-01T13:02:46.0000000+00:00</time></trkpt><trkpt lat="39.5427679" lon="-0.51893888"><ele>108.8</ele><time>2022-11-01T13:02:47.0000000+00:00</time></trkpt><trkpt lat="39.54277846" lon="-0.51896051"><ele>108.8</ele><time>2022-11-01T13:02:48.0000000+00:00</time></trkpt><trkpt lat="39.54278735" lon="-0.51897878"><ele>109.0</ele><time>2022-11-01T13:02:49.0000000+00:00</time></trkpt><trkpt lat="39.54279539" lon="-0.51899831"><ele>109.0</ele><time>2022-11-01T13:02:50.0000000+00:00</time></trkpt><trkpt lat="39.54280394" lon="-0.51901382"><ele>109.2</ele><time>2022-11-01T13:02:51.0000000+00:00</time></trkpt><trkpt lat="39.54281157" lon="-0.51902689"><ele>109.2</ele><time>2022-11-01T13:02:52.0000000+00:00</time></trkpt><trkpt lat="39.54281945" lon="-0.51904315"><ele>109.4</ele><time>2022-11-01T13:02:53.0000000+00:00</time></trkpt><trkpt lat="39.54282573" lon="-0.51905665"><ele>109.4</ele><time>2022-11-01T13:02:54.0000000+00:00</time></trkpt><trkpt lat="39.54283068" lon="-0.51907182"><ele>109.6</ele><time>2022-11-01T13:02:55.0000000+00:00</time></trkpt><trkpt lat="39.54283252" lon="-0.51908699"><ele>109.8</ele><time>2022-11-01T13:02:56.0000000+00:00</time></trkpt><trkpt lat="39.5428342" lon="-0.51910493"><ele>109.8</ele><time>2022-11-01T13:02:57.0000000+00:00</time></trkpt><trkpt lat="39.5428337" lon="-0.51912177"><ele>110.0</ele><time>2022-11-01T13:02:58.0000000+00:00</time></trkpt><trkpt lat="39.54283546" lon="-0.51913845"><ele>110.2</ele><time>2022-11-01T13:02:59.0000000+00:00</time></trkpt><trkpt lat="39.54283739" lon="-0.51915069"><ele>110.2</ele><time>2022-11-01T13:03:00.0000000+00:00</time></trkpt><trkpt lat="39.5428363" lon="-0.51916234"><ele>110.4</ele><time>2022-11-01T13:03:01.0000000+00:00</time></trkpt><trkpt lat="39.54283495" lon="-0.51918254"><ele>110.4</ele><time>2022-11-01T13:03:02.0000000+00:00</time></trkpt><trkpt lat="39.54283588" lon="-0.51919612"><ele>110.6</ele><time>2022-11-01T13:03:03.0000000+00:00</time></trkpt><trkpt lat="39.54283713" lon="-0.51920442"><ele>110.6</ele><time>2022-11-01T13:03:04.0000000+00:00</time></trkpt><trkpt lat="39.5428363" lon="-0.51921775"><ele>110.8</ele><time>2022-11-01T13:03:05.0000000+00:00</time></trkpt><trkpt lat="39.54283596" lon="-0.51923049"><ele>111.0</ele><time>2022-11-01T13:03:06.0000000+00:00</time></trkpt><trkpt lat="39.54283311" lon="-0.51924641"><ele>111.2</ele><time>2022-11-01T13:03:07.0000000+00:00</time></trkpt><trkpt lat="39.54283118" lon="-0.51926309"><ele>111.2</ele><time>2022-11-01T13:03:08.0000000+00:00</time></trkpt><trkpt lat="39.54282842" lon="-0.51928178"><ele>111.4</ele><time>2022-11-01T13:03:09.0000000+00:00</time></trkpt><trkpt lat="39.54282557" lon="-0.51929997"><ele>111.6</ele><time>2022-11-01T13:03:10.0000000+00:00</time></trkpt><trkpt lat="39.54282423" lon="-0.5193169"><ele>111.6</ele><time>2022-11-01T13:03:11.0000000+00:00</time></trkpt><trkpt lat="39.54282121" lon="-0.51933484"><ele>111.8</ele><time>2022-11-01T13:03:12.0000000+00:00</time></trkpt><trkpt lat="39.54282221" lon="-0.5193511"><ele>112.0</ele><time>2022-11-01T13:03:13.0000000+00:00</time></trkpt><trkpt lat="39.54282104" lon="-0.51936619"><ele>112.0</ele><time>2022-11-01T13:03:14.0000000+00:00</time></trkpt><trkpt lat="39.54282129" lon="-0.51938212"><ele>112.2</ele><time>2022-11-01T13:03:15.0000000+00:00</time></trkpt><trkpt lat="39.54282154" lon="-0.5193988"><ele>112.2</ele><time>2022-11-01T13:03:16.0000000+00:00</time></trkpt><trkpt lat="39.54282347" lon="-0.51941531"><ele>112.2</ele><time>2022-11-01T13:03:17.0000000+00:00</time></trkpt><trkpt lat="39.54282632" lon="-0.51943165"><ele>112.2</ele><time>2022-11-01T13:03:18.0000000+00:00</time></trkpt><trkpt lat="39.54282884" lon="-0.51944758"><ele>112.4</ele><time>2022-11-01T13:03:19.0000000+00:00</time></trkpt><trkpt lat="39.542829" lon="-0.51946409"><ele>112.4</ele><time>2022-11-01T13:03:20.0000000+00:00</time></trkpt><trkpt lat="39.54282691" lon="-0.51948018"><ele>112.4</ele><time>2022-11-01T13:03:21.0000000+00:00</time></trkpt><trkpt lat="39.54282632" lon="-0.51949225"><ele>112.6</ele><time>2022-11-01T13:03:22.0000000+00:00</time></trkpt><trkpt lat="39.54282666" lon="-0.51950793"><ele>112.6</ele><time>2022-11-01T13:03:23.0000000+00:00</time></trkpt><trkpt lat="39.54282775" lon="-0.51952972"><ele>112.6</ele><time>2022-11-01T13:03:24.0000000+00:00</time></trkpt><trkpt lat="39.54283537" lon="-0.51954405"><ele>112.6</ele><time>2022-11-01T13:03:25.0000000+00:00</time></trkpt><trkpt lat="39.54283454" lon="-0.51956266"><ele>112.8</ele><time>2022-11-01T13:03:26.0000000+00:00</time></trkpt><trkpt lat="39.54283169" lon="-0.51958563"><ele>112.8</ele><time>2022-11-01T13:03:27.0000000+00:00</time></trkpt><trkpt lat="39.54283051" lon="-0.51961237"><ele>112.8</ele><time>2022-11-01T13:03:28.0000000+00:00</time></trkpt><trkpt lat="39.54282934" lon="-0.51963676"><ele>112.8</ele><time>2022-11-01T13:03:29.0000000+00:00</time></trkpt><trkpt lat="39.54282582" lon="-0.51966584"><ele>112.8</ele><time>2022-11-01T13:03:30.0000000+00:00</time></trkpt><trkpt lat="39.54282649" lon="-0.51968973"><ele>113.0</ele><time>2022-11-01T13:03:31.0000000+00:00</time></trkpt><trkpt lat="39.54282657" lon="-0.51970909"><ele>113.0</ele><time>2022-11-01T13:03:32.0000000+00:00</time></trkpt><trkpt lat="39.54282649" lon="-0.51972837"><ele>113.0</ele><time>2022-11-01T13:03:33.0000000+00:00</time></trkpt><trkpt lat="39.5428233" lon="-0.51975176"><ele>113.0</ele><time>2022-11-01T13:03:34.0000000+00:00</time></trkpt><trkpt lat="39.54282314" lon="-0.51977732"><ele>113.2</ele><time>2022-11-01T13:03:35.0000000+00:00</time></trkpt><trkpt lat="39.54282456" lon="-0.51980364"><ele>113.2</ele><time>2022-11-01T13:03:36.0000000+00:00</time></trkpt><trkpt lat="39.5428285" lon="-0.5198272"><ele>113.2</ele><time>2022-11-01T13:03:37.0000000+00:00</time></trkpt><trkpt lat="39.54282649" lon="-0.51985393"><ele>113.2</ele><time>2022-11-01T13:03:38.0000000+00:00</time></trkpt><trkpt lat="39.54282615" lon="-0.5198805"><ele>113.2</ele><time>2022-11-01T13:03:39.0000000+00:00</time></trkpt><trkpt lat="39.54282699" lon="-0.51990112"><ele>113.2</ele><time>2022-11-01T13:03:40.0000000+00:00</time></trkpt><trkpt lat="39.54282951" lon="-0.5199313"><ele>113.2</ele><time>2022-11-01T13:03:41.0000000+00:00</time></trkpt><trkpt lat="39.54283596" lon="-0.51995292"><ele>113.2</ele><time>2022-11-01T13:03:42.0000000+00:00</time></trkpt><trkpt lat="39.5428425" lon="-0.51997505"><ele>113.2</ele><time>2022-11-01T13:03:43.0000000+00:00</time></trkpt><trkpt lat="39.54284359" lon="-0.52000104"><ele>113.2</ele><time>2022-11-01T13:03:44.0000000+00:00</time></trkpt><trkpt lat="39.54284384" lon="-0.52002945"><ele>113.2</ele><time>2022-11-01T13:03:45.0000000+00:00</time></trkpt><trkpt lat="39.54284635" lon="-0.52005845"><ele>113.0</ele><time>2022-11-01T13:03:46.0000000+00:00</time></trkpt><trkpt lat="39.54284996" lon="-0.52008351"><ele>113.0</ele><time>2022-11-01T13:03:47.0000000+00:00</time></trkpt><trkpt lat="39.54285272" lon="-0.52010623"><ele>113.0</ele><time>2022-11-01T13:03:48.0000000+00:00</time></trkpt><trkpt lat="39.54285499" lon="-0.52012735"><ele>113.0</ele><time>2022-11-01T13:03:49.0000000+00:00</time></trkpt><trkpt lat="39.54285717" lon="-0.5201494"><ele>112.8</ele><time>2022-11-01T13:03:50.0000000+00:00</time></trkpt><trkpt lat="39.54286169" lon="-0.52017395"><ele>112.8</ele><time>2022-11-01T13:03:51.0000000+00:00</time></trkpt><trkpt lat="39.54286538" lon="-0.52019876"><ele>112.6</ele><time>2022-11-01T13:03:52.0000000+00:00</time></trkpt><trkpt lat="39.54286756" lon="-0.52022927"><ele>112.6</ele><time>2022-11-01T13:03:53.0000000+00:00</time></trkpt><trkpt lat="39.54287343" lon="-0.52026037"><ele>112.6</ele><time>2022-11-01T13:03:54.0000000+00:00</time></trkpt><trkpt lat="39.54288743" lon="-0.52028694"><ele>112.6</ele><time>2022-11-01T13:03:55.0000000+00:00</time></trkpt><trkpt lat="39.54290369" lon="-0.52031485"><ele>112.6</ele><time>2022-11-01T13:03:56.0000000+00:00</time></trkpt><trkpt lat="39.54291492" lon="-0.52033799"><ele>112.6</ele><time>2022-11-01T13:03:57.0000000+00:00</time></trkpt><trkpt lat="39.54293311" lon="-0.52037252"><ele>112.4</ele><time>2022-11-01T13:03:58.0000000+00:00</time></trkpt><trkpt lat="39.54294845" lon="-0.52039616"><ele>112.2</ele><time>2022-11-01T13:03:59.0000000+00:00</time></trkpt><trkpt lat="39.54296705" lon="-0.52042533"><ele>112.2</ele><time>2022-11-01T13:04:00.0000000+00:00</time></trkpt><trkpt lat="39.54299178" lon="-0.52046137"><ele>112.0</ele><time>2022-11-01T13:04:01.0000000+00:00</time></trkpt><trkpt lat="39.54301274" lon="-0.52049439"><ele>111.8</ele><time>2022-11-01T13:04:02.0000000+00:00</time></trkpt><trkpt lat="39.54302564" lon="-0.5205192"><ele>111.8</ele><time>2022-11-01T13:04:03.0000000+00:00</time></trkpt><trkpt lat="39.54303813" lon="-0.52055164"><ele>111.8</ele><time>2022-11-01T13:04:04.0000000+00:00</time></trkpt><trkpt lat="39.54304827" lon="-0.52058576"><ele>111.6</ele><time>2022-11-01T13:04:05.0000000+00:00</time></trkpt><trkpt lat="39.54305439" lon="-0.52062381"><ele>111.6</ele><time>2022-11-01T13:04:06.0000000+00:00</time></trkpt><trkpt lat="39.54306009" lon="-0.52067"><ele>111.6</ele><time>2022-11-01T13:04:07.0000000+00:00</time></trkpt><trkpt lat="39.54306839" lon="-0.52070134"><ele>111.6</ele><time>2022-11-01T13:04:08.0000000+00:00</time></trkpt><trkpt lat="39.54307728" lon="-0.52072054"><ele>111.4</ele><time>2022-11-01T13:04:09.0000000+00:00</time></trkpt><trkpt lat="39.54308817" lon="-0.52074694"><ele>111.2</ele><time>2022-11-01T13:04:10.0000000+00:00</time></trkpt><trkpt lat="39.54309521" lon="-0.52077293"><ele>111.0</ele><time>2022-11-01T13:04:11.0000000+00:00</time></trkpt><trkpt lat="39.54309471" lon="-0.5207979"><ele>110.8</ele><time>2022-11-01T13:04:12.0000000+00:00</time></trkpt><trkpt lat="39.54309329" lon="-0.52083319"><ele>110.6</ele><time>2022-11-01T13:04:13.0000000+00:00</time></trkpt><trkpt lat="39.54309597" lon="-0.52085574"><ele>110.4</ele><time>2022-11-01T13:04:14.0000000+00:00</time></trkpt><trkpt lat="39.54310477" lon="-0.52088407"><ele>110.0</ele><time>2022-11-01T13:04:15.0000000+00:00</time></trkpt><trkpt lat="39.54312078" lon="-0.52091106"><ele>109.8</ele><time>2022-11-01T13:04:16.0000000+00:00</time></trkpt><trkpt lat="39.54313964" lon="-0.52093654"><ele>109.8</ele><time>2022-11-01T13:04:17.0000000+00:00</time></trkpt><trkpt lat="39.54316285" lon="-0.52096705"><ele>109.4</ele><time>2022-11-01T13:04:18.0000000+00:00</time></trkpt><trkpt lat="39.54318716" lon="-0.52100636"><ele>109.2</ele><time>2022-11-01T13:04:19.0000000+00:00</time></trkpt><trkpt lat="39.54320686" lon="-0.52105908"><ele>109.0</ele><time>2022-11-01T13:04:20.0000000+00:00</time></trkpt><trkpt lat="39.54322002" lon="-0.52111943"><ele>108.4</ele><time>2022-11-01T13:04:21.0000000+00:00</time></trkpt><trkpt lat="39.54323108" lon="-0.52117098"><ele>108.2</ele><time>2022-11-01T13:04:22.0000000+00:00</time></trkpt><trkpt lat="39.543246" lon="-0.52121733"><ele>108.0</ele><time>2022-11-01T13:04:23.0000000+00:00</time></trkpt><trkpt lat="39.54325598" lon="-0.52124986"><ele>108.2</ele><time>2022-11-01T13:04:24.0000000+00:00</time></trkpt><trkpt lat="39.54326352" lon="-0.52127047"><ele>108.4</ele><time>2022-11-01T13:04:25.0000000+00:00</time></trkpt><trkpt lat="39.54327266" lon="-0.52129981"><ele>108.6</ele><time>2022-11-01T13:04:26.0000000+00:00</time></trkpt><trkpt lat="39.54327752" lon="-0.52132026"><ele>108.6</ele><time>2022-11-01T13:04:27.0000000+00:00</time></trkpt><trkpt lat="39.54328967" lon="-0.52135144"><ele>108.8</ele><time>2022-11-01T13:04:28.0000000+00:00</time></trkpt><trkpt lat="39.54330241" lon="-0.52137751"><ele>108.8</ele><time>2022-11-01T13:04:29.0000000+00:00</time></trkpt><trkpt lat="39.54331029" lon="-0.52140274"><ele>108.8</ele><time>2022-11-01T13:04:30.0000000+00:00</time></trkpt><trkpt lat="39.54332203" lon="-0.52143862"><ele>109.0</ele><time>2022-11-01T13:04:31.0000000+00:00</time></trkpt><trkpt lat="39.54333007" lon="-0.52146083"><ele>109.0</ele><time>2022-11-01T13:04:32.0000000+00:00</time></trkpt><trkpt lat="39.54333896" lon="-0.52148757"><ele>109.0</ele><time>2022-11-01T13:04:33.0000000+00:00</time></trkpt><trkpt lat="39.5433455" lon="-0.52151581"><ele>109.0</ele><time>2022-11-01T13:04:34.0000000+00:00</time></trkpt><trkpt lat="39.54335027" lon="-0.52154079"><ele>109.0</ele><time>2022-11-01T13:04:35.0000000+00:00</time></trkpt><trkpt lat="39.543361" lon="-0.52156543"><ele>109.0</ele><time>2022-11-01T13:04:36.0000000+00:00</time></trkpt><trkpt lat="39.54337073" lon="-0.52157977"><ele>109.0</ele><time>2022-11-01T13:04:37.0000000+00:00</time></trkpt><trkpt lat="39.54338045" lon="-0.52158832"><ele>109.0</ele><time>2022-11-01T13:04:38.0000000+00:00</time></trkpt><trkpt lat="39.54339327" lon="-0.52159553"><ele>109.0</ele><time>2022-11-01T13:04:39.0000000+00:00</time></trkpt><trkpt lat="39.54340618" lon="-0.52160081"><ele>109.0</ele><time>2022-11-01T13:04:40.0000000+00:00</time></trkpt><trkpt lat="39.54341775" lon="-0.52160458"><ele>109.0</ele><time>2022-11-01T13:04:41.0000000+00:00</time></trkpt><trkpt lat="39.54343342" lon="-0.52160977"><ele>109.0</ele><time>2022-11-01T13:04:42.0000000+00:00</time></trkpt><trkpt lat="39.54345195" lon="-0.52160952"><ele>109.0</ele><time>2022-11-01T13:04:43.0000000+00:00</time></trkpt><trkpt lat="39.54347231" lon="-0.52160936"><ele>109.0</ele><time>2022-11-01T13:04:44.0000000+00:00</time></trkpt><trkpt lat="39.54348514" lon="-0.52161464"><ele>108.8</ele><time>2022-11-01T13:04:45.0000000+00:00</time></trkpt><trkpt lat="39.5435035" lon="-0.52162486"><ele>108.4</ele><time>2022-11-01T13:04:46.0000000+00:00</time></trkpt><trkpt lat="39.54351632" lon="-0.52163911"><ele>108.2</ele><time>2022-11-01T13:04:47.0000000+00:00</time></trkpt><trkpt lat="39.54352437" lon="-0.52165604"><ele>107.8</ele><time>2022-11-01T13:04:48.0000000+00:00</time></trkpt><trkpt lat="39.54353099" lon="-0.52167993"><ele>107.4</ele><time>2022-11-01T13:04:49.0000000+00:00</time></trkpt><trkpt lat="39.54353384" lon="-0.52169929"><ele>106.8</ele><time>2022-11-01T13:04:50.0000000+00:00</time></trkpt><trkpt lat="39.54353795" lon="-0.52171681"><ele>106.6</ele><time>2022-11-01T13:04:51.0000000+00:00</time></trkpt><trkpt lat="39.54353853" lon="-0.52174581"><ele>106.2</ele><time>2022-11-01T13:04:52.0000000+00:00</time></trkpt><trkpt lat="39.543548" lon="-0.52177071"><ele>105.8</ele><time>2022-11-01T13:04:53.0000000+00:00</time></trkpt><trkpt lat="39.54356971" lon="-0.52178722"><ele>105.6</ele><time>2022-11-01T13:04:54.0000000+00:00</time></trkpt><trkpt lat="39.54359938" lon="-0.52180566"><ele>104.8</ele><time>2022-11-01T13:04:55.0000000+00:00</time></trkpt><trkpt lat="39.54363417" lon="-0.52183265"><ele>104.2</ele><time>2022-11-01T13:04:56.0000000+00:00</time></trkpt><trkpt lat="39.54366527" lon="-0.52187339"><ele>103.6</ele><time>2022-11-01T13:04:57.0000000+00:00</time></trkpt><trkpt lat="39.54368865" lon="-0.52191697"><ele>103.4</ele><time>2022-11-01T13:04:58.0000000+00:00</time></trkpt><trkpt lat="39.54370877" lon="-0.52195628"><ele>103.0</ele><time>2022-11-01T13:04:59.0000000+00:00</time></trkpt><trkpt lat="39.54372746" lon="-0.5219878"><ele>103.0</ele><time>2022-11-01T13:05:00.0000000+00:00</time></trkpt><trkpt lat="39.54374355" lon="-0.52201093"><ele>102.8</ele><time>2022-11-01T13:05:01.0000000+00:00</time></trkpt><trkpt lat="39.54375713" lon="-0.52203113"><ele>102.8</ele><time>2022-11-01T13:05:02.0000000+00:00</time></trkpt><trkpt lat="39.54377155" lon="-0.52205209"><ele>103.0</ele><time>2022-11-01T13:05:03.0000000+00:00</time></trkpt><trkpt lat="39.54378722" lon="-0.52207095"><ele>103.0</ele><time>2022-11-01T13:05:04.0000000+00:00</time></trkpt><trkpt lat="39.54379519" lon="-0.52209408"><ele>103.0</ele><time>2022-11-01T13:05:05.0000000+00:00</time></trkpt><trkpt lat="39.54380474" lon="-0.52211101"><ele>103.0</ele><time>2022-11-01T13:05:06.0000000+00:00</time></trkpt><trkpt lat="39.54381472" lon="-0.52211965"><ele>103.0</ele><time>2022-11-01T13:05:07.0000000+00:00</time></trkpt><trkpt lat="39.54382444" lon="-0.52212962"><ele>103.0</ele><time>2022-11-01T13:05:08.0000000+00:00</time></trkpt><trkpt lat="39.54382846" lon="-0.52213079"><ele>102.8</ele><time>2022-11-01T13:05:09.0000000+00:00</time></trkpt><trkpt lat="39.54383249" lon="-0.52213909"><ele>102.6</ele><time>2022-11-01T13:05:10.0000000+00:00</time></trkpt><trkpt lat="39.54383785" lon="-0.52214974"><ele>102.4</ele><time>2022-11-01T13:05:11.0000000+00:00</time></trkpt><trkpt lat="39.54385143" lon="-0.52215954"><ele>102.2</ele><time>2022-11-01T13:05:12.0000000+00:00</time></trkpt><trkpt lat="39.54387054" lon="-0.52216927"><ele>101.8</ele><time>2022-11-01T13:05:13.0000000+00:00</time></trkpt><trkpt lat="39.54389082" lon="-0.52218167"><ele>101.6</ele><time>2022-11-01T13:05:14.0000000+00:00</time></trkpt><trkpt lat="39.54391354" lon="-0.52219953"><ele>101.0</ele><time>2022-11-01T13:05:15.0000000+00:00</time></trkpt><trkpt lat="39.54393768" lon="-0.52222392"><ele>100.2</ele><time>2022-11-01T13:05:16.0000000+00:00</time></trkpt><trkpt lat="39.543964" lon="-0.52225426"><ele>100.0</ele><time>2022-11-01T13:05:17.0000000+00:00</time></trkpt><trkpt lat="39.54400817" lon="-0.52230782"><ele>99.0</ele><time>2022-11-01T13:05:18.0000000+00:00</time></trkpt><trkpt lat="39.54404187" lon="-0.52234696"><ele>98.6</ele><time>2022-11-01T13:05:19.0000000+00:00</time></trkpt><trkpt lat="39.54408956" lon="-0.52239533"><ele>98.2</ele><time>2022-11-01T13:05:20.0000000+00:00</time></trkpt><trkpt lat="39.54412309" lon="-0.52242835"><ele>98.2</ele><time>2022-11-01T13:05:21.0000000+00:00</time></trkpt><trkpt lat="39.54416776" lon="-0.52248644"><ele>98.0</ele><time>2022-11-01T13:05:22.0000000+00:00</time></trkpt><trkpt lat="39.54420422" lon="-0.52254017"><ele>98.0</ele><time>2022-11-01T13:05:23.0000000+00:00</time></trkpt><trkpt lat="39.54422342" lon="-0.52258132"><ele>98.0</ele><time>2022-11-01T13:05:24.0000000+00:00</time></trkpt><trkpt lat="39.54424546" lon="-0.52263421"><ele>98.0</ele><time>2022-11-01T13:05:25.0000000+00:00</time></trkpt><trkpt lat="39.54427564" lon="-0.5226814"><ele>98.0</ele><time>2022-11-01T13:05:26.0000000+00:00</time></trkpt><trkpt lat="39.54429542" lon="-0.52270546"><ele>97.8</ele><time>2022-11-01T13:05:27.0000000+00:00</time></trkpt><trkpt lat="39.54432693" lon="-0.52273538"><ele>97.6</ele><time>2022-11-01T13:05:28.0000000+00:00</time></trkpt><trkpt lat="39.54434931" lon="-0.52276472"><ele>97.4</ele><time>2022-11-01T13:05:29.0000000+00:00</time></trkpt><trkpt lat="39.54436717" lon="-0.52278601"><ele>97.4</ele><time>2022-11-01T13:05:30.0000000+00:00</time></trkpt><trkpt lat="39.54439575" lon="-0.52281694"><ele>97.4</ele><time>2022-11-01T13:05:31.0000000+00:00</time></trkpt><trkpt lat="39.54441637" lon="-0.52284024"><ele>97.4</ele><time>2022-11-01T13:05:32.0000000+00:00</time></trkpt><trkpt lat="39.54443229" lon="-0.52286203"><ele>97.4</ele><time>2022-11-01T13:05:33.0000000+00:00</time></trkpt><trkpt lat="39.54444294" lon="-0.52287695"><ele>97.4</ele><time>2022-11-01T13:05:34.0000000+00:00</time></trkpt><trkpt lat="39.54444679" lon="-0.52288441"><ele>97.2</ele><time>2022-11-01T13:05:35.0000000+00:00</time></trkpt><trkpt lat="39.54444679" lon="-0.52288441"><ele>97.2</ele><time>2022-11-01T13:05:36.0000000+00:00</time></trkpt><trkpt lat="39.54444679" lon="-0.52288441"><ele>97.2</ele><time>2022-11-01T13:05:37.0000000+00:00</time></trkpt><trkpt lat="39.54444679" lon="-0.52288441"><ele>97.0</ele><time>2022-11-01T13:05:38.0000000+00:00</time></trkpt><trkpt lat="39.54444679" lon="-0.52288441"><ele>97.0</ele><time>2022-11-01T13:05:39.0000000+00:00</time></trkpt><trkpt lat="39.54444679" lon="-0.52288441"><ele>97.0</ele><time>2022-11-01T13:05:40.0000000+00:00</time></trkpt><trkpt lat="39.54444679" lon="-0.52288441"><ele>97.0</ele><time>2022-11-01T13:05:41.0000000+00:00</time></trkpt><trkpt lat="39.54444679" lon="-0.52288441"><ele>97.0</ele><time>2022-11-01T13:05:42.0000000+00:00</time></trkpt><trkpt lat="39.54444679" lon="-0.52288441"><ele>97.0</ele><time>2022-11-01T13:05:43.0000000+00:00</time></trkpt><trkpt lat="39.54444679" lon="-0.52288441"><ele>97.0</ele><time>2022-11-01T13:05:44.0000000+00:00</time></trkpt><trkpt lat="39.54444679" lon="-0.52288441"><ele>97.0</ele><time>2022-11-01T13:05:45.0000000+00:00</time></trkpt><trkpt lat="39.54444679" lon="-0.52288441"><ele>96.8</ele><time>2022-11-01T13:05:46.0000000+00:00</time></trkpt><trkpt lat="39.54444679" lon="-0.52288441"><ele>96.8</ele><time>2022-11-01T13:05:47.0000000+00:00</time></trkpt><trkpt lat="39.54444679" lon="-0.52288441"><ele>96.6</ele><time>2022-11-01T13:05:48.0000000+00:00</time></trkpt><trkpt lat="39.54444679" lon="-0.52288441"><ele>96.6</ele><time>2022-11-01T13:05:49.0000000+00:00</time></trkpt><trkpt lat="39.54444679" lon="-0.52288441"><ele>96.4</ele><time>2022-11-01T13:05:50.0000000+00:00</time></trkpt><trkpt lat="39.54444679" lon="-0.52288441"><ele>96.4</ele><time>2022-11-01T13:05:51.0000000+00:00</time></trkpt><trkpt lat="39.54444679" lon="-0.52288441"><ele>96.4</ele><time>2022-11-01T13:05:52.0000000+00:00</time></trkpt><trkpt lat="39.54444679" lon="-0.52288441"><ele>96.2</ele><time>2022-11-01T13:05:53.0000000+00:00</time></trkpt><trkpt lat="39.54444679" lon="-0.52288441"><ele>96.0</ele><time>2022-11-01T13:05:54.0000000+00:00</time></trkpt><trkpt lat="39.54444679" lon="-0.52288441"><ele>96.0</ele><time>2022-11-01T13:05:55.0000000+00:00</time></trkpt><trkpt lat="39.54444864" lon="-0.52288919"><ele>96.0</ele><time>2022-11-01T13:05:56.0000000+00:00</time></trkpt><trkpt lat="39.54445082" lon="-0.52289908"><ele>95.8</ele><time>2022-11-01T13:05:57.0000000+00:00</time></trkpt><trkpt lat="39.54444981" lon="-0.52291408"><ele>95.8</ele><time>2022-11-01T13:05:58.0000000+00:00</time></trkpt><trkpt lat="39.54444805" lon="-0.52292171"><ele>95.6</ele><time>2022-11-01T13:05:59.0000000+00:00</time></trkpt><trkpt lat="39.54444629" lon="-0.52293118"><ele>95.6</ele><time>2022-11-01T13:06:00.0000000+00:00</time></trkpt><trkpt lat="39.54444529" lon="-0.52294275"><ele>95.6</ele><time>2022-11-01T13:06:01.0000000+00:00</time></trkpt><trkpt lat="39.54444386" lon="-0.5229596"><ele>95.4</ele><time>2022-11-01T13:06:02.0000000+00:00</time></trkpt><trkpt lat="39.54444051" lon="-0.52297762"><ele>95.4</ele><time>2022-11-01T13:06:03.0000000+00:00</time></trkpt><trkpt lat="39.54443967" lon="-0.52300008"><ele>95.0</ele><time>2022-11-01T13:06:04.0000000+00:00</time></trkpt><trkpt lat="39.54444596" lon="-0.52301701"><ele>94.6</ele><time>2022-11-01T13:06:05.0000000+00:00</time></trkpt><trkpt lat="39.54445333" lon="-0.52302816"><ele>94.2</ele><time>2022-11-01T13:06:06.0000000+00:00</time></trkpt><trkpt lat="39.54445895" lon="-0.52303889"><ele>94.2</ele><time>2022-11-01T13:06:07.0000000+00:00</time></trkpt><trkpt lat="39.54446448" lon="-0.52305163"><ele>94.0</ele><time>2022-11-01T13:06:08.0000000+00:00</time></trkpt><trkpt lat="39.54446993" lon="-0.5230663"><ele>94.0</ele><time>2022-11-01T13:06:09.0000000+00:00</time></trkpt><trkpt lat="39.54446884" lon="-0.52307912"><ele>94.0</ele><time>2022-11-01T13:06:10.0000000+00:00</time></trkpt><trkpt lat="39.54446431" lon="-0.5230958"><ele>94.0</ele><time>2022-11-01T13:06:11.0000000+00:00</time></trkpt><trkpt lat="39.54445467" lon="-0.5231098"><ele>94.0</ele><time>2022-11-01T13:06:12.0000000+00:00</time></trkpt><trkpt lat="39.54444495" lon="-0.52312095"><ele>94.0</ele><time>2022-11-01T13:06:13.0000000+00:00</time></trkpt><trkpt lat="39.54443573" lon="-0.52312757"><ele>94.0</ele><time>2022-11-01T13:06:14.0000000+00:00</time></trkpt><trkpt lat="39.54442777" lon="-0.52313578"><ele>94.0</ele><time>2022-11-01T13:06:15.0000000+00:00</time></trkpt><trkpt lat="39.54441964" lon="-0.52314634"><ele>94.0</ele><time>2022-11-01T13:06:16.0000000+00:00</time></trkpt><trkpt lat="39.54440933" lon="-0.52315733"><ele>94.0</ele><time>2022-11-01T13:06:17.0000000+00:00</time></trkpt><trkpt lat="39.54440111" lon="-0.52316336"><ele>93.8</ele><time>2022-11-01T13:06:18.0000000+00:00</time></trkpt><trkpt lat="39.54438829" lon="-0.52318105"><ele>93.8</ele><time>2022-11-01T13:06:19.0000000+00:00</time></trkpt><trkpt lat="39.54437605" lon="-0.52319496"><ele>93.8</ele><time>2022-11-01T13:06:20.0000000+00:00</time></trkpt><trkpt lat="39.54436574" lon="-0.52320669"><ele>93.6</ele><time>2022-11-01T13:06:21.0000000+00:00</time></trkpt><trkpt lat="39.54435786" lon="-0.52321399"><ele>93.6</ele><time>2022-11-01T13:06:22.0000000+00:00</time></trkpt><trkpt lat="39.54434563" lon="-0.52322413"><ele>93.4</ele><time>2022-11-01T13:06:23.0000000+00:00</time></trkpt><trkpt lat="39.54433305" lon="-0.52323452"><ele>93.4</ele><time>2022-11-01T13:06:24.0000000+00:00</time></trkpt><trkpt lat="39.54432341" lon="-0.52324567"><ele>93.4</ele><time>2022-11-01T13:06:25.0000000+00:00</time></trkpt><trkpt lat="39.54431386" lon="-0.52325673"><ele>93.2</ele><time>2022-11-01T13:06:26.0000000+00:00</time></trkpt><trkpt lat="39.54430631" lon="-0.52326512"><ele>93.2</ele><time>2022-11-01T13:06:27.0000000+00:00</time></trkpt><trkpt lat="39.54429852" lon="-0.5232683"><ele>93.2</ele><time>2022-11-01T13:06:28.0000000+00:00</time></trkpt><trkpt lat="39.54428838" lon="-0.52326797"><ele>93.2</ele><time>2022-11-01T13:06:29.0000000+00:00</time></trkpt><trkpt lat="39.54427823" lon="-0.52326872"><ele>93.2</ele><time>2022-11-01T13:06:30.0000000+00:00</time></trkpt><trkpt lat="39.54426943" lon="-0.523274"><ele>93.2</ele><time>2022-11-01T13:06:31.0000000+00:00</time></trkpt><trkpt lat="39.54426482" lon="-0.52327735"><ele>93.2</ele><time>2022-11-01T13:06:32.0000000+00:00</time></trkpt><trkpt lat="39.5442634" lon="-0.52328062"><ele>93.2</ele><time>2022-11-01T13:06:33.0000000+00:00</time></trkpt><trkpt lat="39.54425812" lon="-0.52329043"><ele>93.4</ele><time>2022-11-01T13:06:34.0000000+00:00</time></trkpt><trkpt lat="39.5442515" lon="-0.52330351"><ele>93.4</ele><time>2022-11-01T13:06:35.0000000+00:00</time></trkpt><trkpt lat="39.5442489" lon="-0.52331784"><ele>93.4</ele><time>2022-11-01T13:06:36.0000000+00:00</time></trkpt><trkpt lat="39.54424362" lon="-0.52333393"><ele>93.6</ele><time>2022-11-01T13:06:37.0000000+00:00</time></trkpt><trkpt lat="39.5442406" lon="-0.52334097"><ele>93.6</ele><time>2022-11-01T13:06:38.0000000+00:00</time></trkpt><trkpt lat="39.5442406" lon="-0.52334097"><ele>93.6</ele><time>2022-11-01T13:06:39.0000000+00:00</time></trkpt><trkpt lat="39.54423985" lon="-0.52334298"><ele>93.6</ele><time>2022-11-01T13:06:40.0000000+00:00</time></trkpt><trkpt lat="39.54423867" lon="-0.52334609"><ele>93.6</ele><time>2022-11-01T13:06:41.0000000+00:00</time></trkpt><trkpt lat="39.54423716" lon="-0.52334843"><ele>93.8</ele><time>2022-11-01T13:06:42.0000000+00:00</time></trkpt><trkpt lat="39.54423155" lon="-0.52335531"><ele>94.0</ele><time>2022-11-01T13:06:43.0000000+00:00</time></trkpt><trkpt lat="39.5442292" lon="-0.52335857"><ele>94.0</ele><time>2022-11-01T13:06:44.0000000+00:00</time></trkpt><trkpt lat="39.5442292" lon="-0.52335857"><ele>94.0</ele><time>2022-11-01T13:06:45.0000000+00:00</time></trkpt><trkpt lat="39.5442292" lon="-0.52335857"><ele>94.2</ele><time>2022-11-01T13:06:46.0000000+00:00</time></trkpt><trkpt lat="39.54422928" lon="-0.5233636"><ele>94.2</ele><time>2022-11-01T13:06:47.0000000+00:00</time></trkpt><trkpt lat="39.54422962" lon="-0.52336813"><ele>94.2</ele><time>2022-11-01T13:06:48.0000000+00:00</time></trkpt><trkpt lat="39.54422962" lon="-0.52336813"><ele>94.2</ele><time>2022-11-01T13:06:49.0000000+00:00</time></trkpt><trkpt lat="39.54422962" lon="-0.52336813"><ele>94.0</ele><time>2022-11-01T13:06:50.0000000+00:00</time></trkpt><trkpt lat="39.54422778" lon="-0.52337894"><ele>94.0</ele><time>2022-11-01T13:06:51.0000000+00:00</time></trkpt><trkpt lat="39.54422115" lon="-0.52339369"><ele>94.0</ele><time>2022-11-01T13:06:52.0000000+00:00</time></trkpt><trkpt lat="39.54421227" lon="-0.52340392"><ele>93.8</ele><time>2022-11-01T13:06:53.0000000+00:00</time></trkpt><trkpt lat="39.54421043" lon="-0.52340359"><ele>93.6</ele><time>2022-11-01T13:06:54.0000000+00:00</time></trkpt><trkpt lat="39.54421043" lon="-0.52340359"><ele>93.6</ele><time>2022-11-01T13:06:55.0000000+00:00</time></trkpt><trkpt lat="39.54421043" lon="-0.52340359"><ele>93.6</ele><time>2022-11-01T13:06:56.0000000+00:00</time></trkpt><trkpt lat="39.54421043" lon="-0.52340359"><ele>93.4</ele><time>2022-11-01T13:06:57.0000000+00:00</time></trkpt><trkpt lat="39.54421043" lon="-0.52340359"><ele>93.4</ele><time>2022-11-01T13:06:58.0000000+00:00</time></trkpt><trkpt lat="39.54421043" lon="-0.52340359"><ele>93.4</ele><time>2022-11-01T13:06:59.0000000+00:00</time></trkpt><trkpt lat="39.54421043" lon="-0.52340359"><ele>93.4</ele><time>2022-11-01T13:07:00.0000000+00:00</time></trkpt><trkpt lat="39.54421043" lon="-0.52340359"><ele>93.4</ele><time>2022-11-01T13:07:01.0000000+00:00</time></trkpt><trkpt lat="39.54421043" lon="-0.52340359"><ele>93.4</ele><time>2022-11-01T13:07:02.0000000+00:00</time></trkpt><trkpt lat="39.54421043" lon="-0.52340359"><ele>93.2</ele><time>2022-11-01T13:07:03.0000000+00:00</time></trkpt><trkpt lat="39.54421043" lon="-0.52340359"><ele>93.2</ele><time>2022-11-01T13:07:04.0000000+00:00</time></trkpt><trkpt lat="39.54421043" lon="-0.52340359"><ele>93.2</ele><time>2022-11-01T13:07:05.0000000+00:00</time></trkpt><trkpt lat="39.54421043" lon="-0.52340359"><ele>93.2</ele><time>2022-11-01T13:07:06.0000000+00:00</time></trkpt><trkpt lat="39.54421043" lon="-0.52340359"><ele>93.2</ele><time>2022-11-01T13:07:07.0000000+00:00</time></trkpt><trkpt lat="39.54421043" lon="-0.52340359"><ele>93.2</ele><time>2022-11-01T13:07:08.0000000+00:00</time></trkpt><trkpt lat="39.54421043" lon="-0.52340359"><ele>93.2</ele><time>2022-11-01T13:07:09.0000000+00:00</time></trkpt><trkpt lat="39.54421043" lon="-0.52340359"><ele>93.2</ele><time>2022-11-01T13:07:10.0000000+00:00</time></trkpt><trkpt lat="39.54421043" lon="-0.52340359"><ele>93.2</ele><time>2022-11-01T13:07:11.0000000+00:00</time></trkpt><trkpt lat="39.54421043" lon="-0.52340359"><ele>93.2</ele><time>2022-11-01T13:07:12.0000000+00:00</time></trkpt><trkpt lat="39.54421043" lon="-0.52340359"><ele>93.2</ele><time>2022-11-01T13:07:13.0000000+00:00</time></trkpt><trkpt lat="39.54421043" lon="-0.52340359"><ele>93.2</ele><time>2022-11-01T13:07:14.0000000+00:00</time></trkpt><trkpt lat="39.54421043" lon="-0.52340359"><ele>93.2</ele><time>2022-11-01T13:07:15.0000000+00:00</time></trkpt><trkpt lat="39.54421043" lon="-0.52340359"><ele>93.2</ele><time>2022-11-01T13:07:16.0000000+00:00</time></trkpt><trkpt lat="39.54421043" lon="-0.52340359"><ele>93.2</ele><time>2022-11-01T13:07:17.0000000+00:00</time></trkpt><trkpt lat="39.54421043" lon="-0.52340359"><ele>93.2</ele><time>2022-11-01T13:07:18.0000000+00:00</time></trkpt><trkpt lat="39.54421043" lon="-0.52340359"><ele>93.2</ele><time>2022-11-01T13:07:19.0000000+00:00</time></trkpt><trkpt lat="39.54421043" lon="-0.52340359"><ele>93.2</ele><time>2022-11-01T13:07:20.0000000+00:00</time></trkpt><trkpt lat="39.54421043" lon="-0.52340359"><ele>93.2</ele><time>2022-11-01T13:07:21.0000000+00:00</time></trkpt><trkpt lat="39.54421043" lon="-0.52340359"><ele>93.2</ele><time>2022-11-01T13:07:22.0000000+00:00</time></trkpt><trkpt lat="39.54421043" lon="-0.52340359"><ele>93.2</ele><time>2022-11-01T13:07:23.0000000+00:00</time></trkpt><trkpt lat="39.54421043" lon="-0.52340359"><ele>93.2</ele><time>2022-11-01T13:07:24.0000000+00:00</time></trkpt><trkpt lat="39.54421043" lon="-0.52340359"><ele>93.2</ele><time>2022-11-01T13:07:25.0000000+00:00</time></trkpt><trkpt lat="39.54421043" lon="-0.52340359"><ele>93.2</ele><time>2022-11-01T13:07:26.0000000+00:00</time></trkpt><trkpt lat="39.54421043" lon="-0.52340359"><ele>93.2</ele><time>2022-11-01T13:07:27.0000000+00:00</time></trkpt><trkpt lat="39.54421043" lon="-0.52340359"><ele>93.2</ele><time>2022-11-01T13:07:28.0000000+00:00</time></trkpt><trkpt lat="39.54421043" lon="-0.52340359"><ele>93.2</ele><time>2022-11-01T13:07:29.0000000+00:00</time></trkpt><trkpt lat="39.54421043" lon="-0.52340359"><ele>93.2</ele><time>2022-11-01T13:07:30.0000000+00:00</time></trkpt><trkpt lat="39.54421043" lon="-0.52340359"><ele>93.2</ele><time>2022-11-01T13:07:31.0000000+00:00</time></trkpt><trkpt lat="39.54421043" lon="-0.52340359"><ele>93.0</ele><time>2022-11-01T13:07:32.0000000+00:00</time></trkpt><trkpt lat="39.54421043" lon="-0.52340359"><ele>93.0</ele><time>2022-11-01T13:07:33.0000000+00:00</time></trkpt><trkpt lat="39.54421043" lon="-0.52340359"><ele>93.0</ele><time>2022-11-01T13:07:34.0000000+00:00</time></trkpt><trkpt lat="39.54421043" lon="-0.52340359"><ele>93.0</ele><time>2022-11-01T13:07:35.0000000+00:00</time></trkpt><trkpt lat="39.54421043" lon="-0.52340359"><ele>93.0</ele><time>2022-11-01T13:07:36.0000000+00:00</time></trkpt><trkpt lat="39.54421043" lon="-0.52340359"><ele>93.0</ele><time>2022-11-01T13:07:37.0000000+00:00</time></trkpt><trkpt lat="39.54421043" lon="-0.52340359"><ele>92.8</ele><time>2022-11-01T13:07:38.0000000+00:00</time></trkpt><trkpt lat="39.54421043" lon="-0.52340359"><ele>92.8</ele><time>2022-11-01T13:07:39.0000000+00:00</time></trkpt><trkpt lat="39.54421043" lon="-0.52340359"><ele>92.8</ele><time>2022-11-01T13:07:40.0000000+00:00</time></trkpt><trkpt lat="39.54421043" lon="-0.52340359"><ele>93.0</ele><time>2022-11-01T13:07:41.0000000+00:00</time></trkpt><trkpt lat="39.54421043" lon="-0.52340359"><ele>93.0</ele><time>2022-11-01T13:07:42.0000000+00:00</time></trkpt><trkpt lat="39.54421043" lon="-0.52340359"><ele>93.0</ele><time>2022-11-01T13:07:43.0000000+00:00</time></trkpt><trkpt lat="39.54420883" lon="-0.52340493"><ele>93.0</ele><time>2022-11-01T13:07:44.0000000+00:00</time></trkpt><trkpt lat="39.54420716" lon="-0.52340635"><ele>93.0</ele><time>2022-11-01T13:07:45.0000000+00:00</time></trkpt><trkpt lat="39.54420716" lon="-0.52340635"><ele>93.2</ele><time>2022-11-01T13:07:46.0000000+00:00</time></trkpt><trkpt lat="39.54420716" lon="-0.52340635"><ele>93.2</ele><time>2022-11-01T13:07:47.0000000+00:00</time></trkpt><trkpt lat="39.54420716" lon="-0.52340635"><ele>93.0</ele><time>2022-11-01T13:07:48.0000000+00:00</time></trkpt><trkpt lat="39.54420716" lon="-0.52340635"><ele>93.0</ele><time>2022-11-01T13:07:49.0000000+00:00</time></trkpt><trkpt lat="39.54420716" lon="-0.52340635"><ele>93.0</ele><time>2022-11-01T13:07:50.0000000+00:00</time></trkpt><trkpt lat="39.54420716" lon="-0.52340635"><ele>93.0</ele><time>2022-11-01T13:07:51.0000000+00:00</time></trkpt><trkpt lat="39.54420716" lon="-0.52340635"><ele>93.0</ele><time>2022-11-01T13:07:52.0000000+00:00</time></trkpt><trkpt lat="39.54420716" lon="-0.52340635"><ele>93.0</ele><time>2022-11-01T13:07:53.0000000+00:00</time></trkpt><trkpt lat="39.54420716" lon="-0.52340635"><ele>93.0</ele><time>2022-11-01T13:07:54.0000000+00:00</time></trkpt><trkpt lat="39.54420716" lon="-0.52340635"><ele>93.0</ele><time>2022-11-01T13:07:55.0000000+00:00</time></trkpt><trkpt lat="39.54420716" lon="-0.52340635"><ele>93.0</ele><time>2022-11-01T13:07:56.0000000+00:00</time></trkpt><trkpt lat="39.54420716" lon="-0.52340635"><ele>93.0</ele><time>2022-11-01T13:07:57.0000000+00:00</time></trkpt><trkpt lat="39.54420716" lon="-0.52340635"><ele>93.0</ele><time>2022-11-01T13:07:58.0000000+00:00</time></trkpt><trkpt lat="39.54420716" lon="-0.52340635"><ele>93.0</ele><time>2022-11-01T13:07:59.0000000+00:00</time></trkpt><trkpt lat="39.54420347" lon="-0.52340853"><ele>93.0</ele><time>2022-11-01T13:08:00.0000000+00:00</time></trkpt><trkpt lat="39.5441976" lon="-0.52340912"><ele>93.2</ele><time>2022-11-01T13:08:01.0000000+00:00</time></trkpt><trkpt lat="39.54419232" lon="-0.52341163"><ele>93.2</ele><time>2022-11-01T13:08:02.0000000+00:00</time></trkpt><trkpt lat="39.54418578" lon="-0.5234175"><ele>93.4</ele><time>2022-11-01T13:08:03.0000000+00:00</time></trkpt><trkpt lat="39.54417841" lon="-0.52342647"><ele>93.4</ele><time>2022-11-01T13:08:04.0000000+00:00</time></trkpt><trkpt lat="39.54417262" lon="-0.52343627"><ele>93.4</ele><time>2022-11-01T13:08:05.0000000+00:00</time></trkpt><trkpt lat="39.54417053" lon="-0.52343929"><ele>93.4</ele><time>2022-11-01T13:08:06.0000000+00:00</time></trkpt><trkpt lat="39.54417053" lon="-0.52343929"><ele>93.4</ele><time>2022-11-01T13:08:07.0000000+00:00</time></trkpt><trkpt lat="39.54417053" lon="-0.52343929"><ele>93.4</ele><time>2022-11-01T13:08:08.0000000+00:00</time></trkpt><trkpt lat="39.54417053" lon="-0.52343929"><ele>93.4</ele><time>2022-11-01T13:08:09.0000000+00:00</time></trkpt><trkpt lat="39.54416994" lon="-0.52343871"><ele>93.4</ele><time>2022-11-01T13:08:10.0000000+00:00</time></trkpt><trkpt lat="39.54416801" lon="-0.52343259"><ele>93.4</ele><time>2022-11-01T13:08:11.0000000+00:00</time></trkpt><trkpt lat="39.54416525" lon="-0.52342404"><ele>93.4</ele><time>2022-11-01T13:08:12.0000000+00:00</time></trkpt><trkpt lat="39.54416181" lon="-0.52341356"><ele>93.4</ele><time>2022-11-01T13:08:13.0000000+00:00</time></trkpt><trkpt lat="39.54415393" lon="-0.52340115"><ele>93.4</ele><time>2022-11-01T13:08:14.0000000+00:00</time></trkpt><trkpt lat="39.54414429" lon="-0.52338674"><ele>93.4</ele><time>2022-11-01T13:08:15.0000000+00:00</time></trkpt><trkpt lat="39.54413901" lon="-0.52337618"><ele>93.4</ele><time>2022-11-01T13:08:16.0000000+00:00</time></trkpt><trkpt lat="39.54412937" lon="-0.52336486"><ele>93.4</ele><time>2022-11-01T13:08:17.0000000+00:00</time></trkpt><trkpt lat="39.54411898" lon="-0.52335405"><ele>93.6</ele><time>2022-11-01T13:08:18.0000000+00:00</time></trkpt><trkpt lat="39.54410926" lon="-0.52334768"><ele>93.6</ele><time>2022-11-01T13:08:19.0000000+00:00</time></trkpt><trkpt lat="39.54409911" lon="-0.52334257"><ele>93.6</ele><time>2022-11-01T13:08:20.0000000+00:00</time></trkpt><trkpt lat="39.54409224" lon="-0.52333619"><ele>93.8</ele><time>2022-11-01T13:08:21.0000000+00:00</time></trkpt><trkpt lat="39.54408461" lon="-0.52333385"><ele>94.0</ele><time>2022-11-01T13:08:22.0000000+00:00</time></trkpt><trkpt lat="39.54407631" lon="-0.52333251"><ele>94.0</ele><time>2022-11-01T13:08:23.0000000+00:00</time></trkpt><trkpt lat="39.54407296" lon="-0.52333393"><ele>94.0</ele><time>2022-11-01T13:08:24.0000000+00:00</time></trkpt><trkpt lat="39.54407263" lon="-0.52333544"><ele>94.0</ele><time>2022-11-01T13:08:25.0000000+00:00</time></trkpt><trkpt lat="39.54407212" lon="-0.52333837"><ele>93.8</ele><time>2022-11-01T13:08:26.0000000+00:00</time></trkpt><trkpt lat="39.54407212" lon="-0.52333837"><ele>93.8</ele><time>2022-11-01T13:08:27.0000000+00:00</time></trkpt><trkpt lat="39.54407212" lon="-0.52333837"><ele>93.6</ele><time>2022-11-01T13:08:28.0000000+00:00</time></trkpt><trkpt lat="39.54407212" lon="-0.52333837"><ele>93.4</ele><time>2022-11-01T13:08:29.0000000+00:00</time></trkpt><trkpt lat="39.54407212" lon="-0.52333837"><ele>93.4</ele><time>2022-11-01T13:08:30.0000000+00:00</time></trkpt><trkpt lat="39.54407212" lon="-0.52333837"><ele>93.2</ele><time>2022-11-01T13:08:31.0000000+00:00</time></trkpt><trkpt lat="39.54407212" lon="-0.52333837"><ele>93.2</ele><time>2022-11-01T13:08:32.0000000+00:00</time></trkpt><trkpt lat="39.54407212" lon="-0.52333837"><ele>93.2</ele><time>2022-11-01T13:08:33.0000000+00:00</time></trkpt><trkpt lat="39.54407212" lon="-0.52333837"><ele>93.0</ele><time>2022-11-01T13:08:34.0000000+00:00</time></trkpt><trkpt lat="39.54407212" lon="-0.52333837"><ele>92.8</ele><time>2022-11-01T13:08:35.0000000+00:00</time></trkpt><trkpt lat="39.54407212" lon="-0.52333837"><ele>92.8</ele><time>2022-11-01T13:08:36.0000000+00:00</time></trkpt><trkpt lat="39.54407212" lon="-0.52333837"><ele>92.8</ele><time>2022-11-01T13:08:37.0000000+00:00</time></trkpt><trkpt lat="39.54407212" lon="-0.52333837"><ele>92.8</ele><time>2022-11-01T13:08:38.0000000+00:00</time></trkpt><trkpt lat="39.54407212" lon="-0.52333837"><ele>92.8</ele><time>2022-11-01T13:08:39.0000000+00:00</time></trkpt><trkpt lat="39.54407212" lon="-0.52333837"><ele>92.6</ele><time>2022-11-01T13:08:40.0000000+00:00</time></trkpt><trkpt lat="39.54407212" lon="-0.52333837"><ele>92.6</ele><time>2022-11-01T13:08:41.0000000+00:00</time></trkpt><trkpt lat="39.54407212" lon="-0.52333837"><ele>92.6</ele><time>2022-11-01T13:08:42.0000000+00:00</time></trkpt><trkpt lat="39.54407212" lon="-0.52333837"><ele>92.4</ele><time>2022-11-01T13:08:43.0000000+00:00</time></trkpt><trkpt lat="39.54407212" lon="-0.52333837"><ele>92.4</ele><time>2022-11-01T13:08:44.0000000+00:00</time></trkpt><trkpt lat="39.54407212" lon="-0.52333837"><ele>92.2</ele><time>2022-11-01T13:08:45.0000000+00:00</time></trkpt><trkpt lat="39.54407212" lon="-0.52333837"><ele>92.0</ele><time>2022-11-01T13:08:46.0000000+00:00</time></trkpt><trkpt lat="39.54407212" lon="-0.52333837"><ele>91.8</ele><time>2022-11-01T13:08:47.0000000+00:00</time></trkpt><trkpt lat="39.54406869" lon="-0.52333854"><ele>91.8</ele><time>2022-11-01T13:08:48.0000000+00:00</time></trkpt><trkpt lat="39.54406659" lon="-0.52334022"><ele>91.6</ele><time>2022-11-01T13:08:49.0000000+00:00</time></trkpt><trkpt lat="39.54406659" lon="-0.52334022"><ele>91.6</ele><time>2022-11-01T13:08:50.0000000+00:00</time></trkpt><trkpt lat="39.54406659" lon="-0.52334022"><ele>91.4</ele><time>2022-11-01T13:08:51.0000000+00:00</time></trkpt><trkpt lat="39.5440645" lon="-0.5233481"><ele>91.4</ele><time>2022-11-01T13:08:52.0000000+00:00</time></trkpt><trkpt lat="39.54406265" lon="-0.52335019"><ele>91.4</ele><time>2022-11-01T13:08:53.0000000+00:00</time></trkpt><trkpt lat="39.54406215" lon="-0.5233548"><ele>91.2</ele><time>2022-11-01T13:08:54.0000000+00:00</time></trkpt><trkpt lat="39.54405662" lon="-0.52336075"><ele>91.2</ele><time>2022-11-01T13:08:55.0000000+00:00</time></trkpt><trkpt lat="39.54405368" lon="-0.52336386"><ele>91.0</ele><time>2022-11-01T13:08:56.0000000+00:00</time></trkpt><trkpt lat="39.54405368" lon="-0.52336386"><ele>91.0</ele><time>2022-11-01T13:08:57.0000000+00:00</time></trkpt><trkpt lat="39.54405368" lon="-0.52336386"><ele>91.0</ele><time>2022-11-01T13:08:58.0000000+00:00</time></trkpt><trkpt lat="39.54405368" lon="-0.52336386"><ele>91.0</ele><time>2022-11-01T13:08:59.0000000+00:00</time></trkpt><trkpt lat="39.54405368" lon="-0.52336386"><ele>91.0</ele><time>2022-11-01T13:09:00.0000000+00:00</time></trkpt><trkpt lat="39.54405368" lon="-0.52336386"><ele>91.0</ele><time>2022-11-01T13:09:01.0000000+00:00</time></trkpt><trkpt lat="39.54405368" lon="-0.52336386"><ele>90.8</ele><time>2022-11-01T13:09:02.0000000+00:00</time></trkpt><trkpt lat="39.54405368" lon="-0.52336386"><ele>90.8</ele><time>2022-11-01T13:09:03.0000000+00:00</time></trkpt><trkpt lat="39.54405368" lon="-0.52336386"><ele>90.6</ele><time>2022-11-01T13:09:04.0000000+00:00</time></trkpt><trkpt lat="39.54405368" lon="-0.52336386"><ele>90.6</ele><time>2022-11-01T13:09:05.0000000+00:00</time></trkpt><trkpt lat="39.54405368" lon="-0.52336386"><ele>90.8</ele><time>2022-11-01T13:09:06.0000000+00:00</time></trkpt><trkpt lat="39.54405368" lon="-0.52336386"><ele>90.8</ele><time>2022-11-01T13:09:07.0000000+00:00</time></trkpt><trkpt lat="39.54405368" lon="-0.52336386"><ele>90.8</ele><time>2022-11-01T13:09:08.0000000+00:00</time></trkpt><trkpt lat="39.54405368" lon="-0.52336386"><ele>90.8</ele><time>2022-11-01T13:09:09.0000000+00:00</time></trkpt><trkpt lat="39.54405368" lon="-0.52336386"><ele>90.8</ele><time>2022-11-01T13:09:10.0000000+00:00</time></trkpt><trkpt lat="39.54405368" lon="-0.52336386"><ele>90.8</ele><time>2022-11-01T13:09:11.0000000+00:00</time></trkpt><trkpt lat="39.54405368" lon="-0.52336386"><ele>90.8</ele><time>2022-11-01T13:09:12.0000000+00:00</time></trkpt><trkpt lat="39.54405368" lon="-0.52336386"><ele>90.8</ele><time>2022-11-01T13:09:13.0000000+00:00</time></trkpt><trkpt lat="39.54405368" lon="-0.52336386"><ele>90.8</ele><time>2022-11-01T13:09:14.0000000+00:00</time></trkpt><trkpt lat="39.54405368" lon="-0.52336386"><ele>90.8</ele><time>2022-11-01T13:09:15.0000000+00:00</time></trkpt><trkpt lat="39.54405368" lon="-0.52336386"><ele>90.6</ele><time>2022-11-01T13:09:16.0000000+00:00</time></trkpt><trkpt lat="39.54405368" lon="-0.52336386"><ele>90.6</ele><time>2022-11-01T13:09:17.0000000+00:00</time></trkpt><trkpt lat="39.54405368" lon="-0.52336386"><ele>90.6</ele><time>2022-11-01T13:09:18.0000000+00:00</time></trkpt><trkpt lat="39.54405368" lon="-0.52336386"><ele>90.6</ele><time>2022-11-01T13:09:19.0000000+00:00</time></trkpt><trkpt lat="39.54405368" lon="-0.52336386"><ele>90.8</ele><time>2022-11-01T13:09:20.0000000+00:00</time></trkpt><trkpt lat="39.54405368" lon="-0.52336386"><ele>90.8</ele><time>2022-11-01T13:09:21.0000000+00:00</time></trkpt><trkpt lat="39.54405368" lon="-0.52336386"><ele>90.8</ele><time>2022-11-01T13:09:22.0000000+00:00</time></trkpt><trkpt lat="39.54405368" lon="-0.52336386"><ele>90.8</ele><time>2022-11-01T13:09:23.0000000+00:00</time></trkpt><trkpt lat="39.54405368" lon="-0.52336386"><ele>90.8</ele><time>2022-11-01T13:09:24.0000000+00:00</time></trkpt><trkpt lat="39.54405368" lon="-0.52336386"><ele>90.8</ele><time>2022-11-01T13:09:25.0000000+00:00</time></trkpt><trkpt lat="39.54405368" lon="-0.52336386"><ele>90.6</ele><time>2022-11-01T13:09:26.0000000+00:00</time></trkpt><trkpt lat="39.54405368" lon="-0.52336386"><ele>90.6</ele><time>2022-11-01T13:09:27.0000000+00:00</time></trkpt><trkpt lat="39.54405368" lon="-0.52336386"><ele>90.6</ele><time>2022-11-01T13:09:28.0000000+00:00</time></trkpt><trkpt lat="39.54405368" lon="-0.52336386"><ele>90.6</ele><time>2022-11-01T13:09:29.0000000+00:00</time></trkpt><trkpt lat="39.54405427" lon="-0.52336771"><ele>90.6</ele><time>2022-11-01T13:09:30.0000000+00:00</time></trkpt><trkpt lat="39.54405511" lon="-0.52337408"><ele>90.6</ele><time>2022-11-01T13:09:31.0000000+00:00</time></trkpt><trkpt lat="39.54405645" lon="-0.52337777"><ele>90.6</ele><time>2022-11-01T13:09:32.0000000+00:00</time></trkpt><trkpt lat="39.54405645" lon="-0.52337777"><ele>90.6</ele><time>2022-11-01T13:09:33.0000000+00:00</time></trkpt><trkpt lat="39.54405662" lon="-0.52338221"><ele>90.6</ele><time>2022-11-01T13:09:34.0000000+00:00</time></trkpt><trkpt lat="39.54406181" lon="-0.52339043"><ele>90.6</ele><time>2022-11-01T13:09:35.0000000+00:00</time></trkpt><trkpt lat="39.54406693" lon="-0.52339906"><ele>90.6</ele><time>2022-11-01T13:09:36.0000000+00:00</time></trkpt><trkpt lat="39.54406927" lon="-0.52340836"><ele>90.8</ele><time>2022-11-01T13:09:37.0000000+00:00</time></trkpt><trkpt lat="39.54407514" lon="-0.52341884"><ele>90.8</ele><time>2022-11-01T13:09:38.0000000+00:00</time></trkpt><trkpt lat="39.5440878" lon="-0.52343418"><ele>90.8</ele><time>2022-11-01T13:09:39.0000000+00:00</time></trkpt><trkpt lat="39.5440997" lon="-0.52344424"><ele>90.8</ele><time>2022-11-01T13:09:40.0000000+00:00</time></trkpt><trkpt lat="39.54411143" lon="-0.52345438"><ele>90.8</ele><time>2022-11-01T13:09:41.0000000+00:00</time></trkpt><trkpt lat="39.54411504" lon="-0.52345715"><ele>90.6</ele><time>2022-11-01T13:09:42.0000000+00:00</time></trkpt><trkpt lat="39.54411864" lon="-0.52346159"><ele>90.6</ele><time>2022-11-01T13:09:43.0000000+00:00</time></trkpt><trkpt lat="39.54413264" lon="-0.52347391"><ele>90.6</ele><time>2022-11-01T13:09:44.0000000+00:00</time></trkpt><trkpt lat="39.54414605" lon="-0.52348615"><ele>90.6</ele><time>2022-11-01T13:09:45.0000000+00:00</time></trkpt><trkpt lat="39.54415628" lon="-0.52349721"><ele>90.6</ele><time>2022-11-01T13:09:46.0000000+00:00</time></trkpt><trkpt lat="39.54416793" lon="-0.52350568"><ele>90.6</ele><time>2022-11-01T13:09:47.0000000+00:00</time></trkpt><trkpt lat="39.54418536" lon="-0.5235159"><ele>90.6</ele><time>2022-11-01T13:09:48.0000000+00:00</time></trkpt><trkpt lat="39.54419559" lon="-0.52352697"><ele>90.6</ele><time>2022-11-01T13:09:49.0000000+00:00</time></trkpt><trkpt lat="39.54421663" lon="-0.52354306"><ele>90.6</ele><time>2022-11-01T13:09:50.0000000+00:00</time></trkpt><trkpt lat="39.54423524" lon="-0.52355815"><ele>90.6</ele><time>2022-11-01T13:09:51.0000000+00:00</time></trkpt><trkpt lat="39.54424974" lon="-0.52356863"><ele>90.6</ele><time>2022-11-01T13:09:52.0000000+00:00</time></trkpt><trkpt lat="39.54427002" lon="-0.52358103"><ele>90.6</ele><time>2022-11-01T13:09:53.0000000+00:00</time></trkpt><trkpt lat="39.54428083" lon="-0.52359293"><ele>90.4</ele><time>2022-11-01T13:09:54.0000000+00:00</time></trkpt><trkpt lat="39.54428335" lon="-0.52360366"><ele>90.4</ele><time>2022-11-01T13:09:55.0000000+00:00</time></trkpt><trkpt lat="39.54428444" lon="-0.52360877"><ele>90.4</ele><time>2022-11-01T13:09:56.0000000+00:00</time></trkpt><trkpt lat="39.54428067" lon="-0.52361347"><ele>90.2</ele><time>2022-11-01T13:09:57.0000000+00:00</time></trkpt><trkpt lat="39.54427388" lon="-0.52360701"><ele>90.2</ele><time>2022-11-01T13:09:58.0000000+00:00</time></trkpt><trkpt lat="39.54426315" lon="-0.5235957"><ele>90.2</ele><time>2022-11-01T13:09:59.0000000+00:00</time></trkpt><trkpt lat="39.54424764" lon="-0.5235848"><ele>90.2</ele><time>2022-11-01T13:10:00.0000000+00:00</time></trkpt><trkpt lat="39.54423046" lon="-0.52357055"><ele>90.4</ele><time>2022-11-01T13:10:01.0000000+00:00</time></trkpt><trkpt lat="39.5442095" lon="-0.52355723"><ele>90.4</ele><time>2022-11-01T13:10:02.0000000+00:00</time></trkpt><trkpt lat="39.54418444" lon="-0.52354273"><ele>90.4</ele><time>2022-11-01T13:10:03.0000000+00:00</time></trkpt><trkpt lat="39.54415678" lon="-0.52352504"><ele>90.4</ele><time>2022-11-01T13:10:04.0000000+00:00</time></trkpt><trkpt lat="39.54412786" lon="-0.52350526"><ele>90.6</ele><time>2022-11-01T13:10:05.0000000+00:00</time></trkpt><trkpt lat="39.54409677" lon="-0.52348539"><ele>90.6</ele><time>2022-11-01T13:10:06.0000000+00:00</time></trkpt><trkpt lat="39.54406944" lon="-0.52345857"><ele>90.8</ele><time>2022-11-01T13:10:07.0000000+00:00</time></trkpt><trkpt lat="39.54404111" lon="-0.5234325"><ele>90.8</ele><time>2022-11-01T13:10:08.0000000+00:00</time></trkpt><trkpt lat="39.54401211" lon="-0.52341146"><ele>90.8</ele><time>2022-11-01T13:10:09.0000000+00:00</time></trkpt><trkpt lat="39.54397858" lon="-0.52339043"><ele>90.8</ele><time>2022-11-01T13:10:10.0000000+00:00</time></trkpt><trkpt lat="39.54394707" lon="-0.52336763"><ele>90.8</ele><time>2022-11-01T13:10:11.0000000+00:00</time></trkpt><trkpt lat="39.54391429" lon="-0.52334315"><ele>90.8</ele><time>2022-11-01T13:10:12.0000000+00:00</time></trkpt><trkpt lat="39.54388144" lon="-0.5233191"><ele>90.8</ele><time>2022-11-01T13:10:13.0000000+00:00</time></trkpt><trkpt lat="39.54385" lon="-0.52329294"><ele>91.0</ele><time>2022-11-01T13:10:14.0000000+00:00</time></trkpt><trkpt lat="39.54381513" lon="-0.5232631"><ele>91.0</ele><time>2022-11-01T13:10:15.0000000+00:00</time></trkpt><trkpt lat="39.54378555" lon="-0.52323553"><ele>91.0</ele><time>2022-11-01T13:10:16.0000000+00:00</time></trkpt><trkpt lat="39.54375428" lon="-0.52320854"><ele>91.0</ele><time>2022-11-01T13:10:17.0000000+00:00</time></trkpt><trkpt lat="39.54372243" lon="-0.5231844"><ele>91.2</ele><time>2022-11-01T13:10:18.0000000+00:00</time></trkpt><trkpt lat="39.54368907" lon="-0.52316152"><ele>91.2</ele><time>2022-11-01T13:10:19.0000000+00:00</time></trkpt><trkpt lat="39.54365387" lon="-0.52313662"><ele>91.2</ele><time>2022-11-01T13:10:20.0000000+00:00</time></trkpt><trkpt lat="39.5436221" lon="-0.52310687"><ele>91.2</ele><time>2022-11-01T13:10:21.0000000+00:00</time></trkpt><trkpt lat="39.54358983" lon="-0.52308231"><ele>91.2</ele><time>2022-11-01T13:10:22.0000000+00:00</time></trkpt><trkpt lat="39.54355949" lon="-0.52305825"><ele>91.4</ele><time>2022-11-01T13:10:23.0000000+00:00</time></trkpt><trkpt lat="39.54352604" lon="-0.52303637"><ele>91.4</ele><time>2022-11-01T13:10:24.0000000+00:00</time></trkpt><trkpt lat="39.54349042" lon="-0.52301282"><ele>91.4</ele><time>2022-11-01T13:10:25.0000000+00:00</time></trkpt><trkpt lat="39.54345555" lon="-0.52298742"><ele>91.4</ele><time>2022-11-01T13:10:26.0000000+00:00</time></trkpt><trkpt lat="39.54342227" lon="-0.52296085"><ele>91.4</ele><time>2022-11-01T13:10:27.0000000+00:00</time></trkpt><trkpt lat="39.54339118" lon="-0.52293428"><ele>91.4</ele><time>2022-11-01T13:10:28.0000000+00:00</time></trkpt><trkpt lat="39.54335975" lon="-0.52290897"><ele>91.4</ele><time>2022-11-01T13:10:29.0000000+00:00</time></trkpt><trkpt lat="39.54332488" lon="-0.52288818"><ele>91.4</ele><time>2022-11-01T13:10:30.0000000+00:00</time></trkpt><trkpt lat="39.54329495" lon="-0.52286471"><ele>91.4</ele><time>2022-11-01T13:10:31.0000000+00:00</time></trkpt><trkpt lat="39.54326386" lon="-0.52284091"><ele>91.4</ele><time>2022-11-01T13:10:32.0000000+00:00</time></trkpt><trkpt lat="39.54322664" lon="-0.52281828"><ele>91.4</ele><time>2022-11-01T13:10:33.0000000+00:00</time></trkpt><trkpt lat="39.54319177" lon="-0.52279766"><ele>91.4</ele><time>2022-11-01T13:10:34.0000000+00:00</time></trkpt><trkpt lat="39.54315816" lon="-0.52277343"><ele>91.4</ele><time>2022-11-01T13:10:35.0000000+00:00</time></trkpt><trkpt lat="39.54312514" lon="-0.52274376"><ele>91.4</ele><time>2022-11-01T13:10:36.0000000+00:00</time></trkpt><trkpt lat="39.54309261" lon="-0.52271401"><ele>91.4</ele><time>2022-11-01T13:10:37.0000000+00:00</time></trkpt><trkpt lat="39.54306043" lon="-0.52268735"><ele>91.4</ele><time>2022-11-01T13:10:38.0000000+00:00</time></trkpt><trkpt lat="39.54301877" lon="-0.52265047"><ele>91.4</ele><time>2022-11-01T13:10:39.0000000+00:00</time></trkpt><trkpt lat="39.54298474" lon="-0.52261711"><ele>91.4</ele><time>2022-11-01T13:10:40.0000000+00:00</time></trkpt><trkpt lat="39.54296169" lon="-0.52258727"><ele>91.4</ele><time>2022-11-01T13:10:41.0000000+00:00</time></trkpt><trkpt lat="39.54292707" lon="-0.5225498"><ele>91.4</ele><time>2022-11-01T13:10:42.0000000+00:00</time></trkpt><trkpt lat="39.54289765" lon="-0.52252349"><ele>91.4</ele><time>2022-11-01T13:10:43.0000000+00:00</time></trkpt><trkpt lat="39.54287217" lon="-0.52250018"><ele>91.4</ele><time>2022-11-01T13:10:44.0000000+00:00</time></trkpt><trkpt lat="39.54283395" lon="-0.52245945"><ele>91.4</ele><time>2022-11-01T13:10:45.0000000+00:00</time></trkpt><trkpt lat="39.54279975" lon="-0.52241586"><ele>91.2</ele><time>2022-11-01T13:10:46.0000000+00:00</time></trkpt><trkpt lat="39.54277435" lon="-0.52238946"><ele>91.2</ele><time>2022-11-01T13:10:47.0000000+00:00</time></trkpt><trkpt lat="39.54273437" lon="-0.52235099"><ele>91.2</ele><time>2022-11-01T13:10:48.0000000+00:00</time></trkpt><trkpt lat="39.54270713" lon="-0.52231134"><ele>91.2</ele><time>2022-11-01T13:10:49.0000000+00:00</time></trkpt><trkpt lat="39.54267796" lon="-0.52227262"><ele>91.2</ele><time>2022-11-01T13:10:50.0000000+00:00</time></trkpt><trkpt lat="39.54265717" lon="-0.52223967"><ele>91.4</ele><time>2022-11-01T13:10:51.0000000+00:00</time></trkpt><trkpt lat="39.54263387" lon="-0.5221981"><ele>91.6</ele><time>2022-11-01T13:10:52.0000000+00:00</time></trkpt><trkpt lat="39.54260269" lon="-0.52215451"><ele>91.6</ele><time>2022-11-01T13:10:53.0000000+00:00</time></trkpt><trkpt lat="39.54258056" lon="-0.5221178"><ele>91.6</ele><time>2022-11-01T13:10:54.0000000+00:00</time></trkpt><trkpt lat="39.54255978" lon="-0.52208033"><ele>91.8</ele><time>2022-11-01T13:10:55.0000000+00:00</time></trkpt><trkpt lat="39.54253882" lon="-0.52204748"><ele>91.8</ele><time>2022-11-01T13:10:56.0000000+00:00</time></trkpt><trkpt lat="39.54251493" lon="-0.52201395"><ele>92.0</ele><time>2022-11-01T13:10:57.0000000+00:00</time></trkpt><trkpt lat="39.54249448" lon="-0.5219759"><ele>92.0</ele><time>2022-11-01T13:10:58.0000000+00:00</time></trkpt><trkpt lat="39.54247554" lon="-0.52193608"><ele>92.2</ele><time>2022-11-01T13:10:59.0000000+00:00</time></trkpt><trkpt lat="39.54245567" lon="-0.52188596"><ele>92.4</ele><time>2022-11-01T13:11:00.0000000+00:00</time></trkpt><trkpt lat="39.54243497" lon="-0.52183122"><ele>92.4</ele><time>2022-11-01T13:11:01.0000000+00:00</time></trkpt><trkpt lat="39.54240664" lon="-0.52177716"><ele>92.6</ele><time>2022-11-01T13:11:02.0000000+00:00</time></trkpt><trkpt lat="39.54238543" lon="-0.52173852"><ele>92.6</ele><time>2022-11-01T13:11:03.0000000+00:00</time></trkpt><trkpt lat="39.54235015" lon="-0.52167893"><ele>92.6</ele><time>2022-11-01T13:11:04.0000000+00:00</time></trkpt><trkpt lat="39.54232701" lon="-0.52163551"><ele>92.6</ele><time>2022-11-01T13:11:05.0000000+00:00</time></trkpt><trkpt lat="39.54229751" lon="-0.52158974"><ele>92.8</ele><time>2022-11-01T13:11:06.0000000+00:00</time></trkpt><trkpt lat="39.54227136" lon="-0.52154565"><ele>92.8</ele><time>2022-11-01T13:11:07.0000000+00:00</time></trkpt><trkpt lat="39.54225434" lon="-0.52151213"><ele>92.8</ele><time>2022-11-01T13:11:08.0000000+00:00</time></trkpt><trkpt lat="39.5422328" lon="-0.52146477"><ele>92.8</ele><time>2022-11-01T13:11:09.0000000+00:00</time></trkpt><trkpt lat="39.5422131" lon="-0.52141858"><ele>92.8</ele><time>2022-11-01T13:11:10.0000000+00:00</time></trkpt><trkpt lat="39.54219282" lon="-0.52136997"><ele>93.0</ele><time>2022-11-01T13:11:11.0000000+00:00</time></trkpt><trkpt lat="39.54217496" lon="-0.52133443"><ele>93.0</ele><time>2022-11-01T13:11:12.0000000+00:00</time></trkpt><trkpt lat="39.5421525" lon="-0.52129545"><ele>93.2</ele><time>2022-11-01T13:11:13.0000000+00:00</time></trkpt><trkpt lat="39.54212098" lon="-0.5212569"><ele>93.2</ele><time>2022-11-01T13:11:14.0000000+00:00</time></trkpt><trkpt lat="39.54209626" lon="-0.52121884"><ele>93.2</ele><time>2022-11-01T13:11:15.0000000+00:00</time></trkpt><trkpt lat="39.54206734" lon="-0.52117811"><ele>93.2</ele><time>2022-11-01T13:11:16.0000000+00:00</time></trkpt><trkpt lat="39.54203306" lon="-0.52112664"><ele>93.2</ele><time>2022-11-01T13:11:17.0000000+00:00</time></trkpt><trkpt lat="39.54200967" lon="-0.52109487"><ele>93.2</ele><time>2022-11-01T13:11:18.0000000+00:00</time></trkpt><trkpt lat="39.54197757" lon="-0.52105975"><ele>93.2</ele><time>2022-11-01T13:11:19.0000000+00:00</time></trkpt><trkpt lat="39.54194346" lon="-0.52102346"><ele>93.2</ele><time>2022-11-01T13:11:20.0000000+00:00</time></trkpt><trkpt lat="39.54190716" lon="-0.52098574"><ele>93.2</ele><time>2022-11-01T13:11:21.0000000+00:00</time></trkpt><trkpt lat="39.54186274" lon="-0.52093973"><ele>93.2</ele><time>2022-11-01T13:11:22.0000000+00:00</time></trkpt><trkpt lat="39.54182485" lon="-0.52090335"><ele>93.2</ele><time>2022-11-01T13:11:23.0000000+00:00</time></trkpt><trkpt lat="39.54179342" lon="-0.5208751"><ele>93.2</ele><time>2022-11-01T13:11:24.0000000+00:00</time></trkpt><trkpt lat="39.54175436" lon="-0.52083621"><ele>93.2</ele><time>2022-11-01T13:11:25.0000000+00:00</time></trkpt><trkpt lat="39.54171547" lon="-0.52079405"><ele>93.2</ele><time>2022-11-01T13:11:26.0000000+00:00</time></trkpt><trkpt lat="39.54167574" lon="-0.52075264"><ele>93.2</ele><time>2022-11-01T13:11:27.0000000+00:00</time></trkpt><trkpt lat="39.54163701" lon="-0.52071174"><ele>93.2</ele><time>2022-11-01T13:11:28.0000000+00:00</time></trkpt><trkpt lat="39.54159988" lon="-0.52066706"><ele>93.2</ele><time>2022-11-01T13:11:29.0000000+00:00</time></trkpt><trkpt lat="39.54156158" lon="-0.52062658"><ele>93.2</ele><time>2022-11-01T13:11:30.0000000+00:00</time></trkpt><trkpt lat="39.54152294" lon="-0.52058475"><ele>93.4</ele><time>2022-11-01T13:11:31.0000000+00:00</time></trkpt><trkpt lat="39.54148455" lon="-0.5205384"><ele>93.4</ele><time>2022-11-01T13:11:32.0000000+00:00</time></trkpt><trkpt lat="39.54144465" lon="-0.52049389"><ele>93.4</ele><time>2022-11-01T13:11:33.0000000+00:00</time></trkpt><trkpt lat="39.54139385" lon="-0.52044787"><ele>93.4</ele><time>2022-11-01T13:11:34.0000000+00:00</time></trkpt><trkpt lat="39.54135597" lon="-0.520426"><ele>93.4</ele><time>2022-11-01T13:11:35.0000000+00:00</time></trkpt><trkpt lat="39.54130459" lon="-0.52040563"><ele>93.4</ele><time>2022-11-01T13:11:36.0000000+00:00</time></trkpt><trkpt lat="39.54125128" lon="-0.52039457"><ele>93.6</ele><time>2022-11-01T13:11:37.0000000+00:00</time></trkpt><trkpt lat="39.54119747" lon="-0.52039297"><ele>93.6</ele><time>2022-11-01T13:11:38.0000000+00:00</time></trkpt><trkpt lat="39.54114382" lon="-0.52040312"><ele>93.6</ele><time>2022-11-01T13:11:39.0000000+00:00</time></trkpt><trkpt lat="39.5410854" lon="-0.52043036"><ele>93.6</ele><time>2022-11-01T13:11:40.0000000+00:00</time></trkpt><trkpt lat="39.54104198" lon="-0.52045735"><ele>93.6</ele><time>2022-11-01T13:11:41.0000000+00:00</time></trkpt><trkpt lat="39.54101089" lon="-0.52047822"><ele>93.6</ele><time>2022-11-01T13:11:42.0000000+00:00</time></trkpt><trkpt lat="39.54096152" lon="-0.52052046"><ele>93.6</ele><time>2022-11-01T13:11:43.0000000+00:00</time></trkpt><trkpt lat="39.54092011" lon="-0.52056413"><ele>93.4</ele><time>2022-11-01T13:11:44.0000000+00:00</time></trkpt><trkpt lat="39.54087828" lon="-0.52061216"><ele>93.4</ele><time>2022-11-01T13:11:45.0000000+00:00</time></trkpt><trkpt lat="39.54084568" lon="-0.52066128"><ele>93.2</ele><time>2022-11-01T13:11:46.0000000+00:00</time></trkpt><trkpt lat="39.54078944" lon="-0.52074468"><ele>92.8</ele><time>2022-11-01T13:11:47.0000000+00:00</time></trkpt><trkpt lat="39.54074442" lon="-0.52082095"><ele>92.4</ele><time>2022-11-01T13:11:48.0000000+00:00</time></trkpt><trkpt lat="39.54069614" lon="-0.52089999"><ele>92.0</ele><time>2022-11-01T13:11:49.0000000+00:00</time></trkpt><trkpt lat="39.54062599" lon="-0.52096613"><ele>91.8</ele><time>2022-11-01T13:11:50.0000000+00:00</time></trkpt><trkpt lat="39.5405503" lon="-0.5210165"><ele>91.4</ele><time>2022-11-01T13:11:51.0000000+00:00</time></trkpt><trkpt lat="39.540485" lon="-0.52104198"><ele>91.2</ele><time>2022-11-01T13:11:52.0000000+00:00</time></trkpt><trkpt lat="39.54038861" lon="-0.52106612"><ele>91.0</ele><time>2022-11-01T13:11:53.0000000+00:00</time></trkpt><trkpt lat="39.54030546" lon="-0.52109119"><ele>90.8</ele><time>2022-11-01T13:11:54.0000000+00:00</time></trkpt><trkpt lat="39.54021427" lon="-0.52111382"><ele>90.6</ele><time>2022-11-01T13:11:55.0000000+00:00</time></trkpt><trkpt lat="39.54012148" lon="-0.52114173"><ele>90.4</ele><time>2022-11-01T13:11:56.0000000+00:00</time></trkpt><trkpt lat="39.5400592" lon="-0.52116117"><ele>90.2</ele><time>2022-11-01T13:11:57.0000000+00:00</time></trkpt><trkpt lat="39.53998444" lon="-0.52118464"><ele>89.8</ele><time>2022-11-01T13:11:58.0000000+00:00</time></trkpt><trkpt lat="39.53989064" lon="-0.52121046"><ele>89.6</ele><time>2022-11-01T13:11:59.0000000+00:00</time></trkpt><trkpt lat="39.53981169" lon="-0.52123762"><ele>89.4</ele><time>2022-11-01T13:12:00.0000000+00:00</time></trkpt><trkpt lat="39.53974966" lon="-0.52126134"><ele>89.2</ele><time>2022-11-01T13:12:01.0000000+00:00</time></trkpt><trkpt lat="39.53966324" lon="-0.52128824"><ele>89.2</ele><time>2022-11-01T13:12:02.0000000+00:00</time></trkpt><trkpt lat="39.53960415" lon="-0.52130115"><ele>89.0</ele><time>2022-11-01T13:12:03.0000000+00:00</time></trkpt><trkpt lat="39.53952913" lon="-0.52131993"><ele>89.0</ele><time>2022-11-01T13:12:04.0000000+00:00</time></trkpt><trkpt lat="39.53945713" lon="-0.52134231"><ele>89.0</ele><time>2022-11-01T13:12:05.0000000+00:00</time></trkpt><trkpt lat="39.53938547" lon="-0.52136486"><ele>88.8</ele><time>2022-11-01T13:12:06.0000000+00:00</time></trkpt><trkpt lat="39.53931422" lon="-0.52138455"><ele>88.8</ele><time>2022-11-01T13:12:07.0000000+00:00</time></trkpt><trkpt lat="39.53923116" lon="-0.52139813"><ele>88.8</ele><time>2022-11-01T13:12:08.0000000+00:00</time></trkpt><trkpt lat="39.53917516" lon="-0.52139243"><ele>88.6</ele><time>2022-11-01T13:12:09.0000000+00:00</time></trkpt><trkpt lat="39.53910719" lon="-0.52139411"><ele>88.6</ele><time>2022-11-01T13:12:10.0000000+00:00</time></trkpt><trkpt lat="39.53903418" lon="-0.52139587"><ele>88.6</ele><time>2022-11-01T13:12:11.0000000+00:00</time></trkpt><trkpt lat="39.53894634" lon="-0.52139545"><ele>88.4</ele><time>2022-11-01T13:12:12.0000000+00:00</time></trkpt><trkpt lat="39.53888507" lon="-0.52139662"><ele>88.2</ele><time>2022-11-01T13:12:13.0000000+00:00</time></trkpt><trkpt lat="39.53881005" lon="-0.52139537"><ele>88.2</ele><time>2022-11-01T13:12:14.0000000+00:00</time></trkpt><trkpt lat="39.53873822" lon="-0.52139361"><ele>88.0</ele><time>2022-11-01T13:12:15.0000000+00:00</time></trkpt><trkpt lat="39.53866798" lon="-0.52138472"><ele>88.0</ele><time>2022-11-01T13:12:16.0000000+00:00</time></trkpt><trkpt lat="39.53859505" lon="-0.52137977"><ele>88.0</ele><time>2022-11-01T13:12:17.0000000+00:00</time></trkpt><trkpt lat="39.53852305" lon="-0.52137382"><ele>88.0</ele><time>2022-11-01T13:12:18.0000000+00:00</time></trkpt><trkpt lat="39.5384539" lon="-0.52136796"><ele>88.0</ele><time>2022-11-01T13:12:19.0000000+00:00</time></trkpt><trkpt lat="39.53838768" lon="-0.52136092"><ele>88.0</ele><time>2022-11-01T13:12:20.0000000+00:00</time></trkpt><trkpt lat="39.53832155" lon="-0.52135547"><ele>88.2</ele><time>2022-11-01T13:12:21.0000000+00:00</time></trkpt><trkpt lat="39.53825525" lon="-0.52135103"><ele>88.2</ele><time>2022-11-01T13:12:22.0000000+00:00</time></trkpt><trkpt lat="39.53818702" lon="-0.52134256"><ele>88.2</ele><time>2022-11-01T13:12:23.0000000+00:00</time></trkpt><trkpt lat="39.53812064" lon="-0.52133694"><ele>88.2</ele><time>2022-11-01T13:12:24.0000000+00:00</time></trkpt><trkpt lat="39.5380571" lon="-0.52133049"><ele>88.2</ele><time>2022-11-01T13:12:25.0000000+00:00</time></trkpt><trkpt lat="39.53799005" lon="-0.5213201"><ele>88.2</ele><time>2022-11-01T13:12:26.0000000+00:00</time></trkpt><trkpt lat="39.53792534" lon="-0.52131431"><ele>88.2</ele><time>2022-11-01T13:12:27.0000000+00:00</time></trkpt><trkpt lat="39.53786231" lon="-0.52130928"><ele>88.2</ele><time>2022-11-01T13:12:28.0000000+00:00</time></trkpt><trkpt lat="39.53778855" lon="-0.52130258"><ele>88.2</ele><time>2022-11-01T13:12:29.0000000+00:00</time></trkpt><trkpt lat="39.53774169" lon="-0.52130283"><ele>88.2</ele><time>2022-11-01T13:12:30.0000000+00:00</time></trkpt><trkpt lat="39.53767707" lon="-0.52130107"><ele>88.4</ele><time>2022-11-01T13:12:31.0000000+00:00</time></trkpt><trkpt lat="39.53762527" lon="-0.52129688"><ele>88.6</ele><time>2022-11-01T13:12:32.0000000+00:00</time></trkpt><trkpt lat="39.53758311" lon="-0.52129302"><ele>88.6</ele><time>2022-11-01T13:12:33.0000000+00:00</time></trkpt><trkpt lat="39.53753198" lon="-0.52129"><ele>88.6</ele><time>2022-11-01T13:12:34.0000000+00:00</time></trkpt><trkpt lat="39.53748512" lon="-0.52129285"><ele>88.8</ele><time>2022-11-01T13:12:35.0000000+00:00</time></trkpt><trkpt lat="39.53743039" lon="-0.52129855"><ele>88.8</ele><time>2022-11-01T13:12:36.0000000+00:00</time></trkpt><trkpt lat="39.53739661" lon="-0.52130316"><ele>88.8</ele><time>2022-11-01T13:12:37.0000000+00:00</time></trkpt><trkpt lat="39.53734456" lon="-0.52131414"><ele>89.0</ele><time>2022-11-01T13:12:38.0000000+00:00</time></trkpt><trkpt lat="39.53730156" lon="-0.52132647"><ele>89.0</ele><time>2022-11-01T13:12:39.0000000+00:00</time></trkpt><trkpt lat="39.53726778" lon="-0.52133879"><ele>89.0</ele><time>2022-11-01T13:12:40.0000000+00:00</time></trkpt><trkpt lat="39.53721891" lon="-0.52135664"><ele>89.0</ele><time>2022-11-01T13:12:41.0000000+00:00</time></trkpt><trkpt lat="39.537176" lon="-0.52137718"><ele>89.0</ele><time>2022-11-01T13:12:42.0000000+00:00</time></trkpt><trkpt lat="39.53714163" lon="-0.52140257"><ele>89.0</ele><time>2022-11-01T13:12:43.0000000+00:00</time></trkpt><trkpt lat="39.53709377" lon="-0.52142873"><ele>88.8</ele><time>2022-11-01T13:12:44.0000000+00:00</time></trkpt><trkpt lat="39.53704407" lon="-0.52145882"><ele>88.8</ele><time>2022-11-01T13:12:45.0000000+00:00</time></trkpt><trkpt lat="39.53699168" lon="-0.5214962"><ele>88.8</ele><time>2022-11-01T13:12:46.0000000+00:00</time></trkpt><trkpt lat="39.53693946" lon="-0.52154146"><ele>88.6</ele><time>2022-11-01T13:12:47.0000000+00:00</time></trkpt><trkpt lat="39.53687442" lon="-0.52159863"><ele>88.4</ele><time>2022-11-01T13:12:48.0000000+00:00</time></trkpt><trkpt lat="39.53682195" lon="-0.52164766"><ele>88.2</ele><time>2022-11-01T13:12:49.0000000+00:00</time></trkpt><trkpt lat="39.53678146" lon="-0.52169384"><ele>88.2</ele><time>2022-11-01T13:12:50.0000000+00:00</time></trkpt><trkpt lat="39.53672715" lon="-0.52175411"><ele>88.2</ele><time>2022-11-01T13:12:51.0000000+00:00</time></trkpt><trkpt lat="39.53668012" lon="-0.52179904"><ele>88.0</ele><time>2022-11-01T13:12:52.0000000+00:00</time></trkpt><trkpt lat="39.53663838" lon="-0.52183743"><ele>87.8</ele><time>2022-11-01T13:12:53.0000000+00:00</time></trkpt><trkpt lat="39.53658423" lon="-0.52188562"><ele>87.6</ele><time>2022-11-01T13:12:54.0000000+00:00</time></trkpt><trkpt lat="39.53651584" lon="-0.5219427"><ele>87.4</ele><time>2022-11-01T13:12:55.0000000+00:00</time></trkpt><trkpt lat="39.53645147" lon="-0.52199157"><ele>87.4</ele><time>2022-11-01T13:12:56.0000000+00:00</time></trkpt><trkpt lat="39.53639908" lon="-0.52203046"><ele>87.2</ele><time>2022-11-01T13:12:57.0000000+00:00</time></trkpt><trkpt lat="39.53632188" lon="-0.52208176"><ele>86.8</ele><time>2022-11-01T13:12:58.0000000+00:00</time></trkpt><trkpt lat="39.53626044" lon="-0.52211956"><ele>86.6</ele><time>2022-11-01T13:12:59.0000000+00:00</time></trkpt><trkpt lat="39.53619733" lon="-0.5221541"><ele>86.2</ele><time>2022-11-01T13:13:00.0000000+00:00</time></trkpt><trkpt lat="39.53613312" lon="-0.52219072"><ele>86.0</ele><time>2022-11-01T13:13:01.0000000+00:00</time></trkpt><trkpt lat="39.53607168" lon="-0.52222953"><ele>85.8</ele><time>2022-11-01T13:13:02.0000000+00:00</time></trkpt><trkpt lat="39.53601334" lon="-0.52227236"><ele>85.6</ele><time>2022-11-01T13:13:03.0000000+00:00</time></trkpt><trkpt lat="39.53596037" lon="-0.52232131"><ele>85.4</ele><time>2022-11-01T13:13:04.0000000+00:00</time></trkpt><trkpt lat="39.53590991" lon="-0.5223789"><ele>85.2</ele><time>2022-11-01T13:13:05.0000000+00:00</time></trkpt><trkpt lat="39.53586096" lon="-0.52244185"><ele>85.0</ele><time>2022-11-01T13:13:06.0000000+00:00</time></trkpt><trkpt lat="39.5358162" lon="-0.52249641"><ele>84.8</ele><time>2022-11-01T13:13:07.0000000+00:00</time></trkpt><trkpt lat="39.53574663" lon="-0.5225602"><ele>84.2</ele><time>2022-11-01T13:13:08.0000000+00:00</time></trkpt><trkpt lat="39.53569357" lon="-0.52258576"><ele>83.8</ele><time>2022-11-01T13:13:09.0000000+00:00</time></trkpt><trkpt lat="39.53563046" lon="-0.52259775"><ele>83.6</ele><time>2022-11-01T13:13:10.0000000+00:00</time></trkpt><trkpt lat="39.53555552" lon="-0.52259456"><ele>83.0</ele><time>2022-11-01T13:13:11.0000000+00:00</time></trkpt><trkpt lat="39.53548403" lon="-0.52259004"><ele>82.8</ele><time>2022-11-01T13:13:12.0000000+00:00</time></trkpt><trkpt lat="39.53540951" lon="-0.52258526"><ele>82.6</ele><time>2022-11-01T13:13:13.0000000+00:00</time></trkpt><trkpt lat="39.53535193" lon="-0.52258333"><ele>82.2</ele><time>2022-11-01T13:13:14.0000000+00:00</time></trkpt><trkpt lat="39.53528755" lon="-0.5225856"><ele>81.8</ele><time>2022-11-01T13:13:15.0000000+00:00</time></trkpt><trkpt lat="39.53522058" lon="-0.5226016"><ele>81.4</ele><time>2022-11-01T13:13:16.0000000+00:00</time></trkpt><trkpt lat="39.53516987" lon="-0.52263857"><ele>80.8</ele><time>2022-11-01T13:13:17.0000000+00:00</time></trkpt><trkpt lat="39.53513282" lon="-0.52270009"><ele>80.4</ele><time>2022-11-01T13:13:18.0000000+00:00</time></trkpt><trkpt lat="39.53511681" lon="-0.52275667"><ele>80.2</ele><time>2022-11-01T13:13:19.0000000+00:00</time></trkpt><trkpt lat="39.53509527" lon="-0.52283965"><ele>79.6</ele><time>2022-11-01T13:13:20.0000000+00:00</time></trkpt><trkpt lat="39.53508605" lon="-0.52289112"><ele>79.4</ele><time>2022-11-01T13:13:21.0000000+00:00</time></trkpt><trkpt lat="39.53506996" lon="-0.52295222"><ele>79.2</ele><time>2022-11-01T13:13:22.0000000+00:00</time></trkpt><trkpt lat="39.53505437" lon="-0.52302707"><ele>79.2</ele><time>2022-11-01T13:13:23.0000000+00:00</time></trkpt><trkpt lat="39.53504339" lon="-0.5230927"><ele>79.2</ele><time>2022-11-01T13:13:24.0000000+00:00</time></trkpt><trkpt lat="39.53503543" lon="-0.52313721"><ele>79.2</ele><time>2022-11-01T13:13:25.0000000+00:00</time></trkpt><trkpt lat="39.53502134" lon="-0.52320175"><ele>79.0</ele><time>2022-11-01T13:13:26.0000000+00:00</time></trkpt><trkpt lat="39.53501439" lon="-0.52326973"><ele>79.0</ele><time>2022-11-01T13:13:27.0000000+00:00</time></trkpt><trkpt lat="39.53500735" lon="-0.52333611"><ele>79.0</ele><time>2022-11-01T13:13:28.0000000+00:00</time></trkpt><trkpt lat="39.53500383" lon="-0.52340442"><ele>79.0</ele><time>2022-11-01T13:13:29.0000000+00:00</time></trkpt><trkpt lat="39.53499352" lon="-0.52347332"><ele>79.0</ele><time>2022-11-01T13:13:30.0000000+00:00</time></trkpt><trkpt lat="39.53498723" lon="-0.52354348"><ele>78.8</ele><time>2022-11-01T13:13:31.0000000+00:00</time></trkpt><trkpt lat="39.53497206" lon="-0.52359176"><ele>78.8</ele><time>2022-11-01T13:13:32.0000000+00:00</time></trkpt><trkpt lat="39.5349335" lon="-0.52361867"><ele>78.8</ele><time>2022-11-01T13:13:33.0000000+00:00</time></trkpt><trkpt lat="39.53488187" lon="-0.52364121"><ele>78.8</ele><time>2022-11-01T13:13:34.0000000+00:00</time></trkpt><trkpt lat="39.53480702" lon="-0.52361573"><ele>78.6</ele><time>2022-11-01T13:13:35.0000000+00:00</time></trkpt><trkpt lat="39.53475949" lon="-0.52359033"><ele>78.4</ele><time>2022-11-01T13:13:36.0000000+00:00</time></trkpt><trkpt lat="39.53468934" lon="-0.52356309"><ele>78.4</ele><time>2022-11-01T13:13:37.0000000+00:00</time></trkpt><trkpt lat="39.53462564" lon="-0.52353585"><ele>78.4</ele><time>2022-11-01T13:13:38.0000000+00:00</time></trkpt><trkpt lat="39.53457736" lon="-0.52350953"><ele>78.2</ele><time>2022-11-01T13:13:39.0000000+00:00</time></trkpt><trkpt lat="39.53451776" lon="-0.52348087"><ele>78.2</ele><time>2022-11-01T13:13:40.0000000+00:00</time></trkpt><trkpt lat="39.53445548" lon="-0.5234553"><ele>78.0</ele><time>2022-11-01T13:13:41.0000000+00:00</time></trkpt><trkpt lat="39.53439237" lon="-0.52343032"><ele>78.0</ele><time>2022-11-01T13:13:42.0000000+00:00</time></trkpt><trkpt lat="39.53432699" lon="-0.52340291"><ele>77.8</ele><time>2022-11-01T13:13:43.0000000+00:00</time></trkpt><trkpt lat="39.53424971" lon="-0.52337383"><ele>77.8</ele><time>2022-11-01T13:13:44.0000000+00:00</time></trkpt><trkpt lat="39.53418617" lon="-0.52335564"><ele>77.6</ele><time>2022-11-01T13:13:45.0000000+00:00</time></trkpt><trkpt lat="39.53412448" lon="-0.52333796"><ele>77.6</ele><time>2022-11-01T13:13:46.0000000+00:00</time></trkpt><trkpt lat="39.53407402" lon="-0.52332387"><ele>77.6</ele><time>2022-11-01T13:13:47.0000000+00:00</time></trkpt><trkpt lat="39.53401568" lon="-0.52330133"><ele>77.6</ele><time>2022-11-01T13:13:48.0000000+00:00</time></trkpt><trkpt lat="39.53395785" lon="-0.52327978"><ele>77.6</ele><time>2022-11-01T13:13:49.0000000+00:00</time></trkpt><trkpt lat="39.53389926" lon="-0.52325917"><ele>77.6</ele><time>2022-11-01T13:13:50.0000000+00:00</time></trkpt><trkpt lat="39.53383262" lon="-0.52323293"><ele>77.6</ele><time>2022-11-01T13:13:51.0000000+00:00</time></trkpt><trkpt lat="39.53377697" lon="-0.52321181"><ele>77.6</ele><time>2022-11-01T13:13:52.0000000+00:00</time></trkpt><trkpt lat="39.53372047" lon="-0.5231927"><ele>77.6</ele><time>2022-11-01T13:13:53.0000000+00:00</time></trkpt><trkpt lat="39.53366457" lon="-0.52317468"><ele>77.6</ele><time>2022-11-01T13:13:54.0000000+00:00</time></trkpt><trkpt lat="39.53360799" lon="-0.52315875"><ele>77.6</ele><time>2022-11-01T13:13:55.0000000+00:00</time></trkpt><trkpt lat="39.53355133" lon="-0.52314014"><ele>77.6</ele><time>2022-11-01T13:13:56.0000000+00:00</time></trkpt><trkpt lat="39.53349601" lon="-0.52311835"><ele>77.6</ele><time>2022-11-01T13:13:57.0000000+00:00</time></trkpt><trkpt lat="39.53344747" lon="-0.52309589"><ele>77.8</ele><time>2022-11-01T13:13:58.0000000+00:00</time></trkpt><trkpt lat="39.53339576" lon="-0.5230746"><ele>77.8</ele><time>2022-11-01T13:13:59.0000000+00:00</time></trkpt><trkpt lat="39.53334614" lon="-0.52304979"><ele>77.8</ele><time>2022-11-01T13:14:00.0000000+00:00</time></trkpt><trkpt lat="39.53330264" lon="-0.52303042"><ele>77.6</ele><time>2022-11-01T13:14:01.0000000+00:00</time></trkpt><trkpt lat="39.53323608" lon="-0.52300813"><ele>77.6</ele><time>2022-11-01T13:14:02.0000000+00:00</time></trkpt><trkpt lat="39.53319225" lon="-0.523"><ele>77.6</ele><time>2022-11-01T13:14:03.0000000+00:00</time></trkpt><trkpt lat="39.53312804" lon="-0.52299086"><ele>77.6</ele><time>2022-11-01T13:14:04.0000000+00:00</time></trkpt><trkpt lat="39.53307121" lon="-0.52298256"><ele>77.6</ele><time>2022-11-01T13:14:05.0000000+00:00</time></trkpt><trkpt lat="39.53301455" lon="-0.5229694"><ele>77.8</ele><time>2022-11-01T13:14:06.0000000+00:00</time></trkpt><trkpt lat="39.53296091" lon="-0.52295532"><ele>77.8</ele><time>2022-11-01T13:14:07.0000000+00:00</time></trkpt><trkpt lat="39.53291975" lon="-0.52294283"><ele>77.8</ele><time>2022-11-01T13:14:08.0000000+00:00</time></trkpt><trkpt lat="39.5328532" lon="-0.52292255"><ele>77.8</ele><time>2022-11-01T13:14:09.0000000+00:00</time></trkpt><trkpt lat="39.53280701" lon="-0.52290729"><ele>77.8</ele><time>2022-11-01T13:14:10.0000000+00:00</time></trkpt><trkpt lat="39.5327527" lon="-0.52288718"><ele>77.8</ele><time>2022-11-01T13:14:11.0000000+00:00</time></trkpt><trkpt lat="39.53270266" lon="-0.52286748"><ele>77.8</ele><time>2022-11-01T13:14:12.0000000+00:00</time></trkpt><trkpt lat="39.53265161" lon="-0.52284686"><ele>77.8</ele><time>2022-11-01T13:14:13.0000000+00:00</time></trkpt><trkpt lat="39.53259923" lon="-0.52282817"><ele>77.8</ele><time>2022-11-01T13:14:14.0000000+00:00</time></trkpt><trkpt lat="39.53254466" lon="-0.52281241"><ele>77.8</ele><time>2022-11-01T13:14:15.0000000+00:00</time></trkpt><trkpt lat="39.53247677" lon="-0.52279598"><ele>78.0</ele><time>2022-11-01T13:14:16.0000000+00:00</time></trkpt><trkpt lat="39.53242262" lon="-0.52277905"><ele>78.0</ele><time>2022-11-01T13:14:17.0000000+00:00</time></trkpt><trkpt lat="39.53236889" lon="-0.5227622"><ele>77.8</ele><time>2022-11-01T13:14:18.0000000+00:00</time></trkpt><trkpt lat="39.53231449" lon="-0.52274385"><ele>77.8</ele><time>2022-11-01T13:14:19.0000000+00:00</time></trkpt><trkpt lat="39.53225993" lon="-0.52272666"><ele>77.8</ele><time>2022-11-01T13:14:20.0000000+00:00</time></trkpt><trkpt lat="39.53221584" lon="-0.52271023"><ele>77.6</ele><time>2022-11-01T13:14:21.0000000+00:00</time></trkpt><trkpt lat="39.53215071" lon="-0.52268769"><ele>77.6</ele><time>2022-11-01T13:14:22.0000000+00:00</time></trkpt><trkpt lat="39.53209992" lon="-0.52266682"><ele>77.6</ele><time>2022-11-01T13:14:23.0000000+00:00</time></trkpt><trkpt lat="39.53204778" lon="-0.5226493"><ele>77.6</ele><time>2022-11-01T13:14:24.0000000+00:00</time></trkpt><trkpt lat="39.53199288" lon="-0.5226317"><ele>77.6</ele><time>2022-11-01T13:14:25.0000000+00:00</time></trkpt><trkpt lat="39.5319389" lon="-0.52261611"><ele>77.8</ele><time>2022-11-01T13:14:26.0000000+00:00</time></trkpt><trkpt lat="39.5318876" lon="-0.52260135"><ele>77.8</ele><time>2022-11-01T13:14:27.0000000+00:00</time></trkpt><trkpt lat="39.5318436" lon="-0.5225856"><ele>77.8</ele><time>2022-11-01T13:14:28.0000000+00:00</time></trkpt><trkpt lat="39.53180756" lon="-0.52256389"><ele>78.0</ele><time>2022-11-01T13:14:29.0000000+00:00</time></trkpt><trkpt lat="39.53177906" lon="-0.52253564"><ele>78.0</ele><time>2022-11-01T13:14:30.0000000+00:00</time></trkpt><trkpt lat="39.53176305" lon="-0.52250999"><ele>78.2</ele><time>2022-11-01T13:14:31.0000000+00:00</time></trkpt><trkpt lat="39.53175123" lon="-0.52247806"><ele>78.2</ele><time>2022-11-01T13:14:32.0000000+00:00</time></trkpt><trkpt lat="39.53174444" lon="-0.52244696"><ele>78.2</ele><time>2022-11-01T13:14:33.0000000+00:00</time></trkpt><trkpt lat="39.53174871" lon="-0.52241293"><ele>78.2</ele><time>2022-11-01T13:14:34.0000000+00:00</time></trkpt><trkpt lat="39.53175483" lon="-0.52238569"><ele>78.2</ele><time>2022-11-01T13:14:35.0000000+00:00</time></trkpt><trkpt lat="39.5317607" lon="-0.5223556"><ele>78.4</ele><time>2022-11-01T13:14:36.0000000+00:00</time></trkpt><trkpt lat="39.53175969" lon="-0.52233087"><ele>78.4</ele><time>2022-11-01T13:14:37.0000000+00:00</time></trkpt><trkpt lat="39.53175576" lon="-0.5223126"><ele>78.4</ele><time>2022-11-01T13:14:38.0000000+00:00</time></trkpt><trkpt lat="39.53175165" lon="-0.522296"><ele>78.4</ele><time>2022-11-01T13:14:39.0000000+00:00</time></trkpt><trkpt lat="39.53174662" lon="-0.52228192"><ele>78.6</ele><time>2022-11-01T13:14:40.0000000+00:00</time></trkpt><trkpt lat="39.53174293" lon="-0.52226683"><ele>78.6</ele><time>2022-11-01T13:14:41.0000000+00:00</time></trkpt><trkpt lat="39.5317426" lon="-0.52224856"><ele>78.6</ele><time>2022-11-01T13:14:42.0000000+00:00</time></trkpt><trkpt lat="39.53174855" lon="-0.52223582"><ele>78.6</ele><time>2022-11-01T13:14:43.0000000+00:00</time></trkpt><trkpt lat="39.53176137" lon="-0.52222224"><ele>78.6</ele><time>2022-11-01T13:14:44.0000000+00:00</time></trkpt><trkpt lat="39.53177537" lon="-0.52221268"><ele>78.6</ele><time>2022-11-01T13:14:45.0000000+00:00</time></trkpt><trkpt lat="39.5317835" lon="-0.52221537"><ele>78.6</ele><time>2022-11-01T13:14:46.0000000+00:00</time></trkpt><trkpt lat="39.53179557" lon="-0.52222727"><ele>78.6</ele><time>2022-11-01T13:14:47.0000000+00:00</time></trkpt><trkpt lat="39.53180051" lon="-0.52224504"><ele>78.6</ele><time>2022-11-01T13:14:48.0000000+00:00</time></trkpt><trkpt lat="39.5317975" lon="-0.52226298"><ele>78.6</ele><time>2022-11-01T13:14:49.0000000+00:00</time></trkpt><trkpt lat="39.5317918" lon="-0.5222779"><ele>78.4</ele><time>2022-11-01T13:14:50.0000000+00:00</time></trkpt><trkpt lat="39.53178107" lon="-0.52230757"><ele>78.4</ele><time>2022-11-01T13:14:51.0000000+00:00</time></trkpt><trkpt lat="39.53177411" lon="-0.52233296"><ele>78.4</ele><time>2022-11-01T13:14:52.0000000+00:00</time></trkpt><trkpt lat="39.53176548" lon="-0.52237135"><ele>78.4</ele><time>2022-11-01T13:14:53.0000000+00:00</time></trkpt><trkpt lat="39.53175928" lon="-0.52241955"><ele>78.4</ele><time>2022-11-01T13:14:54.0000000+00:00</time></trkpt><trkpt lat="39.53175777" lon="-0.52245241"><ele>78.2</ele><time>2022-11-01T13:14:55.0000000+00:00</time></trkpt><trkpt lat="39.53175726" lon="-0.52248811"><ele>78.2</ele><time>2022-11-01T13:14:56.0000000+00:00</time></trkpt><trkpt lat="39.53176062" lon="-0.52251636"><ele>78.0</ele><time>2022-11-01T13:14:57.0000000+00:00</time></trkpt><trkpt lat="39.53176707" lon="-0.52253757"><ele>77.8</ele><time>2022-11-01T13:14:58.0000000+00:00</time></trkpt><trkpt lat="39.53177176" lon="-0.52255634"><ele>77.8</ele><time>2022-11-01T13:14:59.0000000+00:00</time></trkpt><trkpt lat="39.53177503" lon="-0.5225752"><ele>77.6</ele><time>2022-11-01T13:15:00.0000000+00:00</time></trkpt><trkpt lat="39.53177621" lon="-0.52259347"><ele>77.4</ele><time>2022-11-01T13:15:01.0000000+00:00</time></trkpt><trkpt lat="39.53177696" lon="-0.52260043"><ele>77.2</ele><time>2022-11-01T13:15:02.0000000+00:00</time></trkpt><trkpt lat="39.53177696" lon="-0.52260043"><ele>77.2</ele><time>2022-11-01T13:15:03.0000000+00:00</time></trkpt><trkpt lat="39.53177696" lon="-0.52260043"><ele>77.0</ele><time>2022-11-01T13:15:04.0000000+00:00</time></trkpt><trkpt lat="39.53177696" lon="-0.52260043"><ele>77.0</ele><time>2022-11-01T13:15:05.0000000+00:00</time></trkpt><trkpt lat="39.53177696" lon="-0.52260043"><ele>77.0</ele><time>2022-11-01T13:15:06.0000000+00:00</time></trkpt><trkpt lat="39.53177696" lon="-0.52260043"><ele>77.0</ele><time>2022-11-01T13:15:07.0000000+00:00</time></trkpt><trkpt lat="39.53177696" lon="-0.52260043"><ele>77.0</ele><time>2022-11-01T13:15:08.0000000+00:00</time></trkpt><trkpt lat="39.53177696" lon="-0.52260043"><ele>77.0</ele><time>2022-11-01T13:15:09.0000000+00:00</time></trkpt><trkpt lat="39.53177696" lon="-0.52260043"><ele>77.0</ele><time>2022-11-01T13:15:10.0000000+00:00</time></trkpt><trkpt lat="39.53177696" lon="-0.52260043"><ele>77.2</ele><time>2022-11-01T13:15:11.0000000+00:00</time></trkpt><trkpt lat="39.53177696" lon="-0.52260043"><ele>77.2</ele><time>2022-11-01T13:15:12.0000000+00:00</time></trkpt><trkpt lat="39.53177696" lon="-0.52260043"><ele>77.2</ele><time>2022-11-01T13:15:13.0000000+00:00</time></trkpt><trkpt lat="39.53177696" lon="-0.52260043"><ele>77.4</ele><time>2022-11-01T13:15:14.0000000+00:00</time></trkpt><trkpt lat="39.53177696" lon="-0.52260043"><ele>77.4</ele><time>2022-11-01T13:15:15.0000000+00:00</time></trkpt><trkpt lat="39.53177696" lon="-0.52260043"><ele>77.4</ele><time>2022-11-01T13:15:16.0000000+00:00</time></trkpt><trkpt lat="39.53177872" lon="-0.52259817"><ele>77.4</ele><time>2022-11-01T13:15:17.0000000+00:00</time></trkpt><trkpt lat="39.5317809" lon="-0.52259683"><ele>77.4</ele><time>2022-11-01T13:15:18.0000000+00:00</time></trkpt><trkpt lat="39.5317809" lon="-0.52259683"><ele>77.4</ele><time>2022-11-01T13:15:19.0000000+00:00</time></trkpt><trkpt lat="39.5317809" lon="-0.52259683"><ele>77.4</ele><time>2022-11-01T13:15:20.0000000+00:00</time></trkpt><trkpt lat="39.5317809" lon="-0.52259683"><ele>77.4</ele><time>2022-11-01T13:15:21.0000000+00:00</time></trkpt><trkpt lat="39.5317809" lon="-0.52259683"><ele>77.2</ele><time>2022-11-01T13:15:22.0000000+00:00</time></trkpt><trkpt lat="39.5317809" lon="-0.52259683"><ele>77.0</ele><time>2022-11-01T13:15:23.0000000+00:00</time></trkpt><trkpt lat="39.5317809" lon="-0.52259683"><ele>77.0</ele><time>2022-11-01T13:15:24.0000000+00:00</time></trkpt><trkpt lat="39.5317809" lon="-0.52259683"><ele>76.8</ele><time>2022-11-01T13:15:25.0000000+00:00</time></trkpt><trkpt lat="39.5317809" lon="-0.52259683"><ele>76.8</ele><time>2022-11-01T13:15:26.0000000+00:00</time></trkpt><trkpt lat="39.5317809" lon="-0.52259683"><ele>76.8</ele><time>2022-11-01T13:15:27.0000000+00:00</time></trkpt><trkpt lat="39.5317809" lon="-0.52259683"><ele>76.8</ele><time>2022-11-01T13:15:28.0000000+00:00</time></trkpt><trkpt lat="39.5317809" lon="-0.52259683"><ele>76.8</ele><time>2022-11-01T13:15:29.0000000+00:00</time></trkpt><trkpt lat="39.5317809" lon="-0.52259683"><ele>76.8</ele><time>2022-11-01T13:15:30.0000000+00:00</time></trkpt><trkpt lat="39.5317809" lon="-0.52259683"><ele>76.6</ele><time>2022-11-01T13:15:31.0000000+00:00</time></trkpt><trkpt lat="39.5317809" lon="-0.52259683"><ele>76.6</ele><time>2022-11-01T13:15:32.0000000+00:00</time></trkpt><trkpt lat="39.5317809" lon="-0.52259683"><ele>76.6</ele><time>2022-11-01T13:15:33.0000000+00:00</time></trkpt><trkpt lat="39.5317809" lon="-0.52259683"><ele>76.6</ele><time>2022-11-01T13:15:34.0000000+00:00</time></trkpt><trkpt lat="39.5317809" lon="-0.52259683"><ele>76.6</ele><time>2022-11-01T13:15:35.0000000+00:00</time></trkpt><trkpt lat="39.5317809" lon="-0.52259683"><ele>76.6</ele><time>2022-11-01T13:15:36.0000000+00:00</time></trkpt><trkpt lat="39.5317809" lon="-0.52259683"><ele>76.6</ele><time>2022-11-01T13:15:37.0000000+00:00</time></trkpt><trkpt lat="39.5317809" lon="-0.52259683"><ele>76.6</ele><time>2022-11-01T13:15:38.0000000+00:00</time></trkpt><trkpt lat="39.5317809" lon="-0.52259683"><ele>76.8</ele><time>2022-11-01T13:15:39.0000000+00:00</time></trkpt><trkpt lat="39.5317809" lon="-0.52259683"><ele>76.6</ele><time>2022-11-01T13:15:40.0000000+00:00</time></trkpt><trkpt lat="39.5317809" lon="-0.52259683"><ele>76.6</ele><time>2022-11-01T13:15:41.0000000+00:00</time></trkpt><trkpt lat="39.5317809" lon="-0.52259683"><ele>76.6</ele><time>2022-11-01T13:15:42.0000000+00:00</time></trkpt><trkpt lat="39.5317809" lon="-0.52259683"><ele>76.6</ele><time>2022-11-01T13:15:43.0000000+00:00</time></trkpt><trkpt lat="39.5317809" lon="-0.52259683"><ele>76.6</ele><time>2022-11-01T13:15:44.0000000+00:00</time></trkpt><trkpt lat="39.5317809" lon="-0.52259683"><ele>76.6</ele><time>2022-11-01T13:15:45.0000000+00:00</time></trkpt><trkpt lat="39.5317809" lon="-0.52259683"><ele>76.6</ele><time>2022-11-01T13:15:46.0000000+00:00</time></trkpt><trkpt lat="39.53178333" lon="-0.52259741"><ele>76.6</ele><time>2022-11-01T13:15:47.0000000+00:00</time></trkpt><trkpt lat="39.53179222" lon="-0.52260177"><ele>76.6</ele><time>2022-11-01T13:15:48.0000000+00:00</time></trkpt><trkpt lat="39.53180093" lon="-0.52260462"><ele>76.6</ele><time>2022-11-01T13:15:49.0000000+00:00</time></trkpt><trkpt lat="39.53181158" lon="-0.52260353"><ele>76.6</ele><time>2022-11-01T13:15:50.0000000+00:00</time></trkpt><trkpt lat="39.53182147" lon="-0.52259951"><ele>76.8</ele><time>2022-11-01T13:15:51.0000000+00:00</time></trkpt><trkpt lat="39.53183086" lon="-0.52259708"><ele>76.8</ele><time>2022-11-01T13:15:52.0000000+00:00</time></trkpt><trkpt lat="39.53184385" lon="-0.52259909"><ele>76.8</ele><time>2022-11-01T13:15:53.0000000+00:00</time></trkpt><trkpt lat="39.53185743" lon="-0.52259917"><ele>76.6</ele><time>2022-11-01T13:15:54.0000000+00:00</time></trkpt><trkpt lat="39.53186346" lon="-0.52260035"><ele>76.6</ele><time>2022-11-01T13:15:55.0000000+00:00</time></trkpt><trkpt lat="39.53186346" lon="-0.52260035"><ele>76.6</ele><time>2022-11-01T13:15:56.0000000+00:00</time></trkpt><trkpt lat="39.5318612" lon="-0.52259884"><ele>76.6</ele><time>2022-11-01T13:15:57.0000000+00:00</time></trkpt><trkpt lat="39.53185542" lon="-0.52259347"><ele>76.6</ele><time>2022-11-01T13:15:58.0000000+00:00</time></trkpt><trkpt lat="39.53184578" lon="-0.52258945"><ele>76.6</ele><time>2022-11-01T13:15:59.0000000+00:00</time></trkpt><trkpt lat="39.53183094" lon="-0.52258534"><ele>76.4</ele><time>2022-11-01T13:16:00.0000000+00:00</time></trkpt><trkpt lat="39.53181502" lon="-0.52258752"><ele>76.4</ele><time>2022-11-01T13:16:01.0000000+00:00</time></trkpt><trkpt lat="39.53180429" lon="-0.52259398"><ele>76.2</ele><time>2022-11-01T13:16:02.0000000+00:00</time></trkpt><trkpt lat="39.53179381" lon="-0.52259733"><ele>76.2</ele><time>2022-11-01T13:16:03.0000000+00:00</time></trkpt><trkpt lat="39.53178216" lon="-0.52260035"><ele>76.2</ele><time>2022-11-01T13:16:04.0000000+00:00</time></trkpt><trkpt lat="39.53177478" lon="-0.52260311"><ele>76.2</ele><time>2022-11-01T13:16:05.0000000+00:00</time></trkpt><trkpt lat="39.53176615" lon="-0.52260479"><ele>76.2</ele><time>2022-11-01T13:16:06.0000000+00:00</time></trkpt><trkpt lat="39.53175659" lon="-0.52260689"><ele>76.2</ele><time>2022-11-01T13:16:07.0000000+00:00</time></trkpt><trkpt lat="39.53174813" lon="-0.52260873"><ele>76.2</ele><time>2022-11-01T13:16:08.0000000+00:00</time></trkpt><trkpt lat="39.53173874" lon="-0.52261024"><ele>76.0</ele><time>2022-11-01T13:16:09.0000000+00:00</time></trkpt><trkpt lat="39.53172986" lon="-0.52261024"><ele>76.0</ele><time>2022-11-01T13:16:10.0000000+00:00</time></trkpt><trkpt lat="39.53171779" lon="-0.52261057"><ele>76.0</ele><time>2022-11-01T13:16:11.0000000+00:00</time></trkpt><trkpt lat="39.53170689" lon="-0.52260915"><ele>75.8</ele><time>2022-11-01T13:16:12.0000000+00:00</time></trkpt><trkpt lat="39.53170127" lon="-0.52260823"><ele>75.8</ele><time>2022-11-01T13:16:13.0000000+00:00</time></trkpt><trkpt lat="39.53170127" lon="-0.52260823"><ele>75.6</ele><time>2022-11-01T13:16:14.0000000+00:00</time></trkpt><trkpt lat="39.53170127" lon="-0.52260823"><ele>75.6</ele><time>2022-11-01T13:16:15.0000000+00:00</time></trkpt><trkpt lat="39.53170127" lon="-0.52260823"><ele>75.4</ele><time>2022-11-01T13:16:16.0000000+00:00</time></trkpt><trkpt lat="39.53170127" lon="-0.52260823"><ele>75.4</ele><time>2022-11-01T13:16:17.0000000+00:00</time></trkpt><trkpt lat="39.53170127" lon="-0.52260823"><ele>75.4</ele><time>2022-11-01T13:16:18.0000000+00:00</time></trkpt><trkpt lat="39.53170127" lon="-0.52260823"><ele>75.4</ele><time>2022-11-01T13:16:19.0000000+00:00</time></trkpt><trkpt lat="39.53170127" lon="-0.52260823"><ele>75.4</ele><time>2022-11-01T13:16:20.0000000+00:00</time></trkpt><trkpt lat="39.53170127" lon="-0.52260823"><ele>75.4</ele><time>2022-11-01T13:16:21.0000000+00:00</time></trkpt><trkpt lat="39.53170127" lon="-0.52260823"><ele>75.4</ele><time>2022-11-01T13:16:22.0000000+00:00</time></trkpt><trkpt lat="39.53170127" lon="-0.52260823"><ele>75.2</ele><time>2022-11-01T13:16:23.0000000+00:00</time></trkpt><trkpt lat="39.53170127" lon="-0.52260823"><ele>75.2</ele><time>2022-11-01T13:16:24.0000000+00:00</time></trkpt><trkpt lat="39.53170127" lon="-0.52260823"><ele>75.2</ele><time>2022-11-01T13:16:25.0000000+00:00</time></trkpt><trkpt lat="39.53170127" lon="-0.52260823"><ele>75.2</ele><time>2022-11-01T13:16:26.0000000+00:00</time></trkpt><trkpt lat="39.53170127" lon="-0.52260823"><ele>75.2</ele><time>2022-11-01T13:16:27.0000000+00:00</time></trkpt><trkpt lat="39.53170127" lon="-0.52260823"><ele>75.2</ele><time>2022-11-01T13:16:28.0000000+00:00</time></trkpt><trkpt lat="39.53170127" lon="-0.52260823"><ele>75.2</ele><time>2022-11-01T13:16:29.0000000+00:00</time></trkpt><trkpt lat="39.53170127" lon="-0.52260823"><ele>75.2</ele><time>2022-11-01T13:16:30.0000000+00:00</time></trkpt><trkpt lat="39.53170127" lon="-0.52260823"><ele>75.2</ele><time>2022-11-01T13:16:31.0000000+00:00</time></trkpt><trkpt lat="39.53170127" lon="-0.52260823"><ele>75.2</ele><time>2022-11-01T13:16:32.0000000+00:00</time></trkpt><trkpt lat="39.53170127" lon="-0.52260823"><ele>75.2</ele><time>2022-11-01T13:16:33.0000000+00:00</time></trkpt><trkpt lat="39.53170127" lon="-0.52260823"><ele>75.2</ele><time>2022-11-01T13:16:34.0000000+00:00</time></trkpt><trkpt lat="39.53170127" lon="-0.52260823"><ele>75.2</ele><time>2022-11-01T13:16:35.0000000+00:00</time></trkpt><trkpt lat="39.53170127" lon="-0.52260823"><ele>75.2</ele><time>2022-11-01T13:16:36.0000000+00:00</time></trkpt><trkpt lat="39.53170127" lon="-0.52260823"><ele>75.2</ele><time>2022-11-01T13:16:37.0000000+00:00</time></trkpt><trkpt lat="39.53170127" lon="-0.52260823"><ele>75.2</ele><time>2022-11-01T13:16:38.0000000+00:00</time></trkpt><trkpt lat="39.53170127" lon="-0.52260823"><ele>75.2</ele><time>2022-11-01T13:16:39.0000000+00:00</time></trkpt><trkpt lat="39.53170127" lon="-0.52260823"><ele>75.2</ele><time>2022-11-01T13:16:40.0000000+00:00</time></trkpt><trkpt lat="39.53170127" lon="-0.52260823"><ele>75.2</ele><time>2022-11-01T13:16:41.0000000+00:00</time></trkpt><trkpt lat="39.53170488" lon="-0.52261124"><ele>75.2</ele><time>2022-11-01T13:16:42.0000000+00:00</time></trkpt><trkpt lat="39.53171829" lon="-0.52261259"><ele>75.4</ele><time>2022-11-01T13:16:43.0000000+00:00</time></trkpt><trkpt lat="39.53173187" lon="-0.52261208"><ele>75.6</ele><time>2022-11-01T13:16:44.0000000+00:00</time></trkpt><trkpt lat="39.53173924" lon="-0.52261426"><ele>75.6</ele><time>2022-11-01T13:16:45.0000000+00:00</time></trkpt><trkpt lat="39.53174402" lon="-0.52261116"><ele>75.8</ele><time>2022-11-01T13:16:46.0000000+00:00</time></trkpt><trkpt lat="39.53174846" lon="-0.52260311"><ele>75.8</ele><time>2022-11-01T13:16:47.0000000+00:00</time></trkpt><trkpt lat="39.53174922" lon="-0.52259406"><ele>76.0</ele><time>2022-11-01T13:16:48.0000000+00:00</time></trkpt><trkpt lat="39.53174897" lon="-0.52258593"><ele>76.0</ele><time>2022-11-01T13:16:49.0000000+00:00</time></trkpt><trkpt lat="39.53174737" lon="-0.52257545"><ele>76.0</ele><time>2022-11-01T13:16:50.0000000+00:00</time></trkpt><trkpt lat="39.53174746" lon="-0.5225602"><ele>76.2</ele><time>2022-11-01T13:16:51.0000000+00:00</time></trkpt><trkpt lat="39.53175014" lon="-0.52254134"><ele>76.2</ele><time>2022-11-01T13:16:52.0000000+00:00</time></trkpt><trkpt lat="39.53174888" lon="-0.52252977"><ele>76.2</ele><time>2022-11-01T13:16:53.0000000+00:00</time></trkpt><trkpt lat="39.53174519" lon="-0.52251846"><ele>76.2</ele><time>2022-11-01T13:16:54.0000000+00:00</time></trkpt><trkpt lat="39.53174218" lon="-0.52250781"><ele>76.4</ele><time>2022-11-01T13:16:55.0000000+00:00</time></trkpt><trkpt lat="39.53174092" lon="-0.5224975"><ele>76.4</ele><time>2022-11-01T13:16:56.0000000+00:00</time></trkpt><trkpt lat="39.53174109" lon="-0.52248501"><ele>76.4</ele><time>2022-11-01T13:16:57.0000000+00:00</time></trkpt><trkpt lat="39.53174201" lon="-0.52247487"><ele>76.4</ele><time>2022-11-01T13:16:58.0000000+00:00</time></trkpt><trkpt lat="39.53174385" lon="-0.52246171"><ele>76.6</ele><time>2022-11-01T13:16:59.0000000+00:00</time></trkpt><trkpt lat="39.53174419" lon="-0.52245073"><ele>76.6</ele><time>2022-11-01T13:17:00.0000000+00:00</time></trkpt><trkpt lat="39.53174503" lon="-0.52244168"><ele>76.6</ele><time>2022-11-01T13:17:01.0000000+00:00</time></trkpt><trkpt lat="39.53174528" lon="-0.52242877"><ele>76.8</ele><time>2022-11-01T13:17:02.0000000+00:00</time></trkpt><trkpt lat="39.53174662" lon="-0.52241251"><ele>77.0</ele><time>2022-11-01T13:17:03.0000000+00:00</time></trkpt><trkpt lat="39.53174536" lon="-0.52240404"><ele>77.0</ele><time>2022-11-01T13:17:04.0000000+00:00</time></trkpt><trkpt lat="39.5317483" lon="-0.5223913"><ele>77.2</ele><time>2022-11-01T13:17:05.0000000+00:00</time></trkpt><trkpt lat="39.53175508" lon="-0.52238108"><ele>77.2</ele><time>2022-11-01T13:17:06.0000000+00:00</time></trkpt><trkpt lat="39.53175827" lon="-0.52236817"><ele>77.2</ele><time>2022-11-01T13:17:07.0000000+00:00</time></trkpt><trkpt lat="39.53176028" lon="-0.52235727"><ele>77.2</ele><time>2022-11-01T13:17:08.0000000+00:00</time></trkpt><trkpt lat="39.53176305" lon="-0.52234755"><ele>77.4</ele><time>2022-11-01T13:17:09.0000000+00:00</time></trkpt><trkpt lat="39.53176305" lon="-0.52234462"><ele>77.4</ele><time>2022-11-01T13:17:10.0000000+00:00</time></trkpt><trkpt lat="39.53176305" lon="-0.52234462"><ele>77.4</ele><time>2022-11-01T13:17:11.0000000+00:00</time></trkpt><trkpt lat="39.53176305" lon="-0.52234462"><ele>77.4</ele><time>2022-11-01T13:17:12.0000000+00:00</time></trkpt><trkpt lat="39.53176305" lon="-0.52234462"><ele>77.4</ele><time>2022-11-01T13:17:13.0000000+00:00</time></trkpt><trkpt lat="39.53176305" lon="-0.52234462"><ele>77.6</ele><time>2022-11-01T13:17:14.0000000+00:00</time></trkpt><trkpt lat="39.53176305" lon="-0.52234462"><ele>77.6</ele><time>2022-11-01T13:17:15.0000000+00:00</time></trkpt><trkpt lat="39.53176305" lon="-0.52234462"><ele>77.4</ele><time>2022-11-01T13:17:16.0000000+00:00</time></trkpt><trkpt lat="39.53176305" lon="-0.52234462"><ele>77.4</ele><time>2022-11-01T13:17:17.0000000+00:00</time></trkpt><trkpt lat="39.53176363" lon="-0.52234872"><ele>77.6</ele><time>2022-11-01T13:17:18.0000000+00:00</time></trkpt><trkpt lat="39.53176556" lon="-0.5223649"><ele>77.4</ele><time>2022-11-01T13:17:19.0000000+00:00</time></trkpt><trkpt lat="39.53176523" lon="-0.52238326"><ele>77.4</ele><time>2022-11-01T13:17:20.0000000+00:00</time></trkpt><trkpt lat="39.53176489" lon="-0.52240631"><ele>77.4</ele><time>2022-11-01T13:17:21.0000000+00:00</time></trkpt><trkpt lat="39.5317633" lon="-0.52243757"><ele>77.4</ele><time>2022-11-01T13:17:22.0000000+00:00</time></trkpt><trkpt lat="39.53176707" lon="-0.52247722"><ele>77.4</ele><time>2022-11-01T13:17:23.0000000+00:00</time></trkpt><trkpt lat="39.53177562" lon="-0.52251276"><ele>77.4</ele><time>2022-11-01T13:17:24.0000000+00:00</time></trkpt><trkpt lat="39.53178886" lon="-0.52254343"><ele>77.4</ele><time>2022-11-01T13:17:25.0000000+00:00</time></trkpt><trkpt lat="39.5318156" lon="-0.52256959"><ele>77.4</ele><time>2022-11-01T13:17:26.0000000+00:00</time></trkpt><trkpt lat="39.53184988" lon="-0.5225887"><ele>77.2</ele><time>2022-11-01T13:17:27.0000000+00:00</time></trkpt><trkpt lat="39.53189179" lon="-0.52260554"><ele>77.2</ele><time>2022-11-01T13:17:28.0000000+00:00</time></trkpt><trkpt lat="39.53193999" lon="-0.52261996"><ele>77.0</ele><time>2022-11-01T13:17:29.0000000+00:00</time></trkpt><trkpt lat="39.53198835" lon="-0.52263153"><ele>77.0</ele><time>2022-11-01T13:17:30.0000000+00:00</time></trkpt><trkpt lat="39.53202481" lon="-0.52264553"><ele>76.8</ele><time>2022-11-01T13:17:31.0000000+00:00</time></trkpt><trkpt lat="39.53208139" lon="-0.52266606"><ele>76.8</ele><time>2022-11-01T13:17:32.0000000+00:00</time></trkpt><trkpt lat="39.53212942" lon="-0.52268216"><ele>76.6</ele><time>2022-11-01T13:17:33.0000000+00:00</time></trkpt><trkpt lat="39.53216949" lon="-0.52269741"><ele>76.6</ele><time>2022-11-01T13:17:34.0000000+00:00</time></trkpt><trkpt lat="39.5322238" lon="-0.5227182"><ele>76.6</ele><time>2022-11-01T13:17:35.0000000+00:00</time></trkpt><trkpt lat="39.53225968" lon="-0.52273655"><ele>76.6</ele><time>2022-11-01T13:17:36.0000000+00:00</time></trkpt><trkpt lat="39.53229521" lon="-0.52275826"><ele>76.6</ele><time>2022-11-01T13:17:37.0000000+00:00</time></trkpt><trkpt lat="39.53231885" lon="-0.5227684"><ele>76.6</ele><time>2022-11-01T13:17:38.0000000+00:00</time></trkpt><trkpt lat="39.5323559" lon="-0.52277075"><ele>76.6</ele><time>2022-11-01T13:17:39.0000000+00:00</time></trkpt><trkpt lat="39.53238901" lon="-0.52277335"><ele>76.6</ele><time>2022-11-01T13:17:40.0000000+00:00</time></trkpt><trkpt lat="39.53242187" lon="-0.5227845"><ele>76.6</ele><time>2022-11-01T13:17:41.0000000+00:00</time></trkpt><trkpt lat="39.53244902" lon="-0.52279254"><ele>76.6</ele><time>2022-11-01T13:17:42.0000000+00:00</time></trkpt><trkpt lat="39.53248272" lon="-0.52280721"><ele>76.6</ele><time>2022-11-01T13:17:43.0000000+00:00</time></trkpt><trkpt lat="39.53251666" lon="-0.52282205"><ele>76.6</ele><time>2022-11-01T13:17:44.0000000+00:00</time></trkpt><trkpt lat="39.53255413" lon="-0.52283253"><ele>76.6</ele><time>2022-11-01T13:17:45.0000000+00:00</time></trkpt><trkpt lat="39.53259118" lon="-0.522843"><ele>76.6</ele><time>2022-11-01T13:17:46.0000000+00:00</time></trkpt><trkpt lat="39.53262974" lon="-0.52285474"><ele>76.6</ele><time>2022-11-01T13:17:47.0000000+00:00</time></trkpt><trkpt lat="39.53268296" lon="-0.52286346"><ele>76.6</ele><time>2022-11-01T13:17:48.0000000+00:00</time></trkpt><trkpt lat="39.53271649" lon="-0.52287402"><ele>76.6</ele><time>2022-11-01T13:17:49.0000000+00:00</time></trkpt><trkpt lat="39.53276745" lon="-0.52288684"><ele>76.6</ele><time>2022-11-01T13:17:50.0000000+00:00</time></trkpt><trkpt lat="39.53281305" lon="-0.52289313"><ele>76.8</ele><time>2022-11-01T13:17:51.0000000+00:00</time></trkpt><trkpt lat="39.53285513" lon="-0.52290369"><ele>76.6</ele><time>2022-11-01T13:17:52.0000000+00:00</time></trkpt><trkpt lat="39.53289444" lon="-0.52291509"><ele>76.6</ele><time>2022-11-01T13:17:53.0000000+00:00</time></trkpt><trkpt lat="39.53293065" lon="-0.52292816"><ele>76.6</ele><time>2022-11-01T13:17:54.0000000+00:00</time></trkpt><trkpt lat="39.5329568" lon="-0.52293688"><ele>76.6</ele><time>2022-11-01T13:17:55.0000000+00:00</time></trkpt><trkpt lat="39.53298152" lon="-0.52294484"><ele>76.6</ele><time>2022-11-01T13:17:56.0000000+00:00</time></trkpt><trkpt lat="39.53300449" lon="-0.52295272"><ele>76.6</ele><time>2022-11-01T13:17:57.0000000+00:00</time></trkpt><trkpt lat="39.53301782" lon="-0.52296362"><ele>76.6</ele><time>2022-11-01T13:17:58.0000000+00:00</time></trkpt><trkpt lat="39.53302109" lon="-0.5229782"><ele>76.4</ele><time>2022-11-01T13:17:59.0000000+00:00</time></trkpt><trkpt lat="39.53301673" lon="-0.52298751"><ele>76.4</ele><time>2022-11-01T13:18:00.0000000+00:00</time></trkpt><trkpt lat="39.53300902" lon="-0.52299229"><ele>76.4</ele><time>2022-11-01T13:18:01.0000000+00:00</time></trkpt><trkpt lat="39.53299385" lon="-0.52298985"><ele>76.2</ele><time>2022-11-01T13:18:02.0000000+00:00</time></trkpt><trkpt lat="39.53297272" lon="-0.52298139"><ele>76.2</ele><time>2022-11-01T13:18:03.0000000+00:00</time></trkpt><trkpt lat="39.53294884" lon="-0.52296806"><ele>76.2</ele><time>2022-11-01T13:18:04.0000000+00:00</time></trkpt><trkpt lat="39.53292118" lon="-0.52295256"><ele>76.4</ele><time>2022-11-01T13:18:05.0000000+00:00</time></trkpt><trkpt lat="39.53289066" lon="-0.52293638"><ele>76.6</ele><time>2022-11-01T13:18:06.0000000+00:00</time></trkpt><trkpt lat="39.53284783" lon="-0.52292087"><ele>76.6</ele><time>2022-11-01T13:18:07.0000000+00:00</time></trkpt><trkpt lat="39.53280961" lon="-0.52290821"><ele>76.8</ele><time>2022-11-01T13:18:08.0000000+00:00</time></trkpt><trkpt lat="39.53277759" lon="-0.52290017"><ele>76.8</ele><time>2022-11-01T13:18:09.0000000+00:00</time></trkpt><trkpt lat="39.53273476" lon="-0.52288902"><ele>76.8</ele><time>2022-11-01T13:18:10.0000000+00:00</time></trkpt><trkpt lat="39.5326926" lon="-0.52287628"><ele>76.8</ele><time>2022-11-01T13:18:11.0000000+00:00</time></trkpt><trkpt lat="39.53265002" lon="-0.52286136"><ele>76.8</ele><time>2022-11-01T13:18:12.0000000+00:00</time></trkpt><trkpt lat="39.53260459" lon="-0.52284468"><ele>76.8</ele><time>2022-11-01T13:18:13.0000000+00:00</time></trkpt><trkpt lat="39.53255916" lon="-0.52282859"><ele>76.8</ele><time>2022-11-01T13:18:14.0000000+00:00</time></trkpt><trkpt lat="39.53251088" lon="-0.52281576"><ele>77.0</ele><time>2022-11-01T13:18:15.0000000+00:00</time></trkpt><trkpt lat="39.53246243" lon="-0.52280353"><ele>77.0</ele><time>2022-11-01T13:18:16.0000000+00:00</time></trkpt><trkpt lat="39.53241566" lon="-0.52279179"><ele>77.0</ele><time>2022-11-01T13:18:17.0000000+00:00</time></trkpt><trkpt lat="39.53237392" lon="-0.5227798"><ele>77.0</ele><time>2022-11-01T13:18:18.0000000+00:00</time></trkpt><trkpt lat="39.53233494" lon="-0.52276706"><ele>77.0</ele><time>2022-11-01T13:18:19.0000000+00:00</time></trkpt><trkpt lat="39.53229815" lon="-0.52274594"><ele>77.0</ele><time>2022-11-01T13:18:20.0000000+00:00</time></trkpt><trkpt lat="39.53225666" lon="-0.52272909"><ele>77.0</ele><time>2022-11-01T13:18:21.0000000+00:00</time></trkpt><trkpt lat="39.53223302" lon="-0.52272733"><ele>76.8</ele><time>2022-11-01T13:18:22.0000000+00:00</time></trkpt><trkpt lat="39.53220503" lon="-0.52273169"><ele>76.8</ele><time>2022-11-01T13:18:23.0000000+00:00</time></trkpt><trkpt lat="39.53219153" lon="-0.52273873"><ele>76.8</ele><time>2022-11-01T13:18:24.0000000+00:00</time></trkpt><trkpt lat="39.53218491" lon="-0.5227394"><ele>76.6</ele><time>2022-11-01T13:18:25.0000000+00:00</time></trkpt><trkpt lat="39.53218139" lon="-0.52273865"><ele>76.6</ele><time>2022-11-01T13:18:26.0000000+00:00</time></trkpt><trkpt lat="39.53218374" lon="-0.52273781"><ele>76.4</ele><time>2022-11-01T13:18:27.0000000+00:00</time></trkpt><trkpt lat="39.53219002" lon="-0.52273823"><ele>76.4</ele><time>2022-11-01T13:18:28.0000000+00:00</time></trkpt><trkpt lat="39.53219329" lon="-0.52274426"><ele>76.2</ele><time>2022-11-01T13:18:29.0000000+00:00</time></trkpt><trkpt lat="39.53219312" lon="-0.52274804"><ele>76.2</ele><time>2022-11-01T13:18:30.0000000+00:00</time></trkpt><trkpt lat="39.53219312" lon="-0.52274804"><ele>76.2</ele><time>2022-11-01T13:18:31.0000000+00:00</time></trkpt><trkpt lat="39.53219312" lon="-0.52274804"><ele>76.2</ele><time>2022-11-01T13:18:32.0000000+00:00</time></trkpt><trkpt lat="39.53219312" lon="-0.52274804"><ele>76.0</ele><time>2022-11-01T13:18:33.0000000+00:00</time></trkpt><trkpt lat="39.53219052" lon="-0.52274468"><ele>76.0</ele><time>2022-11-01T13:18:34.0000000+00:00</time></trkpt><trkpt lat="39.53218826" lon="-0.52273697"><ele>76.0</ele><time>2022-11-01T13:18:35.0000000+00:00</time></trkpt><trkpt lat="39.53218617" lon="-0.52272834"><ele>76.0</ele><time>2022-11-01T13:18:36.0000000+00:00</time></trkpt><trkpt lat="39.53218105" lon="-0.52272197"><ele>76.0</ele><time>2022-11-01T13:18:37.0000000+00:00</time></trkpt><trkpt lat="39.53217426" lon="-0.52271987"><ele>76.0</ele><time>2022-11-01T13:18:38.0000000+00:00</time></trkpt><trkpt lat="39.53215733" lon="-0.52271099"><ele>76.0</ele><time>2022-11-01T13:18:39.0000000+00:00</time></trkpt><trkpt lat="39.532144" lon="-0.52270127"><ele>76.0</ele><time>2022-11-01T13:18:40.0000000+00:00</time></trkpt><trkpt lat="39.5321316" lon="-0.52269406"><ele>76.0</ele><time>2022-11-01T13:18:41.0000000+00:00</time></trkpt><trkpt lat="39.53211961" lon="-0.52268668"><ele>76.0</ele><time>2022-11-01T13:18:42.0000000+00:00</time></trkpt><trkpt lat="39.53210536" lon="-0.52268232"><ele>76.0</ele><time>2022-11-01T13:18:43.0000000+00:00</time></trkpt><trkpt lat="39.5320891" lon="-0.52267939"><ele>76.2</ele><time>2022-11-01T13:18:44.0000000+00:00</time></trkpt><trkpt lat="39.53207653" lon="-0.52267453"><ele>76.2</ele><time>2022-11-01T13:18:45.0000000+00:00</time></trkpt><trkpt lat="39.53205993" lon="-0.52266967"><ele>76.2</ele><time>2022-11-01T13:18:46.0000000+00:00</time></trkpt><trkpt lat="39.53204753" lon="-0.52266791"><ele>76.2</ele><time>2022-11-01T13:18:47.0000000+00:00</time></trkpt><trkpt lat="39.5320337" lon="-0.52266221"><ele>76.2</ele><time>2022-11-01T13:18:48.0000000+00:00</time></trkpt><trkpt lat="39.53202339" lon="-0.52265642"><ele>76.2</ele><time>2022-11-01T13:18:49.0000000+00:00</time></trkpt><trkpt lat="39.53200948" lon="-0.52265139"><ele>76.2</ele><time>2022-11-01T13:18:50.0000000+00:00</time></trkpt><trkpt lat="39.53199782" lon="-0.52264469"><ele>76.2</ele><time>2022-11-01T13:18:51.0000000+00:00</time></trkpt><trkpt lat="39.53198274" lon="-0.52263756"><ele>76.2</ele><time>2022-11-01T13:18:52.0000000+00:00</time></trkpt><trkpt lat="39.53197042" lon="-0.52263421"><ele>76.2</ele><time>2022-11-01T13:18:53.0000000+00:00</time></trkpt><trkpt lat="39.53195692" lon="-0.52263086"><ele>76.2</ele><time>2022-11-01T13:18:54.0000000+00:00</time></trkpt><trkpt lat="39.53194569" lon="-0.5226291"><ele>76.2</ele><time>2022-11-01T13:18:55.0000000+00:00</time></trkpt><trkpt lat="39.53193479" lon="-0.52262574"><ele>76.2</ele><time>2022-11-01T13:18:56.0000000+00:00</time></trkpt><trkpt lat="39.53192314" lon="-0.52262206"><ele>76.2</ele><time>2022-11-01T13:18:57.0000000+00:00</time></trkpt><trkpt lat="39.53191275" lon="-0.52261803"><ele>76.0</ele><time>2022-11-01T13:18:58.0000000+00:00</time></trkpt><trkpt lat="39.5318985" lon="-0.52261577"><ele>76.0</ele><time>2022-11-01T13:18:59.0000000+00:00</time></trkpt><trkpt lat="39.53188341" lon="-0.52261577"><ele>76.0</ele><time>2022-11-01T13:19:00.0000000+00:00</time></trkpt><trkpt lat="39.53187025" lon="-0.52261552"><ele>76.0</ele><time>2022-11-01T13:19:01.0000000+00:00</time></trkpt><trkpt lat="39.53185919" lon="-0.52261351"><ele>76.0</ele><time>2022-11-01T13:19:02.0000000+00:00</time></trkpt><trkpt lat="39.53184938" lon="-0.52261384"><ele>76.0</ele><time>2022-11-01T13:19:03.0000000+00:00</time></trkpt><trkpt lat="39.53183865" lon="-0.52261259"><ele>76.0</ele><time>2022-11-01T13:19:04.0000000+00:00</time></trkpt><trkpt lat="39.53182926" lon="-0.52261032"><ele>76.2</ele><time>2022-11-01T13:19:05.0000000+00:00</time></trkpt><trkpt lat="39.53182474" lon="-0.52261041"><ele>76.2</ele><time>2022-11-01T13:19:06.0000000+00:00</time></trkpt><trkpt lat="39.53182625" lon="-0.52261217"><ele>76.2</ele><time>2022-11-01T13:19:07.0000000+00:00</time></trkpt><trkpt lat="39.5318301" lon="-0.52261351"><ele>76.4</ele><time>2022-11-01T13:19:08.0000000+00:00</time></trkpt><trkpt lat="39.5318301" lon="-0.52261351"><ele>76.4</ele><time>2022-11-01T13:19:09.0000000+00:00</time></trkpt><trkpt lat="39.5318301" lon="-0.52261351"><ele>76.4</ele><time>2022-11-01T13:19:10.0000000+00:00</time></trkpt><trkpt lat="39.5318301" lon="-0.52261351"><ele>76.4</ele><time>2022-11-01T13:19:11.0000000+00:00</time></trkpt><trkpt lat="39.5318301" lon="-0.52261351"><ele>76.2</ele><time>2022-11-01T13:19:12.0000000+00:00</time></trkpt><trkpt lat="39.5318301" lon="-0.52261351"><ele>76.2</ele><time>2022-11-01T13:19:13.0000000+00:00</time></trkpt><trkpt lat="39.5318301" lon="-0.52261351"><ele>76.2</ele><time>2022-11-01T13:19:14.0000000+00:00</time></trkpt><trkpt lat="39.5318301" lon="-0.52261351"><ele>76.2</ele><time>2022-11-01T13:19:15.0000000+00:00</time></trkpt><trkpt lat="39.5318301" lon="-0.52261351"><ele>76.2</ele><time>2022-11-01T13:19:16.0000000+00:00</time></trkpt><trkpt lat="39.5318301" lon="-0.52261351"><ele>76.2</ele><time>2022-11-01T13:19:17.0000000+00:00</time></trkpt><trkpt lat="39.53183312" lon="-0.52261569"><ele>76.2</ele><time>2022-11-01T13:19:18.0000000+00:00</time></trkpt><trkpt lat="39.53183966" lon="-0.52262122"><ele>76.2</ele><time>2022-11-01T13:19:19.0000000+00:00</time></trkpt><trkpt lat="39.5318477" lon="-0.5226265"><ele>76.4</ele><time>2022-11-01T13:19:20.0000000+00:00</time></trkpt><trkpt lat="39.53185299" lon="-0.52263094"><ele>76.4</ele><time>2022-11-01T13:19:21.0000000+00:00</time></trkpt><trkpt lat="39.53186338" lon="-0.52263295"><ele>76.4</ele><time>2022-11-01T13:19:22.0000000+00:00</time></trkpt><trkpt lat="39.53186698" lon="-0.52263756"><ele>76.6</ele><time>2022-11-01T13:19:23.0000000+00:00</time></trkpt><trkpt lat="39.53187696" lon="-0.52264134"><ele>76.6</ele><time>2022-11-01T13:19:24.0000000+00:00</time></trkpt><trkpt lat="39.5318907" lon="-0.52264117"><ele>76.6</ele><time>2022-11-01T13:19:25.0000000+00:00</time></trkpt><trkpt lat="39.53190143" lon="-0.5226441"><ele>76.6</ele><time>2022-11-01T13:19:26.0000000+00:00</time></trkpt><trkpt lat="39.53191275" lon="-0.52264393"><ele>76.6</ele><time>2022-11-01T13:19:27.0000000+00:00</time></trkpt><trkpt lat="39.53192113" lon="-0.52264092"><ele>76.6</ele><time>2022-11-01T13:19:28.0000000+00:00</time></trkpt><trkpt lat="39.53192574" lon="-0.52263823"><ele>76.4</ele><time>2022-11-01T13:19:29.0000000+00:00</time></trkpt><trkpt lat="39.53192825" lon="-0.52263673"><ele>76.4</ele><time>2022-11-01T13:19:30.0000000+00:00</time></trkpt><trkpt lat="39.53192825" lon="-0.52263673"><ele>76.4</ele><time>2022-11-01T13:19:31.0000000+00:00</time></trkpt><trkpt lat="39.53193144" lon="-0.52263346"><ele>76.4</ele><time>2022-11-01T13:19:32.0000000+00:00</time></trkpt><trkpt lat="39.53194141" lon="-0.52262759"><ele>76.4</ele><time>2022-11-01T13:19:33.0000000+00:00</time></trkpt><trkpt lat="39.5319539" lon="-0.52261745"><ele>76.4</ele><time>2022-11-01T13:19:34.0000000+00:00</time></trkpt><trkpt lat="39.53196413" lon="-0.52261217"><ele>76.4</ele><time>2022-11-01T13:19:35.0000000+00:00</time></trkpt><trkpt lat="39.53198374" lon="-0.52261644"><ele>76.4</ele><time>2022-11-01T13:19:36.0000000+00:00</time></trkpt><trkpt lat="39.53201073" lon="-0.52262826"><ele>76.4</ele><time>2022-11-01T13:19:37.0000000+00:00</time></trkpt><trkpt lat="39.53203755" lon="-0.52263849"><ele>76.4</ele><time>2022-11-01T13:19:38.0000000+00:00</time></trkpt><trkpt lat="39.53206312" lon="-0.52264351"><ele>76.4</ele><time>2022-11-01T13:19:39.0000000+00:00</time></trkpt><trkpt lat="39.53210176" lon="-0.5226581"><ele>76.4</ele><time>2022-11-01T13:19:40.0000000+00:00</time></trkpt><trkpt lat="39.53213487" lon="-0.52267067"><ele>76.4</ele><time>2022-11-01T13:19:41.0000000+00:00</time></trkpt><trkpt lat="39.53216965" lon="-0.5226835"><ele>76.4</ele><time>2022-11-01T13:19:42.0000000+00:00</time></trkpt><trkpt lat="39.53219648" lon="-0.52269272"><ele>76.4</ele><time>2022-11-01T13:19:43.0000000+00:00</time></trkpt><trkpt lat="39.53223554" lon="-0.52271099"><ele>76.4</ele><time>2022-11-01T13:19:44.0000000+00:00</time></trkpt><trkpt lat="39.53226445" lon="-0.52272239"><ele>76.4</ele><time>2022-11-01T13:19:45.0000000+00:00</time></trkpt><trkpt lat="39.5323077" lon="-0.52273572"><ele>76.4</ele><time>2022-11-01T13:19:46.0000000+00:00</time></trkpt><trkpt lat="39.53233503" lon="-0.52274577"><ele>76.4</ele><time>2022-11-01T13:19:47.0000000+00:00</time></trkpt><trkpt lat="39.53237191" lon="-0.52275608"><ele>76.4</ele><time>2022-11-01T13:19:48.0000000+00:00</time></trkpt><trkpt lat="39.53241424" lon="-0.52277008"><ele>76.4</ele><time>2022-11-01T13:19:49.0000000+00:00</time></trkpt><trkpt lat="39.53245296" lon="-0.52278609"><ele>76.4</ele><time>2022-11-01T13:19:50.0000000+00:00</time></trkpt><trkpt lat="39.53248532" lon="-0.5227985"><ele>76.4</ele><time>2022-11-01T13:19:51.0000000+00:00</time></trkpt><trkpt lat="39.53252664" lon="-0.52280939"><ele>76.4</ele><time>2022-11-01T13:19:52.0000000+00:00</time></trkpt><trkpt lat="39.53256872" lon="-0.52281694"><ele>76.4</ele><time>2022-11-01T13:19:53.0000000+00:00</time></trkpt><trkpt lat="39.53261465" lon="-0.52282984"><ele>76.4</ele><time>2022-11-01T13:19:54.0000000+00:00</time></trkpt><trkpt lat="39.53265823" lon="-0.52284233"><ele>76.4</ele><time>2022-11-01T13:19:55.0000000+00:00</time></trkpt><trkpt lat="39.53269981" lon="-0.52286044"><ele>76.4</ele><time>2022-11-01T13:19:56.0000000+00:00</time></trkpt><trkpt lat="39.53274105" lon="-0.52287712"><ele>76.6</ele><time>2022-11-01T13:19:57.0000000+00:00</time></trkpt><trkpt lat="39.5327838" lon="-0.5228891"><ele>76.6</ele><time>2022-11-01T13:19:58.0000000+00:00</time></trkpt><trkpt lat="39.5328252" lon="-0.52289925"><ele>76.6</ele><time>2022-11-01T13:19:59.0000000+00:00</time></trkpt><trkpt lat="39.53285722" lon="-0.52290847"><ele>76.8</ele><time>2022-11-01T13:20:00.0000000+00:00</time></trkpt><trkpt lat="39.53290374" lon="-0.52292263"><ele>76.6</ele><time>2022-11-01T13:20:01.0000000+00:00</time></trkpt><trkpt lat="39.53294163" lon="-0.52293537"><ele>76.6</ele><time>2022-11-01T13:20:02.0000000+00:00</time></trkpt><trkpt lat="39.532978" lon="-0.52294912"><ele>76.6</ele><time>2022-11-01T13:20:03.0000000+00:00</time></trkpt><trkpt lat="39.53301287" lon="-0.52296588"><ele>76.6</ele><time>2022-11-01T13:20:04.0000000+00:00</time></trkpt><trkpt lat="39.53304791" lon="-0.52297938"><ele>76.6</ele><time>2022-11-01T13:20:05.0000000+00:00</time></trkpt><trkpt lat="39.53308521" lon="-0.52298893"><ele>76.6</ele><time>2022-11-01T13:20:06.0000000+00:00</time></trkpt><trkpt lat="39.53312762" lon="-0.5229979"><ele>76.4</ele><time>2022-11-01T13:20:07.0000000+00:00</time></trkpt><trkpt lat="39.53316241" lon="-0.52300628"><ele>76.4</ele><time>2022-11-01T13:20:08.0000000+00:00</time></trkpt><trkpt lat="39.53321203" lon="-0.52302162"><ele>76.4</ele><time>2022-11-01T13:20:09.0000000+00:00</time></trkpt><trkpt lat="39.53324882" lon="-0.52303017"><ele>76.6</ele><time>2022-11-01T13:20:10.0000000+00:00</time></trkpt><trkpt lat="39.53329559" lon="-0.52303922"><ele>76.4</ele><time>2022-11-01T13:20:11.0000000+00:00</time></trkpt><trkpt lat="39.53334874" lon="-0.52305398"><ele>76.6</ele><time>2022-11-01T13:20:12.0000000+00:00</time></trkpt><trkpt lat="39.53338302" lon="-0.52306688"><ele>76.6</ele><time>2022-11-01T13:20:13.0000000+00:00</time></trkpt><trkpt lat="39.53343876" lon="-0.52308407"><ele>76.6</ele><time>2022-11-01T13:20:14.0000000+00:00</time></trkpt><trkpt lat="39.53348922" lon="-0.52309731"><ele>76.6</ele><time>2022-11-01T13:20:15.0000000+00:00</time></trkpt><trkpt lat="39.5335292" lon="-0.5231103"><ele>76.6</ele><time>2022-11-01T13:20:16.0000000+00:00</time></trkpt><trkpt lat="39.5335893" lon="-0.52312497"><ele>76.6</ele><time>2022-11-01T13:20:17.0000000+00:00</time></trkpt><trkpt lat="39.53363624" lon="-0.52313888"><ele>76.6</ele><time>2022-11-01T13:20:18.0000000+00:00</time></trkpt><trkpt lat="39.53367437" lon="-0.52315448"><ele>76.6</ele><time>2022-11-01T13:20:19.0000000+00:00</time></trkpt><trkpt lat="39.53372248" lon="-0.52317191"><ele>76.6</ele><time>2022-11-01T13:20:20.0000000+00:00</time></trkpt><trkpt lat="39.5337716" lon="-0.523187"><ele>76.6</ele><time>2022-11-01T13:20:21.0000000+00:00</time></trkpt><trkpt lat="39.53383078" lon="-0.52320309"><ele>76.6</ele><time>2022-11-01T13:20:22.0000000+00:00</time></trkpt><trkpt lat="39.53388392" lon="-0.52321633"><ele>76.6</ele><time>2022-11-01T13:20:23.0000000+00:00</time></trkpt><trkpt lat="39.53393614" lon="-0.52322907"><ele>76.6</ele><time>2022-11-01T13:20:24.0000000+00:00</time></trkpt><trkpt lat="39.53398727" lon="-0.52324399"><ele>76.6</ele><time>2022-11-01T13:20:25.0000000+00:00</time></trkpt><trkpt lat="39.53403639" lon="-0.52325875"><ele>76.6</ele><time>2022-11-01T13:20:26.0000000+00:00</time></trkpt><trkpt lat="39.53407846" lon="-0.52327124"><ele>76.6</ele><time>2022-11-01T13:20:27.0000000+00:00</time></trkpt><trkpt lat="39.53412959" lon="-0.52328532"><ele>76.6</ele><time>2022-11-01T13:20:28.0000000+00:00</time></trkpt><trkpt lat="39.53417662" lon="-0.52330208"><ele>76.6</ele><time>2022-11-01T13:20:29.0000000+00:00</time></trkpt><trkpt lat="39.53422607" lon="-0.52332128"><ele>76.8</ele><time>2022-11-01T13:20:30.0000000+00:00</time></trkpt><trkpt lat="39.53427477" lon="-0.5233429"><ele>76.8</ele><time>2022-11-01T13:20:31.0000000+00:00</time></trkpt><trkpt lat="39.53432246" lon="-0.52336377"><ele>76.8</ele><time>2022-11-01T13:20:32.0000000+00:00</time></trkpt><trkpt lat="39.53437099" lon="-0.52338473"><ele>76.8</ele><time>2022-11-01T13:20:33.0000000+00:00</time></trkpt><trkpt lat="39.5344233" lon="-0.52341021"><ele>76.6</ele><time>2022-11-01T13:20:34.0000000+00:00</time></trkpt><trkpt lat="39.53447434" lon="-0.52343133"><ele>76.6</ele><time>2022-11-01T13:20:35.0000000+00:00</time></trkpt><trkpt lat="39.53453209" lon="-0.52345111"><ele>76.6</ele><time>2022-11-01T13:20:36.0000000+00:00</time></trkpt><trkpt lat="39.53456998" lon="-0.52346536"><ele>76.6</ele><time>2022-11-01T13:20:37.0000000+00:00</time></trkpt><trkpt lat="39.534617" lon="-0.52348204"><ele>76.6</ele><time>2022-11-01T13:20:38.0000000+00:00</time></trkpt><trkpt lat="39.53467106" lon="-0.5235014"><ele>76.8</ele><time>2022-11-01T13:20:39.0000000+00:00</time></trkpt><trkpt lat="39.53471616" lon="-0.52351959"><ele>76.8</ele><time>2022-11-01T13:20:40.0000000+00:00</time></trkpt><trkpt lat="39.53475363" lon="-0.52353485"><ele>77.0</ele><time>2022-11-01T13:20:41.0000000+00:00</time></trkpt><trkpt lat="39.53479101" lon="-0.52355161"><ele>77.0</ele><time>2022-11-01T13:20:42.0000000+00:00</time></trkpt><trkpt lat="39.53482965" lon="-0.52356946"><ele>77.2</ele><time>2022-11-01T13:20:43.0000000+00:00</time></trkpt><trkpt lat="39.53486829" lon="-0.52358346"><ele>77.4</ele><time>2022-11-01T13:20:44.0000000+00:00</time></trkpt><trkpt lat="39.53489754" lon="-0.52359168"><ele>77.6</ele><time>2022-11-01T13:20:45.0000000+00:00</time></trkpt><trkpt lat="39.534933" lon="-0.52359109"><ele>77.8</ele><time>2022-11-01T13:20:46.0000000+00:00</time></trkpt><trkpt lat="39.53496426" lon="-0.52357877"><ele>78.0</ele><time>2022-11-01T13:20:47.0000000+00:00</time></trkpt><trkpt lat="39.53499117" lon="-0.52354289"><ele>78.2</ele><time>2022-11-01T13:20:48.0000000+00:00</time></trkpt><trkpt lat="39.53500475" lon="-0.52350241"><ele>78.4</ele><time>2022-11-01T13:20:49.0000000+00:00</time></trkpt><trkpt lat="39.53501154" lon="-0.52345941"><ele>78.6</ele><time>2022-11-01T13:20:50.0000000+00:00</time></trkpt><trkpt lat="39.53501791" lon="-0.52341281"><ele>78.6</ele><time>2022-11-01T13:20:51.0000000+00:00</time></trkpt><trkpt lat="39.53502512" lon="-0.52336352"><ele>78.8</ele><time>2022-11-01T13:20:52.0000000+00:00</time></trkpt><trkpt lat="39.53503224" lon="-0.52332278"><ele>78.8</ele><time>2022-11-01T13:20:53.0000000+00:00</time></trkpt><trkpt lat="39.53504691" lon="-0.52326939"><ele>78.8</ele><time>2022-11-01T13:20:54.0000000+00:00</time></trkpt><trkpt lat="39.5350646" lon="-0.5232186"><ele>79.0</ele><time>2022-11-01T13:20:55.0000000+00:00</time></trkpt><trkpt lat="39.53507599" lon="-0.52316319"><ele>79.0</ele><time>2022-11-01T13:20:56.0000000+00:00</time></trkpt><trkpt lat="39.53509343" lon="-0.52310276"><ele>79.0</ele><time>2022-11-01T13:20:57.0000000+00:00</time></trkpt><trkpt lat="39.53510843" lon="-0.52304316"><ele>79.0</ele><time>2022-11-01T13:20:58.0000000+00:00</time></trkpt><trkpt lat="39.53511983" lon="-0.52298332"><ele>79.2</ele><time>2022-11-01T13:20:59.0000000+00:00</time></trkpt><trkpt lat="39.53512888" lon="-0.52292255"><ele>79.2</ele><time>2022-11-01T13:21:00.0000000+00:00</time></trkpt><trkpt lat="39.53513961" lon="-0.52286035"><ele>79.2</ele><time>2022-11-01T13:21:01.0000000+00:00</time></trkpt><trkpt lat="39.53515202" lon="-0.52280051"><ele>79.2</ele><time>2022-11-01T13:21:02.0000000+00:00</time></trkpt><trkpt lat="39.53517339" lon="-0.5227394"><ele>79.2</ele><time>2022-11-01T13:21:03.0000000+00:00</time></trkpt><trkpt lat="39.53519619" lon="-0.5226814"><ele>79.2</ele><time>2022-11-01T13:21:04.0000000+00:00</time></trkpt><trkpt lat="39.53522125" lon="-0.52262809"><ele>79.2</ele><time>2022-11-01T13:21:05.0000000+00:00</time></trkpt><trkpt lat="39.53525302" lon="-0.52258702"><ele>79.4</ele><time>2022-11-01T13:21:06.0000000+00:00</time></trkpt><trkpt lat="39.53528144" lon="-0.52255701"><ele>79.4</ele><time>2022-11-01T13:21:07.0000000+00:00</time></trkpt><trkpt lat="39.5353101" lon="-0.52253665"><ele>79.6</ele><time>2022-11-01T13:21:08.0000000+00:00</time></trkpt><trkpt lat="39.53533634" lon="-0.52252516"><ele>79.8</ele><time>2022-11-01T13:21:09.0000000+00:00</time></trkpt><trkpt lat="39.53536232" lon="-0.52251862"><ele>79.8</ele><time>2022-11-01T13:21:10.0000000+00:00</time></trkpt><trkpt lat="39.53538747" lon="-0.52251502"><ele>80.0</ele><time>2022-11-01T13:21:11.0000000+00:00</time></trkpt><trkpt lat="39.53541789" lon="-0.5225177"><ele>80.2</ele><time>2022-11-01T13:21:12.0000000+00:00</time></trkpt><trkpt lat="39.53545201" lon="-0.52252114"><ele>80.4</ele><time>2022-11-01T13:21:13.0000000+00:00</time></trkpt><trkpt lat="39.53548931" lon="-0.52252516"><ele>80.6</ele><time>2022-11-01T13:21:14.0000000+00:00</time></trkpt><trkpt lat="39.53551169" lon="-0.52252977"><ele>80.8</ele><time>2022-11-01T13:21:15.0000000+00:00</time></trkpt><trkpt lat="39.53554052" lon="-0.5225338"><ele>81.0</ele><time>2022-11-01T13:21:16.0000000+00:00</time></trkpt><trkpt lat="39.53556709" lon="-0.52254058"><ele>81.2</ele><time>2022-11-01T13:21:17.0000000+00:00</time></trkpt><trkpt lat="39.53558905" lon="-0.52254536"><ele>81.4</ele><time>2022-11-01T13:21:18.0000000+00:00</time></trkpt><trkpt lat="39.53561311" lon="-0.52254654"><ele>81.6</ele><time>2022-11-01T13:21:19.0000000+00:00</time></trkpt><trkpt lat="39.53563624" lon="-0.52254637"><ele>81.6</ele><time>2022-11-01T13:21:20.0000000+00:00</time></trkpt><trkpt lat="39.53566055" lon="-0.5225483"><ele>81.8</ele><time>2022-11-01T13:21:21.0000000+00:00</time></trkpt><trkpt lat="39.53568963" lon="-0.52254846"><ele>81.8</ele><time>2022-11-01T13:21:22.0000000+00:00</time></trkpt><trkpt lat="39.53571704" lon="-0.52254436"><ele>81.8</ele><time>2022-11-01T13:21:23.0000000+00:00</time></trkpt><trkpt lat="39.53574588" lon="-0.52253011"><ele>82.0</ele><time>2022-11-01T13:21:24.0000000+00:00</time></trkpt><trkpt lat="39.53576096" lon="-0.52251913"><ele>82.2</ele><time>2022-11-01T13:21:25.0000000+00:00</time></trkpt><trkpt lat="39.5357737" lon="-0.52250253"><ele>82.2</ele><time>2022-11-01T13:21:26.0000000+00:00</time></trkpt><trkpt lat="39.53579365" lon="-0.52247646"><ele>82.4</ele><time>2022-11-01T13:21:27.0000000+00:00</time></trkpt><trkpt lat="39.53581209" lon="-0.52245827"><ele>82.4</ele><time>2022-11-01T13:21:28.0000000+00:00</time></trkpt><trkpt lat="39.53582735" lon="-0.52243925"><ele>82.6</ele><time>2022-11-01T13:21:29.0000000+00:00</time></trkpt><trkpt lat="39.53583799" lon="-0.52242835"><ele>82.8</ele><time>2022-11-01T13:21:30.0000000+00:00</time></trkpt><trkpt lat="39.53585174" lon="-0.52241326"><ele>83.0</ele><time>2022-11-01T13:21:31.0000000+00:00</time></trkpt><trkpt lat="39.5358654" lon="-0.5223939"><ele>83.2</ele><time>2022-11-01T13:21:32.0000000+00:00</time></trkpt><trkpt lat="39.53588342" lon="-0.52236901"><ele>83.2</ele><time>2022-11-01T13:21:33.0000000+00:00</time></trkpt><trkpt lat="39.53589968" lon="-0.52235266"><ele>83.4</ele><time>2022-11-01T13:21:34.0000000+00:00</time></trkpt><trkpt lat="39.53591771" lon="-0.52233732"><ele>83.6</ele><time>2022-11-01T13:21:35.0000000+00:00</time></trkpt><trkpt lat="39.53593263" lon="-0.52232509"><ele>83.6</ele><time>2022-11-01T13:21:36.0000000+00:00</time></trkpt><trkpt lat="39.53595308" lon="-0.52230807"><ele>83.8</ele><time>2022-11-01T13:21:37.0000000+00:00</time></trkpt><trkpt lat="39.53597135" lon="-0.52230028"><ele>83.8</ele><time>2022-11-01T13:21:38.0000000+00:00</time></trkpt><trkpt lat="39.53599842" lon="-0.52228284"><ele>84.0</ele><time>2022-11-01T13:21:39.0000000+00:00</time></trkpt><trkpt lat="39.5360198" lon="-0.52226415"><ele>84.0</ele><time>2022-11-01T13:21:40.0000000+00:00</time></trkpt><trkpt lat="39.53604989" lon="-0.52224102"><ele>84.2</ele><time>2022-11-01T13:21:41.0000000+00:00</time></trkpt><trkpt lat="39.5360752" lon="-0.52221981"><ele>84.4</ele><time>2022-11-01T13:21:42.0000000+00:00</time></trkpt><trkpt lat="39.53610026" lon="-0.52220581"><ele>84.4</ele><time>2022-11-01T13:21:43.0000000+00:00</time></trkpt><trkpt lat="39.53612507" lon="-0.52219215"><ele>84.6</ele><time>2022-11-01T13:21:44.0000000+00:00</time></trkpt><trkpt lat="39.5361581" lon="-0.52217673"><ele>84.8</ele><time>2022-11-01T13:21:45.0000000+00:00</time></trkpt><trkpt lat="39.5361871" lon="-0.52215233"><ele>84.8</ele><time>2022-11-01T13:21:46.0000000+00:00</time></trkpt><trkpt lat="39.53619674" lon="-0.52214027"><ele>84.8</ele><time>2022-11-01T13:21:47.0000000+00:00</time></trkpt><trkpt lat="39.53621577" lon="-0.52212124"><ele>85.0</ele><time>2022-11-01T13:21:48.0000000+00:00</time></trkpt><trkpt lat="39.53623085" lon="-0.52210582"><ele>85.0</ele><time>2022-11-01T13:21:49.0000000+00:00</time></trkpt><trkpt lat="39.53624317" lon="-0.52209903"><ele>85.2</ele><time>2022-11-01T13:21:50.0000000+00:00</time></trkpt><trkpt lat="39.5362591" lon="-0.52208939"><ele>85.2</ele><time>2022-11-01T13:21:51.0000000+00:00</time></trkpt><trkpt lat="39.53628617" lon="-0.52207639"><ele>85.4</ele><time>2022-11-01T13:21:52.0000000+00:00</time></trkpt><trkpt lat="39.53631476" lon="-0.5220551"><ele>85.4</ele><time>2022-11-01T13:21:53.0000000+00:00</time></trkpt><trkpt lat="39.53634158" lon="-0.52203449"><ele>85.4</ele><time>2022-11-01T13:21:54.0000000+00:00</time></trkpt><trkpt lat="39.53636698" lon="-0.5220132"><ele>85.6</ele><time>2022-11-01T13:21:55.0000000+00:00</time></trkpt><trkpt lat="39.53639271" lon="-0.52199174"><ele>85.6</ele><time>2022-11-01T13:21:56.0000000+00:00</time></trkpt><trkpt lat="39.5364202" lon="-0.52196978"><ele>85.8</ele><time>2022-11-01T13:21:57.0000000+00:00</time></trkpt><trkpt lat="39.53644878" lon="-0.52194824"><ele>86.0</ele><time>2022-11-01T13:21:58.0000000+00:00</time></trkpt><trkpt lat="39.53646882" lon="-0.52193172"><ele>86.0</ele><time>2022-11-01T13:21:59.0000000+00:00</time></trkpt><trkpt lat="39.53649379" lon="-0.52191538"><ele>86.2</ele><time>2022-11-01T13:22:00.0000000+00:00</time></trkpt><trkpt lat="39.53651617" lon="-0.52189593"><ele>86.4</ele><time>2022-11-01T13:22:01.0000000+00:00</time></trkpt><trkpt lat="39.53654207" lon="-0.52187716"><ele>86.6</ele><time>2022-11-01T13:22:02.0000000+00:00</time></trkpt><trkpt lat="39.53656714" lon="-0.52185277"><ele>86.8</ele><time>2022-11-01T13:22:03.0000000+00:00</time></trkpt><trkpt lat="39.53659882" lon="-0.52182192"><ele>86.8</ele><time>2022-11-01T13:22:04.0000000+00:00</time></trkpt><trkpt lat="39.53662162" lon="-0.5217987"><ele>87.0</ele><time>2022-11-01T13:22:05.0000000+00:00</time></trkpt><trkpt lat="39.53664651" lon="-0.52176903"><ele>87.0</ele><time>2022-11-01T13:22:06.0000000+00:00</time></trkpt><trkpt lat="39.53666353" lon="-0.52174305"><ele>87.2</ele><time>2022-11-01T13:22:07.0000000+00:00</time></trkpt><trkpt lat="39.53668716" lon="-0.52172695"><ele>87.4</ele><time>2022-11-01T13:22:08.0000000+00:00</time></trkpt><trkpt lat="39.53671692" lon="-0.5217091"><ele>87.4</ele><time>2022-11-01T13:22:09.0000000+00:00</time></trkpt><trkpt lat="39.5367414" lon="-0.52169158"><ele>87.6</ele><time>2022-11-01T13:22:10.0000000+00:00</time></trkpt><trkpt lat="39.53677232" lon="-0.52166887"><ele>87.6</ele><time>2022-11-01T13:22:11.0000000+00:00</time></trkpt><trkpt lat="39.53679672" lon="-0.52164464"><ele>87.8</ele><time>2022-11-01T13:22:12.0000000+00:00</time></trkpt><trkpt lat="39.53681398" lon="-0.52162285"><ele>88.0</ele><time>2022-11-01T13:22:13.0000000+00:00</time></trkpt><trkpt lat="39.53684726" lon="-0.52158681"><ele>88.0</ele><time>2022-11-01T13:22:14.0000000+00:00</time></trkpt><trkpt lat="39.53688229" lon="-0.52155529"><ele>88.2</ele><time>2022-11-01T13:22:15.0000000+00:00</time></trkpt><trkpt lat="39.5369118" lon="-0.52153191"><ele>88.2</ele><time>2022-11-01T13:22:16.0000000+00:00</time></trkpt><trkpt lat="39.53694306" lon="-0.52150961"><ele>88.2</ele><time>2022-11-01T13:22:17.0000000+00:00</time></trkpt><trkpt lat="39.53697626" lon="-0.5214843"><ele>88.4</ele><time>2022-11-01T13:22:18.0000000+00:00</time></trkpt><trkpt lat="39.53700123" lon="-0.52146175"><ele>88.4</ele><time>2022-11-01T13:22:19.0000000+00:00</time></trkpt><trkpt lat="39.53703024" lon="-0.52144281"><ele>88.6</ele><time>2022-11-01T13:22:20.0000000+00:00</time></trkpt><trkpt lat="39.53705505" lon="-0.52143409"><ele>88.8</ele><time>2022-11-01T13:22:21.0000000+00:00</time></trkpt><trkpt lat="39.53708204" lon="-0.52142445"><ele>89.0</ele><time>2022-11-01T13:22:22.0000000+00:00</time></trkpt><trkpt lat="39.53710869" lon="-0.52141364"><ele>89.0</ele><time>2022-11-01T13:22:23.0000000+00:00</time></trkpt><trkpt lat="39.53713761" lon="-0.52140148"><ele>89.4</ele><time>2022-11-01T13:22:24.0000000+00:00</time></trkpt><trkpt lat="39.53716753" lon="-0.52138749"><ele>89.4</ele><time>2022-11-01T13:22:25.0000000+00:00</time></trkpt><trkpt lat="39.53719863" lon="-0.52137324"><ele>89.6</ele><time>2022-11-01T13:22:26.0000000+00:00</time></trkpt><trkpt lat="39.53723199" lon="-0.52135714"><ele>89.6</ele><time>2022-11-01T13:22:27.0000000+00:00</time></trkpt><trkpt lat="39.5372682" lon="-0.52133837"><ele>89.8</ele><time>2022-11-01T13:22:28.0000000+00:00</time></trkpt><trkpt lat="39.53730801" lon="-0.52132295"><ele>89.8</ele><time>2022-11-01T13:22:29.0000000+00:00</time></trkpt><trkpt lat="39.5373469" lon="-0.52130342"><ele>89.8</ele><time>2022-11-01T13:22:30.0000000+00:00</time></trkpt><trkpt lat="39.5373894" lon="-0.52128674"><ele>89.8</ele><time>2022-11-01T13:22:31.0000000+00:00</time></trkpt><trkpt lat="39.53742938" lon="-0.52127073"><ele>89.8</ele><time>2022-11-01T13:22:32.0000000+00:00</time></trkpt><trkpt lat="39.53747255" lon="-0.5212657"><ele>89.8</ele><time>2022-11-01T13:22:33.0000000+00:00</time></trkpt><trkpt lat="39.53751722" lon="-0.52126779"><ele>89.8</ele><time>2022-11-01T13:22:34.0000000+00:00</time></trkpt><trkpt lat="39.53756282" lon="-0.52126645"><ele>89.8</ele><time>2022-11-01T13:22:35.0000000+00:00</time></trkpt><trkpt lat="39.53760808" lon="-0.52127039"><ele>89.6</ele><time>2022-11-01T13:22:36.0000000+00:00</time></trkpt><trkpt lat="39.53766022" lon="-0.52128137"><ele>89.6</ele><time>2022-11-01T13:22:37.0000000+00:00</time></trkpt><trkpt lat="39.53772258" lon="-0.5212859"><ele>89.6</ele><time>2022-11-01T13:22:38.0000000+00:00</time></trkpt><trkpt lat="39.5377748" lon="-0.52129738"><ele>89.6</ele><time>2022-11-01T13:22:39.0000000+00:00</time></trkpt><trkpt lat="39.53781" lon="-0.52130811"><ele>89.6</ele><time>2022-11-01T13:22:40.0000000+00:00</time></trkpt><trkpt lat="39.53786113" lon="-0.52131683"><ele>89.4</ele><time>2022-11-01T13:22:41.0000000+00:00</time></trkpt><trkpt lat="39.53791059" lon="-0.52132127"><ele>89.4</ele><time>2022-11-01T13:22:42.0000000+00:00</time></trkpt><trkpt lat="39.53796331" lon="-0.52131716"><ele>89.4</ele><time>2022-11-01T13:22:43.0000000+00:00</time></trkpt><trkpt lat="39.53802475" lon="-0.52132035"><ele>89.4</ele><time>2022-11-01T13:22:44.0000000+00:00</time></trkpt><trkpt lat="39.53807663" lon="-0.52132194"><ele>89.4</ele><time>2022-11-01T13:22:45.0000000+00:00</time></trkpt><trkpt lat="39.53812676" lon="-0.52132722"><ele>89.4</ele><time>2022-11-01T13:22:46.0000000+00:00</time></trkpt><trkpt lat="39.53817688" lon="-0.52133309"><ele>89.2</ele><time>2022-11-01T13:22:47.0000000+00:00</time></trkpt><trkpt lat="39.53822734" lon="-0.52133652"><ele>89.2</ele><time>2022-11-01T13:22:48.0000000+00:00</time></trkpt><trkpt lat="39.53827855" lon="-0.52133711"><ele>89.2</ele><time>2022-11-01T13:22:49.0000000+00:00</time></trkpt><trkpt lat="39.53833077" lon="-0.5213413"><ele>89.4</ele><time>2022-11-01T13:22:50.0000000+00:00</time></trkpt><trkpt lat="39.53838249" lon="-0.52134675"><ele>89.4</ele><time>2022-11-01T13:22:51.0000000+00:00</time></trkpt><trkpt lat="39.53842289" lon="-0.52135455"><ele>89.4</ele><time>2022-11-01T13:22:52.0000000+00:00</time></trkpt><trkpt lat="39.53847653" lon="-0.5213636"><ele>89.2</ele><time>2022-11-01T13:22:53.0000000+00:00</time></trkpt><trkpt lat="39.53854065" lon="-0.5213677"><ele>89.2</ele><time>2022-11-01T13:22:54.0000000+00:00</time></trkpt><trkpt lat="39.53858273" lon="-0.52136678"><ele>89.2</ele><time>2022-11-01T13:22:55.0000000+00:00</time></trkpt><trkpt lat="39.53864325" lon="-0.52136486"><ele>89.0</ele><time>2022-11-01T13:22:56.0000000+00:00</time></trkpt><trkpt lat="39.53869203" lon="-0.52136645"><ele>89.0</ele><time>2022-11-01T13:22:57.0000000+00:00</time></trkpt><trkpt lat="39.53874132" lon="-0.5213667"><ele>89.0</ele><time>2022-11-01T13:22:58.0000000+00:00</time></trkpt><trkpt lat="39.53878976" lon="-0.52136636"><ele>89.0</ele><time>2022-11-01T13:22:59.0000000+00:00</time></trkpt><trkpt lat="39.5388388" lon="-0.52137014"><ele>89.0</ele><time>2022-11-01T13:23:00.0000000+00:00</time></trkpt><trkpt lat="39.53888741" lon="-0.52137391"><ele>89.0</ele><time>2022-11-01T13:23:01.0000000+00:00</time></trkpt><trkpt lat="39.53893754" lon="-0.52137801"><ele>89.0</ele><time>2022-11-01T13:23:02.0000000+00:00</time></trkpt><trkpt lat="39.53897936" lon="-0.5213807"><ele>89.0</ele><time>2022-11-01T13:23:03.0000000+00:00</time></trkpt><trkpt lat="39.53902907" lon="-0.52138221"><ele>89.0</ele><time>2022-11-01T13:23:04.0000000+00:00</time></trkpt><trkpt lat="39.53908598" lon="-0.5213791"><ele>89.2</ele><time>2022-11-01T13:23:05.0000000+00:00</time></trkpt><trkpt lat="39.53912848" lon="-0.52137827"><ele>89.4</ele><time>2022-11-01T13:23:06.0000000+00:00</time></trkpt><trkpt lat="39.53917139" lon="-0.52137852"><ele>89.4</ele><time>2022-11-01T13:23:07.0000000+00:00</time></trkpt><trkpt lat="39.53921598" lon="-0.52137894"><ele>89.6</ele><time>2022-11-01T13:23:08.0000000+00:00</time></trkpt><trkpt lat="39.53926041" lon="-0.52137584"><ele>89.8</ele><time>2022-11-01T13:23:09.0000000+00:00</time></trkpt><trkpt lat="39.53930517" lon="-0.52136444"><ele>89.8</ele><time>2022-11-01T13:23:10.0000000+00:00</time></trkpt><trkpt lat="39.5393516" lon="-0.52134013"><ele>89.8</ele><time>2022-11-01T13:23:11.0000000+00:00</time></trkpt><trkpt lat="39.53939544" lon="-0.52132797"><ele>90.0</ele><time>2022-11-01T13:23:12.0000000+00:00</time></trkpt><trkpt lat="39.53943978" lon="-0.52131968"><ele>90.0</ele><time>2022-11-01T13:23:13.0000000+00:00</time></trkpt><trkpt lat="39.53947599" lon="-0.52131289"><ele>90.0</ele><time>2022-11-01T13:23:14.0000000+00:00</time></trkpt><trkpt lat="39.53953156" lon="-0.52129596"><ele>90.0</ele><time>2022-11-01T13:23:15.0000000+00:00</time></trkpt><trkpt lat="39.53957984" lon="-0.52128045"><ele>90.0</ele><time>2022-11-01T13:23:16.0000000+00:00</time></trkpt><trkpt lat="39.53963055" lon="-0.52126528"><ele>90.0</ele><time>2022-11-01T13:23:17.0000000+00:00</time></trkpt><trkpt lat="39.5396816" lon="-0.52125078"><ele>90.0</ele><time>2022-11-01T13:23:18.0000000+00:00</time></trkpt><trkpt lat="39.53971999" lon="-0.5212398"><ele>90.0</ele><time>2022-11-01T13:23:19.0000000+00:00</time></trkpt><trkpt lat="39.53976852" lon="-0.52122613"><ele>90.2</ele><time>2022-11-01T13:23:20.0000000+00:00</time></trkpt><trkpt lat="39.53982652" lon="-0.52121121"><ele>90.2</ele><time>2022-11-01T13:23:21.0000000+00:00</time></trkpt><trkpt lat="39.53987438" lon="-0.52119747"><ele>90.2</ele><time>2022-11-01T13:23:22.0000000+00:00</time></trkpt><trkpt lat="39.539924" lon="-0.52118188"><ele>90.2</ele><time>2022-11-01T13:23:23.0000000+00:00</time></trkpt><trkpt lat="39.53997295" lon="-0.52116855"><ele>90.2</ele><time>2022-11-01T13:23:24.0000000+00:00</time></trkpt><trkpt lat="39.54001143" lon="-0.52116151"><ele>90.4</ele><time>2022-11-01T13:23:25.0000000+00:00</time></trkpt><trkpt lat="39.54005837" lon="-0.5211548"><ele>90.4</ele><time>2022-11-01T13:23:26.0000000+00:00</time></trkpt><trkpt lat="39.54010421" lon="-0.52114081"><ele>90.6</ele><time>2022-11-01T13:23:27.0000000+00:00</time></trkpt><trkpt lat="39.54014646" lon="-0.52112932"><ele>90.6</ele><time>2022-11-01T13:23:28.0000000+00:00</time></trkpt><trkpt lat="39.54019072" lon="-0.52111751"><ele>90.8</ele><time>2022-11-01T13:23:29.0000000+00:00</time></trkpt><trkpt lat="39.54023313" lon="-0.52110904"><ele>91.0</ele><time>2022-11-01T13:23:30.0000000+00:00</time></trkpt><trkpt lat="39.54028233" lon="-0.52109538"><ele>91.2</ele><time>2022-11-01T13:23:31.0000000+00:00</time></trkpt><trkpt lat="39.54032064" lon="-0.52108155"><ele>91.4</ele><time>2022-11-01T13:23:32.0000000+00:00</time></trkpt><trkpt lat="39.54035886" lon="-0.52106839"><ele>91.4</ele><time>2022-11-01T13:23:33.0000000+00:00</time></trkpt><trkpt lat="39.54038861" lon="-0.52105506"><ele>91.4</ele><time>2022-11-01T13:23:34.0000000+00:00</time></trkpt><trkpt lat="39.54042323" lon="-0.52104333"><ele>91.6</ele><time>2022-11-01T13:23:35.0000000+00:00</time></trkpt><trkpt lat="39.54046237" lon="-0.52103251"><ele>91.6</ele><time>2022-11-01T13:23:36.0000000+00:00</time></trkpt><trkpt lat="39.54049272" lon="-0.52101977"><ele>91.8</ele><time>2022-11-01T13:23:37.0000000+00:00</time></trkpt><trkpt lat="39.54051887" lon="-0.52101038"><ele>91.8</ele><time>2022-11-01T13:23:38.0000000+00:00</time></trkpt><trkpt lat="39.54054334" lon="-0.52100653"><ele>92.0</ele><time>2022-11-01T13:23:39.0000000+00:00</time></trkpt><trkpt lat="39.54056907" lon="-0.52100276"><ele>91.8</ele><time>2022-11-01T13:23:40.0000000+00:00</time></trkpt><trkpt lat="39.54059045" lon="-0.52099546"><ele>91.8</ele><time>2022-11-01T13:23:41.0000000+00:00</time></trkpt><trkpt lat="39.54062372" lon="-0.52097971"><ele>91.8</ele><time>2022-11-01T13:23:42.0000000+00:00</time></trkpt><trkpt lat="39.54064929" lon="-0.52096043"><ele>91.8</ele><time>2022-11-01T13:23:43.0000000+00:00</time></trkpt><trkpt lat="39.54067209" lon="-0.52094132"><ele>91.8</ele><time>2022-11-01T13:23:44.0000000+00:00</time></trkpt><trkpt lat="39.54069095" lon="-0.52091877"><ele>91.8</ele><time>2022-11-01T13:23:45.0000000+00:00</time></trkpt><trkpt lat="39.5407062" lon="-0.52089295"><ele>92.0</ele><time>2022-11-01T13:23:46.0000000+00:00</time></trkpt><trkpt lat="39.54071894" lon="-0.52087066"><ele>92.0</ele><time>2022-11-01T13:23:47.0000000+00:00</time></trkpt><trkpt lat="39.54073906" lon="-0.52083747"><ele>92.0</ele><time>2022-11-01T13:23:48.0000000+00:00</time></trkpt><trkpt lat="39.54075574" lon="-0.52081182"><ele>92.0</ele><time>2022-11-01T13:23:49.0000000+00:00</time></trkpt><trkpt lat="39.54076781" lon="-0.5207881"><ele>92.2</ele><time>2022-11-01T13:23:50.0000000+00:00</time></trkpt><trkpt lat="39.54078466" lon="-0.52075348"><ele>92.4</ele><time>2022-11-01T13:23:51.0000000+00:00</time></trkpt><trkpt lat="39.54079933" lon="-0.52073026"><ele>92.4</ele><time>2022-11-01T13:23:52.0000000+00:00</time></trkpt><trkpt lat="39.54081534" lon="-0.52070956"><ele>92.6</ele><time>2022-11-01T13:23:53.0000000+00:00</time></trkpt><trkpt lat="39.54082933" lon="-0.52069154"><ele>92.8</ele><time>2022-11-01T13:23:54.0000000+00:00</time></trkpt><trkpt lat="39.54084274" lon="-0.52067301"><ele>92.8</ele><time>2022-11-01T13:23:55.0000000+00:00</time></trkpt><trkpt lat="39.54085188" lon="-0.52065843"><ele>93.0</ele><time>2022-11-01T13:23:56.0000000+00:00</time></trkpt><trkpt lat="39.54086085" lon="-0.52064862"><ele>93.2</ele><time>2022-11-01T13:23:57.0000000+00:00</time></trkpt><trkpt lat="39.54087426" lon="-0.52063303"><ele>93.6</ele><time>2022-11-01T13:23:58.0000000+00:00</time></trkpt><trkpt lat="39.54089161" lon="-0.52061182"><ele>93.8</ele><time>2022-11-01T13:23:59.0000000+00:00</time></trkpt><trkpt lat="39.54091072" lon="-0.52059246"><ele>93.8</ele><time>2022-11-01T13:24:00.0000000+00:00</time></trkpt><trkpt lat="39.54093201" lon="-0.5205736"><ele>94.0</ele><time>2022-11-01T13:24:01.0000000+00:00</time></trkpt><trkpt lat="39.54094475" lon="-0.52055885"><ele>94.2</ele><time>2022-11-01T13:24:02.0000000+00:00</time></trkpt><trkpt lat="39.54096319" lon="-0.52054058"><ele>94.4</ele><time>2022-11-01T13:24:03.0000000+00:00</time></trkpt><trkpt lat="39.54099119" lon="-0.52052507"><ele>94.6</ele><time>2022-11-01T13:24:04.0000000+00:00</time></trkpt><trkpt lat="39.54101566" lon="-0.52051543"><ele>94.6</ele><time>2022-11-01T13:24:05.0000000+00:00</time></trkpt><trkpt lat="39.54103787" lon="-0.52050445"><ele>94.6</ele><time>2022-11-01T13:24:06.0000000+00:00</time></trkpt><trkpt lat="39.54105891" lon="-0.52049448"><ele>94.8</ele><time>2022-11-01T13:24:07.0000000+00:00</time></trkpt><trkpt lat="39.54107677" lon="-0.52048459"><ele>94.8</ele><time>2022-11-01T13:24:08.0000000+00:00</time></trkpt><trkpt lat="39.54110677" lon="-0.52046724"><ele>94.8</ele><time>2022-11-01T13:24:09.0000000+00:00</time></trkpt><trkpt lat="39.54113519" lon="-0.52045349"><ele>94.8</ele><time>2022-11-01T13:24:10.0000000+00:00</time></trkpt><trkpt lat="39.54116411" lon="-0.52044603"><ele>94.8</ele><time>2022-11-01T13:24:11.0000000+00:00</time></trkpt><trkpt lat="39.54120794" lon="-0.5204405"><ele>94.8</ele><time>2022-11-01T13:24:12.0000000+00:00</time></trkpt><trkpt lat="39.54123912" lon="-0.52044159"><ele>94.8</ele><time>2022-11-01T13:24:13.0000000+00:00</time></trkpt><trkpt lat="39.5412833" lon="-0.52045584"><ele>94.8</ele><time>2022-11-01T13:24:14.0000000+00:00</time></trkpt><trkpt lat="39.54132948" lon="-0.52048434"><ele>94.8</ele><time>2022-11-01T13:24:15.0000000+00:00</time></trkpt><trkpt lat="39.54136703" lon="-0.52050864"><ele>94.8</ele><time>2022-11-01T13:24:16.0000000+00:00</time></trkpt><trkpt lat="39.54139989" lon="-0.52053823"><ele>94.8</ele><time>2022-11-01T13:24:17.0000000+00:00</time></trkpt><trkpt lat="39.54142814" lon="-0.52057302"><ele>94.8</ele><time>2022-11-01T13:24:18.0000000+00:00</time></trkpt><trkpt lat="39.54146284" lon="-0.52061333"><ele>94.8</ele><time>2022-11-01T13:24:19.0000000+00:00</time></trkpt><trkpt lat="39.5414993" lon="-0.52064912"><ele>94.8</ele><time>2022-11-01T13:24:20.0000000+00:00</time></trkpt><trkpt lat="39.54153375" lon="-0.52068207"><ele>94.8</ele><time>2022-11-01T13:24:21.0000000+00:00</time></trkpt><trkpt lat="39.54156543" lon="-0.52072121"><ele>95.0</ele><time>2022-11-01T13:24:22.0000000+00:00</time></trkpt><trkpt lat="39.54160248" lon="-0.52076899"><ele>95.0</ele><time>2022-11-01T13:24:23.0000000+00:00</time></trkpt><trkpt lat="39.54164129" lon="-0.52081123"><ele>95.0</ele><time>2022-11-01T13:24:24.0000000+00:00</time></trkpt><trkpt lat="39.54167951" lon="-0.52084987"><ele>95.2</ele><time>2022-11-01T13:24:25.0000000+00:00</time></trkpt><trkpt lat="39.54172033" lon="-0.52088382"><ele>95.2</ele><time>2022-11-01T13:24:26.0000000+00:00</time></trkpt><trkpt lat="39.54176065" lon="-0.52092413"><ele>95.2</ele><time>2022-11-01T13:24:27.0000000+00:00</time></trkpt><trkpt lat="39.54179283" lon="-0.52095515"><ele>95.2</ele><time>2022-11-01T13:24:28.0000000+00:00</time></trkpt><trkpt lat="39.54183558" lon="-0.52100183"><ele>95.2</ele><time>2022-11-01T13:24:29.0000000+00:00</time></trkpt><trkpt lat="39.54187338" lon="-0.5210388"><ele>95.2</ele><time>2022-11-01T13:24:30.0000000+00:00</time></trkpt><trkpt lat="39.54191186" lon="-0.52107601"><ele>95.2</ele><time>2022-11-01T13:24:31.0000000+00:00</time></trkpt><trkpt lat="39.54194874" lon="-0.52111424"><ele>95.0</ele><time>2022-11-01T13:24:32.0000000+00:00</time></trkpt><trkpt lat="39.54199224" lon="-0.52114693"><ele>95.0</ele><time>2022-11-01T13:24:33.0000000+00:00</time></trkpt><trkpt lat="39.54203683" lon="-0.52117928"><ele>95.0</ele><time>2022-11-01T13:24:34.0000000+00:00</time></trkpt><trkpt lat="39.54206801" lon="-0.5212092"><ele>95.0</ele><time>2022-11-01T13:24:35.0000000+00:00</time></trkpt><trkpt lat="39.54210439" lon="-0.52125019"><ele>95.2</ele><time>2022-11-01T13:24:36.0000000+00:00</time></trkpt><trkpt lat="39.54213708" lon="-0.52129311"><ele>95.2</ele><time>2022-11-01T13:24:37.0000000+00:00</time></trkpt><trkpt lat="39.54216801" lon="-0.52133678"><ele>95.2</ele><time>2022-11-01T13:24:38.0000000+00:00</time></trkpt><trkpt lat="39.54219634" lon="-0.52138791"><ele>95.2</ele><time>2022-11-01T13:24:39.0000000+00:00</time></trkpt><trkpt lat="39.54222182" lon="-0.52144599"><ele>95.2</ele><time>2022-11-01T13:24:40.0000000+00:00</time></trkpt><trkpt lat="39.54225032" lon="-0.52152143"><ele>95.2</ele><time>2022-11-01T13:24:41.0000000+00:00</time></trkpt><trkpt lat="39.54226842" lon="-0.52157155"><ele>95.2</ele><time>2022-11-01T13:24:42.0000000+00:00</time></trkpt><trkpt lat="39.54229172" lon="-0.5216319"><ele>95.0</ele><time>2022-11-01T13:24:43.0000000+00:00</time></trkpt><trkpt lat="39.54232089" lon="-0.52168722"><ele>95.0</ele><time>2022-11-01T13:24:44.0000000+00:00</time></trkpt><trkpt lat="39.5423514" lon="-0.52174053"><ele>95.0</ele><time>2022-11-01T13:24:45.0000000+00:00</time></trkpt><trkpt lat="39.54238066" lon="-0.52179149"><ele>95.0</ele><time>2022-11-01T13:24:46.0000000+00:00</time></trkpt><trkpt lat="39.54241058" lon="-0.52184195"><ele>95.0</ele><time>2022-11-01T13:24:47.0000000+00:00</time></trkpt><trkpt lat="39.54244612" lon="-0.52188981"><ele>95.0</ele><time>2022-11-01T13:24:48.0000000+00:00</time></trkpt><trkpt lat="39.54248233" lon="-0.52193969"><ele>94.8</ele><time>2022-11-01T13:24:49.0000000+00:00</time></trkpt><trkpt lat="39.54251954" lon="-0.52199375"><ele>94.6</ele><time>2022-11-01T13:24:50.0000000+00:00</time></trkpt><trkpt lat="39.54256045" lon="-0.52204622"><ele>94.4</ele><time>2022-11-01T13:24:51.0000000+00:00</time></trkpt><trkpt lat="39.54259976" lon="-0.52209425"><ele>94.2</ele><time>2022-11-01T13:24:52.0000000+00:00</time></trkpt><trkpt lat="39.54263773" lon="-0.52214144"><ele>94.0</ele><time>2022-11-01T13:24:53.0000000+00:00</time></trkpt><trkpt lat="39.5426762" lon="-0.52219089"><ele>93.8</ele><time>2022-11-01T13:24:54.0000000+00:00</time></trkpt><trkpt lat="39.54271685" lon="-0.52224034"><ele>93.8</ele><time>2022-11-01T13:24:55.0000000+00:00</time></trkpt><trkpt lat="39.54276798" lon="-0.522296"><ele>93.6</ele><time>2022-11-01T13:24:56.0000000+00:00</time></trkpt><trkpt lat="39.54280671" lon="-0.52234302"><ele>93.6</ele><time>2022-11-01T13:24:57.0000000+00:00</time></trkpt><trkpt lat="39.54284082" lon="-0.52238963"><ele>93.6</ele><time>2022-11-01T13:24:58.0000000+00:00</time></trkpt><trkpt lat="39.54287971" lon="-0.52243673"><ele>93.6</ele><time>2022-11-01T13:24:59.0000000+00:00</time></trkpt><trkpt lat="39.54291869" lon="-0.52248409"><ele>93.4</ele><time>2022-11-01T13:25:00.0000000+00:00</time></trkpt><trkpt lat="39.54295658" lon="-0.52252592"><ele>93.4</ele><time>2022-11-01T13:25:01.0000000+00:00</time></trkpt><trkpt lat="39.54299471" lon="-0.52256975"><ele>93.4</ele><time>2022-11-01T13:25:02.0000000+00:00</time></trkpt><trkpt lat="39.54303034" lon="-0.522613"><ele>93.4</ele><time>2022-11-01T13:25:03.0000000+00:00</time></trkpt><trkpt lat="39.54306847" lon="-0.52265265"><ele>93.4</ele><time>2022-11-01T13:25:04.0000000+00:00</time></trkpt><trkpt lat="39.54310536" lon="-0.52269213"><ele>93.4</ele><time>2022-11-01T13:25:05.0000000+00:00</time></trkpt><trkpt lat="39.54313972" lon="-0.52273328"><ele>93.4</ele><time>2022-11-01T13:25:06.0000000+00:00</time></trkpt><trkpt lat="39.5431787" lon="-0.52276908"><ele>93.4</ele><time>2022-11-01T13:25:07.0000000+00:00</time></trkpt><trkpt lat="39.54321818" lon="-0.52279648"><ele>93.4</ele><time>2022-11-01T13:25:08.0000000+00:00</time></trkpt><trkpt lat="39.54324827" lon="-0.52282272"><ele>93.2</ele><time>2022-11-01T13:25:09.0000000+00:00</time></trkpt><trkpt lat="39.5432776" lon="-0.52284787"><ele>93.2</ele><time>2022-11-01T13:25:10.0000000+00:00</time></trkpt><trkpt lat="39.54330577" lon="-0.52286974"><ele>93.2</ele><time>2022-11-01T13:25:11.0000000+00:00</time></trkpt><trkpt lat="39.54333292" lon="-0.52289187"><ele>93.2</ele><time>2022-11-01T13:25:12.0000000+00:00</time></trkpt><trkpt lat="39.54335824" lon="-0.52291215"><ele>93.2</ele><time>2022-11-01T13:25:13.0000000+00:00</time></trkpt><trkpt lat="39.54338313" lon="-0.52292883"><ele>93.2</ele><time>2022-11-01T13:25:14.0000000+00:00</time></trkpt><trkpt lat="39.54340425" lon="-0.52294459"><ele>93.2</ele><time>2022-11-01T13:25:15.0000000+00:00</time></trkpt><trkpt lat="39.54342739" lon="-0.52295951"><ele>93.2</ele><time>2022-11-01T13:25:16.0000000+00:00</time></trkpt><trkpt lat="39.54345245" lon="-0.52297745"><ele>93.2</ele><time>2022-11-01T13:25:17.0000000+00:00</time></trkpt><trkpt lat="39.54347776" lon="-0.52299899"><ele>93.2</ele><time>2022-11-01T13:25:18.0000000+00:00</time></trkpt><trkpt lat="39.543504" lon="-0.52301542"><ele>93.2</ele><time>2022-11-01T13:25:19.0000000+00:00</time></trkpt><trkpt lat="39.54352931" lon="-0.52303646"><ele>93.2</ele><time>2022-11-01T13:25:20.0000000+00:00</time></trkpt><trkpt lat="39.54355253" lon="-0.52305783"><ele>93.2</ele><time>2022-11-01T13:25:21.0000000+00:00</time></trkpt><trkpt lat="39.54356753" lon="-0.52308164"><ele>93.2</ele><time>2022-11-01T13:25:22.0000000+00:00</time></trkpt><trkpt lat="39.54358698" lon="-0.52310058"><ele>93.2</ele><time>2022-11-01T13:25:23.0000000+00:00</time></trkpt><trkpt lat="39.54360928" lon="-0.52311156"><ele>93.2</ele><time>2022-11-01T13:25:24.0000000+00:00</time></trkpt><trkpt lat="39.54363023" lon="-0.52312682"><ele>93.2</ele><time>2022-11-01T13:25:25.0000000+00:00</time></trkpt><trkpt lat="39.54364984" lon="-0.52314467"><ele>93.0</ele><time>2022-11-01T13:25:26.0000000+00:00</time></trkpt><trkpt lat="39.54366761" lon="-0.52316059"><ele>93.0</ele><time>2022-11-01T13:25:27.0000000+00:00</time></trkpt><trkpt lat="39.5436853" lon="-0.52317694"><ele>93.0</ele><time>2022-11-01T13:25:28.0000000+00:00</time></trkpt><trkpt lat="39.54370751" lon="-0.52319362"><ele>93.0</ele><time>2022-11-01T13:25:29.0000000+00:00</time></trkpt><trkpt lat="39.5437314" lon="-0.52320862"><ele>93.0</ele><time>2022-11-01T13:25:30.0000000+00:00</time></trkpt><trkpt lat="39.54375269" lon="-0.52322824"><ele>93.0</ele><time>2022-11-01T13:25:31.0000000+00:00</time></trkpt><trkpt lat="39.54377448" lon="-0.52324475"><ele>92.8</ele><time>2022-11-01T13:25:32.0000000+00:00</time></trkpt><trkpt lat="39.54379871" lon="-0.52326025"><ele>92.8</ele><time>2022-11-01T13:25:33.0000000+00:00</time></trkpt><trkpt lat="39.54382402" lon="-0.52327417"><ele>92.8</ele><time>2022-11-01T13:25:34.0000000+00:00</time></trkpt><trkpt lat="39.54385025" lon="-0.52329202"><ele>92.8</ele><time>2022-11-01T13:25:35.0000000+00:00</time></trkpt><trkpt lat="39.54387414" lon="-0.52331641"><ele>92.8</ele><time>2022-11-01T13:25:36.0000000+00:00</time></trkpt><trkpt lat="39.54390122" lon="-0.52333946"><ele>92.6</ele><time>2022-11-01T13:25:37.0000000+00:00</time></trkpt><trkpt lat="39.54392712" lon="-0.52335606"><ele>92.6</ele><time>2022-11-01T13:25:38.0000000+00:00</time></trkpt><trkpt lat="39.5439536" lon="-0.52336989"><ele>92.6</ele><time>2022-11-01T13:25:39.0000000+00:00</time></trkpt><trkpt lat="39.54397749" lon="-0.52338691"><ele>92.6</ele><time>2022-11-01T13:25:40.0000000+00:00</time></trkpt><trkpt lat="39.54400272" lon="-0.52340702"><ele>92.6</ele><time>2022-11-01T13:25:41.0000000+00:00</time></trkpt><trkpt lat="39.54403365" lon="-0.52343275"><ele>92.6</ele><time>2022-11-01T13:25:42.0000000+00:00</time></trkpt><trkpt lat="39.54406844" lon="-0.52346083"><ele>92.6</ele><time>2022-11-01T13:25:43.0000000+00:00</time></trkpt><trkpt lat="39.5441023" lon="-0.52349235"><ele>92.6</ele><time>2022-11-01T13:25:44.0000000+00:00</time></trkpt><trkpt lat="39.54413775" lon="-0.52352546"><ele>92.6</ele><time>2022-11-01T13:25:45.0000000+00:00</time></trkpt><trkpt lat="39.54417623" lon="-0.5235553"><ele>92.6</ele><time>2022-11-01T13:25:46.0000000+00:00</time></trkpt><trkpt lat="39.54421612" lon="-0.52358329"><ele>92.8</ele><time>2022-11-01T13:25:47.0000000+00:00</time></trkpt><trkpt lat="39.54425426" lon="-0.52361053"><ele>92.8</ele><time>2022-11-01T13:25:48.0000000+00:00</time></trkpt><trkpt lat="39.5442929" lon="-0.52363903"><ele>92.8</ele><time>2022-11-01T13:25:49.0000000+00:00</time></trkpt><trkpt lat="39.54433506" lon="-0.52367172"><ele>93.0</ele><time>2022-11-01T13:25:50.0000000+00:00</time></trkpt><trkpt lat="39.54437882" lon="-0.52370181"><ele>93.0</ele><time>2022-11-01T13:25:51.0000000+00:00</time></trkpt><trkpt lat="39.54442123" lon="-0.52373107"><ele>93.0</ele><time>2022-11-01T13:25:52.0000000+00:00</time></trkpt><trkpt lat="39.54446306" lon="-0.52376065"><ele>92.8</ele><time>2022-11-01T13:25:53.0000000+00:00</time></trkpt><trkpt lat="39.54450279" lon="-0.52379008"><ele>92.8</ele><time>2022-11-01T13:25:54.0000000+00:00</time></trkpt><trkpt lat="39.54454511" lon="-0.52381765"><ele>92.8</ele><time>2022-11-01T13:25:55.0000000+00:00</time></trkpt><trkpt lat="39.54458443" lon="-0.52384204"><ele>92.8</ele><time>2022-11-01T13:25:56.0000000+00:00</time></trkpt><trkpt lat="39.54461519" lon="-0.52386317"><ele>92.6</ele><time>2022-11-01T13:25:57.0000000+00:00</time></trkpt><trkpt lat="39.54463254" lon="-0.52388328"><ele>92.6</ele><time>2022-11-01T13:25:58.0000000+00:00</time></trkpt><trkpt lat="39.54464" lon="-0.52389024"><ele>92.4</ele><time>2022-11-01T13:25:59.0000000+00:00</time></trkpt><trkpt lat="39.54464" lon="-0.52389024"><ele>92.4</ele><time>2022-11-01T13:26:00.0000000+00:00</time></trkpt><trkpt lat="39.54464" lon="-0.52389024"><ele>92.4</ele><time>2022-11-01T13:26:01.0000000+00:00</time></trkpt><trkpt lat="39.54464" lon="-0.52389024"><ele>92.2</ele><time>2022-11-01T13:26:02.0000000+00:00</time></trkpt><trkpt lat="39.54464" lon="-0.52389024"><ele>92.2</ele><time>2022-11-01T13:26:03.0000000+00:00</time></trkpt><trkpt lat="39.54464008" lon="-0.52389116"><ele>92.0</ele><time>2022-11-01T13:26:04.0000000+00:00</time></trkpt><trkpt lat="39.54463832" lon="-0.52389342"><ele>92.0</ele><time>2022-11-01T13:26:05.0000000+00:00</time></trkpt><trkpt lat="39.54464151" lon="-0.52389694"><ele>92.0</ele><time>2022-11-01T13:26:06.0000000+00:00</time></trkpt><trkpt lat="39.54465576" lon="-0.52390424"><ele>92.2</ele><time>2022-11-01T13:26:07.0000000+00:00</time></trkpt><trkpt lat="39.54467738" lon="-0.52391983"><ele>92.2</ele><time>2022-11-01T13:26:08.0000000+00:00</time></trkpt><trkpt lat="39.54470839" lon="-0.5239417"><ele>92.2</ele><time>2022-11-01T13:26:09.0000000+00:00</time></trkpt><trkpt lat="39.54474444" lon="-0.52396886"><ele>92.2</ele><time>2022-11-01T13:26:10.0000000+00:00</time></trkpt><trkpt lat="39.54478576" lon="-0.52399845"><ele>92.2</ele><time>2022-11-01T13:26:11.0000000+00:00</time></trkpt><trkpt lat="39.54482918" lon="-0.52403323"><ele>92.2</ele><time>2022-11-01T13:26:12.0000000+00:00</time></trkpt><trkpt lat="39.54487494" lon="-0.52407062"><ele>92.2</ele><time>2022-11-01T13:26:13.0000000+00:00</time></trkpt><trkpt lat="39.54492104" lon="-0.52411144"><ele>92.2</ele><time>2022-11-01T13:26:14.0000000+00:00</time></trkpt><trkpt lat="39.54496714" lon="-0.52415293"><ele>92.2</ele><time>2022-11-01T13:26:15.0000000+00:00</time></trkpt><trkpt lat="39.54501777" lon="-0.52419207"><ele>92.4</ele><time>2022-11-01T13:26:16.0000000+00:00</time></trkpt><trkpt lat="39.5450725" lon="-0.52423398"><ele>92.4</ele><time>2022-11-01T13:26:17.0000000+00:00</time></trkpt><trkpt lat="39.54512573" lon="-0.52427413"><ele>92.6</ele><time>2022-11-01T13:26:18.0000000+00:00</time></trkpt><trkpt lat="39.5451782" lon="-0.52431663"><ele>92.6</ele><time>2022-11-01T13:26:19.0000000+00:00</time></trkpt><trkpt lat="39.54522145" lon="-0.52435535"><ele>92.6</ele><time>2022-11-01T13:26:20.0000000+00:00</time></trkpt><trkpt lat="39.54528624" lon="-0.52440673"><ele>92.6</ele><time>2022-11-01T13:26:21.0000000+00:00</time></trkpt><trkpt lat="39.54532589" lon="-0.52444395"><ele>92.6</ele><time>2022-11-01T13:26:22.0000000+00:00</time></trkpt><trkpt lat="39.54538305" lon="-0.52449751"><ele>92.6</ele><time>2022-11-01T13:26:23.0000000+00:00</time></trkpt><trkpt lat="39.54542438" lon="-0.52452768"><ele>92.8</ele><time>2022-11-01T13:26:24.0000000+00:00</time></trkpt><trkpt lat="39.54547492" lon="-0.52456414"><ele>93.0</ele><time>2022-11-01T13:26:25.0000000+00:00</time></trkpt><trkpt lat="39.54552077" lon="-0.52460253"><ele>93.0</ele><time>2022-11-01T13:26:26.0000000+00:00</time></trkpt><trkpt lat="39.54557626" lon="-0.52464872"><ele>93.2</ele><time>2022-11-01T13:26:27.0000000+00:00</time></trkpt><trkpt lat="39.54562739" lon="-0.5246887"><ele>93.2</ele><time>2022-11-01T13:26:28.0000000+00:00</time></trkpt><trkpt lat="39.54567416" lon="-0.52472843"><ele>93.2</ele><time>2022-11-01T13:26:29.0000000+00:00</time></trkpt><trkpt lat="39.54571607" lon="-0.52476724"><ele>93.2</ele><time>2022-11-01T13:26:30.0000000+00:00</time></trkpt><trkpt lat="39.54576233" lon="-0.52480831"><ele>93.2</ele><time>2022-11-01T13:26:31.0000000+00:00</time></trkpt><trkpt lat="39.54579519" lon="-0.52484376"><ele>93.2</ele><time>2022-11-01T13:26:32.0000000+00:00</time></trkpt><trkpt lat="39.54584892" lon="-0.524899"><ele>93.2</ele><time>2022-11-01T13:26:33.0000000+00:00</time></trkpt><trkpt lat="39.54589477" lon="-0.52493865"><ele>93.0</ele><time>2022-11-01T13:26:34.0000000+00:00</time></trkpt><trkpt lat="39.54593333" lon="-0.52497402"><ele>93.0</ele><time>2022-11-01T13:26:35.0000000+00:00</time></trkpt><trkpt lat="39.54598848" lon="-0.52502632"><ele>92.8</ele><time>2022-11-01T13:26:36.0000000+00:00</time></trkpt><trkpt lat="39.54603525" lon="-0.5250679"><ele>92.8</ele><time>2022-11-01T13:26:37.0000000+00:00</time></trkpt><trkpt lat="39.54608085" lon="-0.52510595"><ele>92.8</ele><time>2022-11-01T13:26:38.0000000+00:00</time></trkpt><trkpt lat="39.54612737" lon="-0.52514082"><ele>92.6</ele><time>2022-11-01T13:26:39.0000000+00:00</time></trkpt><trkpt lat="39.54617011" lon="-0.5251689"><ele>92.6</ele><time>2022-11-01T13:26:40.0000000+00:00</time></trkpt><trkpt lat="39.54620926" lon="-0.52519731"><ele>92.6</ele><time>2022-11-01T13:26:41.0000000+00:00</time></trkpt><trkpt lat="39.5462489" lon="-0.52522372"><ele>92.6</ele><time>2022-11-01T13:26:42.0000000+00:00</time></trkpt><trkpt lat="39.54628746" lon="-0.52525087"><ele>92.6</ele><time>2022-11-01T13:26:43.0000000+00:00</time></trkpt><trkpt lat="39.54632526" lon="-0.52527904"><ele>92.6</ele><time>2022-11-01T13:26:44.0000000+00:00</time></trkpt><trkpt lat="39.54636717" lon="-0.52531139"><ele>92.6</ele><time>2022-11-01T13:26:45.0000000+00:00</time></trkpt><trkpt lat="39.54640883" lon="-0.52534157"><ele>92.6</ele><time>2022-11-01T13:26:46.0000000+00:00</time></trkpt><trkpt lat="39.54645175" lon="-0.52537174"><ele>92.6</ele><time>2022-11-01T13:26:47.0000000+00:00</time></trkpt><trkpt lat="39.54649231" lon="-0.52540435"><ele>92.6</ele><time>2022-11-01T13:26:48.0000000+00:00</time></trkpt><trkpt lat="39.54653288" lon="-0.52543871"><ele>92.6</ele><time>2022-11-01T13:26:49.0000000+00:00</time></trkpt><trkpt lat="39.54656909" lon="-0.52547408"><ele>92.6</ele><time>2022-11-01T13:26:50.0000000+00:00</time></trkpt><trkpt lat="39.54660782" lon="-0.52550769"><ele>92.6</ele><time>2022-11-01T13:26:51.0000000+00:00</time></trkpt><trkpt lat="39.5466483" lon="-0.52553913"><ele>92.6</ele><time>2022-11-01T13:26:52.0000000+00:00</time></trkpt><trkpt lat="39.54668921" lon="-0.5255724"><ele>92.6</ele><time>2022-11-01T13:26:53.0000000+00:00</time></trkpt><trkpt lat="39.54673371" lon="-0.52560744"><ele>92.8</ele><time>2022-11-01T13:26:54.0000000+00:00</time></trkpt><trkpt lat="39.54677772" lon="-0.52564214"><ele>92.8</ele><time>2022-11-01T13:26:55.0000000+00:00</time></trkpt><trkpt lat="39.54682348" lon="-0.52567944"><ele>92.8</ele><time>2022-11-01T13:26:56.0000000+00:00</time></trkpt><trkpt lat="39.54686707" lon="-0.52571523"><ele>92.8</ele><time>2022-11-01T13:26:57.0000000+00:00</time></trkpt><trkpt lat="39.54691099" lon="-0.52574985"><ele>92.8</ele><time>2022-11-01T13:26:58.0000000+00:00</time></trkpt><trkpt lat="39.54695793" lon="-0.52578681"><ele>93.0</ele><time>2022-11-01T13:26:59.0000000+00:00</time></trkpt><trkpt lat="39.54700587" lon="-0.52582461"><ele>93.0</ele><time>2022-11-01T13:27:00.0000000+00:00</time></trkpt><trkpt lat="39.54705407" lon="-0.52585999"><ele>92.8</ele><time>2022-11-01T13:27:01.0000000+00:00</time></trkpt><trkpt lat="39.54710218" lon="-0.52589745"><ele>92.8</ele><time>2022-11-01T13:27:02.0000000+00:00</time></trkpt><trkpt lat="39.54714887" lon="-0.52593475"><ele>92.8</ele><time>2022-11-01T13:27:03.0000000+00:00</time></trkpt><trkpt lat="39.54719564" lon="-0.52597239"><ele>92.8</ele><time>2022-11-01T13:27:04.0000000+00:00</time></trkpt><trkpt lat="39.54724107" lon="-0.52600801"><ele>92.6</ele><time>2022-11-01T13:27:05.0000000+00:00</time></trkpt><trkpt lat="39.54728348" lon="-0.52604363"><ele>92.6</ele><time>2022-11-01T13:27:06.0000000+00:00</time></trkpt><trkpt lat="39.54732481" lon="-0.52607808"><ele>92.6</ele><time>2022-11-01T13:27:07.0000000+00:00</time></trkpt><trkpt lat="39.54736889" lon="-0.52611429"><ele>92.6</ele><time>2022-11-01T13:27:08.0000000+00:00</time></trkpt><trkpt lat="39.54741055" lon="-0.52615168"><ele>92.4</ele><time>2022-11-01T13:27:09.0000000+00:00</time></trkpt><trkpt lat="39.54745137" lon="-0.52618856"><ele>92.6</ele><time>2022-11-01T13:27:10.0000000+00:00</time></trkpt><trkpt lat="39.54749362" lon="-0.52622376"><ele>92.6</ele><time>2022-11-01T13:27:11.0000000+00:00</time></trkpt><trkpt lat="39.54753603" lon="-0.52625989"><ele>92.6</ele><time>2022-11-01T13:27:12.0000000+00:00</time></trkpt><trkpt lat="39.54757668" lon="-0.52629543"><ele>92.6</ele><time>2022-11-01T13:27:13.0000000+00:00</time></trkpt><trkpt lat="39.54761591" lon="-0.52633055"><ele>92.6</ele><time>2022-11-01T13:27:14.0000000+00:00</time></trkpt><trkpt lat="39.54765304" lon="-0.52636768"><ele>92.6</ele><time>2022-11-01T13:27:15.0000000+00:00</time></trkpt><trkpt lat="39.54768967" lon="-0.52640816"><ele>92.6</ele><time>2022-11-01T13:27:16.0000000+00:00</time></trkpt><trkpt lat="39.54772898" lon="-0.52645108"><ele>92.6</ele><time>2022-11-01T13:27:17.0000000+00:00</time></trkpt><trkpt lat="39.54777584" lon="-0.52649332"><ele>92.6</ele><time>2022-11-01T13:27:18.0000000+00:00</time></trkpt><trkpt lat="39.54782956" lon="-0.52654403"><ele>92.4</ele><time>2022-11-01T13:27:19.0000000+00:00</time></trkpt><trkpt lat="39.5478853" lon="-0.52660019"><ele>92.2</ele><time>2022-11-01T13:27:20.0000000+00:00</time></trkpt><trkpt lat="39.54793803" lon="-0.52666071"><ele>91.8</ele><time>2022-11-01T13:27:21.0000000+00:00</time></trkpt><trkpt lat="39.54799033" lon="-0.52672617"><ele>91.2</ele><time>2022-11-01T13:27:22.0000000+00:00</time></trkpt><trkpt lat="39.54804615" lon="-0.52679482"><ele>90.4</ele><time>2022-11-01T13:27:23.0000000+00:00</time></trkpt><trkpt lat="39.5481029" lon="-0.52687855"><ele>89.8</ele><time>2022-11-01T13:27:24.0000000+00:00</time></trkpt><trkpt lat="39.54815235" lon="-0.52696908"><ele>89.2</ele><time>2022-11-01T13:27:25.0000000+00:00</time></trkpt><trkpt lat="39.54818814" lon="-0.52706497"><ele>88.6</ele><time>2022-11-01T13:27:26.0000000+00:00</time></trkpt><trkpt lat="39.54821236" lon="-0.5271627"><ele>88.2</ele><time>2022-11-01T13:27:27.0000000+00:00</time></trkpt><trkpt lat="39.54821496" lon="-0.52726463"><ele>88.0</ele><time>2022-11-01T13:27:28.0000000+00:00</time></trkpt><trkpt lat="39.54819753" lon="-0.52736445"><ele>88.0</ele><time>2022-11-01T13:27:29.0000000+00:00</time></trkpt><trkpt lat="39.54817079" lon="-0.52745925"><ele>87.8</ele><time>2022-11-01T13:27:30.0000000+00:00</time></trkpt><trkpt lat="39.54814112" lon="-0.52754944"><ele>87.8</ele><time>2022-11-01T13:27:31.0000000+00:00</time></trkpt><trkpt lat="39.54810583" lon="-0.52763888"><ele>87.8</ele><time>2022-11-01T13:27:32.0000000+00:00</time></trkpt><trkpt lat="39.54807272" lon="-0.52772412"><ele>88.0</ele><time>2022-11-01T13:27:33.0000000+00:00</time></trkpt><trkpt lat="39.54804305" lon="-0.52781037"><ele>88.0</ele><time>2022-11-01T13:27:34.0000000+00:00</time></trkpt><trkpt lat="39.54801916" lon="-0.52790031"><ele>88.0</ele><time>2022-11-01T13:27:35.0000000+00:00</time></trkpt><trkpt lat="39.54800282" lon="-0.52799125"><ele>88.2</ele><time>2022-11-01T13:27:36.0000000+00:00</time></trkpt><trkpt lat="39.54799041" lon="-0.52809016"><ele>88.2</ele><time>2022-11-01T13:27:37.0000000+00:00</time></trkpt><trkpt lat="39.54798924" lon="-0.52819007"><ele>88.2</ele><time>2022-11-01T13:27:38.0000000+00:00</time></trkpt><trkpt lat="39.54799946" lon="-0.528279"><ele>88.2</ele><time>2022-11-01T13:27:39.0000000+00:00</time></trkpt><trkpt lat="39.54801782" lon="-0.52836366"><ele>88.4</ele><time>2022-11-01T13:27:40.0000000+00:00</time></trkpt><trkpt lat="39.54804221" lon="-0.52843507"><ele>88.4</ele><time>2022-11-01T13:27:41.0000000+00:00</time></trkpt><trkpt lat="39.54807406" lon="-0.52850246"><ele>88.6</ele><time>2022-11-01T13:27:42.0000000+00:00</time></trkpt><trkpt lat="39.54811421" lon="-0.5285598"><ele>88.8</ele><time>2022-11-01T13:27:43.0000000+00:00</time></trkpt><trkpt lat="39.54816459" lon="-0.52860397"><ele>89.0</ele><time>2022-11-01T13:27:44.0000000+00:00</time></trkpt><trkpt lat="39.54820608" lon="-0.52864655"><ele>89.0</ele><time>2022-11-01T13:27:45.0000000+00:00</time></trkpt><trkpt lat="39.54825637" lon="-0.52867245"><ele>89.2</ele><time>2022-11-01T13:27:46.0000000+00:00</time></trkpt><trkpt lat="39.54831446" lon="-0.52868217"><ele>89.4</ele><time>2022-11-01T13:27:47.0000000+00:00</time></trkpt><trkpt lat="39.54836693" lon="-0.52869659"><ele>89.6</ele><time>2022-11-01T13:27:48.0000000+00:00</time></trkpt><trkpt lat="39.54841521" lon="-0.52870036"><ele>89.8</ele><time>2022-11-01T13:27:49.0000000+00:00</time></trkpt><trkpt lat="39.54846893" lon="-0.52870086"><ele>90.2</ele><time>2022-11-01T13:27:50.0000000+00:00</time></trkpt><trkpt lat="39.54852434" lon="-0.52870262"><ele>90.4</ele><time>2022-11-01T13:27:51.0000000+00:00</time></trkpt><trkpt lat="39.54857287" lon="-0.52869659"><ele>90.6</ele><time>2022-11-01T13:27:52.0000000+00:00</time></trkpt><trkpt lat="39.54861059" lon="-0.52869424"><ele>90.8</ele><time>2022-11-01T13:27:53.0000000+00:00</time></trkpt><trkpt lat="39.54863917" lon="-0.52869516"><ele>90.8</ele><time>2022-11-01T13:27:54.0000000+00:00</time></trkpt><trkpt lat="39.54867119" lon="-0.5286955"><ele>90.8</ele><time>2022-11-01T13:27:55.0000000+00:00</time></trkpt><trkpt lat="39.54870321" lon="-0.52869491"><ele>91.0</ele><time>2022-11-01T13:27:56.0000000+00:00</time></trkpt><trkpt lat="39.54875182" lon="-0.52869223"><ele>90.8</ele><time>2022-11-01T13:27:57.0000000+00:00</time></trkpt><trkpt lat="39.54879122" lon="-0.52869282"><ele>90.6</ele><time>2022-11-01T13:27:58.0000000+00:00</time></trkpt><trkpt lat="39.54884327" lon="-0.52868703"><ele>90.4</ele><time>2022-11-01T13:27:59.0000000+00:00</time></trkpt><trkpt lat="39.54890018" lon="-0.52868083"><ele>90.2</ele><time>2022-11-01T13:28:00.0000000+00:00</time></trkpt><trkpt lat="39.54896204" lon="-0.52867698"><ele>90.0</ele><time>2022-11-01T13:28:01.0000000+00:00</time></trkpt><trkpt lat="39.54902717" lon="-0.52866524"><ele>89.4</ele><time>2022-11-01T13:28:02.0000000+00:00</time></trkpt><trkpt lat="39.54909163" lon="-0.52863658"><ele>89.2</ele><time>2022-11-01T13:28:03.0000000+00:00</time></trkpt><trkpt lat="39.54914862" lon="-0.52858871"><ele>88.8</ele><time>2022-11-01T13:28:04.0000000+00:00</time></trkpt><trkpt lat="39.54920654" lon="-0.52853608"><ele>88.4</ele><time>2022-11-01T13:28:05.0000000+00:00</time></trkpt><trkpt lat="39.54925943" lon="-0.52849752"><ele>88.0</ele><time>2022-11-01T13:28:06.0000000+00:00</time></trkpt><trkpt lat="39.54930939" lon="-0.52848042"><ele>87.8</ele><time>2022-11-01T13:28:07.0000000+00:00</time></trkpt><trkpt lat="39.54935172" lon="-0.52849333"><ele>87.8</ele><time>2022-11-01T13:28:08.0000000+00:00</time></trkpt><trkpt lat="39.54938198" lon="-0.5285339"><ele>87.6</ele><time>2022-11-01T13:28:09.0000000+00:00</time></trkpt><trkpt lat="39.54940125" lon="-0.52859349"><ele>87.4</ele><time>2022-11-01T13:28:10.0000000+00:00</time></trkpt><trkpt lat="39.54940628" lon="-0.52865803"><ele>87.4</ele><time>2022-11-01T13:28:11.0000000+00:00</time></trkpt><trkpt lat="39.54939815" lon="-0.52871637"><ele>87.2</ele><time>2022-11-01T13:28:12.0000000+00:00</time></trkpt><trkpt lat="39.54937477" lon="-0.52876591"><ele>87.2</ele><time>2022-11-01T13:28:13.0000000+00:00</time></trkpt><trkpt lat="39.54934124" lon="-0.52880765"><ele>87.2</ele><time>2022-11-01T13:28:14.0000000+00:00</time></trkpt><trkpt lat="39.54930763" lon="-0.52884738"><ele>87.2</ele><time>2022-11-01T13:28:15.0000000+00:00</time></trkpt><trkpt lat="39.54927527" lon="-0.52889331"><ele>87.2</ele><time>2022-11-01T13:28:16.0000000+00:00</time></trkpt><trkpt lat="39.54924619" lon="-0.52894528"><ele>87.4</ele><time>2022-11-01T13:28:17.0000000+00:00</time></trkpt><trkpt lat="39.54922004" lon="-0.52900345"><ele>87.4</ele><time>2022-11-01T13:28:18.0000000+00:00</time></trkpt><trkpt lat="39.54920327" lon="-0.52906355"><ele>87.4</ele><time>2022-11-01T13:28:19.0000000+00:00</time></trkpt><trkpt lat="39.54918743" lon="-0.52912524"><ele>87.4</ele><time>2022-11-01T13:28:20.0000000+00:00</time></trkpt><trkpt lat="39.54917327" lon="-0.5291866"><ele>87.6</ele><time>2022-11-01T13:28:21.0000000+00:00</time></trkpt><trkpt lat="39.54915868" lon="-0.52925063"><ele>87.6</ele><time>2022-11-01T13:28:22.0000000+00:00</time></trkpt><trkpt lat="39.54914879" lon="-0.52931719"><ele>87.6</ele><time>2022-11-01T13:28:23.0000000+00:00</time></trkpt><trkpt lat="39.54914209" lon="-0.52938055"><ele>87.6</ele><time>2022-11-01T13:28:24.0000000+00:00</time></trkpt><trkpt lat="39.54913572" lon="-0.52944208"><ele>87.6</ele><time>2022-11-01T13:28:25.0000000+00:00</time></trkpt><trkpt lat="39.54913018" lon="-0.5294984"><ele>87.8</ele><time>2022-11-01T13:28:26.0000000+00:00</time></trkpt><trkpt lat="39.54912448" lon="-0.52955037"><ele>88.0</ele><time>2022-11-01T13:28:27.0000000+00:00</time></trkpt><trkpt lat="39.54911971" lon="-0.52960234"><ele>88.2</ele><time>2022-11-01T13:28:28.0000000+00:00</time></trkpt><trkpt lat="39.5491161" lon="-0.52964903"><ele>88.2</ele><time>2022-11-01T13:28:29.0000000+00:00</time></trkpt><trkpt lat="39.54911007" lon="-0.52969412"><ele>88.2</ele><time>2022-11-01T13:28:30.0000000+00:00</time></trkpt><trkpt lat="39.54910512" lon="-0.52973494"><ele>88.4</ele><time>2022-11-01T13:28:31.0000000+00:00</time></trkpt><trkpt lat="39.54910269" lon="-0.52977098"><ele>88.6</ele><time>2022-11-01T13:28:32.0000000+00:00</time></trkpt><trkpt lat="39.54910068" lon="-0.52980652"><ele>88.6</ele><time>2022-11-01T13:28:33.0000000+00:00</time></trkpt><trkpt lat="39.54910043" lon="-0.52984089"><ele>88.8</ele><time>2022-11-01T13:28:34.0000000+00:00</time></trkpt><trkpt lat="39.54910244" lon="-0.52987207"><ele>89.0</ele><time>2022-11-01T13:28:35.0000000+00:00</time></trkpt><trkpt lat="39.54910529" lon="-0.52990476"><ele>89.0</ele><time>2022-11-01T13:28:36.0000000+00:00</time></trkpt><trkpt lat="39.54910772" lon="-0.52993694"><ele>89.2</ele><time>2022-11-01T13:28:37.0000000+00:00</time></trkpt><trkpt lat="39.54910495" lon="-0.52996427"><ele>89.4</ele><time>2022-11-01T13:28:38.0000000+00:00</time></trkpt><trkpt lat="39.54910118" lon="-0.53000819"><ele>89.8</ele><time>2022-11-01T13:28:39.0000000+00:00</time></trkpt><trkpt lat="39.54910026" lon="-0.53004817"><ele>89.8</ele><time>2022-11-01T13:28:40.0000000+00:00</time></trkpt><trkpt lat="39.54909867" lon="-0.53009151"><ele>90.0</ele><time>2022-11-01T13:28:41.0000000+00:00</time></trkpt><trkpt lat="39.54909456" lon="-0.53013308"><ele>90.0</ele><time>2022-11-01T13:28:42.0000000+00:00</time></trkpt><trkpt lat="39.5490923" lon="-0.53017348"><ele>90.2</ele><time>2022-11-01T13:28:43.0000000+00:00</time></trkpt><trkpt lat="39.54909205" lon="-0.53021338"><ele>90.2</ele><time>2022-11-01T13:28:44.0000000+00:00</time></trkpt><trkpt lat="39.54909397" lon="-0.53024959"><ele>90.2</ele><time>2022-11-01T13:28:45.0000000+00:00</time></trkpt><trkpt lat="39.54909347" lon="-0.53029007"><ele>90.4</ele><time>2022-11-01T13:28:46.0000000+00:00</time></trkpt><trkpt lat="39.54909138" lon="-0.53033114"><ele>90.6</ele><time>2022-11-01T13:28:47.0000000+00:00</time></trkpt><trkpt lat="39.54909221" lon="-0.53037398"><ele>90.6</ele><time>2022-11-01T13:28:48.0000000+00:00</time></trkpt><trkpt lat="39.54909724" lon="-0.53041522"><ele>90.6</ele><time>2022-11-01T13:28:49.0000000+00:00</time></trkpt><trkpt lat="39.549099" lon="-0.53045981"><ele>90.6</ele><time>2022-11-01T13:28:50.0000000+00:00</time></trkpt><trkpt lat="39.54909875" lon="-0.5305054"><ele>90.6</ele><time>2022-11-01T13:28:51.0000000+00:00</time></trkpt><trkpt lat="39.54909775" lon="-0.53055201"><ele>90.8</ele><time>2022-11-01T13:28:52.0000000+00:00</time></trkpt><trkpt lat="39.54909288" lon="-0.5306049"><ele>90.8</ele><time>2022-11-01T13:28:53.0000000+00:00</time></trkpt><trkpt lat="39.54908718" lon="-0.53065485"><ele>91.0</ele><time>2022-11-01T13:28:54.0000000+00:00</time></trkpt><trkpt lat="39.54908408" lon="-0.5307054"><ele>91.0</ele><time>2022-11-01T13:28:55.0000000+00:00</time></trkpt><trkpt lat="39.54908283" lon="-0.53075946"><ele>91.0</ele><time>2022-11-01T13:28:56.0000000+00:00</time></trkpt><trkpt lat="39.54908517" lon="-0.53081059"><ele>91.2</ele><time>2022-11-01T13:28:57.0000000+00:00</time></trkpt><trkpt lat="39.54908635" lon="-0.53086398"><ele>91.2</ele><time>2022-11-01T13:28:58.0000000+00:00</time></trkpt><trkpt lat="39.54908559" lon="-0.53091721"><ele>91.2</ele><time>2022-11-01T13:28:59.0000000+00:00</time></trkpt><trkpt lat="39.54908609" lon="-0.53096968"><ele>91.2</ele><time>2022-11-01T13:29:00.0000000+00:00</time></trkpt><trkpt lat="39.54908366" lon="-0.53102701"><ele>91.2</ele><time>2022-11-01T13:29:01.0000000+00:00</time></trkpt><trkpt lat="39.54908023" lon="-0.53108619"><ele>91.4</ele><time>2022-11-01T13:29:02.0000000+00:00</time></trkpt><trkpt lat="39.54907813" lon="-0.53114385"><ele>91.4</ele><time>2022-11-01T13:29:03.0000000+00:00</time></trkpt><trkpt lat="39.54907352" lon="-0.53120018"><ele>91.4</ele><time>2022-11-01T13:29:04.0000000+00:00</time></trkpt><trkpt lat="39.54906883" lon="-0.531255"><ele>91.6</ele><time>2022-11-01T13:29:05.0000000+00:00</time></trkpt><trkpt lat="39.54906665" lon="-0.5313104"><ele>91.6</ele><time>2022-11-01T13:29:06.0000000+00:00</time></trkpt><trkpt lat="39.54906573" lon="-0.53136312"><ele>91.8</ele><time>2022-11-01T13:29:07.0000000+00:00</time></trkpt><trkpt lat="39.54906388" lon="-0.53141467"><ele>91.8</ele><time>2022-11-01T13:29:08.0000000+00:00</time></trkpt><trkpt lat="39.54906405" lon="-0.5314674"><ele>91.8</ele><time>2022-11-01T13:29:09.0000000+00:00</time></trkpt><trkpt lat="39.54906439" lon="-0.53152439"><ele>91.8</ele><time>2022-11-01T13:29:10.0000000+00:00</time></trkpt><trkpt lat="39.5490648" lon="-0.53158332"><ele>92.0</ele><time>2022-11-01T13:29:11.0000000+00:00</time></trkpt><trkpt lat="39.54906455" lon="-0.5316471"><ele>92.0</ele><time>2022-11-01T13:29:12.0000000+00:00</time></trkpt><trkpt lat="39.54906791" lon="-0.53170988"><ele>92.0</ele><time>2022-11-01T13:29:13.0000000+00:00</time></trkpt><trkpt lat="39.54906992" lon="-0.53177501"><ele>92.0</ele><time>2022-11-01T13:29:14.0000000+00:00</time></trkpt><trkpt lat="39.54907076" lon="-0.53184349"><ele>92.0</ele><time>2022-11-01T13:29:15.0000000+00:00</time></trkpt><trkpt lat="39.54906992" lon="-0.53191641"><ele>92.2</ele><time>2022-11-01T13:29:16.0000000+00:00</time></trkpt><trkpt lat="39.54907419" lon="-0.53198741"><ele>92.2</ele><time>2022-11-01T13:29:17.0000000+00:00</time></trkpt><trkpt lat="39.54908526" lon="-0.53205698"><ele>92.2</ele><time>2022-11-01T13:29:18.0000000+00:00</time></trkpt><trkpt lat="39.54909347" lon="-0.53212722"><ele>92.2</ele><time>2022-11-01T13:29:19.0000000+00:00</time></trkpt><trkpt lat="39.54910085" lon="-0.53219176"><ele>92.2</ele><time>2022-11-01T13:29:20.0000000+00:00</time></trkpt><trkpt lat="39.54911241" lon="-0.53225018"><ele>92.2</ele><time>2022-11-01T13:29:21.0000000+00:00</time></trkpt><trkpt lat="39.54912784" lon="-0.53230533"><ele>92.2</ele><time>2022-11-01T13:29:22.0000000+00:00</time></trkpt><trkpt lat="39.54914116" lon="-0.53235646"><ele>92.4</ele><time>2022-11-01T13:29:23.0000000+00:00</time></trkpt><trkpt lat="39.54915256" lon="-0.53240608"><ele>92.4</ele><time>2022-11-01T13:29:24.0000000+00:00</time></trkpt><trkpt lat="39.54916304" lon="-0.53245369"><ele>92.4</ele><time>2022-11-01T13:29:25.0000000+00:00</time></trkpt><trkpt lat="39.54917528" lon="-0.53249703"><ele>92.4</ele><time>2022-11-01T13:29:26.0000000+00:00</time></trkpt><trkpt lat="39.54918844" lon="-0.53254103"><ele>92.4</ele><time>2022-11-01T13:29:27.0000000+00:00</time></trkpt><trkpt lat="39.54920151" lon="-0.53258831"><ele>92.6</ele><time>2022-11-01T13:29:28.0000000+00:00</time></trkpt><trkpt lat="39.54921501" lon="-0.53263877"><ele>93.0</ele><time>2022-11-01T13:29:29.0000000+00:00</time></trkpt><trkpt lat="39.54923244" lon="-0.5326883"><ele>93.0</ele><time>2022-11-01T13:29:30.0000000+00:00</time></trkpt><trkpt lat="39.54924996" lon="-0.53274027"><ele>93.2</ele><time>2022-11-01T13:29:31.0000000+00:00</time></trkpt><trkpt lat="39.54926639" lon="-0.532794"><ele>93.2</ele><time>2022-11-01T13:29:32.0000000+00:00</time></trkpt><trkpt lat="39.54928542" lon="-0.53284739"><ele>93.2</ele><time>2022-11-01T13:29:33.0000000+00:00</time></trkpt><trkpt lat="39.54930545" lon="-0.53290137"><ele>93.2</ele><time>2022-11-01T13:29:34.0000000+00:00</time></trkpt><trkpt lat="39.54932246" lon="-0.53296172"><ele>93.2</ele><time>2022-11-01T13:29:35.0000000+00:00</time></trkpt><trkpt lat="39.5493373" lon="-0.53302526"><ele>93.2</ele><time>2022-11-01T13:29:36.0000000+00:00</time></trkpt><trkpt lat="39.54935432" lon="-0.53309005"><ele>93.2</ele><time>2022-11-01T13:29:37.0000000+00:00</time></trkpt><trkpt lat="39.54937276" lon="-0.53315702"><ele>93.2</ele><time>2022-11-01T13:29:38.0000000+00:00</time></trkpt><trkpt lat="39.54939086" lon="-0.53321921"><ele>93.2</ele><time>2022-11-01T13:29:39.0000000+00:00</time></trkpt><trkpt lat="39.54940804" lon="-0.53328199"><ele>93.4</ele><time>2022-11-01T13:29:40.0000000+00:00</time></trkpt><trkpt lat="39.54942397" lon="-0.53334477"><ele>93.4</ele><time>2022-11-01T13:29:41.0000000+00:00</time></trkpt><trkpt lat="39.54944107" lon="-0.53340605"><ele>93.4</ele><time>2022-11-01T13:29:42.0000000+00:00</time></trkpt><trkpt lat="39.54945448" lon="-0.53346229"><ele>93.4</ele><time>2022-11-01T13:29:43.0000000+00:00</time></trkpt><trkpt lat="39.54946613" lon="-0.5335249"><ele>93.2</ele><time>2022-11-01T13:29:44.0000000+00:00</time></trkpt><trkpt lat="39.54947937" lon="-0.53359036"><ele>93.2</ele><time>2022-11-01T13:29:45.0000000+00:00</time></trkpt><trkpt lat="39.54949446" lon="-0.53365231"><ele>93.2</ele><time>2022-11-01T13:29:46.0000000+00:00</time></trkpt><trkpt lat="39.54951022" lon="-0.53371475"><ele>93.2</ele><time>2022-11-01T13:29:47.0000000+00:00</time></trkpt><trkpt lat="39.5495274" lon="-0.53377661"><ele>93.2</ele><time>2022-11-01T13:29:48.0000000+00:00</time></trkpt><trkpt lat="39.54954844" lon="-0.53383612"><ele>93.4</ele><time>2022-11-01T13:29:49.0000000+00:00</time></trkpt><trkpt lat="39.54956629" lon="-0.53389597"><ele>93.4</ele><time>2022-11-01T13:29:50.0000000+00:00</time></trkpt><trkpt lat="39.54958398" lon="-0.53395758"><ele>93.6</ele><time>2022-11-01T13:29:51.0000000+00:00</time></trkpt><trkpt lat="39.54960099" lon="-0.53402111"><ele>93.6</ele><time>2022-11-01T13:29:52.0000000+00:00</time></trkpt><trkpt lat="39.54961742" lon="-0.53408657"><ele>93.6</ele><time>2022-11-01T13:29:53.0000000+00:00</time></trkpt><trkpt lat="39.54963611" lon="-0.53415145"><ele>93.6</ele><time>2022-11-01T13:29:54.0000000+00:00</time></trkpt><trkpt lat="39.54965129" lon="-0.53421808"><ele>93.6</ele><time>2022-11-01T13:29:55.0000000+00:00</time></trkpt><trkpt lat="39.54966445" lon="-0.53428497"><ele>93.6</ele><time>2022-11-01T13:29:56.0000000+00:00</time></trkpt><trkpt lat="39.5496745" lon="-0.53435018"><ele>93.6</ele><time>2022-11-01T13:29:57.0000000+00:00</time></trkpt><trkpt lat="39.54967861" lon="-0.53441288"><ele>93.6</ele><time>2022-11-01T13:29:58.0000000+00:00</time></trkpt><trkpt lat="39.54968247" lon="-0.53447155"><ele>93.4</ele><time>2022-11-01T13:29:59.0000000+00:00</time></trkpt><trkpt lat="39.54968523" lon="-0.53452788"><ele>93.0</ele><time>2022-11-01T13:30:00.0000000+00:00</time></trkpt><trkpt lat="39.54968213" lon="-0.53458991"><ele>92.6</ele><time>2022-11-01T13:30:01.0000000+00:00</time></trkpt><trkpt lat="39.54967786" lon="-0.53465269"><ele>92.4</ele><time>2022-11-01T13:30:02.0000000+00:00</time></trkpt><trkpt lat="39.54967358" lon="-0.53471555"><ele>92.2</ele><time>2022-11-01T13:30:03.0000000+00:00</time></trkpt><trkpt lat="39.54966989" lon="-0.53478026"><ele>92.2</ele><time>2022-11-01T13:30:04.0000000+00:00</time></trkpt><trkpt lat="39.54966554" lon="-0.53484346"><ele>92.2</ele><time>2022-11-01T13:30:05.0000000+00:00</time></trkpt><trkpt lat="39.54965984" lon="-0.53490825"><ele>92.2</ele><time>2022-11-01T13:30:06.0000000+00:00</time></trkpt><trkpt lat="39.5496564" lon="-0.53497489"><ele>92.4</ele><time>2022-11-01T13:30:07.0000000+00:00</time></trkpt><trkpt lat="39.54965279" lon="-0.53503758"><ele>92.6</ele><time>2022-11-01T13:30:08.0000000+00:00</time></trkpt><trkpt lat="39.54964768" lon="-0.53509768"><ele>92.6</ele><time>2022-11-01T13:30:09.0000000+00:00</time></trkpt><trkpt lat="39.54964014" lon="-0.53515736"><ele>93.0</ele><time>2022-11-01T13:30:10.0000000+00:00</time></trkpt><trkpt lat="39.54963394" lon="-0.53521704"><ele>93.0</ele><time>2022-11-01T13:30:11.0000000+00:00</time></trkpt><trkpt lat="39.54963251" lon="-0.5352768"><ele>93.2</ele><time>2022-11-01T13:30:12.0000000+00:00</time></trkpt><trkpt lat="39.54963008" lon="-0.53533481"><ele>93.2</ele><time>2022-11-01T13:30:13.0000000+00:00</time></trkpt><trkpt lat="39.54963016" lon="-0.53538937"><ele>93.2</ele><time>2022-11-01T13:30:14.0000000+00:00</time></trkpt><trkpt lat="39.5496279" lon="-0.53544587"><ele>93.2</ele><time>2022-11-01T13:30:15.0000000+00:00</time></trkpt><trkpt lat="39.54962689" lon="-0.53550437"><ele>93.0</ele><time>2022-11-01T13:30:16.0000000+00:00</time></trkpt><trkpt lat="39.54962958" lon="-0.53556087"><ele>93.0</ele><time>2022-11-01T13:30:17.0000000+00:00</time></trkpt><trkpt lat="39.54962497" lon="-0.53562289"><ele>92.8</ele><time>2022-11-01T13:30:18.0000000+00:00</time></trkpt><trkpt lat="39.54961642" lon="-0.53568844"><ele>92.8</ele><time>2022-11-01T13:30:19.0000000+00:00</time></trkpt><trkpt lat="39.54960762" lon="-0.53575574"><ele>92.8</ele><time>2022-11-01T13:30:20.0000000+00:00</time></trkpt><trkpt lat="39.54960041" lon="-0.53582397"><ele>92.8</ele><time>2022-11-01T13:30:21.0000000+00:00</time></trkpt><trkpt lat="39.549602" lon="-0.53589153"><ele>92.8</ele><time>2022-11-01T13:30:22.0000000+00:00</time></trkpt><trkpt lat="39.54961172" lon="-0.53595959"><ele>92.8</ele><time>2022-11-01T13:30:23.0000000+00:00</time></trkpt><trkpt lat="39.54963385" lon="-0.5360186"><ele>92.8</ele><time>2022-11-01T13:30:24.0000000+00:00</time></trkpt><trkpt lat="39.54965791" lon="-0.53606889"><ele>93.0</ele><time>2022-11-01T13:30:25.0000000+00:00</time></trkpt><trkpt lat="39.54967995" lon="-0.53612522"><ele>93.0</ele><time>2022-11-01T13:30:26.0000000+00:00</time></trkpt><trkpt lat="39.54969848" lon="-0.53618398"><ele>93.0</ele><time>2022-11-01T13:30:27.0000000+00:00</time></trkpt><trkpt lat="39.54970216" lon="-0.53624726"><ele>93.0</ele><time>2022-11-01T13:30:28.0000000+00:00</time></trkpt><trkpt lat="39.54970493" lon="-0.53631708"><ele>93.2</ele><time>2022-11-01T13:30:29.0000000+00:00</time></trkpt><trkpt lat="39.54971004" lon="-0.53638824"><ele>93.2</ele><time>2022-11-01T13:30:30.0000000+00:00</time></trkpt><trkpt lat="39.54972002" lon="-0.53645739"><ele>93.2</ele><time>2022-11-01T13:30:31.0000000+00:00</time></trkpt><trkpt lat="39.54973519" lon="-0.53652101"><ele>93.2</ele><time>2022-11-01T13:30:32.0000000+00:00</time></trkpt><trkpt lat="39.54974734" lon="-0.5365858"><ele>93.4</ele><time>2022-11-01T13:30:33.0000000+00:00</time></trkpt><trkpt lat="39.54976629" lon="-0.53664515"><ele>93.4</ele><time>2022-11-01T13:30:34.0000000+00:00</time></trkpt><trkpt lat="39.54978674" lon="-0.53669795"><ele>93.6</ele><time>2022-11-01T13:30:35.0000000+00:00</time></trkpt><trkpt lat="39.5498066" lon="-0.536749"><ele>93.6</ele><time>2022-11-01T13:30:36.0000000+00:00</time></trkpt><trkpt lat="39.54982404" lon="-0.53679929"><ele>93.6</ele><time>2022-11-01T13:30:37.0000000+00:00</time></trkpt><trkpt lat="39.54984114" lon="-0.53685126"><ele>93.8</ele><time>2022-11-01T13:30:38.0000000+00:00</time></trkpt><trkpt lat="39.54985354" lon="-0.53689116"><ele>93.8</ele><time>2022-11-01T13:30:39.0000000+00:00</time></trkpt><trkpt lat="39.549876" lon="-0.53694346"><ele>94.0</ele><time>2022-11-01T13:30:40.0000000+00:00</time></trkpt><trkpt lat="39.54989369" lon="-0.53698302"><ele>94.0</ele><time>2022-11-01T13:30:41.0000000+00:00</time></trkpt><trkpt lat="39.54990719" lon="-0.53702468"><ele>94.0</ele><time>2022-11-01T13:30:42.0000000+00:00</time></trkpt><trkpt lat="39.54991682" lon="-0.53706491"><ele>94.0</ele><time>2022-11-01T13:30:43.0000000+00:00</time></trkpt><trkpt lat="39.54992697" lon="-0.53709995"><ele>94.2</ele><time>2022-11-01T13:30:44.0000000+00:00</time></trkpt><trkpt lat="39.54993828" lon="-0.53713348"><ele>94.0</ele><time>2022-11-01T13:30:45.0000000+00:00</time></trkpt><trkpt lat="39.54995136" lon="-0.53716893"><ele>94.0</ele><time>2022-11-01T13:30:46.0000000+00:00</time></trkpt><trkpt lat="39.54996393" lon="-0.53720598"><ele>94.0</ele><time>2022-11-01T13:30:47.0000000+00:00</time></trkpt><trkpt lat="39.54997575" lon="-0.53724278"><ele>94.2</ele><time>2022-11-01T13:30:48.0000000+00:00</time></trkpt><trkpt lat="39.54998849" lon="-0.53727756"><ele>94.2</ele><time>2022-11-01T13:30:49.0000000+00:00</time></trkpt><trkpt lat="39.55000115" lon="-0.53730816"><ele>94.2</ele><time>2022-11-01T13:30:50.0000000+00:00</time></trkpt><trkpt lat="39.55001632" lon="-0.53734026"><ele>94.4</ele><time>2022-11-01T13:30:51.0000000+00:00</time></trkpt><trkpt lat="39.55002914" lon="-0.53737421"><ele>94.4</ele><time>2022-11-01T13:30:52.0000000+00:00</time></trkpt><trkpt lat="39.55004063" lon="-0.53740639"><ele>94.6</ele><time>2022-11-01T13:30:53.0000000+00:00</time></trkpt><trkpt lat="39.55005328" lon="-0.53743816"><ele>94.6</ele><time>2022-11-01T13:30:54.0000000+00:00</time></trkpt><trkpt lat="39.55006443" lon="-0.53746817"><ele>94.6</ele><time>2022-11-01T13:30:55.0000000+00:00</time></trkpt><trkpt lat="39.550076" lon="-0.53749675"><ele>94.8</ele><time>2022-11-01T13:30:56.0000000+00:00</time></trkpt><trkpt lat="39.55008698" lon="-0.53752927"><ele>94.8</ele><time>2022-11-01T13:30:57.0000000+00:00</time></trkpt><trkpt lat="39.55009469" lon="-0.53756598"><ele>94.8</ele><time>2022-11-01T13:30:58.0000000+00:00</time></trkpt><trkpt lat="39.5501029" lon="-0.5376011"><ele>95.0</ele><time>2022-11-01T13:30:59.0000000+00:00</time></trkpt><trkpt lat="39.55011237" lon="-0.53763606"><ele>95.2</ele><time>2022-11-01T13:31:00.0000000+00:00</time></trkpt><trkpt lat="39.55012118" lon="-0.53766581"><ele>95.2</ele><time>2022-11-01T13:31:01.0000000+00:00</time></trkpt><trkpt lat="39.55012495" lon="-0.53769674"><ele>95.4</ele><time>2022-11-01T13:31:02.0000000+00:00</time></trkpt><trkpt lat="39.55013216" lon="-0.53773144"><ele>95.4</ele><time>2022-11-01T13:31:03.0000000+00:00</time></trkpt><trkpt lat="39.55014741" lon="-0.53777042"><ele>95.4</ele><time>2022-11-01T13:31:04.0000000+00:00</time></trkpt><trkpt lat="39.55016426" lon="-0.53781216"><ele>95.4</ele><time>2022-11-01T13:31:05.0000000+00:00</time></trkpt><trkpt lat="39.55017926" lon="-0.53784996"><ele>95.6</ele><time>2022-11-01T13:31:06.0000000+00:00</time></trkpt><trkpt lat="39.55019494" lon="-0.53789078"><ele>95.6</ele><time>2022-11-01T13:31:07.0000000+00:00</time></trkpt><trkpt lat="39.55021304" lon="-0.53793286"><ele>95.6</ele><time>2022-11-01T13:31:08.0000000+00:00</time></trkpt><trkpt lat="39.55022771" lon="-0.53797519"><ele>95.8</ele><time>2022-11-01T13:31:09.0000000+00:00</time></trkpt><trkpt lat="39.55024372" lon="-0.53802012"><ele>95.8</ele><time>2022-11-01T13:31:10.0000000+00:00</time></trkpt><trkpt lat="39.55026065" lon="-0.53806714"><ele>95.8</ele><time>2022-11-01T13:31:11.0000000+00:00</time></trkpt><trkpt lat="39.55027406" lon="-0.53811391"><ele>95.8</ele><time>2022-11-01T13:31:12.0000000+00:00</time></trkpt><trkpt lat="39.55028789" lon="-0.53816093"><ele>96.0</ele><time>2022-11-01T13:31:13.0000000+00:00</time></trkpt><trkpt lat="39.55030357" lon="-0.53821097"><ele>95.8</ele><time>2022-11-01T13:31:14.0000000+00:00</time></trkpt><trkpt lat="39.55031388" lon="-0.53824953"><ele>96.0</ele><time>2022-11-01T13:31:15.0000000+00:00</time></trkpt><trkpt lat="39.55032561" lon="-0.53828381"><ele>96.0</ele><time>2022-11-01T13:31:16.0000000+00:00</time></trkpt><trkpt lat="39.55033994" lon="-0.53831927"><ele>96.0</ele><time>2022-11-01T13:31:17.0000000+00:00</time></trkpt><trkpt lat="39.55035553" lon="-0.53835573"><ele>96.0</ele><time>2022-11-01T13:31:18.0000000+00:00</time></trkpt><trkpt lat="39.55037247" lon="-0.53839093"><ele>96.0</ele><time>2022-11-01T13:31:19.0000000+00:00</time></trkpt><trkpt lat="39.55038655" lon="-0.53842379"><ele>96.0</ele><time>2022-11-01T13:31:20.0000000+00:00</time></trkpt><trkpt lat="39.55040021" lon="-0.53845489"><ele>96.0</ele><time>2022-11-01T13:31:21.0000000+00:00</time></trkpt><trkpt lat="39.55040993" lon="-0.53848447"><ele>96.0</ele><time>2022-11-01T13:31:22.0000000+00:00</time></trkpt><trkpt lat="39.55041798" lon="-0.53851004"><ele>96.0</ele><time>2022-11-01T13:31:23.0000000+00:00</time></trkpt><trkpt lat="39.55042552" lon="-0.53853284"><ele>96.0</ele><time>2022-11-01T13:31:24.0000000+00:00</time></trkpt><trkpt lat="39.55043256" lon="-0.53855765"><ele>96.0</ele><time>2022-11-01T13:31:25.0000000+00:00</time></trkpt><trkpt lat="39.55044421" lon="-0.53858665"><ele>96.0</ele><time>2022-11-01T13:31:26.0000000+00:00</time></trkpt><trkpt lat="39.55045997" lon="-0.5386185"><ele>96.0</ele><time>2022-11-01T13:31:27.0000000+00:00</time></trkpt><trkpt lat="39.55047263" lon="-0.53865261"><ele>96.0</ele><time>2022-11-01T13:31:28.0000000+00:00</time></trkpt><trkpt lat="39.5504909" lon="-0.53869151"><ele>96.2</ele><time>2022-11-01T13:31:29.0000000+00:00</time></trkpt><trkpt lat="39.55051186" lon="-0.53872948"><ele>96.4</ele><time>2022-11-01T13:31:30.0000000+00:00</time></trkpt><trkpt lat="39.55052862" lon="-0.53876334"><ele>96.6</ele><time>2022-11-01T13:31:31.0000000+00:00</time></trkpt><trkpt lat="39.55054295" lon="-0.53879402"><ele>96.6</ele><time>2022-11-01T13:31:32.0000000+00:00</time></trkpt><trkpt lat="39.55055418" lon="-0.53882562"><ele>96.8</ele><time>2022-11-01T13:31:33.0000000+00:00</time></trkpt><trkpt lat="39.55057095" lon="-0.53886803"><ele>96.8</ele><time>2022-11-01T13:31:34.0000000+00:00</time></trkpt><trkpt lat="39.5505831" lon="-0.53890214"><ele>96.8</ele><time>2022-11-01T13:31:35.0000000+00:00</time></trkpt><trkpt lat="39.55059257" lon="-0.53893609"><ele>97.0</ele><time>2022-11-01T13:31:36.0000000+00:00</time></trkpt><trkpt lat="39.55060339" lon="-0.53897004"><ele>97.0</ele><time>2022-11-01T13:31:37.0000000+00:00</time></trkpt><trkpt lat="39.55061688" lon="-0.53900675"><ele>97.2</ele><time>2022-11-01T13:31:38.0000000+00:00</time></trkpt><trkpt lat="39.55063197" lon="-0.5390474"><ele>97.2</ele><time>2022-11-01T13:31:39.0000000+00:00</time></trkpt><trkpt lat="39.55064664" lon="-0.53909359"><ele>97.2</ele><time>2022-11-01T13:31:40.0000000+00:00</time></trkpt><trkpt lat="39.55066105" lon="-0.53913323"><ele>97.2</ele><time>2022-11-01T13:31:41.0000000+00:00</time></trkpt><trkpt lat="39.55067681" lon="-0.53917246"><ele>97.4</ele><time>2022-11-01T13:31:42.0000000+00:00</time></trkpt><trkpt lat="39.55069064" lon="-0.53921018"><ele>97.4</ele><time>2022-11-01T13:31:43.0000000+00:00</time></trkpt><trkpt lat="39.55070732" lon="-0.53924379"><ele>97.4</ele><time>2022-11-01T13:31:44.0000000+00:00</time></trkpt><trkpt lat="39.5507209" lon="-0.53926927"><ele>97.6</ele><time>2022-11-01T13:31:45.0000000+00:00</time></trkpt><trkpt lat="39.55073364" lon="-0.53929467"><ele>97.6</ele><time>2022-11-01T13:31:46.0000000+00:00</time></trkpt><trkpt lat="39.55073934" lon="-0.53932535"><ele>97.6</ele><time>2022-11-01T13:31:47.0000000+00:00</time></trkpt><trkpt lat="39.55074328" lon="-0.53936407"><ele>97.8</ele><time>2022-11-01T13:31:48.0000000+00:00</time></trkpt><trkpt lat="39.55075577" lon="-0.53940606"><ele>97.8</ele><time>2022-11-01T13:31:49.0000000+00:00</time></trkpt><trkpt lat="39.55077262" lon="-0.53944177"><ele>97.8</ele><time>2022-11-01T13:31:50.0000000+00:00</time></trkpt><trkpt lat="39.5507924" lon="-0.53947882"><ele>98.0</ele><time>2022-11-01T13:31:51.0000000+00:00</time></trkpt><trkpt lat="39.55080757" lon="-0.53951385"><ele>98.0</ele><time>2022-11-01T13:31:52.0000000+00:00</time></trkpt><trkpt lat="39.55081687" lon="-0.53955325"><ele>98.0</ele><time>2022-11-01T13:31:53.0000000+00:00</time></trkpt><trkpt lat="39.55082567" lon="-0.53959432"><ele>98.0</ele><time>2022-11-01T13:31:54.0000000+00:00</time></trkpt><trkpt lat="39.55083313" lon="-0.53962969"><ele>98.2</ele><time>2022-11-01T13:31:55.0000000+00:00</time></trkpt><trkpt lat="39.55084168" lon="-0.53965526"><ele>98.2</ele><time>2022-11-01T13:31:56.0000000+00:00</time></trkpt><trkpt lat="39.55085535" lon="-0.53968661"><ele>98.2</ele><time>2022-11-01T13:31:57.0000000+00:00</time></trkpt><trkpt lat="39.55086029" lon="-0.53972156"><ele>98.2</ele><time>2022-11-01T13:31:58.0000000+00:00</time></trkpt><trkpt lat="39.55086758" lon="-0.53975324"><ele>98.4</ele><time>2022-11-01T13:31:59.0000000+00:00</time></trkpt><trkpt lat="39.55088384" lon="-0.53980311"><ele>98.4</ele><time>2022-11-01T13:32:00.0000000+00:00</time></trkpt><trkpt lat="39.55089876" lon="-0.53986464"><ele>98.6</ele><time>2022-11-01T13:32:01.0000000+00:00</time></trkpt><trkpt lat="39.55091377" lon="-0.53990764"><ele>98.6</ele><time>2022-11-01T13:32:02.0000000+00:00</time></trkpt><trkpt lat="39.55093238" lon="-0.53993907"><ele>98.8</ele><time>2022-11-01T13:32:03.0000000+00:00</time></trkpt><trkpt lat="39.55094989" lon="-0.5399705"><ele>98.8</ele><time>2022-11-01T13:32:04.0000000+00:00</time></trkpt><trkpt lat="39.55096473" lon="-0.54000797"><ele>99.0</ele><time>2022-11-01T13:32:05.0000000+00:00</time></trkpt><trkpt lat="39.55097839" lon="-0.54004527"><ele>99.0</ele><time>2022-11-01T13:32:06.0000000+00:00</time></trkpt><trkpt lat="39.55098828" lon="-0.54008014"><ele>99.2</ele><time>2022-11-01T13:32:07.0000000+00:00</time></trkpt><trkpt lat="39.55099859" lon="-0.54011417"><ele>99.2</ele><time>2022-11-01T13:32:08.0000000+00:00</time></trkpt><trkpt lat="39.55101209" lon="-0.54014836"><ele>99.4</ele><time>2022-11-01T13:32:09.0000000+00:00</time></trkpt><trkpt lat="39.55102759" lon="-0.54018483"><ele>99.4</ele><time>2022-11-01T13:32:10.0000000+00:00</time></trkpt><trkpt lat="39.55104411" lon="-0.54021693"><ele>99.4</ele><time>2022-11-01T13:32:11.0000000+00:00</time></trkpt><trkpt lat="39.55106129" lon="-0.54025331"><ele>99.6</ele><time>2022-11-01T13:32:12.0000000+00:00</time></trkpt><trkpt lat="39.55107898" lon="-0.54029421"><ele>99.6</ele><time>2022-11-01T13:32:13.0000000+00:00</time></trkpt><trkpt lat="39.55109079" lon="-0.54033143"><ele>99.8</ele><time>2022-11-01T13:32:14.0000000+00:00</time></trkpt><trkpt lat="39.5511011" lon="-0.5403673"><ele>99.8</ele><time>2022-11-01T13:32:15.0000000+00:00</time></trkpt><trkpt lat="39.55111292" lon="-0.5404072"><ele>100.0</ele><time>2022-11-01T13:32:16.0000000+00:00</time></trkpt><trkpt lat="39.55111996" lon="-0.54044735"><ele>100.2</ele><time>2022-11-01T13:32:17.0000000+00:00</time></trkpt><trkpt lat="39.55112969" lon="-0.5404818"><ele>100.2</ele><time>2022-11-01T13:32:18.0000000+00:00</time></trkpt><trkpt lat="39.55113329" lon="-0.54051566"><ele>100.4</ele><time>2022-11-01T13:32:19.0000000+00:00</time></trkpt><trkpt lat="39.55113949" lon="-0.54055036"><ele>100.6</ele><time>2022-11-01T13:32:20.0000000+00:00</time></trkpt><trkpt lat="39.55115425" lon="-0.54058305"><ele>100.8</ele><time>2022-11-01T13:32:21.0000000+00:00</time></trkpt><trkpt lat="39.55116129" lon="-0.5406144"><ele>100.8</ele><time>2022-11-01T13:32:22.0000000+00:00</time></trkpt><trkpt lat="39.55117025" lon="-0.54064558"><ele>101.0</ele><time>2022-11-01T13:32:23.0000000+00:00</time></trkpt><trkpt lat="39.55117763" lon="-0.5406781"><ele>101.0</ele><time>2022-11-01T13:32:24.0000000+00:00</time></trkpt><trkpt lat="39.55118928" lon="-0.54071096"><ele>101.2</ele><time>2022-11-01T13:32:25.0000000+00:00</time></trkpt><trkpt lat="39.5512032" lon="-0.54074843"><ele>101.2</ele><time>2022-11-01T13:32:26.0000000+00:00</time></trkpt><trkpt lat="39.55121728" lon="-0.54078656"><ele>101.4</ele><time>2022-11-01T13:32:27.0000000+00:00</time></trkpt><trkpt lat="39.5512296" lon="-0.54082571"><ele>101.4</ele><time>2022-11-01T13:32:28.0000000+00:00</time></trkpt><trkpt lat="39.55124133" lon="-0.54086418"><ele>101.4</ele><time>2022-11-01T13:32:29.0000000+00:00</time></trkpt><trkpt lat="39.551255" lon="-0.54089838"><ele>101.6</ele><time>2022-11-01T13:32:30.0000000+00:00</time></trkpt><trkpt lat="39.55126899" lon="-0.54093232"><ele>101.6</ele><time>2022-11-01T13:32:31.0000000+00:00</time></trkpt><trkpt lat="39.55128274" lon="-0.54096426"><ele>101.8</ele><time>2022-11-01T13:32:32.0000000+00:00</time></trkpt><trkpt lat="39.55129657" lon="-0.54100122"><ele>101.8</ele><time>2022-11-01T13:32:33.0000000+00:00</time></trkpt><trkpt lat="39.55130713" lon="-0.54103852"><ele>102.0</ele><time>2022-11-01T13:32:34.0000000+00:00</time></trkpt><trkpt lat="39.55131928" lon="-0.54107264"><ele>102.2</ele><time>2022-11-01T13:32:35.0000000+00:00</time></trkpt><trkpt lat="39.5513332" lon="-0.54110985"><ele>102.2</ele><time>2022-11-01T13:32:36.0000000+00:00</time></trkpt><trkpt lat="39.55134728" lon="-0.54114732"><ele>102.4</ele><time>2022-11-01T13:32:37.0000000+00:00</time></trkpt><trkpt lat="39.55136153" lon="-0.54118487"><ele>102.4</ele><time>2022-11-01T13:32:38.0000000+00:00</time></trkpt><trkpt lat="39.5513741" lon="-0.54122192"><ele>102.6</ele><time>2022-11-01T13:32:39.0000000+00:00</time></trkpt><trkpt lat="39.55138818" lon="-0.54125729"><ele>102.6</ele><time>2022-11-01T13:32:40.0000000+00:00</time></trkpt><trkpt lat="39.55139866" lon="-0.54129635"><ele>102.8</ele><time>2022-11-01T13:32:41.0000000+00:00</time></trkpt><trkpt lat="39.55141266" lon="-0.54133457"><ele>102.8</ele><time>2022-11-01T13:32:42.0000000+00:00</time></trkpt><trkpt lat="39.5514259" lon="-0.54136382"><ele>103.0</ele><time>2022-11-01T13:32:43.0000000+00:00</time></trkpt><trkpt lat="39.55144317" lon="-0.54140733"><ele>103.2</ele><time>2022-11-01T13:32:44.0000000+00:00</time></trkpt><trkpt lat="39.55146262" lon="-0.54144161"><ele>103.2</ele><time>2022-11-01T13:32:45.0000000+00:00</time></trkpt><trkpt lat="39.55147678" lon="-0.54148017"><ele>103.4</ele><time>2022-11-01T13:32:46.0000000+00:00</time></trkpt><trkpt lat="39.55149623" lon="-0.54151596"><ele>103.6</ele><time>2022-11-01T13:32:47.0000000+00:00</time></trkpt><trkpt lat="39.5515145" lon="-0.54154974"><ele>103.6</ele><time>2022-11-01T13:32:48.0000000+00:00</time></trkpt><trkpt lat="39.55152892" lon="-0.541581"><ele>103.8</ele><time>2022-11-01T13:32:49.0000000+00:00</time></trkpt><trkpt lat="39.5515368" lon="-0.54160439"><ele>103.8</ele><time>2022-11-01T13:32:50.0000000+00:00</time></trkpt><trkpt lat="39.55154233" lon="-0.54162576"><ele>104.0</ele><time>2022-11-01T13:32:51.0000000+00:00</time></trkpt><trkpt lat="39.55154736" lon="-0.54164914"><ele>104.2</ele><time>2022-11-01T13:32:52.0000000+00:00</time></trkpt><trkpt lat="39.55155658" lon="-0.54167278"><ele>104.4</ele><time>2022-11-01T13:32:53.0000000+00:00</time></trkpt><trkpt lat="39.5515658" lon="-0.54169248"><ele>104.6</ele><time>2022-11-01T13:32:54.0000000+00:00</time></trkpt><trkpt lat="39.55157401" lon="-0.54171327"><ele>104.8</ele><time>2022-11-01T13:32:55.0000000+00:00</time></trkpt><trkpt lat="39.55157979" lon="-0.54174202"><ele>104.8</ele><time>2022-11-01T13:32:56.0000000+00:00</time></trkpt><trkpt lat="39.55158876" lon="-0.54177269"><ele>105.0</ele><time>2022-11-01T13:32:57.0000000+00:00</time></trkpt><trkpt lat="39.5515953" lon="-0.54180496"><ele>105.2</ele><time>2022-11-01T13:32:58.0000000+00:00</time></trkpt><trkpt lat="39.55160268" lon="-0.54183531"><ele>105.2</ele><time>2022-11-01T13:32:59.0000000+00:00</time></trkpt><trkpt lat="39.55161466" lon="-0.54186045"><ele>105.2</ele><time>2022-11-01T13:33:00.0000000+00:00</time></trkpt><trkpt lat="39.55162615" lon="-0.54188317"><ele>105.4</ele><time>2022-11-01T13:33:01.0000000+00:00</time></trkpt><trkpt lat="39.55163327" lon="-0.54190689"><ele>105.6</ele><time>2022-11-01T13:33:02.0000000+00:00</time></trkpt><trkpt lat="39.55163822" lon="-0.54193069"><ele>105.6</ele><time>2022-11-01T13:33:03.0000000+00:00</time></trkpt><trkpt lat="39.55164366" lon="-0.54195249"><ele>105.8</ele><time>2022-11-01T13:33:04.0000000+00:00</time></trkpt><trkpt lat="39.55164777" lon="-0.54197369"><ele>105.8</ele><time>2022-11-01T13:33:05.0000000+00:00</time></trkpt><trkpt lat="39.55165255" lon="-0.54199498"><ele>106.0</ele><time>2022-11-01T13:33:06.0000000+00:00</time></trkpt><trkpt lat="39.55165976" lon="-0.54201267"><ele>106.2</ele><time>2022-11-01T13:33:07.0000000+00:00</time></trkpt><trkpt lat="39.55166604" lon="-0.54203848"><ele>106.2</ele><time>2022-11-01T13:33:08.0000000+00:00</time></trkpt><trkpt lat="39.55167459" lon="-0.54206765"><ele>106.2</ele><time>2022-11-01T13:33:09.0000000+00:00</time></trkpt><trkpt lat="39.55168524" lon="-0.54209364"><ele>106.4</ele><time>2022-11-01T13:33:10.0000000+00:00</time></trkpt><trkpt lat="39.55169748" lon="-0.54211258"><ele>106.6</ele><time>2022-11-01T13:33:11.0000000+00:00</time></trkpt><trkpt lat="39.55170586" lon="-0.54212767"><ele>106.6</ele><time>2022-11-01T13:33:12.0000000+00:00</time></trkpt><trkpt lat="39.55171072" lon="-0.54214275"><ele>106.8</ele><time>2022-11-01T13:33:13.0000000+00:00</time></trkpt><trkpt lat="39.55171784" lon="-0.54215524"><ele>107.0</ele><time>2022-11-01T13:33:14.0000000+00:00</time></trkpt><trkpt lat="39.5517212" lon="-0.54216606"><ele>107.2</ele><time>2022-11-01T13:33:15.0000000+00:00</time></trkpt><trkpt lat="39.55172447" lon="-0.54217829"><ele>107.2</ele><time>2022-11-01T13:33:16.0000000+00:00</time></trkpt><trkpt lat="39.55172983" lon="-0.54219338"><ele>107.2</ele><time>2022-11-01T13:33:17.0000000+00:00</time></trkpt><trkpt lat="39.55173209" lon="-0.54220344"><ele>107.4</ele><time>2022-11-01T13:33:18.0000000+00:00</time></trkpt><trkpt lat="39.55173318" lon="-0.54221048"><ele>107.4</ele><time>2022-11-01T13:33:19.0000000+00:00</time></trkpt><trkpt lat="39.55172841" lon="-0.54221987"><ele>107.4</ele><time>2022-11-01T13:33:20.0000000+00:00</time></trkpt><trkpt lat="39.55172069" lon="-0.54222523"><ele>107.4</ele><time>2022-11-01T13:33:21.0000000+00:00</time></trkpt><trkpt lat="39.55171231" lon="-0.5422389"><ele>107.4</ele><time>2022-11-01T13:33:22.0000000+00:00</time></trkpt><trkpt lat="39.551702" lon="-0.54225273"><ele>107.4</ele><time>2022-11-01T13:33:23.0000000+00:00</time></trkpt><trkpt lat="39.55169563" lon="-0.54227259"><ele>107.6</ele><time>2022-11-01T13:33:24.0000000+00:00</time></trkpt><trkpt lat="39.5516979" lon="-0.54229572"><ele>107.6</ele><time>2022-11-01T13:33:25.0000000+00:00</time></trkpt><trkpt lat="39.55170653" lon="-0.54231199"><ele>107.8</ele><time>2022-11-01T13:33:26.0000000+00:00</time></trkpt><trkpt lat="39.55171089" lon="-0.54232464"><ele>108.0</ele><time>2022-11-01T13:33:27.0000000+00:00</time></trkpt><trkpt lat="39.55171516" lon="-0.54234501"><ele>108.0</ele><time>2022-11-01T13:33:28.0000000+00:00</time></trkpt><trkpt lat="39.55171877" lon="-0.54236496"><ele>108.2</ele><time>2022-11-01T13:33:29.0000000+00:00</time></trkpt><trkpt lat="39.55172204" lon="-0.54238172"><ele>108.4</ele><time>2022-11-01T13:33:30.0000000+00:00</time></trkpt><trkpt lat="39.55172782" lon="-0.54239874"><ele>108.4</ele><time>2022-11-01T13:33:31.0000000+00:00</time></trkpt><trkpt lat="39.55173553" lon="-0.54242238"><ele>108.6</ele><time>2022-11-01T13:33:32.0000000+00:00</time></trkpt><trkpt lat="39.55173939" lon="-0.54243981"><ele>108.6</ele><time>2022-11-01T13:33:33.0000000+00:00</time></trkpt><trkpt lat="39.55174626" lon="-0.54245649"><ele>109.0</ele><time>2022-11-01T13:33:34.0000000+00:00</time></trkpt><trkpt lat="39.55175456" lon="-0.54248155"><ele>109.0</ele><time>2022-11-01T13:33:35.0000000+00:00</time></trkpt><trkpt lat="39.55176084" lon="-0.54250293"><ele>109.2</ele><time>2022-11-01T13:33:36.0000000+00:00</time></trkpt><trkpt lat="39.55176495" lon="-0.54252237"><ele>109.2</ele><time>2022-11-01T13:33:37.0000000+00:00</time></trkpt><trkpt lat="39.55177752" lon="-0.54254333"><ele>109.4</ele><time>2022-11-01T13:33:38.0000000+00:00</time></trkpt><trkpt lat="39.551787" lon="-0.54256294"><ele>109.6</ele><time>2022-11-01T13:33:39.0000000+00:00</time></trkpt><trkpt lat="39.55179756" lon="-0.54258272"><ele>109.6</ele><time>2022-11-01T13:33:40.0000000+00:00</time></trkpt><trkpt lat="39.5518103" lon="-0.54260569"><ele>109.8</ele><time>2022-11-01T13:33:41.0000000+00:00</time></trkpt><trkpt lat="39.55182094" lon="-0.54262538"><ele>110.0</ele><time>2022-11-01T13:33:42.0000000+00:00</time></trkpt><trkpt lat="39.55182622" lon="-0.54264299"><ele>110.2</ele><time>2022-11-01T13:33:43.0000000+00:00</time></trkpt><trkpt lat="39.55183209" lon="-0.54266084"><ele>110.2</ele><time>2022-11-01T13:33:44.0000000+00:00</time></trkpt><trkpt lat="39.55183838" lon="-0.54267869"><ele>110.4</ele><time>2022-11-01T13:33:45.0000000+00:00</time></trkpt><trkpt lat="39.55184508" lon="-0.54269378"><ele>110.4</ele><time>2022-11-01T13:33:46.0000000+00:00</time></trkpt><trkpt lat="39.55185061" lon="-0.54270912"><ele>110.4</ele><time>2022-11-01T13:33:47.0000000+00:00</time></trkpt><trkpt lat="39.55184793" lon="-0.54273536"><ele>110.6</ele><time>2022-11-01T13:33:48.0000000+00:00</time></trkpt><trkpt lat="39.55184072" lon="-0.54275204"><ele>110.6</ele><time>2022-11-01T13:33:49.0000000+00:00</time></trkpt><trkpt lat="39.55185698" lon="-0.54276872"><ele>110.8</ele><time>2022-11-01T13:33:50.0000000+00:00</time></trkpt><trkpt lat="39.5518657" lon="-0.54278414"><ele>111.0</ele><time>2022-11-01T13:33:51.0000000+00:00</time></trkpt><trkpt lat="39.55187123" lon="-0.54280199"><ele>111.0</ele><time>2022-11-01T13:33:52.0000000+00:00</time></trkpt><trkpt lat="39.55187744" lon="-0.54281808"><ele>111.2</ele><time>2022-11-01T13:33:53.0000000+00:00</time></trkpt><trkpt lat="39.55188372" lon="-0.54283393"><ele>111.2</ele><time>2022-11-01T13:33:54.0000000+00:00</time></trkpt><trkpt lat="39.55189009" lon="-0.54284625"><ele>111.2</ele><time>2022-11-01T13:33:55.0000000+00:00</time></trkpt><trkpt lat="39.55189571" lon="-0.5428636"><ele>111.4</ele><time>2022-11-01T13:33:56.0000000+00:00</time></trkpt><trkpt lat="39.55190409" lon="-0.54288506"><ele>111.6</ele><time>2022-11-01T13:33:57.0000000+00:00</time></trkpt><trkpt lat="39.55191247" lon="-0.54290484"><ele>111.6</ele><time>2022-11-01T13:33:58.0000000+00:00</time></trkpt><trkpt lat="39.55192228" lon="-0.54292185"><ele>111.8</ele><time>2022-11-01T13:33:59.0000000+00:00</time></trkpt><trkpt lat="39.55193183" lon="-0.54294105"><ele>112.0</ele><time>2022-11-01T13:34:00.0000000+00:00</time></trkpt><trkpt lat="39.55193946" lon="-0.54295924"><ele>112.0</ele><time>2022-11-01T13:34:01.0000000+00:00</time></trkpt><trkpt lat="39.55194349" lon="-0.54297726"><ele>112.2</ele><time>2022-11-01T13:34:02.0000000+00:00</time></trkpt><trkpt lat="39.5519517" lon="-0.54299302"><ele>112.4</ele><time>2022-11-01T13:34:03.0000000+00:00</time></trkpt><trkpt lat="39.55196084" lon="-0.54301162"><ele>112.4</ele><time>2022-11-01T13:34:04.0000000+00:00</time></trkpt><trkpt lat="39.55196754" lon="-0.5430314"><ele>112.6</ele><time>2022-11-01T13:34:05.0000000+00:00</time></trkpt><trkpt lat="39.55197316" lon="-0.54305496"><ele>112.8</ele><time>2022-11-01T13:34:06.0000000+00:00</time></trkpt><trkpt lat="39.55197861" lon="-0.54307248"><ele>112.8</ele><time>2022-11-01T13:34:07.0000000+00:00</time></trkpt><trkpt lat="39.55198238" lon="-0.54309008"><ele>112.8</ele><time>2022-11-01T13:34:08.0000000+00:00</time></trkpt><trkpt lat="39.55198431" lon="-0.54310734"><ele>113.0</ele><time>2022-11-01T13:34:09.0000000+00:00</time></trkpt><trkpt lat="39.55198783" lon="-0.54312226"><ele>113.0</ele><time>2022-11-01T13:34:10.0000000+00:00</time></trkpt><trkpt lat="39.55199872" lon="-0.54313894"><ele>113.2</ele><time>2022-11-01T13:34:11.0000000+00:00</time></trkpt><trkpt lat="39.55200643" lon="-0.54314791"><ele>113.2</ele><time>2022-11-01T13:34:12.0000000+00:00</time></trkpt><trkpt lat="39.55201616" lon="-0.54314724"><ele>113.4</ele><time>2022-11-01T13:34:13.0000000+00:00</time></trkpt><trkpt lat="39.55202739" lon="-0.54314397"><ele>113.4</ele><time>2022-11-01T13:34:14.0000000+00:00</time></trkpt><trkpt lat="39.55204214" lon="-0.54313953"><ele>113.6</ele><time>2022-11-01T13:34:15.0000000+00:00</time></trkpt><trkpt lat="39.5520579" lon="-0.54313215"><ele>113.6</ele><time>2022-11-01T13:34:16.0000000+00:00</time></trkpt><trkpt lat="39.55207701" lon="-0.54312771"><ele>113.6</ele><time>2022-11-01T13:34:17.0000000+00:00</time></trkpt><trkpt lat="39.55209411" lon="-0.54312117"><ele>113.8</ele><time>2022-11-01T13:34:18.0000000+00:00</time></trkpt><trkpt lat="39.55210785" lon="-0.54311246"><ele>113.8</ele><time>2022-11-01T13:34:19.0000000+00:00</time></trkpt><trkpt lat="39.55212252" lon="-0.54310399"><ele>113.8</ele><time>2022-11-01T13:34:20.0000000+00:00</time></trkpt><trkpt lat="39.55213887" lon="-0.5430941"><ele>113.6</ele><time>2022-11-01T13:34:21.0000000+00:00</time></trkpt><trkpt lat="39.55215647" lon="-0.54307952"><ele>113.6</ele><time>2022-11-01T13:34:22.0000000+00:00</time></trkpt><trkpt lat="39.55217801" lon="-0.54306611"><ele>113.4</ele><time>2022-11-01T13:34:23.0000000+00:00</time></trkpt><trkpt lat="39.55220081" lon="-0.54304725"><ele>113.4</ele><time>2022-11-01T13:34:24.0000000+00:00</time></trkpt><trkpt lat="39.5522226" lon="-0.54302964"><ele>113.2</ele><time>2022-11-01T13:34:25.0000000+00:00</time></trkpt><trkpt lat="39.55224959" lon="-0.54300953"><ele>113.2</ele><time>2022-11-01T13:34:26.0000000+00:00</time></trkpt><trkpt lat="39.55228044" lon="-0.54299075"><ele>113.0</ele><time>2022-11-01T13:34:27.0000000+00:00</time></trkpt><trkpt lat="39.55231438" lon="-0.54297273"><ele>113.0</ele><time>2022-11-01T13:34:28.0000000+00:00</time></trkpt><trkpt lat="39.55235177" lon="-0.54295169"><ele>112.8</ele><time>2022-11-01T13:34:29.0000000+00:00</time></trkpt><trkpt lat="39.55239217" lon="-0.54293057"><ele>112.8</ele><time>2022-11-01T13:34:30.0000000+00:00</time></trkpt><trkpt lat="39.55243592" lon="-0.54290911"><ele>112.8</ele><time>2022-11-01T13:34:31.0000000+00:00</time></trkpt><trkpt lat="39.55248152" lon="-0.54288992"><ele>112.6</ele><time>2022-11-01T13:34:32.0000000+00:00</time></trkpt><trkpt lat="39.55252368" lon="-0.54287248"><ele>112.6</ele><time>2022-11-01T13:34:33.0000000+00:00</time></trkpt><trkpt lat="39.55256618" lon="-0.54285036"><ele>112.4</ele><time>2022-11-01T13:34:34.0000000+00:00</time></trkpt><trkpt lat="39.55260406" lon="-0.54282093"><ele>112.2</ele><time>2022-11-01T13:34:35.0000000+00:00</time></trkpt><trkpt lat="39.55263734" lon="-0.54278925"><ele>112.0</ele><time>2022-11-01T13:34:36.0000000+00:00</time></trkpt><trkpt lat="39.55267405" lon="-0.5427626"><ele>111.6</ele><time>2022-11-01T13:34:37.0000000+00:00</time></trkpt><trkpt lat="39.55271605" lon="-0.54273695"><ele>111.4</ele><time>2022-11-01T13:34:38.0000000+00:00</time></trkpt><trkpt lat="39.55276357" lon="-0.54271239"><ele>111.2</ele><time>2022-11-01T13:34:39.0000000+00:00</time></trkpt><trkpt lat="39.55281235" lon="-0.54268565"><ele>111.0</ele><time>2022-11-01T13:34:40.0000000+00:00</time></trkpt><trkpt lat="39.55286474" lon="-0.5426569"><ele>110.6</ele><time>2022-11-01T13:34:41.0000000+00:00</time></trkpt><trkpt lat="39.55292249" lon="-0.54262807"><ele>110.2</ele><time>2022-11-01T13:34:42.0000000+00:00</time></trkpt><trkpt lat="39.55298225" lon="-0.54260074"><ele>109.8</ele><time>2022-11-01T13:34:43.0000000+00:00</time></trkpt><trkpt lat="39.55304369" lon="-0.54257409"><ele>109.6</ele><time>2022-11-01T13:34:44.0000000+00:00</time></trkpt><trkpt lat="39.55310606" lon="-0.54254836"><ele>109.6</ele><time>2022-11-01T13:34:45.0000000+00:00</time></trkpt><trkpt lat="39.55316582" lon="-0.54252011"><ele>109.4</ele><time>2022-11-01T13:34:46.0000000+00:00</time></trkpt><trkpt lat="39.55322332" lon="-0.54248784"><ele>109.4</ele><time>2022-11-01T13:34:47.0000000+00:00</time></trkpt><trkpt lat="39.55328258" lon="-0.54245859"><ele>109.2</ele><time>2022-11-01T13:34:48.0000000+00:00</time></trkpt><trkpt lat="39.55333974" lon="-0.54243101"><ele>109.0</ele><time>2022-11-01T13:34:49.0000000+00:00</time></trkpt><trkpt lat="39.5533959" lon="-0.54239907"><ele>109.0</ele><time>2022-11-01T13:34:50.0000000+00:00</time></trkpt><trkpt lat="39.55345022" lon="-0.5423725"><ele>109.0</ele><time>2022-11-01T13:34:51.0000000+00:00</time></trkpt><trkpt lat="39.55350369" lon="-0.54234711"><ele>108.8</ele><time>2022-11-01T13:34:52.0000000+00:00</time></trkpt><trkpt lat="39.55354569" lon="-0.54232825"><ele>108.6</ele><time>2022-11-01T13:34:53.0000000+00:00</time></trkpt><trkpt lat="39.55360604" lon="-0.54230092"><ele>108.4</ele><time>2022-11-01T13:34:54.0000000+00:00</time></trkpt><trkpt lat="39.55365524" lon="-0.5422746"><ele>108.2</ele><time>2022-11-01T13:34:55.0000000+00:00</time></trkpt><trkpt lat="39.55370167" lon="-0.54224937"><ele>108.2</ele><time>2022-11-01T13:34:56.0000000+00:00</time></trkpt><trkpt lat="39.55374677" lon="-0.54222163"><ele>108.2</ele><time>2022-11-01T13:34:57.0000000+00:00</time></trkpt><trkpt lat="39.55379346" lon="-0.54219506"><ele>108.6</ele><time>2022-11-01T13:34:58.0000000+00:00</time></trkpt><trkpt lat="39.55383972" lon="-0.54217385"><ele>108.8</ele><time>2022-11-01T13:34:59.0000000+00:00</time></trkpt><trkpt lat="39.55388616" lon="-0.54215432"><ele>109.0</ele><time>2022-11-01T13:35:00.0000000+00:00</time></trkpt><trkpt lat="39.55393042" lon="-0.54213337"><ele>109.2</ele><time>2022-11-01T13:35:01.0000000+00:00</time></trkpt><trkpt lat="39.55397501" lon="-0.54211233"><ele>109.2</ele><time>2022-11-01T13:35:02.0000000+00:00</time></trkpt><trkpt lat="39.55401868" lon="-0.5420928"><ele>109.2</ele><time>2022-11-01T13:35:03.0000000+00:00</time></trkpt><trkpt lat="39.55405983" lon="-0.54207101"><ele>109.0</ele><time>2022-11-01T13:35:04.0000000+00:00</time></trkpt><trkpt lat="39.55410157" lon="-0.54205307"><ele>109.0</ele><time>2022-11-01T13:35:05.0000000+00:00</time></trkpt><trkpt lat="39.5541434" lon="-0.54203396"><ele>108.8</ele><time>2022-11-01T13:35:06.0000000+00:00</time></trkpt><trkpt lat="39.55417953" lon="-0.54200982"><ele>108.4</ele><time>2022-11-01T13:35:07.0000000+00:00</time></trkpt><trkpt lat="39.55420299" lon="-0.5419721"><ele>108.4</ele><time>2022-11-01T13:35:08.0000000+00:00</time></trkpt><trkpt lat="39.55420635" lon="-0.54193346"><ele>108.2</ele><time>2022-11-01T13:35:09.0000000+00:00</time></trkpt><trkpt lat="39.55419788" lon="-0.541897"><ele>108.0</ele><time>2022-11-01T13:35:10.0000000+00:00</time></trkpt><trkpt lat="39.55418866" lon="-0.54186598"><ele>108.0</ele><time>2022-11-01T13:35:11.0000000+00:00</time></trkpt><trkpt lat="39.55417441" lon="-0.54183221"><ele>108.0</ele><time>2022-11-01T13:35:12.0000000+00:00</time></trkpt><trkpt lat="39.55415773" lon="-0.54179667"><ele>107.8</ele><time>2022-11-01T13:35:13.0000000+00:00</time></trkpt><trkpt lat="39.55414273" lon="-0.54175878"><ele>107.8</ele><time>2022-11-01T13:35:14.0000000+00:00</time></trkpt><trkpt lat="39.55412697" lon="-0.54171863"><ele>107.8</ele><time>2022-11-01T13:35:15.0000000+00:00</time></trkpt><trkpt lat="39.5541113" lon="-0.54167186"><ele>107.8</ele><time>2022-11-01T13:35:16.0000000+00:00</time></trkpt><trkpt lat="39.55409328" lon="-0.541624"><ele>107.8</ele><time>2022-11-01T13:35:17.0000000+00:00</time></trkpt><trkpt lat="39.5540724" lon="-0.54157731"><ele>107.6</ele><time>2022-11-01T13:35:18.0000000+00:00</time></trkpt><trkpt lat="39.55406008" lon="-0.54152736"><ele>107.6</ele><time>2022-11-01T13:35:19.0000000+00:00</time></trkpt><trkpt lat="39.55404902" lon="-0.54147949"><ele>107.4</ele><time>2022-11-01T13:35:20.0000000+00:00</time></trkpt><trkpt lat="39.55403494" lon="-0.54143163"><ele>107.4</ele><time>2022-11-01T13:35:21.0000000+00:00</time></trkpt><trkpt lat="39.55401591" lon="-0.54138025"><ele>107.2</ele><time>2022-11-01T13:35:22.0000000+00:00</time></trkpt><trkpt lat="39.55399529" lon="-0.54132929"><ele>107.2</ele><time>2022-11-01T13:35:23.0000000+00:00</time></trkpt><trkpt lat="39.55397358" lon="-0.54127724"><ele>107.0</ele><time>2022-11-01T13:35:24.0000000+00:00</time></trkpt><trkpt lat="39.55395179" lon="-0.54123022"><ele>106.8</ele><time>2022-11-01T13:35:25.0000000+00:00</time></trkpt><trkpt lat="39.55393184" lon="-0.54118956"><ele>106.8</ele><time>2022-11-01T13:35:26.0000000+00:00</time></trkpt><trkpt lat="39.55391306" lon="-0.54115679"><ele>106.6</ele><time>2022-11-01T13:35:27.0000000+00:00</time></trkpt><trkpt lat="39.55389982" lon="-0.54112553"><ele>106.4</ele><time>2022-11-01T13:35:28.0000000+00:00</time></trkpt><trkpt lat="39.55388733" lon="-0.54109586"><ele>106.2</ele><time>2022-11-01T13:35:29.0000000+00:00</time></trkpt><trkpt lat="39.55387325" lon="-0.54106996"><ele>106.2</ele><time>2022-11-01T13:35:30.0000000+00:00</time></trkpt><trkpt lat="39.55386328" lon="-0.54104456"><ele>106.0</ele><time>2022-11-01T13:35:31.0000000+00:00</time></trkpt><trkpt lat="39.55385707" lon="-0.54101598"><ele>106.0</ele><time>2022-11-01T13:35:32.0000000+00:00</time></trkpt><trkpt lat="39.55384836" lon="-0.54098178"><ele>106.0</ele><time>2022-11-01T13:35:33.0000000+00:00</time></trkpt><trkpt lat="39.55383478" lon="-0.54094599"><ele>105.8</ele><time>2022-11-01T13:35:34.0000000+00:00</time></trkpt><trkpt lat="39.55382254" lon="-0.54091095"><ele>105.8</ele><time>2022-11-01T13:35:35.0000000+00:00</time></trkpt><trkpt lat="39.55380905" lon="-0.54087365"><ele>105.6</ele><time>2022-11-01T13:35:36.0000000+00:00</time></trkpt><trkpt lat="39.5537922" lon="-0.54083803"><ele>105.6</ele><time>2022-11-01T13:35:37.0000000+00:00</time></trkpt><trkpt lat="39.55378004" lon="-0.54079696"><ele>105.6</ele><time>2022-11-01T13:35:38.0000000+00:00</time></trkpt><trkpt lat="39.5537673" lon="-0.54074734"><ele>105.6</ele><time>2022-11-01T13:35:39.0000000+00:00</time></trkpt><trkpt lat="39.55375305" lon="-0.54069495"><ele>105.6</ele><time>2022-11-01T13:35:40.0000000+00:00</time></trkpt><trkpt lat="39.55373403" lon="-0.54064591"><ele>105.4</ele><time>2022-11-01T13:35:41.0000000+00:00</time></trkpt><trkpt lat="39.55371634" lon="-0.5406004"><ele>105.4</ele><time>2022-11-01T13:35:42.0000000+00:00</time></trkpt><trkpt lat="39.55369622" lon="-0.54056453"><ele>105.2</ele><time>2022-11-01T13:35:43.0000000+00:00</time></trkpt><trkpt lat="39.55367326" lon="-0.54054122"><ele>104.8</ele><time>2022-11-01T13:35:44.0000000+00:00</time></trkpt><trkpt lat="39.55365415" lon="-0.54053209"><ele>104.6</ele><time>2022-11-01T13:35:45.0000000+00:00</time></trkpt><trkpt lat="39.5536316" lon="-0.5405362"><ele>104.4</ele><time>2022-11-01T13:35:46.0000000+00:00</time></trkpt><trkpt lat="39.55360947" lon="-0.54055019"><ele>104.2</ele><time>2022-11-01T13:35:47.0000000+00:00</time></trkpt><trkpt lat="39.55359849" lon="-0.54057048"><ele>104.2</ele><time>2022-11-01T13:35:48.0000000+00:00</time></trkpt><trkpt lat="39.55359791" lon="-0.54059705"><ele>103.8</ele><time>2022-11-01T13:35:49.0000000+00:00</time></trkpt><trkpt lat="39.55359472" lon="-0.54062127"><ele>103.8</ele><time>2022-11-01T13:35:50.0000000+00:00</time></trkpt><trkpt lat="39.5535912" lon="-0.54064491"><ele>103.6</ele><time>2022-11-01T13:35:51.0000000+00:00</time></trkpt><trkpt lat="39.55359112" lon="-0.54066972"><ele>103.6</ele><time>2022-11-01T13:35:52.0000000+00:00</time></trkpt><trkpt lat="39.55359506" lon="-0.54068984"><ele>103.6</ele><time>2022-11-01T13:35:53.0000000+00:00</time></trkpt><trkpt lat="39.5536005" lon="-0.54070576"><ele>103.6</ele><time>2022-11-01T13:35:54.0000000+00:00</time></trkpt><trkpt lat="39.5536021" lon="-0.54072261"><ele>103.6</ele><time>2022-11-01T13:35:55.0000000+00:00</time></trkpt><trkpt lat="39.55359053" lon="-0.54074876"><ele>103.6</ele><time>2022-11-01T13:35:56.0000000+00:00</time></trkpt><trkpt lat="39.55357804" lon="-0.54077206"><ele>103.8</ele><time>2022-11-01T13:35:57.0000000+00:00</time></trkpt><trkpt lat="39.55356957" lon="-0.54079712"><ele>103.8</ele><time>2022-11-01T13:35:58.0000000+00:00</time></trkpt><trkpt lat="39.55356178" lon="-0.54082269"><ele>104.0</ele><time>2022-11-01T13:35:59.0000000+00:00</time></trkpt><trkpt lat="39.55355197" lon="-0.54084934"><ele>104.0</ele><time>2022-11-01T13:36:00.0000000+00:00</time></trkpt><trkpt lat="39.5535456" lon="-0.54088254"><ele>104.0</ele><time>2022-11-01T13:36:01.0000000+00:00</time></trkpt><trkpt lat="39.55353915" lon="-0.54091766"><ele>104.0</ele><time>2022-11-01T13:36:02.0000000+00:00</time></trkpt><trkpt lat="39.55353655" lon="-0.54094967"><ele>104.2</ele><time>2022-11-01T13:36:03.0000000+00:00</time></trkpt><trkpt lat="39.55353269" lon="-0.54098354"><ele>104.2</ele><time>2022-11-01T13:36:04.0000000+00:00</time></trkpt><trkpt lat="39.5535223" lon="-0.54101472"><ele>104.2</ele><time>2022-11-01T13:36:05.0000000+00:00</time></trkpt><trkpt lat="39.55350839" lon="-0.54103727"><ele>104.2</ele><time>2022-11-01T13:36:06.0000000+00:00</time></trkpt><trkpt lat="39.55349439" lon="-0.54106032"><ele>104.4</ele><time>2022-11-01T13:36:07.0000000+00:00</time></trkpt><trkpt lat="39.55348316" lon="-0.54107968"><ele>104.4</ele><time>2022-11-01T13:36:08.0000000+00:00</time></trkpt><trkpt lat="39.55347553" lon="-0.54109502"><ele>104.4</ele><time>2022-11-01T13:36:09.0000000+00:00</time></trkpt><trkpt lat="39.55347268" lon="-0.54110164"><ele>104.4</ele><time>2022-11-01T13:36:10.0000000+00:00</time></trkpt><trkpt lat="39.55347268" lon="-0.54110164"><ele>104.4</ele><time>2022-11-01T13:36:11.0000000+00:00</time></trkpt><trkpt lat="39.55347268" lon="-0.54110164"><ele>104.4</ele><time>2022-11-01T13:36:12.0000000+00:00</time></trkpt><trkpt lat="39.55347268" lon="-0.54110164"><ele>104.2</ele><time>2022-11-01T13:36:13.0000000+00:00</time></trkpt><trkpt lat="39.55347268" lon="-0.54110164"><ele>104.2</ele><time>2022-11-01T13:36:14.0000000+00:00</time></trkpt><trkpt lat="39.55347268" lon="-0.54110164"><ele>104.2</ele><time>2022-11-01T13:36:15.0000000+00:00</time></trkpt><trkpt lat="39.55347008" lon="-0.54110047"><ele>104.2</ele><time>2022-11-01T13:36:16.0000000+00:00</time></trkpt><trkpt lat="39.55346757" lon="-0.54109921"><ele>104.2</ele><time>2022-11-01T13:36:17.0000000+00:00</time></trkpt><trkpt lat="39.55346757" lon="-0.54109921"><ele>104.2</ele><time>2022-11-01T13:36:18.0000000+00:00</time></trkpt><trkpt lat="39.55346757" lon="-0.54109921"><ele>104.2</ele><time>2022-11-01T13:36:19.0000000+00:00</time></trkpt><trkpt lat="39.55346757" lon="-0.54109921"><ele>104.2</ele><time>2022-11-01T13:36:20.0000000+00:00</time></trkpt><trkpt lat="39.55346757" lon="-0.54109921"><ele>104.2</ele><time>2022-11-01T13:36:21.0000000+00:00</time></trkpt><trkpt lat="39.55346757" lon="-0.54109921"><ele>104.2</ele><time>2022-11-01T13:36:22.0000000+00:00</time></trkpt><trkpt lat="39.55346757" lon="-0.54109921"><ele>104.2</ele><time>2022-11-01T13:36:23.0000000+00:00</time></trkpt><trkpt lat="39.55346757" lon="-0.54109921"><ele>104.2</ele><time>2022-11-01T13:36:24.0000000+00:00</time></trkpt><trkpt lat="39.55346757" lon="-0.54109921"><ele>104.2</ele><time>2022-11-01T13:36:25.0000000+00:00</time></trkpt><trkpt lat="39.55346757" lon="-0.54109921"><ele>104.2</ele><time>2022-11-01T13:36:26.0000000+00:00</time></trkpt><trkpt lat="39.55346757" lon="-0.54109921"><ele>104.0</ele><time>2022-11-01T13:36:27.0000000+00:00</time></trkpt><trkpt lat="39.55346757" lon="-0.54109921"><ele>104.0</ele><time>2022-11-01T13:36:28.0000000+00:00</time></trkpt><trkpt lat="39.55346757" lon="-0.54109921"><ele>104.0</ele><time>2022-11-01T13:36:29.0000000+00:00</time></trkpt><trkpt lat="39.55346757" lon="-0.54109921"><ele>103.8</ele><time>2022-11-01T13:36:30.0000000+00:00</time></trkpt><trkpt lat="39.55346757" lon="-0.54109921"><ele>103.8</ele><time>2022-11-01T13:36:31.0000000+00:00</time></trkpt><trkpt lat="39.55346882" lon="-0.54110214"><ele>103.8</ele><time>2022-11-01T13:36:32.0000000+00:00</time></trkpt><trkpt lat="39.55347125" lon="-0.54110206"><ele>103.8</ele><time>2022-11-01T13:36:33.0000000+00:00</time></trkpt><trkpt lat="39.55347125" lon="-0.54110206"><ele>103.8</ele><time>2022-11-01T13:36:34.0000000+00:00</time></trkpt><trkpt lat="39.55347125" lon="-0.54110206"><ele>103.8</ele><time>2022-11-01T13:36:35.0000000+00:00</time></trkpt><trkpt lat="39.55347125" lon="-0.54110206"><ele>103.6</ele><time>2022-11-01T13:36:36.0000000+00:00</time></trkpt><trkpt lat="39.55347125" lon="-0.54110206"><ele>103.6</ele><time>2022-11-01T13:36:37.0000000+00:00</time></trkpt><trkpt lat="39.553471" lon="-0.54110432"><ele>103.6</ele><time>2022-11-01T13:36:38.0000000+00:00</time></trkpt><trkpt lat="39.55346882" lon="-0.54110658"><ele>103.6</ele><time>2022-11-01T13:36:39.0000000+00:00</time></trkpt><trkpt lat="39.55346882" lon="-0.54110658"><ele>103.6</ele><time>2022-11-01T13:36:40.0000000+00:00</time></trkpt><trkpt lat="39.55346882" lon="-0.54110658"><ele>103.6</ele><time>2022-11-01T13:36:41.0000000+00:00</time></trkpt><trkpt lat="39.55347092" lon="-0.54110558"><ele>103.8</ele><time>2022-11-01T13:36:42.0000000+00:00</time></trkpt><trkpt lat="39.55347369" lon="-0.54110457"><ele>103.8</ele><time>2022-11-01T13:36:43.0000000+00:00</time></trkpt><trkpt lat="39.55347369" lon="-0.54110457"><ele>103.8</ele><time>2022-11-01T13:36:44.0000000+00:00</time></trkpt><trkpt lat="39.55347369" lon="-0.54110457"><ele>103.8</ele><time>2022-11-01T13:36:45.0000000+00:00</time></trkpt><trkpt lat="39.55347369" lon="-0.54110457"><ele>103.8</ele><time>2022-11-01T13:36:46.0000000+00:00</time></trkpt><trkpt lat="39.55347369" lon="-0.54110457"><ele>103.8</ele><time>2022-11-01T13:36:47.0000000+00:00</time></trkpt><trkpt lat="39.55347369" lon="-0.54110457"><ele>103.8</ele><time>2022-11-01T13:36:48.0000000+00:00</time></trkpt><trkpt lat="39.55347369" lon="-0.54110457"><ele>103.8</ele><time>2022-11-01T13:36:49.0000000+00:00</time></trkpt><trkpt lat="39.55347369" lon="-0.54110457"><ele>103.8</ele><time>2022-11-01T13:36:50.0000000+00:00</time></trkpt><trkpt lat="39.55347369" lon="-0.54110457"><ele>103.8</ele><time>2022-11-01T13:36:51.0000000+00:00</time></trkpt><trkpt lat="39.55347369" lon="-0.54110457"><ele>103.6</ele><time>2022-11-01T13:36:52.0000000+00:00</time></trkpt><trkpt lat="39.55347369" lon="-0.54110457"><ele>103.6</ele><time>2022-11-01T13:36:53.0000000+00:00</time></trkpt><trkpt lat="39.55346849" lon="-0.54110826"><ele>103.8</ele><time>2022-11-01T13:36:54.0000000+00:00</time></trkpt><trkpt lat="39.55346597" lon="-0.54111086"><ele>103.8</ele><time>2022-11-01T13:36:55.0000000+00:00</time></trkpt><trkpt lat="39.55346237" lon="-0.54110952"><ele>103.8</ele><time>2022-11-01T13:36:56.0000000+00:00</time></trkpt><trkpt lat="39.55345918" lon="-0.5411127"><ele>103.8</ele><time>2022-11-01T13:36:57.0000000+00:00</time></trkpt><trkpt lat="39.55345918" lon="-0.5411127"><ele>103.8</ele><time>2022-11-01T13:36:58.0000000+00:00</time></trkpt><trkpt lat="39.55345969" lon="-0.54111027"><ele>103.8</ele><time>2022-11-01T13:36:59.0000000+00:00</time></trkpt><trkpt lat="39.55346103" lon="-0.54110834"><ele>103.8</ele><time>2022-11-01T13:37:00.0000000+00:00</time></trkpt><trkpt lat="39.55346354" lon="-0.54110684"><ele>103.8</ele><time>2022-11-01T13:37:01.0000000+00:00</time></trkpt><trkpt lat="39.55346597" lon="-0.5411044"><ele>103.8</ele><time>2022-11-01T13:37:02.0000000+00:00</time></trkpt><trkpt lat="39.55346933" lon="-0.54110415"><ele>103.8</ele><time>2022-11-01T13:37:03.0000000+00:00</time></trkpt><trkpt lat="39.55346757" lon="-0.54110667"><ele>103.8</ele><time>2022-11-01T13:37:04.0000000+00:00</time></trkpt><trkpt lat="39.55346757" lon="-0.54110667"><ele>103.6</ele><time>2022-11-01T13:37:05.0000000+00:00</time></trkpt><trkpt lat="39.55346757" lon="-0.54110667"><ele>103.6</ele><time>2022-11-01T13:37:06.0000000+00:00</time></trkpt><trkpt lat="39.55346757" lon="-0.54110667"><ele>103.4</ele><time>2022-11-01T13:37:07.0000000+00:00</time></trkpt><trkpt lat="39.55346757" lon="-0.54110667"><ele>103.4</ele><time>2022-11-01T13:37:08.0000000+00:00</time></trkpt><trkpt lat="39.55346757" lon="-0.54110667"><ele>103.4</ele><time>2022-11-01T13:37:09.0000000+00:00</time></trkpt><trkpt lat="39.55346757" lon="-0.54110667"><ele>103.4</ele><time>2022-11-01T13:37:10.0000000+00:00</time></trkpt><trkpt lat="39.55346732" lon="-0.54110843"><ele>103.4</ele><time>2022-11-01T13:37:11.0000000+00:00</time></trkpt><trkpt lat="39.5534648" lon="-0.5411096"><ele>103.4</ele><time>2022-11-01T13:37:12.0000000+00:00</time></trkpt><trkpt lat="39.5534648" lon="-0.5411096"><ele>103.4</ele><time>2022-11-01T13:37:13.0000000+00:00</time></trkpt><trkpt lat="39.5534648" lon="-0.5411096"><ele>103.4</ele><time>2022-11-01T13:37:14.0000000+00:00</time></trkpt><trkpt lat="39.5534648" lon="-0.5411096"><ele>103.4</ele><time>2022-11-01T13:37:15.0000000+00:00</time></trkpt><trkpt lat="39.5534648" lon="-0.5411096"><ele>103.4</ele><time>2022-11-01T13:37:16.0000000+00:00</time></trkpt><trkpt lat="39.5534648" lon="-0.5411096"><ele>103.4</ele><time>2022-11-01T13:37:17.0000000+00:00</time></trkpt><trkpt lat="39.5534648" lon="-0.5411096"><ele>103.4</ele><time>2022-11-01T13:37:18.0000000+00:00</time></trkpt><trkpt lat="39.5534648" lon="-0.5411096"><ele>103.2</ele><time>2022-11-01T13:37:19.0000000+00:00</time></trkpt><trkpt lat="39.5534648" lon="-0.5411096"><ele>103.2</ele><time>2022-11-01T13:37:20.0000000+00:00</time></trkpt><trkpt lat="39.55345893" lon="-0.54111597"><ele>103.2</ele><time>2022-11-01T13:37:21.0000000+00:00</time></trkpt><trkpt lat="39.55345692" lon="-0.54111932"><ele>103.2</ele><time>2022-11-01T13:37:22.0000000+00:00</time></trkpt><trkpt lat="39.55345692" lon="-0.54111932"><ele>103.2</ele><time>2022-11-01T13:37:23.0000000+00:00</time></trkpt><trkpt lat="39.55345692" lon="-0.54111932"><ele>103.2</ele><time>2022-11-01T13:37:24.0000000+00:00</time></trkpt><trkpt lat="39.55345692" lon="-0.54111932"><ele>103.2</ele><time>2022-11-01T13:37:25.0000000+00:00</time></trkpt><trkpt lat="39.55345692" lon="-0.54111932"><ele>103.2</ele><time>2022-11-01T13:37:26.0000000+00:00</time></trkpt><trkpt lat="39.55345692" lon="-0.54111932"><ele>103.2</ele><time>2022-11-01T13:37:27.0000000+00:00</time></trkpt><trkpt lat="39.55345692" lon="-0.54111932"><ele>103.2</ele><time>2022-11-01T13:37:28.0000000+00:00</time></trkpt><trkpt lat="39.55345692" lon="-0.54111932"><ele>103.2</ele><time>2022-11-01T13:37:29.0000000+00:00</time></trkpt><trkpt lat="39.55345692" lon="-0.54111932"><ele>103.2</ele><time>2022-11-01T13:37:30.0000000+00:00</time></trkpt><trkpt lat="39.55345692" lon="-0.54111932"><ele>103.2</ele><time>2022-11-01T13:37:31.0000000+00:00</time></trkpt><trkpt lat="39.55345692" lon="-0.54111932"><ele>103.2</ele><time>2022-11-01T13:37:32.0000000+00:00</time></trkpt><trkpt lat="39.55345692" lon="-0.54111932"><ele>103.2</ele><time>2022-11-01T13:37:33.0000000+00:00</time></trkpt><trkpt lat="39.55345692" lon="-0.54111932"><ele>103.2</ele><time>2022-11-01T13:37:34.0000000+00:00</time></trkpt><trkpt lat="39.55345491" lon="-0.54112259"><ele>103.2</ele><time>2022-11-01T13:37:35.0000000+00:00</time></trkpt><trkpt lat="39.5534529" lon="-0.54112435"><ele>103.2</ele><time>2022-11-01T13:37:36.0000000+00:00</time></trkpt><trkpt lat="39.55344921" lon="-0.54112745"><ele>103.2</ele><time>2022-11-01T13:37:37.0000000+00:00</time></trkpt><trkpt lat="39.55344535" lon="-0.54112821"><ele>103.2</ele><time>2022-11-01T13:37:38.0000000+00:00</time></trkpt><trkpt lat="39.55344535" lon="-0.54112821"><ele>103.2</ele><time>2022-11-01T13:37:39.0000000+00:00</time></trkpt><trkpt lat="39.55344535" lon="-0.54112821"><ele>103.4</ele><time>2022-11-01T13:37:40.0000000+00:00</time></trkpt><trkpt lat="39.55344535" lon="-0.54112821"><ele>103.4</ele><time>2022-11-01T13:37:41.0000000+00:00</time></trkpt><trkpt lat="39.55344535" lon="-0.54112821"><ele>103.6</ele><time>2022-11-01T13:37:42.0000000+00:00</time></trkpt><trkpt lat="39.55344301" lon="-0.54112972"><ele>103.8</ele><time>2022-11-01T13:37:43.0000000+00:00</time></trkpt><trkpt lat="39.55344142" lon="-0.54113215"><ele>103.8</ele><time>2022-11-01T13:37:44.0000000+00:00</time></trkpt><trkpt lat="39.55344142" lon="-0.54113215"><ele>103.8</ele><time>2022-11-01T13:37:45.0000000+00:00</time></trkpt><trkpt lat="39.55344142" lon="-0.54113215"><ele>103.8</ele><time>2022-11-01T13:37:46.0000000+00:00</time></trkpt><trkpt lat="39.55344142" lon="-0.54113215"><ele>103.6</ele><time>2022-11-01T13:37:47.0000000+00:00</time></trkpt><trkpt lat="39.55344142" lon="-0.54113215"><ele>103.6</ele><time>2022-11-01T13:37:48.0000000+00:00</time></trkpt><trkpt lat="39.55344142" lon="-0.54113215"><ele>103.4</ele><time>2022-11-01T13:37:49.0000000+00:00</time></trkpt><trkpt lat="39.55344142" lon="-0.54113215"><ele>103.4</ele><time>2022-11-01T13:37:50.0000000+00:00</time></trkpt><trkpt lat="39.55344142" lon="-0.54113215"><ele>103.4</ele><time>2022-11-01T13:37:51.0000000+00:00</time></trkpt><trkpt lat="39.55344049" lon="-0.54113357"><ele>103.2</ele><time>2022-11-01T13:37:52.0000000+00:00</time></trkpt><trkpt lat="39.55342893" lon="-0.5411474"><ele>103.2</ele><time>2022-11-01T13:37:53.0000000+00:00</time></trkpt><trkpt lat="39.5534265" lon="-0.54115101"><ele>103.2</ele><time>2022-11-01T13:37:54.0000000+00:00</time></trkpt><trkpt lat="39.55342918" lon="-0.54115453"><ele>103.2</ele><time>2022-11-01T13:37:55.0000000+00:00</time></trkpt><trkpt lat="39.5534322" lon="-0.5411614"><ele>103.2</ele><time>2022-11-01T13:37:56.0000000+00:00</time></trkpt><trkpt lat="39.55342884" lon="-0.54116216"><ele>103.2</ele><time>2022-11-01T13:37:57.0000000+00:00</time></trkpt><trkpt lat="39.55342222" lon="-0.54116014"><ele>103.2</ele><time>2022-11-01T13:37:58.0000000+00:00</time></trkpt><trkpt lat="39.55341954" lon="-0.54115805"><ele>103.2</ele><time>2022-11-01T13:37:59.0000000+00:00</time></trkpt><trkpt lat="39.55341954" lon="-0.54115805"><ele>103.4</ele><time>2022-11-01T13:38:00.0000000+00:00</time></trkpt><trkpt lat="39.55342138" lon="-0.54115838"><ele>103.4</ele><time>2022-11-01T13:38:01.0000000+00:00</time></trkpt><trkpt lat="39.55341526" lon="-0.54115989"><ele>103.4</ele><time>2022-11-01T13:38:02.0000000+00:00</time></trkpt><trkpt lat="39.55341275" lon="-0.54116098"><ele>103.4</ele><time>2022-11-01T13:38:03.0000000+00:00</time></trkpt><trkpt lat="39.5534151" lon="-0.54116241"><ele>103.4</ele><time>2022-11-01T13:38:04.0000000+00:00</time></trkpt><trkpt lat="39.55342121" lon="-0.54116685"><ele>103.2</ele><time>2022-11-01T13:38:08.0000000+00:00</time></trkpt><trkpt lat="39.55342121" lon="-0.54116685"><ele>103.2</ele><time>2022-11-01T13:38:09.0000000+00:00</time></trkpt><trkpt lat="39.55342121" lon="-0.54116685"><ele>103.2</ele><time>2022-11-01T13:38:10.0000000+00:00</time></trkpt><trkpt lat="39.55342121" lon="-0.54116685"><ele>103.2</ele><time>2022-11-01T13:38:11.0000000+00:00</time></trkpt><trkpt lat="39.55342121" lon="-0.54116685"><ele>103.2</ele><time>2022-11-01T13:38:12.0000000+00:00</time></trkpt><trkpt lat="39.55342121" lon="-0.54116685"><ele>103.2</ele><time>2022-11-01T13:38:13.0000000+00:00</time></trkpt><trkpt lat="39.55342121" lon="-0.54116685"><ele>103.2</ele><time>2022-11-01T13:38:14.0000000+00:00</time></trkpt><trkpt lat="39.55342121" lon="-0.54116685"><ele>103.2</ele><time>2022-11-01T13:38:15.0000000+00:00</time></trkpt><trkpt lat="39.55342121" lon="-0.54116685"><ele>103.0</ele><time>2022-11-01T13:38:16.0000000+00:00</time></trkpt><trkpt lat="39.55342121" lon="-0.54116685"><ele>103.0</ele><time>2022-11-01T13:38:17.0000000+00:00</time></trkpt><trkpt lat="39.55342121" lon="-0.54116685"><ele>103.0</ele><time>2022-11-01T13:38:18.0000000+00:00</time></trkpt><trkpt lat="39.5534332" lon="-0.54115411"><ele>103.0</ele><time>2022-11-01T13:38:19.0000000+00:00</time></trkpt><trkpt lat="39.5534358" lon="-0.54115344"><ele>103.0</ele><time>2022-11-01T13:38:20.0000000+00:00</time></trkpt><trkpt lat="39.5534358" lon="-0.54115344"><ele>103.0</ele><time>2022-11-01T13:38:21.0000000+00:00</time></trkpt><trkpt lat="39.5534358" lon="-0.54115344"><ele>103.0</ele><time>2022-11-01T13:38:22.0000000+00:00</time></trkpt><trkpt lat="39.55344041" lon="-0.5411495"><ele>103.0</ele><time>2022-11-01T13:38:23.0000000+00:00</time></trkpt><trkpt lat="39.55344376" lon="-0.54114992"><ele>103.0</ele><time>2022-11-01T13:38:24.0000000+00:00</time></trkpt><trkpt lat="39.55344376" lon="-0.54114992"><ele>103.0</ele><time>2022-11-01T13:38:25.0000000+00:00</time></trkpt><trkpt lat="39.55344376" lon="-0.54114992"><ele>103.0</ele><time>2022-11-01T13:38:26.0000000+00:00</time></trkpt><trkpt lat="39.55344376" lon="-0.54114992"><ele>103.0</ele><time>2022-11-01T13:38:27.0000000+00:00</time></trkpt><trkpt lat="39.55344376" lon="-0.54114992"><ele>103.0</ele><time>2022-11-01T13:38:28.0000000+00:00</time></trkpt><trkpt lat="39.55344376" lon="-0.54114992"><ele>103.0</ele><time>2022-11-01T13:38:29.0000000+00:00</time></trkpt><trkpt lat="39.55344728" lon="-0.54114531"><ele>103.0</ele><time>2022-11-01T13:38:30.0000000+00:00</time></trkpt><trkpt lat="39.55344955" lon="-0.5411469"><ele>103.0</ele><time>2022-11-01T13:38:31.0000000+00:00</time></trkpt><trkpt lat="39.55344955" lon="-0.5411469"><ele>103.0</ele><time>2022-11-01T13:38:32.0000000+00:00</time></trkpt><trkpt lat="39.55344955" lon="-0.5411469"><ele>103.0</ele><time>2022-11-01T13:38:33.0000000+00:00</time></trkpt><trkpt lat="39.55344955" lon="-0.5411469"><ele>103.0</ele><time>2022-11-01T13:38:34.0000000+00:00</time></trkpt><trkpt lat="39.55344955" lon="-0.5411469"><ele>103.0</ele><time>2022-11-01T13:38:35.0000000+00:00</time></trkpt><trkpt lat="39.55344955" lon="-0.5411469"><ele>103.0</ele><time>2022-11-01T13:38:36.0000000+00:00</time></trkpt><trkpt lat="39.55344955" lon="-0.5411469"><ele>103.0</ele><time>2022-11-01T13:38:37.0000000+00:00</time></trkpt><trkpt lat="39.55344955" lon="-0.5411469"><ele>103.0</ele><time>2022-11-01T13:38:38.0000000+00:00</time></trkpt><trkpt lat="39.55344955" lon="-0.5411469"><ele>103.0</ele><time>2022-11-01T13:38:39.0000000+00:00</time></trkpt><trkpt lat="39.55344955" lon="-0.5411469"><ele>103.0</ele><time>2022-11-01T13:38:40.0000000+00:00</time></trkpt><trkpt lat="39.55344955" lon="-0.5411469"><ele>103.0</ele><time>2022-11-01T13:38:41.0000000+00:00</time></trkpt><trkpt lat="39.55344955" lon="-0.5411469"><ele>103.0</ele><time>2022-11-01T13:38:42.0000000+00:00</time></trkpt><trkpt lat="39.55344955" lon="-0.5411469"><ele>103.0</ele><time>2022-11-01T13:38:43.0000000+00:00</time></trkpt><trkpt lat="39.55344955" lon="-0.5411469"><ele>103.0</ele><time>2022-11-01T13:38:44.0000000+00:00</time></trkpt><trkpt lat="39.55344955" lon="-0.5411469"><ele>103.0</ele><time>2022-11-01T13:38:45.0000000+00:00</time></trkpt><trkpt lat="39.55344955" lon="-0.5411469"><ele>103.0</ele><time>2022-11-01T13:38:46.0000000+00:00</time></trkpt><trkpt lat="39.55344955" lon="-0.5411469"><ele>103.0</ele><time>2022-11-01T13:38:47.0000000+00:00</time></trkpt><trkpt lat="39.55344955" lon="-0.5411469"><ele>103.0</ele><time>2022-11-01T13:38:48.0000000+00:00</time></trkpt><trkpt lat="39.55344955" lon="-0.5411469"><ele>103.0</ele><time>2022-11-01T13:38:49.0000000+00:00</time></trkpt><trkpt lat="39.55344955" lon="-0.5411469"><ele>103.0</ele><time>2022-11-01T13:38:50.0000000+00:00</time></trkpt><trkpt lat="39.55344955" lon="-0.5411469"><ele>103.0</ele><time>2022-11-01T13:38:51.0000000+00:00</time></trkpt><trkpt lat="39.55344955" lon="-0.5411469"><ele>103.0</ele><time>2022-11-01T13:38:52.0000000+00:00</time></trkpt><trkpt lat="39.55344955" lon="-0.5411469"><ele>103.0</ele><time>2022-11-01T13:38:53.0000000+00:00</time></trkpt><trkpt lat="39.55344955" lon="-0.5411469"><ele>103.0</ele><time>2022-11-01T13:38:54.0000000+00:00</time></trkpt><trkpt lat="39.55344955" lon="-0.5411469"><ele>103.0</ele><time>2022-11-01T13:38:55.0000000+00:00</time></trkpt><trkpt lat="39.55344955" lon="-0.5411469"><ele>103.0</ele><time>2022-11-01T13:38:56.0000000+00:00</time></trkpt><trkpt lat="39.55344955" lon="-0.5411469"><ele>103.0</ele><time>2022-11-01T13:38:57.0000000+00:00</time></trkpt><trkpt lat="39.55344955" lon="-0.5411469"><ele>103.0</ele><time>2022-11-01T13:38:58.0000000+00:00</time></trkpt><trkpt lat="39.55344955" lon="-0.5411469"><ele>103.0</ele><time>2022-11-01T13:38:59.0000000+00:00</time></trkpt><trkpt lat="39.55344955" lon="-0.5411469"><ele>103.0</ele><time>2022-11-01T13:39:00.0000000+00:00</time></trkpt><trkpt lat="39.55344955" lon="-0.5411469"><ele>103.0</ele><time>2022-11-01T13:39:01.0000000+00:00</time></trkpt><trkpt lat="39.55344955" lon="-0.5411469"><ele>103.0</ele><time>2022-11-01T13:39:02.0000000+00:00</time></trkpt><trkpt lat="39.55344142" lon="-0.54114724"><ele>103.0</ele><time>2022-11-01T13:39:03.0000000+00:00</time></trkpt><trkpt lat="39.55344033" lon="-0.54114363"><ele>103.0</ele><time>2022-11-01T13:39:04.0000000+00:00</time></trkpt><trkpt lat="39.55344033" lon="-0.54114363"><ele>103.0</ele><time>2022-11-01T13:39:05.0000000+00:00</time></trkpt><trkpt lat="39.55344033" lon="-0.54114363"><ele>103.0</ele><time>2022-11-01T13:39:06.0000000+00:00</time></trkpt><trkpt lat="39.55344033" lon="-0.54114363"><ele>103.0</ele><time>2022-11-01T13:39:07.0000000+00:00</time></trkpt><trkpt lat="39.55344033" lon="-0.54114363"><ele>103.0</ele><time>2022-11-01T13:39:08.0000000+00:00</time></trkpt><trkpt lat="39.55344033" lon="-0.54114363"><ele>103.0</ele><time>2022-11-01T13:39:09.0000000+00:00</time></trkpt><trkpt lat="39.55344033" lon="-0.54114363"><ele>103.0</ele><time>2022-11-01T13:39:10.0000000+00:00</time></trkpt><trkpt lat="39.55344033" lon="-0.54114363"><ele>103.0</ele><time>2022-11-01T13:39:11.0000000+00:00</time></trkpt><trkpt lat="39.55344033" lon="-0.54114363"><ele>103.0</ele><time>2022-11-01T13:39:12.0000000+00:00</time></trkpt><trkpt lat="39.55344033" lon="-0.54114363"><ele>103.0</ele><time>2022-11-01T13:39:13.0000000+00:00</time></trkpt><trkpt lat="39.55344033" lon="-0.54114363"><ele>103.0</ele><time>2022-11-01T13:39:14.0000000+00:00</time></trkpt><trkpt lat="39.55344033" lon="-0.54114363"><ele>103.0</ele><time>2022-11-01T13:39:15.0000000+00:00</time></trkpt><trkpt lat="39.55344033" lon="-0.54114363"><ele>103.0</ele><time>2022-11-01T13:39:16.0000000+00:00</time></trkpt><trkpt lat="39.55344033" lon="-0.54114363"><ele>103.0</ele><time>2022-11-01T13:39:17.0000000+00:00</time></trkpt><trkpt lat="39.55344033" lon="-0.54114363"><ele>103.0</ele><time>2022-11-01T13:39:18.0000000+00:00</time></trkpt><trkpt lat="39.55344033" lon="-0.54114363"><ele>103.0</ele><time>2022-11-01T13:39:19.0000000+00:00</time></trkpt><trkpt lat="39.55344033" lon="-0.54114363"><ele>103.0</ele><time>2022-11-01T13:39:20.0000000+00:00</time></trkpt><trkpt lat="39.55344033" lon="-0.54114363"><ele>103.0</ele><time>2022-11-01T13:39:21.0000000+00:00</time></trkpt><trkpt lat="39.55344033" lon="-0.54114363"><ele>103.0</ele><time>2022-11-01T13:39:22.0000000+00:00</time></trkpt><trkpt lat="39.55344033" lon="-0.54114363"><ele>103.0</ele><time>2022-11-01T13:39:23.0000000+00:00</time></trkpt><trkpt lat="39.55344033" lon="-0.54114363"><ele>103.0</ele><time>2022-11-01T13:39:24.0000000+00:00</time></trkpt><trkpt lat="39.55344033" lon="-0.54114363"><ele>103.0</ele><time>2022-11-01T13:39:25.0000000+00:00</time></trkpt><trkpt lat="39.55344033" lon="-0.54114363"><ele>103.0</ele><time>2022-11-01T13:39:26.0000000+00:00</time></trkpt><trkpt lat="39.55344033" lon="-0.54114363"><ele>103.0</ele><time>2022-11-01T13:39:27.0000000+00:00</time></trkpt><trkpt lat="39.55344033" lon="-0.54114363"><ele>103.0</ele><time>2022-11-01T13:39:28.0000000+00:00</time></trkpt><trkpt lat="39.55344033" lon="-0.54114363"><ele>103.0</ele><time>2022-11-01T13:39:29.0000000+00:00</time></trkpt><trkpt lat="39.55344033" lon="-0.54114363"><ele>103.0</ele><time>2022-11-01T13:39:30.0000000+00:00</time></trkpt><trkpt lat="39.55344033" lon="-0.54114363"><ele>103.0</ele><time>2022-11-01T13:39:31.0000000+00:00</time></trkpt><trkpt lat="39.55343479" lon="-0.54114363"><ele>103.0</ele><time>2022-11-01T13:39:32.0000000+00:00</time></trkpt><trkpt lat="39.55342272" lon="-0.54114774"><ele>103.0</ele><time>2022-11-01T13:39:33.0000000+00:00</time></trkpt><trkpt lat="39.55342138" lon="-0.54114833"><ele>103.0</ele><time>2022-11-01T13:39:34.0000000+00:00</time></trkpt><trkpt lat="39.55342138" lon="-0.54114833"><ele>103.0</ele><time>2022-11-01T13:39:35.0000000+00:00</time></trkpt><trkpt lat="39.55342138" lon="-0.54114833"><ele>103.0</ele><time>2022-11-01T13:39:36.0000000+00:00</time></trkpt><trkpt lat="39.55342138" lon="-0.54114833"><ele>103.0</ele><time>2022-11-01T13:39:37.0000000+00:00</time></trkpt><trkpt lat="39.55342985" lon="-0.54115176"><ele>103.0</ele><time>2022-11-01T13:39:38.0000000+00:00</time></trkpt><trkpt lat="39.55342935" lon="-0.54115218"><ele>103.2</ele><time>2022-11-01T13:39:39.0000000+00:00</time></trkpt><trkpt lat="39.55342935" lon="-0.54115218"><ele>103.2</ele><time>2022-11-01T13:39:40.0000000+00:00</time></trkpt><trkpt lat="39.55343697" lon="-0.54114673"><ele>103.2</ele><time>2022-11-01T13:39:41.0000000+00:00</time></trkpt><trkpt lat="39.55344359" lon="-0.54114405"><ele>103.2</ele><time>2022-11-01T13:39:42.0000000+00:00</time></trkpt><trkpt lat="39.55344359" lon="-0.54114405"><ele>103.2</ele><time>2022-11-01T13:39:43.0000000+00:00</time></trkpt><trkpt lat="39.55344359" lon="-0.54114405"><ele>103.2</ele><time>2022-11-01T13:39:44.0000000+00:00</time></trkpt><trkpt lat="39.55344359" lon="-0.54114405"><ele>103.2</ele><time>2022-11-01T13:39:45.0000000+00:00</time></trkpt><trkpt lat="39.55344359" lon="-0.54114405"><ele>103.2</ele><time>2022-11-01T13:39:46.0000000+00:00</time></trkpt><trkpt lat="39.55344284" lon="-0.54114724"><ele>103.4</ele><time>2022-11-01T13:39:47.0000000+00:00</time></trkpt><trkpt lat="39.55343597" lon="-0.54115118"><ele>103.4</ele><time>2022-11-01T13:39:48.0000000+00:00</time></trkpt><trkpt lat="39.55343085" lon="-0.5411562"><ele>103.4</ele><time>2022-11-01T13:39:49.0000000+00:00</time></trkpt><trkpt lat="39.55342792" lon="-0.54115838"><ele>103.4</ele><time>2022-11-01T13:39:50.0000000+00:00</time></trkpt><trkpt lat="39.55342792" lon="-0.54115838"><ele>103.4</ele><time>2022-11-01T13:39:51.0000000+00:00</time></trkpt><trkpt lat="39.55343002" lon="-0.54115738"><ele>103.4</ele><time>2022-11-01T13:39:52.0000000+00:00</time></trkpt><trkpt lat="39.55343002" lon="-0.54115738"><ele>103.2</ele><time>2022-11-01T13:39:53.0000000+00:00</time></trkpt><trkpt lat="39.55343002" lon="-0.54115738"><ele>103.2</ele><time>2022-11-01T13:39:54.0000000+00:00</time></trkpt><trkpt lat="39.55343002" lon="-0.54115738"><ele>103.2</ele><time>2022-11-01T13:39:55.0000000+00:00</time></trkpt><trkpt lat="39.55343002" lon="-0.54115738"><ele>103.2</ele><time>2022-11-01T13:39:56.0000000+00:00</time></trkpt><trkpt lat="39.55343002" lon="-0.54115738"><ele>103.2</ele><time>2022-11-01T13:39:57.0000000+00:00</time></trkpt><trkpt lat="39.55343002" lon="-0.54115738"><ele>103.2</ele><time>2022-11-01T13:39:58.0000000+00:00</time></trkpt><trkpt lat="39.55343002" lon="-0.54115738"><ele>103.2</ele><time>2022-11-01T13:39:59.0000000+00:00</time></trkpt><trkpt lat="39.55342993" lon="-0.54116006"><ele>103.2</ele><time>2022-11-01T13:40:00.0000000+00:00</time></trkpt><trkpt lat="39.55342968" lon="-0.54116442"><ele>103.2</ele><time>2022-11-01T13:40:01.0000000+00:00</time></trkpt><trkpt lat="39.55342876" lon="-0.54116316"><ele>103.2</ele><time>2022-11-01T13:40:02.0000000+00:00</time></trkpt><trkpt lat="39.55342918" lon="-0.54116383"><ele>103.2</ele><time>2022-11-01T13:40:03.0000000+00:00</time></trkpt><trkpt lat="39.55343085" lon="-0.5411645"><ele>103.0</ele><time>2022-11-01T13:40:04.0000000+00:00</time></trkpt><trkpt lat="39.55342876" lon="-0.54117112"><ele>103.0</ele><time>2022-11-01T13:40:05.0000000+00:00</time></trkpt><trkpt lat="39.55342733" lon="-0.54117842"><ele>103.0</ele><time>2022-11-01T13:40:06.0000000+00:00</time></trkpt><trkpt lat="39.55342767" lon="-0.54118345"><ele>103.0</ele><time>2022-11-01T13:40:07.0000000+00:00</time></trkpt><trkpt lat="39.55342758" lon="-0.54118437"><ele>103.2</ele><time>2022-11-01T13:40:08.0000000+00:00</time></trkpt><trkpt lat="39.55342758" lon="-0.54118437"><ele>103.2</ele><time>2022-11-01T13:40:09.0000000+00:00</time></trkpt><trkpt lat="39.55342758" lon="-0.54118437"><ele>103.2</ele><time>2022-11-01T13:40:10.0000000+00:00</time></trkpt><trkpt lat="39.55342758" lon="-0.54118437"><ele>103.2</ele><time>2022-11-01T13:40:11.0000000+00:00</time></trkpt><trkpt lat="39.55342758" lon="-0.54118437"><ele>103.2</ele><time>2022-11-01T13:40:12.0000000+00:00</time></trkpt><trkpt lat="39.55343689" lon="-0.5411878"><ele>103.2</ele><time>2022-11-01T13:40:13.0000000+00:00</time></trkpt><trkpt lat="39.55343689" lon="-0.5411878"><ele>103.2</ele><time>2022-11-01T13:40:14.0000000+00:00</time></trkpt><trkpt lat="39.55343689" lon="-0.5411878"><ele>103.2</ele><time>2022-11-01T13:40:15.0000000+00:00</time></trkpt><trkpt lat="39.55343689" lon="-0.5411878"><ele>103.2</ele><time>2022-11-01T13:40:16.0000000+00:00</time></trkpt><trkpt lat="39.55343689" lon="-0.5411878"><ele>103.2</ele><time>2022-11-01T13:40:17.0000000+00:00</time></trkpt><trkpt lat="39.55343689" lon="-0.5411878"><ele>103.2</ele><time>2022-11-01T13:40:18.0000000+00:00</time></trkpt><trkpt lat="39.55343689" lon="-0.5411878"><ele>103.2</ele><time>2022-11-01T13:40:19.0000000+00:00</time></trkpt><trkpt lat="39.55343689" lon="-0.5411878"><ele>103.2</ele><time>2022-11-01T13:40:20.0000000+00:00</time></trkpt><trkpt lat="39.55343689" lon="-0.5411878"><ele>103.2</ele><time>2022-11-01T13:40:21.0000000+00:00</time></trkpt><trkpt lat="39.55343689" lon="-0.5411878"><ele>103.2</ele><time>2022-11-01T13:40:22.0000000+00:00</time></trkpt><trkpt lat="39.55343689" lon="-0.5411878"><ele>103.2</ele><time>2022-11-01T13:40:23.0000000+00:00</time></trkpt><trkpt lat="39.55343689" lon="-0.5411878"><ele>103.2</ele><time>2022-11-01T13:40:24.0000000+00:00</time></trkpt><trkpt lat="39.55343689" lon="-0.5411878"><ele>103.2</ele><time>2022-11-01T13:40:25.0000000+00:00</time></trkpt><trkpt lat="39.55343689" lon="-0.5411878"><ele>103.2</ele><time>2022-11-01T13:40:26.0000000+00:00</time></trkpt><trkpt lat="39.55343689" lon="-0.5411878"><ele>103.2</ele><time>2022-11-01T13:40:27.0000000+00:00</time></trkpt><trkpt lat="39.55343689" lon="-0.5411878"><ele>103.2</ele><time>2022-11-01T13:40:28.0000000+00:00</time></trkpt><trkpt lat="39.55343689" lon="-0.5411878"><ele>103.2</ele><time>2022-11-01T13:40:29.0000000+00:00</time></trkpt><trkpt lat="39.55343689" lon="-0.5411878"><ele>103.2</ele><time>2022-11-01T13:40:30.0000000+00:00</time></trkpt><trkpt lat="39.55343689" lon="-0.5411878"><ele>103.2</ele><time>2022-11-01T13:40:31.0000000+00:00</time></trkpt><trkpt lat="39.55343689" lon="-0.5411878"><ele>103.2</ele><time>2022-11-01T13:40:32.0000000+00:00</time></trkpt><trkpt lat="39.55343689" lon="-0.5411878"><ele>103.2</ele><time>2022-11-01T13:40:33.0000000+00:00</time></trkpt><trkpt lat="39.55343689" lon="-0.5411878"><ele>103.2</ele><time>2022-11-01T13:40:34.0000000+00:00</time></trkpt><trkpt lat="39.55343689" lon="-0.5411878"><ele>103.2</ele><time>2022-11-01T13:40:35.0000000+00:00</time></trkpt><trkpt lat="39.55343689" lon="-0.5411878"><ele>103.2</ele><time>2022-11-01T13:40:36.0000000+00:00</time></trkpt><trkpt lat="39.55343689" lon="-0.5411878"><ele>103.2</ele><time>2022-11-01T13:40:37.0000000+00:00</time></trkpt><trkpt lat="39.55343689" lon="-0.5411878"><ele>103.2</ele><time>2022-11-01T13:40:38.0000000+00:00</time></trkpt><trkpt lat="39.55343689" lon="-0.5411878"><ele>103.2</ele><time>2022-11-01T13:40:39.0000000+00:00</time></trkpt><trkpt lat="39.55343689" lon="-0.5411878"><ele>103.2</ele><time>2022-11-01T13:40:40.0000000+00:00</time></trkpt><trkpt lat="39.55343689" lon="-0.5411878"><ele>103.2</ele><time>2022-11-01T13:40:41.0000000+00:00</time></trkpt><trkpt lat="39.55343689" lon="-0.5411878"><ele>103.2</ele><time>2022-11-01T13:40:42.0000000+00:00</time></trkpt><trkpt lat="39.55343689" lon="-0.5411878"><ele>103.2</ele><time>2022-11-01T13:40:43.0000000+00:00</time></trkpt><trkpt lat="39.55343689" lon="-0.5411878"><ele>103.2</ele><time>2022-11-01T13:40:44.0000000+00:00</time></trkpt><trkpt lat="39.55343689" lon="-0.5411878"><ele>103.2</ele><time>2022-11-01T13:40:45.0000000+00:00</time></trkpt><trkpt lat="39.55343689" lon="-0.5411878"><ele>103.2</ele><time>2022-11-01T13:40:46.0000000+00:00</time></trkpt><trkpt lat="39.55343689" lon="-0.5411878"><ele>103.2</ele><time>2022-11-01T13:40:47.0000000+00:00</time></trkpt><trkpt lat="39.55343689" lon="-0.5411878"><ele>103.2</ele><time>2022-11-01T13:40:48.0000000+00:00</time></trkpt><trkpt lat="39.55343689" lon="-0.5411878"><ele>103.2</ele><time>2022-11-01T13:40:49.0000000+00:00</time></trkpt><trkpt lat="39.55343689" lon="-0.5411878"><ele>103.2</ele><time>2022-11-01T13:40:50.0000000+00:00</time></trkpt><trkpt lat="39.55343689" lon="-0.5411878"><ele>103.2</ele><time>2022-11-01T13:40:51.0000000+00:00</time></trkpt><trkpt lat="39.55343689" lon="-0.5411878"><ele>103.2</ele><time>2022-11-01T13:40:52.0000000+00:00</time></trkpt><trkpt lat="39.55343689" lon="-0.5411878"><ele>103.4</ele><time>2022-11-01T13:40:53.0000000+00:00</time></trkpt><trkpt lat="39.55343689" lon="-0.5411878"><ele>103.6</ele><time>2022-11-01T13:40:54.0000000+00:00</time></trkpt><trkpt lat="39.55343689" lon="-0.5411878"><ele>103.6</ele><time>2022-11-01T13:40:55.0000000+00:00</time></trkpt><trkpt lat="39.55343069" lon="-0.54119526"><ele>103.6</ele><time>2022-11-01T13:40:56.0000000+00:00</time></trkpt><trkpt lat="39.55355943" lon="-0.54135167"><ele>103.2</ele><time>2022-11-01T13:41:27.0000000+00:00</time></trkpt><trkpt lat="39.55355742" lon="-0.54134706"><ele>103.2</ele><time>2022-11-01T13:41:28.0000000+00:00</time></trkpt><trkpt lat="39.55355742" lon="-0.54134706"><ele>103.2</ele><time>2022-11-01T13:41:29.0000000+00:00</time></trkpt><trkpt lat="39.55355742" lon="-0.54134706"><ele>103.0</ele><time>2022-11-01T13:41:30.0000000+00:00</time></trkpt><trkpt lat="39.55355742" lon="-0.54134706"><ele>103.0</ele><time>2022-11-01T13:41:31.0000000+00:00</time></trkpt><trkpt lat="39.55355742" lon="-0.54134706"><ele>103.0</ele><time>2022-11-01T13:41:32.0000000+00:00</time></trkpt><trkpt lat="39.55355742" lon="-0.54134698"><ele>103.0</ele><time>2022-11-01T13:41:33.0000000+00:00</time></trkpt><trkpt lat="39.55363705" lon="-0.54119987"><ele>103.0</ele><time>2022-11-01T13:41:34.0000000+00:00</time></trkpt><trkpt lat="39.55363462" lon="-0.5412008"><ele>103.0</ele><time>2022-11-01T13:41:35.0000000+00:00</time></trkpt><trkpt lat="39.55363462" lon="-0.5412008"><ele>102.8</ele><time>2022-11-01T13:41:36.0000000+00:00</time></trkpt><trkpt lat="39.55363462" lon="-0.5412008"><ele>102.8</ele><time>2022-11-01T13:41:37.0000000+00:00</time></trkpt><trkpt lat="39.55363462" lon="-0.5412008"><ele>103.0</ele><time>2022-11-01T13:41:38.0000000+00:00</time></trkpt><trkpt lat="39.55363462" lon="-0.5412008"><ele>103.0</ele><time>2022-11-01T13:41:39.0000000+00:00</time></trkpt><trkpt lat="39.55357653" lon="-0.54119803"><ele>103.0</ele><time>2022-11-01T13:41:40.0000000+00:00</time></trkpt><trkpt lat="39.55357444" lon="-0.54119535"><ele>103.0</ele><time>2022-11-01T13:41:41.0000000+00:00</time></trkpt><trkpt lat="39.55357435" lon="-0.54119535"><ele>103.0</ele><time>2022-11-01T13:41:42.0000000+00:00</time></trkpt><trkpt lat="39.55357435" lon="-0.54119535"><ele>103.0</ele><time>2022-11-01T13:41:43.0000000+00:00</time></trkpt><trkpt lat="39.55357435" lon="-0.54119535"><ele>103.0</ele><time>2022-11-01T13:41:44.0000000+00:00</time></trkpt><trkpt lat="39.55357435" lon="-0.54119535"><ele>103.0</ele><time>2022-11-01T13:41:45.0000000+00:00</time></trkpt><trkpt lat="39.55357435" lon="-0.54119535"><ele>103.0</ele><time>2022-11-01T13:41:46.0000000+00:00</time></trkpt><trkpt lat="39.55357435" lon="-0.54119535"><ele>103.0</ele><time>2022-11-01T13:41:47.0000000+00:00</time></trkpt><trkpt lat="39.55357435" lon="-0.54119535"><ele>103.0</ele><time>2022-11-01T13:41:48.0000000+00:00</time></trkpt><trkpt lat="39.55357435" lon="-0.54119535"><ele>103.0</ele><time>2022-11-01T13:41:49.0000000+00:00</time></trkpt><trkpt lat="39.55357435" lon="-0.54119535"><ele>103.0</ele><time>2022-11-01T13:41:50.0000000+00:00</time></trkpt><trkpt lat="39.55357435" lon="-0.54119535"><ele>103.0</ele><time>2022-11-01T13:41:51.0000000+00:00</time></trkpt><trkpt lat="39.55353068" lon="-0.54110969"><ele>103.0</ele><time>2022-11-01T13:41:52.0000000+00:00</time></trkpt><trkpt lat="39.5535285" lon="-0.54110893"><ele>103.0</ele><time>2022-11-01T13:41:53.0000000+00:00</time></trkpt><trkpt lat="39.5535285" lon="-0.54110893"><ele>103.0</ele><time>2022-11-01T13:41:54.0000000+00:00</time></trkpt><trkpt lat="39.5535285" lon="-0.54110893"><ele>103.0</ele><time>2022-11-01T13:41:55.0000000+00:00</time></trkpt><trkpt lat="39.5535285" lon="-0.54110893"><ele>103.0</ele><time>2022-11-01T13:41:56.0000000+00:00</time></trkpt><trkpt lat="39.5535285" lon="-0.54110893"><ele>103.0</ele><time>2022-11-01T13:41:57.0000000+00:00</time></trkpt><trkpt lat="39.5535285" lon="-0.54110893"><ele>103.0</ele><time>2022-11-01T13:41:58.0000000+00:00</time></trkpt><trkpt lat="39.5535285" lon="-0.54110893"><ele>103.0</ele><time>2022-11-01T13:41:59.0000000+00:00</time></trkpt><trkpt lat="39.5535285" lon="-0.54110893"><ele>103.0</ele><time>2022-11-01T13:42:00.0000000+00:00</time></trkpt><trkpt lat="39.5535285" lon="-0.54110893"><ele>103.0</ele><time>2022-11-01T13:42:01.0000000+00:00</time></trkpt><trkpt lat="39.5535285" lon="-0.54110893"><ele>103.0</ele><time>2022-11-01T13:42:02.0000000+00:00</time></trkpt><trkpt lat="39.5535285" lon="-0.54110893"><ele>103.0</ele><time>2022-11-01T13:42:03.0000000+00:00</time></trkpt><trkpt lat="39.5535285" lon="-0.54110893"><ele>103.0</ele><time>2022-11-01T13:42:04.0000000+00:00</time></trkpt><trkpt lat="39.5535285" lon="-0.54110893"><ele>103.0</ele><time>2022-11-01T13:42:05.0000000+00:00</time></trkpt><trkpt lat="39.5535285" lon="-0.54110893"><ele>103.0</ele><time>2022-11-01T13:42:06.0000000+00:00</time></trkpt><trkpt lat="39.55349908" lon="-0.54107792"><ele>103.0</ele><time>2022-11-01T13:42:07.0000000+00:00</time></trkpt><trkpt lat="39.55349623" lon="-0.54107809"><ele>103.0</ele><time>2022-11-01T13:42:08.0000000+00:00</time></trkpt><trkpt lat="39.55349623" lon="-0.54107809"><ele>103.0</ele><time>2022-11-01T13:42:09.0000000+00:00</time></trkpt><trkpt lat="39.55349623" lon="-0.54107809"><ele>103.0</ele><time>2022-11-01T13:42:10.0000000+00:00</time></trkpt><trkpt lat="39.55349623" lon="-0.54107809"><ele>103.0</ele><time>2022-11-01T13:42:11.0000000+00:00</time></trkpt><trkpt lat="39.55349623" lon="-0.54107809"><ele>103.0</ele><time>2022-11-01T13:42:12.0000000+00:00</time></trkpt><trkpt lat="39.55349623" lon="-0.54107809"><ele>103.0</ele><time>2022-11-01T13:42:13.0000000+00:00</time></trkpt><trkpt lat="39.55349623" lon="-0.54107809"><ele>103.0</ele><time>2022-11-01T13:42:14.0000000+00:00</time></trkpt><trkpt lat="39.55349623" lon="-0.54107809"><ele>103.0</ele><time>2022-11-01T13:42:15.0000000+00:00</time></trkpt><trkpt lat="39.55349623" lon="-0.54107809"><ele>103.0</ele><time>2022-11-01T13:42:16.0000000+00:00</time></trkpt><trkpt lat="39.55349623" lon="-0.54107809"><ele>103.0</ele><time>2022-11-01T13:42:17.0000000+00:00</time></trkpt><trkpt lat="39.55349623" lon="-0.54107809"><ele>103.0</ele><time>2022-11-01T13:42:18.0000000+00:00</time></trkpt><trkpt lat="39.55349623" lon="-0.54107809"><ele>103.0</ele><time>2022-11-01T13:42:19.0000000+00:00</time></trkpt><trkpt lat="39.55349623" lon="-0.54107809"><ele>103.0</ele><time>2022-11-01T13:42:20.0000000+00:00</time></trkpt><trkpt lat="39.55349623" lon="-0.54107809"><ele>103.0</ele><time>2022-11-01T13:42:21.0000000+00:00</time></trkpt><trkpt lat="39.55349623" lon="-0.54107809"><ele>103.0</ele><time>2022-11-01T13:42:22.0000000+00:00</time></trkpt><trkpt lat="39.55349623" lon="-0.54107809"><ele>103.0</ele><time>2022-11-01T13:42:23.0000000+00:00</time></trkpt><trkpt lat="39.55349623" lon="-0.54107809"><ele>103.0</ele><time>2022-11-01T13:42:24.0000000+00:00</time></trkpt><trkpt lat="39.55349623" lon="-0.54107809"><ele>103.0</ele><time>2022-11-01T13:42:25.0000000+00:00</time></trkpt><trkpt lat="39.55349623" lon="-0.54107809"><ele>103.0</ele><time>2022-11-01T13:42:26.0000000+00:00</time></trkpt><trkpt lat="39.55349623" lon="-0.54107809"><ele>103.0</ele><time>2022-11-01T13:42:27.0000000+00:00</time></trkpt><trkpt lat="39.55349623" lon="-0.54107809"><ele>103.0</ele><time>2022-11-01T13:42:28.0000000+00:00</time></trkpt><trkpt lat="39.55349623" lon="-0.54107809"><ele>103.0</ele><time>2022-11-01T13:42:29.0000000+00:00</time></trkpt><trkpt lat="39.55351308" lon="-0.54110248"><ele>103.0</ele><time>2022-11-01T13:42:30.0000000+00:00</time></trkpt><trkpt lat="39.55351065" lon="-0.54110466"><ele>103.0</ele><time>2022-11-01T13:42:31.0000000+00:00</time></trkpt><trkpt lat="39.55347871" lon="-0.54111153"><ele>103.0</ele><time>2022-11-01T13:42:32.0000000+00:00</time></trkpt><trkpt lat="39.55347519" lon="-0.54111404"><ele>103.0</ele><time>2022-11-01T13:42:33.0000000+00:00</time></trkpt><trkpt lat="39.55347519" lon="-0.54111404"><ele>103.0</ele><time>2022-11-01T13:42:34.0000000+00:00</time></trkpt><trkpt lat="39.55347511" lon="-0.54111404"><ele>103.0</ele><time>2022-11-01T13:42:35.0000000+00:00</time></trkpt><trkpt lat="39.55347511" lon="-0.54111404"><ele>103.0</ele><time>2022-11-01T13:42:36.0000000+00:00</time></trkpt><trkpt lat="39.55347511" lon="-0.54111404"><ele>103.0</ele><time>2022-11-01T13:42:37.0000000+00:00</time></trkpt><trkpt lat="39.55347511" lon="-0.54111404"><ele>103.0</ele><time>2022-11-01T13:42:38.0000000+00:00</time></trkpt><trkpt lat="39.55347511" lon="-0.54111404"><ele>103.0</ele><time>2022-11-01T13:42:39.0000000+00:00</time></trkpt><trkpt lat="39.55347511" lon="-0.54111404"><ele>103.0</ele><time>2022-11-01T13:42:40.0000000+00:00</time></trkpt><trkpt lat="39.55347511" lon="-0.54111404"><ele>103.2</ele><time>2022-11-01T13:42:41.0000000+00:00</time></trkpt><trkpt lat="39.55347511" lon="-0.54111404"><ele>103.2</ele><time>2022-11-01T13:42:42.0000000+00:00</time></trkpt><trkpt lat="39.55347511" lon="-0.54111404"><ele>103.2</ele><time>2022-11-01T13:42:43.0000000+00:00</time></trkpt><trkpt lat="39.55347511" lon="-0.54111404"><ele>103.2</ele><time>2022-11-01T13:42:44.0000000+00:00</time></trkpt><trkpt lat="39.55347511" lon="-0.54111404"><ele>103.2</ele><time>2022-11-01T13:42:45.0000000+00:00</time></trkpt><trkpt lat="39.55347511" lon="-0.54111404"><ele>103.2</ele><time>2022-11-01T13:42:46.0000000+00:00</time></trkpt><trkpt lat="39.55347511" lon="-0.54111404"><ele>103.2</ele><time>2022-11-01T13:42:47.0000000+00:00</time></trkpt><trkpt lat="39.55347511" lon="-0.54111404"><ele>103.2</ele><time>2022-11-01T13:42:48.0000000+00:00</time></trkpt><trkpt lat="39.55347511" lon="-0.54111404"><ele>103.2</ele><time>2022-11-01T13:42:49.0000000+00:00</time></trkpt><trkpt lat="39.55347511" lon="-0.54111404"><ele>103.2</ele><time>2022-11-01T13:42:50.0000000+00:00</time></trkpt><trkpt lat="39.55347511" lon="-0.54111404"><ele>103.0</ele><time>2022-11-01T13:42:51.0000000+00:00</time></trkpt><trkpt lat="39.55347511" lon="-0.54111404"><ele>103.0</ele><time>2022-11-01T13:42:52.0000000+00:00</time></trkpt><trkpt lat="39.55347511" lon="-0.54111404"><ele>103.0</ele><time>2022-11-01T13:42:53.0000000+00:00</time></trkpt><trkpt lat="39.55347511" lon="-0.54111404"><ele>103.0</ele><time>2022-11-01T13:42:54.0000000+00:00</time></trkpt><trkpt lat="39.55347511" lon="-0.54111404"><ele>103.0</ele><time>2022-11-01T13:42:55.0000000+00:00</time></trkpt><trkpt lat="39.55347511" lon="-0.54111404"><ele>103.0</ele><time>2022-11-01T13:42:56.0000000+00:00</time></trkpt><trkpt lat="39.55347511" lon="-0.54111404"><ele>103.0</ele><time>2022-11-01T13:42:57.0000000+00:00</time></trkpt><trkpt lat="39.55347511" lon="-0.54111404"><ele>103.0</ele><time>2022-11-01T13:42:58.0000000+00:00</time></trkpt><trkpt lat="39.55347511" lon="-0.54111404"><ele>103.0</ele><time>2022-11-01T13:42:59.0000000+00:00</time></trkpt><trkpt lat="39.55347511" lon="-0.54111404"><ele>103.0</ele><time>2022-11-01T13:43:00.0000000+00:00</time></trkpt><trkpt lat="39.55347511" lon="-0.54111404"><ele>103.0</ele><time>2022-11-01T13:43:01.0000000+00:00</time></trkpt><trkpt lat="39.55347511" lon="-0.54111404"><ele>103.0</ele><time>2022-11-01T13:43:02.0000000+00:00</time></trkpt><trkpt lat="39.55347511" lon="-0.54111404"><ele>103.0</ele><time>2022-11-01T13:43:03.0000000+00:00</time></trkpt><trkpt lat="39.55347511" lon="-0.54111404"><ele>103.0</ele><time>2022-11-01T13:43:04.0000000+00:00</time></trkpt><trkpt lat="39.55347511" lon="-0.54111404"><ele>103.0</ele><time>2022-11-01T13:43:05.0000000+00:00</time></trkpt><trkpt lat="39.55347511" lon="-0.54111404"><ele>103.0</ele><time>2022-11-01T13:43:06.0000000+00:00</time></trkpt><trkpt lat="39.55347511" lon="-0.54111404"><ele>103.0</ele><time>2022-11-01T13:43:07.0000000+00:00</time></trkpt><trkpt lat="39.55347511" lon="-0.54111404"><ele>103.0</ele><time>2022-11-01T13:43:08.0000000+00:00</time></trkpt><trkpt lat="39.55347511" lon="-0.54111404"><ele>103.0</ele><time>2022-11-01T13:43:09.0000000+00:00</time></trkpt><trkpt lat="39.55347511" lon="-0.54111404"><ele>103.0</ele><time>2022-11-01T13:43:10.0000000+00:00</time></trkpt><trkpt lat="39.55347511" lon="-0.54111404"><ele>103.0</ele><time>2022-11-01T13:43:11.0000000+00:00</time></trkpt><trkpt lat="39.55347511" lon="-0.54111404"><ele>103.0</ele><time>2022-11-01T13:43:12.0000000+00:00</time></trkpt><trkpt lat="39.55347511" lon="-0.54111404"><ele>103.0</ele><time>2022-11-01T13:43:13.0000000+00:00</time></trkpt><trkpt lat="39.55347511" lon="-0.54111404"><ele>103.0</ele><time>2022-11-01T13:43:14.0000000+00:00</time></trkpt><trkpt lat="39.55347511" lon="-0.54111404"><ele>103.0</ele><time>2022-11-01T13:43:15.0000000+00:00</time></trkpt><trkpt lat="39.55347511" lon="-0.54111404"><ele>103.0</ele><time>2022-11-01T13:43:16.0000000+00:00</time></trkpt><trkpt lat="39.55347511" lon="-0.54111404"><ele>103.0</ele><time>2022-11-01T13:43:17.0000000+00:00</time></trkpt><trkpt lat="39.55347511" lon="-0.54111404"><ele>103.0</ele><time>2022-11-01T13:43:18.0000000+00:00</time></trkpt><trkpt lat="39.55347511" lon="-0.54111404"><ele>103.0</ele><time>2022-11-01T13:43:19.0000000+00:00</time></trkpt><trkpt lat="39.55347511" lon="-0.54111404"><ele>103.0</ele><time>2022-11-01T13:43:20.0000000+00:00</time></trkpt><trkpt lat="39.55347511" lon="-0.54111404"><ele>103.0</ele><time>2022-11-01T13:43:21.0000000+00:00</time></trkpt><trkpt lat="39.55347511" lon="-0.54111404"><ele>103.0</ele><time>2022-11-01T13:43:22.0000000+00:00</time></trkpt><trkpt lat="39.55347511" lon="-0.54111404"><ele>103.0</ele><time>2022-11-01T13:43:23.0000000+00:00</time></trkpt><trkpt lat="39.55347511" lon="-0.54111404"><ele>103.0</ele><time>2022-11-01T13:43:24.0000000+00:00</time></trkpt><trkpt lat="39.55347511" lon="-0.54111404"><ele>103.0</ele><time>2022-11-01T13:43:25.0000000+00:00</time></trkpt><trkpt lat="39.55347511" lon="-0.54111404"><ele>103.0</ele><time>2022-11-01T13:43:26.0000000+00:00</time></trkpt><trkpt lat="39.55347511" lon="-0.54111404"><ele>103.0</ele><time>2022-11-01T13:43:27.0000000+00:00</time></trkpt><trkpt lat="39.55347511" lon="-0.54111404"><ele>103.0</ele><time>2022-11-01T13:43:28.0000000+00:00</time></trkpt><trkpt lat="39.55347511" lon="-0.54111404"><ele>103.0</ele><time>2022-11-01T13:43:29.0000000+00:00</time></trkpt><trkpt lat="39.55347511" lon="-0.54111404"><ele>103.0</ele><time>2022-11-01T13:43:30.0000000+00:00</time></trkpt><trkpt lat="39.5534788" lon="-0.54112167"><ele>103.0</ele><time>2022-11-01T13:43:31.0000000+00:00</time></trkpt><trkpt lat="39.55347662" lon="-0.54112108"><ele>103.0</ele><time>2022-11-01T13:43:32.0000000+00:00</time></trkpt><trkpt lat="39.55347662" lon="-0.54112108"><ele>103.0</ele><time>2022-11-01T13:43:33.0000000+00:00</time></trkpt><trkpt lat="39.55347662" lon="-0.54112108"><ele>103.0</ele><time>2022-11-01T13:43:34.0000000+00:00</time></trkpt><trkpt lat="39.55347662" lon="-0.54112108"><ele>103.2</ele><time>2022-11-01T13:43:35.0000000+00:00</time></trkpt><trkpt lat="39.55347662" lon="-0.54112108"><ele>103.2</ele><time>2022-11-01T13:43:36.0000000+00:00</time></trkpt><trkpt lat="39.55347662" lon="-0.54112108"><ele>103.2</ele><time>2022-11-01T13:43:37.0000000+00:00</time></trkpt><trkpt lat="39.55347662" lon="-0.54112108"><ele>103.2</ele><time>2022-11-01T13:43:38.0000000+00:00</time></trkpt><trkpt lat="39.55347662" lon="-0.54112108"><ele>103.2</ele><time>2022-11-01T13:43:39.0000000+00:00</time></trkpt><trkpt lat="39.55347662" lon="-0.54112108"><ele>103.2</ele><time>2022-11-01T13:43:40.0000000+00:00</time></trkpt><trkpt lat="39.55347662" lon="-0.54112108"><ele>103.2</ele><time>2022-11-01T13:43:41.0000000+00:00</time></trkpt><trkpt lat="39.55347662" lon="-0.54112108"><ele>103.2</ele><time>2022-11-01T13:43:42.0000000+00:00</time></trkpt><trkpt lat="39.55347662" lon="-0.54112108"><ele>103.2</ele><time>2022-11-01T13:43:43.0000000+00:00</time></trkpt><trkpt lat="39.55347662" lon="-0.54112108"><ele>103.2</ele><time>2022-11-01T13:43:44.0000000+00:00</time></trkpt><trkpt lat="39.55347662" lon="-0.54112108"><ele>103.2</ele><time>2022-11-01T13:43:45.0000000+00:00</time></trkpt><trkpt lat="39.55347662" lon="-0.54112108"><ele>103.2</ele><time>2022-11-01T13:43:46.0000000+00:00</time></trkpt><trkpt lat="39.55347662" lon="-0.54112108"><ele>103.2</ele><time>2022-11-01T13:43:47.0000000+00:00</time></trkpt><trkpt lat="39.55347662" lon="-0.54112108"><ele>103.2</ele><time>2022-11-01T13:43:48.0000000+00:00</time></trkpt><trkpt lat="39.55347662" lon="-0.54112108"><ele>103.2</ele><time>2022-11-01T13:43:49.0000000+00:00</time></trkpt><trkpt lat="39.55347662" lon="-0.54112108"><ele>103.2</ele><time>2022-11-01T13:43:50.0000000+00:00</time></trkpt><trkpt lat="39.55347662" lon="-0.54112108"><ele>103.2</ele><time>2022-11-01T13:43:51.0000000+00:00</time></trkpt><trkpt lat="39.55347662" lon="-0.54112108"><ele>103.2</ele><time>2022-11-01T13:43:52.0000000+00:00</time></trkpt><trkpt lat="39.55347662" lon="-0.54112108"><ele>103.2</ele><time>2022-11-01T13:43:53.0000000+00:00</time></trkpt><trkpt lat="39.55347662" lon="-0.54112108"><ele>103.2</ele><time>2022-11-01T13:43:54.0000000+00:00</time></trkpt><trkpt lat="39.55347662" lon="-0.54112108"><ele>103.2</ele><time>2022-11-01T13:43:55.0000000+00:00</time></trkpt><trkpt lat="39.55347662" lon="-0.54112108"><ele>103.2</ele><time>2022-11-01T13:43:56.0000000+00:00</time></trkpt><trkpt lat="39.55347662" lon="-0.54112108"><ele>103.2</ele><time>2022-11-01T13:43:57.0000000+00:00</time></trkpt><trkpt lat="39.55347662" lon="-0.54112108"><ele>103.2</ele><time>2022-11-01T13:43:58.0000000+00:00</time></trkpt><trkpt lat="39.55347662" lon="-0.54112108"><ele>103.2</ele><time>2022-11-01T13:43:59.0000000+00:00</time></trkpt><trkpt lat="39.55347662" lon="-0.54112108"><ele>103.2</ele><time>2022-11-01T13:44:00.0000000+00:00</time></trkpt><trkpt lat="39.55347662" lon="-0.54112108"><ele>103.2</ele><time>2022-11-01T13:44:01.0000000+00:00</time></trkpt><trkpt lat="39.55347662" lon="-0.54112108"><ele>103.2</ele><time>2022-11-01T13:44:02.0000000+00:00</time></trkpt><trkpt lat="39.55347662" lon="-0.54112108"><ele>103.2</ele><time>2022-11-01T13:44:03.0000000+00:00</time></trkpt><trkpt lat="39.55347662" lon="-0.54112108"><ele>103.2</ele><time>2022-11-01T13:44:04.0000000+00:00</time></trkpt><trkpt lat="39.55347662" lon="-0.54112108"><ele>103.2</ele><time>2022-11-01T13:44:05.0000000+00:00</time></trkpt><trkpt lat="39.55347662" lon="-0.54112108"><ele>103.2</ele><time>2022-11-01T13:44:06.0000000+00:00</time></trkpt><trkpt lat="39.55347662" lon="-0.54112108"><ele>103.2</ele><time>2022-11-01T13:44:07.0000000+00:00</time></trkpt><trkpt lat="39.55347662" lon="-0.54112108"><ele>103.2</ele><time>2022-11-01T13:44:08.0000000+00:00</time></trkpt><trkpt lat="39.55347662" lon="-0.54112108"><ele>103.2</ele><time>2022-11-01T13:44:09.0000000+00:00</time></trkpt><trkpt lat="39.55347662" lon="-0.54112108"><ele>103.2</ele><time>2022-11-01T13:44:10.0000000+00:00</time></trkpt><trkpt lat="39.55347662" lon="-0.54112108"><ele>103.2</ele><time>2022-11-01T13:44:11.0000000+00:00</time></trkpt><trkpt lat="39.55347662" lon="-0.54112108"><ele>103.2</ele><time>2022-11-01T13:44:12.0000000+00:00</time></trkpt><trkpt lat="39.55347662" lon="-0.54112108"><ele>103.2</ele><time>2022-11-01T13:44:13.0000000+00:00</time></trkpt><trkpt lat="39.55346991" lon="-0.54112008"><ele>103.2</ele><time>2022-11-01T13:44:14.0000000+00:00</time></trkpt><trkpt lat="39.5534674" lon="-0.54111782"><ele>103.2</ele><time>2022-11-01T13:44:15.0000000+00:00</time></trkpt><trkpt lat="39.5534674" lon="-0.54111782"><ele>103.2</ele><time>2022-11-01T13:44:16.0000000+00:00</time></trkpt><trkpt lat="39.5534674" lon="-0.54111782"><ele>103.2</ele><time>2022-11-01T13:44:17.0000000+00:00</time></trkpt><trkpt lat="39.5534674" lon="-0.54111782"><ele>103.2</ele><time>2022-11-01T13:44:18.0000000+00:00</time></trkpt><trkpt lat="39.5534674" lon="-0.54111782"><ele>103.2</ele><time>2022-11-01T13:44:19.0000000+00:00</time></trkpt><trkpt lat="39.5534674" lon="-0.54111782"><ele>103.2</ele><time>2022-11-01T13:44:20.0000000+00:00</time></trkpt><trkpt lat="39.5534674" lon="-0.54111782"><ele>103.2</ele><time>2022-11-01T13:44:21.0000000+00:00</time></trkpt><trkpt lat="39.5534674" lon="-0.54111782"><ele>103.2</ele><time>2022-11-01T13:44:22.0000000+00:00</time></trkpt><trkpt lat="39.5534674" lon="-0.54111782"><ele>103.2</ele><time>2022-11-01T13:44:23.0000000+00:00</time></trkpt><trkpt lat="39.5534674" lon="-0.54111782"><ele>103.2</ele><time>2022-11-01T13:44:24.0000000+00:00</time></trkpt><trkpt lat="39.5534674" lon="-0.54111782"><ele>103.2</ele><time>2022-11-01T13:44:25.0000000+00:00</time></trkpt><trkpt lat="39.5534674" lon="-0.54111782"><ele>103.2</ele><time>2022-11-01T13:44:26.0000000+00:00</time></trkpt><trkpt lat="39.5534674" lon="-0.54111782"><ele>103.2</ele><time>2022-11-01T13:44:27.0000000+00:00</time></trkpt><trkpt lat="39.5534674" lon="-0.54111782"><ele>103.2</ele><time>2022-11-01T13:44:28.0000000+00:00</time></trkpt><trkpt lat="39.5534674" lon="-0.54111782"><ele>103.2</ele><time>2022-11-01T13:44:29.0000000+00:00</time></trkpt><trkpt lat="39.5534674" lon="-0.54111782"><ele>103.2</ele><time>2022-11-01T13:44:30.0000000+00:00</time></trkpt><trkpt lat="39.5534674" lon="-0.54111782"><ele>103.2</ele><time>2022-11-01T13:44:31.0000000+00:00</time></trkpt><trkpt lat="39.5534674" lon="-0.54111782"><ele>103.2</ele><time>2022-11-01T13:44:32.0000000+00:00</time></trkpt><trkpt lat="39.5534674" lon="-0.54111782"><ele>103.2</ele><time>2022-11-01T13:44:33.0000000+00:00</time></trkpt><trkpt lat="39.5534674" lon="-0.54111782"><ele>103.2</ele><time>2022-11-01T13:44:34.0000000+00:00</time></trkpt><trkpt lat="39.5534674" lon="-0.54111782"><ele>103.2</ele><time>2022-11-01T13:44:35.0000000+00:00</time></trkpt><trkpt lat="39.5534674" lon="-0.54111782"><ele>103.2</ele><time>2022-11-01T13:44:36.0000000+00:00</time></trkpt><trkpt lat="39.5534674" lon="-0.54111782"><ele>103.2</ele><time>2022-11-01T13:44:37.0000000+00:00</time></trkpt><trkpt lat="39.5534674" lon="-0.54111782"><ele>103.2</ele><time>2022-11-01T13:44:38.0000000+00:00</time></trkpt><trkpt lat="39.5534674" lon="-0.54111782"><ele>103.2</ele><time>2022-11-01T13:44:39.0000000+00:00</time></trkpt><trkpt lat="39.5534674" lon="-0.54111782"><ele>103.2</ele><time>2022-11-01T13:44:40.0000000+00:00</time></trkpt><trkpt lat="39.5534674" lon="-0.54111782"><ele>103.2</ele><time>2022-11-01T13:44:41.0000000+00:00</time></trkpt><trkpt lat="39.5534674" lon="-0.54111782"><ele>103.2</ele><time>2022-11-01T13:44:42.0000000+00:00</time></trkpt><trkpt lat="39.5534674" lon="-0.54111782"><ele>103.2</ele><time>2022-11-01T13:44:43.0000000+00:00</time></trkpt><trkpt lat="39.5534674" lon="-0.54111782"><ele>103.2</ele><time>2022-11-01T13:44:44.0000000+00:00</time></trkpt><trkpt lat="39.5534674" lon="-0.54111782"><ele>103.2</ele><time>2022-11-01T13:44:45.0000000+00:00</time></trkpt><trkpt lat="39.5534674" lon="-0.54111782"><ele>103.2</ele><time>2022-11-01T13:44:46.0000000+00:00</time></trkpt><trkpt lat="39.55345566" lon="-0.54112553"><ele>103.2</ele><time>2022-11-01T13:44:47.0000000+00:00</time></trkpt><trkpt lat="39.55345248" lon="-0.54111907"><ele>103.2</ele><time>2022-11-01T13:44:48.0000000+00:00</time></trkpt><trkpt lat="39.55345248" lon="-0.54111907"><ele>103.2</ele><time>2022-11-01T13:44:49.0000000+00:00</time></trkpt><trkpt lat="39.55345248" lon="-0.54111907"><ele>103.2</ele><time>2022-11-01T13:44:50.0000000+00:00</time></trkpt><trkpt lat="39.55345248" lon="-0.54111907"><ele>103.2</ele><time>2022-11-01T13:44:51.0000000+00:00</time></trkpt><trkpt lat="39.55345248" lon="-0.54111907"><ele>103.2</ele><time>2022-11-01T13:44:52.0000000+00:00</time></trkpt><trkpt lat="39.55345248" lon="-0.54111907"><ele>103.2</ele><time>2022-11-01T13:44:53.0000000+00:00</time></trkpt><trkpt lat="39.55345248" lon="-0.54111907"><ele>103.2</ele><time>2022-11-01T13:44:54.0000000+00:00</time></trkpt><trkpt lat="39.55345248" lon="-0.54111907"><ele>103.2</ele><time>2022-11-01T13:44:55.0000000+00:00</time></trkpt><trkpt lat="39.55345248" lon="-0.54111907"><ele>103.2</ele><time>2022-11-01T13:44:56.0000000+00:00</time></trkpt><trkpt lat="39.55345248" lon="-0.54111907"><ele>103.2</ele><time>2022-11-01T13:44:57.0000000+00:00</time></trkpt><trkpt lat="39.55345248" lon="-0.54111907"><ele>103.2</ele><time>2022-11-01T13:44:58.0000000+00:00</time></trkpt><trkpt lat="39.55345248" lon="-0.54111907"><ele>103.2</ele><time>2022-11-01T13:44:59.0000000+00:00</time></trkpt><trkpt lat="39.55345248" lon="-0.54111907"><ele>103.2</ele><time>2022-11-01T13:45:00.0000000+00:00</time></trkpt><trkpt lat="39.5534441" lon="-0.54112284"><ele>103.2</ele><time>2022-11-01T13:45:01.0000000+00:00</time></trkpt><trkpt lat="39.553442" lon="-0.54112108"><ele>103.2</ele><time>2022-11-01T13:45:02.0000000+00:00</time></trkpt><trkpt lat="39.553442" lon="-0.54112108"><ele>103.2</ele><time>2022-11-01T13:45:03.0000000+00:00</time></trkpt><trkpt lat="39.553442" lon="-0.54112108"><ele>103.2</ele><time>2022-11-01T13:45:04.0000000+00:00</time></trkpt><trkpt lat="39.553442" lon="-0.54112108"><ele>103.2</ele><time>2022-11-01T13:45:05.0000000+00:00</time></trkpt><trkpt lat="39.553442" lon="-0.54112108"><ele>103.2</ele><time>2022-11-01T13:45:06.0000000+00:00</time></trkpt><trkpt lat="39.553442" lon="-0.54112108"><ele>103.2</ele><time>2022-11-01T13:45:07.0000000+00:00</time></trkpt><trkpt lat="39.553442" lon="-0.54112108"><ele>103.2</ele><time>2022-11-01T13:45:08.0000000+00:00</time></trkpt><trkpt lat="39.553442" lon="-0.54112108"><ele>103.2</ele><time>2022-11-01T13:45:09.0000000+00:00</time></trkpt><trkpt lat="39.553442" lon="-0.54112108"><ele>103.2</ele><time>2022-11-01T13:45:10.0000000+00:00</time></trkpt><trkpt lat="39.553442" lon="-0.54112108"><ele>103.2</ele><time>2022-11-01T13:45:11.0000000+00:00</time></trkpt><trkpt lat="39.553442" lon="-0.54112108"><ele>103.2</ele><time>2022-11-01T13:45:12.0000000+00:00</time></trkpt><trkpt lat="39.553442" lon="-0.54112108"><ele>103.2</ele><time>2022-11-01T13:45:13.0000000+00:00</time></trkpt><trkpt lat="39.553442" lon="-0.54112108"><ele>103.2</ele><time>2022-11-01T13:45:14.0000000+00:00</time></trkpt><trkpt lat="39.55341795" lon="-0.54112762"><ele>103.2</ele><time>2022-11-01T13:45:15.0000000+00:00</time></trkpt><trkpt lat="39.55341552" lon="-0.54113131"><ele>103.2</ele><time>2022-11-01T13:45:16.0000000+00:00</time></trkpt><trkpt lat="39.55341552" lon="-0.54113131"><ele>103.2</ele><time>2022-11-01T13:45:17.0000000+00:00</time></trkpt><trkpt lat="39.55341552" lon="-0.54113131"><ele>103.2</ele><time>2022-11-01T13:45:18.0000000+00:00</time></trkpt><trkpt lat="39.55341552" lon="-0.54113131"><ele>103.2</ele><time>2022-11-01T13:45:19.0000000+00:00</time></trkpt><trkpt lat="39.55341552" lon="-0.54113131"><ele>103.2</ele><time>2022-11-01T13:45:20.0000000+00:00</time></trkpt><trkpt lat="39.55341552" lon="-0.54113131"><ele>103.2</ele><time>2022-11-01T13:45:21.0000000+00:00</time></trkpt><trkpt lat="39.55341552" lon="-0.54113131"><ele>103.2</ele><time>2022-11-01T13:45:22.0000000+00:00</time></trkpt><trkpt lat="39.55341552" lon="-0.54113131"><ele>103.2</ele><time>2022-11-01T13:45:23.0000000+00:00</time></trkpt><trkpt lat="39.55341552" lon="-0.54113131"><ele>103.2</ele><time>2022-11-01T13:45:24.0000000+00:00</time></trkpt><trkpt lat="39.55341552" lon="-0.54113131"><ele>103.2</ele><time>2022-11-01T13:45:25.0000000+00:00</time></trkpt><trkpt lat="39.55341552" lon="-0.54113131"><ele>103.2</ele><time>2022-11-01T13:45:26.0000000+00:00</time></trkpt><trkpt lat="39.55341552" lon="-0.54113131"><ele>103.2</ele><time>2022-11-01T13:45:27.0000000+00:00</time></trkpt><trkpt lat="39.55341552" lon="-0.54113131"><ele>103.2</ele><time>2022-11-01T13:45:28.0000000+00:00</time></trkpt><trkpt lat="39.55341216" lon="-0.54113207"><ele>103.2</ele><time>2022-11-01T13:45:29.0000000+00:00</time></trkpt><trkpt lat="39.55340973" lon="-0.54112871"><ele>103.2</ele><time>2022-11-01T13:45:30.0000000+00:00</time></trkpt><trkpt lat="39.55340973" lon="-0.54112871"><ele>103.2</ele><time>2022-11-01T13:45:31.0000000+00:00</time></trkpt><trkpt lat="39.55340973" lon="-0.54112871"><ele>103.2</ele><time>2022-11-01T13:45:32.0000000+00:00</time></trkpt><trkpt lat="39.55340973" lon="-0.54112871"><ele>103.2</ele><time>2022-11-01T13:45:33.0000000+00:00</time></trkpt><trkpt lat="39.55340973" lon="-0.54112871"><ele>103.2</ele><time>2022-11-01T13:45:34.0000000+00:00</time></trkpt><trkpt lat="39.55340973" lon="-0.54112871"><ele>103.2</ele><time>2022-11-01T13:45:35.0000000+00:00</time></trkpt><trkpt lat="39.55340973" lon="-0.54112871"><ele>103.2</ele><time>2022-11-01T13:45:36.0000000+00:00</time></trkpt><trkpt lat="39.55340973" lon="-0.54112871"><ele>103.2</ele><time>2022-11-01T13:45:37.0000000+00:00</time></trkpt><trkpt lat="39.55340973" lon="-0.54112871"><ele>103.2</ele><time>2022-11-01T13:45:38.0000000+00:00</time></trkpt><trkpt lat="39.55340973" lon="-0.54112871"><ele>103.2</ele><time>2022-11-01T13:45:39.0000000+00:00</time></trkpt><trkpt lat="39.55340973" lon="-0.54112871"><ele>103.2</ele><time>2022-11-01T13:45:40.0000000+00:00</time></trkpt><trkpt lat="39.55340973" lon="-0.54112871"><ele>103.2</ele><time>2022-11-01T13:45:41.0000000+00:00</time></trkpt><trkpt lat="39.55340973" lon="-0.54112871"><ele>103.2</ele><time>2022-11-01T13:45:42.0000000+00:00</time></trkpt><trkpt lat="39.55340973" lon="-0.54112871"><ele>103.2</ele><time>2022-11-01T13:45:43.0000000+00:00</time></trkpt><trkpt lat="39.55340973" lon="-0.54112871"><ele>103.2</ele><time>2022-11-01T13:45:44.0000000+00:00</time></trkpt><trkpt lat="39.55340973" lon="-0.54112871"><ele>103.2</ele><time>2022-11-01T13:45:45.0000000+00:00</time></trkpt><trkpt lat="39.55340973" lon="-0.54112871"><ele>103.2</ele><time>2022-11-01T13:45:46.0000000+00:00</time></trkpt><trkpt lat="39.55340973" lon="-0.54112871"><ele>103.2</ele><time>2022-11-01T13:45:47.0000000+00:00</time></trkpt><trkpt lat="39.55340973" lon="-0.54112871"><ele>103.2</ele><time>2022-11-01T13:45:48.0000000+00:00</time></trkpt><trkpt lat="39.55340973" lon="-0.54112871"><ele>103.2</ele><time>2022-11-01T13:45:49.0000000+00:00</time></trkpt><trkpt lat="39.55340973" lon="-0.54112871"><ele>103.2</ele><time>2022-11-01T13:45:50.0000000+00:00</time></trkpt><trkpt lat="39.55340973" lon="-0.54112871"><ele>103.2</ele><time>2022-11-01T13:45:51.0000000+00:00</time></trkpt><trkpt lat="39.55340973" lon="-0.54112871"><ele>103.2</ele><time>2022-11-01T13:45:52.0000000+00:00</time></trkpt><trkpt lat="39.55340889" lon="-0.54112519"><ele>103.2</ele><time>2022-11-01T13:45:53.0000000+00:00</time></trkpt><trkpt lat="39.55341158" lon="-0.54112293"><ele>103.2</ele><time>2022-11-01T13:45:54.0000000+00:00</time></trkpt><trkpt lat="39.55341158" lon="-0.54112293"><ele>103.2</ele><time>2022-11-01T13:45:55.0000000+00:00</time></trkpt><trkpt lat="39.55341158" lon="-0.54112293"><ele>103.2</ele><time>2022-11-01T13:45:56.0000000+00:00</time></trkpt><trkpt lat="39.55341158" lon="-0.54112293"><ele>103.2</ele><time>2022-11-01T13:45:57.0000000+00:00</time></trkpt><trkpt lat="39.55341158" lon="-0.54112293"><ele>103.2</ele><time>2022-11-01T13:45:58.0000000+00:00</time></trkpt><trkpt lat="39.55341158" lon="-0.54112293"><ele>103.2</ele><time>2022-11-01T13:45:59.0000000+00:00</time></trkpt><trkpt lat="39.55341158" lon="-0.54112293"><ele>103.2</ele><time>2022-11-01T13:46:00.0000000+00:00</time></trkpt><trkpt lat="39.55341158" lon="-0.54112293"><ele>103.2</ele><time>2022-11-01T13:46:01.0000000+00:00</time></trkpt><trkpt lat="39.55341158" lon="-0.54112293"><ele>103.2</ele><time>2022-11-01T13:46:02.0000000+00:00</time></trkpt><trkpt lat="39.55341158" lon="-0.54112293"><ele>103.2</ele><time>2022-11-01T13:46:03.0000000+00:00</time></trkpt><trkpt lat="39.55341158" lon="-0.54112293"><ele>103.2</ele><time>2022-11-01T13:46:04.0000000+00:00</time></trkpt><trkpt lat="39.55341158" lon="-0.54112293"><ele>103.2</ele><time>2022-11-01T13:46:05.0000000+00:00</time></trkpt><trkpt lat="39.55341158" lon="-0.54112293"><ele>103.2</ele><time>2022-11-01T13:46:06.0000000+00:00</time></trkpt><trkpt lat="39.55341158" lon="-0.54112293"><ele>103.2</ele><time>2022-11-01T13:46:07.0000000+00:00</time></trkpt><trkpt lat="39.55341158" lon="-0.54112293"><ele>103.2</ele><time>2022-11-01T13:46:08.0000000+00:00</time></trkpt><trkpt lat="39.55341158" lon="-0.54112293"><ele>103.2</ele><time>2022-11-01T13:46:09.0000000+00:00</time></trkpt><trkpt lat="39.55341158" lon="-0.54112293"><ele>103.2</ele><time>2022-11-01T13:46:10.0000000+00:00</time></trkpt><trkpt lat="39.55341158" lon="-0.54112293"><ele>103.2</ele><time>2022-11-01T13:46:11.0000000+00:00</time></trkpt><trkpt lat="39.55341158" lon="-0.54112293"><ele>103.2</ele><time>2022-11-01T13:46:12.0000000+00:00</time></trkpt><trkpt lat="39.55341158" lon="-0.54112293"><ele>103.2</ele><time>2022-11-01T13:46:13.0000000+00:00</time></trkpt><trkpt lat="39.55341158" lon="-0.54112293"><ele>103.2</ele><time>2022-11-01T13:46:14.0000000+00:00</time></trkpt><trkpt lat="39.55341158" lon="-0.54112293"><ele>103.2</ele><time>2022-11-01T13:46:15.0000000+00:00</time></trkpt><trkpt lat="39.55341158" lon="-0.54112293"><ele>103.2</ele><time>2022-11-01T13:46:16.0000000+00:00</time></trkpt><trkpt lat="39.55341158" lon="-0.54112293"><ele>103.2</ele><time>2022-11-01T13:46:17.0000000+00:00</time></trkpt><trkpt lat="39.55341158" lon="-0.54112293"><ele>103.2</ele><time>2022-11-01T13:46:18.0000000+00:00</time></trkpt><trkpt lat="39.55341158" lon="-0.54112293"><ele>103.2</ele><time>2022-11-01T13:46:19.0000000+00:00</time></trkpt><trkpt lat="39.55341158" lon="-0.54112293"><ele>103.2</ele><time>2022-11-01T13:46:20.0000000+00:00</time></trkpt><trkpt lat="39.55341158" lon="-0.54112293"><ele>103.2</ele><time>2022-11-01T13:46:21.0000000+00:00</time></trkpt><trkpt lat="39.55341158" lon="-0.54112293"><ele>103.2</ele><time>2022-11-01T13:46:22.0000000+00:00</time></trkpt><trkpt lat="39.55341158" lon="-0.54112293"><ele>103.2</ele><time>2022-11-01T13:46:23.0000000+00:00</time></trkpt><trkpt lat="39.55341158" lon="-0.54112293"><ele>103.2</ele><time>2022-11-01T13:46:24.0000000+00:00</time></trkpt><trkpt lat="39.5534021" lon="-0.54112368"><ele>103.2</ele><time>2022-11-01T13:46:25.0000000+00:00</time></trkpt><trkpt lat="39.55339967" lon="-0.5411241"><ele>103.2</ele><time>2022-11-01T13:46:26.0000000+00:00</time></trkpt><trkpt lat="39.55339967" lon="-0.5411241"><ele>103.2</ele><time>2022-11-01T13:46:27.0000000+00:00</time></trkpt><trkpt lat="39.55339967" lon="-0.5411241"><ele>103.2</ele><time>2022-11-01T13:46:28.0000000+00:00</time></trkpt><trkpt lat="39.55339967" lon="-0.5411241"><ele>103.2</ele><time>2022-11-01T13:46:29.0000000+00:00</time></trkpt><trkpt lat="39.55339967" lon="-0.5411241"><ele>103.2</ele><time>2022-11-01T13:46:30.0000000+00:00</time></trkpt><trkpt lat="39.55339967" lon="-0.5411241"><ele>103.2</ele><time>2022-11-01T13:46:31.0000000+00:00</time></trkpt><trkpt lat="39.55339967" lon="-0.5411241"><ele>103.2</ele><time>2022-11-01T13:46:32.0000000+00:00</time></trkpt><trkpt lat="39.55339967" lon="-0.5411241"><ele>103.2</ele><time>2022-11-01T13:46:33.0000000+00:00</time></trkpt><trkpt lat="39.55339967" lon="-0.5411241"><ele>103.2</ele><time>2022-11-01T13:46:34.0000000+00:00</time></trkpt><trkpt lat="39.55339967" lon="-0.5411241"><ele>103.2</ele><time>2022-11-01T13:46:35.0000000+00:00</time></trkpt><trkpt lat="39.55339967" lon="-0.5411241"><ele>103.2</ele><time>2022-11-01T13:46:36.0000000+00:00</time></trkpt><trkpt lat="39.55339967" lon="-0.5411241"><ele>103.2</ele><time>2022-11-01T13:46:37.0000000+00:00</time></trkpt><trkpt lat="39.55339967" lon="-0.5411241"><ele>103.2</ele><time>2022-11-01T13:46:38.0000000+00:00</time></trkpt><trkpt lat="39.55339967" lon="-0.5411241"><ele>103.2</ele><time>2022-11-01T13:46:39.0000000+00:00</time></trkpt><trkpt lat="39.55339967" lon="-0.5411241"><ele>103.2</ele><time>2022-11-01T13:46:40.0000000+00:00</time></trkpt><trkpt lat="39.55339967" lon="-0.5411241"><ele>103.2</ele><time>2022-11-01T13:46:41.0000000+00:00</time></trkpt><trkpt lat="39.55339967" lon="-0.5411241"><ele>103.2</ele><time>2022-11-01T13:46:42.0000000+00:00</time></trkpt><trkpt lat="39.55339967" lon="-0.5411241"><ele>103.2</ele><time>2022-11-01T13:46:43.0000000+00:00</time></trkpt><trkpt lat="39.55339967" lon="-0.5411241"><ele>103.2</ele><time>2022-11-01T13:46:44.0000000+00:00</time></trkpt><trkpt lat="39.55339967" lon="-0.5411241"><ele>103.2</ele><time>2022-11-01T13:46:45.0000000+00:00</time></trkpt><trkpt lat="39.55339967" lon="-0.5411241"><ele>103.2</ele><time>2022-11-01T13:46:46.0000000+00:00</time></trkpt><trkpt lat="39.55339967" lon="-0.5411241"><ele>103.2</ele><time>2022-11-01T13:46:47.0000000+00:00</time></trkpt><trkpt lat="39.55339967" lon="-0.5411241"><ele>103.2</ele><time>2022-11-01T13:46:48.0000000+00:00</time></trkpt><trkpt lat="39.55339967" lon="-0.5411241"><ele>103.2</ele><time>2022-11-01T13:46:49.0000000+00:00</time></trkpt><trkpt lat="39.55339967" lon="-0.5411241"><ele>103.2</ele><time>2022-11-01T13:46:50.0000000+00:00</time></trkpt><trkpt lat="39.55339967" lon="-0.5411241"><ele>103.2</ele><time>2022-11-01T13:46:51.0000000+00:00</time></trkpt><trkpt lat="39.55339967" lon="-0.5411241"><ele>103.2</ele><time>2022-11-01T13:46:52.0000000+00:00</time></trkpt><trkpt lat="39.55339967" lon="-0.5411241"><ele>103.2</ele><time>2022-11-01T13:46:53.0000000+00:00</time></trkpt><trkpt lat="39.55339967" lon="-0.5411241"><ele>103.2</ele><time>2022-11-01T13:46:54.0000000+00:00</time></trkpt><trkpt lat="39.55339967" lon="-0.5411241"><ele>103.2</ele><time>2022-11-01T13:46:55.0000000+00:00</time></trkpt><trkpt lat="39.55339967" lon="-0.5411241"><ele>103.2</ele><time>2022-11-01T13:46:56.0000000+00:00</time></trkpt><trkpt lat="39.55339967" lon="-0.5411241"><ele>103.2</ele><time>2022-11-01T13:46:57.0000000+00:00</time></trkpt><trkpt lat="39.55339967" lon="-0.5411241"><ele>103.2</ele><time>2022-11-01T13:46:58.0000000+00:00</time></trkpt><trkpt lat="39.55339967" lon="-0.5411241"><ele>103.2</ele><time>2022-11-01T13:46:59.0000000+00:00</time></trkpt><trkpt lat="39.55339967" lon="-0.5411241"><ele>103.2</ele><time>2022-11-01T13:47:00.0000000+00:00</time></trkpt><trkpt lat="39.55339967" lon="-0.5411241"><ele>103.2</ele><time>2022-11-01T13:47:01.0000000+00:00</time></trkpt><trkpt lat="39.55339967" lon="-0.5411241"><ele>103.2</ele><time>2022-11-01T13:47:02.0000000+00:00</time></trkpt><trkpt lat="39.55339967" lon="-0.5411241"><ele>103.2</ele><time>2022-11-01T13:47:03.0000000+00:00</time></trkpt><trkpt lat="39.55339967" lon="-0.5411241"><ele>103.2</ele><time>2022-11-01T13:47:04.0000000+00:00</time></trkpt><trkpt lat="39.55339967" lon="-0.5411241"><ele>103.2</ele><time>2022-11-01T13:47:05.0000000+00:00</time></trkpt><trkpt lat="39.55339967" lon="-0.5411241"><ele>103.2</ele><time>2022-11-01T13:47:06.0000000+00:00</time></trkpt><trkpt lat="39.55339967" lon="-0.5411241"><ele>103.2</ele><time>2022-11-01T13:47:07.0000000+00:00</time></trkpt><trkpt lat="39.55339967" lon="-0.5411241"><ele>103.2</ele><time>2022-11-01T13:47:08.0000000+00:00</time></trkpt><trkpt lat="39.55339967" lon="-0.5411241"><ele>103.2</ele><time>2022-11-01T13:47:09.0000000+00:00</time></trkpt><trkpt lat="39.55339967" lon="-0.5411241"><ele>103.2</ele><time>2022-11-01T13:47:10.0000000+00:00</time></trkpt><trkpt lat="39.55339967" lon="-0.5411241"><ele>103.2</ele><time>2022-11-01T13:47:11.0000000+00:00</time></trkpt><trkpt lat="39.55339967" lon="-0.5411241"><ele>103.2</ele><time>2022-11-01T13:47:12.0000000+00:00</time></trkpt><trkpt lat="39.55339967" lon="-0.5411241"><ele>103.2</ele><time>2022-11-01T13:47:13.0000000+00:00</time></trkpt><trkpt lat="39.55339967" lon="-0.5411241"><ele>103.2</ele><time>2022-11-01T13:47:14.0000000+00:00</time></trkpt><trkpt lat="39.55339967" lon="-0.5411241"><ele>103.2</ele><time>2022-11-01T13:47:15.0000000+00:00</time></trkpt><trkpt lat="39.55339967" lon="-0.5411241"><ele>103.2</ele><time>2022-11-01T13:47:16.0000000+00:00</time></trkpt><trkpt lat="39.55339967" lon="-0.5411241"><ele>103.2</ele><time>2022-11-01T13:47:17.0000000+00:00</time></trkpt><trkpt lat="39.55339967" lon="-0.5411241"><ele>103.2</ele><time>2022-11-01T13:47:18.0000000+00:00</time></trkpt><trkpt lat="39.55339967" lon="-0.5411241"><ele>103.2</ele><time>2022-11-01T13:47:19.0000000+00:00</time></trkpt><trkpt lat="39.55339967" lon="-0.5411241"><ele>103.2</ele><time>2022-11-01T13:47:20.0000000+00:00</time></trkpt><trkpt lat="39.55339967" lon="-0.5411241"><ele>103.2</ele><time>2022-11-01T13:47:21.0000000+00:00</time></trkpt><trkpt lat="39.55339967" lon="-0.5411241"><ele>103.2</ele><time>2022-11-01T13:47:22.0000000+00:00</time></trkpt><trkpt lat="39.55339967" lon="-0.5411241"><ele>103.2</ele><time>2022-11-01T13:47:23.0000000+00:00</time></trkpt><trkpt lat="39.55339967" lon="-0.5411241"><ele>103.2</ele><time>2022-11-01T13:47:24.0000000+00:00</time></trkpt><trkpt lat="39.55339967" lon="-0.5411241"><ele>103.2</ele><time>2022-11-01T13:47:25.0000000+00:00</time></trkpt><trkpt lat="39.55339967" lon="-0.5411241"><ele>103.2</ele><time>2022-11-01T13:47:26.0000000+00:00</time></trkpt><trkpt lat="39.55339967" lon="-0.5411241"><ele>103.2</ele><time>2022-11-01T13:47:27.0000000+00:00</time></trkpt><trkpt lat="39.55339967" lon="-0.5411241"><ele>103.2</ele><time>2022-11-01T13:47:28.0000000+00:00</time></trkpt><trkpt lat="39.55339967" lon="-0.5411241"><ele>103.2</ele><time>2022-11-01T13:47:29.0000000+00:00</time></trkpt><trkpt lat="39.55339967" lon="-0.5411241"><ele>103.2</ele><time>2022-11-01T13:47:30.0000000+00:00</time></trkpt><trkpt lat="39.55339967" lon="-0.5411241"><ele>103.2</ele><time>2022-11-01T13:47:31.0000000+00:00</time></trkpt><trkpt lat="39.55339967" lon="-0.5411241"><ele>103.2</ele><time>2022-11-01T13:47:32.0000000+00:00</time></trkpt><trkpt lat="39.55339967" lon="-0.5411241"><ele>103.2</ele><time>2022-11-01T13:47:33.0000000+00:00</time></trkpt><trkpt lat="39.55339967" lon="-0.5411241"><ele>103.2</ele><time>2022-11-01T13:47:34.0000000+00:00</time></trkpt><trkpt lat="39.55339967" lon="-0.5411241"><ele>103.2</ele><time>2022-11-01T13:47:35.0000000+00:00</time></trkpt><trkpt lat="39.55339967" lon="-0.5411241"><ele>103.2</ele><time>2022-11-01T13:47:36.0000000+00:00</time></trkpt><trkpt lat="39.55339967" lon="-0.5411241"><ele>103.2</ele><time>2022-11-01T13:47:37.0000000+00:00</time></trkpt><trkpt lat="39.55339967" lon="-0.5411241"><ele>103.2</ele><time>2022-11-01T13:47:38.0000000+00:00</time></trkpt><trkpt lat="39.55339967" lon="-0.5411241"><ele>103.2</ele><time>2022-11-01T13:47:39.0000000+00:00</time></trkpt><trkpt lat="39.55339967" lon="-0.5411241"><ele>103.2</ele><time>2022-11-01T13:47:40.0000000+00:00</time></trkpt><trkpt lat="39.55339967" lon="-0.5411241"><ele>103.2</ele><time>2022-11-01T13:47:41.0000000+00:00</time></trkpt><trkpt lat="39.55339967" lon="-0.5411241"><ele>103.2</ele><time>2022-11-01T13:47:42.0000000+00:00</time></trkpt><trkpt lat="39.55339967" lon="-0.5411241"><ele>103.2</ele><time>2022-11-01T13:47:43.0000000+00:00</time></trkpt><trkpt lat="39.55339967" lon="-0.5411241"><ele>103.2</ele><time>2022-11-01T13:47:44.0000000+00:00</time></trkpt><trkpt lat="39.55339967" lon="-0.5411241"><ele>103.2</ele><time>2022-11-01T13:47:45.0000000+00:00</time></trkpt><trkpt lat="39.55339791" lon="-0.5411288"><ele>103.2</ele><time>2022-11-01T13:47:46.0000000+00:00</time></trkpt><trkpt lat="39.55339414" lon="-0.54113005"><ele>103.2</ele><time>2022-11-01T13:47:47.0000000+00:00</time></trkpt><trkpt lat="39.55339414" lon="-0.54113005"><ele>103.2</ele><time>2022-11-01T13:47:48.0000000+00:00</time></trkpt><trkpt lat="39.55339414" lon="-0.54113005"><ele>103.2</ele><time>2022-11-01T13:47:49.0000000+00:00</time></trkpt><trkpt lat="39.55340336" lon="-0.54112117"><ele>103.2</ele><time>2022-11-01T13:47:50.0000000+00:00</time></trkpt><trkpt lat="39.55340613" lon="-0.54111958"><ele>103.2</ele><time>2022-11-01T13:47:51.0000000+00:00</time></trkpt><trkpt lat="39.55340613" lon="-0.54111958"><ele>103.2</ele><time>2022-11-01T13:47:52.0000000+00:00</time></trkpt><trkpt lat="39.55340613" lon="-0.54111958"><ele>103.2</ele><time>2022-11-01T13:47:53.0000000+00:00</time></trkpt><trkpt lat="39.55340613" lon="-0.54111958"><ele>103.2</ele><time>2022-11-01T13:47:54.0000000+00:00</time></trkpt><trkpt lat="39.55340613" lon="-0.54111958"><ele>103.2</ele><time>2022-11-01T13:47:55.0000000+00:00</time></trkpt><trkpt lat="39.55340613" lon="-0.54111958"><ele>103.2</ele><time>2022-11-01T13:47:56.0000000+00:00</time></trkpt><trkpt lat="39.55340613" lon="-0.54111958"><ele>103.2</ele><time>2022-11-01T13:47:57.0000000+00:00</time></trkpt><trkpt lat="39.55340613" lon="-0.54111958"><ele>103.2</ele><time>2022-11-01T13:47:58.0000000+00:00</time></trkpt><trkpt lat="39.55340613" lon="-0.54111958"><ele>103.2</ele><time>2022-11-01T13:47:59.0000000+00:00</time></trkpt><trkpt lat="39.55340613" lon="-0.54111958"><ele>103.2</ele><time>2022-11-01T13:48:00.0000000+00:00</time></trkpt><trkpt lat="39.55340613" lon="-0.54111958"><ele>103.2</ele><time>2022-11-01T13:48:01.0000000+00:00</time></trkpt><trkpt lat="39.55340613" lon="-0.54111958"><ele>103.2</ele><time>2022-11-01T13:48:02.0000000+00:00</time></trkpt><trkpt lat="39.55340613" lon="-0.54111958"><ele>103.2</ele><time>2022-11-01T13:48:03.0000000+00:00</time></trkpt><trkpt lat="39.55340613" lon="-0.54111958"><ele>103.2</ele><time>2022-11-01T13:48:04.0000000+00:00</time></trkpt><trkpt lat="39.55340613" lon="-0.54111958"><ele>103.2</ele><time>2022-11-01T13:48:05.0000000+00:00</time></trkpt><trkpt lat="39.55340613" lon="-0.54111958"><ele>103.2</ele><time>2022-11-01T13:48:06.0000000+00:00</time></trkpt><trkpt lat="39.55340613" lon="-0.54111958"><ele>103.2</ele><time>2022-11-01T13:48:07.0000000+00:00</time></trkpt><trkpt lat="39.55340613" lon="-0.54111958"><ele>103.2</ele><time>2022-11-01T13:48:08.0000000+00:00</time></trkpt><trkpt lat="39.55340613" lon="-0.54111958"><ele>103.2</ele><time>2022-11-01T13:48:09.0000000+00:00</time></trkpt><trkpt lat="39.55340613" lon="-0.54111958"><ele>103.2</ele><time>2022-11-01T13:48:10.0000000+00:00</time></trkpt><trkpt lat="39.55340613" lon="-0.54111958"><ele>103.2</ele><time>2022-11-01T13:48:11.0000000+00:00</time></trkpt><trkpt lat="39.55340613" lon="-0.54111958"><ele>103.2</ele><time>2022-11-01T13:48:12.0000000+00:00</time></trkpt><trkpt lat="39.55340613" lon="-0.54111958"><ele>103.2</ele><time>2022-11-01T13:48:13.0000000+00:00</time></trkpt><trkpt lat="39.55340613" lon="-0.54111958"><ele>103.2</ele><time>2022-11-01T13:48:14.0000000+00:00</time></trkpt><trkpt lat="39.55340613" lon="-0.54111958"><ele>103.2</ele><time>2022-11-01T13:48:15.0000000+00:00</time></trkpt><trkpt lat="39.55340613" lon="-0.54111958"><ele>103.2</ele><time>2022-11-01T13:48:16.0000000+00:00</time></trkpt><trkpt lat="39.55340613" lon="-0.54111958"><ele>103.2</ele><time>2022-11-01T13:48:17.0000000+00:00</time></trkpt><trkpt lat="39.55340613" lon="-0.54111958"><ele>103.2</ele><time>2022-11-01T13:48:18.0000000+00:00</time></trkpt><trkpt lat="39.55340613" lon="-0.54111958"><ele>103.2</ele><time>2022-11-01T13:48:19.0000000+00:00</time></trkpt><trkpt lat="39.55340613" lon="-0.54111958"><ele>103.2</ele><time>2022-11-01T13:48:20.0000000+00:00</time></trkpt><trkpt lat="39.55340613" lon="-0.54111958"><ele>103.2</ele><time>2022-11-01T13:48:21.0000000+00:00</time></trkpt><trkpt lat="39.55340613" lon="-0.54111958"><ele>103.2</ele><time>2022-11-01T13:48:22.0000000+00:00</time></trkpt><trkpt lat="39.55340613" lon="-0.54111958"><ele>103.2</ele><time>2022-11-01T13:48:23.0000000+00:00</time></trkpt><trkpt lat="39.55340613" lon="-0.54111958"><ele>103.2</ele><time>2022-11-01T13:48:24.0000000+00:00</time></trkpt><trkpt lat="39.55340613" lon="-0.54111958"><ele>103.2</ele><time>2022-11-01T13:48:25.0000000+00:00</time></trkpt><trkpt lat="39.55340613" lon="-0.54111958"><ele>103.2</ele><time>2022-11-01T13:48:26.0000000+00:00</time></trkpt><trkpt lat="39.55340613" lon="-0.54111958"><ele>103.2</ele><time>2022-11-01T13:48:27.0000000+00:00</time></trkpt><trkpt lat="39.55340613" lon="-0.54111958"><ele>103.2</ele><time>2022-11-01T13:48:28.0000000+00:00</time></trkpt><trkpt lat="39.55340613" lon="-0.54111958"><ele>103.2</ele><time>2022-11-01T13:48:29.0000000+00:00</time></trkpt><trkpt lat="39.55340613" lon="-0.54111958"><ele>103.2</ele><time>2022-11-01T13:48:30.0000000+00:00</time></trkpt><trkpt lat="39.55340613" lon="-0.54111958"><ele>103.2</ele><time>2022-11-01T13:48:31.0000000+00:00</time></trkpt><trkpt lat="39.55340613" lon="-0.54111958"><ele>103.2</ele><time>2022-11-01T13:48:32.0000000+00:00</time></trkpt><trkpt lat="39.55340613" lon="-0.54111958"><ele>103.2</ele><time>2022-11-01T13:48:33.0000000+00:00</time></trkpt><trkpt lat="39.55340613" lon="-0.54111958"><ele>103.2</ele><time>2022-11-01T13:48:34.0000000+00:00</time></trkpt><trkpt lat="39.55340613" lon="-0.54111958"><ele>103.2</ele><time>2022-11-01T13:48:35.0000000+00:00</time></trkpt><trkpt lat="39.55340613" lon="-0.54111958"><ele>103.2</ele><time>2022-11-01T13:48:36.0000000+00:00</time></trkpt><trkpt lat="39.55340613" lon="-0.54111958"><ele>103.2</ele><time>2022-11-01T13:48:37.0000000+00:00</time></trkpt><trkpt lat="39.55340613" lon="-0.54111958"><ele>103.2</ele><time>2022-11-01T13:48:38.0000000+00:00</time></trkpt><trkpt lat="39.55340613" lon="-0.54111958"><ele>103.2</ele><time>2022-11-01T13:48:39.0000000+00:00</time></trkpt><trkpt lat="39.55340613" lon="-0.54111958"><ele>103.2</ele><time>2022-11-01T13:48:40.0000000+00:00</time></trkpt><trkpt lat="39.55340613" lon="-0.54111958"><ele>103.2</ele><time>2022-11-01T13:48:41.0000000+00:00</time></trkpt><trkpt lat="39.55340613" lon="-0.54111958"><ele>103.2</ele><time>2022-11-01T13:48:42.0000000+00:00</time></trkpt><trkpt lat="39.55340613" lon="-0.54111958"><ele>103.2</ele><time>2022-11-01T13:48:43.0000000+00:00</time></trkpt><trkpt lat="39.55340613" lon="-0.54111958"><ele>103.2</ele><time>2022-11-01T13:48:44.0000000+00:00</time></trkpt><trkpt lat="39.55340613" lon="-0.54111958"><ele>103.2</ele><time>2022-11-01T13:48:45.0000000+00:00</time></trkpt><trkpt lat="39.55340613" lon="-0.54111958"><ele>103.2</ele><time>2022-11-01T13:48:46.0000000+00:00</time></trkpt><trkpt lat="39.55340613" lon="-0.54111958"><ele>103.2</ele><time>2022-11-01T13:48:47.0000000+00:00</time></trkpt><trkpt lat="39.55340613" lon="-0.54111958"><ele>103.2</ele><time>2022-11-01T13:48:48.0000000+00:00</time></trkpt><trkpt lat="39.55340613" lon="-0.54111958"><ele>103.2</ele><time>2022-11-01T13:48:49.0000000+00:00</time></trkpt><trkpt lat="39.55340613" lon="-0.54111958"><ele>103.2</ele><time>2022-11-01T13:48:50.0000000+00:00</time></trkpt><trkpt lat="39.55340613" lon="-0.54111958"><ele>103.2</ele><time>2022-11-01T13:48:51.0000000+00:00</time></trkpt><trkpt lat="39.55340613" lon="-0.54111958"><ele>103.2</ele><time>2022-11-01T13:48:52.0000000+00:00</time></trkpt><trkpt lat="39.55340613" lon="-0.54111958"><ele>103.2</ele><time>2022-11-01T13:48:53.0000000+00:00</time></trkpt><trkpt lat="39.55340613" lon="-0.54111958"><ele>103.2</ele><time>2022-11-01T13:48:54.0000000+00:00</time></trkpt><trkpt lat="39.55340613" lon="-0.54111958"><ele>103.2</ele><time>2022-11-01T13:48:55.0000000+00:00</time></trkpt><trkpt lat="39.55340613" lon="-0.54111958"><ele>103.2</ele><time>2022-11-01T13:48:56.0000000+00:00</time></trkpt><trkpt lat="39.55340613" lon="-0.54111958"><ele>103.2</ele><time>2022-11-01T13:48:57.0000000+00:00</time></trkpt><trkpt lat="39.55340613" lon="-0.54111958"><ele>103.2</ele><time>2022-11-01T13:48:58.0000000+00:00</time></trkpt><trkpt lat="39.55340613" lon="-0.54111958"><ele>103.2</ele><time>2022-11-01T13:48:59.0000000+00:00</time></trkpt><trkpt lat="39.55340613" lon="-0.54111958"><ele>103.2</ele><time>2022-11-01T13:49:00.0000000+00:00</time></trkpt><trkpt lat="39.55340613" lon="-0.54111958"><ele>103.2</ele><time>2022-11-01T13:49:01.0000000+00:00</time></trkpt><trkpt lat="39.55340504" lon="-0.54112008"><ele>103.2</ele><time>2022-11-01T13:49:02.0000000+00:00</time></trkpt><trkpt lat="39.55340294" lon="-0.54112134"><ele>103.2</ele><time>2022-11-01T13:49:03.0000000+00:00</time></trkpt><trkpt lat="39.55340294" lon="-0.54112134"><ele>103.2</ele><time>2022-11-01T13:49:04.0000000+00:00</time></trkpt><trkpt lat="39.55340294" lon="-0.54112134"><ele>103.2</ele><time>2022-11-01T13:49:05.0000000+00:00</time></trkpt><trkpt lat="39.55340294" lon="-0.54112134"><ele>103.2</ele><time>2022-11-01T13:49:06.0000000+00:00</time></trkpt><trkpt lat="39.55340294" lon="-0.54112134"><ele>103.2</ele><time>2022-11-01T13:49:07.0000000+00:00</time></trkpt><trkpt lat="39.55340294" lon="-0.54112134"><ele>103.2</ele><time>2022-11-01T13:49:08.0000000+00:00</time></trkpt><trkpt lat="39.55340294" lon="-0.54112134"><ele>103.2</ele><time>2022-11-01T13:49:09.0000000+00:00</time></trkpt><trkpt lat="39.55340294" lon="-0.54112134"><ele>103.2</ele><time>2022-11-01T13:49:10.0000000+00:00</time></trkpt><trkpt lat="39.55340294" lon="-0.54112134"><ele>103.2</ele><time>2022-11-01T13:49:11.0000000+00:00</time></trkpt><trkpt lat="39.55340294" lon="-0.54112134"><ele>103.2</ele><time>2022-11-01T13:49:12.0000000+00:00</time></trkpt><trkpt lat="39.55340294" lon="-0.54112134"><ele>103.2</ele><time>2022-11-01T13:49:13.0000000+00:00</time></trkpt><trkpt lat="39.55340378" lon="-0.54112234"><ele>103.2</ele><time>2022-11-01T13:49:14.0000000+00:00</time></trkpt><trkpt lat="39.5534021" lon="-0.54112352"><ele>103.2</ele><time>2022-11-01T13:49:15.0000000+00:00</time></trkpt><trkpt lat="39.5534021" lon="-0.54112352"><ele>103.2</ele><time>2022-11-01T13:49:16.0000000+00:00</time></trkpt><trkpt lat="39.5534021" lon="-0.54112352"><ele>103.2</ele><time>2022-11-01T13:49:17.0000000+00:00</time></trkpt><trkpt lat="39.5534021" lon="-0.54112352"><ele>103.2</ele><time>2022-11-01T13:49:18.0000000+00:00</time></trkpt><trkpt lat="39.5534021" lon="-0.54112352"><ele>103.2</ele><time>2022-11-01T13:49:19.0000000+00:00</time></trkpt><trkpt lat="39.5534021" lon="-0.54112352"><ele>103.2</ele><time>2022-11-01T13:49:20.0000000+00:00</time></trkpt><trkpt lat="39.5534021" lon="-0.54112352"><ele>103.2</ele><time>2022-11-01T13:49:21.0000000+00:00</time></trkpt><trkpt lat="39.5534021" lon="-0.54112352"><ele>103.2</ele><time>2022-11-01T13:49:22.0000000+00:00</time></trkpt><trkpt lat="39.5534021" lon="-0.54112352"><ele>103.2</ele><time>2022-11-01T13:49:23.0000000+00:00</time></trkpt><trkpt lat="39.5534021" lon="-0.54112352"><ele>103.2</ele><time>2022-11-01T13:49:24.0000000+00:00</time></trkpt><trkpt lat="39.5534021" lon="-0.54112352"><ele>103.2</ele><time>2022-11-01T13:49:25.0000000+00:00</time></trkpt><trkpt lat="39.5534021" lon="-0.54112352"><ele>103.2</ele><time>2022-11-01T13:49:26.0000000+00:00</time></trkpt><trkpt lat="39.5534021" lon="-0.54112352"><ele>103.2</ele><time>2022-11-01T13:49:27.0000000+00:00</time></trkpt><trkpt lat="39.5534021" lon="-0.54112352"><ele>103.2</ele><time>2022-11-01T13:49:28.0000000+00:00</time></trkpt><trkpt lat="39.5534021" lon="-0.54112352"><ele>103.2</ele><time>2022-11-01T13:49:29.0000000+00:00</time></trkpt><trkpt lat="39.5534021" lon="-0.54112352"><ele>103.2</ele><time>2022-11-01T13:49:30.0000000+00:00</time></trkpt><trkpt lat="39.5534021" lon="-0.54112352"><ele>103.2</ele><time>2022-11-01T13:49:31.0000000+00:00</time></trkpt><trkpt lat="39.5534021" lon="-0.54112352"><ele>103.2</ele><time>2022-11-01T13:49:32.0000000+00:00</time></trkpt><trkpt lat="39.5534021" lon="-0.54112352"><ele>103.2</ele><time>2022-11-01T13:49:33.0000000+00:00</time></trkpt><trkpt lat="39.5534021" lon="-0.54112352"><ele>103.2</ele><time>2022-11-01T13:49:34.0000000+00:00</time></trkpt><trkpt lat="39.5534021" lon="-0.54112352"><ele>103.2</ele><time>2022-11-01T13:49:35.0000000+00:00</time></trkpt><trkpt lat="39.5534047" lon="-0.54112092"><ele>103.2</ele><time>2022-11-01T13:49:36.0000000+00:00</time></trkpt><trkpt lat="39.55340093" lon="-0.54112243"><ele>103.2</ele><time>2022-11-01T13:49:37.0000000+00:00</time></trkpt><trkpt lat="39.55340093" lon="-0.54112243"><ele>103.2</ele><time>2022-11-01T13:49:38.0000000+00:00</time></trkpt><trkpt lat="39.55340093" lon="-0.54112243"><ele>103.2</ele><time>2022-11-01T13:49:39.0000000+00:00</time></trkpt><trkpt lat="39.55340093" lon="-0.54112243"><ele>103.2</ele><time>2022-11-01T13:49:40.0000000+00:00</time></trkpt><trkpt lat="39.55340093" lon="-0.54112243"><ele>103.2</ele><time>2022-11-01T13:49:41.0000000+00:00</time></trkpt><trkpt lat="39.55340093" lon="-0.54112243"><ele>103.2</ele><time>2022-11-01T13:49:42.0000000+00:00</time></trkpt><trkpt lat="39.55340093" lon="-0.54112243"><ele>103.2</ele><time>2022-11-01T13:49:43.0000000+00:00</time></trkpt><trkpt lat="39.55340093" lon="-0.54112243"><ele>103.2</ele><time>2022-11-01T13:49:44.0000000+00:00</time></trkpt><trkpt lat="39.55340093" lon="-0.54112243"><ele>103.2</ele><time>2022-11-01T13:49:45.0000000+00:00</time></trkpt><trkpt lat="39.55340093" lon="-0.54112243"><ele>103.2</ele><time>2022-11-01T13:49:46.0000000+00:00</time></trkpt><trkpt lat="39.55340093" lon="-0.54112243"><ele>103.2</ele><time>2022-11-01T13:49:47.0000000+00:00</time></trkpt><trkpt lat="39.55340093" lon="-0.54112243"><ele>103.2</ele><time>2022-11-01T13:49:48.0000000+00:00</time></trkpt><trkpt lat="39.55340093" lon="-0.54112243"><ele>103.2</ele><time>2022-11-01T13:49:49.0000000+00:00</time></trkpt><trkpt lat="39.55340093" lon="-0.54112243"><ele>103.2</ele><time>2022-11-01T13:49:50.0000000+00:00</time></trkpt><trkpt lat="39.55340093" lon="-0.54112243"><ele>103.2</ele><time>2022-11-01T13:49:51.0000000+00:00</time></trkpt><trkpt lat="39.55340093" lon="-0.54112243"><ele>103.2</ele><time>2022-11-01T13:49:52.0000000+00:00</time></trkpt><trkpt lat="39.55340093" lon="-0.54112243"><ele>103.2</ele><time>2022-11-01T13:49:53.0000000+00:00</time></trkpt><trkpt lat="39.55340093" lon="-0.54112243"><ele>103.2</ele><time>2022-11-01T13:49:54.0000000+00:00</time></trkpt><trkpt lat="39.55340093" lon="-0.54112243"><ele>103.2</ele><time>2022-11-01T13:49:55.0000000+00:00</time></trkpt><trkpt lat="39.55340093" lon="-0.54112243"><ele>103.2</ele><time>2022-11-01T13:49:56.0000000+00:00</time></trkpt><trkpt lat="39.55340093" lon="-0.54112243"><ele>103.2</ele><time>2022-11-01T13:49:57.0000000+00:00</time></trkpt><trkpt lat="39.55340093" lon="-0.54112243"><ele>103.2</ele><time>2022-11-01T13:49:58.0000000+00:00</time></trkpt><trkpt lat="39.55340093" lon="-0.54112243"><ele>103.2</ele><time>2022-11-01T13:49:59.0000000+00:00</time></trkpt><trkpt lat="39.55340093" lon="-0.54112243"><ele>103.2</ele><time>2022-11-01T13:50:00.0000000+00:00</time></trkpt><trkpt lat="39.55340093" lon="-0.54112243"><ele>103.2</ele><time>2022-11-01T13:50:01.0000000+00:00</time></trkpt><trkpt lat="39.55340093" lon="-0.54112243"><ele>103.2</ele><time>2022-11-01T13:50:02.0000000+00:00</time></trkpt><trkpt lat="39.55340093" lon="-0.54112243"><ele>103.2</ele><time>2022-11-01T13:50:03.0000000+00:00</time></trkpt><trkpt lat="39.55340093" lon="-0.54112243"><ele>103.2</ele><time>2022-11-01T13:50:04.0000000+00:00</time></trkpt><trkpt lat="39.55340093" lon="-0.54112243"><ele>103.2</ele><time>2022-11-01T13:50:05.0000000+00:00</time></trkpt><trkpt lat="39.55340093" lon="-0.54112243"><ele>103.2</ele><time>2022-11-01T13:50:06.0000000+00:00</time></trkpt><trkpt lat="39.55340093" lon="-0.54112243"><ele>103.2</ele><time>2022-11-01T13:50:07.0000000+00:00</time></trkpt><trkpt lat="39.55340093" lon="-0.54112243"><ele>103.2</ele><time>2022-11-01T13:50:08.0000000+00:00</time></trkpt><trkpt lat="39.55340093" lon="-0.54112243"><ele>103.2</ele><time>2022-11-01T13:50:09.0000000+00:00</time></trkpt><trkpt lat="39.55340093" lon="-0.54112243"><ele>103.2</ele><time>2022-11-01T13:50:10.0000000+00:00</time></trkpt><trkpt lat="39.55340093" lon="-0.54112243"><ele>103.2</ele><time>2022-11-01T13:50:11.0000000+00:00</time></trkpt><trkpt lat="39.55340093" lon="-0.54112243"><ele>103.2</ele><time>2022-11-01T13:50:12.0000000+00:00</time></trkpt><trkpt lat="39.55340093" lon="-0.54112243"><ele>103.2</ele><time>2022-11-01T13:50:13.0000000+00:00</time></trkpt><trkpt lat="39.55340093" lon="-0.54112243"><ele>103.2</ele><time>2022-11-01T13:50:14.0000000+00:00</time></trkpt><trkpt lat="39.55341049" lon="-0.54112846"><ele>103.2</ele><time>2022-11-01T13:50:15.0000000+00:00</time></trkpt><trkpt lat="39.55340797" lon="-0.54112989"><ele>103.2</ele><time>2022-11-01T13:50:16.0000000+00:00</time></trkpt><trkpt lat="39.55340797" lon="-0.54112989"><ele>103.2</ele><time>2022-11-01T13:50:17.0000000+00:00</time></trkpt><trkpt lat="39.55340797" lon="-0.54112989"><ele>103.2</ele><time>2022-11-01T13:50:18.0000000+00:00</time></trkpt><trkpt lat="39.55340797" lon="-0.54112989"><ele>103.2</ele><time>2022-11-01T13:50:19.0000000+00:00</time></trkpt><trkpt lat="39.55340797" lon="-0.54112989"><ele>103.2</ele><time>2022-11-01T13:50:20.0000000+00:00</time></trkpt><trkpt lat="39.55340797" lon="-0.54112989"><ele>103.2</ele><time>2022-11-01T13:50:21.0000000+00:00</time></trkpt><trkpt lat="39.55340797" lon="-0.54112989"><ele>103.2</ele><time>2022-11-01T13:50:22.0000000+00:00</time></trkpt><trkpt lat="39.55340797" lon="-0.54112989"><ele>103.2</ele><time>2022-11-01T13:50:23.0000000+00:00</time></trkpt><trkpt lat="39.55340797" lon="-0.54112989"><ele>103.2</ele><time>2022-11-01T13:50:24.0000000+00:00</time></trkpt><trkpt lat="39.55340797" lon="-0.54112989"><ele>103.2</ele><time>2022-11-01T13:50:25.0000000+00:00</time></trkpt><trkpt lat="39.55340797" lon="-0.54112989"><ele>103.2</ele><time>2022-11-01T13:50:26.0000000+00:00</time></trkpt><trkpt lat="39.55340797" lon="-0.54112989"><ele>103.2</ele><time>2022-11-01T13:50:27.0000000+00:00</time></trkpt><trkpt lat="39.55340797" lon="-0.54112989"><ele>103.2</ele><time>2022-11-01T13:50:28.0000000+00:00</time></trkpt><trkpt lat="39.55341275" lon="-0.54113274"><ele>103.2</ele><time>2022-11-01T13:50:29.0000000+00:00</time></trkpt><trkpt lat="39.55342633" lon="-0.54112796"><ele>103.2</ele><time>2022-11-01T13:50:30.0000000+00:00</time></trkpt><trkpt lat="39.55344183" lon="-0.54111446"><ele>103.2</ele><time>2022-11-01T13:50:31.0000000+00:00</time></trkpt><trkpt lat="39.55345818" lon="-0.54109502"><ele>103.2</ele><time>2022-11-01T13:50:32.0000000+00:00</time></trkpt><trkpt lat="39.55346849" lon="-0.54107708"><ele>103.2</ele><time>2022-11-01T13:50:33.0000000+00:00</time></trkpt><trkpt lat="39.55347461" lon="-0.5410573"><ele>103.2</ele><time>2022-11-01T13:50:34.0000000+00:00</time></trkpt><trkpt lat="39.55347402" lon="-0.54103291"><ele>103.2</ele><time>2022-11-01T13:50:35.0000000+00:00</time></trkpt><trkpt lat="39.55348986" lon="-0.54100541"><ele>103.2</ele><time>2022-11-01T13:50:36.0000000+00:00</time></trkpt><trkpt lat="39.55349757" lon="-0.54098127"><ele>103.6</ele><time>2022-11-01T13:50:37.0000000+00:00</time></trkpt><trkpt lat="39.55350193" lon="-0.54095856"><ele>104.0</ele><time>2022-11-01T13:50:38.0000000+00:00</time></trkpt><trkpt lat="39.55351434" lon="-0.54093375"><ele>104.0</ele><time>2022-11-01T13:50:39.0000000+00:00</time></trkpt><trkpt lat="39.55352616" lon="-0.54090676"><ele>104.2</ele><time>2022-11-01T13:50:40.0000000+00:00</time></trkpt><trkpt lat="39.55353487" lon="-0.54087893"><ele>104.2</ele><time>2022-11-01T13:50:41.0000000+00:00</time></trkpt><trkpt lat="39.55354594" lon="-0.54084641"><ele>104.2</ele><time>2022-11-01T13:50:42.0000000+00:00</time></trkpt><trkpt lat="39.5535513" lon="-0.54082118"><ele>104.2</ele><time>2022-11-01T13:50:43.0000000+00:00</time></trkpt><trkpt lat="39.55356128" lon="-0.54079562"><ele>104.2</ele><time>2022-11-01T13:50:44.0000000+00:00</time></trkpt><trkpt lat="39.55356765" lon="-0.54077298"><ele>104.0</ele><time>2022-11-01T13:50:45.0000000+00:00</time></trkpt><trkpt lat="39.55357863" lon="-0.54074046"><ele>104.0</ele><time>2022-11-01T13:50:46.0000000+00:00</time></trkpt><trkpt lat="39.55358475" lon="-0.54069738"><ele>104.0</ele><time>2022-11-01T13:50:47.0000000+00:00</time></trkpt><trkpt lat="39.55358676" lon="-0.54066402"><ele>104.0</ele><time>2022-11-01T13:50:48.0000000+00:00</time></trkpt><trkpt lat="39.55358952" lon="-0.54064089"><ele>104.0</ele><time>2022-11-01T13:50:49.0000000+00:00</time></trkpt><trkpt lat="39.55359262" lon="-0.54062144"><ele>103.8</ele><time>2022-11-01T13:50:50.0000000+00:00</time></trkpt><trkpt lat="39.5535948" lon="-0.54059973"><ele>103.8</ele><time>2022-11-01T13:50:51.0000000+00:00</time></trkpt><trkpt lat="39.55359791" lon="-0.54057861"><ele>103.8</ele><time>2022-11-01T13:50:52.0000000+00:00</time></trkpt><trkpt lat="39.55360553" lon="-0.54056218"><ele>103.8</ele><time>2022-11-01T13:50:53.0000000+00:00</time></trkpt><trkpt lat="39.55361945" lon="-0.54054651"><ele>103.8</ele><time>2022-11-01T13:50:54.0000000+00:00</time></trkpt><trkpt lat="39.5536352" lon="-0.54053469"><ele>103.8</ele><time>2022-11-01T13:50:55.0000000+00:00</time></trkpt><trkpt lat="39.55365457" lon="-0.54052052"><ele>103.8</ele><time>2022-11-01T13:50:56.0000000+00:00</time></trkpt><trkpt lat="39.55367846" lon="-0.54049345"><ele>103.6</ele><time>2022-11-01T13:50:57.0000000+00:00</time></trkpt><trkpt lat="39.55369991" lon="-0.54047291"><ele>103.6</ele><time>2022-11-01T13:50:58.0000000+00:00</time></trkpt><trkpt lat="39.55371743" lon="-0.54045196"><ele>103.6</ele><time>2022-11-01T13:50:59.0000000+00:00</time></trkpt><trkpt lat="39.55373109" lon="-0.54042321"><ele>103.4</ele><time>2022-11-01T13:51:00.0000000+00:00</time></trkpt><trkpt lat="39.55375155" lon="-0.54039429"><ele>103.4</ele><time>2022-11-01T13:51:01.0000000+00:00</time></trkpt><trkpt lat="39.55376839" lon="-0.54037954"><ele>103.2</ele><time>2022-11-01T13:51:02.0000000+00:00</time></trkpt><trkpt lat="39.55379228" lon="-0.54035783"><ele>103.2</ele><time>2022-11-01T13:51:03.0000000+00:00</time></trkpt><trkpt lat="39.55381936" lon="-0.54034266"><ele>103.0</ele><time>2022-11-01T13:51:04.0000000+00:00</time></trkpt><trkpt lat="39.55384484" lon="-0.54032405"><ele>103.0</ele><time>2022-11-01T13:51:05.0000000+00:00</time></trkpt><trkpt lat="39.55386797" lon="-0.54030955"><ele>103.0</ele><time>2022-11-01T13:51:06.0000000+00:00</time></trkpt><trkpt lat="39.55389479" lon="-0.54029605"><ele>103.0</ele><time>2022-11-01T13:51:07.0000000+00:00</time></trkpt><trkpt lat="39.55391994" lon="-0.54027854"><ele>103.0</ele><time>2022-11-01T13:51:08.0000000+00:00</time></trkpt><trkpt lat="39.55394634" lon="-0.54026085"><ele>103.0</ele><time>2022-11-01T13:51:09.0000000+00:00</time></trkpt><trkpt lat="39.55397149" lon="-0.54024023"><ele>103.0</ele><time>2022-11-01T13:51:10.0000000+00:00</time></trkpt><trkpt lat="39.55400015" lon="-0.54022187"><ele>103.0</ele><time>2022-11-01T13:51:11.0000000+00:00</time></trkpt><trkpt lat="39.55402505" lon="-0.54020628"><ele>103.0</ele><time>2022-11-01T13:51:12.0000000+00:00</time></trkpt><trkpt lat="39.5540512" lon="-0.54019958"><ele>103.0</ele><time>2022-11-01T13:51:13.0000000+00:00</time></trkpt><trkpt lat="39.55408154" lon="-0.54019254"><ele>103.2</ele><time>2022-11-01T13:51:14.0000000+00:00</time></trkpt><trkpt lat="39.55411364" lon="-0.54018198"><ele>103.0</ele><time>2022-11-01T13:51:15.0000000+00:00</time></trkpt><trkpt lat="39.55414776" lon="-0.54016169"><ele>103.0</ele><time>2022-11-01T13:51:16.0000000+00:00</time></trkpt><trkpt lat="39.55418196" lon="-0.54014602"><ele>103.2</ele><time>2022-11-01T13:51:17.0000000+00:00</time></trkpt><trkpt lat="39.55421624" lon="-0.54012909"><ele>103.0</ele><time>2022-11-01T13:51:18.0000000+00:00</time></trkpt><trkpt lat="39.55425303" lon="-0.54010905"><ele>103.0</ele><time>2022-11-01T13:51:19.0000000+00:00</time></trkpt><trkpt lat="39.55429084" lon="-0.54008952"><ele>103.0</ele><time>2022-11-01T13:51:20.0000000+00:00</time></trkpt><trkpt lat="39.55432965" lon="-0.54006983"><ele>103.0</ele><time>2022-11-01T13:51:21.0000000+00:00</time></trkpt><trkpt lat="39.55436678" lon="-0.54005139"><ele>102.8</ele><time>2022-11-01T13:51:22.0000000+00:00</time></trkpt><trkpt lat="39.55440575" lon="-0.54002901"><ele>102.6</ele><time>2022-11-01T13:51:23.0000000+00:00</time></trkpt><trkpt lat="39.55444473" lon="-0.5400042"><ele>102.6</ele><time>2022-11-01T13:51:24.0000000+00:00</time></trkpt><trkpt lat="39.55448153" lon="-0.53997595"><ele>102.6</ele><time>2022-11-01T13:51:25.0000000+00:00</time></trkpt><trkpt lat="39.55451631" lon="-0.53995776"><ele>102.6</ele><time>2022-11-01T13:51:26.0000000+00:00</time></trkpt><trkpt lat="39.55455168" lon="-0.53994041"><ele>102.6</ele><time>2022-11-01T13:51:27.0000000+00:00</time></trkpt><trkpt lat="39.5545863" lon="-0.53992465"><ele>102.8</ele><time>2022-11-01T13:51:28.0000000+00:00</time></trkpt><trkpt lat="39.55462008" lon="-0.53990663"><ele>102.8</ele><time>2022-11-01T13:51:29.0000000+00:00</time></trkpt><trkpt lat="39.55465553" lon="-0.53988735"><ele>103.0</ele><time>2022-11-01T13:51:30.0000000+00:00</time></trkpt><trkpt lat="39.55469074" lon="-0.53986782"><ele>103.0</ele><time>2022-11-01T13:51:31.0000000+00:00</time></trkpt><trkpt lat="39.55472569" lon="-0.53984955"><ele>102.8</ele><time>2022-11-01T13:51:32.0000000+00:00</time></trkpt><trkpt lat="39.55475226" lon="-0.53983312"><ele>102.8</ele><time>2022-11-01T13:51:33.0000000+00:00</time></trkpt><trkpt lat="39.55479945" lon="-0.53980974"><ele>102.8</ele><time>2022-11-01T13:51:34.0000000+00:00</time></trkpt><trkpt lat="39.55484052" lon="-0.5397949"><ele>102.6</ele><time>2022-11-01T13:51:35.0000000+00:00</time></trkpt><trkpt lat="39.55488185" lon="-0.53978065"><ele>102.6</ele><time>2022-11-01T13:51:36.0000000+00:00</time></trkpt><trkpt lat="39.55492342" lon="-0.53976774"><ele>102.6</ele><time>2022-11-01T13:51:37.0000000+00:00</time></trkpt><trkpt lat="39.55496541" lon="-0.53975324"><ele>102.6</ele><time>2022-11-01T13:51:38.0000000+00:00</time></trkpt><trkpt lat="39.55500724" lon="-0.53973313"><ele>102.6</ele><time>2022-11-01T13:51:39.0000000+00:00</time></trkpt><trkpt lat="39.5550437" lon="-0.53970672"><ele>102.8</ele><time>2022-11-01T13:51:40.0000000+00:00</time></trkpt><trkpt lat="39.55506767" lon="-0.53968468"><ele>102.8</ele><time>2022-11-01T13:51:41.0000000+00:00</time></trkpt><trkpt lat="39.55510832" lon="-0.53965643"><ele>102.8</ele><time>2022-11-01T13:51:42.0000000+00:00</time></trkpt><trkpt lat="39.5551442" lon="-0.53963581"><ele>102.8</ele><time>2022-11-01T13:51:43.0000000+00:00</time></trkpt><trkpt lat="39.55518108" lon="-0.53961787"><ele>102.8</ele><time>2022-11-01T13:51:44.0000000+00:00</time></trkpt><trkpt lat="39.55522265" lon="-0.53960128"><ele>102.8</ele><time>2022-11-01T13:51:45.0000000+00:00</time></trkpt><trkpt lat="39.5552628" lon="-0.53958384"><ele>102.8</ele><time>2022-11-01T13:51:46.0000000+00:00</time></trkpt><trkpt lat="39.55530387" lon="-0.53956507"><ele>102.8</ele><time>2022-11-01T13:51:47.0000000+00:00</time></trkpt><trkpt lat="39.55534042" lon="-0.53954512"><ele>102.8</ele><time>2022-11-01T13:51:48.0000000+00:00</time></trkpt><trkpt lat="39.5553799" lon="-0.53952651"><ele>102.8</ele><time>2022-11-01T13:51:49.0000000+00:00</time></trkpt><trkpt lat="39.55542508" lon="-0.53950765"><ele>102.8</ele><time>2022-11-01T13:51:50.0000000+00:00</time></trkpt><trkpt lat="39.5554602" lon="-0.53949055"><ele>102.8</ele><time>2022-11-01T13:51:51.0000000+00:00</time></trkpt><trkpt lat="39.55550839" lon="-0.53946549"><ele>102.8</ele><time>2022-11-01T13:51:52.0000000+00:00</time></trkpt><trkpt lat="39.55555064" lon="-0.53944118"><ele>102.8</ele><time>2022-11-01T13:51:53.0000000+00:00</time></trkpt><trkpt lat="39.55559271" lon="-0.53941252"><ele>102.8</ele><time>2022-11-01T13:51:54.0000000+00:00</time></trkpt><trkpt lat="39.5556332" lon="-0.53938603"><ele>102.6</ele><time>2022-11-01T13:51:55.0000000+00:00</time></trkpt><trkpt lat="39.55567335" lon="-0.53936315"><ele>102.6</ele><time>2022-11-01T13:51:56.0000000+00:00</time></trkpt><trkpt lat="39.55571995" lon="-0.53933859"><ele>102.6</ele><time>2022-11-01T13:51:57.0000000+00:00</time></trkpt><trkpt lat="39.55576823" lon="-0.53931629"><ele>102.6</ele><time>2022-11-01T13:51:58.0000000+00:00</time></trkpt><trkpt lat="39.55581375" lon="-0.53929316"><ele>102.6</ele><time>2022-11-01T13:51:59.0000000+00:00</time></trkpt><trkpt lat="39.55585834" lon="-0.5392717"><ele>102.6</ele><time>2022-11-01T13:52:00.0000000+00:00</time></trkpt><trkpt lat="39.55590025" lon="-0.53924815"><ele>102.6</ele><time>2022-11-01T13:52:01.0000000+00:00</time></trkpt><trkpt lat="39.55594299" lon="-0.53922552"><ele>102.6</ele><time>2022-11-01T13:52:02.0000000+00:00</time></trkpt><trkpt lat="39.55598616" lon="-0.53920607"><ele>102.6</ele><time>2022-11-01T13:52:03.0000000+00:00</time></trkpt><trkpt lat="39.5560295" lon="-0.53918537"><ele>102.6</ele><time>2022-11-01T13:52:04.0000000+00:00</time></trkpt><trkpt lat="39.55606151" lon="-0.53916877"><ele>102.6</ele><time>2022-11-01T13:52:05.0000000+00:00</time></trkpt><trkpt lat="39.55611231" lon="-0.53914379"><ele>102.6</ele><time>2022-11-01T13:52:06.0000000+00:00</time></trkpt><trkpt lat="39.55615464" lon="-0.5391241"><ele>102.6</ele><time>2022-11-01T13:52:07.0000000+00:00</time></trkpt><trkpt lat="39.55618833" lon="-0.53910775"><ele>102.6</ele><time>2022-11-01T13:52:08.0000000+00:00</time></trkpt><trkpt lat="39.55623586" lon="-0.53908395"><ele>102.6</ele><time>2022-11-01T13:52:09.0000000+00:00</time></trkpt><trkpt lat="39.556274" lon="-0.53906266"><ele>102.6</ele><time>2022-11-01T13:52:10.0000000+00:00</time></trkpt><trkpt lat="39.55631306" lon="-0.53904103"><ele>102.6</ele><time>2022-11-01T13:52:11.0000000+00:00</time></trkpt><trkpt lat="39.55635237" lon="-0.53901798"><ele>102.6</ele><time>2022-11-01T13:52:12.0000000+00:00</time></trkpt><trkpt lat="39.55638723" lon="-0.53899828"><ele>102.6</ele><time>2022-11-01T13:52:13.0000000+00:00</time></trkpt><trkpt lat="39.55642194" lon="-0.5389775"><ele>102.6</ele><time>2022-11-01T13:52:14.0000000+00:00</time></trkpt><trkpt lat="39.5564506" lon="-0.53895931"><ele>102.6</ele><time>2022-11-01T13:52:15.0000000+00:00</time></trkpt><trkpt lat="39.55646779" lon="-0.53893483"><ele>102.6</ele><time>2022-11-01T13:52:16.0000000+00:00</time></trkpt><trkpt lat="39.55647617" lon="-0.53889728"><ele>102.6</ele><time>2022-11-01T13:52:17.0000000+00:00</time></trkpt><trkpt lat="39.55647022" lon="-0.53885764"><ele>102.6</ele><time>2022-11-01T13:52:18.0000000+00:00</time></trkpt><trkpt lat="39.55645915" lon="-0.53881422"><ele>102.6</ele><time>2022-11-01T13:52:19.0000000+00:00</time></trkpt><trkpt lat="39.55644029" lon="-0.53877097"><ele>102.6</ele><time>2022-11-01T13:52:20.0000000+00:00</time></trkpt><trkpt lat="39.55642059" lon="-0.53872436"><ele>102.6</ele><time>2022-11-01T13:52:21.0000000+00:00</time></trkpt><trkpt lat="39.55640886" lon="-0.53867432"><ele>102.6</ele><time>2022-11-01T13:52:22.0000000+00:00</time></trkpt><trkpt lat="39.55639386" lon="-0.5386221"><ele>102.4</ele><time>2022-11-01T13:52:23.0000000+00:00</time></trkpt><trkpt lat="39.55637642" lon="-0.53856947"><ele>102.2</ele><time>2022-11-01T13:52:24.0000000+00:00</time></trkpt><trkpt lat="39.55636192" lon="-0.53851012"><ele>102.0</ele><time>2022-11-01T13:52:25.0000000+00:00</time></trkpt><trkpt lat="39.55634759" lon="-0.53844994"><ele>101.8</ele><time>2022-11-01T13:52:26.0000000+00:00</time></trkpt><trkpt lat="39.55633074" lon="-0.53838858"><ele>101.8</ele><time>2022-11-01T13:52:27.0000000+00:00</time></trkpt><trkpt lat="39.55631155" lon="-0.53832714"><ele>101.8</ele><time>2022-11-01T13:52:28.0000000+00:00</time></trkpt><trkpt lat="39.55629235" lon="-0.53826755"><ele>101.8</ele><time>2022-11-01T13:52:29.0000000+00:00</time></trkpt><trkpt lat="39.55627131" lon="-0.53821064"><ele>101.8</ele><time>2022-11-01T13:52:30.0000000+00:00</time></trkpt><trkpt lat="39.55624508" lon="-0.53815498"><ele>101.8</ele><time>2022-11-01T13:52:31.0000000+00:00</time></trkpt><trkpt lat="39.55621993" lon="-0.53809958"><ele>101.8</ele><time>2022-11-01T13:52:32.0000000+00:00</time></trkpt><trkpt lat="39.55620057" lon="-0.53804216"><ele>101.8</ele><time>2022-11-01T13:52:33.0000000+00:00</time></trkpt><trkpt lat="39.55618288" lon="-0.53798567"><ele>101.8</ele><time>2022-11-01T13:52:34.0000000+00:00</time></trkpt><trkpt lat="39.55616419" lon="-0.53793278"><ele>101.6</ele><time>2022-11-01T13:52:35.0000000+00:00</time></trkpt><trkpt lat="39.55614843" lon="-0.5378876"><ele>101.4</ele><time>2022-11-01T13:52:36.0000000+00:00</time></trkpt><trkpt lat="39.55613402" lon="-0.53782767"><ele>101.2</ele><time>2022-11-01T13:52:37.0000000+00:00</time></trkpt><trkpt lat="39.55612044" lon="-0.53776975"><ele>101.2</ele><time>2022-11-01T13:52:38.0000000+00:00</time></trkpt><trkpt lat="39.55610653" lon="-0.53771175"><ele>101.2</ele><time>2022-11-01T13:52:39.0000000+00:00</time></trkpt><trkpt lat="39.55608599" lon="-0.53764578"><ele>101.2</ele><time>2022-11-01T13:52:40.0000000+00:00</time></trkpt><trkpt lat="39.55607451" lon="-0.53759188"><ele>101.2</ele><time>2022-11-01T13:52:41.0000000+00:00</time></trkpt><trkpt lat="39.55606294" lon="-0.53753707"><ele>101.2</ele><time>2022-11-01T13:52:42.0000000+00:00</time></trkpt><trkpt lat="39.55604701" lon="-0.53748183"><ele>101.2</ele><time>2022-11-01T13:52:43.0000000+00:00</time></trkpt><trkpt lat="39.55602757" lon="-0.53743112"><ele>101.0</ele><time>2022-11-01T13:52:44.0000000+00:00</time></trkpt><trkpt lat="39.5560072" lon="-0.53737873"><ele>101.0</ele><time>2022-11-01T13:52:45.0000000+00:00</time></trkpt><trkpt lat="39.55598977" lon="-0.53733012"><ele>101.0</ele><time>2022-11-01T13:52:46.0000000+00:00</time></trkpt><trkpt lat="39.55597434" lon="-0.53728142"><ele>101.0</ele><time>2022-11-01T13:52:47.0000000+00:00</time></trkpt><trkpt lat="39.55595783" lon="-0.53723909"><ele>100.8</ele><time>2022-11-01T13:52:48.0000000+00:00</time></trkpt><trkpt lat="39.55594241" lon="-0.53720003"><ele>100.8</ele><time>2022-11-01T13:52:49.0000000+00:00</time></trkpt><trkpt lat="39.55591986" lon="-0.53715468"><ele>101.0</ele><time>2022-11-01T13:52:50.0000000+00:00</time></trkpt><trkpt lat="39.55590058" lon="-0.53711378"><ele>101.0</ele><time>2022-11-01T13:52:51.0000000+00:00</time></trkpt><trkpt lat="39.55588348" lon="-0.53707321"><ele>101.2</ele><time>2022-11-01T13:52:52.0000000+00:00</time></trkpt><trkpt lat="39.55586915" lon="-0.53703432"><ele>101.4</ele><time>2022-11-01T13:52:53.0000000+00:00</time></trkpt><trkpt lat="39.55585733" lon="-0.53699878"><ele>101.4</ele><time>2022-11-01T13:52:54.0000000+00:00</time></trkpt><trkpt lat="39.55584426" lon="-0.5369645"><ele>101.4</ele><time>2022-11-01T13:52:55.0000000+00:00</time></trkpt><trkpt lat="39.55583244" lon="-0.53692971"><ele>101.2</ele><time>2022-11-01T13:52:56.0000000+00:00</time></trkpt><trkpt lat="39.55582246" lon="-0.5369008"><ele>101.2</ele><time>2022-11-01T13:52:57.0000000+00:00</time></trkpt><trkpt lat="39.55580754" lon="-0.53685637"><ele>101.2</ele><time>2022-11-01T13:52:58.0000000+00:00</time></trkpt><trkpt lat="39.55579396" lon="-0.53681103"><ele>101.0</ele><time>2022-11-01T13:52:59.0000000+00:00</time></trkpt><trkpt lat="39.5557808" lon="-0.53676643"><ele>101.0</ele><time>2022-11-01T13:53:00.0000000+00:00</time></trkpt><trkpt lat="39.55576387" lon="-0.53672285"><ele>101.0</ele><time>2022-11-01T13:53:01.0000000+00:00</time></trkpt><trkpt lat="39.55574652" lon="-0.53667893"><ele>101.0</ele><time>2022-11-01T13:53:02.0000000+00:00</time></trkpt><trkpt lat="39.55573043" lon="-0.5366345"><ele>101.0</ele><time>2022-11-01T13:53:03.0000000+00:00</time></trkpt><trkpt lat="39.55571123" lon="-0.53658597"><ele>101.0</ele><time>2022-11-01T13:53:04.0000000+00:00</time></trkpt><trkpt lat="39.55569506" lon="-0.53654599"><ele>100.8</ele><time>2022-11-01T13:53:05.0000000+00:00</time></trkpt><trkpt lat="39.55567243" lon="-0.53648656"><ele>100.8</ele><time>2022-11-01T13:53:06.0000000+00:00</time></trkpt><trkpt lat="39.55565474" lon="-0.53643426"><ele>100.6</ele><time>2022-11-01T13:53:07.0000000+00:00</time></trkpt><trkpt lat="39.55563739" lon="-0.53638187"><ele>100.6</ele><time>2022-11-01T13:53:08.0000000+00:00</time></trkpt><trkpt lat="39.55562012" lon="-0.53633058"><ele>100.6</ele><time>2022-11-01T13:53:09.0000000+00:00</time></trkpt><trkpt lat="39.55560411" lon="-0.53627886"><ele>100.6</ele><time>2022-11-01T13:53:10.0000000+00:00</time></trkpt><trkpt lat="39.55558886" lon="-0.53622379"><ele>100.8</ele><time>2022-11-01T13:53:11.0000000+00:00</time></trkpt><trkpt lat="39.55556857" lon="-0.53616948"><ele>100.8</ele><time>2022-11-01T13:53:12.0000000+00:00</time></trkpt><trkpt lat="39.55554955" lon="-0.53611667"><ele>101.0</ele><time>2022-11-01T13:53:13.0000000+00:00</time></trkpt><trkpt lat="39.55553203" lon="-0.53606378"><ele>101.0</ele><time>2022-11-01T13:53:14.0000000+00:00</time></trkpt><trkpt lat="39.55551426" lon="-0.53601324"><ele>101.2</ele><time>2022-11-01T13:53:15.0000000+00:00</time></trkpt><trkpt lat="39.55549716" lon="-0.5359616"><ele>101.2</ele><time>2022-11-01T13:53:16.0000000+00:00</time></trkpt><trkpt lat="39.55548367" lon="-0.53592062"><ele>101.2</ele><time>2022-11-01T13:53:17.0000000+00:00</time></trkpt><trkpt lat="39.55546673" lon="-0.53586764"><ele>101.2</ele><time>2022-11-01T13:53:18.0000000+00:00</time></trkpt><trkpt lat="39.5554467" lon="-0.53581593"><ele>101.2</ele><time>2022-11-01T13:53:19.0000000+00:00</time></trkpt><trkpt lat="39.55542508" lon="-0.53576371"><ele>101.2</ele><time>2022-11-01T13:53:20.0000000+00:00</time></trkpt><trkpt lat="39.55540362" lon="-0.53569992"><ele>101.2</ele><time>2022-11-01T13:53:21.0000000+00:00</time></trkpt><trkpt lat="39.55538962" lon="-0.53565189"><ele>101.4</ele><time>2022-11-01T13:53:22.0000000+00:00</time></trkpt><trkpt lat="39.5553742" lon="-0.53560152"><ele>101.4</ele><time>2022-11-01T13:53:23.0000000+00:00</time></trkpt><trkpt lat="39.55535433" lon="-0.53554829"><ele>101.6</ele><time>2022-11-01T13:53:24.0000000+00:00</time></trkpt><trkpt lat="39.55533522" lon="-0.53550018"><ele>101.6</ele><time>2022-11-01T13:53:25.0000000+00:00</time></trkpt><trkpt lat="39.55531611" lon="-0.53545182"><ele>101.8</ele><time>2022-11-01T13:53:26.0000000+00:00</time></trkpt><trkpt lat="39.55529767" lon="-0.5354037"><ele>102.0</ele><time>2022-11-01T13:53:27.0000000+00:00</time></trkpt><trkpt lat="39.55527579" lon="-0.53535861"><ele>102.0</ele><time>2022-11-01T13:53:28.0000000+00:00</time></trkpt><trkpt lat="39.55525585" lon="-0.53531368"><ele>102.2</ele><time>2022-11-01T13:53:29.0000000+00:00</time></trkpt><trkpt lat="39.55523523" lon="-0.53526716"><ele>102.2</ele><time>2022-11-01T13:53:30.0000000+00:00</time></trkpt><trkpt lat="39.55521821" lon="-0.53521629"><ele>102.2</ele><time>2022-11-01T13:53:31.0000000+00:00</time></trkpt><trkpt lat="39.55520254" lon="-0.53516884"><ele>102.4</ele><time>2022-11-01T13:53:32.0000000+00:00</time></trkpt><trkpt lat="39.55518644" lon="-0.53512073"><ele>102.4</ele><time>2022-11-01T13:53:33.0000000+00:00</time></trkpt><trkpt lat="39.55516985" lon="-0.53507505"><ele>102.6</ele><time>2022-11-01T13:53:34.0000000+00:00</time></trkpt><trkpt lat="39.55514889" lon="-0.53503163"><ele>102.6</ele><time>2022-11-01T13:53:35.0000000+00:00</time></trkpt><trkpt lat="39.55513079" lon="-0.53498545"><ele>102.6</ele><time>2022-11-01T13:53:36.0000000+00:00</time></trkpt><trkpt lat="39.5551121" lon="-0.53493734"><ele>102.6</ele><time>2022-11-01T13:53:37.0000000+00:00</time></trkpt><trkpt lat="39.55510036" lon="-0.53489685"><ele>102.6</ele><time>2022-11-01T13:53:38.0000000+00:00</time></trkpt><trkpt lat="39.55507823" lon="-0.53483784"><ele>102.8</ele><time>2022-11-01T13:53:39.0000000+00:00</time></trkpt><trkpt lat="39.5550603" lon="-0.53478822"><ele>102.8</ele><time>2022-11-01T13:53:40.0000000+00:00</time></trkpt><trkpt lat="39.55504253" lon="-0.53474162"><ele>102.8</ele><time>2022-11-01T13:53:41.0000000+00:00</time></trkpt><trkpt lat="39.55502484" lon="-0.53469267"><ele>102.8</ele><time>2022-11-01T13:53:42.0000000+00:00</time></trkpt><trkpt lat="39.5550064" lon="-0.5346412"><ele>102.6</ele><time>2022-11-01T13:53:43.0000000+00:00</time></trkpt><trkpt lat="39.55498519" lon="-0.53459301"><ele>102.4</ele><time>2022-11-01T13:53:44.0000000+00:00</time></trkpt><trkpt lat="39.55496566" lon="-0.53454305"><ele>102.4</ele><time>2022-11-01T13:53:45.0000000+00:00</time></trkpt><trkpt lat="39.55494957" lon="-0.53449335"><ele>102.2</ele><time>2022-11-01T13:53:46.0000000+00:00</time></trkpt><trkpt lat="39.55493205" lon="-0.53443736"><ele>102.0</ele><time>2022-11-01T13:53:47.0000000+00:00</time></trkpt><trkpt lat="39.55490833" lon="-0.53438262"><ele>101.8</ele><time>2022-11-01T13:53:48.0000000+00:00</time></trkpt><trkpt lat="39.55487941" lon="-0.53432688"><ele>101.6</ele><time>2022-11-01T13:53:49.0000000+00:00</time></trkpt><trkpt lat="39.55485402" lon="-0.53426888"><ele>101.6</ele><time>2022-11-01T13:53:50.0000000+00:00</time></trkpt><trkpt lat="39.55482929" lon="-0.53420451"><ele>101.4</ele><time>2022-11-01T13:53:51.0000000+00:00</time></trkpt><trkpt lat="39.55480716" lon="-0.53413594"><ele>101.2</ele><time>2022-11-01T13:53:52.0000000+00:00</time></trkpt><trkpt lat="39.55478478" lon="-0.53406889"><ele>101.2</ele><time>2022-11-01T13:53:53.0000000+00:00</time></trkpt><trkpt lat="39.55476408" lon="-0.53400518"><ele>101.0</ele><time>2022-11-01T13:53:54.0000000+00:00</time></trkpt><trkpt lat="39.55474153" lon="-0.53394509"><ele>101.0</ele><time>2022-11-01T13:53:55.0000000+00:00</time></trkpt><trkpt lat="39.55472041" lon="-0.53388641"><ele>101.0</ele><time>2022-11-01T13:53:56.0000000+00:00</time></trkpt><trkpt lat="39.5546956" lon="-0.53383042"><ele>101.0</ele><time>2022-11-01T13:53:57.0000000+00:00</time></trkpt><trkpt lat="39.55467322" lon="-0.53377477"><ele>100.8</ele><time>2022-11-01T13:53:58.0000000+00:00</time></trkpt><trkpt lat="39.55465092" lon="-0.53371802"><ele>100.8</ele><time>2022-11-01T13:53:59.0000000+00:00</time></trkpt><trkpt lat="39.5546324" lon="-0.53366605"><ele>100.8</ele><time>2022-11-01T13:54:00.0000000+00:00</time></trkpt><trkpt lat="39.55460717" lon="-0.53359699"><ele>100.8</ele><time>2022-11-01T13:54:01.0000000+00:00</time></trkpt><trkpt lat="39.55458781" lon="-0.53354477"><ele>100.8</ele><time>2022-11-01T13:54:02.0000000+00:00</time></trkpt><trkpt lat="39.55457255" lon="-0.53349112"><ele>100.8</ele><time>2022-11-01T13:54:03.0000000+00:00</time></trkpt><trkpt lat="39.5545547" lon="-0.5334472"><ele>100.6</ele><time>2022-11-01T13:54:04.0000000+00:00</time></trkpt><trkpt lat="39.55454246" lon="-0.53341376"><ele>100.6</ele><time>2022-11-01T13:54:05.0000000+00:00</time></trkpt><trkpt lat="39.5545376" lon="-0.53339398"><ele>100.4</ele><time>2022-11-01T13:54:06.0000000+00:00</time></trkpt><trkpt lat="39.5545376" lon="-0.53336749"><ele>100.2</ele><time>2022-11-01T13:54:07.0000000+00:00</time></trkpt><trkpt lat="39.55455462" lon="-0.53334788"><ele>100.2</ele><time>2022-11-01T13:54:08.0000000+00:00</time></trkpt><trkpt lat="39.55457666" lon="-0.53333279"><ele>100.2</ele><time>2022-11-01T13:54:09.0000000+00:00</time></trkpt><trkpt lat="39.55460407" lon="-0.53331544"><ele>100.2</ele><time>2022-11-01T13:54:10.0000000+00:00</time></trkpt><trkpt lat="39.5546267" lon="-0.53329884"><ele>100.2</ele><time>2022-11-01T13:54:11.0000000+00:00</time></trkpt><trkpt lat="39.55464883" lon="-0.5332913"><ele>100.2</ele><time>2022-11-01T13:54:12.0000000+00:00</time></trkpt><trkpt lat="39.5546811" lon="-0.5332742"><ele>100.4</ele><time>2022-11-01T13:54:13.0000000+00:00</time></trkpt><trkpt lat="39.55470482" lon="-0.53326246"><ele>100.4</ele><time>2022-11-01T13:54:14.0000000+00:00</time></trkpt><trkpt lat="39.55472879" lon="-0.53325366"><ele>100.4</ele><time>2022-11-01T13:54:15.0000000+00:00</time></trkpt><trkpt lat="39.55475721" lon="-0.53324872"><ele>100.4</ele><time>2022-11-01T13:54:16.0000000+00:00</time></trkpt><trkpt lat="39.55477933" lon="-0.5332483"><ele>100.4</ele><time>2022-11-01T13:54:17.0000000+00:00</time></trkpt><trkpt lat="39.55480532" lon="-0.53324788"><ele>100.4</ele><time>2022-11-01T13:54:18.0000000+00:00</time></trkpt><trkpt lat="39.55483398" lon="-0.53324629"><ele>100.4</ele><time>2022-11-01T13:54:19.0000000+00:00</time></trkpt><trkpt lat="39.55486332" lon="-0.53325257"><ele>100.4</ele><time>2022-11-01T13:54:20.0000000+00:00</time></trkpt><trkpt lat="39.55489702" lon="-0.5332695"><ele>100.4</ele><time>2022-11-01T13:54:21.0000000+00:00</time></trkpt><trkpt lat="39.55493499" lon="-0.53328878"><ele>100.4</ele><time>2022-11-01T13:54:22.0000000+00:00</time></trkpt><trkpt lat="39.55497614" lon="-0.53331301"><ele>100.4</ele><time>2022-11-01T13:54:23.0000000+00:00</time></trkpt><trkpt lat="39.55501009" lon="-0.53334695"><ele>100.2</ele><time>2022-11-01T13:54:24.0000000+00:00</time></trkpt><trkpt lat="39.55503993" lon="-0.53338886"><ele>100.2</ele><time>2022-11-01T13:54:25.0000000+00:00</time></trkpt><trkpt lat="39.55507086" lon="-0.53344159"><ele>100.0</ele><time>2022-11-01T13:54:26.0000000+00:00</time></trkpt><trkpt lat="39.55510229" lon="-0.53350269"><ele>100.0</ele><time>2022-11-01T13:54:27.0000000+00:00</time></trkpt><trkpt lat="39.55513087" lon="-0.53355172"><ele>99.8</ele><time>2022-11-01T13:54:28.0000000+00:00</time></trkpt><trkpt lat="39.55515292" lon="-0.53359623"><ele>99.8</ele><time>2022-11-01T13:54:29.0000000+00:00</time></trkpt><trkpt lat="39.55517655" lon="-0.53363856"><ele>99.8</ele><time>2022-11-01T13:54:30.0000000+00:00</time></trkpt><trkpt lat="39.55520421" lon="-0.53367536"><ele>100.0</ele><time>2022-11-01T13:54:31.0000000+00:00</time></trkpt><trkpt lat="39.55523833" lon="-0.53369137"><ele>100.0</ele><time>2022-11-01T13:54:32.0000000+00:00</time></trkpt><trkpt lat="39.55526976" lon="-0.53369933"><ele>100.0</ele><time>2022-11-01T13:54:33.0000000+00:00</time></trkpt><trkpt lat="39.5552918" lon="-0.53370377"><ele>100.0</ele><time>2022-11-01T13:54:34.0000000+00:00</time></trkpt><trkpt lat="39.55532022" lon="-0.53371106"><ele>100.0</ele><time>2022-11-01T13:54:35.0000000+00:00</time></trkpt><trkpt lat="39.55534042" lon="-0.53371643"><ele>100.0</ele><time>2022-11-01T13:54:36.0000000+00:00</time></trkpt><trkpt lat="39.55535634" lon="-0.53372095"><ele>100.0</ele><time>2022-11-01T13:54:37.0000000+00:00</time></trkpt><trkpt lat="39.55536531" lon="-0.53372179"><ele>100.0</ele><time>2022-11-01T13:54:38.0000000+00:00</time></trkpt><trkpt lat="39.55536909" lon="-0.53372297"><ele>100.0</ele><time>2022-11-01T13:54:39.0000000+00:00</time></trkpt><trkpt lat="39.55536909" lon="-0.53372297"><ele>100.0</ele><time>2022-11-01T13:54:40.0000000+00:00</time></trkpt><trkpt lat="39.55536674" lon="-0.53372615"><ele>100.0</ele><time>2022-11-01T13:54:41.0000000+00:00</time></trkpt><trkpt lat="39.55535894" lon="-0.53372875"><ele>99.8</ele><time>2022-11-01T13:54:42.0000000+00:00</time></trkpt><trkpt lat="39.55535098" lon="-0.53372783"><ele>99.8</ele><time>2022-11-01T13:54:43.0000000+00:00</time></trkpt><trkpt lat="39.55534419" lon="-0.53372749"><ele>99.6</ele><time>2022-11-01T13:54:44.0000000+00:00</time></trkpt><trkpt lat="39.55534419" lon="-0.53372749"><ele>99.6</ele><time>2022-11-01T13:54:45.0000000+00:00</time></trkpt><trkpt lat="39.55534645" lon="-0.5337259"><ele>99.4</ele><time>2022-11-01T13:54:46.0000000+00:00</time></trkpt><trkpt lat="39.55534444" lon="-0.53371517"><ele>99.4</ele><time>2022-11-01T13:54:47.0000000+00:00</time></trkpt><trkpt lat="39.55533438" lon="-0.53370528"><ele>99.4</ele><time>2022-11-01T13:54:48.0000000+00:00</time></trkpt><trkpt lat="39.55532047" lon="-0.53370344"><ele>99.4</ele><time>2022-11-01T13:54:49.0000000+00:00</time></trkpt><trkpt lat="39.5553053" lon="-0.53370209"><ele>99.2</ele><time>2022-11-01T13:54:50.0000000+00:00</time></trkpt><trkpt lat="39.55528652" lon="-0.53369715"><ele>99.2</ele><time>2022-11-01T13:54:51.0000000+00:00</time></trkpt><trkpt lat="39.55526548" lon="-0.53369053"><ele>99.2</ele><time>2022-11-01T13:54:52.0000000+00:00</time></trkpt><trkpt lat="39.55524252" lon="-0.53367913"><ele>99.2</ele><time>2022-11-01T13:54:53.0000000+00:00</time></trkpt><trkpt lat="39.55521846" lon="-0.53365801"><ele>99.2</ele><time>2022-11-01T13:54:54.0000000+00:00</time></trkpt><trkpt lat="39.55519374" lon="-0.53362624"><ele>99.4</ele><time>2022-11-01T13:54:55.0000000+00:00</time></trkpt><trkpt lat="39.55517286" lon="-0.53358961"><ele>99.4</ele><time>2022-11-01T13:54:56.0000000+00:00</time></trkpt><trkpt lat="39.55515266" lon="-0.53355332"><ele>99.4</ele><time>2022-11-01T13:54:57.0000000+00:00</time></trkpt><trkpt lat="39.55513347" lon="-0.53351769"><ele>99.6</ele><time>2022-11-01T13:54:58.0000000+00:00</time></trkpt><trkpt lat="39.55511268" lon="-0.53348584"><ele>99.4</ele><time>2022-11-01T13:54:59.0000000+00:00</time></trkpt><trkpt lat="39.55509156" lon="-0.53345474"><ele>99.4</ele><time>2022-11-01T13:55:00.0000000+00:00</time></trkpt><trkpt lat="39.55506683" lon="-0.53342968"><ele>99.4</ele><time>2022-11-01T13:55:01.0000000+00:00</time></trkpt><trkpt lat="39.55504303" lon="-0.53340806"><ele>99.4</ele><time>2022-11-01T13:55:02.0000000+00:00</time></trkpt><trkpt lat="39.55502149" lon="-0.53338492"><ele>99.4</ele><time>2022-11-01T13:55:03.0000000+00:00</time></trkpt><trkpt lat="39.55500799" lon="-0.53336347"><ele>99.4</ele><time>2022-11-01T13:55:04.0000000+00:00</time></trkpt><trkpt lat="39.55500598" lon="-0.53333824"><ele>99.4</ele><time>2022-11-01T13:55:05.0000000+00:00</time></trkpt><trkpt lat="39.55500506" lon="-0.53331351"><ele>99.4</ele><time>2022-11-01T13:55:06.0000000+00:00</time></trkpt><trkpt lat="39.55500791" lon="-0.53328686"><ele>99.4</ele><time>2022-11-01T13:55:07.0000000+00:00</time></trkpt><trkpt lat="39.55501378" lon="-0.53325291"><ele>99.2</ele><time>2022-11-01T13:55:08.0000000+00:00</time></trkpt><trkpt lat="39.55503079" lon="-0.53320689"><ele>99.2</ele><time>2022-11-01T13:55:09.0000000+00:00</time></trkpt><trkpt lat="39.55504705" lon="-0.53315325"><ele>99.2</ele><time>2022-11-01T13:55:10.0000000+00:00</time></trkpt><trkpt lat="39.55506323" lon="-0.53309692"><ele>99.0</ele><time>2022-11-01T13:55:11.0000000+00:00</time></trkpt><trkpt lat="39.55508092" lon="-0.53304185"><ele>98.8</ele><time>2022-11-01T13:55:12.0000000+00:00</time></trkpt><trkpt lat="39.55510179" lon="-0.53298636"><ele>98.4</ele><time>2022-11-01T13:55:13.0000000+00:00</time></trkpt><trkpt lat="39.55512224" lon="-0.53293088"><ele>98.2</ele><time>2022-11-01T13:55:14.0000000+00:00</time></trkpt><trkpt lat="39.5551447" lon="-0.53287413"><ele>97.8</ele><time>2022-11-01T13:55:15.0000000+00:00</time></trkpt><trkpt lat="39.55516188" lon="-0.53281839"><ele>97.4</ele><time>2022-11-01T13:55:16.0000000+00:00</time></trkpt><trkpt lat="39.55517932" lon="-0.53276609"><ele>97.0</ele><time>2022-11-01T13:55:17.0000000+00:00</time></trkpt><trkpt lat="39.55519659" lon="-0.53271244"><ele>96.6</ele><time>2022-11-01T13:55:18.0000000+00:00</time></trkpt><trkpt lat="39.55520916" lon="-0.53266257"><ele>96.0</ele><time>2022-11-01T13:55:19.0000000+00:00</time></trkpt><trkpt lat="39.5552286" lon="-0.53261915"><ele>95.4</ele><time>2022-11-01T13:55:20.0000000+00:00</time></trkpt><trkpt lat="39.55525283" lon="-0.53258638"><ele>94.8</ele><time>2022-11-01T13:55:21.0000000+00:00</time></trkpt><trkpt lat="39.55528476" lon="-0.53255813"><ele>94.2</ele><time>2022-11-01T13:55:22.0000000+00:00</time></trkpt><trkpt lat="39.55530505" lon="-0.53253835"><ele>93.6</ele><time>2022-11-01T13:55:23.0000000+00:00</time></trkpt><trkpt lat="39.55532986" lon="-0.53252125"><ele>93.4</ele><time>2022-11-01T13:55:24.0000000+00:00</time></trkpt><trkpt lat="39.55535634" lon="-0.53250122"><ele>93.0</ele><time>2022-11-01T13:55:25.0000000+00:00</time></trkpt><trkpt lat="39.55538786" lon="-0.53248764"><ele>92.8</ele><time>2022-11-01T13:55:26.0000000+00:00</time></trkpt><trkpt lat="39.55542013" lon="-0.53246367"><ele>92.6</ele><time>2022-11-01T13:55:27.0000000+00:00</time></trkpt><trkpt lat="39.55544964" lon="-0.53243584"><ele>92.6</ele><time>2022-11-01T13:55:28.0000000+00:00</time></trkpt><trkpt lat="39.55548191" lon="-0.5324143"><ele>92.4</ele><time>2022-11-01T13:55:29.0000000+00:00</time></trkpt><trkpt lat="39.5555094" lon="-0.5323889"><ele>92.4</ele><time>2022-11-01T13:55:30.0000000+00:00</time></trkpt><trkpt lat="39.5555384" lon="-0.53236233"><ele>92.4</ele><time>2022-11-01T13:55:31.0000000+00:00</time></trkpt><trkpt lat="39.55556698" lon="-0.53233434"><ele>92.4</ele><time>2022-11-01T13:55:32.0000000+00:00</time></trkpt><trkpt lat="39.55559364" lon="-0.53230743"><ele>92.0</ele><time>2022-11-01T13:55:33.0000000+00:00</time></trkpt><trkpt lat="39.55561794" lon="-0.53228991"><ele>91.8</ele><time>2022-11-01T13:55:34.0000000+00:00</time></trkpt><trkpt lat="39.55563689" lon="-0.53228312"><ele>91.8</ele><time>2022-11-01T13:55:35.0000000+00:00</time></trkpt><trkpt lat="39.55564611" lon="-0.5322822"><ele>91.6</ele><time>2022-11-01T13:55:36.0000000+00:00</time></trkpt><trkpt lat="39.55564611" lon="-0.5322822"><ele>91.6</ele><time>2022-11-01T13:55:37.0000000+00:00</time></trkpt><trkpt lat="39.55564611" lon="-0.5322822"><ele>91.6</ele><time>2022-11-01T13:55:38.0000000+00:00</time></trkpt><trkpt lat="39.55564611" lon="-0.5322822"><ele>91.6</ele><time>2022-11-01T13:55:39.0000000+00:00</time></trkpt><trkpt lat="39.55564611" lon="-0.5322822"><ele>91.6</ele><time>2022-11-01T13:55:40.0000000+00:00</time></trkpt><trkpt lat="39.55564611" lon="-0.5322822"><ele>91.6</ele><time>2022-11-01T13:55:41.0000000+00:00</time></trkpt><trkpt lat="39.55564602" lon="-0.53228036"><ele>91.6</ele><time>2022-11-01T13:55:42.0000000+00:00</time></trkpt><trkpt lat="39.55565105" lon="-0.53227499"><ele>91.4</ele><time>2022-11-01T13:55:43.0000000+00:00</time></trkpt><trkpt lat="39.55566136" lon="-0.53226309"><ele>91.4</ele><time>2022-11-01T13:55:44.0000000+00:00</time></trkpt><trkpt lat="39.55567159" lon="-0.53224976"><ele>91.4</ele><time>2022-11-01T13:55:45.0000000+00:00</time></trkpt><trkpt lat="39.55568031" lon="-0.53223392"><ele>91.4</ele><time>2022-11-01T13:55:46.0000000+00:00</time></trkpt><trkpt lat="39.55568609" lon="-0.53221825"><ele>91.4</ele><time>2022-11-01T13:55:47.0000000+00:00</time></trkpt><trkpt lat="39.55569196" lon="-0.53219914"><ele>91.4</ele><time>2022-11-01T13:55:48.0000000+00:00</time></trkpt><trkpt lat="39.5556964" lon="-0.53217919"><ele>91.4</ele><time>2022-11-01T13:55:49.0000000+00:00</time></trkpt><trkpt lat="39.55570336" lon="-0.53216276"><ele>91.6</ele><time>2022-11-01T13:55:50.0000000+00:00</time></trkpt><trkpt lat="39.55571232" lon="-0.53214583"><ele>91.6</ele><time>2022-11-01T13:55:51.0000000+00:00</time></trkpt><trkpt lat="39.55572481" lon="-0.53212747"><ele>91.6</ele><time>2022-11-01T13:55:52.0000000+00:00</time></trkpt><trkpt lat="39.55573873" lon="-0.5321118"><ele>91.6</ele><time>2022-11-01T13:55:53.0000000+00:00</time></trkpt><trkpt lat="39.55575432" lon="-0.53209411"><ele>91.8</ele><time>2022-11-01T13:55:54.0000000+00:00</time></trkpt><trkpt lat="39.55577284" lon="-0.53207014"><ele>91.8</ele><time>2022-11-01T13:55:55.0000000+00:00</time></trkpt><trkpt lat="39.55578919" lon="-0.53204491"><ele>91.8</ele><time>2022-11-01T13:55:56.0000000+00:00</time></trkpt><trkpt lat="39.55580503" lon="-0.53201607"><ele>92.0</ele><time>2022-11-01T13:55:57.0000000+00:00</time></trkpt><trkpt lat="39.55581215" lon="-0.53200015"><ele>92.0</ele><time>2022-11-01T13:55:58.0000000+00:00</time></trkpt><trkpt lat="39.5558207" lon="-0.53197626"><ele>92.2</ele><time>2022-11-01T13:56:00.0000000+00:00</time></trkpt><trkpt lat="39.55583294" lon="-0.53196587"><ele>92.2</ele><time>2022-11-01T13:56:01.0000000+00:00</time></trkpt><trkpt lat="39.55588047" lon="-0.53189999"><ele>92.2</ele><time>2022-11-01T13:56:03.0000000+00:00</time></trkpt><trkpt lat="39.55590519" lon="-0.53189253"><ele>92.2</ele><time>2022-11-01T13:56:04.0000000+00:00</time></trkpt><trkpt lat="39.5559103" lon="-0.53189705"><ele>92.2</ele><time>2022-11-01T13:56:05.0000000+00:00</time></trkpt><trkpt lat="39.55592112" lon="-0.53190661"><ele>92.4</ele><time>2022-11-01T13:56:06.0000000+00:00</time></trkpt><trkpt lat="39.55593562" lon="-0.53191423"><ele>92.6</ele><time>2022-11-01T13:56:07.0000000+00:00</time></trkpt><trkpt lat="39.55595272" lon="-0.53192555"><ele>92.6</ele><time>2022-11-01T13:56:08.0000000+00:00</time></trkpt><trkpt lat="39.55596671" lon="-0.5319315"><ele>92.6</ele><time>2022-11-01T13:56:09.0000000+00:00</time></trkpt><trkpt lat="39.5559782" lon="-0.53193385"><ele>92.8</ele><time>2022-11-01T13:56:10.0000000+00:00</time></trkpt><trkpt lat="39.55598926" lon="-0.53193133"><ele>93.0</ele><time>2022-11-01T13:56:11.0000000+00:00</time></trkpt><trkpt lat="39.55600326" lon="-0.53193804"><ele>93.2</ele><time>2022-11-01T13:56:12.0000000+00:00</time></trkpt><trkpt lat="39.55601726" lon="-0.53195011"><ele>93.2</ele><time>2022-11-01T13:56:13.0000000+00:00</time></trkpt><trkpt lat="39.55603025" lon="-0.53196402"><ele>93.4</ele><time>2022-11-01T13:56:14.0000000+00:00</time></trkpt><trkpt lat="39.55603662" lon="-0.53197366"><ele>93.6</ele><time>2022-11-01T13:56:15.0000000+00:00</time></trkpt><trkpt lat="39.5560445" lon="-0.53198179"><ele>93.6</ele><time>2022-11-01T13:56:16.0000000+00:00</time></trkpt><trkpt lat="39.55604794" lon="-0.53198397"><ele>93.6</ele><time>2022-11-01T13:56:17.0000000+00:00</time></trkpt><trkpt lat="39.55604794" lon="-0.53198397"><ele>93.8</ele><time>2022-11-01T13:56:18.0000000+00:00</time></trkpt><trkpt lat="39.55604794" lon="-0.53198397"><ele>93.8</ele><time>2022-11-01T13:56:19.0000000+00:00</time></trkpt><trkpt lat="39.55604794" lon="-0.53198397"><ele>94.0</ele><time>2022-11-01T13:56:20.0000000+00:00</time></trkpt><trkpt lat="39.55604794" lon="-0.53198397"><ele>94.0</ele><time>2022-11-01T13:56:21.0000000+00:00</time></trkpt><trkpt lat="39.55604794" lon="-0.53198397"><ele>94.0</ele><time>2022-11-01T13:56:22.0000000+00:00</time></trkpt><trkpt lat="39.55604794" lon="-0.53198397"><ele>94.2</ele><time>2022-11-01T13:56:23.0000000+00:00</time></trkpt><trkpt lat="39.55604794" lon="-0.53198397"><ele>94.2</ele><time>2022-11-01T13:56:24.0000000+00:00</time></trkpt><trkpt lat="39.55604794" lon="-0.53198397"><ele>94.2</ele><time>2022-11-01T13:56:25.0000000+00:00</time></trkpt><trkpt lat="39.55604794" lon="-0.53198397"><ele>94.2</ele><time>2022-11-01T13:56:26.0000000+00:00</time></trkpt><trkpt lat="39.55604794" lon="-0.53198397"><ele>94.2</ele><time>2022-11-01T13:56:27.0000000+00:00</time></trkpt><trkpt lat="39.55604794" lon="-0.53198397"><ele>94.2</ele><time>2022-11-01T13:56:28.0000000+00:00</time></trkpt><trkpt lat="39.55604794" lon="-0.53198397"><ele>94.2</ele><time>2022-11-01T13:56:29.0000000+00:00</time></trkpt><trkpt lat="39.55604735" lon="-0.53198498"><ele>94.2</ele><time>2022-11-01T13:56:30.0000000+00:00</time></trkpt><trkpt lat="39.55604609" lon="-0.53198112"><ele>94.0</ele><time>2022-11-01T13:56:31.0000000+00:00</time></trkpt><trkpt lat="39.55604609" lon="-0.53198112"><ele>94.0</ele><time>2022-11-01T13:56:32.0000000+00:00</time></trkpt><trkpt lat="39.55604609" lon="-0.53198112"><ele>94.0</ele><time>2022-11-01T13:56:33.0000000+00:00</time></trkpt><trkpt lat="39.55604609" lon="-0.53198112"><ele>94.0</ele><time>2022-11-01T13:56:34.0000000+00:00</time></trkpt><trkpt lat="39.55604609" lon="-0.53198112"><ele>94.0</ele><time>2022-11-01T13:56:35.0000000+00:00</time></trkpt><trkpt lat="39.55604609" lon="-0.53198112"><ele>94.0</ele><time>2022-11-01T13:56:36.0000000+00:00</time></trkpt><trkpt lat="39.55604265" lon="-0.53198498"><ele>94.0</ele><time>2022-11-01T13:56:37.0000000+00:00</time></trkpt><trkpt lat="39.55602774" lon="-0.53197693"><ele>94.0</ele><time>2022-11-01T13:56:38.0000000+00:00</time></trkpt><trkpt lat="39.55601332" lon="-0.53196453"><ele>94.0</ele><time>2022-11-01T13:56:39.0000000+00:00</time></trkpt><trkpt lat="39.55600007" lon="-0.53195614"><ele>94.2</ele><time>2022-11-01T13:56:40.0000000+00:00</time></trkpt><trkpt lat="39.55598407" lon="-0.53194516"><ele>94.2</ele><time>2022-11-01T13:56:41.0000000+00:00</time></trkpt><trkpt lat="39.55597015" lon="-0.53192723"><ele>94.4</ele><time>2022-11-01T13:56:42.0000000+00:00</time></trkpt><trkpt lat="39.55595699" lon="-0.53190887"><ele>94.6</ele><time>2022-11-01T13:56:43.0000000+00:00</time></trkpt><trkpt lat="39.55594073" lon="-0.53189009"><ele>94.8</ele><time>2022-11-01T13:56:44.0000000+00:00</time></trkpt><trkpt lat="39.55592405" lon="-0.53187442"><ele>95.0</ele><time>2022-11-01T13:56:45.0000000+00:00</time></trkpt><trkpt lat="39.5559036" lon="-0.53186118"><ele>95.0</ele><time>2022-11-01T13:56:46.0000000+00:00</time></trkpt><trkpt lat="39.55588256" lon="-0.53184877"><ele>95.2</ele><time>2022-11-01T13:56:47.0000000+00:00</time></trkpt><trkpt lat="39.55586345" lon="-0.53183653"><ele>95.4</ele><time>2022-11-01T13:56:48.0000000+00:00</time></trkpt><trkpt lat="39.55584568" lon="-0.53182991"><ele>95.6</ele><time>2022-11-01T13:56:49.0000000+00:00</time></trkpt><trkpt lat="39.5558285" lon="-0.53182262"><ele>95.8</ele><time>2022-11-01T13:56:50.0000000+00:00</time></trkpt><trkpt lat="39.55581349" lon="-0.53181424"><ele>95.8</ele><time>2022-11-01T13:56:51.0000000+00:00</time></trkpt><trkpt lat="39.55580478" lon="-0.53180904"><ele>96.0</ele><time>2022-11-01T13:56:52.0000000+00:00</time></trkpt><trkpt lat="39.55580075" lon="-0.5318082"><ele>96.0</ele><time>2022-11-01T13:56:53.0000000+00:00</time></trkpt><trkpt lat="39.55580075" lon="-0.5318082"><ele>96.0</ele><time>2022-11-01T13:56:54.0000000+00:00</time></trkpt><trkpt lat="39.55580075" lon="-0.5318082"><ele>96.0</ele><time>2022-11-01T13:56:55.0000000+00:00</time></trkpt><trkpt lat="39.55580075" lon="-0.5318082"><ele>96.0</ele><time>2022-11-01T13:56:56.0000000+00:00</time></trkpt><trkpt lat="39.55580075" lon="-0.5318082"><ele>96.0</ele><time>2022-11-01T13:56:57.0000000+00:00</time></trkpt><trkpt lat="39.55580075" lon="-0.5318082"><ele>96.0</ele><time>2022-11-01T13:56:58.0000000+00:00</time></trkpt><trkpt lat="39.55580075" lon="-0.5318082"><ele>96.0</ele><time>2022-11-01T13:56:59.0000000+00:00</time></trkpt><trkpt lat="39.55580075" lon="-0.5318082"><ele>95.8</ele><time>2022-11-01T13:57:00.0000000+00:00</time></trkpt><trkpt lat="39.55580075" lon="-0.5318082"><ele>95.8</ele><time>2022-11-01T13:57:01.0000000+00:00</time></trkpt><trkpt lat="39.55580075" lon="-0.5318082"><ele>95.8</ele><time>2022-11-01T13:57:02.0000000+00:00</time></trkpt><trkpt lat="39.55580075" lon="-0.5318082"><ele>95.8</ele><time>2022-11-01T13:57:03.0000000+00:00</time></trkpt><trkpt lat="39.55580075" lon="-0.5318082"><ele>95.8</ele><time>2022-11-01T13:57:04.0000000+00:00</time></trkpt><trkpt lat="39.55580075" lon="-0.5318082"><ele>95.8</ele><time>2022-11-01T13:57:05.0000000+00:00</time></trkpt><trkpt lat="39.55580075" lon="-0.5318082"><ele>95.8</ele><time>2022-11-01T13:57:06.0000000+00:00</time></trkpt><trkpt lat="39.55579698" lon="-0.53180376"><ele>95.8</ele><time>2022-11-01T13:57:07.0000000+00:00</time></trkpt><trkpt lat="39.55578734" lon="-0.53179823"><ele>95.8</ele><time>2022-11-01T13:57:08.0000000+00:00</time></trkpt><trkpt lat="39.55577552" lon="-0.5317937"><ele>95.8</ele><time>2022-11-01T13:57:09.0000000+00:00</time></trkpt><trkpt lat="39.55576438" lon="-0.5317839"><ele>95.8</ele><time>2022-11-01T13:57:10.0000000+00:00</time></trkpt><trkpt lat="39.55576211" lon="-0.53177057"><ele>95.8</ele><time>2022-11-01T13:57:11.0000000+00:00</time></trkpt><trkpt lat="39.55577066" lon="-0.53175976"><ele>95.8</ele><time>2022-11-01T13:57:12.0000000+00:00</time></trkpt><trkpt lat="39.55578206" lon="-0.53175808"><ele>95.8</ele><time>2022-11-01T13:57:13.0000000+00:00</time></trkpt><trkpt lat="39.55579639" lon="-0.53176889"><ele>95.8</ele><time>2022-11-01T13:57:14.0000000+00:00</time></trkpt><trkpt lat="39.55581224" lon="-0.53178809"><ele>95.8</ele><time>2022-11-01T13:57:15.0000000+00:00</time></trkpt><trkpt lat="39.55583378" lon="-0.53181156"><ele>95.8</ele><time>2022-11-01T13:57:16.0000000+00:00</time></trkpt><trkpt lat="39.5558549" lon="-0.53183997"><ele>95.8</ele><time>2022-11-01T13:57:17.0000000+00:00</time></trkpt><trkpt lat="39.55587678" lon="-0.53186797"><ele>95.8</ele><time>2022-11-01T13:57:18.0000000+00:00</time></trkpt><trkpt lat="39.55590528" lon="-0.53189261"><ele>95.8</ele><time>2022-11-01T13:57:19.0000000+00:00</time></trkpt><trkpt lat="39.55593796" lon="-0.5319113"><ele>95.8</ele><time>2022-11-01T13:57:20.0000000+00:00</time></trkpt><trkpt lat="39.55596965" lon="-0.53193578"><ele>96.0</ele><time>2022-11-01T13:57:21.0000000+00:00</time></trkpt><trkpt lat="39.55600024" lon="-0.53196168"><ele>96.0</ele><time>2022-11-01T13:57:22.0000000+00:00</time></trkpt><trkpt lat="39.55603075" lon="-0.53198448"><ele>96.0</ele><time>2022-11-01T13:57:23.0000000+00:00</time></trkpt><trkpt lat="39.55606143" lon="-0.53200535"><ele>96.0</ele><time>2022-11-01T13:57:24.0000000+00:00</time></trkpt><trkpt lat="39.55609521" lon="-0.53202521"><ele>96.0</ele><time>2022-11-01T13:57:25.0000000+00:00</time></trkpt><trkpt lat="39.55612815" lon="-0.53204952"><ele>96.0</ele><time>2022-11-01T13:57:26.0000000+00:00</time></trkpt><trkpt lat="39.55616629" lon="-0.53207751"><ele>96.2</ele><time>2022-11-01T13:57:27.0000000+00:00</time></trkpt><trkpt lat="39.55620518" lon="-0.53210652"><ele>96.2</ele><time>2022-11-01T13:57:28.0000000+00:00</time></trkpt><trkpt lat="39.5562429" lon="-0.53213929"><ele>96.2</ele><time>2022-11-01T13:57:29.0000000+00:00</time></trkpt><trkpt lat="39.55627852" lon="-0.53216142"><ele>96.2</ele><time>2022-11-01T13:57:30.0000000+00:00</time></trkpt><trkpt lat="39.55630534" lon="-0.53216569"><ele>96.2</ele><time>2022-11-01T13:57:31.0000000+00:00</time></trkpt><trkpt lat="39.55632228" lon="-0.5321584"><ele>96.4</ele><time>2022-11-01T13:57:32.0000000+00:00</time></trkpt><trkpt lat="39.55633242" lon="-0.5321496"><ele>96.4</ele><time>2022-11-01T13:57:33.0000000+00:00</time></trkpt><trkpt lat="39.55633745" lon="-0.53214113"><ele>96.4</ele><time>2022-11-01T13:57:34.0000000+00:00</time></trkpt><trkpt lat="39.55634591" lon="-0.53213527"><ele>96.4</ele><time>2022-11-01T13:57:35.0000000+00:00</time></trkpt><trkpt lat="39.55635689" lon="-0.53212009"><ele>96.4</ele><time>2022-11-01T13:57:36.0000000+00:00</time></trkpt><trkpt lat="39.55636569" lon="-0.532103"><ele>96.6</ele><time>2022-11-01T13:57:37.0000000+00:00</time></trkpt><trkpt lat="39.55636703" lon="-0.53209143"><ele>96.6</ele><time>2022-11-01T13:57:38.0000000+00:00</time></trkpt><trkpt lat="39.55637416" lon="-0.53207098"><ele>96.6</ele><time>2022-11-01T13:57:39.0000000+00:00</time></trkpt><trkpt lat="39.5563817" lon="-0.53205354"><ele>96.8</ele><time>2022-11-01T13:57:40.0000000+00:00</time></trkpt><trkpt lat="39.55638589" lon="-0.5320372"><ele>96.8</ele><time>2022-11-01T13:57:41.0000000+00:00</time></trkpt><trkpt lat="39.55638983" lon="-0.53201398"><ele>96.8</ele><time>2022-11-01T13:57:42.0000000+00:00</time></trkpt><trkpt lat="39.55639545" lon="-0.53198674"><ele>97.0</ele><time>2022-11-01T13:57:43.0000000+00:00</time></trkpt><trkpt lat="39.55641657" lon="-0.53195296"><ele>97.0</ele><time>2022-11-01T13:57:44.0000000+00:00</time></trkpt><trkpt lat="39.55643158" lon="-0.53192815"><ele>97.2</ele><time>2022-11-01T13:57:45.0000000+00:00</time></trkpt><trkpt lat="39.55645069" lon="-0.53189303"><ele>97.4</ele><time>2022-11-01T13:57:46.0000000+00:00</time></trkpt><trkpt lat="39.55646653" lon="-0.53186126"><ele>97.6</ele><time>2022-11-01T13:57:47.0000000+00:00</time></trkpt><trkpt lat="39.5564796" lon="-0.53182748"><ele>97.6</ele><time>2022-11-01T13:57:48.0000000+00:00</time></trkpt><trkpt lat="39.55649176" lon="-0.53179278"><ele>97.8</ele><time>2022-11-01T13:57:49.0000000+00:00</time></trkpt><trkpt lat="39.5565045" lon="-0.53175934"><ele>98.0</ele><time>2022-11-01T13:57:50.0000000+00:00</time></trkpt><trkpt lat="39.55651917" lon="-0.53173184"><ele>98.0</ele><time>2022-11-01T13:57:51.0000000+00:00</time></trkpt><trkpt lat="39.55653249" lon="-0.53171122"><ele>98.0</ele><time>2022-11-01T13:57:52.0000000+00:00</time></trkpt><trkpt lat="39.55654859" lon="-0.53169723"><ele>98.0</ele><time>2022-11-01T13:57:53.0000000+00:00</time></trkpt><trkpt lat="39.55656636" lon="-0.5316932"><ele>98.0</ele><time>2022-11-01T13:57:54.0000000+00:00</time></trkpt><trkpt lat="39.55657826" lon="-0.53169597"><ele>98.0</ele><time>2022-11-01T13:57:55.0000000+00:00</time></trkpt><trkpt lat="39.55659343" lon="-0.53170209"><ele>98.0</ele><time>2022-11-01T13:57:56.0000000+00:00</time></trkpt><trkpt lat="39.55662025" lon="-0.53171324"><ele>98.0</ele><time>2022-11-01T13:57:57.0000000+00:00</time></trkpt><trkpt lat="39.55664054" lon="-0.53172422"><ele>98.0</ele><time>2022-11-01T13:57:58.0000000+00:00</time></trkpt><trkpt lat="39.55666434" lon="-0.53173847"><ele>98.0</ele><time>2022-11-01T13:57:59.0000000+00:00</time></trkpt><trkpt lat="39.55669175" lon="-0.53175112"><ele>98.0</ele><time>2022-11-01T13:58:00.0000000+00:00</time></trkpt><trkpt lat="39.55672092" lon="-0.53176219"><ele>98.0</ele><time>2022-11-01T13:58:01.0000000+00:00</time></trkpt><trkpt lat="39.55675009" lon="-0.5317751"><ele>98.0</ele><time>2022-11-01T13:58:02.0000000+00:00</time></trkpt><trkpt lat="39.55677909" lon="-0.53178825"><ele>98.0</ele><time>2022-11-01T13:58:03.0000000+00:00</time></trkpt><trkpt lat="39.55680734" lon="-0.53181105"><ele>98.0</ele><time>2022-11-01T13:58:04.0000000+00:00</time></trkpt><trkpt lat="39.55683684" lon="-0.53183511"><ele>98.0</ele><time>2022-11-01T13:58:05.0000000+00:00</time></trkpt><trkpt lat="39.55686257" lon="-0.53186009"><ele>98.2</ele><time>2022-11-01T13:58:06.0000000+00:00</time></trkpt><trkpt lat="39.55689149" lon="-0.53188289"><ele>98.2</ele><time>2022-11-01T13:58:07.0000000+00:00</time></trkpt><trkpt lat="39.55692091" lon="-0.53190636"><ele>98.2</ele><time>2022-11-01T13:58:08.0000000+00:00</time></trkpt><trkpt lat="39.55695544" lon="-0.53192765"><ele>98.2</ele><time>2022-11-01T13:58:09.0000000+00:00</time></trkpt><trkpt lat="39.55698855" lon="-0.53195204"><ele>98.4</ele><time>2022-11-01T13:58:10.0000000+00:00</time></trkpt><trkpt lat="39.55701982" lon="-0.53197718"><ele>98.4</ele><time>2022-11-01T13:58:11.0000000+00:00</time></trkpt><trkpt lat="39.55705494" lon="-0.53200392"><ele>98.4</ele><time>2022-11-01T13:58:12.0000000+00:00</time></trkpt><trkpt lat="39.55708955" lon="-0.53202555"><ele>98.4</ele><time>2022-11-01T13:58:13.0000000+00:00</time></trkpt><trkpt lat="39.55712677" lon="-0.53205111"><ele>98.6</ele><time>2022-11-01T13:58:14.0000000+00:00</time></trkpt><trkpt lat="39.55716097" lon="-0.53207525"><ele>98.6</ele><time>2022-11-01T13:58:15.0000000+00:00</time></trkpt><trkpt lat="39.55719852" lon="-0.53209763"><ele>98.6</ele><time>2022-11-01T13:58:16.0000000+00:00</time></trkpt><trkpt lat="39.55723858" lon="-0.53212118"><ele>98.6</ele><time>2022-11-01T13:58:17.0000000+00:00</time></trkpt><trkpt lat="39.55727697" lon="-0.53214524"><ele>98.6</ele><time>2022-11-01T13:58:18.0000000+00:00</time></trkpt><trkpt lat="39.55731427" lon="-0.53217231"><ele>98.8</ele><time>2022-11-01T13:58:19.0000000+00:00</time></trkpt><trkpt lat="39.55735275" lon="-0.53219947"><ele>98.8</ele><time>2022-11-01T13:58:20.0000000+00:00</time></trkpt><trkpt lat="39.55739063" lon="-0.53222453"><ele>98.8</ele><time>2022-11-01T13:58:21.0000000+00:00</time></trkpt><trkpt lat="39.55742743" lon="-0.53224624"><ele>98.8</ele><time>2022-11-01T13:58:22.0000000+00:00</time></trkpt><trkpt lat="39.55746473" lon="-0.53227139"><ele>98.8</ele><time>2022-11-01T13:58:23.0000000+00:00</time></trkpt><trkpt lat="39.55750295" lon="-0.53229435"><ele>98.8</ele><time>2022-11-01T13:58:24.0000000+00:00</time></trkpt><trkpt lat="39.5575312" lon="-0.53230969"><ele>99.0</ele><time>2022-11-01T13:58:25.0000000+00:00</time></trkpt><trkpt lat="39.55756816" lon="-0.53232973"><ele>99.0</ele><time>2022-11-01T13:58:26.0000000+00:00</time></trkpt><trkpt lat="39.557598" lon="-0.53234976"><ele>99.0</ele><time>2022-11-01T13:58:27.0000000+00:00</time></trkpt><trkpt lat="39.55762968" lon="-0.5323708"><ele>99.0</ele><time>2022-11-01T13:58:28.0000000+00:00</time></trkpt><trkpt lat="39.55766019" lon="-0.53239309"><ele>99.0</ele><time>2022-11-01T13:58:29.0000000+00:00</time></trkpt><trkpt lat="39.55769448" lon="-0.53241313"><ele>99.0</ele><time>2022-11-01T13:58:30.0000000+00:00</time></trkpt><trkpt lat="39.5577301" lon="-0.53243182"><ele>99.0</ele><time>2022-11-01T13:58:31.0000000+00:00</time></trkpt><trkpt lat="39.55776698" lon="-0.53245051"><ele>99.0</ele><time>2022-11-01T13:58:32.0000000+00:00</time></trkpt><trkpt lat="39.55780336" lon="-0.53246903"><ele>99.0</ele><time>2022-11-01T13:58:33.0000000+00:00</time></trkpt><trkpt lat="39.55784066" lon="-0.53249016"><ele>99.0</ele><time>2022-11-01T13:58:34.0000000+00:00</time></trkpt><trkpt lat="39.55787771" lon="-0.53251346"><ele>99.0</ele><time>2022-11-01T13:58:35.0000000+00:00</time></trkpt><trkpt lat="39.55791752" lon="-0.53254221"><ele>99.0</ele><time>2022-11-01T13:58:36.0000000+00:00</time></trkpt><trkpt lat="39.55795834" lon="-0.53256987"><ele>99.0</ele><time>2022-11-01T13:58:37.0000000+00:00</time></trkpt><trkpt lat="39.55799572" lon="-0.53259401"><ele>99.0</ele><time>2022-11-01T13:58:38.0000000+00:00</time></trkpt><trkpt lat="39.55803503" lon="-0.53261873"><ele>99.0</ele><time>2022-11-01T13:58:39.0000000+00:00</time></trkpt><trkpt lat="39.5580761" lon="-0.5326453"><ele>99.0</ele><time>2022-11-01T13:58:40.0000000+00:00</time></trkpt><trkpt lat="39.5581155" lon="-0.53267246"><ele>99.0</ele><time>2022-11-01T13:58:41.0000000+00:00</time></trkpt><trkpt lat="39.55815196" lon="-0.53269769"><ele>99.0</ele><time>2022-11-01T13:58:42.0000000+00:00</time></trkpt><trkpt lat="39.55818188" lon="-0.5327173"><ele>99.0</ele><time>2022-11-01T13:58:43.0000000+00:00</time></trkpt><trkpt lat="39.55820837" lon="-0.53273315"><ele>99.0</ele><time>2022-11-01T13:58:44.0000000+00:00</time></trkpt><trkpt lat="39.5582341" lon="-0.53275117"><ele>99.0</ele><time>2022-11-01T13:58:45.0000000+00:00</time></trkpt><trkpt lat="39.55826302" lon="-0.53277137"><ele>99.2</ele><time>2022-11-01T13:58:46.0000000+00:00</time></trkpt><trkpt lat="39.55829387" lon="-0.53279182"><ele>99.2</ele><time>2022-11-01T13:58:47.0000000+00:00</time></trkpt><trkpt lat="39.55832848" lon="-0.53281143"><ele>99.2</ele><time>2022-11-01T13:58:48.0000000+00:00</time></trkpt><trkpt lat="39.55836746" lon="-0.53283339"><ele>99.2</ele><time>2022-11-01T13:58:49.0000000+00:00</time></trkpt><trkpt lat="39.55840551" lon="-0.5328551"><ele>99.2</ele><time>2022-11-01T13:58:50.0000000+00:00</time></trkpt><trkpt lat="39.55844357" lon="-0.53287304"><ele>99.2</ele><time>2022-11-01T13:58:51.0000000+00:00</time></trkpt><trkpt lat="39.55848187" lon="-0.53289006"><ele>99.2</ele><time>2022-11-01T13:58:52.0000000+00:00</time></trkpt><trkpt lat="39.55851892" lon="-0.53290481"><ele>99.4</ele><time>2022-11-01T13:58:53.0000000+00:00</time></trkpt><trkpt lat="39.55855588" lon="-0.53291931"><ele>99.6</ele><time>2022-11-01T13:58:54.0000000+00:00</time></trkpt><trkpt lat="39.55859394" lon="-0.53293138"><ele>99.6</ele><time>2022-11-01T13:58:55.0000000+00:00</time></trkpt><trkpt lat="39.55863224" lon="-0.53294228"><ele>99.6</ele><time>2022-11-01T13:58:56.0000000+00:00</time></trkpt><trkpt lat="39.55867474" lon="-0.53295217"><ele>99.8</ele><time>2022-11-01T13:58:57.0000000+00:00</time></trkpt><trkpt lat="39.55872201" lon="-0.53296239"><ele>100.0</ele><time>2022-11-01T13:58:58.0000000+00:00</time></trkpt><trkpt lat="39.55876954" lon="-0.53297044"><ele>100.0</ele><time>2022-11-01T13:58:59.0000000+00:00</time></trkpt><trkpt lat="39.55881723" lon="-0.53297731"><ele>100.0</ele><time>2022-11-01T13:59:00.0000000+00:00</time></trkpt><trkpt lat="39.55886426" lon="-0.53298117"><ele>100.0</ele><time>2022-11-01T13:59:01.0000000+00:00</time></trkpt><trkpt lat="39.55890901" lon="-0.53297681"><ele>100.2</ele><time>2022-11-01T13:59:02.0000000+00:00</time></trkpt><trkpt lat="39.55895595" lon="-0.53297329"><ele>100.2</ele><time>2022-11-01T13:59:03.0000000+00:00</time></trkpt><trkpt lat="39.55899753" lon="-0.53297178"><ele>100.2</ele><time>2022-11-01T13:59:04.0000000+00:00</time></trkpt><trkpt lat="39.55903709" lon="-0.53297086"><ele>100.4</ele><time>2022-11-01T13:59:05.0000000+00:00</time></trkpt><trkpt lat="39.55907665" lon="-0.53296658"><ele>100.4</ele><time>2022-11-01T13:59:06.0000000+00:00</time></trkpt><trkpt lat="39.55911789" lon="-0.53295594"><ele>100.4</ele><time>2022-11-01T13:59:07.0000000+00:00</time></trkpt><trkpt lat="39.55915905" lon="-0.53293917"><ele>100.6</ele><time>2022-11-01T13:59:08.0000000+00:00</time></trkpt><trkpt lat="39.55920372" lon="-0.53292015"><ele>100.6</ele><time>2022-11-01T13:59:09.0000000+00:00</time></trkpt><trkpt lat="39.55924932" lon="-0.53289718"><ele>100.6</ele><time>2022-11-01T13:59:10.0000000+00:00</time></trkpt><trkpt lat="39.55929282" lon="-0.5328743"><ele>100.8</ele><time>2022-11-01T13:59:11.0000000+00:00</time></trkpt><trkpt lat="39.55933473" lon="-0.53284697"><ele>100.8</ele><time>2022-11-01T13:59:12.0000000+00:00</time></trkpt><trkpt lat="39.55937857" lon="-0.53281655"><ele>100.8</ele><time>2022-11-01T13:59:13.0000000+00:00</time></trkpt><trkpt lat="39.55941922" lon="-0.5327857"><ele>100.8</ele><time>2022-11-01T13:59:14.0000000+00:00</time></trkpt><trkpt lat="39.55945367" lon="-0.53275125"><ele>101.0</ele><time>2022-11-01T13:59:15.0000000+00:00</time></trkpt><trkpt lat="39.55949231" lon="-0.53271689"><ele>101.0</ele><time>2022-11-01T13:59:16.0000000+00:00</time></trkpt><trkpt lat="39.55953087" lon="-0.53268193"><ele>101.0</ele><time>2022-11-01T13:59:17.0000000+00:00</time></trkpt><trkpt lat="39.559568" lon="-0.53263885"><ele>101.2</ele><time>2022-11-01T13:59:18.0000000+00:00</time></trkpt><trkpt lat="39.55960555" lon="-0.53259082"><ele>101.2</ele><time>2022-11-01T13:59:19.0000000+00:00</time></trkpt><trkpt lat="39.55963774" lon="-0.53254816"><ele>101.2</ele><time>2022-11-01T13:59:20.0000000+00:00</time></trkpt><trkpt lat="39.55966624" lon="-0.5325065"><ele>101.4</ele><time>2022-11-01T13:59:21.0000000+00:00</time></trkpt><trkpt lat="39.55969239" lon="-0.53245965"><ele>101.4</ele><time>2022-11-01T13:59:22.0000000+00:00</time></trkpt><trkpt lat="39.5597141" lon="-0.53241254"><ele>101.6</ele><time>2022-11-01T13:59:23.0000000+00:00</time></trkpt><trkpt lat="39.55973656" lon="-0.53236862"><ele>101.6</ele><time>2022-11-01T13:59:24.0000000+00:00</time></trkpt><trkpt lat="39.55976321" lon="-0.53232654"><ele>101.8</ele><time>2022-11-01T13:59:25.0000000+00:00</time></trkpt><trkpt lat="39.55978911" lon="-0.53228354"><ele>102.0</ele><time>2022-11-01T13:59:26.0000000+00:00</time></trkpt><trkpt lat="39.55981359" lon="-0.53224205"><ele>102.0</ele><time>2022-11-01T13:59:27.0000000+00:00</time></trkpt><trkpt lat="39.55983513" lon="-0.53220148"><ele>102.2</ele><time>2022-11-01T13:59:28.0000000+00:00</time></trkpt><trkpt lat="39.55985382" lon="-0.53216309"><ele>102.2</ele><time>2022-11-01T13:59:29.0000000+00:00</time></trkpt><trkpt lat="39.55987352" lon="-0.53212537"><ele>102.4</ele><time>2022-11-01T13:59:30.0000000+00:00</time></trkpt><trkpt lat="39.5598902" lon="-0.53209336"><ele>102.6</ele><time>2022-11-01T13:59:31.0000000+00:00</time></trkpt><trkpt lat="39.55990378" lon="-0.53206813"><ele>102.6</ele><time>2022-11-01T13:59:32.0000000+00:00</time></trkpt><trkpt lat="39.5599187" lon="-0.53204868"><ele>102.6</ele><time>2022-11-01T13:59:33.0000000+00:00</time></trkpt><trkpt lat="39.55993219" lon="-0.53203309"><ele>102.6</ele><time>2022-11-01T13:59:34.0000000+00:00</time></trkpt><trkpt lat="39.55994502" lon="-0.53202018"><ele>102.8</ele><time>2022-11-01T13:59:35.0000000+00:00</time></trkpt><trkpt lat="39.55995742" lon="-0.53200794"><ele>102.8</ele><time>2022-11-01T13:59:36.0000000+00:00</time></trkpt><trkpt lat="39.55996832" lon="-0.53199353"><ele>102.8</ele><time>2022-11-01T13:59:37.0000000+00:00</time></trkpt><trkpt lat="39.55997787" lon="-0.53197961"><ele>102.8</ele><time>2022-11-01T13:59:38.0000000+00:00</time></trkpt><trkpt lat="39.55999045" lon="-0.53196075"><ele>102.8</ele><time>2022-11-01T13:59:39.0000000+00:00</time></trkpt><trkpt lat="39.56000067" lon="-0.53194013"><ele>103.0</ele><time>2022-11-01T13:59:40.0000000+00:00</time></trkpt><trkpt lat="39.56001551" lon="-0.53191558"><ele>103.0</ele><time>2022-11-01T13:59:41.0000000+00:00</time></trkpt><trkpt lat="39.56002993" lon="-0.53189035"><ele>103.2</ele><time>2022-11-01T13:59:42.0000000+00:00</time></trkpt><trkpt lat="39.56004317" lon="-0.53186855"><ele>103.2</ele><time>2022-11-01T13:59:43.0000000+00:00</time></trkpt><trkpt lat="39.56006127" lon="-0.53183318"><ele>103.2</ele><time>2022-11-01T13:59:44.0000000+00:00</time></trkpt><trkpt lat="39.56007418" lon="-0.53179957"><ele>103.4</ele><time>2022-11-01T13:59:45.0000000+00:00</time></trkpt><trkpt lat="39.56008927" lon="-0.53176344"><ele>103.4</ele><time>2022-11-01T13:59:46.0000000+00:00</time></trkpt><trkpt lat="39.56010419" lon="-0.53172858"><ele>103.4</ele><time>2022-11-01T13:59:47.0000000+00:00</time></trkpt><trkpt lat="39.56011685" lon="-0.53169304"><ele>103.4</ele><time>2022-11-01T13:59:48.0000000+00:00</time></trkpt><trkpt lat="39.56013034" lon="-0.5316585"><ele>103.4</ele><time>2022-11-01T13:59:49.0000000+00:00</time></trkpt><trkpt lat="39.56014216" lon="-0.53163168"><ele>103.6</ele><time>2022-11-01T13:59:50.0000000+00:00</time></trkpt><trkpt lat="39.56015817" lon="-0.53158826"><ele>103.6</ele><time>2022-11-01T13:59:51.0000000+00:00</time></trkpt><trkpt lat="39.56017393" lon="-0.53155675"><ele>103.8</ele><time>2022-11-01T13:59:52.0000000+00:00</time></trkpt><trkpt lat="39.56018642" lon="-0.53152448"><ele>104.0</ele><time>2022-11-01T13:59:53.0000000+00:00</time></trkpt><trkpt lat="39.56019245" lon="-0.53149162"><ele>104.0</ele><time>2022-11-01T13:59:54.0000000+00:00</time></trkpt><trkpt lat="39.56019312" lon="-0.53145977"><ele>104.0</ele><time>2022-11-01T13:59:55.0000000+00:00</time></trkpt><trkpt lat="39.56019497" lon="-0.53143554"><ele>104.0</ele><time>2022-11-01T13:59:56.0000000+00:00</time></trkpt><trkpt lat="39.5602005" lon="-0.53141233"><ele>103.8</ele><time>2022-11-01T13:59:57.0000000+00:00</time></trkpt><trkpt lat="39.56021064" lon="-0.53139213"><ele>104.0</ele><time>2022-11-01T13:59:58.0000000+00:00</time></trkpt><trkpt lat="39.5602207" lon="-0.53137176"><ele>104.0</ele><time>2022-11-01T13:59:59.0000000+00:00</time></trkpt><trkpt lat="39.56022497" lon="-0.5313508"><ele>104.0</ele><time>2022-11-01T14:00:00.0000000+00:00</time></trkpt><trkpt lat="39.56022631" lon="-0.53133815"><ele>104.0</ele><time>2022-11-01T14:00:01.0000000+00:00</time></trkpt><trkpt lat="39.56023059" lon="-0.53132733"><ele>104.0</ele><time>2022-11-01T14:00:02.0000000+00:00</time></trkpt><trkpt lat="39.56023201" lon="-0.53132189"><ele>104.0</ele><time>2022-11-01T14:00:03.0000000+00:00</time></trkpt><trkpt lat="39.56023201" lon="-0.53132189"><ele>104.0</ele><time>2022-11-01T14:00:04.0000000+00:00</time></trkpt><trkpt lat="39.56023201" lon="-0.53132189"><ele>104.0</ele><time>2022-11-01T14:00:05.0000000+00:00</time></trkpt><trkpt lat="39.56023201" lon="-0.53132189"><ele>104.0</ele><time>2022-11-01T14:00:06.0000000+00:00</time></trkpt><trkpt lat="39.56023201" lon="-0.53132189"><ele>104.2</ele><time>2022-11-01T14:00:07.0000000+00:00</time></trkpt><trkpt lat="39.56023201" lon="-0.53132189"><ele>104.2</ele><time>2022-11-01T14:00:08.0000000+00:00</time></trkpt><trkpt lat="39.56023201" lon="-0.53132189"><ele>104.2</ele><time>2022-11-01T14:00:09.0000000+00:00</time></trkpt><trkpt lat="39.56023201" lon="-0.53132189"><ele>104.2</ele><time>2022-11-01T14:00:10.0000000+00:00</time></trkpt><trkpt lat="39.56023201" lon="-0.53132189"><ele>104.2</ele><time>2022-11-01T14:00:11.0000000+00:00</time></trkpt><trkpt lat="39.56023327" lon="-0.5313213"><ele>104.2</ele><time>2022-11-01T14:00:12.0000000+00:00</time></trkpt><trkpt lat="39.56023679" lon="-0.53131292"><ele>104.2</ele><time>2022-11-01T14:00:13.0000000+00:00</time></trkpt><trkpt lat="39.56024174" lon="-0.53130101"><ele>104.2</ele><time>2022-11-01T14:00:14.0000000+00:00</time></trkpt><trkpt lat="39.56024517" lon="-0.53128978"><ele>104.0</ele><time>2022-11-01T14:00:15.0000000+00:00</time></trkpt><trkpt lat="39.56024769" lon="-0.5312835"><ele>104.0</ele><time>2022-11-01T14:00:16.0000000+00:00</time></trkpt><trkpt lat="39.56024811" lon="-0.53127939"><ele>104.0</ele><time>2022-11-01T14:00:17.0000000+00:00</time></trkpt><trkpt lat="39.56025288" lon="-0.53127847"><ele>104.0</ele><time>2022-11-01T14:00:18.0000000+00:00</time></trkpt><trkpt lat="39.56025557" lon="-0.53127377"><ele>104.2</ele><time>2022-11-01T14:00:19.0000000+00:00</time></trkpt><trkpt lat="39.56025766" lon="-0.53127025"><ele>104.2</ele><time>2022-11-01T14:00:20.0000000+00:00</time></trkpt><trkpt lat="39.56026445" lon="-0.53125391"><ele>104.2</ele><time>2022-11-01T14:00:21.0000000+00:00</time></trkpt><trkpt lat="39.56027325" lon="-0.53123639"><ele>104.4</ele><time>2022-11-01T14:00:22.0000000+00:00</time></trkpt><trkpt lat="39.56028733" lon="-0.53121694"><ele>104.4</ele><time>2022-11-01T14:00:23.0000000+00:00</time></trkpt><trkpt lat="39.56030401" lon="-0.53119239"><ele>104.4</ele><time>2022-11-01T14:00:24.0000000+00:00</time></trkpt><trkpt lat="39.56032321" lon="-0.53116204"><ele>104.4</ele><time>2022-11-01T14:00:25.0000000+00:00</time></trkpt><trkpt lat="39.56033754" lon="-0.53113681"><ele>104.4</ele><time>2022-11-01T14:00:26.0000000+00:00</time></trkpt><trkpt lat="39.56035514" lon="-0.53109608"><ele>104.6</ele><time>2022-11-01T14:00:27.0000000+00:00</time></trkpt><trkpt lat="39.56037409" lon="-0.53106213"><ele>104.6</ele><time>2022-11-01T14:00:28.0000000+00:00</time></trkpt><trkpt lat="39.56039085" lon="-0.53103246"><ele>104.8</ele><time>2022-11-01T14:00:29.0000000+00:00</time></trkpt><trkpt lat="39.56040862" lon="-0.53101025"><ele>104.8</ele><time>2022-11-01T14:00:30.0000000+00:00</time></trkpt><trkpt lat="39.56042941" lon="-0.53099994"><ele>104.8</ele><time>2022-11-01T14:00:31.0000000+00:00</time></trkpt><trkpt lat="39.56045405" lon="-0.53099591"><ele>104.8</ele><time>2022-11-01T14:00:32.0000000+00:00</time></trkpt><trkpt lat="39.56047433" lon="-0.53099625"><ele>104.8</ele><time>2022-11-01T14:00:33.0000000+00:00</time></trkpt><trkpt lat="39.56048213" lon="-0.530996"><ele>104.8</ele><time>2022-11-01T14:00:34.0000000+00:00</time></trkpt><trkpt lat="39.56048213" lon="-0.530996"><ele>104.8</ele><time>2022-11-01T14:00:35.0000000+00:00</time></trkpt><trkpt lat="39.56048213" lon="-0.530996"><ele>104.6</ele><time>2022-11-01T14:00:36.0000000+00:00</time></trkpt><trkpt lat="39.56048347" lon="-0.53099667"><ele>104.6</ele><time>2022-11-01T14:00:37.0000000+00:00</time></trkpt><trkpt lat="39.56048925" lon="-0.53100161"><ele>104.6</ele><time>2022-11-01T14:00:38.0000000+00:00</time></trkpt><trkpt lat="39.56050166" lon="-0.53100631"><ele>104.6</ele><time>2022-11-01T14:00:39.0000000+00:00</time></trkpt><trkpt lat="39.56052119" lon="-0.53100748"><ele>104.8</ele><time>2022-11-01T14:00:40.0000000+00:00</time></trkpt><trkpt lat="39.56054726" lon="-0.53101083"><ele>104.8</ele><time>2022-11-01T14:00:41.0000000+00:00</time></trkpt><trkpt lat="39.5605724" lon="-0.53101536"><ele>105.0</ele><time>2022-11-01T14:00:42.0000000+00:00</time></trkpt><trkpt lat="39.56059529" lon="-0.53102525"><ele>105.0</ele><time>2022-11-01T14:00:43.0000000+00:00</time></trkpt><trkpt lat="39.56062152" lon="-0.53104076"><ele>105.2</ele><time>2022-11-01T14:00:44.0000000+00:00</time></trkpt><trkpt lat="39.56064776" lon="-0.53106171"><ele>105.2</ele><time>2022-11-01T14:00:45.0000000+00:00</time></trkpt><trkpt lat="39.56067726" lon="-0.53108367"><ele>105.2</ele><time>2022-11-01T14:00:46.0000000+00:00</time></trkpt><trkpt lat="39.56070651" lon="-0.53110815"><ele>105.4</ele><time>2022-11-01T14:00:47.0000000+00:00</time></trkpt><trkpt lat="39.56073325" lon="-0.53113631"><ele>105.6</ele><time>2022-11-01T14:00:48.0000000+00:00</time></trkpt><trkpt lat="39.56076033" lon="-0.53117017"><ele>105.6</ele><time>2022-11-01T14:00:49.0000000+00:00</time></trkpt><trkpt lat="39.56078966" lon="-0.53120119"><ele>105.8</ele><time>2022-11-01T14:00:50.0000000+00:00</time></trkpt><trkpt lat="39.56081833" lon="-0.53122264"><ele>105.8</ele><time>2022-11-01T14:00:51.0000000+00:00</time></trkpt><trkpt lat="39.56084808" lon="-0.53125064"><ele>106.0</ele><time>2022-11-01T14:00:52.0000000+00:00</time></trkpt><trkpt lat="39.56087499" lon="-0.53127092"><ele>106.0</ele><time>2022-11-01T14:00:53.0000000+00:00</time></trkpt><trkpt lat="39.56090475" lon="-0.53128735"><ele>106.0</ele><time>2022-11-01T14:00:54.0000000+00:00</time></trkpt><trkpt lat="39.56093182" lon="-0.53130562"><ele>106.0</ele><time>2022-11-01T14:00:55.0000000+00:00</time></trkpt><trkpt lat="39.56095462" lon="-0.53132851"><ele>106.0</ele><time>2022-11-01T14:00:56.0000000+00:00</time></trkpt><trkpt lat="39.56097666" lon="-0.53135776"><ele>106.2</ele><time>2022-11-01T14:00:57.0000000+00:00</time></trkpt><trkpt lat="39.56099737" lon="-0.53138726"><ele>106.2</ele><time>2022-11-01T14:00:58.0000000+00:00</time></trkpt><trkpt lat="39.56101304" lon="-0.53141442"><ele>106.0</ele><time>2022-11-01T14:00:59.0000000+00:00</time></trkpt><trkpt lat="39.56103785" lon="-0.53143437"><ele>106.0</ele><time>2022-11-01T14:01:00.0000000+00:00</time></trkpt><trkpt lat="39.56106425" lon="-0.53145524"><ele>106.0</ele><time>2022-11-01T14:01:01.0000000+00:00</time></trkpt><trkpt lat="39.5610894" lon="-0.53147737"><ele>106.0</ele><time>2022-11-01T14:01:02.0000000+00:00</time></trkpt><trkpt lat="39.56111647" lon="-0.53150117"><ele>106.0</ele><time>2022-11-01T14:01:03.0000000+00:00</time></trkpt><trkpt lat="39.56114489" lon="-0.53152406"><ele>105.8</ele><time>2022-11-01T14:01:04.0000000+00:00</time></trkpt><trkpt lat="39.56117163" lon="-0.53154853"><ele>105.8</ele><time>2022-11-01T14:01:05.0000000+00:00</time></trkpt><trkpt lat="39.56120255" lon="-0.53157351"><ele>105.8</ele><time>2022-11-01T14:01:06.0000000+00:00</time></trkpt><trkpt lat="39.56123583" lon="-0.53159564"><ele>105.6</ele><time>2022-11-01T14:01:07.0000000+00:00</time></trkpt><trkpt lat="39.56126416" lon="-0.53162397"><ele>105.6</ele><time>2022-11-01T14:01:08.0000000+00:00</time></trkpt><trkpt lat="39.56129476" lon="-0.53165004"><ele>105.6</ele><time>2022-11-01T14:01:09.0000000+00:00</time></trkpt><trkpt lat="39.56133046" lon="-0.53167795"><ele>105.6</ele><time>2022-11-01T14:01:10.0000000+00:00</time></trkpt><trkpt lat="39.56136575" lon="-0.53171148"><ele>105.6</ele><time>2022-11-01T14:01:11.0000000+00:00</time></trkpt><trkpt lat="39.56140372" lon="-0.53174534"><ele>105.4</ele><time>2022-11-01T14:01:12.0000000+00:00</time></trkpt><trkpt lat="39.56144236" lon="-0.53177945"><ele>105.4</ele><time>2022-11-01T14:01:13.0000000+00:00</time></trkpt><trkpt lat="39.56148486" lon="-0.53181876"><ele>105.2</ele><time>2022-11-01T14:01:14.0000000+00:00</time></trkpt><trkpt lat="39.56153113" lon="-0.5318652"><ele>104.8</ele><time>2022-11-01T14:01:15.0000000+00:00</time></trkpt><trkpt lat="39.56158008" lon="-0.53191289"><ele>104.6</ele><time>2022-11-01T14:01:16.0000000+00:00</time></trkpt><trkpt lat="39.56163196" lon="-0.53196243"><ele>104.2</ele><time>2022-11-01T14:01:17.0000000+00:00</time></trkpt><trkpt lat="39.5616825" lon="-0.53201088"><ele>104.0</ele><time>2022-11-01T14:01:18.0000000+00:00</time></trkpt><trkpt lat="39.56172969" lon="-0.5320527"><ele>103.8</ele><time>2022-11-01T14:01:19.0000000+00:00</time></trkpt><trkpt lat="39.56177571" lon="-0.5320895"><ele>103.2</ele><time>2022-11-01T14:01:20.0000000+00:00</time></trkpt><trkpt lat="39.56181971" lon="-0.53212269"><ele>103.0</ele><time>2022-11-01T14:01:21.0000000+00:00</time></trkpt><trkpt lat="39.56186355" lon="-0.53214365"><ele>102.6</ele><time>2022-11-01T14:01:22.0000000+00:00</time></trkpt><trkpt lat="39.56190353" lon="-0.53214725"><ele>102.4</ele><time>2022-11-01T14:01:23.0000000+00:00</time></trkpt><trkpt lat="39.56193673" lon="-0.53214507"><ele>102.2</ele><time>2022-11-01T14:01:24.0000000+00:00</time></trkpt><trkpt lat="39.56196816" lon="-0.53213292"><ele>102.2</ele><time>2022-11-01T14:01:25.0000000+00:00</time></trkpt><trkpt lat="39.56199775" lon="-0.5321128"><ele>102.0</ele><time>2022-11-01T14:01:26.0000000+00:00</time></trkpt><trkpt lat="39.56202515" lon="-0.53208682"><ele>102.0</ele><time>2022-11-01T14:01:27.0000000+00:00</time></trkpt><trkpt lat="39.56204653" lon="-0.53205899"><ele>102.0</ele><time>2022-11-01T14:01:28.0000000+00:00</time></trkpt><trkpt lat="39.56206799" lon="-0.53203317"><ele>101.8</ele><time>2022-11-01T14:01:29.0000000+00:00</time></trkpt><trkpt lat="39.56208131" lon="-0.5320082"><ele>101.8</ele><time>2022-11-01T14:01:30.0000000+00:00</time></trkpt><trkpt lat="39.56208953" lon="-0.531988"><ele>101.8</ele><time>2022-11-01T14:01:31.0000000+00:00</time></trkpt><trkpt lat="39.5620959" lon="-0.53197584"><ele>101.8</ele><time>2022-11-01T14:01:32.0000000+00:00</time></trkpt><trkpt lat="39.56210101" lon="-0.53196771"><ele>101.8</ele><time>2022-11-01T14:01:33.0000000+00:00</time></trkpt><trkpt lat="39.56210461" lon="-0.53196427"><ele>101.8</ele><time>2022-11-01T14:01:34.0000000+00:00</time></trkpt><trkpt lat="39.56211291" lon="-0.53195983"><ele>101.8</ele><time>2022-11-01T14:01:35.0000000+00:00</time></trkpt><trkpt lat="39.56212498" lon="-0.53194718"><ele>101.8</ele><time>2022-11-01T14:01:36.0000000+00:00</time></trkpt><trkpt lat="39.56214133" lon="-0.53192454"><ele>101.8</ele><time>2022-11-01T14:01:37.0000000+00:00</time></trkpt><trkpt lat="39.56216128" lon="-0.53189948"><ele>101.8</ele><time>2022-11-01T14:01:38.0000000+00:00</time></trkpt><trkpt lat="39.56218055" lon="-0.53187174"><ele>102.0</ele><time>2022-11-01T14:01:39.0000000+00:00</time></trkpt><trkpt lat="39.56219891" lon="-0.53184173"><ele>102.0</ele><time>2022-11-01T14:01:40.0000000+00:00</time></trkpt><trkpt lat="39.56222322" lon="-0.53180703"><ele>102.0</ele><time>2022-11-01T14:01:41.0000000+00:00</time></trkpt><trkpt lat="39.56224711" lon="-0.53176906"><ele>102.0</ele><time>2022-11-01T14:01:42.0000000+00:00</time></trkpt><trkpt lat="39.56227284" lon="-0.53172883"><ele>102.2</ele><time>2022-11-01T14:01:43.0000000+00:00</time></trkpt><trkpt lat="39.56229874" lon="-0.53169044"><ele>102.2</ele><time>2022-11-01T14:01:44.0000000+00:00</time></trkpt><trkpt lat="39.56232615" lon="-0.5316518"><ele>102.2</ele><time>2022-11-01T14:01:45.0000000+00:00</time></trkpt><trkpt lat="39.56235364" lon="-0.53161542"><ele>102.4</ele><time>2022-11-01T14:01:46.0000000+00:00</time></trkpt><trkpt lat="39.56238013" lon="-0.53157896"><ele>102.4</ele><time>2022-11-01T14:01:47.0000000+00:00</time></trkpt><trkpt lat="39.56240393" lon="-0.53154149"><ele>102.4</ele><time>2022-11-01T14:01:48.0000000+00:00</time></trkpt><trkpt lat="39.56242698" lon="-0.53150763"><ele>102.4</ele><time>2022-11-01T14:01:49.0000000+00:00</time></trkpt><trkpt lat="39.56244852" lon="-0.53147494"><ele>102.6</ele><time>2022-11-01T14:01:50.0000000+00:00</time></trkpt><trkpt lat="39.5624668" lon="-0.53144602"><ele>102.6</ele><time>2022-11-01T14:01:51.0000000+00:00</time></trkpt><trkpt lat="39.56247996" lon="-0.53142758"><ele>102.6</ele><time>2022-11-01T14:01:52.0000000+00:00</time></trkpt><trkpt lat="39.56249898" lon="-0.5314057"><ele>102.6</ele><time>2022-11-01T14:01:53.0000000+00:00</time></trkpt><trkpt lat="39.56251441" lon="-0.5313871"><ele>102.6</ele><time>2022-11-01T14:01:54.0000000+00:00</time></trkpt><trkpt lat="39.56252882" lon="-0.53137084"><ele>102.6</ele><time>2022-11-01T14:01:55.0000000+00:00</time></trkpt><trkpt lat="39.5625445" lon="-0.53135206"><ele>102.6</ele><time>2022-11-01T14:01:56.0000000+00:00</time></trkpt><trkpt lat="39.56256243" lon="-0.53133505"><ele>102.6</ele><time>2022-11-01T14:01:57.0000000+00:00</time></trkpt><trkpt lat="39.56258079" lon="-0.53131602"><ele>102.6</ele><time>2022-11-01T14:01:58.0000000+00:00</time></trkpt><trkpt lat="39.56259747" lon="-0.53129037"><ele>102.4</ele><time>2022-11-01T14:01:59.0000000+00:00</time></trkpt><trkpt lat="39.56261516" lon="-0.53126271"><ele>102.4</ele><time>2022-11-01T14:02:00.0000000+00:00</time></trkpt><trkpt lat="39.56263712" lon="-0.53123538"><ele>102.4</ele><time>2022-11-01T14:02:01.0000000+00:00</time></trkpt><trkpt lat="39.56265338" lon="-0.53121351"><ele>102.4</ele><time>2022-11-01T14:02:02.0000000+00:00</time></trkpt><trkpt lat="39.5626714" lon="-0.53118593"><ele>102.4</ele><time>2022-11-01T14:02:03.0000000+00:00</time></trkpt><trkpt lat="39.56268992" lon="-0.53115517"><ele>102.6</ele><time>2022-11-01T14:02:04.0000000+00:00</time></trkpt><trkpt lat="39.56271012" lon="-0.53112466"><ele>102.6</ele><time>2022-11-01T14:02:05.0000000+00:00</time></trkpt><trkpt lat="39.56273091" lon="-0.53109532"><ele>102.8</ele><time>2022-11-01T14:02:06.0000000+00:00</time></trkpt><trkpt lat="39.56275413" lon="-0.53106255"><ele>102.8</ele><time>2022-11-01T14:02:07.0000000+00:00</time></trkpt><trkpt lat="39.56277953" lon="-0.53102584"><ele>103.0</ele><time>2022-11-01T14:02:08.0000000+00:00</time></trkpt><trkpt lat="39.56280501" lon="-0.53099248"><ele>103.0</ele><time>2022-11-01T14:02:09.0000000+00:00</time></trkpt><trkpt lat="39.56283661" lon="-0.53094738"><ele>103.2</ele><time>2022-11-01T14:02:10.0000000+00:00</time></trkpt><trkpt lat="39.56286402" lon="-0.53090924"><ele>103.4</ele><time>2022-11-01T14:02:11.0000000+00:00</time></trkpt><trkpt lat="39.5628874" lon="-0.53087555"><ele>103.4</ele><time>2022-11-01T14:02:12.0000000+00:00</time></trkpt><trkpt lat="39.56290626" lon="-0.53084906"><ele>103.4</ele><time>2022-11-01T14:02:13.0000000+00:00</time></trkpt><trkpt lat="39.562933" lon="-0.53081813"><ele>103.4</ele><time>2022-11-01T14:02:14.0000000+00:00</time></trkpt><trkpt lat="39.56295672" lon="-0.53078276"><ele>103.2</ele><time>2022-11-01T14:02:15.0000000+00:00</time></trkpt><trkpt lat="39.5629682" lon="-0.53076156"><ele>103.4</ele><time>2022-11-01T14:02:16.0000000+00:00</time></trkpt><trkpt lat="39.56298145" lon="-0.53072518"><ele>103.4</ele><time>2022-11-01T14:02:17.0000000+00:00</time></trkpt><trkpt lat="39.56297985" lon="-0.53069668"><ele>103.4</ele><time>2022-11-01T14:02:18.0000000+00:00</time></trkpt><trkpt lat="39.5629703" lon="-0.53065997"><ele>103.4</ele><time>2022-11-01T14:02:19.0000000+00:00</time></trkpt><trkpt lat="39.56296477" lon="-0.53063524"><ele>103.6</ele><time>2022-11-01T14:02:20.0000000+00:00</time></trkpt><trkpt lat="39.56296401" lon="-0.53061211"><ele>103.8</ele><time>2022-11-01T14:02:21.0000000+00:00</time></trkpt><trkpt lat="39.56297432" lon="-0.53058889"><ele>103.8</ele><time>2022-11-01T14:02:22.0000000+00:00</time></trkpt><trkpt lat="39.56299662" lon="-0.53057296"><ele>104.0</ele><time>2022-11-01T14:02:23.0000000+00:00</time></trkpt><trkpt lat="39.56302051" lon="-0.53054723"><ele>104.0</ele><time>2022-11-01T14:02:24.0000000+00:00</time></trkpt><trkpt lat="39.56304154" lon="-0.53052292"><ele>104.0</ele><time>2022-11-01T14:02:25.0000000+00:00</time></trkpt><trkpt lat="39.56306309" lon="-0.53049803"><ele>104.0</ele><time>2022-11-01T14:02:26.0000000+00:00</time></trkpt><trkpt lat="39.56308521" lon="-0.53047515"><ele>104.0</ele><time>2022-11-01T14:02:27.0000000+00:00</time></trkpt><trkpt lat="39.56311514" lon="-0.5304412"><ele>104.0</ele><time>2022-11-01T14:02:28.0000000+00:00</time></trkpt><trkpt lat="39.56313785" lon="-0.53041304"><ele>103.8</ele><time>2022-11-01T14:02:29.0000000+00:00</time></trkpt><trkpt lat="39.5631552" lon="-0.53039158"><ele>103.8</ele><time>2022-11-01T14:02:30.0000000+00:00</time></trkpt><trkpt lat="39.56317565" lon="-0.53036509"><ele>103.8</ele><time>2022-11-01T14:02:31.0000000+00:00</time></trkpt><trkpt lat="39.56318806" lon="-0.53034816"><ele>103.8</ele><time>2022-11-01T14:02:32.0000000+00:00</time></trkpt><trkpt lat="39.56319627" lon="-0.53033944"><ele>103.8</ele><time>2022-11-01T14:02:33.0000000+00:00</time></trkpt><trkpt lat="39.56320633" lon="-0.53031589"><ele>103.8</ele><time>2022-11-01T14:02:34.0000000+00:00</time></trkpt><trkpt lat="39.56321606" lon="-0.53029267"><ele>104.0</ele><time>2022-11-01T14:02:35.0000000+00:00</time></trkpt><trkpt lat="39.56322771" lon="-0.53026007"><ele>104.0</ele><time>2022-11-01T14:02:36.0000000+00:00</time></trkpt><trkpt lat="39.5632474" lon="-0.53022713"><ele>104.0</ele><time>2022-11-01T14:02:37.0000000+00:00</time></trkpt><trkpt lat="39.56326199" lon="-0.5301972"><ele>104.0</ele><time>2022-11-01T14:02:38.0000000+00:00</time></trkpt><trkpt lat="39.56327641" lon="-0.53016879"><ele>104.2</ele><time>2022-11-01T14:02:39.0000000+00:00</time></trkpt><trkpt lat="39.5632956" lon="-0.53014004"><ele>104.2</ele><time>2022-11-01T14:02:40.0000000+00:00</time></trkpt><trkpt lat="39.56331563" lon="-0.53011204"><ele>104.2</ele><time>2022-11-01T14:02:41.0000000+00:00</time></trkpt><trkpt lat="39.56333851" lon="-0.53008128"><ele>104.0</ele><time>2022-11-01T14:02:42.0000000+00:00</time></trkpt><trkpt lat="39.56336576" lon="-0.53005295"><ele>104.0</ele><time>2022-11-01T14:02:43.0000000+00:00</time></trkpt><trkpt lat="39.5633899" lon="-0.53001883"><ele>104.0</ele><time>2022-11-01T14:02:44.0000000+00:00</time></trkpt><trkpt lat="39.56341244" lon="-0.52998539"><ele>104.0</ele><time>2022-11-01T14:02:45.0000000+00:00</time></trkpt><trkpt lat="39.56343466" lon="-0.52995186"><ele>104.2</ele><time>2022-11-01T14:02:46.0000000+00:00</time></trkpt><trkpt lat="39.56345787" lon="-0.52991993"><ele>104.2</ele><time>2022-11-01T14:02:47.0000000+00:00</time></trkpt><trkpt lat="39.56347883" lon="-0.52988783"><ele>104.2</ele><time>2022-11-01T14:02:48.0000000+00:00</time></trkpt><trkpt lat="39.56349442" lon="-0.52985874"><ele>104.2</ele><time>2022-11-01T14:02:49.0000000+00:00</time></trkpt><trkpt lat="39.56350355" lon="-0.5298341"><ele>104.2</ele><time>2022-11-01T14:02:50.0000000+00:00</time></trkpt><trkpt lat="39.56350942" lon="-0.52981239"><ele>104.2</ele><time>2022-11-01T14:02:51.0000000+00:00</time></trkpt><trkpt lat="39.56351378" lon="-0.5297916"><ele>104.2</ele><time>2022-11-01T14:02:52.0000000+00:00</time></trkpt><trkpt lat="39.56352375" lon="-0.52976864"><ele>104.4</ele><time>2022-11-01T14:02:53.0000000+00:00</time></trkpt><trkpt lat="39.5635308" lon="-0.5297538"><ele>104.4</ele><time>2022-11-01T14:02:54.0000000+00:00</time></trkpt><trkpt lat="39.56353398" lon="-0.52973896"><ele>104.4</ele><time>2022-11-01T14:02:55.0000000+00:00</time></trkpt><trkpt lat="39.56353909" lon="-0.52972471"><ele>104.6</ele><time>2022-11-01T14:02:56.0000000+00:00</time></trkpt><trkpt lat="39.5635453" lon="-0.52970569"><ele>104.6</ele><time>2022-11-01T14:02:57.0000000+00:00</time></trkpt><trkpt lat="39.56355083" lon="-0.52968708"><ele>104.6</ele><time>2022-11-01T14:02:58.0000000+00:00</time></trkpt><trkpt lat="39.56355988" lon="-0.52967778"><ele>104.6</ele><time>2022-11-01T14:02:59.0000000+00:00</time></trkpt><trkpt lat="39.56357522" lon="-0.52967342"><ele>104.6</ele><time>2022-11-01T14:03:00.0000000+00:00</time></trkpt><trkpt lat="39.56359567" lon="-0.52967384"><ele>104.8</ele><time>2022-11-01T14:03:01.0000000+00:00</time></trkpt><trkpt lat="39.56361738" lon="-0.52967367"><ele>104.8</ele><time>2022-11-01T14:03:02.0000000+00:00</time></trkpt><trkpt lat="39.5636328" lon="-0.52966453"><ele>104.8</ele><time>2022-11-01T14:03:03.0000000+00:00</time></trkpt><trkpt lat="39.56364697" lon="-0.52964576"><ele>105.0</ele><time>2022-11-01T14:03:04.0000000+00:00</time></trkpt><trkpt lat="39.56366331" lon="-0.52962346"><ele>105.0</ele><time>2022-11-01T14:03:05.0000000+00:00</time></trkpt><trkpt lat="39.56368041" lon="-0.5296015"><ele>105.0</ele><time>2022-11-01T14:03:06.0000000+00:00</time></trkpt><trkpt lat="39.56369609" lon="-0.52958641"><ele>104.8</ele><time>2022-11-01T14:03:07.0000000+00:00</time></trkpt><trkpt lat="39.56372165" lon="-0.52956948"><ele>104.8</ele><time>2022-11-01T14:03:08.0000000+00:00</time></trkpt><trkpt lat="39.56373867" lon="-0.52955154"><ele>104.8</ele><time>2022-11-01T14:03:09.0000000+00:00</time></trkpt><trkpt lat="39.56375895" lon="-0.52952925"><ele>104.8</ele><time>2022-11-01T14:03:10.0000000+00:00</time></trkpt><trkpt lat="39.56377513" lon="-0.52950762"><ele>104.8</ele><time>2022-11-01T14:03:11.0000000+00:00</time></trkpt><trkpt lat="39.56379063" lon="-0.52948214"><ele>104.8</ele><time>2022-11-01T14:03:12.0000000+00:00</time></trkpt><trkpt lat="39.56381125" lon="-0.52945121"><ele>104.6</ele><time>2022-11-01T14:03:13.0000000+00:00</time></trkpt><trkpt lat="39.56383171" lon="-0.52942305"><ele>104.6</ele><time>2022-11-01T14:03:14.0000000+00:00</time></trkpt><trkpt lat="39.56385132" lon="-0.52939715"><ele>104.8</ele><time>2022-11-01T14:03:15.0000000+00:00</time></trkpt><trkpt lat="39.56387194" lon="-0.5293679"><ele>104.8</ele><time>2022-11-01T14:03:16.0000000+00:00</time></trkpt><trkpt lat="39.56388728" lon="-0.5293394"><ele>105.0</ele><time>2022-11-01T14:03:17.0000000+00:00</time></trkpt><trkpt lat="39.56389893" lon="-0.52931165"><ele>105.0</ele><time>2022-11-01T14:03:18.0000000+00:00</time></trkpt><trkpt lat="39.5639141" lon="-0.52928433"><ele>105.0</ele><time>2022-11-01T14:03:19.0000000+00:00</time></trkpt><trkpt lat="39.56392282" lon="-0.52926446"><ele>105.2</ele><time>2022-11-01T14:03:20.0000000+00:00</time></trkpt><trkpt lat="39.56393145" lon="-0.52925021"><ele>105.4</ele><time>2022-11-01T14:03:21.0000000+00:00</time></trkpt><trkpt lat="39.56394109" lon="-0.52924284"><ele>105.4</ele><time>2022-11-01T14:03:22.0000000+00:00</time></trkpt><trkpt lat="39.56395031" lon="-0.52923538"><ele>105.4</ele><time>2022-11-01T14:03:23.0000000+00:00</time></trkpt><trkpt lat="39.56395249" lon="-0.52923027"><ele>105.6</ele><time>2022-11-01T14:03:24.0000000+00:00</time></trkpt><trkpt lat="39.56395567" lon="-0.52922859"><ele>105.6</ele><time>2022-11-01T14:03:25.0000000+00:00</time></trkpt><trkpt lat="39.56396582" lon="-0.52921853"><ele>105.6</ele><time>2022-11-01T14:03:26.0000000+00:00</time></trkpt><trkpt lat="39.56397881" lon="-0.52921283"><ele>105.6</ele><time>2022-11-01T14:03:27.0000000+00:00</time></trkpt><trkpt lat="39.5639918" lon="-0.5292078"><ele>105.6</ele><time>2022-11-01T14:03:28.0000000+00:00</time></trkpt><trkpt lat="39.56400052" lon="-0.52920252"><ele>105.6</ele><time>2022-11-01T14:03:29.0000000+00:00</time></trkpt><trkpt lat="39.56400806" lon="-0.52919825"><ele>105.6</ele><time>2022-11-01T14:03:30.0000000+00:00</time></trkpt><trkpt lat="39.56401669" lon="-0.52919238"><ele>105.6</ele><time>2022-11-01T14:03:31.0000000+00:00</time></trkpt><trkpt lat="39.56402734" lon="-0.52918073"><ele>105.6</ele><time>2022-11-01T14:03:32.0000000+00:00</time></trkpt><trkpt lat="39.56403757" lon="-0.5291607"><ele>105.8</ele><time>2022-11-01T14:03:33.0000000+00:00</time></trkpt><trkpt lat="39.56404955" lon="-0.52914913"><ele>105.8</ele><time>2022-11-01T14:03:34.0000000+00:00</time></trkpt><trkpt lat="39.5640643" lon="-0.52912633"><ele>105.8</ele><time>2022-11-01T14:03:35.0000000+00:00</time></trkpt><trkpt lat="39.56408241" lon="-0.52909699"><ele>105.8</ele><time>2022-11-01T14:03:36.0000000+00:00</time></trkpt><trkpt lat="39.56410227" lon="-0.52907629"><ele>105.8</ele><time>2022-11-01T14:03:37.0000000+00:00</time></trkpt><trkpt lat="39.56412138" lon="-0.52905743"><ele>105.8</ele><time>2022-11-01T14:03:38.0000000+00:00</time></trkpt><trkpt lat="39.56414175" lon="-0.52904276"><ele>105.8</ele><time>2022-11-01T14:03:39.0000000+00:00</time></trkpt><trkpt lat="39.56415952" lon="-0.52903329"><ele>105.8</ele><time>2022-11-01T14:03:40.0000000+00:00</time></trkpt><trkpt lat="39.56416933" lon="-0.52902139"><ele>105.8</ele><time>2022-11-01T14:03:41.0000000+00:00</time></trkpt><trkpt lat="39.56417704" lon="-0.529012"><ele>105.8</ele><time>2022-11-01T14:03:42.0000000+00:00</time></trkpt><trkpt lat="39.56418157" lon="-0.52900446"><ele>105.8</ele><time>2022-11-01T14:03:43.0000000+00:00</time></trkpt><trkpt lat="39.56418576" lon="-0.52899909"><ele>105.8</ele><time>2022-11-01T14:03:44.0000000+00:00</time></trkpt><trkpt lat="39.56420009" lon="-0.52899775"><ele>105.8</ele><time>2022-11-01T14:03:45.0000000+00:00</time></trkpt><trkpt lat="39.56420789" lon="-0.528998"><ele>105.8</ele><time>2022-11-01T14:03:46.0000000+00:00</time></trkpt><trkpt lat="39.5642213" lon="-0.52900328"><ele>105.8</ele><time>2022-11-01T14:03:47.0000000+00:00</time></trkpt><trkpt lat="39.5642358" lon="-0.52900362"><ele>105.8</ele><time>2022-11-01T14:03:48.0000000+00:00</time></trkpt><trkpt lat="39.56426052" lon="-0.52899566"><ele>105.8</ele><time>2022-11-01T14:03:49.0000000+00:00</time></trkpt><trkpt lat="39.56428148" lon="-0.5289882"><ele>105.8</ele><time>2022-11-01T14:03:50.0000000+00:00</time></trkpt><trkpt lat="39.56430235" lon="-0.52897705"><ele>106.0</ele><time>2022-11-01T14:03:51.0000000+00:00</time></trkpt><trkpt lat="39.56432071" lon="-0.52896104"><ele>106.0</ele><time>2022-11-01T14:03:52.0000000+00:00</time></trkpt><trkpt lat="39.56433931" lon="-0.52893631"><ele>106.0</ele><time>2022-11-01T14:03:53.0000000+00:00</time></trkpt><trkpt lat="39.56435365" lon="-0.52889893"><ele>106.2</ele><time>2022-11-01T14:03:54.0000000+00:00</time></trkpt><trkpt lat="39.56436044" lon="-0.528882"><ele>106.2</ele><time>2022-11-01T14:03:55.0000000+00:00</time></trkpt><trkpt lat="39.56437561" lon="-0.5288804"><ele>106.2</ele><time>2022-11-01T14:03:56.0000000+00:00</time></trkpt><trkpt lat="39.56440419" lon="-0.52887378"><ele>106.4</ele><time>2022-11-01T14:03:57.0000000+00:00</time></trkpt><trkpt lat="39.56443579" lon="-0.52886582"><ele>106.4</ele><time>2022-11-01T14:03:58.0000000+00:00</time></trkpt><trkpt lat="39.56443998" lon="-0.52886129"><ele>106.4</ele><time>2022-11-01T14:03:59.0000000+00:00</time></trkpt><trkpt lat="39.56443998" lon="-0.52886129"><ele>106.4</ele><time>2022-11-01T14:04:00.0000000+00:00</time></trkpt><trkpt lat="39.56443998" lon="-0.52886129"><ele>106.2</ele><time>2022-11-01T14:04:01.0000000+00:00</time></trkpt><trkpt lat="39.56443998" lon="-0.52886129"><ele>106.2</ele><time>2022-11-01T14:04:02.0000000+00:00</time></trkpt><trkpt lat="39.56443998" lon="-0.52886129"><ele>106.2</ele><time>2022-11-01T14:04:03.0000000+00:00</time></trkpt><trkpt lat="39.5644378" lon="-0.52885023"><ele>106.2</ele><time>2022-11-01T14:04:04.0000000+00:00</time></trkpt><trkpt lat="39.56443126" lon="-0.52884361"><ele>106.2</ele><time>2022-11-01T14:04:05.0000000+00:00</time></trkpt><trkpt lat="39.5644228" lon="-0.52884956"><ele>106.2</ele><time>2022-11-01T14:04:06.0000000+00:00</time></trkpt><trkpt lat="39.56441182" lon="-0.52886163"><ele>106.2</ele><time>2022-11-01T14:04:07.0000000+00:00</time></trkpt><trkpt lat="39.56440201" lon="-0.52887538"><ele>106.2</ele><time>2022-11-01T14:04:08.0000000+00:00</time></trkpt><trkpt lat="39.56440025" lon="-0.52889055"><ele>106.2</ele><time>2022-11-01T14:04:09.0000000+00:00</time></trkpt><trkpt lat="39.56440184" lon="-0.52889868"><ele>106.2</ele><time>2022-11-01T14:04:10.0000000+00:00</time></trkpt><trkpt lat="39.56439103" lon="-0.52890547"><ele>106.2</ele><time>2022-11-01T14:04:11.0000000+00:00</time></trkpt><trkpt lat="39.56437142" lon="-0.52891695"><ele>106.2</ele><time>2022-11-01T14:04:12.0000000+00:00</time></trkpt><trkpt lat="39.56435616" lon="-0.52893036"><ele>106.2</ele><time>2022-11-01T14:04:13.0000000+00:00</time></trkpt><trkpt lat="39.56434317" lon="-0.52894897"><ele>106.2</ele><time>2022-11-01T14:04:14.0000000+00:00</time></trkpt><trkpt lat="39.56433194" lon="-0.52897017"><ele>106.2</ele><time>2022-11-01T14:04:15.0000000+00:00</time></trkpt><trkpt lat="39.56432825" lon="-0.52898769"><ele>106.2</ele><time>2022-11-01T14:04:16.0000000+00:00</time></trkpt><trkpt lat="39.56432238" lon="-0.52901426"><ele>106.0</ele><time>2022-11-01T14:04:17.0000000+00:00</time></trkpt><trkpt lat="39.56431786" lon="-0.52904008"><ele>106.0</ele><time>2022-11-01T14:04:18.0000000+00:00</time></trkpt><trkpt lat="39.56430931" lon="-0.52905911"><ele>106.0</ele><time>2022-11-01T14:04:19.0000000+00:00</time></trkpt><trkpt lat="39.56429112" lon="-0.52908232"><ele>105.8</ele><time>2022-11-01T14:04:20.0000000+00:00</time></trkpt><trkpt lat="39.56425524" lon="-0.52910077"><ele>105.8</ele><time>2022-11-01T14:04:21.0000000+00:00</time></trkpt><trkpt lat="39.56420881" lon="-0.52912122"><ele>105.8</ele><time>2022-11-01T14:04:22.0000000+00:00</time></trkpt><trkpt lat="39.56416539" lon="-0.52914804"><ele>105.8</ele><time>2022-11-01T14:04:23.0000000+00:00</time></trkpt><trkpt lat="39.56414209" lon="-0.52917981"><ele>105.8</ele><time>2022-11-01T14:04:24.0000000+00:00</time></trkpt><trkpt lat="39.56412491" lon="-0.52920638"><ele>105.8</ele><time>2022-11-01T14:04:25.0000000+00:00</time></trkpt><trkpt lat="39.56411292" lon="-0.5292342"><ele>105.8</ele><time>2022-11-01T14:04:26.0000000+00:00</time></trkpt><trkpt lat="39.56409792" lon="-0.52926321"><ele>105.8</ele><time>2022-11-01T14:04:27.0000000+00:00</time></trkpt><trkpt lat="39.5640861" lon="-0.52929003"><ele>105.8</ele><time>2022-11-01T14:04:28.0000000+00:00</time></trkpt><trkpt lat="39.56407839" lon="-0.52931098"><ele>105.6</ele><time>2022-11-01T14:04:29.0000000+00:00</time></trkpt><trkpt lat="39.56409507" lon="-0.52932423"><ele>105.6</ele><time>2022-11-01T14:04:30.0000000+00:00</time></trkpt><trkpt lat="39.56406933" lon="-0.52934116"><ele>105.6</ele><time>2022-11-01T14:04:31.0000000+00:00</time></trkpt><trkpt lat="39.56404796" lon="-0.52936614"><ele>105.4</ele><time>2022-11-01T14:04:32.0000000+00:00</time></trkpt><trkpt lat="39.56401669" lon="-0.529386"><ele>105.4</ele><time>2022-11-01T14:04:33.0000000+00:00</time></trkpt><trkpt lat="39.56397168" lon="-0.52939732"><ele>105.2</ele><time>2022-11-01T14:04:34.0000000+00:00</time></trkpt><trkpt lat="39.56392366" lon="-0.52943059"><ele>105.2</ele><time>2022-11-01T14:04:35.0000000+00:00</time></trkpt><trkpt lat="39.56387898" lon="-0.52946479"><ele>105.0</ele><time>2022-11-01T14:04:36.0000000+00:00</time></trkpt><trkpt lat="39.5638369" lon="-0.52950502"><ele>105.0</ele><time>2022-11-01T14:04:37.0000000+00:00</time></trkpt><trkpt lat="39.5638141" lon="-0.52953713"><ele>105.0</ele><time>2022-11-01T14:04:38.0000000+00:00</time></trkpt><trkpt lat="39.56379784" lon="-0.52956403"><ele>104.8</ele><time>2022-11-01T14:04:39.0000000+00:00</time></trkpt><trkpt lat="39.56375635" lon="-0.52961072"><ele>104.8</ele><time>2022-11-01T14:04:40.0000000+00:00</time></trkpt><trkpt lat="39.56371788" lon="-0.52965188"><ele>104.8</ele><time>2022-11-01T14:04:41.0000000+00:00</time></trkpt><trkpt lat="39.56367932" lon="-0.52968758"><ele>104.8</ele><time>2022-11-01T14:04:42.0000000+00:00</time></trkpt><trkpt lat="39.56365963" lon="-0.5297144"><ele>104.8</ele><time>2022-11-01T14:04:43.0000000+00:00</time></trkpt><trkpt lat="39.56362861" lon="-0.5297362"><ele>104.8</ele><time>2022-11-01T14:04:44.0000000+00:00</time></trkpt><trkpt lat="39.5636033" lon="-0.52974768"><ele>104.8</ele><time>2022-11-01T14:04:45.0000000+00:00</time></trkpt><trkpt lat="39.5635696" lon="-0.529746"><ele>104.8</ele><time>2022-11-01T14:04:46.0000000+00:00</time></trkpt><trkpt lat="39.563538" lon="-0.52972807"><ele>104.8</ele><time>2022-11-01T14:04:47.0000000+00:00</time></trkpt><trkpt lat="39.56352677" lon="-0.52972765"><ele>104.8</ele><time>2022-11-01T14:04:48.0000000+00:00</time></trkpt><trkpt lat="39.56351864" lon="-0.52975237"><ele>104.8</ele><time>2022-11-01T14:04:49.0000000+00:00</time></trkpt><trkpt lat="39.56351143" lon="-0.52978355"><ele>104.8</ele><time>2022-11-01T14:04:50.0000000+00:00</time></trkpt><trkpt lat="39.56351294" lon="-0.52982044"><ele>104.8</ele><time>2022-11-01T14:04:51.0000000+00:00</time></trkpt><trkpt lat="39.56350389" lon="-0.52986528"><ele>104.6</ele><time>2022-11-01T14:04:52.0000000+00:00</time></trkpt><trkpt lat="39.56349132" lon="-0.52990769"><ele>104.6</ele><time>2022-11-01T14:04:53.0000000+00:00</time></trkpt><trkpt lat="39.56346324" lon="-0.52994608"><ele>104.6</ele><time>2022-11-01T14:04:54.0000000+00:00</time></trkpt><trkpt lat="39.56343566" lon="-0.52998422"><ele>104.4</ele><time>2022-11-01T14:04:55.0000000+00:00</time></trkpt><trkpt lat="39.56340423" lon="-0.5300237"><ele>104.4</ele><time>2022-11-01T14:04:56.0000000+00:00</time></trkpt><trkpt lat="39.56337841" lon="-0.53005991"><ele>104.4</ele><time>2022-11-01T14:04:57.0000000+00:00</time></trkpt><trkpt lat="39.56335343" lon="-0.53009595"><ele>104.4</ele><time>2022-11-01T14:04:58.0000000+00:00</time></trkpt><trkpt lat="39.56333307" lon="-0.53012788"><ele>104.2</ele><time>2022-11-01T14:04:59.0000000+00:00</time></trkpt><trkpt lat="39.5633132" lon="-0.53015957"><ele>104.2</ele><time>2022-11-01T14:05:00.0000000+00:00</time></trkpt><trkpt lat="39.56329267" lon="-0.53018647"><ele>104.2</ele><time>2022-11-01T14:05:01.0000000+00:00</time></trkpt><trkpt lat="39.56327188" lon="-0.53021053"><ele>104.2</ele><time>2022-11-01T14:05:02.0000000+00:00</time></trkpt><trkpt lat="39.56325922" lon="-0.53023375"><ele>104.2</ele><time>2022-11-01T14:05:03.0000000+00:00</time></trkpt><trkpt lat="39.56324464" lon="-0.53025361"><ele>104.0</ele><time>2022-11-01T14:05:04.0000000+00:00</time></trkpt><trkpt lat="39.56322955" lon="-0.53026945"><ele>103.8</ele><time>2022-11-01T14:05:05.0000000+00:00</time></trkpt><trkpt lat="39.56321161" lon="-0.53028781"><ele>103.6</ele><time>2022-11-01T14:05:06.0000000+00:00</time></trkpt><trkpt lat="39.56319569" lon="-0.53030449"><ele>103.6</ele><time>2022-11-01T14:05:07.0000000+00:00</time></trkpt><trkpt lat="39.5631837" lon="-0.53032075"><ele>103.6</ele><time>2022-11-01T14:05:08.0000000+00:00</time></trkpt><trkpt lat="39.5631744" lon="-0.53033358"><ele>103.6</ele><time>2022-11-01T14:05:09.0000000+00:00</time></trkpt><trkpt lat="39.56316652" lon="-0.53034363"><ele>103.6</ele><time>2022-11-01T14:05:10.0000000+00:00</time></trkpt><trkpt lat="39.56316149" lon="-0.53035478"><ele>103.8</ele><time>2022-11-01T14:05:11.0000000+00:00</time></trkpt><trkpt lat="39.56315327" lon="-0.5303718"><ele>104.0</ele><time>2022-11-01T14:05:12.0000000+00:00</time></trkpt><trkpt lat="39.56314087" lon="-0.53039594"><ele>104.0</ele><time>2022-11-01T14:05:13.0000000+00:00</time></trkpt><trkpt lat="39.56312385" lon="-0.5304179"><ele>104.0</ele><time>2022-11-01T14:05:14.0000000+00:00</time></trkpt><trkpt lat="39.56310994" lon="-0.53044128"><ele>104.2</ele><time>2022-11-01T14:05:15.0000000+00:00</time></trkpt><trkpt lat="39.56309678" lon="-0.53046987"><ele>104.2</ele><time>2022-11-01T14:05:16.0000000+00:00</time></trkpt><trkpt lat="39.56308194" lon="-0.5304956"><ele>104.2</ele><time>2022-11-01T14:05:17.0000000+00:00</time></trkpt><trkpt lat="39.56306644" lon="-0.53052762"><ele>104.2</ele><time>2022-11-01T14:05:18.0000000+00:00</time></trkpt><trkpt lat="39.56304783" lon="-0.5305619"><ele>104.2</ele><time>2022-11-01T14:05:19.0000000+00:00</time></trkpt><trkpt lat="39.56302864" lon="-0.53059593"><ele>104.2</ele><time>2022-11-01T14:05:20.0000000+00:00</time></trkpt><trkpt lat="39.56300953" lon="-0.53063097"><ele>104.2</ele><time>2022-11-01T14:05:21.0000000+00:00</time></trkpt><trkpt lat="39.56298782" lon="-0.53066743"><ele>104.2</ele><time>2022-11-01T14:05:22.0000000+00:00</time></trkpt><trkpt lat="39.56296049" lon="-0.53069701"><ele>104.2</ele><time>2022-11-01T14:05:23.0000000+00:00</time></trkpt><trkpt lat="39.56292931" lon="-0.53072157"><ele>104.2</ele><time>2022-11-01T14:05:24.0000000+00:00</time></trkpt><trkpt lat="39.56290106" lon="-0.53074529"><ele>104.0</ele><time>2022-11-01T14:05:25.0000000+00:00</time></trkpt><trkpt lat="39.56287726" lon="-0.5307722"><ele>104.0</ele><time>2022-11-01T14:05:26.0000000+00:00</time></trkpt><trkpt lat="39.56285421" lon="-0.53080129"><ele>103.8</ele><time>2022-11-01T14:05:27.0000000+00:00</time></trkpt><trkpt lat="39.5628299" lon="-0.53082685"><ele>103.8</ele><time>2022-11-01T14:05:28.0000000+00:00</time></trkpt><trkpt lat="39.56280274" lon="-0.53085459"><ele>103.8</ele><time>2022-11-01T14:05:29.0000000+00:00</time></trkpt><trkpt lat="39.56277919" lon="-0.53088217"><ele>103.6</ele><time>2022-11-01T14:05:30.0000000+00:00</time></trkpt><trkpt lat="39.56275379" lon="-0.53091385"><ele>103.6</ele><time>2022-11-01T14:05:31.0000000+00:00</time></trkpt><trkpt lat="39.5627294" lon="-0.53094478"><ele>103.6</ele><time>2022-11-01T14:05:32.0000000+00:00</time></trkpt><trkpt lat="39.56270702" lon="-0.53097244"><ele>103.4</ele><time>2022-11-01T14:05:33.0000000+00:00</time></trkpt><trkpt lat="39.56268833" lon="-0.53099943"><ele>103.4</ele><time>2022-11-01T14:05:34.0000000+00:00</time></trkpt><trkpt lat="39.56266997" lon="-0.53102592"><ele>103.6</ele><time>2022-11-01T14:05:35.0000000+00:00</time></trkpt><trkpt lat="39.56265346" lon="-0.53105492"><ele>103.6</ele><time>2022-11-01T14:05:36.0000000+00:00</time></trkpt><trkpt lat="39.56263418" lon="-0.53108359"><ele>103.8</ele><time>2022-11-01T14:05:37.0000000+00:00</time></trkpt><trkpt lat="39.56261633" lon="-0.5311115"><ele>103.8</ele><time>2022-11-01T14:05:38.0000000+00:00</time></trkpt><trkpt lat="39.56260409" lon="-0.53114"><ele>103.8</ele><time>2022-11-01T14:05:39.0000000+00:00</time></trkpt><trkpt lat="39.56258473" lon="-0.53116213"><ele>103.8</ele><time>2022-11-01T14:05:40.0000000+00:00</time></trkpt><trkpt lat="39.56257559" lon="-0.53117881"><ele>103.6</ele><time>2022-11-01T14:05:41.0000000+00:00</time></trkpt><trkpt lat="39.56256637" lon="-0.53119574"><ele>103.6</ele><time>2022-11-01T14:05:42.0000000+00:00</time></trkpt><trkpt lat="39.5625533" lon="-0.53121736"><ele>103.4</ele><time>2022-11-01T14:05:43.0000000+00:00</time></trkpt><trkpt lat="39.56254969" lon="-0.53124008"><ele>103.4</ele><time>2022-11-01T14:05:44.0000000+00:00</time></trkpt><trkpt lat="39.56253829" lon="-0.53126053"><ele>103.4</ele><time>2022-11-01T14:05:45.0000000+00:00</time></trkpt><trkpt lat="39.56253528" lon="-0.53128358"><ele>103.4</ele><time>2022-11-01T14:05:46.0000000+00:00</time></trkpt><trkpt lat="39.56252488" lon="-0.53130194"><ele>103.4</ele><time>2022-11-01T14:05:47.0000000+00:00</time></trkpt><trkpt lat="39.56249228" lon="-0.53133035"><ele>103.4</ele><time>2022-11-01T14:05:48.0000000+00:00</time></trkpt><trkpt lat="39.56246152" lon="-0.53134753"><ele>103.4</ele><time>2022-11-01T14:05:49.0000000+00:00</time></trkpt><trkpt lat="39.56243956" lon="-0.53136321"><ele>103.0</ele><time>2022-11-01T14:05:50.0000000+00:00</time></trkpt><trkpt lat="39.56243629" lon="-0.53136866"><ele>103.0</ele><time>2022-11-01T14:05:51.0000000+00:00</time></trkpt><trkpt lat="39.56243059" lon="-0.53137109"><ele>102.8</ele><time>2022-11-01T14:05:52.0000000+00:00</time></trkpt><trkpt lat="39.56242036" lon="-0.5313788"><ele>102.8</ele><time>2022-11-01T14:05:53.0000000+00:00</time></trkpt><trkpt lat="39.56241659" lon="-0.53139255"><ele>102.8</ele><time>2022-11-01T14:05:54.0000000+00:00</time></trkpt><trkpt lat="39.56240821" lon="-0.53140805"><ele>103.0</ele><time>2022-11-01T14:05:55.0000000+00:00</time></trkpt><trkpt lat="39.56240536" lon="-0.53142423"><ele>103.2</ele><time>2022-11-01T14:05:56.0000000+00:00</time></trkpt><trkpt lat="39.56240309" lon="-0.53143982"><ele>103.2</ele><time>2022-11-01T14:05:57.0000000+00:00</time></trkpt><trkpt lat="39.56239153" lon="-0.53145516"><ele>103.4</ele><time>2022-11-01T14:05:58.0000000+00:00</time></trkpt><trkpt lat="39.56238356" lon="-0.5314658"><ele>103.4</ele><time>2022-11-01T14:05:59.0000000+00:00</time></trkpt><trkpt lat="39.5623787" lon="-0.531485"><ele>103.4</ele><time>2022-11-01T14:06:00.0000000+00:00</time></trkpt><trkpt lat="39.5623751" lon="-0.53148944"><ele>103.2</ele><time>2022-11-01T14:06:01.0000000+00:00</time></trkpt><trkpt lat="39.5623751" lon="-0.53148944"><ele>103.2</ele><time>2022-11-01T14:06:02.0000000+00:00</time></trkpt><trkpt lat="39.5623751" lon="-0.53148944"><ele>103.2</ele><time>2022-11-01T14:06:03.0000000+00:00</time></trkpt><trkpt lat="39.5623751" lon="-0.53148944"><ele>103.2</ele><time>2022-11-01T14:06:04.0000000+00:00</time></trkpt><trkpt lat="39.5623751" lon="-0.53148944"><ele>103.2</ele><time>2022-11-01T14:06:05.0000000+00:00</time></trkpt><trkpt lat="39.5623751" lon="-0.53148944"><ele>103.2</ele><time>2022-11-01T14:06:06.0000000+00:00</time></trkpt><trkpt lat="39.5623751" lon="-0.53148944"><ele>103.2</ele><time>2022-11-01T14:06:07.0000000+00:00</time></trkpt><trkpt lat="39.5623751" lon="-0.53148944"><ele>103.2</ele><time>2022-11-01T14:06:08.0000000+00:00</time></trkpt><trkpt lat="39.5623751" lon="-0.53148944"><ele>103.2</ele><time>2022-11-01T14:06:09.0000000+00:00</time></trkpt><trkpt lat="39.5623751" lon="-0.53148944"><ele>103.2</ele><time>2022-11-01T14:06:10.0000000+00:00</time></trkpt><trkpt lat="39.5623751" lon="-0.53148944"><ele>103.2</ele><time>2022-11-01T14:06:11.0000000+00:00</time></trkpt><trkpt lat="39.5623751" lon="-0.53148944"><ele>103.2</ele><time>2022-11-01T14:06:12.0000000+00:00</time></trkpt><trkpt lat="39.5623751" lon="-0.53148944"><ele>103.2</ele><time>2022-11-01T14:06:13.0000000+00:00</time></trkpt><trkpt lat="39.5623751" lon="-0.53148944"><ele>103.2</ele><time>2022-11-01T14:06:14.0000000+00:00</time></trkpt><trkpt lat="39.5623751" lon="-0.53148944"><ele>103.2</ele><time>2022-11-01T14:06:15.0000000+00:00</time></trkpt><trkpt lat="39.5623751" lon="-0.53148944"><ele>103.2</ele><time>2022-11-01T14:06:16.0000000+00:00</time></trkpt><trkpt lat="39.5623751" lon="-0.53148944"><ele>103.2</ele><time>2022-11-01T14:06:17.0000000+00:00</time></trkpt><trkpt lat="39.5623751" lon="-0.53148944"><ele>103.2</ele><time>2022-11-01T14:06:18.0000000+00:00</time></trkpt><trkpt lat="39.5623751" lon="-0.53148944"><ele>103.2</ele><time>2022-11-01T14:06:19.0000000+00:00</time></trkpt><trkpt lat="39.5623751" lon="-0.53148944"><ele>103.2</ele><time>2022-11-01T14:06:20.0000000+00:00</time></trkpt><trkpt lat="39.5623751" lon="-0.53148944"><ele>103.2</ele><time>2022-11-01T14:06:21.0000000+00:00</time></trkpt><trkpt lat="39.5623751" lon="-0.53148944"><ele>103.2</ele><time>2022-11-01T14:06:22.0000000+00:00</time></trkpt><trkpt lat="39.5623751" lon="-0.53148944"><ele>103.2</ele><time>2022-11-01T14:06:23.0000000+00:00</time></trkpt><trkpt lat="39.5623751" lon="-0.53148944"><ele>103.2</ele><time>2022-11-01T14:06:24.0000000+00:00</time></trkpt><trkpt lat="39.5623751" lon="-0.53148944"><ele>103.2</ele><time>2022-11-01T14:06:25.0000000+00:00</time></trkpt><trkpt lat="39.5623751" lon="-0.53148944"><ele>103.2</ele><time>2022-11-01T14:06:26.0000000+00:00</time></trkpt><trkpt lat="39.5623751" lon="-0.53148944"><ele>103.2</ele><time>2022-11-01T14:06:27.0000000+00:00</time></trkpt><trkpt lat="39.5623751" lon="-0.53148944"><ele>103.2</ele><time>2022-11-01T14:06:28.0000000+00:00</time></trkpt><trkpt lat="39.5623751" lon="-0.53148944"><ele>103.2</ele><time>2022-11-01T14:06:29.0000000+00:00</time></trkpt><trkpt lat="39.5623751" lon="-0.53148944"><ele>103.2</ele><time>2022-11-01T14:06:30.0000000+00:00</time></trkpt><trkpt lat="39.56237384" lon="-0.53149514"><ele>103.2</ele><time>2022-11-01T14:06:31.0000000+00:00</time></trkpt><trkpt lat="39.56237015" lon="-0.5315062"><ele>103.2</ele><time>2022-11-01T14:06:32.0000000+00:00</time></trkpt><trkpt lat="39.56236051" lon="-0.5315197"><ele>103.2</ele><time>2022-11-01T14:06:33.0000000+00:00</time></trkpt><trkpt lat="39.5623523" lon="-0.53153906"><ele>103.2</ele><time>2022-11-01T14:06:34.0000000+00:00</time></trkpt><trkpt lat="39.56234551" lon="-0.53156647"><ele>103.2</ele><time>2022-11-01T14:06:35.0000000+00:00</time></trkpt><trkpt lat="39.56233126" lon="-0.53159153"><ele>103.2</ele><time>2022-11-01T14:06:36.0000000+00:00</time></trkpt><trkpt lat="39.56231517" lon="-0.53161198"><ele>103.2</ele><time>2022-11-01T14:06:37.0000000+00:00</time></trkpt><trkpt lat="39.56229949" lon="-0.53163587"><ele>103.2</ele><time>2022-11-01T14:06:38.0000000+00:00</time></trkpt><trkpt lat="39.56228432" lon="-0.53167149"><ele>103.2</ele><time>2022-11-01T14:06:39.0000000+00:00</time></trkpt><trkpt lat="39.56226186" lon="-0.53172489"><ele>103.0</ele><time>2022-11-01T14:06:40.0000000+00:00</time></trkpt><trkpt lat="39.56223613" lon="-0.53176948"><ele>103.0</ele><time>2022-11-01T14:06:41.0000000+00:00</time></trkpt><trkpt lat="39.56220914" lon="-0.53180611"><ele>103.0</ele><time>2022-11-01T14:06:42.0000000+00:00</time></trkpt><trkpt lat="39.56217762" lon="-0.53184827"><ele>102.8</ele><time>2022-11-01T14:06:43.0000000+00:00</time></trkpt><trkpt lat="39.56214787" lon="-0.53188616"><ele>102.8</ele><time>2022-11-01T14:06:44.0000000+00:00</time></trkpt><trkpt lat="39.56211995" lon="-0.53191457"><ele>102.8</ele><time>2022-11-01T14:06:45.0000000+00:00</time></trkpt><trkpt lat="39.56210084" lon="-0.53193477"><ele>102.8</ele><time>2022-11-01T14:06:46.0000000+00:00</time></trkpt><trkpt lat="39.56209062" lon="-0.5319465"><ele>102.8</ele><time>2022-11-01T14:06:47.0000000+00:00</time></trkpt><trkpt lat="39.56210319" lon="-0.53196495"><ele>102.6</ele><time>2022-11-01T14:06:48.0000000+00:00</time></trkpt><trkpt lat="39.56210428" lon="-0.53197232"><ele>102.6</ele><time>2022-11-01T14:06:49.0000000+00:00</time></trkpt><trkpt lat="39.56212213" lon="-0.5319522"><ele>102.6</ele><time>2022-11-01T14:06:50.0000000+00:00</time></trkpt><trkpt lat="39.56212448" lon="-0.53190711"><ele>102.6</ele><time>2022-11-01T14:06:51.0000000+00:00</time></trkpt><trkpt lat="39.56214141" lon="-0.53187358"><ele>102.4</ele><time>2022-11-01T14:06:52.0000000+00:00</time></trkpt><trkpt lat="39.56216564" lon="-0.53184056"><ele>102.4</ele><time>2022-11-01T14:06:53.0000000+00:00</time></trkpt><trkpt lat="39.56219086" lon="-0.53180561"><ele>102.4</ele><time>2022-11-01T14:06:54.0000000+00:00</time></trkpt><trkpt lat="39.56221911" lon="-0.53176504"><ele>102.4</ele><time>2022-11-01T14:06:55.0000000+00:00</time></trkpt><trkpt lat="39.56224727" lon="-0.53172614"><ele>102.4</ele><time>2022-11-01T14:06:56.0000000+00:00</time></trkpt><trkpt lat="39.56227452" lon="-0.5316844"><ele>102.6</ele><time>2022-11-01T14:06:57.0000000+00:00</time></trkpt><trkpt lat="39.56230419" lon="-0.53164585"><ele>102.6</ele><time>2022-11-01T14:06:58.0000000+00:00</time></trkpt><trkpt lat="39.56233042" lon="-0.53161827"><ele>102.6</ele><time>2022-11-01T14:06:59.0000000+00:00</time></trkpt><trkpt lat="39.5623611" lon="-0.53157661"><ele>102.8</ele><time>2022-11-01T14:07:00.0000000+00:00</time></trkpt><trkpt lat="39.56238692" lon="-0.53152615"><ele>102.8</ele><time>2022-11-01T14:07:01.0000000+00:00</time></trkpt><trkpt lat="39.56240812" lon="-0.53147368"><ele>102.8</ele><time>2022-11-01T14:07:02.0000000+00:00</time></trkpt><trkpt lat="39.5624409" lon="-0.5314332"><ele>103.0</ele><time>2022-11-01T14:07:03.0000000+00:00</time></trkpt><trkpt lat="39.56247476" lon="-0.5313897"><ele>103.2</ele><time>2022-11-01T14:07:04.0000000+00:00</time></trkpt><trkpt lat="39.562516" lon="-0.53133706"><ele>103.2</ele><time>2022-11-01T14:07:05.0000000+00:00</time></trkpt><trkpt lat="39.56255296" lon="-0.53128148"><ele>103.2</ele><time>2022-11-01T14:07:06.0000000+00:00</time></trkpt><trkpt lat="39.56258926" lon="-0.53123455"><ele>103.4</ele><time>2022-11-01T14:07:07.0000000+00:00</time></trkpt><trkpt lat="39.56262438" lon="-0.53118551"><ele>103.4</ele><time>2022-11-01T14:07:08.0000000+00:00</time></trkpt><trkpt lat="39.56265983" lon="-0.53113774"><ele>103.4</ele><time>2022-11-01T14:07:09.0000000+00:00</time></trkpt><trkpt lat="39.56269478" lon="-0.53109608"><ele>103.4</ele><time>2022-11-01T14:07:10.0000000+00:00</time></trkpt><trkpt lat="39.56272789" lon="-0.53105065"><ele>103.4</ele><time>2022-11-01T14:07:11.0000000+00:00</time></trkpt><trkpt lat="39.56276427" lon="-0.5310043"><ele>103.8</ele><time>2022-11-01T14:07:12.0000000+00:00</time></trkpt><trkpt lat="39.5628009" lon="-0.53096063"><ele>103.8</ele><time>2022-11-01T14:07:13.0000000+00:00</time></trkpt><trkpt lat="39.56283837" lon="-0.53091436"><ele>104.0</ele><time>2022-11-01T14:07:14.0000000+00:00</time></trkpt><trkpt lat="39.56287659" lon="-0.53086692"><ele>104.2</ele><time>2022-11-01T14:07:15.0000000+00:00</time></trkpt><trkpt lat="39.56290953" lon="-0.53082082"><ele>104.2</ele><time>2022-11-01T14:07:16.0000000+00:00</time></trkpt><trkpt lat="39.56294012" lon="-0.53078687"><ele>104.2</ele><time>2022-11-01T14:07:17.0000000+00:00</time></trkpt><trkpt lat="39.56296795" lon="-0.5307463"><ele>104.0</ele><time>2022-11-01T14:07:18.0000000+00:00</time></trkpt><trkpt lat="39.56299762" lon="-0.53070355"><ele>104.0</ele><time>2022-11-01T14:07:19.0000000+00:00</time></trkpt><trkpt lat="39.56302864" lon="-0.53066533"><ele>103.8</ele><time>2022-11-01T14:07:20.0000000+00:00</time></trkpt><trkpt lat="39.56305889" lon="-0.53062577"><ele>103.8</ele><time>2022-11-01T14:07:21.0000000+00:00</time></trkpt><trkpt lat="39.56308957" lon="-0.53058193"><ele>103.8</ele><time>2022-11-01T14:07:22.0000000+00:00</time></trkpt><trkpt lat="39.56312109" lon="-0.53053835"><ele>104.0</ele><time>2022-11-01T14:07:23.0000000+00:00</time></trkpt><trkpt lat="39.56315135" lon="-0.53048856"><ele>104.0</ele><time>2022-11-01T14:07:24.0000000+00:00</time></trkpt><trkpt lat="39.56318689" lon="-0.53043542"><ele>104.0</ele><time>2022-11-01T14:07:25.0000000+00:00</time></trkpt><trkpt lat="39.56322125" lon="-0.53038839"><ele>104.0</ele><time>2022-11-01T14:07:26.0000000+00:00</time></trkpt><trkpt lat="39.56325721" lon="-0.53034347"><ele>104.2</ele><time>2022-11-01T14:07:27.0000000+00:00</time></trkpt><trkpt lat="39.56329476" lon="-0.53029846"><ele>104.2</ele><time>2022-11-01T14:07:28.0000000+00:00</time></trkpt><trkpt lat="39.56332183" lon="-0.5302609"><ele>104.4</ele><time>2022-11-01T14:07:29.0000000+00:00</time></trkpt><trkpt lat="39.56336039" lon="-0.53020785"><ele>104.4</ele><time>2022-11-01T14:07:30.0000000+00:00</time></trkpt><trkpt lat="39.56338981" lon="-0.53016326"><ele>104.4</ele><time>2022-11-01T14:07:31.0000000+00:00</time></trkpt><trkpt lat="39.5634199" lon="-0.53012093"><ele>104.4</ele><time>2022-11-01T14:07:32.0000000+00:00</time></trkpt><trkpt lat="39.5634484" lon="-0.53007935"><ele>104.4</ele><time>2022-11-01T14:07:33.0000000+00:00</time></trkpt><trkpt lat="39.56347615" lon="-0.5300392"><ele>104.4</ele><time>2022-11-01T14:07:34.0000000+00:00</time></trkpt><trkpt lat="39.56350364" lon="-0.52999922"><ele>104.4</ele><time>2022-11-01T14:07:35.0000000+00:00</time></trkpt><trkpt lat="39.56352912" lon="-0.52995807"><ele>104.4</ele><time>2022-11-01T14:07:36.0000000+00:00</time></trkpt><trkpt lat="39.56355443" lon="-0.52991767"><ele>104.4</ele><time>2022-11-01T14:07:37.0000000+00:00</time></trkpt><trkpt lat="39.56358302" lon="-0.52987995"><ele>104.4</ele><time>2022-11-01T14:07:38.0000000+00:00</time></trkpt><trkpt lat="39.56360933" lon="-0.52984315"><ele>104.4</ele><time>2022-11-01T14:07:39.0000000+00:00</time></trkpt><trkpt lat="39.56363691" lon="-0.52980191"><ele>104.6</ele><time>2022-11-01T14:07:40.0000000+00:00</time></trkpt><trkpt lat="39.56366507" lon="-0.52976444"><ele>104.6</ele><time>2022-11-01T14:07:41.0000000+00:00</time></trkpt><trkpt lat="39.56368997" lon="-0.52972773"><ele>104.6</ele><time>2022-11-01T14:07:42.0000000+00:00</time></trkpt><trkpt lat="39.56371578" lon="-0.5296937"><ele>104.6</ele><time>2022-11-01T14:07:43.0000000+00:00</time></trkpt><trkpt lat="39.56373992" lon="-0.52966151"><ele>104.6</ele><time>2022-11-01T14:07:44.0000000+00:00</time></trkpt><trkpt lat="39.56376725" lon="-0.52962824"><ele>104.8</ele><time>2022-11-01T14:07:45.0000000+00:00</time></trkpt><trkpt lat="39.56379566" lon="-0.52959404"><ele>104.8</ele><time>2022-11-01T14:07:46.0000000+00:00</time></trkpt><trkpt lat="39.56382299" lon="-0.52955959"><ele>104.8</ele><time>2022-11-01T14:07:47.0000000+00:00</time></trkpt><trkpt lat="39.563853" lon="-0.52952883"><ele>104.8</ele><time>2022-11-01T14:07:48.0000000+00:00</time></trkpt><trkpt lat="39.5638825" lon="-0.52949321"><ele>104.8</ele><time>2022-11-01T14:07:49.0000000+00:00</time></trkpt><trkpt lat="39.56390924" lon="-0.529458"><ele>105.0</ele><time>2022-11-01T14:07:50.0000000+00:00</time></trkpt><trkpt lat="39.56393363" lon="-0.52942565"><ele>105.0</ele><time>2022-11-01T14:07:51.0000000+00:00</time></trkpt><trkpt lat="39.56395593" lon="-0.52939321"><ele>105.0</ele><time>2022-11-01T14:07:52.0000000+00:00</time></trkpt><trkpt lat="39.56398065" lon="-0.52936153"><ele>105.2</ele><time>2022-11-01T14:07:53.0000000+00:00</time></trkpt><trkpt lat="39.5640094" lon="-0.52932783"><ele>105.2</ele><time>2022-11-01T14:07:54.0000000+00:00</time></trkpt><trkpt lat="39.56403815" lon="-0.52929254"><ele>105.4</ele><time>2022-11-01T14:07:55.0000000+00:00</time></trkpt><trkpt lat="39.56406397" lon="-0.52925415"><ele>105.4</ele><time>2022-11-01T14:07:56.0000000+00:00</time></trkpt><trkpt lat="39.56408853" lon="-0.52921325"><ele>105.6</ele><time>2022-11-01T14:07:57.0000000+00:00</time></trkpt><trkpt lat="39.56411677" lon="-0.52916656"><ele>105.6</ele><time>2022-11-01T14:07:58.0000000+00:00</time></trkpt><trkpt lat="39.564141" lon="-0.52911921"><ele>105.8</ele><time>2022-11-01T14:07:59.0000000+00:00</time></trkpt><trkpt lat="39.56416941" lon="-0.52907193"><ele>105.8</ele><time>2022-11-01T14:08:00.0000000+00:00</time></trkpt><trkpt lat="39.56420126" lon="-0.52902499"><ele>105.8</ele><time>2022-11-01T14:08:01.0000000+00:00</time></trkpt><trkpt lat="39.56423119" lon="-0.52898367"><ele>105.8</ele><time>2022-11-01T14:08:02.0000000+00:00</time></trkpt><trkpt lat="39.56426539" lon="-0.52894327"><ele>106.0</ele><time>2022-11-01T14:08:03.0000000+00:00</time></trkpt><trkpt lat="39.56429724" lon="-0.52890597"><ele>106.0</ele><time>2022-11-01T14:08:04.0000000+00:00</time></trkpt><trkpt lat="39.56432297" lon="-0.52887479"><ele>106.0</ele><time>2022-11-01T14:08:05.0000000+00:00</time></trkpt><trkpt lat="39.56434317" lon="-0.52885115"><ele>106.2</ele><time>2022-11-01T14:08:06.0000000+00:00</time></trkpt><trkpt lat="39.5643679" lon="-0.52882265"><ele>106.2</ele><time>2022-11-01T14:08:07.0000000+00:00</time></trkpt><trkpt lat="39.56439807" lon="-0.52878787"><ele>106.4</ele><time>2022-11-01T14:08:08.0000000+00:00</time></trkpt><trkpt lat="39.56443562" lon="-0.52875551"><ele>106.4</ele><time>2022-11-01T14:08:09.0000000+00:00</time></trkpt><trkpt lat="39.56446094" lon="-0.52874386"><ele>106.6</ele><time>2022-11-01T14:08:10.0000000+00:00</time></trkpt><trkpt lat="39.56448642" lon="-0.52873858"><ele>106.6</ele><time>2022-11-01T14:08:11.0000000+00:00</time></trkpt><trkpt lat="39.56451005" lon="-0.52874655"><ele>106.8</ele><time>2022-11-01T14:08:12.0000000+00:00</time></trkpt><trkpt lat="39.56452539" lon="-0.52875258"><ele>106.8</ele><time>2022-11-01T14:08:13.0000000+00:00</time></trkpt><trkpt lat="39.56453444" lon="-0.52875007"><ele>107.0</ele><time>2022-11-01T14:08:14.0000000+00:00</time></trkpt><trkpt lat="39.5645383" lon="-0.52874546"><ele>107.0</ele><time>2022-11-01T14:08:15.0000000+00:00</time></trkpt><trkpt lat="39.56454098" lon="-0.52874403"><ele>107.0</ele><time>2022-11-01T14:08:16.0000000+00:00</time></trkpt><trkpt lat="39.56455163" lon="-0.52874353"><ele>107.0</ele><time>2022-11-01T14:08:17.0000000+00:00</time></trkpt><trkpt lat="39.56455607" lon="-0.52874428"><ele>107.0</ele><time>2022-11-01T14:08:18.0000000+00:00</time></trkpt><trkpt lat="39.56455481" lon="-0.52874093"><ele>107.0</ele><time>2022-11-01T14:08:19.0000000+00:00</time></trkpt><trkpt lat="39.56455238" lon="-0.52873498"><ele>107.0</ele><time>2022-11-01T14:08:20.0000000+00:00</time></trkpt><trkpt lat="39.56455238" lon="-0.52873498"><ele>106.8</ele><time>2022-11-01T14:08:21.0000000+00:00</time></trkpt><trkpt lat="39.56454836" lon="-0.52873364"><ele>106.6</ele><time>2022-11-01T14:08:22.0000000+00:00</time></trkpt><trkpt lat="39.56453713" lon="-0.52872081"><ele>106.6</ele><time>2022-11-01T14:08:23.0000000+00:00</time></trkpt><trkpt lat="39.56453419" lon="-0.52871645"><ele>106.6</ele><time>2022-11-01T14:08:24.0000000+00:00</time></trkpt><trkpt lat="39.56453419" lon="-0.52871645"><ele>106.6</ele><time>2022-11-01T14:08:25.0000000+00:00</time></trkpt><trkpt lat="39.56453084" lon="-0.52871"><ele>106.6</ele><time>2022-11-01T14:08:26.0000000+00:00</time></trkpt><trkpt lat="39.56452757" lon="-0.52870346"><ele>106.6</ele><time>2022-11-01T14:08:27.0000000+00:00</time></trkpt><trkpt lat="39.56452757" lon="-0.52870346"><ele>106.6</ele><time>2022-11-01T14:08:28.0000000+00:00</time></trkpt><trkpt lat="39.56452883" lon="-0.52871243"><ele>106.6</ele><time>2022-11-01T14:08:29.0000000+00:00</time></trkpt><trkpt lat="39.56453" lon="-0.52871788"><ele>106.6</ele><time>2022-11-01T14:08:30.0000000+00:00</time></trkpt><trkpt lat="39.56451676" lon="-0.52871805"><ele>106.6</ele><time>2022-11-01T14:08:31.0000000+00:00</time></trkpt><trkpt lat="39.56451424" lon="-0.52872106"><ele>106.4</ele><time>2022-11-01T14:08:32.0000000+00:00</time></trkpt><trkpt lat="39.56451424" lon="-0.52872106"><ele>106.4</ele><time>2022-11-01T14:08:33.0000000+00:00</time></trkpt><trkpt lat="39.56451198" lon="-0.52871562"><ele>106.4</ele><time>2022-11-01T14:08:34.0000000+00:00</time></trkpt><trkpt lat="39.56451223" lon="-0.52870975"><ele>106.4</ele><time>2022-11-01T14:08:35.0000000+00:00</time></trkpt><trkpt lat="39.56451299" lon="-0.52870179"><ele>106.4</ele><time>2022-11-01T14:08:36.0000000+00:00</time></trkpt><trkpt lat="39.56451299" lon="-0.52870162"><ele>106.4</ele><time>2022-11-01T14:08:37.0000000+00:00</time></trkpt><trkpt lat="39.56451081" lon="-0.52869584"><ele>106.4</ele><time>2022-11-01T14:08:38.0000000+00:00</time></trkpt><trkpt lat="39.56451324" lon="-0.52868703"><ele>106.6</ele><time>2022-11-01T14:08:39.0000000+00:00</time></trkpt><trkpt lat="39.56451626" lon="-0.52868536"><ele>106.6</ele><time>2022-11-01T14:08:40.0000000+00:00</time></trkpt><trkpt lat="39.56451626" lon="-0.52868536"><ele>106.6</ele><time>2022-11-01T14:08:41.0000000+00:00</time></trkpt><trkpt lat="39.56451626" lon="-0.52868536"><ele>106.8</ele><time>2022-11-01T14:08:42.0000000+00:00</time></trkpt><trkpt lat="39.56451626" lon="-0.52868536"><ele>106.8</ele><time>2022-11-01T14:08:43.0000000+00:00</time></trkpt><trkpt lat="39.56451626" lon="-0.52868536"><ele>106.8</ele><time>2022-11-01T14:08:44.0000000+00:00</time></trkpt><trkpt lat="39.56451626" lon="-0.52868536"><ele>106.8</ele><time>2022-11-01T14:08:45.0000000+00:00</time></trkpt><trkpt lat="39.56451207" lon="-0.52868812"><ele>107.0</ele><time>2022-11-01T14:08:46.0000000+00:00</time></trkpt><trkpt lat="39.56451466" lon="-0.52869156"><ele>107.0</ele><time>2022-11-01T14:08:47.0000000+00:00</time></trkpt><trkpt lat="39.56451466" lon="-0.52869156"><ele>107.0</ele><time>2022-11-01T14:08:48.0000000+00:00</time></trkpt><trkpt lat="39.56451466" lon="-0.52869156"><ele>107.0</ele><time>2022-11-01T14:08:49.0000000+00:00</time></trkpt><trkpt lat="39.56451466" lon="-0.52869156"><ele>107.0</ele><time>2022-11-01T14:08:50.0000000+00:00</time></trkpt><trkpt lat="39.56451466" lon="-0.52869156"><ele>107.0</ele><time>2022-11-01T14:08:51.0000000+00:00</time></trkpt><trkpt lat="39.56451567" lon="-0.52869273"><ele>107.0</ele><time>2022-11-01T14:08:52.0000000+00:00</time></trkpt><trkpt lat="39.56451944" lon="-0.52869776"><ele>107.0</ele><time>2022-11-01T14:08:53.0000000+00:00</time></trkpt><trkpt lat="39.56451282" lon="-0.52869382"><ele>107.0</ele><time>2022-11-01T14:08:54.0000000+00:00</time></trkpt><trkpt lat="39.56451072" lon="-0.52869072"><ele>107.0</ele><time>2022-11-01T14:08:55.0000000+00:00</time></trkpt><trkpt lat="39.56451022" lon="-0.52869525"><ele>107.0</ele><time>2022-11-01T14:08:56.0000000+00:00</time></trkpt><trkpt lat="39.56450947" lon="-0.5287064"><ele>107.0</ele><time>2022-11-01T14:08:57.0000000+00:00</time></trkpt><trkpt lat="39.56451994" lon="-0.52873079"><ele>106.8</ele><time>2022-11-01T14:08:58.0000000+00:00</time></trkpt><trkpt lat="39.56453704" lon="-0.5287649"><ele>106.8</ele><time>2022-11-01T14:08:59.0000000+00:00</time></trkpt><trkpt lat="39.56455238" lon="-0.52880011"><ele>106.8</ele><time>2022-11-01T14:09:00.0000000+00:00</time></trkpt><trkpt lat="39.56455783" lon="-0.52881377"><ele>106.8</ele><time>2022-11-01T14:09:01.0000000+00:00</time></trkpt><trkpt lat="39.56455926" lon="-0.52881645"><ele>106.8</ele><time>2022-11-01T14:09:02.0000000+00:00</time></trkpt><trkpt lat="39.56455624" lon="-0.52881612"><ele>106.8</ele><time>2022-11-01T14:09:03.0000000+00:00</time></trkpt><trkpt lat="39.56454886" lon="-0.52881528"><ele>106.8</ele><time>2022-11-01T14:09:04.0000000+00:00</time></trkpt><trkpt lat="39.56455045" lon="-0.52882056"><ele>106.8</ele><time>2022-11-01T14:09:05.0000000+00:00</time></trkpt><trkpt lat="39.56453763" lon="-0.52879793"><ele>107.0</ele><time>2022-11-01T14:09:06.0000000+00:00</time></trkpt><trkpt lat="39.56453612" lon="-0.52879692"><ele>106.8</ele><time>2022-11-01T14:09:07.0000000+00:00</time></trkpt><trkpt lat="39.56453612" lon="-0.52879692"><ele>106.8</ele><time>2022-11-01T14:09:08.0000000+00:00</time></trkpt><trkpt lat="39.56453612" lon="-0.52879692"><ele>106.8</ele><time>2022-11-01T14:09:09.0000000+00:00</time></trkpt><trkpt lat="39.56452715" lon="-0.52879198"><ele>106.8</ele><time>2022-11-01T14:09:10.0000000+00:00</time></trkpt><trkpt lat="39.56451165" lon="-0.52877907"><ele>106.8</ele><time>2022-11-01T14:09:11.0000000+00:00</time></trkpt><trkpt lat="39.5645036" lon="-0.52878167"><ele>106.6</ele><time>2022-11-01T14:09:12.0000000+00:00</time></trkpt><trkpt lat="39.56450477" lon="-0.52878502"><ele>106.6</ele><time>2022-11-01T14:09:13.0000000+00:00</time></trkpt><trkpt lat="39.56449874" lon="-0.52877437"><ele>106.6</ele><time>2022-11-01T14:09:14.0000000+00:00</time></trkpt><trkpt lat="39.56449681" lon="-0.52877027"><ele>106.6</ele><time>2022-11-01T14:09:15.0000000+00:00</time></trkpt><trkpt lat="39.56449614" lon="-0.52876884"><ele>106.6</ele><time>2022-11-01T14:09:16.0000000+00:00</time></trkpt><trkpt lat="39.56449614" lon="-0.52876884"><ele>106.6</ele><time>2022-11-01T14:09:17.0000000+00:00</time></trkpt><trkpt lat="39.56449614" lon="-0.52876884"><ele>106.6</ele><time>2022-11-01T14:09:18.0000000+00:00</time></trkpt><trkpt lat="39.56449614" lon="-0.52876884"><ele>106.6</ele><time>2022-11-01T14:09:19.0000000+00:00</time></trkpt><trkpt lat="39.56449614" lon="-0.52876884"><ele>106.6</ele><time>2022-11-01T14:09:20.0000000+00:00</time></trkpt><trkpt lat="39.56449614" lon="-0.52876884"><ele>106.8</ele><time>2022-11-01T14:09:21.0000000+00:00</time></trkpt><trkpt lat="39.56447644" lon="-0.52874554"><ele>106.8</ele><time>2022-11-01T14:09:22.0000000+00:00</time></trkpt><trkpt lat="39.56447443" lon="-0.52874722"><ele>106.6</ele><time>2022-11-01T14:09:23.0000000+00:00</time></trkpt><trkpt lat="39.56447443" lon="-0.52874722"><ele>106.6</ele><time>2022-11-01T14:09:24.0000000+00:00</time></trkpt><trkpt lat="39.56447443" lon="-0.52874722"><ele>106.6</ele><time>2022-11-01T14:09:25.0000000+00:00</time></trkpt><trkpt lat="39.56447443" lon="-0.52874722"><ele>106.6</ele><time>2022-11-01T14:09:26.0000000+00:00</time></trkpt><trkpt lat="39.56447443" lon="-0.52874722"><ele>106.6</ele><time>2022-11-01T14:09:27.0000000+00:00</time></trkpt><trkpt lat="39.56447443" lon="-0.52874722"><ele>106.6</ele><time>2022-11-01T14:09:28.0000000+00:00</time></trkpt><trkpt lat="39.56447443" lon="-0.52874722"><ele>106.6</ele><time>2022-11-01T14:09:29.0000000+00:00</time></trkpt><trkpt lat="39.56446689" lon="-0.5287359"><ele>106.6</ele><time>2022-11-01T14:09:30.0000000+00:00</time></trkpt><trkpt lat="39.5644585" lon="-0.52872609"><ele>106.6</ele><time>2022-11-01T14:09:31.0000000+00:00</time></trkpt><trkpt lat="39.56444576" lon="-0.52871193"><ele>106.6</ele><time>2022-11-01T14:09:32.0000000+00:00</time></trkpt><trkpt lat="39.56442867" lon="-0.52868486"><ele>106.6</ele><time>2022-11-01T14:09:33.0000000+00:00</time></trkpt><trkpt lat="39.56440235" lon="-0.52867262"><ele>106.6</ele><time>2022-11-01T14:09:34.0000000+00:00</time></trkpt><trkpt lat="39.56438617" lon="-0.5286613"><ele>106.6</ele><time>2022-11-01T14:09:35.0000000+00:00</time></trkpt><trkpt lat="39.56437418" lon="-0.52865024"><ele>106.6</ele><time>2022-11-01T14:09:36.0000000+00:00</time></trkpt><trkpt lat="39.5643658" lon="-0.52864026"><ele>106.6</ele><time>2022-11-01T14:09:37.0000000+00:00</time></trkpt><trkpt lat="39.56436211" lon="-0.52863482"><ele>106.6</ele><time>2022-11-01T14:09:38.0000000+00:00</time></trkpt><trkpt lat="39.56436211" lon="-0.52863482"><ele>106.6</ele><time>2022-11-01T14:09:39.0000000+00:00</time></trkpt><trkpt lat="39.56435122" lon="-0.52862819"><ele>106.6</ele><time>2022-11-01T14:09:40.0000000+00:00</time></trkpt><trkpt lat="39.56435381" lon="-0.5286287"><ele>106.6</ele><time>2022-11-01T14:09:41.0000000+00:00</time></trkpt><trkpt lat="39.56435356" lon="-0.52862811"><ele>106.8</ele><time>2022-11-01T14:09:42.0000000+00:00</time></trkpt><trkpt lat="39.5643534" lon="-0.52862777"><ele>106.8</ele><time>2022-11-01T14:09:43.0000000+00:00</time></trkpt><trkpt lat="39.5643534" lon="-0.52862777"><ele>106.8</ele><time>2022-11-01T14:09:44.0000000+00:00</time></trkpt><trkpt lat="39.5643534" lon="-0.52862777"><ele>106.6</ele><time>2022-11-01T14:09:45.0000000+00:00</time></trkpt><trkpt lat="39.5643534" lon="-0.52862777"><ele>106.6</ele><time>2022-11-01T14:09:46.0000000+00:00</time></trkpt><trkpt lat="39.5643689" lon="-0.528623"><ele>106.6</ele><time>2022-11-01T14:09:47.0000000+00:00</time></trkpt><trkpt lat="39.5643663" lon="-0.52862023"><ele>106.6</ele><time>2022-11-01T14:09:48.0000000+00:00</time></trkpt><trkpt lat="39.5643663" lon="-0.52862023"><ele>106.4</ele><time>2022-11-01T14:09:49.0000000+00:00</time></trkpt><trkpt lat="39.5643663" lon="-0.52862023"><ele>106.4</ele><time>2022-11-01T14:09:50.0000000+00:00</time></trkpt><trkpt lat="39.5643663" lon="-0.52862023"><ele>106.4</ele><time>2022-11-01T14:09:51.0000000+00:00</time></trkpt><trkpt lat="39.5643663" lon="-0.52862023"><ele>106.4</ele><time>2022-11-01T14:09:52.0000000+00:00</time></trkpt><trkpt lat="39.5643663" lon="-0.52862023"><ele>106.4</ele><time>2022-11-01T14:09:53.0000000+00:00</time></trkpt><trkpt lat="39.5643663" lon="-0.52862023"><ele>106.4</ele><time>2022-11-01T14:09:54.0000000+00:00</time></trkpt><trkpt lat="39.5643663" lon="-0.52862023"><ele>106.4</ele><time>2022-11-01T14:09:55.0000000+00:00</time></trkpt><trkpt lat="39.56437544" lon="-0.52862861"><ele>106.4</ele><time>2022-11-01T14:09:56.0000000+00:00</time></trkpt><trkpt lat="39.56438315" lon="-0.52864286"><ele>106.4</ele><time>2022-11-01T14:09:57.0000000+00:00</time></trkpt><trkpt lat="39.56439748" lon="-0.52866055"><ele>106.6</ele><time>2022-11-01T14:09:58.0000000+00:00</time></trkpt><trkpt lat="39.56440067" lon="-0.52866172"><ele>106.6</ele><time>2022-11-01T14:09:59.0000000+00:00</time></trkpt><trkpt lat="39.56440067" lon="-0.52866172"><ele>106.6</ele><time>2022-11-01T14:10:00.0000000+00:00</time></trkpt><trkpt lat="39.56440067" lon="-0.52866172"><ele>106.6</ele><time>2022-11-01T14:10:01.0000000+00:00</time></trkpt><trkpt lat="39.56440067" lon="-0.52866172"><ele>106.8</ele><time>2022-11-01T14:10:02.0000000+00:00</time></trkpt><trkpt lat="39.56439556" lon="-0.52865091"><ele>106.8</ele><time>2022-11-01T14:10:03.0000000+00:00</time></trkpt><trkpt lat="39.56439631" lon="-0.5286551"><ele>106.8</ele><time>2022-11-01T14:10:04.0000000+00:00</time></trkpt><trkpt lat="39.56439631" lon="-0.5286551"><ele>106.8</ele><time>2022-11-01T14:10:05.0000000+00:00</time></trkpt><trkpt lat="39.56439631" lon="-0.5286551"><ele>106.8</ele><time>2022-11-01T14:10:06.0000000+00:00</time></trkpt><trkpt lat="39.56439631" lon="-0.5286551"><ele>106.8</ele><time>2022-11-01T14:10:07.0000000+00:00</time></trkpt><trkpt lat="39.56439631" lon="-0.5286551"><ele>106.8</ele><time>2022-11-01T14:10:08.0000000+00:00</time></trkpt><trkpt lat="39.56439631" lon="-0.5286551"><ele>106.8</ele><time>2022-11-01T14:10:09.0000000+00:00</time></trkpt><trkpt lat="39.56439304" lon="-0.52864001"><ele>106.8</ele><time>2022-11-01T14:10:10.0000000+00:00</time></trkpt><trkpt lat="39.56439237" lon="-0.52862895"><ele>106.8</ele><time>2022-11-01T14:10:11.0000000+00:00</time></trkpt><trkpt lat="39.56438826" lon="-0.52862685"><ele>106.8</ele><time>2022-11-01T14:10:12.0000000+00:00</time></trkpt><trkpt lat="39.56438868" lon="-0.52862023"><ele>106.8</ele><time>2022-11-01T14:10:13.0000000+00:00</time></trkpt><trkpt lat="39.56438726" lon="-0.5286183"><ele>106.8</ele><time>2022-11-01T14:10:14.0000000+00:00</time></trkpt><trkpt lat="39.56438944" lon="-0.52861369"><ele>106.8</ele><time>2022-11-01T14:10:15.0000000+00:00</time></trkpt><trkpt lat="39.56439162" lon="-0.52860674"><ele>106.6</ele><time>2022-11-01T14:10:16.0000000+00:00</time></trkpt><trkpt lat="39.56446244" lon="-0.5285137"><ele>106.4</ele><time>2022-11-01T14:10:24.0000000+00:00</time></trkpt><trkpt lat="39.56427326" lon="-0.52859006"><ele>106.4</ele><time>2022-11-01T14:10:41.0000000+00:00</time></trkpt><trkpt lat="39.56436748" lon="-0.52864999"><ele>106.4</ele><time>2022-11-01T14:10:42.0000000+00:00</time></trkpt><trkpt lat="39.56438215" lon="-0.52869156"><ele>106.2</ele><time>2022-11-01T14:10:44.0000000+00:00</time></trkpt><trkpt lat="39.56436991" lon="-0.52876482"><ele>106.2</ele><time>2022-11-01T14:10:45.0000000+00:00</time></trkpt><trkpt lat="39.56439002" lon="-0.52873364"><ele>106.2</ele><time>2022-11-01T14:10:46.0000000+00:00</time></trkpt><trkpt lat="39.56441023" lon="-0.52869449"><ele>106.2</ele><time>2022-11-01T14:10:47.0000000+00:00</time></trkpt><trkpt lat="39.56440872" lon="-0.52870539"><ele>106.2</ele><time>2022-11-01T14:10:48.0000000+00:00</time></trkpt><trkpt lat="39.56440905" lon="-0.52874018"><ele>106.4</ele><time>2022-11-01T14:10:51.0000000+00:00</time></trkpt><trkpt lat="39.56441199" lon="-0.5287768"><ele>106.4</ele><time>2022-11-01T14:10:54.0000000+00:00</time></trkpt><trkpt lat="39.5644124" lon="-0.52880765"><ele>106.4</ele><time>2022-11-01T14:10:56.0000000+00:00</time></trkpt><trkpt lat="39.5643161" lon="-0.52879097"><ele>106.4</ele><time>2022-11-01T14:10:57.0000000+00:00</time></trkpt><trkpt lat="39.56432557" lon="-0.52879516"><ele>106.4</ele><time>2022-11-01T14:10:58.0000000+00:00</time></trkpt><trkpt lat="39.56431962" lon="-0.52880011"><ele>106.4</ele><time>2022-11-01T14:10:59.0000000+00:00</time></trkpt><trkpt lat="39.56435599" lon="-0.52885677"><ele>106.4</ele><time>2022-11-01T14:11:00.0000000+00:00</time></trkpt><trkpt lat="39.56434828" lon="-0.52885836"><ele>106.4</ele><time>2022-11-01T14:11:01.0000000+00:00</time></trkpt><trkpt lat="39.56435951" lon="-0.52886758"><ele>106.4</ele><time>2022-11-01T14:11:02.0000000+00:00</time></trkpt><trkpt lat="39.56438684" lon="-0.52890404"><ele>106.4</ele><time>2022-11-01T14:11:03.0000000+00:00</time></trkpt><trkpt lat="39.56438365" lon="-0.52857262"><ele>106.4</ele><time>2022-11-01T14:11:22.0000000+00:00</time></trkpt><trkpt lat="39.56459588" lon="-0.52865309"><ele>106.4</ele><time>2022-11-01T14:11:25.0000000+00:00</time></trkpt><trkpt lat="39.5645528" lon="-0.52864429"><ele>106.4</ele><time>2022-11-01T14:11:26.0000000+00:00</time></trkpt><trkpt lat="39.56448801" lon="-0.52861855"><ele>106.4</ele><time>2022-11-01T14:11:27.0000000+00:00</time></trkpt><trkpt lat="39.56441148" lon="-0.5286727"><ele>106.4</ele><time>2022-11-01T14:11:28.0000000+00:00</time></trkpt><trkpt lat="39.56439237" lon="-0.528638"><ele>106.4</ele><time>2022-11-01T14:11:29.0000000+00:00</time></trkpt><trkpt lat="39.56434032" lon="-0.52861956"><ele>106.4</ele><time>2022-11-01T14:11:30.0000000+00:00</time></trkpt><trkpt lat="39.56432917" lon="-0.52860246"><ele>106.4</ele><time>2022-11-01T14:11:31.0000000+00:00</time></trkpt><trkpt lat="39.56432238" lon="-0.52859274"><ele>106.4</ele><time>2022-11-01T14:11:32.0000000+00:00</time></trkpt><trkpt lat="39.56431911" lon="-0.52859006"><ele>106.4</ele><time>2022-11-01T14:11:33.0000000+00:00</time></trkpt><trkpt lat="39.56431626" lon="-0.52859106"><ele>106.4</ele><time>2022-11-01T14:11:34.0000000+00:00</time></trkpt><trkpt lat="39.56431786" lon="-0.5286028"><ele>106.4</ele><time>2022-11-01T14:11:35.0000000+00:00</time></trkpt><trkpt lat="39.56432004" lon="-0.52861411"><ele>106.4</ele><time>2022-11-01T14:11:36.0000000+00:00</time></trkpt><trkpt lat="39.56431769" lon="-0.52861654"><ele>106.4</ele><time>2022-11-01T14:11:37.0000000+00:00</time></trkpt><trkpt lat="39.56431291" lon="-0.52861034"><ele>106.4</ele><time>2022-11-01T14:11:38.0000000+00:00</time></trkpt><trkpt lat="39.56431015" lon="-0.528609"><ele>106.4</ele><time>2022-11-01T14:11:39.0000000+00:00</time></trkpt><trkpt lat="39.56430453" lon="-0.52862006"><ele>106.4</ele><time>2022-11-01T14:11:40.0000000+00:00</time></trkpt><trkpt lat="39.56429439" lon="-0.52861855"><ele>106.4</ele><time>2022-11-01T14:11:41.0000000+00:00</time></trkpt><trkpt lat="39.5642627" lon="-0.52862903"><ele>106.4</ele><time>2022-11-01T14:11:44.0000000+00:00</time></trkpt><trkpt lat="39.56425902" lon="-0.52862719"><ele>106.4</ele><time>2022-11-01T14:11:45.0000000+00:00</time></trkpt><trkpt lat="39.56425927" lon="-0.52864177"><ele>106.4</ele><time>2022-11-01T14:11:48.0000000+00:00</time></trkpt><trkpt lat="39.5642684" lon="-0.52864529"><ele>106.4</ele><time>2022-11-01T14:11:49.0000000+00:00</time></trkpt><trkpt lat="39.56428408" lon="-0.52866574"><ele>106.4</ele><time>2022-11-01T14:11:53.0000000+00:00</time></trkpt><trkpt lat="39.56430746" lon="-0.52866256"><ele>106.4</ele><time>2022-11-01T14:11:54.0000000+00:00</time></trkpt><trkpt lat="39.56435683" lon="-0.52859115"><ele>106.4</ele><time>2022-11-01T14:11:59.0000000+00:00</time></trkpt><trkpt lat="39.56436739" lon="-0.52855443"><ele>106.4</ele><time>2022-11-01T14:12:00.0000000+00:00</time></trkpt><trkpt lat="39.56436513" lon="-0.52856131"><ele>106.4</ele><time>2022-11-01T14:12:04.0000000+00:00</time></trkpt><trkpt lat="39.56436136" lon="-0.52858704"><ele>106.4</ele><time>2022-11-01T14:12:05.0000000+00:00</time></trkpt><trkpt lat="39.56435097" lon="-0.52861235"><ele>106.4</ele><time>2022-11-01T14:12:07.0000000+00:00</time></trkpt><trkpt lat="39.56435097" lon="-0.52861143"><ele>106.4</ele><time>2022-11-01T14:12:08.0000000+00:00</time></trkpt><trkpt lat="39.56431241" lon="-0.52863498"><ele>106.4</ele><time>2022-11-01T14:12:10.0000000+00:00</time></trkpt><trkpt lat="39.56426815" lon="-0.52865066"><ele>106.4</ele><time>2022-11-01T14:12:12.0000000+00:00</time></trkpt><trkpt lat="39.56418844" lon="-0.52857765"><ele>106.4</ele><time>2022-11-01T14:12:31.0000000+00:00</time></trkpt><trkpt lat="39.56419439" lon="-0.52865895"><ele>106.4</ele><time>2022-11-01T14:12:33.0000000+00:00</time></trkpt><trkpt lat="39.56461483" lon="-0.52899381"><ele>106.4</ele><time>2022-11-01T14:39:28.0000000+00:00</time></trkpt><trkpt lat="39.56462799" lon="-0.52897219"><ele>106.4</ele><time>2022-11-01T14:39:29.0000000+00:00</time></trkpt><trkpt lat="39.56467551" lon="-0.52909674"><ele>106.4</ele><time>2022-11-01T14:39:30.0000000+00:00</time></trkpt><trkpt lat="39.56465246" lon="-0.52888418"><ele>106.4</ele><time>2022-11-01T14:39:31.0000000+00:00</time></trkpt><trkpt lat="39.56441961" lon="-0.52853708"><ele>106.4</ele><time>2022-11-01T14:39:32.0000000+00:00</time></trkpt><trkpt lat="39.5644124" lon="-0.52851101"><ele>106.4</ele><time>2022-11-01T14:39:33.0000000+00:00</time></trkpt><trkpt lat="39.56442649" lon="-0.52851462"><ele>106.4</ele><time>2022-11-01T14:39:34.0000000+00:00</time></trkpt><trkpt lat="39.5644295" lon="-0.52851336"><ele>106.4</ele><time>2022-11-01T14:39:35.0000000+00:00</time></trkpt><trkpt lat="39.56442598" lon="-0.52850716"><ele>106.4</ele><time>2022-11-01T14:39:36.0000000+00:00</time></trkpt><trkpt lat="39.56441316" lon="-0.52851764"><ele>106.4</ele><time>2022-11-01T14:39:37.0000000+00:00</time></trkpt><trkpt lat="39.56440243" lon="-0.52850992"><ele>106.4</ele><time>2022-11-01T14:39:38.0000000+00:00</time></trkpt><trkpt lat="39.56439891" lon="-0.52851026"><ele>106.4</ele><time>2022-11-01T14:39:39.0000000+00:00</time></trkpt><trkpt lat="39.56439732" lon="-0.52850808"><ele>106.2</ele><time>2022-11-01T14:39:40.0000000+00:00</time></trkpt><trkpt lat="39.56438877" lon="-0.52849685"><ele>106.2</ele><time>2022-11-01T14:39:41.0000000+00:00</time></trkpt><trkpt lat="39.5644005" lon="-0.52854999"><ele>106.0</ele><time>2022-11-01T14:39:42.0000000+00:00</time></trkpt><trkpt lat="39.56440469" lon="-0.52857388"><ele>106.0</ele><time>2022-11-01T14:39:43.0000000+00:00</time></trkpt><trkpt lat="39.56441668" lon="-0.52859643"><ele>106.0</ele><time>2022-11-01T14:39:44.0000000+00:00</time></trkpt><trkpt lat="39.56441961" lon="-0.52859425"><ele>106.0</ele><time>2022-11-01T14:39:45.0000000+00:00</time></trkpt><trkpt lat="39.56442431" lon="-0.52859601"><ele>106.0</ele><time>2022-11-01T14:39:46.0000000+00:00</time></trkpt><trkpt lat="39.56442833" lon="-0.52860489"><ele>106.0</ele><time>2022-11-01T14:39:47.0000000+00:00</time></trkpt><trkpt lat="39.56443034" lon="-0.52859852"><ele>106.0</ele><time>2022-11-01T14:39:48.0000000+00:00</time></trkpt><trkpt lat="39.56444325" lon="-0.52861436"><ele>106.0</ele><time>2022-11-01T14:39:49.0000000+00:00</time></trkpt><trkpt lat="39.56445389" lon="-0.52863507"><ele>106.2</ele><time>2022-11-01T14:39:50.0000000+00:00</time></trkpt><trkpt lat="39.56445633" lon="-0.52863515"><ele>106.2</ele><time>2022-11-01T14:39:51.0000000+00:00</time></trkpt><trkpt lat="39.56445314" lon="-0.52863146"><ele>106.2</ele><time>2022-11-01T14:39:52.0000000+00:00</time></trkpt><trkpt lat="39.56445691" lon="-0.52864102"><ele>106.4</ele><time>2022-11-01T14:39:53.0000000+00:00</time></trkpt><trkpt lat="39.56445817" lon="-0.52864663"><ele>106.4</ele><time>2022-11-01T14:39:54.0000000+00:00</time></trkpt><trkpt lat="39.56446001" lon="-0.52865485"><ele>106.6</ele><time>2022-11-01T14:39:55.0000000+00:00</time></trkpt><trkpt lat="39.56445725" lon="-0.52864638"><ele>106.6</ele><time>2022-11-01T14:39:56.0000000+00:00</time></trkpt><trkpt lat="39.56445448" lon="-0.52863859"><ele>106.6</ele><time>2022-11-01T14:39:57.0000000+00:00</time></trkpt><trkpt lat="39.56444937" lon="-0.52862828"><ele>106.6</ele><time>2022-11-01T14:39:58.0000000+00:00</time></trkpt><trkpt lat="39.5644461" lon="-0.52861654"><ele>106.6</ele><time>2022-11-01T14:39:59.0000000+00:00</time></trkpt><trkpt lat="39.56444367" lon="-0.52860548"><ele>106.4</ele><time>2022-11-01T14:40:00.0000000+00:00</time></trkpt><trkpt lat="39.56444493" lon="-0.52859416"><ele>106.4</ele><time>2022-11-01T14:40:01.0000000+00:00</time></trkpt><trkpt lat="39.56444786" lon="-0.52859374"><ele>106.4</ele><time>2022-11-01T14:40:02.0000000+00:00</time></trkpt><trkpt lat="39.56444434" lon="-0.5285867"><ele>106.4</ele><time>2022-11-01T14:40:03.0000000+00:00</time></trkpt><trkpt lat="39.56444451" lon="-0.52858478"><ele>106.6</ele><time>2022-11-01T14:40:04.0000000+00:00</time></trkpt><trkpt lat="39.56445758" lon="-0.52859659"><ele>106.6</ele><time>2022-11-01T14:40:05.0000000+00:00</time></trkpt><trkpt lat="39.56445968" lon="-0.52859416"><ele>106.8</ele><time>2022-11-01T14:40:06.0000000+00:00</time></trkpt><trkpt lat="39.56446915" lon="-0.52860975"><ele>106.8</ele><time>2022-11-01T14:40:07.0000000+00:00</time></trkpt><trkpt lat="39.56447678" lon="-0.5286142"><ele>107.0</ele><time>2022-11-01T14:40:08.0000000+00:00</time></trkpt><trkpt lat="39.56447678" lon="-0.5286142"><ele>107.0</ele><time>2022-11-01T14:40:09.0000000+00:00</time></trkpt><trkpt lat="39.56447678" lon="-0.5286142"><ele>107.0</ele><time>2022-11-01T14:40:10.0000000+00:00</time></trkpt><trkpt lat="39.56447678" lon="-0.5286142"><ele>107.0</ele><time>2022-11-01T14:40:11.0000000+00:00</time></trkpt><trkpt lat="39.56447938" lon="-0.52861679"><ele>107.0</ele><time>2022-11-01T14:40:12.0000000+00:00</time></trkpt><trkpt lat="39.56449807" lon="-0.52865359"><ele>107.0</ele><time>2022-11-01T14:40:13.0000000+00:00</time></trkpt><trkpt lat="39.56451148" lon="-0.52868553"><ele>107.0</ele><time>2022-11-01T14:40:14.0000000+00:00</time></trkpt><trkpt lat="39.56452003" lon="-0.52872584"><ele>107.0</ele><time>2022-11-01T14:40:15.0000000+00:00</time></trkpt><trkpt lat="39.56452129" lon="-0.52872869"><ele>107.0</ele><time>2022-11-01T14:40:16.0000000+00:00</time></trkpt><trkpt lat="39.56452472" lon="-0.52873808"><ele>106.6</ele><time>2022-11-01T14:40:17.0000000+00:00</time></trkpt><trkpt lat="39.56452866" lon="-0.52875199"><ele>106.6</ele><time>2022-11-01T14:40:18.0000000+00:00</time></trkpt><trkpt lat="39.56453964" lon="-0.52876733"><ele>106.4</ele><time>2022-11-01T14:40:19.0000000+00:00</time></trkpt><trkpt lat="39.56454325" lon="-0.52877127"><ele>106.4</ele><time>2022-11-01T14:40:20.0000000+00:00</time></trkpt><trkpt lat="39.56453855" lon="-0.5287675"><ele>106.2</ele><time>2022-11-01T14:40:21.0000000+00:00</time></trkpt><trkpt lat="39.56453595" lon="-0.52877052"><ele>106.2</ele><time>2022-11-01T14:40:22.0000000+00:00</time></trkpt><trkpt lat="39.56453679" lon="-0.52877546"><ele>106.2</ele><time>2022-11-01T14:40:23.0000000+00:00</time></trkpt><trkpt lat="39.56454207" lon="-0.52878561"><ele>106.2</ele><time>2022-11-01T14:40:24.0000000+00:00</time></trkpt><trkpt lat="39.56454836" lon="-0.52880715"><ele>106.2</ele><time>2022-11-01T14:40:25.0000000+00:00</time></trkpt><trkpt lat="39.56454744" lon="-0.52881385"><ele>106.0</ele><time>2022-11-01T14:40:26.0000000+00:00</time></trkpt><trkpt lat="39.5645492" lon="-0.52882944"><ele>106.0</ele><time>2022-11-01T14:40:27.0000000+00:00</time></trkpt><trkpt lat="39.56455054" lon="-0.52882961"><ele>106.0</ele><time>2022-11-01T14:40:28.0000000+00:00</time></trkpt><trkpt lat="39.56454199" lon="-0.52881008"><ele>105.8</ele><time>2022-11-01T14:40:29.0000000+00:00</time></trkpt><trkpt lat="39.56453369" lon="-0.52880421"><ele>105.8</ele><time>2022-11-01T14:40:30.0000000+00:00</time></trkpt><trkpt lat="39.5645259" lon="-0.52880229"><ele>105.8</ele><time>2022-11-01T14:40:31.0000000+00:00</time></trkpt><trkpt lat="39.56451383" lon="-0.52879022"><ele>105.8</ele><time>2022-11-01T14:40:32.0000000+00:00</time></trkpt><trkpt lat="39.56450611" lon="-0.52877588"><ele>105.8</ele><time>2022-11-01T14:40:33.0000000+00:00</time></trkpt><trkpt lat="39.56450335" lon="-0.52876943"><ele>105.8</ele><time>2022-11-01T14:40:34.0000000+00:00</time></trkpt><trkpt lat="39.56450368" lon="-0.52876138"><ele>105.8</ele><time>2022-11-01T14:40:35.0000000+00:00</time></trkpt><trkpt lat="39.56450326" lon="-0.52875233"><ele>106.0</ele><time>2022-11-01T14:40:36.0000000+00:00</time></trkpt><trkpt lat="39.56450469" lon="-0.52874529"><ele>106.0</ele><time>2022-11-01T14:40:37.0000000+00:00</time></trkpt><trkpt lat="39.56451232" lon="-0.52875074"><ele>106.0</ele><time>2022-11-01T14:40:38.0000000+00:00</time></trkpt><trkpt lat="39.56452355" lon="-0.52876448"><ele>106.2</ele><time>2022-11-01T14:40:39.0000000+00:00</time></trkpt><trkpt lat="39.56453336" lon="-0.52876214"><ele>106.2</ele><time>2022-11-01T14:40:40.0000000+00:00</time></trkpt><trkpt lat="39.56457074" lon="-0.52877689"><ele>106.2</ele><time>2022-11-01T14:40:41.0000000+00:00</time></trkpt><trkpt lat="39.56457485" lon="-0.52876415"><ele>106.2</ele><time>2022-11-01T14:40:42.0000000+00:00</time></trkpt><trkpt lat="39.56457887" lon="-0.52875359"><ele>106.2</ele><time>2022-11-01T14:40:43.0000000+00:00</time></trkpt><trkpt lat="39.56458038" lon="-0.52874043"><ele>106.2</ele><time>2022-11-01T14:40:44.0000000+00:00</time></trkpt><trkpt lat="39.56458306" lon="-0.52873179"><ele>106.0</ele><time>2022-11-01T14:40:45.0000000+00:00</time></trkpt><trkpt lat="39.56458365" lon="-0.52872802"><ele>106.0</ele><time>2022-11-01T14:40:46.0000000+00:00</time></trkpt><trkpt lat="39.56458222" lon="-0.52872559"><ele>106.0</ele><time>2022-11-01T14:40:47.0000000+00:00</time></trkpt><trkpt lat="39.56457954" lon="-0.52871998"><ele>106.2</ele><time>2022-11-01T14:40:48.0000000+00:00</time></trkpt><trkpt lat="39.5645782" lon="-0.52871537"><ele>106.2</ele><time>2022-11-01T14:40:49.0000000+00:00</time></trkpt><trkpt lat="39.56457811" lon="-0.52870791"><ele>106.2</ele><time>2022-11-01T14:40:50.0000000+00:00</time></trkpt><trkpt lat="39.56458122" lon="-0.52869743"><ele>106.2</ele><time>2022-11-01T14:40:51.0000000+00:00</time></trkpt><trkpt lat="39.56458281" lon="-0.52868963"><ele>106.2</ele><time>2022-11-01T14:40:52.0000000+00:00</time></trkpt><trkpt lat="39.5645865" lon="-0.52868142"><ele>106.2</ele><time>2022-11-01T14:40:53.0000000+00:00</time></trkpt><trkpt lat="39.56458968" lon="-0.52867547"><ele>106.2</ele><time>2022-11-01T14:40:54.0000000+00:00</time></trkpt><trkpt lat="39.56459052" lon="-0.52867153"><ele>106.2</ele><time>2022-11-01T14:40:55.0000000+00:00</time></trkpt><trkpt lat="39.56459052" lon="-0.52867354"><ele>106.2</ele><time>2022-11-01T14:40:56.0000000+00:00</time></trkpt><trkpt lat="39.56458566" lon="-0.52867513"><ele>106.2</ele><time>2022-11-01T14:40:57.0000000+00:00</time></trkpt><trkpt lat="39.56457585" lon="-0.52867471"><ele>106.2</ele><time>2022-11-01T14:40:58.0000000+00:00</time></trkpt><trkpt lat="39.56456495" lon="-0.52867245"><ele>106.2</ele><time>2022-11-01T14:40:59.0000000+00:00</time></trkpt><trkpt lat="39.56455951" lon="-0.52867505"><ele>106.2</ele><time>2022-11-01T14:41:00.0000000+00:00</time></trkpt><trkpt lat="39.56455104" lon="-0.52866985"><ele>106.2</ele><time>2022-11-01T14:41:01.0000000+00:00</time></trkpt><trkpt lat="39.56453679" lon="-0.52865661"><ele>106.2</ele><time>2022-11-01T14:41:02.0000000+00:00</time></trkpt><trkpt lat="39.56452506" lon="-0.52865971"><ele>106.2</ele><time>2022-11-01T14:41:03.0000000+00:00</time></trkpt><trkpt lat="39.56452061" lon="-0.52865929"><ele>106.2</ele><time>2022-11-01T14:41:04.0000000+00:00</time></trkpt><trkpt lat="39.56452061" lon="-0.52865929"><ele>106.2</ele><time>2022-11-01T14:41:05.0000000+00:00</time></trkpt><trkpt lat="39.56452061" lon="-0.52865929"><ele>106.2</ele><time>2022-11-01T14:41:06.0000000+00:00</time></trkpt><trkpt lat="39.56452061" lon="-0.52865929"><ele>106.2</ele><time>2022-11-01T14:41:07.0000000+00:00</time></trkpt><trkpt lat="39.56452061" lon="-0.52865929"><ele>106.2</ele><time>2022-11-01T14:41:08.0000000+00:00</time></trkpt><trkpt lat="39.56451978" lon="-0.52866055"><ele>106.2</ele><time>2022-11-01T14:41:09.0000000+00:00</time></trkpt><trkpt lat="39.56451844" lon="-0.52865946"><ele>106.2</ele><time>2022-11-01T14:41:10.0000000+00:00</time></trkpt><trkpt lat="39.56451844" lon="-0.52865946"><ele>106.4</ele><time>2022-11-01T14:41:11.0000000+00:00</time></trkpt><trkpt lat="39.56451844" lon="-0.52865946"><ele>106.4</ele><time>2022-11-01T14:41:12.0000000+00:00</time></trkpt><trkpt lat="39.56451844" lon="-0.52865946"><ele>106.4</ele><time>2022-11-01T14:41:13.0000000+00:00</time></trkpt><trkpt lat="39.56451844" lon="-0.52865946"><ele>106.4</ele><time>2022-11-01T14:41:14.0000000+00:00</time></trkpt><trkpt lat="39.56451844" lon="-0.52865946"><ele>106.6</ele><time>2022-11-01T14:41:15.0000000+00:00</time></trkpt><trkpt lat="39.56451844" lon="-0.52865946"><ele>106.6</ele><time>2022-11-01T14:41:16.0000000+00:00</time></trkpt><trkpt lat="39.56451844" lon="-0.52865946"><ele>106.6</ele><time>2022-11-01T14:41:17.0000000+00:00</time></trkpt><trkpt lat="39.56451844" lon="-0.52865946"><ele>106.6</ele><time>2022-11-01T14:41:18.0000000+00:00</time></trkpt><trkpt lat="39.56451844" lon="-0.52865946"><ele>106.8</ele><time>2022-11-01T14:41:19.0000000+00:00</time></trkpt><trkpt lat="39.56451844" lon="-0.52865946"><ele>106.6</ele><time>2022-11-01T14:41:20.0000000+00:00</time></trkpt><trkpt lat="39.56451844" lon="-0.52865946"><ele>106.6</ele><time>2022-11-01T14:41:21.0000000+00:00</time></trkpt><trkpt lat="39.56451743" lon="-0.52865946"><ele>106.6</ele><time>2022-11-01T14:41:22.0000000+00:00</time></trkpt><trkpt lat="39.56451735" lon="-0.52865946"><ele>106.6</ele><time>2022-11-01T14:41:23.0000000+00:00</time></trkpt><trkpt lat="39.56451735" lon="-0.52865946"><ele>106.6</ele><time>2022-11-01T14:41:24.0000000+00:00</time></trkpt><trkpt lat="39.56451735" lon="-0.52865971"><ele>106.4</ele><time>2022-11-01T14:41:25.0000000+00:00</time></trkpt><trkpt lat="39.56451735" lon="-0.52866072"><ele>106.4</ele><time>2022-11-01T14:41:26.0000000+00:00</time></trkpt><trkpt lat="39.56451735" lon="-0.52866256"><ele>106.4</ele><time>2022-11-01T14:41:27.0000000+00:00</time></trkpt><trkpt lat="39.56451735" lon="-0.52866323"><ele>106.6</ele><time>2022-11-01T14:41:28.0000000+00:00</time></trkpt><trkpt lat="39.56451718" lon="-0.52866331"><ele>106.6</ele><time>2022-11-01T14:41:29.0000000+00:00</time></trkpt><trkpt lat="39.56451559" lon="-0.52866331"><ele>106.6</ele><time>2022-11-01T14:41:30.0000000+00:00</time></trkpt><trkpt lat="39.56451533" lon="-0.52866331"><ele>106.6</ele><time>2022-11-01T14:41:31.0000000+00:00</time></trkpt><trkpt lat="39.56451508" lon="-0.52866331"><ele>106.6</ele><time>2022-11-01T14:41:32.0000000+00:00</time></trkpt><trkpt lat="39.56451466" lon="-0.52866331"><ele>106.6</ele><time>2022-11-01T14:41:33.0000000+00:00</time></trkpt><trkpt lat="39.5645145" lon="-0.52866331"><ele>106.4</ele><time>2022-11-01T14:41:34.0000000+00:00</time></trkpt><trkpt lat="39.56451408" lon="-0.52866331"><ele>106.4</ele><time>2022-11-01T14:41:35.0000000+00:00</time></trkpt><trkpt lat="39.56451349" lon="-0.52866331"><ele>106.4</ele><time>2022-11-01T14:41:36.0000000+00:00</time></trkpt><trkpt lat="39.56451307" lon="-0.52866289"><ele>106.4</ele><time>2022-11-01T14:41:37.0000000+00:00</time></trkpt><trkpt lat="39.56451299" lon="-0.52866273"><ele>106.4</ele><time>2022-11-01T14:41:38.0000000+00:00</time></trkpt><trkpt lat="39.56451299" lon="-0.52866105"><ele>106.4</ele><time>2022-11-01T14:41:39.0000000+00:00</time></trkpt><trkpt lat="39.56451299" lon="-0.52865895"><ele>106.4</ele><time>2022-11-01T14:41:40.0000000+00:00</time></trkpt><trkpt lat="39.5645124" lon="-0.52865619"><ele>106.4</ele><time>2022-11-01T14:41:41.0000000+00:00</time></trkpt><trkpt lat="39.56451106" lon="-0.528653"><ele>106.4</ele><time>2022-11-01T14:41:42.0000000+00:00</time></trkpt><trkpt lat="39.56451047" lon="-0.52865141"><ele>106.2</ele><time>2022-11-01T14:41:43.0000000+00:00</time></trkpt><trkpt lat="39.5645103" lon="-0.52864797"><ele>106.2</ele><time>2022-11-01T14:41:44.0000000+00:00</time></trkpt><trkpt lat="39.56451014" lon="-0.5286442"><ele>106.2</ele><time>2022-11-01T14:41:45.0000000+00:00</time></trkpt><trkpt lat="39.56450972" lon="-0.52863716"><ele>106.2</ele><time>2022-11-01T14:41:46.0000000+00:00</time></trkpt><trkpt lat="39.56450687" lon="-0.52863406"><ele>106.0</ele><time>2022-11-01T14:41:47.0000000+00:00</time></trkpt><trkpt lat="39.56450486" lon="-0.52863272"><ele>106.0</ele><time>2022-11-01T14:41:48.0000000+00:00</time></trkpt><trkpt lat="39.56451207" lon="-0.52864311"><ele>106.0</ele><time>2022-11-01T14:41:49.0000000+00:00</time></trkpt><trkpt lat="39.56451441" lon="-0.52865258"><ele>106.0</ele><time>2022-11-01T14:41:50.0000000+00:00</time></trkpt><trkpt lat="39.56451483" lon="-0.52865409"><ele>105.8</ele><time>2022-11-01T14:41:51.0000000+00:00</time></trkpt><trkpt lat="39.56451525" lon="-0.52865233"><ele>105.8</ele><time>2022-11-01T14:41:52.0000000+00:00</time></trkpt><trkpt lat="39.56451399" lon="-0.5286473"><ele>105.8</ele><time>2022-11-01T14:41:53.0000000+00:00</time></trkpt><trkpt lat="39.5645119" lon="-0.5286411"><ele>105.8</ele><time>2022-11-01T14:41:54.0000000+00:00</time></trkpt><trkpt lat="39.56451131" lon="-0.52864018"><ele>105.8</ele><time>2022-11-01T14:41:55.0000000+00:00</time></trkpt><trkpt lat="39.56450762" lon="-0.5286344"><ele>105.8</ele><time>2022-11-01T14:41:56.0000000+00:00</time></trkpt><trkpt lat="39.56450276" lon="-0.52862249"><ele>105.8</ele><time>2022-11-01T14:41:57.0000000+00:00</time></trkpt><trkpt lat="39.56450058" lon="-0.52861294"><ele>105.6</ele><time>2022-11-01T14:41:58.0000000+00:00</time></trkpt><trkpt lat="39.56450033" lon="-0.52860682"><ele>105.6</ele><time>2022-11-01T14:41:59.0000000+00:00</time></trkpt><trkpt lat="39.56450041" lon="-0.52860372"><ele>105.6</ele><time>2022-11-01T14:42:00.0000000+00:00</time></trkpt><trkpt lat="39.56450067" lon="-0.52859969"><ele>105.6</ele><time>2022-11-01T14:42:01.0000000+00:00</time></trkpt><trkpt lat="39.56450092" lon="-0.52859198"><ele>105.6</ele><time>2022-11-01T14:42:02.0000000+00:00</time></trkpt><trkpt lat="39.56449907" lon="-0.52857908"><ele>105.8</ele><time>2022-11-01T14:42:03.0000000+00:00</time></trkpt><trkpt lat="39.56449966" lon="-0.52856952"><ele>105.8</ele><time>2022-11-01T14:42:04.0000000+00:00</time></trkpt><trkpt lat="39.56449974" lon="-0.52856499"><ele>105.8</ele><time>2022-11-01T14:42:05.0000000+00:00</time></trkpt><trkpt lat="39.56450067" lon="-0.52856298"><ele>106.2</ele><time>2022-11-01T14:42:06.0000000+00:00</time></trkpt><trkpt lat="39.56450092" lon="-0.52856407"><ele>106.2</ele><time>2022-11-01T14:42:07.0000000+00:00</time></trkpt><trkpt lat="39.5644974" lon="-0.52855829"><ele>106.2</ele><time>2022-11-01T14:42:08.0000000+00:00</time></trkpt><trkpt lat="39.56449807" lon="-0.52855544"><ele>106.2</ele><time>2022-11-01T14:42:09.0000000+00:00</time></trkpt><trkpt lat="39.56449849" lon="-0.52855125"><ele>106.2</ele><time>2022-11-01T14:42:10.0000000+00:00</time></trkpt><trkpt lat="39.56449815" lon="-0.52855183"><ele>106.2</ele><time>2022-11-01T14:42:11.0000000+00:00</time></trkpt><trkpt lat="39.56450201" lon="-0.52856105"><ele>106.2</ele><time>2022-11-01T14:42:12.0000000+00:00</time></trkpt><trkpt lat="39.56450259" lon="-0.52857388"><ele>106.2</ele><time>2022-11-01T14:42:13.0000000+00:00</time></trkpt><trkpt lat="39.56450125" lon="-0.52858193"><ele>106.2</ele><time>2022-11-01T14:42:14.0000000+00:00</time></trkpt><trkpt lat="39.56450125" lon="-0.52858193"><ele>106.2</ele><time>2022-11-01T14:42:15.0000000+00:00</time></trkpt><trkpt lat="39.56450125" lon="-0.52858193"><ele>106.4</ele><time>2022-11-01T14:42:16.0000000+00:00</time></trkpt><trkpt lat="39.56450125" lon="-0.52858193"><ele>106.4</ele><time>2022-11-01T14:42:17.0000000+00:00</time></trkpt><trkpt lat="39.56450125" lon="-0.52858193"><ele>106.6</ele><time>2022-11-01T14:42:18.0000000+00:00</time></trkpt><trkpt lat="39.56450125" lon="-0.52858193"><ele>106.6</ele><time>2022-11-01T14:42:19.0000000+00:00</time></trkpt><trkpt lat="39.56450125" lon="-0.52858193"><ele>106.6</ele><time>2022-11-01T14:42:20.0000000+00:00</time></trkpt><trkpt lat="39.56450125" lon="-0.52858193"><ele>106.6</ele><time>2022-11-01T14:42:21.0000000+00:00</time></trkpt><trkpt lat="39.56450117" lon="-0.52858377"><ele>106.6</ele><time>2022-11-01T14:42:22.0000000+00:00</time></trkpt><trkpt lat="39.56450226" lon="-0.52859366"><ele>106.6</ele><time>2022-11-01T14:42:23.0000000+00:00</time></trkpt><trkpt lat="39.56450117" lon="-0.52860498"><ele>106.6</ele><time>2022-11-01T14:42:24.0000000+00:00</time></trkpt><trkpt lat="39.56449874" lon="-0.52861461"><ele>106.6</ele><time>2022-11-01T14:42:25.0000000+00:00</time></trkpt><trkpt lat="39.56449798" lon="-0.52862316"><ele>106.8</ele><time>2022-11-01T14:42:26.0000000+00:00</time></trkpt><trkpt lat="39.56449656" lon="-0.52863666"><ele>106.6</ele><time>2022-11-01T14:42:27.0000000+00:00</time></trkpt><trkpt lat="39.56449614" lon="-0.52864546"><ele>106.6</ele><time>2022-11-01T14:42:28.0000000+00:00</time></trkpt><trkpt lat="39.56449899" lon="-0.52865837"><ele>106.4</ele><time>2022-11-01T14:42:29.0000000+00:00</time></trkpt><trkpt lat="39.56449916" lon="-0.52866231"><ele>106.4</ele><time>2022-11-01T14:42:30.0000000+00:00</time></trkpt><trkpt lat="39.56449857" lon="-0.5286639"><ele>106.4</ele><time>2022-11-01T14:42:31.0000000+00:00</time></trkpt><trkpt lat="39.56450276" lon="-0.52866625"><ele>106.4</ele><time>2022-11-01T14:42:32.0000000+00:00</time></trkpt><trkpt lat="39.56450259" lon="-0.52865803"><ele>106.4</ele><time>2022-11-01T14:42:33.0000000+00:00</time></trkpt><trkpt lat="39.56449932" lon="-0.52864722"><ele>106.4</ele><time>2022-11-01T14:42:34.0000000+00:00</time></trkpt><trkpt lat="39.56449388" lon="-0.52864261"><ele>106.6</ele><time>2022-11-01T14:42:35.0000000+00:00</time></trkpt><trkpt lat="39.56448667" lon="-0.5286261"><ele>106.6</ele><time>2022-11-01T14:42:36.0000000+00:00</time></trkpt><trkpt lat="39.564487" lon="-0.52862442"><ele>106.6</ele><time>2022-11-01T14:42:37.0000000+00:00</time></trkpt><trkpt lat="39.56448776" lon="-0.5286199"><ele>106.6</ele><time>2022-11-01T14:42:38.0000000+00:00</time></trkpt><trkpt lat="39.56449019" lon="-0.52862526"><ele>106.8</ele><time>2022-11-01T14:42:39.0000000+00:00</time></trkpt><trkpt lat="39.56449572" lon="-0.52863255"><ele>106.8</ele><time>2022-11-01T14:42:40.0000000+00:00</time></trkpt><trkpt lat="39.56449815" lon="-0.52863834"><ele>106.8</ele><time>2022-11-01T14:42:41.0000000+00:00</time></trkpt><trkpt lat="39.56449698" lon="-0.5286406"><ele>106.8</ele><time>2022-11-01T14:42:42.0000000+00:00</time></trkpt><trkpt lat="39.56449589" lon="-0.5286406"><ele>106.8</ele><time>2022-11-01T14:42:43.0000000+00:00</time></trkpt><trkpt lat="39.56449874" lon="-0.52865175"><ele>106.8</ele><time>2022-11-01T14:42:44.0000000+00:00</time></trkpt><trkpt lat="39.56450209" lon="-0.52864982"><ele>106.6</ele><time>2022-11-01T14:42:45.0000000+00:00</time></trkpt><trkpt lat="39.56450712" lon="-0.52864152"><ele>106.6</ele><time>2022-11-01T14:42:46.0000000+00:00</time></trkpt><trkpt lat="39.56451081" lon="-0.52862903"><ele>106.4</ele><time>2022-11-01T14:42:47.0000000+00:00</time></trkpt><trkpt lat="39.5645155" lon="-0.52862668"><ele>106.4</ele><time>2022-11-01T14:42:48.0000000+00:00</time></trkpt><trkpt lat="39.56451533" lon="-0.52862643"><ele>106.4</ele><time>2022-11-01T14:42:49.0000000+00:00</time></trkpt><trkpt lat="39.56451307" lon="-0.52862006"><ele>106.4</ele><time>2022-11-01T14:42:50.0000000+00:00</time></trkpt><trkpt lat="39.56451248" lon="-0.52860581"><ele>106.4</ele><time>2022-11-01T14:42:51.0000000+00:00</time></trkpt><trkpt lat="39.56451994" lon="-0.52859131"><ele>106.4</ele><time>2022-11-01T14:42:52.0000000+00:00</time></trkpt><trkpt lat="39.56454266" lon="-0.52859148"><ele>106.4</ele><time>2022-11-01T14:42:53.0000000+00:00</time></trkpt><trkpt lat="39.56456579" lon="-0.52859291"><ele>106.2</ele><time>2022-11-01T14:42:54.0000000+00:00</time></trkpt><trkpt lat="39.56458239" lon="-0.52858436"><ele>106.2</ele><time>2022-11-01T14:42:55.0000000+00:00</time></trkpt><trkpt lat="39.56459563" lon="-0.52856667"><ele>106.2</ele><time>2022-11-01T14:42:56.0000000+00:00</time></trkpt><trkpt lat="39.56460913" lon="-0.52855569"><ele>106.2</ele><time>2022-11-01T14:42:57.0000000+00:00</time></trkpt><trkpt lat="39.5646217" lon="-0.52855234"><ele>106.2</ele><time>2022-11-01T14:42:58.0000000+00:00</time></trkpt><trkpt lat="39.56463947" lon="-0.52855544"><ele>106.2</ele><time>2022-11-01T14:42:59.0000000+00:00</time></trkpt><trkpt lat="39.56465833" lon="-0.52856843"><ele>106.2</ele><time>2022-11-01T14:43:00.0000000+00:00</time></trkpt><trkpt lat="39.56467291" lon="-0.52857162"><ele>106.4</ele><time>2022-11-01T14:43:01.0000000+00:00</time></trkpt><trkpt lat="39.56467937" lon="-0.52856315"><ele>106.4</ele><time>2022-11-01T14:43:02.0000000+00:00</time></trkpt><trkpt lat="39.56469152" lon="-0.52854647"><ele>106.6</ele><time>2022-11-01T14:43:03.0000000+00:00</time></trkpt><trkpt lat="39.56470376" lon="-0.52852443"><ele>106.6</ele><time>2022-11-01T14:43:04.0000000+00:00</time></trkpt><trkpt lat="39.56470787" lon="-0.52849777"><ele>106.6</ele><time>2022-11-01T14:43:05.0000000+00:00</time></trkpt><trkpt lat="39.56470837" lon="-0.52847363"><ele>106.8</ele><time>2022-11-01T14:43:06.0000000+00:00</time></trkpt><trkpt lat="39.56470502" lon="-0.52845226"><ele>106.8</ele><time>2022-11-01T14:43:07.0000000+00:00</time></trkpt><trkpt lat="39.56470443" lon="-0.52843868"><ele>106.8</ele><time>2022-11-01T14:43:08.0000000+00:00</time></trkpt><trkpt lat="39.56470208" lon="-0.52843499"><ele>106.8</ele><time>2022-11-01T14:43:09.0000000+00:00</time></trkpt><trkpt lat="39.56470032" lon="-0.52841471"><ele>106.8</ele><time>2022-11-01T14:43:10.0000000+00:00</time></trkpt><trkpt lat="39.56469462" lon="-0.52838822"><ele>106.8</ele><time>2022-11-01T14:43:11.0000000+00:00</time></trkpt><trkpt lat="39.56470032" lon="-0.52837229"><ele>106.8</ele><time>2022-11-01T14:43:12.0000000+00:00</time></trkpt><trkpt lat="39.56471466" lon="-0.52836509"><ele>106.8</ele><time>2022-11-01T14:43:13.0000000+00:00</time></trkpt><trkpt lat="39.56472404" lon="-0.52833525"><ele>106.8</ele><time>2022-11-01T14:43:14.0000000+00:00</time></trkpt><trkpt lat="39.56472773" lon="-0.52830122"><ele>106.8</ele><time>2022-11-01T14:43:15.0000000+00:00</time></trkpt><trkpt lat="39.56473268" lon="-0.52827196"><ele>106.8</ele><time>2022-11-01T14:43:16.0000000+00:00</time></trkpt><trkpt lat="39.56474064" lon="-0.52825637"><ele>106.8</ele><time>2022-11-01T14:43:17.0000000+00:00</time></trkpt><trkpt lat="39.56474802" lon="-0.52824657"><ele>106.8</ele><time>2022-11-01T14:43:18.0000000+00:00</time></trkpt><trkpt lat="39.56475128" lon="-0.52823156"><ele>106.8</ele><time>2022-11-01T14:43:19.0000000+00:00</time></trkpt><trkpt lat="39.56475833" lon="-0.5282184"><ele>106.8</ele><time>2022-11-01T14:43:20.0000000+00:00</time></trkpt><trkpt lat="39.56476637" lon="-0.52820642"><ele>106.8</ele><time>2022-11-01T14:43:21.0000000+00:00</time></trkpt><trkpt lat="39.5647828" lon="-0.52819435"><ele>106.8</ele><time>2022-11-01T14:43:22.0000000+00:00</time></trkpt><trkpt lat="39.56481113" lon="-0.52818521"><ele>106.8</ele><time>2022-11-01T14:43:23.0000000+00:00</time></trkpt><trkpt lat="39.56481918" lon="-0.52816736"><ele>106.8</ele><time>2022-11-01T14:43:24.0000000+00:00</time></trkpt><trkpt lat="39.56483007" lon="-0.52815839"><ele>106.8</ele><time>2022-11-01T14:43:25.0000000+00:00</time></trkpt><trkpt lat="39.5648481" lon="-0.52817524"><ele>106.8</ele><time>2022-11-01T14:43:26.0000000+00:00</time></trkpt><trkpt lat="39.5648724" lon="-0.52820038"><ele>106.8</ele><time>2022-11-01T14:43:27.0000000+00:00</time></trkpt><trkpt lat="39.56488908" lon="-0.52820818"><ele>106.8</ele><time>2022-11-01T14:43:28.0000000+00:00</time></trkpt><trkpt lat="39.56489889" lon="-0.52820365"><ele>106.8</ele><time>2022-11-01T14:43:29.0000000+00:00</time></trkpt><trkpt lat="39.56491465" lon="-0.52820734"><ele>106.8</ele><time>2022-11-01T14:43:30.0000000+00:00</time></trkpt><trkpt lat="39.56493418" lon="-0.52820776"><ele>106.8</ele><time>2022-11-01T14:43:31.0000000+00:00</time></trkpt><trkpt lat="39.56494843" lon="-0.52819837"><ele>106.8</ele><time>2022-11-01T14:43:32.0000000+00:00</time></trkpt><trkpt lat="39.564961" lon="-0.52818831"><ele>106.8</ele><time>2022-11-01T14:43:33.0000000+00:00</time></trkpt><trkpt lat="39.56498195" lon="-0.52818647"><ele>106.8</ele><time>2022-11-01T14:43:34.0000000+00:00</time></trkpt><trkpt lat="39.56499553" lon="-0.52817591"><ele>106.8</ele><time>2022-11-01T14:43:35.0000000+00:00</time></trkpt><trkpt lat="39.56500635" lon="-0.52816107"><ele>106.6</ele><time>2022-11-01T14:43:36.0000000+00:00</time></trkpt><trkpt lat="39.56501372" lon="-0.52814791"><ele>106.6</ele><time>2022-11-01T14:43:37.0000000+00:00</time></trkpt><trkpt lat="39.565019" lon="-0.52813291"><ele>106.6</ele><time>2022-11-01T14:43:38.0000000+00:00</time></trkpt><trkpt lat="39.56502437" lon="-0.52811514"><ele>106.6</ele><time>2022-11-01T14:43:39.0000000+00:00</time></trkpt><trkpt lat="39.56502973" lon="-0.52809888"><ele>106.4</ele><time>2022-11-01T14:43:40.0000000+00:00</time></trkpt><trkpt lat="39.56503526" lon="-0.52809008"><ele>106.4</ele><time>2022-11-01T14:43:41.0000000+00:00</time></trkpt><trkpt lat="39.56504675" lon="-0.52807901"><ele>106.4</ele><time>2022-11-01T14:43:42.0000000+00:00</time></trkpt><trkpt lat="39.5650589" lon="-0.52806434"><ele>106.4</ele><time>2022-11-01T14:43:43.0000000+00:00</time></trkpt><trkpt lat="39.56507466" lon="-0.52804238"><ele>106.4</ele><time>2022-11-01T14:43:44.0000000+00:00</time></trkpt><trkpt lat="39.56508832" lon="-0.52801271"><ele>106.4</ele><time>2022-11-01T14:43:45.0000000+00:00</time></trkpt><trkpt lat="39.56510525" lon="-0.52800081"><ele>106.4</ele><time>2022-11-01T14:43:46.0000000+00:00</time></trkpt><trkpt lat="39.56511389" lon="-0.52800315"><ele>106.4</ele><time>2022-11-01T14:43:47.0000000+00:00</time></trkpt><trkpt lat="39.56512135" lon="-0.52800181"><ele>106.4</ele><time>2022-11-01T14:43:48.0000000+00:00</time></trkpt><trkpt lat="39.56513585" lon="-0.52799352"><ele>106.8</ele><time>2022-11-01T14:43:49.0000000+00:00</time></trkpt><trkpt lat="39.56515269" lon="-0.52798254"><ele>106.8</ele><time>2022-11-01T14:43:50.0000000+00:00</time></trkpt><trkpt lat="39.56515973" lon="-0.52795596"><ele>106.8</ele><time>2022-11-01T14:43:51.0000000+00:00</time></trkpt><trkpt lat="39.56516502" lon="-0.52793333"><ele>106.8</ele><time>2022-11-01T14:43:52.0000000+00:00</time></trkpt><trkpt lat="39.56517725" lon="-0.52791699"><ele>106.6</ele><time>2022-11-01T14:43:53.0000000+00:00</time></trkpt><trkpt lat="39.56518899" lon="-0.52788916"><ele>106.6</ele><time>2022-11-01T14:43:54.0000000+00:00</time></trkpt><trkpt lat="39.56520734" lon="-0.52786821"><ele>106.6</ele><time>2022-11-01T14:43:55.0000000+00:00</time></trkpt><trkpt lat="39.56520818" lon="-0.5278263"><ele>106.4</ele><time>2022-11-01T14:43:56.0000000+00:00</time></trkpt><trkpt lat="39.56521346" lon="-0.52778506"><ele>106.4</ele><time>2022-11-01T14:43:57.0000000+00:00</time></trkpt><trkpt lat="39.565235" lon="-0.52776947"><ele>106.6</ele><time>2022-11-01T14:43:58.0000000+00:00</time></trkpt><trkpt lat="39.56527138" lon="-0.52776896"><ele>106.6</ele><time>2022-11-01T14:43:59.0000000+00:00</time></trkpt><trkpt lat="39.56532075" lon="-0.52780333"><ele>106.8</ele><time>2022-11-01T14:44:00.0000000+00:00</time></trkpt><trkpt lat="39.56534967" lon="-0.52779554"><ele>106.8</ele><time>2022-11-01T14:44:01.0000000+00:00</time></trkpt><trkpt lat="39.56536953" lon="-0.52778673"><ele>106.8</ele><time>2022-11-01T14:44:02.0000000+00:00</time></trkpt><trkpt lat="39.56537507" lon="-0.52775941"><ele>106.8</ele><time>2022-11-01T14:44:03.0000000+00:00</time></trkpt><trkpt lat="39.56539426" lon="-0.52774415"><ele>106.8</ele><time>2022-11-01T14:44:04.0000000+00:00</time></trkpt><trkpt lat="39.56541605" lon="-0.52773133"><ele>106.8</ele><time>2022-11-01T14:44:05.0000000+00:00</time></trkpt><trkpt lat="39.56543491" lon="-0.52771214"><ele>106.8</ele><time>2022-11-01T14:44:06.0000000+00:00</time></trkpt><trkpt lat="39.56545545" lon="-0.52769244"><ele>106.8</ele><time>2022-11-01T14:44:07.0000000+00:00</time></trkpt><trkpt lat="39.56546945" lon="-0.52766126"><ele>106.6</ele><time>2022-11-01T14:44:08.0000000+00:00</time></trkpt><trkpt lat="39.56548864" lon="-0.52762195"><ele>106.6</ele><time>2022-11-01T14:44:09.0000000+00:00</time></trkpt><trkpt lat="39.56551823" lon="-0.52758465"><ele>106.6</ele><time>2022-11-01T14:44:10.0000000+00:00</time></trkpt><trkpt lat="39.56554287" lon="-0.5275486"><ele>106.6</ele><time>2022-11-01T14:44:11.0000000+00:00</time></trkpt><trkpt lat="39.56556584" lon="-0.52750753"><ele>106.6</ele><time>2022-11-01T14:44:12.0000000+00:00</time></trkpt><trkpt lat="39.56558839" lon="-0.52747618"><ele>106.6</ele><time>2022-11-01T14:44:13.0000000+00:00</time></trkpt><trkpt lat="39.5656132" lon="-0.52744517"><ele>106.6</ele><time>2022-11-01T14:44:14.0000000+00:00</time></trkpt><trkpt lat="39.56564044" lon="-0.52741391"><ele>106.6</ele><time>2022-11-01T14:44:15.0000000+00:00</time></trkpt><trkpt lat="39.56566659" lon="-0.52737409"><ele>106.6</ele><time>2022-11-01T14:44:16.0000000+00:00</time></trkpt><trkpt lat="39.56569308" lon="-0.52732883"><ele>106.6</ele><time>2022-11-01T14:44:17.0000000+00:00</time></trkpt><trkpt lat="39.5657204" lon="-0.527286"><ele>106.6</ele><time>2022-11-01T14:44:18.0000000+00:00</time></trkpt><trkpt lat="39.56574161" lon="-0.52724702"><ele>106.6</ele><time>2022-11-01T14:44:19.0000000+00:00</time></trkpt><trkpt lat="39.56575996" lon="-0.52721073"><ele>106.4</ele><time>2022-11-01T14:44:20.0000000+00:00</time></trkpt><trkpt lat="39.56577865" lon="-0.52718097"><ele>106.4</ele><time>2022-11-01T14:44:21.0000000+00:00</time></trkpt><trkpt lat="39.56580271" lon="-0.5271518"><ele>106.4</ele><time>2022-11-01T14:44:22.0000000+00:00</time></trkpt><trkpt lat="39.56581595" lon="-0.52711191"><ele>106.4</ele><time>2022-11-01T14:44:23.0000000+00:00</time></trkpt><trkpt lat="39.56583473" lon="-0.52705114"><ele>106.4</ele><time>2022-11-01T14:44:24.0000000+00:00</time></trkpt><trkpt lat="39.56585401" lon="-0.52701367"><ele>106.4</ele><time>2022-11-01T14:44:25.0000000+00:00</time></trkpt><trkpt lat="39.56588251" lon="-0.52698618"><ele>106.4</ele><time>2022-11-01T14:44:26.0000000+00:00</time></trkpt><trkpt lat="39.56591419" lon="-0.52695391"><ele>106.6</ele><time>2022-11-01T14:44:27.0000000+00:00</time></trkpt><trkpt lat="39.56594235" lon="-0.52691694"><ele>106.8</ele><time>2022-11-01T14:44:28.0000000+00:00</time></trkpt><trkpt lat="39.56596356" lon="-0.52687227"><ele>106.8</ele><time>2022-11-01T14:44:29.0000000+00:00</time></trkpt><trkpt lat="39.56598267" lon="-0.5268317"><ele>106.8</ele><time>2022-11-01T14:44:30.0000000+00:00</time></trkpt><trkpt lat="39.56600153" lon="-0.52679742"><ele>106.8</ele><time>2022-11-01T14:44:31.0000000+00:00</time></trkpt><trkpt lat="39.56601905" lon="-0.52677001"><ele>106.8</ele><time>2022-11-01T14:44:32.0000000+00:00</time></trkpt><trkpt lat="39.56603413" lon="-0.52674017"><ele>106.6</ele><time>2022-11-01T14:44:33.0000000+00:00</time></trkpt><trkpt lat="39.56606515" lon="-0.52672064"><ele>106.6</ele><time>2022-11-01T14:44:34.0000000+00:00</time></trkpt><trkpt lat="39.56610622" lon="-0.52671771"><ele>106.4</ele><time>2022-11-01T14:44:35.0000000+00:00</time></trkpt><trkpt lat="39.5661493" lon="-0.52671603"><ele>106.4</ele><time>2022-11-01T14:44:36.0000000+00:00</time></trkpt><trkpt lat="39.56619431" lon="-0.52672248"><ele>106.4</ele><time>2022-11-01T14:44:37.0000000+00:00</time></trkpt><trkpt lat="39.56622281" lon="-0.52670471"><ele>106.4</ele><time>2022-11-01T14:44:38.0000000+00:00</time></trkpt><trkpt lat="39.56625047" lon="-0.52669072"><ele>106.6</ele><time>2022-11-01T14:44:39.0000000+00:00</time></trkpt><trkpt lat="39.56627629" lon="-0.52667152"><ele>106.6</ele><time>2022-11-01T14:44:40.0000000+00:00</time></trkpt><trkpt lat="39.56630227" lon="-0.52665006"><ele>106.6</ele><time>2022-11-01T14:44:41.0000000+00:00</time></trkpt><trkpt lat="39.56633857" lon="-0.52663858"><ele>106.8</ele><time>2022-11-01T14:44:42.0000000+00:00</time></trkpt><trkpt lat="39.56638861" lon="-0.52662333"><ele>106.8</ele><time>2022-11-01T14:44:43.0000000+00:00</time></trkpt><trkpt lat="39.56641928" lon="-0.52659072"><ele>106.8</ele><time>2022-11-01T14:44:44.0000000+00:00</time></trkpt><trkpt lat="39.56645248" lon="-0.52656591"><ele>106.8</ele><time>2022-11-01T14:44:45.0000000+00:00</time></trkpt><trkpt lat="39.56648366" lon="-0.52653456"><ele>107.0</ele><time>2022-11-01T14:44:46.0000000+00:00</time></trkpt><trkpt lat="39.56650545" lon="-0.52648913"><ele>107.0</ele><time>2022-11-01T14:44:47.0000000+00:00</time></trkpt><trkpt lat="39.56652054" lon="-0.52645133"><ele>107.0</ele><time>2022-11-01T14:44:48.0000000+00:00</time></trkpt><trkpt lat="39.56654493" lon="-0.52642493"><ele>107.0</ele><time>2022-11-01T14:44:49.0000000+00:00</time></trkpt><trkpt lat="39.56655842" lon="-0.52641495"><ele>107.0</ele><time>2022-11-01T14:44:50.0000000+00:00</time></trkpt><trkpt lat="39.56658416" lon="-0.5263924"><ele>107.2</ele><time>2022-11-01T14:44:51.0000000+00:00</time></trkpt><trkpt lat="39.56662204" lon="-0.52639425"><ele>107.2</ele><time>2022-11-01T14:44:52.0000000+00:00</time></trkpt><trkpt lat="39.5666782" lon="-0.52640774"><ele>107.2</ele><time>2022-11-01T14:44:53.0000000+00:00</time></trkpt><trkpt lat="39.56675791" lon="-0.52646223"><ele>107.4</ele><time>2022-11-01T14:44:54.0000000+00:00</time></trkpt><trkpt lat="39.56679219" lon="-0.52647949"><ele>107.4</ele><time>2022-11-01T14:44:55.0000000+00:00</time></trkpt><trkpt lat="39.5668253" lon="-0.526509"><ele>107.4</ele><time>2022-11-01T14:44:56.0000000+00:00</time></trkpt><trkpt lat="39.56684425" lon="-0.52655032"><ele>107.4</ele><time>2022-11-01T14:44:57.0000000+00:00</time></trkpt><trkpt lat="39.56686646" lon="-0.526611"><ele>107.4</ele><time>2022-11-01T14:44:58.0000000+00:00</time></trkpt><trkpt lat="39.56689294" lon="-0.52664478"><ele>107.4</ele><time>2022-11-01T14:44:59.0000000+00:00</time></trkpt><trkpt lat="39.56692002" lon="-0.52663959"><ele>107.4</ele><time>2022-11-01T14:45:00.0000000+00:00</time></trkpt><trkpt lat="39.56695053" lon="-0.5266224"><ele>107.4</ele><time>2022-11-01T14:45:01.0000000+00:00</time></trkpt><trkpt lat="39.56697048" lon="-0.52661687"><ele>107.4</ele><time>2022-11-01T14:45:02.0000000+00:00</time></trkpt><trkpt lat="39.56699076" lon="-0.52663221"><ele>107.4</ele><time>2022-11-01T14:45:03.0000000+00:00</time></trkpt><trkpt lat="39.56700107" lon="-0.52665761"><ele>107.4</ele><time>2022-11-01T14:45:04.0000000+00:00</time></trkpt><trkpt lat="39.56700266" lon="-0.52667504"><ele>107.2</ele><time>2022-11-01T14:45:05.0000000+00:00</time></trkpt><trkpt lat="39.56699378" lon="-0.52668393"><ele>107.2</ele><time>2022-11-01T14:45:06.0000000+00:00</time></trkpt><trkpt lat="39.56698774" lon="-0.52670606"><ele>107.2</ele><time>2022-11-01T14:45:07.0000000+00:00</time></trkpt><trkpt lat="39.56700065" lon="-0.52672424"><ele>107.2</ele><time>2022-11-01T14:45:08.0000000+00:00</time></trkpt><trkpt lat="39.56701649" lon="-0.52673673"><ele>107.0</ele><time>2022-11-01T14:45:09.0000000+00:00</time></trkpt><trkpt lat="39.56701566" lon="-0.52674227"><ele>107.0</ele><time>2022-11-01T14:45:10.0000000+00:00</time></trkpt><trkpt lat="39.56704449" lon="-0.52674847"><ele>107.0</ele><time>2022-11-01T14:45:11.0000000+00:00</time></trkpt><trkpt lat="39.56706318" lon="-0.52673782"><ele>107.0</ele><time>2022-11-01T14:45:12.0000000+00:00</time></trkpt><trkpt lat="39.5670771" lon="-0.5267188"><ele>107.0</ele><time>2022-11-01T14:45:13.0000000+00:00</time></trkpt><trkpt lat="39.5670895" lon="-0.52669625"><ele>107.0</ele><time>2022-11-01T14:45:14.0000000+00:00</time></trkpt><trkpt lat="39.56710274" lon="-0.52667378"><ele>107.2</ele><time>2022-11-01T14:45:15.0000000+00:00</time></trkpt><trkpt lat="39.56712018" lon="-0.52665685"><ele>107.2</ele><time>2022-11-01T14:45:16.0000000+00:00</time></trkpt><trkpt lat="39.56714843" lon="-0.52665333"><ele>107.2</ele><time>2022-11-01T14:45:17.0000000+00:00</time></trkpt><trkpt lat="39.56718053" lon="-0.52665677"><ele>107.2</ele><time>2022-11-01T14:45:18.0000000+00:00</time></trkpt><trkpt lat="39.56721389" lon="-0.52666289"><ele>107.2</ele><time>2022-11-01T14:45:19.0000000+00:00</time></trkpt><trkpt lat="39.56724599" lon="-0.52666565"><ele>107.4</ele><time>2022-11-01T14:45:20.0000000+00:00</time></trkpt><trkpt lat="39.56727466" lon="-0.52667286"><ele>107.4</ele><time>2022-11-01T14:45:21.0000000+00:00</time></trkpt><trkpt lat="39.56730056" lon="-0.52669114"><ele>107.4</ele><time>2022-11-01T14:45:22.0000000+00:00</time></trkpt><trkpt lat="39.56732185" lon="-0.5267146"><ele>107.4</ele><time>2022-11-01T14:45:23.0000000+00:00</time></trkpt><trkpt lat="39.5673433" lon="-0.52672952"><ele>107.4</ele><time>2022-11-01T14:45:24.0000000+00:00</time></trkpt><trkpt lat="39.56736518" lon="-0.52673179"><ele>107.4</ele><time>2022-11-01T14:45:25.0000000+00:00</time></trkpt><trkpt lat="39.56738077" lon="-0.52671863"><ele>107.6</ele><time>2022-11-01T14:45:26.0000000+00:00</time></trkpt><trkpt lat="39.56739376" lon="-0.52669365"><ele>107.6</ele><time>2022-11-01T14:45:27.0000000+00:00</time></trkpt><trkpt lat="39.56740969" lon="-0.52666867"><ele>107.6</ele><time>2022-11-01T14:45:28.0000000+00:00</time></trkpt><trkpt lat="39.56741916" lon="-0.52663908"><ele>107.8</ele><time>2022-11-01T14:45:29.0000000+00:00</time></trkpt><trkpt lat="39.56742184" lon="-0.52660782"><ele>107.8</ele><time>2022-11-01T14:45:30.0000000+00:00</time></trkpt><trkpt lat="39.56741891" lon="-0.5265696"><ele>107.8</ele><time>2022-11-01T14:45:31.0000000+00:00</time></trkpt><trkpt lat="39.56741028" lon="-0.52652752"><ele>107.8</ele><time>2022-11-01T14:45:32.0000000+00:00</time></trkpt><trkpt lat="39.56740868" lon="-0.52649818"><ele>108.0</ele><time>2022-11-01T14:45:33.0000000+00:00</time></trkpt><trkpt lat="39.56741095" lon="-0.52645284"><ele>108.0</ele><time>2022-11-01T14:45:34.0000000+00:00</time></trkpt><trkpt lat="39.56742042" lon="-0.52639576"><ele>108.0</ele><time>2022-11-01T14:45:35.0000000+00:00</time></trkpt><trkpt lat="39.56742914" lon="-0.52636122"><ele>108.0</ele><time>2022-11-01T14:45:36.0000000+00:00</time></trkpt><trkpt lat="39.56743324" lon="-0.52631521"><ele>108.0</ele><time>2022-11-01T14:45:37.0000000+00:00</time></trkpt><trkpt lat="39.56744439" lon="-0.52625603"><ele>108.0</ele><time>2022-11-01T14:45:38.0000000+00:00</time></trkpt><trkpt lat="39.56746241" lon="-0.52620985"><ele>108.0</ele><time>2022-11-01T14:45:39.0000000+00:00</time></trkpt><trkpt lat="39.56747926" lon="-0.52616081"><ele>108.0</ele><time>2022-11-01T14:45:40.0000000+00:00</time></trkpt><trkpt lat="39.56750005" lon="-0.5261158"><ele>108.0</ele><time>2022-11-01T14:45:41.0000000+00:00</time></trkpt><trkpt lat="39.56751941" lon="-0.52608009"><ele>108.0</ele><time>2022-11-01T14:45:42.0000000+00:00</time></trkpt><trkpt lat="39.56755227" lon="-0.52603525"><ele>108.0</ele><time>2022-11-01T14:45:43.0000000+00:00</time></trkpt><trkpt lat="39.56758135" lon="-0.52599535"><ele>108.0</ele><time>2022-11-01T14:45:44.0000000+00:00</time></trkpt><trkpt lat="39.56760683" lon="-0.52596761"><ele>108.0</ele><time>2022-11-01T14:45:45.0000000+00:00</time></trkpt><trkpt lat="39.56763919" lon="-0.52592763"><ele>108.0</ele><time>2022-11-01T14:45:46.0000000+00:00</time></trkpt><trkpt lat="39.56767372" lon="-0.52588337"><ele>108.2</ele><time>2022-11-01T14:45:47.0000000+00:00</time></trkpt><trkpt lat="39.56770599" lon="-0.52583953"><ele>108.2</ele><time>2022-11-01T14:45:48.0000000+00:00</time></trkpt><trkpt lat="39.56773692" lon="-0.52579712"><ele>108.2</ele><time>2022-11-01T14:45:49.0000000+00:00</time></trkpt><trkpt lat="39.56777757" lon="-0.52573443"><ele>108.2</ele><time>2022-11-01T14:45:50.0000000+00:00</time></trkpt><trkpt lat="39.56779542" lon="-0.5256983"><ele>108.2</ele><time>2022-11-01T14:45:51.0000000+00:00</time></trkpt><trkpt lat="39.5678251" lon="-0.52565991"><ele>108.4</ele><time>2022-11-01T14:45:52.0000000+00:00</time></trkpt><trkpt lat="39.56786022" lon="-0.52561163"><ele>108.4</ele><time>2022-11-01T14:45:53.0000000+00:00</time></trkpt><trkpt lat="39.56788444" lon="-0.52557148"><ele>108.4</ele><time>2022-11-01T14:45:54.0000000+00:00</time></trkpt><trkpt lat="39.56790917" lon="-0.52554214"><ele>108.4</ele><time>2022-11-01T14:45:55.0000000+00:00</time></trkpt><trkpt lat="39.56794278" lon="-0.52550543"><ele>108.4</ele><time>2022-11-01T14:45:56.0000000+00:00</time></trkpt><trkpt lat="39.56796876" lon="-0.52548221"><ele>108.4</ele><time>2022-11-01T14:45:57.0000000+00:00</time></trkpt><trkpt lat="39.56799743" lon="-0.52544416"><ele>108.4</ele><time>2022-11-01T14:45:58.0000000+00:00</time></trkpt><trkpt lat="39.56802257" lon="-0.52540971"><ele>108.4</ele><time>2022-11-01T14:45:59.0000000+00:00</time></trkpt><trkpt lat="39.56804697" lon="-0.52537643"><ele>108.4</ele><time>2022-11-01T14:46:00.0000000+00:00</time></trkpt><trkpt lat="39.56807588" lon="-0.52534534"><ele>108.4</ele><time>2022-11-01T14:46:01.0000000+00:00</time></trkpt><trkpt lat="39.56810287" lon="-0.52531642"><ele>108.4</ele><time>2022-11-01T14:46:02.0000000+00:00</time></trkpt><trkpt lat="39.56812894" lon="-0.52528909"><ele>108.4</ele><time>2022-11-01T14:46:03.0000000+00:00</time></trkpt><trkpt lat="39.56815576" lon="-0.52524962"><ele>108.2</ele><time>2022-11-01T14:46:04.0000000+00:00</time></trkpt><trkpt lat="39.56817278" lon="-0.52521835"><ele>108.2</ele><time>2022-11-01T14:46:05.0000000+00:00</time></trkpt><trkpt lat="39.56819549" lon="-0.52518256"><ele>108.2</ele><time>2022-11-01T14:46:06.0000000+00:00</time></trkpt><trkpt lat="39.56822156" lon="-0.5251497"><ele>108.4</ele><time>2022-11-01T14:46:07.0000000+00:00</time></trkpt><trkpt lat="39.56824922" lon="-0.52511618"><ele>108.4</ele><time>2022-11-01T14:46:08.0000000+00:00</time></trkpt><trkpt lat="39.56827613" lon="-0.52507955"><ele>108.4</ele><time>2022-11-01T14:46:09.0000000+00:00</time></trkpt><trkpt lat="39.56830295" lon="-0.52504535"><ele>108.4</ele><time>2022-11-01T14:46:10.0000000+00:00</time></trkpt><trkpt lat="39.56833446" lon="-0.52500495"><ele>108.4</ele><time>2022-11-01T14:46:11.0000000+00:00</time></trkpt><trkpt lat="39.56835651" lon="-0.52498902"><ele>108.6</ele><time>2022-11-01T14:46:12.0000000+00:00</time></trkpt><trkpt lat="39.56839339" lon="-0.52498089"><ele>108.8</ele><time>2022-11-01T14:46:13.0000000+00:00</time></trkpt><trkpt lat="39.56843362" lon="-0.52497938"><ele>108.8</ele><time>2022-11-01T14:46:14.0000000+00:00</time></trkpt><trkpt lat="39.56847453" lon="-0.52497653"><ele>108.8</ele><time>2022-11-01T14:46:15.0000000+00:00</time></trkpt><trkpt lat="39.56852264" lon="-0.52497377"><ele>108.8</ele><time>2022-11-01T14:46:16.0000000+00:00</time></trkpt><trkpt lat="39.56855809" lon="-0.52497544"><ele>108.8</ele><time>2022-11-01T14:46:17.0000000+00:00</time></trkpt><trkpt lat="39.56858165" lon="-0.52497025"><ele>108.8</ele><time>2022-11-01T14:46:18.0000000+00:00</time></trkpt><trkpt lat="39.56860235" lon="-0.52495558"><ele>109.0</ele><time>2022-11-01T14:46:19.0000000+00:00</time></trkpt><trkpt lat="39.56861501" lon="-0.5249327"><ele>109.0</ele><time>2022-11-01T14:46:20.0000000+00:00</time></trkpt><trkpt lat="39.56862724" lon="-0.52491434"><ele>109.0</ele><time>2022-11-01T14:46:21.0000000+00:00</time></trkpt><trkpt lat="39.56863697" lon="-0.52489749"><ele>109.0</ele><time>2022-11-01T14:46:22.0000000+00:00</time></trkpt><trkpt lat="39.56865298" lon="-0.52488207"><ele>109.0</ele><time>2022-11-01T14:46:23.0000000+00:00</time></trkpt><trkpt lat="39.56867209" lon="-0.52486489"><ele>109.0</ele><time>2022-11-01T14:46:24.0000000+00:00</time></trkpt><trkpt lat="39.56869044" lon="-0.52483882"><ele>109.0</ele><time>2022-11-01T14:46:25.0000000+00:00</time></trkpt><trkpt lat="39.56869715" lon="-0.52481434"><ele>109.0</ele><time>2022-11-01T14:46:26.0000000+00:00</time></trkpt><trkpt lat="39.56869765" lon="-0.52478869"><ele>109.0</ele><time>2022-11-01T14:46:27.0000000+00:00</time></trkpt><trkpt lat="39.56868868" lon="-0.52476045"><ele>109.0</ele><time>2022-11-01T14:46:28.0000000+00:00</time></trkpt><trkpt lat="39.56867804" lon="-0.52474008"><ele>109.0</ele><time>2022-11-01T14:46:29.0000000+00:00</time></trkpt><trkpt lat="39.56866614" lon="-0.52471686"><ele>109.0</ele><time>2022-11-01T14:46:30.0000000+00:00</time></trkpt><trkpt lat="39.56865398" lon="-0.52469364"><ele>109.0</ele><time>2022-11-01T14:46:31.0000000+00:00</time></trkpt><trkpt lat="39.56864208" lon="-0.52466976"><ele>109.0</ele><time>2022-11-01T14:46:32.0000000+00:00</time></trkpt><trkpt lat="39.56863429" lon="-0.5246436"><ele>109.0</ele><time>2022-11-01T14:46:33.0000000+00:00</time></trkpt><trkpt lat="39.56863294" lon="-0.52461444"><ele>109.0</ele><time>2022-11-01T14:46:34.0000000+00:00</time></trkpt><trkpt lat="39.56863998" lon="-0.52458409"><ele>109.0</ele><time>2022-11-01T14:46:35.0000000+00:00</time></trkpt><trkpt lat="39.56865507" lon="-0.52454839"><ele>109.2</ele><time>2022-11-01T14:46:36.0000000+00:00</time></trkpt><trkpt lat="39.56866521" lon="-0.52453321"><ele>109.2</ele><time>2022-11-01T14:46:37.0000000+00:00</time></trkpt><trkpt lat="39.56867628" lon="-0.52451377"><ele>109.2</ele><time>2022-11-01T14:46:38.0000000+00:00</time></trkpt><trkpt lat="39.56867628" lon="-0.52450053"><ele>109.4</ele><time>2022-11-01T14:46:39.0000000+00:00</time></trkpt><trkpt lat="39.56866966" lon="-0.52447504"><ele>109.4</ele><time>2022-11-01T14:46:40.0000000+00:00</time></trkpt><trkpt lat="39.56865951" lon="-0.52444671"><ele>109.4</ele><time>2022-11-01T14:46:41.0000000+00:00</time></trkpt><trkpt lat="39.56864677" lon="-0.52442752"><ele>109.4</ele><time>2022-11-01T14:46:42.0000000+00:00</time></trkpt><trkpt lat="39.5686233" lon="-0.52440011"><ele>109.2</ele><time>2022-11-01T14:46:43.0000000+00:00</time></trkpt><trkpt lat="39.56860595" lon="-0.52437957"><ele>109.2</ele><time>2022-11-01T14:46:44.0000000+00:00</time></trkpt><trkpt lat="39.56858718" lon="-0.52435803"><ele>109.2</ele><time>2022-11-01T14:46:45.0000000+00:00</time></trkpt><trkpt lat="39.56857075" lon="-0.524338"><ele>109.2</ele><time>2022-11-01T14:46:46.0000000+00:00</time></trkpt><trkpt lat="39.56856346" lon="-0.52432501"><ele>109.2</ele><time>2022-11-01T14:46:47.0000000+00:00</time></trkpt><trkpt lat="39.56855667" lon="-0.52430791"><ele>109.2</ele><time>2022-11-01T14:46:48.0000000+00:00</time></trkpt><trkpt lat="39.56855927" lon="-0.52428394"><ele>109.2</ele><time>2022-11-01T14:46:49.0000000+00:00</time></trkpt><trkpt lat="39.5685715" lon="-0.52425787"><ele>109.2</ele><time>2022-11-01T14:46:50.0000000+00:00</time></trkpt><trkpt lat="39.56858542" lon="-0.52423029"><ele>109.2</ele><time>2022-11-01T14:46:51.0000000+00:00</time></trkpt><trkpt lat="39.56860378" lon="-0.52419559"><ele>109.2</ele><time>2022-11-01T14:46:52.0000000+00:00</time></trkpt><trkpt lat="39.56861786" lon="-0.5241733"><ele>109.4</ele><time>2022-11-01T14:46:53.0000000+00:00</time></trkpt><trkpt lat="39.56863789" lon="-0.52414681"><ele>109.4</ele><time>2022-11-01T14:46:54.0000000+00:00</time></trkpt><trkpt lat="39.56866412" lon="-0.52411404"><ele>109.6</ele><time>2022-11-01T14:46:55.0000000+00:00</time></trkpt><trkpt lat="39.56868541" lon="-0.52409384"><ele>109.6</ele><time>2022-11-01T14:46:56.0000000+00:00</time></trkpt><trkpt lat="39.56870872" lon="-0.52406852"><ele>109.8</ele><time>2022-11-01T14:46:57.0000000+00:00</time></trkpt><trkpt lat="39.56873252" lon="-0.52404262"><ele>109.8</ele><time>2022-11-01T14:46:58.0000000+00:00</time></trkpt><trkpt lat="39.56875758" lon="-0.52401194"><ele>109.8</ele><time>2022-11-01T14:46:59.0000000+00:00</time></trkpt><trkpt lat="39.56878038" lon="-0.52397448"><ele>110.0</ele><time>2022-11-01T14:47:00.0000000+00:00</time></trkpt><trkpt lat="39.56880201" lon="-0.52394573"><ele>110.0</ele><time>2022-11-01T14:47:01.0000000+00:00</time></trkpt><trkpt lat="39.56881969" lon="-0.52392444"><ele>110.0</ele><time>2022-11-01T14:47:02.0000000+00:00</time></trkpt><trkpt lat="39.56884693" lon="-0.52389166"><ele>110.2</ele><time>2022-11-01T14:47:03.0000000+00:00</time></trkpt><trkpt lat="39.5688647" lon="-0.52386275"><ele>110.2</ele><time>2022-11-01T14:47:04.0000000+00:00</time></trkpt><trkpt lat="39.56888289" lon="-0.52382821"><ele>110.2</ele><time>2022-11-01T14:47:05.0000000+00:00</time></trkpt><trkpt lat="39.56889639" lon="-0.52379686"><ele>110.4</ele><time>2022-11-01T14:47:06.0000000+00:00</time></trkpt><trkpt lat="39.56889991" lon="-0.52376476"><ele>110.4</ele><time>2022-11-01T14:47:07.0000000+00:00</time></trkpt><trkpt lat="39.56890033" lon="-0.5237309"><ele>110.4</ele><time>2022-11-01T14:47:08.0000000+00:00</time></trkpt><trkpt lat="39.56890477" lon="-0.52369637"><ele>110.4</ele><time>2022-11-01T14:47:09.0000000+00:00</time></trkpt><trkpt lat="39.56891206" lon="-0.52366711"><ele>110.4</ele><time>2022-11-01T14:47:10.0000000+00:00</time></trkpt><trkpt lat="39.56892522" lon="-0.52362721"><ele>110.6</ele><time>2022-11-01T14:47:11.0000000+00:00</time></trkpt><trkpt lat="39.56894727" lon="-0.5235926"><ele>110.6</ele><time>2022-11-01T14:47:12.0000000+00:00</time></trkpt><trkpt lat="39.56897249" lon="-0.52355203"><ele>110.6</ele><time>2022-11-01T14:47:13.0000000+00:00</time></trkpt><trkpt lat="39.56899974" lon="-0.52350702"><ele>110.6</ele><time>2022-11-01T14:47:14.0000000+00:00</time></trkpt><trkpt lat="39.56902488" lon="-0.52347726"><ele>110.6</ele><time>2022-11-01T14:47:15.0000000+00:00</time></trkpt><trkpt lat="39.56904667" lon="-0.52342756"><ele>110.6</ele><time>2022-11-01T14:47:16.0000000+00:00</time></trkpt><trkpt lat="39.56906377" lon="-0.52339302"><ele>110.8</ele><time>2022-11-01T14:47:17.0000000+00:00</time></trkpt><trkpt lat="39.56909202" lon="-0.52335698"><ele>110.8</ele><time>2022-11-01T14:47:18.0000000+00:00</time></trkpt><trkpt lat="39.56911038" lon="-0.5233139"><ele>110.8</ele><time>2022-11-01T14:47:19.0000000+00:00</time></trkpt><trkpt lat="39.56912949" lon="-0.52326956"><ele>110.8</ele><time>2022-11-01T14:47:20.0000000+00:00</time></trkpt><trkpt lat="39.56916008" lon="-0.52323176"><ele>111.0</ele><time>2022-11-01T14:47:21.0000000+00:00</time></trkpt><trkpt lat="39.56919386" lon="-0.52318951"><ele>111.0</ele><time>2022-11-01T14:47:22.0000000+00:00</time></trkpt><trkpt lat="39.56921406" lon="-0.52315934"><ele>111.0</ele><time>2022-11-01T14:47:23.0000000+00:00</time></trkpt><trkpt lat="39.56924499" lon="-0.52311223"><ele>111.2</ele><time>2022-11-01T14:47:24.0000000+00:00</time></trkpt><trkpt lat="39.56926863" lon="-0.52308532"><ele>111.4</ele><time>2022-11-01T14:47:25.0000000+00:00</time></trkpt><trkpt lat="39.5692962" lon="-0.52305071"><ele>111.4</ele><time>2022-11-01T14:47:26.0000000+00:00</time></trkpt><trkpt lat="39.56932571" lon="-0.52301349"><ele>111.4</ele><time>2022-11-01T14:47:27.0000000+00:00</time></trkpt><trkpt lat="39.56936259" lon="-0.52297049"><ele>111.4</ele><time>2022-11-01T14:47:28.0000000+00:00</time></trkpt><trkpt lat="39.56938673" lon="-0.52294007"><ele>111.6</ele><time>2022-11-01T14:47:29.0000000+00:00</time></trkpt><trkpt lat="39.56941766" lon="-0.52290394"><ele>111.6</ele><time>2022-11-01T14:47:30.0000000+00:00</time></trkpt><trkpt lat="39.56944817" lon="-0.52286773"><ele>111.6</ele><time>2022-11-01T14:47:31.0000000+00:00</time></trkpt><trkpt lat="39.56948094" lon="-0.52283194"><ele>111.6</ele><time>2022-11-01T14:47:32.0000000+00:00</time></trkpt><trkpt lat="39.56951472" lon="-0.52279347"><ele>111.6</ele><time>2022-11-01T14:47:33.0000000+00:00</time></trkpt><trkpt lat="39.56954699" lon="-0.52275701"><ele>111.6</ele><time>2022-11-01T14:47:34.0000000+00:00</time></trkpt><trkpt lat="39.56957742" lon="-0.52271778"><ele>111.8</ele><time>2022-11-01T14:47:35.0000000+00:00</time></trkpt><trkpt lat="39.56960541" lon="-0.52267755"><ele>111.8</ele><time>2022-11-01T14:47:36.0000000+00:00</time></trkpt><trkpt lat="39.56963701" lon="-0.52264209"><ele>111.8</ele><time>2022-11-01T14:47:37.0000000+00:00</time></trkpt><trkpt lat="39.56967205" lon="-0.52260848"><ele>112.0</ele><time>2022-11-01T14:47:38.0000000+00:00</time></trkpt><trkpt lat="39.56970432" lon="-0.52257353"><ele>112.0</ele><time>2022-11-01T14:47:39.0000000+00:00</time></trkpt><trkpt lat="39.56973927" lon="-0.52253958"><ele>112.0</ele><time>2022-11-01T14:47:40.0000000+00:00</time></trkpt><trkpt lat="39.56977079" lon="-0.52250454"><ele>112.2</ele><time>2022-11-01T14:47:41.0000000+00:00</time></trkpt><trkpt lat="39.56980398" lon="-0.52246775"><ele>112.2</ele><time>2022-11-01T14:47:42.0000000+00:00</time></trkpt><trkpt lat="39.56983323" lon="-0.52242936"><ele>112.4</ele><time>2022-11-01T14:47:43.0000000+00:00</time></trkpt><trkpt lat="39.56984698" lon="-0.5223825"><ele>112.4</ele><time>2022-11-01T14:47:44.0000000+00:00</time></trkpt><trkpt lat="39.56983952" lon="-0.52233422"><ele>112.6</ele><time>2022-11-01T14:47:45.0000000+00:00</time></trkpt><trkpt lat="39.56982133" lon="-0.52228787"><ele>112.6</ele><time>2022-11-01T14:47:46.0000000+00:00</time></trkpt><trkpt lat="39.56979769" lon="-0.52224018"><ele>112.6</ele><time>2022-11-01T14:47:47.0000000+00:00</time></trkpt><trkpt lat="39.56977288" lon="-0.52219441"><ele>112.6</ele><time>2022-11-01T14:47:48.0000000+00:00</time></trkpt><trkpt lat="39.56975461" lon="-0.52215049"><ele>112.6</ele><time>2022-11-01T14:47:49.0000000+00:00</time></trkpt><trkpt lat="39.56975126" lon="-0.52210255"><ele>112.6</ele><time>2022-11-01T14:47:50.0000000+00:00</time></trkpt><trkpt lat="39.56976458" lon="-0.52205418"><ele>112.6</ele><time>2022-11-01T14:47:51.0000000+00:00</time></trkpt><trkpt lat="39.56978453" lon="-0.52200314"><ele>112.4</ele><time>2022-11-01T14:47:52.0000000+00:00</time></trkpt><trkpt lat="39.56980381" lon="-0.52195243"><ele>112.4</ele><time>2022-11-01T14:47:53.0000000+00:00</time></trkpt><trkpt lat="39.56982192" lon="-0.52190364"><ele>112.4</ele><time>2022-11-01T14:47:54.0000000+00:00</time></trkpt><trkpt lat="39.56983969" lon="-0.5218536"><ele>112.2</ele><time>2022-11-01T14:47:55.0000000+00:00</time></trkpt><trkpt lat="39.56985503" lon="-0.52180382"><ele>112.4</ele><time>2022-11-01T14:47:56.0000000+00:00</time></trkpt><trkpt lat="39.5698655" lon="-0.52174858"><ele>112.4</ele><time>2022-11-01T14:47:57.0000000+00:00</time></trkpt><trkpt lat="39.56987129" lon="-0.52169326"><ele>112.4</ele><time>2022-11-01T14:47:58.0000000+00:00</time></trkpt><trkpt lat="39.56987254" lon="-0.52163953"><ele>112.6</ele><time>2022-11-01T14:47:59.0000000+00:00</time></trkpt><trkpt lat="39.56986793" lon="-0.52158496"><ele>112.6</ele><time>2022-11-01T14:48:00.0000000+00:00</time></trkpt><trkpt lat="39.56985905" lon="-0.52152839"><ele>112.8</ele><time>2022-11-01T14:48:01.0000000+00:00</time></trkpt><trkpt lat="39.5698412" lon="-0.52147323"><ele>113.0</ele><time>2022-11-01T14:48:02.0000000+00:00</time></trkpt><trkpt lat="39.56981815" lon="-0.52141883"><ele>113.0</ele><time>2022-11-01T14:48:03.0000000+00:00</time></trkpt><trkpt lat="39.5697868" lon="-0.52136553"><ele>113.0</ele><time>2022-11-01T14:48:04.0000000+00:00</time></trkpt><trkpt lat="39.56975872" lon="-0.52131163"><ele>113.0</ele><time>2022-11-01T14:48:05.0000000+00:00</time></trkpt><trkpt lat="39.56973399" lon="-0.52126369"><ele>113.2</ele><time>2022-11-01T14:48:06.0000000+00:00</time></trkpt><trkpt lat="39.5697096" lon="-0.52121482"><ele>113.2</ele><time>2022-11-01T14:48:07.0000000+00:00</time></trkpt><trkpt lat="39.56968638" lon="-0.52117006"><ele>113.2</ele><time>2022-11-01T14:48:08.0000000+00:00</time></trkpt><trkpt lat="39.56966551" lon="-0.52112572"><ele>113.2</ele><time>2022-11-01T14:48:09.0000000+00:00</time></trkpt><trkpt lat="39.56964439" lon="-0.52108565"><ele>113.2</ele><time>2022-11-01T14:48:10.0000000+00:00</time></trkpt><trkpt lat="39.5696236" lon="-0.52104995"><ele>113.2</ele><time>2022-11-01T14:48:11.0000000+00:00</time></trkpt><trkpt lat="39.56960156" lon="-0.52101282"><ele>113.2</ele><time>2022-11-01T14:48:12.0000000+00:00</time></trkpt><trkpt lat="39.56957675" lon="-0.52097702"><ele>113.2</ele><time>2022-11-01T14:48:13.0000000+00:00</time></trkpt><trkpt lat="39.56955847" lon="-0.52093931"><ele>113.2</ele><time>2022-11-01T14:48:14.0000000+00:00</time></trkpt><trkpt lat="39.56953324" lon="-0.52089966"><ele>113.2</ele><time>2022-11-01T14:48:15.0000000+00:00</time></trkpt><trkpt lat="39.56951028" lon="-0.52085607"><ele>113.2</ele><time>2022-11-01T14:48:16.0000000+00:00</time></trkpt><trkpt lat="39.56948731" lon="-0.52081442"><ele>113.2</ele><time>2022-11-01T14:48:17.0000000+00:00</time></trkpt><trkpt lat="39.56946426" lon="-0.52076714"><ele>113.2</ele><time>2022-11-01T14:48:18.0000000+00:00</time></trkpt><trkpt lat="39.5694387" lon="-0.52072004"><ele>113.2</ele><time>2022-11-01T14:48:19.0000000+00:00</time></trkpt><trkpt lat="39.56941363" lon="-0.5206736"><ele>113.0</ele><time>2022-11-01T14:48:20.0000000+00:00</time></trkpt><trkpt lat="39.56938924" lon="-0.52062574"><ele>113.0</ele><time>2022-11-01T14:48:21.0000000+00:00</time></trkpt><trkpt lat="39.56936301" lon="-0.52058173"><ele>113.0</ele><time>2022-11-01T14:48:22.0000000+00:00</time></trkpt><trkpt lat="39.5693325" lon="-0.52053412"><ele>112.8</ele><time>2022-11-01T14:48:23.0000000+00:00</time></trkpt><trkpt lat="39.56930266" lon="-0.52048735"><ele>112.8</ele><time>2022-11-01T14:48:24.0000000+00:00</time></trkpt><trkpt lat="39.56927366" lon="-0.52043882"><ele>112.8</ele><time>2022-11-01T14:48:25.0000000+00:00</time></trkpt><trkpt lat="39.56923921" lon="-0.52038912"><ele>112.8</ele><time>2022-11-01T14:48:26.0000000+00:00</time></trkpt><trkpt lat="39.56920777" lon="-0.52033857"><ele>112.8</ele><time>2022-11-01T14:48:27.0000000+00:00</time></trkpt><trkpt lat="39.56917609" lon="-0.52028543"><ele>112.8</ele><time>2022-11-01T14:48:28.0000000+00:00</time></trkpt><trkpt lat="39.56914617" lon="-0.52023129"><ele>112.8</ele><time>2022-11-01T14:48:29.0000000+00:00</time></trkpt><trkpt lat="39.56910719" lon="-0.52018351"><ele>112.8</ele><time>2022-11-01T14:48:30.0000000+00:00</time></trkpt><trkpt lat="39.56906092" lon="-0.52015015"><ele>112.8</ele><time>2022-11-01T14:48:31.0000000+00:00</time></trkpt><trkpt lat="39.56901298" lon="-0.52013372"><ele>112.8</ele><time>2022-11-01T14:48:32.0000000+00:00</time></trkpt><trkpt lat="39.56896403" lon="-0.52012324"><ele>112.8</ele><time>2022-11-01T14:48:33.0000000+00:00</time></trkpt><trkpt lat="39.56891558" lon="-0.5201188"><ele>112.6</ele><time>2022-11-01T14:48:34.0000000+00:00</time></trkpt><trkpt lat="39.56886613" lon="-0.52012215"><ele>112.4</ele><time>2022-11-01T14:48:35.0000000+00:00</time></trkpt><trkpt lat="39.56881818" lon="-0.52013582"><ele>112.4</ele><time>2022-11-01T14:48:36.0000000+00:00</time></trkpt><trkpt lat="39.56877334" lon="-0.52015786"><ele>112.4</ele><time>2022-11-01T14:48:37.0000000+00:00</time></trkpt><trkpt lat="39.56873311" lon="-0.52018091"><ele>112.2</ele><time>2022-11-01T14:48:38.0000000+00:00</time></trkpt><trkpt lat="39.56869505" lon="-0.52019022"><ele>112.2</ele><time>2022-11-01T14:48:39.0000000+00:00</time></trkpt><trkpt lat="39.56866463" lon="-0.52018519"><ele>112.2</ele><time>2022-11-01T14:48:40.0000000+00:00</time></trkpt><trkpt lat="39.56864082" lon="-0.52017387"><ele>112.0</ele><time>2022-11-01T14:48:41.0000000+00:00</time></trkpt><trkpt lat="39.56861861" lon="-0.52015887"><ele>111.8</ele><time>2022-11-01T14:48:42.0000000+00:00</time></trkpt><trkpt lat="39.56859556" lon="-0.52013976"><ele>111.8</ele><time>2022-11-01T14:48:43.0000000+00:00</time></trkpt><trkpt lat="39.56857176" lon="-0.52012232"><ele>111.8</ele><time>2022-11-01T14:48:44.0000000+00:00</time></trkpt><trkpt lat="39.56854871" lon="-0.52009525"><ele>111.8</ele><time>2022-11-01T14:48:45.0000000+00:00</time></trkpt><trkpt lat="39.56852507" lon="-0.52006264"><ele>112.0</ele><time>2022-11-01T14:48:46.0000000+00:00</time></trkpt><trkpt lat="39.56850177" lon="-0.52002652"><ele>112.0</ele><time>2022-11-01T14:48:47.0000000+00:00</time></trkpt><trkpt lat="39.56847997" lon="-0.5199893"><ele>112.0</ele><time>2022-11-01T14:48:48.0000000+00:00</time></trkpt><trkpt lat="39.56846254" lon="-0.51995745"><ele>112.0</ele><time>2022-11-01T14:48:49.0000000+00:00</time></trkpt><trkpt lat="39.5684503" lon="-0.51992116"><ele>112.2</ele><time>2022-11-01T14:48:50.0000000+00:00</time></trkpt><trkpt lat="39.56844913" lon="-0.51988998"><ele>112.2</ele><time>2022-11-01T14:48:51.0000000+00:00</time></trkpt><trkpt lat="39.56845676" lon="-0.51985418"><ele>112.2</ele><time>2022-11-01T14:48:52.0000000+00:00</time></trkpt><trkpt lat="39.5684762" lon="-0.51982049"><ele>112.2</ele><time>2022-11-01T14:48:53.0000000+00:00</time></trkpt><trkpt lat="39.56850244" lon="-0.51979191"><ele>112.2</ele><time>2022-11-01T14:48:54.0000000+00:00</time></trkpt><trkpt lat="39.56852968" lon="-0.51976467"><ele>112.4</ele><time>2022-11-01T14:48:55.0000000+00:00</time></trkpt><trkpt lat="39.56856136" lon="-0.5197339"><ele>112.4</ele><time>2022-11-01T14:48:56.0000000+00:00</time></trkpt><trkpt lat="39.56859531" lon="-0.5197096"><ele>112.4</ele><time>2022-11-01T14:48:57.0000000+00:00</time></trkpt><trkpt lat="39.5686316" lon="-0.51968671"><ele>112.4</ele><time>2022-11-01T14:48:58.0000000+00:00</time></trkpt><trkpt lat="39.56866865" lon="-0.51966165"><ele>112.6</ele><time>2022-11-01T14:48:59.0000000+00:00</time></trkpt><trkpt lat="39.56870419" lon="-0.51963927"><ele>112.6</ele><time>2022-11-01T14:49:00.0000000+00:00</time></trkpt><trkpt lat="39.56874023" lon="-0.51961857"><ele>112.6</ele><time>2022-11-01T14:49:01.0000000+00:00</time></trkpt><trkpt lat="39.5687782" lon="-0.51959518"><ele>112.6</ele><time>2022-11-01T14:49:02.0000000+00:00</time></trkpt><trkpt lat="39.56881508" lon="-0.51956853"><ele>112.6</ele><time>2022-11-01T14:49:03.0000000+00:00</time></trkpt><trkpt lat="39.56884802" lon="-0.51953483"><ele>112.6</ele><time>2022-11-01T14:49:04.0000000+00:00</time></trkpt><trkpt lat="39.56888407" lon="-0.51950374"><ele>112.8</ele><time>2022-11-01T14:49:05.0000000+00:00</time></trkpt><trkpt lat="39.56892304" lon="-0.51948178"><ele>112.8</ele><time>2022-11-01T14:49:06.0000000+00:00</time></trkpt><trkpt lat="39.56896805" lon="-0.51945596"><ele>112.8</ele><time>2022-11-01T14:49:07.0000000+00:00</time></trkpt><trkpt lat="39.56900133" lon="-0.51944573"><ele>112.8</ele><time>2022-11-01T14:49:08.0000000+00:00</time></trkpt><trkpt lat="39.56903662" lon="-0.5194226"><ele>112.8</ele><time>2022-11-01T14:49:09.0000000+00:00</time></trkpt><trkpt lat="39.56906335" lon="-0.51939871"><ele>112.8</ele><time>2022-11-01T14:49:10.0000000+00:00</time></trkpt><trkpt lat="39.5690833" lon="-0.51936971"><ele>112.8</ele><time>2022-11-01T14:49:11.0000000+00:00</time></trkpt><trkpt lat="39.56910225" lon="-0.51934389"><ele>112.8</ele><time>2022-11-01T14:49:12.0000000+00:00</time></trkpt><trkpt lat="39.56912655" lon="-0.51932646"><ele>112.8</ele><time>2022-11-01T14:49:13.0000000+00:00</time></trkpt><trkpt lat="39.56914717" lon="-0.51931129"><ele>112.8</ele><time>2022-11-01T14:49:14.0000000+00:00</time></trkpt><trkpt lat="39.56916696" lon="-0.51929209"><ele>112.8</ele><time>2022-11-01T14:49:15.0000000+00:00</time></trkpt><trkpt lat="39.56918707" lon="-0.5192672"><ele>112.8</ele><time>2022-11-01T14:49:16.0000000+00:00</time></trkpt><trkpt lat="39.56920912" lon="-0.51924306"><ele>113.0</ele><time>2022-11-01T14:49:17.0000000+00:00</time></trkpt><trkpt lat="39.56923083" lon="-0.51922361"><ele>113.0</ele><time>2022-11-01T14:49:18.0000000+00:00</time></trkpt><trkpt lat="39.56925538" lon="-0.51920165"><ele>113.0</ele><time>2022-11-01T14:49:19.0000000+00:00</time></trkpt><trkpt lat="39.56928019" lon="-0.51917466"><ele>113.0</ele><time>2022-11-01T14:49:20.0000000+00:00</time></trkpt><trkpt lat="39.56929931" lon="-0.51914432"><ele>113.2</ele><time>2022-11-01T14:49:21.0000000+00:00</time></trkpt><trkpt lat="39.5693102" lon="-0.51910954"><ele>113.4</ele><time>2022-11-01T14:49:22.0000000+00:00</time></trkpt><trkpt lat="39.56931724" lon="-0.51907375"><ele>113.6</ele><time>2022-11-01T14:49:23.0000000+00:00</time></trkpt><trkpt lat="39.56932655" lon="-0.5190398"><ele>113.6</ele><time>2022-11-01T14:49:24.0000000+00:00</time></trkpt><trkpt lat="39.56933434" lon="-0.51900518"><ele>113.8</ele><time>2022-11-01T14:49:25.0000000+00:00</time></trkpt><trkpt lat="39.56934197" lon="-0.51897115"><ele>113.8</ele><time>2022-11-01T14:49:26.0000000+00:00</time></trkpt><trkpt lat="39.56934859" lon="-0.51893419"><ele>114.0</ele><time>2022-11-01T14:49:27.0000000+00:00</time></trkpt><trkpt lat="39.56935555" lon="-0.51889571"><ele>114.2</ele><time>2022-11-01T14:49:28.0000000+00:00</time></trkpt><trkpt lat="39.56935823" lon="-0.51885766"><ele>114.2</ele><time>2022-11-01T14:49:29.0000000+00:00</time></trkpt><trkpt lat="39.56936225" lon="-0.51882187"><ele>114.4</ele><time>2022-11-01T14:49:30.0000000+00:00</time></trkpt><trkpt lat="39.56936938" lon="-0.51878507"><ele>114.4</ele><time>2022-11-01T14:49:31.0000000+00:00</time></trkpt><trkpt lat="39.56937541" lon="-0.51874979"><ele>114.6</ele><time>2022-11-01T14:49:32.0000000+00:00</time></trkpt><trkpt lat="39.56938128" lon="-0.51871399"><ele>114.8</ele><time>2022-11-01T14:49:33.0000000+00:00</time></trkpt><trkpt lat="39.56938983" lon="-0.51867703"><ele>115.0</ele><time>2022-11-01T14:49:34.0000000+00:00</time></trkpt><trkpt lat="39.56939704" lon="-0.51863889"><ele>115.2</ele><time>2022-11-01T14:49:35.0000000+00:00</time></trkpt><trkpt lat="39.5694055" lon="-0.51860092"><ele>115.4</ele><time>2022-11-01T14:49:36.0000000+00:00</time></trkpt><trkpt lat="39.56941363" lon="-0.51856287"><ele>115.6</ele><time>2022-11-01T14:49:37.0000000+00:00</time></trkpt><trkpt lat="39.5694221" lon="-0.51852917"><ele>115.6</ele><time>2022-11-01T14:49:38.0000000+00:00</time></trkpt><trkpt lat="39.56942981" lon="-0.51849112"><ele>115.8</ele><time>2022-11-01T14:49:39.0000000+00:00</time></trkpt><trkpt lat="39.56944088" lon="-0.51845298"><ele>115.8</ele><time>2022-11-01T14:49:40.0000000+00:00</time></trkpt><trkpt lat="39.56944934" lon="-0.51841334"><ele>115.8</ele><time>2022-11-01T14:49:41.0000000+00:00</time></trkpt><trkpt lat="39.56945496" lon="-0.5183757"><ele>116.0</ele><time>2022-11-01T14:49:42.0000000+00:00</time></trkpt><trkpt lat="39.56945915" lon="-0.51833547"><ele>116.0</ele><time>2022-11-01T14:49:43.0000000+00:00</time></trkpt><trkpt lat="39.56946024" lon="-0.51829398"><ele>116.4</ele><time>2022-11-01T14:49:44.0000000+00:00</time></trkpt><trkpt lat="39.56946426" lon="-0.51825366"><ele>116.4</ele><time>2022-11-01T14:49:45.0000000+00:00</time></trkpt><trkpt lat="39.56947147" lon="-0.51821544"><ele>116.6</ele><time>2022-11-01T14:49:46.0000000+00:00</time></trkpt><trkpt lat="39.56947616" lon="-0.51817931"><ele>116.6</ele><time>2022-11-01T14:49:47.0000000+00:00</time></trkpt><trkpt lat="39.56947935" lon="-0.51814595"><ele>117.0</ele><time>2022-11-01T14:49:48.0000000+00:00</time></trkpt><trkpt lat="39.56948379" lon="-0.51811092"><ele>117.0</ele><time>2022-11-01T14:49:49.0000000+00:00</time></trkpt><trkpt lat="39.56949385" lon="-0.51807161"><ele>117.2</ele><time>2022-11-01T14:49:50.0000000+00:00</time></trkpt><trkpt lat="39.5695076" lon="-0.51803892"><ele>117.4</ele><time>2022-11-01T14:49:51.0000000+00:00</time></trkpt><trkpt lat="39.56952604" lon="-0.51801402"><ele>117.4</ele><time>2022-11-01T14:49:52.0000000+00:00</time></trkpt><trkpt lat="39.5695485" lon="-0.51799173"><ele>117.6</ele><time>2022-11-01T14:49:53.0000000+00:00</time></trkpt><trkpt lat="39.56957515" lon="-0.51796868"><ele>117.6</ele><time>2022-11-01T14:49:54.0000000+00:00</time></trkpt><trkpt lat="39.56960131" lon="-0.51794646"><ele>117.8</ele><time>2022-11-01T14:49:55.0000000+00:00</time></trkpt><trkpt lat="39.56962712" lon="-0.51792174"><ele>117.8</ele><time>2022-11-01T14:49:56.0000000+00:00</time></trkpt><trkpt lat="39.56965277" lon="-0.51789416"><ele>117.8</ele><time>2022-11-01T14:49:57.0000000+00:00</time></trkpt><trkpt lat="39.56968068" lon="-0.51786901"><ele>118.0</ele><time>2022-11-01T14:49:58.0000000+00:00</time></trkpt><trkpt lat="39.56971035" lon="-0.51784479"><ele>118.0</ele><time>2022-11-01T14:49:59.0000000+00:00</time></trkpt><trkpt lat="39.56974019" lon="-0.51782107"><ele>118.2</ele><time>2022-11-01T14:50:00.0000000+00:00</time></trkpt><trkpt lat="39.56977012" lon="-0.51779718"><ele>118.2</ele><time>2022-11-01T14:50:01.0000000+00:00</time></trkpt><trkpt lat="39.56979836" lon="-0.51777287"><ele>118.4</ele><time>2022-11-01T14:50:02.0000000+00:00</time></trkpt><trkpt lat="39.56982728" lon="-0.51774773"><ele>118.4</ele><time>2022-11-01T14:50:03.0000000+00:00</time></trkpt><trkpt lat="39.56985494" lon="-0.51772208"><ele>118.6</ele><time>2022-11-01T14:50:04.0000000+00:00</time></trkpt><trkpt lat="39.56988419" lon="-0.51769643"><ele>118.6</ele><time>2022-11-01T14:50:05.0000000+00:00</time></trkpt><trkpt lat="39.56991529" lon="-0.51767103"><ele>118.6</ele><time>2022-11-01T14:50:06.0000000+00:00</time></trkpt><trkpt lat="39.56994446" lon="-0.51764547"><ele>118.8</ele><time>2022-11-01T14:50:07.0000000+00:00</time></trkpt><trkpt lat="39.56997321" lon="-0.51762032"><ele>118.8</ele><time>2022-11-01T14:50:08.0000000+00:00</time></trkpt><trkpt lat="39.57000406" lon="-0.51759392"><ele>119.0</ele><time>2022-11-01T14:50:09.0000000+00:00</time></trkpt><trkpt lat="39.57003482" lon="-0.51756852"><ele>119.0</ele><time>2022-11-01T14:50:10.0000000+00:00</time></trkpt><trkpt lat="39.57006524" lon="-0.51754371"><ele>119.2</ele><time>2022-11-01T14:50:11.0000000+00:00</time></trkpt><trkpt lat="39.57009047" lon="-0.51751329"><ele>119.4</ele><time>2022-11-01T14:50:12.0000000+00:00</time></trkpt><trkpt lat="39.5701173" lon="-0.51748504"><ele>119.4</ele><time>2022-11-01T14:50:13.0000000+00:00</time></trkpt><trkpt lat="39.5701411" lon="-0.51746442"><ele>119.6</ele><time>2022-11-01T14:50:14.0000000+00:00</time></trkpt><trkpt lat="39.57016641" lon="-0.51744472"><ele>119.8</ele><time>2022-11-01T14:50:15.0000000+00:00</time></trkpt><trkpt lat="39.57018687" lon="-0.5174236"><ele>120.0</ele><time>2022-11-01T14:50:16.0000000+00:00</time></trkpt><trkpt lat="39.57020606" lon="-0.51740348"><ele>120.2</ele><time>2022-11-01T14:50:17.0000000+00:00</time></trkpt><trkpt lat="39.5702297" lon="-0.51738622"><ele>120.4</ele><time>2022-11-01T14:50:18.0000000+00:00</time></trkpt><trkpt lat="39.57025702" lon="-0.51737138"><ele>120.4</ele><time>2022-11-01T14:50:19.0000000+00:00</time></trkpt><trkpt lat="39.57028443" lon="-0.5173604"><ele>120.6</ele><time>2022-11-01T14:50:20.0000000+00:00</time></trkpt><trkpt lat="39.57030572" lon="-0.51734372"><ele>120.6</ele><time>2022-11-01T14:50:21.0000000+00:00</time></trkpt><trkpt lat="39.57032902" lon="-0.51732612"><ele>120.8</ele><time>2022-11-01T14:50:22.0000000+00:00</time></trkpt><trkpt lat="39.57035375" lon="-0.51731011"><ele>121.0</ele><time>2022-11-01T14:50:23.0000000+00:00</time></trkpt><trkpt lat="39.5703778" lon="-0.51729242"><ele>121.2</ele><time>2022-11-01T14:50:24.0000000+00:00</time></trkpt><trkpt lat="39.57040362" lon="-0.51727323"><ele>121.2</ele><time>2022-11-01T14:50:25.0000000+00:00</time></trkpt><trkpt lat="39.57042852" lon="-0.51724951"><ele>121.2</ele><time>2022-11-01T14:50:26.0000000+00:00</time></trkpt><trkpt lat="39.570454" lon="-0.51722721"><ele>121.4</ele><time>2022-11-01T14:50:27.0000000+00:00</time></trkpt><trkpt lat="39.57047872" lon="-0.51720525"><ele>121.4</ele><time>2022-11-01T14:50:28.0000000+00:00</time></trkpt><trkpt lat="39.57050496" lon="-0.5171791"><ele>121.6</ele><time>2022-11-01T14:50:29.0000000+00:00</time></trkpt><trkpt lat="39.57052893" lon="-0.5171594"><ele>121.6</ele><time>2022-11-01T14:50:30.0000000+00:00</time></trkpt><trkpt lat="39.57056271" lon="-0.51712822"><ele>121.6</ele><time>2022-11-01T14:50:31.0000000+00:00</time></trkpt><trkpt lat="39.57058987" lon="-0.51710358"><ele>121.6</ele><time>2022-11-01T14:50:32.0000000+00:00</time></trkpt><trkpt lat="39.57061929" lon="-0.51708363"><ele>121.8</ele><time>2022-11-01T14:50:33.0000000+00:00</time></trkpt><trkpt lat="39.57064871" lon="-0.51706201"><ele>121.8</ele><time>2022-11-01T14:50:34.0000000+00:00</time></trkpt><trkpt lat="39.57067804" lon="-0.51703703"><ele>121.8</ele><time>2022-11-01T14:50:35.0000000+00:00</time></trkpt><trkpt lat="39.57070453" lon="-0.51700736"><ele>121.8</ele><time>2022-11-01T14:50:36.0000000+00:00</time></trkpt><trkpt lat="39.57072917" lon="-0.5169859"><ele>121.8</ele><time>2022-11-01T14:50:37.0000000+00:00</time></trkpt><trkpt lat="39.57077251" lon="-0.51695488"><ele>122.0</ele><time>2022-11-01T14:50:38.0000000+00:00</time></trkpt><trkpt lat="39.57080956" lon="-0.51692354"><ele>122.0</ele><time>2022-11-01T14:50:39.0000000+00:00</time></trkpt><trkpt lat="39.5708409" lon="-0.51688473"><ele>122.0</ele><time>2022-11-01T14:50:40.0000000+00:00</time></trkpt><trkpt lat="39.57087259" lon="-0.51685162"><ele>122.0</ele><time>2022-11-01T14:50:41.0000000+00:00</time></trkpt><trkpt lat="39.57090452" lon="-0.51681985"><ele>122.0</ele><time>2022-11-01T14:50:42.0000000+00:00</time></trkpt><trkpt lat="39.57094308" lon="-0.51679152"><ele>122.0</ele><time>2022-11-01T14:50:43.0000000+00:00</time></trkpt><trkpt lat="39.57098206" lon="-0.51676135"><ele>122.0</ele><time>2022-11-01T14:50:44.0000000+00:00</time></trkpt><trkpt lat="39.57102086" lon="-0.51672824"><ele>122.0</ele><time>2022-11-01T14:50:45.0000000+00:00</time></trkpt><trkpt lat="39.57105749" lon="-0.51669437"><ele>122.0</ele><time>2022-11-01T14:50:46.0000000+00:00</time></trkpt><trkpt lat="39.57110175" lon="-0.51666479"><ele>122.2</ele><time>2022-11-01T14:50:47.0000000+00:00</time></trkpt><trkpt lat="39.57114584" lon="-0.51662983"><ele>122.2</ele><time>2022-11-01T14:50:48.0000000+00:00</time></trkpt><trkpt lat="39.57118448" lon="-0.51659036"><ele>122.2</ele><time>2022-11-01T14:50:49.0000000+00:00</time></trkpt><trkpt lat="39.57122446" lon="-0.51655029"><ele>122.2</ele><time>2022-11-01T14:50:50.0000000+00:00</time></trkpt><trkpt lat="39.57126067" lon="-0.5165083"><ele>122.2</ele><time>2022-11-01T14:50:51.0000000+00:00</time></trkpt><trkpt lat="39.5712937" lon="-0.51646505"><ele>122.2</ele><time>2022-11-01T14:50:52.0000000+00:00</time></trkpt><trkpt lat="39.57132706" lon="-0.51642213"><ele>122.2</ele><time>2022-11-01T14:50:53.0000000+00:00</time></trkpt><trkpt lat="39.57135907" lon="-0.51638374"><ele>122.4</ele><time>2022-11-01T14:50:54.0000000+00:00</time></trkpt><trkpt lat="39.57139168" lon="-0.51634535"><ele>122.6</ele><time>2022-11-01T14:50:55.0000000+00:00</time></trkpt><trkpt lat="39.57142538" lon="-0.51630805"><ele>122.8</ele><time>2022-11-01T14:50:56.0000000+00:00</time></trkpt><trkpt lat="39.57145538" lon="-0.51627"><ele>123.0</ele><time>2022-11-01T14:50:57.0000000+00:00</time></trkpt><trkpt lat="39.5714843" lon="-0.51623178"><ele>123.2</ele><time>2022-11-01T14:50:58.0000000+00:00</time></trkpt><trkpt lat="39.57151389" lon="-0.51619775"><ele>123.2</ele><time>2022-11-01T14:50:59.0000000+00:00</time></trkpt><trkpt lat="39.57154431" lon="-0.51616481"><ele>123.4</ele><time>2022-11-01T14:51:00.0000000+00:00</time></trkpt><trkpt lat="39.57157591" lon="-0.51613111"><ele>123.4</ele><time>2022-11-01T14:51:01.0000000+00:00</time></trkpt><trkpt lat="39.57160265" lon="-0.51609607"><ele>123.8</ele><time>2022-11-01T14:51:02.0000000+00:00</time></trkpt><trkpt lat="39.57162855" lon="-0.51605928"><ele>123.8</ele><time>2022-11-01T14:51:03.0000000+00:00</time></trkpt><trkpt lat="39.57165009" lon="-0.5160193"><ele>124.0</ele><time>2022-11-01T14:51:04.0000000+00:00</time></trkpt><trkpt lat="39.57167138" lon="-0.51598107"><ele>124.0</ele><time>2022-11-01T14:51:05.0000000+00:00</time></trkpt><trkpt lat="39.57168764" lon="-0.51594269"><ele>124.0</ele><time>2022-11-01T14:51:06.0000000+00:00</time></trkpt><trkpt lat="39.57170868" lon="-0.51590748"><ele>123.8</ele><time>2022-11-01T14:51:07.0000000+00:00</time></trkpt><trkpt lat="39.57173173" lon="-0.51587513"><ele>123.8</ele><time>2022-11-01T14:51:08.0000000+00:00</time></trkpt><trkpt lat="39.57175604" lon="-0.51584361"><ele>123.6</ele><time>2022-11-01T14:51:09.0000000+00:00</time></trkpt><trkpt lat="39.57178094" lon="-0.51580975"><ele>123.6</ele><time>2022-11-01T14:51:10.0000000+00:00</time></trkpt><trkpt lat="39.57180348" lon="-0.5157732"><ele>123.8</ele><time>2022-11-01T14:51:11.0000000+00:00</time></trkpt><trkpt lat="39.57182695" lon="-0.51573942"><ele>123.8</ele><time>2022-11-01T14:51:12.0000000+00:00</time></trkpt><trkpt lat="39.57184916" lon="-0.51570221"><ele>123.8</ele><time>2022-11-01T14:51:13.0000000+00:00</time></trkpt><trkpt lat="39.57186903" lon="-0.51566189"><ele>123.8</ele><time>2022-11-01T14:51:14.0000000+00:00</time></trkpt><trkpt lat="39.5718868" lon="-0.51562049"><ele>124.0</ele><time>2022-11-01T14:51:15.0000000+00:00</time></trkpt><trkpt lat="39.57189644" lon="-0.51557967"><ele>124.2</ele><time>2022-11-01T14:51:16.0000000+00:00</time></trkpt><trkpt lat="39.57189501" lon="-0.51553767"><ele>124.2</ele><time>2022-11-01T14:51:17.0000000+00:00</time></trkpt><trkpt lat="39.57188169" lon="-0.51549761"><ele>124.2</ele><time>2022-11-01T14:51:18.0000000+00:00</time></trkpt><trkpt lat="39.57186517" lon="-0.51546207"><ele>124.4</ele><time>2022-11-01T14:51:19.0000000+00:00</time></trkpt><trkpt lat="39.57185034" lon="-0.51542644"><ele>124.4</ele><time>2022-11-01T14:51:20.0000000+00:00</time></trkpt><trkpt lat="39.57183441" lon="-0.51538579"><ele>124.2</ele><time>2022-11-01T14:51:21.0000000+00:00</time></trkpt><trkpt lat="39.57181882" lon="-0.5153433"><ele>124.2</ele><time>2022-11-01T14:51:22.0000000+00:00</time></trkpt><trkpt lat="39.57180063" lon="-0.51530231"><ele>124.2</ele><time>2022-11-01T14:51:23.0000000+00:00</time></trkpt><trkpt lat="39.57178295" lon="-0.51526442"><ele>124.2</ele><time>2022-11-01T14:51:24.0000000+00:00</time></trkpt><trkpt lat="39.5717687" lon="-0.51522913"><ele>124.2</ele><time>2022-11-01T14:51:25.0000000+00:00</time></trkpt><trkpt lat="39.57175571" lon="-0.5151972"><ele>124.0</ele><time>2022-11-01T14:51:26.0000000+00:00</time></trkpt><trkpt lat="39.57174179" lon="-0.51516392"><ele>124.0</ele><time>2022-11-01T14:51:27.0000000+00:00</time></trkpt><trkpt lat="39.57172427" lon="-0.51512671"><ele>124.0</ele><time>2022-11-01T14:51:28.0000000+00:00</time></trkpt><trkpt lat="39.57170541" lon="-0.51508815"><ele>124.0</ele><time>2022-11-01T14:51:29.0000000+00:00</time></trkpt><trkpt lat="39.57168513" lon="-0.51504289"><ele>123.8</ele><time>2022-11-01T14:51:30.0000000+00:00</time></trkpt><trkpt lat="39.57166594" lon="-0.51499712"><ele>123.8</ele><time>2022-11-01T14:51:31.0000000+00:00</time></trkpt><trkpt lat="39.57164842" lon="-0.51495178"><ele>124.0</ele><time>2022-11-01T14:51:32.0000000+00:00</time></trkpt><trkpt lat="39.57163174" lon="-0.51490693"><ele>124.0</ele><time>2022-11-01T14:51:33.0000000+00:00</time></trkpt><trkpt lat="39.57161564" lon="-0.514861"><ele>124.2</ele><time>2022-11-01T14:51:34.0000000+00:00</time></trkpt><trkpt lat="39.5715998" lon="-0.51481155"><ele>124.4</ele><time>2022-11-01T14:51:35.0000000+00:00</time></trkpt><trkpt lat="39.5715848" lon="-0.51476486"><ele>124.4</ele><time>2022-11-01T14:51:36.0000000+00:00</time></trkpt><trkpt lat="39.57156963" lon="-0.5147108"><ele>124.4</ele><time>2022-11-01T14:51:37.0000000+00:00</time></trkpt><trkpt lat="39.57155161" lon="-0.51465523"><ele>124.4</ele><time>2022-11-01T14:51:38.0000000+00:00</time></trkpt><trkpt lat="39.57153233" lon="-0.514602"><ele>124.4</ele><time>2022-11-01T14:51:39.0000000+00:00</time></trkpt><trkpt lat="39.5715154" lon="-0.51455087"><ele>124.4</ele><time>2022-11-01T14:51:40.0000000+00:00</time></trkpt><trkpt lat="39.57149779" lon="-0.51450041"><ele>124.2</ele><time>2022-11-01T14:51:41.0000000+00:00</time></trkpt><trkpt lat="39.57148237" lon="-0.51445238"><ele>124.2</ele><time>2022-11-01T14:51:42.0000000+00:00</time></trkpt><trkpt lat="39.57146594" lon="-0.51440838"><ele>124.2</ele><time>2022-11-01T14:51:43.0000000+00:00</time></trkpt><trkpt lat="39.57144591" lon="-0.51436722"><ele>124.2</ele><time>2022-11-01T14:51:44.0000000+00:00</time></trkpt><trkpt lat="39.57142412" lon="-0.51432364"><ele>124.2</ele><time>2022-11-01T14:51:45.0000000+00:00</time></trkpt><trkpt lat="39.57140241" lon="-0.5142829"><ele>124.2</ele><time>2022-11-01T14:51:46.0000000+00:00</time></trkpt><trkpt lat="39.57137986" lon="-0.51424719"><ele>124.2</ele><time>2022-11-01T14:51:47.0000000+00:00</time></trkpt><trkpt lat="39.57135933" lon="-0.51421643"><ele>124.0</ele><time>2022-11-01T14:51:48.0000000+00:00</time></trkpt><trkpt lat="39.57133653" lon="-0.5141902"><ele>124.0</ele><time>2022-11-01T14:51:49.0000000+00:00</time></trkpt><trkpt lat="39.57130912" lon="-0.51415969"><ele>124.2</ele><time>2022-11-01T14:51:50.0000000+00:00</time></trkpt><trkpt lat="39.57129655" lon="-0.51413463"><ele>124.2</ele><time>2022-11-01T14:51:51.0000000+00:00</time></trkpt><trkpt lat="39.57128372" lon="-0.51410336"><ele>124.2</ele><time>2022-11-01T14:51:52.0000000+00:00</time></trkpt><trkpt lat="39.57127282" lon="-0.51407327"><ele>124.2</ele><time>2022-11-01T14:51:53.0000000+00:00</time></trkpt><trkpt lat="39.5712688" lon="-0.51405106"><ele>124.2</ele><time>2022-11-01T14:51:54.0000000+00:00</time></trkpt><trkpt lat="39.57126981" lon="-0.51402415"><ele>124.4</ele><time>2022-11-01T14:51:55.0000000+00:00</time></trkpt><trkpt lat="39.57128037" lon="-0.51399649"><ele>124.4</ele><time>2022-11-01T14:51:56.0000000+00:00</time></trkpt><trkpt lat="39.5712978" lon="-0.51396866"><ele>124.6</ele><time>2022-11-01T14:51:57.0000000+00:00</time></trkpt><trkpt lat="39.57131867" lon="-0.51394167"><ele>124.6</ele><time>2022-11-01T14:51:58.0000000+00:00</time></trkpt><trkpt lat="39.57134239" lon="-0.51391443"><ele>124.8</ele><time>2022-11-01T14:51:59.0000000+00:00</time></trkpt><trkpt lat="39.57136637" lon="-0.51388543"><ele>125.0</ele><time>2022-11-01T14:52:00.0000000+00:00</time></trkpt><trkpt lat="39.5713916" lon="-0.51385643"><ele>125.0</ele><time>2022-11-01T14:52:01.0000000+00:00</time></trkpt><trkpt lat="39.57141859" lon="-0.51383019"><ele>125.2</ele><time>2022-11-01T14:52:02.0000000+00:00</time></trkpt><trkpt lat="39.5714465" lon="-0.51380379"><ele>125.2</ele><time>2022-11-01T14:52:03.0000000+00:00</time></trkpt><trkpt lat="39.57147114" lon="-0.51377513"><ele>125.2</ele><time>2022-11-01T14:52:04.0000000+00:00</time></trkpt><trkpt lat="39.57148832" lon="-0.51373682"><ele>125.2</ele><time>2022-11-01T14:52:05.0000000+00:00</time></trkpt><trkpt lat="39.57149226" lon="-0.51369357"><ele>125.2</ele><time>2022-11-01T14:52:06.0000000+00:00</time></trkpt><trkpt lat="39.57148464" lon="-0.51364604"><ele>125.4</ele><time>2022-11-01T14:52:07.0000000+00:00</time></trkpt><trkpt lat="39.57146938" lon="-0.51360313"><ele>125.4</ele><time>2022-11-01T14:52:08.0000000+00:00</time></trkpt><trkpt lat="39.57145102" lon="-0.51356818"><ele>125.6</ele><time>2022-11-01T14:52:09.0000000+00:00</time></trkpt><trkpt lat="39.57143141" lon="-0.51353683"><ele>125.6</ele><time>2022-11-01T14:52:10.0000000+00:00</time></trkpt><trkpt lat="39.57141331" lon="-0.51350364"><ele>125.6</ele><time>2022-11-01T14:52:11.0000000+00:00</time></trkpt><trkpt lat="39.57139369" lon="-0.51346726"><ele>125.6</ele><time>2022-11-01T14:52:12.0000000+00:00</time></trkpt><trkpt lat="39.57137408" lon="-0.51342703"><ele>125.6</ele><time>2022-11-01T14:52:13.0000000+00:00</time></trkpt><trkpt lat="39.57135346" lon="-0.51338746"><ele>125.6</ele><time>2022-11-01T14:52:14.0000000+00:00</time></trkpt><trkpt lat="39.57133099" lon="-0.51335125"><ele>125.6</ele><time>2022-11-01T14:52:15.0000000+00:00</time></trkpt><trkpt lat="39.57130635" lon="-0.51331471"><ele>125.8</ele><time>2022-11-01T14:52:16.0000000+00:00</time></trkpt><trkpt lat="39.57128515" lon="-0.51328185"><ele>125.8</ele><time>2022-11-01T14:52:17.0000000+00:00</time></trkpt><trkpt lat="39.57126369" lon="-0.51324204"><ele>125.8</ele><time>2022-11-01T14:52:18.0000000+00:00</time></trkpt><trkpt lat="39.57124072" lon="-0.51320365"><ele>125.8</ele><time>2022-11-01T14:52:19.0000000+00:00</time></trkpt><trkpt lat="39.5712175" lon="-0.51316618"><ele>126.0</ele><time>2022-11-01T14:52:20.0000000+00:00</time></trkpt><trkpt lat="39.5711937" lon="-0.51312628"><ele>126.0</ele><time>2022-11-01T14:52:21.0000000+00:00</time></trkpt><trkpt lat="39.57117157" lon="-0.51308387"><ele>126.0</ele><time>2022-11-01T14:52:22.0000000+00:00</time></trkpt><trkpt lat="39.57115447" lon="-0.51304372"><ele>126.0</ele><time>2022-11-01T14:52:23.0000000+00:00</time></trkpt><trkpt lat="39.57113461" lon="-0.51300441"><ele>126.0</ele><time>2022-11-01T14:52:24.0000000+00:00</time></trkpt><trkpt lat="39.57111315" lon="-0.51296552"><ele>126.0</ele><time>2022-11-01T14:52:25.0000000+00:00</time></trkpt><trkpt lat="39.57109094" lon="-0.51292696"><ele>126.0</ele><time>2022-11-01T14:52:26.0000000+00:00</time></trkpt><trkpt lat="39.57106889" lon="-0.51288849"><ele>126.0</ele><time>2022-11-01T14:52:27.0000000+00:00</time></trkpt><trkpt lat="39.57104811" lon="-0.51285161"><ele>126.0</ele><time>2022-11-01T14:52:28.0000000+00:00</time></trkpt><trkpt lat="39.57102975" lon="-0.5128154"><ele>126.2</ele><time>2022-11-01T14:52:29.0000000+00:00</time></trkpt><trkpt lat="39.57100863" lon="-0.5127755"><ele>126.2</ele><time>2022-11-01T14:52:30.0000000+00:00</time></trkpt><trkpt lat="39.57098583" lon="-0.51273753"><ele>126.2</ele><time>2022-11-01T14:52:31.0000000+00:00</time></trkpt><trkpt lat="39.5709642" lon="-0.51269872"><ele>126.2</ele><time>2022-11-01T14:52:32.0000000+00:00</time></trkpt><trkpt lat="39.57094383" lon="-0.51265505"><ele>126.2</ele><time>2022-11-01T14:52:33.0000000+00:00</time></trkpt><trkpt lat="39.57092238" lon="-0.51261432"><ele>126.4</ele><time>2022-11-01T14:52:34.0000000+00:00</time></trkpt><trkpt lat="39.57090142" lon="-0.51257702"><ele>126.6</ele><time>2022-11-01T14:52:35.0000000+00:00</time></trkpt><trkpt lat="39.57087871" lon="-0.51253812"><ele>126.8</ele><time>2022-11-01T14:52:36.0000000+00:00</time></trkpt><trkpt lat="39.57085457" lon="-0.51250141"><ele>127.0</ele><time>2022-11-01T14:52:37.0000000+00:00</time></trkpt><trkpt lat="39.57083428" lon="-0.51246462"><ele>127.0</ele><time>2022-11-01T14:52:38.0000000+00:00</time></trkpt><trkpt lat="39.57081014" lon="-0.51242606"><ele>127.0</ele><time>2022-11-01T14:52:39.0000000+00:00</time></trkpt><trkpt lat="39.57078936" lon="-0.51238884"><ele>127.0</ele><time>2022-11-01T14:52:40.0000000+00:00</time></trkpt><trkpt lat="39.57076765" lon="-0.5123492"><ele>127.0</ele><time>2022-11-01T14:52:41.0000000+00:00</time></trkpt><trkpt lat="39.57074787" lon="-0.51230695"><ele>127.0</ele><time>2022-11-01T14:52:42.0000000+00:00</time></trkpt><trkpt lat="39.57072775" lon="-0.51226462"><ele>127.0</ele><time>2022-11-01T14:52:43.0000000+00:00</time></trkpt><trkpt lat="39.57070747" lon="-0.51222934"><ele>126.8</ele><time>2022-11-01T14:52:44.0000000+00:00</time></trkpt><trkpt lat="39.57068768" lon="-0.51219421"><ele>126.8</ele><time>2022-11-01T14:52:45.0000000+00:00</time></trkpt><trkpt lat="39.57066522" lon="-0.51215884"><ele>126.8</ele><time>2022-11-01T14:52:46.0000000+00:00</time></trkpt><trkpt lat="39.57064326" lon="-0.51211953"><ele>126.8</ele><time>2022-11-01T14:52:47.0000000+00:00</time></trkpt><trkpt lat="39.57062163" lon="-0.51208374"><ele>127.0</ele><time>2022-11-01T14:52:48.0000000+00:00</time></trkpt><trkpt lat="39.5705985" lon="-0.51204711"><ele>127.2</ele><time>2022-11-01T14:52:49.0000000+00:00</time></trkpt><trkpt lat="39.57057646" lon="-0.51201358"><ele>127.2</ele><time>2022-11-01T14:52:50.0000000+00:00</time></trkpt><trkpt lat="39.57055517" lon="-0.51197629"><ele>127.4</ele><time>2022-11-01T14:52:51.0000000+00:00</time></trkpt><trkpt lat="39.57053438" lon="-0.51194049"><ele>127.4</ele><time>2022-11-01T14:52:52.0000000+00:00</time></trkpt><trkpt lat="39.570513" lon="-0.51190169"><ele>127.4</ele><time>2022-11-01T14:52:53.0000000+00:00</time></trkpt><trkpt lat="39.57049448" lon="-0.51185986"><ele>127.6</ele><time>2022-11-01T14:52:54.0000000+00:00</time></trkpt><trkpt lat="39.57047562" lon="-0.51182256"><ele>127.6</ele><time>2022-11-01T14:52:55.0000000+00:00</time></trkpt><trkpt lat="39.57045492" lon="-0.5117856"><ele>127.8</ele><time>2022-11-01T14:52:56.0000000+00:00</time></trkpt><trkpt lat="39.57043388" lon="-0.51174914"><ele>128.0</ele><time>2022-11-01T14:52:57.0000000+00:00</time></trkpt><trkpt lat="39.57041309" lon="-0.5117105"><ele>128.0</ele><time>2022-11-01T14:52:58.0000000+00:00</time></trkpt><trkpt lat="39.57039373" lon="-0.51167026"><ele>128.2</ele><time>2022-11-01T14:52:59.0000000+00:00</time></trkpt><trkpt lat="39.57037487" lon="-0.51162911"><ele>128.2</ele><time>2022-11-01T14:53:00.0000000+00:00</time></trkpt><trkpt lat="39.57035509" lon="-0.51158745"><ele>128.4</ele><time>2022-11-01T14:53:01.0000000+00:00</time></trkpt><trkpt lat="39.57033372" lon="-0.51154789"><ele>128.6</ele><time>2022-11-01T14:53:02.0000000+00:00</time></trkpt><trkpt lat="39.57031159" lon="-0.51151243"><ele>128.6</ele><time>2022-11-01T14:53:03.0000000+00:00</time></trkpt><trkpt lat="39.57028921" lon="-0.51147371"><ele>128.8</ele><time>2022-11-01T14:53:04.0000000+00:00</time></trkpt><trkpt lat="39.57027001" lon="-0.51144085"><ele>128.8</ele><time>2022-11-01T14:53:05.0000000+00:00</time></trkpt><trkpt lat="39.57025099" lon="-0.51140464"><ele>128.8</ele><time>2022-11-01T14:53:06.0000000+00:00</time></trkpt><trkpt lat="39.57022861" lon="-0.51137011"><ele>128.8</ele><time>2022-11-01T14:53:07.0000000+00:00</time></trkpt><trkpt lat="39.5702069" lon="-0.51133557"><ele>128.8</ele><time>2022-11-01T14:53:08.0000000+00:00</time></trkpt><trkpt lat="39.57018527" lon="-0.51129945"><ele>128.8</ele><time>2022-11-01T14:53:09.0000000+00:00</time></trkpt><trkpt lat="39.5701639" lon="-0.51126692"><ele>129.0</ele><time>2022-11-01T14:53:10.0000000+00:00</time></trkpt><trkpt lat="39.57014563" lon="-0.51123147"><ele>129.0</ele><time>2022-11-01T14:53:11.0000000+00:00</time></trkpt><trkpt lat="39.57012794" lon="-0.51119551"><ele>129.0</ele><time>2022-11-01T14:53:12.0000000+00:00</time></trkpt><trkpt lat="39.57010732" lon="-0.5111619"><ele>129.0</ele><time>2022-11-01T14:53:13.0000000+00:00</time></trkpt><trkpt lat="39.57008435" lon="-0.51112619"><ele>129.2</ele><time>2022-11-01T14:53:14.0000000+00:00</time></trkpt><trkpt lat="39.57006223" lon="-0.5110925"><ele>129.2</ele><time>2022-11-01T14:53:15.0000000+00:00</time></trkpt><trkpt lat="39.57004211" lon="-0.51105838"><ele>129.2</ele><time>2022-11-01T14:53:16.0000000+00:00</time></trkpt><trkpt lat="39.57002325" lon="-0.51102511"><ele>129.2</ele><time>2022-11-01T14:53:17.0000000+00:00</time></trkpt><trkpt lat="39.57000716" lon="-0.5109925"><ele>129.2</ele><time>2022-11-01T14:53:18.0000000+00:00</time></trkpt><trkpt lat="39.56998696" lon="-0.5109547"><ele>129.4</ele><time>2022-11-01T14:53:19.0000000+00:00</time></trkpt><trkpt lat="39.56996793" lon="-0.5109205"><ele>129.4</ele><time>2022-11-01T14:53:20.0000000+00:00</time></trkpt><trkpt lat="39.56994865" lon="-0.51088655"><ele>129.6</ele><time>2022-11-01T14:53:21.0000000+00:00</time></trkpt><trkpt lat="39.56992728" lon="-0.51084884"><ele>129.6</ele><time>2022-11-01T14:53:22.0000000+00:00</time></trkpt><trkpt lat="39.56990624" lon="-0.51080877"><ele>129.6</ele><time>2022-11-01T14:53:23.0000000+00:00</time></trkpt><trkpt lat="39.56988579" lon="-0.51077181"><ele>129.8</ele><time>2022-11-01T14:53:24.0000000+00:00</time></trkpt><trkpt lat="39.56986534" lon="-0.51073182"><ele>130.0</ele><time>2022-11-01T14:53:25.0000000+00:00</time></trkpt><trkpt lat="39.5698448" lon="-0.51069151"><ele>130.0</ele><time>2022-11-01T14:53:26.0000000+00:00</time></trkpt><trkpt lat="39.56982519" lon="-0.51065186"><ele>130.2</ele><time>2022-11-01T14:53:27.0000000+00:00</time></trkpt><trkpt lat="39.56980205" lon="-0.510618"><ele>130.4</ele><time>2022-11-01T14:53:28.0000000+00:00</time></trkpt><trkpt lat="39.56978076" lon="-0.51058388"><ele>130.4</ele><time>2022-11-01T14:53:29.0000000+00:00</time></trkpt><trkpt lat="39.5697578" lon="-0.51054474"><ele>130.6</ele><time>2022-11-01T14:53:30.0000000+00:00</time></trkpt><trkpt lat="39.56973273" lon="-0.510503"><ele>130.6</ele><time>2022-11-01T14:53:31.0000000+00:00</time></trkpt><trkpt lat="39.56970993" lon="-0.51046235"><ele>130.8</ele><time>2022-11-01T14:53:32.0000000+00:00</time></trkpt><trkpt lat="39.56968957" lon="-0.51042052"><ele>130.8</ele><time>2022-11-01T14:53:33.0000000+00:00</time></trkpt><trkpt lat="39.56966987" lon="-0.51038096"><ele>131.0</ele><time>2022-11-01T14:53:34.0000000+00:00</time></trkpt><trkpt lat="39.56965" lon="-0.51033771"><ele>131.0</ele><time>2022-11-01T14:53:35.0000000+00:00</time></trkpt><trkpt lat="39.56962897" lon="-0.51029848"><ele>131.2</ele><time>2022-11-01T14:53:36.0000000+00:00</time></trkpt><trkpt lat="39.56960868" lon="-0.51025867"><ele>131.2</ele><time>2022-11-01T14:53:37.0000000+00:00</time></trkpt><trkpt lat="39.56958714" lon="-0.51022053"><ele>131.4</ele><time>2022-11-01T14:53:38.0000000+00:00</time></trkpt><trkpt lat="39.56956191" lon="-0.51018331"><ele>131.4</ele><time>2022-11-01T14:53:39.0000000+00:00</time></trkpt><trkpt lat="39.56953819" lon="-0.51014752"><ele>131.4</ele><time>2022-11-01T14:53:40.0000000+00:00</time></trkpt><trkpt lat="39.56951489" lon="-0.51011031"><ele>131.4</ele><time>2022-11-01T14:53:41.0000000+00:00</time></trkpt><trkpt lat="39.56949335" lon="-0.5100694"><ele>131.4</ele><time>2022-11-01T14:53:42.0000000+00:00</time></trkpt><trkpt lat="39.56947373" lon="-0.5100295"><ele>131.4</ele><time>2022-11-01T14:53:43.0000000+00:00</time></trkpt><trkpt lat="39.56945152" lon="-0.5099912"><ele>131.4</ele><time>2022-11-01T14:53:44.0000000+00:00</time></trkpt><trkpt lat="39.56942713" lon="-0.509957"><ele>131.4</ele><time>2022-11-01T14:53:45.0000000+00:00</time></trkpt><trkpt lat="39.56940148" lon="-0.50992322"><ele>131.4</ele><time>2022-11-01T14:53:46.0000000+00:00</time></trkpt><trkpt lat="39.56937684" lon="-0.50989145"><ele>131.4</ele><time>2022-11-01T14:53:47.0000000+00:00</time></trkpt><trkpt lat="39.56935178" lon="-0.50986287"><ele>131.4</ele><time>2022-11-01T14:53:48.0000000+00:00</time></trkpt><trkpt lat="39.56933292" lon="-0.50983454"><ele>131.6</ele><time>2022-11-01T14:53:49.0000000+00:00</time></trkpt><trkpt lat="39.56931557" lon="-0.50980076"><ele>131.6</ele><time>2022-11-01T14:53:50.0000000+00:00</time></trkpt><trkpt lat="39.56929402" lon="-0.50977344"><ele>131.6</ele><time>2022-11-01T14:53:51.0000000+00:00</time></trkpt><trkpt lat="39.56926854" lon="-0.50976321"><ele>131.8</ele><time>2022-11-01T14:53:52.0000000+00:00</time></trkpt><trkpt lat="39.56924273" lon="-0.50977151"><ele>132.0</ele><time>2022-11-01T14:53:53.0000000+00:00</time></trkpt><trkpt lat="39.56922202" lon="-0.50979221"><ele>132.0</ele><time>2022-11-01T14:53:54.0000000+00:00</time></trkpt><trkpt lat="39.56919705" lon="-0.50981937"><ele>132.2</ele><time>2022-11-01T14:53:55.0000000+00:00</time></trkpt><trkpt lat="39.56917282" lon="-0.50985022"><ele>132.2</ele><time>2022-11-01T14:53:56.0000000+00:00</time></trkpt><trkpt lat="39.56914759" lon="-0.5098845"><ele>132.2</ele><time>2022-11-01T14:53:57.0000000+00:00</time></trkpt><trkpt lat="39.56912002" lon="-0.50991652"><ele>132.2</ele><time>2022-11-01T14:53:58.0000000+00:00</time></trkpt><trkpt lat="39.56909822" lon="-0.50995164"><ele>132.4</ele><time>2022-11-01T14:53:59.0000000+00:00</time></trkpt><trkpt lat="39.56907978" lon="-0.50998215"><ele>132.4</ele><time>2022-11-01T14:54:00.0000000+00:00</time></trkpt><trkpt lat="39.56906159" lon="-0.5099995"><ele>132.4</ele><time>2022-11-01T14:54:01.0000000+00:00</time></trkpt><trkpt lat="39.56904651" lon="-0.5100057"><ele>132.4</ele><time>2022-11-01T14:54:02.0000000+00:00</time></trkpt><trkpt lat="39.56902899" lon="-0.50999648"><ele>132.4</ele><time>2022-11-01T14:54:03.0000000+00:00</time></trkpt><trkpt lat="39.56900988" lon="-0.50997477"><ele>132.4</ele><time>2022-11-01T14:54:04.0000000+00:00</time></trkpt><trkpt lat="39.56899152" lon="-0.5099451"><ele>132.2</ele><time>2022-11-01T14:54:05.0000000+00:00</time></trkpt><trkpt lat="39.56896286" lon="-0.50991576"><ele>132.4</ele><time>2022-11-01T14:54:06.0000000+00:00</time></trkpt><trkpt lat="39.56892991" lon="-0.50989355"><ele>132.4</ele><time>2022-11-01T14:54:07.0000000+00:00</time></trkpt><trkpt lat="39.56889655" lon="-0.50987318"><ele>132.4</ele><time>2022-11-01T14:54:08.0000000+00:00</time></trkpt><trkpt lat="39.56886018" lon="-0.50985189"><ele>132.4</ele><time>2022-11-01T14:54:09.0000000+00:00</time></trkpt><trkpt lat="39.56882137" lon="-0.50983454"><ele>132.4</ele><time>2022-11-01T14:54:10.0000000+00:00</time></trkpt><trkpt lat="39.56878809" lon="-0.50981711"><ele>132.4</ele><time>2022-11-01T14:54:11.0000000+00:00</time></trkpt><trkpt lat="39.56876454" lon="-0.50979632"><ele>132.4</ele><time>2022-11-01T14:54:12.0000000+00:00</time></trkpt><trkpt lat="39.56875457" lon="-0.50977126"><ele>132.6</ele><time>2022-11-01T14:54:13.0000000+00:00</time></trkpt><trkpt lat="39.56875448" lon="-0.50973907"><ele>132.6</ele><time>2022-11-01T14:54:14.0000000+00:00</time></trkpt><trkpt lat="39.56875817" lon="-0.50969607"><ele>132.6</ele><time>2022-11-01T14:54:15.0000000+00:00</time></trkpt><trkpt lat="39.56875809" lon="-0.50965064"><ele>132.6</ele><time>2022-11-01T14:54:16.0000000+00:00</time></trkpt><trkpt lat="39.56875272" lon="-0.50961007"><ele>132.6</ele><time>2022-11-01T14:54:17.0000000+00:00</time></trkpt><trkpt lat="39.5687378" lon="-0.50957336"><ele>132.6</ele><time>2022-11-01T14:54:18.0000000+00:00</time></trkpt><trkpt lat="39.56872062" lon="-0.50954294"><ele>132.6</ele><time>2022-11-01T14:54:19.0000000+00:00</time></trkpt><trkpt lat="39.56870075" lon="-0.50951092"><ele>132.8</ele><time>2022-11-01T14:54:20.0000000+00:00</time></trkpt><trkpt lat="39.56867301" lon="-0.50948191"><ele>132.8</ele><time>2022-11-01T14:54:21.0000000+00:00</time></trkpt><trkpt lat="39.56864459" lon="-0.509454"><ele>133.0</ele><time>2022-11-01T14:54:22.0000000+00:00</time></trkpt><trkpt lat="39.56861098" lon="-0.50942869"><ele>133.0</ele><time>2022-11-01T14:54:23.0000000+00:00</time></trkpt><trkpt lat="39.56857771" lon="-0.50941343"><ele>133.0</ele><time>2022-11-01T14:54:24.0000000+00:00</time></trkpt><trkpt lat="39.56854535" lon="-0.5094038"><ele>133.0</ele><time>2022-11-01T14:54:25.0000000+00:00</time></trkpt><trkpt lat="39.5685187" lon="-0.50939374"><ele>133.0</ele><time>2022-11-01T14:54:26.0000000+00:00</time></trkpt><trkpt lat="39.56850118" lon="-0.5093794"><ele>133.2</ele><time>2022-11-01T14:54:27.0000000+00:00</time></trkpt><trkpt lat="39.56849489" lon="-0.50935828"><ele>133.2</ele><time>2022-11-01T14:54:28.0000000+00:00</time></trkpt><trkpt lat="39.56849389" lon="-0.50933624"><ele>133.2</ele><time>2022-11-01T14:54:29.0000000+00:00</time></trkpt><trkpt lat="39.56849682" lon="-0.50931302"><ele>133.2</ele><time>2022-11-01T14:54:30.0000000+00:00</time></trkpt><trkpt lat="39.56850319" lon="-0.50928452"><ele>133.4</ele><time>2022-11-01T14:54:31.0000000+00:00</time></trkpt><trkpt lat="39.56850763" lon="-0.50925552"><ele>133.6</ele><time>2022-11-01T14:54:32.0000000+00:00</time></trkpt><trkpt lat="39.56850847" lon="-0.50922384"><ele>133.6</ele><time>2022-11-01T14:54:33.0000000+00:00</time></trkpt><trkpt lat="39.56850135" lon="-0.50919316"><ele>133.8</ele><time>2022-11-01T14:54:34.0000000+00:00</time></trkpt><trkpt lat="39.56849154" lon="-0.5091634"><ele>133.8</ele><time>2022-11-01T14:54:35.0000000+00:00</time></trkpt><trkpt lat="39.56847897" lon="-0.50912912"><ele>133.8</ele><time>2022-11-01T14:54:36.0000000+00:00</time></trkpt><trkpt lat="39.56846656" lon="-0.50909325"><ele>133.8</ele><time>2022-11-01T14:54:37.0000000+00:00</time></trkpt><trkpt lat="39.56845315" lon="-0.50905586"><ele>133.8</ele><time>2022-11-01T14:54:38.0000000+00:00</time></trkpt><trkpt lat="39.56843706" lon="-0.50901722"><ele>133.8</ele><time>2022-11-01T14:54:39.0000000+00:00</time></trkpt><trkpt lat="39.56841895" lon="-0.50898219"><ele>133.8</ele><time>2022-11-01T14:54:40.0000000+00:00</time></trkpt><trkpt lat="39.56840018" lon="-0.50894799"><ele>133.8</ele><time>2022-11-01T14:54:41.0000000+00:00</time></trkpt><trkpt lat="39.56838065" lon="-0.50891161"><ele>133.8</ele><time>2022-11-01T14:54:42.0000000+00:00</time></trkpt><trkpt lat="39.56836388" lon="-0.50887104"><ele>133.8</ele><time>2022-11-01T14:54:43.0000000+00:00</time></trkpt><trkpt lat="39.56834863" lon="-0.50882352"><ele>134.0</ele><time>2022-11-01T14:54:44.0000000+00:00</time></trkpt><trkpt lat="39.56833002" lon="-0.50877859"><ele>134.0</ele><time>2022-11-01T14:54:45.0000000+00:00</time></trkpt><trkpt lat="39.56831116" lon="-0.50873978"><ele>134.0</ele><time>2022-11-01T14:54:46.0000000+00:00</time></trkpt><trkpt lat="39.56829029" lon="-0.50869871"><ele>134.0</ele><time>2022-11-01T14:54:47.0000000+00:00</time></trkpt><trkpt lat="39.56827101" lon="-0.50865521"><ele>134.2</ele><time>2022-11-01T14:54:48.0000000+00:00</time></trkpt><trkpt lat="39.56825148" lon="-0.50861388"><ele>134.2</ele><time>2022-11-01T14:54:49.0000000+00:00</time></trkpt><trkpt lat="39.5682317" lon="-0.50857022"><ele>134.2</ele><time>2022-11-01T14:54:50.0000000+00:00</time></trkpt><trkpt lat="39.56820798" lon="-0.5085252"><ele>134.4</ele><time>2022-11-01T14:54:51.0000000+00:00</time></trkpt><trkpt lat="39.56818325" lon="-0.50848053"><ele>134.4</ele><time>2022-11-01T14:54:52.0000000+00:00</time></trkpt><trkpt lat="39.56815451" lon="-0.5084361"><ele>134.4</ele><time>2022-11-01T14:54:53.0000000+00:00</time></trkpt><trkpt lat="39.56812768" lon="-0.50839109"><ele>134.4</ele><time>2022-11-01T14:54:54.0000000+00:00</time></trkpt><trkpt lat="39.56810069" lon="-0.50834902"><ele>134.2</ele><time>2022-11-01T14:54:55.0000000+00:00</time></trkpt><trkpt lat="39.56807127" lon="-0.50830585"><ele>134.2</ele><time>2022-11-01T14:54:56.0000000+00:00</time></trkpt><trkpt lat="39.5680447" lon="-0.50826537"><ele>134.2</ele><time>2022-11-01T14:54:57.0000000+00:00</time></trkpt><trkpt lat="39.56801972" lon="-0.50822304"><ele>134.2</ele><time>2022-11-01T14:54:58.0000000+00:00</time></trkpt><trkpt lat="39.56799315" lon="-0.50818314"><ele>134.2</ele><time>2022-11-01T14:54:59.0000000+00:00</time></trkpt><trkpt lat="39.56796533" lon="-0.50814785"><ele>134.0</ele><time>2022-11-01T14:55:00.0000000+00:00</time></trkpt><trkpt lat="39.56793557" lon="-0.50811692"><ele>134.2</ele><time>2022-11-01T14:55:01.0000000+00:00</time></trkpt><trkpt lat="39.56790824" lon="-0.50808641"><ele>134.2</ele><time>2022-11-01T14:55:02.0000000+00:00</time></trkpt><trkpt lat="39.56788109" lon="-0.50805129"><ele>134.2</ele><time>2022-11-01T14:55:03.0000000+00:00</time></trkpt><trkpt lat="39.56785167" lon="-0.50801433"><ele>134.2</ele><time>2022-11-01T14:55:04.0000000+00:00</time></trkpt><trkpt lat="39.56782644" lon="-0.50798122"><ele>134.2</ele><time>2022-11-01T14:55:05.0000000+00:00</time></trkpt><trkpt lat="39.56780121" lon="-0.50794853"><ele>134.4</ele><time>2022-11-01T14:55:06.0000000+00:00</time></trkpt><trkpt lat="39.5677733" lon="-0.50791341"><ele>134.4</ele><time>2022-11-01T14:55:07.0000000+00:00</time></trkpt><trkpt lat="39.56774144" lon="-0.50787703"><ele>134.4</ele><time>2022-11-01T14:55:08.0000000+00:00</time></trkpt><trkpt lat="39.56771169" lon="-0.50783956"><ele>134.2</ele><time>2022-11-01T14:55:09.0000000+00:00</time></trkpt><trkpt lat="39.56768227" lon="-0.50779774"><ele>134.2</ele><time>2022-11-01T14:55:10.0000000+00:00</time></trkpt><trkpt lat="39.56765235" lon="-0.50775751"><ele>134.2</ele><time>2022-11-01T14:55:11.0000000+00:00</time></trkpt><trkpt lat="39.56762175" lon="-0.50771685"><ele>134.2</ele><time>2022-11-01T14:55:12.0000000+00:00</time></trkpt><trkpt lat="39.56758747" lon="-0.50767453"><ele>134.2</ele><time>2022-11-01T14:55:13.0000000+00:00</time></trkpt><trkpt lat="39.56755335" lon="-0.50763278"><ele>134.2</ele><time>2022-11-01T14:55:14.0000000+00:00</time></trkpt><trkpt lat="39.56751949" lon="-0.50759171"><ele>134.2</ele><time>2022-11-01T14:55:15.0000000+00:00</time></trkpt><trkpt lat="39.56748571" lon="-0.50754829"><ele>134.2</ele><time>2022-11-01T14:55:16.0000000+00:00</time></trkpt><trkpt lat="39.56745319" lon="-0.50750479"><ele>134.4</ele><time>2022-11-01T14:55:17.0000000+00:00</time></trkpt><trkpt lat="39.56742134" lon="-0.50746054"><ele>134.4</ele><time>2022-11-01T14:55:18.0000000+00:00</time></trkpt><trkpt lat="39.56738848" lon="-0.50741326"><ele>134.2</ele><time>2022-11-01T14:55:19.0000000+00:00</time></trkpt><trkpt lat="39.56735236" lon="-0.5073654"><ele>134.4</ele><time>2022-11-01T14:55:20.0000000+00:00</time></trkpt><trkpt lat="39.56731715" lon="-0.50732265"><ele>134.2</ele><time>2022-11-01T14:55:21.0000000+00:00</time></trkpt><trkpt lat="39.56728404" lon="-0.50727664"><ele>134.2</ele><time>2022-11-01T14:55:22.0000000+00:00</time></trkpt><trkpt lat="39.56725177" lon="-0.50722249"><ele>134.2</ele><time>2022-11-01T14:55:23.0000000+00:00</time></trkpt><trkpt lat="39.56721565" lon="-0.50717547"><ele>134.2</ele><time>2022-11-01T14:55:24.0000000+00:00</time></trkpt><trkpt lat="39.56717885" lon="-0.50713289"><ele>134.2</ele><time>2022-11-01T14:55:25.0000000+00:00</time></trkpt><trkpt lat="39.56714205" lon="-0.50709005"><ele>134.2</ele><time>2022-11-01T14:55:26.0000000+00:00</time></trkpt><trkpt lat="39.56710459" lon="-0.50704303"><ele>134.2</ele><time>2022-11-01T14:55:27.0000000+00:00</time></trkpt><trkpt lat="39.56706729" lon="-0.50699425"><ele>134.2</ele><time>2022-11-01T14:55:28.0000000+00:00</time></trkpt><trkpt lat="39.56703418" lon="-0.50694874"><ele>134.2</ele><time>2022-11-01T14:55:29.0000000+00:00</time></trkpt><trkpt lat="39.56700275" lon="-0.50689828"><ele>134.2</ele><time>2022-11-01T14:55:30.0000000+00:00</time></trkpt><trkpt lat="39.56696964" lon="-0.50684656"><ele>134.2</ele><time>2022-11-01T14:55:31.0000000+00:00</time></trkpt><trkpt lat="39.56693561" lon="-0.5067966"><ele>134.2</ele><time>2022-11-01T14:55:32.0000000+00:00</time></trkpt><trkpt lat="39.56690309" lon="-0.50675017"><ele>134.2</ele><time>2022-11-01T14:55:33.0000000+00:00</time></trkpt><trkpt lat="39.56687434" lon="-0.50670122"><ele>134.0</ele><time>2022-11-01T14:55:34.0000000+00:00</time></trkpt><trkpt lat="39.5668471" lon="-0.50665411"><ele>133.8</ele><time>2022-11-01T14:55:35.0000000+00:00</time></trkpt><trkpt lat="39.5668212" lon="-0.50660944"><ele>133.6</ele><time>2022-11-01T14:55:36.0000000+00:00</time></trkpt><trkpt lat="39.56679354" lon="-0.50655982"><ele>133.6</ele><time>2022-11-01T14:55:37.0000000+00:00</time></trkpt><trkpt lat="39.5667668" lon="-0.5065112"><ele>133.6</ele><time>2022-11-01T14:55:38.0000000+00:00</time></trkpt><trkpt lat="39.5667414" lon="-0.50646133"><ele>133.6</ele><time>2022-11-01T14:55:39.0000000+00:00</time></trkpt><trkpt lat="39.56671374" lon="-0.50641204"><ele>133.6</ele><time>2022-11-01T14:55:40.0000000+00:00</time></trkpt><trkpt lat="39.56668952" lon="-0.50635999"><ele>133.4</ele><time>2022-11-01T14:55:41.0000000+00:00</time></trkpt><trkpt lat="39.56666638" lon="-0.50630576"><ele>133.4</ele><time>2022-11-01T14:55:42.0000000+00:00</time></trkpt><trkpt lat="39.56663948" lon="-0.50625488"><ele>133.4</ele><time>2022-11-01T14:55:43.0000000+00:00</time></trkpt><trkpt lat="39.56661366" lon="-0.50620769"><ele>133.4</ele><time>2022-11-01T14:55:44.0000000+00:00</time></trkpt><trkpt lat="39.56658927" lon="-0.50615623"><ele>133.4</ele><time>2022-11-01T14:55:45.0000000+00:00</time></trkpt><trkpt lat="39.56656949" lon="-0.5061061"><ele>133.2</ele><time>2022-11-01T14:55:46.0000000+00:00</time></trkpt><trkpt lat="39.56654929" lon="-0.50605472"><ele>133.2</ele><time>2022-11-01T14:55:47.0000000+00:00</time></trkpt><trkpt lat="39.56652951" lon="-0.50600242"><ele>133.4</ele><time>2022-11-01T14:55:48.0000000+00:00</time></trkpt><trkpt lat="39.56651224" lon="-0.50595121"><ele>133.2</ele><time>2022-11-01T14:55:49.0000000+00:00</time></trkpt><trkpt lat="39.56649506" lon="-0.50590209"><ele>133.2</ele><time>2022-11-01T14:55:50.0000000+00:00</time></trkpt><trkpt lat="39.56647997" lon="-0.50585607"><ele>133.2</ele><time>2022-11-01T14:55:51.0000000+00:00</time></trkpt><trkpt lat="39.56646161" lon="-0.50581064"><ele>133.2</ele><time>2022-11-01T14:55:52.0000000+00:00</time></trkpt><trkpt lat="39.56644443" lon="-0.50576395"><ele>133.2</ele><time>2022-11-01T14:55:53.0000000+00:00</time></trkpt><trkpt lat="39.56642892" lon="-0.50571811"><ele>133.2</ele><time>2022-11-01T14:55:54.0000000+00:00</time></trkpt><trkpt lat="39.56641618" lon="-0.5056705"><ele>133.4</ele><time>2022-11-01T14:55:55.0000000+00:00</time></trkpt><trkpt lat="39.5664078" lon="-0.50562213"><ele>133.4</ele><time>2022-11-01T14:55:56.0000000+00:00</time></trkpt><trkpt lat="39.56640923" lon="-0.50557033"><ele>133.4</ele><time>2022-11-01T14:55:57.0000000+00:00</time></trkpt><trkpt lat="39.56641384" lon="-0.5055156"><ele>133.4</ele><time>2022-11-01T14:55:58.0000000+00:00</time></trkpt><trkpt lat="39.56641694" lon="-0.50546296"><ele>133.4</ele><time>2022-11-01T14:55:59.0000000+00:00</time></trkpt><trkpt lat="39.56641367" lon="-0.50541116"><ele>133.4</ele><time>2022-11-01T14:56:00.0000000+00:00</time></trkpt><trkpt lat="39.56640772" lon="-0.50536028"><ele>133.2</ele><time>2022-11-01T14:56:01.0000000+00:00</time></trkpt><trkpt lat="39.56640168" lon="-0.50530739"><ele>133.4</ele><time>2022-11-01T14:56:02.0000000+00:00</time></trkpt><trkpt lat="39.56639397" lon="-0.50525626"><ele>133.4</ele><time>2022-11-01T14:56:03.0000000+00:00</time></trkpt><trkpt lat="39.56638282" lon="-0.50520144"><ele>133.4</ele><time>2022-11-01T14:56:04.0000000+00:00</time></trkpt><trkpt lat="39.56636807" lon="-0.5051457"><ele>133.4</ele><time>2022-11-01T14:56:05.0000000+00:00</time></trkpt><trkpt lat="39.56634871" lon="-0.50509374"><ele>133.4</ele><time>2022-11-01T14:56:06.0000000+00:00</time></trkpt><trkpt lat="39.56632373" lon="-0.50504143"><ele>133.4</ele><time>2022-11-01T14:56:07.0000000+00:00</time></trkpt><trkpt lat="39.5662964" lon="-0.50498737"><ele>133.2</ele><time>2022-11-01T14:56:08.0000000+00:00</time></trkpt><trkpt lat="39.5662674" lon="-0.50493968"><ele>133.2</ele><time>2022-11-01T14:56:09.0000000+00:00</time></trkpt><trkpt lat="39.56623606" lon="-0.50489802"><ele>133.2</ele><time>2022-11-01T14:56:10.0000000+00:00</time></trkpt><trkpt lat="39.5662037" lon="-0.50485754"><ele>133.0</ele><time>2022-11-01T14:56:11.0000000+00:00</time></trkpt><trkpt lat="39.56616908" lon="-0.50481462"><ele>132.8</ele><time>2022-11-01T14:56:12.0000000+00:00</time></trkpt><trkpt lat="39.56613547" lon="-0.50476659"><ele>132.6</ele><time>2022-11-01T14:56:13.0000000+00:00</time></trkpt><trkpt lat="39.56610236" lon="-0.50471756"><ele>132.6</ele><time>2022-11-01T14:56:14.0000000+00:00</time></trkpt><trkpt lat="39.56607294" lon="-0.50466592"><ele>132.6</ele><time>2022-11-01T14:56:15.0000000+00:00</time></trkpt><trkpt lat="39.56604545" lon="-0.50460792"><ele>132.6</ele><time>2022-11-01T14:56:16.0000000+00:00</time></trkpt><trkpt lat="39.56602139" lon="-0.50454908"><ele>132.4</ele><time>2022-11-01T14:56:17.0000000+00:00</time></trkpt><trkpt lat="39.56599952" lon="-0.50449552"><ele>132.4</ele><time>2022-11-01T14:56:18.0000000+00:00</time></trkpt><trkpt lat="39.56598049" lon="-0.50444473"><ele>132.4</ele><time>2022-11-01T14:56:19.0000000+00:00</time></trkpt><trkpt lat="39.56596146" lon="-0.50439728"><ele>132.4</ele><time>2022-11-01T14:56:20.0000000+00:00</time></trkpt><trkpt lat="39.56594269" lon="-0.50435009"><ele>132.4</ele><time>2022-11-01T14:56:21.0000000+00:00</time></trkpt><trkpt lat="39.56592291" lon="-0.50429897"><ele>132.4</ele><time>2022-11-01T14:56:22.0000000+00:00</time></trkpt><trkpt lat="39.56590153" lon="-0.50424876"><ele>132.4</ele><time>2022-11-01T14:56:23.0000000+00:00</time></trkpt><trkpt lat="39.56587672" lon="-0.50419905"><ele>132.6</ele><time>2022-11-01T14:56:24.0000000+00:00</time></trkpt><trkpt lat="39.56585225" lon="-0.50415119"><ele>132.6</ele><time>2022-11-01T14:56:25.0000000+00:00</time></trkpt><trkpt lat="39.56582576" lon="-0.50410534"><ele>132.6</ele><time>2022-11-01T14:56:26.0000000+00:00</time></trkpt><trkpt lat="39.56579701" lon="-0.50405882"><ele>132.6</ele><time>2022-11-01T14:56:27.0000000+00:00</time></trkpt><trkpt lat="39.56576851" lon="-0.50401365"><ele>132.6</ele><time>2022-11-01T14:56:28.0000000+00:00</time></trkpt><trkpt lat="39.56573691" lon="-0.5039662"><ele>132.4</ele><time>2022-11-01T14:56:29.0000000+00:00</time></trkpt><trkpt lat="39.56570397" lon="-0.50391507"><ele>132.4</ele><time>2022-11-01T14:56:30.0000000+00:00</time></trkpt><trkpt lat="39.56567053" lon="-0.50386461"><ele>132.4</ele><time>2022-11-01T14:56:31.0000000+00:00</time></trkpt><trkpt lat="39.56563532" lon="-0.50381466"><ele>132.4</ele><time>2022-11-01T14:56:32.0000000+00:00</time></trkpt><trkpt lat="39.56560012" lon="-0.50376244"><ele>132.2</ele><time>2022-11-01T14:56:33.0000000+00:00</time></trkpt><trkpt lat="39.56556592" lon="-0.50371374"><ele>132.4</ele><time>2022-11-01T14:56:34.0000000+00:00</time></trkpt><trkpt lat="39.5655313" lon="-0.50366622"><ele>132.4</ele><time>2022-11-01T14:56:35.0000000+00:00</time></trkpt><trkpt lat="39.56549526" lon="-0.50361861"><ele>132.6</ele><time>2022-11-01T14:56:36.0000000+00:00</time></trkpt><trkpt lat="39.56545771" lon="-0.50357075"><ele>132.6</ele><time>2022-11-01T14:56:37.0000000+00:00</time></trkpt><trkpt lat="39.56541999" lon="-0.50353009"><ele>132.6</ele><time>2022-11-01T14:56:38.0000000+00:00</time></trkpt><trkpt lat="39.5653806" lon="-0.50348835"><ele>132.8</ele><time>2022-11-01T14:56:39.0000000+00:00</time></trkpt><trkpt lat="39.56534036" lon="-0.50344829"><ele>132.8</ele><time>2022-11-01T14:56:40.0000000+00:00</time></trkpt><trkpt lat="39.56529778" lon="-0.50341526"><ele>132.8</ele><time>2022-11-01T14:56:41.0000000+00:00</time></trkpt><trkpt lat="39.56525671" lon="-0.503385"><ele>132.8</ele><time>2022-11-01T14:56:42.0000000+00:00</time></trkpt><trkpt lat="39.56522226" lon="-0.50335759"><ele>132.8</ele><time>2022-11-01T14:56:43.0000000+00:00</time></trkpt><trkpt lat="39.56518916" lon="-0.50332658"><ele>132.6</ele><time>2022-11-01T14:56:44.0000000+00:00</time></trkpt><trkpt lat="39.5651558" lon="-0.50329548"><ele>132.6</ele><time>2022-11-01T14:56:45.0000000+00:00</time></trkpt><trkpt lat="39.56512193" lon="-0.5032633"><ele>132.4</ele><time>2022-11-01T14:56:46.0000000+00:00</time></trkpt><trkpt lat="39.56508706" lon="-0.50322927"><ele>132.4</ele><time>2022-11-01T14:56:47.0000000+00:00</time></trkpt><trkpt lat="39.5650522" lon="-0.50319389"><ele>132.4</ele><time>2022-11-01T14:56:48.0000000+00:00</time></trkpt><trkpt lat="39.56501875" lon="-0.50315408"><ele>132.2</ele><time>2022-11-01T14:56:49.0000000+00:00</time></trkpt><trkpt lat="39.56498656" lon="-0.50311972"><ele>132.2</ele><time>2022-11-01T14:56:50.0000000+00:00</time></trkpt><trkpt lat="39.5649517" lon="-0.50307789"><ele>132.0</ele><time>2022-11-01T14:56:51.0000000+00:00</time></trkpt><trkpt lat="39.56491674" lon="-0.50303447"><ele>132.0</ele><time>2022-11-01T14:56:52.0000000+00:00</time></trkpt><trkpt lat="39.56488196" lon="-0.50299223"><ele>131.8</ele><time>2022-11-01T14:56:53.0000000+00:00</time></trkpt><trkpt lat="39.56484558" lon="-0.50294696"><ele>131.8</ele><time>2022-11-01T14:56:54.0000000+00:00</time></trkpt><trkpt lat="39.56480753" lon="-0.50290003"><ele>131.8</ele><time>2022-11-01T14:56:55.0000000+00:00</time></trkpt><trkpt lat="39.56476486" lon="-0.50286784"><ele>131.8</ele><time>2022-11-01T14:56:56.0000000+00:00</time></trkpt><trkpt lat="39.56472413" lon="-0.50284194"><ele>132.0</ele><time>2022-11-01T14:56:57.0000000+00:00</time></trkpt><trkpt lat="39.56468549" lon="-0.50281252"><ele>132.0</ele><time>2022-11-01T14:56:58.0000000+00:00</time></trkpt><trkpt lat="39.56464559" lon="-0.50278117"><ele>132.0</ele><time>2022-11-01T14:56:59.0000000+00:00</time></trkpt><trkpt lat="39.56460334" lon="-0.50275535"><ele>132.0</ele><time>2022-11-01T14:57:00.0000000+00:00</time></trkpt><trkpt lat="39.56456143" lon="-0.50273825"><ele>131.8</ele><time>2022-11-01T14:57:01.0000000+00:00</time></trkpt><trkpt lat="39.56452355" lon="-0.50271965"><ele>131.8</ele><time>2022-11-01T14:57:02.0000000+00:00</time></trkpt><trkpt lat="39.56449212" lon="-0.50269651"><ele>131.8</ele><time>2022-11-01T14:57:03.0000000+00:00</time></trkpt><trkpt lat="39.56446027" lon="-0.50266952"><ele>131.6</ele><time>2022-11-01T14:57:04.0000000+00:00</time></trkpt><trkpt lat="39.56443227" lon="-0.50263675"><ele>131.6</ele><time>2022-11-01T14:57:05.0000000+00:00</time></trkpt><trkpt lat="39.56440587" lon="-0.50259241"><ele>131.6</ele><time>2022-11-01T14:57:06.0000000+00:00</time></trkpt><trkpt lat="39.5643798" lon="-0.50254396"><ele>131.6</ele><time>2022-11-01T14:57:07.0000000+00:00</time></trkpt><trkpt lat="39.56435365" lon="-0.50249317"><ele>131.6</ele><time>2022-11-01T14:57:08.0000000+00:00</time></trkpt><trkpt lat="39.56431635" lon="-0.50244723"><ele>131.6</ele><time>2022-11-01T14:57:09.0000000+00:00</time></trkpt><trkpt lat="39.56427352" lon="-0.50240784"><ele>131.6</ele><time>2022-11-01T14:57:10.0000000+00:00</time></trkpt><trkpt lat="39.56423295" lon="-0.50237423"><ele>131.8</ele><time>2022-11-01T14:57:11.0000000+00:00</time></trkpt><trkpt lat="39.56419062" lon="-0.50234866"><ele>131.8</ele><time>2022-11-01T14:57:12.0000000+00:00</time></trkpt><trkpt lat="39.56414469" lon="-0.50232318"><ele>132.0</ele><time>2022-11-01T14:57:13.0000000+00:00</time></trkpt><trkpt lat="39.5640985" lon="-0.50229728"><ele>132.2</ele><time>2022-11-01T14:57:14.0000000+00:00</time></trkpt><trkpt lat="39.56405668" lon="-0.50227272"><ele>132.2</ele><time>2022-11-01T14:57:15.0000000+00:00</time></trkpt><trkpt lat="39.56401695" lon="-0.50224406"><ele>132.0</ele><time>2022-11-01T14:57:16.0000000+00:00</time></trkpt><trkpt lat="39.56397764" lon="-0.50220701"><ele>131.8</ele><time>2022-11-01T14:57:17.0000000+00:00</time></trkpt><trkpt lat="39.56393656" lon="-0.50217549"><ele>131.8</ele><time>2022-11-01T14:57:18.0000000+00:00</time></trkpt><trkpt lat="39.56389809" lon="-0.50214741"><ele>131.8</ele><time>2022-11-01T14:57:19.0000000+00:00</time></trkpt><trkpt lat="39.56385979" lon="-0.50211556"><ele>131.8</ele><time>2022-11-01T14:57:20.0000000+00:00</time></trkpt><trkpt lat="39.56381804" lon="-0.50207776"><ele>131.8</ele><time>2022-11-01T14:57:21.0000000+00:00</time></trkpt><trkpt lat="39.5637768" lon="-0.5020413"><ele>131.8</ele><time>2022-11-01T14:57:22.0000000+00:00</time></trkpt><trkpt lat="39.5637364" lon="-0.50200727"><ele>131.8</ele><time>2022-11-01T14:57:23.0000000+00:00</time></trkpt><trkpt lat="39.56369843" lon="-0.50198011"><ele>131.8</ele><time>2022-11-01T14:57:24.0000000+00:00</time></trkpt><trkpt lat="39.56365979" lon="-0.50194155"><ele>131.8</ele><time>2022-11-01T14:57:25.0000000+00:00</time></trkpt><trkpt lat="39.56361805" lon="-0.50190115"><ele>131.8</ele><time>2022-11-01T14:57:26.0000000+00:00</time></trkpt><trkpt lat="39.56357782" lon="-0.5018636"><ele>131.6</ele><time>2022-11-01T14:57:27.0000000+00:00</time></trkpt><trkpt lat="39.56353876" lon="-0.50182899"><ele>131.6</ele><time>2022-11-01T14:57:28.0000000+00:00</time></trkpt><trkpt lat="39.56350246" lon="-0.50179646"><ele>131.6</ele><time>2022-11-01T14:57:29.0000000+00:00</time></trkpt><trkpt lat="39.56346743" lon="-0.50176696"><ele>131.6</ele><time>2022-11-01T14:57:30.0000000+00:00</time></trkpt><trkpt lat="39.56342937" lon="-0.50173544"><ele>131.6</ele><time>2022-11-01T14:57:31.0000000+00:00</time></trkpt><trkpt lat="39.56339316" lon="-0.50170569"><ele>131.6</ele><time>2022-11-01T14:57:32.0000000+00:00</time></trkpt><trkpt lat="39.5633619" lon="-0.50167752"><ele>131.6</ele><time>2022-11-01T14:57:33.0000000+00:00</time></trkpt><trkpt lat="39.5633308" lon="-0.50164911"><ele>131.6</ele><time>2022-11-01T14:57:34.0000000+00:00</time></trkpt><trkpt lat="39.56329828" lon="-0.50161818"><ele>131.6</ele><time>2022-11-01T14:57:35.0000000+00:00</time></trkpt><trkpt lat="39.56326526" lon="-0.50158599"><ele>131.6</ele><time>2022-11-01T14:57:36.0000000+00:00</time></trkpt><trkpt lat="39.56323743" lon="-0.50156269"><ele>131.6</ele><time>2022-11-01T14:57:37.0000000+00:00</time></trkpt><trkpt lat="39.56321312" lon="-0.50154149"><ele>131.6</ele><time>2022-11-01T14:57:38.0000000+00:00</time></trkpt><trkpt lat="39.56318898" lon="-0.50152388"><ele>131.6</ele><time>2022-11-01T14:57:39.0000000+00:00</time></trkpt><trkpt lat="39.56316442" lon="-0.50150645"><ele>131.8</ele><time>2022-11-01T14:57:40.0000000+00:00</time></trkpt><trkpt lat="39.56314045" lon="-0.50148424"><ele>131.8</ele><time>2022-11-01T14:57:41.0000000+00:00</time></trkpt><trkpt lat="39.56311665" lon="-0.50146404"><ele>131.6</ele><time>2022-11-01T14:57:42.0000000+00:00</time></trkpt><trkpt lat="39.56309209" lon="-0.50144526"><ele>131.6</ele><time>2022-11-01T14:57:43.0000000+00:00</time></trkpt><trkpt lat="39.56306711" lon="-0.50142565"><ele>131.4</ele><time>2022-11-01T14:57:44.0000000+00:00</time></trkpt><trkpt lat="39.56304397" lon="-0.50140595"><ele>131.4</ele><time>2022-11-01T14:57:45.0000000+00:00</time></trkpt><trkpt lat="39.56301942" lon="-0.50138382"><ele>131.2</ele><time>2022-11-01T14:57:46.0000000+00:00</time></trkpt><trkpt lat="39.56299662" lon="-0.5013601"><ele>131.0</ele><time>2022-11-01T14:57:47.0000000+00:00</time></trkpt><trkpt lat="39.56297617" lon="-0.50133755"><ele>131.0</ele><time>2022-11-01T14:57:48.0000000+00:00</time></trkpt><trkpt lat="39.56295823" lon="-0.50132163"><ele>131.0</ele><time>2022-11-01T14:57:49.0000000+00:00</time></trkpt><trkpt lat="39.56294029" lon="-0.50131434"><ele>131.0</ele><time>2022-11-01T14:57:50.0000000+00:00</time></trkpt><trkpt lat="39.56292059" lon="-0.50131392"><ele>131.0</ele><time>2022-11-01T14:57:51.0000000+00:00</time></trkpt><trkpt lat="39.56289721" lon="-0.501314"><ele>131.0</ele><time>2022-11-01T14:57:52.0000000+00:00</time></trkpt><trkpt lat="39.56287181" lon="-0.50131518"><ele>131.0</ele><time>2022-11-01T14:57:53.0000000+00:00</time></trkpt><trkpt lat="39.56284398" lon="-0.50131987"><ele>131.2</ele><time>2022-11-01T14:57:54.0000000+00:00</time></trkpt><trkpt lat="39.56282328" lon="-0.50132456"><ele>131.2</ele><time>2022-11-01T14:57:55.0000000+00:00</time></trkpt><trkpt lat="39.56280677" lon="-0.50133102"><ele>131.2</ele><time>2022-11-01T14:57:56.0000000+00:00</time></trkpt><trkpt lat="39.56279067" lon="-0.50133294"><ele>131.2</ele><time>2022-11-01T14:57:57.0000000+00:00</time></trkpt><trkpt lat="39.56276972" lon="-0.50132993"><ele>131.2</ele><time>2022-11-01T14:57:58.0000000+00:00</time></trkpt><trkpt lat="39.5627486" lon="-0.5013254"><ele>131.2</ele><time>2022-11-01T14:57:59.0000000+00:00</time></trkpt><trkpt lat="39.5627294" lon="-0.50132171"><ele>131.2</ele><time>2022-11-01T14:58:00.0000000+00:00</time></trkpt><trkpt lat="39.56271046" lon="-0.50131878"><ele>131.2</ele><time>2022-11-01T14:58:01.0000000+00:00</time></trkpt><trkpt lat="39.56268883" lon="-0.50130813"><ele>131.4</ele><time>2022-11-01T14:58:02.0000000+00:00</time></trkpt><trkpt lat="39.56266712" lon="-0.50128659"><ele>131.6</ele><time>2022-11-01T14:58:03.0000000+00:00</time></trkpt><trkpt lat="39.56264374" lon="-0.50126245"><ele>131.6</ele><time>2022-11-01T14:58:04.0000000+00:00</time></trkpt><trkpt lat="39.5626232" lon="-0.50123504"><ele>131.8</ele><time>2022-11-01T14:58:05.0000000+00:00</time></trkpt><trkpt lat="39.56260376" lon="-0.50120822"><ele>131.8</ele><time>2022-11-01T14:58:06.0000000+00:00</time></trkpt><trkpt lat="39.56257367" lon="-0.50118182"><ele>131.8</ele><time>2022-11-01T14:58:07.0000000+00:00</time></trkpt><trkpt lat="39.56253955" lon="-0.50116556"><ele>131.8</ele><time>2022-11-01T14:58:08.0000000+00:00</time></trkpt><trkpt lat="39.56251583" lon="-0.50115449"><ele>131.8</ele><time>2022-11-01T14:58:09.0000000+00:00</time></trkpt><trkpt lat="39.56250351" lon="-0.50114427"><ele>131.8</ele><time>2022-11-01T14:58:10.0000000+00:00</time></trkpt><trkpt lat="39.56250074" lon="-0.50111837"><ele>131.8</ele><time>2022-11-01T14:58:11.0000000+00:00</time></trkpt><trkpt lat="39.5625015" lon="-0.50108811"><ele>131.8</ele><time>2022-11-01T14:58:12.0000000+00:00</time></trkpt><trkpt lat="39.56250284" lon="-0.50105274"><ele>131.8</ele><time>2022-11-01T14:58:13.0000000+00:00</time></trkpt><trkpt lat="39.56250837" lon="-0.50102307"><ele>131.8</ele><time>2022-11-01T14:58:14.0000000+00:00</time></trkpt><trkpt lat="39.56251776" lon="-0.50099826"><ele>131.8</ele><time>2022-11-01T14:58:15.0000000+00:00</time></trkpt><trkpt lat="39.56253352" lon="-0.50097437"><ele>132.0</ele><time>2022-11-01T14:58:16.0000000+00:00</time></trkpt><trkpt lat="39.56255204" lon="-0.5009509"><ele>132.0</ele><time>2022-11-01T14:58:17.0000000+00:00</time></trkpt><trkpt lat="39.56257291" lon="-0.50092944"><ele>132.0</ele><time>2022-11-01T14:58:18.0000000+00:00</time></trkpt><trkpt lat="39.56259311" lon="-0.50091117"><ele>132.0</ele><time>2022-11-01T14:58:19.0000000+00:00</time></trkpt><trkpt lat="39.56261641" lon="-0.5008908"><ele>132.0</ele><time>2022-11-01T14:58:20.0000000+00:00</time></trkpt><trkpt lat="39.56264064" lon="-0.50086909"><ele>132.0</ele><time>2022-11-01T14:58:21.0000000+00:00</time></trkpt><trkpt lat="39.56266344" lon="-0.50084998"><ele>132.0</ele><time>2022-11-01T14:58:22.0000000+00:00</time></trkpt><trkpt lat="39.56268732" lon="-0.5008359"><ele>132.0</ele><time>2022-11-01T14:58:23.0000000+00:00</time></trkpt><trkpt lat="39.56271951" lon="-0.5008312"><ele>132.0</ele><time>2022-11-01T14:58:24.0000000+00:00</time></trkpt><trkpt lat="39.56275354" lon="-0.50083338"><ele>131.6</ele><time>2022-11-01T14:58:25.0000000+00:00</time></trkpt><trkpt lat="39.56278799" lon="-0.50083875"><ele>131.6</ele><time>2022-11-01T14:58:26.0000000+00:00</time></trkpt><trkpt lat="39.56282688" lon="-0.50084118"><ele>131.4</ele><time>2022-11-01T14:58:27.0000000+00:00</time></trkpt><trkpt lat="39.56286075" lon="-0.50082919"><ele>131.2</ele><time>2022-11-01T14:58:28.0000000+00:00</time></trkpt><trkpt lat="39.56289763" lon="-0.50080815"><ele>131.0</ele><time>2022-11-01T14:58:29.0000000+00:00</time></trkpt><trkpt lat="39.56293543" lon="-0.50078276"><ele>130.8</ele><time>2022-11-01T14:58:30.0000000+00:00</time></trkpt><trkpt lat="39.56297348" lon="-0.50075275"><ele>130.6</ele><time>2022-11-01T14:58:31.0000000+00:00</time></trkpt><trkpt lat="39.56301288" lon="-0.50071964"><ele>130.6</ele><time>2022-11-01T14:58:32.0000000+00:00</time></trkpt><trkpt lat="39.56305345" lon="-0.50067899"><ele>130.4</ele><time>2022-11-01T14:58:33.0000000+00:00</time></trkpt><trkpt lat="39.56309393" lon="-0.50063649"><ele>130.4</ele><time>2022-11-01T14:58:34.0000000+00:00</time></trkpt><trkpt lat="39.56313157" lon="-0.50058788"><ele>130.0</ele><time>2022-11-01T14:58:35.0000000+00:00</time></trkpt><trkpt lat="39.56317515" lon="-0.50053851"><ele>129.8</ele><time>2022-11-01T14:58:36.0000000+00:00</time></trkpt><trkpt lat="39.56321916" lon="-0.50049065"><ele>129.4</ele><time>2022-11-01T14:58:37.0000000+00:00</time></trkpt><trkpt lat="39.56326635" lon="-0.50044212"><ele>129.2</ele><time>2022-11-01T14:58:38.0000000+00:00</time></trkpt><trkpt lat="39.5633106" lon="-0.50038621"><ele>129.2</ele><time>2022-11-01T14:58:39.0000000+00:00</time></trkpt><trkpt lat="39.56335385" lon="-0.50032997"><ele>128.8</ele><time>2022-11-01T14:58:40.0000000+00:00</time></trkpt><trkpt lat="39.56338646" lon="-0.50027146"><ele>128.6</ele><time>2022-11-01T14:58:41.0000000+00:00</time></trkpt><trkpt lat="39.56341127" lon="-0.50021011"><ele>128.4</ele><time>2022-11-01T14:58:42.0000000+00:00</time></trkpt><trkpt lat="39.56342116" lon="-0.50015001"><ele>128.2</ele><time>2022-11-01T14:58:43.0000000+00:00</time></trkpt><trkpt lat="39.56341504" lon="-0.50009837"><ele>127.8</ele><time>2022-11-01T14:58:44.0000000+00:00</time></trkpt><trkpt lat="39.56338554" lon="-0.50005538"><ele>127.6</ele><time>2022-11-01T14:58:45.0000000+00:00</time></trkpt><trkpt lat="39.56334841" lon="-0.50001003"><ele>127.4</ele><time>2022-11-01T14:58:46.0000000+00:00</time></trkpt><trkpt lat="39.56331857" lon="-0.49996913"><ele>127.2</ele><time>2022-11-01T14:58:47.0000000+00:00</time></trkpt><trkpt lat="39.56329074" lon="-0.49993266"><ele>127.0</ele><time>2022-11-01T14:58:48.0000000+00:00</time></trkpt><trkpt lat="39.56326107" lon="-0.49989101"><ele>127.0</ele><time>2022-11-01T14:58:49.0000000+00:00</time></trkpt><trkpt lat="39.56322905" lon="-0.49985438"><ele>126.8</ele><time>2022-11-01T14:58:50.0000000+00:00</time></trkpt><trkpt lat="39.56319443" lon="-0.49981339"><ele>126.8</ele><time>2022-11-01T14:58:51.0000000+00:00</time></trkpt><trkpt lat="39.56315856" lon="-0.4997688"><ele>126.8</ele><time>2022-11-01T14:58:52.0000000+00:00</time></trkpt><trkpt lat="39.56312436" lon="-0.49972345"><ele>126.8</ele><time>2022-11-01T14:58:53.0000000+00:00</time></trkpt><trkpt lat="39.56308764" lon="-0.49967375"><ele>126.8</ele><time>2022-11-01T14:58:54.0000000+00:00</time></trkpt><trkpt lat="39.56304959" lon="-0.49962882"><ele>126.8</ele><time>2022-11-01T14:58:55.0000000+00:00</time></trkpt><trkpt lat="39.56301749" lon="-0.49958968"><ele>126.8</ele><time>2022-11-01T14:58:56.0000000+00:00</time></trkpt><trkpt lat="39.56298295" lon="-0.49954928"><ele>126.6</ele><time>2022-11-01T14:58:57.0000000+00:00</time></trkpt><trkpt lat="39.56294783" lon="-0.49950561"><ele>126.6</ele><time>2022-11-01T14:58:58.0000000+00:00</time></trkpt><trkpt lat="39.56291389" lon="-0.49946328"><ele>126.6</ele><time>2022-11-01T14:58:59.0000000+00:00</time></trkpt><trkpt lat="39.56288405" lon="-0.49942757"><ele>126.6</ele><time>2022-11-01T14:59:00.0000000+00:00</time></trkpt><trkpt lat="39.56285538" lon="-0.49939337"><ele>126.6</ele><time>2022-11-01T14:59:01.0000000+00:00</time></trkpt><trkpt lat="39.56282881" lon="-0.49935691"><ele>126.6</ele><time>2022-11-01T14:59:02.0000000+00:00</time></trkpt><trkpt lat="39.56280107" lon="-0.49931819"><ele>126.8</ele><time>2022-11-01T14:59:03.0000000+00:00</time></trkpt><trkpt lat="39.56276394" lon="-0.49927116"><ele>126.8</ele><time>2022-11-01T14:59:04.0000000+00:00</time></trkpt><trkpt lat="39.56273158" lon="-0.49922993"><ele>126.8</ele><time>2022-11-01T14:59:05.0000000+00:00</time></trkpt><trkpt lat="39.56270577" lon="-0.49919581"><ele>126.6</ele><time>2022-11-01T14:59:06.0000000+00:00</time></trkpt><trkpt lat="39.56266997" lon="-0.49914778"><ele>126.6</ele><time>2022-11-01T14:59:07.0000000+00:00</time></trkpt><trkpt lat="39.56263494" lon="-0.49909481"><ele>126.6</ele><time>2022-11-01T14:59:08.0000000+00:00</time></trkpt><trkpt lat="39.5625989" lon="-0.49904385"><ele>126.4</ele><time>2022-11-01T14:59:09.0000000+00:00</time></trkpt><trkpt lat="39.56256654" lon="-0.49899926"><ele>126.4</ele><time>2022-11-01T14:59:10.0000000+00:00</time></trkpt><trkpt lat="39.56253151" lon="-0.49895894"><ele>126.4</ele><time>2022-11-01T14:59:11.0000000+00:00</time></trkpt><trkpt lat="39.56249731" lon="-0.49892273"><ele>126.4</ele><time>2022-11-01T14:59:12.0000000+00:00</time></trkpt><trkpt lat="39.5624637" lon="-0.49888685"><ele>126.4</ele><time>2022-11-01T14:59:13.0000000+00:00</time></trkpt><trkpt lat="39.56243243" lon="-0.49885961"><ele>126.2</ele><time>2022-11-01T14:59:14.0000000+00:00</time></trkpt><trkpt lat="39.56240636" lon="-0.49884478"><ele>126.2</ele><time>2022-11-01T14:59:15.0000000+00:00</time></trkpt><trkpt lat="39.56238709" lon="-0.49883933"><ele>126.2</ele><time>2022-11-01T14:59:16.0000000+00:00</time></trkpt><trkpt lat="39.56237233" lon="-0.49884427"><ele>126.0</ele><time>2022-11-01T14:59:17.0000000+00:00</time></trkpt><trkpt lat="39.56235959" lon="-0.49885408"><ele>126.0</ele><time>2022-11-01T14:59:18.0000000+00:00</time></trkpt><trkpt lat="39.56235188" lon="-0.49886749"><ele>126.0</ele><time>2022-11-01T14:59:19.0000000+00:00</time></trkpt><trkpt lat="39.56235029" lon="-0.49888291"><ele>126.2</ele><time>2022-11-01T14:59:20.0000000+00:00</time></trkpt><trkpt lat="39.56235029" lon="-0.49888945"><ele>126.2</ele><time>2022-11-01T14:59:21.0000000+00:00</time></trkpt><trkpt lat="39.56235515" lon="-0.49888752"><ele>126.2</ele><time>2022-11-01T14:59:22.0000000+00:00</time></trkpt><trkpt lat="39.56236898" lon="-0.49887428"><ele>126.2</ele><time>2022-11-01T14:59:23.0000000+00:00</time></trkpt><trkpt lat="39.56238616" lon="-0.49885903"><ele>126.2</ele><time>2022-11-01T14:59:24.0000000+00:00</time></trkpt><trkpt lat="39.56240209" lon="-0.49884478"><ele>126.2</ele><time>2022-11-01T14:59:25.0000000+00:00</time></trkpt><trkpt lat="39.5624124" lon="-0.49883262"><ele>126.2</ele><time>2022-11-01T14:59:26.0000000+00:00</time></trkpt><trkpt lat="39.56241575" lon="-0.49882365"><ele>126.2</ele><time>2022-11-01T14:59:27.0000000+00:00</time></trkpt><trkpt lat="39.56241366" lon="-0.49881829"><ele>126.0</ele><time>2022-11-01T14:59:28.0000000+00:00</time></trkpt><trkpt lat="39.56241366" lon="-0.49881829"><ele>126.0</ele><time>2022-11-01T14:59:29.0000000+00:00</time></trkpt><trkpt lat="39.56241366" lon="-0.49881829"><ele>126.0</ele><time>2022-11-01T14:59:30.0000000+00:00</time></trkpt><trkpt lat="39.56241366" lon="-0.49881829"><ele>125.8</ele><time>2022-11-01T14:59:31.0000000+00:00</time></trkpt><trkpt lat="39.56241366" lon="-0.49881829"><ele>125.8</ele><time>2022-11-01T14:59:32.0000000+00:00</time></trkpt><trkpt lat="39.56241366" lon="-0.49881829"><ele>125.6</ele><time>2022-11-01T14:59:33.0000000+00:00</time></trkpt><trkpt lat="39.56241366" lon="-0.49881829"><ele>125.6</ele><time>2022-11-01T14:59:34.0000000+00:00</time></trkpt><trkpt lat="39.56241366" lon="-0.49881829"><ele>125.6</ele><time>2022-11-01T14:59:35.0000000+00:00</time></trkpt><trkpt lat="39.56241366" lon="-0.49881829"><ele>125.6</ele><time>2022-11-01T14:59:36.0000000+00:00</time></trkpt><trkpt lat="39.56241366" lon="-0.49881829"><ele>125.6</ele><time>2022-11-01T14:59:37.0000000+00:00</time></trkpt><trkpt lat="39.56241366" lon="-0.49881829"><ele>125.6</ele><time>2022-11-01T14:59:38.0000000+00:00</time></trkpt><trkpt lat="39.56241366" lon="-0.49881829"><ele>125.6</ele><time>2022-11-01T14:59:39.0000000+00:00</time></trkpt><trkpt lat="39.56241366" lon="-0.49881829"><ele>125.6</ele><time>2022-11-01T14:59:40.0000000+00:00</time></trkpt><trkpt lat="39.56241366" lon="-0.49881829"><ele>125.6</ele><time>2022-11-01T14:59:41.0000000+00:00</time></trkpt><trkpt lat="39.56241366" lon="-0.49881829"><ele>125.6</ele><time>2022-11-01T14:59:42.0000000+00:00</time></trkpt><trkpt lat="39.56241366" lon="-0.49881829"><ele>125.6</ele><time>2022-11-01T14:59:43.0000000+00:00</time></trkpt><trkpt lat="39.56241366" lon="-0.49881829"><ele>125.6</ele><time>2022-11-01T14:59:44.0000000+00:00</time></trkpt><trkpt lat="39.56241366" lon="-0.49881829"><ele>125.6</ele><time>2022-11-01T14:59:45.0000000+00:00</time></trkpt><trkpt lat="39.56241366" lon="-0.49881829"><ele>125.6</ele><time>2022-11-01T14:59:46.0000000+00:00</time></trkpt><trkpt lat="39.56241366" lon="-0.49881829"><ele>125.6</ele><time>2022-11-01T14:59:47.0000000+00:00</time></trkpt><trkpt lat="39.56241282" lon="-0.49881645"><ele>125.6</ele><time>2022-11-01T14:59:48.0000000+00:00</time></trkpt><trkpt lat="39.56240787" lon="-0.49881267"><ele>125.6</ele><time>2022-11-01T14:59:49.0000000+00:00</time></trkpt><trkpt lat="39.56240435" lon="-0.49881284"><ele>125.6</ele><time>2022-11-01T14:59:50.0000000+00:00</time></trkpt><trkpt lat="39.56240184" lon="-0.49881955"><ele>125.6</ele><time>2022-11-01T14:59:51.0000000+00:00</time></trkpt><trkpt lat="39.56239815" lon="-0.49883455"><ele>125.6</ele><time>2022-11-01T14:59:52.0000000+00:00</time></trkpt><trkpt lat="39.5623927" lon="-0.49884914"><ele>125.6</ele><time>2022-11-01T14:59:53.0000000+00:00</time></trkpt><trkpt lat="39.56238356" lon="-0.49886414"><ele>125.6</ele><time>2022-11-01T14:59:54.0000000+00:00</time></trkpt><trkpt lat="39.56237175" lon="-0.49887789"><ele>125.6</ele><time>2022-11-01T14:59:55.0000000+00:00</time></trkpt><trkpt lat="39.56236127" lon="-0.49888778"><ele>125.8</ele><time>2022-11-01T14:59:56.0000000+00:00</time></trkpt><trkpt lat="39.56235096" lon="-0.49890211"><ele>125.8</ele><time>2022-11-01T14:59:57.0000000+00:00</time></trkpt><trkpt lat="39.56234124" lon="-0.49891837"><ele>126.0</ele><time>2022-11-01T14:59:58.0000000+00:00</time></trkpt><trkpt lat="39.56233361" lon="-0.49893681"><ele>126.0</ele><time>2022-11-01T14:59:59.0000000+00:00</time></trkpt><trkpt lat="39.56232514" lon="-0.49895559"><ele>126.0</ele><time>2022-11-01T15:00:00.0000000+00:00</time></trkpt><trkpt lat="39.56231676" lon="-0.49897218"><ele>126.2</ele><time>2022-11-01T15:00:01.0000000+00:00</time></trkpt><trkpt lat="39.56230855" lon="-0.49898727"><ele>126.2</ele><time>2022-11-01T15:00:02.0000000+00:00</time></trkpt><trkpt lat="39.56230151" lon="-0.49900462"><ele>126.2</ele><time>2022-11-01T15:00:03.0000000+00:00</time></trkpt><trkpt lat="39.56229103" lon="-0.49902063"><ele>126.4</ele><time>2022-11-01T15:00:04.0000000+00:00</time></trkpt><trkpt lat="39.56228131" lon="-0.49903697"><ele>126.4</ele><time>2022-11-01T15:00:05.0000000+00:00</time></trkpt><trkpt lat="39.56226219" lon="-0.4990493"><ele>126.6</ele><time>2022-11-01T15:00:06.0000000+00:00</time></trkpt><trkpt lat="39.56224836" lon="-0.49906514"><ele>127.0</ele><time>2022-11-01T15:00:07.0000000+00:00</time></trkpt><trkpt lat="39.56223462" lon="-0.49908358"><ele>127.2</ele><time>2022-11-01T15:00:08.0000000+00:00</time></trkpt><trkpt lat="39.56221836" lon="-0.49910151"><ele>127.2</ele><time>2022-11-01T15:00:09.0000000+00:00</time></trkpt><trkpt lat="39.56220252" lon="-0.49911652"><ele>127.4</ele><time>2022-11-01T15:00:10.0000000+00:00</time></trkpt><trkpt lat="39.56218625" lon="-0.49912591"><ele>127.4</ele><time>2022-11-01T15:00:11.0000000+00:00</time></trkpt><trkpt lat="39.56217142" lon="-0.49913102"><ele>127.6</ele><time>2022-11-01T15:00:12.0000000+00:00</time></trkpt><trkpt lat="39.56215784" lon="-0.49913236"><ele>127.6</ele><time>2022-11-01T15:00:13.0000000+00:00</time></trkpt><trkpt lat="39.56214015" lon="-0.49913077"><ele>127.6</ele><time>2022-11-01T15:00:14.0000000+00:00</time></trkpt><trkpt lat="39.56212272" lon="-0.49913102"><ele>127.6</ele><time>2022-11-01T15:00:15.0000000+00:00</time></trkpt><trkpt lat="39.56210411" lon="-0.49912289"><ele>127.8</ele><time>2022-11-01T15:00:16.0000000+00:00</time></trkpt><trkpt lat="39.56208483" lon="-0.49910931"><ele>127.8</ele><time>2022-11-01T15:00:17.0000000+00:00</time></trkpt><trkpt lat="39.56206279" lon="-0.49909246"><ele>127.8</ele><time>2022-11-01T15:00:18.0000000+00:00</time></trkpt><trkpt lat="39.56204091" lon="-0.49906774"><ele>127.8</ele><time>2022-11-01T15:00:19.0000000+00:00</time></trkpt><trkpt lat="39.56201887" lon="-0.49904049"><ele>128.0</ele><time>2022-11-01T15:00:20.0000000+00:00</time></trkpt><trkpt lat="39.5620011" lon="-0.49901174"><ele>128.2</ele><time>2022-11-01T15:00:21.0000000+00:00</time></trkpt><trkpt lat="39.56198333" lon="-0.4989845"><ele>128.2</ele><time>2022-11-01T15:00:22.0000000+00:00</time></trkpt><trkpt lat="39.5619638" lon="-0.49895961"><ele>128.4</ele><time>2022-11-01T15:00:23.0000000+00:00</time></trkpt><trkpt lat="39.56194502" lon="-0.49893228"><ele>128.4</ele><time>2022-11-01T15:00:24.0000000+00:00</time></trkpt><trkpt lat="39.56193153" lon="-0.49890261"><ele>128.4</ele><time>2022-11-01T15:00:25.0000000+00:00</time></trkpt><trkpt lat="39.56191611" lon="-0.4988685"><ele>128.2</ele><time>2022-11-01T15:00:26.0000000+00:00</time></trkpt><trkpt lat="39.56189431" lon="-0.49882122"><ele>128.2</ele><time>2022-11-01T15:00:27.0000000+00:00</time></trkpt><trkpt lat="39.56187872" lon="-0.49879281"><ele>128.2</ele><time>2022-11-01T15:00:28.0000000+00:00</time></trkpt><trkpt lat="39.56184737" lon="-0.49874847"><ele>128.2</ele><time>2022-11-01T15:00:29.0000000+00:00</time></trkpt><trkpt lat="39.56181435" lon="-0.49871611"><ele>128.2</ele><time>2022-11-01T15:00:30.0000000+00:00</time></trkpt><trkpt lat="39.56176984" lon="-0.49867664"><ele>128.2</ele><time>2022-11-01T15:00:31.0000000+00:00</time></trkpt><trkpt lat="39.56172961" lon="-0.49864437"><ele>128.2</ele><time>2022-11-01T15:00:32.0000000+00:00</time></trkpt><trkpt lat="39.56169734" lon="-0.49861218"><ele>128.2</ele><time>2022-11-01T15:00:33.0000000+00:00</time></trkpt><trkpt lat="39.56166113" lon="-0.4985784"><ele>128.2</ele><time>2022-11-01T15:00:34.0000000+00:00</time></trkpt><trkpt lat="39.56162877" lon="-0.49854051"><ele>128.2</ele><time>2022-11-01T15:00:35.0000000+00:00</time></trkpt><trkpt lat="39.56161033" lon="-0.49851084"><ele>128.2</ele><time>2022-11-01T15:00:36.0000000+00:00</time></trkpt><trkpt lat="39.56160338" lon="-0.4984655"><ele>128.2</ele><time>2022-11-01T15:00:37.0000000+00:00</time></trkpt><trkpt lat="39.56161151" lon="-0.49842627"><ele>128.0</ele><time>2022-11-01T15:00:38.0000000+00:00</time></trkpt><trkpt lat="39.56163028" lon="-0.49839375"><ele>127.8</ele><time>2022-11-01T15:00:39.0000000+00:00</time></trkpt><trkpt lat="39.56164856" lon="-0.49835636"><ele>127.8</ele><time>2022-11-01T15:00:40.0000000+00:00</time></trkpt><trkpt lat="39.56166322" lon="-0.4983044"><ele>127.8</ele><time>2022-11-01T15:00:41.0000000+00:00</time></trkpt><trkpt lat="39.56167446" lon="-0.49825721"><ele>127.6</ele><time>2022-11-01T15:00:42.0000000+00:00</time></trkpt><trkpt lat="39.56167177" lon="-0.49821345"><ele>127.4</ele><time>2022-11-01T15:00:43.0000000+00:00</time></trkpt><trkpt lat="39.56165995" lon="-0.49816802"><ele>127.0</ele><time>2022-11-01T15:00:44.0000000+00:00</time></trkpt><trkpt lat="39.56163129" lon="-0.49812125"><ele>126.8</ele><time>2022-11-01T15:00:45.0000000+00:00</time></trkpt><trkpt lat="39.561595" lon="-0.49808756"><ele>126.6</ele><time>2022-11-01T15:00:46.0000000+00:00</time></trkpt><trkpt lat="39.56155635" lon="-0.49805998"><ele>126.6</ele><time>2022-11-01T15:00:47.0000000+00:00</time></trkpt><trkpt lat="39.5615204" lon="-0.498034"><ele>126.6</ele><time>2022-11-01T15:00:48.0000000+00:00</time></trkpt><trkpt lat="39.56148142" lon="-0.49800566"><ele>126.6</ele><time>2022-11-01T15:00:49.0000000+00:00</time></trkpt><trkpt lat="39.56144513" lon="-0.49797415"><ele>126.6</ele><time>2022-11-01T15:00:50.0000000+00:00</time></trkpt><trkpt lat="39.56141034" lon="-0.49793928"><ele>126.8</ele><time>2022-11-01T15:00:51.0000000+00:00</time></trkpt><trkpt lat="39.56137304" lon="-0.49790634"><ele>126.8</ele><time>2022-11-01T15:00:52.0000000+00:00</time></trkpt><trkpt lat="39.56133038" lon="-0.49787583"><ele>126.8</ele><time>2022-11-01T15:00:53.0000000+00:00</time></trkpt><trkpt lat="39.56129149" lon="-0.49783979"><ele>126.8</ele><time>2022-11-01T15:00:54.0000000+00:00</time></trkpt><trkpt lat="39.56125486" lon="-0.49779997"><ele>126.8</ele><time>2022-11-01T15:00:55.0000000+00:00</time></trkpt><trkpt lat="39.56121806" lon="-0.49775865"><ele>126.8</ele><time>2022-11-01T15:00:56.0000000+00:00</time></trkpt><trkpt lat="39.56118353" lon="-0.49771448"><ele>126.8</ele><time>2022-11-01T15:00:57.0000000+00:00</time></trkpt><trkpt lat="39.56115025" lon="-0.49767022"><ele>126.8</ele><time>2022-11-01T15:00:58.0000000+00:00</time></trkpt><trkpt lat="39.56111178" lon="-0.49763175"><ele>126.8</ele><time>2022-11-01T15:00:59.0000000+00:00</time></trkpt><trkpt lat="39.56107498" lon="-0.4975916"><ele>126.8</ele><time>2022-11-01T15:01:00.0000000+00:00</time></trkpt><trkpt lat="39.56103743" lon="-0.49755086"><ele>126.8</ele><time>2022-11-01T15:01:01.0000000+00:00</time></trkpt><trkpt lat="39.56100139" lon="-0.49751029"><ele>126.6</ele><time>2022-11-01T15:01:02.0000000+00:00</time></trkpt><trkpt lat="39.56096803" lon="-0.4974678"><ele>126.6</ele><time>2022-11-01T15:01:03.0000000+00:00</time></trkpt><trkpt lat="39.56093484" lon="-0.49741876"><ele>126.8</ele><time>2022-11-01T15:01:04.0000000+00:00</time></trkpt><trkpt lat="39.56090072" lon="-0.49736847"><ele>126.8</ele><time>2022-11-01T15:01:05.0000000+00:00</time></trkpt><trkpt lat="39.56086845" lon="-0.49731533"><ele>126.6</ele><time>2022-11-01T15:01:06.0000000+00:00</time></trkpt><trkpt lat="39.56084171" lon="-0.49726839"><ele>126.6</ele><time>2022-11-01T15:01:07.0000000+00:00</time></trkpt><trkpt lat="39.56081766" lon="-0.49722112"><ele>126.6</ele><time>2022-11-01T15:01:08.0000000+00:00</time></trkpt><trkpt lat="39.56079016" lon="-0.49718055"><ele>126.6</ele><time>2022-11-01T15:01:09.0000000+00:00</time></trkpt><trkpt lat="39.56075756" lon="-0.49713654"><ele>126.6</ele><time>2022-11-01T15:01:10.0000000+00:00</time></trkpt><trkpt lat="39.56072797" lon="-0.49709522"><ele>126.2</ele><time>2022-11-01T15:01:11.0000000+00:00</time></trkpt><trkpt lat="39.56069486" lon="-0.49705742"><ele>126.0</ele><time>2022-11-01T15:01:12.0000000+00:00</time></trkpt><trkpt lat="39.56066033" lon="-0.49702649"><ele>125.8</ele><time>2022-11-01T15:01:13.0000000+00:00</time></trkpt><trkpt lat="39.56061247" lon="-0.49697913"><ele>125.6</ele><time>2022-11-01T15:01:14.0000000+00:00</time></trkpt><trkpt lat="39.56057358" lon="-0.49693169"><ele>125.6</ele><time>2022-11-01T15:01:15.0000000+00:00</time></trkpt><trkpt lat="39.56052932" lon="-0.49688643"><ele>125.4</ele><time>2022-11-01T15:01:16.0000000+00:00</time></trkpt><trkpt lat="39.56048205" lon="-0.49684041"><ele>125.2</ele><time>2022-11-01T15:01:17.0000000+00:00</time></trkpt><trkpt lat="39.56044743" lon="-0.49679867"><ele>125.2</ele><time>2022-11-01T15:01:18.0000000+00:00</time></trkpt><trkpt lat="39.56041566" lon="-0.49675525"><ele>125.0</ele><time>2022-11-01T15:01:19.0000000+00:00</time></trkpt><trkpt lat="39.56038683" lon="-0.49670957"><ele>125.0</ele><time>2022-11-01T15:01:20.0000000+00:00</time></trkpt><trkpt lat="39.56036034" lon="-0.4966607"><ele>124.8</ele><time>2022-11-01T15:01:21.0000000+00:00</time></trkpt><trkpt lat="39.5603217" lon="-0.49659985"><ele>124.8</ele><time>2022-11-01T15:01:22.0000000+00:00</time></trkpt><trkpt lat="39.56028633" lon="-0.49656037"><ele>124.8</ele><time>2022-11-01T15:01:23.0000000+00:00</time></trkpt><trkpt lat="39.5602409" lon="-0.49651419"><ele>125.0</ele><time>2022-11-01T15:01:24.0000000+00:00</time></trkpt><trkpt lat="39.56020243" lon="-0.49646557"><ele>124.8</ele><time>2022-11-01T15:01:25.0000000+00:00</time></trkpt><trkpt lat="39.56016798" lon="-0.49641679"><ele>124.8</ele><time>2022-11-01T15:01:26.0000000+00:00</time></trkpt><trkpt lat="39.56013386" lon="-0.49636759"><ele>124.8</ele><time>2022-11-01T15:01:27.0000000+00:00</time></trkpt><trkpt lat="39.56009707" lon="-0.49631906"><ele>124.8</ele><time>2022-11-01T15:01:28.0000000+00:00</time></trkpt><trkpt lat="39.56006052" lon="-0.4962717"><ele>124.8</ele><time>2022-11-01T15:01:29.0000000+00:00</time></trkpt><trkpt lat="39.56002506" lon="-0.49622677"><ele>124.4</ele><time>2022-11-01T15:01:30.0000000+00:00</time></trkpt><trkpt lat="39.5599881" lon="-0.4961852"><ele>124.4</ele><time>2022-11-01T15:01:31.0000000+00:00</time></trkpt><trkpt lat="39.55995533" lon="-0.49614505"><ele>124.2</ele><time>2022-11-01T15:01:32.0000000+00:00</time></trkpt><trkpt lat="39.55992146" lon="-0.49610708"><ele>124.0</ele><time>2022-11-01T15:01:33.0000000+00:00</time></trkpt><trkpt lat="39.55988844" lon="-0.49607456"><ele>124.0</ele><time>2022-11-01T15:01:34.0000000+00:00</time></trkpt><trkpt lat="39.55985533" lon="-0.49604556"><ele>124.0</ele><time>2022-11-01T15:01:35.0000000+00:00</time></trkpt><trkpt lat="39.5598244" lon="-0.49601262"><ele>123.8</ele><time>2022-11-01T15:01:36.0000000+00:00</time></trkpt><trkpt lat="39.5597949" lon="-0.49598378"><ele>123.8</ele><time>2022-11-01T15:01:37.0000000+00:00</time></trkpt><trkpt lat="39.55976539" lon="-0.49594623"><ele>123.8</ele><time>2022-11-01T15:01:38.0000000+00:00</time></trkpt><trkpt lat="39.5597405" lon="-0.4959101"><ele>123.8</ele><time>2022-11-01T15:01:39.0000000+00:00</time></trkpt><trkpt lat="39.5597115" lon="-0.49587658"><ele>123.8</ele><time>2022-11-01T15:01:40.0000000+00:00</time></trkpt><trkpt lat="39.5596856" lon="-0.49584062"><ele>123.8</ele><time>2022-11-01T15:01:41.0000000+00:00</time></trkpt><trkpt lat="39.55966464" lon="-0.49579469"><ele>123.8</ele><time>2022-11-01T15:01:42.0000000+00:00</time></trkpt><trkpt lat="39.55964821" lon="-0.49573995"><ele>123.8</ele><time>2022-11-01T15:01:43.0000000+00:00</time></trkpt><trkpt lat="39.55963464" lon="-0.49568798"><ele>123.8</ele><time>2022-11-01T15:01:44.0000000+00:00</time></trkpt><trkpt lat="39.55962022" lon="-0.49563342"><ele>123.8</ele><time>2022-11-01T15:01:45.0000000+00:00</time></trkpt><trkpt lat="39.55960061" lon="-0.49559109"><ele>123.6</ele><time>2022-11-01T15:01:46.0000000+00:00</time></trkpt><trkpt lat="39.55957227" lon="-0.49555991"><ele>123.6</ele><time>2022-11-01T15:01:47.0000000+00:00</time></trkpt><trkpt lat="39.55953942" lon="-0.49554239"><ele>123.6</ele><time>2022-11-01T15:01:48.0000000+00:00</time></trkpt><trkpt lat="39.5595017" lon="-0.49553434"><ele>123.6</ele><time>2022-11-01T15:01:49.0000000+00:00</time></trkpt><trkpt lat="39.55946717" lon="-0.49553267"><ele>123.6</ele><time>2022-11-01T15:01:50.0000000+00:00</time></trkpt><trkpt lat="39.55943858" lon="-0.49552211"><ele>123.4</ele><time>2022-11-01T15:01:51.0000000+00:00</time></trkpt><trkpt lat="39.5594095" lon="-0.49549319"><ele>123.4</ele><time>2022-11-01T15:01:52.0000000+00:00</time></trkpt><trkpt lat="39.55938829" lon="-0.49545547"><ele>123.2</ele><time>2022-11-01T15:01:53.0000000+00:00</time></trkpt><trkpt lat="39.55936633" lon="-0.49541079"><ele>123.0</ele><time>2022-11-01T15:01:54.0000000+00:00</time></trkpt><trkpt lat="39.55934035" lon="-0.49536687"><ele>123.0</ele><time>2022-11-01T15:01:55.0000000+00:00</time></trkpt><trkpt lat="39.55931487" lon="-0.49532723"><ele>122.8</ele><time>2022-11-01T15:01:56.0000000+00:00</time></trkpt><trkpt lat="39.55929282" lon="-0.49528951"><ele>122.8</ele><time>2022-11-01T15:01:57.0000000+00:00</time></trkpt><trkpt lat="39.55926927" lon="-0.49524366"><ele>122.8</ele><time>2022-11-01T15:01:58.0000000+00:00</time></trkpt><trkpt lat="39.55924513" lon="-0.4951927"><ele>122.6</ele><time>2022-11-01T15:01:59.0000000+00:00</time></trkpt><trkpt lat="39.55922124" lon="-0.4951445"><ele>122.6</ele><time>2022-11-01T15:02:00.0000000+00:00</time></trkpt><trkpt lat="39.55920045" lon="-0.49509639"><ele>122.4</ele><time>2022-11-01T15:02:01.0000000+00:00</time></trkpt><trkpt lat="39.55917765" lon="-0.49504987"><ele>122.4</ele><time>2022-11-01T15:02:02.0000000+00:00</time></trkpt><trkpt lat="39.55915326" lon="-0.49500209"><ele>122.4</ele><time>2022-11-01T15:02:03.0000000+00:00</time></trkpt><trkpt lat="39.55913189" lon="-0.49495767"><ele>122.2</ele><time>2022-11-01T15:02:04.0000000+00:00</time></trkpt><trkpt lat="39.55911378" lon="-0.49491668"><ele>122.2</ele><time>2022-11-01T15:02:05.0000000+00:00</time></trkpt><trkpt lat="39.5590956" lon="-0.49487787"><ele>122.2</ele><time>2022-11-01T15:02:06.0000000+00:00</time></trkpt><trkpt lat="39.55907531" lon="-0.49486002"><ele>122.2</ele><time>2022-11-01T15:02:07.0000000+00:00</time></trkpt><trkpt lat="39.5590531" lon="-0.49485927"><ele>121.8</ele><time>2022-11-01T15:02:08.0000000+00:00</time></trkpt><trkpt lat="39.55902737" lon="-0.49486907"><ele>121.2</ele><time>2022-11-01T15:02:09.0000000+00:00</time></trkpt><trkpt lat="39.55899929" lon="-0.49487854"><ele>120.8</ele><time>2022-11-01T15:02:10.0000000+00:00</time></trkpt><trkpt lat="39.55896903" lon="-0.49488265"><ele>120.6</ele><time>2022-11-01T15:02:11.0000000+00:00</time></trkpt><trkpt lat="39.55894095" lon="-0.49487704"><ele>120.4</ele><time>2022-11-01T15:02:12.0000000+00:00</time></trkpt><trkpt lat="39.55891103" lon="-0.49485935"><ele>120.4</ele><time>2022-11-01T15:02:13.0000000+00:00</time></trkpt><trkpt lat="39.55888513" lon="-0.49483437"><ele>120.6</ele><time>2022-11-01T15:02:14.0000000+00:00</time></trkpt><trkpt lat="39.55886149" lon="-0.49479892"><ele>120.8</ele><time>2022-11-01T15:02:15.0000000+00:00</time></trkpt><trkpt lat="39.5588402" lon="-0.49475659"><ele>121.0</ele><time>2022-11-01T15:02:16.0000000+00:00</time></trkpt><trkpt lat="39.55881765" lon="-0.49470739"><ele>121.0</ele><time>2022-11-01T15:02:17.0000000+00:00</time></trkpt><trkpt lat="39.55879184" lon="-0.49465223"><ele>121.0</ele><time>2022-11-01T15:02:18.0000000+00:00</time></trkpt><trkpt lat="39.5587656" lon="-0.49459708"><ele>121.2</ele><time>2022-11-01T15:02:19.0000000+00:00</time></trkpt><trkpt lat="39.5587392" lon="-0.49454159"><ele>121.2</ele><time>2022-11-01T15:02:20.0000000+00:00</time></trkpt><trkpt lat="39.5587164" lon="-0.49448242"><ele>121.2</ele><time>2022-11-01T15:02:21.0000000+00:00</time></trkpt><trkpt lat="39.55869209" lon="-0.49442441"><ele>121.0</ele><time>2022-11-01T15:02:22.0000000+00:00</time></trkpt><trkpt lat="39.55866703" lon="-0.49436742"><ele>120.8</ele><time>2022-11-01T15:02:23.0000000+00:00</time></trkpt><trkpt lat="39.55864473" lon="-0.49431226"><ele>120.6</ele><time>2022-11-01T15:02:24.0000000+00:00</time></trkpt><trkpt lat="39.55862202" lon="-0.49425845"><ele>120.6</ele><time>2022-11-01T15:02:25.0000000+00:00</time></trkpt><trkpt lat="39.55860333" lon="-0.49420984"><ele>120.4</ele><time>2022-11-01T15:02:26.0000000+00:00</time></trkpt><trkpt lat="39.55858623" lon="-0.49416818"><ele>120.4</ele><time>2022-11-01T15:02:27.0000000+00:00</time></trkpt><trkpt lat="39.55856904" lon="-0.4941375"><ele>120.2</ele><time>2022-11-01T15:02:28.0000000+00:00</time></trkpt><trkpt lat="39.55855329" lon="-0.49410992"><ele>120.2</ele><time>2022-11-01T15:02:29.0000000+00:00</time></trkpt><trkpt lat="39.55853912" lon="-0.49408352"><ele>119.8</ele><time>2022-11-01T15:02:30.0000000+00:00</time></trkpt><trkpt lat="39.55852605" lon="-0.49405879"><ele>119.8</ele><time>2022-11-01T15:02:31.0000000+00:00</time></trkpt><trkpt lat="39.55851238" lon="-0.49402979"><ele>119.6</ele><time>2022-11-01T15:02:32.0000000+00:00</time></trkpt><trkpt lat="39.55849654" lon="-0.49399903"><ele>119.6</ele><time>2022-11-01T15:02:33.0000000+00:00</time></trkpt><trkpt lat="39.55847927" lon="-0.49397137"><ele>119.6</ele><time>2022-11-01T15:02:34.0000000+00:00</time></trkpt><trkpt lat="39.55846033" lon="-0.49394136"><ele>119.6</ele><time>2022-11-01T15:02:35.0000000+00:00</time></trkpt><trkpt lat="39.55844197" lon="-0.49390708"><ele>119.6</ele><time>2022-11-01T15:02:36.0000000+00:00</time></trkpt><trkpt lat="39.55842362" lon="-0.49387163"><ele>119.4</ele><time>2022-11-01T15:02:37.0000000+00:00</time></trkpt><trkpt lat="39.55840719" lon="-0.49383382"><ele>119.2</ele><time>2022-11-01T15:02:38.0000000+00:00</time></trkpt><trkpt lat="39.55838925" lon="-0.49379409"><ele>119.2</ele><time>2022-11-01T15:02:39.0000000+00:00</time></trkpt><trkpt lat="39.55837157" lon="-0.49375269"><ele>119.2</ele><time>2022-11-01T15:02:40.0000000+00:00</time></trkpt><trkpt lat="39.55834986" lon="-0.49371044"><ele>119.2</ele><time>2022-11-01T15:02:41.0000000+00:00</time></trkpt><trkpt lat="39.55832329" lon="-0.49366736"><ele>119.2</ele><time>2022-11-01T15:02:42.0000000+00:00</time></trkpt><trkpt lat="39.5582916" lon="-0.49362117"><ele>119.2</ele><time>2022-11-01T15:02:43.0000000+00:00</time></trkpt><trkpt lat="39.55825967" lon="-0.49357357"><ele>119.2</ele><time>2022-11-01T15:02:44.0000000+00:00</time></trkpt><trkpt lat="39.5582279" lon="-0.49352939"><ele>119.0</ele><time>2022-11-01T15:02:45.0000000+00:00</time></trkpt><trkpt lat="39.55820024" lon="-0.49348522"><ele>119.0</ele><time>2022-11-01T15:02:46.0000000+00:00</time></trkpt><trkpt lat="39.55816914" lon="-0.4934361"><ele>119.0</ele><time>2022-11-01T15:02:47.0000000+00:00</time></trkpt><trkpt lat="39.55813662" lon="-0.49338841"><ele>119.0</ele><time>2022-11-01T15:02:48.0000000+00:00</time></trkpt><trkpt lat="39.55810192" lon="-0.49333778"><ele>119.0</ele><time>2022-11-01T15:02:49.0000000+00:00</time></trkpt><trkpt lat="39.55806605" lon="-0.49328741"><ele>118.8</ele><time>2022-11-01T15:02:50.0000000+00:00</time></trkpt><trkpt lat="39.55803193" lon="-0.49323837"><ele>118.8</ele><time>2022-11-01T15:02:51.0000000+00:00</time></trkpt><trkpt lat="39.55799673" lon="-0.49318842"><ele>118.8</ele><time>2022-11-01T15:02:52.0000000+00:00</time></trkpt><trkpt lat="39.55795918" lon="-0.49313637"><ele>118.8</ele><time>2022-11-01T15:02:53.0000000+00:00</time></trkpt><trkpt lat="39.55792104" lon="-0.49308331"><ele>118.6</ele><time>2022-11-01T15:02:54.0000000+00:00</time></trkpt><trkpt lat="39.557885" lon="-0.49302924"><ele>118.6</ele><time>2022-11-01T15:02:55.0000000+00:00</time></trkpt><trkpt lat="39.55784896" lon="-0.49297392"><ele>118.6</ele><time>2022-11-01T15:02:56.0000000+00:00</time></trkpt><trkpt lat="39.55781476" lon="-0.49292405"><ele>118.6</ele><time>2022-11-01T15:02:57.0000000+00:00</time></trkpt><trkpt lat="39.55778039" lon="-0.49287493"><ele>118.4</ele><time>2022-11-01T15:02:58.0000000+00:00</time></trkpt><trkpt lat="39.55774661" lon="-0.492828"><ele>118.4</ele><time>2022-11-01T15:02:59.0000000+00:00</time></trkpt><trkpt lat="39.55771359" lon="-0.49278248"><ele>118.4</ele><time>2022-11-01T15:03:00.0000000+00:00</time></trkpt><trkpt lat="39.55767989" lon="-0.4927389"><ele>118.4</ele><time>2022-11-01T15:03:01.0000000+00:00</time></trkpt><trkpt lat="39.55764662" lon="-0.49269271"><ele>118.4</ele><time>2022-11-01T15:03:02.0000000+00:00</time></trkpt><trkpt lat="39.55761619" lon="-0.49264569"><ele>118.4</ele><time>2022-11-01T15:03:03.0000000+00:00</time></trkpt><trkpt lat="39.55758534" lon="-0.49259699"><ele>118.2</ele><time>2022-11-01T15:03:04.0000000+00:00</time></trkpt><trkpt lat="39.55755341" lon="-0.4925467"><ele>118.2</ele><time>2022-11-01T15:03:05.0000000+00:00</time></trkpt><trkpt lat="39.55752164" lon="-0.49249649"><ele>118.2</ele><time>2022-11-01T15:03:06.0000000+00:00</time></trkpt><trkpt lat="39.55748912" lon="-0.49244737"><ele>118.2</ele><time>2022-11-01T15:03:07.0000000+00:00</time></trkpt><trkpt lat="39.55745693" lon="-0.49239507"><ele>118.4</ele><time>2022-11-01T15:03:08.0000000+00:00</time></trkpt><trkpt lat="39.5574229" lon="-0.49234143"><ele>118.4</ele><time>2022-11-01T15:03:09.0000000+00:00</time></trkpt><trkpt lat="39.55738728" lon="-0.49228971"><ele>118.6</ele><time>2022-11-01T15:03:10.0000000+00:00</time></trkpt><trkpt lat="39.55735635" lon="-0.49223456"><ele>118.6</ele><time>2022-11-01T15:03:11.0000000+00:00</time></trkpt><trkpt lat="39.55732685" lon="-0.49218192"><ele>118.6</ele><time>2022-11-01T15:03:12.0000000+00:00</time></trkpt><trkpt lat="39.55728888" lon="-0.49213506"><ele>118.6</ele><time>2022-11-01T15:03:13.0000000+00:00</time></trkpt><trkpt lat="39.5572561" lon="-0.49208846"><ele>118.4</ele><time>2022-11-01T15:03:14.0000000+00:00</time></trkpt><trkpt lat="39.55722408" lon="-0.49204269"><ele>118.4</ele><time>2022-11-01T15:03:15.0000000+00:00</time></trkpt><trkpt lat="39.55719056" lon="-0.49199785"><ele>118.2</ele><time>2022-11-01T15:03:16.0000000+00:00</time></trkpt><trkpt lat="39.55715552" lon="-0.4919494"><ele>118.2</ele><time>2022-11-01T15:03:17.0000000+00:00</time></trkpt><trkpt lat="39.55712191" lon="-0.49190037"><ele>118.2</ele><time>2022-11-01T15:03:18.0000000+00:00</time></trkpt><trkpt lat="39.55708813" lon="-0.49184597"><ele>118.2</ele><time>2022-11-01T15:03:19.0000000+00:00</time></trkpt><trkpt lat="39.55705301" lon="-0.49179199"><ele>118.2</ele><time>2022-11-01T15:03:20.0000000+00:00</time></trkpt><trkpt lat="39.55701806" lon="-0.49174044"><ele>118.2</ele><time>2022-11-01T15:03:21.0000000+00:00</time></trkpt><trkpt lat="39.55698445" lon="-0.49168864"><ele>118.0</ele><time>2022-11-01T15:03:22.0000000+00:00</time></trkpt><trkpt lat="39.55695209" lon="-0.49163584"><ele>118.0</ele><time>2022-11-01T15:03:23.0000000+00:00</time></trkpt><trkpt lat="39.55691706" lon="-0.49158228"><ele>118.0</ele><time>2022-11-01T15:03:24.0000000+00:00</time></trkpt><trkpt lat="39.55688654" lon="-0.49152562"><ele>118.0</ele><time>2022-11-01T15:03:25.0000000+00:00</time></trkpt><trkpt lat="39.55685327" lon="-0.49146694"><ele>118.0</ele><time>2022-11-01T15:03:26.0000000+00:00</time></trkpt><trkpt lat="39.55682033" lon="-0.49141422"><ele>118.0</ele><time>2022-11-01T15:03:27.0000000+00:00</time></trkpt><trkpt lat="39.55678571" lon="-0.49136133"><ele>118.0</ele><time>2022-11-01T15:03:28.0000000+00:00</time></trkpt><trkpt lat="39.55674841" lon="-0.49130727"><ele>117.8</ele><time>2022-11-01T15:03:29.0000000+00:00</time></trkpt><trkpt lat="39.55671656" lon="-0.49125287"><ele>117.8</ele><time>2022-11-01T15:03:30.0000000+00:00</time></trkpt><trkpt lat="39.55668412" lon="-0.49119973"><ele>117.8</ele><time>2022-11-01T15:03:31.0000000+00:00</time></trkpt><trkpt lat="39.55664875" lon="-0.49114483"><ele>117.6</ele><time>2022-11-01T15:03:32.0000000+00:00</time></trkpt><trkpt lat="39.55661338" lon="-0.49108909"><ele>117.4</ele><time>2022-11-01T15:03:33.0000000+00:00</time></trkpt><trkpt lat="39.55657918" lon="-0.49103418"><ele>117.4</ele><time>2022-11-01T15:03:34.0000000+00:00</time></trkpt><trkpt lat="39.55654632" lon="-0.49097685"><ele>117.4</ele><time>2022-11-01T15:03:35.0000000+00:00</time></trkpt><trkpt lat="39.55651405" lon="-0.49091776"><ele>117.4</ele><time>2022-11-01T15:03:36.0000000+00:00</time></trkpt><trkpt lat="39.5564812" lon="-0.4908616"><ele>117.4</ele><time>2022-11-01T15:03:37.0000000+00:00</time></trkpt><trkpt lat="39.55644658" lon="-0.49080779"><ele>117.4</ele><time>2022-11-01T15:03:38.0000000+00:00</time></trkpt><trkpt lat="39.55640978" lon="-0.49075532"><ele>117.4</ele><time>2022-11-01T15:03:39.0000000+00:00</time></trkpt><trkpt lat="39.5563724" lon="-0.4907026"><ele>117.4</ele><time>2022-11-01T15:03:40.0000000+00:00</time></trkpt><trkpt lat="39.5563382" lon="-0.49065004"><ele>117.4</ele><time>2022-11-01T15:03:41.0000000+00:00</time></trkpt><trkpt lat="39.55630384" lon="-0.49059548"><ele>117.2</ele><time>2022-11-01T15:03:42.0000000+00:00</time></trkpt><trkpt lat="39.5562688" lon="-0.49053923"><ele>117.2</ele><time>2022-11-01T15:03:43.0000000+00:00</time></trkpt><trkpt lat="39.55623427" lon="-0.49048425"><ele>117.2</ele><time>2022-11-01T15:03:44.0000000+00:00</time></trkpt><trkpt lat="39.55620233" lon="-0.49043069"><ele>117.2</ele><time>2022-11-01T15:03:45.0000000+00:00</time></trkpt><trkpt lat="39.55616939" lon="-0.49037897"><ele>117.2</ele><time>2022-11-01T15:03:46.0000000+00:00</time></trkpt><trkpt lat="39.55613402" lon="-0.49032583"><ele>117.2</ele><time>2022-11-01T15:03:47.0000000+00:00</time></trkpt><trkpt lat="39.55610225" lon="-0.49026883"><ele>117.2</ele><time>2022-11-01T15:03:48.0000000+00:00</time></trkpt><trkpt lat="39.55606881" lon="-0.49021033"><ele>117.0</ele><time>2022-11-01T15:03:49.0000000+00:00</time></trkpt><trkpt lat="39.55603478" lon="-0.49015165"><ele>117.0</ele><time>2022-11-01T15:03:50.0000000+00:00</time></trkpt><trkpt lat="39.55599974" lon="-0.49009533"><ele>117.0</ele><time>2022-11-01T15:03:51.0000000+00:00</time></trkpt><trkpt lat="39.55596613" lon="-0.4900411"><ele>117.0</ele><time>2022-11-01T15:03:52.0000000+00:00</time></trkpt><trkpt lat="39.55593428" lon="-0.48998628"><ele>117.0</ele><time>2022-11-01T15:03:53.0000000+00:00</time></trkpt><trkpt lat="39.55590192" lon="-0.48992937"><ele>117.0</ele><time>2022-11-01T15:03:54.0000000+00:00</time></trkpt><trkpt lat="39.55586881" lon="-0.48987354"><ele>117.2</ele><time>2022-11-01T15:03:55.0000000+00:00</time></trkpt><trkpt lat="39.55583495" lon="-0.48981906"><ele>117.2</ele><time>2022-11-01T15:03:56.0000000+00:00</time></trkpt><trkpt lat="39.55580109" lon="-0.489766"><ele>117.2</ele><time>2022-11-01T15:03:57.0000000+00:00</time></trkpt><trkpt lat="39.55576848" lon="-0.48971177"><ele>117.2</ele><time>2022-11-01T15:03:58.0000000+00:00</time></trkpt><trkpt lat="39.55573822" lon="-0.48965444"><ele>117.2</ele><time>2022-11-01T15:03:59.0000000+00:00</time></trkpt><trkpt lat="39.55571157" lon="-0.48959635"><ele>117.0</ele><time>2022-11-01T15:04:00.0000000+00:00</time></trkpt><trkpt lat="39.5556855" lon="-0.48953441"><ele>117.0</ele><time>2022-11-01T15:04:01.0000000+00:00</time></trkpt><trkpt lat="39.55565851" lon="-0.48947222"><ele>117.0</ele><time>2022-11-01T15:04:02.0000000+00:00</time></trkpt><trkpt lat="39.55562817" lon="-0.48941338"><ele>117.0</ele><time>2022-11-01T15:04:03.0000000+00:00</time></trkpt><trkpt lat="39.55559263" lon="-0.48935822"><ele>117.0</ele><time>2022-11-01T15:04:04.0000000+00:00</time></trkpt><trkpt lat="39.55555642" lon="-0.4893003"><ele>117.0</ele><time>2022-11-01T15:04:05.0000000+00:00</time></trkpt><trkpt lat="39.55552214" lon="-0.48924247"><ele>117.0</ele><time>2022-11-01T15:04:06.0000000+00:00</time></trkpt><trkpt lat="39.55548903" lon="-0.48918597"><ele>117.0</ele><time>2022-11-01T15:04:07.0000000+00:00</time></trkpt><trkpt lat="39.55545743" lon="-0.48913334"><ele>117.0</ele><time>2022-11-01T15:04:08.0000000+00:00</time></trkpt><trkpt lat="39.55542306" lon="-0.48907969"><ele>117.0</ele><time>2022-11-01T15:04:09.0000000+00:00</time></trkpt><trkpt lat="39.55538987" lon="-0.48902638"><ele>117.0</ele><time>2022-11-01T15:04:10.0000000+00:00</time></trkpt><trkpt lat="39.55535911" lon="-0.48897442"><ele>117.0</ele><time>2022-11-01T15:04:11.0000000+00:00</time></trkpt><trkpt lat="39.55532726" lon="-0.48892102"><ele>117.0</ele><time>2022-11-01T15:04:12.0000000+00:00</time></trkpt><trkpt lat="39.55529641" lon="-0.48886947"><ele>116.8</ele><time>2022-11-01T15:04:13.0000000+00:00</time></trkpt><trkpt lat="39.55526548" lon="-0.48881382"><ele>116.8</ele><time>2022-11-01T15:04:14.0000000+00:00</time></trkpt><trkpt lat="39.55523439" lon="-0.48875816"><ele>116.8</ele><time>2022-11-01T15:04:15.0000000+00:00</time></trkpt><trkpt lat="39.55520203" lon="-0.48870536"><ele>116.6</ele><time>2022-11-01T15:04:16.0000000+00:00</time></trkpt><trkpt lat="39.55517035" lon="-0.48865305"><ele>116.6</ele><time>2022-11-01T15:04:17.0000000+00:00</time></trkpt><trkpt lat="39.55513624" lon="-0.48860142"><ele>116.6</ele><time>2022-11-01T15:04:18.0000000+00:00</time></trkpt><trkpt lat="39.55510246" lon="-0.48855012"><ele>116.6</ele><time>2022-11-01T15:04:19.0000000+00:00</time></trkpt><trkpt lat="39.55507077" lon="-0.48849866"><ele>116.6</ele><time>2022-11-01T15:04:20.0000000+00:00</time></trkpt><trkpt lat="39.55503959" lon="-0.48844594"><ele>116.6</ele><time>2022-11-01T15:04:21.0000000+00:00</time></trkpt><trkpt lat="39.5550059" lon="-0.48839355"><ele>116.6</ele><time>2022-11-01T15:04:22.0000000+00:00</time></trkpt><trkpt lat="39.5549717" lon="-0.4883451"><ele>116.8</ele><time>2022-11-01T15:04:23.0000000+00:00</time></trkpt><trkpt lat="39.55493281" lon="-0.48829758"><ele>117.0</ele><time>2022-11-01T15:04:24.0000000+00:00</time></trkpt><trkpt lat="39.55489417" lon="-0.48825064"><ele>117.0</ele><time>2022-11-01T15:04:25.0000000+00:00</time></trkpt><trkpt lat="39.55485913" lon="-0.48820026"><ele>117.0</ele><time>2022-11-01T15:04:26.0000000+00:00</time></trkpt><trkpt lat="39.55482208" lon="-0.4881462"><ele>117.2</ele><time>2022-11-01T15:04:27.0000000+00:00</time></trkpt><trkpt lat="39.5547842" lon="-0.4880949"><ele>117.2</ele><time>2022-11-01T15:04:28.0000000+00:00</time></trkpt><trkpt lat="39.55474245" lon="-0.48804838"><ele>117.2</ele><time>2022-11-01T15:04:29.0000000+00:00</time></trkpt><trkpt lat="39.55470147" lon="-0.48800304"><ele>117.0</ele><time>2022-11-01T15:04:30.0000000+00:00</time></trkpt><trkpt lat="39.55465847" lon="-0.48795425"><ele>117.0</ele><time>2022-11-01T15:04:31.0000000+00:00</time></trkpt><trkpt lat="39.55461681" lon="-0.48791067"><ele>117.0</ele><time>2022-11-01T15:04:32.0000000+00:00</time></trkpt><trkpt lat="39.55457691" lon="-0.48786608"><ele>117.0</ele><time>2022-11-01T15:04:33.0000000+00:00</time></trkpt><trkpt lat="39.55453542" lon="-0.48781897"><ele>117.0</ele><time>2022-11-01T15:04:34.0000000+00:00</time></trkpt><trkpt lat="39.55449292" lon="-0.48777111"><ele>117.0</ele><time>2022-11-01T15:04:35.0000000+00:00</time></trkpt><trkpt lat="39.5544485" lon="-0.48772342"><ele>117.0</ele><time>2022-11-01T15:04:36.0000000+00:00</time></trkpt><trkpt lat="39.55440525" lon="-0.48767539"><ele>117.0</ele><time>2022-11-01T15:04:37.0000000+00:00</time></trkpt><trkpt lat="39.55436275" lon="-0.48762795"><ele>117.2</ele><time>2022-11-01T15:04:38.0000000+00:00</time></trkpt><trkpt lat="39.5543226" lon="-0.48757942"><ele>117.2</ele><time>2022-11-01T15:04:39.0000000+00:00</time></trkpt><trkpt lat="39.55428413" lon="-0.48753055"><ele>117.2</ele><time>2022-11-01T15:04:40.0000000+00:00</time></trkpt><trkpt lat="39.55424449" lon="-0.48748579"><ele>117.2</ele><time>2022-11-01T15:04:41.0000000+00:00</time></trkpt><trkpt lat="39.55420484" lon="-0.48744086"><ele>117.0</ele><time>2022-11-01T15:04:42.0000000+00:00</time></trkpt><trkpt lat="39.55416377" lon="-0.48739225"><ele>117.0</ele><time>2022-11-01T15:04:43.0000000+00:00</time></trkpt><trkpt lat="39.55412395" lon="-0.48734581"><ele>117.0</ele><time>2022-11-01T15:04:44.0000000+00:00</time></trkpt><trkpt lat="39.55408297" lon="-0.48730055"><ele>117.0</ele><time>2022-11-01T15:04:45.0000000+00:00</time></trkpt><trkpt lat="39.55404374" lon="-0.48725663"><ele>117.0</ele><time>2022-11-01T15:04:46.0000000+00:00</time></trkpt><trkpt lat="39.55400443" lon="-0.48721137"><ele>117.0</ele><time>2022-11-01T15:04:47.0000000+00:00</time></trkpt><trkpt lat="39.5539621" lon="-0.48716552"><ele>117.0</ele><time>2022-11-01T15:04:48.0000000+00:00</time></trkpt><trkpt lat="39.55391985" lon="-0.48711791"><ele>117.0</ele><time>2022-11-01T15:04:49.0000000+00:00</time></trkpt><trkpt lat="39.55388121" lon="-0.48707055"><ele>117.0</ele><time>2022-11-01T15:04:50.0000000+00:00</time></trkpt><trkpt lat="39.55384492" lon="-0.48702126"><ele>117.0</ele><time>2022-11-01T15:04:51.0000000+00:00</time></trkpt><trkpt lat="39.55381081" lon="-0.48697114"><ele>117.0</ele><time>2022-11-01T15:04:52.0000000+00:00</time></trkpt><trkpt lat="39.55377862" lon="-0.48691984"><ele>117.0</ele><time>2022-11-01T15:04:53.0000000+00:00</time></trkpt><trkpt lat="39.55374694" lon="-0.48686821"><ele>117.0</ele><time>2022-11-01T15:04:54.0000000+00:00</time></trkpt><trkpt lat="39.55371198" lon="-0.48681934"><ele>117.0</ele><time>2022-11-01T15:04:55.0000000+00:00</time></trkpt><trkpt lat="39.55367602" lon="-0.48677215"><ele>117.2</ele><time>2022-11-01T15:04:56.0000000+00:00</time></trkpt><trkpt lat="39.55363487" lon="-0.48672924"><ele>117.4</ele><time>2022-11-01T15:04:57.0000000+00:00</time></trkpt><trkpt lat="39.55358961" lon="-0.48669152"><ele>117.4</ele><time>2022-11-01T15:04:58.0000000+00:00</time></trkpt><trkpt lat="39.55354183" lon="-0.48665833"><ele>117.4</ele><time>2022-11-01T15:04:59.0000000+00:00</time></trkpt><trkpt lat="39.55349246" lon="-0.48662983"><ele>117.6</ele><time>2022-11-01T15:05:00.0000000+00:00</time></trkpt><trkpt lat="39.55344309" lon="-0.48660762"><ele>117.6</ele><time>2022-11-01T15:05:01.0000000+00:00</time></trkpt><trkpt lat="39.55339087" lon="-0.48659102"><ele>117.6</ele><time>2022-11-01T15:05:02.0000000+00:00</time></trkpt><trkpt lat="39.55333857" lon="-0.48657677"><ele>117.6</ele><time>2022-11-01T15:05:03.0000000+00:00</time></trkpt><trkpt lat="39.55328601" lon="-0.48656235"><ele>117.6</ele><time>2022-11-01T15:05:04.0000000+00:00</time></trkpt><trkpt lat="39.55323396" lon="-0.48655322"><ele>117.6</ele><time>2022-11-01T15:05:05.0000000+00:00</time></trkpt><trkpt lat="39.55318091" lon="-0.48654417"><ele>117.6</ele><time>2022-11-01T15:05:06.0000000+00:00</time></trkpt><trkpt lat="39.5531281" lon="-0.48653243"><ele>117.4</ele><time>2022-11-01T15:05:07.0000000+00:00</time></trkpt><trkpt lat="39.55307689" lon="-0.48652028"><ele>117.4</ele><time>2022-11-01T15:05:08.0000000+00:00</time></trkpt><trkpt lat="39.55302542" lon="-0.4865067"><ele>117.4</ele><time>2022-11-01T15:05:09.0000000+00:00</time></trkpt><trkpt lat="39.55297471" lon="-0.48649731"><ele>117.4</ele><time>2022-11-01T15:05:10.0000000+00:00</time></trkpt><trkpt lat="39.55292308" lon="-0.48648625"><ele>117.6</ele><time>2022-11-01T15:05:11.0000000+00:00</time></trkpt><trkpt lat="39.55286885" lon="-0.48647284"><ele>117.6</ele><time>2022-11-01T15:05:12.0000000+00:00</time></trkpt><trkpt lat="39.55282124" lon="-0.48645959"><ele>117.8</ele><time>2022-11-01T15:05:13.0000000+00:00</time></trkpt><trkpt lat="39.55277145" lon="-0.48644895"><ele>117.8</ele><time>2022-11-01T15:05:14.0000000+00:00</time></trkpt><trkpt lat="39.55272602" lon="-0.48644635"><ele>118.0</ele><time>2022-11-01T15:05:15.0000000+00:00</time></trkpt><trkpt lat="39.5526821" lon="-0.4864456"><ele>118.0</ele><time>2022-11-01T15:05:16.0000000+00:00</time></trkpt><trkpt lat="39.55264136" lon="-0.48644811"><ele>118.0</ele><time>2022-11-01T15:05:17.0000000+00:00</time></trkpt><trkpt lat="39.55260172" lon="-0.48644861"><ele>118.2</ele><time>2022-11-01T15:05:18.0000000+00:00</time></trkpt><trkpt lat="39.55256517" lon="-0.48644962"><ele>118.2</ele><time>2022-11-01T15:05:19.0000000+00:00</time></trkpt><trkpt lat="39.55253768" lon="-0.48645272"><ele>118.2</ele><time>2022-11-01T15:05:20.0000000+00:00</time></trkpt><trkpt lat="39.5525096" lon="-0.48645406"><ele>118.2</ele><time>2022-11-01T15:05:21.0000000+00:00</time></trkpt><trkpt lat="39.55248345" lon="-0.48645389"><ele>118.0</ele><time>2022-11-01T15:05:22.0000000+00:00</time></trkpt><trkpt lat="39.55246233" lon="-0.48645222"><ele>118.2</ele><time>2022-11-01T15:05:23.0000000+00:00</time></trkpt><trkpt lat="39.55244254" lon="-0.48645113"><ele>118.2</ele><time>2022-11-01T15:05:24.0000000+00:00</time></trkpt><trkpt lat="39.55242226" lon="-0.48645054"><ele>118.4</ele><time>2022-11-01T15:05:25.0000000+00:00</time></trkpt><trkpt lat="39.55240147" lon="-0.48644702"><ele>118.4</ele><time>2022-11-01T15:05:26.0000000+00:00</time></trkpt><trkpt lat="39.55238069" lon="-0.48644241"><ele>118.6</ele><time>2022-11-01T15:05:27.0000000+00:00</time></trkpt><trkpt lat="39.55236275" lon="-0.48643353"><ele>118.6</ele><time>2022-11-01T15:05:28.0000000+00:00</time></trkpt><trkpt lat="39.55234867" lon="-0.48642389"><ele>118.8</ele><time>2022-11-01T15:05:29.0000000+00:00</time></trkpt><trkpt lat="39.55233542" lon="-0.48641634"><ele>118.8</ele><time>2022-11-01T15:05:30.0000000+00:00</time></trkpt><trkpt lat="39.55231841" lon="-0.48640427"><ele>119.0</ele><time>2022-11-01T15:05:31.0000000+00:00</time></trkpt><trkpt lat="39.55229737" lon="-0.48638675"><ele>119.0</ele><time>2022-11-01T15:05:32.0000000+00:00</time></trkpt><trkpt lat="39.55227734" lon="-0.48637686"><ele>119.0</ele><time>2022-11-01T15:05:33.0000000+00:00</time></trkpt><trkpt lat="39.55225286" lon="-0.48637167"><ele>119.2</ele><time>2022-11-01T15:05:34.0000000+00:00</time></trkpt><trkpt lat="39.55222311" lon="-0.48637318"><ele>119.2</ele><time>2022-11-01T15:05:35.0000000+00:00</time></trkpt><trkpt lat="39.55219503" lon="-0.4863881"><ele>119.2</ele><time>2022-11-01T15:05:36.0000000+00:00</time></trkpt><trkpt lat="39.55217005" lon="-0.48640586"><ele>119.2</ele><time>2022-11-01T15:05:37.0000000+00:00</time></trkpt><trkpt lat="39.55214817" lon="-0.48642498"><ele>119.0</ele><time>2022-11-01T15:05:38.0000000+00:00</time></trkpt><trkpt lat="39.55212621" lon="-0.48643822"><ele>119.0</ele><time>2022-11-01T15:05:39.0000000+00:00</time></trkpt><trkpt lat="39.55210945" lon="-0.4864399"><ele>118.8</ele><time>2022-11-01T15:05:40.0000000+00:00</time></trkpt><trkpt lat="39.55209495" lon="-0.48643084"><ele>118.8</ele><time>2022-11-01T15:05:41.0000000+00:00</time></trkpt><trkpt lat="39.55209176" lon="-0.48641056"><ele>119.0</ele><time>2022-11-01T15:05:42.0000000+00:00</time></trkpt><trkpt lat="39.55210065" lon="-0.48638307"><ele>119.0</ele><time>2022-11-01T15:05:43.0000000+00:00</time></trkpt><trkpt lat="39.55211548" lon="-0.4863482"><ele>119.0</ele><time>2022-11-01T15:05:44.0000000+00:00</time></trkpt><trkpt lat="39.55213023" lon="-0.48630872"><ele>119.0</ele><time>2022-11-01T15:05:45.0000000+00:00</time></trkpt><trkpt lat="39.55213979" lon="-0.48625977"><ele>119.0</ele><time>2022-11-01T15:05:46.0000000+00:00</time></trkpt><trkpt lat="39.55213786" lon="-0.48620755"><ele>119.0</ele><time>2022-11-01T15:05:47.0000000+00:00</time></trkpt><trkpt lat="39.55212772" lon="-0.48615592"><ele>119.2</ele><time>2022-11-01T15:05:48.0000000+00:00</time></trkpt><trkpt lat="39.55211003" lon="-0.48610697"><ele>119.2</ele><time>2022-11-01T15:05:49.0000000+00:00</time></trkpt><trkpt lat="39.55208866" lon="-0.48606196"><ele>119.2</ele><time>2022-11-01T15:05:50.0000000+00:00</time></trkpt><trkpt lat="39.55206234" lon="-0.48601342"><ele>119.0</ele><time>2022-11-01T15:05:51.0000000+00:00</time></trkpt><trkpt lat="39.55203502" lon="-0.48597788"><ele>118.8</ele><time>2022-11-01T15:05:52.0000000+00:00</time></trkpt><trkpt lat="39.55201012" lon="-0.48594872"><ele>118.6</ele><time>2022-11-01T15:05:53.0000000+00:00</time></trkpt><trkpt lat="39.5519952" lon="-0.48591871"><ele>118.6</ele><time>2022-11-01T15:05:54.0000000+00:00</time></trkpt><trkpt lat="39.55198816" lon="-0.48588669"><ele>118.4</ele><time>2022-11-01T15:05:55.0000000+00:00</time></trkpt><trkpt lat="39.55198741" lon="-0.48585383"><ele>118.4</ele><time>2022-11-01T15:05:56.0000000+00:00</time></trkpt><trkpt lat="39.55199026" lon="-0.48582005"><ele>118.4</ele><time>2022-11-01T15:05:57.0000000+00:00</time></trkpt><trkpt lat="39.55199436" lon="-0.48578871"><ele>118.2</ele><time>2022-11-01T15:05:58.0000000+00:00</time></trkpt><trkpt lat="39.55200031" lon="-0.48575501"><ele>118.2</ele><time>2022-11-01T15:05:59.0000000+00:00</time></trkpt><trkpt lat="39.55201188" lon="-0.48572031"><ele>118.4</ele><time>2022-11-01T15:06:00.0000000+00:00</time></trkpt><trkpt lat="39.5520258" lon="-0.48568628"><ele>118.4</ele><time>2022-11-01T15:06:01.0000000+00:00</time></trkpt><trkpt lat="39.55204633" lon="-0.48565493"><ele>118.4</ele><time>2022-11-01T15:06:02.0000000+00:00</time></trkpt><trkpt lat="39.55207148" lon="-0.48562844"><ele>118.4</ele><time>2022-11-01T15:06:03.0000000+00:00</time></trkpt><trkpt lat="39.55209713" lon="-0.48560321"><ele>118.4</ele><time>2022-11-01T15:06:04.0000000+00:00</time></trkpt><trkpt lat="39.55212604" lon="-0.48557673"><ele>118.4</ele><time>2022-11-01T15:06:05.0000000+00:00</time></trkpt><trkpt lat="39.55215412" lon="-0.48555032"><ele>118.6</ele><time>2022-11-01T15:06:06.0000000+00:00</time></trkpt><trkpt lat="39.55218203" lon="-0.48552007"><ele>118.6</ele><time>2022-11-01T15:06:07.0000000+00:00</time></trkpt><trkpt lat="39.55220383" lon="-0.48549509"><ele>118.6</ele><time>2022-11-01T15:06:08.0000000+00:00</time></trkpt><trkpt lat="39.55223576" lon="-0.48546449"><ele>118.8</ele><time>2022-11-01T15:06:09.0000000+00:00</time></trkpt><trkpt lat="39.55226024" lon="-0.48544731"><ele>118.8</ele><time>2022-11-01T15:06:10.0000000+00:00</time></trkpt><trkpt lat="39.55229594" lon="-0.48542376"><ele>118.8</ele><time>2022-11-01T15:06:11.0000000+00:00</time></trkpt><trkpt lat="39.55232721" lon="-0.48540247"><ele>119.0</ele><time>2022-11-01T15:06:12.0000000+00:00</time></trkpt><trkpt lat="39.5523552" lon="-0.48537749"><ele>119.0</ele><time>2022-11-01T15:06:13.0000000+00:00</time></trkpt><trkpt lat="39.5523811" lon="-0.48535201"><ele>119.0</ele><time>2022-11-01T15:06:14.0000000+00:00</time></trkpt><trkpt lat="39.55240566" lon="-0.48532644"><ele>119.0</ele><time>2022-11-01T15:06:15.0000000+00:00</time></trkpt><trkpt lat="39.55243374" lon="-0.48530096"><ele>119.0</ele><time>2022-11-01T15:06:16.0000000+00:00</time></trkpt><trkpt lat="39.55246316" lon="-0.48527749"><ele>119.2</ele><time>2022-11-01T15:06:17.0000000+00:00</time></trkpt><trkpt lat="39.55249141" lon="-0.48525251"><ele>119.2</ele><time>2022-11-01T15:06:18.0000000+00:00</time></trkpt><trkpt lat="39.55251781" lon="-0.48522452"><ele>119.2</ele><time>2022-11-01T15:06:19.0000000+00:00</time></trkpt><trkpt lat="39.55254556" lon="-0.48519719"><ele>119.4</ele><time>2022-11-01T15:06:20.0000000+00:00</time></trkpt><trkpt lat="39.55257556" lon="-0.48516425"><ele>119.4</ele><time>2022-11-01T15:06:21.0000000+00:00</time></trkpt><trkpt lat="39.55260691" lon="-0.48512871"><ele>119.6</ele><time>2022-11-01T15:06:22.0000000+00:00</time></trkpt><trkpt lat="39.55263424" lon="-0.48508513"><ele>119.6</ele><time>2022-11-01T15:06:23.0000000+00:00</time></trkpt><trkpt lat="39.55265645" lon="-0.4850345"><ele>119.6</ele><time>2022-11-01T15:06:24.0000000+00:00</time></trkpt><trkpt lat="39.55267372" lon="-0.48497809"><ele>119.4</ele><time>2022-11-01T15:06:25.0000000+00:00</time></trkpt><trkpt lat="39.55268763" lon="-0.48492084"><ele>119.2</ele><time>2022-11-01T15:06:26.0000000+00:00</time></trkpt><trkpt lat="39.55270138" lon="-0.48486393"><ele>118.8</ele><time>2022-11-01T15:06:27.0000000+00:00</time></trkpt><trkpt lat="39.5527173" lon="-0.48480148"><ele>118.4</ele><time>2022-11-01T15:06:28.0000000+00:00</time></trkpt><trkpt lat="39.55273222" lon="-0.4847382"><ele>118.2</ele><time>2022-11-01T15:06:29.0000000+00:00</time></trkpt><trkpt lat="39.55274253" lon="-0.48466964"><ele>118.2</ele><time>2022-11-01T15:06:30.0000000+00:00</time></trkpt><trkpt lat="39.55275469" lon="-0.48460401"><ele>118.2</ele><time>2022-11-01T15:06:31.0000000+00:00</time></trkpt><trkpt lat="39.55276852" lon="-0.4845362"><ele>118.0</ele><time>2022-11-01T15:06:32.0000000+00:00</time></trkpt><trkpt lat="39.55278385" lon="-0.48447283"><ele>118.0</ele><time>2022-11-01T15:06:33.0000000+00:00</time></trkpt><trkpt lat="39.5527945" lon="-0.48440812"><ele>118.0</ele><time>2022-11-01T15:06:34.0000000+00:00</time></trkpt><trkpt lat="39.55279894" lon="-0.48435406"><ele>117.8</ele><time>2022-11-01T15:06:35.0000000+00:00</time></trkpt><trkpt lat="39.55280347" lon="-0.48427678"><ele>117.8</ele><time>2022-11-01T15:06:36.0000000+00:00</time></trkpt><trkpt lat="39.55280975" lon="-0.48421023"><ele>117.6</ele><time>2022-11-01T15:06:37.0000000+00:00</time></trkpt><trkpt lat="39.5528147" lon="-0.48414434"><ele>117.6</ele><time>2022-11-01T15:06:38.0000000+00:00</time></trkpt><trkpt lat="39.55281378" lon="-0.48407771"><ele>117.4</ele><time>2022-11-01T15:06:39.0000000+00:00</time></trkpt><trkpt lat="39.55280841" lon="-0.4840104"><ele>117.4</ele><time>2022-11-01T15:06:40.0000000+00:00</time></trkpt><trkpt lat="39.55280095" lon="-0.48394402"><ele>117.2</ele><time>2022-11-01T15:06:41.0000000+00:00</time></trkpt><trkpt lat="39.55279182" lon="-0.48387989"><ele>117.0</ele><time>2022-11-01T15:06:42.0000000+00:00</time></trkpt><trkpt lat="39.55277958" lon="-0.4838141"><ele>117.0</ele><time>2022-11-01T15:06:43.0000000+00:00</time></trkpt><trkpt lat="39.5527655" lon="-0.48374972"><ele>116.8</ele><time>2022-11-01T15:06:44.0000000+00:00</time></trkpt><trkpt lat="39.55274924" lon="-0.48368812"><ele>116.8</ele><time>2022-11-01T15:06:45.0000000+00:00</time></trkpt><trkpt lat="39.5527277" lon="-0.48362852"><ele>116.6</ele><time>2022-11-01T15:06:46.0000000+00:00</time></trkpt><trkpt lat="39.55270699" lon="-0.48356968"><ele>116.6</ele><time>2022-11-01T15:06:47.0000000+00:00</time></trkpt><trkpt lat="39.55268906" lon="-0.48351168"><ele>116.4</ele><time>2022-11-01T15:06:48.0000000+00:00</time></trkpt><trkpt lat="39.55266969" lon="-0.48345443"><ele>116.4</ele><time>2022-11-01T15:06:49.0000000+00:00</time></trkpt><trkpt lat="39.55264731" lon="-0.48339718"><ele>116.2</ele><time>2022-11-01T15:06:50.0000000+00:00</time></trkpt><trkpt lat="39.55262678" lon="-0.48334035"><ele>116.2</ele><time>2022-11-01T15:06:51.0000000+00:00</time></trkpt><trkpt lat="39.55260649" lon="-0.48328637"><ele>116.2</ele><time>2022-11-01T15:06:52.0000000+00:00</time></trkpt><trkpt lat="39.55258814" lon="-0.48323197"><ele>116.0</ele><time>2022-11-01T15:06:53.0000000+00:00</time></trkpt><trkpt lat="39.55257121" lon="-0.48317774"><ele>116.0</ele><time>2022-11-01T15:06:54.0000000+00:00</time></trkpt><trkpt lat="39.55254857" lon="-0.48312217"><ele>116.2</ele><time>2022-11-01T15:06:55.0000000+00:00</time></trkpt><trkpt lat="39.55252561" lon="-0.48306492"><ele>116.0</ele><time>2022-11-01T15:06:56.0000000+00:00</time></trkpt><trkpt lat="39.55250692" lon="-0.48301036"><ele>116.0</ele><time>2022-11-01T15:06:57.0000000+00:00</time></trkpt><trkpt lat="39.55248772" lon="-0.4829568"><ele>116.0</ele><time>2022-11-01T15:06:58.0000000+00:00</time></trkpt><trkpt lat="39.55247029" lon="-0.48290977"><ele>116.0</ele><time>2022-11-01T15:06:59.0000000+00:00</time></trkpt><trkpt lat="39.55245151" lon="-0.48286275"><ele>116.0</ele><time>2022-11-01T15:07:00.0000000+00:00</time></trkpt><trkpt lat="39.55243173" lon="-0.48281137"><ele>115.8</ele><time>2022-11-01T15:07:01.0000000+00:00</time></trkpt><trkpt lat="39.55241639" lon="-0.4827558"><ele>115.8</ele><time>2022-11-01T15:07:02.0000000+00:00</time></trkpt><trkpt lat="39.5523982" lon="-0.48269972"><ele>115.8</ele><time>2022-11-01T15:07:03.0000000+00:00</time></trkpt><trkpt lat="39.55237993" lon="-0.48264256"><ele>115.8</ele><time>2022-11-01T15:07:04.0000000+00:00</time></trkpt><trkpt lat="39.55236199" lon="-0.48258598"><ele>115.8</ele><time>2022-11-01T15:07:05.0000000+00:00</time></trkpt><trkpt lat="39.55234573" lon="-0.48253066"><ele>115.6</ele><time>2022-11-01T15:07:06.0000000+00:00</time></trkpt><trkpt lat="39.55232629" lon="-0.48247266"><ele>115.8</ele><time>2022-11-01T15:07:07.0000000+00:00</time></trkpt><trkpt lat="39.55231103" lon="-0.4824108"><ele>115.8</ele><time>2022-11-01T15:07:08.0000000+00:00</time></trkpt><trkpt lat="39.5522962" lon="-0.4823528"><ele>115.8</ele><time>2022-11-01T15:07:09.0000000+00:00</time></trkpt><trkpt lat="39.55228052" lon="-0.48229228"><ele>115.8</ele><time>2022-11-01T15:07:10.0000000+00:00</time></trkpt><trkpt lat="39.55226443" lon="-0.48223201"><ele>115.8</ele><time>2022-11-01T15:07:11.0000000+00:00</time></trkpt><trkpt lat="39.55224892" lon="-0.48217502"><ele>116.0</ele><time>2022-11-01T15:07:12.0000000+00:00</time></trkpt><trkpt lat="39.55223585" lon="-0.48211877"><ele>116.0</ele><time>2022-11-01T15:07:13.0000000+00:00</time></trkpt><trkpt lat="39.5522216" lon="-0.48206069"><ele>116.0</ele><time>2022-11-01T15:07:14.0000000+00:00</time></trkpt><trkpt lat="39.55220785" lon="-0.48200419"><ele>116.2</ele><time>2022-11-01T15:07:15.0000000+00:00</time></trkpt><trkpt lat="39.5521941" lon="-0.4819482"><ele>116.2</ele><time>2022-11-01T15:07:16.0000000+00:00</time></trkpt><trkpt lat="39.55218329" lon="-0.48189657"><ele>116.2</ele><time>2022-11-01T15:07:17.0000000+00:00</time></trkpt><trkpt lat="39.55217156" lon="-0.48184385"><ele>116.2</ele><time>2022-11-01T15:07:18.0000000+00:00</time></trkpt><trkpt lat="39.55215848" lon="-0.48179406"><ele>116.2</ele><time>2022-11-01T15:07:19.0000000+00:00</time></trkpt><trkpt lat="39.55214675" lon="-0.48174393"><ele>116.2</ele><time>2022-11-01T15:07:20.0000000+00:00</time></trkpt><trkpt lat="39.55213442" lon="-0.48169507"><ele>116.4</ele><time>2022-11-01T15:07:21.0000000+00:00</time></trkpt><trkpt lat="39.55212152" lon="-0.48164553"><ele>116.4</ele><time>2022-11-01T15:07:22.0000000+00:00</time></trkpt><trkpt lat="39.55211087" lon="-0.48159809"><ele>116.4</ele><time>2022-11-01T15:07:23.0000000+00:00</time></trkpt><trkpt lat="39.55210207" lon="-0.48155082"><ele>116.6</ele><time>2022-11-01T15:07:24.0000000+00:00</time></trkpt><trkpt lat="39.55209117" lon="-0.48150245"><ele>116.6</ele><time>2022-11-01T15:07:25.0000000+00:00</time></trkpt><trkpt lat="39.55208254" lon="-0.48145576"><ele>116.6</ele><time>2022-11-01T15:07:26.0000000+00:00</time></trkpt><trkpt lat="39.55207324" lon="-0.48140774"><ele>116.6</ele><time>2022-11-01T15:07:27.0000000+00:00</time></trkpt><trkpt lat="39.55205924" lon="-0.48135912"><ele>116.8</ele><time>2022-11-01T15:07:28.0000000+00:00</time></trkpt><trkpt lat="39.5520444" lon="-0.48131394"><ele>116.8</ele><time>2022-11-01T15:07:29.0000000+00:00</time></trkpt><trkpt lat="39.55203158" lon="-0.48127036"><ele>117.0</ele><time>2022-11-01T15:07:30.0000000+00:00</time></trkpt><trkpt lat="39.55201817" lon="-0.48122266"><ele>117.0</ele><time>2022-11-01T15:07:31.0000000+00:00</time></trkpt><trkpt lat="39.552004" lon="-0.48117556"><ele>117.2</ele><time>2022-11-01T15:07:32.0000000+00:00</time></trkpt><trkpt lat="39.55199093" lon="-0.48112795"><ele>117.2</ele><time>2022-11-01T15:07:33.0000000+00:00</time></trkpt><trkpt lat="39.55197752" lon="-0.48107942"><ele>117.4</ele><time>2022-11-01T15:07:34.0000000+00:00</time></trkpt><trkpt lat="39.5519641" lon="-0.48103214"><ele>117.4</ele><time>2022-11-01T15:07:35.0000000+00:00</time></trkpt><trkpt lat="39.55195162" lon="-0.48098479"><ele>117.4</ele><time>2022-11-01T15:07:36.0000000+00:00</time></trkpt><trkpt lat="39.55193963" lon="-0.48093894"><ele>117.6</ele><time>2022-11-01T15:07:37.0000000+00:00</time></trkpt><trkpt lat="39.55192563" lon="-0.4808904"><ele>117.6</ele><time>2022-11-01T15:07:38.0000000+00:00</time></trkpt><trkpt lat="39.5519082" lon="-0.48083919"><ele>117.8</ele><time>2022-11-01T15:07:39.0000000+00:00</time></trkpt><trkpt lat="39.55189386" lon="-0.4807889"><ele>118.0</ele><time>2022-11-01T15:07:40.0000000+00:00</time></trkpt><trkpt lat="39.55187844" lon="-0.48074096"><ele>118.0</ele><time>2022-11-01T15:07:41.0000000+00:00</time></trkpt><trkpt lat="39.55186386" lon="-0.48069502"><ele>118.0</ele><time>2022-11-01T15:07:42.0000000+00:00</time></trkpt><trkpt lat="39.55184952" lon="-0.48064641"><ele>118.0</ele><time>2022-11-01T15:07:43.0000000+00:00</time></trkpt><trkpt lat="39.55183242" lon="-0.48059754"><ele>118.0</ele><time>2022-11-01T15:07:44.0000000+00:00</time></trkpt><trkpt lat="39.55181499" lon="-0.48054641"><ele>118.0</ele><time>2022-11-01T15:07:45.0000000+00:00</time></trkpt><trkpt lat="39.55179705" lon="-0.48049344"><ele>118.2</ele><time>2022-11-01T15:07:46.0000000+00:00</time></trkpt><trkpt lat="39.55177962" lon="-0.4804408"><ele>118.2</ele><time>2022-11-01T15:07:47.0000000+00:00</time></trkpt><trkpt lat="39.55176218" lon="-0.48038615"><ele>118.2</ele><time>2022-11-01T15:07:48.0000000+00:00</time></trkpt><trkpt lat="39.55174483" lon="-0.48033351"><ele>118.2</ele><time>2022-11-01T15:07:49.0000000+00:00</time></trkpt><trkpt lat="39.55172665" lon="-0.48028079"><ele>118.4</ele><time>2022-11-01T15:07:50.0000000+00:00</time></trkpt><trkpt lat="39.55171072" lon="-0.48022312"><ele>118.4</ele><time>2022-11-01T15:07:51.0000000+00:00</time></trkpt><trkpt lat="39.55169329" lon="-0.48016629"><ele>118.6</ele><time>2022-11-01T15:07:52.0000000+00:00</time></trkpt><trkpt lat="39.55167568" lon="-0.48011441"><ele>118.6</ele><time>2022-11-01T15:07:53.0000000+00:00</time></trkpt><trkpt lat="39.55166076" lon="-0.48006412"><ele>118.6</ele><time>2022-11-01T15:07:54.0000000+00:00</time></trkpt><trkpt lat="39.55164685" lon="-0.48001693"><ele>119.0</ele><time>2022-11-01T15:07:55.0000000+00:00</time></trkpt><trkpt lat="39.55163109" lon="-0.47997401"><ele>119.0</ele><time>2022-11-01T15:07:56.0000000+00:00</time></trkpt><trkpt lat="39.55161483" lon="-0.47993772"><ele>119.2</ele><time>2022-11-01T15:07:57.0000000+00:00</time></trkpt><trkpt lat="39.55160025" lon="-0.47990578"><ele>119.2</ele><time>2022-11-01T15:07:58.0000000+00:00</time></trkpt><trkpt lat="39.55158449" lon="-0.47986832"><ele>119.2</ele><time>2022-11-01T15:07:59.0000000+00:00</time></trkpt><trkpt lat="39.55157116" lon="-0.47982825"><ele>119.2</ele><time>2022-11-01T15:08:00.0000000+00:00</time></trkpt><trkpt lat="39.551558" lon="-0.47978441"><ele>119.4</ele><time>2022-11-01T15:08:01.0000000+00:00</time></trkpt><trkpt lat="39.55154752" lon="-0.4797363"><ele>119.4</ele><time>2022-11-01T15:08:02.0000000+00:00</time></trkpt><trkpt lat="39.55153453" lon="-0.47968525"><ele>119.8</ele><time>2022-11-01T15:08:03.0000000+00:00</time></trkpt><trkpt lat="39.55151869" lon="-0.47963681"><ele>120.0</ele><time>2022-11-01T15:08:04.0000000+00:00</time></trkpt><trkpt lat="39.55150302" lon="-0.47958945"><ele>120.0</ele><time>2022-11-01T15:08:05.0000000+00:00</time></trkpt><trkpt lat="39.55148625" lon="-0.47954251"><ele>120.4</ele><time>2022-11-01T15:08:06.0000000+00:00</time></trkpt><trkpt lat="39.55147326" lon="-0.47949633"><ele>120.6</ele><time>2022-11-01T15:08:07.0000000+00:00</time></trkpt><trkpt lat="39.55145784" lon="-0.47945073"><ele>120.8</ele><time>2022-11-01T15:08:08.0000000+00:00</time></trkpt><trkpt lat="39.55144082" lon="-0.47940672"><ele>120.8</ele><time>2022-11-01T15:08:09.0000000+00:00</time></trkpt><trkpt lat="39.55142381" lon="-0.47936641"><ele>120.8</ele><time>2022-11-01T15:08:10.0000000+00:00</time></trkpt><trkpt lat="39.55140302" lon="-0.4793312"><ele>121.0</ele><time>2022-11-01T15:08:11.0000000+00:00</time></trkpt><trkpt lat="39.5513793" lon="-0.4793022"><ele>121.0</ele><time>2022-11-01T15:08:12.0000000+00:00</time></trkpt><trkpt lat="39.55135365" lon="-0.47927085"><ele>121.0</ele><time>2022-11-01T15:08:13.0000000+00:00</time></trkpt><trkpt lat="39.55132867" lon="-0.47923389"><ele>121.2</ele><time>2022-11-01T15:08:14.0000000+00:00</time></trkpt><trkpt lat="39.55130143" lon="-0.47919366"><ele>121.2</ele><time>2022-11-01T15:08:15.0000000+00:00</time></trkpt><trkpt lat="39.55127888" lon="-0.4791499"><ele>121.2</ele><time>2022-11-01T15:08:16.0000000+00:00</time></trkpt><trkpt lat="39.55125298" lon="-0.4790924"><ele>121.0</ele><time>2022-11-01T15:08:17.0000000+00:00</time></trkpt><trkpt lat="39.55123731" lon="-0.47905644"><ele>121.2</ele><time>2022-11-01T15:08:18.0000000+00:00</time></trkpt><trkpt lat="39.55121459" lon="-0.47901076"><ele>121.2</ele><time>2022-11-01T15:08:19.0000000+00:00</time></trkpt><trkpt lat="39.55119062" lon="-0.47896508"><ele>121.2</ele><time>2022-11-01T15:08:20.0000000+00:00</time></trkpt><trkpt lat="39.55116657" lon="-0.47891529"><ele>121.2</ele><time>2022-11-01T15:08:21.0000000+00:00</time></trkpt><trkpt lat="39.55114008" lon="-0.47886794"><ele>121.0</ele><time>2022-11-01T15:08:22.0000000+00:00</time></trkpt><trkpt lat="39.55111091" lon="-0.47882125"><ele>121.0</ele><time>2022-11-01T15:08:23.0000000+00:00</time></trkpt><trkpt lat="39.55107789" lon="-0.47877498"><ele>121.2</ele><time>2022-11-01T15:08:24.0000000+00:00</time></trkpt><trkpt lat="39.55104344" lon="-0.47873165"><ele>121.2</ele><time>2022-11-01T15:08:25.0000000+00:00</time></trkpt><trkpt lat="39.55100815" lon="-0.47868504"><ele>121.2</ele><time>2022-11-01T15:08:26.0000000+00:00</time></trkpt><trkpt lat="39.5509706" lon="-0.47864053"><ele>121.4</ele><time>2022-11-01T15:08:27.0000000+00:00</time></trkpt><trkpt lat="39.5509343" lon="-0.47859804"><ele>121.4</ele><time>2022-11-01T15:08:28.0000000+00:00</time></trkpt><trkpt lat="39.55089726" lon="-0.4785573"><ele>121.4</ele><time>2022-11-01T15:08:29.0000000+00:00</time></trkpt><trkpt lat="39.5508582" lon="-0.47851506"><ele>121.2</ele><time>2022-11-01T15:08:30.0000000+00:00</time></trkpt><trkpt lat="39.55081738" lon="-0.47847642"><ele>121.2</ele><time>2022-11-01T15:08:31.0000000+00:00</time></trkpt><trkpt lat="39.55077656" lon="-0.47843711"><ele>121.2</ele><time>2022-11-01T15:08:32.0000000+00:00</time></trkpt><trkpt lat="39.55073532" lon="-0.47840358"><ele>121.2</ele><time>2022-11-01T15:08:33.0000000+00:00</time></trkpt><trkpt lat="39.55069458" lon="-0.47836904"><ele>121.0</ele><time>2022-11-01T15:08:34.0000000+00:00</time></trkpt><trkpt lat="39.55065209" lon="-0.47833443"><ele>121.0</ele><time>2022-11-01T15:08:35.0000000+00:00</time></trkpt><trkpt lat="39.55062116" lon="-0.47830886"><ele>121.0</ele><time>2022-11-01T15:08:36.0000000+00:00</time></trkpt><trkpt lat="39.55058369" lon="-0.47827458"><ele>121.0</ele><time>2022-11-01T15:08:37.0000000+00:00</time></trkpt><trkpt lat="39.55054748" lon="-0.47823963"><ele>120.8</ele><time>2022-11-01T15:08:38.0000000+00:00</time></trkpt><trkpt lat="39.55050859" lon="-0.47820283"><ele>121.0</ele><time>2022-11-01T15:08:39.0000000+00:00</time></trkpt><trkpt lat="39.55047087" lon="-0.4781693"><ele>121.0</ele><time>2022-11-01T15:08:40.0000000+00:00</time></trkpt><trkpt lat="39.55043474" lon="-0.47813812"><ele>121.0</ele><time>2022-11-01T15:08:41.0000000+00:00</time></trkpt><trkpt lat="39.55038219" lon="-0.47809856"><ele>121.0</ele><time>2022-11-01T15:08:42.0000000+00:00</time></trkpt><trkpt lat="39.55035461" lon="-0.47807316"><ele>121.0</ele><time>2022-11-01T15:08:43.0000000+00:00</time></trkpt><trkpt lat="39.55032159" lon="-0.47804584"><ele>121.0</ele><time>2022-11-01T15:08:44.0000000+00:00</time></trkpt><trkpt lat="39.55028705" lon="-0.478016"><ele>120.8</ele><time>2022-11-01T15:08:45.0000000+00:00</time></trkpt><trkpt lat="39.55025537" lon="-0.47798649"><ele>120.6</ele><time>2022-11-01T15:08:46.0000000+00:00</time></trkpt><trkpt lat="39.55022452" lon="-0.47795699"><ele>120.6</ele><time>2022-11-01T15:08:47.0000000+00:00</time></trkpt><trkpt lat="39.55019116" lon="-0.47792472"><ele>120.6</ele><time>2022-11-01T15:08:48.0000000+00:00</time></trkpt><trkpt lat="39.5501604" lon="-0.47789304"><ele>120.4</ele><time>2022-11-01T15:08:49.0000000+00:00</time></trkpt><trkpt lat="39.55012679" lon="-0.47786403"><ele>120.4</ele><time>2022-11-01T15:08:50.0000000+00:00</time></trkpt><trkpt lat="39.55009569" lon="-0.4778383"><ele>120.4</ele><time>2022-11-01T15:08:51.0000000+00:00</time></trkpt><trkpt lat="39.55006694" lon="-0.47781291"><ele>120.4</ele><time>2022-11-01T15:08:52.0000000+00:00</time></trkpt><trkpt lat="39.55003702" lon="-0.47778307"><ele>120.4</ele><time>2022-11-01T15:08:53.0000000+00:00</time></trkpt><trkpt lat="39.55001179" lon="-0.47775901"><ele>120.4</ele><time>2022-11-01T15:08:54.0000000+00:00</time></trkpt><trkpt lat="39.54998589" lon="-0.47773529"><ele>120.4</ele><time>2022-11-01T15:08:55.0000000+00:00</time></trkpt><trkpt lat="39.54995731" lon="-0.47771123"><ele>120.4</ele><time>2022-11-01T15:08:56.0000000+00:00</time></trkpt><trkpt lat="39.54993166" lon="-0.4776855"><ele>120.4</ele><time>2022-11-01T15:08:57.0000000+00:00</time></trkpt><trkpt lat="39.54990442" lon="-0.47765818"><ele>120.6</ele><time>2022-11-01T15:08:58.0000000+00:00</time></trkpt><trkpt lat="39.54988087" lon="-0.4776363"><ele>120.6</ele><time>2022-11-01T15:08:59.0000000+00:00</time></trkpt><trkpt lat="39.54985614" lon="-0.47761224"><ele>120.8</ele><time>2022-11-01T15:09:00.0000000+00:00</time></trkpt><trkpt lat="39.54983099" lon="-0.47758869"><ele>120.8</ele><time>2022-11-01T15:09:01.0000000+00:00</time></trkpt><trkpt lat="39.54980644" lon="-0.47756354"><ele>120.8</ele><time>2022-11-01T15:09:02.0000000+00:00</time></trkpt><trkpt lat="39.54978188" lon="-0.47754209"><ele>120.8</ele><time>2022-11-01T15:09:03.0000000+00:00</time></trkpt><trkpt lat="39.54975782" lon="-0.4775213"><ele>120.8</ele><time>2022-11-01T15:09:04.0000000+00:00</time></trkpt><trkpt lat="39.54973762" lon="-0.47750386"><ele>120.8</ele><time>2022-11-01T15:09:05.0000000+00:00</time></trkpt><trkpt lat="39.54971767" lon="-0.47748936"><ele>120.8</ele><time>2022-11-01T15:09:06.0000000+00:00</time></trkpt><trkpt lat="39.54970066" lon="-0.47747403"><ele>120.8</ele><time>2022-11-01T15:09:07.0000000+00:00</time></trkpt><trkpt lat="39.54968121" lon="-0.47745684"><ele>120.8</ele><time>2022-11-01T15:09:08.0000000+00:00</time></trkpt><trkpt lat="39.54965866" lon="-0.47743714"><ele>120.8</ele><time>2022-11-01T15:09:09.0000000+00:00</time></trkpt><trkpt lat="39.54963427" lon="-0.47741426"><ele>120.8</ele><time>2022-11-01T15:09:10.0000000+00:00</time></trkpt><trkpt lat="39.54960921" lon="-0.47738979"><ele>120.8</ele><time>2022-11-01T15:09:11.0000000+00:00</time></trkpt><trkpt lat="39.54958666" lon="-0.47736825"><ele>120.8</ele><time>2022-11-01T15:09:12.0000000+00:00</time></trkpt><trkpt lat="39.54956453" lon="-0.47734452"><ele>120.8</ele><time>2022-11-01T15:09:13.0000000+00:00</time></trkpt><trkpt lat="39.5495378" lon="-0.47731686"><ele>121.0</ele><time>2022-11-01T15:09:14.0000000+00:00</time></trkpt><trkpt lat="39.54951424" lon="-0.47728761"><ele>121.0</ele><time>2022-11-01T15:09:15.0000000+00:00</time></trkpt><trkpt lat="39.54948943" lon="-0.47725341"><ele>121.0</ele><time>2022-11-01T15:09:16.0000000+00:00</time></trkpt><trkpt lat="39.54946579" lon="-0.47721461"><ele>121.0</ele><time>2022-11-01T15:09:17.0000000+00:00</time></trkpt><trkpt lat="39.54944266" lon="-0.47717638"><ele>121.0</ele><time>2022-11-01T15:09:18.0000000+00:00</time></trkpt><trkpt lat="39.54941995" lon="-0.47713364"><ele>121.0</ele><time>2022-11-01T15:09:19.0000000+00:00</time></trkpt><trkpt lat="39.54939891" lon="-0.47708946"><ele>121.0</ele><time>2022-11-01T15:09:20.0000000+00:00</time></trkpt><trkpt lat="39.54937804" lon="-0.47704395"><ele>121.0</ele><time>2022-11-01T15:09:21.0000000+00:00</time></trkpt><trkpt lat="39.54936052" lon="-0.47699961"><ele>121.0</ele><time>2022-11-01T15:09:22.0000000+00:00</time></trkpt><trkpt lat="39.54934124" lon="-0.47695108"><ele>121.0</ele><time>2022-11-01T15:09:23.0000000+00:00</time></trkpt><trkpt lat="39.54932297" lon="-0.4769023"><ele>121.0</ele><time>2022-11-01T15:09:24.0000000+00:00</time></trkpt><trkpt lat="39.54930897" lon="-0.47685259"><ele>121.0</ele><time>2022-11-01T15:09:25.0000000+00:00</time></trkpt><trkpt lat="39.5492969" lon="-0.47679643"><ele>121.0</ele><time>2022-11-01T15:09:26.0000000+00:00</time></trkpt><trkpt lat="39.54928659" lon="-0.47673826"><ele>121.0</ele><time>2022-11-01T15:09:27.0000000+00:00</time></trkpt><trkpt lat="39.54928148" lon="-0.47668059"><ele>121.4</ele><time>2022-11-01T15:09:28.0000000+00:00</time></trkpt><trkpt lat="39.54927888" lon="-0.47662066"><ele>121.4</ele><time>2022-11-01T15:09:29.0000000+00:00</time></trkpt><trkpt lat="39.54927812" lon="-0.47655545"><ele>121.6</ele><time>2022-11-01T15:09:30.0000000+00:00</time></trkpt><trkpt lat="39.54928039" lon="-0.47649083"><ele>121.8</ele><time>2022-11-01T15:09:31.0000000+00:00</time></trkpt><trkpt lat="39.54928567" lon="-0.47642528"><ele>121.8</ele><time>2022-11-01T15:09:32.0000000+00:00</time></trkpt><trkpt lat="39.54929304" lon="-0.47636057"><ele>122.0</ele><time>2022-11-01T15:09:33.0000000+00:00</time></trkpt><trkpt lat="39.54930025" lon="-0.47629419"><ele>122.0</ele><time>2022-11-01T15:09:34.0000000+00:00</time></trkpt><trkpt lat="39.54930905" lon="-0.47622747"><ele>121.8</ele><time>2022-11-01T15:09:35.0000000+00:00</time></trkpt><trkpt lat="39.54931685" lon="-0.47615815"><ele>122.0</ele><time>2022-11-01T15:09:36.0000000+00:00</time></trkpt><trkpt lat="39.54932657" lon="-0.47608414"><ele>122.0</ele><time>2022-11-01T15:09:37.0000000+00:00</time></trkpt><trkpt lat="39.54933562" lon="-0.47601147"><ele>122.0</ele><time>2022-11-01T15:09:38.0000000+00:00</time></trkpt><trkpt lat="39.54934476" lon="-0.47593846"><ele>122.0</ele><time>2022-11-01T15:09:39.0000000+00:00</time></trkpt><trkpt lat="39.54934929" lon="-0.47586487"><ele>122.0</ele><time>2022-11-01T15:09:40.0000000+00:00</time></trkpt><trkpt lat="39.54935096" lon="-0.47578893"><ele>122.0</ele><time>2022-11-01T15:09:41.0000000+00:00</time></trkpt><trkpt lat="39.54935071" lon="-0.4757124"><ele>122.2</ele><time>2022-11-01T15:09:42.0000000+00:00</time></trkpt><trkpt lat="39.54934375" lon="-0.47563596"><ele>122.2</ele><time>2022-11-01T15:09:43.0000000+00:00</time></trkpt><trkpt lat="39.54933588" lon="-0.47556278"><ele>122.2</ele><time>2022-11-01T15:09:44.0000000+00:00</time></trkpt><trkpt lat="39.54932515" lon="-0.47549112"><ele>122.2</ele><time>2022-11-01T15:09:45.0000000+00:00</time></trkpt><trkpt lat="39.54931324" lon="-0.47542364"><ele>122.2</ele><time>2022-11-01T15:09:46.0000000+00:00</time></trkpt><trkpt lat="39.54929824" lon="-0.47536036"><ele>122.2</ele><time>2022-11-01T15:09:47.0000000+00:00</time></trkpt><trkpt lat="39.54928206" lon="-0.47530211"><ele>122.2</ele><time>2022-11-01T15:09:48.0000000+00:00</time></trkpt><trkpt lat="39.54926253" lon="-0.47524519"><ele>122.2</ele><time>2022-11-01T15:09:49.0000000+00:00</time></trkpt><trkpt lat="39.54924284" lon="-0.47518887"><ele>122.2</ele><time>2022-11-01T15:09:50.0000000+00:00</time></trkpt><trkpt lat="39.54922364" lon="-0.4751348"><ele>122.2</ele><time>2022-11-01T15:09:51.0000000+00:00</time></trkpt><trkpt lat="39.54920277" lon="-0.47507898"><ele>122.2</ele><time>2022-11-01T15:09:52.0000000+00:00</time></trkpt><trkpt lat="39.54918198" lon="-0.47502559"><ele>122.2</ele><time>2022-11-01T15:09:53.0000000+00:00</time></trkpt><trkpt lat="39.5491612" lon="-0.47497513"><ele>122.4</ele><time>2022-11-01T15:09:54.0000000+00:00</time></trkpt><trkpt lat="39.54913865" lon="-0.47492333"><ele>122.6</ele><time>2022-11-01T15:09:55.0000000+00:00</time></trkpt><trkpt lat="39.54911551" lon="-0.47487329"><ele>122.8</ele><time>2022-11-01T15:09:56.0000000+00:00</time></trkpt><trkpt lat="39.54909439" lon="-0.47482618"><ele>122.8</ele><time>2022-11-01T15:09:57.0000000+00:00</time></trkpt><trkpt lat="39.54907335" lon="-0.47477958"><ele>122.6</ele><time>2022-11-01T15:09:58.0000000+00:00</time></trkpt><trkpt lat="39.54904821" lon="-0.47473406"><ele>122.4</ele><time>2022-11-01T15:09:59.0000000+00:00</time></trkpt><trkpt lat="39.54902432" lon="-0.47468553"><ele>122.6</ele><time>2022-11-01T15:10:00.0000000+00:00</time></trkpt><trkpt lat="39.54900211" lon="-0.47463876"><ele>122.8</ele><time>2022-11-01T15:10:01.0000000+00:00</time></trkpt><trkpt lat="39.54898174" lon="-0.47459585"><ele>122.8</ele><time>2022-11-01T15:10:02.0000000+00:00</time></trkpt><trkpt lat="39.5489581" lon="-0.47454547"><ele>122.8</ele><time>2022-11-01T15:10:03.0000000+00:00</time></trkpt><trkpt lat="39.54893421" lon="-0.47449702"><ele>123.0</ele><time>2022-11-01T15:10:04.0000000+00:00</time></trkpt><trkpt lat="39.54891074" lon="-0.47445268"><ele>123.0</ele><time>2022-11-01T15:10:05.0000000+00:00</time></trkpt><trkpt lat="39.54888577" lon="-0.47440709"><ele>123.2</ele><time>2022-11-01T15:10:06.0000000+00:00</time></trkpt><trkpt lat="39.54886297" lon="-0.47436233"><ele>123.2</ele><time>2022-11-01T15:10:07.0000000+00:00</time></trkpt><trkpt lat="39.54884159" lon="-0.47431924"><ele>123.2</ele><time>2022-11-01T15:10:08.0000000+00:00</time></trkpt><trkpt lat="39.54882198" lon="-0.4742775"><ele>123.2</ele><time>2022-11-01T15:10:09.0000000+00:00</time></trkpt><trkpt lat="39.5488048" lon="-0.47423802"><ele>123.2</ele><time>2022-11-01T15:10:10.0000000+00:00</time></trkpt><trkpt lat="39.54878694" lon="-0.4741967"><ele>123.4</ele><time>2022-11-01T15:10:11.0000000+00:00</time></trkpt><trkpt lat="39.54877278" lon="-0.47416007"><ele>123.4</ele><time>2022-11-01T15:10:12.0000000+00:00</time></trkpt><trkpt lat="39.5487587" lon="-0.47412931"><ele>123.4</ele><time>2022-11-01T15:10:13.0000000+00:00</time></trkpt><trkpt lat="39.54874612" lon="-0.47410333"><ele>123.4</ele><time>2022-11-01T15:10:14.0000000+00:00</time></trkpt><trkpt lat="39.54873196" lon="-0.47407659"><ele>123.4</ele><time>2022-11-01T15:10:15.0000000+00:00</time></trkpt><trkpt lat="39.54871964" lon="-0.47404658"><ele>123.4</ele><time>2022-11-01T15:10:16.0000000+00:00</time></trkpt><trkpt lat="39.54870455" lon="-0.47401733"><ele>123.4</ele><time>2022-11-01T15:10:17.0000000+00:00</time></trkpt><trkpt lat="39.54868653" lon="-0.473989"><ele>123.4</ele><time>2022-11-01T15:10:18.0000000+00:00</time></trkpt><trkpt lat="39.54867262" lon="-0.47395941"><ele>123.6</ele><time>2022-11-01T15:10:19.0000000+00:00</time></trkpt><trkpt lat="39.54865862" lon="-0.47392915"><ele>123.6</ele><time>2022-11-01T15:10:20.0000000+00:00</time></trkpt><trkpt lat="39.54864361" lon="-0.47389738"><ele>123.6</ele><time>2022-11-01T15:10:21.0000000+00:00</time></trkpt><trkpt lat="39.5486261" lon="-0.47386335"><ele>123.8</ele><time>2022-11-01T15:10:22.0000000+00:00</time></trkpt><trkpt lat="39.54860774" lon="-0.47382957"><ele>123.8</ele><time>2022-11-01T15:10:23.0000000+00:00</time></trkpt><trkpt lat="39.54859047" lon="-0.47379823"><ele>124.0</ele><time>2022-11-01T15:10:24.0000000+00:00</time></trkpt><trkpt lat="39.54857488" lon="-0.47376554"><ele>124.2</ele><time>2022-11-01T15:10:25.0000000+00:00</time></trkpt><trkpt lat="39.54856063" lon="-0.4737336"><ele>124.2</ele><time>2022-11-01T15:10:26.0000000+00:00</time></trkpt><trkpt lat="39.54854529" lon="-0.47370133"><ele>124.2</ele><time>2022-11-01T15:10:27.0000000+00:00</time></trkpt><trkpt lat="39.5485318" lon="-0.47366663"><ele>124.2</ele><time>2022-11-01T15:10:28.0000000+00:00</time></trkpt><trkpt lat="39.54851654" lon="-0.47363201"><ele>124.4</ele><time>2022-11-01T15:10:29.0000000+00:00</time></trkpt><trkpt lat="39.54850162" lon="-0.47359941"><ele>124.4</ele><time>2022-11-01T15:10:30.0000000+00:00</time></trkpt><trkpt lat="39.54848712" lon="-0.47356647"><ele>124.6</ele><time>2022-11-01T15:10:31.0000000+00:00</time></trkpt><trkpt lat="39.54847044" lon="-0.47352883"><ele>124.6</ele><time>2022-11-01T15:10:32.0000000+00:00</time></trkpt><trkpt lat="39.54845494" lon="-0.47349296"><ele>124.6</ele><time>2022-11-01T15:10:33.0000000+00:00</time></trkpt><trkpt lat="39.54844052" lon="-0.47345842"><ele>124.6</ele><time>2022-11-01T15:10:34.0000000+00:00</time></trkpt><trkpt lat="39.54842459" lon="-0.47342297"><ele>125.0</ele><time>2022-11-01T15:10:35.0000000+00:00</time></trkpt><trkpt lat="39.54840213" lon="-0.47337997"><ele>125.0</ele><time>2022-11-01T15:10:36.0000000+00:00</time></trkpt><trkpt lat="39.54838394" lon="-0.47334225"><ele>125.2</ele><time>2022-11-01T15:10:37.0000000+00:00</time></trkpt><trkpt lat="39.54836693" lon="-0.47330361"><ele>125.4</ele><time>2022-11-01T15:10:38.0000000+00:00</time></trkpt><trkpt lat="39.54834622" lon="-0.47326472"><ele>125.6</ele><time>2022-11-01T15:10:39.0000000+00:00</time></trkpt><trkpt lat="39.5483298" lon="-0.47322474"><ele>125.8</ele><time>2022-11-01T15:10:40.0000000+00:00</time></trkpt><trkpt lat="39.54831085" lon="-0.47318576"><ele>125.8</ele><time>2022-11-01T15:10:41.0000000+00:00</time></trkpt><trkpt lat="39.5482997" lon="-0.47315517"><ele>126.0</ele><time>2022-11-01T15:10:42.0000000+00:00</time></trkpt><trkpt lat="39.54827699" lon="-0.47310974"><ele>126.2</ele><time>2022-11-01T15:10:43.0000000+00:00</time></trkpt><trkpt lat="39.54825595" lon="-0.47306866"><ele>126.4</ele><time>2022-11-01T15:10:44.0000000+00:00</time></trkpt><trkpt lat="39.54823986" lon="-0.47303497"><ele>126.4</ele><time>2022-11-01T15:10:45.0000000+00:00</time></trkpt><trkpt lat="39.54821454" lon="-0.47298878"><ele>126.6</ele><time>2022-11-01T15:10:46.0000000+00:00</time></trkpt><trkpt lat="39.54819342" lon="-0.47295308"><ele>126.8</ele><time>2022-11-01T15:10:47.0000000+00:00</time></trkpt><trkpt lat="39.54817331" lon="-0.47291687"><ele>127.0</ele><time>2022-11-01T15:10:48.0000000+00:00</time></trkpt><trkpt lat="39.54815629" lon="-0.4728784"><ele>127.2</ele><time>2022-11-01T15:10:49.0000000+00:00</time></trkpt><trkpt lat="39.54814028" lon="-0.47283875"><ele>127.2</ele><time>2022-11-01T15:10:50.0000000+00:00</time></trkpt><trkpt lat="39.54812092" lon="-0.47280162"><ele>127.4</ele><time>2022-11-01T15:10:51.0000000+00:00</time></trkpt><trkpt lat="39.54810114" lon="-0.47276557"><ele>127.6</ele><time>2022-11-01T15:10:52.0000000+00:00</time></trkpt><trkpt lat="39.54808186" lon="-0.47273071"><ele>127.6</ele><time>2022-11-01T15:10:53.0000000+00:00</time></trkpt><trkpt lat="39.54806836" lon="-0.47270363"><ele>127.8</ele><time>2022-11-01T15:10:54.0000000+00:00</time></trkpt><trkpt lat="39.54804515" lon="-0.47266156"><ele>128.0</ele><time>2022-11-01T15:10:55.0000000+00:00</time></trkpt><trkpt lat="39.54802729" lon="-0.472623"><ele>128.0</ele><time>2022-11-01T15:10:56.0000000+00:00</time></trkpt><trkpt lat="39.54800994" lon="-0.4725862"><ele>128.2</ele><time>2022-11-01T15:10:57.0000000+00:00</time></trkpt><trkpt lat="39.54799125" lon="-0.4725453"><ele>128.4</ele><time>2022-11-01T15:10:58.0000000+00:00</time></trkpt><trkpt lat="39.54797524" lon="-0.4725059"><ele>128.6</ele><time>2022-11-01T15:10:59.0000000+00:00</time></trkpt><trkpt lat="39.54795596" lon="-0.47246944"><ele>128.8</ele><time>2022-11-01T15:11:00.0000000+00:00</time></trkpt><trkpt lat="39.54793643" lon="-0.47243357"><ele>129.0</ele><time>2022-11-01T15:11:01.0000000+00:00</time></trkpt><trkpt lat="39.54791606" lon="-0.4723956"><ele>129.4</ele><time>2022-11-01T15:11:02.0000000+00:00</time></trkpt><trkpt lat="39.54789997" lon="-0.47236467"><ele>129.6</ele><time>2022-11-01T15:11:03.0000000+00:00</time></trkpt><trkpt lat="39.54787575" lon="-0.4723189"><ele>130.0</ele><time>2022-11-01T15:11:04.0000000+00:00</time></trkpt><trkpt lat="39.54785898" lon="-0.47228529"><ele>130.0</ele><time>2022-11-01T15:11:05.0000000+00:00</time></trkpt><trkpt lat="39.54784105" lon="-0.47224171"><ele>130.0</ele><time>2022-11-01T15:11:06.0000000+00:00</time></trkpt><trkpt lat="39.54782068" lon="-0.47219862"><ele>130.2</ele><time>2022-11-01T15:11:07.0000000+00:00</time></trkpt><trkpt lat="39.54779704" lon="-0.47214858"><ele>130.2</ele><time>2022-11-01T15:11:08.0000000+00:00</time></trkpt><trkpt lat="39.54777902" lon="-0.47211573"><ele>130.2</ele><time>2022-11-01T15:11:09.0000000+00:00</time></trkpt><trkpt lat="39.54775304" lon="-0.47206493"><ele>130.2</ele><time>2022-11-01T15:11:10.0000000+00:00</time></trkpt><trkpt lat="39.54773183" lon="-0.47201891"><ele>130.2</ele><time>2022-11-01T15:11:11.0000000+00:00</time></trkpt><trkpt lat="39.54771498" lon="-0.47198421"><ele>130.2</ele><time>2022-11-01T15:11:12.0000000+00:00</time></trkpt><trkpt lat="39.54768833" lon="-0.47192948"><ele>130.2</ele><time>2022-11-01T15:11:13.0000000+00:00</time></trkpt><trkpt lat="39.54766209" lon="-0.47188078"><ele>130.4</ele><time>2022-11-01T15:11:14.0000000+00:00</time></trkpt><trkpt lat="39.54763619" lon="-0.47183242"><ele>130.4</ele><time>2022-11-01T15:11:15.0000000+00:00</time></trkpt><trkpt lat="39.54761356" lon="-0.47178682"><ele>130.8</ele><time>2022-11-01T15:11:16.0000000+00:00</time></trkpt><trkpt lat="39.54759135" lon="-0.47174525"><ele>130.8</ele><time>2022-11-01T15:11:17.0000000+00:00</time></trkpt><trkpt lat="39.54757693" lon="-0.47171448"><ele>130.8</ele><time>2022-11-01T15:11:18.0000000+00:00</time></trkpt><trkpt lat="39.5475512" lon="-0.47166629"><ele>130.8</ele><time>2022-11-01T15:11:19.0000000+00:00</time></trkpt><trkpt lat="39.54753326" lon="-0.4716346"><ele>130.8</ele><time>2022-11-01T15:11:20.0000000+00:00</time></trkpt><trkpt lat="39.54750585" lon="-0.47158456"><ele>130.8</ele><time>2022-11-01T15:11:21.0000000+00:00</time></trkpt><trkpt lat="39.54748423" lon="-0.47154349"><ele>130.8</ele><time>2022-11-01T15:11:22.0000000+00:00</time></trkpt><trkpt lat="39.54745942" lon="-0.4714994"><ele>130.8</ele><time>2022-11-01T15:11:23.0000000+00:00</time></trkpt><trkpt lat="39.54743897" lon="-0.47146219"><ele>131.2</ele><time>2022-11-01T15:11:24.0000000+00:00</time></trkpt><trkpt lat="39.54740678" lon="-0.47141022"><ele>131.4</ele><time>2022-11-01T15:11:25.0000000+00:00</time></trkpt><trkpt lat="39.54737728" lon="-0.47136437"><ele>131.4</ele><time>2022-11-01T15:11:26.0000000+00:00</time></trkpt><trkpt lat="39.54734869" lon="-0.47131936"><ele>131.4</ele><time>2022-11-01T15:11:27.0000000+00:00</time></trkpt><trkpt lat="39.54732204" lon="-0.47128407"><ele>131.2</ele><time>2022-11-01T15:11:28.0000000+00:00</time></trkpt><trkpt lat="39.54728273" lon="-0.47123194"><ele>131.2</ele><time>2022-11-01T15:11:29.0000000+00:00</time></trkpt><trkpt lat="39.5472471" lon="-0.47118248"><ele>131.2</ele><time>2022-11-01T15:11:30.0000000+00:00</time></trkpt><trkpt lat="39.547215" lon="-0.47113722"><ele>131.0</ele><time>2022-11-01T15:11:31.0000000+00:00</time></trkpt><trkpt lat="39.54718156" lon="-0.47109674"><ele>131.0</ele><time>2022-11-01T15:11:32.0000000+00:00</time></trkpt><trkpt lat="39.54714979" lon="-0.47106212"><ele>131.0</ele><time>2022-11-01T15:11:33.0000000+00:00</time></trkpt><trkpt lat="39.54711534" lon="-0.4710249"><ele>131.0</ele><time>2022-11-01T15:11:34.0000000+00:00</time></trkpt><trkpt lat="39.54707905" lon="-0.47098702"><ele>131.2</ele><time>2022-11-01T15:11:35.0000000+00:00</time></trkpt><trkpt lat="39.54704535" lon="-0.47094712"><ele>131.2</ele><time>2022-11-01T15:11:36.0000000+00:00</time></trkpt><trkpt lat="39.54701342" lon="-0.47090722"><ele>131.2</ele><time>2022-11-01T15:11:37.0000000+00:00</time></trkpt><trkpt lat="39.54698014" lon="-0.47086699"><ele>131.4</ele><time>2022-11-01T15:11:38.0000000+00:00</time></trkpt><trkpt lat="39.54694955" lon="-0.4708281"><ele>131.4</ele><time>2022-11-01T15:11:39.0000000+00:00</time></trkpt><trkpt lat="39.54691929" lon="-0.47079214"><ele>131.6</ele><time>2022-11-01T15:11:40.0000000+00:00</time></trkpt><trkpt lat="39.54689314" lon="-0.47075702"><ele>131.6</ele><time>2022-11-01T15:11:41.0000000+00:00</time></trkpt><trkpt lat="39.54687042" lon="-0.47072601"><ele>131.6</ele><time>2022-11-01T15:11:42.0000000+00:00</time></trkpt><trkpt lat="39.54684586" lon="-0.47069801"><ele>131.8</ele><time>2022-11-01T15:11:43.0000000+00:00</time></trkpt><trkpt lat="39.54682021" lon="-0.47067127"><ele>131.8</ele><time>2022-11-01T15:11:44.0000000+00:00</time></trkpt><trkpt lat="39.54679658" lon="-0.47064621"><ele>131.8</ele><time>2022-11-01T15:11:45.0000000+00:00</time></trkpt><trkpt lat="39.54677671" lon="-0.470624"><ele>131.8</ele><time>2022-11-01T15:11:46.0000000+00:00</time></trkpt><trkpt lat="39.54676054" lon="-0.47060262"><ele>131.8</ele><time>2022-11-01T15:11:47.0000000+00:00</time></trkpt><trkpt lat="39.5467457" lon="-0.47058293"><ele>131.8</ele><time>2022-11-01T15:11:48.0000000+00:00</time></trkpt><trkpt lat="39.54673497" lon="-0.47056817"><ele>131.8</ele><time>2022-11-01T15:11:49.0000000+00:00</time></trkpt><trkpt lat="39.54671796" lon="-0.47054462"><ele>131.8</ele><time>2022-11-01T15:11:50.0000000+00:00</time></trkpt><trkpt lat="39.54670236" lon="-0.47052275"><ele>131.8</ele><time>2022-11-01T15:11:51.0000000+00:00</time></trkpt><trkpt lat="39.54668074" lon="-0.47049919"><ele>132.0</ele><time>2022-11-01T15:11:52.0000000+00:00</time></trkpt><trkpt lat="39.54665668" lon="-0.4704712"><ele>132.0</ele><time>2022-11-01T15:11:53.0000000+00:00</time></trkpt><trkpt lat="39.54663422" lon="-0.47044362"><ele>132.2</ele><time>2022-11-01T15:11:54.0000000+00:00</time></trkpt><trkpt lat="39.54661394" lon="-0.4704178"><ele>132.2</ele><time>2022-11-01T15:11:55.0000000+00:00</time></trkpt><trkpt lat="39.54659399" lon="-0.4703914"><ele>132.2</ele><time>2022-11-01T15:11:56.0000000+00:00</time></trkpt><trkpt lat="39.54657211" lon="-0.47036357"><ele>132.4</ele><time>2022-11-01T15:11:57.0000000+00:00</time></trkpt><trkpt lat="39.54655149" lon="-0.47033675"><ele>132.4</ele><time>2022-11-01T15:11:58.0000000+00:00</time></trkpt><trkpt lat="39.54653154" lon="-0.47031496"><ele>132.2</ele><time>2022-11-01T15:11:59.0000000+00:00</time></trkpt><trkpt lat="39.54650908" lon="-0.47028964"><ele>132.2</ele><time>2022-11-01T15:12:00.0000000+00:00</time></trkpt><trkpt lat="39.54648963" lon="-0.47027003"><ele>132.2</ele><time>2022-11-01T15:12:01.0000000+00:00</time></trkpt><trkpt lat="39.54646197" lon="-0.47023969"><ele>132.2</ele><time>2022-11-01T15:12:02.0000000+00:00</time></trkpt><trkpt lat="39.5464406" lon="-0.47021169"><ele>132.2</ele><time>2022-11-01T15:12:03.0000000+00:00</time></trkpt><trkpt lat="39.54641864" lon="-0.47018378"><ele>132.2</ele><time>2022-11-01T15:12:04.0000000+00:00</time></trkpt><trkpt lat="39.54639617" lon="-0.47015855"><ele>132.4</ele><time>2022-11-01T15:12:05.0000000+00:00</time></trkpt><trkpt lat="39.54637572" lon="-0.47013584"><ele>132.6</ele><time>2022-11-01T15:12:06.0000000+00:00</time></trkpt><trkpt lat="39.54635234" lon="-0.47011329"><ele>132.6</ele><time>2022-11-01T15:12:07.0000000+00:00</time></trkpt><trkpt lat="39.54632937" lon="-0.4700899"><ele>132.6</ele><time>2022-11-01T15:12:08.0000000+00:00</time></trkpt><trkpt lat="39.54630565" lon="-0.47006358"><ele>132.6</ele><time>2022-11-01T15:12:09.0000000+00:00</time></trkpt><trkpt lat="39.5462862" lon="-0.47004213"><ele>132.8</ele><time>2022-11-01T15:12:10.0000000+00:00</time></trkpt><trkpt lat="39.54625829" lon="-0.47000885"><ele>132.8</ele><time>2022-11-01T15:12:11.0000000+00:00</time></trkpt><trkpt lat="39.54623918" lon="-0.46998513"><ele>132.8</ele><time>2022-11-01T15:12:12.0000000+00:00</time></trkpt><trkpt lat="39.5462106" lon="-0.46995169"><ele>132.8</ele><time>2022-11-01T15:12:13.0000000+00:00</time></trkpt><trkpt lat="39.54618612" lon="-0.46992721"><ele>132.8</ele><time>2022-11-01T15:12:14.0000000+00:00</time></trkpt><trkpt lat="39.54616358" lon="-0.46990165"><ele>133.2</ele><time>2022-11-01T15:12:15.0000000+00:00</time></trkpt><trkpt lat="39.54614162" lon="-0.46987575"><ele>133.4</ele><time>2022-11-01T15:12:16.0000000+00:00</time></trkpt><trkpt lat="39.54611697" lon="-0.469848"><ele>133.4</ele><time>2022-11-01T15:12:17.0000000+00:00</time></trkpt><trkpt lat="39.54609216" lon="-0.4698154"><ele>133.6</ele><time>2022-11-01T15:12:18.0000000+00:00</time></trkpt><trkpt lat="39.54606777" lon="-0.4697791"><ele>133.8</ele><time>2022-11-01T15:12:19.0000000+00:00</time></trkpt><trkpt lat="39.54604162" lon="-0.469747"><ele>133.8</ele><time>2022-11-01T15:12:20.0000000+00:00</time></trkpt><trkpt lat="39.54601807" lon="-0.46971515"><ele>134.0</ele><time>2022-11-01T15:12:21.0000000+00:00</time></trkpt><trkpt lat="39.54599393" lon="-0.46968782"><ele>134.2</ele><time>2022-11-01T15:12:22.0000000+00:00</time></trkpt><trkpt lat="39.54596895" lon="-0.46965991"><ele>134.4</ele><time>2022-11-01T15:12:23.0000000+00:00</time></trkpt><trkpt lat="39.5459464" lon="-0.46963242"><ele>134.6</ele><time>2022-11-01T15:12:24.0000000+00:00</time></trkpt><trkpt lat="39.54592243" lon="-0.46960576"><ele>134.6</ele><time>2022-11-01T15:12:25.0000000+00:00</time></trkpt><trkpt lat="39.54589485" lon="-0.46958238"><ele>134.6</ele><time>2022-11-01T15:12:26.0000000+00:00</time></trkpt><trkpt lat="39.54586895" lon="-0.46955698"><ele>134.6</ele><time>2022-11-01T15:12:27.0000000+00:00</time></trkpt><trkpt lat="39.5458459" lon="-0.46952999"><ele>134.8</ele><time>2022-11-01T15:12:28.0000000+00:00</time></trkpt><trkpt lat="39.54581657" lon="-0.46950367"><ele>134.8</ele><time>2022-11-01T15:12:29.0000000+00:00</time></trkpt><trkpt lat="39.54579293" lon="-0.46947903"><ele>135.0</ele><time>2022-11-01T15:12:30.0000000+00:00</time></trkpt><trkpt lat="39.54576887" lon="-0.46945263"><ele>135.0</ele><time>2022-11-01T15:12:31.0000000+00:00</time></trkpt><trkpt lat="39.54574917" lon="-0.4694284"><ele>135.0</ele><time>2022-11-01T15:12:32.0000000+00:00</time></trkpt><trkpt lat="39.54572495" lon="-0.46939831"><ele>135.2</ele><time>2022-11-01T15:12:33.0000000+00:00</time></trkpt><trkpt lat="39.54569905" lon="-0.46936604"><ele>135.2</ele><time>2022-11-01T15:12:34.0000000+00:00</time></trkpt><trkpt lat="39.54567508" lon="-0.46933411"><ele>135.4</ele><time>2022-11-01T15:12:35.0000000+00:00</time></trkpt><trkpt lat="39.54564407" lon="-0.46929731"><ele>135.6</ele><time>2022-11-01T15:12:36.0000000+00:00</time></trkpt><trkpt lat="39.54561724" lon="-0.46926605"><ele>135.8</ele><time>2022-11-01T15:12:37.0000000+00:00</time></trkpt><trkpt lat="39.54559034" lon="-0.46923637"><ele>135.8</ele><time>2022-11-01T15:12:38.0000000+00:00</time></trkpt><trkpt lat="39.54556528" lon="-0.4692088"><ele>136.0</ele><time>2022-11-01T15:12:39.0000000+00:00</time></trkpt><trkpt lat="39.54554164" lon="-0.46917846"><ele>136.0</ele><time>2022-11-01T15:12:40.0000000+00:00</time></trkpt><trkpt lat="39.54551733" lon="-0.46915071"><ele>136.2</ele><time>2022-11-01T15:12:41.0000000+00:00</time></trkpt><trkpt lat="39.54549386" lon="-0.46912238"><ele>136.2</ele><time>2022-11-01T15:12:42.0000000+00:00</time></trkpt><trkpt lat="39.5454683" lon="-0.46909137"><ele>136.4</ele><time>2022-11-01T15:12:43.0000000+00:00</time></trkpt><trkpt lat="39.54544349" lon="-0.46906312"><ele>136.4</ele><time>2022-11-01T15:12:44.0000000+00:00</time></trkpt><trkpt lat="39.54541792" lon="-0.46903244"><ele>136.6</ele><time>2022-11-01T15:12:45.0000000+00:00</time></trkpt><trkpt lat="39.54539571" lon="-0.46900939"><ele>136.6</ele><time>2022-11-01T15:12:46.0000000+00:00</time></trkpt><trkpt lat="39.54536503" lon="-0.46897612"><ele>136.6</ele><time>2022-11-01T15:12:47.0000000+00:00</time></trkpt><trkpt lat="39.5453398" lon="-0.46894812"><ele>136.6</ele><time>2022-11-01T15:12:48.0000000+00:00</time></trkpt><trkpt lat="39.54531399" lon="-0.46891929"><ele>136.6</ele><time>2022-11-01T15:12:49.0000000+00:00</time></trkpt><trkpt lat="39.54529027" lon="-0.46888878"><ele>136.6</ele><time>2022-11-01T15:12:50.0000000+00:00</time></trkpt><trkpt lat="39.54526487" lon="-0.4688576"><ele>136.8</ele><time>2022-11-01T15:12:51.0000000+00:00</time></trkpt><trkpt lat="39.54523947" lon="-0.46882725"><ele>136.8</ele><time>2022-11-01T15:12:52.0000000+00:00</time></trkpt><trkpt lat="39.54521726" lon="-0.46879825"><ele>137.0</ele><time>2022-11-01T15:12:53.0000000+00:00</time></trkpt><trkpt lat="39.54518801" lon="-0.46876431"><ele>137.2</ele><time>2022-11-01T15:12:54.0000000+00:00</time></trkpt><trkpt lat="39.54515523" lon="-0.46872759"><ele>137.2</ele><time>2022-11-01T15:12:55.0000000+00:00</time></trkpt><trkpt lat="39.54512799" lon="-0.46870203"><ele>137.2</ele><time>2022-11-01T15:12:56.0000000+00:00</time></trkpt><trkpt lat="39.5451005" lon="-0.46867705"><ele>137.4</ele><time>2022-11-01T15:12:57.0000000+00:00</time></trkpt><trkpt lat="39.5450741" lon="-0.46864629"><ele>137.4</ele><time>2022-11-01T15:12:58.0000000+00:00</time></trkpt><trkpt lat="39.54504845" lon="-0.46861511"><ele>137.2</ele><time>2022-11-01T15:12:59.0000000+00:00</time></trkpt><trkpt lat="39.54502389" lon="-0.46858292"><ele>137.2</ele><time>2022-11-01T15:13:00.0000000+00:00</time></trkpt><trkpt lat="39.54499824" lon="-0.46854612"><ele>137.2</ele><time>2022-11-01T15:13:01.0000000+00:00</time></trkpt><trkpt lat="39.54496949" lon="-0.46850774"><ele>137.4</ele><time>2022-11-01T15:13:02.0000000+00:00</time></trkpt><trkpt lat="39.54494116" lon="-0.46847371"><ele>137.4</ele><time>2022-11-01T15:13:03.0000000+00:00</time></trkpt><trkpt lat="39.54490772" lon="-0.468438"><ele>137.4</ele><time>2022-11-01T15:13:04.0000000+00:00</time></trkpt><trkpt lat="39.54487419" lon="-0.46840296"><ele>137.6</ele><time>2022-11-01T15:13:05.0000000+00:00</time></trkpt><trkpt lat="39.54484033" lon="-0.46836868"><ele>137.6</ele><time>2022-11-01T15:13:06.0000000+00:00</time></trkpt><trkpt lat="39.54480646" lon="-0.46833473"><ele>137.6</ele><time>2022-11-01T15:13:07.0000000+00:00</time></trkpt><trkpt lat="39.54477302" lon="-0.46829961"><ele>137.6</ele><time>2022-11-01T15:13:08.0000000+00:00</time></trkpt><trkpt lat="39.544741" lon="-0.46825695"><ele>137.6</ele><time>2022-11-01T15:13:09.0000000+00:00</time></trkpt><trkpt lat="39.54471795" lon="-0.46822376"><ele>137.8</ele><time>2022-11-01T15:13:10.0000000+00:00</time></trkpt><trkpt lat="39.54467931" lon="-0.46817296"><ele>137.8</ele><time>2022-11-01T15:13:11.0000000+00:00</time></trkpt><trkpt lat="39.54464637" lon="-0.46812871"><ele>137.8</ele><time>2022-11-01T15:13:12.0000000+00:00</time></trkpt><trkpt lat="39.54461376" lon="-0.46808571"><ele>137.8</ele><time>2022-11-01T15:13:13.0000000+00:00</time></trkpt><trkpt lat="39.54458795" lon="-0.46805151"><ele>138.0</ele><time>2022-11-01T15:13:14.0000000+00:00</time></trkpt><trkpt lat="39.54455408" lon="-0.46801111"><ele>138.0</ele><time>2022-11-01T15:13:15.0000000+00:00</time></trkpt><trkpt lat="39.5445146" lon="-0.46796031"><ele>138.2</ele><time>2022-11-01T15:13:16.0000000+00:00</time></trkpt><trkpt lat="39.54448233" lon="-0.46791555"><ele>138.2</ele><time>2022-11-01T15:13:17.0000000+00:00</time></trkpt><trkpt lat="39.54445778" lon="-0.46787742"><ele>138.4</ele><time>2022-11-01T15:13:18.0000000+00:00</time></trkpt><trkpt lat="39.54442609" lon="-0.46782629"><ele>138.6</ele><time>2022-11-01T15:13:19.0000000+00:00</time></trkpt><trkpt lat="39.54440698" lon="-0.46779192"><ele>139.0</ele><time>2022-11-01T15:13:20.0000000+00:00</time></trkpt><trkpt lat="39.54438041" lon="-0.46774054"><ele>139.0</ele><time>2022-11-01T15:13:21.0000000+00:00</time></trkpt><trkpt lat="39.54435577" lon="-0.46770148"><ele>139.0</ele><time>2022-11-01T15:13:22.0000000+00:00</time></trkpt><trkpt lat="39.54433037" lon="-0.46766276"><ele>139.0</ele><time>2022-11-01T15:13:23.0000000+00:00</time></trkpt><trkpt lat="39.54429994" lon="-0.46761733"><ele>138.8</ele><time>2022-11-01T15:13:24.0000000+00:00</time></trkpt><trkpt lat="39.54426709" lon="-0.46757081"><ele>138.4</ele><time>2022-11-01T15:13:25.0000000+00:00</time></trkpt><trkpt lat="39.54423507" lon="-0.46752353"><ele>138.2</ele><time>2022-11-01T15:13:26.0000000+00:00</time></trkpt><trkpt lat="39.54420481" lon="-0.4674755"><ele>138.2</ele><time>2022-11-01T15:13:27.0000000+00:00</time></trkpt><trkpt lat="39.54417757" lon="-0.4674294"><ele>138.0</ele><time>2022-11-01T15:13:28.0000000+00:00</time></trkpt><trkpt lat="39.5441489" lon="-0.46738104"><ele>138.0</ele><time>2022-11-01T15:13:29.0000000+00:00</time></trkpt><trkpt lat="39.54412065" lon="-0.46733326"><ele>138.0</ele><time>2022-11-01T15:13:30.0000000+00:00</time></trkpt><trkpt lat="39.54409098" lon="-0.46728792"><ele>138.4</ele><time>2022-11-01T15:13:31.0000000+00:00</time></trkpt><trkpt lat="39.54406282" lon="-0.46724752"><ele>138.6</ele><time>2022-11-01T15:13:32.0000000+00:00</time></trkpt><trkpt lat="39.54403373" lon="-0.4672051"><ele>138.8</ele><time>2022-11-01T15:13:33.0000000+00:00</time></trkpt><trkpt lat="39.54401362" lon="-0.46716873"><ele>138.4</ele><time>2022-11-01T15:13:34.0000000+00:00</time></trkpt><trkpt lat="39.54398202" lon="-0.46711676"><ele>137.8</ele><time>2022-11-01T15:13:35.0000000+00:00</time></trkpt><trkpt lat="39.54395545" lon="-0.4670725"><ele>137.4</ele><time>2022-11-01T15:13:36.0000000+00:00</time></trkpt><trkpt lat="39.54392745" lon="-0.46702774"><ele>137.0</ele><time>2022-11-01T15:13:37.0000000+00:00</time></trkpt><trkpt lat="39.54389946" lon="-0.46699254"><ele>136.6</ele><time>2022-11-01T15:13:38.0000000+00:00</time></trkpt><trkpt lat="39.5438645" lon="-0.46695993"><ele>136.4</ele><time>2022-11-01T15:13:39.0000000+00:00</time></trkpt><trkpt lat="39.54382385" lon="-0.46692942"><ele>136.2</ele><time>2022-11-01T15:13:40.0000000+00:00</time></trkpt><trkpt lat="39.54378286" lon="-0.46690453"><ele>136.2</ele><time>2022-11-01T15:13:41.0000000+00:00</time></trkpt><trkpt lat="39.54374037" lon="-0.46688777"><ele>136.2</ele><time>2022-11-01T15:13:42.0000000+00:00</time></trkpt><trkpt lat="39.54369335" lon="-0.46687813"><ele>136.2</ele><time>2022-11-01T15:13:43.0000000+00:00</time></trkpt><trkpt lat="39.54364657" lon="-0.46687972"><ele>136.0</ele><time>2022-11-01T15:13:44.0000000+00:00</time></trkpt><trkpt lat="39.54359746" lon="-0.46689196"><ele>135.8</ele><time>2022-11-01T15:13:45.0000000+00:00</time></trkpt><trkpt lat="39.54355546" lon="-0.46691475"><ele>135.6</ele><time>2022-11-01T15:13:46.0000000+00:00</time></trkpt><trkpt lat="39.54352051" lon="-0.46694401"><ele>135.0</ele><time>2022-11-01T15:13:47.0000000+00:00</time></trkpt><trkpt lat="39.54349117" lon="-0.46697469"><ele>134.6</ele><time>2022-11-01T15:13:48.0000000+00:00</time></trkpt><trkpt lat="39.54347014" lon="-0.46700955"><ele>134.4</ele><time>2022-11-01T15:13:49.0000000+00:00</time></trkpt><trkpt lat="39.54345119" lon="-0.46703981"><ele>134.4</ele><time>2022-11-01T15:13:50.0000000+00:00</time></trkpt><trkpt lat="39.54343384" lon="-0.46706747"><ele>134.4</ele><time>2022-11-01T15:13:51.0000000+00:00</time></trkpt><trkpt lat="39.54341381" lon="-0.46709622"><ele>134.4</ele><time>2022-11-01T15:13:52.0000000+00:00</time></trkpt><trkpt lat="39.5433926" lon="-0.46712522"><ele>134.4</ele><time>2022-11-01T15:13:53.0000000+00:00</time></trkpt><trkpt lat="39.54336905" lon="-0.46714417"><ele>134.2</ele><time>2022-11-01T15:13:54.0000000+00:00</time></trkpt><trkpt lat="39.54334801" lon="-0.46715339"><ele>134.2</ele><time>2022-11-01T15:13:55.0000000+00:00</time></trkpt><trkpt lat="39.5433341" lon="-0.46714115"><ele>134.2</ele><time>2022-11-01T15:13:56.0000000+00:00</time></trkpt><trkpt lat="39.54332831" lon="-0.46711869"><ele>134.2</ele><time>2022-11-01T15:13:57.0000000+00:00</time></trkpt><trkpt lat="39.5433315" lon="-0.46708382"><ele>134.2</ele><time>2022-11-01T15:13:58.0000000+00:00</time></trkpt><trkpt lat="39.54335069" lon="-0.46704006"><ele>134.6</ele><time>2022-11-01T15:13:59.0000000+00:00</time></trkpt><trkpt lat="39.54337316" lon="-0.46699933"><ele>135.0</ele><time>2022-11-01T15:14:00.0000000+00:00</time></trkpt><trkpt lat="39.54339193" lon="-0.4669622"><ele>135.2</ele><time>2022-11-01T15:14:01.0000000+00:00</time></trkpt><trkpt lat="39.5434144" lon="-0.46690646"><ele>135.4</ele><time>2022-11-01T15:14:02.0000000+00:00</time></trkpt><trkpt lat="39.54343032" lon="-0.46685692"><ele>135.6</ele><time>2022-11-01T15:14:03.0000000+00:00</time></trkpt><trkpt lat="39.5434434" lon="-0.46680763"><ele>135.6</ele><time>2022-11-01T15:14:04.0000000+00:00</time></trkpt><trkpt lat="39.54345622" lon="-0.46675374"><ele>135.6</ele><time>2022-11-01T15:14:05.0000000+00:00</time></trkpt><trkpt lat="39.54346418" lon="-0.46669884"><ele>135.8</ele><time>2022-11-01T15:14:06.0000000+00:00</time></trkpt><trkpt lat="39.54347332" lon="-0.46664276"><ele>135.8</ele><time>2022-11-01T15:14:07.0000000+00:00</time></trkpt><trkpt lat="39.54347827" lon="-0.46658979"><ele>135.8</ele><time>2022-11-01T15:14:08.0000000+00:00</time></trkpt><trkpt lat="39.54347894" lon="-0.4665395"><ele>135.6</ele><time>2022-11-01T15:14:09.0000000+00:00</time></trkpt><trkpt lat="39.5434776" lon="-0.46649851"><ele>135.6</ele><time>2022-11-01T15:14:10.0000000+00:00</time></trkpt><trkpt lat="39.54347491" lon="-0.46644805"><ele>135.6</ele><time>2022-11-01T15:14:11.0000000+00:00</time></trkpt><trkpt lat="39.54346536" lon="-0.46639214"><ele>135.4</ele><time>2022-11-01T15:14:12.0000000+00:00</time></trkpt><trkpt lat="39.54345287" lon="-0.46634839"><ele>135.4</ele><time>2022-11-01T15:14:13.0000000+00:00</time></trkpt><trkpt lat="39.54343719" lon="-0.46631377"><ele>135.2</ele><time>2022-11-01T15:14:14.0000000+00:00</time></trkpt><trkpt lat="39.54342219" lon="-0.46628544"><ele>135.0</ele><time>2022-11-01T15:14:15.0000000+00:00</time></trkpt><trkpt lat="39.54341079" lon="-0.46626214"><ele>134.8</ele><time>2022-11-01T15:14:16.0000000+00:00</time></trkpt><trkpt lat="39.54340065" lon="-0.46624269"><ele>134.8</ele><time>2022-11-01T15:14:17.0000000+00:00</time></trkpt><trkpt lat="39.54339235" lon="-0.46622995"><ele>134.6</ele><time>2022-11-01T15:14:18.0000000+00:00</time></trkpt><trkpt lat="39.54338271" lon="-0.46621495"><ele>134.6</ele><time>2022-11-01T15:14:19.0000000+00:00</time></trkpt><trkpt lat="39.54337425" lon="-0.46620053"><ele>134.4</ele><time>2022-11-01T15:14:20.0000000+00:00</time></trkpt><trkpt lat="39.54337173" lon="-0.46619123"><ele>134.4</ele><time>2022-11-01T15:14:21.0000000+00:00</time></trkpt><trkpt lat="39.54336519" lon="-0.46618369"><ele>134.4</ele><time>2022-11-01T15:14:22.0000000+00:00</time></trkpt><trkpt lat="39.54335958" lon="-0.46618125"><ele>134.2</ele><time>2022-11-01T15:14:23.0000000+00:00</time></trkpt><trkpt lat="39.54334089" lon="-0.46617321"><ele>134.2</ele><time>2022-11-01T15:14:24.0000000+00:00</time></trkpt><trkpt lat="39.54332731" lon="-0.46616256"><ele>134.0</ele><time>2022-11-01T15:14:25.0000000+00:00</time></trkpt><trkpt lat="39.54332002" lon="-0.46614496"><ele>134.0</ele><time>2022-11-01T15:14:26.0000000+00:00</time></trkpt><trkpt lat="39.5433165" lon="-0.4661204"><ele>134.0</ele><time>2022-11-01T15:14:27.0000000+00:00</time></trkpt><trkpt lat="39.54331189" lon="-0.46609953"><ele>134.0</ele><time>2022-11-01T15:14:28.0000000+00:00</time></trkpt><trkpt lat="39.54330158" lon="-0.46607782"><ele>134.0</ele><time>2022-11-01T15:14:29.0000000+00:00</time></trkpt><trkpt lat="39.54329093" lon="-0.46605477"><ele>134.0</ele><time>2022-11-01T15:14:30.0000000+00:00</time></trkpt><trkpt lat="39.54327869" lon="-0.46603625"><ele>134.0</ele><time>2022-11-01T15:14:31.0000000+00:00</time></trkpt><trkpt lat="39.5432621" lon="-0.46600364"><ele>134.0</ele><time>2022-11-01T15:14:32.0000000+00:00</time></trkpt><trkpt lat="39.54325112" lon="-0.46597699"><ele>134.0</ele><time>2022-11-01T15:14:33.0000000+00:00</time></trkpt><trkpt lat="39.54325095" lon="-0.46595084"><ele>134.0</ele><time>2022-11-01T15:14:34.0000000+00:00</time></trkpt><trkpt lat="39.54325732" lon="-0.46593608"><ele>134.0</ele><time>2022-11-01T15:14:35.0000000+00:00</time></trkpt><trkpt lat="39.54327383" lon="-0.46592192"><ele>133.8</ele><time>2022-11-01T15:14:36.0000000+00:00</time></trkpt><trkpt lat="39.54329755" lon="-0.46592234"><ele>133.8</ele><time>2022-11-01T15:14:37.0000000+00:00</time></trkpt><trkpt lat="39.54332538" lon="-0.46592888"><ele>133.6</ele><time>2022-11-01T15:14:38.0000000+00:00</time></trkpt><trkpt lat="39.54334918" lon="-0.46593801"><ele>133.6</ele><time>2022-11-01T15:14:39.0000000+00:00</time></trkpt><trkpt lat="39.54336729" lon="-0.46595151"><ele>133.6</ele><time>2022-11-01T15:14:40.0000000+00:00</time></trkpt><trkpt lat="39.54338984" lon="-0.46597229"><ele>133.8</ele><time>2022-11-01T15:14:41.0000000+00:00</time></trkpt><trkpt lat="39.54341565" lon="-0.46599794"><ele>133.8</ele><time>2022-11-01T15:14:42.0000000+00:00</time></trkpt><trkpt lat="39.54343577" lon="-0.46602359"><ele>133.8</ele><time>2022-11-01T15:14:43.0000000+00:00</time></trkpt><trkpt lat="39.5434558" lon="-0.46605134"><ele>133.8</ele><time>2022-11-01T15:14:44.0000000+00:00</time></trkpt><trkpt lat="39.54347734" lon="-0.46608805"><ele>134.0</ele><time>2022-11-01T15:14:45.0000000+00:00</time></trkpt><trkpt lat="39.54349746" lon="-0.46612451"><ele>134.0</ele><time>2022-11-01T15:14:46.0000000+00:00</time></trkpt><trkpt lat="39.54351263" lon="-0.46614756"><ele>134.0</ele><time>2022-11-01T15:14:47.0000000+00:00</time></trkpt><trkpt lat="39.54353451" lon="-0.46617656"><ele>134.0</ele><time>2022-11-01T15:14:48.0000000+00:00</time></trkpt><trkpt lat="39.54354532" lon="-0.46619165"><ele>134.0</ele><time>2022-11-01T15:14:49.0000000+00:00</time></trkpt><trkpt lat="39.54356032" lon="-0.46621713"><ele>134.2</ele><time>2022-11-01T15:14:50.0000000+00:00</time></trkpt><trkpt lat="39.54357332" lon="-0.46623968"><ele>134.2</ele><time>2022-11-01T15:14:51.0000000+00:00</time></trkpt><trkpt lat="39.54358639" lon="-0.46625736"><ele>134.2</ele><time>2022-11-01T15:14:52.0000000+00:00</time></trkpt><trkpt lat="39.54360374" lon="-0.46626658"><ele>134.2</ele><time>2022-11-01T15:14:53.0000000+00:00</time></trkpt><trkpt lat="39.54361975" lon="-0.46626424"><ele>134.2</ele><time>2022-11-01T15:14:54.0000000+00:00</time></trkpt><trkpt lat="39.54363266" lon="-0.46624714"><ele>134.2</ele><time>2022-11-01T15:14:55.0000000+00:00</time></trkpt><trkpt lat="39.5436449" lon="-0.46622073"><ele>134.2</ele><time>2022-11-01T15:14:56.0000000+00:00</time></trkpt><trkpt lat="39.54365873" lon="-0.46619198"><ele>134.2</ele><time>2022-11-01T15:14:57.0000000+00:00</time></trkpt><trkpt lat="39.54367247" lon="-0.46616684"><ele>134.2</ele><time>2022-11-01T15:14:58.0000000+00:00</time></trkpt><trkpt lat="39.54369016" lon="-0.46614815"><ele>134.4</ele><time>2022-11-01T15:14:59.0000000+00:00</time></trkpt><trkpt lat="39.54371304" lon="-0.46614203"><ele>134.4</ele><time>2022-11-01T15:15:00.0000000+00:00</time></trkpt><trkpt lat="39.5437345" lon="-0.46613985"><ele>134.4</ele><time>2022-11-01T15:15:01.0000000+00:00</time></trkpt><trkpt lat="39.5437609" lon="-0.46613683"><ele>134.6</ele><time>2022-11-01T15:15:02.0000000+00:00</time></trkpt><trkpt lat="39.54379695" lon="-0.46612501"><ele>134.6</ele><time>2022-11-01T15:15:03.0000000+00:00</time></trkpt><trkpt lat="39.54382427" lon="-0.46610188"><ele>134.8</ele><time>2022-11-01T15:15:04.0000000+00:00</time></trkpt><trkpt lat="39.54384782" lon="-0.46607003"><ele>135.0</ele><time>2022-11-01T15:15:05.0000000+00:00</time></trkpt><trkpt lat="39.54386735" lon="-0.46603507"><ele>135.0</ele><time>2022-11-01T15:15:06.0000000+00:00</time></trkpt><trkpt lat="39.54388588" lon="-0.46599174"><ele>135.2</ele><time>2022-11-01T15:15:07.0000000+00:00</time></trkpt><trkpt lat="39.54390314" lon="-0.46594673"><ele>135.2</ele><time>2022-11-01T15:15:08.0000000+00:00</time></trkpt><trkpt lat="39.54391572" lon="-0.46589661"><ele>135.4</ele><time>2022-11-01T15:15:09.0000000+00:00</time></trkpt><trkpt lat="39.5439324" lon="-0.46585369"><ele>135.4</ele><time>2022-11-01T15:15:10.0000000+00:00</time></trkpt><trkpt lat="39.54395025" lon="-0.46580801"><ele>135.4</ele><time>2022-11-01T15:15:11.0000000+00:00</time></trkpt><trkpt lat="39.54396894" lon="-0.46576233"><ele>135.4</ele><time>2022-11-01T15:15:12.0000000+00:00</time></trkpt><trkpt lat="39.54398923" lon="-0.46571807"><ele>135.4</ele><time>2022-11-01T15:15:13.0000000+00:00</time></trkpt><trkpt lat="39.54400758" lon="-0.46567549"><ele>135.6</ele><time>2022-11-01T15:15:14.0000000+00:00</time></trkpt><trkpt lat="39.54402301" lon="-0.46563417"><ele>135.6</ele><time>2022-11-01T15:15:15.0000000+00:00</time></trkpt><trkpt lat="39.54403441" lon="-0.46558983"><ele>135.6</ele><time>2022-11-01T15:15:16.0000000+00:00</time></trkpt><trkpt lat="39.54404857" lon="-0.46554834"><ele>135.6</ele><time>2022-11-01T15:15:17.0000000+00:00</time></trkpt><trkpt lat="39.54406173" lon="-0.46550794"><ele>135.6</ele><time>2022-11-01T15:15:18.0000000+00:00</time></trkpt><trkpt lat="39.54407321" lon="-0.46546812"><ele>135.6</ele><time>2022-11-01T15:15:19.0000000+00:00</time></trkpt><trkpt lat="39.54408377" lon="-0.46543174"><ele>135.6</ele><time>2022-11-01T15:15:20.0000000+00:00</time></trkpt><trkpt lat="39.54409375" lon="-0.46539512"><ele>135.6</ele><time>2022-11-01T15:15:21.0000000+00:00</time></trkpt><trkpt lat="39.54410448" lon="-0.46536159"><ele>135.6</ele><time>2022-11-01T15:15:22.0000000+00:00</time></trkpt><trkpt lat="39.5441142" lon="-0.46533594"><ele>135.6</ele><time>2022-11-01T15:15:23.0000000+00:00</time></trkpt><trkpt lat="39.54412937" lon="-0.46529621"><ele>135.6</ele><time>2022-11-01T15:15:24.0000000+00:00</time></trkpt><trkpt lat="39.54414136" lon="-0.4652605"><ele>135.4</ele><time>2022-11-01T15:15:25.0000000+00:00</time></trkpt><trkpt lat="39.54414899" lon="-0.46522639"><ele>135.4</ele><time>2022-11-01T15:15:26.0000000+00:00</time></trkpt><trkpt lat="39.54415745" lon="-0.4651932"><ele>135.2</ele><time>2022-11-01T15:15:27.0000000+00:00</time></trkpt><trkpt lat="39.54416768" lon="-0.46515933"><ele>135.2</ele><time>2022-11-01T15:15:28.0000000+00:00</time></trkpt><trkpt lat="39.54417631" lon="-0.4651248"><ele>135.0</ele><time>2022-11-01T15:15:29.0000000+00:00</time></trkpt><trkpt lat="39.54418813" lon="-0.4650875"><ele>135.0</ele><time>2022-11-01T15:15:30.0000000+00:00</time></trkpt><trkpt lat="39.54420238" lon="-0.46504391"><ele>134.8</ele><time>2022-11-01T15:15:31.0000000+00:00</time></trkpt><trkpt lat="39.54421302" lon="-0.46499555"><ele>134.8</ele><time>2022-11-01T15:15:32.0000000+00:00</time></trkpt><trkpt lat="39.54422551" lon="-0.46494249"><ele>134.8</ele><time>2022-11-01T15:15:33.0000000+00:00</time></trkpt><trkpt lat="39.54423716" lon="-0.46488491"><ele>134.6</ele><time>2022-11-01T15:15:34.0000000+00:00</time></trkpt><trkpt lat="39.5442484" lon="-0.46483453"><ele>134.4</ele><time>2022-11-01T15:15:35.0000000+00:00</time></trkpt><trkpt lat="39.54426834" lon="-0.46475499"><ele>134.2</ele><time>2022-11-01T15:15:36.0000000+00:00</time></trkpt><trkpt lat="39.54428486" lon="-0.46468525"><ele>134.2</ele><time>2022-11-01T15:15:37.0000000+00:00</time></trkpt><trkpt lat="39.54430187" lon="-0.46460713"><ele>134.0</ele><time>2022-11-01T15:15:38.0000000+00:00</time></trkpt><trkpt lat="39.54431872" lon="-0.46451963"><ele>133.8</ele><time>2022-11-01T15:15:39.0000000+00:00</time></trkpt><trkpt lat="39.54433641" lon="-0.46442885"><ele>133.4</ele><time>2022-11-01T15:15:40.0000000+00:00</time></trkpt><trkpt lat="39.54435241" lon="-0.4643333"><ele>133.0</ele><time>2022-11-01T15:15:41.0000000+00:00</time></trkpt><trkpt lat="39.54437102" lon="-0.46424252"><ele>132.6</ele><time>2022-11-01T15:15:42.0000000+00:00</time></trkpt><trkpt lat="39.54439273" lon="-0.46416448"><ele>131.8</ele><time>2022-11-01T15:15:43.0000000+00:00</time></trkpt><trkpt lat="39.54441964" lon="-0.46409927"><ele>131.0</ele><time>2022-11-01T15:15:44.0000000+00:00</time></trkpt><trkpt lat="39.54444202" lon="-0.46404982"><ele>130.4</ele><time>2022-11-01T15:15:45.0000000+00:00</time></trkpt><trkpt lat="39.54444646" lon="-0.46401504"><ele>129.8</ele><time>2022-11-01T15:15:46.0000000+00:00</time></trkpt><trkpt lat="39.54444436" lon="-0.46398469"><ele>129.4</ele><time>2022-11-01T15:15:47.0000000+00:00</time></trkpt><trkpt lat="39.54444135" lon="-0.46395829"><ele>129.0</ele><time>2022-11-01T15:15:48.0000000+00:00</time></trkpt><trkpt lat="39.54444562" lon="-0.46392568"><ele>128.8</ele><time>2022-11-01T15:15:49.0000000+00:00</time></trkpt><trkpt lat="39.54445493" lon="-0.46388914"><ele>128.6</ele><time>2022-11-01T15:15:50.0000000+00:00</time></trkpt><trkpt lat="39.54446725" lon="-0.46384723"><ele>128.4</ele><time>2022-11-01T15:15:51.0000000+00:00</time></trkpt><trkpt lat="39.54447831" lon="-0.46380633"><ele>128.4</ele><time>2022-11-01T15:15:52.0000000+00:00</time></trkpt><trkpt lat="39.54448066" lon="-0.46377045"><ele>128.2</ele><time>2022-11-01T15:15:53.0000000+00:00</time></trkpt><trkpt lat="39.54447915" lon="-0.46374204"><ele>128.0</ele><time>2022-11-01T15:15:54.0000000+00:00</time></trkpt><trkpt lat="39.5444825" lon="-0.4637101"><ele>127.8</ele><time>2022-11-01T15:15:55.0000000+00:00</time></trkpt><trkpt lat="39.54449097" lon="-0.46367792"><ele>127.6</ele><time>2022-11-01T15:15:56.0000000+00:00</time></trkpt><trkpt lat="39.54450195" lon="-0.46364271"><ele>127.4</ele><time>2022-11-01T15:15:57.0000000+00:00</time></trkpt><trkpt lat="39.54451201" lon="-0.46360952"><ele>127.2</ele><time>2022-11-01T15:15:58.0000000+00:00</time></trkpt><trkpt lat="39.54452776" lon="-0.46355621"><ele>127.2</ele><time>2022-11-01T15:15:59.0000000+00:00</time></trkpt><trkpt lat="39.544539" lon="-0.46350558"><ele>127.2</ele><time>2022-11-01T15:16:00.0000000+00:00</time></trkpt><trkpt lat="39.5445488" lon="-0.46345429"><ele>127.0</ele><time>2022-11-01T15:16:01.0000000+00:00</time></trkpt><trkpt lat="39.54455568" lon="-0.46339855"><ele>126.8</ele><time>2022-11-01T15:16:02.0000000+00:00</time></trkpt><trkpt lat="39.54456247" lon="-0.4633382"><ele>126.8</ele><time>2022-11-01T15:16:03.0000000+00:00</time></trkpt><trkpt lat="39.54457143" lon="-0.46327349"><ele>126.6</ele><time>2022-11-01T15:16:04.0000000+00:00</time></trkpt><trkpt lat="39.54458275" lon="-0.46320744"><ele>126.4</ele><time>2022-11-01T15:16:05.0000000+00:00</time></trkpt><trkpt lat="39.54459599" lon="-0.46315095"><ele>126.0</ele><time>2022-11-01T15:16:06.0000000+00:00</time></trkpt><trkpt lat="39.54461795" lon="-0.46308062"><ele>125.8</ele><time>2022-11-01T15:16:07.0000000+00:00</time></trkpt><trkpt lat="39.54465391" lon="-0.46299957"><ele>125.4</ele><time>2022-11-01T15:16:08.0000000+00:00</time></trkpt><trkpt lat="39.5446835" lon="-0.46295146"><ele>125.2</ele><time>2022-11-01T15:16:09.0000000+00:00</time></trkpt><trkpt lat="39.54473656" lon="-0.46288759"><ele>124.8</ele><time>2022-11-01T15:16:10.0000000+00:00</time></trkpt><trkpt lat="39.544784" lon="-0.46284534"><ele>124.4</ele><time>2022-11-01T15:16:11.0000000+00:00</time></trkpt><trkpt lat="39.5448301" lon="-0.46280268"><ele>124.0</ele><time>2022-11-01T15:16:12.0000000+00:00</time></trkpt><trkpt lat="39.54486371" lon="-0.4627632"><ele>123.8</ele><time>2022-11-01T15:16:13.0000000+00:00</time></trkpt><trkpt lat="39.54490244" lon="-0.46269899"><ele>123.4</ele><time>2022-11-01T15:16:14.0000000+00:00</time></trkpt><trkpt lat="39.5449114" lon="-0.46264996"><ele>123.2</ele><time>2022-11-01T15:16:15.0000000+00:00</time></trkpt><trkpt lat="39.54491107" lon="-0.46257611"><ele>123.0</ele><time>2022-11-01T15:16:16.0000000+00:00</time></trkpt><trkpt lat="39.54488492" lon="-0.46251845"><ele>122.8</ele><time>2022-11-01T15:16:17.0000000+00:00</time></trkpt><trkpt lat="39.54484913" lon="-0.46246539"><ele>122.4</ele><time>2022-11-01T15:16:18.0000000+00:00</time></trkpt><trkpt lat="39.54480856" lon="-0.46241627"><ele>122.2</ele><time>2022-11-01T15:16:19.0000000+00:00</time></trkpt><trkpt lat="39.54477729" lon="-0.46236908"><ele>122.0</ele><time>2022-11-01T15:16:20.0000000+00:00</time></trkpt><trkpt lat="39.54474771" lon="-0.46232164"><ele>121.8</ele><time>2022-11-01T15:16:21.0000000+00:00</time></trkpt><trkpt lat="39.54471954" lon="-0.46227126"><ele>121.8</ele><time>2022-11-01T15:16:22.0000000+00:00</time></trkpt><trkpt lat="39.54468886" lon="-0.46222332"><ele>121.8</ele><time>2022-11-01T15:16:23.0000000+00:00</time></trkpt><trkpt lat="39.5446581" lon="-0.46217789"><ele>121.8</ele><time>2022-11-01T15:16:24.0000000+00:00</time></trkpt><trkpt lat="39.54462575" lon="-0.46212777"><ele>121.6</ele><time>2022-11-01T15:16:25.0000000+00:00</time></trkpt><trkpt lat="39.54459415" lon="-0.46207597"><ele>121.6</ele><time>2022-11-01T15:16:26.0000000+00:00</time></trkpt><trkpt lat="39.54456624" lon="-0.46202802"><ele>121.6</ele><time>2022-11-01T15:16:27.0000000+00:00</time></trkpt><trkpt lat="39.54454302" lon="-0.46199299"><ele>121.6</ele><time>2022-11-01T15:16:28.0000000+00:00</time></trkpt><trkpt lat="39.54450295" lon="-0.46194571"><ele>121.6</ele><time>2022-11-01T15:16:29.0000000+00:00</time></trkpt><trkpt lat="39.54446188" lon="-0.46190891"><ele>121.2</ele><time>2022-11-01T15:16:30.0000000+00:00</time></trkpt><trkpt lat="39.54442584" lon="-0.4618696"><ele>121.2</ele><time>2022-11-01T15:16:31.0000000+00:00</time></trkpt><trkpt lat="39.54439717" lon="-0.46183423"><ele>121.0</ele><time>2022-11-01T15:16:32.0000000+00:00</time></trkpt><trkpt lat="39.5443737" lon="-0.46178956"><ele>121.0</ele><time>2022-11-01T15:16:33.0000000+00:00</time></trkpt><trkpt lat="39.54434915" lon="-0.4617401"><ele>120.8</ele><time>2022-11-01T15:16:34.0000000+00:00</time></trkpt><trkpt lat="39.54432392" lon="-0.4616909"><ele>120.8</ele><time>2022-11-01T15:16:35.0000000+00:00</time></trkpt><trkpt lat="39.54430455" lon="-0.46164723"><ele>120.8</ele><time>2022-11-01T15:16:36.0000000+00:00</time></trkpt><trkpt lat="39.5442727" lon="-0.46158747"><ele>120.8</ele><time>2022-11-01T15:16:37.0000000+00:00</time></trkpt><trkpt lat="39.54424521" lon="-0.46153869"><ele>120.6</ele><time>2022-11-01T15:16:38.0000000+00:00</time></trkpt><trkpt lat="39.5442121" lon="-0.46149368"><ele>120.4</ele><time>2022-11-01T15:16:39.0000000+00:00</time></trkpt><trkpt lat="39.54417572" lon="-0.46144925"><ele>120.4</ele><time>2022-11-01T15:16:40.0000000+00:00</time></trkpt><trkpt lat="39.54414278" lon="-0.46140667"><ele>120.2</ele><time>2022-11-01T15:16:41.0000000+00:00</time></trkpt><trkpt lat="39.54410699" lon="-0.46136744"><ele>120.2</ele><time>2022-11-01T15:16:42.0000000+00:00</time></trkpt><trkpt lat="39.54406969" lon="-0.46132822"><ele>120.0</ele><time>2022-11-01T15:16:43.0000000+00:00</time></trkpt><trkpt lat="39.54403013" lon="-0.46128815"><ele>120.0</ele><time>2022-11-01T15:16:44.0000000+00:00</time></trkpt><trkpt lat="39.54398923" lon="-0.46124599"><ele>120.0</ele><time>2022-11-01T15:16:45.0000000+00:00</time></trkpt><trkpt lat="39.54394891" lon="-0.46119729"><ele>120.0</ele><time>2022-11-01T15:16:46.0000000+00:00</time></trkpt><trkpt lat="39.54391195" lon="-0.46114985"><ele>119.8</ele><time>2022-11-01T15:16:47.0000000+00:00</time></trkpt><trkpt lat="39.54388797" lon="-0.46111951"><ele>119.8</ele><time>2022-11-01T15:16:48.0000000+00:00</time></trkpt><trkpt lat="39.54385076" lon="-0.46106335"><ele>119.6</ele><time>2022-11-01T15:16:49.0000000+00:00</time></trkpt><trkpt lat="39.54381639" lon="-0.4610206"><ele>119.8</ele><time>2022-11-01T15:16:50.0000000+00:00</time></trkpt><trkpt lat="39.54378035" lon="-0.46097618"><ele>119.8</ele><time>2022-11-01T15:16:51.0000000+00:00</time></trkpt><trkpt lat="39.54374313" lon="-0.46092723"><ele>119.6</ele><time>2022-11-01T15:16:52.0000000+00:00</time></trkpt><trkpt lat="39.54370449" lon="-0.46088054"><ele>119.6</ele><time>2022-11-01T15:16:53.0000000+00:00</time></trkpt><trkpt lat="39.54366929" lon="-0.46083352"><ele>119.6</ele><time>2022-11-01T15:16:54.0000000+00:00</time></trkpt><trkpt lat="39.54363367" lon="-0.46078918"><ele>119.6</ele><time>2022-11-01T15:16:55.0000000+00:00</time></trkpt><trkpt lat="39.54359653" lon="-0.46074651"><ele>119.6</ele><time>2022-11-01T15:16:56.0000000+00:00</time></trkpt><trkpt lat="39.54356058" lon="-0.46070494"><ele>119.6</ele><time>2022-11-01T15:16:57.0000000+00:00</time></trkpt><trkpt lat="39.54352655" lon="-0.46066454"><ele>119.4</ele><time>2022-11-01T15:16:58.0000000+00:00</time></trkpt><trkpt lat="39.5434905" lon="-0.46062062"><ele>119.4</ele><time>2022-11-01T15:16:59.0000000+00:00</time></trkpt><trkpt lat="39.54345278" lon="-0.46057418"><ele>119.4</ele><time>2022-11-01T15:17:00.0000000+00:00</time></trkpt><trkpt lat="39.54341733" lon="-0.46052481"><ele>119.4</ele><time>2022-11-01T15:17:01.0000000+00:00</time></trkpt><trkpt lat="39.54338003" lon="-0.46047578"><ele>119.4</ele><time>2022-11-01T15:17:02.0000000+00:00</time></trkpt><trkpt lat="39.54334298" lon="-0.46043085"><ele>119.4</ele><time>2022-11-01T15:17:03.0000000+00:00</time></trkpt><trkpt lat="39.54330526" lon="-0.46039271"><ele>119.4</ele><time>2022-11-01T15:17:04.0000000+00:00</time></trkpt><trkpt lat="39.5432652" lon="-0.46035977"><ele>119.4</ele><time>2022-11-01T15:17:05.0000000+00:00</time></trkpt><trkpt lat="39.54322178" lon="-0.46033647"><ele>119.4</ele><time>2022-11-01T15:17:06.0000000+00:00</time></trkpt><trkpt lat="39.5431813" lon="-0.46032222"><ele>119.4</ele><time>2022-11-01T15:17:07.0000000+00:00</time></trkpt><trkpt lat="39.54314358" lon="-0.46030604"><ele>119.4</ele><time>2022-11-01T15:17:08.0000000+00:00</time></trkpt><trkpt lat="39.54311801" lon="-0.46028601"><ele>119.4</ele><time>2022-11-01T15:17:09.0000000+00:00</time></trkpt><trkpt lat="39.54310058" lon="-0.46026019"><ele>119.4</ele><time>2022-11-01T15:17:10.0000000+00:00</time></trkpt><trkpt lat="39.54308323" lon="-0.46022985"><ele>119.4</ele><time>2022-11-01T15:17:11.0000000+00:00</time></trkpt><trkpt lat="39.54307124" lon="-0.46018291"><ele>119.4</ele><time>2022-11-01T15:17:12.0000000+00:00</time></trkpt><trkpt lat="39.54306227" lon="-0.4601379"><ele>119.4</ele><time>2022-11-01T15:17:13.0000000+00:00</time></trkpt><trkpt lat="39.54305272" lon="-0.46008753"><ele>119.4</ele><time>2022-11-01T15:17:14.0000000+00:00</time></trkpt><trkpt lat="39.54304098" lon="-0.46003321"><ele>119.2</ele><time>2022-11-01T15:17:15.0000000+00:00</time></trkpt><trkpt lat="39.54303361" lon="-0.45998099"><ele>119.0</ele><time>2022-11-01T15:17:16.0000000+00:00</time></trkpt><trkpt lat="39.54302522" lon="-0.4599219"><ele>119.0</ele><time>2022-11-01T15:17:17.0000000+00:00</time></trkpt><trkpt lat="39.54300846" lon="-0.45986348"><ele>118.8</ele><time>2022-11-01T15:17:18.0000000+00:00</time></trkpt><trkpt lat="39.54298558" lon="-0.45981084"><ele>118.8</ele><time>2022-11-01T15:17:19.0000000+00:00</time></trkpt><trkpt lat="39.54295171" lon="-0.45976365"><ele>118.6</ele><time>2022-11-01T15:17:20.0000000+00:00</time></trkpt><trkpt lat="39.5429119" lon="-0.4597266"><ele>118.4</ele><time>2022-11-01T15:17:21.0000000+00:00</time></trkpt><trkpt lat="39.54287376" lon="-0.45969752"><ele>118.2</ele><time>2022-11-01T15:17:22.0000000+00:00</time></trkpt><trkpt lat="39.54284409" lon="-0.45967346"><ele>118.2</ele><time>2022-11-01T15:17:23.0000000+00:00</time></trkpt><trkpt lat="39.54280201" lon="-0.45963264"><ele>118.0</ele><time>2022-11-01T15:17:24.0000000+00:00</time></trkpt><trkpt lat="39.54276916" lon="-0.45959383"><ele>118.0</ele><time>2022-11-01T15:17:25.0000000+00:00</time></trkpt><trkpt lat="39.54274175" lon="-0.45955528"><ele>117.8</ele><time>2022-11-01T15:17:26.0000000+00:00</time></trkpt><trkpt lat="39.54271811" lon="-0.45951563"><ele>117.8</ele><time>2022-11-01T15:17:27.0000000+00:00</time></trkpt><trkpt lat="39.54270001" lon="-0.45946752"><ele>117.8</ele><time>2022-11-01T15:17:28.0000000+00:00</time></trkpt><trkpt lat="39.54268349" lon="-0.45941329"><ele>117.6</ele><time>2022-11-01T15:17:29.0000000+00:00</time></trkpt><trkpt lat="39.54266572" lon="-0.45935797"><ele>117.6</ele><time>2022-11-01T15:17:30.0000000+00:00</time></trkpt><trkpt lat="39.54264469" lon="-0.45930189"><ele>117.6</ele><time>2022-11-01T15:17:31.0000000+00:00</time></trkpt><trkpt lat="39.54262557" lon="-0.45925738"><ele>117.6</ele><time>2022-11-01T15:17:32.0000000+00:00</time></trkpt><trkpt lat="39.54259624" lon="-0.45919133"><ele>117.4</ele><time>2022-11-01T15:17:33.0000000+00:00</time></trkpt><trkpt lat="39.54256749" lon="-0.45913492"><ele>117.4</ele><time>2022-11-01T15:17:34.0000000+00:00</time></trkpt><trkpt lat="39.54254226" lon="-0.4590926"><ele>117.2</ele><time>2022-11-01T15:17:35.0000000+00:00</time></trkpt><trkpt lat="39.5425011" lon="-0.45903786"><ele>117.0</ele><time>2022-11-01T15:17:36.0000000+00:00</time></trkpt><trkpt lat="39.54246431" lon="-0.45899469"><ele>117.0</ele><time>2022-11-01T15:17:37.0000000+00:00</time></trkpt><trkpt lat="39.54243145" lon="-0.45895991"><ele>116.8</ele><time>2022-11-01T15:17:38.0000000+00:00</time></trkpt><trkpt lat="39.54238275" lon="-0.45890836"><ele>116.8</ele><time>2022-11-01T15:17:39.0000000+00:00</time></trkpt><trkpt lat="39.5423447" lon="-0.45886947"><ele>116.8</ele><time>2022-11-01T15:17:40.0000000+00:00</time></trkpt><trkpt lat="39.54230539" lon="-0.45883359"><ele>116.8</ele><time>2022-11-01T15:17:41.0000000+00:00</time></trkpt><trkpt lat="39.54226457" lon="-0.45880602"><ele>116.6</ele><time>2022-11-01T15:17:42.0000000+00:00</time></trkpt><trkpt lat="39.54222433" lon="-0.4587807"><ele>116.6</ele><time>2022-11-01T15:17:43.0000000+00:00</time></trkpt><trkpt lat="39.54219659" lon="-0.45875891"><ele>116.4</ele><time>2022-11-01T15:17:44.0000000+00:00</time></trkpt><trkpt lat="39.54215367" lon="-0.4587196"><ele>116.4</ele><time>2022-11-01T15:17:45.0000000+00:00</time></trkpt><trkpt lat="39.54212233" lon="-0.45868867"><ele>116.4</ele><time>2022-11-01T15:17:46.0000000+00:00</time></trkpt><trkpt lat="39.54208343" lon="-0.45863796"><ele>116.4</ele><time>2022-11-01T15:17:47.0000000+00:00</time></trkpt><trkpt lat="39.54205586" lon="-0.45859018"><ele>116.4</ele><time>2022-11-01T15:17:48.0000000+00:00</time></trkpt><trkpt lat="39.54203205" lon="-0.45853931"><ele>116.2</ele><time>2022-11-01T15:17:49.0000000+00:00</time></trkpt><trkpt lat="39.54201118" lon="-0.45848466"><ele>116.2</ele><time>2022-11-01T15:17:50.0000000+00:00</time></trkpt><trkpt lat="39.54199618" lon="-0.45842464"><ele>116.2</ele><time>2022-11-01T15:17:51.0000000+00:00</time></trkpt><trkpt lat="39.54198176" lon="-0.45836086"><ele>116.0</ele><time>2022-11-01T15:17:52.0000000+00:00</time></trkpt><trkpt lat="39.54195201" lon="-0.45830285"><ele>115.8</ele><time>2022-11-01T15:17:53.0000000+00:00</time></trkpt><trkpt lat="39.54192074" lon="-0.45825742"><ele>115.8</ele><time>2022-11-01T15:17:54.0000000+00:00</time></trkpt><trkpt lat="39.54189736" lon="-0.45821903"><ele>115.6</ele><time>2022-11-01T15:17:55.0000000+00:00</time></trkpt><trkpt lat="39.54188386" lon="-0.4581783"><ele>115.6</ele><time>2022-11-01T15:17:56.0000000+00:00</time></trkpt><trkpt lat="39.54187187" lon="-0.45813806"><ele>115.4</ele><time>2022-11-01T15:17:57.0000000+00:00</time></trkpt><trkpt lat="39.54185888" lon="-0.45809649"><ele>115.4</ele><time>2022-11-01T15:17:58.0000000+00:00</time></trkpt><trkpt lat="39.54184614" lon="-0.45804687"><ele>115.2</ele><time>2022-11-01T15:17:59.0000000+00:00</time></trkpt><trkpt lat="39.54183457" lon="-0.45798845"><ele>115.0</ele><time>2022-11-01T15:18:00.0000000+00:00</time></trkpt><trkpt lat="39.54182125" lon="-0.45792466"><ele>115.0</ele><time>2022-11-01T15:18:01.0000000+00:00</time></trkpt><trkpt lat="39.54180474" lon="-0.45785476"><ele>115.0</ele><time>2022-11-01T15:18:02.0000000+00:00</time></trkpt><trkpt lat="39.54178512" lon="-0.4577846"><ele>114.8</ele><time>2022-11-01T15:18:03.0000000+00:00</time></trkpt><trkpt lat="39.54176467" lon="-0.45771327"><ele>114.8</ele><time>2022-11-01T15:18:04.0000000+00:00</time></trkpt><trkpt lat="39.54174673" lon="-0.45763934"><ele>114.8</ele><time>2022-11-01T15:18:05.0000000+00:00</time></trkpt><trkpt lat="39.54172913" lon="-0.45756474"><ele>114.8</ele><time>2022-11-01T15:18:06.0000000+00:00</time></trkpt><trkpt lat="39.5417179" lon="-0.45750909"><ele>114.8</ele><time>2022-11-01T15:18:07.0000000+00:00</time></trkpt><trkpt lat="39.54169091" lon="-0.45742393"><ele>114.8</ele><time>2022-11-01T15:18:08.0000000+00:00</time></trkpt><trkpt lat="39.54166258" lon="-0.45735536"><ele>114.4</ele><time>2022-11-01T15:18:09.0000000+00:00</time></trkpt><trkpt lat="39.54163349" lon="-0.45729132"><ele>114.2</ele><time>2022-11-01T15:18:10.0000000+00:00</time></trkpt><trkpt lat="39.54160248" lon="-0.45722771"><ele>113.8</ele><time>2022-11-01T15:18:11.0000000+00:00</time></trkpt><trkpt lat="39.54157214" lon="-0.457164"><ele>113.6</ele><time>2022-11-01T15:18:12.0000000+00:00</time></trkpt><trkpt lat="39.54154305" lon="-0.45709921"><ele>113.4</ele><time>2022-11-01T15:18:13.0000000+00:00</time></trkpt><trkpt lat="39.54151807" lon="-0.45704733"><ele>113.4</ele><time>2022-11-01T15:18:14.0000000+00:00</time></trkpt><trkpt lat="39.54148924" lon="-0.45698237"><ele>113.2</ele><time>2022-11-01T15:18:15.0000000+00:00</time></trkpt><trkpt lat="39.54146049" lon="-0.456919"><ele>113.2</ele><time>2022-11-01T15:18:16.0000000+00:00</time></trkpt><trkpt lat="39.54143224" lon="-0.45685463"><ele>113.2</ele><time>2022-11-01T15:18:17.0000000+00:00</time></trkpt><trkpt lat="39.54140534" lon="-0.45678766"><ele>113.2</ele><time>2022-11-01T15:18:18.0000000+00:00</time></trkpt><trkpt lat="39.54137625" lon="-0.4567258"><ele>113.0</ele><time>2022-11-01T15:18:19.0000000+00:00</time></trkpt><trkpt lat="39.54134742" lon="-0.45666763"><ele>112.8</ele><time>2022-11-01T15:18:20.0000000+00:00</time></trkpt><trkpt lat="39.54131582" lon="-0.45660317"><ele>112.8</ele><time>2022-11-01T15:18:21.0000000+00:00</time></trkpt><trkpt lat="39.5412926" lon="-0.45655523"><ele>112.6</ele><time>2022-11-01T15:18:22.0000000+00:00</time></trkpt><trkpt lat="39.54126913" lon="-0.45651432"><ele>112.4</ele><time>2022-11-01T15:18:23.0000000+00:00</time></trkpt><trkpt lat="39.54123904" lon="-0.45648096"><ele>112.4</ele><time>2022-11-01T15:18:24.0000000+00:00</time></trkpt><trkpt lat="39.54121222" lon="-0.45646202"><ele>112.2</ele><time>2022-11-01T15:18:25.0000000+00:00</time></trkpt><trkpt lat="39.54117349" lon="-0.45644299"><ele>112.2</ele><time>2022-11-01T15:18:26.0000000+00:00</time></trkpt><trkpt lat="39.54112429" lon="-0.45642908"><ele>112.2</ele><time>2022-11-01T15:18:27.0000000+00:00</time></trkpt><trkpt lat="39.54108314" lon="-0.45642774"><ele>112.2</ele><time>2022-11-01T15:18:28.0000000+00:00</time></trkpt><trkpt lat="39.54105045" lon="-0.456444"><ele>112.4</ele><time>2022-11-01T15:18:29.0000000+00:00</time></trkpt><trkpt lat="39.54102187" lon="-0.4564673"><ele>112.6</ele><time>2022-11-01T15:18:30.0000000+00:00</time></trkpt><trkpt lat="39.54099789" lon="-0.45648993"><ele>112.6</ele><time>2022-11-01T15:18:31.0000000+00:00</time></trkpt><trkpt lat="39.54097434" lon="-0.45651281"><ele>112.8</ele><time>2022-11-01T15:18:32.0000000+00:00</time></trkpt><trkpt lat="39.54095054" lon="-0.45653762"><ele>112.8</ele><time>2022-11-01T15:18:33.0000000+00:00</time></trkpt><trkpt lat="39.54092589" lon="-0.45655875"><ele>113.0</ele><time>2022-11-01T15:18:34.0000000+00:00</time></trkpt><trkpt lat="39.5409005" lon="-0.45657928"><ele>113.0</ele><time>2022-11-01T15:18:35.0000000+00:00</time></trkpt><trkpt lat="39.54088063" lon="-0.45659529"><ele>113.2</ele><time>2022-11-01T15:18:36.0000000+00:00</time></trkpt><trkpt lat="39.54084853" lon="-0.45661172"><ele>113.4</ele><time>2022-11-01T15:18:37.0000000+00:00</time></trkpt><trkpt lat="39.54082036" lon="-0.45661524"><ele>113.6</ele><time>2022-11-01T15:18:38.0000000+00:00</time></trkpt><trkpt lat="39.54079648" lon="-0.45661289"><ele>113.6</ele><time>2022-11-01T15:18:39.0000000+00:00</time></trkpt><trkpt lat="39.54077669" lon="-0.45660954"><ele>113.8</ele><time>2022-11-01T15:18:40.0000000+00:00</time></trkpt><trkpt lat="39.54074459" lon="-0.45660636"><ele>114.0</ele><time>2022-11-01T15:18:41.0000000+00:00</time></trkpt><trkpt lat="39.54071542" lon="-0.4566051"><ele>114.2</ele><time>2022-11-01T15:18:42.0000000+00:00</time></trkpt><trkpt lat="39.5406829" lon="-0.45660032"><ele>114.4</ele><time>2022-11-01T15:18:43.0000000+00:00</time></trkpt><trkpt lat="39.54065231" lon="-0.4566061"><ele>114.4</ele><time>2022-11-01T15:18:44.0000000+00:00</time></trkpt><trkpt lat="39.54062272" lon="-0.45662295"><ele>114.6</ele><time>2022-11-01T15:18:45.0000000+00:00</time></trkpt><trkpt lat="39.54059363" lon="-0.45664961"><ele>114.8</ele><time>2022-11-01T15:18:46.0000000+00:00</time></trkpt><trkpt lat="39.54056329" lon="-0.4566776"><ele>114.8</ele><time>2022-11-01T15:18:47.0000000+00:00</time></trkpt><trkpt lat="39.54054108" lon="-0.45670166"><ele>115.0</ele><time>2022-11-01T15:18:48.0000000+00:00</time></trkpt><trkpt lat="39.54051468" lon="-0.45673292"><ele>115.0</ele><time>2022-11-01T15:18:49.0000000+00:00</time></trkpt><trkpt lat="39.5404902" lon="-0.45676754"><ele>115.2</ele><time>2022-11-01T15:18:50.0000000+00:00</time></trkpt><trkpt lat="39.54046564" lon="-0.45679964"><ele>115.2</ele><time>2022-11-01T15:18:51.0000000+00:00</time></trkpt><trkpt lat="39.54043781" lon="-0.45683292"><ele>115.6</ele><time>2022-11-01T15:18:52.0000000+00:00</time></trkpt><trkpt lat="39.5404182" lon="-0.45685429"><ele>116.0</ele><time>2022-11-01T15:18:53.0000000+00:00</time></trkpt><trkpt lat="39.5403975" lon="-0.45686997"><ele>116.2</ele><time>2022-11-01T15:18:54.0000000+00:00</time></trkpt><trkpt lat="39.54038241" lon="-0.45688857"><ele>116.6</ele><time>2022-11-01T15:18:55.0000000+00:00</time></trkpt><trkpt lat="39.54036271" lon="-0.45691171"><ele>116.8</ele><time>2022-11-01T15:18:56.0000000+00:00</time></trkpt><trkpt lat="39.54033975" lon="-0.45694465"><ele>117.0</ele><time>2022-11-01T15:18:57.0000000+00:00</time></trkpt><trkpt lat="39.54032013" lon="-0.45696183"><ele>117.2</ele><time>2022-11-01T15:18:58.0000000+00:00</time></trkpt><trkpt lat="39.5402944" lon="-0.45698178"><ele>117.2</ele><time>2022-11-01T15:18:59.0000000+00:00</time></trkpt><trkpt lat="39.54027018" lon="-0.45699871"><ele>117.4</ele><time>2022-11-01T15:19:00.0000000+00:00</time></trkpt><trkpt lat="39.54024595" lon="-0.45701388"><ele>117.4</ele><time>2022-11-01T15:19:01.0000000+00:00</time></trkpt><trkpt lat="39.54022215" lon="-0.45703132"><ele>117.4</ele><time>2022-11-01T15:19:02.0000000+00:00</time></trkpt><trkpt lat="39.54019315" lon="-0.45704523"><ele>117.4</ele><time>2022-11-01T15:19:03.0000000+00:00</time></trkpt><trkpt lat="39.54016532" lon="-0.45706149"><ele>117.6</ele><time>2022-11-01T15:19:04.0000000+00:00</time></trkpt><trkpt lat="39.54013757" lon="-0.4570765"><ele>117.8</ele><time>2022-11-01T15:19:05.0000000+00:00</time></trkpt><trkpt lat="39.540111" lon="-0.45709418"><ele>117.8</ele><time>2022-11-01T15:19:06.0000000+00:00</time></trkpt><trkpt lat="39.54008477" lon="-0.45711011"><ele>118.0</ele><time>2022-11-01T15:19:07.0000000+00:00</time></trkpt><trkpt lat="39.54005929" lon="-0.45712461"><ele>118.0</ele><time>2022-11-01T15:19:08.0000000+00:00</time></trkpt><trkpt lat="39.54003641" lon="-0.45712578"><ele>118.2</ele><time>2022-11-01T15:19:09.0000000+00:00</time></trkpt><trkpt lat="39.54001101" lon="-0.45711723"><ele>118.2</ele><time>2022-11-01T15:19:10.0000000+00:00</time></trkpt><trkpt lat="39.53998293" lon="-0.45710709"><ele>118.0</ele><time>2022-11-01T15:19:11.0000000+00:00</time></trkpt><trkpt lat="39.53995787" lon="-0.45710717"><ele>118.0</ele><time>2022-11-01T15:19:12.0000000+00:00</time></trkpt><trkpt lat="39.53993934" lon="-0.45711597"><ele>118.0</ele><time>2022-11-01T15:19:13.0000000+00:00</time></trkpt><trkpt lat="39.53992719" lon="-0.45713576"><ele>118.2</ele><time>2022-11-01T15:19:14.0000000+00:00</time></trkpt><trkpt lat="39.53991923" lon="-0.45715663"><ele>118.0</ele><time>2022-11-01T15:19:15.0000000+00:00</time></trkpt><trkpt lat="39.53991101" lon="-0.4571723"><ele>118.0</ele><time>2022-11-01T15:19:16.0000000+00:00</time></trkpt><trkpt lat="39.53989324" lon="-0.45719133"><ele>118.0</ele><time>2022-11-01T15:19:17.0000000+00:00</time></trkpt><trkpt lat="39.53987715" lon="-0.45719686"><ele>118.0</ele><time>2022-11-01T15:19:18.0000000+00:00</time></trkpt><trkpt lat="39.53985242" lon="-0.45719686"><ele>117.8</ele><time>2022-11-01T15:19:19.0000000+00:00</time></trkpt><trkpt lat="39.53982744" lon="-0.45719275"><ele>117.8</ele><time>2022-11-01T15:19:20.0000000+00:00</time></trkpt><trkpt lat="39.53980967" lon="-0.45717917"><ele>117.6</ele><time>2022-11-01T15:19:21.0000000+00:00</time></trkpt><trkpt lat="39.53979626" lon="-0.4571552"><ele>117.8</ele><time>2022-11-01T15:19:22.0000000+00:00</time></trkpt><trkpt lat="39.53977975" lon="-0.45712218"><ele>117.8</ele><time>2022-11-01T15:19:23.0000000+00:00</time></trkpt><trkpt lat="39.53976072" lon="-0.45707842"><ele>117.8</ele><time>2022-11-01T15:19:24.0000000+00:00</time></trkpt><trkpt lat="39.53974715" lon="-0.45704691"><ele>118.0</ele><time>2022-11-01T15:19:25.0000000+00:00</time></trkpt><trkpt lat="39.53972317" lon="-0.4569988"><ele>118.2</ele><time>2022-11-01T15:19:26.0000000+00:00</time></trkpt><trkpt lat="39.53970314" lon="-0.4569589"><ele>118.6</ele><time>2022-11-01T15:19:27.0000000+00:00</time></trkpt><trkpt lat="39.53968805" lon="-0.45692721"><ele>118.8</ele><time>2022-11-01T15:19:28.0000000+00:00</time></trkpt><trkpt lat="39.5396645" lon="-0.45687608"><ele>118.8</ele><time>2022-11-01T15:19:29.0000000+00:00</time></trkpt><trkpt lat="39.53964522" lon="-0.45683166"><ele>118.8</ele><time>2022-11-01T15:19:30.0000000+00:00</time></trkpt><trkpt lat="39.5396293" lon="-0.45679361"><ele>119.0</ele><time>2022-11-01T15:19:31.0000000+00:00</time></trkpt><trkpt lat="39.53960256" lon="-0.45673929"><ele>119.0</ele><time>2022-11-01T15:19:32.0000000+00:00</time></trkpt><trkpt lat="39.53957783" lon="-0.45669453"><ele>119.0</ele><time>2022-11-01T15:19:33.0000000+00:00</time></trkpt><trkpt lat="39.53955897" lon="-0.4566574"><ele>119.2</ele><time>2022-11-01T15:19:34.0000000+00:00</time></trkpt><trkpt lat="39.53952964" lon="-0.4566025"><ele>119.4</ele><time>2022-11-01T15:19:35.0000000+00:00</time></trkpt><trkpt lat="39.53951002" lon="-0.45656679"><ele>119.4</ele><time>2022-11-01T15:19:36.0000000+00:00</time></trkpt><trkpt lat="39.53948454" lon="-0.45652555"><ele>119.6</ele><time>2022-11-01T15:19:37.0000000+00:00</time></trkpt><trkpt lat="39.53945537" lon="-0.45647987"><ele>119.8</ele><time>2022-11-01T15:19:38.0000000+00:00</time></trkpt><trkpt lat="39.53943299" lon="-0.45645028"><ele>120.0</ele><time>2022-11-01T15:19:39.0000000+00:00</time></trkpt><trkpt lat="39.53940609" lon="-0.45641055"><ele>120.0</ele><time>2022-11-01T15:19:40.0000000+00:00</time></trkpt><trkpt lat="39.5393806" lon="-0.45637376"><ele>120.2</ele><time>2022-11-01T15:19:41.0000000+00:00</time></trkpt><trkpt lat="39.53935579" lon="-0.45633637"><ele>120.2</ele><time>2022-11-01T15:19:42.0000000+00:00</time></trkpt><trkpt lat="39.53932981" lon="-0.45629681"><ele>120.4</ele><time>2022-11-01T15:19:43.0000000+00:00</time></trkpt><trkpt lat="39.53930156" lon="-0.45625775"><ele>120.4</ele><time>2022-11-01T15:19:44.0000000+00:00</time></trkpt><trkpt lat="39.53927231" lon="-0.45622012"><ele>120.6</ele><time>2022-11-01T15:19:45.0000000+00:00</time></trkpt><trkpt lat="39.53924482" lon="-0.45618407"><ele>120.8</ele><time>2022-11-01T15:19:46.0000000+00:00</time></trkpt><trkpt lat="39.53921842" lon="-0.4561487"><ele>121.0</ele><time>2022-11-01T15:19:47.0000000+00:00</time></trkpt><trkpt lat="39.53918262" lon="-0.45610067"><ele>121.2</ele><time>2022-11-01T15:19:48.0000000+00:00</time></trkpt><trkpt lat="39.53915748" lon="-0.45606857"><ele>121.4</ele><time>2022-11-01T15:19:49.0000000+00:00</time></trkpt><trkpt lat="39.53912722" lon="-0.45602666"><ele>121.4</ele><time>2022-11-01T15:19:50.0000000+00:00</time></trkpt><trkpt lat="39.5390947" lon="-0.45598433"><ele>121.4</ele><time>2022-11-01T15:19:51.0000000+00:00</time></trkpt><trkpt lat="39.53905807" lon="-0.45593245"><ele>121.4</ele><time>2022-11-01T15:19:52.0000000+00:00</time></trkpt><trkpt lat="39.5390346" lon="-0.45589783"><ele>121.6</ele><time>2022-11-01T15:19:53.0000000+00:00</time></trkpt><trkpt lat="39.53899805" lon="-0.45584436"><ele>121.6</ele><time>2022-11-01T15:19:54.0000000+00:00</time></trkpt><trkpt lat="39.538975" lon="-0.45580756"><ele>121.6</ele><time>2022-11-01T15:19:55.0000000+00:00</time></trkpt><trkpt lat="39.53894642" lon="-0.45576381"><ele>121.8</ele><time>2022-11-01T15:19:56.0000000+00:00</time></trkpt><trkpt lat="39.53890937" lon="-0.45571201"><ele>121.8</ele><time>2022-11-01T15:19:57.0000000+00:00</time></trkpt><trkpt lat="39.5388828" lon="-0.45567722"><ele>121.8</ele><time>2022-11-01T15:19:58.0000000+00:00</time></trkpt><trkpt lat="39.53884919" lon="-0.45563397"><ele>121.8</ele><time>2022-11-01T15:19:59.0000000+00:00</time></trkpt><trkpt lat="39.53881047" lon="-0.455581"><ele>121.8</ele><time>2022-11-01T15:20:00.0000000+00:00</time></trkpt><trkpt lat="39.53877635" lon="-0.45553951"><ele>122.0</ele><time>2022-11-01T15:20:01.0000000+00:00</time></trkpt><trkpt lat="39.53875188" lon="-0.4555074"><ele>122.2</ele><time>2022-11-01T15:20:02.0000000+00:00</time></trkpt><trkpt lat="39.5387233" lon="-0.45546868"><ele>122.6</ele><time>2022-11-01T15:20:03.0000000+00:00</time></trkpt><trkpt lat="39.53869513" lon="-0.45543423"><ele>122.8</ele><time>2022-11-01T15:20:04.0000000+00:00</time></trkpt><trkpt lat="39.5386694" lon="-0.45539836"><ele>122.8</ele><time>2022-11-01T15:20:05.0000000+00:00</time></trkpt><trkpt lat="39.53864291" lon="-0.45536215"><ele>122.8</ele><time>2022-11-01T15:20:06.0000000+00:00</time></trkpt><trkpt lat="39.53861609" lon="-0.45532602"><ele>122.8</ele><time>2022-11-01T15:20:07.0000000+00:00</time></trkpt><trkpt lat="39.53858759" lon="-0.45528629"><ele>122.8</ele><time>2022-11-01T15:20:08.0000000+00:00</time></trkpt><trkpt lat="39.5385565" lon="-0.4552458"><ele>122.8</ele><time>2022-11-01T15:20:09.0000000+00:00</time></trkpt><trkpt lat="39.53852372" lon="-0.45520532"><ele>122.8</ele><time>2022-11-01T15:20:10.0000000+00:00</time></trkpt><trkpt lat="39.5384902" lon="-0.455164"><ele>122.6</ele><time>2022-11-01T15:20:11.0000000+00:00</time></trkpt><trkpt lat="39.53845776" lon="-0.45512024"><ele>122.4</ele><time>2022-11-01T15:20:12.0000000+00:00</time></trkpt><trkpt lat="39.53842482" lon="-0.45507398"><ele>122.4</ele><time>2022-11-01T15:20:13.0000000+00:00</time></trkpt><trkpt lat="39.53839364" lon="-0.4550262"><ele>122.4</ele><time>2022-11-01T15:20:14.0000000+00:00</time></trkpt><trkpt lat="39.53835919" lon="-0.45497909"><ele>122.6</ele><time>2022-11-01T15:20:15.0000000+00:00</time></trkpt><trkpt lat="39.53832532" lon="-0.45493433"><ele>122.4</ele><time>2022-11-01T15:20:16.0000000+00:00</time></trkpt><trkpt lat="39.53829364" lon="-0.45489041"><ele>122.4</ele><time>2022-11-01T15:20:17.0000000+00:00</time></trkpt><trkpt lat="39.53826145" lon="-0.45484599"><ele>122.2</ele><time>2022-11-01T15:20:18.0000000+00:00</time></trkpt><trkpt lat="39.53822977" lon="-0.45480123"><ele>122.2</ele><time>2022-11-01T15:20:19.0000000+00:00</time></trkpt><trkpt lat="39.53819498" lon="-0.45475186"><ele>122.2</ele><time>2022-11-01T15:20:20.0000000+00:00</time></trkpt><trkpt lat="39.5381602" lon="-0.45470408"><ele>122.2</ele><time>2022-11-01T15:20:21.0000000+00:00</time></trkpt><trkpt lat="39.53812734" lon="-0.45465899"><ele>122.2</ele><time>2022-11-01T15:20:22.0000000+00:00</time></trkpt><trkpt lat="39.53809583" lon="-0.45461347"><ele>122.2</ele><time>2022-11-01T15:20:23.0000000+00:00</time></trkpt><trkpt lat="39.5380628" lon="-0.45456754"><ele>122.2</ele><time>2022-11-01T15:20:24.0000000+00:00</time></trkpt><trkpt lat="39.53802735" lon="-0.45451993"><ele>122.2</ele><time>2022-11-01T15:20:25.0000000+00:00</time></trkpt><trkpt lat="39.53799256" lon="-0.45447375"><ele>122.0</ele><time>2022-11-01T15:20:26.0000000+00:00</time></trkpt><trkpt lat="39.53796339" lon="-0.4544336"><ele>121.8</ele><time>2022-11-01T15:20:27.0000000+00:00</time></trkpt><trkpt lat="39.53792534" lon="-0.45438289"><ele>121.8</ele><time>2022-11-01T15:20:28.0000000+00:00</time></trkpt><trkpt lat="39.53788024" lon="-0.4543212"><ele>121.6</ele><time>2022-11-01T15:20:29.0000000+00:00</time></trkpt><trkpt lat="39.53784336" lon="-0.4542673"><ele>121.4</ele><time>2022-11-01T15:20:30.0000000+00:00</time></trkpt><trkpt lat="39.5378064" lon="-0.45421416"><ele>121.2</ele><time>2022-11-01T15:20:31.0000000+00:00</time></trkpt><trkpt lat="39.53776684" lon="-0.4541575"><ele>121.0</ele><time>2022-11-01T15:20:32.0000000+00:00</time></trkpt><trkpt lat="39.53772602" lon="-0.45410092"><ele>120.8</ele><time>2022-11-01T15:20:33.0000000+00:00</time></trkpt><trkpt lat="39.53768176" lon="-0.45404116"><ele>120.4</ele><time>2022-11-01T15:20:34.0000000+00:00</time></trkpt><trkpt lat="39.53763591" lon="-0.45398139"><ele>120.2</ele><time>2022-11-01T15:20:35.0000000+00:00</time></trkpt><trkpt lat="39.53758872" lon="-0.45391928"><ele>119.8</ele><time>2022-11-01T15:20:36.0000000+00:00</time></trkpt><trkpt lat="39.53754966" lon="-0.45386874"><ele>119.6</ele><time>2022-11-01T15:20:37.0000000+00:00</time></trkpt><trkpt lat="39.5374899" lon="-0.45379205"><ele>119.2</ele><time>2022-11-01T15:20:38.0000000+00:00</time></trkpt><trkpt lat="39.53743877" lon="-0.45372583"><ele>119.2</ele><time>2022-11-01T15:20:39.0000000+00:00</time></trkpt><trkpt lat="39.53738957" lon="-0.45365802"><ele>118.8</ele><time>2022-11-01T15:20:40.0000000+00:00</time></trkpt><trkpt lat="39.53733978" lon="-0.4535877"><ele>118.4</ele><time>2022-11-01T15:20:41.0000000+00:00</time></trkpt><trkpt lat="39.53728664" lon="-0.45351419"><ele>118.2</ele><time>2022-11-01T15:20:42.0000000+00:00</time></trkpt><trkpt lat="39.53723325" lon="-0.45344269"><ele>118.0</ele><time>2022-11-01T15:20:43.0000000+00:00</time></trkpt><trkpt lat="39.53717776" lon="-0.45336692"><ele>117.8</ele><time>2022-11-01T15:20:44.0000000+00:00</time></trkpt><trkpt lat="39.53711892" lon="-0.45329081"><ele>117.4</ele><time>2022-11-01T15:20:45.0000000+00:00</time></trkpt><trkpt lat="39.53706116" lon="-0.45321604"><ele>115.0</ele><time>2022-11-01T15:20:46.0000000+00:00</time></trkpt><trkpt lat="39.53700559" lon="-0.45314195"><ele>113.2</ele><time>2022-11-01T15:20:47.0000000+00:00</time></trkpt><trkpt lat="39.53693896" lon="-0.45305167"><ele>112.2</ele><time>2022-11-01T15:20:48.0000000+00:00</time></trkpt><trkpt lat="39.53688582" lon="-0.45297364"><ele>111.4</ele><time>2022-11-01T15:20:49.0000000+00:00</time></trkpt><trkpt lat="39.53684684" lon="-0.45291421"><ele>111.2</ele><time>2022-11-01T15:20:50.0000000+00:00</time></trkpt><trkpt lat="39.53679697" lon="-0.45283961"><ele>110.8</ele><time>2022-11-01T15:20:51.0000000+00:00</time></trkpt><trkpt lat="39.53674651" lon="-0.45276954"><ele>110.8</ele><time>2022-11-01T15:20:52.0000000+00:00</time></trkpt><trkpt lat="39.53668172" lon="-0.45268228"><ele>110.6</ele><time>2022-11-01T15:20:53.0000000+00:00</time></trkpt><trkpt lat="39.53662572" lon="-0.45260366"><ele>110.6</ele><time>2022-11-01T15:20:54.0000000+00:00</time></trkpt><trkpt lat="39.53657552" lon="-0.45253451"><ele>110.4</ele><time>2022-11-01T15:20:55.0000000+00:00</time></trkpt><trkpt lat="39.5365378" lon="-0.45248422"><ele>110.4</ele><time>2022-11-01T15:20:56.0000000+00:00</time></trkpt><trkpt lat="39.53649052" lon="-0.45242462"><ele>110.4</ele><time>2022-11-01T15:20:57.0000000+00:00</time></trkpt><trkpt lat="39.53643445" lon="-0.45235304"><ele>110.4</ele><time>2022-11-01T15:20:58.0000000+00:00</time></trkpt><trkpt lat="39.53638575" lon="-0.45229605"><ele>110.8</ele><time>2022-11-01T15:20:59.0000000+00:00</time></trkpt><trkpt lat="39.53633831" lon="-0.45223519"><ele>111.2</ele><time>2022-11-01T15:21:00.0000000+00:00</time></trkpt><trkpt lat="39.53629196" lon="-0.45217509"><ele>111.4</ele><time>2022-11-01T15:21:01.0000000+00:00</time></trkpt><trkpt lat="39.53625038" lon="-0.45212086"><ele>111.4</ele><time>2022-11-01T15:21:02.0000000+00:00</time></trkpt><trkpt lat="39.5362099" lon="-0.45206948"><ele>111.6</ele><time>2022-11-01T15:21:03.0000000+00:00</time></trkpt><trkpt lat="39.53616933" lon="-0.45201609"><ele>111.8</ele><time>2022-11-01T15:21:04.0000000+00:00</time></trkpt><trkpt lat="39.53613698" lon="-0.45197426"><ele>112.6</ele><time>2022-11-01T15:21:05.0000000+00:00</time></trkpt><trkpt lat="39.53609113" lon="-0.45190629"><ele>113.0</ele><time>2022-11-01T15:21:06.0000000+00:00</time></trkpt><trkpt lat="39.53606204" lon="-0.45186044"><ele>113.4</ele><time>2022-11-01T15:21:07.0000000+00:00</time></trkpt><trkpt lat="39.53602457" lon="-0.45180487"><ele>113.4</ele><time>2022-11-01T15:21:08.0000000+00:00</time></trkpt><trkpt lat="39.53598543" lon="-0.45175131"><ele>113.6</ele><time>2022-11-01T15:21:09.0000000+00:00</time></trkpt><trkpt lat="39.53594604" lon="-0.45169548"><ele>113.8</ele><time>2022-11-01T15:21:10.0000000+00:00</time></trkpt><trkpt lat="39.53590589" lon="-0.45163807"><ele>113.8</ele><time>2022-11-01T15:21:11.0000000+00:00</time></trkpt><trkpt lat="39.53586658" lon="-0.45158216"><ele>113.8</ele><time>2022-11-01T15:21:12.0000000+00:00</time></trkpt><trkpt lat="39.53582877" lon="-0.45152516"><ele>113.8</ele><time>2022-11-01T15:21:13.0000000+00:00</time></trkpt><trkpt lat="39.53578661" lon="-0.45147043"><ele>113.6</ele><time>2022-11-01T15:21:14.0000000+00:00</time></trkpt><trkpt lat="39.53574537" lon="-0.45141494"><ele>113.6</ele><time>2022-11-01T15:21:15.0000000+00:00</time></trkpt><trkpt lat="39.53570447" lon="-0.45135853"><ele>113.6</ele><time>2022-11-01T15:21:16.0000000+00:00</time></trkpt><trkpt lat="39.53566189" lon="-0.45130338"><ele>113.6</ele><time>2022-11-01T15:21:17.0000000+00:00</time></trkpt><trkpt lat="39.53562065" lon="-0.45124697"><ele>113.6</ele><time>2022-11-01T15:21:18.0000000+00:00</time></trkpt><trkpt lat="39.5355795" lon="-0.45119274"><ele>113.6</ele><time>2022-11-01T15:21:19.0000000+00:00</time></trkpt><trkpt lat="39.53553759" lon="-0.45113968"><ele>113.6</ele><time>2022-11-01T15:21:20.0000000+00:00</time></trkpt><trkpt lat="39.53549819" lon="-0.45108746"><ele>113.4</ele><time>2022-11-01T15:21:21.0000000+00:00</time></trkpt><trkpt lat="39.5354593" lon="-0.45103499"><ele>113.4</ele><time>2022-11-01T15:21:22.0000000+00:00</time></trkpt><trkpt lat="39.53541907" lon="-0.45098411"><ele>113.0</ele><time>2022-11-01T15:21:23.0000000+00:00</time></trkpt><trkpt lat="39.53538361" lon="-0.45093264"><ele>113.0</ele><time>2022-11-01T15:21:24.0000000+00:00</time></trkpt><trkpt lat="39.53535645" lon="-0.45089199"><ele>112.8</ele><time>2022-11-01T15:21:25.0000000+00:00</time></trkpt><trkpt lat="39.53533248" lon="-0.45085712"><ele>112.8</ele><time>2022-11-01T15:21:26.0000000+00:00</time></trkpt><trkpt lat="39.5353127" lon="-0.4508298"><ele>112.8</ele><time>2022-11-01T15:21:27.0000000+00:00</time></trkpt><trkpt lat="39.53529778" lon="-0.4508075"><ele>112.8</ele><time>2022-11-01T15:21:28.0000000+00:00</time></trkpt><trkpt lat="39.53528135" lon="-0.4507894"><ele>112.8</ele><time>2022-11-01T15:21:29.0000000+00:00</time></trkpt><trkpt lat="39.53526316" lon="-0.45077238"><ele>112.8</ele><time>2022-11-01T15:21:30.0000000+00:00</time></trkpt><trkpt lat="39.53524581" lon="-0.45075453"><ele>112.8</ele><time>2022-11-01T15:21:31.0000000+00:00</time></trkpt><trkpt lat="39.53522888" lon="-0.45073575"><ele>112.8</ele><time>2022-11-01T15:21:32.0000000+00:00</time></trkpt><trkpt lat="39.53521061" lon="-0.45071296"><ele>112.8</ele><time>2022-11-01T15:21:33.0000000+00:00</time></trkpt><trkpt lat="39.53518697" lon="-0.45068789"><ele>112.8</ele><time>2022-11-01T15:21:34.0000000+00:00</time></trkpt><trkpt lat="39.53515478" lon="-0.450663"><ele>112.6</ele><time>2022-11-01T15:21:35.0000000+00:00</time></trkpt><trkpt lat="39.5351164" lon="-0.45064246"><ele>112.4</ele><time>2022-11-01T15:21:36.0000000+00:00</time></trkpt><trkpt lat="39.5350791" lon="-0.45062746"><ele>112.4</ele><time>2022-11-01T15:21:37.0000000+00:00</time></trkpt><trkpt lat="39.53504398" lon="-0.45061899"><ele>112.4</ele><time>2022-11-01T15:21:38.0000000+00:00</time></trkpt><trkpt lat="39.53500902" lon="-0.45060692"><ele>112.2</ele><time>2022-11-01T15:21:39.0000000+00:00</time></trkpt><trkpt lat="39.53497047" lon="-0.45059016"><ele>112.2</ele><time>2022-11-01T15:21:40.0000000+00:00</time></trkpt><trkpt lat="39.53493099" lon="-0.45056426"><ele>112.2</ele><time>2022-11-01T15:21:41.0000000+00:00</time></trkpt><trkpt lat="39.53488531" lon="-0.45052654"><ele>112.2</ele><time>2022-11-01T15:21:42.0000000+00:00</time></trkpt><trkpt lat="39.53484633" lon="-0.45049368"><ele>112.2</ele><time>2022-11-01T15:21:43.0000000+00:00</time></trkpt><trkpt lat="39.53481213" lon="-0.4504682"><ele>112.2</ele><time>2022-11-01T15:21:44.0000000+00:00</time></trkpt><trkpt lat="39.5347605" lon="-0.45043468"><ele>112.2</ele><time>2022-11-01T15:21:45.0000000+00:00</time></trkpt><trkpt lat="39.53471365" lon="-0.45039956"><ele>112.0</ele><time>2022-11-01T15:21:46.0000000+00:00</time></trkpt><trkpt lat="39.53467794" lon="-0.4503698"><ele>111.8</ele><time>2022-11-01T15:21:47.0000000+00:00</time></trkpt><trkpt lat="39.53463377" lon="-0.45032856"><ele>111.8</ele><time>2022-11-01T15:21:48.0000000+00:00</time></trkpt><trkpt lat="39.53458901" lon="-0.45028263"><ele>111.6</ele><time>2022-11-01T15:21:49.0000000+00:00</time></trkpt><trkpt lat="39.5345481" lon="-0.45023527"><ele>111.4</ele><time>2022-11-01T15:21:50.0000000+00:00</time></trkpt><trkpt lat="39.53451323" lon="-0.45018154"><ele>111.2</ele><time>2022-11-01T15:21:51.0000000+00:00</time></trkpt><trkpt lat="39.53448013" lon="-0.45012455"><ele>110.8</ele><time>2022-11-01T15:21:52.0000000+00:00</time></trkpt><trkpt lat="39.5344466" lon="-0.45006679"><ele>110.8</ele><time>2022-11-01T15:21:53.0000000+00:00</time></trkpt><trkpt lat="39.53441508" lon="-0.45000812"><ele>110.4</ele><time>2022-11-01T15:21:54.0000000+00:00</time></trkpt><trkpt lat="39.53438491" lon="-0.4499476"><ele>110.2</ele><time>2022-11-01T15:21:55.0000000+00:00</time></trkpt><trkpt lat="39.53435264" lon="-0.44989094"><ele>110.0</ele><time>2022-11-01T15:21:56.0000000+00:00</time></trkpt><trkpt lat="39.53431726" lon="-0.44983847"><ele>110.0</ele><time>2022-11-01T15:21:57.0000000+00:00</time></trkpt><trkpt lat="39.53427888" lon="-0.44979363"><ele>109.8</ele><time>2022-11-01T15:21:58.0000000+00:00</time></trkpt><trkpt lat="39.5342368" lon="-0.4497601"><ele>109.8</ele><time>2022-11-01T15:21:59.0000000+00:00</time></trkpt><trkpt lat="39.53419196" lon="-0.44973009"><ele>109.6</ele><time>2022-11-01T15:22:00.0000000+00:00</time></trkpt><trkpt lat="39.53414653" lon="-0.44969372"><ele>109.4</ele><time>2022-11-01T15:22:01.0000000+00:00</time></trkpt><trkpt lat="39.53410177" lon="-0.44965097"><ele>109.2</ele><time>2022-11-01T15:22:02.0000000+00:00</time></trkpt><trkpt lat="39.53406388" lon="-0.44959975"><ele>109.2</ele><time>2022-11-01T15:22:03.0000000+00:00</time></trkpt><trkpt lat="39.53403647" lon="-0.449542"><ele>109.2</ele><time>2022-11-01T15:22:04.0000000+00:00</time></trkpt><trkpt lat="39.53401384" lon="-0.44947704"><ele>108.8</ele><time>2022-11-01T15:22:05.0000000+00:00</time></trkpt><trkpt lat="39.53399599" lon="-0.44940923"><ele>108.4</ele><time>2022-11-01T15:22:06.0000000+00:00</time></trkpt><trkpt lat="39.53398174" lon="-0.44933816"><ele>108.2</ele><time>2022-11-01T15:22:07.0000000+00:00</time></trkpt><trkpt lat="39.53396648" lon="-0.4492654"><ele>108.2</ele><time>2022-11-01T15:22:08.0000000+00:00</time></trkpt><trkpt lat="39.53394243" lon="-0.4491965"><ele>108.2</ele><time>2022-11-01T15:22:09.0000000+00:00</time></trkpt><trkpt lat="39.53390814" lon="-0.44913481"><ele>108.2</ele><time>2022-11-01T15:22:10.0000000+00:00</time></trkpt><trkpt lat="39.53386741" lon="-0.44907941"><ele>108.0</ele><time>2022-11-01T15:22:11.0000000+00:00</time></trkpt><trkpt lat="39.53382332" lon="-0.44902534"><ele>108.0</ele><time>2022-11-01T15:22:12.0000000+00:00</time></trkpt><trkpt lat="39.53377713" lon="-0.44897312"><ele>108.0</ele><time>2022-11-01T15:22:13.0000000+00:00</time></trkpt><trkpt lat="39.53372936" lon="-0.44892032"><ele>108.0</ele><time>2022-11-01T15:22:14.0000000+00:00</time></trkpt><trkpt lat="39.53367706" lon="-0.44886449"><ele>108.0</ele><time>2022-11-01T15:22:15.0000000+00:00</time></trkpt><trkpt lat="39.53362224" lon="-0.44881236"><ele>107.6</ele><time>2022-11-01T15:22:16.0000000+00:00</time></trkpt><trkpt lat="39.53355108" lon="-0.44875193"><ele>107.6</ele><time>2022-11-01T15:22:17.0000000+00:00</time></trkpt><trkpt lat="39.5334919" lon="-0.44870616"><ele>106.8</ele><time>2022-11-01T15:22:18.0000000+00:00</time></trkpt><trkpt lat="39.53344597" lon="-0.44866844"><ele>106.4</ele><time>2022-11-01T15:22:19.0000000+00:00</time></trkpt><trkpt lat="39.53339165" lon="-0.44862083"><ele>106.0</ele><time>2022-11-01T15:22:20.0000000+00:00</time></trkpt><trkpt lat="39.53333868" lon="-0.44857222"><ele>105.8</ele><time>2022-11-01T15:22:21.0000000+00:00</time></trkpt><trkpt lat="39.53329191" lon="-0.44852654"><ele>105.0</ele><time>2022-11-01T15:22:22.0000000+00:00</time></trkpt><trkpt lat="39.53324472" lon="-0.44848546"><ele>104.6</ele><time>2022-11-01T15:22:23.0000000+00:00</time></trkpt><trkpt lat="39.53319468" lon="-0.44843744"><ele>104.4</ele><time>2022-11-01T15:22:24.0000000+00:00</time></trkpt><trkpt lat="39.5331438" lon="-0.44838748"><ele>104.2</ele><time>2022-11-01T15:22:25.0000000+00:00</time></trkpt><trkpt lat="39.53308303" lon="-0.44832763"><ele>104.0</ele><time>2022-11-01T15:22:26.0000000+00:00</time></trkpt><trkpt lat="39.53303022" lon="-0.4482734"><ele>103.8</ele><time>2022-11-01T15:22:27.0000000+00:00</time></trkpt><trkpt lat="39.53298773" lon="-0.44822697"><ele>103.6</ele><time>2022-11-01T15:22:28.0000000+00:00</time></trkpt><trkpt lat="39.53293065" lon="-0.44816595"><ele>103.4</ele><time>2022-11-01T15:22:29.0000000+00:00</time></trkpt><trkpt lat="39.5328744" lon="-0.44810602"><ele>103.2</ele><time>2022-11-01T15:22:30.0000000+00:00</time></trkpt><trkpt lat="39.53281833" lon="-0.44804608"><ele>102.8</ele><time>2022-11-01T15:22:31.0000000+00:00</time></trkpt><trkpt lat="39.53276276" lon="-0.44798381"><ele>102.8</ele><time>2022-11-01T15:22:32.0000000+00:00</time></trkpt><trkpt lat="39.53270568" lon="-0.4479186"><ele>102.6</ele><time>2022-11-01T15:22:33.0000000+00:00</time></trkpt><trkpt lat="39.53265002" lon="-0.44785255"><ele>102.0</ele><time>2022-11-01T15:22:34.0000000+00:00</time></trkpt><trkpt lat="39.53259378" lon="-0.44778365"><ele>101.8</ele><time>2022-11-01T15:22:35.0000000+00:00</time></trkpt><trkpt lat="39.5325336" lon="-0.44771089"><ele>101.6</ele><time>2022-11-01T15:22:36.0000000+00:00</time></trkpt><trkpt lat="39.53247501" lon="-0.44763445"><ele>101.2</ele><time>2022-11-01T15:22:37.0000000+00:00</time></trkpt><trkpt lat="39.53241499" lon="-0.44755692"><ele>101.0</ele><time>2022-11-01T15:22:38.0000000+00:00</time></trkpt><trkpt lat="39.53235682" lon="-0.44747846"><ele>100.8</ele><time>2022-11-01T15:22:39.0000000+00:00</time></trkpt><trkpt lat="39.53230133" lon="-0.44740252"><ele>100.6</ele><time>2022-11-01T15:22:40.0000000+00:00</time></trkpt><trkpt lat="39.53224425" lon="-0.44733295"><ele>100.4</ele><time>2022-11-01T15:22:41.0000000+00:00</time></trkpt><trkpt lat="39.53218608" lon="-0.44726942"><ele>99.6</ele><time>2022-11-01T15:22:42.0000000+00:00</time></trkpt><trkpt lat="39.53212439" lon="-0.44721745"><ele>99.2</ele><time>2022-11-01T15:22:43.0000000+00:00</time></trkpt><trkpt lat="39.53205683" lon="-0.44717646"><ele>98.8</ele><time>2022-11-01T15:22:44.0000000+00:00</time></trkpt><trkpt lat="39.53198517" lon="-0.44714922"><ele>98.4</ele><time>2022-11-01T15:22:45.0000000+00:00</time></trkpt><trkpt lat="39.53191786" lon="-0.44714084"><ele>98.2</ele><time>2022-11-01T15:22:46.0000000+00:00</time></trkpt><trkpt lat="39.53185726" lon="-0.44713128"><ele>98.2</ele><time>2022-11-01T15:22:47.0000000+00:00</time></trkpt><trkpt lat="39.5318032" lon="-0.44710731"><ele>98.2</ele><time>2022-11-01T15:22:48.0000000+00:00</time></trkpt><trkpt lat="39.53175626" lon="-0.44706465"><ele>98.0</ele><time>2022-11-01T15:22:49.0000000+00:00</time></trkpt><trkpt lat="39.53171619" lon="-0.44700648"><ele>98.0</ele><time>2022-11-01T15:22:50.0000000+00:00</time></trkpt><trkpt lat="39.53168484" lon="-0.44694529"><ele>98.0</ele><time>2022-11-01T15:22:51.0000000+00:00</time></trkpt><trkpt lat="39.53166255" lon="-0.44688159"><ele>98.2</ele><time>2022-11-01T15:22:52.0000000+00:00</time></trkpt><trkpt lat="39.53164662" lon="-0.44681562"><ele>98.4</ele><time>2022-11-01T15:22:53.0000000+00:00</time></trkpt><trkpt lat="39.5316317" lon="-0.44674999"><ele>98.6</ele><time>2022-11-01T15:22:54.0000000+00:00</time></trkpt><trkpt lat="39.53161335" lon="-0.4466888"><ele>98.6</ele><time>2022-11-01T15:22:55.0000000+00:00</time></trkpt><trkpt lat="39.5315908" lon="-0.44663323"><ele>98.6</ele><time>2022-11-01T15:22:56.0000000+00:00</time></trkpt><trkpt lat="39.53156188" lon="-0.44658638"><ele>98.6</ele><time>2022-11-01T15:22:57.0000000+00:00</time></trkpt><trkpt lat="39.53152928" lon="-0.4465469"><ele>98.6</ele><time>2022-11-01T15:22:58.0000000+00:00</time></trkpt><trkpt lat="39.53149525" lon="-0.44651195"><ele>98.6</ele><time>2022-11-01T15:22:59.0000000+00:00</time></trkpt><trkpt lat="39.53145744" lon="-0.44648278"><ele>98.6</ele><time>2022-11-01T15:23:00.0000000+00:00</time></trkpt><trkpt lat="39.53142107" lon="-0.44646132"><ele>98.6</ele><time>2022-11-01T15:23:01.0000000+00:00</time></trkpt><trkpt lat="39.53138863" lon="-0.44644606"><ele>98.6</ele><time>2022-11-01T15:23:02.0000000+00:00</time></trkpt><trkpt lat="39.53135761" lon="-0.44643718"><ele>98.4</ele><time>2022-11-01T15:23:03.0000000+00:00</time></trkpt><trkpt lat="39.5313266" lon="-0.44642377"><ele>98.4</ele><time>2022-11-01T15:23:04.0000000+00:00</time></trkpt><trkpt lat="39.53129768" lon="-0.44640658"><ele>98.2</ele><time>2022-11-01T15:23:05.0000000+00:00</time></trkpt><trkpt lat="39.53127178" lon="-0.44638789"><ele>98.0</ele><time>2022-11-01T15:23:06.0000000+00:00</time></trkpt><trkpt lat="39.53124857" lon="-0.44636753"><ele>98.0</ele><time>2022-11-01T15:23:07.0000000+00:00</time></trkpt><trkpt lat="39.5312277" lon="-0.44634833"><ele>97.8</ele><time>2022-11-01T15:23:08.0000000+00:00</time></trkpt><trkpt lat="39.53120934" lon="-0.44633467"><ele>97.8</ele><time>2022-11-01T15:23:09.0000000+00:00</time></trkpt><trkpt lat="39.53119266" lon="-0.44632629"><ele>98.0</ele><time>2022-11-01T15:23:10.0000000+00:00</time></trkpt><trkpt lat="39.53117799" lon="-0.44631933"><ele>98.0</ele><time>2022-11-01T15:23:11.0000000+00:00</time></trkpt><trkpt lat="39.53116173" lon="-0.44630885"><ele>98.0</ele><time>2022-11-01T15:23:12.0000000+00:00</time></trkpt><trkpt lat="39.53114455" lon="-0.44630357"><ele>98.0</ele><time>2022-11-01T15:23:13.0000000+00:00</time></trkpt><trkpt lat="39.53113164" lon="-0.44630022"><ele>98.0</ele><time>2022-11-01T15:23:14.0000000+00:00</time></trkpt><trkpt lat="39.53111588" lon="-0.4462967"><ele>98.0</ele><time>2022-11-01T15:23:15.0000000+00:00</time></trkpt><trkpt lat="39.53109878" lon="-0.44629058"><ele>98.0</ele><time>2022-11-01T15:23:16.0000000+00:00</time></trkpt><trkpt lat="39.53108143" lon="-0.44628253"><ele>98.0</ele><time>2022-11-01T15:23:17.0000000+00:00</time></trkpt><trkpt lat="39.53107062" lon="-0.44626979"><ele>98.0</ele><time>2022-11-01T15:23:18.0000000+00:00</time></trkpt><trkpt lat="39.5310671" lon="-0.44625018"><ele>98.0</ele><time>2022-11-01T15:23:19.0000000+00:00</time></trkpt><trkpt lat="39.53107758" lon="-0.44622646"><ele>98.0</ele><time>2022-11-01T15:23:20.0000000+00:00</time></trkpt><trkpt lat="39.53109845" lon="-0.44621296"><ele>98.0</ele><time>2022-11-01T15:23:21.0000000+00:00</time></trkpt><trkpt lat="39.53112032" lon="-0.44621816"><ele>97.8</ele><time>2022-11-01T15:23:22.0000000+00:00</time></trkpt><trkpt lat="39.53114346" lon="-0.44623626"><ele>97.8</ele><time>2022-11-01T15:23:23.0000000+00:00</time></trkpt><trkpt lat="39.53116274" lon="-0.44626133"><ele>97.8</ele><time>2022-11-01T15:23:24.0000000+00:00</time></trkpt><trkpt lat="39.53117774" lon="-0.44628966"><ele>97.8</ele><time>2022-11-01T15:23:25.0000000+00:00</time></trkpt><trkpt lat="39.53119048" lon="-0.44632369"><ele>97.8</ele><time>2022-11-01T15:23:26.0000000+00:00</time></trkpt><trkpt lat="39.53120414" lon="-0.44635478"><ele>97.8</ele><time>2022-11-01T15:23:27.0000000+00:00</time></trkpt><trkpt lat="39.53122057" lon="-0.44637934"><ele>97.8</ele><time>2022-11-01T15:23:28.0000000+00:00</time></trkpt><trkpt lat="39.53123624" lon="-0.44640005"><ele>97.6</ele><time>2022-11-01T15:23:29.0000000+00:00</time></trkpt><trkpt lat="39.531251" lon="-0.44641899"><ele>97.6</ele><time>2022-11-01T15:23:30.0000000+00:00</time></trkpt><trkpt lat="39.53126072" lon="-0.44643642"><ele>97.6</ele><time>2022-11-01T15:23:31.0000000+00:00</time></trkpt><trkpt lat="39.53126399" lon="-0.44644749"><ele>97.4</ele><time>2022-11-01T15:23:32.0000000+00:00</time></trkpt><trkpt lat="39.53126307" lon="-0.4464521"><ele>97.4</ele><time>2022-11-01T15:23:33.0000000+00:00</time></trkpt><trkpt lat="39.53126307" lon="-0.4464521"><ele>97.4</ele><time>2022-11-01T15:23:34.0000000+00:00</time></trkpt><trkpt lat="39.53126248" lon="-0.44644774"><ele>97.4</ele><time>2022-11-01T15:23:35.0000000+00:00</time></trkpt><trkpt lat="39.53125946" lon="-0.4464474"><ele>97.4</ele><time>2022-11-01T15:23:36.0000000+00:00</time></trkpt><trkpt lat="39.53125385" lon="-0.44645453"><ele>97.4</ele><time>2022-11-01T15:23:37.0000000+00:00</time></trkpt><trkpt lat="39.53125133" lon="-0.44645822"><ele>97.2</ele><time>2022-11-01T15:23:38.0000000+00:00</time></trkpt><trkpt lat="39.53125041" lon="-0.4464614"><ele>97.2</ele><time>2022-11-01T15:23:39.0000000+00:00</time></trkpt><trkpt lat="39.53124563" lon="-0.44647456"><ele>97.2</ele><time>2022-11-01T15:23:40.0000000+00:00</time></trkpt><trkpt lat="39.53123851" lon="-0.44648831"><ele>97.2</ele><time>2022-11-01T15:23:41.0000000+00:00</time></trkpt><trkpt lat="39.53123557" lon="-0.44650926"><ele>97.2</ele><time>2022-11-01T15:23:42.0000000+00:00</time></trkpt><trkpt lat="39.53123708" lon="-0.4465267"><ele>97.0</ele><time>2022-11-01T15:23:43.0000000+00:00</time></trkpt><trkpt lat="39.53123775" lon="-0.44654212"><ele>96.8</ele><time>2022-11-01T15:23:44.0000000+00:00</time></trkpt><trkpt lat="39.53123968" lon="-0.44655629"><ele>96.6</ele><time>2022-11-01T15:23:45.0000000+00:00</time></trkpt><trkpt lat="39.53124111" lon="-0.44657037"><ele>96.6</ele><time>2022-11-01T15:23:46.0000000+00:00</time></trkpt><trkpt lat="39.53124035" lon="-0.44658277"><ele>96.4</ele><time>2022-11-01T15:23:47.0000000+00:00</time></trkpt><trkpt lat="39.53123599" lon="-0.4465925"><ele>96.4</ele><time>2022-11-01T15:23:48.0000000+00:00</time></trkpt><trkpt lat="39.53122652" lon="-0.44660213"><ele>96.2</ele><time>2022-11-01T15:23:49.0000000+00:00</time></trkpt><trkpt lat="39.5312204" lon="-0.44660691"><ele>96.2</ele><time>2022-11-01T15:23:50.0000000+00:00</time></trkpt><trkpt lat="39.53121672" lon="-0.44660892"><ele>96.2</ele><time>2022-11-01T15:23:51.0000000+00:00</time></trkpt><trkpt lat="39.53121672" lon="-0.44660892"><ele>96.2</ele><time>2022-11-01T15:23:52.0000000+00:00</time></trkpt><trkpt lat="39.53121772" lon="-0.44660792"><ele>96.0</ele><time>2022-11-01T15:23:53.0000000+00:00</time></trkpt><trkpt lat="39.5312256" lon="-0.44659752"><ele>96.0</ele><time>2022-11-01T15:23:54.0000000+00:00</time></trkpt><trkpt lat="39.5312282" lon="-0.44659384"><ele>96.0</ele><time>2022-11-01T15:23:55.0000000+00:00</time></trkpt><trkpt lat="39.5312282" lon="-0.44659384"><ele>96.0</ele><time>2022-11-01T15:23:56.0000000+00:00</time></trkpt><trkpt lat="39.5312282" lon="-0.44659384"><ele>96.0</ele><time>2022-11-01T15:23:57.0000000+00:00</time></trkpt><trkpt lat="39.5312282" lon="-0.44659384"><ele>96.0</ele><time>2022-11-01T15:23:58.0000000+00:00</time></trkpt><trkpt lat="39.5312282" lon="-0.44659384"><ele>95.8</ele><time>2022-11-01T15:23:59.0000000+00:00</time></trkpt><trkpt lat="39.53122652" lon="-0.44658923"><ele>95.8</ele><time>2022-11-01T15:24:00.0000000+00:00</time></trkpt><trkpt lat="39.53122652" lon="-0.44657892"><ele>95.8</ele><time>2022-11-01T15:24:01.0000000+00:00</time></trkpt><trkpt lat="39.53122409" lon="-0.44656752"><ele>95.8</ele><time>2022-11-01T15:24:02.0000000+00:00</time></trkpt><trkpt lat="39.5312204" lon="-0.44655729"><ele>95.8</ele><time>2022-11-01T15:24:03.0000000+00:00</time></trkpt><trkpt lat="39.53121412" lon="-0.4465474"><ele>95.8</ele><time>2022-11-01T15:24:04.0000000+00:00</time></trkpt><trkpt lat="39.53121303" lon="-0.44654271"><ele>95.8</ele><time>2022-11-01T15:24:05.0000000+00:00</time></trkpt><trkpt lat="39.53120984" lon="-0.44654254"><ele>95.8</ele><time>2022-11-01T15:24:06.0000000+00:00</time></trkpt><trkpt lat="39.53119945" lon="-0.4465386"><ele>95.8</ele><time>2022-11-01T15:24:07.0000000+00:00</time></trkpt><trkpt lat="39.53119157" lon="-0.44653206"><ele>95.8</ele><time>2022-11-01T15:24:08.0000000+00:00</time></trkpt><trkpt lat="39.53118696" lon="-0.44652343"><ele>95.8</ele><time>2022-11-01T15:24:09.0000000+00:00</time></trkpt><trkpt lat="39.53118051" lon="-0.4465179"><ele>95.6</ele><time>2022-11-01T15:24:10.0000000+00:00</time></trkpt><trkpt lat="39.53117782" lon="-0.44651656"><ele>95.6</ele><time>2022-11-01T15:24:11.0000000+00:00</time></trkpt><trkpt lat="39.53117782" lon="-0.44651656"><ele>95.4</ele><time>2022-11-01T15:24:12.0000000+00:00</time></trkpt><trkpt lat="39.53117782" lon="-0.44651656"><ele>95.4</ele><time>2022-11-01T15:24:13.0000000+00:00</time></trkpt><trkpt lat="39.53117908" lon="-0.44651697"><ele>95.4</ele><time>2022-11-01T15:24:14.0000000+00:00</time></trkpt><trkpt lat="39.53118134" lon="-0.44651781"><ele>95.2</ele><time>2022-11-01T15:24:15.0000000+00:00</time></trkpt><trkpt lat="39.53118134" lon="-0.44651781"><ele>95.2</ele><time>2022-11-01T15:24:16.0000000+00:00</time></trkpt><trkpt lat="39.53118134" lon="-0.44651781"><ele>95.2</ele><time>2022-11-01T15:24:17.0000000+00:00</time></trkpt><trkpt lat="39.53118134" lon="-0.44651781"><ele>95.0</ele><time>2022-11-01T15:24:18.0000000+00:00</time></trkpt><trkpt lat="39.53118134" lon="-0.44651781"><ele>95.0</ele><time>2022-11-01T15:24:19.0000000+00:00</time></trkpt><trkpt lat="39.53118134" lon="-0.44651781"><ele>95.0</ele><time>2022-11-01T15:24:20.0000000+00:00</time></trkpt><trkpt lat="39.53118134" lon="-0.44651781"><ele>95.0</ele><time>2022-11-01T15:24:21.0000000+00:00</time></trkpt><trkpt lat="39.53118134" lon="-0.44651781"><ele>95.2</ele><time>2022-11-01T15:24:22.0000000+00:00</time></trkpt><trkpt lat="39.53117858" lon="-0.44651438"><ele>95.2</ele><time>2022-11-01T15:24:23.0000000+00:00</time></trkpt><trkpt lat="39.53117489" lon="-0.44650742"><ele>95.2</ele><time>2022-11-01T15:24:24.0000000+00:00</time></trkpt><trkpt lat="39.53117489" lon="-0.44650742"><ele>95.2</ele><time>2022-11-01T15:24:25.0000000+00:00</time></trkpt><trkpt lat="39.53117489" lon="-0.44650742"><ele>95.2</ele><time>2022-11-01T15:24:26.0000000+00:00</time></trkpt><trkpt lat="39.53117489" lon="-0.44650742"><ele>95.2</ele><time>2022-11-01T15:24:27.0000000+00:00</time></trkpt><trkpt lat="39.53117489" lon="-0.44650742"><ele>95.2</ele><time>2022-11-01T15:24:28.0000000+00:00</time></trkpt><trkpt lat="39.53117489" lon="-0.44650742"><ele>95.2</ele><time>2022-11-01T15:24:29.0000000+00:00</time></trkpt><trkpt lat="39.53117489" lon="-0.44650742"><ele>95.2</ele><time>2022-11-01T15:24:30.0000000+00:00</time></trkpt><trkpt lat="39.53117489" lon="-0.44650742"><ele>95.2</ele><time>2022-11-01T15:24:31.0000000+00:00</time></trkpt><trkpt lat="39.53117489" lon="-0.44650742"><ele>95.2</ele><time>2022-11-01T15:24:32.0000000+00:00</time></trkpt><trkpt lat="39.53117489" lon="-0.44650742"><ele>95.2</ele><time>2022-11-01T15:24:33.0000000+00:00</time></trkpt><trkpt lat="39.53117489" lon="-0.44650742"><ele>95.2</ele><time>2022-11-01T15:24:34.0000000+00:00</time></trkpt><trkpt lat="39.53117489" lon="-0.44650742"><ele>95.2</ele><time>2022-11-01T15:24:35.0000000+00:00</time></trkpt><trkpt lat="39.53117489" lon="-0.44650742"><ele>95.2</ele><time>2022-11-01T15:24:36.0000000+00:00</time></trkpt><trkpt lat="39.53117489" lon="-0.44650742"><ele>95.0</ele><time>2022-11-01T15:24:37.0000000+00:00</time></trkpt><trkpt lat="39.53117305" lon="-0.44651287"><ele>95.0</ele><time>2022-11-01T15:24:38.0000000+00:00</time></trkpt><trkpt lat="39.53117372" lon="-0.44651924"><ele>95.0</ele><time>2022-11-01T15:24:39.0000000+00:00</time></trkpt><trkpt lat="39.53117372" lon="-0.44651924"><ele>94.8</ele><time>2022-11-01T15:24:40.0000000+00:00</time></trkpt><trkpt lat="39.53117372" lon="-0.44651924"><ele>95.0</ele><time>2022-11-01T15:24:41.0000000+00:00</time></trkpt><trkpt lat="39.53117372" lon="-0.44651924"><ele>95.0</ele><time>2022-11-01T15:24:42.0000000+00:00</time></trkpt><trkpt lat="39.53117372" lon="-0.44651924"><ele>95.0</ele><time>2022-11-01T15:24:43.0000000+00:00</time></trkpt><trkpt lat="39.53117372" lon="-0.44651924"><ele>95.0</ele><time>2022-11-01T15:24:44.0000000+00:00</time></trkpt><trkpt lat="39.53117372" lon="-0.44651924"><ele>95.0</ele><time>2022-11-01T15:24:45.0000000+00:00</time></trkpt><trkpt lat="39.53117372" lon="-0.44651924"><ele>94.8</ele><time>2022-11-01T15:24:46.0000000+00:00</time></trkpt><trkpt lat="39.53117573" lon="-0.44652351"><ele>94.6</ele><time>2022-11-01T15:24:47.0000000+00:00</time></trkpt><trkpt lat="39.53118017" lon="-0.44652661"><ele>94.6</ele><time>2022-11-01T15:24:48.0000000+00:00</time></trkpt><trkpt lat="39.53118369" lon="-0.44652586"><ele>94.4</ele><time>2022-11-01T15:24:49.0000000+00:00</time></trkpt><trkpt lat="39.53118369" lon="-0.44652586"><ele>94.4</ele><time>2022-11-01T15:24:50.0000000+00:00</time></trkpt><trkpt lat="39.53118369" lon="-0.44652586"><ele>94.6</ele><time>2022-11-01T15:24:51.0000000+00:00</time></trkpt><trkpt lat="39.53118369" lon="-0.44652586"><ele>94.6</ele><time>2022-11-01T15:24:52.0000000+00:00</time></trkpt><trkpt lat="39.53118369" lon="-0.44652586"><ele>94.8</ele><time>2022-11-01T15:24:53.0000000+00:00</time></trkpt><trkpt lat="39.53118369" lon="-0.44652586"><ele>94.8</ele><time>2022-11-01T15:24:54.0000000+00:00</time></trkpt><trkpt lat="39.53118369" lon="-0.44652586"><ele>94.8</ele><time>2022-11-01T15:24:55.0000000+00:00</time></trkpt><trkpt lat="39.53118369" lon="-0.44652586"><ele>94.8</ele><time>2022-11-01T15:24:56.0000000+00:00</time></trkpt><trkpt lat="39.53118369" lon="-0.44652586"><ele>94.8</ele><time>2022-11-01T15:24:57.0000000+00:00</time></trkpt><trkpt lat="39.53118369" lon="-0.44652586"><ele>94.8</ele><time>2022-11-01T15:24:58.0000000+00:00</time></trkpt><trkpt lat="39.53118369" lon="-0.44652586"><ele>94.8</ele><time>2022-11-01T15:24:59.0000000+00:00</time></trkpt><trkpt lat="39.53118369" lon="-0.44652586"><ele>94.8</ele><time>2022-11-01T15:25:00.0000000+00:00</time></trkpt><trkpt lat="39.53118369" lon="-0.44652586"><ele>95.0</ele><time>2022-11-01T15:25:01.0000000+00:00</time></trkpt><trkpt lat="39.53118369" lon="-0.44652586"><ele>95.0</ele><time>2022-11-01T15:25:02.0000000+00:00</time></trkpt><trkpt lat="39.53118369" lon="-0.44652586"><ele>95.0</ele><time>2022-11-01T15:25:03.0000000+00:00</time></trkpt><trkpt lat="39.53118369" lon="-0.44652586"><ele>95.0</ele><time>2022-11-01T15:25:04.0000000+00:00</time></trkpt><trkpt lat="39.53118369" lon="-0.44652586"><ele>95.0</ele><time>2022-11-01T15:25:05.0000000+00:00</time></trkpt><trkpt lat="39.53118369" lon="-0.44652586"><ele>94.8</ele><time>2022-11-01T15:25:06.0000000+00:00</time></trkpt><trkpt lat="39.53118369" lon="-0.44652586"><ele>94.8</ele><time>2022-11-01T15:25:07.0000000+00:00</time></trkpt><trkpt lat="39.53118721" lon="-0.44651865"><ele>94.8</ele><time>2022-11-01T15:25:08.0000000+00:00</time></trkpt><trkpt lat="39.53118964" lon="-0.44651421"><ele>94.6</ele><time>2022-11-01T15:25:09.0000000+00:00</time></trkpt><trkpt lat="39.53118964" lon="-0.44651421"><ele>94.6</ele><time>2022-11-01T15:25:10.0000000+00:00</time></trkpt><trkpt lat="39.53118964" lon="-0.44651421"><ele>94.6</ele><time>2022-11-01T15:25:11.0000000+00:00</time></trkpt><trkpt lat="39.53118964" lon="-0.44651421"><ele>94.6</ele><time>2022-11-01T15:25:12.0000000+00:00</time></trkpt><trkpt lat="39.53118964" lon="-0.44651421"><ele>94.6</ele><time>2022-11-01T15:25:13.0000000+00:00</time></trkpt><trkpt lat="39.53118964" lon="-0.44651421"><ele>94.6</ele><time>2022-11-01T15:25:14.0000000+00:00</time></trkpt><trkpt lat="39.53118964" lon="-0.44651421"><ele>94.6</ele><time>2022-11-01T15:25:15.0000000+00:00</time></trkpt><trkpt lat="39.53118964" lon="-0.44651421"><ele>94.6</ele><time>2022-11-01T15:25:16.0000000+00:00</time></trkpt><trkpt lat="39.53118964" lon="-0.44651421"><ele>94.6</ele><time>2022-11-01T15:25:17.0000000+00:00</time></trkpt><trkpt lat="39.53118964" lon="-0.44651421"><ele>94.8</ele><time>2022-11-01T15:25:18.0000000+00:00</time></trkpt><trkpt lat="39.53118964" lon="-0.44651421"><ele>94.6</ele><time>2022-11-01T15:25:19.0000000+00:00</time></trkpt><trkpt lat="39.53118964" lon="-0.44651421"><ele>94.6</ele><time>2022-11-01T15:25:20.0000000+00:00</time></trkpt><trkpt lat="39.53118964" lon="-0.44651421"><ele>94.6</ele><time>2022-11-01T15:25:21.0000000+00:00</time></trkpt><trkpt lat="39.53118964" lon="-0.44651421"><ele>94.6</ele><time>2022-11-01T15:25:22.0000000+00:00</time></trkpt><trkpt lat="39.53118964" lon="-0.44651421"><ele>94.6</ele><time>2022-11-01T15:25:23.0000000+00:00</time></trkpt><trkpt lat="39.53118964" lon="-0.44651421"><ele>94.6</ele><time>2022-11-01T15:25:24.0000000+00:00</time></trkpt><trkpt lat="39.53118964" lon="-0.44651421"><ele>94.6</ele><time>2022-11-01T15:25:25.0000000+00:00</time></trkpt><trkpt lat="39.53118964" lon="-0.44651421"><ele>94.6</ele><time>2022-11-01T15:25:26.0000000+00:00</time></trkpt><trkpt lat="39.53118964" lon="-0.44651421"><ele>94.6</ele><time>2022-11-01T15:25:27.0000000+00:00</time></trkpt><trkpt lat="39.53118964" lon="-0.44651421"><ele>94.6</ele><time>2022-11-01T15:25:28.0000000+00:00</time></trkpt><trkpt lat="39.53118964" lon="-0.44651421"><ele>94.4</ele><time>2022-11-01T15:25:29.0000000+00:00</time></trkpt><trkpt lat="39.53118964" lon="-0.44651421"><ele>94.4</ele><time>2022-11-01T15:25:30.0000000+00:00</time></trkpt><trkpt lat="39.53118964" lon="-0.44651421"><ele>94.4</ele><time>2022-11-01T15:25:31.0000000+00:00</time></trkpt><trkpt lat="39.53118964" lon="-0.44651421"><ele>94.4</ele><time>2022-11-01T15:25:32.0000000+00:00</time></trkpt><trkpt lat="39.53118964" lon="-0.44651421"><ele>94.6</ele><time>2022-11-01T15:25:33.0000000+00:00</time></trkpt><trkpt lat="39.53118964" lon="-0.44651421"><ele>94.6</ele><time>2022-11-01T15:25:34.0000000+00:00</time></trkpt><trkpt lat="39.53118964" lon="-0.44651421"><ele>94.6</ele><time>2022-11-01T15:25:35.0000000+00:00</time></trkpt><trkpt lat="39.53118964" lon="-0.44651421"><ele>94.6</ele><time>2022-11-01T15:25:36.0000000+00:00</time></trkpt><trkpt lat="39.53118964" lon="-0.44651421"><ele>94.6</ele><time>2022-11-01T15:25:37.0000000+00:00</time></trkpt><trkpt lat="39.53118964" lon="-0.44651421"><ele>94.6</ele><time>2022-11-01T15:25:38.0000000+00:00</time></trkpt><trkpt lat="39.53119157" lon="-0.44651639"><ele>94.6</ele><time>2022-11-01T15:25:39.0000000+00:00</time></trkpt><trkpt lat="39.53119953" lon="-0.44651999"><ele>94.6</ele><time>2022-11-01T15:25:40.0000000+00:00</time></trkpt><trkpt lat="39.53120255" lon="-0.446521"><ele>94.6</ele><time>2022-11-01T15:25:41.0000000+00:00</time></trkpt><trkpt lat="39.53120255" lon="-0.446521"><ele>94.6</ele><time>2022-11-01T15:25:42.0000000+00:00</time></trkpt><trkpt lat="39.53120138" lon="-0.44651832"><ele>94.6</ele><time>2022-11-01T15:25:43.0000000+00:00</time></trkpt><trkpt lat="39.53120288" lon="-0.44652133"><ele>94.6</ele><time>2022-11-01T15:25:44.0000000+00:00</time></trkpt><trkpt lat="39.53120288" lon="-0.44652133"><ele>94.6</ele><time>2022-11-01T15:25:45.0000000+00:00</time></trkpt><trkpt lat="39.53120288" lon="-0.44652133"><ele>94.4</ele><time>2022-11-01T15:25:46.0000000+00:00</time></trkpt><trkpt lat="39.53120288" lon="-0.44652133"><ele>94.4</ele><time>2022-11-01T15:25:47.0000000+00:00</time></trkpt><trkpt lat="39.53120288" lon="-0.44652133"><ele>94.4</ele><time>2022-11-01T15:25:48.0000000+00:00</time></trkpt><trkpt lat="39.53120288" lon="-0.44652133"><ele>94.4</ele><time>2022-11-01T15:25:49.0000000+00:00</time></trkpt><trkpt lat="39.53120288" lon="-0.44652133"><ele>94.4</ele><time>2022-11-01T15:25:50.0000000+00:00</time></trkpt><trkpt lat="39.53120288" lon="-0.44652133"><ele>94.4</ele><time>2022-11-01T15:25:51.0000000+00:00</time></trkpt><trkpt lat="39.53120288" lon="-0.44652133"><ele>94.4</ele><time>2022-11-01T15:25:52.0000000+00:00</time></trkpt><trkpt lat="39.53120288" lon="-0.44652133"><ele>94.4</ele><time>2022-11-01T15:25:53.0000000+00:00</time></trkpt><trkpt lat="39.53120288" lon="-0.44652133"><ele>94.4</ele><time>2022-11-01T15:25:54.0000000+00:00</time></trkpt><trkpt lat="39.53120288" lon="-0.44652133"><ele>94.4</ele><time>2022-11-01T15:25:55.0000000+00:00</time></trkpt><trkpt lat="39.53120288" lon="-0.44652133"><ele>94.4</ele><time>2022-11-01T15:25:56.0000000+00:00</time></trkpt><trkpt lat="39.53120288" lon="-0.44652133"><ele>94.4</ele><time>2022-11-01T15:25:57.0000000+00:00</time></trkpt><trkpt lat="39.53120288" lon="-0.44652133"><ele>94.4</ele><time>2022-11-01T15:25:58.0000000+00:00</time></trkpt><trkpt lat="39.53120288" lon="-0.44652133"><ele>94.4</ele><time>2022-11-01T15:25:59.0000000+00:00</time></trkpt><trkpt lat="39.53120288" lon="-0.44652133"><ele>94.4</ele><time>2022-11-01T15:26:00.0000000+00:00</time></trkpt><trkpt lat="39.53120288" lon="-0.44652133"><ele>94.4</ele><time>2022-11-01T15:26:01.0000000+00:00</time></trkpt><trkpt lat="39.53120288" lon="-0.44652133"><ele>94.4</ele><time>2022-11-01T15:26:02.0000000+00:00</time></trkpt><trkpt lat="39.53120288" lon="-0.44652133"><ele>94.4</ele><time>2022-11-01T15:26:03.0000000+00:00</time></trkpt><trkpt lat="39.53120288" lon="-0.44652133"><ele>94.2</ele><time>2022-11-01T15:26:04.0000000+00:00</time></trkpt><trkpt lat="39.53120288" lon="-0.44652133"><ele>94.2</ele><time>2022-11-01T15:26:05.0000000+00:00</time></trkpt><trkpt lat="39.53120288" lon="-0.44652133"><ele>94.2</ele><time>2022-11-01T15:26:06.0000000+00:00</time></trkpt><trkpt lat="39.53120288" lon="-0.44652133"><ele>94.2</ele><time>2022-11-01T15:26:07.0000000+00:00</time></trkpt><trkpt lat="39.53120288" lon="-0.44652133"><ele>94.2</ele><time>2022-11-01T15:26:08.0000000+00:00</time></trkpt><trkpt lat="39.53120288" lon="-0.44652133"><ele>94.2</ele><time>2022-11-01T15:26:09.0000000+00:00</time></trkpt><trkpt lat="39.53120288" lon="-0.44652133"><ele>94.2</ele><time>2022-11-01T15:26:10.0000000+00:00</time></trkpt><trkpt lat="39.53120288" lon="-0.44652133"><ele>94.2</ele><time>2022-11-01T15:26:11.0000000+00:00</time></trkpt><trkpt lat="39.53120288" lon="-0.44652133"><ele>94.2</ele><time>2022-11-01T15:26:12.0000000+00:00</time></trkpt><trkpt lat="39.53120288" lon="-0.44652133"><ele>94.2</ele><time>2022-11-01T15:26:13.0000000+00:00</time></trkpt><trkpt lat="39.53120288" lon="-0.44652133"><ele>94.2</ele><time>2022-11-01T15:26:14.0000000+00:00</time></trkpt><trkpt lat="39.53120288" lon="-0.44652133"><ele>94.2</ele><time>2022-11-01T15:26:15.0000000+00:00</time></trkpt><trkpt lat="39.53120288" lon="-0.44652133"><ele>94.0</ele><time>2022-11-01T15:26:16.0000000+00:00</time></trkpt><trkpt lat="39.53120288" lon="-0.44652133"><ele>94.0</ele><time>2022-11-01T15:26:17.0000000+00:00</time></trkpt><trkpt lat="39.53120288" lon="-0.44652133"><ele>94.0</ele><time>2022-11-01T15:26:18.0000000+00:00</time></trkpt><trkpt lat="39.53120288" lon="-0.44652133"><ele>94.2</ele><time>2022-11-01T15:26:19.0000000+00:00</time></trkpt><trkpt lat="39.53120288" lon="-0.44652133"><ele>94.2</ele><time>2022-11-01T15:26:20.0000000+00:00</time></trkpt><trkpt lat="39.53120288" lon="-0.44652133"><ele>94.2</ele><time>2022-11-01T15:26:21.0000000+00:00</time></trkpt><trkpt lat="39.53120288" lon="-0.44652133"><ele>94.2</ele><time>2022-11-01T15:26:22.0000000+00:00</time></trkpt><trkpt lat="39.53120288" lon="-0.44652133"><ele>94.2</ele><time>2022-11-01T15:26:23.0000000+00:00</time></trkpt><trkpt lat="39.53120288" lon="-0.44652133"><ele>94.2</ele><time>2022-11-01T15:26:24.0000000+00:00</time></trkpt><trkpt lat="39.53120288" lon="-0.44652133"><ele>94.2</ele><time>2022-11-01T15:26:25.0000000+00:00</time></trkpt><trkpt lat="39.53120288" lon="-0.44652133"><ele>94.2</ele><time>2022-11-01T15:26:26.0000000+00:00</time></trkpt><trkpt lat="39.53120288" lon="-0.44652133"><ele>94.0</ele><time>2022-11-01T15:26:27.0000000+00:00</time></trkpt><trkpt lat="39.53120288" lon="-0.44652133"><ele>94.0</ele><time>2022-11-01T15:26:28.0000000+00:00</time></trkpt><trkpt lat="39.53120288" lon="-0.44652133"><ele>94.0</ele><time>2022-11-01T15:26:29.0000000+00:00</time></trkpt><trkpt lat="39.53120288" lon="-0.44652133"><ele>94.0</ele><time>2022-11-01T15:26:30.0000000+00:00</time></trkpt><trkpt lat="39.53120288" lon="-0.44652133"><ele>94.0</ele><time>2022-11-01T15:26:31.0000000+00:00</time></trkpt><trkpt lat="39.53120288" lon="-0.44652133"><ele>94.0</ele><time>2022-11-01T15:26:32.0000000+00:00</time></trkpt><trkpt lat="39.53120288" lon="-0.44652133"><ele>94.0</ele><time>2022-11-01T15:26:33.0000000+00:00</time></trkpt><trkpt lat="39.53120288" lon="-0.44652133"><ele>94.0</ele><time>2022-11-01T15:26:34.0000000+00:00</time></trkpt><trkpt lat="39.53120288" lon="-0.44652133"><ele>94.0</ele><time>2022-11-01T15:26:35.0000000+00:00</time></trkpt><trkpt lat="39.53120288" lon="-0.44652133"><ele>94.0</ele><time>2022-11-01T15:26:36.0000000+00:00</time></trkpt><trkpt lat="39.53120288" lon="-0.44652133"><ele>94.0</ele><time>2022-11-01T15:26:37.0000000+00:00</time></trkpt><trkpt lat="39.53120288" lon="-0.44652133"><ele>94.0</ele><time>2022-11-01T15:26:38.0000000+00:00</time></trkpt><trkpt lat="39.53120288" lon="-0.44652133"><ele>94.0</ele><time>2022-11-01T15:26:39.0000000+00:00</time></trkpt><trkpt lat="39.53120288" lon="-0.44652133"><ele>94.0</ele><time>2022-11-01T15:26:40.0000000+00:00</time></trkpt><trkpt lat="39.53120288" lon="-0.44652133"><ele>94.0</ele><time>2022-11-01T15:26:41.0000000+00:00</time></trkpt><trkpt lat="39.53120288" lon="-0.44652133"><ele>94.0</ele><time>2022-11-01T15:26:42.0000000+00:00</time></trkpt><trkpt lat="39.53120288" lon="-0.44652133"><ele>94.0</ele><time>2022-11-01T15:26:43.0000000+00:00</time></trkpt><trkpt lat="39.53120288" lon="-0.44652133"><ele>94.0</ele><time>2022-11-01T15:26:44.0000000+00:00</time></trkpt><trkpt lat="39.53120288" lon="-0.44652133"><ele>94.0</ele><time>2022-11-01T15:26:45.0000000+00:00</time></trkpt><trkpt lat="39.53120288" lon="-0.44652133"><ele>94.0</ele><time>2022-11-01T15:26:46.0000000+00:00</time></trkpt><trkpt lat="39.53120288" lon="-0.44652133"><ele>94.0</ele><time>2022-11-01T15:26:47.0000000+00:00</time></trkpt><trkpt lat="39.53120288" lon="-0.44652133"><ele>94.0</ele><time>2022-11-01T15:26:48.0000000+00:00</time></trkpt><trkpt lat="39.53120288" lon="-0.44652133"><ele>93.8</ele><time>2022-11-01T15:26:49.0000000+00:00</time></trkpt><trkpt lat="39.53120288" lon="-0.44652133"><ele>93.8</ele><time>2022-11-01T15:26:50.0000000+00:00</time></trkpt><trkpt lat="39.53120288" lon="-0.44652133"><ele>93.8</ele><time>2022-11-01T15:26:51.0000000+00:00</time></trkpt><trkpt lat="39.53120288" lon="-0.44652133"><ele>93.8</ele><time>2022-11-01T15:26:52.0000000+00:00</time></trkpt><trkpt lat="39.53120288" lon="-0.44652133"><ele>93.8</ele><time>2022-11-01T15:26:53.0000000+00:00</time></trkpt><trkpt lat="39.53120288" lon="-0.44652133"><ele>93.8</ele><time>2022-11-01T15:26:54.0000000+00:00</time></trkpt><trkpt lat="39.53120288" lon="-0.44652133"><ele>94.0</ele><time>2022-11-01T15:26:55.0000000+00:00</time></trkpt><trkpt lat="39.53120288" lon="-0.44652133"><ele>94.0</ele><time>2022-11-01T15:26:56.0000000+00:00</time></trkpt><trkpt lat="39.53120288" lon="-0.44652133"><ele>94.0</ele><time>2022-11-01T15:26:57.0000000+00:00</time></trkpt><trkpt lat="39.53120288" lon="-0.44652133"><ele>94.0</ele><time>2022-11-01T15:26:58.0000000+00:00</time></trkpt><trkpt lat="39.53120288" lon="-0.44652133"><ele>94.0</ele><time>2022-11-01T15:26:59.0000000+00:00</time></trkpt><trkpt lat="39.5311904" lon="-0.44651815"><ele>94.0</ele><time>2022-11-01T15:27:00.0000000+00:00</time></trkpt><trkpt lat="39.53118939" lon="-0.44651396"><ele>94.0</ele><time>2022-11-01T15:27:01.0000000+00:00</time></trkpt><trkpt lat="39.53118939" lon="-0.44651396"><ele>93.8</ele><time>2022-11-01T15:27:02.0000000+00:00</time></trkpt><trkpt lat="39.53118939" lon="-0.44651396"><ele>93.8</ele><time>2022-11-01T15:27:03.0000000+00:00</time></trkpt><trkpt lat="39.53118939" lon="-0.44651396"><ele>93.8</ele><time>2022-11-01T15:27:04.0000000+00:00</time></trkpt><trkpt lat="39.53118939" lon="-0.44651396"><ele>93.8</ele><time>2022-11-01T15:27:05.0000000+00:00</time></trkpt><trkpt lat="39.53118939" lon="-0.44651396"><ele>93.8</ele><time>2022-11-01T15:27:06.0000000+00:00</time></trkpt><trkpt lat="39.53118939" lon="-0.44651396"><ele>93.8</ele><time>2022-11-01T15:27:07.0000000+00:00</time></trkpt><trkpt lat="39.53118939" lon="-0.44651396"><ele>93.8</ele><time>2022-11-01T15:27:08.0000000+00:00</time></trkpt><trkpt lat="39.53118939" lon="-0.44651396"><ele>93.8</ele><time>2022-11-01T15:27:09.0000000+00:00</time></trkpt><trkpt lat="39.53118939" lon="-0.44651396"><ele>93.8</ele><time>2022-11-01T15:27:10.0000000+00:00</time></trkpt><trkpt lat="39.53118939" lon="-0.44651396"><ele>93.8</ele><time>2022-11-01T15:27:11.0000000+00:00</time></trkpt><trkpt lat="39.53118939" lon="-0.44651396"><ele>93.8</ele><time>2022-11-01T15:27:12.0000000+00:00</time></trkpt><trkpt lat="39.53118939" lon="-0.44651396"><ele>93.8</ele><time>2022-11-01T15:27:13.0000000+00:00</time></trkpt><trkpt lat="39.53118939" lon="-0.44651396"><ele>93.8</ele><time>2022-11-01T15:27:14.0000000+00:00</time></trkpt><trkpt lat="39.53118939" lon="-0.44651396"><ele>93.8</ele><time>2022-11-01T15:27:15.0000000+00:00</time></trkpt><trkpt lat="39.53118939" lon="-0.44651396"><ele>93.8</ele><time>2022-11-01T15:27:16.0000000+00:00</time></trkpt><trkpt lat="39.53118939" lon="-0.44651396"><ele>93.8</ele><time>2022-11-01T15:27:17.0000000+00:00</time></trkpt><trkpt lat="39.53118939" lon="-0.44651396"><ele>93.8</ele><time>2022-11-01T15:27:18.0000000+00:00</time></trkpt><trkpt lat="39.53118939" lon="-0.44651396"><ele>93.8</ele><time>2022-11-01T15:27:19.0000000+00:00</time></trkpt><trkpt lat="39.53118939" lon="-0.44651396"><ele>93.8</ele><time>2022-11-01T15:27:20.0000000+00:00</time></trkpt><trkpt lat="39.53118939" lon="-0.44651396"><ele>93.8</ele><time>2022-11-01T15:27:21.0000000+00:00</time></trkpt><trkpt lat="39.53118939" lon="-0.44651396"><ele>93.8</ele><time>2022-11-01T15:27:22.0000000+00:00</time></trkpt><trkpt lat="39.53118939" lon="-0.44651396"><ele>93.8</ele><time>2022-11-01T15:27:23.0000000+00:00</time></trkpt><trkpt lat="39.53118939" lon="-0.44651396"><ele>93.8</ele><time>2022-11-01T15:27:24.0000000+00:00</time></trkpt><trkpt lat="39.53118939" lon="-0.44651396"><ele>93.8</ele><time>2022-11-01T15:27:25.0000000+00:00</time></trkpt><trkpt lat="39.53118939" lon="-0.44651396"><ele>93.8</ele><time>2022-11-01T15:27:26.0000000+00:00</time></trkpt><trkpt lat="39.53118939" lon="-0.44651396"><ele>93.8</ele><time>2022-11-01T15:27:27.0000000+00:00</time></trkpt><trkpt lat="39.53118939" lon="-0.44651396"><ele>93.8</ele><time>2022-11-01T15:27:28.0000000+00:00</time></trkpt><trkpt lat="39.53118939" lon="-0.44651396"><ele>93.8</ele><time>2022-11-01T15:27:29.0000000+00:00</time></trkpt><trkpt lat="39.53118939" lon="-0.44651396"><ele>93.8</ele><time>2022-11-01T15:27:30.0000000+00:00</time></trkpt><trkpt lat="39.53118939" lon="-0.44651396"><ele>93.8</ele><time>2022-11-01T15:27:31.0000000+00:00</time></trkpt><trkpt lat="39.53118939" lon="-0.44651396"><ele>93.8</ele><time>2022-11-01T15:27:32.0000000+00:00</time></trkpt><trkpt lat="39.53118939" lon="-0.44651396"><ele>93.8</ele><time>2022-11-01T15:27:33.0000000+00:00</time></trkpt><trkpt lat="39.53118939" lon="-0.44651396"><ele>93.8</ele><time>2022-11-01T15:27:34.0000000+00:00</time></trkpt><trkpt lat="39.53118939" lon="-0.44651396"><ele>93.8</ele><time>2022-11-01T15:27:35.0000000+00:00</time></trkpt><trkpt lat="39.53118939" lon="-0.44651396"><ele>93.8</ele><time>2022-11-01T15:27:36.0000000+00:00</time></trkpt><trkpt lat="39.53118939" lon="-0.44651396"><ele>94.0</ele><time>2022-11-01T15:27:37.0000000+00:00</time></trkpt><trkpt lat="39.53118939" lon="-0.44651396"><ele>94.0</ele><time>2022-11-01T15:27:38.0000000+00:00</time></trkpt><trkpt lat="39.53118939" lon="-0.44651396"><ele>94.0</ele><time>2022-11-01T15:27:39.0000000+00:00</time></trkpt><trkpt lat="39.53118939" lon="-0.44651396"><ele>93.8</ele><time>2022-11-01T15:27:40.0000000+00:00</time></trkpt><trkpt lat="39.53118939" lon="-0.44651396"><ele>93.6</ele><time>2022-11-01T15:27:41.0000000+00:00</time></trkpt><trkpt lat="39.53118939" lon="-0.44651396"><ele>93.6</ele><time>2022-11-01T15:27:42.0000000+00:00</time></trkpt><trkpt lat="39.53118939" lon="-0.44651396"><ele>93.6</ele><time>2022-11-01T15:27:43.0000000+00:00</time></trkpt><trkpt lat="39.53118939" lon="-0.44651396"><ele>93.6</ele><time>2022-11-01T15:27:44.0000000+00:00</time></trkpt><trkpt lat="39.53118939" lon="-0.44651396"><ele>93.6</ele><time>2022-11-01T15:27:45.0000000+00:00</time></trkpt><trkpt lat="39.53118939" lon="-0.44651396"><ele>93.6</ele><time>2022-11-01T15:27:46.0000000+00:00</time></trkpt><trkpt lat="39.53118939" lon="-0.44651396"><ele>93.6</ele><time>2022-11-01T15:27:47.0000000+00:00</time></trkpt><trkpt lat="39.53118386" lon="-0.44651748"><ele>93.6</ele><time>2022-11-01T15:27:48.0000000+00:00</time></trkpt><trkpt lat="39.53118084" lon="-0.44651588"><ele>93.6</ele><time>2022-11-01T15:27:49.0000000+00:00</time></trkpt><trkpt lat="39.53118084" lon="-0.44651588"><ele>93.6</ele><time>2022-11-01T15:27:50.0000000+00:00</time></trkpt><trkpt lat="39.53118084" lon="-0.44651588"><ele>93.6</ele><time>2022-11-01T15:27:51.0000000+00:00</time></trkpt><trkpt lat="39.53118084" lon="-0.44651588"><ele>93.6</ele><time>2022-11-01T15:27:52.0000000+00:00</time></trkpt><trkpt lat="39.53118084" lon="-0.44651588"><ele>93.6</ele><time>2022-11-01T15:27:53.0000000+00:00</time></trkpt><trkpt lat="39.53118084" lon="-0.44651588"><ele>93.6</ele><time>2022-11-01T15:27:54.0000000+00:00</time></trkpt><trkpt lat="39.53118084" lon="-0.44651588"><ele>93.6</ele><time>2022-11-01T15:27:55.0000000+00:00</time></trkpt><trkpt lat="39.53118084" lon="-0.44651588"><ele>93.6</ele><time>2022-11-01T15:27:56.0000000+00:00</time></trkpt><trkpt lat="39.53118084" lon="-0.44651588"><ele>93.6</ele><time>2022-11-01T15:27:57.0000000+00:00</time></trkpt><trkpt lat="39.53118084" lon="-0.44651588"><ele>93.6</ele><time>2022-11-01T15:27:58.0000000+00:00</time></trkpt><trkpt lat="39.53118084" lon="-0.44651588"><ele>93.8</ele><time>2022-11-01T15:27:59.0000000+00:00</time></trkpt><trkpt lat="39.53118084" lon="-0.44651588"><ele>93.8</ele><time>2022-11-01T15:28:00.0000000+00:00</time></trkpt><trkpt lat="39.53118084" lon="-0.44651588"><ele>93.8</ele><time>2022-11-01T15:28:01.0000000+00:00</time></trkpt><trkpt lat="39.53118084" lon="-0.44651588"><ele>93.8</ele><time>2022-11-01T15:28:02.0000000+00:00</time></trkpt><trkpt lat="39.53118084" lon="-0.44651588"><ele>93.8</ele><time>2022-11-01T15:28:03.0000000+00:00</time></trkpt><trkpt lat="39.53118084" lon="-0.44651588"><ele>93.8</ele><time>2022-11-01T15:28:04.0000000+00:00</time></trkpt><trkpt lat="39.53118084" lon="-0.44651588"><ele>93.8</ele><time>2022-11-01T15:28:05.0000000+00:00</time></trkpt><trkpt lat="39.53118084" lon="-0.44651588"><ele>93.8</ele><time>2022-11-01T15:28:06.0000000+00:00</time></trkpt><trkpt lat="39.53118084" lon="-0.44651588"><ele>93.8</ele><time>2022-11-01T15:28:07.0000000+00:00</time></trkpt><trkpt lat="39.53118084" lon="-0.44651588"><ele>93.6</ele><time>2022-11-01T15:28:08.0000000+00:00</time></trkpt><trkpt lat="39.53118159" lon="-0.44651505"><ele>93.6</ele><time>2022-11-01T15:28:09.0000000+00:00</time></trkpt><trkpt lat="39.53117983" lon="-0.44651329"><ele>93.6</ele><time>2022-11-01T15:28:10.0000000+00:00</time></trkpt><trkpt lat="39.53117983" lon="-0.44651329"><ele>93.6</ele><time>2022-11-01T15:28:11.0000000+00:00</time></trkpt><trkpt lat="39.53117983" lon="-0.44651329"><ele>93.6</ele><time>2022-11-01T15:28:12.0000000+00:00</time></trkpt><trkpt lat="39.53117983" lon="-0.44651329"><ele>93.6</ele><time>2022-11-01T15:28:13.0000000+00:00</time></trkpt><trkpt lat="39.53117983" lon="-0.44651329"><ele>93.6</ele><time>2022-11-01T15:28:14.0000000+00:00</time></trkpt><trkpt lat="39.53117983" lon="-0.44651329"><ele>93.8</ele><time>2022-11-01T15:28:15.0000000+00:00</time></trkpt><trkpt lat="39.53117975" lon="-0.44651169"><ele>93.8</ele><time>2022-11-01T15:28:16.0000000+00:00</time></trkpt><trkpt lat="39.5311764" lon="-0.44650993"><ele>93.8</ele><time>2022-11-01T15:28:17.0000000+00:00</time></trkpt><trkpt lat="39.5311764" lon="-0.44650993"><ele>93.8</ele><time>2022-11-01T15:28:18.0000000+00:00</time></trkpt><trkpt lat="39.5311764" lon="-0.44650993"><ele>93.8</ele><time>2022-11-01T15:28:19.0000000+00:00</time></trkpt><trkpt lat="39.5311764" lon="-0.44650993"><ele>93.8</ele><time>2022-11-01T15:28:20.0000000+00:00</time></trkpt><trkpt lat="39.5311764" lon="-0.44650993"><ele>93.8</ele><time>2022-11-01T15:28:21.0000000+00:00</time></trkpt><trkpt lat="39.5311764" lon="-0.44650993"><ele>93.8</ele><time>2022-11-01T15:28:22.0000000+00:00</time></trkpt><trkpt lat="39.5311764" lon="-0.44650993"><ele>93.8</ele><time>2022-11-01T15:28:23.0000000+00:00</time></trkpt><trkpt lat="39.5311764" lon="-0.44650993"><ele>93.6</ele><time>2022-11-01T15:28:24.0000000+00:00</time></trkpt><trkpt lat="39.5311764" lon="-0.44650993"><ele>93.6</ele><time>2022-11-01T15:28:25.0000000+00:00</time></trkpt><trkpt lat="39.5311764" lon="-0.44650993"><ele>93.6</ele><time>2022-11-01T15:28:26.0000000+00:00</time></trkpt><trkpt lat="39.5311764" lon="-0.44650993"><ele>93.8</ele><time>2022-11-01T15:28:27.0000000+00:00</time></trkpt><trkpt lat="39.5311764" lon="-0.44650993"><ele>93.6</ele><time>2022-11-01T15:28:28.0000000+00:00</time></trkpt><trkpt lat="39.5311764" lon="-0.44650993"><ele>93.8</ele><time>2022-11-01T15:28:29.0000000+00:00</time></trkpt><trkpt lat="39.5311764" lon="-0.44650993"><ele>93.8</ele><time>2022-11-01T15:28:30.0000000+00:00</time></trkpt><trkpt lat="39.5311764" lon="-0.44650993"><ele>93.8</ele><time>2022-11-01T15:28:31.0000000+00:00</time></trkpt><trkpt lat="39.5311764" lon="-0.44650993"><ele>93.6</ele><time>2022-11-01T15:28:32.0000000+00:00</time></trkpt><trkpt lat="39.5311764" lon="-0.44650993"><ele>93.6</ele><time>2022-11-01T15:28:33.0000000+00:00</time></trkpt><trkpt lat="39.5311764" lon="-0.44650993"><ele>93.6</ele><time>2022-11-01T15:28:34.0000000+00:00</time></trkpt><trkpt lat="39.5311764" lon="-0.44650993"><ele>93.6</ele><time>2022-11-01T15:28:35.0000000+00:00</time></trkpt><trkpt lat="39.5311764" lon="-0.44650993"><ele>93.4</ele><time>2022-11-01T15:28:36.0000000+00:00</time></trkpt><trkpt lat="39.5311764" lon="-0.44650993"><ele>93.4</ele><time>2022-11-01T15:28:37.0000000+00:00</time></trkpt><trkpt lat="39.5311764" lon="-0.44650993"><ele>93.4</ele><time>2022-11-01T15:28:38.0000000+00:00</time></trkpt><trkpt lat="39.5311764" lon="-0.44650993"><ele>93.2</ele><time>2022-11-01T15:28:39.0000000+00:00</time></trkpt><trkpt lat="39.5311764" lon="-0.44650993"><ele>93.2</ele><time>2022-11-01T15:28:40.0000000+00:00</time></trkpt><trkpt lat="39.5311764" lon="-0.44650993"><ele>93.2</ele><time>2022-11-01T15:28:41.0000000+00:00</time></trkpt><trkpt lat="39.5311764" lon="-0.44650993"><ele>93.2</ele><time>2022-11-01T15:28:42.0000000+00:00</time></trkpt><trkpt lat="39.5311764" lon="-0.44650993"><ele>93.2</ele><time>2022-11-01T15:28:43.0000000+00:00</time></trkpt><trkpt lat="39.5311764" lon="-0.44650993"><ele>93.2</ele><time>2022-11-01T15:28:44.0000000+00:00</time></trkpt><trkpt lat="39.5311764" lon="-0.44650993"><ele>93.2</ele><time>2022-11-01T15:28:45.0000000+00:00</time></trkpt><trkpt lat="39.5311764" lon="-0.44650993"><ele>93.2</ele><time>2022-11-01T15:28:46.0000000+00:00</time></trkpt><trkpt lat="39.5311764" lon="-0.44650993"><ele>93.2</ele><time>2022-11-01T15:28:47.0000000+00:00</time></trkpt><trkpt lat="39.5311764" lon="-0.44650993"><ele>93.2</ele><time>2022-11-01T15:28:48.0000000+00:00</time></trkpt><trkpt lat="39.5311764" lon="-0.44650993"><ele>93.2</ele><time>2022-11-01T15:28:49.0000000+00:00</time></trkpt><trkpt lat="39.5311764" lon="-0.44650993"><ele>93.2</ele><time>2022-11-01T15:28:50.0000000+00:00</time></trkpt><trkpt lat="39.5311764" lon="-0.44650993"><ele>93.2</ele><time>2022-11-01T15:28:51.0000000+00:00</time></trkpt><trkpt lat="39.5311764" lon="-0.44650993"><ele>93.2</ele><time>2022-11-01T15:28:52.0000000+00:00</time></trkpt><trkpt lat="39.5311764" lon="-0.44650993"><ele>93.2</ele><time>2022-11-01T15:28:53.0000000+00:00</time></trkpt><trkpt lat="39.5311764" lon="-0.44650993"><ele>93.2</ele><time>2022-11-01T15:28:54.0000000+00:00</time></trkpt><trkpt lat="39.5311764" lon="-0.44650993"><ele>93.2</ele><time>2022-11-01T15:28:55.0000000+00:00</time></trkpt><trkpt lat="39.5311764" lon="-0.44650993"><ele>93.2</ele><time>2022-11-01T15:28:56.0000000+00:00</time></trkpt><trkpt lat="39.5311764" lon="-0.44650993"><ele>93.2</ele><time>2022-11-01T15:28:57.0000000+00:00</time></trkpt><trkpt lat="39.5311764" lon="-0.44650993"><ele>93.2</ele><time>2022-11-01T15:28:58.0000000+00:00</time></trkpt><trkpt lat="39.5311764" lon="-0.44650993"><ele>93.2</ele><time>2022-11-01T15:28:59.0000000+00:00</time></trkpt><trkpt lat="39.5311764" lon="-0.44650993"><ele>93.2</ele><time>2022-11-01T15:29:00.0000000+00:00</time></trkpt><trkpt lat="39.5311764" lon="-0.44650993"><ele>93.2</ele><time>2022-11-01T15:29:01.0000000+00:00</time></trkpt><trkpt lat="39.5311764" lon="-0.44650993"><ele>93.2</ele><time>2022-11-01T15:29:02.0000000+00:00</time></trkpt><trkpt lat="39.5311764" lon="-0.44650993"><ele>93.2</ele><time>2022-11-01T15:29:03.0000000+00:00</time></trkpt><trkpt lat="39.5311764" lon="-0.44650993"><ele>93.2</ele><time>2022-11-01T15:29:04.0000000+00:00</time></trkpt><trkpt lat="39.5311764" lon="-0.44650993"><ele>93.2</ele><time>2022-11-01T15:29:05.0000000+00:00</time></trkpt><trkpt lat="39.5311764" lon="-0.44650993"><ele>93.2</ele><time>2022-11-01T15:29:06.0000000+00:00</time></trkpt><trkpt lat="39.5311764" lon="-0.44650993"><ele>93.2</ele><time>2022-11-01T15:29:07.0000000+00:00</time></trkpt><trkpt lat="39.5311764" lon="-0.44650993"><ele>93.2</ele><time>2022-11-01T15:29:08.0000000+00:00</time></trkpt><trkpt lat="39.5311764" lon="-0.44650993"><ele>93.2</ele><time>2022-11-01T15:29:09.0000000+00:00</time></trkpt><trkpt lat="39.5311764" lon="-0.44650993"><ele>93.2</ele><time>2022-11-01T15:29:10.0000000+00:00</time></trkpt><trkpt lat="39.5311764" lon="-0.44650993"><ele>93.2</ele><time>2022-11-01T15:29:11.0000000+00:00</time></trkpt><trkpt lat="39.5311764" lon="-0.44650993"><ele>93.2</ele><time>2022-11-01T15:29:12.0000000+00:00</time></trkpt><trkpt lat="39.5311764" lon="-0.44650993"><ele>93.2</ele><time>2022-11-01T15:29:13.0000000+00:00</time></trkpt><trkpt lat="39.5311764" lon="-0.44650993"><ele>93.2</ele><time>2022-11-01T15:29:14.0000000+00:00</time></trkpt><trkpt lat="39.5311764" lon="-0.44650993"><ele>93.2</ele><time>2022-11-01T15:29:15.0000000+00:00</time></trkpt><trkpt lat="39.5311764" lon="-0.44650993"><ele>93.2</ele><time>2022-11-01T15:29:16.0000000+00:00</time></trkpt><trkpt lat="39.5311764" lon="-0.44650993"><ele>93.2</ele><time>2022-11-01T15:29:17.0000000+00:00</time></trkpt><trkpt lat="39.5311764" lon="-0.44650993"><ele>93.2</ele><time>2022-11-01T15:29:18.0000000+00:00</time></trkpt><trkpt lat="39.5311764" lon="-0.44650993"><ele>93.2</ele><time>2022-11-01T15:29:19.0000000+00:00</time></trkpt><trkpt lat="39.5311764" lon="-0.44650993"><ele>93.2</ele><time>2022-11-01T15:29:20.0000000+00:00</time></trkpt><trkpt lat="39.5311764" lon="-0.44650993"><ele>93.2</ele><time>2022-11-01T15:29:21.0000000+00:00</time></trkpt><trkpt lat="39.5311764" lon="-0.44650993"><ele>93.2</ele><time>2022-11-01T15:29:22.0000000+00:00</time></trkpt><trkpt lat="39.5311764" lon="-0.44650993"><ele>93.2</ele><time>2022-11-01T15:29:23.0000000+00:00</time></trkpt><trkpt lat="39.5311764" lon="-0.44650993"><ele>93.2</ele><time>2022-11-01T15:29:24.0000000+00:00</time></trkpt><trkpt lat="39.5311764" lon="-0.44650993"><ele>93.2</ele><time>2022-11-01T15:29:25.0000000+00:00</time></trkpt><trkpt lat="39.5311764" lon="-0.44650993"><ele>93.2</ele><time>2022-11-01T15:29:26.0000000+00:00</time></trkpt><trkpt lat="39.5311764" lon="-0.44650993"><ele>93.2</ele><time>2022-11-01T15:29:27.0000000+00:00</time></trkpt><trkpt lat="39.5311764" lon="-0.44650993"><ele>93.2</ele><time>2022-11-01T15:29:28.0000000+00:00</time></trkpt><trkpt lat="39.5311764" lon="-0.44650993"><ele>93.2</ele><time>2022-11-01T15:29:29.0000000+00:00</time></trkpt><trkpt lat="39.5311764" lon="-0.44650993"><ele>93.2</ele><time>2022-11-01T15:29:30.0000000+00:00</time></trkpt><trkpt lat="39.5311764" lon="-0.44650993"><ele>93.2</ele><time>2022-11-01T15:29:31.0000000+00:00</time></trkpt><trkpt lat="39.5311764" lon="-0.44650993"><ele>93.2</ele><time>2022-11-01T15:29:32.0000000+00:00</time></trkpt><trkpt lat="39.5311764" lon="-0.44650993"><ele>93.2</ele><time>2022-11-01T15:29:33.0000000+00:00</time></trkpt><trkpt lat="39.5311764" lon="-0.44650993"><ele>93.2</ele><time>2022-11-01T15:29:34.0000000+00:00</time></trkpt><trkpt lat="39.5311764" lon="-0.44650993"><ele>93.2</ele><time>2022-11-01T15:29:35.0000000+00:00</time></trkpt><trkpt lat="39.5311764" lon="-0.44650993"><ele>93.2</ele><time>2022-11-01T15:29:36.0000000+00:00</time></trkpt><trkpt lat="39.53117673" lon="-0.44651136"><ele>93.2</ele><time>2022-11-01T15:29:37.0000000+00:00</time></trkpt><trkpt lat="39.5311774" lon="-0.44651488"><ele>93.2</ele><time>2022-11-01T15:29:38.0000000+00:00</time></trkpt><trkpt lat="39.53118092" lon="-0.44651798"><ele>93.2</ele><time>2022-11-01T15:29:39.0000000+00:00</time></trkpt><trkpt lat="39.53118361" lon="-0.44651957"><ele>93.2</ele><time>2022-11-01T15:29:40.0000000+00:00</time></trkpt><trkpt lat="39.53118361" lon="-0.44651957"><ele>93.2</ele><time>2022-11-01T15:29:41.0000000+00:00</time></trkpt><trkpt lat="39.53118277" lon="-0.44652108"><ele>93.2</ele><time>2022-11-01T15:29:42.0000000+00:00</time></trkpt><trkpt lat="39.53118847" lon="-0.44652536"><ele>93.2</ele><time>2022-11-01T15:29:43.0000000+00:00</time></trkpt><trkpt lat="39.53119434" lon="-0.44652946"><ele>93.2</ele><time>2022-11-01T15:29:44.0000000+00:00</time></trkpt><trkpt lat="39.53119987" lon="-0.44653349"><ele>93.2</ele><time>2022-11-01T15:29:45.0000000+00:00</time></trkpt><trkpt lat="39.5312028" lon="-0.44653986"><ele>93.2</ele><time>2022-11-01T15:29:46.0000000+00:00</time></trkpt><trkpt lat="39.53120573" lon="-0.44654992"><ele>93.2</ele><time>2022-11-01T15:29:47.0000000+00:00</time></trkpt><trkpt lat="39.53120691" lon="-0.44655662"><ele>93.2</ele><time>2022-11-01T15:29:48.0000000+00:00</time></trkpt><trkpt lat="39.53120649" lon="-0.44655788"><ele>93.2</ele><time>2022-11-01T15:29:49.0000000+00:00</time></trkpt><trkpt lat="39.53120607" lon="-0.44656157"><ele>93.2</ele><time>2022-11-01T15:29:50.0000000+00:00</time></trkpt><trkpt lat="39.53120607" lon="-0.44656157"><ele>93.2</ele><time>2022-11-01T15:29:51.0000000+00:00</time></trkpt><trkpt lat="39.53120607" lon="-0.44656157"><ele>93.2</ele><time>2022-11-01T15:29:52.0000000+00:00</time></trkpt><trkpt lat="39.53120607" lon="-0.44656157"><ele>93.2</ele><time>2022-11-01T15:29:53.0000000+00:00</time></trkpt><trkpt lat="39.53120607" lon="-0.44656157"><ele>93.2</ele><time>2022-11-01T15:29:54.0000000+00:00</time></trkpt><trkpt lat="39.53120498" lon="-0.44656266"><ele>93.2</ele><time>2022-11-01T15:29:55.0000000+00:00</time></trkpt><trkpt lat="39.53120247" lon="-0.44656157"><ele>93.2</ele><time>2022-11-01T15:29:56.0000000+00:00</time></trkpt><trkpt lat="39.53120247" lon="-0.44656157"><ele>93.2</ele><time>2022-11-01T15:29:57.0000000+00:00</time></trkpt><trkpt lat="39.53120129" lon="-0.4465609"><ele>93.2</ele><time>2022-11-01T15:29:58.0000000+00:00</time></trkpt><trkpt lat="39.53120288" lon="-0.44656391"><ele>93.2</ele><time>2022-11-01T15:29:59.0000000+00:00</time></trkpt><trkpt lat="39.53120288" lon="-0.44656391"><ele>93.2</ele><time>2022-11-01T15:30:00.0000000+00:00</time></trkpt><trkpt lat="39.53120288" lon="-0.44656391"><ele>93.2</ele><time>2022-11-01T15:30:01.0000000+00:00</time></trkpt><trkpt lat="39.53120288" lon="-0.44656391"><ele>93.2</ele><time>2022-11-01T15:30:02.0000000+00:00</time></trkpt><trkpt lat="39.53120288" lon="-0.44656391"><ele>93.2</ele><time>2022-11-01T15:30:03.0000000+00:00</time></trkpt><trkpt lat="39.53120288" lon="-0.44656391"><ele>93.2</ele><time>2022-11-01T15:30:04.0000000+00:00</time></trkpt><trkpt lat="39.53120288" lon="-0.44656391"><ele>93.2</ele><time>2022-11-01T15:30:05.0000000+00:00</time></trkpt><trkpt lat="39.53120288" lon="-0.44656391"><ele>93.2</ele><time>2022-11-01T15:30:06.0000000+00:00</time></trkpt><trkpt lat="39.53120288" lon="-0.44656391"><ele>93.2</ele><time>2022-11-01T15:30:07.0000000+00:00</time></trkpt><trkpt lat="39.53120288" lon="-0.44656391"><ele>93.2</ele><time>2022-11-01T15:30:08.0000000+00:00</time></trkpt><trkpt lat="39.53120288" lon="-0.44656391"><ele>93.2</ele><time>2022-11-01T15:30:09.0000000+00:00</time></trkpt><trkpt lat="39.53120288" lon="-0.44656391"><ele>93.2</ele><time>2022-11-01T15:30:10.0000000+00:00</time></trkpt><trkpt lat="39.53120288" lon="-0.44656391"><ele>93.2</ele><time>2022-11-01T15:30:11.0000000+00:00</time></trkpt><trkpt lat="39.53120288" lon="-0.44656391"><ele>93.2</ele><time>2022-11-01T15:30:12.0000000+00:00</time></trkpt><trkpt lat="39.53120288" lon="-0.44656391"><ele>93.2</ele><time>2022-11-01T15:30:13.0000000+00:00</time></trkpt><trkpt lat="39.53120288" lon="-0.44656391"><ele>93.2</ele><time>2022-11-01T15:30:14.0000000+00:00</time></trkpt><trkpt lat="39.53120288" lon="-0.44656391"><ele>93.2</ele><time>2022-11-01T15:30:15.0000000+00:00</time></trkpt><trkpt lat="39.53120288" lon="-0.44656391"><ele>93.2</ele><time>2022-11-01T15:30:16.0000000+00:00</time></trkpt><trkpt lat="39.53120205" lon="-0.44656249"><ele>93.2</ele><time>2022-11-01T15:30:17.0000000+00:00</time></trkpt><trkpt lat="39.53120071" lon="-0.44655981"><ele>93.2</ele><time>2022-11-01T15:30:18.0000000+00:00</time></trkpt><trkpt lat="39.53119836" lon="-0.44655964"><ele>93.2</ele><time>2022-11-01T15:30:19.0000000+00:00</time></trkpt><trkpt lat="39.53120012" lon="-0.44655696"><ele>93.2</ele><time>2022-11-01T15:30:20.0000000+00:00</time></trkpt><trkpt lat="39.53120012" lon="-0.44655696"><ele>93.2</ele><time>2022-11-01T15:30:21.0000000+00:00</time></trkpt><trkpt lat="39.53120012" lon="-0.44655696"><ele>93.2</ele><time>2022-11-01T15:30:22.0000000+00:00</time></trkpt><trkpt lat="39.53120012" lon="-0.44655696"><ele>93.2</ele><time>2022-11-01T15:30:23.0000000+00:00</time></trkpt><trkpt lat="39.53120012" lon="-0.44655696"><ele>93.2</ele><time>2022-11-01T15:30:24.0000000+00:00</time></trkpt><trkpt lat="39.53119425" lon="-0.44655369"><ele>93.2</ele><time>2022-11-01T15:30:25.0000000+00:00</time></trkpt><trkpt lat="39.53119157" lon="-0.4465526"><ele>93.2</ele><time>2022-11-01T15:30:26.0000000+00:00</time></trkpt><trkpt lat="39.5311904" lon="-0.44654841"><ele>93.2</ele><time>2022-11-01T15:30:27.0000000+00:00</time></trkpt><trkpt lat="39.53118553" lon="-0.44654355"><ele>93.2</ele><time>2022-11-01T15:30:28.0000000+00:00</time></trkpt><trkpt lat="39.53117581" lon="-0.44654329"><ele>93.2</ele><time>2022-11-01T15:30:29.0000000+00:00</time></trkpt><trkpt lat="39.53116207" lon="-0.44654614"><ele>93.2</ele><time>2022-11-01T15:30:30.0000000+00:00</time></trkpt><trkpt lat="39.53113868" lon="-0.44655033"><ele>93.2</ele><time>2022-11-01T15:30:31.0000000+00:00</time></trkpt><trkpt lat="39.53112141" lon="-0.44656475"><ele>93.2</ele><time>2022-11-01T15:30:32.0000000+00:00</time></trkpt><trkpt lat="39.53110272" lon="-0.44656995"><ele>93.2</ele><time>2022-11-01T15:30:33.0000000+00:00</time></trkpt><trkpt lat="39.53108512" lon="-0.44657213"><ele>93.6</ele><time>2022-11-01T15:30:34.0000000+00:00</time></trkpt><trkpt lat="39.53106936" lon="-0.44657095"><ele>93.6</ele><time>2022-11-01T15:30:35.0000000+00:00</time></trkpt><trkpt lat="39.53105268" lon="-0.44656886"><ele>93.8</ele><time>2022-11-01T15:30:36.0000000+00:00</time></trkpt><trkpt lat="39.53103734" lon="-0.44656936"><ele>94.0</ele><time>2022-11-01T15:30:37.0000000+00:00</time></trkpt><trkpt lat="39.53102251" lon="-0.44657548"><ele>94.0</ele><time>2022-11-01T15:30:38.0000000+00:00</time></trkpt><trkpt lat="39.53100633" lon="-0.44658009"><ele>94.0</ele><time>2022-11-01T15:30:39.0000000+00:00</time></trkpt><trkpt lat="39.53099149" lon="-0.44658856"><ele>93.8</ele><time>2022-11-01T15:30:40.0000000+00:00</time></trkpt><trkpt lat="39.53097733" lon="-0.44659887"><ele>93.8</ele><time>2022-11-01T15:30:41.0000000+00:00</time></trkpt><trkpt lat="39.53096316" lon="-0.44661035"><ele>93.6</ele><time>2022-11-01T15:30:42.0000000+00:00</time></trkpt><trkpt lat="39.53094833" lon="-0.4466142"><ele>93.4</ele><time>2022-11-01T15:30:43.0000000+00:00</time></trkpt><trkpt lat="39.53093114" lon="-0.44661337"><ele>93.4</ele><time>2022-11-01T15:30:44.0000000+00:00</time></trkpt><trkpt lat="39.53091396" lon="-0.44661504"><ele>93.2</ele><time>2022-11-01T15:30:45.0000000+00:00</time></trkpt><trkpt lat="39.5308977" lon="-0.44661563"><ele>93.2</ele><time>2022-11-01T15:30:46.0000000+00:00</time></trkpt><trkpt lat="39.53088152" lon="-0.44661664"><ele>93.0</ele><time>2022-11-01T15:30:47.0000000+00:00</time></trkpt><trkpt lat="39.53086652" lon="-0.44662351"><ele>93.0</ele><time>2022-11-01T15:30:48.0000000+00:00</time></trkpt><trkpt lat="39.53085403" lon="-0.44662829"><ele>93.0</ele><time>2022-11-01T15:30:49.0000000+00:00</time></trkpt><trkpt lat="39.5308495" lon="-0.44663901"><ele>92.8</ele><time>2022-11-01T15:30:50.0000000+00:00</time></trkpt><trkpt lat="39.53084372" lon="-0.44664488"><ele>92.8</ele><time>2022-11-01T15:30:51.0000000+00:00</time></trkpt><trkpt lat="39.53082997" lon="-0.44664941"><ele>92.6</ele><time>2022-11-01T15:30:52.0000000+00:00</time></trkpt><trkpt lat="39.5308117" lon="-0.44665268"><ele>92.4</ele><time>2022-11-01T15:30:53.0000000+00:00</time></trkpt><trkpt lat="39.53079754" lon="-0.4466593"><ele>92.2</ele><time>2022-11-01T15:30:54.0000000+00:00</time></trkpt><trkpt lat="39.53078371" lon="-0.44666575"><ele>92.2</ele><time>2022-11-01T15:30:55.0000000+00:00</time></trkpt><trkpt lat="39.53077004" lon="-0.44666701"><ele>92.0</ele><time>2022-11-01T15:30:56.0000000+00:00</time></trkpt><trkpt lat="39.53076627" lon="-0.44666651"><ele>92.0</ele><time>2022-11-01T15:30:57.0000000+00:00</time></trkpt><trkpt lat="39.53076627" lon="-0.44666651"><ele>92.0</ele><time>2022-11-01T15:30:58.0000000+00:00</time></trkpt><trkpt lat="39.53076627" lon="-0.44666651"><ele>91.8</ele><time>2022-11-01T15:30:59.0000000+00:00</time></trkpt><trkpt lat="39.53076627" lon="-0.44666651"><ele>91.8</ele><time>2022-11-01T15:31:00.0000000+00:00</time></trkpt><trkpt lat="39.53076627" lon="-0.44666651"><ele>91.8</ele><time>2022-11-01T15:31:01.0000000+00:00</time></trkpt><trkpt lat="39.53076627" lon="-0.44666651"><ele>91.8</ele><time>2022-11-01T15:31:02.0000000+00:00</time></trkpt><trkpt lat="39.53076627" lon="-0.44666651"><ele>91.8</ele><time>2022-11-01T15:31:03.0000000+00:00</time></trkpt><trkpt lat="39.53076627" lon="-0.44666651"><ele>91.8</ele><time>2022-11-01T15:31:04.0000000+00:00</time></trkpt><trkpt lat="39.5307661" lon="-0.44666282"><ele>91.8</ele><time>2022-11-01T15:31:05.0000000+00:00</time></trkpt><trkpt lat="39.53076719" lon="-0.44665393"><ele>91.8</ele><time>2022-11-01T15:31:06.0000000+00:00</time></trkpt><trkpt lat="39.53076795" lon="-0.44665016"><ele>91.8</ele><time>2022-11-01T15:31:07.0000000+00:00</time></trkpt><trkpt lat="39.5307661" lon="-0.44664664"><ele>91.8</ele><time>2022-11-01T15:31:08.0000000+00:00</time></trkpt><trkpt lat="39.53076719" lon="-0.44664212"><ele>92.0</ele><time>2022-11-01T15:31:09.0000000+00:00</time></trkpt><trkpt lat="39.5307687" lon="-0.44663809"><ele>92.0</ele><time>2022-11-01T15:31:10.0000000+00:00</time></trkpt><trkpt lat="39.53077507" lon="-0.44662292"><ele>92.2</ele><time>2022-11-01T15:31:11.0000000+00:00</time></trkpt><trkpt lat="39.53078262" lon="-0.44661152"><ele>92.2</ele><time>2022-11-01T15:31:12.0000000+00:00</time></trkpt><trkpt lat="39.53078371" lon="-0.44660029"><ele>92.4</ele><time>2022-11-01T15:31:13.0000000+00:00</time></trkpt><trkpt lat="39.5307822" lon="-0.44659333"><ele>92.4</ele><time>2022-11-01T15:31:14.0000000+00:00</time></trkpt><trkpt lat="39.53078245" lon="-0.44659778"><ele>92.6</ele><time>2022-11-01T15:31:15.0000000+00:00</time></trkpt><trkpt lat="39.53078454" lon="-0.44660239"><ele>92.8</ele><time>2022-11-01T15:31:16.0000000+00:00</time></trkpt><trkpt lat="39.53078454" lon="-0.44660239"><ele>92.8</ele><time>2022-11-01T15:31:17.0000000+00:00</time></trkpt><trkpt lat="39.53078454" lon="-0.44660239"><ele>92.8</ele><time>2022-11-01T15:31:18.0000000+00:00</time></trkpt><trkpt lat="39.53078454" lon="-0.44660239"><ele>92.8</ele><time>2022-11-01T15:31:19.0000000+00:00</time></trkpt><trkpt lat="39.53078454" lon="-0.44660239"><ele>92.8</ele><time>2022-11-01T15:31:20.0000000+00:00</time></trkpt><trkpt lat="39.53078454" lon="-0.44660239"><ele>92.8</ele><time>2022-11-01T15:31:21.0000000+00:00</time></trkpt><trkpt lat="39.53078672" lon="-0.44660448"><ele>93.0</ele><time>2022-11-01T15:31:22.0000000+00:00</time></trkpt><trkpt lat="39.53078806" lon="-0.44660733"><ele>93.0</ele><time>2022-11-01T15:31:23.0000000+00:00</time></trkpt><trkpt lat="39.53079226" lon="-0.44660884"><ele>93.0</ele><time>2022-11-01T15:31:24.0000000+00:00</time></trkpt><trkpt lat="39.53079745" lon="-0.44661068"><ele>93.0</ele><time>2022-11-01T15:31:25.0000000+00:00</time></trkpt><trkpt lat="39.5308055" lon="-0.44661278"><ele>93.0</ele><time>2022-11-01T15:31:26.0000000+00:00</time></trkpt><trkpt lat="39.53081153" lon="-0.44661169"><ele>93.0</ele><time>2022-11-01T15:31:27.0000000+00:00</time></trkpt><trkpt lat="39.5308195" lon="-0.4466111"><ele>93.0</ele><time>2022-11-01T15:31:28.0000000+00:00</time></trkpt><trkpt lat="39.53082997" lon="-0.44661404"><ele>93.0</ele><time>2022-11-01T15:31:29.0000000+00:00</time></trkpt><trkpt lat="39.53084095" lon="-0.4466194"><ele>93.0</ele><time>2022-11-01T15:31:30.0000000+00:00</time></trkpt><trkpt lat="39.53085411" lon="-0.44662619"><ele>92.8</ele><time>2022-11-01T15:31:31.0000000+00:00</time></trkpt><trkpt lat="39.53086778" lon="-0.44663181"><ele>92.8</ele><time>2022-11-01T15:31:32.0000000+00:00</time></trkpt><trkpt lat="39.53087817" lon="-0.44663617"><ele>92.8</ele><time>2022-11-01T15:31:33.0000000+00:00</time></trkpt><trkpt lat="39.53089032" lon="-0.44664086"><ele>92.8</ele><time>2022-11-01T15:31:34.0000000+00:00</time></trkpt><trkpt lat="39.53090583" lon="-0.44664438"><ele>92.8</ele><time>2022-11-01T15:31:35.0000000+00:00</time></trkpt><trkpt lat="39.53092159" lon="-0.44663491"><ele>92.8</ele><time>2022-11-01T15:31:36.0000000+00:00</time></trkpt><trkpt lat="39.53093064" lon="-0.44662887"><ele>92.8</ele><time>2022-11-01T15:31:37.0000000+00:00</time></trkpt><trkpt lat="39.53093525" lon="-0.44662401"><ele>93.0</ele><time>2022-11-01T15:31:38.0000000+00:00</time></trkpt><trkpt lat="39.53094229" lon="-0.44661714"><ele>93.2</ele><time>2022-11-01T15:31:39.0000000+00:00</time></trkpt><trkpt lat="39.53095101" lon="-0.44661001"><ele>93.4</ele><time>2022-11-01T15:31:40.0000000+00:00</time></trkpt><trkpt lat="39.53095981" lon="-0.44660289"><ele>93.4</ele><time>2022-11-01T15:31:41.0000000+00:00</time></trkpt><trkpt lat="39.53096802" lon="-0.44660029"><ele>93.4</ele><time>2022-11-01T15:31:42.0000000+00:00</time></trkpt><trkpt lat="39.53097867" lon="-0.44659652"><ele>93.6</ele><time>2022-11-01T15:31:43.0000000+00:00</time></trkpt><trkpt lat="39.53099242" lon="-0.4465935"><ele>93.6</ele><time>2022-11-01T15:31:44.0000000+00:00</time></trkpt><trkpt lat="39.53100432" lon="-0.44659065"><ele>93.6</ele><time>2022-11-01T15:31:45.0000000+00:00</time></trkpt><trkpt lat="39.5310184" lon="-0.4465909"><ele>93.6</ele><time>2022-11-01T15:31:46.0000000+00:00</time></trkpt><trkpt lat="39.53103432" lon="-0.44658411"><ele>93.8</ele><time>2022-11-01T15:31:47.0000000+00:00</time></trkpt><trkpt lat="39.53104832" lon="-0.44658269"><ele>93.8</ele><time>2022-11-01T15:31:48.0000000+00:00</time></trkpt><trkpt lat="39.53106458" lon="-0.44658135"><ele>94.0</ele><time>2022-11-01T15:31:49.0000000+00:00</time></trkpt><trkpt lat="39.53107799" lon="-0.44657892"><ele>94.0</ele><time>2022-11-01T15:31:50.0000000+00:00</time></trkpt><trkpt lat="39.53109015" lon="-0.44657456"><ele>94.0</ele><time>2022-11-01T15:31:51.0000000+00:00</time></trkpt><trkpt lat="39.53110348" lon="-0.44657104"><ele>94.2</ele><time>2022-11-01T15:31:52.0000000+00:00</time></trkpt><trkpt lat="39.53111705" lon="-0.44656945"><ele>94.2</ele><time>2022-11-01T15:31:53.0000000+00:00</time></trkpt><trkpt lat="39.53112979" lon="-0.44656961"><ele>94.4</ele><time>2022-11-01T15:31:54.0000000+00:00</time></trkpt><trkpt lat="39.53114128" lon="-0.44656936"><ele>94.4</ele><time>2022-11-01T15:31:55.0000000+00:00</time></trkpt><trkpt lat="39.5311541" lon="-0.44656961"><ele>94.4</ele><time>2022-11-01T15:31:56.0000000+00:00</time></trkpt><trkpt lat="39.53116793" lon="-0.44656978"><ele>94.4</ele><time>2022-11-01T15:31:57.0000000+00:00</time></trkpt><trkpt lat="39.53118051" lon="-0.44656911"><ele>94.4</ele><time>2022-11-01T15:31:58.0000000+00:00</time></trkpt><trkpt lat="39.53119777" lon="-0.44656634"><ele>94.4</ele><time>2022-11-01T15:31:59.0000000+00:00</time></trkpt><trkpt lat="39.53120976" lon="-0.44655696"><ele>94.6</ele><time>2022-11-01T15:32:00.0000000+00:00</time></trkpt><trkpt lat="39.53121923" lon="-0.44654723"><ele>94.6</ele><time>2022-11-01T15:32:01.0000000+00:00</time></trkpt><trkpt lat="39.53122619" lon="-0.4465355"><ele>94.8</ele><time>2022-11-01T15:32:02.0000000+00:00</time></trkpt><trkpt lat="39.53123038" lon="-0.44652267"><ele>94.8</ele><time>2022-11-01T15:32:03.0000000+00:00</time></trkpt><trkpt lat="39.53123692" lon="-0.44650993"><ele>95.0</ele><time>2022-11-01T15:32:04.0000000+00:00</time></trkpt><trkpt lat="39.53124572" lon="-0.44649082"><ele>95.0</ele><time>2022-11-01T15:32:05.0000000+00:00</time></trkpt><trkpt lat="39.53125376" lon="-0.44647523"><ele>95.2</ele><time>2022-11-01T15:32:06.0000000+00:00</time></trkpt><trkpt lat="39.53125862" lon="-0.44646299"><ele>95.2</ele><time>2022-11-01T15:32:07.0000000+00:00</time></trkpt><trkpt lat="39.53126139" lon="-0.44644916"><ele>95.4</ele><time>2022-11-01T15:32:08.0000000+00:00</time></trkpt><trkpt lat="39.53125921" lon="-0.44643844"><ele>95.6</ele><time>2022-11-01T15:32:09.0000000+00:00</time></trkpt><trkpt lat="39.53126131" lon="-0.44643173"><ele>95.8</ele><time>2022-11-01T15:32:10.0000000+00:00</time></trkpt><trkpt lat="39.5312629" lon="-0.44642595"><ele>96.0</ele><time>2022-11-01T15:32:11.0000000+00:00</time></trkpt><trkpt lat="39.5312608" lon="-0.44642243"><ele>96.2</ele><time>2022-11-01T15:32:12.0000000+00:00</time></trkpt><trkpt lat="39.53126231" lon="-0.44641119"><ele>96.2</ele><time>2022-11-01T15:32:13.0000000+00:00</time></trkpt><trkpt lat="39.53126407" lon="-0.44639326"><ele>96.2</ele><time>2022-11-01T15:32:14.0000000+00:00</time></trkpt><trkpt lat="39.53126198" lon="-0.4463775"><ele>96.2</ele><time>2022-11-01T15:32:15.0000000+00:00</time></trkpt><trkpt lat="39.5312567" lon="-0.4463573"><ele>96.2</ele><time>2022-11-01T15:32:16.0000000+00:00</time></trkpt><trkpt lat="39.5312546" lon="-0.44635034"><ele>96.2</ele><time>2022-11-01T15:32:17.0000000+00:00</time></trkpt><trkpt lat="39.5312546" lon="-0.44635034"><ele>96.2</ele><time>2022-11-01T15:32:18.0000000+00:00</time></trkpt><trkpt lat="39.53125041" lon="-0.44634699"><ele>96.2</ele><time>2022-11-01T15:32:19.0000000+00:00</time></trkpt><trkpt lat="39.53124714" lon="-0.44634305"><ele>96.2</ele><time>2022-11-01T15:32:20.0000000+00:00</time></trkpt><trkpt lat="39.53124714" lon="-0.44634305"><ele>96.2</ele><time>2022-11-01T15:32:21.0000000+00:00</time></trkpt><trkpt lat="39.53124211" lon="-0.44634037"><ele>96.2</ele><time>2022-11-01T15:32:22.0000000+00:00</time></trkpt><trkpt lat="39.53123205" lon="-0.4463376"><ele>96.2</ele><time>2022-11-01T15:32:23.0000000+00:00</time></trkpt><trkpt lat="39.53122116" lon="-0.44633249"><ele>96.2</ele><time>2022-11-01T15:32:24.0000000+00:00</time></trkpt><trkpt lat="39.53120708" lon="-0.44632721"><ele>96.2</ele><time>2022-11-01T15:32:25.0000000+00:00</time></trkpt><trkpt lat="39.53119366" lon="-0.44631723"><ele>96.2</ele><time>2022-11-01T15:32:26.0000000+00:00</time></trkpt><trkpt lat="39.53117816" lon="-0.44630382"><ele>96.2</ele><time>2022-11-01T15:32:27.0000000+00:00</time></trkpt><trkpt lat="39.53115905" lon="-0.44628672"><ele>96.2</ele><time>2022-11-01T15:32:28.0000000+00:00</time></trkpt><trkpt lat="39.53112946" lon="-0.44626803"><ele>96.4</ele><time>2022-11-01T15:32:29.0000000+00:00</time></trkpt><trkpt lat="39.53110817" lon="-0.44625521"><ele>96.4</ele><time>2022-11-01T15:32:30.0000000+00:00</time></trkpt><trkpt lat="39.53107506" lon="-0.44623694"><ele>96.4</ele><time>2022-11-01T15:32:31.0000000+00:00</time></trkpt><trkpt lat="39.5310417" lon="-0.44621992"><ele>96.4</ele><time>2022-11-01T15:32:32.0000000+00:00</time></trkpt><trkpt lat="39.53101396" lon="-0.44620617"><ele>96.4</ele><time>2022-11-01T15:32:33.0000000+00:00</time></trkpt><trkpt lat="39.53098286" lon="-0.44618874"><ele>96.4</ele><time>2022-11-01T15:32:34.0000000+00:00</time></trkpt><trkpt lat="39.53094489" lon="-0.44616946"><ele>96.4</ele><time>2022-11-01T15:32:35.0000000+00:00</time></trkpt><trkpt lat="39.53091891" lon="-0.44615664"><ele>96.4</ele><time>2022-11-01T15:32:36.0000000+00:00</time></trkpt><trkpt lat="39.5308811" lon="-0.44613409"><ele>96.4</ele><time>2022-11-01T15:32:37.0000000+00:00</time></trkpt><trkpt lat="39.53084892" lon="-0.44611347"><ele>96.4</ele><time>2022-11-01T15:32:38.0000000+00:00</time></trkpt><trkpt lat="39.53082427" lon="-0.44609821"><ele>96.4</ele><time>2022-11-01T15:32:39.0000000+00:00</time></trkpt><trkpt lat="39.53078806" lon="-0.44607793"><ele>96.4</ele><time>2022-11-01T15:32:40.0000000+00:00</time></trkpt><trkpt lat="39.53075722" lon="-0.44606108"><ele>96.4</ele><time>2022-11-01T15:32:41.0000000+00:00</time></trkpt><trkpt lat="39.53073048" lon="-0.44604616"><ele>96.4</ele><time>2022-11-01T15:32:42.0000000+00:00</time></trkpt><trkpt lat="39.53069042" lon="-0.44602353"><ele>96.4</ele><time>2022-11-01T15:32:43.0000000+00:00</time></trkpt><trkpt lat="39.53065756" lon="-0.44600048"><ele>96.4</ele><time>2022-11-01T15:32:44.0000000+00:00</time></trkpt><trkpt lat="39.53063107" lon="-0.44598104"><ele>96.4</ele><time>2022-11-01T15:32:45.0000000+00:00</time></trkpt><trkpt lat="39.53059662" lon="-0.44595715"><ele>96.4</ele><time>2022-11-01T15:32:46.0000000+00:00</time></trkpt><trkpt lat="39.53055999" lon="-0.44593234"><ele>96.4</ele><time>2022-11-01T15:32:47.0000000+00:00</time></trkpt><trkpt lat="39.53051238" lon="-0.44590451"><ele>96.4</ele><time>2022-11-01T15:32:48.0000000+00:00</time></trkpt><trkpt lat="39.5304755" lon="-0.44588582"><ele>96.4</ele><time>2022-11-01T15:32:49.0000000+00:00</time></trkpt><trkpt lat="39.53043636" lon="-0.44586168"><ele>96.4</ele><time>2022-11-01T15:32:50.0000000+00:00</time></trkpt><trkpt lat="39.53039621" lon="-0.44583561"><ele>96.6</ele><time>2022-11-01T15:32:51.0000000+00:00</time></trkpt><trkpt lat="39.53035237" lon="-0.44580912"><ele>96.6</ele><time>2022-11-01T15:32:52.0000000+00:00</time></trkpt><trkpt lat="39.5303113" lon="-0.4457823"><ele>96.6</ele><time>2022-11-01T15:32:53.0000000+00:00</time></trkpt><trkpt lat="39.53027685" lon="-0.4457595"><ele>96.4</ele><time>2022-11-01T15:32:54.0000000+00:00</time></trkpt><trkpt lat="39.53022589" lon="-0.44572681"><ele>96.4</ele><time>2022-11-01T15:32:55.0000000+00:00</time></trkpt><trkpt lat="39.53017862" lon="-0.44569362"><ele>96.4</ele><time>2022-11-01T15:32:56.0000000+00:00</time></trkpt><trkpt lat="39.53014249" lon="-0.44566965"><ele>96.4</ele><time>2022-11-01T15:32:57.0000000+00:00</time></trkpt><trkpt lat="39.53008859" lon="-0.44563025"><ele>96.4</ele><time>2022-11-01T15:32:58.0000000+00:00</time></trkpt><trkpt lat="39.53004308" lon="-0.44559513"><ele>96.4</ele><time>2022-11-01T15:32:59.0000000+00:00</time></trkpt><trkpt lat="39.53000754" lon="-0.44556873"><ele>96.4</ele><time>2022-11-01T15:33:00.0000000+00:00</time></trkpt><trkpt lat="39.52995532" lon="-0.44552825"><ele>96.4</ele><time>2022-11-01T15:33:01.0000000+00:00</time></trkpt><trkpt lat="39.52991383" lon="-0.44549229"><ele>96.4</ele><time>2022-11-01T15:33:02.0000000+00:00</time></trkpt><trkpt lat="39.52988156" lon="-0.44546437"><ele>96.4</ele><time>2022-11-01T15:33:03.0000000+00:00</time></trkpt><trkpt lat="39.5298332" lon="-0.44542079"><ele>96.2</ele><time>2022-11-01T15:33:04.0000000+00:00</time></trkpt><trkpt lat="39.52979229" lon="-0.44538408"><ele>96.2</ele><time>2022-11-01T15:33:05.0000000+00:00</time></trkpt><trkpt lat="39.52975768" lon="-0.44535189"><ele>96.2</ele><time>2022-11-01T15:33:06.0000000+00:00</time></trkpt><trkpt lat="39.52971007" lon="-0.44530713"><ele>96.0</ele><time>2022-11-01T15:33:07.0000000+00:00</time></trkpt><trkpt lat="39.52967662" lon="-0.44527436"><ele>95.8</ele><time>2022-11-01T15:33:08.0000000+00:00</time></trkpt><trkpt lat="39.52963455" lon="-0.44523454"><ele>95.8</ele><time>2022-11-01T15:33:09.0000000+00:00</time></trkpt><trkpt lat="39.52959188" lon="-0.44519766"><ele>95.8</ele><time>2022-11-01T15:33:10.0000000+00:00</time></trkpt><trkpt lat="39.52955333" lon="-0.44515944"><ele>95.8</ele><time>2022-11-01T15:33:11.0000000+00:00</time></trkpt><trkpt lat="39.52951569" lon="-0.44512055"><ele>95.8</ele><time>2022-11-01T15:33:12.0000000+00:00</time></trkpt><trkpt lat="39.5294773" lon="-0.44508258"><ele>95.8</ele><time>2022-11-01T15:33:13.0000000+00:00</time></trkpt><trkpt lat="39.5294307" lon="-0.44503774"><ele>95.8</ele><time>2022-11-01T15:33:14.0000000+00:00</time></trkpt><trkpt lat="39.52939684" lon="-0.44500412"><ele>95.8</ele><time>2022-11-01T15:33:15.0000000+00:00</time></trkpt><trkpt lat="39.52936197" lon="-0.44497294"><ele>95.8</ele><time>2022-11-01T15:33:16.0000000+00:00</time></trkpt><trkpt lat="39.52932249" lon="-0.44494042"><ele>95.8</ele><time>2022-11-01T15:33:17.0000000+00:00</time></trkpt><trkpt lat="39.52929307" lon="-0.44491511"><ele>95.8</ele><time>2022-11-01T15:33:18.0000000+00:00</time></trkpt><trkpt lat="39.5292468" lon="-0.44487228"><ele>95.6</ele><time>2022-11-01T15:33:19.0000000+00:00</time></trkpt><trkpt lat="39.52920816" lon="-0.4448338"><ele>95.6</ele><time>2022-11-01T15:33:20.0000000+00:00</time></trkpt><trkpt lat="39.52917874" lon="-0.44480396"><ele>95.4</ele><time>2022-11-01T15:33:21.0000000+00:00</time></trkpt><trkpt lat="39.52913205" lon="-0.44475409"><ele>95.4</ele><time>2022-11-01T15:33:22.0000000+00:00</time></trkpt><trkpt lat="39.52908729" lon="-0.44471637"><ele>95.2</ele><time>2022-11-01T15:33:23.0000000+00:00</time></trkpt><trkpt lat="39.52905427" lon="-0.44468855"><ele>95.0</ele><time>2022-11-01T15:33:24.0000000+00:00</time></trkpt><trkpt lat="39.52900414" lon="-0.44464848"><ele>95.0</ele><time>2022-11-01T15:33:25.0000000+00:00</time></trkpt><trkpt lat="39.52896215" lon="-0.44461462"><ele>95.0</ele><time>2022-11-01T15:33:26.0000000+00:00</time></trkpt><trkpt lat="39.52893022" lon="-0.44458696"><ele>95.0</ele><time>2022-11-01T15:33:27.0000000+00:00</time></trkpt><trkpt lat="39.5288842" lon="-0.44454622"><ele>95.0</ele><time>2022-11-01T15:33:28.0000000+00:00</time></trkpt><trkpt lat="39.52884615" lon="-0.44450741"><ele>94.8</ele><time>2022-11-01T15:33:29.0000000+00:00</time></trkpt><trkpt lat="39.52881362" lon="-0.44447171"><ele>94.8</ele><time>2022-11-01T15:33:30.0000000+00:00</time></trkpt><trkpt lat="39.5287687" lon="-0.44441647"><ele>94.8</ele><time>2022-11-01T15:33:31.0000000+00:00</time></trkpt><trkpt lat="39.52873115" lon="-0.44436852"><ele>94.8</ele><time>2022-11-01T15:33:32.0000000+00:00</time></trkpt><trkpt lat="39.52870323" lon="-0.4443303"><ele>95.0</ele><time>2022-11-01T15:33:33.0000000+00:00</time></trkpt><trkpt lat="39.52865504" lon="-0.4442687"><ele>94.8</ele><time>2022-11-01T15:33:34.0000000+00:00</time></trkpt><trkpt lat="39.5286143" lon="-0.44421556"><ele>94.8</ele><time>2022-11-01T15:33:35.0000000+00:00</time></trkpt><trkpt lat="39.52857851" lon="-0.44417926"><ele>94.8</ele><time>2022-11-01T15:33:36.0000000+00:00</time></trkpt><trkpt lat="39.5285195" lon="-0.44413668"><ele>94.6</ele><time>2022-11-01T15:33:37.0000000+00:00</time></trkpt><trkpt lat="39.52847851" lon="-0.44411916"><ele>94.6</ele><time>2022-11-01T15:33:38.0000000+00:00</time></trkpt><trkpt lat="39.52842713" lon="-0.44410273"><ele>94.4</ele><time>2022-11-01T15:33:39.0000000+00:00</time></trkpt><trkpt lat="39.52836435" lon="-0.44407717"><ele>94.4</ele><time>2022-11-01T15:33:40.0000000+00:00</time></trkpt><trkpt lat="39.52831565" lon="-0.4440428"><ele>94.4</ele><time>2022-11-01T15:33:41.0000000+00:00</time></trkpt><trkpt lat="39.52828188" lon="-0.44400768"><ele>94.2</ele><time>2022-11-01T15:33:42.0000000+00:00</time></trkpt><trkpt lat="39.52824097" lon="-0.44394893"><ele>94.2</ele><time>2022-11-01T15:33:43.0000000+00:00</time></trkpt><trkpt lat="39.52821625" lon="-0.44388874"><ele>94.2</ele><time>2022-11-01T15:33:44.0000000+00:00</time></trkpt><trkpt lat="39.52820468" lon="-0.44383384"><ele>94.2</ele><time>2022-11-01T15:33:45.0000000+00:00</time></trkpt><trkpt lat="39.52819722" lon="-0.44374969"><ele>94.2</ele><time>2022-11-01T15:33:46.0000000+00:00</time></trkpt><trkpt lat="39.52820367" lon="-0.44367995"><ele>94.2</ele><time>2022-11-01T15:33:47.0000000+00:00</time></trkpt><trkpt lat="39.52821381" lon="-0.44361122"><ele>94.2</ele><time>2022-11-01T15:33:48.0000000+00:00</time></trkpt><trkpt lat="39.52821717" lon="-0.44354182"><ele>94.2</ele><time>2022-11-01T15:33:49.0000000+00:00</time></trkpt><trkpt lat="39.52821742" lon="-0.44347669"><ele>94.4</ele><time>2022-11-01T15:33:50.0000000+00:00</time></trkpt><trkpt lat="39.52821717" lon="-0.44342271"><ele>94.4</ele><time>2022-11-01T15:33:51.0000000+00:00</time></trkpt><trkpt lat="39.5282108" lon="-0.44334509"><ele>94.4</ele><time>2022-11-01T15:33:52.0000000+00:00</time></trkpt><trkpt lat="39.52819328" lon="-0.443286"><ele>94.4</ele><time>2022-11-01T15:33:53.0000000+00:00</time></trkpt><trkpt lat="39.52817107" lon="-0.44324141"><ele>94.4</ele><time>2022-11-01T15:33:54.0000000+00:00</time></trkpt><trkpt lat="39.52813083" lon="-0.44317436"><ele>94.2</ele><time>2022-11-01T15:33:55.0000000+00:00</time></trkpt><trkpt lat="39.52809362" lon="-0.44312188"><ele>94.0</ele><time>2022-11-01T15:33:56.0000000+00:00</time></trkpt><trkpt lat="39.52805514" lon="-0.44307629"><ele>93.8</ele><time>2022-11-01T15:33:57.0000000+00:00</time></trkpt><trkpt lat="39.528016" lon="-0.44303161"><ele>93.6</ele><time>2022-11-01T15:33:58.0000000+00:00</time></trkpt><trkpt lat="39.52797443" lon="-0.44298484"><ele>93.4</ele><time>2022-11-01T15:33:59.0000000+00:00</time></trkpt><trkpt lat="39.52794015" lon="-0.4429483"><ele>93.2</ele><time>2022-11-01T15:34:00.0000000+00:00</time></trkpt><trkpt lat="39.52788575" lon="-0.44289239"><ele>93.2</ele><time>2022-11-01T15:34:01.0000000+00:00</time></trkpt><trkpt lat="39.52784937" lon="-0.44285517"><ele>92.8</ele><time>2022-11-01T15:34:02.0000000+00:00</time></trkpt><trkpt lat="39.52779413" lon="-0.44280195"><ele>92.8</ele><time>2022-11-01T15:34:03.0000000+00:00</time></trkpt><trkpt lat="39.52774225" lon="-0.44275828"><ele>92.4</ele><time>2022-11-01T15:34:04.0000000+00:00</time></trkpt><trkpt lat="39.52769137" lon="-0.44271587"><ele>92.4</ele><time>2022-11-01T15:34:05.0000000+00:00</time></trkpt><trkpt lat="39.52764049" lon="-0.44267848"><ele>92.0</ele><time>2022-11-01T15:34:06.0000000+00:00</time></trkpt><trkpt lat="39.52758567" lon="-0.44263448"><ele>91.8</ele><time>2022-11-01T15:34:07.0000000+00:00</time></trkpt><trkpt lat="39.52753111" lon="-0.44258796"><ele>91.6</ele><time>2022-11-01T15:34:08.0000000+00:00</time></trkpt><trkpt lat="39.52747503" lon="-0.44253968"><ele>91.2</ele><time>2022-11-01T15:34:09.0000000+00:00</time></trkpt><trkpt lat="39.52741854" lon="-0.44249232"><ele>91.0</ele><time>2022-11-01T15:34:10.0000000+00:00</time></trkpt><trkpt lat="39.52737386" lon="-0.44245435"><ele>90.8</ele><time>2022-11-01T15:34:11.0000000+00:00</time></trkpt><trkpt lat="39.5273172" lon="-0.4424059"><ele>90.4</ele><time>2022-11-01T15:34:12.0000000+00:00</time></trkpt><trkpt lat="39.52724688" lon="-0.44234782"><ele>90.2</ele><time>2022-11-01T15:34:13.0000000+00:00</time></trkpt><trkpt lat="39.52718678" lon="-0.44229878"><ele>89.8</ele><time>2022-11-01T15:34:14.0000000+00:00</time></trkpt><trkpt lat="39.52712844" lon="-0.44224941"><ele>89.4</ele><time>2022-11-01T15:34:15.0000000+00:00</time></trkpt><trkpt lat="39.52706826" lon="-0.44220088"><ele>89.2</ele><time>2022-11-01T15:34:16.0000000+00:00</time></trkpt><trkpt lat="39.52700573" lon="-0.44215042"><ele>89.0</ele><time>2022-11-01T15:34:17.0000000+00:00</time></trkpt><trkpt lat="39.5269432" lon="-0.44209871"><ele>89.0</ele><time>2022-11-01T15:34:18.0000000+00:00</time></trkpt><trkpt lat="39.52687916" lon="-0.4420438"><ele>88.6</ele><time>2022-11-01T15:34:19.0000000+00:00</time></trkpt><trkpt lat="39.52682602" lon="-0.44200173"><ele>88.2</ele><time>2022-11-01T15:34:20.0000000+00:00</time></trkpt><trkpt lat="39.52674807" lon="-0.44194113"><ele>87.8</ele><time>2022-11-01T15:34:21.0000000+00:00</time></trkpt><trkpt lat="39.5266842" lon="-0.44189092"><ele>87.6</ele><time>2022-11-01T15:34:22.0000000+00:00</time></trkpt><trkpt lat="39.52663248" lon="-0.4418537"><ele>87.4</ele><time>2022-11-01T15:34:23.0000000+00:00</time></trkpt><trkpt lat="39.52655579" lon="-0.44179629"><ele>87.2</ele><time>2022-11-01T15:34:24.0000000+00:00</time></trkpt><trkpt lat="39.52648999" lon="-0.44175111"><ele>87.0</ele><time>2022-11-01T15:34:25.0000000+00:00</time></trkpt><trkpt lat="39.52643551" lon="-0.4417175"><ele>86.8</ele><time>2022-11-01T15:34:26.0000000+00:00</time></trkpt><trkpt lat="39.5263553" lon="-0.44167098"><ele>86.6</ele><time>2022-11-01T15:34:27.0000000+00:00</time></trkpt><trkpt lat="39.52628841" lon="-0.4416351"><ele>86.4</ele><time>2022-11-01T15:34:28.0000000+00:00</time></trkpt><trkpt lat="39.52622596" lon="-0.44160099"><ele>86.4</ele><time>2022-11-01T15:34:29.0000000+00:00</time></trkpt><trkpt lat="39.52616461" lon="-0.44156503"><ele>86.4</ele><time>2022-11-01T15:34:30.0000000+00:00</time></trkpt><trkpt lat="39.52610518" lon="-0.44153301"><ele>86.2</ele><time>2022-11-01T15:34:31.0000000+00:00</time></trkpt><trkpt lat="39.52604793" lon="-0.44150284"><ele>86.2</ele><time>2022-11-01T15:34:32.0000000+00:00</time></trkpt><trkpt lat="39.52599261" lon="-0.44147526"><ele>86.2</ele><time>2022-11-01T15:34:33.0000000+00:00</time></trkpt><trkpt lat="39.52595137" lon="-0.44145732"><ele>86.0</ele><time>2022-11-01T15:34:34.0000000+00:00</time></trkpt><trkpt lat="39.52589991" lon="-0.44143528"><ele>86.0</ele><time>2022-11-01T15:34:35.0000000+00:00</time></trkpt><trkpt lat="39.52584953" lon="-0.44141776"><ele>86.0</ele><time>2022-11-01T15:34:36.0000000+00:00</time></trkpt><trkpt lat="39.52579983" lon="-0.44139898"><ele>86.0</ele><time>2022-11-01T15:34:37.0000000+00:00</time></trkpt><trkpt lat="39.52574853" lon="-0.44137945"><ele>86.0</ele><time>2022-11-01T15:34:38.0000000+00:00</time></trkpt><trkpt lat="39.52569103" lon="-0.44135464"><ele>86.0</ele><time>2022-11-01T15:34:39.0000000+00:00</time></trkpt><trkpt lat="39.52564518" lon="-0.44133394"><ele>85.8</ele><time>2022-11-01T15:34:40.0000000+00:00</time></trkpt><trkpt lat="39.5255995" lon="-0.44131776"><ele>85.8</ele><time>2022-11-01T15:34:41.0000000+00:00</time></trkpt><trkpt lat="39.52555516" lon="-0.44130444"><ele>85.8</ele><time>2022-11-01T15:34:42.0000000+00:00</time></trkpt><trkpt lat="39.52551258" lon="-0.44129111"><ele>85.8</ele><time>2022-11-01T15:34:43.0000000+00:00</time></trkpt><trkpt lat="39.52547939" lon="-0.44128566"><ele>85.8</ele><time>2022-11-01T15:34:44.0000000+00:00</time></trkpt><trkpt lat="39.52542918" lon="-0.44127183"><ele>86.0</ele><time>2022-11-01T15:34:45.0000000+00:00</time></trkpt><trkpt lat="39.52538618" lon="-0.44126898"><ele>86.2</ele><time>2022-11-01T15:34:46.0000000+00:00</time></trkpt><trkpt lat="39.5253545" lon="-0.44127971"><ele>86.2</ele><time>2022-11-01T15:34:47.0000000+00:00</time></trkpt><trkpt lat="39.52531158" lon="-0.44130569"><ele>86.2</ele><time>2022-11-01T15:34:48.0000000+00:00</time></trkpt><trkpt lat="39.52528107" lon="-0.44134098"><ele>86.2</ele><time>2022-11-01T15:34:49.0000000+00:00</time></trkpt><trkpt lat="39.52525601" lon="-0.44136931"><ele>86.2</ele><time>2022-11-01T15:34:50.0000000+00:00</time></trkpt><trkpt lat="39.52521427" lon="-0.44141164"><ele>86.0</ele><time>2022-11-01T15:34:51.0000000+00:00</time></trkpt><trkpt lat="39.52518183" lon="-0.44145489"><ele>86.0</ele><time>2022-11-01T15:34:52.0000000+00:00</time></trkpt><trkpt lat="39.52514595" lon="-0.44149454"><ele>86.0</ele><time>2022-11-01T15:34:53.0000000+00:00</time></trkpt><trkpt lat="39.52510958" lon="-0.441531"><ele>86.0</ele><time>2022-11-01T15:34:54.0000000+00:00</time></trkpt><trkpt lat="39.5250732" lon="-0.44156964"><ele>86.0</ele><time>2022-11-01T15:34:55.0000000+00:00</time></trkpt><trkpt lat="39.52504437" lon="-0.44160275"><ele>86.0</ele><time>2022-11-01T15:34:56.0000000+00:00</time></trkpt><trkpt lat="39.52500204" lon="-0.44165069"><ele>86.0</ele><time>2022-11-01T15:34:57.0000000+00:00</time></trkpt><trkpt lat="39.52496725" lon="-0.44169285"><ele>86.0</ele><time>2022-11-01T15:34:58.0000000+00:00</time></trkpt><trkpt lat="39.52492593" lon="-0.44173669"><ele>86.0</ele><time>2022-11-01T15:34:59.0000000+00:00</time></trkpt><trkpt lat="39.52488461" lon="-0.44177952"><ele>86.0</ele><time>2022-11-01T15:35:00.0000000+00:00</time></trkpt><trkpt lat="39.52484462" lon="-0.44181909"><ele>86.0</ele><time>2022-11-01T15:35:01.0000000+00:00</time></trkpt><trkpt lat="39.52480431" lon="-0.44185907"><ele>86.0</ele><time>2022-11-01T15:35:02.0000000+00:00</time></trkpt><trkpt lat="39.52476131" lon="-0.44190324"><ele>86.0</ele><time>2022-11-01T15:35:03.0000000+00:00</time></trkpt><trkpt lat="39.52472024" lon="-0.44194959"><ele>86.0</ele><time>2022-11-01T15:35:04.0000000+00:00</time></trkpt><trkpt lat="39.52467891" lon="-0.44199443"><ele>86.0</ele><time>2022-11-01T15:35:05.0000000+00:00</time></trkpt><trkpt lat="39.52463667" lon="-0.44203618"><ele>86.0</ele><time>2022-11-01T15:35:06.0000000+00:00</time></trkpt><trkpt lat="39.52459593" lon="-0.44207708"><ele>86.0</ele><time>2022-11-01T15:35:07.0000000+00:00</time></trkpt><trkpt lat="39.52455469" lon="-0.44211664"><ele>86.0</ele><time>2022-11-01T15:35:08.0000000+00:00</time></trkpt><trkpt lat="39.5245101" lon="-0.44215587"><ele>86.0</ele><time>2022-11-01T15:35:09.0000000+00:00</time></trkpt><trkpt lat="39.5244697" lon="-0.44219535"><ele>85.8</ele><time>2022-11-01T15:35:10.0000000+00:00</time></trkpt><trkpt lat="39.52442553" lon="-0.44222938"><ele>85.8</ele><time>2022-11-01T15:35:11.0000000+00:00</time></trkpt><trkpt lat="39.52437499" lon="-0.44225293"><ele>86.0</ele><time>2022-11-01T15:35:12.0000000+00:00</time></trkpt><trkpt lat="39.52432176" lon="-0.442264"><ele>86.0</ele><time>2022-11-01T15:35:13.0000000+00:00</time></trkpt><trkpt lat="39.52426753" lon="-0.44227213"><ele>86.0</ele><time>2022-11-01T15:35:14.0000000+00:00</time></trkpt><trkpt lat="39.52421514" lon="-0.44227934"><ele>86.0</ele><time>2022-11-01T15:35:15.0000000+00:00</time></trkpt><trkpt lat="39.52417248" lon="-0.44228621"><ele>86.0</ele><time>2022-11-01T15:35:16.0000000+00:00</time></trkpt><trkpt lat="39.52411892" lon="-0.44229216"><ele>86.0</ele><time>2022-11-01T15:35:17.0000000+00:00</time></trkpt><trkpt lat="39.52406469" lon="-0.44229744"><ele>86.2</ele><time>2022-11-01T15:35:18.0000000+00:00</time></trkpt><trkpt lat="39.52401113" lon="-0.44230172"><ele>86.0</ele><time>2022-11-01T15:35:19.0000000+00:00</time></trkpt><trkpt lat="39.52395958" lon="-0.4423049"><ele>86.0</ele><time>2022-11-01T15:35:20.0000000+00:00</time></trkpt><trkpt lat="39.52389739" lon="-0.44230817"><ele>86.0</ele><time>2022-11-01T15:35:21.0000000+00:00</time></trkpt><trkpt lat="39.52385631" lon="-0.44231052"><ele>86.0</ele><time>2022-11-01T15:35:22.0000000+00:00</time></trkpt><trkpt lat="39.52379462" lon="-0.44230741"><ele>86.0</ele><time>2022-11-01T15:35:23.0000000+00:00</time></trkpt><trkpt lat="39.52374341" lon="-0.44230431"><ele>86.0</ele><time>2022-11-01T15:35:24.0000000+00:00</time></trkpt><trkpt lat="39.52369354" lon="-0.44230339"><ele>86.0</ele><time>2022-11-01T15:35:25.0000000+00:00</time></trkpt><trkpt lat="39.52364593" lon="-0.44230306"><ele>86.0</ele><time>2022-11-01T15:35:26.0000000+00:00</time></trkpt><trkpt lat="39.52360075" lon="-0.44230314"><ele>86.0</ele><time>2022-11-01T15:35:27.0000000+00:00</time></trkpt><trkpt lat="39.52356747" lon="-0.44229979"><ele>86.0</ele><time>2022-11-01T15:35:28.0000000+00:00</time></trkpt><trkpt lat="39.52351408" lon="-0.44229593"><ele>86.2</ele><time>2022-11-01T15:35:29.0000000+00:00</time></trkpt><trkpt lat="39.52347016" lon="-0.4422961"><ele>86.2</ele><time>2022-11-01T15:35:30.0000000+00:00</time></trkpt><trkpt lat="39.52343504" lon="-0.44229342"><ele>86.2</ele><time>2022-11-01T15:35:31.0000000+00:00</time></trkpt><trkpt lat="39.52338148" lon="-0.44228696"><ele>86.2</ele><time>2022-11-01T15:35:32.0000000+00:00</time></trkpt><trkpt lat="39.52333739" lon="-0.44227967"><ele>86.4</ele><time>2022-11-01T15:35:33.0000000+00:00</time></trkpt><trkpt lat="39.52329255" lon="-0.4422738"><ele>86.4</ele><time>2022-11-01T15:35:34.0000000+00:00</time></trkpt><trkpt lat="39.52324863" lon="-0.44227137"><ele>86.4</ele><time>2022-11-01T15:35:35.0000000+00:00</time></trkpt><trkpt lat="39.52320579" lon="-0.44227213"><ele>86.4</ele><time>2022-11-01T15:35:36.0000000+00:00</time></trkpt><trkpt lat="39.52316883" lon="-0.44226919"><ele>86.4</ele><time>2022-11-01T15:35:37.0000000+00:00</time></trkpt><trkpt lat="39.52311401" lon="-0.44226877"><ele>86.2</ele><time>2022-11-01T15:35:38.0000000+00:00</time></trkpt><trkpt lat="39.52307462" lon="-0.44227556"><ele>86.2</ele><time>2022-11-01T15:35:39.0000000+00:00</time></trkpt><trkpt lat="39.52301854" lon="-0.44228805"><ele>86.0</ele><time>2022-11-01T15:35:40.0000000+00:00</time></trkpt><trkpt lat="39.52297311" lon="-0.44229677"><ele>85.8</ele><time>2022-11-01T15:35:41.0000000+00:00</time></trkpt><trkpt lat="39.52293003" lon="-0.44230892"><ele>85.8</ele><time>2022-11-01T15:35:42.0000000+00:00</time></trkpt><trkpt lat="39.52289592" lon="-0.44232175"><ele>85.8</ele><time>2022-11-01T15:35:43.0000000+00:00</time></trkpt><trkpt lat="39.52284328" lon="-0.4423391"><ele>85.8</ele><time>2022-11-01T15:35:44.0000000+00:00</time></trkpt><trkpt lat="39.52280045" lon="-0.4423593"><ele>85.8</ele><time>2022-11-01T15:35:45.0000000+00:00</time></trkpt><trkpt lat="39.52275661" lon="-0.44237665"><ele>86.0</ele><time>2022-11-01T15:35:46.0000000+00:00</time></trkpt><trkpt lat="39.52271202" lon="-0.44239232"><ele>86.0</ele><time>2022-11-01T15:35:47.0000000+00:00</time></trkpt><trkpt lat="39.52266684" lon="-0.44241043"><ele>86.0</ele><time>2022-11-01T15:35:48.0000000+00:00</time></trkpt><trkpt lat="39.52262862" lon="-0.44242694"><ele>86.0</ele><time>2022-11-01T15:35:49.0000000+00:00</time></trkpt><trkpt lat="39.52257288" lon="-0.44245586"><ele>86.0</ele><time>2022-11-01T15:35:50.0000000+00:00</time></trkpt><trkpt lat="39.52253684" lon="-0.44247799"><ele>86.0</ele><time>2022-11-01T15:35:51.0000000+00:00</time></trkpt><trkpt lat="39.52248453" lon="-0.44251017"><ele>86.0</ele><time>2022-11-01T15:35:52.0000000+00:00</time></trkpt><trkpt lat="39.5224448" lon="-0.44253532"><ele>85.8</ele><time>2022-11-01T15:35:53.0000000+00:00</time></trkpt><trkpt lat="39.52240348" lon="-0.44255845"><ele>85.8</ele><time>2022-11-01T15:35:54.0000000+00:00</time></trkpt><trkpt lat="39.52236584" lon="-0.44258787"><ele>85.8</ele><time>2022-11-01T15:35:55.0000000+00:00</time></trkpt><trkpt lat="39.5223298" lon="-0.44260925"><ele>85.8</ele><time>2022-11-01T15:35:56.0000000+00:00</time></trkpt><trkpt lat="39.52229535" lon="-0.44262517"><ele>85.8</ele><time>2022-11-01T15:35:57.0000000+00:00</time></trkpt><trkpt lat="39.52226409" lon="-0.44263548"><ele>85.8</ele><time>2022-11-01T15:35:58.0000000+00:00</time></trkpt><trkpt lat="39.5222366" lon="-0.44263783"><ele>85.8</ele><time>2022-11-01T15:35:59.0000000+00:00</time></trkpt><trkpt lat="39.52221857" lon="-0.44263942"><ele>85.6</ele><time>2022-11-01T15:36:00.0000000+00:00</time></trkpt><trkpt lat="39.52219888" lon="-0.4426421"><ele>85.6</ele><time>2022-11-01T15:36:01.0000000+00:00</time></trkpt><trkpt lat="39.52217591" lon="-0.44264236"><ele>85.6</ele><time>2022-11-01T15:36:02.0000000+00:00</time></trkpt><trkpt lat="39.52215998" lon="-0.44264202"><ele>85.6</ele><time>2022-11-01T15:36:03.0000000+00:00</time></trkpt><trkpt lat="39.52214708" lon="-0.4426385"><ele>85.6</ele><time>2022-11-01T15:36:04.0000000+00:00</time></trkpt><trkpt lat="39.52212981" lon="-0.44263138"><ele>85.6</ele><time>2022-11-01T15:36:05.0000000+00:00</time></trkpt><trkpt lat="39.5221169" lon="-0.44261947"><ele>85.6</ele><time>2022-11-01T15:36:06.0000000+00:00</time></trkpt><trkpt lat="39.52209871" lon="-0.44260296"><ele>85.6</ele><time>2022-11-01T15:36:07.0000000+00:00</time></trkpt><trkpt lat="39.52208078" lon="-0.4425888"><ele>85.6</ele><time>2022-11-01T15:36:08.0000000+00:00</time></trkpt><trkpt lat="39.52206477" lon="-0.44257756"><ele>85.6</ele><time>2022-11-01T15:36:09.0000000+00:00</time></trkpt><trkpt lat="39.52204457" lon="-0.4425603"><ele>85.6</ele><time>2022-11-01T15:36:10.0000000+00:00</time></trkpt><trkpt lat="39.52202227" lon="-0.44254898"><ele>85.6</ele><time>2022-11-01T15:36:11.0000000+00:00</time></trkpt><trkpt lat="39.52199679" lon="-0.44254756"><ele>85.6</ele><time>2022-11-01T15:36:12.0000000+00:00</time></trkpt><trkpt lat="39.52197634" lon="-0.44255074"><ele>85.6</ele><time>2022-11-01T15:36:13.0000000+00:00</time></trkpt><trkpt lat="39.52194273" lon="-0.44257119"><ele>85.6</ele><time>2022-11-01T15:36:14.0000000+00:00</time></trkpt><trkpt lat="39.52191272" lon="-0.44259106"><ele>85.8</ele><time>2022-11-01T15:36:15.0000000+00:00</time></trkpt><trkpt lat="39.52188162" lon="-0.44261009"><ele>85.8</ele><time>2022-11-01T15:36:16.0000000+00:00</time></trkpt><trkpt lat="39.52185312" lon="-0.44262802"><ele>85.8</ele><time>2022-11-01T15:36:17.0000000+00:00</time></trkpt><trkpt lat="39.52181876" lon="-0.44263967"><ele>86.0</ele><time>2022-11-01T15:36:18.0000000+00:00</time></trkpt><trkpt lat="39.5217833" lon="-0.44264764"><ele>86.0</ele><time>2022-11-01T15:36:19.0000000+00:00</time></trkpt><trkpt lat="39.52174986" lon="-0.4426478"><ele>86.0</ele><time>2022-11-01T15:36:20.0000000+00:00</time></trkpt><trkpt lat="39.52171558" lon="-0.44264252"><ele>86.0</ele><time>2022-11-01T15:36:21.0000000+00:00</time></trkpt><trkpt lat="39.52168046" lon="-0.44262987"><ele>86.0</ele><time>2022-11-01T15:36:22.0000000+00:00</time></trkpt><trkpt lat="39.52164374" lon="-0.44261956"><ele>86.0</ele><time>2022-11-01T15:36:23.0000000+00:00</time></trkpt><trkpt lat="39.52160326" lon="-0.44260941"><ele>86.2</ele><time>2022-11-01T15:36:24.0000000+00:00</time></trkpt><trkpt lat="39.52156554" lon="-0.44259978"><ele>86.2</ele><time>2022-11-01T15:36:25.0000000+00:00</time></trkpt><trkpt lat="39.52153402" lon="-0.44259517"><ele>86.2</ele><time>2022-11-01T15:36:26.0000000+00:00</time></trkpt><trkpt lat="39.52149522" lon="-0.44259139"><ele>86.2</ele><time>2022-11-01T15:36:27.0000000+00:00</time></trkpt><trkpt lat="39.5214554" lon="-0.44258829"><ele>86.2</ele><time>2022-11-01T15:36:28.0000000+00:00</time></trkpt><trkpt lat="39.52141441" lon="-0.44258553"><ele>86.4</ele><time>2022-11-01T15:36:29.0000000+00:00</time></trkpt><trkpt lat="39.52137058" lon="-0.44258268"><ele>86.4</ele><time>2022-11-01T15:36:30.0000000+00:00</time></trkpt><trkpt lat="39.52132892" lon="-0.44258419"><ele>86.2</ele><time>2022-11-01T15:36:31.0000000+00:00</time></trkpt><trkpt lat="39.52128936" lon="-0.44258427"><ele>86.2</ele><time>2022-11-01T15:36:32.0000000+00:00</time></trkpt><trkpt lat="39.52125264" lon="-0.44258804"><ele>86.2</ele><time>2022-11-01T15:36:33.0000000+00:00</time></trkpt><trkpt lat="39.52121601" lon="-0.44258888"><ele>86.0</ele><time>2022-11-01T15:36:34.0000000+00:00</time></trkpt><trkpt lat="39.52117779" lon="-0.44258502"><ele>85.8</ele><time>2022-11-01T15:36:35.0000000+00:00</time></trkpt><trkpt lat="39.52114217" lon="-0.44258435"><ele>85.8</ele><time>2022-11-01T15:36:36.0000000+00:00</time></trkpt><trkpt lat="39.52110789" lon="-0.44258268"><ele>85.6</ele><time>2022-11-01T15:36:37.0000000+00:00</time></trkpt><trkpt lat="39.52106916" lon="-0.44258125"><ele>85.8</ele><time>2022-11-01T15:36:38.0000000+00:00</time></trkpt><trkpt lat="39.52102977" lon="-0.44257983"><ele>85.8</ele><time>2022-11-01T15:36:39.0000000+00:00</time></trkpt><trkpt lat="39.52098778" lon="-0.44257815"><ele>86.0</ele><time>2022-11-01T15:36:40.0000000+00:00</time></trkpt><trkpt lat="39.5209467" lon="-0.44258175"><ele>86.0</ele><time>2022-11-01T15:36:41.0000000+00:00</time></trkpt><trkpt lat="39.5209094" lon="-0.44259181"><ele>86.2</ele><time>2022-11-01T15:36:42.0000000+00:00</time></trkpt><trkpt lat="39.52087303" lon="-0.44260036"><ele>86.2</ele><time>2022-11-01T15:36:43.0000000+00:00</time></trkpt><trkpt lat="39.5208359" lon="-0.44260715"><ele>86.2</ele><time>2022-11-01T15:36:44.0000000+00:00</time></trkpt><trkpt lat="39.52079876" lon="-0.44261101"><ele>86.2</ele><time>2022-11-01T15:36:45.0000000+00:00</time></trkpt><trkpt lat="39.52076255" lon="-0.44261226"><ele>86.2</ele><time>2022-11-01T15:36:46.0000000+00:00</time></trkpt><trkpt lat="39.52072341" lon="-0.44261352"><ele>86.2</ele><time>2022-11-01T15:36:47.0000000+00:00</time></trkpt><trkpt lat="39.52068343" lon="-0.44261436"><ele>86.4</ele><time>2022-11-01T15:36:48.0000000+00:00</time></trkpt><trkpt lat="39.52064152" lon="-0.44261612"><ele>86.2</ele><time>2022-11-01T15:36:49.0000000+00:00</time></trkpt><trkpt lat="39.52059869" lon="-0.44261595"><ele>86.0</ele><time>2022-11-01T15:36:50.0000000+00:00</time></trkpt><trkpt lat="39.52055343" lon="-0.44261838"><ele>86.0</ele><time>2022-11-01T15:36:51.0000000+00:00</time></trkpt><trkpt lat="39.52050833" lon="-0.44262291"><ele>86.0</ele><time>2022-11-01T15:36:52.0000000+00:00</time></trkpt><trkpt lat="39.52046181" lon="-0.44262794"><ele>86.0</ele><time>2022-11-01T15:36:53.0000000+00:00</time></trkpt><trkpt lat="39.52041605" lon="-0.44263632"><ele>86.0</ele><time>2022-11-01T15:36:54.0000000+00:00</time></trkpt><trkpt lat="39.52037238" lon="-0.44265476"><ele>86.0</ele><time>2022-11-01T15:36:55.0000000+00:00</time></trkpt><trkpt lat="39.52032443" lon="-0.44268569"><ele>86.0</ele><time>2022-11-01T15:36:56.0000000+00:00</time></trkpt><trkpt lat="39.52028956" lon="-0.4427193"><ele>86.0</ele><time>2022-11-01T15:36:57.0000000+00:00</time></trkpt><trkpt lat="39.52025486" lon="-0.44274805"><ele>86.0</ele><time>2022-11-01T15:36:58.0000000+00:00</time></trkpt><trkpt lat="39.52021429" lon="-0.44276993"><ele>86.0</ele><time>2022-11-01T15:36:59.0000000+00:00</time></trkpt><trkpt lat="39.52017054" lon="-0.44277647"><ele>85.8</ele><time>2022-11-01T15:37:00.0000000+00:00</time></trkpt><trkpt lat="39.52012578" lon="-0.44277789"><ele>85.8</ele><time>2022-11-01T15:37:01.0000000+00:00</time></trkpt><trkpt lat="39.52008965" lon="-0.44278099"><ele>85.6</ele><time>2022-11-01T15:37:02.0000000+00:00</time></trkpt><trkpt lat="39.52004431" lon="-0.44278602"><ele>85.6</ele><time>2022-11-01T15:37:03.0000000+00:00</time></trkpt><trkpt lat="39.51999972" lon="-0.44278912"><ele>85.4</ele><time>2022-11-01T15:37:04.0000000+00:00</time></trkpt><trkpt lat="39.51995663" lon="-0.44278694"><ele>85.4</ele><time>2022-11-01T15:37:05.0000000+00:00</time></trkpt><trkpt lat="39.51991187" lon="-0.44278518"><ele>85.2</ele><time>2022-11-01T15:37:06.0000000+00:00</time></trkpt><trkpt lat="39.51986527" lon="-0.44278761"><ele>85.2</ele><time>2022-11-01T15:37:07.0000000+00:00</time></trkpt><trkpt lat="39.51981967" lon="-0.44278845"><ele>85.2</ele><time>2022-11-01T15:37:08.0000000+00:00</time></trkpt><trkpt lat="39.5197755" lon="-0.44278996"><ele>85.2</ele><time>2022-11-01T15:37:09.0000000+00:00</time></trkpt><trkpt lat="39.51972848" lon="-0.44278703"><ele>85.2</ele><time>2022-11-01T15:37:10.0000000+00:00</time></trkpt><trkpt lat="39.51967735" lon="-0.44278066"><ele>85.2</ele><time>2022-11-01T15:37:11.0000000+00:00</time></trkpt><trkpt lat="39.51963075" lon="-0.44277387"><ele>85.4</ele><time>2022-11-01T15:37:12.0000000+00:00</time></trkpt><trkpt lat="39.51958691" lon="-0.44276306"><ele>85.4</ele><time>2022-11-01T15:37:13.0000000+00:00</time></trkpt><trkpt lat="39.51954257" lon="-0.44274872"><ele>85.2</ele><time>2022-11-01T15:37:14.0000000+00:00</time></trkpt><trkpt lat="39.51949848" lon="-0.44273757"><ele>85.0</ele><time>2022-11-01T15:37:15.0000000+00:00</time></trkpt><trkpt lat="39.51946034" lon="-0.44273095"><ele>85.0</ele><time>2022-11-01T15:37:16.0000000+00:00</time></trkpt><trkpt lat="39.51941944" lon="-0.44272106"><ele>84.6</ele><time>2022-11-01T15:37:17.0000000+00:00</time></trkpt><trkpt lat="39.51938029" lon="-0.44270941"><ele>84.6</ele><time>2022-11-01T15:37:18.0000000+00:00</time></trkpt><trkpt lat="39.51934073" lon="-0.44269885"><ele>84.4</ele><time>2022-11-01T15:37:19.0000000+00:00</time></trkpt><trkpt lat="39.51930293" lon="-0.44268561"><ele>84.2</ele><time>2022-11-01T15:37:20.0000000+00:00</time></trkpt><trkpt lat="39.51926672" lon="-0.44267077"><ele>84.0</ele><time>2022-11-01T15:37:21.0000000+00:00</time></trkpt><trkpt lat="39.51923504" lon="-0.44264898"><ele>84.0</ele><time>2022-11-01T15:37:22.0000000+00:00</time></trkpt><trkpt lat="39.51920394" lon="-0.44262048"><ele>84.0</ele><time>2022-11-01T15:37:23.0000000+00:00</time></trkpt><trkpt lat="39.51917452" lon="-0.44259198"><ele>84.0</ele><time>2022-11-01T15:37:24.0000000+00:00</time></trkpt><trkpt lat="39.51914568" lon="-0.44256499"><ele>84.0</ele><time>2022-11-01T15:37:25.0000000+00:00</time></trkpt><trkpt lat="39.51911802" lon="-0.44254152"><ele>83.8</ele><time>2022-11-01T15:37:26.0000000+00:00</time></trkpt><trkpt lat="39.51908986" lon="-0.4425178"><ele>83.8</ele><time>2022-11-01T15:37:27.0000000+00:00</time></trkpt><trkpt lat="39.51906421" lon="-0.44249601"><ele>83.8</ele><time>2022-11-01T15:37:28.0000000+00:00</time></trkpt><trkpt lat="39.51903932" lon="-0.44247287"><ele>83.6</ele><time>2022-11-01T15:37:29.0000000+00:00</time></trkpt><trkpt lat="39.51901166" lon="-0.44244823"><ele>83.6</ele><time>2022-11-01T15:37:30.0000000+00:00</time></trkpt><trkpt lat="39.5189783" lon="-0.44241864"><ele>83.4</ele><time>2022-11-01T15:37:31.0000000+00:00</time></trkpt><trkpt lat="39.51895005" lon="-0.44238537"><ele>83.4</ele><time>2022-11-01T15:37:32.0000000+00:00</time></trkpt><trkpt lat="39.51892306" lon="-0.44234715"><ele>83.4</ele><time>2022-11-01T15:37:33.0000000+00:00</time></trkpt><trkpt lat="39.51889347" lon="-0.44230607"><ele>83.4</ele><time>2022-11-01T15:37:34.0000000+00:00</time></trkpt><trkpt lat="39.51886472" lon="-0.44226383"><ele>83.4</ele><time>2022-11-01T15:37:35.0000000+00:00</time></trkpt><trkpt lat="39.51883363" lon="-0.44222209"><ele>83.4</ele><time>2022-11-01T15:37:36.0000000+00:00</time></trkpt><trkpt lat="39.51880136" lon="-0.44218496"><ele>83.4</ele><time>2022-11-01T15:37:37.0000000+00:00</time></trkpt><trkpt lat="39.51876875" lon="-0.44214824"><ele>83.2</ele><time>2022-11-01T15:37:38.0000000+00:00</time></trkpt><trkpt lat="39.51873698" lon="-0.44211262"><ele>83.2</ele><time>2022-11-01T15:37:39.0000000+00:00</time></trkpt><trkpt lat="39.5187074" lon="-0.44207582"><ele>83.0</ele><time>2022-11-01T15:37:40.0000000+00:00</time></trkpt><trkpt lat="39.51868007" lon="-0.44203869"><ele>82.8</ele><time>2022-11-01T15:37:41.0000000+00:00</time></trkpt><trkpt lat="39.51865333" lon="-0.44200064"><ele>82.6</ele><time>2022-11-01T15:37:42.0000000+00:00</time></trkpt><trkpt lat="39.51862475" lon="-0.44196024"><ele>82.6</ele><time>2022-11-01T15:37:43.0000000+00:00</time></trkpt><trkpt lat="39.5185939" lon="-0.441919"><ele>82.6</ele><time>2022-11-01T15:37:44.0000000+00:00</time></trkpt><trkpt lat="39.5185608" lon="-0.44187474"><ele>82.4</ele><time>2022-11-01T15:37:45.0000000+00:00</time></trkpt><trkpt lat="39.51852534" lon="-0.44183459"><ele>82.2</ele><time>2022-11-01T15:37:46.0000000+00:00</time></trkpt><trkpt lat="39.51848863" lon="-0.44180006"><ele>82.2</ele><time>2022-11-01T15:37:47.0000000+00:00</time></trkpt><trkpt lat="39.51845049" lon="-0.44176653"><ele>82.0</ele><time>2022-11-01T15:37:48.0000000+00:00</time></trkpt><trkpt lat="39.51840749" lon="-0.44172864"><ele>81.8</ele><time>2022-11-01T15:37:49.0000000+00:00</time></trkpt><trkpt lat="39.51836357" lon="-0.44169051"><ele>81.8</ele><time>2022-11-01T15:37:50.0000000+00:00</time></trkpt><trkpt lat="39.51832107" lon="-0.44165178"><ele>81.8</ele><time>2022-11-01T15:37:51.0000000+00:00</time></trkpt><trkpt lat="39.51828252" lon="-0.44161415"><ele>81.6</ele><time>2022-11-01T15:37:52.0000000+00:00</time></trkpt><trkpt lat="39.51824337" lon="-0.44157693"><ele>81.4</ele><time>2022-11-01T15:37:53.0000000+00:00</time></trkpt><trkpt lat="39.51820364" lon="-0.4415403"><ele>81.2</ele><time>2022-11-01T15:37:54.0000000+00:00</time></trkpt><trkpt lat="39.51816391" lon="-0.44150485"><ele>81.0</ele><time>2022-11-01T15:37:55.0000000+00:00</time></trkpt><trkpt lat="39.51812259" lon="-0.44147207"><ele>81.0</ele><time>2022-11-01T15:37:56.0000000+00:00</time></trkpt><trkpt lat="39.51808345" lon="-0.44143788"><ele>80.8</ele><time>2022-11-01T15:37:57.0000000+00:00</time></trkpt><trkpt lat="39.51804346" lon="-0.44139882"><ele>80.8</ele><time>2022-11-01T15:37:58.0000000+00:00</time></trkpt><trkpt lat="39.51800197" lon="-0.44136202"><ele>80.8</ele><time>2022-11-01T15:37:59.0000000+00:00</time></trkpt><trkpt lat="39.5179604" lon="-0.44132212"><ele>80.8</ele><time>2022-11-01T15:38:00.0000000+00:00</time></trkpt><trkpt lat="39.51791774" lon="-0.44128139"><ele>81.0</ele><time>2022-11-01T15:38:01.0000000+00:00</time></trkpt><trkpt lat="39.51788086" lon="-0.44123168"><ele>81.2</ele><time>2022-11-01T15:38:02.0000000+00:00</time></trkpt><trkpt lat="39.51784716" lon="-0.44118231"><ele>81.2</ele><time>2022-11-01T15:38:03.0000000+00:00</time></trkpt><trkpt lat="39.51781699" lon="-0.44113345"><ele>81.2</ele><time>2022-11-01T15:38:04.0000000+00:00</time></trkpt><trkpt lat="39.51778689" lon="-0.44108517"><ele>81.4</ele><time>2022-11-01T15:38:05.0000000+00:00</time></trkpt><trkpt lat="39.51776477" lon="-0.44104854"><ele>81.6</ele><time>2022-11-01T15:38:06.0000000+00:00</time></trkpt><trkpt lat="39.51773769" lon="-0.4410011"><ele>81.6</ele><time>2022-11-01T15:38:07.0000000+00:00</time></trkpt><trkpt lat="39.51770634" lon="-0.44094787"><ele>81.6</ele><time>2022-11-01T15:38:08.0000000+00:00</time></trkpt><trkpt lat="39.51767902" lon="-0.44090437"><ele>81.6</ele><time>2022-11-01T15:38:09.0000000+00:00</time></trkpt><trkpt lat="39.5176491" lon="-0.44086422"><ele>81.8</ele><time>2022-11-01T15:38:10.0000000+00:00</time></trkpt><trkpt lat="39.51761775" lon="-0.44082784"><ele>81.8</ele><time>2022-11-01T15:38:11.0000000+00:00</time></trkpt><trkpt lat="39.51758363" lon="-0.44079473"><ele>81.8</ele><time>2022-11-01T15:38:12.0000000+00:00</time></trkpt><trkpt lat="39.51754223" lon="-0.44076322"><ele>81.8</ele><time>2022-11-01T15:38:13.0000000+00:00</time></trkpt><trkpt lat="39.51749864" lon="-0.44073514"><ele>81.8</ele><time>2022-11-01T15:38:14.0000000+00:00</time></trkpt><trkpt lat="39.51745908" lon="-0.44071108"><ele>81.8</ele><time>2022-11-01T15:38:15.0000000+00:00</time></trkpt><trkpt lat="39.51741809" lon="-0.44068351"><ele>81.8</ele><time>2022-11-01T15:38:16.0000000+00:00</time></trkpt><trkpt lat="39.51737719" lon="-0.4406618"><ele>81.6</ele><time>2022-11-01T15:38:17.0000000+00:00</time></trkpt><trkpt lat="39.51733679" lon="-0.44063791"><ele>81.6</ele><time>2022-11-01T15:38:18.0000000+00:00</time></trkpt><trkpt lat="39.51729429" lon="-0.44061167"><ele>81.4</ele><time>2022-11-01T15:38:19.0000000+00:00</time></trkpt><trkpt lat="39.51724953" lon="-0.44058946"><ele>81.4</ele><time>2022-11-01T15:38:20.0000000+00:00</time></trkpt><trkpt lat="39.51720402" lon="-0.44057278"><ele>81.2</ele><time>2022-11-01T15:38:21.0000000+00:00</time></trkpt><trkpt lat="39.51716026" lon="-0.44055736"><ele>81.0</ele><time>2022-11-01T15:38:22.0000000+00:00</time></trkpt><trkpt lat="39.5171155" lon="-0.44053841"><ele>80.8</ele><time>2022-11-01T15:38:23.0000000+00:00</time></trkpt><trkpt lat="39.517071" lon="-0.44051687"><ele>80.6</ele><time>2022-11-01T15:38:24.0000000+00:00</time></trkpt><trkpt lat="39.51702816" lon="-0.44049399"><ele>80.6</ele><time>2022-11-01T15:38:25.0000000+00:00</time></trkpt><trkpt lat="39.51698558" lon="-0.44047077"><ele>80.4</ele><time>2022-11-01T15:38:26.0000000+00:00</time></trkpt><trkpt lat="39.51694476" lon="-0.44044102"><ele>80.4</ele><time>2022-11-01T15:38:27.0000000+00:00</time></trkpt><trkpt lat="39.51690679" lon="-0.44041059"><ele>80.4</ele><time>2022-11-01T15:38:28.0000000+00:00</time></trkpt><trkpt lat="39.51686849" lon="-0.44037622"><ele>80.4</ele><time>2022-11-01T15:38:29.0000000+00:00</time></trkpt><trkpt lat="39.51683144" lon="-0.44033339"><ele>80.4</ele><time>2022-11-01T15:38:30.0000000+00:00</time></trkpt><trkpt lat="39.51679431" lon="-0.44029702"><ele>80.4</ele><time>2022-11-01T15:38:31.0000000+00:00</time></trkpt><trkpt lat="39.51675718" lon="-0.4402629"><ele>80.4</ele><time>2022-11-01T15:38:32.0000000+00:00</time></trkpt><trkpt lat="39.51672432" lon="-0.44023549"><ele>80.8</ele><time>2022-11-01T15:38:33.0000000+00:00</time></trkpt><trkpt lat="39.516698" lon="-0.44020372"><ele>81.0</ele><time>2022-11-01T15:38:34.0000000+00:00</time></trkpt><trkpt lat="39.51667034" lon="-0.44016777"><ele>81.2</ele><time>2022-11-01T15:38:35.0000000+00:00</time></trkpt><trkpt lat="39.51664603" lon="-0.44012846"><ele>81.2</ele><time>2022-11-01T15:38:36.0000000+00:00</time></trkpt><trkpt lat="39.51662072" lon="-0.44009007"><ele>81.2</ele><time>2022-11-01T15:38:37.0000000+00:00</time></trkpt><trkpt lat="39.51658962" lon="-0.44005184"><ele>81.2</ele><time>2022-11-01T15:38:38.0000000+00:00</time></trkpt><trkpt lat="39.5165561" lon="-0.44001756"><ele>81.0</ele><time>2022-11-01T15:38:39.0000000+00:00</time></trkpt><trkpt lat="39.51652089" lon="-0.43998454"><ele>81.0</ele><time>2022-11-01T15:38:40.0000000+00:00</time></trkpt><trkpt lat="39.5164846" lon="-0.43995076"><ele>81.0</ele><time>2022-11-01T15:38:41.0000000+00:00</time></trkpt><trkpt lat="39.51644939" lon="-0.4399169"><ele>81.0</ele><time>2022-11-01T15:38:42.0000000+00:00</time></trkpt><trkpt lat="39.51641494" lon="-0.43988504"><ele>81.0</ele><time>2022-11-01T15:38:43.0000000+00:00</time></trkpt><trkpt lat="39.51637941" lon="-0.43985604"><ele>81.0</ele><time>2022-11-01T15:38:44.0000000+00:00</time></trkpt><trkpt lat="39.51634051" lon="-0.43982604"><ele>81.0</ele><time>2022-11-01T15:38:45.0000000+00:00</time></trkpt><trkpt lat="39.51629969" lon="-0.4397967"><ele>81.0</ele><time>2022-11-01T15:38:46.0000000+00:00</time></trkpt><trkpt lat="39.51625971" lon="-0.43977105"><ele>81.0</ele><time>2022-11-01T15:38:47.0000000+00:00</time></trkpt><trkpt lat="39.5162209" lon="-0.43974155"><ele>81.0</ele><time>2022-11-01T15:38:48.0000000+00:00</time></trkpt><trkpt lat="39.51619199" lon="-0.43971472"><ele>81.2</ele><time>2022-11-01T15:38:49.0000000+00:00</time></trkpt><trkpt lat="39.51615326" lon="-0.43967994"><ele>81.2</ele><time>2022-11-01T15:38:50.0000000+00:00</time></trkpt><trkpt lat="39.51611445" lon="-0.43964482"><ele>81.4</ele><time>2022-11-01T15:38:51.0000000+00:00</time></trkpt><trkpt lat="39.51607187" lon="-0.43959864"><ele>81.4</ele><time>2022-11-01T15:38:52.0000000+00:00</time></trkpt><trkpt lat="39.51604036" lon="-0.43955748"><ele>81.4</ele><time>2022-11-01T15:38:53.0000000+00:00</time></trkpt><trkpt lat="39.51600641" lon="-0.43952094"><ele>81.6</ele><time>2022-11-01T15:38:54.0000000+00:00</time></trkpt><trkpt lat="39.51597548" lon="-0.43948154"><ele>81.6</ele><time>2022-11-01T15:38:55.0000000+00:00</time></trkpt><trkpt lat="39.51594413" lon="-0.43943829"><ele>81.6</ele><time>2022-11-01T15:38:56.0000000+00:00</time></trkpt><trkpt lat="39.5159117" lon="-0.43940091"><ele>81.8</ele><time>2022-11-01T15:38:57.0000000+00:00</time></trkpt><trkpt lat="39.51587909" lon="-0.43936872"><ele>81.8</ele><time>2022-11-01T15:38:58.0000000+00:00</time></trkpt><trkpt lat="39.51584514" lon="-0.43933896"><ele>81.8</ele><time>2022-11-01T15:38:59.0000000+00:00</time></trkpt><trkpt lat="39.51580659" lon="-0.43931021"><ele>81.8</ele><time>2022-11-01T15:39:00.0000000+00:00</time></trkpt><trkpt lat="39.51576811" lon="-0.43928163"><ele>81.8</ele><time>2022-11-01T15:39:01.0000000+00:00</time></trkpt><trkpt lat="39.51572989" lon="-0.43925598"><ele>81.8</ele><time>2022-11-01T15:39:02.0000000+00:00</time></trkpt><trkpt lat="39.51569184" lon="-0.43923025"><ele>81.8</ele><time>2022-11-01T15:39:03.0000000+00:00</time></trkpt><trkpt lat="39.51565454" lon="-0.43920259"><ele>81.6</ele><time>2022-11-01T15:39:04.0000000+00:00</time></trkpt><trkpt lat="39.51561732" lon="-0.4391751"><ele>81.6</ele><time>2022-11-01T15:39:05.0000000+00:00</time></trkpt><trkpt lat="39.51557776" lon="-0.43914987"><ele>81.6</ele><time>2022-11-01T15:39:06.0000000+00:00</time></trkpt><trkpt lat="39.51553987" lon="-0.43912883"><ele>81.4</ele><time>2022-11-01T15:39:07.0000000+00:00</time></trkpt><trkpt lat="39.51550433" lon="-0.4391119"><ele>81.4</ele><time>2022-11-01T15:39:08.0000000+00:00</time></trkpt><trkpt lat="39.51546796" lon="-0.43909455"><ele>81.4</ele><time>2022-11-01T15:39:09.0000000+00:00</time></trkpt><trkpt lat="39.5154325" lon="-0.43907175"><ele>81.2</ele><time>2022-11-01T15:39:10.0000000+00:00</time></trkpt><trkpt lat="39.51539713" lon="-0.43904568"><ele>81.0</ele><time>2022-11-01T15:39:11.0000000+00:00</time></trkpt><trkpt lat="39.51535891" lon="-0.43902045"><ele>81.0</ele><time>2022-11-01T15:39:12.0000000+00:00</time></trkpt><trkpt lat="39.5153289" lon="-0.43900486"><ele>80.8</ele><time>2022-11-01T15:39:13.0000000+00:00</time></trkpt><trkpt lat="39.51528364" lon="-0.43898148"><ele>80.6</ele><time>2022-11-01T15:39:14.0000000+00:00</time></trkpt><trkpt lat="39.51524735" lon="-0.43895993"><ele>80.4</ele><time>2022-11-01T15:39:15.0000000+00:00</time></trkpt><trkpt lat="39.51521147" lon="-0.43894082"><ele>80.4</ele><time>2022-11-01T15:39:16.0000000+00:00</time></trkpt><trkpt lat="39.51517694" lon="-0.43892398"><ele>80.4</ele><time>2022-11-01T15:39:17.0000000+00:00</time></trkpt><trkpt lat="39.51513578" lon="-0.43890378"><ele>80.2</ele><time>2022-11-01T15:39:18.0000000+00:00</time></trkpt><trkpt lat="39.51509278" lon="-0.43888383"><ele>80.2</ele><time>2022-11-01T15:39:19.0000000+00:00</time></trkpt><trkpt lat="39.51504786" lon="-0.43886153"><ele>80.2</ele><time>2022-11-01T15:39:20.0000000+00:00</time></trkpt><trkpt lat="39.51500285" lon="-0.43883253"><ele>80.0</ele><time>2022-11-01T15:39:21.0000000+00:00</time></trkpt><trkpt lat="39.51495783" lon="-0.43880194"><ele>80.0</ele><time>2022-11-01T15:39:22.0000000+00:00</time></trkpt><trkpt lat="39.51491249" lon="-0.43877025"><ele>80.0</ele><time>2022-11-01T15:39:23.0000000+00:00</time></trkpt><trkpt lat="39.51486949" lon="-0.43873899"><ele>80.0</ele><time>2022-11-01T15:39:24.0000000+00:00</time></trkpt><trkpt lat="39.51482699" lon="-0.43870303"><ele>80.0</ele><time>2022-11-01T15:39:25.0000000+00:00</time></trkpt><trkpt lat="39.51478475" lon="-0.43866481"><ele>79.8</ele><time>2022-11-01T15:39:26.0000000+00:00</time></trkpt><trkpt lat="39.51474493" lon="-0.43862457"><ele>79.8</ele><time>2022-11-01T15:39:27.0000000+00:00</time></trkpt><trkpt lat="39.51470881" lon="-0.4385851"><ele>79.6</ele><time>2022-11-01T15:39:28.0000000+00:00</time></trkpt><trkpt lat="39.51467436" lon="-0.43854453"><ele>79.6</ele><time>2022-11-01T15:39:29.0000000+00:00</time></trkpt><trkpt lat="39.51463999" lon="-0.43849994"><ele>79.4</ele><time>2022-11-01T15:39:30.0000000+00:00</time></trkpt><trkpt lat="39.51460781" lon="-0.43845643"><ele>79.4</ele><time>2022-11-01T15:39:31.0000000+00:00</time></trkpt><trkpt lat="39.51457872" lon="-0.43841193"><ele>79.4</ele><time>2022-11-01T15:39:32.0000000+00:00</time></trkpt><trkpt lat="39.51455592" lon="-0.43837295"><ele>79.2</ele><time>2022-11-01T15:39:33.0000000+00:00</time></trkpt><trkpt lat="39.51452332" lon="-0.43831972"><ele>79.2</ele><time>2022-11-01T15:39:34.0000000+00:00</time></trkpt><trkpt lat="39.51449432" lon="-0.43827622"><ele>79.2</ele><time>2022-11-01T15:39:35.0000000+00:00</time></trkpt><trkpt lat="39.51446657" lon="-0.4382385"><ele>79.0</ele><time>2022-11-01T15:39:36.0000000+00:00</time></trkpt><trkpt lat="39.51444402" lon="-0.43820464"><ele>78.8</ele><time>2022-11-01T15:39:37.0000000+00:00</time></trkpt><trkpt lat="39.51442231" lon="-0.43817044"><ele>78.8</ele><time>2022-11-01T15:39:38.0000000+00:00</time></trkpt><trkpt lat="39.51439683" lon="-0.43813842"><ele>78.8</ele><time>2022-11-01T15:39:39.0000000+00:00</time></trkpt><trkpt lat="39.51436683" lon="-0.43811236"><ele>78.8</ele><time>2022-11-01T15:39:40.0000000+00:00</time></trkpt><trkpt lat="39.51433715" lon="-0.4380976"><ele>78.8</ele><time>2022-11-01T15:39:41.0000000+00:00</time></trkpt><trkpt lat="39.51431117" lon="-0.43809928"><ele>78.6</ele><time>2022-11-01T15:39:42.0000000+00:00</time></trkpt><trkpt lat="39.51428887" lon="-0.43810666"><ele>78.6</ele><time>2022-11-01T15:39:43.0000000+00:00</time></trkpt><trkpt lat="39.5142701" lon="-0.43811479"><ele>78.4</ele><time>2022-11-01T15:39:44.0000000+00:00</time></trkpt><trkpt lat="39.51425359" lon="-0.43812283"><ele>78.4</ele><time>2022-11-01T15:39:45.0000000+00:00</time></trkpt><trkpt lat="39.51423775" lon="-0.43812954"><ele>78.2</ele><time>2022-11-01T15:39:46.0000000+00:00</time></trkpt><trkpt lat="39.51422333" lon="-0.4381282"><ele>78.2</ele><time>2022-11-01T15:39:47.0000000+00:00</time></trkpt><trkpt lat="39.5142121" lon="-0.43811789"><ele>78.2</ele><time>2022-11-01T15:39:48.0000000+00:00</time></trkpt><trkpt lat="39.51420522" lon="-0.43809559"><ele>78.2</ele><time>2022-11-01T15:39:49.0000000+00:00</time></trkpt><trkpt lat="39.51419416" lon="-0.43806466"><ele>78.4</ele><time>2022-11-01T15:39:50.0000000+00:00</time></trkpt><trkpt lat="39.51417589" lon="-0.43804027"><ele>78.4</ele><time>2022-11-01T15:39:51.0000000+00:00</time></trkpt><trkpt lat="39.51415175" lon="-0.43803298"><ele>78.6</ele><time>2022-11-01T15:39:52.0000000+00:00</time></trkpt><trkpt lat="39.51412828" lon="-0.43804254"><ele>78.6</ele><time>2022-11-01T15:39:53.0000000+00:00</time></trkpt><trkpt lat="39.51410632" lon="-0.43805846"><ele>78.8</ele><time>2022-11-01T15:39:54.0000000+00:00</time></trkpt><trkpt lat="39.51408385" lon="-0.43807162"><ele>78.8</ele><time>2022-11-01T15:39:55.0000000+00:00</time></trkpt><trkpt lat="39.51405938" lon="-0.43807724"><ele>78.8</ele><time>2022-11-01T15:39:56.0000000+00:00</time></trkpt><trkpt lat="39.51404152" lon="-0.43807807"><ele>78.8</ele><time>2022-11-01T15:39:57.0000000+00:00</time></trkpt><trkpt lat="39.51402082" lon="-0.4380712"><ele>79.0</ele><time>2022-11-01T15:39:58.0000000+00:00</time></trkpt><trkpt lat="39.51399392" lon="-0.43805595"><ele>79.0</ele><time>2022-11-01T15:39:59.0000000+00:00</time></trkpt><trkpt lat="39.51396173" lon="-0.43802938"><ele>79.0</ele><time>2022-11-01T15:40:00.0000000+00:00</time></trkpt><trkpt lat="39.51392468" lon="-0.43799819"><ele>79.2</ele><time>2022-11-01T15:40:01.0000000+00:00</time></trkpt><trkpt lat="39.51389006" lon="-0.43796483"><ele>79.2</ele><time>2022-11-01T15:40:02.0000000+00:00</time></trkpt><trkpt lat="39.51385955" lon="-0.43793466"><ele>79.2</ele><time>2022-11-01T15:40:03.0000000+00:00</time></trkpt><trkpt lat="39.51382963" lon="-0.43788957"><ele>79.2</ele><time>2022-11-01T15:40:04.0000000+00:00</time></trkpt><trkpt lat="39.51379786" lon="-0.4378376"><ele>79.2</ele><time>2022-11-01T15:40:05.0000000+00:00</time></trkpt><trkpt lat="39.51376568" lon="-0.43779426"><ele>79.0</ele><time>2022-11-01T15:40:06.0000000+00:00</time></trkpt><trkpt lat="39.51373307" lon="-0.43775227"><ele>79.0</ele><time>2022-11-01T15:40:07.0000000+00:00</time></trkpt><trkpt lat="39.51370063" lon="-0.4377122"><ele>79.0</ele><time>2022-11-01T15:40:08.0000000+00:00</time></trkpt><trkpt lat="39.51366409" lon="-0.43767298"><ele>79.0</ele><time>2022-11-01T15:40:09.0000000+00:00</time></trkpt><trkpt lat="39.51362302" lon="-0.4376288"><ele>79.0</ele><time>2022-11-01T15:40:10.0000000+00:00</time></trkpt><trkpt lat="39.51359033" lon="-0.43758983"><ele>79.0</ele><time>2022-11-01T15:40:11.0000000+00:00</time></trkpt><trkpt lat="39.51355923" lon="-0.43755119"><ele>79.0</ele><time>2022-11-01T15:40:12.0000000+00:00</time></trkpt><trkpt lat="39.51352595" lon="-0.43751171"><ele>79.0</ele><time>2022-11-01T15:40:13.0000000+00:00</time></trkpt><trkpt lat="39.51348916" lon="-0.43747768"><ele>79.0</ele><time>2022-11-01T15:40:14.0000000+00:00</time></trkpt><trkpt lat="39.51345898" lon="-0.43744985"><ele>79.0</ele><time>2022-11-01T15:40:15.0000000+00:00</time></trkpt><trkpt lat="39.51341406" lon="-0.43740509"><ele>79.0</ele><time>2022-11-01T15:40:16.0000000+00:00</time></trkpt><trkpt lat="39.51337692" lon="-0.43737039"><ele>79.0</ele><time>2022-11-01T15:40:17.0000000+00:00</time></trkpt><trkpt lat="39.51333451" lon="-0.4373372"><ele>79.0</ele><time>2022-11-01T15:40:18.0000000+00:00</time></trkpt><trkpt lat="39.51329679" lon="-0.43730551"><ele>79.0</ele><time>2022-11-01T15:40:19.0000000+00:00</time></trkpt><trkpt lat="39.5132605" lon="-0.43727618"><ele>78.8</ele><time>2022-11-01T15:40:20.0000000+00:00</time></trkpt><trkpt lat="39.51322353" lon="-0.43724726"><ele>78.8</ele><time>2022-11-01T15:40:21.0000000+00:00</time></trkpt><trkpt lat="39.51318774" lon="-0.43722228"><ele>78.8</ele><time>2022-11-01T15:40:22.0000000+00:00</time></trkpt><trkpt lat="39.51315137" lon="-0.43719688"><ele>78.6</ele><time>2022-11-01T15:40:23.0000000+00:00</time></trkpt><trkpt lat="39.5131077" lon="-0.43716705"><ele>78.6</ele><time>2022-11-01T15:40:24.0000000+00:00</time></trkpt><trkpt lat="39.5130673" lon="-0.43713838"><ele>78.6</ele><time>2022-11-01T15:40:25.0000000+00:00</time></trkpt><trkpt lat="39.51302178" lon="-0.43710963"><ele>78.6</ele><time>2022-11-01T15:40:26.0000000+00:00</time></trkpt><trkpt lat="39.51297543" lon="-0.43708021"><ele>78.6</ele><time>2022-11-01T15:40:27.0000000+00:00</time></trkpt><trkpt lat="39.51292765" lon="-0.43705196"><ele>78.6</ele><time>2022-11-01T15:40:28.0000000+00:00</time></trkpt><trkpt lat="39.51287753" lon="-0.43702539"><ele>78.4</ele><time>2022-11-01T15:40:29.0000000+00:00</time></trkpt><trkpt lat="39.51282959" lon="-0.43700268"><ele>78.4</ele><time>2022-11-01T15:40:30.0000000+00:00</time></trkpt><trkpt lat="39.51278139" lon="-0.43698046"><ele>78.2</ele><time>2022-11-01T15:40:31.0000000+00:00</time></trkpt><trkpt lat="39.51273168" lon="-0.43695993"><ele>78.0</ele><time>2022-11-01T15:40:32.0000000+00:00</time></trkpt><trkpt lat="39.51268156" lon="-0.43694249"><ele>77.8</ele><time>2022-11-01T15:40:33.0000000+00:00</time></trkpt><trkpt lat="39.51262926" lon="-0.43692539"><ele>77.8</ele><time>2022-11-01T15:40:34.0000000+00:00</time></trkpt><trkpt lat="39.51257628" lon="-0.43690922"><ele>77.8</ele><time>2022-11-01T15:40:35.0000000+00:00</time></trkpt><trkpt lat="39.51252448" lon="-0.4368974"><ele>78.0</ele><time>2022-11-01T15:40:36.0000000+00:00</time></trkpt><trkpt lat="39.51247285" lon="-0.4368896"><ele>78.2</ele><time>2022-11-01T15:40:37.0000000+00:00</time></trkpt><trkpt lat="39.51242382" lon="-0.43688499"><ele>78.6</ele><time>2022-11-01T15:40:38.0000000+00:00</time></trkpt><trkpt lat="39.51237948" lon="-0.43688298"><ele>78.8</ele><time>2022-11-01T15:40:39.0000000+00:00</time></trkpt><trkpt lat="39.51233782" lon="-0.43688466"><ele>79.0</ele><time>2022-11-01T15:40:40.0000000+00:00</time></trkpt><trkpt lat="39.51229415" lon="-0.43689061"><ele>79.2</ele><time>2022-11-01T15:40:41.0000000+00:00</time></trkpt><trkpt lat="39.51225618" lon="-0.43689706"><ele>79.4</ele><time>2022-11-01T15:40:42.0000000+00:00</time></trkpt><trkpt lat="39.51221662" lon="-0.43689983"><ele>79.6</ele><time>2022-11-01T15:40:43.0000000+00:00</time></trkpt><trkpt lat="39.51217689" lon="-0.43690394"><ele>79.6</ele><time>2022-11-01T15:40:44.0000000+00:00</time></trkpt><trkpt lat="39.51213975" lon="-0.43691584"><ele>79.8</ele><time>2022-11-01T15:40:45.0000000+00:00</time></trkpt><trkpt lat="39.51210195" lon="-0.43692774"><ele>79.8</ele><time>2022-11-01T15:40:46.0000000+00:00</time></trkpt><trkpt lat="39.5120639" lon="-0.43694216"><ele>80.0</ele><time>2022-11-01T15:40:47.0000000+00:00</time></trkpt><trkpt lat="39.51202467" lon="-0.43695498"><ele>80.0</ele><time>2022-11-01T15:40:48.0000000+00:00</time></trkpt><trkpt lat="39.51198377" lon="-0.43696814"><ele>80.2</ele><time>2022-11-01T15:40:49.0000000+00:00</time></trkpt><trkpt lat="39.51194228" lon="-0.43697778"><ele>80.2</ele><time>2022-11-01T15:40:50.0000000+00:00</time></trkpt><trkpt lat="39.51190045" lon="-0.43698365"><ele>80.4</ele><time>2022-11-01T15:40:51.0000000+00:00</time></trkpt><trkpt lat="39.51185511" lon="-0.43698977"><ele>80.4</ele><time>2022-11-01T15:40:52.0000000+00:00</time></trkpt><trkpt lat="39.51180959" lon="-0.43699471"><ele>80.6</ele><time>2022-11-01T15:40:53.0000000+00:00</time></trkpt><trkpt lat="39.51176383" lon="-0.43699379"><ele>80.6</ele><time>2022-11-01T15:40:54.0000000+00:00</time></trkpt><trkpt lat="39.5117184" lon="-0.43699144"><ele>80.8</ele><time>2022-11-01T15:40:55.0000000+00:00</time></trkpt><trkpt lat="39.51167003" lon="-0.43698927"><ele>80.8</ele><time>2022-11-01T15:40:56.0000000+00:00</time></trkpt><trkpt lat="39.51162226" lon="-0.43698424"><ele>80.8</ele><time>2022-11-01T15:40:57.0000000+00:00</time></trkpt><trkpt lat="39.51157574" lon="-0.43697954"><ele>80.8</ele><time>2022-11-01T15:40:58.0000000+00:00</time></trkpt><trkpt lat="39.51154229" lon="-0.43697761"><ele>80.8</ele><time>2022-11-01T15:40:59.0000000+00:00</time></trkpt><trkpt lat="39.51149896" lon="-0.43697376"><ele>80.8</ele><time>2022-11-01T15:41:00.0000000+00:00</time></trkpt><trkpt lat="39.51145688" lon="-0.43696823"><ele>80.8</ele><time>2022-11-01T15:41:01.0000000+00:00</time></trkpt><trkpt lat="39.51140667" lon="-0.4369601"><ele>80.6</ele><time>2022-11-01T15:41:02.0000000+00:00</time></trkpt><trkpt lat="39.51136393" lon="-0.43695171"><ele>80.6</ele><time>2022-11-01T15:41:03.0000000+00:00</time></trkpt><trkpt lat="39.51132118" lon="-0.43694593"><ele>80.6</ele><time>2022-11-01T15:41:04.0000000+00:00</time></trkpt><trkpt lat="39.51127776" lon="-0.43693956"><ele>80.4</ele><time>2022-11-01T15:41:05.0000000+00:00</time></trkpt><trkpt lat="39.51123484" lon="-0.43692892"><ele>80.4</ele><time>2022-11-01T15:41:06.0000000+00:00</time></trkpt><trkpt lat="39.51119193" lon="-0.4369197"><ele>80.4</ele><time>2022-11-01T15:41:07.0000000+00:00</time></trkpt><trkpt lat="39.51114977" lon="-0.43691559"><ele>80.4</ele><time>2022-11-01T15:41:08.0000000+00:00</time></trkpt><trkpt lat="39.51110744" lon="-0.43690888"><ele>80.4</ele><time>2022-11-01T15:41:09.0000000+00:00</time></trkpt><trkpt lat="39.51107098" lon="-0.4369"><ele>80.2</ele><time>2022-11-01T15:41:10.0000000+00:00</time></trkpt><trkpt lat="39.51101842" lon="-0.43688734"><ele>80.2</ele><time>2022-11-01T15:41:11.0000000+00:00</time></trkpt><trkpt lat="39.51097157" lon="-0.43687443"><ele>80.2</ele><time>2022-11-01T15:41:12.0000000+00:00</time></trkpt><trkpt lat="39.51092404" lon="-0.43686312"><ele>80.0</ele><time>2022-11-01T15:41:13.0000000+00:00</time></trkpt><trkpt lat="39.51087484" lon="-0.43685214"><ele>80.0</ele><time>2022-11-01T15:41:14.0000000+00:00</time></trkpt><trkpt lat="39.51082346" lon="-0.43684292"><ele>80.0</ele><time>2022-11-01T15:41:15.0000000+00:00</time></trkpt><trkpt lat="39.51077116" lon="-0.43683386"><ele>79.8</ele><time>2022-11-01T15:41:16.0000000+00:00</time></trkpt><trkpt lat="39.51071785" lon="-0.4368264"><ele>79.6</ele><time>2022-11-01T15:41:17.0000000+00:00</time></trkpt><trkpt lat="39.51066253" lon="-0.4368166"><ele>79.4</ele><time>2022-11-01T15:41:18.0000000+00:00</time></trkpt><trkpt lat="39.51060436" lon="-0.43680285"><ele>79.4</ele><time>2022-11-01T15:41:19.0000000+00:00</time></trkpt><trkpt lat="39.5105451" lon="-0.43679204"><ele>79.2</ele><time>2022-11-01T15:41:20.0000000+00:00</time></trkpt><trkpt lat="39.51048684" lon="-0.43678676"><ele>79.2</ele><time>2022-11-01T15:41:21.0000000+00:00</time></trkpt><trkpt lat="39.51042783" lon="-0.43678072"><ele>79.0</ele><time>2022-11-01T15:41:22.0000000+00:00</time></trkpt><trkpt lat="39.5103669" lon="-0.43676991"><ele>78.8</ele><time>2022-11-01T15:41:23.0000000+00:00</time></trkpt><trkpt lat="39.51030504" lon="-0.43676027"><ele>78.6</ele><time>2022-11-01T15:41:24.0000000+00:00</time></trkpt><trkpt lat="39.51023882" lon="-0.43674728"><ele>78.6</ele><time>2022-11-01T15:41:25.0000000+00:00</time></trkpt><trkpt lat="39.51017143" lon="-0.43673337"><ele>78.4</ele><time>2022-11-01T15:41:26.0000000+00:00</time></trkpt><trkpt lat="39.51010027" lon="-0.43671476"><ele>78.4</ele><time>2022-11-01T15:41:27.0000000+00:00</time></trkpt><trkpt lat="39.5100307" lon="-0.43670453"><ele>78.2</ele><time>2022-11-01T15:41:28.0000000+00:00</time></trkpt><trkpt lat="39.50996398" lon="-0.43669263"><ele>78.2</ele><time>2022-11-01T15:41:29.0000000+00:00</time></trkpt><trkpt lat="39.50989952" lon="-0.43667997"><ele>77.8</ele><time>2022-11-01T15:41:30.0000000+00:00</time></trkpt><trkpt lat="39.50983414" lon="-0.43666396"><ele>77.4</ele><time>2022-11-01T15:41:31.0000000+00:00</time></trkpt><trkpt lat="39.50977321" lon="-0.43665097"><ele>77.0</ele><time>2022-11-01T15:41:32.0000000+00:00</time></trkpt><trkpt lat="39.50971965" lon="-0.436642"><ele>76.8</ele><time>2022-11-01T15:41:33.0000000+00:00</time></trkpt><trkpt lat="39.50967497" lon="-0.43663756"><ele>76.6</ele><time>2022-11-01T15:41:34.0000000+00:00</time></trkpt><trkpt lat="39.50964253" lon="-0.43662893"><ele>76.4</ele><time>2022-11-01T15:41:35.0000000+00:00</time></trkpt><trkpt lat="39.5096158" lon="-0.43661317"><ele>76.4</ele><time>2022-11-01T15:41:36.0000000+00:00</time></trkpt><trkpt lat="39.50959518" lon="-0.43659188"><ele>76.4</ele><time>2022-11-01T15:41:37.0000000+00:00</time></trkpt><trkpt lat="39.50958084" lon="-0.4365633"><ele>76.2</ele><time>2022-11-01T15:41:38.0000000+00:00</time></trkpt><trkpt lat="39.50957774" lon="-0.43652499"><ele>76.2</ele><time>2022-11-01T15:41:39.0000000+00:00</time></trkpt><trkpt lat="39.50958302" lon="-0.43647856"><ele>76.0</ele><time>2022-11-01T15:41:40.0000000+00:00</time></trkpt><trkpt lat="39.50959082" lon="-0.43642768"><ele>76.0</ele><time>2022-11-01T15:41:41.0000000+00:00</time></trkpt><trkpt lat="39.50959937" lon="-0.4363892"><ele>75.8</ele><time>2022-11-01T15:41:42.0000000+00:00</time></trkpt><trkpt lat="39.50961513" lon="-0.43632475"><ele>75.8</ele><time>2022-11-01T15:41:43.0000000+00:00</time></trkpt><trkpt lat="39.50962703" lon="-0.43627094"><ele>75.8</ele><time>2022-11-01T15:41:44.0000000+00:00</time></trkpt><trkpt lat="39.50963457" lon="-0.43621754"><ele>75.6</ele><time>2022-11-01T15:41:45.0000000+00:00</time></trkpt><trkpt lat="39.50964379" lon="-0.43616449"><ele>75.6</ele><time>2022-11-01T15:41:46.0000000+00:00</time></trkpt><trkpt lat="39.50965209" lon="-0.43611"><ele>75.6</ele><time>2022-11-01T15:41:47.0000000+00:00</time></trkpt><trkpt lat="39.50966005" lon="-0.43605401"><ele>75.6</ele><time>2022-11-01T15:41:48.0000000+00:00</time></trkpt><trkpt lat="39.50966567" lon="-0.43599869"><ele>75.6</ele><time>2022-11-01T15:41:49.0000000+00:00</time></trkpt><trkpt lat="39.50967095" lon="-0.43594019"><ele>75.6</ele><time>2022-11-01T15:41:50.0000000+00:00</time></trkpt><trkpt lat="39.50967548" lon="-0.43588126"><ele>75.4</ele><time>2022-11-01T15:41:51.0000000+00:00</time></trkpt><trkpt lat="39.50968185" lon="-0.43582468"><ele>75.2</ele><time>2022-11-01T15:41:52.0000000+00:00</time></trkpt><trkpt lat="39.50968914" lon="-0.43576819"><ele>75.2</ele><time>2022-11-01T15:41:53.0000000+00:00</time></trkpt><trkpt lat="39.50969744" lon="-0.43570834"><ele>75.0</ele><time>2022-11-01T15:41:54.0000000+00:00</time></trkpt><trkpt lat="39.50970867" lon="-0.43564883"><ele>74.8</ele><time>2022-11-01T15:41:55.0000000+00:00</time></trkpt><trkpt lat="39.50971638" lon="-0.43558655"><ele>74.8</ele><time>2022-11-01T15:41:56.0000000+00:00</time></trkpt><trkpt lat="39.50972602" lon="-0.43552386"><ele>74.6</ele><time>2022-11-01T15:41:57.0000000+00:00</time></trkpt><trkpt lat="39.50973021" lon="-0.43545772"><ele>74.6</ele><time>2022-11-01T15:41:58.0000000+00:00</time></trkpt><trkpt lat="39.50972593" lon="-0.43538799"><ele>74.6</ele><time>2022-11-01T15:41:59.0000000+00:00</time></trkpt><trkpt lat="39.50970951" lon="-0.43532227"><ele>74.4</ele><time>2022-11-01T15:42:00.0000000+00:00</time></trkpt><trkpt lat="39.5096883" lon="-0.43525429"><ele>74.0</ele><time>2022-11-01T15:42:01.0000000+00:00</time></trkpt><trkpt lat="39.50967137" lon="-0.43518548"><ele>73.8</ele><time>2022-11-01T15:42:02.0000000+00:00</time></trkpt><trkpt lat="39.50966005" lon="-0.43511323"><ele>73.6</ele><time>2022-11-01T15:42:03.0000000+00:00</time></trkpt><trkpt lat="39.50964865" lon="-0.43504173"><ele>73.4</ele><time>2022-11-01T15:42:04.0000000+00:00</time></trkpt><trkpt lat="39.50963323" lon="-0.43498255"><ele>73.0</ele><time>2022-11-01T15:42:05.0000000+00:00</time></trkpt><trkpt lat="39.50961194" lon="-0.43494173"><ele>72.8</ele><time>2022-11-01T15:42:06.0000000+00:00</time></trkpt><trkpt lat="39.5095883" lon="-0.43491483"><ele>72.4</ele><time>2022-11-01T15:42:07.0000000+00:00</time></trkpt><trkpt lat="39.50956249" lon="-0.43489806"><ele>72.0</ele><time>2022-11-01T15:42:08.0000000+00:00</time></trkpt><trkpt lat="39.50953541" lon="-0.43488423"><ele>71.8</ele><time>2022-11-01T15:42:09.0000000+00:00</time></trkpt><trkpt lat="39.50950365" lon="-0.43487116"><ele>71.6</ele><time>2022-11-01T15:42:10.0000000+00:00</time></trkpt><trkpt lat="39.50947205" lon="-0.43485615"><ele>71.4</ele><time>2022-11-01T15:42:11.0000000+00:00</time></trkpt><trkpt lat="39.50944103" lon="-0.43483973"><ele>71.2</ele><time>2022-11-01T15:42:12.0000000+00:00</time></trkpt><trkpt lat="39.50941069" lon="-0.4348202"><ele>71.2</ele><time>2022-11-01T15:42:13.0000000+00:00</time></trkpt><trkpt lat="39.50937951" lon="-0.43479907"><ele>71.2</ele><time>2022-11-01T15:42:14.0000000+00:00</time></trkpt><trkpt lat="39.50934305" lon="-0.4347725"><ele>71.0</ele><time>2022-11-01T15:42:15.0000000+00:00</time></trkpt><trkpt lat="39.50930399" lon="-0.4347435"><ele>70.8</ele><time>2022-11-01T15:42:16.0000000+00:00</time></trkpt><trkpt lat="39.50926124" lon="-0.43471836"><ele>70.6</ele><time>2022-11-01T15:42:17.0000000+00:00</time></trkpt><trkpt lat="39.50921807" lon="-0.43469128"><ele>70.6</ele><time>2022-11-01T15:42:18.0000000+00:00</time></trkpt><trkpt lat="39.50917063" lon="-0.43465809"><ele>70.4</ele><time>2022-11-01T15:42:19.0000000+00:00</time></trkpt><trkpt lat="39.50912026" lon="-0.43462163"><ele>70.2</ele><time>2022-11-01T15:42:20.0000000+00:00</time></trkpt><trkpt lat="39.50907206" lon="-0.43458777"><ele>70.0</ele><time>2022-11-01T15:42:21.0000000+00:00</time></trkpt><trkpt lat="39.50902655" lon="-0.43455533"><ele>70.0</ele><time>2022-11-01T15:42:22.0000000+00:00</time></trkpt><trkpt lat="39.50898456" lon="-0.43452138"><ele>70.0</ele><time>2022-11-01T15:42:23.0000000+00:00</time></trkpt><trkpt lat="39.50894399" lon="-0.43448425"><ele>69.8</ele><time>2022-11-01T15:42:24.0000000+00:00</time></trkpt><trkpt lat="39.5089066" lon="-0.43445122"><ele>69.6</ele><time>2022-11-01T15:42:25.0000000+00:00</time></trkpt><trkpt lat="39.50884407" lon="-0.43439783"><ele>69.6</ele><time>2022-11-01T15:42:26.0000000+00:00</time></trkpt><trkpt lat="39.50878875" lon="-0.43436095"><ele>69.4</ele><time>2022-11-01T15:42:27.0000000+00:00</time></trkpt><trkpt lat="39.50872388" lon="-0.43433203"><ele>69.0</ele><time>2022-11-01T15:42:28.0000000+00:00</time></trkpt><trkpt lat="39.50866856" lon="-0.4343239"><ele>68.4</ele><time>2022-11-01T15:42:29.0000000+00:00</time></trkpt><trkpt lat="39.50863377" lon="-0.43433011"><ele>67.4</ele><time>2022-11-01T15:42:30.0000000+00:00</time></trkpt><trkpt lat="39.50860519" lon="-0.43433765"><ele>66.8</ele><time>2022-11-01T15:42:31.0000000+00:00</time></trkpt><trkpt lat="39.50857233" lon="-0.43433891"><ele>66.4</ele><time>2022-11-01T15:42:32.0000000+00:00</time></trkpt><trkpt lat="39.50853386" lon="-0.43432667"><ele>65.8</ele><time>2022-11-01T15:42:33.0000000+00:00</time></trkpt><trkpt lat="39.50849069" lon="-0.43430479"><ele>65.6</ele><time>2022-11-01T15:42:34.0000000+00:00</time></trkpt><trkpt lat="39.50844384" lon="-0.43427018"><ele>65.0</ele><time>2022-11-01T15:42:35.0000000+00:00</time></trkpt><trkpt lat="39.50839933" lon="-0.43422961"><ele>64.4</ele><time>2022-11-01T15:42:36.0000000+00:00</time></trkpt><trkpt lat="39.50836178" lon="-0.43419189"><ele>64.2</ele><time>2022-11-01T15:42:37.0000000+00:00</time></trkpt><trkpt lat="39.50832817" lon="-0.43416398"><ele>64.0</ele><time>2022-11-01T15:42:38.0000000+00:00</time></trkpt><trkpt lat="39.50829087" lon="-0.43415233"><ele>63.8</ele><time>2022-11-01T15:42:39.0000000+00:00</time></trkpt><trkpt lat="39.50800723" lon="-0.43406725"><ele>64.8</ele><time>2022-11-01T15:42:46.0000000+00:00</time></trkpt><trkpt lat="39.50799507" lon="-0.43407882"><ele>64.8</ele><time>2022-11-01T15:42:47.0000000+00:00</time></trkpt><trkpt lat="39.50797521" lon="-0.43409248"><ele>64.8</ele><time>2022-11-01T15:42:48.0000000+00:00</time></trkpt><trkpt lat="39.50794109" lon="-0.43406733"><ele>65.0</ele><time>2022-11-01T15:42:49.0000000+00:00</time></trkpt><trkpt lat="39.50793279" lon="-0.43403884"><ele>65.0</ele><time>2022-11-01T15:42:50.0000000+00:00</time></trkpt><trkpt lat="39.50792927" lon="-0.43400229"><ele>65.0</ele><time>2022-11-01T15:42:51.0000000+00:00</time></trkpt><trkpt lat="39.50792818" lon="-0.43395376"><ele>65.0</ele><time>2022-11-01T15:42:52.0000000+00:00</time></trkpt><trkpt lat="39.50791779" lon="-0.43390841"><ele>65.0</ele><time>2022-11-01T15:42:53.0000000+00:00</time></trkpt><trkpt lat="39.50789935" lon="-0.43386902"><ele>65.2</ele><time>2022-11-01T15:42:54.0000000+00:00</time></trkpt><trkpt lat="39.50788435" lon="-0.43383884"><ele>65.2</ele><time>2022-11-01T15:42:55.0000000+00:00</time></trkpt><trkpt lat="39.50787353" lon="-0.43381278"><ele>65.2</ele><time>2022-11-01T15:42:56.0000000+00:00</time></trkpt><trkpt lat="39.5078618" lon="-0.43376684"><ele>65.2</ele><time>2022-11-01T15:42:57.0000000+00:00</time></trkpt><trkpt lat="39.50784948" lon="-0.43372527"><ele>65.2</ele><time>2022-11-01T15:42:58.0000000+00:00</time></trkpt><trkpt lat="39.50783766" lon="-0.43368386"><ele>65.2</ele><time>2022-11-01T15:42:59.0000000+00:00</time></trkpt><trkpt lat="39.50781545" lon="-0.43364388"><ele>65.4</ele><time>2022-11-01T15:43:00.0000000+00:00</time></trkpt><trkpt lat="39.50778427" lon="-0.43360876"><ele>65.4</ele><time>2022-11-01T15:43:01.0000000+00:00</time></trkpt><trkpt lat="39.50774923" lon="-0.43358051"><ele>65.6</ele><time>2022-11-01T15:43:02.0000000+00:00</time></trkpt><trkpt lat="39.50771076" lon="-0.43355922"><ele>65.6</ele><time>2022-11-01T15:43:03.0000000+00:00</time></trkpt><trkpt lat="39.50767195" lon="-0.43354061"><ele>65.6</ele><time>2022-11-01T15:43:04.0000000+00:00</time></trkpt><trkpt lat="39.50762861" lon="-0.43352293"><ele>65.6</ele><time>2022-11-01T15:43:05.0000000+00:00</time></trkpt><trkpt lat="39.50758344" lon="-0.43350499"><ele>65.6</ele><time>2022-11-01T15:43:06.0000000+00:00</time></trkpt><trkpt lat="39.50753566" lon="-0.43348881"><ele>65.6</ele><time>2022-11-01T15:43:07.0000000+00:00</time></trkpt><trkpt lat="39.50749291" lon="-0.43347482"><ele>65.4</ele><time>2022-11-01T15:43:08.0000000+00:00</time></trkpt><trkpt lat="39.50745117" lon="-0.43345411"><ele>65.2</ele><time>2022-11-01T15:43:09.0000000+00:00</time></trkpt><trkpt lat="39.50740733" lon="-0.43342981"><ele>65.0</ele><time>2022-11-01T15:43:10.0000000+00:00</time></trkpt><trkpt lat="39.50736961" lon="-0.43341086"><ele>65.0</ele><time>2022-11-01T15:43:11.0000000+00:00</time></trkpt><trkpt lat="39.50731094" lon="-0.43338236"><ele>65.0</ele><time>2022-11-01T15:43:12.0000000+00:00</time></trkpt><trkpt lat="39.5072614" lon="-0.43335512"><ele>65.0</ele><time>2022-11-01T15:43:13.0000000+00:00</time></trkpt><trkpt lat="39.50721329" lon="-0.43332922"><ele>65.0</ele><time>2022-11-01T15:43:14.0000000+00:00</time></trkpt><trkpt lat="39.50716518" lon="-0.43330039"><ele>65.0</ele><time>2022-11-01T15:43:15.0000000+00:00</time></trkpt><trkpt lat="39.5071226" lon="-0.43326569"><ele>65.0</ele><time>2022-11-01T15:43:16.0000000+00:00</time></trkpt><trkpt lat="39.50707558" lon="-0.43323258"><ele>65.0</ele><time>2022-11-01T15:43:17.0000000+00:00</time></trkpt><trkpt lat="39.50702394" lon="-0.4332066"><ele>65.0</ele><time>2022-11-01T15:43:18.0000000+00:00</time></trkpt><trkpt lat="39.50697566" lon="-0.43317676"><ele>65.0</ele><time>2022-11-01T15:43:19.0000000+00:00</time></trkpt><trkpt lat="39.50692613" lon="-0.43314566"><ele>64.6</ele><time>2022-11-01T15:43:20.0000000+00:00</time></trkpt><trkpt lat="39.50686737" lon="-0.43311247"><ele>64.2</ele><time>2022-11-01T15:43:21.0000000+00:00</time></trkpt><trkpt lat="39.50681163" lon="-0.43308849"><ele>64.2</ele><time>2022-11-01T15:43:22.0000000+00:00</time></trkpt><trkpt lat="39.50675698" lon="-0.43306972"><ele>63.8</ele><time>2022-11-01T15:43:23.0000000+00:00</time></trkpt><trkpt lat="39.50669797" lon="-0.43305589"><ele>63.6</ele><time>2022-11-01T15:43:24.0000000+00:00</time></trkpt><trkpt lat="39.50664718" lon="-0.43304449"><ele>63.2</ele><time>2022-11-01T15:43:25.0000000+00:00</time></trkpt><trkpt lat="39.50659932" lon="-0.43303418"><ele>63.2</ele><time>2022-11-01T15:43:26.0000000+00:00</time></trkpt><trkpt lat="39.50655296" lon="-0.43302345"><ele>63.0</ele><time>2022-11-01T15:43:27.0000000+00:00</time></trkpt><trkpt lat="39.50650133" lon="-0.43300669"><ele>63.0</ele><time>2022-11-01T15:43:28.0000000+00:00</time></trkpt><trkpt lat="39.50644869" lon="-0.43299571"><ele>62.8</ele><time>2022-11-01T15:43:29.0000000+00:00</time></trkpt><trkpt lat="39.50639455" lon="-0.43298439"><ele>62.8</ele><time>2022-11-01T15:43:30.0000000+00:00</time></trkpt><trkpt lat="39.5063435" lon="-0.43297693"><ele>62.8</ele><time>2022-11-01T15:43:31.0000000+00:00</time></trkpt><trkpt lat="39.50629011" lon="-0.43296863"><ele>62.8</ele><time>2022-11-01T15:43:32.0000000+00:00</time></trkpt><trkpt lat="39.50623781" lon="-0.4329626"><ele>62.6</ele><time>2022-11-01T15:43:33.0000000+00:00</time></trkpt><trkpt lat="39.50618458" lon="-0.43295841"><ele>62.6</ele><time>2022-11-01T15:43:34.0000000+00:00</time></trkpt><trkpt lat="39.50613127" lon="-0.43295397"><ele>62.8</ele><time>2022-11-01T15:43:35.0000000+00:00</time></trkpt><trkpt lat="39.50607645" lon="-0.43295145"><ele>62.6</ele><time>2022-11-01T15:43:36.0000000+00:00</time></trkpt><trkpt lat="39.5060187" lon="-0.43294592"><ele>62.6</ele><time>2022-11-01T15:43:37.0000000+00:00</time></trkpt><trkpt lat="39.50596179" lon="-0.43294173"><ele>62.4</ele><time>2022-11-01T15:43:38.0000000+00:00</time></trkpt><trkpt lat="39.50590437" lon="-0.43293888"><ele>62.2</ele><time>2022-11-01T15:43:39.0000000+00:00</time></trkpt><trkpt lat="39.50584746" lon="-0.43293393"><ele>62.2</ele><time>2022-11-01T15:43:40.0000000+00:00</time></trkpt><trkpt lat="39.50579038" lon="-0.43292949"><ele>62.2</ele><time>2022-11-01T15:43:41.0000000+00:00</time></trkpt><trkpt lat="39.50573238" lon="-0.43292723"><ele>62.2</ele><time>2022-11-01T15:43:42.0000000+00:00</time></trkpt><trkpt lat="39.50567613" lon="-0.43292337"><ele>62.2</ele><time>2022-11-01T15:43:43.0000000+00:00</time></trkpt><trkpt lat="39.50562065" lon="-0.43291926"><ele>62.4</ele><time>2022-11-01T15:43:44.0000000+00:00</time></trkpt><trkpt lat="39.50556105" lon="-0.43291918"><ele>62.4</ele><time>2022-11-01T15:43:45.0000000+00:00</time></trkpt><trkpt lat="39.50549886" lon="-0.43291759"><ele>62.4</ele><time>2022-11-01T15:43:46.0000000+00:00</time></trkpt><trkpt lat="39.50543775" lon="-0.4329144"><ele>62.4</ele><time>2022-11-01T15:43:47.0000000+00:00</time></trkpt><trkpt lat="39.50537757" lon="-0.4329108"><ele>62.2</ele><time>2022-11-01T15:43:48.0000000+00:00</time></trkpt><trkpt lat="39.50531932" lon="-0.43290887"><ele>62.2</ele><time>2022-11-01T15:43:49.0000000+00:00</time></trkpt><trkpt lat="39.50525771" lon="-0.43290317"><ele>62.2</ele><time>2022-11-01T15:43:50.0000000+00:00</time></trkpt><trkpt lat="39.50520633" lon="-0.43289588"><ele>62.2</ele><time>2022-11-01T15:43:51.0000000+00:00</time></trkpt><trkpt lat="39.50514388" lon="-0.43288523"><ele>62.2</ele><time>2022-11-01T15:43:52.0000000+00:00</time></trkpt><trkpt lat="39.50506761" lon="-0.43287853"><ele>62.4</ele><time>2022-11-01T15:43:53.0000000+00:00</time></trkpt><trkpt lat="39.50500315" lon="-0.43287434"><ele>62.4</ele><time>2022-11-01T15:43:54.0000000+00:00</time></trkpt><trkpt lat="39.50493794" lon="-0.43287015"><ele>62.4</ele><time>2022-11-01T15:43:55.0000000+00:00</time></trkpt><trkpt lat="39.50487256" lon="-0.43286487"><ele>62.6</ele><time>2022-11-01T15:43:56.0000000+00:00</time></trkpt><trkpt lat="39.50480752" lon="-0.43285732"><ele>62.6</ele><time>2022-11-01T15:43:57.0000000+00:00</time></trkpt><trkpt lat="39.50474306" lon="-0.43284852"><ele>62.8</ele><time>2022-11-01T15:43:58.0000000+00:00</time></trkpt><trkpt lat="39.50468296" lon="-0.43284508"><ele>62.8</ele><time>2022-11-01T15:43:59.0000000+00:00</time></trkpt><trkpt lat="39.50462278" lon="-0.43283821"><ele>62.8</ele><time>2022-11-01T15:44:00.0000000+00:00</time></trkpt><trkpt lat="39.50455832" lon="-0.43283042"><ele>63.0</ele><time>2022-11-01T15:44:01.0000000+00:00</time></trkpt><trkpt lat="39.50449647" lon="-0.43282229"><ele>63.0</ele><time>2022-11-01T15:44:02.0000000+00:00</time></trkpt><trkpt lat="39.50444659" lon="-0.43281449"><ele>63.0</ele><time>2022-11-01T15:44:03.0000000+00:00</time></trkpt><trkpt lat="39.50437308" lon="-0.43280678"><ele>63.2</ele><time>2022-11-01T15:44:04.0000000+00:00</time></trkpt><trkpt lat="39.50431206" lon="-0.4328015"><ele>63.4</ele><time>2022-11-01T15:44:05.0000000+00:00</time></trkpt><trkpt lat="39.50425523" lon="-0.4327958"><ele>63.4</ele><time>2022-11-01T15:44:06.0000000+00:00</time></trkpt><trkpt lat="39.50419723" lon="-0.43278599"><ele>63.4</ele><time>2022-11-01T15:44:07.0000000+00:00</time></trkpt><trkpt lat="39.50414057" lon="-0.4327766"><ele>63.6</ele><time>2022-11-01T15:44:08.0000000+00:00</time></trkpt><trkpt lat="39.50408206" lon="-0.43276697"><ele>63.6</ele><time>2022-11-01T15:44:09.0000000+00:00</time></trkpt><trkpt lat="39.50402247" lon="-0.43275791"><ele>63.6</ele><time>2022-11-01T15:44:10.0000000+00:00</time></trkpt><trkpt lat="39.50396237" lon="-0.43274911"><ele>63.6</ele><time>2022-11-01T15:44:11.0000000+00:00</time></trkpt><trkpt lat="39.50390085" lon="-0.43273721"><ele>63.4</ele><time>2022-11-01T15:44:12.0000000+00:00</time></trkpt><trkpt lat="39.50383857" lon="-0.43272615"><ele>63.4</ele><time>2022-11-01T15:44:13.0000000+00:00</time></trkpt><trkpt lat="39.50377772" lon="-0.43271902"><ele>63.4</ele><time>2022-11-01T15:44:14.0000000+00:00</time></trkpt><trkpt lat="39.50371929" lon="-0.43271072"><ele>63.4</ele><time>2022-11-01T15:44:15.0000000+00:00</time></trkpt><trkpt lat="39.50366439" lon="-0.43270226"><ele>63.4</ele><time>2022-11-01T15:44:16.0000000+00:00</time></trkpt><trkpt lat="39.50361284" lon="-0.43269371"><ele>63.4</ele><time>2022-11-01T15:44:17.0000000+00:00</time></trkpt><trkpt lat="39.5035592" lon="-0.43269144"><ele>63.4</ele><time>2022-11-01T15:44:18.0000000+00:00</time></trkpt><trkpt lat="39.50350447" lon="-0.4326839"><ele>63.4</ele><time>2022-11-01T15:44:19.0000000+00:00</time></trkpt><trkpt lat="39.50345853" lon="-0.4326803"><ele>63.4</ele><time>2022-11-01T15:44:20.0000000+00:00</time></trkpt><trkpt lat="39.50340657" lon="-0.4326715"><ele>63.4</ele><time>2022-11-01T15:44:21.0000000+00:00</time></trkpt><trkpt lat="39.50335091" lon="-0.43266496"><ele>63.4</ele><time>2022-11-01T15:44:22.0000000+00:00</time></trkpt><trkpt lat="39.50329718" lon="-0.43266278"><ele>63.4</ele><time>2022-11-01T15:44:23.0000000+00:00</time></trkpt><trkpt lat="39.50324513" lon="-0.43266194"><ele>63.2</ele><time>2022-11-01T15:44:24.0000000+00:00</time></trkpt><trkpt lat="39.50318763" lon="-0.43265456"><ele>63.2</ele><time>2022-11-01T15:44:25.0000000+00:00</time></trkpt><trkpt lat="39.5031277" lon="-0.43264987"><ele>63.2</ele><time>2022-11-01T15:44:26.0000000+00:00</time></trkpt><trkpt lat="39.50306861" lon="-0.43264585"><ele>63.2</ele><time>2022-11-01T15:44:27.0000000+00:00</time></trkpt><trkpt lat="39.50300943" lon="-0.4326435"><ele>63.2</ele><time>2022-11-01T15:44:28.0000000+00:00</time></trkpt><trkpt lat="39.50295311" lon="-0.43264266"><ele>63.2</ele><time>2022-11-01T15:44:29.0000000+00:00</time></trkpt><trkpt lat="39.50289292" lon="-0.43264073"><ele>63.2</ele><time>2022-11-01T15:44:30.0000000+00:00</time></trkpt><trkpt lat="39.50283056" lon="-0.43263202"><ele>63.2</ele><time>2022-11-01T15:44:31.0000000+00:00</time></trkpt><trkpt lat="39.50276795" lon="-0.43262213"><ele>63.2</ele><time>2022-11-01T15:44:32.0000000+00:00</time></trkpt><trkpt lat="39.50270877" lon="-0.43261458"><ele>63.2</ele><time>2022-11-01T15:44:33.0000000+00:00</time></trkpt><trkpt lat="39.50265312" lon="-0.43261207"><ele>63.2</ele><time>2022-11-01T15:44:34.0000000+00:00</time></trkpt><trkpt lat="39.50259897" lon="-0.43260737"><ele>63.2</ele><time>2022-11-01T15:44:35.0000000+00:00</time></trkpt><trkpt lat="39.50254507" lon="-0.43260293"><ele>63.2</ele><time>2022-11-01T15:44:36.0000000+00:00</time></trkpt><trkpt lat="39.50249285" lon="-0.43259857"><ele>63.2</ele><time>2022-11-01T15:44:37.0000000+00:00</time></trkpt><trkpt lat="39.50244189" lon="-0.43259547"><ele>63.2</ele><time>2022-11-01T15:44:38.0000000+00:00</time></trkpt><trkpt lat="39.50239286" lon="-0.43259053"><ele>63.2</ele><time>2022-11-01T15:44:39.0000000+00:00</time></trkpt><trkpt lat="39.50234659" lon="-0.43258709"><ele>63.2</ele><time>2022-11-01T15:44:40.0000000+00:00</time></trkpt><trkpt lat="39.50229337" lon="-0.43257955"><ele>63.2</ele><time>2022-11-01T15:44:41.0000000+00:00</time></trkpt><trkpt lat="39.50223754" lon="-0.43257116"><ele>63.4</ele><time>2022-11-01T15:44:42.0000000+00:00</time></trkpt><trkpt lat="39.50218096" lon="-0.43256396"><ele>63.4</ele><time>2022-11-01T15:44:43.0000000+00:00</time></trkpt><trkpt lat="39.50212539" lon="-0.43255859"><ele>63.4</ele><time>2022-11-01T15:44:44.0000000+00:00</time></trkpt><trkpt lat="39.50207192" lon="-0.43255482"><ele>63.6</ele><time>2022-11-01T15:44:45.0000000+00:00</time></trkpt><trkpt lat="39.50202623" lon="-0.43255323"><ele>63.6</ele><time>2022-11-01T15:44:46.0000000+00:00</time></trkpt><trkpt lat="39.50198206" lon="-0.43254518"><ele>63.6</ele><time>2022-11-01T15:44:47.0000000+00:00</time></trkpt><trkpt lat="39.50194208" lon="-0.43253495"><ele>63.6</ele><time>2022-11-01T15:44:48.0000000+00:00</time></trkpt><trkpt lat="39.50190671" lon="-0.43251844"><ele>63.6</ele><time>2022-11-01T15:44:49.0000000+00:00</time></trkpt><trkpt lat="39.50187486" lon="-0.4324995"><ele>63.6</ele><time>2022-11-01T15:44:50.0000000+00:00</time></trkpt><trkpt lat="39.50184904" lon="-0.43248039"><ele>63.6</ele><time>2022-11-01T15:44:51.0000000+00:00</time></trkpt><trkpt lat="39.50182004" lon="-0.43246103"><ele>63.6</ele><time>2022-11-01T15:44:52.0000000+00:00</time></trkpt><trkpt lat="39.50178869" lon="-0.4324415"><ele>63.6</ele><time>2022-11-01T15:44:53.0000000+00:00</time></trkpt><trkpt lat="39.50175977" lon="-0.4324192"><ele>63.6</ele><time>2022-11-01T15:44:54.0000000+00:00</time></trkpt><trkpt lat="39.50173438" lon="-0.4323954"><ele>63.6</ele><time>2022-11-01T15:44:55.0000000+00:00</time></trkpt><trkpt lat="39.50171133" lon="-0.43237075"><ele>63.8</ele><time>2022-11-01T15:44:56.0000000+00:00</time></trkpt><trkpt lat="39.50168576" lon="-0.43233748"><ele>63.8</ele><time>2022-11-01T15:44:57.0000000+00:00</time></trkpt><trkpt lat="39.50166137" lon="-0.43230563"><ele>63.8</ele><time>2022-11-01T15:44:58.0000000+00:00</time></trkpt><trkpt lat="39.50163983" lon="-0.43226992"><ele>63.8</ele><time>2022-11-01T15:44:59.0000000+00:00</time></trkpt><trkpt lat="39.50161443" lon="-0.43222725"><ele>63.8</ele><time>2022-11-01T15:45:00.0000000+00:00</time></trkpt><trkpt lat="39.50158962" lon="-0.43218258"><ele>63.8</ele><time>2022-11-01T15:45:01.0000000+00:00</time></trkpt><trkpt lat="39.50156758" lon="-0.43213581"><ele>63.8</ele><time>2022-11-01T15:45:02.0000000+00:00</time></trkpt><trkpt lat="39.50154671" lon="-0.43209306"><ele>64.0</ele><time>2022-11-01T15:45:03.0000000+00:00</time></trkpt><trkpt lat="39.50153103" lon="-0.43205786"><ele>64.0</ele><time>2022-11-01T15:45:04.0000000+00:00</time></trkpt><trkpt lat="39.50150781" lon="-0.4320084"><ele>64.0</ele><time>2022-11-01T15:45:05.0000000+00:00</time></trkpt><trkpt lat="39.5014887" lon="-0.43197211"><ele>64.2</ele><time>2022-11-01T15:45:06.0000000+00:00</time></trkpt><trkpt lat="39.50147001" lon="-0.43193297"><ele>64.0</ele><time>2022-11-01T15:45:07.0000000+00:00</time></trkpt><trkpt lat="39.50145031" lon="-0.43189273"><ele>64.0</ele><time>2022-11-01T15:45:08.0000000+00:00</time></trkpt><trkpt lat="39.50143062" lon="-0.43185367"><ele>63.8</ele><time>2022-11-01T15:45:09.0000000+00:00</time></trkpt><trkpt lat="39.50140949" lon="-0.4318183"><ele>63.6</ele><time>2022-11-01T15:45:10.0000000+00:00</time></trkpt><trkpt lat="39.5013841" lon="-0.43178611"><ele>63.4</ele><time>2022-11-01T15:45:11.0000000+00:00</time></trkpt><trkpt lat="39.50136381" lon="-0.4317629"><ele>63.4</ele><time>2022-11-01T15:45:12.0000000+00:00</time></trkpt><trkpt lat="39.50134386" lon="-0.43174379"><ele>63.4</ele><time>2022-11-01T15:45:13.0000000+00:00</time></trkpt><trkpt lat="39.50132174" lon="-0.4317292"><ele>63.4</ele><time>2022-11-01T15:45:14.0000000+00:00</time></trkpt><trkpt lat="39.50129248" lon="-0.43171621"><ele>63.4</ele><time>2022-11-01T15:45:15.0000000+00:00</time></trkpt><trkpt lat="39.50125895" lon="-0.43170473"><ele>63.6</ele><time>2022-11-01T15:45:16.0000000+00:00</time></trkpt><trkpt lat="39.50121872" lon="-0.43168813"><ele>63.6</ele><time>2022-11-01T15:45:17.0000000+00:00</time></trkpt><trkpt lat="39.50117698" lon="-0.43166013"><ele>63.6</ele><time>2022-11-01T15:45:18.0000000+00:00</time></trkpt><trkpt lat="39.50113893" lon="-0.43162426"><ele>63.6</ele><time>2022-11-01T15:45:19.0000000+00:00</time></trkpt><trkpt lat="39.50110322" lon="-0.43158772"><ele>63.6</ele><time>2022-11-01T15:45:20.0000000+00:00</time></trkpt><trkpt lat="39.5010686" lon="-0.43154991"><ele>63.4</ele><time>2022-11-01T15:45:21.0000000+00:00</time></trkpt><trkpt lat="39.50103507" lon="-0.431508"><ele>63.4</ele><time>2022-11-01T15:45:22.0000000+00:00</time></trkpt><trkpt lat="39.50100188" lon="-0.43145847"><ele>63.6</ele><time>2022-11-01T15:45:23.0000000+00:00</time></trkpt><trkpt lat="39.50096634" lon="-0.43141102"><ele>63.6</ele><time>2022-11-01T15:45:24.0000000+00:00</time></trkpt><trkpt lat="39.50092913" lon="-0.4313718"><ele>63.6</ele><time>2022-11-01T15:45:25.0000000+00:00</time></trkpt><trkpt lat="39.50088345" lon="-0.43133584"><ele>63.6</ele><time>2022-11-01T15:45:26.0000000+00:00</time></trkpt><trkpt lat="39.50083198" lon="-0.43131053"><ele>63.8</ele><time>2022-11-01T15:45:27.0000000+00:00</time></trkpt><trkpt lat="39.50077674" lon="-0.43129929"><ele>63.8</ele><time>2022-11-01T15:45:28.0000000+00:00</time></trkpt><trkpt lat="39.500721" lon="-0.43129544"><ele>63.6</ele><time>2022-11-01T15:45:29.0000000+00:00</time></trkpt><trkpt lat="39.50066401" lon="-0.43129753"><ele>63.6</ele><time>2022-11-01T15:45:30.0000000+00:00</time></trkpt><trkpt lat="39.50060441" lon="-0.43130231"><ele>63.4</ele><time>2022-11-01T15:45:31.0000000+00:00</time></trkpt><trkpt lat="39.50054021" lon="-0.4313039"><ele>63.2</ele><time>2022-11-01T15:45:32.0000000+00:00</time></trkpt><trkpt lat="39.5004703" lon="-0.43130105"><ele>63.0</ele><time>2022-11-01T15:45:33.0000000+00:00</time></trkpt><trkpt lat="39.5004004" lon="-0.43130139"><ele>62.8</ele><time>2022-11-01T15:45:34.0000000+00:00</time></trkpt><trkpt lat="39.50032697" lon="-0.43129779"><ele>62.2</ele><time>2022-11-01T15:45:35.0000000+00:00</time></trkpt><trkpt lat="39.50024944" lon="-0.43128597"><ele>62.0</ele><time>2022-11-01T15:45:36.0000000+00:00</time></trkpt><trkpt lat="39.50016847" lon="-0.43126904"><ele>61.0</ele><time>2022-11-01T15:45:37.0000000+00:00</time></trkpt><trkpt lat="39.50008733" lon="-0.43124439"><ele>60.6</ele><time>2022-11-01T15:45:38.0000000+00:00</time></trkpt><trkpt lat="39.50000284" lon="-0.43120617"><ele>60.2</ele><time>2022-11-01T15:45:39.0000000+00:00</time></trkpt><trkpt lat="39.49991827" lon="-0.43116761"><ele>60.0</ele><time>2022-11-01T15:45:40.0000000+00:00</time></trkpt><trkpt lat="39.49983235" lon="-0.43112654"><ele>59.8</ele><time>2022-11-01T15:45:41.0000000+00:00</time></trkpt><trkpt lat="39.49974468" lon="-0.43108178"><ele>59.6</ele><time>2022-11-01T15:45:42.0000000+00:00</time></trkpt><trkpt lat="39.49966556" lon="-0.4310506"><ele>59.2</ele><time>2022-11-01T15:45:43.0000000+00:00</time></trkpt><trkpt lat="39.49958568" lon="-0.43101615"><ele>59.0</ele><time>2022-11-01T15:45:44.0000000+00:00</time></trkpt><trkpt lat="39.49950923" lon="-0.43098196"><ele>58.8</ele><time>2022-11-01T15:45:45.0000000+00:00</time></trkpt><trkpt lat="39.49943053" lon="-0.43093929"><ele>58.8</ele><time>2022-11-01T15:45:46.0000000+00:00</time></trkpt><trkpt lat="39.49935802" lon="-0.43090786"><ele>58.6</ele><time>2022-11-01T15:45:47.0000000+00:00</time></trkpt><trkpt lat="39.49928711" lon="-0.43087802"><ele>58.6</ele><time>2022-11-01T15:45:48.0000000+00:00</time></trkpt><trkpt lat="39.49922073" lon="-0.43084525"><ele>58.6</ele><time>2022-11-01T15:45:49.0000000+00:00</time></trkpt><trkpt lat="39.49915803" lon="-0.43081675"><ele>58.6</ele><time>2022-11-01T15:45:50.0000000+00:00</time></trkpt><trkpt lat="39.49909307" lon="-0.43079102"><ele>58.4</ele><time>2022-11-01T15:45:51.0000000+00:00</time></trkpt><trkpt lat="39.49902996" lon="-0.43077383"><ele>58.4</ele><time>2022-11-01T15:45:52.0000000+00:00</time></trkpt><trkpt lat="39.49896198" lon="-0.43075179"><ele>58.4</ele><time>2022-11-01T15:45:53.0000000+00:00</time></trkpt><trkpt lat="39.49890188" lon="-0.43072756"><ele>58.4</ele><time>2022-11-01T15:45:54.0000000+00:00</time></trkpt><trkpt lat="39.4988427" lon="-0.43070049"><ele>58.4</ele><time>2022-11-01T15:45:55.0000000+00:00</time></trkpt><trkpt lat="39.49878244" lon="-0.43067551"><ele>58.6</ele><time>2022-11-01T15:45:56.0000000+00:00</time></trkpt><trkpt lat="39.49872402" lon="-0.43065137"><ele>58.6</ele><time>2022-11-01T15:45:57.0000000+00:00</time></trkpt><trkpt lat="39.49866585" lon="-0.43062229"><ele>58.6</ele><time>2022-11-01T15:45:58.0000000+00:00</time></trkpt><trkpt lat="39.49860977" lon="-0.43059488"><ele>58.6</ele><time>2022-11-01T15:45:59.0000000+00:00</time></trkpt><trkpt lat="39.49855822" lon="-0.43057476"><ele>58.6</ele><time>2022-11-01T15:46:00.0000000+00:00</time></trkpt><trkpt lat="39.49850651" lon="-0.43055465"><ele>58.6</ele><time>2022-11-01T15:46:01.0000000+00:00</time></trkpt><trkpt lat="39.49845613" lon="-0.43052657"><ele>58.6</ele><time>2022-11-01T15:46:02.0000000+00:00</time></trkpt><trkpt lat="39.49840995" lon="-0.43050461"><ele>58.8</ele><time>2022-11-01T15:46:03.0000000+00:00</time></trkpt><trkpt lat="39.49836896" lon="-0.43048985"><ele>58.8</ele><time>2022-11-01T15:46:04.0000000+00:00</time></trkpt><trkpt lat="39.49832873" lon="-0.43047493"><ele>58.8</ele><time>2022-11-01T15:46:05.0000000+00:00</time></trkpt><trkpt lat="39.49828765" lon="-0.43046186"><ele>59.0</ele><time>2022-11-01T15:46:06.0000000+00:00</time></trkpt><trkpt lat="39.49824164" lon="-0.43045515"><ele>59.2</ele><time>2022-11-01T15:46:07.0000000+00:00</time></trkpt><trkpt lat="39.49819679" lon="-0.43045834"><ele>59.4</ele><time>2022-11-01T15:46:08.0000000+00:00</time></trkpt><trkpt lat="39.49815824" lon="-0.43046027"><ele>59.6</ele><time>2022-11-01T15:46:09.0000000+00:00</time></trkpt><trkpt lat="39.49812077" lon="-0.43045264"><ele>59.8</ele><time>2022-11-01T15:46:10.0000000+00:00</time></trkpt><trkpt lat="39.49808565" lon="-0.43043311"><ele>60.0</ele><time>2022-11-01T15:46:11.0000000+00:00</time></trkpt><trkpt lat="39.4980481" lon="-0.43039992"><ele>59.8</ele><time>2022-11-01T15:46:12.0000000+00:00</time></trkpt><trkpt lat="39.49802245" lon="-0.43035449"><ele>59.8</ele><time>2022-11-01T15:46:13.0000000+00:00</time></trkpt><trkpt lat="39.4980082" lon="-0.43029724"><ele>60.0</ele><time>2022-11-01T15:46:14.0000000+00:00</time></trkpt><trkpt lat="39.49799831" lon="-0.43023982"><ele>60.2</ele><time>2022-11-01T15:46:15.0000000+00:00</time></trkpt><trkpt lat="39.49800191" lon="-0.43018333"><ele>60.2</ele><time>2022-11-01T15:46:16.0000000+00:00</time></trkpt><trkpt lat="39.4980103" lon="-0.43012164"><ele>60.0</ele><time>2022-11-01T15:46:17.0000000+00:00</time></trkpt><trkpt lat="39.49801667" lon="-0.4300524"><ele>59.8</ele><time>2022-11-01T15:46:18.0000000+00:00</time></trkpt><trkpt lat="39.49801013" lon="-0.42998384"><ele>59.8</ele><time>2022-11-01T15:46:19.0000000+00:00</time></trkpt><trkpt lat="39.49800225" lon="-0.42991603"><ele>59.4</ele><time>2022-11-01T15:46:20.0000000+00:00</time></trkpt><trkpt lat="39.49799378" lon="-0.4298442"><ele>59.0</ele><time>2022-11-01T15:46:21.0000000+00:00</time></trkpt><trkpt lat="39.49798783" lon="-0.42976691"><ele>58.8</ele><time>2022-11-01T15:46:22.0000000+00:00</time></trkpt><trkpt lat="39.49798792" lon="-0.42968829"><ele>58.6</ele><time>2022-11-01T15:46:23.0000000+00:00</time></trkpt><trkpt lat="39.49798934" lon="-0.42960724"><ele>58.2</ele><time>2022-11-01T15:46:24.0000000+00:00</time></trkpt><trkpt lat="39.4979875" lon="-0.42953373"><ele>58.0</ele><time>2022-11-01T15:46:25.0000000+00:00</time></trkpt><trkpt lat="39.49798549" lon="-0.42946609"><ele>57.8</ele><time>2022-11-01T15:46:26.0000000+00:00</time></trkpt><trkpt lat="39.49798398" lon="-0.42940021"><ele>57.8</ele><time>2022-11-01T15:46:27.0000000+00:00</time></trkpt><trkpt lat="39.49798213" lon="-0.42933734"><ele>57.8</ele><time>2022-11-01T15:46:28.0000000+00:00</time></trkpt><trkpt lat="39.49798146" lon="-0.42927599"><ele>57.8</ele><time>2022-11-01T15:46:29.0000000+00:00</time></trkpt><trkpt lat="39.49798297" lon="-0.42921748"><ele>57.6</ele><time>2022-11-01T15:46:30.0000000+00:00</time></trkpt><trkpt lat="39.49798197" lon="-0.42916065"><ele>57.6</ele><time>2022-11-01T15:46:31.0000000+00:00</time></trkpt><trkpt lat="39.49798121" lon="-0.42910483"><ele>57.8</ele><time>2022-11-01T15:46:32.0000000+00:00</time></trkpt><trkpt lat="39.49798104" lon="-0.42904691"><ele>57.8</ele><time>2022-11-01T15:46:33.0000000+00:00</time></trkpt><trkpt lat="39.49797794" lon="-0.42898572"><ele>57.8</ele><time>2022-11-01T15:46:34.0000000+00:00</time></trkpt><trkpt lat="39.49797459" lon="-0.42892319"><ele>57.8</ele><time>2022-11-01T15:46:35.0000000+00:00</time></trkpt><trkpt lat="39.49797275" lon="-0.42885874"><ele>57.8</ele><time>2022-11-01T15:46:36.0000000+00:00</time></trkpt><trkpt lat="39.49796948" lon="-0.42879981"><ele>57.8</ele><time>2022-11-01T15:46:37.0000000+00:00</time></trkpt><trkpt lat="39.49796101" lon="-0.4287574"><ele>57.8</ele><time>2022-11-01T15:46:38.0000000+00:00</time></trkpt><trkpt lat="39.49794324" lon="-0.42870996"><ele>57.8</ele><time>2022-11-01T15:46:39.0000000+00:00</time></trkpt><trkpt lat="39.49791893" lon="-0.42866645"><ele>57.8</ele><time>2022-11-01T15:46:40.0000000+00:00</time></trkpt><trkpt lat="39.49789002" lon="-0.42862211"><ele>57.8</ele><time>2022-11-01T15:46:41.0000000+00:00</time></trkpt><trkpt lat="39.49786152" lon="-0.42858054"><ele>57.8</ele><time>2022-11-01T15:46:42.0000000+00:00</time></trkpt><trkpt lat="39.49783512" lon="-0.42854752"><ele>57.8</ele><time>2022-11-01T15:46:43.0000000+00:00</time></trkpt><trkpt lat="39.49781793" lon="-0.42852799"><ele>57.8</ele><time>2022-11-01T15:46:44.0000000+00:00</time></trkpt><trkpt lat="39.4978088" lon="-0.42851793"><ele>57.6</ele><time>2022-11-01T15:46:45.0000000+00:00</time></trkpt><trkpt lat="39.49780067" lon="-0.42851038"><ele>57.6</ele><time>2022-11-01T15:46:46.0000000+00:00</time></trkpt><trkpt lat="39.49779052" lon="-0.42850284"><ele>57.6</ele><time>2022-11-01T15:46:47.0000000+00:00</time></trkpt><trkpt lat="39.49777661" lon="-0.42849395"><ele>57.6</ele><time>2022-11-01T15:46:48.0000000+00:00</time></trkpt><trkpt lat="39.49775725" lon="-0.42848323"><ele>57.6</ele><time>2022-11-01T15:46:49.0000000+00:00</time></trkpt><trkpt lat="39.49773361" lon="-0.42847208"><ele>57.8</ele><time>2022-11-01T15:46:50.0000000+00:00</time></trkpt><trkpt lat="39.4977062" lon="-0.42845942"><ele>58.0</ele><time>2022-11-01T15:46:51.0000000+00:00</time></trkpt><trkpt lat="39.49767611" lon="-0.4284466"><ele>58.0</ele><time>2022-11-01T15:46:52.0000000+00:00</time></trkpt><trkpt lat="39.49764778" lon="-0.4284331"><ele>58.2</ele><time>2022-11-01T15:46:53.0000000+00:00</time></trkpt><trkpt lat="39.49762096" lon="-0.428416"><ele>58.2</ele><time>2022-11-01T15:46:54.0000000+00:00</time></trkpt><trkpt lat="39.49759631" lon="-0.42839664"><ele>58.4</ele><time>2022-11-01T15:46:55.0000000+00:00</time></trkpt><trkpt lat="39.49757217" lon="-0.42837485"><ele>58.6</ele><time>2022-11-01T15:46:56.0000000+00:00</time></trkpt><trkpt lat="39.49754946" lon="-0.42835549"><ele>58.8</ele><time>2022-11-01T15:46:57.0000000+00:00</time></trkpt><trkpt lat="39.49752683" lon="-0.42833671"><ele>59.2</ele><time>2022-11-01T15:46:58.0000000+00:00</time></trkpt><trkpt lat="39.49750034" lon="-0.42831156"><ele>59.4</ele><time>2022-11-01T15:46:59.0000000+00:00</time></trkpt><trkpt lat="39.49747955" lon="-0.42829128"><ele>59.6</ele><time>2022-11-01T15:47:00.0000000+00:00</time></trkpt><trkpt lat="39.49746346" lon="-0.42827074"><ele>59.8</ele><time>2022-11-01T15:47:01.0000000+00:00</time></trkpt><trkpt lat="39.49745022" lon="-0.42825105"><ele>59.8</ele><time>2022-11-01T15:47:02.0000000+00:00</time></trkpt><trkpt lat="39.49743706" lon="-0.42822925"><ele>59.8</ele><time>2022-11-01T15:47:03.0000000+00:00</time></trkpt><trkpt lat="39.49742063" lon="-0.42820746"><ele>60.0</ele><time>2022-11-01T15:47:04.0000000+00:00</time></trkpt><trkpt lat="39.49740345" lon="-0.42818466"><ele>60.2</ele><time>2022-11-01T15:47:05.0000000+00:00</time></trkpt><trkpt lat="39.49738828" lon="-0.42816304"><ele>60.6</ele><time>2022-11-01T15:47:06.0000000+00:00</time></trkpt><trkpt lat="39.49737084" lon="-0.42814007"><ele>60.6</ele><time>2022-11-01T15:47:07.0000000+00:00</time></trkpt><trkpt lat="39.49735517" lon="-0.42811811"><ele>60.8</ele><time>2022-11-01T15:47:08.0000000+00:00</time></trkpt><trkpt lat="39.49733731" lon="-0.42809841"><ele>61.0</ele><time>2022-11-01T15:47:09.0000000+00:00</time></trkpt><trkpt lat="39.49731661" lon="-0.42807863"><ele>61.0</ele><time>2022-11-01T15:47:10.0000000+00:00</time></trkpt><trkpt lat="39.49729691" lon="-0.42805743"><ele>61.0</ele><time>2022-11-01T15:47:11.0000000+00:00</time></trkpt><trkpt lat="39.49727772" lon="-0.42803781"><ele>61.2</ele><time>2022-11-01T15:47:12.0000000+00:00</time></trkpt><trkpt lat="39.4972571" lon="-0.42801728"><ele>61.4</ele><time>2022-11-01T15:47:13.0000000+00:00</time></trkpt><trkpt lat="39.49723464" lon="-0.42799749"><ele>61.6</ele><time>2022-11-01T15:47:14.0000000+00:00</time></trkpt><trkpt lat="39.49721251" lon="-0.4279783"><ele>61.8</ele><time>2022-11-01T15:47:15.0000000+00:00</time></trkpt><trkpt lat="39.49718988" lon="-0.42795626"><ele>62.0</ele><time>2022-11-01T15:47:16.0000000+00:00</time></trkpt><trkpt lat="39.49716725" lon="-0.42793522"><ele>62.0</ele><time>2022-11-01T15:47:17.0000000+00:00</time></trkpt><trkpt lat="39.49714604" lon="-0.42791359"><ele>62.2</ele><time>2022-11-01T15:47:18.0000000+00:00</time></trkpt><trkpt lat="39.49712416" lon="-0.4278944"><ele>62.2</ele><time>2022-11-01T15:47:19.0000000+00:00</time></trkpt><trkpt lat="39.4971012" lon="-0.42787344"><ele>62.4</ele><time>2022-11-01T15:47:20.0000000+00:00</time></trkpt><trkpt lat="39.49707873" lon="-0.42785098"><ele>62.4</ele><time>2022-11-01T15:47:21.0000000+00:00</time></trkpt><trkpt lat="39.4970556" lon="-0.42783028"><ele>62.6</ele><time>2022-11-01T15:47:22.0000000+00:00</time></trkpt><trkpt lat="39.49703154" lon="-0.42780748"><ele>62.8</ele><time>2022-11-01T15:47:23.0000000+00:00</time></trkpt><trkpt lat="39.49700799" lon="-0.42778258"><ele>63.0</ele><time>2022-11-01T15:47:24.0000000+00:00</time></trkpt><trkpt lat="39.49698603" lon="-0.4277597"><ele>63.0</ele><time>2022-11-01T15:47:25.0000000+00:00</time></trkpt><trkpt lat="39.49696331" lon="-0.42773883"><ele>63.0</ele><time>2022-11-01T15:47:26.0000000+00:00</time></trkpt><trkpt lat="39.49694647" lon="-0.42772207"><ele>63.2</ele><time>2022-11-01T15:47:27.0000000+00:00</time></trkpt><trkpt lat="39.49692442" lon="-0.42769994"><ele>63.2</ele><time>2022-11-01T15:47:28.0000000+00:00</time></trkpt><trkpt lat="39.49690221" lon="-0.42767957"><ele>63.4</ele><time>2022-11-01T15:47:29.0000000+00:00</time></trkpt><trkpt lat="39.49687732" lon="-0.4276582"><ele>63.4</ele><time>2022-11-01T15:47:30.0000000+00:00</time></trkpt><trkpt lat="39.49685049" lon="-0.42763355"><ele>63.6</ele><time>2022-11-01T15:47:31.0000000+00:00</time></trkpt><trkpt lat="39.49682904" lon="-0.42761738"><ele>63.6</ele><time>2022-11-01T15:47:32.0000000+00:00</time></trkpt><trkpt lat="39.49681009" lon="-0.42759885"><ele>63.6</ele><time>2022-11-01T15:47:33.0000000+00:00</time></trkpt><trkpt lat="39.49679618" lon="-0.42758728"><ele>63.6</ele><time>2022-11-01T15:47:34.0000000+00:00</time></trkpt><trkpt lat="39.49678956" lon="-0.42758108"><ele>63.6</ele><time>2022-11-01T15:47:35.0000000+00:00</time></trkpt><trkpt lat="39.49678956" lon="-0.42758108"><ele>63.6</ele><time>2022-11-01T15:47:36.0000000+00:00</time></trkpt><trkpt lat="39.49678956" lon="-0.42758108"><ele>63.6</ele><time>2022-11-01T15:47:37.0000000+00:00</time></trkpt><trkpt lat="39.49678956" lon="-0.42758108"><ele>63.6</ele><time>2022-11-01T15:47:38.0000000+00:00</time></trkpt><trkpt lat="39.49678956" lon="-0.42758108"><ele>63.6</ele><time>2022-11-01T15:47:39.0000000+00:00</time></trkpt><trkpt lat="39.49678956" lon="-0.42758108"><ele>63.6</ele><time>2022-11-01T15:47:40.0000000+00:00</time></trkpt><trkpt lat="39.49678956" lon="-0.42758108"><ele>63.6</ele><time>2022-11-01T15:47:41.0000000+00:00</time></trkpt><trkpt lat="39.49678956" lon="-0.42758108"><ele>63.6</ele><time>2022-11-01T15:47:42.0000000+00:00</time></trkpt><trkpt lat="39.49678956" lon="-0.42758108"><ele>63.6</ele><time>2022-11-01T15:47:43.0000000+00:00</time></trkpt><trkpt lat="39.49678956" lon="-0.42758108"><ele>63.6</ele><time>2022-11-01T15:47:44.0000000+00:00</time></trkpt><trkpt lat="39.49678956" lon="-0.42758108"><ele>63.6</ele><time>2022-11-01T15:47:45.0000000+00:00</time></trkpt><trkpt lat="39.49678956" lon="-0.42758108"><ele>63.6</ele><time>2022-11-01T15:47:46.0000000+00:00</time></trkpt><trkpt lat="39.49678956" lon="-0.42758108"><ele>63.6</ele><time>2022-11-01T15:47:47.0000000+00:00</time></trkpt><trkpt lat="39.49678956" lon="-0.42758108"><ele>63.4</ele><time>2022-11-01T15:47:48.0000000+00:00</time></trkpt><trkpt lat="39.49678956" lon="-0.42758108"><ele>63.4</ele><time>2022-11-01T15:47:49.0000000+00:00</time></trkpt><trkpt lat="39.49678956" lon="-0.42758108"><ele>63.4</ele><time>2022-11-01T15:47:50.0000000+00:00</time></trkpt><trkpt lat="39.49678956" lon="-0.42758108"><ele>63.4</ele><time>2022-11-01T15:47:51.0000000+00:00</time></trkpt><trkpt lat="39.49678956" lon="-0.42758108"><ele>63.4</ele><time>2022-11-01T15:47:52.0000000+00:00</time></trkpt><trkpt lat="39.49678956" lon="-0.42758108"><ele>63.4</ele><time>2022-11-01T15:47:53.0000000+00:00</time></trkpt><trkpt lat="39.49678956" lon="-0.42758108"><ele>63.4</ele><time>2022-11-01T15:47:54.0000000+00:00</time></trkpt><trkpt lat="39.49678956" lon="-0.42758108"><ele>63.4</ele><time>2022-11-01T15:47:55.0000000+00:00</time></trkpt><trkpt lat="39.49678956" lon="-0.42758108"><ele>63.4</ele><time>2022-11-01T15:47:56.0000000+00:00</time></trkpt><trkpt lat="39.49678956" lon="-0.42758108"><ele>63.4</ele><time>2022-11-01T15:47:57.0000000+00:00</time></trkpt><trkpt lat="39.49678956" lon="-0.42758108"><ele>63.4</ele><time>2022-11-01T15:47:58.0000000+00:00</time></trkpt><trkpt lat="39.49678956" lon="-0.42758108"><ele>63.4</ele><time>2022-11-01T15:47:59.0000000+00:00</time></trkpt><trkpt lat="39.49678956" lon="-0.42758108"><ele>63.6</ele><time>2022-11-01T15:48:00.0000000+00:00</time></trkpt><trkpt lat="39.49678956" lon="-0.42758108"><ele>63.6</ele><time>2022-11-01T15:48:01.0000000+00:00</time></trkpt><trkpt lat="39.49678956" lon="-0.42758108"><ele>63.6</ele><time>2022-11-01T15:48:02.0000000+00:00</time></trkpt><trkpt lat="39.49678956" lon="-0.42758108"><ele>63.6</ele><time>2022-11-01T15:48:03.0000000+00:00</time></trkpt><trkpt lat="39.49678956" lon="-0.42758108"><ele>63.6</ele><time>2022-11-01T15:48:04.0000000+00:00</time></trkpt><trkpt lat="39.49678956" lon="-0.42758108"><ele>63.6</ele><time>2022-11-01T15:48:05.0000000+00:00</time></trkpt><trkpt lat="39.49678956" lon="-0.42758108"><ele>63.6</ele><time>2022-11-01T15:48:06.0000000+00:00</time></trkpt><trkpt lat="39.49678956" lon="-0.42758108"><ele>63.4</ele><time>2022-11-01T15:48:07.0000000+00:00</time></trkpt><trkpt lat="39.49678956" lon="-0.42758108"><ele>63.4</ele><time>2022-11-01T15:48:08.0000000+00:00</time></trkpt><trkpt lat="39.49678956" lon="-0.42758108"><ele>63.4</ele><time>2022-11-01T15:48:09.0000000+00:00</time></trkpt><trkpt lat="39.49678956" lon="-0.42758108"><ele>63.4</ele><time>2022-11-01T15:48:10.0000000+00:00</time></trkpt><trkpt lat="39.49678956" lon="-0.42758108"><ele>63.4</ele><time>2022-11-01T15:48:11.0000000+00:00</time></trkpt><trkpt lat="39.49678956" lon="-0.42758108"><ele>63.4</ele><time>2022-11-01T15:48:12.0000000+00:00</time></trkpt><trkpt lat="39.49678956" lon="-0.42758108"><ele>63.4</ele><time>2022-11-01T15:48:13.0000000+00:00</time></trkpt><trkpt lat="39.49678956" lon="-0.42758108"><ele>63.4</ele><time>2022-11-01T15:48:14.0000000+00:00</time></trkpt><trkpt lat="39.49678956" lon="-0.42758108"><ele>63.4</ele><time>2022-11-01T15:48:15.0000000+00:00</time></trkpt><trkpt lat="39.49678956" lon="-0.42758108"><ele>63.4</ele><time>2022-11-01T15:48:16.0000000+00:00</time></trkpt><trkpt lat="39.49678956" lon="-0.42758108"><ele>63.4</ele><time>2022-11-01T15:48:17.0000000+00:00</time></trkpt><trkpt lat="39.49678956" lon="-0.42758108"><ele>63.4</ele><time>2022-11-01T15:48:18.0000000+00:00</time></trkpt><trkpt lat="39.49678956" lon="-0.42758108"><ele>63.4</ele><time>2022-11-01T15:48:19.0000000+00:00</time></trkpt><trkpt lat="39.49678956" lon="-0.42758108"><ele>63.4</ele><time>2022-11-01T15:48:20.0000000+00:00</time></trkpt><trkpt lat="39.49678956" lon="-0.42758108"><ele>63.4</ele><time>2022-11-01T15:48:21.0000000+00:00</time></trkpt><trkpt lat="39.49678956" lon="-0.42758108"><ele>63.4</ele><time>2022-11-01T15:48:22.0000000+00:00</time></trkpt><trkpt lat="39.49678956" lon="-0.42758108"><ele>63.4</ele><time>2022-11-01T15:48:23.0000000+00:00</time></trkpt><trkpt lat="39.49678956" lon="-0.42758108"><ele>63.4</ele><time>2022-11-01T15:48:24.0000000+00:00</time></trkpt><trkpt lat="39.49678956" lon="-0.42758108"><ele>63.4</ele><time>2022-11-01T15:48:25.0000000+00:00</time></trkpt><trkpt lat="39.49678956" lon="-0.42758108"><ele>63.4</ele><time>2022-11-01T15:48:26.0000000+00:00</time></trkpt><trkpt lat="39.49678956" lon="-0.42758108"><ele>63.4</ele><time>2022-11-01T15:48:27.0000000+00:00</time></trkpt><trkpt lat="39.49678956" lon="-0.42758108"><ele>63.4</ele><time>2022-11-01T15:48:28.0000000+00:00</time></trkpt><trkpt lat="39.49678956" lon="-0.42758108"><ele>63.4</ele><time>2022-11-01T15:48:29.0000000+00:00</time></trkpt><trkpt lat="39.49678956" lon="-0.42758108"><ele>63.4</ele><time>2022-11-01T15:48:30.0000000+00:00</time></trkpt><trkpt lat="39.49678956" lon="-0.42758108"><ele>63.2</ele><time>2022-11-01T15:48:31.0000000+00:00</time></trkpt><trkpt lat="39.49678956" lon="-0.42758108"><ele>63.4</ele><time>2022-11-01T15:48:32.0000000+00:00</time></trkpt><trkpt lat="39.49678956" lon="-0.42758108"><ele>63.4</ele><time>2022-11-01T15:48:33.0000000+00:00</time></trkpt><trkpt lat="39.49678956" lon="-0.42758108"><ele>63.4</ele><time>2022-11-01T15:48:34.0000000+00:00</time></trkpt><trkpt lat="39.49678956" lon="-0.42758108"><ele>63.4</ele><time>2022-11-01T15:48:35.0000000+00:00</time></trkpt><trkpt lat="39.49678956" lon="-0.42758108"><ele>63.4</ele><time>2022-11-01T15:48:36.0000000+00:00</time></trkpt><trkpt lat="39.49678956" lon="-0.42758108"><ele>63.4</ele><time>2022-11-01T15:48:37.0000000+00:00</time></trkpt><trkpt lat="39.49678956" lon="-0.42758108"><ele>63.4</ele><time>2022-11-01T15:48:38.0000000+00:00</time></trkpt><trkpt lat="39.49678956" lon="-0.42758108"><ele>63.4</ele><time>2022-11-01T15:48:39.0000000+00:00</time></trkpt><trkpt lat="39.49678956" lon="-0.42758108"><ele>63.4</ele><time>2022-11-01T15:48:40.0000000+00:00</time></trkpt><trkpt lat="39.49678956" lon="-0.42758108"><ele>63.4</ele><time>2022-11-01T15:48:41.0000000+00:00</time></trkpt><trkpt lat="39.49678956" lon="-0.42758108"><ele>63.4</ele><time>2022-11-01T15:48:42.0000000+00:00</time></trkpt><trkpt lat="39.49678956" lon="-0.42758108"><ele>63.4</ele><time>2022-11-01T15:48:43.0000000+00:00</time></trkpt><trkpt lat="39.49678956" lon="-0.42758108"><ele>63.4</ele><time>2022-11-01T15:48:44.0000000+00:00</time></trkpt><trkpt lat="39.49678956" lon="-0.42758108"><ele>63.4</ele><time>2022-11-01T15:48:45.0000000+00:00</time></trkpt><trkpt lat="39.49678956" lon="-0.42758108"><ele>63.4</ele><time>2022-11-01T15:48:46.0000000+00:00</time></trkpt><trkpt lat="39.49678956" lon="-0.42758108"><ele>63.4</ele><time>2022-11-01T15:48:47.0000000+00:00</time></trkpt><trkpt lat="39.49678956" lon="-0.42758108"><ele>63.4</ele><time>2022-11-01T15:48:48.0000000+00:00</time></trkpt><trkpt lat="39.49678956" lon="-0.42758108"><ele>63.4</ele><time>2022-11-01T15:48:49.0000000+00:00</time></trkpt><trkpt lat="39.49678956" lon="-0.42758108"><ele>63.4</ele><time>2022-11-01T15:48:50.0000000+00:00</time></trkpt><trkpt lat="39.49678956" lon="-0.42758108"><ele>63.4</ele><time>2022-11-01T15:48:51.0000000+00:00</time></trkpt><trkpt lat="39.49678956" lon="-0.42758108"><ele>63.4</ele><time>2022-11-01T15:48:52.0000000+00:00</time></trkpt><trkpt lat="39.49678956" lon="-0.42758108"><ele>63.4</ele><time>2022-11-01T15:48:53.0000000+00:00</time></trkpt><trkpt lat="39.49678956" lon="-0.42758108"><ele>63.4</ele><time>2022-11-01T15:48:54.0000000+00:00</time></trkpt><trkpt lat="39.49678956" lon="-0.42758108"><ele>63.4</ele><time>2022-11-01T15:48:55.0000000+00:00</time></trkpt><trkpt lat="39.49678956" lon="-0.42758108"><ele>63.4</ele><time>2022-11-01T15:48:56.0000000+00:00</time></trkpt><trkpt lat="39.49678956" lon="-0.42758108"><ele>63.4</ele><time>2022-11-01T15:48:57.0000000+00:00</time></trkpt><trkpt lat="39.49678956" lon="-0.42758108"><ele>63.4</ele><time>2022-11-01T15:48:58.0000000+00:00</time></trkpt><trkpt lat="39.49678956" lon="-0.42758108"><ele>63.4</ele><time>2022-11-01T15:48:59.0000000+00:00</time></trkpt><trkpt lat="39.49678956" lon="-0.42758108"><ele>63.4</ele><time>2022-11-01T15:49:00.0000000+00:00</time></trkpt><trkpt lat="39.49678956" lon="-0.42758108"><ele>63.4</ele><time>2022-11-01T15:49:01.0000000+00:00</time></trkpt><trkpt lat="39.49678956" lon="-0.42758108"><ele>63.4</ele><time>2022-11-01T15:49:02.0000000+00:00</time></trkpt><trkpt lat="39.49678956" lon="-0.42758108"><ele>63.4</ele><time>2022-11-01T15:49:03.0000000+00:00</time></trkpt><trkpt lat="39.49678956" lon="-0.42758108"><ele>63.4</ele><time>2022-11-01T15:49:04.0000000+00:00</time></trkpt><trkpt lat="39.49678956" lon="-0.42758108"><ele>63.4</ele><time>2022-11-01T15:49:05.0000000+00:00</time></trkpt><trkpt lat="39.49678956" lon="-0.42758108"><ele>63.4</ele><time>2022-11-01T15:49:06.0000000+00:00</time></trkpt><trkpt lat="39.49678956" lon="-0.42758108"><ele>63.4</ele><time>2022-11-01T15:49:07.0000000+00:00</time></trkpt><trkpt lat="39.49678956" lon="-0.42758108"><ele>63.4</ele><time>2022-11-01T15:49:08.0000000+00:00</time></trkpt><trkpt lat="39.49678956" lon="-0.42758108"><ele>63.4</ele><time>2022-11-01T15:49:09.0000000+00:00</time></trkpt><trkpt lat="39.49678956" lon="-0.42758108"><ele>63.4</ele><time>2022-11-01T15:49:10.0000000+00:00</time></trkpt><trkpt lat="39.49678956" lon="-0.42758108"><ele>63.4</ele><time>2022-11-01T15:49:11.0000000+00:00</time></trkpt><trkpt lat="39.49678956" lon="-0.42758108"><ele>63.4</ele><time>2022-11-01T15:49:12.0000000+00:00</time></trkpt><trkpt lat="39.49678956" lon="-0.42758108"><ele>63.4</ele><time>2022-11-01T15:49:13.0000000+00:00</time></trkpt><trkpt lat="39.49678956" lon="-0.42758108"><ele>63.4</ele><time>2022-11-01T15:49:14.0000000+00:00</time></trkpt><trkpt lat="39.49678956" lon="-0.42758108"><ele>63.4</ele><time>2022-11-01T15:49:15.0000000+00:00</time></trkpt><trkpt lat="39.49678956" lon="-0.42758108"><ele>63.4</ele><time>2022-11-01T15:49:16.0000000+00:00</time></trkpt><trkpt lat="39.49678956" lon="-0.42757991"><ele>63.4</ele><time>2022-11-01T15:49:17.0000000+00:00</time></trkpt><trkpt lat="39.49678637" lon="-0.42757454"><ele>63.4</ele><time>2022-11-01T15:49:18.0000000+00:00</time></trkpt><trkpt lat="39.49677858" lon="-0.42756407"><ele>63.4</ele><time>2022-11-01T15:49:19.0000000+00:00</time></trkpt><trkpt lat="39.49676961" lon="-0.42755426"><ele>63.4</ele><time>2022-11-01T15:49:20.0000000+00:00</time></trkpt><trkpt lat="39.49675787" lon="-0.42754403"><ele>63.4</ele><time>2022-11-01T15:49:21.0000000+00:00</time></trkpt><trkpt lat="39.4967432" lon="-0.42753062"><ele>63.4</ele><time>2022-11-01T15:49:22.0000000+00:00</time></trkpt><trkpt lat="39.49672158" lon="-0.42751478"><ele>63.4</ele><time>2022-11-01T15:49:23.0000000+00:00</time></trkpt><trkpt lat="39.49670171" lon="-0.42749726"><ele>63.4</ele><time>2022-11-01T15:49:24.0000000+00:00</time></trkpt><trkpt lat="39.4966821" lon="-0.42747924"><ele>63.4</ele><time>2022-11-01T15:49:25.0000000+00:00</time></trkpt><trkpt lat="39.49665972" lon="-0.42745745"><ele>63.4</ele><time>2022-11-01T15:49:26.0000000+00:00</time></trkpt><trkpt lat="39.49663617" lon="-0.42743138"><ele>63.4</ele><time>2022-11-01T15:49:27.0000000+00:00</time></trkpt><trkpt lat="39.49661194" lon="-0.42740154"><ele>63.4</ele><time>2022-11-01T15:49:28.0000000+00:00</time></trkpt><trkpt lat="39.49658806" lon="-0.42737061"><ele>63.4</ele><time>2022-11-01T15:49:29.0000000+00:00</time></trkpt><trkpt lat="39.496564" lon="-0.42734094"><ele>63.4</ele><time>2022-11-01T15:49:30.0000000+00:00</time></trkpt><trkpt lat="39.49654053" lon="-0.42731035"><ele>63.4</ele><time>2022-11-01T15:49:31.0000000+00:00</time></trkpt><trkpt lat="39.49651983" lon="-0.42727917"><ele>63.4</ele><time>2022-11-01T15:49:32.0000000+00:00</time></trkpt><trkpt lat="39.49649904" lon="-0.42724866"><ele>63.4</ele><time>2022-11-01T15:49:33.0000000+00:00</time></trkpt><trkpt lat="39.49648219" lon="-0.42721446"><ele>63.2</ele><time>2022-11-01T15:49:34.0000000+00:00</time></trkpt><trkpt lat="39.49646509" lon="-0.42717724"><ele>63.0</ele><time>2022-11-01T15:49:35.0000000+00:00</time></trkpt><trkpt lat="39.49645017" lon="-0.42714547"><ele>63.0</ele><time>2022-11-01T15:49:36.0000000+00:00</time></trkpt><trkpt lat="39.49643098" lon="-0.42710549"><ele>62.8</ele><time>2022-11-01T15:49:37.0000000+00:00</time></trkpt><trkpt lat="39.49641028" lon="-0.4270547"><ele>62.8</ele><time>2022-11-01T15:49:38.0000000+00:00</time></trkpt><trkpt lat="39.4963941" lon="-0.42701044"><ele>62.8</ele><time>2022-11-01T15:49:39.0000000+00:00</time></trkpt><trkpt lat="39.49637918" lon="-0.42696308"><ele>62.6</ele><time>2022-11-01T15:49:40.0000000+00:00</time></trkpt><trkpt lat="39.49636728" lon="-0.42691874"><ele>62.6</ele><time>2022-11-01T15:49:41.0000000+00:00</time></trkpt><trkpt lat="39.49635521" lon="-0.4268713"><ele>62.4</ele><time>2022-11-01T15:49:42.0000000+00:00</time></trkpt><trkpt lat="39.49634515" lon="-0.4268216"><ele>62.2</ele><time>2022-11-01T15:49:43.0000000+00:00</time></trkpt><trkpt lat="39.49633685" lon="-0.42677005"><ele>62.2</ele><time>2022-11-01T15:49:44.0000000+00:00</time></trkpt><trkpt lat="39.49633216" lon="-0.42671624"><ele>62.0</ele><time>2022-11-01T15:49:45.0000000+00:00</time></trkpt><trkpt lat="39.49632679" lon="-0.42666201"><ele>62.0</ele><time>2022-11-01T15:49:46.0000000+00:00</time></trkpt><trkpt lat="39.49632235" lon="-0.42660526"><ele>61.8</ele><time>2022-11-01T15:49:47.0000000+00:00</time></trkpt><trkpt lat="39.49631824" lon="-0.426546"><ele>61.6</ele><time>2022-11-01T15:49:48.0000000+00:00</time></trkpt><trkpt lat="39.49631824" lon="-0.42648607"><ele>61.6</ele><time>2022-11-01T15:49:49.0000000+00:00</time></trkpt><trkpt lat="39.49632176" lon="-0.42642295"><ele>61.6</ele><time>2022-11-01T15:49:50.0000000+00:00</time></trkpt><trkpt lat="39.49632553" lon="-0.42635682"><ele>61.4</ele><time>2022-11-01T15:49:51.0000000+00:00</time></trkpt><trkpt lat="39.49632738" lon="-0.42629002"><ele>61.2</ele><time>2022-11-01T15:49:52.0000000+00:00</time></trkpt><trkpt lat="39.49633065" lon="-0.42622154"><ele>61.0</ele><time>2022-11-01T15:49:53.0000000+00:00</time></trkpt><trkpt lat="39.49633425" lon="-0.42615205"><ele>60.8</ele><time>2022-11-01T15:49:54.0000000+00:00</time></trkpt><trkpt lat="39.49633735" lon="-0.42608206"><ele>60.6</ele><time>2022-11-01T15:49:55.0000000+00:00</time></trkpt><trkpt lat="39.49634087" lon="-0.42600654"><ele>60.4</ele><time>2022-11-01T15:49:56.0000000+00:00</time></trkpt><trkpt lat="39.49634473" lon="-0.42592758"><ele>60.0</ele><time>2022-11-01T15:49:57.0000000+00:00</time></trkpt><trkpt lat="39.49634892" lon="-0.42584712"><ele>59.8</ele><time>2022-11-01T15:49:58.0000000+00:00</time></trkpt><trkpt lat="39.49635428" lon="-0.42576389"><ele>59.8</ele><time>2022-11-01T15:49:59.0000000+00:00</time></trkpt><trkpt lat="39.49635948" lon="-0.42567872"><ele>59.4</ele><time>2022-11-01T15:50:00.0000000+00:00</time></trkpt><trkpt lat="39.49636392" lon="-0.42559189"><ele>59.2</ele><time>2022-11-01T15:50:01.0000000+00:00</time></trkpt><trkpt lat="39.49636987" lon="-0.42550421"><ele>59.0</ele><time>2022-11-01T15:50:02.0000000+00:00</time></trkpt><trkpt lat="39.49637448" lon="-0.42543188"><ele>58.8</ele><time>2022-11-01T15:50:03.0000000+00:00</time></trkpt><trkpt lat="39.49637985" lon="-0.42532316"><ele>58.4</ele><time>2022-11-01T15:50:04.0000000+00:00</time></trkpt><trkpt lat="39.49638337" lon="-0.42523096"><ele>58.2</ele><time>2022-11-01T15:50:05.0000000+00:00</time></trkpt><trkpt lat="39.49638831" lon="-0.42513776"><ele>57.8</ele><time>2022-11-01T15:50:06.0000000+00:00</time></trkpt><trkpt lat="39.49639259" lon="-0.42504338"><ele>57.4</ele><time>2022-11-01T15:50:07.0000000+00:00</time></trkpt><trkpt lat="39.49639728" lon="-0.42494833"><ele>57.0</ele><time>2022-11-01T15:50:08.0000000+00:00</time></trkpt><trkpt lat="39.4964029" lon="-0.42485151"><ele>56.6</ele><time>2022-11-01T15:50:09.0000000+00:00</time></trkpt><trkpt lat="39.49640793" lon="-0.42475202"><ele>56.4</ele><time>2022-11-01T15:50:10.0000000+00:00</time></trkpt><trkpt lat="39.49640801" lon="-0.42465504"><ele>56.2</ele><time>2022-11-01T15:50:11.0000000+00:00</time></trkpt><trkpt lat="39.49640332" lon="-0.42455748"><ele>55.8</ele><time>2022-11-01T15:50:12.0000000+00:00</time></trkpt><trkpt lat="39.49639963" lon="-0.42446192"><ele>55.6</ele><time>2022-11-01T15:50:13.0000000+00:00</time></trkpt><trkpt lat="39.49640013" lon="-0.4243652"><ele>55.4</ele><time>2022-11-01T15:50:14.0000000+00:00</time></trkpt><trkpt lat="39.49640391" lon="-0.42426755"><ele>55.0</ele><time>2022-11-01T15:50:15.0000000+00:00</time></trkpt><trkpt lat="39.49640675" lon="-0.42416864"><ele>54.6</ele><time>2022-11-01T15:50:16.0000000+00:00</time></trkpt><trkpt lat="39.49641044" lon="-0.42407258"><ele>53.8</ele><time>2022-11-01T15:50:17.0000000+00:00</time></trkpt><trkpt lat="39.49641237" lon="-0.42397946"><ele>53.6</ele><time>2022-11-01T15:50:18.0000000+00:00</time></trkpt><trkpt lat="39.49641195" lon="-0.42390578"><ele>53.2</ele><time>2022-11-01T15:50:19.0000000+00:00</time></trkpt><trkpt lat="39.49641204" lon="-0.42381719"><ele>53.0</ele><time>2022-11-01T15:50:20.0000000+00:00</time></trkpt><trkpt lat="39.49641614" lon="-0.4237301"><ele>53.0</ele><time>2022-11-01T15:50:21.0000000+00:00</time></trkpt><trkpt lat="39.49642201" lon="-0.42364209"><ele>52.8</ele><time>2022-11-01T15:50:22.0000000+00:00</time></trkpt><trkpt lat="39.49643014" lon="-0.42353405"><ele>52.4</ele><time>2022-11-01T15:50:23.0000000+00:00</time></trkpt><trkpt lat="39.49643324" lon="-0.42344579"><ele>52.6</ele><time>2022-11-01T15:50:24.0000000+00:00</time></trkpt><trkpt lat="39.49643408" lon="-0.42335794"><ele>52.6</ele><time>2022-11-01T15:50:25.0000000+00:00</time></trkpt><trkpt lat="39.49643601" lon="-0.42327094"><ele>52.4</ele><time>2022-11-01T15:50:26.0000000+00:00</time></trkpt><trkpt lat="39.49643785" lon="-0.42318335"><ele>52.6</ele><time>2022-11-01T15:50:27.0000000+00:00</time></trkpt><trkpt lat="39.49644338" lon="-0.42309551"><ele>52.6</ele><time>2022-11-01T15:50:28.0000000+00:00</time></trkpt><trkpt lat="39.49645193" lon="-0.42300758"><ele>52.6</ele><time>2022-11-01T15:50:29.0000000+00:00</time></trkpt><trkpt lat="39.49646241" lon="-0.42292384"><ele>52.6</ele><time>2022-11-01T15:50:30.0000000+00:00</time></trkpt><trkpt lat="39.49647641" lon="-0.42284003"><ele>52.6</ele><time>2022-11-01T15:50:31.0000000+00:00</time></trkpt><trkpt lat="39.49649024" lon="-0.42275512"><ele>52.6</ele><time>2022-11-01T15:50:32.0000000+00:00</time></trkpt><trkpt lat="39.49649954" lon="-0.42267197"><ele>52.4</ele><time>2022-11-01T15:50:33.0000000+00:00</time></trkpt><trkpt lat="39.49650591" lon="-0.4225889"><ele>52.4</ele><time>2022-11-01T15:50:34.0000000+00:00</time></trkpt><trkpt lat="39.49650943" lon="-0.42250383"><ele>52.4</ele><time>2022-11-01T15:50:35.0000000+00:00</time></trkpt><trkpt lat="39.49651379" lon="-0.42242026"><ele>52.4</ele><time>2022-11-01T15:50:36.0000000+00:00</time></trkpt><trkpt lat="39.49651723" lon="-0.42233711"><ele>52.4</ele><time>2022-11-01T15:50:37.0000000+00:00</time></trkpt><trkpt lat="39.49652108" lon="-0.42225329"><ele>52.2</ele><time>2022-11-01T15:50:38.0000000+00:00</time></trkpt><trkpt lat="39.49652628" lon="-0.42217434"><ele>52.2</ele><time>2022-11-01T15:50:39.0000000+00:00</time></trkpt><trkpt lat="39.49653139" lon="-0.42209789"><ele>52.2</ele><time>2022-11-01T15:50:40.0000000+00:00</time></trkpt><trkpt lat="39.49653575" lon="-0.42202078"><ele>52.0</ele><time>2022-11-01T15:50:41.0000000+00:00</time></trkpt><trkpt lat="39.49654246" lon="-0.42194224"><ele>52.0</ele><time>2022-11-01T15:50:42.0000000+00:00</time></trkpt><trkpt lat="39.49654849" lon="-0.42186219"><ele>52.0</ele><time>2022-11-01T15:50:43.0000000+00:00</time></trkpt><trkpt lat="39.49655352" lon="-0.42178458"><ele>52.0</ele><time>2022-11-01T15:50:44.0000000+00:00</time></trkpt><trkpt lat="39.49655511" lon="-0.42170947"><ele>52.0</ele><time>2022-11-01T15:50:45.0000000+00:00</time></trkpt><trkpt lat="39.49655696" lon="-0.42163412"><ele>52.0</ele><time>2022-11-01T15:50:46.0000000+00:00</time></trkpt><trkpt lat="39.49656115" lon="-0.42156103"><ele>51.8</ele><time>2022-11-01T15:50:47.0000000+00:00</time></trkpt><trkpt lat="39.49656593" lon="-0.42148643"><ele>51.8</ele><time>2022-11-01T15:50:48.0000000+00:00</time></trkpt><trkpt lat="39.49657029" lon="-0.42141594"><ele>51.8</ele><time>2022-11-01T15:50:49.0000000+00:00</time></trkpt><trkpt lat="39.49657339" lon="-0.42134092"><ele>51.6</ele><time>2022-11-01T15:50:50.0000000+00:00</time></trkpt><trkpt lat="39.49657816" lon="-0.42126582"><ele>51.6</ele><time>2022-11-01T15:50:51.0000000+00:00</time></trkpt><trkpt lat="39.49658152" lon="-0.42119047"><ele>51.6</ele><time>2022-11-01T15:50:52.0000000+00:00</time></trkpt><trkpt lat="39.49658546" lon="-0.42111386"><ele>51.6</ele><time>2022-11-01T15:50:53.0000000+00:00</time></trkpt><trkpt lat="39.49658873" lon="-0.42103607"><ele>51.4</ele><time>2022-11-01T15:50:54.0000000+00:00</time></trkpt><trkpt lat="39.49659149" lon="-0.42095888"><ele>51.4</ele><time>2022-11-01T15:50:55.0000000+00:00</time></trkpt><trkpt lat="39.49659602" lon="-0.4208821"><ele>51.4</ele><time>2022-11-01T15:50:56.0000000+00:00</time></trkpt><trkpt lat="39.49660004" lon="-0.42080515"><ele>51.2</ele><time>2022-11-01T15:50:57.0000000+00:00</time></trkpt><trkpt lat="39.49660574" lon="-0.42072452"><ele>51.2</ele><time>2022-11-01T15:50:58.0000000+00:00</time></trkpt><trkpt lat="39.49661178" lon="-0.42064481"><ele>51.0</ele><time>2022-11-01T15:50:59.0000000+00:00</time></trkpt><trkpt lat="39.49661597" lon="-0.42056476"><ele>51.0</ele><time>2022-11-01T15:51:00.0000000+00:00</time></trkpt><trkpt lat="39.49661915" lon="-0.42048681"><ele>51.0</ele><time>2022-11-01T15:51:01.0000000+00:00</time></trkpt><trkpt lat="39.49662158" lon="-0.4204257"><ele>51.0</ele><time>2022-11-01T15:51:02.0000000+00:00</time></trkpt><trkpt lat="39.49662703" lon="-0.42034733"><ele>51.0</ele><time>2022-11-01T15:51:03.0000000+00:00</time></trkpt><trkpt lat="39.49663114" lon="-0.42026628"><ele>50.8</ele><time>2022-11-01T15:51:04.0000000+00:00</time></trkpt><trkpt lat="39.49663558" lon="-0.4201843"><ele>50.8</ele><time>2022-11-01T15:51:05.0000000+00:00</time></trkpt><trkpt lat="39.49663692" lon="-0.42008674"><ele>50.6</ele><time>2022-11-01T15:51:06.0000000+00:00</time></trkpt><trkpt lat="39.49663617" lon="-0.42000602"><ele>50.6</ele><time>2022-11-01T15:51:07.0000000+00:00</time></trkpt><trkpt lat="39.4966365" lon="-0.4199269"><ele>50.4</ele><time>2022-11-01T15:51:08.0000000+00:00</time></trkpt><trkpt lat="39.49663843" lon="-0.41984685"><ele>50.4</ele><time>2022-11-01T15:51:09.0000000+00:00</time></trkpt><trkpt lat="39.49664455" lon="-0.41976839"><ele>50.2</ele><time>2022-11-01T15:51:10.0000000+00:00</time></trkpt><trkpt lat="39.496651" lon="-0.41968977"><ele>50.2</ele><time>2022-11-01T15:51:11.0000000+00:00</time></trkpt><trkpt lat="39.49665511" lon="-0.41961735"><ele>50.2</ele><time>2022-11-01T15:51:12.0000000+00:00</time></trkpt><trkpt lat="39.49666089" lon="-0.41954678"><ele>50.2</ele><time>2022-11-01T15:51:13.0000000+00:00</time></trkpt><trkpt lat="39.49666609" lon="-0.41947478"><ele>50.2</ele><time>2022-11-01T15:51:14.0000000+00:00</time></trkpt><trkpt lat="39.4966681" lon="-0.41940579"><ele>50.2</ele><time>2022-11-01T15:51:15.0000000+00:00</time></trkpt><trkpt lat="39.49666911" lon="-0.41934134"><ele>50.0</ele><time>2022-11-01T15:51:16.0000000+00:00</time></trkpt><trkpt lat="39.49667322" lon="-0.41928208"><ele>50.0</ele><time>2022-11-01T15:51:17.0000000+00:00</time></trkpt><trkpt lat="39.49667581" lon="-0.41922994"><ele>50.0</ele><time>2022-11-01T15:51:18.0000000+00:00</time></trkpt><trkpt lat="39.4966826" lon="-0.41918962"><ele>49.8</ele><time>2022-11-01T15:51:19.0000000+00:00</time></trkpt><trkpt lat="39.49668763" lon="-0.41915165"><ele>49.6</ele><time>2022-11-01T15:51:20.0000000+00:00</time></trkpt><trkpt lat="39.49669006" lon="-0.41911511"><ele>49.6</ele><time>2022-11-01T15:51:21.0000000+00:00</time></trkpt><trkpt lat="39.49668805" lon="-0.41908242"><ele>49.6</ele><time>2022-11-01T15:51:22.0000000+00:00</time></trkpt><trkpt lat="39.49668462" lon="-0.419054"><ele>49.6</ele><time>2022-11-01T15:51:23.0000000+00:00</time></trkpt><trkpt lat="39.49668654" lon="-0.41902567"><ele>49.6</ele><time>2022-11-01T15:51:24.0000000+00:00</time></trkpt><trkpt lat="39.49667523" lon="-0.41899709"><ele>49.6</ele><time>2022-11-01T15:51:25.0000000+00:00</time></trkpt><trkpt lat="39.49665763" lon="-0.41896935"><ele>49.6</ele><time>2022-11-01T15:51:26.0000000+00:00</time></trkpt><trkpt lat="39.49663315" lon="-0.41894588"><ele>49.6</ele><time>2022-11-01T15:51:27.0000000+00:00</time></trkpt><trkpt lat="39.49661546" lon="-0.41892132"><ele>49.6</ele><time>2022-11-01T15:51:28.0000000+00:00</time></trkpt><trkpt lat="39.49659032" lon="-0.41890598"><ele>49.4</ele><time>2022-11-01T15:51:29.0000000+00:00</time></trkpt><trkpt lat="39.49656325" lon="-0.4189033"><ele>49.4</ele><time>2022-11-01T15:51:30.0000000+00:00</time></trkpt><trkpt lat="39.49653869" lon="-0.41890715"><ele>49.4</ele><time>2022-11-01T15:51:31.0000000+00:00</time></trkpt><trkpt lat="39.49651404" lon="-0.41891118"><ele>49.6</ele><time>2022-11-01T15:51:32.0000000+00:00</time></trkpt><trkpt lat="39.4964889" lon="-0.41891679"><ele>49.8</ele><time>2022-11-01T15:51:33.0000000+00:00</time></trkpt><trkpt lat="39.49646627" lon="-0.41892417"><ele>50.0</ele><time>2022-11-01T15:51:34.0000000+00:00</time></trkpt><trkpt lat="39.49644414" lon="-0.41893196"><ele>50.2</ele><time>2022-11-01T15:51:35.0000000+00:00</time></trkpt><trkpt lat="39.49642243" lon="-0.41893892"><ele>50.4</ele><time>2022-11-01T15:51:36.0000000+00:00</time></trkpt><trkpt lat="39.49640164" lon="-0.41894613"><ele>50.4</ele><time>2022-11-01T15:51:37.0000000+00:00</time></trkpt><trkpt lat="39.49638178" lon="-0.41895493"><ele>50.6</ele><time>2022-11-01T15:51:38.0000000+00:00</time></trkpt><trkpt lat="39.496363" lon="-0.41896348"><ele>50.8</ele><time>2022-11-01T15:51:39.0000000+00:00</time></trkpt><trkpt lat="39.49634523" lon="-0.41896692"><ele>51.0</ele><time>2022-11-01T15:51:40.0000000+00:00</time></trkpt><trkpt lat="39.49632604" lon="-0.41897186"><ele>51.2</ele><time>2022-11-01T15:51:41.0000000+00:00</time></trkpt><trkpt lat="39.49630659" lon="-0.41897488"><ele>51.4</ele><time>2022-11-01T15:51:42.0000000+00:00</time></trkpt><trkpt lat="39.49628488" lon="-0.41897873"><ele>51.6</ele><time>2022-11-01T15:51:43.0000000+00:00</time></trkpt><trkpt lat="39.49626359" lon="-0.41898276"><ele>51.6</ele><time>2022-11-01T15:51:44.0000000+00:00</time></trkpt><trkpt lat="39.49624473" lon="-0.4189841"><ele>51.8</ele><time>2022-11-01T15:51:45.0000000+00:00</time></trkpt><trkpt lat="39.49622185" lon="-0.41898418"><ele>52.0</ele><time>2022-11-01T15:51:46.0000000+00:00</time></trkpt><trkpt lat="39.49619302" lon="-0.41898402"><ele>52.0</ele><time>2022-11-01T15:51:47.0000000+00:00</time></trkpt><trkpt lat="39.49617139" lon="-0.4189898"><ele>52.0</ele><time>2022-11-01T15:51:48.0000000+00:00</time></trkpt><trkpt lat="39.49614482" lon="-0.41899516"><ele>52.2</ele><time>2022-11-01T15:51:49.0000000+00:00</time></trkpt><trkpt lat="39.49612227" lon="-0.41900246"><ele>52.2</ele><time>2022-11-01T15:51:50.0000000+00:00</time></trkpt><trkpt lat="39.49610006" lon="-0.41901059"><ele>52.2</ele><time>2022-11-01T15:51:51.0000000+00:00</time></trkpt><trkpt lat="39.4960755" lon="-0.41901587"><ele>52.2</ele><time>2022-11-01T15:51:52.0000000+00:00</time></trkpt><trkpt lat="39.4960501" lon="-0.41902123"><ele>52.4</ele><time>2022-11-01T15:51:53.0000000+00:00</time></trkpt><trkpt lat="39.49602194" lon="-0.41902416"><ele>52.6</ele><time>2022-11-01T15:51:54.0000000+00:00</time></trkpt><trkpt lat="39.49599193" lon="-0.4190276"><ele>52.8</ele><time>2022-11-01T15:51:55.0000000+00:00</time></trkpt><trkpt lat="39.49596218" lon="-0.41903154"><ele>53.0</ele><time>2022-11-01T15:51:56.0000000+00:00</time></trkpt><trkpt lat="39.49593569" lon="-0.41903959"><ele>53.0</ele><time>2022-11-01T15:51:57.0000000+00:00</time></trkpt><trkpt lat="39.49590728" lon="-0.41904361"><ele>53.2</ele><time>2022-11-01T15:51:58.0000000+00:00</time></trkpt><trkpt lat="39.49587517" lon="-0.41904847"><ele>53.2</ele><time>2022-11-01T15:51:59.0000000+00:00</time></trkpt><trkpt lat="39.49584165" lon="-0.41905367"><ele>53.0</ele><time>2022-11-01T15:52:00.0000000+00:00</time></trkpt><trkpt lat="39.4958051" lon="-0.41905903"><ele>53.0</ele><time>2022-11-01T15:52:01.0000000+00:00</time></trkpt><trkpt lat="39.49576378" lon="-0.41906373"><ele>53.0</ele><time>2022-11-01T15:52:02.0000000+00:00</time></trkpt><trkpt lat="39.49571659" lon="-0.41906859"><ele>53.0</ele><time>2022-11-01T15:52:03.0000000+00:00</time></trkpt><trkpt lat="39.49566152" lon="-0.41907211"><ele>52.6</ele><time>2022-11-01T15:52:04.0000000+00:00</time></trkpt><trkpt lat="39.49560419" lon="-0.41907546"><ele>52.6</ele><time>2022-11-01T15:52:05.0000000+00:00</time></trkpt><trkpt lat="39.49554535" lon="-0.4190799"><ele>52.4</ele><time>2022-11-01T15:52:06.0000000+00:00</time></trkpt><trkpt lat="39.49548248" lon="-0.41908326"><ele>52.0</ele><time>2022-11-01T15:52:07.0000000+00:00</time></trkpt><trkpt lat="39.49541216" lon="-0.41908502"><ele>51.8</ele><time>2022-11-01T15:52:08.0000000+00:00</time></trkpt><trkpt lat="39.49533681" lon="-0.41907907"><ele>51.2</ele><time>2022-11-01T15:52:09.0000000+00:00</time></trkpt><trkpt lat="39.49525273" lon="-0.41906716"><ele>50.8</ele><time>2022-11-01T15:52:10.0000000+00:00</time></trkpt><trkpt lat="39.49516757" lon="-0.41905652"><ele>50.4</ele><time>2022-11-01T15:52:11.0000000+00:00</time></trkpt><trkpt lat="39.49507889" lon="-0.41904277"><ele>50.0</ele><time>2022-11-01T15:52:12.0000000+00:00</time></trkpt><trkpt lat="39.4949856" lon="-0.41902869"><ele>49.0</ele><time>2022-11-01T15:52:13.0000000+00:00</time></trkpt><trkpt lat="39.49488871" lon="-0.41901335"><ele>48.4</ele><time>2022-11-01T15:52:14.0000000+00:00</time></trkpt><trkpt lat="39.49478762" lon="-0.4189965"><ele>47.8</ele><time>2022-11-01T15:52:15.0000000+00:00</time></trkpt><trkpt lat="39.49468419" lon="-0.41897991"><ele>47.2</ele><time>2022-11-01T15:52:16.0000000+00:00</time></trkpt><trkpt lat="39.49458051" lon="-0.41896231"><ele>46.2</ele><time>2022-11-01T15:52:17.0000000+00:00</time></trkpt><trkpt lat="39.49447908" lon="-0.41894093"><ele>45.2</ele><time>2022-11-01T15:52:18.0000000+00:00</time></trkpt><trkpt lat="39.4943873" lon="-0.41892165"><ele>44.8</ele><time>2022-11-01T15:52:19.0000000+00:00</time></trkpt><trkpt lat="39.4942982" lon="-0.41890606"><ele>44.4</ele><time>2022-11-01T15:52:20.0000000+00:00</time></trkpt><trkpt lat="39.49421388" lon="-0.41889098"><ele>44.4</ele><time>2022-11-01T15:52:21.0000000+00:00</time></trkpt><trkpt lat="39.4941361" lon="-0.41887421"><ele>44.2</ele><time>2022-11-01T15:52:22.0000000+00:00</time></trkpt><trkpt lat="39.49406024" lon="-0.41884848"><ele>44.2</ele><time>2022-11-01T15:52:23.0000000+00:00</time></trkpt><trkpt lat="39.49399143" lon="-0.41881478"><ele>44.2</ele><time>2022-11-01T15:52:24.0000000+00:00</time></trkpt><trkpt lat="39.49392689" lon="-0.4187686"><ele>44.2</ele><time>2022-11-01T15:52:25.0000000+00:00</time></trkpt><trkpt lat="39.49386939" lon="-0.41870951"><ele>44.2</ele><time>2022-11-01T15:52:26.0000000+00:00</time></trkpt><trkpt lat="39.49382152" lon="-0.41863918"><ele>44.0</ele><time>2022-11-01T15:52:27.0000000+00:00</time></trkpt><trkpt lat="39.49377878" lon="-0.41855863"><ele>44.0</ele><time>2022-11-01T15:52:28.0000000+00:00</time></trkpt><trkpt lat="39.49374475" lon="-0.41849426"><ele>43.8</ele><time>2022-11-01T15:52:29.0000000+00:00</time></trkpt><trkpt lat="39.49370191" lon="-0.4184153"><ele>43.6</ele><time>2022-11-01T15:52:30.0000000+00:00</time></trkpt><trkpt lat="39.49365682" lon="-0.41833668"><ele>43.4</ele><time>2022-11-01T15:52:31.0000000+00:00</time></trkpt><trkpt lat="39.49359647" lon="-0.4182485"><ele>43.0</ele><time>2022-11-01T15:52:32.0000000+00:00</time></trkpt><trkpt lat="39.4935383" lon="-0.41818606"><ele>42.8</ele><time>2022-11-01T15:52:33.0000000+00:00</time></trkpt><trkpt lat="39.49347233" lon="-0.41813728"><ele>42.4</ele><time>2022-11-01T15:52:34.0000000+00:00</time></trkpt><trkpt lat="39.49340645" lon="-0.41810785"><ele>42.2</ele><time>2022-11-01T15:52:35.0000000+00:00</time></trkpt><trkpt lat="39.49334283" lon="-0.41809235"><ele>42.0</ele><time>2022-11-01T15:52:36.0000000+00:00</time></trkpt><trkpt lat="39.49328366" lon="-0.41808849"><ele>41.8</ele><time>2022-11-01T15:52:37.0000000+00:00</time></trkpt><trkpt lat="39.49323194" lon="-0.41809285"><ele>41.6</ele><time>2022-11-01T15:52:38.0000000+00:00</time></trkpt><trkpt lat="39.49318894" lon="-0.41810123"><ele>41.6</ele><time>2022-11-01T15:52:39.0000000+00:00</time></trkpt><trkpt lat="39.49315617" lon="-0.41810953"><ele>41.4</ele><time>2022-11-01T15:52:40.0000000+00:00</time></trkpt><trkpt lat="39.49313496" lon="-0.41811548"><ele>41.4</ele><time>2022-11-01T15:52:41.0000000+00:00</time></trkpt><trkpt lat="39.49312633" lon="-0.41811649"><ele>41.4</ele><time>2022-11-01T15:52:42.0000000+00:00</time></trkpt><trkpt lat="39.49312633" lon="-0.41811649"><ele>41.4</ele><time>2022-11-01T15:52:43.0000000+00:00</time></trkpt><trkpt lat="39.49312633" lon="-0.41811649"><ele>41.4</ele><time>2022-11-01T15:52:44.0000000+00:00</time></trkpt><trkpt lat="39.49312633" lon="-0.41811649"><ele>41.4</ele><time>2022-11-01T15:52:45.0000000+00:00</time></trkpt><trkpt lat="39.49312633" lon="-0.41811649"><ele>41.4</ele><time>2022-11-01T15:52:46.0000000+00:00</time></trkpt><trkpt lat="39.49312633" lon="-0.41811649"><ele>41.4</ele><time>2022-11-01T15:52:47.0000000+00:00</time></trkpt><trkpt lat="39.49312633" lon="-0.41811649"><ele>41.2</ele><time>2022-11-01T15:52:48.0000000+00:00</time></trkpt><trkpt lat="39.49312633" lon="-0.41811649"><ele>41.2</ele><time>2022-11-01T15:52:49.0000000+00:00</time></trkpt><trkpt lat="39.49312633" lon="-0.41811649"><ele>41.2</ele><time>2022-11-01T15:52:50.0000000+00:00</time></trkpt><trkpt lat="39.49312633" lon="-0.41811649"><ele>41.2</ele><time>2022-11-01T15:52:51.0000000+00:00</time></trkpt><trkpt lat="39.49312633" lon="-0.41811649"><ele>41.2</ele><time>2022-11-01T15:52:52.0000000+00:00</time></trkpt><trkpt lat="39.49312633" lon="-0.41811649"><ele>41.2</ele><time>2022-11-01T15:52:53.0000000+00:00</time></trkpt><trkpt lat="39.49312633" lon="-0.41811649"><ele>41.2</ele><time>2022-11-01T15:52:54.0000000+00:00</time></trkpt><trkpt lat="39.49312633" lon="-0.41811649"><ele>41.2</ele><time>2022-11-01T15:52:55.0000000+00:00</time></trkpt><trkpt lat="39.49312633" lon="-0.41811649"><ele>41.2</ele><time>2022-11-01T15:52:56.0000000+00:00</time></trkpt><trkpt lat="39.49312633" lon="-0.41811649"><ele>41.2</ele><time>2022-11-01T15:52:57.0000000+00:00</time></trkpt><trkpt lat="39.49312633" lon="-0.41811649"><ele>41.2</ele><time>2022-11-01T15:52:58.0000000+00:00</time></trkpt><trkpt lat="39.49312633" lon="-0.41811649"><ele>41.2</ele><time>2022-11-01T15:52:59.0000000+00:00</time></trkpt><trkpt lat="39.49312633" lon="-0.41811649"><ele>41.2</ele><time>2022-11-01T15:53:00.0000000+00:00</time></trkpt><trkpt lat="39.49312633" lon="-0.41811649"><ele>41.2</ele><time>2022-11-01T15:53:01.0000000+00:00</time></trkpt><trkpt lat="39.49312633" lon="-0.41811649"><ele>41.2</ele><time>2022-11-01T15:53:02.0000000+00:00</time></trkpt><trkpt lat="39.49312633" lon="-0.41811649"><ele>41.2</ele><time>2022-11-01T15:53:03.0000000+00:00</time></trkpt><trkpt lat="39.49312633" lon="-0.41811649"><ele>41.2</ele><time>2022-11-01T15:53:04.0000000+00:00</time></trkpt><trkpt lat="39.49312633" lon="-0.41811649"><ele>41.2</ele><time>2022-11-01T15:53:05.0000000+00:00</time></trkpt><trkpt lat="39.49312633" lon="-0.41811649"><ele>41.2</ele><time>2022-11-01T15:53:06.0000000+00:00</time></trkpt><trkpt lat="39.49312633" lon="-0.41811649"><ele>41.2</ele><time>2022-11-01T15:53:07.0000000+00:00</time></trkpt><trkpt lat="39.49312633" lon="-0.41811649"><ele>41.2</ele><time>2022-11-01T15:53:08.0000000+00:00</time></trkpt><trkpt lat="39.49312633" lon="-0.41811649"><ele>41.2</ele><time>2022-11-01T15:53:09.0000000+00:00</time></trkpt><trkpt lat="39.49312633" lon="-0.41811649"><ele>41.2</ele><time>2022-11-01T15:53:10.0000000+00:00</time></trkpt><trkpt lat="39.49312633" lon="-0.41811649"><ele>41.2</ele><time>2022-11-01T15:53:11.0000000+00:00</time></trkpt><trkpt lat="39.49312633" lon="-0.41811649"><ele>41.2</ele><time>2022-11-01T15:53:12.0000000+00:00</time></trkpt><trkpt lat="39.49312633" lon="-0.41811649"><ele>41.2</ele><time>2022-11-01T15:53:13.0000000+00:00</time></trkpt><trkpt lat="39.49312633" lon="-0.41811649"><ele>41.2</ele><time>2022-11-01T15:53:14.0000000+00:00</time></trkpt><trkpt lat="39.49312633" lon="-0.41811649"><ele>41.2</ele><time>2022-11-01T15:53:15.0000000+00:00</time></trkpt><trkpt lat="39.49312633" lon="-0.41811649"><ele>41.2</ele><time>2022-11-01T15:53:16.0000000+00:00</time></trkpt><trkpt lat="39.49312633" lon="-0.41811649"><ele>41.2</ele><time>2022-11-01T15:53:17.0000000+00:00</time></trkpt><trkpt lat="39.49312633" lon="-0.41811649"><ele>41.4</ele><time>2022-11-01T15:53:18.0000000+00:00</time></trkpt><trkpt lat="39.49312633" lon="-0.41811649"><ele>41.4</ele><time>2022-11-01T15:53:19.0000000+00:00</time></trkpt><trkpt lat="39.49312633" lon="-0.41811649"><ele>41.8</ele><time>2022-11-01T15:53:20.0000000+00:00</time></trkpt><trkpt lat="39.49312633" lon="-0.41811649"><ele>42.0</ele><time>2022-11-01T15:53:21.0000000+00:00</time></trkpt><trkpt lat="39.49312633" lon="-0.41811649"><ele>42.0</ele><time>2022-11-01T15:53:22.0000000+00:00</time></trkpt><trkpt lat="39.49312633" lon="-0.41811649"><ele>42.2</ele><time>2022-11-01T15:53:23.0000000+00:00</time></trkpt><trkpt lat="39.49312633" lon="-0.41811649"><ele>42.2</ele><time>2022-11-01T15:53:24.0000000+00:00</time></trkpt><trkpt lat="39.49312633" lon="-0.41811649"><ele>42.2</ele><time>2022-11-01T15:53:25.0000000+00:00</time></trkpt><trkpt lat="39.49312633" lon="-0.41811649"><ele>42.2</ele><time>2022-11-01T15:53:26.0000000+00:00</time></trkpt><trkpt lat="39.49312633" lon="-0.41811649"><ele>42.2</ele><time>2022-11-01T15:53:27.0000000+00:00</time></trkpt><trkpt lat="39.49312633" lon="-0.41811649"><ele>42.2</ele><time>2022-11-01T15:53:28.0000000+00:00</time></trkpt><trkpt lat="39.49312633" lon="-0.41811649"><ele>42.2</ele><time>2022-11-01T15:53:29.0000000+00:00</time></trkpt><trkpt lat="39.49312633" lon="-0.41811649"><ele>42.2</ele><time>2022-11-01T15:53:30.0000000+00:00</time></trkpt><trkpt lat="39.49312633" lon="-0.41811649"><ele>42.2</ele><time>2022-11-01T15:53:31.0000000+00:00</time></trkpt><trkpt lat="39.49312633" lon="-0.41811649"><ele>42.0</ele><time>2022-11-01T15:53:32.0000000+00:00</time></trkpt><trkpt lat="39.49312633" lon="-0.41811649"><ele>41.6</ele><time>2022-11-01T15:53:33.0000000+00:00</time></trkpt><trkpt lat="39.49312633" lon="-0.41811649"><ele>41.4</ele><time>2022-11-01T15:53:34.0000000+00:00</time></trkpt><trkpt lat="39.49312633" lon="-0.41811649"><ele>41.4</ele><time>2022-11-01T15:53:35.0000000+00:00</time></trkpt><trkpt lat="39.49312633" lon="-0.41811649"><ele>41.2</ele><time>2022-11-01T15:53:36.0000000+00:00</time></trkpt><trkpt lat="39.49312633" lon="-0.41811649"><ele>41.2</ele><time>2022-11-01T15:53:37.0000000+00:00</time></trkpt><trkpt lat="39.49312633" lon="-0.41811649"><ele>41.2</ele><time>2022-11-01T15:53:38.0000000+00:00</time></trkpt><trkpt lat="39.49312633" lon="-0.41811649"><ele>41.2</ele><time>2022-11-01T15:53:39.0000000+00:00</time></trkpt><trkpt lat="39.49312633" lon="-0.41811649"><ele>41.2</ele><time>2022-11-01T15:53:40.0000000+00:00</time></trkpt><trkpt lat="39.49312633" lon="-0.41811649"><ele>41.2</ele><time>2022-11-01T15:53:41.0000000+00:00</time></trkpt><trkpt lat="39.49312633" lon="-0.41811649"><ele>41.2</ele><time>2022-11-01T15:53:42.0000000+00:00</time></trkpt><trkpt lat="39.49312633" lon="-0.41811649"><ele>41.2</ele><time>2022-11-01T15:53:43.0000000+00:00</time></trkpt><trkpt lat="39.49312633" lon="-0.41811649"><ele>41.4</ele><time>2022-11-01T15:53:44.0000000+00:00</time></trkpt><trkpt lat="39.49312633" lon="-0.41811649"><ele>41.4</ele><time>2022-11-01T15:53:45.0000000+00:00</time></trkpt><trkpt lat="39.49312633" lon="-0.41811649"><ele>41.2</ele><time>2022-11-01T15:53:46.0000000+00:00</time></trkpt><trkpt lat="39.49312633" lon="-0.41811649"><ele>41.2</ele><time>2022-11-01T15:53:47.0000000+00:00</time></trkpt><trkpt lat="39.49313211" lon="-0.41811791"><ele>41.2</ele><time>2022-11-01T15:53:48.0000000+00:00</time></trkpt><trkpt lat="39.49313538" lon="-0.4181149"><ele>41.2</ele><time>2022-11-01T15:53:49.0000000+00:00</time></trkpt><trkpt lat="39.49313144" lon="-0.41810886"><ele>41.2</ele><time>2022-11-01T15:53:50.0000000+00:00</time></trkpt><trkpt lat="39.49312926" lon="-0.41810643"><ele>41.2</ele><time>2022-11-01T15:53:51.0000000+00:00</time></trkpt><trkpt lat="39.49312926" lon="-0.41810643"><ele>41.2</ele><time>2022-11-01T15:53:52.0000000+00:00</time></trkpt><trkpt lat="39.49312926" lon="-0.41810643"><ele>41.2</ele><time>2022-11-01T15:53:53.0000000+00:00</time></trkpt><trkpt lat="39.49312926" lon="-0.41810643"><ele>41.2</ele><time>2022-11-01T15:53:54.0000000+00:00</time></trkpt><trkpt lat="39.49312549" lon="-0.41810928"><ele>41.2</ele><time>2022-11-01T15:53:55.0000000+00:00</time></trkpt><trkpt lat="39.49311594" lon="-0.4181102"><ele>41.2</ele><time>2022-11-01T15:53:56.0000000+00:00</time></trkpt><trkpt lat="39.49310236" lon="-0.41811112"><ele>41.2</ele><time>2022-11-01T15:53:57.0000000+00:00</time></trkpt><trkpt lat="39.49308618" lon="-0.41811498"><ele>41.2</ele><time>2022-11-01T15:53:58.0000000+00:00</time></trkpt><trkpt lat="39.49306129" lon="-0.41811691"><ele>41.2</ele><time>2022-11-01T15:53:59.0000000+00:00</time></trkpt><trkpt lat="39.49303673" lon="-0.41811724"><ele>41.2</ele><time>2022-11-01T15:54:00.0000000+00:00</time></trkpt><trkpt lat="39.49300982" lon="-0.41811917"><ele>41.2</ele><time>2022-11-01T15:54:01.0000000+00:00</time></trkpt><trkpt lat="39.49298283" lon="-0.41812127"><ele>41.2</ele><time>2022-11-01T15:54:02.0000000+00:00</time></trkpt><trkpt lat="39.49295333" lon="-0.41812194"><ele>41.2</ele><time>2022-11-01T15:54:03.0000000+00:00</time></trkpt><trkpt lat="39.49292156" lon="-0.4181237"><ele>41.2</ele><time>2022-11-01T15:54:04.0000000+00:00</time></trkpt><trkpt lat="39.49289365" lon="-0.41812546"><ele>41.2</ele><time>2022-11-01T15:54:05.0000000+00:00</time></trkpt><trkpt lat="39.49285165" lon="-0.41812856"><ele>41.2</ele><time>2022-11-01T15:54:06.0000000+00:00</time></trkpt><trkpt lat="39.49281394" lon="-0.41813023"><ele>41.2</ele><time>2022-11-01T15:54:07.0000000+00:00</time></trkpt><trkpt lat="39.49277597" lon="-0.41813359"><ele>41.2</ele><time>2022-11-01T15:54:08.0000000+00:00</time></trkpt><trkpt lat="39.49273515" lon="-0.41813619"><ele>41.2</ele><time>2022-11-01T15:54:09.0000000+00:00</time></trkpt><trkpt lat="39.4926934" lon="-0.41813602"><ele>41.2</ele><time>2022-11-01T15:54:10.0000000+00:00</time></trkpt><trkpt lat="39.49265099" lon="-0.41813719"><ele>41.2</ele><time>2022-11-01T15:54:11.0000000+00:00</time></trkpt><trkpt lat="39.49260766" lon="-0.41813811"><ele>41.2</ele><time>2022-11-01T15:54:12.0000000+00:00</time></trkpt><trkpt lat="39.49256131" lon="-0.41813828"><ele>41.2</ele><time>2022-11-01T15:54:13.0000000+00:00</time></trkpt><trkpt lat="39.49251344" lon="-0.41814038"><ele>41.2</ele><time>2022-11-01T15:54:14.0000000+00:00</time></trkpt><trkpt lat="39.49246475" lon="-0.41814088"><ele>41.0</ele><time>2022-11-01T15:54:15.0000000+00:00</time></trkpt><trkpt lat="39.49241747" lon="-0.41814323"><ele>41.0</ele><time>2022-11-01T15:54:16.0000000+00:00</time></trkpt><trkpt lat="39.49237263" lon="-0.41814666"><ele>41.0</ele><time>2022-11-01T15:54:17.0000000+00:00</time></trkpt><trkpt lat="39.49232946" lon="-0.41814792"><ele>41.0</ele><time>2022-11-01T15:54:18.0000000+00:00</time></trkpt><trkpt lat="39.49228177" lon="-0.41814842"><ele>41.0</ele><time>2022-11-01T15:54:19.0000000+00:00</time></trkpt><trkpt lat="39.4922345" lon="-0.41815119"><ele>40.8</ele><time>2022-11-01T15:54:20.0000000+00:00</time></trkpt><trkpt lat="39.49218823" lon="-0.41815312"><ele>40.8</ele><time>2022-11-01T15:54:21.0000000+00:00</time></trkpt><trkpt lat="39.49214296" lon="-0.41815681"><ele>40.8</ele><time>2022-11-01T15:54:22.0000000+00:00</time></trkpt><trkpt lat="39.49209351" lon="-0.41815773"><ele>40.8</ele><time>2022-11-01T15:54:23.0000000+00:00</time></trkpt><trkpt lat="39.49204565" lon="-0.41815857"><ele>40.8</ele><time>2022-11-01T15:54:24.0000000+00:00</time></trkpt><trkpt lat="39.49199595" lon="-0.41816209"><ele>40.8</ele><time>2022-11-01T15:54:25.0000000+00:00</time></trkpt><trkpt lat="39.49194557" lon="-0.41816393"><ele>40.8</ele><time>2022-11-01T15:54:26.0000000+00:00</time></trkpt><trkpt lat="39.49189142" lon="-0.4181615"><ele>40.8</ele><time>2022-11-01T15:54:27.0000000+00:00</time></trkpt><trkpt lat="39.49183971" lon="-0.418162"><ele>40.8</ele><time>2022-11-01T15:54:28.0000000+00:00</time></trkpt><trkpt lat="39.4917859" lon="-0.41816234"><ele>40.8</ele><time>2022-11-01T15:54:29.0000000+00:00</time></trkpt><trkpt lat="39.49173141" lon="-0.41816225"><ele>41.0</ele><time>2022-11-01T15:54:30.0000000+00:00</time></trkpt><trkpt lat="39.49167601" lon="-0.41816167"><ele>41.2</ele><time>2022-11-01T15:54:31.0000000+00:00</time></trkpt><trkpt lat="39.49162027" lon="-0.41816619"><ele>41.4</ele><time>2022-11-01T15:54:32.0000000+00:00</time></trkpt><trkpt lat="39.4915678" lon="-0.41817332"><ele>41.4</ele><time>2022-11-01T15:54:33.0000000+00:00</time></trkpt><trkpt lat="39.49151449" lon="-0.41817843"><ele>41.4</ele><time>2022-11-01T15:54:34.0000000+00:00</time></trkpt><trkpt lat="39.49146026" lon="-0.41818002"><ele>41.4</ele><time>2022-11-01T15:54:35.0000000+00:00</time></trkpt><trkpt lat="39.4914072" lon="-0.41817902"><ele>41.6</ele><time>2022-11-01T15:54:36.0000000+00:00</time></trkpt><trkpt lat="39.49136437" lon="-0.41817893"><ele>41.4</ele><time>2022-11-01T15:54:37.0000000+00:00</time></trkpt><trkpt lat="39.49131123" lon="-0.41817508"><ele>41.6</ele><time>2022-11-01T15:54:38.0000000+00:00</time></trkpt><trkpt lat="39.49124635" lon="-0.41816913"><ele>41.6</ele><time>2022-11-01T15:54:39.0000000+00:00</time></trkpt><trkpt lat="39.49119246" lon="-0.41815689"><ele>41.6</ele><time>2022-11-01T15:54:40.0000000+00:00</time></trkpt><trkpt lat="39.49113982" lon="-0.41814096"><ele>41.6</ele><time>2022-11-01T15:54:41.0000000+00:00</time></trkpt><trkpt lat="39.49109213" lon="-0.4181211"><ele>41.6</ele><time>2022-11-01T15:54:42.0000000+00:00</time></trkpt><trkpt lat="39.49105659" lon="-0.41810324"><ele>41.8</ele><time>2022-11-01T15:54:43.0000000+00:00</time></trkpt><trkpt lat="39.4910047" lon="-0.41807424"><ele>41.8</ele><time>2022-11-01T15:54:44.0000000+00:00</time></trkpt><trkpt lat="39.49096581" lon="-0.41804859"><ele>41.8</ele><time>2022-11-01T15:54:45.0000000+00:00</time></trkpt><trkpt lat="39.49093597" lon="-0.41802437"><ele>41.8</ele><time>2022-11-01T15:54:46.0000000+00:00</time></trkpt><trkpt lat="39.49089565" lon="-0.41798322"><ele>41.6</ele><time>2022-11-01T15:54:47.0000000+00:00</time></trkpt><trkpt lat="39.49086313" lon="-0.41793971"><ele>41.6</ele><time>2022-11-01T15:54:48.0000000+00:00</time></trkpt><trkpt lat="39.49083991" lon="-0.41790032"><ele>41.6</ele><time>2022-11-01T15:54:49.0000000+00:00</time></trkpt><trkpt lat="39.4908063" lon="-0.41783938"><ele>41.6</ele><time>2022-11-01T15:54:50.0000000+00:00</time></trkpt><trkpt lat="39.49078183" lon="-0.41778289"><ele>41.6</ele><time>2022-11-01T15:54:51.0000000+00:00</time></trkpt><trkpt lat="39.4907633" lon="-0.41773687"><ele>41.4</ele><time>2022-11-01T15:54:52.0000000+00:00</time></trkpt><trkpt lat="39.49073983" lon="-0.41766898"><ele>41.6</ele><time>2022-11-01T15:54:53.0000000+00:00</time></trkpt><trkpt lat="39.49072399" lon="-0.41761349"><ele>41.6</ele><time>2022-11-01T15:54:54.0000000+00:00</time></trkpt><trkpt lat="39.49071343" lon="-0.41756664"><ele>41.6</ele><time>2022-11-01T15:54:55.0000000+00:00</time></trkpt><trkpt lat="39.49069516" lon="-0.41750151"><ele>41.4</ele><time>2022-11-01T15:54:56.0000000+00:00</time></trkpt><trkpt lat="39.49068342" lon="-0.41745541"><ele>41.4</ele><time>2022-11-01T15:54:57.0000000+00:00</time></trkpt><trkpt lat="39.49066968" lon="-0.41739657"><ele>41.4</ele><time>2022-11-01T15:54:58.0000000+00:00</time></trkpt><trkpt lat="39.49065794" lon="-0.41733689"><ele>41.4</ele><time>2022-11-01T15:54:59.0000000+00:00</time></trkpt><trkpt lat="39.4906478" lon="-0.41727419"><ele>41.2</ele><time>2022-11-01T15:55:00.0000000+00:00</time></trkpt><trkpt lat="39.4906354" lon="-0.41719976"><ele>41.2</ele><time>2022-11-01T15:55:01.0000000+00:00</time></trkpt><trkpt lat="39.49062274" lon="-0.41713304"><ele>41.2</ele><time>2022-11-01T15:55:02.0000000+00:00</time></trkpt><trkpt lat="39.49061117" lon="-0.4170659"><ele>41.2</ele><time>2022-11-01T15:55:03.0000000+00:00</time></trkpt><trkpt lat="39.49060237" lon="-0.417012"><ele>41.2</ele><time>2022-11-01T15:55:04.0000000+00:00</time></trkpt><trkpt lat="39.49058837" lon="-0.41693145"><ele>41.2</ele><time>2022-11-01T15:55:05.0000000+00:00</time></trkpt><trkpt lat="39.49057622" lon="-0.41685996"><ele>41.2</ele><time>2022-11-01T15:55:06.0000000+00:00</time></trkpt><trkpt lat="39.49056692" lon="-0.41680321"><ele>41.2</ele><time>2022-11-01T15:55:07.0000000+00:00</time></trkpt><trkpt lat="39.49055149" lon="-0.41671881"><ele>41.2</ele><time>2022-11-01T15:55:08.0000000+00:00</time></trkpt><trkpt lat="39.49054152" lon="-0.4166634"><ele>41.2</ele><time>2022-11-01T15:55:09.0000000+00:00</time></trkpt><trkpt lat="39.49052584" lon="-0.41658143"><ele>41.2</ele><time>2022-11-01T15:55:10.0000000+00:00</time></trkpt><trkpt lat="39.49051394" lon="-0.41651236"><ele>41.0</ele><time>2022-11-01T15:55:11.0000000+00:00</time></trkpt><trkpt lat="39.49049994" lon="-0.41644187"><ele>41.0</ele><time>2022-11-01T15:55:12.0000000+00:00</time></trkpt><trkpt lat="39.49048486" lon="-0.41636844"><ele>41.0</ele><time>2022-11-01T15:55:13.0000000+00:00</time></trkpt><trkpt lat="39.49047279" lon="-0.41629435"><ele>41.0</ele><time>2022-11-01T15:55:14.0000000+00:00</time></trkpt><trkpt lat="39.49046315" lon="-0.41623785"><ele>40.8</ele><time>2022-11-01T15:55:15.0000000+00:00</time></trkpt><trkpt lat="39.4904494" lon="-0.41615504"><ele>40.8</ele><time>2022-11-01T15:55:16.0000000+00:00</time></trkpt><trkpt lat="39.49043725" lon="-0.41608404"><ele>40.8</ele><time>2022-11-01T15:55:17.0000000+00:00</time></trkpt><trkpt lat="39.49042861" lon="-0.41602981"><ele>40.8</ele><time>2022-11-01T15:55:18.0000000+00:00</time></trkpt><trkpt lat="39.49041671" lon="-0.41596075"><ele>40.8</ele><time>2022-11-01T15:55:19.0000000+00:00</time></trkpt><trkpt lat="39.49040892" lon="-0.41589252"><ele>40.8</ele><time>2022-11-01T15:55:20.0000000+00:00</time></trkpt><trkpt lat="39.49039559" lon="-0.41582462"><ele>40.8</ele><time>2022-11-01T15:55:21.0000000+00:00</time></trkpt><trkpt lat="39.4903836" lon="-0.41575656"><ele>40.8</ele><time>2022-11-01T15:55:22.0000000+00:00</time></trkpt><trkpt lat="39.49036969" lon="-0.41569118"><ele>40.8</ele><time>2022-11-01T15:55:23.0000000+00:00</time></trkpt><trkpt lat="39.49035586" lon="-0.41562379"><ele>40.6</ele><time>2022-11-01T15:55:24.0000000+00:00</time></trkpt><trkpt lat="39.49034178" lon="-0.41555355"><ele>40.6</ele><time>2022-11-01T15:55:25.0000000+00:00</time></trkpt><trkpt lat="39.49032527" lon="-0.41547342"><ele>40.6</ele><time>2022-11-01T15:55:26.0000000+00:00</time></trkpt><trkpt lat="39.49031336" lon="-0.41541768"><ele>40.6</ele><time>2022-11-01T15:55:27.0000000+00:00</time></trkpt><trkpt lat="39.49029693" lon="-0.4153482"><ele>40.4</ele><time>2022-11-01T15:55:28.0000000+00:00</time></trkpt><trkpt lat="39.49027975" lon="-0.41526304"><ele>40.4</ele><time>2022-11-01T15:55:29.0000000+00:00</time></trkpt><trkpt lat="39.49026835" lon="-0.41520679"><ele>40.4</ele><time>2022-11-01T15:55:30.0000000+00:00</time></trkpt><trkpt lat="39.49025352" lon="-0.41513722"><ele>40.4</ele><time>2022-11-01T15:55:31.0000000+00:00</time></trkpt><trkpt lat="39.49023239" lon="-0.41505148"><ele>40.4</ele><time>2022-11-01T15:55:32.0000000+00:00</time></trkpt><trkpt lat="39.49021756" lon="-0.41499314"><ele>40.4</ele><time>2022-11-01T15:55:33.0000000+00:00</time></trkpt><trkpt lat="39.49019895" lon="-0.41492156"><ele>40.4</ele><time>2022-11-01T15:55:34.0000000+00:00</time></trkpt><trkpt lat="39.49017598" lon="-0.41483531"><ele>40.4</ele><time>2022-11-01T15:55:35.0000000+00:00</time></trkpt><trkpt lat="39.4901552" lon="-0.4147613"><ele>40.4</ele><time>2022-11-01T15:55:36.0000000+00:00</time></trkpt><trkpt lat="39.49013868" lon="-0.41470246"><ele>40.4</ele><time>2022-11-01T15:55:37.0000000+00:00</time></trkpt><trkpt lat="39.49011848" lon="-0.41461227"><ele>40.4</ele><time>2022-11-01T15:55:38.0000000+00:00</time></trkpt><trkpt lat="39.4901049" lon="-0.41455535"><ele>40.4</ele><time>2022-11-01T15:55:39.0000000+00:00</time></trkpt><trkpt lat="39.49008554" lon="-0.41448545"><ele>40.4</ele><time>2022-11-01T15:55:40.0000000+00:00</time></trkpt><trkpt lat="39.49006224" lon="-0.41440507"><ele>40.4</ele><time>2022-11-01T15:55:41.0000000+00:00</time></trkpt><trkpt lat="39.49004732" lon="-0.41435268"><ele>40.4</ele><time>2022-11-01T15:55:42.0000000+00:00</time></trkpt><trkpt lat="39.49002695" lon="-0.41428696"><ele>40.4</ele><time>2022-11-01T15:55:43.0000000+00:00</time></trkpt><trkpt lat="39.49000206" lon="-0.41421245"><ele>40.4</ele><time>2022-11-01T15:55:44.0000000+00:00</time></trkpt><trkpt lat="39.48998597" lon="-0.41416124"><ele>40.4</ele><time>2022-11-01T15:55:45.0000000+00:00</time></trkpt><trkpt lat="39.4899625" lon="-0.41408471"><ele>40.4</ele><time>2022-11-01T15:55:46.0000000+00:00</time></trkpt><trkpt lat="39.48994154" lon="-0.41402025"><ele>40.4</ele><time>2022-11-01T15:55:47.0000000+00:00</time></trkpt><trkpt lat="39.48992587" lon="-0.41396996"><ele>40.6</ele><time>2022-11-01T15:55:48.0000000+00:00</time></trkpt><trkpt lat="39.48990164" lon="-0.413891"><ele>40.6</ele><time>2022-11-01T15:55:49.0000000+00:00</time></trkpt><trkpt lat="39.48987943" lon="-0.41382479"><ele>40.6</ele><time>2022-11-01T15:55:50.0000000+00:00</time></trkpt><trkpt lat="39.48986015" lon="-0.41377097"><ele>40.6</ele><time>2022-11-01T15:55:51.0000000+00:00</time></trkpt><trkpt lat="39.48983375" lon="-0.41369017"><ele>40.6</ele><time>2022-11-01T15:55:52.0000000+00:00</time></trkpt><trkpt lat="39.48981045" lon="-0.41362538"><ele>40.6</ele><time>2022-11-01T15:55:53.0000000+00:00</time></trkpt><trkpt lat="39.48979042" lon="-0.413574"><ele>40.6</ele><time>2022-11-01T15:55:54.0000000+00:00</time></trkpt><trkpt lat="39.48976443" lon="-0.41349705"><ele>40.4</ele><time>2022-11-01T15:55:55.0000000+00:00</time></trkpt><trkpt lat="39.48974608" lon="-0.41344768"><ele>40.4</ele><time>2022-11-01T15:55:56.0000000+00:00</time></trkpt><trkpt lat="39.48972546" lon="-0.41338457"><ele>40.4</ele><time>2022-11-01T15:55:57.0000000+00:00</time></trkpt><trkpt lat="39.48969989" lon="-0.41331299"><ele>40.2</ele><time>2022-11-01T15:55:58.0000000+00:00</time></trkpt><trkpt lat="39.48968413" lon="-0.41327166"><ele>40.2</ele><time>2022-11-01T15:55:59.0000000+00:00</time></trkpt><trkpt lat="39.48966452" lon="-0.41323336"><ele>40.2</ele><time>2022-11-01T15:56:00.0000000+00:00</time></trkpt><trkpt lat="39.48964776" lon="-0.4131979"><ele>39.8</ele><time>2022-11-01T15:56:01.0000000+00:00</time></trkpt><trkpt lat="39.48964155" lon="-0.41318642"><ele>39.8</ele><time>2022-11-01T15:56:02.0000000+00:00</time></trkpt><trkpt lat="39.48963954" lon="-0.41318382"><ele>39.6</ele><time>2022-11-01T15:56:03.0000000+00:00</time></trkpt><trkpt lat="39.48963954" lon="-0.41318382"><ele>39.4</ele><time>2022-11-01T15:56:04.0000000+00:00</time></trkpt><trkpt lat="39.48963954" lon="-0.41318382"><ele>39.4</ele><time>2022-11-01T15:56:05.0000000+00:00</time></trkpt><trkpt lat="39.48963954" lon="-0.41318382"><ele>39.4</ele><time>2022-11-01T15:56:06.0000000+00:00</time></trkpt><trkpt lat="39.48963954" lon="-0.41318382"><ele>39.4</ele><time>2022-11-01T15:56:07.0000000+00:00</time></trkpt><trkpt lat="39.48963954" lon="-0.41318382"><ele>39.4</ele><time>2022-11-01T15:56:08.0000000+00:00</time></trkpt><trkpt lat="39.48964013" lon="-0.41319036"><ele>39.4</ele><time>2022-11-01T15:56:09.0000000+00:00</time></trkpt><trkpt lat="39.48964072" lon="-0.41320771"><ele>39.4</ele><time>2022-11-01T15:56:10.0000000+00:00</time></trkpt><trkpt lat="39.4896325" lon="-0.41323101"><ele>39.2</ele><time>2022-11-01T15:56:11.0000000+00:00</time></trkpt><trkpt lat="39.48962127" lon="-0.41324945"><ele>39.2</ele><time>2022-11-01T15:56:12.0000000+00:00</time></trkpt><trkpt lat="39.48960065" lon="-0.41326462"><ele>39.0</ele><time>2022-11-01T15:56:13.0000000+00:00</time></trkpt><trkpt lat="39.48957425" lon="-0.41327812"><ele>39.0</ele><time>2022-11-01T15:56:14.0000000+00:00</time></trkpt><trkpt lat="39.48955748" lon="-0.41328457"><ele>38.8</ele><time>2022-11-01T15:56:15.0000000+00:00</time></trkpt><trkpt lat="39.48953418" lon="-0.41329295"><ele>38.8</ele><time>2022-11-01T15:56:16.0000000+00:00</time></trkpt><trkpt lat="39.48951532" lon="-0.41329756"><ele>38.8</ele><time>2022-11-01T15:56:17.0000000+00:00</time></trkpt><trkpt lat="39.48949998" lon="-0.41330326"><ele>38.8</ele><time>2022-11-01T15:56:18.0000000+00:00</time></trkpt><trkpt lat="39.48947517" lon="-0.41331123"><ele>38.8</ele><time>2022-11-01T15:56:19.0000000+00:00</time></trkpt><trkpt lat="39.48946126" lon="-0.41331952"><ele>38.8</ele><time>2022-11-01T15:56:20.0000000+00:00</time></trkpt><trkpt lat="39.48944466" lon="-0.41333134"><ele>38.8</ele><time>2022-11-01T15:56:21.0000000+00:00</time></trkpt><trkpt lat="39.48942957" lon="-0.41334258"><ele>38.8</ele><time>2022-11-01T15:56:22.0000000+00:00</time></trkpt><trkpt lat="39.48941541" lon="-0.4133502"><ele>38.8</ele><time>2022-11-01T15:56:23.0000000+00:00</time></trkpt><trkpt lat="39.48940451" lon="-0.41335875"><ele>38.6</ele><time>2022-11-01T15:56:24.0000000+00:00</time></trkpt><trkpt lat="39.48938767" lon="-0.41336588"><ele>38.6</ele><time>2022-11-01T15:56:25.0000000+00:00</time></trkpt><trkpt lat="39.48936562" lon="-0.41337007"><ele>38.6</ele><time>2022-11-01T15:56:26.0000000+00:00</time></trkpt><trkpt lat="39.48934081" lon="-0.41337133"><ele>38.6</ele><time>2022-11-01T15:56:27.0000000+00:00</time></trkpt><trkpt lat="39.48930988" lon="-0.41337409"><ele>38.6</ele><time>2022-11-01T15:56:28.0000000+00:00</time></trkpt><trkpt lat="39.48928247" lon="-0.41338289"><ele>38.4</ele><time>2022-11-01T15:56:29.0000000+00:00</time></trkpt><trkpt lat="39.48925247" lon="-0.41339169"><ele>38.4</ele><time>2022-11-01T15:56:30.0000000+00:00</time></trkpt><trkpt lat="39.48922011" lon="-0.41339882"><ele>38.2</ele><time>2022-11-01T15:56:31.0000000+00:00</time></trkpt><trkpt lat="39.48919195" lon="-0.4134041"><ele>38.2</ele><time>2022-11-01T15:56:32.0000000+00:00</time></trkpt><trkpt lat="39.4891554" lon="-0.41340963"><ele>38.2</ele><time>2022-11-01T15:56:33.0000000+00:00</time></trkpt><trkpt lat="39.48910922" lon="-0.41341692"><ele>38.2</ele><time>2022-11-01T15:56:34.0000000+00:00</time></trkpt><trkpt lat="39.48907695" lon="-0.4134217"><ele>38.2</ele><time>2022-11-01T15:56:35.0000000+00:00</time></trkpt><trkpt lat="39.48902582" lon="-0.41343008"><ele>38.2</ele><time>2022-11-01T15:56:36.0000000+00:00</time></trkpt><trkpt lat="39.48898517" lon="-0.41343947"><ele>38.2</ele><time>2022-11-01T15:56:37.0000000+00:00</time></trkpt><trkpt lat="39.48895021" lon="-0.41344592"><ele>38.2</ele><time>2022-11-01T15:56:38.0000000+00:00</time></trkpt><trkpt lat="39.48890059" lon="-0.41345841"><ele>38.2</ele><time>2022-11-01T15:56:39.0000000+00:00</time></trkpt><trkpt lat="39.48885885" lon="-0.41346839"><ele>38.4</ele><time>2022-11-01T15:56:40.0000000+00:00</time></trkpt><trkpt lat="39.48882465" lon="-0.41347694"><ele>38.6</ele><time>2022-11-01T15:56:41.0000000+00:00</time></trkpt><trkpt lat="39.48877864" lon="-0.41348247"><ele>38.6</ele><time>2022-11-01T15:56:42.0000000+00:00</time></trkpt><trkpt lat="39.48874511" lon="-0.41348993"><ele>38.8</ele><time>2022-11-01T15:56:43.0000000+00:00</time></trkpt><trkpt lat="39.48872441" lon="-0.41349823"><ele>38.8</ele><time>2022-11-01T15:56:44.0000000+00:00</time></trkpt><trkpt lat="39.48870404" lon="-0.41350896"><ele>39.0</ele><time>2022-11-01T15:56:45.0000000+00:00</time></trkpt><trkpt lat="39.48869825" lon="-0.41351415"><ele>39.4</ele><time>2022-11-01T15:56:46.0000000+00:00</time></trkpt><trkpt lat="39.48869649" lon="-0.41351717"><ele>39.8</ele><time>2022-11-01T15:56:47.0000000+00:00</time></trkpt><trkpt lat="39.48869649" lon="-0.41351717"><ele>39.8</ele><time>2022-11-01T15:56:48.0000000+00:00</time></trkpt><trkpt lat="39.48869649" lon="-0.41351717"><ele>40.0</ele><time>2022-11-01T15:56:49.0000000+00:00</time></trkpt><trkpt lat="39.48869649" lon="-0.41351717"><ele>40.2</ele><time>2022-11-01T15:56:50.0000000+00:00</time></trkpt><trkpt lat="39.48869649" lon="-0.41351717"><ele>40.2</ele><time>2022-11-01T15:56:51.0000000+00:00</time></trkpt><trkpt lat="39.48869649" lon="-0.41351717"><ele>40.2</ele><time>2022-11-01T15:56:52.0000000+00:00</time></trkpt><trkpt lat="39.48869649" lon="-0.41351717"><ele>40.4</ele><time>2022-11-01T15:56:53.0000000+00:00</time></trkpt><trkpt lat="39.48869649" lon="-0.41351717"><ele>40.4</ele><time>2022-11-01T15:56:54.0000000+00:00</time></trkpt><trkpt lat="39.48869649" lon="-0.41351717"><ele>40.4</ele><time>2022-11-01T15:56:55.0000000+00:00</time></trkpt><trkpt lat="39.48869649" lon="-0.41351717"><ele>40.4</ele><time>2022-11-01T15:56:56.0000000+00:00</time></trkpt><trkpt lat="39.48869649" lon="-0.41351717"><ele>40.4</ele><time>2022-11-01T15:56:57.0000000+00:00</time></trkpt><trkpt lat="39.48869649" lon="-0.41351717"><ele>40.4</ele><time>2022-11-01T15:56:58.0000000+00:00</time></trkpt><trkpt lat="39.48869649" lon="-0.41351717"><ele>40.2</ele><time>2022-11-01T15:56:59.0000000+00:00</time></trkpt><trkpt lat="39.48869649" lon="-0.41351717"><ele>40.2</ele><time>2022-11-01T15:57:00.0000000+00:00</time></trkpt><trkpt lat="39.48869649" lon="-0.41351717"><ele>40.0</ele><time>2022-11-01T15:57:01.0000000+00:00</time></trkpt><trkpt lat="39.48869649" lon="-0.41351717"><ele>40.0</ele><time>2022-11-01T15:57:02.0000000+00:00</time></trkpt><trkpt lat="39.48869649" lon="-0.41351717"><ele>40.0</ele><time>2022-11-01T15:57:03.0000000+00:00</time></trkpt><trkpt lat="39.48869649" lon="-0.41351717"><ele>40.0</ele><time>2022-11-01T15:57:04.0000000+00:00</time></trkpt><trkpt lat="39.48869649" lon="-0.41351717"><ele>40.0</ele><time>2022-11-01T15:57:05.0000000+00:00</time></trkpt><trkpt lat="39.48869649" lon="-0.41351717"><ele>40.0</ele><time>2022-11-01T15:57:06.0000000+00:00</time></trkpt><trkpt lat="39.48869649" lon="-0.41351717"><ele>40.0</ele><time>2022-11-01T15:57:07.0000000+00:00</time></trkpt><trkpt lat="39.48870035" lon="-0.413517"><ele>40.0</ele><time>2022-11-01T15:57:08.0000000+00:00</time></trkpt><trkpt lat="39.48871183" lon="-0.41351751"><ele>40.0</ele><time>2022-11-01T15:57:09.0000000+00:00</time></trkpt><trkpt lat="39.48873413" lon="-0.41350728"><ele>40.0</ele><time>2022-11-01T15:57:10.0000000+00:00</time></trkpt><trkpt lat="39.48875567" lon="-0.41350242"><ele>40.0</ele><time>2022-11-01T15:57:11.0000000+00:00</time></trkpt><trkpt lat="39.48879305" lon="-0.41349362"><ele>40.0</ele><time>2022-11-01T15:57:12.0000000+00:00</time></trkpt><trkpt lat="39.48882993" lon="-0.41348708"><ele>40.0</ele><time>2022-11-01T15:57:13.0000000+00:00</time></trkpt><trkpt lat="39.48886237" lon="-0.41348104"><ele>40.0</ele><time>2022-11-01T15:57:14.0000000+00:00</time></trkpt><trkpt lat="39.48891115" lon="-0.41347082"><ele>40.0</ele><time>2022-11-01T15:57:15.0000000+00:00</time></trkpt><trkpt lat="39.48894753" lon="-0.41346512"><ele>39.8</ele><time>2022-11-01T15:57:16.0000000+00:00</time></trkpt><trkpt lat="39.48899414" lon="-0.41345573"><ele>39.8</ele><time>2022-11-01T15:57:17.0000000+00:00</time></trkpt><trkpt lat="39.48904971" lon="-0.41344467"><ele>39.8</ele><time>2022-11-01T15:57:18.0000000+00:00</time></trkpt><trkpt lat="39.48908768" lon="-0.41343645"><ele>39.8</ele><time>2022-11-01T15:57:19.0000000+00:00</time></trkpt><trkpt lat="39.48913336" lon="-0.41342497"><ele>39.6</ele><time>2022-11-01T15:57:20.0000000+00:00</time></trkpt><trkpt lat="39.48918155" lon="-0.41341307"><ele>39.6</ele><time>2022-11-01T15:57:21.0000000+00:00</time></trkpt><trkpt lat="39.48923788" lon="-0.41339689"><ele>39.6</ele><time>2022-11-01T15:57:22.0000000+00:00</time></trkpt><trkpt lat="39.48927543" lon="-0.41338658"><ele>39.6</ele><time>2022-11-01T15:57:23.0000000+00:00</time></trkpt><trkpt lat="39.48933184" lon="-0.41337258"><ele>39.6</ele><time>2022-11-01T15:57:24.0000000+00:00</time></trkpt><trkpt lat="39.48937459" lon="-0.41336294"><ele>39.4</ele><time>2022-11-01T15:57:25.0000000+00:00</time></trkpt><trkpt lat="39.4894087" lon="-0.41335515"><ele>39.4</ele><time>2022-11-01T15:57:26.0000000+00:00</time></trkpt><trkpt lat="39.48945137" lon="-0.41334878"><ele>39.4</ele><time>2022-11-01T15:57:27.0000000+00:00</time></trkpt><trkpt lat="39.48949143" lon="-0.41333805"><ele>39.4</ele><time>2022-11-01T15:57:28.0000000+00:00</time></trkpt><trkpt lat="39.48952798" lon="-0.4133295"><ele>39.2</ele><time>2022-11-01T15:57:29.0000000+00:00</time></trkpt><trkpt lat="39.48956377" lon="-0.41332204"><ele>39.2</ele><time>2022-11-01T15:57:30.0000000+00:00</time></trkpt><trkpt lat="39.48959671" lon="-0.41331341"><ele>39.2</ele><time>2022-11-01T15:57:31.0000000+00:00</time></trkpt><trkpt lat="39.48963535" lon="-0.41330167"><ele>39.2</ele><time>2022-11-01T15:57:32.0000000+00:00</time></trkpt><trkpt lat="39.48965647" lon="-0.41328834"><ele>39.4</ele><time>2022-11-01T15:57:33.0000000+00:00</time></trkpt><trkpt lat="39.48967793" lon="-0.41326521"><ele>39.4</ele><time>2022-11-01T15:57:34.0000000+00:00</time></trkpt><trkpt lat="39.48968438" lon="-0.41323344"><ele>39.4</ele><time>2022-11-01T15:57:35.0000000+00:00</time></trkpt><trkpt lat="39.48967458" lon="-0.4131948"><ele>39.4</ele><time>2022-11-01T15:57:36.0000000+00:00</time></trkpt><trkpt lat="39.48966083" lon="-0.41316915"><ele>39.6</ele><time>2022-11-01T15:57:37.0000000+00:00</time></trkpt><trkpt lat="39.48964063" lon="-0.41312682"><ele>39.6</ele><time>2022-11-01T15:57:38.0000000+00:00</time></trkpt><trkpt lat="39.48962219" lon="-0.41308374"><ele>39.4</ele><time>2022-11-01T15:57:39.0000000+00:00</time></trkpt><trkpt lat="39.4896061" lon="-0.41304736"><ele>39.4</ele><time>2022-11-01T15:57:40.0000000+00:00</time></trkpt><trkpt lat="39.4895838" lon="-0.41299062"><ele>39.4</ele><time>2022-11-01T15:57:41.0000000+00:00</time></trkpt><trkpt lat="39.48956595" lon="-0.41293857"><ele>39.4</ele><time>2022-11-01T15:57:42.0000000+00:00</time></trkpt><trkpt lat="39.48955203" lon="-0.41289641"><ele>39.4</ele><time>2022-11-01T15:57:43.0000000+00:00</time></trkpt><trkpt lat="39.48952982" lon="-0.41283472"><ele>39.4</ele><time>2022-11-01T15:57:44.0000000+00:00</time></trkpt><trkpt lat="39.48951507" lon="-0.41279214"><ele>39.4</ele><time>2022-11-01T15:57:45.0000000+00:00</time></trkpt><trkpt lat="39.48949562" lon="-0.41273698"><ele>39.4</ele><time>2022-11-01T15:57:46.0000000+00:00</time></trkpt><trkpt lat="39.48947961" lon="-0.41268166"><ele>39.6</ele><time>2022-11-01T15:57:47.0000000+00:00</time></trkpt><trkpt lat="39.48946193" lon="-0.41261922"><ele>39.4</ele><time>2022-11-01T15:57:48.0000000+00:00</time></trkpt><trkpt lat="39.48945019" lon="-0.41257706"><ele>39.2</ele><time>2022-11-01T15:57:49.0000000+00:00</time></trkpt><trkpt lat="39.48943536" lon="-0.41251285"><ele>39.0</ele><time>2022-11-01T15:57:50.0000000+00:00</time></trkpt><trkpt lat="39.48942714" lon="-0.41247027"><ele>38.8</ele><time>2022-11-01T15:57:51.0000000+00:00</time></trkpt><trkpt lat="39.48941675" lon="-0.41241596"><ele>38.8</ele><time>2022-11-01T15:57:52.0000000+00:00</time></trkpt><trkpt lat="39.48940426" lon="-0.41235116"><ele>38.8</ele><time>2022-11-01T15:57:53.0000000+00:00</time></trkpt><trkpt lat="39.48939026" lon="-0.41231076"><ele>38.8</ele><time>2022-11-01T15:57:54.0000000+00:00</time></trkpt><trkpt lat="39.4893657" lon="-0.41227288"><ele>38.8</ele><time>2022-11-01T15:57:55.0000000+00:00</time></trkpt><trkpt lat="39.48932279" lon="-0.41225678"><ele>38.8</ele><time>2022-11-01T15:57:56.0000000+00:00</time></trkpt><trkpt lat="39.48928985" lon="-0.41226341"><ele>38.8</ele><time>2022-11-01T15:57:57.0000000+00:00</time></trkpt><trkpt lat="39.4892523" lon="-0.41227631"><ele>38.8</ele><time>2022-11-01T15:57:58.0000000+00:00</time></trkpt><trkpt lat="39.48920603" lon="-0.4122909"><ele>38.6</ele><time>2022-11-01T15:57:59.0000000+00:00</time></trkpt><trkpt lat="39.48916311" lon="-0.41230666"><ele>38.4</ele><time>2022-11-01T15:58:00.0000000+00:00</time></trkpt><trkpt lat="39.48912799" lon="-0.41232023"><ele>38.4</ele><time>2022-11-01T15:58:01.0000000+00:00</time></trkpt><trkpt lat="39.48907787" lon="-0.412337"><ele>38.4</ele><time>2022-11-01T15:58:02.0000000+00:00</time></trkpt><trkpt lat="39.48904317" lon="-0.4123489"><ele>38.4</ele><time>2022-11-01T15:58:03.0000000+00:00</time></trkpt><trkpt lat="39.48900151" lon="-0.4123634"><ele>38.4</ele><time>2022-11-01T15:58:04.0000000+00:00</time></trkpt><trkpt lat="39.4889513" lon="-0.41238016"><ele>38.6</ele><time>2022-11-01T15:58:05.0000000+00:00</time></trkpt><trkpt lat="39.48891861" lon="-0.41239006"><ele>38.6</ele><time>2022-11-01T15:58:06.0000000+00:00</time></trkpt><trkpt lat="39.48887729" lon="-0.41240078"><ele>38.6</ele><time>2022-11-01T15:58:07.0000000+00:00</time></trkpt><trkpt lat="39.4888327" lon="-0.41241411"><ele>38.6</ele><time>2022-11-01T15:58:08.0000000+00:00</time></trkpt><trkpt lat="39.48880571" lon="-0.41242342"><ele>38.6</ele><time>2022-11-01T15:58:09.0000000+00:00</time></trkpt><trkpt lat="39.48876623" lon="-0.41242375"><ele>38.6</ele><time>2022-11-01T15:58:10.0000000+00:00</time></trkpt><trkpt lat="39.48874192" lon="-0.4124152"><ele>38.6</ele><time>2022-11-01T15:58:11.0000000+00:00</time></trkpt><trkpt lat="39.48871594" lon="-0.41239081"><ele>38.6</ele><time>2022-11-01T15:58:12.0000000+00:00</time></trkpt><trkpt lat="39.48870027" lon="-0.41235209"><ele>38.6</ele><time>2022-11-01T15:58:13.0000000+00:00</time></trkpt><trkpt lat="39.48868786" lon="-0.41230481"><ele>38.6</ele><time>2022-11-01T15:58:14.0000000+00:00</time></trkpt><trkpt lat="39.48867202" lon="-0.41225561"><ele>38.6</ele><time>2022-11-01T15:58:15.0000000+00:00</time></trkpt><trkpt lat="39.48864017" lon="-0.41220968"><ele>38.6</ele><time>2022-11-01T15:58:16.0000000+00:00</time></trkpt><trkpt lat="39.48860597" lon="-0.41219551"><ele>38.8</ele><time>2022-11-01T15:58:17.0000000+00:00</time></trkpt><trkpt lat="39.48857646" lon="-0.4121935"><ele>38.6</ele><time>2022-11-01T15:58:18.0000000+00:00</time></trkpt><trkpt lat="39.48853011" lon="-0.41219861"><ele>38.6</ele><time>2022-11-01T15:58:19.0000000+00:00</time></trkpt><trkpt lat="39.48849466" lon="-0.41220448"><ele>38.6</ele><time>2022-11-01T15:58:20.0000000+00:00</time></trkpt><trkpt lat="39.48844872" lon="-0.41221236"><ele>38.6</ele><time>2022-11-01T15:58:21.0000000+00:00</time></trkpt><trkpt lat="39.48839089" lon="-0.41222376"><ele>38.6</ele><time>2022-11-01T15:58:22.0000000+00:00</time></trkpt><trkpt lat="39.48834403" lon="-0.41223608"><ele>38.4</ele><time>2022-11-01T15:58:23.0000000+00:00</time></trkpt><trkpt lat="39.48830782" lon="-0.41225083"><ele>38.4</ele><time>2022-11-01T15:58:24.0000000+00:00</time></trkpt><trkpt lat="39.48826231" lon="-0.41226131"><ele>38.4</ele><time>2022-11-01T15:58:25.0000000+00:00</time></trkpt><trkpt lat="39.48821068" lon="-0.41225653"><ele>38.4</ele><time>2022-11-01T15:58:26.0000000+00:00</time></trkpt><trkpt lat="39.48818168" lon="-0.41223734"><ele>38.4</ele><time>2022-11-01T15:58:27.0000000+00:00</time></trkpt><trkpt lat="39.48814547" lon="-0.41219593"><ele>38.4</ele><time>2022-11-01T15:58:28.0000000+00:00</time></trkpt><trkpt lat="39.48812611" lon="-0.41215679"><ele>38.4</ele><time>2022-11-01T15:58:29.0000000+00:00</time></trkpt><trkpt lat="39.48810238" lon="-0.41210474"><ele>38.6</ele><time>2022-11-01T15:58:30.0000000+00:00</time></trkpt><trkpt lat="39.48807732" lon="-0.41204791"><ele>38.6</ele><time>2022-11-01T15:58:31.0000000+00:00</time></trkpt><trkpt lat="39.48805662" lon="-0.41199963"><ele>38.8</ele><time>2022-11-01T15:58:32.0000000+00:00</time></trkpt><trkpt lat="39.48803885" lon="-0.41196224"><ele>38.8</ele><time>2022-11-01T15:58:33.0000000+00:00</time></trkpt><trkpt lat="39.48801194" lon="-0.41192411"><ele>38.8</ele><time>2022-11-01T15:58:34.0000000+00:00</time></trkpt><trkpt lat="39.48797716" lon="-0.41190634"><ele>38.8</ele><time>2022-11-01T15:58:35.0000000+00:00</time></trkpt><trkpt lat="39.48793693" lon="-0.41190927"><ele>38.4</ele><time>2022-11-01T15:58:36.0000000+00:00</time></trkpt><trkpt lat="39.48789091" lon="-0.41192872"><ele>38.2</ele><time>2022-11-01T15:58:37.0000000+00:00</time></trkpt><trkpt lat="39.48786073" lon="-0.41194682"><ele>38.0</ele><time>2022-11-01T15:58:38.0000000+00:00</time></trkpt><trkpt lat="39.48781916" lon="-0.41196945"><ele>37.8</ele><time>2022-11-01T15:58:39.0000000+00:00</time></trkpt><trkpt lat="39.48776686" lon="-0.41200122"><ele>37.8</ele><time>2022-11-01T15:58:40.0000000+00:00</time></trkpt><trkpt lat="39.48773014" lon="-0.41202293"><ele>37.8</ele><time>2022-11-01T15:58:41.0000000+00:00</time></trkpt><trkpt lat="39.4876858" lon="-0.41205009"><ele>37.8</ele><time>2022-11-01T15:58:42.0000000+00:00</time></trkpt><trkpt lat="39.48763333" lon="-0.41208118"><ele>37.8</ele><time>2022-11-01T15:58:43.0000000+00:00</time></trkpt><trkpt lat="39.48759897" lon="-0.41210013"><ele>37.8</ele><time>2022-11-01T15:58:44.0000000+00:00</time></trkpt><trkpt lat="39.48754801" lon="-0.41213139"><ele>37.8</ele><time>2022-11-01T15:58:45.0000000+00:00</time></trkpt><trkpt lat="39.48750333" lon="-0.41215528"><ele>37.8</ele><time>2022-11-01T15:58:46.0000000+00:00</time></trkpt><trkpt lat="39.48746729" lon="-0.41217824"><ele>38.0</ele><time>2022-11-01T15:58:47.0000000+00:00</time></trkpt><trkpt lat="39.48741197" lon="-0.41221077"><ele>37.8</ele><time>2022-11-01T15:58:48.0000000+00:00</time></trkpt><trkpt lat="39.48737316" lon="-0.41223524"><ele>38.0</ele><time>2022-11-01T15:58:49.0000000+00:00</time></trkpt><trkpt lat="39.48732656" lon="-0.41226693"><ele>38.0</ele><time>2022-11-01T15:58:50.0000000+00:00</time></trkpt><trkpt lat="39.48726931" lon="-0.41230188"><ele>38.0</ele><time>2022-11-01T15:58:51.0000000+00:00</time></trkpt><trkpt lat="39.4872315" lon="-0.41232535"><ele>38.0</ele><time>2022-11-01T15:58:52.0000000+00:00</time></trkpt><trkpt lat="39.4871849" lon="-0.41235468"><ele>38.0</ele><time>2022-11-01T15:58:53.0000000+00:00</time></trkpt><trkpt lat="39.48712681" lon="-0.41239098"><ele>37.8</ele><time>2022-11-01T15:58:54.0000000+00:00</time></trkpt><trkpt lat="39.48708516" lon="-0.41241436"><ele>37.8</ele><time>2022-11-01T15:58:55.0000000+00:00</time></trkpt><trkpt lat="39.48703285" lon="-0.41243834"><ele>37.8</ele><time>2022-11-01T15:58:56.0000000+00:00</time></trkpt><trkpt lat="39.48698072" lon="-0.41245895"><ele>37.8</ele><time>2022-11-01T15:58:57.0000000+00:00</time></trkpt><trkpt lat="39.48691945" lon="-0.41248477"><ele>37.8</ele><time>2022-11-01T15:58:58.0000000+00:00</time></trkpt><trkpt lat="39.48687888" lon="-0.41250564"><ele>37.8</ele><time>2022-11-01T15:58:59.0000000+00:00</time></trkpt><trkpt lat="39.48681442" lon="-0.41253607"><ele>37.8</ele><time>2022-11-01T15:59:00.0000000+00:00</time></trkpt><trkpt lat="39.48677058" lon="-0.41255644"><ele>37.8</ele><time>2022-11-01T15:59:01.0000000+00:00</time></trkpt><trkpt lat="39.48671627" lon="-0.41258108"><ele>37.8</ele><time>2022-11-01T15:59:02.0000000+00:00</time></trkpt><trkpt lat="39.4866519" lon="-0.41261318"><ele>37.8</ele><time>2022-11-01T15:59:03.0000000+00:00</time></trkpt><trkpt lat="39.4866006" lon="-0.41264101"><ele>38.0</ele><time>2022-11-01T15:59:04.0000000+00:00</time></trkpt><trkpt lat="39.48656095" lon="-0.41266481"><ele>38.2</ele><time>2022-11-01T15:59:05.0000000+00:00</time></trkpt><trkpt lat="39.48650077" lon="-0.412697"><ele>38.2</ele><time>2022-11-01T15:59:06.0000000+00:00</time></trkpt><trkpt lat="39.48645878" lon="-0.41271821"><ele>38.2</ele><time>2022-11-01T15:59:07.0000000+00:00</time></trkpt><trkpt lat="39.48639792" lon="-0.41275031"><ele>38.2</ele><time>2022-11-01T15:59:08.0000000+00:00</time></trkpt><trkpt lat="39.4863473" lon="-0.41277428"><ele>38.2</ele><time>2022-11-01T15:59:09.0000000+00:00</time></trkpt><trkpt lat="39.4863079" lon="-0.4127939"><ele>38.2</ele><time>2022-11-01T15:59:10.0000000+00:00</time></trkpt><trkpt lat="39.48625635" lon="-0.41281669"><ele>38.0</ele><time>2022-11-01T15:59:11.0000000+00:00</time></trkpt><trkpt lat="39.48619307" lon="-0.41284469"><ele>38.0</ele><time>2022-11-01T15:59:12.0000000+00:00</time></trkpt><trkpt lat="39.48615133" lon="-0.41286506"><ele>38.0</ele><time>2022-11-01T15:59:13.0000000+00:00</time></trkpt><trkpt lat="39.48608763" lon="-0.41289096"><ele>38.0</ele><time>2022-11-01T15:59:14.0000000+00:00</time></trkpt><trkpt lat="39.48604513" lon="-0.41290848"><ele>38.0</ele><time>2022-11-01T15:59:15.0000000+00:00</time></trkpt><trkpt lat="39.48599232" lon="-0.41293345"><ele>38.0</ele><time>2022-11-01T15:59:16.0000000+00:00</time></trkpt><trkpt lat="39.48593994" lon="-0.41295826"><ele>38.0</ele><time>2022-11-01T15:59:17.0000000+00:00</time></trkpt><trkpt lat="39.48588688" lon="-0.41298383"><ele>38.0</ele><time>2022-11-01T15:59:18.0000000+00:00</time></trkpt><trkpt lat="39.48583433" lon="-0.41300797"><ele>38.0</ele><time>2022-11-01T15:59:19.0000000+00:00</time></trkpt><trkpt lat="39.48577188" lon="-0.41303144"><ele>38.0</ele><time>2022-11-01T15:59:20.0000000+00:00</time></trkpt><trkpt lat="39.4857298" lon="-0.41303773"><ele>38.0</ele><time>2022-11-01T15:59:21.0000000+00:00</time></trkpt><trkpt lat="39.48567851" lon="-0.41303001"><ele>38.0</ele><time>2022-11-01T15:59:22.0000000+00:00</time></trkpt><trkpt lat="39.48561732" lon="-0.41300076"><ele>38.0</ele><time>2022-11-01T15:59:23.0000000+00:00</time></trkpt><trkpt lat="39.48556594" lon="-0.41296698"><ele>38.4</ele><time>2022-11-01T15:59:24.0000000+00:00</time></trkpt><trkpt lat="39.48552436" lon="-0.41293974"><ele>38.4</ele><time>2022-11-01T15:59:25.0000000+00:00</time></trkpt><trkpt lat="39.48546686" lon="-0.41290546"><ele>38.6</ele><time>2022-11-01T15:59:26.0000000+00:00</time></trkpt><trkpt lat="39.48542059" lon="-0.41287822"><ele>38.8</ele><time>2022-11-01T15:59:27.0000000+00:00</time></trkpt><trkpt lat="39.48537173" lon="-0.41285818"><ele>39.0</ele><time>2022-11-01T15:59:28.0000000+00:00</time></trkpt><trkpt lat="39.48531683" lon="-0.41284553"><ele>39.0</ele><time>2022-11-01T15:59:29.0000000+00:00</time></trkpt><trkpt lat="39.48526494" lon="-0.41284913"><ele>39.2</ele><time>2022-11-01T15:59:30.0000000+00:00</time></trkpt><trkpt lat="39.48521423" lon="-0.41286632"><ele>39.2</ele><time>2022-11-01T15:59:31.0000000+00:00</time></trkpt><trkpt lat="39.48516402" lon="-0.41289046"><ele>39.2</ele><time>2022-11-01T15:59:32.0000000+00:00</time></trkpt><trkpt lat="39.48511826" lon="-0.41291485"><ele>39.2</ele><time>2022-11-01T15:59:33.0000000+00:00</time></trkpt><trkpt lat="39.48507886" lon="-0.41293387"><ele>39.4</ele><time>2022-11-01T15:59:34.0000000+00:00</time></trkpt><trkpt lat="39.48504802" lon="-0.41294787"><ele>39.4</ele><time>2022-11-01T15:59:35.0000000+00:00</time></trkpt><trkpt lat="39.48502824" lon="-0.4129586"><ele>39.4</ele><time>2022-11-01T15:59:36.0000000+00:00</time></trkpt><trkpt lat="39.48501256" lon="-0.41296053"><ele>39.4</ele><time>2022-11-01T15:59:37.0000000+00:00</time></trkpt><trkpt lat="39.4849984" lon="-0.41295508"><ele>39.6</ele><time>2022-11-01T15:59:38.0000000+00:00</time></trkpt><trkpt lat="39.48498775" lon="-0.41294226"><ele>39.6</ele><time>2022-11-01T15:59:39.0000000+00:00</time></trkpt><trkpt lat="39.48497593" lon="-0.41291979"><ele>39.6</ele><time>2022-11-01T15:59:40.0000000+00:00</time></trkpt><trkpt lat="39.48496303" lon="-0.41289163"><ele>39.6</ele><time>2022-11-01T15:59:41.0000000+00:00</time></trkpt><trkpt lat="39.48495054" lon="-0.41285743"><ele>39.6</ele><time>2022-11-01T15:59:42.0000000+00:00</time></trkpt><trkpt lat="39.48493579" lon="-0.41282013"><ele>39.8</ele><time>2022-11-01T15:59:43.0000000+00:00</time></trkpt><trkpt lat="39.48492078" lon="-0.41278032"><ele>39.8</ele><time>2022-11-01T15:59:44.0000000+00:00</time></trkpt><trkpt lat="39.48490427" lon="-0.41272986"><ele>39.8</ele><time>2022-11-01T15:59:45.0000000+00:00</time></trkpt><trkpt lat="39.48489321" lon="-0.41269574"><ele>39.8</ele><time>2022-11-01T15:59:46.0000000+00:00</time></trkpt><trkpt lat="39.48487552" lon="-0.41264285"><ele>39.8</ele><time>2022-11-01T15:59:47.0000000+00:00</time></trkpt><trkpt lat="39.48486085" lon="-0.4125929"><ele>39.8</ele><time>2022-11-01T15:59:48.0000000+00:00</time></trkpt><trkpt lat="39.48484828" lon="-0.41255334"><ele>39.8</ele><time>2022-11-01T15:59:49.0000000+00:00</time></trkpt><trkpt lat="39.48483076" lon="-0.41249391"><ele>39.8</ele><time>2022-11-01T15:59:50.0000000+00:00</time></trkpt><trkpt lat="39.48481266" lon="-0.41244429"><ele>39.8</ele><time>2022-11-01T15:59:51.0000000+00:00</time></trkpt><trkpt lat="39.48479648" lon="-0.41240397"><ele>39.8</ele><time>2022-11-01T15:59:52.0000000+00:00</time></trkpt><trkpt lat="39.4847715" lon="-0.41234664"><ele>39.6</ele><time>2022-11-01T15:59:53.0000000+00:00</time></trkpt><trkpt lat="39.48474443" lon="-0.41230037"><ele>39.6</ele><time>2022-11-01T15:59:54.0000000+00:00</time></trkpt><trkpt lat="39.48472272" lon="-0.41226684"><ele>39.4</ele><time>2022-11-01T15:59:55.0000000+00:00</time></trkpt><trkpt lat="39.4846902" lon="-0.4122132"><ele>39.4</ele><time>2022-11-01T15:59:56.0000000+00:00</time></trkpt><trkpt lat="39.48466564" lon="-0.41216441"><ele>39.4</ele><time>2022-11-01T15:59:57.0000000+00:00</time></trkpt><trkpt lat="39.48463898" lon="-0.41211345"><ele>39.2</ele><time>2022-11-01T15:59:58.0000000+00:00</time></trkpt><trkpt lat="39.48461032" lon="-0.41206308"><ele>39.2</ele><time>2022-11-01T15:59:59.0000000+00:00</time></trkpt><trkpt lat="39.48458199" lon="-0.41201396"><ele>39.2</ele><time>2022-11-01T16:00:00.0000000+00:00</time></trkpt><trkpt lat="39.48456019" lon="-0.41197456"><ele>39.2</ele><time>2022-11-01T16:00:01.0000000+00:00</time></trkpt><trkpt lat="39.48453664" lon="-0.41192167"><ele>39.2</ele><time>2022-11-01T16:00:02.0000000+00:00</time></trkpt><trkpt lat="39.48450546" lon="-0.41185588"><ele>39.2</ele><time>2022-11-01T16:00:03.0000000+00:00</time></trkpt><trkpt lat="39.48448048" lon="-0.41179737"><ele>39.2</ele><time>2022-11-01T16:00:04.0000000+00:00</time></trkpt><trkpt lat="39.48445911" lon="-0.41175001"><ele>39.2</ele><time>2022-11-01T16:00:05.0000000+00:00</time></trkpt><trkpt lat="39.48442717" lon="-0.41168137"><ele>39.4</ele><time>2022-11-01T16:00:06.0000000+00:00</time></trkpt><trkpt lat="39.4844042" lon="-0.41163677"><ele>39.4</ele><time>2022-11-01T16:00:07.0000000+00:00</time></trkpt><trkpt lat="39.48437378" lon="-0.41158439"><ele>39.4</ele><time>2022-11-01T16:00:08.0000000+00:00</time></trkpt><trkpt lat="39.48433656" lon="-0.41152462"><ele>39.4</ele><time>2022-11-01T16:00:09.0000000+00:00</time></trkpt><trkpt lat="39.48430589" lon="-0.4114745"><ele>39.4</ele><time>2022-11-01T16:00:10.0000000+00:00</time></trkpt><trkpt lat="39.48428082" lon="-0.41143075"><ele>39.2</ele><time>2022-11-01T16:00:11.0000000+00:00</time></trkpt><trkpt lat="39.48424269" lon="-0.41136512"><ele>39.2</ele><time>2022-11-01T16:00:12.0000000+00:00</time></trkpt><trkpt lat="39.48421058" lon="-0.41131206"><ele>39.2</ele><time>2022-11-01T16:00:13.0000000+00:00</time></trkpt><trkpt lat="39.48418317" lon="-0.41126738"><ele>39.2</ele><time>2022-11-01T16:00:14.0000000+00:00</time></trkpt><trkpt lat="39.48415099" lon="-0.41121382"><ele>39.2</ele><time>2022-11-01T16:00:15.0000000+00:00</time></trkpt><trkpt lat="39.48411042" lon="-0.41114735"><ele>39.0</ele><time>2022-11-01T16:00:16.0000000+00:00</time></trkpt><trkpt lat="39.48407706" lon="-0.41109103"><ele>39.0</ele><time>2022-11-01T16:00:17.0000000+00:00</time></trkpt><trkpt lat="39.48404353" lon="-0.41103487"><ele>39.0</ele><time>2022-11-01T16:00:18.0000000+00:00</time></trkpt><trkpt lat="39.48401336" lon="-0.41098139"><ele>39.0</ele><time>2022-11-01T16:00:19.0000000+00:00</time></trkpt><trkpt lat="39.48398511" lon="-0.41092775"><ele>39.0</ele><time>2022-11-01T16:00:20.0000000+00:00</time></trkpt><trkpt lat="39.48396374" lon="-0.41088165"><ele>39.0</ele><time>2022-11-01T16:00:21.0000000+00:00</time></trkpt><trkpt lat="39.48393641" lon="-0.41081912"><ele>39.2</ele><time>2022-11-01T16:00:22.0000000+00:00</time></trkpt><trkpt lat="39.48391009" lon="-0.41075542"><ele>39.2</ele><time>2022-11-01T16:00:23.0000000+00:00</time></trkpt><trkpt lat="39.48388117" lon="-0.41067889"><ele>39.2</ele><time>2022-11-01T16:00:24.0000000+00:00</time></trkpt><trkpt lat="39.48385997" lon="-0.4106115"><ele>39.0</ele><time>2022-11-01T16:00:25.0000000+00:00</time></trkpt><trkpt lat="39.48383717" lon="-0.41054511"><ele>39.2</ele><time>2022-11-01T16:00:26.0000000+00:00</time></trkpt><trkpt lat="39.48381965" lon="-0.41049038"><ele>39.0</ele><time>2022-11-01T16:00:27.0000000+00:00</time></trkpt><trkpt lat="39.48379367" lon="-0.41041067"><ele>39.0</ele><time>2022-11-01T16:00:28.0000000+00:00</time></trkpt><trkpt lat="39.48377414" lon="-0.41034663"><ele>39.0</ele><time>2022-11-01T16:00:29.0000000+00:00</time></trkpt><trkpt lat="39.48375997" lon="-0.41029642"><ele>39.0</ele><time>2022-11-01T16:00:30.0000000+00:00</time></trkpt><trkpt lat="39.4837391" lon="-0.41022291"><ele>39.0</ele><time>2022-11-01T16:00:31.0000000+00:00</time></trkpt><trkpt lat="39.4837194" lon="-0.41016324"><ele>39.0</ele><time>2022-11-01T16:00:32.0000000+00:00</time></trkpt><trkpt lat="39.48370541" lon="-0.41010951"><ele>39.0</ele><time>2022-11-01T16:00:33.0000000+00:00</time></trkpt><trkpt lat="39.48368437" lon="-0.41002804"><ele>39.0</ele><time>2022-11-01T16:00:34.0000000+00:00</time></trkpt><trkpt lat="39.483664" lon="-0.40996232"><ele>39.0</ele><time>2022-11-01T16:00:35.0000000+00:00</time></trkpt><trkpt lat="39.48363927" lon="-0.40989845"><ele>39.0</ele><time>2022-11-01T16:00:36.0000000+00:00</time></trkpt><trkpt lat="39.48361899" lon="-0.40984824"><ele>38.8</ele><time>2022-11-01T16:00:37.0000000+00:00</time></trkpt><trkpt lat="39.48359451" lon="-0.40978538"><ele>38.8</ele><time>2022-11-01T16:00:38.0000000+00:00</time></trkpt><trkpt lat="39.48357029" lon="-0.4097231"><ele>38.6</ele><time>2022-11-01T16:00:39.0000000+00:00</time></trkpt><trkpt lat="39.48354548" lon="-0.4096625"><ele>38.6</ele><time>2022-11-01T16:00:40.0000000+00:00</time></trkpt><trkpt lat="39.48352134" lon="-0.4096019"><ele>38.6</ele><time>2022-11-01T16:00:41.0000000+00:00</time></trkpt><trkpt lat="39.48349695" lon="-0.40954188"><ele>38.6</ele><time>2022-11-01T16:00:42.0000000+00:00</time></trkpt><trkpt lat="39.48347448" lon="-0.40948154"><ele>38.6</ele><time>2022-11-01T16:00:43.0000000+00:00</time></trkpt><trkpt lat="39.48345202" lon="-0.40941783"><ele>38.6</ele><time>2022-11-01T16:00:44.0000000+00:00</time></trkpt><trkpt lat="39.48342931" lon="-0.40935363"><ele>38.4</ele><time>2022-11-01T16:00:45.0000000+00:00</time></trkpt><trkpt lat="39.48340626" lon="-0.40929655"><ele>38.4</ele><time>2022-11-01T16:00:46.0000000+00:00</time></trkpt><trkpt lat="39.48338572" lon="-0.40925413"><ele>38.4</ele><time>2022-11-01T16:00:47.0000000+00:00</time></trkpt><trkpt lat="39.48336736" lon="-0.40923058"><ele>38.2</ele><time>2022-11-01T16:00:48.0000000+00:00</time></trkpt><trkpt lat="39.48335152" lon="-0.40922438"><ele>38.2</ele><time>2022-11-01T16:00:49.0000000+00:00</time></trkpt><trkpt lat="39.48334021" lon="-0.40923905"><ele>38.0</ele><time>2022-11-01T16:00:50.0000000+00:00</time></trkpt><trkpt lat="39.48332981" lon="-0.40925707"><ele>38.0</ele><time>2022-11-01T16:00:51.0000000+00:00</time></trkpt><trkpt lat="39.48331255" lon="-0.40927911"><ele>38.0</ele><time>2022-11-01T16:00:52.0000000+00:00</time></trkpt><trkpt lat="39.48329184" lon="-0.40929864"><ele>38.0</ele><time>2022-11-01T16:00:53.0000000+00:00</time></trkpt><trkpt lat="39.48326888" lon="-0.40931792"><ele>38.0</ele><time>2022-11-01T16:00:54.0000000+00:00</time></trkpt><trkpt lat="39.4832434" lon="-0.40933418"><ele>38.0</ele><time>2022-11-01T16:00:55.0000000+00:00</time></trkpt><trkpt lat="39.48321473" lon="-0.40934365"><ele>38.0</ele><time>2022-11-01T16:00:56.0000000+00:00</time></trkpt><trkpt lat="39.48318388" lon="-0.40935455"><ele>38.0</ele><time>2022-11-01T16:00:57.0000000+00:00</time></trkpt><trkpt lat="39.48315119" lon="-0.40936343"><ele>38.0</ele><time>2022-11-01T16:00:58.0000000+00:00</time></trkpt><trkpt lat="39.48311498" lon="-0.40936712"><ele>38.0</ele><time>2022-11-01T16:00:59.0000000+00:00</time></trkpt><trkpt lat="39.48307634" lon="-0.40937374"><ele>38.0</ele><time>2022-11-01T16:01:00.0000000+00:00</time></trkpt><trkpt lat="39.48303846" lon="-0.40938254"><ele>38.0</ele><time>2022-11-01T16:01:01.0000000+00:00</time></trkpt><trkpt lat="39.48299881" lon="-0.40939327"><ele>38.0</ele><time>2022-11-01T16:01:02.0000000+00:00</time></trkpt><trkpt lat="39.48295849" lon="-0.40940291"><ele>38.0</ele><time>2022-11-01T16:01:03.0000000+00:00</time></trkpt><trkpt lat="39.48291784" lon="-0.40941071"><ele>38.0</ele><time>2022-11-01T16:01:04.0000000+00:00</time></trkpt><trkpt lat="39.48288021" lon="-0.40942152"><ele>38.0</ele><time>2022-11-01T16:01:05.0000000+00:00</time></trkpt><trkpt lat="39.48283268" lon="-0.40943577"><ele>38.0</ele><time>2022-11-01T16:01:06.0000000+00:00</time></trkpt><trkpt lat="39.48278742" lon="-0.40944767"><ele>38.0</ele><time>2022-11-01T16:01:07.0000000+00:00</time></trkpt><trkpt lat="39.48275037" lon="-0.40945756"><ele>38.2</ele><time>2022-11-01T16:01:08.0000000+00:00</time></trkpt><trkpt lat="39.48270612" lon="-0.40946955"><ele>38.2</ele><time>2022-11-01T16:01:09.0000000+00:00</time></trkpt><trkpt lat="39.48265926" lon="-0.40948036"><ele>38.2</ele><time>2022-11-01T16:01:10.0000000+00:00</time></trkpt><trkpt lat="39.48261484" lon="-0.40949553"><ele>38.2</ele><time>2022-11-01T16:01:11.0000000+00:00</time></trkpt><trkpt lat="39.48257075" lon="-0.40951196"><ele>38.4</ele><time>2022-11-01T16:01:12.0000000+00:00</time></trkpt><trkpt lat="39.4825254" lon="-0.40952973"><ele>38.6</ele><time>2022-11-01T16:01:13.0000000+00:00</time></trkpt><trkpt lat="39.48247788" lon="-0.40954708"><ele>38.6</ele><time>2022-11-01T16:01:14.0000000+00:00</time></trkpt><trkpt lat="39.48242826" lon="-0.40956485"><ele>38.8</ele><time>2022-11-01T16:01:15.0000000+00:00</time></trkpt><trkpt lat="39.4823783" lon="-0.40958153"><ele>38.8</ele><time>2022-11-01T16:01:16.0000000+00:00</time></trkpt><trkpt lat="39.48232952" lon="-0.40959871"><ele>38.8</ele><time>2022-11-01T16:01:17.0000000+00:00</time></trkpt><trkpt lat="39.4822804" lon="-0.40961405"><ele>38.6</ele><time>2022-11-01T16:01:18.0000000+00:00</time></trkpt><trkpt lat="39.48222843" lon="-0.40962788"><ele>38.4</ele><time>2022-11-01T16:01:19.0000000+00:00</time></trkpt><trkpt lat="39.48217764" lon="-0.40964289"><ele>38.2</ele><time>2022-11-01T16:01:20.0000000+00:00</time></trkpt><trkpt lat="39.48212718" lon="-0.40965697"><ele>38.2</ele><time>2022-11-01T16:01:21.0000000+00:00</time></trkpt><trkpt lat="39.48208041" lon="-0.40966937"><ele>38.0</ele><time>2022-11-01T16:01:22.0000000+00:00</time></trkpt><trkpt lat="39.48203472" lon="-0.40968035"><ele>38.0</ele><time>2022-11-01T16:01:23.0000000+00:00</time></trkpt><trkpt lat="39.48198938" lon="-0.40968974"><ele>38.0</ele><time>2022-11-01T16:01:24.0000000+00:00</time></trkpt><trkpt lat="39.48194638" lon="-0.40970299"><ele>37.8</ele><time>2022-11-01T16:01:25.0000000+00:00</time></trkpt><trkpt lat="39.48190045" lon="-0.40971774"><ele>37.8</ele><time>2022-11-01T16:01:26.0000000+00:00</time></trkpt><trkpt lat="39.48185451" lon="-0.40974087"><ele>37.8</ele><time>2022-11-01T16:01:27.0000000+00:00</time></trkpt><trkpt lat="39.48180682" lon="-0.40977423"><ele>37.8</ele><time>2022-11-01T16:01:28.0000000+00:00</time></trkpt><trkpt lat="39.48176273" lon="-0.40982109"><ele>37.8</ele><time>2022-11-01T16:01:29.0000000+00:00</time></trkpt><trkpt lat="39.48172535" lon="-0.4098811"><ele>37.8</ele><time>2022-11-01T16:01:30.0000000+00:00</time></trkpt><trkpt lat="39.48168931" lon="-0.40994288"><ele>37.8</ele><time>2022-11-01T16:01:31.0000000+00:00</time></trkpt><trkpt lat="39.48165234" lon="-0.4100018"><ele>37.6</ele><time>2022-11-01T16:01:32.0000000+00:00</time></trkpt><trkpt lat="39.4816163" lon="-0.41005712"><ele>37.2</ele><time>2022-11-01T16:01:33.0000000+00:00</time></trkpt><trkpt lat="39.48158353" lon="-0.41010657"><ele>37.0</ele><time>2022-11-01T16:01:34.0000000+00:00</time></trkpt><trkpt lat="39.48155377" lon="-0.41015402"><ele>36.6</ele><time>2022-11-01T16:01:35.0000000+00:00</time></trkpt><trkpt lat="39.48152594" lon="-0.41020146"><ele>36.6</ele><time>2022-11-01T16:01:36.0000000+00:00</time></trkpt><trkpt lat="39.48149677" lon="-0.41024915"><ele>36.2</ele><time>2022-11-01T16:01:37.0000000+00:00</time></trkpt><trkpt lat="39.48146392" lon="-0.41029508"><ele>36.2</ele><time>2022-11-01T16:01:38.0000000+00:00</time></trkpt><trkpt lat="39.4814205" lon="-0.41034965"><ele>36.0</ele><time>2022-11-01T16:01:39.0000000+00:00</time></trkpt><trkpt lat="39.48138781" lon="-0.4103924"><ele>36.0</ele><time>2022-11-01T16:01:40.0000000+00:00</time></trkpt><trkpt lat="39.48136007" lon="-0.41043699"><ele>35.8</ele><time>2022-11-01T16:01:41.0000000+00:00</time></trkpt><trkpt lat="39.48133551" lon="-0.41048183"><ele>35.8</ele><time>2022-11-01T16:01:42.0000000+00:00</time></trkpt><trkpt lat="39.48131237" lon="-0.41052232"><ele>35.8</ele><time>2022-11-01T16:01:43.0000000+00:00</time></trkpt><trkpt lat="39.48129175" lon="-0.41055358"><ele>35.8</ele><time>2022-11-01T16:01:44.0000000+00:00</time></trkpt><trkpt lat="39.48127784" lon="-0.41057093"><ele>35.8</ele><time>2022-11-01T16:01:45.0000000+00:00</time></trkpt><trkpt lat="39.48126133" lon="-0.4105892"><ele>35.8</ele><time>2022-11-01T16:01:46.0000000+00:00</time></trkpt><trkpt lat="39.48124087" lon="-0.41060588"><ele>35.8</ele><time>2022-11-01T16:01:47.0000000+00:00</time></trkpt><trkpt lat="39.48122428" lon="-0.41062508"><ele>35.8</ele><time>2022-11-01T16:01:48.0000000+00:00</time></trkpt><trkpt lat="39.48120567" lon="-0.41064058"><ele>35.8</ele><time>2022-11-01T16:01:49.0000000+00:00</time></trkpt><trkpt lat="39.48118488" lon="-0.41065048"><ele>35.8</ele><time>2022-11-01T16:01:50.0000000+00:00</time></trkpt><trkpt lat="39.48116561" lon="-0.41065425"><ele>35.6</ele><time>2022-11-01T16:01:51.0000000+00:00</time></trkpt><trkpt lat="39.48115119" lon="-0.41065802"><ele>35.6</ele><time>2022-11-01T16:01:52.0000000+00:00</time></trkpt><trkpt lat="39.48113275" lon="-0.41066238"><ele>35.6</ele><time>2022-11-01T16:01:53.0000000+00:00</time></trkpt><trkpt lat="39.48112143" lon="-0.41066716"><ele>35.6</ele><time>2022-11-01T16:01:54.0000000+00:00</time></trkpt><trkpt lat="39.48111188" lon="-0.41066959"><ele>35.6</ele><time>2022-11-01T16:01:55.0000000+00:00</time></trkpt><trkpt lat="39.4810962" lon="-0.41066657"><ele>35.6</ele><time>2022-11-01T16:01:56.0000000+00:00</time></trkpt><trkpt lat="39.48108237" lon="-0.41066246"><ele>35.4</ele><time>2022-11-01T16:01:57.0000000+00:00</time></trkpt><trkpt lat="39.48107097" lon="-0.41065718"><ele>35.4</ele><time>2022-11-01T16:01:58.0000000+00:00</time></trkpt><trkpt lat="39.48106033" lon="-0.41065106"><ele>35.4</ele><time>2022-11-01T16:01:59.0000000+00:00</time></trkpt><trkpt lat="39.48105052" lon="-0.41065232"><ele>35.4</ele><time>2022-11-01T16:02:00.0000000+00:00</time></trkpt><trkpt lat="39.4810408" lon="-0.41065559"><ele>35.4</ele><time>2022-11-01T16:02:01.0000000+00:00</time></trkpt><trkpt lat="39.48102973" lon="-0.41065852"><ele>35.4</ele><time>2022-11-01T16:02:02.0000000+00:00</time></trkpt><trkpt lat="39.48101901" lon="-0.41065584"><ele>35.4</ele><time>2022-11-01T16:02:03.0000000+00:00</time></trkpt><trkpt lat="39.48101138" lon="-0.41064788"><ele>35.4</ele><time>2022-11-01T16:02:04.0000000+00:00</time></trkpt><trkpt lat="39.48101079" lon="-0.41063522"><ele>35.6</ele><time>2022-11-01T16:02:05.0000000+00:00</time></trkpt><trkpt lat="39.48101138" lon="-0.41060999"><ele>35.6</ele><time>2022-11-01T16:02:06.0000000+00:00</time></trkpt><trkpt lat="39.48100886" lon="-0.41059264"><ele>35.6</ele><time>2022-11-01T16:02:07.0000000+00:00</time></trkpt><trkpt lat="39.48099487" lon="-0.41056783"><ele>35.6</ele><time>2022-11-01T16:02:08.0000000+00:00</time></trkpt><trkpt lat="39.48097299" lon="-0.41054947"><ele>35.6</ele><time>2022-11-01T16:02:09.0000000+00:00</time></trkpt><trkpt lat="39.48094969" lon="-0.41053657"><ele>35.8</ele><time>2022-11-01T16:02:10.0000000+00:00</time></trkpt><trkpt lat="39.4809325" lon="-0.41052341"><ele>35.8</ele><time>2022-11-01T16:02:11.0000000+00:00</time></trkpt><trkpt lat="39.48090711" lon="-0.41049776"><ele>35.8</ele><time>2022-11-01T16:02:12.0000000+00:00</time></trkpt><trkpt lat="39.48088682" lon="-0.41046892"><ele>35.8</ele><time>2022-11-01T16:02:13.0000000+00:00</time></trkpt><trkpt lat="39.48086201" lon="-0.41044177"><ele>35.8</ele><time>2022-11-01T16:02:14.0000000+00:00</time></trkpt><trkpt lat="39.48083846" lon="-0.41041788"><ele>35.8</ele><time>2022-11-01T16:02:15.0000000+00:00</time></trkpt><trkpt lat="39.48081482" lon="-0.41039818"><ele>36.0</ele><time>2022-11-01T16:02:16.0000000+00:00</time></trkpt><trkpt lat="39.48079345" lon="-0.41038242"><ele>36.0</ele><time>2022-11-01T16:02:17.0000000+00:00</time></trkpt><trkpt lat="39.48076059" lon="-0.41035568"><ele>36.2</ele><time>2022-11-01T16:02:18.0000000+00:00</time></trkpt><trkpt lat="39.48073578" lon="-0.41033096"><ele>36.2</ele><time>2022-11-01T16:02:19.0000000+00:00</time></trkpt><trkpt lat="39.48071575" lon="-0.41030724"><ele>36.2</ele><time>2022-11-01T16:02:20.0000000+00:00</time></trkpt><trkpt lat="39.48068465" lon="-0.41027279"><ele>36.2</ele><time>2022-11-01T16:02:21.0000000+00:00</time></trkpt><trkpt lat="39.480659" lon="-0.41024295"><ele>36.2</ele><time>2022-11-01T16:02:22.0000000+00:00</time></trkpt><trkpt lat="39.48063905" lon="-0.41021495"><ele>36.2</ele><time>2022-11-01T16:02:23.0000000+00:00</time></trkpt><trkpt lat="39.48060603" lon="-0.41018101"><ele>36.2</ele><time>2022-11-01T16:02:24.0000000+00:00</time></trkpt><trkpt lat="39.48058114" lon="-0.41015946"><ele>36.2</ele><time>2022-11-01T16:02:25.0000000+00:00</time></trkpt><trkpt lat="39.48053822" lon="-0.41012527"><ele>36.2</ele><time>2022-11-01T16:02:26.0000000+00:00</time></trkpt><trkpt lat="39.48049639" lon="-0.41009023"><ele>36.4</ele><time>2022-11-01T16:02:27.0000000+00:00</time></trkpt><trkpt lat="39.48046018" lon="-0.41006081"><ele>36.4</ele><time>2022-11-01T16:02:28.0000000+00:00</time></trkpt><trkpt lat="39.48041777" lon="-0.41002552"><ele>36.4</ele><time>2022-11-01T16:02:29.0000000+00:00</time></trkpt><trkpt lat="39.48037108" lon="-0.40999451"><ele>36.4</ele><time>2022-11-01T16:02:30.0000000+00:00</time></trkpt><trkpt lat="39.48032507" lon="-0.40996878"><ele>36.4</ele><time>2022-11-01T16:02:31.0000000+00:00</time></trkpt><trkpt lat="39.48028467" lon="-0.40994941"><ele>36.4</ele><time>2022-11-01T16:02:32.0000000+00:00</time></trkpt><trkpt lat="39.48022784" lon="-0.40992687"><ele>36.4</ele><time>2022-11-01T16:02:33.0000000+00:00</time></trkpt><trkpt lat="39.4801835" lon="-0.40991035"><ele>36.4</ele><time>2022-11-01T16:02:34.0000000+00:00</time></trkpt><trkpt lat="39.48014008" lon="-0.40989719"><ele>36.4</ele><time>2022-11-01T16:02:35.0000000+00:00</time></trkpt><trkpt lat="39.480098" lon="-0.40988772"><ele>36.4</ele><time>2022-11-01T16:02:36.0000000+00:00</time></trkpt><trkpt lat="39.48005383" lon="-0.40988185"><ele>36.4</ele><time>2022-11-01T16:02:37.0000000+00:00</time></trkpt><trkpt lat="39.480011" lon="-0.40987842"><ele>36.4</ele><time>2022-11-01T16:02:38.0000000+00:00</time></trkpt><trkpt lat="39.47996909" lon="-0.40987456"><ele>36.4</ele><time>2022-11-01T16:02:39.0000000+00:00</time></trkpt><trkpt lat="39.47993137" lon="-0.40987523"><ele>36.4</ele><time>2022-11-01T16:02:40.0000000+00:00</time></trkpt><trkpt lat="39.47989114" lon="-0.40988253"><ele>36.4</ele><time>2022-11-01T16:02:41.0000000+00:00</time></trkpt><trkpt lat="39.47984403" lon="-0.40988253"><ele>36.4</ele><time>2022-11-01T16:02:42.0000000+00:00</time></trkpt><trkpt lat="39.47979357" lon="-0.40987884"><ele>36.4</ele><time>2022-11-01T16:02:43.0000000+00:00</time></trkpt><trkpt lat="39.47974378" lon="-0.40988219"><ele>36.4</ele><time>2022-11-01T16:02:44.0000000+00:00</time></trkpt><trkpt lat="39.47969441" lon="-0.40988781"><ele>36.4</ele><time>2022-11-01T16:02:45.0000000+00:00</time></trkpt><trkpt lat="39.4796515" lon="-0.40989753"><ele>36.4</ele><time>2022-11-01T16:02:46.0000000+00:00</time></trkpt><trkpt lat="39.47961512" lon="-0.40990549"><ele>36.4</ele><time>2022-11-01T16:02:47.0000000+00:00</time></trkpt><trkpt lat="39.47958109" lon="-0.40991253"><ele>36.4</ele><time>2022-11-01T16:02:48.0000000+00:00</time></trkpt><trkpt lat="39.47955762" lon="-0.40990097"><ele>36.4</ele><time>2022-11-01T16:02:49.0000000+00:00</time></trkpt><trkpt lat="39.47953055" lon="-0.40989661"><ele>36.2</ele><time>2022-11-01T16:02:50.0000000+00:00</time></trkpt><trkpt lat="39.47950138" lon="-0.40989979"><ele>36.2</ele><time>2022-11-01T16:02:51.0000000+00:00</time></trkpt><trkpt lat="39.47947196" lon="-0.40990415"><ele>36.2</ele><time>2022-11-01T16:02:52.0000000+00:00</time></trkpt><trkpt lat="39.47943667" lon="-0.40990734"><ele>36.0</ele><time>2022-11-01T16:02:53.0000000+00:00</time></trkpt><trkpt lat="39.4793992" lon="-0.40990532"><ele>36.0</ele><time>2022-11-01T16:02:54.0000000+00:00</time></trkpt><trkpt lat="39.4793619" lon="-0.40990298"><ele>36.0</ele><time>2022-11-01T16:02:55.0000000+00:00</time></trkpt><trkpt lat="39.47931756" lon="-0.40990599"><ele>36.0</ele><time>2022-11-01T16:02:56.0000000+00:00</time></trkpt><trkpt lat="39.47926467" lon="-0.40990516"><ele>35.8</ele><time>2022-11-01T16:02:57.0000000+00:00</time></trkpt><trkpt lat="39.47920173" lon="-0.40989812"><ele>35.6</ele><time>2022-11-01T16:02:58.0000000+00:00</time></trkpt><trkpt lat="39.47914012" lon="-0.40988839"><ele>35.2</ele><time>2022-11-01T16:02:59.0000000+00:00</time></trkpt><trkpt lat="39.479076" lon="-0.40988378"><ele>35.0</ele><time>2022-11-01T16:03:00.0000000+00:00</time></trkpt><trkpt lat="39.4790278" lon="-0.40987356"><ele>34.8</ele><time>2022-11-01T16:03:01.0000000+00:00</time></trkpt><trkpt lat="39.47896376" lon="-0.40985864"><ele>34.8</ele><time>2022-11-01T16:03:02.0000000+00:00</time></trkpt><trkpt lat="39.47891498" lon="-0.4098459"><ele>34.6</ele><time>2022-11-01T16:03:03.0000000+00:00</time></trkpt><trkpt lat="39.47887651" lon="-0.40983416"><ele>34.6</ele><time>2022-11-01T16:03:04.0000000+00:00</time></trkpt><trkpt lat="39.47881733" lon="-0.40981363"><ele>34.6</ele><time>2022-11-01T16:03:05.0000000+00:00</time></trkpt><trkpt lat="39.47876645" lon="-0.40979996"><ele>34.6</ele><time>2022-11-01T16:03:06.0000000+00:00</time></trkpt><trkpt lat="39.47872329" lon="-0.40978219"><ele>34.6</ele><time>2022-11-01T16:03:07.0000000+00:00</time></trkpt><trkpt lat="39.4786709" lon="-0.40976987"><ele>34.4</ele><time>2022-11-01T16:03:08.0000000+00:00</time></trkpt><trkpt lat="39.47862421" lon="-0.40975923"><ele>34.4</ele><time>2022-11-01T16:03:09.0000000+00:00</time></trkpt><trkpt lat="39.47857392" lon="-0.40974925"><ele>34.4</ele><time>2022-11-01T16:03:10.0000000+00:00</time></trkpt><trkpt lat="39.47853562" lon="-0.40974657"><ele>34.4</ele><time>2022-11-01T16:03:11.0000000+00:00</time></trkpt><trkpt lat="39.4784932" lon="-0.40973014"><ele>34.4</ele><time>2022-11-01T16:03:12.0000000+00:00</time></trkpt><trkpt lat="39.4784492" lon="-0.40970877"><ele>34.4</ele><time>2022-11-01T16:03:13.0000000+00:00</time></trkpt><trkpt lat="39.4784088" lon="-0.40968773"><ele>34.4</ele><time>2022-11-01T16:03:14.0000000+00:00</time></trkpt><trkpt lat="39.47837276" lon="-0.40967558"><ele>34.4</ele><time>2022-11-01T16:03:15.0000000+00:00</time></trkpt><trkpt lat="39.478328" lon="-0.40965001"><ele>34.4</ele><time>2022-11-01T16:03:16.0000000+00:00</time></trkpt><trkpt lat="39.47829195" lon="-0.40962084"><ele>34.4</ele><time>2022-11-01T16:03:17.0000000+00:00</time></trkpt><trkpt lat="39.47825247" lon="-0.40958262"><ele>34.4</ele><time>2022-11-01T16:03:18.0000000+00:00</time></trkpt><trkpt lat="39.47822565" lon="-0.40955622"><ele>34.2</ele><time>2022-11-01T16:03:19.0000000+00:00</time></trkpt><trkpt lat="39.47818399" lon="-0.40952068"><ele>34.2</ele><time>2022-11-01T16:03:20.0000000+00:00</time></trkpt><trkpt lat="39.47814636" lon="-0.40949629"><ele>34.2</ele><time>2022-11-01T16:03:21.0000000+00:00</time></trkpt><trkpt lat="39.47811065" lon="-0.40947282"><ele>34.2</ele><time>2022-11-01T16:03:22.0000000+00:00</time></trkpt><trkpt lat="39.47806874" lon="-0.40944315"><ele>34.2</ele><time>2022-11-01T16:03:23.0000000+00:00</time></trkpt><trkpt lat="39.47802968" lon="-0.40941649"><ele>34.0</ele><time>2022-11-01T16:03:24.0000000+00:00</time></trkpt><trkpt lat="39.4780006" lon="-0.40940073"><ele>34.0</ele><time>2022-11-01T16:03:25.0000000+00:00</time></trkpt><trkpt lat="39.4779462" lon="-0.40936452"><ele>33.6</ele><time>2022-11-01T16:03:26.0000000+00:00</time></trkpt><trkpt lat="39.47789599" lon="-0.40933443"><ele>33.4</ele><time>2022-11-01T16:03:27.0000000+00:00</time></trkpt><trkpt lat="39.47784344" lon="-0.40930635"><ele>33.2</ele><time>2022-11-01T16:03:28.0000000+00:00</time></trkpt><trkpt lat="39.47778854" lon="-0.40928381"><ele>33.0</ele><time>2022-11-01T16:03:29.0000000+00:00</time></trkpt><trkpt lat="39.47772852" lon="-0.40926612"><ele>33.0</ele><time>2022-11-01T16:03:30.0000000+00:00</time></trkpt><trkpt lat="39.47768091" lon="-0.40926193"><ele>32.8</ele><time>2022-11-01T16:03:31.0000000+00:00</time></trkpt><trkpt lat="39.47761738" lon="-0.40927081"><ele>32.8</ele><time>2022-11-01T16:03:32.0000000+00:00</time></trkpt><trkpt lat="39.4775774" lon="-0.40928506"><ele>32.8</ele><time>2022-11-01T16:03:33.0000000+00:00</time></trkpt><trkpt lat="39.47752928" lon="-0.40931013"><ele>32.8</ele><time>2022-11-01T16:03:34.0000000+00:00</time></trkpt><trkpt lat="39.47748327" lon="-0.40934139"><ele>32.8</ele><time>2022-11-01T16:03:35.0000000+00:00</time></trkpt><trkpt lat="39.47744563" lon="-0.40937349"><ele>33.0</ele><time>2022-11-01T16:03:36.0000000+00:00</time></trkpt><trkpt lat="39.47741537" lon="-0.40939562"><ele>33.0</ele><time>2022-11-01T16:03:37.0000000+00:00</time></trkpt><trkpt lat="39.47737615" lon="-0.40943032"><ele>33.2</ele><time>2022-11-01T16:03:38.0000000+00:00</time></trkpt><trkpt lat="39.47734497" lon="-0.40945396"><ele>33.4</ele><time>2022-11-01T16:03:39.0000000+00:00</time></trkpt><trkpt lat="39.4773184" lon="-0.40947843"><ele>33.6</ele><time>2022-11-01T16:03:40.0000000+00:00</time></trkpt><trkpt lat="39.47728856" lon="-0.40949587"><ele>33.8</ele><time>2022-11-01T16:03:41.0000000+00:00</time></trkpt><trkpt lat="39.4772593" lon="-0.4095102"><ele>34.0</ele><time>2022-11-01T16:03:42.0000000+00:00</time></trkpt><trkpt lat="39.47723709" lon="-0.40952219"><ele>34.2</ele><time>2022-11-01T16:03:43.0000000+00:00</time></trkpt><trkpt lat="39.47720281" lon="-0.40953853"><ele>34.4</ele><time>2022-11-01T16:03:44.0000000+00:00</time></trkpt><trkpt lat="39.47717222" lon="-0.40954876"><ele>34.6</ele><time>2022-11-01T16:03:45.0000000+00:00</time></trkpt><trkpt lat="39.47714103" lon="-0.40955488"><ele>34.6</ele><time>2022-11-01T16:03:46.0000000+00:00</time></trkpt><trkpt lat="39.47710952" lon="-0.40955965"><ele>34.8</ele><time>2022-11-01T16:03:47.0000000+00:00</time></trkpt><trkpt lat="39.47707993" lon="-0.40956091"><ele>34.8</ele><time>2022-11-01T16:03:48.0000000+00:00</time></trkpt><trkpt lat="39.47705193" lon="-0.4095568"><ele>35.0</ele><time>2022-11-01T16:03:49.0000000+00:00</time></trkpt><trkpt lat="39.47702335" lon="-0.40954817"><ele>35.0</ele><time>2022-11-01T16:03:50.0000000+00:00</time></trkpt><trkpt lat="39.47699376" lon="-0.40953912"><ele>35.0</ele><time>2022-11-01T16:03:51.0000000+00:00</time></trkpt><trkpt lat="39.47696434" lon="-0.40952051"><ele>34.8</ele><time>2022-11-01T16:03:52.0000000+00:00</time></trkpt><trkpt lat="39.4769335" lon="-0.40950023"><ele>34.8</ele><time>2022-11-01T16:03:53.0000000+00:00</time></trkpt><trkpt lat="39.47690718" lon="-0.40948489"><ele>34.8</ele><time>2022-11-01T16:03:54.0000000+00:00</time></trkpt><trkpt lat="39.47686837" lon="-0.40945874"><ele>34.4</ele><time>2022-11-01T16:03:55.0000000+00:00</time></trkpt><trkpt lat="39.47681992" lon="-0.40942714"><ele>34.2</ele><time>2022-11-01T16:03:56.0000000+00:00</time></trkpt><trkpt lat="39.47677399" lon="-0.40939118"><ele>34.2</ele><time>2022-11-01T16:03:57.0000000+00:00</time></trkpt><trkpt lat="39.47672747" lon="-0.40934918"><ele>34.0</ele><time>2022-11-01T16:03:58.0000000+00:00</time></trkpt><trkpt lat="39.47667098" lon="-0.40929571"><ele>34.0</ele><time>2022-11-01T16:03:59.0000000+00:00</time></trkpt><trkpt lat="39.4766232" lon="-0.40925279"><ele>34.0</ele><time>2022-11-01T16:04:00.0000000+00:00</time></trkpt><trkpt lat="39.47658154" lon="-0.40922186"><ele>33.4</ele><time>2022-11-01T16:04:01.0000000+00:00</time></trkpt><trkpt lat="39.47651558" lon="-0.40918062"><ele>33.0</ele><time>2022-11-01T16:04:02.0000000+00:00</time></trkpt><trkpt lat="39.476459" lon="-0.40915204"><ele>32.4</ele><time>2022-11-01T16:04:03.0000000+00:00</time></trkpt><trkpt lat="39.47641265" lon="-0.4091331"><ele>32.0</ele><time>2022-11-01T16:04:04.0000000+00:00</time></trkpt><trkpt lat="39.47634266" lon="-0.4091196"><ele>31.8</ele><time>2022-11-01T16:04:05.0000000+00:00</time></trkpt><trkpt lat="39.47628725" lon="-0.40912505"><ele>31.6</ele><time>2022-11-01T16:04:06.0000000+00:00</time></trkpt><trkpt lat="39.47624752" lon="-0.40914039"><ele>31.4</ele><time>2022-11-01T16:04:07.0000000+00:00</time></trkpt><trkpt lat="39.47619078" lon="-0.40916772"><ele>31.4</ele><time>2022-11-01T16:04:08.0000000+00:00</time></trkpt><trkpt lat="39.47615289" lon="-0.4091849"><ele>31.4</ele><time>2022-11-01T16:04:09.0000000+00:00</time></trkpt><trkpt lat="39.47609715" lon="-0.4092108"><ele>31.4</ele><time>2022-11-01T16:04:10.0000000+00:00</time></trkpt><trkpt lat="39.4760534" lon="-0.40923343"><ele>31.2</ele><time>2022-11-01T16:04:11.0000000+00:00</time></trkpt><trkpt lat="39.47601317" lon="-0.40925698"><ele>31.2</ele><time>2022-11-01T16:04:12.0000000+00:00</time></trkpt><trkpt lat="39.47598349" lon="-0.40927576"><ele>31.2</ele><time>2022-11-01T16:04:13.0000000+00:00</time></trkpt><trkpt lat="39.47593949" lon="-0.40930669"><ele>31.2</ele><time>2022-11-01T16:04:14.0000000+00:00</time></trkpt><trkpt lat="39.47590646" lon="-0.40933963"><ele>31.2</ele><time>2022-11-01T16:04:15.0000000+00:00</time></trkpt><trkpt lat="39.47588107" lon="-0.40936813"><ele>31.4</ele><time>2022-11-01T16:04:16.0000000+00:00</time></trkpt><trkpt lat="39.47584259" lon="-0.40940685"><ele>31.4</ele><time>2022-11-01T16:04:17.0000000+00:00</time></trkpt><trkpt lat="39.47580957" lon="-0.40943828"><ele>31.4</ele><time>2022-11-01T16:04:18.0000000+00:00</time></trkpt><trkpt lat="39.4757861" lon="-0.40946427"><ele>31.4</ele><time>2022-11-01T16:04:19.0000000+00:00</time></trkpt><trkpt lat="39.47575031" lon="-0.4095014"><ele>31.6</ele><time>2022-11-01T16:04:20.0000000+00:00</time></trkpt><trkpt lat="39.4757172" lon="-0.40952914"><ele>31.8</ele><time>2022-11-01T16:04:21.0000000+00:00</time></trkpt><trkpt lat="39.47569239" lon="-0.40954926"><ele>31.8</ele><time>2022-11-01T16:04:22.0000000+00:00</time></trkpt><trkpt lat="39.47565543" lon="-0.4095755"><ele>32.0</ele><time>2022-11-01T16:04:23.0000000+00:00</time></trkpt><trkpt lat="39.47562525" lon="-0.40959821"><ele>32.2</ele><time>2022-11-01T16:04:24.0000000+00:00</time></trkpt><trkpt lat="39.47560161" lon="-0.40961757"><ele>32.2</ele><time>2022-11-01T16:04:25.0000000+00:00</time></trkpt><trkpt lat="39.47556918" lon="-0.40964708"><ele>32.6</ele><time>2022-11-01T16:04:26.0000000+00:00</time></trkpt><trkpt lat="39.47554227" lon="-0.40967063"><ele>32.8</ele><time>2022-11-01T16:04:27.0000000+00:00</time></trkpt><trkpt lat="39.47551151" lon="-0.40968882"><ele>32.8</ele><time>2022-11-01T16:04:28.0000000+00:00</time></trkpt><trkpt lat="39.47548075" lon="-0.40970466"><ele>33.0</ele><time>2022-11-01T16:04:29.0000000+00:00</time></trkpt><trkpt lat="39.47545661" lon="-0.40971799"><ele>33.2</ele><time>2022-11-01T16:04:30.0000000+00:00</time></trkpt><trkpt lat="39.47542735" lon="-0.40974154"><ele>33.4</ele><time>2022-11-01T16:04:31.0000000+00:00</time></trkpt><trkpt lat="39.47539232" lon="-0.40976744"><ele>33.6</ele><time>2022-11-01T16:04:32.0000000+00:00</time></trkpt><trkpt lat="39.47537061" lon="-0.40978052"><ele>33.6</ele><time>2022-11-01T16:04:33.0000000+00:00</time></trkpt><trkpt lat="39.47533482" lon="-0.40979569"><ele>33.8</ele><time>2022-11-01T16:04:34.0000000+00:00</time></trkpt><trkpt lat="39.47530372" lon="-0.40980768"><ele>33.8</ele><time>2022-11-01T16:04:35.0000000+00:00</time></trkpt><trkpt lat="39.47527723" lon="-0.40981933"><ele>33.8</ele><time>2022-11-01T16:04:36.0000000+00:00</time></trkpt><trkpt lat="39.47524496" lon="-0.40983316"><ele>34.0</ele><time>2022-11-01T16:04:37.0000000+00:00</time></trkpt><trkpt lat="39.47521085" lon="-0.40984481"><ele>34.0</ele><time>2022-11-01T16:04:38.0000000+00:00</time></trkpt><trkpt lat="39.47516835" lon="-0.40985537"><ele>34.0</ele><time>2022-11-01T16:04:39.0000000+00:00</time></trkpt><trkpt lat="39.47513281" lon="-0.40985721"><ele>34.2</ele><time>2022-11-01T16:04:40.0000000+00:00</time></trkpt><trkpt lat="39.4750982" lon="-0.40984908"><ele>34.2</ele><time>2022-11-01T16:04:41.0000000+00:00</time></trkpt><trkpt lat="39.47506442" lon="-0.40983726"><ele>34.2</ele><time>2022-11-01T16:04:42.0000000+00:00</time></trkpt><trkpt lat="39.47503064" lon="-0.40982729"><ele>34.4</ele><time>2022-11-01T16:04:43.0000000+00:00</time></trkpt><trkpt lat="39.47499443" lon="-0.40981505"><ele>34.4</ele><time>2022-11-01T16:04:44.0000000+00:00</time></trkpt><trkpt lat="39.47496216" lon="-0.40980323"><ele>34.4</ele><time>2022-11-01T16:04:45.0000000+00:00</time></trkpt><trkpt lat="39.47491681" lon="-0.40978488"><ele>34.4</ele><time>2022-11-01T16:04:46.0000000+00:00</time></trkpt><trkpt lat="39.47488328" lon="-0.40976225"><ele>34.4</ele><time>2022-11-01T16:04:47.0000000+00:00</time></trkpt><trkpt lat="39.47485403" lon="-0.40972763"><ele>34.4</ele><time>2022-11-01T16:04:48.0000000+00:00</time></trkpt><trkpt lat="39.47483383" lon="-0.40969142"><ele>34.4</ele><time>2022-11-01T16:04:49.0000000+00:00</time></trkpt><trkpt lat="39.47481606" lon="-0.40965688"><ele>34.4</ele><time>2022-11-01T16:04:50.0000000+00:00</time></trkpt><trkpt lat="39.4747905" lon="-0.40962554"><ele>34.4</ele><time>2022-11-01T16:04:51.0000000+00:00</time></trkpt><trkpt lat="39.47476435" lon="-0.40959528"><ele>34.4</ele><time>2022-11-01T16:04:52.0000000+00:00</time></trkpt><trkpt lat="39.47473635" lon="-0.40956561"><ele>34.4</ele><time>2022-11-01T16:04:53.0000000+00:00</time></trkpt><trkpt lat="39.47472302" lon="-0.40953945"><ele>34.2</ele><time>2022-11-01T16:04:54.0000000+00:00</time></trkpt><trkpt lat="39.47470542" lon="-0.40949444"><ele>34.0</ele><time>2022-11-01T16:04:55.0000000+00:00</time></trkpt><trkpt lat="39.47469729" lon="-0.40946402"><ele>33.8</ele><time>2022-11-01T16:04:56.0000000+00:00</time></trkpt><trkpt lat="39.47469184" lon="-0.40943845"><ele>33.8</ele><time>2022-11-01T16:04:57.0000000+00:00</time></trkpt><trkpt lat="39.47468396" lon="-0.40941398"><ele>33.8</ele><time>2022-11-01T16:04:58.0000000+00:00</time></trkpt><trkpt lat="39.47467349" lon="-0.40939663"><ele>33.6</ele><time>2022-11-01T16:04:59.0000000+00:00</time></trkpt><trkpt lat="39.47465857" lon="-0.40937374"><ele>33.6</ele><time>2022-11-01T16:05:00.0000000+00:00</time></trkpt><trkpt lat="39.47463987" lon="-0.40934793"><ele>33.6</ele><time>2022-11-01T16:05:01.0000000+00:00</time></trkpt><trkpt lat="39.47462353" lon="-0.40932613"><ele>33.6</ele><time>2022-11-01T16:05:02.0000000+00:00</time></trkpt><trkpt lat="39.47461364" lon="-0.40931054"><ele>33.6</ele><time>2022-11-01T16:05:03.0000000+00:00</time></trkpt><trkpt lat="39.47459545" lon="-0.40928808"><ele>33.6</ele><time>2022-11-01T16:05:04.0000000+00:00</time></trkpt><trkpt lat="39.47458305" lon="-0.40926444"><ele>33.6</ele><time>2022-11-01T16:05:05.0000000+00:00</time></trkpt><trkpt lat="39.47457047" lon="-0.40924282"><ele>33.8</ele><time>2022-11-01T16:05:06.0000000+00:00</time></trkpt><trkpt lat="39.4745387" lon="-0.40921063"><ele>33.8</ele><time>2022-11-01T16:05:07.0000000+00:00</time></trkpt><trkpt lat="39.47451381" lon="-0.40917954"><ele>33.8</ele><time>2022-11-01T16:05:08.0000000+00:00</time></trkpt><trkpt lat="39.47449395" lon="-0.40914877"><ele>33.8</ele><time>2022-11-01T16:05:09.0000000+00:00</time></trkpt><trkpt lat="39.47447157" lon="-0.40912296"><ele>33.8</ele><time>2022-11-01T16:05:10.0000000+00:00</time></trkpt><trkpt lat="39.47445103" lon="-0.4090984"><ele>33.8</ele><time>2022-11-01T16:05:11.0000000+00:00</time></trkpt><trkpt lat="39.47443603" lon="-0.4090777"><ele>33.6</ele><time>2022-11-01T16:05:12.0000000+00:00</time></trkpt><trkpt lat="39.47441625" lon="-0.4090435"><ele>33.6</ele><time>2022-11-01T16:05:13.0000000+00:00</time></trkpt><trkpt lat="39.47440007" lon="-0.40901491"><ele>33.6</ele><time>2022-11-01T16:05:14.0000000+00:00</time></trkpt><trkpt lat="39.47439076" lon="-0.40899161"><ele>33.4</ele><time>2022-11-01T16:05:15.0000000+00:00</time></trkpt><trkpt lat="39.47437392" lon="-0.40895918"><ele>33.4</ele><time>2022-11-01T16:05:16.0000000+00:00</time></trkpt><trkpt lat="39.47435958" lon="-0.40892967"><ele>33.4</ele><time>2022-11-01T16:05:17.0000000+00:00</time></trkpt><trkpt lat="39.47434642" lon="-0.40890779"><ele>33.2</ele><time>2022-11-01T16:05:18.0000000+00:00</time></trkpt><trkpt lat="39.47433142" lon="-0.4088741"><ele>33.2</ele><time>2022-11-01T16:05:19.0000000+00:00</time></trkpt><trkpt lat="39.47432262" lon="-0.40885038"><ele>33.2</ele><time>2022-11-01T16:05:20.0000000+00:00</time></trkpt><trkpt lat="39.47431013" lon="-0.40882163"><ele>33.2</ele><time>2022-11-01T16:05:21.0000000+00:00</time></trkpt><trkpt lat="39.47429538" lon="-0.40878642"><ele>33.2</ele><time>2022-11-01T16:05:22.0000000+00:00</time></trkpt><trkpt lat="39.47428532" lon="-0.40876321"><ele>33.2</ele><time>2022-11-01T16:05:23.0000000+00:00</time></trkpt><trkpt lat="39.47427107" lon="-0.40873127"><ele>33.2</ele><time>2022-11-01T16:05:24.0000000+00:00</time></trkpt><trkpt lat="39.47425925" lon="-0.40869406"><ele>33.2</ele><time>2022-11-01T16:05:25.0000000+00:00</time></trkpt><trkpt lat="39.47425615" lon="-0.40865709"><ele>33.2</ele><time>2022-11-01T16:05:26.0000000+00:00</time></trkpt><trkpt lat="39.47425137" lon="-0.40863245"><ele>33.2</ele><time>2022-11-01T16:05:27.0000000+00:00</time></trkpt><trkpt lat="39.47424199" lon="-0.40859917"><ele>33.2</ele><time>2022-11-01T16:05:28.0000000+00:00</time></trkpt><trkpt lat="39.47423989" lon="-0.40857545"><ele>33.2</ele><time>2022-11-01T16:05:29.0000000+00:00</time></trkpt><trkpt lat="39.47423796" lon="-0.40854603"><ele>33.2</ele><time>2022-11-01T16:05:30.0000000+00:00</time></trkpt><trkpt lat="39.47423017" lon="-0.4085151"><ele>33.2</ele><time>2022-11-01T16:05:31.0000000+00:00</time></trkpt><trkpt lat="39.47422287" lon="-0.4084913"><ele>33.2</ele><time>2022-11-01T16:05:32.0000000+00:00</time></trkpt><trkpt lat="39.47421424" lon="-0.40847252"><ele>33.2</ele><time>2022-11-01T16:05:33.0000000+00:00</time></trkpt><trkpt lat="39.47420988" lon="-0.4084436"><ele>33.0</ele><time>2022-11-01T16:05:34.0000000+00:00</time></trkpt><trkpt lat="39.47421273" lon="-0.40841586"><ele>33.0</ele><time>2022-11-01T16:05:35.0000000+00:00</time></trkpt><trkpt lat="39.47421986" lon="-0.40838594"><ele>33.0</ele><time>2022-11-01T16:05:36.0000000+00:00</time></trkpt><trkpt lat="39.47422463" lon="-0.40835165"><ele>33.0</ele><time>2022-11-01T16:05:37.0000000+00:00</time></trkpt><trkpt lat="39.4742217" lon="-0.40831385"><ele>33.0</ele><time>2022-11-01T16:05:38.0000000+00:00</time></trkpt><trkpt lat="39.47421701" lon="-0.40827798"><ele>32.8</ele><time>2022-11-01T16:05:39.0000000+00:00</time></trkpt><trkpt lat="39.47420754" lon="-0.40824772"><ele>32.8</ele><time>2022-11-01T16:05:40.0000000+00:00</time></trkpt><trkpt lat="39.47420896" lon="-0.40819491"><ele>32.6</ele><time>2022-11-01T16:05:41.0000000+00:00</time></trkpt><trkpt lat="39.47421089" lon="-0.40815828"><ele>32.6</ele><time>2022-11-01T16:05:42.0000000+00:00</time></trkpt><trkpt lat="39.474215" lon="-0.40811042"><ele>32.4</ele><time>2022-11-01T16:05:43.0000000+00:00</time></trkpt><trkpt lat="39.47421533" lon="-0.40804915"><ele>32.4</ele><time>2022-11-01T16:05:44.0000000+00:00</time></trkpt><trkpt lat="39.4742093" lon="-0.40799224"><ele>32.2</ele><time>2022-11-01T16:05:45.0000000+00:00</time></trkpt><trkpt lat="39.47420561" lon="-0.40794371"><ele>32.0</ele><time>2022-11-01T16:05:46.0000000+00:00</time></trkpt><trkpt lat="39.47420234" lon="-0.40787229"><ele>32.0</ele><time>2022-11-01T16:05:47.0000000+00:00</time></trkpt><trkpt lat="39.47420485" lon="-0.40781454"><ele>32.0</ele><time>2022-11-01T16:05:48.0000000+00:00</time></trkpt><trkpt lat="39.47420888" lon="-0.40775235"><ele>31.8</ele><time>2022-11-01T16:05:49.0000000+00:00</time></trkpt><trkpt lat="39.47420955" lon="-0.40768596"><ele>31.8</ele><time>2022-11-01T16:05:50.0000000+00:00</time></trkpt><trkpt lat="39.47420234" lon="-0.4076195"><ele>31.6</ele><time>2022-11-01T16:05:51.0000000+00:00</time></trkpt><trkpt lat="39.47419228" lon="-0.40756795"><ele>31.4</ele><time>2022-11-01T16:05:52.0000000+00:00</time></trkpt><trkpt lat="39.47417024" lon="-0.40747784"><ele>31.4</ele><time>2022-11-01T16:05:53.0000000+00:00</time></trkpt><trkpt lat="39.47416311" lon="-0.40739779"><ele>31.2</ele><time>2022-11-01T16:05:54.0000000+00:00</time></trkpt><trkpt lat="39.47414132" lon="-0.40734323"><ele>31.0</ele><time>2022-11-01T16:05:55.0000000+00:00</time></trkpt><trkpt lat="39.47410352" lon="-0.40728154"><ele>30.8</ele><time>2022-11-01T16:05:56.0000000+00:00</time></trkpt><trkpt lat="39.47407493" lon="-0.40723921"><ele>30.8</ele><time>2022-11-01T16:05:57.0000000+00:00</time></trkpt><trkpt lat="39.47404744" lon="-0.40720074"><ele>30.8</ele><time>2022-11-01T16:05:58.0000000+00:00</time></trkpt><trkpt lat="39.47401861" lon="-0.40717157"><ele>30.8</ele><time>2022-11-01T16:05:59.0000000+00:00</time></trkpt><trkpt lat="39.47398852" lon="-0.40713611"><ele>30.8</ele><time>2022-11-01T16:06:00.0000000+00:00</time></trkpt><trkpt lat="39.47396061" lon="-0.40710183"><ele>30.8</ele><time>2022-11-01T16:06:01.0000000+00:00</time></trkpt><trkpt lat="39.473914" lon="-0.4070714"><ele>30.8</ele><time>2022-11-01T16:06:02.0000000+00:00</time></trkpt><trkpt lat="39.47388408" lon="-0.40704777"><ele>31.0</ele><time>2022-11-01T16:06:03.0000000+00:00</time></trkpt><trkpt lat="39.47386354" lon="-0.40701541"><ele>31.2</ele><time>2022-11-01T16:06:04.0000000+00:00</time></trkpt><trkpt lat="39.47385097" lon="-0.40697501"><ele>31.4</ele><time>2022-11-01T16:06:05.0000000+00:00</time></trkpt><trkpt lat="39.47384309" lon="-0.4069321"><ele>31.6</ele><time>2022-11-01T16:06:06.0000000+00:00</time></trkpt><trkpt lat="39.47384024" lon="-0.40689144"><ele>31.8</ele><time>2022-11-01T16:06:07.0000000+00:00</time></trkpt><trkpt lat="39.47383789" lon="-0.40684274"><ele>32.0</ele><time>2022-11-01T16:06:08.0000000+00:00</time></trkpt><trkpt lat="39.47384359" lon="-0.40680008"><ele>32.0</ele><time>2022-11-01T16:06:09.0000000+00:00</time></trkpt><trkpt lat="39.47384485" lon="-0.40676756"><ele>32.2</ele><time>2022-11-01T16:06:10.0000000+00:00</time></trkpt><trkpt lat="39.4738384" lon="-0.4067202"><ele>32.4</ele><time>2022-11-01T16:06:11.0000000+00:00</time></trkpt><trkpt lat="39.47382943" lon="-0.40667863"><ele>32.4</ele><time>2022-11-01T16:06:12.0000000+00:00</time></trkpt><trkpt lat="39.47382079" lon="-0.40664669"><ele>32.6</ele><time>2022-11-01T16:06:13.0000000+00:00</time></trkpt><trkpt lat="39.47381149" lon="-0.40659975"><ele>32.8</ele><time>2022-11-01T16:06:14.0000000+00:00</time></trkpt><trkpt lat="39.47380437" lon="-0.40656162"><ele>32.8</ele><time>2022-11-01T16:06:15.0000000+00:00</time></trkpt><trkpt lat="39.47379615" lon="-0.40653069"><ele>32.8</ele><time>2022-11-01T16:06:16.0000000+00:00</time></trkpt><trkpt lat="39.47378157" lon="-0.40648283"><ele>33.0</ele><time>2022-11-01T16:06:17.0000000+00:00</time></trkpt><trkpt lat="39.47376682" lon="-0.40644544"><ele>33.0</ele><time>2022-11-01T16:06:18.0000000+00:00</time></trkpt><trkpt lat="39.47375617" lon="-0.40641828"><ele>33.0</ele><time>2022-11-01T16:06:19.0000000+00:00</time></trkpt><trkpt lat="39.47374326" lon="-0.40637336"><ele>33.0</ele><time>2022-11-01T16:06:20.0000000+00:00</time></trkpt><trkpt lat="39.47372901" lon="-0.40633312"><ele>33.0</ele><time>2022-11-01T16:06:21.0000000+00:00</time></trkpt><trkpt lat="39.47372004" lon="-0.4063037"><ele>33.0</ele><time>2022-11-01T16:06:22.0000000+00:00</time></trkpt><trkpt lat="39.47370781" lon="-0.40626037"><ele>33.0</ele><time>2022-11-01T16:06:23.0000000+00:00</time></trkpt><trkpt lat="39.4737001" lon="-0.4062255"><ele>33.0</ele><time>2022-11-01T16:06:24.0000000+00:00</time></trkpt><trkpt lat="39.47369599" lon="-0.4061986"><ele>33.0</ele><time>2022-11-01T16:06:25.0000000+00:00</time></trkpt><trkpt lat="39.47368702" lon="-0.40616146"><ele>33.0</ele><time>2022-11-01T16:06:26.0000000+00:00</time></trkpt><trkpt lat="39.4736809" lon="-0.40613171"><ele>33.0</ele><time>2022-11-01T16:06:27.0000000+00:00</time></trkpt><trkpt lat="39.47367579" lon="-0.40610748"><ele>32.8</ele><time>2022-11-01T16:06:28.0000000+00:00</time></trkpt><trkpt lat="39.4736757" lon="-0.40606641"><ele>32.8</ele><time>2022-11-01T16:06:29.0000000+00:00</time></trkpt><trkpt lat="39.47368291" lon="-0.40603196"><ele>32.8</ele><time>2022-11-01T16:06:30.0000000+00:00</time></trkpt><trkpt lat="39.47369197" lon="-0.40599374"><ele>32.8</ele><time>2022-11-01T16:06:31.0000000+00:00</time></trkpt><trkpt lat="39.473641" lon="-0.40585728"><ele>32.4</ele><time>2022-11-01T16:06:36.0000000+00:00</time></trkpt><trkpt lat="39.47361804" lon="-0.40583884"><ele>32.4</ele><time>2022-11-01T16:06:37.0000000+00:00</time></trkpt><trkpt lat="39.47357688" lon="-0.40581864"><ele>32.2</ele><time>2022-11-01T16:06:38.0000000+00:00</time></trkpt><trkpt lat="39.47353673" lon="-0.40580699"><ele>32.2</ele><time>2022-11-01T16:06:39.0000000+00:00</time></trkpt><trkpt lat="39.47349357" lon="-0.40579819"><ele>32.2</ele><time>2022-11-01T16:06:40.0000000+00:00</time></trkpt><trkpt lat="39.47344998" lon="-0.40578428"><ele>32.2</ele><time>2022-11-01T16:06:41.0000000+00:00</time></trkpt><trkpt lat="39.47341494" lon="-0.40574765"><ele>32.2</ele><time>2022-11-01T16:06:42.0000000+00:00</time></trkpt><trkpt lat="39.47337873" lon="-0.40573298"><ele>32.2</ele><time>2022-11-01T16:06:43.0000000+00:00</time></trkpt><trkpt lat="39.47334001" lon="-0.40572007"><ele>32.2</ele><time>2022-11-01T16:06:44.0000000+00:00</time></trkpt><trkpt lat="39.47331201" lon="-0.40570943"><ele>32.2</ele><time>2022-11-01T16:06:45.0000000+00:00</time></trkpt><trkpt lat="39.47329508" lon="-0.40569375"><ele>32.2</ele><time>2022-11-01T16:06:46.0000000+00:00</time></trkpt><trkpt lat="39.47328393" lon="-0.4056681"><ele>32.2</ele><time>2022-11-01T16:06:47.0000000+00:00</time></trkpt><trkpt lat="39.47327572" lon="-0.40563617"><ele>32.2</ele><time>2022-11-01T16:06:48.0000000+00:00</time></trkpt><trkpt lat="39.47328603" lon="-0.40560516"><ele>32.2</ele><time>2022-11-01T16:06:49.0000000+00:00</time></trkpt><trkpt lat="39.47329944" lon="-0.40556786"><ele>32.2</ele><time>2022-11-01T16:06:50.0000000+00:00</time></trkpt><trkpt lat="39.47331553" lon="-0.40552318"><ele>32.2</ele><time>2022-11-01T16:06:51.0000000+00:00</time></trkpt><trkpt lat="39.47332006" lon="-0.4054801"><ele>32.2</ele><time>2022-11-01T16:06:52.0000000+00:00</time></trkpt><trkpt lat="39.47331998" lon="-0.40544875"><ele>32.2</ele><time>2022-11-01T16:06:53.0000000+00:00</time></trkpt><trkpt lat="39.47332593" lon="-0.4054262"><ele>32.2</ele><time>2022-11-01T16:06:54.0000000+00:00</time></trkpt><trkpt lat="39.47333171" lon="-0.40540273"><ele>32.2</ele><time>2022-11-01T16:06:55.0000000+00:00</time></trkpt><trkpt lat="39.47333632" lon="-0.40538362"><ele>32.2</ele><time>2022-11-01T16:06:56.0000000+00:00</time></trkpt><trkpt lat="39.4733416" lon="-0.40537021"><ele>32.2</ele><time>2022-11-01T16:06:57.0000000+00:00</time></trkpt><trkpt lat="39.4733442" lon="-0.4053625"><ele>32.2</ele><time>2022-11-01T16:06:58.0000000+00:00</time></trkpt><trkpt lat="39.47336029" lon="-0.40535806"><ele>32.2</ele><time>2022-11-01T16:06:59.0000000+00:00</time></trkpt><trkpt lat="39.47336381" lon="-0.40535554"><ele>32.2</ele><time>2022-11-01T16:07:00.0000000+00:00</time></trkpt><trkpt lat="39.47336096" lon="-0.40534632"><ele>32.4</ele><time>2022-11-01T16:07:01.0000000+00:00</time></trkpt><trkpt lat="39.47336373" lon="-0.40534029"><ele>32.4</ele><time>2022-11-01T16:07:02.0000000+00:00</time></trkpt><trkpt lat="39.47335409" lon="-0.40533165"><ele>32.4</ele><time>2022-11-01T16:07:03.0000000+00:00</time></trkpt><trkpt lat="39.47334831" lon="-0.40532344"><ele>32.4</ele><time>2022-11-01T16:07:04.0000000+00:00</time></trkpt><trkpt lat="39.47334437" lon="-0.40530919"><ele>32.4</ele><time>2022-11-01T16:07:05.0000000+00:00</time></trkpt><trkpt lat="39.47334713" lon="-0.40528933"><ele>32.4</ele><time>2022-11-01T16:07:06.0000000+00:00</time></trkpt><trkpt lat="39.4733535" lon="-0.40526343"><ele>32.4</ele><time>2022-11-01T16:07:07.0000000+00:00</time></trkpt><trkpt lat="39.4733592" lon="-0.40522914"><ele>32.4</ele><time>2022-11-01T16:07:08.0000000+00:00</time></trkpt><trkpt lat="39.47336013" lon="-0.40519285"><ele>32.4</ele><time>2022-11-01T16:07:09.0000000+00:00</time></trkpt><trkpt lat="39.47336147" lon="-0.40515907"><ele>32.4</ele><time>2022-11-01T16:07:10.0000000+00:00</time></trkpt><trkpt lat="39.47336482" lon="-0.40512596"><ele>32.4</ele><time>2022-11-01T16:07:11.0000000+00:00</time></trkpt><trkpt lat="39.47337027" lon="-0.40509076"><ele>32.4</ele><time>2022-11-01T16:07:12.0000000+00:00</time></trkpt><trkpt lat="39.47337781" lon="-0.40505648"><ele>32.4</ele><time>2022-11-01T16:07:13.0000000+00:00</time></trkpt><trkpt lat="39.47338175" lon="-0.40502639"><ele>32.4</ele><time>2022-11-01T16:07:14.0000000+00:00</time></trkpt><trkpt lat="39.47338955" lon="-0.40499521"><ele>32.4</ele><time>2022-11-01T16:07:15.0000000+00:00</time></trkpt><trkpt lat="39.47340086" lon="-0.40496168"><ele>32.4</ele><time>2022-11-01T16:07:16.0000000+00:00</time></trkpt><trkpt lat="39.47340497" lon="-0.40494047"><ele>32.4</ele><time>2022-11-01T16:07:17.0000000+00:00</time></trkpt><trkpt lat="39.4734157" lon="-0.40491038"><ele>32.4</ele><time>2022-11-01T16:07:18.0000000+00:00</time></trkpt><trkpt lat="39.47342559" lon="-0.40489412"><ele>32.4</ele><time>2022-11-01T16:07:19.0000000+00:00</time></trkpt><trkpt lat="39.47343296" lon="-0.40487853"><ele>32.4</ele><time>2022-11-01T16:07:20.0000000+00:00</time></trkpt><trkpt lat="39.47344202" lon="-0.40486638"><ele>32.4</ele><time>2022-11-01T16:07:21.0000000+00:00</time></trkpt><trkpt lat="39.47345182" lon="-0.4048569"><ele>32.4</ele><time>2022-11-01T16:07:22.0000000+00:00</time></trkpt><trkpt lat="39.47345107" lon="-0.40485171"><ele>32.4</ele><time>2022-11-01T16:07:23.0000000+00:00</time></trkpt><trkpt lat="39.47344654" lon="-0.40484785"><ele>32.4</ele><time>2022-11-01T16:07:24.0000000+00:00</time></trkpt><trkpt lat="39.47343875" lon="-0.40485255"><ele>32.4</ele><time>2022-11-01T16:07:25.0000000+00:00</time></trkpt><trkpt lat="39.47343263" lon="-0.40486487"><ele>32.4</ele><time>2022-11-01T16:07:26.0000000+00:00</time></trkpt><trkpt lat="39.47342601" lon="-0.4048823"><ele>32.4</ele><time>2022-11-01T16:07:27.0000000+00:00</time></trkpt><trkpt lat="39.47341645" lon="-0.40490569"><ele>32.4</ele><time>2022-11-01T16:07:28.0000000+00:00</time></trkpt><trkpt lat="39.47340715" lon="-0.40493477"><ele>32.4</ele><time>2022-11-01T16:07:29.0000000+00:00</time></trkpt><trkpt lat="39.47339759" lon="-0.40496126"><ele>32.4</ele><time>2022-11-01T16:07:30.0000000+00:00</time></trkpt><trkpt lat="39.47339315" lon="-0.40499219"><ele>32.4</ele><time>2022-11-01T16:07:31.0000000+00:00</time></trkpt><trkpt lat="39.47338485" lon="-0.40503234"><ele>32.4</ele><time>2022-11-01T16:07:32.0000000+00:00</time></trkpt><trkpt lat="39.47338158" lon="-0.40506964"><ele>32.4</ele><time>2022-11-01T16:07:33.0000000+00:00</time></trkpt><trkpt lat="39.47338183" lon="-0.4051097"><ele>32.4</ele><time>2022-11-01T16:07:34.0000000+00:00</time></trkpt><trkpt lat="39.47338452" lon="-0.40514449"><ele>32.4</ele><time>2022-11-01T16:07:35.0000000+00:00</time></trkpt><trkpt lat="39.47338519" lon="-0.40518455"><ele>32.4</ele><time>2022-11-01T16:07:36.0000000+00:00</time></trkpt><trkpt lat="39.47338083" lon="-0.40522646"><ele>32.4</ele><time>2022-11-01T16:07:37.0000000+00:00</time></trkpt><trkpt lat="39.47337002" lon="-0.40526292"><ele>32.4</ele><time>2022-11-01T16:07:38.0000000+00:00</time></trkpt><trkpt lat="39.47336658" lon="-0.40529545"><ele>32.4</ele><time>2022-11-01T16:07:39.0000000+00:00</time></trkpt><trkpt lat="39.47336591" lon="-0.40532093"><ele>32.2</ele><time>2022-11-01T16:07:40.0000000+00:00</time></trkpt><trkpt lat="39.47336549" lon="-0.40534062"><ele>32.2</ele><time>2022-11-01T16:07:41.0000000+00:00</time></trkpt><trkpt lat="39.47336457" lon="-0.40534666"><ele>32.2</ele><time>2022-11-01T16:07:42.0000000+00:00</time></trkpt><trkpt lat="39.47336599" lon="-0.40535697"><ele>32.2</ele><time>2022-11-01T16:07:43.0000000+00:00</time></trkpt><trkpt lat="39.47448137" lon="-0.40534875"><ele>32.0</ele><time>2022-11-01T16:08:27.0000000+00:00</time></trkpt><trkpt lat="39.47439529" lon="-0.40533903"><ele>32.0</ele><time>2022-11-01T16:08:28.0000000+00:00</time></trkpt><trkpt lat="39.47436419" lon="-0.40532394"><ele>32.0</ele><time>2022-11-01T16:08:29.0000000+00:00</time></trkpt><trkpt lat="39.47435263" lon="-0.40530073"><ele>32.0</ele><time>2022-11-01T16:08:30.0000000+00:00</time></trkpt><trkpt lat="39.47436352" lon="-0.40526242"><ele>32.0</ele><time>2022-11-01T16:08:31.0000000+00:00</time></trkpt><trkpt lat="39.47436294" lon="-0.40522227"><ele>32.0</ele><time>2022-11-01T16:08:32.0000000+00:00</time></trkpt><trkpt lat="39.4743709" lon="-0.40517642"><ele>32.0</ele><time>2022-11-01T16:08:33.0000000+00:00</time></trkpt><trkpt lat="39.47438498" lon="-0.40512496"><ele>32.2</ele><time>2022-11-01T16:08:34.0000000+00:00</time></trkpt><trkpt lat="39.47441306" lon="-0.40507827"><ele>32.2</ele><time>2022-11-01T16:08:35.0000000+00:00</time></trkpt><trkpt lat="39.47443561" lon="-0.40503502"><ele>32.2</ele><time>2022-11-01T16:08:36.0000000+00:00</time></trkpt><trkpt lat="39.4744574" lon="-0.40499403"><ele>32.2</ele><time>2022-11-01T16:08:37.0000000+00:00</time></trkpt><trkpt lat="39.47447944" lon="-0.40495304"><ele>32.2</ele><time>2022-11-01T16:08:38.0000000+00:00</time></trkpt><trkpt lat="39.47449043" lon="-0.40490091"><ele>32.4</ele><time>2022-11-01T16:08:39.0000000+00:00</time></trkpt><trkpt lat="39.47449931" lon="-0.40486168"><ele>32.4</ele><time>2022-11-01T16:08:40.0000000+00:00</time></trkpt><trkpt lat="39.47451624" lon="-0.4048134"><ele>32.4</ele><time>2022-11-01T16:08:41.0000000+00:00</time></trkpt><trkpt lat="39.47453686" lon="-0.40476118"><ele>32.4</ele><time>2022-11-01T16:08:42.0000000+00:00</time></trkpt><trkpt lat="39.47455756" lon="-0.40469103"><ele>32.4</ele><time>2022-11-01T16:08:43.0000000+00:00</time></trkpt><trkpt lat="39.4745672" lon="-0.40463738"><ele>32.4</ele><time>2022-11-01T16:08:44.0000000+00:00</time></trkpt><trkpt lat="39.47456419" lon="-0.40457703"><ele>32.6</ele><time>2022-11-01T16:08:45.0000000+00:00</time></trkpt><trkpt lat="39.47455991" lon="-0.40452121"><ele>32.6</ele><time>2022-11-01T16:08:46.0000000+00:00</time></trkpt><trkpt lat="39.47455371" lon="-0.40446505"><ele>32.6</ele><time>2022-11-01T16:08:47.0000000+00:00</time></trkpt><trkpt lat="39.47455622" lon="-0.40441224"><ele>32.6</ele><time>2022-11-01T16:08:48.0000000+00:00</time></trkpt><trkpt lat="39.47456989" lon="-0.40435776"><ele>32.6</ele><time>2022-11-01T16:08:49.0000000+00:00</time></trkpt><trkpt lat="39.47459059" lon="-0.40430403"><ele>32.6</ele><time>2022-11-01T16:08:50.0000000+00:00</time></trkpt><trkpt lat="39.47462135" lon="-0.40424192"><ele>32.6</ele><time>2022-11-01T16:08:51.0000000+00:00</time></trkpt><trkpt lat="39.47464272" lon="-0.40420362"><ele>32.6</ele><time>2022-11-01T16:08:52.0000000+00:00</time></trkpt><trkpt lat="39.47466184" lon="-0.40415375"><ele>32.4</ele><time>2022-11-01T16:08:53.0000000+00:00</time></trkpt><trkpt lat="39.47467634" lon="-0.40410035"><ele>32.2</ele><time>2022-11-01T16:08:54.0000000+00:00</time></trkpt><trkpt lat="39.47468799" lon="-0.404053"><ele>32.2</ele><time>2022-11-01T16:08:55.0000000+00:00</time></trkpt><trkpt lat="39.47470282" lon="-0.40400715"><ele>32.0</ele><time>2022-11-01T16:08:56.0000000+00:00</time></trkpt><trkpt lat="39.474719" lon="-0.40396121"><ele>32.0</ele><time>2022-11-01T16:08:57.0000000+00:00</time></trkpt><trkpt lat="39.47473501" lon="-0.40390656"><ele>32.0</ele><time>2022-11-01T16:08:58.0000000+00:00</time></trkpt><trkpt lat="39.47474498" lon="-0.40386541"><ele>32.0</ele><time>2022-11-01T16:08:59.0000000+00:00</time></trkpt><trkpt lat="39.47475068" lon="-0.40382861"><ele>32.0</ele><time>2022-11-01T16:09:00.0000000+00:00</time></trkpt><trkpt lat="39.47474909" lon="-0.4037976"><ele>32.0</ele><time>2022-11-01T16:09:01.0000000+00:00</time></trkpt><trkpt lat="39.47473979" lon="-0.40375871"><ele>32.2</ele><time>2022-11-01T16:09:02.0000000+00:00</time></trkpt><trkpt lat="39.47472998" lon="-0.40371344"><ele>32.2</ele><time>2022-11-01T16:09:03.0000000+00:00</time></trkpt><trkpt lat="39.47472579" lon="-0.40366667"><ele>32.4</ele><time>2022-11-01T16:09:04.0000000+00:00</time></trkpt><trkpt lat="39.47473249" lon="-0.40361747"><ele>32.4</ele><time>2022-11-01T16:09:05.0000000+00:00</time></trkpt><trkpt lat="39.47474926" lon="-0.40356944"><ele>32.6</ele><time>2022-11-01T16:09:06.0000000+00:00</time></trkpt><trkpt lat="39.47477005" lon="-0.4035163"><ele>32.6</ele><time>2022-11-01T16:09:07.0000000+00:00</time></trkpt><trkpt lat="39.47479201" lon="-0.40346249"><ele>32.6</ele><time>2022-11-01T16:09:08.0000000+00:00</time></trkpt><trkpt lat="39.47480969" lon="-0.40341052"><ele>32.6</ele><time>2022-11-01T16:09:09.0000000+00:00</time></trkpt><trkpt lat="39.47482453" lon="-0.40336291"><ele>32.6</ele><time>2022-11-01T16:09:10.0000000+00:00</time></trkpt><trkpt lat="39.4748371" lon="-0.40331832"><ele>32.6</ele><time>2022-11-01T16:09:11.0000000+00:00</time></trkpt><trkpt lat="39.47484439" lon="-0.4032884"><ele>32.6</ele><time>2022-11-01T16:09:12.0000000+00:00</time></trkpt><trkpt lat="39.47484825" lon="-0.40326828"><ele>32.6</ele><time>2022-11-01T16:09:13.0000000+00:00</time></trkpt><trkpt lat="39.47484749" lon="-0.40326082"><ele>32.4</ele><time>2022-11-01T16:09:14.0000000+00:00</time></trkpt><trkpt lat="39.47484749" lon="-0.40326082"><ele>32.2</ele><time>2022-11-01T16:09:15.0000000+00:00</time></trkpt><trkpt lat="39.47484875" lon="-0.40325512"><ele>32.2</ele><time>2022-11-01T16:09:16.0000000+00:00</time></trkpt><trkpt lat="39.47485336" lon="-0.40323274"><ele>32.0</ele><time>2022-11-01T16:09:17.0000000+00:00</time></trkpt><trkpt lat="39.47485755" lon="-0.40320735"><ele>32.0</ele><time>2022-11-01T16:09:18.0000000+00:00</time></trkpt><trkpt lat="39.47485554" lon="-0.4031796"><ele>32.0</ele><time>2022-11-01T16:09:19.0000000+00:00</time></trkpt><trkpt lat="39.47485462" lon="-0.4031501"><ele>31.8</ele><time>2022-11-01T16:09:20.0000000+00:00</time></trkpt><trkpt lat="39.47486216" lon="-0.40312327"><ele>31.6</ele><time>2022-11-01T16:09:21.0000000+00:00</time></trkpt><trkpt lat="39.47487985" lon="-0.40309905"><ele>31.2</ele><time>2022-11-01T16:09:22.0000000+00:00</time></trkpt><trkpt lat="39.47488471" lon="-0.40307432"><ele>31.0</ele><time>2022-11-01T16:09:23.0000000+00:00</time></trkpt><trkpt lat="39.47488932" lon="-0.40304549"><ele>30.8</ele><time>2022-11-01T16:09:24.0000000+00:00</time></trkpt><trkpt lat="39.47489745" lon="-0.4029874"><ele>30.6</ele><time>2022-11-01T16:09:25.0000000+00:00</time></trkpt><trkpt lat="39.47490751" lon="-0.4029284"><ele>30.2</ele><time>2022-11-01T16:09:26.0000000+00:00</time></trkpt><trkpt lat="39.47491606" lon="-0.40286419"><ele>29.8</ele><time>2022-11-01T16:09:27.0000000+00:00</time></trkpt><trkpt lat="39.47493374" lon="-0.40281239"><ele>29.6</ele><time>2022-11-01T16:09:28.0000000+00:00</time></trkpt><trkpt lat="39.47495914" lon="-0.4027372"><ele>29.2</ele><time>2022-11-01T16:09:29.0000000+00:00</time></trkpt><trkpt lat="39.4749744" lon="-0.40265749"><ele>29.0</ele><time>2022-11-01T16:09:30.0000000+00:00</time></trkpt><trkpt lat="39.47498479" lon="-0.40257954"><ele>28.6</ele><time>2022-11-01T16:09:31.0000000+00:00</time></trkpt><trkpt lat="39.47499669" lon="-0.40249622"><ele>28.4</ele><time>2022-11-01T16:09:32.0000000+00:00</time></trkpt><trkpt lat="39.47501203" lon="-0.40241551"><ele>28.4</ele><time>2022-11-01T16:09:33.0000000+00:00</time></trkpt><trkpt lat="39.4750272" lon="-0.40234543"><ele>28.2</ele><time>2022-11-01T16:09:34.0000000+00:00</time></trkpt><trkpt lat="39.4750381" lon="-0.40226731"><ele>28.2</ele><time>2022-11-01T16:09:35.0000000+00:00</time></trkpt><trkpt lat="39.47504883" lon="-0.40221577"><ele>28.2</ele><time>2022-11-01T16:09:36.0000000+00:00</time></trkpt><trkpt lat="39.47506383" lon="-0.40214335"><ele>28.2</ele><time>2022-11-01T16:09:37.0000000+00:00</time></trkpt><trkpt lat="39.475079" lon="-0.40207981"><ele>28.2</ele><time>2022-11-01T16:09:38.0000000+00:00</time></trkpt><trkpt lat="39.47509375" lon="-0.4020182"><ele>28.0</ele><time>2022-11-01T16:09:39.0000000+00:00</time></trkpt><trkpt lat="39.47511111" lon="-0.40194151"><ele>28.0</ele><time>2022-11-01T16:09:40.0000000+00:00</time></trkpt><trkpt lat="39.47513164" lon="-0.40187404"><ele>27.8</ele><time>2022-11-01T16:09:41.0000000+00:00</time></trkpt><trkpt lat="39.47514975" lon="-0.40180036"><ele>27.8</ele><time>2022-11-01T16:09:42.0000000+00:00</time></trkpt><trkpt lat="39.47516768" lon="-0.40172744"><ele>27.8</ele><time>2022-11-01T16:09:43.0000000+00:00</time></trkpt><trkpt lat="39.47518327" lon="-0.40165946"><ele>27.8</ele><time>2022-11-01T16:09:44.0000000+00:00</time></trkpt><trkpt lat="39.4751935" lon="-0.40160364"><ele>27.8</ele><time>2022-11-01T16:09:45.0000000+00:00</time></trkpt><trkpt lat="39.47521244" lon="-0.4015339"><ele>27.8</ele><time>2022-11-01T16:09:46.0000000+00:00</time></trkpt><trkpt lat="39.47524773" lon="-0.40147162"><ele>27.8</ele><time>2022-11-01T16:09:47.0000000+00:00</time></trkpt><trkpt lat="39.47527329" lon="-0.40140825"><ele>27.8</ele><time>2022-11-01T16:09:48.0000000+00:00</time></trkpt><trkpt lat="39.47529199" lon="-0.40134925"><ele>27.8</ele><time>2022-11-01T16:09:49.0000000+00:00</time></trkpt><trkpt lat="39.47530783" lon="-0.40129166"><ele>27.8</ele><time>2022-11-01T16:09:50.0000000+00:00</time></trkpt><trkpt lat="39.47532903" lon="-0.40122863"><ele>27.8</ele><time>2022-11-01T16:09:51.0000000+00:00</time></trkpt><trkpt lat="39.47535452" lon="-0.40116183"><ele>27.8</ele><time>2022-11-01T16:09:52.0000000+00:00</time></trkpt><trkpt lat="39.47535074" lon="-0.40107264"><ele>27.8</ele><time>2022-11-01T16:09:53.0000000+00:00</time></trkpt><trkpt lat="39.47536483" lon="-0.40101137"><ele>27.8</ele><time>2022-11-01T16:09:54.0000000+00:00</time></trkpt><trkpt lat="39.47537312" lon="-0.40091716"><ele>27.8</ele><time>2022-11-01T16:09:55.0000000+00:00</time></trkpt><trkpt lat="39.47538804" lon="-0.40086016"><ele>27.6</ele><time>2022-11-01T16:09:56.0000000+00:00</time></trkpt><trkpt lat="39.47538989" lon="-0.40080166"><ele>27.6</ele><time>2022-11-01T16:09:57.0000000+00:00</time></trkpt><trkpt lat="39.47538771" lon="-0.40072932"><ele>27.6</ele><time>2022-11-01T16:09:58.0000000+00:00</time></trkpt><trkpt lat="39.47540078" lon="-0.40066578"><ele>27.4</ele><time>2022-11-01T16:09:59.0000000+00:00</time></trkpt><trkpt lat="39.47541587" lon="-0.40060753"><ele>27.4</ele><time>2022-11-01T16:10:00.0000000+00:00</time></trkpt><trkpt lat="39.47539366" lon="-0.40057853"><ele>27.4</ele><time>2022-11-01T16:10:01.0000000+00:00</time></trkpt><trkpt lat="39.47538469" lon="-0.40053729"><ele>27.4</ele><time>2022-11-01T16:10:02.0000000+00:00</time></trkpt><trkpt lat="39.47538167" lon="-0.40050083"><ele>27.4</ele><time>2022-11-01T16:10:03.0000000+00:00</time></trkpt><trkpt lat="39.47538368" lon="-0.40046797"><ele>27.6</ele><time>2022-11-01T16:10:04.0000000+00:00</time></trkpt><trkpt lat="39.4754002" lon="-0.4004062"><ele>27.6</ele><time>2022-11-01T16:10:05.0000000+00:00</time></trkpt><trkpt lat="39.47541361" lon="-0.4003694"><ele>27.6</ele><time>2022-11-01T16:10:06.0000000+00:00</time></trkpt><trkpt lat="39.47542417" lon="-0.40033721"><ele>27.6</ele><time>2022-11-01T16:10:07.0000000+00:00</time></trkpt><trkpt lat="39.47545292" lon="-0.40026429"><ele>27.6</ele><time>2022-11-01T16:10:08.0000000+00:00</time></trkpt><trkpt lat="39.47546591" lon="-0.40021568"><ele>27.6</ele><time>2022-11-01T16:10:09.0000000+00:00</time></trkpt><trkpt lat="39.47548242" lon="-0.40015717"><ele>27.6</ele><time>2022-11-01T16:10:10.0000000+00:00</time></trkpt><trkpt lat="39.47549382" lon="-0.40009749"><ele>27.4</ele><time>2022-11-01T16:10:11.0000000+00:00</time></trkpt><trkpt lat="39.4755022" lon="-0.40002943"><ele>27.4</ele><time>2022-11-01T16:10:12.0000000+00:00</time></trkpt><trkpt lat="39.47551603" lon="-0.39995718"><ele>27.4</ele><time>2022-11-01T16:10:13.0000000+00:00</time></trkpt><trkpt lat="39.47553665" lon="-0.39988644"><ele>27.4</ele><time>2022-11-01T16:10:14.0000000+00:00</time></trkpt><trkpt lat="39.47556146" lon="-0.39980563"><ele>27.4</ele><time>2022-11-01T16:10:15.0000000+00:00</time></trkpt><trkpt lat="39.4755851" lon="-0.3997369"><ele>27.4</ele><time>2022-11-01T16:10:16.0000000+00:00</time></trkpt><trkpt lat="39.47559767" lon="-0.39968007"><ele>27.2</ele><time>2022-11-01T16:10:17.0000000+00:00</time></trkpt><trkpt lat="39.47562525" lon="-0.39959173"><ele>27.2</ele><time>2022-11-01T16:10:18.0000000+00:00</time></trkpt><trkpt lat="39.47564168" lon="-0.39953247"><ele>27.2</ele><time>2022-11-01T16:10:19.0000000+00:00</time></trkpt><trkpt lat="39.47565568" lon="-0.39946273"><ele>27.0</ele><time>2022-11-01T16:10:20.0000000+00:00</time></trkpt><trkpt lat="39.47566699" lon="-0.39939567"><ele>27.0</ele><time>2022-11-01T16:10:21.0000000+00:00</time></trkpt><trkpt lat="39.47568267" lon="-0.39933105"><ele>27.0</ele><time>2022-11-01T16:10:22.0000000+00:00</time></trkpt><trkpt lat="39.4757022" lon="-0.39926358"><ele>27.0</ele><time>2022-11-01T16:10:23.0000000+00:00</time></trkpt><trkpt lat="39.47571209" lon="-0.39918118"><ele>27.0</ele><time>2022-11-01T16:10:24.0000000+00:00</time></trkpt><trkpt lat="39.47572759" lon="-0.39912125"><ele>27.2</ele><time>2022-11-01T16:10:25.0000000+00:00</time></trkpt><trkpt lat="39.47575391" lon="-0.39907171"><ele>27.2</ele><time>2022-11-01T16:10:26.0000000+00:00</time></trkpt><trkpt lat="39.47577168" lon="-0.39901153"><ele>27.2</ele><time>2022-11-01T16:10:27.0000000+00:00</time></trkpt><trkpt lat="39.47577671" lon="-0.39895185"><ele>27.4</ele><time>2022-11-01T16:10:28.0000000+00:00</time></trkpt><trkpt lat="39.47577545" lon="-0.39888212"><ele>27.4</ele><time>2022-11-01T16:10:29.0000000+00:00</time></trkpt><trkpt lat="39.47577839" lon="-0.39883719"><ele>27.4</ele><time>2022-11-01T16:10:30.0000000+00:00</time></trkpt><trkpt lat="39.47578325" lon="-0.3987651"><ele>27.4</ele><time>2022-11-01T16:10:31.0000000+00:00</time></trkpt><trkpt lat="39.47579457" lon="-0.39870157"><ele>27.4</ele><time>2022-11-01T16:10:32.0000000+00:00</time></trkpt><trkpt lat="39.47581728" lon="-0.39863812"><ele>27.4</ele><time>2022-11-01T16:10:33.0000000+00:00</time></trkpt><trkpt lat="39.47583698" lon="-0.39856997"><ele>27.4</ele><time>2022-11-01T16:10:34.0000000+00:00</time></trkpt><trkpt lat="39.47585047" lon="-0.39849822"><ele>27.4</ele><time>2022-11-01T16:10:35.0000000+00:00</time></trkpt><trkpt lat="39.47586087" lon="-0.39844248"><ele>27.2</ele><time>2022-11-01T16:10:36.0000000+00:00</time></trkpt><trkpt lat="39.47587394" lon="-0.39836654"><ele>27.2</ele><time>2022-11-01T16:10:37.0000000+00:00</time></trkpt><trkpt lat="39.47589171" lon="-0.39830041"><ele>27.2</ele><time>2022-11-01T16:10:38.0000000+00:00</time></trkpt><trkpt lat="39.47592063" lon="-0.39822841"><ele>27.2</ele><time>2022-11-01T16:10:39.0000000+00:00</time></trkpt><trkpt lat="39.47595424" lon="-0.39815281"><ele>27.4</ele><time>2022-11-01T16:10:40.0000000+00:00</time></trkpt><trkpt lat="39.47599213" lon="-0.398072"><ele>27.4</ele><time>2022-11-01T16:10:41.0000000+00:00</time></trkpt><trkpt lat="39.47601543" lon="-0.3979969"><ele>27.6</ele><time>2022-11-01T16:10:42.0000000+00:00</time></trkpt><trkpt lat="39.47603077" lon="-0.39792582"><ele>27.6</ele><time>2022-11-01T16:10:43.0000000+00:00</time></trkpt><trkpt lat="39.47604393" lon="-0.39786288"><ele>27.6</ele><time>2022-11-01T16:10:44.0000000+00:00</time></trkpt><trkpt lat="39.4760565" lon="-0.3978089"><ele>27.0</ele><time>2022-11-01T16:10:45.0000000+00:00</time></trkpt><trkpt lat="39.47606689" lon="-0.39775324"><ele>26.4</ele><time>2022-11-01T16:10:46.0000000+00:00</time></trkpt><trkpt lat="39.4760803" lon="-0.39769851"><ele>26.0</ele><time>2022-11-01T16:10:47.0000000+00:00</time></trkpt><trkpt lat="39.47610076" lon="-0.39763757"><ele>25.8</ele><time>2022-11-01T16:10:48.0000000+00:00</time></trkpt><trkpt lat="39.47611224" lon="-0.39758544"><ele>25.8</ele><time>2022-11-01T16:10:49.0000000+00:00</time></trkpt><trkpt lat="39.47612339" lon="-0.39752659"><ele>26.4</ele><time>2022-11-01T16:10:50.0000000+00:00</time></trkpt><trkpt lat="39.47613118" lon="-0.3974722"><ele>26.8</ele><time>2022-11-01T16:10:51.0000000+00:00</time></trkpt><trkpt lat="39.47614417" lon="-0.39741629"><ele>27.2</ele><time>2022-11-01T16:10:52.0000000+00:00</time></trkpt><trkpt lat="39.47615499" lon="-0.39735661"><ele>27.2</ele><time>2022-11-01T16:10:53.0000000+00:00</time></trkpt><trkpt lat="39.47616639" lon="-0.39729986"><ele>27.2</ele><time>2022-11-01T16:10:54.0000000+00:00</time></trkpt><trkpt lat="39.4761798" lon="-0.39724295"><ele>27.2</ele><time>2022-11-01T16:10:55.0000000+00:00</time></trkpt><trkpt lat="39.47618969" lon="-0.39718662"><ele>27.2</ele><time>2022-11-01T16:10:56.0000000+00:00</time></trkpt><trkpt lat="39.47620662" lon="-0.39712418"><ele>27.2</ele><time>2022-11-01T16:10:57.0000000+00:00</time></trkpt><trkpt lat="39.47621483" lon="-0.39708613"><ele>27.2</ele><time>2022-11-01T16:10:58.0000000+00:00</time></trkpt><trkpt lat="39.47622523" lon="-0.39702502"><ele>27.2</ele><time>2022-11-01T16:10:59.0000000+00:00</time></trkpt><trkpt lat="39.4762492" lon="-0.39696308"><ele>27.2</ele><time>2022-11-01T16:11:00.0000000+00:00</time></trkpt><trkpt lat="39.47626739" lon="-0.39690365"><ele>27.0</ele><time>2022-11-01T16:11:01.0000000+00:00</time></trkpt><trkpt lat="39.47627946" lon="-0.39685353"><ele>26.8</ele><time>2022-11-01T16:11:02.0000000+00:00</time></trkpt><trkpt lat="39.47629027" lon="-0.39682461"><ele>26.8</ele><time>2022-11-01T16:11:03.0000000+00:00</time></trkpt><trkpt lat="39.47630368" lon="-0.39678329"><ele>26.8</ele><time>2022-11-01T16:11:04.0000000+00:00</time></trkpt><trkpt lat="39.47631332" lon="-0.39675395"><ele>26.8</ele><time>2022-11-01T16:11:05.0000000+00:00</time></trkpt><trkpt lat="39.47632807" lon="-0.39672076"><ele>26.6</ele><time>2022-11-01T16:11:06.0000000+00:00</time></trkpt><trkpt lat="39.47634668" lon="-0.39668497"><ele>26.6</ele><time>2022-11-01T16:11:07.0000000+00:00</time></trkpt><trkpt lat="39.47636462" lon="-0.3966501"><ele>26.6</ele><time>2022-11-01T16:11:08.0000000+00:00</time></trkpt><trkpt lat="39.47638457" lon="-0.39659578"><ele>26.6</ele><time>2022-11-01T16:11:09.0000000+00:00</time></trkpt><trkpt lat="39.47639471" lon="-0.39656058"><ele>26.6</ele><time>2022-11-01T16:11:10.0000000+00:00</time></trkpt><trkpt lat="39.47636453" lon="-0.39638976"><ele>26.6</ele><time>2022-11-01T16:11:11.0000000+00:00</time></trkpt><trkpt lat="39.47641994" lon="-0.39633762"><ele>26.6</ele><time>2022-11-01T16:11:12.0000000+00:00</time></trkpt><trkpt lat="39.47644902" lon="-0.3962999"><ele>26.6</ele><time>2022-11-01T16:11:13.0000000+00:00</time></trkpt><trkpt lat="39.4764642" lon="-0.39626068"><ele>26.6</ele><time>2022-11-01T16:11:14.0000000+00:00</time></trkpt><trkpt lat="39.47647844" lon="-0.3962471"><ele>26.6</ele><time>2022-11-01T16:11:15.0000000+00:00</time></trkpt><trkpt lat="39.47649797" lon="-0.39624299"><ele>26.6</ele><time>2022-11-01T16:11:16.0000000+00:00</time></trkpt><trkpt lat="39.47652136" lon="-0.39620452"><ele>26.8</ele><time>2022-11-01T16:11:17.0000000+00:00</time></trkpt><trkpt lat="39.47655573" lon="-0.39615104"><ele>26.8</ele><time>2022-11-01T16:11:18.0000000+00:00</time></trkpt><trkpt lat="39.47659479" lon="-0.39609186"><ele>26.8</ele><time>2022-11-01T16:11:19.0000000+00:00</time></trkpt><trkpt lat="39.47662513" lon="-0.39601944"><ele>26.8</ele><time>2022-11-01T16:11:20.0000000+00:00</time></trkpt><trkpt lat="39.47665103" lon="-0.39594954"><ele>26.4</ele><time>2022-11-01T16:11:21.0000000+00:00</time></trkpt><trkpt lat="39.47667894" lon="-0.3958803"><ele>26.2</ele><time>2022-11-01T16:11:22.0000000+00:00</time></trkpt><trkpt lat="39.47670761" lon="-0.39580923"><ele>26.2</ele><time>2022-11-01T16:11:23.0000000+00:00</time></trkpt><trkpt lat="39.47673845" lon="-0.39573982"><ele>26.0</ele><time>2022-11-01T16:11:24.0000000+00:00</time></trkpt><trkpt lat="39.47677215" lon="-0.3956752"><ele>26.0</ele><time>2022-11-01T16:11:25.0000000+00:00</time></trkpt><trkpt lat="39.47680333" lon="-0.39561183"><ele>26.0</ele><time>2022-11-01T16:11:26.0000000+00:00</time></trkpt><trkpt lat="39.47683375" lon="-0.3955452"><ele>26.0</ele><time>2022-11-01T16:11:27.0000000+00:00</time></trkpt><trkpt lat="39.47686569" lon="-0.39547789"><ele>26.0</ele><time>2022-11-01T16:11:28.0000000+00:00</time></trkpt><trkpt lat="39.47690156" lon="-0.3954141"><ele>26.0</ele><time>2022-11-01T16:11:29.0000000+00:00</time></trkpt><trkpt lat="39.47693886" lon="-0.39534898"><ele>26.0</ele><time>2022-11-01T16:11:30.0000000+00:00</time></trkpt><trkpt lat="39.47697423" lon="-0.39528385"><ele>26.0</ele><time>2022-11-01T16:11:31.0000000+00:00</time></trkpt><trkpt lat="39.47700365" lon="-0.39522417"><ele>25.8</ele><time>2022-11-01T16:11:32.0000000+00:00</time></trkpt><trkpt lat="39.47703157" lon="-0.39516499"><ele>25.8</ele><time>2022-11-01T16:11:33.0000000+00:00</time></trkpt><trkpt lat="39.47705797" lon="-0.39510883"><ele>25.8</ele><time>2022-11-01T16:11:34.0000000+00:00</time></trkpt><trkpt lat="39.47708446" lon="-0.39505594"><ele>25.8</ele><time>2022-11-01T16:11:35.0000000+00:00</time></trkpt><trkpt lat="39.47710726" lon="-0.39500113"><ele>25.8</ele><time>2022-11-01T16:11:36.0000000+00:00</time></trkpt><trkpt lat="39.47712762" lon="-0.39494673"><ele>25.8</ele><time>2022-11-01T16:11:37.0000000+00:00</time></trkpt><trkpt lat="39.4771495" lon="-0.39488839"><ele>25.8</ele><time>2022-11-01T16:11:38.0000000+00:00</time></trkpt><trkpt lat="39.47717649" lon="-0.39483081"><ele>25.8</ele><time>2022-11-01T16:11:39.0000000+00:00</time></trkpt><trkpt lat="39.47720247" lon="-0.39477347"><ele>25.8</ele><time>2022-11-01T16:11:40.0000000+00:00</time></trkpt><trkpt lat="39.47723189" lon="-0.39471933"><ele>25.8</ele><time>2022-11-01T16:11:41.0000000+00:00</time></trkpt><trkpt lat="39.47725612" lon="-0.39466627"><ele>25.8</ele><time>2022-11-01T16:11:42.0000000+00:00</time></trkpt><trkpt lat="39.47727288" lon="-0.39461816"><ele>25.8</ele><time>2022-11-01T16:11:43.0000000+00:00</time></trkpt><trkpt lat="39.47728688" lon="-0.3945708"><ele>25.8</ele><time>2022-11-01T16:11:44.0000000+00:00</time></trkpt><trkpt lat="39.4773127" lon="-0.3945185"><ele>25.8</ele><time>2022-11-01T16:11:45.0000000+00:00</time></trkpt><trkpt lat="39.47733893" lon="-0.39446284"><ele>26.0</ele><time>2022-11-01T16:11:46.0000000+00:00</time></trkpt><trkpt lat="39.47736299" lon="-0.39441154"><ele>26.0</ele><time>2022-11-01T16:11:47.0000000+00:00</time></trkpt><trkpt lat="39.47738905" lon="-0.39436041"><ele>25.8</ele><time>2022-11-01T16:11:48.0000000+00:00</time></trkpt><trkpt lat="39.4774137" lon="-0.39430786"><ele>25.8</ele><time>2022-11-01T16:11:49.0000000+00:00</time></trkpt><trkpt lat="39.47743868" lon="-0.39425438"><ele>25.8</ele><time>2022-11-01T16:11:50.0000000+00:00</time></trkpt><trkpt lat="39.47746332" lon="-0.39419579"><ele>25.8</ele><time>2022-11-01T16:11:51.0000000+00:00</time></trkpt><trkpt lat="39.47748863" lon="-0.3941357"><ele>25.8</ele><time>2022-11-01T16:11:52.0000000+00:00</time></trkpt><trkpt lat="39.47751805" lon="-0.3940699"><ele>25.8</ele><time>2022-11-01T16:11:53.0000000+00:00</time></trkpt><trkpt lat="39.47753783" lon="-0.3940264"><ele>25.8</ele><time>2022-11-01T16:11:54.0000000+00:00</time></trkpt><trkpt lat="39.47755904" lon="-0.39397334"><ele>25.8</ele><time>2022-11-01T16:11:55.0000000+00:00</time></trkpt><trkpt lat="39.47757522" lon="-0.39392673"><ele>25.8</ele><time>2022-11-01T16:11:56.0000000+00:00</time></trkpt><trkpt lat="39.47759584" lon="-0.39387921"><ele>25.6</ele><time>2022-11-01T16:11:57.0000000+00:00</time></trkpt><trkpt lat="39.47761922" lon="-0.39381987"><ele>25.6</ele><time>2022-11-01T16:11:58.0000000+00:00</time></trkpt><trkpt lat="39.47763247" lon="-0.39377854"><ele>25.6</ele><time>2022-11-01T16:11:59.0000000+00:00</time></trkpt><trkpt lat="39.47765091" lon="-0.39372842"><ele>25.6</ele><time>2022-11-01T16:12:00.0000000+00:00</time></trkpt><trkpt lat="39.47766909" lon="-0.39368257"><ele>25.6</ele><time>2022-11-01T16:12:01.0000000+00:00</time></trkpt><trkpt lat="39.47768653" lon="-0.39364485"><ele>25.6</ele><time>2022-11-01T16:12:02.0000000+00:00</time></trkpt><trkpt lat="39.47770815" lon="-0.39360738"><ele>25.6</ele><time>2022-11-01T16:12:03.0000000+00:00</time></trkpt><trkpt lat="39.47772609" lon="-0.39356933"><ele>25.6</ele><time>2022-11-01T16:12:04.0000000+00:00</time></trkpt><trkpt lat="39.47774772" lon="-0.39353019"><ele>25.6</ele><time>2022-11-01T16:12:05.0000000+00:00</time></trkpt><trkpt lat="39.47777144" lon="-0.39348786"><ele>25.4</ele><time>2022-11-01T16:12:06.0000000+00:00</time></trkpt><trkpt lat="39.4777872" lon="-0.39344662"><ele>25.4</ele><time>2022-11-01T16:12:07.0000000+00:00</time></trkpt><trkpt lat="39.47780421" lon="-0.39340647"><ele>25.4</ele><time>2022-11-01T16:12:08.0000000+00:00</time></trkpt><trkpt lat="39.47781729" lon="-0.3933659"><ele>25.4</ele><time>2022-11-01T16:12:09.0000000+00:00</time></trkpt><trkpt lat="39.4778291" lon="-0.39332843"><ele>25.4</ele><time>2022-11-01T16:12:10.0000000+00:00</time></trkpt><trkpt lat="39.47784352" lon="-0.39328921"><ele>25.4</ele><time>2022-11-01T16:12:11.0000000+00:00</time></trkpt><trkpt lat="39.47786029" lon="-0.3932483"><ele>25.4</ele><time>2022-11-01T16:12:12.0000000+00:00</time></trkpt><trkpt lat="39.47788141" lon="-0.39320631"><ele>25.4</ele><time>2022-11-01T16:12:13.0000000+00:00</time></trkpt><trkpt lat="39.47790144" lon="-0.39316792"><ele>25.4</ele><time>2022-11-01T16:12:14.0000000+00:00</time></trkpt><trkpt lat="39.4779224" lon="-0.39312903"><ele>25.4</ele><time>2022-11-01T16:12:15.0000000+00:00</time></trkpt><trkpt lat="39.47794478" lon="-0.39308544"><ele>25.4</ele><time>2022-11-01T16:12:16.0000000+00:00</time></trkpt><trkpt lat="39.47796699" lon="-0.39303607"><ele>25.4</ele><time>2022-11-01T16:12:17.0000000+00:00</time></trkpt><trkpt lat="39.47799305" lon="-0.39298243"><ele>25.4</ele><time>2022-11-01T16:12:18.0000000+00:00</time></trkpt><trkpt lat="39.47801728" lon="-0.39292686"><ele>25.4</ele><time>2022-11-01T16:12:19.0000000+00:00</time></trkpt><trkpt lat="39.47804485" lon="-0.39287246"><ele>25.4</ele><time>2022-11-01T16:12:20.0000000+00:00</time></trkpt><trkpt lat="39.47807503" lon="-0.39281563"><ele>25.4</ele><time>2022-11-01T16:12:21.0000000+00:00</time></trkpt><trkpt lat="39.47810152" lon="-0.39275687"><ele>25.2</ele><time>2022-11-01T16:12:22.0000000+00:00</time></trkpt><trkpt lat="39.4781275" lon="-0.39269837"><ele>25.2</ele><time>2022-11-01T16:12:23.0000000+00:00</time></trkpt><trkpt lat="39.47815575" lon="-0.39264187"><ele>25.4</ele><time>2022-11-01T16:12:24.0000000+00:00</time></trkpt><trkpt lat="39.4781871" lon="-0.39258513"><ele>25.4</ele><time>2022-11-01T16:12:25.0000000+00:00</time></trkpt><trkpt lat="39.47821786" lon="-0.39252847"><ele>25.4</ele><time>2022-11-01T16:12:26.0000000+00:00</time></trkpt><trkpt lat="39.47824183" lon="-0.39247884"><ele>25.4</ele><time>2022-11-01T16:12:27.0000000+00:00</time></trkpt><trkpt lat="39.47826119" lon="-0.39243073"><ele>25.4</ele><time>2022-11-01T16:12:28.0000000+00:00</time></trkpt><trkpt lat="39.47828114" lon="-0.3923822"><ele>25.6</ele><time>2022-11-01T16:12:29.0000000+00:00</time></trkpt><trkpt lat="39.47830872" lon="-0.39232914"><ele>25.6</ele><time>2022-11-01T16:12:30.0000000+00:00</time></trkpt><trkpt lat="39.47833638" lon="-0.39228614"><ele>25.4</ele><time>2022-11-01T16:12:31.0000000+00:00</time></trkpt><trkpt lat="39.47835758" lon="-0.39223367"><ele>25.4</ele><time>2022-11-01T16:12:32.0000000+00:00</time></trkpt><trkpt lat="39.47835859" lon="-0.39217383"><ele>25.4</ele><time>2022-11-01T16:12:33.0000000+00:00</time></trkpt><trkpt lat="39.47835867" lon="-0.39213183"><ele>25.4</ele><time>2022-11-01T16:12:34.0000000+00:00</time></trkpt><trkpt lat="39.47835985" lon="-0.39208188"><ele>25.4</ele><time>2022-11-01T16:12:35.0000000+00:00</time></trkpt><trkpt lat="39.4783668" lon="-0.39203293"><ele>25.4</ele><time>2022-11-01T16:12:36.0000000+00:00</time></trkpt><trkpt lat="39.47837351" lon="-0.3919818"><ele>25.4</ele><time>2022-11-01T16:12:37.0000000+00:00</time></trkpt><trkpt lat="39.47837762" lon="-0.39192522"><ele>25.2</ele><time>2022-11-01T16:12:38.0000000+00:00</time></trkpt><trkpt lat="39.4783855" lon="-0.39186747"><ele>25.2</ele><time>2022-11-01T16:12:39.0000000+00:00</time></trkpt><trkpt lat="39.47840159" lon="-0.3918129"><ele>25.2</ele><time>2022-11-01T16:12:40.0000000+00:00</time></trkpt><trkpt lat="39.47841785" lon="-0.39175758"><ele>25.2</ele><time>2022-11-01T16:12:41.0000000+00:00</time></trkpt><trkpt lat="39.47842229" lon="-0.391701"><ele>25.2</ele><time>2022-11-01T16:12:42.0000000+00:00</time></trkpt><trkpt lat="39.47842598" lon="-0.39165088"><ele>25.2</ele><time>2022-11-01T16:12:43.0000000+00:00</time></trkpt><trkpt lat="39.47842858" lon="-0.39160629"><ele>25.2</ele><time>2022-11-01T16:12:44.0000000+00:00</time></trkpt><trkpt lat="39.47844409" lon="-0.39156061"><ele>25.2</ele><time>2022-11-01T16:12:45.0000000+00:00</time></trkpt><trkpt lat="39.47846035" lon="-0.39151434"><ele>25.4</ele><time>2022-11-01T16:12:46.0000000+00:00</time></trkpt><trkpt lat="39.47847082" lon="-0.39145986"><ele>25.4</ele><time>2022-11-01T16:12:47.0000000+00:00</time></trkpt><trkpt lat="39.47846948" lon="-0.39140537"><ele>25.4</ele><time>2022-11-01T16:12:48.0000000+00:00</time></trkpt><trkpt lat="39.47847585" lon="-0.39134285"><ele>25.4</ele><time>2022-11-01T16:12:49.0000000+00:00</time></trkpt><trkpt lat="39.47847971" lon="-0.39129943"><ele>25.4</ele><time>2022-11-01T16:12:50.0000000+00:00</time></trkpt><trkpt lat="39.47849463" lon="-0.39124243"><ele>25.4</ele><time>2022-11-01T16:12:51.0000000+00:00</time></trkpt><trkpt lat="39.47849815" lon="-0.39119038"><ele>25.4</ele><time>2022-11-01T16:12:52.0000000+00:00</time></trkpt><trkpt lat="39.47850318" lon="-0.3911307"><ele>25.6</ele><time>2022-11-01T16:12:53.0000000+00:00</time></trkpt><trkpt lat="39.4785041" lon="-0.39105048"><ele>25.6</ele><time>2022-11-01T16:12:54.0000000+00:00</time></trkpt><trkpt lat="39.47850779" lon="-0.39098653"><ele>25.6</ele><time>2022-11-01T16:12:55.0000000+00:00</time></trkpt><trkpt lat="39.47851298" lon="-0.390923"><ele>25.6</ele><time>2022-11-01T16:12:56.0000000+00:00</time></trkpt><trkpt lat="39.47851994" lon="-0.39085829"><ele>25.6</ele><time>2022-11-01T16:12:57.0000000+00:00</time></trkpt><trkpt lat="39.47853" lon="-0.39078469"><ele>25.6</ele><time>2022-11-01T16:12:58.0000000+00:00</time></trkpt><trkpt lat="39.47854232" lon="-0.39072015"><ele>25.6</ele><time>2022-11-01T16:12:59.0000000+00:00</time></trkpt><trkpt lat="39.47855447" lon="-0.39066835"><ele>25.8</ele><time>2022-11-01T16:13:00.0000000+00:00</time></trkpt><trkpt lat="39.47857878" lon="-0.3905894"><ele>25.8</ele><time>2022-11-01T16:13:01.0000000+00:00</time></trkpt><trkpt lat="39.47867702" lon="-0.39048001"><ele>25.8</ele><time>2022-11-01T16:13:02.0000000+00:00</time></trkpt><trkpt lat="39.4787165" lon="-0.39040717"><ele>25.8</ele><time>2022-11-01T16:13:03.0000000+00:00</time></trkpt><trkpt lat="39.47873661" lon="-0.39035101"><ele>25.8</ele><time>2022-11-01T16:13:04.0000000+00:00</time></trkpt><trkpt lat="39.47876369" lon="-0.39030659"><ele>25.8</ele><time>2022-11-01T16:13:05.0000000+00:00</time></trkpt><trkpt lat="39.47878992" lon="-0.39024892"><ele>25.8</ele><time>2022-11-01T16:13:06.0000000+00:00</time></trkpt><trkpt lat="39.47882764" lon="-0.39019478"><ele>25.8</ele><time>2022-11-01T16:13:07.0000000+00:00</time></trkpt><trkpt lat="39.47886452" lon="-0.39015186"><ele>25.8</ele><time>2022-11-01T16:13:08.0000000+00:00</time></trkpt><trkpt lat="39.47889067" lon="-0.39011515"><ele>25.8</ele><time>2022-11-01T16:13:09.0000000+00:00</time></trkpt><trkpt lat="39.47892881" lon="-0.39005715"><ele>25.8</ele><time>2022-11-01T16:13:10.0000000+00:00</time></trkpt><trkpt lat="39.47896653" lon="-0.39000392"><ele>25.8</ele><time>2022-11-01T16:13:11.0000000+00:00</time></trkpt><trkpt lat="39.47899654" lon="-0.38995346"><ele>25.8</ele><time>2022-11-01T16:13:12.0000000+00:00</time></trkpt><trkpt lat="39.47902378" lon="-0.38990703"><ele>25.8</ele><time>2022-11-01T16:13:13.0000000+00:00</time></trkpt><trkpt lat="39.47904322" lon="-0.38986587"><ele>25.8</ele><time>2022-11-01T16:13:14.0000000+00:00</time></trkpt><trkpt lat="39.4790853" lon="-0.38979722"><ele>25.8</ele><time>2022-11-01T16:13:15.0000000+00:00</time></trkpt><trkpt lat="39.47911413" lon="-0.389744"><ele>25.8</ele><time>2022-11-01T16:13:16.0000000+00:00</time></trkpt><trkpt lat="39.4791371" lon="-0.38967912"><ele>25.6</ele><time>2022-11-01T16:13:17.0000000+00:00</time></trkpt><trkpt lat="39.47916149" lon="-0.38961458"><ele>25.6</ele><time>2022-11-01T16:13:18.0000000+00:00</time></trkpt><trkpt lat="39.47917851" lon="-0.38955482"><ele>25.6</ele><time>2022-11-01T16:13:19.0000000+00:00</time></trkpt><trkpt lat="39.47918647" lon="-0.38949723"><ele>25.6</ele><time>2022-11-01T16:13:20.0000000+00:00</time></trkpt><trkpt lat="39.479206" lon="-0.38942674"><ele>25.6</ele><time>2022-11-01T16:13:21.0000000+00:00</time></trkpt><trkpt lat="39.47922084" lon="-0.38937695"><ele>25.6</ele><time>2022-11-01T16:13:22.0000000+00:00</time></trkpt><trkpt lat="39.47923802" lon="-0.38931535"><ele>25.6</ele><time>2022-11-01T16:13:23.0000000+00:00</time></trkpt><trkpt lat="39.47926082" lon="-0.38923346"><ele>25.4</ele><time>2022-11-01T16:13:24.0000000+00:00</time></trkpt><trkpt lat="39.47929049" lon="-0.38916632"><ele>25.4</ele><time>2022-11-01T16:13:25.0000000+00:00</time></trkpt><trkpt lat="39.47931698" lon="-0.38909256"><ele>25.4</ele><time>2022-11-01T16:13:26.0000000+00:00</time></trkpt><trkpt lat="39.47933936" lon="-0.38902424"><ele>25.4</ele><time>2022-11-01T16:13:27.0000000+00:00</time></trkpt><trkpt lat="39.47935964" lon="-0.38895979"><ele>25.4</ele><time>2022-11-01T16:13:28.0000000+00:00</time></trkpt><trkpt lat="39.47938194" lon="-0.3888929"><ele>25.4</ele><time>2022-11-01T16:13:29.0000000+00:00</time></trkpt><trkpt lat="39.47940976" lon="-0.38882274"><ele>25.4</ele><time>2022-11-01T16:13:30.0000000+00:00</time></trkpt><trkpt lat="39.47943608" lon="-0.38875409"><ele>25.2</ele><time>2022-11-01T16:13:31.0000000+00:00</time></trkpt><trkpt lat="39.47944757" lon="-0.38870104"><ele>25.2</ele><time>2022-11-01T16:13:32.0000000+00:00</time></trkpt><trkpt lat="39.47945863" lon="-0.38865267"><ele>25.2</ele><time>2022-11-01T16:13:33.0000000+00:00</time></trkpt><trkpt lat="39.47947623" lon="-0.38859878"><ele>25.2</ele><time>2022-11-01T16:13:34.0000000+00:00</time></trkpt><trkpt lat="39.47950071" lon="-0.38854036"><ele>25.2</ele><time>2022-11-01T16:13:35.0000000+00:00</time></trkpt><trkpt lat="39.47952225" lon="-0.38847238"><ele>25.4</ele><time>2022-11-01T16:13:36.0000000+00:00</time></trkpt><trkpt lat="39.47954832" lon="-0.38840088"><ele>25.4</ele><time>2022-11-01T16:13:37.0000000+00:00</time></trkpt><trkpt lat="39.47957438" lon="-0.38832729"><ele>25.4</ele><time>2022-11-01T16:13:38.0000000+00:00</time></trkpt><trkpt lat="39.47959693" lon="-0.38825629"><ele>25.4</ele><time>2022-11-01T16:13:39.0000000+00:00</time></trkpt><trkpt lat="39.47961931" lon="-0.38819192"><ele>25.4</ele><time>2022-11-01T16:13:40.0000000+00:00</time></trkpt><trkpt lat="39.47964094" lon="-0.38812939"><ele>25.4</ele><time>2022-11-01T16:13:41.0000000+00:00</time></trkpt><trkpt lat="39.47966994" lon="-0.38805337"><ele>25.6</ele><time>2022-11-01T16:13:42.0000000+00:00</time></trkpt><trkpt lat="39.47969148" lon="-0.38799411"><ele>25.6</ele><time>2022-11-01T16:13:43.0000000+00:00</time></trkpt><trkpt lat="39.47972652" lon="-0.38792244"><ele>25.6</ele><time>2022-11-01T16:13:44.0000000+00:00</time></trkpt><trkpt lat="39.47976583" lon="-0.38784265"><ele>25.6</ele><time>2022-11-01T16:13:45.0000000+00:00</time></trkpt><trkpt lat="39.47979592" lon="-0.38777953"><ele>25.6</ele><time>2022-11-01T16:13:46.0000000+00:00</time></trkpt><trkpt lat="39.47982048" lon="-0.38772538"><ele>25.6</ele><time>2022-11-01T16:13:47.0000000+00:00</time></trkpt><trkpt lat="39.47986331" lon="-0.38764475"><ele>25.6</ele><time>2022-11-01T16:13:48.0000000+00:00</time></trkpt><trkpt lat="39.4798986" lon="-0.38757761"><ele>25.6</ele><time>2022-11-01T16:13:49.0000000+00:00</time></trkpt><trkpt lat="39.47993212" lon="-0.38751743"><ele>25.4</ele><time>2022-11-01T16:13:50.0000000+00:00</time></trkpt><trkpt lat="39.47995719" lon="-0.387473"><ele>25.4</ele><time>2022-11-01T16:13:51.0000000+00:00</time></trkpt><trkpt lat="39.47998426" lon="-0.38741492"><ele>25.2</ele><time>2022-11-01T16:13:52.0000000+00:00</time></trkpt><trkpt lat="39.48001041" lon="-0.38736035"><ele>25.2</ele><time>2022-11-01T16:13:53.0000000+00:00</time></trkpt><trkpt lat="39.48002759" lon="-0.38730679"><ele>25.0</ele><time>2022-11-01T16:13:54.0000000+00:00</time></trkpt><trkpt lat="39.48005006" lon="-0.38724158"><ele>25.0</ele><time>2022-11-01T16:13:55.0000000+00:00</time></trkpt><trkpt lat="39.4800721" lon="-0.38718257"><ele>25.0</ele><time>2022-11-01T16:13:56.0000000+00:00</time></trkpt><trkpt lat="39.48008887" lon="-0.38713086"><ele>25.0</ele><time>2022-11-01T16:13:57.0000000+00:00</time></trkpt><trkpt lat="39.48011594" lon="-0.38706564"><ele>25.0</ele><time>2022-11-01T16:13:58.0000000+00:00</time></trkpt><trkpt lat="39.48013882" lon="-0.38699758"><ele>25.0</ele><time>2022-11-01T16:13:59.0000000+00:00</time></trkpt><trkpt lat="39.48016858" lon="-0.38692449"><ele>25.0</ele><time>2022-11-01T16:14:00.0000000+00:00</time></trkpt><trkpt lat="39.48019439" lon="-0.38685358"><ele>24.8</ele><time>2022-11-01T16:14:01.0000000+00:00</time></trkpt><trkpt lat="39.48023086" lon="-0.38676968"><ele>24.8</ele><time>2022-11-01T16:14:02.0000000+00:00</time></trkpt><trkpt lat="39.48026547" lon="-0.38670003"><ele>24.8</ele><time>2022-11-01T16:14:03.0000000+00:00</time></trkpt><trkpt lat="39.48029934" lon="-0.38663532"><ele>24.8</ele><time>2022-11-01T16:14:04.0000000+00:00</time></trkpt><trkpt lat="39.48033563" lon="-0.38656994"><ele>24.8</ele><time>2022-11-01T16:14:05.0000000+00:00</time></trkpt><trkpt lat="39.48036497" lon="-0.3865095"><ele>25.0</ele><time>2022-11-01T16:14:06.0000000+00:00</time></trkpt><trkpt lat="39.480386" lon="-0.38645636"><ele>25.0</ele><time>2022-11-01T16:14:07.0000000+00:00</time></trkpt><trkpt lat="39.48040377" lon="-0.38641873"><ele>25.2</ele><time>2022-11-01T16:14:08.0000000+00:00</time></trkpt><trkpt lat="39.48042347" lon="-0.38637808"><ele>25.2</ele><time>2022-11-01T16:14:09.0000000+00:00</time></trkpt><trkpt lat="39.48044677" lon="-0.38634111"><ele>25.2</ele><time>2022-11-01T16:14:10.0000000+00:00</time></trkpt><trkpt lat="39.48047368" lon="-0.38629007"><ele>25.0</ele><time>2022-11-01T16:14:11.0000000+00:00</time></trkpt><trkpt lat="39.48049866" lon="-0.38623927"><ele>25.0</ele><time>2022-11-01T16:14:12.0000000+00:00</time></trkpt><trkpt lat="39.48052975" lon="-0.38618571"><ele>24.8</ele><time>2022-11-01T16:14:13.0000000+00:00</time></trkpt><trkpt lat="39.48055674" lon="-0.38613559"><ele>24.8</ele><time>2022-11-01T16:14:14.0000000+00:00</time></trkpt><trkpt lat="39.48057569" lon="-0.38609292"><ele>24.8</ele><time>2022-11-01T16:14:15.0000000+00:00</time></trkpt><trkpt lat="39.48059572" lon="-0.38604515"><ele>24.8</ele><time>2022-11-01T16:14:16.0000000+00:00</time></trkpt><trkpt lat="39.48061382" lon="-0.38599276"><ele>24.6</ele><time>2022-11-01T16:14:17.0000000+00:00</time></trkpt><trkpt lat="39.48062782" lon="-0.38595596"><ele>24.6</ele><time>2022-11-01T16:14:18.0000000+00:00</time></trkpt><trkpt lat="39.48064844" lon="-0.38590609"><ele>24.6</ele><time>2022-11-01T16:14:19.0000000+00:00</time></trkpt><trkpt lat="39.48067426" lon="-0.38585421"><ele>24.6</ele><time>2022-11-01T16:14:20.0000000+00:00</time></trkpt><trkpt lat="39.48070108" lon="-0.38580232"><ele>24.6</ele><time>2022-11-01T16:14:21.0000000+00:00</time></trkpt><trkpt lat="39.48073754" lon="-0.38574449"><ele>24.6</ele><time>2022-11-01T16:14:22.0000000+00:00</time></trkpt><trkpt lat="39.48077643" lon="-0.38567894"><ele>24.6</ele><time>2022-11-01T16:14:23.0000000+00:00</time></trkpt><trkpt lat="39.48081449" lon="-0.38560577"><ele>24.6</ele><time>2022-11-01T16:14:24.0000000+00:00</time></trkpt><trkpt lat="39.48085095" lon="-0.38553653"><ele>24.6</ele><time>2022-11-01T16:14:25.0000000+00:00</time></trkpt><trkpt lat="39.4808823" lon="-0.3854642"><ele>24.6</ele><time>2022-11-01T16:14:26.0000000+00:00</time></trkpt><trkpt lat="39.48091105" lon="-0.38539689"><ele>24.6</ele><time>2022-11-01T16:14:27.0000000+00:00</time></trkpt><trkpt lat="39.48094759" lon="-0.3853347"><ele>24.6</ele><time>2022-11-01T16:14:28.0000000+00:00</time></trkpt><trkpt lat="39.48098439" lon="-0.38527988"><ele>24.6</ele><time>2022-11-01T16:14:29.0000000+00:00</time></trkpt><trkpt lat="39.48102554" lon="-0.38522121"><ele>24.6</ele><time>2022-11-01T16:14:30.0000000+00:00</time></trkpt><trkpt lat="39.48106854" lon="-0.38516119"><ele>24.6</ele><time>2022-11-01T16:14:31.0000000+00:00</time></trkpt><trkpt lat="39.48110023" lon="-0.38508978"><ele>24.6</ele><time>2022-11-01T16:14:32.0000000+00:00</time></trkpt><trkpt lat="39.4811309" lon="-0.38502666"><ele>24.4</ele><time>2022-11-01T16:14:33.0000000+00:00</time></trkpt><trkpt lat="39.48116636" lon="-0.38496137"><ele>24.4</ele><time>2022-11-01T16:14:34.0000000+00:00</time></trkpt><trkpt lat="39.48119427" lon="-0.38490219"><ele>24.4</ele><time>2022-11-01T16:14:35.0000000+00:00</time></trkpt><trkpt lat="39.48121891" lon="-0.38485324"><ele>24.4</ele><time>2022-11-01T16:14:36.0000000+00:00</time></trkpt><trkpt lat="39.48124498" lon="-0.38479742"><ele>24.2</ele><time>2022-11-01T16:14:37.0000000+00:00</time></trkpt><trkpt lat="39.48126309" lon="-0.38474034"><ele>24.4</ele><time>2022-11-01T16:14:38.0000000+00:00</time></trkpt><trkpt lat="39.48127826" lon="-0.38468057"><ele>24.2</ele><time>2022-11-01T16:14:39.0000000+00:00</time></trkpt><trkpt lat="39.48128329" lon="-0.38461612"><ele>24.2</ele><time>2022-11-01T16:14:40.0000000+00:00</time></trkpt><trkpt lat="39.48130407" lon="-0.38455677"><ele>24.2</ele><time>2022-11-01T16:14:41.0000000+00:00</time></trkpt><trkpt lat="39.48131832" lon="-0.38450589"><ele>24.4</ele><time>2022-11-01T16:14:42.0000000+00:00</time></trkpt><trkpt lat="39.48132981" lon="-0.38444982"><ele>24.2</ele><time>2022-11-01T16:14:43.0000000+00:00</time></trkpt><trkpt lat="39.4813402" lon="-0.3843924"><ele>24.2</ele><time>2022-11-01T16:14:44.0000000+00:00</time></trkpt><trkpt lat="39.48135478" lon="-0.38433298"><ele>24.2</ele><time>2022-11-01T16:14:45.0000000+00:00</time></trkpt><trkpt lat="39.48138219" lon="-0.38427682"><ele>24.2</ele><time>2022-11-01T16:14:46.0000000+00:00</time></trkpt><trkpt lat="39.48143676" lon="-0.38421932"><ele>24.2</ele><time>2022-11-01T16:14:47.0000000+00:00</time></trkpt><trkpt lat="39.48147582" lon="-0.38416014"><ele>24.2</ele><time>2022-11-01T16:14:48.0000000+00:00</time></trkpt><trkpt lat="39.48150968" lon="-0.38409786"><ele>24.2</ele><time>2022-11-01T16:14:49.0000000+00:00</time></trkpt><trkpt lat="39.48153826" lon="-0.38403802"><ele>24.2</ele><time>2022-11-01T16:14:50.0000000+00:00</time></trkpt><trkpt lat="39.48157079" lon="-0.38396719"><ele>24.2</ele><time>2022-11-01T16:14:51.0000000+00:00</time></trkpt><trkpt lat="39.48159266" lon="-0.38391983"><ele>24.2</ele><time>2022-11-01T16:14:52.0000000+00:00</time></trkpt><trkpt lat="39.48162192" lon="-0.38386107"><ele>24.2</ele><time>2022-11-01T16:14:53.0000000+00:00</time></trkpt><trkpt lat="39.4816883" lon="-0.3837843"><ele>24.2</ele><time>2022-11-01T16:14:54.0000000+00:00</time></trkpt><trkpt lat="39.48172082" lon="-0.383719"><ele>24.2</ele><time>2022-11-01T16:14:55.0000000+00:00</time></trkpt><trkpt lat="39.48174404" lon="-0.38365287"><ele>24.0</ele><time>2022-11-01T16:14:56.0000000+00:00</time></trkpt><trkpt lat="39.48187362" lon="-0.38330485"><ele>24.0</ele><time>2022-11-01T16:15:01.0000000+00:00</time></trkpt><trkpt lat="39.48190196" lon="-0.38323931"><ele>24.0</ele><time>2022-11-01T16:15:02.0000000+00:00</time></trkpt><trkpt lat="39.48193154" lon="-0.38318734"><ele>24.0</ele><time>2022-11-01T16:15:03.0000000+00:00</time></trkpt><trkpt lat="39.48195937" lon="-0.38314375"><ele>24.2</ele><time>2022-11-01T16:15:04.0000000+00:00</time></trkpt><trkpt lat="39.48198225" lon="-0.38309329"><ele>24.2</ele><time>2022-11-01T16:15:05.0000000+00:00</time></trkpt><trkpt lat="39.48200581" lon="-0.38303931"><ele>24.2</ele><time>2022-11-01T16:15:06.0000000+00:00</time></trkpt><trkpt lat="39.48203489" lon="-0.38299623"><ele>24.2</ele><time>2022-11-01T16:15:07.0000000+00:00</time></trkpt><trkpt lat="39.4820644" lon="-0.38294711"><ele>24.2</ele><time>2022-11-01T16:15:08.0000000+00:00</time></trkpt><trkpt lat="39.48208879" lon="-0.38290411"><ele>24.2</ele><time>2022-11-01T16:15:09.0000000+00:00</time></trkpt><trkpt lat="39.48211226" lon="-0.38286421"><ele>24.0</ele><time>2022-11-01T16:15:10.0000000+00:00</time></trkpt><trkpt lat="39.48213288" lon="-0.38282365"><ele>24.0</ele><time>2022-11-01T16:15:11.0000000+00:00</time></trkpt><trkpt lat="39.48214788" lon="-0.38279951"><ele>24.0</ele><time>2022-11-01T16:15:12.0000000+00:00</time></trkpt><trkpt lat="39.48216389" lon="-0.38277646"><ele>24.0</ele><time>2022-11-01T16:15:13.0000000+00:00</time></trkpt><trkpt lat="39.48217244" lon="-0.38275575"><ele>24.0</ele><time>2022-11-01T16:15:14.0000000+00:00</time></trkpt><trkpt lat="39.48217613" lon="-0.38273916"><ele>24.0</ele><time>2022-11-01T16:15:15.0000000+00:00</time></trkpt><trkpt lat="39.48218007" lon="-0.38272499"><ele>24.0</ele><time>2022-11-01T16:15:16.0000000+00:00</time></trkpt><trkpt lat="39.48218325" lon="-0.38271418"><ele>24.0</ele><time>2022-11-01T16:15:17.0000000+00:00</time></trkpt><trkpt lat="39.48217923" lon="-0.382697"><ele>24.0</ele><time>2022-11-01T16:15:18.0000000+00:00</time></trkpt><trkpt lat="39.4821649" lon="-0.38268233"><ele>24.0</ele><time>2022-11-01T16:15:19.0000000+00:00</time></trkpt><trkpt lat="39.48215031" lon="-0.38267755"><ele>24.0</ele><time>2022-11-01T16:15:20.0000000+00:00</time></trkpt><trkpt lat="39.48213346" lon="-0.38268643"><ele>23.8</ele><time>2022-11-01T16:15:21.0000000+00:00</time></trkpt><trkpt lat="39.48212592" lon="-0.38270177"><ele>23.8</ele><time>2022-11-01T16:15:22.0000000+00:00</time></trkpt><trkpt lat="39.48212508" lon="-0.38272424"><ele>23.6</ele><time>2022-11-01T16:15:23.0000000+00:00</time></trkpt><trkpt lat="39.48212391" lon="-0.38275014"><ele>23.6</ele><time>2022-11-01T16:15:24.0000000+00:00</time></trkpt><trkpt lat="39.48212131" lon="-0.38277579"><ele>23.6</ele><time>2022-11-01T16:15:25.0000000+00:00</time></trkpt><trkpt lat="39.48212089" lon="-0.38279448"><ele>23.6</ele><time>2022-11-01T16:15:26.0000000+00:00</time></trkpt><trkpt lat="39.48211729" lon="-0.38281786"><ele>23.6</ele><time>2022-11-01T16:15:27.0000000+00:00</time></trkpt><trkpt lat="39.48211075" lon="-0.38284502"><ele>23.6</ele><time>2022-11-01T16:15:28.0000000+00:00</time></trkpt><trkpt lat="39.48210128" lon="-0.38287461"><ele>23.6</ele><time>2022-11-01T16:15:29.0000000+00:00</time></trkpt><trkpt lat="39.48209189" lon="-0.38290738"><ele>23.6</ele><time>2022-11-01T16:15:30.0000000+00:00</time></trkpt><trkpt lat="39.48208066" lon="-0.38294074"><ele>23.6</ele><time>2022-11-01T16:15:31.0000000+00:00</time></trkpt><trkpt lat="39.48206255" lon="-0.38297997"><ele>23.6</ele><time>2022-11-01T16:15:32.0000000+00:00</time></trkpt><trkpt lat="39.4820504" lon="-0.38300478"><ele>23.6</ele><time>2022-11-01T16:15:33.0000000+00:00</time></trkpt><trkpt lat="39.48204059" lon="-0.38303814"><ele>23.6</ele><time>2022-11-01T16:15:34.0000000+00:00</time></trkpt><trkpt lat="39.48203657" lon="-0.38306957"><ele>23.6</ele><time>2022-11-01T16:15:35.0000000+00:00</time></trkpt><trkpt lat="39.48203087" lon="-0.38310771"><ele>23.6</ele><time>2022-11-01T16:15:36.0000000+00:00</time></trkpt><trkpt lat="39.4820162" lon="-0.38315272"><ele>23.6</ele><time>2022-11-01T16:15:37.0000000+00:00</time></trkpt><trkpt lat="39.48196499" lon="-0.38320955"><ele>23.8</ele><time>2022-11-01T16:15:38.0000000+00:00</time></trkpt><trkpt lat="39.48192048" lon="-0.38325381"><ele>23.8</ele><time>2022-11-01T16:15:39.0000000+00:00</time></trkpt><trkpt lat="39.48188678" lon="-0.38331047"><ele>23.8</ele><time>2022-11-01T16:15:40.0000000+00:00</time></trkpt><trkpt lat="39.48184881" lon="-0.38337752"><ele>23.8</ele><time>2022-11-01T16:15:41.0000000+00:00</time></trkpt><trkpt lat="39.48182803" lon="-0.38341709"><ele>23.8</ele><time>2022-11-01T16:15:42.0000000+00:00</time></trkpt><trkpt lat="39.48180531" lon="-0.38347132"><ele>23.8</ele><time>2022-11-01T16:15:43.0000000+00:00</time></trkpt><trkpt lat="39.48177732" lon="-0.38353485"><ele>23.8</ele><time>2022-11-01T16:15:44.0000000+00:00</time></trkpt><trkpt lat="39.48176206" lon="-0.38357869"><ele>23.8</ele><time>2022-11-01T16:15:45.0000000+00:00</time></trkpt><trkpt lat="39.48174345" lon="-0.38363325"><ele>23.8</ele><time>2022-11-01T16:15:46.0000000+00:00</time></trkpt><trkpt lat="39.48172468" lon="-0.38368757"><ele>23.8</ele><time>2022-11-01T16:15:47.0000000+00:00</time></trkpt><trkpt lat="39.48165854" lon="-0.38380408"><ele>23.8</ele><time>2022-11-01T16:15:49.0000000+00:00</time></trkpt><trkpt lat="39.48161379" lon="-0.38385177"><ele>23.8</ele><time>2022-11-01T16:15:50.0000000+00:00</time></trkpt><trkpt lat="39.48157489" lon="-0.38389217"><ele>23.6</ele><time>2022-11-01T16:15:51.0000000+00:00</time></trkpt><trkpt lat="39.48155101" lon="-0.38392168"><ele>23.6</ele><time>2022-11-01T16:15:52.0000000+00:00</time></trkpt><trkpt lat="39.48144154" lon="-0.38436525"><ele>23.6</ele><time>2022-11-01T16:16:00.0000000+00:00</time></trkpt><trkpt lat="39.48138387" lon="-0.38437313"><ele>23.6</ele><time>2022-11-01T16:16:01.0000000+00:00</time></trkpt><trkpt lat="39.48134422" lon="-0.38440271"><ele>23.6</ele><time>2022-11-01T16:16:02.0000000+00:00</time></trkpt><trkpt lat="39.4813122" lon="-0.3844318"><ele>23.8</ele><time>2022-11-01T16:16:03.0000000+00:00</time></trkpt><trkpt lat="39.48132721" lon="-0.38447279"><ele>23.8</ele><time>2022-11-01T16:16:04.0000000+00:00</time></trkpt><trkpt lat="39.4813205" lon="-0.3844955"><ele>23.8</ele><time>2022-11-01T16:16:05.0000000+00:00</time></trkpt><trkpt lat="39.48130441" lon="-0.38452517"><ele>23.8</ele><time>2022-11-01T16:16:06.0000000+00:00</time></trkpt><trkpt lat="39.48127599" lon="-0.38458259"><ele>23.8</ele><time>2022-11-01T16:16:07.0000000+00:00</time></trkpt><trkpt lat="39.48124222" lon="-0.38463271"><ele>23.8</ele><time>2022-11-01T16:16:08.0000000+00:00</time></trkpt><trkpt lat="39.48120316" lon="-0.38467856"><ele>23.8</ele><time>2022-11-01T16:16:09.0000000+00:00</time></trkpt><trkpt lat="39.48116695" lon="-0.38472701"><ele>24.0</ele><time>2022-11-01T16:16:10.0000000+00:00</time></trkpt><trkpt lat="39.48114406" lon="-0.38477227"><ele>24.0</ele><time>2022-11-01T16:16:11.0000000+00:00</time></trkpt><trkpt lat="39.48112831" lon="-0.38480932"><ele>24.0</ele><time>2022-11-01T16:16:12.0000000+00:00</time></trkpt><trkpt lat="39.4811014" lon="-0.38485643"><ele>24.0</ele><time>2022-11-01T16:16:13.0000000+00:00</time></trkpt><trkpt lat="39.48108556" lon="-0.38489917"><ele>24.0</ele><time>2022-11-01T16:16:14.0000000+00:00</time></trkpt><trkpt lat="39.48107257" lon="-0.38493228"><ele>24.0</ele><time>2022-11-01T16:16:15.0000000+00:00</time></trkpt><trkpt lat="39.48107684" lon="-0.38495307"><ele>24.0</ele><time>2022-11-01T16:16:16.0000000+00:00</time></trkpt><trkpt lat="39.48108715" lon="-0.38494536"><ele>24.0</ele><time>2022-11-01T16:16:17.0000000+00:00</time></trkpt><trkpt lat="39.48109872" lon="-0.38491141"><ele>24.0</ele><time>2022-11-01T16:16:18.0000000+00:00</time></trkpt><trkpt lat="39.48112269" lon="-0.38487797"><ele>24.0</ele><time>2022-11-01T16:16:19.0000000+00:00</time></trkpt><trkpt lat="39.48114398" lon="-0.38485877"><ele>24.2</ele><time>2022-11-01T16:16:20.0000000+00:00</time></trkpt><trkpt lat="39.48115915" lon="-0.38483203"><ele>24.2</ele><time>2022-11-01T16:16:21.0000000+00:00</time></trkpt><trkpt lat="39.48117399" lon="-0.38480496"><ele>24.2</ele><time>2022-11-01T16:16:22.0000000+00:00</time></trkpt><trkpt lat="39.48118882" lon="-0.38478979"><ele>24.4</ele><time>2022-11-01T16:16:23.0000000+00:00</time></trkpt><trkpt lat="39.48120022" lon="-0.38476867"><ele>24.6</ele><time>2022-11-01T16:16:24.0000000+00:00</time></trkpt><trkpt lat="39.48121447" lon="-0.38475324"><ele>24.8</ele><time>2022-11-01T16:16:25.0000000+00:00</time></trkpt><trkpt lat="39.4812278" lon="-0.38473397"><ele>25.0</ele><time>2022-11-01T16:16:26.0000000+00:00</time></trkpt><trkpt lat="39.48123911" lon="-0.38471653"><ele>25.2</ele><time>2022-11-01T16:16:27.0000000+00:00</time></trkpt><trkpt lat="39.48125336" lon="-0.3847032"><ele>25.4</ele><time>2022-11-01T16:16:28.0000000+00:00</time></trkpt><trkpt lat="39.4812656" lon="-0.38468795"><ele>25.4</ele><time>2022-11-01T16:16:29.0000000+00:00</time></trkpt><trkpt lat="39.48127507" lon="-0.38467202"><ele>25.6</ele><time>2022-11-01T16:16:30.0000000+00:00</time></trkpt><trkpt lat="39.48128396" lon="-0.38465392"><ele>25.8</ele><time>2022-11-01T16:16:31.0000000+00:00</time></trkpt><trkpt lat="39.48129024" lon="-0.38462852"><ele>25.8</ele><time>2022-11-01T16:16:32.0000000+00:00</time></trkpt><trkpt lat="39.48129603" lon="-0.38460765"><ele>26.0</ele><time>2022-11-01T16:16:33.0000000+00:00</time></trkpt><trkpt lat="39.48130818" lon="-0.38458988"><ele>26.2</ele><time>2022-11-01T16:16:34.0000000+00:00</time></trkpt><trkpt lat="39.48132243" lon="-0.38456851"><ele>26.4</ele><time>2022-11-01T16:16:35.0000000+00:00</time></trkpt><trkpt lat="39.48133576" lon="-0.38454236"><ele>26.6</ele><time>2022-11-01T16:16:36.0000000+00:00</time></trkpt><trkpt lat="39.48134741" lon="-0.38451687"><ele>26.8</ele><time>2022-11-01T16:16:37.0000000+00:00</time></trkpt><trkpt lat="39.48136007" lon="-0.38448938"><ele>26.8</ele><time>2022-11-01T16:16:38.0000000+00:00</time></trkpt><trkpt lat="39.48137331" lon="-0.38446432"><ele>27.0</ele><time>2022-11-01T16:16:39.0000000+00:00</time></trkpt><trkpt lat="39.48138747" lon="-0.38444001"><ele>27.2</ele><time>2022-11-01T16:16:40.0000000+00:00</time></trkpt><trkpt lat="39.48140097" lon="-0.38441839"><ele>27.2</ele><time>2022-11-01T16:16:41.0000000+00:00</time></trkpt><trkpt lat="39.48141195" lon="-0.3843997"><ele>27.4</ele><time>2022-11-01T16:16:42.0000000+00:00</time></trkpt><trkpt lat="39.48142176" lon="-0.38438754"><ele>27.6</ele><time>2022-11-01T16:16:43.0000000+00:00</time></trkpt><trkpt lat="39.48142368" lon="-0.38438276"><ele>27.6</ele><time>2022-11-01T16:16:44.0000000+00:00</time></trkpt><trkpt lat="39.48142695" lon="-0.38437841"><ele>27.8</ele><time>2022-11-01T16:16:45.0000000+00:00</time></trkpt><trkpt lat="39.48143718" lon="-0.38437128"><ele>27.8</ele><time>2022-11-01T16:16:46.0000000+00:00</time></trkpt><trkpt lat="39.48145654" lon="-0.3843546"><ele>28.0</ele><time>2022-11-01T16:16:47.0000000+00:00</time></trkpt><trkpt lat="39.48147448" lon="-0.38433465"><ele>28.0</ele><time>2022-11-01T16:16:48.0000000+00:00</time></trkpt><trkpt lat="39.48150901" lon="-0.38430875"><ele>28.0</ele><time>2022-11-01T16:16:49.0000000+00:00</time></trkpt><trkpt lat="39.48154036" lon="-0.3842759"><ele>27.8</ele><time>2022-11-01T16:16:50.0000000+00:00</time></trkpt><trkpt lat="39.48155545" lon="-0.38424379"><ele>27.8</ele><time>2022-11-01T16:16:51.0000000+00:00</time></trkpt><trkpt lat="39.48156886" lon="-0.38421186"><ele>27.8</ele><time>2022-11-01T16:16:52.0000000+00:00</time></trkpt><trkpt lat="39.48158193" lon="-0.38418319"><ele>27.8</ele><time>2022-11-01T16:16:53.0000000+00:00</time></trkpt><trkpt lat="39.48159141" lon="-0.38416199"><ele>27.8</ele><time>2022-11-01T16:16:54.0000000+00:00</time></trkpt><trkpt lat="39.48160272" lon="-0.38413541"><ele>27.8</ele><time>2022-11-01T16:16:55.0000000+00:00</time></trkpt><trkpt lat="39.48160633" lon="-0.38412921"><ele>27.6</ele><time>2022-11-01T16:16:56.0000000+00:00</time></trkpt><trkpt lat="39.48161387" lon="-0.38412829"><ele>27.6</ele><time>2022-11-01T16:16:57.0000000+00:00</time></trkpt><trkpt lat="39.48163281" lon="-0.38413047"><ele>27.6</ele><time>2022-11-01T16:16:58.0000000+00:00</time></trkpt><trkpt lat="39.48165871" lon="-0.38413793"><ele>27.6</ele><time>2022-11-01T16:16:59.0000000+00:00</time></trkpt><trkpt lat="39.48168688" lon="-0.38414857"><ele>27.6</ele><time>2022-11-01T16:17:00.0000000+00:00</time></trkpt><trkpt lat="39.48171387" lon="-0.38415813"><ele>27.8</ele><time>2022-11-01T16:17:01.0000000+00:00</time></trkpt><trkpt lat="39.48174974" lon="-0.38416852"><ele>27.8</ele><time>2022-11-01T16:17:02.0000000+00:00</time></trkpt><trkpt lat="39.4817914" lon="-0.38417364"><ele>27.8</ele><time>2022-11-01T16:17:03.0000000+00:00</time></trkpt><trkpt lat="39.48183348" lon="-0.38416995"><ele>27.8</ele><time>2022-11-01T16:17:04.0000000+00:00</time></trkpt><trkpt lat="39.48187589" lon="-0.38416257"><ele>27.8</ele><time>2022-11-01T16:17:05.0000000+00:00</time></trkpt><trkpt lat="39.48191679" lon="-0.38415947"><ele>27.8</ele><time>2022-11-01T16:17:06.0000000+00:00</time></trkpt><trkpt lat="39.48195049" lon="-0.3841614"><ele>27.6</ele><time>2022-11-01T16:17:07.0000000+00:00</time></trkpt><trkpt lat="39.48197588" lon="-0.38417037"><ele>27.6</ele><time>2022-11-01T16:17:08.0000000+00:00</time></trkpt><trkpt lat="39.48201142" lon="-0.38418378"><ele>27.4</ele><time>2022-11-01T16:17:09.0000000+00:00</time></trkpt><trkpt lat="39.48206146" lon="-0.38420775"><ele>27.4</ele><time>2022-11-01T16:17:10.0000000+00:00</time></trkpt><trkpt lat="39.48209189" lon="-0.38423047"><ele>27.4</ele><time>2022-11-01T16:17:11.0000000+00:00</time></trkpt><trkpt lat="39.4821281" lon="-0.38426299"><ele>27.4</ele><time>2022-11-01T16:17:12.0000000+00:00</time></trkpt><trkpt lat="39.48216741" lon="-0.38429584"><ele>27.6</ele><time>2022-11-01T16:17:13.0000000+00:00</time></trkpt><trkpt lat="39.48221007" lon="-0.38432962"><ele>27.6</ele><time>2022-11-01T16:17:14.0000000+00:00</time></trkpt><trkpt lat="39.48225492" lon="-0.38435846"><ele>27.6</ele><time>2022-11-01T16:17:15.0000000+00:00</time></trkpt><trkpt lat="39.4823032" lon="-0.38438888"><ele>27.6</ele><time>2022-11-01T16:17:16.0000000+00:00</time></trkpt><trkpt lat="39.48236665" lon="-0.38442803"><ele>27.8</ele><time>2022-11-01T16:17:17.0000000+00:00</time></trkpt><trkpt lat="39.48239867" lon="-0.38444462"><ele>27.8</ele><time>2022-11-01T16:17:18.0000000+00:00</time></trkpt><trkpt lat="39.48242499" lon="-0.38446491"><ele>27.8</ele><time>2022-11-01T16:17:19.0000000+00:00</time></trkpt><trkpt lat="39.48244334" lon="-0.38449642"><ele>27.8</ele><time>2022-11-01T16:17:20.0000000+00:00</time></trkpt><trkpt lat="39.48245659" lon="-0.38452601"><ele>27.8</ele><time>2022-11-01T16:17:21.0000000+00:00</time></trkpt><trkpt lat="39.48246606" lon="-0.38455132"><ele>27.8</ele><time>2022-11-01T16:17:22.0000000+00:00</time></trkpt><trkpt lat="39.48248492" lon="-0.38457069"><ele>27.8</ele><time>2022-11-01T16:17:23.0000000+00:00</time></trkpt><trkpt lat="39.4825083" lon="-0.38458837"><ele>27.6</ele><time>2022-11-01T16:17:24.0000000+00:00</time></trkpt><trkpt lat="39.48252766" lon="-0.38460136"><ele>27.6</ele><time>2022-11-01T16:17:25.0000000+00:00</time></trkpt><trkpt lat="39.48255231" lon="-0.38462458"><ele>27.6</ele><time>2022-11-01T16:17:26.0000000+00:00</time></trkpt><trkpt lat="39.48259983" lon="-0.38466808"><ele>27.8</ele><time>2022-11-01T16:17:27.0000000+00:00</time></trkpt><trkpt lat="39.48263831" lon="-0.38469927"><ele>28.0</ele><time>2022-11-01T16:17:28.0000000+00:00</time></trkpt><trkpt lat="39.48265683" lon="-0.38471687"><ele>28.0</ele><time>2022-11-01T16:17:29.0000000+00:00</time></trkpt><trkpt lat="39.48270327" lon="-0.38475199"><ele>28.0</ele><time>2022-11-01T16:17:30.0000000+00:00</time></trkpt><trkpt lat="39.48275381" lon="-0.3847882"><ele>28.2</ele><time>2022-11-01T16:17:31.0000000+00:00</time></trkpt><trkpt lat="39.48281902" lon="-0.38483555"><ele>28.2</ele><time>2022-11-01T16:17:32.0000000+00:00</time></trkpt><trkpt lat="39.48288649" lon="-0.3848778"><ele>28.4</ele><time>2022-11-01T16:17:33.0000000+00:00</time></trkpt><trkpt lat="39.4829341" lon="-0.38491527"><ele>28.4</ele><time>2022-11-01T16:17:34.0000000+00:00</time></trkpt><trkpt lat="39.48298121" lon="-0.38494846"><ele>28.4</ele><time>2022-11-01T16:17:35.0000000+00:00</time></trkpt><trkpt lat="39.48302538" lon="-0.38498199"><ele>28.4</ele><time>2022-11-01T16:17:36.0000000+00:00</time></trkpt><trkpt lat="39.48306738" lon="-0.38501057"><ele>28.4</ele><time>2022-11-01T16:17:37.0000000+00:00</time></trkpt><trkpt lat="39.48314541" lon="-0.38504477"><ele>28.4</ele><time>2022-11-01T16:17:38.0000000+00:00</time></trkpt><trkpt lat="39.48319646" lon="-0.38506882"><ele>28.4</ele><time>2022-11-01T16:17:39.0000000+00:00</time></trkpt><trkpt lat="39.48322378" lon="-0.38508693"><ele>28.4</ele><time>2022-11-01T16:17:40.0000000+00:00</time></trkpt><trkpt lat="39.48325697" lon="-0.38511652"><ele>28.4</ele><time>2022-11-01T16:17:41.0000000+00:00</time></trkpt><trkpt lat="39.48327365" lon="-0.38514636"><ele>28.4</ele><time>2022-11-01T16:17:42.0000000+00:00</time></trkpt><trkpt lat="39.48327349" lon="-0.38516563"><ele>28.4</ele><time>2022-11-01T16:17:43.0000000+00:00</time></trkpt><trkpt lat="39.48325404" lon="-0.38518265"><ele>28.4</ele><time>2022-11-01T16:17:44.0000000+00:00</time></trkpt><trkpt lat="39.48323367" lon="-0.38520285"><ele>28.6</ele><time>2022-11-01T16:17:45.0000000+00:00</time></trkpt><trkpt lat="39.48321615" lon="-0.38523386"><ele>28.6</ele><time>2022-11-01T16:17:46.0000000+00:00</time></trkpt><trkpt lat="39.48319235" lon="-0.38528306"><ele>28.6</ele><time>2022-11-01T16:17:47.0000000+00:00</time></trkpt><trkpt lat="39.48317533" lon="-0.38532523"><ele>28.6</ele><time>2022-11-01T16:17:48.0000000+00:00</time></trkpt><trkpt lat="39.48315522" lon="-0.38537443"><ele>28.6</ele><time>2022-11-01T16:17:49.0000000+00:00</time></trkpt><trkpt lat="39.48314432" lon="-0.38543788"><ele>28.6</ele><time>2022-11-01T16:17:50.0000000+00:00</time></trkpt><trkpt lat="39.48312278" lon="-0.38547308"><ele>28.6</ele><time>2022-11-01T16:17:51.0000000+00:00</time></trkpt><trkpt lat="39.48310283" lon="-0.38552069"><ele>28.6</ele><time>2022-11-01T16:17:52.0000000+00:00</time></trkpt><trkpt lat="39.48308632" lon="-0.38558339"><ele>28.6</ele><time>2022-11-01T16:17:53.0000000+00:00</time></trkpt><trkpt lat="39.48307986" lon="-0.38562069"><ele>28.8</ele><time>2022-11-01T16:17:54.0000000+00:00</time></trkpt><trkpt lat="39.48307157" lon="-0.38566922"><ele>28.8</ele><time>2022-11-01T16:17:55.0000000+00:00</time></trkpt><trkpt lat="39.48306453" lon="-0.38571431"><ele>28.8</ele><time>2022-11-01T16:17:56.0000000+00:00</time></trkpt><trkpt lat="39.48303393" lon="-0.38577039"><ele>28.8</ele><time>2022-11-01T16:17:57.0000000+00:00</time></trkpt><trkpt lat="39.48301516" lon="-0.3858092"><ele>28.6</ele><time>2022-11-01T16:17:58.0000000+00:00</time></trkpt><trkpt lat="39.48298716" lon="-0.3858672"><ele>28.6</ele><time>2022-11-01T16:17:59.0000000+00:00</time></trkpt><trkpt lat="39.48295791" lon="-0.38591883"><ele>28.6</ele><time>2022-11-01T16:18:00.0000000+00:00</time></trkpt><trkpt lat="39.48293075" lon="-0.38595471"><ele>28.6</ele><time>2022-11-01T16:18:01.0000000+00:00</time></trkpt><trkpt lat="39.48292044" lon="-0.38600517"><ele>28.6</ele><time>2022-11-01T16:18:02.0000000+00:00</time></trkpt><trkpt lat="39.48292648" lon="-0.38606359"><ele>28.6</ele><time>2022-11-01T16:18:03.0000000+00:00</time></trkpt><trkpt lat="39.48292539" lon="-0.38611849"><ele>28.6</ele><time>2022-11-01T16:18:04.0000000+00:00</time></trkpt><trkpt lat="39.48292212" lon="-0.38617414"><ele>28.6</ele><time>2022-11-01T16:18:05.0000000+00:00</time></trkpt><trkpt lat="39.48290946" lon="-0.38622008"><ele>28.6</ele><time>2022-11-01T16:18:06.0000000+00:00</time></trkpt><trkpt lat="39.48288515" lon="-0.38626953"><ele>28.6</ele><time>2022-11-01T16:18:07.0000000+00:00</time></trkpt><trkpt lat="39.48285632" lon="-0.38631731"><ele>28.6</ele><time>2022-11-01T16:18:08.0000000+00:00</time></trkpt><trkpt lat="39.48283344" lon="-0.38637481"><ele>28.6</ele><time>2022-11-01T16:18:09.0000000+00:00</time></trkpt><trkpt lat="39.482816" lon="-0.38643499"><ele>28.6</ele><time>2022-11-01T16:18:10.0000000+00:00</time></trkpt><trkpt lat="39.48280033" lon="-0.38648352"><ele>28.6</ele><time>2022-11-01T16:18:11.0000000+00:00</time></trkpt><trkpt lat="39.48279111" lon="-0.38651965"><ele>28.6</ele><time>2022-11-01T16:18:12.0000000+00:00</time></trkpt><trkpt lat="39.48277082" lon="-0.38657463"><ele>28.6</ele><time>2022-11-01T16:18:13.0000000+00:00</time></trkpt><trkpt lat="39.48274601" lon="-0.38662409"><ele>28.6</ele><time>2022-11-01T16:18:14.0000000+00:00</time></trkpt><trkpt lat="39.48272858" lon="-0.38666382"><ele>28.6</ele><time>2022-11-01T16:18:15.0000000+00:00</time></trkpt><trkpt lat="39.48270469" lon="-0.38671989"><ele>28.4</ele><time>2022-11-01T16:18:16.0000000+00:00</time></trkpt><trkpt lat="39.48267326" lon="-0.38679139"><ele>28.4</ele><time>2022-11-01T16:18:17.0000000+00:00</time></trkpt><trkpt lat="39.48264996" lon="-0.38682508"><ele>28.4</ele><time>2022-11-01T16:18:18.0000000+00:00</time></trkpt><trkpt lat="39.48262456" lon="-0.38687185"><ele>28.4</ele><time>2022-11-01T16:18:19.0000000+00:00</time></trkpt><trkpt lat="39.48262045" lon="-0.38690605"><ele>28.4</ele><time>2022-11-01T16:18:20.0000000+00:00</time></trkpt><trkpt lat="39.48264442" lon="-0.38696649"><ele>28.4</ele><time>2022-11-01T16:18:21.0000000+00:00</time></trkpt><trkpt lat="39.48265918" lon="-0.38700764"><ele>28.2</ele><time>2022-11-01T16:18:22.0000000+00:00</time></trkpt><trkpt lat="39.48270151" lon="-0.38705634"><ele>28.2</ele><time>2022-11-01T16:18:23.0000000+00:00</time></trkpt><trkpt lat="39.48274341" lon="-0.38710236"><ele>28.2</ele><time>2022-11-01T16:18:24.0000000+00:00</time></trkpt><trkpt lat="39.4827606" lon="-0.38711669"><ele>28.2</ele><time>2022-11-01T16:18:25.0000000+00:00</time></trkpt><trkpt lat="39.48277594" lon="-0.38714418"><ele>28.2</ele><time>2022-11-01T16:18:26.0000000+00:00</time></trkpt><trkpt lat="39.4827891" lon="-0.38717394"><ele>28.4</ele><time>2022-11-01T16:18:27.0000000+00:00</time></trkpt><trkpt lat="39.48281282" lon="-0.38720026"><ele>28.4</ele><time>2022-11-01T16:18:28.0000000+00:00</time></trkpt><trkpt lat="39.48283562" lon="-0.38721568"><ele>28.4</ele><time>2022-11-01T16:18:29.0000000+00:00</time></trkpt><trkpt lat="39.48285431" lon="-0.38722381"><ele>28.4</ele><time>2022-11-01T16:18:30.0000000+00:00</time></trkpt><trkpt lat="39.4828704" lon="-0.38723856"><ele>28.4</ele><time>2022-11-01T16:18:31.0000000+00:00</time></trkpt><trkpt lat="39.48288138" lon="-0.38725298"><ele>28.4</ele><time>2022-11-01T16:18:32.0000000+00:00</time></trkpt><trkpt lat="39.48289085" lon="-0.38726673"><ele>28.4</ele><time>2022-11-01T16:18:33.0000000+00:00</time></trkpt><trkpt lat="39.48289362" lon="-0.38728533"><ele>28.4</ele><time>2022-11-01T16:18:34.0000000+00:00</time></trkpt><trkpt lat="39.48289379" lon="-0.38730252"><ele>28.4</ele><time>2022-11-01T16:18:35.0000000+00:00</time></trkpt><trkpt lat="39.48289563" lon="-0.38731702"><ele>28.2</ele><time>2022-11-01T16:18:36.0000000+00:00</time></trkpt><trkpt lat="39.48289161" lon="-0.38733428"><ele>28.2</ele><time>2022-11-01T16:18:37.0000000+00:00</time></trkpt><trkpt lat="39.48288599" lon="-0.38734987"><ele>28.2</ele><time>2022-11-01T16:18:38.0000000+00:00</time></trkpt><trkpt lat="39.48287878" lon="-0.38736287"><ele>28.2</ele><time>2022-11-01T16:18:39.0000000+00:00</time></trkpt><trkpt lat="39.48288004" lon="-0.3873637"><ele>28.2</ele><time>2022-11-01T16:18:40.0000000+00:00</time></trkpt><trkpt lat="39.48287518" lon="-0.3873679"><ele>28.2</ele><time>2022-11-01T16:18:41.0000000+00:00</time></trkpt><trkpt lat="39.48287518" lon="-0.3873679"><ele>28.2</ele><time>2022-11-01T16:18:42.0000000+00:00</time></trkpt><trkpt lat="39.48287585" lon="-0.38736647"><ele>28.2</ele><time>2022-11-01T16:18:43.0000000+00:00</time></trkpt><trkpt lat="39.48287476" lon="-0.3873653"><ele>28.0</ele><time>2022-11-01T16:18:44.0000000+00:00</time></trkpt><trkpt lat="39.48287476" lon="-0.3873653"><ele>28.0</ele><time>2022-11-01T16:18:45.0000000+00:00</time></trkpt><trkpt lat="39.48287476" lon="-0.3873653"><ele>27.8</ele><time>2022-11-01T16:18:46.0000000+00:00</time></trkpt><trkpt lat="39.48288197" lon="-0.3873399"><ele>27.8</ele><time>2022-11-01T16:18:47.0000000+00:00</time></trkpt><trkpt lat="39.48287979" lon="-0.38733864"><ele>27.8</ele><time>2022-11-01T16:18:48.0000000+00:00</time></trkpt><trkpt lat="39.48288532" lon="-0.38733504"><ele>27.8</ele><time>2022-11-01T16:18:49.0000000+00:00</time></trkpt><trkpt lat="39.48288172" lon="-0.38733604"><ele>27.8</ele><time>2022-11-01T16:18:50.0000000+00:00</time></trkpt></trkseg><trkseg><trkpt lat="39.48285062" lon="-0.38652166"><ele>13.2</ele><time>2022-11-02T13:41:55.0000000+00:00</time></trkpt><trkpt lat="39.48280737" lon="-0.38671671"><ele>13.2</ele><time>2022-11-02T13:41:57.0000000+00:00</time></trkpt><trkpt lat="39.48274668" lon="-0.38677781"><ele>13.2</ele><time>2022-11-02T13:41:58.0000000+00:00</time></trkpt><trkpt lat="39.4826482" lon="-0.38680245"><ele>13.0</ele><time>2022-11-02T13:41:59.0000000+00:00</time></trkpt><trkpt lat="39.48261425" lon="-0.38681787"><ele>13.0</ele><time>2022-11-02T13:42:00.0000000+00:00</time></trkpt><trkpt lat="39.48257938" lon="-0.38684947"><ele>13.0</ele><time>2022-11-02T13:42:01.0000000+00:00</time></trkpt><trkpt lat="39.48253077" lon="-0.38688954"><ele>12.8</ele><time>2022-11-02T13:42:02.0000000+00:00</time></trkpt><trkpt lat="39.48252498" lon="-0.38689432"><ele>12.8</ele><time>2022-11-02T13:42:03.0000000+00:00</time></trkpt><trkpt lat="39.48252037" lon="-0.3869058"><ele>12.8</ele><time>2022-11-02T13:42:04.0000000+00:00</time></trkpt><trkpt lat="39.48249422" lon="-0.38690622"><ele>12.8</ele><time>2022-11-02T13:42:05.0000000+00:00</time></trkpt><trkpt lat="39.48246782" lon="-0.38692726"><ele>12.8</ele><time>2022-11-02T13:42:06.0000000+00:00</time></trkpt><trkpt lat="39.48244879" lon="-0.38694109"><ele>12.8</ele><time>2022-11-02T13:42:07.0000000+00:00</time></trkpt><trkpt lat="39.48243882" lon="-0.3869462"><ele>12.8</ele><time>2022-11-02T13:42:08.0000000+00:00</time></trkpt><trkpt lat="39.4824332" lon="-0.38695383"><ele>12.8</ele><time>2022-11-02T13:42:09.0000000+00:00</time></trkpt><trkpt lat="39.48242976" lon="-0.38696297"><ele>12.8</ele><time>2022-11-02T13:42:10.0000000+00:00</time></trkpt><trkpt lat="39.48241233" lon="-0.38698241"><ele>12.8</ele><time>2022-11-02T13:42:11.0000000+00:00</time></trkpt><trkpt lat="39.48244938" lon="-0.38697822"><ele>12.8</ele><time>2022-11-02T13:42:12.0000000+00:00</time></trkpt><trkpt lat="39.48246279" lon="-0.38697252"><ele>13.0</ele><time>2022-11-02T13:42:13.0000000+00:00</time></trkpt><trkpt lat="39.48245969" lon="-0.38698493"><ele>13.0</ele><time>2022-11-02T13:42:14.0000000+00:00</time></trkpt><trkpt lat="39.48245357" lon="-0.38699993"><ele>13.0</ele><time>2022-11-02T13:42:15.0000000+00:00</time></trkpt><trkpt lat="39.48244083" lon="-0.3870234"><ele>13.0</ele><time>2022-11-02T13:42:16.0000000+00:00</time></trkpt><trkpt lat="39.48242608" lon="-0.38704452"><ele>13.0</ele><time>2022-11-02T13:42:17.0000000+00:00</time></trkpt><trkpt lat="39.48242608" lon="-0.38704452"><ele>12.8</ele><time>2022-11-02T13:42:18.0000000+00:00</time></trkpt><trkpt lat="39.48240898" lon="-0.38708987"><ele>12.8</ele><time>2022-11-02T13:42:19.0000000+00:00</time></trkpt><trkpt lat="39.48239598" lon="-0.38709867"><ele>12.8</ele><time>2022-11-02T13:42:20.0000000+00:00</time></trkpt><trkpt lat="39.48238911" lon="-0.38711744"><ele>12.8</ele><time>2022-11-02T13:42:21.0000000+00:00</time></trkpt><trkpt lat="39.48238157" lon="-0.38713211"><ele>12.8</ele><time>2022-11-02T13:42:22.0000000+00:00</time></trkpt><trkpt lat="39.48237117" lon="-0.38714787"><ele>12.8</ele><time>2022-11-02T13:42:23.0000000+00:00</time></trkpt><trkpt lat="39.48236589" lon="-0.38716237"><ele>12.6</ele><time>2022-11-02T13:42:24.0000000+00:00</time></trkpt><trkpt lat="39.48235927" lon="-0.38717922"><ele>12.6</ele><time>2022-11-02T13:42:25.0000000+00:00</time></trkpt><trkpt lat="39.48233991" lon="-0.38718936"><ele>12.6</ele><time>2022-11-02T13:42:26.0000000+00:00</time></trkpt><trkpt lat="39.48233622" lon="-0.38720185"><ele>12.6</ele><time>2022-11-02T13:42:27.0000000+00:00</time></trkpt><trkpt lat="39.48232901" lon="-0.38722096"><ele>12.6</ele><time>2022-11-02T13:42:28.0000000+00:00</time></trkpt><trkpt lat="39.48232415" lon="-0.38724192"><ele>12.6</ele><time>2022-11-02T13:42:29.0000000+00:00</time></trkpt><trkpt lat="39.48232558" lon="-0.38726346"><ele>12.6</ele><time>2022-11-02T13:42:30.0000000+00:00</time></trkpt><trkpt lat="39.48232331" lon="-0.38728802"><ele>12.6</ele><time>2022-11-02T13:42:31.0000000+00:00</time></trkpt><trkpt lat="39.48231661" lon="-0.38730637"><ele>12.6</ele><time>2022-11-02T13:42:32.0000000+00:00</time></trkpt><trkpt lat="39.48230965" lon="-0.38732138"><ele>12.6</ele><time>2022-11-02T13:42:33.0000000+00:00</time></trkpt><trkpt lat="39.48229658" lon="-0.38732825"><ele>12.6</ele><time>2022-11-02T13:42:34.0000000+00:00</time></trkpt><trkpt lat="39.48228794" lon="-0.38734568"><ele>12.6</ele><time>2022-11-02T13:42:35.0000000+00:00</time></trkpt><trkpt lat="39.48228828" lon="-0.38736396"><ele>12.6</ele><time>2022-11-02T13:42:36.0000000+00:00</time></trkpt><trkpt lat="39.48228023" lon="-0.38738332"><ele>12.6</ele><time>2022-11-02T13:42:37.0000000+00:00</time></trkpt><trkpt lat="39.48226389" lon="-0.38740285"><ele>12.6</ele><time>2022-11-02T13:42:38.0000000+00:00</time></trkpt><trkpt lat="39.48224645" lon="-0.38742506"><ele>12.6</ele><time>2022-11-02T13:42:39.0000000+00:00</time></trkpt><trkpt lat="39.48223262" lon="-0.38743872"><ele>12.6</ele><time>2022-11-02T13:42:40.0000000+00:00</time></trkpt><trkpt lat="39.48222298" lon="-0.38745415"><ele>12.6</ele><time>2022-11-02T13:42:41.0000000+00:00</time></trkpt><trkpt lat="39.48221183" lon="-0.38747191"><ele>12.6</ele><time>2022-11-02T13:42:42.0000000+00:00</time></trkpt><trkpt lat="39.48220186" lon="-0.38748767"><ele>12.6</ele><time>2022-11-02T13:42:43.0000000+00:00</time></trkpt><trkpt lat="39.48219205" lon="-0.3874948"><ele>12.6</ele><time>2022-11-02T13:42:44.0000000+00:00</time></trkpt><trkpt lat="39.48218267" lon="-0.38750226"><ele>12.6</ele><time>2022-11-02T13:42:45.0000000+00:00</time></trkpt><trkpt lat="39.48216992" lon="-0.3875119"><ele>12.6</ele><time>2022-11-02T13:42:46.0000000+00:00</time></trkpt><trkpt lat="39.48216205" lon="-0.38751726"><ele>12.6</ele><time>2022-11-02T13:42:47.0000000+00:00</time></trkpt><trkpt lat="39.48215283" lon="-0.38752003"><ele>12.6</ele><time>2022-11-02T13:42:48.0000000+00:00</time></trkpt><trkpt lat="39.48214813" lon="-0.38753235"><ele>12.6</ele><time>2022-11-02T13:42:49.0000000+00:00</time></trkpt><trkpt lat="39.48214696" lon="-0.38754601"><ele>12.6</ele><time>2022-11-02T13:42:50.0000000+00:00</time></trkpt><trkpt lat="39.48214511" lon="-0.38756135"><ele>12.6</ele><time>2022-11-02T13:42:51.0000000+00:00</time></trkpt><trkpt lat="39.48213472" lon="-0.38758138"><ele>12.6</ele><time>2022-11-02T13:42:52.0000000+00:00</time></trkpt><trkpt lat="39.48212416" lon="-0.38759756"><ele>12.6</ele><time>2022-11-02T13:42:53.0000000+00:00</time></trkpt><trkpt lat="39.48211603" lon="-0.3876124"><ele>12.6</ele><time>2022-11-02T13:42:54.0000000+00:00</time></trkpt><trkpt lat="39.48211343" lon="-0.38762664"><ele>12.6</ele><time>2022-11-02T13:42:55.0000000+00:00</time></trkpt><trkpt lat="39.48211016" lon="-0.3876419"><ele>12.6</ele><time>2022-11-02T13:42:56.0000000+00:00</time></trkpt><trkpt lat="39.48210698" lon="-0.38764408"><ele>12.6</ele><time>2022-11-02T13:42:57.0000000+00:00</time></trkpt><trkpt lat="39.48210111" lon="-0.3876616"><ele>12.6</ele><time>2022-11-02T13:42:58.0000000+00:00</time></trkpt><trkpt lat="39.48209273" lon="-0.38768021"><ele>12.6</ele><time>2022-11-02T13:42:59.0000000+00:00</time></trkpt><trkpt lat="39.48208636" lon="-0.38769043"><ele>12.6</ele><time>2022-11-02T13:43:00.0000000+00:00</time></trkpt><trkpt lat="39.48208032" lon="-0.38770032"><ele>12.6</ele><time>2022-11-02T13:43:01.0000000+00:00</time></trkpt><trkpt lat="39.48207278" lon="-0.38771055"><ele>12.6</ele><time>2022-11-02T13:43:02.0000000+00:00</time></trkpt><trkpt lat="39.48206347" lon="-0.38771524"><ele>12.6</ele><time>2022-11-02T13:43:03.0000000+00:00</time></trkpt><trkpt lat="39.48205082" lon="-0.38771834"><ele>12.6</ele><time>2022-11-02T13:43:04.0000000+00:00</time></trkpt><trkpt lat="39.48204101" lon="-0.38772253"><ele>12.6</ele><time>2022-11-02T13:43:05.0000000+00:00</time></trkpt><trkpt lat="39.48203053" lon="-0.38773201"><ele>12.6</ele><time>2022-11-02T13:43:06.0000000+00:00</time></trkpt><trkpt lat="39.48201913" lon="-0.38773896"><ele>12.6</ele><time>2022-11-02T13:43:07.0000000+00:00</time></trkpt><trkpt lat="39.48200782" lon="-0.38774215"><ele>12.6</ele><time>2022-11-02T13:43:08.0000000+00:00</time></trkpt><trkpt lat="39.48199458" lon="-0.38775095"><ele>12.6</ele><time>2022-11-02T13:43:09.0000000+00:00</time></trkpt><trkpt lat="39.48198301" lon="-0.38775774"><ele>12.6</ele><time>2022-11-02T13:43:10.0000000+00:00</time></trkpt><trkpt lat="39.48197312" lon="-0.38776629"><ele>12.4</ele><time>2022-11-02T13:43:11.0000000+00:00</time></trkpt><trkpt lat="39.48196893" lon="-0.38777299"><ele>12.4</ele><time>2022-11-02T13:43:12.0000000+00:00</time></trkpt><trkpt lat="39.48195929" lon="-0.38778146"><ele>12.4</ele><time>2022-11-02T13:43:13.0000000+00:00</time></trkpt><trkpt lat="39.4819504" lon="-0.38778883"><ele>12.4</ele><time>2022-11-02T13:43:14.0000000+00:00</time></trkpt><trkpt lat="39.48194068" lon="-0.38779127"><ele>12.4</ele><time>2022-11-02T13:43:15.0000000+00:00</time></trkpt><trkpt lat="39.48193783" lon="-0.38778582"><ele>12.6</ele><time>2022-11-02T13:43:16.0000000+00:00</time></trkpt><trkpt lat="39.48192861" lon="-0.38778238"><ele>12.8</ele><time>2022-11-02T13:43:17.0000000+00:00</time></trkpt><trkpt lat="39.48192727" lon="-0.38777073"><ele>12.8</ele><time>2022-11-02T13:43:18.0000000+00:00</time></trkpt><trkpt lat="39.48193012" lon="-0.38774542"><ele>13.0</ele><time>2022-11-02T13:43:19.0000000+00:00</time></trkpt><trkpt lat="39.48193733" lon="-0.38772027"><ele>13.0</ele><time>2022-11-02T13:43:20.0000000+00:00</time></trkpt><trkpt lat="39.48193909" lon="-0.38770535"><ele>13.2</ele><time>2022-11-02T13:43:21.0000000+00:00</time></trkpt><trkpt lat="39.48193473" lon="-0.38769814"><ele>13.2</ele><time>2022-11-02T13:43:22.0000000+00:00</time></trkpt><trkpt lat="39.48191872" lon="-0.38769429"><ele>13.2</ele><time>2022-11-02T13:43:23.0000000+00:00</time></trkpt><trkpt lat="39.48190548" lon="-0.38768205"><ele>13.2</ele><time>2022-11-02T13:43:24.0000000+00:00</time></trkpt><trkpt lat="39.48189299" lon="-0.38767643"><ele>13.0</ele><time>2022-11-02T13:43:25.0000000+00:00</time></trkpt><trkpt lat="39.48187798" lon="-0.38766629"><ele>12.8</ele><time>2022-11-02T13:43:26.0000000+00:00</time></trkpt><trkpt lat="39.48186399" lon="-0.38765908"><ele>12.8</ele><time>2022-11-02T13:43:27.0000000+00:00</time></trkpt><trkpt lat="39.48186331" lon="-0.38764207"><ele>12.8</ele><time>2022-11-02T13:43:28.0000000+00:00</time></trkpt><trkpt lat="39.481866" lon="-0.38762296"><ele>12.6</ele><time>2022-11-02T13:43:29.0000000+00:00</time></trkpt><trkpt lat="39.48187077" lon="-0.38760996"><ele>12.6</ele><time>2022-11-02T13:43:30.0000000+00:00</time></trkpt><trkpt lat="39.48187002" lon="-0.38760292"><ele>12.6</ele><time>2022-11-02T13:43:31.0000000+00:00</time></trkpt><trkpt lat="39.48186868" lon="-0.3875963"><ele>12.6</ele><time>2022-11-02T13:43:32.0000000+00:00</time></trkpt><trkpt lat="39.4818722" lon="-0.38758624"><ele>12.6</ele><time>2022-11-02T13:43:33.0000000+00:00</time></trkpt><trkpt lat="39.48187379" lon="-0.38757996"><ele>12.6</ele><time>2022-11-02T13:43:34.0000000+00:00</time></trkpt><trkpt lat="39.4818774" lon="-0.38757158"><ele>12.6</ele><time>2022-11-02T13:43:35.0000000+00:00</time></trkpt><trkpt lat="39.48188058" lon="-0.38756026"><ele>12.6</ele><time>2022-11-02T13:43:36.0000000+00:00</time></trkpt><trkpt lat="39.48186876" lon="-0.38754635"><ele>12.6</ele><time>2022-11-02T13:43:37.0000000+00:00</time></trkpt><trkpt lat="39.48185854" lon="-0.38753629"><ele>12.6</ele><time>2022-11-02T13:43:38.0000000+00:00</time></trkpt><trkpt lat="39.48184378" lon="-0.38752447"><ele>12.6</ele><time>2022-11-02T13:43:39.0000000+00:00</time></trkpt><trkpt lat="39.48183113" lon="-0.38751575"><ele>12.6</ele><time>2022-11-02T13:43:40.0000000+00:00</time></trkpt><trkpt lat="39.48181504" lon="-0.38750729"><ele>12.6</ele><time>2022-11-02T13:43:41.0000000+00:00</time></trkpt><trkpt lat="39.48180305" lon="-0.38750108"><ele>12.8</ele><time>2022-11-02T13:43:42.0000000+00:00</time></trkpt><trkpt lat="39.48178905" lon="-0.38749438"><ele>12.8</ele><time>2022-11-02T13:43:43.0000000+00:00</time></trkpt><trkpt lat="39.48177606" lon="-0.38749329"><ele>12.8</ele><time>2022-11-02T13:43:44.0000000+00:00</time></trkpt><trkpt lat="39.48176416" lon="-0.38749714"><ele>12.8</ele><time>2022-11-02T13:43:45.0000000+00:00</time></trkpt><trkpt lat="39.48174488" lon="-0.3875015"><ele>12.6</ele><time>2022-11-02T13:43:46.0000000+00:00</time></trkpt><trkpt lat="39.48173306" lon="-0.38750108"><ele>12.6</ele><time>2022-11-02T13:43:47.0000000+00:00</time></trkpt><trkpt lat="39.48172007" lon="-0.38750058"><ele>12.6</ele><time>2022-11-02T13:43:48.0000000+00:00</time></trkpt><trkpt lat="39.48169878" lon="-0.38749379"><ele>12.6</ele><time>2022-11-02T13:43:49.0000000+00:00</time></trkpt><trkpt lat="39.48168268" lon="-0.38748072"><ele>12.6</ele><time>2022-11-02T13:43:50.0000000+00:00</time></trkpt><trkpt lat="39.48166349" lon="-0.38748038"><ele>12.6</ele><time>2022-11-02T13:43:51.0000000+00:00</time></trkpt><trkpt lat="39.48164723" lon="-0.38748021"><ele>12.8</ele><time>2022-11-02T13:43:52.0000000+00:00</time></trkpt><trkpt lat="39.48163541" lon="-0.38747912"><ele>13.0</ele><time>2022-11-02T13:43:53.0000000+00:00</time></trkpt><trkpt lat="39.48161856" lon="-0.38747426"><ele>13.0</ele><time>2022-11-02T13:43:54.0000000+00:00</time></trkpt><trkpt lat="39.48160968" lon="-0.38746873"><ele>13.0</ele><time>2022-11-02T13:43:55.0000000+00:00</time></trkpt><trkpt lat="39.48160415" lon="-0.38746487"><ele>13.0</ele><time>2022-11-02T13:43:56.0000000+00:00</time></trkpt><trkpt lat="39.48159426" lon="-0.38746269"><ele>13.0</ele><time>2022-11-02T13:43:57.0000000+00:00</time></trkpt><trkpt lat="39.48159602" lon="-0.38745473"><ele>13.0</ele><time>2022-11-02T13:43:58.0000000+00:00</time></trkpt><trkpt lat="39.48159182" lon="-0.38744291"><ele>13.0</ele><time>2022-11-02T13:43:59.0000000+00:00</time></trkpt><trkpt lat="39.48158168" lon="-0.3874321"><ele>13.0</ele><time>2022-11-02T13:44:00.0000000+00:00</time></trkpt><trkpt lat="39.48157908" lon="-0.38742087"><ele>13.0</ele><time>2022-11-02T13:44:01.0000000+00:00</time></trkpt><trkpt lat="39.48157892" lon="-0.38740377"><ele>13.0</ele><time>2022-11-02T13:44:02.0000000+00:00</time></trkpt><trkpt lat="39.4815878" lon="-0.38738642"><ele>13.0</ele><time>2022-11-02T13:44:03.0000000+00:00</time></trkpt><trkpt lat="39.48159182" lon="-0.38737234"><ele>13.0</ele><time>2022-11-02T13:44:04.0000000+00:00</time></trkpt><trkpt lat="39.48160524" lon="-0.38735415"><ele>13.0</ele><time>2022-11-02T13:44:05.0000000+00:00</time></trkpt><trkpt lat="39.48161094" lon="-0.38734552"><ele>13.0</ele><time>2022-11-02T13:44:06.0000000+00:00</time></trkpt><trkpt lat="39.481608" lon="-0.38733294"><ele>13.0</ele><time>2022-11-02T13:44:07.0000000+00:00</time></trkpt><trkpt lat="39.48160976" lon="-0.38732423"><ele>13.2</ele><time>2022-11-02T13:44:08.0000000+00:00</time></trkpt><trkpt lat="39.48162544" lon="-0.38731165"><ele>13.2</ele><time>2022-11-02T13:44:09.0000000+00:00</time></trkpt><trkpt lat="39.48163323" lon="-0.3873026"><ele>13.4</ele><time>2022-11-02T13:44:10.0000000+00:00</time></trkpt><trkpt lat="39.48163717" lon="-0.38729254"><ele>13.4</ele><time>2022-11-02T13:44:11.0000000+00:00</time></trkpt><trkpt lat="39.48162049" lon="-0.38729087"><ele>13.4</ele><time>2022-11-02T13:44:12.0000000+00:00</time></trkpt><trkpt lat="39.48160725" lon="-0.3872881"><ele>13.4</ele><time>2022-11-02T13:44:13.0000000+00:00</time></trkpt><trkpt lat="39.48159065" lon="-0.3872886"><ele>13.4</ele><time>2022-11-02T13:44:14.0000000+00:00</time></trkpt><trkpt lat="39.48157699" lon="-0.38728793"><ele>13.4</ele><time>2022-11-02T13:44:15.0000000+00:00</time></trkpt><trkpt lat="39.48156358" lon="-0.38728776"><ele>13.4</ele><time>2022-11-02T13:44:16.0000000+00:00</time></trkpt><trkpt lat="39.48152477" lon="-0.38730168"><ele>13.2</ele><time>2022-11-02T13:44:17.0000000+00:00</time></trkpt><trkpt lat="39.48149837" lon="-0.38729958"><ele>13.2</ele><time>2022-11-02T13:44:18.0000000+00:00</time></trkpt><trkpt lat="39.48147146" lon="-0.38729782"><ele>13.2</ele><time>2022-11-02T13:44:19.0000000+00:00</time></trkpt><trkpt lat="39.48143978" lon="-0.38729774"><ele>13.2</ele><time>2022-11-02T13:44:20.0000000+00:00</time></trkpt><trkpt lat="39.48141438" lon="-0.38729263"><ele>13.0</ele><time>2022-11-02T13:44:21.0000000+00:00</time></trkpt><trkpt lat="39.48142461" lon="-0.38728106"><ele>13.0</ele><time>2022-11-02T13:44:22.0000000+00:00</time></trkpt><trkpt lat="39.48141807" lon="-0.3872622"><ele>13.0</ele><time>2022-11-02T13:44:23.0000000+00:00</time></trkpt><trkpt lat="39.48139812" lon="-0.38724166"><ele>13.0</ele><time>2022-11-02T13:44:24.0000000+00:00</time></trkpt><trkpt lat="39.48139451" lon="-0.38722063"><ele>13.0</ele><time>2022-11-02T13:44:25.0000000+00:00</time></trkpt><trkpt lat="39.48138999" lon="-0.38720939"><ele>12.8</ele><time>2022-11-02T13:44:26.0000000+00:00</time></trkpt><trkpt lat="39.4813899" lon="-0.38720126"><ele>12.8</ele><time>2022-11-02T13:44:27.0000000+00:00</time></trkpt><trkpt lat="39.48137725" lon="-0.38719338"><ele>12.8</ele><time>2022-11-02T13:44:28.0000000+00:00</time></trkpt><trkpt lat="39.48136727" lon="-0.38718165"><ele>12.8</ele><time>2022-11-02T13:44:29.0000000+00:00</time></trkpt><trkpt lat="39.48136342" lon="-0.38716941"><ele>12.6</ele><time>2022-11-02T13:44:30.0000000+00:00</time></trkpt><trkpt lat="39.48136107" lon="-0.38716983"><ele>12.6</ele><time>2022-11-02T13:44:31.0000000+00:00</time></trkpt><trkpt lat="39.48134347" lon="-0.38716137"><ele>12.6</ele><time>2022-11-02T13:44:32.0000000+00:00</time></trkpt><trkpt lat="39.48134556" lon="-0.38715986"><ele>12.6</ele><time>2022-11-02T13:44:33.0000000+00:00</time></trkpt><trkpt lat="39.48133073" lon="-0.38716078"><ele>12.8</ele><time>2022-11-02T13:44:34.0000000+00:00</time></trkpt><trkpt lat="39.48132863" lon="-0.38715784"><ele>12.8</ele><time>2022-11-02T13:44:35.0000000+00:00</time></trkpt><trkpt lat="39.48133199" lon="-0.38715676"><ele>12.8</ele><time>2022-11-02T13:44:36.0000000+00:00</time></trkpt><trkpt lat="39.48132914" lon="-0.38715877"><ele>13.0</ele><time>2022-11-02T13:44:37.0000000+00:00</time></trkpt><trkpt lat="39.48132671" lon="-0.38715097"><ele>13.0</ele><time>2022-11-02T13:44:38.0000000+00:00</time></trkpt><trkpt lat="39.4813164" lon="-0.38714594"><ele>13.0</ele><time>2022-11-02T13:44:39.0000000+00:00</time></trkpt><trkpt lat="39.4813148" lon="-0.3871446"><ele>13.0</ele><time>2022-11-02T13:44:40.0000000+00:00</time></trkpt><trkpt lat="39.48130927" lon="-0.38714804"><ele>13.2</ele><time>2022-11-02T13:44:41.0000000+00:00</time></trkpt><trkpt lat="39.48130248" lon="-0.38714133"><ele>13.2</ele><time>2022-11-02T13:44:42.0000000+00:00</time></trkpt><trkpt lat="39.48129997" lon="-0.38714066"><ele>13.2</ele><time>2022-11-02T13:44:43.0000000+00:00</time></trkpt><trkpt lat="39.48129192" lon="-0.38712868"><ele>13.2</ele><time>2022-11-02T13:44:44.0000000+00:00</time></trkpt><trkpt lat="39.48128421" lon="-0.38711493"><ele>13.2</ele><time>2022-11-02T13:44:45.0000000+00:00</time></trkpt><trkpt lat="39.48128052" lon="-0.38711225"><ele>13.2</ele><time>2022-11-02T13:44:46.0000000+00:00</time></trkpt><trkpt lat="39.48126837" lon="-0.38710194"><ele>13.2</ele><time>2022-11-02T13:44:47.0000000+00:00</time></trkpt><trkpt lat="39.4812428" lon="-0.38708434"><ele>13.2</ele><time>2022-11-02T13:44:48.0000000+00:00</time></trkpt><trkpt lat="39.48122461" lon="-0.38706137"><ele>13.2</ele><time>2022-11-02T13:44:49.0000000+00:00</time></trkpt><trkpt lat="39.4811869" lon="-0.3870239"><ele>13.2</ele><time>2022-11-02T13:44:50.0000000+00:00</time></trkpt><trkpt lat="39.48116996" lon="-0.38700261"><ele>13.2</ele><time>2022-11-02T13:44:51.0000000+00:00</time></trkpt><trkpt lat="39.48115161" lon="-0.38697789"><ele>13.2</ele><time>2022-11-02T13:44:52.0000000+00:00</time></trkpt><trkpt lat="39.48113333" lon="-0.38695291"><ele>13.2</ele><time>2022-11-02T13:44:53.0000000+00:00</time></trkpt><trkpt lat="39.48112152" lon="-0.38697143"><ele>13.2</ele><time>2022-11-02T13:44:54.0000000+00:00</time></trkpt><trkpt lat="39.48111414" lon="-0.38697353"><ele>13.2</ele><time>2022-11-02T13:44:55.0000000+00:00</time></trkpt><trkpt lat="39.48109419" lon="-0.38697252"><ele>13.2</ele><time>2022-11-02T13:44:56.0000000+00:00</time></trkpt><trkpt lat="39.48106879" lon="-0.38697168"><ele>13.2</ele><time>2022-11-02T13:44:57.0000000+00:00</time></trkpt><trkpt lat="39.48103904" lon="-0.38696665"><ele>13.2</ele><time>2022-11-02T13:44:58.0000000+00:00</time></trkpt><trkpt lat="39.48103401" lon="-0.38696623"><ele>13.2</ele><time>2022-11-02T13:44:59.0000000+00:00</time></trkpt><trkpt lat="39.48098875" lon="-0.38695257"><ele>13.4</ele><time>2022-11-02T13:45:00.0000000+00:00</time></trkpt><trkpt lat="39.48094248" lon="-0.38694411"><ele>13.4</ele><time>2022-11-02T13:45:01.0000000+00:00</time></trkpt><trkpt lat="39.48090124" lon="-0.38694117"><ele>13.4</ele><time>2022-11-02T13:45:02.0000000+00:00</time></trkpt><trkpt lat="39.48086478" lon="-0.38694101"><ele>13.4</ele><time>2022-11-02T13:45:03.0000000+00:00</time></trkpt><trkpt lat="39.48082522" lon="-0.38694268"><ele>13.4</ele><time>2022-11-02T13:45:04.0000000+00:00</time></trkpt><trkpt lat="39.48079336" lon="-0.38694629"><ele>13.4</ele><time>2022-11-02T13:45:05.0000000+00:00</time></trkpt><trkpt lat="39.48077031" lon="-0.38695131"><ele>13.4</ele><time>2022-11-02T13:45:06.0000000+00:00</time></trkpt><trkpt lat="39.48075246" lon="-0.38695567"><ele>13.6</ele><time>2022-11-02T13:45:07.0000000+00:00</time></trkpt><trkpt lat="39.48072505" lon="-0.38696271"><ele>13.6</ele><time>2022-11-02T13:45:08.0000000+00:00</time></trkpt><trkpt lat="39.48071382" lon="-0.38696908"><ele>13.6</ele><time>2022-11-02T13:45:09.0000000+00:00</time></trkpt><trkpt lat="39.48068616" lon="-0.38697504"><ele>13.8</ele><time>2022-11-02T13:45:10.0000000+00:00</time></trkpt><trkpt lat="39.48065992" lon="-0.38697688"><ele>14.0</ele><time>2022-11-02T13:45:11.0000000+00:00</time></trkpt><trkpt lat="39.48065171" lon="-0.38699163"><ele>14.2</ele><time>2022-11-02T13:45:12.0000000+00:00</time></trkpt><trkpt lat="39.48063327" lon="-0.38699691"><ele>14.2</ele><time>2022-11-02T13:45:13.0000000+00:00</time></trkpt><trkpt lat="39.48060284" lon="-0.38700462"><ele>14.2</ele><time>2022-11-02T13:45:14.0000000+00:00</time></trkpt><trkpt lat="39.48056454" lon="-0.38700907"><ele>14.4</ele><time>2022-11-02T13:45:15.0000000+00:00</time></trkpt><trkpt lat="39.48053629" lon="-0.38700546"><ele>14.4</ele><time>2022-11-02T13:45:16.0000000+00:00</time></trkpt><trkpt lat="39.48050587" lon="-0.38700345"><ele>14.4</ele><time>2022-11-02T13:45:17.0000000+00:00</time></trkpt><trkpt lat="39.48046463" lon="-0.38700311"><ele>14.4</ele><time>2022-11-02T13:45:18.0000000+00:00</time></trkpt><trkpt lat="39.48043345" lon="-0.38700412"><ele>14.4</ele><time>2022-11-02T13:45:19.0000000+00:00</time></trkpt><trkpt lat="39.48040327" lon="-0.38700286"><ele>14.4</ele><time>2022-11-02T13:45:20.0000000+00:00</time></trkpt><trkpt lat="39.48038659" lon="-0.3870042"><ele>14.4</ele><time>2022-11-02T13:45:21.0000000+00:00</time></trkpt><trkpt lat="39.48036673" lon="-0.38701057"><ele>14.4</ele><time>2022-11-02T13:45:22.0000000+00:00</time></trkpt><trkpt lat="39.48035281" lon="-0.38702516"><ele>14.4</ele><time>2022-11-02T13:45:23.0000000+00:00</time></trkpt><trkpt lat="39.48032934" lon="-0.38703673"><ele>14.6</ele><time>2022-11-02T13:45:24.0000000+00:00</time></trkpt><trkpt lat="39.48031115" lon="-0.38704938"><ele>14.6</ele><time>2022-11-02T13:45:25.0000000+00:00</time></trkpt><trkpt lat="39.48029255" lon="-0.38705609"><ele>14.6</ele><time>2022-11-02T13:45:26.0000000+00:00</time></trkpt><trkpt lat="39.48027754" lon="-0.38705793"><ele>14.4</ele><time>2022-11-02T13:45:27.0000000+00:00</time></trkpt><trkpt lat="39.48026489" lon="-0.38706598"><ele>14.4</ele><time>2022-11-02T13:45:28.0000000+00:00</time></trkpt><trkpt lat="39.48024888" lon="-0.3870674"><ele>14.4</ele><time>2022-11-02T13:45:29.0000000+00:00</time></trkpt><trkpt lat="39.4802394" lon="-0.38707394"><ele>14.4</ele><time>2022-11-02T13:45:30.0000000+00:00</time></trkpt><trkpt lat="39.48023647" lon="-0.38710504"><ele>14.4</ele><time>2022-11-02T13:45:31.0000000+00:00</time></trkpt><trkpt lat="39.48023194" lon="-0.38712247"><ele>14.4</ele><time>2022-11-02T13:45:32.0000000+00:00</time></trkpt><trkpt lat="39.48022356" lon="-0.38714871"><ele>14.2</ele><time>2022-11-02T13:45:33.0000000+00:00</time></trkpt><trkpt lat="39.48021761" lon="-0.38717209"><ele>14.2</ele><time>2022-11-02T13:45:34.0000000+00:00</time></trkpt><trkpt lat="39.48021309" lon="-0.38718735"><ele>14.2</ele><time>2022-11-02T13:45:35.0000000+00:00</time></trkpt><trkpt lat="39.48020445" lon="-0.38720537"><ele>14.2</ele><time>2022-11-02T13:45:36.0000000+00:00</time></trkpt><trkpt lat="39.48018014" lon="-0.38721275"><ele>14.2</ele><time>2022-11-02T13:45:37.0000000+00:00</time></trkpt><trkpt lat="39.48016095" lon="-0.38721534"><ele>14.2</ele><time>2022-11-02T13:45:38.0000000+00:00</time></trkpt><trkpt lat="39.48013195" lon="-0.38722624"><ele>14.2</ele><time>2022-11-02T13:45:39.0000000+00:00</time></trkpt><trkpt lat="39.48011066" lon="-0.38722616"><ele>14.2</ele><time>2022-11-02T13:45:40.0000000+00:00</time></trkpt><trkpt lat="39.48010035" lon="-0.38723345"><ele>14.2</ele><time>2022-11-02T13:45:41.0000000+00:00</time></trkpt><trkpt lat="39.48009331" lon="-0.38724401"><ele>14.2</ele><time>2022-11-02T13:45:42.0000000+00:00</time></trkpt><trkpt lat="39.4800861" lon="-0.3872591"><ele>14.2</ele><time>2022-11-02T13:45:43.0000000+00:00</time></trkpt><trkpt lat="39.48007361" lon="-0.38727796"><ele>14.2</ele><time>2022-11-02T13:45:44.0000000+00:00</time></trkpt><trkpt lat="39.48005165" lon="-0.38729447"><ele>14.2</ele><time>2022-11-02T13:45:45.0000000+00:00</time></trkpt><trkpt lat="39.48004402" lon="-0.38730361"><ele>14.2</ele><time>2022-11-02T13:45:46.0000000+00:00</time></trkpt><trkpt lat="39.48005308" lon="-0.38733395"><ele>14.2</ele><time>2022-11-02T13:45:47.0000000+00:00</time></trkpt><trkpt lat="39.48004444" lon="-0.38732808"><ele>14.2</ele><time>2022-11-02T13:45:48.0000000+00:00</time></trkpt><trkpt lat="39.4800312" lon="-0.38732817"><ele>14.2</ele><time>2022-11-02T13:45:49.0000000+00:00</time></trkpt><trkpt lat="39.48002349" lon="-0.38733596"><ele>14.2</ele><time>2022-11-02T13:45:50.0000000+00:00</time></trkpt><trkpt lat="39.47999826" lon="-0.3873456"><ele>14.4</ele><time>2022-11-02T13:45:51.0000000+00:00</time></trkpt><trkpt lat="39.4799763" lon="-0.3873518"><ele>14.2</ele><time>2022-11-02T13:45:52.0000000+00:00</time></trkpt><trkpt lat="39.47996817" lon="-0.38736303"><ele>14.4</ele><time>2022-11-02T13:45:53.0000000+00:00</time></trkpt><trkpt lat="39.47994763" lon="-0.38737326"><ele>14.4</ele><time>2022-11-02T13:45:54.0000000+00:00</time></trkpt><trkpt lat="39.47993481" lon="-0.38738105"><ele>14.4</ele><time>2022-11-02T13:45:55.0000000+00:00</time></trkpt><trkpt lat="39.47993003" lon="-0.38740796"><ele>14.4</ele><time>2022-11-02T13:45:56.0000000+00:00</time></trkpt><trkpt lat="39.47993187" lon="-0.38742204"><ele>14.4</ele><time>2022-11-02T13:45:57.0000000+00:00</time></trkpt><trkpt lat="39.47993003" lon="-0.38744023"><ele>14.4</ele><time>2022-11-02T13:45:58.0000000+00:00</time></trkpt><trkpt lat="39.47992492" lon="-0.38746529"><ele>14.4</ele><time>2022-11-02T13:45:59.0000000+00:00</time></trkpt><trkpt lat="39.47992089" lon="-0.38748633"><ele>14.4</ele><time>2022-11-02T13:46:00.0000000+00:00</time></trkpt><trkpt lat="39.47991896" lon="-0.38750569"><ele>14.4</ele><time>2022-11-02T13:46:01.0000000+00:00</time></trkpt><trkpt lat="39.47992098" lon="-0.38752581"><ele>14.4</ele><time>2022-11-02T13:46:02.0000000+00:00</time></trkpt><trkpt lat="39.47992005" lon="-0.38754651"><ele>14.4</ele><time>2022-11-02T13:46:03.0000000+00:00</time></trkpt><trkpt lat="39.47991746" lon="-0.38756546"><ele>14.4</ele><time>2022-11-02T13:46:04.0000000+00:00</time></trkpt><trkpt lat="39.47991528" lon="-0.3875896"><ele>14.4</ele><time>2022-11-02T13:46:05.0000000+00:00</time></trkpt><trkpt lat="39.4799167" lon="-0.38760619"><ele>14.4</ele><time>2022-11-02T13:46:06.0000000+00:00</time></trkpt><trkpt lat="39.47991486" lon="-0.38762153"><ele>14.4</ele><time>2022-11-02T13:46:07.0000000+00:00</time></trkpt><trkpt lat="39.47991444" lon="-0.38764475"><ele>14.4</ele><time>2022-11-02T13:46:08.0000000+00:00</time></trkpt><trkpt lat="39.47991796" lon="-0.38767534"><ele>14.4</ele><time>2022-11-02T13:46:09.0000000+00:00</time></trkpt><trkpt lat="39.47992341" lon="-0.38773008"><ele>14.4</ele><time>2022-11-02T13:46:11.0000000+00:00</time></trkpt><trkpt lat="39.47992852" lon="-0.38776193"><ele>14.4</ele><time>2022-11-02T13:46:12.0000000+00:00</time></trkpt><trkpt lat="39.47993103" lon="-0.3877937"><ele>14.6</ele><time>2022-11-02T13:46:13.0000000+00:00</time></trkpt><trkpt lat="39.47996439" lon="-0.38789017"><ele>15.2</ele><time>2022-11-02T13:46:16.0000000+00:00</time></trkpt><trkpt lat="39.47999683" lon="-0.38781834"><ele>15.4</ele><time>2022-11-02T13:46:17.0000000+00:00</time></trkpt><trkpt lat="39.48001586" lon="-0.38783074"><ele>15.8</ele><time>2022-11-02T13:46:18.0000000+00:00</time></trkpt><trkpt lat="39.48006054" lon="-0.38780878"><ele>16.2</ele><time>2022-11-02T13:46:21.0000000+00:00</time></trkpt><trkpt lat="39.4801234" lon="-0.38779185"><ele>16.2</ele><time>2022-11-02T13:46:23.0000000+00:00</time></trkpt><trkpt lat="39.48021116" lon="-0.38774701"><ele>16.2</ele><time>2022-11-02T13:46:26.0000000+00:00</time></trkpt><trkpt lat="39.48029816" lon="-0.38775179"><ele>16.2</ele><time>2022-11-02T13:46:27.0000000+00:00</time></trkpt><trkpt lat="39.48032381" lon="-0.38776822"><ele>16.0</ele><time>2022-11-02T13:46:28.0000000+00:00</time></trkpt><trkpt lat="39.48037637" lon="-0.38780049"><ele>16.0</ele><time>2022-11-02T13:46:29.0000000+00:00</time></trkpt><trkpt lat="39.48041257" lon="-0.38779805"><ele>16.0</ele><time>2022-11-02T13:46:30.0000000+00:00</time></trkpt><trkpt lat="39.48046396" lon="-0.38782546"><ele>16.0</ele><time>2022-11-02T13:46:31.0000000+00:00</time></trkpt><trkpt lat="39.48054015" lon="-0.38785237"><ele>16.0</ele><time>2022-11-02T13:46:33.0000000+00:00</time></trkpt><trkpt lat="39.48059371" lon="-0.38786016"><ele>16.0</ele><time>2022-11-02T13:46:35.0000000+00:00</time></trkpt><trkpt lat="39.48062522" lon="-0.38786494"><ele>16.0</ele><time>2022-11-02T13:46:36.0000000+00:00</time></trkpt><trkpt lat="39.48064408" lon="-0.38788313"><ele>16.2</ele><time>2022-11-02T13:46:37.0000000+00:00</time></trkpt><trkpt lat="39.48065322" lon="-0.38789101"><ele>16.2</ele><time>2022-11-02T13:46:38.0000000+00:00</time></trkpt><trkpt lat="39.48064945" lon="-0.38789503"><ele>16.2</ele><time>2022-11-02T13:46:39.0000000+00:00</time></trkpt><trkpt lat="39.48061701" lon="-0.38794331"><ele>16.2</ele><time>2022-11-02T13:46:40.0000000+00:00</time></trkpt><trkpt lat="39.48058759" lon="-0.38797483"><ele>16.2</ele><time>2022-11-02T13:46:41.0000000+00:00</time></trkpt><trkpt lat="39.48057971" lon="-0.38799302"><ele>16.2</ele><time>2022-11-02T13:46:42.0000000+00:00</time></trkpt><trkpt lat="39.4805658" lon="-0.38800366"><ele>16.2</ele><time>2022-11-02T13:46:43.0000000+00:00</time></trkpt><trkpt lat="39.48055691" lon="-0.38801909"><ele>16.4</ele><time>2022-11-02T13:46:44.0000000+00:00</time></trkpt><trkpt lat="39.48055624" lon="-0.38801238"><ele>16.4</ele><time>2022-11-02T13:46:45.0000000+00:00</time></trkpt><trkpt lat="39.48055549" lon="-0.38800743"><ele>16.4</ele><time>2022-11-02T13:46:46.0000000+00:00</time></trkpt><trkpt lat="39.48055415" lon="-0.38800743"><ele>16.4</ele><time>2022-11-02T13:46:47.0000000+00:00</time></trkpt><trkpt lat="39.48055314" lon="-0.38800911"><ele>16.4</ele><time>2022-11-02T13:46:48.0000000+00:00</time></trkpt><trkpt lat="39.48055255" lon="-0.3880071"><ele>16.4</ele><time>2022-11-02T13:46:49.0000000+00:00</time></trkpt><trkpt lat="39.48055113" lon="-0.38800576"><ele>16.4</ele><time>2022-11-02T13:46:50.0000000+00:00</time></trkpt><trkpt lat="39.48055138" lon="-0.38800425"><ele>16.4</ele><time>2022-11-02T13:46:51.0000000+00:00</time></trkpt><trkpt lat="39.48056747" lon="-0.38800886"><ele>16.4</ele><time>2022-11-02T13:46:52.0000000+00:00</time></trkpt><trkpt lat="39.48057535" lon="-0.38801498"><ele>16.4</ele><time>2022-11-02T13:46:53.0000000+00:00</time></trkpt><trkpt lat="39.48057183" lon="-0.38801272"><ele>16.4</ele><time>2022-11-02T13:46:54.0000000+00:00</time></trkpt><trkpt lat="39.4805746" lon="-0.38802185"><ele>16.4</ele><time>2022-11-02T13:46:55.0000000+00:00</time></trkpt><trkpt lat="39.48057015" lon="-0.38802051"><ele>16.4</ele><time>2022-11-02T13:46:56.0000000+00:00</time></trkpt><trkpt lat="39.4805694" lon="-0.38802118"><ele>16.4</ele><time>2022-11-02T13:46:57.0000000+00:00</time></trkpt><trkpt lat="39.48056915" lon="-0.38802235"><ele>16.4</ele><time>2022-11-02T13:46:58.0000000+00:00</time></trkpt><trkpt lat="39.48056915" lon="-0.38802235"><ele>16.4</ele><time>2022-11-02T13:46:59.0000000+00:00</time></trkpt><trkpt lat="39.48056915" lon="-0.38802235"><ele>16.4</ele><time>2022-11-02T13:47:00.0000000+00:00</time></trkpt><trkpt lat="39.48056915" lon="-0.38802235"><ele>16.4</ele><time>2022-11-02T13:47:01.0000000+00:00</time></trkpt><trkpt lat="39.48056915" lon="-0.38802235"><ele>16.4</ele><time>2022-11-02T13:47:02.0000000+00:00</time></trkpt><trkpt lat="39.48056915" lon="-0.38802235"><ele>16.4</ele><time>2022-11-02T13:47:03.0000000+00:00</time></trkpt><trkpt lat="39.48056915" lon="-0.38802235"><ele>16.4</ele><time>2022-11-02T13:47:04.0000000+00:00</time></trkpt><trkpt lat="39.48056915" lon="-0.38802235"><ele>16.4</ele><time>2022-11-02T13:47:05.0000000+00:00</time></trkpt><trkpt lat="39.48056915" lon="-0.38802235"><ele>16.4</ele><time>2022-11-02T13:47:06.0000000+00:00</time></trkpt><trkpt lat="39.48056915" lon="-0.38802235"><ele>16.4</ele><time>2022-11-02T13:47:07.0000000+00:00</time></trkpt><trkpt lat="39.48056915" lon="-0.38802235"><ele>16.4</ele><time>2022-11-02T13:47:08.0000000+00:00</time></trkpt><trkpt lat="39.4805694" lon="-0.38802235"><ele>16.4</ele><time>2022-11-02T13:47:09.0000000+00:00</time></trkpt><trkpt lat="39.48057007" lon="-0.38802235"><ele>16.4</ele><time>2022-11-02T13:47:10.0000000+00:00</time></trkpt><trkpt lat="39.48057158" lon="-0.38802185"><ele>16.4</ele><time>2022-11-02T13:47:11.0000000+00:00</time></trkpt><trkpt lat="39.48057175" lon="-0.38802118"><ele>16.4</ele><time>2022-11-02T13:47:12.0000000+00:00</time></trkpt><trkpt lat="39.480573" lon="-0.38802051"><ele>16.4</ele><time>2022-11-02T13:47:13.0000000+00:00</time></trkpt><trkpt lat="39.48057443" lon="-0.3880154"><ele>16.4</ele><time>2022-11-02T13:47:14.0000000+00:00</time></trkpt><trkpt lat="39.48057502" lon="-0.38801288"><ele>16.4</ele><time>2022-11-02T13:47:15.0000000+00:00</time></trkpt><trkpt lat="39.48057527" lon="-0.38801087"><ele>16.4</ele><time>2022-11-02T13:47:16.0000000+00:00</time></trkpt><trkpt lat="39.48057678" lon="-0.38800987"><ele>16.4</ele><time>2022-11-02T13:47:17.0000000+00:00</time></trkpt><trkpt lat="39.4805782" lon="-0.38800911"><ele>16.4</ele><time>2022-11-02T13:47:18.0000000+00:00</time></trkpt><trkpt lat="39.48057996" lon="-0.38800886"><ele>16.4</ele><time>2022-11-02T13:47:19.0000000+00:00</time></trkpt><trkpt lat="39.48058021" lon="-0.38800886"><ele>16.4</ele><time>2022-11-02T13:47:20.0000000+00:00</time></trkpt><trkpt lat="39.48058181" lon="-0.38800886"><ele>16.4</ele><time>2022-11-02T13:47:21.0000000+00:00</time></trkpt><trkpt lat="39.48058206" lon="-0.38800869"><ele>16.4</ele><time>2022-11-02T13:47:22.0000000+00:00</time></trkpt><trkpt lat="39.48058214" lon="-0.38800852"><ele>16.4</ele><time>2022-11-02T13:47:23.0000000+00:00</time></trkpt><trkpt lat="39.48058298" lon="-0.38800241"><ele>16.4</ele><time>2022-11-02T13:47:24.0000000+00:00</time></trkpt><trkpt lat="39.48059111" lon="-0.3879988"><ele>16.4</ele><time>2022-11-02T13:47:25.0000000+00:00</time></trkpt><trkpt lat="39.48059212" lon="-0.3879936"><ele>16.4</ele><time>2022-11-02T13:47:26.0000000+00:00</time></trkpt><trkpt lat="39.48059228" lon="-0.38799268"><ele>16.4</ele><time>2022-11-02T13:47:27.0000000+00:00</time></trkpt><trkpt lat="39.48059228" lon="-0.38799235"><ele>16.4</ele><time>2022-11-02T13:47:28.0000000+00:00</time></trkpt><trkpt lat="39.48059228" lon="-0.38799184"><ele>16.4</ele><time>2022-11-02T13:47:29.0000000+00:00</time></trkpt><trkpt lat="39.48059228" lon="-0.38799168"><ele>16.4</ele><time>2022-11-02T13:47:30.0000000+00:00</time></trkpt><trkpt lat="39.48059228" lon="-0.38799151"><ele>16.4</ele><time>2022-11-02T13:47:31.0000000+00:00</time></trkpt><trkpt lat="39.48059228" lon="-0.3879905"><ele>16.4</ele><time>2022-11-02T13:47:32.0000000+00:00</time></trkpt><trkpt lat="39.48059228" lon="-0.38799025"><ele>16.4</ele><time>2022-11-02T13:47:33.0000000+00:00</time></trkpt><trkpt lat="39.48059228" lon="-0.38799008"><ele>16.2</ele><time>2022-11-02T13:47:34.0000000+00:00</time></trkpt><trkpt lat="39.48059228" lon="-0.38798992"><ele>16.2</ele><time>2022-11-02T13:47:35.0000000+00:00</time></trkpt><trkpt lat="39.48059228" lon="-0.38798824"><ele>16.2</ele><time>2022-11-02T13:47:36.0000000+00:00</time></trkpt><trkpt lat="39.48059228" lon="-0.38798606"><ele>16.2</ele><time>2022-11-02T13:47:37.0000000+00:00</time></trkpt><trkpt lat="39.48059228" lon="-0.38798531"><ele>16.4</ele><time>2022-11-02T13:47:38.0000000+00:00</time></trkpt><trkpt lat="39.48059228" lon="-0.38798204"><ele>16.4</ele><time>2022-11-02T13:47:39.0000000+00:00</time></trkpt><trkpt lat="39.48059077" lon="-0.38798095"><ele>16.2</ele><time>2022-11-02T13:47:40.0000000+00:00</time></trkpt><trkpt lat="39.48058918" lon="-0.38797642"><ele>16.2</ele><time>2022-11-02T13:47:41.0000000+00:00</time></trkpt><trkpt lat="39.48058859" lon="-0.38796729"><ele>16.2</ele><time>2022-11-02T13:47:42.0000000+00:00</time></trkpt><trkpt lat="39.48058851" lon="-0.38796217"><ele>16.2</ele><time>2022-11-02T13:47:43.0000000+00:00</time></trkpt><trkpt lat="39.48058843" lon="-0.38796041"><ele>16.2</ele><time>2022-11-02T13:47:44.0000000+00:00</time></trkpt><trkpt lat="39.48058801" lon="-0.38795991"><ele>16.2</ele><time>2022-11-02T13:47:45.0000000+00:00</time></trkpt><trkpt lat="39.48058792" lon="-0.38795957"><ele>16.2</ele><time>2022-11-02T13:47:46.0000000+00:00</time></trkpt><trkpt lat="39.48058784" lon="-0.38795681"><ele>16.2</ele><time>2022-11-02T13:47:47.0000000+00:00</time></trkpt><trkpt lat="39.48058759" lon="-0.38795429"><ele>16.2</ele><time>2022-11-02T13:47:48.0000000+00:00</time></trkpt><trkpt lat="39.48058717" lon="-0.3879465"><ele>16.2</ele><time>2022-11-02T13:47:49.0000000+00:00</time></trkpt><trkpt lat="39.48058675" lon="-0.38794365"><ele>16.2</ele><time>2022-11-02T13:47:50.0000000+00:00</time></trkpt><trkpt lat="39.48058658" lon="-0.38794247"><ele>16.2</ele><time>2022-11-02T13:47:51.0000000+00:00</time></trkpt><trkpt lat="39.48058658" lon="-0.38794247"><ele>16.2</ele><time>2022-11-02T13:47:52.0000000+00:00</time></trkpt><trkpt lat="39.4805865" lon="-0.38794222"><ele>16.2</ele><time>2022-11-02T13:47:53.0000000+00:00</time></trkpt><trkpt lat="39.48058633" lon="-0.38794214"><ele>16.2</ele><time>2022-11-02T13:47:54.0000000+00:00</time></trkpt><trkpt lat="39.48058633" lon="-0.38794155"><ele>16.2</ele><time>2022-11-02T13:47:55.0000000+00:00</time></trkpt><trkpt lat="39.48058616" lon="-0.38794139"><ele>16.2</ele><time>2022-11-02T13:47:56.0000000+00:00</time></trkpt><trkpt lat="39.48058591" lon="-0.3879413"><ele>16.2</ele><time>2022-11-02T13:47:57.0000000+00:00</time></trkpt><trkpt lat="39.48058541" lon="-0.3879413"><ele>16.2</ele><time>2022-11-02T13:47:58.0000000+00:00</time></trkpt><trkpt lat="39.48058306" lon="-0.38794122"><ele>16.2</ele><time>2022-11-02T13:47:59.0000000+00:00</time></trkpt><trkpt lat="39.48057443" lon="-0.38794222"><ele>16.2</ele><time>2022-11-02T13:48:00.0000000+00:00</time></trkpt><trkpt lat="39.48056278" lon="-0.38794298"><ele>16.2</ele><time>2022-11-02T13:48:01.0000000+00:00</time></trkpt><trkpt lat="39.48054987" lon="-0.38794323"><ele>16.2</ele><time>2022-11-02T13:48:02.0000000+00:00</time></trkpt><trkpt lat="39.48053897" lon="-0.38794214"><ele>16.4</ele><time>2022-11-02T13:48:03.0000000+00:00</time></trkpt><trkpt lat="39.48052825" lon="-0.387947"><ele>16.4</ele><time>2022-11-02T13:48:04.0000000+00:00</time></trkpt><trkpt lat="39.48051366" lon="-0.38794843"><ele>16.4</ele><time>2022-11-02T13:48:05.0000000+00:00</time></trkpt><trkpt lat="39.48050176" lon="-0.38794885"><ele>16.4</ele><time>2022-11-02T13:48:06.0000000+00:00</time></trkpt><trkpt lat="39.48049338" lon="-0.38794817"><ele>16.4</ele><time>2022-11-02T13:48:07.0000000+00:00</time></trkpt><trkpt lat="39.4804855" lon="-0.3879558"><ele>16.6</ele><time>2022-11-02T13:48:08.0000000+00:00</time></trkpt><trkpt lat="39.48047628" lon="-0.38795874"><ele>16.6</ele><time>2022-11-02T13:48:09.0000000+00:00</time></trkpt><trkpt lat="39.48047611" lon="-0.38795983"><ele>16.6</ele><time>2022-11-02T13:48:10.0000000+00:00</time></trkpt><trkpt lat="39.48046756" lon="-0.38795765"><ele>16.8</ele><time>2022-11-02T13:48:11.0000000+00:00</time></trkpt><trkpt lat="39.48046764" lon="-0.3879589"><ele>16.8</ele><time>2022-11-02T13:48:12.0000000+00:00</time></trkpt><trkpt lat="39.48046932" lon="-0.38795974"><ele>16.8</ele><time>2022-11-02T13:48:13.0000000+00:00</time></trkpt><trkpt lat="39.48047661" lon="-0.38796133"><ele>16.8</ele><time>2022-11-02T13:48:14.0000000+00:00</time></trkpt><trkpt lat="39.48046639" lon="-0.38796661"><ele>16.8</ele><time>2022-11-02T13:48:15.0000000+00:00</time></trkpt><trkpt lat="39.48046655" lon="-0.38797617"><ele>16.8</ele><time>2022-11-02T13:48:16.0000000+00:00</time></trkpt><trkpt lat="39.48047225" lon="-0.38798757"><ele>16.8</ele><time>2022-11-02T13:48:17.0000000+00:00</time></trkpt><trkpt lat="39.48045197" lon="-0.3880009"><ele>16.8</ele><time>2022-11-02T13:48:18.0000000+00:00</time></trkpt><trkpt lat="39.48043831" lon="-0.38800844"><ele>16.8</ele><time>2022-11-02T13:48:19.0000000+00:00</time></trkpt><trkpt lat="39.4804171" lon="-0.38802118"><ele>16.8</ele><time>2022-11-02T13:48:20.0000000+00:00</time></trkpt><trkpt lat="39.48039581" lon="-0.38803367"><ele>16.8</ele><time>2022-11-02T13:48:21.0000000+00:00</time></trkpt><trkpt lat="39.48037553" lon="-0.38802805"><ele>16.8</ele><time>2022-11-02T13:48:22.0000000+00:00</time></trkpt><trkpt lat="39.48035935" lon="-0.38800827"><ele>16.8</ele><time>2022-11-02T13:48:23.0000000+00:00</time></trkpt><trkpt lat="39.48034074" lon="-0.388004"><ele>16.8</ele><time>2022-11-02T13:48:24.0000000+00:00</time></trkpt><trkpt lat="39.48032515" lon="-0.38799863"><ele>16.8</ele><time>2022-11-02T13:48:25.0000000+00:00</time></trkpt><trkpt lat="39.48031551" lon="-0.38799495"><ele>16.8</ele><time>2022-11-02T13:48:26.0000000+00:00</time></trkpt><trkpt lat="39.48030789" lon="-0.38799134"><ele>16.8</ele><time>2022-11-02T13:48:27.0000000+00:00</time></trkpt><trkpt lat="39.48030277" lon="-0.3879838"><ele>16.8</ele><time>2022-11-02T13:48:28.0000000+00:00</time></trkpt><trkpt lat="39.48058491" lon="-0.38786721"><ele>16.8</ele><time>2022-11-02T13:48:33.0000000+00:00</time></trkpt><trkpt lat="39.48058709" lon="-0.38784877"><ele>16.8</ele><time>2022-11-02T13:48:34.0000000+00:00</time></trkpt><trkpt lat="39.48059052" lon="-0.38782689"><ele>16.8</ele><time>2022-11-02T13:48:35.0000000+00:00</time></trkpt><trkpt lat="39.48058549" lon="-0.38782278"><ele>16.8</ele><time>2022-11-02T13:48:36.0000000+00:00</time></trkpt><trkpt lat="39.48059161" lon="-0.38779755"><ele>16.8</ele><time>2022-11-02T13:48:38.0000000+00:00</time></trkpt><trkpt lat="39.48059471" lon="-0.38779244"><ele>16.8</ele><time>2022-11-02T13:48:39.0000000+00:00</time></trkpt><trkpt lat="39.48059144" lon="-0.38779194"><ele>16.8</ele><time>2022-11-02T13:48:40.0000000+00:00</time></trkpt><trkpt lat="39.48059027" lon="-0.38779914"><ele>16.8</ele><time>2022-11-02T13:48:41.0000000+00:00</time></trkpt><trkpt lat="39.48065288" lon="-0.38771851"><ele>16.8</ele><time>2022-11-02T13:48:46.0000000+00:00</time></trkpt><trkpt lat="39.48069982" lon="-0.38769814"><ele>16.8</ele><time>2022-11-02T13:48:47.0000000+00:00</time></trkpt><trkpt lat="39.48027494" lon="-0.38810022"><ele>16.8</ele><time>2022-11-02T13:49:02.0000000+00:00</time></trkpt><trkpt lat="39.48025558" lon="-0.38811112"><ele>16.8</ele><time>2022-11-02T13:49:03.0000000+00:00</time></trkpt><trkpt lat="39.48024921" lon="-0.38811858"><ele>16.8</ele><time>2022-11-02T13:49:04.0000000+00:00</time></trkpt><trkpt lat="39.48025986" lon="-0.38811355"><ele>16.8</ele><time>2022-11-02T13:49:05.0000000+00:00</time></trkpt><trkpt lat="39.48029699" lon="-0.38807256"><ele>16.8</ele><time>2022-11-02T13:49:06.0000000+00:00</time></trkpt><trkpt lat="39.48031836" lon="-0.3880335"><ele>16.8</ele><time>2022-11-02T13:49:07.0000000+00:00</time></trkpt><trkpt lat="39.48032767" lon="-0.38800953"><ele>16.8</ele><time>2022-11-02T13:49:08.0000000+00:00</time></trkpt><trkpt lat="39.48034116" lon="-0.38799402"><ele>16.8</ele><time>2022-11-02T13:49:09.0000000+00:00</time></trkpt><trkpt lat="39.48037611" lon="-0.38797919"><ele>16.8</ele><time>2022-11-02T13:49:10.0000000+00:00</time></trkpt><trkpt lat="39.48041023" lon="-0.38796502"><ele>16.8</ele><time>2022-11-02T13:49:11.0000000+00:00</time></trkpt><trkpt lat="39.48043294" lon="-0.38794759"><ele>16.8</ele><time>2022-11-02T13:49:12.0000000+00:00</time></trkpt><trkpt lat="39.48045767" lon="-0.38793376"><ele>16.8</ele><time>2022-11-02T13:49:13.0000000+00:00</time></trkpt><trkpt lat="39.48047737" lon="-0.38792001"><ele>16.8</ele><time>2022-11-02T13:49:14.0000000+00:00</time></trkpt><trkpt lat="39.48049589" lon="-0.38790769"><ele>16.8</ele><time>2022-11-02T13:49:15.0000000+00:00</time></trkpt><trkpt lat="39.4805181" lon="-0.3878921"><ele>16.8</ele><time>2022-11-02T13:49:16.0000000+00:00</time></trkpt><trkpt lat="39.48053822" lon="-0.3878724"><ele>16.6</ele><time>2022-11-02T13:49:17.0000000+00:00</time></trkpt><trkpt lat="39.48056043" lon="-0.38785044"><ele>16.6</ele><time>2022-11-02T13:49:18.0000000+00:00</time></trkpt><trkpt lat="39.4805787" lon="-0.38784156"><ele>16.4</ele><time>2022-11-02T13:49:19.0000000+00:00</time></trkpt><trkpt lat="39.48059622" lon="-0.3878403"><ele>16.4</ele><time>2022-11-02T13:49:20.0000000+00:00</time></trkpt><trkpt lat="39.4805813" lon="-0.38784315"><ele>16.6</ele><time>2022-11-02T13:49:21.0000000+00:00</time></trkpt><trkpt lat="39.48055389" lon="-0.38785279"><ele>16.6</ele><time>2022-11-02T13:49:22.0000000+00:00</time></trkpt><trkpt lat="39.48051735" lon="-0.38787148"><ele>16.6</ele><time>2022-11-02T13:49:24.0000000+00:00</time></trkpt><trkpt lat="39.48046454" lon="-0.38787735"><ele>16.4</ele><time>2022-11-02T13:49:25.0000000+00:00</time></trkpt><trkpt lat="39.48041618" lon="-0.38789243"><ele>16.2</ele><time>2022-11-02T13:49:26.0000000+00:00</time></trkpt><trkpt lat="39.48036647" lon="-0.38790467"><ele>16.2</ele><time>2022-11-02T13:49:27.0000000+00:00</time></trkpt><trkpt lat="39.48030017" lon="-0.38792454"><ele>16.0</ele><time>2022-11-02T13:49:28.0000000+00:00</time></trkpt><trkpt lat="39.48034292" lon="-0.38792613"><ele>16.0</ele><time>2022-11-02T13:49:29.0000000+00:00</time></trkpt><trkpt lat="39.48029875" lon="-0.38793837"><ele>16.0</ele><time>2022-11-02T13:49:30.0000000+00:00</time></trkpt><trkpt lat="39.48026832" lon="-0.38794742"><ele>15.8</ele><time>2022-11-02T13:49:31.0000000+00:00</time></trkpt><trkpt lat="39.48022247" lon="-0.38797265"><ele>15.8</ele><time>2022-11-02T13:49:32.0000000+00:00</time></trkpt><trkpt lat="39.48019716" lon="-0.38798883"><ele>15.4</ele><time>2022-11-02T13:49:33.0000000+00:00</time></trkpt><trkpt lat="39.48018383" lon="-0.38800165"><ele>15.2</ele><time>2022-11-02T13:49:34.0000000+00:00</time></trkpt><trkpt lat="39.48016523" lon="-0.38801984"><ele>15.0</ele><time>2022-11-02T13:49:35.0000000+00:00</time></trkpt><trkpt lat="39.4801348" lon="-0.38802914"><ele>14.8</ele><time>2022-11-02T13:49:36.0000000+00:00</time></trkpt><trkpt lat="39.48011896" lon="-0.38802453"><ele>14.8</ele><time>2022-11-02T13:49:37.0000000+00:00</time></trkpt><trkpt lat="39.48010881" lon="-0.38800006"><ele>14.6</ele><time>2022-11-02T13:49:38.0000000+00:00</time></trkpt><trkpt lat="39.48010479" lon="-0.38796016"><ele>14.6</ele><time>2022-11-02T13:49:39.0000000+00:00</time></trkpt><trkpt lat="39.48010454" lon="-0.38791314"><ele>14.6</ele><time>2022-11-02T13:49:40.0000000+00:00</time></trkpt><trkpt lat="39.4801011" lon="-0.38788355"><ele>14.6</ele><time>2022-11-02T13:49:41.0000000+00:00</time></trkpt><trkpt lat="39.48009851" lon="-0.38785446"><ele>14.6</ele><time>2022-11-02T13:49:43.0000000+00:00</time></trkpt><trkpt lat="39.48010404" lon="-0.38782069"><ele>14.8</ele><time>2022-11-02T13:49:45.0000000+00:00</time></trkpt><trkpt lat="39.48010974" lon="-0.38780057"><ele>14.8</ele><time>2022-11-02T13:49:46.0000000+00:00</time></trkpt><trkpt lat="39.48010521" lon="-0.38777794"><ele>14.8</ele><time>2022-11-02T13:49:47.0000000+00:00</time></trkpt><trkpt lat="39.48009951" lon="-0.38776671"><ele>14.8</ele><time>2022-11-02T13:49:48.0000000+00:00</time></trkpt><trkpt lat="39.48008727" lon="-0.38775112"><ele>14.8</ele><time>2022-11-02T13:49:49.0000000+00:00</time></trkpt><trkpt lat="39.48008191" lon="-0.38773393"><ele>14.8</ele><time>2022-11-02T13:49:50.0000000+00:00</time></trkpt><trkpt lat="39.48006992" lon="-0.38769362"><ele>14.8</ele><time>2022-11-02T13:49:51.0000000+00:00</time></trkpt><trkpt lat="39.48006355" lon="-0.38765883"><ele>14.6</ele><time>2022-11-02T13:49:52.0000000+00:00</time></trkpt><trkpt lat="39.48006012" lon="-0.38763335"><ele>14.6</ele><time>2022-11-02T13:49:53.0000000+00:00</time></trkpt><trkpt lat="39.48005911" lon="-0.38760502"><ele>14.6</ele><time>2022-11-02T13:49:54.0000000+00:00</time></trkpt><trkpt lat="39.48005484" lon="-0.38758826"><ele>14.6</ele><time>2022-11-02T13:49:55.0000000+00:00</time></trkpt><trkpt lat="39.48004855" lon="-0.38756998"><ele>14.6</ele><time>2022-11-02T13:49:56.0000000+00:00</time></trkpt><trkpt lat="39.48004411" lon="-0.38755733"><ele>14.6</ele><time>2022-11-02T13:49:57.0000000+00:00</time></trkpt><trkpt lat="39.48003623" lon="-0.38753553"><ele>14.6</ele><time>2022-11-02T13:49:58.0000000+00:00</time></trkpt><trkpt lat="39.48002852" lon="-0.38751424"><ele>14.6</ele><time>2022-11-02T13:49:59.0000000+00:00</time></trkpt><trkpt lat="39.4800229" lon="-0.38749589"><ele>14.6</ele><time>2022-11-02T13:50:00.0000000+00:00</time></trkpt><trkpt lat="39.4800146" lon="-0.38746865"><ele>14.6</ele><time>2022-11-02T13:50:01.0000000+00:00</time></trkpt><trkpt lat="39.4800322" lon="-0.38744342"><ele>14.6</ele><time>2022-11-02T13:50:02.0000000+00:00</time></trkpt><trkpt lat="39.48003648" lon="-0.3874067"><ele>14.6</ele><time>2022-11-02T13:50:03.0000000+00:00</time></trkpt><trkpt lat="39.48003765" lon="-0.38738893"><ele>14.6</ele><time>2022-11-02T13:50:04.0000000+00:00</time></trkpt><trkpt lat="39.48003614" lon="-0.38736572"><ele>14.6</ele><time>2022-11-02T13:50:05.0000000+00:00</time></trkpt><trkpt lat="39.4800343" lon="-0.38734702"><ele>14.6</ele><time>2022-11-02T13:50:06.0000000+00:00</time></trkpt><trkpt lat="39.48003246" lon="-0.38732925"><ele>14.6</ele><time>2022-11-02T13:50:07.0000000+00:00</time></trkpt><trkpt lat="39.48002617" lon="-0.38729413"><ele>14.6</ele><time>2022-11-02T13:50:09.0000000+00:00</time></trkpt><trkpt lat="39.48001896" lon="-0.38725826"><ele>14.6</ele><time>2022-11-02T13:50:11.0000000+00:00</time></trkpt><trkpt lat="39.48001569" lon="-0.3872389"><ele>14.6</ele><time>2022-11-02T13:50:12.0000000+00:00</time></trkpt><trkpt lat="39.48001108" lon="-0.38720747"><ele>14.6</ele><time>2022-11-02T13:50:14.0000000+00:00</time></trkpt><trkpt lat="39.48001008" lon="-0.38719213"><ele>14.6</ele><time>2022-11-02T13:50:15.0000000+00:00</time></trkpt><trkpt lat="39.4800105" lon="-0.38718115"><ele>14.6</ele><time>2022-11-02T13:50:16.0000000+00:00</time></trkpt><trkpt lat="39.48001326" lon="-0.38716656"><ele>14.6</ele><time>2022-11-02T13:50:17.0000000+00:00</time></trkpt><trkpt lat="39.48001712" lon="-0.38714971"><ele>14.6</ele><time>2022-11-02T13:50:18.0000000+00:00</time></trkpt><trkpt lat="39.4800229" lon="-0.38713396"><ele>14.6</ele><time>2022-11-02T13:50:19.0000000+00:00</time></trkpt><trkpt lat="39.4800312" lon="-0.38711409"><ele>14.6</ele><time>2022-11-02T13:50:20.0000000+00:00</time></trkpt><trkpt lat="39.4800395" lon="-0.38709389"><ele>14.6</ele><time>2022-11-02T13:50:21.0000000+00:00</time></trkpt><trkpt lat="39.4800467" lon="-0.38707444"><ele>14.8</ele><time>2022-11-02T13:50:22.0000000+00:00</time></trkpt><trkpt lat="39.48005366" lon="-0.38705424"><ele>14.8</ele><time>2022-11-02T13:50:23.0000000+00:00</time></trkpt><trkpt lat="39.48005693" lon="-0.38703807"><ele>14.8</ele><time>2022-11-02T13:50:24.0000000+00:00</time></trkpt><trkpt lat="39.4800628" lon="-0.38702298"><ele>14.8</ele><time>2022-11-02T13:50:25.0000000+00:00</time></trkpt><trkpt lat="39.48010613" lon="-0.38706003"><ele>14.8</ele><time>2022-11-02T13:50:26.0000000+00:00</time></trkpt><trkpt lat="39.48012985" lon="-0.38706506"><ele>14.8</ele><time>2022-11-02T13:50:27.0000000+00:00</time></trkpt><trkpt lat="39.48014963" lon="-0.3870695"><ele>14.8</ele><time>2022-11-02T13:50:28.0000000+00:00</time></trkpt><trkpt lat="39.48015986" lon="-0.38706699"><ele>15.0</ele><time>2022-11-02T13:50:29.0000000+00:00</time></trkpt><trkpt lat="39.48016967" lon="-0.3870617"><ele>15.0</ele><time>2022-11-02T13:50:30.0000000+00:00</time></trkpt><trkpt lat="39.48018467" lon="-0.38705022"><ele>14.8</ele><time>2022-11-02T13:50:31.0000000+00:00</time></trkpt><trkpt lat="39.48020085" lon="-0.38704033"><ele>14.8</ele><time>2022-11-02T13:50:32.0000000+00:00</time></trkpt><trkpt lat="39.480327" lon="-0.38709188"><ele>14.8</ele><time>2022-11-02T13:50:33.0000000+00:00</time></trkpt><trkpt lat="39.4803793" lon="-0.38708861"><ele>14.6</ele><time>2022-11-02T13:50:34.0000000+00:00</time></trkpt><trkpt lat="39.4804171" lon="-0.3870778"><ele>14.6</ele><time>2022-11-02T13:50:35.0000000+00:00</time></trkpt><trkpt lat="39.48043973" lon="-0.38707512"><ele>14.4</ele><time>2022-11-02T13:50:36.0000000+00:00</time></trkpt><trkpt lat="39.48045197" lon="-0.38706883"><ele>14.4</ele><time>2022-11-02T13:50:37.0000000+00:00</time></trkpt><trkpt lat="39.48046287" lon="-0.38705835"><ele>14.2</ele><time>2022-11-02T13:50:38.0000000+00:00</time></trkpt><trkpt lat="39.48047066" lon="-0.38704435"><ele>14.2</ele><time>2022-11-02T13:50:39.0000000+00:00</time></trkpt><trkpt lat="39.48047879" lon="-0.38703606"><ele>14.0</ele><time>2022-11-02T13:50:40.0000000+00:00</time></trkpt><trkpt lat="39.48048927" lon="-0.38702197"><ele>14.0</ele><time>2022-11-02T13:50:41.0000000+00:00</time></trkpt><trkpt lat="39.48049958" lon="-0.38701041"><ele>14.0</ele><time>2022-11-02T13:50:42.0000000+00:00</time></trkpt><trkpt lat="39.48050972" lon="-0.38700303"><ele>14.0</ele><time>2022-11-02T13:50:43.0000000+00:00</time></trkpt><trkpt lat="39.48052062" lon="-0.38699549"><ele>14.0</ele><time>2022-11-02T13:50:44.0000000+00:00</time></trkpt><trkpt lat="39.48054124" lon="-0.38698677"><ele>14.0</ele><time>2022-11-02T13:50:45.0000000+00:00</time></trkpt><trkpt lat="39.48054928" lon="-0.38697948"><ele>14.2</ele><time>2022-11-02T13:50:46.0000000+00:00</time></trkpt><trkpt lat="39.48055213" lon="-0.3869726"><ele>14.2</ele><time>2022-11-02T13:50:47.0000000+00:00</time></trkpt><trkpt lat="39.48055691" lon="-0.38696514"><ele>14.2</ele><time>2022-11-02T13:50:48.0000000+00:00</time></trkpt><trkpt lat="39.48055591" lon="-0.38695844"><ele>14.0</ele><time>2022-11-02T13:50:49.0000000+00:00</time></trkpt><trkpt lat="39.4805518" lon="-0.38694754"><ele>14.0</ele><time>2022-11-02T13:50:50.0000000+00:00</time></trkpt><trkpt lat="39.48053478" lon="-0.38695693"><ele>14.0</ele><time>2022-11-02T13:50:51.0000000+00:00</time></trkpt><trkpt lat="39.48053654" lon="-0.38694779"><ele>13.8</ele><time>2022-11-02T13:50:52.0000000+00:00</time></trkpt><trkpt lat="39.48053847" lon="-0.38694897"><ele>13.8</ele><time>2022-11-02T13:50:53.0000000+00:00</time></trkpt><trkpt lat="39.48054032" lon="-0.38695081"><ele>13.8</ele><time>2022-11-02T13:50:54.0000000+00:00</time></trkpt><trkpt lat="39.48054182" lon="-0.38695165"><ele>13.6</ele><time>2022-11-02T13:50:55.0000000+00:00</time></trkpt><trkpt lat="39.48054283" lon="-0.38695215"><ele>13.6</ele><time>2022-11-02T13:50:56.0000000+00:00</time></trkpt><trkpt lat="39.48054392" lon="-0.38695316"><ele>13.6</ele><time>2022-11-02T13:50:57.0000000+00:00</time></trkpt><trkpt lat="39.48054509" lon="-0.38695509"><ele>13.6</ele><time>2022-11-02T13:50:58.0000000+00:00</time></trkpt><trkpt lat="39.48053554" lon="-0.38696431"><ele>13.6</ele><time>2022-11-02T13:50:59.0000000+00:00</time></trkpt><trkpt lat="39.48053571" lon="-0.38696414"><ele>13.6</ele><time>2022-11-02T13:51:00.0000000+00:00</time></trkpt><trkpt lat="39.48053612" lon="-0.3869633"><ele>13.6</ele><time>2022-11-02T13:51:01.0000000+00:00</time></trkpt><trkpt lat="39.48053671" lon="-0.38696498"><ele>13.6</ele><time>2022-11-02T13:51:02.0000000+00:00</time></trkpt><trkpt lat="39.48053713" lon="-0.38696598"><ele>13.6</ele><time>2022-11-02T13:51:03.0000000+00:00</time></trkpt><trkpt lat="39.48053839" lon="-0.38696732"><ele>13.6</ele><time>2022-11-02T13:51:04.0000000+00:00</time></trkpt><trkpt lat="39.48053956" lon="-0.38696632"><ele>13.4</ele><time>2022-11-02T13:51:05.0000000+00:00</time></trkpt><trkpt lat="39.48054191" lon="-0.38696682"><ele>13.2</ele><time>2022-11-02T13:51:06.0000000+00:00</time></trkpt><trkpt lat="39.48054451" lon="-0.38695484"><ele>13.2</ele><time>2022-11-02T13:51:07.0000000+00:00</time></trkpt><trkpt lat="39.48054601" lon="-0.38694293"><ele>13.2</ele><time>2022-11-02T13:51:08.0000000+00:00</time></trkpt><trkpt lat="39.48054727" lon="-0.38693975"><ele>13.2</ele><time>2022-11-02T13:51:09.0000000+00:00</time></trkpt><trkpt lat="39.4805471" lon="-0.38692324"><ele>13.2</ele><time>2022-11-02T13:51:10.0000000+00:00</time></trkpt><trkpt lat="39.4805456" lon="-0.3869032"><ele>13.2</ele><time>2022-11-02T13:51:11.0000000+00:00</time></trkpt><trkpt lat="39.48054384" lon="-0.38689775"><ele>13.2</ele><time>2022-11-02T13:51:12.0000000+00:00</time></trkpt><trkpt lat="39.48054132" lon="-0.38689381"><ele>13.2</ele><time>2022-11-02T13:51:13.0000000+00:00</time></trkpt><trkpt lat="39.48054627" lon="-0.38689021"><ele>13.2</ele><time>2022-11-02T13:51:14.0000000+00:00</time></trkpt><trkpt lat="39.48055339" lon="-0.38688803"><ele>13.2</ele><time>2022-11-02T13:51:15.0000000+00:00</time></trkpt><trkpt lat="39.48056362" lon="-0.386882"><ele>13.2</ele><time>2022-11-02T13:51:16.0000000+00:00</time></trkpt><trkpt lat="39.48057108" lon="-0.38687655"><ele>13.2</ele><time>2022-11-02T13:51:17.0000000+00:00</time></trkpt><trkpt lat="39.48057317" lon="-0.38688107"><ele>13.4</ele><time>2022-11-02T13:51:18.0000000+00:00</time></trkpt><trkpt lat="39.48057191" lon="-0.38688543"><ele>13.4</ele><time>2022-11-02T13:51:19.0000000+00:00</time></trkpt><trkpt lat="39.48057284" lon="-0.38688962"><ele>13.6</ele><time>2022-11-02T13:51:20.0000000+00:00</time></trkpt><trkpt lat="39.4805756" lon="-0.38689884"><ele>13.6</ele><time>2022-11-02T13:51:21.0000000+00:00</time></trkpt><trkpt lat="39.48057896" lon="-0.38691309"><ele>13.6</ele><time>2022-11-02T13:51:22.0000000+00:00</time></trkpt><trkpt lat="39.48058449" lon="-0.38693363"><ele>13.6</ele><time>2022-11-02T13:51:23.0000000+00:00</time></trkpt><trkpt lat="39.48058876" lon="-0.38694335"><ele>13.6</ele><time>2022-11-02T13:51:24.0000000+00:00</time></trkpt><trkpt lat="39.48059295" lon="-0.38694805"><ele>13.6</ele><time>2022-11-02T13:51:25.0000000+00:00</time></trkpt><trkpt lat="39.48059295" lon="-0.38694545"><ele>13.6</ele><time>2022-11-02T13:51:26.0000000+00:00</time></trkpt><trkpt lat="39.48058859" lon="-0.38692164"><ele>13.6</ele><time>2022-11-02T13:51:27.0000000+00:00</time></trkpt><trkpt lat="39.48058658" lon="-0.38691972"><ele>13.6</ele><time>2022-11-02T13:51:28.0000000+00:00</time></trkpt><trkpt lat="39.48058667" lon="-0.38691888"><ele>13.6</ele><time>2022-11-02T13:51:29.0000000+00:00</time></trkpt><trkpt lat="39.48058759" lon="-0.38691921"><ele>13.6</ele><time>2022-11-02T13:51:30.0000000+00:00</time></trkpt><trkpt lat="39.48058432" lon="-0.38691586"><ele>13.6</ele><time>2022-11-02T13:51:31.0000000+00:00</time></trkpt><trkpt lat="39.48057988" lon="-0.38691435"><ele>13.8</ele><time>2022-11-02T13:51:32.0000000+00:00</time></trkpt><trkpt lat="39.48057854" lon="-0.3869146"><ele>13.8</ele><time>2022-11-02T13:51:33.0000000+00:00</time></trkpt><trkpt lat="39.48057778" lon="-0.38691242"><ele>13.8</ele><time>2022-11-02T13:51:34.0000000+00:00</time></trkpt><trkpt lat="39.48058072" lon="-0.38690697"><ele>13.8</ele><time>2022-11-02T13:51:35.0000000+00:00</time></trkpt><trkpt lat="39.48059036" lon="-0.38690027"><ele>14.0</ele><time>2022-11-02T13:51:36.0000000+00:00</time></trkpt><trkpt lat="39.48059857" lon="-0.38689692"><ele>14.0</ele><time>2022-11-02T13:51:37.0000000+00:00</time></trkpt><trkpt lat="39.48060343" lon="-0.38689499"><ele>14.2</ele><time>2022-11-02T13:51:38.0000000+00:00</time></trkpt><trkpt lat="39.48061558" lon="-0.38690371"><ele>14.2</ele><time>2022-11-02T13:51:39.0000000+00:00</time></trkpt><trkpt lat="39.48062103" lon="-0.386911"><ele>14.2</ele><time>2022-11-02T13:51:40.0000000+00:00</time></trkpt><trkpt lat="39.48062967" lon="-0.38691024"><ele>14.2</ele><time>2022-11-02T13:51:41.0000000+00:00</time></trkpt><trkpt lat="39.48063729" lon="-0.38690488"><ele>14.2</ele><time>2022-11-02T13:51:42.0000000+00:00</time></trkpt><trkpt lat="39.48064366" lon="-0.38689205"><ele>14.2</ele><time>2022-11-02T13:51:43.0000000+00:00</time></trkpt><trkpt lat="39.48065171" lon="-0.38687864"><ele>14.2</ele><time>2022-11-02T13:51:44.0000000+00:00</time></trkpt><trkpt lat="39.48066001" lon="-0.38686976"><ele>14.2</ele><time>2022-11-02T13:51:45.0000000+00:00</time></trkpt><trkpt lat="39.48067149" lon="-0.38686993"><ele>14.2</ele><time>2022-11-02T13:51:46.0000000+00:00</time></trkpt><trkpt lat="39.48067795" lon="-0.38686741"><ele>14.2</ele><time>2022-11-02T13:51:47.0000000+00:00</time></trkpt><trkpt lat="39.48068465" lon="-0.38686263"><ele>14.2</ele><time>2022-11-02T13:51:48.0000000+00:00</time></trkpt><trkpt lat="39.48068675" lon="-0.38685945"><ele>14.2</ele><time>2022-11-02T13:51:49.0000000+00:00</time></trkpt><trkpt lat="39.48069094" lon="-0.38685677"><ele>14.2</ele><time>2022-11-02T13:51:50.0000000+00:00</time></trkpt><trkpt lat="39.48069169" lon="-0.38685249"><ele>14.2</ele><time>2022-11-02T13:51:51.0000000+00:00</time></trkpt><trkpt lat="39.48069982" lon="-0.38687663"><ele>14.2</ele><time>2022-11-02T13:51:52.0000000+00:00</time></trkpt><trkpt lat="39.48071516" lon="-0.38687579"><ele>14.0</ele><time>2022-11-02T13:51:53.0000000+00:00</time></trkpt><trkpt lat="39.48072019" lon="-0.38688149"><ele>14.0</ele><time>2022-11-02T13:51:54.0000000+00:00</time></trkpt><trkpt lat="39.48072203" lon="-0.38689574"><ele>14.0</ele><time>2022-11-02T13:51:55.0000000+00:00</time></trkpt><trkpt lat="39.48071919" lon="-0.38690563"><ele>13.8</ele><time>2022-11-02T13:51:56.0000000+00:00</time></trkpt><trkpt lat="39.48071734" lon="-0.38692139"><ele>13.8</ele><time>2022-11-02T13:51:57.0000000+00:00</time></trkpt><trkpt lat="39.48072296" lon="-0.38692776"><ele>13.8</ele><time>2022-11-02T13:51:58.0000000+00:00</time></trkpt><trkpt lat="39.48072815" lon="-0.38693941"><ele>13.8</ele><time>2022-11-02T13:51:59.0000000+00:00</time></trkpt><trkpt lat="39.48073436" lon="-0.38694"><ele>13.8</ele><time>2022-11-02T13:52:00.0000000+00:00</time></trkpt><trkpt lat="39.4807388" lon="-0.38693539"><ele>13.8</ele><time>2022-11-02T13:52:01.0000000+00:00</time></trkpt><trkpt lat="39.48074089" lon="-0.38693128"><ele>13.8</ele><time>2022-11-02T13:52:02.0000000+00:00</time></trkpt><trkpt lat="39.48074492" lon="-0.38692835"><ele>13.8</ele><time>2022-11-02T13:52:03.0000000+00:00</time></trkpt><trkpt lat="39.48074433" lon="-0.38692986"><ele>13.8</ele><time>2022-11-02T13:52:04.0000000+00:00</time></trkpt><trkpt lat="39.48074408" lon="-0.38692458"><ele>13.8</ele><time>2022-11-02T13:52:05.0000000+00:00</time></trkpt><trkpt lat="39.4807471" lon="-0.38691133"><ele>13.8</ele><time>2022-11-02T13:52:06.0000000+00:00</time></trkpt><trkpt lat="39.48075263" lon="-0.38689641"><ele>13.8</ele><time>2022-11-02T13:52:07.0000000+00:00</time></trkpt><trkpt lat="39.48075171" lon="-0.38689608"><ele>13.8</ele><time>2022-11-02T13:52:08.0000000+00:00</time></trkpt><trkpt lat="39.48075422" lon="-0.38687973"><ele>13.8</ele><time>2022-11-02T13:52:09.0000000+00:00</time></trkpt><trkpt lat="39.48075414" lon="-0.38687085"><ele>13.8</ele><time>2022-11-02T13:52:10.0000000+00:00</time></trkpt><trkpt lat="39.48075045" lon="-0.3868649"><ele>13.8</ele><time>2022-11-02T13:52:11.0000000+00:00</time></trkpt><trkpt lat="39.48074861" lon="-0.38686154"><ele>13.8</ele><time>2022-11-02T13:52:12.0000000+00:00</time></trkpt><trkpt lat="39.48074525" lon="-0.38686087"><ele>13.6</ele><time>2022-11-02T13:52:13.0000000+00:00</time></trkpt><trkpt lat="39.48074089" lon="-0.38685677"><ele>13.6</ele><time>2022-11-02T13:52:14.0000000+00:00</time></trkpt><trkpt lat="39.48074567" lon="-0.38684369"><ele>13.6</ele><time>2022-11-02T13:52:15.0000000+00:00</time></trkpt><trkpt lat="39.48074986" lon="-0.38683179"><ele>13.6</ele><time>2022-11-02T13:52:16.0000000+00:00</time></trkpt><trkpt lat="39.48075053" lon="-0.38681335"><ele>13.6</ele><time>2022-11-02T13:52:17.0000000+00:00</time></trkpt><trkpt lat="39.48074944" lon="-0.38679432"><ele>13.8</ele><time>2022-11-02T13:52:18.0000000+00:00</time></trkpt><trkpt lat="39.48076378" lon="-0.38678862"><ele>13.8</ele><time>2022-11-02T13:52:19.0000000+00:00</time></trkpt><trkpt lat="39.48077241" lon="-0.38678066"><ele>13.8</ele><time>2022-11-02T13:52:20.0000000+00:00</time></trkpt><trkpt lat="39.48077283" lon="-0.38678066"><ele>14.0</ele><time>2022-11-02T13:52:21.0000000+00:00</time></trkpt><trkpt lat="39.48077585" lon="-0.386768"><ele>14.2</ele><time>2022-11-02T13:52:22.0000000+00:00</time></trkpt><trkpt lat="39.48078188" lon="-0.3867561"><ele>14.2</ele><time>2022-11-02T13:52:23.0000000+00:00</time></trkpt><trkpt lat="39.48078515" lon="-0.38675258"><ele>14.2</ele><time>2022-11-02T13:52:24.0000000+00:00</time></trkpt><trkpt lat="39.48078934" lon="-0.38674051"><ele>14.4</ele><time>2022-11-02T13:52:25.0000000+00:00</time></trkpt><trkpt lat="39.48079286" lon="-0.38674428"><ele>14.4</ele><time>2022-11-02T13:52:26.0000000+00:00</time></trkpt><trkpt lat="39.48079621" lon="-0.3867504"><ele>14.4</ele><time>2022-11-02T13:52:27.0000000+00:00</time></trkpt><trkpt lat="39.48079663" lon="-0.38675476"><ele>14.4</ele><time>2022-11-02T13:52:28.0000000+00:00</time></trkpt><trkpt lat="39.48079571" lon="-0.38675769"><ele>14.4</ele><time>2022-11-02T13:52:29.0000000+00:00</time></trkpt><trkpt lat="39.48079085" lon="-0.38675803"><ele>14.4</ele><time>2022-11-02T13:52:30.0000000+00:00</time></trkpt><trkpt lat="39.48078859" lon="-0.38676423"><ele>14.4</ele><time>2022-11-02T13:52:31.0000000+00:00</time></trkpt><trkpt lat="39.4807844" lon="-0.38676859"><ele>14.4</ele><time>2022-11-02T13:52:32.0000000+00:00</time></trkpt><trkpt lat="39.48077794" lon="-0.38677789"><ele>14.4</ele><time>2022-11-02T13:52:33.0000000+00:00</time></trkpt><trkpt lat="39.48076394" lon="-0.38678074"><ele>14.4</ele><time>2022-11-02T13:52:34.0000000+00:00</time></trkpt><trkpt lat="39.48075187" lon="-0.38676633"><ele>14.4</ele><time>2022-11-02T13:52:35.0000000+00:00</time></trkpt><trkpt lat="39.48074416" lon="-0.38676457"><ele>14.4</ele><time>2022-11-02T13:52:36.0000000+00:00</time></trkpt><trkpt lat="39.48073729" lon="-0.38676348"><ele>14.4</ele><time>2022-11-02T13:52:37.0000000+00:00</time></trkpt><trkpt lat="39.48072824" lon="-0.38676582"><ele>14.4</ele><time>2022-11-02T13:52:38.0000000+00:00</time></trkpt><trkpt lat="39.48071625" lon="-0.38676742"><ele>14.4</ele><time>2022-11-02T13:52:39.0000000+00:00</time></trkpt><trkpt lat="39.48070368" lon="-0.38677856"><ele>14.4</ele><time>2022-11-02T13:52:40.0000000+00:00</time></trkpt><trkpt lat="39.48069186" lon="-0.38678183"><ele>14.4</ele><time>2022-11-02T13:52:41.0000000+00:00</time></trkpt><trkpt lat="39.48068591" lon="-0.38678703"><ele>14.4</ele><time>2022-11-02T13:52:42.0000000+00:00</time></trkpt><trkpt lat="39.48067694" lon="-0.38677513"><ele>14.4</ele><time>2022-11-02T13:52:43.0000000+00:00</time></trkpt><trkpt lat="39.48066554" lon="-0.38677756"><ele>14.4</ele><time>2022-11-02T13:52:44.0000000+00:00</time></trkpt><trkpt lat="39.48066101" lon="-0.38677597"><ele>14.4</ele><time>2022-11-02T13:52:45.0000000+00:00</time></trkpt><trkpt lat="39.48066286" lon="-0.38678317"><ele>14.4</ele><time>2022-11-02T13:52:46.0000000+00:00</time></trkpt><trkpt lat="39.4806352" lon="-0.38680865"><ele>14.4</ele><time>2022-11-02T13:52:49.0000000+00:00</time></trkpt><trkpt lat="39.48062589" lon="-0.38683942"><ele>14.4</ele><time>2022-11-02T13:52:50.0000000+00:00</time></trkpt><trkpt lat="39.48061366" lon="-0.38684512"><ele>14.6</ele><time>2022-11-02T13:52:52.0000000+00:00</time></trkpt><trkpt lat="39.48060779" lon="-0.38684981"><ele>14.4</ele><time>2022-11-02T13:52:53.0000000+00:00</time></trkpt><trkpt lat="39.4806098" lon="-0.38686305"><ele>14.4</ele><time>2022-11-02T13:52:54.0000000+00:00</time></trkpt><trkpt lat="39.48059195" lon="-0.38688107"><ele>14.0</ele><time>2022-11-02T13:52:57.0000000+00:00</time></trkpt><trkpt lat="39.48058524" lon="-0.38688853"><ele>14.0</ele><time>2022-11-02T13:52:58.0000000+00:00</time></trkpt><trkpt lat="39.48058097" lon="-0.38689449"><ele>14.0</ele><time>2022-11-02T13:52:59.0000000+00:00</time></trkpt><trkpt lat="39.48060762" lon="-0.38694453"><ele>14.0</ele><time>2022-11-02T13:53:01.0000000+00:00</time></trkpt><trkpt lat="39.48062765" lon="-0.3869799"><ele>14.0</ele><time>2022-11-02T13:53:02.0000000+00:00</time></trkpt><trkpt lat="39.48061919" lon="-0.38699415"><ele>13.8</ele><time>2022-11-02T13:53:04.0000000+00:00</time></trkpt><trkpt lat="39.48057904" lon="-0.38712004"><ele>13.6</ele><time>2022-11-02T13:53:17.0000000+00:00</time></trkpt><trkpt lat="39.48112789" lon="-0.38760804"><ele>13.6</ele><time>2022-11-02T13:53:18.0000000+00:00</time></trkpt><trkpt lat="39.48159828" lon="-0.38762991"><ele>13.6</ele><time>2022-11-02T13:53:40.0000000+00:00</time></trkpt><trkpt lat="39.48169744" lon="-0.38759337"><ele>13.6</ele><time>2022-11-02T13:53:42.0000000+00:00</time></trkpt><trkpt lat="39.48026304" lon="-0.386408"><ele>13.6</ele><time>2022-11-02T13:53:44.0000000+00:00</time></trkpt><trkpt lat="39.4807973" lon="-0.38632569"><ele>13.6</ele><time>2022-11-02T13:53:45.0000000+00:00</time></trkpt><trkpt lat="39.4807248" lon="-0.38630976"><ele>13.6</ele><time>2022-11-02T13:53:46.0000000+00:00</time></trkpt><trkpt lat="39.48071491" lon="-0.38635737"><ele>13.6</ele><time>2022-11-02T13:53:47.0000000+00:00</time></trkpt><trkpt lat="39.48074534" lon="-0.38643214"><ele>13.8</ele><time>2022-11-02T13:53:48.0000000+00:00</time></trkpt><trkpt lat="39.48076436" lon="-0.38645485"><ele>13.8</ele><time>2022-11-02T13:53:49.0000000+00:00</time></trkpt><trkpt lat="39.48077166" lon="-0.38647648"><ele>13.8</ele><time>2022-11-02T13:53:50.0000000+00:00</time></trkpt><trkpt lat="39.48077333" lon="-0.38648687"><ele>13.6</ele><time>2022-11-02T13:53:51.0000000+00:00</time></trkpt><trkpt lat="39.48077794" lon="-0.38649769"><ele>13.6</ele><time>2022-11-02T13:53:52.0000000+00:00</time></trkpt><trkpt lat="39.48076671" lon="-0.38650665"><ele>13.6</ele><time>2022-11-02T13:53:53.0000000+00:00</time></trkpt><trkpt lat="39.48075305" lon="-0.38652451"><ele>13.6</ele><time>2022-11-02T13:53:54.0000000+00:00</time></trkpt><trkpt lat="39.48074609" lon="-0.38654605"><ele>13.6</ele><time>2022-11-02T13:53:55.0000000+00:00</time></trkpt><trkpt lat="39.48074458" lon="-0.38655192"><ele>13.6</ele><time>2022-11-02T13:53:56.0000000+00:00</time></trkpt><trkpt lat="39.48074257" lon="-0.38656063"><ele>13.6</ele><time>2022-11-02T13:53:57.0000000+00:00</time></trkpt><trkpt lat="39.48072983" lon="-0.38656382"><ele>13.6</ele><time>2022-11-02T13:53:58.0000000+00:00</time></trkpt><trkpt lat="39.480716" lon="-0.38656633"><ele>13.6</ele><time>2022-11-02T13:53:59.0000000+00:00</time></trkpt><trkpt lat="39.48070234" lon="-0.38657296"><ele>13.6</ele><time>2022-11-02T13:54:00.0000000+00:00</time></trkpt><trkpt lat="39.48069102" lon="-0.38657505"><ele>13.6</ele><time>2022-11-02T13:54:01.0000000+00:00</time></trkpt><trkpt lat="39.48068708" lon="-0.38657522"><ele>13.8</ele><time>2022-11-02T13:54:02.0000000+00:00</time></trkpt><trkpt lat="39.48066956" lon="-0.38657916"><ele>13.8</ele><time>2022-11-02T13:54:03.0000000+00:00</time></trkpt><trkpt lat="39.48065858" lon="-0.38657052"><ele>13.8</ele><time>2022-11-02T13:54:04.0000000+00:00</time></trkpt><trkpt lat="39.48064744" lon="-0.38657153"><ele>13.6</ele><time>2022-11-02T13:54:05.0000000+00:00</time></trkpt><trkpt lat="39.48065037" lon="-0.38657916"><ele>13.6</ele><time>2022-11-02T13:54:06.0000000+00:00</time></trkpt><trkpt lat="39.48063453" lon="-0.38657983"><ele>13.6</ele><time>2022-11-02T13:54:07.0000000+00:00</time></trkpt><trkpt lat="39.48063394" lon="-0.38658259"><ele>13.6</ele><time>2022-11-02T13:54:08.0000000+00:00</time></trkpt><trkpt lat="39.48063" lon="-0.38658218"><ele>13.6</ele><time>2022-11-02T13:54:09.0000000+00:00</time></trkpt><trkpt lat="39.48062874" lon="-0.38658544"><ele>13.6</ele><time>2022-11-02T13:54:10.0000000+00:00</time></trkpt><trkpt lat="39.48063168" lon="-0.38658829"><ele>13.4</ele><time>2022-11-02T13:54:11.0000000+00:00</time></trkpt><trkpt lat="39.48063268" lon="-0.38658829"><ele>13.4</ele><time>2022-11-02T13:54:12.0000000+00:00</time></trkpt><trkpt lat="39.48063771" lon="-0.38658821"><ele>13.4</ele><time>2022-11-02T13:54:13.0000000+00:00</time></trkpt><trkpt lat="39.48064559" lon="-0.38659089"><ele>13.4</ele><time>2022-11-02T13:54:14.0000000+00:00</time></trkpt><trkpt lat="39.48064928" lon="-0.38658964"><ele>13.4</ele><time>2022-11-02T13:54:15.0000000+00:00</time></trkpt><trkpt lat="39.48064811" lon="-0.3865857"><ele>13.4</ele><time>2022-11-02T13:54:16.0000000+00:00</time></trkpt><trkpt lat="39.48064819" lon="-0.38658352"><ele>13.2</ele><time>2022-11-02T13:54:17.0000000+00:00</time></trkpt><trkpt lat="39.48064324" lon="-0.38659073"><ele>13.2</ele><time>2022-11-02T13:54:18.0000000+00:00</time></trkpt><trkpt lat="39.4806616" lon="-0.38659106"><ele>13.2</ele><time>2022-11-02T13:54:19.0000000+00:00</time></trkpt><trkpt lat="39.48066269" lon="-0.38658997"><ele>13.2</ele><time>2022-11-02T13:54:20.0000000+00:00</time></trkpt><trkpt lat="39.48065548" lon="-0.38658503"><ele>13.2</ele><time>2022-11-02T13:54:21.0000000+00:00</time></trkpt><trkpt lat="39.48066043" lon="-0.38658117"><ele>13.2</ele><time>2022-11-02T13:54:22.0000000+00:00</time></trkpt><trkpt lat="39.48066152" lon="-0.38657329"><ele>13.2</ele><time>2022-11-02T13:54:23.0000000+00:00</time></trkpt><trkpt lat="39.48066319" lon="-0.38657287"><ele>13.4</ele><time>2022-11-02T13:54:24.0000000+00:00</time></trkpt><trkpt lat="39.48065884" lon="-0.38657782"><ele>13.6</ele><time>2022-11-02T13:54:25.0000000+00:00</time></trkpt><trkpt lat="39.48065397" lon="-0.38658276"><ele>13.6</ele><time>2022-11-02T13:54:26.0000000+00:00</time></trkpt><trkpt lat="39.48064718" lon="-0.3865862"><ele>13.8</ele><time>2022-11-02T13:54:27.0000000+00:00</time></trkpt><trkpt lat="39.48065003" lon="-0.38659341"><ele>14.0</ele><time>2022-11-02T13:54:28.0000000+00:00</time></trkpt><trkpt lat="39.48064953" lon="-0.38659358"><ele>14.0</ele><time>2022-11-02T13:54:29.0000000+00:00</time></trkpt><trkpt lat="39.48065054" lon="-0.38659466"><ele>14.2</ele><time>2022-11-02T13:54:30.0000000+00:00</time></trkpt><trkpt lat="39.48064626" lon="-0.38659777"><ele>14.0</ele><time>2022-11-02T13:54:31.0000000+00:00</time></trkpt><trkpt lat="39.48064911" lon="-0.38659542"><ele>13.8</ele><time>2022-11-02T13:54:32.0000000+00:00</time></trkpt><trkpt lat="39.48065423" lon="-0.38658544"><ele>13.6</ele><time>2022-11-02T13:54:33.0000000+00:00</time></trkpt><trkpt lat="39.48065649" lon="-0.38657949"><ele>13.4</ele><time>2022-11-02T13:54:34.0000000+00:00</time></trkpt><trkpt lat="39.48065674" lon="-0.38658276"><ele>13.4</ele><time>2022-11-02T13:54:35.0000000+00:00</time></trkpt><trkpt lat="39.48065674" lon="-0.38658394"><ele>13.4</ele><time>2022-11-02T13:54:36.0000000+00:00</time></trkpt><trkpt lat="39.48065456" lon="-0.38658151"><ele>13.4</ele><time>2022-11-02T13:54:37.0000000+00:00</time></trkpt><trkpt lat="39.48065096" lon="-0.38657304"><ele>13.4</ele><time>2022-11-02T13:54:38.0000000+00:00</time></trkpt><trkpt lat="39.48064534" lon="-0.38657128"><ele>13.4</ele><time>2022-11-02T13:54:39.0000000+00:00</time></trkpt><trkpt lat="39.48063755" lon="-0.38657438"><ele>13.4</ele><time>2022-11-02T13:54:40.0000000+00:00</time></trkpt><trkpt lat="39.48063646" lon="-0.38657472"><ele>13.4</ele><time>2022-11-02T13:54:41.0000000+00:00</time></trkpt><trkpt lat="39.48063805" lon="-0.3865753"><ele>13.8</ele><time>2022-11-02T13:54:42.0000000+00:00</time></trkpt><trkpt lat="39.48064224" lon="-0.38658762"><ele>14.0</ele><time>2022-11-02T13:54:43.0000000+00:00</time></trkpt><trkpt lat="39.48064324" lon="-0.38658595"><ele>14.0</ele><time>2022-11-02T13:54:44.0000000+00:00</time></trkpt><trkpt lat="39.4806331" lon="-0.38659282"><ele>14.2</ele><time>2022-11-02T13:54:45.0000000+00:00</time></trkpt><trkpt lat="39.4806326" lon="-0.38659751"><ele>14.2</ele><time>2022-11-02T13:54:46.0000000+00:00</time></trkpt><trkpt lat="39.48063704" lon="-0.38660699"><ele>14.2</ele><time>2022-11-02T13:54:47.0000000+00:00</time></trkpt><trkpt lat="39.48064366" lon="-0.38660958"><ele>14.2</ele><time>2022-11-02T13:54:48.0000000+00:00</time></trkpt><trkpt lat="39.48064216" lon="-0.38661629"><ele>14.2</ele><time>2022-11-02T13:54:49.0000000+00:00</time></trkpt><trkpt lat="39.48063386" lon="-0.38662517"><ele>14.2</ele><time>2022-11-02T13:54:50.0000000+00:00</time></trkpt><trkpt lat="39.48063394" lon="-0.3866261"><ele>14.2</ele><time>2022-11-02T13:54:51.0000000+00:00</time></trkpt><trkpt lat="39.48063101" lon="-0.38662744"><ele>14.2</ele><time>2022-11-02T13:54:52.0000000+00:00</time></trkpt><trkpt lat="39.48062179" lon="-0.38663314"><ele>14.2</ele><time>2022-11-02T13:54:53.0000000+00:00</time></trkpt><trkpt lat="39.48061793" lon="-0.38663758"><ele>14.2</ele><time>2022-11-02T13:54:54.0000000+00:00</time></trkpt><trkpt lat="39.48061366" lon="-0.38664077"><ele>14.2</ele><time>2022-11-02T13:54:55.0000000+00:00</time></trkpt><trkpt lat="39.48060569" lon="-0.38663892"><ele>14.2</ele><time>2022-11-02T13:54:56.0000000+00:00</time></trkpt><trkpt lat="39.48059756" lon="-0.38662895"><ele>14.2</ele><time>2022-11-02T13:54:57.0000000+00:00</time></trkpt><trkpt lat="39.48058524" lon="-0.3866152"><ele>14.0</ele><time>2022-11-02T13:54:58.0000000+00:00</time></trkpt><trkpt lat="39.48056881" lon="-0.38660246"><ele>14.0</ele><time>2022-11-02T13:54:59.0000000+00:00</time></trkpt><trkpt lat="39.48055943" lon="-0.38659223"><ele>14.0</ele><time>2022-11-02T13:55:00.0000000+00:00</time></trkpt><trkpt lat="39.48055482" lon="-0.38658226"><ele>14.0</ele><time>2022-11-02T13:55:01.0000000+00:00</time></trkpt><trkpt lat="39.48055004" lon="-0.38657639"><ele>14.0</ele><time>2022-11-02T13:55:02.0000000+00:00</time></trkpt><trkpt lat="39.48054291" lon="-0.38657203"><ele>13.8</ele><time>2022-11-02T13:55:03.0000000+00:00</time></trkpt><trkpt lat="39.48053612" lon="-0.38656122"><ele>13.8</ele><time>2022-11-02T13:55:04.0000000+00:00</time></trkpt><trkpt lat="39.48052757" lon="-0.38655527"><ele>13.8</ele><time>2022-11-02T13:55:05.0000000+00:00</time></trkpt><trkpt lat="39.48051944" lon="-0.38655493"><ele>13.8</ele><time>2022-11-02T13:55:06.0000000+00:00</time></trkpt><trkpt lat="39.48051492" lon="-0.38655569"><ele>13.8</ele><time>2022-11-02T13:55:07.0000000+00:00</time></trkpt><trkpt lat="39.480514" lon="-0.38655544"><ele>13.8</ele><time>2022-11-02T13:55:08.0000000+00:00</time></trkpt><trkpt lat="39.48050595" lon="-0.38655426"><ele>13.8</ele><time>2022-11-02T13:55:09.0000000+00:00</time></trkpt><trkpt lat="39.48049606" lon="-0.38654722"><ele>13.8</ele><time>2022-11-02T13:55:10.0000000+00:00</time></trkpt><trkpt lat="39.48048399" lon="-0.38654806"><ele>13.8</ele><time>2022-11-02T13:55:11.0000000+00:00</time></trkpt><trkpt lat="39.48046798" lon="-0.38654798"><ele>13.8</ele><time>2022-11-02T13:55:12.0000000+00:00</time></trkpt><trkpt lat="39.48045432" lon="-0.38655493"><ele>13.8</ele><time>2022-11-02T13:55:13.0000000+00:00</time></trkpt><trkpt lat="39.48044091" lon="-0.38656139"><ele>13.8</ele><time>2022-11-02T13:55:14.0000000+00:00</time></trkpt><trkpt lat="39.48042699" lon="-0.38657815"><ele>13.8</ele><time>2022-11-02T13:55:15.0000000+00:00</time></trkpt><trkpt lat="39.48041442" lon="-0.38659492"><ele>13.8</ele><time>2022-11-02T13:55:16.0000000+00:00</time></trkpt><trkpt lat="39.48039933" lon="-0.38660707"><ele>14.0</ele><time>2022-11-02T13:55:17.0000000+00:00</time></trkpt><trkpt lat="39.48038424" lon="-0.38661545"><ele>14.0</ele><time>2022-11-02T13:55:18.0000000+00:00</time></trkpt><trkpt lat="39.4803715" lon="-0.38661822"><ele>14.0</ele><time>2022-11-02T13:55:19.0000000+00:00</time></trkpt><trkpt lat="39.48036279" lon="-0.38662266"><ele>14.0</ele><time>2022-11-02T13:55:20.0000000+00:00</time></trkpt><trkpt lat="39.48035474" lon="-0.3866235"><ele>14.0</ele><time>2022-11-02T13:55:21.0000000+00:00</time></trkpt><trkpt lat="39.48034753" lon="-0.38662911"><ele>14.0</ele><time>2022-11-02T13:55:22.0000000+00:00</time></trkpt><trkpt lat="39.48033873" lon="-0.38663976"><ele>14.0</ele><time>2022-11-02T13:55:23.0000000+00:00</time></trkpt><trkpt lat="39.48033387" lon="-0.38665619"><ele>14.0</ele><time>2022-11-02T13:55:24.0000000+00:00</time></trkpt><trkpt lat="39.48032691" lon="-0.38667488"><ele>13.8</ele><time>2022-11-02T13:55:25.0000000+00:00</time></trkpt><trkpt lat="39.48032029" lon="-0.38669399"><ele>13.8</ele><time>2022-11-02T13:55:26.0000000+00:00</time></trkpt><trkpt lat="39.48031149" lon="-0.38671101"><ele>13.8</ele><time>2022-11-02T13:55:27.0000000+00:00</time></trkpt><trkpt lat="39.4803042" lon="-0.38671997"><ele>13.6</ele><time>2022-11-02T13:55:28.0000000+00:00</time></trkpt><trkpt lat="39.48029758" lon="-0.38673154"><ele>13.6</ele><time>2022-11-02T13:55:29.0000000+00:00</time></trkpt><trkpt lat="39.48028986" lon="-0.38674562"><ele>13.6</ele><time>2022-11-02T13:55:30.0000000+00:00</time></trkpt><trkpt lat="39.48028425" lon="-0.38676281"><ele>13.6</ele><time>2022-11-02T13:55:31.0000000+00:00</time></trkpt><trkpt lat="39.48027696" lon="-0.38677806"><ele>13.6</ele><time>2022-11-02T13:55:32.0000000+00:00</time></trkpt><trkpt lat="39.48027109" lon="-0.38679147"><ele>13.8</ele><time>2022-11-02T13:55:33.0000000+00:00</time></trkpt><trkpt lat="39.4802648" lon="-0.38680505"><ele>13.8</ele><time>2022-11-02T13:55:34.0000000+00:00</time></trkpt><trkpt lat="39.48025508" lon="-0.38681083"><ele>13.8</ele><time>2022-11-02T13:55:35.0000000+00:00</time></trkpt><trkpt lat="39.48024829" lon="-0.38681058"><ele>13.8</ele><time>2022-11-02T13:55:36.0000000+00:00</time></trkpt><trkpt lat="39.48024636" lon="-0.38680002"><ele>13.8</ele><time>2022-11-02T13:55:37.0000000+00:00</time></trkpt><trkpt lat="39.48024963" lon="-0.38678024"><ele>14.0</ele><time>2022-11-02T13:55:38.0000000+00:00</time></trkpt><trkpt lat="39.48026103" lon="-0.38676624"><ele>14.0</ele><time>2022-11-02T13:55:39.0000000+00:00</time></trkpt><trkpt lat="39.48027453" lon="-0.38675702"><ele>13.8</ele><time>2022-11-02T13:55:40.0000000+00:00</time></trkpt><trkpt lat="39.48027805" lon="-0.3867468"><ele>13.8</ele><time>2022-11-02T13:55:41.0000000+00:00</time></trkpt><trkpt lat="39.48028282" lon="-0.38673892"><ele>13.8</ele><time>2022-11-02T13:55:42.0000000+00:00</time></trkpt><trkpt lat="39.48029028" lon="-0.38673087"><ele>13.6</ele><time>2022-11-02T13:55:43.0000000+00:00</time></trkpt><trkpt lat="39.48029883" lon="-0.38672006"><ele>13.4</ele><time>2022-11-02T13:55:44.0000000+00:00</time></trkpt><trkpt lat="39.48030227" lon="-0.38670992"><ele>13.2</ele><time>2022-11-02T13:55:45.0000000+00:00</time></trkpt><trkpt lat="39.48030369" lon="-0.386696"><ele>13.2</ele><time>2022-11-02T13:55:46.0000000+00:00</time></trkpt><trkpt lat="39.48030168" lon="-0.38668276"><ele>13.0</ele><time>2022-11-02T13:55:47.0000000+00:00</time></trkpt><trkpt lat="39.48030378" lon="-0.38666583"><ele>12.8</ele><time>2022-11-02T13:55:48.0000000+00:00</time></trkpt><trkpt lat="39.48030671" lon="-0.38665057"><ele>12.8</ele><time>2022-11-02T13:55:49.0000000+00:00</time></trkpt><trkpt lat="39.4803109" lon="-0.38663825"><ele>12.8</ele><time>2022-11-02T13:55:50.0000000+00:00</time></trkpt><trkpt lat="39.48031669" lon="-0.38663071"><ele>12.6</ele><time>2022-11-02T13:55:51.0000000+00:00</time></trkpt><trkpt lat="39.48032691" lon="-0.38662073"><ele>12.6</ele><time>2022-11-02T13:55:52.0000000+00:00</time></trkpt><trkpt lat="39.48033303" lon="-0.38661118"><ele>12.6</ele><time>2022-11-02T13:55:53.0000000+00:00</time></trkpt><trkpt lat="39.48033974" lon="-0.38660573"><ele>12.4</ele><time>2022-11-02T13:55:54.0000000+00:00</time></trkpt><trkpt lat="39.48034342" lon="-0.38659399"><ele>12.2</ele><time>2022-11-02T13:55:55.0000000+00:00</time></trkpt><trkpt lat="39.48034795" lon="-0.38657363"><ele>12.2</ele><time>2022-11-02T13:55:56.0000000+00:00</time></trkpt><trkpt lat="39.48035256" lon="-0.38655024"><ele>12.0</ele><time>2022-11-02T13:55:57.0000000+00:00</time></trkpt><trkpt lat="39.48035281" lon="-0.38652912"><ele>12.0</ele><time>2022-11-02T13:55:58.0000000+00:00</time></trkpt><trkpt lat="39.48035709" lon="-0.38651126"><ele>11.8</ele><time>2022-11-02T13:55:59.0000000+00:00</time></trkpt><trkpt lat="39.48036304" lon="-0.38650045"><ele>11.6</ele><time>2022-11-02T13:56:00.0000000+00:00</time></trkpt><trkpt lat="39.48036647" lon="-0.38649282"><ele>11.2</ele><time>2022-11-02T13:56:01.0000000+00:00</time></trkpt><trkpt lat="39.4803679" lon="-0.38648319"><ele>11.0</ele><time>2022-11-02T13:56:02.0000000+00:00</time></trkpt><trkpt lat="39.48037385" lon="-0.38646583"><ele>10.8</ele><time>2022-11-02T13:56:03.0000000+00:00</time></trkpt><trkpt lat="39.48038022" lon="-0.38644505"><ele>10.8</ele><time>2022-11-02T13:56:04.0000000+00:00</time></trkpt><trkpt lat="39.4803798" lon="-0.3864303"><ele>10.6</ele><time>2022-11-02T13:56:05.0000000+00:00</time></trkpt><trkpt lat="39.48037108" lon="-0.38642007"><ele>10.4</ele><time>2022-11-02T13:56:06.0000000+00:00</time></trkpt><trkpt lat="39.48035893" lon="-0.38641596"><ele>10.2</ele><time>2022-11-02T13:56:07.0000000+00:00</time></trkpt><trkpt lat="39.48034963" lon="-0.38641227"><ele>10.0</ele><time>2022-11-02T13:56:08.0000000+00:00</time></trkpt><trkpt lat="39.4803384" lon="-0.38641437"><ele>10.0</ele><time>2022-11-02T13:56:09.0000000+00:00</time></trkpt><trkpt lat="39.48032406" lon="-0.38642141"><ele>10.0</ele><time>2022-11-02T13:56:10.0000000+00:00</time></trkpt><trkpt lat="39.4803104" lon="-0.38642828"><ele>9.8</ele><time>2022-11-02T13:56:11.0000000+00:00</time></trkpt><trkpt lat="39.4803011" lon="-0.38643474"><ele>9.8</ele><time>2022-11-02T13:56:12.0000000+00:00</time></trkpt><trkpt lat="39.48029297" lon="-0.3864427"><ele>9.8</ele><time>2022-11-02T13:56:13.0000000+00:00</time></trkpt><trkpt lat="39.48028383" lon="-0.38645326"><ele>9.8</ele><time>2022-11-02T13:56:14.0000000+00:00</time></trkpt><trkpt lat="39.48027302" lon="-0.38646919"><ele>9.8</ele><time>2022-11-02T13:56:15.0000000+00:00</time></trkpt><trkpt lat="39.48026547" lon="-0.38648184"><ele>9.8</ele><time>2022-11-02T13:56:16.0000000+00:00</time></trkpt><trkpt lat="39.48025751" lon="-0.38649769"><ele>9.8</ele><time>2022-11-02T13:56:17.0000000+00:00</time></trkpt><trkpt lat="39.48025106" lon="-0.38651143"><ele>9.8</ele><time>2022-11-02T13:56:18.0000000+00:00</time></trkpt><trkpt lat="39.48024301" lon="-0.38652166"><ele>9.8</ele><time>2022-11-02T13:56:19.0000000+00:00</time></trkpt><trkpt lat="39.4802327" lon="-0.38653557"><ele>9.8</ele><time>2022-11-02T13:56:20.0000000+00:00</time></trkpt><trkpt lat="39.48021929" lon="-0.38655167"><ele>9.8</ele><time>2022-11-02T13:56:21.0000000+00:00</time></trkpt><trkpt lat="39.48021082" lon="-0.38656508"><ele>9.8</ele><time>2022-11-02T13:56:22.0000000+00:00</time></trkpt><trkpt lat="39.48020185" lon="-0.38657656"><ele>9.8</ele><time>2022-11-02T13:56:23.0000000+00:00</time></trkpt><trkpt lat="39.48019397" lon="-0.3865831"><ele>9.8</ele><time>2022-11-02T13:56:24.0000000+00:00</time></trkpt><trkpt lat="39.48018517" lon="-0.38658829"><ele>9.8</ele><time>2022-11-02T13:56:25.0000000+00:00</time></trkpt><trkpt lat="39.48017168" lon="-0.38658838"><ele>9.8</ele><time>2022-11-02T13:56:26.0000000+00:00</time></trkpt><trkpt lat="39.48015961" lon="-0.38658612"><ele>9.8</ele><time>2022-11-02T13:56:27.0000000+00:00</time></trkpt><trkpt lat="39.48014947" lon="-0.38658436"><ele>9.8</ele><time>2022-11-02T13:56:28.0000000+00:00</time></trkpt><trkpt lat="39.48013614" lon="-0.38658025"><ele>9.8</ele><time>2022-11-02T13:56:29.0000000+00:00</time></trkpt><trkpt lat="39.48012197" lon="-0.3865712"><ele>9.8</ele><time>2022-11-02T13:56:30.0000000+00:00</time></trkpt><trkpt lat="39.48010932" lon="-0.38656307"><ele>9.8</ele><time>2022-11-02T13:56:31.0000000+00:00</time></trkpt><trkpt lat="39.48009783" lon="-0.38655644"><ele>10.0</ele><time>2022-11-02T13:56:32.0000000+00:00</time></trkpt><trkpt lat="39.48008702" lon="-0.38655091"><ele>10.0</ele><time>2022-11-02T13:56:33.0000000+00:00</time></trkpt><trkpt lat="39.48007587" lon="-0.38653708"><ele>9.8</ele><time>2022-11-02T13:56:34.0000000+00:00</time></trkpt><trkpt lat="39.48006523" lon="-0.3865251"><ele>9.8</ele><time>2022-11-02T13:56:35.0000000+00:00</time></trkpt><trkpt lat="39.48005442" lon="-0.38651722"><ele>9.8</ele><time>2022-11-02T13:56:36.0000000+00:00</time></trkpt><trkpt lat="39.48004352" lon="-0.38650657"><ele>9.8</ele><time>2022-11-02T13:56:37.0000000+00:00</time></trkpt><trkpt lat="39.4800286" lon="-0.38649383"><ele>9.8</ele><time>2022-11-02T13:56:38.0000000+00:00</time></trkpt><trkpt lat="39.48001326" lon="-0.38648394"><ele>10.0</ele><time>2022-11-02T13:56:39.0000000+00:00</time></trkpt><trkpt lat="39.48000002" lon="-0.38647522"><ele>10.0</ele><time>2022-11-02T13:56:40.0000000+00:00</time></trkpt><trkpt lat="39.47998862" lon="-0.38647187"><ele>10.0</ele><time>2022-11-02T13:56:41.0000000+00:00</time></trkpt><trkpt lat="39.47997931" lon="-0.38646156"><ele>10.0</ele><time>2022-11-02T13:56:42.0000000+00:00</time></trkpt><trkpt lat="39.47997596" lon="-0.38646014"><ele>10.0</ele><time>2022-11-02T13:56:43.0000000+00:00</time></trkpt><trkpt lat="39.47996808" lon="-0.38645687"><ele>10.0</ele><time>2022-11-02T13:56:44.0000000+00:00</time></trkpt><trkpt lat="39.47995635" lon="-0.38645502"><ele>9.8</ele><time>2022-11-02T13:56:45.0000000+00:00</time></trkpt><trkpt lat="39.47994269" lon="-0.38645452"><ele>9.8</ele><time>2022-11-02T13:56:46.0000000+00:00</time></trkpt><trkpt lat="39.47992936" lon="-0.38645444"><ele>9.8</ele><time>2022-11-02T13:56:47.0000000+00:00</time></trkpt><trkpt lat="39.47991754" lon="-0.38645578"><ele>9.8</ele><time>2022-11-02T13:56:48.0000000+00:00</time></trkpt><trkpt lat="39.47990329" lon="-0.3864603"><ele>9.8</ele><time>2022-11-02T13:56:49.0000000+00:00</time></trkpt><trkpt lat="39.47989122" lon="-0.38646248"><ele>9.6</ele><time>2022-11-02T13:56:50.0000000+00:00</time></trkpt><trkpt lat="39.47987781" lon="-0.3864603"><ele>9.6</ele><time>2022-11-02T13:56:51.0000000+00:00</time></trkpt><trkpt lat="39.47986675" lon="-0.38646734"><ele>9.6</ele><time>2022-11-02T13:56:52.0000000+00:00</time></trkpt><trkpt lat="39.47986121" lon="-0.38647891"><ele>9.6</ele><time>2022-11-02T13:56:53.0000000+00:00</time></trkpt><trkpt lat="39.47985744" lon="-0.3864852"><ele>9.6</ele><time>2022-11-02T13:56:54.0000000+00:00</time></trkpt><trkpt lat="39.47985275" lon="-0.3864878"><ele>9.6</ele><time>2022-11-02T13:56:55.0000000+00:00</time></trkpt><trkpt lat="39.47984671" lon="-0.38649869"><ele>9.6</ele><time>2022-11-02T13:56:56.0000000+00:00</time></trkpt><trkpt lat="39.47983791" lon="-0.38651395"><ele>9.6</ele><time>2022-11-02T13:56:57.0000000+00:00</time></trkpt><trkpt lat="39.47982903" lon="-0.38652669"><ele>9.6</ele><time>2022-11-02T13:56:58.0000000+00:00</time></trkpt><trkpt lat="39.47982484" lon="-0.38654186"><ele>9.6</ele><time>2022-11-02T13:56:59.0000000+00:00</time></trkpt><trkpt lat="39.47981595" lon="-0.38655418"><ele>9.6</ele><time>2022-11-02T13:57:00.0000000+00:00</time></trkpt><trkpt lat="39.47980975" lon="-0.38656357"><ele>9.6</ele><time>2022-11-02T13:57:01.0000000+00:00</time></trkpt><trkpt lat="39.47980128" lon="-0.38656793"><ele>9.6</ele><time>2022-11-02T13:57:02.0000000+00:00</time></trkpt><trkpt lat="39.47979198" lon="-0.38657522"><ele>9.6</ele><time>2022-11-02T13:57:03.0000000+00:00</time></trkpt><trkpt lat="39.47978091" lon="-0.38658352"><ele>9.6</ele><time>2022-11-02T13:57:04.0000000+00:00</time></trkpt><trkpt lat="39.47977061" lon="-0.38659466"><ele>9.6</ele><time>2022-11-02T13:57:05.0000000+00:00</time></trkpt><trkpt lat="39.47976113" lon="-0.38660288"><ele>9.6</ele><time>2022-11-02T13:57:06.0000000+00:00</time></trkpt><trkpt lat="39.47975317" lon="-0.38660724"><ele>9.6</ele><time>2022-11-02T13:57:07.0000000+00:00</time></trkpt><trkpt lat="39.47974579" lon="-0.38660849"><ele>9.6</ele><time>2022-11-02T13:57:08.0000000+00:00</time></trkpt><trkpt lat="39.47973356" lon="-0.38661956"><ele>9.8</ele><time>2022-11-02T13:57:09.0000000+00:00</time></trkpt><trkpt lat="39.47972576" lon="-0.38663305"><ele>9.8</ele><time>2022-11-02T13:57:10.0000000+00:00</time></trkpt><trkpt lat="39.47972802" lon="-0.38664236"><ele>9.8</ele><time>2022-11-02T13:57:11.0000000+00:00</time></trkpt><trkpt lat="39.47972526" lon="-0.38665233"><ele>9.8</ele><time>2022-11-02T13:57:12.0000000+00:00</time></trkpt><trkpt lat="39.47972668" lon="-0.38665753"><ele>9.8</ele><time>2022-11-02T13:57:13.0000000+00:00</time></trkpt><trkpt lat="39.47971721" lon="-0.38666776"><ele>9.8</ele><time>2022-11-02T13:57:14.0000000+00:00</time></trkpt><trkpt lat="39.47969894" lon="-0.3866789"><ele>9.8</ele><time>2022-11-02T13:57:15.0000000+00:00</time></trkpt><trkpt lat="39.47968083" lon="-0.38668863"><ele>10.0</ele><time>2022-11-02T13:57:16.0000000+00:00</time></trkpt><trkpt lat="39.47968142" lon="-0.38670673"><ele>10.0</ele><time>2022-11-02T13:57:17.0000000+00:00</time></trkpt><trkpt lat="39.47967757" lon="-0.38672517"><ele>10.0</ele><time>2022-11-02T13:57:18.0000000+00:00</time></trkpt><trkpt lat="39.47967388" lon="-0.38673867"><ele>10.0</ele><time>2022-11-02T13:57:19.0000000+00:00</time></trkpt><trkpt lat="39.47967069" lon="-0.38674831"><ele>9.8</ele><time>2022-11-02T13:57:20.0000000+00:00</time></trkpt><trkpt lat="39.47966172" lon="-0.38675417"><ele>9.8</ele><time>2022-11-02T13:57:21.0000000+00:00</time></trkpt><trkpt lat="39.47965468" lon="-0.38675426"><ele>9.8</ele><time>2022-11-02T13:57:22.0000000+00:00</time></trkpt><trkpt lat="39.47964588" lon="-0.38675602"><ele>9.8</ele><time>2022-11-02T13:57:23.0000000+00:00</time></trkpt><trkpt lat="39.47963532" lon="-0.38676222"><ele>9.8</ele><time>2022-11-02T13:57:24.0000000+00:00</time></trkpt><trkpt lat="39.47962166" lon="-0.38676851"><ele>9.8</ele><time>2022-11-02T13:57:25.0000000+00:00</time></trkpt><trkpt lat="39.47960967" lon="-0.38677622"><ele>9.8</ele><time>2022-11-02T13:57:26.0000000+00:00</time></trkpt><trkpt lat="39.47959785" lon="-0.38677982"><ele>9.8</ele><time>2022-11-02T13:57:27.0000000+00:00</time></trkpt><trkpt lat="39.47958662" lon="-0.38678401"><ele>10.0</ele><time>2022-11-02T13:57:28.0000000+00:00</time></trkpt><trkpt lat="39.47957413" lon="-0.38678644"><ele>10.0</ele><time>2022-11-02T13:57:29.0000000+00:00</time></trkpt><trkpt lat="39.47956332" lon="-0.38678544"><ele>10.0</ele><time>2022-11-02T13:57:30.0000000+00:00</time></trkpt><trkpt lat="39.47955377" lon="-0.38678393"><ele>10.0</ele><time>2022-11-02T13:57:31.0000000+00:00</time></trkpt><trkpt lat="39.47954488" lon="-0.38678468"><ele>10.0</ele><time>2022-11-02T13:57:32.0000000+00:00</time></trkpt><trkpt lat="39.47953457" lon="-0.38678602"><ele>10.0</ele><time>2022-11-02T13:57:33.0000000+00:00</time></trkpt><trkpt lat="39.47952099" lon="-0.38678284"><ele>10.0</ele><time>2022-11-02T13:57:34.0000000+00:00</time></trkpt><trkpt lat="39.47950515" lon="-0.38677747"><ele>10.0</ele><time>2022-11-02T13:57:35.0000000+00:00</time></trkpt><trkpt lat="39.47949367" lon="-0.38676901"><ele>10.0</ele><time>2022-11-02T13:57:36.0000000+00:00</time></trkpt><trkpt lat="39.47947967" lon="-0.38676482"><ele>10.0</ele><time>2022-11-02T13:57:37.0000000+00:00</time></trkpt><trkpt lat="39.47946693" lon="-0.38676356"><ele>9.8</ele><time>2022-11-02T13:57:38.0000000+00:00</time></trkpt><trkpt lat="39.47945461" lon="-0.38676281"><ele>9.8</ele><time>2022-11-02T13:57:39.0000000+00:00</time></trkpt><trkpt lat="39.47944606" lon="-0.38676063"><ele>9.8</ele><time>2022-11-02T13:57:40.0000000+00:00</time></trkpt><trkpt lat="39.47943717" lon="-0.3867556"><ele>9.6</ele><time>2022-11-02T13:57:41.0000000+00:00</time></trkpt><trkpt lat="39.47942636" lon="-0.38674654"><ele>9.6</ele><time>2022-11-02T13:57:42.0000000+00:00</time></trkpt><trkpt lat="39.47941161" lon="-0.3867411"><ele>9.6</ele><time>2022-11-02T13:57:43.0000000+00:00</time></trkpt><trkpt lat="39.47939719" lon="-0.3867354"><ele>9.6</ele><time>2022-11-02T13:57:44.0000000+00:00</time></trkpt><trkpt lat="39.47938722" lon="-0.38672945"><ele>9.6</ele><time>2022-11-02T13:57:45.0000000+00:00</time></trkpt><trkpt lat="39.47937456" lon="-0.38672961"><ele>9.6</ele><time>2022-11-02T13:57:46.0000000+00:00</time></trkpt><trkpt lat="39.47936827" lon="-0.38673112"><ele>9.8</ele><time>2022-11-02T13:57:47.0000000+00:00</time></trkpt><trkpt lat="39.47935428" lon="-0.38673288"><ele>9.8</ele><time>2022-11-02T13:57:48.0000000+00:00</time></trkpt><trkpt lat="39.47934313" lon="-0.38672467"><ele>9.8</ele><time>2022-11-02T13:57:49.0000000+00:00</time></trkpt><trkpt lat="39.47933332" lon="-0.38672324"><ele>9.8</ele><time>2022-11-02T13:57:50.0000000+00:00</time></trkpt><trkpt lat="39.47932527" lon="-0.38672936"><ele>9.8</ele><time>2022-11-02T13:57:51.0000000+00:00</time></trkpt><trkpt lat="39.47931974" lon="-0.38673339"><ele>9.8</ele><time>2022-11-02T13:57:52.0000000+00:00</time></trkpt><trkpt lat="39.47931388" lon="-0.38673263"><ele>9.8</ele><time>2022-11-02T13:57:53.0000000+00:00</time></trkpt><trkpt lat="39.47930574" lon="-0.38673473"><ele>9.8</ele><time>2022-11-02T13:57:54.0000000+00:00</time></trkpt><trkpt lat="39.47930189" lon="-0.38673213"><ele>10.0</ele><time>2022-11-02T13:57:55.0000000+00:00</time></trkpt><trkpt lat="39.47930055" lon="-0.38673146"><ele>9.8</ele><time>2022-11-02T13:57:56.0000000+00:00</time></trkpt><trkpt lat="39.47930055" lon="-0.38673129"><ele>9.8</ele><time>2022-11-02T13:57:57.0000000+00:00</time></trkpt><trkpt lat="39.47930113" lon="-0.38673154"><ele>9.8</ele><time>2022-11-02T13:57:58.0000000+00:00</time></trkpt><trkpt lat="39.47930164" lon="-0.38672861"><ele>9.8</ele><time>2022-11-02T13:57:59.0000000+00:00</time></trkpt><trkpt lat="39.47930088" lon="-0.38672324"><ele>9.8</ele><time>2022-11-02T13:58:00.0000000+00:00</time></trkpt><trkpt lat="39.47930826" lon="-0.38673079"><ele>9.8</ele><time>2022-11-02T13:58:01.0000000+00:00</time></trkpt><trkpt lat="39.47929787" lon="-0.38673129"><ele>9.8</ele><time>2022-11-02T13:58:02.0000000+00:00</time></trkpt><trkpt lat="39.4792858" lon="-0.38673632"><ele>9.8</ele><time>2022-11-02T13:58:03.0000000+00:00</time></trkpt><trkpt lat="39.47927624" lon="-0.38674688"><ele>9.8</ele><time>2022-11-02T13:58:04.0000000+00:00</time></trkpt><trkpt lat="39.47926509" lon="-0.38675644"><ele>9.8</ele><time>2022-11-02T13:58:05.0000000+00:00</time></trkpt><trkpt lat="39.47925822" lon="-0.38676448"><ele>9.8</ele><time>2022-11-02T13:58:06.0000000+00:00</time></trkpt><trkpt lat="39.47924397" lon="-0.38676658"><ele>9.8</ele><time>2022-11-02T13:58:07.0000000+00:00</time></trkpt><trkpt lat="39.479234" lon="-0.38676708"><ele>9.6</ele><time>2022-11-02T13:58:08.0000000+00:00</time></trkpt><trkpt lat="39.47922343" lon="-0.38676742"><ele>9.6</ele><time>2022-11-02T13:58:09.0000000+00:00</time></trkpt><trkpt lat="39.47920919" lon="-0.38676834"><ele>9.6</ele><time>2022-11-02T13:58:10.0000000+00:00</time></trkpt><trkpt lat="39.47919066" lon="-0.38676775"><ele>9.6</ele><time>2022-11-02T13:58:11.0000000+00:00</time></trkpt><trkpt lat="39.47917482" lon="-0.3867675"><ele>9.6</ele><time>2022-11-02T13:58:12.0000000+00:00</time></trkpt><trkpt lat="39.47916526" lon="-0.38676675"><ele>9.6</ele><time>2022-11-02T13:58:13.0000000+00:00</time></trkpt><trkpt lat="39.47915806" lon="-0.38676691"><ele>9.6</ele><time>2022-11-02T13:58:14.0000000+00:00</time></trkpt><trkpt lat="39.47915613" lon="-0.38677261"><ele>9.6</ele><time>2022-11-02T13:58:15.0000000+00:00</time></trkpt><trkpt lat="39.47915479" lon="-0.38677856"><ele>9.8</ele><time>2022-11-02T13:58:16.0000000+00:00</time></trkpt><trkpt lat="39.47915018" lon="-0.38678552"><ele>9.8</ele><time>2022-11-02T13:58:17.0000000+00:00</time></trkpt><trkpt lat="39.47914339" lon="-0.38679265"><ele>9.8</ele><time>2022-11-02T13:58:18.0000000+00:00</time></trkpt><trkpt lat="39.47913383" lon="-0.38680019"><ele>9.8</ele><time>2022-11-02T13:58:19.0000000+00:00</time></trkpt><trkpt lat="39.47911782" lon="-0.38680849"><ele>9.8</ele><time>2022-11-02T13:58:20.0000000+00:00</time></trkpt><trkpt lat="39.47910022" lon="-0.3868172"><ele>10.0</ele><time>2022-11-02T13:58:21.0000000+00:00</time></trkpt><trkpt lat="39.47908505" lon="-0.38682542"><ele>10.0</ele><time>2022-11-02T13:58:22.0000000+00:00</time></trkpt><trkpt lat="39.47907357" lon="-0.38682869"><ele>10.0</ele><time>2022-11-02T13:58:23.0000000+00:00</time></trkpt><trkpt lat="39.47906074" lon="-0.38683112"><ele>10.0</ele><time>2022-11-02T13:58:24.0000000+00:00</time></trkpt><trkpt lat="39.47904842" lon="-0.38682961"><ele>10.0</ele><time>2022-11-02T13:58:25.0000000+00:00</time></trkpt><trkpt lat="39.47903493" lon="-0.38683003"><ele>10.0</ele><time>2022-11-02T13:58:26.0000000+00:00</time></trkpt><trkpt lat="39.47901967" lon="-0.38683699"><ele>10.0</ele><time>2022-11-02T13:58:27.0000000+00:00</time></trkpt><trkpt lat="39.47900148" lon="-0.38683849"><ele>10.0</ele><time>2022-11-02T13:58:28.0000000+00:00</time></trkpt><trkpt lat="39.47898706" lon="-0.38684185"><ele>10.0</ele><time>2022-11-02T13:58:29.0000000+00:00</time></trkpt><trkpt lat="39.47897357" lon="-0.38684419"><ele>10.0</ele><time>2022-11-02T13:58:30.0000000+00:00</time></trkpt><trkpt lat="39.47896318" lon="-0.38684906"><ele>10.0</ele><time>2022-11-02T13:58:31.0000000+00:00</time></trkpt><trkpt lat="39.47894859" lon="-0.3868597"><ele>10.0</ele><time>2022-11-02T13:58:32.0000000+00:00</time></trkpt><trkpt lat="39.47893049" lon="-0.38687144"><ele>10.0</ele><time>2022-11-02T13:58:33.0000000+00:00</time></trkpt><trkpt lat="39.47890945" lon="-0.38688049"><ele>10.0</ele><time>2022-11-02T13:58:34.0000000+00:00</time></trkpt><trkpt lat="39.47887894" lon="-0.38689725"><ele>10.0</ele><time>2022-11-02T13:58:35.0000000+00:00</time></trkpt><trkpt lat="39.47884918" lon="-0.38691569"><ele>10.0</ele><time>2022-11-02T13:58:36.0000000+00:00</time></trkpt><trkpt lat="39.47883267" lon="-0.38692625"><ele>10.0</ele><time>2022-11-02T13:58:37.0000000+00:00</time></trkpt><trkpt lat="39.47881809" lon="-0.38693606"><ele>10.0</ele><time>2022-11-02T13:58:38.0000000+00:00</time></trkpt><trkpt lat="39.47880711" lon="-0.38694042"><ele>10.0</ele><time>2022-11-02T13:58:39.0000000+00:00</time></trkpt><trkpt lat="39.47879814" lon="-0.38693799"><ele>10.0</ele><time>2022-11-02T13:58:40.0000000+00:00</time></trkpt><trkpt lat="39.47878615" lon="-0.38693078"><ele>10.0</ele><time>2022-11-02T13:58:41.0000000+00:00</time></trkpt><trkpt lat="39.4787766" lon="-0.38692156"><ele>10.0</ele><time>2022-11-02T13:58:42.0000000+00:00</time></trkpt><trkpt lat="39.47877131" lon="-0.38690278"><ele>10.0</ele><time>2022-11-02T13:58:43.0000000+00:00</time></trkpt><trkpt lat="39.47876629" lon="-0.38690019"><ele>10.0</ele><time>2022-11-02T13:58:44.0000000+00:00</time></trkpt><trkpt lat="39.47876444" lon="-0.38689541"><ele>10.0</ele><time>2022-11-02T13:58:45.0000000+00:00</time></trkpt><trkpt lat="39.47876285" lon="-0.38689775"><ele>10.0</ele><time>2022-11-02T13:58:46.0000000+00:00</time></trkpt><trkpt lat="39.47876411" lon="-0.38689717"><ele>10.2</ele><time>2022-11-02T13:58:47.0000000+00:00</time></trkpt><trkpt lat="39.4787719" lon="-0.38689985"><ele>10.2</ele><time>2022-11-02T13:58:48.0000000+00:00</time></trkpt><trkpt lat="39.47877986" lon="-0.38690446"><ele>10.2</ele><time>2022-11-02T13:58:49.0000000+00:00</time></trkpt><trkpt lat="39.47878473" lon="-0.38690345"><ele>10.2</ele><time>2022-11-02T13:58:50.0000000+00:00</time></trkpt><trkpt lat="39.47878816" lon="-0.38690245"><ele>10.2</ele><time>2022-11-02T13:58:51.0000000+00:00</time></trkpt><trkpt lat="39.47878615" lon="-0.38690136"><ele>10.2</ele><time>2022-11-02T13:58:52.0000000+00:00</time></trkpt><trkpt lat="39.47878548" lon="-0.38690044"><ele>10.2</ele><time>2022-11-02T13:58:53.0000000+00:00</time></trkpt><trkpt lat="39.47878406" lon="-0.38690144"><ele>10.2</ele><time>2022-11-02T13:58:54.0000000+00:00</time></trkpt><trkpt lat="39.47877048" lon="-0.38689524"><ele>10.2</ele><time>2022-11-02T13:58:55.0000000+00:00</time></trkpt><trkpt lat="39.47875832" lon="-0.38690253"><ele>10.2</ele><time>2022-11-02T13:58:56.0000000+00:00</time></trkpt><trkpt lat="39.47874483" lon="-0.38690505"><ele>10.4</ele><time>2022-11-02T13:58:57.0000000+00:00</time></trkpt><trkpt lat="39.47873837" lon="-0.38691527"><ele>10.4</ele><time>2022-11-02T13:58:58.0000000+00:00</time></trkpt><trkpt lat="39.4787289" lon="-0.386926"><ele>10.4</ele><time>2022-11-02T13:58:59.0000000+00:00</time></trkpt><trkpt lat="39.47872295" lon="-0.38693874"><ele>10.6</ele><time>2022-11-02T13:59:00.0000000+00:00</time></trkpt><trkpt lat="39.47871742" lon="-0.38695031"><ele>10.4</ele><time>2022-11-02T13:59:01.0000000+00:00</time></trkpt><trkpt lat="39.47871759" lon="-0.3869638"><ele>10.4</ele><time>2022-11-02T13:59:02.0000000+00:00</time></trkpt><trkpt lat="39.47871625" lon="-0.38698074"><ele>10.4</ele><time>2022-11-02T13:59:03.0000000+00:00</time></trkpt><trkpt lat="39.47871029" lon="-0.386998"><ele>10.4</ele><time>2022-11-02T13:59:04.0000000+00:00</time></trkpt><trkpt lat="39.4787035" lon="-0.38701669"><ele>10.4</ele><time>2022-11-02T13:59:05.0000000+00:00</time></trkpt><trkpt lat="39.47869403" lon="-0.38703589"><ele>10.4</ele><time>2022-11-02T13:59:06.0000000+00:00</time></trkpt><trkpt lat="39.47868498" lon="-0.38705433"><ele>10.4</ele><time>2022-11-02T13:59:07.0000000+00:00</time></trkpt><trkpt lat="39.47868481" lon="-0.38707092"><ele>10.4</ele><time>2022-11-02T13:59:08.0000000+00:00</time></trkpt><trkpt lat="39.47868783" lon="-0.3870814"><ele>10.4</ele><time>2022-11-02T13:59:09.0000000+00:00</time></trkpt><trkpt lat="39.47868523" lon="-0.38709967"><ele>10.4</ele><time>2022-11-02T13:59:10.0000000+00:00</time></trkpt><trkpt lat="39.47867702" lon="-0.38711778"><ele>10.4</ele><time>2022-11-02T13:59:11.0000000+00:00</time></trkpt><trkpt lat="39.47866822" lon="-0.38713186"><ele>10.4</ele><time>2022-11-02T13:59:12.0000000+00:00</time></trkpt><trkpt lat="39.4786626" lon="-0.38714837"><ele>10.6</ele><time>2022-11-02T13:59:13.0000000+00:00</time></trkpt><trkpt lat="39.47865472" lon="-0.38716304"><ele>10.6</ele><time>2022-11-02T13:59:14.0000000+00:00</time></trkpt><trkpt lat="39.4786476" lon="-0.38717997"><ele>10.6</ele><time>2022-11-02T13:59:15.0000000+00:00</time></trkpt><trkpt lat="39.47863888" lon="-0.387199"><ele>10.6</ele><time>2022-11-02T13:59:16.0000000+00:00</time></trkpt><trkpt lat="39.47863519" lon="-0.38721828"><ele>10.6</ele><time>2022-11-02T13:59:17.0000000+00:00</time></trkpt><trkpt lat="39.47863134" lon="-0.38723487"><ele>10.6</ele><time>2022-11-02T13:59:18.0000000+00:00</time></trkpt><trkpt lat="39.47863117" lon="-0.38725625"><ele>10.6</ele><time>2022-11-02T13:59:19.0000000+00:00</time></trkpt><trkpt lat="39.4786331" lon="-0.38727318"><ele>10.6</ele><time>2022-11-02T13:59:20.0000000+00:00</time></trkpt><trkpt lat="39.47862849" lon="-0.38728198"><ele>10.6</ele><time>2022-11-02T13:59:21.0000000+00:00</time></trkpt><trkpt lat="39.47862371" lon="-0.38729237"><ele>10.6</ele><time>2022-11-02T13:59:22.0000000+00:00</time></trkpt><trkpt lat="39.47861818" lon="-0.3873047"><ele>10.6</ele><time>2022-11-02T13:59:23.0000000+00:00</time></trkpt><trkpt lat="39.4786098" lon="-0.38731601"><ele>10.4</ele><time>2022-11-02T13:59:24.0000000+00:00</time></trkpt><trkpt lat="39.47860334" lon="-0.38732322"><ele>10.4</ele><time>2022-11-02T13:59:25.0000000+00:00</time></trkpt><trkpt lat="39.47859546" lon="-0.38733068"><ele>10.4</ele><time>2022-11-02T13:59:26.0000000+00:00</time></trkpt><trkpt lat="39.47859177" lon="-0.38733026"><ele>10.4</ele><time>2022-11-02T13:59:27.0000000+00:00</time></trkpt><trkpt lat="39.47858482" lon="-0.38732121"><ele>10.6</ele><time>2022-11-02T13:59:28.0000000+00:00</time></trkpt><trkpt lat="39.47858406" lon="-0.38732356"><ele>10.6</ele><time>2022-11-02T13:59:29.0000000+00:00</time></trkpt><trkpt lat="39.47858364" lon="-0.38732213"><ele>10.6</ele><time>2022-11-02T13:59:30.0000000+00:00</time></trkpt><trkpt lat="39.47858146" lon="-0.3873166"><ele>10.6</ele><time>2022-11-02T13:59:31.0000000+00:00</time></trkpt><trkpt lat="39.47857778" lon="-0.38731668"><ele>10.6</ele><time>2022-11-02T13:59:32.0000000+00:00</time></trkpt><trkpt lat="39.47857602" lon="-0.38731601"><ele>10.6</ele><time>2022-11-02T13:59:33.0000000+00:00</time></trkpt><trkpt lat="39.4785787" lon="-0.38730688"><ele>10.6</ele><time>2022-11-02T13:59:34.0000000+00:00</time></trkpt><trkpt lat="39.47858498" lon="-0.38729958"><ele>10.6</ele><time>2022-11-02T13:59:35.0000000+00:00</time></trkpt><trkpt lat="39.47858046" lon="-0.38729908"><ele>10.6</ele><time>2022-11-02T13:59:36.0000000+00:00</time></trkpt><trkpt lat="39.47858297" lon="-0.38730025"><ele>10.6</ele><time>2022-11-02T13:59:37.0000000+00:00</time></trkpt><trkpt lat="39.47858281" lon="-0.38730159"><ele>10.6</ele><time>2022-11-02T13:59:38.0000000+00:00</time></trkpt><trkpt lat="39.47858498" lon="-0.38730386"><ele>10.6</ele><time>2022-11-02T13:59:39.0000000+00:00</time></trkpt><trkpt lat="39.4785839" lon="-0.38729288"><ele>10.6</ele><time>2022-11-02T13:59:40.0000000+00:00</time></trkpt><trkpt lat="39.47858817" lon="-0.38728735"><ele>10.6</ele><time>2022-11-02T13:59:41.0000000+00:00</time></trkpt><trkpt lat="39.47858825" lon="-0.38728667"><ele>10.6</ele><time>2022-11-02T13:59:42.0000000+00:00</time></trkpt><trkpt lat="39.47858675" lon="-0.38728827"><ele>10.6</ele><time>2022-11-02T13:59:43.0000000+00:00</time></trkpt><trkpt lat="39.4785854" lon="-0.38729413"><ele>10.6</ele><time>2022-11-02T13:59:44.0000000+00:00</time></trkpt><trkpt lat="39.47857694" lon="-0.38729891"><ele>10.6</ele><time>2022-11-02T13:59:45.0000000+00:00</time></trkpt><trkpt lat="39.47856621" lon="-0.38730109"><ele>10.6</ele><time>2022-11-02T13:59:46.0000000+00:00</time></trkpt><trkpt lat="39.47855741" lon="-0.38731174"><ele>10.6</ele><time>2022-11-02T13:59:47.0000000+00:00</time></trkpt><trkpt lat="39.47855783" lon="-0.38732221"><ele>10.6</ele><time>2022-11-02T13:59:48.0000000+00:00</time></trkpt><trkpt lat="39.47855783" lon="-0.38732993"><ele>10.6</ele><time>2022-11-02T13:59:49.0000000+00:00</time></trkpt><trkpt lat="39.478558" lon="-0.38733361"><ele>10.6</ele><time>2022-11-02T13:59:50.0000000+00:00</time></trkpt><trkpt lat="39.47854752" lon="-0.38737427"><ele>10.6</ele><time>2022-11-02T13:59:51.0000000+00:00</time></trkpt><trkpt lat="39.4785409" lon="-0.38739136"><ele>10.6</ele><time>2022-11-02T13:59:52.0000000+00:00</time></trkpt><trkpt lat="39.47854031" lon="-0.38740033"><ele>10.6</ele><time>2022-11-02T13:59:53.0000000+00:00</time></trkpt><trkpt lat="39.47853754" lon="-0.38740394"><ele>10.6</ele><time>2022-11-02T13:59:54.0000000+00:00</time></trkpt><trkpt lat="39.47853478" lon="-0.38740804"><ele>10.6</ele><time>2022-11-02T13:59:55.0000000+00:00</time></trkpt><trkpt lat="39.47852966" lon="-0.38741785"><ele>10.6</ele><time>2022-11-02T13:59:56.0000000+00:00</time></trkpt><trkpt lat="39.47852237" lon="-0.38742757"><ele>10.6</ele><time>2022-11-02T13:59:57.0000000+00:00</time></trkpt><trkpt lat="39.47851374" lon="-0.3874373"><ele>10.6</ele><time>2022-11-02T13:59:58.0000000+00:00</time></trkpt><trkpt lat="39.47850837" lon="-0.38744694"><ele>10.6</ele><time>2022-11-02T13:59:59.0000000+00:00</time></trkpt><trkpt lat="39.47850645" lon="-0.38745347"><ele>10.6</ele><time>2022-11-02T14:00:00.0000000+00:00</time></trkpt><trkpt lat="39.4785041" lon="-0.38746513"><ele>10.6</ele><time>2022-11-02T14:00:01.0000000+00:00</time></trkpt><trkpt lat="39.47850787" lon="-0.38747946"><ele>10.6</ele><time>2022-11-02T14:00:02.0000000+00:00</time></trkpt><trkpt lat="39.47850645" lon="-0.38748591"><ele>10.6</ele><time>2022-11-02T14:00:03.0000000+00:00</time></trkpt><trkpt lat="39.47850452" lon="-0.38748927"><ele>10.6</ele><time>2022-11-02T14:00:04.0000000+00:00</time></trkpt><trkpt lat="39.47850117" lon="-0.38748943"><ele>10.6</ele><time>2022-11-02T14:00:05.0000000+00:00</time></trkpt><trkpt lat="39.47850083" lon="-0.38748667"><ele>10.6</ele><time>2022-11-02T14:00:06.0000000+00:00</time></trkpt><trkpt lat="39.47850133" lon="-0.38748566"><ele>10.6</ele><time>2022-11-02T14:00:07.0000000+00:00</time></trkpt><trkpt lat="39.47850175" lon="-0.38748407"><ele>10.6</ele><time>2022-11-02T14:00:08.0000000+00:00</time></trkpt><trkpt lat="39.47850494" lon="-0.38748709"><ele>10.6</ele><time>2022-11-02T14:00:09.0000000+00:00</time></trkpt><trkpt lat="39.47850863" lon="-0.38749656"><ele>10.6</ele><time>2022-11-02T14:00:10.0000000+00:00</time></trkpt><trkpt lat="39.47851181" lon="-0.38750846"><ele>10.6</ele><time>2022-11-02T14:00:11.0000000+00:00</time></trkpt><trkpt lat="39.47850376" lon="-0.38752019"><ele>10.6</ele><time>2022-11-02T14:00:12.0000000+00:00</time></trkpt><trkpt lat="39.47849949" lon="-0.38753486"><ele>10.6</ele><time>2022-11-02T14:00:13.0000000+00:00</time></trkpt><trkpt lat="39.47850117" lon="-0.38753704"><ele>10.6</ele><time>2022-11-02T14:00:14.0000000+00:00</time></trkpt><trkpt lat="39.4784989" lon="-0.38753503"><ele>10.6</ele><time>2022-11-02T14:00:15.0000000+00:00</time></trkpt><trkpt lat="39.47848708" lon="-0.38752531"><ele>10.6</ele><time>2022-11-02T14:00:16.0000000+00:00</time></trkpt><trkpt lat="39.4784756" lon="-0.38751223"><ele>10.6</ele><time>2022-11-02T14:00:17.0000000+00:00</time></trkpt><trkpt lat="39.47846018" lon="-0.3875041"><ele>10.6</ele><time>2022-11-02T14:00:18.0000000+00:00</time></trkpt><trkpt lat="39.47844618" lon="-0.3875031"><ele>10.6</ele><time>2022-11-02T14:00:19.0000000+00:00</time></trkpt><trkpt lat="39.4784321" lon="-0.38750117"><ele>10.6</ele><time>2022-11-02T14:00:20.0000000+00:00</time></trkpt><trkpt lat="39.47842045" lon="-0.38749756"><ele>10.6</ele><time>2022-11-02T14:00:21.0000000+00:00</time></trkpt><trkpt lat="39.47841307" lon="-0.38749287"><ele>10.6</ele><time>2022-11-02T14:00:22.0000000+00:00</time></trkpt><trkpt lat="39.47840251" lon="-0.38749279"><ele>10.6</ele><time>2022-11-02T14:00:23.0000000+00:00</time></trkpt><trkpt lat="39.47839874" lon="-0.38749622"><ele>10.6</ele><time>2022-11-02T14:00:24.0000000+00:00</time></trkpt><trkpt lat="39.47839379" lon="-0.38748801"><ele>10.6</ele><time>2022-11-02T14:00:25.0000000+00:00</time></trkpt><trkpt lat="39.47838902" lon="-0.38748633"><ele>10.6</ele><time>2022-11-02T14:00:26.0000000+00:00</time></trkpt><trkpt lat="39.47838474" lon="-0.38749086"><ele>10.6</ele><time>2022-11-02T14:00:27.0000000+00:00</time></trkpt><trkpt lat="39.47837879" lon="-0.38750276"><ele>10.6</ele><time>2022-11-02T14:00:28.0000000+00:00</time></trkpt><trkpt lat="39.47836949" lon="-0.38750603"><ele>10.6</ele><time>2022-11-02T14:00:29.0000000+00:00</time></trkpt><trkpt lat="39.47836731" lon="-0.38750846"><ele>10.8</ele><time>2022-11-02T14:00:30.0000000+00:00</time></trkpt><trkpt lat="39.47836035" lon="-0.38752263"><ele>10.8</ele><time>2022-11-02T14:00:31.0000000+00:00</time></trkpt><trkpt lat="39.47835255" lon="-0.3875362"><ele>10.8</ele><time>2022-11-02T14:00:32.0000000+00:00</time></trkpt><trkpt lat="39.47834736" lon="-0.38754785"><ele>10.8</ele><time>2022-11-02T14:00:33.0000000+00:00</time></trkpt><trkpt lat="39.47834157" lon="-0.38755498"><ele>10.8</ele><time>2022-11-02T14:00:34.0000000+00:00</time></trkpt><trkpt lat="39.47833881" lon="-0.38756588"><ele>10.8</ele><time>2022-11-02T14:00:35.0000000+00:00</time></trkpt><trkpt lat="39.47833512" lon="-0.38757652"><ele>10.8</ele><time>2022-11-02T14:00:36.0000000+00:00</time></trkpt><trkpt lat="39.47833252" lon="-0.38758323"><ele>10.8</ele><time>2022-11-02T14:00:37.0000000+00:00</time></trkpt><trkpt lat="39.47833219" lon="-0.38758943"><ele>10.8</ele><time>2022-11-02T14:00:38.0000000+00:00</time></trkpt><trkpt lat="39.478329" lon="-0.38759488"><ele>10.8</ele><time>2022-11-02T14:00:39.0000000+00:00</time></trkpt><trkpt lat="39.47832682" lon="-0.38759815"><ele>11.0</ele><time>2022-11-02T14:00:40.0000000+00:00</time></trkpt><trkpt lat="39.47832531" lon="-0.38760217"><ele>11.0</ele><time>2022-11-02T14:00:41.0000000+00:00</time></trkpt><trkpt lat="39.47832322" lon="-0.38760309"><ele>11.0</ele><time>2022-11-02T14:00:42.0000000+00:00</time></trkpt><trkpt lat="39.47831718" lon="-0.38761315"><ele>11.2</ele><time>2022-11-02T14:00:43.0000000+00:00</time></trkpt><trkpt lat="39.47831634" lon="-0.38761877"><ele>11.2</ele><time>2022-11-02T14:00:44.0000000+00:00</time></trkpt><trkpt lat="39.47831517" lon="-0.38762338"><ele>11.2</ele><time>2022-11-02T14:00:45.0000000+00:00</time></trkpt><trkpt lat="39.47831274" lon="-0.38762765"><ele>11.2</ele><time>2022-11-02T14:00:46.0000000+00:00</time></trkpt><trkpt lat="39.47830989" lon="-0.38763042"><ele>11.2</ele><time>2022-11-02T14:00:47.0000000+00:00</time></trkpt><trkpt lat="39.4783021" lon="-0.38764073"><ele>11.4</ele><time>2022-11-02T14:00:48.0000000+00:00</time></trkpt><trkpt lat="39.47829841" lon="-0.38765095"><ele>11.4</ele><time>2022-11-02T14:00:49.0000000+00:00</time></trkpt><trkpt lat="39.47829598" lon="-0.38765883"><ele>11.4</ele><time>2022-11-02T14:00:50.0000000+00:00</time></trkpt><trkpt lat="39.47829304" lon="-0.38766495"><ele>11.6</ele><time>2022-11-02T14:00:51.0000000+00:00</time></trkpt><trkpt lat="39.47828776" lon="-0.38767342"><ele>11.6</ele><time>2022-11-02T14:00:52.0000000+00:00</time></trkpt><trkpt lat="39.47827997" lon="-0.38768255"><ele>11.6</ele><time>2022-11-02T14:00:53.0000000+00:00</time></trkpt><trkpt lat="39.4782746" lon="-0.38769244"><ele>11.6</ele><time>2022-11-02T14:00:54.0000000+00:00</time></trkpt><trkpt lat="39.47827175" lon="-0.38770275"><ele>11.6</ele><time>2022-11-02T14:00:55.0000000+00:00</time></trkpt><trkpt lat="39.47826974" lon="-0.38771189"><ele>11.8</ele><time>2022-11-02T14:00:56.0000000+00:00</time></trkpt><trkpt lat="39.4782648" lon="-0.38772044"><ele>11.8</ele><time>2022-11-02T14:00:57.0000000+00:00</time></trkpt><trkpt lat="39.47825884" lon="-0.38773066"><ele>12.0</ele><time>2022-11-02T14:00:58.0000000+00:00</time></trkpt><trkpt lat="39.47825055" lon="-0.38774273"><ele>12.0</ele><time>2022-11-02T14:00:59.0000000+00:00</time></trkpt><trkpt lat="39.47824325" lon="-0.38775229"><ele>12.0</ele><time>2022-11-02T14:01:00.0000000+00:00</time></trkpt><trkpt lat="39.47823772" lon="-0.38776109"><ele>12.0</ele><time>2022-11-02T14:01:01.0000000+00:00</time></trkpt><trkpt lat="39.47824066" lon="-0.38776956"><ele>12.2</ele><time>2022-11-02T14:01:02.0000000+00:00</time></trkpt><trkpt lat="39.47824175" lon="-0.38778112"><ele>12.2</ele><time>2022-11-02T14:01:03.0000000+00:00</time></trkpt><trkpt lat="39.47823487" lon="-0.38779185"><ele>12.2</ele><time>2022-11-02T14:01:04.0000000+00:00</time></trkpt><trkpt lat="39.47822951" lon="-0.38779973"><ele>12.2</ele><time>2022-11-02T14:01:05.0000000+00:00</time></trkpt><trkpt lat="39.47822917" lon="-0.38781172"><ele>12.4</ele><time>2022-11-02T14:01:06.0000000+00:00</time></trkpt><trkpt lat="39.47823035" lon="-0.38782219"><ele>12.4</ele><time>2022-11-02T14:01:07.0000000+00:00</time></trkpt><trkpt lat="39.47823227" lon="-0.38782882"><ele>12.4</ele><time>2022-11-02T14:01:08.0000000+00:00</time></trkpt><trkpt lat="39.4782285" lon="-0.38783611"><ele>12.6</ele><time>2022-11-02T14:01:09.0000000+00:00</time></trkpt><trkpt lat="39.47821979" lon="-0.38783686"><ele>12.6</ele><time>2022-11-02T14:01:10.0000000+00:00</time></trkpt><trkpt lat="39.47821165" lon="-0.38783887"><ele>12.6</ele><time>2022-11-02T14:01:11.0000000+00:00</time></trkpt><trkpt lat="39.4782073" lon="-0.38784399"><ele>12.8</ele><time>2022-11-02T14:01:12.0000000+00:00</time></trkpt><trkpt lat="39.4781995" lon="-0.3878517"><ele>12.8</ele><time>2022-11-02T14:01:13.0000000+00:00</time></trkpt><trkpt lat="39.47819556" lon="-0.38785648"><ele>12.8</ele><time>2022-11-02T14:01:14.0000000+00:00</time></trkpt><trkpt lat="39.47818802" lon="-0.38786033"><ele>13.0</ele><time>2022-11-02T14:01:15.0000000+00:00</time></trkpt><trkpt lat="39.4781798" lon="-0.38786436"><ele>13.0</ele><time>2022-11-02T14:01:16.0000000+00:00</time></trkpt><trkpt lat="39.47817427" lon="-0.38786955"><ele>13.0</ele><time>2022-11-02T14:01:17.0000000+00:00</time></trkpt><trkpt lat="39.47816924" lon="-0.38787483"><ele>13.0</ele><time>2022-11-02T14:01:18.0000000+00:00</time></trkpt><trkpt lat="39.47816178" lon="-0.3878807"><ele>13.2</ele><time>2022-11-02T14:01:19.0000000+00:00</time></trkpt><trkpt lat="39.47815575" lon="-0.38788933"><ele>13.2</ele><time>2022-11-02T14:01:20.0000000+00:00</time></trkpt><trkpt lat="39.47815114" lon="-0.38789906"><ele>13.2</ele><time>2022-11-02T14:01:21.0000000+00:00</time></trkpt><trkpt lat="39.47814737" lon="-0.38791046"><ele>13.2</ele><time>2022-11-02T14:01:22.0000000+00:00</time></trkpt><trkpt lat="39.47814963" lon="-0.38792152"><ele>13.4</ele><time>2022-11-02T14:01:23.0000000+00:00</time></trkpt><trkpt lat="39.47814946" lon="-0.38793116"><ele>13.4</ele><time>2022-11-02T14:01:24.0000000+00:00</time></trkpt><trkpt lat="39.47814695" lon="-0.38793912"><ele>13.4</ele><time>2022-11-02T14:01:25.0000000+00:00</time></trkpt><trkpt lat="39.47814762" lon="-0.38794482"><ele>13.4</ele><time>2022-11-02T14:01:26.0000000+00:00</time></trkpt><trkpt lat="39.47814527" lon="-0.38794977"><ele>13.6</ele><time>2022-11-02T14:01:27.0000000+00:00</time></trkpt><trkpt lat="39.47814443" lon="-0.38795513"><ele>13.6</ele><time>2022-11-02T14:01:28.0000000+00:00</time></trkpt><trkpt lat="39.47813873" lon="-0.38796033"><ele>13.6</ele><time>2022-11-02T14:01:29.0000000+00:00</time></trkpt><trkpt lat="39.47812641" lon="-0.3879698"><ele>13.8</ele><time>2022-11-02T14:01:30.0000000+00:00</time></trkpt><trkpt lat="39.47811937" lon="-0.38798011"><ele>13.8</ele><time>2022-11-02T14:01:31.0000000+00:00</time></trkpt><trkpt lat="39.47811769" lon="-0.38798941"><ele>13.8</ele><time>2022-11-02T14:01:32.0000000+00:00</time></trkpt><trkpt lat="39.47811962" lon="-0.38800115"><ele>14.0</ele><time>2022-11-02T14:01:33.0000000+00:00</time></trkpt><trkpt lat="39.47812004" lon="-0.3880076"><ele>14.0</ele><time>2022-11-02T14:01:34.0000000+00:00</time></trkpt><trkpt lat="39.47811862" lon="-0.38801188"><ele>14.0</ele><time>2022-11-02T14:01:35.0000000+00:00</time></trkpt><trkpt lat="39.47811401" lon="-0.38802068"><ele>14.0</ele><time>2022-11-02T14:01:36.0000000+00:00</time></trkpt><trkpt lat="39.47810696" lon="-0.38802906"><ele>14.2</ele><time>2022-11-02T14:01:37.0000000+00:00</time></trkpt><trkpt lat="39.4781042" lon="-0.38803434"><ele>14.2</ele><time>2022-11-02T14:01:38.0000000+00:00</time></trkpt><trkpt lat="39.47810135" lon="-0.38803744"><ele>14.2</ele><time>2022-11-02T14:01:39.0000000+00:00</time></trkpt><trkpt lat="39.47809875" lon="-0.38803828"><ele>14.4</ele><time>2022-11-02T14:01:40.0000000+00:00</time></trkpt><trkpt lat="39.47809774" lon="-0.38803702"><ele>14.4</ele><time>2022-11-02T14:01:41.0000000+00:00</time></trkpt><trkpt lat="39.47809716" lon="-0.38803686"><ele>14.4</ele><time>2022-11-02T14:01:42.0000000+00:00</time></trkpt><trkpt lat="39.47809749" lon="-0.38803677"><ele>14.4</ele><time>2022-11-02T14:01:43.0000000+00:00</time></trkpt><trkpt lat="39.47809783" lon="-0.38803694"><ele>14.6</ele><time>2022-11-02T14:01:44.0000000+00:00</time></trkpt><trkpt lat="39.47809825" lon="-0.38803669"><ele>14.6</ele><time>2022-11-02T14:01:45.0000000+00:00</time></trkpt><trkpt lat="39.47809842" lon="-0.38803686"><ele>14.6</ele><time>2022-11-02T14:01:46.0000000+00:00</time></trkpt><trkpt lat="39.47809959" lon="-0.38803652"><ele>14.4</ele><time>2022-11-02T14:01:47.0000000+00:00</time></trkpt><trkpt lat="39.47810068" lon="-0.38803652"><ele>14.4</ele><time>2022-11-02T14:01:48.0000000+00:00</time></trkpt><trkpt lat="39.47810068" lon="-0.38803652"><ele>14.4</ele><time>2022-11-02T14:01:49.0000000+00:00</time></trkpt><trkpt lat="39.47810068" lon="-0.38803652"><ele>14.4</ele><time>2022-11-02T14:01:50.0000000+00:00</time></trkpt><trkpt lat="39.47810068" lon="-0.38803652"><ele>14.4</ele><time>2022-11-02T14:01:51.0000000+00:00</time></trkpt><trkpt lat="39.47810068" lon="-0.38803652"><ele>14.4</ele><time>2022-11-02T14:01:52.0000000+00:00</time></trkpt><trkpt lat="39.47810068" lon="-0.38803652"><ele>14.4</ele><time>2022-11-02T14:01:53.0000000+00:00</time></trkpt><trkpt lat="39.47810068" lon="-0.38803652"><ele>14.4</ele><time>2022-11-02T14:01:54.0000000+00:00</time></trkpt><trkpt lat="39.47810068" lon="-0.38803652"><ele>14.4</ele><time>2022-11-02T14:01:55.0000000+00:00</time></trkpt><trkpt lat="39.47810068" lon="-0.38803652"><ele>14.4</ele><time>2022-11-02T14:01:56.0000000+00:00</time></trkpt><trkpt lat="39.47810068" lon="-0.38803652"><ele>14.4</ele><time>2022-11-02T14:01:57.0000000+00:00</time></trkpt><trkpt lat="39.47810068" lon="-0.38803652"><ele>14.6</ele><time>2022-11-02T14:01:58.0000000+00:00</time></trkpt><trkpt lat="39.47810068" lon="-0.38803652"><ele>14.6</ele><time>2022-11-02T14:01:59.0000000+00:00</time></trkpt><trkpt lat="39.47810068" lon="-0.38803652"><ele>14.6</ele><time>2022-11-02T14:02:00.0000000+00:00</time></trkpt><trkpt lat="39.47810068" lon="-0.38803669"><ele>14.6</ele><time>2022-11-02T14:02:01.0000000+00:00</time></trkpt><trkpt lat="39.47809992" lon="-0.38804431"><ele>14.6</ele><time>2022-11-02T14:02:02.0000000+00:00</time></trkpt><trkpt lat="39.47810034" lon="-0.38806577"><ele>14.6</ele><time>2022-11-02T14:02:03.0000000+00:00</time></trkpt><trkpt lat="39.47810051" lon="-0.38808522"><ele>14.8</ele><time>2022-11-02T14:02:04.0000000+00:00</time></trkpt><trkpt lat="39.47809808" lon="-0.38810634"><ele>14.8</ele><time>2022-11-02T14:02:05.0000000+00:00</time></trkpt><trkpt lat="39.47809372" lon="-0.38812998"><ele>14.8</ele><time>2022-11-02T14:02:06.0000000+00:00</time></trkpt><trkpt lat="39.47808987" lon="-0.38815185"><ele>14.8</ele><time>2022-11-02T14:02:07.0000000+00:00</time></trkpt><trkpt lat="39.47808601" lon="-0.38817566"><ele>14.8</ele><time>2022-11-02T14:02:08.0000000+00:00</time></trkpt><trkpt lat="39.47808123" lon="-0.38819754"><ele>14.8</ele><time>2022-11-02T14:02:09.0000000+00:00</time></trkpt><trkpt lat="39.47807428" lon="-0.38821732"><ele>15.0</ele><time>2022-11-02T14:02:10.0000000+00:00</time></trkpt><trkpt lat="39.47806547" lon="-0.38823777"><ele>15.0</ele><time>2022-11-02T14:02:11.0000000+00:00</time></trkpt><trkpt lat="39.47806011" lon="-0.38825646"><ele>15.0</ele><time>2022-11-02T14:02:12.0000000+00:00</time></trkpt><trkpt lat="39.47805609" lon="-0.38827691"><ele>15.0</ele><time>2022-11-02T14:02:13.0000000+00:00</time></trkpt><trkpt lat="39.4780519" lon="-0.38829812"><ele>15.0</ele><time>2022-11-02T14:02:14.0000000+00:00</time></trkpt><trkpt lat="39.47804905" lon="-0.38831664"><ele>15.0</ele><time>2022-11-02T14:02:15.0000000+00:00</time></trkpt><trkpt lat="39.47804687" lon="-0.38833332"><ele>15.0</ele><time>2022-11-02T14:02:16.0000000+00:00</time></trkpt><trkpt lat="39.47803907" lon="-0.38834782"><ele>15.0</ele><time>2022-11-02T14:02:17.0000000+00:00</time></trkpt><trkpt lat="39.47803195" lon="-0.38836367"><ele>15.0</ele><time>2022-11-02T14:02:18.0000000+00:00</time></trkpt><trkpt lat="39.47802382" lon="-0.38837758"><ele>15.0</ele><time>2022-11-02T14:02:19.0000000+00:00</time></trkpt><trkpt lat="39.47801636" lon="-0.3883982"><ele>15.0</ele><time>2022-11-02T14:02:20.0000000+00:00</time></trkpt><trkpt lat="39.47801007" lon="-0.38842075"><ele>15.0</ele><time>2022-11-02T14:02:21.0000000+00:00</time></trkpt><trkpt lat="39.47800739" lon="-0.38844338"><ele>15.2</ele><time>2022-11-02T14:02:22.0000000+00:00</time></trkpt><trkpt lat="39.47800596" lon="-0.3884614"><ele>15.2</ele><time>2022-11-02T14:02:23.0000000+00:00</time></trkpt><trkpt lat="39.47800219" lon="-0.38847372"><ele>15.2</ele><time>2022-11-02T14:02:24.0000000+00:00</time></trkpt><trkpt lat="39.47799641" lon="-0.38848537"><ele>15.2</ele><time>2022-11-02T14:02:25.0000000+00:00</time></trkpt><trkpt lat="39.47799364" lon="-0.38849811"><ele>15.2</ele><time>2022-11-02T14:02:26.0000000+00:00</time></trkpt><trkpt lat="39.47799817" lon="-0.38851253"><ele>15.2</ele><time>2022-11-02T14:02:27.0000000+00:00</time></trkpt><trkpt lat="39.47800487" lon="-0.38852502"><ele>15.2</ele><time>2022-11-02T14:02:28.0000000+00:00</time></trkpt><trkpt lat="39.47800906" lon="-0.3885329"><ele>15.2</ele><time>2022-11-02T14:02:29.0000000+00:00</time></trkpt><trkpt lat="39.47800906" lon="-0.38853348"><ele>15.2</ele><time>2022-11-02T14:02:30.0000000+00:00</time></trkpt><trkpt lat="39.47800655" lon="-0.38852845"><ele>15.2</ele><time>2022-11-02T14:02:31.0000000+00:00</time></trkpt><trkpt lat="39.47800638" lon="-0.38852007"><ele>15.2</ele><time>2022-11-02T14:02:32.0000000+00:00</time></trkpt><trkpt lat="39.47800848" lon="-0.38851001"><ele>15.2</ele><time>2022-11-02T14:02:33.0000000+00:00</time></trkpt><trkpt lat="39.47801401" lon="-0.38849694"><ele>15.2</ele><time>2022-11-02T14:02:34.0000000+00:00</time></trkpt><trkpt lat="39.47801971" lon="-0.38848529"><ele>15.4</ele><time>2022-11-02T14:02:35.0000000+00:00</time></trkpt><trkpt lat="39.47802499" lon="-0.38846844"><ele>15.4</ele><time>2022-11-02T14:02:36.0000000+00:00</time></trkpt><trkpt lat="39.47802926" lon="-0.3884531"><ele>15.4</ele><time>2022-11-02T14:02:37.0000000+00:00</time></trkpt><trkpt lat="39.47803522" lon="-0.38844388"><ele>15.4</ele><time>2022-11-02T14:02:38.0000000+00:00</time></trkpt><trkpt lat="39.47804201" lon="-0.38843089"><ele>15.4</ele><time>2022-11-02T14:02:39.0000000+00:00</time></trkpt><trkpt lat="39.47804871" lon="-0.38841823"><ele>15.4</ele><time>2022-11-02T14:02:40.0000000+00:00</time></trkpt><trkpt lat="39.47805391" lon="-0.38840625"><ele>15.4</ele><time>2022-11-02T14:02:41.0000000+00:00</time></trkpt><trkpt lat="39.47805827" lon="-0.38839325"><ele>15.4</ele><time>2022-11-02T14:02:42.0000000+00:00</time></trkpt><trkpt lat="39.4780633" lon="-0.38837607"><ele>15.4</ele><time>2022-11-02T14:02:43.0000000+00:00</time></trkpt><trkpt lat="39.47806908" lon="-0.38835939"><ele>15.2</ele><time>2022-11-02T14:02:44.0000000+00:00</time></trkpt><trkpt lat="39.47807998" lon="-0.38834699"><ele>15.2</ele><time>2022-11-02T14:02:45.0000000+00:00</time></trkpt><trkpt lat="39.47808693" lon="-0.38832963"><ele>15.2</ele><time>2022-11-02T14:02:46.0000000+00:00</time></trkpt><trkpt lat="39.47809364" lon="-0.38831145"><ele>15.2</ele><time>2022-11-02T14:02:47.0000000+00:00</time></trkpt><trkpt lat="39.4780995" lon="-0.38829527"><ele>15.2</ele><time>2022-11-02T14:02:48.0000000+00:00</time></trkpt><trkpt lat="39.47810101" lon="-0.38827624"><ele>15.2</ele><time>2022-11-02T14:02:49.0000000+00:00</time></trkpt><trkpt lat="39.47810286" lon="-0.38826107"><ele>15.2</ele><time>2022-11-02T14:02:50.0000000+00:00</time></trkpt><trkpt lat="39.47810588" lon="-0.38824506"><ele>15.2</ele><time>2022-11-02T14:02:51.0000000+00:00</time></trkpt><trkpt lat="39.47811023" lon="-0.38822729"><ele>15.2</ele><time>2022-11-02T14:02:52.0000000+00:00</time></trkpt><trkpt lat="39.47810898" lon="-0.38821028"><ele>15.2</ele><time>2022-11-02T14:02:53.0000000+00:00</time></trkpt><trkpt lat="39.4781073" lon="-0.38819284"><ele>15.2</ele><time>2022-11-02T14:02:54.0000000+00:00</time></trkpt><trkpt lat="39.47810671" lon="-0.38817683"><ele>15.2</ele><time>2022-11-02T14:02:55.0000000+00:00</time></trkpt><trkpt lat="39.4781047" lon="-0.388163"><ele>15.2</ele><time>2022-11-02T14:02:56.0000000+00:00</time></trkpt><trkpt lat="39.4780995" lon="-0.3881511"><ele>15.2</ele><time>2022-11-02T14:02:57.0000000+00:00</time></trkpt><trkpt lat="39.47808844" lon="-0.38814046"><ele>15.2</ele><time>2022-11-02T14:02:58.0000000+00:00</time></trkpt><trkpt lat="39.47807486" lon="-0.38813015"><ele>15.2</ele><time>2022-11-02T14:02:59.0000000+00:00</time></trkpt><trkpt lat="39.4780695" lon="-0.38812202"><ele>15.2</ele><time>2022-11-02T14:03:00.0000000+00:00</time></trkpt><trkpt lat="39.4780664" lon="-0.38810894"><ele>15.2</ele><time>2022-11-02T14:03:01.0000000+00:00</time></trkpt><trkpt lat="39.47806732" lon="-0.38809243"><ele>15.2</ele><time>2022-11-02T14:03:02.0000000+00:00</time></trkpt><trkpt lat="39.47807444" lon="-0.3880765"><ele>15.2</ele><time>2022-11-02T14:03:03.0000000+00:00</time></trkpt><trkpt lat="39.4780793" lon="-0.38806334"><ele>15.2</ele><time>2022-11-02T14:03:04.0000000+00:00</time></trkpt><trkpt lat="39.47808542" lon="-0.3880454"><ele>14.4</ele><time>2022-11-02T14:03:05.0000000+00:00</time></trkpt><trkpt lat="39.47810093" lon="-0.38802277"><ele>14.4</ele><time>2022-11-02T14:03:06.0000000+00:00</time></trkpt><trkpt lat="39.47811149" lon="-0.38800098"><ele>14.4</ele><time>2022-11-02T14:03:07.0000000+00:00</time></trkpt><trkpt lat="39.47811686" lon="-0.38798573"><ele>14.4</ele><time>2022-11-02T14:03:08.0000000+00:00</time></trkpt><trkpt lat="39.47812524" lon="-0.38796837"><ele>14.4</ele><time>2022-11-02T14:03:09.0000000+00:00</time></trkpt><trkpt lat="39.47813228" lon="-0.38795061"><ele>14.4</ele><time>2022-11-02T14:03:10.0000000+00:00</time></trkpt><trkpt lat="39.47813932" lon="-0.38793434"><ele>14.4</ele><time>2022-11-02T14:03:11.0000000+00:00</time></trkpt><trkpt lat="39.47814703" lon="-0.38791766"><ele>14.4</ele><time>2022-11-02T14:03:12.0000000+00:00</time></trkpt><trkpt lat="39.47815105" lon="-0.38790006"><ele>14.4</ele><time>2022-11-02T14:03:13.0000000+00:00</time></trkpt><trkpt lat="39.47815441" lon="-0.38788506"><ele>14.4</ele><time>2022-11-02T14:03:14.0000000+00:00</time></trkpt><trkpt lat="39.47815768" lon="-0.38787081"><ele>14.4</ele><time>2022-11-02T14:03:15.0000000+00:00</time></trkpt><trkpt lat="39.47816019" lon="-0.38785748"><ele>13.0</ele><time>2022-11-02T14:03:16.0000000+00:00</time></trkpt><trkpt lat="39.4781617" lon="-0.38784491"><ele>13.0</ele><time>2022-11-02T14:03:17.0000000+00:00</time></trkpt><trkpt lat="39.47816782" lon="-0.38782974"><ele>13.0</ele><time>2022-11-02T14:03:18.0000000+00:00</time></trkpt><trkpt lat="39.47817603" lon="-0.3878149"><ele>13.0</ele><time>2022-11-02T14:03:19.0000000+00:00</time></trkpt><trkpt lat="39.47818659" lon="-0.3877968"><ele>13.0</ele><time>2022-11-02T14:03:20.0000000+00:00</time></trkpt><trkpt lat="39.47819355" lon="-0.38777811"><ele>13.0</ele><time>2022-11-02T14:03:21.0000000+00:00</time></trkpt><trkpt lat="39.47820461" lon="-0.38776008"><ele>13.0</ele><time>2022-11-02T14:03:22.0000000+00:00</time></trkpt><trkpt lat="39.47822339" lon="-0.38774072"><ele>13.0</ele><time>2022-11-02T14:03:23.0000000+00:00</time></trkpt><trkpt lat="39.4782301" lon="-0.38772061"><ele>12.8</ele><time>2022-11-02T14:03:24.0000000+00:00</time></trkpt><trkpt lat="39.47824049" lon="-0.38771021"><ele>12.8</ele><time>2022-11-02T14:03:25.0000000+00:00</time></trkpt><trkpt lat="39.47824795" lon="-0.38769781"><ele>13.0</ele><time>2022-11-02T14:03:26.0000000+00:00</time></trkpt><trkpt lat="39.47825532" lon="-0.38768456"><ele>13.0</ele><time>2022-11-02T14:03:27.0000000+00:00</time></trkpt><trkpt lat="39.47826161" lon="-0.38767392"><ele>13.0</ele><time>2022-11-02T14:03:28.0000000+00:00</time></trkpt><trkpt lat="39.47826228" lon="-0.38765523"><ele>13.0</ele><time>2022-11-02T14:03:29.0000000+00:00</time></trkpt><trkpt lat="39.47826765" lon="-0.38763461"><ele>13.0</ele><time>2022-11-02T14:03:30.0000000+00:00</time></trkpt><trkpt lat="39.47828282" lon="-0.38761667"><ele>13.0</ele><time>2022-11-02T14:03:31.0000000+00:00</time></trkpt><trkpt lat="39.47829531" lon="-0.38760167"><ele>13.0</ele><time>2022-11-02T14:03:32.0000000+00:00</time></trkpt><trkpt lat="39.47830101" lon="-0.38759027"><ele>13.0</ele><time>2022-11-02T14:03:33.0000000+00:00</time></trkpt><trkpt lat="39.47831031" lon="-0.38757392"><ele>13.0</ele><time>2022-11-02T14:03:34.0000000+00:00</time></trkpt><trkpt lat="39.47832431" lon="-0.38756118"><ele>13.2</ele><time>2022-11-02T14:03:35.0000000+00:00</time></trkpt><trkpt lat="39.47833856" lon="-0.38754693"><ele>13.2</ele><time>2022-11-02T14:03:36.0000000+00:00</time></trkpt><trkpt lat="39.47834392" lon="-0.38753126"><ele>13.2</ele><time>2022-11-02T14:03:37.0000000+00:00</time></trkpt><trkpt lat="39.47834954" lon="-0.38751466"><ele>13.2</ele><time>2022-11-02T14:03:38.0000000+00:00</time></trkpt><trkpt lat="39.47835683" lon="-0.38749631"><ele>13.2</ele><time>2022-11-02T14:03:39.0000000+00:00</time></trkpt><trkpt lat="39.47835767" lon="-0.38747829"><ele>13.0</ele><time>2022-11-02T14:03:40.0000000+00:00</time></trkpt><trkpt lat="39.4783611" lon="-0.38746052"><ele>13.0</ele><time>2022-11-02T14:03:41.0000000+00:00</time></trkpt><trkpt lat="39.4783684" lon="-0.3874399"><ele>12.8</ele><time>2022-11-02T14:03:42.0000000+00:00</time></trkpt><trkpt lat="39.47836789" lon="-0.38741902"><ele>12.8</ele><time>2022-11-02T14:03:43.0000000+00:00</time></trkpt><trkpt lat="39.47837351" lon="-0.38740276"><ele>12.8</ele><time>2022-11-02T14:03:44.0000000+00:00</time></trkpt><trkpt lat="39.47837996" lon="-0.38739346"><ele>13.0</ele><time>2022-11-02T14:03:45.0000000+00:00</time></trkpt><trkpt lat="39.47839027" lon="-0.38738147"><ele>13.0</ele><time>2022-11-02T14:03:46.0000000+00:00</time></trkpt><trkpt lat="39.4783953" lon="-0.38736722"><ele>13.0</ele><time>2022-11-02T14:03:47.0000000+00:00</time></trkpt><trkpt lat="39.47839832" lon="-0.38735264"><ele>13.0</ele><time>2022-11-02T14:03:48.0000000+00:00</time></trkpt><trkpt lat="39.4784041" lon="-0.38734124"><ele>13.0</ele><time>2022-11-02T14:03:49.0000000+00:00</time></trkpt><trkpt lat="39.47841408" lon="-0.38732423"><ele>13.0</ele><time>2022-11-02T14:03:50.0000000+00:00</time></trkpt><trkpt lat="39.47843269" lon="-0.38730327"><ele>13.0</ele><time>2022-11-02T14:03:51.0000000+00:00</time></trkpt><trkpt lat="39.47844962" lon="-0.38728626"><ele>13.0</ele><time>2022-11-02T14:03:52.0000000+00:00</time></trkpt><trkpt lat="39.47845842" lon="-0.38726823"><ele>13.0</ele><time>2022-11-02T14:03:53.0000000+00:00</time></trkpt><trkpt lat="39.47846118" lon="-0.3872534"><ele>13.0</ele><time>2022-11-02T14:03:54.0000000+00:00</time></trkpt><trkpt lat="39.47846253" lon="-0.38723772"><ele>13.0</ele><time>2022-11-02T14:03:55.0000000+00:00</time></trkpt><trkpt lat="39.47846605" lon="-0.38721954"><ele>13.0</ele><time>2022-11-02T14:03:56.0000000+00:00</time></trkpt><trkpt lat="39.47847091" lon="-0.38720395"><ele>13.0</ele><time>2022-11-02T14:03:57.0000000+00:00</time></trkpt><trkpt lat="39.47847795" lon="-0.38718919"><ele>13.0</ele><time>2022-11-02T14:03:58.0000000+00:00</time></trkpt><trkpt lat="39.4784839" lon="-0.38717327"><ele>13.0</ele><time>2022-11-02T14:03:59.0000000+00:00</time></trkpt><trkpt lat="39.47848633" lon="-0.38715667"><ele>13.0</ele><time>2022-11-02T14:04:00.0000000+00:00</time></trkpt><trkpt lat="39.47848725" lon="-0.38714108"><ele>13.0</ele><time>2022-11-02T14:04:01.0000000+00:00</time></trkpt><trkpt lat="39.47848985" lon="-0.38712725"><ele>13.0</ele><time>2022-11-02T14:04:02.0000000+00:00</time></trkpt><trkpt lat="39.47849354" lon="-0.38711325"><ele>12.8</ele><time>2022-11-02T14:04:03.0000000+00:00</time></trkpt><trkpt lat="39.47850192" lon="-0.38709993"><ele>12.8</ele><time>2022-11-02T14:04:04.0000000+00:00</time></trkpt><trkpt lat="39.4785134" lon="-0.3870871"><ele>12.8</ele><time>2022-11-02T14:04:05.0000000+00:00</time></trkpt><trkpt lat="39.47852028" lon="-0.38707327"><ele>12.8</ele><time>2022-11-02T14:04:06.0000000+00:00</time></trkpt><trkpt lat="39.4785248" lon="-0.38705894"><ele>12.8</ele><time>2022-11-02T14:04:07.0000000+00:00</time></trkpt><trkpt lat="39.47853042" lon="-0.38704528"><ele>12.8</ele><time>2022-11-02T14:04:08.0000000+00:00</time></trkpt><trkpt lat="39.47853327" lon="-0.38703237"><ele>12.8</ele><time>2022-11-02T14:04:09.0000000+00:00</time></trkpt><trkpt lat="39.47853654" lon="-0.38701845"><ele>12.8</ele><time>2022-11-02T14:04:10.0000000+00:00</time></trkpt><trkpt lat="39.47854349" lon="-0.38700236"><ele>12.8</ele><time>2022-11-02T14:04:11.0000000+00:00</time></trkpt><trkpt lat="39.47854567" lon="-0.38699205"><ele>12.6</ele><time>2022-11-02T14:04:12.0000000+00:00</time></trkpt><trkpt lat="39.47855028" lon="-0.38697948"><ele>12.6</ele><time>2022-11-02T14:04:13.0000000+00:00</time></trkpt><trkpt lat="39.47856059" lon="-0.38696716"><ele>12.6</ele><time>2022-11-02T14:04:14.0000000+00:00</time></trkpt><trkpt lat="39.47857057" lon="-0.38695802"><ele>12.6</ele><time>2022-11-02T14:04:15.0000000+00:00</time></trkpt><trkpt lat="39.47858373" lon="-0.38694612"><ele>12.8</ele><time>2022-11-02T14:04:16.0000000+00:00</time></trkpt><trkpt lat="39.47859211" lon="-0.38693455"><ele>12.8</ele><time>2022-11-02T14:04:17.0000000+00:00</time></trkpt><trkpt lat="39.47860242" lon="-0.38691226"><ele>12.8</ele><time>2022-11-02T14:04:18.0000000+00:00</time></trkpt><trkpt lat="39.47860887" lon="-0.38689348"><ele>12.8</ele><time>2022-11-02T14:04:19.0000000+00:00</time></trkpt><trkpt lat="39.47861424" lon="-0.38687387"><ele>13.0</ele><time>2022-11-02T14:04:20.0000000+00:00</time></trkpt><trkpt lat="39.47861868" lon="-0.38685584"><ele>13.0</ele><time>2022-11-02T14:04:21.0000000+00:00</time></trkpt><trkpt lat="39.47862513" lon="-0.38684042"><ele>13.0</ele><time>2022-11-02T14:04:22.0000000+00:00</time></trkpt><trkpt lat="39.47862815" lon="-0.38682575"><ele>13.0</ele><time>2022-11-02T14:04:23.0000000+00:00</time></trkpt><trkpt lat="39.47861876" lon="-0.38681578"><ele>13.0</ele><time>2022-11-02T14:04:24.0000000+00:00</time></trkpt><trkpt lat="39.47861726" lon="-0.38680907"><ele>13.0</ele><time>2022-11-02T14:04:25.0000000+00:00</time></trkpt><trkpt lat="39.47861851" lon="-0.38680664"><ele>13.0</ele><time>2022-11-02T14:04:26.0000000+00:00</time></trkpt><trkpt lat="39.47861692" lon="-0.38679684"><ele>13.2</ele><time>2022-11-02T14:04:27.0000000+00:00</time></trkpt><trkpt lat="39.4786139" lon="-0.3867882"><ele>13.2</ele><time>2022-11-02T14:04:28.0000000+00:00</time></trkpt><trkpt lat="39.47860309" lon="-0.38677999"><ele>13.2</ele><time>2022-11-02T14:04:29.0000000+00:00</time></trkpt><trkpt lat="39.47859462" lon="-0.38677203"><ele>13.4</ele><time>2022-11-02T14:04:30.0000000+00:00</time></trkpt><trkpt lat="39.47859177" lon="-0.38676264"><ele>13.4</ele><time>2022-11-02T14:04:31.0000000+00:00</time></trkpt><trkpt lat="39.47859261" lon="-0.38675476"><ele>13.4</ele><time>2022-11-02T14:04:32.0000000+00:00</time></trkpt><trkpt lat="39.47858649" lon="-0.38673573"><ele>13.4</ele><time>2022-11-02T14:04:33.0000000+00:00</time></trkpt><trkpt lat="39.47857484" lon="-0.38672375"><ele>13.4</ele><time>2022-11-02T14:04:34.0000000+00:00</time></trkpt><trkpt lat="39.4785761" lon="-0.38671838"><ele>13.4</ele><time>2022-11-02T14:04:35.0000000+00:00</time></trkpt><trkpt lat="39.47858213" lon="-0.3867131"><ele>13.4</ele><time>2022-11-02T14:04:36.0000000+00:00</time></trkpt><trkpt lat="39.47858423" lon="-0.38670396"><ele>13.4</ele><time>2022-11-02T14:04:37.0000000+00:00</time></trkpt><trkpt lat="39.478587" lon="-0.38669617"><ele>13.2</ele><time>2022-11-02T14:04:38.0000000+00:00</time></trkpt><trkpt lat="39.47858322" lon="-0.3866867"><ele>13.2</ele><time>2022-11-02T14:04:39.0000000+00:00</time></trkpt><trkpt lat="39.47858272" lon="-0.38667505"><ele>13.2</ele><time>2022-11-02T14:04:40.0000000+00:00</time></trkpt><trkpt lat="39.47857744" lon="-0.38666247"><ele>13.2</ele><time>2022-11-02T14:04:41.0000000+00:00</time></trkpt><trkpt lat="39.47857493" lon="-0.38665233"><ele>13.2</ele><time>2022-11-02T14:04:42.0000000+00:00</time></trkpt><trkpt lat="39.47857602" lon="-0.38664362"><ele>13.2</ele><time>2022-11-02T14:04:43.0000000+00:00</time></trkpt><trkpt lat="39.47858029" lon="-0.38663255"><ele>13.2</ele><time>2022-11-02T14:04:44.0000000+00:00</time></trkpt><trkpt lat="39.47858172" lon="-0.38662199"><ele>13.2</ele><time>2022-11-02T14:04:45.0000000+00:00</time></trkpt><trkpt lat="39.47856906" lon="-0.38660497"><ele>13.2</ele><time>2022-11-02T14:04:46.0000000+00:00</time></trkpt><trkpt lat="39.4785533" lon="-0.38658368"><ele>13.2</ele><time>2022-11-02T14:04:47.0000000+00:00</time></trkpt><trkpt lat="39.47854517" lon="-0.38656013"><ele>13.2</ele><time>2022-11-02T14:04:48.0000000+00:00</time></trkpt><trkpt lat="39.47855833" lon="-0.38653591"><ele>13.2</ele><time>2022-11-02T14:04:49.0000000+00:00</time></trkpt><trkpt lat="39.47856168" lon="-0.38651604"><ele>13.2</ele><time>2022-11-02T14:04:50.0000000+00:00</time></trkpt><trkpt lat="39.4785523" lon="-0.38649257"><ele>13.2</ele><time>2022-11-02T14:04:51.0000000+00:00</time></trkpt><trkpt lat="39.4785507" lon="-0.38646952"><ele>13.2</ele><time>2022-11-02T14:04:52.0000000+00:00</time></trkpt><trkpt lat="39.47854291" lon="-0.38645192"><ele>13.2</ele><time>2022-11-02T14:04:53.0000000+00:00</time></trkpt><trkpt lat="39.47853721" lon="-0.38644035"><ele>13.2</ele><time>2022-11-02T14:04:54.0000000+00:00</time></trkpt><trkpt lat="39.47853436" lon="-0.38642837"><ele>13.2</ele><time>2022-11-02T14:04:55.0000000+00:00</time></trkpt><trkpt lat="39.47853184" lon="-0.38641303"><ele>13.2</ele><time>2022-11-02T14:04:56.0000000+00:00</time></trkpt><trkpt lat="39.47853101" lon="-0.3863971"><ele>13.2</ele><time>2022-11-02T14:04:57.0000000+00:00</time></trkpt><trkpt lat="39.47852413" lon="-0.3863795"><ele>13.2</ele><time>2022-11-02T14:04:58.0000000+00:00</time></trkpt><trkpt lat="39.47851751" lon="-0.38635494"><ele>13.2</ele><time>2022-11-02T14:04:59.0000000+00:00</time></trkpt><trkpt lat="39.47851617" lon="-0.38633164"><ele>13.2</ele><time>2022-11-02T14:05:00.0000000+00:00</time></trkpt><trkpt lat="39.47851022" lon="-0.38630566"><ele>13.2</ele><time>2022-11-02T14:05:01.0000000+00:00</time></trkpt><trkpt lat="39.47850879" lon="-0.38627967"><ele>13.2</ele><time>2022-11-02T14:05:02.0000000+00:00</time></trkpt><trkpt lat="39.47850728" lon="-0.38626886"><ele>13.2</ele><time>2022-11-02T14:05:03.0000000+00:00</time></trkpt><trkpt lat="39.4785124" lon="-0.38625008"><ele>13.2</ele><time>2022-11-02T14:05:04.0000000+00:00</time></trkpt><trkpt lat="39.47852522" lon="-0.38623106"><ele>13.2</ele><time>2022-11-02T14:05:05.0000000+00:00</time></trkpt><trkpt lat="39.47851919" lon="-0.38622217"><ele>13.2</ele><time>2022-11-02T14:05:06.0000000+00:00</time></trkpt><trkpt lat="39.47848465" lon="-0.3862117"><ele>13.2</ele><time>2022-11-02T14:05:07.0000000+00:00</time></trkpt><trkpt lat="39.47848138" lon="-0.38619367"><ele>13.2</ele><time>2022-11-02T14:05:08.0000000+00:00</time></trkpt><trkpt lat="39.47848063" lon="-0.38617808"><ele>13.2</ele><time>2022-11-02T14:05:09.0000000+00:00</time></trkpt><trkpt lat="39.47847996" lon="-0.38616501"><ele>13.2</ele><time>2022-11-02T14:05:10.0000000+00:00</time></trkpt><trkpt lat="39.47848004" lon="-0.3861552"><ele>13.2</ele><time>2022-11-02T14:05:11.0000000+00:00</time></trkpt><trkpt lat="39.47848088" lon="-0.38614045"><ele>13.2</ele><time>2022-11-02T14:05:12.0000000+00:00</time></trkpt><trkpt lat="39.47849186" lon="-0.38612243"><ele>13.2</ele><time>2022-11-02T14:05:13.0000000+00:00</time></trkpt><trkpt lat="39.47849697" lon="-0.38610684"><ele>13.4</ele><time>2022-11-02T14:05:14.0000000+00:00</time></trkpt><trkpt lat="39.47850209" lon="-0.38608655"><ele>13.4</ele><time>2022-11-02T14:05:15.0000000+00:00</time></trkpt><trkpt lat="39.47850435" lon="-0.38606996"><ele>13.4</ele><time>2022-11-02T14:05:16.0000000+00:00</time></trkpt><trkpt lat="39.47850762" lon="-0.38605646"><ele>13.4</ele><time>2022-11-02T14:05:17.0000000+00:00</time></trkpt><trkpt lat="39.47851156" lon="-0.3860371"><ele>13.4</ele><time>2022-11-02T14:05:18.0000000+00:00</time></trkpt><trkpt lat="39.47851516" lon="-0.38603358"><ele>13.2</ele><time>2022-11-02T14:05:19.0000000+00:00</time></trkpt><trkpt lat="39.47851743" lon="-0.38602042"><ele>13.2</ele><time>2022-11-02T14:05:20.0000000+00:00</time></trkpt><trkpt lat="39.47852086" lon="-0.38600793"><ele>13.2</ele><time>2022-11-02T14:05:21.0000000+00:00</time></trkpt><trkpt lat="39.47852095" lon="-0.38599075"><ele>13.2</ele><time>2022-11-02T14:05:22.0000000+00:00</time></trkpt><trkpt lat="39.47852338" lon="-0.38597482"><ele>13.2</ele><time>2022-11-02T14:05:23.0000000+00:00</time></trkpt><trkpt lat="39.47852547" lon="-0.38596091"><ele>13.2</ele><time>2022-11-02T14:05:24.0000000+00:00</time></trkpt><trkpt lat="39.47852572" lon="-0.38595035"><ele>13.2</ele><time>2022-11-02T14:05:25.0000000+00:00</time></trkpt><trkpt lat="39.47852522" lon="-0.38593778"><ele>13.2</ele><time>2022-11-02T14:05:26.0000000+00:00</time></trkpt><trkpt lat="39.4785243" lon="-0.38592311"><ele>13.2</ele><time>2022-11-02T14:05:27.0000000+00:00</time></trkpt><trkpt lat="39.47852556" lon="-0.38590735"><ele>13.2</ele><time>2022-11-02T14:05:28.0000000+00:00</time></trkpt><trkpt lat="39.47852572" lon="-0.38589637"><ele>13.4</ele><time>2022-11-02T14:05:29.0000000+00:00</time></trkpt><trkpt lat="39.47852153" lon="-0.38588564"><ele>13.4</ele><time>2022-11-02T14:05:30.0000000+00:00</time></trkpt><trkpt lat="39.47851835" lon="-0.38587349"><ele>13.4</ele><time>2022-11-02T14:05:31.0000000+00:00</time></trkpt><trkpt lat="39.47852086" lon="-0.38585815"><ele>13.4</ele><time>2022-11-02T14:05:32.0000000+00:00</time></trkpt><trkpt lat="39.4785248" lon="-0.38584038"><ele>13.4</ele><time>2022-11-02T14:05:33.0000000+00:00</time></trkpt><trkpt lat="39.47852422" lon="-0.38582353"><ele>13.4</ele><time>2022-11-02T14:05:34.0000000+00:00</time></trkpt><trkpt lat="39.47851969" lon="-0.38581138"><ele>13.4</ele><time>2022-11-02T14:05:35.0000000+00:00</time></trkpt><trkpt lat="39.47851709" lon="-0.38579864"><ele>13.4</ele><time>2022-11-02T14:05:36.0000000+00:00</time></trkpt><trkpt lat="39.47851575" lon="-0.38578791"><ele>13.4</ele><time>2022-11-02T14:05:37.0000000+00:00</time></trkpt><trkpt lat="39.47851533" lon="-0.38577542"><ele>13.4</ele><time>2022-11-02T14:05:38.0000000+00:00</time></trkpt><trkpt lat="39.47851617" lon="-0.38576092"><ele>13.4</ele><time>2022-11-02T14:05:39.0000000+00:00</time></trkpt><trkpt lat="39.478516" lon="-0.3857491"><ele>13.4</ele><time>2022-11-02T14:05:40.0000000+00:00</time></trkpt><trkpt lat="39.47851759" lon="-0.38573661"><ele>13.4</ele><time>2022-11-02T14:05:41.0000000+00:00</time></trkpt><trkpt lat="39.47851625" lon="-0.38572278"><ele>13.4</ele><time>2022-11-02T14:05:42.0000000+00:00</time></trkpt><trkpt lat="39.47851349" lon="-0.38571239"><ele>13.4</ele><time>2022-11-02T14:05:43.0000000+00:00</time></trkpt><trkpt lat="39.47851173" lon="-0.38570208"><ele>13.4</ele><time>2022-11-02T14:05:44.0000000+00:00</time></trkpt><trkpt lat="39.47850972" lon="-0.38568808"><ele>13.4</ele><time>2022-11-02T14:05:45.0000000+00:00</time></trkpt><trkpt lat="39.47851013" lon="-0.38567458"><ele>13.4</ele><time>2022-11-02T14:05:46.0000000+00:00</time></trkpt><trkpt lat="39.4785098" lon="-0.38566067"><ele>13.4</ele><time>2022-11-02T14:05:47.0000000+00:00</time></trkpt><trkpt lat="39.47850963" lon="-0.38564759"><ele>13.4</ele><time>2022-11-02T14:05:48.0000000+00:00</time></trkpt><trkpt lat="39.47851198" lon="-0.385632"><ele>13.4</ele><time>2022-11-02T14:05:49.0000000+00:00</time></trkpt><trkpt lat="39.47851743" lon="-0.38561314"><ele>13.4</ele><time>2022-11-02T14:05:50.0000000+00:00</time></trkpt><trkpt lat="39.47851676" lon="-0.3855942"><ele>13.4</ele><time>2022-11-02T14:05:51.0000000+00:00</time></trkpt><trkpt lat="39.47851759" lon="-0.38558037"><ele>13.4</ele><time>2022-11-02T14:05:52.0000000+00:00</time></trkpt><trkpt lat="39.47851315" lon="-0.38556067"><ele>13.4</ele><time>2022-11-02T14:05:53.0000000+00:00</time></trkpt><trkpt lat="39.47850737" lon="-0.38554634"><ele>13.4</ele><time>2022-11-02T14:05:54.0000000+00:00</time></trkpt><trkpt lat="39.47849371" lon="-0.38554349"><ele>13.4</ele><time>2022-11-02T14:05:55.0000000+00:00</time></trkpt><trkpt lat="39.47848038" lon="-0.38553813"><ele>13.4</ele><time>2022-11-02T14:05:56.0000000+00:00</time></trkpt><trkpt lat="39.47846462" lon="-0.38552606"><ele>13.4</ele><time>2022-11-02T14:05:57.0000000+00:00</time></trkpt><trkpt lat="39.47846236" lon="-0.38552522"><ele>13.4</ele><time>2022-11-02T14:05:58.0000000+00:00</time></trkpt><trkpt lat="39.47846286" lon="-0.38552824"><ele>13.4</ele><time>2022-11-02T14:05:59.0000000+00:00</time></trkpt><trkpt lat="39.47846236" lon="-0.38553184"><ele>13.4</ele><time>2022-11-02T14:06:00.0000000+00:00</time></trkpt><trkpt lat="39.47846269" lon="-0.38553695"><ele>13.6</ele><time>2022-11-02T14:06:01.0000000+00:00</time></trkpt><trkpt lat="39.47846303" lon="-0.38554416"><ele>13.6</ele><time>2022-11-02T14:06:02.0000000+00:00</time></trkpt><trkpt lat="39.47846211" lon="-0.38554701"><ele>13.6</ele><time>2022-11-02T14:06:03.0000000+00:00</time></trkpt><trkpt lat="39.47845565" lon="-0.38554307"><ele>13.6</ele><time>2022-11-02T14:06:04.0000000+00:00</time></trkpt><trkpt lat="39.4784502" lon="-0.38553779"><ele>13.6</ele><time>2022-11-02T14:06:05.0000000+00:00</time></trkpt><trkpt lat="39.47842372" lon="-0.38552119"><ele>13.6</ele><time>2022-11-02T14:06:06.0000000+00:00</time></trkpt><trkpt lat="39.47842539" lon="-0.38552295"><ele>13.6</ele><time>2022-11-02T14:06:07.0000000+00:00</time></trkpt><trkpt lat="39.47840947" lon="-0.38551491"><ele>13.6</ele><time>2022-11-02T14:06:08.0000000+00:00</time></trkpt><trkpt lat="39.47838952" lon="-0.38550619"><ele>13.6</ele><time>2022-11-02T14:06:09.0000000+00:00</time></trkpt><trkpt lat="39.4783756" lon="-0.38550309"><ele>13.6</ele><time>2022-11-02T14:06:10.0000000+00:00</time></trkpt><trkpt lat="39.47835549" lon="-0.38550493"><ele>13.6</ele><time>2022-11-02T14:06:11.0000000+00:00</time></trkpt><trkpt lat="39.47832733" lon="-0.38550661"><ele>13.6</ele><time>2022-11-02T14:06:12.0000000+00:00</time></trkpt><trkpt lat="39.47829866" lon="-0.38550342"><ele>13.6</ele><time>2022-11-02T14:06:13.0000000+00:00</time></trkpt><trkpt lat="39.47827896" lon="-0.38550183"><ele>13.6</ele><time>2022-11-02T14:06:14.0000000+00:00</time></trkpt><trkpt lat="39.47827083" lon="-0.38550477"><ele>13.6</ele><time>2022-11-02T14:06:15.0000000+00:00</time></trkpt><trkpt lat="39.47826446" lon="-0.38549881"><ele>13.6</ele><time>2022-11-02T14:06:16.0000000+00:00</time></trkpt><trkpt lat="39.47825851" lon="-0.38548901"><ele>13.6</ele><time>2022-11-02T14:06:17.0000000+00:00</time></trkpt><trkpt lat="39.47824124" lon="-0.38548331"><ele>13.6</ele><time>2022-11-02T14:06:18.0000000+00:00</time></trkpt><trkpt lat="39.4782259" lon="-0.38548079"><ele>13.6</ele><time>2022-11-02T14:06:19.0000000+00:00</time></trkpt><trkpt lat="39.47821191" lon="-0.38548247"><ele>13.6</ele><time>2022-11-02T14:06:20.0000000+00:00</time></trkpt><trkpt lat="39.47819858" lon="-0.38547032"><ele>13.6</ele><time>2022-11-02T14:06:21.0000000+00:00</time></trkpt><trkpt lat="39.47818852" lon="-0.38546135"><ele>13.6</ele><time>2022-11-02T14:06:22.0000000+00:00</time></trkpt><trkpt lat="39.47817829" lon="-0.38545967"><ele>13.6</ele><time>2022-11-02T14:06:23.0000000+00:00</time></trkpt><trkpt lat="39.47816949" lon="-0.38545238"><ele>13.6</ele><time>2022-11-02T14:06:24.0000000+00:00</time></trkpt><trkpt lat="39.47816555" lon="-0.38544869"><ele>13.6</ele><time>2022-11-02T14:06:25.0000000+00:00</time></trkpt><trkpt lat="39.47816078" lon="-0.38544467"><ele>13.6</ele><time>2022-11-02T14:06:26.0000000+00:00</time></trkpt><trkpt lat="39.47815365" lon="-0.38543436"><ele>13.6</ele><time>2022-11-02T14:06:27.0000000+00:00</time></trkpt><trkpt lat="39.47814535" lon="-0.38542589"><ele>13.6</ele><time>2022-11-02T14:06:28.0000000+00:00</time></trkpt><trkpt lat="39.47813546" lon="-0.385416"><ele>13.6</ele><time>2022-11-02T14:06:29.0000000+00:00</time></trkpt><trkpt lat="39.47813488" lon="-0.38541399"><ele>13.6</ele><time>2022-11-02T14:06:30.0000000+00:00</time></trkpt><trkpt lat="39.47813664" lon="-0.38541416"><ele>13.6</ele><time>2022-11-02T14:06:31.0000000+00:00</time></trkpt><trkpt lat="39.47812675" lon="-0.38541634"><ele>13.8</ele><time>2022-11-02T14:06:32.0000000+00:00</time></trkpt><trkpt lat="39.47811442" lon="-0.3854134"><ele>13.8</ele><time>2022-11-02T14:06:33.0000000+00:00</time></trkpt><trkpt lat="39.47809749" lon="-0.385416"><ele>13.8</ele><time>2022-11-02T14:06:34.0000000+00:00</time></trkpt><trkpt lat="39.47808559" lon="-0.38542296"><ele>13.8</ele><time>2022-11-02T14:06:35.0000000+00:00</time></trkpt><trkpt lat="39.47807252" lon="-0.38543168"><ele>14.0</ele><time>2022-11-02T14:06:36.0000000+00:00</time></trkpt><trkpt lat="39.47807511" lon="-0.38543402"><ele>14.0</ele><time>2022-11-02T14:06:37.0000000+00:00</time></trkpt><trkpt lat="39.47807461" lon="-0.38542816"><ele>14.0</ele><time>2022-11-02T14:06:38.0000000+00:00</time></trkpt><trkpt lat="39.47807151" lon="-0.3854295"><ele>14.0</ele><time>2022-11-02T14:06:39.0000000+00:00</time></trkpt><trkpt lat="39.47806229" lon="-0.38543721"><ele>14.0</ele><time>2022-11-02T14:06:40.0000000+00:00</time></trkpt><trkpt lat="39.47806564" lon="-0.38542715"><ele>14.0</ele><time>2022-11-02T14:06:41.0000000+00:00</time></trkpt><trkpt lat="39.47805843" lon="-0.38542564"><ele>14.0</ele><time>2022-11-02T14:06:42.0000000+00:00</time></trkpt><trkpt lat="39.47804754" lon="-0.38543469"><ele>14.0</ele><time>2022-11-02T14:06:43.0000000+00:00</time></trkpt><trkpt lat="39.47804167" lon="-0.385445"><ele>14.0</ele><time>2022-11-02T14:06:44.0000000+00:00</time></trkpt><trkpt lat="39.47803052" lon="-0.38545188"><ele>14.0</ele><time>2022-11-02T14:06:45.0000000+00:00</time></trkpt><trkpt lat="39.47800462" lon="-0.38546101"><ele>14.0</ele><time>2022-11-02T14:06:46.0000000+00:00</time></trkpt><trkpt lat="39.47797847" lon="-0.38546998"><ele>13.8</ele><time>2022-11-02T14:06:47.0000000+00:00</time></trkpt><trkpt lat="39.47795869" lon="-0.38547811"><ele>13.8</ele><time>2022-11-02T14:06:48.0000000+00:00</time></trkpt><trkpt lat="39.47794402" lon="-0.38548666"><ele>13.8</ele><time>2022-11-02T14:06:49.0000000+00:00</time></trkpt><trkpt lat="39.47792072" lon="-0.38548465"><ele>13.8</ele><time>2022-11-02T14:06:50.0000000+00:00</time></trkpt><trkpt lat="39.47790219" lon="-0.38548415"><ele>13.8</ele><time>2022-11-02T14:06:51.0000000+00:00</time></trkpt><trkpt lat="39.47788987" lon="-0.38548515"><ele>13.8</ele><time>2022-11-02T14:06:52.0000000+00:00</time></trkpt><trkpt lat="39.47788166" lon="-0.38547702"><ele>13.8</ele><time>2022-11-02T14:06:53.0000000+00:00</time></trkpt><trkpt lat="39.47788007" lon="-0.38546671"><ele>13.8</ele><time>2022-11-02T14:06:54.0000000+00:00</time></trkpt><trkpt lat="39.47787956" lon="-0.38545691"><ele>13.8</ele><time>2022-11-02T14:06:55.0000000+00:00</time></trkpt><trkpt lat="39.47787889" lon="-0.38544324"><ele>13.8</ele><time>2022-11-02T14:06:56.0000000+00:00</time></trkpt><trkpt lat="39.47788065" lon="-0.38544199"><ele>13.8</ele><time>2022-11-02T14:06:57.0000000+00:00</time></trkpt><trkpt lat="39.47786314" lon="-0.38541709"><ele>13.8</ele><time>2022-11-02T14:06:58.0000000+00:00</time></trkpt><trkpt lat="39.47784696" lon="-0.38539412"><ele>13.8</ele><time>2022-11-02T14:06:59.0000000+00:00</time></trkpt><trkpt lat="39.47783279" lon="-0.38537049"><ele>13.8</ele><time>2022-11-02T14:07:00.0000000+00:00</time></trkpt><trkpt lat="39.47781846" lon="-0.38535154"><ele>13.8</ele><time>2022-11-02T14:07:01.0000000+00:00</time></trkpt><trkpt lat="39.47781662" lon="-0.38534551"><ele>13.8</ele><time>2022-11-02T14:07:02.0000000+00:00</time></trkpt><trkpt lat="39.47780924" lon="-0.38533378"><ele>13.8</ele><time>2022-11-02T14:07:03.0000000+00:00</time></trkpt><trkpt lat="39.47781569" lon="-0.38533168"><ele>13.8</ele><time>2022-11-02T14:07:04.0000000+00:00</time></trkpt><trkpt lat="39.47781419" lon="-0.38533277"><ele>13.8</ele><time>2022-11-02T14:07:05.0000000+00:00</time></trkpt><trkpt lat="39.47781276" lon="-0.38533252"><ele>13.8</ele><time>2022-11-02T14:07:06.0000000+00:00</time></trkpt><trkpt lat="39.47780857" lon="-0.38532573"><ele>13.8</ele><time>2022-11-02T14:07:07.0000000+00:00</time></trkpt><trkpt lat="39.47780673" lon="-0.38532632"><ele>13.8</ele><time>2022-11-02T14:07:08.0000000+00:00</time></trkpt><trkpt lat="39.47780287" lon="-0.38532305"><ele>14.0</ele><time>2022-11-02T14:07:09.0000000+00:00</time></trkpt><trkpt lat="39.47779885" lon="-0.38532095"><ele>14.0</ele><time>2022-11-02T14:07:10.0000000+00:00</time></trkpt><trkpt lat="39.47778602" lon="-0.38531601"><ele>14.0</ele><time>2022-11-02T14:07:11.0000000+00:00</time></trkpt><trkpt lat="39.47778527" lon="-0.38529681"><ele>14.0</ele><time>2022-11-02T14:07:12.0000000+00:00</time></trkpt><trkpt lat="39.47777814" lon="-0.38528885"><ele>14.0</ele><time>2022-11-02T14:07:13.0000000+00:00</time></trkpt><trkpt lat="39.47777135" lon="-0.38528164"><ele>14.0</ele><time>2022-11-02T14:07:14.0000000+00:00</time></trkpt><trkpt lat="39.47775803" lon="-0.38526932"><ele>14.0</ele><time>2022-11-02T14:07:15.0000000+00:00</time></trkpt><trkpt lat="39.4777535" lon="-0.38526521"><ele>14.0</ele><time>2022-11-02T14:07:16.0000000+00:00</time></trkpt><trkpt lat="39.47775518" lon="-0.38526529"><ele>14.0</ele><time>2022-11-02T14:07:17.0000000+00:00</time></trkpt><trkpt lat="39.47776884" lon="-0.3852632"><ele>14.0</ele><time>2022-11-02T14:07:18.0000000+00:00</time></trkpt><trkpt lat="39.47778711" lon="-0.38525323"><ele>14.0</ele><time>2022-11-02T14:07:19.0000000+00:00</time></trkpt><trkpt lat="39.47778309" lon="-0.3852456"><ele>14.0</ele><time>2022-11-02T14:07:20.0000000+00:00</time></trkpt><trkpt lat="39.47778552" lon="-0.38524535"><ele>14.0</ele><time>2022-11-02T14:07:21.0000000+00:00</time></trkpt><trkpt lat="39.47778108" lon="-0.38524191"><ele>14.0</ele><time>2022-11-02T14:07:22.0000000+00:00</time></trkpt><trkpt lat="39.47778183" lon="-0.38523286"><ele>13.8</ele><time>2022-11-02T14:07:23.0000000+00:00</time></trkpt><trkpt lat="39.47777705" lon="-0.38522892"><ele>13.8</ele><time>2022-11-02T14:07:24.0000000+00:00</time></trkpt><trkpt lat="39.47777722" lon="-0.3852311"><ele>13.8</ele><time>2022-11-02T14:07:25.0000000+00:00</time></trkpt><trkpt lat="39.47778133" lon="-0.38522707"><ele>13.8</ele><time>2022-11-02T14:07:26.0000000+00:00</time></trkpt><trkpt lat="39.4777846" lon="-0.38522246"><ele>13.8</ele><time>2022-11-02T14:07:27.0000000+00:00</time></trkpt><trkpt lat="39.47778803" lon="-0.38522573"><ele>13.8</ele><time>2022-11-02T14:07:28.0000000+00:00</time></trkpt><trkpt lat="39.47779315" lon="-0.38523319"><ele>13.8</ele><time>2022-11-02T14:07:29.0000000+00:00</time></trkpt><trkpt lat="39.47779642" lon="-0.3852404"><ele>13.8</ele><time>2022-11-02T14:07:30.0000000+00:00</time></trkpt><trkpt lat="39.47780069" lon="-0.38522791"><ele>14.0</ele><time>2022-11-02T14:07:31.0000000+00:00</time></trkpt><trkpt lat="39.47780077" lon="-0.3852197"><ele>14.0</ele><time>2022-11-02T14:07:32.0000000+00:00</time></trkpt><trkpt lat="39.47778854" lon="-0.38522431"><ele>14.0</ele><time>2022-11-02T14:07:33.0000000+00:00</time></trkpt><trkpt lat="39.47777278" lon="-0.38522841"><ele>14.0</ele><time>2022-11-02T14:07:34.0000000+00:00</time></trkpt><trkpt lat="39.47775467" lon="-0.3852295"><ele>14.0</ele><time>2022-11-02T14:07:35.0000000+00:00</time></trkpt><trkpt lat="39.47774017" lon="-0.38522833"><ele>14.0</ele><time>2022-11-02T14:07:36.0000000+00:00</time></trkpt><trkpt lat="39.47773883" lon="-0.38521492"><ele>14.0</ele><time>2022-11-02T14:07:37.0000000+00:00</time></trkpt><trkpt lat="39.47773456" lon="-0.38521157"><ele>14.0</ele><time>2022-11-02T14:07:38.0000000+00:00</time></trkpt><trkpt lat="39.47772928" lon="-0.38521852"><ele>14.0</ele><time>2022-11-02T14:07:39.0000000+00:00</time></trkpt><trkpt lat="39.47772123" lon="-0.38522758"><ele>14.0</ele><time>2022-11-02T14:07:40.0000000+00:00</time></trkpt><trkpt lat="39.4777095" lon="-0.38523235"><ele>14.0</ele><time>2022-11-02T14:07:41.0000000+00:00</time></trkpt><trkpt lat="39.47769407" lon="-0.38523546"><ele>14.0</ele><time>2022-11-02T14:07:42.0000000+00:00</time></trkpt><trkpt lat="39.47768116" lon="-0.38524224"><ele>14.0</ele><time>2022-11-02T14:07:43.0000000+00:00</time></trkpt><trkpt lat="39.47766675" lon="-0.3852461"><ele>14.0</ele><time>2022-11-02T14:07:44.0000000+00:00</time></trkpt><trkpt lat="39.4776535" lon="-0.38524149"><ele>14.0</ele><time>2022-11-02T14:07:45.0000000+00:00</time></trkpt><trkpt lat="39.47763884" lon="-0.38523277"><ele>14.0</ele><time>2022-11-02T14:07:46.0000000+00:00</time></trkpt><trkpt lat="39.47762073" lon="-0.38521718"><ele>14.2</ele><time>2022-11-02T14:07:47.0000000+00:00</time></trkpt><trkpt lat="39.47760455" lon="-0.38521341"><ele>14.2</ele><time>2022-11-02T14:07:48.0000000+00:00</time></trkpt><trkpt lat="39.47758192" lon="-0.38522431"><ele>14.2</ele><time>2022-11-02T14:07:49.0000000+00:00</time></trkpt><trkpt lat="39.47755879" lon="-0.3852425"><ele>14.2</ele><time>2022-11-02T14:07:50.0000000+00:00</time></trkpt><trkpt lat="39.47753658" lon="-0.38525004"><ele>14.2</ele><time>2022-11-02T14:07:51.0000000+00:00</time></trkpt><trkpt lat="39.47751327" lon="-0.38525784"><ele>14.2</ele><time>2022-11-02T14:07:52.0000000+00:00</time></trkpt><trkpt lat="39.47749257" lon="-0.38526831"><ele>14.2</ele><time>2022-11-02T14:07:53.0000000+00:00</time></trkpt><trkpt lat="39.47747782" lon="-0.38526303"><ele>14.2</ele><time>2022-11-02T14:07:54.0000000+00:00</time></trkpt><trkpt lat="39.47746583" lon="-0.38524032"><ele>14.2</ele><time>2022-11-02T14:07:55.0000000+00:00</time></trkpt><trkpt lat="39.47745946" lon="-0.3852285"><ele>14.2</ele><time>2022-11-02T14:07:56.0000000+00:00</time></trkpt><trkpt lat="39.47744664" lon="-0.3852207"><ele>14.2</ele><time>2022-11-02T14:07:57.0000000+00:00</time></trkpt><trkpt lat="39.47742946" lon="-0.38521668"><ele>14.2</ele><time>2022-11-02T14:07:58.0000000+00:00</time></trkpt><trkpt lat="39.47741311" lon="-0.38522481"><ele>14.2</ele><time>2022-11-02T14:07:59.0000000+00:00</time></trkpt><trkpt lat="39.47739165" lon="-0.38523202"><ele>14.2</ele><time>2022-11-02T14:08:00.0000000+00:00</time></trkpt><trkpt lat="39.47738361" lon="-0.38523034"><ele>14.4</ele><time>2022-11-02T14:08:01.0000000+00:00</time></trkpt><trkpt lat="39.47736374" lon="-0.38522724"><ele>14.4</ele><time>2022-11-02T14:08:02.0000000+00:00</time></trkpt><trkpt lat="39.47734698" lon="-0.38522875"><ele>14.4</ele><time>2022-11-02T14:08:03.0000000+00:00</time></trkpt><trkpt lat="39.47733181" lon="-0.38523621"><ele>14.4</ele><time>2022-11-02T14:08:04.0000000+00:00</time></trkpt><trkpt lat="39.47731446" lon="-0.38522716"><ele>14.4</ele><time>2022-11-02T14:08:05.0000000+00:00</time></trkpt><trkpt lat="39.47730348" lon="-0.38523562"><ele>14.4</ele><time>2022-11-02T14:08:06.0000000+00:00</time></trkpt><trkpt lat="39.47729484" lon="-0.38525314"><ele>14.6</ele><time>2022-11-02T14:08:07.0000000+00:00</time></trkpt><trkpt lat="39.47728269" lon="-0.38526085"><ele>14.8</ele><time>2022-11-02T14:08:08.0000000+00:00</time></trkpt><trkpt lat="39.47726794" lon="-0.38526882"><ele>15.0</ele><time>2022-11-02T14:08:09.0000000+00:00</time></trkpt><trkpt lat="39.47725151" lon="-0.38527376"><ele>15.0</ele><time>2022-11-02T14:08:10.0000000+00:00</time></trkpt><trkpt lat="39.47723483" lon="-0.38528047"><ele>15.2</ele><time>2022-11-02T14:08:11.0000000+00:00</time></trkpt><trkpt lat="39.47721999" lon="-0.38529078"><ele>15.0</ele><time>2022-11-02T14:08:12.0000000+00:00</time></trkpt><trkpt lat="39.47720306" lon="-0.38529798"><ele>14.8</ele><time>2022-11-02T14:08:13.0000000+00:00</time></trkpt><trkpt lat="39.47718537" lon="-0.38532162"><ele>14.8</ele><time>2022-11-02T14:08:14.0000000+00:00</time></trkpt><trkpt lat="39.47716828" lon="-0.38533595"><ele>14.6</ele><time>2022-11-02T14:08:15.0000000+00:00</time></trkpt><trkpt lat="39.47714883" lon="-0.38533855"><ele>14.6</ele><time>2022-11-02T14:08:16.0000000+00:00</time></trkpt><trkpt lat="39.47712787" lon="-0.38535724"><ele>14.6</ele><time>2022-11-02T14:08:17.0000000+00:00</time></trkpt><trkpt lat="39.47711086" lon="-0.38536839"><ele>14.6</ele><time>2022-11-02T14:08:18.0000000+00:00</time></trkpt><trkpt lat="39.47709183" lon="-0.38537619"><ele>14.6</ele><time>2022-11-02T14:08:19.0000000+00:00</time></trkpt><trkpt lat="39.47708353" lon="-0.38537275"><ele>14.6</ele><time>2022-11-02T14:08:20.0000000+00:00</time></trkpt><trkpt lat="39.47707993" lon="-0.38537066"><ele>14.6</ele><time>2022-11-02T14:08:21.0000000+00:00</time></trkpt><trkpt lat="39.47706903" lon="-0.38537267"><ele>14.6</ele><time>2022-11-02T14:08:22.0000000+00:00</time></trkpt><trkpt lat="39.47706325" lon="-0.38536789"><ele>14.6</ele><time>2022-11-02T14:08:23.0000000+00:00</time></trkpt><trkpt lat="39.47705889" lon="-0.38534802"><ele>14.8</ele><time>2022-11-02T14:08:24.0000000+00:00</time></trkpt><trkpt lat="39.47706183" lon="-0.38533453"><ele>14.8</ele><time>2022-11-02T14:08:25.0000000+00:00</time></trkpt><trkpt lat="39.47705487" lon="-0.38532531"><ele>14.8</ele><time>2022-11-02T14:08:26.0000000+00:00</time></trkpt><trkpt lat="39.47704305" lon="-0.3853378"><ele>14.8</ele><time>2022-11-02T14:08:27.0000000+00:00</time></trkpt><trkpt lat="39.47703064" lon="-0.38534048"><ele>14.8</ele><time>2022-11-02T14:08:28.0000000+00:00</time></trkpt><trkpt lat="39.47701489" lon="-0.38533386"><ele>14.8</ele><time>2022-11-02T14:08:29.0000000+00:00</time></trkpt><trkpt lat="39.47700173" lon="-0.3853202"><ele>14.8</ele><time>2022-11-02T14:08:30.0000000+00:00</time></trkpt><trkpt lat="39.47699133" lon="-0.38530695"><ele>14.8</ele><time>2022-11-02T14:08:31.0000000+00:00</time></trkpt><trkpt lat="39.47699796" lon="-0.38529983"><ele>14.8</ele><time>2022-11-02T14:08:32.0000000+00:00</time></trkpt><trkpt lat="39.47700081" lon="-0.38528801"><ele>14.8</ele><time>2022-11-02T14:08:33.0000000+00:00</time></trkpt><trkpt lat="39.4769806" lon="-0.38527544"><ele>14.8</ele><time>2022-11-02T14:08:34.0000000+00:00</time></trkpt><trkpt lat="39.47698144" lon="-0.38528482"><ele>14.8</ele><time>2022-11-02T14:08:35.0000000+00:00</time></trkpt><trkpt lat="39.47698161" lon="-0.38528524"><ele>14.8</ele><time>2022-11-02T14:08:36.0000000+00:00</time></trkpt><trkpt lat="39.4769775" lon="-0.3852782"><ele>14.8</ele><time>2022-11-02T14:08:37.0000000+00:00</time></trkpt><trkpt lat="39.4769682" lon="-0.38526446"><ele>14.8</ele><time>2022-11-02T14:08:38.0000000+00:00</time></trkpt><trkpt lat="39.47696476" lon="-0.38525339"><ele>15.0</ele><time>2022-11-02T14:08:39.0000000+00:00</time></trkpt><trkpt lat="39.47695982" lon="-0.38524048"><ele>15.0</ele><time>2022-11-02T14:08:40.0000000+00:00</time></trkpt><trkpt lat="39.4769765" lon="-0.38523621"><ele>15.0</ele><time>2022-11-02T14:08:41.0000000+00:00</time></trkpt><trkpt lat="39.47700206" lon="-0.38524199"><ele>15.0</ele><time>2022-11-02T14:08:42.0000000+00:00</time></trkpt><trkpt lat="39.47702193" lon="-0.38523805"><ele>15.0</ele><time>2022-11-02T14:08:43.0000000+00:00</time></trkpt><trkpt lat="39.47704305" lon="-0.38524233"><ele>14.8</ele><time>2022-11-02T14:08:44.0000000+00:00</time></trkpt><trkpt lat="39.4770578" lon="-0.38524568"><ele>14.8</ele><time>2022-11-02T14:08:45.0000000+00:00</time></trkpt><trkpt lat="39.47706769" lon="-0.38524627"><ele>14.8</ele><time>2022-11-02T14:08:46.0000000+00:00</time></trkpt><trkpt lat="39.47706115" lon="-0.38522263"><ele>14.6</ele><time>2022-11-02T14:08:47.0000000+00:00</time></trkpt><trkpt lat="39.47706292" lon="-0.38522163"><ele>14.6</ele><time>2022-11-02T14:08:48.0000000+00:00</time></trkpt><trkpt lat="39.4770661" lon="-0.38521769"><ele>14.6</ele><time>2022-11-02T14:08:49.0000000+00:00</time></trkpt><trkpt lat="39.47707817" lon="-0.38520863"><ele>14.6</ele><time>2022-11-02T14:08:50.0000000+00:00</time></trkpt><trkpt lat="39.47709351" lon="-0.38520201"><ele>14.6</ele><time>2022-11-02T14:08:51.0000000+00:00</time></trkpt><trkpt lat="39.47709242" lon="-0.38517871"><ele>14.6</ele><time>2022-11-02T14:08:52.0000000+00:00</time></trkpt><trkpt lat="39.47708605" lon="-0.38515675"><ele>14.6</ele><time>2022-11-02T14:08:53.0000000+00:00</time></trkpt><trkpt lat="39.4770889" lon="-0.38514342"><ele>14.4</ele><time>2022-11-02T14:08:54.0000000+00:00</time></trkpt><trkpt lat="39.47708454" lon="-0.38512616"><ele>14.4</ele><time>2022-11-02T14:08:55.0000000+00:00</time></trkpt><trkpt lat="39.47707457" lon="-0.38511174"><ele>14.4</ele><time>2022-11-02T14:08:56.0000000+00:00</time></trkpt><trkpt lat="39.47707406" lon="-0.38510436"><ele>14.4</ele><time>2022-11-02T14:08:57.0000000+00:00</time></trkpt><trkpt lat="39.47707758" lon="-0.38509724"><ele>14.4</ele><time>2022-11-02T14:08:58.0000000+00:00</time></trkpt><trkpt lat="39.4770796" lon="-0.38509732"><ele>14.4</ele><time>2022-11-02T14:08:59.0000000+00:00</time></trkpt><trkpt lat="39.47707809" lon="-0.38509422"><ele>14.2</ele><time>2022-11-02T14:09:00.0000000+00:00</time></trkpt><trkpt lat="39.4770713" lon="-0.38509439"><ele>14.2</ele><time>2022-11-02T14:09:01.0000000+00:00</time></trkpt><trkpt lat="39.47707029" lon="-0.38509087"><ele>14.2</ele><time>2022-11-02T14:09:02.0000000+00:00</time></trkpt><trkpt lat="39.47706518" lon="-0.38508005"><ele>14.2</ele><time>2022-11-02T14:09:03.0000000+00:00</time></trkpt><trkpt lat="39.47706065" lon="-0.38506891"><ele>14.2</ele><time>2022-11-02T14:09:04.0000000+00:00</time></trkpt><trkpt lat="39.47705939" lon="-0.38506346"><ele>14.2</ele><time>2022-11-02T14:09:05.0000000+00:00</time></trkpt><trkpt lat="39.47705906" lon="-0.38504594"><ele>14.2</ele><time>2022-11-02T14:09:06.0000000+00:00</time></trkpt><trkpt lat="39.47705965" lon="-0.3850327"><ele>14.2</ele><time>2022-11-02T14:09:07.0000000+00:00</time></trkpt><trkpt lat="39.47705738" lon="-0.38501317"><ele>14.4</ele><time>2022-11-02T14:09:08.0000000+00:00</time></trkpt><trkpt lat="39.47705261" lon="-0.3849923"><ele>14.4</ele><time>2022-11-02T14:09:09.0000000+00:00</time></trkpt><trkpt lat="39.47704875" lon="-0.3849695"><ele>14.4</ele><time>2022-11-02T14:09:10.0000000+00:00</time></trkpt><trkpt lat="39.47704431" lon="-0.38495223"><ele>14.4</ele><time>2022-11-02T14:09:11.0000000+00:00</time></trkpt><trkpt lat="39.47703257" lon="-0.38492826"><ele>14.4</ele><time>2022-11-02T14:09:12.0000000+00:00</time></trkpt><trkpt lat="39.47700801" lon="-0.38490739"><ele>14.4</ele><time>2022-11-02T14:09:13.0000000+00:00</time></trkpt><trkpt lat="39.47699427" lon="-0.38488015"><ele>14.4</ele><time>2022-11-02T14:09:14.0000000+00:00</time></trkpt><trkpt lat="39.47698706" lon="-0.38485399"><ele>14.4</ele><time>2022-11-02T14:09:15.0000000+00:00</time></trkpt><trkpt lat="39.47697851" lon="-0.38482147"><ele>14.4</ele><time>2022-11-02T14:09:16.0000000+00:00</time></trkpt><trkpt lat="39.47697851" lon="-0.38479733"><ele>14.4</ele><time>2022-11-02T14:09:17.0000000+00:00</time></trkpt><trkpt lat="39.47697952" lon="-0.38477068"><ele>14.4</ele><time>2022-11-02T14:09:18.0000000+00:00</time></trkpt><trkpt lat="39.47697775" lon="-0.38474185"><ele>14.2</ele><time>2022-11-02T14:09:19.0000000+00:00</time></trkpt><trkpt lat="39.47696401" lon="-0.3847167"><ele>14.2</ele><time>2022-11-02T14:09:20.0000000+00:00</time></trkpt><trkpt lat="39.47695982" lon="-0.38469583"><ele>14.2</ele><time>2022-11-02T14:09:21.0000000+00:00</time></trkpt><trkpt lat="39.47695588" lon="-0.38467127"><ele>14.2</ele><time>2022-11-02T14:09:22.0000000+00:00</time></trkpt><trkpt lat="39.47695127" lon="-0.38465023"><ele>14.2</ele><time>2022-11-02T14:09:23.0000000+00:00</time></trkpt><trkpt lat="39.47694364" lon="-0.38463246"><ele>14.2</ele><time>2022-11-02T14:09:24.0000000+00:00</time></trkpt><trkpt lat="39.47693224" lon="-0.38461302"><ele>14.2</ele><time>2022-11-02T14:09:25.0000000+00:00</time></trkpt><trkpt lat="39.47692512" lon="-0.3845981"><ele>14.2</ele><time>2022-11-02T14:09:26.0000000+00:00</time></trkpt><trkpt lat="39.47692042" lon="-0.38458049"><ele>14.2</ele><time>2022-11-02T14:09:27.0000000+00:00</time></trkpt><trkpt lat="39.47691741" lon="-0.38456004"><ele>14.2</ele><time>2022-11-02T14:09:28.0000000+00:00</time></trkpt><trkpt lat="39.47691472" lon="-0.38454068"><ele>14.2</ele><time>2022-11-02T14:09:29.0000000+00:00</time></trkpt><trkpt lat="39.47690693" lon="-0.38451763"><ele>14.2</ele><time>2022-11-02T14:09:30.0000000+00:00</time></trkpt><trkpt lat="39.4769014" lon="-0.38449399"><ele>14.2</ele><time>2022-11-02T14:09:31.0000000+00:00</time></trkpt><trkpt lat="39.47689511" lon="-0.3844774"><ele>14.2</ele><time>2022-11-02T14:09:32.0000000+00:00</time></trkpt><trkpt lat="39.47689679" lon="-0.38446063"><ele>14.4</ele><time>2022-11-02T14:09:33.0000000+00:00</time></trkpt><trkpt lat="39.47689746" lon="-0.38444177"><ele>14.4</ele><time>2022-11-02T14:09:34.0000000+00:00</time></trkpt><trkpt lat="39.47689662" lon="-0.38442643"><ele>14.4</ele><time>2022-11-02T14:09:35.0000000+00:00</time></trkpt><trkpt lat="39.4768967" lon="-0.38440665"><ele>14.4</ele><time>2022-11-02T14:09:36.0000000+00:00</time></trkpt><trkpt lat="39.47689855" lon="-0.3843883"><ele>14.4</ele><time>2022-11-02T14:09:37.0000000+00:00</time></trkpt><trkpt lat="39.4769019" lon="-0.3843691"><ele>14.4</ele><time>2022-11-02T14:09:38.0000000+00:00</time></trkpt><trkpt lat="39.47690358" lon="-0.38435418"><ele>14.4</ele><time>2022-11-02T14:09:39.0000000+00:00</time></trkpt><trkpt lat="39.47690349" lon="-0.38434655"><ele>14.4</ele><time>2022-11-02T14:09:40.0000000+00:00</time></trkpt><trkpt lat="39.47690056" lon="-0.3843349"><ele>14.4</ele><time>2022-11-02T14:09:41.0000000+00:00</time></trkpt><trkpt lat="39.47689067" lon="-0.38431655"><ele>14.4</ele><time>2022-11-02T14:09:42.0000000+00:00</time></trkpt><trkpt lat="39.47688488" lon="-0.38429786"><ele>14.4</ele><time>2022-11-02T14:09:43.0000000+00:00</time></trkpt><trkpt lat="39.47688631" lon="-0.38427766"><ele>14.4</ele><time>2022-11-02T14:09:44.0000000+00:00</time></trkpt><trkpt lat="39.47689067" lon="-0.38427447"><ele>14.4</ele><time>2022-11-02T14:09:45.0000000+00:00</time></trkpt><trkpt lat="39.47688907" lon="-0.384266"><ele>14.4</ele><time>2022-11-02T14:09:46.0000000+00:00</time></trkpt><trkpt lat="39.47687541" lon="-0.38425033"><ele>14.2</ele><time>2022-11-02T14:09:47.0000000+00:00</time></trkpt><trkpt lat="39.47686284" lon="-0.38423843"><ele>14.2</ele><time>2022-11-02T14:09:48.0000000+00:00</time></trkpt><trkpt lat="39.47685261" lon="-0.38422736"><ele>14.2</ele><time>2022-11-02T14:09:49.0000000+00:00</time></trkpt><trkpt lat="39.47683803" lon="-0.38421521"><ele>14.2</ele><time>2022-11-02T14:09:50.0000000+00:00</time></trkpt><trkpt lat="39.47682789" lon="-0.38420398"><ele>14.2</ele><time>2022-11-02T14:09:51.0000000+00:00</time></trkpt><trkpt lat="39.47682068" lon="-0.38419258"><ele>14.2</ele><time>2022-11-02T14:09:52.0000000+00:00</time></trkpt><trkpt lat="39.47681255" lon="-0.38418462"><ele>14.2</ele><time>2022-11-02T14:09:53.0000000+00:00</time></trkpt><trkpt lat="39.47680333" lon="-0.38417875"><ele>14.2</ele><time>2022-11-02T14:09:54.0000000+00:00</time></trkpt><trkpt lat="39.47679134" lon="-0.38416978"><ele>14.2</ele><time>2022-11-02T14:09:55.0000000+00:00</time></trkpt><trkpt lat="39.47678137" lon="-0.38416157"><ele>14.2</ele><time>2022-11-02T14:09:56.0000000+00:00</time></trkpt><trkpt lat="39.47677424" lon="-0.38415142"><ele>14.2</ele><time>2022-11-02T14:09:57.0000000+00:00</time></trkpt><trkpt lat="39.47676376" lon="-0.38414614"><ele>14.2</ele><time>2022-11-02T14:09:58.0000000+00:00</time></trkpt><trkpt lat="39.47674641" lon="-0.38414086"><ele>14.2</ele><time>2022-11-02T14:09:59.0000000+00:00</time></trkpt><trkpt lat="39.47672529" lon="-0.38413424"><ele>14.4</ele><time>2022-11-02T14:10:00.0000000+00:00</time></trkpt><trkpt lat="39.47671029" lon="-0.38412443"><ele>14.4</ele><time>2022-11-02T14:10:01.0000000+00:00</time></trkpt><trkpt lat="39.47669369" lon="-0.38412435"><ele>14.4</ele><time>2022-11-02T14:10:02.0000000+00:00</time></trkpt><trkpt lat="39.47668036" lon="-0.38411521"><ele>14.4</ele><time>2022-11-02T14:10:03.0000000+00:00</time></trkpt><trkpt lat="39.47666679" lon="-0.38411153"><ele>14.4</ele><time>2022-11-02T14:10:04.0000000+00:00</time></trkpt><trkpt lat="39.4766527" lon="-0.3841049"><ele>14.4</ele><time>2022-11-02T14:10:05.0000000+00:00</time></trkpt><trkpt lat="39.47663686" lon="-0.38409828"><ele>14.4</ele><time>2022-11-02T14:10:06.0000000+00:00</time></trkpt><trkpt lat="39.47662295" lon="-0.38409476"><ele>14.4</ele><time>2022-11-02T14:10:07.0000000+00:00</time></trkpt><trkpt lat="39.47661054" lon="-0.38408948"><ele>14.4</ele><time>2022-11-02T14:10:08.0000000+00:00</time></trkpt><trkpt lat="39.47659688" lon="-0.38408588"><ele>14.4</ele><time>2022-11-02T14:10:09.0000000+00:00</time></trkpt><trkpt lat="39.47658883" lon="-0.38408387"><ele>14.4</ele><time>2022-11-02T14:10:10.0000000+00:00</time></trkpt><trkpt lat="39.47658045" lon="-0.38407406"><ele>14.4</ele><time>2022-11-02T14:10:11.0000000+00:00</time></trkpt><trkpt lat="39.4765766" lon="-0.38407305"><ele>14.4</ele><time>2022-11-02T14:10:12.0000000+00:00</time></trkpt><trkpt lat="39.47656729" lon="-0.38406752"><ele>14.4</ele><time>2022-11-02T14:10:13.0000000+00:00</time></trkpt><trkpt lat="39.47655623" lon="-0.38406274"><ele>14.4</ele><time>2022-11-02T14:10:14.0000000+00:00</time></trkpt><trkpt lat="39.47654047" lon="-0.38405587"><ele>14.4</ele><time>2022-11-02T14:10:15.0000000+00:00</time></trkpt><trkpt lat="39.47652555" lon="-0.38405143"><ele>14.4</ele><time>2022-11-02T14:10:16.0000000+00:00</time></trkpt><trkpt lat="39.47651164" lon="-0.38403944"><ele>14.4</ele><time>2022-11-02T14:10:17.0000000+00:00</time></trkpt><trkpt lat="39.47649714" lon="-0.38403399"><ele>14.4</ele><time>2022-11-02T14:10:18.0000000+00:00</time></trkpt><trkpt lat="39.47648532" lon="-0.38403374"><ele>14.4</ele><time>2022-11-02T14:10:19.0000000+00:00</time></trkpt><trkpt lat="39.47647291" lon="-0.38402603"><ele>14.4</ele><time>2022-11-02T14:10:20.0000000+00:00</time></trkpt><trkpt lat="39.47645766" lon="-0.38400935"><ele>14.4</ele><time>2022-11-02T14:10:21.0000000+00:00</time></trkpt><trkpt lat="39.47644835" lon="-0.38400114"><ele>14.4</ele><time>2022-11-02T14:10:22.0000000+00:00</time></trkpt><trkpt lat="39.47643804" lon="-0.38399804"><ele>14.4</ele><time>2022-11-02T14:10:23.0000000+00:00</time></trkpt><trkpt lat="39.47642497" lon="-0.38399384"><ele>14.4</ele><time>2022-11-02T14:10:24.0000000+00:00</time></trkpt><trkpt lat="39.47641198" lon="-0.38399125"><ele>14.4</ele><time>2022-11-02T14:10:25.0000000+00:00</time></trkpt><trkpt lat="39.4763989" lon="-0.38399208"><ele>14.4</ele><time>2022-11-02T14:10:26.0000000+00:00</time></trkpt><trkpt lat="39.47638725" lon="-0.38398546"><ele>14.4</ele><time>2022-11-02T14:10:27.0000000+00:00</time></trkpt><trkpt lat="39.47637116" lon="-0.38397356"><ele>14.4</ele><time>2022-11-02T14:10:28.0000000+00:00</time></trkpt><trkpt lat="39.47636009" lon="-0.38397079"><ele>14.4</ele><time>2022-11-02T14:10:29.0000000+00:00</time></trkpt><trkpt lat="39.47634718" lon="-0.383963"><ele>14.4</ele><time>2022-11-02T14:10:30.0000000+00:00</time></trkpt><trkpt lat="39.47632304" lon="-0.38393961"><ele>14.4</ele><time>2022-11-02T14:10:31.0000000+00:00</time></trkpt><trkpt lat="39.47630343" lon="-0.38393165"><ele>14.4</ele><time>2022-11-02T14:10:32.0000000+00:00</time></trkpt><trkpt lat="39.47628348" lon="-0.38393266"><ele>14.4</ele><time>2022-11-02T14:10:33.0000000+00:00</time></trkpt><trkpt lat="39.4762658" lon="-0.38393676"><ele>14.4</ele><time>2022-11-02T14:10:34.0000000+00:00</time></trkpt><trkpt lat="39.47625238" lon="-0.38393693"><ele>14.4</ele><time>2022-11-02T14:10:35.0000000+00:00</time></trkpt><trkpt lat="39.47624166" lon="-0.38393416"><ele>14.4</ele><time>2022-11-02T14:10:36.0000000+00:00</time></trkpt><trkpt lat="39.47623244" lon="-0.38392897"><ele>14.6</ele><time>2022-11-02T14:10:37.0000000+00:00</time></trkpt><trkpt lat="39.47622204" lon="-0.38392754"><ele>14.6</ele><time>2022-11-02T14:10:38.0000000+00:00</time></trkpt><trkpt lat="39.47621123" lon="-0.38394447"><ele>14.6</ele><time>2022-11-02T14:10:39.0000000+00:00</time></trkpt><trkpt lat="39.47619706" lon="-0.38395051"><ele>14.6</ele><time>2022-11-02T14:10:40.0000000+00:00</time></trkpt><trkpt lat="39.47619329" lon="-0.38397783"><ele>14.6</ele><time>2022-11-02T14:10:41.0000000+00:00</time></trkpt><trkpt lat="39.47618449" lon="-0.38398873"><ele>14.6</ele><time>2022-11-02T14:10:42.0000000+00:00</time></trkpt><trkpt lat="39.47617435" lon="-0.38399208"><ele>14.8</ele><time>2022-11-02T14:10:43.0000000+00:00</time></trkpt><trkpt lat="39.47617527" lon="-0.38402276"><ele>14.8</ele><time>2022-11-02T14:10:44.0000000+00:00</time></trkpt><trkpt lat="39.47616664" lon="-0.38404003"><ele>14.8</ele><time>2022-11-02T14:10:45.0000000+00:00</time></trkpt><trkpt lat="39.47615205" lon="-0.38404958"><ele>14.6</ele><time>2022-11-02T14:10:46.0000000+00:00</time></trkpt><trkpt lat="39.47613965" lon="-0.38405134"><ele>14.4</ele><time>2022-11-02T14:10:47.0000000+00:00</time></trkpt><trkpt lat="39.47612649" lon="-0.3840521"><ele>14.4</ele><time>2022-11-02T14:10:48.0000000+00:00</time></trkpt><trkpt lat="39.47611568" lon="-0.38404103"><ele>14.2</ele><time>2022-11-02T14:10:49.0000000+00:00</time></trkpt><trkpt lat="39.47610101" lon="-0.38403064"><ele>14.2</ele><time>2022-11-02T14:10:50.0000000+00:00</time></trkpt><trkpt lat="39.476085" lon="-0.38402838"><ele>14.0</ele><time>2022-11-02T14:10:51.0000000+00:00</time></trkpt><trkpt lat="39.47606991" lon="-0.38402846"><ele>14.0</ele><time>2022-11-02T14:10:52.0000000+00:00</time></trkpt><trkpt lat="39.47605541" lon="-0.38402855"><ele>14.0</ele><time>2022-11-02T14:10:53.0000000+00:00</time></trkpt><trkpt lat="39.47603965" lon="-0.3840236"><ele>13.8</ele><time>2022-11-02T14:10:54.0000000+00:00</time></trkpt><trkpt lat="39.47602498" lon="-0.38402444"><ele>13.8</ele><time>2022-11-02T14:10:55.0000000+00:00</time></trkpt><trkpt lat="39.47601308" lon="-0.38402117"><ele>13.8</ele><time>2022-11-02T14:10:56.0000000+00:00</time></trkpt><trkpt lat="39.47599808" lon="-0.38401145"><ele>13.8</ele><time>2022-11-02T14:10:57.0000000+00:00</time></trkpt><trkpt lat="39.47598333" lon="-0.38400667"><ele>13.8</ele><time>2022-11-02T14:10:58.0000000+00:00</time></trkpt><trkpt lat="39.47597033" lon="-0.38400105"><ele>13.8</ele><time>2022-11-02T14:10:59.0000000+00:00</time></trkpt><trkpt lat="39.47595717" lon="-0.38400223"><ele>13.8</ele><time>2022-11-02T14:11:00.0000000+00:00</time></trkpt><trkpt lat="39.47595307" lon="-0.38400508"><ele>13.8</ele><time>2022-11-02T14:11:01.0000000+00:00</time></trkpt><trkpt lat="39.47594636" lon="-0.38401673"><ele>13.8</ele><time>2022-11-02T14:11:02.0000000+00:00</time></trkpt><trkpt lat="39.47594083" lon="-0.38402913"><ele>13.8</ele><time>2022-11-02T14:11:03.0000000+00:00</time></trkpt><trkpt lat="39.47593882" lon="-0.38403416"><ele>13.8</ele><time>2022-11-02T14:11:04.0000000+00:00</time></trkpt><trkpt lat="39.47593488" lon="-0.38404179"><ele>14.0</ele><time>2022-11-02T14:11:05.0000000+00:00</time></trkpt><trkpt lat="39.47593404" lon="-0.3840516"><ele>14.0</ele><time>2022-11-02T14:11:06.0000000+00:00</time></trkpt><trkpt lat="39.47593052" lon="-0.38406157"><ele>14.2</ele><time>2022-11-02T14:11:07.0000000+00:00</time></trkpt><trkpt lat="39.47591728" lon="-0.38406023"><ele>14.2</ele><time>2022-11-02T14:11:08.0000000+00:00</time></trkpt><trkpt lat="39.47590185" lon="-0.38406668"><ele>14.2</ele><time>2022-11-02T14:11:09.0000000+00:00</time></trkpt><trkpt lat="39.47589574" lon="-0.38407381"><ele>14.2</ele><time>2022-11-02T14:11:10.0000000+00:00</time></trkpt><trkpt lat="39.47588911" lon="-0.38408244"><ele>14.2</ele><time>2022-11-02T14:11:11.0000000+00:00</time></trkpt><trkpt lat="39.47587998" lon="-0.3840847"><ele>14.2</ele><time>2022-11-02T14:11:12.0000000+00:00</time></trkpt><trkpt lat="39.47587453" lon="-0.38408588"><ele>14.2</ele><time>2022-11-02T14:11:13.0000000+00:00</time></trkpt><trkpt lat="39.47588098" lon="-0.38409451"><ele>14.2</ele><time>2022-11-02T14:11:14.0000000+00:00</time></trkpt><trkpt lat="39.47588442" lon="-0.38409912"><ele>14.0</ele><time>2022-11-02T14:11:15.0000000+00:00</time></trkpt><trkpt lat="39.47588207" lon="-0.38409577"><ele>14.0</ele><time>2022-11-02T14:11:16.0000000+00:00</time></trkpt><trkpt lat="39.47588526" lon="-0.38410122"><ele>14.0</ele><time>2022-11-02T14:11:17.0000000+00:00</time></trkpt><trkpt lat="39.47589062" lon="-0.38410683"><ele>14.0</ele><time>2022-11-02T14:11:18.0000000+00:00</time></trkpt><trkpt lat="39.47588559" lon="-0.38410289"><ele>14.0</ele><time>2022-11-02T14:11:19.0000000+00:00</time></trkpt><trkpt lat="39.47588618" lon="-0.38409753"><ele>14.0</ele><time>2022-11-02T14:11:20.0000000+00:00</time></trkpt><trkpt lat="39.47587847" lon="-0.3840873"><ele>14.0</ele><time>2022-11-02T14:11:21.0000000+00:00</time></trkpt><trkpt lat="39.47587855" lon="-0.38408361"><ele>14.2</ele><time>2022-11-02T14:11:22.0000000+00:00</time></trkpt><trkpt lat="39.47587612" lon="-0.38408177"><ele>14.2</ele><time>2022-11-02T14:11:23.0000000+00:00</time></trkpt><trkpt lat="39.47587386" lon="-0.38408152"><ele>14.2</ele><time>2022-11-02T14:11:24.0000000+00:00</time></trkpt><trkpt lat="39.47586967" lon="-0.38408496"><ele>14.2</ele><time>2022-11-02T14:11:25.0000000+00:00</time></trkpt><trkpt lat="39.47587059" lon="-0.38408563"><ele>14.2</ele><time>2022-11-02T14:11:26.0000000+00:00</time></trkpt><trkpt lat="39.47587227" lon="-0.38408563"><ele>14.2</ele><time>2022-11-02T14:11:27.0000000+00:00</time></trkpt><trkpt lat="39.4758747" lon="-0.38408487"><ele>14.2</ele><time>2022-11-02T14:11:28.0000000+00:00</time></trkpt><trkpt lat="39.47586615" lon="-0.3840868"><ele>14.2</ele><time>2022-11-02T14:11:29.0000000+00:00</time></trkpt><trkpt lat="39.47585022" lon="-0.38408102"><ele>14.2</ele><time>2022-11-02T14:11:30.0000000+00:00</time></trkpt><trkpt lat="39.47584528" lon="-0.38408194"><ele>14.2</ele><time>2022-11-02T14:11:31.0000000+00:00</time></trkpt><trkpt lat="39.47584293" lon="-0.3840832"><ele>14.2</ele><time>2022-11-02T14:11:32.0000000+00:00</time></trkpt><trkpt lat="39.47584343" lon="-0.38409283"><ele>14.2</ele><time>2022-11-02T14:11:33.0000000+00:00</time></trkpt><trkpt lat="39.47584301" lon="-0.38410272"><ele>14.2</ele><time>2022-11-02T14:11:34.0000000+00:00</time></trkpt><trkpt lat="39.47583983" lon="-0.3841106"><ele>14.2</ele><time>2022-11-02T14:11:35.0000000+00:00</time></trkpt><trkpt lat="39.47583597" lon="-0.38411949"><ele>14.0</ele><time>2022-11-02T14:11:36.0000000+00:00</time></trkpt><trkpt lat="39.47583086" lon="-0.38413567"><ele>14.0</ele><time>2022-11-02T14:11:37.0000000+00:00</time></trkpt><trkpt lat="39.47582348" lon="-0.38415"><ele>14.0</ele><time>2022-11-02T14:11:38.0000000+00:00</time></trkpt><trkpt lat="39.47582038" lon="-0.38415377"><ele>14.0</ele><time>2022-11-02T14:11:39.0000000+00:00</time></trkpt><trkpt lat="39.47581829" lon="-0.38415729"><ele>14.0</ele><time>2022-11-02T14:11:40.0000000+00:00</time></trkpt><trkpt lat="39.47581225" lon="-0.38417506"><ele>14.0</ele><time>2022-11-02T14:11:41.0000000+00:00</time></trkpt><trkpt lat="39.47580496" lon="-0.38419208"><ele>14.0</ele><time>2022-11-02T14:11:42.0000000+00:00</time></trkpt><trkpt lat="39.4758027" lon="-0.38420649"><ele>14.2</ele><time>2022-11-02T14:11:43.0000000+00:00</time></trkpt><trkpt lat="39.47580429" lon="-0.38422125"><ele>14.2</ele><time>2022-11-02T14:11:44.0000000+00:00</time></trkpt><trkpt lat="39.4758037" lon="-0.38422971"><ele>14.2</ele><time>2022-11-02T14:11:45.0000000+00:00</time></trkpt><trkpt lat="39.47579943" lon="-0.3842028"><ele>14.2</ele><time>2022-11-02T14:11:46.0000000+00:00</time></trkpt><trkpt lat="39.47579507" lon="-0.38418923"><ele>14.2</ele><time>2022-11-02T14:11:47.0000000+00:00</time></trkpt><trkpt lat="39.47579281" lon="-0.38417506"><ele>14.2</ele><time>2022-11-02T14:11:48.0000000+00:00</time></trkpt><trkpt lat="39.47579742" lon="-0.38418948"><ele>14.2</ele><time>2022-11-02T14:11:49.0000000+00:00</time></trkpt><trkpt lat="39.47579733" lon="-0.38419115"><ele>14.2</ele><time>2022-11-02T14:11:50.0000000+00:00</time></trkpt><trkpt lat="39.47579775" lon="-0.38419182"><ele>14.4</ele><time>2022-11-02T14:11:51.0000000+00:00</time></trkpt><trkpt lat="39.47579582" lon="-0.38418998"><ele>14.4</ele><time>2022-11-02T14:11:52.0000000+00:00</time></trkpt><trkpt lat="39.47579255" lon="-0.38418721"><ele>14.4</ele><time>2022-11-02T14:11:53.0000000+00:00</time></trkpt><trkpt lat="39.47578954" lon="-0.38418286"><ele>14.6</ele><time>2022-11-02T14:11:54.0000000+00:00</time></trkpt><trkpt lat="39.47578635" lon="-0.38417833"><ele>14.6</ele><time>2022-11-02T14:11:55.0000000+00:00</time></trkpt><trkpt lat="39.47577755" lon="-0.38417967"><ele>14.6</ele><time>2022-11-02T14:11:56.0000000+00:00</time></trkpt><trkpt lat="39.47577495" lon="-0.38418235"><ele>14.8</ele><time>2022-11-02T14:11:57.0000000+00:00</time></trkpt><trkpt lat="39.47576372" lon="-0.38417271"><ele>14.8</ele><time>2022-11-02T14:11:58.0000000+00:00</time></trkpt><trkpt lat="39.47574385" lon="-0.38411144"><ele>14.8</ele><time>2022-11-02T14:11:59.0000000+00:00</time></trkpt><trkpt lat="39.47573153" lon="-0.38407213"><ele>14.8</ele><time>2022-11-02T14:12:00.0000000+00:00</time></trkpt><trkpt lat="39.4757151" lon="-0.38398446"><ele>14.8</ele><time>2022-11-02T14:12:01.0000000+00:00</time></trkpt><trkpt lat="39.47569993" lon="-0.38392872"><ele>14.6</ele><time>2022-11-02T14:12:02.0000000+00:00</time></trkpt><trkpt lat="39.47567915" lon="-0.38387147"><ele>14.4</ele><time>2022-11-02T14:12:03.0000000+00:00</time></trkpt><trkpt lat="39.47568283" lon="-0.38383861"><ele>14.4</ele><time>2022-11-02T14:12:04.0000000+00:00</time></trkpt><trkpt lat="39.47567638" lon="-0.38383836"><ele>14.2</ele><time>2022-11-02T14:12:05.0000000+00:00</time></trkpt><trkpt lat="39.47567789" lon="-0.38382369"><ele>14.2</ele><time>2022-11-02T14:12:06.0000000+00:00</time></trkpt><trkpt lat="39.47568527" lon="-0.38379972"><ele>14.0</ele><time>2022-11-02T14:12:07.0000000+00:00</time></trkpt><trkpt lat="39.47567856" lon="-0.38376343"><ele>14.0</ele><time>2022-11-02T14:12:08.0000000+00:00</time></trkpt><trkpt lat="39.47568258" lon="-0.38373333"><ele>14.0</ele><time>2022-11-02T14:12:09.0000000+00:00</time></trkpt><trkpt lat="39.47568384" lon="-0.38371188"><ele>14.0</ele><time>2022-11-02T14:12:10.0000000+00:00</time></trkpt><trkpt lat="39.4756851" lon="-0.38371037"><ele>14.0</ele><time>2022-11-02T14:12:11.0000000+00:00</time></trkpt><trkpt lat="39.47569197" lon="-0.38371213"><ele>14.0</ele><time>2022-11-02T14:12:12.0000000+00:00</time></trkpt><trkpt lat="39.47569968" lon="-0.38371481"><ele>14.0</ele><time>2022-11-02T14:12:13.0000000+00:00</time></trkpt><trkpt lat="39.47570572" lon="-0.38372277"><ele>14.2</ele><time>2022-11-02T14:12:14.0000000+00:00</time></trkpt><trkpt lat="39.4757317" lon="-0.38370936"><ele>14.0</ele><time>2022-11-02T14:12:15.0000000+00:00</time></trkpt><trkpt lat="39.47574721" lon="-0.38368623"><ele>14.0</ele><time>2022-11-02T14:12:16.0000000+00:00</time></trkpt><trkpt lat="39.47575735" lon="-0.38367307"><ele>14.0</ele><time>2022-11-02T14:12:17.0000000+00:00</time></trkpt><trkpt lat="39.47576498" lon="-0.3836646"><ele>14.0</ele><time>2022-11-02T14:12:18.0000000+00:00</time></trkpt><trkpt lat="39.47577235" lon="-0.38365723"><ele>14.0</ele><time>2022-11-02T14:12:19.0000000+00:00</time></trkpt><trkpt lat="39.4757783" lon="-0.38365304"><ele>13.8</ele><time>2022-11-02T14:12:20.0000000+00:00</time></trkpt><trkpt lat="39.47577395" lon="-0.38366041"><ele>13.8</ele><time>2022-11-02T14:12:21.0000000+00:00</time></trkpt><trkpt lat="39.47576347" lon="-0.38366729"><ele>13.8</ele><time>2022-11-02T14:12:22.0000000+00:00</time></trkpt><trkpt lat="39.47573916" lon="-0.38370241"><ele>13.8</ele><time>2022-11-02T14:12:23.0000000+00:00</time></trkpt><trkpt lat="39.47571879" lon="-0.38371322"><ele>13.8</ele><time>2022-11-02T14:12:24.0000000+00:00</time></trkpt><trkpt lat="39.47570941" lon="-0.38373996"><ele>13.8</ele><time>2022-11-02T14:12:25.0000000+00:00</time></trkpt><trkpt lat="39.47570471" lon="-0.38375136"><ele>13.8</ele><time>2022-11-02T14:12:26.0000000+00:00</time></trkpt><trkpt lat="39.47570111" lon="-0.38376183"><ele>13.8</ele><time>2022-11-02T14:12:27.0000000+00:00</time></trkpt><trkpt lat="39.47569566" lon="-0.3837796"><ele>13.8</ele><time>2022-11-02T14:12:28.0000000+00:00</time></trkpt><trkpt lat="39.47568594" lon="-0.38379628"><ele>13.8</ele><time>2022-11-02T14:12:29.0000000+00:00</time></trkpt><trkpt lat="39.47567588" lon="-0.38381171"><ele>13.8</ele><time>2022-11-02T14:12:30.0000000+00:00</time></trkpt><trkpt lat="39.47566859" lon="-0.38382931"><ele>13.8</ele><time>2022-11-02T14:12:31.0000000+00:00</time></trkpt><trkpt lat="39.47566314" lon="-0.38385353"><ele>13.8</ele><time>2022-11-02T14:12:32.0000000+00:00</time></trkpt><trkpt lat="39.4756488" lon="-0.38387759"><ele>13.6</ele><time>2022-11-02T14:12:33.0000000+00:00</time></trkpt><trkpt lat="39.47562902" lon="-0.38390382"><ele>13.6</ele><time>2022-11-02T14:12:34.0000000+00:00</time></trkpt><trkpt lat="39.47562567" lon="-0.38390474"><ele>13.6</ele><time>2022-11-02T14:12:35.0000000+00:00</time></trkpt><trkpt lat="39.47562022" lon="-0.38390416"><ele>13.8</ele><time>2022-11-02T14:12:36.0000000+00:00</time></trkpt><trkpt lat="39.47561737" lon="-0.38391933"><ele>13.8</ele><time>2022-11-02T14:12:37.0000000+00:00</time></trkpt><trkpt lat="39.47561746" lon="-0.3839169"><ele>13.8</ele><time>2022-11-02T14:12:38.0000000+00:00</time></trkpt><trkpt lat="39.47561435" lon="-0.38391531"><ele>13.8</ele><time>2022-11-02T14:12:39.0000000+00:00</time></trkpt><trkpt lat="39.47560983" lon="-0.38391556"><ele>13.8</ele><time>2022-11-02T14:12:40.0000000+00:00</time></trkpt><trkpt lat="39.47560723" lon="-0.3839081"><ele>13.8</ele><time>2022-11-02T14:12:41.0000000+00:00</time></trkpt><trkpt lat="39.4756017" lon="-0.38389846"><ele>13.8</ele><time>2022-11-02T14:12:42.0000000+00:00</time></trkpt><trkpt lat="39.47559876" lon="-0.38389385"><ele>13.6</ele><time>2022-11-02T14:12:43.0000000+00:00</time></trkpt><trkpt lat="39.47559357" lon="-0.38388589"><ele>13.6</ele><time>2022-11-02T14:12:44.0000000+00:00</time></trkpt><trkpt lat="39.47558326" lon="-0.3838946"><ele>13.6</ele><time>2022-11-02T14:12:45.0000000+00:00</time></trkpt><trkpt lat="39.47557001" lon="-0.38389393"><ele>13.6</ele><time>2022-11-02T14:12:46.0000000+00:00</time></trkpt><trkpt lat="39.47557085" lon="-0.38391983"><ele>13.6</ele><time>2022-11-02T14:12:47.0000000+00:00</time></trkpt><trkpt lat="39.47557421" lon="-0.38393299"><ele>13.6</ele><time>2022-11-02T14:12:48.0000000+00:00</time></trkpt><trkpt lat="39.47557622" lon="-0.38395361"><ele>13.6</ele><time>2022-11-02T14:12:49.0000000+00:00</time></trkpt><trkpt lat="39.475582" lon="-0.3839635"><ele>13.6</ele><time>2022-11-02T14:12:50.0000000+00:00</time></trkpt><trkpt lat="39.47558829" lon="-0.38393877"><ele>13.4</ele><time>2022-11-02T14:12:51.0000000+00:00</time></trkpt><trkpt lat="39.47559332" lon="-0.38393911"><ele>13.4</ele><time>2022-11-02T14:12:52.0000000+00:00</time></trkpt><trkpt lat="39.47559734" lon="-0.38394221"><ele>13.4</ele><time>2022-11-02T14:12:53.0000000+00:00</time></trkpt><trkpt lat="39.47560111" lon="-0.38393299"><ele>13.4</ele><time>2022-11-02T14:12:54.0000000+00:00</time></trkpt><trkpt lat="39.47560723" lon="-0.38392603"><ele>13.4</ele><time>2022-11-02T14:12:55.0000000+00:00</time></trkpt><trkpt lat="39.47561117" lon="-0.38392209"><ele>13.2</ele><time>2022-11-02T14:12:56.0000000+00:00</time></trkpt><trkpt lat="39.47561653" lon="-0.38387314"><ele>13.4</ele><time>2022-11-02T14:12:58.0000000+00:00</time></trkpt><trkpt lat="39.47562114" lon="-0.38383995"><ele>13.4</ele><time>2022-11-02T14:13:00.0000000+00:00</time></trkpt><trkpt lat="39.47561964" lon="-0.38384942"><ele>13.4</ele><time>2022-11-02T14:13:01.0000000+00:00</time></trkpt><trkpt lat="39.47561913" lon="-0.38387826"><ele>13.4</ele><time>2022-11-02T14:13:02.0000000+00:00</time></trkpt><trkpt lat="39.47561762" lon="-0.38391824"><ele>13.4</ele><time>2022-11-02T14:13:03.0000000+00:00</time></trkpt><trkpt lat="39.47561226" lon="-0.38391799"><ele>13.4</ele><time>2022-11-02T14:13:04.0000000+00:00</time></trkpt><trkpt lat="39.47560991" lon="-0.38392562"><ele>13.4</ele><time>2022-11-02T14:13:05.0000000+00:00</time></trkpt><trkpt lat="39.47560539" lon="-0.38393852"><ele>13.4</ele><time>2022-11-02T14:13:06.0000000+00:00</time></trkpt><trkpt lat="39.47560136" lon="-0.3839407"><ele>13.4</ele><time>2022-11-02T14:13:07.0000000+00:00</time></trkpt><trkpt lat="39.47559684" lon="-0.38394515"><ele>13.4</ele><time>2022-11-02T14:13:08.0000000+00:00</time></trkpt><trkpt lat="39.4755846" lon="-0.38396291"><ele>13.4</ele><time>2022-11-02T14:13:09.0000000+00:00</time></trkpt><trkpt lat="39.47557672" lon="-0.38398529"><ele>13.4</ele><time>2022-11-02T14:13:10.0000000+00:00</time></trkpt><trkpt lat="39.47557001" lon="-0.38402067"><ele>13.4</ele><time>2022-11-02T14:13:11.0000000+00:00</time></trkpt><trkpt lat="39.47458338" lon="-0.3845271"><ele>14.0</ele><time>2022-11-02T15:10:00.0000000+00:00</time></trkpt><trkpt lat="39.47457559" lon="-0.38460153"><ele>14.0</ele><time>2022-11-02T15:10:01.0000000+00:00</time></trkpt><trkpt lat="39.47457232" lon="-0.38463531"><ele>14.0</ele><time>2022-11-02T15:10:02.0000000+00:00</time></trkpt><trkpt lat="39.47456754" lon="-0.38451176"><ele>14.0</ele><time>2022-11-02T15:10:03.0000000+00:00</time></trkpt><trkpt lat="39.47456201" lon="-0.38449399"><ele>14.0</ele><time>2022-11-02T15:10:04.0000000+00:00</time></trkpt><trkpt lat="39.4745574" lon="-0.38454797"><ele>14.0</ele><time>2022-11-02T15:10:05.0000000+00:00</time></trkpt><trkpt lat="39.47455312" lon="-0.38459248"><ele>14.0</ele><time>2022-11-02T15:10:06.0000000+00:00</time></trkpt><trkpt lat="39.47453929" lon="-0.38469256"><ele>14.0</ele><time>2022-11-02T15:10:08.0000000+00:00</time></trkpt><trkpt lat="39.47453594" lon="-0.384453"><ele>14.0</ele><time>2022-11-02T15:10:09.0000000+00:00</time></trkpt><trkpt lat="39.47453301" lon="-0.38431998"><ele>13.8</ele><time>2022-11-02T15:10:10.0000000+00:00</time></trkpt><trkpt lat="39.47452756" lon="-0.38439559"><ele>13.8</ele><time>2022-11-02T15:10:11.0000000+00:00</time></trkpt><trkpt lat="39.474517" lon="-0.38432476"><ele>13.6</ele><time>2022-11-02T15:10:12.0000000+00:00</time></trkpt><trkpt lat="39.47450954" lon="-0.38423541"><ele>13.6</ele><time>2022-11-02T15:10:13.0000000+00:00</time></trkpt><trkpt lat="39.4745025" lon="-0.38435737"><ele>13.6</ele><time>2022-11-02T15:10:14.0000000+00:00</time></trkpt><trkpt lat="39.47449235" lon="-0.38439492"><ele>13.6</ele><time>2022-11-02T15:10:15.0000000+00:00</time></trkpt><trkpt lat="39.47448473" lon="-0.38439567"><ele>13.6</ele><time>2022-11-02T15:10:16.0000000+00:00</time></trkpt><trkpt lat="39.47448104" lon="-0.38433356"><ele>13.6</ele><time>2022-11-02T15:10:17.0000000+00:00</time></trkpt><trkpt lat="39.47447877" lon="-0.3843199"><ele>13.6</ele><time>2022-11-02T15:10:18.0000000+00:00</time></trkpt><trkpt lat="39.4744797" lon="-0.38429693"><ele>13.6</ele><time>2022-11-02T15:10:19.0000000+00:00</time></trkpt><trkpt lat="39.47448238" lon="-0.3842645"><ele>13.6</ele><time>2022-11-02T15:10:20.0000000+00:00</time></trkpt><trkpt lat="39.47447986" lon="-0.38426139"><ele>13.6</ele><time>2022-11-02T15:10:21.0000000+00:00</time></trkpt><trkpt lat="39.47447685" lon="-0.38423943"><ele>13.6</ele><time>2022-11-02T15:10:23.0000000+00:00</time></trkpt><trkpt lat="39.47447886" lon="-0.38422409"><ele>13.6</ele><time>2022-11-02T15:10:24.0000000+00:00</time></trkpt><trkpt lat="39.47448028" lon="-0.38421286"><ele>13.6</ele><time>2022-11-02T15:10:25.0000000+00:00</time></trkpt><trkpt lat="39.47448414" lon="-0.38418931"><ele>13.6</ele><time>2022-11-02T15:10:26.0000000+00:00</time></trkpt><trkpt lat="39.47448615" lon="-0.3841697"><ele>13.6</ele><time>2022-11-02T15:10:27.0000000+00:00</time></trkpt><trkpt lat="39.47448607" lon="-0.38415679"><ele>13.6</ele><time>2022-11-02T15:10:28.0000000+00:00</time></trkpt><trkpt lat="39.47448657" lon="-0.38414598"><ele>13.6</ele><time>2022-11-02T15:10:29.0000000+00:00</time></trkpt><trkpt lat="39.47448615" lon="-0.38415444"><ele>13.6</ele><time>2022-11-02T15:10:30.0000000+00:00</time></trkpt><trkpt lat="39.4744864" lon="-0.38416081"><ele>13.6</ele><time>2022-11-02T15:10:31.0000000+00:00</time></trkpt><trkpt lat="39.47448556" lon="-0.38416542"><ele>13.6</ele><time>2022-11-02T15:10:32.0000000+00:00</time></trkpt><trkpt lat="39.47448389" lon="-0.38414673"><ele>13.6</ele><time>2022-11-02T15:10:33.0000000+00:00</time></trkpt><trkpt lat="39.47447626" lon="-0.38416282"><ele>13.6</ele><time>2022-11-02T15:10:34.0000000+00:00</time></trkpt><trkpt lat="39.47447483" lon="-0.38416391"><ele>13.6</ele><time>2022-11-02T15:10:35.0000000+00:00</time></trkpt><trkpt lat="39.47447115" lon="-0.38416416"><ele>13.6</ele><time>2022-11-02T15:10:36.0000000+00:00</time></trkpt><trkpt lat="39.4744667" lon="-0.3841671"><ele>13.6</ele><time>2022-11-02T15:10:37.0000000+00:00</time></trkpt><trkpt lat="39.4744631" lon="-0.38416785"><ele>13.6</ele><time>2022-11-02T15:10:38.0000000+00:00</time></trkpt><trkpt lat="39.47445883" lon="-0.38415721"><ele>13.6</ele><time>2022-11-02T15:10:39.0000000+00:00</time></trkpt><trkpt lat="39.47445078" lon="-0.38415972"><ele>13.6</ele><time>2022-11-02T15:10:40.0000000+00:00</time></trkpt><trkpt lat="39.47443795" lon="-0.38416324"><ele>13.6</ele><time>2022-11-02T15:10:41.0000000+00:00</time></trkpt><trkpt lat="39.47443225" lon="-0.38415427"><ele>13.6</ele><time>2022-11-02T15:10:42.0000000+00:00</time></trkpt><trkpt lat="39.47442614" lon="-0.38415453"><ele>13.6</ele><time>2022-11-02T15:10:43.0000000+00:00</time></trkpt><trkpt lat="39.47442664" lon="-0.38414505"><ele>13.6</ele><time>2022-11-02T15:10:44.0000000+00:00</time></trkpt><trkpt lat="39.47442362" lon="-0.38412737"><ele>13.6</ele><time>2022-11-02T15:10:45.0000000+00:00</time></trkpt><trkpt lat="39.47442153" lon="-0.38410507"><ele>13.6</ele><time>2022-11-02T15:10:46.0000000+00:00</time></trkpt><trkpt lat="39.47442102" lon="-0.38409074"><ele>13.6</ele><time>2022-11-02T15:10:47.0000000+00:00</time></trkpt><trkpt lat="39.47441951" lon="-0.38407892"><ele>13.6</ele><time>2022-11-02T15:10:48.0000000+00:00</time></trkpt><trkpt lat="39.47441809" lon="-0.38409099"><ele>13.6</ele><time>2022-11-02T15:10:49.0000000+00:00</time></trkpt><trkpt lat="39.47441742" lon="-0.38405797"><ele>13.6</ele><time>2022-11-02T15:10:50.0000000+00:00</time></trkpt><trkpt lat="39.47441767" lon="-0.38403911"><ele>13.6</ele><time>2022-11-02T15:10:51.0000000+00:00</time></trkpt><trkpt lat="39.47442027" lon="-0.38403198"><ele>13.6</ele><time>2022-11-02T15:10:52.0000000+00:00</time></trkpt><trkpt lat="39.47442295" lon="-0.38403257"><ele>13.6</ele><time>2022-11-02T15:10:53.0000000+00:00</time></trkpt><trkpt lat="39.47442337" lon="-0.38403198"><ele>13.6</ele><time>2022-11-02T15:10:54.0000000+00:00</time></trkpt><trkpt lat="39.47442287" lon="-0.38403684"><ele>13.8</ele><time>2022-11-02T15:10:55.0000000+00:00</time></trkpt><trkpt lat="39.47442354" lon="-0.38404271"><ele>13.8</ele><time>2022-11-02T15:10:56.0000000+00:00</time></trkpt><trkpt lat="39.47442681" lon="-0.38403827"><ele>13.6</ele><time>2022-11-02T15:10:57.0000000+00:00</time></trkpt><trkpt lat="39.47443033" lon="-0.38403777"><ele>13.6</ele><time>2022-11-02T15:10:58.0000000+00:00</time></trkpt><trkpt lat="39.47443125" lon="-0.38403726"><ele>13.6</ele><time>2022-11-02T15:10:59.0000000+00:00</time></trkpt><trkpt lat="39.47442848" lon="-0.38401891"><ele>13.6</ele><time>2022-11-02T15:11:00.0000000+00:00</time></trkpt><trkpt lat="39.47442647" lon="-0.38400315"><ele>13.6</ele><time>2022-11-02T15:11:01.0000000+00:00</time></trkpt><trkpt lat="39.47442354" lon="-0.38399183"><ele>13.6</ele><time>2022-11-02T15:11:02.0000000+00:00</time></trkpt><trkpt lat="39.47442563" lon="-0.38398144"><ele>13.6</ele><time>2022-11-02T15:11:03.0000000+00:00</time></trkpt><trkpt lat="39.47443058" lon="-0.38397767"><ele>13.6</ele><time>2022-11-02T15:11:04.0000000+00:00</time></trkpt><trkpt lat="39.47443041" lon="-0.38397725"><ele>13.6</ele><time>2022-11-02T15:11:05.0000000+00:00</time></trkpt><trkpt lat="39.47442739" lon="-0.38397188"><ele>13.6</ele><time>2022-11-02T15:11:06.0000000+00:00</time></trkpt><trkpt lat="39.47442521" lon="-0.38395864"><ele>13.6</ele><time>2022-11-02T15:11:07.0000000+00:00</time></trkpt><trkpt lat="39.47442479" lon="-0.38397021"><ele>13.6</ele><time>2022-11-02T15:11:08.0000000+00:00</time></trkpt><trkpt lat="39.4744253" lon="-0.38396442"><ele>13.6</ele><time>2022-11-02T15:11:09.0000000+00:00</time></trkpt><trkpt lat="39.47442823" lon="-0.38395663"><ele>13.6</ele><time>2022-11-02T15:11:10.0000000+00:00</time></trkpt><trkpt lat="39.47442329" lon="-0.38396183"><ele>13.6</ele><time>2022-11-02T15:11:11.0000000+00:00</time></trkpt><trkpt lat="39.47441918" lon="-0.38397004"><ele>13.6</ele><time>2022-11-02T15:11:12.0000000+00:00</time></trkpt><trkpt lat="39.47441415" lon="-0.38397507"><ele>13.6</ele><time>2022-11-02T15:11:13.0000000+00:00</time></trkpt><trkpt lat="39.47441331" lon="-0.38397281"><ele>13.6</ele><time>2022-11-02T15:11:14.0000000+00:00</time></trkpt><trkpt lat="39.47441021" lon="-0.38397322"><ele>13.6</ele><time>2022-11-02T15:11:15.0000000+00:00</time></trkpt><trkpt lat="39.47440577" lon="-0.38399401"><ele>13.6</ele><time>2022-11-02T15:11:16.0000000+00:00</time></trkpt><trkpt lat="39.47440418" lon="-0.38399225"><ele>13.6</ele><time>2022-11-02T15:11:17.0000000+00:00</time></trkpt><trkpt lat="39.47440317" lon="-0.38398043"><ele>13.6</ele><time>2022-11-02T15:11:18.0000000+00:00</time></trkpt><trkpt lat="39.47440501" lon="-0.38398027"><ele>13.6</ele><time>2022-11-02T15:11:19.0000000+00:00</time></trkpt><trkpt lat="39.47440242" lon="-0.38397314"><ele>13.6</ele><time>2022-11-02T15:11:20.0000000+00:00</time></trkpt><trkpt lat="39.47439814" lon="-0.3839713"><ele>13.6</ele><time>2022-11-02T15:11:21.0000000+00:00</time></trkpt><trkpt lat="39.47439789" lon="-0.38396627"><ele>13.6</ele><time>2022-11-02T15:11:22.0000000+00:00</time></trkpt><trkpt lat="39.47439496" lon="-0.38392905"><ele>13.6</ele><time>2022-11-02T15:11:23.0000000+00:00</time></trkpt><trkpt lat="39.47439412" lon="-0.38390927"><ele>13.6</ele><time>2022-11-02T15:11:24.0000000+00:00</time></trkpt><trkpt lat="39.47440409" lon="-0.38386292"><ele>13.6</ele><time>2022-11-02T15:11:25.0000000+00:00</time></trkpt><trkpt lat="39.47440937" lon="-0.38383191"><ele>13.6</ele><time>2022-11-02T15:11:26.0000000+00:00</time></trkpt><trkpt lat="39.47442421" lon="-0.38378522"><ele>13.6</ele><time>2022-11-02T15:11:27.0000000+00:00</time></trkpt><trkpt lat="39.47443192" lon="-0.38375638"><ele>13.6</ele><time>2022-11-02T15:11:28.0000000+00:00</time></trkpt><trkpt lat="39.474432" lon="-0.38375865"><ele>13.6</ele><time>2022-11-02T15:11:29.0000000+00:00</time></trkpt><trkpt lat="39.47443418" lon="-0.38374121"><ele>13.6</ele><time>2022-11-02T15:11:30.0000000+00:00</time></trkpt><trkpt lat="39.47442999" lon="-0.38373484"><ele>13.6</ele><time>2022-11-02T15:11:31.0000000+00:00</time></trkpt><trkpt lat="39.47442513" lon="-0.38373065"><ele>13.6</ele><time>2022-11-02T15:11:32.0000000+00:00</time></trkpt><trkpt lat="39.47442932" lon="-0.38372411"><ele>13.6</ele><time>2022-11-02T15:11:33.0000000+00:00</time></trkpt><trkpt lat="39.47442907" lon="-0.38371498"><ele>13.6</ele><time>2022-11-02T15:11:34.0000000+00:00</time></trkpt><trkpt lat="39.47442488" lon="-0.383718"><ele>13.6</ele><time>2022-11-02T15:11:35.0000000+00:00</time></trkpt><trkpt lat="39.47442312" lon="-0.38372353"><ele>13.6</ele><time>2022-11-02T15:11:36.0000000+00:00</time></trkpt><trkpt lat="39.47442245" lon="-0.38371783"><ele>13.6</ele><time>2022-11-02T15:11:37.0000000+00:00</time></trkpt><trkpt lat="39.47442136" lon="-0.3837361"><ele>13.6</ele><time>2022-11-02T15:11:38.0000000+00:00</time></trkpt><trkpt lat="39.47441692" lon="-0.38382461"><ele>13.6</ele><time>2022-11-02T15:11:39.0000000+00:00</time></trkpt><trkpt lat="39.47441381" lon="-0.38389888"><ele>13.6</ele><time>2022-11-02T15:11:40.0000000+00:00</time></trkpt><trkpt lat="39.47441449" lon="-0.38394749"><ele>13.6</ele><time>2022-11-02T15:11:41.0000000+00:00</time></trkpt><trkpt lat="39.47442404" lon="-0.38395302"><ele>13.6</ele><time>2022-11-02T15:11:42.0000000+00:00</time></trkpt><trkpt lat="39.47443049" lon="-0.38397113"><ele>13.6</ele><time>2022-11-02T15:11:43.0000000+00:00</time></trkpt><trkpt lat="39.47443251" lon="-0.38401933"><ele>13.6</ele><time>2022-11-02T15:11:44.0000000+00:00</time></trkpt><trkpt lat="39.47443653" lon="-0.38408068"><ele>13.6</ele><time>2022-11-02T15:11:45.0000000+00:00</time></trkpt><trkpt lat="39.47444441" lon="-0.38412879"><ele>13.6</ele><time>2022-11-02T15:11:46.0000000+00:00</time></trkpt><trkpt lat="39.47445396" lon="-0.38414111"><ele>13.6</ele><time>2022-11-02T15:11:47.0000000+00:00</time></trkpt><trkpt lat="39.47446453" lon="-0.38413902"><ele>13.6</ele><time>2022-11-02T15:11:48.0000000+00:00</time></trkpt><trkpt lat="39.47447416" lon="-0.38415075"><ele>13.6</ele><time>2022-11-02T15:11:49.0000000+00:00</time></trkpt><trkpt lat="39.47448347" lon="-0.38415779"><ele>13.6</ele><time>2022-11-02T15:11:50.0000000+00:00</time></trkpt><trkpt lat="39.47448959" lon="-0.38416852"><ele>13.6</ele><time>2022-11-02T15:11:51.0000000+00:00</time></trkpt><trkpt lat="39.47449177" lon="-0.38417498"><ele>13.6</ele><time>2022-11-02T15:11:52.0000000+00:00</time></trkpt><trkpt lat="39.47449252" lon="-0.38417514"><ele>13.6</ele><time>2022-11-02T15:11:53.0000000+00:00</time></trkpt><trkpt lat="39.47450006" lon="-0.38415427"><ele>13.6</ele><time>2022-11-02T15:11:54.0000000+00:00</time></trkpt><trkpt lat="39.47450568" lon="-0.38412569"><ele>13.6</ele><time>2022-11-02T15:11:55.0000000+00:00</time></trkpt><trkpt lat="39.47450627" lon="-0.38412385"><ele>13.6</ele><time>2022-11-02T15:11:56.0000000+00:00</time></trkpt><trkpt lat="39.47450987" lon="-0.38410666"><ele>13.6</ele><time>2022-11-02T15:11:57.0000000+00:00</time></trkpt><trkpt lat="39.47451364" lon="-0.38408663"><ele>13.6</ele><time>2022-11-02T15:11:58.0000000+00:00</time></trkpt><trkpt lat="39.47451859" lon="-0.38406802"><ele>13.6</ele><time>2022-11-02T15:11:59.0000000+00:00</time></trkpt><trkpt lat="39.47452328" lon="-0.38405964"><ele>13.6</ele><time>2022-11-02T15:12:00.0000000+00:00</time></trkpt><trkpt lat="39.47452974" lon="-0.38403668"><ele>14.0</ele><time>2022-11-02T15:12:01.0000000+00:00</time></trkpt><trkpt lat="39.47453351" lon="-0.38404514"><ele>14.0</ele><time>2022-11-02T15:12:02.0000000+00:00</time></trkpt><trkpt lat="39.47453166" lon="-0.38404129"><ele>14.2</ele><time>2022-11-02T15:12:03.0000000+00:00</time></trkpt><trkpt lat="39.47452705" lon="-0.38404003"><ele>14.2</ele><time>2022-11-02T15:12:04.0000000+00:00</time></trkpt><trkpt lat="39.47452521" lon="-0.38403248"><ele>14.2</ele><time>2022-11-02T15:12:05.0000000+00:00</time></trkpt><trkpt lat="39.47452672" lon="-0.38402754"><ele>14.2</ele><time>2022-11-02T15:12:06.0000000+00:00</time></trkpt><trkpt lat="39.47452965" lon="-0.38402159"><ele>14.2</ele><time>2022-11-02T15:12:07.0000000+00:00</time></trkpt><trkpt lat="39.47453016" lon="-0.3840262"><ele>14.2</ele><time>2022-11-02T15:12:08.0000000+00:00</time></trkpt><trkpt lat="39.4745299" lon="-0.38402913"><ele>14.2</ele><time>2022-11-02T15:12:09.0000000+00:00</time></trkpt><trkpt lat="39.47453166" lon="-0.38401505"><ele>14.2</ele><time>2022-11-02T15:12:10.0000000+00:00</time></trkpt><trkpt lat="39.47453317" lon="-0.38401765"><ele>14.2</ele><time>2022-11-02T15:12:11.0000000+00:00</time></trkpt><trkpt lat="39.47453586" lon="-0.38401748"><ele>14.2</ele><time>2022-11-02T15:12:12.0000000+00:00</time></trkpt><trkpt lat="39.47453602" lon="-0.38400508"><ele>14.2</ele><time>2022-11-02T15:12:13.0000000+00:00</time></trkpt><trkpt lat="39.47453594" lon="-0.38400365"><ele>14.2</ele><time>2022-11-02T15:12:14.0000000+00:00</time></trkpt><trkpt lat="39.47453544" lon="-0.38398546"><ele>14.2</ele><time>2022-11-02T15:12:15.0000000+00:00</time></trkpt><trkpt lat="39.47453569" lon="-0.38398328"><ele>14.2</ele><time>2022-11-02T15:12:16.0000000+00:00</time></trkpt><trkpt lat="39.47453762" lon="-0.38398303"><ele>14.2</ele><time>2022-11-02T15:12:17.0000000+00:00</time></trkpt><trkpt lat="39.47454105" lon="-0.38398261"><ele>14.2</ele><time>2022-11-02T15:12:18.0000000+00:00</time></trkpt><trkpt lat="39.47453996" lon="-0.38398446"><ele>14.2</ele><time>2022-11-02T15:12:19.0000000+00:00</time></trkpt><trkpt lat="39.47454072" lon="-0.38398697"><ele>14.2</ele><time>2022-11-02T15:12:20.0000000+00:00</time></trkpt><trkpt lat="39.47454189" lon="-0.38399024"><ele>14.0</ele><time>2022-11-02T15:12:21.0000000+00:00</time></trkpt><trkpt lat="39.47454365" lon="-0.38399502"><ele>14.2</ele><time>2022-11-02T15:12:22.0000000+00:00</time></trkpt><trkpt lat="39.47455681" lon="-0.38400868"><ele>14.0</ele><time>2022-11-02T15:12:23.0000000+00:00</time></trkpt><trkpt lat="39.47456536" lon="-0.384007"><ele>14.0</ele><time>2022-11-02T15:12:24.0000000+00:00</time></trkpt><trkpt lat="39.47456804" lon="-0.38400868"><ele>14.0</ele><time>2022-11-02T15:12:25.0000000+00:00</time></trkpt><trkpt lat="39.47456779" lon="-0.38401052"><ele>14.0</ele><time>2022-11-02T15:12:26.0000000+00:00</time></trkpt><trkpt lat="39.47457014" lon="-0.38401472"><ele>14.0</ele><time>2022-11-02T15:12:27.0000000+00:00</time></trkpt><trkpt lat="39.47457106" lon="-0.38401547"><ele>14.0</ele><time>2022-11-02T15:12:28.0000000+00:00</time></trkpt><trkpt lat="39.47457156" lon="-0.38401497"><ele>14.0</ele><time>2022-11-02T15:12:29.0000000+00:00</time></trkpt><trkpt lat="39.47457072" lon="-0.38401522"><ele>14.0</ele><time>2022-11-02T15:12:30.0000000+00:00</time></trkpt><trkpt lat="39.47457072" lon="-0.38401522"><ele>14.0</ele><time>2022-11-02T15:12:31.0000000+00:00</time></trkpt><trkpt lat="39.47457072" lon="-0.38401522"><ele>14.0</ele><time>2022-11-02T15:12:32.0000000+00:00</time></trkpt><trkpt lat="39.47457072" lon="-0.38401522"><ele>14.0</ele><time>2022-11-02T15:12:33.0000000+00:00</time></trkpt><trkpt lat="39.47457072" lon="-0.38401522"><ele>14.0</ele><time>2022-11-02T15:12:34.0000000+00:00</time></trkpt><trkpt lat="39.47457072" lon="-0.38401522"><ele>14.0</ele><time>2022-11-02T15:12:35.0000000+00:00</time></trkpt><trkpt lat="39.47457072" lon="-0.38401522"><ele>14.0</ele><time>2022-11-02T15:12:36.0000000+00:00</time></trkpt><trkpt lat="39.47457072" lon="-0.38401522"><ele>14.0</ele><time>2022-11-02T15:12:37.0000000+00:00</time></trkpt><trkpt lat="39.47457072" lon="-0.38401522"><ele>14.0</ele><time>2022-11-02T15:12:38.0000000+00:00</time></trkpt><trkpt lat="39.47457072" lon="-0.38401522"><ele>14.0</ele><time>2022-11-02T15:12:39.0000000+00:00</time></trkpt><trkpt lat="39.47457014" lon="-0.38401522"><ele>14.0</ele><time>2022-11-02T15:12:40.0000000+00:00</time></trkpt><trkpt lat="39.4745693" lon="-0.38401522"><ele>14.0</ele><time>2022-11-02T15:12:41.0000000+00:00</time></trkpt><trkpt lat="39.47456813" lon="-0.38401522"><ele>14.0</ele><time>2022-11-02T15:12:42.0000000+00:00</time></trkpt><trkpt lat="39.47456804" lon="-0.38401522"><ele>14.0</ele><time>2022-11-02T15:12:43.0000000+00:00</time></trkpt><trkpt lat="39.47456779" lon="-0.38401522"><ele>14.0</ele><time>2022-11-02T15:12:44.0000000+00:00</time></trkpt><trkpt lat="39.47456771" lon="-0.38401547"><ele>14.2</ele><time>2022-11-02T15:12:45.0000000+00:00</time></trkpt><trkpt lat="39.47456729" lon="-0.38401622"><ele>14.2</ele><time>2022-11-02T15:12:46.0000000+00:00</time></trkpt><trkpt lat="39.47456704" lon="-0.38401748"><ele>14.2</ele><time>2022-11-02T15:12:47.0000000+00:00</time></trkpt><trkpt lat="39.47456695" lon="-0.38401773"><ele>14.2</ele><time>2022-11-02T15:12:48.0000000+00:00</time></trkpt><trkpt lat="39.47456653" lon="-0.38401798"><ele>14.2</ele><time>2022-11-02T15:12:49.0000000+00:00</time></trkpt><trkpt lat="39.47456544" lon="-0.38401798"><ele>14.2</ele><time>2022-11-02T15:12:50.0000000+00:00</time></trkpt><trkpt lat="39.47456528" lon="-0.38401815"><ele>14.2</ele><time>2022-11-02T15:12:51.0000000+00:00</time></trkpt><trkpt lat="39.47456528" lon="-0.38401815"><ele>14.2</ele><time>2022-11-02T15:12:52.0000000+00:00</time></trkpt><trkpt lat="39.47456528" lon="-0.38401857"><ele>14.2</ele><time>2022-11-02T15:12:53.0000000+00:00</time></trkpt><trkpt lat="39.47456318" lon="-0.38401865"><ele>14.2</ele><time>2022-11-02T15:12:54.0000000+00:00</time></trkpt><trkpt lat="39.47456217" lon="-0.38401882"><ele>14.2</ele><time>2022-11-02T15:12:55.0000000+00:00</time></trkpt><trkpt lat="39.47456201" lon="-0.38401899"><ele>14.2</ele><time>2022-11-02T15:12:56.0000000+00:00</time></trkpt><trkpt lat="39.4745615" lon="-0.38401907"><ele>14.2</ele><time>2022-11-02T15:12:57.0000000+00:00</time></trkpt><trkpt lat="39.47456075" lon="-0.38401941"><ele>14.2</ele><time>2022-11-02T15:12:58.0000000+00:00</time></trkpt><trkpt lat="39.47456041" lon="-0.38401966"><ele>14.4</ele><time>2022-11-02T15:12:59.0000000+00:00</time></trkpt><trkpt lat="39.47456025" lon="-0.38401974"><ele>14.4</ele><time>2022-11-02T15:13:00.0000000+00:00</time></trkpt><trkpt lat="39.47456016" lon="-0.3840205"><ele>14.4</ele><time>2022-11-02T15:13:01.0000000+00:00</time></trkpt><trkpt lat="39.47455899" lon="-0.38402075"><ele>14.6</ele><time>2022-11-02T15:13:02.0000000+00:00</time></trkpt><trkpt lat="39.47455488" lon="-0.38402092"><ele>14.6</ele><time>2022-11-02T15:13:03.0000000+00:00</time></trkpt><trkpt lat="39.47455823" lon="-0.38401949"><ele>14.6</ele><time>2022-11-02T15:13:04.0000000+00:00</time></trkpt><trkpt lat="39.47457634" lon="-0.3840086"><ele>14.6</ele><time>2022-11-02T15:13:05.0000000+00:00</time></trkpt><trkpt lat="39.47459696" lon="-0.38400315"><ele>14.4</ele><time>2022-11-02T15:13:06.0000000+00:00</time></trkpt><trkpt lat="39.47461288" lon="-0.38400348"><ele>14.4</ele><time>2022-11-02T15:13:07.0000000+00:00</time></trkpt><trkpt lat="39.47463778" lon="-0.38400826"><ele>14.4</ele><time>2022-11-02T15:13:08.0000000+00:00</time></trkpt><trkpt lat="39.47465588" lon="-0.3840091"><ele>14.4</ele><time>2022-11-02T15:13:09.0000000+00:00</time></trkpt><trkpt lat="39.47465798" lon="-0.38401287"><ele>14.4</ele><time>2022-11-02T15:13:10.0000000+00:00</time></trkpt><trkpt lat="39.47465731" lon="-0.3840029"><ele>14.4</ele><time>2022-11-02T15:13:11.0000000+00:00</time></trkpt><trkpt lat="39.47465857" lon="-0.3840008"><ele>14.4</ele><time>2022-11-02T15:13:12.0000000+00:00</time></trkpt><trkpt lat="39.47465035" lon="-0.38400734"><ele>14.4</ele><time>2022-11-02T15:13:13.0000000+00:00</time></trkpt><trkpt lat="39.47466611" lon="-0.38403366"><ele>14.2</ele><time>2022-11-02T15:13:14.0000000+00:00</time></trkpt><trkpt lat="39.47466636" lon="-0.38403609"><ele>14.4</ele><time>2022-11-02T15:13:15.0000000+00:00</time></trkpt><trkpt lat="39.47467038" lon="-0.38404145"><ele>14.4</ele><time>2022-11-02T15:13:16.0000000+00:00</time></trkpt><trkpt lat="39.47468011" lon="-0.3840443"><ele>14.4</ele><time>2022-11-02T15:13:17.0000000+00:00</time></trkpt><trkpt lat="39.47468681" lon="-0.38404346"><ele>14.2</ele><time>2022-11-02T15:13:18.0000000+00:00</time></trkpt><trkpt lat="39.47469427" lon="-0.38404212"><ele>14.2</ele><time>2022-11-02T15:13:19.0000000+00:00</time></trkpt><trkpt lat="39.47469796" lon="-0.38404229"><ele>14.2</ele><time>2022-11-02T15:13:20.0000000+00:00</time></trkpt><trkpt lat="39.47469276" lon="-0.38403508"><ele>14.2</ele><time>2022-11-02T15:13:21.0000000+00:00</time></trkpt><trkpt lat="39.47469067" lon="-0.38403181"><ele>14.4</ele><time>2022-11-02T15:13:22.0000000+00:00</time></trkpt><trkpt lat="39.47468614" lon="-0.38403274"><ele>14.4</ele><time>2022-11-02T15:13:23.0000000+00:00</time></trkpt><trkpt lat="39.47468321" lon="-0.38402922"><ele>14.4</ele><time>2022-11-02T15:13:24.0000000+00:00</time></trkpt><trkpt lat="39.47468346" lon="-0.38402829"><ele>14.4</ele><time>2022-11-02T15:13:25.0000000+00:00</time></trkpt><trkpt lat="39.47468346" lon="-0.38402829"><ele>14.4</ele><time>2022-11-02T15:13:26.0000000+00:00</time></trkpt><trkpt lat="39.47468346" lon="-0.38402829"><ele>14.4</ele><time>2022-11-02T15:13:27.0000000+00:00</time></trkpt><trkpt lat="39.47468656" lon="-0.38403181"><ele>14.4</ele><time>2022-11-02T15:13:28.0000000+00:00</time></trkpt><trkpt lat="39.47470215" lon="-0.3840531"><ele>14.4</ele><time>2022-11-02T15:13:29.0000000+00:00</time></trkpt><trkpt lat="39.4747216" lon="-0.38407381"><ele>14.4</ele><time>2022-11-02T15:13:30.0000000+00:00</time></trkpt><trkpt lat="39.47473819" lon="-0.38408957"><ele>14.4</ele><time>2022-11-02T15:13:31.0000000+00:00</time></trkpt><trkpt lat="39.47475337" lon="-0.384107"><ele>14.4</ele><time>2022-11-02T15:13:32.0000000+00:00</time></trkpt><trkpt lat="39.47476912" lon="-0.38412485"><ele>14.4</ele><time>2022-11-02T15:13:33.0000000+00:00</time></trkpt><trkpt lat="39.47477474" lon="-0.38413525"><ele>14.4</ele><time>2022-11-02T15:13:34.0000000+00:00</time></trkpt><trkpt lat="39.47478279" lon="-0.38414254"><ele>14.4</ele><time>2022-11-02T15:13:35.0000000+00:00</time></trkpt><trkpt lat="39.47479041" lon="-0.38416064"><ele>14.4</ele><time>2022-11-02T15:13:36.0000000+00:00</time></trkpt><trkpt lat="39.47480751" lon="-0.38418671"><ele>14.4</ele><time>2022-11-02T15:13:37.0000000+00:00</time></trkpt><trkpt lat="39.47481983" lon="-0.38420959"><ele>14.4</ele><time>2022-11-02T15:13:38.0000000+00:00</time></trkpt><trkpt lat="39.47483266" lon="-0.38422611"><ele>14.4</ele><time>2022-11-02T15:13:39.0000000+00:00</time></trkpt><trkpt lat="39.47484816" lon="-0.38424178"><ele>14.4</ele><time>2022-11-02T15:13:40.0000000+00:00</time></trkpt><trkpt lat="39.47485504" lon="-0.3842479"><ele>14.4</ele><time>2022-11-02T15:13:41.0000000+00:00</time></trkpt><trkpt lat="39.47485504" lon="-0.38426332"><ele>14.4</ele><time>2022-11-02T15:13:42.0000000+00:00</time></trkpt><trkpt lat="39.47484775" lon="-0.38427816"><ele>14.4</ele><time>2022-11-02T15:13:43.0000000+00:00</time></trkpt><trkpt lat="39.4748288" lon="-0.38429081"><ele>14.4</ele><time>2022-11-02T15:13:44.0000000+00:00</time></trkpt><trkpt lat="39.4748055" lon="-0.38430423"><ele>14.4</ele><time>2022-11-02T15:13:45.0000000+00:00</time></trkpt><trkpt lat="39.4747889" lon="-0.38432568"><ele>14.4</ele><time>2022-11-02T15:13:46.0000000+00:00</time></trkpt><trkpt lat="39.47478128" lon="-0.38434488"><ele>14.4</ele><time>2022-11-02T15:13:47.0000000+00:00</time></trkpt><trkpt lat="39.47478614" lon="-0.3843655"><ele>14.4</ele><time>2022-11-02T15:13:48.0000000+00:00</time></trkpt><trkpt lat="39.47479947" lon="-0.38438754"><ele>14.4</ele><time>2022-11-02T15:13:49.0000000+00:00</time></trkpt><trkpt lat="39.47481128" lon="-0.38441034"><ele>14.4</ele><time>2022-11-02T15:13:50.0000000+00:00</time></trkpt><trkpt lat="39.47482386" lon="-0.38443113"><ele>14.4</ele><time>2022-11-02T15:13:51.0000000+00:00</time></trkpt><trkpt lat="39.4748428" lon="-0.38444613"><ele>14.4</ele><time>2022-11-02T15:13:52.0000000+00:00</time></trkpt><trkpt lat="39.47485604" lon="-0.38446407"><ele>14.4</ele><time>2022-11-02T15:13:53.0000000+00:00</time></trkpt><trkpt lat="39.47485604" lon="-0.38448167"><ele>14.4</ele><time>2022-11-02T15:13:54.0000000+00:00</time></trkpt><trkpt lat="39.47484934" lon="-0.38450145"><ele>14.6</ele><time>2022-11-02T15:13:55.0000000+00:00</time></trkpt><trkpt lat="39.47484037" lon="-0.38451394"><ele>14.6</ele><time>2022-11-02T15:13:56.0000000+00:00</time></trkpt><trkpt lat="39.47483467" lon="-0.38453112"><ele>14.6</ele><time>2022-11-02T15:13:57.0000000+00:00</time></trkpt><trkpt lat="39.47484666" lon="-0.3845447"><ele>14.6</ele><time>2022-11-02T15:13:58.0000000+00:00</time></trkpt><trkpt lat="39.47486526" lon="-0.38455661"><ele>14.6</ele><time>2022-11-02T15:13:59.0000000+00:00</time></trkpt><trkpt lat="39.4748692" lon="-0.38455627"><ele>14.6</ele><time>2022-11-02T15:14:00.0000000+00:00</time></trkpt><trkpt lat="39.4748604" lon="-0.38456247"><ele>14.6</ele><time>2022-11-02T15:14:01.0000000+00:00</time></trkpt><trkpt lat="39.47485512" lon="-0.38456926"><ele>14.6</ele><time>2022-11-02T15:14:02.0000000+00:00</time></trkpt><trkpt lat="39.47485713" lon="-0.3845675"><ele>14.6</ele><time>2022-11-02T15:14:03.0000000+00:00</time></trkpt><trkpt lat="39.47485839" lon="-0.38456566"><ele>14.6</ele><time>2022-11-02T15:14:04.0000000+00:00</time></trkpt><trkpt lat="39.4748542" lon="-0.38456909"><ele>14.6</ele><time>2022-11-02T15:14:05.0000000+00:00</time></trkpt><trkpt lat="39.47485412" lon="-0.38456583"><ele>14.6</ele><time>2022-11-02T15:14:06.0000000+00:00</time></trkpt><trkpt lat="39.47484473" lon="-0.38456138"><ele>14.6</ele><time>2022-11-02T15:14:07.0000000+00:00</time></trkpt><trkpt lat="39.47484322" lon="-0.38455669"><ele>14.6</ele><time>2022-11-02T15:14:08.0000000+00:00</time></trkpt><trkpt lat="39.47484247" lon="-0.3845551"><ele>14.6</ele><time>2022-11-02T15:14:09.0000000+00:00</time></trkpt><trkpt lat="39.47484138" lon="-0.38455443"><ele>14.6</ele><time>2022-11-02T15:14:10.0000000+00:00</time></trkpt><trkpt lat="39.47484247" lon="-0.38455744"><ele>14.4</ele><time>2022-11-02T15:14:11.0000000+00:00</time></trkpt><trkpt lat="39.47484104" lon="-0.38455904"><ele>14.4</ele><time>2022-11-02T15:14:12.0000000+00:00</time></trkpt><trkpt lat="39.47484054" lon="-0.38456013"><ele>14.4</ele><time>2022-11-02T15:14:13.0000000+00:00</time></trkpt><trkpt lat="39.47483945" lon="-0.38455803"><ele>14.4</ele><time>2022-11-02T15:14:14.0000000+00:00</time></trkpt><trkpt lat="39.47483836" lon="-0.38455702"><ele>14.4</ele><time>2022-11-02T15:14:15.0000000+00:00</time></trkpt><trkpt lat="39.47483668" lon="-0.38455577"><ele>14.4</ele><time>2022-11-02T15:14:16.0000000+00:00</time></trkpt><trkpt lat="39.47483383" lon="-0.38455417"><ele>14.4</ele><time>2022-11-02T15:14:17.0000000+00:00</time></trkpt><trkpt lat="39.4748278" lon="-0.3845535"><ele>14.6</ele><time>2022-11-02T15:14:18.0000000+00:00</time></trkpt><trkpt lat="39.47482654" lon="-0.38455644"><ele>14.6</ele><time>2022-11-02T15:14:19.0000000+00:00</time></trkpt><trkpt lat="39.47482377" lon="-0.38455292"><ele>14.6</ele><time>2022-11-02T15:14:20.0000000+00:00</time></trkpt><trkpt lat="39.47482059" lon="-0.384553"><ele>14.6</ele><time>2022-11-02T15:14:21.0000000+00:00</time></trkpt><trkpt lat="39.47482495" lon="-0.38455476"><ele>14.6</ele><time>2022-11-02T15:14:22.0000000+00:00</time></trkpt><trkpt lat="39.4748278" lon="-0.38455233"><ele>14.6</ele><time>2022-11-02T15:14:23.0000000+00:00</time></trkpt><trkpt lat="39.47482931" lon="-0.38456348"><ele>14.8</ele><time>2022-11-02T15:14:24.0000000+00:00</time></trkpt><trkpt lat="39.47483165" lon="-0.38457513"><ele>14.8</ele><time>2022-11-02T15:14:25.0000000+00:00</time></trkpt><trkpt lat="39.47483283" lon="-0.38458854"><ele>14.8</ele><time>2022-11-02T15:14:26.0000000+00:00</time></trkpt><trkpt lat="39.47483601" lon="-0.38461008"><ele>14.8</ele><time>2022-11-02T15:14:27.0000000+00:00</time></trkpt><trkpt lat="39.47483836" lon="-0.38463204"><ele>14.8</ele><time>2022-11-02T15:14:28.0000000+00:00</time></trkpt><trkpt lat="39.47484029" lon="-0.38465451"><ele>14.8</ele><time>2022-11-02T15:14:29.0000000+00:00</time></trkpt><trkpt lat="39.47483098" lon="-0.38466741"><ele>14.8</ele><time>2022-11-02T15:14:30.0000000+00:00</time></trkpt><trkpt lat="39.47482545" lon="-0.38468175"><ele>15.0</ele><time>2022-11-02T15:14:31.0000000+00:00</time></trkpt><trkpt lat="39.47479175" lon="-0.38462492"><ele>15.0</ele><time>2022-11-02T15:14:32.0000000+00:00</time></trkpt><trkpt lat="39.47479033" lon="-0.38462215"><ele>15.0</ele><time>2022-11-02T15:14:33.0000000+00:00</time></trkpt><trkpt lat="39.47477952" lon="-0.38461134"><ele>14.8</ele><time>2022-11-02T15:14:34.0000000+00:00</time></trkpt><trkpt lat="39.47479402" lon="-0.38462299"><ele>14.8</ele><time>2022-11-02T15:14:35.0000000+00:00</time></trkpt><trkpt lat="39.47482562" lon="-0.38465308"><ele>14.8</ele><time>2022-11-02T15:14:36.0000000+00:00</time></trkpt><trkpt lat="39.47484842" lon="-0.38467563"><ele>14.8</ele><time>2022-11-02T15:14:37.0000000+00:00</time></trkpt><trkpt lat="39.47486392" lon="-0.38470002"><ele>15.0</ele><time>2022-11-02T15:14:38.0000000+00:00</time></trkpt><trkpt lat="39.47485772" lon="-0.3846887"><ele>15.0</ele><time>2022-11-02T15:14:39.0000000+00:00</time></trkpt><trkpt lat="39.47485797" lon="-0.38468569"><ele>14.8</ele><time>2022-11-02T15:14:40.0000000+00:00</time></trkpt><trkpt lat="39.47484314" lon="-0.38468711"><ele>15.0</ele><time>2022-11-02T15:14:41.0000000+00:00</time></trkpt><trkpt lat="39.47480802" lon="-0.38470714"><ele>15.0</ele><time>2022-11-02T15:14:42.0000000+00:00</time></trkpt><trkpt lat="39.47479712" lon="-0.38472684"><ele>15.0</ele><time>2022-11-02T15:14:43.0000000+00:00</time></trkpt><trkpt lat="39.47477382" lon="-0.38472223"><ele>14.8</ele><time>2022-11-02T15:14:44.0000000+00:00</time></trkpt><trkpt lat="39.47476351" lon="-0.38471896"><ele>14.8</ele><time>2022-11-02T15:14:45.0000000+00:00</time></trkpt><trkpt lat="39.47475194" lon="-0.38472315"><ele>14.8</ele><time>2022-11-02T15:14:46.0000000+00:00</time></trkpt><trkpt lat="39.47480835" lon="-0.38475383"><ele>14.8</ele><time>2022-11-02T15:14:47.0000000+00:00</time></trkpt><trkpt lat="39.47481045" lon="-0.38475735"><ele>14.8</ele><time>2022-11-02T15:14:48.0000000+00:00</time></trkpt><trkpt lat="39.47481145" lon="-0.38475551"><ele>14.8</ele><time>2022-11-02T15:14:49.0000000+00:00</time></trkpt><trkpt lat="39.47480139" lon="-0.38474939"><ele>14.6</ele><time>2022-11-02T15:14:50.0000000+00:00</time></trkpt><trkpt lat="39.47479075" lon="-0.3847426"><ele>14.6</ele><time>2022-11-02T15:14:51.0000000+00:00</time></trkpt><trkpt lat="39.47478673" lon="-0.38474235"><ele>14.6</ele><time>2022-11-02T15:14:52.0000000+00:00</time></trkpt><trkpt lat="39.47478689" lon="-0.38474042"><ele>14.4</ele><time>2022-11-02T15:14:53.0000000+00:00</time></trkpt><trkpt lat="39.47478698" lon="-0.38474084"><ele>14.4</ele><time>2022-11-02T15:14:54.0000000+00:00</time></trkpt><trkpt lat="39.47478647" lon="-0.38474226"><ele>14.4</ele><time>2022-11-02T15:14:55.0000000+00:00</time></trkpt><trkpt lat="39.4747832" lon="-0.38475006"><ele>14.6</ele><time>2022-11-02T15:14:56.0000000+00:00</time></trkpt><trkpt lat="39.4747827" lon="-0.3847566"><ele>14.6</ele><time>2022-11-02T15:14:57.0000000+00:00</time></trkpt><trkpt lat="39.47478144" lon="-0.38476531"><ele>14.6</ele><time>2022-11-02T15:14:58.0000000+00:00</time></trkpt><trkpt lat="39.47478346" lon="-0.38476942"><ele>14.6</ele><time>2022-11-02T15:14:59.0000000+00:00</time></trkpt><trkpt lat="39.47478614" lon="-0.38478702"><ele>14.6</ele><time>2022-11-02T15:15:00.0000000+00:00</time></trkpt><trkpt lat="39.47478488" lon="-0.38479549"><ele>14.6</ele><time>2022-11-02T15:15:01.0000000+00:00</time></trkpt><trkpt lat="39.47478983" lon="-0.38480748"><ele>14.6</ele><time>2022-11-02T15:15:02.0000000+00:00</time></trkpt><trkpt lat="39.47478421" lon="-0.38481049"><ele>14.6</ele><time>2022-11-02T15:15:03.0000000+00:00</time></trkpt><trkpt lat="39.47477792" lon="-0.3848177"><ele>14.6</ele><time>2022-11-02T15:15:04.0000000+00:00</time></trkpt><trkpt lat="39.47477533" lon="-0.38482005"><ele>14.6</ele><time>2022-11-02T15:15:05.0000000+00:00</time></trkpt><trkpt lat="39.47477767" lon="-0.38482189"><ele>14.6</ele><time>2022-11-02T15:15:06.0000000+00:00</time></trkpt><trkpt lat="39.47477952" lon="-0.38482248"><ele>14.6</ele><time>2022-11-02T15:15:07.0000000+00:00</time></trkpt><trkpt lat="39.47477575" lon="-0.38482868"><ele>14.6</ele><time>2022-11-02T15:15:08.0000000+00:00</time></trkpt><trkpt lat="39.4747682" lon="-0.38483874"><ele>14.6</ele><time>2022-11-02T15:15:09.0000000+00:00</time></trkpt><trkpt lat="39.47476133" lon="-0.38485383"><ele>14.6</ele><time>2022-11-02T15:15:10.0000000+00:00</time></trkpt><trkpt lat="39.47475429" lon="-0.38486615"><ele>14.8</ele><time>2022-11-02T15:15:11.0000000+00:00</time></trkpt><trkpt lat="39.47475571" lon="-0.38487755"><ele>14.8</ele><time>2022-11-02T15:15:12.0000000+00:00</time></trkpt><trkpt lat="39.47477139" lon="-0.38489146"><ele>14.8</ele><time>2022-11-02T15:15:13.0000000+00:00</time></trkpt><trkpt lat="39.47478186" lon="-0.38490303"><ele>14.8</ele><time>2022-11-02T15:15:14.0000000+00:00</time></trkpt><trkpt lat="39.47479167" lon="-0.38491518"><ele>14.8</ele><time>2022-11-02T15:15:15.0000000+00:00</time></trkpt><trkpt lat="39.47479863" lon="-0.38493639"><ele>15.0</ele><time>2022-11-02T15:15:16.0000000+00:00</time></trkpt><trkpt lat="39.47479829" lon="-0.38495399"><ele>15.0</ele><time>2022-11-02T15:15:17.0000000+00:00</time></trkpt><trkpt lat="39.47478907" lon="-0.38497067"><ele>15.0</ele><time>2022-11-02T15:15:18.0000000+00:00</time></trkpt><trkpt lat="39.47477667" lon="-0.38498526"><ele>15.0</ele><time>2022-11-02T15:15:19.0000000+00:00</time></trkpt><trkpt lat="39.47477533" lon="-0.38500797"><ele>15.0</ele><time>2022-11-02T15:15:20.0000000+00:00</time></trkpt><trkpt lat="39.47477398" lon="-0.38502666"><ele>15.0</ele><time>2022-11-02T15:15:21.0000000+00:00</time></trkpt><trkpt lat="39.47478019" lon="-0.38503949"><ele>15.2</ele><time>2022-11-02T15:15:22.0000000+00:00</time></trkpt><trkpt lat="39.47477985" lon="-0.38505466"><ele>15.2</ele><time>2022-11-02T15:15:23.0000000+00:00</time></trkpt><trkpt lat="39.47478002" lon="-0.38507067"><ele>15.0</ele><time>2022-11-02T15:15:24.0000000+00:00</time></trkpt><trkpt lat="39.47478094" lon="-0.38507151"><ele>15.0</ele><time>2022-11-02T15:15:25.0000000+00:00</time></trkpt><trkpt lat="39.47477583" lon="-0.38508324"><ele>15.0</ele><time>2022-11-02T15:15:26.0000000+00:00</time></trkpt><trkpt lat="39.47476703" lon="-0.38509187"><ele>15.0</ele><time>2022-11-02T15:15:27.0000000+00:00</time></trkpt><trkpt lat="39.47476066" lon="-0.38510403"><ele>15.0</ele><time>2022-11-02T15:15:28.0000000+00:00</time></trkpt><trkpt lat="39.47474825" lon="-0.38511618"><ele>15.0</ele><time>2022-11-02T15:15:29.0000000+00:00</time></trkpt><trkpt lat="39.47474909" lon="-0.38511819"><ele>15.0</ele><time>2022-11-02T15:15:30.0000000+00:00</time></trkpt><trkpt lat="39.47474917" lon="-0.38512188"><ele>15.0</ele><time>2022-11-02T15:15:31.0000000+00:00</time></trkpt><trkpt lat="39.47475144" lon="-0.38514745"><ele>14.8</ele><time>2022-11-02T15:15:32.0000000+00:00</time></trkpt><trkpt lat="39.47474934" lon="-0.38517754"><ele>14.8</ele><time>2022-11-02T15:15:33.0000000+00:00</time></trkpt><trkpt lat="39.47475345" lon="-0.38520595"><ele>14.8</ele><time>2022-11-02T15:15:34.0000000+00:00</time></trkpt><trkpt lat="39.47476032" lon="-0.38522498"><ele>14.8</ele><time>2022-11-02T15:15:35.0000000+00:00</time></trkpt><trkpt lat="39.47476636" lon="-0.38524007"><ele>14.8</ele><time>2022-11-02T15:15:36.0000000+00:00</time></trkpt><trkpt lat="39.47477139" lon="-0.38524853"><ele>14.8</ele><time>2022-11-02T15:15:37.0000000+00:00</time></trkpt><trkpt lat="39.47477734" lon="-0.38525071"><ele>14.8</ele><time>2022-11-02T15:15:38.0000000+00:00</time></trkpt><trkpt lat="39.47478044" lon="-0.38525188"><ele>14.8</ele><time>2022-11-02T15:15:39.0000000+00:00</time></trkpt><trkpt lat="39.47478019" lon="-0.38526873"><ele>14.8</ele><time>2022-11-02T15:15:40.0000000+00:00</time></trkpt><trkpt lat="39.47478061" lon="-0.38527099"><ele>14.8</ele><time>2022-11-02T15:15:41.0000000+00:00</time></trkpt><trkpt lat="39.47478279" lon="-0.38527686"><ele>14.8</ele><time>2022-11-02T15:15:42.0000000+00:00</time></trkpt><trkpt lat="39.47477935" lon="-0.38529983"><ele>15.0</ele><time>2022-11-02T15:15:43.0000000+00:00</time></trkpt><trkpt lat="39.47477776" lon="-0.38530083"><ele>15.0</ele><time>2022-11-02T15:15:44.0000000+00:00</time></trkpt><trkpt lat="39.47477625" lon="-0.38530561"><ele>15.0</ele><time>2022-11-02T15:15:45.0000000+00:00</time></trkpt><trkpt lat="39.47477558" lon="-0.38531207"><ele>15.0</ele><time>2022-11-02T15:15:46.0000000+00:00</time></trkpt><trkpt lat="39.47477181" lon="-0.38530586"><ele>15.0</ele><time>2022-11-02T15:15:47.0000000+00:00</time></trkpt><trkpt lat="39.47476862" lon="-0.3852834"><ele>15.0</ele><time>2022-11-02T15:15:48.0000000+00:00</time></trkpt><trkpt lat="39.47476166" lon="-0.38526747"><ele>15.0</ele><time>2022-11-02T15:15:49.0000000+00:00</time></trkpt><trkpt lat="39.47475638" lon="-0.38526638"><ele>15.0</ele><time>2022-11-02T15:15:50.0000000+00:00</time></trkpt><trkpt lat="39.47475295" lon="-0.38526714"><ele>15.0</ele><time>2022-11-02T15:15:51.0000000+00:00</time></trkpt><trkpt lat="39.47474842" lon="-0.38526882"><ele>15.0</ele><time>2022-11-02T15:15:52.0000000+00:00</time></trkpt><trkpt lat="39.47474347" lon="-0.38526932"><ele>15.0</ele><time>2022-11-02T15:15:53.0000000+00:00</time></trkpt><trkpt lat="39.47474289" lon="-0.38527619"><ele>15.0</ele><time>2022-11-02T15:15:54.0000000+00:00</time></trkpt><trkpt lat="39.47474188" lon="-0.38528541"><ele>15.0</ele><time>2022-11-02T15:15:55.0000000+00:00</time></trkpt><trkpt lat="39.47474624" lon="-0.3853098"><ele>15.0</ele><time>2022-11-02T15:15:56.0000000+00:00</time></trkpt><trkpt lat="39.47475043" lon="-0.38532816"><ele>15.0</ele><time>2022-11-02T15:15:57.0000000+00:00</time></trkpt><trkpt lat="39.47476703" lon="-0.38534853"><ele>15.0</ele><time>2022-11-02T15:15:58.0000000+00:00</time></trkpt><trkpt lat="39.47478103" lon="-0.3853673"><ele>15.0</ele><time>2022-11-02T15:15:59.0000000+00:00</time></trkpt><trkpt lat="39.47479519" lon="-0.38538692"><ele>15.2</ele><time>2022-11-02T15:16:00.0000000+00:00</time></trkpt><trkpt lat="39.47480273" lon="-0.38539572"><ele>15.2</ele><time>2022-11-02T15:16:01.0000000+00:00</time></trkpt><trkpt lat="39.47484263" lon="-0.38541231"><ele>15.2</ele><time>2022-11-02T15:16:02.0000000+00:00</time></trkpt><trkpt lat="39.47486384" lon="-0.38542187"><ele>15.2</ele><time>2022-11-02T15:16:03.0000000+00:00</time></trkpt><trkpt lat="39.47488672" lon="-0.38543587"><ele>15.2</ele><time>2022-11-02T15:16:04.0000000+00:00</time></trkpt><trkpt lat="39.47485898" lon="-0.3854207"><ele>15.2</ele><time>2022-11-02T15:16:05.0000000+00:00</time></trkpt><trkpt lat="39.47484875" lon="-0.38541986"><ele>15.0</ele><time>2022-11-02T15:16:06.0000000+00:00</time></trkpt><trkpt lat="39.47486937" lon="-0.38543344"><ele>15.0</ele><time>2022-11-02T15:16:07.0000000+00:00</time></trkpt><trkpt lat="39.47486409" lon="-0.38544064"><ele>15.0</ele><time>2022-11-02T15:16:08.0000000+00:00</time></trkpt><trkpt lat="39.4748547" lon="-0.38544282"><ele>15.0</ele><time>2022-11-02T15:16:09.0000000+00:00</time></trkpt><trkpt lat="39.47483651" lon="-0.38544081"><ele>15.0</ele><time>2022-11-02T15:16:10.0000000+00:00</time></trkpt><trkpt lat="39.47482805" lon="-0.38544534"><ele>15.0</ele><time>2022-11-02T15:16:11.0000000+00:00</time></trkpt><trkpt lat="39.47489242" lon="-0.38546428"><ele>15.0</ele><time>2022-11-02T15:16:12.0000000+00:00</time></trkpt><trkpt lat="39.47489745" lon="-0.385474"><ele>15.0</ele><time>2022-11-02T15:16:13.0000000+00:00</time></trkpt><trkpt lat="39.47490349" lon="-0.385487"><ele>15.0</ele><time>2022-11-02T15:16:14.0000000+00:00</time></trkpt><trkpt lat="39.47490416" lon="-0.38548959"><ele>15.0</ele><time>2022-11-02T15:16:15.0000000+00:00</time></trkpt><trkpt lat="39.47490499" lon="-0.38549513"><ele>15.0</ele><time>2022-11-02T15:16:16.0000000+00:00</time></trkpt><trkpt lat="39.47490307" lon="-0.38549965"><ele>15.0</ele><time>2022-11-02T15:16:17.0000000+00:00</time></trkpt><trkpt lat="39.47489653" lon="-0.38550326"><ele>15.0</ele><time>2022-11-02T15:16:18.0000000+00:00</time></trkpt><trkpt lat="39.47489753" lon="-0.38550225"><ele>15.0</ele><time>2022-11-02T15:16:19.0000000+00:00</time></trkpt><trkpt lat="39.4748972" lon="-0.38550133"><ele>15.0</ele><time>2022-11-02T15:16:20.0000000+00:00</time></trkpt><trkpt lat="39.47489812" lon="-0.38550175"><ele>15.0</ele><time>2022-11-02T15:16:21.0000000+00:00</time></trkpt><trkpt lat="39.47490064" lon="-0.38550032"><ele>15.0</ele><time>2022-11-02T15:16:22.0000000+00:00</time></trkpt><trkpt lat="39.47489996" lon="-0.38549915"><ele>15.0</ele><time>2022-11-02T15:16:23.0000000+00:00</time></trkpt><trkpt lat="39.47489577" lon="-0.38550057"><ele>15.0</ele><time>2022-11-02T15:16:24.0000000+00:00</time></trkpt><trkpt lat="39.47488496" lon="-0.38549974"><ele>15.0</ele><time>2022-11-02T15:16:25.0000000+00:00</time></trkpt><trkpt lat="39.47489058" lon="-0.38550753"><ele>15.0</ele><time>2022-11-02T15:16:26.0000000+00:00</time></trkpt><trkpt lat="39.4748951" lon="-0.38551927"><ele>15.0</ele><time>2022-11-02T15:16:27.0000000+00:00</time></trkpt><trkpt lat="39.47489301" lon="-0.38552689"><ele>15.0</ele><time>2022-11-02T15:16:28.0000000+00:00</time></trkpt><trkpt lat="39.47489804" lon="-0.38554131"><ele>15.0</ele><time>2022-11-02T15:16:29.0000000+00:00</time></trkpt><trkpt lat="39.47490231" lon="-0.38555623"><ele>15.0</ele><time>2022-11-02T15:16:30.0000000+00:00</time></trkpt><trkpt lat="39.47490416" lon="-0.38557224"><ele>15.0</ele><time>2022-11-02T15:16:31.0000000+00:00</time></trkpt><trkpt lat="39.47489603" lon="-0.38558741"><ele>15.0</ele><time>2022-11-02T15:16:32.0000000+00:00</time></trkpt><trkpt lat="39.47489209" lon="-0.38560099"><ele>15.0</ele><time>2022-11-02T15:16:33.0000000+00:00</time></trkpt><trkpt lat="39.47490281" lon="-0.38561549"><ele>15.0</ele><time>2022-11-02T15:16:34.0000000+00:00</time></trkpt><trkpt lat="39.47492109" lon="-0.38563033"><ele>15.0</ele><time>2022-11-02T15:16:35.0000000+00:00</time></trkpt><trkpt lat="39.47494154" lon="-0.38565271"><ele>15.0</ele><time>2022-11-02T15:16:36.0000000+00:00</time></trkpt><trkpt lat="39.47496501" lon="-0.38566737"><ele>15.0</ele><time>2022-11-02T15:16:37.0000000+00:00</time></trkpt><trkpt lat="39.47496962" lon="-0.38567928"><ele>15.0</ele><time>2022-11-02T15:16:38.0000000+00:00</time></trkpt><trkpt lat="39.47496182" lon="-0.3856859"><ele>15.0</ele><time>2022-11-02T15:16:39.0000000+00:00</time></trkpt><trkpt lat="39.47494447" lon="-0.38569059"><ele>15.0</ele><time>2022-11-02T15:16:40.0000000+00:00</time></trkpt><trkpt lat="39.47494196" lon="-0.38569545"><ele>15.0</ele><time>2022-11-02T15:16:41.0000000+00:00</time></trkpt><trkpt lat="39.4749407" lon="-0.38569822"><ele>15.0</ele><time>2022-11-02T15:16:42.0000000+00:00</time></trkpt><trkpt lat="39.47492897" lon="-0.38569923"><ele>15.0</ele><time>2022-11-02T15:16:43.0000000+00:00</time></trkpt><trkpt lat="39.47492402" lon="-0.38571373"><ele>15.0</ele><time>2022-11-02T15:16:44.0000000+00:00</time></trkpt><trkpt lat="39.47491824" lon="-0.38572135"><ele>15.0</ele><time>2022-11-02T15:16:45.0000000+00:00</time></trkpt><trkpt lat="39.47491363" lon="-0.38573208"><ele>15.0</ele><time>2022-11-02T15:16:46.0000000+00:00</time></trkpt><trkpt lat="39.47490726" lon="-0.38574742"><ele>15.0</ele><time>2022-11-02T15:16:47.0000000+00:00</time></trkpt><trkpt lat="39.47488178" lon="-0.38575706"><ele>15.0</ele><time>2022-11-02T15:16:48.0000000+00:00</time></trkpt><trkpt lat="39.47486887" lon="-0.38577257"><ele>15.0</ele><time>2022-11-02T15:16:49.0000000+00:00</time></trkpt><trkpt lat="39.4748573" lon="-0.38579"><ele>15.0</ele><time>2022-11-02T15:16:50.0000000+00:00</time></trkpt><trkpt lat="39.47484272" lon="-0.38580014"><ele>15.0</ele><time>2022-11-02T15:16:51.0000000+00:00</time></trkpt><trkpt lat="39.47483534" lon="-0.38581129"><ele>15.0</ele><time>2022-11-02T15:16:52.0000000+00:00</time></trkpt><trkpt lat="39.47483744" lon="-0.38581758"><ele>15.0</ele><time>2022-11-02T15:16:53.0000000+00:00</time></trkpt><trkpt lat="39.47483157" lon="-0.38582923"><ele>15.0</ele><time>2022-11-02T15:16:54.0000000+00:00</time></trkpt><trkpt lat="39.47483199" lon="-0.38583191"><ele>15.0</ele><time>2022-11-02T15:16:55.0000000+00:00</time></trkpt><trkpt lat="39.47482235" lon="-0.38582822"><ele>15.0</ele><time>2022-11-02T15:16:56.0000000+00:00</time></trkpt><trkpt lat="39.47481397" lon="-0.38582655"><ele>15.0</ele><time>2022-11-02T15:16:57.0000000+00:00</time></trkpt><trkpt lat="39.47480642" lon="-0.38582521"><ele>15.0</ele><time>2022-11-02T15:16:58.0000000+00:00</time></trkpt><trkpt lat="39.47479955" lon="-0.3858211"><ele>15.0</ele><time>2022-11-02T15:16:59.0000000+00:00</time></trkpt><trkpt lat="39.4747931" lon="-0.38580878"><ele>15.0</ele><time>2022-11-02T15:17:00.0000000+00:00</time></trkpt><trkpt lat="39.47477273" lon="-0.38579319"><ele>15.0</ele><time>2022-11-02T15:17:01.0000000+00:00</time></trkpt><trkpt lat="39.47477642" lon="-0.38580341"><ele>15.0</ele><time>2022-11-02T15:17:02.0000000+00:00</time></trkpt><trkpt lat="39.47476041" lon="-0.38579025"><ele>15.0</ele><time>2022-11-02T15:17:03.0000000+00:00</time></trkpt><trkpt lat="39.47475873" lon="-0.38577114"><ele>15.0</ele><time>2022-11-02T15:17:04.0000000+00:00</time></trkpt><trkpt lat="39.4747589" lon="-0.38576771"><ele>15.0</ele><time>2022-11-02T15:17:05.0000000+00:00</time></trkpt><trkpt lat="39.47475102" lon="-0.38576896"><ele>15.0</ele><time>2022-11-02T15:17:06.0000000+00:00</time></trkpt><trkpt lat="39.47474917" lon="-0.38576704"><ele>15.0</ele><time>2022-11-02T15:17:07.0000000+00:00</time></trkpt><trkpt lat="39.47474876" lon="-0.3857812"><ele>15.0</ele><time>2022-11-02T15:17:08.0000000+00:00</time></trkpt><trkpt lat="39.47474674" lon="-0.38578305"><ele>15.0</ele><time>2022-11-02T15:17:09.0000000+00:00</time></trkpt><trkpt lat="39.47474867" lon="-0.3857833"><ele>15.0</ele><time>2022-11-02T15:17:10.0000000+00:00</time></trkpt><trkpt lat="39.47474029" lon="-0.38576989"><ele>15.0</ele><time>2022-11-02T15:17:11.0000000+00:00</time></trkpt><trkpt lat="39.47474163" lon="-0.38576972"><ele>15.0</ele><time>2022-11-02T15:17:12.0000000+00:00</time></trkpt><trkpt lat="39.47474792" lon="-0.38578355"><ele>15.0</ele><time>2022-11-02T15:17:13.0000000+00:00</time></trkpt><trkpt lat="39.47475345" lon="-0.3857838"><ele>15.0</ele><time>2022-11-02T15:17:14.0000000+00:00</time></trkpt><trkpt lat="39.47475647" lon="-0.38578816"><ele>15.0</ele><time>2022-11-02T15:17:15.0000000+00:00</time></trkpt><trkpt lat="39.47476912" lon="-0.38580333"><ele>15.0</ele><time>2022-11-02T15:17:16.0000000+00:00</time></trkpt><trkpt lat="39.47477466" lon="-0.38580593"><ele>15.0</ele><time>2022-11-02T15:17:17.0000000+00:00</time></trkpt><trkpt lat="39.47477767" lon="-0.38579327"><ele>15.0</ele><time>2022-11-02T15:17:18.0000000+00:00</time></trkpt><trkpt lat="39.47478379" lon="-0.38579134"><ele>15.0</ele><time>2022-11-02T15:17:19.0000000+00:00</time></trkpt><trkpt lat="39.47479092" lon="-0.385804"><ele>15.0</ele><time>2022-11-02T15:17:20.0000000+00:00</time></trkpt><trkpt lat="39.4747801" lon="-0.38579302"><ele>15.0</ele><time>2022-11-02T15:17:21.0000000+00:00</time></trkpt><trkpt lat="39.47478605" lon="-0.38580475"><ele>15.0</ele><time>2022-11-02T15:17:22.0000000+00:00</time></trkpt><trkpt lat="39.47479318" lon="-0.38580853"><ele>15.0</ele><time>2022-11-02T15:17:23.0000000+00:00</time></trkpt><trkpt lat="39.47480458" lon="-0.38581942"><ele>15.0</ele><time>2022-11-02T15:17:24.0000000+00:00</time></trkpt><trkpt lat="39.47481028" lon="-0.3858263"><ele>15.0</ele><time>2022-11-02T15:17:25.0000000+00:00</time></trkpt><trkpt lat="39.47481665" lon="-0.38583132"><ele>15.0</ele><time>2022-11-02T15:17:26.0000000+00:00</time></trkpt><trkpt lat="39.47482696" lon="-0.38583744"><ele>15.0</ele><time>2022-11-02T15:17:27.0000000+00:00</time></trkpt><trkpt lat="39.47483819" lon="-0.38582998"><ele>15.0</ele><time>2022-11-02T15:17:28.0000000+00:00</time></trkpt><trkpt lat="39.47484791" lon="-0.38582462"><ele>15.0</ele><time>2022-11-02T15:17:29.0000000+00:00</time></trkpt><trkpt lat="39.4748573" lon="-0.38582688"><ele>15.0</ele><time>2022-11-02T15:17:30.0000000+00:00</time></trkpt><trkpt lat="39.47487038" lon="-0.38583593"><ele>15.0</ele><time>2022-11-02T15:17:31.0000000+00:00</time></trkpt><trkpt lat="39.47487708" lon="-0.385847"><ele>15.0</ele><time>2022-11-02T15:17:32.0000000+00:00</time></trkpt><trkpt lat="39.47488714" lon="-0.38585144"><ele>15.0</ele><time>2022-11-02T15:17:33.0000000+00:00</time></trkpt><trkpt lat="39.47489779" lon="-0.38585303"><ele>15.0</ele><time>2022-11-02T15:17:34.0000000+00:00</time></trkpt><trkpt lat="39.47490223" lon="-0.385848"><ele>15.0</ele><time>2022-11-02T15:17:35.0000000+00:00</time></trkpt><trkpt lat="39.47490902" lon="-0.38584951"><ele>15.0</ele><time>2022-11-02T15:17:36.0000000+00:00</time></trkpt><trkpt lat="39.47491765" lon="-0.38585203"><ele>15.0</ele><time>2022-11-02T15:17:37.0000000+00:00</time></trkpt><trkpt lat="39.47492939" lon="-0.38585546"><ele>15.0</ele><time>2022-11-02T15:17:38.0000000+00:00</time></trkpt><trkpt lat="39.4749407" lon="-0.38585831"><ele>15.0</ele><time>2022-11-02T15:17:39.0000000+00:00</time></trkpt><trkpt lat="39.47495746" lon="-0.38586443"><ele>15.0</ele><time>2022-11-02T15:17:40.0000000+00:00</time></trkpt><trkpt lat="39.47496937" lon="-0.38586645"><ele>15.0</ele><time>2022-11-02T15:17:41.0000000+00:00</time></trkpt><trkpt lat="39.474978" lon="-0.38587156"><ele>15.0</ele><time>2022-11-02T15:17:42.0000000+00:00</time></trkpt><trkpt lat="39.47498932" lon="-0.3858786"><ele>15.0</ele><time>2022-11-02T15:17:43.0000000+00:00</time></trkpt><trkpt lat="39.47500558" lon="-0.3858874"><ele>15.0</ele><time>2022-11-02T15:17:44.0000000+00:00</time></trkpt><trkpt lat="39.47501446" lon="-0.38589369"><ele>15.0</ele><time>2022-11-02T15:17:45.0000000+00:00</time></trkpt><trkpt lat="39.47503022" lon="-0.38589872"><ele>15.0</ele><time>2022-11-02T15:17:46.0000000+00:00</time></trkpt><trkpt lat="39.47504564" lon="-0.38591053"><ele>15.0</ele><time>2022-11-02T15:17:47.0000000+00:00</time></trkpt><trkpt lat="39.47506031" lon="-0.38591933"><ele>15.0</ele><time>2022-11-02T15:17:48.0000000+00:00</time></trkpt><trkpt lat="39.47507213" lon="-0.38592235"><ele>15.0</ele><time>2022-11-02T15:17:49.0000000+00:00</time></trkpt><trkpt lat="39.47507649" lon="-0.38593367"><ele>15.0</ele><time>2022-11-02T15:17:50.0000000+00:00</time></trkpt><trkpt lat="39.4750811" lon="-0.38594616"><ele>15.0</ele><time>2022-11-02T15:17:51.0000000+00:00</time></trkpt><trkpt lat="39.47507992" lon="-0.38590869"><ele>15.0</ele><time>2022-11-02T15:17:52.0000000+00:00</time></trkpt><trkpt lat="39.47507791" lon="-0.38590039"><ele>15.0</ele><time>2022-11-02T15:17:53.0000000+00:00</time></trkpt><trkpt lat="39.47508068" lon="-0.38588941"><ele>15.0</ele><time>2022-11-02T15:17:54.0000000+00:00</time></trkpt><trkpt lat="39.47509426" lon="-0.38588505"><ele>15.0</ele><time>2022-11-02T15:17:55.0000000+00:00</time></trkpt><trkpt lat="39.47510365" lon="-0.3858791"><ele>15.2</ele><time>2022-11-02T15:17:56.0000000+00:00</time></trkpt><trkpt lat="39.47510826" lon="-0.38586971"><ele>15.2</ele><time>2022-11-02T15:17:57.0000000+00:00</time></trkpt><trkpt lat="39.47511831" lon="-0.38586217"><ele>15.2</ele><time>2022-11-02T15:17:58.0000000+00:00</time></trkpt><trkpt lat="39.47512594" lon="-0.38585412"><ele>15.2</ele><time>2022-11-02T15:17:59.0000000+00:00</time></trkpt><trkpt lat="39.47513675" lon="-0.38585873"><ele>15.2</ele><time>2022-11-02T15:18:00.0000000+00:00</time></trkpt><trkpt lat="39.47514547" lon="-0.38585278"><ele>15.2</ele><time>2022-11-02T15:18:01.0000000+00:00</time></trkpt><trkpt lat="39.47515612" lon="-0.38584516"><ele>15.2</ele><time>2022-11-02T15:18:02.0000000+00:00</time></trkpt><trkpt lat="39.47516651" lon="-0.38583904"><ele>15.4</ele><time>2022-11-02T15:18:03.0000000+00:00</time></trkpt><trkpt lat="39.47518654" lon="-0.38586418"><ele>15.4</ele><time>2022-11-02T15:18:04.0000000+00:00</time></trkpt><trkpt lat="39.47520783" lon="-0.38587365"><ele>15.4</ele><time>2022-11-02T15:18:05.0000000+00:00</time></trkpt><trkpt lat="39.47522309" lon="-0.38587667"><ele>15.4</ele><time>2022-11-02T15:18:06.0000000+00:00</time></trkpt><trkpt lat="39.47523801" lon="-0.3858781"><ele>15.4</ele><time>2022-11-02T15:18:07.0000000+00:00</time></trkpt><trkpt lat="39.47525293" lon="-0.38588505"><ele>15.4</ele><time>2022-11-02T15:18:08.0000000+00:00</time></trkpt><trkpt lat="39.47526433" lon="-0.3858838"><ele>15.4</ele><time>2022-11-02T15:18:09.0000000+00:00</time></trkpt><trkpt lat="39.47527899" lon="-0.38589"><ele>15.4</ele><time>2022-11-02T15:18:10.0000000+00:00</time></trkpt><trkpt lat="39.4752971" lon="-0.38586753"><ele>15.6</ele><time>2022-11-02T15:18:11.0000000+00:00</time></trkpt><trkpt lat="39.47531747" lon="-0.38587801"><ele>15.6</ele><time>2022-11-02T15:18:12.0000000+00:00</time></trkpt><trkpt lat="39.47533088" lon="-0.38585404"><ele>15.6</ele><time>2022-11-02T15:18:13.0000000+00:00</time></trkpt><trkpt lat="39.47533976" lon="-0.38583082"><ele>15.6</ele><time>2022-11-02T15:18:14.0000000+00:00</time></trkpt><trkpt lat="39.47534462" lon="-0.38580626"><ele>15.6</ele><time>2022-11-02T15:18:15.0000000+00:00</time></trkpt><trkpt lat="39.47534865" lon="-0.38577357"><ele>15.6</ele><time>2022-11-02T15:18:16.0000000+00:00</time></trkpt><trkpt lat="39.47535343" lon="-0.38575656"><ele>15.8</ele><time>2022-11-02T15:18:17.0000000+00:00</time></trkpt><trkpt lat="39.47535971" lon="-0.38574231"><ele>15.8</ele><time>2022-11-02T15:18:18.0000000+00:00</time></trkpt><trkpt lat="39.47536759" lon="-0.38572714"><ele>15.8</ele><time>2022-11-02T15:18:19.0000000+00:00</time></trkpt><trkpt lat="39.47538201" lon="-0.38571691"><ele>15.8</ele><time>2022-11-02T15:18:20.0000000+00:00</time></trkpt><trkpt lat="39.47539349" lon="-0.38571113"><ele>15.8</ele><time>2022-11-02T15:18:21.0000000+00:00</time></trkpt><trkpt lat="39.4754043" lon="-0.38571121"><ele>15.8</ele><time>2022-11-02T15:18:22.0000000+00:00</time></trkpt><trkpt lat="39.47540933" lon="-0.38570509"><ele>15.8</ele><time>2022-11-02T15:18:23.0000000+00:00</time></trkpt><trkpt lat="39.47541277" lon="-0.38571817"><ele>15.8</ele><time>2022-11-02T15:18:24.0000000+00:00</time></trkpt><trkpt lat="39.47541721" lon="-0.38574952"><ele>15.8</ele><time>2022-11-02T15:18:25.0000000+00:00</time></trkpt><trkpt lat="39.47542668" lon="-0.38577969"><ele>15.8</ele><time>2022-11-02T15:18:26.0000000+00:00</time></trkpt><trkpt lat="39.47543406" lon="-0.38580216"><ele>15.8</ele><time>2022-11-02T15:18:27.0000000+00:00</time></trkpt><trkpt lat="39.47543666" lon="-0.38580333"><ele>15.8</ele><time>2022-11-02T15:18:28.0000000+00:00</time></trkpt><trkpt lat="39.47543808" lon="-0.38580542"><ele>15.8</ele><time>2022-11-02T15:18:29.0000000+00:00</time></trkpt><trkpt lat="39.47544202" lon="-0.38581649"><ele>15.8</ele><time>2022-11-02T15:18:30.0000000+00:00</time></trkpt><trkpt lat="39.47546323" lon="-0.38583241"><ele>15.8</ele><time>2022-11-02T15:18:31.0000000+00:00</time></trkpt><trkpt lat="39.47547471" lon="-0.38584775"><ele>15.8</ele><time>2022-11-02T15:18:32.0000000+00:00</time></trkpt><trkpt lat="39.47545619" lon="-0.38585027"><ele>15.8</ele><time>2022-11-02T15:18:33.0000000+00:00</time></trkpt><trkpt lat="39.4754297" lon="-0.38584448"><ele>15.8</ele><time>2022-11-02T15:18:34.0000000+00:00</time></trkpt><trkpt lat="39.47543674" lon="-0.38585362"><ele>15.8</ele><time>2022-11-02T15:18:35.0000000+00:00</time></trkpt><trkpt lat="39.47544328" lon="-0.3858729"><ele>15.8</ele><time>2022-11-02T15:18:36.0000000+00:00</time></trkpt><trkpt lat="39.47544512" lon="-0.38588832"><ele>15.8</ele><time>2022-11-02T15:18:37.0000000+00:00</time></trkpt><trkpt lat="39.47544848" lon="-0.38589897"><ele>15.8</ele><time>2022-11-02T15:18:38.0000000+00:00</time></trkpt><trkpt lat="39.47545518" lon="-0.38589494"><ele>15.8</ele><time>2022-11-02T15:18:39.0000000+00:00</time></trkpt><trkpt lat="39.4754577" lon="-0.38588011"><ele>15.8</ele><time>2022-11-02T15:18:40.0000000+00:00</time></trkpt><trkpt lat="39.47546792" lon="-0.38587357"><ele>15.8</ele><time>2022-11-02T15:18:41.0000000+00:00</time></trkpt><trkpt lat="39.47548972" lon="-0.38587399"><ele>15.8</ele><time>2022-11-02T15:18:42.0000000+00:00</time></trkpt><trkpt lat="39.47549089" lon="-0.38586921"><ele>15.8</ele><time>2022-11-02T15:18:43.0000000+00:00</time></trkpt><trkpt lat="39.47549433" lon="-0.38586544"><ele>15.8</ele><time>2022-11-02T15:18:44.0000000+00:00</time></trkpt><trkpt lat="39.4755012" lon="-0.38589201"><ele>15.8</ele><time>2022-11-02T15:18:45.0000000+00:00</time></trkpt><trkpt lat="39.47550447" lon="-0.38591162"><ele>16.0</ele><time>2022-11-02T15:18:46.0000000+00:00</time></trkpt><trkpt lat="39.47550665" lon="-0.38591632"><ele>16.0</ele><time>2022-11-02T15:18:47.0000000+00:00</time></trkpt><trkpt lat="39.47550975" lon="-0.38591523"><ele>16.0</ele><time>2022-11-02T15:18:48.0000000+00:00</time></trkpt><trkpt lat="39.47552048" lon="-0.38592462"><ele>16.0</ele><time>2022-11-02T15:18:49.0000000+00:00</time></trkpt><trkpt lat="39.47553397" lon="-0.38593685"><ele>16.0</ele><time>2022-11-02T15:18:50.0000000+00:00</time></trkpt><trkpt lat="39.47554579" lon="-0.38594465"><ele>16.0</ele><time>2022-11-02T15:18:51.0000000+00:00</time></trkpt><trkpt lat="39.47555836" lon="-0.38595119"><ele>16.0</ele><time>2022-11-02T15:18:52.0000000+00:00</time></trkpt><trkpt lat="39.47555861" lon="-0.38596384"><ele>16.0</ele><time>2022-11-02T15:18:53.0000000+00:00</time></trkpt><trkpt lat="39.47556188" lon="-0.38597449"><ele>16.0</ele><time>2022-11-02T15:18:54.0000000+00:00</time></trkpt><trkpt lat="39.47557127" lon="-0.38597675"><ele>16.0</ele><time>2022-11-02T15:18:55.0000000+00:00</time></trkpt><trkpt lat="39.47552551" lon="-0.38598161"><ele>16.0</ele><time>2022-11-02T15:18:56.0000000+00:00</time></trkpt><trkpt lat="39.4754924" lon="-0.3859739"><ele>16.0</ele><time>2022-11-02T15:18:57.0000000+00:00</time></trkpt><trkpt lat="39.47544705" lon="-0.38596611"><ele>16.0</ele><time>2022-11-02T15:18:58.0000000+00:00</time></trkpt><trkpt lat="39.4754116" lon="-0.38596275"><ele>16.0</ele><time>2022-11-02T15:18:59.0000000+00:00</time></trkpt><trkpt lat="39.47538704" lon="-0.38595831"><ele>16.0</ele><time>2022-11-02T15:19:00.0000000+00:00</time></trkpt><trkpt lat="39.47537103" lon="-0.38595471"><ele>16.0</ele><time>2022-11-02T15:19:01.0000000+00:00</time></trkpt><trkpt lat="39.47535452" lon="-0.3859511"><ele>16.0</ele><time>2022-11-02T15:19:02.0000000+00:00</time></trkpt><trkpt lat="39.47534429" lon="-0.38594884"><ele>16.0</ele><time>2022-11-02T15:19:03.0000000+00:00</time></trkpt><trkpt lat="39.47535351" lon="-0.3859537"><ele>16.0</ele><time>2022-11-02T15:19:04.0000000+00:00</time></trkpt><trkpt lat="39.47542802" lon="-0.3859672"><ele>16.0</ele><time>2022-11-02T15:19:05.0000000+00:00</time></trkpt><trkpt lat="39.47544303" lon="-0.38597424"><ele>16.0</ele><time>2022-11-02T15:19:06.0000000+00:00</time></trkpt><trkpt lat="39.4754442" lon="-0.385976"><ele>16.0</ele><time>2022-11-02T15:19:07.0000000+00:00</time></trkpt><trkpt lat="39.47544948" lon="-0.38597885"><ele>16.0</ele><time>2022-11-02T15:19:08.0000000+00:00</time></trkpt><trkpt lat="39.47544621" lon="-0.3859827"><ele>16.0</ele><time>2022-11-02T15:19:09.0000000+00:00</time></trkpt><trkpt lat="39.47541746" lon="-0.38598153"><ele>16.0</ele><time>2022-11-02T15:19:10.0000000+00:00</time></trkpt><trkpt lat="39.47541897" lon="-0.38598144"><ele>16.0</ele><time>2022-11-02T15:19:11.0000000+00:00</time></trkpt><trkpt lat="39.47541612" lon="-0.38597985"><ele>16.0</ele><time>2022-11-02T15:19:12.0000000+00:00</time></trkpt><trkpt lat="39.47542995" lon="-0.38597566"><ele>16.0</ele><time>2022-11-02T15:19:13.0000000+00:00</time></trkpt><trkpt lat="39.4754442" lon="-0.38597147"><ele>16.0</ele><time>2022-11-02T15:19:14.0000000+00:00</time></trkpt><trkpt lat="39.47545929" lon="-0.38596912"><ele>16.0</ele><time>2022-11-02T15:19:15.0000000+00:00</time></trkpt><trkpt lat="39.47547052" lon="-0.38596518"><ele>16.0</ele><time>2022-11-02T15:19:16.0000000+00:00</time></trkpt><trkpt lat="39.47548863" lon="-0.385962"><ele>16.0</ele><time>2022-11-02T15:19:17.0000000+00:00</time></trkpt><trkpt lat="39.47549072" lon="-0.38595655"><ele>16.0</ele><time>2022-11-02T15:19:18.0000000+00:00</time></trkpt><trkpt lat="39.47550003" lon="-0.38594557"><ele>16.0</ele><time>2022-11-02T15:19:19.0000000+00:00</time></trkpt><trkpt lat="39.47550497" lon="-0.38593509"><ele>16.0</ele><time>2022-11-02T15:19:20.0000000+00:00</time></trkpt><trkpt lat="39.47550472" lon="-0.38593099"><ele>16.0</ele><time>2022-11-02T15:19:21.0000000+00:00</time></trkpt><trkpt lat="39.4754955" lon="-0.38591808"><ele>16.0</ele><time>2022-11-02T15:19:22.0000000+00:00</time></trkpt><trkpt lat="39.4754893" lon="-0.38590676"><ele>16.0</ele><time>2022-11-02T15:19:23.0000000+00:00</time></trkpt><trkpt lat="39.47547345" lon="-0.38589436"><ele>16.0</ele><time>2022-11-02T15:19:24.0000000+00:00</time></trkpt><trkpt lat="39.47554336" lon="-0.38581967"><ele>15.8</ele><time>2022-11-02T15:48:41.0000000+00:00</time></trkpt><trkpt lat="39.47555618" lon="-0.38584231"><ele>15.8</ele><time>2022-11-02T15:48:42.0000000+00:00</time></trkpt><trkpt lat="39.47543448" lon="-0.38597315"><ele>15.8</ele><time>2022-11-02T15:48:43.0000000+00:00</time></trkpt><trkpt lat="39.4754028" lon="-0.38598698"><ele>15.8</ele><time>2022-11-02T15:48:44.0000000+00:00</time></trkpt><trkpt lat="39.47539232" lon="-0.38598413"><ele>16.0</ele><time>2022-11-02T15:48:45.0000000+00:00</time></trkpt><trkpt lat="39.47539073" lon="-0.3859884"><ele>16.0</ele><time>2022-11-02T15:48:46.0000000+00:00</time></trkpt><trkpt lat="39.47538779" lon="-0.38598027"><ele>16.0</ele><time>2022-11-02T15:48:47.0000000+00:00</time></trkpt><trkpt lat="39.47538234" lon="-0.38598312"><ele>16.0</ele><time>2022-11-02T15:48:48.0000000+00:00</time></trkpt><trkpt lat="39.47537413" lon="-0.38599117"><ele>16.0</ele><time>2022-11-02T15:48:49.0000000+00:00</time></trkpt><trkpt lat="39.47536784" lon="-0.38599427"><ele>16.0</ele><time>2022-11-02T15:48:50.0000000+00:00</time></trkpt><trkpt lat="39.47536843" lon="-0.38597985"><ele>16.0</ele><time>2022-11-02T15:48:51.0000000+00:00</time></trkpt><trkpt lat="39.47537388" lon="-0.38596418"><ele>16.0</ele><time>2022-11-02T15:48:52.0000000+00:00</time></trkpt><trkpt lat="39.47538243" lon="-0.38595353"><ele>16.0</ele><time>2022-11-02T15:48:53.0000000+00:00</time></trkpt><trkpt lat="39.47538343" lon="-0.38595161"><ele>16.0</ele><time>2022-11-02T15:48:54.0000000+00:00</time></trkpt><trkpt lat="39.47538804" lon="-0.38595454"><ele>15.8</ele><time>2022-11-02T15:48:55.0000000+00:00</time></trkpt><trkpt lat="39.47539358" lon="-0.38596032"><ele>15.8</ele><time>2022-11-02T15:48:56.0000000+00:00</time></trkpt><trkpt lat="39.47540112" lon="-0.38595638"><ele>15.8</ele><time>2022-11-02T15:48:57.0000000+00:00</time></trkpt><trkpt lat="39.47541076" lon="-0.38595295"><ele>15.8</ele><time>2022-11-02T15:48:58.0000000+00:00</time></trkpt><trkpt lat="39.47541109" lon="-0.38595739"><ele>15.8</ele><time>2022-11-02T15:48:59.0000000+00:00</time></trkpt><trkpt lat="39.47540992" lon="-0.38596284"><ele>16.0</ele><time>2022-11-02T15:49:00.0000000+00:00</time></trkpt><trkpt lat="39.47539148" lon="-0.3859744"><ele>16.0</ele><time>2022-11-02T15:49:01.0000000+00:00</time></trkpt><trkpt lat="39.47539056" lon="-0.38598312"><ele>16.0</ele><time>2022-11-02T15:49:02.0000000+00:00</time></trkpt><trkpt lat="39.47537128" lon="-0.38599695"><ele>16.0</ele><time>2022-11-02T15:49:03.0000000+00:00</time></trkpt><trkpt lat="39.47537505" lon="-0.386005"><ele>16.0</ele><time>2022-11-02T15:49:04.0000000+00:00</time></trkpt><trkpt lat="39.47537128" lon="-0.38602017"><ele>16.0</ele><time>2022-11-02T15:49:05.0000000+00:00</time></trkpt><trkpt lat="39.47535703" lon="-0.38603869"><ele>16.0</ele><time>2022-11-02T15:49:06.0000000+00:00</time></trkpt><trkpt lat="39.47534521" lon="-0.38604766"><ele>16.0</ele><time>2022-11-02T15:49:07.0000000+00:00</time></trkpt><trkpt lat="39.475338" lon="-0.3860604"><ele>16.0</ele><time>2022-11-02T15:49:08.0000000+00:00</time></trkpt><trkpt lat="39.47533507" lon="-0.38607658"><ele>16.0</ele><time>2022-11-02T15:49:09.0000000+00:00</time></trkpt><trkpt lat="39.47533893" lon="-0.3860822"><ele>16.0</ele><time>2022-11-02T15:49:10.0000000+00:00</time></trkpt><trkpt lat="39.47534001" lon="-0.38608756"><ele>16.0</ele><time>2022-11-02T15:49:11.0000000+00:00</time></trkpt><trkpt lat="39.47534127" lon="-0.38609628"><ele>16.0</ele><time>2022-11-02T15:49:12.0000000+00:00</time></trkpt><trkpt lat="39.47534161" lon="-0.38611698"><ele>16.0</ele><time>2022-11-02T15:49:13.0000000+00:00</time></trkpt><trkpt lat="39.4753396" lon="-0.38614238"><ele>16.0</ele><time>2022-11-02T15:49:14.0000000+00:00</time></trkpt><trkpt lat="39.47534027" lon="-0.38615914"><ele>16.0</ele><time>2022-11-02T15:49:15.0000000+00:00</time></trkpt><trkpt lat="39.47533641" lon="-0.38616476"><ele>16.0</ele><time>2022-11-02T15:49:16.0000000+00:00</time></trkpt><trkpt lat="39.4753401" lon="-0.38616719"><ele>16.0</ele><time>2022-11-02T15:49:17.0000000+00:00</time></trkpt><trkpt lat="39.47534303" lon="-0.38617314"><ele>16.0</ele><time>2022-11-02T15:49:18.0000000+00:00</time></trkpt><trkpt lat="39.47534605" lon="-0.3861811"><ele>16.0</ele><time>2022-11-02T15:49:19.0000000+00:00</time></trkpt><trkpt lat="39.47534747" lon="-0.38618923"><ele>16.0</ele><time>2022-11-02T15:49:20.0000000+00:00</time></trkpt><trkpt lat="39.47533842" lon="-0.38620566"><ele>16.0</ele><time>2022-11-02T15:49:21.0000000+00:00</time></trkpt><trkpt lat="39.47534136" lon="-0.38621572"><ele>16.0</ele><time>2022-11-02T15:49:22.0000000+00:00</time></trkpt><trkpt lat="39.47534739" lon="-0.38622393"><ele>16.0</ele><time>2022-11-02T15:49:23.0000000+00:00</time></trkpt><trkpt lat="39.47535711" lon="-0.38622687"><ele>16.0</ele><time>2022-11-02T15:49:24.0000000+00:00</time></trkpt><trkpt lat="39.47537631" lon="-0.38623055"><ele>16.0</ele><time>2022-11-02T15:49:25.0000000+00:00</time></trkpt><trkpt lat="39.47539617" lon="-0.38624204"><ele>16.0</ele><time>2022-11-02T15:49:26.0000000+00:00</time></trkpt><trkpt lat="39.47540766" lon="-0.38625117"><ele>16.0</ele><time>2022-11-02T15:49:27.0000000+00:00</time></trkpt><trkpt lat="39.47540531" lon="-0.38626132"><ele>16.0</ele><time>2022-11-02T15:49:28.0000000+00:00</time></trkpt><trkpt lat="39.47540917" lon="-0.38627473"><ele>16.0</ele><time>2022-11-02T15:49:29.0000000+00:00</time></trkpt><trkpt lat="39.47541663" lon="-0.38628596"><ele>16.0</ele><time>2022-11-02T15:49:30.0000000+00:00</time></trkpt><trkpt lat="39.47542819" lon="-0.38629526"><ele>16.0</ele><time>2022-11-02T15:49:31.0000000+00:00</time></trkpt><trkpt lat="39.47543657" lon="-0.38629334"><ele>16.0</ele><time>2022-11-02T15:49:32.0000000+00:00</time></trkpt><trkpt lat="39.47544697" lon="-0.38629367"><ele>16.0</ele><time>2022-11-02T15:49:33.0000000+00:00</time></trkpt><trkpt lat="39.47545175" lon="-0.38629702"><ele>16.0</ele><time>2022-11-02T15:49:34.0000000+00:00</time></trkpt><trkpt lat="39.47545828" lon="-0.38629568"><ele>16.0</ele><time>2022-11-02T15:49:35.0000000+00:00</time></trkpt><trkpt lat="39.47545736" lon="-0.38630197"><ele>16.0</ele><time>2022-11-02T15:49:36.0000000+00:00</time></trkpt><trkpt lat="39.47545703" lon="-0.38630884"><ele>16.0</ele><time>2022-11-02T15:49:37.0000000+00:00</time></trkpt><trkpt lat="39.47543976" lon="-0.38632368"><ele>16.0</ele><time>2022-11-02T15:49:38.0000000+00:00</time></trkpt><trkpt lat="39.4754354" lon="-0.38633902"><ele>16.0</ele><time>2022-11-02T15:49:39.0000000+00:00</time></trkpt><trkpt lat="39.4754359" lon="-0.38634874"><ele>16.0</ele><time>2022-11-02T15:49:40.0000000+00:00</time></trkpt><trkpt lat="39.47543993" lon="-0.38635603"><ele>16.0</ele><time>2022-11-02T15:49:41.0000000+00:00</time></trkpt><trkpt lat="39.47544403" lon="-0.38636366"><ele>16.0</ele><time>2022-11-02T15:49:42.0000000+00:00</time></trkpt><trkpt lat="39.4754473" lon="-0.38637699"><ele>16.0</ele><time>2022-11-02T15:49:43.0000000+00:00</time></trkpt><trkpt lat="39.47545108" lon="-0.38638101"><ele>16.0</ele><time>2022-11-02T15:49:44.0000000+00:00</time></trkpt><trkpt lat="39.47545518" lon="-0.38638017"><ele>16.0</ele><time>2022-11-02T15:49:45.0000000+00:00</time></trkpt><trkpt lat="39.47546097" lon="-0.38637707"><ele>16.0</ele><time>2022-11-02T15:49:46.0000000+00:00</time></trkpt><trkpt lat="39.47545962" lon="-0.38637632"><ele>16.0</ele><time>2022-11-02T15:49:47.0000000+00:00</time></trkpt><trkpt lat="39.4754561" lon="-0.38637213"><ele>16.0</ele><time>2022-11-02T15:49:48.0000000+00:00</time></trkpt><trkpt lat="39.47544772" lon="-0.38638788"><ele>16.0</ele><time>2022-11-02T15:49:49.0000000+00:00</time></trkpt><trkpt lat="39.47543649" lon="-0.38639912"><ele>16.0</ele><time>2022-11-02T15:49:50.0000000+00:00</time></trkpt><trkpt lat="39.47542769" lon="-0.38640792"><ele>16.0</ele><time>2022-11-02T15:49:51.0000000+00:00</time></trkpt><trkpt lat="39.47542643" lon="-0.38641018"><ele>16.0</ele><time>2022-11-02T15:49:52.0000000+00:00</time></trkpt><trkpt lat="39.47543012" lon="-0.38640741"><ele>16.0</ele><time>2022-11-02T15:49:53.0000000+00:00</time></trkpt><trkpt lat="39.47542786" lon="-0.3864018"><ele>16.0</ele><time>2022-11-02T15:49:54.0000000+00:00</time></trkpt><trkpt lat="39.47542928" lon="-0.38638864"><ele>16.0</ele><time>2022-11-02T15:49:55.0000000+00:00</time></trkpt><trkpt lat="39.47542987" lon="-0.38637975"><ele>16.0</ele><time>2022-11-02T15:49:56.0000000+00:00</time></trkpt><trkpt lat="39.4754287" lon="-0.38637229"><ele>16.0</ele><time>2022-11-02T15:49:57.0000000+00:00</time></trkpt><trkpt lat="39.4754271" lon="-0.38637028"><ele>16.0</ele><time>2022-11-02T15:49:58.0000000+00:00</time></trkpt><trkpt lat="39.47542484" lon="-0.38636676"><ele>16.0</ele><time>2022-11-02T15:49:59.0000000+00:00</time></trkpt><trkpt lat="39.47542258" lon="-0.38636416"><ele>16.0</ele><time>2022-11-02T15:50:00.0000000+00:00</time></trkpt><trkpt lat="39.47542165" lon="-0.38636056"><ele>16.0</ele><time>2022-11-02T15:50:01.0000000+00:00</time></trkpt><trkpt lat="39.47542073" lon="-0.38635679"><ele>16.0</ele><time>2022-11-02T15:50:02.0000000+00:00</time></trkpt><trkpt lat="39.47541721" lon="-0.38635452"><ele>16.0</ele><time>2022-11-02T15:50:03.0000000+00:00</time></trkpt><trkpt lat="39.47541813" lon="-0.38635033"><ele>16.0</ele><time>2022-11-02T15:50:04.0000000+00:00</time></trkpt><trkpt lat="39.47542048" lon="-0.38634899"><ele>16.0</ele><time>2022-11-02T15:50:05.0000000+00:00</time></trkpt><trkpt lat="39.47541889" lon="-0.38635637"><ele>16.0</ele><time>2022-11-02T15:50:06.0000000+00:00</time></trkpt><trkpt lat="39.47541989" lon="-0.38635536"><ele>16.0</ele><time>2022-11-02T15:50:07.0000000+00:00</time></trkpt><trkpt lat="39.47541763" lon="-0.38636492"><ele>16.2</ele><time>2022-11-02T15:50:08.0000000+00:00</time></trkpt><trkpt lat="39.47542367" lon="-0.38638864"><ele>16.2</ele><time>2022-11-02T15:50:09.0000000+00:00</time></trkpt><trkpt lat="39.47541738" lon="-0.38638445"><ele>16.2</ele><time>2022-11-02T15:50:10.0000000+00:00</time></trkpt><trkpt lat="39.47546884" lon="-0.38642904"><ele>16.4</ele><time>2022-11-02T15:50:11.0000000+00:00</time></trkpt><trkpt lat="39.47549064" lon="-0.38642057"><ele>16.2</ele><time>2022-11-02T15:50:12.0000000+00:00</time></trkpt><trkpt lat="39.47551721" lon="-0.38643742"><ele>16.4</ele><time>2022-11-02T15:50:13.0000000+00:00</time></trkpt><trkpt lat="39.47553322" lon="-0.3864479"><ele>16.4</ele><time>2022-11-02T15:50:14.0000000+00:00</time></trkpt><trkpt lat="39.47555074" lon="-0.38646625"><ele>16.4</ele><time>2022-11-02T15:50:15.0000000+00:00</time></trkpt><trkpt lat="39.47556867" lon="-0.38647782"><ele>16.4</ele><time>2022-11-02T15:50:16.0000000+00:00</time></trkpt><trkpt lat="39.47558686" lon="-0.38648972"><ele>16.6</ele><time>2022-11-02T15:50:17.0000000+00:00</time></trkpt><trkpt lat="39.47560547" lon="-0.38649936"><ele>16.6</ele><time>2022-11-02T15:50:18.0000000+00:00</time></trkpt><trkpt lat="39.47562207" lon="-0.38649391"><ele>16.6</ele><time>2022-11-02T15:50:19.0000000+00:00</time></trkpt><trkpt lat="39.47563707" lon="-0.38649743"><ele>16.4</ele><time>2022-11-02T15:50:20.0000000+00:00</time></trkpt><trkpt lat="39.47565408" lon="-0.38649609"><ele>16.4</ele><time>2022-11-02T15:50:21.0000000+00:00</time></trkpt><trkpt lat="39.47567185" lon="-0.38649928"><ele>16.4</ele><time>2022-11-02T15:50:22.0000000+00:00</time></trkpt><trkpt lat="39.47569298" lon="-0.38650406"><ele>16.2</ele><time>2022-11-02T15:50:23.0000000+00:00</time></trkpt><trkpt lat="39.47582097" lon="-0.38663808"><ele>16.0</ele><time>2022-11-02T15:51:05.0000000+00:00</time></trkpt><trkpt lat="39.47598048" lon="-0.38657011"><ele>16.0</ele><time>2022-11-02T15:51:06.0000000+00:00</time></trkpt><trkpt lat="39.47591661" lon="-0.38659458"><ele>16.0</ele><time>2022-11-02T15:51:07.0000000+00:00</time></trkpt><trkpt lat="39.47589054" lon="-0.38652367"><ele>16.0</ele><time>2022-11-02T15:51:08.0000000+00:00</time></trkpt><trkpt lat="39.47595919" lon="-0.38650255"><ele>16.0</ele><time>2022-11-02T15:51:09.0000000+00:00</time></trkpt><trkpt lat="39.47590227" lon="-0.38649375"><ele>16.0</ele><time>2022-11-02T15:51:10.0000000+00:00</time></trkpt><trkpt lat="39.47589121" lon="-0.3865038"><ele>16.0</ele><time>2022-11-02T15:51:11.0000000+00:00</time></trkpt><trkpt lat="39.47583832" lon="-0.38655167"><ele>15.8</ele><time>2022-11-02T15:51:12.0000000+00:00</time></trkpt><trkpt lat="39.47585818" lon="-0.38655778"><ele>15.8</ele><time>2022-11-02T15:51:13.0000000+00:00</time></trkpt><trkpt lat="39.4758488" lon="-0.38656415"><ele>15.8</ele><time>2022-11-02T15:51:14.0000000+00:00</time></trkpt><trkpt lat="39.47585357" lon="-0.38657312"><ele>15.8</ele><time>2022-11-02T15:51:15.0000000+00:00</time></trkpt><trkpt lat="39.47586598" lon="-0.38658494"><ele>15.8</ele><time>2022-11-02T15:51:16.0000000+00:00</time></trkpt><trkpt lat="39.4758721" lon="-0.38659944"><ele>15.8</ele><time>2022-11-02T15:51:17.0000000+00:00</time></trkpt><trkpt lat="39.47584746" lon="-0.38659802"><ele>15.8</ele><time>2022-11-02T15:51:18.0000000+00:00</time></trkpt><trkpt lat="39.47581334" lon="-0.38658964"><ele>15.8</ele><time>2022-11-02T15:51:19.0000000+00:00</time></trkpt><trkpt lat="39.47577663" lon="-0.38659458"><ele>15.8</ele><time>2022-11-02T15:51:20.0000000+00:00</time></trkpt><trkpt lat="39.47575073" lon="-0.38658754"><ele>15.8</ele><time>2022-11-02T15:51:21.0000000+00:00</time></trkpt><trkpt lat="39.47574344" lon="-0.38657807"><ele>16.0</ele><time>2022-11-02T15:51:22.0000000+00:00</time></trkpt><trkpt lat="39.4757431" lon="-0.38657782"><ele>16.0</ele><time>2022-11-02T15:51:23.0000000+00:00</time></trkpt><trkpt lat="39.47573799" lon="-0.3865784"><ele>16.0</ele><time>2022-11-02T15:51:24.0000000+00:00</time></trkpt><trkpt lat="39.47573539" lon="-0.38658511"><ele>16.0</ele><time>2022-11-02T15:51:25.0000000+00:00</time></trkpt><trkpt lat="39.47572835" lon="-0.38660254"><ele>16.0</ele><time>2022-11-02T15:51:26.0000000+00:00</time></trkpt><trkpt lat="39.47573195" lon="-0.38660011"><ele>16.0</ele><time>2022-11-02T15:51:27.0000000+00:00</time></trkpt><trkpt lat="39.47571837" lon="-0.38659793"><ele>16.0</ele><time>2022-11-02T15:51:28.0000000+00:00</time></trkpt><trkpt lat="39.4757115" lon="-0.38659056"><ele>15.8</ele><time>2022-11-02T15:51:29.0000000+00:00</time></trkpt><trkpt lat="39.47571309" lon="-0.38657673"><ele>16.0</ele><time>2022-11-02T15:51:30.0000000+00:00</time></trkpt><trkpt lat="39.47571435" lon="-0.38656541"><ele>16.0</ele><time>2022-11-02T15:51:31.0000000+00:00</time></trkpt><trkpt lat="39.47571376" lon="-0.3865603"><ele>16.0</ele><time>2022-11-02T15:51:32.0000000+00:00</time></trkpt><trkpt lat="39.47572122" lon="-0.38655887"><ele>16.0</ele><time>2022-11-02T15:51:33.0000000+00:00</time></trkpt><trkpt lat="39.47573279" lon="-0.38655913"><ele>16.0</ele><time>2022-11-02T15:51:34.0000000+00:00</time></trkpt><trkpt lat="39.47573623" lon="-0.38655904"><ele>16.0</ele><time>2022-11-02T15:51:35.0000000+00:00</time></trkpt><trkpt lat="39.47574184" lon="-0.38655711"><ele>16.0</ele><time>2022-11-02T15:51:36.0000000+00:00</time></trkpt><trkpt lat="39.47573899" lon="-0.38655577"><ele>16.0</ele><time>2022-11-02T15:51:37.0000000+00:00</time></trkpt><trkpt lat="39.47573422" lon="-0.38655913"><ele>16.0</ele><time>2022-11-02T15:51:38.0000000+00:00</time></trkpt><trkpt lat="39.47573505" lon="-0.38656407"><ele>16.0</ele><time>2022-11-02T15:51:39.0000000+00:00</time></trkpt><trkpt lat="39.47573849" lon="-0.38656382"><ele>15.6</ele><time>2022-11-02T15:51:40.0000000+00:00</time></trkpt><trkpt lat="39.47573874" lon="-0.38656499"><ele>15.6</ele><time>2022-11-02T15:51:41.0000000+00:00</time></trkpt><trkpt lat="39.47573254" lon="-0.38656298"><ele>15.6</ele><time>2022-11-02T15:51:42.0000000+00:00</time></trkpt><trkpt lat="39.47573673" lon="-0.3865577"><ele>15.6</ele><time>2022-11-02T15:51:43.0000000+00:00</time></trkpt><trkpt lat="39.47573053" lon="-0.38656164"><ele>15.6</ele><time>2022-11-02T15:51:44.0000000+00:00</time></trkpt><trkpt lat="39.47572433" lon="-0.38656776"><ele>15.6</ele><time>2022-11-02T15:51:45.0000000+00:00</time></trkpt><trkpt lat="39.47572005" lon="-0.38657849"><ele>15.6</ele><time>2022-11-02T15:51:46.0000000+00:00</time></trkpt><trkpt lat="39.47571846" lon="-0.38658318"><ele>15.6</ele><time>2022-11-02T15:51:47.0000000+00:00</time></trkpt><trkpt lat="39.47571837" lon="-0.38658905"><ele>15.6</ele><time>2022-11-02T15:51:48.0000000+00:00</time></trkpt><trkpt lat="39.47571242" lon="-0.3865919"><ele>15.6</ele><time>2022-11-02T15:51:49.0000000+00:00</time></trkpt><trkpt lat="39.47571536" lon="-0.38659207"><ele>15.6</ele><time>2022-11-02T15:51:50.0000000+00:00</time></trkpt><trkpt lat="39.47572583" lon="-0.38658821"><ele>15.6</ele><time>2022-11-02T15:51:51.0000000+00:00</time></trkpt><trkpt lat="39.47574117" lon="-0.38658779"><ele>15.6</ele><time>2022-11-02T15:51:52.0000000+00:00</time></trkpt><trkpt lat="39.47575157" lon="-0.38658922"><ele>15.6</ele><time>2022-11-02T15:51:53.0000000+00:00</time></trkpt><trkpt lat="39.47574603" lon="-0.38659383"><ele>15.6</ele><time>2022-11-02T15:51:54.0000000+00:00</time></trkpt><trkpt lat="39.47574369" lon="-0.38659332"><ele>15.6</ele><time>2022-11-02T15:51:55.0000000+00:00</time></trkpt><trkpt lat="39.47574771" lon="-0.38659232"><ele>15.6</ele><time>2022-11-02T15:51:56.0000000+00:00</time></trkpt><trkpt lat="39.47574461" lon="-0.38659223"><ele>15.6</ele><time>2022-11-02T15:51:57.0000000+00:00</time></trkpt><trkpt lat="39.47573229" lon="-0.38659626"><ele>15.6</ele><time>2022-11-02T15:51:58.0000000+00:00</time></trkpt><trkpt lat="39.47573707" lon="-0.38659693"><ele>15.6</ele><time>2022-11-02T15:51:59.0000000+00:00</time></trkpt><trkpt lat="39.47575299" lon="-0.3865976"><ele>15.6</ele><time>2022-11-02T15:52:00.0000000+00:00</time></trkpt><trkpt lat="39.47575467" lon="-0.38660707"><ele>15.6</ele><time>2022-11-02T15:52:01.0000000+00:00</time></trkpt><trkpt lat="39.47575735" lon="-0.38661696"><ele>15.6</ele><time>2022-11-02T15:52:02.0000000+00:00</time></trkpt><trkpt lat="39.47576188" lon="-0.38662677"><ele>15.6</ele><time>2022-11-02T15:52:03.0000000+00:00</time></trkpt><trkpt lat="39.47576649" lon="-0.38662853"><ele>15.6</ele><time>2022-11-02T15:52:04.0000000+00:00</time></trkpt><trkpt lat="39.47577185" lon="-0.38662886"><ele>15.6</ele><time>2022-11-02T15:52:05.0000000+00:00</time></trkpt><trkpt lat="39.47577638" lon="-0.38663096"><ele>15.6</ele><time>2022-11-02T15:52:06.0000000+00:00</time></trkpt><trkpt lat="39.47579674" lon="-0.38662735"><ele>15.6</ele><time>2022-11-02T15:52:07.0000000+00:00</time></trkpt><trkpt lat="39.47579884" lon="-0.38662249"><ele>15.6</ele><time>2022-11-02T15:52:08.0000000+00:00</time></trkpt><trkpt lat="39.47580957" lon="-0.38661788"><ele>15.6</ele><time>2022-11-02T15:52:09.0000000+00:00</time></trkpt><trkpt lat="39.4758032" lon="-0.38662752"><ele>15.6</ele><time>2022-11-02T15:52:10.0000000+00:00</time></trkpt><trkpt lat="39.47581485" lon="-0.38662794"><ele>15.6</ele><time>2022-11-02T15:52:11.0000000+00:00</time></trkpt><trkpt lat="39.47578426" lon="-0.3866432"><ele>15.8</ele><time>2022-11-02T15:52:12.0000000+00:00</time></trkpt><trkpt lat="39.47578702" lon="-0.38664848"><ele>16.0</ele><time>2022-11-02T15:52:13.0000000+00:00</time></trkpt><trkpt lat="39.47578912" lon="-0.38665133"><ele>16.0</ele><time>2022-11-02T15:52:14.0000000+00:00</time></trkpt><trkpt lat="39.47578769" lon="-0.38665837"><ele>16.0</ele><time>2022-11-02T15:52:15.0000000+00:00</time></trkpt><trkpt lat="39.47578576" lon="-0.38666449"><ele>16.0</ele><time>2022-11-02T15:52:16.0000000+00:00</time></trkpt><trkpt lat="39.47577562" lon="-0.38666583"><ele>16.0</ele><time>2022-11-02T15:52:17.0000000+00:00</time></trkpt><trkpt lat="39.47579004" lon="-0.38666164"><ele>16.0</ele><time>2022-11-02T15:52:18.0000000+00:00</time></trkpt><trkpt lat="39.47579322" lon="-0.38665636"><ele>16.0</ele><time>2022-11-02T15:52:19.0000000+00:00</time></trkpt><trkpt lat="39.47571863" lon="-0.38666566"><ele>16.0</ele><time>2022-11-02T15:52:20.0000000+00:00</time></trkpt><trkpt lat="39.47576749" lon="-0.38666239"><ele>15.8</ele><time>2022-11-02T15:52:21.0000000+00:00</time></trkpt><trkpt lat="39.47579113" lon="-0.38666423"><ele>15.8</ele><time>2022-11-02T15:52:22.0000000+00:00</time></trkpt><trkpt lat="39.47589238" lon="-0.38666884"><ele>15.8</ele><time>2022-11-02T15:52:23.0000000+00:00</time></trkpt><trkpt lat="39.47591786" lon="-0.38666742"><ele>15.8</ele><time>2022-11-02T15:52:24.0000000+00:00</time></trkpt><trkpt lat="39.47594812" lon="-0.3866587"><ele>15.8</ele><time>2022-11-02T15:52:25.0000000+00:00</time></trkpt><trkpt lat="39.47596137" lon="-0.38665325"><ele>15.8</ele><time>2022-11-02T15:52:26.0000000+00:00</time></trkpt><trkpt lat="39.47596405" lon="-0.38665233"><ele>15.8</ele><time>2022-11-02T15:52:27.0000000+00:00</time></trkpt><trkpt lat="39.47596254" lon="-0.38665091"><ele>15.8</ele><time>2022-11-02T15:52:28.0000000+00:00</time></trkpt><trkpt lat="39.47595877" lon="-0.38664923"><ele>15.8</ele><time>2022-11-02T15:52:29.0000000+00:00</time></trkpt><trkpt lat="39.47595039" lon="-0.38665342"><ele>15.8</ele><time>2022-11-02T15:52:30.0000000+00:00</time></trkpt><trkpt lat="39.47592784" lon="-0.38666708"><ele>15.8</ele><time>2022-11-02T15:52:31.0000000+00:00</time></trkpt><trkpt lat="39.47593111" lon="-0.38667446"><ele>15.8</ele><time>2022-11-02T15:52:32.0000000+00:00</time></trkpt><trkpt lat="39.47590873" lon="-0.38670707"><ele>15.8</ele><time>2022-11-02T15:52:33.0000000+00:00</time></trkpt><trkpt lat="39.47590051" lon="-0.38672299"><ele>15.8</ele><time>2022-11-02T15:52:34.0000000+00:00</time></trkpt><trkpt lat="39.47591786" lon="-0.38672517"><ele>16.0</ele><time>2022-11-02T15:52:35.0000000+00:00</time></trkpt><trkpt lat="39.47593907" lon="-0.38672467"><ele>16.0</ele><time>2022-11-02T15:52:36.0000000+00:00</time></trkpt><trkpt lat="39.47595273" lon="-0.38672819"><ele>16.0</ele><time>2022-11-02T15:52:37.0000000+00:00</time></trkpt><trkpt lat="39.47595072" lon="-0.38672458"><ele>16.0</ele><time>2022-11-02T15:52:38.0000000+00:00</time></trkpt><trkpt lat="39.47594552" lon="-0.38671997"><ele>16.0</ele><time>2022-11-02T15:52:39.0000000+00:00</time></trkpt><trkpt lat="39.47593555" lon="-0.38671117"><ele>16.0</ele><time>2022-11-02T15:52:40.0000000+00:00</time></trkpt><trkpt lat="39.47593421" lon="-0.38669273"><ele>16.0</ele><time>2022-11-02T15:52:41.0000000+00:00</time></trkpt><trkpt lat="39.4759467" lon="-0.38668703"><ele>16.0</ele><time>2022-11-02T15:52:42.0000000+00:00</time></trkpt><trkpt lat="39.4759498" lon="-0.3866898"><ele>16.0</ele><time>2022-11-02T15:52:43.0000000+00:00</time></trkpt><trkpt lat="39.47594946" lon="-0.386696"><ele>16.0</ele><time>2022-11-02T15:52:44.0000000+00:00</time></trkpt><trkpt lat="39.47594401" lon="-0.38670346"><ele>16.0</ele><time>2022-11-02T15:52:45.0000000+00:00</time></trkpt><trkpt lat="39.47594544" lon="-0.38670782"><ele>16.0</ele><time>2022-11-02T15:52:46.0000000+00:00</time></trkpt><trkpt lat="39.47593421" lon="-0.38669726"><ele>16.0</ele><time>2022-11-02T15:52:47.0000000+00:00</time></trkpt><trkpt lat="39.4759265" lon="-0.38669558"><ele>16.0</ele><time>2022-11-02T15:52:48.0000000+00:00</time></trkpt><trkpt lat="39.47593094" lon="-0.38669139"><ele>16.0</ele><time>2022-11-02T15:52:49.0000000+00:00</time></trkpt><trkpt lat="39.47594619" lon="-0.38669382"><ele>16.0</ele><time>2022-11-02T15:52:50.0000000+00:00</time></trkpt><trkpt lat="39.4759508" lon="-0.38669215"><ele>16.0</ele><time>2022-11-02T15:52:51.0000000+00:00</time></trkpt><trkpt lat="39.47597025" lon="-0.38668837"><ele>16.0</ele><time>2022-11-02T15:52:52.0000000+00:00</time></trkpt><trkpt lat="39.47597964" lon="-0.38668804"><ele>16.0</ele><time>2022-11-02T15:52:53.0000000+00:00</time></trkpt><trkpt lat="39.47597469" lon="-0.38669508"><ele>16.0</ele><time>2022-11-02T15:52:54.0000000+00:00</time></trkpt><trkpt lat="39.47596933" lon="-0.38670472"><ele>16.0</ele><time>2022-11-02T15:52:55.0000000+00:00</time></trkpt><trkpt lat="39.47594544" lon="-0.38671863"><ele>16.0</ele><time>2022-11-02T15:52:56.0000000+00:00</time></trkpt><trkpt lat="39.47592625" lon="-0.38673012"><ele>16.0</ele><time>2022-11-02T15:52:57.0000000+00:00</time></trkpt><trkpt lat="39.47592792" lon="-0.38672349"><ele>16.0</ele><time>2022-11-02T15:52:58.0000000+00:00</time></trkpt><trkpt lat="39.47594678" lon="-0.38671419"><ele>16.0</ele><time>2022-11-02T15:52:59.0000000+00:00</time></trkpt><trkpt lat="39.47595743" lon="-0.38670355"><ele>16.0</ele><time>2022-11-02T15:53:00.0000000+00:00</time></trkpt><trkpt lat="39.47597478" lon="-0.38669852"><ele>16.0</ele><time>2022-11-02T15:53:01.0000000+00:00</time></trkpt><trkpt lat="39.47599012" lon="-0.38670539"><ele>16.0</ele><time>2022-11-02T15:53:02.0000000+00:00</time></trkpt><trkpt lat="39.47600856" lon="-0.38670723"><ele>16.0</ele><time>2022-11-02T15:53:03.0000000+00:00</time></trkpt><trkpt lat="39.47602272" lon="-0.38671017"><ele>16.0</ele><time>2022-11-02T15:53:04.0000000+00:00</time></trkpt><trkpt lat="39.47604686" lon="-0.38671008"><ele>16.0</ele><time>2022-11-02T15:53:05.0000000+00:00</time></trkpt><trkpt lat="39.4760648" lon="-0.38670103"><ele>16.0</ele><time>2022-11-02T15:53:06.0000000+00:00</time></trkpt><trkpt lat="39.47607335" lon="-0.38669684"><ele>16.0</ele><time>2022-11-02T15:53:07.0000000+00:00</time></trkpt><trkpt lat="39.47608148" lon="-0.38669013"><ele>16.0</ele><time>2022-11-02T15:53:08.0000000+00:00</time></trkpt><trkpt lat="39.47607251" lon="-0.386681"><ele>16.2</ele><time>2022-11-02T15:53:09.0000000+00:00</time></trkpt><trkpt lat="39.47607335" lon="-0.38667672"><ele>16.2</ele><time>2022-11-02T15:53:10.0000000+00:00</time></trkpt><trkpt lat="39.47607444" lon="-0.38667287"><ele>16.2</ele><time>2022-11-02T15:53:11.0000000+00:00</time></trkpt><trkpt lat="39.4760741" lon="-0.38666599"><ele>16.4</ele><time>2022-11-02T15:53:12.0000000+00:00</time></trkpt><trkpt lat="39.47608274" lon="-0.38665761"><ele>16.4</ele><time>2022-11-02T15:53:13.0000000+00:00</time></trkpt><trkpt lat="39.47608885" lon="-0.38665543"><ele>16.4</ele><time>2022-11-02T15:53:14.0000000+00:00</time></trkpt><trkpt lat="39.47610025" lon="-0.38665443"><ele>16.4</ele><time>2022-11-02T15:53:15.0000000+00:00</time></trkpt><trkpt lat="39.47610335" lon="-0.38665401"><ele>16.4</ele><time>2022-11-02T15:53:16.0000000+00:00</time></trkpt><trkpt lat="39.47610411" lon="-0.38665116"><ele>16.4</ele><time>2022-11-02T15:53:17.0000000+00:00</time></trkpt><trkpt lat="39.47610118" lon="-0.38664898"><ele>16.4</ele><time>2022-11-02T15:53:18.0000000+00:00</time></trkpt><trkpt lat="39.47610411" lon="-0.3866468"><ele>16.4</ele><time>2022-11-02T15:53:19.0000000+00:00</time></trkpt><trkpt lat="39.47610822" lon="-0.38664781"><ele>16.6</ele><time>2022-11-02T15:53:20.0000000+00:00</time></trkpt><trkpt lat="39.4761171" lon="-0.38664462"><ele>16.6</ele><time>2022-11-02T15:53:21.0000000+00:00</time></trkpt><trkpt lat="39.47612791" lon="-0.38665166"><ele>16.6</ele><time>2022-11-02T15:53:22.0000000+00:00</time></trkpt><trkpt lat="39.47614334" lon="-0.38666088"><ele>16.8</ele><time>2022-11-02T15:53:23.0000000+00:00</time></trkpt><trkpt lat="39.47616002" lon="-0.38666314"><ele>16.8</ele><time>2022-11-02T15:53:24.0000000+00:00</time></trkpt><trkpt lat="39.47618139" lon="-0.38667144"><ele>16.8</ele><time>2022-11-02T15:53:25.0000000+00:00</time></trkpt><trkpt lat="39.4762026" lon="-0.38667656"><ele>16.8</ele><time>2022-11-02T15:53:26.0000000+00:00</time></trkpt><trkpt lat="39.47621207" lon="-0.38667538"><ele>16.6</ele><time>2022-11-02T15:53:27.0000000+00:00</time></trkpt><trkpt lat="39.47621198" lon="-0.38667404"><ele>16.6</ele><time>2022-11-02T15:53:28.0000000+00:00</time></trkpt><trkpt lat="39.47620201" lon="-0.3866696"><ele>16.6</ele><time>2022-11-02T15:53:29.0000000+00:00</time></trkpt><trkpt lat="39.47619975" lon="-0.38666784"><ele>16.4</ele><time>2022-11-02T15:53:30.0000000+00:00</time></trkpt><trkpt lat="39.47620075" lon="-0.38666088"><ele>16.2</ele><time>2022-11-02T15:53:31.0000000+00:00</time></trkpt><trkpt lat="39.47618835" lon="-0.38666591"><ele>16.2</ele><time>2022-11-02T15:53:32.0000000+00:00</time></trkpt><trkpt lat="39.4761886" lon="-0.38667019"><ele>16.2</ele><time>2022-11-02T15:53:33.0000000+00:00</time></trkpt><trkpt lat="39.47619346" lon="-0.38666968"><ele>16.2</ele><time>2022-11-02T15:53:34.0000000+00:00</time></trkpt><trkpt lat="39.47619899" lon="-0.38666331"><ele>16.2</ele><time>2022-11-02T15:53:35.0000000+00:00</time></trkpt><trkpt lat="39.47620117" lon="-0.38666021"><ele>16.2</ele><time>2022-11-02T15:53:36.0000000+00:00</time></trkpt><trkpt lat="39.47621014" lon="-0.38665694"><ele>16.4</ele><time>2022-11-02T15:53:37.0000000+00:00</time></trkpt><trkpt lat="39.47621307" lon="-0.38665761"><ele>16.6</ele><time>2022-11-02T15:53:38.0000000+00:00</time></trkpt><trkpt lat="39.47621861" lon="-0.38665577"><ele>16.6</ele><time>2022-11-02T15:53:39.0000000+00:00</time></trkpt><trkpt lat="39.4762207" lon="-0.38665711"><ele>16.8</ele><time>2022-11-02T15:53:40.0000000+00:00</time></trkpt><trkpt lat="39.47621425" lon="-0.38666164"><ele>16.8</ele><time>2022-11-02T15:53:41.0000000+00:00</time></trkpt><trkpt lat="39.47620151" lon="-0.38667295"><ele>16.8</ele><time>2022-11-02T15:53:42.0000000+00:00</time></trkpt><trkpt lat="39.4761922" lon="-0.38668075"><ele>17.0</ele><time>2022-11-02T15:53:43.0000000+00:00</time></trkpt><trkpt lat="39.4761653" lon="-0.38669072"><ele>17.0</ele><time>2022-11-02T15:53:44.0000000+00:00</time></trkpt><trkpt lat="39.47617234" lon="-0.38668804"><ele>17.0</ele><time>2022-11-02T15:53:45.0000000+00:00</time></trkpt><trkpt lat="39.47616806" lon="-0.38668335"><ele>17.0</ele><time>2022-11-02T15:53:46.0000000+00:00</time></trkpt><trkpt lat="39.4761622" lon="-0.38668041"><ele>16.8</ele><time>2022-11-02T15:53:47.0000000+00:00</time></trkpt><trkpt lat="39.47616035" lon="-0.38669324"><ele>16.6</ele><time>2022-11-02T15:53:48.0000000+00:00</time></trkpt><trkpt lat="39.47618005" lon="-0.38668385"><ele>16.4</ele><time>2022-11-02T15:53:49.0000000+00:00</time></trkpt><trkpt lat="39.47620276" lon="-0.38667396"><ele>16.4</ele><time>2022-11-02T15:53:50.0000000+00:00</time></trkpt><trkpt lat="39.47619623" lon="-0.38667413"><ele>16.4</ele><time>2022-11-02T15:53:51.0000000+00:00</time></trkpt><trkpt lat="39.47620721" lon="-0.38666759"><ele>16.4</ele><time>2022-11-02T15:53:52.0000000+00:00</time></trkpt><trkpt lat="39.47622087" lon="-0.38665569"><ele>16.4</ele><time>2022-11-02T15:53:53.0000000+00:00</time></trkpt><trkpt lat="39.47621383" lon="-0.38665292"><ele>16.4</ele><time>2022-11-02T15:53:54.0000000+00:00</time></trkpt><trkpt lat="39.47618818" lon="-0.38664529"><ele>16.4</ele><time>2022-11-02T15:53:55.0000000+00:00</time></trkpt><trkpt lat="39.47617502" lon="-0.38663004"><ele>16.4</ele><time>2022-11-02T15:53:56.0000000+00:00</time></trkpt><trkpt lat="39.4761772" lon="-0.38661704"><ele>16.4</ele><time>2022-11-02T15:53:57.0000000+00:00</time></trkpt><trkpt lat="39.47618726" lon="-0.38660724"><ele>16.6</ele><time>2022-11-02T15:53:58.0000000+00:00</time></trkpt><trkpt lat="39.4762067" lon="-0.38660347"><ele>16.6</ele><time>2022-11-02T15:53:59.0000000+00:00</time></trkpt><trkpt lat="39.47622053" lon="-0.3866069"><ele>16.6</ele><time>2022-11-02T15:54:00.0000000+00:00</time></trkpt><trkpt lat="39.4762212" lon="-0.38661067"><ele>16.6</ele><time>2022-11-02T15:54:01.0000000+00:00</time></trkpt><trkpt lat="39.4762212" lon="-0.38661067"><ele>16.6</ele><time>2022-11-02T15:54:02.0000000+00:00</time></trkpt><trkpt lat="39.47622129" lon="-0.3866116"><ele>16.4</ele><time>2022-11-02T15:54:03.0000000+00:00</time></trkpt><trkpt lat="39.47621651" lon="-0.38661528"><ele>16.4</ele><time>2022-11-02T15:54:04.0000000+00:00</time></trkpt><trkpt lat="39.47621576" lon="-0.38661386"><ele>16.2</ele><time>2022-11-02T15:54:05.0000000+00:00</time></trkpt><trkpt lat="39.47621986" lon="-0.38661956"><ele>16.2</ele><time>2022-11-02T15:54:06.0000000+00:00</time></trkpt><trkpt lat="39.47622263" lon="-0.38662878"><ele>16.0</ele><time>2022-11-02T15:54:07.0000000+00:00</time></trkpt><trkpt lat="39.47621978" lon="-0.38663113"><ele>16.0</ele><time>2022-11-02T15:54:08.0000000+00:00</time></trkpt><trkpt lat="39.47622347" lon="-0.38662417"><ele>16.0</ele><time>2022-11-02T15:54:09.0000000+00:00</time></trkpt><trkpt lat="39.47622372" lon="-0.3866287"><ele>16.0</ele><time>2022-11-02T15:54:10.0000000+00:00</time></trkpt><trkpt lat="39.47618206" lon="-0.38663917"><ele>16.0</ele><time>2022-11-02T15:54:11.0000000+00:00</time></trkpt><trkpt lat="39.47617133" lon="-0.38664244"><ele>16.0</ele><time>2022-11-02T15:54:12.0000000+00:00</time></trkpt><trkpt lat="39.47615532" lon="-0.38664931"><ele>16.0</ele><time>2022-11-02T15:54:13.0000000+00:00</time></trkpt><trkpt lat="39.47613621" lon="-0.38665493"><ele>16.0</ele><time>2022-11-02T15:54:14.0000000+00:00</time></trkpt><trkpt lat="39.47613043" lon="-0.38665795"><ele>16.2</ele><time>2022-11-02T15:54:15.0000000+00:00</time></trkpt><trkpt lat="39.47615951" lon="-0.3866494"><ele>16.4</ele><time>2022-11-02T15:54:16.0000000+00:00</time></trkpt><trkpt lat="39.47617049" lon="-0.38664236"><ele>16.4</ele><time>2022-11-02T15:54:17.0000000+00:00</time></trkpt><trkpt lat="39.47619539" lon="-0.38663196"><ele>16.4</ele><time>2022-11-02T15:54:18.0000000+00:00</time></trkpt><trkpt lat="39.47621643" lon="-0.38663322"><ele>16.4</ele><time>2022-11-02T15:54:19.0000000+00:00</time></trkpt><trkpt lat="39.47622942" lon="-0.38663641"><ele>16.4</ele><time>2022-11-02T15:54:20.0000000+00:00</time></trkpt><trkpt lat="39.47624761" lon="-0.38663389"><ele>16.4</ele><time>2022-11-02T15:54:21.0000000+00:00</time></trkpt><trkpt lat="39.4762673" lon="-0.38662459"><ele>16.4</ele><time>2022-11-02T15:54:22.0000000+00:00</time></trkpt><trkpt lat="39.47628315" lon="-0.38661914"><ele>16.4</ele><time>2022-11-02T15:54:23.0000000+00:00</time></trkpt><trkpt lat="39.47630469" lon="-0.38661461"><ele>16.4</ele><time>2022-11-02T15:54:24.0000000+00:00</time></trkpt><trkpt lat="39.47631391" lon="-0.38661864"><ele>16.6</ele><time>2022-11-02T15:54:25.0000000+00:00</time></trkpt><trkpt lat="39.47631802" lon="-0.38662308"><ele>16.6</ele><time>2022-11-02T15:54:26.0000000+00:00</time></trkpt><trkpt lat="39.47630972" lon="-0.38662978"><ele>16.6</ele><time>2022-11-02T15:54:27.0000000+00:00</time></trkpt><trkpt lat="39.47629673" lon="-0.3866302"><ele>16.8</ele><time>2022-11-02T15:54:28.0000000+00:00</time></trkpt><trkpt lat="39.47628642" lon="-0.38662903"><ele>16.4</ele><time>2022-11-02T15:54:29.0000000+00:00</time></trkpt><trkpt lat="39.4762813" lon="-0.38662853"><ele>16.2</ele><time>2022-11-02T15:54:30.0000000+00:00</time></trkpt><trkpt lat="39.47629388" lon="-0.38662501"><ele>16.2</ele><time>2022-11-02T15:54:31.0000000+00:00</time></trkpt><trkpt lat="39.47629849" lon="-0.38662761"><ele>16.2</ele><time>2022-11-02T15:54:32.0000000+00:00</time></trkpt><trkpt lat="39.47630812" lon="-0.38662652"><ele>16.4</ele><time>2022-11-02T15:54:33.0000000+00:00</time></trkpt><trkpt lat="39.47631986" lon="-0.38662316"><ele>16.4</ele><time>2022-11-02T15:54:34.0000000+00:00</time></trkpt><trkpt lat="39.47632246" lon="-0.38661964"><ele>16.6</ele><time>2022-11-02T15:54:35.0000000+00:00</time></trkpt><trkpt lat="39.4763191" lon="-0.38661805"><ele>16.6</ele><time>2022-11-02T15:54:36.0000000+00:00</time></trkpt><trkpt lat="39.47632053" lon="-0.38661042"><ele>16.8</ele><time>2022-11-02T15:54:37.0000000+00:00</time></trkpt><trkpt lat="39.47632925" lon="-0.38660179"><ele>16.8</ele><time>2022-11-02T15:54:38.0000000+00:00</time></trkpt><trkpt lat="39.4763352" lon="-0.38660212"><ele>16.8</ele><time>2022-11-02T15:54:39.0000000+00:00</time></trkpt><trkpt lat="39.47633838" lon="-0.38660673"><ele>16.8</ele><time>2022-11-02T15:54:40.0000000+00:00</time></trkpt><trkpt lat="39.47633511" lon="-0.38660984"><ele>16.8</ele><time>2022-11-02T15:54:41.0000000+00:00</time></trkpt><trkpt lat="39.47633394" lon="-0.38661076"><ele>16.8</ele><time>2022-11-02T15:54:42.0000000+00:00</time></trkpt><trkpt lat="39.47634023" lon="-0.38660824"><ele>16.8</ele><time>2022-11-02T15:54:43.0000000+00:00</time></trkpt><trkpt lat="39.47634526" lon="-0.38660648"><ele>16.8</ele><time>2022-11-02T15:54:44.0000000+00:00</time></trkpt><trkpt lat="39.4763497" lon="-0.38660908"><ele>16.6</ele><time>2022-11-02T15:54:45.0000000+00:00</time></trkpt><trkpt lat="39.47633947" lon="-0.38661302"><ele>16.6</ele><time>2022-11-02T15:54:46.0000000+00:00</time></trkpt><trkpt lat="39.47634417" lon="-0.38661109"><ele>16.4</ele><time>2022-11-02T15:54:47.0000000+00:00</time></trkpt><trkpt lat="39.47636018" lon="-0.38660548"><ele>16.4</ele><time>2022-11-02T15:54:48.0000000+00:00</time></trkpt><trkpt lat="39.47636378" lon="-0.38660699"><ele>16.4</ele><time>2022-11-02T15:54:49.0000000+00:00</time></trkpt><trkpt lat="39.4763647" lon="-0.38660925"><ele>16.2</ele><time>2022-11-02T15:54:50.0000000+00:00</time></trkpt><trkpt lat="39.47635003" lon="-0.38661487"><ele>16.2</ele><time>2022-11-02T15:54:51.0000000+00:00</time></trkpt><trkpt lat="39.47635171" lon="-0.38661545"><ele>16.2</ele><time>2022-11-02T15:54:52.0000000+00:00</time></trkpt><trkpt lat="39.47634811" lon="-0.38661746"><ele>16.2</ele><time>2022-11-02T15:54:53.0000000+00:00</time></trkpt><trkpt lat="39.47633729" lon="-0.38662568"><ele>16.2</ele><time>2022-11-02T15:54:54.0000000+00:00</time></trkpt><trkpt lat="39.47632673" lon="-0.38663984"><ele>16.2</ele><time>2022-11-02T15:54:55.0000000+00:00</time></trkpt><trkpt lat="39.47631449" lon="-0.3866546"><ele>16.0</ele><time>2022-11-02T15:54:56.0000000+00:00</time></trkpt><trkpt lat="39.47630745" lon="-0.38666532"><ele>16.0</ele><time>2022-11-02T15:54:57.0000000+00:00</time></trkpt><trkpt lat="39.47630578" lon="-0.38667857"><ele>16.0</ele><time>2022-11-02T15:54:58.0000000+00:00</time></trkpt><trkpt lat="39.47630544" lon="-0.38669349"><ele>16.0</ele><time>2022-11-02T15:54:59.0000000+00:00</time></trkpt><trkpt lat="39.47630695" lon="-0.38669902"><ele>16.0</ele><time>2022-11-02T15:55:00.0000000+00:00</time></trkpt><trkpt lat="39.47630812" lon="-0.38669835"><ele>16.0</ele><time>2022-11-02T15:55:01.0000000+00:00</time></trkpt><trkpt lat="39.47631014" lon="-0.38669977"><ele>16.0</ele><time>2022-11-02T15:55:02.0000000+00:00</time></trkpt><trkpt lat="39.47631156" lon="-0.38670371"><ele>16.0</ele><time>2022-11-02T15:55:03.0000000+00:00</time></trkpt><trkpt lat="39.4763093" lon="-0.38670329"><ele>16.0</ele><time>2022-11-02T15:55:04.0000000+00:00</time></trkpt><trkpt lat="39.47631047" lon="-0.38670807"><ele>16.0</ele><time>2022-11-02T15:55:05.0000000+00:00</time></trkpt><trkpt lat="39.47631525" lon="-0.38670673"><ele>16.0</ele><time>2022-11-02T15:55:06.0000000+00:00</time></trkpt><trkpt lat="39.4763119" lon="-0.3867074"><ele>16.0</ele><time>2022-11-02T15:55:07.0000000+00:00</time></trkpt><trkpt lat="39.47631114" lon="-0.38671084"><ele>16.0</ele><time>2022-11-02T15:55:08.0000000+00:00</time></trkpt><trkpt lat="39.47632355" lon="-0.38671117"><ele>16.0</ele><time>2022-11-02T15:55:09.0000000+00:00</time></trkpt><trkpt lat="39.47633972" lon="-0.38671746"><ele>16.0</ele><time>2022-11-02T15:55:10.0000000+00:00</time></trkpt><trkpt lat="39.47635741" lon="-0.38672366"><ele>16.0</ele><time>2022-11-02T15:55:11.0000000+00:00</time></trkpt><trkpt lat="39.4763694" lon="-0.38672324"><ele>16.0</ele><time>2022-11-02T15:55:12.0000000+00:00</time></trkpt><trkpt lat="39.47637032" lon="-0.38672618"><ele>16.0</ele><time>2022-11-02T15:55:13.0000000+00:00</time></trkpt><trkpt lat="39.47637116" lon="-0.38672894"><ele>16.0</ele><time>2022-11-02T15:55:14.0000000+00:00</time></trkpt><trkpt lat="39.476373" lon="-0.38673447"><ele>16.0</ele><time>2022-11-02T15:55:15.0000000+00:00</time></trkpt><trkpt lat="39.47638147" lon="-0.38673716"><ele>16.0</ele><time>2022-11-02T15:55:16.0000000+00:00</time></trkpt><trkpt lat="39.47638448" lon="-0.38674051"><ele>16.0</ele><time>2022-11-02T15:55:17.0000000+00:00</time></trkpt><trkpt lat="39.47639739" lon="-0.38673942"><ele>16.0</ele><time>2022-11-02T15:55:18.0000000+00:00</time></trkpt><trkpt lat="39.47642254" lon="-0.38672894"><ele>16.0</ele><time>2022-11-02T15:55:19.0000000+00:00</time></trkpt><trkpt lat="39.47643637" lon="-0.38671914"><ele>16.0</ele><time>2022-11-02T15:55:20.0000000+00:00</time></trkpt><trkpt lat="39.47643763" lon="-0.38671629"><ele>16.0</ele><time>2022-11-02T15:55:21.0000000+00:00</time></trkpt><trkpt lat="39.47644232" lon="-0.38671562"><ele>16.0</ele><time>2022-11-02T15:55:22.0000000+00:00</time></trkpt><trkpt lat="39.47644995" lon="-0.38671746"><ele>16.0</ele><time>2022-11-02T15:55:23.0000000+00:00</time></trkpt><trkpt lat="39.47645548" lon="-0.38672383"><ele>16.0</ele><time>2022-11-02T15:55:24.0000000+00:00</time></trkpt><trkpt lat="39.47647803" lon="-0.38672408"><ele>16.0</ele><time>2022-11-02T15:55:25.0000000+00:00</time></trkpt><trkpt lat="39.47647367" lon="-0.38673565"><ele>16.0</ele><time>2022-11-02T15:55:26.0000000+00:00</time></trkpt><trkpt lat="39.47647811" lon="-0.38673967"><ele>16.0</ele><time>2022-11-02T15:55:27.0000000+00:00</time></trkpt><trkpt lat="39.47648314" lon="-0.38674638"><ele>16.0</ele><time>2022-11-02T15:55:28.0000000+00:00</time></trkpt><trkpt lat="39.47648708" lon="-0.38673691"><ele>16.0</ele><time>2022-11-02T15:55:29.0000000+00:00</time></trkpt><trkpt lat="39.47648917" lon="-0.38672609"><ele>16.0</ele><time>2022-11-02T15:55:30.0000000+00:00</time></trkpt><trkpt lat="39.47650032" lon="-0.3867105"><ele>16.0</ele><time>2022-11-02T15:55:31.0000000+00:00</time></trkpt><trkpt lat="39.47650401" lon="-0.38669374"><ele>16.0</ele><time>2022-11-02T15:55:32.0000000+00:00</time></trkpt><trkpt lat="39.47650904" lon="-0.38668309"><ele>16.0</ele><time>2022-11-02T15:55:33.0000000+00:00</time></trkpt><trkpt lat="39.47650979" lon="-0.38667404"><ele>16.0</ele><time>2022-11-02T15:55:34.0000000+00:00</time></trkpt><trkpt lat="39.47652471" lon="-0.38666256"><ele>16.0</ele><time>2022-11-02T15:55:35.0000000+00:00</time></trkpt><trkpt lat="39.47654952" lon="-0.38665007"><ele>16.0</ele><time>2022-11-02T15:55:36.0000000+00:00</time></trkpt><trkpt lat="39.47657542" lon="-0.38663574"><ele>16.0</ele><time>2022-11-02T15:55:37.0000000+00:00</time></trkpt><trkpt lat="39.47658808" lon="-0.38662769"><ele>16.0</ele><time>2022-11-02T15:55:38.0000000+00:00</time></trkpt><trkpt lat="39.47658808" lon="-0.38662157"><ele>16.0</ele><time>2022-11-02T15:55:39.0000000+00:00</time></trkpt><trkpt lat="39.47657283" lon="-0.38660925"><ele>16.0</ele><time>2022-11-02T15:55:40.0000000+00:00</time></trkpt><trkpt lat="39.47656469" lon="-0.38659433"><ele>16.0</ele><time>2022-11-02T15:55:41.0000000+00:00</time></trkpt><trkpt lat="39.47656545" lon="-0.38658251"><ele>16.0</ele><time>2022-11-02T15:55:42.0000000+00:00</time></trkpt><trkpt lat="39.47657241" lon="-0.38656994"><ele>16.0</ele><time>2022-11-02T15:55:43.0000000+00:00</time></trkpt><trkpt lat="39.47658171" lon="-0.38657321"><ele>16.0</ele><time>2022-11-02T15:55:44.0000000+00:00</time></trkpt><trkpt lat="39.47658741" lon="-0.38656734"><ele>16.0</ele><time>2022-11-02T15:55:45.0000000+00:00</time></trkpt><trkpt lat="39.4765942" lon="-0.38656198"><ele>16.0</ele><time>2022-11-02T15:55:46.0000000+00:00</time></trkpt><trkpt lat="39.47660208" lon="-0.38655292"><ele>16.0</ele><time>2022-11-02T15:55:47.0000000+00:00</time></trkpt><trkpt lat="39.47660895" lon="-0.38654379"><ele>16.0</ele><time>2022-11-02T15:55:48.0000000+00:00</time></trkpt><trkpt lat="39.47661566" lon="-0.38653038"><ele>16.0</ele><time>2022-11-02T15:55:49.0000000+00:00</time></trkpt><trkpt lat="39.47661909" lon="-0.38651462"><ele>16.0</ele><time>2022-11-02T15:55:50.0000000+00:00</time></trkpt><trkpt lat="39.4766253" lon="-0.38650054"><ele>16.0</ele><time>2022-11-02T15:55:51.0000000+00:00</time></trkpt><trkpt lat="39.47662781" lon="-0.38649517"><ele>16.0</ele><time>2022-11-02T15:55:52.0000000+00:00</time></trkpt><trkpt lat="39.47661172" lon="-0.38648947"><ele>16.0</ele><time>2022-11-02T15:55:53.0000000+00:00</time></trkpt><trkpt lat="39.47661046" lon="-0.38648428"><ele>16.0</ele><time>2022-11-02T15:55:54.0000000+00:00</time></trkpt><trkpt lat="39.47660744" lon="-0.38648059"><ele>16.0</ele><time>2022-11-02T15:55:55.0000000+00:00</time></trkpt><trkpt lat="39.47660208" lon="-0.38647346"><ele>16.0</ele><time>2022-11-02T15:55:56.0000000+00:00</time></trkpt><trkpt lat="39.47659504" lon="-0.38647397"><ele>16.2</ele><time>2022-11-02T15:55:57.0000000+00:00</time></trkpt><trkpt lat="39.47658079" lon="-0.38646558"><ele>16.2</ele><time>2022-11-02T15:55:58.0000000+00:00</time></trkpt><trkpt lat="39.47658272" lon="-0.38645167"><ele>16.2</ele><time>2022-11-02T15:55:59.0000000+00:00</time></trkpt><trkpt lat="39.47658456" lon="-0.38644513"><ele>16.2</ele><time>2022-11-02T15:56:00.0000000+00:00</time></trkpt><trkpt lat="39.47658657" lon="-0.3864334"><ele>16.2</ele><time>2022-11-02T15:56:01.0000000+00:00</time></trkpt><trkpt lat="39.47659319" lon="-0.38642493"><ele>16.2</ele><time>2022-11-02T15:56:02.0000000+00:00</time></trkpt><trkpt lat="39.47659235" lon="-0.38641932"><ele>16.2</ele><time>2022-11-02T15:56:03.0000000+00:00</time></trkpt><trkpt lat="39.47659546" lon="-0.38640825"><ele>16.2</ele><time>2022-11-02T15:56:04.0000000+00:00</time></trkpt><trkpt lat="39.4766082" lon="-0.3863966"><ele>16.2</ele><time>2022-11-02T15:56:05.0000000+00:00</time></trkpt><trkpt lat="39.47661649" lon="-0.38638646"><ele>16.2</ele><time>2022-11-02T15:56:06.0000000+00:00</time></trkpt><trkpt lat="39.47662178" lon="-0.38637397"><ele>16.2</ele><time>2022-11-02T15:56:07.0000000+00:00</time></trkpt><trkpt lat="39.47662379" lon="-0.38635712"><ele>16.2</ele><time>2022-11-02T15:56:08.0000000+00:00</time></trkpt><trkpt lat="39.47663133" lon="-0.38634463"><ele>16.2</ele><time>2022-11-02T15:56:09.0000000+00:00</time></trkpt><trkpt lat="39.47664483" lon="-0.38632896"><ele>16.2</ele><time>2022-11-02T15:56:10.0000000+00:00</time></trkpt><trkpt lat="39.47665329" lon="-0.38631798"><ele>16.2</ele><time>2022-11-02T15:56:11.0000000+00:00</time></trkpt><trkpt lat="39.47665698" lon="-0.38631085"><ele>16.2</ele><time>2022-11-02T15:56:12.0000000+00:00</time></trkpt><trkpt lat="39.47664885" lon="-0.38630708"><ele>16.2</ele><time>2022-11-02T15:56:13.0000000+00:00</time></trkpt><trkpt lat="39.4766491" lon="-0.38629929"><ele>16.2</ele><time>2022-11-02T15:56:14.0000000+00:00</time></trkpt><trkpt lat="39.47664809" lon="-0.38629158"><ele>16.2</ele><time>2022-11-02T15:56:15.0000000+00:00</time></trkpt><trkpt lat="39.4766315" lon="-0.3862966"><ele>16.2</ele><time>2022-11-02T15:56:16.0000000+00:00</time></trkpt><trkpt lat="39.47662521" lon="-0.3862894"><ele>16.2</ele><time>2022-11-02T15:56:17.0000000+00:00</time></trkpt><trkpt lat="39.47664835" lon="-0.38628101"><ele>16.2</ele><time>2022-11-02T15:56:18.0000000+00:00</time></trkpt><trkpt lat="39.47665438" lon="-0.38627137"><ele>16.2</ele><time>2022-11-02T15:56:19.0000000+00:00</time></trkpt><trkpt lat="39.47665145" lon="-0.38626266"><ele>16.2</ele><time>2022-11-02T15:56:20.0000000+00:00</time></trkpt><trkpt lat="39.47665799" lon="-0.38625469"><ele>16.2</ele><time>2022-11-02T15:56:21.0000000+00:00</time></trkpt><trkpt lat="39.47666419" lon="-0.3862557"><ele>16.2</ele><time>2022-11-02T15:56:22.0000000+00:00</time></trkpt><trkpt lat="39.47666989" lon="-0.38625402"><ele>16.2</ele><time>2022-11-02T15:56:23.0000000+00:00</time></trkpt><trkpt lat="39.47667089" lon="-0.38625344"><ele>16.2</ele><time>2022-11-02T15:56:24.0000000+00:00</time></trkpt><trkpt lat="39.4766662" lon="-0.38626023"><ele>16.2</ele><time>2022-11-02T15:56:25.0000000+00:00</time></trkpt><trkpt lat="39.47665463" lon="-0.38626727"><ele>16.2</ele><time>2022-11-02T15:56:26.0000000+00:00</time></trkpt><trkpt lat="39.47664231" lon="-0.38627347"><ele>16.2</ele><time>2022-11-02T15:56:27.0000000+00:00</time></trkpt><trkpt lat="39.4766367" lon="-0.38627464"><ele>16.2</ele><time>2022-11-02T15:56:28.0000000+00:00</time></trkpt><trkpt lat="39.47663066" lon="-0.38627783"><ele>16.0</ele><time>2022-11-02T15:56:29.0000000+00:00</time></trkpt><trkpt lat="39.47662957" lon="-0.38627816"><ele>16.0</ele><time>2022-11-02T15:56:30.0000000+00:00</time></trkpt><trkpt lat="39.47662957" lon="-0.38627816"><ele>16.0</ele><time>2022-11-02T15:56:31.0000000+00:00</time></trkpt><trkpt lat="39.47662823" lon="-0.38627942"><ele>16.0</ele><time>2022-11-02T15:56:32.0000000+00:00</time></trkpt><trkpt lat="39.47661876" lon="-0.3862842"><ele>16.0</ele><time>2022-11-02T15:56:33.0000000+00:00</time></trkpt><trkpt lat="39.47661574" lon="-0.38627598"><ele>16.0</ele><time>2022-11-02T15:56:34.0000000+00:00</time></trkpt><trkpt lat="39.4766196" lon="-0.38626794"><ele>16.0</ele><time>2022-11-02T15:56:35.0000000+00:00</time></trkpt><trkpt lat="39.47661574" lon="-0.38625947"><ele>16.0</ele><time>2022-11-02T15:56:36.0000000+00:00</time></trkpt><trkpt lat="39.47662588" lon="-0.3862407"><ele>16.0</ele><time>2022-11-02T15:56:37.0000000+00:00</time></trkpt><trkpt lat="39.47663887" lon="-0.38622527"><ele>16.0</ele><time>2022-11-02T15:56:38.0000000+00:00</time></trkpt><trkpt lat="39.47663661" lon="-0.38622142"><ele>16.0</ele><time>2022-11-02T15:56:39.0000000+00:00</time></trkpt><trkpt lat="39.47663812" lon="-0.38621513"><ele>16.0</ele><time>2022-11-02T15:56:40.0000000+00:00</time></trkpt><trkpt lat="39.47664768" lon="-0.38620256"><ele>16.0</ele><time>2022-11-02T15:56:41.0000000+00:00</time></trkpt><trkpt lat="39.47665681" lon="-0.38619309"><ele>16.2</ele><time>2022-11-02T15:56:42.0000000+00:00</time></trkpt><trkpt lat="39.47666084" lon="-0.38618605"><ele>16.2</ele><time>2022-11-02T15:56:43.0000000+00:00</time></trkpt><trkpt lat="39.47665941" lon="-0.38619502"><ele>16.2</ele><time>2022-11-02T15:56:44.0000000+00:00</time></trkpt><trkpt lat="39.47667467" lon="-0.3862003"><ele>16.2</ele><time>2022-11-02T15:56:45.0000000+00:00</time></trkpt><trkpt lat="39.47669453" lon="-0.38620633"><ele>16.2</ele><time>2022-11-02T15:56:46.0000000+00:00</time></trkpt><trkpt lat="39.47670233" lon="-0.3862101"><ele>16.2</ele><time>2022-11-02T15:56:47.0000000+00:00</time></trkpt><trkpt lat="39.47670752" lon="-0.38621253"><ele>16.2</ele><time>2022-11-02T15:56:48.0000000+00:00</time></trkpt><trkpt lat="39.47671833" lon="-0.38621656"><ele>16.2</ele><time>2022-11-02T15:56:49.0000000+00:00</time></trkpt><trkpt lat="39.47673141" lon="-0.38622511"><ele>16.2</ele><time>2022-11-02T15:56:50.0000000+00:00</time></trkpt><trkpt lat="39.47674063" lon="-0.38623382"><ele>16.2</ele><time>2022-11-02T15:56:51.0000000+00:00</time></trkpt><trkpt lat="39.47676117" lon="-0.38624589"><ele>16.2</ele><time>2022-11-02T15:56:52.0000000+00:00</time></trkpt><trkpt lat="39.47677592" lon="-0.38625226"><ele>16.2</ele><time>2022-11-02T15:56:53.0000000+00:00</time></trkpt><trkpt lat="39.47678581" lon="-0.38625419"><ele>16.2</ele><time>2022-11-02T15:56:54.0000000+00:00</time></trkpt><trkpt lat="39.47681573" lon="-0.38624103"><ele>16.2</ele><time>2022-11-02T15:56:55.0000000+00:00</time></trkpt><trkpt lat="39.47683912" lon="-0.38623039"><ele>16.2</ele><time>2022-11-02T15:56:56.0000000+00:00</time></trkpt><trkpt lat="39.47684004" lon="-0.38621253"><ele>16.2</ele><time>2022-11-02T15:56:57.0000000+00:00</time></trkpt><trkpt lat="39.47684222" lon="-0.38620273"><ele>16.2</ele><time>2022-11-02T15:56:58.0000000+00:00</time></trkpt><trkpt lat="39.47685027" lon="-0.38619066"><ele>16.2</ele><time>2022-11-02T15:56:59.0000000+00:00</time></trkpt><trkpt lat="39.47686477" lon="-0.3861806"><ele>16.2</ele><time>2022-11-02T15:57:00.0000000+00:00</time></trkpt><trkpt lat="39.47687198" lon="-0.38617473"><ele>16.2</ele><time>2022-11-02T15:57:01.0000000+00:00</time></trkpt><trkpt lat="39.47687835" lon="-0.38616425"><ele>16.0</ele><time>2022-11-02T15:57:02.0000000+00:00</time></trkpt><trkpt lat="39.47688513" lon="-0.38615503"><ele>16.0</ele><time>2022-11-02T15:57:03.0000000+00:00</time></trkpt><trkpt lat="39.47689" lon="-0.3861495"><ele>16.0</ele><time>2022-11-02T15:57:04.0000000+00:00</time></trkpt><trkpt lat="39.47689461" lon="-0.38614766"><ele>16.0</ele><time>2022-11-02T15:57:05.0000000+00:00</time></trkpt><trkpt lat="39.47689427" lon="-0.38614925"><ele>16.0</ele><time>2022-11-02T15:57:06.0000000+00:00</time></trkpt><trkpt lat="39.47688958" lon="-0.38615143"><ele>16.0</ele><time>2022-11-02T15:57:07.0000000+00:00</time></trkpt><trkpt lat="39.47689025" lon="-0.38615009"><ele>16.0</ele><time>2022-11-02T15:57:08.0000000+00:00</time></trkpt><trkpt lat="39.47689377" lon="-0.38614883"><ele>16.0</ele><time>2022-11-02T15:57:09.0000000+00:00</time></trkpt><trkpt lat="39.47689645" lon="-0.3861469"><ele>16.0</ele><time>2022-11-02T15:57:10.0000000+00:00</time></trkpt><trkpt lat="39.47689151" lon="-0.38614246"><ele>16.0</ele><time>2022-11-02T15:57:11.0000000+00:00</time></trkpt><trkpt lat="39.47688337" lon="-0.38613894"><ele>16.0</ele><time>2022-11-02T15:57:12.0000000+00:00</time></trkpt><trkpt lat="39.47687273" lon="-0.38613467"><ele>16.0</ele><time>2022-11-02T15:57:13.0000000+00:00</time></trkpt><trkpt lat="39.47686049" lon="-0.3861314"><ele>16.0</ele><time>2022-11-02T15:57:14.0000000+00:00</time></trkpt><trkpt lat="39.47684775" lon="-0.38613006"><ele>16.0</ele><time>2022-11-02T15:57:15.0000000+00:00</time></trkpt><trkpt lat="39.47684105" lon="-0.38612997"><ele>16.0</ele><time>2022-11-02T15:57:16.0000000+00:00</time></trkpt><trkpt lat="39.47682889" lon="-0.3861298"><ele>16.0</ele><time>2022-11-02T15:57:17.0000000+00:00</time></trkpt><trkpt lat="39.4768211" lon="-0.38613123"><ele>16.0</ele><time>2022-11-02T15:57:18.0000000+00:00</time></trkpt><trkpt lat="39.47681255" lon="-0.38613332"><ele>16.0</ele><time>2022-11-02T15:57:19.0000000+00:00</time></trkpt><trkpt lat="39.47680492" lon="-0.3861371"><ele>16.0</ele><time>2022-11-02T15:57:20.0000000+00:00</time></trkpt><trkpt lat="39.47679536" lon="-0.38614104"><ele>16.0</ele><time>2022-11-02T15:57:21.0000000+00:00</time></trkpt><trkpt lat="39.47678522" lon="-0.38614405"><ele>16.0</ele><time>2022-11-02T15:57:22.0000000+00:00</time></trkpt><trkpt lat="39.47677257" lon="-0.38614766"><ele>16.0</ele><time>2022-11-02T15:57:23.0000000+00:00</time></trkpt><trkpt lat="39.47675614" lon="-0.38614959"><ele>16.0</ele><time>2022-11-02T15:57:24.0000000+00:00</time></trkpt><trkpt lat="39.47674172" lon="-0.38615118"><ele>16.0</ele><time>2022-11-02T15:57:25.0000000+00:00</time></trkpt><trkpt lat="39.47672697" lon="-0.38615319"><ele>16.0</ele><time>2022-11-02T15:57:26.0000000+00:00</time></trkpt><trkpt lat="39.47671842" lon="-0.38615327"><ele>16.0</ele><time>2022-11-02T15:57:27.0000000+00:00</time></trkpt><trkpt lat="39.47671414" lon="-0.38615922"><ele>16.0</ele><time>2022-11-02T15:57:28.0000000+00:00</time></trkpt><trkpt lat="39.47671196" lon="-0.38615788"><ele>16.0</ele><time>2022-11-02T15:57:29.0000000+00:00</time></trkpt><trkpt lat="39.47672018" lon="-0.38615646"><ele>16.0</ele><time>2022-11-02T15:57:30.0000000+00:00</time></trkpt><trkpt lat="39.47672496" lon="-0.38615302"><ele>16.0</ele><time>2022-11-02T15:57:31.0000000+00:00</time></trkpt><trkpt lat="39.47673401" lon="-0.38615218"><ele>16.0</ele><time>2022-11-02T15:57:32.0000000+00:00</time></trkpt><trkpt lat="39.4767434" lon="-0.38615545"><ele>16.0</ele><time>2022-11-02T15:57:33.0000000+00:00</time></trkpt><trkpt lat="39.47675195" lon="-0.38615797"><ele>16.0</ele><time>2022-11-02T15:57:34.0000000+00:00</time></trkpt><trkpt lat="39.47675731" lon="-0.38615822"><ele>16.0</ele><time>2022-11-02T15:57:35.0000000+00:00</time></trkpt><trkpt lat="39.47675899" lon="-0.38615654"><ele>16.0</ele><time>2022-11-02T15:57:36.0000000+00:00</time></trkpt><trkpt lat="39.47675932" lon="-0.38615403"><ele>16.0</ele><time>2022-11-02T15:57:37.0000000+00:00</time></trkpt><trkpt lat="39.47675689" lon="-0.38615218"><ele>16.0</ele><time>2022-11-02T15:57:38.0000000+00:00</time></trkpt><trkpt lat="39.47675211" lon="-0.38614783"><ele>16.0</ele><time>2022-11-02T15:57:39.0000000+00:00</time></trkpt><trkpt lat="39.47674759" lon="-0.38614506"><ele>16.0</ele><time>2022-11-02T15:57:40.0000000+00:00</time></trkpt><trkpt lat="39.4767403" lon="-0.38614129"><ele>16.0</ele><time>2022-11-02T15:57:41.0000000+00:00</time></trkpt><trkpt lat="39.47674004" lon="-0.38613919"><ele>16.0</ele><time>2022-11-02T15:57:42.0000000+00:00</time></trkpt><trkpt lat="39.47674415" lon="-0.38613911"><ele>16.0</ele><time>2022-11-02T15:57:43.0000000+00:00</time></trkpt><trkpt lat="39.47675396" lon="-0.38613919"><ele>16.0</ele><time>2022-11-02T15:57:44.0000000+00:00</time></trkpt><trkpt lat="39.4767584" lon="-0.38613752"><ele>16.0</ele><time>2022-11-02T15:57:45.0000000+00:00</time></trkpt><trkpt lat="39.47675471" lon="-0.38613517"><ele>16.0</ele><time>2022-11-02T15:57:46.0000000+00:00</time></trkpt><trkpt lat="39.47674558" lon="-0.38613509"><ele>16.0</ele><time>2022-11-02T15:57:47.0000000+00:00</time></trkpt><trkpt lat="39.47673275" lon="-0.38612737"><ele>16.0</ele><time>2022-11-02T15:57:48.0000000+00:00</time></trkpt><trkpt lat="39.47672362" lon="-0.38612494"><ele>16.0</ele><time>2022-11-02T15:57:49.0000000+00:00</time></trkpt><trkpt lat="39.47671775" lon="-0.38612125"><ele>16.0</ele><time>2022-11-02T15:57:50.0000000+00:00</time></trkpt><trkpt lat="39.47671465" lon="-0.38611891"><ele>16.0</ele><time>2022-11-02T15:57:51.0000000+00:00</time></trkpt><trkpt lat="39.47671683" lon="-0.38612293"><ele>16.0</ele><time>2022-11-02T15:57:52.0000000+00:00</time></trkpt><trkpt lat="39.47672563" lon="-0.3861267"><ele>16.0</ele><time>2022-11-02T15:57:53.0000000+00:00</time></trkpt><trkpt lat="39.47673217" lon="-0.38613173"><ele>16.0</ele><time>2022-11-02T15:57:54.0000000+00:00</time></trkpt><trkpt lat="39.47673325" lon="-0.38613441"><ele>16.0</ele><time>2022-11-02T15:57:55.0000000+00:00</time></trkpt><trkpt lat="39.4767361" lon="-0.38613793"><ele>16.0</ele><time>2022-11-02T15:57:56.0000000+00:00</time></trkpt><trkpt lat="39.47673476" lon="-0.38614154"><ele>16.0</ele><time>2022-11-02T15:57:57.0000000+00:00</time></trkpt><trkpt lat="39.47673585" lon="-0.38614607"><ele>16.0</ele><time>2022-11-02T15:57:58.0000000+00:00</time></trkpt><trkpt lat="39.47673468" lon="-0.3861521"><ele>16.0</ele><time>2022-11-02T15:57:59.0000000+00:00</time></trkpt><trkpt lat="39.47672445" lon="-0.38615512"><ele>16.0</ele><time>2022-11-02T15:58:00.0000000+00:00</time></trkpt><trkpt lat="39.47670836" lon="-0.38615621"><ele>16.0</ele><time>2022-11-02T15:58:01.0000000+00:00</time></trkpt><trkpt lat="39.47669981" lon="-0.38615663"><ele>16.0</ele><time>2022-11-02T15:58:02.0000000+00:00</time></trkpt><trkpt lat="39.4766942" lon="-0.38615855"><ele>16.0</ele><time>2022-11-02T15:58:03.0000000+00:00</time></trkpt><trkpt lat="39.47670031" lon="-0.38616224"><ele>16.0</ele><time>2022-11-02T15:58:04.0000000+00:00</time></trkpt><trkpt lat="39.47670685" lon="-0.38616501"><ele>16.0</ele><time>2022-11-02T15:58:05.0000000+00:00</time></trkpt><trkpt lat="39.47670761" lon="-0.38616099"><ele>16.0</ele><time>2022-11-02T15:58:06.0000000+00:00</time></trkpt><trkpt lat="39.47670023" lon="-0.38616082"><ele>16.0</ele><time>2022-11-02T15:58:07.0000000+00:00</time></trkpt><trkpt lat="39.47669503" lon="-0.3861583"><ele>16.0</ele><time>2022-11-02T15:58:08.0000000+00:00</time></trkpt><trkpt lat="39.47669352" lon="-0.38615353"><ele>16.0</ele><time>2022-11-02T15:58:09.0000000+00:00</time></trkpt><trkpt lat="39.47668757" lon="-0.38615101"><ele>16.0</ele><time>2022-11-02T15:58:10.0000000+00:00</time></trkpt><trkpt lat="39.47668648" lon="-0.38614674"><ele>16.0</ele><time>2022-11-02T15:58:11.0000000+00:00</time></trkpt><trkpt lat="39.4766942" lon="-0.38613986"><ele>16.0</ele><time>2022-11-02T15:58:12.0000000+00:00</time></trkpt><trkpt lat="39.4767035" lon="-0.38613349"><ele>16.0</ele><time>2022-11-02T15:58:13.0000000+00:00</time></trkpt><trkpt lat="39.47670165" lon="-0.38613366"><ele>16.0</ele><time>2022-11-02T15:58:14.0000000+00:00</time></trkpt><trkpt lat="39.47670149" lon="-0.38612888"><ele>16.0</ele><time>2022-11-02T15:58:15.0000000+00:00</time></trkpt><trkpt lat="39.47669352" lon="-0.3861293"><ele>16.0</ele><time>2022-11-02T15:58:16.0000000+00:00</time></trkpt><trkpt lat="39.47669822" lon="-0.38612134"><ele>16.0</ele><time>2022-11-02T15:58:17.0000000+00:00</time></trkpt><trkpt lat="39.47669948" lon="-0.38611983"><ele>16.0</ele><time>2022-11-02T15:58:18.0000000+00:00</time></trkpt><trkpt lat="39.47669512" lon="-0.3861231"><ele>16.0</ele><time>2022-11-02T15:58:19.0000000+00:00</time></trkpt><trkpt lat="39.47668757" lon="-0.38612478"><ele>16.0</ele><time>2022-11-02T15:58:20.0000000+00:00</time></trkpt><trkpt lat="39.4766864" lon="-0.38612033"><ele>16.0</ele><time>2022-11-02T15:58:21.0000000+00:00</time></trkpt><trkpt lat="39.47668112" lon="-0.38611472"><ele>16.0</ele><time>2022-11-02T15:58:22.0000000+00:00</time></trkpt><trkpt lat="39.47667768" lon="-0.38610952"><ele>16.0</ele><time>2022-11-02T15:58:23.0000000+00:00</time></trkpt><trkpt lat="39.47667886" lon="-0.38610994"><ele>16.0</ele><time>2022-11-02T15:58:24.0000000+00:00</time></trkpt><trkpt lat="39.47667165" lon="-0.38611287"><ele>16.0</ele><time>2022-11-02T15:58:25.0000000+00:00</time></trkpt><trkpt lat="39.476661" lon="-0.38611773"><ele>16.0</ele><time>2022-11-02T15:58:26.0000000+00:00</time></trkpt><trkpt lat="39.4766548" lon="-0.38612033"><ele>16.0</ele><time>2022-11-02T15:58:27.0000000+00:00</time></trkpt><trkpt lat="39.47665589" lon="-0.38612142"><ele>16.0</ele><time>2022-11-02T15:58:28.0000000+00:00</time></trkpt><trkpt lat="39.47665773" lon="-0.38611924"><ele>16.0</ele><time>2022-11-02T15:58:29.0000000+00:00</time></trkpt><trkpt lat="39.47665413" lon="-0.38611958"><ele>16.0</ele><time>2022-11-02T15:58:30.0000000+00:00</time></trkpt><trkpt lat="39.47664935" lon="-0.3861174"><ele>16.0</ele><time>2022-11-02T15:58:31.0000000+00:00</time></trkpt><trkpt lat="39.47664776" lon="-0.38611254"><ele>16.0</ele><time>2022-11-02T15:58:32.0000000+00:00</time></trkpt><trkpt lat="39.47664751" lon="-0.38610977"><ele>16.0</ele><time>2022-11-02T15:58:33.0000000+00:00</time></trkpt><trkpt lat="39.47666251" lon="-0.38611153"><ele>16.0</ele><time>2022-11-02T15:58:34.0000000+00:00</time></trkpt><trkpt lat="39.47665321" lon="-0.38610717"><ele>16.0</ele><time>2022-11-02T15:58:35.0000000+00:00</time></trkpt><trkpt lat="39.47665036" lon="-0.38610625"><ele>16.0</ele><time>2022-11-02T15:58:36.0000000+00:00</time></trkpt><trkpt lat="39.47665078" lon="-0.38610625"><ele>16.0</ele><time>2022-11-02T15:58:37.0000000+00:00</time></trkpt><trkpt lat="39.47665036" lon="-0.38610835"><ele>16.0</ele><time>2022-11-02T15:58:38.0000000+00:00</time></trkpt><trkpt lat="39.47664214" lon="-0.38610776"><ele>16.0</ele><time>2022-11-02T15:58:39.0000000+00:00</time></trkpt><trkpt lat="39.47664089" lon="-0.38610617"><ele>16.0</ele><time>2022-11-02T15:58:40.0000000+00:00</time></trkpt><trkpt lat="39.47664407" lon="-0.3861086"><ele>16.0</ele><time>2022-11-02T15:58:41.0000000+00:00</time></trkpt><trkpt lat="39.47663527" lon="-0.38612117"><ele>16.0</ele><time>2022-11-02T15:58:42.0000000+00:00</time></trkpt><trkpt lat="39.47662697" lon="-0.38612419"><ele>16.0</ele><time>2022-11-02T15:58:43.0000000+00:00</time></trkpt><trkpt lat="39.47663041" lon="-0.38612494"><ele>16.0</ele><time>2022-11-02T15:58:44.0000000+00:00</time></trkpt><trkpt lat="39.47662823" lon="-0.38611011"><ele>16.0</ele><time>2022-11-02T15:58:45.0000000+00:00</time></trkpt><trkpt lat="39.47663686" lon="-0.38610868"><ele>16.0</ele><time>2022-11-02T15:58:46.0000000+00:00</time></trkpt><trkpt lat="39.47664927" lon="-0.38610139"><ele>16.0</ele><time>2022-11-02T15:58:47.0000000+00:00</time></trkpt><trkpt lat="39.4766351" lon="-0.38609209"><ele>16.0</ele><time>2022-11-02T15:58:48.0000000+00:00</time></trkpt><trkpt lat="39.47663812" lon="-0.38608966"><ele>16.0</ele><time>2022-11-02T15:58:49.0000000+00:00</time></trkpt><trkpt lat="39.47664357" lon="-0.38608647"><ele>16.0</ele><time>2022-11-02T15:58:50.0000000+00:00</time></trkpt><trkpt lat="39.47664893" lon="-0.38608429"><ele>16.0</ele><time>2022-11-02T15:58:51.0000000+00:00</time></trkpt><trkpt lat="39.47664893" lon="-0.38608429"><ele>16.0</ele><time>2022-11-02T15:58:52.0000000+00:00</time></trkpt><trkpt lat="39.47664893" lon="-0.38608429"><ele>16.0</ele><time>2022-11-02T15:58:53.0000000+00:00</time></trkpt><trkpt lat="39.47664893" lon="-0.38608429"><ele>16.0</ele><time>2022-11-02T15:58:54.0000000+00:00</time></trkpt><trkpt lat="39.47664893" lon="-0.38608429"><ele>16.0</ele><time>2022-11-02T15:58:55.0000000+00:00</time></trkpt><trkpt lat="39.47664893" lon="-0.38608429"><ele>16.0</ele><time>2022-11-02T15:58:56.0000000+00:00</time></trkpt><trkpt lat="39.47664893" lon="-0.38608429"><ele>16.0</ele><time>2022-11-02T15:58:57.0000000+00:00</time></trkpt><trkpt lat="39.47664893" lon="-0.38608429"><ele>16.0</ele><time>2022-11-02T15:58:58.0000000+00:00</time></trkpt><trkpt lat="39.47664893" lon="-0.38608429"><ele>16.0</ele><time>2022-11-02T15:58:59.0000000+00:00</time></trkpt><trkpt lat="39.47664893" lon="-0.38608639"><ele>16.0</ele><time>2022-11-02T15:59:00.0000000+00:00</time></trkpt><trkpt lat="39.47664809" lon="-0.38608949"><ele>16.0</ele><time>2022-11-02T15:59:01.0000000+00:00</time></trkpt><trkpt lat="39.47664675" lon="-0.38608966"><ele>16.0</ele><time>2022-11-02T15:59:02.0000000+00:00</time></trkpt><trkpt lat="39.47664541" lon="-0.38608966"><ele>16.0</ele><time>2022-11-02T15:59:03.0000000+00:00</time></trkpt><trkpt lat="39.47664508" lon="-0.38608966"><ele>16.0</ele><time>2022-11-02T15:59:04.0000000+00:00</time></trkpt><trkpt lat="39.47664457" lon="-0.38608966"><ele>16.0</ele><time>2022-11-02T15:59:05.0000000+00:00</time></trkpt><trkpt lat="39.47664365" lon="-0.38608966"><ele>16.0</ele><time>2022-11-02T15:59:06.0000000+00:00</time></trkpt><trkpt lat="39.47664198" lon="-0.38608966"><ele>16.0</ele><time>2022-11-02T15:59:07.0000000+00:00</time></trkpt><trkpt lat="39.47664131" lon="-0.38608966"><ele>16.0</ele><time>2022-11-02T15:59:08.0000000+00:00</time></trkpt><trkpt lat="39.47664072" lon="-0.38608966"><ele>16.0</ele><time>2022-11-02T15:59:09.0000000+00:00</time></trkpt><trkpt lat="39.47664063" lon="-0.38608966"><ele>16.0</ele><time>2022-11-02T15:59:10.0000000+00:00</time></trkpt><trkpt lat="39.47664332" lon="-0.38608915"><ele>16.0</ele><time>2022-11-02T15:59:11.0000000+00:00</time></trkpt><trkpt lat="39.47665731" lon="-0.38608697"><ele>16.0</ele><time>2022-11-02T15:59:12.0000000+00:00</time></trkpt><trkpt lat="39.47667232" lon="-0.38608597"><ele>16.0</ele><time>2022-11-02T15:59:13.0000000+00:00</time></trkpt><trkpt lat="39.47665128" lon="-0.38606334"><ele>16.0</ele><time>2022-11-02T15:59:14.0000000+00:00</time></trkpt><trkpt lat="39.47663594" lon="-0.38604775"><ele>16.0</ele><time>2022-11-02T15:59:15.0000000+00:00</time></trkpt><trkpt lat="39.47662169" lon="-0.38598723"><ele>16.0</ele><time>2022-11-02T15:59:16.0000000+00:00</time></trkpt><trkpt lat="39.47662563" lon="-0.3859563"><ele>16.0</ele><time>2022-11-02T15:59:17.0000000+00:00</time></trkpt><trkpt lat="39.47663963" lon="-0.38594247"><ele>16.0</ele><time>2022-11-02T15:59:18.0000000+00:00</time></trkpt><trkpt lat="39.47664935" lon="-0.38593493"><ele>16.0</ele><time>2022-11-02T15:59:19.0000000+00:00</time></trkpt><trkpt lat="39.47665975" lon="-0.3859356"><ele>16.0</ele><time>2022-11-02T15:59:20.0000000+00:00</time></trkpt><trkpt lat="39.47666888" lon="-0.38593593"><ele>16.0</ele><time>2022-11-02T15:59:21.0000000+00:00</time></trkpt><trkpt lat="39.47667609" lon="-0.38593476"><ele>16.0</ele><time>2022-11-02T15:59:22.0000000+00:00</time></trkpt><trkpt lat="39.47668112" lon="-0.38593417"><ele>16.0</ele><time>2022-11-02T15:59:23.0000000+00:00</time></trkpt><trkpt lat="39.47668481" lon="-0.38593442"><ele>16.0</ele><time>2022-11-02T15:59:24.0000000+00:00</time></trkpt><trkpt lat="39.4766983" lon="-0.3859371"><ele>16.0</ele><time>2022-11-02T15:59:25.0000000+00:00</time></trkpt><trkpt lat="39.4767014" lon="-0.38594968"><ele>16.0</ele><time>2022-11-02T15:59:26.0000000+00:00</time></trkpt><trkpt lat="39.47670719" lon="-0.38596602"><ele>16.0</ele><time>2022-11-02T15:59:27.0000000+00:00</time></trkpt><trkpt lat="39.47670274" lon="-0.38598161"><ele>16.0</ele><time>2022-11-02T15:59:28.0000000+00:00</time></trkpt><trkpt lat="39.47670249" lon="-0.38598815"><ele>16.0</ele><time>2022-11-02T15:59:29.0000000+00:00</time></trkpt><trkpt lat="39.47670979" lon="-0.38598178"><ele>16.0</ele><time>2022-11-02T15:59:30.0000000+00:00</time></trkpt><trkpt lat="39.47672102" lon="-0.38597683"><ele>16.0</ele><time>2022-11-02T15:59:31.0000000+00:00</time></trkpt><trkpt lat="39.47673678" lon="-0.38596393"><ele>16.0</ele><time>2022-11-02T15:59:32.0000000+00:00</time></trkpt><trkpt lat="39.4767418" lon="-0.38596552"><ele>16.0</ele><time>2022-11-02T15:59:33.0000000+00:00</time></trkpt><trkpt lat="39.47674139" lon="-0.38597994"><ele>16.0</ele><time>2022-11-02T15:59:34.0000000+00:00</time></trkpt><trkpt lat="39.47674365" lon="-0.38599192"><ele>16.0</ele><time>2022-11-02T15:59:35.0000000+00:00</time></trkpt><trkpt lat="39.47675957" lon="-0.38599502"><ele>16.0</ele><time>2022-11-02T15:59:36.0000000+00:00</time></trkpt><trkpt lat="39.47677592" lon="-0.38598832"><ele>16.0</ele><time>2022-11-02T15:59:37.0000000+00:00</time></trkpt><trkpt lat="39.47679067" lon="-0.38597918"><ele>16.0</ele><time>2022-11-02T15:59:38.0000000+00:00</time></trkpt><trkpt lat="39.47679251" lon="-0.38598782"><ele>16.0</ele><time>2022-11-02T15:59:39.0000000+00:00</time></trkpt><trkpt lat="39.47679863" lon="-0.3859889"><ele>16.0</ele><time>2022-11-02T15:59:40.0000000+00:00</time></trkpt><trkpt lat="39.4767978" lon="-0.38599201"><ele>16.0</ele><time>2022-11-02T15:59:41.0000000+00:00</time></trkpt><trkpt lat="39.47679562" lon="-0.38599159"><ele>16.0</ele><time>2022-11-02T15:59:42.0000000+00:00</time></trkpt><trkpt lat="39.4768014" lon="-0.38599016"><ele>16.0</ele><time>2022-11-02T15:59:43.0000000+00:00</time></trkpt><trkpt lat="39.47680978" lon="-0.38598974"><ele>16.0</ele><time>2022-11-02T15:59:44.0000000+00:00</time></trkpt><trkpt lat="39.47681079" lon="-0.38598773"><ele>16.0</ele><time>2022-11-02T15:59:45.0000000+00:00</time></trkpt><trkpt lat="39.47680961" lon="-0.38598656"><ele>16.0</ele><time>2022-11-02T15:59:46.0000000+00:00</time></trkpt><trkpt lat="39.47680593" lon="-0.38598673"><ele>16.0</ele><time>2022-11-02T15:59:47.0000000+00:00</time></trkpt><trkpt lat="39.47681238" lon="-0.38598547"><ele>16.0</ele><time>2022-11-02T15:59:48.0000000+00:00</time></trkpt><trkpt lat="39.47681883" lon="-0.38598295"><ele>16.0</ele><time>2022-11-02T15:59:49.0000000+00:00</time></trkpt><trkpt lat="39.47682244" lon="-0.38597859"><ele>16.0</ele><time>2022-11-02T15:59:50.0000000+00:00</time></trkpt><trkpt lat="39.47682311" lon="-0.3859739"><ele>16.0</ele><time>2022-11-02T15:59:51.0000000+00:00</time></trkpt><trkpt lat="39.47682311" lon="-0.3859739"><ele>16.0</ele><time>2022-11-02T15:59:52.0000000+00:00</time></trkpt><trkpt lat="39.47682311" lon="-0.3859739"><ele>16.0</ele><time>2022-11-02T15:59:53.0000000+00:00</time></trkpt><trkpt lat="39.47682311" lon="-0.3859739"><ele>16.0</ele><time>2022-11-02T15:59:54.0000000+00:00</time></trkpt><trkpt lat="39.47682311" lon="-0.3859739"><ele>16.0</ele><time>2022-11-02T15:59:55.0000000+00:00</time></trkpt><trkpt lat="39.47682311" lon="-0.3859739"><ele>16.0</ele><time>2022-11-02T15:59:56.0000000+00:00</time></trkpt><trkpt lat="39.47682311" lon="-0.3859739"><ele>16.0</ele><time>2022-11-02T15:59:57.0000000+00:00</time></trkpt><trkpt lat="39.47682311" lon="-0.3859739"><ele>16.0</ele><time>2022-11-02T15:59:58.0000000+00:00</time></trkpt><trkpt lat="39.47682663" lon="-0.38597357"><ele>16.0</ele><time>2022-11-02T15:59:59.0000000+00:00</time></trkpt><trkpt lat="39.47683065" lon="-0.38597549"><ele>16.0</ele><time>2022-11-02T16:00:00.0000000+00:00</time></trkpt><trkpt lat="39.47683895" lon="-0.38597281"><ele>16.0</ele><time>2022-11-02T16:00:01.0000000+00:00</time></trkpt><trkpt lat="39.4768537" lon="-0.38596694"><ele>16.0</ele><time>2022-11-02T16:00:02.0000000+00:00</time></trkpt><trkpt lat="39.47686787" lon="-0.38596049"><ele>16.0</ele><time>2022-11-02T16:00:03.0000000+00:00</time></trkpt><trkpt lat="39.47687558" lon="-0.38595831"><ele>16.0</ele><time>2022-11-02T16:00:04.0000000+00:00</time></trkpt><trkpt lat="39.47688027" lon="-0.3859506"><ele>16.0</ele><time>2022-11-02T16:00:05.0000000+00:00</time></trkpt><trkpt lat="39.47688103" lon="-0.3859511"><ele>16.0</ele><time>2022-11-02T16:00:06.0000000+00:00</time></trkpt><trkpt lat="39.47688748" lon="-0.38595471"><ele>16.0</ele><time>2022-11-02T16:00:07.0000000+00:00</time></trkpt><trkpt lat="39.47689612" lon="-0.38595814"><ele>16.0</ele><time>2022-11-02T16:00:08.0000000+00:00</time></trkpt><trkpt lat="39.47690014" lon="-0.38596636"><ele>16.0</ele><time>2022-11-02T16:00:09.0000000+00:00</time></trkpt><trkpt lat="39.47689042" lon="-0.38598128"><ele>16.0</ele><time>2022-11-02T16:00:10.0000000+00:00</time></trkpt><trkpt lat="39.47688899" lon="-0.38598698"><ele>16.0</ele><time>2022-11-02T16:00:11.0000000+00:00</time></trkpt><trkpt lat="39.47688547" lon="-0.38598924"><ele>16.0</ele><time>2022-11-02T16:00:12.0000000+00:00</time></trkpt><trkpt lat="39.47687793" lon="-0.38598195"><ele>16.0</ele><time>2022-11-02T16:00:13.0000000+00:00</time></trkpt><trkpt lat="39.47687776" lon="-0.38598463"><ele>16.0</ele><time>2022-11-02T16:00:14.0000000+00:00</time></trkpt><trkpt lat="39.47687306" lon="-0.38598916"><ele>16.0</ele><time>2022-11-02T16:00:15.0000000+00:00</time></trkpt><trkpt lat="39.47686636" lon="-0.38599268"><ele>16.0</ele><time>2022-11-02T16:00:16.0000000+00:00</time></trkpt><trkpt lat="39.47686737" lon="-0.38598974"><ele>16.0</ele><time>2022-11-02T16:00:17.0000000+00:00</time></trkpt><trkpt lat="39.47686661" lon="-0.38598614"><ele>16.0</ele><time>2022-11-02T16:00:18.0000000+00:00</time></trkpt><trkpt lat="39.47687994" lon="-0.38596443"><ele>16.0</ele><time>2022-11-02T16:00:19.0000000+00:00</time></trkpt><trkpt lat="39.47688396" lon="-0.38596275"><ele>16.0</ele><time>2022-11-02T16:00:20.0000000+00:00</time></trkpt><trkpt lat="39.47688153" lon="-0.38597105"><ele>16.0</ele><time>2022-11-02T16:00:21.0000000+00:00</time></trkpt><trkpt lat="39.47687583" lon="-0.38597985"><ele>16.0</ele><time>2022-11-02T16:00:22.0000000+00:00</time></trkpt><trkpt lat="39.47687223" lon="-0.38598505"><ele>16.0</ele><time>2022-11-02T16:00:23.0000000+00:00</time></trkpt><trkpt lat="39.47687415" lon="-0.38598463"><ele>16.0</ele><time>2022-11-02T16:00:24.0000000+00:00</time></trkpt><trkpt lat="39.47687893" lon="-0.38598874"><ele>16.0</ele><time>2022-11-02T16:00:25.0000000+00:00</time></trkpt><trkpt lat="39.47688078" lon="-0.38599368"><ele>16.0</ele><time>2022-11-02T16:00:26.0000000+00:00</time></trkpt><trkpt lat="39.47688229" lon="-0.38599737"><ele>16.0</ele><time>2022-11-02T16:00:27.0000000+00:00</time></trkpt><trkpt lat="39.47688069" lon="-0.38600181"><ele>16.0</ele><time>2022-11-02T16:00:28.0000000+00:00</time></trkpt><trkpt lat="39.47687675" lon="-0.38600952"><ele>16.0</ele><time>2022-11-02T16:00:29.0000000+00:00</time></trkpt><trkpt lat="39.47688438" lon="-0.38599988"><ele>16.0</ele><time>2022-11-02T16:00:30.0000000+00:00</time></trkpt><trkpt lat="39.47690165" lon="-0.38598371"><ele>16.0</ele><time>2022-11-02T16:00:31.0000000+00:00</time></trkpt><trkpt lat="39.47691917" lon="-0.38595378"><ele>16.0</ele><time>2022-11-02T16:00:32.0000000+00:00</time></trkpt><trkpt lat="39.47692562" lon="-0.38594984"><ele>16.0</ele><time>2022-11-02T16:00:33.0000000+00:00</time></trkpt><trkpt lat="39.47692026" lon="-0.38595907"><ele>16.0</ele><time>2022-11-02T16:00:34.0000000+00:00</time></trkpt><trkpt lat="39.47692076" lon="-0.38596409"><ele>16.0</ele><time>2022-11-02T16:00:35.0000000+00:00</time></trkpt><trkpt lat="39.47692285" lon="-0.38596711"><ele>16.0</ele><time>2022-11-02T16:00:36.0000000+00:00</time></trkpt><trkpt lat="39.47692436" lon="-0.38596988"><ele>16.0</ele><time>2022-11-02T16:00:37.0000000+00:00</time></trkpt><trkpt lat="39.47692721" lon="-0.38597248"><ele>16.0</ele><time>2022-11-02T16:00:38.0000000+00:00</time></trkpt><trkpt lat="39.47692822" lon="-0.38597658"><ele>16.0</ele><time>2022-11-02T16:00:39.0000000+00:00</time></trkpt><trkpt lat="39.47692914" lon="-0.38597658"><ele>16.0</ele><time>2022-11-02T16:00:40.0000000+00:00</time></trkpt><trkpt lat="39.47693165" lon="-0.3859765"><ele>16.0</ele><time>2022-11-02T16:00:41.0000000+00:00</time></trkpt><trkpt lat="39.4769345" lon="-0.38597742"><ele>16.0</ele><time>2022-11-02T16:00:42.0000000+00:00</time></trkpt><trkpt lat="39.47693543" lon="-0.38597667"><ele>16.0</ele><time>2022-11-02T16:00:43.0000000+00:00</time></trkpt><trkpt lat="39.47693618" lon="-0.38597575"><ele>16.0</ele><time>2022-11-02T16:00:44.0000000+00:00</time></trkpt><trkpt lat="39.47692327" lon="-0.38598069"><ele>16.0</ele><time>2022-11-02T16:00:45.0000000+00:00</time></trkpt><trkpt lat="39.47691305" lon="-0.38598572"><ele>16.0</ele><time>2022-11-02T16:00:46.0000000+00:00</time></trkpt><trkpt lat="39.47690852" lon="-0.38599108"><ele>16.0</ele><time>2022-11-02T16:00:47.0000000+00:00</time></trkpt><trkpt lat="39.47689863" lon="-0.38600014"><ele>16.0</ele><time>2022-11-02T16:00:48.0000000+00:00</time></trkpt><trkpt lat="39.47688371" lon="-0.38601573"><ele>16.0</ele><time>2022-11-02T16:00:49.0000000+00:00</time></trkpt><trkpt lat="39.47689578" lon="-0.38600106"><ele>16.0</ele><time>2022-11-02T16:00:50.0000000+00:00</time></trkpt><trkpt lat="39.47690575" lon="-0.38599251"><ele>16.0</ele><time>2022-11-02T16:00:51.0000000+00:00</time></trkpt><trkpt lat="39.47690693" lon="-0.38598941"><ele>16.0</ele><time>2022-11-02T16:00:52.0000000+00:00</time></trkpt><trkpt lat="39.47689662" lon="-0.38599553"><ele>16.0</ele><time>2022-11-02T16:00:53.0000000+00:00</time></trkpt><trkpt lat="39.47689025" lon="-0.38600558"><ele>16.0</ele><time>2022-11-02T16:00:54.0000000+00:00</time></trkpt><trkpt lat="39.47688245" lon="-0.3860164"><ele>16.0</ele><time>2022-11-02T16:00:55.0000000+00:00</time></trkpt><trkpt lat="39.47688254" lon="-0.38602218"><ele>16.0</ele><time>2022-11-02T16:00:56.0000000+00:00</time></trkpt><trkpt lat="39.47687566" lon="-0.38603609"><ele>16.0</ele><time>2022-11-02T16:00:57.0000000+00:00</time></trkpt><trkpt lat="39.4768729" lon="-0.38604766"><ele>16.0</ele><time>2022-11-02T16:00:58.0000000+00:00</time></trkpt><trkpt lat="39.47687265" lon="-0.38605353"><ele>16.0</ele><time>2022-11-02T16:00:59.0000000+00:00</time></trkpt><trkpt lat="39.47686359" lon="-0.38604816"><ele>16.0</ele><time>2022-11-02T16:01:00.0000000+00:00</time></trkpt><trkpt lat="39.47687164" lon="-0.38605412"><ele>16.0</ele><time>2022-11-02T16:01:01.0000000+00:00</time></trkpt><trkpt lat="39.47687642" lon="-0.38605227"><ele>16.0</ele><time>2022-11-02T16:01:02.0000000+00:00</time></trkpt><trkpt lat="39.47688849" lon="-0.38604104"><ele>16.0</ele><time>2022-11-02T16:01:03.0000000+00:00</time></trkpt><trkpt lat="39.47687944" lon="-0.38603978"><ele>16.0</ele><time>2022-11-02T16:01:04.0000000+00:00</time></trkpt><trkpt lat="39.47687097" lon="-0.38603542"><ele>16.0</ele><time>2022-11-02T16:01:05.0000000+00:00</time></trkpt><trkpt lat="39.47687172" lon="-0.38602998"><ele>16.0</ele><time>2022-11-02T16:01:06.0000000+00:00</time></trkpt><trkpt lat="39.47687164" lon="-0.38602436"><ele>16.0</ele><time>2022-11-02T16:01:07.0000000+00:00</time></trkpt><trkpt lat="39.47687105" lon="-0.38601698"><ele>16.0</ele><time>2022-11-02T16:01:08.0000000+00:00</time></trkpt><trkpt lat="39.47686284" lon="-0.38601464"><ele>16.0</ele><time>2022-11-02T16:01:09.0000000+00:00</time></trkpt><trkpt lat="39.47685379" lon="-0.38601958"><ele>16.0</ele><time>2022-11-02T16:01:10.0000000+00:00</time></trkpt><trkpt lat="39.47684851" lon="-0.38603216"><ele>16.0</ele><time>2022-11-02T16:01:11.0000000+00:00</time></trkpt><trkpt lat="39.47684683" lon="-0.38604272"><ele>16.0</ele><time>2022-11-02T16:01:12.0000000+00:00</time></trkpt><trkpt lat="39.47684423" lon="-0.38605537"><ele>16.0</ele><time>2022-11-02T16:01:13.0000000+00:00</time></trkpt><trkpt lat="39.47684306" lon="-0.38606166"><ele>16.0</ele><time>2022-11-02T16:01:14.0000000+00:00</time></trkpt><trkpt lat="39.47685219" lon="-0.38606007"><ele>16.0</ele><time>2022-11-02T16:01:15.0000000+00:00</time></trkpt><trkpt lat="39.47685454" lon="-0.38605479"><ele>16.0</ele><time>2022-11-02T16:01:16.0000000+00:00</time></trkpt><trkpt lat="39.47685613" lon="-0.38605378"><ele>16.0</ele><time>2022-11-02T16:01:17.0000000+00:00</time></trkpt><trkpt lat="39.47683987" lon="-0.38605135"><ele>16.0</ele><time>2022-11-02T16:01:18.0000000+00:00</time></trkpt><trkpt lat="39.47682219" lon="-0.38605546"><ele>16.0</ele><time>2022-11-02T16:01:19.0000000+00:00</time></trkpt><trkpt lat="39.47680978" lon="-0.38606987"><ele>16.0</ele><time>2022-11-02T16:01:20.0000000+00:00</time></trkpt><trkpt lat="39.47680274" lon="-0.38608303"><ele>16.0</ele><time>2022-11-02T16:01:21.0000000+00:00</time></trkpt><trkpt lat="39.47679889" lon="-0.38609552"><ele>16.0</ele><time>2022-11-02T16:01:22.0000000+00:00</time></trkpt><trkpt lat="39.47680249" lon="-0.38610424"><ele>16.0</ele><time>2022-11-02T16:01:23.0000000+00:00</time></trkpt><trkpt lat="39.47681096" lon="-0.38611103"><ele>16.0</ele><time>2022-11-02T16:01:24.0000000+00:00</time></trkpt><trkpt lat="39.47681054" lon="-0.38612109"><ele>16.0</ele><time>2022-11-02T16:01:25.0000000+00:00</time></trkpt><trkpt lat="39.47680727" lon="-0.38613416"><ele>16.0</ele><time>2022-11-02T16:01:26.0000000+00:00</time></trkpt><trkpt lat="39.47681355" lon="-0.38614347"><ele>16.0</ele><time>2022-11-02T16:01:27.0000000+00:00</time></trkpt><trkpt lat="39.47682445" lon="-0.38614799"><ele>16.0</ele><time>2022-11-02T16:01:28.0000000+00:00</time></trkpt><trkpt lat="39.47683618" lon="-0.38615126"><ele>16.0</ele><time>2022-11-02T16:01:29.0000000+00:00</time></trkpt><trkpt lat="39.4768439" lon="-0.38615797"><ele>15.8</ele><time>2022-11-02T16:01:30.0000000+00:00</time></trkpt><trkpt lat="39.47685186" lon="-0.38617289"><ele>15.8</ele><time>2022-11-02T16:01:31.0000000+00:00</time></trkpt><trkpt lat="39.47685043" lon="-0.3861858"><ele>15.6</ele><time>2022-11-02T16:01:32.0000000+00:00</time></trkpt><trkpt lat="39.47684633" lon="-0.38620331"><ele>15.6</ele><time>2022-11-02T16:01:33.0000000+00:00</time></trkpt><trkpt lat="39.47685991" lon="-0.38620918"><ele>15.6</ele><time>2022-11-02T16:01:34.0000000+00:00</time></trkpt><trkpt lat="39.47687022" lon="-0.38622502"><ele>15.6</ele><time>2022-11-02T16:01:35.0000000+00:00</time></trkpt><trkpt lat="39.47687575" lon="-0.38623567"><ele>15.6</ele><time>2022-11-02T16:01:36.0000000+00:00</time></trkpt><trkpt lat="39.47686929" lon="-0.38625428"><ele>15.6</ele><time>2022-11-02T16:01:37.0000000+00:00</time></trkpt><trkpt lat="39.47686016" lon="-0.38626819"><ele>15.6</ele><time>2022-11-02T16:01:38.0000000+00:00</time></trkpt><trkpt lat="39.47685286" lon="-0.38627758"><ele>15.6</ele><time>2022-11-02T16:01:39.0000000+00:00</time></trkpt><trkpt lat="39.47685362" lon="-0.38628059"><ele>15.6</ele><time>2022-11-02T16:01:40.0000000+00:00</time></trkpt><trkpt lat="39.47685957" lon="-0.38628898"><ele>15.6</ele><time>2022-11-02T16:01:41.0000000+00:00</time></trkpt><trkpt lat="39.47687114" lon="-0.38629208"><ele>15.6</ele><time>2022-11-02T16:01:42.0000000+00:00</time></trkpt><trkpt lat="39.47688287" lon="-0.38628604"><ele>15.6</ele><time>2022-11-02T16:01:43.0000000+00:00</time></trkpt><trkpt lat="39.47689813" lon="-0.38626987"><ele>15.6</ele><time>2022-11-02T16:01:44.0000000+00:00</time></trkpt><trkpt lat="39.47690869" lon="-0.38625402"><ele>15.6</ele><time>2022-11-02T16:01:45.0000000+00:00</time></trkpt><trkpt lat="39.47691732" lon="-0.38623743"><ele>15.6</ele><time>2022-11-02T16:01:46.0000000+00:00</time></trkpt><trkpt lat="39.47693367" lon="-0.38620273"><ele>15.6</ele><time>2022-11-02T16:01:47.0000000+00:00</time></trkpt><trkpt lat="39.47694674" lon="-0.38618378"><ele>15.6</ele><time>2022-11-02T16:01:48.0000000+00:00</time></trkpt><trkpt lat="39.47695529" lon="-0.38617473"><ele>15.6</ele><time>2022-11-02T16:01:49.0000000+00:00</time></trkpt><trkpt lat="39.4769656" lon="-0.38617456"><ele>15.6</ele><time>2022-11-02T16:01:50.0000000+00:00</time></trkpt><trkpt lat="39.47697407" lon="-0.38617046"><ele>15.6</ele><time>2022-11-02T16:01:51.0000000+00:00</time></trkpt><trkpt lat="39.47699879" lon="-0.38616207"><ele>15.4</ele><time>2022-11-02T16:01:52.0000000+00:00</time></trkpt><trkpt lat="39.4770164" lon="-0.38615269"><ele>15.4</ele><time>2022-11-02T16:01:53.0000000+00:00</time></trkpt><trkpt lat="39.47703458" lon="-0.38614372"><ele>15.4</ele><time>2022-11-02T16:01:54.0000000+00:00</time></trkpt><trkpt lat="39.47703701" lon="-0.38614623"><ele>15.4</ele><time>2022-11-02T16:01:55.0000000+00:00</time></trkpt><trkpt lat="39.47704162" lon="-0.38615143"><ele>15.4</ele><time>2022-11-02T16:01:56.0000000+00:00</time></trkpt><trkpt lat="39.47704657" lon="-0.38616099"><ele>15.4</ele><time>2022-11-02T16:01:57.0000000+00:00</time></trkpt><trkpt lat="39.47707146" lon="-0.38615671"><ele>15.4</ele><time>2022-11-02T16:01:58.0000000+00:00</time></trkpt><trkpt lat="39.47708932" lon="-0.38615604"><ele>15.4</ele><time>2022-11-02T16:01:59.0000000+00:00</time></trkpt><trkpt lat="39.47708312" lon="-0.38617155"><ele>15.4</ele><time>2022-11-02T16:02:00.0000000+00:00</time></trkpt><trkpt lat="39.47706115" lon="-0.38619527"><ele>15.4</ele><time>2022-11-02T16:02:01.0000000+00:00</time></trkpt><trkpt lat="39.47701162" lon="-0.38623734"><ele>15.4</ele><time>2022-11-02T16:02:02.0000000+00:00</time></trkpt><trkpt lat="39.47696577" lon="-0.38627313"><ele>15.4</ele><time>2022-11-02T16:02:03.0000000+00:00</time></trkpt><trkpt lat="39.47693065" lon="-0.38629518"><ele>15.4</ele><time>2022-11-02T16:02:04.0000000+00:00</time></trkpt><trkpt lat="39.4769107" lon="-0.38629694"><ele>15.4</ele><time>2022-11-02T16:02:05.0000000+00:00</time></trkpt><trkpt lat="39.476919" lon="-0.38629979"><ele>15.4</ele><time>2022-11-02T16:02:06.0000000+00:00</time></trkpt><trkpt lat="39.4769309" lon="-0.38630381"><ele>15.4</ele><time>2022-11-02T16:02:07.0000000+00:00</time></trkpt><trkpt lat="39.47693224" lon="-0.38631999"><ele>15.4</ele><time>2022-11-02T16:02:08.0000000+00:00</time></trkpt><trkpt lat="39.47693358" lon="-0.3863298"><ele>15.4</ele><time>2022-11-02T16:02:09.0000000+00:00</time></trkpt><trkpt lat="39.47693207" lon="-0.3863329"><ele>15.4</ele><time>2022-11-02T16:02:10.0000000+00:00</time></trkpt><trkpt lat="39.47694699" lon="-0.38632544"><ele>15.4</ele><time>2022-11-02T16:02:11.0000000+00:00</time></trkpt><trkpt lat="39.47696703" lon="-0.386322"><ele>15.4</ele><time>2022-11-02T16:02:12.0000000+00:00</time></trkpt><trkpt lat="39.47696954" lon="-0.3863241"><ele>15.4</ele><time>2022-11-02T16:02:13.0000000+00:00</time></trkpt><trkpt lat="39.47697231" lon="-0.38632636"><ele>15.4</ele><time>2022-11-02T16:02:14.0000000+00:00</time></trkpt><trkpt lat="39.4769739" lon="-0.38632862"><ele>15.4</ele><time>2022-11-02T16:02:15.0000000+00:00</time></trkpt><trkpt lat="39.47698052" lon="-0.38633558"><ele>15.4</ele><time>2022-11-02T16:02:16.0000000+00:00</time></trkpt><trkpt lat="39.47698295" lon="-0.38633902"><ele>15.4</ele><time>2022-11-02T16:02:17.0000000+00:00</time></trkpt><trkpt lat="39.47700139" lon="-0.3863303"><ele>15.4</ele><time>2022-11-02T16:02:18.0000000+00:00</time></trkpt><trkpt lat="39.47701464" lon="-0.38632787"><ele>15.4</ele><time>2022-11-02T16:02:19.0000000+00:00</time></trkpt><trkpt lat="39.47701933" lon="-0.38633072"><ele>15.4</ele><time>2022-11-02T16:02:20.0000000+00:00</time></trkpt><trkpt lat="39.47701891" lon="-0.38633541"><ele>15.4</ele><time>2022-11-02T16:02:21.0000000+00:00</time></trkpt><trkpt lat="39.47702017" lon="-0.38634363"><ele>15.4</ele><time>2022-11-02T16:02:22.0000000+00:00</time></trkpt><trkpt lat="39.47702142" lon="-0.38634664"><ele>15.4</ele><time>2022-11-02T16:02:23.0000000+00:00</time></trkpt><trkpt lat="39.47702947" lon="-0.38635058"><ele>15.4</ele><time>2022-11-02T16:02:24.0000000+00:00</time></trkpt><trkpt lat="39.47703098" lon="-0.38636047"><ele>15.4</ele><time>2022-11-02T16:02:25.0000000+00:00</time></trkpt><trkpt lat="39.47703492" lon="-0.38637062"><ele>15.4</ele><time>2022-11-02T16:02:26.0000000+00:00</time></trkpt><trkpt lat="39.47704062" lon="-0.38637925"><ele>15.4</ele><time>2022-11-02T16:02:27.0000000+00:00</time></trkpt><trkpt lat="39.47704523" lon="-0.38638688"><ele>15.4</ele><time>2022-11-02T16:02:28.0000000+00:00</time></trkpt><trkpt lat="39.477049" lon="-0.38639559"><ele>15.2</ele><time>2022-11-02T16:02:29.0000000+00:00</time></trkpt><trkpt lat="39.47705478" lon="-0.3864049"><ele>15.2</ele><time>2022-11-02T16:02:30.0000000+00:00</time></trkpt><trkpt lat="39.47706174" lon="-0.38641353"><ele>15.2</ele><time>2022-11-02T16:02:31.0000000+00:00</time></trkpt><trkpt lat="39.47707054" lon="-0.38642141"><ele>15.2</ele><time>2022-11-02T16:02:32.0000000+00:00</time></trkpt><trkpt lat="39.47707884" lon="-0.38642812"><ele>15.2</ele><time>2022-11-02T16:02:33.0000000+00:00</time></trkpt><trkpt lat="39.47709032" lon="-0.38643524"><ele>15.2</ele><time>2022-11-02T16:02:34.0000000+00:00</time></trkpt><trkpt lat="39.47710399" lon="-0.38643985"><ele>15.2</ele><time>2022-11-02T16:02:35.0000000+00:00</time></trkpt><trkpt lat="39.4771184" lon="-0.38644195"><ele>15.2</ele><time>2022-11-02T16:02:36.0000000+00:00</time></trkpt><trkpt lat="39.47713047" lon="-0.38644438"><ele>15.2</ele><time>2022-11-02T16:02:37.0000000+00:00</time></trkpt><trkpt lat="39.47714514" lon="-0.38644706"><ele>15.2</ele><time>2022-11-02T16:02:38.0000000+00:00</time></trkpt><trkpt lat="39.47716459" lon="-0.38644723"><ele>15.4</ele><time>2022-11-02T16:02:39.0000000+00:00</time></trkpt><trkpt lat="39.477178" lon="-0.38646122"><ele>15.6</ele><time>2022-11-02T16:02:40.0000000+00:00</time></trkpt><trkpt lat="39.47719107" lon="-0.38646785"><ele>15.6</ele><time>2022-11-02T16:02:41.0000000+00:00</time></trkpt><trkpt lat="39.47719309" lon="-0.38646801"><ele>15.6</ele><time>2022-11-02T16:02:42.0000000+00:00</time></trkpt><trkpt lat="39.47719242" lon="-0.38647011"><ele>15.4</ele><time>2022-11-02T16:02:43.0000000+00:00</time></trkpt><trkpt lat="39.47719853" lon="-0.3864598"><ele>15.2</ele><time>2022-11-02T16:02:44.0000000+00:00</time></trkpt><trkpt lat="39.47719937" lon="-0.38646936"><ele>15.2</ele><time>2022-11-02T16:02:45.0000000+00:00</time></trkpt><trkpt lat="39.47720038" lon="-0.38648469"><ele>15.0</ele><time>2022-11-02T16:02:46.0000000+00:00</time></trkpt><trkpt lat="39.47719996" lon="-0.38649794"><ele>15.0</ele><time>2022-11-02T16:02:47.0000000+00:00</time></trkpt><trkpt lat="39.47719677" lon="-0.38650171"><ele>15.0</ele><time>2022-11-02T16:02:48.0000000+00:00</time></trkpt><trkpt lat="39.47719837" lon="-0.38651185"><ele>15.0</ele><time>2022-11-02T16:02:49.0000000+00:00</time></trkpt><trkpt lat="39.47719837" lon="-0.38651252"><ele>15.0</ele><time>2022-11-02T16:02:50.0000000+00:00</time></trkpt><trkpt lat="39.47720314" lon="-0.3865116"><ele>15.0</ele><time>2022-11-02T16:02:51.0000000+00:00</time></trkpt><trkpt lat="39.47720432" lon="-0.38651688"><ele>15.0</ele><time>2022-11-02T16:02:52.0000000+00:00</time></trkpt><trkpt lat="39.47720541" lon="-0.3865194"><ele>15.0</ele><time>2022-11-02T16:02:53.0000000+00:00</time></trkpt><trkpt lat="39.47720801" lon="-0.38651956"><ele>15.0</ele><time>2022-11-02T16:02:54.0000000+00:00</time></trkpt><trkpt lat="39.47721136" lon="-0.38651789"><ele>15.0</ele><time>2022-11-02T16:02:55.0000000+00:00</time></trkpt><trkpt lat="39.47721077" lon="-0.38651386"><ele>15.0</ele><time>2022-11-02T16:02:56.0000000+00:00</time></trkpt><trkpt lat="39.47720993" lon="-0.38651395"><ele>15.0</ele><time>2022-11-02T16:02:57.0000000+00:00</time></trkpt><trkpt lat="39.47720968" lon="-0.38651319"><ele>15.0</ele><time>2022-11-02T16:02:58.0000000+00:00</time></trkpt><trkpt lat="39.47721019" lon="-0.38651294"><ele>15.0</ele><time>2022-11-02T16:02:59.0000000+00:00</time></trkpt><trkpt lat="39.47721019" lon="-0.38651294"><ele>15.0</ele><time>2022-11-02T16:03:00.0000000+00:00</time></trkpt><trkpt lat="39.47721019" lon="-0.38651294"><ele>15.0</ele><time>2022-11-02T16:03:01.0000000+00:00</time></trkpt><trkpt lat="39.47721019" lon="-0.38651294"><ele>15.0</ele><time>2022-11-02T16:03:02.0000000+00:00</time></trkpt><trkpt lat="39.47721019" lon="-0.38651294"><ele>15.0</ele><time>2022-11-02T16:03:03.0000000+00:00</time></trkpt><trkpt lat="39.47721019" lon="-0.38651294"><ele>15.0</ele><time>2022-11-02T16:03:04.0000000+00:00</time></trkpt><trkpt lat="39.47721019" lon="-0.38651294"><ele>15.0</ele><time>2022-11-02T16:03:05.0000000+00:00</time></trkpt><trkpt lat="39.47721019" lon="-0.38651294"><ele>15.0</ele><time>2022-11-02T16:03:06.0000000+00:00</time></trkpt><trkpt lat="39.47721019" lon="-0.38651294"><ele>15.0</ele><time>2022-11-02T16:03:07.0000000+00:00</time></trkpt><trkpt lat="39.47721019" lon="-0.38651294"><ele>15.0</ele><time>2022-11-02T16:03:08.0000000+00:00</time></trkpt><trkpt lat="39.47721019" lon="-0.38651294"><ele>15.0</ele><time>2022-11-02T16:03:09.0000000+00:00</time></trkpt><trkpt lat="39.47721019" lon="-0.38651294"><ele>15.0</ele><time>2022-11-02T16:03:10.0000000+00:00</time></trkpt><trkpt lat="39.47721019" lon="-0.38651294"><ele>15.0</ele><time>2022-11-02T16:03:11.0000000+00:00</time></trkpt><trkpt lat="39.47721019" lon="-0.38651294"><ele>14.8</ele><time>2022-11-02T16:03:12.0000000+00:00</time></trkpt><trkpt lat="39.47721019" lon="-0.38651294"><ele>14.8</ele><time>2022-11-02T16:03:13.0000000+00:00</time></trkpt><trkpt lat="39.47721044" lon="-0.38651294"><ele>14.8</ele><time>2022-11-02T16:03:14.0000000+00:00</time></trkpt><trkpt lat="39.47721077" lon="-0.38651294"><ele>14.8</ele><time>2022-11-02T16:03:15.0000000+00:00</time></trkpt><trkpt lat="39.47721127" lon="-0.38651168"><ele>14.8</ele><time>2022-11-02T16:03:16.0000000+00:00</time></trkpt><trkpt lat="39.47721748" lon="-0.38650976"><ele>14.8</ele><time>2022-11-02T16:03:17.0000000+00:00</time></trkpt><trkpt lat="39.4772184" lon="-0.38650917"><ele>14.8</ele><time>2022-11-02T16:03:18.0000000+00:00</time></trkpt><trkpt lat="39.47722318" lon="-0.38650741"><ele>14.8</ele><time>2022-11-02T16:03:19.0000000+00:00</time></trkpt><trkpt lat="39.47723449" lon="-0.38649819"><ele>14.8</ele><time>2022-11-02T16:03:20.0000000+00:00</time></trkpt><trkpt lat="39.47724463" lon="-0.38648738"><ele>14.8</ele><time>2022-11-02T16:03:21.0000000+00:00</time></trkpt><trkpt lat="39.47724992" lon="-0.38647271"><ele>14.8</ele><time>2022-11-02T16:03:22.0000000+00:00</time></trkpt><trkpt lat="39.47725779" lon="-0.38646231"><ele>14.8</ele><time>2022-11-02T16:03:23.0000000+00:00</time></trkpt><trkpt lat="39.47726064" lon="-0.38645661"><ele>14.8</ele><time>2022-11-02T16:03:24.0000000+00:00</time></trkpt><trkpt lat="39.47726869" lon="-0.38644781"><ele>14.8</ele><time>2022-11-02T16:03:25.0000000+00:00</time></trkpt><trkpt lat="39.47727665" lon="-0.38643574"><ele>14.8</ele><time>2022-11-02T16:03:26.0000000+00:00</time></trkpt><trkpt lat="39.47728311" lon="-0.3864282"><ele>14.8</ele><time>2022-11-02T16:03:27.0000000+00:00</time></trkpt><trkpt lat="39.47728956" lon="-0.38641839"><ele>15.0</ele><time>2022-11-02T16:03:28.0000000+00:00</time></trkpt><trkpt lat="39.47729233" lon="-0.38641152"><ele>15.0</ele><time>2022-11-02T16:03:29.0000000+00:00</time></trkpt><trkpt lat="39.47729568" lon="-0.38640448"><ele>15.0</ele><time>2022-11-02T16:03:30.0000000+00:00</time></trkpt><trkpt lat="39.47730448" lon="-0.38639207"><ele>15.0</ele><time>2022-11-02T16:03:31.0000000+00:00</time></trkpt><trkpt lat="39.47730809" lon="-0.38637824"><ele>15.0</ele><time>2022-11-02T16:03:32.0000000+00:00</time></trkpt><trkpt lat="39.47730959" lon="-0.38635972"><ele>15.0</ele><time>2022-11-02T16:03:33.0000000+00:00</time></trkpt><trkpt lat="39.4773075" lon="-0.38634623"><ele>15.0</ele><time>2022-11-02T16:03:34.0000000+00:00</time></trkpt><trkpt lat="39.47730021" lon="-0.38634597"><ele>15.0</ele><time>2022-11-02T16:03:35.0000000+00:00</time></trkpt><trkpt lat="39.47729761" lon="-0.38634681"><ele>15.0</ele><time>2022-11-02T16:03:36.0000000+00:00</time></trkpt><trkpt lat="39.47728772" lon="-0.38635226"><ele>15.0</ele><time>2022-11-02T16:03:37.0000000+00:00</time></trkpt><trkpt lat="39.47728168" lon="-0.38635125"><ele>15.0</ele><time>2022-11-02T16:03:38.0000000+00:00</time></trkpt><trkpt lat="39.47727858" lon="-0.38635209"><ele>15.0</ele><time>2022-11-02T16:03:39.0000000+00:00</time></trkpt><trkpt lat="39.47728395" lon="-0.38634857"><ele>15.0</ele><time>2022-11-02T16:03:40.0000000+00:00</time></trkpt><trkpt lat="39.47729451" lon="-0.38634237"><ele>15.0</ele><time>2022-11-02T16:03:41.0000000+00:00</time></trkpt><trkpt lat="39.4773054" lon="-0.38633491"><ele>15.0</ele><time>2022-11-02T16:03:42.0000000+00:00</time></trkpt><trkpt lat="39.47730901" lon="-0.38633172"><ele>15.0</ele><time>2022-11-02T16:03:43.0000000+00:00</time></trkpt><trkpt lat="39.47731043" lon="-0.38633013"><ele>15.0</ele><time>2022-11-02T16:03:44.0000000+00:00</time></trkpt><trkpt lat="39.47731152" lon="-0.38632971"><ele>15.0</ele><time>2022-11-02T16:03:45.0000000+00:00</time></trkpt><trkpt lat="39.47731211" lon="-0.38633063"><ele>15.0</ele><time>2022-11-02T16:03:46.0000000+00:00</time></trkpt><trkpt lat="39.47731135" lon="-0.38633307"><ele>15.0</ele><time>2022-11-02T16:03:47.0000000+00:00</time></trkpt><trkpt lat="39.47731052" lon="-0.38633357"><ele>15.0</ele><time>2022-11-02T16:03:48.0000000+00:00</time></trkpt><trkpt lat="39.47731127" lon="-0.38633374"><ele>15.0</ele><time>2022-11-02T16:03:49.0000000+00:00</time></trkpt><trkpt lat="39.47731127" lon="-0.38633374"><ele>15.0</ele><time>2022-11-02T16:03:50.0000000+00:00</time></trkpt><trkpt lat="39.47731127" lon="-0.38633374"><ele>15.0</ele><time>2022-11-02T16:03:51.0000000+00:00</time></trkpt><trkpt lat="39.47731127" lon="-0.38633374"><ele>15.0</ele><time>2022-11-02T16:03:52.0000000+00:00</time></trkpt><trkpt lat="39.47731127" lon="-0.38633374"><ele>15.0</ele><time>2022-11-02T16:03:53.0000000+00:00</time></trkpt><trkpt lat="39.47731127" lon="-0.38633374"><ele>15.0</ele><time>2022-11-02T16:03:54.0000000+00:00</time></trkpt><trkpt lat="39.47731127" lon="-0.38633374"><ele>15.0</ele><time>2022-11-02T16:03:55.0000000+00:00</time></trkpt><trkpt lat="39.47731102" lon="-0.38633013"><ele>15.0</ele><time>2022-11-02T16:03:56.0000000+00:00</time></trkpt><trkpt lat="39.47730725" lon="-0.38632116"><ele>15.0</ele><time>2022-11-02T16:03:57.0000000+00:00</time></trkpt><trkpt lat="39.47730616" lon="-0.38631303"><ele>15.0</ele><time>2022-11-02T16:03:58.0000000+00:00</time></trkpt><trkpt lat="39.47730104" lon="-0.38630675"><ele>15.0</ele><time>2022-11-02T16:03:59.0000000+00:00</time></trkpt><trkpt lat="39.47729811" lon="-0.38629635"><ele>15.0</ele><time>2022-11-02T16:04:00.0000000+00:00</time></trkpt><trkpt lat="39.4772956" lon="-0.38628747"><ele>15.0</ele><time>2022-11-02T16:04:01.0000000+00:00</time></trkpt><trkpt lat="39.47729199" lon="-0.38627909"><ele>15.0</ele><time>2022-11-02T16:04:02.0000000+00:00</time></trkpt><trkpt lat="39.47728931" lon="-0.38627347"><ele>15.0</ele><time>2022-11-02T16:04:03.0000000+00:00</time></trkpt><trkpt lat="39.47731219" lon="-0.38627833"><ele>15.0</ele><time>2022-11-02T16:04:04.0000000+00:00</time></trkpt><trkpt lat="39.47729811" lon="-0.38628789"><ele>15.0</ele><time>2022-11-02T16:04:05.0000000+00:00</time></trkpt><trkpt lat="39.47729543" lon="-0.38628034"><ele>15.0</ele><time>2022-11-02T16:04:06.0000000+00:00</time></trkpt><trkpt lat="39.47729182" lon="-0.38627188"><ele>15.0</ele><time>2022-11-02T16:04:07.0000000+00:00</time></trkpt><trkpt lat="39.47728596" lon="-0.3862728"><ele>15.0</ele><time>2022-11-02T16:04:08.0000000+00:00</time></trkpt><trkpt lat="39.47728378" lon="-0.38627624"><ele>15.0</ele><time>2022-11-02T16:04:09.0000000+00:00</time></trkpt><trkpt lat="39.47728294" lon="-0.3862754"><ele>15.0</ele><time>2022-11-02T16:04:10.0000000+00:00</time></trkpt><trkpt lat="39.47728814" lon="-0.38626014"><ele>15.0</ele><time>2022-11-02T16:04:11.0000000+00:00</time></trkpt><trkpt lat="39.47729568" lon="-0.38624564"><ele>15.0</ele><time>2022-11-02T16:04:12.0000000+00:00</time></trkpt><trkpt lat="39.47730641" lon="-0.38622695"><ele>15.0</ele><time>2022-11-02T16:04:13.0000000+00:00</time></trkpt><trkpt lat="39.47731622" lon="-0.3862127"><ele>15.0</ele><time>2022-11-02T16:04:14.0000000+00:00</time></trkpt><trkpt lat="39.47732577" lon="-0.38620072"><ele>15.0</ele><time>2022-11-02T16:04:15.0000000+00:00</time></trkpt><trkpt lat="39.47733918" lon="-0.3861863"><ele>15.0</ele><time>2022-11-02T16:04:16.0000000+00:00</time></trkpt><trkpt lat="39.47735117" lon="-0.38617155"><ele>15.0</ele><time>2022-11-02T16:04:17.0000000+00:00</time></trkpt><trkpt lat="39.47736349" lon="-0.38616618"><ele>15.0</ele><time>2022-11-02T16:04:18.0000000+00:00</time></trkpt><trkpt lat="39.47736844" lon="-0.38617398"><ele>15.0</ele><time>2022-11-02T16:04:19.0000000+00:00</time></trkpt><trkpt lat="39.47734396" lon="-0.38618127"><ele>15.0</ele><time>2022-11-02T16:04:20.0000000+00:00</time></trkpt><trkpt lat="39.47734002" lon="-0.38618672"><ele>15.0</ele><time>2022-11-02T16:04:21.0000000+00:00</time></trkpt><trkpt lat="39.47734036" lon="-0.38618932"><ele>15.0</ele><time>2022-11-02T16:04:22.0000000+00:00</time></trkpt><trkpt lat="39.47734329" lon="-0.38620633"><ele>15.0</ele><time>2022-11-02T16:04:23.0000000+00:00</time></trkpt><trkpt lat="39.47732368" lon="-0.38621631"><ele>15.0</ele><time>2022-11-02T16:04:24.0000000+00:00</time></trkpt><trkpt lat="39.47731253" lon="-0.38622318"><ele>15.0</ele><time>2022-11-02T16:04:25.0000000+00:00</time></trkpt><trkpt lat="39.47731043" lon="-0.38622586"><ele>15.0</ele><time>2022-11-02T16:04:26.0000000+00:00</time></trkpt><trkpt lat="39.47730901" lon="-0.3862246"><ele>15.0</ele><time>2022-11-02T16:04:27.0000000+00:00</time></trkpt><trkpt lat="39.47730725" lon="-0.38623801"><ele>15.0</ele><time>2022-11-02T16:04:28.0000000+00:00</time></trkpt><trkpt lat="39.47731001" lon="-0.38623827"><ele>15.0</ele><time>2022-11-02T16:04:29.0000000+00:00</time></trkpt><trkpt lat="39.47731085" lon="-0.38623516"><ele>15.0</ele><time>2022-11-02T16:04:30.0000000+00:00</time></trkpt><trkpt lat="39.47731387" lon="-0.38624313"><ele>15.0</ele><time>2022-11-02T16:04:31.0000000+00:00</time></trkpt><trkpt lat="39.47730792" lon="-0.38625025"><ele>15.0</ele><time>2022-11-02T16:04:32.0000000+00:00</time></trkpt><trkpt lat="39.47730431" lon="-0.38625394"><ele>15.0</ele><time>2022-11-02T16:04:33.0000000+00:00</time></trkpt><trkpt lat="39.47730809" lon="-0.38625989"><ele>15.0</ele><time>2022-11-02T16:04:34.0000000+00:00</time></trkpt><trkpt lat="39.47731236" lon="-0.38627205"><ele>15.0</ele><time>2022-11-02T16:04:35.0000000+00:00</time></trkpt><trkpt lat="39.4773132" lon="-0.38628034"><ele>15.0</ele><time>2022-11-02T16:04:36.0000000+00:00</time></trkpt><trkpt lat="39.47731546" lon="-0.38627456"><ele>15.0</ele><time>2022-11-02T16:04:37.0000000+00:00</time></trkpt><trkpt lat="39.47731689" lon="-0.3862614"><ele>15.0</ele><time>2022-11-02T16:04:38.0000000+00:00</time></trkpt><trkpt lat="39.47732032" lon="-0.38623072"><ele>15.0</ele><time>2022-11-02T16:04:39.0000000+00:00</time></trkpt><trkpt lat="39.47732401" lon="-0.38624154"><ele>15.0</ele><time>2022-11-02T16:04:40.0000000+00:00</time></trkpt><trkpt lat="39.47732292" lon="-0.38623852"><ele>15.0</ele><time>2022-11-02T16:04:41.0000000+00:00</time></trkpt><trkpt lat="39.47732108" lon="-0.38624992"><ele>15.0</ele><time>2022-11-02T16:04:42.0000000+00:00</time></trkpt><trkpt lat="39.47731731" lon="-0.38625679"><ele>15.0</ele><time>2022-11-02T16:04:43.0000000+00:00</time></trkpt><trkpt lat="39.4773189" lon="-0.38625629"><ele>15.0</ele><time>2022-11-02T16:04:44.0000000+00:00</time></trkpt><trkpt lat="39.47731907" lon="-0.38625545"><ele>15.0</ele><time>2022-11-02T16:04:45.0000000+00:00</time></trkpt><trkpt lat="39.47731689" lon="-0.38626484"><ele>15.0</ele><time>2022-11-02T16:04:46.0000000+00:00</time></trkpt><trkpt lat="39.47731446" lon="-0.3862671"><ele>15.0</ele><time>2022-11-02T16:04:47.0000000+00:00</time></trkpt><trkpt lat="39.47731311" lon="-0.38626568"><ele>15.0</ele><time>2022-11-02T16:04:48.0000000+00:00</time></trkpt><trkpt lat="39.47731395" lon="-0.38626752"><ele>15.0</ele><time>2022-11-02T16:04:49.0000000+00:00</time></trkpt><trkpt lat="39.47731454" lon="-0.38626811"><ele>15.0</ele><time>2022-11-02T16:04:50.0000000+00:00</time></trkpt><trkpt lat="39.47730918" lon="-0.38628479"><ele>15.0</ele><time>2022-11-02T16:04:51.0000000+00:00</time></trkpt><trkpt lat="39.47730666" lon="-0.38629124"><ele>15.0</ele><time>2022-11-02T16:04:52.0000000+00:00</time></trkpt><trkpt lat="39.47730163" lon="-0.38629568"><ele>15.0</ele><time>2022-11-02T16:04:53.0000000+00:00</time></trkpt><trkpt lat="39.47729954" lon="-0.38630029"><ele>15.0</ele><time>2022-11-02T16:04:54.0000000+00:00</time></trkpt><trkpt lat="39.47730037" lon="-0.38629141"><ele>15.0</ele><time>2022-11-02T16:04:55.0000000+00:00</time></trkpt><trkpt lat="39.47730037" lon="-0.38629141"><ele>15.0</ele><time>2022-11-02T16:04:56.0000000+00:00</time></trkpt><trkpt lat="39.47730037" lon="-0.38629141"><ele>15.0</ele><time>2022-11-02T16:04:57.0000000+00:00</time></trkpt><trkpt lat="39.47730037" lon="-0.38629141"><ele>15.0</ele><time>2022-11-02T16:04:58.0000000+00:00</time></trkpt><trkpt lat="39.47730037" lon="-0.38629141"><ele>15.0</ele><time>2022-11-02T16:04:59.0000000+00:00</time></trkpt><trkpt lat="39.47730037" lon="-0.38629141"><ele>15.0</ele><time>2022-11-02T16:05:00.0000000+00:00</time></trkpt><trkpt lat="39.47730037" lon="-0.38629141"><ele>15.0</ele><time>2022-11-02T16:05:01.0000000+00:00</time></trkpt><trkpt lat="39.47730037" lon="-0.38629141"><ele>15.0</ele><time>2022-11-02T16:05:02.0000000+00:00</time></trkpt><trkpt lat="39.47730037" lon="-0.38629141"><ele>15.0</ele><time>2022-11-02T16:05:03.0000000+00:00</time></trkpt><trkpt lat="39.47730037" lon="-0.38629141"><ele>15.0</ele><time>2022-11-02T16:05:04.0000000+00:00</time></trkpt><trkpt lat="39.47730037" lon="-0.38629141"><ele>15.0</ele><time>2022-11-02T16:05:05.0000000+00:00</time></trkpt><trkpt lat="39.47730037" lon="-0.38629124"><ele>15.0</ele><time>2022-11-02T16:05:06.0000000+00:00</time></trkpt><trkpt lat="39.47730037" lon="-0.38628512"><ele>15.0</ele><time>2022-11-02T16:05:07.0000000+00:00</time></trkpt><trkpt lat="39.47729535" lon="-0.38627992"><ele>15.0</ele><time>2022-11-02T16:05:08.0000000+00:00</time></trkpt><trkpt lat="39.47728856" lon="-0.38626869"><ele>15.0</ele><time>2022-11-02T16:05:09.0000000+00:00</time></trkpt><trkpt lat="39.47728403" lon="-0.38625746"><ele>15.0</ele><time>2022-11-02T16:05:10.0000000+00:00</time></trkpt><trkpt lat="39.47727833" lon="-0.38624589"><ele>15.0</ele><time>2022-11-02T16:05:11.0000000+00:00</time></trkpt><trkpt lat="39.47727355" lon="-0.38623483"><ele>15.0</ele><time>2022-11-02T16:05:12.0000000+00:00</time></trkpt><trkpt lat="39.47727003" lon="-0.38622636"><ele>15.0</ele><time>2022-11-02T16:05:13.0000000+00:00</time></trkpt><trkpt lat="39.47728403" lon="-0.38622368"><ele>15.0</ele><time>2022-11-02T16:05:14.0000000+00:00</time></trkpt><trkpt lat="39.47730255" lon="-0.38621622"><ele>15.0</ele><time>2022-11-02T16:05:15.0000000+00:00</time></trkpt><trkpt lat="39.47731471" lon="-0.38619007"><ele>15.0</ele><time>2022-11-02T16:05:16.0000000+00:00</time></trkpt><trkpt lat="39.47732116" lon="-0.38622016"><ele>15.0</ele><time>2022-11-02T16:05:17.0000000+00:00</time></trkpt><trkpt lat="39.47733952" lon="-0.38621279"><ele>15.0</ele><time>2022-11-02T16:05:18.0000000+00:00</time></trkpt><trkpt lat="39.47735553" lon="-0.38620574"><ele>15.0</ele><time>2022-11-02T16:05:19.0000000+00:00</time></trkpt><trkpt lat="39.47737145" lon="-0.38619585"><ele>15.0</ele><time>2022-11-02T16:05:20.0000000+00:00</time></trkpt><trkpt lat="39.47739023" lon="-0.38619627"><ele>15.0</ele><time>2022-11-02T16:05:21.0000000+00:00</time></trkpt><trkpt lat="39.47740397" lon="-0.38618906"><ele>15.0</ele><time>2022-11-02T16:05:22.0000000+00:00</time></trkpt><trkpt lat="39.47740783" lon="-0.38619032"><ele>15.0</ele><time>2022-11-02T16:05:23.0000000+00:00</time></trkpt><trkpt lat="39.47741068" lon="-0.3861899"><ele>15.0</ele><time>2022-11-02T16:05:24.0000000+00:00</time></trkpt><trkpt lat="39.47741764" lon="-0.38618848"><ele>15.0</ele><time>2022-11-02T16:05:25.0000000+00:00</time></trkpt><trkpt lat="39.47741454" lon="-0.38618948"><ele>15.0</ele><time>2022-11-02T16:05:26.0000000+00:00</time></trkpt><trkpt lat="39.47737807" lon="-0.38620583"><ele>15.0</ele><time>2022-11-02T16:05:27.0000000+00:00</time></trkpt><trkpt lat="39.47734513" lon="-0.38621882"><ele>15.0</ele><time>2022-11-02T16:05:28.0000000+00:00</time></trkpt><trkpt lat="39.47731714" lon="-0.38623106"><ele>15.0</ele><time>2022-11-02T16:05:29.0000000+00:00</time></trkpt><trkpt lat="39.47728763" lon="-0.38624531"><ele>15.0</ele><time>2022-11-02T16:05:30.0000000+00:00</time></trkpt><trkpt lat="39.47725394" lon="-0.38625989"><ele>15.0</ele><time>2022-11-02T16:05:31.0000000+00:00</time></trkpt><trkpt lat="39.47726911" lon="-0.38624472"><ele>15.0</ele><time>2022-11-02T16:05:32.0000000+00:00</time></trkpt><trkpt lat="39.47727037" lon="-0.38621002"><ele>15.0</ele><time>2022-11-02T16:05:33.0000000+00:00</time></trkpt><trkpt lat="39.47726928" lon="-0.38617716"><ele>15.0</ele><time>2022-11-02T16:05:34.0000000+00:00</time></trkpt><trkpt lat="39.47727481" lon="-0.38613106"><ele>15.0</ele><time>2022-11-02T16:05:35.0000000+00:00</time></trkpt><trkpt lat="39.47727649" lon="-0.38608521"><ele>15.0</ele><time>2022-11-02T16:05:36.0000000+00:00</time></trkpt><trkpt lat="39.47727355" lon="-0.38605345"><ele>15.0</ele><time>2022-11-02T16:05:37.0000000+00:00</time></trkpt><trkpt lat="39.47726383" lon="-0.38603576"><ele>15.0</ele><time>2022-11-02T16:05:38.0000000+00:00</time></trkpt><trkpt lat="39.47728093" lon="-0.3860801"><ele>15.0</ele><time>2022-11-02T16:05:39.0000000+00:00</time></trkpt><trkpt lat="39.47728931" lon="-0.38610516"><ele>15.0</ele><time>2022-11-02T16:05:40.0000000+00:00</time></trkpt><trkpt lat="39.47728428" lon="-0.38613089"><ele>15.0</ele><time>2022-11-02T16:05:41.0000000+00:00</time></trkpt><trkpt lat="39.4773396" lon="-0.38613173"><ele>15.0</ele><time>2022-11-02T16:05:42.0000000+00:00</time></trkpt><trkpt lat="39.47735217" lon="-0.38611824"><ele>14.4</ele><time>2022-11-02T16:05:43.0000000+00:00</time></trkpt><trkpt lat="39.47737246" lon="-0.38611623"><ele>14.0</ele><time>2022-11-02T16:05:44.0000000+00:00</time></trkpt><trkpt lat="39.47738721" lon="-0.38611187"><ele>13.8</ele><time>2022-11-02T16:05:45.0000000+00:00</time></trkpt><trkpt lat="39.47740674" lon="-0.38610885"><ele>13.6</ele><time>2022-11-02T16:05:46.0000000+00:00</time></trkpt><trkpt lat="39.47743205" lon="-0.38610533"><ele>13.6</ele><time>2022-11-02T16:05:47.0000000+00:00</time></trkpt><trkpt lat="39.4774546" lon="-0.38610273"><ele>13.6</ele><time>2022-11-02T16:05:48.0000000+00:00</time></trkpt><trkpt lat="39.47747748" lon="-0.38609443"><ele>13.6</ele><time>2022-11-02T16:05:49.0000000+00:00</time></trkpt><trkpt lat="39.4773847" lon="-0.38613182"><ele>13.6</ele><time>2022-11-02T16:05:50.0000000+00:00</time></trkpt><trkpt lat="39.47742501" lon="-0.38615998"><ele>13.6</ele><time>2022-11-02T16:05:51.0000000+00:00</time></trkpt><trkpt lat="39.47741848" lon="-0.3861873"><ele>13.6</ele><time>2022-11-02T16:05:52.0000000+00:00</time></trkpt><trkpt lat="39.47741688" lon="-0.38620642"><ele>13.6</ele><time>2022-11-02T16:05:53.0000000+00:00</time></trkpt><trkpt lat="39.4774308" lon="-0.38618454"><ele>13.6</ele><time>2022-11-02T16:05:54.0000000+00:00</time></trkpt><trkpt lat="39.47742049" lon="-0.38617716"><ele>13.6</ele><time>2022-11-02T16:05:55.0000000+00:00</time></trkpt><trkpt lat="39.47741546" lon="-0.38617163"><ele>13.6</ele><time>2022-11-02T16:05:56.0000000+00:00</time></trkpt><trkpt lat="39.47743415" lon="-0.38615244"><ele>13.6</ele><time>2022-11-02T16:05:57.0000000+00:00</time></trkpt><trkpt lat="39.47743817" lon="-0.3861547"><ele>13.6</ele><time>2022-11-02T16:05:58.0000000+00:00</time></trkpt><trkpt lat="39.47743138" lon="-0.38614665"><ele>13.6</ele><time>2022-11-02T16:05:59.0000000+00:00</time></trkpt><trkpt lat="39.47742174" lon="-0.38614992"><ele>13.6</ele><time>2022-11-02T16:06:00.0000000+00:00</time></trkpt><trkpt lat="39.47742384" lon="-0.38615151"><ele>13.6</ele><time>2022-11-02T16:06:01.0000000+00:00</time></trkpt><trkpt lat="39.47742049" lon="-0.38616383"><ele>13.6</ele><time>2022-11-02T16:06:02.0000000+00:00</time></trkpt><trkpt lat="39.47742032" lon="-0.38616585"><ele>13.6</ele><time>2022-11-02T16:06:03.0000000+00:00</time></trkpt><trkpt lat="39.47742535" lon="-0.38615218"><ele>13.6</ele><time>2022-11-02T16:06:04.0000000+00:00</time></trkpt><trkpt lat="39.47742778" lon="-0.38614271"><ele>13.6</ele><time>2022-11-02T16:06:05.0000000+00:00</time></trkpt><trkpt lat="39.47744387" lon="-0.38612478"><ele>13.6</ele><time>2022-11-02T16:06:06.0000000+00:00</time></trkpt><trkpt lat="39.47736131" lon="-0.38614204"><ele>13.6</ele><time>2022-11-02T16:06:07.0000000+00:00</time></trkpt><trkpt lat="39.47733424" lon="-0.38614665"><ele>13.6</ele><time>2022-11-02T16:06:08.0000000+00:00</time></trkpt><trkpt lat="39.47733608" lon="-0.38614213"><ele>13.6</ele><time>2022-11-02T16:06:09.0000000+00:00</time></trkpt><trkpt lat="39.47733005" lon="-0.38613953"><ele>13.8</ele><time>2022-11-02T16:06:10.0000000+00:00</time></trkpt><trkpt lat="39.4773256" lon="-0.386135"><ele>13.8</ele><time>2022-11-02T16:06:11.0000000+00:00</time></trkpt><trkpt lat="39.47730096" lon="-0.38614548"><ele>13.8</ele><time>2022-11-02T16:06:12.0000000+00:00</time></trkpt><trkpt lat="39.47727313" lon="-0.38616166"><ele>13.8</ele><time>2022-11-02T16:06:13.0000000+00:00</time></trkpt><trkpt lat="39.47725855" lon="-0.3861697"><ele>13.8</ele><time>2022-11-02T16:06:14.0000000+00:00</time></trkpt><trkpt lat="39.47729317" lon="-0.3861319"><ele>13.8</ele><time>2022-11-02T16:06:15.0000000+00:00</time></trkpt><trkpt lat="39.47729459" lon="-0.38612276"><ele>13.8</ele><time>2022-11-02T16:06:16.0000000+00:00</time></trkpt><trkpt lat="39.47728973" lon="-0.38612226"><ele>13.8</ele><time>2022-11-02T16:06:17.0000000+00:00</time></trkpt><trkpt lat="39.4772681" lon="-0.38612838"><ele>13.8</ele><time>2022-11-02T16:06:18.0000000+00:00</time></trkpt><trkpt lat="39.47726249" lon="-0.38612695"><ele>13.8</ele><time>2022-11-02T16:06:19.0000000+00:00</time></trkpt><trkpt lat="39.47725453" lon="-0.38612545"><ele>13.8</ele><time>2022-11-02T16:06:20.0000000+00:00</time></trkpt><trkpt lat="39.47728789" lon="-0.38612503"><ele>13.8</ele><time>2022-11-02T16:06:21.0000000+00:00</time></trkpt><trkpt lat="39.47726735" lon="-0.38612318"><ele>13.8</ele><time>2022-11-02T16:06:22.0000000+00:00</time></trkpt><trkpt lat="39.47725243" lon="-0.38612964"><ele>13.8</ele><time>2022-11-02T16:06:23.0000000+00:00</time></trkpt><trkpt lat="39.47724606" lon="-0.38613542"><ele>13.8</ele><time>2022-11-02T16:06:24.0000000+00:00</time></trkpt><trkpt lat="39.47724178" lon="-0.3861438"><ele>13.8</ele><time>2022-11-02T16:06:25.0000000+00:00</time></trkpt><trkpt lat="39.47723022" lon="-0.38615939"><ele>13.8</ele><time>2022-11-02T16:06:26.0000000+00:00</time></trkpt><trkpt lat="39.477235" lon="-0.38615311"><ele>13.8</ele><time>2022-11-02T16:06:27.0000000+00:00</time></trkpt><trkpt lat="39.4772412" lon="-0.38615311"><ele>13.8</ele><time>2022-11-02T16:06:28.0000000+00:00</time></trkpt><trkpt lat="39.47720641" lon="-0.38616677"><ele>13.8</ele><time>2022-11-02T16:06:29.0000000+00:00</time></trkpt><trkpt lat="39.47717942" lon="-0.38617582"><ele>13.6</ele><time>2022-11-02T16:06:30.0000000+00:00</time></trkpt><trkpt lat="39.47717624" lon="-0.38616736"><ele>13.6</ele><time>2022-11-02T16:06:31.0000000+00:00</time></trkpt><trkpt lat="39.47717129" lon="-0.38616576"><ele>13.6</ele><time>2022-11-02T16:06:32.0000000+00:00</time></trkpt><trkpt lat="39.47715646" lon="-0.3861697"><ele>13.6</ele><time>2022-11-02T16:06:33.0000000+00:00</time></trkpt><trkpt lat="39.47714564" lon="-0.38617197"><ele>13.6</ele><time>2022-11-02T16:06:34.0000000+00:00</time></trkpt><trkpt lat="39.47713399" lon="-0.3861754"><ele>13.6</ele><time>2022-11-02T16:06:35.0000000+00:00</time></trkpt><trkpt lat="39.47710876" lon="-0.38619309"><ele>13.6</ele><time>2022-11-02T16:06:36.0000000+00:00</time></trkpt><trkpt lat="39.47707909" lon="-0.38621589"><ele>13.6</ele><time>2022-11-02T16:06:37.0000000+00:00</time></trkpt><trkpt lat="39.47705445" lon="-0.38623525"><ele>13.8</ele><time>2022-11-02T16:06:38.0000000+00:00</time></trkpt><trkpt lat="39.47706132" lon="-0.38623164"><ele>13.8</ele><time>2022-11-02T16:06:39.0000000+00:00</time></trkpt><trkpt lat="39.47706484" lon="-0.38622787"><ele>13.8</ele><time>2022-11-02T16:06:40.0000000+00:00</time></trkpt><trkpt lat="39.47707088" lon="-0.38622335"><ele>13.8</ele><time>2022-11-02T16:06:41.0000000+00:00</time></trkpt><trkpt lat="39.47705395" lon="-0.38621371"><ele>13.8</ele><time>2022-11-02T16:06:42.0000000+00:00</time></trkpt><trkpt lat="39.47705571" lon="-0.38621396"><ele>13.8</ele><time>2022-11-02T16:06:43.0000000+00:00</time></trkpt><trkpt lat="39.47710407" lon="-0.38620072"><ele>13.8</ele><time>2022-11-02T16:06:44.0000000+00:00</time></trkpt><trkpt lat="39.47711832" lon="-0.38619326"><ele>13.6</ele><time>2022-11-02T16:06:45.0000000+00:00</time></trkpt><trkpt lat="39.47712846" lon="-0.38618915"><ele>13.6</ele><time>2022-11-02T16:06:46.0000000+00:00</time></trkpt><trkpt lat="39.47712746" lon="-0.38619191"><ele>13.6</ele><time>2022-11-02T16:06:47.0000000+00:00</time></trkpt><trkpt lat="39.47713248" lon="-0.38619233"><ele>13.6</ele><time>2022-11-02T16:06:48.0000000+00:00</time></trkpt><trkpt lat="39.47714564" lon="-0.38618605"><ele>13.6</ele><time>2022-11-02T16:06:49.0000000+00:00</time></trkpt><trkpt lat="39.47714598" lon="-0.38618739"><ele>13.6</ele><time>2022-11-02T16:06:50.0000000+00:00</time></trkpt><trkpt lat="39.4771469" lon="-0.38619384"><ele>13.6</ele><time>2022-11-02T16:06:51.0000000+00:00</time></trkpt><trkpt lat="39.47714925" lon="-0.3862132"><ele>13.6</ele><time>2022-11-02T16:06:52.0000000+00:00</time></trkpt><trkpt lat="39.47716065" lon="-0.38622787"><ele>13.6</ele><time>2022-11-02T16:06:53.0000000+00:00</time></trkpt><trkpt lat="39.47717096" lon="-0.38624195"><ele>13.6</ele><time>2022-11-02T16:06:54.0000000+00:00</time></trkpt><trkpt lat="39.47717791" lon="-0.38621136"><ele>13.6</ele><time>2022-11-02T16:06:55.0000000+00:00</time></trkpt><trkpt lat="39.47717045" lon="-0.38620625"><ele>13.6</ele><time>2022-11-02T16:06:56.0000000+00:00</time></trkpt><trkpt lat="39.47712561" lon="-0.38621438"><ele>13.6</ele><time>2022-11-02T16:06:57.0000000+00:00</time></trkpt><trkpt lat="39.4770972" lon="-0.38622745"><ele>13.6</ele><time>2022-11-02T16:06:58.0000000+00:00</time></trkpt><trkpt lat="39.47707624" lon="-0.38622863"><ele>13.6</ele><time>2022-11-02T16:06:59.0000000+00:00</time></trkpt><trkpt lat="39.47708471" lon="-0.38623022"><ele>13.6</ele><time>2022-11-02T16:07:00.0000000+00:00</time></trkpt><trkpt lat="39.47707976" lon="-0.38621144"><ele>13.6</ele><time>2022-11-02T16:07:01.0000000+00:00</time></trkpt><trkpt lat="39.47706501" lon="-0.38621287"><ele>13.6</ele><time>2022-11-02T16:07:02.0000000+00:00</time></trkpt><trkpt lat="39.47706417" lon="-0.3861806"><ele>13.6</ele><time>2022-11-02T16:07:03.0000000+00:00</time></trkpt><trkpt lat="39.47707063" lon="-0.38617775"><ele>13.6</ele><time>2022-11-02T16:07:04.0000000+00:00</time></trkpt><trkpt lat="39.47708068" lon="-0.38618831"><ele>13.6</ele><time>2022-11-02T16:07:05.0000000+00:00</time></trkpt><trkpt lat="39.47708211" lon="-0.38617733"><ele>13.6</ele><time>2022-11-02T16:07:06.0000000+00:00</time></trkpt><trkpt lat="39.47709611" lon="-0.38616207"><ele>13.6</ele><time>2022-11-02T16:07:07.0000000+00:00</time></trkpt><trkpt lat="39.47710248" lon="-0.38615068"><ele>13.6</ele><time>2022-11-02T16:07:08.0000000+00:00</time></trkpt><trkpt lat="39.47711849" lon="-0.38612419"><ele>13.6</ele><time>2022-11-02T16:07:09.0000000+00:00</time></trkpt><trkpt lat="39.47712871" lon="-0.38610642"><ele>13.6</ele><time>2022-11-02T16:07:10.0000000+00:00</time></trkpt><trkpt lat="39.47717691" lon="-0.38608186"><ele>13.6</ele><time>2022-11-02T16:07:11.0000000+00:00</time></trkpt><trkpt lat="39.47715176" lon="-0.38608077"><ele>13.6</ele><time>2022-11-02T16:07:12.0000000+00:00</time></trkpt><trkpt lat="39.47715218" lon="-0.38607876"><ele>13.6</ele><time>2022-11-02T16:07:13.0000000+00:00</time></trkpt><trkpt lat="39.47714942" lon="-0.38608119"><ele>13.6</ele><time>2022-11-02T16:07:14.0000000+00:00</time></trkpt><trkpt lat="39.47714791" lon="-0.38608521"><ele>13.6</ele><time>2022-11-02T16:07:15.0000000+00:00</time></trkpt><trkpt lat="39.47713098" lon="-0.38609795"><ele>13.6</ele><time>2022-11-02T16:07:16.0000000+00:00</time></trkpt><trkpt lat="39.47712352" lon="-0.38610625"><ele>13.6</ele><time>2022-11-02T16:07:17.0000000+00:00</time></trkpt><trkpt lat="39.47712184" lon="-0.38610793"><ele>13.6</ele><time>2022-11-02T16:07:18.0000000+00:00</time></trkpt><trkpt lat="39.47711865" lon="-0.38611053"><ele>13.6</ele><time>2022-11-02T16:07:19.0000000+00:00</time></trkpt><trkpt lat="39.47711706" lon="-0.38611405"><ele>13.6</ele><time>2022-11-02T16:07:20.0000000+00:00</time></trkpt><trkpt lat="39.4771174" lon="-0.38611438"><ele>13.6</ele><time>2022-11-02T16:07:21.0000000+00:00</time></trkpt><trkpt lat="39.47713299" lon="-0.38611346"><ele>13.6</ele><time>2022-11-02T16:07:22.0000000+00:00</time></trkpt><trkpt lat="39.47715269" lon="-0.38610659"><ele>13.6</ele><time>2022-11-02T16:07:23.0000000+00:00</time></trkpt><trkpt lat="39.4771697" lon="-0.38610273"><ele>13.6</ele><time>2022-11-02T16:07:24.0000000+00:00</time></trkpt><trkpt lat="39.47718068" lon="-0.38609368"><ele>13.6</ele><time>2022-11-02T16:07:25.0000000+00:00</time></trkpt><trkpt lat="39.47716987" lon="-0.38612729"><ele>13.6</ele><time>2022-11-02T16:07:26.0000000+00:00</time></trkpt><trkpt lat="39.47716844" lon="-0.38614221"><ele>13.6</ele><time>2022-11-02T16:07:27.0000000+00:00</time></trkpt><trkpt lat="39.47722125" lon="-0.38613006"><ele>13.6</ele><time>2022-11-02T16:07:28.0000000+00:00</time></trkpt><trkpt lat="39.47725042" lon="-0.38611413"><ele>13.8</ele><time>2022-11-02T16:07:29.0000000+00:00</time></trkpt><trkpt lat="39.47723701" lon="-0.3861174"><ele>13.8</ele><time>2022-11-02T16:07:30.0000000+00:00</time></trkpt><trkpt lat="39.47723139" lon="-0.38613358"><ele>13.8</ele><time>2022-11-02T16:07:31.0000000+00:00</time></trkpt><trkpt lat="39.47723994" lon="-0.38612729"><ele>13.8</ele><time>2022-11-02T16:07:32.0000000+00:00</time></trkpt><trkpt lat="39.47731907" lon="-0.3860884"><ele>13.8</ele><time>2022-11-02T16:07:33.0000000+00:00</time></trkpt><trkpt lat="39.47733952" lon="-0.38607197"><ele>13.8</ele><time>2022-11-02T16:07:34.0000000+00:00</time></trkpt><trkpt lat="39.47728453" lon="-0.38610491"><ele>13.8</ele><time>2022-11-02T16:07:35.0000000+00:00</time></trkpt><trkpt lat="39.47721697" lon="-0.38613039"><ele>13.8</ele><time>2022-11-02T16:07:36.0000000+00:00</time></trkpt><trkpt lat="39.47716861" lon="-0.38614607"><ele>13.8</ele><time>2022-11-02T16:07:37.0000000+00:00</time></trkpt><trkpt lat="39.47714338" lon="-0.38614573"><ele>13.8</ele><time>2022-11-02T16:07:38.0000000+00:00</time></trkpt><trkpt lat="39.4771785" lon="-0.38613416"><ele>13.8</ele><time>2022-11-02T16:07:39.0000000+00:00</time></trkpt><trkpt lat="39.47721748" lon="-0.38612838"><ele>13.8</ele><time>2022-11-02T16:07:40.0000000+00:00</time></trkpt><trkpt lat="39.47723567" lon="-0.38611363"><ele>13.8</ele><time>2022-11-02T16:07:41.0000000+00:00</time></trkpt><trkpt lat="39.47724832" lon="-0.38610323"><ele>13.8</ele><time>2022-11-02T16:07:42.0000000+00:00</time></trkpt><trkpt lat="39.47723298" lon="-0.38610969"><ele>13.8</ele><time>2022-11-02T16:07:43.0000000+00:00</time></trkpt><trkpt lat="39.47722913" lon="-0.38609351"><ele>13.8</ele><time>2022-11-02T16:07:44.0000000+00:00</time></trkpt><trkpt lat="39.47723148" lon="-0.38608731"><ele>13.8</ele><time>2022-11-02T16:07:45.0000000+00:00</time></trkpt><trkpt lat="39.47724111" lon="-0.38608261"><ele>13.8</ele><time>2022-11-02T16:07:46.0000000+00:00</time></trkpt><trkpt lat="39.47726098" lon="-0.38605923"><ele>13.8</ele><time>2022-11-02T16:07:47.0000000+00:00</time></trkpt><trkpt lat="39.47728353" lon="-0.38605018"><ele>13.8</ele><time>2022-11-02T16:07:48.0000000+00:00</time></trkpt><trkpt lat="39.47729417" lon="-0.38605286"><ele>13.8</ele><time>2022-11-02T16:07:49.0000000+00:00</time></trkpt><trkpt lat="39.47725821" lon="-0.38607599"><ele>13.8</ele><time>2022-11-02T16:07:50.0000000+00:00</time></trkpt><trkpt lat="39.47725059" lon="-0.38607918"><ele>13.8</ele><time>2022-11-02T16:07:51.0000000+00:00</time></trkpt><trkpt lat="39.47724053" lon="-0.38608295"><ele>13.8</ele><time>2022-11-02T16:07:52.0000000+00:00</time></trkpt><trkpt lat="39.47723324" lon="-0.38608463"><ele>13.6</ele><time>2022-11-02T16:07:53.0000000+00:00</time></trkpt><trkpt lat="39.47721371" lon="-0.3861086"><ele>13.6</ele><time>2022-11-02T16:07:54.0000000+00:00</time></trkpt><trkpt lat="39.47716241" lon="-0.38615529"><ele>13.6</ele><time>2022-11-02T16:07:55.0000000+00:00</time></trkpt><trkpt lat="39.47709762" lon="-0.38620046"><ele>13.6</ele><time>2022-11-02T16:07:56.0000000+00:00</time></trkpt><trkpt lat="39.47706887" lon="-0.38622921"><ele>13.6</ele><time>2022-11-02T16:07:57.0000000+00:00</time></trkpt><trkpt lat="39.47703978" lon="-0.38625218"><ele>13.6</ele><time>2022-11-02T16:07:58.0000000+00:00</time></trkpt><trkpt lat="39.47704691" lon="-0.38623986"><ele>13.6</ele><time>2022-11-02T16:07:59.0000000+00:00</time></trkpt><trkpt lat="39.4770599" lon="-0.38622553"><ele>13.6</ele><time>2022-11-02T16:08:00.0000000+00:00</time></trkpt><trkpt lat="39.47707247" lon="-0.38622242"><ele>13.6</ele><time>2022-11-02T16:08:01.0000000+00:00</time></trkpt><trkpt lat="39.47708345" lon="-0.38622854"><ele>13.6</ele><time>2022-11-02T16:08:02.0000000+00:00</time></trkpt><trkpt lat="39.47708203" lon="-0.38623609"><ele>13.6</ele><time>2022-11-02T16:08:03.0000000+00:00</time></trkpt><trkpt lat="39.47708421" lon="-0.38623424"><ele>13.8</ele><time>2022-11-02T16:08:04.0000000+00:00</time></trkpt><trkpt lat="39.47709016" lon="-0.38623106"><ele>14.0</ele><time>2022-11-02T16:08:05.0000000+00:00</time></trkpt><trkpt lat="39.47711899" lon="-0.38621974"><ele>14.0</ele><time>2022-11-02T16:08:06.0000000+00:00</time></trkpt><trkpt lat="39.47713207" lon="-0.38620206"><ele>14.2</ele><time>2022-11-02T16:08:07.0000000+00:00</time></trkpt><trkpt lat="39.47714145" lon="-0.38619669"><ele>14.2</ele><time>2022-11-02T16:08:08.0000000+00:00</time></trkpt><trkpt lat="39.47717222" lon="-0.38617674"><ele>14.0</ele><time>2022-11-02T16:08:09.0000000+00:00</time></trkpt><trkpt lat="39.47719283" lon="-0.38615897"><ele>14.0</ele><time>2022-11-02T16:08:10.0000000+00:00</time></trkpt><trkpt lat="39.47720432" lon="-0.38615109"><ele>14.0</ele><time>2022-11-02T16:08:11.0000000+00:00</time></trkpt><trkpt lat="39.47722971" lon="-0.38614347"><ele>13.8</ele><time>2022-11-02T16:08:12.0000000+00:00</time></trkpt><trkpt lat="39.47722091" lon="-0.38614464"><ele>13.6</ele><time>2022-11-02T16:08:13.0000000+00:00</time></trkpt><trkpt lat="39.47718873" lon="-0.3861428"><ele>13.6</ele><time>2022-11-02T16:08:14.0000000+00:00</time></trkpt><trkpt lat="39.47718546" lon="-0.38618898"><ele>13.4</ele><time>2022-11-02T16:08:15.0000000+00:00</time></trkpt><trkpt lat="39.47718001" lon="-0.38620776"><ele>13.4</ele><time>2022-11-02T16:08:16.0000000+00:00</time></trkpt><trkpt lat="39.47717934" lon="-0.38625168"><ele>13.4</ele><time>2022-11-02T16:08:17.0000000+00:00</time></trkpt><trkpt lat="39.47717724" lon="-0.38624791"><ele>13.2</ele><time>2022-11-02T16:08:18.0000000+00:00</time></trkpt><trkpt lat="39.47717649" lon="-0.38625998"><ele>13.2</ele><time>2022-11-02T16:08:19.0000000+00:00</time></trkpt><trkpt lat="39.47717657" lon="-0.38627104"><ele>13.2</ele><time>2022-11-02T16:08:20.0000000+00:00</time></trkpt><trkpt lat="39.47716719" lon="-0.38628604"><ele>13.2</ele><time>2022-11-02T16:08:21.0000000+00:00</time></trkpt><trkpt lat="39.4771692" lon="-0.38629878"><ele>13.2</ele><time>2022-11-02T16:08:22.0000000+00:00</time></trkpt><trkpt lat="39.47717297" lon="-0.38630549"><ele>13.2</ele><time>2022-11-02T16:08:23.0000000+00:00</time></trkpt><trkpt lat="39.47718093" lon="-0.38630909"><ele>13.2</ele><time>2022-11-02T16:08:24.0000000+00:00</time></trkpt><trkpt lat="39.47718529" lon="-0.38631069"><ele>13.2</ele><time>2022-11-02T16:08:25.0000000+00:00</time></trkpt><trkpt lat="39.477149" lon="-0.38632804"><ele>13.2</ele><time>2022-11-02T16:08:26.0000000+00:00</time></trkpt><trkpt lat="39.47715771" lon="-0.38629828"><ele>13.2</ele><time>2022-11-02T16:08:27.0000000+00:00</time></trkpt><trkpt lat="39.47711346" lon="-0.38629543"><ele>13.2</ele><time>2022-11-02T16:08:28.0000000+00:00</time></trkpt><trkpt lat="39.47708136" lon="-0.38627992"><ele>13.2</ele><time>2022-11-02T16:08:29.0000000+00:00</time></trkpt><trkpt lat="39.47704867" lon="-0.3862728"><ele>13.2</ele><time>2022-11-02T16:08:30.0000000+00:00</time></trkpt><trkpt lat="39.4770428" lon="-0.38624908"><ele>13.2</ele><time>2022-11-02T16:08:31.0000000+00:00</time></trkpt><trkpt lat="39.47706191" lon="-0.38622511"><ele>13.2</ele><time>2022-11-02T16:08:32.0000000+00:00</time></trkpt><trkpt lat="39.47707423" lon="-0.38620482"><ele>13.2</ele><time>2022-11-02T16:08:33.0000000+00:00</time></trkpt><trkpt lat="39.47708471" lon="-0.38618689"><ele>13.2</ele><time>2022-11-02T16:08:34.0000000+00:00</time></trkpt><trkpt lat="39.47710273" lon="-0.38617012"><ele>13.4</ele><time>2022-11-02T16:08:35.0000000+00:00</time></trkpt><trkpt lat="39.47715503" lon="-0.38615386"><ele>13.4</ele><time>2022-11-02T16:08:36.0000000+00:00</time></trkpt><trkpt lat="39.47713316" lon="-0.38617054"><ele>13.4</ele><time>2022-11-02T16:08:37.0000000+00:00</time></trkpt><trkpt lat="39.47714422" lon="-0.38617574"><ele>13.4</ele><time>2022-11-02T16:08:38.0000000+00:00</time></trkpt><trkpt lat="39.4771583" lon="-0.38618278"><ele>13.4</ele><time>2022-11-02T16:08:39.0000000+00:00</time></trkpt><trkpt lat="39.47717054" lon="-0.38618689"><ele>13.6</ele><time>2022-11-02T16:08:40.0000000+00:00</time></trkpt><trkpt lat="39.47719577" lon="-0.38618529"><ele>13.6</ele><time>2022-11-02T16:08:41.0000000+00:00</time></trkpt><trkpt lat="39.47722971" lon="-0.38617448"><ele>13.6</ele><time>2022-11-02T16:08:42.0000000+00:00</time></trkpt><trkpt lat="39.47723717" lon="-0.3861671"><ele>13.8</ele><time>2022-11-02T16:08:43.0000000+00:00</time></trkpt><trkpt lat="39.4772386" lon="-0.38616811"><ele>13.8</ele><time>2022-11-02T16:08:44.0000000+00:00</time></trkpt><trkpt lat="39.47724187" lon="-0.38616392"><ele>14.0</ele><time>2022-11-02T16:08:45.0000000+00:00</time></trkpt><trkpt lat="39.47724639" lon="-0.38616476"><ele>14.0</ele><time>2022-11-02T16:08:46.0000000+00:00</time></trkpt><trkpt lat="39.47722879" lon="-0.3861723"><ele>14.0</ele><time>2022-11-02T16:08:47.0000000+00:00</time></trkpt><trkpt lat="39.47721999" lon="-0.38618303"><ele>14.2</ele><time>2022-11-02T16:08:48.0000000+00:00</time></trkpt><trkpt lat="39.47719946" lon="-0.38620382"><ele>14.4</ele><time>2022-11-02T16:08:49.0000000+00:00</time></trkpt><trkpt lat="39.47716517" lon="-0.38623433"><ele>14.6</ele><time>2022-11-02T16:08:50.0000000+00:00</time></trkpt><trkpt lat="39.47716149" lon="-0.38623382"><ele>14.6</ele><time>2022-11-02T16:08:51.0000000+00:00</time></trkpt><trkpt lat="39.47715109" lon="-0.38623785"><ele>14.8</ele><time>2022-11-02T16:08:52.0000000+00:00</time></trkpt><trkpt lat="39.4771386" lon="-0.38624413"><ele>14.8</ele><time>2022-11-02T16:08:53.0000000+00:00</time></trkpt><trkpt lat="39.47715453" lon="-0.38622804"><ele>14.8</ele><time>2022-11-02T16:08:54.0000000+00:00</time></trkpt><trkpt lat="39.47712075" lon="-0.38626383"><ele>15.0</ele><time>2022-11-02T16:08:55.0000000+00:00</time></trkpt><trkpt lat="39.47711698" lon="-0.38626928"><ele>15.0</ele><time>2022-11-02T16:08:56.0000000+00:00</time></trkpt><trkpt lat="39.47708932" lon="-0.38628621"><ele>15.0</ele><time>2022-11-02T16:08:57.0000000+00:00</time></trkpt><trkpt lat="39.47706384" lon="-0.3862992"><ele>15.0</ele><time>2022-11-02T16:08:58.0000000+00:00</time></trkpt><trkpt lat="39.47699351" lon="-0.38629996"><ele>15.0</ele><time>2022-11-02T16:08:59.0000000+00:00</time></trkpt><trkpt lat="39.47696049" lon="-0.38629962"><ele>15.0</ele><time>2022-11-02T16:09:00.0000000+00:00</time></trkpt><trkpt lat="39.47692788" lon="-0.38629761"><ele>15.0</ele><time>2022-11-02T16:09:01.0000000+00:00</time></trkpt><trkpt lat="39.47689729" lon="-0.38629451"><ele>15.0</ele><time>2022-11-02T16:09:02.0000000+00:00</time></trkpt><trkpt lat="39.4768703" lon="-0.38629049"><ele>15.0</ele><time>2022-11-02T16:09:03.0000000+00:00</time></trkpt><trkpt lat="39.47695739" lon="-0.38628831"><ele>15.0</ele><time>2022-11-02T16:09:04.0000000+00:00</time></trkpt><trkpt lat="39.47700759" lon="-0.386293"><ele>15.0</ele><time>2022-11-02T16:09:05.0000000+00:00</time></trkpt><trkpt lat="39.47703651" lon="-0.38630398"><ele>15.0</ele><time>2022-11-02T16:09:06.0000000+00:00</time></trkpt><trkpt lat="39.47703668" lon="-0.3863106"><ele>15.2</ele><time>2022-11-02T16:09:07.0000000+00:00</time></trkpt><trkpt lat="39.47705629" lon="-0.38631823"><ele>15.2</ele><time>2022-11-02T16:09:08.0000000+00:00</time></trkpt><trkpt lat="39.47707448" lon="-0.38632519"><ele>15.2</ele><time>2022-11-02T16:09:09.0000000+00:00</time></trkpt><trkpt lat="39.47709871" lon="-0.38633013"><ele>15.2</ele><time>2022-11-02T16:09:10.0000000+00:00</time></trkpt><trkpt lat="39.47712754" lon="-0.38632787"><ele>15.2</ele><time>2022-11-02T16:09:11.0000000+00:00</time></trkpt><trkpt lat="39.47714388" lon="-0.38631672"><ele>15.2</ele><time>2022-11-02T16:09:12.0000000+00:00</time></trkpt><trkpt lat="39.47716299" lon="-0.38631328"><ele>15.0</ele><time>2022-11-02T16:09:13.0000000+00:00</time></trkpt><trkpt lat="39.47718361" lon="-0.38631789"><ele>15.0</ele><time>2022-11-02T16:09:14.0000000+00:00</time></trkpt><trkpt lat="39.47720273" lon="-0.38632846"><ele>15.0</ele><time>2022-11-02T16:09:15.0000000+00:00</time></trkpt><trkpt lat="39.47723483" lon="-0.38633491"><ele>15.0</ele><time>2022-11-02T16:09:16.0000000+00:00</time></trkpt><trkpt lat="39.47723952" lon="-0.38633474"><ele>15.0</ele><time>2022-11-02T16:09:17.0000000+00:00</time></trkpt><trkpt lat="39.47725771" lon="-0.38633608"><ele>15.0</ele><time>2022-11-02T16:09:18.0000000+00:00</time></trkpt><trkpt lat="39.47727179" lon="-0.38632904"><ele>15.0</ele><time>2022-11-02T16:09:19.0000000+00:00</time></trkpt><trkpt lat="39.47728763" lon="-0.3863267"><ele>15.0</ele><time>2022-11-02T16:09:20.0000000+00:00</time></trkpt><trkpt lat="39.47729576" lon="-0.38633776"><ele>15.0</ele><time>2022-11-02T16:09:21.0000000+00:00</time></trkpt><trkpt lat="39.47730113" lon="-0.38633843"><ele>15.0</ele><time>2022-11-02T16:09:22.0000000+00:00</time></trkpt><trkpt lat="39.47730817" lon="-0.38635972"><ele>15.0</ele><time>2022-11-02T16:09:23.0000000+00:00</time></trkpt><trkpt lat="39.47732083" lon="-0.38637288"><ele>15.0</ele><time>2022-11-02T16:09:24.0000000+00:00</time></trkpt><trkpt lat="39.47733499" lon="-0.38637506"><ele>15.0</ele><time>2022-11-02T16:09:25.0000000+00:00</time></trkpt><trkpt lat="39.47734983" lon="-0.38637363"><ele>15.0</ele><time>2022-11-02T16:09:26.0000000+00:00</time></trkpt><trkpt lat="39.47736693" lon="-0.38636869"><ele>15.0</ele><time>2022-11-02T16:09:27.0000000+00:00</time></trkpt><trkpt lat="39.47736584" lon="-0.3864044"><ele>15.0</ele><time>2022-11-02T16:09:28.0000000+00:00</time></trkpt><trkpt lat="39.47737615" lon="-0.38641454"><ele>15.2</ele><time>2022-11-02T16:09:29.0000000+00:00</time></trkpt><trkpt lat="39.47738294" lon="-0.38642711"><ele>15.2</ele><time>2022-11-02T16:09:30.0000000+00:00</time></trkpt><trkpt lat="39.47738905" lon="-0.3864287"><ele>15.2</ele><time>2022-11-02T16:09:31.0000000+00:00</time></trkpt><trkpt lat="39.47739903" lon="-0.38641697"><ele>15.2</ele><time>2022-11-02T16:09:32.0000000+00:00</time></trkpt><trkpt lat="39.47740691" lon="-0.3864106"><ele>15.2</ele><time>2022-11-02T16:09:33.0000000+00:00</time></trkpt><trkpt lat="39.4774137" lon="-0.38640733"><ele>15.2</ele><time>2022-11-02T16:09:34.0000000+00:00</time></trkpt><trkpt lat="39.47741898" lon="-0.38640398"><ele>15.2</ele><time>2022-11-02T16:09:35.0000000+00:00</time></trkpt><trkpt lat="39.4774194" lon="-0.38639509"><ele>15.2</ele><time>2022-11-02T16:09:36.0000000+00:00</time></trkpt><trkpt lat="39.47745116" lon="-0.3863795"><ele>15.0</ele><time>2022-11-02T16:09:37.0000000+00:00</time></trkpt><trkpt lat="39.47745292" lon="-0.38638285"><ele>15.0</ele><time>2022-11-02T16:09:38.0000000+00:00</time></trkpt><trkpt lat="39.47747036" lon="-0.38637145"><ele>15.0</ele><time>2022-11-02T16:09:39.0000000+00:00</time></trkpt><trkpt lat="39.47748888" lon="-0.38635737"><ele>15.0</ele><time>2022-11-02T16:09:40.0000000+00:00</time></trkpt><trkpt lat="39.4775059" lon="-0.38634296"><ele>15.0</ele><time>2022-11-02T16:09:41.0000000+00:00</time></trkpt><trkpt lat="39.47751487" lon="-0.38632854"><ele>15.0</ele><time>2022-11-02T16:09:42.0000000+00:00</time></trkpt><trkpt lat="39.47746558" lon="-0.38633374"><ele>15.0</ele><time>2022-11-02T16:09:43.0000000+00:00</time></trkpt><trkpt lat="39.47745619" lon="-0.38633877"><ele>15.0</ele><time>2022-11-02T16:09:44.0000000+00:00</time></trkpt><trkpt lat="39.47744287" lon="-0.38634581"><ele>15.2</ele><time>2022-11-02T16:09:45.0000000+00:00</time></trkpt><trkpt lat="39.4774401" lon="-0.38634597"><ele>15.0</ele><time>2022-11-02T16:09:46.0000000+00:00</time></trkpt><trkpt lat="39.47743876" lon="-0.38635318"><ele>15.2</ele><time>2022-11-02T16:09:47.0000000+00:00</time></trkpt><trkpt lat="39.47743909" lon="-0.38635335"><ele>15.2</ele><time>2022-11-02T16:09:48.0000000+00:00</time></trkpt><trkpt lat="39.47743893" lon="-0.38635293"><ele>15.2</ele><time>2022-11-02T16:09:49.0000000+00:00</time></trkpt><trkpt lat="39.47743951" lon="-0.38635125"><ele>15.2</ele><time>2022-11-02T16:09:50.0000000+00:00</time></trkpt><trkpt lat="39.47744329" lon="-0.38636517"><ele>15.2</ele><time>2022-11-02T16:09:51.0000000+00:00</time></trkpt><trkpt lat="39.47743314" lon="-0.38638202"><ele>15.2</ele><time>2022-11-02T16:09:52.0000000+00:00</time></trkpt><trkpt lat="39.47743205" lon="-0.38638738"><ele>15.2</ele><time>2022-11-02T16:09:53.0000000+00:00</time></trkpt><trkpt lat="39.47743474" lon="-0.38638881"><ele>15.2</ele><time>2022-11-02T16:09:54.0000000+00:00</time></trkpt><trkpt lat="39.47743759" lon="-0.38639124"><ele>15.2</ele><time>2022-11-02T16:09:55.0000000+00:00</time></trkpt><trkpt lat="39.4774375" lon="-0.38639492"><ele>15.2</ele><time>2022-11-02T16:09:56.0000000+00:00</time></trkpt><trkpt lat="39.47744262" lon="-0.38640507"><ele>15.2</ele><time>2022-11-02T16:09:57.0000000+00:00</time></trkpt><trkpt lat="39.47744865" lon="-0.38642761"><ele>15.2</ele><time>2022-11-02T16:09:58.0000000+00:00</time></trkpt><trkpt lat="39.47745888" lon="-0.38643675"><ele>15.2</ele><time>2022-11-02T16:09:59.0000000+00:00</time></trkpt><trkpt lat="39.477466" lon="-0.38644463"><ele>15.2</ele><time>2022-11-02T16:10:00.0000000+00:00</time></trkpt><trkpt lat="39.47746927" lon="-0.38644128"><ele>15.2</ele><time>2022-11-02T16:10:01.0000000+00:00</time></trkpt><trkpt lat="39.47746784" lon="-0.38642988"><ele>15.2</ele><time>2022-11-02T16:10:02.0000000+00:00</time></trkpt><trkpt lat="39.47746667" lon="-0.38641328"><ele>15.2</ele><time>2022-11-02T16:10:03.0000000+00:00</time></trkpt><trkpt lat="39.47746801" lon="-0.38640783"><ele>15.2</ele><time>2022-11-02T16:10:04.0000000+00:00</time></trkpt><trkpt lat="39.4774779" lon="-0.38641068"><ele>15.2</ele><time>2022-11-02T16:10:05.0000000+00:00</time></trkpt><trkpt lat="39.47748947" lon="-0.38641772"><ele>15.0</ele><time>2022-11-02T16:10:06.0000000+00:00</time></trkpt><trkpt lat="39.47749416" lon="-0.38641697"><ele>15.0</ele><time>2022-11-02T16:10:07.0000000+00:00</time></trkpt><trkpt lat="39.47749576" lon="-0.38641839"><ele>15.0</ele><time>2022-11-02T16:10:08.0000000+00:00</time></trkpt><trkpt lat="39.47749659" lon="-0.38642041"><ele>15.0</ele><time>2022-11-02T16:10:09.0000000+00:00</time></trkpt><trkpt lat="39.47749844" lon="-0.38642149"><ele>15.0</ele><time>2022-11-02T16:10:10.0000000+00:00</time></trkpt><trkpt lat="39.47749961" lon="-0.38642242"><ele>15.2</ele><time>2022-11-02T16:10:11.0000000+00:00</time></trkpt><trkpt lat="39.47749919" lon="-0.38642284"><ele>15.2</ele><time>2022-11-02T16:10:12.0000000+00:00</time></trkpt><trkpt lat="39.4774981" lon="-0.38642426"><ele>15.2</ele><time>2022-11-02T16:10:13.0000000+00:00</time></trkpt><trkpt lat="39.47749567" lon="-0.38643021"><ele>15.2</ele><time>2022-11-02T16:10:14.0000000+00:00</time></trkpt><trkpt lat="39.47749358" lon="-0.38644312"><ele>15.2</ele><time>2022-11-02T16:10:15.0000000+00:00</time></trkpt><trkpt lat="39.47748997" lon="-0.38644739"><ele>15.2</ele><time>2022-11-02T16:10:16.0000000+00:00</time></trkpt><trkpt lat="39.47749299" lon="-0.38644999"><ele>15.2</ele><time>2022-11-02T16:10:17.0000000+00:00</time></trkpt><trkpt lat="39.4774919" lon="-0.38645226"><ele>15.2</ele><time>2022-11-02T16:10:18.0000000+00:00</time></trkpt><trkpt lat="39.47749106" lon="-0.38645519"><ele>15.4</ele><time>2022-11-02T16:10:19.0000000+00:00</time></trkpt><trkpt lat="39.47749307" lon="-0.38645553"><ele>15.4</ele><time>2022-11-02T16:10:20.0000000+00:00</time></trkpt><trkpt lat="39.47749182" lon="-0.38646257"><ele>15.4</ele><time>2022-11-02T16:10:21.0000000+00:00</time></trkpt><trkpt lat="39.47750179" lon="-0.3864748"><ele>15.4</ele><time>2022-11-02T16:10:22.0000000+00:00</time></trkpt><trkpt lat="39.47751219" lon="-0.38648461"><ele>15.4</ele><time>2022-11-02T16:10:23.0000000+00:00</time></trkpt><trkpt lat="39.47752032" lon="-0.38649526"><ele>15.2</ele><time>2022-11-02T16:10:24.0000000+00:00</time></trkpt><trkpt lat="39.47752945" lon="-0.38649752"><ele>15.2</ele><time>2022-11-02T16:10:25.0000000+00:00</time></trkpt><trkpt lat="39.47753767" lon="-0.38650389"><ele>15.2</ele><time>2022-11-02T16:10:26.0000000+00:00</time></trkpt><trkpt lat="39.47754018" lon="-0.38650565"><ele>15.2</ele><time>2022-11-02T16:10:27.0000000+00:00</time></trkpt><trkpt lat="39.4775458" lon="-0.38651101"><ele>15.2</ele><time>2022-11-02T16:10:28.0000000+00:00</time></trkpt><trkpt lat="39.47755342" lon="-0.38651261"><ele>15.2</ele><time>2022-11-02T16:10:29.0000000+00:00</time></trkpt><trkpt lat="39.47756524" lon="-0.38651403"><ele>15.2</ele><time>2022-11-02T16:10:30.0000000+00:00</time></trkpt><trkpt lat="39.47756952" lon="-0.38651696"><ele>15.2</ele><time>2022-11-02T16:10:31.0000000+00:00</time></trkpt><trkpt lat="39.47757019" lon="-0.38651797"><ele>15.2</ele><time>2022-11-02T16:10:32.0000000+00:00</time></trkpt><trkpt lat="39.47757756" lon="-0.38652367"><ele>15.2</ele><time>2022-11-02T16:10:33.0000000+00:00</time></trkpt><trkpt lat="39.47758159" lon="-0.38652694"><ele>15.2</ele><time>2022-11-02T16:10:34.0000000+00:00</time></trkpt><trkpt lat="39.47758695" lon="-0.38652015"><ele>15.2</ele><time>2022-11-02T16:10:35.0000000+00:00</time></trkpt><trkpt lat="39.47758972" lon="-0.38651747"><ele>15.2</ele><time>2022-11-02T16:10:36.0000000+00:00</time></trkpt><trkpt lat="39.47759525" lon="-0.38650892"><ele>15.2</ele><time>2022-11-02T16:10:37.0000000+00:00</time></trkpt><trkpt lat="39.47759458" lon="-0.3865064"><ele>15.0</ele><time>2022-11-02T16:10:38.0000000+00:00</time></trkpt><trkpt lat="39.47759525" lon="-0.38650246"><ele>15.0</ele><time>2022-11-02T16:10:39.0000000+00:00</time></trkpt><trkpt lat="39.47760263" lon="-0.38648796"><ele>15.0</ele><time>2022-11-02T16:10:40.0000000+00:00</time></trkpt><trkpt lat="39.47760707" lon="-0.38647665"><ele>15.0</ele><time>2022-11-02T16:10:41.0000000+00:00</time></trkpt><trkpt lat="39.47761662" lon="-0.38646701"><ele>15.0</ele><time>2022-11-02T16:10:42.0000000+00:00</time></trkpt><trkpt lat="39.47761771" lon="-0.38646332"><ele>15.0</ele><time>2022-11-02T16:10:43.0000000+00:00</time></trkpt><trkpt lat="39.47761822" lon="-0.38646332"><ele>15.0</ele><time>2022-11-02T16:10:44.0000000+00:00</time></trkpt><trkpt lat="39.4776188" lon="-0.38646257"><ele>15.0</ele><time>2022-11-02T16:10:45.0000000+00:00</time></trkpt><trkpt lat="39.47761922" lon="-0.38646164"><ele>15.0</ele><time>2022-11-02T16:10:46.0000000+00:00</time></trkpt><trkpt lat="39.47761914" lon="-0.38646047"><ele>15.0</ele><time>2022-11-02T16:10:47.0000000+00:00</time></trkpt><trkpt lat="39.47761897" lon="-0.38645988"><ele>15.0</ele><time>2022-11-02T16:10:48.0000000+00:00</time></trkpt><trkpt lat="39.47762014" lon="-0.38645972"><ele>15.0</ele><time>2022-11-02T16:10:49.0000000+00:00</time></trkpt><trkpt lat="39.47762702" lon="-0.38645687"><ele>15.0</ele><time>2022-11-02T16:10:50.0000000+00:00</time></trkpt><trkpt lat="39.47762894" lon="-0.38645402"><ele>15.0</ele><time>2022-11-02T16:10:51.0000000+00:00</time></trkpt><trkpt lat="39.47763045" lon="-0.38645209"><ele>15.0</ele><time>2022-11-02T16:10:52.0000000+00:00</time></trkpt><trkpt lat="39.47763272" lon="-0.38644656"><ele>15.0</ele><time>2022-11-02T16:10:53.0000000+00:00</time></trkpt><trkpt lat="39.47763557" lon="-0.3864391"><ele>15.0</ele><time>2022-11-02T16:10:54.0000000+00:00</time></trkpt><trkpt lat="39.47764202" lon="-0.38643264"><ele>15.0</ele><time>2022-11-02T16:10:55.0000000+00:00</time></trkpt><trkpt lat="39.47764328" lon="-0.38643055"><ele>15.0</ele><time>2022-11-02T16:10:56.0000000+00:00</time></trkpt><trkpt lat="39.47764613" lon="-0.38642736"><ele>15.2</ele><time>2022-11-02T16:10:57.0000000+00:00</time></trkpt><trkpt lat="39.47765233" lon="-0.38642527"><ele>15.2</ele><time>2022-11-02T16:10:58.0000000+00:00</time></trkpt><trkpt lat="39.4776613" lon="-0.38642401"><ele>15.2</ele><time>2022-11-02T16:10:59.0000000+00:00</time></trkpt><trkpt lat="39.47767069" lon="-0.38641797"><ele>15.2</ele><time>2022-11-02T16:11:00.0000000+00:00</time></trkpt><trkpt lat="39.47767882" lon="-0.38640674"><ele>15.2</ele><time>2022-11-02T16:11:01.0000000+00:00</time></trkpt><trkpt lat="39.47768192" lon="-0.3864018"><ele>15.2</ele><time>2022-11-02T16:11:02.0000000+00:00</time></trkpt><trkpt lat="39.47768192" lon="-0.38639995"><ele>15.2</ele><time>2022-11-02T16:11:03.0000000+00:00</time></trkpt><trkpt lat="39.47768066" lon="-0.38639769"><ele>15.2</ele><time>2022-11-02T16:11:04.0000000+00:00</time></trkpt><trkpt lat="39.47768611" lon="-0.38639375"><ele>15.0</ele><time>2022-11-02T16:11:05.0000000+00:00</time></trkpt><trkpt lat="39.47769374" lon="-0.38639526"><ele>14.8</ele><time>2022-11-02T16:11:06.0000000+00:00</time></trkpt><trkpt lat="39.4776965" lon="-0.38639794"><ele>14.8</ele><time>2022-11-02T16:11:07.0000000+00:00</time></trkpt><trkpt lat="39.47770673" lon="-0.38641261"><ele>14.6</ele><time>2022-11-02T16:11:08.0000000+00:00</time></trkpt><trkpt lat="39.47770857" lon="-0.38641563"><ele>14.6</ele><time>2022-11-02T16:11:09.0000000+00:00</time></trkpt><trkpt lat="39.47770924" lon="-0.38641588"><ele>14.8</ele><time>2022-11-02T16:11:10.0000000+00:00</time></trkpt><trkpt lat="39.47770539" lon="-0.38641747"><ele>14.8</ele><time>2022-11-02T16:11:11.0000000+00:00</time></trkpt><trkpt lat="39.47770522" lon="-0.38641512"><ele>14.8</ele><time>2022-11-02T16:11:12.0000000+00:00</time></trkpt><trkpt lat="39.47771419" lon="-0.38641303"><ele>14.8</ele><time>2022-11-02T16:11:13.0000000+00:00</time></trkpt><trkpt lat="39.47771779" lon="-0.38641169"><ele>15.0</ele><time>2022-11-02T16:11:14.0000000+00:00</time></trkpt><trkpt lat="39.4777183" lon="-0.38641035"><ele>15.0</ele><time>2022-11-02T16:11:15.0000000+00:00</time></trkpt><trkpt lat="39.47771855" lon="-0.38640968"><ele>15.0</ele><time>2022-11-02T16:11:16.0000000+00:00</time></trkpt><trkpt lat="39.47771855" lon="-0.38640968"><ele>15.4</ele><time>2022-11-02T16:11:17.0000000+00:00</time></trkpt><trkpt lat="39.47771855" lon="-0.38640968"><ele>15.4</ele><time>2022-11-02T16:11:18.0000000+00:00</time></trkpt><trkpt lat="39.47771855" lon="-0.38640968"><ele>15.4</ele><time>2022-11-02T16:11:19.0000000+00:00</time></trkpt><trkpt lat="39.47771855" lon="-0.38640968"><ele>15.4</ele><time>2022-11-02T16:11:20.0000000+00:00</time></trkpt><trkpt lat="39.47771855" lon="-0.38640968"><ele>15.4</ele><time>2022-11-02T16:11:21.0000000+00:00</time></trkpt><trkpt lat="39.47771855" lon="-0.38640968"><ele>15.4</ele><time>2022-11-02T16:11:22.0000000+00:00</time></trkpt><trkpt lat="39.47771855" lon="-0.38640968"><ele>15.4</ele><time>2022-11-02T16:11:23.0000000+00:00</time></trkpt><trkpt lat="39.4777183" lon="-0.38640968"><ele>15.4</ele><time>2022-11-02T16:11:24.0000000+00:00</time></trkpt><trkpt lat="39.47771779" lon="-0.38640968"><ele>15.4</ele><time>2022-11-02T16:11:25.0000000+00:00</time></trkpt><trkpt lat="39.47771695" lon="-0.38640968"><ele>15.4</ele><time>2022-11-02T16:11:26.0000000+00:00</time></trkpt><trkpt lat="39.47771679" lon="-0.38640968"><ele>15.4</ele><time>2022-11-02T16:11:27.0000000+00:00</time></trkpt><trkpt lat="39.47771654" lon="-0.38640968"><ele>15.4</ele><time>2022-11-02T16:11:28.0000000+00:00</time></trkpt><trkpt lat="39.47771612" lon="-0.38640968"><ele>15.4</ele><time>2022-11-02T16:11:29.0000000+00:00</time></trkpt><trkpt lat="39.47771553" lon="-0.38640968"><ele>15.4</ele><time>2022-11-02T16:11:30.0000000+00:00</time></trkpt><trkpt lat="39.47771486" lon="-0.38640968"><ele>15.4</ele><time>2022-11-02T16:11:31.0000000+00:00</time></trkpt><trkpt lat="39.47771461" lon="-0.38640968"><ele>15.4</ele><time>2022-11-02T16:11:32.0000000+00:00</time></trkpt><trkpt lat="39.47771427" lon="-0.38640968"><ele>15.4</ele><time>2022-11-02T16:11:33.0000000+00:00</time></trkpt><trkpt lat="39.47771419" lon="-0.38641035"><ele>15.4</ele><time>2022-11-02T16:11:34.0000000+00:00</time></trkpt><trkpt lat="39.47771419" lon="-0.38641085"><ele>15.4</ele><time>2022-11-02T16:11:35.0000000+00:00</time></trkpt><trkpt lat="39.47771419" lon="-0.3864116"><ele>15.4</ele><time>2022-11-02T16:11:36.0000000+00:00</time></trkpt><trkpt lat="39.47771419" lon="-0.38641244"><ele>15.4</ele><time>2022-11-02T16:11:37.0000000+00:00</time></trkpt><trkpt lat="39.47771427" lon="-0.38641253"><ele>15.4</ele><time>2022-11-02T16:11:38.0000000+00:00</time></trkpt><trkpt lat="39.47771452" lon="-0.38641253"><ele>15.4</ele><time>2022-11-02T16:11:39.0000000+00:00</time></trkpt><trkpt lat="39.47771486" lon="-0.38641253"><ele>15.4</ele><time>2022-11-02T16:11:40.0000000+00:00</time></trkpt><trkpt lat="39.47771536" lon="-0.38641253"><ele>15.4</ele><time>2022-11-02T16:11:41.0000000+00:00</time></trkpt><trkpt lat="39.47771545" lon="-0.38641253"><ele>15.4</ele><time>2022-11-02T16:11:42.0000000+00:00</time></trkpt><trkpt lat="39.47771595" lon="-0.38641253"><ele>15.4</ele><time>2022-11-02T16:11:43.0000000+00:00</time></trkpt><trkpt lat="39.47771603" lon="-0.38641261"><ele>15.4</ele><time>2022-11-02T16:11:44.0000000+00:00</time></trkpt><trkpt lat="39.47771603" lon="-0.3864132"><ele>15.4</ele><time>2022-11-02T16:11:45.0000000+00:00</time></trkpt><trkpt lat="39.47771603" lon="-0.38641328"><ele>15.4</ele><time>2022-11-02T16:11:46.0000000+00:00</time></trkpt><trkpt lat="39.47771603" lon="-0.38641336"><ele>15.4</ele><time>2022-11-02T16:11:47.0000000+00:00</time></trkpt><trkpt lat="39.47771612" lon="-0.38641336"><ele>15.4</ele><time>2022-11-02T16:11:48.0000000+00:00</time></trkpt><trkpt lat="39.47771645" lon="-0.38641336"><ele>15.4</ele><time>2022-11-02T16:11:49.0000000+00:00</time></trkpt><trkpt lat="39.4777167" lon="-0.38641336"><ele>15.4</ele><time>2022-11-02T16:11:50.0000000+00:00</time></trkpt><trkpt lat="39.47771863" lon="-0.38641336"><ele>15.4</ele><time>2022-11-02T16:11:51.0000000+00:00</time></trkpt><trkpt lat="39.47771913" lon="-0.38641336"><ele>15.4</ele><time>2022-11-02T16:11:52.0000000+00:00</time></trkpt><trkpt lat="39.47772064" lon="-0.38641328"><ele>15.4</ele><time>2022-11-02T16:11:53.0000000+00:00</time></trkpt><trkpt lat="39.47772148" lon="-0.38641278"><ele>15.4</ele><time>2022-11-02T16:11:54.0000000+00:00</time></trkpt><trkpt lat="39.47772173" lon="-0.3864132"><ele>15.4</ele><time>2022-11-02T16:11:55.0000000+00:00</time></trkpt><trkpt lat="39.47772198" lon="-0.38641387"><ele>15.4</ele><time>2022-11-02T16:11:56.0000000+00:00</time></trkpt><trkpt lat="39.47772215" lon="-0.38641487"><ele>15.4</ele><time>2022-11-02T16:11:57.0000000+00:00</time></trkpt><trkpt lat="39.47772333" lon="-0.38641605"><ele>15.4</ele><time>2022-11-02T16:11:58.0000000+00:00</time></trkpt><trkpt lat="39.47772852" lon="-0.38641739"><ele>15.4</ele><time>2022-11-02T16:11:59.0000000+00:00</time></trkpt><trkpt lat="39.47773464" lon="-0.38642007"><ele>15.4</ele><time>2022-11-02T16:12:00.0000000+00:00</time></trkpt><trkpt lat="39.47774068" lon="-0.38642091"><ele>15.4</ele><time>2022-11-02T16:12:01.0000000+00:00</time></trkpt><trkpt lat="39.47774646" lon="-0.38642116"><ele>15.4</ele><time>2022-11-02T16:12:02.0000000+00:00</time></trkpt><trkpt lat="39.4777514" lon="-0.38642191"><ele>15.4</ele><time>2022-11-02T16:12:03.0000000+00:00</time></trkpt><trkpt lat="39.47775367" lon="-0.38642208"><ele>15.4</ele><time>2022-11-02T16:12:04.0000000+00:00</time></trkpt><trkpt lat="39.47775853" lon="-0.38642208"><ele>15.4</ele><time>2022-11-02T16:12:05.0000000+00:00</time></trkpt><trkpt lat="39.47776079" lon="-0.38642334"><ele>15.4</ele><time>2022-11-02T16:12:06.0000000+00:00</time></trkpt><trkpt lat="39.47776163" lon="-0.38642502"><ele>15.4</ele><time>2022-11-02T16:12:07.0000000+00:00</time></trkpt><trkpt lat="39.47776197" lon="-0.38642686"><ele>15.4</ele><time>2022-11-02T16:12:08.0000000+00:00</time></trkpt><trkpt lat="39.47776264" lon="-0.38642812"><ele>15.4</ele><time>2022-11-02T16:12:09.0000000+00:00</time></trkpt><trkpt lat="39.47776406" lon="-0.38642879"><ele>15.4</ele><time>2022-11-02T16:12:10.0000000+00:00</time></trkpt><trkpt lat="39.47776549" lon="-0.38643013"><ele>15.4</ele><time>2022-11-02T16:12:11.0000000+00:00</time></trkpt><trkpt lat="39.47776666" lon="-0.38643968"><ele>15.4</ele><time>2022-11-02T16:12:12.0000000+00:00</time></trkpt><trkpt lat="39.47776716" lon="-0.38644622"><ele>15.4</ele><time>2022-11-02T16:12:13.0000000+00:00</time></trkpt><trkpt lat="39.47776825" lon="-0.38644882"><ele>15.4</ele><time>2022-11-02T16:12:14.0000000+00:00</time></trkpt><trkpt lat="39.47777714" lon="-0.38644957"><ele>15.4</ele><time>2022-11-02T16:12:15.0000000+00:00</time></trkpt><trkpt lat="39.47778007" lon="-0.38644974"><ele>15.4</ele><time>2022-11-02T16:12:16.0000000+00:00</time></trkpt><trkpt lat="39.47778552" lon="-0.38644731"><ele>15.4</ele><time>2022-11-02T16:12:17.0000000+00:00</time></trkpt><trkpt lat="39.47780999" lon="-0.38643348"><ele>15.4</ele><time>2022-11-02T16:12:18.0000000+00:00</time></trkpt><trkpt lat="39.47783011" lon="-0.386423"><ele>15.4</ele><time>2022-11-02T16:12:19.0000000+00:00</time></trkpt><trkpt lat="39.47783858" lon="-0.38641705"><ele>15.4</ele><time>2022-11-02T16:12:20.0000000+00:00</time></trkpt><trkpt lat="39.47784185" lon="-0.38640515"><ele>15.4</ele><time>2022-11-02T16:12:21.0000000+00:00</time></trkpt><trkpt lat="39.47783707" lon="-0.38639777"><ele>15.4</ele><time>2022-11-02T16:12:22.0000000+00:00</time></trkpt><trkpt lat="39.4778219" lon="-0.38639476"><ele>15.4</ele><time>2022-11-02T16:12:23.0000000+00:00</time></trkpt><trkpt lat="39.47781058" lon="-0.3863857"><ele>15.4</ele><time>2022-11-02T16:12:24.0000000+00:00</time></trkpt><trkpt lat="39.47780706" lon="-0.38637464"><ele>15.4</ele><time>2022-11-02T16:12:25.0000000+00:00</time></trkpt><trkpt lat="39.47780371" lon="-0.38636559"><ele>15.4</ele><time>2022-11-02T16:12:26.0000000+00:00</time></trkpt><trkpt lat="39.47779122" lon="-0.38636156"><ele>15.4</ele><time>2022-11-02T16:12:27.0000000+00:00</time></trkpt><trkpt lat="39.47778468" lon="-0.38635687"><ele>15.0</ele><time>2022-11-02T16:12:28.0000000+00:00</time></trkpt><trkpt lat="39.47778812" lon="-0.38634388"><ele>14.8</ele><time>2022-11-02T16:12:29.0000000+00:00</time></trkpt><trkpt lat="39.47778694" lon="-0.38633063"><ele>14.8</ele><time>2022-11-02T16:12:30.0000000+00:00</time></trkpt><trkpt lat="39.47778233" lon="-0.38632385"><ele>14.6</ele><time>2022-11-02T16:12:31.0000000+00:00</time></trkpt><trkpt lat="39.47777286" lon="-0.38632259"><ele>14.6</ele><time>2022-11-02T16:12:32.0000000+00:00</time></trkpt><trkpt lat="39.47776825" lon="-0.38632351"><ele>14.6</ele><time>2022-11-02T16:12:33.0000000+00:00</time></trkpt><trkpt lat="39.47776146" lon="-0.38632628"><ele>14.6</ele><time>2022-11-02T16:12:34.0000000+00:00</time></trkpt><trkpt lat="39.47775677" lon="-0.38632904"><ele>14.6</ele><time>2022-11-02T16:12:35.0000000+00:00</time></trkpt><trkpt lat="39.47775191" lon="-0.38633265"><ele>14.8</ele><time>2022-11-02T16:12:36.0000000+00:00</time></trkpt><trkpt lat="39.47774294" lon="-0.38633994"><ele>14.8</ele><time>2022-11-02T16:12:37.0000000+00:00</time></trkpt><trkpt lat="39.47773648" lon="-0.38634597"><ele>14.8</ele><time>2022-11-02T16:12:38.0000000+00:00</time></trkpt><trkpt lat="39.47772936" lon="-0.38634614"><ele>14.8</ele><time>2022-11-02T16:12:39.0000000+00:00</time></trkpt><trkpt lat="39.47772324" lon="-0.38634396"><ele>14.8</ele><time>2022-11-02T16:12:40.0000000+00:00</time></trkpt><trkpt lat="39.47771704" lon="-0.38633885"><ele>14.8</ele><time>2022-11-02T16:12:41.0000000+00:00</time></trkpt><trkpt lat="39.47770975" lon="-0.3863324"><ele>14.8</ele><time>2022-11-02T16:12:42.0000000+00:00</time></trkpt><trkpt lat="39.47770648" lon="-0.38632921"><ele>14.8</ele><time>2022-11-02T16:12:43.0000000+00:00</time></trkpt><trkpt lat="39.47768712" lon="-0.38633013"><ele>14.8</ele><time>2022-11-02T16:12:44.0000000+00:00</time></trkpt><trkpt lat="39.47766197" lon="-0.38634011"><ele>14.8</ele><time>2022-11-02T16:12:45.0000000+00:00</time></trkpt><trkpt lat="39.47765258" lon="-0.38634539"><ele>14.8</ele><time>2022-11-02T16:12:46.0000000+00:00</time></trkpt><trkpt lat="39.47766138" lon="-0.38633508"><ele>14.8</ele><time>2022-11-02T16:12:47.0000000+00:00</time></trkpt><trkpt lat="39.47766281" lon="-0.38633147"><ele>15.0</ele><time>2022-11-02T16:12:48.0000000+00:00</time></trkpt><trkpt lat="39.47768938" lon="-0.38631513"><ele>15.0</ele><time>2022-11-02T16:12:49.0000000+00:00</time></trkpt><trkpt lat="39.47769189" lon="-0.3863132"><ele>15.0</ele><time>2022-11-02T16:12:50.0000000+00:00</time></trkpt><trkpt lat="39.47769919" lon="-0.38631748"><ele>15.0</ele><time>2022-11-02T16:12:51.0000000+00:00</time></trkpt><trkpt lat="39.47769634" lon="-0.38631446"><ele>15.0</ele><time>2022-11-02T16:12:52.0000000+00:00</time></trkpt><trkpt lat="39.47768678" lon="-0.38630691"><ele>15.0</ele><time>2022-11-02T16:12:53.0000000+00:00</time></trkpt><trkpt lat="39.47768192" lon="-0.386293"><ele>15.2</ele><time>2022-11-02T16:12:54.0000000+00:00</time></trkpt><trkpt lat="39.47767848" lon="-0.38629032"><ele>15.2</ele><time>2022-11-02T16:12:55.0000000+00:00</time></trkpt><trkpt lat="39.47767764" lon="-0.38627188"><ele>15.2</ele><time>2022-11-02T16:12:56.0000000+00:00</time></trkpt><trkpt lat="39.47766583" lon="-0.38626752"><ele>15.2</ele><time>2022-11-02T16:12:57.0000000+00:00</time></trkpt><trkpt lat="39.47766054" lon="-0.38626735"><ele>15.2</ele><time>2022-11-02T16:12:58.0000000+00:00</time></trkpt><trkpt lat="39.47766415" lon="-0.38625872"><ele>15.2</ele><time>2022-11-02T16:12:59.0000000+00:00</time></trkpt><trkpt lat="39.47766541" lon="-0.38625344"><ele>15.2</ele><time>2022-11-02T16:13:00.0000000+00:00</time></trkpt><trkpt lat="39.47767329" lon="-0.38624598"><ele>15.2</ele><time>2022-11-02T16:13:01.0000000+00:00</time></trkpt><trkpt lat="39.47767144" lon="-0.38624304"><ele>15.2</ele><time>2022-11-02T16:13:02.0000000+00:00</time></trkpt><trkpt lat="39.47766717" lon="-0.38623894"><ele>15.2</ele><time>2022-11-02T16:13:03.0000000+00:00</time></trkpt><trkpt lat="39.47766624" lon="-0.38623542"><ele>15.2</ele><time>2022-11-02T16:13:04.0000000+00:00</time></trkpt><trkpt lat="39.47768485" lon="-0.38622779"><ele>15.4</ele><time>2022-11-02T16:13:05.0000000+00:00</time></trkpt><trkpt lat="39.47769407" lon="-0.38622871"><ele>15.6</ele><time>2022-11-02T16:13:06.0000000+00:00</time></trkpt><trkpt lat="39.47770673" lon="-0.38623156"><ele>15.6</ele><time>2022-11-02T16:13:07.0000000+00:00</time></trkpt><trkpt lat="39.47772022" lon="-0.38623592"><ele>15.6</ele><time>2022-11-02T16:13:08.0000000+00:00</time></trkpt><trkpt lat="39.47772542" lon="-0.38624807"><ele>15.6</ele><time>2022-11-02T16:13:09.0000000+00:00</time></trkpt><trkpt lat="39.47772936" lon="-0.38625419"><ele>15.6</ele><time>2022-11-02T16:13:10.0000000+00:00</time></trkpt><trkpt lat="39.4777276" lon="-0.38625285"><ele>15.4</ele><time>2022-11-02T16:13:11.0000000+00:00</time></trkpt><trkpt lat="39.47772995" lon="-0.38624757"><ele>15.4</ele><time>2022-11-02T16:13:12.0000000+00:00</time></trkpt><trkpt lat="39.47772224" lon="-0.38625637"><ele>15.4</ele><time>2022-11-02T16:13:13.0000000+00:00</time></trkpt><trkpt lat="39.47773498" lon="-0.38625369"><ele>15.4</ele><time>2022-11-02T16:13:14.0000000+00:00</time></trkpt><trkpt lat="39.47775845" lon="-0.38624179"><ele>15.2</ele><time>2022-11-02T16:13:15.0000000+00:00</time></trkpt><trkpt lat="39.47778367" lon="-0.38623584"><ele>15.2</ele><time>2022-11-02T16:13:16.0000000+00:00</time></trkpt><trkpt lat="39.47780572" lon="-0.38624179"><ele>15.2</ele><time>2022-11-02T16:13:17.0000000+00:00</time></trkpt><trkpt lat="39.47780396" lon="-0.38624447"><ele>15.2</ele><time>2022-11-02T16:13:18.0000000+00:00</time></trkpt><trkpt lat="39.47780203" lon="-0.38624363"><ele>15.2</ele><time>2022-11-02T16:13:19.0000000+00:00</time></trkpt><trkpt lat="39.47780086" lon="-0.38623986"><ele>15.2</ele><time>2022-11-02T16:13:20.0000000+00:00</time></trkpt><trkpt lat="39.47780052" lon="-0.38623785"><ele>15.2</ele><time>2022-11-02T16:13:21.0000000+00:00</time></trkpt><trkpt lat="39.47780161" lon="-0.38623609"><ele>15.2</ele><time>2022-11-02T16:13:22.0000000+00:00</time></trkpt><trkpt lat="39.47780203" lon="-0.38623458"><ele>15.4</ele><time>2022-11-02T16:13:23.0000000+00:00</time></trkpt><trkpt lat="39.47780186" lon="-0.38623215"><ele>15.4</ele><time>2022-11-02T16:13:24.0000000+00:00</time></trkpt><trkpt lat="39.47780237" lon="-0.3862324"><ele>15.4</ele><time>2022-11-02T16:13:25.0000000+00:00</time></trkpt><trkpt lat="39.47780362" lon="-0.38623139"><ele>15.2</ele><time>2022-11-02T16:13:26.0000000+00:00</time></trkpt><trkpt lat="39.4778032" lon="-0.3862303"><ele>15.2</ele><time>2022-11-02T16:13:27.0000000+00:00</time></trkpt><trkpt lat="39.47780136" lon="-0.38622502"><ele>15.2</ele><time>2022-11-02T16:13:28.0000000+00:00</time></trkpt><trkpt lat="39.47780128" lon="-0.38622284"><ele>15.2</ele><time>2022-11-02T16:13:29.0000000+00:00</time></trkpt><trkpt lat="39.47780262" lon="-0.38622318"><ele>15.2</ele><time>2022-11-02T16:13:30.0000000+00:00</time></trkpt><trkpt lat="39.47780262" lon="-0.38622318"><ele>15.2</ele><time>2022-11-02T16:13:31.0000000+00:00</time></trkpt><trkpt lat="39.47780262" lon="-0.38622318"><ele>15.2</ele><time>2022-11-02T16:13:32.0000000+00:00</time></trkpt><trkpt lat="39.47780262" lon="-0.38622318"><ele>15.2</ele><time>2022-11-02T16:13:33.0000000+00:00</time></trkpt><trkpt lat="39.47780262" lon="-0.38622318"><ele>15.2</ele><time>2022-11-02T16:13:34.0000000+00:00</time></trkpt><trkpt lat="39.47780262" lon="-0.38622318"><ele>15.2</ele><time>2022-11-02T16:13:35.0000000+00:00</time></trkpt><trkpt lat="39.47780262" lon="-0.38622318"><ele>15.2</ele><time>2022-11-02T16:13:36.0000000+00:00</time></trkpt><trkpt lat="39.47780312" lon="-0.38622159"><ele>15.2</ele><time>2022-11-02T16:13:37.0000000+00:00</time></trkpt><trkpt lat="39.47780346" lon="-0.38622712"><ele>15.2</ele><time>2022-11-02T16:13:38.0000000+00:00</time></trkpt><trkpt lat="39.47780111" lon="-0.38622502"><ele>15.2</ele><time>2022-11-02T16:13:39.0000000+00:00</time></trkpt><trkpt lat="39.47780128" lon="-0.38622502"><ele>15.2</ele><time>2022-11-02T16:13:40.0000000+00:00</time></trkpt><trkpt lat="39.47780128" lon="-0.38622502"><ele>15.2</ele><time>2022-11-02T16:13:41.0000000+00:00</time></trkpt><trkpt lat="39.47780128" lon="-0.38622502"><ele>15.2</ele><time>2022-11-02T16:13:42.0000000+00:00</time></trkpt><trkpt lat="39.47780388" lon="-0.38622184"><ele>15.2</ele><time>2022-11-02T16:13:43.0000000+00:00</time></trkpt><trkpt lat="39.47780605" lon="-0.38621664"><ele>15.2</ele><time>2022-11-02T16:13:44.0000000+00:00</time></trkpt><trkpt lat="39.47781469" lon="-0.3862075"><ele>15.2</ele><time>2022-11-02T16:13:45.0000000+00:00</time></trkpt><trkpt lat="39.47781905" lon="-0.38620289"><ele>15.2</ele><time>2022-11-02T16:13:46.0000000+00:00</time></trkpt><trkpt lat="39.47782324" lon="-0.38620273"><ele>15.2</ele><time>2022-11-02T16:13:47.0000000+00:00</time></trkpt><trkpt lat="39.47783388" lon="-0.38619099"><ele>15.2</ele><time>2022-11-02T16:13:48.0000000+00:00</time></trkpt><trkpt lat="39.47783816" lon="-0.38618613"><ele>15.2</ele><time>2022-11-02T16:13:49.0000000+00:00</time></trkpt><trkpt lat="39.47784226" lon="-0.38618353"><ele>15.2</ele><time>2022-11-02T16:13:50.0000000+00:00</time></trkpt><trkpt lat="39.47784486" lon="-0.38618102"><ele>15.2</ele><time>2022-11-02T16:13:51.0000000+00:00</time></trkpt><trkpt lat="39.47784595" lon="-0.38618253"><ele>15.2</ele><time>2022-11-02T16:13:52.0000000+00:00</time></trkpt><trkpt lat="39.4778426" lon="-0.38618228"><ele>15.2</ele><time>2022-11-02T16:13:53.0000000+00:00</time></trkpt><trkpt lat="39.4778364" lon="-0.38618471"><ele>15.2</ele><time>2022-11-02T16:13:54.0000000+00:00</time></trkpt><trkpt lat="39.4778405" lon="-0.3861816"><ele>15.2</ele><time>2022-11-02T16:13:55.0000000+00:00</time></trkpt><trkpt lat="39.47784562" lon="-0.38617616"><ele>15.2</ele><time>2022-11-02T16:13:56.0000000+00:00</time></trkpt><trkpt lat="39.47784419" lon="-0.3861759"><ele>15.2</ele><time>2022-11-02T16:13:57.0000000+00:00</time></trkpt><trkpt lat="39.47784386" lon="-0.38617306"><ele>15.2</ele><time>2022-11-02T16:13:58.0000000+00:00</time></trkpt><trkpt lat="39.47784059" lon="-0.38617088"><ele>15.2</ele><time>2022-11-02T16:13:59.0000000+00:00</time></trkpt><trkpt lat="39.47784436" lon="-0.38617096"><ele>15.8</ele><time>2022-11-02T16:14:00.0000000+00:00</time></trkpt><trkpt lat="39.47784822" lon="-0.38617104"><ele>15.8</ele><time>2022-11-02T16:14:01.0000000+00:00</time></trkpt><trkpt lat="39.47785467" lon="-0.38617104"><ele>15.8</ele><time>2022-11-02T16:14:02.0000000+00:00</time></trkpt><trkpt lat="39.47785651" lon="-0.38617205"><ele>15.8</ele><time>2022-11-02T16:14:03.0000000+00:00</time></trkpt><trkpt lat="39.47785769" lon="-0.38617306"><ele>15.8</ele><time>2022-11-02T16:14:04.0000000+00:00</time></trkpt><trkpt lat="39.47785869" lon="-0.38617406"><ele>15.8</ele><time>2022-11-02T16:14:05.0000000+00:00</time></trkpt><trkpt lat="39.4778602" lon="-0.38617498"><ele>15.8</ele><time>2022-11-02T16:14:06.0000000+00:00</time></trkpt><trkpt lat="39.47786129" lon="-0.38617557"><ele>15.8</ele><time>2022-11-02T16:14:07.0000000+00:00</time></trkpt><trkpt lat="39.47786171" lon="-0.38617565"><ele>15.8</ele><time>2022-11-02T16:14:08.0000000+00:00</time></trkpt><trkpt lat="39.47786045" lon="-0.38617607"><ele>15.8</ele><time>2022-11-02T16:14:09.0000000+00:00</time></trkpt><trkpt lat="39.47785995" lon="-0.38617641"><ele>15.8</ele><time>2022-11-02T16:14:10.0000000+00:00</time></trkpt><trkpt lat="39.47786062" lon="-0.38617565"><ele>15.8</ele><time>2022-11-02T16:14:11.0000000+00:00</time></trkpt><trkpt lat="39.47786045" lon="-0.38617574"><ele>15.8</ele><time>2022-11-02T16:14:12.0000000+00:00</time></trkpt><trkpt lat="39.47786045" lon="-0.38617574"><ele>15.8</ele><time>2022-11-02T16:14:13.0000000+00:00</time></trkpt><trkpt lat="39.47786045" lon="-0.38617574"><ele>15.8</ele><time>2022-11-02T16:14:14.0000000+00:00</time></trkpt><trkpt lat="39.47786045" lon="-0.38617574"><ele>15.8</ele><time>2022-11-02T16:14:15.0000000+00:00</time></trkpt><trkpt lat="39.47786045" lon="-0.38617574"><ele>15.8</ele><time>2022-11-02T16:14:16.0000000+00:00</time></trkpt><trkpt lat="39.47786045" lon="-0.38617574"><ele>15.8</ele><time>2022-11-02T16:14:17.0000000+00:00</time></trkpt><trkpt lat="39.47786045" lon="-0.38617574"><ele>15.8</ele><time>2022-11-02T16:14:18.0000000+00:00</time></trkpt><trkpt lat="39.47786045" lon="-0.38617574"><ele>15.8</ele><time>2022-11-02T16:14:19.0000000+00:00</time></trkpt><trkpt lat="39.47786045" lon="-0.38617574"><ele>15.8</ele><time>2022-11-02T16:14:20.0000000+00:00</time></trkpt><trkpt lat="39.47786045" lon="-0.38617574"><ele>15.8</ele><time>2022-11-02T16:14:21.0000000+00:00</time></trkpt><trkpt lat="39.47786045" lon="-0.38617574"><ele>15.8</ele><time>2022-11-02T16:14:22.0000000+00:00</time></trkpt><trkpt lat="39.47786045" lon="-0.38617574"><ele>15.8</ele><time>2022-11-02T16:14:23.0000000+00:00</time></trkpt><trkpt lat="39.4778602" lon="-0.38617574"><ele>15.8</ele><time>2022-11-02T16:14:24.0000000+00:00</time></trkpt><trkpt lat="39.47785995" lon="-0.38617574"><ele>15.8</ele><time>2022-11-02T16:14:25.0000000+00:00</time></trkpt><trkpt lat="39.47785894" lon="-0.38617574"><ele>15.8</ele><time>2022-11-02T16:14:26.0000000+00:00</time></trkpt><trkpt lat="39.47785894" lon="-0.38617574"><ele>15.8</ele><time>2022-11-02T16:14:27.0000000+00:00</time></trkpt><trkpt lat="39.47785894" lon="-0.38617574"><ele>15.8</ele><time>2022-11-02T16:14:28.0000000+00:00</time></trkpt><trkpt lat="39.47785894" lon="-0.38617574"><ele>15.8</ele><time>2022-11-02T16:14:29.0000000+00:00</time></trkpt><trkpt lat="39.47785894" lon="-0.38617574"><ele>15.8</ele><time>2022-11-02T16:14:30.0000000+00:00</time></trkpt><trkpt lat="39.47785894" lon="-0.38617574"><ele>15.8</ele><time>2022-11-02T16:14:31.0000000+00:00</time></trkpt><trkpt lat="39.47785869" lon="-0.38617574"><ele>15.8</ele><time>2022-11-02T16:14:32.0000000+00:00</time></trkpt><trkpt lat="39.47785869" lon="-0.38617607"><ele>15.8</ele><time>2022-11-02T16:14:33.0000000+00:00</time></trkpt><trkpt lat="39.4778607" lon="-0.38618202"><ele>15.8</ele><time>2022-11-02T16:14:34.0000000+00:00</time></trkpt><trkpt lat="39.4778664" lon="-0.38618932"><ele>15.8</ele><time>2022-11-02T16:14:35.0000000+00:00</time></trkpt><trkpt lat="39.47787277" lon="-0.38619979"><ele>15.8</ele><time>2022-11-02T16:14:36.0000000+00:00</time></trkpt><trkpt lat="39.47787806" lon="-0.38620901"><ele>15.8</ele><time>2022-11-02T16:14:37.0000000+00:00</time></trkpt><trkpt lat="39.47788811" lon="-0.38621807"><ele>15.8</ele><time>2022-11-02T16:14:38.0000000+00:00</time></trkpt><trkpt lat="39.47789297" lon="-0.38623223"><ele>15.8</ele><time>2022-11-02T16:14:39.0000000+00:00</time></trkpt><trkpt lat="39.47789138" lon="-0.38624933"><ele>15.8</ele><time>2022-11-02T16:14:40.0000000+00:00</time></trkpt><trkpt lat="39.47789582" lon="-0.38626484"><ele>15.8</ele><time>2022-11-02T16:14:41.0000000+00:00</time></trkpt><trkpt lat="39.47790764" lon="-0.38627003"><ele>15.8</ele><time>2022-11-02T16:14:42.0000000+00:00</time></trkpt><trkpt lat="39.47792256" lon="-0.38627012"><ele>15.8</ele><time>2022-11-02T16:14:43.0000000+00:00</time></trkpt><trkpt lat="39.47792692" lon="-0.38627087"><ele>15.8</ele><time>2022-11-02T16:14:44.0000000+00:00</time></trkpt><trkpt lat="39.47793212" lon="-0.38627464"><ele>15.6</ele><time>2022-11-02T16:14:45.0000000+00:00</time></trkpt><trkpt lat="39.47793614" lon="-0.38627657"><ele>15.6</ele><time>2022-11-02T16:14:46.0000000+00:00</time></trkpt><trkpt lat="39.47793765" lon="-0.38628277"><ele>15.4</ele><time>2022-11-02T16:14:47.0000000+00:00</time></trkpt><trkpt lat="39.47794762" lon="-0.38628881"><ele>15.4</ele><time>2022-11-02T16:14:48.0000000+00:00</time></trkpt><trkpt lat="39.47795383" lon="-0.38629635"><ele>15.4</ele><time>2022-11-02T16:14:49.0000000+00:00</time></trkpt><trkpt lat="39.47796187" lon="-0.38629853"><ele>15.4</ele><time>2022-11-02T16:14:50.0000000+00:00</time></trkpt><trkpt lat="39.47797093" lon="-0.38629811"><ele>15.4</ele><time>2022-11-02T16:14:51.0000000+00:00</time></trkpt><trkpt lat="39.47797738" lon="-0.38629568"><ele>15.4</ele><time>2022-11-02T16:14:52.0000000+00:00</time></trkpt><trkpt lat="39.47798258" lon="-0.38629417"><ele>15.4</ele><time>2022-11-02T16:14:53.0000000+00:00</time></trkpt><trkpt lat="39.47798216" lon="-0.38629375"><ele>15.4</ele><time>2022-11-02T16:14:54.0000000+00:00</time></trkpt><trkpt lat="39.47798383" lon="-0.3862925"><ele>15.4</ele><time>2022-11-02T16:14:55.0000000+00:00</time></trkpt><trkpt lat="39.47798199" lon="-0.38628697"><ele>15.4</ele><time>2022-11-02T16:14:56.0000000+00:00</time></trkpt><trkpt lat="39.47798258" lon="-0.38627883"><ele>15.4</ele><time>2022-11-02T16:14:57.0000000+00:00</time></trkpt><trkpt lat="39.47798191" lon="-0.38627951"><ele>15.4</ele><time>2022-11-02T16:14:58.0000000+00:00</time></trkpt><trkpt lat="39.47798233" lon="-0.38628026"><ele>15.4</ele><time>2022-11-02T16:14:59.0000000+00:00</time></trkpt><trkpt lat="39.47798166" lon="-0.38628034"><ele>15.4</ele><time>2022-11-02T16:15:00.0000000+00:00</time></trkpt><trkpt lat="39.47798031" lon="-0.38628009"><ele>15.4</ele><time>2022-11-02T16:15:01.0000000+00:00</time></trkpt><trkpt lat="39.47797931" lon="-0.3862785"><ele>15.4</ele><time>2022-11-02T16:15:02.0000000+00:00</time></trkpt><trkpt lat="39.47798015" lon="-0.38627875"><ele>15.4</ele><time>2022-11-02T16:15:03.0000000+00:00</time></trkpt><trkpt lat="39.47798015" lon="-0.38627875"><ele>15.4</ele><time>2022-11-02T16:15:04.0000000+00:00</time></trkpt><trkpt lat="39.47798015" lon="-0.38627875"><ele>15.4</ele><time>2022-11-02T16:15:05.0000000+00:00</time></trkpt><trkpt lat="39.47798015" lon="-0.38627875"><ele>15.4</ele><time>2022-11-02T16:15:06.0000000+00:00</time></trkpt><trkpt lat="39.47798015" lon="-0.38627875"><ele>15.4</ele><time>2022-11-02T16:15:07.0000000+00:00</time></trkpt><trkpt lat="39.47798015" lon="-0.38627875"><ele>15.4</ele><time>2022-11-02T16:15:08.0000000+00:00</time></trkpt><trkpt lat="39.47798015" lon="-0.38627875"><ele>15.4</ele><time>2022-11-02T16:15:09.0000000+00:00</time></trkpt><trkpt lat="39.47797964" lon="-0.38627691"><ele>15.4</ele><time>2022-11-02T16:15:10.0000000+00:00</time></trkpt><trkpt lat="39.47798593" lon="-0.38626668"><ele>15.4</ele><time>2022-11-02T16:15:11.0000000+00:00</time></trkpt><trkpt lat="39.47799389" lon="-0.38625453"><ele>15.4</ele><time>2022-11-02T16:15:12.0000000+00:00</time></trkpt><trkpt lat="39.47799272" lon="-0.38625"><ele>15.4</ele><time>2022-11-02T16:15:13.0000000+00:00</time></trkpt><trkpt lat="39.47799046" lon="-0.38624539"><ele>15.4</ele><time>2022-11-02T16:15:14.0000000+00:00</time></trkpt><trkpt lat="39.47798794" lon="-0.38624221"><ele>15.4</ele><time>2022-11-02T16:15:15.0000000+00:00</time></trkpt><trkpt lat="39.4779871" lon="-0.3862407"><ele>15.4</ele><time>2022-11-02T16:15:16.0000000+00:00</time></trkpt><trkpt lat="39.4779871" lon="-0.3862407"><ele>15.4</ele><time>2022-11-02T16:15:17.0000000+00:00</time></trkpt><trkpt lat="39.4779871" lon="-0.3862407"><ele>15.4</ele><time>2022-11-02T16:15:18.0000000+00:00</time></trkpt><trkpt lat="39.4779871" lon="-0.3862407"><ele>15.4</ele><time>2022-11-02T16:15:19.0000000+00:00</time></trkpt><trkpt lat="39.4779871" lon="-0.3862407"><ele>15.6</ele><time>2022-11-02T16:15:20.0000000+00:00</time></trkpt><trkpt lat="39.4779871" lon="-0.3862407"><ele>15.6</ele><time>2022-11-02T16:15:21.0000000+00:00</time></trkpt><trkpt lat="39.4779871" lon="-0.3862407"><ele>15.4</ele><time>2022-11-02T16:15:22.0000000+00:00</time></trkpt><trkpt lat="39.4779871" lon="-0.3862407"><ele>15.4</ele><time>2022-11-02T16:15:23.0000000+00:00</time></trkpt><trkpt lat="39.4779871" lon="-0.3862407"><ele>15.4</ele><time>2022-11-02T16:15:24.0000000+00:00</time></trkpt><trkpt lat="39.4779871" lon="-0.3862407"><ele>15.4</ele><time>2022-11-02T16:15:25.0000000+00:00</time></trkpt><trkpt lat="39.4779871" lon="-0.3862407"><ele>15.4</ele><time>2022-11-02T16:15:26.0000000+00:00</time></trkpt><trkpt lat="39.4779871" lon="-0.3862407"><ele>15.4</ele><time>2022-11-02T16:15:27.0000000+00:00</time></trkpt><trkpt lat="39.4779871" lon="-0.38623902"><ele>15.4</ele><time>2022-11-02T16:15:28.0000000+00:00</time></trkpt><trkpt lat="39.4779871" lon="-0.38623634"><ele>15.4</ele><time>2022-11-02T16:15:29.0000000+00:00</time></trkpt><trkpt lat="39.4779871" lon="-0.38623525"><ele>15.4</ele><time>2022-11-02T16:15:30.0000000+00:00</time></trkpt><trkpt lat="39.4779871" lon="-0.38623516"><ele>15.6</ele><time>2022-11-02T16:15:31.0000000+00:00</time></trkpt><trkpt lat="39.4779871" lon="-0.38623491"><ele>15.6</ele><time>2022-11-02T16:15:32.0000000+00:00</time></trkpt><trkpt lat="39.4779871" lon="-0.38623148"><ele>15.6</ele><time>2022-11-02T16:15:33.0000000+00:00</time></trkpt><trkpt lat="39.4779871" lon="-0.38622938"><ele>15.4</ele><time>2022-11-02T16:15:34.0000000+00:00</time></trkpt><trkpt lat="39.47798652" lon="-0.38622653"><ele>15.6</ele><time>2022-11-02T16:15:35.0000000+00:00</time></trkpt><trkpt lat="39.4779861" lon="-0.38622075"><ele>15.4</ele><time>2022-11-02T16:15:36.0000000+00:00</time></trkpt><trkpt lat="39.47798576" lon="-0.38622025"><ele>15.4</ele><time>2022-11-02T16:15:37.0000000+00:00</time></trkpt><trkpt lat="39.47798568" lon="-0.38621857"><ele>15.4</ele><time>2022-11-02T16:15:38.0000000+00:00</time></trkpt><trkpt lat="39.47798568" lon="-0.38621832"><ele>15.6</ele><time>2022-11-02T16:15:39.0000000+00:00</time></trkpt><trkpt lat="39.47798568" lon="-0.38621706"><ele>15.6</ele><time>2022-11-02T16:15:40.0000000+00:00</time></trkpt><trkpt lat="39.47798568" lon="-0.38621488"><ele>15.6</ele><time>2022-11-02T16:15:41.0000000+00:00</time></trkpt><trkpt lat="39.47798048" lon="-0.38621413"><ele>15.6</ele><time>2022-11-02T16:15:42.0000000+00:00</time></trkpt><trkpt lat="39.47797981" lon="-0.38621329"><ele>15.6</ele><time>2022-11-02T16:15:43.0000000+00:00</time></trkpt><trkpt lat="39.47797973" lon="-0.38621161"><ele>15.6</ele><time>2022-11-02T16:15:44.0000000+00:00</time></trkpt><trkpt lat="39.47797973" lon="-0.38621061"><ele>15.6</ele><time>2022-11-02T16:15:45.0000000+00:00</time></trkpt><trkpt lat="39.47797973" lon="-0.38621027"><ele>15.4</ele><time>2022-11-02T16:15:46.0000000+00:00</time></trkpt><trkpt lat="39.47797973" lon="-0.3862101"><ele>15.4</ele><time>2022-11-02T16:15:47.0000000+00:00</time></trkpt><trkpt lat="39.47797973" lon="-0.3862101"><ele>15.4</ele><time>2022-11-02T16:15:48.0000000+00:00</time></trkpt><trkpt lat="39.47797939" lon="-0.3862065"><ele>15.4</ele><time>2022-11-02T16:15:49.0000000+00:00</time></trkpt><trkpt lat="39.47797537" lon="-0.38620189"><ele>15.6</ele><time>2022-11-02T16:15:50.0000000+00:00</time></trkpt><trkpt lat="39.47797772" lon="-0.38619409"><ele>15.6</ele><time>2022-11-02T16:15:51.0000000+00:00</time></trkpt><trkpt lat="39.47798283" lon="-0.38618244"><ele>15.6</ele><time>2022-11-02T16:15:52.0000000+00:00</time></trkpt><trkpt lat="39.47798325" lon="-0.38617557"><ele>15.6</ele><time>2022-11-02T16:15:53.0000000+00:00</time></trkpt><trkpt lat="39.47798375" lon="-0.38616836"><ele>15.6</ele><time>2022-11-02T16:15:54.0000000+00:00</time></trkpt><trkpt lat="39.47798124" lon="-0.38616182"><ele>15.6</ele><time>2022-11-02T16:15:55.0000000+00:00</time></trkpt><trkpt lat="39.47797746" lon="-0.38615545"><ele>15.6</ele><time>2022-11-02T16:15:56.0000000+00:00</time></trkpt><trkpt lat="39.47797277" lon="-0.38615931"><ele>15.6</ele><time>2022-11-02T16:15:57.0000000+00:00</time></trkpt><trkpt lat="39.47797109" lon="-0.38616819"><ele>15.6</ele><time>2022-11-02T16:15:58.0000000+00:00</time></trkpt><trkpt lat="39.47797109" lon="-0.38617155"><ele>15.6</ele><time>2022-11-02T16:15:59.0000000+00:00</time></trkpt><trkpt lat="39.47797076" lon="-0.38617138"><ele>15.6</ele><time>2022-11-02T16:16:00.0000000+00:00</time></trkpt><trkpt lat="39.47797" lon="-0.38617021"><ele>15.6</ele><time>2022-11-02T16:16:01.0000000+00:00</time></trkpt><trkpt lat="39.47796942" lon="-0.3861692"><ele>15.6</ele><time>2022-11-02T16:16:02.0000000+00:00</time></trkpt><trkpt lat="39.47796925" lon="-0.3861697"><ele>15.6</ele><time>2022-11-02T16:16:03.0000000+00:00</time></trkpt><trkpt lat="39.47796942" lon="-0.38617121"><ele>15.6</ele><time>2022-11-02T16:16:04.0000000+00:00</time></trkpt><trkpt lat="39.47796891" lon="-0.38617197"><ele>15.6</ele><time>2022-11-02T16:16:05.0000000+00:00</time></trkpt><trkpt lat="39.47796824" lon="-0.38617163"><ele>15.6</ele><time>2022-11-02T16:16:06.0000000+00:00</time></trkpt><trkpt lat="39.47796715" lon="-0.38617096"><ele>15.6</ele><time>2022-11-02T16:16:07.0000000+00:00</time></trkpt><trkpt lat="39.4779669" lon="-0.38617213"><ele>15.6</ele><time>2022-11-02T16:16:08.0000000+00:00</time></trkpt><trkpt lat="39.47796774" lon="-0.3861744"><ele>15.6</ele><time>2022-11-02T16:16:09.0000000+00:00</time></trkpt><trkpt lat="39.47796774" lon="-0.38617456"><ele>15.6</ele><time>2022-11-02T16:16:10.0000000+00:00</time></trkpt><trkpt lat="39.47796791" lon="-0.38617423"><ele>15.6</ele><time>2022-11-02T16:16:11.0000000+00:00</time></trkpt><trkpt lat="39.47796791" lon="-0.38617431"><ele>15.6</ele><time>2022-11-02T16:16:12.0000000+00:00</time></trkpt><trkpt lat="39.47796791" lon="-0.38617431"><ele>15.6</ele><time>2022-11-02T16:16:13.0000000+00:00</time></trkpt><trkpt lat="39.47796791" lon="-0.38617431"><ele>15.6</ele><time>2022-11-02T16:16:14.0000000+00:00</time></trkpt><trkpt lat="39.47796791" lon="-0.38617431"><ele>15.6</ele><time>2022-11-02T16:16:15.0000000+00:00</time></trkpt><trkpt lat="39.47796791" lon="-0.38617431"><ele>15.6</ele><time>2022-11-02T16:16:16.0000000+00:00</time></trkpt><trkpt lat="39.47796791" lon="-0.38617431"><ele>15.6</ele><time>2022-11-02T16:16:17.0000000+00:00</time></trkpt><trkpt lat="39.47796791" lon="-0.38617431"><ele>15.6</ele><time>2022-11-02T16:16:18.0000000+00:00</time></trkpt><trkpt lat="39.47796791" lon="-0.38617431"><ele>15.6</ele><time>2022-11-02T16:16:19.0000000+00:00</time></trkpt><trkpt lat="39.47796791" lon="-0.38617431"><ele>15.6</ele><time>2022-11-02T16:16:20.0000000+00:00</time></trkpt><trkpt lat="39.47796791" lon="-0.38617431"><ele>15.6</ele><time>2022-11-02T16:16:21.0000000+00:00</time></trkpt><trkpt lat="39.47796791" lon="-0.38617431"><ele>15.6</ele><time>2022-11-02T16:16:22.0000000+00:00</time></trkpt><trkpt lat="39.47796791" lon="-0.38617431"><ele>15.6</ele><time>2022-11-02T16:16:23.0000000+00:00</time></trkpt><trkpt lat="39.47796791" lon="-0.38617431"><ele>15.6</ele><time>2022-11-02T16:16:24.0000000+00:00</time></trkpt><trkpt lat="39.47796791" lon="-0.38617431"><ele>15.6</ele><time>2022-11-02T16:16:25.0000000+00:00</time></trkpt><trkpt lat="39.47796791" lon="-0.38617431"><ele>15.6</ele><time>2022-11-02T16:16:26.0000000+00:00</time></trkpt><trkpt lat="39.47796791" lon="-0.38617431"><ele>15.6</ele><time>2022-11-02T16:16:27.0000000+00:00</time></trkpt><trkpt lat="39.47796824" lon="-0.38617431"><ele>15.6</ele><time>2022-11-02T16:16:28.0000000+00:00</time></trkpt><trkpt lat="39.47796883" lon="-0.38617431"><ele>15.6</ele><time>2022-11-02T16:16:29.0000000+00:00</time></trkpt><trkpt lat="39.47796933" lon="-0.38617431"><ele>15.6</ele><time>2022-11-02T16:16:30.0000000+00:00</time></trkpt><trkpt lat="39.47796959" lon="-0.38617431"><ele>15.6</ele><time>2022-11-02T16:16:31.0000000+00:00</time></trkpt><trkpt lat="39.47797193" lon="-0.38617431"><ele>15.6</ele><time>2022-11-02T16:16:32.0000000+00:00</time></trkpt><trkpt lat="39.47797587" lon="-0.38617431"><ele>15.6</ele><time>2022-11-02T16:16:33.0000000+00:00</time></trkpt><trkpt lat="39.47797847" lon="-0.3861744"><ele>15.6</ele><time>2022-11-02T16:16:34.0000000+00:00</time></trkpt><trkpt lat="39.47798207" lon="-0.38617456"><ele>15.6</ele><time>2022-11-02T16:16:35.0000000+00:00</time></trkpt><trkpt lat="39.47798601" lon="-0.38617465"><ele>15.6</ele><time>2022-11-02T16:16:36.0000000+00:00</time></trkpt><trkpt lat="39.47799012" lon="-0.38617498"><ele>15.6</ele><time>2022-11-02T16:16:37.0000000+00:00</time></trkpt><trkpt lat="39.47799096" lon="-0.38617691"><ele>15.6</ele><time>2022-11-02T16:16:38.0000000+00:00</time></trkpt><trkpt lat="39.47799104" lon="-0.38618647"><ele>15.6</ele><time>2022-11-02T16:16:39.0000000+00:00</time></trkpt><trkpt lat="39.47799104" lon="-0.38619669"><ele>15.6</ele><time>2022-11-02T16:16:40.0000000+00:00</time></trkpt><trkpt lat="39.47798903" lon="-0.3862075"><ele>15.6</ele><time>2022-11-02T16:16:41.0000000+00:00</time></trkpt><trkpt lat="39.47798652" lon="-0.38623039"><ele>15.6</ele><time>2022-11-02T16:16:42.0000000+00:00</time></trkpt><trkpt lat="39.4779866" lon="-0.38625067"><ele>15.6</ele><time>2022-11-02T16:16:43.0000000+00:00</time></trkpt><trkpt lat="39.47798501" lon="-0.38627079"><ele>15.6</ele><time>2022-11-02T16:16:44.0000000+00:00</time></trkpt><trkpt lat="39.47798568" lon="-0.38628571"><ele>15.6</ele><time>2022-11-02T16:16:45.0000000+00:00</time></trkpt><trkpt lat="39.47798895" lon="-0.38629836"><ele>15.6</ele><time>2022-11-02T16:16:46.0000000+00:00</time></trkpt><trkpt lat="39.47799188" lon="-0.38631454"><ele>15.6</ele><time>2022-11-02T16:16:47.0000000+00:00</time></trkpt><trkpt lat="39.47799859" lon="-0.38632787"><ele>15.6</ele><time>2022-11-02T16:16:48.0000000+00:00</time></trkpt><trkpt lat="39.47800278" lon="-0.38634036"><ele>15.6</ele><time>2022-11-02T16:16:49.0000000+00:00</time></trkpt><trkpt lat="39.47800546" lon="-0.38635687"><ele>15.6</ele><time>2022-11-02T16:16:50.0000000+00:00</time></trkpt><trkpt lat="39.47800705" lon="-0.38636693"><ele>15.4</ele><time>2022-11-02T16:16:51.0000000+00:00</time></trkpt><trkpt lat="39.47800739" lon="-0.38638051"><ele>15.4</ele><time>2022-11-02T16:16:52.0000000+00:00</time></trkpt><trkpt lat="39.47800789" lon="-0.38639425"><ele>15.4</ele><time>2022-11-02T16:16:53.0000000+00:00</time></trkpt><trkpt lat="39.47800018" lon="-0.38641286"><ele>15.4</ele><time>2022-11-02T16:16:54.0000000+00:00</time></trkpt><trkpt lat="39.47799725" lon="-0.386422"><ele>15.4</ele><time>2022-11-02T16:16:55.0000000+00:00</time></trkpt><trkpt lat="39.47800035" lon="-0.38642426"><ele>15.4</ele><time>2022-11-02T16:16:56.0000000+00:00</time></trkpt><trkpt lat="39.47800152" lon="-0.38643046"><ele>15.4</ele><time>2022-11-02T16:16:57.0000000+00:00</time></trkpt><trkpt lat="39.47799825" lon="-0.38644329"><ele>15.4</ele><time>2022-11-02T16:16:58.0000000+00:00</time></trkpt><trkpt lat="39.4779949" lon="-0.38644832"><ele>15.4</ele><time>2022-11-02T16:16:59.0000000+00:00</time></trkpt><trkpt lat="39.47799658" lon="-0.3864562"><ele>15.4</ele><time>2022-11-02T16:17:00.0000000+00:00</time></trkpt><trkpt lat="39.47799565" lon="-0.38646651"><ele>15.4</ele><time>2022-11-02T16:17:01.0000000+00:00</time></trkpt><trkpt lat="39.47799113" lon="-0.3864748"><ele>15.4</ele><time>2022-11-02T16:17:02.0000000+00:00</time></trkpt><trkpt lat="39.47799398" lon="-0.38648285"><ele>15.4</ele><time>2022-11-02T16:17:03.0000000+00:00</time></trkpt><trkpt lat="39.47798677" lon="-0.38648486"><ele>15.4</ele><time>2022-11-02T16:17:04.0000000+00:00</time></trkpt><trkpt lat="39.4779809" lon="-0.38648117"><ele>15.4</ele><time>2022-11-02T16:17:05.0000000+00:00</time></trkpt><trkpt lat="39.4779804" lon="-0.38648302"><ele>15.4</ele><time>2022-11-02T16:17:06.0000000+00:00</time></trkpt><trkpt lat="39.47797956" lon="-0.38648964"><ele>15.4</ele><time>2022-11-02T16:17:07.0000000+00:00</time></trkpt><trkpt lat="39.4779773" lon="-0.38649559"><ele>15.4</ele><time>2022-11-02T16:17:08.0000000+00:00</time></trkpt><trkpt lat="39.47797906" lon="-0.38650196"><ele>15.4</ele><time>2022-11-02T16:17:09.0000000+00:00</time></trkpt><trkpt lat="39.47797386" lon="-0.38650749"><ele>15.4</ele><time>2022-11-02T16:17:10.0000000+00:00</time></trkpt><trkpt lat="39.47796933" lon="-0.38651219"><ele>15.4</ele><time>2022-11-02T16:17:11.0000000+00:00</time></trkpt><trkpt lat="39.47796657" lon="-0.38651353"><ele>15.4</ele><time>2022-11-02T16:17:12.0000000+00:00</time></trkpt><trkpt lat="39.47796414" lon="-0.38651395"><ele>15.4</ele><time>2022-11-02T16:17:13.0000000+00:00</time></trkpt><trkpt lat="39.47796229" lon="-0.38651286"><ele>15.4</ele><time>2022-11-02T16:17:14.0000000+00:00</time></trkpt><trkpt lat="39.4779612" lon="-0.3865116"><ele>15.4</ele><time>2022-11-02T16:17:15.0000000+00:00</time></trkpt><trkpt lat="39.47796296" lon="-0.38651152"><ele>15.4</ele><time>2022-11-02T16:17:16.0000000+00:00</time></trkpt><trkpt lat="39.47796707" lon="-0.38650967"><ele>15.4</ele><time>2022-11-02T16:17:17.0000000+00:00</time></trkpt><trkpt lat="39.47797084" lon="-0.38650917"><ele>15.4</ele><time>2022-11-02T16:17:18.0000000+00:00</time></trkpt><trkpt lat="39.47797143" lon="-0.38650758"><ele>15.4</ele><time>2022-11-02T16:17:19.0000000+00:00</time></trkpt><trkpt lat="39.47797227" lon="-0.38650607"><ele>15.4</ele><time>2022-11-02T16:17:20.0000000+00:00</time></trkpt><trkpt lat="39.47797084" lon="-0.38650531"><ele>15.4</ele><time>2022-11-02T16:17:21.0000000+00:00</time></trkpt><trkpt lat="39.47797059" lon="-0.38650523"><ele>15.4</ele><time>2022-11-02T16:17:22.0000000+00:00</time></trkpt><trkpt lat="39.47796883" lon="-0.3865064"><ele>15.4</ele><time>2022-11-02T16:17:23.0000000+00:00</time></trkpt><trkpt lat="39.47796917" lon="-0.38650774"><ele>15.4</ele><time>2022-11-02T16:17:24.0000000+00:00</time></trkpt><trkpt lat="39.47796917" lon="-0.38650774"><ele>15.4</ele><time>2022-11-02T16:17:25.0000000+00:00</time></trkpt><trkpt lat="39.47796917" lon="-0.38650774"><ele>15.4</ele><time>2022-11-02T16:17:26.0000000+00:00</time></trkpt><trkpt lat="39.47796917" lon="-0.38650774"><ele>15.4</ele><time>2022-11-02T16:17:27.0000000+00:00</time></trkpt><trkpt lat="39.47796917" lon="-0.38650774"><ele>15.4</ele><time>2022-11-02T16:17:28.0000000+00:00</time></trkpt><trkpt lat="39.47796917" lon="-0.38650774"><ele>15.4</ele><time>2022-11-02T16:17:29.0000000+00:00</time></trkpt><trkpt lat="39.47796917" lon="-0.38650774"><ele>15.4</ele><time>2022-11-02T16:17:30.0000000+00:00</time></trkpt><trkpt lat="39.47796917" lon="-0.38650774"><ele>15.4</ele><time>2022-11-02T16:17:31.0000000+00:00</time></trkpt><trkpt lat="39.47796917" lon="-0.38650774"><ele>15.4</ele><time>2022-11-02T16:17:32.0000000+00:00</time></trkpt><trkpt lat="39.47796917" lon="-0.38650774"><ele>15.4</ele><time>2022-11-02T16:17:33.0000000+00:00</time></trkpt><trkpt lat="39.47796917" lon="-0.38650774"><ele>15.4</ele><time>2022-11-02T16:17:34.0000000+00:00</time></trkpt><trkpt lat="39.47796917" lon="-0.38650774"><ele>15.4</ele><time>2022-11-02T16:17:35.0000000+00:00</time></trkpt><trkpt lat="39.47796917" lon="-0.38650774"><ele>15.4</ele><time>2022-11-02T16:17:36.0000000+00:00</time></trkpt><trkpt lat="39.47796917" lon="-0.38650774"><ele>15.4</ele><time>2022-11-02T16:17:37.0000000+00:00</time></trkpt><trkpt lat="39.47796883" lon="-0.38650774"><ele>15.4</ele><time>2022-11-02T16:17:38.0000000+00:00</time></trkpt><trkpt lat="39.47796866" lon="-0.38650842"><ele>15.4</ele><time>2022-11-02T16:17:39.0000000+00:00</time></trkpt><trkpt lat="39.477969" lon="-0.38651353"><ele>15.4</ele><time>2022-11-02T16:17:40.0000000+00:00</time></trkpt><trkpt lat="39.47796866" lon="-0.38651956"><ele>15.4</ele><time>2022-11-02T16:17:41.0000000+00:00</time></trkpt><trkpt lat="39.47797017" lon="-0.38652333"><ele>15.4</ele><time>2022-11-02T16:17:42.0000000+00:00</time></trkpt><trkpt lat="39.47797042" lon="-0.38652761"><ele>15.4</ele><time>2022-11-02T16:17:43.0000000+00:00</time></trkpt><trkpt lat="39.47797294" lon="-0.38653063"><ele>15.4</ele><time>2022-11-02T16:17:44.0000000+00:00</time></trkpt><trkpt lat="39.4779742" lon="-0.38653348"><ele>15.4</ele><time>2022-11-02T16:17:45.0000000+00:00</time></trkpt><trkpt lat="39.47797344" lon="-0.38653457"><ele>15.4</ele><time>2022-11-02T16:17:46.0000000+00:00</time></trkpt><trkpt lat="39.47797269" lon="-0.38653549"><ele>15.4</ele><time>2022-11-02T16:17:47.0000000+00:00</time></trkpt><trkpt lat="39.47797143" lon="-0.38653817"><ele>15.4</ele><time>2022-11-02T16:17:48.0000000+00:00</time></trkpt><trkpt lat="39.47797026" lon="-0.3865401"><ele>15.4</ele><time>2022-11-02T16:17:49.0000000+00:00</time></trkpt><trkpt lat="39.47796866" lon="-0.3865432"><ele>15.4</ele><time>2022-11-02T16:17:50.0000000+00:00</time></trkpt><trkpt lat="39.47796959" lon="-0.38654798"><ele>15.4</ele><time>2022-11-02T16:17:51.0000000+00:00</time></trkpt><trkpt lat="39.47797026" lon="-0.3865489"><ele>15.4</ele><time>2022-11-02T16:17:52.0000000+00:00</time></trkpt><trkpt lat="39.47797042" lon="-0.38655175"><ele>15.4</ele><time>2022-11-02T16:17:53.0000000+00:00</time></trkpt><trkpt lat="39.47797143" lon="-0.38655317"><ele>15.4</ele><time>2022-11-02T16:17:54.0000000+00:00</time></trkpt><trkpt lat="39.47797118" lon="-0.38655376"><ele>15.4</ele><time>2022-11-02T16:17:55.0000000+00:00</time></trkpt><trkpt lat="39.47797185" lon="-0.38655158"><ele>15.4</ele><time>2022-11-02T16:17:56.0000000+00:00</time></trkpt><trkpt lat="39.47797126" lon="-0.38655234"><ele>15.4</ele><time>2022-11-02T16:17:57.0000000+00:00</time></trkpt><trkpt lat="39.47797126" lon="-0.38655234"><ele>15.4</ele><time>2022-11-02T16:17:58.0000000+00:00</time></trkpt><trkpt lat="39.47797126" lon="-0.38655234"><ele>15.4</ele><time>2022-11-02T16:17:59.0000000+00:00</time></trkpt><trkpt lat="39.47797126" lon="-0.38655234"><ele>15.4</ele><time>2022-11-02T16:18:00.0000000+00:00</time></trkpt><trkpt lat="39.47797126" lon="-0.38655234"><ele>15.4</ele><time>2022-11-02T16:18:01.0000000+00:00</time></trkpt><trkpt lat="39.47797126" lon="-0.38655234"><ele>15.4</ele><time>2022-11-02T16:18:02.0000000+00:00</time></trkpt><trkpt lat="39.47797126" lon="-0.38655234"><ele>15.4</ele><time>2022-11-02T16:18:03.0000000+00:00</time></trkpt><trkpt lat="39.47797126" lon="-0.38655234"><ele>15.4</ele><time>2022-11-02T16:18:04.0000000+00:00</time></trkpt><trkpt lat="39.47797126" lon="-0.38655234"><ele>15.4</ele><time>2022-11-02T16:18:05.0000000+00:00</time></trkpt><trkpt lat="39.47797126" lon="-0.38655234"><ele>15.4</ele><time>2022-11-02T16:18:06.0000000+00:00</time></trkpt><trkpt lat="39.47797118" lon="-0.38655234"><ele>15.4</ele><time>2022-11-02T16:18:07.0000000+00:00</time></trkpt><trkpt lat="39.47796975" lon="-0.38655862"><ele>15.4</ele><time>2022-11-02T16:18:08.0000000+00:00</time></trkpt><trkpt lat="39.47796724" lon="-0.38656675"><ele>15.4</ele><time>2022-11-02T16:18:09.0000000+00:00</time></trkpt><trkpt lat="39.4779669" lon="-0.38657505"><ele>15.2</ele><time>2022-11-02T16:18:10.0000000+00:00</time></trkpt><trkpt lat="39.47796749" lon="-0.38658402"><ele>15.2</ele><time>2022-11-02T16:18:11.0000000+00:00</time></trkpt><trkpt lat="39.47796824" lon="-0.3865898"><ele>15.2</ele><time>2022-11-02T16:18:12.0000000+00:00</time></trkpt><trkpt lat="39.47796766" lon="-0.38659793"><ele>15.2</ele><time>2022-11-02T16:18:13.0000000+00:00</time></trkpt><trkpt lat="39.47796581" lon="-0.3866043"><ele>15.2</ele><time>2022-11-02T16:18:14.0000000+00:00</time></trkpt><trkpt lat="39.47796338" lon="-0.38660749"><ele>15.2</ele><time>2022-11-02T16:18:15.0000000+00:00</time></trkpt><trkpt lat="39.47796263" lon="-0.38661218"><ele>15.2</ele><time>2022-11-02T16:18:16.0000000+00:00</time></trkpt><trkpt lat="39.47796238" lon="-0.38661813"><ele>15.2</ele><time>2022-11-02T16:18:17.0000000+00:00</time></trkpt><trkpt lat="39.47796296" lon="-0.38661763"><ele>15.2</ele><time>2022-11-02T16:18:18.0000000+00:00</time></trkpt><trkpt lat="39.47795961" lon="-0.38661755"><ele>15.2</ele><time>2022-11-02T16:18:19.0000000+00:00</time></trkpt><trkpt lat="39.47795416" lon="-0.38661026"><ele>15.2</ele><time>2022-11-02T16:18:20.0000000+00:00</time></trkpt><trkpt lat="39.47795148" lon="-0.38660665"><ele>15.4</ele><time>2022-11-02T16:18:21.0000000+00:00</time></trkpt><trkpt lat="39.47795123" lon="-0.38660347"><ele>15.4</ele><time>2022-11-02T16:18:22.0000000+00:00</time></trkpt><trkpt lat="39.47794863" lon="-0.38659684"><ele>15.4</ele><time>2022-11-02T16:18:23.0000000+00:00</time></trkpt><trkpt lat="39.47794846" lon="-0.38659022"><ele>15.4</ele><time>2022-11-02T16:18:24.0000000+00:00</time></trkpt><trkpt lat="39.47794687" lon="-0.38658888"><ele>15.4</ele><time>2022-11-02T16:18:25.0000000+00:00</time></trkpt><trkpt lat="39.47794486" lon="-0.38659123"><ele>15.4</ele><time>2022-11-02T16:18:26.0000000+00:00</time></trkpt><trkpt lat="39.47794268" lon="-0.3865888"><ele>15.4</ele><time>2022-11-02T16:18:27.0000000+00:00</time></trkpt><trkpt lat="39.47794226" lon="-0.38659014"><ele>15.4</ele><time>2022-11-02T16:18:28.0000000+00:00</time></trkpt><trkpt lat="39.47794184" lon="-0.38659198"><ele>15.4</ele><time>2022-11-02T16:18:29.0000000+00:00</time></trkpt><trkpt lat="39.47794419" lon="-0.38659265"><ele>15.4</ele><time>2022-11-02T16:18:30.0000000+00:00</time></trkpt><trkpt lat="39.47795265" lon="-0.3865857"><ele>15.4</ele><time>2022-11-02T16:18:31.0000000+00:00</time></trkpt><trkpt lat="39.47795584" lon="-0.38658553"><ele>15.4</ele><time>2022-11-02T16:18:32.0000000+00:00</time></trkpt><trkpt lat="39.47795844" lon="-0.3865862"><ele>15.4</ele><time>2022-11-02T16:18:33.0000000+00:00</time></trkpt><trkpt lat="39.47795886" lon="-0.38658679"><ele>15.4</ele><time>2022-11-02T16:18:34.0000000+00:00</time></trkpt><trkpt lat="39.47795911" lon="-0.38659584"><ele>15.4</ele><time>2022-11-02T16:18:35.0000000+00:00</time></trkpt><trkpt lat="39.47795676" lon="-0.38660774"><ele>15.4</ele><time>2022-11-02T16:18:36.0000000+00:00</time></trkpt><trkpt lat="39.47795358" lon="-0.38661839"><ele>15.4</ele><time>2022-11-02T16:18:37.0000000+00:00</time></trkpt><trkpt lat="39.47794712" lon="-0.38662953"><ele>15.4</ele><time>2022-11-02T16:18:38.0000000+00:00</time></trkpt><trkpt lat="39.47794385" lon="-0.38663582"><ele>15.4</ele><time>2022-11-02T16:18:39.0000000+00:00</time></trkpt><trkpt lat="39.47793773" lon="-0.38664035"><ele>15.4</ele><time>2022-11-02T16:18:40.0000000+00:00</time></trkpt><trkpt lat="39.47793849" lon="-0.38664931"><ele>15.4</ele><time>2022-11-02T16:18:41.0000000+00:00</time></trkpt><trkpt lat="39.47793304" lon="-0.38665753"><ele>15.4</ele><time>2022-11-02T16:18:42.0000000+00:00</time></trkpt><trkpt lat="39.47793128" lon="-0.38666708"><ele>15.4</ele><time>2022-11-02T16:18:43.0000000+00:00</time></trkpt><trkpt lat="39.4779234" lon="-0.38667614"><ele>15.4</ele><time>2022-11-02T16:18:44.0000000+00:00</time></trkpt><trkpt lat="39.47791913" lon="-0.38668402"><ele>15.4</ele><time>2022-11-02T16:18:45.0000000+00:00</time></trkpt><trkpt lat="39.47791535" lon="-0.386695"><ele>15.4</ele><time>2022-11-02T16:18:46.0000000+00:00</time></trkpt><trkpt lat="39.4779151" lon="-0.38670438"><ele>15.4</ele><time>2022-11-02T16:18:47.0000000+00:00</time></trkpt><trkpt lat="39.47791209" lon="-0.38671318"><ele>15.4</ele><time>2022-11-02T16:18:48.0000000+00:00</time></trkpt><trkpt lat="39.47790806" lon="-0.38672282"><ele>15.4</ele><time>2022-11-02T16:18:49.0000000+00:00</time></trkpt><trkpt lat="39.47790756" lon="-0.38672878"><ele>15.4</ele><time>2022-11-02T16:18:50.0000000+00:00</time></trkpt><trkpt lat="39.47790697" lon="-0.38674168"><ele>15.4</ele><time>2022-11-02T16:18:51.0000000+00:00</time></trkpt><trkpt lat="39.47790991" lon="-0.38675166"><ele>15.4</ele><time>2022-11-02T16:18:52.0000000+00:00</time></trkpt><trkpt lat="39.47791837" lon="-0.38675484"><ele>15.4</ele><time>2022-11-02T16:18:53.0000000+00:00</time></trkpt><trkpt lat="39.47791183" lon="-0.38675082"><ele>15.4</ele><time>2022-11-02T16:18:54.0000000+00:00</time></trkpt><trkpt lat="39.47790454" lon="-0.38675493"><ele>15.4</ele><time>2022-11-02T16:18:55.0000000+00:00</time></trkpt><trkpt lat="39.47789826" lon="-0.38676155"><ele>15.4</ele><time>2022-11-02T16:18:56.0000000+00:00</time></trkpt><trkpt lat="39.47789088" lon="-0.38676214"><ele>15.4</ele><time>2022-11-02T16:18:57.0000000+00:00</time></trkpt><trkpt lat="39.47788258" lon="-0.38675635"><ele>15.4</ele><time>2022-11-02T16:18:58.0000000+00:00</time></trkpt><trkpt lat="39.47787495" lon="-0.38674789"><ele>15.4</ele><time>2022-11-02T16:18:59.0000000+00:00</time></trkpt><trkpt lat="39.47786288" lon="-0.38673095"><ele>15.4</ele><time>2022-11-02T16:19:00.0000000+00:00</time></trkpt><trkpt lat="39.47785207" lon="-0.38672819"><ele>15.4</ele><time>2022-11-02T16:19:01.0000000+00:00</time></trkpt><trkpt lat="39.47784637" lon="-0.38672542"><ele>15.4</ele><time>2022-11-02T16:19:02.0000000+00:00</time></trkpt><trkpt lat="39.47784185" lon="-0.38672626"><ele>15.4</ele><time>2022-11-02T16:19:03.0000000+00:00</time></trkpt><trkpt lat="39.47783916" lon="-0.38673313"><ele>15.4</ele><time>2022-11-02T16:19:04.0000000+00:00</time></trkpt><trkpt lat="39.47783606" lon="-0.38674344"><ele>15.4</ele><time>2022-11-02T16:19:05.0000000+00:00</time></trkpt><trkpt lat="39.47783246" lon="-0.38675266"><ele>15.4</ele><time>2022-11-02T16:19:06.0000000+00:00</time></trkpt><trkpt lat="39.47782734" lon="-0.38675769"><ele>15.4</ele><time>2022-11-02T16:19:07.0000000+00:00</time></trkpt><trkpt lat="39.47782332" lon="-0.38676063"><ele>15.4</ele><time>2022-11-02T16:19:08.0000000+00:00</time></trkpt><trkpt lat="39.47782542" lon="-0.38676566"><ele>15.4</ele><time>2022-11-02T16:19:09.0000000+00:00</time></trkpt><trkpt lat="39.47782148" lon="-0.38677605"><ele>15.4</ele><time>2022-11-02T16:19:10.0000000+00:00</time></trkpt><trkpt lat="39.47781603" lon="-0.38679432"><ele>15.4</ele><time>2022-11-02T16:19:11.0000000+00:00</time></trkpt><trkpt lat="39.47780966" lon="-0.38680715"><ele>15.4</ele><time>2022-11-02T16:19:12.0000000+00:00</time></trkpt><trkpt lat="39.47780346" lon="-0.38680983"><ele>15.4</ele><time>2022-11-02T16:19:13.0000000+00:00</time></trkpt><trkpt lat="39.47778736" lon="-0.38681762"><ele>15.4</ele><time>2022-11-02T16:19:14.0000000+00:00</time></trkpt><trkpt lat="39.4777737" lon="-0.38681368"><ele>15.4</ele><time>2022-11-02T16:19:15.0000000+00:00</time></trkpt><trkpt lat="39.47776079" lon="-0.38681326"><ele>15.4</ele><time>2022-11-02T16:19:16.0000000+00:00</time></trkpt><trkpt lat="39.47775149" lon="-0.38680807"><ele>15.4</ele><time>2022-11-02T16:19:17.0000000+00:00</time></trkpt><trkpt lat="39.4777447" lon="-0.38680622"><ele>15.4</ele><time>2022-11-02T16:19:18.0000000+00:00</time></trkpt><trkpt lat="39.4777395" lon="-0.38680807"><ele>15.4</ele><time>2022-11-02T16:19:19.0000000+00:00</time></trkpt><trkpt lat="39.47774084" lon="-0.3868084"><ele>15.4</ele><time>2022-11-02T16:19:20.0000000+00:00</time></trkpt><trkpt lat="39.47773959" lon="-0.38681008"><ele>15.4</ele><time>2022-11-02T16:19:21.0000000+00:00</time></trkpt><trkpt lat="39.47773866" lon="-0.38681754"><ele>15.4</ele><time>2022-11-02T16:19:22.0000000+00:00</time></trkpt><trkpt lat="39.47773397" lon="-0.38682777"><ele>15.4</ele><time>2022-11-02T16:19:23.0000000+00:00</time></trkpt><trkpt lat="39.47773003" lon="-0.38683598"><ele>15.4</ele><time>2022-11-02T16:19:24.0000000+00:00</time></trkpt><trkpt lat="39.47772986" lon="-0.38684118"><ele>15.4</ele><time>2022-11-02T16:19:25.0000000+00:00</time></trkpt><trkpt lat="39.47772659" lon="-0.38684445"><ele>15.4</ele><time>2022-11-02T16:19:26.0000000+00:00</time></trkpt><trkpt lat="39.47772182" lon="-0.38684587"><ele>15.4</ele><time>2022-11-02T16:19:27.0000000+00:00</time></trkpt><trkpt lat="39.47771268" lon="-0.38685065"><ele>15.4</ele><time>2022-11-02T16:19:28.0000000+00:00</time></trkpt><trkpt lat="39.47770296" lon="-0.38686632"><ele>15.4</ele><time>2022-11-02T16:19:29.0000000+00:00</time></trkpt><trkpt lat="39.47770036" lon="-0.38687445"><ele>15.4</ele><time>2022-11-02T16:19:30.0000000+00:00</time></trkpt><trkpt lat="39.47769575" lon="-0.38689055"><ele>15.4</ele><time>2022-11-02T16:19:31.0000000+00:00</time></trkpt><trkpt lat="39.47769458" lon="-0.38690572"><ele>15.4</ele><time>2022-11-02T16:19:32.0000000+00:00</time></trkpt><trkpt lat="39.4777136" lon="-0.38690723"><ele>15.4</ele><time>2022-11-02T16:19:33.0000000+00:00</time></trkpt><trkpt lat="39.47771369" lon="-0.38692122"><ele>15.4</ele><time>2022-11-02T16:19:34.0000000+00:00</time></trkpt><trkpt lat="39.47771712" lon="-0.38693338"><ele>15.4</ele><time>2022-11-02T16:19:35.0000000+00:00</time></trkpt><trkpt lat="39.47771519" lon="-0.38694402"><ele>15.4</ele><time>2022-11-02T16:19:36.0000000+00:00</time></trkpt><trkpt lat="39.47771369" lon="-0.38694712"><ele>15.4</ele><time>2022-11-02T16:19:37.0000000+00:00</time></trkpt><trkpt lat="39.4777183" lon="-0.38694863"><ele>15.4</ele><time>2022-11-02T16:19:38.0000000+00:00</time></trkpt><trkpt lat="39.47771846" lon="-0.38695148"><ele>15.4</ele><time>2022-11-02T16:19:39.0000000+00:00</time></trkpt><trkpt lat="39.47771729" lon="-0.38695894"><ele>15.4</ele><time>2022-11-02T16:19:40.0000000+00:00</time></trkpt><trkpt lat="39.4777095" lon="-0.38697118"><ele>15.4</ele><time>2022-11-02T16:19:41.0000000+00:00</time></trkpt><trkpt lat="39.47770497" lon="-0.3869726"><ele>15.4</ele><time>2022-11-02T16:19:42.0000000+00:00</time></trkpt><trkpt lat="39.47770321" lon="-0.3869716"><ele>15.4</ele><time>2022-11-02T16:19:43.0000000+00:00</time></trkpt><trkpt lat="39.47770229" lon="-0.38697302"><ele>15.4</ele><time>2022-11-02T16:19:44.0000000+00:00</time></trkpt><trkpt lat="39.47770069" lon="-0.38697395"><ele>15.4</ele><time>2022-11-02T16:19:45.0000000+00:00</time></trkpt><trkpt lat="39.4776986" lon="-0.38697545"><ele>15.4</ele><time>2022-11-02T16:19:46.0000000+00:00</time></trkpt><trkpt lat="39.47770556" lon="-0.38697336"><ele>15.4</ele><time>2022-11-02T16:19:47.0000000+00:00</time></trkpt><trkpt lat="39.47771469" lon="-0.38697638"><ele>15.4</ele><time>2022-11-02T16:19:48.0000000+00:00</time></trkpt><trkpt lat="39.47771922" lon="-0.38698392"><ele>15.4</ele><time>2022-11-02T16:19:49.0000000+00:00</time></trkpt><trkpt lat="39.47771595" lon="-0.38699331"><ele>15.4</ele><time>2022-11-02T16:19:50.0000000+00:00</time></trkpt><trkpt lat="39.47771771" lon="-0.38700244"><ele>15.4</ele><time>2022-11-02T16:19:51.0000000+00:00</time></trkpt><trkpt lat="39.47769659" lon="-0.38702449"><ele>15.4</ele><time>2022-11-02T16:19:52.0000000+00:00</time></trkpt><trkpt lat="39.47769759" lon="-0.38703153"><ele>15.4</ele><time>2022-11-02T16:19:53.0000000+00:00</time></trkpt><trkpt lat="39.47769583" lon="-0.38703513"><ele>15.4</ele><time>2022-11-02T16:19:54.0000000+00:00</time></trkpt><trkpt lat="39.4776908" lon="-0.38703555"><ele>15.4</ele><time>2022-11-02T16:19:55.0000000+00:00</time></trkpt><trkpt lat="39.47769223" lon="-0.38703647"><ele>15.4</ele><time>2022-11-02T16:19:56.0000000+00:00</time></trkpt><trkpt lat="39.47769659" lon="-0.3870405"><ele>15.4</ele><time>2022-11-02T16:19:57.0000000+00:00</time></trkpt><trkpt lat="39.47770036" lon="-0.38704025"><ele>15.4</ele><time>2022-11-02T16:19:58.0000000+00:00</time></trkpt><trkpt lat="39.47770773" lon="-0.38704444"><ele>15.4</ele><time>2022-11-02T16:19:59.0000000+00:00</time></trkpt><trkpt lat="39.47771176" lon="-0.38706204"><ele>15.4</ele><time>2022-11-02T16:20:00.0000000+00:00</time></trkpt><trkpt lat="39.4777105" lon="-0.38706699"><ele>15.4</ele><time>2022-11-02T16:20:01.0000000+00:00</time></trkpt><trkpt lat="39.47771042" lon="-0.38707009"><ele>15.4</ele><time>2022-11-02T16:20:02.0000000+00:00</time></trkpt><trkpt lat="39.47771243" lon="-0.38707268"><ele>15.4</ele><time>2022-11-02T16:20:03.0000000+00:00</time></trkpt><trkpt lat="39.47771302" lon="-0.38709272"><ele>15.4</ele><time>2022-11-02T16:20:04.0000000+00:00</time></trkpt><trkpt lat="39.47771561" lon="-0.38709473"><ele>15.4</ele><time>2022-11-02T16:20:05.0000000+00:00</time></trkpt><trkpt lat="39.4777167" lon="-0.38709691"><ele>15.4</ele><time>2022-11-02T16:20:06.0000000+00:00</time></trkpt><trkpt lat="39.47771067" lon="-0.38709783"><ele>15.4</ele><time>2022-11-02T16:20:07.0000000+00:00</time></trkpt><trkpt lat="39.47770882" lon="-0.38710177"><ele>15.4</ele><time>2022-11-02T16:20:08.0000000+00:00</time></trkpt><trkpt lat="39.47770765" lon="-0.38710403"><ele>15.4</ele><time>2022-11-02T16:20:09.0000000+00:00</time></trkpt><trkpt lat="39.47771444" lon="-0.38710353"><ele>15.4</ele><time>2022-11-02T16:20:10.0000000+00:00</time></trkpt><trkpt lat="39.47771804" lon="-0.38710998"><ele>15.4</ele><time>2022-11-02T16:20:11.0000000+00:00</time></trkpt><trkpt lat="39.4777162" lon="-0.38711476"><ele>15.4</ele><time>2022-11-02T16:20:12.0000000+00:00</time></trkpt><trkpt lat="39.47771084" lon="-0.38712063"><ele>15.4</ele><time>2022-11-02T16:20:13.0000000+00:00</time></trkpt><trkpt lat="39.4777167" lon="-0.3871265"><ele>15.4</ele><time>2022-11-02T16:20:14.0000000+00:00</time></trkpt><trkpt lat="39.47771511" lon="-0.38713186"><ele>15.4</ele><time>2022-11-02T16:20:15.0000000+00:00</time></trkpt><trkpt lat="39.47771561" lon="-0.38713672"><ele>15.4</ele><time>2022-11-02T16:20:16.0000000+00:00</time></trkpt><trkpt lat="39.47770765" lon="-0.38713169"><ele>15.4</ele><time>2022-11-02T16:20:17.0000000+00:00</time></trkpt><trkpt lat="39.47769868" lon="-0.38712884"><ele>15.4</ele><time>2022-11-02T16:20:18.0000000+00:00</time></trkpt><trkpt lat="39.47768569" lon="-0.38713295"><ele>15.4</ele><time>2022-11-02T16:20:19.0000000+00:00</time></trkpt><trkpt lat="39.47767681" lon="-0.38713991"><ele>15.4</ele><time>2022-11-02T16:20:20.0000000+00:00</time></trkpt><trkpt lat="39.47766985" lon="-0.38714879"><ele>15.4</ele><time>2022-11-02T16:20:21.0000000+00:00</time></trkpt><trkpt lat="39.47766817" lon="-0.38715131"><ele>15.4</ele><time>2022-11-02T16:20:22.0000000+00:00</time></trkpt><trkpt lat="39.47766817" lon="-0.38715131"><ele>15.4</ele><time>2022-11-02T16:20:23.0000000+00:00</time></trkpt><trkpt lat="39.47766817" lon="-0.38715131"><ele>15.4</ele><time>2022-11-02T16:20:24.0000000+00:00</time></trkpt><trkpt lat="39.47766817" lon="-0.38715131"><ele>15.4</ele><time>2022-11-02T16:20:25.0000000+00:00</time></trkpt><trkpt lat="39.47766851" lon="-0.38715013"><ele>15.2</ele><time>2022-11-02T16:20:26.0000000+00:00</time></trkpt><trkpt lat="39.47766683" lon="-0.38714854"><ele>15.2</ele><time>2022-11-02T16:20:27.0000000+00:00</time></trkpt><trkpt lat="39.47766624" lon="-0.38715114"><ele>15.2</ele><time>2022-11-02T16:20:28.0000000+00:00</time></trkpt><trkpt lat="39.47766599" lon="-0.38715516"><ele>15.2</ele><time>2022-11-02T16:20:29.0000000+00:00</time></trkpt><trkpt lat="39.47766675" lon="-0.38715986"><ele>15.2</ele><time>2022-11-02T16:20:30.0000000+00:00</time></trkpt><trkpt lat="39.47766029" lon="-0.38716732"><ele>15.2</ele><time>2022-11-02T16:20:31.0000000+00:00</time></trkpt><trkpt lat="39.47765828" lon="-0.38716916"><ele>15.2</ele><time>2022-11-02T16:20:32.0000000+00:00</time></trkpt><trkpt lat="39.47765996" lon="-0.38716866"><ele>15.2</ele><time>2022-11-02T16:20:33.0000000+00:00</time></trkpt><trkpt lat="39.47765736" lon="-0.38716857"><ele>15.2</ele><time>2022-11-02T16:20:34.0000000+00:00</time></trkpt><trkpt lat="39.4776618" lon="-0.38716648"><ele>15.2</ele><time>2022-11-02T16:20:35.0000000+00:00</time></trkpt><trkpt lat="39.47765619" lon="-0.38717201"><ele>15.2</ele><time>2022-11-02T16:20:36.0000000+00:00</time></trkpt><trkpt lat="39.47765702" lon="-0.38717201"><ele>15.2</ele><time>2022-11-02T16:20:37.0000000+00:00</time></trkpt><trkpt lat="39.47765518" lon="-0.38717561"><ele>15.4</ele><time>2022-11-02T16:20:38.0000000+00:00</time></trkpt><trkpt lat="39.47765241" lon="-0.38717863"><ele>15.4</ele><time>2022-11-02T16:20:39.0000000+00:00</time></trkpt><trkpt lat="39.47765283" lon="-0.38717838"><ele>15.4</ele><time>2022-11-02T16:20:40.0000000+00:00</time></trkpt><trkpt lat="39.47765233" lon="-0.38717947"><ele>15.4</ele><time>2022-11-02T16:20:41.0000000+00:00</time></trkpt><trkpt lat="39.47765476" lon="-0.38717746"><ele>15.4</ele><time>2022-11-02T16:20:42.0000000+00:00</time></trkpt><trkpt lat="39.47764889" lon="-0.38718349"><ele>15.4</ele><time>2022-11-02T16:20:43.0000000+00:00</time></trkpt><trkpt lat="39.47764026" lon="-0.38718651"><ele>15.4</ele><time>2022-11-02T16:20:44.0000000+00:00</time></trkpt><trkpt lat="39.4776188" lon="-0.38719288"><ele>15.4</ele><time>2022-11-02T16:20:45.0000000+00:00</time></trkpt><trkpt lat="39.47761729" lon="-0.38719548"><ele>15.4</ele><time>2022-11-02T16:20:46.0000000+00:00</time></trkpt><trkpt lat="39.47761746" lon="-0.38720059"><ele>15.4</ele><time>2022-11-02T16:20:47.0000000+00:00</time></trkpt><trkpt lat="39.47761545" lon="-0.38720395"><ele>15.4</ele><time>2022-11-02T16:20:48.0000000+00:00</time></trkpt><trkpt lat="39.47761235" lon="-0.38720269"><ele>15.4</ele><time>2022-11-02T16:20:49.0000000+00:00</time></trkpt><trkpt lat="39.47761201" lon="-0.3871985"><ele>15.4</ele><time>2022-11-02T16:20:50.0000000+00:00</time></trkpt><trkpt lat="39.47760179" lon="-0.38720118"><ele>15.4</ele><time>2022-11-02T16:20:51.0000000+00:00</time></trkpt><trkpt lat="39.47759651" lon="-0.38720361"><ele>15.4</ele><time>2022-11-02T16:20:52.0000000+00:00</time></trkpt><trkpt lat="39.47760615" lon="-0.38720143"><ele>15.4</ele><time>2022-11-02T16:20:53.0000000+00:00</time></trkpt><trkpt lat="39.47761998" lon="-0.38719934"><ele>15.4</ele><time>2022-11-02T16:20:54.0000000+00:00</time></trkpt><trkpt lat="39.47762987" lon="-0.38719741"><ele>15.4</ele><time>2022-11-02T16:20:55.0000000+00:00</time></trkpt><trkpt lat="39.47764378" lon="-0.38719255"><ele>15.4</ele><time>2022-11-02T16:20:56.0000000+00:00</time></trkpt><trkpt lat="39.47764789" lon="-0.38719129"><ele>15.4</ele><time>2022-11-02T16:20:57.0000000+00:00</time></trkpt><trkpt lat="39.47764789" lon="-0.38718701"><ele>15.4</ele><time>2022-11-02T16:20:58.0000000+00:00</time></trkpt><trkpt lat="39.47764571" lon="-0.3871938"><ele>15.4</ele><time>2022-11-02T16:20:59.0000000+00:00</time></trkpt><trkpt lat="39.47763582" lon="-0.38720638"><ele>15.4</ele><time>2022-11-02T16:21:00.0000000+00:00</time></trkpt><trkpt lat="39.4776333" lon="-0.38722004"><ele>15.4</ele><time>2022-11-02T16:21:01.0000000+00:00</time></trkpt><trkpt lat="39.47763406" lon="-0.38722959"><ele>15.4</ele><time>2022-11-02T16:21:02.0000000+00:00</time></trkpt><trkpt lat="39.47763825" lon="-0.38724124"><ele>15.4</ele><time>2022-11-02T16:21:03.0000000+00:00</time></trkpt><trkpt lat="39.47763733" lon="-0.38725097"><ele>15.4</ele><time>2022-11-02T16:21:04.0000000+00:00</time></trkpt><trkpt lat="39.47763967" lon="-0.38725466"><ele>15.4</ele><time>2022-11-02T16:21:05.0000000+00:00</time></trkpt><trkpt lat="39.47764336" lon="-0.38725206"><ele>15.4</ele><time>2022-11-02T16:21:06.0000000+00:00</time></trkpt><trkpt lat="39.47763909" lon="-0.38725642"><ele>15.4</ele><time>2022-11-02T16:21:07.0000000+00:00</time></trkpt><trkpt lat="39.47763791" lon="-0.38726153"><ele>15.4</ele><time>2022-11-02T16:21:08.0000000+00:00</time></trkpt><trkpt lat="39.47763288" lon="-0.38726916"><ele>15.4</ele><time>2022-11-02T16:21:09.0000000+00:00</time></trkpt><trkpt lat="39.47763221" lon="-0.38727528"><ele>15.4</ele><time>2022-11-02T16:21:10.0000000+00:00</time></trkpt><trkpt lat="39.47764085" lon="-0.38726999"><ele>15.4</ele><time>2022-11-02T16:21:11.0000000+00:00</time></trkpt><trkpt lat="39.47763423" lon="-0.38727569"><ele>15.4</ele><time>2022-11-02T16:21:12.0000000+00:00</time></trkpt><trkpt lat="39.47762593" lon="-0.38728299"><ele>15.4</ele><time>2022-11-02T16:21:13.0000000+00:00</time></trkpt><trkpt lat="39.47762023" lon="-0.38728709"><ele>15.4</ele><time>2022-11-02T16:21:14.0000000+00:00</time></trkpt><trkpt lat="39.47761453" lon="-0.3872917"><ele>15.4</ele><time>2022-11-02T16:21:15.0000000+00:00</time></trkpt><trkpt lat="39.47761553" lon="-0.38729548"><ele>15.4</ele><time>2022-11-02T16:21:16.0000000+00:00</time></trkpt><trkpt lat="39.47760807" lon="-0.38729916"><ele>15.4</ele><time>2022-11-02T16:21:17.0000000+00:00</time></trkpt><trkpt lat="39.47760162" lon="-0.38729849"><ele>15.4</ele><time>2022-11-02T16:21:18.0000000+00:00</time></trkpt><trkpt lat="39.47760011" lon="-0.38729212"><ele>15.4</ele><time>2022-11-02T16:21:19.0000000+00:00</time></trkpt><trkpt lat="39.47760422" lon="-0.38728458"><ele>15.4</ele><time>2022-11-02T16:21:20.0000000+00:00</time></trkpt><trkpt lat="39.47759785" lon="-0.38728332"><ele>15.4</ele><time>2022-11-02T16:21:21.0000000+00:00</time></trkpt><trkpt lat="39.47759081" lon="-0.38728843"><ele>15.4</ele><time>2022-11-02T16:21:22.0000000+00:00</time></trkpt><trkpt lat="39.4775893" lon="-0.38729187"><ele>15.4</ele><time>2022-11-02T16:21:23.0000000+00:00</time></trkpt><trkpt lat="39.47758921" lon="-0.38729304"><ele>15.4</ele><time>2022-11-02T16:21:24.0000000+00:00</time></trkpt><trkpt lat="39.4775919" lon="-0.38729212"><ele>15.4</ele><time>2022-11-02T16:21:25.0000000+00:00</time></trkpt><trkpt lat="39.4776069" lon="-0.38727854"><ele>15.4</ele><time>2022-11-02T16:21:26.0000000+00:00</time></trkpt><trkpt lat="39.47761788" lon="-0.38726974"><ele>15.6</ele><time>2022-11-02T16:21:27.0000000+00:00</time></trkpt><trkpt lat="39.47762383" lon="-0.38726505"><ele>15.6</ele><time>2022-11-02T16:21:28.0000000+00:00</time></trkpt><trkpt lat="39.47761218" lon="-0.38727125"><ele>15.6</ele><time>2022-11-02T16:21:29.0000000+00:00</time></trkpt><trkpt lat="39.47760263" lon="-0.38727025"><ele>15.6</ele><time>2022-11-02T16:21:30.0000000+00:00</time></trkpt><trkpt lat="39.47758938" lon="-0.3872705"><ele>15.6</ele><time>2022-11-02T16:21:31.0000000+00:00</time></trkpt><trkpt lat="39.47757974" lon="-0.38727159"><ele>15.6</ele><time>2022-11-02T16:21:32.0000000+00:00</time></trkpt><trkpt lat="39.47758729" lon="-0.38726421"><ele>15.6</ele><time>2022-11-02T16:21:33.0000000+00:00</time></trkpt><trkpt lat="39.47759332" lon="-0.38725918"><ele>15.6</ele><time>2022-11-02T16:21:34.0000000+00:00</time></trkpt><trkpt lat="39.47759274" lon="-0.38725549"><ele>15.6</ele><time>2022-11-02T16:21:35.0000000+00:00</time></trkpt><trkpt lat="39.47759123" lon="-0.38725298"><ele>15.6</ele><time>2022-11-02T16:21:36.0000000+00:00</time></trkpt><trkpt lat="39.47759114" lon="-0.3872534"><ele>15.6</ele><time>2022-11-02T16:21:37.0000000+00:00</time></trkpt><trkpt lat="39.47759022" lon="-0.38725424"><ele>15.6</ele><time>2022-11-02T16:21:38.0000000+00:00</time></trkpt><trkpt lat="39.47758913" lon="-0.38725415"><ele>15.6</ele><time>2022-11-02T16:21:39.0000000+00:00</time></trkpt><trkpt lat="39.47758913" lon="-0.38725415"><ele>15.6</ele><time>2022-11-02T16:21:40.0000000+00:00</time></trkpt><trkpt lat="39.47758913" lon="-0.38725415"><ele>15.6</ele><time>2022-11-02T16:21:41.0000000+00:00</time></trkpt><trkpt lat="39.47758913" lon="-0.38725415"><ele>15.6</ele><time>2022-11-02T16:21:42.0000000+00:00</time></trkpt><trkpt lat="39.47758913" lon="-0.38725415"><ele>15.6</ele><time>2022-11-02T16:21:43.0000000+00:00</time></trkpt><trkpt lat="39.47758913" lon="-0.38725415"><ele>15.6</ele><time>2022-11-02T16:21:44.0000000+00:00</time></trkpt><trkpt lat="39.47758913" lon="-0.38725415"><ele>15.6</ele><time>2022-11-02T16:21:45.0000000+00:00</time></trkpt><trkpt lat="39.47758913" lon="-0.38725415"><ele>15.6</ele><time>2022-11-02T16:21:46.0000000+00:00</time></trkpt><trkpt lat="39.47758913" lon="-0.38725415"><ele>15.6</ele><time>2022-11-02T16:21:47.0000000+00:00</time></trkpt><trkpt lat="39.47758913" lon="-0.38725415"><ele>15.6</ele><time>2022-11-02T16:21:48.0000000+00:00</time></trkpt><trkpt lat="39.47758913" lon="-0.38725415"><ele>15.6</ele><time>2022-11-02T16:21:49.0000000+00:00</time></trkpt><trkpt lat="39.47758913" lon="-0.38725415"><ele>15.6</ele><time>2022-11-02T16:21:50.0000000+00:00</time></trkpt><trkpt lat="39.47758938" lon="-0.38725415"><ele>15.6</ele><time>2022-11-02T16:21:51.0000000+00:00</time></trkpt><trkpt lat="39.47759022" lon="-0.38725415"><ele>15.6</ele><time>2022-11-02T16:21:52.0000000+00:00</time></trkpt><trkpt lat="39.47759106" lon="-0.38725415"><ele>15.6</ele><time>2022-11-02T16:21:53.0000000+00:00</time></trkpt><trkpt lat="39.47759123" lon="-0.38725415"><ele>15.6</ele><time>2022-11-02T16:21:54.0000000+00:00</time></trkpt><trkpt lat="39.47759181" lon="-0.38725415"><ele>15.6</ele><time>2022-11-02T16:21:55.0000000+00:00</time></trkpt><trkpt lat="39.47759265" lon="-0.38725415"><ele>15.6</ele><time>2022-11-02T16:21:56.0000000+00:00</time></trkpt><trkpt lat="39.47759315" lon="-0.38725415"><ele>15.6</ele><time>2022-11-02T16:21:57.0000000+00:00</time></trkpt><trkpt lat="39.47759324" lon="-0.38725415"><ele>15.6</ele><time>2022-11-02T16:21:58.0000000+00:00</time></trkpt><trkpt lat="39.47759332" lon="-0.3872534"><ele>15.6</ele><time>2022-11-02T16:21:59.0000000+00:00</time></trkpt><trkpt lat="39.47759416" lon="-0.38725315"><ele>15.6</ele><time>2022-11-02T16:22:00.0000000+00:00</time></trkpt><trkpt lat="39.47759433" lon="-0.38725298"><ele>15.6</ele><time>2022-11-02T16:22:01.0000000+00:00</time></trkpt><trkpt lat="39.47759626" lon="-0.38725223"><ele>15.6</ele><time>2022-11-02T16:22:02.0000000+00:00</time></trkpt><trkpt lat="39.47759684" lon="-0.38725046"><ele>15.6</ele><time>2022-11-02T16:22:03.0000000+00:00</time></trkpt><trkpt lat="39.47759709" lon="-0.38724963"><ele>15.6</ele><time>2022-11-02T16:22:04.0000000+00:00</time></trkpt><trkpt lat="39.47759751" lon="-0.38724845"><ele>15.6</ele><time>2022-11-02T16:22:05.0000000+00:00</time></trkpt><trkpt lat="39.47759785" lon="-0.38724795"><ele>15.6</ele><time>2022-11-02T16:22:06.0000000+00:00</time></trkpt><trkpt lat="39.47759818" lon="-0.38724787"><ele>15.6</ele><time>2022-11-02T16:22:07.0000000+00:00</time></trkpt><trkpt lat="39.47759877" lon="-0.38724694"><ele>15.6</ele><time>2022-11-02T16:22:08.0000000+00:00</time></trkpt><trkpt lat="39.47759961" lon="-0.38724644"><ele>15.6</ele><time>2022-11-02T16:22:09.0000000+00:00</time></trkpt><trkpt lat="39.47759978" lon="-0.38724644"><ele>15.6</ele><time>2022-11-02T16:22:10.0000000+00:00</time></trkpt><trkpt lat="39.47760103" lon="-0.38724636"><ele>15.6</ele><time>2022-11-02T16:22:11.0000000+00:00</time></trkpt><trkpt lat="39.47760179" lon="-0.38724636"><ele>15.6</ele><time>2022-11-02T16:22:12.0000000+00:00</time></trkpt><trkpt lat="39.47760279" lon="-0.38724636"><ele>15.6</ele><time>2022-11-02T16:22:13.0000000+00:00</time></trkpt><trkpt lat="39.47760455" lon="-0.38724636"><ele>15.6</ele><time>2022-11-02T16:22:14.0000000+00:00</time></trkpt><trkpt lat="39.47760698" lon="-0.38725608"><ele>15.6</ele><time>2022-11-02T16:22:15.0000000+00:00</time></trkpt><trkpt lat="39.47761671" lon="-0.38725273"><ele>15.6</ele><time>2022-11-02T16:22:16.0000000+00:00</time></trkpt><trkpt lat="39.47761335" lon="-0.38725147"><ele>15.6</ele><time>2022-11-02T16:22:17.0000000+00:00</time></trkpt><trkpt lat="39.4776131" lon="-0.38725717"><ele>15.6</ele><time>2022-11-02T16:22:18.0000000+00:00</time></trkpt><trkpt lat="39.47760665" lon="-0.38726706"><ele>15.6</ele><time>2022-11-02T16:22:19.0000000+00:00</time></trkpt><trkpt lat="39.47759735" lon="-0.38727787"><ele>15.6</ele><time>2022-11-02T16:22:20.0000000+00:00</time></trkpt><trkpt lat="39.47759877" lon="-0.38728408"><ele>15.6</ele><time>2022-11-02T16:22:21.0000000+00:00</time></trkpt><trkpt lat="39.47759039" lon="-0.38729053"><ele>15.6</ele><time>2022-11-02T16:22:22.0000000+00:00</time></trkpt><trkpt lat="39.47758645" lon="-0.38729313"><ele>15.6</ele><time>2022-11-02T16:22:23.0000000+00:00</time></trkpt><trkpt lat="39.47757446" lon="-0.3872964"><ele>15.6</ele><time>2022-11-02T16:22:24.0000000+00:00</time></trkpt><trkpt lat="39.47757463" lon="-0.38729405"><ele>15.6</ele><time>2022-11-02T16:22:25.0000000+00:00</time></trkpt><trkpt lat="39.47757513" lon="-0.38729363"><ele>15.6</ele><time>2022-11-02T16:22:26.0000000+00:00</time></trkpt><trkpt lat="39.47757488" lon="-0.38729388"><ele>15.6</ele><time>2022-11-02T16:22:27.0000000+00:00</time></trkpt><trkpt lat="39.47758419" lon="-0.38729221"><ele>15.6</ele><time>2022-11-02T16:22:28.0000000+00:00</time></trkpt><trkpt lat="39.47759667" lon="-0.38729346"><ele>15.6</ele><time>2022-11-02T16:22:29.0000000+00:00</time></trkpt><trkpt lat="39.47759533" lon="-0.38729916"><ele>15.6</ele><time>2022-11-02T16:22:30.0000000+00:00</time></trkpt><trkpt lat="39.47759433" lon="-0.38730822"><ele>15.6</ele><time>2022-11-02T16:22:31.0000000+00:00</time></trkpt><trkpt lat="39.47759039" lon="-0.38731392"><ele>15.6</ele><time>2022-11-02T16:22:32.0000000+00:00</time></trkpt><trkpt lat="39.47758134" lon="-0.38731827"><ele>15.6</ele><time>2022-11-02T16:22:33.0000000+00:00</time></trkpt><trkpt lat="39.47757949" lon="-0.38732037"><ele>15.6</ele><time>2022-11-02T16:22:34.0000000+00:00</time></trkpt><trkpt lat="39.47757773" lon="-0.38732138"><ele>15.6</ele><time>2022-11-02T16:22:35.0000000+00:00</time></trkpt><trkpt lat="39.47757564" lon="-0.38732104"><ele>15.6</ele><time>2022-11-02T16:22:36.0000000+00:00</time></trkpt><trkpt lat="39.47757337" lon="-0.38732029"><ele>15.6</ele><time>2022-11-02T16:22:37.0000000+00:00</time></trkpt><trkpt lat="39.47757279" lon="-0.38731945"><ele>15.6</ele><time>2022-11-02T16:22:38.0000000+00:00</time></trkpt><trkpt lat="39.47757212" lon="-0.38731936"><ele>15.6</ele><time>2022-11-02T16:22:39.0000000+00:00</time></trkpt><trkpt lat="39.47756776" lon="-0.38732314"><ele>15.6</ele><time>2022-11-02T16:22:40.0000000+00:00</time></trkpt><trkpt lat="39.47756474" lon="-0.3873259"><ele>15.6</ele><time>2022-11-02T16:22:41.0000000+00:00</time></trkpt><trkpt lat="39.47755845" lon="-0.38732657"><ele>15.6</ele><time>2022-11-02T16:22:42.0000000+00:00</time></trkpt><trkpt lat="39.4775556" lon="-0.38732691"><ele>15.6</ele><time>2022-11-02T16:22:43.0000000+00:00</time></trkpt><trkpt lat="39.47755611" lon="-0.38732758"><ele>15.6</ele><time>2022-11-02T16:22:44.0000000+00:00</time></trkpt><trkpt lat="39.47756189" lon="-0.38733001"><ele>15.6</ele><time>2022-11-02T16:22:45.0000000+00:00</time></trkpt><trkpt lat="39.4775613" lon="-0.3873342"><ele>15.6</ele><time>2022-11-02T16:22:46.0000000+00:00</time></trkpt><trkpt lat="39.47756239" lon="-0.38734225"><ele>15.6</ele><time>2022-11-02T16:22:47.0000000+00:00</time></trkpt><trkpt lat="39.47756172" lon="-0.38734593"><ele>15.6</ele><time>2022-11-02T16:22:48.0000000+00:00</time></trkpt><trkpt lat="39.47755493" lon="-0.38735323"><ele>15.6</ele><time>2022-11-02T16:22:49.0000000+00:00</time></trkpt><trkpt lat="39.47755351" lon="-0.38735893"><ele>15.6</ele><time>2022-11-02T16:22:50.0000000+00:00</time></trkpt><trkpt lat="39.4775551" lon="-0.38736404"><ele>15.6</ele><time>2022-11-02T16:22:51.0000000+00:00</time></trkpt><trkpt lat="39.4775551" lon="-0.38736002"><ele>15.6</ele><time>2022-11-02T16:22:52.0000000+00:00</time></trkpt><trkpt lat="39.4775551" lon="-0.38736002"><ele>15.6</ele><time>2022-11-02T16:22:53.0000000+00:00</time></trkpt><trkpt lat="39.4775551" lon="-0.38736002"><ele>15.6</ele><time>2022-11-02T16:22:54.0000000+00:00</time></trkpt><trkpt lat="39.4775551" lon="-0.38736002"><ele>15.6</ele><time>2022-11-02T16:22:55.0000000+00:00</time></trkpt><trkpt lat="39.4775551" lon="-0.38736002"><ele>15.6</ele><time>2022-11-02T16:22:56.0000000+00:00</time></trkpt><trkpt lat="39.4775551" lon="-0.38736002"><ele>15.6</ele><time>2022-11-02T16:22:57.0000000+00:00</time></trkpt><trkpt lat="39.4775551" lon="-0.38736002"><ele>15.6</ele><time>2022-11-02T16:22:58.0000000+00:00</time></trkpt><trkpt lat="39.4775551" lon="-0.38736002"><ele>15.6</ele><time>2022-11-02T16:22:59.0000000+00:00</time></trkpt><trkpt lat="39.4775551" lon="-0.38736002"><ele>15.6</ele><time>2022-11-02T16:23:00.0000000+00:00</time></trkpt><trkpt lat="39.4775551" lon="-0.38735893"><ele>15.6</ele><time>2022-11-02T16:23:01.0000000+00:00</time></trkpt><trkpt lat="39.4775551" lon="-0.38735893"><ele>15.6</ele><time>2022-11-02T16:23:02.0000000+00:00</time></trkpt><trkpt lat="39.4775551" lon="-0.38735893"><ele>15.6</ele><time>2022-11-02T16:23:03.0000000+00:00</time></trkpt><trkpt lat="39.4775551" lon="-0.38735893"><ele>15.6</ele><time>2022-11-02T16:23:04.0000000+00:00</time></trkpt><trkpt lat="39.4775551" lon="-0.38735893"><ele>15.6</ele><time>2022-11-02T16:23:05.0000000+00:00</time></trkpt><trkpt lat="39.4775551" lon="-0.38735893"><ele>15.6</ele><time>2022-11-02T16:23:06.0000000+00:00</time></trkpt><trkpt lat="39.4775551" lon="-0.38735893"><ele>15.6</ele><time>2022-11-02T16:23:07.0000000+00:00</time></trkpt><trkpt lat="39.4775551" lon="-0.38735893"><ele>15.6</ele><time>2022-11-02T16:23:08.0000000+00:00</time></trkpt><trkpt lat="39.47755158" lon="-0.38736329"><ele>15.6</ele><time>2022-11-02T16:23:09.0000000+00:00</time></trkpt><trkpt lat="39.47754077" lon="-0.387371"><ele>15.6</ele><time>2022-11-02T16:23:10.0000000+00:00</time></trkpt><trkpt lat="39.47753691" lon="-0.38737561"><ele>15.6</ele><time>2022-11-02T16:23:11.0000000+00:00</time></trkpt><trkpt lat="39.47753348" lon="-0.38738131"><ele>15.6</ele><time>2022-11-02T16:23:12.0000000+00:00</time></trkpt><trkpt lat="39.47752962" lon="-0.38738717"><ele>15.6</ele><time>2022-11-02T16:23:13.0000000+00:00</time></trkpt><trkpt lat="39.47752727" lon="-0.38738868"><ele>15.6</ele><time>2022-11-02T16:23:14.0000000+00:00</time></trkpt><trkpt lat="39.47752568" lon="-0.38739421"><ele>15.6</ele><time>2022-11-02T16:23:15.0000000+00:00</time></trkpt><trkpt lat="39.47752878" lon="-0.38739941"><ele>15.6</ele><time>2022-11-02T16:23:16.0000000+00:00</time></trkpt><trkpt lat="39.47753339" lon="-0.38740486"><ele>15.6</ele><time>2022-11-02T16:23:17.0000000+00:00</time></trkpt><trkpt lat="39.47753725" lon="-0.387415"><ele>15.6</ele><time>2022-11-02T16:23:18.0000000+00:00</time></trkpt><trkpt lat="39.47754211" lon="-0.38741567"><ele>15.6</ele><time>2022-11-02T16:23:19.0000000+00:00</time></trkpt><trkpt lat="39.47755426" lon="-0.38741006"><ele>15.6</ele><time>2022-11-02T16:23:20.0000000+00:00</time></trkpt><trkpt lat="39.47756164" lon="-0.38741064"><ele>15.6</ele><time>2022-11-02T16:23:21.0000000+00:00</time></trkpt><trkpt lat="39.47756524" lon="-0.38740905"><ele>15.6</ele><time>2022-11-02T16:23:22.0000000+00:00</time></trkpt><trkpt lat="39.47757279" lon="-0.38740587"><ele>15.6</ele><time>2022-11-02T16:23:23.0000000+00:00</time></trkpt><trkpt lat="39.47757681" lon="-0.38740595"><ele>15.6</ele><time>2022-11-02T16:23:24.0000000+00:00</time></trkpt><trkpt lat="39.47758033" lon="-0.38740519"><ele>15.6</ele><time>2022-11-02T16:23:25.0000000+00:00</time></trkpt><trkpt lat="39.4775831" lon="-0.38741073"><ele>15.6</ele><time>2022-11-02T16:23:26.0000000+00:00</time></trkpt><trkpt lat="39.47759056" lon="-0.38741567"><ele>15.6</ele><time>2022-11-02T16:23:27.0000000+00:00</time></trkpt><trkpt lat="39.4776017" lon="-0.3874155"><ele>15.6</ele><time>2022-11-02T16:23:28.0000000+00:00</time></trkpt><trkpt lat="39.47760372" lon="-0.38742179"><ele>15.6</ele><time>2022-11-02T16:23:29.0000000+00:00</time></trkpt><trkpt lat="39.47761394" lon="-0.38742129"><ele>15.6</ele><time>2022-11-02T16:23:30.0000000+00:00</time></trkpt><trkpt lat="39.47762568" lon="-0.38741869"><ele>15.6</ele><time>2022-11-02T16:23:31.0000000+00:00</time></trkpt><trkpt lat="39.47763339" lon="-0.38741517"><ele>15.6</ele><time>2022-11-02T16:23:32.0000000+00:00</time></trkpt><trkpt lat="39.47763481" lon="-0.38741634"><ele>15.6</ele><time>2022-11-02T16:23:33.0000000+00:00</time></trkpt><trkpt lat="39.47763942" lon="-0.38741869"><ele>15.6</ele><time>2022-11-02T16:23:34.0000000+00:00</time></trkpt><trkpt lat="39.47764395" lon="-0.38742296"><ele>15.6</ele><time>2022-11-02T16:23:35.0000000+00:00</time></trkpt><trkpt lat="39.47766398" lon="-0.38740385"><ele>15.6</ele><time>2022-11-02T16:23:36.0000000+00:00</time></trkpt><trkpt lat="39.47768594" lon="-0.38738122"><ele>15.6</ele><time>2022-11-02T16:23:37.0000000+00:00</time></trkpt><trkpt lat="39.47769156" lon="-0.38737007"><ele>15.6</ele><time>2022-11-02T16:23:38.0000000+00:00</time></trkpt><trkpt lat="39.47769013" lon="-0.3873741"><ele>15.6</ele><time>2022-11-02T16:23:39.0000000+00:00</time></trkpt><trkpt lat="39.47769407" lon="-0.3873767"><ele>15.6</ele><time>2022-11-02T16:23:40.0000000+00:00</time></trkpt><trkpt lat="39.47770162" lon="-0.38737586"><ele>15.6</ele><time>2022-11-02T16:23:41.0000000+00:00</time></trkpt><trkpt lat="39.47770547" lon="-0.38737326"><ele>15.6</ele><time>2022-11-02T16:23:42.0000000+00:00</time></trkpt><trkpt lat="39.47770706" lon="-0.38736722"><ele>15.6</ele><time>2022-11-02T16:23:43.0000000+00:00</time></trkpt><trkpt lat="39.47771109" lon="-0.38735616"><ele>15.6</ele><time>2022-11-02T16:23:44.0000000+00:00</time></trkpt><trkpt lat="39.47771612" lon="-0.3873435"><ele>15.6</ele><time>2022-11-02T16:23:45.0000000+00:00</time></trkpt><trkpt lat="39.47772232" lon="-0.38733671"><ele>15.6</ele><time>2022-11-02T16:23:46.0000000+00:00</time></trkpt><trkpt lat="39.47772224" lon="-0.3873337"><ele>15.6</ele><time>2022-11-02T16:23:47.0000000+00:00</time></trkpt><trkpt lat="39.47772835" lon="-0.3873311"><ele>15.6</ele><time>2022-11-02T16:23:48.0000000+00:00</time></trkpt><trkpt lat="39.47773204" lon="-0.38732263"><ele>15.6</ele><time>2022-11-02T16:23:49.0000000+00:00</time></trkpt><trkpt lat="39.47774034" lon="-0.38732154"><ele>15.6</ele><time>2022-11-02T16:23:50.0000000+00:00</time></trkpt><trkpt lat="39.4777447" lon="-0.38733403"><ele>15.6</ele><time>2022-11-02T16:23:51.0000000+00:00</time></trkpt><trkpt lat="39.47774814" lon="-0.38734719"><ele>15.6</ele><time>2022-11-02T16:23:52.0000000+00:00</time></trkpt><trkpt lat="39.47775484" lon="-0.38735004"><ele>15.6</ele><time>2022-11-02T16:23:53.0000000+00:00</time></trkpt><trkpt lat="39.47776213" lon="-0.38734711"><ele>15.6</ele><time>2022-11-02T16:23:54.0000000+00:00</time></trkpt><trkpt lat="39.47776859" lon="-0.38734929"><ele>15.6</ele><time>2022-11-02T16:23:55.0000000+00:00</time></trkpt><trkpt lat="39.47777806" lon="-0.38735063"><ele>15.6</ele><time>2022-11-02T16:23:56.0000000+00:00</time></trkpt><trkpt lat="39.47780111" lon="-0.38734543"><ele>15.6</ele><time>2022-11-02T16:23:57.0000000+00:00</time></trkpt><trkpt lat="39.47781762" lon="-0.38733194"><ele>15.6</ele><time>2022-11-02T16:23:58.0000000+00:00</time></trkpt><trkpt lat="39.47782005" lon="-0.38732607"><ele>15.6</ele><time>2022-11-02T16:23:59.0000000+00:00</time></trkpt><trkpt lat="39.47781972" lon="-0.38731836"><ele>15.6</ele><time>2022-11-02T16:24:00.0000000+00:00</time></trkpt><trkpt lat="39.47782156" lon="-0.38731467"><ele>15.6</ele><time>2022-11-02T16:24:01.0000000+00:00</time></trkpt><trkpt lat="39.4778224" lon="-0.38730243"><ele>15.6</ele><time>2022-11-02T16:24:02.0000000+00:00</time></trkpt><trkpt lat="39.47782357" lon="-0.38729481"><ele>15.6</ele><time>2022-11-02T16:24:03.0000000+00:00</time></trkpt><trkpt lat="39.47781066" lon="-0.3872933"><ele>15.6</ele><time>2022-11-02T16:24:04.0000000+00:00</time></trkpt><trkpt lat="39.47781209" lon="-0.38729204"><ele>15.6</ele><time>2022-11-02T16:24:05.0000000+00:00</time></trkpt><trkpt lat="39.47781301" lon="-0.38729103"><ele>15.8</ele><time>2022-11-02T16:24:06.0000000+00:00</time></trkpt><trkpt lat="39.47780781" lon="-0.3872938"><ele>15.8</ele><time>2022-11-02T16:24:07.0000000+00:00</time></trkpt><trkpt lat="39.47780052" lon="-0.38729975"><ele>15.8</ele><time>2022-11-02T16:24:08.0000000+00:00</time></trkpt><trkpt lat="39.47779725" lon="-0.38730302"><ele>16.0</ele><time>2022-11-02T16:24:09.0000000+00:00</time></trkpt><trkpt lat="39.47777772" lon="-0.38730788"><ele>16.0</ele><time>2022-11-02T16:24:10.0000000+00:00</time></trkpt><trkpt lat="39.47776255" lon="-0.38730503"><ele>16.0</ele><time>2022-11-02T16:24:11.0000000+00:00</time></trkpt><trkpt lat="39.47776113" lon="-0.38729849"><ele>16.0</ele><time>2022-11-02T16:24:12.0000000+00:00</time></trkpt><trkpt lat="39.47775476" lon="-0.3873005"><ele>16.0</ele><time>2022-11-02T16:24:13.0000000+00:00</time></trkpt><trkpt lat="39.47775518" lon="-0.38730302"><ele>16.0</ele><time>2022-11-02T16:24:14.0000000+00:00</time></trkpt><trkpt lat="39.47775166" lon="-0.3873083"><ele>16.0</ele><time>2022-11-02T16:24:15.0000000+00:00</time></trkpt><trkpt lat="39.47776482" lon="-0.38731123"><ele>16.0</ele><time>2022-11-02T16:24:16.0000000+00:00</time></trkpt><trkpt lat="39.47776599" lon="-0.3873052"><ele>16.0</ele><time>2022-11-02T16:24:17.0000000+00:00</time></trkpt><trkpt lat="39.47776289" lon="-0.38729229"><ele>16.0</ele><time>2022-11-02T16:24:18.0000000+00:00</time></trkpt><trkpt lat="39.47775099" lon="-0.38728961"><ele>16.0</ele><time>2022-11-02T16:24:19.0000000+00:00</time></trkpt><trkpt lat="39.4777385" lon="-0.38728609"><ele>16.0</ele><time>2022-11-02T16:24:20.0000000+00:00</time></trkpt><trkpt lat="39.47773196" lon="-0.38728508"><ele>16.0</ele><time>2022-11-02T16:24:21.0000000+00:00</time></trkpt><trkpt lat="39.47773347" lon="-0.38728299"><ele>16.0</ele><time>2022-11-02T16:24:22.0000000+00:00</time></trkpt><trkpt lat="39.47774286" lon="-0.38727896"><ele>16.0</ele><time>2022-11-02T16:24:23.0000000+00:00</time></trkpt><trkpt lat="39.47774495" lon="-0.38727142"><ele>16.0</ele><time>2022-11-02T16:24:24.0000000+00:00</time></trkpt><trkpt lat="39.47774135" lon="-0.38726438"><ele>16.0</ele><time>2022-11-02T16:24:25.0000000+00:00</time></trkpt><trkpt lat="39.47772542" lon="-0.38725776"><ele>16.0</ele><time>2022-11-02T16:24:26.0000000+00:00</time></trkpt><trkpt lat="39.47770162" lon="-0.38724594"><ele>16.0</ele><time>2022-11-02T16:24:27.0000000+00:00</time></trkpt><trkpt lat="39.47770204" lon="-0.3872446"><ele>16.0</ele><time>2022-11-02T16:24:28.0000000+00:00</time></trkpt><trkpt lat="39.47769256" lon="-0.38724753"><ele>16.0</ele><time>2022-11-02T16:24:29.0000000+00:00</time></trkpt><trkpt lat="39.47769885" lon="-0.38722917"><ele>16.0</ele><time>2022-11-02T16:24:30.0000000+00:00</time></trkpt><trkpt lat="39.47770128" lon="-0.38721887"><ele>16.0</ele><time>2022-11-02T16:24:31.0000000+00:00</time></trkpt><trkpt lat="39.47769365" lon="-0.38721828"><ele>16.0</ele><time>2022-11-02T16:24:32.0000000+00:00</time></trkpt><trkpt lat="39.47769399" lon="-0.38721006"><ele>16.0</ele><time>2022-11-02T16:24:33.0000000+00:00</time></trkpt><trkpt lat="39.47770145" lon="-0.38719766"><ele>16.0</ele><time>2022-11-02T16:24:34.0000000+00:00</time></trkpt><trkpt lat="39.47770656" lon="-0.38719355"><ele>16.0</ele><time>2022-11-02T16:24:35.0000000+00:00</time></trkpt><trkpt lat="39.47772265" lon="-0.38718735"><ele>16.0</ele><time>2022-11-02T16:24:36.0000000+00:00</time></trkpt><trkpt lat="39.4777307" lon="-0.3871876"><ele>16.2</ele><time>2022-11-02T16:24:37.0000000+00:00</time></trkpt><trkpt lat="39.47773338" lon="-0.38718919"><ele>16.2</ele><time>2022-11-02T16:24:38.0000000+00:00</time></trkpt><trkpt lat="39.47773405" lon="-0.38719095"><ele>16.2</ele><time>2022-11-02T16:24:39.0000000+00:00</time></trkpt><trkpt lat="39.47773389" lon="-0.38719305"><ele>16.2</ele><time>2022-11-02T16:24:40.0000000+00:00</time></trkpt><trkpt lat="39.47773129" lon="-0.38719732"><ele>16.2</ele><time>2022-11-02T16:24:41.0000000+00:00</time></trkpt><trkpt lat="39.47772953" lon="-0.38720009"><ele>16.2</ele><time>2022-11-02T16:24:42.0000000+00:00</time></trkpt><trkpt lat="39.47773724" lon="-0.38720034"><ele>16.0</ele><time>2022-11-02T16:24:43.0000000+00:00</time></trkpt><trkpt lat="39.47778971" lon="-0.38718324"><ele>16.2</ele><time>2022-11-02T16:24:44.0000000+00:00</time></trkpt><trkpt lat="39.47782324" lon="-0.38716371"><ele>16.2</ele><time>2022-11-02T16:24:45.0000000+00:00</time></trkpt><trkpt lat="39.47781653" lon="-0.38717402"><ele>16.2</ele><time>2022-11-02T16:24:46.0000000+00:00</time></trkpt><trkpt lat="39.47782148" lon="-0.38718383"><ele>16.2</ele><time>2022-11-02T16:24:47.0000000+00:00</time></trkpt><trkpt lat="39.477826" lon="-0.38719573"><ele>16.2</ele><time>2022-11-02T16:24:48.0000000+00:00</time></trkpt><trkpt lat="39.47782508" lon="-0.38720755"><ele>16.2</ele><time>2022-11-02T16:24:49.0000000+00:00</time></trkpt><trkpt lat="39.47782768" lon="-0.38721811"><ele>16.2</ele><time>2022-11-02T16:24:50.0000000+00:00</time></trkpt><trkpt lat="39.47783162" lon="-0.3872363"><ele>16.2</ele><time>2022-11-02T16:24:51.0000000+00:00</time></trkpt><trkpt lat="39.47783355" lon="-0.38726019"><ele>16.2</ele><time>2022-11-02T16:24:52.0000000+00:00</time></trkpt><trkpt lat="39.47783765" lon="-0.38727678"><ele>16.4</ele><time>2022-11-02T16:24:53.0000000+00:00</time></trkpt><trkpt lat="39.47784595" lon="-0.38728424"><ele>16.4</ele><time>2022-11-02T16:24:54.0000000+00:00</time></trkpt><trkpt lat="39.477854" lon="-0.38729087"><ele>16.4</ele><time>2022-11-02T16:24:55.0000000+00:00</time></trkpt><trkpt lat="39.47786632" lon="-0.38729908"><ele>16.4</ele><time>2022-11-02T16:24:56.0000000+00:00</time></trkpt><trkpt lat="39.47787168" lon="-0.38730864"><ele>16.4</ele><time>2022-11-02T16:24:57.0000000+00:00</time></trkpt><trkpt lat="39.47787135" lon="-0.38730905"><ele>16.4</ele><time>2022-11-02T16:24:58.0000000+00:00</time></trkpt><trkpt lat="39.47787806" lon="-0.38730646"><ele>16.4</ele><time>2022-11-02T16:24:59.0000000+00:00</time></trkpt><trkpt lat="39.47787571" lon="-0.38731467"><ele>16.4</ele><time>2022-11-02T16:25:00.0000000+00:00</time></trkpt><trkpt lat="39.4778721" lon="-0.38732548"><ele>16.2</ele><time>2022-11-02T16:25:01.0000000+00:00</time></trkpt><trkpt lat="39.47786607" lon="-0.38733604"><ele>16.2</ele><time>2022-11-02T16:25:02.0000000+00:00</time></trkpt><trkpt lat="39.47787252" lon="-0.38733303"><ele>16.2</ele><time>2022-11-02T16:25:03.0000000+00:00</time></trkpt><trkpt lat="39.47788375" lon="-0.38733881"><ele>16.2</ele><time>2022-11-02T16:25:04.0000000+00:00</time></trkpt><trkpt lat="39.47789297" lon="-0.38735021"><ele>16.2</ele><time>2022-11-02T16:25:05.0000000+00:00</time></trkpt><trkpt lat="39.47790739" lon="-0.3873663"><ele>16.2</ele><time>2022-11-02T16:25:06.0000000+00:00</time></trkpt><trkpt lat="39.47792156" lon="-0.3873684"><ele>16.2</ele><time>2022-11-02T16:25:07.0000000+00:00</time></trkpt><trkpt lat="39.47793078" lon="-0.38736966"><ele>16.2</ele><time>2022-11-02T16:25:08.0000000+00:00</time></trkpt><trkpt lat="39.47793706" lon="-0.38737175"><ele>16.2</ele><time>2022-11-02T16:25:09.0000000+00:00</time></trkpt><trkpt lat="39.47793539" lon="-0.38738642"><ele>16.2</ele><time>2022-11-02T16:25:10.0000000+00:00</time></trkpt><trkpt lat="39.47793681" lon="-0.3873912"><ele>16.2</ele><time>2022-11-02T16:25:11.0000000+00:00</time></trkpt><trkpt lat="39.47794469" lon="-0.38738919"><ele>16.2</ele><time>2022-11-02T16:25:12.0000000+00:00</time></trkpt><trkpt lat="39.47794695" lon="-0.38738893"><ele>16.2</ele><time>2022-11-02T16:25:13.0000000+00:00</time></trkpt><trkpt lat="39.47794846" lon="-0.38738919"><ele>16.2</ele><time>2022-11-02T16:25:14.0000000+00:00</time></trkpt><trkpt lat="39.4779483" lon="-0.38738818"><ele>16.2</ele><time>2022-11-02T16:25:15.0000000+00:00</time></trkpt><trkpt lat="39.4779488" lon="-0.38738525"><ele>16.2</ele><time>2022-11-02T16:25:16.0000000+00:00</time></trkpt><trkpt lat="39.47795039" lon="-0.38737888"><ele>16.2</ele><time>2022-11-02T16:25:17.0000000+00:00</time></trkpt><trkpt lat="39.47795047" lon="-0.38737628"><ele>16.2</ele><time>2022-11-02T16:25:18.0000000+00:00</time></trkpt><trkpt lat="39.47794888" lon="-0.38737577"><ele>16.2</ele><time>2022-11-02T16:25:19.0000000+00:00</time></trkpt><trkpt lat="39.47794612" lon="-0.38737837"><ele>16.2</ele><time>2022-11-02T16:25:20.0000000+00:00</time></trkpt><trkpt lat="39.47794494" lon="-0.38738265"><ele>16.2</ele><time>2022-11-02T16:25:21.0000000+00:00</time></trkpt><trkpt lat="39.47794159" lon="-0.38738173"><ele>16.2</ele><time>2022-11-02T16:25:22.0000000+00:00</time></trkpt><trkpt lat="39.47793447" lon="-0.38737644"><ele>16.2</ele><time>2022-11-02T16:25:23.0000000+00:00</time></trkpt><trkpt lat="39.4779089" lon="-0.38736211"><ele>16.2</ele><time>2022-11-02T16:25:24.0000000+00:00</time></trkpt><trkpt lat="39.47790211" lon="-0.38737075"><ele>16.4</ele><time>2022-11-02T16:25:25.0000000+00:00</time></trkpt><trkpt lat="39.47789968" lon="-0.38737712"><ele>16.2</ele><time>2022-11-02T16:25:26.0000000+00:00</time></trkpt><trkpt lat="39.47788132" lon="-0.38738592"><ele>16.2</ele><time>2022-11-02T16:25:27.0000000+00:00</time></trkpt><trkpt lat="39.47787034" lon="-0.38739019"><ele>16.2</ele><time>2022-11-02T16:25:28.0000000+00:00</time></trkpt><trkpt lat="39.47786816" lon="-0.38739153"><ele>16.2</ele><time>2022-11-02T16:25:29.0000000+00:00</time></trkpt><trkpt lat="39.47786389" lon="-0.38739195"><ele>16.2</ele><time>2022-11-02T16:25:30.0000000+00:00</time></trkpt><trkpt lat="39.47786775" lon="-0.38739572"><ele>16.2</ele><time>2022-11-02T16:25:31.0000000+00:00</time></trkpt><trkpt lat="39.47787588" lon="-0.38740117"><ele>16.2</ele><time>2022-11-02T16:25:32.0000000+00:00</time></trkpt><trkpt lat="39.47788417" lon="-0.38740771"><ele>16.2</ele><time>2022-11-02T16:25:33.0000000+00:00</time></trkpt><trkpt lat="39.47789725" lon="-0.38741198"><ele>16.2</ele><time>2022-11-02T16:25:34.0000000+00:00</time></trkpt><trkpt lat="39.47789272" lon="-0.38740654"><ele>16.2</ele><time>2022-11-02T16:25:35.0000000+00:00</time></trkpt><trkpt lat="39.47790211" lon="-0.38739732"><ele>16.2</ele><time>2022-11-02T16:25:36.0000000+00:00</time></trkpt><trkpt lat="39.4779027" lon="-0.38739061"><ele>16.2</ele><time>2022-11-02T16:25:37.0000000+00:00</time></trkpt><trkpt lat="39.47789909" lon="-0.38739078"><ele>16.2</ele><time>2022-11-02T16:25:38.0000000+00:00</time></trkpt><trkpt lat="39.47789708" lon="-0.38739472"><ele>16.2</ele><time>2022-11-02T16:25:39.0000000+00:00</time></trkpt><trkpt lat="39.47786573" lon="-0.38741936"><ele>16.2</ele><time>2022-11-02T16:25:40.0000000+00:00</time></trkpt><trkpt lat="39.47784277" lon="-0.38744409"><ele>16.4</ele><time>2022-11-02T16:25:41.0000000+00:00</time></trkpt><trkpt lat="39.47783816" lon="-0.38744836"><ele>16.4</ele><time>2022-11-02T16:25:42.0000000+00:00</time></trkpt><trkpt lat="39.47783682" lon="-0.38745121"><ele>16.4</ele><time>2022-11-02T16:25:43.0000000+00:00</time></trkpt><trkpt lat="39.47783799" lon="-0.38745004"><ele>16.4</ele><time>2022-11-02T16:25:44.0000000+00:00</time></trkpt><trkpt lat="39.47782818" lon="-0.38745331"><ele>16.4</ele><time>2022-11-02T16:25:45.0000000+00:00</time></trkpt><trkpt lat="39.4778188" lon="-0.38746311"><ele>16.4</ele><time>2022-11-02T16:25:46.0000000+00:00</time></trkpt><trkpt lat="39.47781402" lon="-0.38747124"><ele>16.4</ele><time>2022-11-02T16:25:47.0000000+00:00</time></trkpt><trkpt lat="39.47780446" lon="-0.38748021"><ele>16.4</ele><time>2022-11-02T16:25:48.0000000+00:00</time></trkpt><trkpt lat="39.47780212" lon="-0.38748642"><ele>16.4</ele><time>2022-11-02T16:25:49.0000000+00:00</time></trkpt><trkpt lat="39.47779818" lon="-0.38749681"><ele>16.4</ele><time>2022-11-02T16:25:50.0000000+00:00</time></trkpt><trkpt lat="39.47779675" lon="-0.38751148"><ele>16.4</ele><time>2022-11-02T16:25:51.0000000+00:00</time></trkpt><trkpt lat="39.47779809" lon="-0.38752514"><ele>16.4</ele><time>2022-11-02T16:25:52.0000000+00:00</time></trkpt><trkpt lat="39.47780429" lon="-0.38754467"><ele>16.4</ele><time>2022-11-02T16:25:53.0000000+00:00</time></trkpt><trkpt lat="39.47779558" lon="-0.38757141"><ele>16.4</ele><time>2022-11-02T16:25:54.0000000+00:00</time></trkpt><trkpt lat="39.47779105" lon="-0.38758658"><ele>16.4</ele><time>2022-11-02T16:25:55.0000000+00:00</time></trkpt><trkpt lat="39.47777974" lon="-0.38760636"><ele>16.4</ele><time>2022-11-02T16:25:56.0000000+00:00</time></trkpt><trkpt lat="39.47777798" lon="-0.38761005"><ele>16.4</ele><time>2022-11-02T16:25:57.0000000+00:00</time></trkpt><trkpt lat="39.47777714" lon="-0.38761416"><ele>16.4</ele><time>2022-11-02T16:25:58.0000000+00:00</time></trkpt><trkpt lat="39.47776649" lon="-0.38762371"><ele>16.4</ele><time>2022-11-02T16:25:59.0000000+00:00</time></trkpt><trkpt lat="39.47776322" lon="-0.38762949"><ele>16.4</ele><time>2022-11-02T16:26:00.0000000+00:00</time></trkpt><trkpt lat="39.47776054" lon="-0.38763142"><ele>16.4</ele><time>2022-11-02T16:26:01.0000000+00:00</time></trkpt><trkpt lat="39.47775199" lon="-0.38762681"><ele>16.4</ele><time>2022-11-02T16:26:02.0000000+00:00</time></trkpt><trkpt lat="39.47774646" lon="-0.38762354"><ele>16.4</ele><time>2022-11-02T16:26:03.0000000+00:00</time></trkpt><trkpt lat="39.47774788" lon="-0.38761944"><ele>16.4</ele><time>2022-11-02T16:26:04.0000000+00:00</time></trkpt><trkpt lat="39.47774713" lon="-0.38761927"><ele>16.4</ele><time>2022-11-02T16:26:05.0000000+00:00</time></trkpt><trkpt lat="39.47774294" lon="-0.38762589"><ele>16.4</ele><time>2022-11-02T16:26:06.0000000+00:00</time></trkpt><trkpt lat="39.47774344" lon="-0.38763285"><ele>16.4</ele><time>2022-11-02T16:26:07.0000000+00:00</time></trkpt><trkpt lat="39.47775065" lon="-0.38763461"><ele>16.4</ele><time>2022-11-02T16:26:08.0000000+00:00</time></trkpt><trkpt lat="39.47775803" lon="-0.38764617"><ele>16.6</ele><time>2022-11-02T16:26:09.0000000+00:00</time></trkpt><trkpt lat="39.47775593" lon="-0.38766126"><ele>16.6</ele><time>2022-11-02T16:26:10.0000000+00:00</time></trkpt><trkpt lat="39.47775518" lon="-0.3876647"><ele>16.6</ele><time>2022-11-02T16:26:11.0000000+00:00</time></trkpt><trkpt lat="39.47775291" lon="-0.38766554"><ele>16.6</ele><time>2022-11-02T16:26:12.0000000+00:00</time></trkpt><trkpt lat="39.47774897" lon="-0.38766948"><ele>16.6</ele><time>2022-11-02T16:26:13.0000000+00:00</time></trkpt><trkpt lat="39.47772542" lon="-0.38766068"><ele>16.6</ele><time>2022-11-02T16:26:14.0000000+00:00</time></trkpt><trkpt lat="39.47772215" lon="-0.38765892"><ele>16.6</ele><time>2022-11-02T16:26:15.0000000+00:00</time></trkpt><trkpt lat="39.47771922" lon="-0.38765648"><ele>16.6</ele><time>2022-11-02T16:26:16.0000000+00:00</time></trkpt><trkpt lat="39.4777162" lon="-0.38765514"><ele>16.6</ele><time>2022-11-02T16:26:17.0000000+00:00</time></trkpt><trkpt lat="39.47771209" lon="-0.38766118"><ele>16.6</ele><time>2022-11-02T16:26:18.0000000+00:00</time></trkpt><trkpt lat="39.47770975" lon="-0.38766369"><ele>16.8</ele><time>2022-11-02T16:26:19.0000000+00:00</time></trkpt><trkpt lat="39.47770832" lon="-0.3876652"><ele>16.8</ele><time>2022-11-02T16:26:20.0000000+00:00</time></trkpt><trkpt lat="39.47770983" lon="-0.38766897"><ele>16.6</ele><time>2022-11-02T16:26:21.0000000+00:00</time></trkpt><trkpt lat="39.47771494" lon="-0.38766529"><ele>16.6</ele><time>2022-11-02T16:26:22.0000000+00:00</time></trkpt><trkpt lat="39.47771955" lon="-0.38767115"><ele>16.6</ele><time>2022-11-02T16:26:23.0000000+00:00</time></trkpt><trkpt lat="39.47771763" lon="-0.38768205"><ele>16.8</ele><time>2022-11-02T16:26:24.0000000+00:00</time></trkpt><trkpt lat="39.47771486" lon="-0.38769437"><ele>16.8</ele><time>2022-11-02T16:26:25.0000000+00:00</time></trkpt><trkpt lat="39.47771528" lon="-0.38770711"><ele>16.6</ele><time>2022-11-02T16:26:26.0000000+00:00</time></trkpt><trkpt lat="39.47771796" lon="-0.38771524"><ele>16.6</ele><time>2022-11-02T16:26:27.0000000+00:00</time></trkpt><trkpt lat="39.47772056" lon="-0.38772329"><ele>16.6</ele><time>2022-11-02T16:26:28.0000000+00:00</time></trkpt><trkpt lat="39.47771729" lon="-0.38773217"><ele>16.6</ele><time>2022-11-02T16:26:29.0000000+00:00</time></trkpt><trkpt lat="39.47771603" lon="-0.38774114"><ele>16.8</ele><time>2022-11-02T16:26:30.0000000+00:00</time></trkpt><trkpt lat="39.47770597" lon="-0.38775539"><ele>16.8</ele><time>2022-11-02T16:26:31.0000000+00:00</time></trkpt><trkpt lat="39.47769851" lon="-0.3877714"><ele>16.8</ele><time>2022-11-02T16:26:32.0000000+00:00</time></trkpt><trkpt lat="39.47770187" lon="-0.38777953"><ele>16.8</ele><time>2022-11-02T16:26:33.0000000+00:00</time></trkpt><trkpt lat="39.47770882" lon="-0.38777987"><ele>16.8</ele><time>2022-11-02T16:26:34.0000000+00:00</time></trkpt><trkpt lat="39.47771452" lon="-0.38778372"><ele>16.8</ele><time>2022-11-02T16:26:35.0000000+00:00</time></trkpt><trkpt lat="39.47771176" lon="-0.38778892"><ele>16.8</ele><time>2022-11-02T16:26:36.0000000+00:00</time></trkpt><trkpt lat="39.47771109" lon="-0.38778758"><ele>16.8</ele><time>2022-11-02T16:26:37.0000000+00:00</time></trkpt><trkpt lat="39.47771796" lon="-0.38778573"><ele>16.8</ele><time>2022-11-02T16:26:38.0000000+00:00</time></trkpt><trkpt lat="39.47772291" lon="-0.38779135"><ele>16.8</ele><time>2022-11-02T16:26:39.0000000+00:00</time></trkpt><trkpt lat="39.47772215" lon="-0.38779168"><ele>16.8</ele><time>2022-11-02T16:26:40.0000000+00:00</time></trkpt><trkpt lat="39.47771695" lon="-0.38780518"><ele>16.8</ele><time>2022-11-02T16:26:41.0000000+00:00</time></trkpt><trkpt lat="39.47771419" lon="-0.38781691"><ele>16.8</ele><time>2022-11-02T16:26:42.0000000+00:00</time></trkpt><trkpt lat="39.47771268" lon="-0.38782957"><ele>16.8</ele><time>2022-11-02T16:26:43.0000000+00:00</time></trkpt><trkpt lat="39.47771737" lon="-0.38783041"><ele>16.8</ele><time>2022-11-02T16:26:44.0000000+00:00</time></trkpt><trkpt lat="39.47771804" lon="-0.38783611"><ele>16.8</ele><time>2022-11-02T16:26:45.0000000+00:00</time></trkpt><trkpt lat="39.47771008" lon="-0.38784457"><ele>16.8</ele><time>2022-11-02T16:26:46.0000000+00:00</time></trkpt><trkpt lat="39.47770556" lon="-0.38785036"><ele>16.8</ele><time>2022-11-02T16:26:47.0000000+00:00</time></trkpt><trkpt lat="39.47770673" lon="-0.38785027"><ele>16.8</ele><time>2022-11-02T16:26:48.0000000+00:00</time></trkpt><trkpt lat="39.47771285" lon="-0.3878496"><ele>16.8</ele><time>2022-11-02T16:26:49.0000000+00:00</time></trkpt><trkpt lat="39.47771302" lon="-0.38785614"><ele>16.8</ele><time>2022-11-02T16:26:50.0000000+00:00</time></trkpt><trkpt lat="39.47770958" lon="-0.38786335"><ele>16.8</ele><time>2022-11-02T16:26:51.0000000+00:00</time></trkpt><trkpt lat="39.47770648" lon="-0.38787274"><ele>16.8</ele><time>2022-11-02T16:26:52.0000000+00:00</time></trkpt><trkpt lat="39.47770153" lon="-0.38788238"><ele>16.8</ele><time>2022-11-02T16:26:53.0000000+00:00</time></trkpt><trkpt lat="39.47769935" lon="-0.38788523"><ele>16.8</ele><time>2022-11-02T16:26:54.0000000+00:00</time></trkpt><trkpt lat="39.47769105" lon="-0.38788715"><ele>16.8</ele><time>2022-11-02T16:26:55.0000000+00:00</time></trkpt><trkpt lat="39.47768628" lon="-0.38788456"><ele>16.6</ele><time>2022-11-02T16:26:56.0000000+00:00</time></trkpt><trkpt lat="39.47767806" lon="-0.38788145"><ele>16.6</ele><time>2022-11-02T16:26:57.0000000+00:00</time></trkpt><trkpt lat="39.47767035" lon="-0.38788036"><ele>16.6</ele><time>2022-11-02T16:26:58.0000000+00:00</time></trkpt><trkpt lat="39.47765409" lon="-0.38788238"><ele>16.6</ele><time>2022-11-02T16:26:59.0000000+00:00</time></trkpt><trkpt lat="39.47764076" lon="-0.38787433"><ele>16.6</ele><time>2022-11-02T16:27:00.0000000+00:00</time></trkpt><trkpt lat="39.4776364" lon="-0.38786109"><ele>16.6</ele><time>2022-11-02T16:27:01.0000000+00:00</time></trkpt><trkpt lat="39.47763221" lon="-0.3878553"><ele>16.6</ele><time>2022-11-02T16:27:02.0000000+00:00</time></trkpt><trkpt lat="39.47762727" lon="-0.38785723"><ele>16.6</ele><time>2022-11-02T16:27:03.0000000+00:00</time></trkpt><trkpt lat="39.47761855" lon="-0.38783871"><ele>16.8</ele><time>2022-11-02T16:27:04.0000000+00:00</time></trkpt><trkpt lat="39.47760665" lon="-0.38783477"><ele>16.8</ele><time>2022-11-02T16:27:05.0000000+00:00</time></trkpt><trkpt lat="39.4776033" lon="-0.38783326"><ele>16.8</ele><time>2022-11-02T16:27:06.0000000+00:00</time></trkpt><trkpt lat="39.47760036" lon="-0.38783141"><ele>16.8</ele><time>2022-11-02T16:27:07.0000000+00:00</time></trkpt><trkpt lat="39.47760011" lon="-0.38782211"><ele>16.8</ele><time>2022-11-02T16:27:08.0000000+00:00</time></trkpt><trkpt lat="39.4775903" lon="-0.38781859"><ele>16.8</ele><time>2022-11-02T16:27:09.0000000+00:00</time></trkpt><trkpt lat="39.4775789" lon="-0.38781197"><ele>16.8</ele><time>2022-11-02T16:27:10.0000000+00:00</time></trkpt><trkpt lat="39.4775779" lon="-0.38780971"><ele>16.8</ele><time>2022-11-02T16:27:11.0000000+00:00</time></trkpt><trkpt lat="39.47757538" lon="-0.38779378"><ele>16.8</ele><time>2022-11-02T16:27:12.0000000+00:00</time></trkpt><trkpt lat="39.47756985" lon="-0.38779303"><ele>16.8</ele><time>2022-11-02T16:27:13.0000000+00:00</time></trkpt><trkpt lat="39.47757153" lon="-0.38779378"><ele>16.8</ele><time>2022-11-02T16:27:14.0000000+00:00</time></trkpt><trkpt lat="39.47757237" lon="-0.3877937"><ele>16.8</ele><time>2022-11-02T16:27:15.0000000+00:00</time></trkpt><trkpt lat="39.47757195" lon="-0.38779194"><ele>16.8</ele><time>2022-11-02T16:27:16.0000000+00:00</time></trkpt><trkpt lat="39.47757036" lon="-0.387789"><ele>16.8</ele><time>2022-11-02T16:27:17.0000000+00:00</time></trkpt><trkpt lat="39.4775577" lon="-0.38778288"><ele>16.8</ele><time>2022-11-02T16:27:18.0000000+00:00</time></trkpt><trkpt lat="39.47753364" lon="-0.38777291"><ele>16.8</ele><time>2022-11-02T16:27:19.0000000+00:00</time></trkpt><trkpt lat="39.47751889" lon="-0.38776528"><ele>16.8</ele><time>2022-11-02T16:27:20.0000000+00:00</time></trkpt><trkpt lat="39.47751596" lon="-0.38776159"><ele>16.8</ele><time>2022-11-02T16:27:21.0000000+00:00</time></trkpt><trkpt lat="39.47749249" lon="-0.38776855"><ele>16.8</ele><time>2022-11-02T16:27:22.0000000+00:00</time></trkpt><trkpt lat="39.47747313" lon="-0.38777635"><ele>16.8</ele><time>2022-11-02T16:27:23.0000000+00:00</time></trkpt><trkpt lat="39.47745913" lon="-0.38778062"><ele>16.8</ele><time>2022-11-02T16:27:24.0000000+00:00</time></trkpt><trkpt lat="39.47745351" lon="-0.38777794"><ele>16.8</ele><time>2022-11-02T16:27:25.0000000+00:00</time></trkpt><trkpt lat="39.47745184" lon="-0.38777601"><ele>16.8</ele><time>2022-11-02T16:27:26.0000000+00:00</time></trkpt><trkpt lat="39.47745083" lon="-0.38777459"><ele>17.0</ele><time>2022-11-02T16:27:27.0000000+00:00</time></trkpt><trkpt lat="39.47744186" lon="-0.38777425"><ele>17.0</ele><time>2022-11-02T16:27:28.0000000+00:00</time></trkpt><trkpt lat="39.47743767" lon="-0.38777459"><ele>17.0</ele><time>2022-11-02T16:27:29.0000000+00:00</time></trkpt><trkpt lat="39.47743532" lon="-0.38777366"><ele>17.0</ele><time>2022-11-02T16:27:30.0000000+00:00</time></trkpt><trkpt lat="39.47742971" lon="-0.38776687"><ele>17.0</ele><time>2022-11-02T16:27:31.0000000+00:00</time></trkpt><trkpt lat="39.47742711" lon="-0.38775841"><ele>17.0</ele><time>2022-11-02T16:27:32.0000000+00:00</time></trkpt><trkpt lat="39.47742057" lon="-0.38774114"><ele>17.0</ele><time>2022-11-02T16:27:33.0000000+00:00</time></trkpt><trkpt lat="39.47741361" lon="-0.38772639"><ele>17.0</ele><time>2022-11-02T16:27:34.0000000+00:00</time></trkpt><trkpt lat="39.47742174" lon="-0.38769722"><ele>17.0</ele><time>2022-11-02T16:27:35.0000000+00:00</time></trkpt><trkpt lat="39.47742074" lon="-0.38769051"><ele>17.0</ele><time>2022-11-02T16:27:36.0000000+00:00</time></trkpt><trkpt lat="39.47741856" lon="-0.38768574"><ele>17.2</ele><time>2022-11-02T16:27:37.0000000+00:00</time></trkpt><trkpt lat="39.477408" lon="-0.38768725"><ele>17.0</ele><time>2022-11-02T16:27:38.0000000+00:00</time></trkpt><trkpt lat="39.47739014" lon="-0.3876901"><ele>17.0</ele><time>2022-11-02T16:27:39.0000000+00:00</time></trkpt><trkpt lat="39.47736684" lon="-0.38768658"><ele>17.0</ele><time>2022-11-02T16:27:40.0000000+00:00</time></trkpt><trkpt lat="39.47734966" lon="-0.38768222"><ele>17.0</ele><time>2022-11-02T16:27:41.0000000+00:00</time></trkpt><trkpt lat="39.47733399" lon="-0.38768389"><ele>17.0</ele><time>2022-11-02T16:27:42.0000000+00:00</time></trkpt><trkpt lat="39.47732049" lon="-0.38768465"><ele>17.0</ele><time>2022-11-02T16:27:43.0000000+00:00</time></trkpt><trkpt lat="39.47730641" lon="-0.3876885"><ele>17.0</ele><time>2022-11-02T16:27:44.0000000+00:00</time></trkpt><trkpt lat="39.47729702" lon="-0.38768901"><ele>17.0</ele><time>2022-11-02T16:27:45.0000000+00:00</time></trkpt><trkpt lat="39.47728772" lon="-0.38768565"><ele>17.0</ele><time>2022-11-02T16:27:46.0000000+00:00</time></trkpt><trkpt lat="39.47727414" lon="-0.3876823"><ele>17.0</ele><time>2022-11-02T16:27:47.0000000+00:00</time></trkpt><trkpt lat="39.47726182" lon="-0.3876766"><ele>17.2</ele><time>2022-11-02T16:27:48.0000000+00:00</time></trkpt><trkpt lat="39.47724916" lon="-0.387673"><ele>17.2</ele><time>2022-11-02T16:27:49.0000000+00:00</time></trkpt><trkpt lat="39.4772381" lon="-0.38766327"><ele>17.2</ele><time>2022-11-02T16:27:50.0000000+00:00</time></trkpt><trkpt lat="39.47722812" lon="-0.38766244"><ele>17.2</ele><time>2022-11-02T16:27:51.0000000+00:00</time></trkpt><trkpt lat="39.47722494" lon="-0.38765908"><ele>17.2</ele><time>2022-11-02T16:27:52.0000000+00:00</time></trkpt><trkpt lat="39.47721932" lon="-0.38766394"><ele>17.2</ele><time>2022-11-02T16:27:53.0000000+00:00</time></trkpt><trkpt lat="39.47720759" lon="-0.38766763"><ele>17.2</ele><time>2022-11-02T16:27:54.0000000+00:00</time></trkpt><trkpt lat="39.4771951" lon="-0.38766872"><ele>17.2</ele><time>2022-11-02T16:27:55.0000000+00:00</time></trkpt><trkpt lat="39.47719158" lon="-0.38766721"><ele>17.2</ele><time>2022-11-02T16:27:56.0000000+00:00</time></trkpt><trkpt lat="39.4771904" lon="-0.38766537"><ele>17.2</ele><time>2022-11-02T16:27:57.0000000+00:00</time></trkpt><trkpt lat="39.47718831" lon="-0.38766235"><ele>17.2</ele><time>2022-11-02T16:27:58.0000000+00:00</time></trkpt><trkpt lat="39.47718026" lon="-0.38764165"><ele>17.2</ele><time>2022-11-02T16:27:59.0000000+00:00</time></trkpt><trkpt lat="39.47717624" lon="-0.38763058"><ele>17.2</ele><time>2022-11-02T16:28:00.0000000+00:00</time></trkpt><trkpt lat="39.47716953" lon="-0.38761751"><ele>17.4</ele><time>2022-11-02T16:28:01.0000000+00:00</time></trkpt><trkpt lat="39.4771573" lon="-0.38761265"><ele>17.4</ele><time>2022-11-02T16:28:02.0000000+00:00</time></trkpt><trkpt lat="39.47715109" lon="-0.38760896"><ele>17.4</ele><time>2022-11-02T16:28:03.0000000+00:00</time></trkpt><trkpt lat="39.47712226" lon="-0.38762053"><ele>17.4</ele><time>2022-11-02T16:28:04.0000000+00:00</time></trkpt><trkpt lat="39.47710918" lon="-0.38761625"><ele>17.4</ele><time>2022-11-02T16:28:05.0000000+00:00</time></trkpt><trkpt lat="39.47709166" lon="-0.38760971"><ele>17.4</ele><time>2022-11-02T16:28:06.0000000+00:00</time></trkpt><trkpt lat="39.47707188" lon="-0.38760611"><ele>17.4</ele><time>2022-11-02T16:28:07.0000000+00:00</time></trkpt><trkpt lat="39.47705437" lon="-0.38760108"><ele>17.4</ele><time>2022-11-02T16:28:08.0000000+00:00</time></trkpt><trkpt lat="39.4770376" lon="-0.38760762"><ele>17.4</ele><time>2022-11-02T16:28:09.0000000+00:00</time></trkpt><trkpt lat="39.47703282" lon="-0.38760955"><ele>17.4</ele><time>2022-11-02T16:28:10.0000000+00:00</time></trkpt><trkpt lat="39.47701857" lon="-0.38760594"><ele>17.4</ele><time>2022-11-02T16:28:11.0000000+00:00</time></trkpt><trkpt lat="39.47699837" lon="-0.38759136"><ele>17.4</ele><time>2022-11-02T16:28:12.0000000+00:00</time></trkpt><trkpt lat="39.4769687" lon="-0.38758524"><ele>17.4</ele><time>2022-11-02T16:28:13.0000000+00:00</time></trkpt><trkpt lat="39.47694423" lon="-0.38757426"><ele>17.4</ele><time>2022-11-02T16:28:14.0000000+00:00</time></trkpt><trkpt lat="39.47692361" lon="-0.38756462"><ele>17.4</ele><time>2022-11-02T16:28:15.0000000+00:00</time></trkpt><trkpt lat="39.47690827" lon="-0.38755498"><ele>17.4</ele><time>2022-11-02T16:28:16.0000000+00:00</time></trkpt><trkpt lat="39.47690005" lon="-0.38754945"><ele>17.4</ele><time>2022-11-02T16:28:17.0000000+00:00</time></trkpt><trkpt lat="39.47689452" lon="-0.38754769"><ele>17.4</ele><time>2022-11-02T16:28:18.0000000+00:00</time></trkpt><trkpt lat="39.47688388" lon="-0.38754492"><ele>17.4</ele><time>2022-11-02T16:28:19.0000000+00:00</time></trkpt><trkpt lat="39.47687524" lon="-0.38754216"><ele>17.4</ele><time>2022-11-02T16:28:20.0000000+00:00</time></trkpt><trkpt lat="39.4768796" lon="-0.3875435"><ele>17.4</ele><time>2022-11-02T16:28:21.0000000+00:00</time></trkpt><trkpt lat="39.47687357" lon="-0.38754107"><ele>17.4</ele><time>2022-11-02T16:28:22.0000000+00:00</time></trkpt><trkpt lat="39.47686871" lon="-0.38753671"><ele>17.4</ele><time>2022-11-02T16:28:23.0000000+00:00</time></trkpt><trkpt lat="39.47686485" lon="-0.38753771"><ele>17.4</ele><time>2022-11-02T16:28:24.0000000+00:00</time></trkpt><trkpt lat="39.47686368" lon="-0.38753713"><ele>17.6</ele><time>2022-11-02T16:28:25.0000000+00:00</time></trkpt><trkpt lat="39.47686292" lon="-0.38753654"><ele>17.6</ele><time>2022-11-02T16:28:26.0000000+00:00</time></trkpt><trkpt lat="39.47686393" lon="-0.3875347"><ele>17.6</ele><time>2022-11-02T16:28:27.0000000+00:00</time></trkpt><trkpt lat="39.47686904" lon="-0.38752807"><ele>17.6</ele><time>2022-11-02T16:28:28.0000000+00:00</time></trkpt><trkpt lat="39.47687223" lon="-0.38752606"><ele>17.6</ele><time>2022-11-02T16:28:29.0000000+00:00</time></trkpt><trkpt lat="39.47686913" lon="-0.38752866"><ele>17.6</ele><time>2022-11-02T16:28:30.0000000+00:00</time></trkpt><trkpt lat="39.47686879" lon="-0.38752774"><ele>17.6</ele><time>2022-11-02T16:28:31.0000000+00:00</time></trkpt><trkpt lat="39.47686879" lon="-0.38752774"><ele>17.6</ele><time>2022-11-02T16:28:32.0000000+00:00</time></trkpt><trkpt lat="39.47686879" lon="-0.38752774"><ele>17.6</ele><time>2022-11-02T16:28:33.0000000+00:00</time></trkpt><trkpt lat="39.47686879" lon="-0.38752774"><ele>17.6</ele><time>2022-11-02T16:28:34.0000000+00:00</time></trkpt><trkpt lat="39.47686879" lon="-0.38752774"><ele>17.6</ele><time>2022-11-02T16:28:35.0000000+00:00</time></trkpt><trkpt lat="39.47686879" lon="-0.38752774"><ele>17.6</ele><time>2022-11-02T16:28:36.0000000+00:00</time></trkpt><trkpt lat="39.47686879" lon="-0.38752774"><ele>17.6</ele><time>2022-11-02T16:28:37.0000000+00:00</time></trkpt><trkpt lat="39.47686879" lon="-0.38752774"><ele>17.6</ele><time>2022-11-02T16:28:38.0000000+00:00</time></trkpt><trkpt lat="39.47686879" lon="-0.38752774"><ele>17.6</ele><time>2022-11-02T16:28:39.0000000+00:00</time></trkpt><trkpt lat="39.47686879" lon="-0.38752774"><ele>17.6</ele><time>2022-11-02T16:28:40.0000000+00:00</time></trkpt><trkpt lat="39.47686879" lon="-0.38752774"><ele>17.6</ele><time>2022-11-02T16:28:41.0000000+00:00</time></trkpt><trkpt lat="39.47686879" lon="-0.38752774"><ele>17.6</ele><time>2022-11-02T16:28:42.0000000+00:00</time></trkpt><trkpt lat="39.47686871" lon="-0.38752774"><ele>17.6</ele><time>2022-11-02T16:28:43.0000000+00:00</time></trkpt><trkpt lat="39.47686845" lon="-0.38752774"><ele>17.6</ele><time>2022-11-02T16:28:44.0000000+00:00</time></trkpt><trkpt lat="39.47686619" lon="-0.38752774"><ele>17.6</ele><time>2022-11-02T16:28:45.0000000+00:00</time></trkpt><trkpt lat="39.47686493" lon="-0.38752774"><ele>17.6</ele><time>2022-11-02T16:28:46.0000000+00:00</time></trkpt><trkpt lat="39.47686477" lon="-0.38752774"><ele>17.6</ele><time>2022-11-02T16:28:47.0000000+00:00</time></trkpt><trkpt lat="39.47686443" lon="-0.38752774"><ele>17.6</ele><time>2022-11-02T16:28:48.0000000+00:00</time></trkpt><trkpt lat="39.47686401" lon="-0.38752707"><ele>17.6</ele><time>2022-11-02T16:28:49.0000000+00:00</time></trkpt><trkpt lat="39.47686384" lon="-0.38752615"><ele>17.6</ele><time>2022-11-02T16:28:50.0000000+00:00</time></trkpt><trkpt lat="39.47686368" lon="-0.38752589"><ele>17.6</ele><time>2022-11-02T16:28:51.0000000+00:00</time></trkpt><trkpt lat="39.47686343" lon="-0.38752581"><ele>17.6</ele><time>2022-11-02T16:28:52.0000000+00:00</time></trkpt><trkpt lat="39.47686292" lon="-0.38752464"><ele>17.6</ele><time>2022-11-02T16:28:53.0000000+00:00</time></trkpt><trkpt lat="39.47686208" lon="-0.38752338"><ele>17.6</ele><time>2022-11-02T16:28:54.0000000+00:00</time></trkpt><trkpt lat="39.47686066" lon="-0.38752145"><ele>17.6</ele><time>2022-11-02T16:28:55.0000000+00:00</time></trkpt><trkpt lat="39.4768594" lon="-0.38751818"><ele>17.6</ele><time>2022-11-02T16:28:56.0000000+00:00</time></trkpt><trkpt lat="39.47685865" lon="-0.38751718"><ele>17.6</ele><time>2022-11-02T16:28:57.0000000+00:00</time></trkpt><trkpt lat="39.4768568" lon="-0.38751651"><ele>17.6</ele><time>2022-11-02T16:28:58.0000000+00:00</time></trkpt><trkpt lat="39.47685412" lon="-0.38751567"><ele>17.6</ele><time>2022-11-02T16:28:59.0000000+00:00</time></trkpt><trkpt lat="39.47685253" lon="-0.38751475"><ele>17.6</ele><time>2022-11-02T16:29:00.0000000+00:00</time></trkpt><trkpt lat="39.47685069" lon="-0.38751433"><ele>17.6</ele><time>2022-11-02T16:29:01.0000000+00:00</time></trkpt><trkpt lat="39.476847" lon="-0.38751374"><ele>17.6</ele><time>2022-11-02T16:29:02.0000000+00:00</time></trkpt><trkpt lat="39.47684197" lon="-0.38751374"><ele>17.6</ele><time>2022-11-02T16:29:03.0000000+00:00</time></trkpt><trkpt lat="39.47683669" lon="-0.38751366"><ele>17.6</ele><time>2022-11-02T16:29:04.0000000+00:00</time></trkpt><trkpt lat="39.47683283" lon="-0.38751366"><ele>17.6</ele><time>2022-11-02T16:29:05.0000000+00:00</time></trkpt><trkpt lat="39.47682864" lon="-0.38751542"><ele>17.6</ele><time>2022-11-02T16:29:06.0000000+00:00</time></trkpt><trkpt lat="39.47682101" lon="-0.38751508"><ele>17.6</ele><time>2022-11-02T16:29:07.0000000+00:00</time></trkpt><trkpt lat="39.47681188" lon="-0.38751584"><ele>17.6</ele><time>2022-11-02T16:29:08.0000000+00:00</time></trkpt><trkpt lat="39.47680358" lon="-0.38751517"><ele>17.6</ele><time>2022-11-02T16:29:09.0000000+00:00</time></trkpt><trkpt lat="39.47679629" lon="-0.38751357"><ele>17.6</ele><time>2022-11-02T16:29:10.0000000+00:00</time></trkpt><trkpt lat="39.47678992" lon="-0.38751349"><ele>17.6</ele><time>2022-11-02T16:29:11.0000000+00:00</time></trkpt><trkpt lat="39.47677969" lon="-0.38751818"><ele>17.6</ele><time>2022-11-02T16:29:12.0000000+00:00</time></trkpt><trkpt lat="39.47677206" lon="-0.38752162"><ele>17.6</ele><time>2022-11-02T16:29:13.0000000+00:00</time></trkpt><trkpt lat="39.47676527" lon="-0.38752279"><ele>17.6</ele><time>2022-11-02T16:29:14.0000000+00:00</time></trkpt><trkpt lat="39.47675874" lon="-0.38752346"><ele>17.6</ele><time>2022-11-02T16:29:15.0000000+00:00</time></trkpt><trkpt lat="39.47675119" lon="-0.38752229"><ele>17.6</ele><time>2022-11-02T16:29:16.0000000+00:00</time></trkpt><trkpt lat="39.47674315" lon="-0.38751902"><ele>17.6</ele><time>2022-11-02T16:29:17.0000000+00:00</time></trkpt><trkpt lat="39.47673895" lon="-0.38751768"><ele>17.6</ele><time>2022-11-02T16:29:18.0000000+00:00</time></trkpt><trkpt lat="39.47673619" lon="-0.38751097"><ele>17.6</ele><time>2022-11-02T16:29:19.0000000+00:00</time></trkpt><trkpt lat="39.47672965" lon="-0.3875046"><ele>17.6</ele><time>2022-11-02T16:29:20.0000000+00:00</time></trkpt><trkpt lat="39.47672672" lon="-0.38750226"><ele>17.6</ele><time>2022-11-02T16:29:21.0000000+00:00</time></trkpt><trkpt lat="39.47672454" lon="-0.38749899"><ele>17.6</ele><time>2022-11-02T16:29:22.0000000+00:00</time></trkpt><trkpt lat="39.47672177" lon="-0.38749756"><ele>17.6</ele><time>2022-11-02T16:29:23.0000000+00:00</time></trkpt><trkpt lat="39.47671901" lon="-0.38749186"><ele>17.6</ele><time>2022-11-02T16:29:24.0000000+00:00</time></trkpt><trkpt lat="39.47671448" lon="-0.38748474"><ele>17.6</ele><time>2022-11-02T16:29:25.0000000+00:00</time></trkpt><trkpt lat="39.47671515" lon="-0.38747409"><ele>17.6</ele><time>2022-11-02T16:29:26.0000000+00:00</time></trkpt><trkpt lat="39.47671817" lon="-0.38746479"><ele>17.6</ele><time>2022-11-02T16:29:27.0000000+00:00</time></trkpt><trkpt lat="39.4767237" lon="-0.38745549"><ele>17.6</ele><time>2022-11-02T16:29:28.0000000+00:00</time></trkpt><trkpt lat="39.4767263" lon="-0.38745725"><ele>17.6</ele><time>2022-11-02T16:29:29.0000000+00:00</time></trkpt><trkpt lat="39.47672672" lon="-0.38745339"><ele>17.6</ele><time>2022-11-02T16:29:30.0000000+00:00</time></trkpt><trkpt lat="39.47673057" lon="-0.38744752"><ele>17.6</ele><time>2022-11-02T16:29:31.0000000+00:00</time></trkpt><trkpt lat="39.47673661" lon="-0.38744283"><ele>17.6</ele><time>2022-11-02T16:29:32.0000000+00:00</time></trkpt><trkpt lat="39.47674164" lon="-0.38743478"><ele>17.6</ele><time>2022-11-02T16:29:33.0000000+00:00</time></trkpt><trkpt lat="39.47674113" lon="-0.38742967"><ele>17.6</ele><time>2022-11-02T16:29:34.0000000+00:00</time></trkpt><trkpt lat="39.47674063" lon="-0.38742607"><ele>17.6</ele><time>2022-11-02T16:29:35.0000000+00:00</time></trkpt><trkpt lat="39.47674038" lon="-0.38742431"><ele>17.6</ele><time>2022-11-02T16:29:36.0000000+00:00</time></trkpt><trkpt lat="39.47673979" lon="-0.38742489"><ele>17.6</ele><time>2022-11-02T16:29:37.0000000+00:00</time></trkpt><trkpt lat="39.47673493" lon="-0.387429"><ele>17.6</ele><time>2022-11-02T16:29:38.0000000+00:00</time></trkpt><trkpt lat="39.4767325" lon="-0.38743026"><ele>17.6</ele><time>2022-11-02T16:29:39.0000000+00:00</time></trkpt><trkpt lat="39.47673309" lon="-0.38742959"><ele>17.6</ele><time>2022-11-02T16:29:40.0000000+00:00</time></trkpt><trkpt lat="39.47673879" lon="-0.38742271"><ele>17.6</ele><time>2022-11-02T16:29:41.0000000+00:00</time></trkpt><trkpt lat="39.47675136" lon="-0.38741475"><ele>17.6</ele><time>2022-11-02T16:29:42.0000000+00:00</time></trkpt><trkpt lat="39.47676293" lon="-0.38740033"><ele>17.6</ele><time>2022-11-02T16:29:43.0000000+00:00</time></trkpt><trkpt lat="39.47676678" lon="-0.38738868"><ele>17.8</ele><time>2022-11-02T16:29:44.0000000+00:00</time></trkpt><trkpt lat="39.47676837" lon="-0.38737552"><ele>17.8</ele><time>2022-11-02T16:29:45.0000000+00:00</time></trkpt><trkpt lat="39.47677248" lon="-0.38736622"><ele>17.8</ele><time>2022-11-02T16:29:46.0000000+00:00</time></trkpt><trkpt lat="39.47677475" lon="-0.38736178"><ele>17.8</ele><time>2022-11-02T16:29:47.0000000+00:00</time></trkpt><trkpt lat="39.4767755" lon="-0.38735893"><ele>17.8</ele><time>2022-11-02T16:29:48.0000000+00:00</time></trkpt><trkpt lat="39.47677634" lon="-0.38735834"><ele>17.8</ele><time>2022-11-02T16:29:49.0000000+00:00</time></trkpt><trkpt lat="39.47677676" lon="-0.38735851"><ele>17.8</ele><time>2022-11-02T16:29:50.0000000+00:00</time></trkpt><trkpt lat="39.47677634" lon="-0.38736027"><ele>17.8</ele><time>2022-11-02T16:29:51.0000000+00:00</time></trkpt><trkpt lat="39.47677533" lon="-0.3873606"><ele>17.8</ele><time>2022-11-02T16:29:52.0000000+00:00</time></trkpt><trkpt lat="39.47677567" lon="-0.3873632"><ele>17.8</ele><time>2022-11-02T16:29:53.0000000+00:00</time></trkpt><trkpt lat="39.47677843" lon="-0.38736253"><ele>17.8</ele><time>2022-11-02T16:29:54.0000000+00:00</time></trkpt><trkpt lat="39.47678966" lon="-0.38735113"><ele>17.8</ele><time>2022-11-02T16:29:55.0000000+00:00</time></trkpt><trkpt lat="39.47680006" lon="-0.38733847"><ele>17.8</ele><time>2022-11-02T16:29:56.0000000+00:00</time></trkpt><trkpt lat="39.47681255" lon="-0.38732288"><ele>17.8</ele><time>2022-11-02T16:29:57.0000000+00:00</time></trkpt><trkpt lat="39.4768252" lon="-0.38730905"><ele>17.8</ele><time>2022-11-02T16:29:58.0000000+00:00</time></trkpt><trkpt lat="39.47683501" lon="-0.38729028"><ele>17.8</ele><time>2022-11-02T16:29:59.0000000+00:00</time></trkpt><trkpt lat="39.47684155" lon="-0.38727569"><ele>17.8</ele><time>2022-11-02T16:30:00.0000000+00:00</time></trkpt><trkpt lat="39.47684297" lon="-0.387257"><ele>17.8</ele><time>2022-11-02T16:30:01.0000000+00:00</time></trkpt><trkpt lat="39.47684364" lon="-0.38725013"><ele>17.8</ele><time>2022-11-02T16:30:02.0000000+00:00</time></trkpt><trkpt lat="39.47684465" lon="-0.38724544"><ele>17.8</ele><time>2022-11-02T16:30:03.0000000+00:00</time></trkpt><trkpt lat="39.47684624" lon="-0.38722809"><ele>17.8</ele><time>2022-11-02T16:30:04.0000000+00:00</time></trkpt><trkpt lat="39.47684834" lon="-0.38721778"><ele>18.0</ele><time>2022-11-02T16:30:05.0000000+00:00</time></trkpt><trkpt lat="39.47684239" lon="-0.38720814"><ele>18.0</ele><time>2022-11-02T16:30:06.0000000+00:00</time></trkpt><trkpt lat="39.47683225" lon="-0.3871995"><ele>18.0</ele><time>2022-11-02T16:30:07.0000000+00:00</time></trkpt><trkpt lat="39.47682143" lon="-0.38718794"><ele>17.8</ele><time>2022-11-02T16:30:08.0000000+00:00</time></trkpt><trkpt lat="39.47681079" lon="-0.38718056"><ele>17.8</ele><time>2022-11-02T16:30:09.0000000+00:00</time></trkpt><trkpt lat="39.47679939" lon="-0.38717754"><ele>17.8</ele><time>2022-11-02T16:30:10.0000000+00:00</time></trkpt><trkpt lat="39.4767936" lon="-0.3871788"><ele>17.8</ele><time>2022-11-02T16:30:11.0000000+00:00</time></trkpt><trkpt lat="39.47678413" lon="-0.38717955"><ele>17.8</ele><time>2022-11-02T16:30:12.0000000+00:00</time></trkpt><trkpt lat="39.47677483" lon="-0.38717318"><ele>17.8</ele><time>2022-11-02T16:30:13.0000000+00:00</time></trkpt><trkpt lat="39.47676108" lon="-0.38717092"><ele>17.8</ele><time>2022-11-02T16:30:14.0000000+00:00</time></trkpt><trkpt lat="39.47674809" lon="-0.38716815"><ele>17.8</ele><time>2022-11-02T16:30:15.0000000+00:00</time></trkpt><trkpt lat="39.47673937" lon="-0.38716706"><ele>17.8</ele><time>2022-11-02T16:30:16.0000000+00:00</time></trkpt><trkpt lat="39.47673527" lon="-0.38716782"><ele>18.0</ele><time>2022-11-02T16:30:17.0000000+00:00</time></trkpt><trkpt lat="39.47672454" lon="-0.38716489"><ele>18.0</ele><time>2022-11-02T16:30:18.0000000+00:00</time></trkpt><trkpt lat="39.47672236" lon="-0.38716388"><ele>18.0</ele><time>2022-11-02T16:30:19.0000000+00:00</time></trkpt><trkpt lat="39.47672169" lon="-0.38716371"><ele>18.0</ele><time>2022-11-02T16:30:20.0000000+00:00</time></trkpt><trkpt lat="39.47672169" lon="-0.38716321"><ele>18.0</ele><time>2022-11-02T16:30:21.0000000+00:00</time></trkpt><trkpt lat="39.4767201" lon="-0.38716581"><ele>18.0</ele><time>2022-11-02T16:30:22.0000000+00:00</time></trkpt><trkpt lat="39.47671951" lon="-0.38716572"><ele>18.0</ele><time>2022-11-02T16:30:23.0000000+00:00</time></trkpt><trkpt lat="39.47671867" lon="-0.38716556"><ele>18.0</ele><time>2022-11-02T16:30:24.0000000+00:00</time></trkpt><trkpt lat="39.47671825" lon="-0.38716539"><ele>18.0</ele><time>2022-11-02T16:30:25.0000000+00:00</time></trkpt><trkpt lat="39.47671934" lon="-0.38716564"><ele>18.0</ele><time>2022-11-02T16:30:26.0000000+00:00</time></trkpt><trkpt lat="39.47671976" lon="-0.38716371"><ele>18.0</ele><time>2022-11-02T16:30:27.0000000+00:00</time></trkpt><trkpt lat="39.47671951" lon="-0.38716338"><ele>18.0</ele><time>2022-11-02T16:30:28.0000000+00:00</time></trkpt><trkpt lat="39.47671758" lon="-0.38716455"><ele>17.8</ele><time>2022-11-02T16:30:29.0000000+00:00</time></trkpt><trkpt lat="39.47671641" lon="-0.38715608"><ele>17.8</ele><time>2022-11-02T16:30:30.0000000+00:00</time></trkpt><trkpt lat="39.4767014" lon="-0.38715952"><ele>17.8</ele><time>2022-11-02T16:30:31.0000000+00:00</time></trkpt><trkpt lat="39.4766973" lon="-0.38715801"><ele>18.0</ele><time>2022-11-02T16:30:32.0000000+00:00</time></trkpt><trkpt lat="39.4766957" lon="-0.38716028"><ele>18.0</ele><time>2022-11-02T16:30:33.0000000+00:00</time></trkpt><trkpt lat="39.47669445" lon="-0.38716321"><ele>18.0</ele><time>2022-11-02T16:30:34.0000000+00:00</time></trkpt><trkpt lat="39.47669168" lon="-0.3871638"><ele>18.0</ele><time>2022-11-02T16:30:35.0000000+00:00</time></trkpt><trkpt lat="39.47668657" lon="-0.38716354"><ele>17.8</ele><time>2022-11-02T16:30:36.0000000+00:00</time></trkpt><trkpt lat="39.47668238" lon="-0.3871643"><ele>18.0</ele><time>2022-11-02T16:30:37.0000000+00:00</time></trkpt><trkpt lat="39.47668179" lon="-0.38716405"><ele>18.0</ele><time>2022-11-02T16:30:38.0000000+00:00</time></trkpt><trkpt lat="39.47668213" lon="-0.38716396"><ele>18.0</ele><time>2022-11-02T16:30:39.0000000+00:00</time></trkpt><trkpt lat="39.47668213" lon="-0.38716396"><ele>18.0</ele><time>2022-11-02T16:30:40.0000000+00:00</time></trkpt><trkpt lat="39.47668213" lon="-0.38716396"><ele>18.0</ele><time>2022-11-02T16:30:41.0000000+00:00</time></trkpt><trkpt lat="39.47668213" lon="-0.38716396"><ele>18.0</ele><time>2022-11-02T16:30:42.0000000+00:00</time></trkpt><trkpt lat="39.47668213" lon="-0.38716396"><ele>18.0</ele><time>2022-11-02T16:30:43.0000000+00:00</time></trkpt><trkpt lat="39.47668213" lon="-0.38716396"><ele>18.0</ele><time>2022-11-02T16:30:44.0000000+00:00</time></trkpt><trkpt lat="39.47668213" lon="-0.38716396"><ele>18.0</ele><time>2022-11-02T16:30:45.0000000+00:00</time></trkpt><trkpt lat="39.47668213" lon="-0.38716396"><ele>18.0</ele><time>2022-11-02T16:30:46.0000000+00:00</time></trkpt><trkpt lat="39.47668213" lon="-0.38716396"><ele>18.0</ele><time>2022-11-02T16:30:47.0000000+00:00</time></trkpt><trkpt lat="39.47668213" lon="-0.38716396"><ele>18.0</ele><time>2022-11-02T16:30:48.0000000+00:00</time></trkpt><trkpt lat="39.47668213" lon="-0.38716396"><ele>18.0</ele><time>2022-11-02T16:30:49.0000000+00:00</time></trkpt><trkpt lat="39.47668213" lon="-0.38716396"><ele>18.0</ele><time>2022-11-02T16:30:50.0000000+00:00</time></trkpt><trkpt lat="39.47668213" lon="-0.38716396"><ele>18.0</ele><time>2022-11-02T16:30:51.0000000+00:00</time></trkpt><trkpt lat="39.47668213" lon="-0.38716396"><ele>18.0</ele><time>2022-11-02T16:30:52.0000000+00:00</time></trkpt><trkpt lat="39.47668213" lon="-0.38716396"><ele>18.0</ele><time>2022-11-02T16:30:53.0000000+00:00</time></trkpt><trkpt lat="39.47668213" lon="-0.38716396"><ele>18.0</ele><time>2022-11-02T16:30:54.0000000+00:00</time></trkpt><trkpt lat="39.47668213" lon="-0.3871638"><ele>18.0</ele><time>2022-11-02T16:30:55.0000000+00:00</time></trkpt><trkpt lat="39.47668213" lon="-0.38716371"><ele>18.0</ele><time>2022-11-02T16:30:56.0000000+00:00</time></trkpt><trkpt lat="39.47668213" lon="-0.38716354"><ele>18.0</ele><time>2022-11-02T16:30:57.0000000+00:00</time></trkpt><trkpt lat="39.47668204" lon="-0.38716321"><ele>18.0</ele><time>2022-11-02T16:30:58.0000000+00:00</time></trkpt><trkpt lat="39.47668204" lon="-0.38716304"><ele>18.0</ele><time>2022-11-02T16:30:59.0000000+00:00</time></trkpt><trkpt lat="39.47668196" lon="-0.38716245"><ele>18.0</ele><time>2022-11-02T16:31:00.0000000+00:00</time></trkpt><trkpt lat="39.47668179" lon="-0.38716237"><ele>18.0</ele><time>2022-11-02T16:31:01.0000000+00:00</time></trkpt><trkpt lat="39.47668179" lon="-0.38716237"><ele>18.0</ele><time>2022-11-02T16:31:02.0000000+00:00</time></trkpt><trkpt lat="39.47668137" lon="-0.38716237"><ele>18.0</ele><time>2022-11-02T16:31:03.0000000+00:00</time></trkpt><trkpt lat="39.47668078" lon="-0.38716145"><ele>18.0</ele><time>2022-11-02T16:31:04.0000000+00:00</time></trkpt><trkpt lat="39.47668062" lon="-0.38716111"><ele>18.0</ele><time>2022-11-02T16:31:05.0000000+00:00</time></trkpt><trkpt lat="39.47668036" lon="-0.38716078"><ele>18.0</ele><time>2022-11-02T16:31:06.0000000+00:00</time></trkpt><trkpt lat="39.4766802" lon="-0.38716061"><ele>18.0</ele><time>2022-11-02T16:31:07.0000000+00:00</time></trkpt><trkpt lat="39.47668011" lon="-0.38716036"><ele>18.0</ele><time>2022-11-02T16:31:08.0000000+00:00</time></trkpt><trkpt lat="39.47667978" lon="-0.38716002"><ele>18.0</ele><time>2022-11-02T16:31:09.0000000+00:00</time></trkpt><trkpt lat="39.47667961" lon="-0.38715986"><ele>18.0</ele><time>2022-11-02T16:31:10.0000000+00:00</time></trkpt><trkpt lat="39.47667936" lon="-0.3871591"><ele>18.0</ele><time>2022-11-02T16:31:11.0000000+00:00</time></trkpt><trkpt lat="39.47667852" lon="-0.38715701"><ele>18.0</ele><time>2022-11-02T16:31:12.0000000+00:00</time></trkpt><trkpt lat="39.47667793" lon="-0.38715583"><ele>18.0</ele><time>2022-11-02T16:31:13.0000000+00:00</time></trkpt><trkpt lat="39.47667726" lon="-0.38715424"><ele>18.0</ele><time>2022-11-02T16:31:14.0000000+00:00</time></trkpt><trkpt lat="39.47667634" lon="-0.38715307"><ele>18.0</ele><time>2022-11-02T16:31:15.0000000+00:00</time></trkpt><trkpt lat="39.47667601" lon="-0.38715282"><ele>18.0</ele><time>2022-11-02T16:31:16.0000000+00:00</time></trkpt><trkpt lat="39.47667559" lon="-0.38715248"><ele>18.0</ele><time>2022-11-02T16:31:17.0000000+00:00</time></trkpt><trkpt lat="39.4766755" lon="-0.38715231"><ele>18.0</ele><time>2022-11-02T16:31:18.0000000+00:00</time></trkpt><trkpt lat="39.47667542" lon="-0.38715223"><ele>18.0</ele><time>2022-11-02T16:31:19.0000000+00:00</time></trkpt><trkpt lat="39.47667542" lon="-0.38715223"><ele>18.0</ele><time>2022-11-02T16:31:20.0000000+00:00</time></trkpt><trkpt lat="39.47667542" lon="-0.38715223"><ele>18.0</ele><time>2022-11-02T16:31:21.0000000+00:00</time></trkpt><trkpt lat="39.47667542" lon="-0.38715223"><ele>18.0</ele><time>2022-11-02T16:31:22.0000000+00:00</time></trkpt><trkpt lat="39.47667542" lon="-0.38715223"><ele>18.0</ele><time>2022-11-02T16:31:23.0000000+00:00</time></trkpt><trkpt lat="39.47667542" lon="-0.38715223"><ele>18.0</ele><time>2022-11-02T16:31:24.0000000+00:00</time></trkpt><trkpt lat="39.47667542" lon="-0.38715223"><ele>18.0</ele><time>2022-11-02T16:31:25.0000000+00:00</time></trkpt><trkpt lat="39.47667542" lon="-0.38715223"><ele>18.0</ele><time>2022-11-02T16:31:26.0000000+00:00</time></trkpt><trkpt lat="39.47667542" lon="-0.38715223"><ele>18.0</ele><time>2022-11-02T16:31:27.0000000+00:00</time></trkpt><trkpt lat="39.47667542" lon="-0.38715223"><ele>18.0</ele><time>2022-11-02T16:31:28.0000000+00:00</time></trkpt><trkpt lat="39.47667542" lon="-0.38715223"><ele>18.0</ele><time>2022-11-02T16:31:29.0000000+00:00</time></trkpt><trkpt lat="39.47667542" lon="-0.38715223"><ele>18.0</ele><time>2022-11-02T16:31:30.0000000+00:00</time></trkpt><trkpt lat="39.47667584" lon="-0.38715223"><ele>18.0</ele><time>2022-11-02T16:31:31.0000000+00:00</time></trkpt><trkpt lat="39.47667609" lon="-0.38715231"><ele>18.0</ele><time>2022-11-02T16:31:32.0000000+00:00</time></trkpt><trkpt lat="39.47667626" lon="-0.38715231"><ele>18.0</ele><time>2022-11-02T16:31:33.0000000+00:00</time></trkpt><trkpt lat="39.47667676" lon="-0.3871524"><ele>18.0</ele><time>2022-11-02T16:31:34.0000000+00:00</time></trkpt><trkpt lat="39.47667726" lon="-0.3871524"><ele>18.0</ele><time>2022-11-02T16:31:35.0000000+00:00</time></trkpt><trkpt lat="39.4766776" lon="-0.3871524"><ele>18.0</ele><time>2022-11-02T16:31:36.0000000+00:00</time></trkpt><trkpt lat="39.47667768" lon="-0.3871524"><ele>18.0</ele><time>2022-11-02T16:31:37.0000000+00:00</time></trkpt><trkpt lat="39.47667768" lon="-0.3871524"><ele>18.0</ele><time>2022-11-02T16:31:38.0000000+00:00</time></trkpt><trkpt lat="39.47667768" lon="-0.3871524"><ele>18.0</ele><time>2022-11-02T16:31:39.0000000+00:00</time></trkpt><trkpt lat="39.47667768" lon="-0.38715231"><ele>18.0</ele><time>2022-11-02T16:31:40.0000000+00:00</time></trkpt><trkpt lat="39.47667768" lon="-0.38715223"><ele>18.0</ele><time>2022-11-02T16:31:41.0000000+00:00</time></trkpt><trkpt lat="39.47667768" lon="-0.38715223"><ele>18.0</ele><time>2022-11-02T16:31:42.0000000+00:00</time></trkpt><trkpt lat="39.47667768" lon="-0.38715223"><ele>18.0</ele><time>2022-11-02T16:31:43.0000000+00:00</time></trkpt><trkpt lat="39.47667768" lon="-0.38715215"><ele>18.0</ele><time>2022-11-02T16:31:44.0000000+00:00</time></trkpt><trkpt lat="39.47667768" lon="-0.38715206"><ele>18.0</ele><time>2022-11-02T16:31:45.0000000+00:00</time></trkpt><trkpt lat="39.47667768" lon="-0.38715198"><ele>18.0</ele><time>2022-11-02T16:31:46.0000000+00:00</time></trkpt><trkpt lat="39.47667768" lon="-0.38715198"><ele>18.0</ele><time>2022-11-02T16:31:47.0000000+00:00</time></trkpt><trkpt lat="39.47667768" lon="-0.38715173"><ele>18.0</ele><time>2022-11-02T16:31:48.0000000+00:00</time></trkpt><trkpt lat="39.47667768" lon="-0.38715139"><ele>18.0</ele><time>2022-11-02T16:31:49.0000000+00:00</time></trkpt><trkpt lat="39.47667768" lon="-0.38715047"><ele>18.0</ele><time>2022-11-02T16:31:50.0000000+00:00</time></trkpt><trkpt lat="39.47667768" lon="-0.38714963"><ele>18.0</ele><time>2022-11-02T16:31:51.0000000+00:00</time></trkpt><trkpt lat="39.47667726" lon="-0.3871493"><ele>18.0</ele><time>2022-11-02T16:31:52.0000000+00:00</time></trkpt><trkpt lat="39.47667701" lon="-0.38714795"><ele>18.0</ele><time>2022-11-02T16:31:53.0000000+00:00</time></trkpt><trkpt lat="39.47667684" lon="-0.3871472"><ele>18.0</ele><time>2022-11-02T16:31:54.0000000+00:00</time></trkpt><trkpt lat="39.47667634" lon="-0.3871467"><ele>18.0</ele><time>2022-11-02T16:31:55.0000000+00:00</time></trkpt><trkpt lat="39.4766745" lon="-0.38714611"><ele>18.0</ele><time>2022-11-02T16:31:56.0000000+00:00</time></trkpt><trkpt lat="39.47667173" lon="-0.38714561"><ele>18.0</ele><time>2022-11-02T16:31:57.0000000+00:00</time></trkpt><trkpt lat="39.47666721" lon="-0.38714519"><ele>18.0</ele><time>2022-11-02T16:31:58.0000000+00:00</time></trkpt><trkpt lat="39.47666503" lon="-0.38714477"><ele>18.0</ele><time>2022-11-02T16:31:59.0000000+00:00</time></trkpt><trkpt lat="39.47666394" lon="-0.3871446"><ele>18.0</ele><time>2022-11-02T16:32:00.0000000+00:00</time></trkpt><trkpt lat="39.4766626" lon="-0.38714452"><ele>18.0</ele><time>2022-11-02T16:32:01.0000000+00:00</time></trkpt><trkpt lat="39.47665891" lon="-0.38714418"><ele>18.0</ele><time>2022-11-02T16:32:02.0000000+00:00</time></trkpt><trkpt lat="39.47665371" lon="-0.387141"><ele>18.0</ele><time>2022-11-02T16:32:03.0000000+00:00</time></trkpt><trkpt lat="39.47664809" lon="-0.38713639"><ele>18.0</ele><time>2022-11-02T16:32:04.0000000+00:00</time></trkpt><trkpt lat="39.47664122" lon="-0.38713102"><ele>18.0</ele><time>2022-11-02T16:32:05.0000000+00:00</time></trkpt><trkpt lat="39.47663728" lon="-0.38712742"><ele>18.0</ele><time>2022-11-02T16:32:06.0000000+00:00</time></trkpt><trkpt lat="39.4766346" lon="-0.38712675"><ele>18.0</ele><time>2022-11-02T16:32:07.0000000+00:00</time></trkpt><trkpt lat="39.47662991" lon="-0.38712549"><ele>18.0</ele><time>2022-11-02T16:32:08.0000000+00:00</time></trkpt><trkpt lat="39.47662991" lon="-0.38712549"><ele>18.0</ele><time>2022-11-02T16:32:09.0000000+00:00</time></trkpt><trkpt lat="39.47662991" lon="-0.38712549"><ele>18.0</ele><time>2022-11-02T16:32:10.0000000+00:00</time></trkpt><trkpt lat="39.47662991" lon="-0.38712549"><ele>18.0</ele><time>2022-11-02T16:32:11.0000000+00:00</time></trkpt><trkpt lat="39.47662991" lon="-0.38712549"><ele>18.0</ele><time>2022-11-02T16:32:12.0000000+00:00</time></trkpt><trkpt lat="39.47662991" lon="-0.38712549"><ele>18.0</ele><time>2022-11-02T16:32:13.0000000+00:00</time></trkpt><trkpt lat="39.47662991" lon="-0.38712549"><ele>18.0</ele><time>2022-11-02T16:32:14.0000000+00:00</time></trkpt><trkpt lat="39.47662991" lon="-0.38712549"><ele>18.0</ele><time>2022-11-02T16:32:15.0000000+00:00</time></trkpt><trkpt lat="39.47662991" lon="-0.38712549"><ele>18.0</ele><time>2022-11-02T16:32:16.0000000+00:00</time></trkpt><trkpt lat="39.47662563" lon="-0.38712549"><ele>18.0</ele><time>2022-11-02T16:32:17.0000000+00:00</time></trkpt><trkpt lat="39.47662404" lon="-0.38712549"><ele>18.0</ele><time>2022-11-02T16:32:18.0000000+00:00</time></trkpt><trkpt lat="39.47662211" lon="-0.38712549"><ele>18.0</ele><time>2022-11-02T16:32:19.0000000+00:00</time></trkpt><trkpt lat="39.47661985" lon="-0.38712549"><ele>18.0</ele><time>2022-11-02T16:32:20.0000000+00:00</time></trkpt><trkpt lat="39.47661893" lon="-0.38712549"><ele>18.0</ele><time>2022-11-02T16:32:21.0000000+00:00</time></trkpt><trkpt lat="39.47661876" lon="-0.38712532"><ele>18.0</ele><time>2022-11-02T16:32:22.0000000+00:00</time></trkpt><trkpt lat="39.47661867" lon="-0.38712448"><ele>18.0</ele><time>2022-11-02T16:32:23.0000000+00:00</time></trkpt><trkpt lat="39.47661415" lon="-0.3871192"><ele>18.0</ele><time>2022-11-02T16:32:24.0000000+00:00</time></trkpt><trkpt lat="39.47661121" lon="-0.38711526"><ele>18.0</ele><time>2022-11-02T16:32:25.0000000+00:00</time></trkpt><trkpt lat="39.47660895" lon="-0.38711183"><ele>18.0</ele><time>2022-11-02T16:32:26.0000000+00:00</time></trkpt><trkpt lat="39.47660593" lon="-0.38711032"><ele>18.0</ele><time>2022-11-02T16:32:27.0000000+00:00</time></trkpt><trkpt lat="39.47660484" lon="-0.38710814"><ele>18.0</ele><time>2022-11-02T16:32:28.0000000+00:00</time></trkpt><trkpt lat="39.47660426" lon="-0.38710789"><ele>18.0</ele><time>2022-11-02T16:32:29.0000000+00:00</time></trkpt><trkpt lat="39.47660266" lon="-0.38710764"><ele>18.0</ele><time>2022-11-02T16:32:30.0000000+00:00</time></trkpt><trkpt lat="39.47660099" lon="-0.38710755"><ele>18.0</ele><time>2022-11-02T16:32:31.0000000+00:00</time></trkpt><trkpt lat="39.47660057" lon="-0.3871073"><ele>18.0</ele><time>2022-11-02T16:32:32.0000000+00:00</time></trkpt><trkpt lat="39.47660057" lon="-0.38710672"><ele>18.0</ele><time>2022-11-02T16:32:33.0000000+00:00</time></trkpt><trkpt lat="39.47659965" lon="-0.38710663"><ele>18.0</ele><time>2022-11-02T16:32:34.0000000+00:00</time></trkpt><trkpt lat="39.47659889" lon="-0.3871063"><ele>18.0</ele><time>2022-11-02T16:32:35.0000000+00:00</time></trkpt><trkpt lat="39.47659621" lon="-0.38710596"><ele>18.0</ele><time>2022-11-02T16:32:36.0000000+00:00</time></trkpt><trkpt lat="39.47659562" lon="-0.38710571"><ele>18.0</ele><time>2022-11-02T16:32:37.0000000+00:00</time></trkpt><trkpt lat="39.47659537" lon="-0.38710546"><ele>18.0</ele><time>2022-11-02T16:32:38.0000000+00:00</time></trkpt><trkpt lat="39.47659294" lon="-0.38710537"><ele>18.0</ele><time>2022-11-02T16:32:39.0000000+00:00</time></trkpt><trkpt lat="39.47659227" lon="-0.38710512"><ele>18.0</ele><time>2022-11-02T16:32:40.0000000+00:00</time></trkpt><trkpt lat="39.4765921" lon="-0.38710496"><ele>18.0</ele><time>2022-11-02T16:32:41.0000000+00:00</time></trkpt><trkpt lat="39.47659168" lon="-0.3871047"><ele>18.0</ele><time>2022-11-02T16:32:42.0000000+00:00</time></trkpt><trkpt lat="39.47659135" lon="-0.38710403"><ele>18.0</ele><time>2022-11-02T16:32:43.0000000+00:00</time></trkpt><trkpt lat="39.47659076" lon="-0.38710378"><ele>18.0</ele><time>2022-11-02T16:32:44.0000000+00:00</time></trkpt><trkpt lat="39.47658959" lon="-0.38710211"><ele>18.0</ele><time>2022-11-02T16:32:45.0000000+00:00</time></trkpt><trkpt lat="39.47658825" lon="-0.38710118"><ele>18.0</ele><time>2022-11-02T16:32:46.0000000+00:00</time></trkpt><trkpt lat="39.47658397" lon="-0.38710051"><ele>18.0</ele><time>2022-11-02T16:32:47.0000000+00:00</time></trkpt><trkpt lat="39.47658096" lon="-0.38709934"><ele>18.0</ele><time>2022-11-02T16:32:48.0000000+00:00</time></trkpt><trkpt lat="39.47657769" lon="-0.387099"><ele>18.0</ele><time>2022-11-02T16:32:49.0000000+00:00</time></trkpt><trkpt lat="39.47657408" lon="-0.38709842"><ele>18.0</ele><time>2022-11-02T16:32:50.0000000+00:00</time></trkpt><trkpt lat="39.47657056" lon="-0.38709599"><ele>18.0</ele><time>2022-11-02T16:32:51.0000000+00:00</time></trkpt><trkpt lat="39.47656754" lon="-0.38709305"><ele>18.0</ele><time>2022-11-02T16:32:52.0000000+00:00</time></trkpt><trkpt lat="39.47656604" lon="-0.3870902"><ele>18.0</ele><time>2022-11-02T16:32:53.0000000+00:00</time></trkpt><trkpt lat="39.47656419" lon="-0.38708584"><ele>18.0</ele><time>2022-11-02T16:32:54.0000000+00:00</time></trkpt><trkpt lat="39.47656042" lon="-0.38708207"><ele>18.0</ele><time>2022-11-02T16:32:55.0000000+00:00</time></trkpt><trkpt lat="39.47654961" lon="-0.38707671"><ele>18.0</ele><time>2022-11-02T16:32:56.0000000+00:00</time></trkpt><trkpt lat="39.47653611" lon="-0.38707118"><ele>18.0</ele><time>2022-11-02T16:32:57.0000000+00:00</time></trkpt><trkpt lat="39.47652019" lon="-0.38707193"><ele>18.0</ele><time>2022-11-02T16:32:58.0000000+00:00</time></trkpt><trkpt lat="39.4765077" lon="-0.38706699"><ele>18.0</ele><time>2022-11-02T16:32:59.0000000+00:00</time></trkpt><trkpt lat="39.47649135" lon="-0.38706154"><ele>18.0</ele><time>2022-11-02T16:33:00.0000000+00:00</time></trkpt><trkpt lat="39.47647752" lon="-0.38705559"><ele>18.0</ele><time>2022-11-02T16:33:01.0000000+00:00</time></trkpt><trkpt lat="39.47646445" lon="-0.38704704"><ele>18.0</ele><time>2022-11-02T16:33:02.0000000+00:00</time></trkpt><trkpt lat="39.47644894" lon="-0.38704184"><ele>18.0</ele><time>2022-11-02T16:33:03.0000000+00:00</time></trkpt><trkpt lat="39.47643369" lon="-0.38703287"><ele>18.0</ele><time>2022-11-02T16:33:04.0000000+00:00</time></trkpt><trkpt lat="39.47642061" lon="-0.38702214"><ele>18.0</ele><time>2022-11-02T16:33:05.0000000+00:00</time></trkpt><trkpt lat="39.47641231" lon="-0.3870146"><ele>18.0</ele><time>2022-11-02T16:33:06.0000000+00:00</time></trkpt><trkpt lat="39.47640787" lon="-0.38701535"><ele>18.0</ele><time>2022-11-02T16:33:07.0000000+00:00</time></trkpt><trkpt lat="39.47640267" lon="-0.38701627"><ele>18.0</ele><time>2022-11-02T16:33:08.0000000+00:00</time></trkpt><trkpt lat="39.4763984" lon="-0.38701862"><ele>18.2</ele><time>2022-11-02T16:33:09.0000000+00:00</time></trkpt><trkpt lat="39.47639429" lon="-0.38701845"><ele>18.2</ele><time>2022-11-02T16:33:10.0000000+00:00</time></trkpt><trkpt lat="39.47639052" lon="-0.38701912"><ele>18.2</ele><time>2022-11-02T16:33:11.0000000+00:00</time></trkpt><trkpt lat="39.47638524" lon="-0.38701753"><ele>18.4</ele><time>2022-11-02T16:33:12.0000000+00:00</time></trkpt><trkpt lat="39.47638214" lon="-0.38701292"><ele>18.4</ele><time>2022-11-02T16:33:13.0000000+00:00</time></trkpt><trkpt lat="39.47638013" lon="-0.38700806"><ele>18.4</ele><time>2022-11-02T16:33:14.0000000+00:00</time></trkpt><trkpt lat="39.47637602" lon="-0.38700596"><ele>18.4</ele><time>2022-11-02T16:33:15.0000000+00:00</time></trkpt><trkpt lat="39.47636764" lon="-0.38700538"><ele>18.4</ele><time>2022-11-02T16:33:16.0000000+00:00</time></trkpt><trkpt lat="39.47636244" lon="-0.38700211"><ele>18.4</ele><time>2022-11-02T16:33:17.0000000+00:00</time></trkpt><trkpt lat="39.47635875" lon="-0.3870011"><ele>18.4</ele><time>2022-11-02T16:33:18.0000000+00:00</time></trkpt><trkpt lat="39.47634894" lon="-0.38699809"><ele>18.4</ele><time>2022-11-02T16:33:19.0000000+00:00</time></trkpt><trkpt lat="39.47634065" lon="-0.38699775"><ele>18.4</ele><time>2022-11-02T16:33:20.0000000+00:00</time></trkpt><trkpt lat="39.47633553" lon="-0.38699348"><ele>18.4</ele><time>2022-11-02T16:33:21.0000000+00:00</time></trkpt><trkpt lat="39.47633226" lon="-0.38698769"><ele>18.4</ele><time>2022-11-02T16:33:22.0000000+00:00</time></trkpt><trkpt lat="39.47633009" lon="-0.38697956"><ele>18.4</ele><time>2022-11-02T16:33:23.0000000+00:00</time></trkpt><trkpt lat="39.47632489" lon="-0.38697487"><ele>18.4</ele><time>2022-11-02T16:33:24.0000000+00:00</time></trkpt><trkpt lat="39.47632271" lon="-0.38697252"><ele>18.4</ele><time>2022-11-02T16:33:25.0000000+00:00</time></trkpt><trkpt lat="39.47631919" lon="-0.38697068"><ele>18.4</ele><time>2022-11-02T16:33:26.0000000+00:00</time></trkpt><trkpt lat="39.47631341" lon="-0.38697277"><ele>18.4</ele><time>2022-11-02T16:33:27.0000000+00:00</time></trkpt><trkpt lat="39.47630846" lon="-0.38697118"><ele>18.4</ele><time>2022-11-02T16:33:28.0000000+00:00</time></trkpt><trkpt lat="39.47630511" lon="-0.38696825"><ele>18.4</ele><time>2022-11-02T16:33:29.0000000+00:00</time></trkpt><trkpt lat="39.47630268" lon="-0.38696137"><ele>18.4</ele><time>2022-11-02T16:33:30.0000000+00:00</time></trkpt><trkpt lat="39.47629815" lon="-0.38695282"><ele>18.4</ele><time>2022-11-02T16:33:31.0000000+00:00</time></trkpt><trkpt lat="39.47629631" lon="-0.38694637"><ele>18.4</ele><time>2022-11-02T16:33:32.0000000+00:00</time></trkpt><trkpt lat="39.47629379" lon="-0.38694813"><ele>18.4</ele><time>2022-11-02T16:33:33.0000000+00:00</time></trkpt><trkpt lat="39.47629077" lon="-0.38694687"><ele>18.4</ele><time>2022-11-02T16:33:34.0000000+00:00</time></trkpt><trkpt lat="39.47628792" lon="-0.3869488"><ele>18.4</ele><time>2022-11-02T16:33:35.0000000+00:00</time></trkpt><trkpt lat="39.47627963" lon="-0.38695115"><ele>18.4</ele><time>2022-11-02T16:33:36.0000000+00:00</time></trkpt><trkpt lat="39.47627661" lon="-0.38695232"><ele>18.4</ele><time>2022-11-02T16:33:37.0000000+00:00</time></trkpt><trkpt lat="39.47627409" lon="-0.38695333"><ele>18.4</ele><time>2022-11-02T16:33:38.0000000+00:00</time></trkpt><trkpt lat="39.47627208" lon="-0.38695567"><ele>18.6</ele><time>2022-11-02T16:33:39.0000000+00:00</time></trkpt><trkpt lat="39.47626948" lon="-0.38695727"><ele>18.4</ele><time>2022-11-02T16:33:40.0000000+00:00</time></trkpt><trkpt lat="39.4762611" lon="-0.38696062"><ele>18.4</ele><time>2022-11-02T16:33:41.0000000+00:00</time></trkpt><trkpt lat="39.47625624" lon="-0.38695769"><ele>18.4</ele><time>2022-11-02T16:33:42.0000000+00:00</time></trkpt><trkpt lat="39.47625331" lon="-0.38695442"><ele>18.4</ele><time>2022-11-02T16:33:43.0000000+00:00</time></trkpt><trkpt lat="39.4762513" lon="-0.38695307"><ele>18.4</ele><time>2022-11-02T16:33:44.0000000+00:00</time></trkpt><trkpt lat="39.4762492" lon="-0.386954"><ele>18.4</ele><time>2022-11-02T16:33:45.0000000+00:00</time></trkpt><trkpt lat="39.47623881" lon="-0.3869576"><ele>18.4</ele><time>2022-11-02T16:33:46.0000000+00:00</time></trkpt><trkpt lat="39.47622766" lon="-0.38695911"><ele>18.2</ele><time>2022-11-02T16:33:47.0000000+00:00</time></trkpt><trkpt lat="39.47622037" lon="-0.38696112"><ele>18.2</ele><time>2022-11-02T16:33:48.0000000+00:00</time></trkpt><trkpt lat="39.47621827" lon="-0.38696481"><ele>18.2</ele><time>2022-11-02T16:33:49.0000000+00:00</time></trkpt><trkpt lat="39.47620696" lon="-0.38697294"><ele>18.2</ele><time>2022-11-02T16:33:50.0000000+00:00</time></trkpt><trkpt lat="39.47620369" lon="-0.38697663"><ele>18.4</ele><time>2022-11-02T16:33:51.0000000+00:00</time></trkpt><trkpt lat="39.47619581" lon="-0.38699306"><ele>18.4</ele><time>2022-11-02T16:33:52.0000000+00:00</time></trkpt><trkpt lat="39.47618877" lon="-0.38701267"><ele>18.2</ele><time>2022-11-02T16:33:53.0000000+00:00</time></trkpt><trkpt lat="39.47618315" lon="-0.38702876"><ele>18.4</ele><time>2022-11-02T16:33:54.0000000+00:00</time></trkpt><trkpt lat="39.47617661" lon="-0.38704209"><ele>18.4</ele><time>2022-11-02T16:33:55.0000000+00:00</time></trkpt><trkpt lat="39.47617536" lon="-0.38705383"><ele>18.4</ele><time>2022-11-02T16:33:56.0000000+00:00</time></trkpt><trkpt lat="39.47617695" lon="-0.3870607"><ele>18.4</ele><time>2022-11-02T16:33:57.0000000+00:00</time></trkpt><trkpt lat="39.47617829" lon="-0.38706967"><ele>18.4</ele><time>2022-11-02T16:33:58.0000000+00:00</time></trkpt><trkpt lat="39.47617485" lon="-0.38707914"><ele>18.2</ele><time>2022-11-02T16:33:59.0000000+00:00</time></trkpt><trkpt lat="39.47617468" lon="-0.38708475"><ele>18.2</ele><time>2022-11-02T16:34:00.0000000+00:00</time></trkpt><trkpt lat="39.47617477" lon="-0.38708635"><ele>18.4</ele><time>2022-11-02T16:34:01.0000000+00:00</time></trkpt><trkpt lat="39.47617519" lon="-0.3870871"><ele>18.4</ele><time>2022-11-02T16:34:02.0000000+00:00</time></trkpt><trkpt lat="39.4761746" lon="-0.38708819"><ele>18.4</ele><time>2022-11-02T16:34:03.0000000+00:00</time></trkpt><trkpt lat="39.47617519" lon="-0.38709523"><ele>18.2</ele><time>2022-11-02T16:34:04.0000000+00:00</time></trkpt><trkpt lat="39.47617544" lon="-0.38709565"><ele>18.2</ele><time>2022-11-02T16:34:05.0000000+00:00</time></trkpt><trkpt lat="39.47617519" lon="-0.38709766"><ele>18.2</ele><time>2022-11-02T16:34:06.0000000+00:00</time></trkpt><trkpt lat="39.4761746" lon="-0.38710202"><ele>18.2</ele><time>2022-11-02T16:34:07.0000000+00:00</time></trkpt><trkpt lat="39.47617401" lon="-0.38710588"><ele>18.2</ele><time>2022-11-02T16:34:08.0000000+00:00</time></trkpt><trkpt lat="39.4761751" lon="-0.38710806"><ele>18.2</ele><time>2022-11-02T16:34:09.0000000+00:00</time></trkpt><trkpt lat="39.47617787" lon="-0.38711032"><ele>18.2</ele><time>2022-11-02T16:34:10.0000000+00:00</time></trkpt><trkpt lat="39.47617653" lon="-0.38712046"><ele>18.2</ele><time>2022-11-02T16:34:11.0000000+00:00</time></trkpt><trkpt lat="39.47617267" lon="-0.38713077"><ele>18.6</ele><time>2022-11-02T16:34:12.0000000+00:00</time></trkpt><trkpt lat="39.47616857" lon="-0.38713982"><ele>18.6</ele><time>2022-11-02T16:34:13.0000000+00:00</time></trkpt><trkpt lat="39.47616664" lon="-0.38714971"><ele>18.6</ele><time>2022-11-02T16:34:14.0000000+00:00</time></trkpt><trkpt lat="39.47616085" lon="-0.38716019"><ele>18.6</ele><time>2022-11-02T16:34:15.0000000+00:00</time></trkpt><trkpt lat="39.47616136" lon="-0.38716824"><ele>18.6</ele><time>2022-11-02T16:34:16.0000000+00:00</time></trkpt><trkpt lat="39.47616018" lon="-0.38717645"><ele>18.6</ele><time>2022-11-02T16:34:17.0000000+00:00</time></trkpt><trkpt lat="39.47615759" lon="-0.38718316"><ele>18.6</ele><time>2022-11-02T16:34:18.0000000+00:00</time></trkpt><trkpt lat="39.47615666" lon="-0.38718928"><ele>18.6</ele><time>2022-11-02T16:34:19.0000000+00:00</time></trkpt><trkpt lat="39.476158" lon="-0.38719523"><ele>18.6</ele><time>2022-11-02T16:34:20.0000000+00:00</time></trkpt><trkpt lat="39.47615951" lon="-0.38720026"><ele>18.6</ele><time>2022-11-02T16:34:21.0000000+00:00</time></trkpt><trkpt lat="39.47615993" lon="-0.38720814"><ele>18.6</ele><time>2022-11-02T16:34:22.0000000+00:00</time></trkpt><trkpt lat="39.47616253" lon="-0.38721216"><ele>18.6</ele><time>2022-11-02T16:34:23.0000000+00:00</time></trkpt><trkpt lat="39.47616211" lon="-0.38721643"><ele>18.6</ele><time>2022-11-02T16:34:24.0000000+00:00</time></trkpt><trkpt lat="39.47616136" lon="-0.38722163"><ele>18.6</ele><time>2022-11-02T16:34:25.0000000+00:00</time></trkpt><trkpt lat="39.47615733" lon="-0.38722876"><ele>18.6</ele><time>2022-11-02T16:34:26.0000000+00:00</time></trkpt><trkpt lat="39.47615239" lon="-0.38723378"><ele>18.6</ele><time>2022-11-02T16:34:27.0000000+00:00</time></trkpt><trkpt lat="39.47614325" lon="-0.38723865"><ele>18.6</ele><time>2022-11-02T16:34:28.0000000+00:00</time></trkpt><trkpt lat="39.47613353" lon="-0.38724544"><ele>18.6</ele><time>2022-11-02T16:34:29.0000000+00:00</time></trkpt><trkpt lat="39.47612532" lon="-0.38725114"><ele>18.6</ele><time>2022-11-02T16:34:30.0000000+00:00</time></trkpt><trkpt lat="39.47611819" lon="-0.38725357"><ele>18.6</ele><time>2022-11-02T16:34:31.0000000+00:00</time></trkpt><trkpt lat="39.47611333" lon="-0.38725575"><ele>18.6</ele><time>2022-11-02T16:34:32.0000000+00:00</time></trkpt><trkpt lat="39.47610688" lon="-0.38725633"><ele>18.6</ele><time>2022-11-02T16:34:33.0000000+00:00</time></trkpt><trkpt lat="39.47609975" lon="-0.38725298"><ele>18.6</ele><time>2022-11-02T16:34:34.0000000+00:00</time></trkpt><trkpt lat="39.47609204" lon="-0.38724954"><ele>18.6</ele><time>2022-11-02T16:34:35.0000000+00:00</time></trkpt><trkpt lat="39.47608341" lon="-0.38724627"><ele>18.6</ele><time>2022-11-02T16:34:36.0000000+00:00</time></trkpt><trkpt lat="39.47607528" lon="-0.38724384"><ele>18.6</ele><time>2022-11-02T16:34:37.0000000+00:00</time></trkpt><trkpt lat="39.47606756" lon="-0.38724016"><ele>18.6</ele><time>2022-11-02T16:34:38.0000000+00:00</time></trkpt><trkpt lat="39.47606337" lon="-0.38723663"><ele>18.6</ele><time>2022-11-02T16:34:39.0000000+00:00</time></trkpt><trkpt lat="39.4760622" lon="-0.38723446"><ele>18.6</ele><time>2022-11-02T16:34:40.0000000+00:00</time></trkpt><trkpt lat="39.4760617" lon="-0.38723303"><ele>18.6</ele><time>2022-11-02T16:34:41.0000000+00:00</time></trkpt><trkpt lat="39.47606178" lon="-0.38723236"><ele>18.6</ele><time>2022-11-02T16:34:42.0000000+00:00</time></trkpt><trkpt lat="39.47606178" lon="-0.38723219"><ele>18.6</ele><time>2022-11-02T16:34:43.0000000+00:00</time></trkpt><trkpt lat="39.47606161" lon="-0.38723244"><ele>18.6</ele><time>2022-11-02T16:34:44.0000000+00:00</time></trkpt><trkpt lat="39.47606145" lon="-0.38723286"><ele>18.6</ele><time>2022-11-02T16:34:45.0000000+00:00</time></trkpt><trkpt lat="39.47606161" lon="-0.38723303"><ele>18.6</ele><time>2022-11-02T16:34:46.0000000+00:00</time></trkpt><trkpt lat="39.47606212" lon="-0.38723286"><ele>18.6</ele><time>2022-11-02T16:34:47.0000000+00:00</time></trkpt><trkpt lat="39.47606321" lon="-0.38723177"><ele>18.6</ele><time>2022-11-02T16:34:48.0000000+00:00</time></trkpt><trkpt lat="39.47606497" lon="-0.3872301"><ele>18.6</ele><time>2022-11-02T16:34:49.0000000+00:00</time></trkpt><trkpt lat="39.47606631" lon="-0.38722867"><ele>18.6</ele><time>2022-11-02T16:34:50.0000000+00:00</time></trkpt><trkpt lat="39.47606337" lon="-0.38723127"><ele>18.6</ele><time>2022-11-02T16:34:51.0000000+00:00</time></trkpt><trkpt lat="39.4760601" lon="-0.38722985"><ele>18.6</ele><time>2022-11-02T16:34:52.0000000+00:00</time></trkpt><trkpt lat="39.47605491" lon="-0.38722565"><ele>18.6</ele><time>2022-11-02T16:34:53.0000000+00:00</time></trkpt><trkpt lat="39.47604854" lon="-0.38722448"><ele>18.6</ele><time>2022-11-02T16:34:54.0000000+00:00</time></trkpt><trkpt lat="39.47604275" lon="-0.38722331"><ele>18.6</ele><time>2022-11-02T16:34:55.0000000+00:00</time></trkpt><trkpt lat="39.47603848" lon="-0.38722012"><ele>18.6</ele><time>2022-11-02T16:34:56.0000000+00:00</time></trkpt><trkpt lat="39.47603437" lon="-0.3872187"><ele>18.6</ele><time>2022-11-02T16:34:57.0000000+00:00</time></trkpt><trkpt lat="39.47603001" lon="-0.38721635"><ele>18.6</ele><time>2022-11-02T16:34:58.0000000+00:00</time></trkpt><trkpt lat="39.47602733" lon="-0.38721442"><ele>18.6</ele><time>2022-11-02T16:34:59.0000000+00:00</time></trkpt><trkpt lat="39.47602725" lon="-0.38721358"><ele>18.6</ele><time>2022-11-02T16:35:00.0000000+00:00</time></trkpt><trkpt lat="39.47602104" lon="-0.38721375"><ele>18.6</ele><time>2022-11-02T16:35:01.0000000+00:00</time></trkpt><trkpt lat="39.47601685" lon="-0.38721342"><ele>18.6</ele><time>2022-11-02T16:35:02.0000000+00:00</time></trkpt><trkpt lat="39.47600847" lon="-0.38721073"><ele>18.6</ele><time>2022-11-02T16:35:03.0000000+00:00</time></trkpt><trkpt lat="39.47600269" lon="-0.38720872"><ele>18.6</ele><time>2022-11-02T16:35:04.0000000+00:00</time></trkpt><trkpt lat="39.47599992" lon="-0.38720797"><ele>18.6</ele><time>2022-11-02T16:35:05.0000000+00:00</time></trkpt><trkpt lat="39.4759938" lon="-0.38720537"><ele>18.6</ele><time>2022-11-02T16:35:06.0000000+00:00</time></trkpt><trkpt lat="39.47599146" lon="-0.38720386"><ele>18.6</ele><time>2022-11-02T16:35:07.0000000+00:00</time></trkpt><trkpt lat="39.47598374" lon="-0.38720076"><ele>18.6</ele><time>2022-11-02T16:35:08.0000000+00:00</time></trkpt><trkpt lat="39.47597528" lon="-0.38720059"><ele>18.6</ele><time>2022-11-02T16:35:09.0000000+00:00</time></trkpt><trkpt lat="39.47596958" lon="-0.38720118"><ele>18.6</ele><time>2022-11-02T16:35:10.0000000+00:00</time></trkpt><trkpt lat="39.47596472" lon="-0.38719883"><ele>18.6</ele><time>2022-11-02T16:35:11.0000000+00:00</time></trkpt><trkpt lat="39.47595919" lon="-0.38719473"><ele>18.6</ele><time>2022-11-02T16:35:12.0000000+00:00</time></trkpt><trkpt lat="39.4759534" lon="-0.38718802"><ele>18.6</ele><time>2022-11-02T16:35:13.0000000+00:00</time></trkpt><trkpt lat="39.4759467" lon="-0.38718123"><ele>18.6</ele><time>2022-11-02T16:35:14.0000000+00:00</time></trkpt><trkpt lat="39.47593882" lon="-0.38717427"><ele>18.6</ele><time>2022-11-02T16:35:15.0000000+00:00</time></trkpt><trkpt lat="39.47592926" lon="-0.38716815"><ele>18.6</ele><time>2022-11-02T16:35:16.0000000+00:00</time></trkpt><trkpt lat="39.47592147" lon="-0.38716614"><ele>18.6</ele><time>2022-11-02T16:35:17.0000000+00:00</time></trkpt><trkpt lat="39.4759099" lon="-0.38716187"><ele>18.6</ele><time>2022-11-02T16:35:18.0000000+00:00</time></trkpt><trkpt lat="39.47590018" lon="-0.38715617"><ele>18.6</ele><time>2022-11-02T16:35:19.0000000+00:00</time></trkpt><trkpt lat="39.47589146" lon="-0.3871503"><ele>18.6</ele><time>2022-11-02T16:35:20.0000000+00:00</time></trkpt><trkpt lat="39.47588014" lon="-0.38714544"><ele>18.6</ele><time>2022-11-02T16:35:21.0000000+00:00</time></trkpt><trkpt lat="39.4758721" lon="-0.38714091"><ele>18.6</ele><time>2022-11-02T16:35:22.0000000+00:00</time></trkpt><trkpt lat="39.47586799" lon="-0.38713731"><ele>18.6</ele><time>2022-11-02T16:35:23.0000000+00:00</time></trkpt><trkpt lat="39.47586388" lon="-0.3871358"><ele>18.6</ele><time>2022-11-02T16:35:24.0000000+00:00</time></trkpt><trkpt lat="39.47585969" lon="-0.38713555"><ele>18.6</ele><time>2022-11-02T16:35:25.0000000+00:00</time></trkpt><trkpt lat="39.47585215" lon="-0.38713287"><ele>18.6</ele><time>2022-11-02T16:35:26.0000000+00:00</time></trkpt><trkpt lat="39.47584469" lon="-0.3871332"><ele>18.6</ele><time>2022-11-02T16:35:27.0000000+00:00</time></trkpt><trkpt lat="39.47583974" lon="-0.38713094"><ele>18.6</ele><time>2022-11-02T16:35:28.0000000+00:00</time></trkpt><trkpt lat="39.47583354" lon="-0.38713086"><ele>18.6</ele><time>2022-11-02T16:35:29.0000000+00:00</time></trkpt><trkpt lat="39.47582466" lon="-0.38712842"><ele>18.6</ele><time>2022-11-02T16:35:30.0000000+00:00</time></trkpt><trkpt lat="39.47582013" lon="-0.38712365"><ele>18.6</ele><time>2022-11-02T16:35:31.0000000+00:00</time></trkpt><trkpt lat="39.47581225" lon="-0.38712147"><ele>18.6</ele><time>2022-11-02T16:35:32.0000000+00:00</time></trkpt><trkpt lat="39.47580353" lon="-0.38711904"><ele>18.6</ele><time>2022-11-02T16:35:33.0000000+00:00</time></trkpt><trkpt lat="39.47579775" lon="-0.3871187"><ele>18.6</ele><time>2022-11-02T16:35:34.0000000+00:00</time></trkpt><trkpt lat="39.47579105" lon="-0.3871182"><ele>18.6</ele><time>2022-11-02T16:35:35.0000000+00:00</time></trkpt><trkpt lat="39.47578476" lon="-0.38711811"><ele>18.6</ele><time>2022-11-02T16:35:36.0000000+00:00</time></trkpt><trkpt lat="39.47577562" lon="-0.38712281"><ele>18.6</ele><time>2022-11-02T16:35:37.0000000+00:00</time></trkpt><trkpt lat="39.47577034" lon="-0.38712398"><ele>18.6</ele><time>2022-11-02T16:35:38.0000000+00:00</time></trkpt><trkpt lat="39.47576179" lon="-0.38712641"><ele>18.6</ele><time>2022-11-02T16:35:39.0000000+00:00</time></trkpt><trkpt lat="39.47575282" lon="-0.38711937"><ele>18.6</ele><time>2022-11-02T16:35:40.0000000+00:00</time></trkpt><trkpt lat="39.47575274" lon="-0.38711065"><ele>18.6</ele><time>2022-11-02T16:35:41.0000000+00:00</time></trkpt><trkpt lat="39.47574805" lon="-0.38710789"><ele>18.6</ele><time>2022-11-02T16:35:42.0000000+00:00</time></trkpt><trkpt lat="39.47574008" lon="-0.38710361"><ele>18.6</ele><time>2022-11-02T16:35:43.0000000+00:00</time></trkpt><trkpt lat="39.47572885" lon="-0.38710143"><ele>18.6</ele><time>2022-11-02T16:35:44.0000000+00:00</time></trkpt><trkpt lat="39.47572072" lon="-0.38709632"><ele>18.6</ele><time>2022-11-02T16:35:45.0000000+00:00</time></trkpt><trkpt lat="39.47571167" lon="-0.38709188"><ele>18.6</ele><time>2022-11-02T16:35:46.0000000+00:00</time></trkpt><trkpt lat="39.4757001" lon="-0.3870835"><ele>18.6</ele><time>2022-11-02T16:35:47.0000000+00:00</time></trkpt><trkpt lat="39.4756913" lon="-0.38707662"><ele>18.6</ele><time>2022-11-02T16:35:48.0000000+00:00</time></trkpt><trkpt lat="39.47568485" lon="-0.3870731"><ele>18.6</ele><time>2022-11-02T16:35:49.0000000+00:00</time></trkpt><trkpt lat="39.47567303" lon="-0.38706816"><ele>18.6</ele><time>2022-11-02T16:35:50.0000000+00:00</time></trkpt><trkpt lat="39.4756685" lon="-0.38706631"><ele>18.6</ele><time>2022-11-02T16:35:51.0000000+00:00</time></trkpt><trkpt lat="39.4756592" lon="-0.3870633"><ele>18.6</ele><time>2022-11-02T16:35:52.0000000+00:00</time></trkpt><trkpt lat="39.47564788" lon="-0.38705894"><ele>18.6</ele><time>2022-11-02T16:35:53.0000000+00:00</time></trkpt><trkpt lat="39.47563196" lon="-0.38704888"><ele>18.6</ele><time>2022-11-02T16:35:54.0000000+00:00</time></trkpt><trkpt lat="39.47562349" lon="-0.38704863"><ele>18.6</ele><time>2022-11-02T16:35:55.0000000+00:00</time></trkpt><trkpt lat="39.47561955" lon="-0.38704762"><ele>18.6</ele><time>2022-11-02T16:35:56.0000000+00:00</time></trkpt><trkpt lat="39.4756162" lon="-0.3870462"><ele>18.6</ele><time>2022-11-02T16:35:57.0000000+00:00</time></trkpt><trkpt lat="39.47561268" lon="-0.38704494"><ele>18.6</ele><time>2022-11-02T16:35:58.0000000+00:00</time></trkpt><trkpt lat="39.47560933" lon="-0.38704477"><ele>18.6</ele><time>2022-11-02T16:35:59.0000000+00:00</time></trkpt><trkpt lat="39.47560564" lon="-0.38704997"><ele>18.6</ele><time>2022-11-02T16:36:00.0000000+00:00</time></trkpt><trkpt lat="39.47560161" lon="-0.38704787"><ele>18.6</ele><time>2022-11-02T16:36:01.0000000+00:00</time></trkpt><trkpt lat="39.47560011" lon="-0.38704343"><ele>18.6</ele><time>2022-11-02T16:36:02.0000000+00:00</time></trkpt><trkpt lat="39.47560254" lon="-0.38703681"><ele>18.6</ele><time>2022-11-02T16:36:03.0000000+00:00</time></trkpt><trkpt lat="39.4756022" lon="-0.38702985"><ele>18.6</ele><time>2022-11-02T16:36:04.0000000+00:00</time></trkpt><trkpt lat="39.4756084" lon="-0.38701971"><ele>18.6</ele><time>2022-11-02T16:36:05.0000000+00:00</time></trkpt><trkpt lat="39.47561067" lon="-0.38701141"><ele>18.6</ele><time>2022-11-02T16:36:06.0000000+00:00</time></trkpt><trkpt lat="39.47561016" lon="-0.38700689"><ele>18.6</ele><time>2022-11-02T16:36:07.0000000+00:00</time></trkpt><trkpt lat="39.47561553" lon="-0.38700144"><ele>18.6</ele><time>2022-11-02T16:36:08.0000000+00:00</time></trkpt><trkpt lat="39.47562525" lon="-0.38699406"><ele>18.6</ele><time>2022-11-02T16:36:09.0000000+00:00</time></trkpt><trkpt lat="39.47563238" lon="-0.38698803"><ele>18.6</ele><time>2022-11-02T16:36:10.0000000+00:00</time></trkpt><trkpt lat="39.47563481" lon="-0.38698493"><ele>18.6</ele><time>2022-11-02T16:36:11.0000000+00:00</time></trkpt><trkpt lat="39.47563606" lon="-0.38697898"><ele>18.6</ele><time>2022-11-02T16:36:12.0000000+00:00</time></trkpt><trkpt lat="39.47563916" lon="-0.38697529"><ele>18.6</ele><time>2022-11-02T16:36:13.0000000+00:00</time></trkpt><trkpt lat="39.47564495" lon="-0.38697219"><ele>18.6</ele><time>2022-11-02T16:36:14.0000000+00:00</time></trkpt><trkpt lat="39.47564621" lon="-0.38696808"><ele>18.6</ele><time>2022-11-02T16:36:15.0000000+00:00</time></trkpt><trkpt lat="39.47564562" lon="-0.38696674"><ele>18.6</ele><time>2022-11-02T16:36:16.0000000+00:00</time></trkpt><trkpt lat="39.4756457" lon="-0.38696456"><ele>18.6</ele><time>2022-11-02T16:36:17.0000000+00:00</time></trkpt><trkpt lat="39.47564336" lon="-0.38696213"><ele>18.6</ele><time>2022-11-02T16:36:18.0000000+00:00</time></trkpt><trkpt lat="39.47564403" lon="-0.3869545"><ele>18.6</ele><time>2022-11-02T16:36:19.0000000+00:00</time></trkpt><trkpt lat="39.47564947" lon="-0.38694444"><ele>18.6</ele><time>2022-11-02T16:36:20.0000000+00:00</time></trkpt><trkpt lat="39.47565878" lon="-0.3869317"><ele>18.6</ele><time>2022-11-02T16:36:21.0000000+00:00</time></trkpt><trkpt lat="39.47566255" lon="-0.38692349"><ele>18.6</ele><time>2022-11-02T16:36:22.0000000+00:00</time></trkpt><trkpt lat="39.47566406" lon="-0.38691754"><ele>18.6</ele><time>2022-11-02T16:36:23.0000000+00:00</time></trkpt><trkpt lat="39.47566548" lon="-0.38691049"><ele>18.6</ele><time>2022-11-02T16:36:24.0000000+00:00</time></trkpt><trkpt lat="39.47567194" lon="-0.38690136"><ele>18.6</ele><time>2022-11-02T16:36:25.0000000+00:00</time></trkpt><trkpt lat="39.47567655" lon="-0.38689273"><ele>18.6</ele><time>2022-11-02T16:36:26.0000000+00:00</time></trkpt><trkpt lat="39.47567512" lon="-0.3868877"><ele>18.6</ele><time>2022-11-02T16:36:27.0000000+00:00</time></trkpt><trkpt lat="39.47567646" lon="-0.38687898"><ele>18.6</ele><time>2022-11-02T16:36:28.0000000+00:00</time></trkpt><trkpt lat="39.47567839" lon="-0.38686733"><ele>18.6</ele><time>2022-11-02T16:36:29.0000000+00:00</time></trkpt><trkpt lat="39.47568141" lon="-0.38685735"><ele>18.6</ele><time>2022-11-02T16:36:30.0000000+00:00</time></trkpt><trkpt lat="39.47568812" lon="-0.38684671"><ele>18.6</ele><time>2022-11-02T16:36:31.0000000+00:00</time></trkpt><trkpt lat="39.47569415" lon="-0.3868364"><ele>18.6</ele><time>2022-11-02T16:36:32.0000000+00:00</time></trkpt><trkpt lat="39.47569692" lon="-0.38683036"><ele>18.6</ele><time>2022-11-02T16:36:33.0000000+00:00</time></trkpt><trkpt lat="39.47569616" lon="-0.38682525"><ele>18.6</ele><time>2022-11-02T16:36:34.0000000+00:00</time></trkpt><trkpt lat="39.47569625" lon="-0.38682223"><ele>18.6</ele><time>2022-11-02T16:36:35.0000000+00:00</time></trkpt><trkpt lat="39.47569784" lon="-0.38681913"><ele>18.6</ele><time>2022-11-02T16:36:36.0000000+00:00</time></trkpt><trkpt lat="39.47570035" lon="-0.38681603"><ele>18.6</ele><time>2022-11-02T16:36:37.0000000+00:00</time></trkpt><trkpt lat="39.47570304" lon="-0.38681435"><ele>18.6</ele><time>2022-11-02T16:36:38.0000000+00:00</time></trkpt><trkpt lat="39.4757048" lon="-0.38681318"><ele>18.6</ele><time>2022-11-02T16:36:39.0000000+00:00</time></trkpt><trkpt lat="39.47570614" lon="-0.38681243"><ele>18.6</ele><time>2022-11-02T16:36:40.0000000+00:00</time></trkpt><trkpt lat="39.47570739" lon="-0.38681092"><ele>18.6</ele><time>2022-11-02T16:36:41.0000000+00:00</time></trkpt><trkpt lat="39.47570798" lon="-0.38681067"><ele>18.6</ele><time>2022-11-02T16:36:42.0000000+00:00</time></trkpt><trkpt lat="39.47570832" lon="-0.38681184"><ele>18.6</ele><time>2022-11-02T16:36:43.0000000+00:00</time></trkpt><trkpt lat="39.47570815" lon="-0.38681184"><ele>18.6</ele><time>2022-11-02T16:36:44.0000000+00:00</time></trkpt><trkpt lat="39.47570773" lon="-0.38680731"><ele>18.6</ele><time>2022-11-02T16:36:45.0000000+00:00</time></trkpt><trkpt lat="39.47570379" lon="-0.3868058"><ele>18.6</ele><time>2022-11-02T16:36:46.0000000+00:00</time></trkpt><trkpt lat="39.47569968" lon="-0.38680404"><ele>18.6</ele><time>2022-11-02T16:36:47.0000000+00:00</time></trkpt><trkpt lat="39.47570345" lon="-0.38679885"><ele>18.6</ele><time>2022-11-02T16:36:48.0000000+00:00</time></trkpt><trkpt lat="39.47570312" lon="-0.38679499"><ele>18.6</ele><time>2022-11-02T16:36:49.0000000+00:00</time></trkpt><trkpt lat="39.47570195" lon="-0.38679105"><ele>18.6</ele><time>2022-11-02T16:36:50.0000000+00:00</time></trkpt><trkpt lat="39.47569532" lon="-0.38679156"><ele>18.6</ele><time>2022-11-02T16:36:51.0000000+00:00</time></trkpt><trkpt lat="39.47568669" lon="-0.38678912"><ele>18.6</ele><time>2022-11-02T16:36:52.0000000+00:00</time></trkpt><trkpt lat="39.47568602" lon="-0.38678091"><ele>18.6</ele><time>2022-11-02T16:36:53.0000000+00:00</time></trkpt><trkpt lat="39.47568929" lon="-0.38676675"><ele>18.6</ele><time>2022-11-02T16:36:54.0000000+00:00</time></trkpt><trkpt lat="39.47568979" lon="-0.38676088"><ele>18.6</ele><time>2022-11-02T16:36:55.0000000+00:00</time></trkpt><trkpt lat="39.47569046" lon="-0.38675183"><ele>18.6</ele><time>2022-11-02T16:36:56.0000000+00:00</time></trkpt><trkpt lat="39.47568946" lon="-0.38674772"><ele>18.6</ele><time>2022-11-02T16:36:57.0000000+00:00</time></trkpt><trkpt lat="39.47568761" lon="-0.38674654"><ele>18.6</ele><time>2022-11-02T16:36:58.0000000+00:00</time></trkpt><trkpt lat="39.47568728" lon="-0.38673665"><ele>18.6</ele><time>2022-11-02T16:36:59.0000000+00:00</time></trkpt><trkpt lat="39.47568786" lon="-0.38672492"><ele>18.6</ele><time>2022-11-02T16:37:00.0000000+00:00</time></trkpt><trkpt lat="39.47568661" lon="-0.38671562"><ele>18.6</ele><time>2022-11-02T16:37:01.0000000+00:00</time></trkpt><trkpt lat="39.47568485" lon="-0.3867074"><ele>18.6</ele><time>2022-11-02T16:37:02.0000000+00:00</time></trkpt><trkpt lat="39.47568283" lon="-0.38670271"><ele>18.6</ele><time>2022-11-02T16:37:03.0000000+00:00</time></trkpt><trkpt lat="39.47568091" lon="-0.38669935"><ele>18.6</ele><time>2022-11-02T16:37:04.0000000+00:00</time></trkpt><trkpt lat="39.47567856" lon="-0.38669818"><ele>18.6</ele><time>2022-11-02T16:37:05.0000000+00:00</time></trkpt><trkpt lat="39.47567605" lon="-0.38669743"><ele>18.6</ele><time>2022-11-02T16:37:06.0000000+00:00</time></trkpt><trkpt lat="39.47567454" lon="-0.386696"><ele>18.6</ele><time>2022-11-02T16:37:07.0000000+00:00</time></trkpt><trkpt lat="39.4756742" lon="-0.38669357"><ele>18.6</ele><time>2022-11-02T16:37:08.0000000+00:00</time></trkpt><trkpt lat="39.47567789" lon="-0.38668829"><ele>18.6</ele><time>2022-11-02T16:37:09.0000000+00:00</time></trkpt><trkpt lat="39.47568493" lon="-0.38668259"><ele>18.6</ele><time>2022-11-02T16:37:10.0000000+00:00</time></trkpt><trkpt lat="39.4756996" lon="-0.38666415"><ele>18.6</ele><time>2022-11-02T16:37:11.0000000+00:00</time></trkpt><trkpt lat="39.47571259" lon="-0.38664403"><ele>18.6</ele><time>2022-11-02T16:37:12.0000000+00:00</time></trkpt><trkpt lat="39.47572969" lon="-0.38662207"><ele>18.6</ele><time>2022-11-02T16:37:13.0000000+00:00</time></trkpt><trkpt lat="39.47573531" lon="-0.38660992"><ele>18.6</ele><time>2022-11-02T16:37:14.0000000+00:00</time></trkpt><trkpt lat="39.47573572" lon="-0.38660112"><ele>18.6</ele><time>2022-11-02T16:37:15.0000000+00:00</time></trkpt><trkpt lat="39.47574075" lon="-0.38659064"><ele>18.6</ele><time>2022-11-02T16:37:16.0000000+00:00</time></trkpt><trkpt lat="39.47575031" lon="-0.3865779"><ele>18.6</ele><time>2022-11-02T16:37:17.0000000+00:00</time></trkpt><trkpt lat="39.47575542" lon="-0.38656608"><ele>18.6</ele><time>2022-11-02T16:37:18.0000000+00:00</time></trkpt><trkpt lat="39.47575995" lon="-0.38655485"><ele>18.6</ele><time>2022-11-02T16:37:19.0000000+00:00</time></trkpt><trkpt lat="39.47576028" lon="-0.3865453"><ele>18.6</ele><time>2022-11-02T16:37:20.0000000+00:00</time></trkpt><trkpt lat="39.47575291" lon="-0.38654001"><ele>18.4</ele><time>2022-11-02T16:37:21.0000000+00:00</time></trkpt><trkpt lat="39.47574562" lon="-0.38653624"><ele>18.4</ele><time>2022-11-02T16:37:22.0000000+00:00</time></trkpt><trkpt lat="39.47574134" lon="-0.3865344"><ele>18.4</ele><time>2022-11-02T16:37:23.0000000+00:00</time></trkpt><trkpt lat="39.47574067" lon="-0.38653088"><ele>18.4</ele><time>2022-11-02T16:37:24.0000000+00:00</time></trkpt><trkpt lat="39.47574033" lon="-0.38652409"><ele>18.4</ele><time>2022-11-02T16:37:25.0000000+00:00</time></trkpt><trkpt lat="39.47573975" lon="-0.38651872"><ele>18.4</ele><time>2022-11-02T16:37:26.0000000+00:00</time></trkpt><trkpt lat="39.47573866" lon="-0.38651638"><ele>18.4</ele><time>2022-11-02T16:37:27.0000000+00:00</time></trkpt><trkpt lat="39.47573849" lon="-0.3865168"><ele>18.4</ele><time>2022-11-02T16:37:28.0000000+00:00</time></trkpt><trkpt lat="39.47574419" lon="-0.38651696"><ele>18.4</ele><time>2022-11-02T16:37:29.0000000+00:00</time></trkpt><trkpt lat="39.47574637" lon="-0.38651437"><ele>18.4</ele><time>2022-11-02T16:37:30.0000000+00:00</time></trkpt><trkpt lat="39.47575458" lon="-0.38650565"><ele>18.4</ele><time>2022-11-02T16:37:31.0000000+00:00</time></trkpt><trkpt lat="39.47575953" lon="-0.38650263"><ele>18.4</ele><time>2022-11-02T16:37:32.0000000+00:00</time></trkpt><trkpt lat="39.47576481" lon="-0.38649635"><ele>18.4</ele><time>2022-11-02T16:37:33.0000000+00:00</time></trkpt><trkpt lat="39.47576959" lon="-0.38649081"><ele>18.4</ele><time>2022-11-02T16:37:34.0000000+00:00</time></trkpt><trkpt lat="39.47577026" lon="-0.38648763"><ele>18.4</ele><time>2022-11-02T16:37:35.0000000+00:00</time></trkpt><trkpt lat="39.47578174" lon="-0.38648268"><ele>18.4</ele><time>2022-11-02T16:37:36.0000000+00:00</time></trkpt><trkpt lat="39.4757892" lon="-0.38648134"><ele>18.4</ele><time>2022-11-02T16:37:37.0000000+00:00</time></trkpt><trkpt lat="39.47579306" lon="-0.38648025"><ele>18.4</ele><time>2022-11-02T16:37:38.0000000+00:00</time></trkpt><trkpt lat="39.47579431" lon="-0.38647925"><ele>18.4</ele><time>2022-11-02T16:37:39.0000000+00:00</time></trkpt><trkpt lat="39.47579381" lon="-0.38647816"><ele>18.4</ele><time>2022-11-02T16:37:40.0000000+00:00</time></trkpt><trkpt lat="39.47579247" lon="-0.38647824"><ele>18.4</ele><time>2022-11-02T16:37:41.0000000+00:00</time></trkpt><trkpt lat="39.47579213" lon="-0.38647765"><ele>18.4</ele><time>2022-11-02T16:37:42.0000000+00:00</time></trkpt><trkpt lat="39.47579063" lon="-0.38647715"><ele>18.4</ele><time>2022-11-02T16:37:43.0000000+00:00</time></trkpt><trkpt lat="39.4757882" lon="-0.38647723"><ele>18.4</ele><time>2022-11-02T16:37:44.0000000+00:00</time></trkpt><trkpt lat="39.47578778" lon="-0.38647715"><ele>18.4</ele><time>2022-11-02T16:37:45.0000000+00:00</time></trkpt><trkpt lat="39.47578744" lon="-0.38647673"><ele>18.4</ele><time>2022-11-02T16:37:46.0000000+00:00</time></trkpt><trkpt lat="39.47578811" lon="-0.38647665"><ele>18.4</ele><time>2022-11-02T16:37:47.0000000+00:00</time></trkpt><trkpt lat="39.47578836" lon="-0.3864764"><ele>18.4</ele><time>2022-11-02T16:37:48.0000000+00:00</time></trkpt><trkpt lat="39.47578719" lon="-0.3864774"><ele>18.4</ele><time>2022-11-02T16:37:49.0000000+00:00</time></trkpt><trkpt lat="39.47578652" lon="-0.3864764"><ele>18.4</ele><time>2022-11-02T16:37:50.0000000+00:00</time></trkpt><trkpt lat="39.47578618" lon="-0.38647598"><ele>18.4</ele><time>2022-11-02T16:37:51.0000000+00:00</time></trkpt><trkpt lat="39.47578618" lon="-0.38647598"><ele>18.4</ele><time>2022-11-02T16:37:52.0000000+00:00</time></trkpt><trkpt lat="39.47578618" lon="-0.38647598"><ele>18.4</ele><time>2022-11-02T16:37:53.0000000+00:00</time></trkpt><trkpt lat="39.47578618" lon="-0.38647598"><ele>18.4</ele><time>2022-11-02T16:37:54.0000000+00:00</time></trkpt><trkpt lat="39.47578618" lon="-0.38647598"><ele>18.4</ele><time>2022-11-02T16:37:55.0000000+00:00</time></trkpt><trkpt lat="39.47578618" lon="-0.38647598"><ele>18.4</ele><time>2022-11-02T16:37:56.0000000+00:00</time></trkpt><trkpt lat="39.47578618" lon="-0.38647598"><ele>18.4</ele><time>2022-11-02T16:37:57.0000000+00:00</time></trkpt><trkpt lat="39.47578618" lon="-0.38647598"><ele>18.4</ele><time>2022-11-02T16:37:58.0000000+00:00</time></trkpt><trkpt lat="39.47578618" lon="-0.38647598"><ele>18.4</ele><time>2022-11-02T16:37:59.0000000+00:00</time></trkpt><trkpt lat="39.47578618" lon="-0.38647598"><ele>18.4</ele><time>2022-11-02T16:38:00.0000000+00:00</time></trkpt><trkpt lat="39.47578618" lon="-0.38647598"><ele>18.4</ele><time>2022-11-02T16:38:01.0000000+00:00</time></trkpt><trkpt lat="39.47578618" lon="-0.38647598"><ele>18.4</ele><time>2022-11-02T16:38:02.0000000+00:00</time></trkpt><trkpt lat="39.47578618" lon="-0.38647598"><ele>18.4</ele><time>2022-11-02T16:38:03.0000000+00:00</time></trkpt><trkpt lat="39.47578618" lon="-0.38647598"><ele>18.4</ele><time>2022-11-02T16:38:04.0000000+00:00</time></trkpt><trkpt lat="39.47578618" lon="-0.38647598"><ele>18.2</ele><time>2022-11-02T16:38:05.0000000+00:00</time></trkpt><trkpt lat="39.47578618" lon="-0.38647598"><ele>18.2</ele><time>2022-11-02T16:38:06.0000000+00:00</time></trkpt><trkpt lat="39.47578484" lon="-0.38647598"><ele>18.2</ele><time>2022-11-02T16:38:07.0000000+00:00</time></trkpt><trkpt lat="39.47578417" lon="-0.38647598"><ele>18.2</ele><time>2022-11-02T16:38:08.0000000+00:00</time></trkpt><trkpt lat="39.47578375" lon="-0.38647598"><ele>18.2</ele><time>2022-11-02T16:38:09.0000000+00:00</time></trkpt><trkpt lat="39.47578266" lon="-0.38647598"><ele>18.2</ele><time>2022-11-02T16:38:10.0000000+00:00</time></trkpt><trkpt lat="39.4757825" lon="-0.38647547"><ele>18.2</ele><time>2022-11-02T16:38:11.0000000+00:00</time></trkpt><trkpt lat="39.47578191" lon="-0.38647522"><ele>18.2</ele><time>2022-11-02T16:38:12.0000000+00:00</time></trkpt><trkpt lat="39.47578182" lon="-0.3864748"><ele>18.2</ele><time>2022-11-02T16:38:13.0000000+00:00</time></trkpt><trkpt lat="39.47578182" lon="-0.38647464"><ele>18.4</ele><time>2022-11-02T16:38:14.0000000+00:00</time></trkpt><trkpt lat="39.47578182" lon="-0.3864743"><ele>18.4</ele><time>2022-11-02T16:38:15.0000000+00:00</time></trkpt><trkpt lat="39.47578182" lon="-0.38647338"><ele>18.4</ele><time>2022-11-02T16:38:16.0000000+00:00</time></trkpt><trkpt lat="39.47578182" lon="-0.38647095"><ele>18.4</ele><time>2022-11-02T16:38:17.0000000+00:00</time></trkpt><trkpt lat="39.47578182" lon="-0.38646801"><ele>18.4</ele><time>2022-11-02T16:38:18.0000000+00:00</time></trkpt><trkpt lat="39.47578182" lon="-0.38646684"><ele>18.4</ele><time>2022-11-02T16:38:19.0000000+00:00</time></trkpt><trkpt lat="39.47578182" lon="-0.38646625"><ele>18.4</ele><time>2022-11-02T16:38:20.0000000+00:00</time></trkpt><trkpt lat="39.47578182" lon="-0.38646583"><ele>18.4</ele><time>2022-11-02T16:38:21.0000000+00:00</time></trkpt><trkpt lat="39.47578182" lon="-0.38646575"><ele>18.2</ele><time>2022-11-02T16:38:22.0000000+00:00</time></trkpt><trkpt lat="39.47578182" lon="-0.38646542"><ele>18.2</ele><time>2022-11-02T16:38:23.0000000+00:00</time></trkpt><trkpt lat="39.47578182" lon="-0.38646349"><ele>18.2</ele><time>2022-11-02T16:38:24.0000000+00:00</time></trkpt><trkpt lat="39.47578182" lon="-0.38646055"><ele>18.2</ele><time>2022-11-02T16:38:25.0000000+00:00</time></trkpt><trkpt lat="39.47578182" lon="-0.38645787"><ele>18.4</ele><time>2022-11-02T16:38:26.0000000+00:00</time></trkpt><trkpt lat="39.47578627" lon="-0.38645393"><ele>18.4</ele><time>2022-11-02T16:38:27.0000000+00:00</time></trkpt><trkpt lat="39.47578954" lon="-0.38644639"><ele>18.4</ele><time>2022-11-02T16:38:28.0000000+00:00</time></trkpt><trkpt lat="39.47579004" lon="-0.38643809"><ele>18.4</ele><time>2022-11-02T16:38:29.0000000+00:00</time></trkpt><trkpt lat="39.47579021" lon="-0.38643306"><ele>18.4</ele><time>2022-11-02T16:38:30.0000000+00:00</time></trkpt><trkpt lat="39.47579021" lon="-0.38643122"><ele>18.6</ele><time>2022-11-02T16:38:31.0000000+00:00</time></trkpt><trkpt lat="39.47579021" lon="-0.3864308"><ele>18.6</ele><time>2022-11-02T16:38:32.0000000+00:00</time></trkpt><trkpt lat="39.47579021" lon="-0.38642812"><ele>18.6</ele><time>2022-11-02T16:38:33.0000000+00:00</time></trkpt><trkpt lat="39.47579021" lon="-0.38642719"><ele>18.6</ele><time>2022-11-02T16:38:34.0000000+00:00</time></trkpt><trkpt lat="39.47579021" lon="-0.38642694"><ele>18.6</ele><time>2022-11-02T16:38:35.0000000+00:00</time></trkpt><trkpt lat="39.47579021" lon="-0.38642577"><ele>18.6</ele><time>2022-11-02T16:38:36.0000000+00:00</time></trkpt><trkpt lat="39.47579021" lon="-0.38642543"><ele>18.8</ele><time>2022-11-02T16:38:37.0000000+00:00</time></trkpt><trkpt lat="39.47579021" lon="-0.38642476"><ele>18.6</ele><time>2022-11-02T16:38:38.0000000+00:00</time></trkpt><trkpt lat="39.47579021" lon="-0.38642434"><ele>18.6</ele><time>2022-11-02T16:38:39.0000000+00:00</time></trkpt><trkpt lat="39.47579021" lon="-0.38642393"><ele>18.6</ele><time>2022-11-02T16:38:40.0000000+00:00</time></trkpt><trkpt lat="39.47579021" lon="-0.38642258"><ele>18.6</ele><time>2022-11-02T16:38:41.0000000+00:00</time></trkpt><trkpt lat="39.47579021" lon="-0.38642124"><ele>18.6</ele><time>2022-11-02T16:38:42.0000000+00:00</time></trkpt><trkpt lat="39.47578736" lon="-0.38642041"><ele>18.6</ele><time>2022-11-02T16:38:43.0000000+00:00</time></trkpt><trkpt lat="39.47578627" lon="-0.38641211"><ele>18.6</ele><time>2022-11-02T16:38:44.0000000+00:00</time></trkpt><trkpt lat="39.47578417" lon="-0.38640507"><ele>18.8</ele><time>2022-11-02T16:38:45.0000000+00:00</time></trkpt><trkpt lat="39.47578426" lon="-0.38639861"><ele>18.8</ele><time>2022-11-02T16:38:46.0000000+00:00</time></trkpt><trkpt lat="39.47579457" lon="-0.38638696"><ele>18.8</ele><time>2022-11-02T16:38:47.0000000+00:00</time></trkpt><trkpt lat="39.4758146" lon="-0.38637313"><ele>18.8</ele><time>2022-11-02T16:38:48.0000000+00:00</time></trkpt><trkpt lat="39.47582818" lon="-0.38636081"><ele>18.8</ele><time>2022-11-02T16:38:49.0000000+00:00</time></trkpt><trkpt lat="39.47583279" lon="-0.38634488"><ele>18.8</ele><time>2022-11-02T16:38:50.0000000+00:00</time></trkpt><trkpt lat="39.47583078" lon="-0.38632753"><ele>18.6</ele><time>2022-11-02T16:38:51.0000000+00:00</time></trkpt><trkpt lat="39.47582893" lon="-0.38631471"><ele>18.6</ele><time>2022-11-02T16:38:52.0000000+00:00</time></trkpt><trkpt lat="39.47582675" lon="-0.38630323"><ele>18.6</ele><time>2022-11-02T16:38:53.0000000+00:00</time></trkpt><trkpt lat="39.47582549" lon="-0.38627565"><ele>18.6</ele><time>2022-11-02T16:38:54.0000000+00:00</time></trkpt><trkpt lat="39.47582482" lon="-0.3862526"><ele>18.6</ele><time>2022-11-02T16:38:55.0000000+00:00</time></trkpt><trkpt lat="39.47582633" lon="-0.38624698"><ele>18.6</ele><time>2022-11-02T16:38:56.0000000+00:00</time></trkpt><trkpt lat="39.47582181" lon="-0.3862417"><ele>18.6</ele><time>2022-11-02T16:38:57.0000000+00:00</time></trkpt><trkpt lat="39.47582608" lon="-0.38624128"><ele>18.6</ele><time>2022-11-02T16:38:58.0000000+00:00</time></trkpt><trkpt lat="39.47582985" lon="-0.38623969"><ele>18.4</ele><time>2022-11-02T16:38:59.0000000+00:00</time></trkpt><trkpt lat="39.47583228" lon="-0.38623164"><ele>18.4</ele><time>2022-11-02T16:39:00.0000000+00:00</time></trkpt><trkpt lat="39.47583371" lon="-0.38622838"><ele>18.4</ele><time>2022-11-02T16:39:01.0000000+00:00</time></trkpt><trkpt lat="39.4758327" lon="-0.38622368"><ele>18.4</ele><time>2022-11-02T16:39:02.0000000+00:00</time></trkpt><trkpt lat="39.4758177" lon="-0.38622402"><ele>18.6</ele><time>2022-11-02T16:39:03.0000000+00:00</time></trkpt><trkpt lat="39.47581426" lon="-0.38622318"><ele>18.6</ele><time>2022-11-02T16:39:04.0000000+00:00</time></trkpt><trkpt lat="39.4758037" lon="-0.38622486"><ele>18.6</ele><time>2022-11-02T16:39:05.0000000+00:00</time></trkpt><trkpt lat="39.4758058" lon="-0.38622117"><ele>18.6</ele><time>2022-11-02T16:39:06.0000000+00:00</time></trkpt><trkpt lat="39.4757954" lon="-0.3862127"><ele>18.6</ele><time>2022-11-02T16:39:07.0000000+00:00</time></trkpt><trkpt lat="39.47579222" lon="-0.38620457"><ele>18.6</ele><time>2022-11-02T16:39:08.0000000+00:00</time></trkpt><trkpt lat="39.47579716" lon="-0.38620248"><ele>18.6</ele><time>2022-11-02T16:39:09.0000000+00:00</time></trkpt><trkpt lat="39.47579767" lon="-0.38620667"><ele>18.6</ele><time>2022-11-02T16:39:10.0000000+00:00</time></trkpt><trkpt lat="39.47579557" lon="-0.38621144"><ele>18.6</ele><time>2022-11-02T16:39:11.0000000+00:00</time></trkpt><trkpt lat="39.47579633" lon="-0.38621329"><ele>18.6</ele><time>2022-11-02T16:39:12.0000000+00:00</time></trkpt><trkpt lat="39.47579599" lon="-0.38621656"><ele>18.6</ele><time>2022-11-02T16:39:13.0000000+00:00</time></trkpt><trkpt lat="39.47579691" lon="-0.3862158"><ele>18.6</ele><time>2022-11-02T16:39:14.0000000+00:00</time></trkpt><trkpt lat="39.47579767" lon="-0.38621672"><ele>18.6</ele><time>2022-11-02T16:39:15.0000000+00:00</time></trkpt><trkpt lat="39.47579356" lon="-0.3862205"><ele>18.6</ele><time>2022-11-02T16:39:16.0000000+00:00</time></trkpt><trkpt lat="39.47578761" lon="-0.38623014"><ele>18.6</ele><time>2022-11-02T16:39:17.0000000+00:00</time></trkpt><trkpt lat="39.47578115" lon="-0.38622511"><ele>18.6</ele><time>2022-11-02T16:39:18.0000000+00:00</time></trkpt><trkpt lat="39.47576858" lon="-0.38622628"><ele>18.6</ele><time>2022-11-02T16:39:19.0000000+00:00</time></trkpt><trkpt lat="39.47576758" lon="-0.38623022"><ele>18.6</ele><time>2022-11-02T16:39:20.0000000+00:00</time></trkpt><trkpt lat="39.47575718" lon="-0.38622745"><ele>18.6</ele><time>2022-11-02T16:39:21.0000000+00:00</time></trkpt><trkpt lat="39.47575106" lon="-0.38622754"><ele>18.6</ele><time>2022-11-02T16:39:22.0000000+00:00</time></trkpt><trkpt lat="39.47574033" lon="-0.3862267"><ele>18.6</ele><time>2022-11-02T16:39:23.0000000+00:00</time></trkpt><trkpt lat="39.47573279" lon="-0.38621924"><ele>18.6</ele><time>2022-11-02T16:39:24.0000000+00:00</time></trkpt><trkpt lat="39.47573589" lon="-0.38620834"><ele>18.6</ele><time>2022-11-02T16:39:25.0000000+00:00</time></trkpt><trkpt lat="39.4757374" lon="-0.38620465"><ele>18.6</ele><time>2022-11-02T16:39:26.0000000+00:00</time></trkpt><trkpt lat="39.47573924" lon="-0.38619703"><ele>18.6</ele><time>2022-11-02T16:39:27.0000000+00:00</time></trkpt><trkpt lat="39.47574654" lon="-0.38618663"><ele>18.4</ele><time>2022-11-02T16:39:28.0000000+00:00</time></trkpt><trkpt lat="39.47574981" lon="-0.3861759"><ele>18.4</ele><time>2022-11-02T16:39:29.0000000+00:00</time></trkpt><trkpt lat="39.47575509" lon="-0.38616283"><ele>18.4</ele><time>2022-11-02T16:39:30.0000000+00:00</time></trkpt><trkpt lat="39.47577135" lon="-0.38614489"><ele>18.4</ele><time>2022-11-02T16:39:31.0000000+00:00</time></trkpt><trkpt lat="39.47577571" lon="-0.38613743"><ele>18.4</ele><time>2022-11-02T16:39:32.0000000+00:00</time></trkpt><trkpt lat="39.47576548" lon="-0.38613768"><ele>18.4</ele><time>2022-11-02T16:39:33.0000000+00:00</time></trkpt><trkpt lat="39.47575995" lon="-0.38614171"><ele>18.2</ele><time>2022-11-02T16:39:34.0000000+00:00</time></trkpt><trkpt lat="39.47575752" lon="-0.38614213"><ele>18.2</ele><time>2022-11-02T16:39:35.0000000+00:00</time></trkpt><trkpt lat="39.47575727" lon="-0.38613995"><ele>18.2</ele><time>2022-11-02T16:39:36.0000000+00:00</time></trkpt><trkpt lat="39.47575903" lon="-0.38613835"><ele>18.2</ele><time>2022-11-02T16:39:37.0000000+00:00</time></trkpt><trkpt lat="39.47575961" lon="-0.3861355"><ele>18.2</ele><time>2022-11-02T16:39:38.0000000+00:00</time></trkpt><trkpt lat="39.47575358" lon="-0.38614037"><ele>18.2</ele><time>2022-11-02T16:39:39.0000000+00:00</time></trkpt><trkpt lat="39.47575525" lon="-0.3861412"><ele>18.4</ele><time>2022-11-02T16:39:40.0000000+00:00</time></trkpt><trkpt lat="39.4757571" lon="-0.38614422"><ele>18.4</ele><time>2022-11-02T16:39:41.0000000+00:00</time></trkpt><trkpt lat="39.47575299" lon="-0.38614213"><ele>18.4</ele><time>2022-11-02T16:39:42.0000000+00:00</time></trkpt><trkpt lat="39.47574939" lon="-0.38614439"><ele>18.4</ele><time>2022-11-02T16:39:43.0000000+00:00</time></trkpt><trkpt lat="39.47574453" lon="-0.38614581"><ele>18.4</ele><time>2022-11-02T16:39:44.0000000+00:00</time></trkpt><trkpt lat="39.47574704" lon="-0.38614715"><ele>18.4</ele><time>2022-11-02T16:39:45.0000000+00:00</time></trkpt><trkpt lat="39.47575232" lon="-0.38614699"><ele>18.4</ele><time>2022-11-02T16:39:46.0000000+00:00</time></trkpt><trkpt lat="39.47576053" lon="-0.38614204"><ele>18.4</ele><time>2022-11-02T16:39:47.0000000+00:00</time></trkpt><trkpt lat="39.47576263" lon="-0.38614498"><ele>18.4</ele><time>2022-11-02T16:39:48.0000000+00:00</time></trkpt><trkpt lat="39.47575727" lon="-0.38615512"><ele>18.4</ele><time>2022-11-02T16:39:49.0000000+00:00</time></trkpt><trkpt lat="39.47575567" lon="-0.38616417"><ele>18.4</ele><time>2022-11-02T16:39:50.0000000+00:00</time></trkpt><trkpt lat="39.47576271" lon="-0.38617012"><ele>18.4</ele><time>2022-11-02T16:39:51.0000000+00:00</time></trkpt><trkpt lat="39.47576691" lon="-0.38617607"><ele>18.4</ele><time>2022-11-02T16:39:52.0000000+00:00</time></trkpt><trkpt lat="39.47576766" lon="-0.38617968"><ele>18.4</ele><time>2022-11-02T16:39:53.0000000+00:00</time></trkpt><trkpt lat="39.47576799" lon="-0.38619585"><ele>18.4</ele><time>2022-11-02T16:39:54.0000000+00:00</time></trkpt><trkpt lat="39.47576867" lon="-0.38621547"><ele>18.4</ele><time>2022-11-02T16:39:55.0000000+00:00</time></trkpt><trkpt lat="39.47576766" lon="-0.38623558"><ele>18.4</ele><time>2022-11-02T16:39:56.0000000+00:00</time></trkpt><trkpt lat="39.47576967" lon="-0.38624707"><ele>18.4</ele><time>2022-11-02T16:39:57.0000000+00:00</time></trkpt><trkpt lat="39.47577219" lon="-0.38625646"><ele>18.4</ele><time>2022-11-02T16:39:58.0000000+00:00</time></trkpt><trkpt lat="39.47577269" lon="-0.38626861"><ele>18.4</ele><time>2022-11-02T16:39:59.0000000+00:00</time></trkpt><trkpt lat="39.475769" lon="-0.38628713"><ele>18.4</ele><time>2022-11-02T16:40:00.0000000+00:00</time></trkpt><trkpt lat="39.47576766" lon="-0.38630356"><ele>18.4</ele><time>2022-11-02T16:40:01.0000000+00:00</time></trkpt><trkpt lat="39.47576774" lon="-0.3863153"><ele>18.4</ele><time>2022-11-02T16:40:02.0000000+00:00</time></trkpt><trkpt lat="39.47576716" lon="-0.38632301"><ele>18.4</ele><time>2022-11-02T16:40:03.0000000+00:00</time></trkpt><trkpt lat="39.4757638" lon="-0.38632837"><ele>18.4</ele><time>2022-11-02T16:40:04.0000000+00:00</time></trkpt><trkpt lat="39.47575173" lon="-0.38633407"><ele>18.4</ele><time>2022-11-02T16:40:05.0000000+00:00</time></trkpt><trkpt lat="39.47573497" lon="-0.38634463"><ele>18.4</ele><time>2022-11-02T16:40:06.0000000+00:00</time></trkpt><trkpt lat="39.47571737" lon="-0.38634991"><ele>18.4</ele><time>2022-11-02T16:40:07.0000000+00:00</time></trkpt><trkpt lat="39.47570882" lon="-0.38635603"><ele>18.4</ele><time>2022-11-02T16:40:08.0000000+00:00</time></trkpt><trkpt lat="39.47570823" lon="-0.38635989"><ele>18.4</ele><time>2022-11-02T16:40:09.0000000+00:00</time></trkpt><trkpt lat="39.47571393" lon="-0.38635838"><ele>18.4</ele><time>2022-11-02T16:40:10.0000000+00:00</time></trkpt><trkpt lat="39.47571963" lon="-0.38635586"><ele>18.4</ele><time>2022-11-02T16:40:11.0000000+00:00</time></trkpt><trkpt lat="39.4757177" lon="-0.38635276"><ele>18.4</ele><time>2022-11-02T16:40:12.0000000+00:00</time></trkpt><trkpt lat="39.47572349" lon="-0.38634027"><ele>18.4</ele><time>2022-11-02T16:40:13.0000000+00:00</time></trkpt><trkpt lat="39.47572449" lon="-0.38633524"><ele>18.4</ele><time>2022-11-02T16:40:14.0000000+00:00</time></trkpt><trkpt lat="39.47573204" lon="-0.38632871"><ele>18.4</ele><time>2022-11-02T16:40:15.0000000+00:00</time></trkpt><trkpt lat="39.47574696" lon="-0.38631932"><ele>18.6</ele><time>2022-11-02T16:40:16.0000000+00:00</time></trkpt><trkpt lat="39.47574813" lon="-0.38631496"><ele>18.6</ele><time>2022-11-02T16:40:17.0000000+00:00</time></trkpt><trkpt lat="39.47574813" lon="-0.38631002"><ele>18.6</ele><time>2022-11-02T16:40:18.0000000+00:00</time></trkpt><trkpt lat="39.47576112" lon="-0.38631588"><ele>18.6</ele><time>2022-11-02T16:40:19.0000000+00:00</time></trkpt><trkpt lat="39.47576598" lon="-0.38631144"><ele>18.6</ele><time>2022-11-02T16:40:20.0000000+00:00</time></trkpt><trkpt lat="39.47577026" lon="-0.38631907"><ele>18.8</ele><time>2022-11-02T16:40:21.0000000+00:00</time></trkpt><trkpt lat="39.47577445" lon="-0.38632267"><ele>18.8</ele><time>2022-11-02T16:40:22.0000000+00:00</time></trkpt><trkpt lat="39.47576028" lon="-0.38632443"><ele>18.8</ele><time>2022-11-02T16:40:23.0000000+00:00</time></trkpt><trkpt lat="39.47575727" lon="-0.3863246"><ele>18.6</ele><time>2022-11-02T16:40:24.0000000+00:00</time></trkpt><trkpt lat="39.4757571" lon="-0.38632477"><ele>18.6</ele><time>2022-11-02T16:40:25.0000000+00:00</time></trkpt><trkpt lat="39.4757571" lon="-0.38632477"><ele>18.6</ele><time>2022-11-02T16:40:26.0000000+00:00</time></trkpt><trkpt lat="39.47575224" lon="-0.3863272"><ele>18.6</ele><time>2022-11-02T16:40:27.0000000+00:00</time></trkpt><trkpt lat="39.47573698" lon="-0.38633105"><ele>18.6</ele><time>2022-11-02T16:40:28.0000000+00:00</time></trkpt><trkpt lat="39.47572298" lon="-0.3863386"><ele>18.6</ele><time>2022-11-02T16:40:29.0000000+00:00</time></trkpt><trkpt lat="39.47571636" lon="-0.38633156"><ele>18.6</ele><time>2022-11-02T16:40:30.0000000+00:00</time></trkpt><trkpt lat="39.47570739" lon="-0.38633139"><ele>18.8</ele><time>2022-11-02T16:40:31.0000000+00:00</time></trkpt><trkpt lat="39.47569985" lon="-0.38632829"><ele>18.8</ele><time>2022-11-02T16:40:32.0000000+00:00</time></trkpt><trkpt lat="39.47569046" lon="-0.38632695"><ele>18.6</ele><time>2022-11-02T16:40:33.0000000+00:00</time></trkpt><trkpt lat="39.47567965" lon="-0.38632519"><ele>18.6</ele><time>2022-11-02T16:40:34.0000000+00:00</time></trkpt><trkpt lat="39.47567102" lon="-0.38632116"><ele>18.6</ele><time>2022-11-02T16:40:35.0000000+00:00</time></trkpt><trkpt lat="39.47566079" lon="-0.38631815"><ele>18.6</ele><time>2022-11-02T16:40:36.0000000+00:00</time></trkpt><trkpt lat="39.47565207" lon="-0.38631672"><ele>18.6</ele><time>2022-11-02T16:40:37.0000000+00:00</time></trkpt><trkpt lat="39.47564671" lon="-0.38631588"><ele>18.6</ele><time>2022-11-02T16:40:38.0000000+00:00</time></trkpt><trkpt lat="39.47564243" lon="-0.38631563"><ele>18.6</ele><time>2022-11-02T16:40:39.0000000+00:00</time></trkpt><trkpt lat="39.47563564" lon="-0.38632133"><ele>18.8</ele><time>2022-11-02T16:40:40.0000000+00:00</time></trkpt><trkpt lat="39.47563263" lon="-0.38632133"><ele>18.8</ele><time>2022-11-02T16:40:41.0000000+00:00</time></trkpt><trkpt lat="39.47563455" lon="-0.38632309"><ele>18.8</ele><time>2022-11-02T16:40:42.0000000+00:00</time></trkpt><trkpt lat="39.47562517" lon="-0.38632401"><ele>18.8</ele><time>2022-11-02T16:40:43.0000000+00:00</time></trkpt><trkpt lat="39.47562869" lon="-0.38632309"><ele>18.8</ele><time>2022-11-02T16:40:44.0000000+00:00</time></trkpt><trkpt lat="39.4756276" lon="-0.3863282"><ele>18.8</ele><time>2022-11-02T16:40:45.0000000+00:00</time></trkpt><trkpt lat="39.47562316" lon="-0.38631882"><ele>18.8</ele><time>2022-11-02T16:40:46.0000000+00:00</time></trkpt><trkpt lat="39.4756136" lon="-0.38633214"><ele>18.8</ele><time>2022-11-02T16:40:47.0000000+00:00</time></trkpt><trkpt lat="39.47560228" lon="-0.38634597"><ele>18.8</ele><time>2022-11-02T16:40:48.0000000+00:00</time></trkpt><trkpt lat="39.47559583" lon="-0.38636223"><ele>18.6</ele><time>2022-11-02T16:40:49.0000000+00:00</time></trkpt><trkpt lat="39.47558435" lon="-0.38636802"><ele>18.8</ele><time>2022-11-02T16:40:50.0000000+00:00</time></trkpt><trkpt lat="39.47557102" lon="-0.38637389"><ele>18.8</ele><time>2022-11-02T16:40:51.0000000+00:00</time></trkpt><trkpt lat="39.4755706" lon="-0.38637338"><ele>18.8</ele><time>2022-11-02T16:40:52.0000000+00:00</time></trkpt><trkpt lat="39.47555652" lon="-0.38634748"><ele>18.8</ele><time>2022-11-02T16:40:53.0000000+00:00</time></trkpt><trkpt lat="39.47553749" lon="-0.38632217"><ele>18.8</ele><time>2022-11-02T16:40:54.0000000+00:00</time></trkpt><trkpt lat="39.47553196" lon="-0.3863184"><ele>18.6</ele><time>2022-11-02T16:40:55.0000000+00:00</time></trkpt><trkpt lat="39.47551905" lon="-0.38632678"><ele>18.6</ele><time>2022-11-02T16:40:56.0000000+00:00</time></trkpt><trkpt lat="39.47551193" lon="-0.38632887"><ele>18.6</ele><time>2022-11-02T16:40:57.0000000+00:00</time></trkpt><trkpt lat="39.47550086" lon="-0.38634053"><ele>18.6</ele><time>2022-11-02T16:40:58.0000000+00:00</time></trkpt><trkpt lat="39.47550187" lon="-0.38634078"><ele>18.6</ele><time>2022-11-02T16:40:59.0000000+00:00</time></trkpt><trkpt lat="39.47551419" lon="-0.38635603"><ele>18.6</ele><time>2022-11-02T16:41:00.0000000+00:00</time></trkpt><trkpt lat="39.47551595" lon="-0.38635863"><ele>18.6</ele><time>2022-11-02T16:41:01.0000000+00:00</time></trkpt><trkpt lat="39.47551888" lon="-0.38635586"><ele>18.8</ele><time>2022-11-02T16:41:02.0000000+00:00</time></trkpt><trkpt lat="39.47552458" lon="-0.38636182"><ele>18.8</ele><time>2022-11-02T16:41:03.0000000+00:00</time></trkpt><trkpt lat="39.47553288" lon="-0.38636894"><ele>18.8</ele><time>2022-11-02T16:41:04.0000000+00:00</time></trkpt><trkpt lat="39.47553657" lon="-0.38636902"><ele>18.8</ele><time>2022-11-02T16:41:05.0000000+00:00</time></trkpt><trkpt lat="39.47554135" lon="-0.38636785"><ele>18.6</ele><time>2022-11-02T16:41:06.0000000+00:00</time></trkpt><trkpt lat="39.4755421" lon="-0.38634933"><ele>18.8</ele><time>2022-11-02T16:41:07.0000000+00:00</time></trkpt><trkpt lat="39.47554663" lon="-0.38633273"><ele>18.8</ele><time>2022-11-02T16:41:08.0000000+00:00</time></trkpt><trkpt lat="39.4755504" lon="-0.38631907"><ele>18.6</ele><time>2022-11-02T16:41:09.0000000+00:00</time></trkpt><trkpt lat="39.47555032" lon="-0.3863013"><ele>18.6</ele><time>2022-11-02T16:41:10.0000000+00:00</time></trkpt><trkpt lat="39.47554713" lon="-0.38628118"><ele>18.6</ele><time>2022-11-02T16:41:11.0000000+00:00</time></trkpt><trkpt lat="39.47554277" lon="-0.38627464"><ele>18.6</ele><time>2022-11-02T16:41:12.0000000+00:00</time></trkpt><trkpt lat="39.4755473" lon="-0.38625436"><ele>18.6</ele><time>2022-11-02T16:41:13.0000000+00:00</time></trkpt><trkpt lat="39.47557454" lon="-0.38625386"><ele>18.6</ele><time>2022-11-02T16:41:14.0000000+00:00</time></trkpt><trkpt lat="39.47558686" lon="-0.38624656"><ele>18.6</ele><time>2022-11-02T16:41:15.0000000+00:00</time></trkpt><trkpt lat="39.4755955" lon="-0.38624346"><ele>18.6</ele><time>2022-11-02T16:41:16.0000000+00:00</time></trkpt><trkpt lat="39.47560815" lon="-0.38624145"><ele>18.6</ele><time>2022-11-02T16:41:17.0000000+00:00</time></trkpt><trkpt lat="39.47560673" lon="-0.38622486"><ele>18.6</ele><time>2022-11-02T16:41:18.0000000+00:00</time></trkpt><trkpt lat="39.47561704" lon="-0.38621337"><ele>18.6</ele><time>2022-11-02T16:41:19.0000000+00:00</time></trkpt><trkpt lat="39.47562441" lon="-0.38619108"><ele>18.6</ele><time>2022-11-02T16:41:20.0000000+00:00</time></trkpt><trkpt lat="39.47561905" lon="-0.38616685"><ele>18.6</ele><time>2022-11-02T16:41:21.0000000+00:00</time></trkpt><trkpt lat="39.47561444" lon="-0.38615143"><ele>18.6</ele><time>2022-11-02T16:41:22.0000000+00:00</time></trkpt><trkpt lat="39.4756043" lon="-0.38613659"><ele>18.6</ele><time>2022-11-02T16:41:23.0000000+00:00</time></trkpt><trkpt lat="39.47558024" lon="-0.38612234"><ele>18.6</ele><time>2022-11-02T16:41:24.0000000+00:00</time></trkpt><trkpt lat="39.4755913" lon="-0.38612017"><ele>18.6</ele><time>2022-11-02T16:41:25.0000000+00:00</time></trkpt><trkpt lat="39.4755696" lon="-0.3861024"><ele>18.6</ele><time>2022-11-02T16:41:26.0000000+00:00</time></trkpt><trkpt lat="39.47555878" lon="-0.38609904"><ele>18.6</ele><time>2022-11-02T16:41:27.0000000+00:00</time></trkpt><trkpt lat="39.47555585" lon="-0.3860765"><ele>18.6</ele><time>2022-11-02T16:41:28.0000000+00:00</time></trkpt><trkpt lat="39.47555426" lon="-0.38605546"><ele>18.6</ele><time>2022-11-02T16:41:29.0000000+00:00</time></trkpt><trkpt lat="39.47554629" lon="-0.3860392"><ele>18.6</ele><time>2022-11-02T16:41:30.0000000+00:00</time></trkpt><trkpt lat="39.47554437" lon="-0.38603425"><ele>18.6</ele><time>2022-11-02T16:41:31.0000000+00:00</time></trkpt><trkpt lat="39.47554026" lon="-0.38601246"><ele>18.6</ele><time>2022-11-02T16:41:32.0000000+00:00</time></trkpt><trkpt lat="39.47553665" lon="-0.38601078"><ele>18.6</ele><time>2022-11-02T16:41:33.0000000+00:00</time></trkpt><trkpt lat="39.47553422" lon="-0.38600952"><ele>18.6</ele><time>2022-11-02T16:41:34.0000000+00:00</time></trkpt><trkpt lat="39.47552861" lon="-0.38600106"><ele>18.6</ele><time>2022-11-02T16:41:35.0000000+00:00</time></trkpt><trkpt lat="39.47552911" lon="-0.3859879"><ele>18.6</ele><time>2022-11-02T16:41:36.0000000+00:00</time></trkpt><trkpt lat="39.47553439" lon="-0.38599494"><ele>18.6</ele><time>2022-11-02T16:41:37.0000000+00:00</time></trkpt><trkpt lat="39.47554814" lon="-0.3860076"><ele>18.6</ele><time>2022-11-02T16:41:38.0000000+00:00</time></trkpt><trkpt lat="39.47555074" lon="-0.38600567"><ele>18.6</ele><time>2022-11-02T16:41:39.0000000+00:00</time></trkpt><trkpt lat="39.47554277" lon="-0.3860107"><ele>18.6</ele><time>2022-11-02T16:41:40.0000000+00:00</time></trkpt><trkpt lat="39.47551629" lon="-0.38602889"><ele>18.6</ele><time>2022-11-02T16:41:41.0000000+00:00</time></trkpt><trkpt lat="39.47549139" lon="-0.38603995"><ele>18.6</ele><time>2022-11-02T16:41:42.0000000+00:00</time></trkpt><trkpt lat="39.47548276" lon="-0.38605152"><ele>18.6</ele><time>2022-11-02T16:41:43.0000000+00:00</time></trkpt><trkpt lat="39.47546801" lon="-0.38606023"><ele>18.6</ele><time>2022-11-02T16:41:44.0000000+00:00</time></trkpt><trkpt lat="39.4754603" lon="-0.38606937"><ele>18.6</ele><time>2022-11-02T16:41:45.0000000+00:00</time></trkpt><trkpt lat="39.4754665" lon="-0.38608069"><ele>18.6</ele><time>2022-11-02T16:41:46.0000000+00:00</time></trkpt><trkpt lat="39.47547111" lon="-0.38609158"><ele>18.6</ele><time>2022-11-02T16:41:47.0000000+00:00</time></trkpt><trkpt lat="39.4754706" lon="-0.38609913"><ele>18.6</ele><time>2022-11-02T16:41:48.0000000+00:00</time></trkpt><trkpt lat="39.47547228" lon="-0.38610441"><ele>18.6</ele><time>2022-11-02T16:41:49.0000000+00:00</time></trkpt><trkpt lat="39.47548133" lon="-0.38611036"><ele>18.6</ele><time>2022-11-02T16:41:50.0000000+00:00</time></trkpt><trkpt lat="39.47548812" lon="-0.38611421"><ele>18.8</ele><time>2022-11-02T16:41:51.0000000+00:00</time></trkpt><trkpt lat="39.47549349" lon="-0.38612293"><ele>18.8</ele><time>2022-11-02T16:41:52.0000000+00:00</time></trkpt><trkpt lat="39.47549927" lon="-0.38612922"><ele>18.8</ele><time>2022-11-02T16:41:53.0000000+00:00</time></trkpt><trkpt lat="39.47550648" lon="-0.38613777"><ele>18.8</ele><time>2022-11-02T16:41:54.0000000+00:00</time></trkpt><trkpt lat="39.4755095" lon="-0.3861469"><ele>18.8</ele><time>2022-11-02T16:41:55.0000000+00:00</time></trkpt><trkpt lat="39.47551142" lon="-0.38615093"><ele>18.8</ele><time>2022-11-02T16:41:56.0000000+00:00</time></trkpt><trkpt lat="39.47552031" lon="-0.3861604"><ele>18.8</ele><time>2022-11-02T16:41:57.0000000+00:00</time></trkpt><trkpt lat="39.47552123" lon="-0.38616794"><ele>18.8</ele><time>2022-11-02T16:41:58.0000000+00:00</time></trkpt><trkpt lat="39.47552006" lon="-0.38617632"><ele>18.8</ele><time>2022-11-02T16:41:59.0000000+00:00</time></trkpt><trkpt lat="39.47551629" lon="-0.3861837"><ele>18.8</ele><time>2022-11-02T16:42:00.0000000+00:00</time></trkpt><trkpt lat="39.4755219" lon="-0.38619896"><ele>18.8</ele><time>2022-11-02T16:42:01.0000000+00:00</time></trkpt><trkpt lat="39.47551536" lon="-0.3861666"><ele>18.8</ele><time>2022-11-02T16:42:02.0000000+00:00</time></trkpt><trkpt lat="39.47550749" lon="-0.3861609"><ele>18.8</ele><time>2022-11-02T16:42:03.0000000+00:00</time></trkpt><trkpt lat="39.47551947" lon="-0.38615638"><ele>18.8</ele><time>2022-11-02T16:42:04.0000000+00:00</time></trkpt><trkpt lat="39.4755618" lon="-0.38615562"><ele>18.8</ele><time>2022-11-02T16:42:05.0000000+00:00</time></trkpt><trkpt lat="39.47560011" lon="-0.38615411"><ele>18.8</ele><time>2022-11-02T16:42:06.0000000+00:00</time></trkpt><trkpt lat="39.47556205" lon="-0.38618211"><ele>18.8</ele><time>2022-11-02T16:42:07.0000000+00:00</time></trkpt><trkpt lat="39.47555954" lon="-0.38620189"><ele>18.8</ele><time>2022-11-02T16:42:08.0000000+00:00</time></trkpt><trkpt lat="39.47555224" lon="-0.38623315"><ele>18.8</ele><time>2022-11-02T16:42:09.0000000+00:00</time></trkpt><trkpt lat="39.4755597" lon="-0.38624313"><ele>18.8</ele><time>2022-11-02T16:42:10.0000000+00:00</time></trkpt><trkpt lat="39.47555585" lon="-0.38627867"><ele>18.8</ele><time>2022-11-02T16:42:11.0000000+00:00</time></trkpt><trkpt lat="39.47555023" lon="-0.38632133"><ele>18.8</ele><time>2022-11-02T16:42:12.0000000+00:00</time></trkpt><trkpt lat="39.47553372" lon="-0.38632141"><ele>18.8</ele><time>2022-11-02T16:42:13.0000000+00:00</time></trkpt><trkpt lat="39.47553339" lon="-0.38633281"><ele>18.8</ele><time>2022-11-02T16:42:14.0000000+00:00</time></trkpt><trkpt lat="39.47553271" lon="-0.38632955"><ele>18.8</ele><time>2022-11-02T16:42:15.0000000+00:00</time></trkpt><trkpt lat="39.47551411" lon="-0.38632116"><ele>18.8</ele><time>2022-11-02T16:42:16.0000000+00:00</time></trkpt><trkpt lat="39.47548703" lon="-0.38629292"><ele>18.8</ele><time>2022-11-02T16:42:17.0000000+00:00</time></trkpt><trkpt lat="39.47548226" lon="-0.3862873"><ele>18.8</ele><time>2022-11-02T16:42:18.0000000+00:00</time></trkpt><trkpt lat="39.47547572" lon="-0.38627347"><ele>18.8</ele><time>2022-11-02T16:42:19.0000000+00:00</time></trkpt><trkpt lat="39.47546675" lon="-0.38625754"><ele>18.8</ele><time>2022-11-02T16:42:20.0000000+00:00</time></trkpt><trkpt lat="39.47546155" lon="-0.38623408"><ele>18.8</ele><time>2022-11-02T16:42:21.0000000+00:00</time></trkpt><trkpt lat="39.47544923" lon="-0.38620516"><ele>18.8</ele><time>2022-11-02T16:42:22.0000000+00:00</time></trkpt><trkpt lat="39.47543926" lon="-0.38618412"><ele>18.8</ele><time>2022-11-02T16:42:23.0000000+00:00</time></trkpt><trkpt lat="39.47543423" lon="-0.38616618"><ele>18.6</ele><time>2022-11-02T16:42:24.0000000+00:00</time></trkpt><trkpt lat="39.47542677" lon="-0.38615244"><ele>18.6</ele><time>2022-11-02T16:42:25.0000000+00:00</time></trkpt><trkpt lat="39.47542098" lon="-0.38614221"><ele>18.6</ele><time>2022-11-02T16:42:26.0000000+00:00</time></trkpt><trkpt lat="39.47541721" lon="-0.3861319"><ele>18.6</ele><time>2022-11-02T16:42:27.0000000+00:00</time></trkpt><trkpt lat="39.47540933" lon="-0.38611673"><ele>18.6</ele><time>2022-11-02T16:42:28.0000000+00:00</time></trkpt><trkpt lat="39.47539617" lon="-0.38610759"><ele>18.6</ele><time>2022-11-02T16:42:29.0000000+00:00</time></trkpt><trkpt lat="39.47538905" lon="-0.38610089"><ele>18.6</ele><time>2022-11-02T16:42:30.0000000+00:00</time></trkpt><trkpt lat="39.47538955" lon="-0.3860884"><ele>18.6</ele><time>2022-11-02T16:42:31.0000000+00:00</time></trkpt><trkpt lat="39.47539349" lon="-0.3860827"><ele>18.6</ele><time>2022-11-02T16:42:32.0000000+00:00</time></trkpt><trkpt lat="39.47539802" lon="-0.38606971"><ele>18.6</ele><time>2022-11-02T16:42:33.0000000+00:00</time></trkpt><trkpt lat="39.47539793" lon="-0.38605839"><ele>18.6</ele><time>2022-11-02T16:42:34.0000000+00:00</time></trkpt><trkpt lat="39.47539626" lon="-0.38604934"><ele>18.6</ele><time>2022-11-02T16:42:35.0000000+00:00</time></trkpt><trkpt lat="39.47539559" lon="-0.38603358"><ele>18.6</ele><time>2022-11-02T16:42:36.0000000+00:00</time></trkpt><trkpt lat="39.475395" lon="-0.38601841"><ele>18.6</ele><time>2022-11-02T16:42:37.0000000+00:00</time></trkpt><trkpt lat="39.47539659" lon="-0.38600651"><ele>18.6</ele><time>2022-11-02T16:42:38.0000000+00:00</time></trkpt><trkpt lat="39.4754007" lon="-0.3859962"><ele>18.6</ele><time>2022-11-02T16:42:39.0000000+00:00</time></trkpt><trkpt lat="39.47540179" lon="-0.38597952"><ele>18.6</ele><time>2022-11-02T16:42:40.0000000+00:00</time></trkpt><trkpt lat="39.47540355" lon="-0.38596552"><ele>18.6</ele><time>2022-11-02T16:42:41.0000000+00:00</time></trkpt><trkpt lat="39.47540288" lon="-0.385948"><ele>18.6</ele><time>2022-11-02T16:42:42.0000000+00:00</time></trkpt><trkpt lat="39.47539894" lon="-0.38593224"><ele>18.6</ele><time>2022-11-02T16:42:43.0000000+00:00</time></trkpt><trkpt lat="39.47540933" lon="-0.38591397"><ele>18.6</ele><time>2022-11-02T16:42:44.0000000+00:00</time></trkpt><trkpt lat="39.47542241" lon="-0.3858993"><ele>18.6</ele><time>2022-11-02T16:42:45.0000000+00:00</time></trkpt><trkpt lat="39.47543523" lon="-0.3858848"><ele>18.6</ele><time>2022-11-02T16:42:46.0000000+00:00</time></trkpt><trkpt lat="39.47546491" lon="-0.38587055"><ele>18.6</ele><time>2022-11-02T16:42:47.0000000+00:00</time></trkpt><trkpt lat="39.4754732" lon="-0.38585991"><ele>18.8</ele><time>2022-11-02T16:42:48.0000000+00:00</time></trkpt><trkpt lat="39.47547572" lon="-0.38584834"><ele>18.8</ele><time>2022-11-02T16:42:49.0000000+00:00</time></trkpt><trkpt lat="39.47547941" lon="-0.38583878"><ele>18.8</ele><time>2022-11-02T16:42:50.0000000+00:00</time></trkpt><trkpt lat="39.47548309" lon="-0.3858273"><ele>18.8</ele><time>2022-11-02T16:42:51.0000000+00:00</time></trkpt><trkpt lat="39.47548452" lon="-0.38581674"><ele>18.8</ele><time>2022-11-02T16:42:52.0000000+00:00</time></trkpt><trkpt lat="39.47549139" lon="-0.38580216"><ele>18.6</ele><time>2022-11-02T16:42:53.0000000+00:00</time></trkpt><trkpt lat="39.47549868" lon="-0.38579009"><ele>18.6</ele><time>2022-11-02T16:42:54.0000000+00:00</time></trkpt><trkpt lat="39.47550237" lon="-0.38577944"><ele>18.6</ele><time>2022-11-02T16:42:55.0000000+00:00</time></trkpt><trkpt lat="39.47550673" lon="-0.38576963"><ele>18.6</ele><time>2022-11-02T16:42:56.0000000+00:00</time></trkpt><trkpt lat="39.47551008" lon="-0.38576276"><ele>18.6</ele><time>2022-11-02T16:42:57.0000000+00:00</time></trkpt><trkpt lat="39.47551495" lon="-0.38575815"><ele>18.6</ele><time>2022-11-02T16:42:58.0000000+00:00</time></trkpt><trkpt lat="39.47552291" lon="-0.38574885"><ele>18.6</ele><time>2022-11-02T16:42:59.0000000+00:00</time></trkpt><trkpt lat="39.47552601" lon="-0.38573887"><ele>18.6</ele><time>2022-11-02T16:43:00.0000000+00:00</time></trkpt><trkpt lat="39.47553062" lon="-0.38572747"><ele>18.6</ele><time>2022-11-02T16:43:01.0000000+00:00</time></trkpt><trkpt lat="39.47553397" lon="-0.38571431"><ele>18.6</ele><time>2022-11-02T16:43:02.0000000+00:00</time></trkpt><trkpt lat="39.47553707" lon="-0.3857035"><ele>18.6</ele><time>2022-11-02T16:43:03.0000000+00:00</time></trkpt><trkpt lat="39.47553632" lon="-0.38569177"><ele>18.6</ele><time>2022-11-02T16:43:04.0000000+00:00</time></trkpt><trkpt lat="39.47553255" lon="-0.38568255"><ele>18.6</ele><time>2022-11-02T16:43:05.0000000+00:00</time></trkpt><trkpt lat="39.47552668" lon="-0.38567584"><ele>18.8</ele><time>2022-11-02T16:43:06.0000000+00:00</time></trkpt><trkpt lat="39.47552484" lon="-0.3856657"><ele>18.8</ele><time>2022-11-02T16:43:07.0000000+00:00</time></trkpt><trkpt lat="39.47551779" lon="-0.38565095"><ele>18.8</ele><time>2022-11-02T16:43:08.0000000+00:00</time></trkpt><trkpt lat="39.47551645" lon="-0.38564147"><ele>18.8</ele><time>2022-11-02T16:43:09.0000000+00:00</time></trkpt><trkpt lat="39.47551855" lon="-0.38562781"><ele>18.8</ele><time>2022-11-02T16:43:10.0000000+00:00</time></trkpt><trkpt lat="39.4755157" lon="-0.38561482"><ele>18.8</ele><time>2022-11-02T16:43:11.0000000+00:00</time></trkpt><trkpt lat="39.47550497" lon="-0.38560024"><ele>18.6</ele><time>2022-11-02T16:43:12.0000000+00:00</time></trkpt><trkpt lat="39.47549625" lon="-0.38558934"><ele>18.6</ele><time>2022-11-02T16:43:13.0000000+00:00</time></trkpt><trkpt lat="39.47548728" lon="-0.38558255"><ele>18.6</ele><time>2022-11-02T16:43:14.0000000+00:00</time></trkpt><trkpt lat="39.47548444" lon="-0.38556654"><ele>18.6</ele><time>2022-11-02T16:43:15.0000000+00:00</time></trkpt><trkpt lat="39.47548267" lon="-0.38555363"><ele>18.6</ele><time>2022-11-02T16:43:16.0000000+00:00</time></trkpt><trkpt lat="39.47548519" lon="-0.38553972"><ele>18.6</ele><time>2022-11-02T16:43:17.0000000+00:00</time></trkpt><trkpt lat="39.47548117" lon="-0.38552824"><ele>18.6</ele><time>2022-11-02T16:43:18.0000000+00:00</time></trkpt><trkpt lat="39.47547857" lon="-0.38551583"><ele>18.6</ele><time>2022-11-02T16:43:19.0000000+00:00</time></trkpt><trkpt lat="39.47547362" lon="-0.38550485"><ele>18.6</ele><time>2022-11-02T16:43:20.0000000+00:00</time></trkpt><trkpt lat="39.47547404" lon="-0.38549747"><ele>18.6</ele><time>2022-11-02T16:43:21.0000000+00:00</time></trkpt><trkpt lat="39.47547924" lon="-0.38549471"><ele>18.6</ele><time>2022-11-02T16:43:22.0000000+00:00</time></trkpt><trkpt lat="39.47548184" lon="-0.38549127"><ele>18.4</ele><time>2022-11-02T16:43:23.0000000+00:00</time></trkpt><trkpt lat="39.47548527" lon="-0.38548918"><ele>18.4</ele><time>2022-11-02T16:43:24.0000000+00:00</time></trkpt><trkpt lat="39.47548661" lon="-0.38549001"><ele>18.4</ele><time>2022-11-02T16:43:25.0000000+00:00</time></trkpt><trkpt lat="39.47548745" lon="-0.38549068"><ele>18.4</ele><time>2022-11-02T16:43:26.0000000+00:00</time></trkpt><trkpt lat="39.47548351" lon="-0.38547576"><ele>18.4</ele><time>2022-11-02T16:43:27.0000000+00:00</time></trkpt><trkpt lat="39.4754841" lon="-0.38546378"><ele>18.4</ele><time>2022-11-02T16:43:28.0000000+00:00</time></trkpt><trkpt lat="39.4754872" lon="-0.38545506"><ele>18.4</ele><time>2022-11-02T16:43:29.0000000+00:00</time></trkpt><trkpt lat="39.47547429" lon="-0.38544349"><ele>18.4</ele><time>2022-11-02T16:43:30.0000000+00:00</time></trkpt><trkpt lat="39.47547589" lon="-0.38543905"><ele>18.4</ele><time>2022-11-02T16:43:31.0000000+00:00</time></trkpt><trkpt lat="39.47547706" lon="-0.38543796"><ele>18.4</ele><time>2022-11-02T16:43:32.0000000+00:00</time></trkpt><trkpt lat="39.47547547" lon="-0.38543629"><ele>18.4</ele><time>2022-11-02T16:43:33.0000000+00:00</time></trkpt><trkpt lat="39.47546918" lon="-0.38542355"><ele>18.4</ele><time>2022-11-02T16:43:34.0000000+00:00</time></trkpt><trkpt lat="39.47546465" lon="-0.38541357"><ele>18.4</ele><time>2022-11-02T16:43:35.0000000+00:00</time></trkpt><trkpt lat="39.47545921" lon="-0.38540519"><ele>18.4</ele><time>2022-11-02T16:43:36.0000000+00:00</time></trkpt><trkpt lat="39.47546331" lon="-0.38540393"><ele>18.4</ele><time>2022-11-02T16:43:37.0000000+00:00</time></trkpt><trkpt lat="39.47546943" lon="-0.38539798"><ele>18.4</ele><time>2022-11-02T16:43:38.0000000+00:00</time></trkpt><trkpt lat="39.47547027" lon="-0.38538792"><ele>18.4</ele><time>2022-11-02T16:43:39.0000000+00:00</time></trkpt><trkpt lat="39.47547664" lon="-0.38537971"><ele>18.4</ele><time>2022-11-02T16:43:40.0000000+00:00</time></trkpt><trkpt lat="39.47548477" lon="-0.38537359"><ele>18.6</ele><time>2022-11-02T16:43:41.0000000+00:00</time></trkpt><trkpt lat="39.47549089" lon="-0.38536781"><ele>18.6</ele><time>2022-11-02T16:43:42.0000000+00:00</time></trkpt><trkpt lat="39.47549525" lon="-0.38536152"><ele>18.6</ele><time>2022-11-02T16:43:43.0000000+00:00</time></trkpt><trkpt lat="39.47549801" lon="-0.38535289"><ele>18.6</ele><time>2022-11-02T16:43:44.0000000+00:00</time></trkpt><trkpt lat="39.4755022" lon="-0.38534937"><ele>18.6</ele><time>2022-11-02T16:43:45.0000000+00:00</time></trkpt><trkpt lat="39.47550623" lon="-0.38534534"><ele>18.6</ele><time>2022-11-02T16:43:46.0000000+00:00</time></trkpt><trkpt lat="39.47551495" lon="-0.38534526"><ele>18.6</ele><time>2022-11-02T16:43:47.0000000+00:00</time></trkpt><trkpt lat="39.47551771" lon="-0.38534249"><ele>18.6</ele><time>2022-11-02T16:43:48.0000000+00:00</time></trkpt><trkpt lat="39.4755219" lon="-0.3853357"><ele>18.6</ele><time>2022-11-02T16:43:49.0000000+00:00</time></trkpt><trkpt lat="39.47552341" lon="-0.38532975"><ele>18.6</ele><time>2022-11-02T16:43:50.0000000+00:00</time></trkpt><trkpt lat="39.47552534" lon="-0.38532623"><ele>18.8</ele><time>2022-11-02T16:43:51.0000000+00:00</time></trkpt><trkpt lat="39.4755245" lon="-0.38532271"><ele>18.8</ele><time>2022-11-02T16:43:52.0000000+00:00</time></trkpt><trkpt lat="39.47552282" lon="-0.38532171"><ele>18.8</ele><time>2022-11-02T16:43:53.0000000+00:00</time></trkpt><trkpt lat="39.47553079" lon="-0.38531215"><ele>18.8</ele><time>2022-11-02T16:43:54.0000000+00:00</time></trkpt><trkpt lat="39.47554101" lon="-0.38530301"><ele>18.8</ele><time>2022-11-02T16:43:55.0000000+00:00</time></trkpt><trkpt lat="39.47553691" lon="-0.38530251"><ele>18.6</ele><time>2022-11-02T16:43:56.0000000+00:00</time></trkpt><trkpt lat="39.47553791" lon="-0.38530016"><ele>18.4</ele><time>2022-11-02T16:43:57.0000000+00:00</time></trkpt><trkpt lat="39.47554126" lon="-0.38529882"><ele>18.4</ele><time>2022-11-02T16:43:58.0000000+00:00</time></trkpt><trkpt lat="39.47554328" lon="-0.38529689"><ele>18.4</ele><time>2022-11-02T16:43:59.0000000+00:00</time></trkpt><trkpt lat="39.47556046" lon="-0.38528876"><ele>18.4</ele><time>2022-11-02T16:44:00.0000000+00:00</time></trkpt><trkpt lat="39.4755825" lon="-0.38528021"><ele>18.4</ele><time>2022-11-02T16:44:01.0000000+00:00</time></trkpt><trkpt lat="39.47558586" lon="-0.38527133"><ele>18.4</ele><time>2022-11-02T16:44:02.0000000+00:00</time></trkpt><trkpt lat="39.47559089" lon="-0.38526312"><ele>18.4</ele><time>2022-11-02T16:44:03.0000000+00:00</time></trkpt><trkpt lat="39.47558804" lon="-0.38526672"><ele>18.4</ele><time>2022-11-02T16:44:04.0000000+00:00</time></trkpt><trkpt lat="39.47558443" lon="-0.38527032"><ele>18.4</ele><time>2022-11-02T16:44:05.0000000+00:00</time></trkpt><trkpt lat="39.47557714" lon="-0.38528223"><ele>18.4</ele><time>2022-11-02T16:44:06.0000000+00:00</time></trkpt><trkpt lat="39.47557052" lon="-0.38529522"><ele>18.4</ele><time>2022-11-02T16:44:07.0000000+00:00</time></trkpt><trkpt lat="39.47557228" lon="-0.38529916"><ele>18.4</ele><time>2022-11-02T16:44:08.0000000+00:00</time></trkpt><trkpt lat="39.47557521" lon="-0.38530033"><ele>18.4</ele><time>2022-11-02T16:44:09.0000000+00:00</time></trkpt><trkpt lat="39.47558183" lon="-0.38529773"><ele>18.4</ele><time>2022-11-02T16:44:10.0000000+00:00</time></trkpt><trkpt lat="39.47558049" lon="-0.38529715"><ele>18.4</ele><time>2022-11-02T16:44:11.0000000+00:00</time></trkpt><trkpt lat="39.47557898" lon="-0.38529807"><ele>18.4</ele><time>2022-11-02T16:44:12.0000000+00:00</time></trkpt><trkpt lat="39.47557739" lon="-0.38530008"><ele>18.4</ele><time>2022-11-02T16:44:13.0000000+00:00</time></trkpt><trkpt lat="39.47557722" lon="-0.38530167"><ele>18.4</ele><time>2022-11-02T16:44:14.0000000+00:00</time></trkpt><trkpt lat="39.47557747" lon="-0.38530494"><ele>18.4</ele><time>2022-11-02T16:44:15.0000000+00:00</time></trkpt><trkpt lat="39.47558426" lon="-0.38530419"><ele>18.4</ele><time>2022-11-02T16:44:16.0000000+00:00</time></trkpt><trkpt lat="39.47558854" lon="-0.38530293"><ele>18.4</ele><time>2022-11-02T16:44:17.0000000+00:00</time></trkpt><trkpt lat="39.47559097" lon="-0.38530352"><ele>18.4</ele><time>2022-11-02T16:44:18.0000000+00:00</time></trkpt><trkpt lat="39.47558334" lon="-0.38530419"><ele>18.4</ele><time>2022-11-02T16:44:19.0000000+00:00</time></trkpt><trkpt lat="39.47556976" lon="-0.38531022"><ele>18.4</ele><time>2022-11-02T16:44:20.0000000+00:00</time></trkpt><trkpt lat="39.4755706" lon="-0.38531332"><ele>18.4</ele><time>2022-11-02T16:44:21.0000000+00:00</time></trkpt><trkpt lat="39.475567" lon="-0.38531031"><ele>18.4</ele><time>2022-11-02T16:44:22.0000000+00:00</time></trkpt><trkpt lat="39.47556457" lon="-0.38530972"><ele>18.4</ele><time>2022-11-02T16:44:23.0000000+00:00</time></trkpt><trkpt lat="39.47556406" lon="-0.38530737"><ele>18.4</ele><time>2022-11-02T16:44:24.0000000+00:00</time></trkpt><trkpt lat="39.47556306" lon="-0.38530888"><ele>18.4</ele><time>2022-11-02T16:44:25.0000000+00:00</time></trkpt><trkpt lat="39.47556239" lon="-0.38530679"><ele>18.4</ele><time>2022-11-02T16:44:26.0000000+00:00</time></trkpt><trkpt lat="39.47556088" lon="-0.38530477"><ele>18.6</ele><time>2022-11-02T16:44:27.0000000+00:00</time></trkpt><trkpt lat="39.47555518" lon="-0.38529958"><ele>18.6</ele><time>2022-11-02T16:44:28.0000000+00:00</time></trkpt><trkpt lat="39.475553" lon="-0.38529438"><ele>18.6</ele><time>2022-11-02T16:44:29.0000000+00:00</time></trkpt><trkpt lat="39.47555157" lon="-0.38529463"><ele>18.6</ele><time>2022-11-02T16:44:30.0000000+00:00</time></trkpt><trkpt lat="39.47554872" lon="-0.38529731"><ele>18.6</ele><time>2022-11-02T16:44:31.0000000+00:00</time></trkpt><trkpt lat="39.47554587" lon="-0.38529689"><ele>18.6</ele><time>2022-11-02T16:44:32.0000000+00:00</time></trkpt><trkpt lat="39.47554688" lon="-0.38528726"><ele>18.6</ele><time>2022-11-02T16:44:33.0000000+00:00</time></trkpt><trkpt lat="39.47554805" lon="-0.38528172"><ele>18.6</ele><time>2022-11-02T16:44:34.0000000+00:00</time></trkpt><trkpt lat="39.47554453" lon="-0.38528449"><ele>18.6</ele><time>2022-11-02T16:44:35.0000000+00:00</time></trkpt><trkpt lat="39.47552836" lon="-0.38530016"><ele>18.6</ele><time>2022-11-02T16:44:36.0000000+00:00</time></trkpt><trkpt lat="39.47551981" lon="-0.38530712"><ele>18.6</ele><time>2022-11-02T16:44:37.0000000+00:00</time></trkpt><trkpt lat="39.4755209" lon="-0.38530896"><ele>18.6</ele><time>2022-11-02T16:44:38.0000000+00:00</time></trkpt><trkpt lat="39.47552115" lon="-0.38531047"><ele>18.6</ele><time>2022-11-02T16:44:39.0000000+00:00</time></trkpt><trkpt lat="39.47552048" lon="-0.38531056"><ele>18.6</ele><time>2022-11-02T16:44:40.0000000+00:00</time></trkpt><trkpt lat="39.4755209" lon="-0.38530813"><ele>18.6</ele><time>2022-11-02T16:44:41.0000000+00:00</time></trkpt><trkpt lat="39.4755245" lon="-0.38530461"><ele>18.6</ele><time>2022-11-02T16:44:42.0000000+00:00</time></trkpt><trkpt lat="39.475524" lon="-0.38530184"><ele>18.4</ele><time>2022-11-02T16:44:43.0000000+00:00</time></trkpt><trkpt lat="39.475525" lon="-0.38530067"><ele>18.4</ele><time>2022-11-02T16:44:44.0000000+00:00</time></trkpt><trkpt lat="39.47552911" lon="-0.38529656"><ele>18.4</ele><time>2022-11-02T16:44:45.0000000+00:00</time></trkpt><trkpt lat="39.4755281" lon="-0.3852917"><ele>18.4</ele><time>2022-11-02T16:44:46.0000000+00:00</time></trkpt><trkpt lat="39.47552819" lon="-0.38529254"><ele>18.4</ele><time>2022-11-02T16:44:47.0000000+00:00</time></trkpt><trkpt lat="39.47552718" lon="-0.38529254"><ele>18.4</ele><time>2022-11-02T16:44:48.0000000+00:00</time></trkpt><trkpt lat="39.47552634" lon="-0.38529153"><ele>18.4</ele><time>2022-11-02T16:44:49.0000000+00:00</time></trkpt><trkpt lat="39.4755281" lon="-0.38527485"><ele>18.4</ele><time>2022-11-02T16:44:50.0000000+00:00</time></trkpt><trkpt lat="39.47553213" lon="-0.38526488"><ele>18.4</ele><time>2022-11-02T16:44:51.0000000+00:00</time></trkpt><trkpt lat="39.47553188" lon="-0.38526571"><ele>18.4</ele><time>2022-11-02T16:44:52.0000000+00:00</time></trkpt><trkpt lat="39.47553188" lon="-0.38526672"><ele>18.4</ele><time>2022-11-02T16:44:53.0000000+00:00</time></trkpt><trkpt lat="39.47552576" lon="-0.38526613"><ele>18.4</ele><time>2022-11-02T16:44:54.0000000+00:00</time></trkpt><trkpt lat="39.47551528" lon="-0.38527125"><ele>18.4</ele><time>2022-11-02T16:44:55.0000000+00:00</time></trkpt><trkpt lat="39.4755126" lon="-0.38527368"><ele>18.4</ele><time>2022-11-02T16:44:56.0000000+00:00</time></trkpt><trkpt lat="39.47550153" lon="-0.38528231"><ele>18.6</ele><time>2022-11-02T16:44:57.0000000+00:00</time></trkpt><trkpt lat="39.47549198" lon="-0.38528969"><ele>18.6</ele><time>2022-11-02T16:44:58.0000000+00:00</time></trkpt><trkpt lat="39.47548041" lon="-0.38529857"><ele>18.6</ele><time>2022-11-02T16:44:59.0000000+00:00</time></trkpt><trkpt lat="39.47546633" lon="-0.38530972"><ele>18.6</ele><time>2022-11-02T16:45:00.0000000+00:00</time></trkpt><trkpt lat="39.47545577" lon="-0.38531014"><ele>18.6</ele><time>2022-11-02T16:45:01.0000000+00:00</time></trkpt><trkpt lat="39.47545284" lon="-0.3853088"><ele>18.6</ele><time>2022-11-02T16:45:02.0000000+00:00</time></trkpt><trkpt lat="39.47545108" lon="-0.38530863"><ele>18.6</ele><time>2022-11-02T16:45:03.0000000+00:00</time></trkpt><trkpt lat="39.47544973" lon="-0.38531332"><ele>18.4</ele><time>2022-11-02T16:45:04.0000000+00:00</time></trkpt><trkpt lat="39.47544814" lon="-0.3853186"><ele>18.4</ele><time>2022-11-02T16:45:05.0000000+00:00</time></trkpt><trkpt lat="39.47544579" lon="-0.38532263"><ele>18.4</ele><time>2022-11-02T16:45:06.0000000+00:00</time></trkpt><trkpt lat="39.4754432" lon="-0.38533227"><ele>18.4</ele><time>2022-11-02T16:45:07.0000000+00:00</time></trkpt><trkpt lat="39.47543984" lon="-0.3853492"><ele>18.4</ele><time>2022-11-02T16:45:08.0000000+00:00</time></trkpt><trkpt lat="39.4754359" lon="-0.38536102"><ele>18.4</ele><time>2022-11-02T16:45:09.0000000+00:00</time></trkpt><trkpt lat="39.47543741" lon="-0.38537233"><ele>18.4</ele><time>2022-11-02T16:45:10.0000000+00:00</time></trkpt><trkpt lat="39.47543917" lon="-0.38539186"><ele>18.4</ele><time>2022-11-02T16:45:11.0000000+00:00</time></trkpt><trkpt lat="39.4754349" lon="-0.38540636"><ele>18.4</ele><time>2022-11-02T16:45:12.0000000+00:00</time></trkpt><trkpt lat="39.47543163" lon="-0.3854238"><ele>18.4</ele><time>2022-11-02T16:45:13.0000000+00:00</time></trkpt><trkpt lat="39.4754266" lon="-0.38544391"><ele>18.4</ele><time>2022-11-02T16:45:14.0000000+00:00</time></trkpt><trkpt lat="39.47542341" lon="-0.38546068"><ele>18.4</ele><time>2022-11-02T16:45:15.0000000+00:00</time></trkpt><trkpt lat="39.47542015" lon="-0.38548247"><ele>18.4</ele><time>2022-11-02T16:45:16.0000000+00:00</time></trkpt><trkpt lat="39.47542157" lon="-0.38549915"><ele>18.4</ele><time>2022-11-02T16:45:17.0000000+00:00</time></trkpt><trkpt lat="39.47542576" lon="-0.38551566"><ele>18.4</ele><time>2022-11-02T16:45:18.0000000+00:00</time></trkpt><trkpt lat="39.47542501" lon="-0.38552874"><ele>18.4</ele><time>2022-11-02T16:45:19.0000000+00:00</time></trkpt><trkpt lat="39.47542241" lon="-0.38555849"><ele>18.4</ele><time>2022-11-02T16:45:20.0000000+00:00</time></trkpt><trkpt lat="39.47542459" lon="-0.38558389"><ele>18.6</ele><time>2022-11-02T16:45:21.0000000+00:00</time></trkpt><trkpt lat="39.47542576" lon="-0.38560677"><ele>18.6</ele><time>2022-11-02T16:45:22.0000000+00:00</time></trkpt><trkpt lat="39.47542434" lon="-0.38562622"><ele>18.6</ele><time>2022-11-02T16:45:23.0000000+00:00</time></trkpt><trkpt lat="39.47542585" lon="-0.38565103"><ele>18.6</ele><time>2022-11-02T16:45:24.0000000+00:00</time></trkpt><trkpt lat="39.47543674" lon="-0.38567358"><ele>18.6</ele><time>2022-11-02T16:45:25.0000000+00:00</time></trkpt><trkpt lat="39.47544973" lon="-0.38569797"><ele>18.6</ele><time>2022-11-02T16:45:26.0000000+00:00</time></trkpt><trkpt lat="39.47545284" lon="-0.38571423"><ele>18.6</ele><time>2022-11-02T16:45:27.0000000+00:00</time></trkpt><trkpt lat="39.47546482" lon="-0.38573636"><ele>18.6</ele><time>2022-11-02T16:45:28.0000000+00:00</time></trkpt><trkpt lat="39.4754732" lon="-0.38575538"><ele>18.4</ele><time>2022-11-02T16:45:29.0000000+00:00</time></trkpt><trkpt lat="39.47547664" lon="-0.38577383"><ele>18.4</ele><time>2022-11-02T16:45:30.0000000+00:00</time></trkpt><trkpt lat="39.4754779" lon="-0.38578849"><ele>18.4</ele><time>2022-11-02T16:45:31.0000000+00:00</time></trkpt><trkpt lat="39.4754758" lon="-0.38580073"><ele>18.4</ele><time>2022-11-02T16:45:32.0000000+00:00</time></trkpt><trkpt lat="39.47547488" lon="-0.38581381"><ele>18.4</ele><time>2022-11-02T16:45:33.0000000+00:00</time></trkpt><trkpt lat="39.47546792" lon="-0.38583141"><ele>18.4</ele><time>2022-11-02T16:45:34.0000000+00:00</time></trkpt><trkpt lat="39.47546708" lon="-0.38584323"><ele>18.4</ele><time>2022-11-02T16:45:35.0000000+00:00</time></trkpt><trkpt lat="39.47546474" lon="-0.3858522"><ele>18.4</ele><time>2022-11-02T16:45:36.0000000+00:00</time></trkpt><trkpt lat="39.47547941" lon="-0.38587139"><ele>18.4</ele><time>2022-11-02T16:45:37.0000000+00:00</time></trkpt><trkpt lat="39.47547941" lon="-0.38588363"><ele>18.4</ele><time>2022-11-02T16:45:38.0000000+00:00</time></trkpt><trkpt lat="39.47547387" lon="-0.38589804"><ele>18.4</ele><time>2022-11-02T16:45:39.0000000+00:00</time></trkpt><trkpt lat="39.47546591" lon="-0.38591179"><ele>18.4</ele><time>2022-11-02T16:45:40.0000000+00:00</time></trkpt><trkpt lat="39.4754618" lon="-0.3859242"><ele>18.4</ele><time>2022-11-02T16:45:41.0000000+00:00</time></trkpt><trkpt lat="39.47545786" lon="-0.38593778"><ele>18.4</ele><time>2022-11-02T16:45:42.0000000+00:00</time></trkpt><trkpt lat="39.47545501" lon="-0.38595395"><ele>18.4</ele><time>2022-11-02T16:45:43.0000000+00:00</time></trkpt><trkpt lat="39.47544948" lon="-0.38596996"><ele>18.4</ele><time>2022-11-02T16:45:44.0000000+00:00</time></trkpt><trkpt lat="39.47544085" lon="-0.38598647"><ele>18.4</ele><time>2022-11-02T16:45:45.0000000+00:00</time></trkpt><trkpt lat="39.47543314" lon="-0.3860019"><ele>18.4</ele><time>2022-11-02T16:45:46.0000000+00:00</time></trkpt><trkpt lat="39.47540757" lon="-0.38600734"><ele>18.4</ele><time>2022-11-02T16:45:47.0000000+00:00</time></trkpt><trkpt lat="39.47538829" lon="-0.38601405"><ele>18.4</ele><time>2022-11-02T16:45:48.0000000+00:00</time></trkpt><trkpt lat="39.47537346" lon="-0.38602478"><ele>18.6</ele><time>2022-11-02T16:45:49.0000000+00:00</time></trkpt><trkpt lat="39.47536734" lon="-0.38603609"><ele>18.4</ele><time>2022-11-02T16:45:50.0000000+00:00</time></trkpt><trkpt lat="39.47535653" lon="-0.38605428"><ele>18.4</ele><time>2022-11-02T16:45:51.0000000+00:00</time></trkpt><trkpt lat="39.47534982" lon="-0.3860713"><ele>18.4</ele><time>2022-11-02T16:45:52.0000000+00:00</time></trkpt><trkpt lat="39.47534773" lon="-0.38608731"><ele>18.4</ele><time>2022-11-02T16:45:53.0000000+00:00</time></trkpt><trkpt lat="39.47534027" lon="-0.38610483"><ele>18.4</ele><time>2022-11-02T16:45:54.0000000+00:00</time></trkpt><trkpt lat="39.47532937" lon="-0.38611715"><ele>18.6</ele><time>2022-11-02T16:45:55.0000000+00:00</time></trkpt><trkpt lat="39.47532283" lon="-0.38613307"><ele>18.6</ele><time>2022-11-02T16:45:56.0000000+00:00</time></trkpt><trkpt lat="39.47532241" lon="-0.38614674"><ele>18.6</ele><time>2022-11-02T16:45:57.0000000+00:00</time></trkpt><trkpt lat="39.47532149" lon="-0.38616241"><ele>18.6</ele><time>2022-11-02T16:45:58.0000000+00:00</time></trkpt><trkpt lat="39.47532434" lon="-0.38618152"><ele>18.6</ele><time>2022-11-02T16:45:59.0000000+00:00</time></trkpt><trkpt lat="39.47532417" lon="-0.38620055"><ele>18.6</ele><time>2022-11-02T16:46:00.0000000+00:00</time></trkpt><trkpt lat="39.47532409" lon="-0.3862189"><ele>18.6</ele><time>2022-11-02T16:46:01.0000000+00:00</time></trkpt><trkpt lat="39.47532141" lon="-0.38623324"><ele>18.6</ele><time>2022-11-02T16:46:02.0000000+00:00</time></trkpt><trkpt lat="39.47532585" lon="-0.38625159"><ele>18.6</ele><time>2022-11-02T16:46:03.0000000+00:00</time></trkpt><trkpt lat="39.47532258" lon="-0.38626249"><ele>18.6</ele><time>2022-11-02T16:46:04.0000000+00:00</time></trkpt><trkpt lat="39.47531965" lon="-0.38627154"><ele>18.6</ele><time>2022-11-02T16:46:05.0000000+00:00</time></trkpt><trkpt lat="39.47531789" lon="-0.38628059"><ele>18.6</ele><time>2022-11-02T16:46:06.0000000+00:00</time></trkpt><trkpt lat="39.4753147" lon="-0.38629082"><ele>18.6</ele><time>2022-11-02T16:46:07.0000000+00:00</time></trkpt><trkpt lat="39.47531303" lon="-0.38630691"><ele>18.8</ele><time>2022-11-02T16:46:08.0000000+00:00</time></trkpt><trkpt lat="39.47531118" lon="-0.38631362"><ele>18.8</ele><time>2022-11-02T16:46:09.0000000+00:00</time></trkpt><trkpt lat="39.47530783" lon="-0.38631731"><ele>18.8</ele><time>2022-11-02T16:46:10.0000000+00:00</time></trkpt><trkpt lat="39.47530297" lon="-0.38632485"><ele>18.8</ele><time>2022-11-02T16:46:11.0000000+00:00</time></trkpt><trkpt lat="39.47529559" lon="-0.38633047"><ele>18.8</ele><time>2022-11-02T16:46:12.0000000+00:00</time></trkpt><trkpt lat="39.47529249" lon="-0.38633608"><ele>18.8</ele><time>2022-11-02T16:46:13.0000000+00:00</time></trkpt><trkpt lat="39.47528947" lon="-0.38634187"><ele>18.8</ele><time>2022-11-02T16:46:14.0000000+00:00</time></trkpt><trkpt lat="39.4752831" lon="-0.38635436"><ele>18.8</ele><time>2022-11-02T16:46:15.0000000+00:00</time></trkpt><trkpt lat="39.47527774" lon="-0.38636299"><ele>18.6</ele><time>2022-11-02T16:46:16.0000000+00:00</time></trkpt><trkpt lat="39.47527522" lon="-0.38636366"><ele>18.6</ele><time>2022-11-02T16:46:17.0000000+00:00</time></trkpt><trkpt lat="39.47527304" lon="-0.38636299"><ele>18.6</ele><time>2022-11-02T16:46:18.0000000+00:00</time></trkpt><trkpt lat="39.4752805" lon="-0.38636492"><ele>18.6</ele><time>2022-11-02T16:46:19.0000000+00:00</time></trkpt><trkpt lat="39.4752769" lon="-0.38636215"><ele>18.6</ele><time>2022-11-02T16:46:20.0000000+00:00</time></trkpt><trkpt lat="39.4752738" lon="-0.38636198"><ele>18.8</ele><time>2022-11-02T16:46:21.0000000+00:00</time></trkpt><trkpt lat="39.4752738" lon="-0.38636039"><ele>18.8</ele><time>2022-11-02T16:46:22.0000000+00:00</time></trkpt><trkpt lat="39.4752748" lon="-0.38635947"><ele>18.8</ele><time>2022-11-02T16:46:23.0000000+00:00</time></trkpt><trkpt lat="39.4752748" lon="-0.38635897"><ele>18.8</ele><time>2022-11-02T16:46:24.0000000+00:00</time></trkpt><trkpt lat="39.47527397" lon="-0.38635796"><ele>19.0</ele><time>2022-11-02T16:46:25.0000000+00:00</time></trkpt><trkpt lat="39.47529081" lon="-0.38637397"><ele>19.0</ele><time>2022-11-02T16:46:26.0000000+00:00</time></trkpt><trkpt lat="39.47530112" lon="-0.38639895"><ele>19.0</ele><time>2022-11-02T16:46:27.0000000+00:00</time></trkpt><trkpt lat="39.47530079" lon="-0.38640465"><ele>19.0</ele><time>2022-11-02T16:46:28.0000000+00:00</time></trkpt><trkpt lat="39.47531831" lon="-0.38642862"><ele>19.0</ele><time>2022-11-02T16:46:29.0000000+00:00</time></trkpt><trkpt lat="39.47532241" lon="-0.38644991"><ele>19.0</ele><time>2022-11-02T16:46:30.0000000+00:00</time></trkpt><trkpt lat="39.47532157" lon="-0.38646483"><ele>19.0</ele><time>2022-11-02T16:46:31.0000000+00:00</time></trkpt><trkpt lat="39.47532107" lon="-0.38647732"><ele>18.8</ele><time>2022-11-02T16:46:32.0000000+00:00</time></trkpt><trkpt lat="39.47531579" lon="-0.38648176"><ele>18.8</ele><time>2022-11-02T16:46:33.0000000+00:00</time></trkpt><trkpt lat="39.47531059" lon="-0.38648721"><ele>18.8</ele><time>2022-11-02T16:46:34.0000000+00:00</time></trkpt><trkpt lat="39.47530791" lon="-0.38649039"><ele>18.8</ele><time>2022-11-02T16:46:35.0000000+00:00</time></trkpt><trkpt lat="39.47530506" lon="-0.38649157"><ele>18.8</ele><time>2022-11-02T16:46:36.0000000+00:00</time></trkpt><trkpt lat="39.47530096" lon="-0.38649316"><ele>18.8</ele><time>2022-11-02T16:46:37.0000000+00:00</time></trkpt><trkpt lat="39.4753002" lon="-0.38649542"><ele>18.8</ele><time>2022-11-02T16:46:38.0000000+00:00</time></trkpt><trkpt lat="39.47529861" lon="-0.38649819"><ele>18.8</ele><time>2022-11-02T16:46:39.0000000+00:00</time></trkpt><trkpt lat="39.47529727" lon="-0.38650096"><ele>18.8</ele><time>2022-11-02T16:46:40.0000000+00:00</time></trkpt><trkpt lat="39.4752971" lon="-0.38650313"><ele>18.8</ele><time>2022-11-02T16:46:41.0000000+00:00</time></trkpt><trkpt lat="39.47529735" lon="-0.3865038"><ele>18.8</ele><time>2022-11-02T16:46:42.0000000+00:00</time></trkpt><trkpt lat="39.47529743" lon="-0.38650305"><ele>18.8</ele><time>2022-11-02T16:46:43.0000000+00:00</time></trkpt><trkpt lat="39.47529777" lon="-0.38650213"><ele>18.8</ele><time>2022-11-02T16:46:44.0000000+00:00</time></trkpt><trkpt lat="39.47529869" lon="-0.3865023"><ele>18.8</ele><time>2022-11-02T16:46:45.0000000+00:00</time></trkpt><trkpt lat="39.47530028" lon="-0.38650121"><ele>18.8</ele><time>2022-11-02T16:46:46.0000000+00:00</time></trkpt><trkpt lat="39.4753028" lon="-0.38649827"><ele>18.8</ele><time>2022-11-02T16:46:47.0000000+00:00</time></trkpt><trkpt lat="39.47530381" lon="-0.3864976"><ele>18.8</ele><time>2022-11-02T16:46:48.0000000+00:00</time></trkpt><trkpt lat="39.47530506" lon="-0.3864976"><ele>18.8</ele><time>2022-11-02T16:46:49.0000000+00:00</time></trkpt><trkpt lat="39.47530464" lon="-0.38649559"><ele>18.8</ele><time>2022-11-02T16:46:50.0000000+00:00</time></trkpt><trkpt lat="39.47530422" lon="-0.38649433"><ele>18.8</ele><time>2022-11-02T16:46:51.0000000+00:00</time></trkpt><trkpt lat="39.47530674" lon="-0.3864909"><ele>18.8</ele><time>2022-11-02T16:46:52.0000000+00:00</time></trkpt><trkpt lat="39.47530682" lon="-0.38648511"><ele>18.8</ele><time>2022-11-02T16:46:53.0000000+00:00</time></trkpt><trkpt lat="39.47530716" lon="-0.38647665"><ele>18.8</ele><time>2022-11-02T16:46:54.0000000+00:00</time></trkpt><trkpt lat="39.47530724" lon="-0.38647137"><ele>18.8</ele><time>2022-11-02T16:46:55.0000000+00:00</time></trkpt><trkpt lat="39.47531227" lon="-0.38646651"><ele>18.8</ele><time>2022-11-02T16:46:56.0000000+00:00</time></trkpt><trkpt lat="39.47531328" lon="-0.38646533"><ele>18.8</ele><time>2022-11-02T16:46:57.0000000+00:00</time></trkpt><trkpt lat="39.47531202" lon="-0.38646491"><ele>18.8</ele><time>2022-11-02T16:46:58.0000000+00:00</time></trkpt><trkpt lat="39.47531194" lon="-0.38646257"><ele>18.8</ele><time>2022-11-02T16:46:59.0000000+00:00</time></trkpt><trkpt lat="39.47531261" lon="-0.38645896"><ele>18.8</ele><time>2022-11-02T16:47:00.0000000+00:00</time></trkpt><trkpt lat="39.47531789" lon="-0.3864541"><ele>18.8</ele><time>2022-11-02T16:47:01.0000000+00:00</time></trkpt><trkpt lat="39.47532543" lon="-0.38644823"><ele>18.8</ele><time>2022-11-02T16:47:02.0000000+00:00</time></trkpt><trkpt lat="39.47532493" lon="-0.38644429"><ele>18.8</ele><time>2022-11-02T16:47:03.0000000+00:00</time></trkpt><trkpt lat="39.47532501" lon="-0.38644203"><ele>18.8</ele><time>2022-11-02T16:47:04.0000000+00:00</time></trkpt><trkpt lat="39.47532493" lon="-0.3864427"><ele>18.8</ele><time>2022-11-02T16:47:05.0000000+00:00</time></trkpt><trkpt lat="39.47532476" lon="-0.38644278"><ele>18.8</ele><time>2022-11-02T16:47:06.0000000+00:00</time></trkpt><trkpt lat="39.47532518" lon="-0.38643985"><ele>18.8</ele><time>2022-11-02T16:47:07.0000000+00:00</time></trkpt><trkpt lat="39.47531353" lon="-0.38645846"><ele>18.8</ele><time>2022-11-02T16:47:08.0000000+00:00</time></trkpt><trkpt lat="39.4753064" lon="-0.38646868"><ele>18.8</ele><time>2022-11-02T16:47:09.0000000+00:00</time></trkpt><trkpt lat="39.47529894" lon="-0.38647933"><ele>18.8</ele><time>2022-11-02T16:47:10.0000000+00:00</time></trkpt><trkpt lat="39.47529442" lon="-0.38649106"><ele>18.8</ele><time>2022-11-02T16:47:11.0000000+00:00</time></trkpt><trkpt lat="39.47528914" lon="-0.38650104"><ele>18.8</ele><time>2022-11-02T16:47:12.0000000+00:00</time></trkpt><trkpt lat="39.47528369" lon="-0.38651076"><ele>18.8</ele><time>2022-11-02T16:47:13.0000000+00:00</time></trkpt><trkpt lat="39.47528335" lon="-0.38651973"><ele>18.8</ele><time>2022-11-02T16:47:14.0000000+00:00</time></trkpt><trkpt lat="39.47528729" lon="-0.38652426"><ele>18.8</ele><time>2022-11-02T16:47:15.0000000+00:00</time></trkpt><trkpt lat="39.4752852" lon="-0.38652736"><ele>18.8</ele><time>2022-11-02T16:47:16.0000000+00:00</time></trkpt><trkpt lat="39.47529106" lon="-0.38652702"><ele>18.8</ele><time>2022-11-02T16:47:17.0000000+00:00</time></trkpt><trkpt lat="39.4752976" lon="-0.38651696"><ele>18.8</ele><time>2022-11-02T16:47:18.0000000+00:00</time></trkpt><trkpt lat="39.47529961" lon="-0.38651219"><ele>18.8</ele><time>2022-11-02T16:47:19.0000000+00:00</time></trkpt><trkpt lat="39.47530137" lon="-0.38651328"><ele>18.8</ele><time>2022-11-02T16:47:20.0000000+00:00</time></trkpt><trkpt lat="39.47529995" lon="-0.38651688"><ele>18.8</ele><time>2022-11-02T16:47:21.0000000+00:00</time></trkpt><trkpt lat="39.47530984" lon="-0.38651227"><ele>18.8</ele><time>2022-11-02T16:47:22.0000000+00:00</time></trkpt><trkpt lat="39.47531655" lon="-0.3864997"><ele>18.8</ele><time>2022-11-02T16:47:23.0000000+00:00</time></trkpt><trkpt lat="39.47531831" lon="-0.38650389"><ele>18.8</ele><time>2022-11-02T16:47:24.0000000+00:00</time></trkpt><trkpt lat="39.47532342" lon="-0.38648939"><ele>18.8</ele><time>2022-11-02T16:47:25.0000000+00:00</time></trkpt><trkpt lat="39.47532442" lon="-0.38648813"><ele>18.8</ele><time>2022-11-02T16:47:26.0000000+00:00</time></trkpt><trkpt lat="39.47533138" lon="-0.38647941"><ele>18.8</ele><time>2022-11-02T16:47:27.0000000+00:00</time></trkpt><trkpt lat="39.47533918" lon="-0.38646986"><ele>18.8</ele><time>2022-11-02T16:47:28.0000000+00:00</time></trkpt><trkpt lat="39.47533658" lon="-0.38646734"><ele>18.8</ele><time>2022-11-02T16:47:29.0000000+00:00</time></trkpt><trkpt lat="39.47533993" lon="-0.38646441"><ele>18.8</ele><time>2022-11-02T16:47:30.0000000+00:00</time></trkpt><trkpt lat="39.47535058" lon="-0.38646475"><ele>18.8</ele><time>2022-11-02T16:47:31.0000000+00:00</time></trkpt><trkpt lat="39.47536072" lon="-0.38644295"><ele>18.8</ele><time>2022-11-02T16:47:32.0000000+00:00</time></trkpt><trkpt lat="39.47536307" lon="-0.38645024"><ele>18.8</ele><time>2022-11-02T16:47:33.0000000+00:00</time></trkpt><trkpt lat="39.47536432" lon="-0.38644957"><ele>18.8</ele><time>2022-11-02T16:47:34.0000000+00:00</time></trkpt><trkpt lat="39.4753655" lon="-0.38645729"><ele>18.8</ele><time>2022-11-02T16:47:35.0000000+00:00</time></trkpt><trkpt lat="39.47536952" lon="-0.38645636"><ele>18.8</ele><time>2022-11-02T16:47:36.0000000+00:00</time></trkpt><trkpt lat="39.47536918" lon="-0.38645553"><ele>18.8</ele><time>2022-11-02T16:47:37.0000000+00:00</time></trkpt><trkpt lat="39.47537161" lon="-0.38644706"><ele>18.8</ele><time>2022-11-02T16:47:38.0000000+00:00</time></trkpt><trkpt lat="39.4753712" lon="-0.38644773"><ele>18.8</ele><time>2022-11-02T16:47:39.0000000+00:00</time></trkpt><trkpt lat="39.47536868" lon="-0.38644672"><ele>18.8</ele><time>2022-11-02T16:47:40.0000000+00:00</time></trkpt><trkpt lat="39.47537354" lon="-0.38646374"><ele>18.8</ele><time>2022-11-02T16:47:41.0000000+00:00</time></trkpt><trkpt lat="39.47538352" lon="-0.38647187"><ele>18.8</ele><time>2022-11-02T16:47:42.0000000+00:00</time></trkpt><trkpt lat="39.47538762" lon="-0.38649735"><ele>18.8</ele><time>2022-11-02T16:47:43.0000000+00:00</time></trkpt><trkpt lat="39.47538134" lon="-0.38652157"><ele>18.8</ele><time>2022-11-02T16:47:44.0000000+00:00</time></trkpt><trkpt lat="39.47536952" lon="-0.3865349"><ele>18.8</ele><time>2022-11-02T16:47:45.0000000+00:00</time></trkpt><trkpt lat="39.47535871" lon="-0.38653222"><ele>18.8</ele><time>2022-11-02T16:47:46.0000000+00:00</time></trkpt><trkpt lat="39.47534387" lon="-0.38654312"><ele>18.8</ele><time>2022-11-02T16:47:47.0000000+00:00</time></trkpt><trkpt lat="39.47533566" lon="-0.38655602"><ele>18.8</ele><time>2022-11-02T16:47:48.0000000+00:00</time></trkpt><trkpt lat="39.47533624" lon="-0.38655963"><ele>18.8</ele><time>2022-11-02T16:47:49.0000000+00:00</time></trkpt><trkpt lat="39.47535158" lon="-0.3865577"><ele>18.8</ele><time>2022-11-02T16:47:50.0000000+00:00</time></trkpt><trkpt lat="39.4753779" lon="-0.38653255"><ele>18.8</ele><time>2022-11-02T16:47:51.0000000+00:00</time></trkpt><trkpt lat="39.47539944" lon="-0.3865121"><ele>18.8</ele><time>2022-11-02T16:47:52.0000000+00:00</time></trkpt><trkpt lat="39.47542559" lon="-0.38648268"><ele>18.8</ele><time>2022-11-02T16:47:53.0000000+00:00</time></trkpt><trkpt lat="39.47544605" lon="-0.38644471"><ele>18.8</ele><time>2022-11-02T16:47:54.0000000+00:00</time></trkpt><trkpt lat="39.47546046" lon="-0.3864163"><ele>18.8</ele><time>2022-11-02T16:47:55.0000000+00:00</time></trkpt><trkpt lat="39.47547463" lon="-0.38639249"><ele>18.8</ele><time>2022-11-02T16:47:56.0000000+00:00</time></trkpt><trkpt lat="39.47548946" lon="-0.38636785"><ele>18.8</ele><time>2022-11-02T16:47:57.0000000+00:00</time></trkpt><trkpt lat="39.47550095" lon="-0.38634287"><ele>18.8</ele><time>2022-11-02T16:47:58.0000000+00:00</time></trkpt><trkpt lat="39.4754706" lon="-0.38635301"><ele>18.8</ele><time>2022-11-02T16:47:59.0000000+00:00</time></trkpt><trkpt lat="39.47545753" lon="-0.38636156"><ele>18.8</ele><time>2022-11-02T16:48:00.0000000+00:00</time></trkpt><trkpt lat="39.47544521" lon="-0.38635779"><ele>18.8</ele><time>2022-11-02T16:48:01.0000000+00:00</time></trkpt><trkpt lat="39.47544638" lon="-0.3863583"><ele>18.8</ele><time>2022-11-02T16:48:02.0000000+00:00</time></trkpt><trkpt lat="39.47544747" lon="-0.38635578"><ele>18.8</ele><time>2022-11-02T16:48:03.0000000+00:00</time></trkpt><trkpt lat="39.47543817" lon="-0.38637221"><ele>18.8</ele><time>2022-11-02T16:48:04.0000000+00:00</time></trkpt><trkpt lat="39.47544009" lon="-0.38636844"><ele>18.8</ele><time>2022-11-02T16:48:05.0000000+00:00</time></trkpt><trkpt lat="39.47544144" lon="-0.38636936"><ele>18.8</ele><time>2022-11-02T16:48:06.0000000+00:00</time></trkpt><trkpt lat="39.47544185" lon="-0.38637062"><ele>18.8</ele><time>2022-11-02T16:48:07.0000000+00:00</time></trkpt><trkpt lat="39.47544236" lon="-0.38637229"><ele>18.8</ele><time>2022-11-02T16:48:08.0000000+00:00</time></trkpt><trkpt lat="39.47543565" lon="-0.38639886"><ele>18.8</ele><time>2022-11-02T16:48:09.0000000+00:00</time></trkpt><trkpt lat="39.47542048" lon="-0.38642284"><ele>18.8</ele><time>2022-11-02T16:48:10.0000000+00:00</time></trkpt><trkpt lat="39.4754069" lon="-0.3864505"><ele>18.8</ele><time>2022-11-02T16:48:11.0000000+00:00</time></trkpt><trkpt lat="39.47539299" lon="-0.38647581"><ele>18.8</ele><time>2022-11-02T16:48:12.0000000+00:00</time></trkpt><trkpt lat="39.4753836" lon="-0.38648855"><ele>18.8</ele><time>2022-11-02T16:48:13.0000000+00:00</time></trkpt><trkpt lat="39.47537354" lon="-0.38650699"><ele>18.8</ele><time>2022-11-02T16:48:14.0000000+00:00</time></trkpt><trkpt lat="39.47536944" lon="-0.38651428"><ele>18.8</ele><time>2022-11-02T16:48:15.0000000+00:00</time></trkpt><trkpt lat="39.47535938" lon="-0.38652962"><ele>18.8</ele><time>2022-11-02T16:48:16.0000000+00:00</time></trkpt><trkpt lat="39.4753551" lon="-0.3865525"><ele>18.8</ele><time>2022-11-02T16:48:17.0000000+00:00</time></trkpt><trkpt lat="39.47534882" lon="-0.38657421"><ele>18.8</ele><time>2022-11-02T16:48:18.0000000+00:00</time></trkpt><trkpt lat="39.47534144" lon="-0.38659089"><ele>18.8</ele><time>2022-11-02T16:48:19.0000000+00:00</time></trkpt><trkpt lat="39.47533658" lon="-0.38660263"><ele>18.8</ele><time>2022-11-02T16:48:20.0000000+00:00</time></trkpt><trkpt lat="39.47533432" lon="-0.38660933"><ele>18.8</ele><time>2022-11-02T16:48:21.0000000+00:00</time></trkpt><trkpt lat="39.47533323" lon="-0.38661763"><ele>18.8</ele><time>2022-11-02T16:48:22.0000000+00:00</time></trkpt><trkpt lat="39.4753292" lon="-0.38662174"><ele>18.8</ele><time>2022-11-02T16:48:23.0000000+00:00</time></trkpt><trkpt lat="39.47532468" lon="-0.38663037"><ele>18.8</ele><time>2022-11-02T16:48:24.0000000+00:00</time></trkpt><trkpt lat="39.47532099" lon="-0.38664135"><ele>18.6</ele><time>2022-11-02T16:48:25.0000000+00:00</time></trkpt><trkpt lat="39.47533029" lon="-0.38662911"><ele>18.8</ele><time>2022-11-02T16:48:26.0000000+00:00</time></trkpt><trkpt lat="39.47533658" lon="-0.38662551"><ele>18.6</ele><time>2022-11-02T16:48:27.0000000+00:00</time></trkpt><trkpt lat="39.47534345" lon="-0.38662895"><ele>18.8</ele><time>2022-11-02T16:48:28.0000000+00:00</time></trkpt><trkpt lat="39.47534999" lon="-0.38663724"><ele>18.8</ele><time>2022-11-02T16:48:29.0000000+00:00</time></trkpt><trkpt lat="39.47534697" lon="-0.38665309"><ele>18.8</ele><time>2022-11-02T16:48:30.0000000+00:00</time></trkpt><trkpt lat="39.47534421" lon="-0.38666474"><ele>18.8</ele><time>2022-11-02T16:48:31.0000000+00:00</time></trkpt><trkpt lat="39.47534261" lon="-0.3866748"><ele>18.8</ele><time>2022-11-02T16:48:32.0000000+00:00</time></trkpt><trkpt lat="39.47534328" lon="-0.38668326"><ele>18.8</ele><time>2022-11-02T16:48:33.0000000+00:00</time></trkpt><trkpt lat="39.4753406" lon="-0.38669458"><ele>18.8</ele><time>2022-11-02T16:48:34.0000000+00:00</time></trkpt><trkpt lat="39.47533934" lon="-0.38670388"><ele>18.8</ele><time>2022-11-02T16:48:35.0000000+00:00</time></trkpt><trkpt lat="39.47533675" lon="-0.38671821"><ele>18.8</ele><time>2022-11-02T16:48:36.0000000+00:00</time></trkpt><trkpt lat="39.47532912" lon="-0.38673263"><ele>18.8</ele><time>2022-11-02T16:48:37.0000000+00:00</time></trkpt><trkpt lat="39.47531906" lon="-0.38675166"><ele>18.8</ele><time>2022-11-02T16:48:38.0000000+00:00</time></trkpt><trkpt lat="39.47531738" lon="-0.38676038"><ele>18.8</ele><time>2022-11-02T16:48:39.0000000+00:00</time></trkpt><trkpt lat="39.47532719" lon="-0.38676473"><ele>18.8</ele><time>2022-11-02T16:48:40.0000000+00:00</time></trkpt><trkpt lat="39.47532878" lon="-0.38676985"><ele>18.8</ele><time>2022-11-02T16:48:41.0000000+00:00</time></trkpt><trkpt lat="39.47534831" lon="-0.3867732"><ele>18.8</ele><time>2022-11-02T16:48:42.0000000+00:00</time></trkpt><trkpt lat="39.47535493" lon="-0.38677714"><ele>18.8</ele><time>2022-11-02T16:48:43.0000000+00:00</time></trkpt><trkpt lat="39.47535502" lon="-0.38677856"><ele>18.8</ele><time>2022-11-02T16:48:44.0000000+00:00</time></trkpt><trkpt lat="39.47536558" lon="-0.38678032"><ele>18.8</ele><time>2022-11-02T16:48:45.0000000+00:00</time></trkpt><trkpt lat="39.47536893" lon="-0.38678326"><ele>18.8</ele><time>2022-11-02T16:48:46.0000000+00:00</time></trkpt><trkpt lat="39.4753722" lon="-0.38678602"><ele>18.8</ele><time>2022-11-02T16:48:47.0000000+00:00</time></trkpt><trkpt lat="39.47538109" lon="-0.3867898"><ele>18.8</ele><time>2022-11-02T16:48:48.0000000+00:00</time></trkpt><trkpt lat="39.47538436" lon="-0.38679818"><ele>18.8</ele><time>2022-11-02T16:48:49.0000000+00:00</time></trkpt><trkpt lat="39.47538134" lon="-0.38680949"><ele>18.8</ele><time>2022-11-02T16:48:50.0000000+00:00</time></trkpt><trkpt lat="39.4753774" lon="-0.38681964"><ele>18.8</ele><time>2022-11-02T16:48:51.0000000+00:00</time></trkpt><trkpt lat="39.47537681" lon="-0.38682659"><ele>18.8</ele><time>2022-11-02T16:48:52.0000000+00:00</time></trkpt><trkpt lat="39.4753748" lon="-0.3868374"><ele>18.8</ele><time>2022-11-02T16:48:53.0000000+00:00</time></trkpt><trkpt lat="39.47536826" lon="-0.38684914"><ele>18.8</ele><time>2022-11-02T16:48:54.0000000+00:00</time></trkpt><trkpt lat="39.4753598" lon="-0.38686272"><ele>18.8</ele><time>2022-11-02T16:48:55.0000000+00:00</time></trkpt><trkpt lat="39.47534982" lon="-0.38688376"><ele>18.8</ele><time>2022-11-02T16:48:56.0000000+00:00</time></trkpt><trkpt lat="39.47533893" lon="-0.38690614"><ele>18.8</ele><time>2022-11-02T16:48:57.0000000+00:00</time></trkpt><trkpt lat="39.47533105" lon="-0.38692458"><ele>18.8</ele><time>2022-11-02T16:48:58.0000000+00:00</time></trkpt><trkpt lat="39.47532157" lon="-0.38694084"><ele>18.8</ele><time>2022-11-02T16:48:59.0000000+00:00</time></trkpt><trkpt lat="39.4753142" lon="-0.38695735"><ele>18.8</ele><time>2022-11-02T16:49:00.0000000+00:00</time></trkpt><trkpt lat="39.47531093" lon="-0.38697487"><ele>18.8</ele><time>2022-11-02T16:49:01.0000000+00:00</time></trkpt><trkpt lat="39.475308" lon="-0.38699188"><ele>18.8</ele><time>2022-11-02T16:49:02.0000000+00:00</time></trkpt><trkpt lat="39.47530875" lon="-0.38700689"><ele>18.8</ele><time>2022-11-02T16:49:03.0000000+00:00</time></trkpt><trkpt lat="39.47531378" lon="-0.38701485"><ele>18.8</ele><time>2022-11-02T16:49:04.0000000+00:00</time></trkpt><trkpt lat="39.47532032" lon="-0.38702181"><ele>18.8</ele><time>2022-11-02T16:49:05.0000000+00:00</time></trkpt><trkpt lat="39.47532694" lon="-0.38702633"><ele>18.8</ele><time>2022-11-02T16:49:06.0000000+00:00</time></trkpt><trkpt lat="39.47534219" lon="-0.38703186"><ele>18.8</ele><time>2022-11-02T16:49:07.0000000+00:00</time></trkpt><trkpt lat="39.47535561" lon="-0.3870462"><ele>18.8</ele><time>2022-11-02T16:49:08.0000000+00:00</time></trkpt><trkpt lat="39.47536415" lon="-0.38706212"><ele>18.8</ele><time>2022-11-02T16:49:09.0000000+00:00</time></trkpt><trkpt lat="39.47537363" lon="-0.3870757"><ele>18.8</ele><time>2022-11-02T16:49:10.0000000+00:00</time></trkpt><trkpt lat="39.47538754" lon="-0.38708844"><ele>18.8</ele><time>2022-11-02T16:49:11.0000000+00:00</time></trkpt><trkpt lat="39.47540036" lon="-0.38709984"><ele>18.8</ele><time>2022-11-02T16:49:12.0000000+00:00</time></trkpt><trkpt lat="39.4754116" lon="-0.38711543"><ele>18.6</ele><time>2022-11-02T16:49:13.0000000+00:00</time></trkpt><trkpt lat="39.47542258" lon="-0.38712566"><ele>18.6</ele><time>2022-11-02T16:49:14.0000000+00:00</time></trkpt><trkpt lat="39.4754354" lon="-0.38713731"><ele>18.6</ele><time>2022-11-02T16:49:15.0000000+00:00</time></trkpt><trkpt lat="39.47544605" lon="-0.38714879"><ele>18.6</ele><time>2022-11-02T16:49:16.0000000+00:00</time></trkpt><trkpt lat="39.47545644" lon="-0.38715558"><ele>18.6</ele><time>2022-11-02T16:49:17.0000000+00:00</time></trkpt><trkpt lat="39.47546901" lon="-0.38715826"><ele>18.6</ele><time>2022-11-02T16:49:18.0000000+00:00</time></trkpt><trkpt lat="39.47548033" lon="-0.38715944"><ele>18.6</ele><time>2022-11-02T16:49:19.0000000+00:00</time></trkpt><trkpt lat="39.47548913" lon="-0.3871612"><ele>18.6</ele><time>2022-11-02T16:49:20.0000000+00:00</time></trkpt><trkpt lat="39.47550313" lon="-0.38716891"><ele>18.6</ele><time>2022-11-02T16:49:21.0000000+00:00</time></trkpt><trkpt lat="39.47551662" lon="-0.38717444"><ele>18.6</ele><time>2022-11-02T16:49:22.0000000+00:00</time></trkpt><trkpt lat="39.47552651" lon="-0.38718391"><ele>18.6</ele><time>2022-11-02T16:49:23.0000000+00:00</time></trkpt><trkpt lat="39.47553791" lon="-0.38719137"><ele>18.6</ele><time>2022-11-02T16:49:24.0000000+00:00</time></trkpt><trkpt lat="39.47554336" lon="-0.38719799"><ele>18.6</ele><time>2022-11-02T16:49:25.0000000+00:00</time></trkpt><trkpt lat="39.47555107" lon="-0.3872011"><ele>18.6</ele><time>2022-11-02T16:49:26.0000000+00:00</time></trkpt><trkpt lat="39.47556088" lon="-0.38721182"><ele>18.6</ele><time>2022-11-02T16:49:27.0000000+00:00</time></trkpt><trkpt lat="39.47557052" lon="-0.38722389"><ele>18.6</ele><time>2022-11-02T16:49:28.0000000+00:00</time></trkpt><trkpt lat="39.47557831" lon="-0.38723219"><ele>18.6</ele><time>2022-11-02T16:49:29.0000000+00:00</time></trkpt><trkpt lat="39.47559105" lon="-0.38724929"><ele>18.6</ele><time>2022-11-02T16:49:30.0000000+00:00</time></trkpt><trkpt lat="39.47559918" lon="-0.38726077"><ele>18.6</ele><time>2022-11-02T16:49:31.0000000+00:00</time></trkpt><trkpt lat="39.47560874" lon="-0.38726991"><ele>18.6</ele><time>2022-11-02T16:49:32.0000000+00:00</time></trkpt><trkpt lat="39.47561687" lon="-0.38727385"><ele>18.6</ele><time>2022-11-02T16:49:33.0000000+00:00</time></trkpt><trkpt lat="39.47562399" lon="-0.38727972"><ele>18.8</ele><time>2022-11-02T16:49:34.0000000+00:00</time></trkpt><trkpt lat="39.47563271" lon="-0.38728517"><ele>18.8</ele><time>2022-11-02T16:49:35.0000000+00:00</time></trkpt><trkpt lat="39.47564201" lon="-0.38729036"><ele>18.8</ele><time>2022-11-02T16:49:36.0000000+00:00</time></trkpt><trkpt lat="39.47564763" lon="-0.38729833"><ele>18.8</ele><time>2022-11-02T16:49:37.0000000+00:00</time></trkpt><trkpt lat="39.47565107" lon="-0.3873047"><ele>18.8</ele><time>2022-11-02T16:49:38.0000000+00:00</time></trkpt><trkpt lat="39.4756623" lon="-0.38730947"><ele>18.8</ele><time>2022-11-02T16:49:39.0000000+00:00</time></trkpt><trkpt lat="39.47567621" lon="-0.38731551"><ele>18.8</ele><time>2022-11-02T16:49:40.0000000+00:00</time></trkpt><trkpt lat="39.47569029" lon="-0.38731962"><ele>18.8</ele><time>2022-11-02T16:49:41.0000000+00:00</time></trkpt><trkpt lat="39.47572676" lon="-0.38733495"><ele>18.8</ele><time>2022-11-02T16:49:42.0000000+00:00</time></trkpt><trkpt lat="39.47573924" lon="-0.38734979"><ele>18.8</ele><time>2022-11-02T16:49:43.0000000+00:00</time></trkpt><trkpt lat="39.47575182" lon="-0.38735893"><ele>18.8</ele><time>2022-11-02T16:49:44.0000000+00:00</time></trkpt><trkpt lat="39.47576665" lon="-0.38736957"><ele>18.8</ele><time>2022-11-02T16:49:45.0000000+00:00</time></trkpt><trkpt lat="39.47577864" lon="-0.38737519"><ele>18.8</ele><time>2022-11-02T16:49:46.0000000+00:00</time></trkpt><trkpt lat="39.47578803" lon="-0.38737728"><ele>18.8</ele><time>2022-11-02T16:49:47.0000000+00:00</time></trkpt><trkpt lat="39.47579616" lon="-0.38737385"><ele>18.8</ele><time>2022-11-02T16:49:48.0000000+00:00</time></trkpt><trkpt lat="39.47579968" lon="-0.38737343"><ele>18.8</ele><time>2022-11-02T16:49:49.0000000+00:00</time></trkpt><trkpt lat="39.47580345" lon="-0.38737292"><ele>18.8</ele><time>2022-11-02T16:49:50.0000000+00:00</time></trkpt><trkpt lat="39.47580655" lon="-0.3873575"><ele>18.8</ele><time>2022-11-02T16:49:51.0000000+00:00</time></trkpt><trkpt lat="39.47580555" lon="-0.38735608"><ele>18.8</ele><time>2022-11-02T16:49:52.0000000+00:00</time></trkpt><trkpt lat="39.47580437" lon="-0.38735583"><ele>19.0</ele><time>2022-11-02T16:49:53.0000000+00:00</time></trkpt><trkpt lat="39.47580488" lon="-0.38735323"><ele>19.0</ele><time>2022-11-02T16:49:54.0000000+00:00</time></trkpt><trkpt lat="39.47580605" lon="-0.38735448"><ele>19.0</ele><time>2022-11-02T16:49:55.0000000+00:00</time></trkpt><trkpt lat="39.4758084" lon="-0.38736085"><ele>19.0</ele><time>2022-11-02T16:49:56.0000000+00:00</time></trkpt><trkpt lat="39.47581384" lon="-0.38736513"><ele>19.0</ele><time>2022-11-02T16:49:57.0000000+00:00</time></trkpt><trkpt lat="39.47582231" lon="-0.38737284"><ele>18.8</ele><time>2022-11-02T16:49:58.0000000+00:00</time></trkpt><trkpt lat="39.47582927" lon="-0.38737628"><ele>18.8</ele><time>2022-11-02T16:49:59.0000000+00:00</time></trkpt><trkpt lat="39.47583564" lon="-0.3873684"><ele>18.8</ele><time>2022-11-02T16:50:00.0000000+00:00</time></trkpt><trkpt lat="39.47584217" lon="-0.38736622"><ele>18.8</ele><time>2022-11-02T16:50:01.0000000+00:00</time></trkpt><trkpt lat="39.47585391" lon="-0.38736521"><ele>18.8</ele><time>2022-11-02T16:50:02.0000000+00:00</time></trkpt><trkpt lat="39.47586011" lon="-0.38736379"><ele>18.8</ele><time>2022-11-02T16:50:03.0000000+00:00</time></trkpt><trkpt lat="39.47587034" lon="-0.38737024"><ele>18.8</ele><time>2022-11-02T16:50:04.0000000+00:00</time></trkpt><trkpt lat="39.47588098" lon="-0.38737435"><ele>18.8</ele><time>2022-11-02T16:50:05.0000000+00:00</time></trkpt><trkpt lat="39.47589389" lon="-0.38737653"><ele>18.8</ele><time>2022-11-02T16:50:06.0000000+00:00</time></trkpt><trkpt lat="39.47590588" lon="-0.38737385"><ele>18.6</ele><time>2022-11-02T16:50:07.0000000+00:00</time></trkpt><trkpt lat="39.47591811" lon="-0.38737418"><ele>18.6</ele><time>2022-11-02T16:50:08.0000000+00:00</time></trkpt><trkpt lat="39.47592893" lon="-0.38736915"><ele>18.6</ele><time>2022-11-02T16:50:09.0000000+00:00</time></trkpt><trkpt lat="39.4759379" lon="-0.38736865"><ele>18.6</ele><time>2022-11-02T16:50:10.0000000+00:00</time></trkpt><trkpt lat="39.47595072" lon="-0.3873689"><ele>18.6</ele><time>2022-11-02T16:50:11.0000000+00:00</time></trkpt><trkpt lat="39.47596589" lon="-0.38736614"><ele>18.6</ele><time>2022-11-02T16:50:12.0000000+00:00</time></trkpt><trkpt lat="39.47597687" lon="-0.38736387"><ele>18.6</ele><time>2022-11-02T16:50:13.0000000+00:00</time></trkpt><trkpt lat="39.475985" lon="-0.38735926"><ele>18.6</ele><time>2022-11-02T16:50:14.0000000+00:00</time></trkpt><trkpt lat="39.47599657" lon="-0.38735448"><ele>18.6</ele><time>2022-11-02T16:50:15.0000000+00:00</time></trkpt><trkpt lat="39.47601006" lon="-0.38735683"><ele>18.6</ele><time>2022-11-02T16:50:16.0000000+00:00</time></trkpt><trkpt lat="39.47602691" lon="-0.38735784"><ele>18.4</ele><time>2022-11-02T16:50:17.0000000+00:00</time></trkpt><trkpt lat="39.47603462" lon="-0.3873549"><ele>18.4</ele><time>2022-11-02T16:50:18.0000000+00:00</time></trkpt><trkpt lat="39.47604862" lon="-0.38734795"><ele>18.6</ele><time>2022-11-02T16:50:19.0000000+00:00</time></trkpt><trkpt lat="39.47606061" lon="-0.38734308"><ele>18.6</ele><time>2022-11-02T16:50:20.0000000+00:00</time></trkpt><trkpt lat="39.47607284" lon="-0.38734376"><ele>18.4</ele><time>2022-11-02T16:50:21.0000000+00:00</time></trkpt><trkpt lat="39.47608843" lon="-0.38734459"><ele>18.4</ele><time>2022-11-02T16:50:22.0000000+00:00</time></trkpt><trkpt lat="39.47609623" lon="-0.38734736"><ele>18.4</ele><time>2022-11-02T16:50:23.0000000+00:00</time></trkpt><trkpt lat="39.47610277" lon="-0.38734971"><ele>18.4</ele><time>2022-11-02T16:50:24.0000000+00:00</time></trkpt><trkpt lat="39.47610629" lon="-0.38735784"><ele>18.6</ele><time>2022-11-02T16:50:25.0000000+00:00</time></trkpt><trkpt lat="39.47610822" lon="-0.38736572"><ele>18.6</ele><time>2022-11-02T16:50:26.0000000+00:00</time></trkpt><trkpt lat="39.47611182" lon="-0.38737108"><ele>18.6</ele><time>2022-11-02T16:50:27.0000000+00:00</time></trkpt><trkpt lat="39.47611492" lon="-0.38737753"><ele>18.6</ele><time>2022-11-02T16:50:28.0000000+00:00</time></trkpt><trkpt lat="39.47612255" lon="-0.38738458"><ele>18.6</ele><time>2022-11-02T16:50:29.0000000+00:00</time></trkpt><trkpt lat="39.47613311" lon="-0.38738541"><ele>18.6</ele><time>2022-11-02T16:50:30.0000000+00:00</time></trkpt><trkpt lat="39.47614049" lon="-0.38738759"><ele>18.6</ele><time>2022-11-02T16:50:31.0000000+00:00</time></trkpt><trkpt lat="39.47615708" lon="-0.38739547"><ele>18.4</ele><time>2022-11-02T16:50:32.0000000+00:00</time></trkpt><trkpt lat="39.47617234" lon="-0.3873974"><ele>18.4</ele><time>2022-11-02T16:50:33.0000000+00:00</time></trkpt><trkpt lat="39.47618449" lon="-0.38739639"><ele>18.4</ele><time>2022-11-02T16:50:34.0000000+00:00</time></trkpt><trkpt lat="39.47619698" lon="-0.38739455"><ele>18.4</ele><time>2022-11-02T16:50:35.0000000+00:00</time></trkpt><trkpt lat="39.47620888" lon="-0.38739698"><ele>18.4</ele><time>2022-11-02T16:50:36.0000000+00:00</time></trkpt><trkpt lat="39.47622104" lon="-0.38739807"><ele>18.4</ele><time>2022-11-02T16:50:37.0000000+00:00</time></trkpt><trkpt lat="39.47623453" lon="-0.38740461"><ele>18.4</ele><time>2022-11-02T16:50:38.0000000+00:00</time></trkpt><trkpt lat="39.47624576" lon="-0.38741215"><ele>18.4</ele><time>2022-11-02T16:50:39.0000000+00:00</time></trkpt><trkpt lat="39.47625607" lon="-0.3874212"><ele>18.4</ele><time>2022-11-02T16:50:40.0000000+00:00</time></trkpt><trkpt lat="39.47626839" lon="-0.38742791"><ele>18.4</ele><time>2022-11-02T16:50:41.0000000+00:00</time></trkpt><trkpt lat="39.47627485" lon="-0.38742833"><ele>18.4</ele><time>2022-11-02T16:50:42.0000000+00:00</time></trkpt><trkpt lat="39.47628667" lon="-0.38743009"><ele>18.4</ele><time>2022-11-02T16:50:43.0000000+00:00</time></trkpt><trkpt lat="39.47630066" lon="-0.38743361"><ele>18.4</ele><time>2022-11-02T16:50:44.0000000+00:00</time></trkpt><trkpt lat="39.47631399" lon="-0.38743713"><ele>18.4</ele><time>2022-11-02T16:50:45.0000000+00:00</time></trkpt><trkpt lat="39.47632422" lon="-0.38743763"><ele>18.4</ele><time>2022-11-02T16:50:46.0000000+00:00</time></trkpt><trkpt lat="39.47633646" lon="-0.38743629"><ele>18.4</ele><time>2022-11-02T16:50:47.0000000+00:00</time></trkpt><trkpt lat="39.47634987" lon="-0.3874357"><ele>18.4</ele><time>2022-11-02T16:50:48.0000000+00:00</time></trkpt><trkpt lat="39.47636286" lon="-0.38743478"><ele>18.4</ele><time>2022-11-02T16:50:49.0000000+00:00</time></trkpt><trkpt lat="39.47637795" lon="-0.38743503"><ele>18.4</ele><time>2022-11-02T16:50:50.0000000+00:00</time></trkpt><trkpt lat="39.47639312" lon="-0.3874357"><ele>18.2</ele><time>2022-11-02T16:50:51.0000000+00:00</time></trkpt><trkpt lat="39.47640921" lon="-0.38743696"><ele>18.4</ele><time>2022-11-02T16:50:52.0000000+00:00</time></trkpt><trkpt lat="39.47641592" lon="-0.38744275"><ele>18.4</ele><time>2022-11-02T16:50:53.0000000+00:00</time></trkpt><trkpt lat="39.47641491" lon="-0.38745498"><ele>18.2</ele><time>2022-11-02T16:50:54.0000000+00:00</time></trkpt><trkpt lat="39.47642145" lon="-0.3874632"><ele>18.2</ele><time>2022-11-02T16:50:55.0000000+00:00</time></trkpt><trkpt lat="39.47643595" lon="-0.38747376"><ele>18.2</ele><time>2022-11-02T16:50:56.0000000+00:00</time></trkpt><trkpt lat="39.47644475" lon="-0.38747795"><ele>18.2</ele><time>2022-11-02T16:50:57.0000000+00:00</time></trkpt><trkpt lat="39.47645263" lon="-0.38747921"><ele>18.2</ele><time>2022-11-02T16:50:58.0000000+00:00</time></trkpt><trkpt lat="39.47646629" lon="-0.38748063"><ele>18.4</ele><time>2022-11-02T16:50:59.0000000+00:00</time></trkpt><trkpt lat="39.47648213" lon="-0.38748155"><ele>18.4</ele><time>2022-11-02T16:51:00.0000000+00:00</time></trkpt><trkpt lat="39.47649638" lon="-0.38748524"><ele>18.4</ele><time>2022-11-02T16:51:01.0000000+00:00</time></trkpt><trkpt lat="39.47650845" lon="-0.38749052"><ele>18.4</ele><time>2022-11-02T16:51:02.0000000+00:00</time></trkpt><trkpt lat="39.4765222" lon="-0.38749865"><ele>18.4</ele><time>2022-11-02T16:51:03.0000000+00:00</time></trkpt><trkpt lat="39.47653377" lon="-0.38751056"><ele>18.2</ele><time>2022-11-02T16:51:04.0000000+00:00</time></trkpt><trkpt lat="39.47654894" lon="-0.38751994"><ele>18.2</ele><time>2022-11-02T16:51:05.0000000+00:00</time></trkpt><trkpt lat="39.47656461" lon="-0.38752548"><ele>18.2</ele><time>2022-11-02T16:51:06.0000000+00:00</time></trkpt><trkpt lat="39.47657953" lon="-0.38752397"><ele>18.2</ele><time>2022-11-02T16:51:07.0000000+00:00</time></trkpt><trkpt lat="39.47659328" lon="-0.38752858"><ele>18.2</ele><time>2022-11-02T16:51:08.0000000+00:00</time></trkpt><trkpt lat="39.47660828" lon="-0.38753268"><ele>18.2</ele><time>2022-11-02T16:51:09.0000000+00:00</time></trkpt><trkpt lat="39.47661968" lon="-0.38753453"><ele>18.2</ele><time>2022-11-02T16:51:10.0000000+00:00</time></trkpt><trkpt lat="39.47662479" lon="-0.38753235"><ele>18.2</ele><time>2022-11-02T16:51:11.0000000+00:00</time></trkpt><trkpt lat="39.4766289" lon="-0.38753352"><ele>18.2</ele><time>2022-11-02T16:51:12.0000000+00:00</time></trkpt><trkpt lat="39.47662991" lon="-0.38753805"><ele>18.2</ele><time>2022-11-02T16:51:13.0000000+00:00</time></trkpt><trkpt lat="39.47662982" lon="-0.38753813"><ele>18.2</ele><time>2022-11-02T16:51:14.0000000+00:00</time></trkpt><trkpt lat="39.47663108" lon="-0.38754534"><ele>18.2</ele><time>2022-11-02T16:51:15.0000000+00:00</time></trkpt><trkpt lat="39.47663887" lon="-0.38754878"><ele>18.2</ele><time>2022-11-02T16:51:16.0000000+00:00</time></trkpt><trkpt lat="39.47664575" lon="-0.38754811"><ele>18.2</ele><time>2022-11-02T16:51:17.0000000+00:00</time></trkpt><trkpt lat="39.47665807" lon="-0.38754685"><ele>18.2</ele><time>2022-11-02T16:51:18.0000000+00:00</time></trkpt><trkpt lat="39.47667081" lon="-0.38754702"><ele>18.2</ele><time>2022-11-02T16:51:19.0000000+00:00</time></trkpt><trkpt lat="39.47668472" lon="-0.38754802"><ele>18.2</ele><time>2022-11-02T16:51:20.0000000+00:00</time></trkpt><trkpt lat="39.47669361" lon="-0.38754886"><ele>18.2</ele><time>2022-11-02T16:51:21.0000000+00:00</time></trkpt><trkpt lat="39.47670124" lon="-0.38755355"><ele>18.2</ele><time>2022-11-02T16:51:22.0000000+00:00</time></trkpt><trkpt lat="39.47671121" lon="-0.38755967"><ele>18.2</ele><time>2022-11-02T16:51:23.0000000+00:00</time></trkpt><trkpt lat="39.47671716" lon="-0.38756965"><ele>18.4</ele><time>2022-11-02T16:51:24.0000000+00:00</time></trkpt><trkpt lat="39.47672781" lon="-0.38757669"><ele>18.4</ele><time>2022-11-02T16:51:25.0000000+00:00</time></trkpt><trkpt lat="39.4767356" lon="-0.38758172"><ele>18.2</ele><time>2022-11-02T16:51:26.0000000+00:00</time></trkpt><trkpt lat="39.47674968" lon="-0.38758448"><ele>18.4</ele><time>2022-11-02T16:51:27.0000000+00:00</time></trkpt><trkpt lat="39.47675983" lon="-0.3875896"><ele>18.4</ele><time>2022-11-02T16:51:28.0000000+00:00</time></trkpt><trkpt lat="39.47677106" lon="-0.38758784"><ele>18.4</ele><time>2022-11-02T16:51:29.0000000+00:00</time></trkpt><trkpt lat="39.47678103" lon="-0.38759295"><ele>18.4</ele><time>2022-11-02T16:51:30.0000000+00:00</time></trkpt><trkpt lat="39.47679729" lon="-0.38759622"><ele>18.4</ele><time>2022-11-02T16:51:31.0000000+00:00</time></trkpt><trkpt lat="39.47680844" lon="-0.38759689"><ele>18.4</ele><time>2022-11-02T16:51:32.0000000+00:00</time></trkpt><trkpt lat="39.47682537" lon="-0.38759748"><ele>18.4</ele><time>2022-11-02T16:51:33.0000000+00:00</time></trkpt><trkpt lat="39.47683736" lon="-0.38759898"><ele>18.2</ele><time>2022-11-02T16:51:34.0000000+00:00</time></trkpt><trkpt lat="39.47684515" lon="-0.38760234"><ele>18.2</ele><time>2022-11-02T16:51:35.0000000+00:00</time></trkpt><trkpt lat="39.47685513" lon="-0.38760737"><ele>18.2</ele><time>2022-11-02T16:51:36.0000000+00:00</time></trkpt><trkpt lat="39.47686778" lon="-0.3876124"><ele>18.2</ele><time>2022-11-02T16:51:37.0000000+00:00</time></trkpt><trkpt lat="39.47687558" lon="-0.38761499"><ele>18.2</ele><time>2022-11-02T16:51:38.0000000+00:00</time></trkpt><trkpt lat="39.47688656" lon="-0.38761952"><ele>18.2</ele><time>2022-11-02T16:51:39.0000000+00:00</time></trkpt><trkpt lat="39.47689829" lon="-0.38762497"><ele>18.2</ele><time>2022-11-02T16:51:40.0000000+00:00</time></trkpt><trkpt lat="39.47691011" lon="-0.38763017"><ele>18.2</ele><time>2022-11-02T16:51:41.0000000+00:00</time></trkpt><trkpt lat="39.47692067" lon="-0.38763369"><ele>18.0</ele><time>2022-11-02T16:51:42.0000000+00:00</time></trkpt><trkpt lat="39.47692964" lon="-0.38763654"><ele>18.0</ele><time>2022-11-02T16:51:43.0000000+00:00</time></trkpt><trkpt lat="39.47694037" lon="-0.38763888"><ele>18.0</ele><time>2022-11-02T16:51:44.0000000+00:00</time></trkpt><trkpt lat="39.47695504" lon="-0.3876357"><ele>18.0</ele><time>2022-11-02T16:51:45.0000000+00:00</time></trkpt><trkpt lat="39.47696988" lon="-0.38763637"><ele>18.0</ele><time>2022-11-02T16:51:46.0000000+00:00</time></trkpt><trkpt lat="39.47698337" lon="-0.38763955"><ele>18.0</ele><time>2022-11-02T16:51:47.0000000+00:00</time></trkpt><trkpt lat="39.4769941" lon="-0.38764492"><ele>18.2</ele><time>2022-11-02T16:51:48.0000000+00:00</time></trkpt><trkpt lat="39.47700324" lon="-0.38764735"><ele>18.2</ele><time>2022-11-02T16:51:49.0000000+00:00</time></trkpt><trkpt lat="39.47701749" lon="-0.38764584"><ele>18.2</ele><time>2022-11-02T16:51:50.0000000+00:00</time></trkpt><trkpt lat="39.47703006" lon="-0.38764785"><ele>18.2</ele><time>2022-11-02T16:51:51.0000000+00:00</time></trkpt><trkpt lat="39.47704179" lon="-0.38765162"><ele>18.2</ele><time>2022-11-02T16:51:52.0000000+00:00</time></trkpt><trkpt lat="39.4770542" lon="-0.38765531"><ele>18.2</ele><time>2022-11-02T16:51:53.0000000+00:00</time></trkpt><trkpt lat="39.47706618" lon="-0.38765565"><ele>18.2</ele><time>2022-11-02T16:51:54.0000000+00:00</time></trkpt><trkpt lat="39.47707934" lon="-0.38765498"><ele>18.2</ele><time>2022-11-02T16:51:55.0000000+00:00</time></trkpt><trkpt lat="39.4770884" lon="-0.38765481"><ele>18.2</ele><time>2022-11-02T16:51:56.0000000+00:00</time></trkpt><trkpt lat="39.47709946" lon="-0.38765498"><ele>18.4</ele><time>2022-11-02T16:51:57.0000000+00:00</time></trkpt><trkpt lat="39.47710751" lon="-0.38766185"><ele>18.4</ele><time>2022-11-02T16:51:58.0000000+00:00</time></trkpt><trkpt lat="39.47711304" lon="-0.38767794"><ele>18.4</ele><time>2022-11-02T16:51:59.0000000+00:00</time></trkpt><trkpt lat="39.47711983" lon="-0.38768574"><ele>18.4</ele><time>2022-11-02T16:52:00.0000000+00:00</time></trkpt><trkpt lat="39.47713014" lon="-0.38768674"><ele>18.4</ele><time>2022-11-02T16:52:01.0000000+00:00</time></trkpt><trkpt lat="39.47714103" lon="-0.38768414"><ele>18.4</ele><time>2022-11-02T16:52:02.0000000+00:00</time></trkpt><trkpt lat="39.47715042" lon="-0.38768725"><ele>18.4</ele><time>2022-11-02T16:52:03.0000000+00:00</time></trkpt><trkpt lat="39.47716517" lon="-0.38769085"><ele>18.4</ele><time>2022-11-02T16:52:04.0000000+00:00</time></trkpt><trkpt lat="39.47717263" lon="-0.38770007"><ele>18.4</ele><time>2022-11-02T16:52:05.0000000+00:00</time></trkpt><trkpt lat="39.47718227" lon="-0.3877087"><ele>18.4</ele><time>2022-11-02T16:52:06.0000000+00:00</time></trkpt><trkpt lat="39.47719015" lon="-0.38771641"><ele>18.4</ele><time>2022-11-02T16:52:07.0000000+00:00</time></trkpt><trkpt lat="39.4771951" lon="-0.38772538"><ele>18.2</ele><time>2022-11-02T16:52:08.0000000+00:00</time></trkpt><trkpt lat="39.47719946" lon="-0.38774382"><ele>18.2</ele><time>2022-11-02T16:52:09.0000000+00:00</time></trkpt><trkpt lat="39.47720105" lon="-0.38776268"><ele>18.2</ele><time>2022-11-02T16:52:10.0000000+00:00</time></trkpt><trkpt lat="39.47720415" lon="-0.38778029"><ele>18.2</ele><time>2022-11-02T16:52:11.0000000+00:00</time></trkpt><trkpt lat="39.47721387" lon="-0.38778582"><ele>18.2</ele><time>2022-11-02T16:52:12.0000000+00:00</time></trkpt><trkpt lat="39.47722536" lon="-0.38778565"><ele>18.2</ele><time>2022-11-02T16:52:13.0000000+00:00</time></trkpt><trkpt lat="39.47723692" lon="-0.38778632"><ele>18.2</ele><time>2022-11-02T16:52:14.0000000+00:00</time></trkpt><trkpt lat="39.47724715" lon="-0.38778816"><ele>18.2</ele><time>2022-11-02T16:52:15.0000000+00:00</time></trkpt><trkpt lat="39.47727053" lon="-0.387789"><ele>18.2</ele><time>2022-11-02T16:52:16.0000000+00:00</time></trkpt><trkpt lat="39.47728244" lon="-0.38779093"><ele>18.2</ele><time>2022-11-02T16:52:17.0000000+00:00</time></trkpt><trkpt lat="39.47729082" lon="-0.38779571"><ele>18.2</ele><time>2022-11-02T16:52:18.0000000+00:00</time></trkpt><trkpt lat="39.4773013" lon="-0.38780401"><ele>18.2</ele><time>2022-11-02T16:52:19.0000000+00:00</time></trkpt><trkpt lat="39.47730758" lon="-0.38782178"><ele>18.2</ele><time>2022-11-02T16:52:20.0000000+00:00</time></trkpt><trkpt lat="39.47731521" lon="-0.38783116"><ele>18.2</ele><time>2022-11-02T16:52:21.0000000+00:00</time></trkpt><trkpt lat="39.47732401" lon="-0.3878325"><ele>18.2</ele><time>2022-11-02T16:52:22.0000000+00:00</time></trkpt><trkpt lat="39.47733684" lon="-0.38783435"><ele>18.2</ele><time>2022-11-02T16:52:23.0000000+00:00</time></trkpt><trkpt lat="39.47734379" lon="-0.38783678"><ele>18.2</ele><time>2022-11-02T16:52:24.0000000+00:00</time></trkpt><trkpt lat="39.47735301" lon="-0.38784483"><ele>18.2</ele><time>2022-11-02T16:52:25.0000000+00:00</time></trkpt><trkpt lat="39.4773624" lon="-0.38785027"><ele>18.2</ele><time>2022-11-02T16:52:26.0000000+00:00</time></trkpt><trkpt lat="39.47736936" lon="-0.38785681"><ele>18.2</ele><time>2022-11-02T16:52:27.0000000+00:00</time></trkpt><trkpt lat="39.47738151" lon="-0.38786419"><ele>18.2</ele><time>2022-11-02T16:52:28.0000000+00:00</time></trkpt><trkpt lat="39.477394" lon="-0.3878755"><ele>18.2</ele><time>2022-11-02T16:52:29.0000000+00:00</time></trkpt><trkpt lat="39.47740775" lon="-0.38787391"><ele>18.2</ele><time>2022-11-02T16:52:30.0000000+00:00</time></trkpt><trkpt lat="39.47741655" lon="-0.38787098"><ele>18.2</ele><time>2022-11-02T16:52:31.0000000+00:00</time></trkpt><trkpt lat="39.47743004" lon="-0.38787198"><ele>18.2</ele><time>2022-11-02T16:52:32.0000000+00:00</time></trkpt><trkpt lat="39.47744295" lon="-0.3878771"><ele>18.2</ele><time>2022-11-02T16:52:33.0000000+00:00</time></trkpt><trkpt lat="39.47745276" lon="-0.38787768"><ele>18.2</ele><time>2022-11-02T16:52:34.0000000+00:00</time></trkpt><trkpt lat="39.47746315" lon="-0.38787483"><ele>18.2</ele><time>2022-11-02T16:52:35.0000000+00:00</time></trkpt><trkpt lat="39.47747036" lon="-0.38787165"><ele>18.2</ele><time>2022-11-02T16:52:36.0000000+00:00</time></trkpt><trkpt lat="39.47747354" lon="-0.38787735"><ele>18.2</ele><time>2022-11-02T16:52:37.0000000+00:00</time></trkpt><trkpt lat="39.47748302" lon="-0.38789604"><ele>18.2</ele><time>2022-11-02T16:52:38.0000000+00:00</time></trkpt><trkpt lat="39.47748151" lon="-0.38791171"><ele>18.2</ele><time>2022-11-02T16:52:39.0000000+00:00</time></trkpt><trkpt lat="39.47748494" lon="-0.38792823"><ele>18.2</ele><time>2022-11-02T16:52:40.0000000+00:00</time></trkpt><trkpt lat="39.47749559" lon="-0.38792387"><ele>18.2</ele><time>2022-11-02T16:52:41.0000000+00:00</time></trkpt><trkpt lat="39.47749869" lon="-0.38792395"><ele>18.2</ele><time>2022-11-02T16:52:42.0000000+00:00</time></trkpt><trkpt lat="39.47751017" lon="-0.38792764"><ele>18.2</ele><time>2022-11-02T16:52:43.0000000+00:00</time></trkpt><trkpt lat="39.47751914" lon="-0.3879325"><ele>18.2</ele><time>2022-11-02T16:52:44.0000000+00:00</time></trkpt><trkpt lat="39.47753239" lon="-0.3879351"><ele>18.2</ele><time>2022-11-02T16:52:45.0000000+00:00</time></trkpt><trkpt lat="39.47754169" lon="-0.38793686"><ele>18.2</ele><time>2022-11-02T16:52:46.0000000+00:00</time></trkpt><trkpt lat="39.47754806" lon="-0.38794247"><ele>18.2</ele><time>2022-11-02T16:52:47.0000000+00:00</time></trkpt><trkpt lat="39.47755351" lon="-0.3879496"><ele>18.2</ele><time>2022-11-02T16:52:48.0000000+00:00</time></trkpt><trkpt lat="39.47756323" lon="-0.38795874"><ele>18.2</ele><time>2022-11-02T16:52:49.0000000+00:00</time></trkpt><trkpt lat="39.47757195" lon="-0.38796301"><ele>18.2</ele><time>2022-11-02T16:52:50.0000000+00:00</time></trkpt><trkpt lat="39.47758167" lon="-0.38796586"><ele>18.2</ele><time>2022-11-02T16:52:51.0000000+00:00</time></trkpt><trkpt lat="39.47759299" lon="-0.3879672"><ele>18.2</ele><time>2022-11-02T16:52:52.0000000+00:00</time></trkpt><trkpt lat="39.47760279" lon="-0.38797215"><ele>18.2</ele><time>2022-11-02T16:52:53.0000000+00:00</time></trkpt><trkpt lat="39.47761109" lon="-0.38797382"><ele>18.2</ele><time>2022-11-02T16:52:54.0000000+00:00</time></trkpt><trkpt lat="39.47761889" lon="-0.38798438"><ele>18.2</ele><time>2022-11-02T16:52:55.0000000+00:00</time></trkpt><trkpt lat="39.477624" lon="-0.38799587"><ele>18.2</ele><time>2022-11-02T16:52:56.0000000+00:00</time></trkpt><trkpt lat="39.47762593" lon="-0.38800634"><ele>18.2</ele><time>2022-11-02T16:52:57.0000000+00:00</time></trkpt><trkpt lat="39.47762492" lon="-0.38802068"><ele>18.0</ele><time>2022-11-02T16:52:58.0000000+00:00</time></trkpt><trkpt lat="39.47762241" lon="-0.38803275"><ele>18.0</ele><time>2022-11-02T16:52:59.0000000+00:00</time></trkpt><trkpt lat="39.47761922" lon="-0.38804633"><ele>18.0</ele><time>2022-11-02T16:53:00.0000000+00:00</time></trkpt><trkpt lat="39.47761553" lon="-0.38805974"><ele>18.0</ele><time>2022-11-02T16:53:01.0000000+00:00</time></trkpt><trkpt lat="39.47760983" lon="-0.38806971"><ele>18.0</ele><time>2022-11-02T16:53:02.0000000+00:00</time></trkpt><trkpt lat="39.47760204" lon="-0.38808002"><ele>17.8</ele><time>2022-11-02T16:53:03.0000000+00:00</time></trkpt><trkpt lat="39.47759961" lon="-0.38809243"><ele>17.8</ele><time>2022-11-02T16:53:04.0000000+00:00</time></trkpt><trkpt lat="39.47759835" lon="-0.38810148"><ele>17.8</ele><time>2022-11-02T16:53:05.0000000+00:00</time></trkpt><trkpt lat="39.47759491" lon="-0.38811388"><ele>17.8</ele><time>2022-11-02T16:53:06.0000000+00:00</time></trkpt><trkpt lat="39.47758947" lon="-0.38812847"><ele>17.8</ele><time>2022-11-02T16:53:07.0000000+00:00</time></trkpt><trkpt lat="39.47758452" lon="-0.38814331"><ele>17.8</ele><time>2022-11-02T16:53:08.0000000+00:00</time></trkpt><trkpt lat="39.47758175" lon="-0.38815646"><ele>17.8</ele><time>2022-11-02T16:53:09.0000000+00:00</time></trkpt><trkpt lat="39.47757874" lon="-0.38816828"><ele>17.8</ele><time>2022-11-02T16:53:10.0000000+00:00</time></trkpt><trkpt lat="39.4775753" lon="-0.38818052"><ele>17.8</ele><time>2022-11-02T16:53:11.0000000+00:00</time></trkpt><trkpt lat="39.47757228" lon="-0.38819452"><ele>17.8</ele><time>2022-11-02T16:53:12.0000000+00:00</time></trkpt><trkpt lat="39.47757061" lon="-0.38820785"><ele>17.8</ele><time>2022-11-02T16:53:13.0000000+00:00</time></trkpt><trkpt lat="39.47756943" lon="-0.38821992"><ele>18.0</ele><time>2022-11-02T16:53:14.0000000+00:00</time></trkpt><trkpt lat="39.47756751" lon="-0.38823299"><ele>18.0</ele><time>2022-11-02T16:53:15.0000000+00:00</time></trkpt><trkpt lat="39.477566" lon="-0.38824867"><ele>18.0</ele><time>2022-11-02T16:53:16.0000000+00:00</time></trkpt><trkpt lat="39.47757044" lon="-0.38826107"><ele>18.0</ele><time>2022-11-02T16:53:17.0000000+00:00</time></trkpt><trkpt lat="39.47757522" lon="-0.38826853"><ele>18.0</ele><time>2022-11-02T16:53:18.0000000+00:00</time></trkpt><trkpt lat="39.47757823" lon="-0.38827255"><ele>18.0</ele><time>2022-11-02T16:53:19.0000000+00:00</time></trkpt><trkpt lat="39.47757999" lon="-0.38827431"><ele>18.0</ele><time>2022-11-02T16:53:20.0000000+00:00</time></trkpt><trkpt lat="39.47758092" lon="-0.38827482"><ele>18.0</ele><time>2022-11-02T16:53:21.0000000+00:00</time></trkpt><trkpt lat="39.47758243" lon="-0.38827607"><ele>18.2</ele><time>2022-11-02T16:53:22.0000000+00:00</time></trkpt><trkpt lat="39.47758335" lon="-0.38827825"><ele>18.2</ele><time>2022-11-02T16:53:23.0000000+00:00</time></trkpt><trkpt lat="39.47758469" lon="-0.38828437"><ele>18.2</ele><time>2022-11-02T16:53:24.0000000+00:00</time></trkpt><trkpt lat="39.47758159" lon="-0.3882925"><ele>18.2</ele><time>2022-11-02T16:53:25.0000000+00:00</time></trkpt><trkpt lat="39.47757857" lon="-0.38830105"><ele>18.0</ele><time>2022-11-02T16:53:26.0000000+00:00</time></trkpt><trkpt lat="39.47757488" lon="-0.38830893"><ele>18.0</ele><time>2022-11-02T16:53:27.0000000+00:00</time></trkpt><trkpt lat="39.47757295" lon="-0.38831648"><ele>18.0</ele><time>2022-11-02T16:53:28.0000000+00:00</time></trkpt><trkpt lat="39.47756943" lon="-0.38832419"><ele>18.0</ele><time>2022-11-02T16:53:29.0000000+00:00</time></trkpt><trkpt lat="39.47757077" lon="-0.38833341"><ele>18.0</ele><time>2022-11-02T16:53:30.0000000+00:00</time></trkpt><trkpt lat="39.4775717" lon="-0.38833642"><ele>18.0</ele><time>2022-11-02T16:53:31.0000000+00:00</time></trkpt><trkpt lat="39.47757245" lon="-0.38833751"><ele>18.0</ele><time>2022-11-02T16:53:32.0000000+00:00</time></trkpt><trkpt lat="39.47757287" lon="-0.38833827"><ele>17.8</ele><time>2022-11-02T16:53:33.0000000+00:00</time></trkpt><trkpt lat="39.47757312" lon="-0.38833936"><ele>17.8</ele><time>2022-11-02T16:53:34.0000000+00:00</time></trkpt><trkpt lat="39.47757354" lon="-0.38834112"><ele>17.8</ele><time>2022-11-02T16:53:35.0000000+00:00</time></trkpt><trkpt lat="39.4775784" lon="-0.38834263"><ele>17.8</ele><time>2022-11-02T16:53:36.0000000+00:00</time></trkpt><trkpt lat="39.47758486" lon="-0.38834715"><ele>17.8</ele><time>2022-11-02T16:53:37.0000000+00:00</time></trkpt><trkpt lat="39.47759248" lon="-0.38835109"><ele>17.8</ele><time>2022-11-02T16:53:38.0000000+00:00</time></trkpt><trkpt lat="39.4776017" lon="-0.3883547"><ele>17.8</ele><time>2022-11-02T16:53:39.0000000+00:00</time></trkpt><trkpt lat="39.47761319" lon="-0.38835621"><ele>17.8</ele><time>2022-11-02T16:53:40.0000000+00:00</time></trkpt><trkpt lat="39.47762266" lon="-0.38836048"><ele>17.8</ele><time>2022-11-02T16:53:41.0000000+00:00</time></trkpt><trkpt lat="39.47763255" lon="-0.38836232"><ele>17.8</ele><time>2022-11-02T16:53:42.0000000+00:00</time></trkpt><trkpt lat="39.47764345" lon="-0.38836174"><ele>17.8</ele><time>2022-11-02T16:53:43.0000000+00:00</time></trkpt><trkpt lat="39.477652" lon="-0.38836157"><ele>17.8</ele><time>2022-11-02T16:53:44.0000000+00:00</time></trkpt><trkpt lat="39.47766306" lon="-0.38836325"><ele>17.8</ele><time>2022-11-02T16:53:45.0000000+00:00</time></trkpt><trkpt lat="39.47767228" lon="-0.38836425"><ele>17.8</ele><time>2022-11-02T16:53:46.0000000+00:00</time></trkpt><trkpt lat="39.47768318" lon="-0.38836677"><ele>17.6</ele><time>2022-11-02T16:53:47.0000000+00:00</time></trkpt><trkpt lat="39.47769516" lon="-0.38837062"><ele>17.6</ele><time>2022-11-02T16:53:48.0000000+00:00</time></trkpt><trkpt lat="39.47770891" lon="-0.3883749"><ele>17.6</ele><time>2022-11-02T16:53:49.0000000+00:00</time></trkpt><trkpt lat="39.47771888" lon="-0.38837657"><ele>17.6</ele><time>2022-11-02T16:53:50.0000000+00:00</time></trkpt><trkpt lat="39.4777255" lon="-0.38838051"><ele>17.6</ele><time>2022-11-02T16:53:51.0000000+00:00</time></trkpt><trkpt lat="39.47773255" lon="-0.38838454"><ele>17.6</ele><time>2022-11-02T16:53:52.0000000+00:00</time></trkpt><trkpt lat="39.47773531" lon="-0.38838772"><ele>17.6</ele><time>2022-11-02T16:53:53.0000000+00:00</time></trkpt><trkpt lat="39.47773707" lon="-0.38838965"><ele>17.6</ele><time>2022-11-02T16:53:54.0000000+00:00</time></trkpt><trkpt lat="39.47773833" lon="-0.38839183"><ele>17.8</ele><time>2022-11-02T16:53:55.0000000+00:00</time></trkpt><trkpt lat="39.47773866" lon="-0.38839183"><ele>17.8</ele><time>2022-11-02T16:53:56.0000000+00:00</time></trkpt><trkpt lat="39.47773917" lon="-0.38839057"><ele>17.8</ele><time>2022-11-02T16:53:57.0000000+00:00</time></trkpt><trkpt lat="39.47773959" lon="-0.38838973"><ele>17.8</ele><time>2022-11-02T16:53:58.0000000+00:00</time></trkpt><trkpt lat="39.47773925" lon="-0.38838898"><ele>18.0</ele><time>2022-11-02T16:53:59.0000000+00:00</time></trkpt><trkpt lat="39.47773892" lon="-0.38838873"><ele>18.0</ele><time>2022-11-02T16:54:00.0000000+00:00</time></trkpt><trkpt lat="39.47773917" lon="-0.38838923"><ele>18.0</ele><time>2022-11-02T16:54:01.0000000+00:00</time></trkpt><trkpt lat="39.47773933" lon="-0.38838982"><ele>18.0</ele><time>2022-11-02T16:54:02.0000000+00:00</time></trkpt><trkpt lat="39.47773925" lon="-0.3883894"><ele>17.8</ele><time>2022-11-02T16:54:03.0000000+00:00</time></trkpt><trkpt lat="39.47773925" lon="-0.3883894"><ele>17.8</ele><time>2022-11-02T16:54:04.0000000+00:00</time></trkpt><trkpt lat="39.47773925" lon="-0.3883894"><ele>17.8</ele><time>2022-11-02T16:54:05.0000000+00:00</time></trkpt><trkpt lat="39.47773925" lon="-0.3883894"><ele>17.8</ele><time>2022-11-02T16:54:06.0000000+00:00</time></trkpt><trkpt lat="39.47773925" lon="-0.3883894"><ele>18.0</ele><time>2022-11-02T16:54:07.0000000+00:00</time></trkpt><trkpt lat="39.47773925" lon="-0.3883894"><ele>18.0</ele><time>2022-11-02T16:54:08.0000000+00:00</time></trkpt><trkpt lat="39.47773925" lon="-0.3883894"><ele>18.2</ele><time>2022-11-02T16:54:09.0000000+00:00</time></trkpt><trkpt lat="39.47773925" lon="-0.3883894"><ele>18.2</ele><time>2022-11-02T16:54:10.0000000+00:00</time></trkpt><trkpt lat="39.47773925" lon="-0.3883894"><ele>18.2</ele><time>2022-11-02T16:54:11.0000000+00:00</time></trkpt><trkpt lat="39.47773925" lon="-0.3883894"><ele>18.2</ele><time>2022-11-02T16:54:12.0000000+00:00</time></trkpt><trkpt lat="39.47773925" lon="-0.3883894"><ele>18.2</ele><time>2022-11-02T16:54:13.0000000+00:00</time></trkpt><trkpt lat="39.47773925" lon="-0.3883894"><ele>18.4</ele><time>2022-11-02T16:54:14.0000000+00:00</time></trkpt><trkpt lat="39.47773925" lon="-0.3883894"><ele>18.4</ele><time>2022-11-02T16:54:15.0000000+00:00</time></trkpt><trkpt lat="39.47773925" lon="-0.3883894"><ele>18.2</ele><time>2022-11-02T16:54:16.0000000+00:00</time></trkpt><trkpt lat="39.47773925" lon="-0.3883894"><ele>18.2</ele><time>2022-11-02T16:54:17.0000000+00:00</time></trkpt><trkpt lat="39.47773925" lon="-0.3883894"><ele>18.2</ele><time>2022-11-02T16:54:18.0000000+00:00</time></trkpt><trkpt lat="39.47773933" lon="-0.3883894"><ele>18.2</ele><time>2022-11-02T16:54:19.0000000+00:00</time></trkpt><trkpt lat="39.4777395" lon="-0.38838923"><ele>18.2</ele><time>2022-11-02T16:54:20.0000000+00:00</time></trkpt><trkpt lat="39.47773959" lon="-0.38838923"><ele>18.2</ele><time>2022-11-02T16:54:21.0000000+00:00</time></trkpt><trkpt lat="39.47774428" lon="-0.38838152"><ele>18.2</ele><time>2022-11-02T16:54:22.0000000+00:00</time></trkpt><trkpt lat="39.47775099" lon="-0.38836341"><ele>18.2</ele><time>2022-11-02T16:54:23.0000000+00:00</time></trkpt><trkpt lat="39.47775928" lon="-0.38834363"><ele>18.2</ele><time>2022-11-02T16:54:24.0000000+00:00</time></trkpt><trkpt lat="39.47776658" lon="-0.38832318"><ele>18.2</ele><time>2022-11-02T16:54:25.0000000+00:00</time></trkpt><trkpt lat="39.47777337" lon="-0.38830658"><ele>18.2</ele><time>2022-11-02T16:54:26.0000000+00:00</time></trkpt><trkpt lat="39.47778083" lon="-0.38828915"><ele>18.2</ele><time>2022-11-02T16:54:27.0000000+00:00</time></trkpt><trkpt lat="39.47778912" lon="-0.38826929"><ele>18.2</ele><time>2022-11-02T16:54:28.0000000+00:00</time></trkpt><trkpt lat="39.47779482" lon="-0.38825671"><ele>18.2</ele><time>2022-11-02T16:54:29.0000000+00:00</time></trkpt><trkpt lat="39.4777991" lon="-0.38824397"><ele>18.2</ele><time>2022-11-02T16:54:30.0000000+00:00</time></trkpt><trkpt lat="39.47780337" lon="-0.38823249"><ele>18.2</ele><time>2022-11-02T16:54:31.0000000+00:00</time></trkpt><trkpt lat="39.47780337" lon="-0.38823031"><ele>18.2</ele><time>2022-11-02T16:54:32.0000000+00:00</time></trkpt><trkpt lat="39.47780455" lon="-0.38822746"><ele>18.2</ele><time>2022-11-02T16:54:33.0000000+00:00</time></trkpt><trkpt lat="39.47780538" lon="-0.38822771"><ele>18.2</ele><time>2022-11-02T16:54:34.0000000+00:00</time></trkpt><trkpt lat="39.47780631" lon="-0.38822771"><ele>18.2</ele><time>2022-11-02T16:54:35.0000000+00:00</time></trkpt><trkpt lat="39.47780731" lon="-0.38822738"><ele>18.4</ele><time>2022-11-02T16:54:36.0000000+00:00</time></trkpt><trkpt lat="39.47780748" lon="-0.38822712"><ele>18.4</ele><time>2022-11-02T16:54:37.0000000+00:00</time></trkpt><trkpt lat="39.47780731" lon="-0.38822654"><ele>18.4</ele><time>2022-11-02T16:54:38.0000000+00:00</time></trkpt><trkpt lat="39.47780605" lon="-0.3882262"><ele>18.4</ele><time>2022-11-02T16:54:39.0000000+00:00</time></trkpt><trkpt lat="39.47780513" lon="-0.38822679"><ele>18.4</ele><time>2022-11-02T16:54:40.0000000+00:00</time></trkpt><trkpt lat="39.47780463" lon="-0.38822939"><ele>18.4</ele><time>2022-11-02T16:54:41.0000000+00:00</time></trkpt><trkpt lat="39.47780371" lon="-0.38823383"><ele>18.4</ele><time>2022-11-02T16:54:42.0000000+00:00</time></trkpt><trkpt lat="39.47779801" lon="-0.38824288"><ele>18.4</ele><time>2022-11-02T16:54:43.0000000+00:00</time></trkpt><trkpt lat="39.4777913" lon="-0.38825319"><ele>18.4</ele><time>2022-11-02T16:54:44.0000000+00:00</time></trkpt><trkpt lat="39.47778678" lon="-0.38826325"><ele>18.4</ele><time>2022-11-02T16:54:45.0000000+00:00</time></trkpt><trkpt lat="39.47778887" lon="-0.38826669"><ele>18.4</ele><time>2022-11-02T16:54:46.0000000+00:00</time></trkpt><trkpt lat="39.47778661" lon="-0.38827641"><ele>18.4</ele><time>2022-11-02T16:54:47.0000000+00:00</time></trkpt><trkpt lat="39.47778569" lon="-0.38828865"><ele>18.4</ele><time>2022-11-02T16:54:48.0000000+00:00</time></trkpt><trkpt lat="39.47778158" lon="-0.38829862"><ele>18.4</ele><time>2022-11-02T16:54:49.0000000+00:00</time></trkpt><trkpt lat="39.4777789" lon="-0.38830801"><ele>18.4</ele><time>2022-11-02T16:54:50.0000000+00:00</time></trkpt><trkpt lat="39.47777479" lon="-0.38832167"><ele>18.4</ele><time>2022-11-02T16:54:51.0000000+00:00</time></trkpt><trkpt lat="39.47777236" lon="-0.38833207"><ele>18.4</ele><time>2022-11-02T16:54:52.0000000+00:00</time></trkpt><trkpt lat="39.47776934" lon="-0.38834833"><ele>18.4</ele><time>2022-11-02T16:54:53.0000000+00:00</time></trkpt><trkpt lat="39.47776649" lon="-0.38835897"><ele>18.4</ele><time>2022-11-02T16:54:54.0000000+00:00</time></trkpt><trkpt lat="39.47776163" lon="-0.38837171"><ele>18.4</ele><time>2022-11-02T16:54:55.0000000+00:00</time></trkpt><trkpt lat="39.47775618" lon="-0.38838437"><ele>18.4</ele><time>2022-11-02T16:54:56.0000000+00:00</time></trkpt><trkpt lat="39.47775367" lon="-0.3883961"><ele>18.4</ele><time>2022-11-02T16:54:57.0000000+00:00</time></trkpt><trkpt lat="39.47774998" lon="-0.38840784"><ele>18.4</ele><time>2022-11-02T16:54:58.0000000+00:00</time></trkpt><trkpt lat="39.47774855" lon="-0.38842242"><ele>18.4</ele><time>2022-11-02T16:54:59.0000000+00:00</time></trkpt><trkpt lat="39.47774705" lon="-0.38843324"><ele>18.4</ele><time>2022-11-02T16:55:00.0000000+00:00</time></trkpt><trkpt lat="39.47774512" lon="-0.38845017"><ele>18.4</ele><time>2022-11-02T16:55:01.0000000+00:00</time></trkpt><trkpt lat="39.47774336" lon="-0.38846383"><ele>18.4</ele><time>2022-11-02T16:55:02.0000000+00:00</time></trkpt><trkpt lat="39.47774286" lon="-0.38847473"><ele>18.4</ele><time>2022-11-02T16:55:03.0000000+00:00</time></trkpt><trkpt lat="39.47773841" lon="-0.38848696"><ele>18.4</ele><time>2022-11-02T16:55:04.0000000+00:00</time></trkpt><trkpt lat="39.47773263" lon="-0.38849794"><ele>18.4</ele><time>2022-11-02T16:55:05.0000000+00:00</time></trkpt><trkpt lat="39.47772768" lon="-0.3885101"><ele>18.4</ele><time>2022-11-02T16:55:06.0000000+00:00</time></trkpt><trkpt lat="39.47772852" lon="-0.38852016"><ele>18.4</ele><time>2022-11-02T16:55:07.0000000+00:00</time></trkpt><trkpt lat="39.47772785" lon="-0.38853181"><ele>18.4</ele><time>2022-11-02T16:55:08.0000000+00:00</time></trkpt><trkpt lat="39.47772609" lon="-0.38854111"><ele>18.4</ele><time>2022-11-02T16:55:09.0000000+00:00</time></trkpt><trkpt lat="39.47771897" lon="-0.38855343"><ele>18.4</ele><time>2022-11-02T16:55:10.0000000+00:00</time></trkpt><trkpt lat="39.47771142" lon="-0.3885686"><ele>18.4</ele><time>2022-11-02T16:55:11.0000000+00:00</time></trkpt><trkpt lat="39.47770623" lon="-0.38857958"><ele>18.4</ele><time>2022-11-02T16:55:12.0000000+00:00</time></trkpt><trkpt lat="39.47770866" lon="-0.38859031"><ele>18.4</ele><time>2022-11-02T16:55:13.0000000+00:00</time></trkpt><trkpt lat="39.47770539" lon="-0.38860138"><ele>18.4</ele><time>2022-11-02T16:55:14.0000000+00:00</time></trkpt><trkpt lat="39.47769424" lon="-0.38861034"><ele>18.6</ele><time>2022-11-02T16:55:15.0000000+00:00</time></trkpt><trkpt lat="39.47768745" lon="-0.38861772"><ele>18.6</ele><time>2022-11-02T16:55:16.0000000+00:00</time></trkpt><trkpt lat="39.47768527" lon="-0.38862627"><ele>18.6</ele><time>2022-11-02T16:55:17.0000000+00:00</time></trkpt><trkpt lat="39.47768158" lon="-0.3886292"><ele>18.8</ele><time>2022-11-02T16:55:18.0000000+00:00</time></trkpt><trkpt lat="39.47767932" lon="-0.38863063"><ele>18.8</ele><time>2022-11-02T16:55:19.0000000+00:00</time></trkpt><trkpt lat="39.47767739" lon="-0.38863289"><ele>19.0</ele><time>2022-11-02T16:55:20.0000000+00:00</time></trkpt><trkpt lat="39.47767186" lon="-0.38862954"><ele>19.0</ele><time>2022-11-02T16:55:21.0000000+00:00</time></trkpt><trkpt lat="39.47765803" lon="-0.38862451"><ele>19.0</ele><time>2022-11-02T16:55:22.0000000+00:00</time></trkpt><trkpt lat="39.47764755" lon="-0.38861864"><ele>19.0</ele><time>2022-11-02T16:55:23.0000000+00:00</time></trkpt><trkpt lat="39.47763775" lon="-0.38861219"><ele>19.0</ele><time>2022-11-02T16:55:24.0000000+00:00</time></trkpt><trkpt lat="39.47762685" lon="-0.38860892"><ele>19.0</ele><time>2022-11-02T16:55:25.0000000+00:00</time></trkpt><trkpt lat="39.47761662" lon="-0.38860716"><ele>19.0</ele><time>2022-11-02T16:55:26.0000000+00:00</time></trkpt><trkpt lat="39.47760833" lon="-0.3886054"><ele>19.0</ele><time>2022-11-02T16:55:27.0000000+00:00</time></trkpt><trkpt lat="39.47760162" lon="-0.38860381"><ele>19.0</ele><time>2022-11-02T16:55:28.0000000+00:00</time></trkpt><trkpt lat="39.47759533" lon="-0.38859953"><ele>19.0</ele><time>2022-11-02T16:55:29.0000000+00:00</time></trkpt><trkpt lat="39.47758905" lon="-0.38859635"><ele>19.0</ele><time>2022-11-02T16:55:30.0000000+00:00</time></trkpt><trkpt lat="39.47758016" lon="-0.38859509"><ele>19.0</ele><time>2022-11-02T16:55:31.0000000+00:00</time></trkpt><trkpt lat="39.47757513" lon="-0.38859501"><ele>19.0</ele><time>2022-11-02T16:55:32.0000000+00:00</time></trkpt><trkpt lat="39.47756658" lon="-0.38859199"><ele>19.0</ele><time>2022-11-02T16:55:33.0000000+00:00</time></trkpt><trkpt lat="39.47755619" lon="-0.3885821"><ele>19.0</ele><time>2022-11-02T16:55:34.0000000+00:00</time></trkpt><trkpt lat="39.47754982" lon="-0.38857481"><ele>19.0</ele><time>2022-11-02T16:55:35.0000000+00:00</time></trkpt><trkpt lat="39.47753876" lon="-0.38856475"><ele>19.0</ele><time>2022-11-02T16:55:36.0000000+00:00</time></trkpt><trkpt lat="39.47753415" lon="-0.38856265"><ele>19.0</ele><time>2022-11-02T16:55:37.0000000+00:00</time></trkpt><trkpt lat="39.47752652" lon="-0.38856307"><ele>19.2</ele><time>2022-11-02T16:55:38.0000000+00:00</time></trkpt><trkpt lat="39.47751805" lon="-0.38856047"><ele>19.2</ele><time>2022-11-02T16:55:39.0000000+00:00</time></trkpt><trkpt lat="39.4775121" lon="-0.38855754"><ele>19.0</ele><time>2022-11-02T16:55:40.0000000+00:00</time></trkpt><trkpt lat="39.47750724" lon="-0.38855645"><ele>19.0</ele><time>2022-11-02T16:55:41.0000000+00:00</time></trkpt><trkpt lat="39.4775007" lon="-0.38855335"><ele>19.0</ele><time>2022-11-02T16:55:42.0000000+00:00</time></trkpt><trkpt lat="39.47749056" lon="-0.38855058"><ele>19.0</ele><time>2022-11-02T16:55:43.0000000+00:00</time></trkpt><trkpt lat="39.47748059" lon="-0.38854815"><ele>19.0</ele><time>2022-11-02T16:55:44.0000000+00:00</time></trkpt><trkpt lat="39.47747011" lon="-0.38854304"><ele>19.0</ele><time>2022-11-02T16:55:45.0000000+00:00</time></trkpt><trkpt lat="39.47746097" lon="-0.38854027"><ele>19.0</ele><time>2022-11-02T16:55:46.0000000+00:00</time></trkpt><trkpt lat="39.47745318" lon="-0.38853793"><ele>19.0</ele><time>2022-11-02T16:55:47.0000000+00:00</time></trkpt><trkpt lat="39.47744094" lon="-0.38853558"><ele>19.2</ele><time>2022-11-02T16:55:48.0000000+00:00</time></trkpt><trkpt lat="39.47743021" lon="-0.38853315"><ele>19.2</ele><time>2022-11-02T16:55:49.0000000+00:00</time></trkpt><trkpt lat="39.47741931" lon="-0.38853088"><ele>19.2</ele><time>2022-11-02T16:55:50.0000000+00:00</time></trkpt><trkpt lat="39.47740624" lon="-0.38852711"><ele>19.2</ele><time>2022-11-02T16:55:51.0000000+00:00</time></trkpt><trkpt lat="39.47739366" lon="-0.38852242"><ele>19.2</ele><time>2022-11-02T16:55:52.0000000+00:00</time></trkpt><trkpt lat="39.47738377" lon="-0.38852057"><ele>19.2</ele><time>2022-11-02T16:55:53.0000000+00:00</time></trkpt><trkpt lat="39.47737229" lon="-0.38851672"><ele>19.2</ele><time>2022-11-02T16:55:54.0000000+00:00</time></trkpt><trkpt lat="39.4773603" lon="-0.38851119"><ele>19.2</ele><time>2022-11-02T16:55:55.0000000+00:00</time></trkpt><trkpt lat="39.47734832" lon="-0.38850624"><ele>19.2</ele><time>2022-11-02T16:55:56.0000000+00:00</time></trkpt><trkpt lat="39.47734262" lon="-0.38850389"><ele>19.2</ele><time>2022-11-02T16:55:57.0000000+00:00</time></trkpt><trkpt lat="39.4773391" lon="-0.38850457"><ele>19.2</ele><time>2022-11-02T16:55:58.0000000+00:00</time></trkpt><trkpt lat="39.47733248" lon="-0.3884982"><ele>19.4</ele><time>2022-11-02T16:55:59.0000000+00:00</time></trkpt><trkpt lat="39.47732569" lon="-0.38849333"><ele>19.4</ele><time>2022-11-02T16:56:00.0000000+00:00</time></trkpt><trkpt lat="39.47732317" lon="-0.38849124"><ele>19.4</ele><time>2022-11-02T16:56:01.0000000+00:00</time></trkpt><trkpt lat="39.47732066" lon="-0.38848998"><ele>19.4</ele><time>2022-11-02T16:56:02.0000000+00:00</time></trkpt><trkpt lat="39.4773215" lon="-0.38848998"><ele>19.4</ele><time>2022-11-02T16:56:03.0000000+00:00</time></trkpt><trkpt lat="39.47732024" lon="-0.38849057"><ele>19.4</ele><time>2022-11-02T16:56:04.0000000+00:00</time></trkpt><trkpt lat="39.47731823" lon="-0.38849074"><ele>19.4</ele><time>2022-11-02T16:56:05.0000000+00:00</time></trkpt><trkpt lat="39.47731756" lon="-0.3884883"><ele>19.4</ele><time>2022-11-02T16:56:06.0000000+00:00</time></trkpt><trkpt lat="39.47731655" lon="-0.38848495"><ele>19.4</ele><time>2022-11-02T16:56:07.0000000+00:00</time></trkpt><trkpt lat="39.47731513" lon="-0.38848386"><ele>19.4</ele><time>2022-11-02T16:56:08.0000000+00:00</time></trkpt><trkpt lat="39.47731471" lon="-0.38848495"><ele>19.4</ele><time>2022-11-02T16:56:09.0000000+00:00</time></trkpt><trkpt lat="39.47731538" lon="-0.38848638"><ele>19.4</ele><time>2022-11-02T16:56:10.0000000+00:00</time></trkpt><trkpt lat="39.47731504" lon="-0.38848864"><ele>19.4</ele><time>2022-11-02T16:56:11.0000000+00:00</time></trkpt><trkpt lat="39.47731588" lon="-0.3884909"><ele>19.4</ele><time>2022-11-02T16:56:12.0000000+00:00</time></trkpt><trkpt lat="39.47731395" lon="-0.38849074"><ele>19.4</ele><time>2022-11-02T16:56:13.0000000+00:00</time></trkpt><trkpt lat="39.47731219" lon="-0.3884904"><ele>19.4</ele><time>2022-11-02T16:56:14.0000000+00:00</time></trkpt><trkpt lat="39.47731043" lon="-0.38848881"><ele>19.4</ele><time>2022-11-02T16:56:15.0000000+00:00</time></trkpt><trkpt lat="39.47730817" lon="-0.38848998"><ele>19.2</ele><time>2022-11-02T16:56:16.0000000+00:00</time></trkpt><trkpt lat="39.47730758" lon="-0.38849224"><ele>19.2</ele><time>2022-11-02T16:56:17.0000000+00:00</time></trkpt><trkpt lat="39.47730658" lon="-0.38849384"><ele>19.2</ele><time>2022-11-02T16:56:18.0000000+00:00</time></trkpt><trkpt lat="39.47730616" lon="-0.38849375"><ele>19.2</ele><time>2022-11-02T16:56:19.0000000+00:00</time></trkpt><trkpt lat="39.47730507" lon="-0.38849266"><ele>19.2</ele><time>2022-11-02T16:56:20.0000000+00:00</time></trkpt><trkpt lat="39.47730331" lon="-0.38849157"><ele>19.2</ele><time>2022-11-02T16:56:21.0000000+00:00</time></trkpt><trkpt lat="39.47730088" lon="-0.38849157"><ele>19.2</ele><time>2022-11-02T16:56:22.0000000+00:00</time></trkpt><trkpt lat="39.47730012" lon="-0.38849115"><ele>19.2</ele><time>2022-11-02T16:56:23.0000000+00:00</time></trkpt><trkpt lat="39.47730012" lon="-0.38849115"><ele>19.2</ele><time>2022-11-02T16:56:24.0000000+00:00</time></trkpt><trkpt lat="39.47730012" lon="-0.38849115"><ele>19.2</ele><time>2022-11-02T16:56:25.0000000+00:00</time></trkpt><trkpt lat="39.47730012" lon="-0.38849115"><ele>19.2</ele><time>2022-11-02T16:56:26.0000000+00:00</time></trkpt><trkpt lat="39.47730012" lon="-0.38849115"><ele>19.2</ele><time>2022-11-02T16:56:27.0000000+00:00</time></trkpt><trkpt lat="39.47730012" lon="-0.38849115"><ele>19.2</ele><time>2022-11-02T16:56:28.0000000+00:00</time></trkpt><trkpt lat="39.47730012" lon="-0.38849115"><ele>19.2</ele><time>2022-11-02T16:56:29.0000000+00:00</time></trkpt><trkpt lat="39.47730012" lon="-0.38849115"><ele>19.2</ele><time>2022-11-02T16:56:30.0000000+00:00</time></trkpt><trkpt lat="39.47730012" lon="-0.38849115"><ele>19.2</ele><time>2022-11-02T16:56:31.0000000+00:00</time></trkpt><trkpt lat="39.47729627" lon="-0.38849023"><ele>19.2</ele><time>2022-11-02T16:56:32.0000000+00:00</time></trkpt><trkpt lat="39.47728529" lon="-0.38848696"><ele>19.2</ele><time>2022-11-02T16:56:33.0000000+00:00</time></trkpt><trkpt lat="39.47727431" lon="-0.38848504"><ele>19.0</ele><time>2022-11-02T16:56:34.0000000+00:00</time></trkpt><trkpt lat="39.47726282" lon="-0.38848294"><ele>19.0</ele><time>2022-11-02T16:56:35.0000000+00:00</time></trkpt><trkpt lat="39.47725712" lon="-0.38848294"><ele>19.2</ele><time>2022-11-02T16:56:36.0000000+00:00</time></trkpt><trkpt lat="39.47725251" lon="-0.38848294"><ele>19.2</ele><time>2022-11-02T16:56:37.0000000+00:00</time></trkpt><trkpt lat="39.47724841" lon="-0.38848361"><ele>19.2</ele><time>2022-11-02T16:56:38.0000000+00:00</time></trkpt><trkpt lat="39.47724405" lon="-0.38848361"><ele>19.2</ele><time>2022-11-02T16:56:39.0000000+00:00</time></trkpt><trkpt lat="39.47724028" lon="-0.38848504"><ele>19.2</ele><time>2022-11-02T16:56:40.0000000+00:00</time></trkpt><trkpt lat="39.47723634" lon="-0.38848478"><ele>19.2</ele><time>2022-11-02T16:56:41.0000000+00:00</time></trkpt><trkpt lat="39.47723575" lon="-0.38848537"><ele>19.2</ele><time>2022-11-02T16:56:42.0000000+00:00</time></trkpt><trkpt lat="39.47723173" lon="-0.38848495"><ele>19.2</ele><time>2022-11-02T16:56:43.0000000+00:00</time></trkpt><trkpt lat="39.47723064" lon="-0.38848269"><ele>19.2</ele><time>2022-11-02T16:56:44.0000000+00:00</time></trkpt><trkpt lat="39.47722988" lon="-0.38848101"><ele>19.2</ele><time>2022-11-02T16:56:45.0000000+00:00</time></trkpt><trkpt lat="39.47722913" lon="-0.38848026"><ele>19.2</ele><time>2022-11-02T16:56:46.0000000+00:00</time></trkpt><trkpt lat="39.47722829" lon="-0.38848001"><ele>19.2</ele><time>2022-11-02T16:56:47.0000000+00:00</time></trkpt><trkpt lat="39.47722829" lon="-0.38848001"><ele>19.2</ele><time>2022-11-02T16:56:48.0000000+00:00</time></trkpt><trkpt lat="39.47722829" lon="-0.38848001"><ele>19.2</ele><time>2022-11-02T16:56:49.0000000+00:00</time></trkpt><trkpt lat="39.47722829" lon="-0.38848001"><ele>19.2</ele><time>2022-11-02T16:56:50.0000000+00:00</time></trkpt><trkpt lat="39.47722829" lon="-0.38848001"><ele>19.2</ele><time>2022-11-02T16:56:51.0000000+00:00</time></trkpt><trkpt lat="39.47722829" lon="-0.38848001"><ele>19.2</ele><time>2022-11-02T16:56:52.0000000+00:00</time></trkpt><trkpt lat="39.47722829" lon="-0.38848001"><ele>19.2</ele><time>2022-11-02T16:56:53.0000000+00:00</time></trkpt><trkpt lat="39.47722829" lon="-0.38848001"><ele>19.2</ele><time>2022-11-02T16:56:54.0000000+00:00</time></trkpt><trkpt lat="39.47722829" lon="-0.38848001"><ele>19.2</ele><time>2022-11-02T16:56:55.0000000+00:00</time></trkpt><trkpt lat="39.47722829" lon="-0.38848001"><ele>19.2</ele><time>2022-11-02T16:56:56.0000000+00:00</time></trkpt><trkpt lat="39.47722829" lon="-0.38848001"><ele>19.2</ele><time>2022-11-02T16:56:57.0000000+00:00</time></trkpt><trkpt lat="39.47722829" lon="-0.38848001"><ele>19.2</ele><time>2022-11-02T16:56:58.0000000+00:00</time></trkpt><trkpt lat="39.47722829" lon="-0.38848001"><ele>19.2</ele><time>2022-11-02T16:56:59.0000000+00:00</time></trkpt><trkpt lat="39.47722829" lon="-0.38848001"><ele>19.2</ele><time>2022-11-02T16:57:00.0000000+00:00</time></trkpt><trkpt lat="39.47722829" lon="-0.38848001"><ele>19.2</ele><time>2022-11-02T16:57:01.0000000+00:00</time></trkpt><trkpt lat="39.47722829" lon="-0.38848001"><ele>19.2</ele><time>2022-11-02T16:57:02.0000000+00:00</time></trkpt><trkpt lat="39.47722829" lon="-0.38848001"><ele>19.0</ele><time>2022-11-02T16:57:03.0000000+00:00</time></trkpt><trkpt lat="39.47722812" lon="-0.38848001"><ele>19.0</ele><time>2022-11-02T16:57:04.0000000+00:00</time></trkpt><trkpt lat="39.47722779" lon="-0.38847984"><ele>19.0</ele><time>2022-11-02T16:57:05.0000000+00:00</time></trkpt><trkpt lat="39.4772272" lon="-0.38847816"><ele>19.0</ele><time>2022-11-02T16:57:06.0000000+00:00</time></trkpt><trkpt lat="39.47722712" lon="-0.38847791"><ele>18.8</ele><time>2022-11-02T16:57:07.0000000+00:00</time></trkpt><trkpt lat="39.47722712" lon="-0.38847732"><ele>18.8</ele><time>2022-11-02T16:57:08.0000000+00:00</time></trkpt><trkpt lat="39.47722125" lon="-0.38847582"><ele>18.8</ele><time>2022-11-02T16:57:09.0000000+00:00</time></trkpt><trkpt lat="39.477207" lon="-0.38847129"><ele>18.8</ele><time>2022-11-02T16:57:10.0000000+00:00</time></trkpt><trkpt lat="39.47719275" lon="-0.38846584"><ele>18.8</ele><time>2022-11-02T16:57:11.0000000+00:00</time></trkpt><trkpt lat="39.47717842" lon="-0.38845821"><ele>18.8</ele><time>2022-11-02T16:57:12.0000000+00:00</time></trkpt><trkpt lat="39.47716635" lon="-0.38844531"><ele>18.8</ele><time>2022-11-02T16:57:13.0000000+00:00</time></trkpt><trkpt lat="39.4771609" lon="-0.38843315"><ele>18.8</ele><time>2022-11-02T16:57:14.0000000+00:00</time></trkpt><trkpt lat="39.47715302" lon="-0.38842435"><ele>19.0</ele><time>2022-11-02T16:57:15.0000000+00:00</time></trkpt><trkpt lat="39.4771443" lon="-0.38841127"><ele>18.8</ele><time>2022-11-02T16:57:16.0000000+00:00</time></trkpt><trkpt lat="39.47713584" lon="-0.38839703"><ele>18.8</ele><time>2022-11-02T16:57:17.0000000+00:00</time></trkpt><trkpt lat="39.47713257" lon="-0.38838521"><ele>18.6</ele><time>2022-11-02T16:57:18.0000000+00:00</time></trkpt><trkpt lat="39.47713911" lon="-0.38837716"><ele>18.6</ele><time>2022-11-02T16:57:19.0000000+00:00</time></trkpt><trkpt lat="39.47714623" lon="-0.38837037"><ele>18.6</ele><time>2022-11-02T16:57:20.0000000+00:00</time></trkpt><trkpt lat="39.47715126" lon="-0.38835897"><ele>18.6</ele><time>2022-11-02T16:57:21.0000000+00:00</time></trkpt><trkpt lat="39.47715445" lon="-0.38834715"><ele>18.6</ele><time>2022-11-02T16:57:22.0000000+00:00</time></trkpt><trkpt lat="39.47715797" lon="-0.38833533"><ele>18.6</ele><time>2022-11-02T16:57:23.0000000+00:00</time></trkpt><trkpt lat="39.47715906" lon="-0.3883231"><ele>18.6</ele><time>2022-11-02T16:57:24.0000000+00:00</time></trkpt><trkpt lat="39.47715738" lon="-0.38831346"><ele>18.6</ele><time>2022-11-02T16:57:25.0000000+00:00</time></trkpt><trkpt lat="39.47715126" lon="-0.38830684"><ele>18.4</ele><time>2022-11-02T16:57:26.0000000+00:00</time></trkpt><trkpt lat="39.47714187" lon="-0.38830432"><ele>18.2</ele><time>2022-11-02T16:57:27.0000000+00:00</time></trkpt><trkpt lat="39.47713668" lon="-0.3883008"><ele>18.2</ele><time>2022-11-02T16:57:28.0000000+00:00</time></trkpt><trkpt lat="39.47713601" lon="-0.38829477"><ele>18.0</ele><time>2022-11-02T16:57:29.0000000+00:00</time></trkpt><trkpt lat="39.47714204" lon="-0.38828244"><ele>18.0</ele><time>2022-11-02T16:57:30.0000000+00:00</time></trkpt><trkpt lat="39.4771433" lon="-0.38827599"><ele>18.0</ele><time>2022-11-02T16:57:31.0000000+00:00</time></trkpt><trkpt lat="39.47714548" lon="-0.38826459"><ele>18.0</ele><time>2022-11-02T16:57:32.0000000+00:00</time></trkpt><trkpt lat="39.47715201" lon="-0.3882511"><ele>18.0</ele><time>2022-11-02T16:57:33.0000000+00:00</time></trkpt><trkpt lat="39.47715285" lon="-0.38823618"><ele>18.0</ele><time>2022-11-02T16:57:34.0000000+00:00</time></trkpt><trkpt lat="39.47715227" lon="-0.38822863"><ele>18.0</ele><time>2022-11-02T16:57:35.0000000+00:00</time></trkpt><trkpt lat="39.47715411" lon="-0.38820843"><ele>18.0</ele><time>2022-11-02T16:57:36.0000000+00:00</time></trkpt><trkpt lat="39.47716408" lon="-0.3881879"><ele>18.0</ele><time>2022-11-02T16:57:37.0000000+00:00</time></trkpt><trkpt lat="39.47717607" lon="-0.38816711"><ele>18.0</ele><time>2022-11-02T16:57:38.0000000+00:00</time></trkpt><trkpt lat="39.47718051" lon="-0.38815445"><ele>18.0</ele><time>2022-11-02T16:57:39.0000000+00:00</time></trkpt><trkpt lat="39.47718965" lon="-0.38814163"><ele>18.0</ele><time>2022-11-02T16:57:40.0000000+00:00</time></trkpt><trkpt lat="39.4771951" lon="-0.38813425"><ele>18.0</ele><time>2022-11-02T16:57:41.0000000+00:00</time></trkpt><trkpt lat="39.47719434" lon="-0.3881314"><ele>18.0</ele><time>2022-11-02T16:57:42.0000000+00:00</time></trkpt><trkpt lat="39.47719954" lon="-0.38813115"><ele>18.0</ele><time>2022-11-02T16:57:43.0000000+00:00</time></trkpt><trkpt lat="39.47720172" lon="-0.38813098"><ele>18.0</ele><time>2022-11-02T16:57:44.0000000+00:00</time></trkpt><trkpt lat="39.47721287" lon="-0.38812612"><ele>18.0</ele><time>2022-11-02T16:57:45.0000000+00:00</time></trkpt><trkpt lat="39.47722527" lon="-0.38811305"><ele>17.8</ele><time>2022-11-02T16:57:46.0000000+00:00</time></trkpt><trkpt lat="39.47723659" lon="-0.38809746"><ele>17.8</ele><time>2022-11-02T16:57:47.0000000+00:00</time></trkpt><trkpt lat="39.47724505" lon="-0.38807851"><ele>17.8</ele><time>2022-11-02T16:57:48.0000000+00:00</time></trkpt><trkpt lat="39.4772479" lon="-0.38806058"><ele>17.6</ele><time>2022-11-02T16:57:49.0000000+00:00</time></trkpt><trkpt lat="39.47725427" lon="-0.38804473"><ele>17.6</ele><time>2022-11-02T16:57:50.0000000+00:00</time></trkpt><trkpt lat="39.47725436" lon="-0.38803367"><ele>17.6</ele><time>2022-11-02T16:57:51.0000000+00:00</time></trkpt><trkpt lat="39.47725754" lon="-0.38802118"><ele>17.6</ele><time>2022-11-02T16:57:52.0000000+00:00</time></trkpt><trkpt lat="39.47726081" lon="-0.38800567"><ele>17.6</ele><time>2022-11-02T16:57:53.0000000+00:00</time></trkpt><trkpt lat="39.47726945" lon="-0.38798908"><ele>17.6</ele><time>2022-11-02T16:57:54.0000000+00:00</time></trkpt><trkpt lat="39.47727665" lon="-0.38798044"><ele>17.6</ele><time>2022-11-02T16:57:55.0000000+00:00</time></trkpt><trkpt lat="39.47728453" lon="-0.38796972"><ele>17.6</ele><time>2022-11-02T16:57:56.0000000+00:00</time></trkpt><trkpt lat="39.47729333" lon="-0.38795262"><ele>17.6</ele><time>2022-11-02T16:57:57.0000000+00:00</time></trkpt><trkpt lat="39.47729736" lon="-0.38793862"><ele>17.6</ele><time>2022-11-02T16:57:58.0000000+00:00</time></trkpt><trkpt lat="39.47730172" lon="-0.38792186"><ele>17.6</ele><time>2022-11-02T16:57:59.0000000+00:00</time></trkpt><trkpt lat="39.47730658" lon="-0.38790769"><ele>17.4</ele><time>2022-11-02T16:58:00.0000000+00:00</time></trkpt><trkpt lat="39.47730809" lon="-0.38789612"><ele>17.4</ele><time>2022-11-02T16:58:01.0000000+00:00</time></trkpt><trkpt lat="39.47731328" lon="-0.38788506"><ele>17.4</ele><time>2022-11-02T16:58:02.0000000+00:00</time></trkpt><trkpt lat="39.47731622" lon="-0.38787408"><ele>17.6</ele><time>2022-11-02T16:58:03.0000000+00:00</time></trkpt><trkpt lat="39.47731957" lon="-0.38786368"><ele>17.6</ele><time>2022-11-02T16:58:04.0000000+00:00</time></trkpt><trkpt lat="39.47732544" lon="-0.38785514"><ele>17.6</ele><time>2022-11-02T16:58:05.0000000+00:00</time></trkpt><trkpt lat="39.47732661" lon="-0.38784566"><ele>17.6</ele><time>2022-11-02T16:58:06.0000000+00:00</time></trkpt><trkpt lat="39.47732611" lon="-0.38783502"><ele>17.6</ele><time>2022-11-02T16:58:07.0000000+00:00</time></trkpt><trkpt lat="39.47732368" lon="-0.38782345"><ele>17.6</ele><time>2022-11-02T16:58:08.0000000+00:00</time></trkpt><trkpt lat="39.47732468" lon="-0.38781205"><ele>17.6</ele><time>2022-11-02T16:58:09.0000000+00:00</time></trkpt><trkpt lat="39.47732829" lon="-0.38780853"><ele>17.6</ele><time>2022-11-02T16:58:10.0000000+00:00</time></trkpt><trkpt lat="39.47733474" lon="-0.38780736"><ele>17.8</ele><time>2022-11-02T16:58:11.0000000+00:00</time></trkpt><trkpt lat="39.47734312" lon="-0.38780996"><ele>17.8</ele><time>2022-11-02T16:58:12.0000000+00:00</time></trkpt><trkpt lat="39.47735276" lon="-0.38781398"><ele>17.8</ele><time>2022-11-02T16:58:13.0000000+00:00</time></trkpt><trkpt lat="39.47735544" lon="-0.38781993"><ele>17.8</ele><time>2022-11-02T16:58:14.0000000+00:00</time></trkpt><trkpt lat="39.47736207" lon="-0.38782362"><ele>17.8</ele><time>2022-11-02T16:58:15.0000000+00:00</time></trkpt><trkpt lat="39.47737212" lon="-0.38782169"><ele>17.8</ele><time>2022-11-02T16:58:16.0000000+00:00</time></trkpt><trkpt lat="39.47737933" lon="-0.38782136"><ele>17.8</ele><time>2022-11-02T16:58:17.0000000+00:00</time></trkpt><trkpt lat="39.47738579" lon="-0.38782035"><ele>17.6</ele><time>2022-11-02T16:58:18.0000000+00:00</time></trkpt><trkpt lat="39.47739526" lon="-0.38782395"><ele>17.6</ele><time>2022-11-02T16:58:19.0000000+00:00</time></trkpt><trkpt lat="39.47740607" lon="-0.38782999"><ele>17.6</ele><time>2022-11-02T16:58:20.0000000+00:00</time></trkpt><trkpt lat="39.47742065" lon="-0.38784709"><ele>17.6</ele><time>2022-11-02T16:58:21.0000000+00:00</time></trkpt><trkpt lat="39.47743381" lon="-0.3878574"><ele>17.6</ele><time>2022-11-02T16:58:22.0000000+00:00</time></trkpt><trkpt lat="39.47744697" lon="-0.38786536"><ele>18.2</ele><time>2022-11-02T16:58:23.0000000+00:00</time></trkpt><trkpt lat="39.47745921" lon="-0.38786838"><ele>18.2</ele><time>2022-11-02T16:58:24.0000000+00:00</time></trkpt><trkpt lat="39.4774717" lon="-0.38787374"><ele>18.2</ele><time>2022-11-02T16:58:25.0000000+00:00</time></trkpt><trkpt lat="39.4774857" lon="-0.38788137"><ele>18.2</ele><time>2022-11-02T16:58:26.0000000+00:00</time></trkpt><trkpt lat="39.47749877" lon="-0.38788648"><ele>18.2</ele><time>2022-11-02T16:58:27.0000000+00:00</time></trkpt><trkpt lat="39.47751034" lon="-0.38789487"><ele>18.2</ele><time>2022-11-02T16:58:28.0000000+00:00</time></trkpt><trkpt lat="39.47752199" lon="-0.38790283"><ele>18.2</ele><time>2022-11-02T16:58:29.0000000+00:00</time></trkpt><trkpt lat="39.47753599" lon="-0.38790627"><ele>18.4</ele><time>2022-11-02T16:58:30.0000000+00:00</time></trkpt><trkpt lat="39.47754362" lon="-0.38791523"><ele>18.4</ele><time>2022-11-02T16:58:31.0000000+00:00</time></trkpt><trkpt lat="39.47755879" lon="-0.38792093"><ele>18.4</ele><time>2022-11-02T16:58:32.0000000+00:00</time></trkpt><trkpt lat="39.47756927" lon="-0.38792563"><ele>18.4</ele><time>2022-11-02T16:58:33.0000000+00:00</time></trkpt><trkpt lat="39.47757924" lon="-0.3879325"><ele>18.4</ele><time>2022-11-02T16:58:34.0000000+00:00</time></trkpt><trkpt lat="39.47759131" lon="-0.38793904"><ele>18.4</ele><time>2022-11-02T16:58:35.0000000+00:00</time></trkpt><trkpt lat="39.47759894" lon="-0.387947"><ele>18.2</ele><time>2022-11-02T16:58:36.0000000+00:00</time></trkpt><trkpt lat="39.47760472" lon="-0.38794834"><ele>18.2</ele><time>2022-11-02T16:58:37.0000000+00:00</time></trkpt><trkpt lat="39.47761252" lon="-0.38795211"><ele>18.2</ele><time>2022-11-02T16:58:38.0000000+00:00</time></trkpt><trkpt lat="39.47762216" lon="-0.38795664"><ele>18.2</ele><time>2022-11-02T16:58:39.0000000+00:00</time></trkpt><trkpt lat="39.47763389" lon="-0.38796041"><ele>18.2</ele><time>2022-11-02T16:58:40.0000000+00:00</time></trkpt><trkpt lat="39.47764353" lon="-0.38796586"><ele>18.2</ele><time>2022-11-02T16:58:41.0000000+00:00</time></trkpt><trkpt lat="39.47765845" lon="-0.38797139"><ele>18.2</ele><time>2022-11-02T16:58:42.0000000+00:00</time></trkpt><trkpt lat="39.47766834" lon="-0.387976"><ele>18.2</ele><time>2022-11-02T16:58:43.0000000+00:00</time></trkpt><trkpt lat="39.47767806" lon="-0.38798271"><ele>18.2</ele><time>2022-11-02T16:58:44.0000000+00:00</time></trkpt><trkpt lat="39.47768971" lon="-0.38799109"><ele>18.2</ele><time>2022-11-02T16:58:45.0000000+00:00</time></trkpt><trkpt lat="39.47770027" lon="-0.38799687"><ele>18.2</ele><time>2022-11-02T16:58:46.0000000+00:00</time></trkpt><trkpt lat="39.47770941" lon="-0.3880014"><ele>18.2</ele><time>2022-11-02T16:58:47.0000000+00:00</time></trkpt><trkpt lat="39.4777188" lon="-0.38800777"><ele>18.2</ele><time>2022-11-02T16:58:48.0000000+00:00</time></trkpt><trkpt lat="39.47772735" lon="-0.3880138"><ele>18.2</ele><time>2022-11-02T16:58:49.0000000+00:00</time></trkpt><trkpt lat="39.47773716" lon="-0.38801867"><ele>18.2</ele><time>2022-11-02T16:58:50.0000000+00:00</time></trkpt><trkpt lat="39.47774713" lon="-0.38802344"><ele>18.2</ele><time>2022-11-02T16:58:51.0000000+00:00</time></trkpt><trkpt lat="39.47775627" lon="-0.38803199"><ele>18.2</ele><time>2022-11-02T16:58:52.0000000+00:00</time></trkpt><trkpt lat="39.47776674" lon="-0.38803568"><ele>18.2</ele><time>2022-11-02T16:58:53.0000000+00:00</time></trkpt><trkpt lat="39.47777865" lon="-0.3880392"><ele>18.2</ele><time>2022-11-02T16:58:54.0000000+00:00</time></trkpt><trkpt lat="39.47778602" lon="-0.38804121"><ele>18.2</ele><time>2022-11-02T16:58:55.0000000+00:00</time></trkpt><trkpt lat="39.47779407" lon="-0.38804113"><ele>18.2</ele><time>2022-11-02T16:58:56.0000000+00:00</time></trkpt><trkpt lat="39.47780186" lon="-0.38804147"><ele>18.2</ele><time>2022-11-02T16:58:57.0000000+00:00</time></trkpt><trkpt lat="39.47781066" lon="-0.38803937"><ele>18.2</ele><time>2022-11-02T16:58:58.0000000+00:00</time></trkpt><trkpt lat="39.47782299" lon="-0.38804448"><ele>18.2</ele><time>2022-11-02T16:58:59.0000000+00:00</time></trkpt><trkpt lat="39.47783648" lon="-0.38805664"><ele>18.2</ele><time>2022-11-02T16:59:00.0000000+00:00</time></trkpt><trkpt lat="39.47784537" lon="-0.38806426"><ele>18.2</ele><time>2022-11-02T16:59:01.0000000+00:00</time></trkpt><trkpt lat="39.47785207" lon="-0.38806795"><ele>18.2</ele><time>2022-11-02T16:59:02.0000000+00:00</time></trkpt><trkpt lat="39.47786062" lon="-0.38807198"><ele>18.2</ele><time>2022-11-02T16:59:03.0000000+00:00</time></trkpt><trkpt lat="39.47787328" lon="-0.3880656"><ele>18.2</ele><time>2022-11-02T16:59:04.0000000+00:00</time></trkpt><trkpt lat="39.47788761" lon="-0.38806032"><ele>18.2</ele><time>2022-11-02T16:59:05.0000000+00:00</time></trkpt><trkpt lat="39.47790504" lon="-0.3880568"><ele>18.2</ele><time>2022-11-02T16:59:06.0000000+00:00</time></trkpt><trkpt lat="39.47791519" lon="-0.38805722"><ele>18.2</ele><time>2022-11-02T16:59:07.0000000+00:00</time></trkpt><trkpt lat="39.47792105" lon="-0.38805848"><ele>18.2</ele><time>2022-11-02T16:59:08.0000000+00:00</time></trkpt><trkpt lat="39.47792474" lon="-0.3880625"><ele>18.2</ele><time>2022-11-02T16:59:09.0000000+00:00</time></trkpt><trkpt lat="39.47792717" lon="-0.38806426"><ele>18.4</ele><time>2022-11-02T16:59:10.0000000+00:00</time></trkpt><trkpt lat="39.47792818" lon="-0.38806477"><ele>18.4</ele><time>2022-11-02T16:59:11.0000000+00:00</time></trkpt><trkpt lat="39.4779286" lon="-0.38806493"><ele>18.6</ele><time>2022-11-02T16:59:12.0000000+00:00</time></trkpt><trkpt lat="39.47792918" lon="-0.38806477"><ele>18.6</ele><time>2022-11-02T16:59:13.0000000+00:00</time></trkpt><trkpt lat="39.47793036" lon="-0.3880651"><ele>18.6</ele><time>2022-11-02T16:59:14.0000000+00:00</time></trkpt><trkpt lat="39.47792675" lon="-0.38806837"><ele>18.4</ele><time>2022-11-02T16:59:15.0000000+00:00</time></trkpt><trkpt lat="39.47792105" lon="-0.38807298"><ele>18.4</ele><time>2022-11-02T16:59:16.0000000+00:00</time></trkpt><trkpt lat="39.47791611" lon="-0.38807969"><ele>18.4</ele><time>2022-11-02T16:59:17.0000000+00:00</time></trkpt><trkpt lat="39.47791125" lon="-0.38808899"><ele>18.4</ele><time>2022-11-02T16:59:18.0000000+00:00</time></trkpt><trkpt lat="39.4779058" lon="-0.38810089"><ele>18.4</ele><time>2022-11-02T16:59:19.0000000+00:00</time></trkpt><trkpt lat="39.47790203" lon="-0.38811548"><ele>18.4</ele><time>2022-11-02T16:59:20.0000000+00:00</time></trkpt><trkpt lat="39.47789775" lon="-0.38812897"><ele>18.4</ele><time>2022-11-02T16:59:21.0000000+00:00</time></trkpt><trkpt lat="39.47789306" lon="-0.3881423"><ele>18.4</ele><time>2022-11-02T16:59:22.0000000+00:00</time></trkpt><trkpt lat="39.47788979" lon="-0.38815311"><ele>18.4</ele><time>2022-11-02T16:59:23.0000000+00:00</time></trkpt><trkpt lat="39.47788518" lon="-0.38816552"><ele>18.4</ele><time>2022-11-02T16:59:24.0000000+00:00</time></trkpt><trkpt lat="39.4778825" lon="-0.38818069"><ele>18.4</ele><time>2022-11-02T16:59:25.0000000+00:00</time></trkpt><trkpt lat="39.47788082" lon="-0.38819569"><ele>18.4</ele><time>2022-11-02T16:59:26.0000000+00:00</time></trkpt><trkpt lat="39.47787797" lon="-0.38821078"><ele>18.4</ele><time>2022-11-02T16:59:27.0000000+00:00</time></trkpt><trkpt lat="39.4778747" lon="-0.38822612"><ele>18.4</ele><time>2022-11-02T16:59:28.0000000+00:00</time></trkpt><trkpt lat="39.47787487" lon="-0.38824104"><ele>18.4</ele><time>2022-11-02T16:59:29.0000000+00:00</time></trkpt><trkpt lat="39.47787168" lon="-0.38825646"><ele>18.4</ele><time>2022-11-02T16:59:30.0000000+00:00</time></trkpt><trkpt lat="39.47787093" lon="-0.3882692"><ele>18.4</ele><time>2022-11-02T16:59:31.0000000+00:00</time></trkpt><trkpt lat="39.47786892" lon="-0.38828253"><ele>18.4</ele><time>2022-11-02T16:59:32.0000000+00:00</time></trkpt><trkpt lat="39.47786724" lon="-0.3882951"><ele>18.4</ele><time>2022-11-02T16:59:33.0000000+00:00</time></trkpt><trkpt lat="39.47786263" lon="-0.38830935"><ele>18.4</ele><time>2022-11-02T16:59:34.0000000+00:00</time></trkpt><trkpt lat="39.47786003" lon="-0.38831907"><ele>18.4</ele><time>2022-11-02T16:59:35.0000000+00:00</time></trkpt><trkpt lat="39.47785886" lon="-0.38832679"><ele>18.4</ele><time>2022-11-02T16:59:36.0000000+00:00</time></trkpt><trkpt lat="39.47785685" lon="-0.38834028"><ele>18.4</ele><time>2022-11-02T16:59:37.0000000+00:00</time></trkpt><trkpt lat="39.477855" lon="-0.38835403"><ele>18.4</ele><time>2022-11-02T16:59:38.0000000+00:00</time></trkpt><trkpt lat="39.47785048" lon="-0.38836769"><ele>18.8</ele><time>2022-11-02T16:59:39.0000000+00:00</time></trkpt><trkpt lat="39.47784612" lon="-0.38838219"><ele>19.0</ele><time>2022-11-02T16:59:40.0000000+00:00</time></trkpt><trkpt lat="39.47784042" lon="-0.38839451"><ele>19.0</ele><time>2022-11-02T16:59:41.0000000+00:00</time></trkpt><trkpt lat="39.4778374" lon="-0.3884065"><ele>19.2</ele><time>2022-11-02T16:59:42.0000000+00:00</time></trkpt><trkpt lat="39.47783288" lon="-0.38841781"><ele>19.2</ele><time>2022-11-02T16:59:43.0000000+00:00</time></trkpt><trkpt lat="39.47782818" lon="-0.38842997"><ele>19.2</ele><time>2022-11-02T16:59:44.0000000+00:00</time></trkpt><trkpt lat="39.47782282" lon="-0.38844287"><ele>19.2</ele><time>2022-11-02T16:59:45.0000000+00:00</time></trkpt><trkpt lat="39.47781863" lon="-0.38845478"><ele>19.2</ele><time>2022-11-02T16:59:46.0000000+00:00</time></trkpt><trkpt lat="39.47781427" lon="-0.38846576"><ele>19.2</ele><time>2022-11-02T16:59:47.0000000+00:00</time></trkpt><trkpt lat="39.47780823" lon="-0.3884821"><ele>19.2</ele><time>2022-11-02T16:59:48.0000000+00:00</time></trkpt><trkpt lat="39.47780404" lon="-0.38849509"><ele>19.2</ele><time>2022-11-02T16:59:49.0000000+00:00</time></trkpt><trkpt lat="39.47780136" lon="-0.38850666"><ele>19.2</ele><time>2022-11-02T16:59:50.0000000+00:00</time></trkpt><trkpt lat="39.47779801" lon="-0.38851856"><ele>19.2</ele><time>2022-11-02T16:59:51.0000000+00:00</time></trkpt><trkpt lat="39.47779407" lon="-0.38853306"><ele>19.2</ele><time>2022-11-02T16:59:52.0000000+00:00</time></trkpt><trkpt lat="39.4777908" lon="-0.38854681"><ele>19.2</ele><time>2022-11-02T16:59:53.0000000+00:00</time></trkpt><trkpt lat="39.47778879" lon="-0.38855821"><ele>19.2</ele><time>2022-11-02T16:59:54.0000000+00:00</time></trkpt><trkpt lat="39.47778602" lon="-0.388566"><ele>19.2</ele><time>2022-11-02T16:59:55.0000000+00:00</time></trkpt><trkpt lat="39.4777799" lon="-0.38857715"><ele>19.2</ele><time>2022-11-02T16:59:56.0000000+00:00</time></trkpt><trkpt lat="39.47777529" lon="-0.38858872"><ele>19.2</ele><time>2022-11-02T16:59:57.0000000+00:00</time></trkpt><trkpt lat="39.47777177" lon="-0.3885997"><ele>19.2</ele><time>2022-11-02T16:59:58.0000000+00:00</time></trkpt><trkpt lat="39.47776532" lon="-0.3886168"><ele>19.2</ele><time>2022-11-02T16:59:59.0000000+00:00</time></trkpt><trkpt lat="39.47776012" lon="-0.38863348"><ele>19.2</ele><time>2022-11-02T17:00:00.0000000+00:00</time></trkpt><trkpt lat="39.47775643" lon="-0.38865091"><ele>19.2</ele><time>2022-11-02T17:00:01.0000000+00:00</time></trkpt><trkpt lat="39.47775509" lon="-0.38866877"><ele>19.2</ele><time>2022-11-02T17:00:02.0000000+00:00</time></trkpt><trkpt lat="39.4777556" lon="-0.38868067"><ele>19.2</ele><time>2022-11-02T17:00:03.0000000+00:00</time></trkpt><trkpt lat="39.47775358" lon="-0.38869592"><ele>19.2</ele><time>2022-11-02T17:00:04.0000000+00:00</time></trkpt><trkpt lat="39.47775132" lon="-0.38871034"><ele>19.4</ele><time>2022-11-02T17:00:05.0000000+00:00</time></trkpt><trkpt lat="39.47774973" lon="-0.38872216"><ele>19.4</ele><time>2022-11-02T17:00:06.0000000+00:00</time></trkpt><trkpt lat="39.47774889" lon="-0.38873381"><ele>19.4</ele><time>2022-11-02T17:00:07.0000000+00:00</time></trkpt><trkpt lat="39.47774487" lon="-0.38874219"><ele>19.4</ele><time>2022-11-02T17:00:08.0000000+00:00</time></trkpt><trkpt lat="39.47774093" lon="-0.38875401"><ele>19.4</ele><time>2022-11-02T17:00:09.0000000+00:00</time></trkpt><trkpt lat="39.47773808" lon="-0.38876885"><ele>19.4</ele><time>2022-11-02T17:00:10.0000000+00:00</time></trkpt><trkpt lat="39.47773498" lon="-0.38878293"><ele>19.4</ele><time>2022-11-02T17:00:11.0000000+00:00</time></trkpt><trkpt lat="39.47773062" lon="-0.38880128"><ele>19.4</ele><time>2022-11-02T17:00:12.0000000+00:00</time></trkpt><trkpt lat="39.47772877" lon="-0.38881746"><ele>19.4</ele><time>2022-11-02T17:00:13.0000000+00:00</time></trkpt><trkpt lat="39.4777245" lon="-0.38883247"><ele>19.4</ele><time>2022-11-02T17:00:14.0000000+00:00</time></trkpt><trkpt lat="39.47771804" lon="-0.38885091"><ele>19.4</ele><time>2022-11-02T17:00:15.0000000+00:00</time></trkpt><trkpt lat="39.47771469" lon="-0.38886876"><ele>19.4</ele><time>2022-11-02T17:00:16.0000000+00:00</time></trkpt><trkpt lat="39.4777105" lon="-0.3888867"><ele>19.4</ele><time>2022-11-02T17:00:17.0000000+00:00</time></trkpt><trkpt lat="39.47770723" lon="-0.38890405"><ele>19.4</ele><time>2022-11-02T17:00:18.0000000+00:00</time></trkpt><trkpt lat="39.47770841" lon="-0.38891947"><ele>19.4</ele><time>2022-11-02T17:00:19.0000000+00:00</time></trkpt><trkpt lat="39.47771126" lon="-0.3889333"><ele>19.6</ele><time>2022-11-02T17:00:20.0000000+00:00</time></trkpt><trkpt lat="39.47771134" lon="-0.3889478"><ele>19.4</ele><time>2022-11-02T17:00:21.0000000+00:00</time></trkpt><trkpt lat="39.47770882" lon="-0.3889628"><ele>19.4</ele><time>2022-11-02T17:00:22.0000000+00:00</time></trkpt><trkpt lat="39.47770405" lon="-0.38898116"><ele>19.4</ele><time>2022-11-02T17:00:23.0000000+00:00</time></trkpt><trkpt lat="39.4777012" lon="-0.38899767"><ele>19.4</ele><time>2022-11-02T17:00:24.0000000+00:00</time></trkpt><trkpt lat="39.47769684" lon="-0.3890136"><ele>19.4</ele><time>2022-11-02T17:00:25.0000000+00:00</time></trkpt><trkpt lat="39.4776898" lon="-0.38902734"><ele>19.4</ele><time>2022-11-02T17:00:26.0000000+00:00</time></trkpt><trkpt lat="39.47768343" lon="-0.38903933"><ele>19.4</ele><time>2022-11-02T17:00:27.0000000+00:00</time></trkpt><trkpt lat="39.47767949" lon="-0.38905266"><ele>19.4</ele><time>2022-11-02T17:00:28.0000000+00:00</time></trkpt><trkpt lat="39.47767572" lon="-0.38906791"><ele>19.4</ele><time>2022-11-02T17:00:29.0000000+00:00</time></trkpt><trkpt lat="39.47767387" lon="-0.38908225"><ele>19.6</ele><time>2022-11-02T17:00:30.0000000+00:00</time></trkpt><trkpt lat="39.47767035" lon="-0.3890949"><ele>19.6</ele><time>2022-11-02T17:00:31.0000000+00:00</time></trkpt><trkpt lat="39.47766708" lon="-0.38910991"><ele>19.6</ele><time>2022-11-02T17:00:32.0000000+00:00</time></trkpt><trkpt lat="39.47766532" lon="-0.38912357"><ele>19.4</ele><time>2022-11-02T17:00:33.0000000+00:00</time></trkpt><trkpt lat="39.47766272" lon="-0.38913614"><ele>19.4</ele><time>2022-11-02T17:00:34.0000000+00:00</time></trkpt><trkpt lat="39.47765811" lon="-0.38914997"><ele>19.4</ele><time>2022-11-02T17:00:35.0000000+00:00</time></trkpt><trkpt lat="39.47765216" lon="-0.38916363"><ele>19.4</ele><time>2022-11-02T17:00:36.0000000+00:00</time></trkpt><trkpt lat="39.47764504" lon="-0.38917797"><ele>19.4</ele><time>2022-11-02T17:00:37.0000000+00:00</time></trkpt><trkpt lat="39.47764051" lon="-0.38919356"><ele>19.4</ele><time>2022-11-02T17:00:38.0000000+00:00</time></trkpt><trkpt lat="39.47763615" lon="-0.3892068"><ele>19.4</ele><time>2022-11-02T17:00:39.0000000+00:00</time></trkpt><trkpt lat="39.47763347" lon="-0.38921937"><ele>19.4</ele><time>2022-11-02T17:00:40.0000000+00:00</time></trkpt><trkpt lat="39.47762953" lon="-0.3892358"><ele>19.4</ele><time>2022-11-02T17:00:41.0000000+00:00</time></trkpt><trkpt lat="39.47762752" lon="-0.38925148"><ele>19.4</ele><time>2022-11-02T17:00:42.0000000+00:00</time></trkpt><trkpt lat="39.47762718" lon="-0.38926564"><ele>19.4</ele><time>2022-11-02T17:00:43.0000000+00:00</time></trkpt><trkpt lat="39.47762459" lon="-0.38928123"><ele>19.4</ele><time>2022-11-02T17:00:44.0000000+00:00</time></trkpt><trkpt lat="39.47762115" lon="-0.38929691"><ele>19.4</ele><time>2022-11-02T17:00:45.0000000+00:00</time></trkpt><trkpt lat="39.47761562" lon="-0.38931334"><ele>19.6</ele><time>2022-11-02T17:00:46.0000000+00:00</time></trkpt><trkpt lat="39.47761143" lon="-0.38932691"><ele>19.4</ele><time>2022-11-02T17:00:47.0000000+00:00</time></trkpt><trkpt lat="39.47760698" lon="-0.38934292"><ele>19.6</ele><time>2022-11-02T17:00:48.0000000+00:00</time></trkpt><trkpt lat="39.47760288" lon="-0.38935709"><ele>19.6</ele><time>2022-11-02T17:00:49.0000000+00:00</time></trkpt><trkpt lat="39.47760087" lon="-0.38936765"><ele>19.6</ele><time>2022-11-02T17:00:50.0000000+00:00</time></trkpt><trkpt lat="39.47759802" lon="-0.38937729"><ele>19.6</ele><time>2022-11-02T17:00:51.0000000+00:00</time></trkpt><trkpt lat="39.4775929" lon="-0.38939162"><ele>19.6</ele><time>2022-11-02T17:00:52.0000000+00:00</time></trkpt><trkpt lat="39.4775867" lon="-0.38940948"><ele>19.6</ele><time>2022-11-02T17:00:53.0000000+00:00</time></trkpt><trkpt lat="39.47758033" lon="-0.3894249"><ele>19.8</ele><time>2022-11-02T17:00:54.0000000+00:00</time></trkpt><trkpt lat="39.47757505" lon="-0.38944099"><ele>19.8</ele><time>2022-11-02T17:00:55.0000000+00:00</time></trkpt><trkpt lat="39.47757212" lon="-0.38945566"><ele>19.8</ele><time>2022-11-02T17:00:56.0000000+00:00</time></trkpt><trkpt lat="39.47756725" lon="-0.38946941"><ele>19.8</ele><time>2022-11-02T17:00:57.0000000+00:00</time></trkpt><trkpt lat="39.47756139" lon="-0.3894819"><ele>19.8</ele><time>2022-11-02T17:00:58.0000000+00:00</time></trkpt><trkpt lat="39.47755728" lon="-0.38949371"><ele>19.8</ele><time>2022-11-02T17:00:59.0000000+00:00</time></trkpt><trkpt lat="39.47755233" lon="-0.38950821"><ele>19.8</ele><time>2022-11-02T17:01:00.0000000+00:00</time></trkpt><trkpt lat="39.47754714" lon="-0.38952297"><ele>19.8</ele><time>2022-11-02T17:01:01.0000000+00:00</time></trkpt><trkpt lat="39.47754353" lon="-0.38953638"><ele>19.8</ele><time>2022-11-02T17:01:02.0000000+00:00</time></trkpt><trkpt lat="39.47753968" lon="-0.38955004"><ele>19.8</ele><time>2022-11-02T17:01:03.0000000+00:00</time></trkpt><trkpt lat="39.47753565" lon="-0.38956345"><ele>19.8</ele><time>2022-11-02T17:01:04.0000000+00:00</time></trkpt><trkpt lat="39.47753121" lon="-0.38957862"><ele>19.8</ele><time>2022-11-02T17:01:05.0000000+00:00</time></trkpt><trkpt lat="39.47752652" lon="-0.38959237"><ele>19.8</ele><time>2022-11-02T17:01:06.0000000+00:00</time></trkpt><trkpt lat="39.47752283" lon="-0.3896072"><ele>19.6</ele><time>2022-11-02T17:01:07.0000000+00:00</time></trkpt><trkpt lat="39.47751856" lon="-0.38962238"><ele>19.6</ele><time>2022-11-02T17:01:08.0000000+00:00</time></trkpt><trkpt lat="39.47751629" lon="-0.38963554"><ele>19.6</ele><time>2022-11-02T17:01:09.0000000+00:00</time></trkpt><trkpt lat="39.47751747" lon="-0.38964911"><ele>19.8</ele><time>2022-11-02T17:01:10.0000000+00:00</time></trkpt><trkpt lat="39.47752107" lon="-0.38966001"><ele>19.8</ele><time>2022-11-02T17:01:11.0000000+00:00</time></trkpt><trkpt lat="39.47752585" lon="-0.38966948"><ele>19.8</ele><time>2022-11-02T17:01:12.0000000+00:00</time></trkpt><trkpt lat="39.47753415" lon="-0.38968088"><ele>19.8</ele><time>2022-11-02T17:01:13.0000000+00:00</time></trkpt><trkpt lat="39.47754446" lon="-0.3896901"><ele>19.8</ele><time>2022-11-02T17:01:14.0000000+00:00</time></trkpt><trkpt lat="39.47755585" lon="-0.38969605"><ele>19.8</ele><time>2022-11-02T17:01:15.0000000+00:00</time></trkpt><trkpt lat="39.47756466" lon="-0.38969932"><ele>19.8</ele><time>2022-11-02T17:01:16.0000000+00:00</time></trkpt><trkpt lat="39.47757832" lon="-0.38970083"><ele>19.8</ele><time>2022-11-02T17:01:17.0000000+00:00</time></trkpt><trkpt lat="39.4775903" lon="-0.38970242"><ele>19.8</ele><time>2022-11-02T17:01:18.0000000+00:00</time></trkpt><trkpt lat="39.47760036" lon="-0.38970284"><ele>19.8</ele><time>2022-11-02T17:01:19.0000000+00:00</time></trkpt><trkpt lat="39.47760824" lon="-0.38970418"><ele>19.8</ele><time>2022-11-02T17:01:20.0000000+00:00</time></trkpt><trkpt lat="39.4776152" lon="-0.38970586"><ele>19.8</ele><time>2022-11-02T17:01:21.0000000+00:00</time></trkpt><trkpt lat="39.47762635" lon="-0.3897098"><ele>19.8</ele><time>2022-11-02T17:01:22.0000000+00:00</time></trkpt><trkpt lat="39.47763691" lon="-0.38971315"><ele>19.8</ele><time>2022-11-02T17:01:23.0000000+00:00</time></trkpt><trkpt lat="39.47764831" lon="-0.38971164"><ele>19.8</ele><time>2022-11-02T17:01:24.0000000+00:00</time></trkpt><trkpt lat="39.47765686" lon="-0.38970293"><ele>19.8</ele><time>2022-11-02T17:01:25.0000000+00:00</time></trkpt><trkpt lat="39.47766289" lon="-0.38969119"><ele>19.8</ele><time>2022-11-02T17:01:26.0000000+00:00</time></trkpt><trkpt lat="39.47766549" lon="-0.38967887"><ele>19.8</ele><time>2022-11-02T17:01:27.0000000+00:00</time></trkpt><trkpt lat="39.477668" lon="-0.3896668"><ele>19.8</ele><time>2022-11-02T17:01:28.0000000+00:00</time></trkpt><trkpt lat="39.47767035" lon="-0.3896523"><ele>19.8</ele><time>2022-11-02T17:01:29.0000000+00:00</time></trkpt><trkpt lat="39.47767186" lon="-0.38963755"><ele>19.8</ele><time>2022-11-02T17:01:30.0000000+00:00</time></trkpt><trkpt lat="39.47767563" lon="-0.38962439"><ele>19.8</ele><time>2022-11-02T17:01:31.0000000+00:00</time></trkpt><trkpt lat="39.47767882" lon="-0.38961274"><ele>19.8</ele><time>2022-11-02T17:01:32.0000000+00:00</time></trkpt><trkpt lat="39.477682" lon="-0.38960033"><ele>19.8</ele><time>2022-11-02T17:01:33.0000000+00:00</time></trkpt><trkpt lat="39.47768359" lon="-0.38958793"><ele>19.8</ele><time>2022-11-02T17:01:34.0000000+00:00</time></trkpt><trkpt lat="39.47768443" lon="-0.38957661"><ele>19.8</ele><time>2022-11-02T17:01:35.0000000+00:00</time></trkpt><trkpt lat="39.47768527" lon="-0.38956446"><ele>19.8</ele><time>2022-11-02T17:01:36.0000000+00:00</time></trkpt><trkpt lat="39.47768611" lon="-0.3895518"><ele>19.8</ele><time>2022-11-02T17:01:37.0000000+00:00</time></trkpt><trkpt lat="39.47768988" lon="-0.38954074"><ele>19.8</ele><time>2022-11-02T17:01:38.0000000+00:00</time></trkpt><trkpt lat="39.47769491" lon="-0.38952909"><ele>19.8</ele><time>2022-11-02T17:01:39.0000000+00:00</time></trkpt><trkpt lat="39.47769743" lon="-0.38951827"><ele>19.8</ele><time>2022-11-02T17:01:40.0000000+00:00</time></trkpt><trkpt lat="39.47770002" lon="-0.38950587"><ele>19.8</ele><time>2022-11-02T17:01:41.0000000+00:00</time></trkpt><trkpt lat="39.47770505" lon="-0.38949044"><ele>19.8</ele><time>2022-11-02T17:01:42.0000000+00:00</time></trkpt><trkpt lat="39.47770681" lon="-0.38948164"><ele>19.8</ele><time>2022-11-02T17:01:43.0000000+00:00</time></trkpt><trkpt lat="39.47771067" lon="-0.38946605"><ele>19.8</ele><time>2022-11-02T17:01:44.0000000+00:00</time></trkpt><trkpt lat="39.47771436" lon="-0.38945164"><ele>19.8</ele><time>2022-11-02T17:01:45.0000000+00:00</time></trkpt><trkpt lat="39.47771771" lon="-0.38943781"><ele>19.8</ele><time>2022-11-02T17:01:46.0000000+00:00</time></trkpt><trkpt lat="39.477724" lon="-0.38942389"><ele>19.8</ele><time>2022-11-02T17:01:47.0000000+00:00</time></trkpt><trkpt lat="39.47773045" lon="-0.38941023"><ele>19.6</ele><time>2022-11-02T17:01:48.0000000+00:00</time></trkpt><trkpt lat="39.4777328" lon="-0.38939732"><ele>19.6</ele><time>2022-11-02T17:01:49.0000000+00:00</time></trkpt><trkpt lat="39.47773548" lon="-0.38938575"><ele>19.6</ele><time>2022-11-02T17:01:50.0000000+00:00</time></trkpt><trkpt lat="39.47773791" lon="-0.38937276"><ele>19.6</ele><time>2022-11-02T17:01:51.0000000+00:00</time></trkpt><trkpt lat="39.47774034" lon="-0.38936011"><ele>19.6</ele><time>2022-11-02T17:01:52.0000000+00:00</time></trkpt><trkpt lat="39.47774394" lon="-0.38934611"><ele>19.6</ele><time>2022-11-02T17:01:53.0000000+00:00</time></trkpt><trkpt lat="39.47774596" lon="-0.3893337"><ele>19.8</ele><time>2022-11-02T17:01:54.0000000+00:00</time></trkpt><trkpt lat="39.47774981" lon="-0.38932297"><ele>19.8</ele><time>2022-11-02T17:01:55.0000000+00:00</time></trkpt><trkpt lat="39.47775811" lon="-0.3893125"><ele>19.8</ele><time>2022-11-02T17:01:56.0000000+00:00</time></trkpt><trkpt lat="39.47776716" lon="-0.38930479"><ele>19.8</ele><time>2022-11-02T17:01:57.0000000+00:00</time></trkpt><trkpt lat="39.4777789" lon="-0.38930076"><ele>19.8</ele><time>2022-11-02T17:01:58.0000000+00:00</time></trkpt><trkpt lat="39.47779256" lon="-0.38929783"><ele>19.8</ele><time>2022-11-02T17:01:59.0000000+00:00</time></trkpt><trkpt lat="39.47780262" lon="-0.3892964"><ele>19.8</ele><time>2022-11-02T17:02:00.0000000+00:00</time></trkpt><trkpt lat="39.47781125" lon="-0.38929741"><ele>19.8</ele><time>2022-11-02T17:02:01.0000000+00:00</time></trkpt><trkpt lat="39.47782651" lon="-0.38930244"><ele>19.8</ele><time>2022-11-02T17:02:02.0000000+00:00</time></trkpt><trkpt lat="39.47783715" lon="-0.38930864"><ele>19.8</ele><time>2022-11-02T17:02:03.0000000+00:00</time></trkpt><trkpt lat="39.47785014" lon="-0.38931644"><ele>19.8</ele><time>2022-11-02T17:02:04.0000000+00:00</time></trkpt><trkpt lat="39.47785978" lon="-0.38932155"><ele>19.8</ele><time>2022-11-02T17:02:05.0000000+00:00</time></trkpt><trkpt lat="39.47786741" lon="-0.38932406"><ele>19.8</ele><time>2022-11-02T17:02:06.0000000+00:00</time></trkpt><trkpt lat="39.47787697" lon="-0.3893311"><ele>19.8</ele><time>2022-11-02T17:02:07.0000000+00:00</time></trkpt><trkpt lat="39.47788535" lon="-0.38933471"><ele>19.6</ele><time>2022-11-02T17:02:08.0000000+00:00</time></trkpt><trkpt lat="39.47789658" lon="-0.38934041"><ele>19.6</ele><time>2022-11-02T17:02:09.0000000+00:00</time></trkpt><trkpt lat="39.47790756" lon="-0.38934527"><ele>19.6</ele><time>2022-11-02T17:02:10.0000000+00:00</time></trkpt><trkpt lat="39.47791485" lon="-0.38934787"><ele>19.6</ele><time>2022-11-02T17:02:11.0000000+00:00</time></trkpt><trkpt lat="39.47792223" lon="-0.38934913"><ele>19.6</ele><time>2022-11-02T17:02:12.0000000+00:00</time></trkpt><trkpt lat="39.47793379" lon="-0.38935214"><ele>19.6</ele><time>2022-11-02T17:02:13.0000000+00:00</time></trkpt><trkpt lat="39.47794352" lon="-0.38935541"><ele>19.8</ele><time>2022-11-02T17:02:14.0000000+00:00</time></trkpt><trkpt lat="39.47795207" lon="-0.3893617"><ele>19.8</ele><time>2022-11-02T17:02:15.0000000+00:00</time></trkpt><trkpt lat="39.47795634" lon="-0.38936882"><ele>19.8</ele><time>2022-11-02T17:02:16.0000000+00:00</time></trkpt><trkpt lat="39.47796053" lon="-0.3893788"><ele>19.8</ele><time>2022-11-02T17:02:17.0000000+00:00</time></trkpt><trkpt lat="39.47796724" lon="-0.3893886"><ele>19.8</ele><time>2022-11-02T17:02:18.0000000+00:00</time></trkpt><trkpt lat="39.47797302" lon="-0.38939791"><ele>19.8</ele><time>2022-11-02T17:02:19.0000000+00:00</time></trkpt><trkpt lat="39.47798132" lon="-0.38940688"><ele>19.6</ele><time>2022-11-02T17:02:20.0000000+00:00</time></trkpt><trkpt lat="39.47798962" lon="-0.38941626"><ele>19.6</ele><time>2022-11-02T17:02:21.0000000+00:00</time></trkpt><trkpt lat="39.47799766" lon="-0.38942196"><ele>19.6</ele><time>2022-11-02T17:02:22.0000000+00:00</time></trkpt><trkpt lat="39.4780063" lon="-0.38942456"><ele>19.6</ele><time>2022-11-02T17:02:23.0000000+00:00</time></trkpt><trkpt lat="39.47801686" lon="-0.38942808"><ele>19.6</ele><time>2022-11-02T17:02:24.0000000+00:00</time></trkpt><trkpt lat="39.47802792" lon="-0.38943303"><ele>19.6</ele><time>2022-11-02T17:02:25.0000000+00:00</time></trkpt><trkpt lat="39.47804326" lon="-0.38943504"><ele>19.6</ele><time>2022-11-02T17:02:26.0000000+00:00</time></trkpt><trkpt lat="39.47805382" lon="-0.38943797"><ele>19.6</ele><time>2022-11-02T17:02:27.0000000+00:00</time></trkpt><trkpt lat="39.47805919" lon="-0.38943395"><ele>19.6</ele><time>2022-11-02T17:02:28.0000000+00:00</time></trkpt><trkpt lat="39.47806908" lon="-0.38942984"><ele>19.6</ele><time>2022-11-02T17:02:29.0000000+00:00</time></trkpt><trkpt lat="39.47807889" lon="-0.38942959"><ele>19.6</ele><time>2022-11-02T17:02:30.0000000+00:00</time></trkpt><trkpt lat="39.47808987" lon="-0.3894337"><ele>19.6</ele><time>2022-11-02T17:02:31.0000000+00:00</time></trkpt><trkpt lat="39.47810194" lon="-0.38944024"><ele>19.6</ele><time>2022-11-02T17:02:32.0000000+00:00</time></trkpt><trkpt lat="39.47811308" lon="-0.38944694"><ele>19.6</ele><time>2022-11-02T17:02:33.0000000+00:00</time></trkpt><trkpt lat="39.4781208" lon="-0.38945105"><ele>19.6</ele><time>2022-11-02T17:02:34.0000000+00:00</time></trkpt><trkpt lat="39.47813144" lon="-0.38945717"><ele>19.6</ele><time>2022-11-02T17:02:35.0000000+00:00</time></trkpt><trkpt lat="39.47814074" lon="-0.38946195"><ele>19.6</ele><time>2022-11-02T17:02:36.0000000+00:00</time></trkpt><trkpt lat="39.47815223" lon="-0.38946647"><ele>19.6</ele><time>2022-11-02T17:02:37.0000000+00:00</time></trkpt><trkpt lat="39.47815742" lon="-0.38947142"><ele>19.6</ele><time>2022-11-02T17:02:38.0000000+00:00</time></trkpt><trkpt lat="39.47816371" lon="-0.3894777"><ele>19.6</ele><time>2022-11-02T17:02:39.0000000+00:00</time></trkpt><trkpt lat="39.47817343" lon="-0.38948449"><ele>19.6</ele><time>2022-11-02T17:02:40.0000000+00:00</time></trkpt><trkpt lat="39.47818106" lon="-0.38948961"><ele>19.6</ele><time>2022-11-02T17:02:41.0000000+00:00</time></trkpt><trkpt lat="39.4781902" lon="-0.38949547"><ele>19.6</ele><time>2022-11-02T17:02:42.0000000+00:00</time></trkpt><trkpt lat="39.47820042" lon="-0.38950092"><ele>19.6</ele><time>2022-11-02T17:02:43.0000000+00:00</time></trkpt><trkpt lat="39.47821132" lon="-0.38950436"><ele>19.6</ele><time>2022-11-02T17:02:44.0000000+00:00</time></trkpt><trkpt lat="39.4782197" lon="-0.3895078"><ele>19.6</ele><time>2022-11-02T17:02:45.0000000+00:00</time></trkpt><trkpt lat="39.47822825" lon="-0.38950956"><ele>19.6</ele><time>2022-11-02T17:02:46.0000000+00:00</time></trkpt><trkpt lat="39.47823194" lon="-0.38950956"><ele>19.8</ele><time>2022-11-02T17:02:47.0000000+00:00</time></trkpt><trkpt lat="39.4782332" lon="-0.38950922"><ele>19.8</ele><time>2022-11-02T17:02:48.0000000+00:00</time></trkpt><trkpt lat="39.47823345" lon="-0.38950922"><ele>19.8</ele><time>2022-11-02T17:02:49.0000000+00:00</time></trkpt><trkpt lat="39.47823345" lon="-0.38950956"><ele>19.8</ele><time>2022-11-02T17:02:50.0000000+00:00</time></trkpt><trkpt lat="39.47823269" lon="-0.38951006"><ele>19.8</ele><time>2022-11-02T17:02:51.0000000+00:00</time></trkpt><trkpt lat="39.47823194" lon="-0.38951031"><ele>19.8</ele><time>2022-11-02T17:02:52.0000000+00:00</time></trkpt><trkpt lat="39.47823144" lon="-0.38951299"><ele>19.8</ele><time>2022-11-02T17:02:53.0000000+00:00</time></trkpt><trkpt lat="39.47823739" lon="-0.38951987"><ele>19.8</ele><time>2022-11-02T17:02:54.0000000+00:00</time></trkpt><trkpt lat="39.47824426" lon="-0.38952582"><ele>19.8</ele><time>2022-11-02T17:02:55.0000000+00:00</time></trkpt><trkpt lat="39.47825206" lon="-0.38953252"><ele>19.8</ele><time>2022-11-02T17:02:56.0000000+00:00</time></trkpt><trkpt lat="39.47825893" lon="-0.38953646"><ele>20.0</ele><time>2022-11-02T17:02:57.0000000+00:00</time></trkpt><trkpt lat="39.47826941" lon="-0.3895425"><ele>20.0</ele><time>2022-11-02T17:02:58.0000000+00:00</time></trkpt><trkpt lat="39.47828148" lon="-0.38954828"><ele>20.0</ele><time>2022-11-02T17:02:59.0000000+00:00</time></trkpt><trkpt lat="39.47829078" lon="-0.38955214"><ele>20.0</ele><time>2022-11-02T17:03:00.0000000+00:00</time></trkpt><trkpt lat="39.47829958" lon="-0.38955708"><ele>20.0</ele><time>2022-11-02T17:03:01.0000000+00:00</time></trkpt><trkpt lat="39.47830738" lon="-0.38956353"><ele>20.0</ele><time>2022-11-02T17:03:02.0000000+00:00</time></trkpt><trkpt lat="39.4783166" lon="-0.38956873"><ele>20.0</ele><time>2022-11-02T17:03:03.0000000+00:00</time></trkpt><trkpt lat="39.47832389" lon="-0.38957326"><ele>20.0</ele><time>2022-11-02T17:03:04.0000000+00:00</time></trkpt><trkpt lat="39.47833244" lon="-0.38957544"><ele>20.0</ele><time>2022-11-02T17:03:05.0000000+00:00</time></trkpt><trkpt lat="39.47834241" lon="-0.38957577"><ele>20.0</ele><time>2022-11-02T17:03:06.0000000+00:00</time></trkpt><trkpt lat="39.47835289" lon="-0.38957753"><ele>20.0</ele><time>2022-11-02T17:03:07.0000000+00:00</time></trkpt><trkpt lat="39.47836328" lon="-0.38957921"><ele>20.0</ele><time>2022-11-02T17:03:08.0000000+00:00</time></trkpt><trkpt lat="39.47837443" lon="-0.38958164"><ele>20.0</ele><time>2022-11-02T17:03:09.0000000+00:00</time></trkpt><trkpt lat="39.47838449" lon="-0.38958466"><ele>20.0</ele><time>2022-11-02T17:03:10.0000000+00:00</time></trkpt><trkpt lat="39.47839396" lon="-0.38958625"><ele>20.0</ele><time>2022-11-02T17:03:11.0000000+00:00</time></trkpt><trkpt lat="39.47840159" lon="-0.38958784"><ele>20.0</ele><time>2022-11-02T17:03:12.0000000+00:00</time></trkpt><trkpt lat="39.47841106" lon="-0.38959321"><ele>19.8</ele><time>2022-11-02T17:03:13.0000000+00:00</time></trkpt><trkpt lat="39.4784176" lon="-0.38959807"><ele>19.8</ele><time>2022-11-02T17:03:14.0000000+00:00</time></trkpt><trkpt lat="39.47842556" lon="-0.38960511"><ele>19.8</ele><time>2022-11-02T17:03:15.0000000+00:00</time></trkpt><trkpt lat="39.47843637" lon="-0.38961014"><ele>19.8</ele><time>2022-11-02T17:03:16.0000000+00:00</time></trkpt><trkpt lat="39.4784502" lon="-0.38961634"><ele>19.8</ele><time>2022-11-02T17:03:17.0000000+00:00</time></trkpt><trkpt lat="39.47846403" lon="-0.38962405"><ele>20.0</ele><time>2022-11-02T17:03:18.0000000+00:00</time></trkpt><trkpt lat="39.4784761" lon="-0.38963051"><ele>20.0</ele><time>2022-11-02T17:03:19.0000000+00:00</time></trkpt><trkpt lat="39.47848365" lon="-0.38963252"><ele>20.0</ele><time>2022-11-02T17:03:20.0000000+00:00</time></trkpt><trkpt lat="39.47849228" lon="-0.38963612"><ele>19.8</ele><time>2022-11-02T17:03:21.0000000+00:00</time></trkpt><trkpt lat="39.47850226" lon="-0.3896373"><ele>20.0</ele><time>2022-11-02T17:03:22.0000000+00:00</time></trkpt><trkpt lat="39.47850787" lon="-0.3896373"><ele>20.0</ele><time>2022-11-02T17:03:23.0000000+00:00</time></trkpt><trkpt lat="39.47851231" lon="-0.38963897"><ele>20.0</ele><time>2022-11-02T17:03:24.0000000+00:00</time></trkpt><trkpt lat="39.47851785" lon="-0.38964258"><ele>20.0</ele><time>2022-11-02T17:03:25.0000000+00:00</time></trkpt><trkpt lat="39.47852396" lon="-0.38965004"><ele>20.0</ele><time>2022-11-02T17:03:26.0000000+00:00</time></trkpt><trkpt lat="39.47853436" lon="-0.38965808"><ele>20.0</ele><time>2022-11-02T17:03:27.0000000+00:00</time></trkpt><trkpt lat="39.47854601" lon="-0.38966655"><ele>20.0</ele><time>2022-11-02T17:03:28.0000000+00:00</time></trkpt><trkpt lat="39.47855414" lon="-0.38967501"><ele>20.0</ele><time>2022-11-02T17:03:29.0000000+00:00</time></trkpt><trkpt lat="39.47856336" lon="-0.38968264"><ele>20.0</ele><time>2022-11-02T17:03:30.0000000+00:00</time></trkpt><trkpt lat="39.47857115" lon="-0.38968717"><ele>20.0</ele><time>2022-11-02T17:03:31.0000000+00:00</time></trkpt><trkpt lat="39.47858616" lon="-0.38968926"><ele>20.0</ele><time>2022-11-02T17:03:32.0000000+00:00</time></trkpt><trkpt lat="39.47860074" lon="-0.38968817"><ele>20.0</ele><time>2022-11-02T17:03:33.0000000+00:00</time></trkpt><trkpt lat="39.47861273" lon="-0.38969848"><ele>19.8</ele><time>2022-11-02T17:03:34.0000000+00:00</time></trkpt><trkpt lat="39.47862321" lon="-0.38970561"><ele>19.8</ele><time>2022-11-02T17:03:35.0000000+00:00</time></trkpt><trkpt lat="39.47863293" lon="-0.38971106"><ele>19.8</ele><time>2022-11-02T17:03:36.0000000+00:00</time></trkpt><trkpt lat="39.47864508" lon="-0.38971642"><ele>19.6</ele><time>2022-11-02T17:03:37.0000000+00:00</time></trkpt><trkpt lat="39.47865506" lon="-0.38972279"><ele>19.6</ele><time>2022-11-02T17:03:38.0000000+00:00</time></trkpt><trkpt lat="39.47866134" lon="-0.38972774"><ele>19.6</ele><time>2022-11-02T17:03:39.0000000+00:00</time></trkpt><trkpt lat="39.47867174" lon="-0.38973486"><ele>19.6</ele><time>2022-11-02T17:03:40.0000000+00:00</time></trkpt><trkpt lat="39.47868314" lon="-0.38973612"><ele>19.6</ele><time>2022-11-02T17:03:41.0000000+00:00</time></trkpt><trkpt lat="39.47869236" lon="-0.3897362"><ele>19.6</ele><time>2022-11-02T17:03:42.0000000+00:00</time></trkpt><trkpt lat="39.47869848" lon="-0.38973285"><ele>19.6</ele><time>2022-11-02T17:03:43.0000000+00:00</time></trkpt><trkpt lat="39.47870828" lon="-0.38973553"><ele>19.6</ele><time>2022-11-02T17:03:44.0000000+00:00</time></trkpt><trkpt lat="39.47871759" lon="-0.38974123"><ele>19.6</ele><time>2022-11-02T17:03:45.0000000+00:00</time></trkpt><trkpt lat="39.47872823" lon="-0.38974601"><ele>19.6</ele><time>2022-11-02T17:03:46.0000000+00:00</time></trkpt><trkpt lat="39.47873712" lon="-0.38974919"><ele>19.6</ele><time>2022-11-02T17:03:47.0000000+00:00</time></trkpt><trkpt lat="39.47874583" lon="-0.38974819"><ele>19.6</ele><time>2022-11-02T17:03:48.0000000+00:00</time></trkpt><trkpt lat="39.4787481" lon="-0.38974752"><ele>19.6</ele><time>2022-11-02T17:03:49.0000000+00:00</time></trkpt><trkpt lat="39.47874776" lon="-0.38974643"><ele>19.6</ele><time>2022-11-02T17:03:50.0000000+00:00</time></trkpt><trkpt lat="39.47874986" lon="-0.3897414"><ele>19.6</ele><time>2022-11-02T17:03:51.0000000+00:00</time></trkpt><trkpt lat="39.47875053" lon="-0.38974031"><ele>19.6</ele><time>2022-11-02T17:03:52.0000000+00:00</time></trkpt><trkpt lat="39.47875086" lon="-0.38973972"><ele>19.6</ele><time>2022-11-02T17:03:53.0000000+00:00</time></trkpt><trkpt lat="39.47875321" lon="-0.3897409"><ele>19.6</ele><time>2022-11-02T17:03:54.0000000+00:00</time></trkpt><trkpt lat="39.47875447" lon="-0.38973972"><ele>19.6</ele><time>2022-11-02T17:03:55.0000000+00:00</time></trkpt><trkpt lat="39.47874902" lon="-0.38974668"><ele>19.6</ele><time>2022-11-02T17:03:56.0000000+00:00</time></trkpt><trkpt lat="39.47874432" lon="-0.38975104"><ele>19.6</ele><time>2022-11-02T17:03:57.0000000+00:00</time></trkpt><trkpt lat="39.47874349" lon="-0.38975297"><ele>19.6</ele><time>2022-11-02T17:03:58.0000000+00:00</time></trkpt><trkpt lat="39.4787398" lon="-0.38975556"><ele>19.6</ele><time>2022-11-02T17:03:59.0000000+00:00</time></trkpt><trkpt lat="39.47874215" lon="-0.38975489"><ele>19.6</ele><time>2022-11-02T17:04:00.0000000+00:00</time></trkpt><trkpt lat="39.47874416" lon="-0.38975456"><ele>19.6</ele><time>2022-11-02T17:04:01.0000000+00:00</time></trkpt><trkpt lat="39.47874768" lon="-0.38975758"><ele>19.8</ele><time>2022-11-02T17:04:02.0000000+00:00</time></trkpt><trkpt lat="39.47875153" lon="-0.38975766"><ele>19.8</ele><time>2022-11-02T17:04:03.0000000+00:00</time></trkpt><trkpt lat="39.47875271" lon="-0.38975598"><ele>19.8</ele><time>2022-11-02T17:04:04.0000000+00:00</time></trkpt><trkpt lat="39.47875095" lon="-0.38975523"><ele>19.8</ele><time>2022-11-02T17:04:05.0000000+00:00</time></trkpt><trkpt lat="39.47874684" lon="-0.38975305"><ele>19.8</ele><time>2022-11-02T17:04:06.0000000+00:00</time></trkpt><trkpt lat="39.47874332" lon="-0.38975355"><ele>19.8</ele><time>2022-11-02T17:04:07.0000000+00:00</time></trkpt><trkpt lat="39.47873971" lon="-0.38975339"><ele>19.6</ele><time>2022-11-02T17:04:08.0000000+00:00</time></trkpt><trkpt lat="39.47874106" lon="-0.3897523"><ele>19.6</ele><time>2022-11-02T17:04:09.0000000+00:00</time></trkpt><trkpt lat="39.47874717" lon="-0.38975615"><ele>19.6</ele><time>2022-11-02T17:04:10.0000000+00:00</time></trkpt><trkpt lat="39.47875455" lon="-0.38974383"><ele>19.6</ele><time>2022-11-02T17:04:11.0000000+00:00</time></trkpt><trkpt lat="39.47875572" lon="-0.38973955"><ele>19.6</ele><time>2022-11-02T17:04:12.0000000+00:00</time></trkpt><trkpt lat="39.47876318" lon="-0.38973696"><ele>19.6</ele><time>2022-11-02T17:04:13.0000000+00:00</time></trkpt><trkpt lat="39.47877048" lon="-0.38973637"><ele>19.6</ele><time>2022-11-02T17:04:14.0000000+00:00</time></trkpt><trkpt lat="39.47877626" lon="-0.38973763"><ele>19.6</ele><time>2022-11-02T17:04:15.0000000+00:00</time></trkpt><trkpt lat="39.47878364" lon="-0.38974492"><ele>19.6</ele><time>2022-11-02T17:04:16.0000000+00:00</time></trkpt><trkpt lat="39.47879696" lon="-0.38975162"><ele>19.6</ele><time>2022-11-02T17:04:17.0000000+00:00</time></trkpt><trkpt lat="39.47880627" lon="-0.38976017"><ele>19.4</ele><time>2022-11-02T17:04:18.0000000+00:00</time></trkpt><trkpt lat="39.47880476" lon="-0.38977183"><ele>19.4</ele><time>2022-11-02T17:04:19.0000000+00:00</time></trkpt><trkpt lat="39.47879612" lon="-0.38977694"><ele>19.4</ele><time>2022-11-02T17:04:20.0000000+00:00</time></trkpt><trkpt lat="39.47879495" lon="-0.38977736"><ele>19.4</ele><time>2022-11-02T17:04:21.0000000+00:00</time></trkpt><trkpt lat="39.47879671" lon="-0.38977644"><ele>19.4</ele><time>2022-11-02T17:04:22.0000000+00:00</time></trkpt><trkpt lat="39.47879596" lon="-0.38977903"><ele>19.4</ele><time>2022-11-02T17:04:23.0000000+00:00</time></trkpt><trkpt lat="39.4787921" lon="-0.38978281"><ele>19.4</ele><time>2022-11-02T17:04:24.0000000+00:00</time></trkpt><trkpt lat="39.47880074" lon="-0.38978381"><ele>19.4</ele><time>2022-11-02T17:04:25.0000000+00:00</time></trkpt><trkpt lat="39.47880744" lon="-0.38978272"><ele>19.4</ele><time>2022-11-02T17:04:26.0000000+00:00</time></trkpt><trkpt lat="39.47881599" lon="-0.38978264"><ele>19.4</ele><time>2022-11-02T17:04:27.0000000+00:00</time></trkpt><trkpt lat="39.4788211" lon="-0.38978306"><ele>19.4</ele><time>2022-11-02T17:04:28.0000000+00:00</time></trkpt><trkpt lat="39.47882664" lon="-0.38977551"><ele>19.4</ele><time>2022-11-02T17:04:29.0000000+00:00</time></trkpt><trkpt lat="39.47881482" lon="-0.38977786"><ele>19.4</ele><time>2022-11-02T17:04:30.0000000+00:00</time></trkpt><trkpt lat="39.47881012" lon="-0.38977308"><ele>19.4</ele><time>2022-11-02T17:04:31.0000000+00:00</time></trkpt><trkpt lat="39.47881121" lon="-0.38976604"><ele>19.4</ele><time>2022-11-02T17:04:32.0000000+00:00</time></trkpt><trkpt lat="39.47880853" lon="-0.3897538"><ele>19.4</ele><time>2022-11-02T17:04:33.0000000+00:00</time></trkpt><trkpt lat="39.47880928" lon="-0.38974752"><ele>19.4</ele><time>2022-11-02T17:04:34.0000000+00:00</time></trkpt><trkpt lat="39.47880979" lon="-0.38974802"><ele>19.4</ele><time>2022-11-02T17:04:35.0000000+00:00</time></trkpt><trkpt lat="39.47880719" lon="-0.38974827"><ele>19.4</ele><time>2022-11-02T17:04:36.0000000+00:00</time></trkpt><trkpt lat="39.47880769" lon="-0.38975028"><ele>19.4</ele><time>2022-11-02T17:04:37.0000000+00:00</time></trkpt><trkpt lat="39.47882337" lon="-0.38974383"><ele>19.4</ele><time>2022-11-02T17:04:38.0000000+00:00</time></trkpt><trkpt lat="39.47883694" lon="-0.38973226"><ele>19.4</ele><time>2022-11-02T17:04:39.0000000+00:00</time></trkpt><trkpt lat="39.47883611" lon="-0.38973344"><ele>19.4</ele><time>2022-11-02T17:04:40.0000000+00:00</time></trkpt><trkpt lat="39.47883644" lon="-0.3897336"><ele>19.4</ele><time>2022-11-02T17:04:41.0000000+00:00</time></trkpt><trkpt lat="39.47884097" lon="-0.38973595"><ele>19.4</ele><time>2022-11-02T17:04:42.0000000+00:00</time></trkpt><trkpt lat="39.47883627" lon="-0.38974408"><ele>19.4</ele><time>2022-11-02T17:04:43.0000000+00:00</time></trkpt><trkpt lat="39.47883795" lon="-0.3897476"><ele>19.4</ele><time>2022-11-02T17:04:44.0000000+00:00</time></trkpt><trkpt lat="39.47883728" lon="-0.38975129"><ele>19.4</ele><time>2022-11-02T17:04:45.0000000+00:00</time></trkpt><trkpt lat="39.47883552" lon="-0.38975179"><ele>19.4</ele><time>2022-11-02T17:04:46.0000000+00:00</time></trkpt><trkpt lat="39.47883259" lon="-0.3897507"><ele>19.4</ele><time>2022-11-02T17:04:47.0000000+00:00</time></trkpt><trkpt lat="39.47882328" lon="-0.38973461"><ele>19.4</ele><time>2022-11-02T17:04:48.0000000+00:00</time></trkpt><trkpt lat="39.47882219" lon="-0.38973209"><ele>19.4</ele><time>2022-11-02T17:04:49.0000000+00:00</time></trkpt><trkpt lat="39.47881951" lon="-0.38973059"><ele>19.4</ele><time>2022-11-02T17:04:50.0000000+00:00</time></trkpt><trkpt lat="39.47881322" lon="-0.38972673"><ele>19.4</ele><time>2022-11-02T17:04:51.0000000+00:00</time></trkpt><trkpt lat="39.47881239" lon="-0.38972447"><ele>19.4</ele><time>2022-11-02T17:04:52.0000000+00:00</time></trkpt><trkpt lat="39.47881239" lon="-0.38972003"><ele>19.4</ele><time>2022-11-02T17:04:53.0000000+00:00</time></trkpt><trkpt lat="39.47881239" lon="-0.38971617"><ele>19.4</ele><time>2022-11-02T17:04:54.0000000+00:00</time></trkpt><trkpt lat="39.4788144" lon="-0.38971374"><ele>19.4</ele><time>2022-11-02T17:04:55.0000000+00:00</time></trkpt><trkpt lat="39.4788175" lon="-0.38971055"><ele>19.4</ele><time>2022-11-02T17:04:56.0000000+00:00</time></trkpt><trkpt lat="39.47881792" lon="-0.38970888"><ele>19.4</ele><time>2022-11-02T17:04:57.0000000+00:00</time></trkpt><trkpt lat="39.47881792" lon="-0.38970888"><ele>19.4</ele><time>2022-11-02T17:04:58.0000000+00:00</time></trkpt><trkpt lat="39.47881792" lon="-0.38970888"><ele>19.4</ele><time>2022-11-02T17:04:59.0000000+00:00</time></trkpt><trkpt lat="39.47881792" lon="-0.38970888"><ele>19.4</ele><time>2022-11-02T17:05:00.0000000+00:00</time></trkpt><trkpt lat="39.47881792" lon="-0.38970888"><ele>19.4</ele><time>2022-11-02T17:05:01.0000000+00:00</time></trkpt><trkpt lat="39.47881792" lon="-0.38970888"><ele>19.4</ele><time>2022-11-02T17:05:02.0000000+00:00</time></trkpt><trkpt lat="39.47881792" lon="-0.38970888"><ele>19.4</ele><time>2022-11-02T17:05:03.0000000+00:00</time></trkpt><trkpt lat="39.47881792" lon="-0.38970888"><ele>19.4</ele><time>2022-11-02T17:05:04.0000000+00:00</time></trkpt><trkpt lat="39.47881792" lon="-0.38970888"><ele>19.4</ele><time>2022-11-02T17:05:05.0000000+00:00</time></trkpt><trkpt lat="39.47881792" lon="-0.38970888"><ele>19.4</ele><time>2022-11-02T17:05:06.0000000+00:00</time></trkpt><trkpt lat="39.47881792" lon="-0.38970888"><ele>19.4</ele><time>2022-11-02T17:05:07.0000000+00:00</time></trkpt><trkpt lat="39.47881792" lon="-0.38971005"><ele>19.4</ele><time>2022-11-02T17:05:08.0000000+00:00</time></trkpt><trkpt lat="39.47881792" lon="-0.38971047"><ele>19.4</ele><time>2022-11-02T17:05:09.0000000+00:00</time></trkpt><trkpt lat="39.47881792" lon="-0.38971223"><ele>19.4</ele><time>2022-11-02T17:05:10.0000000+00:00</time></trkpt><trkpt lat="39.47881792" lon="-0.38971365"><ele>19.4</ele><time>2022-11-02T17:05:11.0000000+00:00</time></trkpt><trkpt lat="39.47881792" lon="-0.38971407"><ele>19.4</ele><time>2022-11-02T17:05:12.0000000+00:00</time></trkpt><trkpt lat="39.47881792" lon="-0.389716"><ele>19.4</ele><time>2022-11-02T17:05:13.0000000+00:00</time></trkpt><trkpt lat="39.47881792" lon="-0.38971843"><ele>19.4</ele><time>2022-11-02T17:05:14.0000000+00:00</time></trkpt><trkpt lat="39.47881792" lon="-0.38971961"><ele>19.4</ele><time>2022-11-02T17:05:15.0000000+00:00</time></trkpt><trkpt lat="39.4788175" lon="-0.38971969"><ele>19.4</ele><time>2022-11-02T17:05:16.0000000+00:00</time></trkpt><trkpt lat="39.47881465" lon="-0.38971969"><ele>19.4</ele><time>2022-11-02T17:05:17.0000000+00:00</time></trkpt><trkpt lat="39.47881339" lon="-0.38971969"><ele>19.4</ele><time>2022-11-02T17:05:18.0000000+00:00</time></trkpt><trkpt lat="39.47881247" lon="-0.38971935"><ele>19.4</ele><time>2022-11-02T17:05:19.0000000+00:00</time></trkpt><trkpt lat="39.47881239" lon="-0.38971877"><ele>19.4</ele><time>2022-11-02T17:05:20.0000000+00:00</time></trkpt><trkpt lat="39.47881239" lon="-0.38971642"><ele>19.4</ele><time>2022-11-02T17:05:21.0000000+00:00</time></trkpt><trkpt lat="39.47881113" lon="-0.38971617"><ele>19.4</ele><time>2022-11-02T17:05:22.0000000+00:00</time></trkpt><trkpt lat="39.47880903" lon="-0.38971617"><ele>19.4</ele><time>2022-11-02T17:05:23.0000000+00:00</time></trkpt><trkpt lat="39.47880803" lon="-0.38971617"><ele>19.4</ele><time>2022-11-02T17:05:24.0000000+00:00</time></trkpt><trkpt lat="39.47880711" lon="-0.38971617"><ele>19.4</ele><time>2022-11-02T17:05:25.0000000+00:00</time></trkpt><trkpt lat="39.47880694" lon="-0.38971617"><ele>19.4</ele><time>2022-11-02T17:05:26.0000000+00:00</time></trkpt><trkpt lat="39.47880627" lon="-0.38971617"><ele>19.4</ele><time>2022-11-02T17:05:27.0000000+00:00</time></trkpt><trkpt lat="39.47880576" lon="-0.38971617"><ele>19.4</ele><time>2022-11-02T17:05:28.0000000+00:00</time></trkpt><trkpt lat="39.47880535" lon="-0.38971617"><ele>19.4</ele><time>2022-11-02T17:05:29.0000000+00:00</time></trkpt><trkpt lat="39.47880518" lon="-0.38971617"><ele>19.4</ele><time>2022-11-02T17:05:30.0000000+00:00</time></trkpt><trkpt lat="39.47880493" lon="-0.38971617"><ele>19.4</ele><time>2022-11-02T17:05:31.0000000+00:00</time></trkpt><trkpt lat="39.47880476" lon="-0.38971617"><ele>19.4</ele><time>2022-11-02T17:05:32.0000000+00:00</time></trkpt><trkpt lat="39.47880216" lon="-0.38971617"><ele>19.4</ele><time>2022-11-02T17:05:33.0000000+00:00</time></trkpt><trkpt lat="39.47879973" lon="-0.38971609"><ele>19.4</ele><time>2022-11-02T17:05:34.0000000+00:00</time></trkpt><trkpt lat="39.47879487" lon="-0.38971541"><ele>19.4</ele><time>2022-11-02T17:05:35.0000000+00:00</time></trkpt><trkpt lat="39.4787885" lon="-0.38971491"><ele>19.4</ele><time>2022-11-02T17:05:36.0000000+00:00</time></trkpt><trkpt lat="39.47878271" lon="-0.38971474"><ele>19.4</ele><time>2022-11-02T17:05:37.0000000+00:00</time></trkpt><trkpt lat="39.47878053" lon="-0.38971315"><ele>19.4</ele><time>2022-11-02T17:05:38.0000000+00:00</time></trkpt><trkpt lat="39.47877886" lon="-0.38971181"><ele>19.4</ele><time>2022-11-02T17:05:39.0000000+00:00</time></trkpt><trkpt lat="39.47877718" lon="-0.38971097"><ele>19.4</ele><time>2022-11-02T17:05:40.0000000+00:00</time></trkpt><trkpt lat="39.47877618" lon="-0.38971055"><ele>19.4</ele><time>2022-11-02T17:05:41.0000000+00:00</time></trkpt><trkpt lat="39.47877592" lon="-0.38970963"><ele>19.4</ele><time>2022-11-02T17:05:42.0000000+00:00</time></trkpt><trkpt lat="39.47877567" lon="-0.38970854"><ele>19.4</ele><time>2022-11-02T17:05:43.0000000+00:00</time></trkpt><trkpt lat="39.47877525" lon="-0.38970754"><ele>19.4</ele><time>2022-11-02T17:05:44.0000000+00:00</time></trkpt><trkpt lat="39.47877073" lon="-0.38970594"><ele>19.4</ele><time>2022-11-02T17:05:45.0000000+00:00</time></trkpt><trkpt lat="39.47876503" lon="-0.38970536"><ele>19.4</ele><time>2022-11-02T17:05:46.0000000+00:00</time></trkpt><trkpt lat="39.47876117" lon="-0.38970477"><ele>19.4</ele><time>2022-11-02T17:05:47.0000000+00:00</time></trkpt><trkpt lat="39.47875891" lon="-0.38970443"><ele>19.4</ele><time>2022-11-02T17:05:48.0000000+00:00</time></trkpt><trkpt lat="39.47875824" lon="-0.38970435"><ele>19.4</ele><time>2022-11-02T17:05:49.0000000+00:00</time></trkpt><trkpt lat="39.4787579" lon="-0.38970402"><ele>19.4</ele><time>2022-11-02T17:05:50.0000000+00:00</time></trkpt><trkpt lat="39.47875774" lon="-0.3897036"><ele>19.4</ele><time>2022-11-02T17:05:51.0000000+00:00</time></trkpt><trkpt lat="39.4787574" lon="-0.38970343"><ele>19.4</ele><time>2022-11-02T17:05:52.0000000+00:00</time></trkpt><trkpt lat="39.47875673" lon="-0.38970242"><ele>19.4</ele><time>2022-11-02T17:05:53.0000000+00:00</time></trkpt><trkpt lat="39.47875656" lon="-0.38970125"><ele>19.4</ele><time>2022-11-02T17:05:54.0000000+00:00</time></trkpt><trkpt lat="39.47875639" lon="-0.38969999"><ele>19.4</ele><time>2022-11-02T17:05:55.0000000+00:00</time></trkpt><trkpt lat="39.47875581" lon="-0.3896979"><ele>19.4</ele><time>2022-11-02T17:05:56.0000000+00:00</time></trkpt><trkpt lat="39.47875564" lon="-0.38969656"><ele>19.4</ele><time>2022-11-02T17:05:57.0000000+00:00</time></trkpt><trkpt lat="39.4787543" lon="-0.38969555"><ele>19.4</ele><time>2022-11-02T17:05:58.0000000+00:00</time></trkpt><trkpt lat="39.47875396" lon="-0.38969505"><ele>19.4</ele><time>2022-11-02T17:05:59.0000000+00:00</time></trkpt><trkpt lat="39.4787538" lon="-0.38969404"><ele>19.4</ele><time>2022-11-02T17:06:00.0000000+00:00</time></trkpt><trkpt lat="39.4787538" lon="-0.38969362"><ele>19.4</ele><time>2022-11-02T17:06:01.0000000+00:00</time></trkpt><trkpt lat="39.4787538" lon="-0.38969337"><ele>19.4</ele><time>2022-11-02T17:06:02.0000000+00:00</time></trkpt><trkpt lat="39.4787538" lon="-0.38969278"><ele>19.4</ele><time>2022-11-02T17:06:03.0000000+00:00</time></trkpt><trkpt lat="39.4787538" lon="-0.3896922"><ele>19.4</ele><time>2022-11-02T17:06:04.0000000+00:00</time></trkpt><trkpt lat="39.4787538" lon="-0.38969195"><ele>19.4</ele><time>2022-11-02T17:06:05.0000000+00:00</time></trkpt><trkpt lat="39.4787538" lon="-0.38969178"><ele>19.4</ele><time>2022-11-02T17:06:06.0000000+00:00</time></trkpt><trkpt lat="39.4787538" lon="-0.38969161"><ele>19.4</ele><time>2022-11-02T17:06:07.0000000+00:00</time></trkpt><trkpt lat="39.4787538" lon="-0.38969153"><ele>19.4</ele><time>2022-11-02T17:06:08.0000000+00:00</time></trkpt><trkpt lat="39.4787538" lon="-0.38969153"><ele>19.4</ele><time>2022-11-02T17:06:09.0000000+00:00</time></trkpt><trkpt lat="39.4787538" lon="-0.38969144"><ele>19.4</ele><time>2022-11-02T17:06:10.0000000+00:00</time></trkpt><trkpt lat="39.4787538" lon="-0.38969136"><ele>19.4</ele><time>2022-11-02T17:06:11.0000000+00:00</time></trkpt><trkpt lat="39.4787538" lon="-0.38969128"><ele>19.4</ele><time>2022-11-02T17:06:12.0000000+00:00</time></trkpt><trkpt lat="39.47875556" lon="-0.38969119"><ele>19.4</ele><time>2022-11-02T17:06:13.0000000+00:00</time></trkpt><trkpt lat="39.4787574" lon="-0.38969119"><ele>19.4</ele><time>2022-11-02T17:06:14.0000000+00:00</time></trkpt><trkpt lat="39.47875849" lon="-0.38969119"><ele>19.4</ele><time>2022-11-02T17:06:15.0000000+00:00</time></trkpt><trkpt lat="39.47876218" lon="-0.38969421"><ele>19.4</ele><time>2022-11-02T17:06:16.0000000+00:00</time></trkpt><trkpt lat="39.47877408" lon="-0.3897072"><ele>19.4</ele><time>2022-11-02T17:06:17.0000000+00:00</time></trkpt><trkpt lat="39.4787833" lon="-0.38971835"><ele>19.4</ele><time>2022-11-02T17:06:18.0000000+00:00</time></trkpt><trkpt lat="39.47879554" lon="-0.38972925"><ele>19.4</ele><time>2022-11-02T17:06:19.0000000+00:00</time></trkpt><trkpt lat="39.47880895" lon="-0.38973838"><ele>19.4</ele><time>2022-11-02T17:06:20.0000000+00:00</time></trkpt><trkpt lat="39.4788242" lon="-0.38974693"><ele>19.4</ele><time>2022-11-02T17:06:21.0000000+00:00</time></trkpt><trkpt lat="39.47883862" lon="-0.38975774"><ele>19.4</ele><time>2022-11-02T17:06:22.0000000+00:00</time></trkpt><trkpt lat="39.47885354" lon="-0.38977283"><ele>19.4</ele><time>2022-11-02T17:06:23.0000000+00:00</time></trkpt><trkpt lat="39.4788672" lon="-0.38978767"><ele>19.4</ele><time>2022-11-02T17:06:24.0000000+00:00</time></trkpt><trkpt lat="39.47887869" lon="-0.38980234"><ele>19.4</ele><time>2022-11-02T17:06:25.0000000+00:00</time></trkpt><trkpt lat="39.47888355" lon="-0.3898129"><ele>19.4</ele><time>2022-11-02T17:06:26.0000000+00:00</time></trkpt><trkpt lat="39.47888816" lon="-0.38982312"><ele>19.4</ele><time>2022-11-02T17:06:27.0000000+00:00</time></trkpt><trkpt lat="39.47889646" lon="-0.38982924"><ele>19.2</ele><time>2022-11-02T17:06:28.0000000+00:00</time></trkpt><trkpt lat="39.47890819" lon="-0.3898336"><ele>19.2</ele><time>2022-11-02T17:06:29.0000000+00:00</time></trkpt><trkpt lat="39.47891808" lon="-0.38984123"><ele>19.0</ele><time>2022-11-02T17:06:30.0000000+00:00</time></trkpt><trkpt lat="39.47892848" lon="-0.38984902"><ele>19.0</ele><time>2022-11-02T17:06:31.0000000+00:00</time></trkpt><trkpt lat="39.47894172" lon="-0.38985196"><ele>19.0</ele><time>2022-11-02T17:06:32.0000000+00:00</time></trkpt><trkpt lat="39.478947" lon="-0.38985305"><ele>19.0</ele><time>2022-11-02T17:06:33.0000000+00:00</time></trkpt><trkpt lat="39.47895806" lon="-0.38985388"><ele>19.0</ele><time>2022-11-02T17:06:34.0000000+00:00</time></trkpt><trkpt lat="39.47896418" lon="-0.38985984"><ele>19.0</ele><time>2022-11-02T17:06:35.0000000+00:00</time></trkpt><trkpt lat="39.47896963" lon="-0.38987014"><ele>19.0</ele><time>2022-11-02T17:06:36.0000000+00:00</time></trkpt><trkpt lat="39.47897726" lon="-0.38987735"><ele>19.0</ele><time>2022-11-02T17:06:37.0000000+00:00</time></trkpt><trkpt lat="39.47898405" lon="-0.38988398"><ele>19.0</ele><time>2022-11-02T17:06:38.0000000+00:00</time></trkpt><trkpt lat="39.47898698" lon="-0.38989428"><ele>19.0</ele><time>2022-11-02T17:06:39.0000000+00:00</time></trkpt><trkpt lat="39.4789952" lon="-0.38990317"><ele>19.0</ele><time>2022-11-02T17:06:40.0000000+00:00</time></trkpt><trkpt lat="39.47900701" lon="-0.38991055"><ele>19.0</ele><time>2022-11-02T17:06:41.0000000+00:00</time></trkpt><trkpt lat="39.47901657" lon="-0.38992086"><ele>19.0</ele><time>2022-11-02T17:06:42.0000000+00:00</time></trkpt><trkpt lat="39.47902763" lon="-0.38993024"><ele>19.0</ele><time>2022-11-02T17:06:43.0000000+00:00</time></trkpt><trkpt lat="39.47903425" lon="-0.38993611"><ele>19.0</ele><time>2022-11-02T17:06:44.0000000+00:00</time></trkpt><trkpt lat="39.47904029" lon="-0.38994106"><ele>19.0</ele><time>2022-11-02T17:06:45.0000000+00:00</time></trkpt><trkpt lat="39.47904347" lon="-0.38994474"><ele>18.8</ele><time>2022-11-02T17:06:46.0000000+00:00</time></trkpt><trkpt lat="39.47904498" lon="-0.38995413"><ele>18.8</ele><time>2022-11-02T17:06:47.0000000+00:00</time></trkpt><trkpt lat="39.47905328" lon="-0.3899636"><ele>18.8</ele><time>2022-11-02T17:06:48.0000000+00:00</time></trkpt><trkpt lat="39.47905907" lon="-0.38996897"><ele>18.6</ele><time>2022-11-02T17:06:49.0000000+00:00</time></trkpt><trkpt lat="39.479062" lon="-0.38996855"><ele>18.6</ele><time>2022-11-02T17:06:50.0000000+00:00</time></trkpt><trkpt lat="39.47906317" lon="-0.38996763"><ele>18.6</ele><time>2022-11-02T17:06:51.0000000+00:00</time></trkpt><trkpt lat="39.47906192" lon="-0.38996779"><ele>18.4</ele><time>2022-11-02T17:06:52.0000000+00:00</time></trkpt><trkpt lat="39.47905278" lon="-0.38994801"><ele>18.4</ele><time>2022-11-02T17:06:53.0000000+00:00</time></trkpt><trkpt lat="39.47905035" lon="-0.38994843"><ele>18.4</ele><time>2022-11-02T17:06:54.0000000+00:00</time></trkpt><trkpt lat="39.47904339" lon="-0.38994416"><ele>18.4</ele><time>2022-11-02T17:06:55.0000000+00:00</time></trkpt><trkpt lat="39.47904188" lon="-0.38994424"><ele>18.4</ele><time>2022-11-02T17:06:56.0000000+00:00</time></trkpt><trkpt lat="39.47904146" lon="-0.38994357"><ele>18.4</ele><time>2022-11-02T17:06:57.0000000+00:00</time></trkpt><trkpt lat="39.47904113" lon="-0.38994349"><ele>18.4</ele><time>2022-11-02T17:06:58.0000000+00:00</time></trkpt><trkpt lat="39.47904104" lon="-0.38994374"><ele>18.4</ele><time>2022-11-02T17:06:59.0000000+00:00</time></trkpt><trkpt lat="39.47904104" lon="-0.38994374"><ele>18.4</ele><time>2022-11-02T17:07:00.0000000+00:00</time></trkpt><trkpt lat="39.47904104" lon="-0.38994374"><ele>18.4</ele><time>2022-11-02T17:07:01.0000000+00:00</time></trkpt><trkpt lat="39.47904104" lon="-0.38994374"><ele>18.4</ele><time>2022-11-02T17:07:02.0000000+00:00</time></trkpt><trkpt lat="39.47904104" lon="-0.38994374"><ele>18.4</ele><time>2022-11-02T17:07:03.0000000+00:00</time></trkpt><trkpt lat="39.47904104" lon="-0.38994374"><ele>18.4</ele><time>2022-11-02T17:07:04.0000000+00:00</time></trkpt><trkpt lat="39.47904104" lon="-0.38994374"><ele>18.4</ele><time>2022-11-02T17:07:05.0000000+00:00</time></trkpt><trkpt lat="39.47904104" lon="-0.38994374"><ele>18.4</ele><time>2022-11-02T17:07:06.0000000+00:00</time></trkpt><trkpt lat="39.47904113" lon="-0.38994374"><ele>18.4</ele><time>2022-11-02T17:07:07.0000000+00:00</time></trkpt><trkpt lat="39.47904088" lon="-0.38994726"><ele>18.4</ele><time>2022-11-02T17:07:08.0000000+00:00</time></trkpt><trkpt lat="39.47903652" lon="-0.38996151"><ele>18.4</ele><time>2022-11-02T17:07:09.0000000+00:00</time></trkpt><trkpt lat="39.47903065" lon="-0.38997509"><ele>18.4</ele><time>2022-11-02T17:07:10.0000000+00:00</time></trkpt><trkpt lat="39.47902856" lon="-0.38998741"><ele>18.4</ele><time>2022-11-02T17:07:11.0000000+00:00</time></trkpt><trkpt lat="39.47902763" lon="-0.3900009"><ele>18.4</ele><time>2022-11-02T17:07:12.0000000+00:00</time></trkpt><trkpt lat="39.47902646" lon="-0.39001649"><ele>18.4</ele><time>2022-11-02T17:07:13.0000000+00:00</time></trkpt><trkpt lat="39.4790242" lon="-0.3900294"><ele>18.4</ele><time>2022-11-02T17:07:14.0000000+00:00</time></trkpt><trkpt lat="39.47902093" lon="-0.39004382"><ele>18.4</ele><time>2022-11-02T17:07:15.0000000+00:00</time></trkpt><trkpt lat="39.47901908" lon="-0.39005991"><ele>18.4</ele><time>2022-11-02T17:07:16.0000000+00:00</time></trkpt><trkpt lat="39.47901934" lon="-0.39008112"><ele>18.4</ele><time>2022-11-02T17:07:17.0000000+00:00</time></trkpt><trkpt lat="39.47901607" lon="-0.39009838"><ele>18.4</ele><time>2022-11-02T17:07:18.0000000+00:00</time></trkpt><trkpt lat="39.47901213" lon="-0.39011414"><ele>18.4</ele><time>2022-11-02T17:07:19.0000000+00:00</time></trkpt><trkpt lat="39.47900869" lon="-0.39012353"><ele>18.4</ele><time>2022-11-02T17:07:20.0000000+00:00</time></trkpt><trkpt lat="39.4790055" lon="-0.3901335"><ele>18.4</ele><time>2022-11-02T17:07:21.0000000+00:00</time></trkpt><trkpt lat="39.479004" lon="-0.39014272"><ele>18.4</ele><time>2022-11-02T17:07:22.0000000+00:00</time></trkpt><trkpt lat="39.47900324" lon="-0.39015647"><ele>18.4</ele><time>2022-11-02T17:07:23.0000000+00:00</time></trkpt><trkpt lat="39.47899872" lon="-0.39016955"><ele>18.4</ele><time>2022-11-02T17:07:24.0000000+00:00</time></trkpt><trkpt lat="39.47899805" lon="-0.39018547"><ele>18.4</ele><time>2022-11-02T17:07:25.0000000+00:00</time></trkpt><trkpt lat="39.47899419" lon="-0.39019939"><ele>18.4</ele><time>2022-11-02T17:07:26.0000000+00:00</time></trkpt><trkpt lat="39.4789895" lon="-0.39021581"><ele>18.4</ele><time>2022-11-02T17:07:27.0000000+00:00</time></trkpt><trkpt lat="39.47898463" lon="-0.39023224"><ele>18.4</ele><time>2022-11-02T17:07:28.0000000+00:00</time></trkpt><trkpt lat="39.47898128" lon="-0.39024406"><ele>18.6</ele><time>2022-11-02T17:07:29.0000000+00:00</time></trkpt><trkpt lat="39.47897466" lon="-0.39025907"><ele>18.6</ele><time>2022-11-02T17:07:30.0000000+00:00</time></trkpt><trkpt lat="39.47897156" lon="-0.39026753"><ele>18.6</ele><time>2022-11-02T17:07:31.0000000+00:00</time></trkpt><trkpt lat="39.4789677" lon="-0.39027994"><ele>18.6</ele><time>2022-11-02T17:07:32.0000000+00:00</time></trkpt><trkpt lat="39.47896477" lon="-0.39029142"><ele>18.6</ele><time>2022-11-02T17:07:33.0000000+00:00</time></trkpt><trkpt lat="39.47896284" lon="-0.39030399"><ele>18.6</ele><time>2022-11-02T17:07:34.0000000+00:00</time></trkpt><trkpt lat="39.47896066" lon="-0.39031338"><ele>18.6</ele><time>2022-11-02T17:07:35.0000000+00:00</time></trkpt><trkpt lat="39.47895572" lon="-0.39032134"><ele>18.6</ele><time>2022-11-02T17:07:36.0000000+00:00</time></trkpt><trkpt lat="39.47894926" lon="-0.39032989"><ele>18.6</ele><time>2022-11-02T17:07:37.0000000+00:00</time></trkpt><trkpt lat="39.47894105" lon="-0.39033903"><ele>18.6</ele><time>2022-11-02T17:07:38.0000000+00:00</time></trkpt><trkpt lat="39.47893417" lon="-0.39035227"><ele>18.6</ele><time>2022-11-02T17:07:39.0000000+00:00</time></trkpt><trkpt lat="39.47893283" lon="-0.39036132"><ele>18.6</ele><time>2022-11-02T17:07:40.0000000+00:00</time></trkpt><trkpt lat="39.478932" lon="-0.39037365"><ele>18.6</ele><time>2022-11-02T17:07:41.0000000+00:00</time></trkpt><trkpt lat="39.47892982" lon="-0.39038739"><ele>18.6</ele><time>2022-11-02T17:07:42.0000000+00:00</time></trkpt><trkpt lat="39.4789278" lon="-0.39039955"><ele>18.6</ele><time>2022-11-02T17:07:43.0000000+00:00</time></trkpt><trkpt lat="39.47892537" lon="-0.39040851"><ele>18.6</ele><time>2022-11-02T17:07:44.0000000+00:00</time></trkpt><trkpt lat="39.4789242" lon="-0.39041891"><ele>18.6</ele><time>2022-11-02T17:07:45.0000000+00:00</time></trkpt><trkpt lat="39.47892328" lon="-0.39042972"><ele>18.6</ele><time>2022-11-02T17:07:46.0000000+00:00</time></trkpt><trkpt lat="39.47892269" lon="-0.39044179"><ele>18.6</ele><time>2022-11-02T17:07:47.0000000+00:00</time></trkpt><trkpt lat="39.47891934" lon="-0.39045227"><ele>18.6</ele><time>2022-11-02T17:07:48.0000000+00:00</time></trkpt><trkpt lat="39.47891565" lon="-0.39045914"><ele>18.6</ele><time>2022-11-02T17:07:49.0000000+00:00</time></trkpt><trkpt lat="39.47891456" lon="-0.39046618"><ele>18.6</ele><time>2022-11-02T17:07:50.0000000+00:00</time></trkpt><trkpt lat="39.47891071" lon="-0.39047347"><ele>18.6</ele><time>2022-11-02T17:07:51.0000000+00:00</time></trkpt><trkpt lat="39.47891029" lon="-0.39048437"><ele>18.6</ele><time>2022-11-02T17:07:52.0000000+00:00</time></trkpt><trkpt lat="39.47891138" lon="-0.39049678"><ele>18.6</ele><time>2022-11-02T17:07:53.0000000+00:00</time></trkpt><trkpt lat="39.47891037" lon="-0.39051027"><ele>18.6</ele><time>2022-11-02T17:07:54.0000000+00:00</time></trkpt><trkpt lat="39.47890651" lon="-0.39052117"><ele>18.6</ele><time>2022-11-02T17:07:55.0000000+00:00</time></trkpt><trkpt lat="39.47890216" lon="-0.39053709"><ele>18.6</ele><time>2022-11-02T17:07:56.0000000+00:00</time></trkpt><trkpt lat="39.47889947" lon="-0.39054816"><ele>18.6</ele><time>2022-11-02T17:07:57.0000000+00:00</time></trkpt><trkpt lat="39.47889436" lon="-0.39056618"><ele>18.6</ele><time>2022-11-02T17:07:58.0000000+00:00</time></trkpt><trkpt lat="39.47889059" lon="-0.39058001"><ele>18.6</ele><time>2022-11-02T17:07:59.0000000+00:00</time></trkpt><trkpt lat="39.47888833" lon="-0.39059074"><ele>18.6</ele><time>2022-11-02T17:08:00.0000000+00:00</time></trkpt><trkpt lat="39.4788833" lon="-0.3906049"><ele>18.6</ele><time>2022-11-02T17:08:01.0000000+00:00</time></trkpt><trkpt lat="39.4788781" lon="-0.39062368"><ele>18.8</ele><time>2022-11-02T17:08:02.0000000+00:00</time></trkpt><trkpt lat="39.47887491" lon="-0.39063382"><ele>18.6</ele><time>2022-11-02T17:08:03.0000000+00:00</time></trkpt><trkpt lat="39.47887408" lon="-0.39064094"><ele>18.8</ele><time>2022-11-02T17:08:04.0000000+00:00</time></trkpt><trkpt lat="39.47886854" lon="-0.39065578"><ele>18.8</ele><time>2022-11-02T17:08:05.0000000+00:00</time></trkpt><trkpt lat="39.47886201" lon="-0.39066852"><ele>18.8</ele><time>2022-11-02T17:08:06.0000000+00:00</time></trkpt><trkpt lat="39.47885555" lon="-0.39068026"><ele>18.8</ele><time>2022-11-02T17:08:07.0000000+00:00</time></trkpt><trkpt lat="39.47885195" lon="-0.39069333"><ele>18.8</ele><time>2022-11-02T17:08:08.0000000+00:00</time></trkpt><trkpt lat="39.47884759" lon="-0.39070414"><ele>18.8</ele><time>2022-11-02T17:08:09.0000000+00:00</time></trkpt><trkpt lat="39.47884088" lon="-0.39071479"><ele>18.8</ele><time>2022-11-02T17:08:10.0000000+00:00</time></trkpt><trkpt lat="39.4788377" lon="-0.39072384"><ele>18.8</ele><time>2022-11-02T17:08:11.0000000+00:00</time></trkpt><trkpt lat="39.47883938" lon="-0.39073331"><ele>18.8</ele><time>2022-11-02T17:08:12.0000000+00:00</time></trkpt><trkpt lat="39.47884097" lon="-0.3907365"><ele>18.8</ele><time>2022-11-02T17:08:13.0000000+00:00</time></trkpt><trkpt lat="39.47884147" lon="-0.39073759"><ele>18.8</ele><time>2022-11-02T17:08:14.0000000+00:00</time></trkpt><trkpt lat="39.47884155" lon="-0.39073826"><ele>18.8</ele><time>2022-11-02T17:08:15.0000000+00:00</time></trkpt><trkpt lat="39.4788465" lon="-0.39074228"><ele>18.8</ele><time>2022-11-02T17:08:16.0000000+00:00</time></trkpt><trkpt lat="39.47885463" lon="-0.39074991"><ele>18.8</ele><time>2022-11-02T17:08:17.0000000+00:00</time></trkpt><trkpt lat="39.47886268" lon="-0.3907577"><ele>18.8</ele><time>2022-11-02T17:08:18.0000000+00:00</time></trkpt><trkpt lat="39.47887215" lon="-0.39076709"><ele>18.8</ele><time>2022-11-02T17:08:19.0000000+00:00</time></trkpt><trkpt lat="39.47888095" lon="-0.39077891"><ele>18.8</ele><time>2022-11-02T17:08:20.0000000+00:00</time></trkpt><trkpt lat="39.47889461" lon="-0.39078863"><ele>18.8</ele><time>2022-11-02T17:08:21.0000000+00:00</time></trkpt><trkpt lat="39.47890853" lon="-0.3907966"><ele>19.0</ele><time>2022-11-02T17:08:22.0000000+00:00</time></trkpt><trkpt lat="39.47891775" lon="-0.39080473"><ele>19.0</ele><time>2022-11-02T17:08:23.0000000+00:00</time></trkpt><trkpt lat="39.47892646" lon="-0.39081361"><ele>19.0</ele><time>2022-11-02T17:08:24.0000000+00:00</time></trkpt><trkpt lat="39.4789325" lon="-0.39082308"><ele>19.0</ele><time>2022-11-02T17:08:25.0000000+00:00</time></trkpt><trkpt lat="39.47893987" lon="-0.3908266"><ele>19.0</ele><time>2022-11-02T17:08:26.0000000+00:00</time></trkpt><trkpt lat="39.47894499" lon="-0.39082903"><ele>19.0</ele><time>2022-11-02T17:08:27.0000000+00:00</time></trkpt><trkpt lat="39.47894742" lon="-0.39083063"><ele>19.0</ele><time>2022-11-02T17:08:28.0000000+00:00</time></trkpt><trkpt lat="39.47894809" lon="-0.3908318"><ele>19.0</ele><time>2022-11-02T17:08:29.0000000+00:00</time></trkpt><trkpt lat="39.47894851" lon="-0.39083289"><ele>19.0</ele><time>2022-11-02T17:08:30.0000000+00:00</time></trkpt><trkpt lat="39.47894826" lon="-0.39083239"><ele>19.0</ele><time>2022-11-02T17:08:31.0000000+00:00</time></trkpt><trkpt lat="39.47894817" lon="-0.39083188"><ele>19.0</ele><time>2022-11-02T17:08:32.0000000+00:00</time></trkpt><trkpt lat="39.47894834" lon="-0.39083214"><ele>19.0</ele><time>2022-11-02T17:08:33.0000000+00:00</time></trkpt><trkpt lat="39.47894884" lon="-0.39083247"><ele>19.0</ele><time>2022-11-02T17:08:34.0000000+00:00</time></trkpt><trkpt lat="39.47894851" lon="-0.39083239"><ele>19.0</ele><time>2022-11-02T17:08:35.0000000+00:00</time></trkpt><trkpt lat="39.47894826" lon="-0.39083264"><ele>19.0</ele><time>2022-11-02T17:08:36.0000000+00:00</time></trkpt><trkpt lat="39.47894725" lon="-0.39083289"><ele>19.0</ele><time>2022-11-02T17:08:37.0000000+00:00</time></trkpt><trkpt lat="39.47894683" lon="-0.3908323"><ele>19.0</ele><time>2022-11-02T17:08:38.0000000+00:00</time></trkpt><trkpt lat="39.47894583" lon="-0.39083071"><ele>19.0</ele><time>2022-11-02T17:08:39.0000000+00:00</time></trkpt><trkpt lat="39.47894658" lon="-0.39083012"><ele>19.0</ele><time>2022-11-02T17:08:40.0000000+00:00</time></trkpt><trkpt lat="39.47894658" lon="-0.39083012"><ele>19.0</ele><time>2022-11-02T17:08:41.0000000+00:00</time></trkpt><trkpt lat="39.47894658" lon="-0.39083012"><ele>19.0</ele><time>2022-11-02T17:08:42.0000000+00:00</time></trkpt><trkpt lat="39.47894658" lon="-0.39083012"><ele>19.0</ele><time>2022-11-02T17:08:43.0000000+00:00</time></trkpt><trkpt lat="39.47894658" lon="-0.39083012"><ele>19.0</ele><time>2022-11-02T17:08:44.0000000+00:00</time></trkpt><trkpt lat="39.47894658" lon="-0.39083012"><ele>19.0</ele><time>2022-11-02T17:08:45.0000000+00:00</time></trkpt><trkpt lat="39.47894658" lon="-0.39083012"><ele>19.0</ele><time>2022-11-02T17:08:46.0000000+00:00</time></trkpt><trkpt lat="39.47894658" lon="-0.39083012"><ele>19.0</ele><time>2022-11-02T17:08:47.0000000+00:00</time></trkpt><trkpt lat="39.47894658" lon="-0.39083071"><ele>19.0</ele><time>2022-11-02T17:08:48.0000000+00:00</time></trkpt><trkpt lat="39.47894683" lon="-0.3908313"><ele>19.0</ele><time>2022-11-02T17:08:49.0000000+00:00</time></trkpt><trkpt lat="39.47894708" lon="-0.39083155"><ele>19.0</ele><time>2022-11-02T17:08:50.0000000+00:00</time></trkpt><trkpt lat="39.47894717" lon="-0.39083172"><ele>19.0</ele><time>2022-11-02T17:08:51.0000000+00:00</time></trkpt><trkpt lat="39.47894725" lon="-0.39083188"><ele>19.0</ele><time>2022-11-02T17:08:52.0000000+00:00</time></trkpt><trkpt lat="39.47894725" lon="-0.39083214"><ele>19.0</ele><time>2022-11-02T17:08:53.0000000+00:00</time></trkpt><trkpt lat="39.47894733" lon="-0.3908323"><ele>19.0</ele><time>2022-11-02T17:08:54.0000000+00:00</time></trkpt><trkpt lat="39.4789501" lon="-0.39083364"><ele>19.0</ele><time>2022-11-02T17:08:55.0000000+00:00</time></trkpt><trkpt lat="39.4789636" lon="-0.39084052"><ele>19.0</ele><time>2022-11-02T17:08:56.0000000+00:00</time></trkpt><trkpt lat="39.47897835" lon="-0.39084882"><ele>19.0</ele><time>2022-11-02T17:08:57.0000000+00:00</time></trkpt><trkpt lat="39.47899268" lon="-0.39085745"><ele>19.0</ele><time>2022-11-02T17:08:58.0000000+00:00</time></trkpt><trkpt lat="39.47900618" lon="-0.39086868"><ele>19.0</ele><time>2022-11-02T17:08:59.0000000+00:00</time></trkpt><trkpt lat="39.47901841" lon="-0.39087673"><ele>19.0</ele><time>2022-11-02T17:09:00.0000000+00:00</time></trkpt><trkpt lat="39.47903149" lon="-0.39087907"><ele>19.0</ele><time>2022-11-02T17:09:01.0000000+00:00</time></trkpt><trkpt lat="39.47904373" lon="-0.39088444"><ele>19.0</ele><time>2022-11-02T17:09:02.0000000+00:00</time></trkpt><trkpt lat="39.47905873" lon="-0.39089073"><ele>19.0</ele><time>2022-11-02T17:09:03.0000000+00:00</time></trkpt><trkpt lat="39.47907088" lon="-0.39089844"><ele>19.0</ele><time>2022-11-02T17:09:04.0000000+00:00</time></trkpt><trkpt lat="39.47908136" lon="-0.39090464"><ele>19.0</ele><time>2022-11-02T17:09:05.0000000+00:00</time></trkpt><trkpt lat="39.47909142" lon="-0.39090866"><ele>19.0</ele><time>2022-11-02T17:09:06.0000000+00:00</time></trkpt><trkpt lat="39.47910131" lon="-0.39091017"><ele>19.0</ele><time>2022-11-02T17:09:07.0000000+00:00</time></trkpt><trkpt lat="39.4791143" lon="-0.39090883"><ele>19.0</ele><time>2022-11-02T17:09:08.0000000+00:00</time></trkpt><trkpt lat="39.47912713" lon="-0.39091093"><ele>18.8</ele><time>2022-11-02T17:09:09.0000000+00:00</time></trkpt><trkpt lat="39.47913987" lon="-0.39091151"><ele>18.8</ele><time>2022-11-02T17:09:10.0000000+00:00</time></trkpt><trkpt lat="39.47914984" lon="-0.39090682"><ele>18.8</ele><time>2022-11-02T17:09:11.0000000+00:00</time></trkpt><trkpt lat="39.47915311" lon="-0.39090657"><ele>18.8</ele><time>2022-11-02T17:09:12.0000000+00:00</time></trkpt><trkpt lat="39.47916191" lon="-0.39090808"><ele>18.8</ele><time>2022-11-02T17:09:13.0000000+00:00</time></trkpt><trkpt lat="39.47917624" lon="-0.39090782"><ele>18.8</ele><time>2022-11-02T17:09:14.0000000+00:00</time></trkpt><trkpt lat="39.47918924" lon="-0.39090514"><ele>18.8</ele><time>2022-11-02T17:09:15.0000000+00:00</time></trkpt><trkpt lat="39.47919477" lon="-0.39089626"><ele>18.8</ele><time>2022-11-02T17:09:16.0000000+00:00</time></trkpt><trkpt lat="39.47919888" lon="-0.39088503"><ele>18.8</ele><time>2022-11-02T17:09:17.0000000+00:00</time></trkpt><trkpt lat="39.47920206" lon="-0.39088033"><ele>18.8</ele><time>2022-11-02T17:09:18.0000000+00:00</time></trkpt><trkpt lat="39.47920784" lon="-0.39088058"><ele>18.8</ele><time>2022-11-02T17:09:19.0000000+00:00</time></trkpt><trkpt lat="39.47921623" lon="-0.39088402"><ele>18.8</ele><time>2022-11-02T17:09:20.0000000+00:00</time></trkpt><trkpt lat="39.4792226" lon="-0.39088578"><ele>18.8</ele><time>2022-11-02T17:09:21.0000000+00:00</time></trkpt><trkpt lat="39.47922888" lon="-0.39088838"><ele>18.8</ele><time>2022-11-02T17:09:22.0000000+00:00</time></trkpt><trkpt lat="39.47923333" lon="-0.39089316"><ele>18.8</ele><time>2022-11-02T17:09:23.0000000+00:00</time></trkpt><trkpt lat="39.47923735" lon="-0.39089584"><ele>18.8</ele><time>2022-11-02T17:09:24.0000000+00:00</time></trkpt><trkpt lat="39.47924431" lon="-0.3909012"><ele>18.8</ele><time>2022-11-02T17:09:25.0000000+00:00</time></trkpt><trkpt lat="39.47925235" lon="-0.39090581"><ele>18.8</ele><time>2022-11-02T17:09:26.0000000+00:00</time></trkpt><trkpt lat="39.47926308" lon="-0.39091386"><ele>18.8</ele><time>2022-11-02T17:09:27.0000000+00:00</time></trkpt><trkpt lat="39.47927062" lon="-0.39091763"><ele>18.8</ele><time>2022-11-02T17:09:28.0000000+00:00</time></trkpt><trkpt lat="39.47927859" lon="-0.39092031"><ele>18.8</ele><time>2022-11-02T17:09:29.0000000+00:00</time></trkpt><trkpt lat="39.47928404" lon="-0.3909245"><ele>19.0</ele><time>2022-11-02T17:09:30.0000000+00:00</time></trkpt><trkpt lat="39.47928739" lon="-0.39092618"><ele>19.0</ele><time>2022-11-02T17:09:31.0000000+00:00</time></trkpt><trkpt lat="39.47929242" lon="-0.39093054"><ele>19.0</ele><time>2022-11-02T17:09:32.0000000+00:00</time></trkpt><trkpt lat="39.4792956" lon="-0.39093272"><ele>19.2</ele><time>2022-11-02T17:09:33.0000000+00:00</time></trkpt><trkpt lat="39.47929879" lon="-0.39093406"><ele>19.2</ele><time>2022-11-02T17:09:34.0000000+00:00</time></trkpt><trkpt lat="39.47929954" lon="-0.39093448"><ele>19.2</ele><time>2022-11-02T17:09:35.0000000+00:00</time></trkpt><trkpt lat="39.4792972" lon="-0.39093926"><ele>19.2</ele><time>2022-11-02T17:09:36.0000000+00:00</time></trkpt><trkpt lat="39.4793003" lon="-0.39093783"><ele>19.2</ele><time>2022-11-02T17:09:37.0000000+00:00</time></trkpt><trkpt lat="39.47930801" lon="-0.39093171"><ele>19.0</ele><time>2022-11-02T17:09:38.0000000+00:00</time></trkpt><trkpt lat="39.47931916" lon="-0.39092509"><ele>19.0</ele><time>2022-11-02T17:09:39.0000000+00:00</time></trkpt><trkpt lat="39.47933047" lon="-0.39091973"><ele>19.0</ele><time>2022-11-02T17:09:40.0000000+00:00</time></trkpt><trkpt lat="39.47934388" lon="-0.39091637"><ele>19.0</ele><time>2022-11-02T17:09:41.0000000+00:00</time></trkpt><trkpt lat="39.47935461" lon="-0.39091352"><ele>19.0</ele><time>2022-11-02T17:09:42.0000000+00:00</time></trkpt><trkpt lat="39.47936484" lon="-0.39090263"><ele>19.0</ele><time>2022-11-02T17:09:43.0000000+00:00</time></trkpt><trkpt lat="39.47937666" lon="-0.3908924"><ele>19.0</ele><time>2022-11-02T17:09:44.0000000+00:00</time></trkpt><trkpt lat="39.47938655" lon="-0.39088142"><ele>19.0</ele><time>2022-11-02T17:09:45.0000000+00:00</time></trkpt><trkpt lat="39.47939409" lon="-0.39087396"><ele>19.2</ele><time>2022-11-02T17:09:46.0000000+00:00</time></trkpt><trkpt lat="39.4793992" lon="-0.39086726"><ele>19.2</ele><time>2022-11-02T17:09:47.0000000+00:00</time></trkpt><trkpt lat="39.47940029" lon="-0.39085711"><ele>19.2</ele><time>2022-11-02T17:09:48.0000000+00:00</time></trkpt><trkpt lat="39.47939769" lon="-0.39084747"><ele>19.2</ele><time>2022-11-02T17:09:49.0000000+00:00</time></trkpt><trkpt lat="39.47939987" lon="-0.39083784"><ele>19.4</ele><time>2022-11-02T17:09:50.0000000+00:00</time></trkpt><trkpt lat="39.4794044" lon="-0.39082593"><ele>19.4</ele><time>2022-11-02T17:09:51.0000000+00:00</time></trkpt><trkpt lat="39.47941253" lon="-0.39081579"><ele>19.4</ele><time>2022-11-02T17:09:52.0000000+00:00</time></trkpt><trkpt lat="39.47941756" lon="-0.39080707"><ele>19.4</ele><time>2022-11-02T17:09:53.0000000+00:00</time></trkpt><trkpt lat="39.47942158" lon="-0.39079785"><ele>19.4</ele><time>2022-11-02T17:09:54.0000000+00:00</time></trkpt><trkpt lat="39.47941865" lon="-0.39079073"><ele>19.4</ele><time>2022-11-02T17:09:55.0000000+00:00</time></trkpt><trkpt lat="39.47943265" lon="-0.39077899"><ele>19.4</ele><time>2022-11-02T17:09:56.0000000+00:00</time></trkpt><trkpt lat="39.47944463" lon="-0.39076558"><ele>19.4</ele><time>2022-11-02T17:09:57.0000000+00:00</time></trkpt><trkpt lat="39.47945938" lon="-0.39075125"><ele>19.4</ele><time>2022-11-02T17:09:58.0000000+00:00</time></trkpt><trkpt lat="39.47947254" lon="-0.39073608"><ele>19.4</ele><time>2022-11-02T17:09:59.0000000+00:00</time></trkpt><trkpt lat="39.47948394" lon="-0.39072485"><ele>19.4</ele><time>2022-11-02T17:10:00.0000000+00:00</time></trkpt><trkpt lat="39.47949233" lon="-0.39071211"><ele>19.4</ele><time>2022-11-02T17:10:01.0000000+00:00</time></trkpt><trkpt lat="39.47949769" lon="-0.39070104"><ele>19.4</ele><time>2022-11-02T17:10:02.0000000+00:00</time></trkpt><trkpt lat="39.47950507" lon="-0.39069065"><ele>19.4</ele><time>2022-11-02T17:10:03.0000000+00:00</time></trkpt><trkpt lat="39.47950825" lon="-0.39067715"><ele>19.4</ele><time>2022-11-02T17:10:04.0000000+00:00</time></trkpt><trkpt lat="39.47951269" lon="-0.39066584"><ele>19.4</ele><time>2022-11-02T17:10:05.0000000+00:00</time></trkpt><trkpt lat="39.4795158" lon="-0.39065779"><ele>19.4</ele><time>2022-11-02T17:10:06.0000000+00:00</time></trkpt><trkpt lat="39.47951932" lon="-0.39064371"><ele>19.2</ele><time>2022-11-02T17:10:07.0000000+00:00</time></trkpt><trkpt lat="39.47952242" lon="-0.39063147"><ele>19.2</ele><time>2022-11-02T17:10:08.0000000+00:00</time></trkpt><trkpt lat="39.47952837" lon="-0.39062074"><ele>19.4</ele><time>2022-11-02T17:10:09.0000000+00:00</time></trkpt><trkpt lat="39.47953834" lon="-0.3906127"><ele>19.2</ele><time>2022-11-02T17:10:10.0000000+00:00</time></trkpt><trkpt lat="39.47954555" lon="-0.39060608"><ele>19.2</ele><time>2022-11-02T17:10:11.0000000+00:00</time></trkpt><trkpt lat="39.47955469" lon="-0.3906023"><ele>19.2</ele><time>2022-11-02T17:10:12.0000000+00:00</time></trkpt><trkpt lat="39.47956089" lon="-0.39060189"><ele>19.2</ele><time>2022-11-02T17:10:13.0000000+00:00</time></trkpt><trkpt lat="39.47956449" lon="-0.3906008"><ele>19.2</ele><time>2022-11-02T17:10:14.0000000+00:00</time></trkpt><trkpt lat="39.47957346" lon="-0.39059711"><ele>19.4</ele><time>2022-11-02T17:10:15.0000000+00:00</time></trkpt><trkpt lat="39.47957447" lon="-0.39059644"><ele>19.4</ele><time>2022-11-02T17:10:16.0000000+00:00</time></trkpt><trkpt lat="39.47957967" lon="-0.3905935"><ele>19.4</ele><time>2022-11-02T17:10:17.0000000+00:00</time></trkpt><trkpt lat="39.4795826" lon="-0.39059384"><ele>19.4</ele><time>2022-11-02T17:10:18.0000000+00:00</time></trkpt><trkpt lat="39.47958495" lon="-0.39059409"><ele>19.4</ele><time>2022-11-02T17:10:19.0000000+00:00</time></trkpt><trkpt lat="39.47958821" lon="-0.39060088"><ele>19.4</ele><time>2022-11-02T17:10:20.0000000+00:00</time></trkpt><trkpt lat="39.47958277" lon="-0.39059384"><ele>19.6</ele><time>2022-11-02T17:10:21.0000000+00:00</time></trkpt><trkpt lat="39.47958327" lon="-0.39059417"><ele>19.8</ele><time>2022-11-02T17:10:22.0000000+00:00</time></trkpt><trkpt lat="39.47958369" lon="-0.39059384"><ele>20.0</ele><time>2022-11-02T17:10:23.0000000+00:00</time></trkpt><trkpt lat="39.47957749" lon="-0.39059375"><ele>20.0</ele><time>2022-11-02T17:10:24.0000000+00:00</time></trkpt><trkpt lat="39.47958017" lon="-0.39059526"><ele>20.0</ele><time>2022-11-02T17:10:25.0000000+00:00</time></trkpt><trkpt lat="39.47958184" lon="-0.39059417"><ele>20.0</ele><time>2022-11-02T17:10:26.0000000+00:00</time></trkpt><trkpt lat="39.4795852" lon="-0.39058764"><ele>19.8</ele><time>2022-11-02T17:10:27.0000000+00:00</time></trkpt><trkpt lat="39.47959157" lon="-0.39057406"><ele>19.6</ele><time>2022-11-02T17:10:28.0000000+00:00</time></trkpt><trkpt lat="39.47960104" lon="-0.39056936"><ele>19.6</ele><time>2022-11-02T17:10:29.0000000+00:00</time></trkpt><trkpt lat="39.47961143" lon="-0.39056534"><ele>19.4</ele><time>2022-11-02T17:10:30.0000000+00:00</time></trkpt><trkpt lat="39.47961386" lon="-0.39055947"><ele>19.4</ele><time>2022-11-02T17:10:31.0000000+00:00</time></trkpt><trkpt lat="39.47961353" lon="-0.39056039"><ele>19.4</ele><time>2022-11-02T17:10:32.0000000+00:00</time></trkpt><trkpt lat="39.47961529" lon="-0.39055721"><ele>19.4</ele><time>2022-11-02T17:10:33.0000000+00:00</time></trkpt><trkpt lat="39.47961705" lon="-0.39055008"><ele>19.4</ele><time>2022-11-02T17:10:34.0000000+00:00</time></trkpt><trkpt lat="39.47962526" lon="-0.39054371"><ele>19.4</ele><time>2022-11-02T17:10:35.0000000+00:00</time></trkpt><trkpt lat="39.47963012" lon="-0.39053986"><ele>19.4</ele><time>2022-11-02T17:10:36.0000000+00:00</time></trkpt><trkpt lat="39.47963323" lon="-0.39053097"><ele>19.4</ele><time>2022-11-02T17:10:37.0000000+00:00</time></trkpt><trkpt lat="39.47963683" lon="-0.39051983"><ele>19.4</ele><time>2022-11-02T17:10:38.0000000+00:00</time></trkpt><trkpt lat="39.47963591" lon="-0.39051111"><ele>19.4</ele><time>2022-11-02T17:10:39.0000000+00:00</time></trkpt><trkpt lat="39.47963658" lon="-0.39050692"><ele>19.4</ele><time>2022-11-02T17:10:40.0000000+00:00</time></trkpt><trkpt lat="39.479637" lon="-0.3905075"><ele>19.4</ele><time>2022-11-02T17:10:41.0000000+00:00</time></trkpt><trkpt lat="39.47963256" lon="-0.39050767"><ele>19.4</ele><time>2022-11-02T17:10:42.0000000+00:00</time></trkpt><trkpt lat="39.47962987" lon="-0.39050264"><ele>19.4</ele><time>2022-11-02T17:10:43.0000000+00:00</time></trkpt><trkpt lat="39.47962686" lon="-0.39048814"><ele>19.4</ele><time>2022-11-02T17:10:44.0000000+00:00</time></trkpt><trkpt lat="39.47962535" lon="-0.39048093"><ele>19.4</ele><time>2022-11-02T17:10:45.0000000+00:00</time></trkpt><trkpt lat="39.47961881" lon="-0.39047565"><ele>19.4</ele><time>2022-11-02T17:10:46.0000000+00:00</time></trkpt><trkpt lat="39.4796121" lon="-0.39046585"><ele>19.4</ele><time>2022-11-02T17:10:47.0000000+00:00</time></trkpt><trkpt lat="39.47960925" lon="-0.39046903"><ele>19.4</ele><time>2022-11-02T17:10:48.0000000+00:00</time></trkpt><trkpt lat="39.47960464" lon="-0.39046777"><ele>19.4</ele><time>2022-11-02T17:10:49.0000000+00:00</time></trkpt><trkpt lat="39.47960213" lon="-0.39046627"><ele>19.4</ele><time>2022-11-02T17:10:50.0000000+00:00</time></trkpt><trkpt lat="39.47960104" lon="-0.39046501"><ele>19.4</ele><time>2022-11-02T17:10:51.0000000+00:00</time></trkpt><trkpt lat="39.47960129" lon="-0.39046308"><ele>19.4</ele><time>2022-11-02T17:10:52.0000000+00:00</time></trkpt><trkpt lat="39.47960213" lon="-0.39046124"><ele>19.4</ele><time>2022-11-02T17:10:53.0000000+00:00</time></trkpt><trkpt lat="39.4796023" lon="-0.39045889"><ele>19.4</ele><time>2022-11-02T17:10:54.0000000+00:00</time></trkpt><trkpt lat="39.47960272" lon="-0.3904573"><ele>19.4</ele><time>2022-11-02T17:10:55.0000000+00:00</time></trkpt><trkpt lat="39.47960288" lon="-0.39045654"><ele>19.4</ele><time>2022-11-02T17:10:56.0000000+00:00</time></trkpt><trkpt lat="39.47960255" lon="-0.39045462"><ele>19.4</ele><time>2022-11-02T17:10:57.0000000+00:00</time></trkpt><trkpt lat="39.47960305" lon="-0.39045269"><ele>19.4</ele><time>2022-11-02T17:10:58.0000000+00:00</time></trkpt><trkpt lat="39.47960012" lon="-0.39045177"><ele>19.4</ele><time>2022-11-02T17:10:59.0000000+00:00</time></trkpt><trkpt lat="39.47959844" lon="-0.39044917"><ele>19.4</ele><time>2022-11-02T17:11:00.0000000+00:00</time></trkpt><trkpt lat="39.47959718" lon="-0.39044741"><ele>19.4</ele><time>2022-11-02T17:11:01.0000000+00:00</time></trkpt><trkpt lat="39.47959559" lon="-0.39044799"><ele>19.4</ele><time>2022-11-02T17:11:02.0000000+00:00</time></trkpt><trkpt lat="39.47959551" lon="-0.39045126"><ele>19.4</ele><time>2022-11-02T17:11:03.0000000+00:00</time></trkpt><trkpt lat="39.47959542" lon="-0.39044615"><ele>19.4</ele><time>2022-11-02T17:11:04.0000000+00:00</time></trkpt><trkpt lat="39.47959559" lon="-0.39044992"><ele>19.4</ele><time>2022-11-02T17:11:05.0000000+00:00</time></trkpt><trkpt lat="39.47959626" lon="-0.39045168"><ele>19.4</ele><time>2022-11-02T17:11:06.0000000+00:00</time></trkpt><trkpt lat="39.47959668" lon="-0.3904526"><ele>19.4</ele><time>2022-11-02T17:11:07.0000000+00:00</time></trkpt><trkpt lat="39.47959668" lon="-0.3904526"><ele>19.4</ele><time>2022-11-02T17:11:08.0000000+00:00</time></trkpt><trkpt lat="39.47959668" lon="-0.3904526"><ele>19.2</ele><time>2022-11-02T17:11:09.0000000+00:00</time></trkpt><trkpt lat="39.47959668" lon="-0.3904526"><ele>19.2</ele><time>2022-11-02T17:11:10.0000000+00:00</time></trkpt><trkpt lat="39.47959668" lon="-0.3904526"><ele>19.2</ele><time>2022-11-02T17:11:11.0000000+00:00</time></trkpt><trkpt lat="39.47959668" lon="-0.3904526"><ele>19.2</ele><time>2022-11-02T17:11:12.0000000+00:00</time></trkpt><trkpt lat="39.47959484" lon="-0.39045109"><ele>19.2</ele><time>2022-11-02T17:11:13.0000000+00:00</time></trkpt><trkpt lat="39.47958821" lon="-0.39044917"><ele>19.2</ele><time>2022-11-02T17:11:14.0000000+00:00</time></trkpt><trkpt lat="39.47958587" lon="-0.39044338"><ele>19.2</ele><time>2022-11-02T17:11:15.0000000+00:00</time></trkpt><trkpt lat="39.47958562" lon="-0.39044607"><ele>19.2</ele><time>2022-11-02T17:11:16.0000000+00:00</time></trkpt><trkpt lat="39.47958922" lon="-0.39045009"><ele>19.2</ele><time>2022-11-02T17:11:17.0000000+00:00</time></trkpt><trkpt lat="39.47959123" lon="-0.39044648"><ele>19.2</ele><time>2022-11-02T17:11:18.0000000+00:00</time></trkpt><trkpt lat="39.47959324" lon="-0.39044674"><ele>19.2</ele><time>2022-11-02T17:11:19.0000000+00:00</time></trkpt><trkpt lat="39.47957581" lon="-0.39046308"><ele>19.2</ele><time>2022-11-02T17:11:20.0000000+00:00</time></trkpt><trkpt lat="39.47957103" lon="-0.39047398"><ele>19.2</ele><time>2022-11-02T17:11:21.0000000+00:00</time></trkpt><trkpt lat="39.47956592" lon="-0.39048311"><ele>19.2</ele><time>2022-11-02T17:11:22.0000000+00:00</time></trkpt><trkpt lat="39.47956114" lon="-0.3904951"><ele>19.2</ele><time>2022-11-02T17:11:23.0000000+00:00</time></trkpt><trkpt lat="39.47955754" lon="-0.39050524"><ele>19.2</ele><time>2022-11-02T17:11:24.0000000+00:00</time></trkpt><trkpt lat="39.48183163" lon="-0.38952825"><ele>14.4</ele><time>2022-11-02T18:15:56.0000000+00:00</time></trkpt><trkpt lat="39.48180221" lon="-0.38985313"><ele>14.4</ele><time>2022-11-02T18:15:58.0000000+00:00</time></trkpt><trkpt lat="39.48179643" lon="-0.3899569"><ele>14.6</ele><time>2022-11-02T18:15:59.0000000+00:00</time></trkpt><trkpt lat="39.48179022" lon="-0.39000853"><ele>14.6</ele><time>2022-11-02T18:16:00.0000000+00:00</time></trkpt><trkpt lat="39.48179609" lon="-0.39002555"><ele>14.6</ele><time>2022-11-02T18:16:01.0000000+00:00</time></trkpt><trkpt lat="39.48181864" lon="-0.39001289"><ele>14.6</ele><time>2022-11-02T18:16:02.0000000+00:00</time></trkpt><trkpt lat="39.48183029" lon="-0.38999277"><ele>14.6</ele><time>2022-11-02T18:16:03.0000000+00:00</time></trkpt><trkpt lat="39.48183448" lon="-0.38997509"><ele>14.6</ele><time>2022-11-02T18:16:04.0000000+00:00</time></trkpt><trkpt lat="39.48183892" lon="-0.38994324"><ele>14.6</ele><time>2022-11-02T18:16:05.0000000+00:00</time></trkpt><trkpt lat="39.48184043" lon="-0.38992379"><ele>14.6</ele><time>2022-11-02T18:16:06.0000000+00:00</time></trkpt><trkpt lat="39.48183842" lon="-0.38990124"><ele>14.6</ele><time>2022-11-02T18:16:07.0000000+00:00</time></trkpt><trkpt lat="39.48183708" lon="-0.38987526"><ele>14.6</ele><time>2022-11-02T18:16:08.0000000+00:00</time></trkpt><trkpt lat="39.4818375" lon="-0.38985531"><ele>14.6</ele><time>2022-11-02T18:16:09.0000000+00:00</time></trkpt><trkpt lat="39.48183565" lon="-0.38982295"><ele>14.6</ele><time>2022-11-02T18:16:10.0000000+00:00</time></trkpt><trkpt lat="39.48183993" lon="-0.38981457"><ele>14.6</ele><time>2022-11-02T18:16:11.0000000+00:00</time></trkpt><trkpt lat="39.48184689" lon="-0.38979764"><ele>14.8</ele><time>2022-11-02T18:16:12.0000000+00:00</time></trkpt><trkpt lat="39.4818499" lon="-0.38978289"><ele>14.8</ele><time>2022-11-02T18:16:13.0000000+00:00</time></trkpt><trkpt lat="39.48185259" lon="-0.3897699"><ele>14.8</ele><time>2022-11-02T18:16:14.0000000+00:00</time></trkpt><trkpt lat="39.48186424" lon="-0.38976403"><ele>14.8</ele><time>2022-11-02T18:16:15.0000000+00:00</time></trkpt><trkpt lat="39.48186792" lon="-0.38974945"><ele>14.8</ele><time>2022-11-02T18:16:16.0000000+00:00</time></trkpt><trkpt lat="39.48187094" lon="-0.38973268"><ele>14.8</ele><time>2022-11-02T18:16:17.0000000+00:00</time></trkpt><trkpt lat="39.48187337" lon="-0.38971424"><ele>14.8</ele><time>2022-11-02T18:16:18.0000000+00:00</time></trkpt><trkpt lat="39.48187681" lon="-0.38970376"><ele>14.8</ele><time>2022-11-02T18:16:19.0000000+00:00</time></trkpt><trkpt lat="39.48188603" lon="-0.38969664"><ele>14.8</ele><time>2022-11-02T18:16:20.0000000+00:00</time></trkpt><trkpt lat="39.48189416" lon="-0.38968675"><ele>14.8</ele><time>2022-11-02T18:16:21.0000000+00:00</time></trkpt><trkpt lat="39.48190087" lon="-0.38967359"><ele>14.8</ele><time>2022-11-02T18:16:22.0000000+00:00</time></trkpt><trkpt lat="39.48190631" lon="-0.38966118"><ele>14.8</ele><time>2022-11-02T18:16:23.0000000+00:00</time></trkpt><trkpt lat="39.48191143" lon="-0.38965448"><ele>14.8</ele><time>2022-11-02T18:16:24.0000000+00:00</time></trkpt><trkpt lat="39.48192073" lon="-0.38964207"><ele>14.8</ele><time>2022-11-02T18:16:25.0000000+00:00</time></trkpt><trkpt lat="39.48192827" lon="-0.38963151"><ele>14.8</ele><time>2022-11-02T18:16:26.0000000+00:00</time></trkpt><trkpt lat="39.48193389" lon="-0.38961961"><ele>14.8</ele><time>2022-11-02T18:16:27.0000000+00:00</time></trkpt><trkpt lat="39.48193607" lon="-0.38960477"><ele>14.8</ele><time>2022-11-02T18:16:28.0000000+00:00</time></trkpt><trkpt lat="39.48193884" lon="-0.38959279"><ele>14.8</ele><time>2022-11-02T18:16:29.0000000+00:00</time></trkpt><trkpt lat="39.48194764" lon="-0.3895772"><ele>14.8</ele><time>2022-11-02T18:16:30.0000000+00:00</time></trkpt><trkpt lat="39.48194697" lon="-0.38956161"><ele>14.8</ele><time>2022-11-02T18:16:31.0000000+00:00</time></trkpt><trkpt lat="39.48194613" lon="-0.3895523"><ele>14.8</ele><time>2022-11-02T18:16:32.0000000+00:00</time></trkpt><trkpt lat="39.48194579" lon="-0.38954367"><ele>14.8</ele><time>2022-11-02T18:16:33.0000000+00:00</time></trkpt><trkpt lat="39.48194915" lon="-0.38954308"><ele>14.8</ele><time>2022-11-02T18:16:34.0000000+00:00</time></trkpt><trkpt lat="39.48195485" lon="-0.3895409"><ele>14.8</ele><time>2022-11-02T18:16:35.0000000+00:00</time></trkpt><trkpt lat="39.48195987" lon="-0.3895409"><ele>14.8</ele><time>2022-11-02T18:16:36.0000000+00:00</time></trkpt><trkpt lat="39.48196415" lon="-0.38953478"><ele>14.8</ele><time>2022-11-02T18:16:37.0000000+00:00</time></trkpt><trkpt lat="39.48197153" lon="-0.38952934"><ele>14.8</ele><time>2022-11-02T18:16:38.0000000+00:00</time></trkpt><trkpt lat="39.48197899" lon="-0.38951903"><ele>14.8</ele><time>2022-11-02T18:16:39.0000000+00:00</time></trkpt><trkpt lat="39.48198536" lon="-0.38950344"><ele>14.8</ele><time>2022-11-02T18:16:40.0000000+00:00</time></trkpt><trkpt lat="39.48199064" lon="-0.38948399"><ele>14.8</ele><time>2022-11-02T18:16:41.0000000+00:00</time></trkpt><trkpt lat="39.48199734" lon="-0.38946672"><ele>14.8</ele><time>2022-11-02T18:16:42.0000000+00:00</time></trkpt><trkpt lat="39.48200195" lon="-0.38945214"><ele>14.6</ele><time>2022-11-02T18:16:43.0000000+00:00</time></trkpt><trkpt lat="39.48200983" lon="-0.38944317"><ele>14.6</ele><time>2022-11-02T18:16:44.0000000+00:00</time></trkpt><trkpt lat="39.48201696" lon="-0.38943621"><ele>14.6</ele><time>2022-11-02T18:16:45.0000000+00:00</time></trkpt><trkpt lat="39.48201964" lon="-0.38942934"><ele>14.6</ele><time>2022-11-02T18:16:46.0000000+00:00</time></trkpt><trkpt lat="39.48200799" lon="-0.38942683"><ele>14.6</ele><time>2022-11-02T18:16:47.0000000+00:00</time></trkpt><trkpt lat="39.48198779" lon="-0.38942691"><ele>14.6</ele><time>2022-11-02T18:16:48.0000000+00:00</time></trkpt><trkpt lat="39.48197572" lon="-0.38943244"><ele>14.6</ele><time>2022-11-02T18:16:49.0000000+00:00</time></trkpt><trkpt lat="39.48196834" lon="-0.38944468"><ele>14.6</ele><time>2022-11-02T18:16:50.0000000+00:00</time></trkpt><trkpt lat="39.48196046" lon="-0.38945113"><ele>14.6</ele><time>2022-11-02T18:16:51.0000000+00:00</time></trkpt><trkpt lat="39.48195241" lon="-0.38944988"><ele>14.6</ele><time>2022-11-02T18:16:52.0000000+00:00</time></trkpt><trkpt lat="39.48194646" lon="-0.38944761"><ele>14.6</ele><time>2022-11-02T18:16:53.0000000+00:00</time></trkpt><trkpt lat="39.48193842" lon="-0.38944543"><ele>14.6</ele><time>2022-11-02T18:16:54.0000000+00:00</time></trkpt><trkpt lat="39.48193272" lon="-0.38943789"><ele>14.4</ele><time>2022-11-02T18:16:55.0000000+00:00</time></trkpt><trkpt lat="39.48192492" lon="-0.38943253"><ele>14.4</ele><time>2022-11-02T18:16:56.0000000+00:00</time></trkpt><trkpt lat="39.48192291" lon="-0.38942599"><ele>14.4</ele><time>2022-11-02T18:16:57.0000000+00:00</time></trkpt><trkpt lat="39.48192685" lon="-0.38942138"><ele>14.6</ele><time>2022-11-02T18:16:58.0000000+00:00</time></trkpt><trkpt lat="39.48194135" lon="-0.38941316"><ele>14.6</ele><time>2022-11-02T18:16:59.0000000+00:00</time></trkpt><trkpt lat="39.4819608" lon="-0.38940445"><ele>14.6</ele><time>2022-11-02T18:17:00.0000000+00:00</time></trkpt><trkpt lat="39.48197706" lon="-0.38940453"><ele>14.6</ele><time>2022-11-02T18:17:01.0000000+00:00</time></trkpt><trkpt lat="39.48198812" lon="-0.38940721"><ele>14.8</ele><time>2022-11-02T18:17:02.0000000+00:00</time></trkpt><trkpt lat="39.48199583" lon="-0.38940989"><ele>15.0</ele><time>2022-11-02T18:17:03.0000000+00:00</time></trkpt><trkpt lat="39.48199877" lon="-0.38941249"><ele>15.0</ele><time>2022-11-02T18:17:04.0000000+00:00</time></trkpt><trkpt lat="39.48199877" lon="-0.38941249"><ele>15.0</ele><time>2022-11-02T18:17:05.0000000+00:00</time></trkpt><trkpt lat="39.48199877" lon="-0.38941249"><ele>15.0</ele><time>2022-11-02T18:17:06.0000000+00:00</time></trkpt><trkpt lat="39.48199877" lon="-0.38941249"><ele>15.0</ele><time>2022-11-02T18:17:07.0000000+00:00</time></trkpt><trkpt lat="39.48199877" lon="-0.38941249"><ele>15.0</ele><time>2022-11-02T18:17:08.0000000+00:00</time></trkpt><trkpt lat="39.48199877" lon="-0.38941249"><ele>15.0</ele><time>2022-11-02T18:17:09.0000000+00:00</time></trkpt><trkpt lat="39.48199877" lon="-0.38941249"><ele>14.6</ele><time>2022-11-02T18:17:10.0000000+00:00</time></trkpt><trkpt lat="39.48199877" lon="-0.38941249"><ele>14.6</ele><time>2022-11-02T18:17:11.0000000+00:00</time></trkpt><trkpt lat="39.48199877" lon="-0.38941249"><ele>14.6</ele><time>2022-11-02T18:17:12.0000000+00:00</time></trkpt><trkpt lat="39.48199952" lon="-0.38940679"><ele>14.6</ele><time>2022-11-02T18:17:13.0000000+00:00</time></trkpt><trkpt lat="39.48200287" lon="-0.38939699"><ele>14.6</ele><time>2022-11-02T18:17:14.0000000+00:00</time></trkpt><trkpt lat="39.48200799" lon="-0.38939296"><ele>14.6</ele><time>2022-11-02T18:17:15.0000000+00:00</time></trkpt><trkpt lat="39.48201427" lon="-0.38939129"><ele>14.6</ele><time>2022-11-02T18:17:16.0000000+00:00</time></trkpt><trkpt lat="39.48202609" lon="-0.38939338"><ele>14.6</ele><time>2022-11-02T18:17:17.0000000+00:00</time></trkpt><trkpt lat="39.48203514" lon="-0.38939196"><ele>14.6</ele><time>2022-11-02T18:17:18.0000000+00:00</time></trkpt><trkpt lat="39.48204235" lon="-0.38938651"><ele>14.6</ele><time>2022-11-02T18:17:19.0000000+00:00</time></trkpt><trkpt lat="39.4820499" lon="-0.38937964"><ele>14.6</ele><time>2022-11-02T18:17:20.0000000+00:00</time></trkpt><trkpt lat="39.48205073" lon="-0.38937251"><ele>14.6</ele><time>2022-11-02T18:17:21.0000000+00:00</time></trkpt><trkpt lat="39.48205493" lon="-0.3893679"><ele>14.6</ele><time>2022-11-02T18:17:22.0000000+00:00</time></trkpt><trkpt lat="39.48205845" lon="-0.38936799"><ele>14.6</ele><time>2022-11-02T18:17:23.0000000+00:00</time></trkpt><trkpt lat="39.48205861" lon="-0.38937008"><ele>14.6</ele><time>2022-11-02T18:17:24.0000000+00:00</time></trkpt><trkpt lat="39.48206473" lon="-0.38937796"><ele>14.6</ele><time>2022-11-02T18:17:25.0000000+00:00</time></trkpt><trkpt lat="39.4820711" lon="-0.38938366"><ele>14.6</ele><time>2022-11-02T18:17:26.0000000+00:00</time></trkpt><trkpt lat="39.48207186" lon="-0.38938592"><ele>14.6</ele><time>2022-11-02T18:17:27.0000000+00:00</time></trkpt><trkpt lat="39.48207454" lon="-0.38938726"><ele>14.6</ele><time>2022-11-02T18:17:28.0000000+00:00</time></trkpt><trkpt lat="39.4820815" lon="-0.38939598"><ele>14.6</ele><time>2022-11-02T18:17:29.0000000+00:00</time></trkpt><trkpt lat="39.48208099" lon="-0.38940101"><ele>14.6</ele><time>2022-11-02T18:17:30.0000000+00:00</time></trkpt><trkpt lat="39.48207571" lon="-0.38940093"><ele>14.6</ele><time>2022-11-02T18:17:31.0000000+00:00</time></trkpt><trkpt lat="39.48207689" lon="-0.38939598"><ele>14.6</ele><time>2022-11-02T18:17:32.0000000+00:00</time></trkpt><trkpt lat="39.48208066" lon="-0.38938978"><ele>14.6</ele><time>2022-11-02T18:17:33.0000000+00:00</time></trkpt><trkpt lat="39.48208409" lon="-0.3893819"><ele>14.6</ele><time>2022-11-02T18:17:34.0000000+00:00</time></trkpt><trkpt lat="39.48209072" lon="-0.3893762"><ele>14.6</ele><time>2022-11-02T18:17:35.0000000+00:00</time></trkpt><trkpt lat="39.48210036" lon="-0.38936748"><ele>14.6</ele><time>2022-11-02T18:17:36.0000000+00:00</time></trkpt><trkpt lat="39.48211125" lon="-0.38935801"><ele>14.6</ele><time>2022-11-02T18:17:37.0000000+00:00</time></trkpt><trkpt lat="39.48211645" lon="-0.38934837"><ele>14.6</ele><time>2022-11-02T18:17:38.0000000+00:00</time></trkpt><trkpt lat="39.48212181" lon="-0.38934376"><ele>14.6</ele><time>2022-11-02T18:17:39.0000000+00:00</time></trkpt><trkpt lat="39.48212626" lon="-0.3893332"><ele>14.6</ele><time>2022-11-02T18:17:40.0000000+00:00</time></trkpt><trkpt lat="39.48213355" lon="-0.38932909"><ele>14.6</ele><time>2022-11-02T18:17:41.0000000+00:00</time></trkpt><trkpt lat="39.48214377" lon="-0.38932666"><ele>14.6</ele><time>2022-11-02T18:17:42.0000000+00:00</time></trkpt><trkpt lat="39.48215308" lon="-0.38932004"><ele>14.6</ele><time>2022-11-02T18:17:43.0000000+00:00</time></trkpt><trkpt lat="39.48216246" lon="-0.38931007"><ele>14.6</ele><time>2022-11-02T18:17:44.0000000+00:00</time></trkpt><trkpt lat="39.48217286" lon="-0.38929607"><ele>14.6</ele><time>2022-11-02T18:17:45.0000000+00:00</time></trkpt><trkpt lat="39.48218526" lon="-0.38928693"><ele>14.6</ele><time>2022-11-02T18:17:46.0000000+00:00</time></trkpt><trkpt lat="39.48219121" lon="-0.38927998"><ele>14.6</ele><time>2022-11-02T18:17:47.0000000+00:00</time></trkpt><trkpt lat="39.48220018" lon="-0.3892757"><ele>14.6</ele><time>2022-11-02T18:17:48.0000000+00:00</time></trkpt><trkpt lat="39.48220211" lon="-0.38925852"><ele>14.6</ele><time>2022-11-02T18:17:49.0000000+00:00</time></trkpt><trkpt lat="39.48219817" lon="-0.38924268"><ele>14.6</ele><time>2022-11-02T18:17:50.0000000+00:00</time></trkpt><trkpt lat="39.48220639" lon="-0.38923538"><ele>14.6</ele><time>2022-11-02T18:17:51.0000000+00:00</time></trkpt><trkpt lat="39.48221485" lon="-0.38923161"><ele>14.6</ele><time>2022-11-02T18:17:52.0000000+00:00</time></trkpt><trkpt lat="39.48221628" lon="-0.38923664"><ele>14.6</ele><time>2022-11-02T18:17:53.0000000+00:00</time></trkpt><trkpt lat="39.48221862" lon="-0.38924024"><ele>14.6</ele><time>2022-11-02T18:17:54.0000000+00:00</time></trkpt><trkpt lat="39.48221929" lon="-0.38923706"><ele>14.6</ele><time>2022-11-02T18:17:55.0000000+00:00</time></trkpt><trkpt lat="39.48222206" lon="-0.38922583"><ele>14.6</ele><time>2022-11-02T18:17:56.0000000+00:00</time></trkpt><trkpt lat="39.48222642" lon="-0.38920672"><ele>14.6</ele><time>2022-11-02T18:17:57.0000000+00:00</time></trkpt><trkpt lat="39.48223815" lon="-0.3891861"><ele>14.6</ele><time>2022-11-02T18:17:58.0000000+00:00</time></trkpt><trkpt lat="39.48224955" lon="-0.38917369"><ele>14.6</ele><time>2022-11-02T18:17:59.0000000+00:00</time></trkpt><trkpt lat="39.48225793" lon="-0.3891664"><ele>14.6</ele><time>2022-11-02T18:18:00.0000000+00:00</time></trkpt><trkpt lat="39.48226615" lon="-0.38915961"><ele>14.6</ele><time>2022-11-02T18:18:01.0000000+00:00</time></trkpt><trkpt lat="39.48227487" lon="-0.38915316"><ele>14.8</ele><time>2022-11-02T18:18:02.0000000+00:00</time></trkpt><trkpt lat="39.48228568" lon="-0.38914343"><ele>14.8</ele><time>2022-11-02T18:18:03.0000000+00:00</time></trkpt><trkpt lat="39.48228467" lon="-0.38912851"><ele>14.8</ele><time>2022-11-02T18:18:04.0000000+00:00</time></trkpt><trkpt lat="39.48229121" lon="-0.38910488"><ele>14.8</ele><time>2022-11-02T18:18:05.0000000+00:00</time></trkpt><trkpt lat="39.4823089" lon="-0.3890887"><ele>14.8</ele><time>2022-11-02T18:18:06.0000000+00:00</time></trkpt><trkpt lat="39.48232088" lon="-0.38907914"><ele>14.8</ele><time>2022-11-02T18:18:07.0000000+00:00</time></trkpt><trkpt lat="39.4823379" lon="-0.38906892"><ele>14.8</ele><time>2022-11-02T18:18:08.0000000+00:00</time></trkpt><trkpt lat="39.48235516" lon="-0.38905241"><ele>14.8</ele><time>2022-11-02T18:18:09.0000000+00:00</time></trkpt><trkpt lat="39.48235944" lon="-0.38904009"><ele>14.8</ele><time>2022-11-02T18:18:10.0000000+00:00</time></trkpt><trkpt lat="39.48236371" lon="-0.38903003"><ele>14.8</ele><time>2022-11-02T18:18:11.0000000+00:00</time></trkpt><trkpt lat="39.48237796" lon="-0.3890141"><ele>14.8</ele><time>2022-11-02T18:18:12.0000000+00:00</time></trkpt><trkpt lat="39.48238165" lon="-0.38900488"><ele>14.8</ele><time>2022-11-02T18:18:13.0000000+00:00</time></trkpt><trkpt lat="39.48240051" lon="-0.38900706"><ele>14.8</ele><time>2022-11-02T18:18:14.0000000+00:00</time></trkpt><trkpt lat="39.48241686" lon="-0.38899943"><ele>14.8</ele><time>2022-11-02T18:18:15.0000000+00:00</time></trkpt><trkpt lat="39.48242683" lon="-0.38898024"><ele>14.8</ele><time>2022-11-02T18:18:16.0000000+00:00</time></trkpt><trkpt lat="39.48243052" lon="-0.3889706"><ele>14.8</ele><time>2022-11-02T18:18:17.0000000+00:00</time></trkpt><trkpt lat="39.48243991" lon="-0.38896247"><ele>14.8</ele><time>2022-11-02T18:18:18.0000000+00:00</time></trkpt><trkpt lat="39.48244812" lon="-0.38895492"><ele>14.8</ele><time>2022-11-02T18:18:19.0000000+00:00</time></trkpt><trkpt lat="39.48245114" lon="-0.3889421"><ele>14.8</ele><time>2022-11-02T18:18:20.0000000+00:00</time></trkpt><trkpt lat="39.48245776" lon="-0.38892467"><ele>14.8</ele><time>2022-11-02T18:18:21.0000000+00:00</time></trkpt><trkpt lat="39.4824648" lon="-0.38890187"><ele>14.8</ele><time>2022-11-02T18:18:22.0000000+00:00</time></trkpt><trkpt lat="39.48246891" lon="-0.38888251"><ele>14.8</ele><time>2022-11-02T18:18:23.0000000+00:00</time></trkpt><trkpt lat="39.48247746" lon="-0.38887178"><ele>14.8</ele><time>2022-11-02T18:18:24.0000000+00:00</time></trkpt><trkpt lat="39.48248282" lon="-0.38886122"><ele>14.8</ele><time>2022-11-02T18:18:25.0000000+00:00</time></trkpt><trkpt lat="39.48248534" lon="-0.38884655"><ele>14.8</ele><time>2022-11-02T18:18:26.0000000+00:00</time></trkpt><trkpt lat="39.48248592" lon="-0.38882945"><ele>14.6</ele><time>2022-11-02T18:18:27.0000000+00:00</time></trkpt><trkpt lat="39.48248265" lon="-0.38881134"><ele>14.6</ele><time>2022-11-02T18:18:28.0000000+00:00</time></trkpt><trkpt lat="39.48247771" lon="-0.38878745"><ele>14.6</ele><time>2022-11-02T18:18:29.0000000+00:00</time></trkpt><trkpt lat="39.48247804" lon="-0.38877061"><ele>14.6</ele><time>2022-11-02T18:18:30.0000000+00:00</time></trkpt><trkpt lat="39.48248483" lon="-0.38875736"><ele>14.6</ele><time>2022-11-02T18:18:31.0000000+00:00</time></trkpt><trkpt lat="39.48249221" lon="-0.38874504"><ele>14.6</ele><time>2022-11-02T18:18:32.0000000+00:00</time></trkpt><trkpt lat="39.48249397" lon="-0.38873012"><ele>14.6</ele><time>2022-11-02T18:18:33.0000000+00:00</time></trkpt><trkpt lat="39.48249741" lon="-0.38871923"><ele>14.6</ele><time>2022-11-02T18:18:34.0000000+00:00</time></trkpt><trkpt lat="39.48249917" lon="-0.3887116"><ele>14.6</ele><time>2022-11-02T18:18:35.0000000+00:00</time></trkpt><trkpt lat="39.48249573" lon="-0.38870263"><ele>14.8</ele><time>2022-11-02T18:18:36.0000000+00:00</time></trkpt><trkpt lat="39.48250084" lon="-0.38869391"><ele>14.8</ele><time>2022-11-02T18:18:37.0000000+00:00</time></trkpt><trkpt lat="39.48250294" lon="-0.3886893"><ele>14.8</ele><time>2022-11-02T18:18:38.0000000+00:00</time></trkpt><trkpt lat="39.48250369" lon="-0.3886857"><ele>14.8</ele><time>2022-11-02T18:18:39.0000000+00:00</time></trkpt><trkpt lat="39.48250679" lon="-0.38868628"><ele>14.8</ele><time>2022-11-02T18:18:40.0000000+00:00</time></trkpt><trkpt lat="39.48250897" lon="-0.38868947"><ele>14.8</ele><time>2022-11-02T18:18:41.0000000+00:00</time></trkpt><trkpt lat="39.48251182" lon="-0.38868553"><ele>14.8</ele><time>2022-11-02T18:18:42.0000000+00:00</time></trkpt><trkpt lat="39.48251048" lon="-0.38868159"><ele>14.8</ele><time>2022-11-02T18:18:43.0000000+00:00</time></trkpt><trkpt lat="39.48250369" lon="-0.38867505"><ele>14.6</ele><time>2022-11-02T18:18:44.0000000+00:00</time></trkpt><trkpt lat="39.48249162" lon="-0.38864647"><ele>14.6</ele><time>2022-11-02T18:18:45.0000000+00:00</time></trkpt><trkpt lat="39.48247947" lon="-0.38863977"><ele>14.6</ele><time>2022-11-02T18:18:46.0000000+00:00</time></trkpt><trkpt lat="39.48247653" lon="-0.38864438"><ele>14.6</ele><time>2022-11-02T18:18:47.0000000+00:00</time></trkpt><trkpt lat="39.48247586" lon="-0.38865008"><ele>14.6</ele><time>2022-11-02T18:18:48.0000000+00:00</time></trkpt><trkpt lat="39.48247561" lon="-0.3886515"><ele>14.4</ele><time>2022-11-02T18:18:49.0000000+00:00</time></trkpt><trkpt lat="39.4824736" lon="-0.38864873"><ele>14.4</ele><time>2022-11-02T18:18:50.0000000+00:00</time></trkpt><trkpt lat="39.48247368" lon="-0.38864421"><ele>14.4</ele><time>2022-11-02T18:18:51.0000000+00:00</time></trkpt><trkpt lat="39.48247695" lon="-0.38864354"><ele>14.4</ele><time>2022-11-02T18:18:52.0000000+00:00</time></trkpt><trkpt lat="39.48248517" lon="-0.38863951"><ele>14.4</ele><time>2022-11-02T18:18:53.0000000+00:00</time></trkpt><trkpt lat="39.48249305" lon="-0.38863231"><ele>14.2</ele><time>2022-11-02T18:18:54.0000000+00:00</time></trkpt><trkpt lat="39.48250051" lon="-0.38862057"><ele>14.2</ele><time>2022-11-02T18:18:55.0000000+00:00</time></trkpt><trkpt lat="39.48250604" lon="-0.38860649"><ele>14.2</ele><time>2022-11-02T18:18:56.0000000+00:00</time></trkpt><trkpt lat="39.48251065" lon="-0.38858478"><ele>14.2</ele><time>2022-11-02T18:18:57.0000000+00:00</time></trkpt><trkpt lat="39.48251534" lon="-0.38857271"><ele>14.2</ele><time>2022-11-02T18:18:58.0000000+00:00</time></trkpt><trkpt lat="39.48251861" lon="-0.38856684"><ele>14.2</ele><time>2022-11-02T18:18:59.0000000+00:00</time></trkpt><trkpt lat="39.4825187" lon="-0.38856022"><ele>14.4</ele><time>2022-11-02T18:19:00.0000000+00:00</time></trkpt><trkpt lat="39.48251534" lon="-0.38854974"><ele>14.4</ele><time>2022-11-02T18:19:01.0000000+00:00</time></trkpt><trkpt lat="39.48251492" lon="-0.38853122"><ele>14.4</ele><time>2022-11-02T18:19:02.0000000+00:00</time></trkpt><trkpt lat="39.48251006" lon="-0.38851756"><ele>14.4</ele><time>2022-11-02T18:19:03.0000000+00:00</time></trkpt><trkpt lat="39.48250855" lon="-0.3885023"><ele>14.4</ele><time>2022-11-02T18:19:04.0000000+00:00</time></trkpt><trkpt lat="39.48250679" lon="-0.38849048"><ele>14.4</ele><time>2022-11-02T18:19:05.0000000+00:00</time></trkpt><trkpt lat="39.48250738" lon="-0.38848009"><ele>14.2</ele><time>2022-11-02T18:19:06.0000000+00:00</time></trkpt><trkpt lat="39.48251031" lon="-0.38846995"><ele>14.2</ele><time>2022-11-02T18:19:07.0000000+00:00</time></trkpt><trkpt lat="39.48251585" lon="-0.38845142"><ele>14.2</ele><time>2022-11-02T18:19:08.0000000+00:00</time></trkpt><trkpt lat="39.48251635" lon="-0.3884324"><ele>14.2</ele><time>2022-11-02T18:19:09.0000000+00:00</time></trkpt><trkpt lat="39.48251928" lon="-0.38841337"><ele>14.2</ele><time>2022-11-02T18:19:10.0000000+00:00</time></trkpt><trkpt lat="39.4825254" lon="-0.388393"><ele>14.2</ele><time>2022-11-02T18:19:11.0000000+00:00</time></trkpt><trkpt lat="39.48253362" lon="-0.38837423"><ele>14.4</ele><time>2022-11-02T18:19:12.0000000+00:00</time></trkpt><trkpt lat="39.48253789" lon="-0.3883578"><ele>14.4</ele><time>2022-11-02T18:19:13.0000000+00:00</time></trkpt><trkpt lat="39.48253546" lon="-0.38834103"><ele>14.4</ele><time>2022-11-02T18:19:14.0000000+00:00</time></trkpt><trkpt lat="39.48252582" lon="-0.38832092"><ele>14.4</ele><time>2022-11-02T18:19:15.0000000+00:00</time></trkpt><trkpt lat="39.48251786" lon="-0.38830566"><ele>14.4</ele><time>2022-11-02T18:19:16.0000000+00:00</time></trkpt><trkpt lat="39.48251853" lon="-0.38828781"><ele>14.4</ele><time>2022-11-02T18:19:17.0000000+00:00</time></trkpt><trkpt lat="39.48252171" lon="-0.38827809"><ele>14.4</ele><time>2022-11-02T18:19:18.0000000+00:00</time></trkpt><trkpt lat="39.48252632" lon="-0.38827004"><ele>14.4</ele><time>2022-11-02T18:19:19.0000000+00:00</time></trkpt><trkpt lat="39.4825275" lon="-0.38826509"><ele>14.4</ele><time>2022-11-02T18:19:20.0000000+00:00</time></trkpt><trkpt lat="39.48253051" lon="-0.38826057"><ele>14.2</ele><time>2022-11-02T18:19:21.0000000+00:00</time></trkpt><trkpt lat="39.48252465" lon="-0.38825059"><ele>14.4</ele><time>2022-11-02T18:19:22.0000000+00:00</time></trkpt><trkpt lat="39.48252046" lon="-0.38824464"><ele>14.2</ele><time>2022-11-02T18:19:23.0000000+00:00</time></trkpt><trkpt lat="39.4825244" lon="-0.38824565"><ele>14.2</ele><time>2022-11-02T18:19:24.0000000+00:00</time></trkpt><trkpt lat="39.48253429" lon="-0.38824632"><ele>14.2</ele><time>2022-11-02T18:19:25.0000000+00:00</time></trkpt><trkpt lat="39.48254359" lon="-0.38823341"><ele>14.2</ele><time>2022-11-02T18:19:26.0000000+00:00</time></trkpt><trkpt lat="39.48254309" lon="-0.38822302"><ele>14.2</ele><time>2022-11-02T18:19:27.0000000+00:00</time></trkpt><trkpt lat="39.48254795" lon="-0.38820835"><ele>14.4</ele><time>2022-11-02T18:19:28.0000000+00:00</time></trkpt><trkpt lat="39.48254954" lon="-0.38819184"><ele>14.2</ele><time>2022-11-02T18:19:29.0000000+00:00</time></trkpt><trkpt lat="39.48255247" lon="-0.38817608"><ele>14.2</ele><time>2022-11-02T18:19:30.0000000+00:00</time></trkpt><trkpt lat="39.4825518" lon="-0.38815429"><ele>14.2</ele><time>2022-11-02T18:19:31.0000000+00:00</time></trkpt><trkpt lat="39.48255306" lon="-0.388134"><ele>14.2</ele><time>2022-11-02T18:19:32.0000000+00:00</time></trkpt><trkpt lat="39.48254912" lon="-0.38811808"><ele>14.2</ele><time>2022-11-02T18:19:33.0000000+00:00</time></trkpt><trkpt lat="39.4825461" lon="-0.38810316"><ele>14.2</ele><time>2022-11-02T18:19:34.0000000+00:00</time></trkpt><trkpt lat="39.48253973" lon="-0.38809276"><ele>14.2</ele><time>2022-11-02T18:19:35.0000000+00:00</time></trkpt><trkpt lat="39.4825342" lon="-0.38808228"><ele>14.2</ele><time>2022-11-02T18:19:36.0000000+00:00</time></trkpt><trkpt lat="39.48252867" lon="-0.38807265"><ele>14.2</ele><time>2022-11-02T18:19:37.0000000+00:00</time></trkpt><trkpt lat="39.48252523" lon="-0.38806753"><ele>14.0</ele><time>2022-11-02T18:19:38.0000000+00:00</time></trkpt><trkpt lat="39.48252155" lon="-0.38806477"><ele>14.0</ele><time>2022-11-02T18:19:39.0000000+00:00</time></trkpt><trkpt lat="39.48251903" lon="-0.38805873"><ele>14.0</ele><time>2022-11-02T18:19:40.0000000+00:00</time></trkpt><trkpt lat="39.48251777" lon="-0.38805152"><ele>14.2</ele><time>2022-11-02T18:19:41.0000000+00:00</time></trkpt><trkpt lat="39.48251358" lon="-0.38803954"><ele>14.2</ele><time>2022-11-02T18:19:42.0000000+00:00</time></trkpt><trkpt lat="39.48251006" lon="-0.38803434"><ele>14.2</ele><time>2022-11-02T18:19:43.0000000+00:00</time></trkpt><trkpt lat="39.48250889" lon="-0.38802898"><ele>14.2</ele><time>2022-11-02T18:19:44.0000000+00:00</time></trkpt><trkpt lat="39.48250059" lon="-0.38801691"><ele>14.2</ele><time>2022-11-02T18:19:45.0000000+00:00</time></trkpt><trkpt lat="39.48250185" lon="-0.38801221"><ele>14.2</ele><time>2022-11-02T18:19:46.0000000+00:00</time></trkpt><trkpt lat="39.48250403" lon="-0.38801054"><ele>14.2</ele><time>2022-11-02T18:19:47.0000000+00:00</time></trkpt><trkpt lat="39.48250193" lon="-0.3880102"><ele>14.2</ele><time>2022-11-02T18:19:48.0000000+00:00</time></trkpt><trkpt lat="39.48250386" lon="-0.38800199"><ele>14.2</ele><time>2022-11-02T18:19:49.0000000+00:00</time></trkpt><trkpt lat="39.48250637" lon="-0.38798397"><ele>14.4</ele><time>2022-11-02T18:19:50.0000000+00:00</time></trkpt><trkpt lat="39.48250772" lon="-0.3879724"><ele>14.4</ele><time>2022-11-02T18:19:51.0000000+00:00</time></trkpt><trkpt lat="39.48251543" lon="-0.38795538"><ele>14.4</ele><time>2022-11-02T18:19:52.0000000+00:00</time></trkpt><trkpt lat="39.48252322" lon="-0.38793191"><ele>14.4</ele><time>2022-11-02T18:19:53.0000000+00:00</time></trkpt><trkpt lat="39.48252683" lon="-0.38791381"><ele>14.4</ele><time>2022-11-02T18:19:54.0000000+00:00</time></trkpt><trkpt lat="39.48253118" lon="-0.38789118"><ele>14.4</ele><time>2022-11-02T18:19:55.0000000+00:00</time></trkpt><trkpt lat="39.48254384" lon="-0.38786938"><ele>14.4</ele><time>2022-11-02T18:19:56.0000000+00:00</time></trkpt><trkpt lat="39.48254979" lon="-0.38785053"><ele>14.4</ele><time>2022-11-02T18:19:57.0000000+00:00</time></trkpt><trkpt lat="39.48255147" lon="-0.38782722"><ele>14.4</ele><time>2022-11-02T18:19:58.0000000+00:00</time></trkpt><trkpt lat="39.48255348" lon="-0.38780459"><ele>14.4</ele><time>2022-11-02T18:19:59.0000000+00:00</time></trkpt><trkpt lat="39.48255507" lon="-0.3877864"><ele>14.4</ele><time>2022-11-02T18:20:00.0000000+00:00</time></trkpt><trkpt lat="39.48256337" lon="-0.38777408"><ele>14.4</ele><time>2022-11-02T18:20:01.0000000+00:00</time></trkpt><trkpt lat="39.48257511" lon="-0.38776956"><ele>14.4</ele><time>2022-11-02T18:20:02.0000000+00:00</time></trkpt><trkpt lat="39.48258215" lon="-0.38776402"><ele>14.4</ele><time>2022-11-02T18:20:03.0000000+00:00</time></trkpt><trkpt lat="39.48258651" lon="-0.38776444"><ele>14.4</ele><time>2022-11-02T18:20:04.0000000+00:00</time></trkpt><trkpt lat="39.48259346" lon="-0.38776771"><ele>14.6</ele><time>2022-11-02T18:20:05.0000000+00:00</time></trkpt><trkpt lat="39.48260101" lon="-0.38776562"><ele>14.6</ele><time>2022-11-02T18:20:06.0000000+00:00</time></trkpt><trkpt lat="39.48260604" lon="-0.3877735"><ele>14.6</ele><time>2022-11-02T18:20:07.0000000+00:00</time></trkpt><trkpt lat="39.48261526" lon="-0.38778137"><ele>14.6</ele><time>2022-11-02T18:20:08.0000000+00:00</time></trkpt><trkpt lat="39.48262112" lon="-0.38779068"><ele>14.6</ele><time>2022-11-02T18:20:09.0000000+00:00</time></trkpt><trkpt lat="39.4826223" lon="-0.38779579"><ele>14.6</ele><time>2022-11-02T18:20:10.0000000+00:00</time></trkpt><trkpt lat="39.48262313" lon="-0.38780359"><ele>14.6</ele><time>2022-11-02T18:20:11.0000000+00:00</time></trkpt><trkpt lat="39.48262506" lon="-0.38780174"><ele>14.6</ele><time>2022-11-02T18:20:12.0000000+00:00</time></trkpt><trkpt lat="39.48262657" lon="-0.38779931"><ele>14.6</ele><time>2022-11-02T18:20:13.0000000+00:00</time></trkpt><trkpt lat="39.48261207" lon="-0.38779219"><ele>14.6</ele><time>2022-11-02T18:20:14.0000000+00:00</time></trkpt><trkpt lat="39.48259455" lon="-0.38778448"><ele>14.4</ele><time>2022-11-02T18:20:15.0000000+00:00</time></trkpt><trkpt lat="39.48258734" lon="-0.38777869"><ele>14.4</ele><time>2022-11-02T18:20:16.0000000+00:00</time></trkpt><trkpt lat="39.48257812" lon="-0.38777375"><ele>14.4</ele><time>2022-11-02T18:20:17.0000000+00:00</time></trkpt><trkpt lat="39.48257427" lon="-0.38775899"><ele>14.4</ele><time>2022-11-02T18:20:18.0000000+00:00</time></trkpt><trkpt lat="39.48256295" lon="-0.38773796"><ele>14.4</ele><time>2022-11-02T18:20:19.0000000+00:00</time></trkpt><trkpt lat="39.48255239" lon="-0.38771641"><ele>14.4</ele><time>2022-11-02T18:20:20.0000000+00:00</time></trkpt><trkpt lat="39.4825482" lon="-0.38769915"><ele>14.4</ele><time>2022-11-02T18:20:21.0000000+00:00</time></trkpt><trkpt lat="39.48255239" lon="-0.38768842"><ele>14.4</ele><time>2022-11-02T18:20:22.0000000+00:00</time></trkpt><trkpt lat="39.48255792" lon="-0.38768021"><ele>14.2</ele><time>2022-11-02T18:20:23.0000000+00:00</time></trkpt><trkpt lat="39.48256706" lon="-0.38767568"><ele>14.2</ele><time>2022-11-02T18:20:24.0000000+00:00</time></trkpt><trkpt lat="39.48256605" lon="-0.38768062"><ele>14.2</ele><time>2022-11-02T18:20:25.0000000+00:00</time></trkpt><trkpt lat="39.48256698" lon="-0.3876771"><ele>14.4</ele><time>2022-11-02T18:20:26.0000000+00:00</time></trkpt><trkpt lat="39.48256547" lon="-0.38767694"><ele>14.4</ele><time>2022-11-02T18:20:27.0000000+00:00</time></trkpt><trkpt lat="39.4825544" lon="-0.38768532"><ele>14.4</ele><time>2022-11-02T18:20:28.0000000+00:00</time></trkpt><trkpt lat="39.48254736" lon="-0.38769144"><ele>14.4</ele><time>2022-11-02T18:20:29.0000000+00:00</time></trkpt><trkpt lat="39.48254191" lon="-0.38769764"><ele>14.4</ele><time>2022-11-02T18:20:30.0000000+00:00</time></trkpt><trkpt lat="39.48253848" lon="-0.38770015"><ele>14.4</ele><time>2022-11-02T18:20:31.0000000+00:00</time></trkpt><trkpt lat="39.48253923" lon="-0.38769781"><ele>14.4</ele><time>2022-11-02T18:20:32.0000000+00:00</time></trkpt><trkpt lat="39.48253571" lon="-0.38769781"><ele>14.2</ele><time>2022-11-02T18:20:33.0000000+00:00</time></trkpt><trkpt lat="39.48252792" lon="-0.38770585"><ele>14.2</ele><time>2022-11-02T18:20:34.0000000+00:00</time></trkpt><trkpt lat="39.48251727" lon="-0.38771658"><ele>14.2</ele><time>2022-11-02T18:20:35.0000000+00:00</time></trkpt><trkpt lat="39.48250403" lon="-0.38772597"><ele>14.2</ele><time>2022-11-02T18:20:36.0000000+00:00</time></trkpt><trkpt lat="39.48250193" lon="-0.3877279"><ele>14.2</ele><time>2022-11-02T18:20:37.0000000+00:00</time></trkpt><trkpt lat="39.48250034" lon="-0.38773016"><ele>14.2</ele><time>2022-11-02T18:20:38.0000000+00:00</time></trkpt><trkpt lat="39.48249933" lon="-0.38772807"><ele>14.2</ele><time>2022-11-02T18:20:39.0000000+00:00</time></trkpt><trkpt lat="39.48249724" lon="-0.38772714"><ele>14.2</ele><time>2022-11-02T18:20:40.0000000+00:00</time></trkpt><trkpt lat="39.48249808" lon="-0.38772932"><ele>14.2</ele><time>2022-11-02T18:20:41.0000000+00:00</time></trkpt><trkpt lat="39.48250277" lon="-0.38773066"><ele>14.2</ele><time>2022-11-02T18:20:42.0000000+00:00</time></trkpt><trkpt lat="39.48251006" lon="-0.38773301"><ele>14.2</ele><time>2022-11-02T18:20:43.0000000+00:00</time></trkpt><trkpt lat="39.4825187" lon="-0.38773695"><ele>14.2</ele><time>2022-11-02T18:20:44.0000000+00:00</time></trkpt><trkpt lat="39.48252574" lon="-0.38774273"><ele>14.2</ele><time>2022-11-02T18:20:45.0000000+00:00</time></trkpt><trkpt lat="39.48253496" lon="-0.38774156"><ele>14.2</ele><time>2022-11-02T18:20:46.0000000+00:00</time></trkpt><trkpt lat="39.48254325" lon="-0.38774315"><ele>14.2</ele><time>2022-11-02T18:20:47.0000000+00:00</time></trkpt><trkpt lat="39.4825482" lon="-0.38774651"><ele>14.2</ele><time>2022-11-02T18:20:48.0000000+00:00</time></trkpt><trkpt lat="39.4825539" lon="-0.38774667"><ele>14.2</ele><time>2022-11-02T18:20:49.0000000+00:00</time></trkpt><trkpt lat="39.48256002" lon="-0.38774475"><ele>14.2</ele><time>2022-11-02T18:20:50.0000000+00:00</time></trkpt><trkpt lat="39.48255843" lon="-0.38776822"><ele>14.2</ele><time>2022-11-02T18:20:51.0000000+00:00</time></trkpt><trkpt lat="39.48256128" lon="-0.38777249"><ele>14.2</ele><time>2022-11-02T18:20:52.0000000+00:00</time></trkpt><trkpt lat="39.48256438" lon="-0.38778322"><ele>14.4</ele><time>2022-11-02T18:20:53.0000000+00:00</time></trkpt><trkpt lat="39.48257024" lon="-0.38779286"><ele>14.4</ele><time>2022-11-02T18:20:54.0000000+00:00</time></trkpt><trkpt lat="39.48257502" lon="-0.38779286"><ele>14.4</ele><time>2022-11-02T18:20:55.0000000+00:00</time></trkpt><trkpt lat="39.48258684" lon="-0.38779336"><ele>14.4</ele><time>2022-11-02T18:20:56.0000000+00:00</time></trkpt><trkpt lat="39.48260134" lon="-0.38779914"><ele>14.4</ele><time>2022-11-02T18:20:57.0000000+00:00</time></trkpt><trkpt lat="39.48261056" lon="-0.3878035"><ele>14.4</ele><time>2022-11-02T18:20:58.0000000+00:00</time></trkpt><trkpt lat="39.48260645" lon="-0.38779571"><ele>14.4</ele><time>2022-11-02T18:20:59.0000000+00:00</time></trkpt><trkpt lat="39.48261031" lon="-0.38778691"><ele>14.4</ele><time>2022-11-02T18:21:00.0000000+00:00</time></trkpt><trkpt lat="39.48261643" lon="-0.38778288"><ele>14.4</ele><time>2022-11-02T18:21:01.0000000+00:00</time></trkpt><trkpt lat="39.4826238" lon="-0.38778942"><ele>14.4</ele><time>2022-11-02T18:21:02.0000000+00:00</time></trkpt><trkpt lat="39.48262959" lon="-0.3877911"><ele>14.4</ele><time>2022-11-02T18:21:03.0000000+00:00</time></trkpt><trkpt lat="39.48262892" lon="-0.38778992"><ele>14.4</ele><time>2022-11-02T18:21:04.0000000+00:00</time></trkpt><trkpt lat="39.48262791" lon="-0.38779093"><ele>14.4</ele><time>2022-11-02T18:21:05.0000000+00:00</time></trkpt><trkpt lat="39.482629" lon="-0.38779462"><ele>14.4</ele><time>2022-11-02T18:21:06.0000000+00:00</time></trkpt><trkpt lat="39.48262833" lon="-0.38779294"><ele>14.4</ele><time>2022-11-02T18:21:07.0000000+00:00</time></trkpt><trkpt lat="39.48263663" lon="-0.3877885"><ele>14.4</ele><time>2022-11-02T18:21:08.0000000+00:00</time></trkpt><trkpt lat="39.48266186" lon="-0.38778205"><ele>14.4</ele><time>2022-11-02T18:21:09.0000000+00:00</time></trkpt><trkpt lat="39.48267234" lon="-0.38776721"><ele>14.4</ele><time>2022-11-02T18:21:10.0000000+00:00</time></trkpt><trkpt lat="39.48266999" lon="-0.38775103"><ele>14.4</ele><time>2022-11-02T18:21:11.0000000+00:00</time></trkpt><trkpt lat="39.48266387" lon="-0.38773578"><ele>14.6</ele><time>2022-11-02T18:21:12.0000000+00:00</time></trkpt><trkpt lat="39.48266144" lon="-0.38771491"><ele>14.6</ele><time>2022-11-02T18:21:13.0000000+00:00</time></trkpt><trkpt lat="39.48267292" lon="-0.38770116"><ele>14.6</ele><time>2022-11-02T18:21:14.0000000+00:00</time></trkpt><trkpt lat="39.48267292" lon="-0.38768783"><ele>14.6</ele><time>2022-11-02T18:21:15.0000000+00:00</time></trkpt><trkpt lat="39.48267058" lon="-0.38767928"><ele>14.6</ele><time>2022-11-02T18:21:16.0000000+00:00</time></trkpt><trkpt lat="39.48268105" lon="-0.38768272"><ele>14.6</ele><time>2022-11-02T18:21:17.0000000+00:00</time></trkpt><trkpt lat="39.48267887" lon="-0.38767241"><ele>14.4</ele><time>2022-11-02T18:21:18.0000000+00:00</time></trkpt><trkpt lat="39.48268164" lon="-0.38766151"><ele>14.4</ele><time>2022-11-02T18:21:19.0000000+00:00</time></trkpt><trkpt lat="39.48269438" lon="-0.38765456"><ele>14.6</ele><time>2022-11-02T18:21:20.0000000+00:00</time></trkpt><trkpt lat="39.48271215" lon="-0.38766"><ele>14.6</ele><time>2022-11-02T18:21:21.0000000+00:00</time></trkpt><trkpt lat="39.48271919" lon="-0.38766621"><ele>14.6</ele><time>2022-11-02T18:21:22.0000000+00:00</time></trkpt><trkpt lat="39.48273" lon="-0.38766646"><ele>14.6</ele><time>2022-11-02T18:21:23.0000000+00:00</time></trkpt><trkpt lat="39.48274543" lon="-0.38766604"><ele>14.6</ele><time>2022-11-02T18:21:24.0000000+00:00</time></trkpt><trkpt lat="39.48275414" lon="-0.38765724"><ele>14.4</ele><time>2022-11-02T18:21:25.0000000+00:00</time></trkpt><trkpt lat="39.48276077" lon="-0.38764441"><ele>14.4</ele><time>2022-11-02T18:21:26.0000000+00:00</time></trkpt><trkpt lat="39.48276177" lon="-0.38762505"><ele>14.4</ele><time>2022-11-02T18:21:27.0000000+00:00</time></trkpt><trkpt lat="39.48276965" lon="-0.38760762"><ele>14.4</ele><time>2022-11-02T18:21:28.0000000+00:00</time></trkpt><trkpt lat="39.48277619" lon="-0.38758767"><ele>14.4</ele><time>2022-11-02T18:21:29.0000000+00:00</time></trkpt><trkpt lat="39.48277493" lon="-0.38756521"><ele>14.4</ele><time>2022-11-02T18:21:30.0000000+00:00</time></trkpt><trkpt lat="39.48277921" lon="-0.38754517"><ele>14.4</ele><time>2022-11-02T18:21:31.0000000+00:00</time></trkpt><trkpt lat="39.48278323" lon="-0.38752548"><ele>14.4</ele><time>2022-11-02T18:21:32.0000000+00:00</time></trkpt><trkpt lat="39.48278239" lon="-0.38751433"><ele>14.4</ele><time>2022-11-02T18:21:33.0000000+00:00</time></trkpt><trkpt lat="39.48277636" lon="-0.38750527"><ele>14.4</ele><time>2022-11-02T18:21:34.0000000+00:00</time></trkpt><trkpt lat="39.48276714" lon="-0.38749723"><ele>14.4</ele><time>2022-11-02T18:21:35.0000000+00:00</time></trkpt><trkpt lat="39.48274685" lon="-0.387472"><ele>14.4</ele><time>2022-11-02T18:21:36.0000000+00:00</time></trkpt><trkpt lat="39.48275456" lon="-0.38746722"><ele>14.4</ele><time>2022-11-02T18:21:37.0000000+00:00</time></trkpt><trkpt lat="39.48276211" lon="-0.38746764"><ele>14.4</ele><time>2022-11-02T18:21:38.0000000+00:00</time></trkpt><trkpt lat="39.4827611" lon="-0.38746538"><ele>14.4</ele><time>2022-11-02T18:21:39.0000000+00:00</time></trkpt><trkpt lat="39.48273227" lon="-0.38744551"><ele>14.4</ele><time>2022-11-02T18:21:40.0000000+00:00</time></trkpt><trkpt lat="39.48271081" lon="-0.38743487"><ele>14.4</ele><time>2022-11-02T18:21:41.0000000+00:00</time></trkpt><trkpt lat="39.48269337" lon="-0.38742875"><ele>14.4</ele><time>2022-11-02T18:21:42.0000000+00:00</time></trkpt><trkpt lat="39.48267879" lon="-0.38742104"><ele>14.4</ele><time>2022-11-02T18:21:43.0000000+00:00</time></trkpt><trkpt lat="39.48266806" lon="-0.38742062"><ele>14.4</ele><time>2022-11-02T18:21:44.0000000+00:00</time></trkpt><trkpt lat="39.48265566" lon="-0.387415"><ele>14.4</ele><time>2022-11-02T18:21:45.0000000+00:00</time></trkpt><trkpt lat="39.48264669" lon="-0.38741425"><ele>14.4</ele><time>2022-11-02T18:21:46.0000000+00:00</time></trkpt><trkpt lat="39.48263629" lon="-0.38741198"><ele>14.4</ele><time>2022-11-02T18:21:47.0000000+00:00</time></trkpt><trkpt lat="39.48262313" lon="-0.3874088"><ele>14.4</ele><time>2022-11-02T18:21:48.0000000+00:00</time></trkpt><trkpt lat="39.48261442" lon="-0.38740595"><ele>14.4</ele><time>2022-11-02T18:21:49.0000000+00:00</time></trkpt><trkpt lat="39.48260478" lon="-0.3874026"><ele>14.4</ele><time>2022-11-02T18:21:50.0000000+00:00</time></trkpt></trkseg><trkseg><trkpt lat="39.45252246" lon="-0.34536651"><ele>11.2</ele><time>2022-11-04T13:56:57.0000000+00:00</time></trkpt><trkpt lat="39.45233756" lon="-0.34535863"><ele>11.2</ele><time>2022-11-04T13:56:58.0000000+00:00</time></trkpt><trkpt lat="39.45214" lon="-0.34539116"><ele>11.2</ele><time>2022-11-04T13:56:59.0000000+00:00</time></trkpt><trkpt lat="39.45219289" lon="-0.34536869"><ele>11.2</ele><time>2022-11-04T13:57:00.0000000+00:00</time></trkpt><trkpt lat="39.45222608" lon="-0.34534615"><ele>11.2</ele><time>2022-11-04T13:57:01.0000000+00:00</time></trkpt><trkpt lat="39.45225189" lon="-0.34532846"><ele>11.2</ele><time>2022-11-04T13:57:02.0000000+00:00</time></trkpt><trkpt lat="39.45226992" lon="-0.34530868"><ele>11.2</ele><time>2022-11-04T13:57:03.0000000+00:00</time></trkpt><trkpt lat="39.45228442" lon="-0.34529384"><ele>11.2</ele><time>2022-11-04T13:57:04.0000000+00:00</time></trkpt><trkpt lat="39.45229691" lon="-0.34528429"><ele>11.2</ele><time>2022-11-04T13:57:05.0000000+00:00</time></trkpt><trkpt lat="39.45232993" lon="-0.34526208"><ele>11.2</ele><time>2022-11-04T13:57:06.0000000+00:00</time></trkpt><trkpt lat="39.45234384" lon="-0.34524866"><ele>11.2</ele><time>2022-11-04T13:57:07.0000000+00:00</time></trkpt><trkpt lat="39.45235793" lon="-0.34523861"><ele>11.2</ele><time>2022-11-04T13:57:08.0000000+00:00</time></trkpt><trkpt lat="39.45236413" lon="-0.3452345"><ele>11.2</ele><time>2022-11-04T13:57:09.0000000+00:00</time></trkpt><trkpt lat="39.45236245" lon="-0.34523861"><ele>11.2</ele><time>2022-11-04T13:57:10.0000000+00:00</time></trkpt><trkpt lat="39.45236069" lon="-0.34524514"><ele>11.4</ele><time>2022-11-04T13:57:11.0000000+00:00</time></trkpt><trkpt lat="39.45235776" lon="-0.34525478"><ele>11.4</ele><time>2022-11-04T13:57:12.0000000+00:00</time></trkpt><trkpt lat="39.45235206" lon="-0.34525872"><ele>11.4</ele><time>2022-11-04T13:57:13.0000000+00:00</time></trkpt><trkpt lat="39.45235591" lon="-0.34525897"><ele>11.4</ele><time>2022-11-04T13:57:14.0000000+00:00</time></trkpt><trkpt lat="39.45235491" lon="-0.34526191"><ele>11.4</ele><time>2022-11-04T13:57:15.0000000+00:00</time></trkpt><trkpt lat="39.45235776" lon="-0.34526057"><ele>11.4</ele><time>2022-11-04T13:57:16.0000000+00:00</time></trkpt><trkpt lat="39.45235885" lon="-0.34526082"><ele>11.4</ele><time>2022-11-04T13:57:17.0000000+00:00</time></trkpt><trkpt lat="39.45235935" lon="-0.34526275"><ele>11.4</ele><time>2022-11-04T13:57:18.0000000+00:00</time></trkpt><trkpt lat="39.45236245" lon="-0.34526467"><ele>11.4</ele><time>2022-11-04T13:57:19.0000000+00:00</time></trkpt><trkpt lat="39.45236287" lon="-0.34526895"><ele>11.4</ele><time>2022-11-04T13:57:20.0000000+00:00</time></trkpt><trkpt lat="39.45235977" lon="-0.34527121"><ele>11.4</ele><time>2022-11-04T13:57:21.0000000+00:00</time></trkpt><trkpt lat="39.45236002" lon="-0.34527314"><ele>11.4</ele><time>2022-11-04T13:57:22.0000000+00:00</time></trkpt><trkpt lat="39.45236312" lon="-0.3452754"><ele>11.4</ele><time>2022-11-04T13:57:23.0000000+00:00</time></trkpt><trkpt lat="39.45236497" lon="-0.34528018"><ele>11.4</ele><time>2022-11-04T13:57:24.0000000+00:00</time></trkpt><trkpt lat="39.45236606" lon="-0.34528286"><ele>11.4</ele><time>2022-11-04T13:57:25.0000000+00:00</time></trkpt><trkpt lat="39.45236279" lon="-0.34528546"><ele>11.4</ele><time>2022-11-04T13:57:26.0000000+00:00</time></trkpt><trkpt lat="39.4523617" lon="-0.34528429"><ele>11.4</ele><time>2022-11-04T13:57:27.0000000+00:00</time></trkpt><trkpt lat="39.45236052" lon="-0.34528395"><ele>11.4</ele><time>2022-11-04T13:57:28.0000000+00:00</time></trkpt><trkpt lat="39.45235818" lon="-0.34528236"><ele>11.2</ele><time>2022-11-04T13:57:29.0000000+00:00</time></trkpt><trkpt lat="39.45234912" lon="-0.34528395"><ele>11.2</ele><time>2022-11-04T13:57:30.0000000+00:00</time></trkpt><trkpt lat="39.45233169" lon="-0.34529694"><ele>11.2</ele><time>2022-11-04T13:57:31.0000000+00:00</time></trkpt><trkpt lat="39.45232666" lon="-0.34530155"><ele>11.2</ele><time>2022-11-04T13:57:32.0000000+00:00</time></trkpt><trkpt lat="39.45232096" lon="-0.34530415"><ele>11.2</ele><time>2022-11-04T13:57:33.0000000+00:00</time></trkpt><trkpt lat="39.45230923" lon="-0.34531036"><ele>11.4</ele><time>2022-11-04T13:57:34.0000000+00:00</time></trkpt><trkpt lat="39.45230269" lon="-0.34531086"><ele>11.4</ele><time>2022-11-04T13:57:35.0000000+00:00</time></trkpt><trkpt lat="39.45229707" lon="-0.34531362"><ele>11.4</ele><time>2022-11-04T13:57:36.0000000+00:00</time></trkpt><trkpt lat="39.45229707" lon="-0.34530893"><ele>11.4</ele><time>2022-11-04T13:57:37.0000000+00:00</time></trkpt><trkpt lat="39.45231476" lon="-0.34529829"><ele>11.4</ele><time>2022-11-04T13:57:38.0000000+00:00</time></trkpt><trkpt lat="39.45232934" lon="-0.34528739"><ele>11.4</ele><time>2022-11-04T13:57:39.0000000+00:00</time></trkpt><trkpt lat="39.45233136" lon="-0.3452858"><ele>11.4</ele><time>2022-11-04T13:57:40.0000000+00:00</time></trkpt><trkpt lat="39.45232624" lon="-0.34528831"><ele>11.4</ele><time>2022-11-04T13:57:41.0000000+00:00</time></trkpt><trkpt lat="39.45232733" lon="-0.34529057"><ele>11.4</ele><time>2022-11-04T13:57:42.0000000+00:00</time></trkpt><trkpt lat="39.45233597" lon="-0.34528848"><ele>11.4</ele><time>2022-11-04T13:57:43.0000000+00:00</time></trkpt><trkpt lat="39.45234208" lon="-0.34528663"><ele>11.4</ele><time>2022-11-04T13:57:44.0000000+00:00</time></trkpt><trkpt lat="39.45233731" lon="-0.34528957"><ele>11.4</ele><time>2022-11-04T13:57:45.0000000+00:00</time></trkpt><trkpt lat="39.45233949" lon="-0.34529233"><ele>11.4</ele><time>2022-11-04T13:57:46.0000000+00:00</time></trkpt><trkpt lat="39.45234812" lon="-0.34529015"><ele>11.4</ele><time>2022-11-04T13:57:47.0000000+00:00</time></trkpt><trkpt lat="39.45235835" lon="-0.34528663"><ele>11.4</ele><time>2022-11-04T13:57:48.0000000+00:00</time></trkpt><trkpt lat="39.45235751" lon="-0.34528982"><ele>11.4</ele><time>2022-11-04T13:57:49.0000000+00:00</time></trkpt><trkpt lat="39.45236949" lon="-0.34528764"><ele>11.4</ele><time>2022-11-04T13:57:50.0000000+00:00</time></trkpt><trkpt lat="39.45237352" lon="-0.34528999"><ele>11.4</ele><time>2022-11-04T13:57:51.0000000+00:00</time></trkpt><trkpt lat="39.45237855" lon="-0.34528873"><ele>11.4</ele><time>2022-11-04T13:57:52.0000000+00:00</time></trkpt><trkpt lat="39.45239221" lon="-0.34528035"><ele>11.4</ele><time>2022-11-04T13:57:53.0000000+00:00</time></trkpt><trkpt lat="39.45240168" lon="-0.34527607"><ele>11.4</ele><time>2022-11-04T13:57:54.0000000+00:00</time></trkpt><trkpt lat="39.45241048" lon="-0.34527046"><ele>11.4</ele><time>2022-11-04T13:57:55.0000000+00:00</time></trkpt><trkpt lat="39.45242649" lon="-0.34526216"><ele>11.4</ele><time>2022-11-04T13:57:56.0000000+00:00</time></trkpt><trkpt lat="39.45243429" lon="-0.34525931"><ele>11.4</ele><time>2022-11-04T13:57:57.0000000+00:00</time></trkpt><trkpt lat="39.45243697" lon="-0.34525747"><ele>11.4</ele><time>2022-11-04T13:57:58.0000000+00:00</time></trkpt><trkpt lat="39.45243856" lon="-0.34525638"><ele>11.4</ele><time>2022-11-04T13:57:59.0000000+00:00</time></trkpt><trkpt lat="39.45244451" lon="-0.34525361"><ele>11.4</ele><time>2022-11-04T13:58:00.0000000+00:00</time></trkpt><trkpt lat="39.45244937" lon="-0.34525235"><ele>11.4</ele><time>2022-11-04T13:58:01.0000000+00:00</time></trkpt><trkpt lat="39.4524513" lon="-0.34524992"><ele>11.4</ele><time>2022-11-04T13:58:02.0000000+00:00</time></trkpt><trkpt lat="39.45244451" lon="-0.34524833"><ele>11.4</ele><time>2022-11-04T13:58:03.0000000+00:00</time></trkpt><trkpt lat="39.45243839" lon="-0.34524372"><ele>11.4</ele><time>2022-11-04T13:58:04.0000000+00:00</time></trkpt><trkpt lat="39.45243353" lon="-0.34524003"><ele>11.4</ele><time>2022-11-04T13:58:05.0000000+00:00</time></trkpt><trkpt lat="39.45242926" lon="-0.34524079"><ele>11.4</ele><time>2022-11-04T13:58:06.0000000+00:00</time></trkpt><trkpt lat="39.45242339" lon="-0.34524548"><ele>11.4</ele><time>2022-11-04T13:58:07.0000000+00:00</time></trkpt><trkpt lat="39.45241903" lon="-0.34525386"><ele>11.4</ele><time>2022-11-04T13:58:08.0000000+00:00</time></trkpt><trkpt lat="39.45241819" lon="-0.34525596"><ele>11.4</ele><time>2022-11-04T13:58:09.0000000+00:00</time></trkpt><trkpt lat="39.45241869" lon="-0.3452547"><ele>11.4</ele><time>2022-11-04T13:58:10.0000000+00:00</time></trkpt><trkpt lat="39.45242708" lon="-0.34525394"><ele>11.4</ele><time>2022-11-04T13:58:11.0000000+00:00</time></trkpt><trkpt lat="39.452442" lon="-0.3452547"><ele>11.4</ele><time>2022-11-04T13:58:12.0000000+00:00</time></trkpt><trkpt lat="39.45245138" lon="-0.34526208"><ele>11.4</ele><time>2022-11-04T13:58:13.0000000+00:00</time></trkpt><trkpt lat="39.45246429" lon="-0.34526459"><ele>11.4</ele><time>2022-11-04T13:58:14.0000000+00:00</time></trkpt><trkpt lat="39.45247427" lon="-0.34526819"><ele>11.4</ele><time>2022-11-04T13:58:15.0000000+00:00</time></trkpt><trkpt lat="39.45248148" lon="-0.34527431"><ele>11.4</ele><time>2022-11-04T13:58:16.0000000+00:00</time></trkpt><trkpt lat="39.45248541" lon="-0.34527959"><ele>11.4</ele><time>2022-11-04T13:58:17.0000000+00:00</time></trkpt><trkpt lat="39.45249095" lon="-0.34528035"><ele>11.4</ele><time>2022-11-04T13:58:18.0000000+00:00</time></trkpt><trkpt lat="39.45249095" lon="-0.34528035"><ele>11.4</ele><time>2022-11-04T13:58:19.0000000+00:00</time></trkpt><trkpt lat="39.45249095" lon="-0.34528035"><ele>11.4</ele><time>2022-11-04T13:58:20.0000000+00:00</time></trkpt><trkpt lat="39.45249095" lon="-0.34528035"><ele>11.4</ele><time>2022-11-04T13:58:21.0000000+00:00</time></trkpt><trkpt lat="39.45249095" lon="-0.34528035"><ele>11.4</ele><time>2022-11-04T13:58:22.0000000+00:00</time></trkpt><trkpt lat="39.45249095" lon="-0.34528035"><ele>11.4</ele><time>2022-11-04T13:58:23.0000000+00:00</time></trkpt><trkpt lat="39.45249095" lon="-0.34528035"><ele>11.4</ele><time>2022-11-04T13:58:24.0000000+00:00</time></trkpt><trkpt lat="39.45249095" lon="-0.34528035"><ele>11.4</ele><time>2022-11-04T13:58:25.0000000+00:00</time></trkpt><trkpt lat="39.45249095" lon="-0.34528035"><ele>11.4</ele><time>2022-11-04T13:58:26.0000000+00:00</time></trkpt><trkpt lat="39.45249095" lon="-0.34528035"><ele>11.4</ele><time>2022-11-04T13:58:27.0000000+00:00</time></trkpt><trkpt lat="39.45249095" lon="-0.34528035"><ele>11.4</ele><time>2022-11-04T13:58:28.0000000+00:00</time></trkpt><trkpt lat="39.45249095" lon="-0.34528035"><ele>11.4</ele><time>2022-11-04T13:58:29.0000000+00:00</time></trkpt><trkpt lat="39.45249095" lon="-0.34528035"><ele>11.4</ele><time>2022-11-04T13:58:30.0000000+00:00</time></trkpt><trkpt lat="39.45249095" lon="-0.34528035"><ele>11.4</ele><time>2022-11-04T13:58:31.0000000+00:00</time></trkpt><trkpt lat="39.45249095" lon="-0.34528035"><ele>11.4</ele><time>2022-11-04T13:58:32.0000000+00:00</time></trkpt><trkpt lat="39.45249095" lon="-0.34528035"><ele>11.4</ele><time>2022-11-04T13:58:33.0000000+00:00</time></trkpt><trkpt lat="39.45249095" lon="-0.3452811"><ele>11.4</ele><time>2022-11-04T13:58:34.0000000+00:00</time></trkpt><trkpt lat="39.45249095" lon="-0.3452832"><ele>11.4</ele><time>2022-11-04T13:58:35.0000000+00:00</time></trkpt><trkpt lat="39.45249095" lon="-0.34528647"><ele>11.4</ele><time>2022-11-04T13:58:36.0000000+00:00</time></trkpt><trkpt lat="39.45249086" lon="-0.34529166"><ele>11.4</ele><time>2022-11-04T13:58:37.0000000+00:00</time></trkpt><trkpt lat="39.4524907" lon="-0.34529451"><ele>11.4</ele><time>2022-11-04T13:58:38.0000000+00:00</time></trkpt><trkpt lat="39.4524886" lon="-0.34530147"><ele>11.4</ele><time>2022-11-04T13:58:39.0000000+00:00</time></trkpt><trkpt lat="39.45248835" lon="-0.34530516"><ele>11.4</ele><time>2022-11-04T13:58:40.0000000+00:00</time></trkpt><trkpt lat="39.45248835" lon="-0.34530809"><ele>11.4</ele><time>2022-11-04T13:58:41.0000000+00:00</time></trkpt><trkpt lat="39.45248835" lon="-0.34530994"><ele>11.4</ele><time>2022-11-04T13:58:42.0000000+00:00</time></trkpt><trkpt lat="39.45248835" lon="-0.34531052"><ele>11.4</ele><time>2022-11-04T13:58:43.0000000+00:00</time></trkpt><trkpt lat="39.45248835" lon="-0.34531103"><ele>11.4</ele><time>2022-11-04T13:58:44.0000000+00:00</time></trkpt><trkpt lat="39.45248835" lon="-0.34531119"><ele>11.4</ele><time>2022-11-04T13:58:45.0000000+00:00</time></trkpt><trkpt lat="39.45248835" lon="-0.34531178"><ele>11.4</ele><time>2022-11-04T13:58:46.0000000+00:00</time></trkpt><trkpt lat="39.45248835" lon="-0.34531262"><ele>11.4</ele><time>2022-11-04T13:58:47.0000000+00:00</time></trkpt><trkpt lat="39.4524865" lon="-0.34531371"><ele>11.4</ele><time>2022-11-04T13:58:48.0000000+00:00</time></trkpt><trkpt lat="39.45248273" lon="-0.34531446"><ele>11.4</ele><time>2022-11-04T13:58:49.0000000+00:00</time></trkpt><trkpt lat="39.45248047" lon="-0.3453184"><ele>11.4</ele><time>2022-11-04T13:58:50.0000000+00:00</time></trkpt><trkpt lat="39.45247913" lon="-0.3453246"><ele>11.4</ele><time>2022-11-04T13:58:51.0000000+00:00</time></trkpt><trkpt lat="39.45247863" lon="-0.34532553"><ele>11.4</ele><time>2022-11-04T13:58:52.0000000+00:00</time></trkpt><trkpt lat="39.45247837" lon="-0.34532569"><ele>11.4</ele><time>2022-11-04T13:58:53.0000000+00:00</time></trkpt><trkpt lat="39.45247829" lon="-0.34532578"><ele>11.4</ele><time>2022-11-04T13:58:54.0000000+00:00</time></trkpt><trkpt lat="39.45247829" lon="-0.34532578"><ele>11.4</ele><time>2022-11-04T13:58:55.0000000+00:00</time></trkpt><trkpt lat="39.45247829" lon="-0.34532578"><ele>11.4</ele><time>2022-11-04T13:58:56.0000000+00:00</time></trkpt><trkpt lat="39.45247829" lon="-0.34532578"><ele>11.4</ele><time>2022-11-04T13:58:57.0000000+00:00</time></trkpt><trkpt lat="39.45247829" lon="-0.34532578"><ele>11.4</ele><time>2022-11-04T13:58:58.0000000+00:00</time></trkpt><trkpt lat="39.45247829" lon="-0.34532578"><ele>11.4</ele><time>2022-11-04T13:58:59.0000000+00:00</time></trkpt><trkpt lat="39.45247829" lon="-0.34532578"><ele>11.4</ele><time>2022-11-04T13:59:00.0000000+00:00</time></trkpt><trkpt lat="39.45247829" lon="-0.34532578"><ele>11.4</ele><time>2022-11-04T13:59:01.0000000+00:00</time></trkpt><trkpt lat="39.45247829" lon="-0.34532578"><ele>11.4</ele><time>2022-11-04T13:59:02.0000000+00:00</time></trkpt><trkpt lat="39.45247829" lon="-0.34532578"><ele>11.4</ele><time>2022-11-04T13:59:03.0000000+00:00</time></trkpt><trkpt lat="39.45247829" lon="-0.34532578"><ele>11.4</ele><time>2022-11-04T13:59:04.0000000+00:00</time></trkpt><trkpt lat="39.45247854" lon="-0.34532578"><ele>11.4</ele><time>2022-11-04T13:59:05.0000000+00:00</time></trkpt><trkpt lat="39.45247879" lon="-0.34532377"><ele>11.4</ele><time>2022-11-04T13:59:06.0000000+00:00</time></trkpt><trkpt lat="39.4524798" lon="-0.34532075"><ele>11.4</ele><time>2022-11-04T13:59:07.0000000+00:00</time></trkpt><trkpt lat="39.45248047" lon="-0.34531463"><ele>11.4</ele><time>2022-11-04T13:59:08.0000000+00:00</time></trkpt><trkpt lat="39.45248734" lon="-0.34530675"><ele>11.4</ele><time>2022-11-04T13:59:09.0000000+00:00</time></trkpt><trkpt lat="39.45248986" lon="-0.3453008"><ele>11.4</ele><time>2022-11-04T13:59:10.0000000+00:00</time></trkpt><trkpt lat="39.45249061" lon="-0.3452987"><ele>11.4</ele><time>2022-11-04T13:59:11.0000000+00:00</time></trkpt><trkpt lat="39.45249086" lon="-0.34529787"><ele>11.4</ele><time>2022-11-04T13:59:12.0000000+00:00</time></trkpt><trkpt lat="39.45249103" lon="-0.34529728"><ele>11.4</ele><time>2022-11-04T13:59:13.0000000+00:00</time></trkpt><trkpt lat="39.45249137" lon="-0.34529678"><ele>11.4</ele><time>2022-11-04T13:59:14.0000000+00:00</time></trkpt><trkpt lat="39.45249204" lon="-0.34529644"><ele>11.4</ele><time>2022-11-04T13:59:15.0000000+00:00</time></trkpt><trkpt lat="39.45249262" lon="-0.3452956"><ele>11.4</ele><time>2022-11-04T13:59:16.0000000+00:00</time></trkpt><trkpt lat="39.45249279" lon="-0.34529468"><ele>11.4</ele><time>2022-11-04T13:59:17.0000000+00:00</time></trkpt><trkpt lat="39.45249279" lon="-0.34529426"><ele>11.4</ele><time>2022-11-04T13:59:18.0000000+00:00</time></trkpt><trkpt lat="39.45249279" lon="-0.34529401"><ele>11.4</ele><time>2022-11-04T13:59:19.0000000+00:00</time></trkpt><trkpt lat="39.45249287" lon="-0.34529393"><ele>11.4</ele><time>2022-11-04T13:59:20.0000000+00:00</time></trkpt><trkpt lat="39.45249287" lon="-0.34529384"><ele>11.4</ele><time>2022-11-04T13:59:21.0000000+00:00</time></trkpt><trkpt lat="39.45249287" lon="-0.34529351"><ele>11.4</ele><time>2022-11-04T13:59:22.0000000+00:00</time></trkpt><trkpt lat="39.45249287" lon="-0.34529326"><ele>11.4</ele><time>2022-11-04T13:59:23.0000000+00:00</time></trkpt><trkpt lat="39.45249287" lon="-0.34529066"><ele>11.4</ele><time>2022-11-04T13:59:24.0000000+00:00</time></trkpt><trkpt lat="39.45249287" lon="-0.34528932"><ele>11.4</ele><time>2022-11-04T13:59:25.0000000+00:00</time></trkpt><trkpt lat="39.45249287" lon="-0.34528848"><ele>11.4</ele><time>2022-11-04T13:59:26.0000000+00:00</time></trkpt><trkpt lat="39.45249287" lon="-0.34528789"><ele>11.4</ele><time>2022-11-04T13:59:27.0000000+00:00</time></trkpt><trkpt lat="39.45249287" lon="-0.34528747"><ele>11.4</ele><time>2022-11-04T13:59:28.0000000+00:00</time></trkpt><trkpt lat="39.45249287" lon="-0.3452868"><ele>11.4</ele><time>2022-11-04T13:59:29.0000000+00:00</time></trkpt><trkpt lat="39.45249246" lon="-0.34528655"><ele>11.4</ele><time>2022-11-04T13:59:30.0000000+00:00</time></trkpt><trkpt lat="39.45249229" lon="-0.34528647"><ele>11.4</ele><time>2022-11-04T13:59:31.0000000+00:00</time></trkpt><trkpt lat="39.45249036" lon="-0.34528638"><ele>11.4</ele><time>2022-11-04T13:59:32.0000000+00:00</time></trkpt><trkpt lat="39.45248843" lon="-0.34529007"><ele>11.4</ele><time>2022-11-04T13:59:33.0000000+00:00</time></trkpt><trkpt lat="39.45248416" lon="-0.3453132"><ele>11.4</ele><time>2022-11-04T13:59:34.0000000+00:00</time></trkpt><trkpt lat="39.45248441" lon="-0.34533332"><ele>11.4</ele><time>2022-11-04T13:59:35.0000000+00:00</time></trkpt><trkpt lat="39.45248399" lon="-0.34534916"><ele>11.4</ele><time>2022-11-04T13:59:36.0000000+00:00</time></trkpt><trkpt lat="39.4524803" lon="-0.34535897"><ele>11.4</ele><time>2022-11-04T13:59:37.0000000+00:00</time></trkpt><trkpt lat="39.45248332" lon="-0.34536735"><ele>11.4</ele><time>2022-11-04T13:59:38.0000000+00:00</time></trkpt><trkpt lat="39.45248441" lon="-0.34537129"><ele>11.4</ele><time>2022-11-04T13:59:39.0000000+00:00</time></trkpt><trkpt lat="39.45248785" lon="-0.34537783"><ele>11.4</ele><time>2022-11-04T13:59:40.0000000+00:00</time></trkpt><trkpt lat="39.4524912" lon="-0.34538671"><ele>11.4</ele><time>2022-11-04T13:59:41.0000000+00:00</time></trkpt><trkpt lat="39.45248994" lon="-0.34539543"><ele>11.4</ele><time>2022-11-04T13:59:42.0000000+00:00</time></trkpt><trkpt lat="39.45248835" lon="-0.34540147"><ele>10.0</ele><time>2022-11-04T13:59:43.0000000+00:00</time></trkpt><trkpt lat="39.45248265" lon="-0.34539878"><ele>9.2</ele><time>2022-11-04T13:59:44.0000000+00:00</time></trkpt><trkpt lat="39.45248751" lon="-0.34539577"><ele>8.8</ele><time>2022-11-04T13:59:45.0000000+00:00</time></trkpt><trkpt lat="39.45249723" lon="-0.34539082"><ele>8.2</ele><time>2022-11-04T13:59:46.0000000+00:00</time></trkpt><trkpt lat="39.4525052" lon="-0.34539476"><ele>7.8</ele><time>2022-11-04T13:59:47.0000000+00:00</time></trkpt><trkpt lat="39.45250788" lon="-0.34539694"><ele>7.6</ele><time>2022-11-04T13:59:48.0000000+00:00</time></trkpt><trkpt lat="39.45251676" lon="-0.34539409"><ele>7.4</ele><time>2022-11-04T13:59:49.0000000+00:00</time></trkpt><trkpt lat="39.45252179" lon="-0.34539023"><ele>7.2</ele><time>2022-11-04T13:59:50.0000000+00:00</time></trkpt><trkpt lat="39.45253386" lon="-0.34538453"><ele>7.0</ele><time>2022-11-04T13:59:51.0000000+00:00</time></trkpt><trkpt lat="39.45254099" lon="-0.34537867"><ele>7.0</ele><time>2022-11-04T13:59:52.0000000+00:00</time></trkpt><trkpt lat="39.45255364" lon="-0.34537515"><ele>6.8</ele><time>2022-11-04T13:59:53.0000000+00:00</time></trkpt><trkpt lat="39.45256647" lon="-0.34537121"><ele>6.8</ele><time>2022-11-04T13:59:54.0000000+00:00</time></trkpt><trkpt lat="39.4525689" lon="-0.34536492"><ele>6.8</ele><time>2022-11-04T13:59:55.0000000+00:00</time></trkpt><trkpt lat="39.45257183" lon="-0.34536794"><ele>6.8</ele><time>2022-11-04T13:59:56.0000000+00:00</time></trkpt><trkpt lat="39.45256999" lon="-0.34537104"><ele>6.8</ele><time>2022-11-04T13:59:57.0000000+00:00</time></trkpt><trkpt lat="39.45256647" lon="-0.34536945"><ele>6.8</ele><time>2022-11-04T13:59:58.0000000+00:00</time></trkpt><trkpt lat="39.45256689" lon="-0.34536718"><ele>6.8</ele><time>2022-11-04T13:59:59.0000000+00:00</time></trkpt><trkpt lat="39.45256437" lon="-0.3453676"><ele>6.6</ele><time>2022-11-04T14:00:00.0000000+00:00</time></trkpt><trkpt lat="39.45256102" lon="-0.34537062"><ele>6.6</ele><time>2022-11-04T14:00:01.0000000+00:00</time></trkpt><trkpt lat="39.45255918" lon="-0.34537582"><ele>6.4</ele><time>2022-11-04T14:00:02.0000000+00:00</time></trkpt><trkpt lat="39.45255943" lon="-0.34539082"><ele>6.4</ele><time>2022-11-04T14:00:03.0000000+00:00</time></trkpt><trkpt lat="39.45256244" lon="-0.34539535"><ele>6.4</ele><time>2022-11-04T14:00:04.0000000+00:00</time></trkpt><trkpt lat="39.45255566" lon="-0.34539384"><ele>6.4</ele><time>2022-11-04T14:00:05.0000000+00:00</time></trkpt><trkpt lat="39.45255566" lon="-0.34539384"><ele>6.4</ele><time>2022-11-04T14:00:06.0000000+00:00</time></trkpt><trkpt lat="39.45255566" lon="-0.34539384"><ele>6.6</ele><time>2022-11-04T14:00:07.0000000+00:00</time></trkpt><trkpt lat="39.45255566" lon="-0.34539384"><ele>6.6</ele><time>2022-11-04T14:00:08.0000000+00:00</time></trkpt><trkpt lat="39.45255566" lon="-0.34539384"><ele>6.6</ele><time>2022-11-04T14:00:09.0000000+00:00</time></trkpt><trkpt lat="39.45255566" lon="-0.34539384"><ele>6.8</ele><time>2022-11-04T14:00:10.0000000+00:00</time></trkpt><trkpt lat="39.45255566" lon="-0.34539384"><ele>6.8</ele><time>2022-11-04T14:00:11.0000000+00:00</time></trkpt><trkpt lat="39.45255566" lon="-0.34539384"><ele>7.0</ele><time>2022-11-04T14:00:12.0000000+00:00</time></trkpt><trkpt lat="39.45255566" lon="-0.34539384"><ele>7.0</ele><time>2022-11-04T14:00:13.0000000+00:00</time></trkpt><trkpt lat="39.45255566" lon="-0.34539099"><ele>7.0</ele><time>2022-11-04T14:00:14.0000000+00:00</time></trkpt><trkpt lat="39.45255566" lon="-0.34539082"><ele>7.0</ele><time>2022-11-04T14:00:15.0000000+00:00</time></trkpt><trkpt lat="39.45255566" lon="-0.34539023"><ele>7.0</ele><time>2022-11-04T14:00:16.0000000+00:00</time></trkpt><trkpt lat="39.45255566" lon="-0.34539007"><ele>7.0</ele><time>2022-11-04T14:00:17.0000000+00:00</time></trkpt><trkpt lat="39.45255566" lon="-0.3453899"><ele>7.0</ele><time>2022-11-04T14:00:18.0000000+00:00</time></trkpt><trkpt lat="39.45255566" lon="-0.34538931"><ele>7.0</ele><time>2022-11-04T14:00:19.0000000+00:00</time></trkpt><trkpt lat="39.45255566" lon="-0.34538914"><ele>7.0</ele><time>2022-11-04T14:00:20.0000000+00:00</time></trkpt><trkpt lat="39.45255566" lon="-0.34538889"><ele>7.0</ele><time>2022-11-04T14:00:21.0000000+00:00</time></trkpt><trkpt lat="39.45255566" lon="-0.34538881"><ele>7.0</ele><time>2022-11-04T14:00:22.0000000+00:00</time></trkpt><trkpt lat="39.45255566" lon="-0.34538529"><ele>7.0</ele><time>2022-11-04T14:00:23.0000000+00:00</time></trkpt><trkpt lat="39.45255566" lon="-0.34538135"><ele>7.0</ele><time>2022-11-04T14:00:24.0000000+00:00</time></trkpt><trkpt lat="39.452557" lon="-0.34537749"><ele>7.2</ele><time>2022-11-04T14:00:25.0000000+00:00</time></trkpt><trkpt lat="39.45255892" lon="-0.34537716"><ele>6.8</ele><time>2022-11-04T14:00:26.0000000+00:00</time></trkpt><trkpt lat="39.45255918" lon="-0.34538043"><ele>6.8</ele><time>2022-11-04T14:00:27.0000000+00:00</time></trkpt><trkpt lat="39.45255918" lon="-0.34538093"><ele>6.8</ele><time>2022-11-04T14:00:28.0000000+00:00</time></trkpt><trkpt lat="39.45255918" lon="-0.3453816"><ele>6.8</ele><time>2022-11-04T14:00:29.0000000+00:00</time></trkpt><trkpt lat="39.45255918" lon="-0.34538185"><ele>7.0</ele><time>2022-11-04T14:00:30.0000000+00:00</time></trkpt><trkpt lat="39.45255918" lon="-0.34538219"><ele>7.2</ele><time>2022-11-04T14:00:31.0000000+00:00</time></trkpt><trkpt lat="39.45255934" lon="-0.34538462"><ele>7.2</ele><time>2022-11-04T14:00:32.0000000+00:00</time></trkpt><trkpt lat="39.45256043" lon="-0.34538495"><ele>7.2</ele><time>2022-11-04T14:00:33.0000000+00:00</time></trkpt><trkpt lat="39.4525606" lon="-0.34538495"><ele>7.2</ele><time>2022-11-04T14:00:34.0000000+00:00</time></trkpt><trkpt lat="39.45256135" lon="-0.34538504"><ele>7.2</ele><time>2022-11-04T14:00:35.0000000+00:00</time></trkpt><trkpt lat="39.45256152" lon="-0.34538504"><ele>7.2</ele><time>2022-11-04T14:00:36.0000000+00:00</time></trkpt><trkpt lat="39.45256211" lon="-0.34538504"><ele>7.2</ele><time>2022-11-04T14:00:37.0000000+00:00</time></trkpt><trkpt lat="39.4525637" lon="-0.34538504"><ele>7.2</ele><time>2022-11-04T14:00:38.0000000+00:00</time></trkpt><trkpt lat="39.45256404" lon="-0.34538504"><ele>7.2</ele><time>2022-11-04T14:00:39.0000000+00:00</time></trkpt><trkpt lat="39.4525642" lon="-0.34538504"><ele>7.2</ele><time>2022-11-04T14:00:40.0000000+00:00</time></trkpt><trkpt lat="39.45256462" lon="-0.34538504"><ele>7.2</ele><time>2022-11-04T14:00:41.0000000+00:00</time></trkpt><trkpt lat="39.45256471" lon="-0.34538504"><ele>7.2</ele><time>2022-11-04T14:00:42.0000000+00:00</time></trkpt><trkpt lat="39.45256546" lon="-0.34538504"><ele>7.2</ele><time>2022-11-04T14:00:43.0000000+00:00</time></trkpt><trkpt lat="39.45256655" lon="-0.34538546"><ele>7.2</ele><time>2022-11-04T14:00:44.0000000+00:00</time></trkpt><trkpt lat="39.4525668" lon="-0.34538688"><ele>7.2</ele><time>2022-11-04T14:00:45.0000000+00:00</time></trkpt><trkpt lat="39.45256697" lon="-0.3453878"><ele>7.2</ele><time>2022-11-04T14:00:46.0000000+00:00</time></trkpt><trkpt lat="39.45256731" lon="-0.34538831"><ele>7.2</ele><time>2022-11-04T14:00:47.0000000+00:00</time></trkpt><trkpt lat="39.4525684" lon="-0.34538847"><ele>7.2</ele><time>2022-11-04T14:00:48.0000000+00:00</time></trkpt><trkpt lat="39.45256898" lon="-0.34538881"><ele>7.2</ele><time>2022-11-04T14:00:49.0000000+00:00</time></trkpt><trkpt lat="39.45256915" lon="-0.34538923"><ele>7.2</ele><time>2022-11-04T14:00:50.0000000+00:00</time></trkpt><trkpt lat="39.45256923" lon="-0.34538931"><ele>7.2</ele><time>2022-11-04T14:00:51.0000000+00:00</time></trkpt><trkpt lat="39.45256923" lon="-0.34538931"><ele>7.2</ele><time>2022-11-04T14:00:52.0000000+00:00</time></trkpt><trkpt lat="39.45256999" lon="-0.34538948"><ele>7.2</ele><time>2022-11-04T14:00:53.0000000+00:00</time></trkpt><trkpt lat="39.45257016" lon="-0.34539049"><ele>7.4</ele><time>2022-11-04T14:00:54.0000000+00:00</time></trkpt><trkpt lat="39.45257049" lon="-0.34539107"><ele>7.4</ele><time>2022-11-04T14:00:55.0000000+00:00</time></trkpt><trkpt lat="39.45257208" lon="-0.34539124"><ele>7.4</ele><time>2022-11-04T14:00:56.0000000+00:00</time></trkpt><trkpt lat="39.45257418" lon="-0.34539124"><ele>7.4</ele><time>2022-11-04T14:00:57.0000000+00:00</time></trkpt><trkpt lat="39.45257661" lon="-0.34539132"><ele>6.4</ele><time>2022-11-04T14:00:58.0000000+00:00</time></trkpt><trkpt lat="39.45257745" lon="-0.34539132"><ele>6.4</ele><time>2022-11-04T14:00:59.0000000+00:00</time></trkpt><trkpt lat="39.45257795" lon="-0.34539132"><ele>6.4</ele><time>2022-11-04T14:01:00.0000000+00:00</time></trkpt><trkpt lat="39.4525782" lon="-0.34539132"><ele>6.4</ele><time>2022-11-04T14:01:01.0000000+00:00</time></trkpt><trkpt lat="39.45257862" lon="-0.34539132"><ele>6.6</ele><time>2022-11-04T14:01:02.0000000+00:00</time></trkpt><trkpt lat="39.45257954" lon="-0.34539082"><ele>6.8</ele><time>2022-11-04T14:01:03.0000000+00:00</time></trkpt><trkpt lat="39.45257979" lon="-0.34539065"><ele>7.0</ele><time>2022-11-04T14:01:04.0000000+00:00</time></trkpt><trkpt lat="39.45257988" lon="-0.34539065"><ele>7.0</ele><time>2022-11-04T14:01:05.0000000+00:00</time></trkpt><trkpt lat="39.45257988" lon="-0.34539057"><ele>7.2</ele><time>2022-11-04T14:01:06.0000000+00:00</time></trkpt><trkpt lat="39.45257988" lon="-0.34539057"><ele>7.2</ele><time>2022-11-04T14:01:07.0000000+00:00</time></trkpt><trkpt lat="39.45257988" lon="-0.34539057"><ele>7.2</ele><time>2022-11-04T14:01:08.0000000+00:00</time></trkpt><trkpt lat="39.45257988" lon="-0.34539057"><ele>7.4</ele><time>2022-11-04T14:01:09.0000000+00:00</time></trkpt><trkpt lat="39.45257988" lon="-0.34539032"><ele>7.4</ele><time>2022-11-04T14:01:10.0000000+00:00</time></trkpt><trkpt lat="39.45257988" lon="-0.34539023"><ele>7.4</ele><time>2022-11-04T14:01:11.0000000+00:00</time></trkpt><trkpt lat="39.45257988" lon="-0.34538973"><ele>7.0</ele><time>2022-11-04T14:01:12.0000000+00:00</time></trkpt><trkpt lat="39.45257988" lon="-0.34538864"><ele>7.0</ele><time>2022-11-04T14:01:13.0000000+00:00</time></trkpt><trkpt lat="39.45257912" lon="-0.34538671"><ele>7.0</ele><time>2022-11-04T14:01:14.0000000+00:00</time></trkpt><trkpt lat="39.45257879" lon="-0.34538546"><ele>7.0</ele><time>2022-11-04T14:01:15.0000000+00:00</time></trkpt><trkpt lat="39.45257845" lon="-0.3453847"><ele>7.0</ele><time>2022-11-04T14:01:16.0000000+00:00</time></trkpt><trkpt lat="39.45257837" lon="-0.34538311"><ele>7.0</ele><time>2022-11-04T14:01:17.0000000+00:00</time></trkpt><trkpt lat="39.45257837" lon="-0.34538135"><ele>7.0</ele><time>2022-11-04T14:01:18.0000000+00:00</time></trkpt><trkpt lat="39.45257686" lon="-0.34538068"><ele>7.0</ele><time>2022-11-04T14:01:19.0000000+00:00</time></trkpt><trkpt lat="39.45257368" lon="-0.34538026"><ele>7.0</ele><time>2022-11-04T14:01:20.0000000+00:00</time></trkpt><trkpt lat="39.45257234" lon="-0.34538009"><ele>7.0</ele><time>2022-11-04T14:01:21.0000000+00:00</time></trkpt><trkpt lat="39.45257133" lon="-0.34537959"><ele>7.0</ele><time>2022-11-04T14:01:22.0000000+00:00</time></trkpt><trkpt lat="39.45257049" lon="-0.34537942"><ele>7.0</ele><time>2022-11-04T14:01:23.0000000+00:00</time></trkpt><trkpt lat="39.45256949" lon="-0.34537917"><ele>7.0</ele><time>2022-11-04T14:01:24.0000000+00:00</time></trkpt><trkpt lat="39.45256907" lon="-0.34537867"><ele>7.0</ele><time>2022-11-04T14:01:25.0000000+00:00</time></trkpt><trkpt lat="39.45256814" lon="-0.34537842"><ele>7.0</ele><time>2022-11-04T14:01:26.0000000+00:00</time></trkpt><trkpt lat="39.45256722" lon="-0.345378"><ele>7.0</ele><time>2022-11-04T14:01:27.0000000+00:00</time></trkpt><trkpt lat="39.45256613" lon="-0.34537775"><ele>7.0</ele><time>2022-11-04T14:01:28.0000000+00:00</time></trkpt><trkpt lat="39.45256529" lon="-0.34537716"><ele>7.0</ele><time>2022-11-04T14:01:29.0000000+00:00</time></trkpt><trkpt lat="39.45256462" lon="-0.34537691"><ele>7.0</ele><time>2022-11-04T14:01:30.0000000+00:00</time></trkpt><trkpt lat="39.45256337" lon="-0.34537615"><ele>7.0</ele><time>2022-11-04T14:01:31.0000000+00:00</time></trkpt><trkpt lat="39.45256219" lon="-0.34537573"><ele>7.0</ele><time>2022-11-04T14:01:32.0000000+00:00</time></trkpt><trkpt lat="39.45256144" lon="-0.34537531"><ele>7.0</ele><time>2022-11-04T14:01:33.0000000+00:00</time></trkpt><trkpt lat="39.45256077" lon="-0.34537473"><ele>7.0</ele><time>2022-11-04T14:01:34.0000000+00:00</time></trkpt><trkpt lat="39.45255842" lon="-0.34537355"><ele>7.0</ele><time>2022-11-04T14:01:35.0000000+00:00</time></trkpt><trkpt lat="39.45255532" lon="-0.34537272"><ele>7.0</ele><time>2022-11-04T14:01:36.0000000+00:00</time></trkpt><trkpt lat="39.45255398" lon="-0.34537196"><ele>7.0</ele><time>2022-11-04T14:01:37.0000000+00:00</time></trkpt><trkpt lat="39.45255339" lon="-0.34537138"><ele>7.0</ele><time>2022-11-04T14:01:38.0000000+00:00</time></trkpt><trkpt lat="39.45255306" lon="-0.34536962"><ele>7.0</ele><time>2022-11-04T14:01:39.0000000+00:00</time></trkpt><trkpt lat="39.45255297" lon="-0.34536601"><ele>7.0</ele><time>2022-11-04T14:01:40.0000000+00:00</time></trkpt><trkpt lat="39.45255247" lon="-0.34536366"><ele>7.0</ele><time>2022-11-04T14:01:41.0000000+00:00</time></trkpt><trkpt lat="39.45255222" lon="-0.34536249"><ele>7.0</ele><time>2022-11-04T14:01:42.0000000+00:00</time></trkpt><trkpt lat="39.45255205" lon="-0.34536199"><ele>7.0</ele><time>2022-11-04T14:01:43.0000000+00:00</time></trkpt><trkpt lat="39.45255172" lon="-0.34536174"><ele>7.0</ele><time>2022-11-04T14:01:44.0000000+00:00</time></trkpt><trkpt lat="39.45255155" lon="-0.34536157"><ele>7.0</ele><time>2022-11-04T14:01:45.0000000+00:00</time></trkpt><trkpt lat="39.45255138" lon="-0.34536157"><ele>7.0</ele><time>2022-11-04T14:01:46.0000000+00:00</time></trkpt><trkpt lat="39.4525513" lon="-0.34536148"><ele>7.0</ele><time>2022-11-04T14:01:47.0000000+00:00</time></trkpt><trkpt lat="39.45255121" lon="-0.34536148"><ele>7.0</ele><time>2022-11-04T14:01:48.0000000+00:00</time></trkpt><trkpt lat="39.45255113" lon="-0.34536148"><ele>7.0</ele><time>2022-11-04T14:01:49.0000000+00:00</time></trkpt><trkpt lat="39.45255105" lon="-0.34536148"><ele>7.0</ele><time>2022-11-04T14:01:50.0000000+00:00</time></trkpt><trkpt lat="39.45255063" lon="-0.34536148"><ele>7.0</ele><time>2022-11-04T14:01:51.0000000+00:00</time></trkpt><trkpt lat="39.45255037" lon="-0.34536148"><ele>7.0</ele><time>2022-11-04T14:01:52.0000000+00:00</time></trkpt><trkpt lat="39.45255021" lon="-0.34536148"><ele>7.0</ele><time>2022-11-04T14:01:53.0000000+00:00</time></trkpt><trkpt lat="39.45255012" lon="-0.34536148"><ele>7.0</ele><time>2022-11-04T14:01:54.0000000+00:00</time></trkpt><trkpt lat="39.45255012" lon="-0.34536148"><ele>7.0</ele><time>2022-11-04T14:01:55.0000000+00:00</time></trkpt><trkpt lat="39.45254895" lon="-0.34536216"><ele>7.0</ele><time>2022-11-04T14:01:56.0000000+00:00</time></trkpt><trkpt lat="39.45254836" lon="-0.34536542"><ele>7.0</ele><time>2022-11-04T14:01:57.0000000+00:00</time></trkpt><trkpt lat="39.45254803" lon="-0.34536811"><ele>7.0</ele><time>2022-11-04T14:01:58.0000000+00:00</time></trkpt><trkpt lat="39.45254786" lon="-0.34537079"><ele>7.0</ele><time>2022-11-04T14:01:59.0000000+00:00</time></trkpt><trkpt lat="39.45254778" lon="-0.34537247"><ele>7.0</ele><time>2022-11-04T14:02:00.0000000+00:00</time></trkpt><trkpt lat="39.45254769" lon="-0.34537364"><ele>7.0</ele><time>2022-11-04T14:02:01.0000000+00:00</time></trkpt><trkpt lat="39.45254761" lon="-0.34537481"><ele>7.0</ele><time>2022-11-04T14:02:02.0000000+00:00</time></trkpt><trkpt lat="39.45254761" lon="-0.34537557"><ele>7.0</ele><time>2022-11-04T14:02:03.0000000+00:00</time></trkpt><trkpt lat="39.45254761" lon="-0.34537632"><ele>7.0</ele><time>2022-11-04T14:02:04.0000000+00:00</time></trkpt><trkpt lat="39.45254761" lon="-0.34537682"><ele>7.0</ele><time>2022-11-04T14:02:05.0000000+00:00</time></trkpt><trkpt lat="39.45254761" lon="-0.34537724"><ele>7.0</ele><time>2022-11-04T14:02:06.0000000+00:00</time></trkpt><trkpt lat="39.45254761" lon="-0.34537816"><ele>7.0</ele><time>2022-11-04T14:02:07.0000000+00:00</time></trkpt><trkpt lat="39.45254761" lon="-0.34537875"><ele>7.0</ele><time>2022-11-04T14:02:08.0000000+00:00</time></trkpt><trkpt lat="39.45254761" lon="-0.34537925"><ele>7.0</ele><time>2022-11-04T14:02:09.0000000+00:00</time></trkpt><trkpt lat="39.45254761" lon="-0.34537984"><ele>7.0</ele><time>2022-11-04T14:02:10.0000000+00:00</time></trkpt><trkpt lat="39.45254761" lon="-0.34538026"><ele>7.0</ele><time>2022-11-04T14:02:11.0000000+00:00</time></trkpt><trkpt lat="39.45254778" lon="-0.34538127"><ele>7.0</ele><time>2022-11-04T14:02:12.0000000+00:00</time></trkpt><trkpt lat="39.45254811" lon="-0.34538194"><ele>7.0</ele><time>2022-11-04T14:02:13.0000000+00:00</time></trkpt><trkpt lat="39.45254836" lon="-0.34538252"><ele>7.0</ele><time>2022-11-04T14:02:14.0000000+00:00</time></trkpt><trkpt lat="39.45254853" lon="-0.34538294"><ele>7.0</ele><time>2022-11-04T14:02:15.0000000+00:00</time></trkpt><trkpt lat="39.45254861" lon="-0.34538319"><ele>7.0</ele><time>2022-11-04T14:02:16.0000000+00:00</time></trkpt><trkpt lat="39.45254878" lon="-0.34538336"><ele>7.0</ele><time>2022-11-04T14:02:17.0000000+00:00</time></trkpt><trkpt lat="39.45254887" lon="-0.34538345"><ele>7.0</ele><time>2022-11-04T14:02:18.0000000+00:00</time></trkpt><trkpt lat="39.45254895" lon="-0.34538353"><ele>7.0</ele><time>2022-11-04T14:02:19.0000000+00:00</time></trkpt><trkpt lat="39.45254903" lon="-0.34538353"><ele>7.0</ele><time>2022-11-04T14:02:20.0000000+00:00</time></trkpt><trkpt lat="39.45254903" lon="-0.34538361"><ele>7.0</ele><time>2022-11-04T14:02:21.0000000+00:00</time></trkpt><trkpt lat="39.45254903" lon="-0.34538361"><ele>7.0</ele><time>2022-11-04T14:02:22.0000000+00:00</time></trkpt><trkpt lat="39.45254903" lon="-0.34538361"><ele>7.0</ele><time>2022-11-04T14:02:23.0000000+00:00</time></trkpt><trkpt lat="39.45254912" lon="-0.34538361"><ele>7.0</ele><time>2022-11-04T14:02:24.0000000+00:00</time></trkpt><trkpt lat="39.45254912" lon="-0.34538361"><ele>7.0</ele><time>2022-11-04T14:02:25.0000000+00:00</time></trkpt><trkpt lat="39.45254912" lon="-0.34538361"><ele>7.0</ele><time>2022-11-04T14:02:26.0000000+00:00</time></trkpt><trkpt lat="39.45254912" lon="-0.34538361"><ele>7.0</ele><time>2022-11-04T14:02:27.0000000+00:00</time></trkpt><trkpt lat="39.45254912" lon="-0.34538361"><ele>7.0</ele><time>2022-11-04T14:02:28.0000000+00:00</time></trkpt><trkpt lat="39.45254903" lon="-0.34538361"><ele>7.0</ele><time>2022-11-04T14:02:29.0000000+00:00</time></trkpt><trkpt lat="39.45254903" lon="-0.34538361"><ele>7.0</ele><time>2022-11-04T14:02:30.0000000+00:00</time></trkpt><trkpt lat="39.45254895" lon="-0.34538345"><ele>7.0</ele><time>2022-11-04T14:02:31.0000000+00:00</time></trkpt><trkpt lat="39.45254887" lon="-0.34538319"><ele>7.0</ele><time>2022-11-04T14:02:32.0000000+00:00</time></trkpt><trkpt lat="39.45254878" lon="-0.34538236"><ele>7.0</ele><time>2022-11-04T14:02:33.0000000+00:00</time></trkpt><trkpt lat="39.45254811" lon="-0.34538177"><ele>7.0</ele><time>2022-11-04T14:02:34.0000000+00:00</time></trkpt><trkpt lat="39.45254694" lon="-0.34538118"><ele>7.0</ele><time>2022-11-04T14:02:35.0000000+00:00</time></trkpt><trkpt lat="39.45254509" lon="-0.34538076"><ele>7.0</ele><time>2022-11-04T14:02:36.0000000+00:00</time></trkpt><trkpt lat="39.45254291" lon="-0.34538051"><ele>7.0</ele><time>2022-11-04T14:02:37.0000000+00:00</time></trkpt><trkpt lat="39.45254124" lon="-0.34538026"><ele>7.0</ele><time>2022-11-04T14:02:38.0000000+00:00</time></trkpt><trkpt lat="39.45254006" lon="-0.34538009"><ele>7.0</ele><time>2022-11-04T14:02:39.0000000+00:00</time></trkpt><trkpt lat="39.45253914" lon="-0.34538001"><ele>7.0</ele><time>2022-11-04T14:02:40.0000000+00:00</time></trkpt><trkpt lat="39.45253847" lon="-0.34537992"><ele>7.0</ele><time>2022-11-04T14:02:41.0000000+00:00</time></trkpt><trkpt lat="39.45253789" lon="-0.34537984"><ele>7.0</ele><time>2022-11-04T14:02:42.0000000+00:00</time></trkpt><trkpt lat="39.45253738" lon="-0.34537984"><ele>7.0</ele><time>2022-11-04T14:02:43.0000000+00:00</time></trkpt><trkpt lat="39.45253696" lon="-0.34537976"><ele>7.0</ele><time>2022-11-04T14:02:44.0000000+00:00</time></trkpt><trkpt lat="39.45253671" lon="-0.34537967"><ele>7.0</ele><time>2022-11-04T14:02:45.0000000+00:00</time></trkpt><trkpt lat="39.45253646" lon="-0.34537967"><ele>7.0</ele><time>2022-11-04T14:02:46.0000000+00:00</time></trkpt><trkpt lat="39.45253629" lon="-0.34537967"><ele>7.0</ele><time>2022-11-04T14:02:47.0000000+00:00</time></trkpt><trkpt lat="39.45253613" lon="-0.34537967"><ele>7.0</ele><time>2022-11-04T14:02:48.0000000+00:00</time></trkpt><trkpt lat="39.45253596" lon="-0.34537959"><ele>7.0</ele><time>2022-11-04T14:02:49.0000000+00:00</time></trkpt><trkpt lat="39.45253587" lon="-0.34537959"><ele>7.0</ele><time>2022-11-04T14:02:50.0000000+00:00</time></trkpt><trkpt lat="39.45253587" lon="-0.34537967"><ele>7.0</ele><time>2022-11-04T14:02:51.0000000+00:00</time></trkpt><trkpt lat="39.45253579" lon="-0.34537967"><ele>7.0</ele><time>2022-11-04T14:02:52.0000000+00:00</time></trkpt><trkpt lat="39.45253579" lon="-0.34537976"><ele>7.0</ele><time>2022-11-04T14:02:53.0000000+00:00</time></trkpt><trkpt lat="39.45253587" lon="-0.34537984"><ele>7.0</ele><time>2022-11-04T14:02:54.0000000+00:00</time></trkpt><trkpt lat="39.45253604" lon="-0.34538001"><ele>7.0</ele><time>2022-11-04T14:02:55.0000000+00:00</time></trkpt><trkpt lat="39.45253629" lon="-0.34538026"><ele>7.0</ele><time>2022-11-04T14:02:56.0000000+00:00</time></trkpt><trkpt lat="39.45253663" lon="-0.3453806"><ele>7.0</ele><time>2022-11-04T14:02:57.0000000+00:00</time></trkpt><trkpt lat="39.45253705" lon="-0.34538118"><ele>7.0</ele><time>2022-11-04T14:02:58.0000000+00:00</time></trkpt><trkpt lat="39.45253747" lon="-0.3453816"><ele>7.0</ele><time>2022-11-04T14:02:59.0000000+00:00</time></trkpt><trkpt lat="39.4525378" lon="-0.34538236"><ele>7.0</ele><time>2022-11-04T14:03:00.0000000+00:00</time></trkpt><trkpt lat="39.45253814" lon="-0.34538303"><ele>7.0</ele><time>2022-11-04T14:03:01.0000000+00:00</time></trkpt><trkpt lat="39.45253839" lon="-0.34538378"><ele>7.0</ele><time>2022-11-04T14:03:02.0000000+00:00</time></trkpt><trkpt lat="39.45253864" lon="-0.34538445"><ele>7.0</ele><time>2022-11-04T14:03:03.0000000+00:00</time></trkpt><trkpt lat="39.45253881" lon="-0.34538495"><ele>7.0</ele><time>2022-11-04T14:03:04.0000000+00:00</time></trkpt><trkpt lat="39.45253898" lon="-0.34538546"><ele>7.0</ele><time>2022-11-04T14:03:05.0000000+00:00</time></trkpt><trkpt lat="39.45253906" lon="-0.34538588"><ele>7.0</ele><time>2022-11-04T14:03:06.0000000+00:00</time></trkpt><trkpt lat="39.45253914" lon="-0.34538613"><ele>7.0</ele><time>2022-11-04T14:03:07.0000000+00:00</time></trkpt><trkpt lat="39.45253931" lon="-0.34538621"><ele>7.0</ele><time>2022-11-04T14:03:08.0000000+00:00</time></trkpt><trkpt lat="39.45253931" lon="-0.3453863"><ele>7.0</ele><time>2022-11-04T14:03:09.0000000+00:00</time></trkpt><trkpt lat="39.45253939" lon="-0.34538613"><ele>7.0</ele><time>2022-11-04T14:03:10.0000000+00:00</time></trkpt><trkpt lat="39.45253956" lon="-0.34538604"><ele>7.0</ele><time>2022-11-04T14:03:11.0000000+00:00</time></trkpt><trkpt lat="39.45253973" lon="-0.34538596"><ele>7.0</ele><time>2022-11-04T14:03:12.0000000+00:00</time></trkpt><trkpt lat="39.45253981" lon="-0.34538588"><ele>7.0</ele><time>2022-11-04T14:03:13.0000000+00:00</time></trkpt><trkpt lat="39.45253998" lon="-0.34538579"><ele>7.0</ele><time>2022-11-04T14:03:14.0000000+00:00</time></trkpt><trkpt lat="39.45254006" lon="-0.34538571"><ele>7.0</ele><time>2022-11-04T14:03:15.0000000+00:00</time></trkpt><trkpt lat="39.45254015" lon="-0.34538562"><ele>7.0</ele><time>2022-11-04T14:03:16.0000000+00:00</time></trkpt><trkpt lat="39.45254015" lon="-0.34538571"><ele>7.0</ele><time>2022-11-04T14:03:17.0000000+00:00</time></trkpt><trkpt lat="39.45254015" lon="-0.34538579"><ele>7.0</ele><time>2022-11-04T14:03:18.0000000+00:00</time></trkpt><trkpt lat="39.45254006" lon="-0.34538588"><ele>7.0</ele><time>2022-11-04T14:03:19.0000000+00:00</time></trkpt><trkpt lat="39.45254006" lon="-0.34538596"><ele>7.0</ele><time>2022-11-04T14:03:20.0000000+00:00</time></trkpt><trkpt lat="39.45253998" lon="-0.34538596"><ele>7.0</ele><time>2022-11-04T14:03:21.0000000+00:00</time></trkpt><trkpt lat="39.45253998" lon="-0.34538604"><ele>7.0</ele><time>2022-11-04T14:03:22.0000000+00:00</time></trkpt><trkpt lat="39.4525399" lon="-0.34538604"><ele>7.0</ele><time>2022-11-04T14:03:23.0000000+00:00</time></trkpt><trkpt lat="39.4525399" lon="-0.34538613"><ele>7.0</ele><time>2022-11-04T14:03:24.0000000+00:00</time></trkpt><trkpt lat="39.45253981" lon="-0.34538613"><ele>7.0</ele><time>2022-11-04T14:03:25.0000000+00:00</time></trkpt><trkpt lat="39.4525399" lon="-0.34538604"><ele>7.0</ele><time>2022-11-04T14:03:26.0000000+00:00</time></trkpt><trkpt lat="39.4525399" lon="-0.34538596"><ele>7.0</ele><time>2022-11-04T14:03:27.0000000+00:00</time></trkpt><trkpt lat="39.4525399" lon="-0.34538596"><ele>7.0</ele><time>2022-11-04T14:03:28.0000000+00:00</time></trkpt><trkpt lat="39.45253998" lon="-0.34538604"><ele>7.0</ele><time>2022-11-04T14:03:29.0000000+00:00</time></trkpt><trkpt lat="39.4525399" lon="-0.34538604"><ele>7.0</ele><time>2022-11-04T14:03:30.0000000+00:00</time></trkpt><trkpt lat="39.45253981" lon="-0.34538604"><ele>7.0</ele><time>2022-11-04T14:03:31.0000000+00:00</time></trkpt><trkpt lat="39.45253973" lon="-0.34538596"><ele>7.0</ele><time>2022-11-04T14:03:32.0000000+00:00</time></trkpt><trkpt lat="39.45253956" lon="-0.34538588"><ele>7.0</ele><time>2022-11-04T14:03:33.0000000+00:00</time></trkpt><trkpt lat="39.45253948" lon="-0.34538562"><ele>7.0</ele><time>2022-11-04T14:03:34.0000000+00:00</time></trkpt><trkpt lat="39.45253948" lon="-0.34538529"><ele>7.0</ele><time>2022-11-04T14:03:35.0000000+00:00</time></trkpt><trkpt lat="39.45253948" lon="-0.34538504"><ele>7.0</ele><time>2022-11-04T14:03:36.0000000+00:00</time></trkpt><trkpt lat="39.45253948" lon="-0.34538487"><ele>7.0</ele><time>2022-11-04T14:03:37.0000000+00:00</time></trkpt><trkpt lat="39.45253956" lon="-0.34538453"><ele>7.0</ele><time>2022-11-04T14:03:38.0000000+00:00</time></trkpt><trkpt lat="39.45253956" lon="-0.3453842"><ele>7.0</ele><time>2022-11-04T14:03:39.0000000+00:00</time></trkpt><trkpt lat="39.45253965" lon="-0.34538386"><ele>7.0</ele><time>2022-11-04T14:03:40.0000000+00:00</time></trkpt><trkpt lat="39.45253965" lon="-0.34538361"><ele>7.0</ele><time>2022-11-04T14:03:41.0000000+00:00</time></trkpt><trkpt lat="39.45253965" lon="-0.34538336"><ele>7.0</ele><time>2022-11-04T14:03:42.0000000+00:00</time></trkpt><trkpt lat="39.45253973" lon="-0.34538319"><ele>7.0</ele><time>2022-11-04T14:03:43.0000000+00:00</time></trkpt><trkpt lat="39.45253973" lon="-0.34538294"><ele>7.0</ele><time>2022-11-04T14:03:44.0000000+00:00</time></trkpt><trkpt lat="39.45253973" lon="-0.34538269"><ele>7.0</ele><time>2022-11-04T14:03:45.0000000+00:00</time></trkpt><trkpt lat="39.45253973" lon="-0.34538244"><ele>7.0</ele><time>2022-11-04T14:03:46.0000000+00:00</time></trkpt><trkpt lat="39.45253973" lon="-0.34538219"><ele>7.0</ele><time>2022-11-04T14:03:47.0000000+00:00</time></trkpt><trkpt lat="39.45253973" lon="-0.34538219"><ele>7.0</ele><time>2022-11-04T14:03:48.0000000+00:00</time></trkpt><trkpt lat="39.45253965" lon="-0.34538219"><ele>7.0</ele><time>2022-11-04T14:03:49.0000000+00:00</time></trkpt><trkpt lat="39.45253965" lon="-0.3453821"><ele>7.0</ele><time>2022-11-04T14:03:50.0000000+00:00</time></trkpt><trkpt lat="39.45253956" lon="-0.34538236"><ele>7.0</ele><time>2022-11-04T14:03:51.0000000+00:00</time></trkpt><trkpt lat="39.45253965" lon="-0.34538261"><ele>7.0</ele><time>2022-11-04T14:03:52.0000000+00:00</time></trkpt><trkpt lat="39.45253965" lon="-0.34538303"><ele>7.0</ele><time>2022-11-04T14:03:53.0000000+00:00</time></trkpt><trkpt lat="39.45253965" lon="-0.34538328"><ele>7.0</ele><time>2022-11-04T14:03:54.0000000+00:00</time></trkpt><trkpt lat="39.45253956" lon="-0.34538353"><ele>7.0</ele><time>2022-11-04T14:03:55.0000000+00:00</time></trkpt><trkpt lat="39.45253956" lon="-0.34538378"><ele>7.0</ele><time>2022-11-04T14:03:56.0000000+00:00</time></trkpt><trkpt lat="39.45253973" lon="-0.34538403"><ele>7.0</ele><time>2022-11-04T14:03:57.0000000+00:00</time></trkpt><trkpt lat="39.45253981" lon="-0.34538428"><ele>7.0</ele><time>2022-11-04T14:03:58.0000000+00:00</time></trkpt><trkpt lat="39.45253998" lon="-0.3453847"><ele>7.0</ele><time>2022-11-04T14:03:59.0000000+00:00</time></trkpt><trkpt lat="39.45254006" lon="-0.34538512"><ele>7.0</ele><time>2022-11-04T14:04:00.0000000+00:00</time></trkpt><trkpt lat="39.45254006" lon="-0.34538554"><ele>7.0</ele><time>2022-11-04T14:04:01.0000000+00:00</time></trkpt><trkpt lat="39.45254006" lon="-0.34538604"><ele>7.0</ele><time>2022-11-04T14:04:02.0000000+00:00</time></trkpt><trkpt lat="39.45254006" lon="-0.34538663"><ele>7.0</ele><time>2022-11-04T14:04:03.0000000+00:00</time></trkpt><trkpt lat="39.45254015" lon="-0.34538705"><ele>7.0</ele><time>2022-11-04T14:04:04.0000000+00:00</time></trkpt><trkpt lat="39.45254006" lon="-0.34538738"><ele>7.0</ele><time>2022-11-04T14:04:05.0000000+00:00</time></trkpt><trkpt lat="39.45254006" lon="-0.34538755"><ele>7.0</ele><time>2022-11-04T14:04:06.0000000+00:00</time></trkpt><trkpt lat="39.45254006" lon="-0.34538764"><ele>7.0</ele><time>2022-11-04T14:04:07.0000000+00:00</time></trkpt><trkpt lat="39.45254006" lon="-0.34538764"><ele>7.0</ele><time>2022-11-04T14:04:08.0000000+00:00</time></trkpt><trkpt lat="39.45254006" lon="-0.3453878"><ele>7.0</ele><time>2022-11-04T14:04:09.0000000+00:00</time></trkpt><trkpt lat="39.4525399" lon="-0.34538797"><ele>7.0</ele><time>2022-11-04T14:04:10.0000000+00:00</time></trkpt><trkpt lat="39.4525399" lon="-0.34538789"><ele>7.0</ele><time>2022-11-04T14:04:11.0000000+00:00</time></trkpt><trkpt lat="39.4525399" lon="-0.34538797"><ele>7.0</ele><time>2022-11-04T14:04:12.0000000+00:00</time></trkpt><trkpt lat="39.45253981" lon="-0.34538797"><ele>7.0</ele><time>2022-11-04T14:04:13.0000000+00:00</time></trkpt><trkpt lat="39.45253981" lon="-0.34538797"><ele>7.0</ele><time>2022-11-04T14:04:14.0000000+00:00</time></trkpt><trkpt lat="39.45253981" lon="-0.34538797"><ele>7.0</ele><time>2022-11-04T14:04:15.0000000+00:00</time></trkpt><trkpt lat="39.45253981" lon="-0.34538806"><ele>7.0</ele><time>2022-11-04T14:04:16.0000000+00:00</time></trkpt><trkpt lat="39.45253973" lon="-0.34538814"><ele>7.0</ele><time>2022-11-04T14:04:17.0000000+00:00</time></trkpt><trkpt lat="39.45253973" lon="-0.34538806"><ele>7.0</ele><time>2022-11-04T14:04:18.0000000+00:00</time></trkpt><trkpt lat="39.45253973" lon="-0.34538814"><ele>7.0</ele><time>2022-11-04T14:04:19.0000000+00:00</time></trkpt><trkpt lat="39.45253956" lon="-0.34538822"><ele>7.0</ele><time>2022-11-04T14:04:20.0000000+00:00</time></trkpt><trkpt lat="39.45253948" lon="-0.34538839"><ele>7.0</ele><time>2022-11-04T14:04:21.0000000+00:00</time></trkpt><trkpt lat="39.45253923" lon="-0.34538847"><ele>7.0</ele><time>2022-11-04T14:04:22.0000000+00:00</time></trkpt><trkpt lat="39.45253931" lon="-0.34538847"><ele>7.0</ele><time>2022-11-04T14:04:23.0000000+00:00</time></trkpt><trkpt lat="39.45253898" lon="-0.34538856"><ele>7.0</ele><time>2022-11-04T14:04:24.0000000+00:00</time></trkpt><trkpt lat="39.45253898" lon="-0.34538847"><ele>7.0</ele><time>2022-11-04T14:04:25.0000000+00:00</time></trkpt><trkpt lat="39.45253872" lon="-0.34538839"><ele>7.0</ele><time>2022-11-04T14:04:26.0000000+00:00</time></trkpt><trkpt lat="39.45253856" lon="-0.34538847"><ele>7.0</ele><time>2022-11-04T14:04:27.0000000+00:00</time></trkpt><trkpt lat="39.45253839" lon="-0.34538856"><ele>7.0</ele><time>2022-11-04T14:04:28.0000000+00:00</time></trkpt><trkpt lat="39.45253822" lon="-0.34538856"><ele>7.0</ele><time>2022-11-04T14:04:29.0000000+00:00</time></trkpt><trkpt lat="39.45253822" lon="-0.34538856"><ele>7.0</ele><time>2022-11-04T14:04:30.0000000+00:00</time></trkpt><trkpt lat="39.45253805" lon="-0.34538864"><ele>7.0</ele><time>2022-11-04T14:04:31.0000000+00:00</time></trkpt><trkpt lat="39.4525378" lon="-0.34538881"><ele>7.0</ele><time>2022-11-04T14:04:32.0000000+00:00</time></trkpt><trkpt lat="39.45253772" lon="-0.34538889"><ele>7.0</ele><time>2022-11-04T14:04:33.0000000+00:00</time></trkpt><trkpt lat="39.45253755" lon="-0.34538906"><ele>7.0</ele><time>2022-11-04T14:04:34.0000000+00:00</time></trkpt><trkpt lat="39.45253747" lon="-0.34538914"><ele>7.0</ele><time>2022-11-04T14:04:35.0000000+00:00</time></trkpt><trkpt lat="39.45253738" lon="-0.34538931"><ele>7.0</ele><time>2022-11-04T14:04:36.0000000+00:00</time></trkpt><trkpt lat="39.4525373" lon="-0.34538948"><ele>7.0</ele><time>2022-11-04T14:04:37.0000000+00:00</time></trkpt><trkpt lat="39.45253721" lon="-0.34538965"><ele>7.0</ele><time>2022-11-04T14:04:38.0000000+00:00</time></trkpt><trkpt lat="39.4525373" lon="-0.34538982"><ele>7.0</ele><time>2022-11-04T14:04:39.0000000+00:00</time></trkpt><trkpt lat="39.45253713" lon="-0.34538998"><ele>7.0</ele><time>2022-11-04T14:04:40.0000000+00:00</time></trkpt><trkpt lat="39.45253688" lon="-0.34539007"><ele>7.0</ele><time>2022-11-04T14:04:41.0000000+00:00</time></trkpt><trkpt lat="39.45253671" lon="-0.34539007"><ele>7.0</ele><time>2022-11-04T14:04:42.0000000+00:00</time></trkpt><trkpt lat="39.45253646" lon="-0.34539015"><ele>7.0</ele><time>2022-11-04T14:04:43.0000000+00:00</time></trkpt><trkpt lat="39.45253638" lon="-0.34539015"><ele>7.0</ele><time>2022-11-04T14:04:44.0000000+00:00</time></trkpt><trkpt lat="39.45253638" lon="-0.34539007"><ele>7.0</ele><time>2022-11-04T14:04:45.0000000+00:00</time></trkpt><trkpt lat="39.45253638" lon="-0.3453899"><ele>7.0</ele><time>2022-11-04T14:04:46.0000000+00:00</time></trkpt><trkpt lat="39.45253629" lon="-0.34538982"><ele>7.0</ele><time>2022-11-04T14:04:47.0000000+00:00</time></trkpt><trkpt lat="39.45253613" lon="-0.34538982"><ele>7.0</ele><time>2022-11-04T14:04:48.0000000+00:00</time></trkpt><trkpt lat="39.45253604" lon="-0.34538965"><ele>7.0</ele><time>2022-11-04T14:04:49.0000000+00:00</time></trkpt><trkpt lat="39.45253587" lon="-0.34538956"><ele>7.0</ele><time>2022-11-04T14:04:50.0000000+00:00</time></trkpt><trkpt lat="39.45253579" lon="-0.34538923"><ele>7.0</ele><time>2022-11-04T14:04:51.0000000+00:00</time></trkpt><trkpt lat="39.45253587" lon="-0.34538906"><ele>7.0</ele><time>2022-11-04T14:04:52.0000000+00:00</time></trkpt><trkpt lat="39.45253596" lon="-0.34538881"><ele>7.0</ele><time>2022-11-04T14:04:53.0000000+00:00</time></trkpt><trkpt lat="39.45253587" lon="-0.34538873"><ele>7.0</ele><time>2022-11-04T14:04:54.0000000+00:00</time></trkpt><trkpt lat="39.45253579" lon="-0.34538856"><ele>7.0</ele><time>2022-11-04T14:04:55.0000000+00:00</time></trkpt><trkpt lat="39.45253579" lon="-0.34538839"><ele>7.0</ele><time>2022-11-04T14:04:56.0000000+00:00</time></trkpt><trkpt lat="39.45253571" lon="-0.34538822"><ele>7.0</ele><time>2022-11-04T14:04:57.0000000+00:00</time></trkpt><trkpt lat="39.45253554" lon="-0.34538806"><ele>7.0</ele><time>2022-11-04T14:04:58.0000000+00:00</time></trkpt><trkpt lat="39.45253537" lon="-0.3453878"><ele>7.0</ele><time>2022-11-04T14:04:59.0000000+00:00</time></trkpt><trkpt lat="39.4525352" lon="-0.34538764"><ele>7.0</ele><time>2022-11-04T14:05:00.0000000+00:00</time></trkpt><trkpt lat="39.45253512" lon="-0.3453873"><ele>7.0</ele><time>2022-11-04T14:05:01.0000000+00:00</time></trkpt><trkpt lat="39.45253487" lon="-0.34538705"><ele>7.0</ele><time>2022-11-04T14:05:02.0000000+00:00</time></trkpt><trkpt lat="39.45253478" lon="-0.34538697"><ele>7.0</ele><time>2022-11-04T14:05:03.0000000+00:00</time></trkpt><trkpt lat="39.45253487" lon="-0.34538688"><ele>7.0</ele><time>2022-11-04T14:05:04.0000000+00:00</time></trkpt><trkpt lat="39.45253478" lon="-0.34538688"><ele>7.0</ele><time>2022-11-04T14:05:05.0000000+00:00</time></trkpt><trkpt lat="39.45253478" lon="-0.3453868"><ele>7.0</ele><time>2022-11-04T14:05:06.0000000+00:00</time></trkpt><trkpt lat="39.45253478" lon="-0.34538663"><ele>7.0</ele><time>2022-11-04T14:05:07.0000000+00:00</time></trkpt><trkpt lat="39.4525347" lon="-0.34538646"><ele>7.0</ele><time>2022-11-04T14:05:08.0000000+00:00</time></trkpt><trkpt lat="39.4525347" lon="-0.3453863"><ele>7.0</ele><time>2022-11-04T14:05:09.0000000+00:00</time></trkpt><trkpt lat="39.4525347" lon="-0.34538604"><ele>7.0</ele><time>2022-11-04T14:05:10.0000000+00:00</time></trkpt><trkpt lat="39.4525347" lon="-0.34538579"><ele>7.0</ele><time>2022-11-04T14:05:11.0000000+00:00</time></trkpt><trkpt lat="39.4525347" lon="-0.34538562"><ele>7.0</ele><time>2022-11-04T14:05:12.0000000+00:00</time></trkpt><trkpt lat="39.45253462" lon="-0.34538554"><ele>7.0</ele><time>2022-11-04T14:05:13.0000000+00:00</time></trkpt><trkpt lat="39.45253462" lon="-0.34538554"><ele>7.0</ele><time>2022-11-04T14:05:14.0000000+00:00</time></trkpt><trkpt lat="39.4525347" lon="-0.34538554"><ele>7.0</ele><time>2022-11-04T14:05:15.0000000+00:00</time></trkpt><trkpt lat="39.4525347" lon="-0.34538554"><ele>7.0</ele><time>2022-11-04T14:05:16.0000000+00:00</time></trkpt><trkpt lat="39.45253478" lon="-0.34538537"><ele>7.0</ele><time>2022-11-04T14:05:17.0000000+00:00</time></trkpt><trkpt lat="39.45253495" lon="-0.34538529"><ele>7.0</ele><time>2022-11-04T14:05:18.0000000+00:00</time></trkpt><trkpt lat="39.45253504" lon="-0.34538512"><ele>7.0</ele><time>2022-11-04T14:05:19.0000000+00:00</time></trkpt><trkpt lat="39.45253504" lon="-0.34538512"><ele>7.0</ele><time>2022-11-04T14:05:20.0000000+00:00</time></trkpt><trkpt lat="39.45253504" lon="-0.34538512"><ele>7.0</ele><time>2022-11-04T14:05:21.0000000+00:00</time></trkpt><trkpt lat="39.45253512" lon="-0.34538521"><ele>7.0</ele><time>2022-11-04T14:05:22.0000000+00:00</time></trkpt><trkpt lat="39.45253512" lon="-0.34538537"><ele>7.0</ele><time>2022-11-04T14:05:23.0000000+00:00</time></trkpt><trkpt lat="39.45253504" lon="-0.34538554"><ele>7.0</ele><time>2022-11-04T14:05:24.0000000+00:00</time></trkpt><trkpt lat="39.45253512" lon="-0.34538562"><ele>7.0</ele><time>2022-11-04T14:05:25.0000000+00:00</time></trkpt><trkpt lat="39.45253512" lon="-0.34538571"><ele>7.0</ele><time>2022-11-04T14:05:26.0000000+00:00</time></trkpt><trkpt lat="39.45253512" lon="-0.34538571"><ele>7.0</ele><time>2022-11-04T14:05:27.0000000+00:00</time></trkpt><trkpt lat="39.45253512" lon="-0.34538579"><ele>7.0</ele><time>2022-11-04T14:05:28.0000000+00:00</time></trkpt><trkpt lat="39.45253512" lon="-0.34538596"><ele>7.0</ele><time>2022-11-04T14:05:29.0000000+00:00</time></trkpt><trkpt lat="39.4525352" lon="-0.34538588"><ele>7.0</ele><time>2022-11-04T14:05:30.0000000+00:00</time></trkpt><trkpt lat="39.45253529" lon="-0.34538588"><ele>7.0</ele><time>2022-11-04T14:05:31.0000000+00:00</time></trkpt><trkpt lat="39.45253529" lon="-0.34538588"><ele>7.0</ele><time>2022-11-04T14:05:32.0000000+00:00</time></trkpt><trkpt lat="39.45253529" lon="-0.34538596"><ele>7.0</ele><time>2022-11-04T14:05:33.0000000+00:00</time></trkpt><trkpt lat="39.45253529" lon="-0.34538604"><ele>7.0</ele><time>2022-11-04T14:05:34.0000000+00:00</time></trkpt><trkpt lat="39.4525352" lon="-0.34538621"><ele>7.0</ele><time>2022-11-04T14:05:35.0000000+00:00</time></trkpt><trkpt lat="39.4525352" lon="-0.3453863"><ele>7.0</ele><time>2022-11-04T14:05:36.0000000+00:00</time></trkpt><trkpt lat="39.45253529" lon="-0.3453863"><ele>7.0</ele><time>2022-11-04T14:05:37.0000000+00:00</time></trkpt><trkpt lat="39.45253529" lon="-0.3453863"><ele>7.0</ele><time>2022-11-04T14:05:38.0000000+00:00</time></trkpt><trkpt lat="39.45253529" lon="-0.3453863"><ele>7.0</ele><time>2022-11-04T14:05:39.0000000+00:00</time></trkpt><trkpt lat="39.45253529" lon="-0.3453863"><ele>7.0</ele><time>2022-11-04T14:05:40.0000000+00:00</time></trkpt><trkpt lat="39.45253529" lon="-0.3453863"><ele>7.0</ele><time>2022-11-04T14:05:41.0000000+00:00</time></trkpt><trkpt lat="39.45253537" lon="-0.3453863"><ele>7.0</ele><time>2022-11-04T14:05:42.0000000+00:00</time></trkpt><trkpt lat="39.45253537" lon="-0.34538638"><ele>7.0</ele><time>2022-11-04T14:05:43.0000000+00:00</time></trkpt><trkpt lat="39.45253545" lon="-0.34538646"><ele>7.0</ele><time>2022-11-04T14:05:44.0000000+00:00</time></trkpt><trkpt lat="39.45253554" lon="-0.34538646"><ele>7.0</ele><time>2022-11-04T14:05:45.0000000+00:00</time></trkpt><trkpt lat="39.45253545" lon="-0.34538655"><ele>7.0</ele><time>2022-11-04T14:05:46.0000000+00:00</time></trkpt><trkpt lat="39.45253545" lon="-0.34538655"><ele>7.0</ele><time>2022-11-04T14:05:47.0000000+00:00</time></trkpt><trkpt lat="39.45253537" lon="-0.34538671"><ele>7.0</ele><time>2022-11-04T14:05:48.0000000+00:00</time></trkpt><trkpt lat="39.45253537" lon="-0.3453868"><ele>7.0</ele><time>2022-11-04T14:05:49.0000000+00:00</time></trkpt><trkpt lat="39.45253529" lon="-0.3453868"><ele>7.0</ele><time>2022-11-04T14:05:50.0000000+00:00</time></trkpt><trkpt lat="39.4525352" lon="-0.34538697"><ele>7.0</ele><time>2022-11-04T14:05:51.0000000+00:00</time></trkpt><trkpt lat="39.45253512" lon="-0.34538705"><ele>7.0</ele><time>2022-11-04T14:05:52.0000000+00:00</time></trkpt><trkpt lat="39.45253495" lon="-0.34538722"><ele>7.0</ele><time>2022-11-04T14:05:53.0000000+00:00</time></trkpt><trkpt lat="39.45253478" lon="-0.3453873"><ele>7.0</ele><time>2022-11-04T14:05:54.0000000+00:00</time></trkpt><trkpt lat="39.45253462" lon="-0.34538747"><ele>7.0</ele><time>2022-11-04T14:05:55.0000000+00:00</time></trkpt><trkpt lat="39.45253437" lon="-0.34538764"><ele>7.0</ele><time>2022-11-04T14:05:56.0000000+00:00</time></trkpt><trkpt lat="39.45253428" lon="-0.3453878"><ele>7.0</ele><time>2022-11-04T14:05:57.0000000+00:00</time></trkpt><trkpt lat="39.45253411" lon="-0.34538789"><ele>7.0</ele><time>2022-11-04T14:05:58.0000000+00:00</time></trkpt><trkpt lat="39.45253403" lon="-0.34538797"><ele>7.0</ele><time>2022-11-04T14:05:59.0000000+00:00</time></trkpt><trkpt lat="39.45253403" lon="-0.34538797"><ele>7.0</ele><time>2022-11-04T14:06:00.0000000+00:00</time></trkpt><trkpt lat="39.45253395" lon="-0.34538806"><ele>7.0</ele><time>2022-11-04T14:06:01.0000000+00:00</time></trkpt><trkpt lat="39.45253395" lon="-0.34538814"><ele>7.0</ele><time>2022-11-04T14:06:02.0000000+00:00</time></trkpt><trkpt lat="39.45253386" lon="-0.34538822"><ele>7.0</ele><time>2022-11-04T14:06:03.0000000+00:00</time></trkpt><trkpt lat="39.45253386" lon="-0.34538831"><ele>7.0</ele><time>2022-11-04T14:06:04.0000000+00:00</time></trkpt><trkpt lat="39.45253386" lon="-0.34538831"><ele>7.0</ele><time>2022-11-04T14:06:05.0000000+00:00</time></trkpt><trkpt lat="39.45253386" lon="-0.34538839"><ele>7.0</ele><time>2022-11-04T14:06:06.0000000+00:00</time></trkpt><trkpt lat="39.45253386" lon="-0.34538856"><ele>7.0</ele><time>2022-11-04T14:06:07.0000000+00:00</time></trkpt><trkpt lat="39.45253378" lon="-0.34538864"><ele>7.0</ele><time>2022-11-04T14:06:08.0000000+00:00</time></trkpt><trkpt lat="39.45253378" lon="-0.34538864"><ele>7.0</ele><time>2022-11-04T14:06:09.0000000+00:00</time></trkpt><trkpt lat="39.45253369" lon="-0.34538873"><ele>7.0</ele><time>2022-11-04T14:06:10.0000000+00:00</time></trkpt><trkpt lat="39.45253369" lon="-0.34538881"><ele>7.0</ele><time>2022-11-04T14:06:11.0000000+00:00</time></trkpt><trkpt lat="39.45253369" lon="-0.34538889"><ele>7.0</ele><time>2022-11-04T14:06:12.0000000+00:00</time></trkpt><trkpt lat="39.45253378" lon="-0.34538898"><ele>7.0</ele><time>2022-11-04T14:06:13.0000000+00:00</time></trkpt><trkpt lat="39.45253386" lon="-0.34538906"><ele>7.0</ele><time>2022-11-04T14:06:14.0000000+00:00</time></trkpt><trkpt lat="39.45253386" lon="-0.34538914"><ele>7.0</ele><time>2022-11-04T14:06:15.0000000+00:00</time></trkpt><trkpt lat="39.45253386" lon="-0.34538914"><ele>7.0</ele><time>2022-11-04T14:06:16.0000000+00:00</time></trkpt><trkpt lat="39.45253395" lon="-0.34538923"><ele>7.0</ele><time>2022-11-04T14:06:17.0000000+00:00</time></trkpt><trkpt lat="39.45253395" lon="-0.34538931"><ele>7.0</ele><time>2022-11-04T14:06:18.0000000+00:00</time></trkpt><trkpt lat="39.45253403" lon="-0.34538948"><ele>7.0</ele><time>2022-11-04T14:06:19.0000000+00:00</time></trkpt><trkpt lat="39.45253403" lon="-0.34538956"><ele>7.0</ele><time>2022-11-04T14:06:20.0000000+00:00</time></trkpt><trkpt lat="39.45253411" lon="-0.34538956"><ele>7.0</ele><time>2022-11-04T14:06:21.0000000+00:00</time></trkpt><trkpt lat="39.45253411" lon="-0.3453894"><ele>7.0</ele><time>2022-11-04T14:06:22.0000000+00:00</time></trkpt><trkpt lat="39.45253411" lon="-0.3453894"><ele>7.0</ele><time>2022-11-04T14:06:23.0000000+00:00</time></trkpt><trkpt lat="39.45253403" lon="-0.3453894"><ele>7.0</ele><time>2022-11-04T14:06:24.0000000+00:00</time></trkpt><trkpt lat="39.45253403" lon="-0.3453894"><ele>7.0</ele><time>2022-11-04T14:06:25.0000000+00:00</time></trkpt><trkpt lat="39.45253395" lon="-0.3453894"><ele>7.0</ele><time>2022-11-04T14:06:26.0000000+00:00</time></trkpt><trkpt lat="39.45253395" lon="-0.34538931"><ele>7.0</ele><time>2022-11-04T14:06:27.0000000+00:00</time></trkpt><trkpt lat="39.45253386" lon="-0.34538923"><ele>7.0</ele><time>2022-11-04T14:06:28.0000000+00:00</time></trkpt><trkpt lat="39.45253378" lon="-0.34538914"><ele>7.0</ele><time>2022-11-04T14:06:29.0000000+00:00</time></trkpt><trkpt lat="39.45253386" lon="-0.34538914"><ele>7.0</ele><time>2022-11-04T14:06:30.0000000+00:00</time></trkpt><trkpt lat="39.45253386" lon="-0.34538914"><ele>7.0</ele><time>2022-11-04T14:06:31.0000000+00:00</time></trkpt><trkpt lat="39.45253386" lon="-0.34538914"><ele>7.0</ele><time>2022-11-04T14:06:32.0000000+00:00</time></trkpt><trkpt lat="39.45253378" lon="-0.34538906"><ele>7.0</ele><time>2022-11-04T14:06:33.0000000+00:00</time></trkpt><trkpt lat="39.45253378" lon="-0.34538906"><ele>7.0</ele><time>2022-11-04T14:06:34.0000000+00:00</time></trkpt><trkpt lat="39.45253378" lon="-0.34538898"><ele>7.0</ele><time>2022-11-04T14:06:35.0000000+00:00</time></trkpt><trkpt lat="39.45253369" lon="-0.34538898"><ele>7.0</ele><time>2022-11-04T14:06:36.0000000+00:00</time></trkpt><trkpt lat="39.45253369" lon="-0.34538889"><ele>7.0</ele><time>2022-11-04T14:06:37.0000000+00:00</time></trkpt><trkpt lat="39.45253369" lon="-0.34538889"><ele>7.0</ele><time>2022-11-04T14:06:38.0000000+00:00</time></trkpt><trkpt lat="39.45253369" lon="-0.34538889"><ele>7.0</ele><time>2022-11-04T14:06:39.0000000+00:00</time></trkpt><trkpt lat="39.45253369" lon="-0.34538873"><ele>7.0</ele><time>2022-11-04T14:06:40.0000000+00:00</time></trkpt><trkpt lat="39.45253369" lon="-0.34538856"><ele>7.0</ele><time>2022-11-04T14:06:41.0000000+00:00</time></trkpt><trkpt lat="39.45253369" lon="-0.34538839"><ele>7.0</ele><time>2022-11-04T14:06:42.0000000+00:00</time></trkpt><trkpt lat="39.45253369" lon="-0.34538831"><ele>7.0</ele><time>2022-11-04T14:06:43.0000000+00:00</time></trkpt><trkpt lat="39.45253369" lon="-0.34538806"><ele>7.0</ele><time>2022-11-04T14:06:44.0000000+00:00</time></trkpt><trkpt lat="39.45253378" lon="-0.34538797"><ele>7.0</ele><time>2022-11-04T14:06:45.0000000+00:00</time></trkpt><trkpt lat="39.45253369" lon="-0.34538789"><ele>7.0</ele><time>2022-11-04T14:06:46.0000000+00:00</time></trkpt><trkpt lat="39.45253369" lon="-0.34538789"><ele>7.0</ele><time>2022-11-04T14:06:47.0000000+00:00</time></trkpt><trkpt lat="39.45253353" lon="-0.34538789"><ele>7.0</ele><time>2022-11-04T14:06:48.0000000+00:00</time></trkpt><trkpt lat="39.45253336" lon="-0.3453878"><ele>7.0</ele><time>2022-11-04T14:06:49.0000000+00:00</time></trkpt><trkpt lat="39.45253328" lon="-0.34538772"><ele>7.0</ele><time>2022-11-04T14:06:50.0000000+00:00</time></trkpt><trkpt lat="39.45253319" lon="-0.34538755"><ele>7.0</ele><time>2022-11-04T14:06:51.0000000+00:00</time></trkpt><trkpt lat="39.45253311" lon="-0.34538747"><ele>7.0</ele><time>2022-11-04T14:06:52.0000000+00:00</time></trkpt><trkpt lat="39.45253311" lon="-0.3453873"><ele>7.0</ele><time>2022-11-04T14:06:53.0000000+00:00</time></trkpt><trkpt lat="39.45253302" lon="-0.3453873"><ele>7.0</ele><time>2022-11-04T14:06:54.0000000+00:00</time></trkpt><trkpt lat="39.45253302" lon="-0.34538722"><ele>7.0</ele><time>2022-11-04T14:06:55.0000000+00:00</time></trkpt><trkpt lat="39.45253294" lon="-0.34538713"><ele>7.0</ele><time>2022-11-04T14:06:56.0000000+00:00</time></trkpt><trkpt lat="39.45253294" lon="-0.34538713"><ele>7.0</ele><time>2022-11-04T14:06:57.0000000+00:00</time></trkpt><trkpt lat="39.45253294" lon="-0.34538713"><ele>7.0</ele><time>2022-11-04T14:06:58.0000000+00:00</time></trkpt><trkpt lat="39.45253286" lon="-0.34538713"><ele>7.0</ele><time>2022-11-04T14:06:59.0000000+00:00</time></trkpt><trkpt lat="39.45253277" lon="-0.34538713"><ele>7.0</ele><time>2022-11-04T14:07:00.0000000+00:00</time></trkpt><trkpt lat="39.45253269" lon="-0.34538713"><ele>7.0</ele><time>2022-11-04T14:07:01.0000000+00:00</time></trkpt><trkpt lat="39.4525326" lon="-0.34538705"><ele>7.0</ele><time>2022-11-04T14:07:02.0000000+00:00</time></trkpt><trkpt lat="39.4525326" lon="-0.34538705"><ele>7.0</ele><time>2022-11-04T14:07:03.0000000+00:00</time></trkpt><trkpt lat="39.45253252" lon="-0.34538713"><ele>7.0</ele><time>2022-11-04T14:07:04.0000000+00:00</time></trkpt><trkpt lat="39.45253244" lon="-0.34538713"><ele>7.0</ele><time>2022-11-04T14:07:05.0000000+00:00</time></trkpt><trkpt lat="39.45253235" lon="-0.34538705"><ele>7.0</ele><time>2022-11-04T14:07:06.0000000+00:00</time></trkpt><trkpt lat="39.45253227" lon="-0.34538697"><ele>7.0</ele><time>2022-11-04T14:07:07.0000000+00:00</time></trkpt><trkpt lat="39.45253227" lon="-0.34538697"><ele>7.0</ele><time>2022-11-04T14:07:08.0000000+00:00</time></trkpt><trkpt lat="39.45253219" lon="-0.34538705"><ele>7.0</ele><time>2022-11-04T14:07:09.0000000+00:00</time></trkpt><trkpt lat="39.45253219" lon="-0.34538705"><ele>7.0</ele><time>2022-11-04T14:07:10.0000000+00:00</time></trkpt><trkpt lat="39.4525321" lon="-0.34538705"><ele>7.0</ele><time>2022-11-04T14:07:11.0000000+00:00</time></trkpt><trkpt lat="39.4525321" lon="-0.34538688"><ele>7.0</ele><time>2022-11-04T14:07:12.0000000+00:00</time></trkpt><trkpt lat="39.4525321" lon="-0.34538688"><ele>7.0</ele><time>2022-11-04T14:07:13.0000000+00:00</time></trkpt><trkpt lat="39.4525321" lon="-0.34538688"><ele>7.0</ele><time>2022-11-04T14:07:14.0000000+00:00</time></trkpt><trkpt lat="39.45253202" lon="-0.34538705"><ele>7.0</ele><time>2022-11-04T14:07:15.0000000+00:00</time></trkpt><trkpt lat="39.45253202" lon="-0.34538713"><ele>7.0</ele><time>2022-11-04T14:07:16.0000000+00:00</time></trkpt><trkpt lat="39.45253202" lon="-0.34538705"><ele>7.0</ele><time>2022-11-04T14:07:17.0000000+00:00</time></trkpt><trkpt lat="39.45253202" lon="-0.34538697"><ele>7.0</ele><time>2022-11-04T14:07:18.0000000+00:00</time></trkpt><trkpt lat="39.45253202" lon="-0.34538688"><ele>7.0</ele><time>2022-11-04T14:07:19.0000000+00:00</time></trkpt><trkpt lat="39.4525321" lon="-0.34538688"><ele>7.0</ele><time>2022-11-04T14:07:20.0000000+00:00</time></trkpt><trkpt lat="39.4525321" lon="-0.34538688"><ele>7.0</ele><time>2022-11-04T14:07:21.0000000+00:00</time></trkpt><trkpt lat="39.4525321" lon="-0.3453868"><ele>7.0</ele><time>2022-11-04T14:07:22.0000000+00:00</time></trkpt><trkpt lat="39.45253202" lon="-0.3453868"><ele>7.0</ele><time>2022-11-04T14:07:23.0000000+00:00</time></trkpt><trkpt lat="39.45253193" lon="-0.34538671"><ele>7.0</ele><time>2022-11-04T14:07:24.0000000+00:00</time></trkpt><trkpt lat="39.45253185" lon="-0.3453868"><ele>7.0</ele><time>2022-11-04T14:07:25.0000000+00:00</time></trkpt><trkpt lat="39.45253185" lon="-0.34538671"><ele>7.0</ele><time>2022-11-04T14:07:26.0000000+00:00</time></trkpt><trkpt lat="39.45253168" lon="-0.34538671"><ele>7.0</ele><time>2022-11-04T14:07:27.0000000+00:00</time></trkpt><trkpt lat="39.4525316" lon="-0.3453868"><ele>7.0</ele><time>2022-11-04T14:07:28.0000000+00:00</time></trkpt><trkpt lat="39.45253152" lon="-0.34538671"><ele>7.0</ele><time>2022-11-04T14:07:29.0000000+00:00</time></trkpt><trkpt lat="39.45253152" lon="-0.34538671"><ele>7.0</ele><time>2022-11-04T14:07:30.0000000+00:00</time></trkpt><trkpt lat="39.45253143" lon="-0.34538663"><ele>7.0</ele><time>2022-11-04T14:07:31.0000000+00:00</time></trkpt><trkpt lat="39.45253143" lon="-0.34538663"><ele>7.0</ele><time>2022-11-04T14:07:32.0000000+00:00</time></trkpt><trkpt lat="39.45253143" lon="-0.34538663"><ele>7.0</ele><time>2022-11-04T14:07:33.0000000+00:00</time></trkpt><trkpt lat="39.45253135" lon="-0.34538671"><ele>7.0</ele><time>2022-11-04T14:07:34.0000000+00:00</time></trkpt><trkpt lat="39.45253126" lon="-0.34538688"><ele>7.0</ele><time>2022-11-04T14:07:35.0000000+00:00</time></trkpt><trkpt lat="39.45253118" lon="-0.34538688"><ele>7.0</ele><time>2022-11-04T14:07:36.0000000+00:00</time></trkpt><trkpt lat="39.45253118" lon="-0.34538688"><ele>7.0</ele><time>2022-11-04T14:07:37.0000000+00:00</time></trkpt><trkpt lat="39.45253126" lon="-0.34538697"><ele>7.0</ele><time>2022-11-04T14:07:38.0000000+00:00</time></trkpt><trkpt lat="39.45253126" lon="-0.34538705"><ele>7.0</ele><time>2022-11-04T14:07:39.0000000+00:00</time></trkpt><trkpt lat="39.45253126" lon="-0.34538705"><ele>7.0</ele><time>2022-11-04T14:07:40.0000000+00:00</time></trkpt><trkpt lat="39.45253135" lon="-0.34538705"><ele>7.0</ele><time>2022-11-04T14:07:41.0000000+00:00</time></trkpt><trkpt lat="39.45253143" lon="-0.34538705"><ele>7.0</ele><time>2022-11-04T14:07:42.0000000+00:00</time></trkpt><trkpt lat="39.45253152" lon="-0.34538705"><ele>7.0</ele><time>2022-11-04T14:07:43.0000000+00:00</time></trkpt><trkpt lat="39.4525316" lon="-0.34538705"><ele>7.0</ele><time>2022-11-04T14:07:44.0000000+00:00</time></trkpt><trkpt lat="39.45253168" lon="-0.34538697"><ele>7.0</ele><time>2022-11-04T14:07:45.0000000+00:00</time></trkpt><trkpt lat="39.45253177" lon="-0.34538697"><ele>7.0</ele><time>2022-11-04T14:07:46.0000000+00:00</time></trkpt><trkpt lat="39.45253185" lon="-0.34538688"><ele>7.0</ele><time>2022-11-04T14:07:47.0000000+00:00</time></trkpt><trkpt lat="39.45253185" lon="-0.34538688"><ele>7.0</ele><time>2022-11-04T14:07:48.0000000+00:00</time></trkpt><trkpt lat="39.45253185" lon="-0.3453868"><ele>7.0</ele><time>2022-11-04T14:07:49.0000000+00:00</time></trkpt><trkpt lat="39.45253177" lon="-0.34538688"><ele>7.0</ele><time>2022-11-04T14:07:50.0000000+00:00</time></trkpt><trkpt lat="39.45253185" lon="-0.3453868"><ele>7.0</ele><time>2022-11-04T14:07:51.0000000+00:00</time></trkpt><trkpt lat="39.45253185" lon="-0.34538671"><ele>7.0</ele><time>2022-11-04T14:07:52.0000000+00:00</time></trkpt><trkpt lat="39.45253177" lon="-0.34538671"><ele>7.0</ele><time>2022-11-04T14:07:53.0000000+00:00</time></trkpt><trkpt lat="39.45253177" lon="-0.34538671"><ele>7.0</ele><time>2022-11-04T14:07:54.0000000+00:00</time></trkpt><trkpt lat="39.45253177" lon="-0.34538663"><ele>7.0</ele><time>2022-11-04T14:07:55.0000000+00:00</time></trkpt><trkpt lat="39.45253177" lon="-0.34538663"><ele>7.0</ele><time>2022-11-04T14:07:56.0000000+00:00</time></trkpt><trkpt lat="39.4525316" lon="-0.34538663"><ele>7.0</ele><time>2022-11-04T14:07:57.0000000+00:00</time></trkpt><trkpt lat="39.4525316" lon="-0.34538663"><ele>7.0</ele><time>2022-11-04T14:07:58.0000000+00:00</time></trkpt><trkpt lat="39.4525316" lon="-0.34538663"><ele>7.0</ele><time>2022-11-04T14:07:59.0000000+00:00</time></trkpt><trkpt lat="39.45253168" lon="-0.34538663"><ele>7.0</ele><time>2022-11-04T14:08:00.0000000+00:00</time></trkpt><trkpt lat="39.45253168" lon="-0.34538663"><ele>7.0</ele><time>2022-11-04T14:08:01.0000000+00:00</time></trkpt><trkpt lat="39.45253168" lon="-0.34538663"><ele>7.0</ele><time>2022-11-04T14:08:02.0000000+00:00</time></trkpt><trkpt lat="39.45253168" lon="-0.34538655"><ele>7.0</ele><time>2022-11-04T14:08:03.0000000+00:00</time></trkpt><trkpt lat="39.45253168" lon="-0.34538655"><ele>7.0</ele><time>2022-11-04T14:08:04.0000000+00:00</time></trkpt><trkpt lat="39.45253168" lon="-0.34538655"><ele>7.0</ele><time>2022-11-04T14:08:05.0000000+00:00</time></trkpt><trkpt lat="39.45253168" lon="-0.34538663"><ele>7.0</ele><time>2022-11-04T14:08:06.0000000+00:00</time></trkpt><trkpt lat="39.45253168" lon="-0.34538663"><ele>7.0</ele><time>2022-11-04T14:08:07.0000000+00:00</time></trkpt><trkpt lat="39.4525316" lon="-0.34538663"><ele>7.0</ele><time>2022-11-04T14:08:08.0000000+00:00</time></trkpt><trkpt lat="39.45253152" lon="-0.34538663"><ele>7.0</ele><time>2022-11-04T14:08:09.0000000+00:00</time></trkpt><trkpt lat="39.45253152" lon="-0.34538663"><ele>7.0</ele><time>2022-11-04T14:08:10.0000000+00:00</time></trkpt><trkpt lat="39.45253152" lon="-0.34538655"><ele>7.0</ele><time>2022-11-04T14:08:11.0000000+00:00</time></trkpt><trkpt lat="39.45253143" lon="-0.34538646"><ele>7.0</ele><time>2022-11-04T14:08:12.0000000+00:00</time></trkpt><trkpt lat="39.45253135" lon="-0.34538638"><ele>7.0</ele><time>2022-11-04T14:08:13.0000000+00:00</time></trkpt><trkpt lat="39.45253135" lon="-0.34538638"><ele>7.0</ele><time>2022-11-04T14:08:14.0000000+00:00</time></trkpt><trkpt lat="39.45253143" lon="-0.34538638"><ele>7.0</ele><time>2022-11-04T14:08:15.0000000+00:00</time></trkpt><trkpt lat="39.45253143" lon="-0.34538638"><ele>7.0</ele><time>2022-11-04T14:08:16.0000000+00:00</time></trkpt><trkpt lat="39.45253152" lon="-0.3453863"><ele>7.0</ele><time>2022-11-04T14:08:17.0000000+00:00</time></trkpt><trkpt lat="39.45253152" lon="-0.34538621"><ele>7.0</ele><time>2022-11-04T14:08:18.0000000+00:00</time></trkpt><trkpt lat="39.45253168" lon="-0.34538621"><ele>7.0</ele><time>2022-11-04T14:08:19.0000000+00:00</time></trkpt><trkpt lat="39.45253177" lon="-0.34538604"><ele>7.0</ele><time>2022-11-04T14:08:20.0000000+00:00</time></trkpt><trkpt lat="39.45253177" lon="-0.34538604"><ele>7.0</ele><time>2022-11-04T14:08:21.0000000+00:00</time></trkpt><trkpt lat="39.45253185" lon="-0.34538588"><ele>7.0</ele><time>2022-11-04T14:08:22.0000000+00:00</time></trkpt><trkpt lat="39.45253193" lon="-0.34538579"><ele>7.0</ele><time>2022-11-04T14:08:23.0000000+00:00</time></trkpt><trkpt lat="39.45253193" lon="-0.34538571"><ele>7.0</ele><time>2022-11-04T14:08:24.0000000+00:00</time></trkpt><trkpt lat="39.45253193" lon="-0.34538562"><ele>7.0</ele><time>2022-11-04T14:08:25.0000000+00:00</time></trkpt><trkpt lat="39.45253202" lon="-0.34538562"><ele>7.0</ele><time>2022-11-04T14:08:26.0000000+00:00</time></trkpt><trkpt lat="39.4525321" lon="-0.34538554"><ele>7.0</ele><time>2022-11-04T14:08:27.0000000+00:00</time></trkpt><trkpt lat="39.45253219" lon="-0.34538546"><ele>7.0</ele><time>2022-11-04T14:08:28.0000000+00:00</time></trkpt><trkpt lat="39.45253227" lon="-0.34538546"><ele>7.0</ele><time>2022-11-04T14:08:29.0000000+00:00</time></trkpt><trkpt lat="39.45253227" lon="-0.34538537"><ele>7.0</ele><time>2022-11-04T14:08:30.0000000+00:00</time></trkpt><trkpt lat="39.45253235" lon="-0.34538529"><ele>7.0</ele><time>2022-11-04T14:08:31.0000000+00:00</time></trkpt><trkpt lat="39.45253244" lon="-0.34538529"><ele>7.0</ele><time>2022-11-04T14:08:32.0000000+00:00</time></trkpt><trkpt lat="39.45253252" lon="-0.34538521"><ele>7.0</ele><time>2022-11-04T14:08:33.0000000+00:00</time></trkpt><trkpt lat="39.4525326" lon="-0.34538521"><ele>7.0</ele><time>2022-11-04T14:08:34.0000000+00:00</time></trkpt><trkpt lat="39.4525326" lon="-0.34538512"><ele>7.0</ele><time>2022-11-04T14:08:35.0000000+00:00</time></trkpt><trkpt lat="39.4525326" lon="-0.34538504"><ele>7.0</ele><time>2022-11-04T14:08:36.0000000+00:00</time></trkpt><trkpt lat="39.4525326" lon="-0.34538504"><ele>7.0</ele><time>2022-11-04T14:08:37.0000000+00:00</time></trkpt><trkpt lat="39.4525326" lon="-0.34538504"><ele>7.0</ele><time>2022-11-04T14:08:38.0000000+00:00</time></trkpt><trkpt lat="39.4525326" lon="-0.34538504"><ele>7.0</ele><time>2022-11-04T14:08:39.0000000+00:00</time></trkpt><trkpt lat="39.45253269" lon="-0.34538504"><ele>7.0</ele><time>2022-11-04T14:08:40.0000000+00:00</time></trkpt><trkpt lat="39.45253277" lon="-0.34538495"><ele>7.0</ele><time>2022-11-04T14:08:41.0000000+00:00</time></trkpt><trkpt lat="39.45253277" lon="-0.34538487"><ele>7.0</ele><time>2022-11-04T14:08:42.0000000+00:00</time></trkpt><trkpt lat="39.45253277" lon="-0.34538487"><ele>7.0</ele><time>2022-11-04T14:08:43.0000000+00:00</time></trkpt><trkpt lat="39.45253286" lon="-0.34538479"><ele>7.0</ele><time>2022-11-04T14:08:44.0000000+00:00</time></trkpt><trkpt lat="39.45253286" lon="-0.3453847"><ele>7.0</ele><time>2022-11-04T14:08:45.0000000+00:00</time></trkpt><trkpt lat="39.45253286" lon="-0.34538462"><ele>7.0</ele><time>2022-11-04T14:08:46.0000000+00:00</time></trkpt><trkpt lat="39.45253277" lon="-0.34538445"><ele>7.0</ele><time>2022-11-04T14:08:47.0000000+00:00</time></trkpt><trkpt lat="39.45253277" lon="-0.34538437"><ele>7.0</ele><time>2022-11-04T14:08:48.0000000+00:00</time></trkpt><trkpt lat="39.45253277" lon="-0.34538428"><ele>7.0</ele><time>2022-11-04T14:08:49.0000000+00:00</time></trkpt><trkpt lat="39.45253277" lon="-0.34538412"><ele>7.0</ele><time>2022-11-04T14:08:50.0000000+00:00</time></trkpt><trkpt lat="39.45253277" lon="-0.34538403"><ele>7.0</ele><time>2022-11-04T14:08:51.0000000+00:00</time></trkpt><trkpt lat="39.45253277" lon="-0.34538395"><ele>7.0</ele><time>2022-11-04T14:08:52.0000000+00:00</time></trkpt><trkpt lat="39.45253277" lon="-0.34538386"><ele>7.0</ele><time>2022-11-04T14:08:53.0000000+00:00</time></trkpt><trkpt lat="39.45253277" lon="-0.3453837"><ele>7.0</ele><time>2022-11-04T14:08:54.0000000+00:00</time></trkpt><trkpt lat="39.45253286" lon="-0.34538361"><ele>7.0</ele><time>2022-11-04T14:08:55.0000000+00:00</time></trkpt><trkpt lat="39.45253286" lon="-0.34538353"><ele>7.0</ele><time>2022-11-04T14:08:56.0000000+00:00</time></trkpt><trkpt lat="39.45253294" lon="-0.34538345"><ele>7.0</ele><time>2022-11-04T14:08:57.0000000+00:00</time></trkpt><trkpt lat="39.45253294" lon="-0.34538345"><ele>7.0</ele><time>2022-11-04T14:08:58.0000000+00:00</time></trkpt><trkpt lat="39.45253294" lon="-0.34538336"><ele>7.0</ele><time>2022-11-04T14:08:59.0000000+00:00</time></trkpt><trkpt lat="39.45253286" lon="-0.34538328"><ele>7.0</ele><time>2022-11-04T14:09:00.0000000+00:00</time></trkpt><trkpt lat="39.45253286" lon="-0.34538328"><ele>7.0</ele><time>2022-11-04T14:09:01.0000000+00:00</time></trkpt><trkpt lat="39.45253286" lon="-0.34538319"><ele>7.0</ele><time>2022-11-04T14:09:02.0000000+00:00</time></trkpt><trkpt lat="39.45253294" lon="-0.34538311"><ele>7.0</ele><time>2022-11-04T14:09:03.0000000+00:00</time></trkpt><trkpt lat="39.45253294" lon="-0.34538303"><ele>7.0</ele><time>2022-11-04T14:09:04.0000000+00:00</time></trkpt><trkpt lat="39.45253286" lon="-0.34538303"><ele>7.0</ele><time>2022-11-04T14:09:05.0000000+00:00</time></trkpt><trkpt lat="39.45253286" lon="-0.34538286"><ele>7.0</ele><time>2022-11-04T14:09:06.0000000+00:00</time></trkpt><trkpt lat="39.45253286" lon="-0.34538286"><ele>7.0</ele><time>2022-11-04T14:09:07.0000000+00:00</time></trkpt><trkpt lat="39.45253277" lon="-0.34538277"><ele>7.0</ele><time>2022-11-04T14:09:08.0000000+00:00</time></trkpt><trkpt lat="39.45253277" lon="-0.34538269"><ele>7.0</ele><time>2022-11-04T14:09:09.0000000+00:00</time></trkpt><trkpt lat="39.45253286" lon="-0.34538261"><ele>7.0</ele><time>2022-11-04T14:09:10.0000000+00:00</time></trkpt><trkpt lat="39.45253277" lon="-0.34538261"><ele>7.0</ele><time>2022-11-04T14:09:11.0000000+00:00</time></trkpt><trkpt lat="39.45253277" lon="-0.34538252"><ele>7.0</ele><time>2022-11-04T14:09:12.0000000+00:00</time></trkpt><trkpt lat="39.4525326" lon="-0.34538252"><ele>7.0</ele><time>2022-11-04T14:09:13.0000000+00:00</time></trkpt><trkpt lat="39.4525326" lon="-0.34538244"><ele>7.0</ele><time>2022-11-04T14:09:14.0000000+00:00</time></trkpt><trkpt lat="39.45253252" lon="-0.34538227"><ele>7.0</ele><time>2022-11-04T14:09:15.0000000+00:00</time></trkpt><trkpt lat="39.45253244" lon="-0.34538227"><ele>7.0</ele><time>2022-11-04T14:09:16.0000000+00:00</time></trkpt><trkpt lat="39.45253235" lon="-0.34538219"><ele>7.0</ele><time>2022-11-04T14:09:17.0000000+00:00</time></trkpt><trkpt lat="39.45253235" lon="-0.3453821"><ele>7.0</ele><time>2022-11-04T14:09:18.0000000+00:00</time></trkpt><trkpt lat="39.45253235" lon="-0.34538202"><ele>7.0</ele><time>2022-11-04T14:09:19.0000000+00:00</time></trkpt><trkpt lat="39.45253244" lon="-0.34538194"><ele>7.0</ele><time>2022-11-04T14:09:20.0000000+00:00</time></trkpt><trkpt lat="39.45253244" lon="-0.34538185"><ele>7.0</ele><time>2022-11-04T14:09:21.0000000+00:00</time></trkpt><trkpt lat="39.45253252" lon="-0.34538177"><ele>7.0</ele><time>2022-11-04T14:09:22.0000000+00:00</time></trkpt><trkpt lat="39.45253252" lon="-0.34538169"><ele>7.0</ele><time>2022-11-04T14:09:23.0000000+00:00</time></trkpt><trkpt lat="39.45253252" lon="-0.3453816"><ele>7.0</ele><time>2022-11-04T14:09:24.0000000+00:00</time></trkpt><trkpt lat="39.45253252" lon="-0.3453816"><ele>7.0</ele><time>2022-11-04T14:09:25.0000000+00:00</time></trkpt><trkpt lat="39.4525326" lon="-0.34538152"><ele>7.0</ele><time>2022-11-04T14:09:26.0000000+00:00</time></trkpt><trkpt lat="39.4525326" lon="-0.34538143"><ele>7.0</ele><time>2022-11-04T14:09:27.0000000+00:00</time></trkpt><trkpt lat="39.4525326" lon="-0.34538143"><ele>7.0</ele><time>2022-11-04T14:09:28.0000000+00:00</time></trkpt><trkpt lat="39.45253252" lon="-0.34538143"><ele>7.0</ele><time>2022-11-04T14:09:29.0000000+00:00</time></trkpt><trkpt lat="39.45253252" lon="-0.34538143"><ele>7.0</ele><time>2022-11-04T14:09:30.0000000+00:00</time></trkpt><trkpt lat="39.45253244" lon="-0.34538143"><ele>7.0</ele><time>2022-11-04T14:09:31.0000000+00:00</time></trkpt><trkpt lat="39.45253235" lon="-0.34538143"><ele>7.0</ele><time>2022-11-04T14:09:32.0000000+00:00</time></trkpt><trkpt lat="39.45253235" lon="-0.34538135"><ele>7.0</ele><time>2022-11-04T14:09:33.0000000+00:00</time></trkpt><trkpt lat="39.45253227" lon="-0.34538127"><ele>7.0</ele><time>2022-11-04T14:09:34.0000000+00:00</time></trkpt><trkpt lat="39.45253227" lon="-0.34538118"><ele>7.0</ele><time>2022-11-04T14:09:35.0000000+00:00</time></trkpt><trkpt lat="39.45253235" lon="-0.34538118"><ele>7.0</ele><time>2022-11-04T14:09:36.0000000+00:00</time></trkpt><trkpt lat="39.45253244" lon="-0.34538118"><ele>7.0</ele><time>2022-11-04T14:09:37.0000000+00:00</time></trkpt><trkpt lat="39.45253252" lon="-0.34538118"><ele>7.0</ele><time>2022-11-04T14:09:38.0000000+00:00</time></trkpt><trkpt lat="39.4525326" lon="-0.34538118"><ele>7.0</ele><time>2022-11-04T14:09:39.0000000+00:00</time></trkpt><trkpt lat="39.4525326" lon="-0.3453811"><ele>7.0</ele><time>2022-11-04T14:09:40.0000000+00:00</time></trkpt><trkpt lat="39.4525326" lon="-0.34538101"><ele>7.0</ele><time>2022-11-04T14:09:41.0000000+00:00</time></trkpt><trkpt lat="39.4525326" lon="-0.34538101"><ele>7.0</ele><time>2022-11-04T14:09:42.0000000+00:00</time></trkpt><trkpt lat="39.4525326" lon="-0.34538093"><ele>7.0</ele><time>2022-11-04T14:09:43.0000000+00:00</time></trkpt><trkpt lat="39.45253269" lon="-0.34538085"><ele>7.0</ele><time>2022-11-04T14:09:44.0000000+00:00</time></trkpt><trkpt lat="39.4525326" lon="-0.34538076"><ele>7.0</ele><time>2022-11-04T14:09:45.0000000+00:00</time></trkpt><trkpt lat="39.45253252" lon="-0.34538068"><ele>7.0</ele><time>2022-11-04T14:09:46.0000000+00:00</time></trkpt><trkpt lat="39.45253244" lon="-0.3453806"><ele>7.0</ele><time>2022-11-04T14:09:47.0000000+00:00</time></trkpt><trkpt lat="39.45253227" lon="-0.3453806"><ele>7.0</ele><time>2022-11-04T14:09:48.0000000+00:00</time></trkpt><trkpt lat="39.45253219" lon="-0.3453806"><ele>7.0</ele><time>2022-11-04T14:09:49.0000000+00:00</time></trkpt><trkpt lat="39.4525321" lon="-0.34538051"><ele>7.0</ele><time>2022-11-04T14:09:50.0000000+00:00</time></trkpt><trkpt lat="39.45253219" lon="-0.34538043"><ele>7.0</ele><time>2022-11-04T14:09:51.0000000+00:00</time></trkpt><trkpt lat="39.45253219" lon="-0.34538034"><ele>7.0</ele><time>2022-11-04T14:09:52.0000000+00:00</time></trkpt><trkpt lat="39.45253219" lon="-0.34538026"><ele>7.0</ele><time>2022-11-04T14:09:53.0000000+00:00</time></trkpt><trkpt lat="39.4525321" lon="-0.34538018"><ele>7.0</ele><time>2022-11-04T14:09:54.0000000+00:00</time></trkpt><trkpt lat="39.45253219" lon="-0.34538009"><ele>7.0</ele><time>2022-11-04T14:09:55.0000000+00:00</time></trkpt><trkpt lat="39.45253219" lon="-0.34538001"><ele>7.0</ele><time>2022-11-04T14:09:56.0000000+00:00</time></trkpt><trkpt lat="39.45253219" lon="-0.34537992"><ele>7.0</ele><time>2022-11-04T14:09:57.0000000+00:00</time></trkpt><trkpt lat="39.4525321" lon="-0.34537992"><ele>7.0</ele><time>2022-11-04T14:09:58.0000000+00:00</time></trkpt><trkpt lat="39.4525321" lon="-0.34537984"><ele>7.0</ele><time>2022-11-04T14:09:59.0000000+00:00</time></trkpt><trkpt lat="39.4525321" lon="-0.34537976"><ele>7.0</ele><time>2022-11-04T14:10:00.0000000+00:00</time></trkpt><trkpt lat="39.45253202" lon="-0.34537976"><ele>7.0</ele><time>2022-11-04T14:10:01.0000000+00:00</time></trkpt><trkpt lat="39.45253193" lon="-0.34537967"><ele>7.0</ele><time>2022-11-04T14:10:02.0000000+00:00</time></trkpt><trkpt lat="39.45253185" lon="-0.34537967"><ele>7.0</ele><time>2022-11-04T14:10:03.0000000+00:00</time></trkpt><trkpt lat="39.45253177" lon="-0.34537959"><ele>7.0</ele><time>2022-11-04T14:10:04.0000000+00:00</time></trkpt><trkpt lat="39.45253185" lon="-0.34537959"><ele>7.0</ele><time>2022-11-04T14:10:05.0000000+00:00</time></trkpt><trkpt lat="39.45253185" lon="-0.34537951"><ele>7.0</ele><time>2022-11-04T14:10:06.0000000+00:00</time></trkpt><trkpt lat="39.45253193" lon="-0.34537942"><ele>7.0</ele><time>2022-11-04T14:10:07.0000000+00:00</time></trkpt><trkpt lat="39.45253193" lon="-0.34537934"><ele>7.0</ele><time>2022-11-04T14:10:08.0000000+00:00</time></trkpt><trkpt lat="39.45253202" lon="-0.34537934"><ele>7.0</ele><time>2022-11-04T14:10:09.0000000+00:00</time></trkpt><trkpt lat="39.45253193" lon="-0.34537925"><ele>7.0</ele><time>2022-11-04T14:10:10.0000000+00:00</time></trkpt><trkpt lat="39.45253193" lon="-0.34537917"><ele>7.0</ele><time>2022-11-04T14:10:11.0000000+00:00</time></trkpt><trkpt lat="39.45253185" lon="-0.34537917"><ele>7.0</ele><time>2022-11-04T14:10:12.0000000+00:00</time></trkpt><trkpt lat="39.45253177" lon="-0.34537917"><ele>7.0</ele><time>2022-11-04T14:10:13.0000000+00:00</time></trkpt><trkpt lat="39.45253168" lon="-0.34537909"><ele>7.0</ele><time>2022-11-04T14:10:14.0000000+00:00</time></trkpt><trkpt lat="39.45253168" lon="-0.34537909"><ele>7.0</ele><time>2022-11-04T14:10:15.0000000+00:00</time></trkpt><trkpt lat="39.4525316" lon="-0.345379"><ele>7.0</ele><time>2022-11-04T14:10:16.0000000+00:00</time></trkpt><trkpt lat="39.4525316" lon="-0.34537892"><ele>7.0</ele><time>2022-11-04T14:10:17.0000000+00:00</time></trkpt><trkpt lat="39.45253152" lon="-0.34537892"><ele>7.0</ele><time>2022-11-04T14:10:18.0000000+00:00</time></trkpt><trkpt lat="39.45253143" lon="-0.34537875"><ele>7.0</ele><time>2022-11-04T14:10:19.0000000+00:00</time></trkpt><trkpt lat="39.45253135" lon="-0.34537858"><ele>7.0</ele><time>2022-11-04T14:10:20.0000000+00:00</time></trkpt><trkpt lat="39.45253126" lon="-0.3453785"><ele>9.8</ele><time>2022-11-04T14:10:21.0000000+00:00</time></trkpt><trkpt lat="39.45253118" lon="-0.34537842"><ele>9.8</ele><time>2022-11-04T14:10:22.0000000+00:00</time></trkpt><trkpt lat="39.4525311" lon="-0.34537825"><ele>9.8</ele><time>2022-11-04T14:10:23.0000000+00:00</time></trkpt><trkpt lat="39.45253101" lon="-0.34537816"><ele>9.8</ele><time>2022-11-04T14:10:24.0000000+00:00</time></trkpt><trkpt lat="39.45253093" lon="-0.34537808"><ele>9.8</ele><time>2022-11-04T14:10:25.0000000+00:00</time></trkpt><trkpt lat="39.45253093" lon="-0.345378"><ele>10.0</ele><time>2022-11-04T14:10:26.0000000+00:00</time></trkpt><trkpt lat="39.45253076" lon="-0.345378"><ele>10.2</ele><time>2022-11-04T14:10:27.0000000+00:00</time></trkpt><trkpt lat="39.45253076" lon="-0.345378"><ele>10.4</ele><time>2022-11-04T14:10:28.0000000+00:00</time></trkpt><trkpt lat="39.45253068" lon="-0.345378"><ele>10.4</ele><time>2022-11-04T14:10:29.0000000+00:00</time></trkpt><trkpt lat="39.45252062" lon="-0.34536995"><ele>10.4</ele><time>2022-11-04T14:10:30.0000000+00:00</time></trkpt><trkpt lat="39.45251282" lon="-0.34534757"><ele>10.4</ele><time>2022-11-04T14:10:31.0000000+00:00</time></trkpt><trkpt lat="39.45250394" lon="-0.34532502"><ele>10.6</ele><time>2022-11-04T14:10:32.0000000+00:00</time></trkpt><trkpt lat="39.45248516" lon="-0.3453065"><ele>10.6</ele><time>2022-11-04T14:10:33.0000000+00:00</time></trkpt><trkpt lat="39.45246295" lon="-0.34529585"><ele>10.4</ele><time>2022-11-04T14:10:34.0000000+00:00</time></trkpt><trkpt lat="39.45244275" lon="-0.34529032"><ele>10.4</ele><time>2022-11-04T14:10:35.0000000+00:00</time></trkpt><trkpt lat="39.45242741" lon="-0.34528613"><ele>10.4</ele><time>2022-11-04T14:10:36.0000000+00:00</time></trkpt><trkpt lat="39.45241434" lon="-0.34528026"><ele>10.4</ele><time>2022-11-04T14:10:37.0000000+00:00</time></trkpt><trkpt lat="39.45240084" lon="-0.34527331"><ele>10.2</ele><time>2022-11-04T14:10:38.0000000+00:00</time></trkpt><trkpt lat="39.45238324" lon="-0.34526409"><ele>11.4</ele><time>2022-11-04T14:10:39.0000000+00:00</time></trkpt><trkpt lat="39.45237595" lon="-0.34526819"><ele>11.4</ele><time>2022-11-04T14:10:40.0000000+00:00</time></trkpt><trkpt lat="39.45237109" lon="-0.34527523"><ele>11.4</ele><time>2022-11-04T14:10:41.0000000+00:00</time></trkpt><trkpt lat="39.45236505" lon="-0.34527498"><ele>11.4</ele><time>2022-11-04T14:10:42.0000000+00:00</time></trkpt><trkpt lat="39.45235902" lon="-0.34527616"><ele>11.2</ele><time>2022-11-04T14:10:43.0000000+00:00</time></trkpt><trkpt lat="39.4523555" lon="-0.34527859"><ele>11.2</ele><time>2022-11-04T14:10:44.0000000+00:00</time></trkpt><trkpt lat="39.4523477" lon="-0.34527557"><ele>11.2</ele><time>2022-11-04T14:10:45.0000000+00:00</time></trkpt><trkpt lat="39.45233638" lon="-0.34527188"><ele>11.2</ele><time>2022-11-04T14:10:46.0000000+00:00</time></trkpt><trkpt lat="39.45232591" lon="-0.34527356"><ele>11.2</ele><time>2022-11-04T14:10:47.0000000+00:00</time></trkpt><trkpt lat="39.4523249" lon="-0.34528253"><ele>11.2</ele><time>2022-11-04T14:10:48.0000000+00:00</time></trkpt><trkpt lat="39.45232758" lon="-0.34528974"><ele>11.2</ele><time>2022-11-04T14:10:49.0000000+00:00</time></trkpt><trkpt lat="39.45233136" lon="-0.34529476"><ele>11.2</ele><time>2022-11-04T14:10:50.0000000+00:00</time></trkpt><trkpt lat="39.45233764" lon="-0.34530147"><ele>11.2</ele><time>2022-11-04T14:10:51.0000000+00:00</time></trkpt><trkpt lat="39.45234376" lon="-0.34531538"><ele>11.2</ele><time>2022-11-04T14:10:52.0000000+00:00</time></trkpt><trkpt lat="39.4523482" lon="-0.34532988"><ele>11.2</ele><time>2022-11-04T14:10:53.0000000+00:00</time></trkpt><trkpt lat="39.45235189" lon="-0.34534187"><ele>11.2</ele><time>2022-11-04T14:10:54.0000000+00:00</time></trkpt><trkpt lat="39.45235625" lon="-0.34535335"><ele>11.2</ele><time>2022-11-04T14:10:55.0000000+00:00</time></trkpt><trkpt lat="39.45236589" lon="-0.34533014"><ele>11.2</ele><time>2022-11-04T14:10:56.0000000+00:00</time></trkpt><trkpt lat="39.45237637" lon="-0.3453003"><ele>11.4</ele><time>2022-11-04T14:10:57.0000000+00:00</time></trkpt><trkpt lat="39.45238391" lon="-0.34527792"><ele>11.4</ele><time>2022-11-04T14:10:58.0000000+00:00</time></trkpt><trkpt lat="39.45238668" lon="-0.34525545"><ele>11.4</ele><time>2022-11-04T14:10:59.0000000+00:00</time></trkpt><trkpt lat="39.45238961" lon="-0.34523374"><ele>11.4</ele><time>2022-11-04T14:11:00.0000000+00:00</time></trkpt><trkpt lat="39.45237578" lon="-0.34525235"><ele>11.2</ele><time>2022-11-04T14:11:01.0000000+00:00</time></trkpt><trkpt lat="39.45236933" lon="-0.34526258"><ele>11.4</ele><time>2022-11-04T14:11:02.0000000+00:00</time></trkpt><trkpt lat="39.45237201" lon="-0.34528211"><ele>11.4</ele><time>2022-11-04T14:11:03.0000000+00:00</time></trkpt><trkpt lat="39.45237863" lon="-0.34529091"><ele>11.4</ele><time>2022-11-04T14:11:04.0000000+00:00</time></trkpt><trkpt lat="39.45237955" lon="-0.34529032"><ele>11.4</ele><time>2022-11-04T14:11:05.0000000+00:00</time></trkpt><trkpt lat="39.45238207" lon="-0.34530407"><ele>11.4</ele><time>2022-11-04T14:11:06.0000000+00:00</time></trkpt><trkpt lat="39.45238248" lon="-0.34530189"><ele>11.4</ele><time>2022-11-04T14:11:07.0000000+00:00</time></trkpt><trkpt lat="39.45238215" lon="-0.34529979"><ele>11.4</ele><time>2022-11-04T14:11:08.0000000+00:00</time></trkpt><trkpt lat="39.45237419" lon="-0.34531756"><ele>11.4</ele><time>2022-11-04T14:11:09.0000000+00:00</time></trkpt><trkpt lat="39.45236832" lon="-0.34533751"><ele>11.2</ele><time>2022-11-04T14:11:10.0000000+00:00</time></trkpt><trkpt lat="39.45236388" lon="-0.34534833"><ele>11.2</ele><time>2022-11-04T14:11:11.0000000+00:00</time></trkpt><trkpt lat="39.45236438" lon="-0.34536065"><ele>11.2</ele><time>2022-11-04T14:11:12.0000000+00:00</time></trkpt><trkpt lat="39.45236421" lon="-0.34536735"><ele>11.2</ele><time>2022-11-04T14:11:13.0000000+00:00</time></trkpt><trkpt lat="39.45236589" lon="-0.3453842"><ele>11.0</ele><time>2022-11-04T14:11:14.0000000+00:00</time></trkpt><trkpt lat="39.45237452" lon="-0.34538906"><ele>11.0</ele><time>2022-11-04T14:11:15.0000000+00:00</time></trkpt><trkpt lat="39.45237964" lon="-0.34537473"><ele>11.0</ele><time>2022-11-04T14:11:16.0000000+00:00</time></trkpt><trkpt lat="39.45239221" lon="-0.3453531"><ele>11.0</ele><time>2022-11-04T14:11:17.0000000+00:00</time></trkpt><trkpt lat="39.45239766" lon="-0.34531773"><ele>11.4</ele><time>2022-11-04T14:11:18.0000000+00:00</time></trkpt><trkpt lat="39.45240495" lon="-0.34531396"><ele>11.4</ele><time>2022-11-04T14:11:19.0000000+00:00</time></trkpt><trkpt lat="39.45241786" lon="-0.34530709"><ele>11.4</ele><time>2022-11-04T14:11:20.0000000+00:00</time></trkpt><trkpt lat="39.45243018" lon="-0.34528462"><ele>10.4</ele><time>2022-11-04T14:11:21.0000000+00:00</time></trkpt><trkpt lat="39.45244099" lon="-0.34526962"><ele>10.4</ele><time>2022-11-04T14:11:22.0000000+00:00</time></trkpt><trkpt lat="39.45244962" lon="-0.34525981"><ele>10.4</ele><time>2022-11-04T14:11:23.0000000+00:00</time></trkpt><trkpt lat="39.45245063" lon="-0.34525403"><ele>10.4</ele><time>2022-11-04T14:11:24.0000000+00:00</time></trkpt><trkpt lat="39.45245029" lon="-0.34523726"><ele>10.4</ele><time>2022-11-04T14:11:25.0000000+00:00</time></trkpt><trkpt lat="39.45245055" lon="-0.34522578"><ele>10.4</ele><time>2022-11-04T14:11:26.0000000+00:00</time></trkpt><trkpt lat="39.45244795" lon="-0.34521673"><ele>10.4</ele><time>2022-11-04T14:11:27.0000000+00:00</time></trkpt><trkpt lat="39.45244141" lon="-0.34521011"><ele>10.2</ele><time>2022-11-04T14:11:28.0000000+00:00</time></trkpt><trkpt lat="39.45243437" lon="-0.34520583"><ele>10.2</ele><time>2022-11-04T14:11:29.0000000+00:00</time></trkpt><trkpt lat="39.45242423" lon="-0.34520617"><ele>10.2</ele><time>2022-11-04T14:11:30.0000000+00:00</time></trkpt><trkpt lat="39.45242255" lon="-0.34520902"><ele>10.2</ele><time>2022-11-04T14:11:31.0000000+00:00</time></trkpt><trkpt lat="39.45242096" lon="-0.34521254"><ele>10.2</ele><time>2022-11-04T14:11:32.0000000+00:00</time></trkpt><trkpt lat="39.45243764" lon="-0.34521941"><ele>10.2</ele><time>2022-11-04T14:11:33.0000000+00:00</time></trkpt><trkpt lat="39.4524482" lon="-0.34522494"><ele>10.4</ele><time>2022-11-04T14:11:34.0000000+00:00</time></trkpt><trkpt lat="39.45246178" lon="-0.34523869"><ele>10.4</ele><time>2022-11-04T14:11:35.0000000+00:00</time></trkpt><trkpt lat="39.45245901" lon="-0.34525462"><ele>10.4</ele><time>2022-11-04T14:11:36.0000000+00:00</time></trkpt><trkpt lat="39.4524347" lon="-0.34527037"><ele>10.4</ele><time>2022-11-04T14:11:37.0000000+00:00</time></trkpt><trkpt lat="39.45239321" lon="-0.3453101"><ele>11.4</ele><time>2022-11-04T14:11:38.0000000+00:00</time></trkpt><trkpt lat="39.45239363" lon="-0.34530021"><ele>11.4</ele><time>2022-11-04T14:11:39.0000000+00:00</time></trkpt><trkpt lat="39.45239824" lon="-0.34532988"><ele>11.4</ele><time>2022-11-04T14:11:40.0000000+00:00</time></trkpt><trkpt lat="39.45240051" lon="-0.3453619"><ele>11.4</ele><time>2022-11-04T14:11:41.0000000+00:00</time></trkpt><trkpt lat="39.45239883" lon="-0.34537146"><ele>11.4</ele><time>2022-11-04T14:11:42.0000000+00:00</time></trkpt><trkpt lat="39.452399" lon="-0.34537867"><ele>11.2</ele><time>2022-11-04T14:11:43.0000000+00:00</time></trkpt><trkpt lat="39.45240352" lon="-0.34538621"><ele>11.2</ele><time>2022-11-04T14:11:44.0000000+00:00</time></trkpt><trkpt lat="39.45241367" lon="-0.34539208"><ele>11.2</ele><time>2022-11-04T14:11:45.0000000+00:00</time></trkpt><trkpt lat="39.45241937" lon="-0.34540054"><ele>11.2</ele><time>2022-11-04T14:11:46.0000000+00:00</time></trkpt><trkpt lat="39.45242213" lon="-0.34542359"><ele>11.2</ele><time>2022-11-04T14:11:47.0000000+00:00</time></trkpt><trkpt lat="39.45242481" lon="-0.34543156"><ele>11.2</ele><time>2022-11-04T14:11:48.0000000+00:00</time></trkpt><trkpt lat="39.45243135" lon="-0.34540541"><ele>11.2</ele><time>2022-11-04T14:11:49.0000000+00:00</time></trkpt><trkpt lat="39.45244493" lon="-0.34537624"><ele>11.2</ele><time>2022-11-04T14:11:50.0000000+00:00</time></trkpt><trkpt lat="39.45245063" lon="-0.34537523"><ele>11.2</ele><time>2022-11-04T14:11:51.0000000+00:00</time></trkpt><trkpt lat="39.45244744" lon="-0.34538378"><ele>11.4</ele><time>2022-11-04T14:11:52.0000000+00:00</time></trkpt><trkpt lat="39.45244401" lon="-0.34538294"><ele>11.4</ele><time>2022-11-04T14:11:53.0000000+00:00</time></trkpt><trkpt lat="39.45243713" lon="-0.34537288"><ele>11.4</ele><time>2022-11-04T14:11:54.0000000+00:00</time></trkpt><trkpt lat="39.45243688" lon="-0.34539702"><ele>11.2</ele><time>2022-11-04T14:11:55.0000000+00:00</time></trkpt><trkpt lat="39.4524332" lon="-0.34539895"><ele>11.2</ele><time>2022-11-04T14:11:56.0000000+00:00</time></trkpt><trkpt lat="39.45243026" lon="-0.34540859"><ele>11.2</ele><time>2022-11-04T14:11:57.0000000+00:00</time></trkpt><trkpt lat="39.45242372" lon="-0.34540784"><ele>11.2</ele><time>2022-11-04T14:11:58.0000000+00:00</time></trkpt><trkpt lat="39.45241861" lon="-0.34539526"><ele>11.2</ele><time>2022-11-04T14:11:59.0000000+00:00</time></trkpt><trkpt lat="39.45241325" lon="-0.34539853"><ele>11.2</ele><time>2022-11-04T14:12:00.0000000+00:00</time></trkpt><trkpt lat="39.45240788" lon="-0.34539141"><ele>11.2</ele><time>2022-11-04T14:12:01.0000000+00:00</time></trkpt><trkpt lat="39.45240797" lon="-0.34539007"><ele>11.2</ele><time>2022-11-04T14:12:02.0000000+00:00</time></trkpt><trkpt lat="39.45241937" lon="-0.34539979"><ele>11.2</ele><time>2022-11-04T14:12:03.0000000+00:00</time></trkpt><trkpt lat="39.45242029" lon="-0.34541069"><ele>11.2</ele><time>2022-11-04T14:12:04.0000000+00:00</time></trkpt><trkpt lat="39.45242356" lon="-0.34541471"><ele>11.2</ele><time>2022-11-04T14:12:05.0000000+00:00</time></trkpt><trkpt lat="39.45243001" lon="-0.34541044"><ele>11.2</ele><time>2022-11-04T14:12:06.0000000+00:00</time></trkpt><trkpt lat="39.45243328" lon="-0.34539912"><ele>11.2</ele><time>2022-11-04T14:12:07.0000000+00:00</time></trkpt><trkpt lat="39.45243621" lon="-0.34539124"><ele>11.2</ele><time>2022-11-04T14:12:08.0000000+00:00</time></trkpt><trkpt lat="39.45243177" lon="-0.34537012"><ele>11.4</ele><time>2022-11-04T14:12:09.0000000+00:00</time></trkpt><trkpt lat="39.4524332" lon="-0.34537632"><ele>11.4</ele><time>2022-11-04T14:12:10.0000000+00:00</time></trkpt><trkpt lat="39.4524311" lon="-0.34537909"><ele>11.4</ele><time>2022-11-04T14:12:11.0000000+00:00</time></trkpt><trkpt lat="39.45242222" lon="-0.34537967"><ele>11.4</ele><time>2022-11-04T14:12:12.0000000+00:00</time></trkpt><trkpt lat="39.45240093" lon="-0.34537104"><ele>11.4</ele><time>2022-11-04T14:12:13.0000000+00:00</time></trkpt><trkpt lat="39.45239422" lon="-0.34536677"><ele>11.4</ele><time>2022-11-04T14:12:14.0000000+00:00</time></trkpt><trkpt lat="39.45237402" lon="-0.34535587"><ele>11.2</ele><time>2022-11-04T14:12:15.0000000+00:00</time></trkpt><trkpt lat="39.45236715" lon="-0.3453293"><ele>11.2</ele><time>2022-11-04T14:12:16.0000000+00:00</time></trkpt><trkpt lat="39.45236656" lon="-0.34529602"><ele>11.4</ele><time>2022-11-04T14:12:17.0000000+00:00</time></trkpt><trkpt lat="39.45238911" lon="-0.34531639"><ele>11.4</ele><time>2022-11-04T14:12:18.0000000+00:00</time></trkpt><trkpt lat="39.45237377" lon="-0.34539443"><ele>11.0</ele><time>2022-11-04T14:12:19.0000000+00:00</time></trkpt><trkpt lat="39.45235432" lon="-0.34542074"><ele>11.0</ele><time>2022-11-04T14:12:20.0000000+00:00</time></trkpt><trkpt lat="39.45234485" lon="-0.34544287"><ele>11.0</ele><time>2022-11-04T14:12:21.0000000+00:00</time></trkpt><trkpt lat="39.45232809" lon="-0.34546215"><ele>11.0</ele><time>2022-11-04T14:12:22.0000000+00:00</time></trkpt><trkpt lat="39.45231568" lon="-0.34549953"><ele>11.0</ele><time>2022-11-04T14:12:23.0000000+00:00</time></trkpt><trkpt lat="39.45233194" lon="-0.34550113"><ele>11.0</ele><time>2022-11-04T14:12:24.0000000+00:00</time></trkpt><trkpt lat="39.4523223" lon="-0.34550641"><ele>11.0</ele><time>2022-11-04T14:12:25.0000000+00:00</time></trkpt><trkpt lat="39.45231794" lon="-0.34551982"><ele>11.0</ele><time>2022-11-04T14:12:26.0000000+00:00</time></trkpt><trkpt lat="39.45231459" lon="-0.34553021"><ele>11.0</ele><time>2022-11-04T14:12:27.0000000+00:00</time></trkpt><trkpt lat="39.45232197" lon="-0.3455458"><ele>11.0</ele><time>2022-11-04T14:12:28.0000000+00:00</time></trkpt><trkpt lat="39.45233127" lon="-0.34555335"><ele>11.0</ele><time>2022-11-04T14:12:29.0000000+00:00</time></trkpt><trkpt lat="39.45234845" lon="-0.3455137"><ele>11.0</ele><time>2022-11-04T14:12:30.0000000+00:00</time></trkpt><trkpt lat="39.45235281" lon="-0.34549912"><ele>11.0</ele><time>2022-11-04T14:12:31.0000000+00:00</time></trkpt><trkpt lat="39.45236228" lon="-0.34548445"><ele>10.8</ele><time>2022-11-04T14:12:32.0000000+00:00</time></trkpt><trkpt lat="39.45237117" lon="-0.34546232"><ele>10.8</ele><time>2022-11-04T14:12:33.0000000+00:00</time></trkpt><trkpt lat="39.4523731" lon="-0.34545654"><ele>10.8</ele><time>2022-11-04T14:12:34.0000000+00:00</time></trkpt><trkpt lat="39.45236606" lon="-0.34545997"><ele>10.8</ele><time>2022-11-04T14:12:35.0000000+00:00</time></trkpt><trkpt lat="39.45235717" lon="-0.345451"><ele>10.8</ele><time>2022-11-04T14:12:36.0000000+00:00</time></trkpt><trkpt lat="39.45234795" lon="-0.3454381"><ele>11.0</ele><time>2022-11-04T14:12:37.0000000+00:00</time></trkpt><trkpt lat="39.45233638" lon="-0.34541421"><ele>11.0</ele><time>2022-11-04T14:12:38.0000000+00:00</time></trkpt><trkpt lat="39.45232809" lon="-0.3453961"><ele>11.0</ele><time>2022-11-04T14:12:39.0000000+00:00</time></trkpt><trkpt lat="39.45232247" lon="-0.34538521"><ele>11.0</ele><time>2022-11-04T14:12:40.0000000+00:00</time></trkpt><trkpt lat="39.45232163" lon="-0.34538596"><ele>11.0</ele><time>2022-11-04T14:12:41.0000000+00:00</time></trkpt><trkpt lat="39.45231987" lon="-0.34538118"><ele>11.0</ele><time>2022-11-04T14:12:42.0000000+00:00</time></trkpt><trkpt lat="39.45232105" lon="-0.34539468"><ele>11.0</ele><time>2022-11-04T14:12:43.0000000+00:00</time></trkpt><trkpt lat="39.45232599" lon="-0.34539702"><ele>11.0</ele><time>2022-11-04T14:12:44.0000000+00:00</time></trkpt><trkpt lat="39.45232222" lon="-0.3453935"><ele>11.0</ele><time>2022-11-04T14:12:45.0000000+00:00</time></trkpt><trkpt lat="39.45232105" lon="-0.34539484"><ele>11.0</ele><time>2022-11-04T14:12:46.0000000+00:00</time></trkpt><trkpt lat="39.45232322" lon="-0.34539778"><ele>11.0</ele><time>2022-11-04T14:12:47.0000000+00:00</time></trkpt><trkpt lat="39.45232767" lon="-0.34540214"><ele>11.0</ele><time>2022-11-04T14:12:48.0000000+00:00</time></trkpt><trkpt lat="39.45234393" lon="-0.34536601"><ele>11.2</ele><time>2022-11-04T14:12:49.0000000+00:00</time></trkpt><trkpt lat="39.45236103" lon="-0.34532595"><ele>11.2</ele><time>2022-11-04T14:12:50.0000000+00:00</time></trkpt><trkpt lat="39.45237167" lon="-0.34530625"><ele>11.4</ele><time>2022-11-04T14:12:51.0000000+00:00</time></trkpt><trkpt lat="39.4523824" lon="-0.3452863"><ele>11.4</ele><time>2022-11-04T14:12:52.0000000+00:00</time></trkpt><trkpt lat="39.45238567" lon="-0.34526752"><ele>11.4</ele><time>2022-11-04T14:12:53.0000000+00:00</time></trkpt><trkpt lat="39.45238869" lon="-0.34525168"><ele>11.4</ele><time>2022-11-04T14:12:54.0000000+00:00</time></trkpt><trkpt lat="39.45239196" lon="-0.34522796"><ele>11.4</ele><time>2022-11-04T14:12:55.0000000+00:00</time></trkpt><trkpt lat="39.45238994" lon="-0.34521111"><ele>11.4</ele><time>2022-11-04T14:12:56.0000000+00:00</time></trkpt><trkpt lat="39.4523798" lon="-0.34520223"><ele>11.4</ele><time>2022-11-04T14:12:57.0000000+00:00</time></trkpt><trkpt lat="39.45235969" lon="-0.34521304"><ele>11.2</ele><time>2022-11-04T14:12:58.0000000+00:00</time></trkpt><trkpt lat="39.45234887" lon="-0.34522519"><ele>11.2</ele><time>2022-11-04T14:12:59.0000000+00:00</time></trkpt><trkpt lat="39.45234125" lon="-0.3452397"><ele>11.2</ele><time>2022-11-04T14:13:00.0000000+00:00</time></trkpt><trkpt lat="39.45233379" lon="-0.3452578"><ele>11.2</ele><time>2022-11-04T14:13:01.0000000+00:00</time></trkpt><trkpt lat="39.45232658" lon="-0.34527859"><ele>11.2</ele><time>2022-11-04T14:13:02.0000000+00:00</time></trkpt><trkpt lat="39.45232214" lon="-0.34530063"><ele>11.2</ele><time>2022-11-04T14:13:03.0000000+00:00</time></trkpt><trkpt lat="39.45232029" lon="-0.34532192"><ele>11.2</ele><time>2022-11-04T14:13:04.0000000+00:00</time></trkpt><trkpt lat="39.45231903" lon="-0.34533952"><ele>11.2</ele><time>2022-11-04T14:13:05.0000000+00:00</time></trkpt><trkpt lat="39.45232549" lon="-0.34535897"><ele>11.2</ele><time>2022-11-04T14:13:06.0000000+00:00</time></trkpt><trkpt lat="39.45232901" lon="-0.34538194"><ele>11.2</ele><time>2022-11-04T14:13:07.0000000+00:00</time></trkpt><trkpt lat="39.45233462" lon="-0.34541756"><ele>11.0</ele><time>2022-11-04T14:13:08.0000000+00:00</time></trkpt><trkpt lat="39.45234359" lon="-0.34546056"><ele>11.0</ele><time>2022-11-04T14:13:09.0000000+00:00</time></trkpt><trkpt lat="39.45234519" lon="-0.34550046"><ele>10.8</ele><time>2022-11-04T14:13:10.0000000+00:00</time></trkpt><trkpt lat="39.45234912" lon="-0.34553172"><ele>10.8</ele><time>2022-11-04T14:13:11.0000000+00:00</time></trkpt><trkpt lat="39.45234745" lon="-0.34555276"><ele>10.8</ele><time>2022-11-04T14:13:12.0000000+00:00</time></trkpt><trkpt lat="39.45234175" lon="-0.3455733"><ele>10.8</ele><time>2022-11-04T14:13:13.0000000+00:00</time></trkpt><trkpt lat="39.45233513" lon="-0.34558713"><ele>10.8</ele><time>2022-11-04T14:13:14.0000000+00:00</time></trkpt><trkpt lat="39.45233697" lon="-0.34560498"><ele>10.8</ele><time>2022-11-04T14:13:15.0000000+00:00</time></trkpt><trkpt lat="39.45233613" lon="-0.34563281"><ele>10.8</ele><time>2022-11-04T14:13:16.0000000+00:00</time></trkpt><trkpt lat="39.45233739" lon="-0.34565242"><ele>10.8</ele><time>2022-11-04T14:13:17.0000000+00:00</time></trkpt><trkpt lat="39.45233722" lon="-0.34566801"><ele>10.6</ele><time>2022-11-04T14:13:18.0000000+00:00</time></trkpt><trkpt lat="39.45232943" lon="-0.34567555"><ele>10.6</ele><time>2022-11-04T14:13:19.0000000+00:00</time></trkpt><trkpt lat="39.45232071" lon="-0.34568075"><ele>10.4</ele><time>2022-11-04T14:13:20.0000000+00:00</time></trkpt><trkpt lat="39.45231711" lon="-0.34569232"><ele>10.4</ele><time>2022-11-04T14:13:21.0000000+00:00</time></trkpt><trkpt lat="39.45231434" lon="-0.34570757"><ele>10.4</ele><time>2022-11-04T14:13:22.0000000+00:00</time></trkpt><trkpt lat="39.45231292" lon="-0.34572878"><ele>10.4</ele><time>2022-11-04T14:13:23.0000000+00:00</time></trkpt><trkpt lat="39.45231057" lon="-0.34574923"><ele>10.4</ele><time>2022-11-04T14:13:24.0000000+00:00</time></trkpt><trkpt lat="39.45230453" lon="-0.34576725"><ele>10.4</ele><time>2022-11-04T14:13:25.0000000+00:00</time></trkpt><trkpt lat="39.45229992" lon="-0.34578142"><ele>10.4</ele><time>2022-11-04T14:13:26.0000000+00:00</time></trkpt><trkpt lat="39.45229649" lon="-0.34579181"><ele>10.2</ele><time>2022-11-04T14:13:27.0000000+00:00</time></trkpt><trkpt lat="39.45229833" lon="-0.34580162"><ele>10.2</ele><time>2022-11-04T14:13:28.0000000+00:00</time></trkpt><trkpt lat="39.45229556" lon="-0.34581629"><ele>10.2</ele><time>2022-11-04T14:13:29.0000000+00:00</time></trkpt><trkpt lat="39.45229012" lon="-0.3458328"><ele>10.0</ele><time>2022-11-04T14:13:30.0000000+00:00</time></trkpt><trkpt lat="39.45229062" lon="-0.34585451"><ele>9.8</ele><time>2022-11-04T14:13:31.0000000+00:00</time></trkpt><trkpt lat="39.4522928" lon="-0.34587228"><ele>9.4</ele><time>2022-11-04T14:13:32.0000000+00:00</time></trkpt><trkpt lat="39.45229531" lon="-0.34589491"><ele>9.4</ele><time>2022-11-04T14:13:33.0000000+00:00</time></trkpt><trkpt lat="39.45229883" lon="-0.34591871"><ele>9.2</ele><time>2022-11-04T14:13:34.0000000+00:00</time></trkpt><trkpt lat="39.45230587" lon="-0.3459395"><ele>9.0</ele><time>2022-11-04T14:13:35.0000000+00:00</time></trkpt><trkpt lat="39.452314" lon="-0.34595341"><ele>9.0</ele><time>2022-11-04T14:13:36.0000000+00:00</time></trkpt><trkpt lat="39.45232381" lon="-0.34596398"><ele>8.8</ele><time>2022-11-04T14:13:37.0000000+00:00</time></trkpt><trkpt lat="39.45233429" lon="-0.34596942"><ele>8.8</ele><time>2022-11-04T14:13:38.0000000+00:00</time></trkpt><trkpt lat="39.45234468" lon="-0.34598292"><ele>8.8</ele><time>2022-11-04T14:13:39.0000000+00:00</time></trkpt><trkpt lat="39.45235801" lon="-0.34599407"><ele>8.8</ele><time>2022-11-04T14:13:40.0000000+00:00</time></trkpt><trkpt lat="39.45237167" lon="-0.3460001"><ele>8.8</ele><time>2022-11-04T14:13:41.0000000+00:00</time></trkpt><trkpt lat="39.45238131" lon="-0.34600144"><ele>8.6</ele><time>2022-11-04T14:13:42.0000000+00:00</time></trkpt><trkpt lat="39.45239288" lon="-0.34600379"><ele>8.8</ele><time>2022-11-04T14:13:43.0000000+00:00</time></trkpt><trkpt lat="39.45240445" lon="-0.34600488"><ele>9.0</ele><time>2022-11-04T14:13:44.0000000+00:00</time></trkpt><trkpt lat="39.45241635" lon="-0.34600228"><ele>9.0</ele><time>2022-11-04T14:13:45.0000000+00:00</time></trkpt><trkpt lat="39.45243135" lon="-0.34599809"><ele>9.2</ele><time>2022-11-04T14:13:46.0000000+00:00</time></trkpt><trkpt lat="39.45244007" lon="-0.34599734"><ele>9.2</ele><time>2022-11-04T14:13:47.0000000+00:00</time></trkpt><trkpt lat="39.45245331" lon="-0.34599993"><ele>9.2</ele><time>2022-11-04T14:13:48.0000000+00:00</time></trkpt><trkpt lat="39.4524632" lon="-0.34600496"><ele>9.2</ele><time>2022-11-04T14:13:49.0000000+00:00</time></trkpt><trkpt lat="39.45247385" lon="-0.34600396"><ele>9.2</ele><time>2022-11-04T14:13:50.0000000+00:00</time></trkpt><trkpt lat="39.45248642" lon="-0.3460022"><ele>9.2</ele><time>2022-11-04T14:13:51.0000000+00:00</time></trkpt><trkpt lat="39.45249941" lon="-0.34600253"><ele>9.2</ele><time>2022-11-04T14:13:52.0000000+00:00</time></trkpt><trkpt lat="39.45251173" lon="-0.34600513"><ele>9.2</ele><time>2022-11-04T14:13:53.0000000+00:00</time></trkpt><trkpt lat="39.45252355" lon="-0.34600756"><ele>9.2</ele><time>2022-11-04T14:13:54.0000000+00:00</time></trkpt><trkpt lat="39.45253319" lon="-0.34600605"><ele>9.2</ele><time>2022-11-04T14:13:55.0000000+00:00</time></trkpt><trkpt lat="39.45254551" lon="-0.34600924"><ele>9.2</ele><time>2022-11-04T14:13:56.0000000+00:00</time></trkpt><trkpt lat="39.4525575" lon="-0.34601376"><ele>9.2</ele><time>2022-11-04T14:13:57.0000000+00:00</time></trkpt><trkpt lat="39.45257125" lon="-0.34601946"><ele>9.2</ele><time>2022-11-04T14:13:58.0000000+00:00</time></trkpt><trkpt lat="39.45258725" lon="-0.34601754"><ele>9.2</ele><time>2022-11-04T14:13:59.0000000+00:00</time></trkpt><trkpt lat="39.45259782" lon="-0.34601527"><ele>9.2</ele><time>2022-11-04T14:14:00.0000000+00:00</time></trkpt><trkpt lat="39.45261106" lon="-0.3460141"><ele>9.4</ele><time>2022-11-04T14:14:01.0000000+00:00</time></trkpt><trkpt lat="39.45262439" lon="-0.34601343"><ele>9.4</ele><time>2022-11-04T14:14:02.0000000+00:00</time></trkpt><trkpt lat="39.45263838" lon="-0.34601351"><ele>9.4</ele><time>2022-11-04T14:14:03.0000000+00:00</time></trkpt><trkpt lat="39.45265171" lon="-0.34602072"><ele>9.6</ele><time>2022-11-04T14:14:04.0000000+00:00</time></trkpt><trkpt lat="39.45265976" lon="-0.34603438"><ele>9.6</ele><time>2022-11-04T14:14:05.0000000+00:00</time></trkpt><trkpt lat="39.45266889" lon="-0.34604117"><ele>9.4</ele><time>2022-11-04T14:14:06.0000000+00:00</time></trkpt><trkpt lat="39.45267786" lon="-0.34604729"><ele>9.4</ele><time>2022-11-04T14:14:07.0000000+00:00</time></trkpt><trkpt lat="39.4526901" lon="-0.34604939"><ele>9.4</ele><time>2022-11-04T14:14:08.0000000+00:00</time></trkpt><trkpt lat="39.45270293" lon="-0.3460524"><ele>9.4</ele><time>2022-11-04T14:14:09.0000000+00:00</time></trkpt><trkpt lat="39.45271608" lon="-0.34605316"><ele>9.4</ele><time>2022-11-04T14:14:10.0000000+00:00</time></trkpt><trkpt lat="39.45272991" lon="-0.34604855"><ele>9.4</ele><time>2022-11-04T14:14:11.0000000+00:00</time></trkpt><trkpt lat="39.45274467" lon="-0.34604528"><ele>9.4</ele><time>2022-11-04T14:14:12.0000000+00:00</time></trkpt><trkpt lat="39.45276126" lon="-0.34604369"><ele>9.6</ele><time>2022-11-04T14:14:13.0000000+00:00</time></trkpt><trkpt lat="39.45277694" lon="-0.34604285"><ele>9.6</ele><time>2022-11-04T14:14:14.0000000+00:00</time></trkpt><trkpt lat="39.45278758" lon="-0.34603916"><ele>9.6</ele><time>2022-11-04T14:14:15.0000000+00:00</time></trkpt><trkpt lat="39.45279772" lon="-0.3460343"><ele>9.4</ele><time>2022-11-04T14:14:16.0000000+00:00</time></trkpt><trkpt lat="39.45281005" lon="-0.34602793"><ele>9.4</ele><time>2022-11-04T14:14:17.0000000+00:00</time></trkpt><trkpt lat="39.45282304" lon="-0.34602198"><ele>9.4</ele><time>2022-11-04T14:14:18.0000000+00:00</time></trkpt><trkpt lat="39.45283561" lon="-0.34602039"><ele>9.4</ele><time>2022-11-04T14:14:19.0000000+00:00</time></trkpt><trkpt lat="39.45284684" lon="-0.34602148"><ele>9.4</ele><time>2022-11-04T14:14:20.0000000+00:00</time></trkpt><trkpt lat="39.45285874" lon="-0.34602257"><ele>9.2</ele><time>2022-11-04T14:14:21.0000000+00:00</time></trkpt><trkpt lat="39.45287132" lon="-0.3460286"><ele>9.4</ele><time>2022-11-04T14:14:22.0000000+00:00</time></trkpt><trkpt lat="39.45288339" lon="-0.34603573"><ele>9.4</ele><time>2022-11-04T14:14:23.0000000+00:00</time></trkpt><trkpt lat="39.45289554" lon="-0.34603589"><ele>9.4</ele><time>2022-11-04T14:14:24.0000000+00:00</time></trkpt><trkpt lat="39.4529082" lon="-0.34602525"><ele>9.2</ele><time>2022-11-04T14:14:25.0000000+00:00</time></trkpt><trkpt lat="39.45292387" lon="-0.34601192"><ele>9.2</ele><time>2022-11-04T14:14:26.0000000+00:00</time></trkpt><trkpt lat="39.45294022" lon="-0.34600128"><ele>9.2</ele><time>2022-11-04T14:14:27.0000000+00:00</time></trkpt><trkpt lat="39.45295765" lon="-0.3460027"><ele>9.2</ele><time>2022-11-04T14:14:28.0000000+00:00</time></trkpt><trkpt lat="39.45297056" lon="-0.34600848"><ele>9.2</ele><time>2022-11-04T14:14:29.0000000+00:00</time></trkpt><trkpt lat="39.45298296" lon="-0.3460115"><ele>9.2</ele><time>2022-11-04T14:14:30.0000000+00:00</time></trkpt><trkpt lat="39.4529885" lon="-0.34602357"><ele>9.0</ele><time>2022-11-04T14:14:31.0000000+00:00</time></trkpt><trkpt lat="39.45300652" lon="-0.3460255"><ele>9.0</ele><time>2022-11-04T14:14:32.0000000+00:00</time></trkpt><trkpt lat="39.45303024" lon="-0.34602382"><ele>9.0</ele><time>2022-11-04T14:14:33.0000000+00:00</time></trkpt><trkpt lat="39.45304818" lon="-0.34601787"><ele>9.0</ele><time>2022-11-04T14:14:34.0000000+00:00</time></trkpt><trkpt lat="39.45306343" lon="-0.34601259"><ele>9.0</ele><time>2022-11-04T14:14:35.0000000+00:00</time></trkpt><trkpt lat="39.45307634" lon="-0.34600505"><ele>9.0</ele><time>2022-11-04T14:14:36.0000000+00:00</time></trkpt><trkpt lat="39.45309151" lon="-0.34599474"><ele>9.0</ele><time>2022-11-04T14:14:37.0000000+00:00</time></trkpt><trkpt lat="39.45310207" lon="-0.34598401"><ele>9.0</ele><time>2022-11-04T14:14:38.0000000+00:00</time></trkpt><trkpt lat="39.4531133" lon="-0.34597311"><ele>9.0</ele><time>2022-11-04T14:14:39.0000000+00:00</time></trkpt><trkpt lat="39.45312873" lon="-0.34596616"><ele>9.0</ele><time>2022-11-04T14:14:40.0000000+00:00</time></trkpt><trkpt lat="39.45314515" lon="-0.34595911"><ele>9.2</ele><time>2022-11-04T14:14:41.0000000+00:00</time></trkpt><trkpt lat="39.45315714" lon="-0.34595811"><ele>9.2</ele><time>2022-11-04T14:14:42.0000000+00:00</time></trkpt><trkpt lat="39.45316913" lon="-0.34595568"><ele>9.2</ele><time>2022-11-04T14:14:43.0000000+00:00</time></trkpt><trkpt lat="39.45318271" lon="-0.34595191"><ele>9.2</ele><time>2022-11-04T14:14:44.0000000+00:00</time></trkpt><trkpt lat="39.45319176" lon="-0.34594939"><ele>9.2</ele><time>2022-11-04T14:14:45.0000000+00:00</time></trkpt><trkpt lat="39.45320508" lon="-0.34594403"><ele>9.2</ele><time>2022-11-04T14:14:46.0000000+00:00</time></trkpt><trkpt lat="39.45321615" lon="-0.34593975"><ele>9.2</ele><time>2022-11-04T14:14:47.0000000+00:00</time></trkpt><trkpt lat="39.45322663" lon="-0.34593623"><ele>9.2</ele><time>2022-11-04T14:14:48.0000000+00:00</time></trkpt><trkpt lat="39.45323844" lon="-0.34593087"><ele>9.4</ele><time>2022-11-04T14:14:49.0000000+00:00</time></trkpt><trkpt lat="39.45325085" lon="-0.34593439"><ele>9.6</ele><time>2022-11-04T14:14:50.0000000+00:00</time></trkpt><trkpt lat="39.45326217" lon="-0.34593514"><ele>9.8</ele><time>2022-11-04T14:14:51.0000000+00:00</time></trkpt><trkpt lat="39.45327541" lon="-0.34593925"><ele>10.0</ele><time>2022-11-04T14:14:52.0000000+00:00</time></trkpt><trkpt lat="39.45328589" lon="-0.34594461"><ele>10.2</ele><time>2022-11-04T14:14:53.0000000+00:00</time></trkpt><trkpt lat="39.45329536" lon="-0.34594922"><ele>10.4</ele><time>2022-11-04T14:14:54.0000000+00:00</time></trkpt><trkpt lat="39.45330374" lon="-0.34595082"><ele>10.4</ele><time>2022-11-04T14:14:55.0000000+00:00</time></trkpt><trkpt lat="39.45331321" lon="-0.34595526"><ele>10.6</ele><time>2022-11-04T14:14:56.0000000+00:00</time></trkpt><trkpt lat="39.4533226" lon="-0.34595291"><ele>10.6</ele><time>2022-11-04T14:14:57.0000000+00:00</time></trkpt><trkpt lat="39.45333526" lon="-0.34594981"><ele>10.8</ele><time>2022-11-04T14:14:58.0000000+00:00</time></trkpt><trkpt lat="39.45334925" lon="-0.34594269"><ele>11.2</ele><time>2022-11-04T14:14:59.0000000+00:00</time></trkpt><trkpt lat="39.45335948" lon="-0.34594403"><ele>11.0</ele><time>2022-11-04T14:15:00.0000000+00:00</time></trkpt><trkpt lat="39.45337138" lon="-0.34594168"><ele>11.0</ele><time>2022-11-04T14:15:01.0000000+00:00</time></trkpt><trkpt lat="39.45337867" lon="-0.34594051"><ele>10.8</ele><time>2022-11-04T14:15:02.0000000+00:00</time></trkpt><trkpt lat="39.45339108" lon="-0.34593598"><ele>10.8</ele><time>2022-11-04T14:15:03.0000000+00:00</time></trkpt><trkpt lat="39.45340248" lon="-0.34593372"><ele>10.6</ele><time>2022-11-04T14:15:04.0000000+00:00</time></trkpt><trkpt lat="39.45341715" lon="-0.34593137"><ele>10.6</ele><time>2022-11-04T14:15:05.0000000+00:00</time></trkpt><trkpt lat="39.45342737" lon="-0.34593062"><ele>10.6</ele><time>2022-11-04T14:15:06.0000000+00:00</time></trkpt><trkpt lat="39.4534402" lon="-0.34592559"><ele>10.6</ele><time>2022-11-04T14:15:07.0000000+00:00</time></trkpt><trkpt lat="39.45344774" lon="-0.34592358"><ele>10.6</ele><time>2022-11-04T14:15:08.0000000+00:00</time></trkpt><trkpt lat="39.45345906" lon="-0.34591913"><ele>10.8</ele><time>2022-11-04T14:15:09.0000000+00:00</time></trkpt><trkpt lat="39.45347121" lon="-0.34591083"><ele>10.8</ele><time>2022-11-04T14:15:10.0000000+00:00</time></trkpt><trkpt lat="39.45348227" lon="-0.3459017"><ele>10.8</ele><time>2022-11-04T14:15:11.0000000+00:00</time></trkpt><trkpt lat="39.45349443" lon="-0.34589524"><ele>10.8</ele><time>2022-11-04T14:15:12.0000000+00:00</time></trkpt><trkpt lat="39.45350206" lon="-0.34588443"><ele>10.8</ele><time>2022-11-04T14:15:13.0000000+00:00</time></trkpt><trkpt lat="39.45351756" lon="-0.34587169"><ele>10.8</ele><time>2022-11-04T14:15:14.0000000+00:00</time></trkpt><trkpt lat="39.45352745" lon="-0.34586574"><ele>10.8</ele><time>2022-11-04T14:15:15.0000000+00:00</time></trkpt><trkpt lat="39.45352963" lon="-0.34586054"><ele>10.8</ele><time>2022-11-04T14:15:16.0000000+00:00</time></trkpt><trkpt lat="39.45352955" lon="-0.34585853"><ele>10.8</ele><time>2022-11-04T14:15:17.0000000+00:00</time></trkpt><trkpt lat="39.45352821" lon="-0.34586121"><ele>10.8</ele><time>2022-11-04T14:15:18.0000000+00:00</time></trkpt><trkpt lat="39.45352972" lon="-0.34587069"><ele>10.6</ele><time>2022-11-04T14:15:19.0000000+00:00</time></trkpt><trkpt lat="39.45352997" lon="-0.34588024"><ele>10.6</ele><time>2022-11-04T14:15:20.0000000+00:00</time></trkpt><trkpt lat="39.45353475" lon="-0.34589256"><ele>10.6</ele><time>2022-11-04T14:15:21.0000000+00:00</time></trkpt><trkpt lat="39.45353726" lon="-0.34590581"><ele>10.2</ele><time>2022-11-04T14:15:22.0000000+00:00</time></trkpt><trkpt lat="39.45354598" lon="-0.34592039"><ele>10.2</ele><time>2022-11-04T14:15:23.0000000+00:00</time></trkpt><trkpt lat="39.45354472" lon="-0.34592726"><ele>10.2</ele><time>2022-11-04T14:15:24.0000000+00:00</time></trkpt><trkpt lat="39.45353835" lon="-0.34592425"><ele>10.2</ele><time>2022-11-04T14:15:25.0000000+00:00</time></trkpt><trkpt lat="39.45353768" lon="-0.34592642"><ele>10.2</ele><time>2022-11-04T14:15:26.0000000+00:00</time></trkpt><trkpt lat="39.45353776" lon="-0.34592785"><ele>10.2</ele><time>2022-11-04T14:15:27.0000000+00:00</time></trkpt><trkpt lat="39.4535355" lon="-0.34592768"><ele>10.2</ele><time>2022-11-04T14:15:28.0000000+00:00</time></trkpt><trkpt lat="39.45353827" lon="-0.34593011"><ele>10.2</ele><time>2022-11-04T14:15:29.0000000+00:00</time></trkpt><trkpt lat="39.45353575" lon="-0.34593246"><ele>10.2</ele><time>2022-11-04T14:15:30.0000000+00:00</time></trkpt><trkpt lat="39.45353215" lon="-0.34593489"><ele>10.2</ele><time>2022-11-04T14:15:31.0000000+00:00</time></trkpt><trkpt lat="39.45352695" lon="-0.34593439"><ele>10.2</ele><time>2022-11-04T14:15:32.0000000+00:00</time></trkpt><trkpt lat="39.45351865" lon="-0.34593472"><ele>10.2</ele><time>2022-11-04T14:15:33.0000000+00:00</time></trkpt><trkpt lat="39.45350817" lon="-0.34593355"><ele>10.2</ele><time>2022-11-04T14:15:34.0000000+00:00</time></trkpt><trkpt lat="39.4534977" lon="-0.34593212"><ele>10.2</ele><time>2022-11-04T14:15:35.0000000+00:00</time></trkpt><trkpt lat="39.4534873" lon="-0.34592927"><ele>10.2</ele><time>2022-11-04T14:15:36.0000000+00:00</time></trkpt><trkpt lat="39.45347758" lon="-0.34592483"><ele>10.2</ele><time>2022-11-04T14:15:37.0000000+00:00</time></trkpt><trkpt lat="39.45346618" lon="-0.34592777"><ele>10.2</ele><time>2022-11-04T14:15:38.0000000+00:00</time></trkpt><trkpt lat="39.45345537" lon="-0.34592827"><ele>10.2</ele><time>2022-11-04T14:15:39.0000000+00:00</time></trkpt><trkpt lat="39.45344305" lon="-0.34592995"><ele>10.2</ele><time>2022-11-04T14:15:40.0000000+00:00</time></trkpt><trkpt lat="39.45343835" lon="-0.34593212"><ele>10.2</ele><time>2022-11-04T14:15:41.0000000+00:00</time></trkpt><trkpt lat="39.45343693" lon="-0.34592869"><ele>10.2</ele><time>2022-11-04T14:15:42.0000000+00:00</time></trkpt><trkpt lat="39.45344162" lon="-0.34592969"><ele>10.2</ele><time>2022-11-04T14:15:43.0000000+00:00</time></trkpt><trkpt lat="39.45344799" lon="-0.34593405"><ele>10.2</ele><time>2022-11-04T14:15:44.0000000+00:00</time></trkpt><trkpt lat="39.45345721" lon="-0.34593741"><ele>10.2</ele><time>2022-11-04T14:15:45.0000000+00:00</time></trkpt><trkpt lat="39.45347146" lon="-0.34594084"><ele>10.2</ele><time>2022-11-04T14:15:46.0000000+00:00</time></trkpt><trkpt lat="39.45348102" lon="-0.34594906"><ele>10.2</ele><time>2022-11-04T14:15:47.0000000+00:00</time></trkpt><trkpt lat="39.45348454" lon="-0.34596079"><ele>10.2</ele><time>2022-11-04T14:15:48.0000000+00:00</time></trkpt><trkpt lat="39.45349443" lon="-0.34597085"><ele>10.2</ele><time>2022-11-04T14:15:49.0000000+00:00</time></trkpt><trkpt lat="39.45350591" lon="-0.34597688"><ele>10.2</ele><time>2022-11-04T14:15:50.0000000+00:00</time></trkpt><trkpt lat="39.45351589" lon="-0.34598786"><ele>10.2</ele><time>2022-11-04T14:15:51.0000000+00:00</time></trkpt><trkpt lat="39.45352737" lon="-0.34600597"><ele>10.2</ele><time>2022-11-04T14:15:52.0000000+00:00</time></trkpt><trkpt lat="39.45353852" lon="-0.34602391"><ele>10.2</ele><time>2022-11-04T14:15:53.0000000+00:00</time></trkpt><trkpt lat="39.45355092" lon="-0.34603849"><ele>10.2</ele><time>2022-11-04T14:15:54.0000000+00:00</time></trkpt><trkpt lat="39.45356056" lon="-0.34605458"><ele>10.2</ele><time>2022-11-04T14:15:55.0000000+00:00</time></trkpt><trkpt lat="39.45356945" lon="-0.34606984"><ele>10.2</ele><time>2022-11-04T14:15:56.0000000+00:00</time></trkpt><trkpt lat="39.4535764" lon="-0.34608912"><ele>10.2</ele><time>2022-11-04T14:15:57.0000000+00:00</time></trkpt><trkpt lat="39.45358227" lon="-0.34610773"><ele>10.2</ele><time>2022-11-04T14:15:58.0000000+00:00</time></trkpt><trkpt lat="39.45358629" lon="-0.34612835"><ele>10.0</ele><time>2022-11-04T14:15:59.0000000+00:00</time></trkpt><trkpt lat="39.45359157" lon="-0.34614385"><ele>10.0</ele><time>2022-11-04T14:16:00.0000000+00:00</time></trkpt><trkpt lat="39.4535925" lon="-0.34616087"><ele>10.0</ele><time>2022-11-04T14:16:01.0000000+00:00</time></trkpt><trkpt lat="39.4535935" lon="-0.34617369"><ele>10.0</ele><time>2022-11-04T14:16:02.0000000+00:00</time></trkpt><trkpt lat="39.4535982" lon="-0.34618476"><ele>10.0</ele><time>2022-11-04T14:16:03.0000000+00:00</time></trkpt><trkpt lat="39.45360381" lon="-0.34620194"><ele>10.0</ele><time>2022-11-04T14:16:04.0000000+00:00</time></trkpt><trkpt lat="39.45360834" lon="-0.34621577"><ele>10.0</ele><time>2022-11-04T14:16:05.0000000+00:00</time></trkpt><trkpt lat="39.45361069" lon="-0.34622993"><ele>10.0</ele><time>2022-11-04T14:16:06.0000000+00:00</time></trkpt><trkpt lat="39.45361161" lon="-0.34624494"><ele>10.0</ele><time>2022-11-04T14:16:07.0000000+00:00</time></trkpt><trkpt lat="39.45361907" lon="-0.34625877"><ele>10.0</ele><time>2022-11-04T14:16:08.0000000+00:00</time></trkpt><trkpt lat="39.45362359" lon="-0.34627419"><ele>10.2</ele><time>2022-11-04T14:16:09.0000000+00:00</time></trkpt><trkpt lat="39.45363055" lon="-0.34629213"><ele>10.2</ele><time>2022-11-04T14:16:10.0000000+00:00</time></trkpt><trkpt lat="39.45363759" lon="-0.34630789"><ele>10.2</ele><time>2022-11-04T14:16:11.0000000+00:00</time></trkpt><trkpt lat="39.45364212" lon="-0.34632415"><ele>10.2</ele><time>2022-11-04T14:16:12.0000000+00:00</time></trkpt><trkpt lat="39.45364396" lon="-0.34634418"><ele>10.2</ele><time>2022-11-04T14:16:13.0000000+00:00</time></trkpt><trkpt lat="39.4536469" lon="-0.34636321"><ele>10.2</ele><time>2022-11-04T14:16:14.0000000+00:00</time></trkpt><trkpt lat="39.45364874" lon="-0.34637955"><ele>10.2</ele><time>2022-11-04T14:16:15.0000000+00:00</time></trkpt><trkpt lat="39.45365159" lon="-0.34639296"><ele>10.0</ele><time>2022-11-04T14:16:16.0000000+00:00</time></trkpt><trkpt lat="39.45365679" lon="-0.34640327"><ele>10.0</ele><time>2022-11-04T14:16:17.0000000+00:00</time></trkpt><trkpt lat="39.45366768" lon="-0.34641668"><ele>10.0</ele><time>2022-11-04T14:16:18.0000000+00:00</time></trkpt><trkpt lat="39.45367816" lon="-0.34642825"><ele>10.0</ele><time>2022-11-04T14:16:19.0000000+00:00</time></trkpt><trkpt lat="39.45368528" lon="-0.346443"><ele>10.0</ele><time>2022-11-04T14:16:20.0000000+00:00</time></trkpt><trkpt lat="39.45368964" lon="-0.34645826"><ele>10.0</ele><time>2022-11-04T14:16:21.0000000+00:00</time></trkpt><trkpt lat="39.4536909" lon="-0.34647678"><ele>10.0</ele><time>2022-11-04T14:16:22.0000000+00:00</time></trkpt><trkpt lat="39.45369023" lon="-0.34649321"><ele>10.0</ele><time>2022-11-04T14:16:23.0000000+00:00</time></trkpt><trkpt lat="39.45369291" lon="-0.34650302"><ele>10.0</ele><time>2022-11-04T14:16:24.0000000+00:00</time></trkpt><trkpt lat="39.45369945" lon="-0.34651349"><ele>10.0</ele><time>2022-11-04T14:16:25.0000000+00:00</time></trkpt><trkpt lat="39.45370792" lon="-0.34652682"><ele>10.0</ele><time>2022-11-04T14:16:26.0000000+00:00</time></trkpt><trkpt lat="39.45371688" lon="-0.34654266"><ele>10.0</ele><time>2022-11-04T14:16:27.0000000+00:00</time></trkpt><trkpt lat="39.45372091" lon="-0.3465575"><ele>10.0</ele><time>2022-11-04T14:16:28.0000000+00:00</time></trkpt><trkpt lat="39.45372401" lon="-0.34657401"><ele>10.0</ele><time>2022-11-04T14:16:29.0000000+00:00</time></trkpt><trkpt lat="39.45372745" lon="-0.34659036"><ele>10.0</ele><time>2022-11-04T14:16:30.0000000+00:00</time></trkpt><trkpt lat="39.45372837" lon="-0.346615"><ele>9.8</ele><time>2022-11-04T14:16:31.0000000+00:00</time></trkpt><trkpt lat="39.45373189" lon="-0.34663545"><ele>9.8</ele><time>2022-11-04T14:16:32.0000000+00:00</time></trkpt><trkpt lat="39.45373692" lon="-0.34665599"><ele>9.8</ele><time>2022-11-04T14:16:33.0000000+00:00</time></trkpt><trkpt lat="39.45374262" lon="-0.34667417"><ele>9.6</ele><time>2022-11-04T14:16:34.0000000+00:00</time></trkpt><trkpt lat="39.45374957" lon="-0.34669094"><ele>9.6</ele><time>2022-11-04T14:16:35.0000000+00:00</time></trkpt><trkpt lat="39.45375494" lon="-0.34670351"><ele>9.4</ele><time>2022-11-04T14:16:36.0000000+00:00</time></trkpt><trkpt lat="39.45375871" lon="-0.34671776"><ele>9.4</ele><time>2022-11-04T14:16:37.0000000+00:00</time></trkpt><trkpt lat="39.45376206" lon="-0.34673461"><ele>9.4</ele><time>2022-11-04T14:16:38.0000000+00:00</time></trkpt><trkpt lat="39.45376257" lon="-0.34674877"><ele>9.2</ele><time>2022-11-04T14:16:39.0000000+00:00</time></trkpt><trkpt lat="39.45375879" lon="-0.3467616"><ele>9.2</ele><time>2022-11-04T14:16:40.0000000+00:00</time></trkpt><trkpt lat="39.45375578" lon="-0.34677593"><ele>9.2</ele><time>2022-11-04T14:16:41.0000000+00:00</time></trkpt><trkpt lat="39.45375184" lon="-0.34679345"><ele>9.0</ele><time>2022-11-04T14:16:42.0000000+00:00</time></trkpt><trkpt lat="39.453752" lon="-0.34680887"><ele>9.0</ele><time>2022-11-04T14:16:43.0000000+00:00</time></trkpt><trkpt lat="39.45375435" lon="-0.34681591"><ele>9.0</ele><time>2022-11-04T14:16:44.0000000+00:00</time></trkpt><trkpt lat="39.45375804" lon="-0.34682681"><ele>9.0</ele><time>2022-11-04T14:16:45.0000000+00:00</time></trkpt><trkpt lat="39.45376089" lon="-0.3468289"><ele>9.0</ele><time>2022-11-04T14:16:46.0000000+00:00</time></trkpt><trkpt lat="39.45376315" lon="-0.34682781"><ele>9.0</ele><time>2022-11-04T14:16:47.0000000+00:00</time></trkpt><trkpt lat="39.45376357" lon="-0.34682497"><ele>9.0</ele><time>2022-11-04T14:16:48.0000000+00:00</time></trkpt><trkpt lat="39.45376324" lon="-0.34682253"><ele>9.0</ele><time>2022-11-04T14:16:49.0000000+00:00</time></trkpt><trkpt lat="39.45376106" lon="-0.34681977"><ele>8.8</ele><time>2022-11-04T14:16:50.0000000+00:00</time></trkpt><trkpt lat="39.45375552" lon="-0.34680979"><ele>8.8</ele><time>2022-11-04T14:16:51.0000000+00:00</time></trkpt><trkpt lat="39.45374798" lon="-0.34680703"><ele>8.8</ele><time>2022-11-04T14:16:52.0000000+00:00</time></trkpt><trkpt lat="39.45374019" lon="-0.34680233"><ele>9.0</ele><time>2022-11-04T14:16:53.0000000+00:00</time></trkpt><trkpt lat="39.45373348" lon="-0.34679471"><ele>9.0</ele><time>2022-11-04T14:16:54.0000000+00:00</time></trkpt><trkpt lat="39.4537287" lon="-0.34679303"><ele>8.8</ele><time>2022-11-04T14:16:55.0000000+00:00</time></trkpt><trkpt lat="39.45372786" lon="-0.34679496"><ele>8.8</ele><time>2022-11-04T14:16:56.0000000+00:00</time></trkpt><trkpt lat="39.45372745" lon="-0.3467973"><ele>8.8</ele><time>2022-11-04T14:16:57.0000000+00:00</time></trkpt><trkpt lat="39.45372937" lon="-0.34680225"><ele>8.8</ele><time>2022-11-04T14:16:58.0000000+00:00</time></trkpt><trkpt lat="39.45373449" lon="-0.34680921"><ele>8.8</ele><time>2022-11-04T14:16:59.0000000+00:00</time></trkpt><trkpt lat="39.45373658" lon="-0.34681407"><ele>8.8</ele><time>2022-11-04T14:17:00.0000000+00:00</time></trkpt><trkpt lat="39.45373658" lon="-0.34682388"><ele>8.8</ele><time>2022-11-04T14:17:01.0000000+00:00</time></trkpt><trkpt lat="39.45373599" lon="-0.34683771"><ele>8.8</ele><time>2022-11-04T14:17:02.0000000+00:00</time></trkpt><trkpt lat="39.45373449" lon="-0.34684047"><ele>8.8</ele><time>2022-11-04T14:17:03.0000000+00:00</time></trkpt><trkpt lat="39.45373289" lon="-0.34684441"><ele>9.0</ele><time>2022-11-04T14:17:04.0000000+00:00</time></trkpt><trkpt lat="39.45372476" lon="-0.34684257"><ele>9.0</ele><time>2022-11-04T14:17:05.0000000+00:00</time></trkpt><trkpt lat="39.45371529" lon="-0.3468403"><ele>9.0</ele><time>2022-11-04T14:17:06.0000000+00:00</time></trkpt><trkpt lat="39.45370414" lon="-0.34684223"><ele>9.0</ele><time>2022-11-04T14:17:07.0000000+00:00</time></trkpt><trkpt lat="39.45369417" lon="-0.34684525"><ele>9.0</ele><time>2022-11-04T14:17:08.0000000+00:00</time></trkpt><trkpt lat="39.45368243" lon="-0.34684642"><ele>8.8</ele><time>2022-11-04T14:17:09.0000000+00:00</time></trkpt><trkpt lat="39.45366651" lon="-0.34684743"><ele>8.8</ele><time>2022-11-04T14:17:10.0000000+00:00</time></trkpt><trkpt lat="39.45365662" lon="-0.34685003"><ele>8.8</ele><time>2022-11-04T14:17:11.0000000+00:00</time></trkpt><trkpt lat="39.45364329" lon="-0.34685288"><ele>8.6</ele><time>2022-11-04T14:17:12.0000000+00:00</time></trkpt><trkpt lat="39.45362552" lon="-0.34685288"><ele>8.6</ele><time>2022-11-04T14:17:13.0000000+00:00</time></trkpt><trkpt lat="39.45361362" lon="-0.34685187"><ele>8.6</ele><time>2022-11-04T14:17:14.0000000+00:00</time></trkpt><trkpt lat="39.45360113" lon="-0.34684986"><ele>8.6</ele><time>2022-11-04T14:17:15.0000000+00:00</time></trkpt><trkpt lat="39.45359032" lon="-0.34684609"><ele>8.6</ele><time>2022-11-04T14:17:16.0000000+00:00</time></trkpt><trkpt lat="39.45358361" lon="-0.34683645"><ele>8.6</ele><time>2022-11-04T14:17:17.0000000+00:00</time></trkpt><trkpt lat="39.453579" lon="-0.34682614"><ele>8.6</ele><time>2022-11-04T14:17:18.0000000+00:00</time></trkpt><trkpt lat="39.45357582" lon="-0.34681122"><ele>8.6</ele><time>2022-11-04T14:17:19.0000000+00:00</time></trkpt><trkpt lat="39.4535733" lon="-0.34679915"><ele>8.6</ele><time>2022-11-04T14:17:20.0000000+00:00</time></trkpt><trkpt lat="39.45357422" lon="-0.34678926"><ele>8.8</ele><time>2022-11-04T14:17:21.0000000+00:00</time></trkpt><trkpt lat="39.45357297" lon="-0.34677425"><ele>8.8</ele><time>2022-11-04T14:17:22.0000000+00:00</time></trkpt><trkpt lat="39.45357028" lon="-0.34675724"><ele>9.0</ele><time>2022-11-04T14:17:23.0000000+00:00</time></trkpt><trkpt lat="39.45356919" lon="-0.34674098"><ele>9.0</ele><time>2022-11-04T14:17:24.0000000+00:00</time></trkpt><trkpt lat="39.45356735" lon="-0.34672388"><ele>9.0</ele><time>2022-11-04T14:17:25.0000000+00:00</time></trkpt><trkpt lat="39.4535676" lon="-0.34670745"><ele>9.0</ele><time>2022-11-04T14:17:26.0000000+00:00</time></trkpt><trkpt lat="39.45356836" lon="-0.34669161"><ele>9.0</ele><time>2022-11-04T14:17:27.0000000+00:00</time></trkpt><trkpt lat="39.45356534" lon="-0.34667795"><ele>9.0</ele><time>2022-11-04T14:17:28.0000000+00:00</time></trkpt><trkpt lat="39.45355981" lon="-0.34666772"><ele>9.0</ele><time>2022-11-04T14:17:29.0000000+00:00</time></trkpt><trkpt lat="39.45355461" lon="-0.3466564"><ele>9.0</ele><time>2022-11-04T14:17:30.0000000+00:00</time></trkpt><trkpt lat="39.4535479" lon="-0.34664526"><ele>9.0</ele><time>2022-11-04T14:17:31.0000000+00:00</time></trkpt><trkpt lat="39.45353709" lon="-0.3466419"><ele>8.8</ele><time>2022-11-04T14:17:32.0000000+00:00</time></trkpt><trkpt lat="39.45353131" lon="-0.34664216"><ele>8.8</ele><time>2022-11-04T14:17:33.0000000+00:00</time></trkpt><trkpt lat="39.45351815" lon="-0.3466409"><ele>9.0</ele><time>2022-11-04T14:17:34.0000000+00:00</time></trkpt><trkpt lat="39.45351454" lon="-0.3466357"><ele>9.0</ele><time>2022-11-04T14:17:35.0000000+00:00</time></trkpt><trkpt lat="39.45351144" lon="-0.34661944"><ele>9.0</ele><time>2022-11-04T14:17:36.0000000+00:00</time></trkpt><trkpt lat="39.45350717" lon="-0.34660528"><ele>9.2</ele><time>2022-11-04T14:17:37.0000000+00:00</time></trkpt><trkpt lat="39.45350348" lon="-0.34659999"><ele>9.4</ele><time>2022-11-04T14:17:38.0000000+00:00</time></trkpt><trkpt lat="39.45350097" lon="-0.34659815"><ele>9.4</ele><time>2022-11-04T14:17:39.0000000+00:00</time></trkpt><trkpt lat="39.45349284" lon="-0.34659614"><ele>9.4</ele><time>2022-11-04T14:17:40.0000000+00:00</time></trkpt><trkpt lat="39.45348613" lon="-0.34659815"><ele>9.4</ele><time>2022-11-04T14:17:41.0000000+00:00</time></trkpt><trkpt lat="39.45347515" lon="-0.34658843"><ele>9.4</ele><time>2022-11-04T14:17:42.0000000+00:00</time></trkpt><trkpt lat="39.45347414" lon="-0.34659086"><ele>9.4</ele><time>2022-11-04T14:17:43.0000000+00:00</time></trkpt><trkpt lat="39.45346953" lon="-0.34659547"><ele>9.4</ele><time>2022-11-04T14:17:44.0000000+00:00</time></trkpt><trkpt lat="39.45346149" lon="-0.34659832"><ele>9.2</ele><time>2022-11-04T14:17:45.0000000+00:00</time></trkpt><trkpt lat="39.45345369" lon="-0.34659622"><ele>9.2</ele><time>2022-11-04T14:17:46.0000000+00:00</time></trkpt><trkpt lat="39.45344548" lon="-0.34659388"><ele>9.2</ele><time>2022-11-04T14:17:47.0000000+00:00</time></trkpt><trkpt lat="39.45343659" lon="-0.34659136"><ele>9.2</ele><time>2022-11-04T14:17:48.0000000+00:00</time></trkpt><trkpt lat="39.45342486" lon="-0.34658482"><ele>9.0</ele><time>2022-11-04T14:17:49.0000000+00:00</time></trkpt><trkpt lat="39.45341296" lon="-0.3465813"><ele>9.0</ele><time>2022-11-04T14:17:50.0000000+00:00</time></trkpt><trkpt lat="39.45340642" lon="-0.34657552"><ele>9.0</ele><time>2022-11-04T14:17:51.0000000+00:00</time></trkpt><trkpt lat="39.45339602" lon="-0.34657334"><ele>8.8</ele><time>2022-11-04T14:17:52.0000000+00:00</time></trkpt><trkpt lat="39.45338823" lon="-0.34656177"><ele>8.8</ele><time>2022-11-04T14:17:53.0000000+00:00</time></trkpt><trkpt lat="39.45338102" lon="-0.34655255"><ele>8.8</ele><time>2022-11-04T14:17:54.0000000+00:00</time></trkpt><trkpt lat="39.45285045" lon="-0.34626958"><ele>2.0</ele><time>2022-11-04T14:38:29.0000000+00:00</time></trkpt><trkpt lat="39.45274182" lon="-0.34603656"><ele>2.2</ele><time>2022-11-04T14:38:30.0000000+00:00</time></trkpt><trkpt lat="39.45278239" lon="-0.34606548"><ele>2.4</ele><time>2022-11-04T14:38:31.0000000+00:00</time></trkpt><trkpt lat="39.45285087" lon="-0.34618425"><ele>2.4</ele><time>2022-11-04T14:38:32.0000000+00:00</time></trkpt><trkpt lat="39.45280887" lon="-0.34617009"><ele>2.6</ele><time>2022-11-04T14:38:33.0000000+00:00</time></trkpt><trkpt lat="39.4528129" lon="-0.34616766"><ele>2.6</ele><time>2022-11-04T14:38:34.0000000+00:00</time></trkpt><trkpt lat="39.45281214" lon="-0.34615098"><ele>2.8</ele><time>2022-11-04T14:38:35.0000000+00:00</time></trkpt><trkpt lat="39.45281348" lon="-0.3461405"><ele>2.8</ele><time>2022-11-04T14:38:36.0000000+00:00</time></trkpt><trkpt lat="39.45280544" lon="-0.34612223"><ele>3.0</ele><time>2022-11-04T14:38:37.0000000+00:00</time></trkpt><trkpt lat="39.45279194" lon="-0.34610479"><ele>3.0</ele><time>2022-11-04T14:38:38.0000000+00:00</time></trkpt><trkpt lat="39.45278624" lon="-0.34609356"><ele>3.2</ele><time>2022-11-04T14:38:39.0000000+00:00</time></trkpt><trkpt lat="39.45278498" lon="-0.34608962"><ele>3.4</ele><time>2022-11-04T14:38:40.0000000+00:00</time></trkpt><trkpt lat="39.45277224" lon="-0.34608727"><ele>3.4</ele><time>2022-11-04T14:38:41.0000000+00:00</time></trkpt><trkpt lat="39.4527673" lon="-0.34609842"><ele>3.6</ele><time>2022-11-04T14:38:42.0000000+00:00</time></trkpt><trkpt lat="39.45276428" lon="-0.34610479"><ele>3.6</ele><time>2022-11-04T14:38:43.0000000+00:00</time></trkpt><trkpt lat="39.45275942" lon="-0.34610932"><ele>3.8</ele><time>2022-11-04T14:38:44.0000000+00:00</time></trkpt><trkpt lat="39.45275431" lon="-0.34611125"><ele>3.8</ele><time>2022-11-04T14:38:45.0000000+00:00</time></trkpt><trkpt lat="39.45275162" lon="-0.3461141"><ele>4.0</ele><time>2022-11-04T14:38:46.0000000+00:00</time></trkpt><trkpt lat="39.45274509" lon="-0.34611946"><ele>4.0</ele><time>2022-11-04T14:38:47.0000000+00:00</time></trkpt><trkpt lat="39.45273855" lon="-0.34612684"><ele>4.2</ele><time>2022-11-04T14:38:48.0000000+00:00</time></trkpt><trkpt lat="39.45273226" lon="-0.3461317"><ele>4.2</ele><time>2022-11-04T14:38:49.0000000+00:00</time></trkpt><trkpt lat="39.45272287" lon="-0.34613287"><ele>4.4</ele><time>2022-11-04T14:38:50.0000000+00:00</time></trkpt><trkpt lat="39.45271592" lon="-0.34613505"><ele>4.4</ele><time>2022-11-04T14:38:51.0000000+00:00</time></trkpt><trkpt lat="39.45270971" lon="-0.34613379"><ele>4.6</ele><time>2022-11-04T14:38:52.0000000+00:00</time></trkpt><trkpt lat="39.45270695" lon="-0.34614259"><ele>4.6</ele><time>2022-11-04T14:38:53.0000000+00:00</time></trkpt><trkpt lat="39.45270779" lon="-0.34616355"><ele>4.6</ele><time>2022-11-04T14:38:54.0000000+00:00</time></trkpt><trkpt lat="39.45271256" lon="-0.34618149"><ele>4.8</ele><time>2022-11-04T14:38:55.0000000+00:00</time></trkpt><trkpt lat="39.45271508" lon="-0.34619691"><ele>4.8</ele><time>2022-11-04T14:38:56.0000000+00:00</time></trkpt><trkpt lat="39.45271986" lon="-0.34620948"><ele>4.8</ele><time>2022-11-04T14:38:57.0000000+00:00</time></trkpt><trkpt lat="39.45272229" lon="-0.34621879"><ele>5.0</ele><time>2022-11-04T14:38:58.0000000+00:00</time></trkpt><trkpt lat="39.45272463" lon="-0.34622583"><ele>5.0</ele><time>2022-11-04T14:38:59.0000000+00:00</time></trkpt><trkpt lat="39.4527238" lon="-0.34623697"><ele>5.0</ele><time>2022-11-04T14:39:00.0000000+00:00</time></trkpt><trkpt lat="39.45272648" lon="-0.34624619"><ele>5.0</ele><time>2022-11-04T14:39:01.0000000+00:00</time></trkpt><trkpt lat="39.45272891" lon="-0.34626002"><ele>5.0</ele><time>2022-11-04T14:39:02.0000000+00:00</time></trkpt><trkpt lat="39.45273486" lon="-0.3462757"><ele>5.0</ele><time>2022-11-04T14:39:03.0000000+00:00</time></trkpt><trkpt lat="39.4527445" lon="-0.34629347"><ele>5.0</ele><time>2022-11-04T14:39:04.0000000+00:00</time></trkpt><trkpt lat="39.45275548" lon="-0.34631099"><ele>5.0</ele><time>2022-11-04T14:39:05.0000000+00:00</time></trkpt><trkpt lat="39.45276545" lon="-0.34632381"><ele>5.0</ele><time>2022-11-04T14:39:06.0000000+00:00</time></trkpt><trkpt lat="39.4527756" lon="-0.34633596"><ele>5.0</ele><time>2022-11-04T14:39:07.0000000+00:00</time></trkpt><trkpt lat="39.45278029" lon="-0.34635021"><ele>5.0</ele><time>2022-11-04T14:39:08.0000000+00:00</time></trkpt><trkpt lat="39.45278515" lon="-0.34636337"><ele>5.0</ele><time>2022-11-04T14:39:09.0000000+00:00</time></trkpt><trkpt lat="39.452787" lon="-0.34636949"><ele>5.0</ele><time>2022-11-04T14:39:10.0000000+00:00</time></trkpt><trkpt lat="39.45278842" lon="-0.34636145"><ele>5.0</ele><time>2022-11-04T14:39:11.0000000+00:00</time></trkpt><trkpt lat="39.4527849" lon="-0.34636136"><ele>5.0</ele><time>2022-11-04T14:39:12.0000000+00:00</time></trkpt><trkpt lat="39.45278264" lon="-0.34635608"><ele>5.2</ele><time>2022-11-04T14:39:13.0000000+00:00</time></trkpt><trkpt lat="39.45278306" lon="-0.3463544"><ele>5.2</ele><time>2022-11-04T14:39:14.0000000+00:00</time></trkpt><trkpt lat="39.45278264" lon="-0.34634359"><ele>5.0</ele><time>2022-11-04T14:39:15.0000000+00:00</time></trkpt><trkpt lat="39.45277593" lon="-0.34634342"><ele>5.0</ele><time>2022-11-04T14:39:16.0000000+00:00</time></trkpt><trkpt lat="39.45277199" lon="-0.34634116"><ele>5.0</ele><time>2022-11-04T14:39:17.0000000+00:00</time></trkpt><trkpt lat="39.45277358" lon="-0.34634342"><ele>5.0</ele><time>2022-11-04T14:39:18.0000000+00:00</time></trkpt><trkpt lat="39.45277727" lon="-0.3463565"><ele>5.0</ele><time>2022-11-04T14:39:19.0000000+00:00</time></trkpt><trkpt lat="39.45278222" lon="-0.3463643"><ele>5.0</ele><time>2022-11-04T14:39:20.0000000+00:00</time></trkpt><trkpt lat="39.45277786" lon="-0.34636279"><ele>5.0</ele><time>2022-11-04T14:39:21.0000000+00:00</time></trkpt><trkpt lat="39.45277937" lon="-0.34637201"><ele>5.0</ele><time>2022-11-04T14:39:22.0000000+00:00</time></trkpt><trkpt lat="39.45277853" lon="-0.34637754"><ele>5.0</ele><time>2022-11-04T14:39:23.0000000+00:00</time></trkpt><trkpt lat="39.4527818" lon="-0.34638056"><ele>5.0</ele><time>2022-11-04T14:39:24.0000000+00:00</time></trkpt><trkpt lat="39.4527844" lon="-0.34638492"><ele>5.0</ele><time>2022-11-04T14:39:25.0000000+00:00</time></trkpt><trkpt lat="39.45278473" lon="-0.34638785"><ele>5.0</ele><time>2022-11-04T14:39:26.0000000+00:00</time></trkpt><trkpt lat="39.45278473" lon="-0.34638785"><ele>5.0</ele><time>2022-11-04T14:39:27.0000000+00:00</time></trkpt><trkpt lat="39.45278473" lon="-0.34638785"><ele>5.0</ele><time>2022-11-04T14:39:28.0000000+00:00</time></trkpt><trkpt lat="39.45278473" lon="-0.34638785"><ele>5.2</ele><time>2022-11-04T14:39:29.0000000+00:00</time></trkpt><trkpt lat="39.45278473" lon="-0.34638785"><ele>5.2</ele><time>2022-11-04T14:39:30.0000000+00:00</time></trkpt><trkpt lat="39.45278842" lon="-0.34638994"><ele>5.2</ele><time>2022-11-04T14:39:31.0000000+00:00</time></trkpt><trkpt lat="39.45279865" lon="-0.34638961"><ele>5.2</ele><time>2022-11-04T14:39:32.0000000+00:00</time></trkpt><trkpt lat="39.45281097" lon="-0.34639288"><ele>5.4</ele><time>2022-11-04T14:39:33.0000000+00:00</time></trkpt><trkpt lat="39.45282052" lon="-0.34639858"><ele>5.4</ele><time>2022-11-04T14:39:34.0000000+00:00</time></trkpt><trkpt lat="39.45282756" lon="-0.34640067"><ele>5.4</ele><time>2022-11-04T14:39:35.0000000+00:00</time></trkpt><trkpt lat="39.45283284" lon="-0.34640243"><ele>5.4</ele><time>2022-11-04T14:39:36.0000000+00:00</time></trkpt><trkpt lat="39.45283653" lon="-0.34640495"><ele>5.6</ele><time>2022-11-04T14:39:37.0000000+00:00</time></trkpt><trkpt lat="39.45284098" lon="-0.34641048"><ele>5.6</ele><time>2022-11-04T14:39:38.0000000+00:00</time></trkpt><trkpt lat="39.45284399" lon="-0.34641769"><ele>5.6</ele><time>2022-11-04T14:39:39.0000000+00:00</time></trkpt><trkpt lat="39.45284676" lon="-0.34642708"><ele>5.6</ele><time>2022-11-04T14:39:40.0000000+00:00</time></trkpt><trkpt lat="39.45284391" lon="-0.34643537"><ele>5.6</ele><time>2022-11-04T14:39:41.0000000+00:00</time></trkpt><trkpt lat="39.45284206" lon="-0.34644225"><ele>5.6</ele><time>2022-11-04T14:39:42.0000000+00:00</time></trkpt><trkpt lat="39.45284039" lon="-0.3464456"><ele>5.6</ele><time>2022-11-04T14:39:43.0000000+00:00</time></trkpt><trkpt lat="39.45284098" lon="-0.34644946"><ele>5.6</ele><time>2022-11-04T14:39:44.0000000+00:00</time></trkpt><trkpt lat="39.45284206" lon="-0.34645164"><ele>5.4</ele><time>2022-11-04T14:39:45.0000000+00:00</time></trkpt><trkpt lat="39.45284299" lon="-0.34645264"><ele>5.4</ele><time>2022-11-04T14:39:46.0000000+00:00</time></trkpt><trkpt lat="39.45284416" lon="-0.34645272"><ele>5.4</ele><time>2022-11-04T14:39:47.0000000+00:00</time></trkpt><trkpt lat="39.45284416" lon="-0.34645272"><ele>5.6</ele><time>2022-11-04T14:39:48.0000000+00:00</time></trkpt><trkpt lat="39.45284416" lon="-0.34645272"><ele>5.6</ele><time>2022-11-04T14:39:49.0000000+00:00</time></trkpt><trkpt lat="39.45284416" lon="-0.34645272"><ele>5.6</ele><time>2022-11-04T14:39:50.0000000+00:00</time></trkpt><trkpt lat="39.45284416" lon="-0.34645272"><ele>5.6</ele><time>2022-11-04T14:39:51.0000000+00:00</time></trkpt><trkpt lat="39.45284416" lon="-0.34645272"><ele>5.6</ele><time>2022-11-04T14:39:52.0000000+00:00</time></trkpt><trkpt lat="39.45284416" lon="-0.34645272"><ele>5.6</ele><time>2022-11-04T14:39:53.0000000+00:00</time></trkpt><trkpt lat="39.45284416" lon="-0.34645272"><ele>5.6</ele><time>2022-11-04T14:39:54.0000000+00:00</time></trkpt><trkpt lat="39.45284768" lon="-0.34644644"><ele>5.6</ele><time>2022-11-04T14:39:55.0000000+00:00</time></trkpt><trkpt lat="39.45285942" lon="-0.34642506"><ele>5.6</ele><time>2022-11-04T14:39:56.0000000+00:00</time></trkpt><trkpt lat="39.45286788" lon="-0.34640905"><ele>5.6</ele><time>2022-11-04T14:39:57.0000000+00:00</time></trkpt><trkpt lat="39.45287853" lon="-0.34639631"><ele>5.6</ele><time>2022-11-04T14:39:58.0000000+00:00</time></trkpt><trkpt lat="39.45288087" lon="-0.34638743"><ele>5.6</ele><time>2022-11-04T14:39:59.0000000+00:00</time></trkpt><trkpt lat="39.45287987" lon="-0.34638056"><ele>5.6</ele><time>2022-11-04T14:40:00.0000000+00:00</time></trkpt><trkpt lat="39.45287928" lon="-0.34638072"><ele>5.6</ele><time>2022-11-04T14:40:01.0000000+00:00</time></trkpt><trkpt lat="39.45288205" lon="-0.34637863"><ele>5.6</ele><time>2022-11-04T14:40:02.0000000+00:00</time></trkpt><trkpt lat="39.45288607" lon="-0.34637553"><ele>5.6</ele><time>2022-11-04T14:40:03.0000000+00:00</time></trkpt><trkpt lat="39.45288942" lon="-0.34637184"><ele>5.6</ele><time>2022-11-04T14:40:04.0000000+00:00</time></trkpt><trkpt lat="39.452888" lon="-0.34636991"><ele>5.6</ele><time>2022-11-04T14:40:05.0000000+00:00</time></trkpt><trkpt lat="39.4528854" lon="-0.34637033"><ele>5.6</ele><time>2022-11-04T14:40:06.0000000+00:00</time></trkpt><trkpt lat="39.45288305" lon="-0.34637259"><ele>5.6</ele><time>2022-11-04T14:40:07.0000000+00:00</time></trkpt><trkpt lat="39.4528828" lon="-0.34637469"><ele>5.6</ele><time>2022-11-04T14:40:08.0000000+00:00</time></trkpt><trkpt lat="39.4528823" lon="-0.34638039"><ele>5.4</ele><time>2022-11-04T14:40:09.0000000+00:00</time></trkpt><trkpt lat="39.4528823" lon="-0.34638039"><ele>5.4</ele><time>2022-11-04T14:40:10.0000000+00:00</time></trkpt><trkpt lat="39.4528823" lon="-0.34638039"><ele>5.4</ele><time>2022-11-04T14:40:11.0000000+00:00</time></trkpt><trkpt lat="39.4528823" lon="-0.34638039"><ele>5.4</ele><time>2022-11-04T14:40:12.0000000+00:00</time></trkpt><trkpt lat="39.4528823" lon="-0.34638039"><ele>5.4</ele><time>2022-11-04T14:40:13.0000000+00:00</time></trkpt><trkpt lat="39.4528823" lon="-0.34638039"><ele>5.4</ele><time>2022-11-04T14:40:14.0000000+00:00</time></trkpt><trkpt lat="39.4528823" lon="-0.34638039"><ele>5.4</ele><time>2022-11-04T14:40:15.0000000+00:00</time></trkpt><trkpt lat="39.4528823" lon="-0.34638039"><ele>5.4</ele><time>2022-11-04T14:40:16.0000000+00:00</time></trkpt><trkpt lat="39.4528823" lon="-0.34638039"><ele>5.4</ele><time>2022-11-04T14:40:17.0000000+00:00</time></trkpt><trkpt lat="39.45288255" lon="-0.34638039"><ele>5.4</ele><time>2022-11-04T14:40:18.0000000+00:00</time></trkpt><trkpt lat="39.4528828" lon="-0.34638039"><ele>5.4</ele><time>2022-11-04T14:40:19.0000000+00:00</time></trkpt><trkpt lat="39.45288305" lon="-0.34638039"><ele>5.4</ele><time>2022-11-04T14:40:20.0000000+00:00</time></trkpt><trkpt lat="39.45288439" lon="-0.34638039"><ele>5.4</ele><time>2022-11-04T14:40:21.0000000+00:00</time></trkpt><trkpt lat="39.45288532" lon="-0.34638039"><ele>5.4</ele><time>2022-11-04T14:40:22.0000000+00:00</time></trkpt><trkpt lat="39.45288766" lon="-0.34638039"><ele>5.4</ele><time>2022-11-04T14:40:23.0000000+00:00</time></trkpt><trkpt lat="39.452888" lon="-0.34638039"><ele>5.2</ele><time>2022-11-04T14:40:24.0000000+00:00</time></trkpt><trkpt lat="39.45288817" lon="-0.34638684"><ele>5.4</ele><time>2022-11-04T14:40:25.0000000+00:00</time></trkpt><trkpt lat="39.45288817" lon="-0.34638726"><ele>5.4</ele><time>2022-11-04T14:40:26.0000000+00:00</time></trkpt><trkpt lat="39.45288817" lon="-0.34638802"><ele>5.4</ele><time>2022-11-04T14:40:27.0000000+00:00</time></trkpt><trkpt lat="39.45288817" lon="-0.34638902"><ele>5.2</ele><time>2022-11-04T14:40:28.0000000+00:00</time></trkpt><trkpt lat="39.45288817" lon="-0.34638927"><ele>5.2</ele><time>2022-11-04T14:40:29.0000000+00:00</time></trkpt><trkpt lat="39.45288817" lon="-0.3463902"><ele>5.2</ele><time>2022-11-04T14:40:30.0000000+00:00</time></trkpt><trkpt lat="39.452888" lon="-0.34639095"><ele>5.2</ele><time>2022-11-04T14:40:31.0000000+00:00</time></trkpt><trkpt lat="39.452888" lon="-0.34639103"><ele>5.2</ele><time>2022-11-04T14:40:32.0000000+00:00</time></trkpt><trkpt lat="39.452888" lon="-0.34639103"><ele>5.2</ele><time>2022-11-04T14:40:33.0000000+00:00</time></trkpt><trkpt lat="39.452888" lon="-0.34639103"><ele>5.2</ele><time>2022-11-04T14:40:34.0000000+00:00</time></trkpt><trkpt lat="39.45289026" lon="-0.34638693"><ele>5.2</ele><time>2022-11-04T14:40:35.0000000+00:00</time></trkpt><trkpt lat="39.45289915" lon="-0.34637285"><ele>5.2</ele><time>2022-11-04T14:40:36.0000000+00:00</time></trkpt><trkpt lat="39.45290795" lon="-0.34635667"><ele>5.2</ele><time>2022-11-04T14:40:37.0000000+00:00</time></trkpt><trkpt lat="39.45291557" lon="-0.34634032"><ele>5.2</ele><time>2022-11-04T14:40:38.0000000+00:00</time></trkpt><trkpt lat="39.4529232" lon="-0.34633077"><ele>5.2</ele><time>2022-11-04T14:40:39.0000000+00:00</time></trkpt><trkpt lat="39.45293242" lon="-0.34632348"><ele>5.2</ele><time>2022-11-04T14:40:40.0000000+00:00</time></trkpt><trkpt lat="39.45294055" lon="-0.3463187"><ele>5.2</ele><time>2022-11-04T14:40:41.0000000+00:00</time></trkpt><trkpt lat="39.45294634" lon="-0.34631711"><ele>5.2</ele><time>2022-11-04T14:40:42.0000000+00:00</time></trkpt><trkpt lat="39.45295028" lon="-0.34631719"><ele>5.2</ele><time>2022-11-04T14:40:43.0000000+00:00</time></trkpt><trkpt lat="39.45295304" lon="-0.34631761"><ele>5.2</ele><time>2022-11-04T14:40:44.0000000+00:00</time></trkpt><trkpt lat="39.4529548" lon="-0.34632063"><ele>5.2</ele><time>2022-11-04T14:40:45.0000000+00:00</time></trkpt><trkpt lat="39.45295581" lon="-0.34632222"><ele>5.2</ele><time>2022-11-04T14:40:46.0000000+00:00</time></trkpt><trkpt lat="39.45295681" lon="-0.34632482"><ele>5.4</ele><time>2022-11-04T14:40:47.0000000+00:00</time></trkpt><trkpt lat="39.45296159" lon="-0.34633135"><ele>5.4</ele><time>2022-11-04T14:40:48.0000000+00:00</time></trkpt><trkpt lat="39.45296243" lon="-0.34633605"><ele>5.4</ele><time>2022-11-04T14:40:49.0000000+00:00</time></trkpt><trkpt lat="39.45296645" lon="-0.34634301"><ele>5.6</ele><time>2022-11-04T14:40:50.0000000+00:00</time></trkpt><trkpt lat="39.45297022" lon="-0.34635047"><ele>5.6</ele><time>2022-11-04T14:40:51.0000000+00:00</time></trkpt><trkpt lat="39.45297685" lon="-0.34635742"><ele>5.6</ele><time>2022-11-04T14:40:52.0000000+00:00</time></trkpt><trkpt lat="39.45297282" lon="-0.34635575"><ele>5.6</ele><time>2022-11-04T14:40:53.0000000+00:00</time></trkpt><trkpt lat="39.45296838" lon="-0.34634451"><ele>5.6</ele><time>2022-11-04T14:40:54.0000000+00:00</time></trkpt><trkpt lat="39.45296503" lon="-0.34633932"><ele>5.6</ele><time>2022-11-04T14:40:55.0000000+00:00</time></trkpt><trkpt lat="39.4529719" lon="-0.34633286"><ele>5.6</ele><time>2022-11-04T14:40:56.0000000+00:00</time></trkpt><trkpt lat="39.45298364" lon="-0.34633831"><ele>5.6</ele><time>2022-11-04T14:40:57.0000000+00:00</time></trkpt><trkpt lat="39.45299914" lon="-0.34634275"><ele>5.6</ele><time>2022-11-04T14:40:58.0000000+00:00</time></trkpt><trkpt lat="39.45301188" lon="-0.34634627"><ele>5.6</ele><time>2022-11-04T14:40:59.0000000+00:00</time></trkpt><trkpt lat="39.45302437" lon="-0.34634971"><ele>5.6</ele><time>2022-11-04T14:41:00.0000000+00:00</time></trkpt><trkpt lat="39.45303208" lon="-0.34634988"><ele>5.6</ele><time>2022-11-04T14:41:01.0000000+00:00</time></trkpt><trkpt lat="39.45303954" lon="-0.34634762"><ele>5.6</ele><time>2022-11-04T14:41:02.0000000+00:00</time></trkpt><trkpt lat="39.45304767" lon="-0.34634803"><ele>5.8</ele><time>2022-11-04T14:41:03.0000000+00:00</time></trkpt><trkpt lat="39.45305756" lon="-0.34634879"><ele>5.8</ele><time>2022-11-04T14:41:04.0000000+00:00</time></trkpt><trkpt lat="39.45306687" lon="-0.34635206"><ele>5.8</ele><time>2022-11-04T14:41:05.0000000+00:00</time></trkpt><trkpt lat="39.45307785" lon="-0.34635097"><ele>5.8</ele><time>2022-11-04T14:41:06.0000000+00:00</time></trkpt><trkpt lat="39.45308447" lon="-0.34635357"><ele>5.8</ele><time>2022-11-04T14:41:07.0000000+00:00</time></trkpt><trkpt lat="39.45308682" lon="-0.34634544"><ele>5.8</ele><time>2022-11-04T14:41:08.0000000+00:00</time></trkpt><trkpt lat="39.45308623" lon="-0.3463415"><ele>6.0</ele><time>2022-11-04T14:41:09.0000000+00:00</time></trkpt><trkpt lat="39.45308087" lon="-0.34633362"><ele>6.0</ele><time>2022-11-04T14:41:10.0000000+00:00</time></trkpt><trkpt lat="39.45308187" lon="-0.34633043"><ele>6.0</ele><time>2022-11-04T14:41:11.0000000+00:00</time></trkpt><trkpt lat="39.45308254" lon="-0.34632943"><ele>5.8</ele><time>2022-11-04T14:41:12.0000000+00:00</time></trkpt><trkpt lat="39.45308397" lon="-0.34632918"><ele>5.8</ele><time>2022-11-04T14:41:13.0000000+00:00</time></trkpt><trkpt lat="39.45308598" lon="-0.34632951"><ele>5.8</ele><time>2022-11-04T14:41:14.0000000+00:00</time></trkpt><trkpt lat="39.45308916" lon="-0.34633001"><ele>5.8</ele><time>2022-11-04T14:41:15.0000000+00:00</time></trkpt><trkpt lat="39.45309285" lon="-0.34632876"><ele>5.8</ele><time>2022-11-04T14:41:16.0000000+00:00</time></trkpt><trkpt lat="39.45309629" lon="-0.34632306"><ele>5.8</ele><time>2022-11-04T14:41:17.0000000+00:00</time></trkpt><trkpt lat="39.45310358" lon="-0.34632381"><ele>5.8</ele><time>2022-11-04T14:41:18.0000000+00:00</time></trkpt><trkpt lat="39.45311221" lon="-0.34632767"><ele>5.8</ele><time>2022-11-04T14:41:19.0000000+00:00</time></trkpt><trkpt lat="39.45311909" lon="-0.34633311"><ele>5.8</ele><time>2022-11-04T14:41:20.0000000+00:00</time></trkpt><trkpt lat="39.45312839" lon="-0.34633814"><ele>5.8</ele><time>2022-11-04T14:41:21.0000000+00:00</time></trkpt><trkpt lat="39.45313836" lon="-0.34634359"><ele>5.8</ele><time>2022-11-04T14:41:22.0000000+00:00</time></trkpt><trkpt lat="39.45314591" lon="-0.34635114"><ele>5.8</ele><time>2022-11-04T14:41:23.0000000+00:00</time></trkpt><trkpt lat="39.4531501" lon="-0.34635583"><ele>5.8</ele><time>2022-11-04T14:41:24.0000000+00:00</time></trkpt><trkpt lat="39.45315345" lon="-0.34635902"><ele>5.8</ele><time>2022-11-04T14:41:25.0000000+00:00</time></trkpt><trkpt lat="39.4531506" lon="-0.3463617"><ele>5.8</ele><time>2022-11-04T14:41:26.0000000+00:00</time></trkpt><trkpt lat="39.45314909" lon="-0.34636471"><ele>5.8</ele><time>2022-11-04T14:41:27.0000000+00:00</time></trkpt><trkpt lat="39.45314557" lon="-0.34636941"><ele>5.8</ele><time>2022-11-04T14:41:28.0000000+00:00</time></trkpt><trkpt lat="39.45314256" lon="-0.34637217"><ele>5.8</ele><time>2022-11-04T14:41:29.0000000+00:00</time></trkpt><trkpt lat="39.45313644" lon="-0.34637243"><ele>5.8</ele><time>2022-11-04T14:41:30.0000000+00:00</time></trkpt><trkpt lat="39.45312998" lon="-0.34637234"><ele>5.8</ele><time>2022-11-04T14:41:31.0000000+00:00</time></trkpt><trkpt lat="39.45312261" lon="-0.34637544"><ele>5.8</ele><time>2022-11-04T14:41:32.0000000+00:00</time></trkpt><trkpt lat="39.45312269" lon="-0.34638148"><ele>5.6</ele><time>2022-11-04T14:41:33.0000000+00:00</time></trkpt><trkpt lat="39.45312537" lon="-0.34638634"><ele>5.6</ele><time>2022-11-04T14:41:34.0000000+00:00</time></trkpt><trkpt lat="39.45313158" lon="-0.3463902"><ele>5.6</ele><time>2022-11-04T14:41:35.0000000+00:00</time></trkpt><trkpt lat="39.45313501" lon="-0.34639112"><ele>5.6</ele><time>2022-11-04T14:41:36.0000000+00:00</time></trkpt><trkpt lat="39.45313577" lon="-0.34638961"><ele>5.6</ele><time>2022-11-04T14:41:37.0000000+00:00</time></trkpt><trkpt lat="39.45313694" lon="-0.34638584"><ele>5.6</ele><time>2022-11-04T14:41:38.0000000+00:00</time></trkpt><trkpt lat="39.45313694" lon="-0.34638584"><ele>5.6</ele><time>2022-11-04T14:41:39.0000000+00:00</time></trkpt><trkpt lat="39.45313694" lon="-0.34638584"><ele>5.6</ele><time>2022-11-04T14:41:40.0000000+00:00</time></trkpt><trkpt lat="39.45313694" lon="-0.34638584"><ele>5.6</ele><time>2022-11-04T14:41:41.0000000+00:00</time></trkpt><trkpt lat="39.45313694" lon="-0.34638584"><ele>5.6</ele><time>2022-11-04T14:41:42.0000000+00:00</time></trkpt><trkpt lat="39.45313694" lon="-0.34638584"><ele>5.6</ele><time>2022-11-04T14:41:43.0000000+00:00</time></trkpt><trkpt lat="39.45313694" lon="-0.34638584"><ele>5.6</ele><time>2022-11-04T14:41:44.0000000+00:00</time></trkpt><trkpt lat="39.45313694" lon="-0.34638584"><ele>5.6</ele><time>2022-11-04T14:41:45.0000000+00:00</time></trkpt><trkpt lat="39.45313694" lon="-0.34638584"><ele>5.6</ele><time>2022-11-04T14:41:46.0000000+00:00</time></trkpt><trkpt lat="39.45313694" lon="-0.34638584"><ele>5.6</ele><time>2022-11-04T14:41:47.0000000+00:00</time></trkpt><trkpt lat="39.45313694" lon="-0.34638584"><ele>5.8</ele><time>2022-11-04T14:41:48.0000000+00:00</time></trkpt><trkpt lat="39.45313694" lon="-0.34638584"><ele>5.8</ele><time>2022-11-04T14:41:49.0000000+00:00</time></trkpt><trkpt lat="39.45313694" lon="-0.34638584"><ele>5.8</ele><time>2022-11-04T14:41:50.0000000+00:00</time></trkpt><trkpt lat="39.45313694" lon="-0.34638584"><ele>5.8</ele><time>2022-11-04T14:41:51.0000000+00:00</time></trkpt><trkpt lat="39.45313694" lon="-0.34638584"><ele>5.8</ele><time>2022-11-04T14:41:52.0000000+00:00</time></trkpt><trkpt lat="39.45313694" lon="-0.34638584"><ele>5.8</ele><time>2022-11-04T14:41:53.0000000+00:00</time></trkpt><trkpt lat="39.45313694" lon="-0.34638584"><ele>5.8</ele><time>2022-11-04T14:41:54.0000000+00:00</time></trkpt><trkpt lat="39.45313778" lon="-0.34638584"><ele>5.8</ele><time>2022-11-04T14:41:55.0000000+00:00</time></trkpt><trkpt lat="39.45313904" lon="-0.34638634"><ele>5.8</ele><time>2022-11-04T14:41:56.0000000+00:00</time></trkpt><trkpt lat="39.45314004" lon="-0.34638768"><ele>5.8</ele><time>2022-11-04T14:41:57.0000000+00:00</time></trkpt><trkpt lat="39.45314013" lon="-0.34638944"><ele>5.8</ele><time>2022-11-04T14:41:58.0000000+00:00</time></trkpt><trkpt lat="39.45314013" lon="-0.34639011"><ele>5.8</ele><time>2022-11-04T14:41:59.0000000+00:00</time></trkpt><trkpt lat="39.45314013" lon="-0.34639103"><ele>5.8</ele><time>2022-11-04T14:42:00.0000000+00:00</time></trkpt><trkpt lat="39.45314013" lon="-0.34640009"><ele>5.8</ele><time>2022-11-04T14:42:01.0000000+00:00</time></trkpt><trkpt lat="39.45314013" lon="-0.34640822"><ele>5.8</ele><time>2022-11-04T14:42:02.0000000+00:00</time></trkpt><trkpt lat="39.45314013" lon="-0.34641936"><ele>5.8</ele><time>2022-11-04T14:42:03.0000000+00:00</time></trkpt><trkpt lat="39.45314113" lon="-0.34642439"><ele>5.8</ele><time>2022-11-04T14:42:04.0000000+00:00</time></trkpt><trkpt lat="39.45314147" lon="-0.34642934"><ele>5.8</ele><time>2022-11-04T14:42:05.0000000+00:00</time></trkpt><trkpt lat="39.45314163" lon="-0.34643328"><ele>5.8</ele><time>2022-11-04T14:42:06.0000000+00:00</time></trkpt><trkpt lat="39.45314163" lon="-0.34643403"><ele>5.8</ele><time>2022-11-04T14:42:07.0000000+00:00</time></trkpt><trkpt lat="39.45314163" lon="-0.34643521"><ele>5.8</ele><time>2022-11-04T14:42:08.0000000+00:00</time></trkpt><trkpt lat="39.45314163" lon="-0.3464373"><ele>5.8</ele><time>2022-11-04T14:42:09.0000000+00:00</time></trkpt><trkpt lat="39.45314163" lon="-0.3464378"><ele>5.8</ele><time>2022-11-04T14:42:10.0000000+00:00</time></trkpt><trkpt lat="39.45314046" lon="-0.34644007"><ele>5.8</ele><time>2022-11-04T14:42:11.0000000+00:00</time></trkpt><trkpt lat="39.45313971" lon="-0.34645021"><ele>5.8</ele><time>2022-11-04T14:42:12.0000000+00:00</time></trkpt><trkpt lat="39.45314113" lon="-0.3464653"><ele>5.8</ele><time>2022-11-04T14:42:13.0000000+00:00</time></trkpt><trkpt lat="39.4531413" lon="-0.34647938"><ele>5.8</ele><time>2022-11-04T14:42:14.0000000+00:00</time></trkpt><trkpt lat="39.45314406" lon="-0.34649204"><ele>5.8</ele><time>2022-11-04T14:42:15.0000000+00:00</time></trkpt><trkpt lat="39.45314809" lon="-0.34649941"><ele>5.8</ele><time>2022-11-04T14:42:16.0000000+00:00</time></trkpt><trkpt lat="39.45315287" lon="-0.34650763"><ele>5.8</ele><time>2022-11-04T14:42:17.0000000+00:00</time></trkpt><trkpt lat="39.4531563" lon="-0.34652221"><ele>5.8</ele><time>2022-11-04T14:42:18.0000000+00:00</time></trkpt><trkpt lat="39.45315949" lon="-0.34653537"><ele>5.8</ele><time>2022-11-04T14:42:19.0000000+00:00</time></trkpt><trkpt lat="39.45316477" lon="-0.34654819"><ele>5.8</ele><time>2022-11-04T14:42:20.0000000+00:00</time></trkpt><trkpt lat="39.45317181" lon="-0.34656102"><ele>5.8</ele><time>2022-11-04T14:42:21.0000000+00:00</time></trkpt><trkpt lat="39.45317851" lon="-0.34657141"><ele>5.8</ele><time>2022-11-04T14:42:22.0000000+00:00</time></trkpt><trkpt lat="39.45318405" lon="-0.34657527"><ele>5.8</ele><time>2022-11-04T14:42:23.0000000+00:00</time></trkpt><trkpt lat="39.45319117" lon="-0.34658323"><ele>5.8</ele><time>2022-11-04T14:42:24.0000000+00:00</time></trkpt><trkpt lat="39.45319729" lon="-0.34659513"><ele>5.6</ele><time>2022-11-04T14:42:25.0000000+00:00</time></trkpt><trkpt lat="39.45320752" lon="-0.34660704"><ele>5.6</ele><time>2022-11-04T14:42:26.0000000+00:00</time></trkpt><trkpt lat="39.453219" lon="-0.34661232"><ele>5.6</ele><time>2022-11-04T14:42:27.0000000+00:00</time></trkpt><trkpt lat="39.45323157" lon="-0.34661768"><ele>5.6</ele><time>2022-11-04T14:42:28.0000000+00:00</time></trkpt><trkpt lat="39.45324574" lon="-0.34662564"><ele>5.6</ele><time>2022-11-04T14:42:29.0000000+00:00</time></trkpt><trkpt lat="39.45325831" lon="-0.34663285"><ele>5.6</ele><time>2022-11-04T14:42:30.0000000+00:00</time></trkpt><trkpt lat="39.45326946" lon="-0.34664165"><ele>5.6</ele><time>2022-11-04T14:42:31.0000000+00:00</time></trkpt><trkpt lat="39.45327918" lon="-0.34665071"><ele>5.6</ele><time>2022-11-04T14:42:32.0000000+00:00</time></trkpt><trkpt lat="39.45328907" lon="-0.34665716"><ele>5.8</ele><time>2022-11-04T14:42:33.0000000+00:00</time></trkpt><trkpt lat="39.45329913" lon="-0.34666169"><ele>6.0</ele><time>2022-11-04T14:42:34.0000000+00:00</time></trkpt><trkpt lat="39.45330693" lon="-0.34666194"><ele>6.0</ele><time>2022-11-04T14:42:35.0000000+00:00</time></trkpt><trkpt lat="39.45331522" lon="-0.34665682"><ele>6.0</ele><time>2022-11-04T14:42:36.0000000+00:00</time></trkpt><trkpt lat="39.45332361" lon="-0.34665624"><ele>6.0</ele><time>2022-11-04T14:42:37.0000000+00:00</time></trkpt><trkpt lat="39.45333324" lon="-0.34666152"><ele>6.0</ele><time>2022-11-04T14:42:38.0000000+00:00</time></trkpt><trkpt lat="39.45334749" lon="-0.34667443"><ele>6.0</ele><time>2022-11-04T14:42:39.0000000+00:00</time></trkpt><trkpt lat="39.45335764" lon="-0.34666965"><ele>6.0</ele><time>2022-11-04T14:42:40.0000000+00:00</time></trkpt><trkpt lat="39.45336551" lon="-0.34664819"><ele>6.0</ele><time>2022-11-04T14:42:41.0000000+00:00</time></trkpt><trkpt lat="39.45337549" lon="-0.34663461"><ele>6.0</ele><time>2022-11-04T14:42:42.0000000+00:00</time></trkpt><trkpt lat="39.45339066" lon="-0.34662263"><ele>6.0</ele><time>2022-11-04T14:42:43.0000000+00:00</time></trkpt><trkpt lat="39.45340407" lon="-0.34661391"><ele>6.0</ele><time>2022-11-04T14:42:44.0000000+00:00</time></trkpt><trkpt lat="39.45341053" lon="-0.34660829"><ele>6.0</ele><time>2022-11-04T14:42:45.0000000+00:00</time></trkpt><trkpt lat="39.45341547" lon="-0.34660695"><ele>6.0</ele><time>2022-11-04T14:42:46.0000000+00:00</time></trkpt><trkpt lat="39.45342218" lon="-0.34660553"><ele>6.0</ele><time>2022-11-04T14:42:47.0000000+00:00</time></trkpt><trkpt lat="39.45343131" lon="-0.34660377"><ele>6.0</ele><time>2022-11-04T14:42:48.0000000+00:00</time></trkpt><trkpt lat="39.45344045" lon="-0.34659807"><ele>6.0</ele><time>2022-11-04T14:42:49.0000000+00:00</time></trkpt><trkpt lat="39.45344581" lon="-0.34659371"><ele>6.0</ele><time>2022-11-04T14:42:50.0000000+00:00</time></trkpt><trkpt lat="39.45345151" lon="-0.34659245"><ele>6.0</ele><time>2022-11-04T14:42:51.0000000+00:00</time></trkpt><trkpt lat="39.45345621" lon="-0.34659706"><ele>6.0</ele><time>2022-11-04T14:42:52.0000000+00:00</time></trkpt><trkpt lat="39.45346886" lon="-0.34660687"><ele>6.0</ele><time>2022-11-04T14:42:53.0000000+00:00</time></trkpt><trkpt lat="39.45347842" lon="-0.34661667"><ele>6.0</ele><time>2022-11-04T14:42:54.0000000+00:00</time></trkpt><trkpt lat="39.45348873" lon="-0.34662849"><ele>5.8</ele><time>2022-11-04T14:42:55.0000000+00:00</time></trkpt><trkpt lat="39.45349669" lon="-0.34664207"><ele>5.8</ele><time>2022-11-04T14:42:56.0000000+00:00</time></trkpt><trkpt lat="39.45350558" lon="-0.34665481"><ele>5.6</ele><time>2022-11-04T14:42:57.0000000+00:00</time></trkpt><trkpt lat="39.45351262" lon="-0.34666822"><ele>5.6</ele><time>2022-11-04T14:42:58.0000000+00:00</time></trkpt><trkpt lat="39.45351731" lon="-0.34668071"><ele>5.6</ele><time>2022-11-04T14:42:59.0000000+00:00</time></trkpt><trkpt lat="39.45352226" lon="-0.34669203"><ele>5.6</ele><time>2022-11-04T14:43:00.0000000+00:00</time></trkpt><trkpt lat="39.45352804" lon="-0.34670686"><ele>5.4</ele><time>2022-11-04T14:43:01.0000000+00:00</time></trkpt><trkpt lat="39.45353265" lon="-0.34672036"><ele>5.4</ele><time>2022-11-04T14:43:02.0000000+00:00</time></trkpt><trkpt lat="39.45353651" lon="-0.34673335"><ele>5.4</ele><time>2022-11-04T14:43:03.0000000+00:00</time></trkpt><trkpt lat="39.45353768" lon="-0.34674961"><ele>5.2</ele><time>2022-11-04T14:43:04.0000000+00:00</time></trkpt><trkpt lat="39.45353793" lon="-0.34676679"><ele>5.2</ele><time>2022-11-04T14:43:05.0000000+00:00</time></trkpt><trkpt lat="39.45353634" lon="-0.34678373"><ele>5.0</ele><time>2022-11-04T14:43:06.0000000+00:00</time></trkpt><trkpt lat="39.45353156" lon="-0.34679823"><ele>5.0</ele><time>2022-11-04T14:43:07.0000000+00:00</time></trkpt><trkpt lat="39.45352553" lon="-0.34681055"><ele>5.0</ele><time>2022-11-04T14:43:08.0000000+00:00</time></trkpt><trkpt lat="39.45351312" lon="-0.34681977"><ele>5.0</ele><time>2022-11-04T14:43:09.0000000+00:00</time></trkpt><trkpt lat="39.45350348" lon="-0.34683293"><ele>5.0</ele><time>2022-11-04T14:43:10.0000000+00:00</time></trkpt><trkpt lat="39.45349116" lon="-0.34684056"><ele>5.0</ele><time>2022-11-04T14:43:11.0000000+00:00</time></trkpt><trkpt lat="39.45347666" lon="-0.3468481"><ele>5.0</ele><time>2022-11-04T14:43:12.0000000+00:00</time></trkpt><trkpt lat="39.4534661" lon="-0.34685682"><ele>5.0</ele><time>2022-11-04T14:43:13.0000000+00:00</time></trkpt><trkpt lat="39.45345554" lon="-0.34686671"><ele>4.8</ele><time>2022-11-04T14:43:14.0000000+00:00</time></trkpt><trkpt lat="39.45344464" lon="-0.34687308"><ele>4.8</ele><time>2022-11-04T14:43:15.0000000+00:00</time></trkpt><trkpt lat="39.45343802" lon="-0.34687693"><ele>5.0</ele><time>2022-11-04T14:43:16.0000000+00:00</time></trkpt><trkpt lat="39.45342846" lon="-0.34687978"><ele>5.0</ele><time>2022-11-04T14:43:17.0000000+00:00</time></trkpt><trkpt lat="39.4534153" lon="-0.34687987"><ele>5.0</ele><time>2022-11-04T14:43:18.0000000+00:00</time></trkpt><trkpt lat="39.45339904" lon="-0.34688666"><ele>5.0</ele><time>2022-11-04T14:43:19.0000000+00:00</time></trkpt><trkpt lat="39.45338773" lon="-0.34689655"><ele>5.0</ele><time>2022-11-04T14:43:20.0000000+00:00</time></trkpt><trkpt lat="39.4533801" lon="-0.34690384"><ele>5.0</ele><time>2022-11-04T14:43:21.0000000+00:00</time></trkpt><trkpt lat="39.45336887" lon="-0.34691029"><ele>5.0</ele><time>2022-11-04T14:43:22.0000000+00:00</time></trkpt><trkpt lat="39.45335973" lon="-0.34691909"><ele>5.0</ele><time>2022-11-04T14:43:23.0000000+00:00</time></trkpt><trkpt lat="39.45334909" lon="-0.34692647"><ele>5.0</ele><time>2022-11-04T14:43:24.0000000+00:00</time></trkpt><trkpt lat="39.45333861" lon="-0.34693385"><ele>5.0</ele><time>2022-11-04T14:43:25.0000000+00:00</time></trkpt><trkpt lat="39.45332696" lon="-0.34694055"><ele>4.8</ele><time>2022-11-04T14:43:26.0000000+00:00</time></trkpt><trkpt lat="39.45331581" lon="-0.34694734"><ele>4.8</ele><time>2022-11-04T14:43:27.0000000+00:00</time></trkpt><trkpt lat="39.45330366" lon="-0.34695371"><ele>4.8</ele><time>2022-11-04T14:43:28.0000000+00:00</time></trkpt><trkpt lat="39.45329452" lon="-0.34695673"><ele>5.0</ele><time>2022-11-04T14:43:29.0000000+00:00</time></trkpt><trkpt lat="39.45328153" lon="-0.34695874"><ele>5.0</ele><time>2022-11-04T14:43:30.0000000+00:00</time></trkpt><trkpt lat="39.45326963" lon="-0.34696519"><ele>5.0</ele><time>2022-11-04T14:43:31.0000000+00:00</time></trkpt><trkpt lat="39.45325554" lon="-0.34696838"><ele>5.0</ele><time>2022-11-04T14:43:32.0000000+00:00</time></trkpt><trkpt lat="39.45324389" lon="-0.34696888"><ele>5.0</ele><time>2022-11-04T14:43:33.0000000+00:00</time></trkpt><trkpt lat="39.45323333" lon="-0.34696804"><ele>5.0</ele><time>2022-11-04T14:43:34.0000000+00:00</time></trkpt><trkpt lat="39.45322495" lon="-0.34696679"><ele>5.0</ele><time>2022-11-04T14:43:35.0000000+00:00</time></trkpt><trkpt lat="39.45321984" lon="-0.34696201"><ele>5.0</ele><time>2022-11-04T14:43:36.0000000+00:00</time></trkpt><trkpt lat="39.4532252" lon="-0.34696008"><ele>5.0</ele><time>2022-11-04T14:43:37.0000000+00:00</time></trkpt><trkpt lat="39.45322051" lon="-0.3469626"><ele>5.0</ele><time>2022-11-04T14:43:38.0000000+00:00</time></trkpt><trkpt lat="39.45321431" lon="-0.34695799"><ele>5.0</ele><time>2022-11-04T14:43:39.0000000+00:00</time></trkpt><trkpt lat="39.45320173" lon="-0.34695061"><ele>5.0</ele><time>2022-11-04T14:43:40.0000000+00:00</time></trkpt><trkpt lat="39.45319545" lon="-0.34694038"><ele>5.2</ele><time>2022-11-04T14:43:41.0000000+00:00</time></trkpt><trkpt lat="39.45318866" lon="-0.34693276"><ele>5.2</ele><time>2022-11-04T14:43:42.0000000+00:00</time></trkpt><trkpt lat="39.45318262" lon="-0.34692555"><ele>5.2</ele><time>2022-11-04T14:43:43.0000000+00:00</time></trkpt><trkpt lat="39.45317843" lon="-0.34691809"><ele>5.2</ele><time>2022-11-04T14:43:44.0000000+00:00</time></trkpt><trkpt lat="39.45317566" lon="-0.34690971"><ele>5.2</ele><time>2022-11-04T14:43:45.0000000+00:00</time></trkpt><trkpt lat="39.4531646" lon="-0.34690468"><ele>5.2</ele><time>2022-11-04T14:43:46.0000000+00:00</time></trkpt><trkpt lat="39.45315094" lon="-0.3468994"><ele>5.2</ele><time>2022-11-04T14:43:47.0000000+00:00</time></trkpt><trkpt lat="39.45313325" lon="-0.34689152"><ele>5.2</ele><time>2022-11-04T14:43:48.0000000+00:00</time></trkpt><trkpt lat="39.45311758" lon="-0.34688733"><ele>5.2</ele><time>2022-11-04T14:43:49.0000000+00:00</time></trkpt><trkpt lat="39.45310224" lon="-0.34688573"><ele>5.2</ele><time>2022-11-04T14:43:50.0000000+00:00</time></trkpt><trkpt lat="39.45308531" lon="-0.3468792"><ele>5.2</ele><time>2022-11-04T14:43:51.0000000+00:00</time></trkpt><trkpt lat="39.45307014" lon="-0.34687475"><ele>5.2</ele><time>2022-11-04T14:43:52.0000000+00:00</time></trkpt><trkpt lat="39.45305488" lon="-0.34687492"><ele>5.2</ele><time>2022-11-04T14:43:53.0000000+00:00</time></trkpt><trkpt lat="39.45303376" lon="-0.34686671"><ele>5.2</ele><time>2022-11-04T14:43:54.0000000+00:00</time></trkpt><trkpt lat="39.45301582" lon="-0.34685095"><ele>5.2</ele><time>2022-11-04T14:43:55.0000000+00:00</time></trkpt><trkpt lat="39.45299596" lon="-0.34683678"><ele>5.2</ele><time>2022-11-04T14:43:56.0000000+00:00</time></trkpt><trkpt lat="39.45298288" lon="-0.34683226"><ele>5.2</ele><time>2022-11-04T14:43:57.0000000+00:00</time></trkpt><trkpt lat="39.45297031" lon="-0.34683502"><ele>5.2</ele><time>2022-11-04T14:43:58.0000000+00:00</time></trkpt><trkpt lat="39.45295849" lon="-0.34684542"><ele>5.2</ele><time>2022-11-04T14:43:59.0000000+00:00</time></trkpt><trkpt lat="39.45295195" lon="-0.3468647"><ele>5.2</ele><time>2022-11-04T14:44:00.0000000+00:00</time></trkpt><trkpt lat="39.45294709" lon="-0.34688372"><ele>5.2</ele><time>2022-11-04T14:44:01.0000000+00:00</time></trkpt><trkpt lat="39.45293997" lon="-0.34689554"><ele>5.2</ele><time>2022-11-04T14:44:02.0000000+00:00</time></trkpt><trkpt lat="39.45293284" lon="-0.34690728"><ele>5.2</ele><time>2022-11-04T14:44:03.0000000+00:00</time></trkpt><trkpt lat="39.45292588" lon="-0.34691993"><ele>5.2</ele><time>2022-11-04T14:44:04.0000000+00:00</time></trkpt><trkpt lat="39.45291851" lon="-0.34693242"><ele>5.2</ele><time>2022-11-04T14:44:05.0000000+00:00</time></trkpt><trkpt lat="39.45291214" lon="-0.34694332"><ele>5.2</ele><time>2022-11-04T14:44:06.0000000+00:00</time></trkpt><trkpt lat="39.45290795" lon="-0.34695824"><ele>5.2</ele><time>2022-11-04T14:44:07.0000000+00:00</time></trkpt><trkpt lat="39.45290132" lon="-0.34696964"><ele>5.2</ele><time>2022-11-04T14:44:08.0000000+00:00</time></trkpt><trkpt lat="39.45289244" lon="-0.34697995"><ele>5.2</ele><time>2022-11-04T14:44:09.0000000+00:00</time></trkpt><trkpt lat="39.452889" lon="-0.34698791"><ele>5.2</ele><time>2022-11-04T14:44:10.0000000+00:00</time></trkpt><trkpt lat="39.45288959" lon="-0.34699487"><ele>5.2</ele><time>2022-11-04T14:44:11.0000000+00:00</time></trkpt><trkpt lat="39.45289118" lon="-0.34699906"><ele>5.2</ele><time>2022-11-04T14:44:12.0000000+00:00</time></trkpt><trkpt lat="39.45289948" lon="-0.34701054"><ele>5.2</ele><time>2022-11-04T14:44:13.0000000+00:00</time></trkpt><trkpt lat="39.4529092" lon="-0.34701683"><ele>5.2</ele><time>2022-11-04T14:44:14.0000000+00:00</time></trkpt><trkpt lat="39.45291373" lon="-0.34701943"><ele>5.2</ele><time>2022-11-04T14:44:15.0000000+00:00</time></trkpt><trkpt lat="39.45291717" lon="-0.34701943"><ele>5.2</ele><time>2022-11-04T14:44:16.0000000+00:00</time></trkpt><trkpt lat="39.45292077" lon="-0.3470185"><ele>5.2</ele><time>2022-11-04T14:44:17.0000000+00:00</time></trkpt><trkpt lat="39.45292035" lon="-0.34701658"><ele>5.2</ele><time>2022-11-04T14:44:18.0000000+00:00</time></trkpt><trkpt lat="39.45291608" lon="-0.3470128"><ele>5.2</ele><time>2022-11-04T14:44:19.0000000+00:00</time></trkpt><trkpt lat="39.45290937" lon="-0.34700383"><ele>5.2</ele><time>2022-11-04T14:44:20.0000000+00:00</time></trkpt><trkpt lat="39.45290828" lon="-0.34699562"><ele>5.2</ele><time>2022-11-04T14:44:21.0000000+00:00</time></trkpt><trkpt lat="39.45291021" lon="-0.3469947"><ele>5.2</ele><time>2022-11-04T14:44:22.0000000+00:00</time></trkpt><trkpt lat="39.4529087" lon="-0.34699068"><ele>5.2</ele><time>2022-11-04T14:44:23.0000000+00:00</time></trkpt><trkpt lat="39.4529004" lon="-0.34699411"><ele>5.2</ele><time>2022-11-04T14:44:24.0000000+00:00</time></trkpt><trkpt lat="39.452889" lon="-0.34699403"><ele>5.2</ele><time>2022-11-04T14:44:25.0000000+00:00</time></trkpt><trkpt lat="39.45288372" lon="-0.34700057"><ele>5.2</ele><time>2022-11-04T14:44:26.0000000+00:00</time></trkpt><trkpt lat="39.45287844" lon="-0.34701607"><ele>5.4</ele><time>2022-11-04T14:44:27.0000000+00:00</time></trkpt><trkpt lat="39.4528735" lon="-0.34703082"><ele>5.4</ele><time>2022-11-04T14:44:28.0000000+00:00</time></trkpt><trkpt lat="39.4528735" lon="-0.34703082"><ele>5.4</ele><time>2022-11-04T14:44:29.0000000+00:00</time></trkpt><trkpt lat="39.4528735" lon="-0.34703082"><ele>5.6</ele><time>2022-11-04T14:44:30.0000000+00:00</time></trkpt><trkpt lat="39.4528735" lon="-0.34703082"><ele>5.6</ele><time>2022-11-04T14:44:31.0000000+00:00</time></trkpt><trkpt lat="39.4528735" lon="-0.34703082"><ele>5.6</ele><time>2022-11-04T14:44:32.0000000+00:00</time></trkpt><trkpt lat="39.4528735" lon="-0.34703082"><ele>5.6</ele><time>2022-11-04T14:44:33.0000000+00:00</time></trkpt><trkpt lat="39.4528735" lon="-0.34703082"><ele>5.6</ele><time>2022-11-04T14:44:34.0000000+00:00</time></trkpt><trkpt lat="39.4528735" lon="-0.34703082"><ele>5.6</ele><time>2022-11-04T14:44:35.0000000+00:00</time></trkpt><trkpt lat="39.4528735" lon="-0.34703082"><ele>5.6</ele><time>2022-11-04T14:44:36.0000000+00:00</time></trkpt><trkpt lat="39.4528735" lon="-0.34703082"><ele>5.6</ele><time>2022-11-04T14:44:37.0000000+00:00</time></trkpt><trkpt lat="39.4528735" lon="-0.34703082"><ele>5.6</ele><time>2022-11-04T14:44:38.0000000+00:00</time></trkpt><trkpt lat="39.4528735" lon="-0.34703082"><ele>5.6</ele><time>2022-11-04T14:44:39.0000000+00:00</time></trkpt><trkpt lat="39.4528735" lon="-0.34703082"><ele>5.6</ele><time>2022-11-04T14:44:40.0000000+00:00</time></trkpt><trkpt lat="39.4528735" lon="-0.34703082"><ele>5.4</ele><time>2022-11-04T14:44:41.0000000+00:00</time></trkpt><trkpt lat="39.4528735" lon="-0.34703082"><ele>5.4</ele><time>2022-11-04T14:44:42.0000000+00:00</time></trkpt><trkpt lat="39.4528735" lon="-0.34703082"><ele>5.4</ele><time>2022-11-04T14:44:43.0000000+00:00</time></trkpt><trkpt lat="39.45287274" lon="-0.34703963"><ele>5.4</ele><time>2022-11-04T14:44:44.0000000+00:00</time></trkpt><trkpt lat="39.45286662" lon="-0.34704348"><ele>5.4</ele><time>2022-11-04T14:44:45.0000000+00:00</time></trkpt><trkpt lat="39.45286243" lon="-0.34704382"><ele>5.4</ele><time>2022-11-04T14:44:46.0000000+00:00</time></trkpt><trkpt lat="39.45285866" lon="-0.34704533"><ele>5.4</ele><time>2022-11-04T14:44:47.0000000+00:00</time></trkpt><trkpt lat="39.45285514" lon="-0.34704558"><ele>5.4</ele><time>2022-11-04T14:44:48.0000000+00:00</time></trkpt><trkpt lat="39.45285481" lon="-0.3470475"><ele>5.4</ele><time>2022-11-04T14:44:49.0000000+00:00</time></trkpt><trkpt lat="39.45285472" lon="-0.34704809"><ele>5.4</ele><time>2022-11-04T14:44:50.0000000+00:00</time></trkpt><trkpt lat="39.45285288" lon="-0.34704818"><ele>5.4</ele><time>2022-11-04T14:44:51.0000000+00:00</time></trkpt><trkpt lat="39.45284961" lon="-0.34704926"><ele>5.2</ele><time>2022-11-04T14:44:52.0000000+00:00</time></trkpt><trkpt lat="39.45284584" lon="-0.34705002"><ele>5.2</ele><time>2022-11-04T14:44:53.0000000+00:00</time></trkpt><trkpt lat="39.45284357" lon="-0.3470501"><ele>5.2</ele><time>2022-11-04T14:44:54.0000000+00:00</time></trkpt><trkpt lat="39.45283989" lon="-0.34705061"><ele>5.2</ele><time>2022-11-04T14:44:55.0000000+00:00</time></trkpt><trkpt lat="39.45283796" lon="-0.34705111"><ele>5.2</ele><time>2022-11-04T14:44:56.0000000+00:00</time></trkpt><trkpt lat="39.45283611" lon="-0.34705128"><ele>5.2</ele><time>2022-11-04T14:44:57.0000000+00:00</time></trkpt><trkpt lat="39.45283477" lon="-0.34705136"><ele>5.2</ele><time>2022-11-04T14:44:58.0000000+00:00</time></trkpt><trkpt lat="39.4528346" lon="-0.34705136"><ele>5.2</ele><time>2022-11-04T14:44:59.0000000+00:00</time></trkpt><trkpt lat="39.4528346" lon="-0.3470517"><ele>5.2</ele><time>2022-11-04T14:45:00.0000000+00:00</time></trkpt><trkpt lat="39.45283452" lon="-0.34705178"><ele>5.2</ele><time>2022-11-04T14:45:01.0000000+00:00</time></trkpt><trkpt lat="39.45283452" lon="-0.34705404"><ele>5.2</ele><time>2022-11-04T14:45:02.0000000+00:00</time></trkpt><trkpt lat="39.45283452" lon="-0.34705463"><ele>5.2</ele><time>2022-11-04T14:45:03.0000000+00:00</time></trkpt><trkpt lat="39.45283452" lon="-0.3470548"><ele>5.2</ele><time>2022-11-04T14:45:04.0000000+00:00</time></trkpt><trkpt lat="39.45283452" lon="-0.34705488"><ele>5.2</ele><time>2022-11-04T14:45:05.0000000+00:00</time></trkpt><trkpt lat="39.45283452" lon="-0.34705513"><ele>5.2</ele><time>2022-11-04T14:45:06.0000000+00:00</time></trkpt><trkpt lat="39.45283452" lon="-0.34705563"><ele>5.0</ele><time>2022-11-04T14:45:07.0000000+00:00</time></trkpt><trkpt lat="39.45283452" lon="-0.34705605"><ele>5.0</ele><time>2022-11-04T14:45:08.0000000+00:00</time></trkpt><trkpt lat="39.45283452" lon="-0.34705731"><ele>5.0</ele><time>2022-11-04T14:45:09.0000000+00:00</time></trkpt><trkpt lat="39.45283452" lon="-0.3470589"><ele>5.0</ele><time>2022-11-04T14:45:10.0000000+00:00</time></trkpt><trkpt lat="39.45283452" lon="-0.34705949"><ele>5.0</ele><time>2022-11-04T14:45:11.0000000+00:00</time></trkpt><trkpt lat="39.45283452" lon="-0.34705966"><ele>4.8</ele><time>2022-11-04T14:45:12.0000000+00:00</time></trkpt><trkpt lat="39.4528367" lon="-0.34705966"><ele>4.8</ele><time>2022-11-04T14:45:13.0000000+00:00</time></trkpt><trkpt lat="39.45283712" lon="-0.34705966"><ele>4.8</ele><time>2022-11-04T14:45:14.0000000+00:00</time></trkpt><trkpt lat="39.4528372" lon="-0.34705966"><ele>4.8</ele><time>2022-11-04T14:45:15.0000000+00:00</time></trkpt><trkpt lat="39.45283729" lon="-0.34705966"><ele>4.8</ele><time>2022-11-04T14:45:16.0000000+00:00</time></trkpt><trkpt lat="39.45283729" lon="-0.34705966"><ele>4.8</ele><time>2022-11-04T14:45:17.0000000+00:00</time></trkpt><trkpt lat="39.45283729" lon="-0.34705966"><ele>4.8</ele><time>2022-11-04T14:45:18.0000000+00:00</time></trkpt><trkpt lat="39.45283729" lon="-0.34705899"><ele>4.8</ele><time>2022-11-04T14:45:19.0000000+00:00</time></trkpt><trkpt lat="39.45283729" lon="-0.34705882"><ele>4.8</ele><time>2022-11-04T14:45:20.0000000+00:00</time></trkpt><trkpt lat="39.45283729" lon="-0.34705874"><ele>4.8</ele><time>2022-11-04T14:45:21.0000000+00:00</time></trkpt><trkpt lat="39.45283762" lon="-0.34705874"><ele>4.8</ele><time>2022-11-04T14:45:22.0000000+00:00</time></trkpt><trkpt lat="39.45283779" lon="-0.34705874"><ele>4.8</ele><time>2022-11-04T14:45:23.0000000+00:00</time></trkpt><trkpt lat="39.45283821" lon="-0.34705874"><ele>4.8</ele><time>2022-11-04T14:45:24.0000000+00:00</time></trkpt><trkpt lat="39.45283846" lon="-0.34705874"><ele>4.8</ele><time>2022-11-04T14:45:25.0000000+00:00</time></trkpt><trkpt lat="39.45283871" lon="-0.34705874"><ele>4.8</ele><time>2022-11-04T14:45:26.0000000+00:00</time></trkpt><trkpt lat="39.45283921" lon="-0.34704776"><ele>4.8</ele><time>2022-11-04T14:45:27.0000000+00:00</time></trkpt><trkpt lat="39.45283989" lon="-0.34703686"><ele>4.8</ele><time>2022-11-04T14:45:28.0000000+00:00</time></trkpt><trkpt lat="39.45284014" lon="-0.34702948"><ele>4.6</ele><time>2022-11-04T14:45:29.0000000+00:00</time></trkpt><trkpt lat="39.45284081" lon="-0.3470263"><ele>4.6</ele><time>2022-11-04T14:45:30.0000000+00:00</time></trkpt><trkpt lat="39.45284114" lon="-0.34702395"><ele>4.6</ele><time>2022-11-04T14:45:31.0000000+00:00</time></trkpt><trkpt lat="39.45284114" lon="-0.3470211"><ele>4.6</ele><time>2022-11-04T14:45:32.0000000+00:00</time></trkpt><trkpt lat="39.45284072" lon="-0.34701834"><ele>4.6</ele><time>2022-11-04T14:45:33.0000000+00:00</time></trkpt><trkpt lat="39.45284039" lon="-0.34701641"><ele>4.6</ele><time>2022-11-04T14:45:34.0000000+00:00</time></trkpt><trkpt lat="39.45283989" lon="-0.34701431"><ele>4.6</ele><time>2022-11-04T14:45:35.0000000+00:00</time></trkpt><trkpt lat="39.45283972" lon="-0.34701347"><ele>4.4</ele><time>2022-11-04T14:45:36.0000000+00:00</time></trkpt><trkpt lat="39.45283963" lon="-0.34701305"><ele>4.4</ele><time>2022-11-04T14:45:37.0000000+00:00</time></trkpt><trkpt lat="39.45283963" lon="-0.34701289"><ele>4.4</ele><time>2022-11-04T14:45:38.0000000+00:00</time></trkpt><trkpt lat="39.45283963" lon="-0.3470128"><ele>4.4</ele><time>2022-11-04T14:45:39.0000000+00:00</time></trkpt><trkpt lat="39.4528393" lon="-0.34701238"><ele>4.4</ele><time>2022-11-04T14:45:40.0000000+00:00</time></trkpt><trkpt lat="39.45283913" lon="-0.34701222"><ele>4.4</ele><time>2022-11-04T14:45:41.0000000+00:00</time></trkpt><trkpt lat="39.45283905" lon="-0.34701213"><ele>4.4</ele><time>2022-11-04T14:45:42.0000000+00:00</time></trkpt><trkpt lat="39.45283896" lon="-0.34701213"><ele>4.4</ele><time>2022-11-04T14:45:43.0000000+00:00</time></trkpt><trkpt lat="39.45283905" lon="-0.34701213"><ele>4.6</ele><time>2022-11-04T14:45:44.0000000+00:00</time></trkpt><trkpt lat="39.45283938" lon="-0.34701213"><ele>4.6</ele><time>2022-11-04T14:45:45.0000000+00:00</time></trkpt><trkpt lat="39.45283963" lon="-0.34701213"><ele>4.8</ele><time>2022-11-04T14:45:46.0000000+00:00</time></trkpt><trkpt lat="39.45284005" lon="-0.34701213"><ele>5.0</ele><time>2022-11-04T14:45:47.0000000+00:00</time></trkpt><trkpt lat="39.45284022" lon="-0.34701213"><ele>5.0</ele><time>2022-11-04T14:45:48.0000000+00:00</time></trkpt><trkpt lat="39.45284039" lon="-0.34701213"><ele>5.0</ele><time>2022-11-04T14:45:49.0000000+00:00</time></trkpt><trkpt lat="39.45284064" lon="-0.34701213"><ele>5.0</ele><time>2022-11-04T14:45:50.0000000+00:00</time></trkpt><trkpt lat="39.45284081" lon="-0.34701247"><ele>5.0</ele><time>2022-11-04T14:45:51.0000000+00:00</time></trkpt><trkpt lat="39.45284098" lon="-0.34701272"><ele>5.0</ele><time>2022-11-04T14:45:52.0000000+00:00</time></trkpt><trkpt lat="39.45284123" lon="-0.34701272"><ele>5.0</ele><time>2022-11-04T14:45:53.0000000+00:00</time></trkpt><trkpt lat="39.45284131" lon="-0.3470128"><ele>5.0</ele><time>2022-11-04T14:45:54.0000000+00:00</time></trkpt><trkpt lat="39.45284215" lon="-0.3470128"><ele>4.8</ele><time>2022-11-04T14:45:55.0000000+00:00</time></trkpt><trkpt lat="39.45284265" lon="-0.34701305"><ele>4.8</ele><time>2022-11-04T14:45:56.0000000+00:00</time></trkpt><trkpt lat="39.45284332" lon="-0.34701532"><ele>4.8</ele><time>2022-11-04T14:45:57.0000000+00:00</time></trkpt><trkpt lat="39.45284366" lon="-0.34701976"><ele>4.8</ele><time>2022-11-04T14:45:58.0000000+00:00</time></trkpt><trkpt lat="39.45284441" lon="-0.34702177"><ele>4.8</ele><time>2022-11-04T14:45:59.0000000+00:00</time></trkpt><trkpt lat="39.4528455" lon="-0.34702303"><ele>5.0</ele><time>2022-11-04T14:46:00.0000000+00:00</time></trkpt><trkpt lat="39.45284885" lon="-0.3470237"><ele>5.0</ele><time>2022-11-04T14:46:01.0000000+00:00</time></trkpt><trkpt lat="39.45285321" lon="-0.34702412"><ele>5.0</ele><time>2022-11-04T14:46:02.0000000+00:00</time></trkpt><trkpt lat="39.4528574" lon="-0.34702437"><ele>5.0</ele><time>2022-11-04T14:46:03.0000000+00:00</time></trkpt><trkpt lat="39.45285975" lon="-0.34702454"><ele>5.6</ele><time>2022-11-04T14:46:04.0000000+00:00</time></trkpt><trkpt lat="39.45286118" lon="-0.34702512"><ele>5.6</ele><time>2022-11-04T14:46:05.0000000+00:00</time></trkpt><trkpt lat="39.45286252" lon="-0.34702554"><ele>5.6</ele><time>2022-11-04T14:46:06.0000000+00:00</time></trkpt><trkpt lat="39.45286369" lon="-0.3470258"><ele>5.6</ele><time>2022-11-04T14:46:07.0000000+00:00</time></trkpt><trkpt lat="39.4528647" lon="-0.34702621"><ele>5.6</ele><time>2022-11-04T14:46:08.0000000+00:00</time></trkpt><trkpt lat="39.45286562" lon="-0.34702655"><ele>5.8</ele><time>2022-11-04T14:46:09.0000000+00:00</time></trkpt><trkpt lat="39.45286671" lon="-0.34702672"><ele>5.8</ele><time>2022-11-04T14:46:10.0000000+00:00</time></trkpt><trkpt lat="39.45286755" lon="-0.34702689"><ele>6.0</ele><time>2022-11-04T14:46:11.0000000+00:00</time></trkpt><trkpt lat="39.45286805" lon="-0.34702705"><ele>6.0</ele><time>2022-11-04T14:46:12.0000000+00:00</time></trkpt><trkpt lat="39.4528683" lon="-0.34702747"><ele>6.2</ele><time>2022-11-04T14:46:13.0000000+00:00</time></trkpt><trkpt lat="39.45286838" lon="-0.34702848"><ele>6.2</ele><time>2022-11-04T14:46:14.0000000+00:00</time></trkpt><trkpt lat="39.45286847" lon="-0.34702932"><ele>6.2</ele><time>2022-11-04T14:46:15.0000000+00:00</time></trkpt><trkpt lat="39.4528688" lon="-0.34702999"><ele>6.2</ele><time>2022-11-04T14:46:16.0000000+00:00</time></trkpt><trkpt lat="39.45286922" lon="-0.34703032"><ele>6.2</ele><time>2022-11-04T14:46:17.0000000+00:00</time></trkpt><trkpt lat="39.45286947" lon="-0.34703057"><ele>6.4</ele><time>2022-11-04T14:46:18.0000000+00:00</time></trkpt><trkpt lat="39.45286964" lon="-0.34703074"><ele>6.4</ele><time>2022-11-04T14:46:19.0000000+00:00</time></trkpt><trkpt lat="39.45286981" lon="-0.34703099"><ele>6.4</ele><time>2022-11-04T14:46:20.0000000+00:00</time></trkpt><trkpt lat="39.45286998" lon="-0.34703116"><ele>6.6</ele><time>2022-11-04T14:46:21.0000000+00:00</time></trkpt><trkpt lat="39.45286998" lon="-0.34703141"><ele>6.6</ele><time>2022-11-04T14:46:22.0000000+00:00</time></trkpt><trkpt lat="39.45287006" lon="-0.34703166"><ele>6.8</ele><time>2022-11-04T14:46:23.0000000+00:00</time></trkpt><trkpt lat="39.45287006" lon="-0.34703183"><ele>6.8</ele><time>2022-11-04T14:46:24.0000000+00:00</time></trkpt><trkpt lat="39.45287006" lon="-0.34703233"><ele>7.0</ele><time>2022-11-04T14:46:25.0000000+00:00</time></trkpt><trkpt lat="39.45287006" lon="-0.34703309"><ele>7.0</ele><time>2022-11-04T14:46:26.0000000+00:00</time></trkpt><trkpt lat="39.45287006" lon="-0.34703451"><ele>7.0</ele><time>2022-11-04T14:46:27.0000000+00:00</time></trkpt><trkpt lat="39.45287006" lon="-0.34703661"><ele>6.8</ele><time>2022-11-04T14:46:28.0000000+00:00</time></trkpt><trkpt lat="39.45286998" lon="-0.34703778"><ele>6.8</ele><time>2022-11-04T14:46:29.0000000+00:00</time></trkpt><trkpt lat="39.45286981" lon="-0.34703854"><ele>6.8</ele><time>2022-11-04T14:46:30.0000000+00:00</time></trkpt><trkpt lat="39.45286931" lon="-0.34703895"><ele>6.6</ele><time>2022-11-04T14:46:31.0000000+00:00</time></trkpt><trkpt lat="39.45286905" lon="-0.34703921"><ele>6.6</ele><time>2022-11-04T14:46:32.0000000+00:00</time></trkpt><trkpt lat="39.45286855" lon="-0.34703963"><ele>6.4</ele><time>2022-11-04T14:46:33.0000000+00:00</time></trkpt><trkpt lat="39.45286805" lon="-0.34703988"><ele>6.4</ele><time>2022-11-04T14:46:34.0000000+00:00</time></trkpt><trkpt lat="39.45286755" lon="-0.34704004"><ele>6.4</ele><time>2022-11-04T14:46:35.0000000+00:00</time></trkpt><trkpt lat="39.45286688" lon="-0.34704013"><ele>6.4</ele><time>2022-11-04T14:46:36.0000000+00:00</time></trkpt><trkpt lat="39.45286646" lon="-0.34704021"><ele>6.4</ele><time>2022-11-04T14:46:37.0000000+00:00</time></trkpt><trkpt lat="39.45286587" lon="-0.34704021"><ele>6.4</ele><time>2022-11-04T14:46:38.0000000+00:00</time></trkpt><trkpt lat="39.45286553" lon="-0.3470403"><ele>6.6</ele><time>2022-11-04T14:46:39.0000000+00:00</time></trkpt><trkpt lat="39.4528652" lon="-0.3470403"><ele>6.6</ele><time>2022-11-04T14:46:40.0000000+00:00</time></trkpt><trkpt lat="39.45286495" lon="-0.3470403"><ele>6.8</ele><time>2022-11-04T14:46:41.0000000+00:00</time></trkpt><trkpt lat="39.45286444" lon="-0.3470403"><ele>6.8</ele><time>2022-11-04T14:46:42.0000000+00:00</time></trkpt><trkpt lat="39.45286403" lon="-0.34704013"><ele>6.8</ele><time>2022-11-04T14:46:43.0000000+00:00</time></trkpt><trkpt lat="39.45286369" lon="-0.34703996"><ele>6.8</ele><time>2022-11-04T14:46:44.0000000+00:00</time></trkpt><trkpt lat="39.45286327" lon="-0.34703937"><ele>6.8</ele><time>2022-11-04T14:46:45.0000000+00:00</time></trkpt><trkpt lat="39.45286302" lon="-0.34703887"><ele>6.8</ele><time>2022-11-04T14:46:46.0000000+00:00</time></trkpt><trkpt lat="39.45286277" lon="-0.34703854"><ele>6.8</ele><time>2022-11-04T14:46:47.0000000+00:00</time></trkpt><trkpt lat="39.45286252" lon="-0.34703787"><ele>6.8</ele><time>2022-11-04T14:46:48.0000000+00:00</time></trkpt><trkpt lat="39.45286235" lon="-0.34703694"><ele>6.8</ele><time>2022-11-04T14:46:49.0000000+00:00</time></trkpt><trkpt lat="39.4528621" lon="-0.34703543"><ele>6.8</ele><time>2022-11-04T14:46:50.0000000+00:00</time></trkpt><trkpt lat="39.45286193" lon="-0.34703409"><ele>6.8</ele><time>2022-11-04T14:46:51.0000000+00:00</time></trkpt><trkpt lat="39.45286176" lon="-0.34703309"><ele>6.8</ele><time>2022-11-04T14:46:52.0000000+00:00</time></trkpt><trkpt lat="39.45286151" lon="-0.34703242"><ele>6.8</ele><time>2022-11-04T14:46:53.0000000+00:00</time></trkpt><trkpt lat="39.45286134" lon="-0.34703191"><ele>6.8</ele><time>2022-11-04T14:46:54.0000000+00:00</time></trkpt><trkpt lat="39.45286109" lon="-0.34703158"><ele>6.8</ele><time>2022-11-04T14:46:55.0000000+00:00</time></trkpt><trkpt lat="39.45286092" lon="-0.34703133"><ele>6.8</ele><time>2022-11-04T14:46:56.0000000+00:00</time></trkpt><trkpt lat="39.45286067" lon="-0.34703116"><ele>6.8</ele><time>2022-11-04T14:46:57.0000000+00:00</time></trkpt><trkpt lat="39.45286042" lon="-0.34703099"><ele>6.8</ele><time>2022-11-04T14:46:58.0000000+00:00</time></trkpt><trkpt lat="39.45286017" lon="-0.34703091"><ele>6.8</ele><time>2022-11-04T14:46:59.0000000+00:00</time></trkpt><trkpt lat="39.45285975" lon="-0.34703082"><ele>6.8</ele><time>2022-11-04T14:47:00.0000000+00:00</time></trkpt><trkpt lat="39.4528595" lon="-0.34703074"><ele>6.8</ele><time>2022-11-04T14:47:01.0000000+00:00</time></trkpt><trkpt lat="39.45285933" lon="-0.34703074"><ele>6.8</ele><time>2022-11-04T14:47:02.0000000+00:00</time></trkpt><trkpt lat="39.45285908" lon="-0.34703074"><ele>6.8</ele><time>2022-11-04T14:47:03.0000000+00:00</time></trkpt><trkpt lat="39.45285891" lon="-0.34703066"><ele>6.8</ele><time>2022-11-04T14:47:04.0000000+00:00</time></trkpt><trkpt lat="39.45285866" lon="-0.34703066"><ele>6.8</ele><time>2022-11-04T14:47:05.0000000+00:00</time></trkpt><trkpt lat="39.45285849" lon="-0.34703074"><ele>6.8</ele><time>2022-11-04T14:47:06.0000000+00:00</time></trkpt><trkpt lat="39.45285833" lon="-0.34703091"><ele>6.8</ele><time>2022-11-04T14:47:07.0000000+00:00</time></trkpt><trkpt lat="39.45285824" lon="-0.34703166"><ele>6.8</ele><time>2022-11-04T14:47:08.0000000+00:00</time></trkpt><trkpt lat="39.45285816" lon="-0.34703292"><ele>6.8</ele><time>2022-11-04T14:47:09.0000000+00:00</time></trkpt><trkpt lat="39.45285807" lon="-0.34703393"><ele>6.8</ele><time>2022-11-04T14:47:10.0000000+00:00</time></trkpt><trkpt lat="39.45285807" lon="-0.34703485"><ele>6.6</ele><time>2022-11-04T14:47:11.0000000+00:00</time></trkpt><trkpt lat="39.45285799" lon="-0.34703569"><ele>6.6</ele><time>2022-11-04T14:47:12.0000000+00:00</time></trkpt><trkpt lat="39.45285799" lon="-0.34703644"><ele>6.6</ele><time>2022-11-04T14:47:13.0000000+00:00</time></trkpt><trkpt lat="39.45285791" lon="-0.34703719"><ele>6.6</ele><time>2022-11-04T14:47:14.0000000+00:00</time></trkpt><trkpt lat="39.45285791" lon="-0.34703778"><ele>6.6</ele><time>2022-11-04T14:47:15.0000000+00:00</time></trkpt><trkpt lat="39.45285791" lon="-0.34703854"><ele>6.6</ele><time>2022-11-04T14:47:16.0000000+00:00</time></trkpt><trkpt lat="39.45285791" lon="-0.34703971"><ele>6.6</ele><time>2022-11-04T14:47:17.0000000+00:00</time></trkpt><trkpt lat="39.45285791" lon="-0.34704105"><ele>6.6</ele><time>2022-11-04T14:47:18.0000000+00:00</time></trkpt><trkpt lat="39.45285799" lon="-0.34704239"><ele>6.6</ele><time>2022-11-04T14:47:19.0000000+00:00</time></trkpt><trkpt lat="39.45285799" lon="-0.3470439"><ele>6.8</ele><time>2022-11-04T14:47:20.0000000+00:00</time></trkpt><trkpt lat="39.45285799" lon="-0.34704566"><ele>6.8</ele><time>2022-11-04T14:47:21.0000000+00:00</time></trkpt><trkpt lat="39.45285807" lon="-0.34704734"><ele>6.8</ele><time>2022-11-04T14:47:22.0000000+00:00</time></trkpt><trkpt lat="39.45285807" lon="-0.34704868"><ele>6.8</ele><time>2022-11-04T14:47:23.0000000+00:00</time></trkpt><trkpt lat="39.45285816" lon="-0.34704985"><ele>6.8</ele><time>2022-11-04T14:47:24.0000000+00:00</time></trkpt><trkpt lat="39.45285841" lon="-0.34705077"><ele>6.8</ele><time>2022-11-04T14:47:25.0000000+00:00</time></trkpt><trkpt lat="39.45285891" lon="-0.34705161"><ele>6.4</ele><time>2022-11-04T14:47:26.0000000+00:00</time></trkpt><trkpt lat="39.4528595" lon="-0.34705228"><ele>6.4</ele><time>2022-11-04T14:47:27.0000000+00:00</time></trkpt><trkpt lat="39.45286009" lon="-0.34705295"><ele>6.2</ele><time>2022-11-04T14:47:28.0000000+00:00</time></trkpt><trkpt lat="39.45286076" lon="-0.34705354"><ele>6.2</ele><time>2022-11-04T14:47:29.0000000+00:00</time></trkpt><trkpt lat="39.45286126" lon="-0.34705421"><ele>6.0</ele><time>2022-11-04T14:47:30.0000000+00:00</time></trkpt><trkpt lat="39.45286176" lon="-0.34705471"><ele>6.0</ele><time>2022-11-04T14:47:31.0000000+00:00</time></trkpt><trkpt lat="39.45286227" lon="-0.34705522"><ele>6.0</ele><time>2022-11-04T14:47:32.0000000+00:00</time></trkpt><trkpt lat="39.4528626" lon="-0.34705572"><ele>5.8</ele><time>2022-11-04T14:47:33.0000000+00:00</time></trkpt><trkpt lat="39.45286302" lon="-0.34705614"><ele>5.8</ele><time>2022-11-04T14:47:34.0000000+00:00</time></trkpt><trkpt lat="39.45286344" lon="-0.34705656"><ele>5.8</ele><time>2022-11-04T14:47:35.0000000+00:00</time></trkpt><trkpt lat="39.45286386" lon="-0.34705689"><ele>5.8</ele><time>2022-11-04T14:47:36.0000000+00:00</time></trkpt><trkpt lat="39.45286419" lon="-0.34705714"><ele>5.8</ele><time>2022-11-04T14:47:37.0000000+00:00</time></trkpt><trkpt lat="39.45286453" lon="-0.3470574"><ele>6.0</ele><time>2022-11-04T14:47:38.0000000+00:00</time></trkpt><trkpt lat="39.45286486" lon="-0.34705756"><ele>6.0</ele><time>2022-11-04T14:47:39.0000000+00:00</time></trkpt><trkpt lat="39.4528652" lon="-0.34705765"><ele>6.0</ele><time>2022-11-04T14:47:40.0000000+00:00</time></trkpt><trkpt lat="39.45286553" lon="-0.34705773"><ele>6.0</ele><time>2022-11-04T14:47:41.0000000+00:00</time></trkpt><trkpt lat="39.45286604" lon="-0.34705781"><ele>6.0</ele><time>2022-11-04T14:47:42.0000000+00:00</time></trkpt><trkpt lat="39.45286662" lon="-0.3470579"><ele>6.0</ele><time>2022-11-04T14:47:43.0000000+00:00</time></trkpt><trkpt lat="39.45286713" lon="-0.34705798"><ele>6.0</ele><time>2022-11-04T14:47:44.0000000+00:00</time></trkpt><trkpt lat="39.45286763" lon="-0.34705798"><ele>6.0</ele><time>2022-11-04T14:47:45.0000000+00:00</time></trkpt><trkpt lat="39.45286805" lon="-0.34705807"><ele>6.0</ele><time>2022-11-04T14:47:46.0000000+00:00</time></trkpt><trkpt lat="39.45286838" lon="-0.34705807"><ele>6.0</ele><time>2022-11-04T14:47:47.0000000+00:00</time></trkpt><trkpt lat="39.45286855" lon="-0.34705807"><ele>6.0</ele><time>2022-11-04T14:47:48.0000000+00:00</time></trkpt><trkpt lat="39.45286855" lon="-0.34705807"><ele>6.0</ele><time>2022-11-04T14:47:49.0000000+00:00</time></trkpt><trkpt lat="39.45286838" lon="-0.34705807"><ele>6.0</ele><time>2022-11-04T14:47:50.0000000+00:00</time></trkpt><trkpt lat="39.4528683" lon="-0.34705815"><ele>6.2</ele><time>2022-11-04T14:47:51.0000000+00:00</time></trkpt><trkpt lat="39.45286822" lon="-0.34705807"><ele>6.2</ele><time>2022-11-04T14:47:52.0000000+00:00</time></trkpt><trkpt lat="39.45286805" lon="-0.34705798"><ele>6.2</ele><time>2022-11-04T14:47:53.0000000+00:00</time></trkpt><trkpt lat="39.45286796" lon="-0.3470579"><ele>6.4</ele><time>2022-11-04T14:47:54.0000000+00:00</time></trkpt><trkpt lat="39.4528678" lon="-0.3470579"><ele>6.4</ele><time>2022-11-04T14:47:55.0000000+00:00</time></trkpt><trkpt lat="39.45286763" lon="-0.34705781"><ele>6.4</ele><time>2022-11-04T14:47:56.0000000+00:00</time></trkpt><trkpt lat="39.45286746" lon="-0.34705756"><ele>6.6</ele><time>2022-11-04T14:47:57.0000000+00:00</time></trkpt><trkpt lat="39.45286721" lon="-0.3470574"><ele>6.6</ele><time>2022-11-04T14:47:58.0000000+00:00</time></trkpt><trkpt lat="39.45286713" lon="-0.34705756"><ele>6.6</ele><time>2022-11-04T14:47:59.0000000+00:00</time></trkpt><trkpt lat="39.45286713" lon="-0.34705773"><ele>6.6</ele><time>2022-11-04T14:48:00.0000000+00:00</time></trkpt><trkpt lat="39.45286721" lon="-0.34705798"><ele>6.6</ele><time>2022-11-04T14:48:01.0000000+00:00</time></trkpt><trkpt lat="39.45286721" lon="-0.34705815"><ele>6.6</ele><time>2022-11-04T14:48:02.0000000+00:00</time></trkpt><trkpt lat="39.45286746" lon="-0.3470584"><ele>6.6</ele><time>2022-11-04T14:48:03.0000000+00:00</time></trkpt><trkpt lat="39.45286755" lon="-0.34705857"><ele>6.6</ele><time>2022-11-04T14:48:04.0000000+00:00</time></trkpt><trkpt lat="39.45286763" lon="-0.34705857"><ele>6.6</ele><time>2022-11-04T14:48:05.0000000+00:00</time></trkpt><trkpt lat="39.45286771" lon="-0.34705857"><ele>6.8</ele><time>2022-11-04T14:48:06.0000000+00:00</time></trkpt><trkpt lat="39.45286771" lon="-0.34705857"><ele>6.8</ele><time>2022-11-04T14:48:07.0000000+00:00</time></trkpt><trkpt lat="39.45286771" lon="-0.34705865"><ele>6.8</ele><time>2022-11-04T14:48:08.0000000+00:00</time></trkpt><trkpt lat="39.45286771" lon="-0.34705857"><ele>6.8</ele><time>2022-11-04T14:48:09.0000000+00:00</time></trkpt><trkpt lat="39.45286763" lon="-0.3470584"><ele>6.8</ele><time>2022-11-04T14:48:10.0000000+00:00</time></trkpt><trkpt lat="39.45286746" lon="-0.34705832"><ele>6.8</ele><time>2022-11-04T14:48:11.0000000+00:00</time></trkpt><trkpt lat="39.45286729" lon="-0.34705823"><ele>6.6</ele><time>2022-11-04T14:48:12.0000000+00:00</time></trkpt><trkpt lat="39.45286721" lon="-0.34705815"><ele>6.6</ele><time>2022-11-04T14:48:13.0000000+00:00</time></trkpt><trkpt lat="39.45286696" lon="-0.34705815"><ele>6.6</ele><time>2022-11-04T14:48:14.0000000+00:00</time></trkpt><trkpt lat="39.45286679" lon="-0.34705823"><ele>6.6</ele><time>2022-11-04T14:48:15.0000000+00:00</time></trkpt><trkpt lat="39.45286654" lon="-0.3470584"><ele>6.8</ele><time>2022-11-04T14:48:16.0000000+00:00</time></trkpt><trkpt lat="39.45286637" lon="-0.34705865"><ele>6.8</ele><time>2022-11-04T14:48:17.0000000+00:00</time></trkpt><trkpt lat="39.45286629" lon="-0.3470589"><ele>7.0</ele><time>2022-11-04T14:48:18.0000000+00:00</time></trkpt><trkpt lat="39.4528662" lon="-0.34705907"><ele>7.0</ele><time>2022-11-04T14:48:19.0000000+00:00</time></trkpt><trkpt lat="39.45286629" lon="-0.34705924"><ele>7.0</ele><time>2022-11-04T14:48:20.0000000+00:00</time></trkpt><trkpt lat="39.45286629" lon="-0.34705941"><ele>7.0</ele><time>2022-11-04T14:48:21.0000000+00:00</time></trkpt><trkpt lat="39.45286637" lon="-0.34705941"><ele>7.0</ele><time>2022-11-04T14:48:22.0000000+00:00</time></trkpt><trkpt lat="39.45286637" lon="-0.34705932"><ele>7.0</ele><time>2022-11-04T14:48:23.0000000+00:00</time></trkpt><trkpt lat="39.45286654" lon="-0.34705932"><ele>7.0</ele><time>2022-11-04T14:48:24.0000000+00:00</time></trkpt><trkpt lat="39.45286654" lon="-0.34705924"><ele>6.8</ele><time>2022-11-04T14:48:25.0000000+00:00</time></trkpt><trkpt lat="39.45286637" lon="-0.34705916"><ele>6.8</ele><time>2022-11-04T14:48:26.0000000+00:00</time></trkpt><trkpt lat="39.4528662" lon="-0.34705916"><ele>6.8</ele><time>2022-11-04T14:48:27.0000000+00:00</time></trkpt><trkpt lat="39.45286637" lon="-0.34705924"><ele>6.6</ele><time>2022-11-04T14:48:28.0000000+00:00</time></trkpt><trkpt lat="39.45286646" lon="-0.34705916"><ele>6.6</ele><time>2022-11-04T14:48:29.0000000+00:00</time></trkpt><trkpt lat="39.45286629" lon="-0.34705882"><ele>6.6</ele><time>2022-11-04T14:48:30.0000000+00:00</time></trkpt><trkpt lat="39.45286604" lon="-0.34705848"><ele>6.4</ele><time>2022-11-04T14:48:31.0000000+00:00</time></trkpt><trkpt lat="39.45286587" lon="-0.34705807"><ele>6.4</ele><time>2022-11-04T14:48:32.0000000+00:00</time></trkpt><trkpt lat="39.45286553" lon="-0.34705765"><ele>6.4</ele><time>2022-11-04T14:48:33.0000000+00:00</time></trkpt><trkpt lat="39.4528652" lon="-0.34705731"><ele>6.4</ele><time>2022-11-04T14:48:34.0000000+00:00</time></trkpt><trkpt lat="39.45286511" lon="-0.34705706"><ele>6.4</ele><time>2022-11-04T14:48:35.0000000+00:00</time></trkpt><trkpt lat="39.45286503" lon="-0.34705681"><ele>6.2</ele><time>2022-11-04T14:48:36.0000000+00:00</time></trkpt><trkpt lat="39.45286503" lon="-0.34705664"><ele>6.2</ele><time>2022-11-04T14:48:37.0000000+00:00</time></trkpt><trkpt lat="39.4528652" lon="-0.34705656"><ele>6.2</ele><time>2022-11-04T14:48:38.0000000+00:00</time></trkpt><trkpt lat="39.45286528" lon="-0.34705664"><ele>6.2</ele><time>2022-11-04T14:48:39.0000000+00:00</time></trkpt><trkpt lat="39.4528652" lon="-0.34705664"><ele>6.2</ele><time>2022-11-04T14:48:40.0000000+00:00</time></trkpt><trkpt lat="39.45286528" lon="-0.34705672"><ele>6.2</ele><time>2022-11-04T14:48:41.0000000+00:00</time></trkpt><trkpt lat="39.45286528" lon="-0.34705681"><ele>6.2</ele><time>2022-11-04T14:48:42.0000000+00:00</time></trkpt><trkpt lat="39.45286528" lon="-0.34705689"><ele>6.2</ele><time>2022-11-04T14:48:43.0000000+00:00</time></trkpt><trkpt lat="39.45286528" lon="-0.34705698"><ele>6.2</ele><time>2022-11-04T14:48:44.0000000+00:00</time></trkpt><trkpt lat="39.45286654" lon="-0.3470532"><ele>6.2</ele><time>2022-11-04T14:48:45.0000000+00:00</time></trkpt><trkpt lat="39.45287241" lon="-0.34705597"><ele>6.2</ele><time>2022-11-04T14:48:46.0000000+00:00</time></trkpt><trkpt lat="39.4528776" lon="-0.34705924"><ele>6.2</ele><time>2022-11-04T14:48:47.0000000+00:00</time></trkpt><trkpt lat="39.45288221" lon="-0.34706393"><ele>6.2</ele><time>2022-11-04T14:48:48.0000000+00:00</time></trkpt><trkpt lat="39.45288205" lon="-0.34706905"><ele>6.2</ele><time>2022-11-04T14:48:49.0000000+00:00</time></trkpt><trkpt lat="39.45288104" lon="-0.34707106"><ele>6.2</ele><time>2022-11-04T14:48:50.0000000+00:00</time></trkpt><trkpt lat="39.45287827" lon="-0.34707324"><ele>6.2</ele><time>2022-11-04T14:48:51.0000000+00:00</time></trkpt><trkpt lat="39.45287568" lon="-0.34707709"><ele>6.2</ele><time>2022-11-04T14:48:52.0000000+00:00</time></trkpt><trkpt lat="39.4528761" lon="-0.34707902"><ele>6.2</ele><time>2022-11-04T14:48:53.0000000+00:00</time></trkpt><trkpt lat="39.45287542" lon="-0.34708858"><ele>6.2</ele><time>2022-11-04T14:48:54.0000000+00:00</time></trkpt><trkpt lat="39.45287668" lon="-0.3471102"><ele>6.2</ele><time>2022-11-04T14:48:55.0000000+00:00</time></trkpt><trkpt lat="39.45288381" lon="-0.34712965"><ele>6.4</ele><time>2022-11-04T14:48:56.0000000+00:00</time></trkpt><trkpt lat="39.45288481" lon="-0.34715479"><ele>6.4</ele><time>2022-11-04T14:48:57.0000000+00:00</time></trkpt><trkpt lat="39.45288749" lon="-0.3471817"><ele>6.4</ele><time>2022-11-04T14:48:58.0000000+00:00</time></trkpt><trkpt lat="39.45289202" lon="-0.34720081"><ele>6.4</ele><time>2022-11-04T14:48:59.0000000+00:00</time></trkpt><trkpt lat="39.45288565" lon="-0.34721447"><ele>6.4</ele><time>2022-11-04T14:49:00.0000000+00:00</time></trkpt><trkpt lat="39.4528802" lon="-0.34722629"><ele>6.6</ele><time>2022-11-04T14:49:01.0000000+00:00</time></trkpt><trkpt lat="39.452874" lon="-0.34723803"><ele>6.8</ele><time>2022-11-04T14:49:02.0000000+00:00</time></trkpt><trkpt lat="39.45286813" lon="-0.3472444"><ele>6.8</ele><time>2022-11-04T14:49:03.0000000+00:00</time></trkpt><trkpt lat="39.45285665" lon="-0.34725781"><ele>7.0</ele><time>2022-11-04T14:49:04.0000000+00:00</time></trkpt><trkpt lat="39.45285053" lon="-0.34726786"><ele>7.0</ele><time>2022-11-04T14:49:05.0000000+00:00</time></trkpt><trkpt lat="39.45284852" lon="-0.34727893"><ele>7.0</ele><time>2022-11-04T14:49:06.0000000+00:00</time></trkpt><trkpt lat="39.45284952" lon="-0.34728647"><ele>6.6</ele><time>2022-11-04T14:49:07.0000000+00:00</time></trkpt><trkpt lat="39.45285229" lon="-0.34729402"><ele>6.4</ele><time>2022-11-04T14:49:08.0000000+00:00</time></trkpt><trkpt lat="39.45285665" lon="-0.34729854"><ele>6.4</ele><time>2022-11-04T14:49:09.0000000+00:00</time></trkpt><trkpt lat="39.4528631" lon="-0.34730667"><ele>6.2</ele><time>2022-11-04T14:49:10.0000000+00:00</time></trkpt><trkpt lat="39.45286729" lon="-0.34731992"><ele>6.2</ele><time>2022-11-04T14:49:11.0000000+00:00</time></trkpt><trkpt lat="39.45287241" lon="-0.34733442"><ele>6.2</ele><time>2022-11-04T14:49:12.0000000+00:00</time></trkpt><trkpt lat="39.45287861" lon="-0.34735185"><ele>6.2</ele><time>2022-11-04T14:49:13.0000000+00:00</time></trkpt><trkpt lat="39.45288766" lon="-0.34736836"><ele>6.2</ele><time>2022-11-04T14:49:14.0000000+00:00</time></trkpt><trkpt lat="39.4528994" lon="-0.34738161"><ele>6.2</ele><time>2022-11-04T14:49:15.0000000+00:00</time></trkpt><trkpt lat="39.45291155" lon="-0.34739016"><ele>6.2</ele><time>2022-11-04T14:49:16.0000000+00:00</time></trkpt><trkpt lat="39.45292404" lon="-0.34739862"><ele>6.4</ele><time>2022-11-04T14:49:17.0000000+00:00</time></trkpt><trkpt lat="39.45293251" lon="-0.34740726"><ele>6.4</ele><time>2022-11-04T14:49:18.0000000+00:00</time></trkpt><trkpt lat="39.45294072" lon="-0.34741673"><ele>6.4</ele><time>2022-11-04T14:49:19.0000000+00:00</time></trkpt><trkpt lat="39.45294944" lon="-0.34742176"><ele>6.4</ele><time>2022-11-04T14:49:20.0000000+00:00</time></trkpt><trkpt lat="39.45296176" lon="-0.34741941"><ele>6.4</ele><time>2022-11-04T14:49:21.0000000+00:00</time></trkpt><trkpt lat="39.45296444" lon="-0.3474179"><ele>6.2</ele><time>2022-11-04T14:49:22.0000000+00:00</time></trkpt><trkpt lat="39.45296855" lon="-0.34741287"><ele>6.2</ele><time>2022-11-04T14:49:23.0000000+00:00</time></trkpt><trkpt lat="39.45297056" lon="-0.34740709"><ele>6.2</ele><time>2022-11-04T14:49:24.0000000+00:00</time></trkpt><trkpt lat="39.45297249" lon="-0.34740256"><ele>6.2</ele><time>2022-11-04T14:49:25.0000000+00:00</time></trkpt><trkpt lat="39.45297869" lon="-0.34738965"><ele>6.0</ele><time>2022-11-04T14:49:27.0000000+00:00</time></trkpt><trkpt lat="39.45303535" lon="-0.34725068"><ele>6.2</ele><time>2022-11-04T14:49:43.0000000+00:00</time></trkpt><trkpt lat="39.45305513" lon="-0.34721757"><ele>6.4</ele><time>2022-11-04T14:49:45.0000000+00:00</time></trkpt><trkpt lat="39.45305153" lon="-0.34725881"><ele>6.2</ele><time>2022-11-04T14:49:50.0000000+00:00</time></trkpt><trkpt lat="39.45305513" lon="-0.34730248"><ele>6.2</ele><time>2022-11-04T14:49:51.0000000+00:00</time></trkpt><trkpt lat="39.45309402" lon="-0.34729846"><ele>6.4</ele><time>2022-11-04T14:49:52.0000000+00:00</time></trkpt><trkpt lat="39.45312219" lon="-0.3472962"><ele>6.4</ele><time>2022-11-04T14:49:53.0000000+00:00</time></trkpt><trkpt lat="39.45312579" lon="-0.34732453"><ele>6.4</ele><time>2022-11-04T14:49:54.0000000+00:00</time></trkpt><trkpt lat="39.45312487" lon="-0.34763843"><ele>6.6</ele><time>2022-11-04T14:49:55.0000000+00:00</time></trkpt><trkpt lat="39.45311121" lon="-0.34774127"><ele>6.8</ele><time>2022-11-04T14:49:56.0000000+00:00</time></trkpt><trkpt lat="39.45311322" lon="-0.34776977"><ele>6.8</ele><time>2022-11-04T14:49:57.0000000+00:00</time></trkpt><trkpt lat="39.4531247" lon="-0.3477743"><ele>6.8</ele><time>2022-11-04T14:49:58.0000000+00:00</time></trkpt><trkpt lat="39.45313317" lon="-0.34780045"><ele>6.8</ele><time>2022-11-04T14:49:59.0000000+00:00</time></trkpt><trkpt lat="39.453147" lon="-0.34781705"><ele>6.6</ele><time>2022-11-04T14:50:00.0000000+00:00</time></trkpt><trkpt lat="39.45316108" lon="-0.34777966"><ele>6.6</ele><time>2022-11-04T14:50:01.0000000+00:00</time></trkpt><trkpt lat="39.4531734" lon="-0.34777648"><ele>6.4</ele><time>2022-11-04T14:50:02.0000000+00:00</time></trkpt><trkpt lat="39.45319084" lon="-0.3477981"><ele>6.2</ele><time>2022-11-04T14:50:03.0000000+00:00</time></trkpt><trkpt lat="39.4532014" lon="-0.34778629"><ele>6.2</ele><time>2022-11-04T14:50:04.0000000+00:00</time></trkpt><trkpt lat="39.45322788" lon="-0.34782434"><ele>6.2</ele><time>2022-11-04T14:50:05.0000000+00:00</time></trkpt><trkpt lat="39.45324482" lon="-0.34784446"><ele>6.2</ele><time>2022-11-04T14:50:06.0000000+00:00</time></trkpt><trkpt lat="39.45326015" lon="-0.3478318"><ele>6.2</ele><time>2022-11-04T14:50:07.0000000+00:00</time></trkpt><trkpt lat="39.45327541" lon="-0.347795"><ele>6.2</ele><time>2022-11-04T14:50:08.0000000+00:00</time></trkpt><trkpt lat="39.45328354" lon="-0.34773273"><ele>6.2</ele><time>2022-11-04T14:50:09.0000000+00:00</time></trkpt><trkpt lat="39.45329033" lon="-0.34770356"><ele>6.4</ele><time>2022-11-04T14:50:10.0000000+00:00</time></trkpt><trkpt lat="39.45329569" lon="-0.34767958"><ele>6.2</ele><time>2022-11-04T14:50:11.0000000+00:00</time></trkpt><trkpt lat="39.45330055" lon="-0.34765553"><ele>6.2</ele><time>2022-11-04T14:50:12.0000000+00:00</time></trkpt><trkpt lat="39.45331229" lon="-0.34765083"><ele>6.0</ele><time>2022-11-04T14:50:13.0000000+00:00</time></trkpt><trkpt lat="39.45332595" lon="-0.34763918"><ele>6.0</ele><time>2022-11-04T14:50:14.0000000+00:00</time></trkpt><trkpt lat="39.45333534" lon="-0.34763256"><ele>6.0</ele><time>2022-11-04T14:50:15.0000000+00:00</time></trkpt><trkpt lat="39.45334632" lon="-0.34762351"><ele>5.8</ele><time>2022-11-04T14:50:16.0000000+00:00</time></trkpt><trkpt lat="39.4533578" lon="-0.34761722"><ele>6.0</ele><time>2022-11-04T14:50:17.0000000+00:00</time></trkpt><trkpt lat="39.45336677" lon="-0.34761295"><ele>6.0</ele><time>2022-11-04T14:50:18.0000000+00:00</time></trkpt><trkpt lat="39.45337348" lon="-0.34759216"><ele>6.2</ele><time>2022-11-04T14:50:19.0000000+00:00</time></trkpt><trkpt lat="39.45337683" lon="-0.34756442"><ele>6.2</ele><time>2022-11-04T14:50:20.0000000+00:00</time></trkpt><trkpt lat="39.45337809" lon="-0.34753902"><ele>6.2</ele><time>2022-11-04T14:50:21.0000000+00:00</time></trkpt><trkpt lat="39.45337415" lon="-0.34750616"><ele>6.2</ele><time>2022-11-04T14:50:22.0000000+00:00</time></trkpt><trkpt lat="39.45336828" lon="-0.34747364"><ele>6.4</ele><time>2022-11-04T14:50:23.0000000+00:00</time></trkpt><trkpt lat="39.45336677" lon="-0.34744011"><ele>6.4</ele><time>2022-11-04T14:50:24.0000000+00:00</time></trkpt><trkpt lat="39.45336166" lon="-0.3474153"><ele>6.4</ele><time>2022-11-04T14:50:25.0000000+00:00</time></trkpt><trkpt lat="39.45335973" lon="-0.34738907"><ele>6.4</ele><time>2022-11-04T14:50:26.0000000+00:00</time></trkpt><trkpt lat="39.45335495" lon="-0.34735562"><ele>6.4</ele><time>2022-11-04T14:50:27.0000000+00:00</time></trkpt><trkpt lat="39.45334322" lon="-0.34732587"><ele>6.4</ele><time>2022-11-04T14:50:28.0000000+00:00</time></trkpt><trkpt lat="39.45333274" lon="-0.34730173"><ele>6.2</ele><time>2022-11-04T14:50:29.0000000+00:00</time></trkpt><trkpt lat="39.45333408" lon="-0.34727197"><ele>6.2</ele><time>2022-11-04T14:50:30.0000000+00:00</time></trkpt><trkpt lat="39.45333517" lon="-0.34724792"><ele>6.0</ele><time>2022-11-04T14:50:31.0000000+00:00</time></trkpt><trkpt lat="39.45333961" lon="-0.34722696"><ele>6.0</ele><time>2022-11-04T14:50:32.0000000+00:00</time></trkpt><trkpt lat="39.45334213" lon="-0.34721984"><ele>6.0</ele><time>2022-11-04T14:50:33.0000000+00:00</time></trkpt><trkpt lat="39.45336099" lon="-0.34720969"><ele>6.0</ele><time>2022-11-04T14:50:34.0000000+00:00</time></trkpt><trkpt lat="39.45337281" lon="-0.34719318"><ele>6.0</ele><time>2022-11-04T14:50:35.0000000+00:00</time></trkpt><trkpt lat="39.45338245" lon="-0.3471765"><ele>5.8</ele><time>2022-11-04T14:50:36.0000000+00:00</time></trkpt><trkpt lat="39.45338856" lon="-0.34715404"><ele>5.8</ele><time>2022-11-04T14:50:37.0000000+00:00</time></trkpt><trkpt lat="39.4533868" lon="-0.34713635"><ele>5.8</ele><time>2022-11-04T14:50:38.0000000+00:00</time></trkpt><trkpt lat="39.45338856" lon="-0.34712085"><ele>5.8</ele><time>2022-11-04T14:50:39.0000000+00:00</time></trkpt><trkpt lat="39.45338882" lon="-0.34710459"><ele>5.8</ele><time>2022-11-04T14:50:40.0000000+00:00</time></trkpt><trkpt lat="39.45338714" lon="-0.34709084"><ele>5.8</ele><time>2022-11-04T14:50:41.0000000+00:00</time></trkpt><trkpt lat="39.45339024" lon="-0.3470786"><ele>5.8</ele><time>2022-11-04T14:50:42.0000000+00:00</time></trkpt><trkpt lat="39.45339812" lon="-0.34706846"><ele>5.8</ele><time>2022-11-04T14:50:43.0000000+00:00</time></trkpt><trkpt lat="39.45340675" lon="-0.34705664"><ele>5.8</ele><time>2022-11-04T14:50:44.0000000+00:00</time></trkpt><trkpt lat="39.45341899" lon="-0.34704809"><ele>5.8</ele><time>2022-11-04T14:50:45.0000000+00:00</time></trkpt><trkpt lat="39.45343391" lon="-0.34703795"><ele>5.8</ele><time>2022-11-04T14:50:46.0000000+00:00</time></trkpt><trkpt lat="39.45344087" lon="-0.34702806"><ele>6.0</ele><time>2022-11-04T14:50:47.0000000+00:00</time></trkpt><trkpt lat="39.45344213" lon="-0.34702269"><ele>6.0</ele><time>2022-11-04T14:50:48.0000000+00:00</time></trkpt><trkpt lat="39.45344414" lon="-0.34701741"><ele>5.8</ele><time>2022-11-04T14:50:49.0000000+00:00</time></trkpt><trkpt lat="39.45345503" lon="-0.347018"><ele>6.0</ele><time>2022-11-04T14:50:50.0000000+00:00</time></trkpt><trkpt lat="39.45346031" lon="-0.34701507"><ele>5.8</ele><time>2022-11-04T14:50:51.0000000+00:00</time></trkpt><trkpt lat="39.45346383" lon="-0.34700073"><ele>5.8</ele><time>2022-11-04T14:50:52.0000000+00:00</time></trkpt><trkpt lat="39.45347222" lon="-0.34698724"><ele>5.8</ele><time>2022-11-04T14:50:53.0000000+00:00</time></trkpt><trkpt lat="39.45348169" lon="-0.34698062"><ele>5.8</ele><time>2022-11-04T14:50:54.0000000+00:00</time></trkpt><trkpt lat="39.45349694" lon="-0.34698238"><ele>6.0</ele><time>2022-11-04T14:50:55.0000000+00:00</time></trkpt><trkpt lat="39.45351195" lon="-0.34699109"><ele>6.0</ele><time>2022-11-04T14:50:56.0000000+00:00</time></trkpt><trkpt lat="39.45351698" lon="-0.34699176"><ele>6.0</ele><time>2022-11-04T14:50:57.0000000+00:00</time></trkpt><trkpt lat="39.45352653" lon="-0.34700342"><ele>6.2</ele><time>2022-11-04T14:50:58.0000000+00:00</time></trkpt><trkpt lat="39.45352779" lon="-0.34701398"><ele>6.2</ele><time>2022-11-04T14:50:59.0000000+00:00</time></trkpt><trkpt lat="39.45353055" lon="-0.34702404"><ele>6.2</ele><time>2022-11-04T14:51:00.0000000+00:00</time></trkpt><trkpt lat="39.45353542" lon="-0.34703678"><ele>6.2</ele><time>2022-11-04T14:51:01.0000000+00:00</time></trkpt><trkpt lat="39.45353768" lon="-0.34704985"><ele>6.2</ele><time>2022-11-04T14:51:02.0000000+00:00</time></trkpt><trkpt lat="39.45354195" lon="-0.34705874"><ele>6.2</ele><time>2022-11-04T14:51:03.0000000+00:00</time></trkpt><trkpt lat="39.4535412" lon="-0.34706209"><ele>6.2</ele><time>2022-11-04T14:51:04.0000000+00:00</time></trkpt><trkpt lat="39.45354262" lon="-0.34706972"><ele>6.2</ele><time>2022-11-04T14:51:05.0000000+00:00</time></trkpt><trkpt lat="39.45354447" lon="-0.34707936"><ele>6.2</ele><time>2022-11-04T14:51:06.0000000+00:00</time></trkpt><trkpt lat="39.45353684" lon="-0.34708288"><ele>6.2</ele><time>2022-11-04T14:51:07.0000000+00:00</time></trkpt><trkpt lat="39.45352427" lon="-0.34707667"><ele>6.2</ele><time>2022-11-04T14:51:08.0000000+00:00</time></trkpt><trkpt lat="39.45351547" lon="-0.3470698"><ele>6.2</ele><time>2022-11-04T14:51:09.0000000+00:00</time></trkpt><trkpt lat="39.45350901" lon="-0.34706226"><ele>6.0</ele><time>2022-11-04T14:51:10.0000000+00:00</time></trkpt><trkpt lat="39.45350834" lon="-0.34706075"><ele>6.0</ele><time>2022-11-04T14:51:11.0000000+00:00</time></trkpt><trkpt lat="39.45351387" lon="-0.34706377"><ele>6.0</ele><time>2022-11-04T14:51:12.0000000+00:00</time></trkpt><trkpt lat="39.4535215" lon="-0.34706812"><ele>5.8</ele><time>2022-11-04T14:51:13.0000000+00:00</time></trkpt><trkpt lat="39.45352444" lon="-0.34707022"><ele>5.8</ele><time>2022-11-04T14:51:14.0000000+00:00</time></trkpt><trkpt lat="39.45352444" lon="-0.34707022"><ele>5.8</ele><time>2022-11-04T14:51:15.0000000+00:00</time></trkpt><trkpt lat="39.45352444" lon="-0.34707022"><ele>5.8</ele><time>2022-11-04T14:51:16.0000000+00:00</time></trkpt><trkpt lat="39.45352444" lon="-0.34707022"><ele>5.6</ele><time>2022-11-04T14:51:17.0000000+00:00</time></trkpt><trkpt lat="39.45352444" lon="-0.34707022"><ele>5.6</ele><time>2022-11-04T14:51:18.0000000+00:00</time></trkpt><trkpt lat="39.45352444" lon="-0.34707022"><ele>5.6</ele><time>2022-11-04T14:51:19.0000000+00:00</time></trkpt><trkpt lat="39.45352444" lon="-0.34707022"><ele>5.6</ele><time>2022-11-04T14:51:20.0000000+00:00</time></trkpt><trkpt lat="39.45352444" lon="-0.34707022"><ele>5.6</ele><time>2022-11-04T14:51:21.0000000+00:00</time></trkpt><trkpt lat="39.45352444" lon="-0.34707022"><ele>5.4</ele><time>2022-11-04T14:51:22.0000000+00:00</time></trkpt><trkpt lat="39.45352444" lon="-0.34707022"><ele>5.4</ele><time>2022-11-04T14:51:23.0000000+00:00</time></trkpt><trkpt lat="39.45352444" lon="-0.34707022"><ele>5.4</ele><time>2022-11-04T14:51:24.0000000+00:00</time></trkpt><trkpt lat="39.45352444" lon="-0.3470698"><ele>5.4</ele><time>2022-11-04T14:51:25.0000000+00:00</time></trkpt><trkpt lat="39.45352444" lon="-0.34706821"><ele>5.2</ele><time>2022-11-04T14:51:26.0000000+00:00</time></trkpt><trkpt lat="39.45352444" lon="-0.34706544"><ele>5.2</ele><time>2022-11-04T14:51:27.0000000+00:00</time></trkpt><trkpt lat="39.45352444" lon="-0.34706494"><ele>5.2</ele><time>2022-11-04T14:51:28.0000000+00:00</time></trkpt><trkpt lat="39.45352444" lon="-0.34706385"><ele>5.4</ele><time>2022-11-04T14:51:29.0000000+00:00</time></trkpt><trkpt lat="39.45352444" lon="-0.34706377"><ele>5.4</ele><time>2022-11-04T14:51:30.0000000+00:00</time></trkpt><trkpt lat="39.45352561" lon="-0.3470636"><ele>5.4</ele><time>2022-11-04T14:51:31.0000000+00:00</time></trkpt><trkpt lat="39.4535262" lon="-0.34706301"><ele>5.4</ele><time>2022-11-04T14:51:32.0000000+00:00</time></trkpt><trkpt lat="39.45352628" lon="-0.34706234"><ele>5.6</ele><time>2022-11-04T14:51:33.0000000+00:00</time></trkpt><trkpt lat="39.45352636" lon="-0.34706083"><ele>6.0</ele><time>2022-11-04T14:51:34.0000000+00:00</time></trkpt><trkpt lat="39.45352636" lon="-0.34705983"><ele>6.0</ele><time>2022-11-04T14:51:35.0000000+00:00</time></trkpt><trkpt lat="39.45352628" lon="-0.34705957"><ele>6.0</ele><time>2022-11-04T14:51:36.0000000+00:00</time></trkpt><trkpt lat="39.45352594" lon="-0.34705874"><ele>6.0</ele><time>2022-11-04T14:51:37.0000000+00:00</time></trkpt><trkpt lat="39.45352594" lon="-0.34705848"><ele>6.0</ele><time>2022-11-04T14:51:38.0000000+00:00</time></trkpt><trkpt lat="39.45352594" lon="-0.3470574"><ele>6.0</ele><time>2022-11-04T14:51:39.0000000+00:00</time></trkpt><trkpt lat="39.45352628" lon="-0.34705698"><ele>6.0</ele><time>2022-11-04T14:51:40.0000000+00:00</time></trkpt><trkpt lat="39.45352628" lon="-0.34705664"><ele>6.0</ele><time>2022-11-04T14:51:41.0000000+00:00</time></trkpt><trkpt lat="39.45352636" lon="-0.34705605"><ele>6.0</ele><time>2022-11-04T14:51:42.0000000+00:00</time></trkpt><trkpt lat="39.45352636" lon="-0.34705413"><ele>6.0</ele><time>2022-11-04T14:51:43.0000000+00:00</time></trkpt><trkpt lat="39.45352678" lon="-0.34705203"><ele>6.0</ele><time>2022-11-04T14:51:44.0000000+00:00</time></trkpt><trkpt lat="39.45352737" lon="-0.34704935"><ele>6.0</ele><time>2022-11-04T14:51:45.0000000+00:00</time></trkpt><trkpt lat="39.45352745" lon="-0.34704818"><ele>6.0</ele><time>2022-11-04T14:51:46.0000000+00:00</time></trkpt><trkpt lat="39.45352754" lon="-0.347047"><ele>6.0</ele><time>2022-11-04T14:51:47.0000000+00:00</time></trkpt><trkpt lat="39.45352762" lon="-0.34704491"><ele>6.0</ele><time>2022-11-04T14:51:48.0000000+00:00</time></trkpt><trkpt lat="39.45352762" lon="-0.3470418"><ele>6.0</ele><time>2022-11-04T14:51:49.0000000+00:00</time></trkpt><trkpt lat="39.45352754" lon="-0.34703979"><ele>6.0</ele><time>2022-11-04T14:51:50.0000000+00:00</time></trkpt><trkpt lat="39.45352745" lon="-0.34703937"><ele>6.0</ele><time>2022-11-04T14:51:51.0000000+00:00</time></trkpt><trkpt lat="39.45352745" lon="-0.34703602"><ele>6.0</ele><time>2022-11-04T14:51:52.0000000+00:00</time></trkpt><trkpt lat="39.4535272" lon="-0.34703434"><ele>6.0</ele><time>2022-11-04T14:51:53.0000000+00:00</time></trkpt><trkpt lat="39.4535272" lon="-0.34703393"><ele>6.0</ele><time>2022-11-04T14:51:54.0000000+00:00</time></trkpt><trkpt lat="39.4535272" lon="-0.34703326"><ele>6.0</ele><time>2022-11-04T14:51:55.0000000+00:00</time></trkpt><trkpt lat="39.4535272" lon="-0.34703233"><ele>6.0</ele><time>2022-11-04T14:51:56.0000000+00:00</time></trkpt><trkpt lat="39.45352703" lon="-0.34703133"><ele>6.0</ele><time>2022-11-04T14:51:57.0000000+00:00</time></trkpt><trkpt lat="39.45352687" lon="-0.34703099"><ele>6.0</ele><time>2022-11-04T14:51:58.0000000+00:00</time></trkpt><trkpt lat="39.45352636" lon="-0.34703082"><ele>6.0</ele><time>2022-11-04T14:51:59.0000000+00:00</time></trkpt><trkpt lat="39.45352611" lon="-0.34703041"><ele>6.0</ele><time>2022-11-04T14:52:00.0000000+00:00</time></trkpt><trkpt lat="39.45352594" lon="-0.34703024"><ele>6.0</ele><time>2022-11-04T14:52:01.0000000+00:00</time></trkpt><trkpt lat="39.45352485" lon="-0.34702915"><ele>6.0</ele><time>2022-11-04T14:52:02.0000000+00:00</time></trkpt><trkpt lat="39.45352343" lon="-0.34702873"><ele>6.0</ele><time>2022-11-04T14:52:03.0000000+00:00</time></trkpt><trkpt lat="39.45352318" lon="-0.34702378"><ele>6.0</ele><time>2022-11-04T14:52:04.0000000+00:00</time></trkpt><trkpt lat="39.45352309" lon="-0.3470149"><ele>6.0</ele><time>2022-11-04T14:52:05.0000000+00:00</time></trkpt><trkpt lat="39.45352301" lon="-0.34701222"><ele>6.0</ele><time>2022-11-04T14:52:06.0000000+00:00</time></trkpt><trkpt lat="39.45352301" lon="-0.3470066"><ele>6.0</ele><time>2022-11-04T14:52:07.0000000+00:00</time></trkpt><trkpt lat="39.45352259" lon="-0.34700392"><ele>6.0</ele><time>2022-11-04T14:52:08.0000000+00:00</time></trkpt><trkpt lat="39.45352066" lon="-0.34700291"><ele>6.0</ele><time>2022-11-04T14:52:09.0000000+00:00</time></trkpt><trkpt lat="39.45351563" lon="-0.34700031"><ele>6.0</ele><time>2022-11-04T14:52:10.0000000+00:00</time></trkpt><trkpt lat="39.45351346" lon="-0.34699956"><ele>6.0</ele><time>2022-11-04T14:52:11.0000000+00:00</time></trkpt><trkpt lat="39.45351245" lon="-0.34699663"><ele>6.0</ele><time>2022-11-04T14:52:12.0000000+00:00</time></trkpt><trkpt lat="39.45351211" lon="-0.34699487"><ele>6.0</ele><time>2022-11-04T14:52:13.0000000+00:00</time></trkpt><trkpt lat="39.45351136" lon="-0.34699428"><ele>6.0</ele><time>2022-11-04T14:52:14.0000000+00:00</time></trkpt><trkpt lat="39.45351111" lon="-0.34699126"><ele>6.0</ele><time>2022-11-04T14:52:15.0000000+00:00</time></trkpt><trkpt lat="39.45351086" lon="-0.34698984"><ele>6.0</ele><time>2022-11-04T14:52:16.0000000+00:00</time></trkpt><trkpt lat="39.45350985" lon="-0.3469885"><ele>6.0</ele><time>2022-11-04T14:52:17.0000000+00:00</time></trkpt><trkpt lat="39.45350952" lon="-0.34698573"><ele>6.0</ele><time>2022-11-04T14:52:18.0000000+00:00</time></trkpt><trkpt lat="39.45350918" lon="-0.34698254"><ele>6.0</ele><time>2022-11-04T14:52:19.0000000+00:00</time></trkpt><trkpt lat="39.45350901" lon="-0.34698154"><ele>6.0</ele><time>2022-11-04T14:52:20.0000000+00:00</time></trkpt><trkpt lat="39.45350826" lon="-0.3469812"><ele>6.0</ele><time>2022-11-04T14:52:21.0000000+00:00</time></trkpt><trkpt lat="39.45350574" lon="-0.34698112"><ele>6.0</ele><time>2022-11-04T14:52:22.0000000+00:00</time></trkpt><trkpt lat="39.45350482" lon="-0.34698104"><ele>6.0</ele><time>2022-11-04T14:52:23.0000000+00:00</time></trkpt><trkpt lat="39.4535044" lon="-0.34698104"><ele>6.0</ele><time>2022-11-04T14:52:24.0000000+00:00</time></trkpt><trkpt lat="39.45350415" lon="-0.34698104"><ele>6.0</ele><time>2022-11-04T14:52:25.0000000+00:00</time></trkpt><trkpt lat="39.45350407" lon="-0.34698104"><ele>6.0</ele><time>2022-11-04T14:52:26.0000000+00:00</time></trkpt><trkpt lat="39.45350398" lon="-0.34698104"><ele>6.0</ele><time>2022-11-04T14:52:27.0000000+00:00</time></trkpt><trkpt lat="39.45350398" lon="-0.34698104"><ele>6.0</ele><time>2022-11-04T14:52:28.0000000+00:00</time></trkpt><trkpt lat="39.45350398" lon="-0.34698104"><ele>6.0</ele><time>2022-11-04T14:52:29.0000000+00:00</time></trkpt><trkpt lat="39.45350398" lon="-0.34698104"><ele>6.0</ele><time>2022-11-04T14:52:30.0000000+00:00</time></trkpt><trkpt lat="39.45350398" lon="-0.34698104"><ele>6.0</ele><time>2022-11-04T14:52:31.0000000+00:00</time></trkpt><trkpt lat="39.45350398" lon="-0.34698104"><ele>6.0</ele><time>2022-11-04T14:52:32.0000000+00:00</time></trkpt><trkpt lat="39.45350398" lon="-0.34698104"><ele>6.0</ele><time>2022-11-04T14:52:33.0000000+00:00</time></trkpt><trkpt lat="39.45350398" lon="-0.34698146"><ele>6.0</ele><time>2022-11-04T14:52:34.0000000+00:00</time></trkpt><trkpt lat="39.45350398" lon="-0.34698162"><ele>6.0</ele><time>2022-11-04T14:52:35.0000000+00:00</time></trkpt><trkpt lat="39.45350398" lon="-0.34698263"><ele>6.0</ele><time>2022-11-04T14:52:36.0000000+00:00</time></trkpt><trkpt lat="39.45350398" lon="-0.3469833"><ele>6.0</ele><time>2022-11-04T14:52:37.0000000+00:00</time></trkpt><trkpt lat="39.45350407" lon="-0.34698648"><ele>6.0</ele><time>2022-11-04T14:52:38.0000000+00:00</time></trkpt><trkpt lat="39.45350432" lon="-0.34698791"><ele>6.0</ele><time>2022-11-04T14:52:39.0000000+00:00</time></trkpt><trkpt lat="39.45350784" lon="-0.34698917"><ele>6.0</ele><time>2022-11-04T14:52:40.0000000+00:00</time></trkpt><trkpt lat="39.45351237" lon="-0.34699244"><ele>6.0</ele><time>2022-11-04T14:52:41.0000000+00:00</time></trkpt><trkpt lat="39.4535153" lon="-0.34699529"><ele>6.0</ele><time>2022-11-04T14:52:42.0000000+00:00</time></trkpt><trkpt lat="39.45351773" lon="-0.34699663"><ele>6.0</ele><time>2022-11-04T14:52:43.0000000+00:00</time></trkpt><trkpt lat="39.45351941" lon="-0.34699906"><ele>6.0</ele><time>2022-11-04T14:52:44.0000000+00:00</time></trkpt><trkpt lat="39.45352066" lon="-0.34700031"><ele>6.0</ele><time>2022-11-04T14:52:45.0000000+00:00</time></trkpt><trkpt lat="39.4535215" lon="-0.34700199"><ele>6.0</ele><time>2022-11-04T14:52:46.0000000+00:00</time></trkpt><trkpt lat="39.45352209" lon="-0.34700316"><ele>6.0</ele><time>2022-11-04T14:52:47.0000000+00:00</time></trkpt><trkpt lat="39.45352242" lon="-0.34700425"><ele>6.0</ele><time>2022-11-04T14:52:48.0000000+00:00</time></trkpt><trkpt lat="39.45352309" lon="-0.34700492"><ele>6.0</ele><time>2022-11-04T14:52:49.0000000+00:00</time></trkpt><trkpt lat="39.45352678" lon="-0.34700694"><ele>6.0</ele><time>2022-11-04T14:52:50.0000000+00:00</time></trkpt><trkpt lat="39.45353089" lon="-0.34700819"><ele>6.0</ele><time>2022-11-04T14:52:51.0000000+00:00</time></trkpt><trkpt lat="39.45353349" lon="-0.3470087"><ele>6.0</ele><time>2022-11-04T14:52:52.0000000+00:00</time></trkpt><trkpt lat="39.45353516" lon="-0.34700903"><ele>6.0</ele><time>2022-11-04T14:52:53.0000000+00:00</time></trkpt><trkpt lat="39.45353625" lon="-0.34700886"><ele>6.0</ele><time>2022-11-04T14:52:54.0000000+00:00</time></trkpt><trkpt lat="39.45353676" lon="-0.34700702"><ele>6.0</ele><time>2022-11-04T14:52:55.0000000+00:00</time></trkpt><trkpt lat="39.45353709" lon="-0.34700576"><ele>6.0</ele><time>2022-11-04T14:52:56.0000000+00:00</time></trkpt><trkpt lat="39.45353718" lon="-0.34700501"><ele>6.0</ele><time>2022-11-04T14:52:57.0000000+00:00</time></trkpt><trkpt lat="39.45353734" lon="-0.34700417"><ele>6.0</ele><time>2022-11-04T14:52:58.0000000+00:00</time></trkpt><trkpt lat="39.4535376" lon="-0.34700283"><ele>6.0</ele><time>2022-11-04T14:52:59.0000000+00:00</time></trkpt><trkpt lat="39.45353801" lon="-0.34700207"><ele>6.0</ele><time>2022-11-04T14:53:00.0000000+00:00</time></trkpt><trkpt lat="39.45353835" lon="-0.34700174"><ele>6.0</ele><time>2022-11-04T14:53:01.0000000+00:00</time></trkpt><trkpt lat="39.45353852" lon="-0.34700157"><ele>6.0</ele><time>2022-11-04T14:53:02.0000000+00:00</time></trkpt><trkpt lat="39.4535386" lon="-0.3470014"><ele>6.0</ele><time>2022-11-04T14:53:03.0000000+00:00</time></trkpt><trkpt lat="39.45353919" lon="-0.3470014"><ele>6.0</ele><time>2022-11-04T14:53:04.0000000+00:00</time></trkpt><trkpt lat="39.45353986" lon="-0.34700132"><ele>6.0</ele><time>2022-11-04T14:53:05.0000000+00:00</time></trkpt><trkpt lat="39.45354053" lon="-0.34700132"><ele>6.0</ele><time>2022-11-04T14:53:06.0000000+00:00</time></trkpt><trkpt lat="39.45354095" lon="-0.34700132"><ele>6.0</ele><time>2022-11-04T14:53:07.0000000+00:00</time></trkpt><trkpt lat="39.4535412" lon="-0.34700132"><ele>6.0</ele><time>2022-11-04T14:53:08.0000000+00:00</time></trkpt><trkpt lat="39.45354137" lon="-0.34700006"><ele>6.0</ele><time>2022-11-04T14:53:09.0000000+00:00</time></trkpt><trkpt lat="39.45354145" lon="-0.34699922"><ele>6.0</ele><time>2022-11-04T14:53:10.0000000+00:00</time></trkpt><trkpt lat="39.45354145" lon="-0.34699864"><ele>6.0</ele><time>2022-11-04T14:53:11.0000000+00:00</time></trkpt><trkpt lat="39.45354145" lon="-0.3469983"><ele>6.0</ele><time>2022-11-04T14:53:12.0000000+00:00</time></trkpt><trkpt lat="39.45354153" lon="-0.34699772"><ele>6.0</ele><time>2022-11-04T14:53:13.0000000+00:00</time></trkpt><trkpt lat="39.45354145" lon="-0.3469973"><ele>6.0</ele><time>2022-11-04T14:53:14.0000000+00:00</time></trkpt><trkpt lat="39.4535412" lon="-0.34699696"><ele>6.0</ele><time>2022-11-04T14:53:15.0000000+00:00</time></trkpt><trkpt lat="39.45354061" lon="-0.34699679"><ele>6.0</ele><time>2022-11-04T14:53:16.0000000+00:00</time></trkpt><trkpt lat="39.45353994" lon="-0.34699671"><ele>6.0</ele><time>2022-11-04T14:53:17.0000000+00:00</time></trkpt><trkpt lat="39.45353491" lon="-0.3469942"><ele>6.0</ele><time>2022-11-04T14:53:18.0000000+00:00</time></trkpt><trkpt lat="39.45352913" lon="-0.34698892"><ele>6.0</ele><time>2022-11-04T14:53:19.0000000+00:00</time></trkpt><trkpt lat="39.45353089" lon="-0.34698565"><ele>6.0</ele><time>2022-11-04T14:53:20.0000000+00:00</time></trkpt><trkpt lat="39.45353986" lon="-0.3469833"><ele>6.0</ele><time>2022-11-04T14:53:21.0000000+00:00</time></trkpt><trkpt lat="39.45353793" lon="-0.34697928"><ele>6.0</ele><time>2022-11-04T14:53:22.0000000+00:00</time></trkpt><trkpt lat="39.45352963" lon="-0.34696846"><ele>6.0</ele><time>2022-11-04T14:53:23.0000000+00:00</time></trkpt><trkpt lat="39.45352527" lon="-0.34696595"><ele>6.0</ele><time>2022-11-04T14:53:24.0000000+00:00</time></trkpt><trkpt lat="39.45352309" lon="-0.34696528"><ele>6.0</ele><time>2022-11-04T14:53:25.0000000+00:00</time></trkpt><trkpt lat="39.45351991" lon="-0.34696578"><ele>6.0</ele><time>2022-11-04T14:53:26.0000000+00:00</time></trkpt><trkpt lat="39.45351211" lon="-0.3469631"><ele>6.0</ele><time>2022-11-04T14:53:27.0000000+00:00</time></trkpt><trkpt lat="39.45351865" lon="-0.3469683"><ele>6.0</ele><time>2022-11-04T14:53:28.0000000+00:00</time></trkpt><trkpt lat="39.45352938" lon="-0.34697902"><ele>6.0</ele><time>2022-11-04T14:53:29.0000000+00:00</time></trkpt><trkpt lat="39.45353868" lon="-0.3469926"><ele>6.0</ele><time>2022-11-04T14:53:30.0000000+00:00</time></trkpt><trkpt lat="39.45354464" lon="-0.34700325"><ele>6.0</ele><time>2022-11-04T14:53:31.0000000+00:00</time></trkpt><trkpt lat="39.45354916" lon="-0.34701322"><ele>6.0</ele><time>2022-11-04T14:53:32.0000000+00:00</time></trkpt><trkpt lat="39.45354992" lon="-0.34702211"><ele>6.0</ele><time>2022-11-04T14:53:33.0000000+00:00</time></trkpt><trkpt lat="39.45354807" lon="-0.3470299"><ele>6.0</ele><time>2022-11-04T14:53:34.0000000+00:00</time></trkpt><trkpt lat="39.45355243" lon="-0.34704122"><ele>6.0</ele><time>2022-11-04T14:53:35.0000000+00:00</time></trkpt><trkpt lat="39.45355746" lon="-0.34705823"><ele>6.0</ele><time>2022-11-04T14:53:36.0000000+00:00</time></trkpt><trkpt lat="39.4535583" lon="-0.34707282"><ele>6.0</ele><time>2022-11-04T14:53:37.0000000+00:00</time></trkpt><trkpt lat="39.45355402" lon="-0.34708774"><ele>6.0</ele><time>2022-11-04T14:53:38.0000000+00:00</time></trkpt><trkpt lat="39.45354682" lon="-0.34711179"><ele>6.0</ele><time>2022-11-04T14:53:39.0000000+00:00</time></trkpt><trkpt lat="39.4535386" lon="-0.34712571"><ele>6.0</ele><time>2022-11-04T14:53:40.0000000+00:00</time></trkpt><trkpt lat="39.45353273" lon="-0.34713518"><ele>6.0</ele><time>2022-11-04T14:53:41.0000000+00:00</time></trkpt><trkpt lat="39.45352913" lon="-0.34715002"><ele>6.0</ele><time>2022-11-04T14:53:42.0000000+00:00</time></trkpt><trkpt lat="39.4535293" lon="-0.34716904"><ele>6.0</ele><time>2022-11-04T14:53:43.0000000+00:00</time></trkpt><trkpt lat="39.45352963" lon="-0.3471967"><ele>6.0</ele><time>2022-11-04T14:53:44.0000000+00:00</time></trkpt><trkpt lat="39.45353692" lon="-0.34722788"><ele>6.0</ele><time>2022-11-04T14:53:45.0000000+00:00</time></trkpt><trkpt lat="39.45353122" lon="-0.34723744"><ele>6.0</ele><time>2022-11-04T14:53:46.0000000+00:00</time></trkpt><trkpt lat="39.45352066" lon="-0.34723509"><ele>6.0</ele><time>2022-11-04T14:53:47.0000000+00:00</time></trkpt><trkpt lat="39.45351077" lon="-0.34722327"><ele>6.0</ele><time>2022-11-04T14:53:48.0000000+00:00</time></trkpt><trkpt lat="39.4535065" lon="-0.34721439"><ele>6.0</ele><time>2022-11-04T14:53:49.0000000+00:00</time></trkpt><trkpt lat="39.45351438" lon="-0.34722436"><ele>6.0</ele><time>2022-11-04T14:53:50.0000000+00:00</time></trkpt><trkpt lat="39.45352309" lon="-0.34723249"><ele>6.0</ele><time>2022-11-04T14:53:51.0000000+00:00</time></trkpt><trkpt lat="39.453522" lon="-0.34723928"><ele>6.0</ele><time>2022-11-04T14:53:52.0000000+00:00</time></trkpt><trkpt lat="39.45353173" lon="-0.34724942"><ele>6.0</ele><time>2022-11-04T14:53:53.0000000+00:00</time></trkpt><trkpt lat="39.4535438" lon="-0.34725621"><ele>6.0</ele><time>2022-11-04T14:53:54.0000000+00:00</time></trkpt><trkpt lat="39.45355084" lon="-0.3472594"><ele>6.0</ele><time>2022-11-04T14:53:55.0000000+00:00</time></trkpt><trkpt lat="39.45354321" lon="-0.34724901"><ele>6.0</ele><time>2022-11-04T14:53:56.0000000+00:00</time></trkpt><trkpt lat="39.45353634" lon="-0.34723928"><ele>6.0</ele><time>2022-11-04T14:53:57.0000000+00:00</time></trkpt><trkpt lat="39.45352385" lon="-0.34722453"><ele>6.0</ele><time>2022-11-04T14:53:58.0000000+00:00</time></trkpt><trkpt lat="39.45351102" lon="-0.34721271"><ele>6.0</ele><time>2022-11-04T14:53:59.0000000+00:00</time></trkpt><trkpt lat="39.45350105" lon="-0.34720726"><ele>6.0</ele><time>2022-11-04T14:54:00.0000000+00:00</time></trkpt><trkpt lat="39.45349879" lon="-0.34720735"><ele>6.0</ele><time>2022-11-04T14:54:01.0000000+00:00</time></trkpt><trkpt lat="39.453492" lon="-0.34719888"><ele>6.0</ele><time>2022-11-04T14:54:02.0000000+00:00</time></trkpt><trkpt lat="39.45348286" lon="-0.34718807"><ele>6.0</ele><time>2022-11-04T14:54:03.0000000+00:00</time></trkpt><trkpt lat="39.45347909" lon="-0.34718212"><ele>6.0</ele><time>2022-11-04T14:54:04.0000000+00:00</time></trkpt><trkpt lat="39.45347733" lon="-0.34718044"><ele>6.0</ele><time>2022-11-04T14:54:05.0000000+00:00</time></trkpt><trkpt lat="39.45347641" lon="-0.34717877"><ele>6.0</ele><time>2022-11-04T14:54:06.0000000+00:00</time></trkpt><trkpt lat="39.45347297" lon="-0.34717365"><ele>6.0</ele><time>2022-11-04T14:54:07.0000000+00:00</time></trkpt><trkpt lat="39.45346962" lon="-0.34716921"><ele>6.0</ele><time>2022-11-04T14:54:08.0000000+00:00</time></trkpt><trkpt lat="39.45347079" lon="-0.34717558"><ele>6.0</ele><time>2022-11-04T14:54:09.0000000+00:00</time></trkpt><trkpt lat="39.45347129" lon="-0.3471822"><ele>6.0</ele><time>2022-11-04T14:54:10.0000000+00:00</time></trkpt><trkpt lat="39.45347305" lon="-0.3471874"><ele>6.0</ele><time>2022-11-04T14:54:11.0000000+00:00</time></trkpt><trkpt lat="39.4534744" lon="-0.34718907"><ele>6.0</ele><time>2022-11-04T14:54:12.0000000+00:00</time></trkpt><trkpt lat="39.45347699" lon="-0.34719385"><ele>6.0</ele><time>2022-11-04T14:54:13.0000000+00:00</time></trkpt><trkpt lat="39.45348152" lon="-0.34720559"><ele>6.0</ele><time>2022-11-04T14:54:14.0000000+00:00</time></trkpt><trkpt lat="39.45349082" lon="-0.34722109"><ele>6.0</ele><time>2022-11-04T14:54:15.0000000+00:00</time></trkpt><trkpt lat="39.45349636" lon="-0.34723191"><ele>6.0</ele><time>2022-11-04T14:54:16.0000000+00:00</time></trkpt><trkpt lat="39.45350172" lon="-0.34723911"><ele>6.0</ele><time>2022-11-04T14:54:17.0000000+00:00</time></trkpt><trkpt lat="39.45350474" lon="-0.34724222"><ele>6.0</ele><time>2022-11-04T14:54:18.0000000+00:00</time></trkpt><trkpt lat="39.45350532" lon="-0.34724205"><ele>6.0</ele><time>2022-11-04T14:54:19.0000000+00:00</time></trkpt><trkpt lat="39.45350465" lon="-0.34724079"><ele>6.0</ele><time>2022-11-04T14:54:20.0000000+00:00</time></trkpt><trkpt lat="39.45350323" lon="-0.34723727"><ele>6.0</ele><time>2022-11-04T14:54:21.0000000+00:00</time></trkpt><trkpt lat="39.45350323" lon="-0.34723727"><ele>6.0</ele><time>2022-11-04T14:54:22.0000000+00:00</time></trkpt><trkpt lat="39.45350323" lon="-0.34723727"><ele>6.0</ele><time>2022-11-04T14:54:23.0000000+00:00</time></trkpt><trkpt lat="39.45350323" lon="-0.34723727"><ele>6.0</ele><time>2022-11-04T14:54:24.0000000+00:00</time></trkpt><trkpt lat="39.45350323" lon="-0.34723727"><ele>6.0</ele><time>2022-11-04T14:54:25.0000000+00:00</time></trkpt><trkpt lat="39.45350323" lon="-0.34723727"><ele>6.0</ele><time>2022-11-04T14:54:26.0000000+00:00</time></trkpt><trkpt lat="39.45350323" lon="-0.34723727"><ele>6.0</ele><time>2022-11-04T14:54:27.0000000+00:00</time></trkpt><trkpt lat="39.45350323" lon="-0.34723727"><ele>6.0</ele><time>2022-11-04T14:54:28.0000000+00:00</time></trkpt><trkpt lat="39.45350323" lon="-0.34723727"><ele>6.0</ele><time>2022-11-04T14:54:29.0000000+00:00</time></trkpt><trkpt lat="39.45350323" lon="-0.34723727"><ele>6.0</ele><time>2022-11-04T14:54:30.0000000+00:00</time></trkpt><trkpt lat="39.45350323" lon="-0.34723727"><ele>6.0</ele><time>2022-11-04T14:54:31.0000000+00:00</time></trkpt><trkpt lat="39.45350323" lon="-0.34723727"><ele>6.0</ele><time>2022-11-04T14:54:32.0000000+00:00</time></trkpt><trkpt lat="39.45350323" lon="-0.34723727"><ele>6.0</ele><time>2022-11-04T14:54:33.0000000+00:00</time></trkpt><trkpt lat="39.45350323" lon="-0.34723727"><ele>6.0</ele><time>2022-11-04T14:54:34.0000000+00:00</time></trkpt><trkpt lat="39.45350323" lon="-0.34723727"><ele>6.0</ele><time>2022-11-04T14:54:35.0000000+00:00</time></trkpt><trkpt lat="39.45350323" lon="-0.34723727"><ele>6.0</ele><time>2022-11-04T14:54:36.0000000+00:00</time></trkpt><trkpt lat="39.45350323" lon="-0.34723635"><ele>6.0</ele><time>2022-11-04T14:54:37.0000000+00:00</time></trkpt><trkpt lat="39.45350323" lon="-0.34723626"><ele>6.0</ele><time>2022-11-04T14:54:38.0000000+00:00</time></trkpt><trkpt lat="39.45350323" lon="-0.34723626"><ele>6.0</ele><time>2022-11-04T14:54:39.0000000+00:00</time></trkpt><trkpt lat="39.45350323" lon="-0.34723626"><ele>6.0</ele><time>2022-11-04T14:54:40.0000000+00:00</time></trkpt><trkpt lat="39.45350415" lon="-0.34723626"><ele>6.0</ele><time>2022-11-04T14:54:41.0000000+00:00</time></trkpt><trkpt lat="39.45350424" lon="-0.34723626"><ele>6.0</ele><time>2022-11-04T14:54:42.0000000+00:00</time></trkpt><trkpt lat="39.4535044" lon="-0.34723719"><ele>6.0</ele><time>2022-11-04T14:54:43.0000000+00:00</time></trkpt><trkpt lat="39.45350465" lon="-0.34723861"><ele>6.0</ele><time>2022-11-04T14:54:44.0000000+00:00</time></trkpt><trkpt lat="39.45350465" lon="-0.34723911"><ele>6.0</ele><time>2022-11-04T14:54:45.0000000+00:00</time></trkpt><trkpt lat="39.45350465" lon="-0.34723962"><ele>6.0</ele><time>2022-11-04T14:54:46.0000000+00:00</time></trkpt><trkpt lat="39.45350465" lon="-0.34723979"><ele>6.0</ele><time>2022-11-04T14:54:47.0000000+00:00</time></trkpt><trkpt lat="39.45350449" lon="-0.34723979"><ele>6.0</ele><time>2022-11-04T14:54:48.0000000+00:00</time></trkpt><trkpt lat="39.45350432" lon="-0.34723979"><ele>6.0</ele><time>2022-11-04T14:54:49.0000000+00:00</time></trkpt><trkpt lat="39.45350424" lon="-0.34723979"><ele>6.0</ele><time>2022-11-04T14:54:50.0000000+00:00</time></trkpt><trkpt lat="39.45350424" lon="-0.34724054"><ele>6.0</ele><time>2022-11-04T14:54:51.0000000+00:00</time></trkpt><trkpt lat="39.45350424" lon="-0.34724146"><ele>6.0</ele><time>2022-11-04T14:54:52.0000000+00:00</time></trkpt><trkpt lat="39.45350424" lon="-0.34724398"><ele>6.0</ele><time>2022-11-04T14:54:53.0000000+00:00</time></trkpt><trkpt lat="39.45350424" lon="-0.34724448"><ele>6.0</ele><time>2022-11-04T14:54:54.0000000+00:00</time></trkpt><trkpt lat="39.45350424" lon="-0.34724549"><ele>6.0</ele><time>2022-11-04T14:54:55.0000000+00:00</time></trkpt><trkpt lat="39.45350424" lon="-0.34724582"><ele>6.0</ele><time>2022-11-04T14:54:56.0000000+00:00</time></trkpt><trkpt lat="39.45350424" lon="-0.3472459"><ele>6.0</ele><time>2022-11-04T14:54:57.0000000+00:00</time></trkpt><trkpt lat="39.45350424" lon="-0.3472459"><ele>6.0</ele><time>2022-11-04T14:54:58.0000000+00:00</time></trkpt><trkpt lat="39.45350398" lon="-0.3472459"><ele>6.0</ele><time>2022-11-04T14:54:59.0000000+00:00</time></trkpt><trkpt lat="39.45350113" lon="-0.3472459"><ele>6.0</ele><time>2022-11-04T14:55:00.0000000+00:00</time></trkpt><trkpt lat="39.45349912" lon="-0.3472459"><ele>6.0</ele><time>2022-11-04T14:55:01.0000000+00:00</time></trkpt><trkpt lat="39.45349812" lon="-0.3472459"><ele>6.0</ele><time>2022-11-04T14:55:02.0000000+00:00</time></trkpt><trkpt lat="39.45349736" lon="-0.3472459"><ele>6.0</ele><time>2022-11-04T14:55:03.0000000+00:00</time></trkpt><trkpt lat="39.45349636" lon="-0.3472459"><ele>6.0</ele><time>2022-11-04T14:55:04.0000000+00:00</time></trkpt><trkpt lat="39.45349501" lon="-0.3472459"><ele>6.0</ele><time>2022-11-04T14:55:05.0000000+00:00</time></trkpt><trkpt lat="39.45349208" lon="-0.3472459"><ele>6.0</ele><time>2022-11-04T14:55:06.0000000+00:00</time></trkpt><trkpt lat="39.45348823" lon="-0.3472459"><ele>6.0</ele><time>2022-11-04T14:55:07.0000000+00:00</time></trkpt><trkpt lat="39.45348454" lon="-0.34724574"><ele>6.0</ele><time>2022-11-04T14:55:08.0000000+00:00</time></trkpt><trkpt lat="39.45348295" lon="-0.3472454"><ele>6.0</ele><time>2022-11-04T14:55:09.0000000+00:00</time></trkpt><trkpt lat="39.45348152" lon="-0.34724481"><ele>6.0</ele><time>2022-11-04T14:55:10.0000000+00:00</time></trkpt><trkpt lat="39.45347892" lon="-0.34724448"><ele>6.0</ele><time>2022-11-04T14:55:11.0000000+00:00</time></trkpt><trkpt lat="39.4534754" lon="-0.34724113"><ele>6.0</ele><time>2022-11-04T14:55:12.0000000+00:00</time></trkpt><trkpt lat="39.45347121" lon="-0.34723895"><ele>6.0</ele><time>2022-11-04T14:55:13.0000000+00:00</time></trkpt><trkpt lat="39.45346752" lon="-0.34723551"><ele>6.0</ele><time>2022-11-04T14:55:14.0000000+00:00</time></trkpt><trkpt lat="39.45346601" lon="-0.34723442"><ele>6.0</ele><time>2022-11-04T14:55:15.0000000+00:00</time></trkpt><trkpt lat="39.45346559" lon="-0.34723342"><ele>6.0</ele><time>2022-11-04T14:55:16.0000000+00:00</time></trkpt><trkpt lat="39.45346367" lon="-0.34723174"><ele>6.0</ele><time>2022-11-04T14:55:17.0000000+00:00</time></trkpt><trkpt lat="39.45346132" lon="-0.34723006"><ele>6.0</ele><time>2022-11-04T14:55:18.0000000+00:00</time></trkpt><trkpt lat="39.4534578" lon="-0.3472283"><ele>6.0</ele><time>2022-11-04T14:55:19.0000000+00:00</time></trkpt><trkpt lat="39.45345428" lon="-0.34722713"><ele>6.0</ele><time>2022-11-04T14:55:20.0000000+00:00</time></trkpt><trkpt lat="39.45345252" lon="-0.34722411"><ele>6.0</ele><time>2022-11-04T14:55:21.0000000+00:00</time></trkpt><trkpt lat="39.45345042" lon="-0.34722051"><ele>6.0</ele><time>2022-11-04T14:55:22.0000000+00:00</time></trkpt><trkpt lat="39.45344632" lon="-0.34721497"><ele>6.0</ele><time>2022-11-04T14:55:23.0000000+00:00</time></trkpt><trkpt lat="39.45344104" lon="-0.34720768"><ele>6.0</ele><time>2022-11-04T14:55:24.0000000+00:00</time></trkpt><trkpt lat="39.45343542" lon="-0.34720039"><ele>6.0</ele><time>2022-11-04T14:55:25.0000000+00:00</time></trkpt><trkpt lat="39.4534283" lon="-0.34719318"><ele>6.0</ele><time>2022-11-04T14:55:26.0000000+00:00</time></trkpt><trkpt lat="39.45342176" lon="-0.34718631"><ele>6.0</ele><time>2022-11-04T14:55:27.0000000+00:00</time></trkpt><trkpt lat="39.45341757" lon="-0.34717768"><ele>6.0</ele><time>2022-11-04T14:55:28.0000000+00:00</time></trkpt><trkpt lat="39.45341555" lon="-0.34717105"><ele>6.0</ele><time>2022-11-04T14:55:29.0000000+00:00</time></trkpt><trkpt lat="39.45341388" lon="-0.34716728"><ele>6.0</ele><time>2022-11-04T14:55:30.0000000+00:00</time></trkpt><trkpt lat="39.4534122" lon="-0.34716485"><ele>6.0</ele><time>2022-11-04T14:55:31.0000000+00:00</time></trkpt><trkpt lat="39.45341153" lon="-0.34716385"><ele>6.0</ele><time>2022-11-04T14:55:32.0000000+00:00</time></trkpt><trkpt lat="39.45341136" lon="-0.34716242"><ele>6.0</ele><time>2022-11-04T14:55:33.0000000+00:00</time></trkpt><trkpt lat="39.45341078" lon="-0.34716167"><ele>6.0</ele><time>2022-11-04T14:55:34.0000000+00:00</time></trkpt><trkpt lat="39.45340952" lon="-0.34715915"><ele>6.0</ele><time>2022-11-04T14:55:35.0000000+00:00</time></trkpt><trkpt lat="39.45340868" lon="-0.34715328"><ele>6.0</ele><time>2022-11-04T14:55:36.0000000+00:00</time></trkpt><trkpt lat="39.45340793" lon="-0.34714934"><ele>6.0</ele><time>2022-11-04T14:55:37.0000000+00:00</time></trkpt><trkpt lat="39.45340768" lon="-0.34714675"><ele>6.0</ele><time>2022-11-04T14:55:38.0000000+00:00</time></trkpt><trkpt lat="39.45340675" lon="-0.34714582"><ele>6.0</ele><time>2022-11-04T14:55:39.0000000+00:00</time></trkpt><trkpt lat="39.45340592" lon="-0.34714532"><ele>6.0</ele><time>2022-11-04T14:55:40.0000000+00:00</time></trkpt><trkpt lat="39.45340483" lon="-0.34714507"><ele>6.0</ele><time>2022-11-04T14:55:41.0000000+00:00</time></trkpt><trkpt lat="39.45340281" lon="-0.34714465"><ele>6.0</ele><time>2022-11-04T14:55:42.0000000+00:00</time></trkpt><trkpt lat="39.4534008" lon="-0.34714448"><ele>6.0</ele><time>2022-11-04T14:55:43.0000000+00:00</time></trkpt><trkpt lat="39.45339904" lon="-0.34714373"><ele>6.0</ele><time>2022-11-04T14:55:44.0000000+00:00</time></trkpt><trkpt lat="39.45339737" lon="-0.34714339"><ele>6.0</ele><time>2022-11-04T14:55:45.0000000+00:00</time></trkpt><trkpt lat="39.45339552" lon="-0.34714297"><ele>6.0</ele><time>2022-11-04T14:55:46.0000000+00:00</time></trkpt><trkpt lat="39.45339452" lon="-0.3471418"><ele>6.0</ele><time>2022-11-04T14:55:47.0000000+00:00</time></trkpt><trkpt lat="39.45339359" lon="-0.34714038"><ele>6.0</ele><time>2022-11-04T14:55:48.0000000+00:00</time></trkpt><trkpt lat="39.45339276" lon="-0.34713811"><ele>6.0</ele><time>2022-11-04T14:55:49.0000000+00:00</time></trkpt><trkpt lat="39.45339234" lon="-0.34713627"><ele>6.0</ele><time>2022-11-04T14:55:50.0000000+00:00</time></trkpt><trkpt lat="39.45339209" lon="-0.34713543"><ele>6.0</ele><time>2022-11-04T14:55:51.0000000+00:00</time></trkpt><trkpt lat="39.45339167" lon="-0.34713417"><ele>6.0</ele><time>2022-11-04T14:55:52.0000000+00:00</time></trkpt><trkpt lat="39.4533915" lon="-0.34713317"><ele>6.0</ele><time>2022-11-04T14:55:53.0000000+00:00</time></trkpt><trkpt lat="39.45339058" lon="-0.34713233"><ele>6.0</ele><time>2022-11-04T14:55:54.0000000+00:00</time></trkpt><trkpt lat="39.45338873" lon="-0.34713166"><ele>6.0</ele><time>2022-11-04T14:55:55.0000000+00:00</time></trkpt><trkpt lat="39.45338337" lon="-0.34713116"><ele>6.0</ele><time>2022-11-04T14:55:56.0000000+00:00</time></trkpt><trkpt lat="39.45337934" lon="-0.3471309"><ele>6.0</ele><time>2022-11-04T14:55:57.0000000+00:00</time></trkpt><trkpt lat="39.45337725" lon="-0.34713082"><ele>6.0</ele><time>2022-11-04T14:55:58.0000000+00:00</time></trkpt><trkpt lat="39.45337608" lon="-0.34713074"><ele>6.0</ele><time>2022-11-04T14:55:59.0000000+00:00</time></trkpt><trkpt lat="39.45337365" lon="-0.34713074"><ele>6.0</ele><time>2022-11-04T14:56:00.0000000+00:00</time></trkpt><trkpt lat="39.45337138" lon="-0.34713074"><ele>6.0</ele><time>2022-11-04T14:56:01.0000000+00:00</time></trkpt><trkpt lat="39.45336929" lon="-0.34713074"><ele>6.0</ele><time>2022-11-04T14:56:02.0000000+00:00</time></trkpt><trkpt lat="39.4533682" lon="-0.34713074"><ele>6.0</ele><time>2022-11-04T14:56:03.0000000+00:00</time></trkpt><trkpt lat="39.45336761" lon="-0.34713074"><ele>6.0</ele><time>2022-11-04T14:56:04.0000000+00:00</time></trkpt><trkpt lat="39.45336736" lon="-0.34713074"><ele>6.0</ele><time>2022-11-04T14:56:05.0000000+00:00</time></trkpt><trkpt lat="39.45336644" lon="-0.34713074"><ele>6.0</ele><time>2022-11-04T14:56:06.0000000+00:00</time></trkpt><trkpt lat="39.45336593" lon="-0.34713074"><ele>6.0</ele><time>2022-11-04T14:56:07.0000000+00:00</time></trkpt><trkpt lat="39.45336551" lon="-0.34713074"><ele>6.0</ele><time>2022-11-04T14:56:08.0000000+00:00</time></trkpt><trkpt lat="39.45336535" lon="-0.3471309"><ele>6.0</ele><time>2022-11-04T14:56:09.0000000+00:00</time></trkpt><trkpt lat="39.45336518" lon="-0.34713124"><ele>6.0</ele><time>2022-11-04T14:56:10.0000000+00:00</time></trkpt><trkpt lat="39.45336518" lon="-0.34713417"><ele>6.0</ele><time>2022-11-04T14:56:11.0000000+00:00</time></trkpt><trkpt lat="39.4533651" lon="-0.34713694"><ele>6.0</ele><time>2022-11-04T14:56:12.0000000+00:00</time></trkpt><trkpt lat="39.4533651" lon="-0.3471387"><ele>6.0</ele><time>2022-11-04T14:56:13.0000000+00:00</time></trkpt><trkpt lat="39.4533651" lon="-0.34713987"><ele>6.0</ele><time>2022-11-04T14:56:14.0000000+00:00</time></trkpt><trkpt lat="39.4533651" lon="-0.34714046"><ele>6.0</ele><time>2022-11-04T14:56:15.0000000+00:00</time></trkpt><trkpt lat="39.4533651" lon="-0.34714088"><ele>6.0</ele><time>2022-11-04T14:56:16.0000000+00:00</time></trkpt><trkpt lat="39.4533651" lon="-0.34714188"><ele>6.0</ele><time>2022-11-04T14:56:17.0000000+00:00</time></trkpt><trkpt lat="39.4533651" lon="-0.34714247"><ele>6.0</ele><time>2022-11-04T14:56:18.0000000+00:00</time></trkpt><trkpt lat="39.45336526" lon="-0.34714306"><ele>6.0</ele><time>2022-11-04T14:56:19.0000000+00:00</time></trkpt><trkpt lat="39.45336602" lon="-0.34714339"><ele>6.0</ele><time>2022-11-04T14:56:20.0000000+00:00</time></trkpt><trkpt lat="39.45336652" lon="-0.34714398"><ele>6.0</ele><time>2022-11-04T14:56:21.0000000+00:00</time></trkpt><trkpt lat="39.45336711" lon="-0.34714473"><ele>6.0</ele><time>2022-11-04T14:56:22.0000000+00:00</time></trkpt><trkpt lat="39.45336786" lon="-0.34714524"><ele>6.0</ele><time>2022-11-04T14:56:23.0000000+00:00</time></trkpt><trkpt lat="39.45336878" lon="-0.34714582"><ele>6.0</ele><time>2022-11-04T14:56:24.0000000+00:00</time></trkpt><trkpt lat="39.45336962" lon="-0.34714624"><ele>6.0</ele><time>2022-11-04T14:56:25.0000000+00:00</time></trkpt><trkpt lat="39.45337021" lon="-0.34714691"><ele>6.0</ele><time>2022-11-04T14:56:26.0000000+00:00</time></trkpt><trkpt lat="39.4533713" lon="-0.34714767"><ele>6.0</ele><time>2022-11-04T14:56:27.0000000+00:00</time></trkpt><trkpt lat="39.45337214" lon="-0.34714876"><ele>6.0</ele><time>2022-11-04T14:56:28.0000000+00:00</time></trkpt><trkpt lat="39.45337415" lon="-0.34715127"><ele>6.0</ele><time>2022-11-04T14:56:29.0000000+00:00</time></trkpt><trkpt lat="39.45337675" lon="-0.3471532"><ele>6.0</ele><time>2022-11-04T14:56:30.0000000+00:00</time></trkpt><trkpt lat="39.45337842" lon="-0.34715471"><ele>6.0</ele><time>2022-11-04T14:56:31.0000000+00:00</time></trkpt><trkpt lat="39.45337951" lon="-0.34715588"><ele>6.0</ele><time>2022-11-04T14:56:32.0000000+00:00</time></trkpt><trkpt lat="39.45338018" lon="-0.3471568"><ele>6.0</ele><time>2022-11-04T14:56:33.0000000+00:00</time></trkpt><trkpt lat="39.4533806" lon="-0.34715806"><ele>6.0</ele><time>2022-11-04T14:56:34.0000000+00:00</time></trkpt><trkpt lat="39.45338085" lon="-0.34715924"><ele>6.0</ele><time>2022-11-04T14:56:35.0000000+00:00</time></trkpt><trkpt lat="39.45338102" lon="-0.34716007"><ele>6.0</ele><time>2022-11-04T14:56:36.0000000+00:00</time></trkpt><trkpt lat="39.45338119" lon="-0.34716066"><ele>6.0</ele><time>2022-11-04T14:56:37.0000000+00:00</time></trkpt><trkpt lat="39.45338127" lon="-0.347161"><ele>6.0</ele><time>2022-11-04T14:56:38.0000000+00:00</time></trkpt><trkpt lat="39.45338127" lon="-0.34716125"><ele>6.0</ele><time>2022-11-04T14:56:39.0000000+00:00</time></trkpt><trkpt lat="39.45338136" lon="-0.3471615"><ele>6.0</ele><time>2022-11-04T14:56:40.0000000+00:00</time></trkpt><trkpt lat="39.45338136" lon="-0.34716158"><ele>6.0</ele><time>2022-11-04T14:56:41.0000000+00:00</time></trkpt><trkpt lat="39.45338136" lon="-0.34716183"><ele>6.0</ele><time>2022-11-04T14:56:42.0000000+00:00</time></trkpt><trkpt lat="39.45338136" lon="-0.34716192"><ele>6.0</ele><time>2022-11-04T14:56:43.0000000+00:00</time></trkpt><trkpt lat="39.45338144" lon="-0.347162"><ele>6.0</ele><time>2022-11-04T14:56:44.0000000+00:00</time></trkpt><trkpt lat="39.45338136" lon="-0.34716209"><ele>6.0</ele><time>2022-11-04T14:56:45.0000000+00:00</time></trkpt><trkpt lat="39.45338069" lon="-0.34716209"><ele>6.0</ele><time>2022-11-04T14:56:46.0000000+00:00</time></trkpt><trkpt lat="39.45338027" lon="-0.34716217"><ele>6.0</ele><time>2022-11-04T14:56:47.0000000+00:00</time></trkpt><trkpt lat="39.45337993" lon="-0.34716234"><ele>6.0</ele><time>2022-11-04T14:56:48.0000000+00:00</time></trkpt><trkpt lat="39.45337968" lon="-0.3471625"><ele>6.0</ele><time>2022-11-04T14:56:49.0000000+00:00</time></trkpt><trkpt lat="39.45337951" lon="-0.34716267"><ele>6.0</ele><time>2022-11-04T14:56:50.0000000+00:00</time></trkpt><trkpt lat="39.45337943" lon="-0.34716292"><ele>6.0</ele><time>2022-11-04T14:56:51.0000000+00:00</time></trkpt><trkpt lat="39.45337934" lon="-0.34716309"><ele>6.0</ele><time>2022-11-04T14:56:52.0000000+00:00</time></trkpt><trkpt lat="39.45337901" lon="-0.34716787"><ele>6.0</ele><time>2022-11-04T14:56:53.0000000+00:00</time></trkpt><trkpt lat="39.4533744" lon="-0.34717868"><ele>6.0</ele><time>2022-11-04T14:56:54.0000000+00:00</time></trkpt><trkpt lat="39.45337608" lon="-0.34719922"><ele>6.0</ele><time>2022-11-04T14:56:55.0000000+00:00</time></trkpt><trkpt lat="39.45338018" lon="-0.34722436"><ele>6.0</ele><time>2022-11-04T14:56:56.0000000+00:00</time></trkpt><trkpt lat="39.45338429" lon="-0.34725068"><ele>6.0</ele><time>2022-11-04T14:56:57.0000000+00:00</time></trkpt><trkpt lat="39.45338664" lon="-0.34728052"><ele>6.0</ele><time>2022-11-04T14:56:58.0000000+00:00</time></trkpt><trkpt lat="39.45338714" lon="-0.34731145"><ele>6.0</ele><time>2022-11-04T14:56:59.0000000+00:00</time></trkpt><trkpt lat="39.4533837" lon="-0.34733869"><ele>6.0</ele><time>2022-11-04T14:57:00.0000000+00:00</time></trkpt><trkpt lat="39.45337649" lon="-0.34736157"><ele>6.0</ele><time>2022-11-04T14:57:01.0000000+00:00</time></trkpt><trkpt lat="39.45337541" lon="-0.34738991"><ele>6.0</ele><time>2022-11-04T14:57:02.0000000+00:00</time></trkpt><trkpt lat="39.45337867" lon="-0.34740491"><ele>6.0</ele><time>2022-11-04T14:57:03.0000000+00:00</time></trkpt><trkpt lat="39.45338261" lon="-0.34742176"><ele>6.0</ele><time>2022-11-04T14:57:04.0000000+00:00</time></trkpt><trkpt lat="39.45338287" lon="-0.34743953"><ele>6.0</ele><time>2022-11-04T14:57:05.0000000+00:00</time></trkpt><trkpt lat="39.45338379" lon="-0.34745336"><ele>6.0</ele><time>2022-11-04T14:57:06.0000000+00:00</time></trkpt><trkpt lat="39.45338538" lon="-0.34746341"><ele>6.0</ele><time>2022-11-04T14:57:07.0000000+00:00</time></trkpt><trkpt lat="39.45338546" lon="-0.34747582"><ele>6.0</ele><time>2022-11-04T14:57:08.0000000+00:00</time></trkpt><trkpt lat="39.45338362" lon="-0.34749074"><ele>6.0</ele><time>2022-11-04T14:57:09.0000000+00:00</time></trkpt><trkpt lat="39.45338831" lon="-0.3475091"><ele>6.0</ele><time>2022-11-04T14:57:10.0000000+00:00</time></trkpt><trkpt lat="39.45339552" lon="-0.34752511"><ele>6.0</ele><time>2022-11-04T14:57:11.0000000+00:00</time></trkpt><trkpt lat="39.45339946" lon="-0.34753818"><ele>5.8</ele><time>2022-11-04T14:57:12.0000000+00:00</time></trkpt><trkpt lat="39.45340416" lon="-0.34755344"><ele>5.8</ele><time>2022-11-04T14:57:13.0000000+00:00</time></trkpt><trkpt lat="39.45340382" lon="-0.34757506"><ele>5.8</ele><time>2022-11-04T14:57:14.0000000+00:00</time></trkpt><trkpt lat="39.45339552" lon="-0.34760775"><ele>5.8</ele><time>2022-11-04T14:57:15.0000000+00:00</time></trkpt><trkpt lat="39.45339644" lon="-0.34762711"><ele>5.8</ele><time>2022-11-04T14:57:16.0000000+00:00</time></trkpt><trkpt lat="39.45339477" lon="-0.34766047"><ele>6.0</ele><time>2022-11-04T14:57:17.0000000+00:00</time></trkpt><trkpt lat="39.45339175" lon="-0.34769299"><ele>6.2</ele><time>2022-11-04T14:57:18.0000000+00:00</time></trkpt><trkpt lat="39.45339426" lon="-0.34771655"><ele>6.2</ele><time>2022-11-04T14:57:19.0000000+00:00</time></trkpt><trkpt lat="39.45339837" lon="-0.34773541"><ele>6.2</ele><time>2022-11-04T14:57:20.0000000+00:00</time></trkpt><trkpt lat="39.45340374" lon="-0.34775075"><ele>6.0</ele><time>2022-11-04T14:57:21.0000000+00:00</time></trkpt><trkpt lat="39.45341245" lon="-0.34776541"><ele>5.8</ele><time>2022-11-04T14:57:22.0000000+00:00</time></trkpt><trkpt lat="39.45342419" lon="-0.34777975"><ele>5.8</ele><time>2022-11-04T14:57:23.0000000+00:00</time></trkpt><trkpt lat="39.45342947" lon="-0.34779056"><ele>5.6</ele><time>2022-11-04T14:57:24.0000000+00:00</time></trkpt><trkpt lat="39.45343265" lon="-0.34779819"><ele>5.6</ele><time>2022-11-04T14:57:25.0000000+00:00</time></trkpt><trkpt lat="39.45343475" lon="-0.34780263"><ele>5.6</ele><time>2022-11-04T14:57:26.0000000+00:00</time></trkpt><trkpt lat="39.45342813" lon="-0.34780707"><ele>5.6</ele><time>2022-11-04T14:57:27.0000000+00:00</time></trkpt><trkpt lat="39.45342913" lon="-0.34780674"><ele>5.8</ele><time>2022-11-04T14:57:28.0000000+00:00</time></trkpt><trkpt lat="39.45341991" lon="-0.34779919"><ele>5.8</ele><time>2022-11-04T14:57:29.0000000+00:00</time></trkpt><trkpt lat="39.45342092" lon="-0.347795"><ele>5.8</ele><time>2022-11-04T14:57:30.0000000+00:00</time></trkpt><trkpt lat="39.45342142" lon="-0.34779358"><ele>5.8</ele><time>2022-11-04T14:57:31.0000000+00:00</time></trkpt><trkpt lat="39.45342159" lon="-0.34779022"><ele>5.8</ele><time>2022-11-04T14:57:32.0000000+00:00</time></trkpt><trkpt lat="39.45342117" lon="-0.34778972"><ele>5.8</ele><time>2022-11-04T14:57:33.0000000+00:00</time></trkpt><trkpt lat="39.4534205" lon="-0.34778972"><ele>5.8</ele><time>2022-11-04T14:57:34.0000000+00:00</time></trkpt><trkpt lat="39.45341983" lon="-0.34778662"><ele>5.8</ele><time>2022-11-04T14:57:35.0000000+00:00</time></trkpt><trkpt lat="39.45341941" lon="-0.34778444"><ele>5.8</ele><time>2022-11-04T14:57:36.0000000+00:00</time></trkpt><trkpt lat="39.45341899" lon="-0.3477883"><ele>5.8</ele><time>2022-11-04T14:57:37.0000000+00:00</time></trkpt><trkpt lat="39.45341899" lon="-0.34778746"><ele>5.8</ele><time>2022-11-04T14:57:38.0000000+00:00</time></trkpt><trkpt lat="39.45341748" lon="-0.34778989"><ele>5.8</ele><time>2022-11-04T14:57:39.0000000+00:00</time></trkpt><trkpt lat="39.45341606" lon="-0.34779307"><ele>6.0</ele><time>2022-11-04T14:57:40.0000000+00:00</time></trkpt><trkpt lat="39.45341673" lon="-0.34779442"><ele>6.0</ele><time>2022-11-04T14:57:41.0000000+00:00</time></trkpt><trkpt lat="39.45341648" lon="-0.34779433"><ele>6.0</ele><time>2022-11-04T14:57:42.0000000+00:00</time></trkpt><trkpt lat="39.45341648" lon="-0.34779433"><ele>6.0</ele><time>2022-11-04T14:57:43.0000000+00:00</time></trkpt><trkpt lat="39.45341648" lon="-0.34779433"><ele>6.0</ele><time>2022-11-04T14:57:44.0000000+00:00</time></trkpt><trkpt lat="39.45341648" lon="-0.34779433"><ele>6.0</ele><time>2022-11-04T14:57:45.0000000+00:00</time></trkpt><trkpt lat="39.45341648" lon="-0.34779433"><ele>6.0</ele><time>2022-11-04T14:57:46.0000000+00:00</time></trkpt><trkpt lat="39.45341648" lon="-0.34779433"><ele>6.0</ele><time>2022-11-04T14:57:47.0000000+00:00</time></trkpt><trkpt lat="39.45341648" lon="-0.34779433"><ele>6.0</ele><time>2022-11-04T14:57:48.0000000+00:00</time></trkpt><trkpt lat="39.45341648" lon="-0.34779433"><ele>6.0</ele><time>2022-11-04T14:57:49.0000000+00:00</time></trkpt><trkpt lat="39.45341648" lon="-0.34779433"><ele>6.0</ele><time>2022-11-04T14:57:50.0000000+00:00</time></trkpt><trkpt lat="39.45341648" lon="-0.34779433"><ele>6.0</ele><time>2022-11-04T14:57:51.0000000+00:00</time></trkpt><trkpt lat="39.45341648" lon="-0.34779433"><ele>6.0</ele><time>2022-11-04T14:57:52.0000000+00:00</time></trkpt><trkpt lat="39.45341648" lon="-0.34779433"><ele>5.8</ele><time>2022-11-04T14:57:53.0000000+00:00</time></trkpt><trkpt lat="39.45341648" lon="-0.34779433"><ele>5.8</ele><time>2022-11-04T14:57:54.0000000+00:00</time></trkpt><trkpt lat="39.45341648" lon="-0.34779433"><ele>5.8</ele><time>2022-11-04T14:57:55.0000000+00:00</time></trkpt><trkpt lat="39.45341656" lon="-0.34779433"><ele>5.8</ele><time>2022-11-04T14:57:56.0000000+00:00</time></trkpt><trkpt lat="39.45341673" lon="-0.34779433"><ele>5.8</ele><time>2022-11-04T14:57:57.0000000+00:00</time></trkpt><trkpt lat="39.45341673" lon="-0.34779433"><ele>5.6</ele><time>2022-11-04T14:57:58.0000000+00:00</time></trkpt><trkpt lat="39.45341673" lon="-0.34779433"><ele>5.6</ele><time>2022-11-04T14:57:59.0000000+00:00</time></trkpt><trkpt lat="39.45341673" lon="-0.34779433"><ele>5.6</ele><time>2022-11-04T14:58:00.0000000+00:00</time></trkpt><trkpt lat="39.45341673" lon="-0.34779433"><ele>5.6</ele><time>2022-11-04T14:58:01.0000000+00:00</time></trkpt><trkpt lat="39.45341681" lon="-0.34779433"><ele>5.6</ele><time>2022-11-04T14:58:02.0000000+00:00</time></trkpt><trkpt lat="39.45341681" lon="-0.34779442"><ele>5.6</ele><time>2022-11-04T14:58:03.0000000+00:00</time></trkpt><trkpt lat="39.45341681" lon="-0.34779584"><ele>5.6</ele><time>2022-11-04T14:58:04.0000000+00:00</time></trkpt><trkpt lat="39.45341681" lon="-0.34779643"><ele>5.6</ele><time>2022-11-04T14:58:05.0000000+00:00</time></trkpt><trkpt lat="39.45341681" lon="-0.34779643"><ele>5.6</ele><time>2022-11-04T14:58:06.0000000+00:00</time></trkpt><trkpt lat="39.45341681" lon="-0.34779844"><ele>5.6</ele><time>2022-11-04T14:58:07.0000000+00:00</time></trkpt><trkpt lat="39.45341681" lon="-0.34779911"><ele>5.8</ele><time>2022-11-04T14:58:08.0000000+00:00</time></trkpt><trkpt lat="39.45341681" lon="-0.34779936"><ele>5.8</ele><time>2022-11-04T14:58:09.0000000+00:00</time></trkpt><trkpt lat="39.4534169" lon="-0.3478033"><ele>5.8</ele><time>2022-11-04T14:58:10.0000000+00:00</time></trkpt><trkpt lat="39.4534174" lon="-0.3478059"><ele>5.8</ele><time>2022-11-04T14:58:11.0000000+00:00</time></trkpt><trkpt lat="39.45341748" lon="-0.34781721"><ele>5.8</ele><time>2022-11-04T14:58:12.0000000+00:00</time></trkpt><trkpt lat="39.45341799" lon="-0.34782283"><ele>5.8</ele><time>2022-11-04T14:58:13.0000000+00:00</time></trkpt><trkpt lat="39.45341824" lon="-0.34782493"><ele>5.8</ele><time>2022-11-04T14:58:14.0000000+00:00</time></trkpt><trkpt lat="39.45341975" lon="-0.34782744"><ele>5.8</ele><time>2022-11-04T14:58:15.0000000+00:00</time></trkpt><trkpt lat="39.45342494" lon="-0.34783104"><ele>5.8</ele><time>2022-11-04T14:58:16.0000000+00:00</time></trkpt><trkpt lat="39.45342746" lon="-0.34783197"><ele>5.8</ele><time>2022-11-04T14:58:17.0000000+00:00</time></trkpt><trkpt lat="39.45342796" lon="-0.34783239"><ele>6.0</ele><time>2022-11-04T14:58:18.0000000+00:00</time></trkpt><trkpt lat="39.45342821" lon="-0.34783281"><ele>6.0</ele><time>2022-11-04T14:58:19.0000000+00:00</time></trkpt><trkpt lat="39.4534283" lon="-0.34783348"><ele>6.0</ele><time>2022-11-04T14:58:20.0000000+00:00</time></trkpt><trkpt lat="39.45342871" lon="-0.34783364"><ele>6.0</ele><time>2022-11-04T14:58:21.0000000+00:00</time></trkpt><trkpt lat="39.45342897" lon="-0.34783507"><ele>6.0</ele><time>2022-11-04T14:58:22.0000000+00:00</time></trkpt><trkpt lat="39.45342922" lon="-0.34783582"><ele>6.0</ele><time>2022-11-04T14:58:23.0000000+00:00</time></trkpt><trkpt lat="39.4534293" lon="-0.347837"><ele>6.0</ele><time>2022-11-04T14:58:24.0000000+00:00</time></trkpt><trkpt lat="39.45342938" lon="-0.34783809"><ele>6.0</ele><time>2022-11-04T14:58:25.0000000+00:00</time></trkpt><trkpt lat="39.45342972" lon="-0.3478385"><ele>6.0</ele><time>2022-11-04T14:58:26.0000000+00:00</time></trkpt><trkpt lat="39.45342989" lon="-0.34783867"><ele>6.0</ele><time>2022-11-04T14:58:27.0000000+00:00</time></trkpt><trkpt lat="39.45343014" lon="-0.34783926"><ele>5.8</ele><time>2022-11-04T14:58:28.0000000+00:00</time></trkpt><trkpt lat="39.45343056" lon="-0.3478401"><ele>5.8</ele><time>2022-11-04T14:58:29.0000000+00:00</time></trkpt><trkpt lat="39.45343073" lon="-0.34784052"><ele>5.8</ele><time>2022-11-04T14:58:30.0000000+00:00</time></trkpt><trkpt lat="39.45343156" lon="-0.34784068"><ele>5.8</ele><time>2022-11-04T14:58:31.0000000+00:00</time></trkpt><trkpt lat="39.45343182" lon="-0.34784144"><ele>5.6</ele><time>2022-11-04T14:58:32.0000000+00:00</time></trkpt><trkpt lat="39.4534319" lon="-0.34784236"><ele>5.6</ele><time>2022-11-04T14:58:33.0000000+00:00</time></trkpt><trkpt lat="39.45343265" lon="-0.34784261"><ele>5.6</ele><time>2022-11-04T14:58:34.0000000+00:00</time></trkpt><trkpt lat="39.45343299" lon="-0.3478427"><ele>5.6</ele><time>2022-11-04T14:58:35.0000000+00:00</time></trkpt><trkpt lat="39.45343626" lon="-0.3478427"><ele>5.6</ele><time>2022-11-04T14:58:36.0000000+00:00</time></trkpt><trkpt lat="39.45343877" lon="-0.3478427"><ele>5.6</ele><time>2022-11-04T14:58:37.0000000+00:00</time></trkpt><trkpt lat="39.45343953" lon="-0.3478427"><ele>5.6</ele><time>2022-11-04T14:58:38.0000000+00:00</time></trkpt><trkpt lat="39.45343995" lon="-0.3478427"><ele>5.8</ele><time>2022-11-04T14:58:39.0000000+00:00</time></trkpt><trkpt lat="39.45344003" lon="-0.3478427"><ele>5.8</ele><time>2022-11-04T14:58:40.0000000+00:00</time></trkpt><trkpt lat="39.4534402" lon="-0.3478427"><ele>6.0</ele><time>2022-11-04T14:58:41.0000000+00:00</time></trkpt><trkpt lat="39.45344036" lon="-0.3478427"><ele>6.0</ele><time>2022-11-04T14:58:42.0000000+00:00</time></trkpt><trkpt lat="39.45344045" lon="-0.3478427"><ele>6.0</ele><time>2022-11-04T14:58:43.0000000+00:00</time></trkpt><trkpt lat="39.4534407" lon="-0.3478427"><ele>6.0</ele><time>2022-11-04T14:58:44.0000000+00:00</time></trkpt><trkpt lat="39.45344078" lon="-0.34784135"><ele>6.0</ele><time>2022-11-04T14:58:45.0000000+00:00</time></trkpt><trkpt lat="39.45344087" lon="-0.34784094"><ele>6.2</ele><time>2022-11-04T14:58:46.0000000+00:00</time></trkpt><trkpt lat="39.45344087" lon="-0.34784068"><ele>6.2</ele><time>2022-11-04T14:58:47.0000000+00:00</time></trkpt><trkpt lat="39.45344104" lon="-0.34784052"><ele>6.2</ele><time>2022-11-04T14:58:48.0000000+00:00</time></trkpt><trkpt lat="39.4534412" lon="-0.34783943"><ele>6.2</ele><time>2022-11-04T14:58:49.0000000+00:00</time></trkpt><trkpt lat="39.45344171" lon="-0.34783892"><ele>6.2</ele><time>2022-11-04T14:58:50.0000000+00:00</time></trkpt><trkpt lat="39.45344213" lon="-0.3478385"><ele>6.2</ele><time>2022-11-04T14:58:51.0000000+00:00</time></trkpt><trkpt lat="39.45344288" lon="-0.34783834"><ele>6.2</ele><time>2022-11-04T14:58:52.0000000+00:00</time></trkpt><trkpt lat="39.45344422" lon="-0.34783792"><ele>6.2</ele><time>2022-11-04T14:58:53.0000000+00:00</time></trkpt><trkpt lat="39.45344531" lon="-0.34783767"><ele>6.2</ele><time>2022-11-04T14:58:54.0000000+00:00</time></trkpt><trkpt lat="39.45344606" lon="-0.34783725"><ele>6.2</ele><time>2022-11-04T14:58:55.0000000+00:00</time></trkpt><trkpt lat="39.45344682" lon="-0.34783582"><ele>6.2</ele><time>2022-11-04T14:58:56.0000000+00:00</time></trkpt><trkpt lat="39.45344833" lon="-0.34783498"><ele>6.2</ele><time>2022-11-04T14:58:57.0000000+00:00</time></trkpt><trkpt lat="39.45345118" lon="-0.34783088"><ele>6.2</ele><time>2022-11-04T14:58:58.0000000+00:00</time></trkpt><trkpt lat="39.45345361" lon="-0.34783674"><ele>6.2</ele><time>2022-11-04T14:58:59.0000000+00:00</time></trkpt><trkpt lat="39.45344891" lon="-0.34783163"><ele>6.2</ele><time>2022-11-04T14:59:00.0000000+00:00</time></trkpt><trkpt lat="39.45344179" lon="-0.34781839"><ele>6.2</ele><time>2022-11-04T14:59:01.0000000+00:00</time></trkpt><trkpt lat="39.45343399" lon="-0.34780221"><ele>6.2</ele><time>2022-11-04T14:59:02.0000000+00:00</time></trkpt><trkpt lat="39.4534267" lon="-0.34778947"><ele>6.2</ele><time>2022-11-04T14:59:03.0000000+00:00</time></trkpt><trkpt lat="39.45342008" lon="-0.34777614"><ele>6.2</ele><time>2022-11-04T14:59:04.0000000+00:00</time></trkpt><trkpt lat="39.45341455" lon="-0.3477624"><ele>6.2</ele><time>2022-11-04T14:59:05.0000000+00:00</time></trkpt><trkpt lat="39.45341094" lon="-0.34774639"><ele>6.2</ele><time>2022-11-04T14:59:06.0000000+00:00</time></trkpt><trkpt lat="39.45340893" lon="-0.34773164"><ele>6.2</ele><time>2022-11-04T14:59:07.0000000+00:00</time></trkpt><trkpt lat="39.45340281" lon="-0.34772158"><ele>6.2</ele><time>2022-11-04T14:59:08.0000000+00:00</time></trkpt><trkpt lat="39.45339385" lon="-0.34771018"><ele>6.2</ele><time>2022-11-04T14:59:09.0000000+00:00</time></trkpt><trkpt lat="39.45338697" lon="-0.34770037"><ele>6.2</ele><time>2022-11-04T14:59:10.0000000+00:00</time></trkpt><trkpt lat="39.4533801" lon="-0.34768847"><ele>6.2</ele><time>2022-11-04T14:59:11.0000000+00:00</time></trkpt><trkpt lat="39.45337842" lon="-0.3476831"><ele>6.2</ele><time>2022-11-04T14:59:12.0000000+00:00</time></trkpt><trkpt lat="39.45337826" lon="-0.34768394"><ele>6.2</ele><time>2022-11-04T14:59:13.0000000+00:00</time></trkpt><trkpt lat="39.4533775" lon="-0.3476707"><ele>6.2</ele><time>2022-11-04T14:59:14.0000000+00:00</time></trkpt><trkpt lat="39.45337549" lon="-0.34767028"><ele>6.2</ele><time>2022-11-04T14:59:15.0000000+00:00</time></trkpt><trkpt lat="39.45338521" lon="-0.34766131"><ele>6.2</ele><time>2022-11-04T14:59:16.0000000+00:00</time></trkpt><trkpt lat="39.45340005" lon="-0.34767615"><ele>6.2</ele><time>2022-11-04T14:59:17.0000000+00:00</time></trkpt><trkpt lat="39.45341279" lon="-0.34769442"><ele>6.2</ele><time>2022-11-04T14:59:18.0000000+00:00</time></trkpt><trkpt lat="39.45342938" lon="-0.34771244"><ele>6.2</ele><time>2022-11-04T14:59:19.0000000+00:00</time></trkpt><trkpt lat="39.45344632" lon="-0.34772753"><ele>6.2</ele><time>2022-11-04T14:59:20.0000000+00:00</time></trkpt><trkpt lat="39.45345688" lon="-0.34772828"><ele>6.2</ele><time>2022-11-04T14:59:21.0000000+00:00</time></trkpt><trkpt lat="39.45346124" lon="-0.34772233"><ele>6.2</ele><time>2022-11-04T14:59:22.0000000+00:00</time></trkpt><trkpt lat="39.45346551" lon="-0.34772141"><ele>6.2</ele><time>2022-11-04T14:59:23.0000000+00:00</time></trkpt><trkpt lat="39.45347264" lon="-0.34771957"><ele>6.2</ele><time>2022-11-04T14:59:24.0000000+00:00</time></trkpt><trkpt lat="39.45348378" lon="-0.34772275"><ele>6.2</ele><time>2022-11-04T14:59:25.0000000+00:00</time></trkpt><trkpt lat="39.45348789" lon="-0.34772107"><ele>6.2</ele><time>2022-11-04T14:59:26.0000000+00:00</time></trkpt><trkpt lat="39.45349359" lon="-0.34771931"><ele>6.2</ele><time>2022-11-04T14:59:27.0000000+00:00</time></trkpt><trkpt lat="39.45350097" lon="-0.34772275"><ele>6.2</ele><time>2022-11-04T14:59:28.0000000+00:00</time></trkpt><trkpt lat="39.45351748" lon="-0.34773524"><ele>6.2</ele><time>2022-11-04T14:59:30.0000000+00:00</time></trkpt><trkpt lat="39.45356391" lon="-0.3477204"><ele>6.2</ele><time>2022-11-04T14:59:33.0000000+00:00</time></trkpt><trkpt lat="39.4535956" lon="-0.34766634"><ele>6.2</ele><time>2022-11-04T14:59:34.0000000+00:00</time></trkpt><trkpt lat="39.45367187" lon="-0.34759518"><ele>6.2</ele><time>2022-11-04T14:59:35.0000000+00:00</time></trkpt><trkpt lat="39.45370716" lon="-0.34756919"><ele>6.2</ele><time>2022-11-04T14:59:36.0000000+00:00</time></trkpt><trkpt lat="39.45388888" lon="-0.34768076"><ele>6.4</ele><time>2022-11-04T14:59:57.0000000+00:00</time></trkpt><trkpt lat="39.45387648" lon="-0.34776726"><ele>6.6</ele><time>2022-11-04T14:59:58.0000000+00:00</time></trkpt><trkpt lat="39.45387488" lon="-0.34776516"><ele>6.6</ele><time>2022-11-04T14:59:59.0000000+00:00</time></trkpt><trkpt lat="39.45383926" lon="-0.34780305"><ele>6.8</ele><time>2022-11-04T15:00:00.0000000+00:00</time></trkpt><trkpt lat="39.45383306" lon="-0.34783457"><ele>6.8</ele><time>2022-11-04T15:00:01.0000000+00:00</time></trkpt><trkpt lat="39.45383113" lon="-0.3478551"><ele>6.8</ele><time>2022-11-04T15:00:02.0000000+00:00</time></trkpt><trkpt lat="39.45378813" lon="-0.34793976"><ele>6.8</ele><time>2022-11-04T15:00:05.0000000+00:00</time></trkpt><trkpt lat="39.45376709" lon="-0.34795359"><ele>6.8</ele><time>2022-11-04T15:00:06.0000000+00:00</time></trkpt><trkpt lat="39.45373834" lon="-0.34796926"><ele>6.8</ele><time>2022-11-04T15:00:07.0000000+00:00</time></trkpt><trkpt lat="39.45372929" lon="-0.34797714"><ele>6.6</ele><time>2022-11-04T15:00:08.0000000+00:00</time></trkpt><trkpt lat="39.45371789" lon="-0.34798418"><ele>6.6</ele><time>2022-11-04T15:00:09.0000000+00:00</time></trkpt><trkpt lat="39.45368738" lon="-0.34802056"><ele>6.6</ele><time>2022-11-04T15:00:10.0000000+00:00</time></trkpt><trkpt lat="39.45366642" lon="-0.34804311"><ele>6.6</ele><time>2022-11-04T15:00:11.0000000+00:00</time></trkpt><trkpt lat="39.45364882" lon="-0.34806088"><ele>6.6</ele><time>2022-11-04T15:00:12.0000000+00:00</time></trkpt><trkpt lat="39.45362954" lon="-0.34808292"><ele>6.6</ele><time>2022-11-04T15:00:13.0000000+00:00</time></trkpt><trkpt lat="39.453608" lon="-0.34810044"><ele>6.6</ele><time>2022-11-04T15:00:14.0000000+00:00</time></trkpt><trkpt lat="39.45358495" lon="-0.34812257"><ele>6.6</ele><time>2022-11-04T15:00:15.0000000+00:00</time></trkpt><trkpt lat="39.453565" lon="-0.3481431"><ele>6.6</ele><time>2022-11-04T15:00:16.0000000+00:00</time></trkpt><trkpt lat="39.45354665" lon="-0.34816003"><ele>6.6</ele><time>2022-11-04T15:00:17.0000000+00:00</time></trkpt><trkpt lat="39.4535293" lon="-0.34817713"><ele>6.6</ele><time>2022-11-04T15:00:18.0000000+00:00</time></trkpt><trkpt lat="39.4535148" lon="-0.3481939"><ele>6.6</ele><time>2022-11-04T15:00:19.0000000+00:00</time></trkpt><trkpt lat="39.45349921" lon="-0.34821192"><ele>6.6</ele><time>2022-11-04T15:00:20.0000000+00:00</time></trkpt><trkpt lat="39.45348722" lon="-0.34822877"><ele>6.6</ele><time>2022-11-04T15:00:21.0000000+00:00</time></trkpt><trkpt lat="39.45347423" lon="-0.34824679"><ele>6.6</ele><time>2022-11-04T15:00:22.0000000+00:00</time></trkpt><trkpt lat="39.45345864" lon="-0.34826531"><ele>6.6</ele><time>2022-11-04T15:00:23.0000000+00:00</time></trkpt><trkpt lat="39.45344732" lon="-0.34827872"><ele>6.6</ele><time>2022-11-04T15:00:24.0000000+00:00</time></trkpt><trkpt lat="39.45341706" lon="-0.34831418"><ele>6.6</ele><time>2022-11-04T15:00:26.0000000+00:00</time></trkpt><trkpt lat="39.45341044" lon="-0.34831661"><ele>6.6</ele><time>2022-11-04T15:00:27.0000000+00:00</time></trkpt><trkpt lat="39.45339846" lon="-0.34833086"><ele>6.6</ele><time>2022-11-04T15:00:28.0000000+00:00</time></trkpt><trkpt lat="39.45353793" lon="-0.34798284"><ele>5.6</ele><time>2022-11-04T15:05:14.0000000+00:00</time></trkpt><trkpt lat="39.45370238" lon="-0.34762326"><ele>5.6</ele><time>2022-11-04T15:05:15.0000000+00:00</time></trkpt><trkpt lat="39.45361295" lon="-0.34785217"><ele>5.6</ele><time>2022-11-04T15:05:16.0000000+00:00</time></trkpt><trkpt lat="39.45361345" lon="-0.34786063"><ele>5.6</ele><time>2022-11-04T15:05:17.0000000+00:00</time></trkpt><trkpt lat="39.45368235" lon="-0.34778235"><ele>5.6</ele><time>2022-11-04T15:05:20.0000000+00:00</time></trkpt><trkpt lat="39.45369065" lon="-0.34778511"><ele>5.6</ele><time>2022-11-04T15:05:21.0000000+00:00</time></trkpt><trkpt lat="39.45367606" lon="-0.34779274"><ele>5.6</ele><time>2022-11-04T15:05:22.0000000+00:00</time></trkpt><trkpt lat="39.4533806" lon="-0.34789902"><ele>6.0</ele><time>2022-11-04T15:05:24.0000000+00:00</time></trkpt><trkpt lat="39.45337356" lon="-0.34799089"><ele>6.0</ele><time>2022-11-04T15:05:25.0000000+00:00</time></trkpt><trkpt lat="39.45336359" lon="-0.34805484"><ele>6.2</ele><time>2022-11-04T15:05:26.0000000+00:00</time></trkpt><trkpt lat="39.45336065" lon="-0.34808435"><ele>6.2</ele><time>2022-11-04T15:05:27.0000000+00:00</time></trkpt><trkpt lat="39.45336929" lon="-0.34801947"><ele>6.2</ele><time>2022-11-04T15:05:28.0000000+00:00</time></trkpt><trkpt lat="39.45337541" lon="-0.34794319"><ele>6.0</ele><time>2022-11-04T15:05:29.0000000+00:00</time></trkpt><trkpt lat="39.4533801" lon="-0.34792308"><ele>6.0</ele><time>2022-11-04T15:05:30.0000000+00:00</time></trkpt><trkpt lat="39.45339225" lon="-0.34790682"><ele>5.8</ele><time>2022-11-04T15:05:31.0000000+00:00</time></trkpt><trkpt lat="39.45339804" lon="-0.34790129"><ele>5.8</ele><time>2022-11-04T15:05:33.0000000+00:00</time></trkpt><trkpt lat="39.45337968" lon="-0.34794068"><ele>5.6</ele><time>2022-11-04T15:05:38.0000000+00:00</time></trkpt><trkpt lat="39.45339276" lon="-0.34796189"><ele>5.6</ele><time>2022-11-04T15:05:39.0000000+00:00</time></trkpt><trkpt lat="39.45339443" lon="-0.34797924"><ele>5.6</ele><time>2022-11-04T15:05:40.0000000+00:00</time></trkpt><trkpt lat="39.45339192" lon="-0.34799097"><ele>5.8</ele><time>2022-11-04T15:05:41.0000000+00:00</time></trkpt><trkpt lat="39.45337582" lon="-0.34801042"><ele>5.8</ele><time>2022-11-04T15:05:42.0000000+00:00</time></trkpt><trkpt lat="39.45336409" lon="-0.34802626"><ele>5.8</ele><time>2022-11-04T15:05:43.0000000+00:00</time></trkpt><trkpt lat="39.45335889" lon="-0.34802978"><ele>5.8</ele><time>2022-11-04T15:05:44.0000000+00:00</time></trkpt><trkpt lat="39.45334875" lon="-0.34809499"><ele>6.0</ele><time>2022-11-04T15:05:45.0000000+00:00</time></trkpt><trkpt lat="39.45334992" lon="-0.3480789"><ele>6.0</ele><time>2022-11-04T15:05:46.0000000+00:00</time></trkpt><trkpt lat="39.45335571" lon="-0.34802685"><ele>6.0</ele><time>2022-11-04T15:05:47.0000000+00:00</time></trkpt><trkpt lat="39.45336359" lon="-0.34797287"><ele>6.0</ele><time>2022-11-04T15:05:48.0000000+00:00</time></trkpt><trkpt lat="39.45336669" lon="-0.34794613"><ele>6.0</ele><time>2022-11-04T15:05:49.0000000+00:00</time></trkpt><trkpt lat="39.45337339" lon="-0.34793456"><ele>6.0</ele><time>2022-11-04T15:05:50.0000000+00:00</time></trkpt><trkpt lat="39.45337608" lon="-0.34792543"><ele>5.8</ele><time>2022-11-04T15:05:51.0000000+00:00</time></trkpt><trkpt lat="39.45338018" lon="-0.34790992"><ele>5.8</ele><time>2022-11-04T15:05:52.0000000+00:00</time></trkpt><trkpt lat="39.45338622" lon="-0.34790481"><ele>5.8</ele><time>2022-11-04T15:05:53.0000000+00:00</time></trkpt><trkpt lat="39.45339527" lon="-0.34789852"><ele>5.6</ele><time>2022-11-04T15:05:54.0000000+00:00</time></trkpt><trkpt lat="39.45339527" lon="-0.34789852"><ele>5.6</ele><time>2022-11-04T15:05:55.0000000+00:00</time></trkpt><trkpt lat="39.45339527" lon="-0.34789852"><ele>5.6</ele><time>2022-11-04T15:05:56.0000000+00:00</time></trkpt><trkpt lat="39.45339527" lon="-0.34789852"><ele>5.6</ele><time>2022-11-04T15:05:57.0000000+00:00</time></trkpt><trkpt lat="39.45339527" lon="-0.34789852"><ele>5.6</ele><time>2022-11-04T15:05:58.0000000+00:00</time></trkpt><trkpt lat="39.45339527" lon="-0.34789852"><ele>5.6</ele><time>2022-11-04T15:05:59.0000000+00:00</time></trkpt><trkpt lat="39.45339527" lon="-0.34789852"><ele>5.6</ele><time>2022-11-04T15:06:00.0000000+00:00</time></trkpt><trkpt lat="39.45339527" lon="-0.34789852"><ele>5.6</ele><time>2022-11-04T15:06:01.0000000+00:00</time></trkpt><trkpt lat="39.45339527" lon="-0.34789852"><ele>5.6</ele><time>2022-11-04T15:06:02.0000000+00:00</time></trkpt><trkpt lat="39.45339527" lon="-0.34789852"><ele>5.6</ele><time>2022-11-04T15:06:03.0000000+00:00</time></trkpt><trkpt lat="39.45339527" lon="-0.34789852"><ele>5.6</ele><time>2022-11-04T15:06:04.0000000+00:00</time></trkpt><trkpt lat="39.45339527" lon="-0.34789852"><ele>5.6</ele><time>2022-11-04T15:06:05.0000000+00:00</time></trkpt><trkpt lat="39.45339527" lon="-0.34789852"><ele>5.6</ele><time>2022-11-04T15:06:06.0000000+00:00</time></trkpt><trkpt lat="39.45339896" lon="-0.34789802"><ele>5.4</ele><time>2022-11-04T15:06:07.0000000+00:00</time></trkpt><trkpt lat="39.4534096" lon="-0.34789508"><ele>5.4</ele><time>2022-11-04T15:06:08.0000000+00:00</time></trkpt><trkpt lat="39.45342285" lon="-0.34788528"><ele>5.4</ele><time>2022-11-04T15:06:09.0000000+00:00</time></trkpt><trkpt lat="39.45343182" lon="-0.34788092"><ele>5.4</ele><time>2022-11-04T15:06:10.0000000+00:00</time></trkpt><trkpt lat="39.45344565" lon="-0.34788611"><ele>5.4</ele><time>2022-11-04T15:06:11.0000000+00:00</time></trkpt><trkpt lat="39.45346023" lon="-0.34788997"><ele>5.4</ele><time>2022-11-04T15:06:12.0000000+00:00</time></trkpt><trkpt lat="39.45346953" lon="-0.34788938"><ele>5.6</ele><time>2022-11-04T15:06:13.0000000+00:00</time></trkpt><trkpt lat="39.45346995" lon="-0.34788343"><ele>5.6</ele><time>2022-11-04T15:06:14.0000000+00:00</time></trkpt><trkpt lat="39.45347364" lon="-0.34787622"><ele>5.6</ele><time>2022-11-04T15:06:15.0000000+00:00</time></trkpt><trkpt lat="39.45347884" lon="-0.34787379"><ele>5.8</ele><time>2022-11-04T15:06:16.0000000+00:00</time></trkpt><trkpt lat="39.45348261" lon="-0.34787078"><ele>5.8</ele><time>2022-11-04T15:06:17.0000000+00:00</time></trkpt><trkpt lat="39.45349074" lon="-0.3478696"><ele>5.8</ele><time>2022-11-04T15:06:18.0000000+00:00</time></trkpt><trkpt lat="39.4534977" lon="-0.34786818"><ele>5.8</ele><time>2022-11-04T15:06:19.0000000+00:00</time></trkpt><trkpt lat="39.45350139" lon="-0.34786256"><ele>5.8</ele><time>2022-11-04T15:06:20.0000000+00:00</time></trkpt><trkpt lat="39.45350809" lon="-0.34785862"><ele>5.8</ele><time>2022-11-04T15:06:21.0000000+00:00</time></trkpt><trkpt lat="39.45351362" lon="-0.34785535"><ele>5.8</ele><time>2022-11-04T15:06:22.0000000+00:00</time></trkpt><trkpt lat="39.45351689" lon="-0.34785552"><ele>5.6</ele><time>2022-11-04T15:06:23.0000000+00:00</time></trkpt><trkpt lat="39.45351815" lon="-0.34785745"><ele>5.6</ele><time>2022-11-04T15:06:24.0000000+00:00</time></trkpt><trkpt lat="39.4535205" lon="-0.34786055"><ele>5.4</ele><time>2022-11-04T15:06:25.0000000+00:00</time></trkpt><trkpt lat="39.45352175" lon="-0.34786072"><ele>5.4</ele><time>2022-11-04T15:06:26.0000000+00:00</time></trkpt><trkpt lat="39.45351907" lon="-0.34785879"><ele>5.4</ele><time>2022-11-04T15:06:27.0000000+00:00</time></trkpt><trkpt lat="39.45352016" lon="-0.34785845"><ele>5.4</ele><time>2022-11-04T15:06:28.0000000+00:00</time></trkpt><trkpt lat="39.45351857" lon="-0.34786005"><ele>5.4</ele><time>2022-11-04T15:06:29.0000000+00:00</time></trkpt><trkpt lat="39.45352066" lon="-0.3478691"><ele>5.4</ele><time>2022-11-04T15:06:30.0000000+00:00</time></trkpt><trkpt lat="39.45352142" lon="-0.34788041"><ele>5.4</ele><time>2022-11-04T15:06:31.0000000+00:00</time></trkpt><trkpt lat="39.45351723" lon="-0.34788628"><ele>5.4</ele><time>2022-11-04T15:06:32.0000000+00:00</time></trkpt><trkpt lat="39.45352117" lon="-0.34789659"><ele>5.4</ele><time>2022-11-04T15:06:33.0000000+00:00</time></trkpt><trkpt lat="39.45352024" lon="-0.34790212"><ele>5.4</ele><time>2022-11-04T15:06:34.0000000+00:00</time></trkpt><trkpt lat="39.45351848" lon="-0.34790112"><ele>5.4</ele><time>2022-11-04T15:06:35.0000000+00:00</time></trkpt><trkpt lat="39.45351781" lon="-0.34790237"><ele>5.4</ele><time>2022-11-04T15:06:36.0000000+00:00</time></trkpt><trkpt lat="39.45351681" lon="-0.34790439"><ele>5.4</ele><time>2022-11-04T15:06:37.0000000+00:00</time></trkpt><trkpt lat="39.45351438" lon="-0.34790388"><ele>5.6</ele><time>2022-11-04T15:06:38.0000000+00:00</time></trkpt><trkpt lat="39.45351714" lon="-0.34790246"><ele>5.6</ele><time>2022-11-04T15:06:39.0000000+00:00</time></trkpt><trkpt lat="39.453521" lon="-0.34789709"><ele>5.6</ele><time>2022-11-04T15:06:40.0000000+00:00</time></trkpt><trkpt lat="39.4535184" lon="-0.34790137"><ele>5.6</ele><time>2022-11-04T15:06:41.0000000+00:00</time></trkpt><trkpt lat="39.45351882" lon="-0.34790254"><ele>5.4</ele><time>2022-11-04T15:06:42.0000000+00:00</time></trkpt><trkpt lat="39.45351379" lon="-0.34790606"><ele>5.6</ele><time>2022-11-04T15:06:43.0000000+00:00</time></trkpt><trkpt lat="39.45351899" lon="-0.34790958"><ele>5.6</ele><time>2022-11-04T15:06:44.0000000+00:00</time></trkpt><trkpt lat="39.45351966" lon="-0.34790858"><ele>5.4</ele><time>2022-11-04T15:06:45.0000000+00:00</time></trkpt><trkpt lat="39.45351471" lon="-0.3478893"><ele>5.4</ele><time>2022-11-04T15:06:46.0000000+00:00</time></trkpt><trkpt lat="39.45351471" lon="-0.3478893"><ele>5.4</ele><time>2022-11-04T15:06:47.0000000+00:00</time></trkpt><trkpt lat="39.45351471" lon="-0.3478893"><ele>5.4</ele><time>2022-11-04T15:06:48.0000000+00:00</time></trkpt><trkpt lat="39.45351471" lon="-0.3478893"><ele>5.4</ele><time>2022-11-04T15:06:49.0000000+00:00</time></trkpt><trkpt lat="39.45351471" lon="-0.3478893"><ele>5.4</ele><time>2022-11-04T15:06:50.0000000+00:00</time></trkpt><trkpt lat="39.45351471" lon="-0.3478893"><ele>5.4</ele><time>2022-11-04T15:06:51.0000000+00:00</time></trkpt><trkpt lat="39.45351471" lon="-0.3478893"><ele>5.4</ele><time>2022-11-04T15:06:52.0000000+00:00</time></trkpt><trkpt lat="39.45351471" lon="-0.3478893"><ele>5.4</ele><time>2022-11-04T15:06:53.0000000+00:00</time></trkpt><trkpt lat="39.45351471" lon="-0.3478893"><ele>5.4</ele><time>2022-11-04T15:06:54.0000000+00:00</time></trkpt><trkpt lat="39.4535132" lon="-0.34788293"><ele>5.4</ele><time>2022-11-04T15:06:55.0000000+00:00</time></trkpt><trkpt lat="39.45351505" lon="-0.34787689"><ele>5.4</ele><time>2022-11-04T15:06:56.0000000+00:00</time></trkpt><trkpt lat="39.45351346" lon="-0.34786885"><ele>5.2</ele><time>2022-11-04T15:06:57.0000000+00:00</time></trkpt><trkpt lat="39.45351245" lon="-0.34785711"><ele>5.2</ele><time>2022-11-04T15:06:58.0000000+00:00</time></trkpt><trkpt lat="39.45351228" lon="-0.34784471"><ele>5.2</ele><time>2022-11-04T15:06:59.0000000+00:00</time></trkpt><trkpt lat="39.45351069" lon="-0.34782979"><ele>5.2</ele><time>2022-11-04T15:07:00.0000000+00:00</time></trkpt><trkpt lat="39.45350046" lon="-0.34781328"><ele>5.2</ele><time>2022-11-04T15:07:01.0000000+00:00</time></trkpt><trkpt lat="39.45349636" lon="-0.34780263"><ele>5.2</ele><time>2022-11-04T15:07:02.0000000+00:00</time></trkpt><trkpt lat="39.45349359" lon="-0.34779106"><ele>5.2</ele><time>2022-11-04T15:07:03.0000000+00:00</time></trkpt><trkpt lat="39.45349166" lon="-0.34778251"><ele>5.2</ele><time>2022-11-04T15:07:04.0000000+00:00</time></trkpt><trkpt lat="39.45348932" lon="-0.34777966"><ele>5.2</ele><time>2022-11-04T15:07:05.0000000+00:00</time></trkpt><trkpt lat="39.45349191" lon="-0.3477774"><ele>5.2</ele><time>2022-11-04T15:07:06.0000000+00:00</time></trkpt><trkpt lat="39.45349711" lon="-0.34777707"><ele>5.2</ele><time>2022-11-04T15:07:07.0000000+00:00</time></trkpt><trkpt lat="39.45349912" lon="-0.34777572"><ele>5.2</ele><time>2022-11-04T15:07:08.0000000+00:00</time></trkpt><trkpt lat="39.45350449" lon="-0.34777983"><ele>5.2</ele><time>2022-11-04T15:07:09.0000000+00:00</time></trkpt><trkpt lat="39.45351186" lon="-0.34778872"><ele>5.2</ele><time>2022-11-04T15:07:10.0000000+00:00</time></trkpt><trkpt lat="39.45352108" lon="-0.34779743"><ele>5.2</ele><time>2022-11-04T15:07:11.0000000+00:00</time></trkpt><trkpt lat="39.45352569" lon="-0.34780238"><ele>5.2</ele><time>2022-11-04T15:07:12.0000000+00:00</time></trkpt><trkpt lat="39.45352745" lon="-0.34780154"><ele>5.0</ele><time>2022-11-04T15:07:13.0000000+00:00</time></trkpt><trkpt lat="39.45352879" lon="-0.34779945"><ele>5.0</ele><time>2022-11-04T15:07:14.0000000+00:00</time></trkpt><trkpt lat="39.45352988" lon="-0.34779852"><ele>5.0</ele><time>2022-11-04T15:07:15.0000000+00:00</time></trkpt><trkpt lat="39.4535298" lon="-0.34779551"><ele>5.0</ele><time>2022-11-04T15:07:16.0000000+00:00</time></trkpt><trkpt lat="39.45352821" lon="-0.34779115"><ele>5.0</ele><time>2022-11-04T15:07:17.0000000+00:00</time></trkpt><trkpt lat="39.45352703" lon="-0.34778662"><ele>5.0</ele><time>2022-11-04T15:07:18.0000000+00:00</time></trkpt><trkpt lat="39.45352754" lon="-0.34778503"><ele>5.0</ele><time>2022-11-04T15:07:19.0000000+00:00</time></trkpt><trkpt lat="39.45352946" lon="-0.34778511"><ele>5.0</ele><time>2022-11-04T15:07:20.0000000+00:00</time></trkpt><trkpt lat="39.45353064" lon="-0.34778536"><ele>5.0</ele><time>2022-11-04T15:07:21.0000000+00:00</time></trkpt><trkpt lat="39.45353106" lon="-0.34778184"><ele>5.0</ele><time>2022-11-04T15:07:22.0000000+00:00</time></trkpt><trkpt lat="39.45353349" lon="-0.34778293"><ele>5.0</ele><time>2022-11-04T15:07:23.0000000+00:00</time></trkpt><trkpt lat="39.45353852" lon="-0.34778411"><ele>5.0</ele><time>2022-11-04T15:07:24.0000000+00:00</time></trkpt><trkpt lat="39.45353701" lon="-0.3477852"><ele>5.0</ele><time>2022-11-04T15:07:25.0000000+00:00</time></trkpt><trkpt lat="39.45353542" lon="-0.34778352"><ele>5.0</ele><time>2022-11-04T15:07:26.0000000+00:00</time></trkpt><trkpt lat="39.45353223" lon="-0.34778"><ele>5.0</ele><time>2022-11-04T15:07:27.0000000+00:00</time></trkpt><trkpt lat="39.45352645" lon="-0.34777841"><ele>5.0</ele><time>2022-11-04T15:07:28.0000000+00:00</time></trkpt><trkpt lat="39.45352301" lon="-0.3477774"><ele>5.0</ele><time>2022-11-04T15:07:29.0000000+00:00</time></trkpt><trkpt lat="39.45352083" lon="-0.34777774"><ele>5.0</ele><time>2022-11-04T15:07:30.0000000+00:00</time></trkpt><trkpt lat="39.45352125" lon="-0.34778453"><ele>5.0</ele><time>2022-11-04T15:07:31.0000000+00:00</time></trkpt><trkpt lat="39.45352024" lon="-0.34778939"><ele>5.0</ele><time>2022-11-04T15:07:32.0000000+00:00</time></trkpt><trkpt lat="39.45351731" lon="-0.34779056"><ele>5.0</ele><time>2022-11-04T15:07:33.0000000+00:00</time></trkpt><trkpt lat="39.45351882" lon="-0.34779224"><ele>5.0</ele><time>2022-11-04T15:07:34.0000000+00:00</time></trkpt><trkpt lat="39.4535184" lon="-0.34779324"><ele>5.0</ele><time>2022-11-04T15:07:35.0000000+00:00</time></trkpt><trkpt lat="39.4535184" lon="-0.34779324"><ele>5.0</ele><time>2022-11-04T15:07:36.0000000+00:00</time></trkpt><trkpt lat="39.4535184" lon="-0.34779324"><ele>5.0</ele><time>2022-11-04T15:07:37.0000000+00:00</time></trkpt><trkpt lat="39.4535184" lon="-0.34779324"><ele>5.0</ele><time>2022-11-04T15:07:38.0000000+00:00</time></trkpt><trkpt lat="39.4535184" lon="-0.34779324"><ele>5.0</ele><time>2022-11-04T15:07:39.0000000+00:00</time></trkpt><trkpt lat="39.4535184" lon="-0.34779324"><ele>5.0</ele><time>2022-11-04T15:07:40.0000000+00:00</time></trkpt><trkpt lat="39.4535184" lon="-0.34779324"><ele>5.0</ele><time>2022-11-04T15:07:41.0000000+00:00</time></trkpt><trkpt lat="39.4535184" lon="-0.34779324"><ele>5.0</ele><time>2022-11-04T15:07:42.0000000+00:00</time></trkpt><trkpt lat="39.4535184" lon="-0.34779324"><ele>5.0</ele><time>2022-11-04T15:07:43.0000000+00:00</time></trkpt><trkpt lat="39.45351882" lon="-0.34779324"><ele>5.0</ele><time>2022-11-04T15:07:44.0000000+00:00</time></trkpt><trkpt lat="39.45351991" lon="-0.34779324"><ele>5.0</ele><time>2022-11-04T15:07:45.0000000+00:00</time></trkpt><trkpt lat="39.45352024" lon="-0.34779324"><ele>5.0</ele><time>2022-11-04T15:07:46.0000000+00:00</time></trkpt><trkpt lat="39.45352075" lon="-0.34779324"><ele>5.0</ele><time>2022-11-04T15:07:47.0000000+00:00</time></trkpt><trkpt lat="39.45352117" lon="-0.34779324"><ele>5.0</ele><time>2022-11-04T15:07:48.0000000+00:00</time></trkpt><trkpt lat="39.45352293" lon="-0.34779324"><ele>5.0</ele><time>2022-11-04T15:07:49.0000000+00:00</time></trkpt><trkpt lat="39.45352418" lon="-0.34779324"><ele>5.0</ele><time>2022-11-04T15:07:50.0000000+00:00</time></trkpt><trkpt lat="39.45352628" lon="-0.34779341"><ele>5.0</ele><time>2022-11-04T15:07:51.0000000+00:00</time></trkpt><trkpt lat="39.45352879" lon="-0.34779383"><ele>5.0</ele><time>2022-11-04T15:07:52.0000000+00:00</time></trkpt><trkpt lat="39.45353173" lon="-0.34779551"><ele>5.0</ele><time>2022-11-04T15:07:53.0000000+00:00</time></trkpt><trkpt lat="39.45353215" lon="-0.34779743"><ele>5.0</ele><time>2022-11-04T15:07:54.0000000+00:00</time></trkpt><trkpt lat="39.45353651" lon="-0.34779836"><ele>5.0</ele><time>2022-11-04T15:07:55.0000000+00:00</time></trkpt><trkpt lat="39.45354413" lon="-0.34779877"><ele>5.0</ele><time>2022-11-04T15:07:56.0000000+00:00</time></trkpt><trkpt lat="39.45355025" lon="-0.34779894"><ele>5.0</ele><time>2022-11-04T15:07:57.0000000+00:00</time></trkpt><trkpt lat="39.45355495" lon="-0.34779911"><ele>5.0</ele><time>2022-11-04T15:07:58.0000000+00:00</time></trkpt><trkpt lat="39.45355771" lon="-0.34779911"><ele>5.0</ele><time>2022-11-04T15:07:59.0000000+00:00</time></trkpt><trkpt lat="39.45355838" lon="-0.34780104"><ele>5.0</ele><time>2022-11-04T15:08:00.0000000+00:00</time></trkpt><trkpt lat="39.45355922" lon="-0.34780154"><ele>5.0</ele><time>2022-11-04T15:08:01.0000000+00:00</time></trkpt><trkpt lat="39.45355981" lon="-0.34780246"><ele>5.0</ele><time>2022-11-04T15:08:02.0000000+00:00</time></trkpt><trkpt lat="39.45356324" lon="-0.34780297"><ele>5.0</ele><time>2022-11-04T15:08:03.0000000+00:00</time></trkpt><trkpt lat="39.45356601" lon="-0.34780322"><ele>5.0</ele><time>2022-11-04T15:08:04.0000000+00:00</time></trkpt><trkpt lat="39.45356735" lon="-0.34780347"><ele>5.0</ele><time>2022-11-04T15:08:05.0000000+00:00</time></trkpt><trkpt lat="39.45356769" lon="-0.34780456"><ele>5.0</ele><time>2022-11-04T15:08:06.0000000+00:00</time></trkpt><trkpt lat="39.45356785" lon="-0.34780489"><ele>5.0</ele><time>2022-11-04T15:08:07.0000000+00:00</time></trkpt><trkpt lat="39.45356785" lon="-0.34780498"><ele>5.0</ele><time>2022-11-04T15:08:08.0000000+00:00</time></trkpt><trkpt lat="39.45356785" lon="-0.34780506"><ele>5.0</ele><time>2022-11-04T15:08:09.0000000+00:00</time></trkpt><trkpt lat="39.45356785" lon="-0.34780523"><ele>5.0</ele><time>2022-11-04T15:08:10.0000000+00:00</time></trkpt><trkpt lat="39.45356785" lon="-0.34780531"><ele>5.0</ele><time>2022-11-04T15:08:11.0000000+00:00</time></trkpt><trkpt lat="39.45356785" lon="-0.34780607"><ele>5.0</ele><time>2022-11-04T15:08:12.0000000+00:00</time></trkpt><trkpt lat="39.45356785" lon="-0.34780674"><ele>5.0</ele><time>2022-11-04T15:08:13.0000000+00:00</time></trkpt><trkpt lat="39.45356785" lon="-0.34780758"><ele>5.0</ele><time>2022-11-04T15:08:14.0000000+00:00</time></trkpt><trkpt lat="39.45356785" lon="-0.34780816"><ele>5.0</ele><time>2022-11-04T15:08:15.0000000+00:00</time></trkpt><trkpt lat="39.45356785" lon="-0.34780883"><ele>5.0</ele><time>2022-11-04T15:08:16.0000000+00:00</time></trkpt><trkpt lat="39.45356785" lon="-0.34780934"><ele>5.0</ele><time>2022-11-04T15:08:17.0000000+00:00</time></trkpt><trkpt lat="39.45356785" lon="-0.34781034"><ele>5.0</ele><time>2022-11-04T15:08:18.0000000+00:00</time></trkpt><trkpt lat="39.45356785" lon="-0.34781152"><ele>5.0</ele><time>2022-11-04T15:08:19.0000000+00:00</time></trkpt><trkpt lat="39.45356785" lon="-0.34781177"><ele>5.0</ele><time>2022-11-04T15:08:20.0000000+00:00</time></trkpt><trkpt lat="39.45356777" lon="-0.34781185"><ele>5.0</ele><time>2022-11-04T15:08:21.0000000+00:00</time></trkpt><trkpt lat="39.45356559" lon="-0.34781185"><ele>5.0</ele><time>2022-11-04T15:08:22.0000000+00:00</time></trkpt><trkpt lat="39.4535614" lon="-0.34781185"><ele>5.0</ele><time>2022-11-04T15:08:23.0000000+00:00</time></trkpt><trkpt lat="39.45355612" lon="-0.34781185"><ele>5.0</ele><time>2022-11-04T15:08:24.0000000+00:00</time></trkpt><trkpt lat="39.45355352" lon="-0.34781185"><ele>5.0</ele><time>2022-11-04T15:08:25.0000000+00:00</time></trkpt><trkpt lat="39.45355034" lon="-0.34781185"><ele>5.0</ele><time>2022-11-04T15:08:26.0000000+00:00</time></trkpt><trkpt lat="39.45354547" lon="-0.34781185"><ele>5.0</ele><time>2022-11-04T15:08:27.0000000+00:00</time></trkpt><trkpt lat="39.45354003" lon="-0.34781185"><ele>5.0</ele><time>2022-11-04T15:08:28.0000000+00:00</time></trkpt><trkpt lat="39.45353542" lon="-0.34781185"><ele>5.0</ele><time>2022-11-04T15:08:29.0000000+00:00</time></trkpt><trkpt lat="39.45353307" lon="-0.34781093"><ele>5.0</ele><time>2022-11-04T15:08:30.0000000+00:00</time></trkpt><trkpt lat="39.45353206" lon="-0.347809"><ele>5.0</ele><time>2022-11-04T15:08:31.0000000+00:00</time></trkpt><trkpt lat="39.45353164" lon="-0.34780808"><ele>5.0</ele><time>2022-11-04T15:08:32.0000000+00:00</time></trkpt><trkpt lat="39.45353131" lon="-0.34780724"><ele>5.0</ele><time>2022-11-04T15:08:33.0000000+00:00</time></trkpt><trkpt lat="39.45353097" lon="-0.34780489"><ele>5.0</ele><time>2022-11-04T15:08:34.0000000+00:00</time></trkpt><trkpt lat="39.4535277" lon="-0.34780028"><ele>5.0</ele><time>2022-11-04T15:08:35.0000000+00:00</time></trkpt><trkpt lat="39.45352477" lon="-0.34779735"><ele>5.0</ele><time>2022-11-04T15:08:36.0000000+00:00</time></trkpt><trkpt lat="39.453522" lon="-0.34779425"><ele>5.0</ele><time>2022-11-04T15:08:37.0000000+00:00</time></trkpt><trkpt lat="39.45352108" lon="-0.3477909"><ele>5.0</ele><time>2022-11-04T15:08:38.0000000+00:00</time></trkpt><trkpt lat="39.45352083" lon="-0.34778972"><ele>5.0</ele><time>2022-11-04T15:08:39.0000000+00:00</time></trkpt><trkpt lat="39.45352075" lon="-0.34778855"><ele>5.0</ele><time>2022-11-04T15:08:40.0000000+00:00</time></trkpt><trkpt lat="39.45352075" lon="-0.34778779"><ele>5.0</ele><time>2022-11-04T15:08:41.0000000+00:00</time></trkpt><trkpt lat="39.45352075" lon="-0.34778754"><ele>5.0</ele><time>2022-11-04T15:08:42.0000000+00:00</time></trkpt><trkpt lat="39.45352075" lon="-0.34778704"><ele>5.0</ele><time>2022-11-04T15:08:43.0000000+00:00</time></trkpt><trkpt lat="39.45352075" lon="-0.3477867"><ele>5.0</ele><time>2022-11-04T15:08:44.0000000+00:00</time></trkpt><trkpt lat="39.45352075" lon="-0.34778654"><ele>5.0</ele><time>2022-11-04T15:08:45.0000000+00:00</time></trkpt><trkpt lat="39.45352075" lon="-0.34778612"><ele>5.0</ele><time>2022-11-04T15:08:46.0000000+00:00</time></trkpt><trkpt lat="39.45352075" lon="-0.34778578"><ele>5.0</ele><time>2022-11-04T15:08:47.0000000+00:00</time></trkpt><trkpt lat="39.45352016" lon="-0.34778561"><ele>5.0</ele><time>2022-11-04T15:08:48.0000000+00:00</time></trkpt><trkpt lat="39.45351974" lon="-0.34778545"><ele>5.0</ele><time>2022-11-04T15:08:49.0000000+00:00</time></trkpt><trkpt lat="39.45351957" lon="-0.34778503"><ele>5.0</ele><time>2022-11-04T15:08:50.0000000+00:00</time></trkpt><trkpt lat="39.45351957" lon="-0.34778402"><ele>5.0</ele><time>2022-11-04T15:08:51.0000000+00:00</time></trkpt><trkpt lat="39.45351957" lon="-0.3477836"><ele>5.0</ele><time>2022-11-04T15:08:52.0000000+00:00</time></trkpt><trkpt lat="39.45351974" lon="-0.34778352"><ele>5.0</ele><time>2022-11-04T15:08:53.0000000+00:00</time></trkpt><trkpt lat="39.45352133" lon="-0.34778344"><ele>5.0</ele><time>2022-11-04T15:08:54.0000000+00:00</time></trkpt><trkpt lat="39.45352209" lon="-0.34778344"><ele>5.0</ele><time>2022-11-04T15:08:55.0000000+00:00</time></trkpt><trkpt lat="39.45352335" lon="-0.34778344"><ele>5.0</ele><time>2022-11-04T15:08:56.0000000+00:00</time></trkpt><trkpt lat="39.4535241" lon="-0.34778344"><ele>5.0</ele><time>2022-11-04T15:08:57.0000000+00:00</time></trkpt><trkpt lat="39.45352435" lon="-0.34778344"><ele>5.0</ele><time>2022-11-04T15:08:58.0000000+00:00</time></trkpt><trkpt lat="39.45352452" lon="-0.34778344"><ele>5.0</ele><time>2022-11-04T15:08:59.0000000+00:00</time></trkpt><trkpt lat="39.45352452" lon="-0.34778344"><ele>5.0</ele><time>2022-11-04T15:09:00.0000000+00:00</time></trkpt><trkpt lat="39.4535246" lon="-0.34778344"><ele>5.0</ele><time>2022-11-04T15:09:01.0000000+00:00</time></trkpt><trkpt lat="39.4535246" lon="-0.34778344"><ele>5.0</ele><time>2022-11-04T15:09:02.0000000+00:00</time></trkpt><trkpt lat="39.4535246" lon="-0.34778344"><ele>5.0</ele><time>2022-11-04T15:09:03.0000000+00:00</time></trkpt><trkpt lat="39.4535246" lon="-0.34778344"><ele>5.0</ele><time>2022-11-04T15:09:04.0000000+00:00</time></trkpt><trkpt lat="39.4535246" lon="-0.34778344"><ele>5.0</ele><time>2022-11-04T15:09:05.0000000+00:00</time></trkpt><trkpt lat="39.45352469" lon="-0.34778478"><ele>5.0</ele><time>2022-11-04T15:09:06.0000000+00:00</time></trkpt><trkpt lat="39.45352485" lon="-0.34778687"><ele>5.0</ele><time>2022-11-04T15:09:07.0000000+00:00</time></trkpt><trkpt lat="39.45352485" lon="-0.34778846"><ele>5.0</ele><time>2022-11-04T15:09:08.0000000+00:00</time></trkpt><trkpt lat="39.45352469" lon="-0.34778972"><ele>5.0</ele><time>2022-11-04T15:09:09.0000000+00:00</time></trkpt><trkpt lat="39.45352444" lon="-0.34779098"><ele>5.0</ele><time>2022-11-04T15:09:10.0000000+00:00</time></trkpt><trkpt lat="39.45352393" lon="-0.3477924"><ele>5.0</ele><time>2022-11-04T15:09:11.0000000+00:00</time></trkpt><trkpt lat="39.45352368" lon="-0.34779316"><ele>5.0</ele><time>2022-11-04T15:09:12.0000000+00:00</time></trkpt><trkpt lat="39.45352318" lon="-0.34779442"><ele>5.0</ele><time>2022-11-04T15:09:13.0000000+00:00</time></trkpt><trkpt lat="39.45352301" lon="-0.34779576"><ele>5.0</ele><time>2022-11-04T15:09:14.0000000+00:00</time></trkpt><trkpt lat="39.45352284" lon="-0.34779651"><ele>5.0</ele><time>2022-11-04T15:09:15.0000000+00:00</time></trkpt><trkpt lat="39.45352318" lon="-0.34779727"><ele>5.0</ele><time>2022-11-04T15:09:16.0000000+00:00</time></trkpt><trkpt lat="39.45352335" lon="-0.34779802"><ele>5.0</ele><time>2022-11-04T15:09:17.0000000+00:00</time></trkpt><trkpt lat="39.45352376" lon="-0.34779861"><ele>5.0</ele><time>2022-11-04T15:09:18.0000000+00:00</time></trkpt><trkpt lat="39.45352435" lon="-0.34779945"><ele>5.0</ele><time>2022-11-04T15:09:19.0000000+00:00</time></trkpt><trkpt lat="39.4535246" lon="-0.34779986"><ele>5.0</ele><time>2022-11-04T15:09:20.0000000+00:00</time></trkpt><trkpt lat="39.45352477" lon="-0.34780012"><ele>5.0</ele><time>2022-11-04T15:09:21.0000000+00:00</time></trkpt><trkpt lat="39.45352485" lon="-0.3478002"><ele>5.0</ele><time>2022-11-04T15:09:22.0000000+00:00</time></trkpt><trkpt lat="39.45352485" lon="-0.34780028"><ele>5.0</ele><time>2022-11-04T15:09:23.0000000+00:00</time></trkpt><trkpt lat="39.45352485" lon="-0.34780028"><ele>5.0</ele><time>2022-11-04T15:09:24.0000000+00:00</time></trkpt><trkpt lat="39.45352485" lon="-0.34780037"><ele>5.0</ele><time>2022-11-04T15:09:25.0000000+00:00</time></trkpt><trkpt lat="39.45352494" lon="-0.34780037"><ele>5.0</ele><time>2022-11-04T15:09:26.0000000+00:00</time></trkpt><trkpt lat="39.45352519" lon="-0.34780104"><ele>5.0</ele><time>2022-11-04T15:09:27.0000000+00:00</time></trkpt><trkpt lat="39.45352561" lon="-0.34780154"><ele>5.0</ele><time>2022-11-04T15:09:28.0000000+00:00</time></trkpt><trkpt lat="39.45352661" lon="-0.34780188"><ele>5.0</ele><time>2022-11-04T15:09:29.0000000+00:00</time></trkpt><trkpt lat="39.45352779" lon="-0.34780213"><ele>5.0</ele><time>2022-11-04T15:09:30.0000000+00:00</time></trkpt><trkpt lat="39.45352846" lon="-0.34780288"><ele>5.0</ele><time>2022-11-04T15:09:31.0000000+00:00</time></trkpt><trkpt lat="39.45353072" lon="-0.34780707"><ele>5.0</ele><time>2022-11-04T15:09:32.0000000+00:00</time></trkpt><trkpt lat="39.45353424" lon="-0.34783331"><ele>5.0</ele><time>2022-11-04T15:09:33.0000000+00:00</time></trkpt><trkpt lat="39.45353776" lon="-0.34785795"><ele>5.0</ele><time>2022-11-04T15:09:34.0000000+00:00</time></trkpt><trkpt lat="39.45354254" lon="-0.34788435"><ele>5.0</ele><time>2022-11-04T15:09:35.0000000+00:00</time></trkpt><trkpt lat="39.4535552" lon="-0.34790204"><ele>5.0</ele><time>2022-11-04T15:09:36.0000000+00:00</time></trkpt><trkpt lat="39.45356819" lon="-0.34792417"><ele>5.0</ele><time>2022-11-04T15:09:37.0000000+00:00</time></trkpt><trkpt lat="39.45357615" lon="-0.34793892"><ele>5.0</ele><time>2022-11-04T15:09:38.0000000+00:00</time></trkpt><trkpt lat="39.45358872" lon="-0.34794353"><ele>5.0</ele><time>2022-11-04T15:09:39.0000000+00:00</time></trkpt><trkpt lat="39.45360172" lon="-0.34793858"><ele>5.0</ele><time>2022-11-04T15:09:40.0000000+00:00</time></trkpt><trkpt lat="39.45361538" lon="-0.34793515"><ele>5.0</ele><time>2022-11-04T15:09:41.0000000+00:00</time></trkpt><trkpt lat="39.45362435" lon="-0.34793129"><ele>5.0</ele><time>2022-11-04T15:09:42.0000000+00:00</time></trkpt><trkpt lat="39.45363214" lon="-0.34792802"><ele>5.0</ele><time>2022-11-04T15:09:43.0000000+00:00</time></trkpt><trkpt lat="39.45364254" lon="-0.34792358"><ele>4.8</ele><time>2022-11-04T15:09:44.0000000+00:00</time></trkpt><trkpt lat="39.45364765" lon="-0.34793356"><ele>4.6</ele><time>2022-11-04T15:09:45.0000000+00:00</time></trkpt><trkpt lat="39.45365092" lon="-0.34794437"><ele>4.4</ele><time>2022-11-04T15:09:46.0000000+00:00</time></trkpt><trkpt lat="39.45365511" lon="-0.34795711"><ele>4.0</ele><time>2022-11-04T15:09:47.0000000+00:00</time></trkpt><trkpt lat="39.45365729" lon="-0.34796708"><ele>4.0</ele><time>2022-11-04T15:09:48.0000000+00:00</time></trkpt><trkpt lat="39.45366659" lon="-0.34798049"><ele>3.8</ele><time>2022-11-04T15:09:49.0000000+00:00</time></trkpt><trkpt lat="39.45367682" lon="-0.34799365"><ele>3.8</ele><time>2022-11-04T15:09:50.0000000+00:00</time></trkpt><trkpt lat="39.45368797" lon="-0.34800774"><ele>3.8</ele><time>2022-11-04T15:09:51.0000000+00:00</time></trkpt><trkpt lat="39.45370029" lon="-0.34801922"><ele>3.8</ele><time>2022-11-04T15:09:52.0000000+00:00</time></trkpt><trkpt lat="39.45371571" lon="-0.34802458"><ele>3.6</ele><time>2022-11-04T15:09:53.0000000+00:00</time></trkpt><trkpt lat="39.4537308" lon="-0.34802743"><ele>3.6</ele><time>2022-11-04T15:09:54.0000000+00:00</time></trkpt><trkpt lat="39.45374304" lon="-0.34802794"><ele>3.6</ele><time>2022-11-04T15:09:55.0000000+00:00</time></trkpt><trkpt lat="39.45374966" lon="-0.34802894"><ele>3.6</ele><time>2022-11-04T15:09:56.0000000+00:00</time></trkpt><trkpt lat="39.45376022" lon="-0.3480281"><ele>3.6</ele><time>2022-11-04T15:09:57.0000000+00:00</time></trkpt><trkpt lat="39.45377237" lon="-0.34802794"><ele>3.6</ele><time>2022-11-04T15:09:58.0000000+00:00</time></trkpt><trkpt lat="39.45378218" lon="-0.34803062"><ele>3.6</ele><time>2022-11-04T15:09:59.0000000+00:00</time></trkpt><trkpt lat="39.45378964" lon="-0.34803305"><ele>3.6</ele><time>2022-11-04T15:10:00.0000000+00:00</time></trkpt><trkpt lat="39.45379919" lon="-0.34803707"><ele>3.6</ele><time>2022-11-04T15:10:01.0000000+00:00</time></trkpt><trkpt lat="39.45380976" lon="-0.34804395"><ele>3.6</ele><time>2022-11-04T15:10:02.0000000+00:00</time></trkpt><trkpt lat="39.45382115" lon="-0.34805836"><ele>3.6</ele><time>2022-11-04T15:10:03.0000000+00:00</time></trkpt><trkpt lat="39.45383356" lon="-0.34807571"><ele>3.6</ele><time>2022-11-04T15:10:04.0000000+00:00</time></trkpt><trkpt lat="39.45383809" lon="-0.34809172"><ele>3.6</ele><time>2022-11-04T15:10:05.0000000+00:00</time></trkpt><trkpt lat="39.45384027" lon="-0.34810295"><ele>3.6</ele><time>2022-11-04T15:10:06.0000000+00:00</time></trkpt><trkpt lat="39.45384546" lon="-0.34811419"><ele>3.6</ele><time>2022-11-04T15:10:07.0000000+00:00</time></trkpt><trkpt lat="39.45385108" lon="-0.34812877"><ele>3.6</ele><time>2022-11-04T15:10:08.0000000+00:00</time></trkpt><trkpt lat="39.4538572" lon="-0.34814579"><ele>3.6</ele><time>2022-11-04T15:10:09.0000000+00:00</time></trkpt><trkpt lat="39.4538639" lon="-0.34816305"><ele>3.6</ele><time>2022-11-04T15:10:10.0000000+00:00</time></trkpt><trkpt lat="39.45387329" lon="-0.34817579"><ele>3.8</ele><time>2022-11-04T15:10:11.0000000+00:00</time></trkpt><trkpt lat="39.45388075" lon="-0.34818367"><ele>3.8</ele><time>2022-11-04T15:10:12.0000000+00:00</time></trkpt><trkpt lat="39.45389181" lon="-0.34818769"><ele>3.8</ele><time>2022-11-04T15:10:13.0000000+00:00</time></trkpt><trkpt lat="39.45390514" lon="-0.3481851"><ele>3.8</ele><time>2022-11-04T15:10:14.0000000+00:00</time></trkpt><trkpt lat="39.45392073" lon="-0.34818493"><ele>3.8</ele><time>2022-11-04T15:10:15.0000000+00:00</time></trkpt><trkpt lat="39.45392844" lon="-0.3481856"><ele>3.8</ele><time>2022-11-04T15:10:16.0000000+00:00</time></trkpt><trkpt lat="39.45393867" lon="-0.34819423"><ele>3.8</ele><time>2022-11-04T15:10:17.0000000+00:00</time></trkpt><trkpt lat="39.45394655" lon="-0.34820446"><ele>3.8</ele><time>2022-11-04T15:10:18.0000000+00:00</time></trkpt><trkpt lat="39.45395719" lon="-0.34821603"><ele>3.8</ele><time>2022-11-04T15:10:19.0000000+00:00</time></trkpt><trkpt lat="39.45396289" lon="-0.3482203"><ele>3.8</ele><time>2022-11-04T15:10:20.0000000+00:00</time></trkpt><trkpt lat="39.45396708" lon="-0.34822994"><ele>3.8</ele><time>2022-11-04T15:10:21.0000000+00:00</time></trkpt><trkpt lat="39.45397354" lon="-0.34822701"><ele>3.8</ele><time>2022-11-04T15:10:22.0000000+00:00</time></trkpt><trkpt lat="39.45398058" lon="-0.34822223"><ele>3.8</ele><time>2022-11-04T15:10:23.0000000+00:00</time></trkpt><trkpt lat="39.45398687" lon="-0.34822131"><ele>3.8</ele><time>2022-11-04T15:10:24.0000000+00:00</time></trkpt><trkpt lat="39.45399432" lon="-0.34822173"><ele>3.6</ele><time>2022-11-04T15:10:25.0000000+00:00</time></trkpt><trkpt lat="39.45401469" lon="-0.34821108"><ele>3.6</ele><time>2022-11-04T15:10:26.0000000+00:00</time></trkpt><trkpt lat="39.45402442" lon="-0.34820823"><ele>3.6</ele><time>2022-11-04T15:10:27.0000000+00:00</time></trkpt><trkpt lat="39.45403255" lon="-0.3482089"><ele>3.6</ele><time>2022-11-04T15:10:28.0000000+00:00</time></trkpt><trkpt lat="39.45403481" lon="-0.34820764"><ele>3.6</ele><time>2022-11-04T15:10:29.0000000+00:00</time></trkpt><trkpt lat="39.4540338" lon="-0.34820748"><ele>3.4</ele><time>2022-11-04T15:10:30.0000000+00:00</time></trkpt><trkpt lat="39.45403707" lon="-0.34821435"><ele>3.4</ele><time>2022-11-04T15:10:31.0000000+00:00</time></trkpt><trkpt lat="39.45404436" lon="-0.34821929"><ele>3.4</ele><time>2022-11-04T15:10:32.0000000+00:00</time></trkpt><trkpt lat="39.45405484" lon="-0.3482203"><ele>3.6</ele><time>2022-11-04T15:10:33.0000000+00:00</time></trkpt><trkpt lat="39.45405166" lon="-0.34821787"><ele>3.6</ele><time>2022-11-04T15:10:34.0000000+00:00</time></trkpt><trkpt lat="39.45404705" lon="-0.34822005"><ele>3.6</ele><time>2022-11-04T15:10:35.0000000+00:00</time></trkpt><trkpt lat="39.45404789" lon="-0.34822173"><ele>3.6</ele><time>2022-11-04T15:10:36.0000000+00:00</time></trkpt><trkpt lat="39.45405652" lon="-0.34822189"><ele>3.6</ele><time>2022-11-04T15:10:37.0000000+00:00</time></trkpt><trkpt lat="39.45405526" lon="-0.34821812"><ele>3.4</ele><time>2022-11-04T15:10:38.0000000+00:00</time></trkpt><trkpt lat="39.45405124" lon="-0.3482146"><ele>3.4</ele><time>2022-11-04T15:10:39.0000000+00:00</time></trkpt><trkpt lat="39.45404847" lon="-0.34821108"><ele>3.4</ele><time>2022-11-04T15:10:40.0000000+00:00</time></trkpt><trkpt lat="39.45405342" lon="-0.34820102"><ele>3.4</ele><time>2022-11-04T15:10:41.0000000+00:00</time></trkpt><trkpt lat="39.45405736" lon="-0.34819298"><ele>3.4</ele><time>2022-11-04T15:10:42.0000000+00:00</time></trkpt><trkpt lat="39.45405375" lon="-0.34818493"><ele>3.4</ele><time>2022-11-04T15:10:43.0000000+00:00</time></trkpt><trkpt lat="39.45405652" lon="-0.34819155"><ele>3.4</ele><time>2022-11-04T15:10:44.0000000+00:00</time></trkpt><trkpt lat="39.45405266" lon="-0.34819306"><ele>3.2</ele><time>2022-11-04T15:10:45.0000000+00:00</time></trkpt><trkpt lat="39.4540525" lon="-0.34819407"><ele>3.2</ele><time>2022-11-04T15:10:46.0000000+00:00</time></trkpt><trkpt lat="39.45405467" lon="-0.34818895"><ele>3.0</ele><time>2022-11-04T15:10:47.0000000+00:00</time></trkpt><trkpt lat="39.45405493" lon="-0.34818493"><ele>3.0</ele><time>2022-11-04T15:10:48.0000000+00:00</time></trkpt><trkpt lat="39.45405526" lon="-0.34818107"><ele>3.0</ele><time>2022-11-04T15:10:49.0000000+00:00</time></trkpt><trkpt lat="39.45405484" lon="-0.34817806"><ele>2.8</ele><time>2022-11-04T15:10:50.0000000+00:00</time></trkpt><trkpt lat="39.45405258" lon="-0.34817554"><ele>2.8</ele><time>2022-11-04T15:10:51.0000000+00:00</time></trkpt><trkpt lat="39.45404789" lon="-0.348169"><ele>2.8</ele><time>2022-11-04T15:10:52.0000000+00:00</time></trkpt><trkpt lat="39.4540395" lon="-0.34816573"><ele>2.8</ele><time>2022-11-04T15:10:53.0000000+00:00</time></trkpt><trkpt lat="39.45403095" lon="-0.3481649"><ele>2.8</ele><time>2022-11-04T15:10:54.0000000+00:00</time></trkpt><trkpt lat="39.4540281" lon="-0.34816414"><ele>2.8</ele><time>2022-11-04T15:10:55.0000000+00:00</time></trkpt><trkpt lat="39.4540281" lon="-0.34816414"><ele>2.8</ele><time>2022-11-04T15:10:56.0000000+00:00</time></trkpt><trkpt lat="39.4540281" lon="-0.34816414"><ele>2.8</ele><time>2022-11-04T15:10:57.0000000+00:00</time></trkpt><trkpt lat="39.4540281" lon="-0.34816414"><ele>2.8</ele><time>2022-11-04T15:10:58.0000000+00:00</time></trkpt><trkpt lat="39.4540281" lon="-0.34816414"><ele>2.8</ele><time>2022-11-04T15:10:59.0000000+00:00</time></trkpt><trkpt lat="39.4540281" lon="-0.34816414"><ele>2.8</ele><time>2022-11-04T15:11:00.0000000+00:00</time></trkpt><trkpt lat="39.4540281" lon="-0.34816414"><ele>2.8</ele><time>2022-11-04T15:11:01.0000000+00:00</time></trkpt><trkpt lat="39.4540281" lon="-0.34816414"><ele>2.8</ele><time>2022-11-04T15:11:02.0000000+00:00</time></trkpt><trkpt lat="39.4540281" lon="-0.34816414"><ele>3.0</ele><time>2022-11-04T15:11:03.0000000+00:00</time></trkpt><trkpt lat="39.4540281" lon="-0.34816414"><ele>3.0</ele><time>2022-11-04T15:11:04.0000000+00:00</time></trkpt><trkpt lat="39.4540281" lon="-0.34816414"><ele>3.0</ele><time>2022-11-04T15:11:05.0000000+00:00</time></trkpt><trkpt lat="39.4540281" lon="-0.34816414"><ele>3.0</ele><time>2022-11-04T15:11:06.0000000+00:00</time></trkpt><trkpt lat="39.4540281" lon="-0.34816414"><ele>3.0</ele><time>2022-11-04T15:11:07.0000000+00:00</time></trkpt><trkpt lat="39.4540281" lon="-0.34816414"><ele>3.0</ele><time>2022-11-04T15:11:08.0000000+00:00</time></trkpt><trkpt lat="39.45402827" lon="-0.34816414"><ele>3.0</ele><time>2022-11-04T15:11:09.0000000+00:00</time></trkpt><trkpt lat="39.45402919" lon="-0.34816414"><ele>3.0</ele><time>2022-11-04T15:11:10.0000000+00:00</time></trkpt><trkpt lat="39.45402919" lon="-0.34816414"><ele>3.0</ele><time>2022-11-04T15:11:11.0000000+00:00</time></trkpt><trkpt lat="39.4540302" lon="-0.34816355"><ele>3.0</ele><time>2022-11-04T15:11:12.0000000+00:00</time></trkpt><trkpt lat="39.45403095" lon="-0.34816347"><ele>3.0</ele><time>2022-11-04T15:11:13.0000000+00:00</time></trkpt><trkpt lat="39.45403095" lon="-0.34816347"><ele>3.0</ele><time>2022-11-04T15:11:14.0000000+00:00</time></trkpt><trkpt lat="39.45403154" lon="-0.3481628"><ele>3.0</ele><time>2022-11-04T15:11:15.0000000+00:00</time></trkpt><trkpt lat="39.45403213" lon="-0.34816188"><ele>3.0</ele><time>2022-11-04T15:11:16.0000000+00:00</time></trkpt><trkpt lat="39.45403221" lon="-0.34816138"><ele>3.0</ele><time>2022-11-04T15:11:17.0000000+00:00</time></trkpt><trkpt lat="39.45403162" lon="-0.34816121"><ele>3.0</ele><time>2022-11-04T15:11:18.0000000+00:00</time></trkpt><trkpt lat="39.45403104" lon="-0.34816062"><ele>3.0</ele><time>2022-11-04T15:11:19.0000000+00:00</time></trkpt><trkpt lat="39.45403037" lon="-0.34816029"><ele>3.0</ele><time>2022-11-04T15:11:20.0000000+00:00</time></trkpt><trkpt lat="39.45402978" lon="-0.34816003"><ele>3.0</ele><time>2022-11-04T15:11:21.0000000+00:00</time></trkpt><trkpt lat="39.45402928" lon="-0.3481597"><ele>3.0</ele><time>2022-11-04T15:11:22.0000000+00:00</time></trkpt><trkpt lat="39.45402919" lon="-0.34815945"><ele>3.0</ele><time>2022-11-04T15:11:23.0000000+00:00</time></trkpt><trkpt lat="39.45402836" lon="-0.34815894"><ele>3.0</ele><time>2022-11-04T15:11:24.0000000+00:00</time></trkpt><trkpt lat="39.45402827" lon="-0.34815878"><ele>3.0</ele><time>2022-11-04T15:11:25.0000000+00:00</time></trkpt><trkpt lat="39.45402827" lon="-0.34815819"><ele>3.0</ele><time>2022-11-04T15:11:26.0000000+00:00</time></trkpt><trkpt lat="39.45402701" lon="-0.34815769"><ele>2.8</ele><time>2022-11-04T15:11:27.0000000+00:00</time></trkpt><trkpt lat="39.45402609" lon="-0.34815718"><ele>2.8</ele><time>2022-11-04T15:11:28.0000000+00:00</time></trkpt><trkpt lat="39.45402584" lon="-0.34815651"><ele>2.8</ele><time>2022-11-04T15:11:29.0000000+00:00</time></trkpt><trkpt lat="39.45402542" lon="-0.34815593"><ele>2.8</ele><time>2022-11-04T15:11:30.0000000+00:00</time></trkpt><trkpt lat="39.45402492" lon="-0.3481545"><ele>3.0</ele><time>2022-11-04T15:11:31.0000000+00:00</time></trkpt><trkpt lat="39.45402458" lon="-0.34815425"><ele>3.0</ele><time>2022-11-04T15:11:32.0000000+00:00</time></trkpt><trkpt lat="39.4540157" lon="-0.34815425"><ele>3.0</ele><time>2022-11-04T15:11:33.0000000+00:00</time></trkpt><trkpt lat="39.4540079" lon="-0.34815425"><ele>3.0</ele><time>2022-11-04T15:11:34.0000000+00:00</time></trkpt><trkpt lat="39.45400229" lon="-0.34815425"><ele>3.0</ele><time>2022-11-04T15:11:35.0000000+00:00</time></trkpt><trkpt lat="39.45400011" lon="-0.34815425"><ele>3.2</ele><time>2022-11-04T15:11:36.0000000+00:00</time></trkpt><trkpt lat="39.45399609" lon="-0.34815425"><ele>3.2</ele><time>2022-11-04T15:11:37.0000000+00:00</time></trkpt><trkpt lat="39.45399458" lon="-0.34815425"><ele>3.2</ele><time>2022-11-04T15:11:38.0000000+00:00</time></trkpt><trkpt lat="39.45399324" lon="-0.34815425"><ele>3.2</ele><time>2022-11-04T15:11:39.0000000+00:00</time></trkpt><trkpt lat="39.45399206" lon="-0.34815425"><ele>3.2</ele><time>2022-11-04T15:11:40.0000000+00:00</time></trkpt><trkpt lat="39.45399122" lon="-0.34815425"><ele>3.2</ele><time>2022-11-04T15:11:41.0000000+00:00</time></trkpt><trkpt lat="39.45399005" lon="-0.34815425"><ele>3.2</ele><time>2022-11-04T15:11:42.0000000+00:00</time></trkpt><trkpt lat="39.45398611" lon="-0.34815425"><ele>3.2</ele><time>2022-11-04T15:11:43.0000000+00:00</time></trkpt><trkpt lat="39.45397639" lon="-0.34815425"><ele>3.2</ele><time>2022-11-04T15:11:44.0000000+00:00</time></trkpt><trkpt lat="39.45397019" lon="-0.34815425"><ele>3.2</ele><time>2022-11-04T15:11:45.0000000+00:00</time></trkpt><trkpt lat="39.45396868" lon="-0.34815827"><ele>3.2</ele><time>2022-11-04T15:11:46.0000000+00:00</time></trkpt><trkpt lat="39.45396834" lon="-0.34815953"><ele>3.2</ele><time>2022-11-04T15:11:47.0000000+00:00</time></trkpt><trkpt lat="39.45396809" lon="-0.34816188"><ele>3.2</ele><time>2022-11-04T15:11:48.0000000+00:00</time></trkpt><trkpt lat="39.45396759" lon="-0.34816423"><ele>3.2</ele><time>2022-11-04T15:11:49.0000000+00:00</time></trkpt><trkpt lat="39.45396742" lon="-0.34816481"><ele>3.4</ele><time>2022-11-04T15:11:50.0000000+00:00</time></trkpt><trkpt lat="39.45396742" lon="-0.34816682"><ele>3.4</ele><time>2022-11-04T15:11:51.0000000+00:00</time></trkpt><trkpt lat="39.45396742" lon="-0.34816741"><ele>3.2</ele><time>2022-11-04T15:11:52.0000000+00:00</time></trkpt><trkpt lat="39.45396742" lon="-0.34816833"><ele>3.2</ele><time>2022-11-04T15:11:53.0000000+00:00</time></trkpt><trkpt lat="39.45396742" lon="-0.34816959"><ele>3.2</ele><time>2022-11-04T15:11:54.0000000+00:00</time></trkpt><trkpt lat="39.45396742" lon="-0.34816993"><ele>3.2</ele><time>2022-11-04T15:11:55.0000000+00:00</time></trkpt><trkpt lat="39.45396742" lon="-0.34817009"><ele>3.2</ele><time>2022-11-04T15:11:56.0000000+00:00</time></trkpt><trkpt lat="39.45396742" lon="-0.34817009"><ele>3.2</ele><time>2022-11-04T15:11:57.0000000+00:00</time></trkpt><trkpt lat="39.45396742" lon="-0.34817009"><ele>3.2</ele><time>2022-11-04T15:11:58.0000000+00:00</time></trkpt><trkpt lat="39.45396742" lon="-0.34817009"><ele>3.2</ele><time>2022-11-04T15:11:59.0000000+00:00</time></trkpt><trkpt lat="39.45396742" lon="-0.34817009"><ele>3.2</ele><time>2022-11-04T15:12:00.0000000+00:00</time></trkpt><trkpt lat="39.45396784" lon="-0.34817009"><ele>3.2</ele><time>2022-11-04T15:12:01.0000000+00:00</time></trkpt><trkpt lat="39.45396826" lon="-0.34817009"><ele>3.2</ele><time>2022-11-04T15:12:02.0000000+00:00</time></trkpt><trkpt lat="39.45396943" lon="-0.34817009"><ele>3.2</ele><time>2022-11-04T15:12:03.0000000+00:00</time></trkpt><trkpt lat="39.45396993" lon="-0.34817009"><ele>3.2</ele><time>2022-11-04T15:12:04.0000000+00:00</time></trkpt><trkpt lat="39.4539706" lon="-0.34817009"><ele>3.2</ele><time>2022-11-04T15:12:05.0000000+00:00</time></trkpt><trkpt lat="39.45397262" lon="-0.34816917"><ele>3.2</ele><time>2022-11-04T15:12:06.0000000+00:00</time></trkpt><trkpt lat="39.45397773" lon="-0.34816816"><ele>3.2</ele><time>2022-11-04T15:12:07.0000000+00:00</time></trkpt><trkpt lat="39.4539846" lon="-0.34816775"><ele>3.2</ele><time>2022-11-04T15:12:08.0000000+00:00</time></trkpt><trkpt lat="39.45398955" lon="-0.34816716"><ele>3.2</ele><time>2022-11-04T15:12:09.0000000+00:00</time></trkpt><trkpt lat="39.45399583" lon="-0.34816615"><ele>3.2</ele><time>2022-11-04T15:12:10.0000000+00:00</time></trkpt><trkpt lat="39.45400095" lon="-0.34816548"><ele>3.2</ele><time>2022-11-04T15:12:11.0000000+00:00</time></trkpt><trkpt lat="39.45400355" lon="-0.34816062"><ele>3.2</ele><time>2022-11-04T15:12:12.0000000+00:00</time></trkpt><trkpt lat="39.45400556" lon="-0.34815241"><ele>3.2</ele><time>2022-11-04T15:12:13.0000000+00:00</time></trkpt><trkpt lat="39.4540069" lon="-0.34814377"><ele>3.2</ele><time>2022-11-04T15:12:14.0000000+00:00</time></trkpt><trkpt lat="39.45400765" lon="-0.34814042"><ele>3.2</ele><time>2022-11-04T15:12:15.0000000+00:00</time></trkpt><trkpt lat="39.45400841" lon="-0.34813849"><ele>3.2</ele><time>2022-11-04T15:12:16.0000000+00:00</time></trkpt><trkpt lat="39.45400891" lon="-0.34813707"><ele>3.2</ele><time>2022-11-04T15:12:17.0000000+00:00</time></trkpt><trkpt lat="39.45400958" lon="-0.34813615"><ele>3.2</ele><time>2022-11-04T15:12:18.0000000+00:00</time></trkpt><trkpt lat="39.45401142" lon="-0.34813405"><ele>3.2</ele><time>2022-11-04T15:12:19.0000000+00:00</time></trkpt><trkpt lat="39.45401209" lon="-0.34813204"><ele>3.2</ele><time>2022-11-04T15:12:20.0000000+00:00</time></trkpt><trkpt lat="39.45401243" lon="-0.34812978"><ele>3.2</ele><time>2022-11-04T15:12:21.0000000+00:00</time></trkpt><trkpt lat="39.45401251" lon="-0.34812877"><ele>3.2</ele><time>2022-11-04T15:12:22.0000000+00:00</time></trkpt><trkpt lat="39.4540126" lon="-0.34812802"><ele>3.2</ele><time>2022-11-04T15:12:23.0000000+00:00</time></trkpt><trkpt lat="39.4540126" lon="-0.34812693"><ele>3.2</ele><time>2022-11-04T15:12:24.0000000+00:00</time></trkpt><trkpt lat="39.4540126" lon="-0.34812634"><ele>3.2</ele><time>2022-11-04T15:12:25.0000000+00:00</time></trkpt><trkpt lat="39.4540126" lon="-0.34812517"><ele>3.2</ele><time>2022-11-04T15:12:26.0000000+00:00</time></trkpt><trkpt lat="39.4540126" lon="-0.34812156"><ele>3.2</ele><time>2022-11-04T15:12:27.0000000+00:00</time></trkpt><trkpt lat="39.4540126" lon="-0.34811821"><ele>3.2</ele><time>2022-11-04T15:12:28.0000000+00:00</time></trkpt><trkpt lat="39.4540126" lon="-0.34811578"><ele>3.2</ele><time>2022-11-04T15:12:29.0000000+00:00</time></trkpt><trkpt lat="39.4540126" lon="-0.34811385"><ele>3.2</ele><time>2022-11-04T15:12:30.0000000+00:00</time></trkpt><trkpt lat="39.4540126" lon="-0.34811276"><ele>3.2</ele><time>2022-11-04T15:12:31.0000000+00:00</time></trkpt><trkpt lat="39.4540126" lon="-0.34811209"><ele>3.2</ele><time>2022-11-04T15:12:32.0000000+00:00</time></trkpt><trkpt lat="39.4540126" lon="-0.34811092"><ele>3.2</ele><time>2022-11-04T15:12:33.0000000+00:00</time></trkpt><trkpt lat="39.45401201" lon="-0.34810991"><ele>3.2</ele><time>2022-11-04T15:12:34.0000000+00:00</time></trkpt><trkpt lat="39.45401151" lon="-0.34810941"><ele>3.2</ele><time>2022-11-04T15:12:35.0000000+00:00</time></trkpt><trkpt lat="39.45401126" lon="-0.34810916"><ele>3.2</ele><time>2022-11-04T15:12:36.0000000+00:00</time></trkpt><trkpt lat="39.4540105" lon="-0.34810907"><ele>3.2</ele><time>2022-11-04T15:12:37.0000000+00:00</time></trkpt><trkpt lat="39.45401" lon="-0.34810899"><ele>3.2</ele><time>2022-11-04T15:12:38.0000000+00:00</time></trkpt><trkpt lat="39.45400966" lon="-0.34810899"><ele>3.2</ele><time>2022-11-04T15:12:39.0000000+00:00</time></trkpt><trkpt lat="39.45400933" lon="-0.34810874"><ele>3.2</ele><time>2022-11-04T15:12:40.0000000+00:00</time></trkpt><trkpt lat="39.45400857" lon="-0.34810857"><ele>3.2</ele><time>2022-11-04T15:12:41.0000000+00:00</time></trkpt><trkpt lat="39.45400824" lon="-0.34810849"><ele>3.2</ele><time>2022-11-04T15:12:42.0000000+00:00</time></trkpt><trkpt lat="39.45400799" lon="-0.34810832"><ele>3.2</ele><time>2022-11-04T15:12:43.0000000+00:00</time></trkpt><trkpt lat="39.45400765" lon="-0.34810832"><ele>3.2</ele><time>2022-11-04T15:12:44.0000000+00:00</time></trkpt><trkpt lat="39.45400698" lon="-0.34810823"><ele>3.2</ele><time>2022-11-04T15:12:45.0000000+00:00</time></trkpt><trkpt lat="39.45400656" lon="-0.34810832"><ele>3.2</ele><time>2022-11-04T15:12:46.0000000+00:00</time></trkpt><trkpt lat="39.45400631" lon="-0.34810823"><ele>3.2</ele><time>2022-11-04T15:12:47.0000000+00:00</time></trkpt><trkpt lat="39.45400598" lon="-0.34810807"><ele>3.2</ele><time>2022-11-04T15:12:48.0000000+00:00</time></trkpt><trkpt lat="39.45400547" lon="-0.34810782"><ele>3.2</ele><time>2022-11-04T15:12:49.0000000+00:00</time></trkpt><trkpt lat="39.45400497" lon="-0.34810748"><ele>3.2</ele><time>2022-11-04T15:12:50.0000000+00:00</time></trkpt><trkpt lat="39.45400455" lon="-0.34810723"><ele>3.2</ele><time>2022-11-04T15:12:51.0000000+00:00</time></trkpt><trkpt lat="39.4540043" lon="-0.34810664"><ele>3.2</ele><time>2022-11-04T15:12:52.0000000+00:00</time></trkpt><trkpt lat="39.45400413" lon="-0.34810555"><ele>3.2</ele><time>2022-11-04T15:12:53.0000000+00:00</time></trkpt><trkpt lat="39.45400405" lon="-0.34810488"><ele>3.2</ele><time>2022-11-04T15:12:54.0000000+00:00</time></trkpt><trkpt lat="39.45400371" lon="-0.34810455"><ele>3.2</ele><time>2022-11-04T15:12:55.0000000+00:00</time></trkpt><trkpt lat="39.45400346" lon="-0.34810429"><ele>3.2</ele><time>2022-11-04T15:12:56.0000000+00:00</time></trkpt><trkpt lat="39.45400321" lon="-0.34810421"><ele>3.2</ele><time>2022-11-04T15:12:57.0000000+00:00</time></trkpt><trkpt lat="39.45400287" lon="-0.34810413"><ele>3.2</ele><time>2022-11-04T15:12:58.0000000+00:00</time></trkpt><trkpt lat="39.45400254" lon="-0.34810404"><ele>3.2</ele><time>2022-11-04T15:12:59.0000000+00:00</time></trkpt><trkpt lat="39.45400237" lon="-0.34810404"><ele>3.2</ele><time>2022-11-04T15:13:00.0000000+00:00</time></trkpt><trkpt lat="39.45400204" lon="-0.34810404"><ele>3.2</ele><time>2022-11-04T15:13:01.0000000+00:00</time></trkpt><trkpt lat="39.45400187" lon="-0.34810304"><ele>3.2</ele><time>2022-11-04T15:13:02.0000000+00:00</time></trkpt><trkpt lat="39.45400145" lon="-0.34810136"><ele>3.2</ele><time>2022-11-04T15:13:03.0000000+00:00</time></trkpt><trkpt lat="39.45400111" lon="-0.34809968"><ele>3.2</ele><time>2022-11-04T15:13:04.0000000+00:00</time></trkpt><trkpt lat="39.45400078" lon="-0.34809843"><ele>3.2</ele><time>2022-11-04T15:13:05.0000000+00:00</time></trkpt><trkpt lat="39.45399977" lon="-0.34809759"><ele>3.2</ele><time>2022-11-04T15:13:06.0000000+00:00</time></trkpt><trkpt lat="39.45399902" lon="-0.34809709"><ele>3.2</ele><time>2022-11-04T15:13:07.0000000+00:00</time></trkpt><trkpt lat="39.45399835" lon="-0.34809675"><ele>3.2</ele><time>2022-11-04T15:13:08.0000000+00:00</time></trkpt><trkpt lat="39.45399759" lon="-0.3480965"><ele>3.2</ele><time>2022-11-04T15:13:09.0000000+00:00</time></trkpt><trkpt lat="39.45399701" lon="-0.34809642"><ele>3.2</ele><time>2022-11-04T15:13:10.0000000+00:00</time></trkpt><trkpt lat="39.45399634" lon="-0.34809625"><ele>3.2</ele><time>2022-11-04T15:13:11.0000000+00:00</time></trkpt><trkpt lat="39.45399567" lon="-0.34809625"><ele>3.2</ele><time>2022-11-04T15:13:12.0000000+00:00</time></trkpt><trkpt lat="39.45399474" lon="-0.34809616"><ele>3.2</ele><time>2022-11-04T15:13:13.0000000+00:00</time></trkpt><trkpt lat="39.45399357" lon="-0.34809616"><ele>3.2</ele><time>2022-11-04T15:13:14.0000000+00:00</time></trkpt><trkpt lat="39.45399265" lon="-0.34809616"><ele>3.2</ele><time>2022-11-04T15:13:15.0000000+00:00</time></trkpt><trkpt lat="39.45399164" lon="-0.34809608"><ele>3.2</ele><time>2022-11-04T15:13:16.0000000+00:00</time></trkpt><trkpt lat="39.4539908" lon="-0.34809608"><ele>3.2</ele><time>2022-11-04T15:13:17.0000000+00:00</time></trkpt><trkpt lat="39.4539903" lon="-0.34809608"><ele>3.2</ele><time>2022-11-04T15:13:18.0000000+00:00</time></trkpt><trkpt lat="39.45398988" lon="-0.34809608"><ele>3.2</ele><time>2022-11-04T15:13:19.0000000+00:00</time></trkpt><trkpt lat="39.45398955" lon="-0.34809608"><ele>3.2</ele><time>2022-11-04T15:13:20.0000000+00:00</time></trkpt><trkpt lat="39.4539893" lon="-0.34809608"><ele>3.2</ele><time>2022-11-04T15:13:21.0000000+00:00</time></trkpt><trkpt lat="39.45398904" lon="-0.34809608"><ele>3.2</ele><time>2022-11-04T15:13:22.0000000+00:00</time></trkpt><trkpt lat="39.45398871" lon="-0.34809616"><ele>3.2</ele><time>2022-11-04T15:13:23.0000000+00:00</time></trkpt><trkpt lat="39.45398837" lon="-0.34809667"><ele>3.2</ele><time>2022-11-04T15:13:24.0000000+00:00</time></trkpt><trkpt lat="39.45398795" lon="-0.348097"><ele>3.2</ele><time>2022-11-04T15:13:25.0000000+00:00</time></trkpt><trkpt lat="39.45398754" lon="-0.34809751"><ele>3.2</ele><time>2022-11-04T15:13:26.0000000+00:00</time></trkpt><trkpt lat="39.45398703" lon="-0.34809784"><ele>3.2</ele><time>2022-11-04T15:13:27.0000000+00:00</time></trkpt><trkpt lat="39.45398653" lon="-0.34809809"><ele>3.2</ele><time>2022-11-04T15:13:28.0000000+00:00</time></trkpt><trkpt lat="39.45398603" lon="-0.34809834"><ele>3.2</ele><time>2022-11-04T15:13:29.0000000+00:00</time></trkpt><trkpt lat="39.45398561" lon="-0.34809851"><ele>3.2</ele><time>2022-11-04T15:13:30.0000000+00:00</time></trkpt><trkpt lat="39.45398527" lon="-0.34809876"><ele>3.2</ele><time>2022-11-04T15:13:31.0000000+00:00</time></trkpt><trkpt lat="39.45398494" lon="-0.34809901"><ele>3.2</ele><time>2022-11-04T15:13:32.0000000+00:00</time></trkpt><trkpt lat="39.4539846" lon="-0.34809935"><ele>3.2</ele><time>2022-11-04T15:13:33.0000000+00:00</time></trkpt><trkpt lat="39.45398427" lon="-0.34809977"><ele>3.2</ele><time>2022-11-04T15:13:34.0000000+00:00</time></trkpt><trkpt lat="39.4539836" lon="-0.34810027"><ele>3.2</ele><time>2022-11-04T15:13:35.0000000+00:00</time></trkpt><trkpt lat="39.45398225" lon="-0.34810069"><ele>3.2</ele><time>2022-11-04T15:13:36.0000000+00:00</time></trkpt><trkpt lat="39.453981" lon="-0.34810103"><ele>3.2</ele><time>2022-11-04T15:13:37.0000000+00:00</time></trkpt><trkpt lat="39.45397991" lon="-0.34810128"><ele>3.2</ele><time>2022-11-04T15:13:38.0000000+00:00</time></trkpt><trkpt lat="39.45397915" lon="-0.34810145"><ele>3.2</ele><time>2022-11-04T15:13:39.0000000+00:00</time></trkpt><trkpt lat="39.45397848" lon="-0.34810161"><ele>3.2</ele><time>2022-11-04T15:13:40.0000000+00:00</time></trkpt><trkpt lat="39.45397798" lon="-0.34810178"><ele>3.2</ele><time>2022-11-04T15:13:41.0000000+00:00</time></trkpt><trkpt lat="39.45397756" lon="-0.34810186"><ele>3.2</ele><time>2022-11-04T15:13:42.0000000+00:00</time></trkpt><trkpt lat="39.45397723" lon="-0.34810195"><ele>3.2</ele><time>2022-11-04T15:13:43.0000000+00:00</time></trkpt><trkpt lat="39.45397697" lon="-0.34810195"><ele>3.2</ele><time>2022-11-04T15:13:44.0000000+00:00</time></trkpt><trkpt lat="39.45397672" lon="-0.34810203"><ele>3.2</ele><time>2022-11-04T15:13:45.0000000+00:00</time></trkpt><trkpt lat="39.45397656" lon="-0.34810245"><ele>3.2</ele><time>2022-11-04T15:13:46.0000000+00:00</time></trkpt><trkpt lat="39.45397647" lon="-0.34810312"><ele>3.2</ele><time>2022-11-04T15:13:47.0000000+00:00</time></trkpt><trkpt lat="39.4539763" lon="-0.34810371"><ele>3.2</ele><time>2022-11-04T15:13:48.0000000+00:00</time></trkpt><trkpt lat="39.45397622" lon="-0.34810438"><ele>3.2</ele><time>2022-11-04T15:13:49.0000000+00:00</time></trkpt><trkpt lat="39.45397614" lon="-0.34810505"><ele>3.2</ele><time>2022-11-04T15:13:50.0000000+00:00</time></trkpt><trkpt lat="39.45397605" lon="-0.34810572"><ele>3.2</ele><time>2022-11-04T15:13:51.0000000+00:00</time></trkpt><trkpt lat="39.4539763" lon="-0.34810765"><ele>3.2</ele><time>2022-11-04T15:13:52.0000000+00:00</time></trkpt><trkpt lat="39.45397714" lon="-0.34811041"><ele>3.2</ele><time>2022-11-04T15:13:53.0000000+00:00</time></trkpt><trkpt lat="39.4539779" lon="-0.34811351"><ele>3.2</ele><time>2022-11-04T15:13:54.0000000+00:00</time></trkpt><trkpt lat="39.45397865" lon="-0.34811611"><ele>3.2</ele><time>2022-11-04T15:13:55.0000000+00:00</time></trkpt><trkpt lat="39.45397949" lon="-0.34811846"><ele>3.2</ele><time>2022-11-04T15:13:56.0000000+00:00</time></trkpt><trkpt lat="39.45398033" lon="-0.34812056"><ele>3.2</ele><time>2022-11-04T15:13:57.0000000+00:00</time></trkpt><trkpt lat="39.453981" lon="-0.3481224"><ele>3.2</ele><time>2022-11-04T15:13:58.0000000+00:00</time></trkpt><trkpt lat="39.45398175" lon="-0.34812416"><ele>3.2</ele><time>2022-11-04T15:13:59.0000000+00:00</time></trkpt><trkpt lat="39.45398251" lon="-0.34812567"><ele>3.2</ele><time>2022-11-04T15:14:00.0000000+00:00</time></trkpt><trkpt lat="39.45398318" lon="-0.34812701"><ele>3.2</ele><time>2022-11-04T15:14:01.0000000+00:00</time></trkpt><trkpt lat="39.45398385" lon="-0.34812843"><ele>3.2</ele><time>2022-11-04T15:14:02.0000000+00:00</time></trkpt><trkpt lat="39.45398443" lon="-0.34812961"><ele>3.2</ele><time>2022-11-04T15:14:03.0000000+00:00</time></trkpt><trkpt lat="39.45398494" lon="-0.3481307"><ele>3.2</ele><time>2022-11-04T15:14:04.0000000+00:00</time></trkpt><trkpt lat="39.45398552" lon="-0.34813162"><ele>3.2</ele><time>2022-11-04T15:14:05.0000000+00:00</time></trkpt><trkpt lat="39.45398603" lon="-0.34813254"><ele>3.2</ele><time>2022-11-04T15:14:06.0000000+00:00</time></trkpt><trkpt lat="39.45398645" lon="-0.34813321"><ele>3.2</ele><time>2022-11-04T15:14:07.0000000+00:00</time></trkpt><trkpt lat="39.45398687" lon="-0.34813388"><ele>3.2</ele><time>2022-11-04T15:14:08.0000000+00:00</time></trkpt><trkpt lat="39.45398728" lon="-0.34813447"><ele>3.2</ele><time>2022-11-04T15:14:09.0000000+00:00</time></trkpt><trkpt lat="39.4539877" lon="-0.34813497"><ele>3.2</ele><time>2022-11-04T15:14:10.0000000+00:00</time></trkpt><trkpt lat="39.45398804" lon="-0.34813548"><ele>3.2</ele><time>2022-11-04T15:14:11.0000000+00:00</time></trkpt><trkpt lat="39.45398829" lon="-0.34813581"><ele>3.2</ele><time>2022-11-04T15:14:12.0000000+00:00</time></trkpt><trkpt lat="39.45398854" lon="-0.34813615"><ele>3.2</ele><time>2022-11-04T15:14:13.0000000+00:00</time></trkpt><trkpt lat="39.45398871" lon="-0.34813631"><ele>3.2</ele><time>2022-11-04T15:14:14.0000000+00:00</time></trkpt><trkpt lat="39.45398879" lon="-0.34813648"><ele>3.2</ele><time>2022-11-04T15:14:15.0000000+00:00</time></trkpt><trkpt lat="39.45398863" lon="-0.34813631"><ele>3.2</ele><time>2022-11-04T15:14:16.0000000+00:00</time></trkpt><trkpt lat="39.45398854" lon="-0.34813623"><ele>3.2</ele><time>2022-11-04T15:14:17.0000000+00:00</time></trkpt><trkpt lat="39.45398863" lon="-0.3481364"><ele>3.2</ele><time>2022-11-04T15:14:18.0000000+00:00</time></trkpt><trkpt lat="39.45398871" lon="-0.34813665"><ele>3.2</ele><time>2022-11-04T15:14:19.0000000+00:00</time></trkpt><trkpt lat="39.45398871" lon="-0.34813673"><ele>3.2</ele><time>2022-11-04T15:14:20.0000000+00:00</time></trkpt><trkpt lat="39.45398863" lon="-0.34813682"><ele>3.2</ele><time>2022-11-04T15:14:21.0000000+00:00</time></trkpt><trkpt lat="39.45398854" lon="-0.34813682"><ele>3.2</ele><time>2022-11-04T15:14:22.0000000+00:00</time></trkpt><trkpt lat="39.45398854" lon="-0.34813682"><ele>3.2</ele><time>2022-11-04T15:14:23.0000000+00:00</time></trkpt><trkpt lat="39.45398837" lon="-0.34813665"><ele>3.2</ele><time>2022-11-04T15:14:24.0000000+00:00</time></trkpt><trkpt lat="39.45398829" lon="-0.34813648"><ele>3.2</ele><time>2022-11-04T15:14:25.0000000+00:00</time></trkpt><trkpt lat="39.45398829" lon="-0.34813623"><ele>3.2</ele><time>2022-11-04T15:14:26.0000000+00:00</time></trkpt><trkpt lat="39.45398854" lon="-0.34813648"><ele>3.2</ele><time>2022-11-04T15:14:27.0000000+00:00</time></trkpt><trkpt lat="39.45398871" lon="-0.3481369"><ele>3.2</ele><time>2022-11-04T15:14:28.0000000+00:00</time></trkpt><trkpt lat="39.45398863" lon="-0.34813673"><ele>3.2</ele><time>2022-11-04T15:14:29.0000000+00:00</time></trkpt><trkpt lat="39.45398846" lon="-0.34813657"><ele>3.2</ele><time>2022-11-04T15:14:30.0000000+00:00</time></trkpt><trkpt lat="39.45398837" lon="-0.34813657"><ele>3.2</ele><time>2022-11-04T15:14:31.0000000+00:00</time></trkpt><trkpt lat="39.45398837" lon="-0.34813665"><ele>3.2</ele><time>2022-11-04T15:14:32.0000000+00:00</time></trkpt><trkpt lat="39.45398846" lon="-0.34813673"><ele>3.2</ele><time>2022-11-04T15:14:33.0000000+00:00</time></trkpt><trkpt lat="39.45398854" lon="-0.34813673"><ele>3.2</ele><time>2022-11-04T15:14:34.0000000+00:00</time></trkpt><trkpt lat="39.45398863" lon="-0.34813682"><ele>3.2</ele><time>2022-11-04T15:14:35.0000000+00:00</time></trkpt><trkpt lat="39.45398854" lon="-0.3481369"><ele>3.2</ele><time>2022-11-04T15:14:36.0000000+00:00</time></trkpt><trkpt lat="39.45398837" lon="-0.34813707"><ele>3.2</ele><time>2022-11-04T15:14:37.0000000+00:00</time></trkpt><trkpt lat="39.45398837" lon="-0.34813724"><ele>3.2</ele><time>2022-11-04T15:14:38.0000000+00:00</time></trkpt><trkpt lat="39.45398821" lon="-0.3481374"><ele>3.2</ele><time>2022-11-04T15:14:39.0000000+00:00</time></trkpt><trkpt lat="39.45398812" lon="-0.34813732"><ele>3.2</ele><time>2022-11-04T15:14:40.0000000+00:00</time></trkpt><trkpt lat="39.45398787" lon="-0.34813707"><ele>3.2</ele><time>2022-11-04T15:14:41.0000000+00:00</time></trkpt><trkpt lat="39.4539877" lon="-0.34813673"><ele>3.2</ele><time>2022-11-04T15:14:42.0000000+00:00</time></trkpt><trkpt lat="39.45398754" lon="-0.34813648"><ele>3.2</ele><time>2022-11-04T15:14:43.0000000+00:00</time></trkpt><trkpt lat="39.45398745" lon="-0.3481364"><ele>3.2</ele><time>2022-11-04T15:14:44.0000000+00:00</time></trkpt><trkpt lat="39.45398754" lon="-0.34813648"><ele>3.2</ele><time>2022-11-04T15:14:45.0000000+00:00</time></trkpt><trkpt lat="39.45398754" lon="-0.34813665"><ele>3.2</ele><time>2022-11-04T15:14:46.0000000+00:00</time></trkpt><trkpt lat="39.4539877" lon="-0.34813673"><ele>3.2</ele><time>2022-11-04T15:14:47.0000000+00:00</time></trkpt><trkpt lat="39.4539877" lon="-0.34813682"><ele>3.2</ele><time>2022-11-04T15:14:48.0000000+00:00</time></trkpt><trkpt lat="39.4539877" lon="-0.3481369"><ele>3.2</ele><time>2022-11-04T15:14:49.0000000+00:00</time></trkpt><trkpt lat="39.4539877" lon="-0.34813707"><ele>3.2</ele><time>2022-11-04T15:14:50.0000000+00:00</time></trkpt><trkpt lat="39.45398762" lon="-0.34813724"><ele>3.2</ele><time>2022-11-04T15:14:51.0000000+00:00</time></trkpt><trkpt lat="39.45398762" lon="-0.3481374"><ele>3.2</ele><time>2022-11-04T15:14:52.0000000+00:00</time></trkpt><trkpt lat="39.45398745" lon="-0.34813749"><ele>3.2</ele><time>2022-11-04T15:14:53.0000000+00:00</time></trkpt><trkpt lat="39.45398737" lon="-0.34813757"><ele>3.2</ele><time>2022-11-04T15:14:54.0000000+00:00</time></trkpt><trkpt lat="39.4539872" lon="-0.34813765"><ele>3.2</ele><time>2022-11-04T15:14:55.0000000+00:00</time></trkpt><trkpt lat="39.45398712" lon="-0.34813782"><ele>3.2</ele><time>2022-11-04T15:14:56.0000000+00:00</time></trkpt><trkpt lat="39.45398712" lon="-0.34813782"><ele>3.2</ele><time>2022-11-04T15:14:57.0000000+00:00</time></trkpt><trkpt lat="39.45398712" lon="-0.34813782"><ele>3.2</ele><time>2022-11-04T15:14:58.0000000+00:00</time></trkpt><trkpt lat="39.4539872" lon="-0.34813799"><ele>3.2</ele><time>2022-11-04T15:14:59.0000000+00:00</time></trkpt><trkpt lat="39.45398737" lon="-0.34813824"><ele>3.2</ele><time>2022-11-04T15:15:00.0000000+00:00</time></trkpt><trkpt lat="39.45398745" lon="-0.34813841"><ele>3.2</ele><time>2022-11-04T15:15:01.0000000+00:00</time></trkpt><trkpt lat="39.45398745" lon="-0.34813849"><ele>3.2</ele><time>2022-11-04T15:15:02.0000000+00:00</time></trkpt><trkpt lat="39.45398737" lon="-0.34813858"><ele>3.2</ele><time>2022-11-04T15:15:03.0000000+00:00</time></trkpt><trkpt lat="39.4539872" lon="-0.34813858"><ele>3.2</ele><time>2022-11-04T15:15:04.0000000+00:00</time></trkpt><trkpt lat="39.45398728" lon="-0.34813874"><ele>3.2</ele><time>2022-11-04T15:15:05.0000000+00:00</time></trkpt><trkpt lat="39.45398737" lon="-0.348139"><ele>3.2</ele><time>2022-11-04T15:15:06.0000000+00:00</time></trkpt><trkpt lat="39.45398762" lon="-0.34813933"><ele>3.2</ele><time>2022-11-04T15:15:07.0000000+00:00</time></trkpt><trkpt lat="39.45398779" lon="-0.34813967"><ele>3.2</ele><time>2022-11-04T15:15:08.0000000+00:00</time></trkpt><trkpt lat="39.45398795" lon="-0.34814"><ele>3.2</ele><time>2022-11-04T15:15:09.0000000+00:00</time></trkpt><trkpt lat="39.45398812" lon="-0.34814017"><ele>3.2</ele><time>2022-11-04T15:15:10.0000000+00:00</time></trkpt><trkpt lat="39.45398829" lon="-0.34814034"><ele>3.2</ele><time>2022-11-04T15:15:11.0000000+00:00</time></trkpt><trkpt lat="39.45398837" lon="-0.34814042"><ele>3.2</ele><time>2022-11-04T15:15:12.0000000+00:00</time></trkpt><trkpt lat="39.45398837" lon="-0.34814042"><ele>3.2</ele><time>2022-11-04T15:15:13.0000000+00:00</time></trkpt><trkpt lat="39.45398829" lon="-0.34814034"><ele>3.2</ele><time>2022-11-04T15:15:14.0000000+00:00</time></trkpt><trkpt lat="39.45398821" lon="-0.34814025"><ele>3.2</ele><time>2022-11-04T15:15:15.0000000+00:00</time></trkpt><trkpt lat="39.45398829" lon="-0.34814042"><ele>3.2</ele><time>2022-11-04T15:15:16.0000000+00:00</time></trkpt><trkpt lat="39.45398854" lon="-0.34814067"><ele>3.2</ele><time>2022-11-04T15:15:17.0000000+00:00</time></trkpt><trkpt lat="39.45398879" lon="-0.34814109"><ele>3.2</ele><time>2022-11-04T15:15:18.0000000+00:00</time></trkpt><trkpt lat="39.45398904" lon="-0.34814143"><ele>3.2</ele><time>2022-11-04T15:15:19.0000000+00:00</time></trkpt><trkpt lat="39.4539893" lon="-0.34814159"><ele>3.2</ele><time>2022-11-04T15:15:20.0000000+00:00</time></trkpt><trkpt lat="39.45398946" lon="-0.34814168"><ele>3.2</ele><time>2022-11-04T15:15:21.0000000+00:00</time></trkpt><trkpt lat="39.45398963" lon="-0.34814185"><ele>3.2</ele><time>2022-11-04T15:15:22.0000000+00:00</time></trkpt><trkpt lat="39.4539898" lon="-0.34814218"><ele>3.2</ele><time>2022-11-04T15:15:23.0000000+00:00</time></trkpt><trkpt lat="39.45399005" lon="-0.34814235"><ele>3.2</ele><time>2022-11-04T15:15:24.0000000+00:00</time></trkpt><trkpt lat="39.45399005" lon="-0.34814243"><ele>3.2</ele><time>2022-11-04T15:15:25.0000000+00:00</time></trkpt><trkpt lat="39.45399013" lon="-0.34814252"><ele>3.2</ele><time>2022-11-04T15:15:26.0000000+00:00</time></trkpt><trkpt lat="39.45399005" lon="-0.34814243"><ele>3.2</ele><time>2022-11-04T15:15:27.0000000+00:00</time></trkpt><trkpt lat="39.45398997" lon="-0.34814235"><ele>3.2</ele><time>2022-11-04T15:15:28.0000000+00:00</time></trkpt><trkpt lat="39.45398997" lon="-0.34814226"><ele>3.2</ele><time>2022-11-04T15:15:29.0000000+00:00</time></trkpt><trkpt lat="39.45399005" lon="-0.34814226"><ele>3.2</ele><time>2022-11-04T15:15:30.0000000+00:00</time></trkpt><trkpt lat="39.45399013" lon="-0.34814226"><ele>3.2</ele><time>2022-11-04T15:15:31.0000000+00:00</time></trkpt><trkpt lat="39.45399022" lon="-0.34814243"><ele>3.2</ele><time>2022-11-04T15:15:32.0000000+00:00</time></trkpt><trkpt lat="39.45399039" lon="-0.3481426"><ele>3.2</ele><time>2022-11-04T15:15:33.0000000+00:00</time></trkpt><trkpt lat="39.45399055" lon="-0.34814277"><ele>3.2</ele><time>2022-11-04T15:15:34.0000000+00:00</time></trkpt><trkpt lat="39.45399064" lon="-0.34814285"><ele>3.2</ele><time>2022-11-04T15:15:35.0000000+00:00</time></trkpt><trkpt lat="39.45399072" lon="-0.3481431"><ele>3.2</ele><time>2022-11-04T15:15:36.0000000+00:00</time></trkpt><trkpt lat="39.4539908" lon="-0.34814335"><ele>3.2</ele><time>2022-11-04T15:15:37.0000000+00:00</time></trkpt><trkpt lat="39.45399692" lon="-0.34815517"><ele>3.2</ele><time>2022-11-04T15:15:38.0000000+00:00</time></trkpt><trkpt lat="39.45400279" lon="-0.34817278"><ele>3.2</ele><time>2022-11-04T15:15:39.0000000+00:00</time></trkpt><trkpt lat="39.45400924" lon="-0.34818694"><ele>3.2</ele><time>2022-11-04T15:15:40.0000000+00:00</time></trkpt><trkpt lat="39.45401193" lon="-0.34819113"><ele>3.2</ele><time>2022-11-04T15:15:41.0000000+00:00</time></trkpt><trkpt lat="39.45401243" lon="-0.34819122"><ele>3.2</ele><time>2022-11-04T15:15:42.0000000+00:00</time></trkpt><trkpt lat="39.45401017" lon="-0.34819038"><ele>3.2</ele><time>2022-11-04T15:15:43.0000000+00:00</time></trkpt><trkpt lat="39.45401033" lon="-0.34819482"><ele>3.2</ele><time>2022-11-04T15:15:44.0000000+00:00</time></trkpt><trkpt lat="39.45401159" lon="-0.34820412"><ele>3.2</ele><time>2022-11-04T15:15:45.0000000+00:00</time></trkpt><trkpt lat="39.45401511" lon="-0.34821737"><ele>3.2</ele><time>2022-11-04T15:15:46.0000000+00:00</time></trkpt><trkpt lat="39.45402098" lon="-0.34823103"><ele>3.2</ele><time>2022-11-04T15:15:47.0000000+00:00</time></trkpt><trkpt lat="39.45402291" lon="-0.34822986"><ele>3.2</ele><time>2022-11-04T15:15:48.0000000+00:00</time></trkpt><trkpt lat="39.45402576" lon="-0.34822927"><ele>3.2</ele><time>2022-11-04T15:15:49.0000000+00:00</time></trkpt><trkpt lat="39.45403003" lon="-0.34823254"><ele>3.2</ele><time>2022-11-04T15:15:50.0000000+00:00</time></trkpt><trkpt lat="39.45403548" lon="-0.34823857"><ele>3.2</ele><time>2022-11-04T15:15:51.0000000+00:00</time></trkpt><trkpt lat="39.4540395" lon="-0.34824058"><ele>3.2</ele><time>2022-11-04T15:15:52.0000000+00:00</time></trkpt><trkpt lat="39.4540395" lon="-0.34824058"><ele>3.2</ele><time>2022-11-04T15:15:53.0000000+00:00</time></trkpt><trkpt lat="39.4540395" lon="-0.34824058"><ele>3.2</ele><time>2022-11-04T15:15:54.0000000+00:00</time></trkpt><trkpt lat="39.4540395" lon="-0.34824058"><ele>3.2</ele><time>2022-11-04T15:15:55.0000000+00:00</time></trkpt><trkpt lat="39.4540395" lon="-0.34824058"><ele>3.2</ele><time>2022-11-04T15:15:56.0000000+00:00</time></trkpt><trkpt lat="39.4540395" lon="-0.34824058"><ele>3.2</ele><time>2022-11-04T15:15:57.0000000+00:00</time></trkpt><trkpt lat="39.45404093" lon="-0.34824218"><ele>3.2</ele><time>2022-11-04T15:15:58.0000000+00:00</time></trkpt><trkpt lat="39.45404705" lon="-0.34824872"><ele>3.2</ele><time>2022-11-04T15:15:59.0000000+00:00</time></trkpt><trkpt lat="39.45404864" lon="-0.34824846"><ele>3.2</ele><time>2022-11-04T15:16:00.0000000+00:00</time></trkpt><trkpt lat="39.45404688" lon="-0.34824419"><ele>3.2</ele><time>2022-11-04T15:16:01.0000000+00:00</time></trkpt><trkpt lat="39.45404914" lon="-0.34824209"><ele>3.2</ele><time>2022-11-04T15:16:02.0000000+00:00</time></trkpt><trkpt lat="39.45405325" lon="-0.34824067"><ele>3.2</ele><time>2022-11-04T15:16:03.0000000+00:00</time></trkpt><trkpt lat="39.45405342" lon="-0.34823673"><ele>3.2</ele><time>2022-11-04T15:16:04.0000000+00:00</time></trkpt><trkpt lat="39.45405124" lon="-0.34823237"><ele>3.2</ele><time>2022-11-04T15:16:05.0000000+00:00</time></trkpt><trkpt lat="39.45405057" lon="-0.3482322"><ele>3.2</ele><time>2022-11-04T15:16:06.0000000+00:00</time></trkpt><trkpt lat="39.45405367" lon="-0.34823648"><ele>3.2</ele><time>2022-11-04T15:16:07.0000000+00:00</time></trkpt><trkpt lat="39.45405283" lon="-0.34823581"><ele>3.2</ele><time>2022-11-04T15:16:08.0000000+00:00</time></trkpt><trkpt lat="39.45405191" lon="-0.3482405"><ele>3.2</ele><time>2022-11-04T15:16:09.0000000+00:00</time></trkpt><trkpt lat="39.45404596" lon="-0.34824025"><ele>3.2</ele><time>2022-11-04T15:16:10.0000000+00:00</time></trkpt><trkpt lat="39.45403833" lon="-0.34823547"><ele>3.2</ele><time>2022-11-04T15:16:11.0000000+00:00</time></trkpt><trkpt lat="39.4540369" lon="-0.34822977"><ele>3.2</ele><time>2022-11-04T15:16:12.0000000+00:00</time></trkpt><trkpt lat="39.45403338" lon="-0.34821494"><ele>3.2</ele><time>2022-11-04T15:16:13.0000000+00:00</time></trkpt><trkpt lat="39.45402794" lon="-0.34821016"><ele>3.2</ele><time>2022-11-04T15:16:14.0000000+00:00</time></trkpt><trkpt lat="39.45402743" lon="-0.34820831"><ele>3.2</ele><time>2022-11-04T15:16:15.0000000+00:00</time></trkpt><trkpt lat="39.45402433" lon="-0.34820957"><ele>3.2</ele><time>2022-11-04T15:16:16.0000000+00:00</time></trkpt><trkpt lat="39.45402408" lon="-0.34821158"><ele>3.2</ele><time>2022-11-04T15:16:17.0000000+00:00</time></trkpt><trkpt lat="39.45402358" lon="-0.34821016"><ele>3.2</ele><time>2022-11-04T15:16:18.0000000+00:00</time></trkpt><trkpt lat="39.45402232" lon="-0.34821125"><ele>3.2</ele><time>2022-11-04T15:16:19.0000000+00:00</time></trkpt><trkpt lat="39.45402106" lon="-0.34821075"><ele>3.2</ele><time>2022-11-04T15:16:20.0000000+00:00</time></trkpt><trkpt lat="39.45402106" lon="-0.34821075"><ele>3.2</ele><time>2022-11-04T15:16:21.0000000+00:00</time></trkpt><trkpt lat="39.45402106" lon="-0.34821075"><ele>3.2</ele><time>2022-11-04T15:16:22.0000000+00:00</time></trkpt><trkpt lat="39.45402106" lon="-0.34821075"><ele>3.2</ele><time>2022-11-04T15:16:23.0000000+00:00</time></trkpt><trkpt lat="39.45402106" lon="-0.34821075"><ele>3.2</ele><time>2022-11-04T15:16:24.0000000+00:00</time></trkpt><trkpt lat="39.45402106" lon="-0.34821075"><ele>3.2</ele><time>2022-11-04T15:16:25.0000000+00:00</time></trkpt><trkpt lat="39.45402106" lon="-0.34821075"><ele>3.2</ele><time>2022-11-04T15:16:26.0000000+00:00</time></trkpt><trkpt lat="39.45402106" lon="-0.34821075"><ele>3.2</ele><time>2022-11-04T15:16:27.0000000+00:00</time></trkpt><trkpt lat="39.4540214" lon="-0.34821075"><ele>3.2</ele><time>2022-11-04T15:16:28.0000000+00:00</time></trkpt><trkpt lat="39.45402232" lon="-0.34821075"><ele>3.2</ele><time>2022-11-04T15:16:29.0000000+00:00</time></trkpt><trkpt lat="39.45402266" lon="-0.34821075"><ele>3.2</ele><time>2022-11-04T15:16:30.0000000+00:00</time></trkpt><trkpt lat="39.45402266" lon="-0.34821075"><ele>3.2</ele><time>2022-11-04T15:16:31.0000000+00:00</time></trkpt><trkpt lat="39.45402266" lon="-0.34821075"><ele>3.2</ele><time>2022-11-04T15:16:32.0000000+00:00</time></trkpt><trkpt lat="39.45402266" lon="-0.34821058"><ele>3.2</ele><time>2022-11-04T15:16:33.0000000+00:00</time></trkpt><trkpt lat="39.45402266" lon="-0.34821033"><ele>3.2</ele><time>2022-11-04T15:16:34.0000000+00:00</time></trkpt><trkpt lat="39.45402266" lon="-0.34821033"><ele>3.2</ele><time>2022-11-04T15:16:35.0000000+00:00</time></trkpt><trkpt lat="39.45402266" lon="-0.34821033"><ele>3.2</ele><time>2022-11-04T15:16:36.0000000+00:00</time></trkpt><trkpt lat="39.45402266" lon="-0.34821033"><ele>3.2</ele><time>2022-11-04T15:16:37.0000000+00:00</time></trkpt><trkpt lat="39.45402266" lon="-0.34821033"><ele>3.2</ele><time>2022-11-04T15:16:38.0000000+00:00</time></trkpt><trkpt lat="39.45402266" lon="-0.34821033"><ele>3.2</ele><time>2022-11-04T15:16:39.0000000+00:00</time></trkpt><trkpt lat="39.45402266" lon="-0.34821024"><ele>3.2</ele><time>2022-11-04T15:16:40.0000000+00:00</time></trkpt><trkpt lat="39.45402266" lon="-0.34821016"><ele>3.2</ele><time>2022-11-04T15:16:41.0000000+00:00</time></trkpt><trkpt lat="39.4540224" lon="-0.34821016"><ele>3.2</ele><time>2022-11-04T15:16:42.0000000+00:00</time></trkpt><trkpt lat="39.45402148" lon="-0.34821016"><ele>3.2</ele><time>2022-11-04T15:16:43.0000000+00:00</time></trkpt><trkpt lat="39.45402115" lon="-0.34820999"><ele>3.2</ele><time>2022-11-04T15:16:44.0000000+00:00</time></trkpt><trkpt lat="39.4540183" lon="-0.34820999"><ele>3.2</ele><time>2022-11-04T15:16:45.0000000+00:00</time></trkpt><trkpt lat="39.45401243" lon="-0.34820999"><ele>3.2</ele><time>2022-11-04T15:16:46.0000000+00:00</time></trkpt><trkpt lat="39.45400941" lon="-0.34820974"><ele>3.2</ele><time>2022-11-04T15:16:47.0000000+00:00</time></trkpt><trkpt lat="39.45400857" lon="-0.34820949"><ele>3.2</ele><time>2022-11-04T15:16:48.0000000+00:00</time></trkpt><trkpt lat="39.4540079" lon="-0.34820873"><ele>3.2</ele><time>2022-11-04T15:16:49.0000000+00:00</time></trkpt><trkpt lat="39.45400765" lon="-0.34820865"><ele>3.2</ele><time>2022-11-04T15:16:50.0000000+00:00</time></trkpt><trkpt lat="39.45400606" lon="-0.34820865"><ele>3.2</ele><time>2022-11-04T15:16:51.0000000+00:00</time></trkpt><trkpt lat="39.45400413" lon="-0.348211"><ele>3.2</ele><time>2022-11-04T15:16:52.0000000+00:00</time></trkpt><trkpt lat="39.45400463" lon="-0.34821904"><ele>3.2</ele><time>2022-11-04T15:16:53.0000000+00:00</time></trkpt><trkpt lat="39.45400019" lon="-0.34822256"><ele>3.2</ele><time>2022-11-04T15:16:54.0000000+00:00</time></trkpt><trkpt lat="39.45399583" lon="-0.34822768"><ele>3.2</ele><time>2022-11-04T15:16:55.0000000+00:00</time></trkpt><trkpt lat="39.45399466" lon="-0.34823698"><ele>3.2</ele><time>2022-11-04T15:16:56.0000000+00:00</time></trkpt><trkpt lat="39.45400036" lon="-0.34824628"><ele>3.2</ele><time>2022-11-04T15:16:57.0000000+00:00</time></trkpt><trkpt lat="39.45399801" lon="-0.34825282"><ele>3.2</ele><time>2022-11-04T15:16:58.0000000+00:00</time></trkpt><trkpt lat="39.45399793" lon="-0.34825475"><ele>3.2</ele><time>2022-11-04T15:16:59.0000000+00:00</time></trkpt><trkpt lat="39.45399541" lon="-0.34825433"><ele>3.2</ele><time>2022-11-04T15:17:00.0000000+00:00</time></trkpt><trkpt lat="39.45399893" lon="-0.34825265"><ele>3.2</ele><time>2022-11-04T15:17:01.0000000+00:00</time></trkpt><trkpt lat="39.45400463" lon="-0.34825534"><ele>3.2</ele><time>2022-11-04T15:17:02.0000000+00:00</time></trkpt><trkpt lat="39.45401151" lon="-0.34826179"><ele>3.2</ele><time>2022-11-04T15:17:03.0000000+00:00</time></trkpt><trkpt lat="39.45401679" lon="-0.34826548"><ele>3.2</ele><time>2022-11-04T15:17:04.0000000+00:00</time></trkpt><trkpt lat="39.45401033" lon="-0.34826422"><ele>3.2</ele><time>2022-11-04T15:17:05.0000000+00:00</time></trkpt><trkpt lat="39.45400665" lon="-0.34826104"><ele>3.2</ele><time>2022-11-04T15:17:06.0000000+00:00</time></trkpt><trkpt lat="39.45400748" lon="-0.34825852"><ele>3.2</ele><time>2022-11-04T15:17:07.0000000+00:00</time></trkpt><trkpt lat="39.45401142" lon="-0.34825576"><ele>3.2</ele><time>2022-11-04T15:17:08.0000000+00:00</time></trkpt><trkpt lat="39.45401779" lon="-0.34825475"><ele>3.2</ele><time>2022-11-04T15:17:09.0000000+00:00</time></trkpt><trkpt lat="39.45402064" lon="-0.34825643"><ele>3.2</ele><time>2022-11-04T15:17:10.0000000+00:00</time></trkpt><trkpt lat="39.45402173" lon="-0.34825953"><ele>3.2</ele><time>2022-11-04T15:17:11.0000000+00:00</time></trkpt><trkpt lat="39.45401964" lon="-0.34825978"><ele>3.2</ele><time>2022-11-04T15:17:12.0000000+00:00</time></trkpt><trkpt lat="39.45401872" lon="-0.3482571"><ele>3.2</ele><time>2022-11-04T15:17:13.0000000+00:00</time></trkpt><trkpt lat="39.45401696" lon="-0.3482576"><ele>3.2</ele><time>2022-11-04T15:17:14.0000000+00:00</time></trkpt><trkpt lat="39.45401411" lon="-0.34825886"><ele>3.2</ele><time>2022-11-04T15:17:15.0000000+00:00</time></trkpt><trkpt lat="39.45401411" lon="-0.34825735"><ele>3.2</ele><time>2022-11-04T15:17:16.0000000+00:00</time></trkpt><trkpt lat="39.45401712" lon="-0.34825391"><ele>3.2</ele><time>2022-11-04T15:17:17.0000000+00:00</time></trkpt><trkpt lat="39.45402173" lon="-0.3482483"><ele>3.2</ele><time>2022-11-04T15:17:18.0000000+00:00</time></trkpt><trkpt lat="39.45402869" lon="-0.34824394"><ele>3.2</ele><time>2022-11-04T15:17:19.0000000+00:00</time></trkpt><trkpt lat="39.45403196" lon="-0.34824008"><ele>3.2</ele><time>2022-11-04T15:17:20.0000000+00:00</time></trkpt><trkpt lat="39.45403271" lon="-0.34824167"><ele>3.2</ele><time>2022-11-04T15:17:21.0000000+00:00</time></trkpt><trkpt lat="39.4540281" lon="-0.34823941"><ele>3.2</ele><time>2022-11-04T15:17:22.0000000+00:00</time></trkpt><trkpt lat="39.45402844" lon="-0.34823556"><ele>3.2</ele><time>2022-11-04T15:17:23.0000000+00:00</time></trkpt><trkpt lat="39.45403154" lon="-0.34822675"><ele>3.2</ele><time>2022-11-04T15:17:24.0000000+00:00</time></trkpt><trkpt lat="39.45403154" lon="-0.34822675"><ele>3.2</ele><time>2022-11-04T15:17:25.0000000+00:00</time></trkpt><trkpt lat="39.45403154" lon="-0.34822675"><ele>3.2</ele><time>2022-11-04T15:17:26.0000000+00:00</time></trkpt><trkpt lat="39.45403154" lon="-0.34822675"><ele>3.2</ele><time>2022-11-04T15:17:27.0000000+00:00</time></trkpt><trkpt lat="39.45403154" lon="-0.34822675"><ele>3.2</ele><time>2022-11-04T15:17:28.0000000+00:00</time></trkpt><trkpt lat="39.45403154" lon="-0.34822675"><ele>3.2</ele><time>2022-11-04T15:17:29.0000000+00:00</time></trkpt><trkpt lat="39.45403154" lon="-0.34822675"><ele>3.2</ele><time>2022-11-04T15:17:30.0000000+00:00</time></trkpt><trkpt lat="39.45403154" lon="-0.34822675"><ele>3.2</ele><time>2022-11-04T15:17:31.0000000+00:00</time></trkpt><trkpt lat="39.45403154" lon="-0.34822675"><ele>3.2</ele><time>2022-11-04T15:17:32.0000000+00:00</time></trkpt><trkpt lat="39.45403154" lon="-0.34822675"><ele>3.2</ele><time>2022-11-04T15:17:33.0000000+00:00</time></trkpt><trkpt lat="39.45403154" lon="-0.34822675"><ele>3.2</ele><time>2022-11-04T15:17:34.0000000+00:00</time></trkpt><trkpt lat="39.45403154" lon="-0.34822675"><ele>3.2</ele><time>2022-11-04T15:17:35.0000000+00:00</time></trkpt><trkpt lat="39.45403154" lon="-0.34822675"><ele>3.2</ele><time>2022-11-04T15:17:36.0000000+00:00</time></trkpt><trkpt lat="39.45403154" lon="-0.34822675"><ele>3.2</ele><time>2022-11-04T15:17:37.0000000+00:00</time></trkpt><trkpt lat="39.45403196" lon="-0.34822675"><ele>3.2</ele><time>2022-11-04T15:17:38.0000000+00:00</time></trkpt><trkpt lat="39.45403255" lon="-0.34822675"><ele>3.2</ele><time>2022-11-04T15:17:39.0000000+00:00</time></trkpt><trkpt lat="39.45403271" lon="-0.34822592"><ele>3.2</ele><time>2022-11-04T15:17:40.0000000+00:00</time></trkpt><trkpt lat="39.45403489" lon="-0.34822315"><ele>3.2</ele><time>2022-11-04T15:17:41.0000000+00:00</time></trkpt><trkpt lat="39.45403749" lon="-0.34822265"><ele>3.2</ele><time>2022-11-04T15:17:42.0000000+00:00</time></trkpt><trkpt lat="39.45403774" lon="-0.34822164"><ele>3.2</ele><time>2022-11-04T15:17:43.0000000+00:00</time></trkpt><trkpt lat="39.45403816" lon="-0.34822064"><ele>3.2</ele><time>2022-11-04T15:17:44.0000000+00:00</time></trkpt><trkpt lat="39.45403892" lon="-0.3482182"><ele>3.2</ele><time>2022-11-04T15:17:45.0000000+00:00</time></trkpt><trkpt lat="39.45403917" lon="-0.34821653"><ele>3.2</ele><time>2022-11-04T15:17:46.0000000+00:00</time></trkpt><trkpt lat="39.45404126" lon="-0.34821603"><ele>3.2</ele><time>2022-11-04T15:17:47.0000000+00:00</time></trkpt><trkpt lat="39.45404537" lon="-0.34821485"><ele>3.2</ele><time>2022-11-04T15:17:48.0000000+00:00</time></trkpt><trkpt lat="39.45404688" lon="-0.34821443"><ele>3.2</ele><time>2022-11-04T15:17:49.0000000+00:00</time></trkpt><trkpt lat="39.45404705" lon="-0.34821427"><ele>3.2</ele><time>2022-11-04T15:17:50.0000000+00:00</time></trkpt><trkpt lat="39.45404705" lon="-0.34821393"><ele>3.2</ele><time>2022-11-04T15:17:51.0000000+00:00</time></trkpt><trkpt lat="39.45404705" lon="-0.34821133"><ele>3.2</ele><time>2022-11-04T15:17:52.0000000+00:00</time></trkpt><trkpt lat="39.45404705" lon="-0.34820572"><ele>3.2</ele><time>2022-11-04T15:17:53.0000000+00:00</time></trkpt><trkpt lat="39.45404705" lon="-0.34820446"><ele>3.2</ele><time>2022-11-04T15:17:54.0000000+00:00</time></trkpt><trkpt lat="39.45404705" lon="-0.34820429"><ele>3.2</ele><time>2022-11-04T15:17:55.0000000+00:00</time></trkpt><trkpt lat="39.45404705" lon="-0.34820429"><ele>3.2</ele><time>2022-11-04T15:17:56.0000000+00:00</time></trkpt><trkpt lat="39.45404705" lon="-0.34820387"><ele>3.2</ele><time>2022-11-04T15:17:57.0000000+00:00</time></trkpt><trkpt lat="39.45404705" lon="-0.34820354"><ele>3.2</ele><time>2022-11-04T15:17:58.0000000+00:00</time></trkpt><trkpt lat="39.45404705" lon="-0.34820329"><ele>3.2</ele><time>2022-11-04T15:17:59.0000000+00:00</time></trkpt><trkpt lat="39.45404705" lon="-0.34820312"><ele>3.2</ele><time>2022-11-04T15:18:00.0000000+00:00</time></trkpt><trkpt lat="39.45404705" lon="-0.34820236"><ele>3.2</ele><time>2022-11-04T15:18:01.0000000+00:00</time></trkpt><trkpt lat="39.45404705" lon="-0.34820211"><ele>3.2</ele><time>2022-11-04T15:18:02.0000000+00:00</time></trkpt><trkpt lat="39.45404705" lon="-0.34820102"><ele>3.2</ele><time>2022-11-04T15:18:03.0000000+00:00</time></trkpt><trkpt lat="39.45404302" lon="-0.34819733"><ele>3.2</ele><time>2022-11-04T15:18:04.0000000+00:00</time></trkpt><trkpt lat="39.45403833" lon="-0.34819331"><ele>3.2</ele><time>2022-11-04T15:18:05.0000000+00:00</time></trkpt><trkpt lat="39.45403338" lon="-0.34818962"><ele>3.2</ele><time>2022-11-04T15:18:06.0000000+00:00</time></trkpt><trkpt lat="39.4540281" lon="-0.34818828"><ele>3.2</ele><time>2022-11-04T15:18:07.0000000+00:00</time></trkpt><trkpt lat="39.454025" lon="-0.34818795"><ele>3.2</ele><time>2022-11-04T15:18:08.0000000+00:00</time></trkpt><trkpt lat="39.45401972" lon="-0.34818778"><ele>3.2</ele><time>2022-11-04T15:18:09.0000000+00:00</time></trkpt><trkpt lat="39.45401478" lon="-0.34818694"><ele>3.2</ele><time>2022-11-04T15:18:10.0000000+00:00</time></trkpt><trkpt lat="39.45401126" lon="-0.34818568"><ele>3.2</ele><time>2022-11-04T15:18:11.0000000+00:00</time></trkpt><trkpt lat="39.45401042" lon="-0.34817982"><ele>3.2</ele><time>2022-11-04T15:18:12.0000000+00:00</time></trkpt><trkpt lat="39.45401008" lon="-0.34817479"><ele>3.2</ele><time>2022-11-04T15:18:13.0000000+00:00</time></trkpt><trkpt lat="39.45400899" lon="-0.34817177"><ele>3.2</ele><time>2022-11-04T15:18:14.0000000+00:00</time></trkpt><trkpt lat="39.45400816" lon="-0.34816724"><ele>3.2</ele><time>2022-11-04T15:18:15.0000000+00:00</time></trkpt><trkpt lat="39.45400723" lon="-0.34815811"><ele>3.2</ele><time>2022-11-04T15:18:16.0000000+00:00</time></trkpt><trkpt lat="39.4540043" lon="-0.34815081"><ele>3.2</ele><time>2022-11-04T15:18:17.0000000+00:00</time></trkpt><trkpt lat="39.45400346" lon="-0.34814537"><ele>3.2</ele><time>2022-11-04T15:18:18.0000000+00:00</time></trkpt><trkpt lat="39.45400321" lon="-0.34814335"><ele>3.2</ele><time>2022-11-04T15:18:19.0000000+00:00</time></trkpt><trkpt lat="39.45400321" lon="-0.34813967"><ele>3.2</ele><time>2022-11-04T15:18:20.0000000+00:00</time></trkpt><trkpt lat="39.45400313" lon="-0.34813606"><ele>3.2</ele><time>2022-11-04T15:18:21.0000000+00:00</time></trkpt><trkpt lat="39.45400313" lon="-0.34813439"><ele>3.2</ele><time>2022-11-04T15:18:22.0000000+00:00</time></trkpt><trkpt lat="39.45400313" lon="-0.34813237"><ele>3.2</ele><time>2022-11-04T15:18:23.0000000+00:00</time></trkpt><trkpt lat="39.45400313" lon="-0.34812927"><ele>3.2</ele><time>2022-11-04T15:18:24.0000000+00:00</time></trkpt><trkpt lat="39.45400313" lon="-0.34812567"><ele>3.2</ele><time>2022-11-04T15:18:25.0000000+00:00</time></trkpt><trkpt lat="39.45400313" lon="-0.3481224"><ele>3.2</ele><time>2022-11-04T15:18:26.0000000+00:00</time></trkpt><trkpt lat="39.45400329" lon="-0.34811779"><ele>3.2</ele><time>2022-11-04T15:18:27.0000000+00:00</time></trkpt><trkpt lat="39.45400438" lon="-0.34811293"><ele>3.2</ele><time>2022-11-04T15:18:28.0000000+00:00</time></trkpt><trkpt lat="39.45400606" lon="-0.34810991"><ele>3.2</ele><time>2022-11-04T15:18:29.0000000+00:00</time></trkpt><trkpt lat="39.45400732" lon="-0.3481089"><ele>3.2</ele><time>2022-11-04T15:18:30.0000000+00:00</time></trkpt><trkpt lat="39.4540079" lon="-0.34810782"><ele>3.2</ele><time>2022-11-04T15:18:31.0000000+00:00</time></trkpt><trkpt lat="39.45400841" lon="-0.34810488"><ele>3.2</ele><time>2022-11-04T15:18:32.0000000+00:00</time></trkpt><trkpt lat="39.45400941" lon="-0.34810287"><ele>3.2</ele><time>2022-11-04T15:18:33.0000000+00:00</time></trkpt><trkpt lat="39.45401" lon="-0.34810203"><ele>3.2</ele><time>2022-11-04T15:18:34.0000000+00:00</time></trkpt><trkpt lat="39.4540131" lon="-0.34810145"><ele>3.2</ele><time>2022-11-04T15:18:35.0000000+00:00</time></trkpt><trkpt lat="39.45401235" lon="-0.34809885"><ele>3.2</ele><time>2022-11-04T15:18:36.0000000+00:00</time></trkpt><trkpt lat="39.45400824" lon="-0.3480939"><ele>3.2</ele><time>2022-11-04T15:18:37.0000000+00:00</time></trkpt><trkpt lat="39.45400162" lon="-0.34808368"><ele>3.2</ele><time>2022-11-04T15:18:38.0000000+00:00</time></trkpt><trkpt lat="39.45399701" lon="-0.34807496"><ele>3.2</ele><time>2022-11-04T15:18:39.0000000+00:00</time></trkpt><trkpt lat="39.45399625" lon="-0.34807295"><ele>3.2</ele><time>2022-11-04T15:18:40.0000000+00:00</time></trkpt><trkpt lat="39.45399667" lon="-0.34807261"><ele>3.2</ele><time>2022-11-04T15:18:41.0000000+00:00</time></trkpt><trkpt lat="39.45400078" lon="-0.34807345"><ele>3.2</ele><time>2022-11-04T15:18:42.0000000+00:00</time></trkpt><trkpt lat="39.4540038" lon="-0.34807253"><ele>3.2</ele><time>2022-11-04T15:18:43.0000000+00:00</time></trkpt><trkpt lat="39.45400807" lon="-0.34807404"><ele>3.2</ele><time>2022-11-04T15:18:44.0000000+00:00</time></trkpt><trkpt lat="39.45400983" lon="-0.34806976"><ele>3.2</ele><time>2022-11-04T15:18:45.0000000+00:00</time></trkpt><trkpt lat="39.45400774" lon="-0.34806909"><ele>3.2</ele><time>2022-11-04T15:18:46.0000000+00:00</time></trkpt><trkpt lat="39.4540043" lon="-0.34806741"><ele>3.2</ele><time>2022-11-04T15:18:47.0000000+00:00</time></trkpt><trkpt lat="39.4540043" lon="-0.34806741"><ele>3.2</ele><time>2022-11-04T15:18:48.0000000+00:00</time></trkpt><trkpt lat="39.4540043" lon="-0.34806741"><ele>3.2</ele><time>2022-11-04T15:18:49.0000000+00:00</time></trkpt><trkpt lat="39.4540043" lon="-0.34806741"><ele>3.2</ele><time>2022-11-04T15:18:50.0000000+00:00</time></trkpt><trkpt lat="39.4540043" lon="-0.34806741"><ele>3.2</ele><time>2022-11-04T15:18:51.0000000+00:00</time></trkpt><trkpt lat="39.4540043" lon="-0.34806741"><ele>3.2</ele><time>2022-11-04T15:18:52.0000000+00:00</time></trkpt><trkpt lat="39.4540043" lon="-0.34806741"><ele>3.2</ele><time>2022-11-04T15:18:53.0000000+00:00</time></trkpt><trkpt lat="39.4540043" lon="-0.34806741"><ele>3.2</ele><time>2022-11-04T15:18:54.0000000+00:00</time></trkpt><trkpt lat="39.4540043" lon="-0.34806741"><ele>3.2</ele><time>2022-11-04T15:18:55.0000000+00:00</time></trkpt><trkpt lat="39.4540043" lon="-0.34806741"><ele>3.2</ele><time>2022-11-04T15:18:56.0000000+00:00</time></trkpt><trkpt lat="39.4540043" lon="-0.34806741"><ele>3.2</ele><time>2022-11-04T15:18:57.0000000+00:00</time></trkpt><trkpt lat="39.4540043" lon="-0.34806733"><ele>3.2</ele><time>2022-11-04T15:18:58.0000000+00:00</time></trkpt><trkpt lat="39.4540043" lon="-0.34806674"><ele>3.2</ele><time>2022-11-04T15:18:59.0000000+00:00</time></trkpt><trkpt lat="39.45400329" lon="-0.34806582"><ele>3.2</ele><time>2022-11-04T15:19:00.0000000+00:00</time></trkpt><trkpt lat="39.45400246" lon="-0.34806574"><ele>3.2</ele><time>2022-11-04T15:19:01.0000000+00:00</time></trkpt><trkpt lat="39.45400237" lon="-0.34806574"><ele>3.2</ele><time>2022-11-04T15:19:02.0000000+00:00</time></trkpt><trkpt lat="39.45400019" lon="-0.34806574"><ele>3.2</ele><time>2022-11-04T15:19:03.0000000+00:00</time></trkpt><trkpt lat="39.45399877" lon="-0.34806574"><ele>3.2</ele><time>2022-11-04T15:19:04.0000000+00:00</time></trkpt><trkpt lat="39.45399868" lon="-0.34806574"><ele>3.2</ele><time>2022-11-04T15:19:05.0000000+00:00</time></trkpt><trkpt lat="39.4539986" lon="-0.34806574"><ele>3.2</ele><time>2022-11-04T15:19:06.0000000+00:00</time></trkpt><trkpt lat="39.4539986" lon="-0.34806574"><ele>3.2</ele><time>2022-11-04T15:19:07.0000000+00:00</time></trkpt><trkpt lat="39.4539986" lon="-0.34806574"><ele>3.2</ele><time>2022-11-04T15:19:08.0000000+00:00</time></trkpt><trkpt lat="39.45399893" lon="-0.34806582"><ele>3.2</ele><time>2022-11-04T15:19:09.0000000+00:00</time></trkpt><trkpt lat="39.45399986" lon="-0.34806666"><ele>3.2</ele><time>2022-11-04T15:19:10.0000000+00:00</time></trkpt><trkpt lat="39.45400002" lon="-0.34806708"><ele>3.2</ele><time>2022-11-04T15:19:11.0000000+00:00</time></trkpt><trkpt lat="39.45400002" lon="-0.34806725"><ele>3.2</ele><time>2022-11-04T15:19:12.0000000+00:00</time></trkpt><trkpt lat="39.4539991" lon="-0.34806741"><ele>3.2</ele><time>2022-11-04T15:19:13.0000000+00:00</time></trkpt><trkpt lat="39.45399868" lon="-0.34806741"><ele>3.2</ele><time>2022-11-04T15:19:14.0000000+00:00</time></trkpt><trkpt lat="39.45399835" lon="-0.34806741"><ele>3.2</ele><time>2022-11-04T15:19:15.0000000+00:00</time></trkpt><trkpt lat="39.45399785" lon="-0.34806741"><ele>3.2</ele><time>2022-11-04T15:19:16.0000000+00:00</time></trkpt><trkpt lat="39.45399768" lon="-0.34807035"><ele>3.2</ele><time>2022-11-04T15:19:17.0000000+00:00</time></trkpt><trkpt lat="39.45399734" lon="-0.34807722"><ele>3.2</ele><time>2022-11-04T15:19:18.0000000+00:00</time></trkpt><trkpt lat="39.45399617" lon="-0.34807982"><ele>3.2</ele><time>2022-11-04T15:19:19.0000000+00:00</time></trkpt><trkpt lat="39.45399541" lon="-0.348082"><ele>3.2</ele><time>2022-11-04T15:19:20.0000000+00:00</time></trkpt><trkpt lat="39.45399533" lon="-0.34808368"><ele>3.2</ele><time>2022-11-04T15:19:21.0000000+00:00</time></trkpt><trkpt lat="39.45399424" lon="-0.34808544"><ele>3.2</ele><time>2022-11-04T15:19:22.0000000+00:00</time></trkpt><trkpt lat="39.45399374" lon="-0.34808569"><ele>3.2</ele><time>2022-11-04T15:19:23.0000000+00:00</time></trkpt><trkpt lat="39.45399273" lon="-0.34808619"><ele>3.2</ele><time>2022-11-04T15:19:24.0000000+00:00</time></trkpt><trkpt lat="39.45399215" lon="-0.3480877"><ele>3.2</ele><time>2022-11-04T15:19:25.0000000+00:00</time></trkpt><trkpt lat="39.45399156" lon="-0.34808887"><ele>3.2</ele><time>2022-11-04T15:19:26.0000000+00:00</time></trkpt><trkpt lat="39.45399089" lon="-0.34808921"><ele>3.2</ele><time>2022-11-04T15:19:27.0000000+00:00</time></trkpt><trkpt lat="39.4539903" lon="-0.34809021"><ele>3.2</ele><time>2022-11-04T15:19:28.0000000+00:00</time></trkpt><trkpt lat="39.45399005" lon="-0.3480908"><ele>3.2</ele><time>2022-11-04T15:19:29.0000000+00:00</time></trkpt><trkpt lat="39.45399005" lon="-0.34809122"><ele>3.2</ele><time>2022-11-04T15:19:30.0000000+00:00</time></trkpt><trkpt lat="39.45398997" lon="-0.34809239"><ele>3.2</ele><time>2022-11-04T15:19:31.0000000+00:00</time></trkpt><trkpt lat="39.45398997" lon="-0.34809298"><ele>3.2</ele><time>2022-11-04T15:19:32.0000000+00:00</time></trkpt><trkpt lat="39.45398997" lon="-0.3480934"><ele>3.2</ele><time>2022-11-04T15:19:33.0000000+00:00</time></trkpt><trkpt lat="39.45398997" lon="-0.34809399"><ele>3.2</ele><time>2022-11-04T15:19:34.0000000+00:00</time></trkpt><trkpt lat="39.45398997" lon="-0.34809818"><ele>3.2</ele><time>2022-11-04T15:19:35.0000000+00:00</time></trkpt><trkpt lat="39.45398997" lon="-0.34810036"><ele>3.2</ele><time>2022-11-04T15:19:36.0000000+00:00</time></trkpt><trkpt lat="39.45398997" lon="-0.34810145"><ele>3.2</ele><time>2022-11-04T15:19:37.0000000+00:00</time></trkpt><trkpt lat="39.45398997" lon="-0.34810312"><ele>3.2</ele><time>2022-11-04T15:19:38.0000000+00:00</time></trkpt><trkpt lat="39.45398997" lon="-0.34810388"><ele>3.2</ele><time>2022-11-04T15:19:39.0000000+00:00</time></trkpt><trkpt lat="39.45398997" lon="-0.34810538"><ele>3.2</ele><time>2022-11-04T15:19:40.0000000+00:00</time></trkpt><trkpt lat="39.45398997" lon="-0.34810639"><ele>3.2</ele><time>2022-11-04T15:19:41.0000000+00:00</time></trkpt><trkpt lat="39.45398997" lon="-0.34810765"><ele>3.2</ele><time>2022-11-04T15:19:42.0000000+00:00</time></trkpt><trkpt lat="39.45398997" lon="-0.34810865"><ele>3.2</ele><time>2022-11-04T15:19:43.0000000+00:00</time></trkpt><trkpt lat="39.45399022" lon="-0.34811201"><ele>3.2</ele><time>2022-11-04T15:19:44.0000000+00:00</time></trkpt><trkpt lat="39.45399055" lon="-0.34811343"><ele>3.2</ele><time>2022-11-04T15:19:45.0000000+00:00</time></trkpt><trkpt lat="39.45399365" lon="-0.3481141"><ele>3.2</ele><time>2022-11-04T15:19:46.0000000+00:00</time></trkpt><trkpt lat="39.45399659" lon="-0.34811569"><ele>3.2</ele><time>2022-11-04T15:19:47.0000000+00:00</time></trkpt><trkpt lat="39.45399852" lon="-0.34812081"><ele>3.2</ele><time>2022-11-04T15:19:48.0000000+00:00</time></trkpt><trkpt lat="39.45399994" lon="-0.34812366"><ele>3.2</ele><time>2022-11-04T15:19:49.0000000+00:00</time></trkpt><trkpt lat="39.45400061" lon="-0.34812466"><ele>3.2</ele><time>2022-11-04T15:19:50.0000000+00:00</time></trkpt><trkpt lat="39.45400103" lon="-0.34812508"><ele>3.2</ele><time>2022-11-04T15:19:51.0000000+00:00</time></trkpt><trkpt lat="39.45400128" lon="-0.34812642"><ele>3.2</ele><time>2022-11-04T15:19:52.0000000+00:00</time></trkpt><trkpt lat="39.45400162" lon="-0.34812818"><ele>3.2</ele><time>2022-11-04T15:19:53.0000000+00:00</time></trkpt><trkpt lat="39.45400195" lon="-0.34813087"><ele>3.2</ele><time>2022-11-04T15:19:54.0000000+00:00</time></trkpt><trkpt lat="39.45400237" lon="-0.34813212"><ele>3.2</ele><time>2022-11-04T15:19:55.0000000+00:00</time></trkpt><trkpt lat="39.45400296" lon="-0.34813522"><ele>3.2</ele><time>2022-11-04T15:19:56.0000000+00:00</time></trkpt><trkpt lat="39.45400313" lon="-0.34813891"><ele>3.2</ele><time>2022-11-04T15:19:57.0000000+00:00</time></trkpt><trkpt lat="39.45400321" lon="-0.34814017"><ele>3.2</ele><time>2022-11-04T15:19:58.0000000+00:00</time></trkpt><trkpt lat="39.45400329" lon="-0.34814201"><ele>3.2</ele><time>2022-11-04T15:19:59.0000000+00:00</time></trkpt><trkpt lat="39.45400329" lon="-0.34814294"><ele>3.2</ele><time>2022-11-04T15:20:00.0000000+00:00</time></trkpt><trkpt lat="39.45400329" lon="-0.3481519"><ele>3.2</ele><time>2022-11-04T15:20:01.0000000+00:00</time></trkpt><trkpt lat="39.45400329" lon="-0.34816054"><ele>3.2</ele><time>2022-11-04T15:20:02.0000000+00:00</time></trkpt><trkpt lat="39.45400329" lon="-0.34816632"><ele>3.2</ele><time>2022-11-04T15:20:03.0000000+00:00</time></trkpt><trkpt lat="39.45400329" lon="-0.3481685"><ele>3.2</ele><time>2022-11-04T15:20:04.0000000+00:00</time></trkpt><trkpt lat="39.45400329" lon="-0.34816925"><ele>3.2</ele><time>2022-11-04T15:20:05.0000000+00:00</time></trkpt><trkpt lat="39.45400329" lon="-0.34816967"><ele>3.2</ele><time>2022-11-04T15:20:06.0000000+00:00</time></trkpt><trkpt lat="39.45400329" lon="-0.34817001"><ele>3.2</ele><time>2022-11-04T15:20:07.0000000+00:00</time></trkpt><trkpt lat="39.45400304" lon="-0.34817118"><ele>3.2</ele><time>2022-11-04T15:20:08.0000000+00:00</time></trkpt><trkpt lat="39.45400229" lon="-0.34817169"><ele>3.2</ele><time>2022-11-04T15:20:09.0000000+00:00</time></trkpt><trkpt lat="39.45400178" lon="-0.34817185"><ele>3.2</ele><time>2022-11-04T15:20:10.0000000+00:00</time></trkpt><trkpt lat="39.45400103" lon="-0.34817202"><ele>3.2</ele><time>2022-11-04T15:20:11.0000000+00:00</time></trkpt><trkpt lat="39.4540007" lon="-0.34817202"><ele>3.2</ele><time>2022-11-04T15:20:12.0000000+00:00</time></trkpt><trkpt lat="39.45399919" lon="-0.34817202"><ele>3.2</ele><time>2022-11-04T15:20:13.0000000+00:00</time></trkpt><trkpt lat="39.45399717" lon="-0.34817202"><ele>3.2</ele><time>2022-11-04T15:20:14.0000000+00:00</time></trkpt><trkpt lat="39.45399634" lon="-0.34817202"><ele>3.2</ele><time>2022-11-04T15:20:15.0000000+00:00</time></trkpt><trkpt lat="39.453996" lon="-0.34817202"><ele>3.2</ele><time>2022-11-04T15:20:16.0000000+00:00</time></trkpt><trkpt lat="39.45399583" lon="-0.34817202"><ele>3.2</ele><time>2022-11-04T15:20:17.0000000+00:00</time></trkpt><trkpt lat="39.45399617" lon="-0.34817018"><ele>3.2</ele><time>2022-11-04T15:20:18.0000000+00:00</time></trkpt><trkpt lat="39.4539965" lon="-0.34816708"><ele>3.2</ele><time>2022-11-04T15:20:19.0000000+00:00</time></trkpt><trkpt lat="39.45399173" lon="-0.34816213"><ele>3.2</ele><time>2022-11-04T15:20:20.0000000+00:00</time></trkpt><trkpt lat="39.45398829" lon="-0.34816506"><ele>3.2</ele><time>2022-11-04T15:20:21.0000000+00:00</time></trkpt><trkpt lat="39.4539851" lon="-0.34816506"><ele>3.2</ele><time>2022-11-04T15:20:22.0000000+00:00</time></trkpt><trkpt lat="39.4539851" lon="-0.34816506"><ele>3.2</ele><time>2022-11-04T15:20:23.0000000+00:00</time></trkpt><trkpt lat="39.4539851" lon="-0.34816506"><ele>3.2</ele><time>2022-11-04T15:20:24.0000000+00:00</time></trkpt><trkpt lat="39.4539851" lon="-0.34816506"><ele>3.2</ele><time>2022-11-04T15:20:25.0000000+00:00</time></trkpt><trkpt lat="39.4539851" lon="-0.34816506"><ele>3.2</ele><time>2022-11-04T15:20:26.0000000+00:00</time></trkpt><trkpt lat="39.4539851" lon="-0.34816506"><ele>3.2</ele><time>2022-11-04T15:20:27.0000000+00:00</time></trkpt><trkpt lat="39.45398586" lon="-0.34816649"><ele>3.2</ele><time>2022-11-04T15:20:28.0000000+00:00</time></trkpt><trkpt lat="39.45398728" lon="-0.34816071"><ele>3.2</ele><time>2022-11-04T15:20:29.0000000+00:00</time></trkpt><trkpt lat="39.45398854" lon="-0.34815718"><ele>3.2</ele><time>2022-11-04T15:20:30.0000000+00:00</time></trkpt><trkpt lat="39.45398837" lon="-0.34815551"><ele>3.2</ele><time>2022-11-04T15:20:31.0000000+00:00</time></trkpt><trkpt lat="39.45398829" lon="-0.34815559"><ele>3.2</ele><time>2022-11-04T15:20:32.0000000+00:00</time></trkpt><trkpt lat="39.45398712" lon="-0.34815433"><ele>3.2</ele><time>2022-11-04T15:20:33.0000000+00:00</time></trkpt><trkpt lat="39.45398728" lon="-0.34815442"><ele>3.2</ele><time>2022-11-04T15:20:34.0000000+00:00</time></trkpt><trkpt lat="39.45398921" lon="-0.34815467"><ele>3.2</ele><time>2022-11-04T15:20:35.0000000+00:00</time></trkpt><trkpt lat="39.45399265" lon="-0.34815903"><ele>3.2</ele><time>2022-11-04T15:20:36.0000000+00:00</time></trkpt><trkpt lat="39.45399064" lon="-0.34816397"><ele>3.2</ele><time>2022-11-04T15:20:37.0000000+00:00</time></trkpt><trkpt lat="39.45398821" lon="-0.3481649"><ele>3.2</ele><time>2022-11-04T15:20:38.0000000+00:00</time></trkpt><trkpt lat="39.45398687" lon="-0.34816666"><ele>3.2</ele><time>2022-11-04T15:20:39.0000000+00:00</time></trkpt><trkpt lat="39.45398687" lon="-0.34816666"><ele>3.2</ele><time>2022-11-04T15:20:40.0000000+00:00</time></trkpt><trkpt lat="39.45398687" lon="-0.34816666"><ele>3.2</ele><time>2022-11-04T15:20:41.0000000+00:00</time></trkpt><trkpt lat="39.45398687" lon="-0.34816666"><ele>3.2</ele><time>2022-11-04T15:20:42.0000000+00:00</time></trkpt><trkpt lat="39.45398687" lon="-0.34816666"><ele>3.2</ele><time>2022-11-04T15:20:43.0000000+00:00</time></trkpt><trkpt lat="39.45398687" lon="-0.34816666"><ele>3.2</ele><time>2022-11-04T15:20:44.0000000+00:00</time></trkpt><trkpt lat="39.45398687" lon="-0.34816666"><ele>3.2</ele><time>2022-11-04T15:20:45.0000000+00:00</time></trkpt><trkpt lat="39.45398687" lon="-0.34816666"><ele>3.2</ele><time>2022-11-04T15:20:46.0000000+00:00</time></trkpt><trkpt lat="39.4539872" lon="-0.34816666"><ele>3.2</ele><time>2022-11-04T15:20:47.0000000+00:00</time></trkpt><trkpt lat="39.45398863" lon="-0.34816657"><ele>3.2</ele><time>2022-11-04T15:20:48.0000000+00:00</time></trkpt><trkpt lat="39.45399256" lon="-0.34816431"><ele>3.2</ele><time>2022-11-04T15:20:49.0000000+00:00</time></trkpt><trkpt lat="39.45399508" lon="-0.34815844"><ele>3.2</ele><time>2022-11-04T15:20:50.0000000+00:00</time></trkpt><trkpt lat="39.45399726" lon="-0.34815936"><ele>3.2</ele><time>2022-11-04T15:20:51.0000000+00:00</time></trkpt><trkpt lat="39.45399558" lon="-0.34815509"><ele>3.2</ele><time>2022-11-04T15:20:52.0000000+00:00</time></trkpt><trkpt lat="39.45399458" lon="-0.3481545"><ele>3.2</ele><time>2022-11-04T15:20:53.0000000+00:00</time></trkpt><trkpt lat="39.45399667" lon="-0.3481592"><ele>3.2</ele><time>2022-11-04T15:20:54.0000000+00:00</time></trkpt><trkpt lat="39.45399868" lon="-0.34816205"><ele>3.2</ele><time>2022-11-04T15:20:55.0000000+00:00</time></trkpt><trkpt lat="39.45400128" lon="-0.34816364"><ele>3.2</ele><time>2022-11-04T15:20:56.0000000+00:00</time></trkpt><trkpt lat="39.45400472" lon="-0.34816255"><ele>3.2</ele><time>2022-11-04T15:20:57.0000000+00:00</time></trkpt><trkpt lat="39.45400472" lon="-0.34816347"><ele>3.2</ele><time>2022-11-04T15:20:58.0000000+00:00</time></trkpt><trkpt lat="39.4540022" lon="-0.34815878"><ele>3.2</ele><time>2022-11-04T15:20:59.0000000+00:00</time></trkpt><trkpt lat="39.45399902" lon="-0.34815056"><ele>3.2</ele><time>2022-11-04T15:21:00.0000000+00:00</time></trkpt><trkpt lat="39.4540007" lon="-0.34814344"><ele>3.2</ele><time>2022-11-04T15:21:01.0000000+00:00</time></trkpt><trkpt lat="39.45400019" lon="-0.3481374"><ele>3.2</ele><time>2022-11-04T15:21:02.0000000+00:00</time></trkpt><trkpt lat="39.45399961" lon="-0.34813187"><ele>3.2</ele><time>2022-11-04T15:21:03.0000000+00:00</time></trkpt><trkpt lat="39.4540007" lon="-0.34813279"><ele>3.2</ele><time>2022-11-04T15:21:04.0000000+00:00</time></trkpt><trkpt lat="39.4540048" lon="-0.34813925"><ele>3.2</ele><time>2022-11-04T15:21:05.0000000+00:00</time></trkpt><trkpt lat="39.45401159" lon="-0.34815551"><ele>3.2</ele><time>2022-11-04T15:21:06.0000000+00:00</time></trkpt><trkpt lat="39.45401746" lon="-0.3481737"><ele>3.2</ele><time>2022-11-04T15:21:07.0000000+00:00</time></trkpt><trkpt lat="39.45402098" lon="-0.34817839"><ele>3.2</ele><time>2022-11-04T15:21:08.0000000+00:00</time></trkpt><trkpt lat="39.45402073" lon="-0.3481778"><ele>3.2</ele><time>2022-11-04T15:21:09.0000000+00:00</time></trkpt><trkpt lat="39.45402031" lon="-0.34817604"><ele>3.2</ele><time>2022-11-04T15:21:10.0000000+00:00</time></trkpt><trkpt lat="39.45401712" lon="-0.34817135"><ele>3.2</ele><time>2022-11-04T15:21:11.0000000+00:00</time></trkpt><trkpt lat="39.45401377" lon="-0.34816775"><ele>3.2</ele><time>2022-11-04T15:21:12.0000000+00:00</time></trkpt><trkpt lat="39.45400899" lon="-0.34816423"><ele>3.2</ele><time>2022-11-04T15:21:13.0000000+00:00</time></trkpt><trkpt lat="39.4540069" lon="-0.34816104"><ele>3.2</ele><time>2022-11-04T15:21:14.0000000+00:00</time></trkpt><trkpt lat="39.45400648" lon="-0.34815853"><ele>3.2</ele><time>2022-11-04T15:21:15.0000000+00:00</time></trkpt><trkpt lat="39.45400514" lon="-0.34815501"><ele>3.2</ele><time>2022-11-04T15:21:16.0000000+00:00</time></trkpt><trkpt lat="39.45400405" lon="-0.34815216"><ele>3.2</ele><time>2022-11-04T15:21:17.0000000+00:00</time></trkpt><trkpt lat="39.45400405" lon="-0.34815358"><ele>3.2</ele><time>2022-11-04T15:21:18.0000000+00:00</time></trkpt><trkpt lat="39.45400656" lon="-0.34815559"><ele>3.2</ele><time>2022-11-04T15:21:19.0000000+00:00</time></trkpt><trkpt lat="39.45400774" lon="-0.348154"><ele>3.2</ele><time>2022-11-04T15:21:20.0000000+00:00</time></trkpt><trkpt lat="39.45400455" lon="-0.34814956"><ele>3.2</ele><time>2022-11-04T15:21:21.0000000+00:00</time></trkpt><trkpt lat="39.45399701" lon="-0.34813564"><ele>3.2</ele><time>2022-11-04T15:21:22.0000000+00:00</time></trkpt><trkpt lat="39.45399089" lon="-0.34812324"><ele>3.2</ele><time>2022-11-04T15:21:23.0000000+00:00</time></trkpt><trkpt lat="39.45398913" lon="-0.34811729"><ele>3.2</ele><time>2022-11-04T15:21:24.0000000+00:00</time></trkpt><trkpt lat="39.45399248" lon="-0.34811569"><ele>3.2</ele><time>2022-11-04T15:21:25.0000000+00:00</time></trkpt><trkpt lat="39.45399885" lon="-0.34811553"><ele>3.2</ele><time>2022-11-04T15:21:26.0000000+00:00</time></trkpt><trkpt lat="39.45400547" lon="-0.34812215"><ele>3.2</ele><time>2022-11-04T15:21:27.0000000+00:00</time></trkpt><trkpt lat="39.45401377" lon="-0.34813221"><ele>3.2</ele><time>2022-11-04T15:21:28.0000000+00:00</time></trkpt><trkpt lat="39.45401595" lon="-0.34813682"><ele>3.2</ele><time>2022-11-04T15:21:29.0000000+00:00</time></trkpt><trkpt lat="39.45401696" lon="-0.34813874"><ele>3.2</ele><time>2022-11-04T15:21:30.0000000+00:00</time></trkpt><trkpt lat="39.45401587" lon="-0.34813724"><ele>3.2</ele><time>2022-11-04T15:21:31.0000000+00:00</time></trkpt><trkpt lat="39.45401536" lon="-0.34813816"><ele>3.2</ele><time>2022-11-04T15:21:32.0000000+00:00</time></trkpt><trkpt lat="39.4540157" lon="-0.34814109"><ele>3.2</ele><time>2022-11-04T15:21:33.0000000+00:00</time></trkpt><trkpt lat="39.45401553" lon="-0.34814218"><ele>3.2</ele><time>2022-11-04T15:21:34.0000000+00:00</time></trkpt><trkpt lat="39.45401427" lon="-0.34814193"><ele>3.2</ele><time>2022-11-04T15:21:35.0000000+00:00</time></trkpt><trkpt lat="39.45401209" lon="-0.34814176"><ele>3.2</ele><time>2022-11-04T15:21:36.0000000+00:00</time></trkpt><trkpt lat="39.45400757" lon="-0.34813196"><ele>3.2</ele><time>2022-11-04T15:21:37.0000000+00:00</time></trkpt><trkpt lat="39.45400581" lon="-0.348125"><ele>3.2</ele><time>2022-11-04T15:21:38.0000000+00:00</time></trkpt><trkpt lat="39.45401042" lon="-0.34813019"><ele>3.2</ele><time>2022-11-04T15:21:39.0000000+00:00</time></trkpt><trkpt lat="39.45401561" lon="-0.34813799"><ele>3.2</ele><time>2022-11-04T15:21:40.0000000+00:00</time></trkpt><trkpt lat="39.45401855" lon="-0.34814411"><ele>3.2</ele><time>2022-11-04T15:21:41.0000000+00:00</time></trkpt><trkpt lat="39.45401779" lon="-0.34814721"><ele>3.2</ele><time>2022-11-04T15:21:42.0000000+00:00</time></trkpt><trkpt lat="39.4540152" lon="-0.34814847"><ele>3.2</ele><time>2022-11-04T15:21:43.0000000+00:00</time></trkpt><trkpt lat="39.4540152" lon="-0.34814872"><ele>3.2</ele><time>2022-11-04T15:21:44.0000000+00:00</time></trkpt><trkpt lat="39.45401662" lon="-0.34814838"><ele>3.2</ele><time>2022-11-04T15:21:45.0000000+00:00</time></trkpt><trkpt lat="39.45401662" lon="-0.34814838"><ele>3.2</ele><time>2022-11-04T15:21:46.0000000+00:00</time></trkpt><trkpt lat="39.45401662" lon="-0.34814838"><ele>3.2</ele><time>2022-11-04T15:21:47.0000000+00:00</time></trkpt><trkpt lat="39.45401662" lon="-0.34814838"><ele>3.2</ele><time>2022-11-04T15:21:48.0000000+00:00</time></trkpt><trkpt lat="39.45401662" lon="-0.34814838"><ele>3.2</ele><time>2022-11-04T15:21:49.0000000+00:00</time></trkpt><trkpt lat="39.45401662" lon="-0.34814838"><ele>3.2</ele><time>2022-11-04T15:21:50.0000000+00:00</time></trkpt><trkpt lat="39.45401662" lon="-0.34814838"><ele>3.2</ele><time>2022-11-04T15:21:51.0000000+00:00</time></trkpt><trkpt lat="39.45401662" lon="-0.34814838"><ele>3.2</ele><time>2022-11-04T15:21:52.0000000+00:00</time></trkpt><trkpt lat="39.45401662" lon="-0.34814838"><ele>3.2</ele><time>2022-11-04T15:21:53.0000000+00:00</time></trkpt><trkpt lat="39.45401662" lon="-0.34814838"><ele>3.2</ele><time>2022-11-04T15:21:54.0000000+00:00</time></trkpt><trkpt lat="39.45401662" lon="-0.34814838"><ele>3.2</ele><time>2022-11-04T15:21:55.0000000+00:00</time></trkpt><trkpt lat="39.45401662" lon="-0.34814838"><ele>3.2</ele><time>2022-11-04T15:21:56.0000000+00:00</time></trkpt><trkpt lat="39.45401662" lon="-0.34814838"><ele>3.2</ele><time>2022-11-04T15:21:57.0000000+00:00</time></trkpt><trkpt lat="39.45401662" lon="-0.34814838"><ele>3.2</ele><time>2022-11-04T15:21:58.0000000+00:00</time></trkpt><trkpt lat="39.45401721" lon="-0.34814838"><ele>3.2</ele><time>2022-11-04T15:21:59.0000000+00:00</time></trkpt><trkpt lat="39.45401721" lon="-0.34814805"><ele>3.2</ele><time>2022-11-04T15:22:00.0000000+00:00</time></trkpt><trkpt lat="39.45401729" lon="-0.34814729"><ele>3.2</ele><time>2022-11-04T15:22:01.0000000+00:00</time></trkpt><trkpt lat="39.45401729" lon="-0.34814629"><ele>3.2</ele><time>2022-11-04T15:22:02.0000000+00:00</time></trkpt><trkpt lat="39.45401729" lon="-0.34814553"><ele>3.2</ele><time>2022-11-04T15:22:03.0000000+00:00</time></trkpt><trkpt lat="39.45401729" lon="-0.34814428"><ele>3.2</ele><time>2022-11-04T15:22:04.0000000+00:00</time></trkpt><trkpt lat="39.45401729" lon="-0.34814327"><ele>3.2</ele><time>2022-11-04T15:22:05.0000000+00:00</time></trkpt><trkpt lat="39.45401729" lon="-0.34813849"><ele>3.2</ele><time>2022-11-04T15:22:06.0000000+00:00</time></trkpt><trkpt lat="39.45401729" lon="-0.34813807"><ele>3.2</ele><time>2022-11-04T15:22:07.0000000+00:00</time></trkpt><trkpt lat="39.45401729" lon="-0.34813799"><ele>3.2</ele><time>2022-11-04T15:22:08.0000000+00:00</time></trkpt><trkpt lat="39.45401729" lon="-0.34813799"><ele>3.2</ele><time>2022-11-04T15:22:09.0000000+00:00</time></trkpt><trkpt lat="39.45401729" lon="-0.34813497"><ele>3.2</ele><time>2022-11-04T15:22:10.0000000+00:00</time></trkpt><trkpt lat="39.4540167" lon="-0.34813053"><ele>3.2</ele><time>2022-11-04T15:22:11.0000000+00:00</time></trkpt><trkpt lat="39.45401637" lon="-0.34812785"><ele>3.2</ele><time>2022-11-04T15:22:12.0000000+00:00</time></trkpt><trkpt lat="39.45401637" lon="-0.348125"><ele>3.2</ele><time>2022-11-04T15:22:13.0000000+00:00</time></trkpt><trkpt lat="39.45401637" lon="-0.34812282"><ele>3.2</ele><time>2022-11-04T15:22:14.0000000+00:00</time></trkpt><trkpt lat="39.45401637" lon="-0.34812232"><ele>3.2</ele><time>2022-11-04T15:22:15.0000000+00:00</time></trkpt><trkpt lat="39.45401561" lon="-0.34812181"><ele>3.2</ele><time>2022-11-04T15:22:16.0000000+00:00</time></trkpt><trkpt lat="39.45401436" lon="-0.34812039"><ele>3.2</ele><time>2022-11-04T15:22:17.0000000+00:00</time></trkpt><trkpt lat="39.45401385" lon="-0.3481188"><ele>3.2</ele><time>2022-11-04T15:22:18.0000000+00:00</time></trkpt><trkpt lat="39.45401184" lon="-0.34811536"><ele>3.2</ele><time>2022-11-04T15:22:19.0000000+00:00</time></trkpt><trkpt lat="39.45401067" lon="-0.34811301"><ele>3.2</ele><time>2022-11-04T15:22:20.0000000+00:00</time></trkpt><trkpt lat="39.4540095" lon="-0.34811092"><ele>3.2</ele><time>2022-11-04T15:22:21.0000000+00:00</time></trkpt><trkpt lat="39.45400572" lon="-0.34810823"><ele>3.2</ele><time>2022-11-04T15:22:22.0000000+00:00</time></trkpt><trkpt lat="39.45399902" lon="-0.34809885"><ele>3.2</ele><time>2022-11-04T15:22:23.0000000+00:00</time></trkpt><trkpt lat="39.45399491" lon="-0.34809256"><ele>3.2</ele><time>2022-11-04T15:22:24.0000000+00:00</time></trkpt><trkpt lat="39.45399391" lon="-0.34809072"><ele>3.2</ele><time>2022-11-04T15:22:25.0000000+00:00</time></trkpt><trkpt lat="39.45399357" lon="-0.34808912"><ele>3.2</ele><time>2022-11-04T15:22:26.0000000+00:00</time></trkpt><trkpt lat="39.45399265" lon="-0.34808736"><ele>3.2</ele><time>2022-11-04T15:22:27.0000000+00:00</time></trkpt><trkpt lat="39.45399148" lon="-0.34808518"><ele>3.2</ele><time>2022-11-04T15:22:28.0000000+00:00</time></trkpt><trkpt lat="39.45399064" lon="-0.34808183"><ele>3.2</ele><time>2022-11-04T15:22:29.0000000+00:00</time></trkpt><trkpt lat="39.4539898" lon="-0.34807915"><ele>3.2</ele><time>2022-11-04T15:22:30.0000000+00:00</time></trkpt><trkpt lat="39.45398963" lon="-0.34807756"><ele>3.2</ele><time>2022-11-04T15:22:31.0000000+00:00</time></trkpt><trkpt lat="39.45398955" lon="-0.34807085"><ele>3.2</ele><time>2022-11-04T15:22:32.0000000+00:00</time></trkpt><trkpt lat="39.45398628" lon="-0.34806482"><ele>3.2</ele><time>2022-11-04T15:22:33.0000000+00:00</time></trkpt><trkpt lat="39.45398376" lon="-0.34806255"><ele>3.2</ele><time>2022-11-04T15:22:34.0000000+00:00</time></trkpt><trkpt lat="39.45398184" lon="-0.3480597"><ele>3.2</ele><time>2022-11-04T15:22:35.0000000+00:00</time></trkpt><trkpt lat="39.45397932" lon="-0.34805744"><ele>3.2</ele><time>2022-11-04T15:22:36.0000000+00:00</time></trkpt><trkpt lat="39.45397748" lon="-0.34805283"><ele>3.2</ele><time>2022-11-04T15:22:37.0000000+00:00</time></trkpt><trkpt lat="39.45397362" lon="-0.34804361"><ele>3.2</ele><time>2022-11-04T15:22:38.0000000+00:00</time></trkpt><trkpt lat="39.45397044" lon="-0.34804009"><ele>3.2</ele><time>2022-11-04T15:22:39.0000000+00:00</time></trkpt><trkpt lat="39.45396725" lon="-0.3480359"><ele>3.2</ele><time>2022-11-04T15:22:40.0000000+00:00</time></trkpt><trkpt lat="39.45396599" lon="-0.34803447"><ele>3.2</ele><time>2022-11-04T15:22:41.0000000+00:00</time></trkpt><trkpt lat="39.45396558" lon="-0.34802986"><ele>3.2</ele><time>2022-11-04T15:22:42.0000000+00:00</time></trkpt><trkpt lat="39.45396532" lon="-0.34802802"><ele>3.2</ele><time>2022-11-04T15:22:43.0000000+00:00</time></trkpt><trkpt lat="39.45396499" lon="-0.34802685"><ele>3.2</ele><time>2022-11-04T15:22:44.0000000+00:00</time></trkpt><trkpt lat="39.45396465" lon="-0.34802618"><ele>3.2</ele><time>2022-11-04T15:22:45.0000000+00:00</time></trkpt><trkpt lat="39.45396432" lon="-0.34802559"><ele>3.2</ele><time>2022-11-04T15:22:46.0000000+00:00</time></trkpt><trkpt lat="39.45396289" lon="-0.348025"><ele>3.2</ele><time>2022-11-04T15:22:47.0000000+00:00</time></trkpt><trkpt lat="39.45396105" lon="-0.3480245"><ele>3.2</ele><time>2022-11-04T15:22:48.0000000+00:00</time></trkpt><trkpt lat="39.45396046" lon="-0.34802416"><ele>3.2</ele><time>2022-11-04T15:22:49.0000000+00:00</time></trkpt><trkpt lat="39.45395937" lon="-0.34802333"><ele>3.2</ele><time>2022-11-04T15:22:50.0000000+00:00</time></trkpt><trkpt lat="39.45395803" lon="-0.34802014"><ele>3.2</ele><time>2022-11-04T15:22:51.0000000+00:00</time></trkpt><trkpt lat="39.45395711" lon="-0.34801729"><ele>3.2</ele><time>2022-11-04T15:22:52.0000000+00:00</time></trkpt><trkpt lat="39.45395401" lon="-0.34801595"><ele>3.2</ele><time>2022-11-04T15:22:53.0000000+00:00</time></trkpt><trkpt lat="39.45395007" lon="-0.34801536"><ele>3.2</ele><time>2022-11-04T15:22:54.0000000+00:00</time></trkpt><trkpt lat="39.45394437" lon="-0.34801285"><ele>3.2</ele><time>2022-11-04T15:22:55.0000000+00:00</time></trkpt><trkpt lat="39.45393574" lon="-0.34801167"><ele>3.2</ele><time>2022-11-04T15:22:56.0000000+00:00</time></trkpt><trkpt lat="39.45392978" lon="-0.34801276"><ele>3.2</ele><time>2022-11-04T15:22:57.0000000+00:00</time></trkpt><trkpt lat="39.45392618" lon="-0.3480126"><ele>3.2</ele><time>2022-11-04T15:22:58.0000000+00:00</time></trkpt><trkpt lat="39.45391587" lon="-0.34800866"><ele>3.2</ele><time>2022-11-04T15:22:59.0000000+00:00</time></trkpt><trkpt lat="39.45390548" lon="-0.34800665"><ele>3.2</ele><time>2022-11-04T15:23:00.0000000+00:00</time></trkpt><trkpt lat="39.45388947" lon="-0.3479955"><ele>3.2</ele><time>2022-11-04T15:23:01.0000000+00:00</time></trkpt><trkpt lat="39.45387203" lon="-0.34799013"><ele>3.2</ele><time>2022-11-04T15:23:02.0000000+00:00</time></trkpt><trkpt lat="39.45385091" lon="-0.34798804"><ele>3.2</ele><time>2022-11-04T15:23:03.0000000+00:00</time></trkpt><trkpt lat="39.45384219" lon="-0.34799206"><ele>3.2</ele><time>2022-11-04T15:23:04.0000000+00:00</time></trkpt><trkpt lat="39.45383733" lon="-0.34799902"><ele>3.2</ele><time>2022-11-04T15:23:05.0000000+00:00</time></trkpt><trkpt lat="39.4538339" lon="-0.34800329"><ele>3.2</ele><time>2022-11-04T15:23:06.0000000+00:00</time></trkpt><trkpt lat="39.4538256" lon="-0.34800061"><ele>3.2</ele><time>2022-11-04T15:23:07.0000000+00:00</time></trkpt><trkpt lat="39.45381621" lon="-0.34799776"><ele>3.2</ele><time>2022-11-04T15:23:08.0000000+00:00</time></trkpt><trkpt lat="39.45380791" lon="-0.34799122"><ele>3.2</ele><time>2022-11-04T15:23:09.0000000+00:00</time></trkpt><trkpt lat="39.45379995" lon="-0.34798779"><ele>3.2</ele><time>2022-11-04T15:23:10.0000000+00:00</time></trkpt><trkpt lat="39.45379349" lon="-0.34798561"><ele>3.4</ele><time>2022-11-04T15:23:11.0000000+00:00</time></trkpt><trkpt lat="39.45378838" lon="-0.34798016"><ele>3.4</ele><time>2022-11-04T15:23:12.0000000+00:00</time></trkpt><trkpt lat="39.45378352" lon="-0.34797689"><ele>3.6</ele><time>2022-11-04T15:23:13.0000000+00:00</time></trkpt><trkpt lat="39.45378151" lon="-0.3479737"><ele>3.6</ele><time>2022-11-04T15:23:14.0000000+00:00</time></trkpt><trkpt lat="39.45377933" lon="-0.34797295"><ele>3.6</ele><time>2022-11-04T15:23:15.0000000+00:00</time></trkpt><trkpt lat="39.45377631" lon="-0.34797572"><ele>3.6</ele><time>2022-11-04T15:23:16.0000000+00:00</time></trkpt><trkpt lat="39.45377296" lon="-0.34797655"><ele>3.6</ele><time>2022-11-04T15:23:17.0000000+00:00</time></trkpt><trkpt lat="39.45376759" lon="-0.34797605"><ele>3.6</ele><time>2022-11-04T15:23:18.0000000+00:00</time></trkpt><trkpt lat="39.45377095" lon="-0.34798184"><ele>3.6</ele><time>2022-11-04T15:23:19.0000000+00:00</time></trkpt><trkpt lat="39.45377698" lon="-0.34798603"><ele>3.6</ele><time>2022-11-04T15:23:20.0000000+00:00</time></trkpt><trkpt lat="39.45378142" lon="-0.3479898"><ele>3.6</ele><time>2022-11-04T15:23:21.0000000+00:00</time></trkpt><trkpt lat="39.4537893" lon="-0.34799416"><ele>3.6</ele><time>2022-11-04T15:23:22.0000000+00:00</time></trkpt><trkpt lat="39.45379458" lon="-0.34799357"><ele>3.6</ele><time>2022-11-04T15:23:23.0000000+00:00</time></trkpt><trkpt lat="39.45380439" lon="-0.34799776"><ele>3.6</ele><time>2022-11-04T15:23:24.0000000+00:00</time></trkpt><trkpt lat="39.45380791" lon="-0.34799491"><ele>3.6</ele><time>2022-11-04T15:23:25.0000000+00:00</time></trkpt><trkpt lat="39.4538168" lon="-0.34800078"><ele>3.6</ele><time>2022-11-04T15:23:26.0000000+00:00</time></trkpt><trkpt lat="39.45383004" lon="-0.3480131"><ele>3.4</ele><time>2022-11-04T15:23:27.0000000+00:00</time></trkpt><trkpt lat="39.45384412" lon="-0.34803154"><ele>3.4</ele><time>2022-11-04T15:23:28.0000000+00:00</time></trkpt><trkpt lat="39.45386834" lon="-0.3480556"><ele>3.4</ele><time>2022-11-04T15:23:29.0000000+00:00</time></trkpt><trkpt lat="39.45388553" lon="-0.34806733"><ele>3.4</ele><time>2022-11-04T15:23:30.0000000+00:00</time></trkpt><trkpt lat="39.45390455" lon="-0.34808057"><ele>3.4</ele><time>2022-11-04T15:23:31.0000000+00:00</time></trkpt><trkpt lat="39.45392098" lon="-0.34807957"><ele>3.4</ele><time>2022-11-04T15:23:32.0000000+00:00</time></trkpt><trkpt lat="39.45393523" lon="-0.34807881"><ele>3.4</ele><time>2022-11-04T15:23:33.0000000+00:00</time></trkpt><trkpt lat="39.45394521" lon="-0.34807647"><ele>3.4</ele><time>2022-11-04T15:23:34.0000000+00:00</time></trkpt><trkpt lat="39.45395258" lon="-0.34807513"><ele>3.4</ele><time>2022-11-04T15:23:35.0000000+00:00</time></trkpt><trkpt lat="39.45395635" lon="-0.34807429"><ele>3.4</ele><time>2022-11-04T15:23:36.0000000+00:00</time></trkpt><trkpt lat="39.45395367" lon="-0.34807202"><ele>3.4</ele><time>2022-11-04T15:23:37.0000000+00:00</time></trkpt><trkpt lat="39.45395082" lon="-0.34806599"><ele>3.4</ele><time>2022-11-04T15:23:38.0000000+00:00</time></trkpt><trkpt lat="39.45394571" lon="-0.3480587"><ele>3.4</ele><time>2022-11-04T15:23:39.0000000+00:00</time></trkpt><trkpt lat="39.45394747" lon="-0.34805995"><ele>3.4</ele><time>2022-11-04T15:23:40.0000000+00:00</time></trkpt><trkpt lat="39.45395149" lon="-0.34806113"><ele>3.4</ele><time>2022-11-04T15:23:41.0000000+00:00</time></trkpt><trkpt lat="39.45396038" lon="-0.34806909"><ele>3.6</ele><time>2022-11-04T15:23:42.0000000+00:00</time></trkpt><trkpt lat="39.45396541" lon="-0.34806934"><ele>3.6</ele><time>2022-11-04T15:23:43.0000000+00:00</time></trkpt><trkpt lat="39.45396977" lon="-0.34806917"><ele>3.6</ele><time>2022-11-04T15:23:44.0000000+00:00</time></trkpt><trkpt lat="39.45397739" lon="-0.34807454"><ele>3.6</ele><time>2022-11-04T15:23:45.0000000+00:00</time></trkpt><trkpt lat="39.45398494" lon="-0.3480794"><ele>3.6</ele><time>2022-11-04T15:23:46.0000000+00:00</time></trkpt><trkpt lat="39.45399064" lon="-0.34808208"><ele>3.6</ele><time>2022-11-04T15:23:47.0000000+00:00</time></trkpt><trkpt lat="39.45399491" lon="-0.34808292"><ele>3.6</ele><time>2022-11-04T15:23:48.0000000+00:00</time></trkpt><trkpt lat="39.45399458" lon="-0.34807814"><ele>3.6</ele><time>2022-11-04T15:23:49.0000000+00:00</time></trkpt><trkpt lat="39.45399173" lon="-0.3480706"><ele>3.6</ele><time>2022-11-04T15:23:50.0000000+00:00</time></trkpt><trkpt lat="39.45399047" lon="-0.34807211"><ele>3.6</ele><time>2022-11-04T15:23:51.0000000+00:00</time></trkpt><trkpt lat="39.45399416" lon="-0.34807504"><ele>3.6</ele><time>2022-11-04T15:23:52.0000000+00:00</time></trkpt><trkpt lat="39.45399684" lon="-0.34807756"><ele>3.4</ele><time>2022-11-04T15:23:53.0000000+00:00</time></trkpt><trkpt lat="39.45400095" lon="-0.34808435"><ele>3.4</ele><time>2022-11-04T15:23:54.0000000+00:00</time></trkpt><trkpt lat="39.45400556" lon="-0.34808929"><ele>3.4</ele><time>2022-11-04T15:23:55.0000000+00:00</time></trkpt><trkpt lat="39.45400841" lon="-0.34809256"><ele>3.4</ele><time>2022-11-04T15:23:56.0000000+00:00</time></trkpt><trkpt lat="39.45401536" lon="-0.34808812"><ele>3.4</ele><time>2022-11-04T15:23:57.0000000+00:00</time></trkpt><trkpt lat="39.45402333" lon="-0.34809331"><ele>3.4</ele><time>2022-11-04T15:23:58.0000000+00:00</time></trkpt><trkpt lat="39.45402157" lon="-0.34808175"><ele>3.4</ele><time>2022-11-04T15:23:59.0000000+00:00</time></trkpt><trkpt lat="39.45402056" lon="-0.34808007"><ele>3.4</ele><time>2022-11-04T15:24:00.0000000+00:00</time></trkpt><trkpt lat="39.45401453" lon="-0.34807311"><ele>3.4</ele><time>2022-11-04T15:24:01.0000000+00:00</time></trkpt><trkpt lat="39.45400665" lon="-0.3480597"><ele>3.4</ele><time>2022-11-04T15:24:02.0000000+00:00</time></trkpt><trkpt lat="39.45400455" lon="-0.34805568"><ele>3.4</ele><time>2022-11-04T15:24:03.0000000+00:00</time></trkpt><trkpt lat="39.45400137" lon="-0.34804881"><ele>3.6</ele><time>2022-11-04T15:24:04.0000000+00:00</time></trkpt><trkpt lat="39.45399801" lon="-0.3480411"><ele>3.6</ele><time>2022-11-04T15:24:05.0000000+00:00</time></trkpt><trkpt lat="39.4539924" lon="-0.34803255"><ele>3.6</ele><time>2022-11-04T15:24:06.0000000+00:00</time></trkpt><trkpt lat="39.45399089" lon="-0.34803305"><ele>3.6</ele><time>2022-11-04T15:24:07.0000000+00:00</time></trkpt><trkpt lat="39.45398863" lon="-0.34803615"><ele>3.6</ele><time>2022-11-04T15:24:08.0000000+00:00</time></trkpt><trkpt lat="39.45399148" lon="-0.34804571"><ele>3.6</ele><time>2022-11-04T15:24:09.0000000+00:00</time></trkpt><trkpt lat="39.45399391" lon="-0.34805266"><ele>3.6</ele><time>2022-11-04T15:24:10.0000000+00:00</time></trkpt><trkpt lat="39.45399441" lon="-0.34805685"><ele>3.6</ele><time>2022-11-04T15:24:11.0000000+00:00</time></trkpt><trkpt lat="39.4539929" lon="-0.34806121"><ele>3.6</ele><time>2022-11-04T15:24:12.0000000+00:00</time></trkpt><trkpt lat="39.45399198" lon="-0.34806649"><ele>3.6</ele><time>2022-11-04T15:24:13.0000000+00:00</time></trkpt><trkpt lat="39.45399491" lon="-0.34806783"><ele>3.6</ele><time>2022-11-04T15:24:14.0000000+00:00</time></trkpt><trkpt lat="39.45399977" lon="-0.34807236"><ele>3.6</ele><time>2022-11-04T15:24:15.0000000+00:00</time></trkpt><trkpt lat="39.45399977" lon="-0.34807236"><ele>3.6</ele><time>2022-11-04T15:24:16.0000000+00:00</time></trkpt><trkpt lat="39.45399977" lon="-0.34807236"><ele>3.4</ele><time>2022-11-04T15:24:17.0000000+00:00</time></trkpt><trkpt lat="39.45399977" lon="-0.34807236"><ele>3.4</ele><time>2022-11-04T15:24:18.0000000+00:00</time></trkpt><trkpt lat="39.45399977" lon="-0.34807236"><ele>3.8</ele><time>2022-11-04T15:24:19.0000000+00:00</time></trkpt><trkpt lat="39.45399977" lon="-0.34807236"><ele>3.8</ele><time>2022-11-04T15:24:20.0000000+00:00</time></trkpt><trkpt lat="39.45399977" lon="-0.34807236"><ele>3.8</ele><time>2022-11-04T15:24:21.0000000+00:00</time></trkpt><trkpt lat="39.45399977" lon="-0.34807236"><ele>3.8</ele><time>2022-11-04T15:24:22.0000000+00:00</time></trkpt><trkpt lat="39.45399977" lon="-0.34807236"><ele>3.8</ele><time>2022-11-04T15:24:23.0000000+00:00</time></trkpt><trkpt lat="39.45399977" lon="-0.34807236"><ele>3.8</ele><time>2022-11-04T15:24:24.0000000+00:00</time></trkpt><trkpt lat="39.45399977" lon="-0.34807236"><ele>3.8</ele><time>2022-11-04T15:24:25.0000000+00:00</time></trkpt><trkpt lat="39.45399977" lon="-0.34807236"><ele>3.8</ele><time>2022-11-04T15:24:26.0000000+00:00</time></trkpt><trkpt lat="39.45399977" lon="-0.34806809"><ele>3.8</ele><time>2022-11-04T15:24:27.0000000+00:00</time></trkpt><trkpt lat="39.45399977" lon="-0.34806658"><ele>3.8</ele><time>2022-11-04T15:24:28.0000000+00:00</time></trkpt><trkpt lat="39.45399977" lon="-0.34806616"><ele>3.8</ele><time>2022-11-04T15:24:29.0000000+00:00</time></trkpt><trkpt lat="39.45399977" lon="-0.34806532"><ele>3.8</ele><time>2022-11-04T15:24:30.0000000+00:00</time></trkpt><trkpt lat="39.45400044" lon="-0.34806314"><ele>3.8</ele><time>2022-11-04T15:24:31.0000000+00:00</time></trkpt><trkpt lat="39.4540017" lon="-0.34806255"><ele>3.8</ele><time>2022-11-04T15:24:32.0000000+00:00</time></trkpt><trkpt lat="39.45400338" lon="-0.34806247"><ele>3.8</ele><time>2022-11-04T15:24:33.0000000+00:00</time></trkpt><trkpt lat="39.45400371" lon="-0.34806247"><ele>3.8</ele><time>2022-11-04T15:24:34.0000000+00:00</time></trkpt><trkpt lat="39.45400371" lon="-0.34806213"><ele>3.8</ele><time>2022-11-04T15:24:35.0000000+00:00</time></trkpt><trkpt lat="39.45400371" lon="-0.3480613"><ele>3.8</ele><time>2022-11-04T15:24:36.0000000+00:00</time></trkpt><trkpt lat="39.45400371" lon="-0.34806197"><ele>3.8</ele><time>2022-11-04T15:24:37.0000000+00:00</time></trkpt><trkpt lat="39.45400371" lon="-0.34806205"><ele>3.8</ele><time>2022-11-04T15:24:38.0000000+00:00</time></trkpt><trkpt lat="39.45400371" lon="-0.34806205"><ele>3.8</ele><time>2022-11-04T15:24:39.0000000+00:00</time></trkpt><trkpt lat="39.45400371" lon="-0.34806205"><ele>3.8</ele><time>2022-11-04T15:24:40.0000000+00:00</time></trkpt><trkpt lat="39.45400371" lon="-0.34806205"><ele>3.8</ele><time>2022-11-04T15:24:41.0000000+00:00</time></trkpt><trkpt lat="39.45400371" lon="-0.34806205"><ele>3.8</ele><time>2022-11-04T15:24:42.0000000+00:00</time></trkpt><trkpt lat="39.45400371" lon="-0.34806071"><ele>3.8</ele><time>2022-11-04T15:24:43.0000000+00:00</time></trkpt><trkpt lat="39.45400371" lon="-0.34805962"><ele>3.8</ele><time>2022-11-04T15:24:44.0000000+00:00</time></trkpt><trkpt lat="39.45400371" lon="-0.34805954"><ele>3.8</ele><time>2022-11-04T15:24:45.0000000+00:00</time></trkpt><trkpt lat="39.45400371" lon="-0.34805945"><ele>3.8</ele><time>2022-11-04T15:24:46.0000000+00:00</time></trkpt><trkpt lat="39.45400371" lon="-0.34805945"><ele>3.8</ele><time>2022-11-04T15:24:47.0000000+00:00</time></trkpt><trkpt lat="39.45400371" lon="-0.34805945"><ele>3.8</ele><time>2022-11-04T15:24:48.0000000+00:00</time></trkpt><trkpt lat="39.45400355" lon="-0.34805945"><ele>3.8</ele><time>2022-11-04T15:24:49.0000000+00:00</time></trkpt><trkpt lat="39.45400338" lon="-0.34805945"><ele>3.8</ele><time>2022-11-04T15:24:50.0000000+00:00</time></trkpt><trkpt lat="39.45400313" lon="-0.34805945"><ele>3.8</ele><time>2022-11-04T15:24:51.0000000+00:00</time></trkpt><trkpt lat="39.45399977" lon="-0.34805912"><ele>3.8</ele><time>2022-11-04T15:24:52.0000000+00:00</time></trkpt><trkpt lat="39.45399667" lon="-0.34805853"><ele>3.8</ele><time>2022-11-04T15:24:53.0000000+00:00</time></trkpt><trkpt lat="39.45399416" lon="-0.34805828"><ele>3.8</ele><time>2022-11-04T15:24:54.0000000+00:00</time></trkpt><trkpt lat="39.45399315" lon="-0.34805761"><ele>3.8</ele><time>2022-11-04T15:24:55.0000000+00:00</time></trkpt><trkpt lat="39.4539929" lon="-0.34805677"><ele>3.8</ele><time>2022-11-04T15:24:56.0000000+00:00</time></trkpt><trkpt lat="39.45399273" lon="-0.34805568"><ele>3.8</ele><time>2022-11-04T15:24:57.0000000+00:00</time></trkpt><trkpt lat="39.45399189" lon="-0.34805543"><ele>3.8</ele><time>2022-11-04T15:24:58.0000000+00:00</time></trkpt><trkpt lat="39.45399039" lon="-0.34805526"><ele>3.8</ele><time>2022-11-04T15:24:59.0000000+00:00</time></trkpt><trkpt lat="39.45398921" lon="-0.34805627"><ele>3.8</ele><time>2022-11-04T15:25:00.0000000+00:00</time></trkpt><trkpt lat="39.45398737" lon="-0.34805652"><ele>3.8</ele><time>2022-11-04T15:25:01.0000000+00:00</time></trkpt><trkpt lat="39.45398687" lon="-0.3480566"><ele>3.8</ele><time>2022-11-04T15:25:02.0000000+00:00</time></trkpt><trkpt lat="39.45398443" lon="-0.3480566"><ele>3.8</ele><time>2022-11-04T15:25:03.0000000+00:00</time></trkpt><trkpt lat="39.45398309" lon="-0.34805727"><ele>3.8</ele><time>2022-11-04T15:25:04.0000000+00:00</time></trkpt><trkpt lat="39.45397991" lon="-0.34805568"><ele>3.8</ele><time>2022-11-04T15:25:05.0000000+00:00</time></trkpt><trkpt lat="39.4539753" lon="-0.34805526"><ele>3.8</ele><time>2022-11-04T15:25:06.0000000+00:00</time></trkpt><trkpt lat="39.45397421" lon="-0.34805518"><ele>3.8</ele><time>2022-11-04T15:25:07.0000000+00:00</time></trkpt><trkpt lat="39.45397387" lon="-0.34805509"><ele>3.8</ele><time>2022-11-04T15:25:08.0000000+00:00</time></trkpt><trkpt lat="39.45397379" lon="-0.34805685"><ele>3.8</ele><time>2022-11-04T15:25:09.0000000+00:00</time></trkpt><trkpt lat="39.45397488" lon="-0.34805778"><ele>3.8</ele><time>2022-11-04T15:25:10.0000000+00:00</time></trkpt><trkpt lat="39.45397748" lon="-0.34805912"><ele>3.8</ele><time>2022-11-04T15:25:11.0000000+00:00</time></trkpt><trkpt lat="39.45398435" lon="-0.34806607"><ele>3.8</ele><time>2022-11-04T15:25:12.0000000+00:00</time></trkpt><trkpt lat="39.45398921" lon="-0.34806306"><ele>3.8</ele><time>2022-11-04T15:25:13.0000000+00:00</time></trkpt><trkpt lat="39.45399298" lon="-0.34806021"><ele>3.8</ele><time>2022-11-04T15:25:14.0000000+00:00</time></trkpt><trkpt lat="39.45399793" lon="-0.34805954"><ele>3.8</ele><time>2022-11-04T15:25:15.0000000+00:00</time></trkpt><trkpt lat="39.45400195" lon="-0.34806507"><ele>3.8</ele><time>2022-11-04T15:25:16.0000000+00:00</time></trkpt><trkpt lat="39.45400539" lon="-0.34806775"><ele>3.8</ele><time>2022-11-04T15:25:17.0000000+00:00</time></trkpt><trkpt lat="39.45400505" lon="-0.3480732"><ele>3.8</ele><time>2022-11-04T15:25:18.0000000+00:00</time></trkpt><trkpt lat="39.45400765" lon="-0.34807814"><ele>3.8</ele><time>2022-11-04T15:25:19.0000000+00:00</time></trkpt><trkpt lat="39.45400899" lon="-0.34808192"><ele>3.8</ele><time>2022-11-04T15:25:20.0000000+00:00</time></trkpt><trkpt lat="39.45400992" lon="-0.34808208"><ele>3.8</ele><time>2022-11-04T15:25:21.0000000+00:00</time></trkpt><trkpt lat="39.45401159" lon="-0.34808175"><ele>3.8</ele><time>2022-11-04T15:25:22.0000000+00:00</time></trkpt><trkpt lat="39.45401377" lon="-0.3480799"><ele>3.8</ele><time>2022-11-04T15:25:23.0000000+00:00</time></trkpt><trkpt lat="39.45401972" lon="-0.34808736"><ele>3.8</ele><time>2022-11-04T15:25:24.0000000+00:00</time></trkpt><trkpt lat="39.45402727" lon="-0.34809675"><ele>3.8</ele><time>2022-11-04T15:25:25.0000000+00:00</time></trkpt><trkpt lat="39.45402752" lon="-0.34809692"><ele>3.8</ele><time>2022-11-04T15:25:26.0000000+00:00</time></trkpt><trkpt lat="39.45402752" lon="-0.34809692"><ele>3.8</ele><time>2022-11-04T15:25:27.0000000+00:00</time></trkpt><trkpt lat="39.45402752" lon="-0.34809692"><ele>3.8</ele><time>2022-11-04T15:25:28.0000000+00:00</time></trkpt><trkpt lat="39.45402752" lon="-0.34809692"><ele>3.8</ele><time>2022-11-04T15:25:29.0000000+00:00</time></trkpt><trkpt lat="39.45402752" lon="-0.34809692"><ele>3.8</ele><time>2022-11-04T15:25:30.0000000+00:00</time></trkpt><trkpt lat="39.45402752" lon="-0.34809692"><ele>3.8</ele><time>2022-11-04T15:25:31.0000000+00:00</time></trkpt><trkpt lat="39.45402752" lon="-0.34809692"><ele>3.8</ele><time>2022-11-04T15:25:32.0000000+00:00</time></trkpt><trkpt lat="39.45402752" lon="-0.34809692"><ele>3.8</ele><time>2022-11-04T15:25:33.0000000+00:00</time></trkpt><trkpt lat="39.45402727" lon="-0.34809692"><ele>3.8</ele><time>2022-11-04T15:25:34.0000000+00:00</time></trkpt><trkpt lat="39.45402701" lon="-0.34809692"><ele>3.8</ele><time>2022-11-04T15:25:35.0000000+00:00</time></trkpt><trkpt lat="39.45402609" lon="-0.34809692"><ele>3.8</ele><time>2022-11-04T15:25:36.0000000+00:00</time></trkpt><trkpt lat="39.454025" lon="-0.34809692"><ele>3.8</ele><time>2022-11-04T15:25:37.0000000+00:00</time></trkpt><trkpt lat="39.454024" lon="-0.34809692"><ele>3.8</ele><time>2022-11-04T15:25:38.0000000+00:00</time></trkpt><trkpt lat="39.45402316" lon="-0.34809692"><ele>3.8</ele><time>2022-11-04T15:25:39.0000000+00:00</time></trkpt><trkpt lat="39.45402106" lon="-0.34809692"><ele>3.8</ele><time>2022-11-04T15:25:40.0000000+00:00</time></trkpt><trkpt lat="39.45401981" lon="-0.34809692"><ele>3.8</ele><time>2022-11-04T15:25:41.0000000+00:00</time></trkpt><trkpt lat="39.45401813" lon="-0.34809927"><ele>3.8</ele><time>2022-11-04T15:25:42.0000000+00:00</time></trkpt><trkpt lat="39.45401595" lon="-0.34810186"><ele>3.8</ele><time>2022-11-04T15:25:43.0000000+00:00</time></trkpt><trkpt lat="39.45401595" lon="-0.34810186"><ele>3.8</ele><time>2022-11-04T15:25:44.0000000+00:00</time></trkpt><trkpt lat="39.45401595" lon="-0.34810186"><ele>3.8</ele><time>2022-11-04T15:25:45.0000000+00:00</time></trkpt><trkpt lat="39.45401595" lon="-0.34810186"><ele>3.8</ele><time>2022-11-04T15:25:46.0000000+00:00</time></trkpt><trkpt lat="39.45401536" lon="-0.34810446"><ele>3.8</ele><time>2022-11-04T15:25:47.0000000+00:00</time></trkpt><trkpt lat="39.45401486" lon="-0.3481053"><ele>3.8</ele><time>2022-11-04T15:25:48.0000000+00:00</time></trkpt><trkpt lat="39.45401637" lon="-0.34811092"><ele>3.8</ele><time>2022-11-04T15:25:49.0000000+00:00</time></trkpt><trkpt lat="39.45401997" lon="-0.34811779"><ele>3.8</ele><time>2022-11-04T15:25:50.0000000+00:00</time></trkpt><trkpt lat="39.45401997" lon="-0.34811779"><ele>3.8</ele><time>2022-11-04T15:25:51.0000000+00:00</time></trkpt><trkpt lat="39.45402023" lon="-0.34811938"><ele>3.8</ele><time>2022-11-04T15:25:52.0000000+00:00</time></trkpt><trkpt lat="39.45402257" lon="-0.34812307"><ele>3.8</ele><time>2022-11-04T15:25:53.0000000+00:00</time></trkpt><trkpt lat="39.45402257" lon="-0.34812307"><ele>3.8</ele><time>2022-11-04T15:25:54.0000000+00:00</time></trkpt><trkpt lat="39.45402257" lon="-0.34812307"><ele>3.8</ele><time>2022-11-04T15:25:55.0000000+00:00</time></trkpt><trkpt lat="39.45402257" lon="-0.34812307"><ele>3.8</ele><time>2022-11-04T15:25:56.0000000+00:00</time></trkpt><trkpt lat="39.45402257" lon="-0.34812307"><ele>3.8</ele><time>2022-11-04T15:25:57.0000000+00:00</time></trkpt><trkpt lat="39.45402257" lon="-0.34812307"><ele>3.8</ele><time>2022-11-04T15:25:58.0000000+00:00</time></trkpt><trkpt lat="39.45402215" lon="-0.34812181"><ele>3.8</ele><time>2022-11-04T15:25:59.0000000+00:00</time></trkpt><trkpt lat="39.45402106" lon="-0.34812056"><ele>3.8</ele><time>2022-11-04T15:26:00.0000000+00:00</time></trkpt><trkpt lat="39.45402006" lon="-0.34811955"><ele>3.8</ele><time>2022-11-04T15:26:01.0000000+00:00</time></trkpt><trkpt lat="39.45401947" lon="-0.34811737"><ele>3.8</ele><time>2022-11-04T15:26:02.0000000+00:00</time></trkpt><trkpt lat="39.45401821" lon="-0.34811729"><ele>3.8</ele><time>2022-11-04T15:26:03.0000000+00:00</time></trkpt><trkpt lat="39.45401821" lon="-0.34811729"><ele>3.8</ele><time>2022-11-04T15:26:04.0000000+00:00</time></trkpt><trkpt lat="39.45401821" lon="-0.34811729"><ele>3.8</ele><time>2022-11-04T15:26:05.0000000+00:00</time></trkpt><trkpt lat="39.45401821" lon="-0.34811729"><ele>3.8</ele><time>2022-11-04T15:26:06.0000000+00:00</time></trkpt><trkpt lat="39.45401821" lon="-0.34811729"><ele>3.8</ele><time>2022-11-04T15:26:07.0000000+00:00</time></trkpt><trkpt lat="39.45401821" lon="-0.34811729"><ele>3.8</ele><time>2022-11-04T15:26:08.0000000+00:00</time></trkpt><trkpt lat="39.45401821" lon="-0.34811729"><ele>3.8</ele><time>2022-11-04T15:26:09.0000000+00:00</time></trkpt><trkpt lat="39.45401821" lon="-0.34811729"><ele>3.8</ele><time>2022-11-04T15:26:10.0000000+00:00</time></trkpt><trkpt lat="39.45401821" lon="-0.34811729"><ele>3.8</ele><time>2022-11-04T15:26:11.0000000+00:00</time></trkpt><trkpt lat="39.45401821" lon="-0.34811729"><ele>3.8</ele><time>2022-11-04T15:26:12.0000000+00:00</time></trkpt><trkpt lat="39.45401821" lon="-0.34811729"><ele>3.8</ele><time>2022-11-04T15:26:13.0000000+00:00</time></trkpt><trkpt lat="39.45401821" lon="-0.34811729"><ele>3.8</ele><time>2022-11-04T15:26:14.0000000+00:00</time></trkpt><trkpt lat="39.45401788" lon="-0.34811729"><ele>3.8</ele><time>2022-11-04T15:26:15.0000000+00:00</time></trkpt><trkpt lat="39.45401738" lon="-0.34811729"><ele>3.8</ele><time>2022-11-04T15:26:16.0000000+00:00</time></trkpt><trkpt lat="39.45401729" lon="-0.34811729"><ele>3.8</ele><time>2022-11-04T15:26:17.0000000+00:00</time></trkpt><trkpt lat="39.45401729" lon="-0.34811729"><ele>3.8</ele><time>2022-11-04T15:26:18.0000000+00:00</time></trkpt><trkpt lat="39.45401712" lon="-0.34811729"><ele>3.8</ele><time>2022-11-04T15:26:19.0000000+00:00</time></trkpt><trkpt lat="39.45401637" lon="-0.34811729"><ele>3.8</ele><time>2022-11-04T15:26:20.0000000+00:00</time></trkpt><trkpt lat="39.45401629" lon="-0.34811779"><ele>3.8</ele><time>2022-11-04T15:26:21.0000000+00:00</time></trkpt><trkpt lat="39.4540162" lon="-0.34811796"><ele>3.8</ele><time>2022-11-04T15:26:22.0000000+00:00</time></trkpt><trkpt lat="39.4540157" lon="-0.34811888"><ele>3.8</ele><time>2022-11-04T15:26:23.0000000+00:00</time></trkpt><trkpt lat="39.45401561" lon="-0.34811913"><ele>3.8</ele><time>2022-11-04T15:26:24.0000000+00:00</time></trkpt><trkpt lat="39.45401545" lon="-0.34811921"><ele>3.8</ele><time>2022-11-04T15:26:25.0000000+00:00</time></trkpt><trkpt lat="39.45401528" lon="-0.34812097"><ele>3.8</ele><time>2022-11-04T15:26:26.0000000+00:00</time></trkpt><trkpt lat="39.45401528" lon="-0.34812223"><ele>3.8</ele><time>2022-11-04T15:26:27.0000000+00:00</time></trkpt><trkpt lat="39.45401503" lon="-0.34812299"><ele>3.8</ele><time>2022-11-04T15:26:28.0000000+00:00</time></trkpt><trkpt lat="39.45401503" lon="-0.34812324"><ele>3.8</ele><time>2022-11-04T15:26:29.0000000+00:00</time></trkpt><trkpt lat="39.45401503" lon="-0.34812517"><ele>3.8</ele><time>2022-11-04T15:26:30.0000000+00:00</time></trkpt><trkpt lat="39.45401503" lon="-0.34812642"><ele>3.8</ele><time>2022-11-04T15:26:31.0000000+00:00</time></trkpt><trkpt lat="39.45401503" lon="-0.3481281"><ele>3.8</ele><time>2022-11-04T15:26:32.0000000+00:00</time></trkpt><trkpt lat="39.45401503" lon="-0.34812911"><ele>3.8</ele><time>2022-11-04T15:26:33.0000000+00:00</time></trkpt><trkpt lat="39.45401503" lon="-0.34813019"><ele>3.8</ele><time>2022-11-04T15:26:34.0000000+00:00</time></trkpt><trkpt lat="39.45401503" lon="-0.3481312"><ele>3.8</ele><time>2022-11-04T15:26:35.0000000+00:00</time></trkpt><trkpt lat="39.45401503" lon="-0.34813933"><ele>3.8</ele><time>2022-11-04T15:26:36.0000000+00:00</time></trkpt><trkpt lat="39.4540152" lon="-0.34814092"><ele>3.8</ele><time>2022-11-04T15:26:37.0000000+00:00</time></trkpt><trkpt lat="39.4540152" lon="-0.34814159"><ele>3.8</ele><time>2022-11-04T15:26:38.0000000+00:00</time></trkpt><trkpt lat="39.45401528" lon="-0.34814201"><ele>3.8</ele><time>2022-11-04T15:26:39.0000000+00:00</time></trkpt><trkpt lat="39.45401603" lon="-0.3481421"><ele>3.8</ele><time>2022-11-04T15:26:40.0000000+00:00</time></trkpt><trkpt lat="39.45401629" lon="-0.34814218"><ele>3.8</ele><time>2022-11-04T15:26:41.0000000+00:00</time></trkpt><trkpt lat="39.45401738" lon="-0.3481426"><ele>3.8</ele><time>2022-11-04T15:26:42.0000000+00:00</time></trkpt><trkpt lat="39.45401888" lon="-0.34814361"><ele>3.8</ele><time>2022-11-04T15:26:43.0000000+00:00</time></trkpt><trkpt lat="39.45401939" lon="-0.34814377"><ele>3.8</ele><time>2022-11-04T15:26:44.0000000+00:00</time></trkpt><trkpt lat="39.45401989" lon="-0.34814377"><ele>3.8</ele><time>2022-11-04T15:26:45.0000000+00:00</time></trkpt><trkpt lat="39.45402224" lon="-0.34814386"><ele>3.8</ele><time>2022-11-04T15:26:46.0000000+00:00</time></trkpt><trkpt lat="39.45402467" lon="-0.34814386"><ele>3.8</ele><time>2022-11-04T15:26:47.0000000+00:00</time></trkpt><trkpt lat="39.45402525" lon="-0.34814386"><ele>3.8</ele><time>2022-11-04T15:26:48.0000000+00:00</time></trkpt><trkpt lat="39.45402685" lon="-0.34814386"><ele>3.8</ele><time>2022-11-04T15:26:49.0000000+00:00</time></trkpt><trkpt lat="39.45402735" lon="-0.34814386"><ele>3.8</ele><time>2022-11-04T15:26:50.0000000+00:00</time></trkpt><trkpt lat="39.45402903" lon="-0.34814386"><ele>3.8</ele><time>2022-11-04T15:26:51.0000000+00:00</time></trkpt><trkpt lat="39.45403146" lon="-0.34814294"><ele>3.8</ele><time>2022-11-04T15:26:52.0000000+00:00</time></trkpt><trkpt lat="39.45403213" lon="-0.34814235"><ele>3.8</ele><time>2022-11-04T15:26:53.0000000+00:00</time></trkpt><trkpt lat="39.45403229" lon="-0.34814218"><ele>3.8</ele><time>2022-11-04T15:26:54.0000000+00:00</time></trkpt><trkpt lat="39.45403246" lon="-0.34814185"><ele>3.8</ele><time>2022-11-04T15:26:55.0000000+00:00</time></trkpt><trkpt lat="39.45403263" lon="-0.34814143"><ele>3.8</ele><time>2022-11-04T15:26:56.0000000+00:00</time></trkpt><trkpt lat="39.45403313" lon="-0.34814101"><ele>3.8</ele><time>2022-11-04T15:26:57.0000000+00:00</time></trkpt><trkpt lat="39.45403322" lon="-0.34814092"><ele>3.8</ele><time>2022-11-04T15:26:58.0000000+00:00</time></trkpt><trkpt lat="39.45403347" lon="-0.34814084"><ele>3.8</ele><time>2022-11-04T15:26:59.0000000+00:00</time></trkpt><trkpt lat="39.45403372" lon="-0.34814084"><ele>3.8</ele><time>2022-11-04T15:27:00.0000000+00:00</time></trkpt><trkpt lat="39.45403414" lon="-0.34814084"><ele>3.8</ele><time>2022-11-04T15:27:01.0000000+00:00</time></trkpt><trkpt lat="39.45403456" lon="-0.34814185"><ele>3.8</ele><time>2022-11-04T15:27:02.0000000+00:00</time></trkpt><trkpt lat="39.45403473" lon="-0.34814252"><ele>3.8</ele><time>2022-11-04T15:27:03.0000000+00:00</time></trkpt><trkpt lat="39.45403481" lon="-0.34814268"><ele>3.8</ele><time>2022-11-04T15:27:04.0000000+00:00</time></trkpt><trkpt lat="39.45403489" lon="-0.34814277"><ele>3.8</ele><time>2022-11-04T15:27:05.0000000+00:00</time></trkpt><trkpt lat="39.45403632" lon="-0.34814277"><ele>3.8</ele><time>2022-11-04T15:27:06.0000000+00:00</time></trkpt><trkpt lat="39.45403724" lon="-0.34814277"><ele>3.8</ele><time>2022-11-04T15:27:07.0000000+00:00</time></trkpt><trkpt lat="39.45403783" lon="-0.34814277"><ele>3.8</ele><time>2022-11-04T15:27:08.0000000+00:00</time></trkpt><trkpt lat="39.45403816" lon="-0.34814277"><ele>3.8</ele><time>2022-11-04T15:27:09.0000000+00:00</time></trkpt><trkpt lat="39.4540385" lon="-0.34814277"><ele>3.8</ele><time>2022-11-04T15:27:10.0000000+00:00</time></trkpt><trkpt lat="39.45403908" lon="-0.34814176"><ele>3.8</ele><time>2022-11-04T15:27:11.0000000+00:00</time></trkpt><trkpt lat="39.45403934" lon="-0.34814101"><ele>3.8</ele><time>2022-11-04T15:27:12.0000000+00:00</time></trkpt><trkpt lat="39.4540416" lon="-0.34814118"><ele>3.8</ele><time>2022-11-04T15:27:13.0000000+00:00</time></trkpt><trkpt lat="39.45404252" lon="-0.34814176"><ele>3.8</ele><time>2022-11-04T15:27:14.0000000+00:00</time></trkpt><trkpt lat="39.45404369" lon="-0.34814243"><ele>3.8</ele><time>2022-11-04T15:27:15.0000000+00:00</time></trkpt><trkpt lat="39.45404512" lon="-0.34814319"><ele>3.8</ele><time>2022-11-04T15:27:16.0000000+00:00</time></trkpt><trkpt lat="39.45404613" lon="-0.34814461"><ele>3.8</ele><time>2022-11-04T15:27:17.0000000+00:00</time></trkpt><trkpt lat="39.45404663" lon="-0.3481452"><ele>3.8</ele><time>2022-11-04T15:27:18.0000000+00:00</time></trkpt><trkpt lat="39.45404705" lon="-0.34814604"><ele>3.8</ele><time>2022-11-04T15:27:19.0000000+00:00</time></trkpt><trkpt lat="39.45404755" lon="-0.34814637"><ele>3.8</ele><time>2022-11-04T15:27:20.0000000+00:00</time></trkpt><trkpt lat="39.45404814" lon="-0.34814654"><ele>3.8</ele><time>2022-11-04T15:27:21.0000000+00:00</time></trkpt><trkpt lat="39.45404864" lon="-0.34814746"><ele>3.8</ele><time>2022-11-04T15:27:22.0000000+00:00</time></trkpt><trkpt lat="39.45404897" lon="-0.34814788"><ele>3.8</ele><time>2022-11-04T15:27:23.0000000+00:00</time></trkpt><trkpt lat="39.45404923" lon="-0.34814838"><ele>3.8</ele><time>2022-11-04T15:27:24.0000000+00:00</time></trkpt><trkpt lat="39.45404939" lon="-0.34814889"><ele>3.8</ele><time>2022-11-04T15:27:25.0000000+00:00</time></trkpt><trkpt lat="39.45404973" lon="-0.34814956"><ele>3.8</ele><time>2022-11-04T15:27:26.0000000+00:00</time></trkpt><trkpt lat="39.45404981" lon="-0.34815014"><ele>3.8</ele><time>2022-11-04T15:27:27.0000000+00:00</time></trkpt><trkpt lat="39.45405032" lon="-0.3481509"><ele>3.8</ele><time>2022-11-04T15:27:28.0000000+00:00</time></trkpt><trkpt lat="39.45405048" lon="-0.34815149"><ele>3.8</ele><time>2022-11-04T15:27:29.0000000+00:00</time></trkpt><trkpt lat="39.45405057" lon="-0.34815182"><ele>3.8</ele><time>2022-11-04T15:27:30.0000000+00:00</time></trkpt><trkpt lat="39.45405065" lon="-0.34815224"><ele>3.8</ele><time>2022-11-04T15:27:31.0000000+00:00</time></trkpt><trkpt lat="39.45405065" lon="-0.34815299"><ele>3.8</ele><time>2022-11-04T15:27:32.0000000+00:00</time></trkpt><trkpt lat="39.45405065" lon="-0.34815509"><ele>3.8</ele><time>2022-11-04T15:27:33.0000000+00:00</time></trkpt><trkpt lat="39.45405065" lon="-0.34815718"><ele>3.8</ele><time>2022-11-04T15:27:34.0000000+00:00</time></trkpt><trkpt lat="39.45405065" lon="-0.34816548"><ele>3.8</ele><time>2022-11-04T15:27:35.0000000+00:00</time></trkpt><trkpt lat="39.45405023" lon="-0.34817177"><ele>3.8</ele><time>2022-11-04T15:27:36.0000000+00:00</time></trkpt><trkpt lat="39.4540499" lon="-0.34817462"><ele>3.8</ele><time>2022-11-04T15:27:37.0000000+00:00</time></trkpt><trkpt lat="39.45404965" lon="-0.34817613"><ele>3.8</ele><time>2022-11-04T15:27:38.0000000+00:00</time></trkpt><trkpt lat="39.45404939" lon="-0.34817722"><ele>3.8</ele><time>2022-11-04T15:27:39.0000000+00:00</time></trkpt><trkpt lat="39.45404931" lon="-0.3481778"><ele>3.8</ele><time>2022-11-04T15:27:40.0000000+00:00</time></trkpt><trkpt lat="39.45404931" lon="-0.34817822"><ele>3.8</ele><time>2022-11-04T15:27:41.0000000+00:00</time></trkpt><trkpt lat="39.45404923" lon="-0.34817856"><ele>3.8</ele><time>2022-11-04T15:27:42.0000000+00:00</time></trkpt><trkpt lat="39.45404914" lon="-0.34817873"><ele>3.8</ele><time>2022-11-04T15:27:43.0000000+00:00</time></trkpt><trkpt lat="39.45404847" lon="-0.34817873"><ele>3.8</ele><time>2022-11-04T15:27:44.0000000+00:00</time></trkpt><trkpt lat="39.45404755" lon="-0.34817881"><ele>3.8</ele><time>2022-11-04T15:27:45.0000000+00:00</time></trkpt><trkpt lat="39.4540468" lon="-0.34817881"><ele>3.8</ele><time>2022-11-04T15:27:46.0000000+00:00</time></trkpt><trkpt lat="39.45404638" lon="-0.34817881"><ele>3.8</ele><time>2022-11-04T15:27:47.0000000+00:00</time></trkpt><trkpt lat="39.45404554" lon="-0.34817881"><ele>3.8</ele><time>2022-11-04T15:27:48.0000000+00:00</time></trkpt><trkpt lat="39.45404495" lon="-0.34817881"><ele>3.8</ele><time>2022-11-04T15:27:49.0000000+00:00</time></trkpt><trkpt lat="39.45404436" lon="-0.34817881"><ele>3.8</ele><time>2022-11-04T15:27:50.0000000+00:00</time></trkpt><trkpt lat="39.45404302" lon="-0.34817873"><ele>3.8</ele><time>2022-11-04T15:27:51.0000000+00:00</time></trkpt><trkpt lat="39.45404168" lon="-0.34817856"><ele>3.8</ele><time>2022-11-04T15:27:52.0000000+00:00</time></trkpt><trkpt lat="39.45404059" lon="-0.34817847"><ele>3.8</ele><time>2022-11-04T15:27:53.0000000+00:00</time></trkpt><trkpt lat="39.45404001" lon="-0.34817831"><ele>3.8</ele><time>2022-11-04T15:27:54.0000000+00:00</time></trkpt><trkpt lat="39.45403892" lon="-0.34817797"><ele>3.8</ele><time>2022-11-04T15:27:55.0000000+00:00</time></trkpt><trkpt lat="39.45403766" lon="-0.34817764"><ele>3.8</ele><time>2022-11-04T15:27:56.0000000+00:00</time></trkpt><trkpt lat="39.4540369" lon="-0.34817739"><ele>3.8</ele><time>2022-11-04T15:27:57.0000000+00:00</time></trkpt><trkpt lat="39.45403649" lon="-0.34817722"><ele>3.8</ele><time>2022-11-04T15:27:58.0000000+00:00</time></trkpt><trkpt lat="39.45403623" lon="-0.34817705"><ele>3.8</ele><time>2022-11-04T15:27:59.0000000+00:00</time></trkpt><trkpt lat="39.45403523" lon="-0.34817663"><ele>3.8</ele><time>2022-11-04T15:28:00.0000000+00:00</time></trkpt><trkpt lat="39.45403447" lon="-0.34817562"><ele>3.8</ele><time>2022-11-04T15:28:01.0000000+00:00</time></trkpt><trkpt lat="39.45403372" lon="-0.34817353"><ele>3.8</ele><time>2022-11-04T15:28:02.0000000+00:00</time></trkpt><trkpt lat="39.45403322" lon="-0.34816984"><ele>3.8</ele><time>2022-11-04T15:28:03.0000000+00:00</time></trkpt><trkpt lat="39.4540328" lon="-0.34816758"><ele>3.8</ele><time>2022-11-04T15:28:04.0000000+00:00</time></trkpt><trkpt lat="39.45403238" lon="-0.3481659"><ele>3.8</ele><time>2022-11-04T15:28:05.0000000+00:00</time></trkpt><trkpt lat="39.45403204" lon="-0.34816481"><ele>3.8</ele><time>2022-11-04T15:28:06.0000000+00:00</time></trkpt><trkpt lat="39.45403188" lon="-0.34816406"><ele>3.8</ele><time>2022-11-04T15:28:07.0000000+00:00</time></trkpt><trkpt lat="39.45403171" lon="-0.34816322"><ele>3.8</ele><time>2022-11-04T15:28:08.0000000+00:00</time></trkpt><trkpt lat="39.45403162" lon="-0.3481623"><ele>3.8</ele><time>2022-11-04T15:28:09.0000000+00:00</time></trkpt><trkpt lat="39.45403095" lon="-0.34816171"><ele>3.8</ele><time>2022-11-04T15:28:10.0000000+00:00</time></trkpt><trkpt lat="39.45403053" lon="-0.34816087"><ele>3.8</ele><time>2022-11-04T15:28:11.0000000+00:00</time></trkpt><trkpt lat="39.45403028" lon="-0.3481602"><ele>3.8</ele><time>2022-11-04T15:28:12.0000000+00:00</time></trkpt><trkpt lat="39.45403012" lon="-0.3481597"><ele>3.8</ele><time>2022-11-04T15:28:13.0000000+00:00</time></trkpt><trkpt lat="39.45402995" lon="-0.34815945"><ele>3.8</ele><time>2022-11-04T15:28:14.0000000+00:00</time></trkpt><trkpt lat="39.45402995" lon="-0.34815911"><ele>3.8</ele><time>2022-11-04T15:28:15.0000000+00:00</time></trkpt><trkpt lat="39.45402986" lon="-0.34815886"><ele>3.8</ele><time>2022-11-04T15:28:16.0000000+00:00</time></trkpt><trkpt lat="39.45402986" lon="-0.34815844"><ele>3.8</ele><time>2022-11-04T15:28:17.0000000+00:00</time></trkpt><trkpt lat="39.45402978" lon="-0.34815811"><ele>3.8</ele><time>2022-11-04T15:28:18.0000000+00:00</time></trkpt><trkpt lat="39.45402986" lon="-0.34815769"><ele>3.8</ele><time>2022-11-04T15:28:19.0000000+00:00</time></trkpt><trkpt lat="39.45402986" lon="-0.34815702"><ele>3.8</ele><time>2022-11-04T15:28:20.0000000+00:00</time></trkpt><trkpt lat="39.45402961" lon="-0.34815651"><ele>3.8</ele><time>2022-11-04T15:28:21.0000000+00:00</time></trkpt><trkpt lat="39.45402928" lon="-0.34815618"><ele>3.8</ele><time>2022-11-04T15:28:22.0000000+00:00</time></trkpt><trkpt lat="39.45402903" lon="-0.34815576"><ele>3.8</ele><time>2022-11-04T15:28:23.0000000+00:00</time></trkpt><trkpt lat="39.45402869" lon="-0.34815509"><ele>3.8</ele><time>2022-11-04T15:28:24.0000000+00:00</time></trkpt><trkpt lat="39.45402827" lon="-0.3481545"><ele>3.8</ele><time>2022-11-04T15:28:25.0000000+00:00</time></trkpt><trkpt lat="39.45402777" lon="-0.34815308"><ele>3.8</ele><time>2022-11-04T15:28:26.0000000+00:00</time></trkpt><trkpt lat="39.45402727" lon="-0.34815199"><ele>3.8</ele><time>2022-11-04T15:28:27.0000000+00:00</time></trkpt><trkpt lat="39.45402693" lon="-0.34815081"><ele>3.8</ele><time>2022-11-04T15:28:28.0000000+00:00</time></trkpt><trkpt lat="39.45402668" lon="-0.34814989"><ele>3.8</ele><time>2022-11-04T15:28:29.0000000+00:00</time></trkpt><trkpt lat="39.45402651" lon="-0.34814864"><ele>3.8</ele><time>2022-11-04T15:28:30.0000000+00:00</time></trkpt><trkpt lat="39.45402643" lon="-0.34814721"><ele>3.8</ele><time>2022-11-04T15:28:31.0000000+00:00</time></trkpt><trkpt lat="39.45402634" lon="-0.34814612"><ele>3.8</ele><time>2022-11-04T15:28:32.0000000+00:00</time></trkpt><trkpt lat="39.45402634" lon="-0.34814436"><ele>3.8</ele><time>2022-11-04T15:28:33.0000000+00:00</time></trkpt><trkpt lat="39.45402634" lon="-0.34814134"><ele>3.8</ele><time>2022-11-04T15:28:34.0000000+00:00</time></trkpt><trkpt lat="39.4540266" lon="-0.34813749"><ele>3.8</ele><time>2022-11-04T15:28:35.0000000+00:00</time></trkpt><trkpt lat="39.45402676" lon="-0.3481338"><ele>3.8</ele><time>2022-11-04T15:28:36.0000000+00:00</time></trkpt><trkpt lat="39.45402701" lon="-0.34813019"><ele>3.8</ele><time>2022-11-04T15:28:37.0000000+00:00</time></trkpt><trkpt lat="39.45402727" lon="-0.34812718"><ele>3.8</ele><time>2022-11-04T15:28:38.0000000+00:00</time></trkpt><trkpt lat="39.45402752" lon="-0.34812475"><ele>3.8</ele><time>2022-11-04T15:28:39.0000000+00:00</time></trkpt><trkpt lat="39.45402768" lon="-0.3481229"><ele>3.8</ele><time>2022-11-04T15:28:40.0000000+00:00</time></trkpt><trkpt lat="39.45402794" lon="-0.34812139"><ele>3.8</ele><time>2022-11-04T15:28:41.0000000+00:00</time></trkpt><trkpt lat="39.45402802" lon="-0.34812022"><ele>3.8</ele><time>2022-11-04T15:28:42.0000000+00:00</time></trkpt><trkpt lat="39.4540281" lon="-0.34811938"><ele>3.8</ele><time>2022-11-04T15:28:43.0000000+00:00</time></trkpt><trkpt lat="39.45402819" lon="-0.34811871"><ele>3.8</ele><time>2022-11-04T15:28:44.0000000+00:00</time></trkpt><trkpt lat="39.45402827" lon="-0.34811813"><ele>3.8</ele><time>2022-11-04T15:28:45.0000000+00:00</time></trkpt><trkpt lat="39.45402836" lon="-0.34811771"><ele>3.8</ele><time>2022-11-04T15:28:46.0000000+00:00</time></trkpt><trkpt lat="39.45402836" lon="-0.34811737"><ele>3.8</ele><time>2022-11-04T15:28:47.0000000+00:00</time></trkpt><trkpt lat="39.45402844" lon="-0.34811712"><ele>3.8</ele><time>2022-11-04T15:28:48.0000000+00:00</time></trkpt><trkpt lat="39.45402852" lon="-0.34811695"><ele>3.8</ele><time>2022-11-04T15:28:49.0000000+00:00</time></trkpt><trkpt lat="39.45402869" lon="-0.34811678"><ele>3.8</ele><time>2022-11-04T15:28:50.0000000+00:00</time></trkpt><trkpt lat="39.45402886" lon="-0.34811662"><ele>3.8</ele><time>2022-11-04T15:28:51.0000000+00:00</time></trkpt><trkpt lat="39.45402919" lon="-0.34811653"><ele>3.8</ele><time>2022-11-04T15:28:52.0000000+00:00</time></trkpt><trkpt lat="39.45402945" lon="-0.34811645"><ele>3.8</ele><time>2022-11-04T15:28:53.0000000+00:00</time></trkpt><trkpt lat="39.45402961" lon="-0.34811645"><ele>3.8</ele><time>2022-11-04T15:28:54.0000000+00:00</time></trkpt><trkpt lat="39.45402995" lon="-0.34811645"><ele>3.8</ele><time>2022-11-04T15:28:55.0000000+00:00</time></trkpt><trkpt lat="39.4540302" lon="-0.34811653"><ele>3.8</ele><time>2022-11-04T15:28:56.0000000+00:00</time></trkpt><trkpt lat="39.45403045" lon="-0.3481167"><ele>3.8</ele><time>2022-11-04T15:28:57.0000000+00:00</time></trkpt><trkpt lat="39.4540307" lon="-0.34811687"><ele>3.8</ele><time>2022-11-04T15:28:58.0000000+00:00</time></trkpt><trkpt lat="39.45403095" lon="-0.34811704"><ele>3.8</ele><time>2022-11-04T15:28:59.0000000+00:00</time></trkpt><trkpt lat="39.45403112" lon="-0.34811754"><ele>3.8</ele><time>2022-11-04T15:29:00.0000000+00:00</time></trkpt><trkpt lat="39.45403137" lon="-0.34811804"><ele>3.8</ele><time>2022-11-04T15:29:01.0000000+00:00</time></trkpt><trkpt lat="39.45403154" lon="-0.34811863"><ele>3.8</ele><time>2022-11-04T15:29:02.0000000+00:00</time></trkpt><trkpt lat="39.45403179" lon="-0.34811938"><ele>3.8</ele><time>2022-11-04T15:29:03.0000000+00:00</time></trkpt><trkpt lat="39.45403204" lon="-0.34812005"><ele>3.8</ele><time>2022-11-04T15:29:04.0000000+00:00</time></trkpt><trkpt lat="39.45403238" lon="-0.34812064"><ele>3.8</ele><time>2022-11-04T15:29:05.0000000+00:00</time></trkpt><trkpt lat="39.4540328" lon="-0.34812131"><ele>3.8</ele><time>2022-11-04T15:29:06.0000000+00:00</time></trkpt><trkpt lat="39.45403313" lon="-0.3481219"><ele>3.8</ele><time>2022-11-04T15:29:07.0000000+00:00</time></trkpt><trkpt lat="39.45403355" lon="-0.34812257"><ele>3.8</ele><time>2022-11-04T15:29:08.0000000+00:00</time></trkpt><trkpt lat="39.45403397" lon="-0.34812341"><ele>3.8</ele><time>2022-11-04T15:29:09.0000000+00:00</time></trkpt><trkpt lat="39.45403439" lon="-0.34812408"><ele>3.8</ele><time>2022-11-04T15:29:10.0000000+00:00</time></trkpt><trkpt lat="39.45403481" lon="-0.34812491"><ele>3.8</ele><time>2022-11-04T15:29:11.0000000+00:00</time></trkpt><trkpt lat="39.45403514" lon="-0.34812592"><ele>3.8</ele><time>2022-11-04T15:29:12.0000000+00:00</time></trkpt><trkpt lat="39.45403548" lon="-0.34812701"><ele>3.8</ele><time>2022-11-04T15:29:13.0000000+00:00</time></trkpt><trkpt lat="39.45403573" lon="-0.3481281"><ele>3.8</ele><time>2022-11-04T15:29:14.0000000+00:00</time></trkpt><trkpt lat="39.4540359" lon="-0.34812919"><ele>3.8</ele><time>2022-11-04T15:29:15.0000000+00:00</time></trkpt><trkpt lat="39.45403607" lon="-0.34813011"><ele>3.8</ele><time>2022-11-04T15:29:16.0000000+00:00</time></trkpt><trkpt lat="39.45403623" lon="-0.34813095"><ele>3.8</ele><time>2022-11-04T15:29:17.0000000+00:00</time></trkpt><trkpt lat="39.45403632" lon="-0.34813162"><ele>3.8</ele><time>2022-11-04T15:29:18.0000000+00:00</time></trkpt><trkpt lat="39.4540364" lon="-0.34813221"><ele>3.8</ele><time>2022-11-04T15:29:19.0000000+00:00</time></trkpt><trkpt lat="39.45403649" lon="-0.34813263"><ele>3.8</ele><time>2022-11-04T15:29:20.0000000+00:00</time></trkpt><trkpt lat="39.45403657" lon="-0.34813296"><ele>3.8</ele><time>2022-11-04T15:29:21.0000000+00:00</time></trkpt><trkpt lat="39.45403657" lon="-0.34813321"><ele>3.8</ele><time>2022-11-04T15:29:22.0000000+00:00</time></trkpt><trkpt lat="39.45403665" lon="-0.3481333"><ele>3.8</ele><time>2022-11-04T15:29:23.0000000+00:00</time></trkpt><trkpt lat="39.4540364" lon="-0.34813321"><ele>3.8</ele><time>2022-11-04T15:29:24.0000000+00:00</time></trkpt><trkpt lat="39.45403632" lon="-0.34813313"><ele>3.8</ele><time>2022-11-04T15:29:25.0000000+00:00</time></trkpt><trkpt lat="39.45403623" lon="-0.3481333"><ele>3.8</ele><time>2022-11-04T15:29:26.0000000+00:00</time></trkpt><trkpt lat="39.45403623" lon="-0.3481333"><ele>3.8</ele><time>2022-11-04T15:29:27.0000000+00:00</time></trkpt><trkpt lat="39.45403623" lon="-0.34813321"><ele>3.8</ele><time>2022-11-04T15:29:28.0000000+00:00</time></trkpt><trkpt lat="39.4540364" lon="-0.34813321"><ele>3.8</ele><time>2022-11-04T15:29:29.0000000+00:00</time></trkpt><trkpt lat="39.45403632" lon="-0.34813313"><ele>3.8</ele><time>2022-11-04T15:29:30.0000000+00:00</time></trkpt><trkpt lat="39.45403632" lon="-0.34813313"><ele>3.8</ele><time>2022-11-04T15:29:31.0000000+00:00</time></trkpt><trkpt lat="39.45403623" lon="-0.34813304"><ele>3.8</ele><time>2022-11-04T15:29:32.0000000+00:00</time></trkpt><trkpt lat="39.45403615" lon="-0.34813313"><ele>3.8</ele><time>2022-11-04T15:29:33.0000000+00:00</time></trkpt><trkpt lat="39.45403607" lon="-0.34813288"><ele>3.8</ele><time>2022-11-04T15:29:34.0000000+00:00</time></trkpt><trkpt lat="39.45403598" lon="-0.34813271"><ele>3.8</ele><time>2022-11-04T15:29:35.0000000+00:00</time></trkpt><trkpt lat="39.45403607" lon="-0.34813246"><ele>3.8</ele><time>2022-11-04T15:29:36.0000000+00:00</time></trkpt><trkpt lat="39.45403607" lon="-0.34813254"><ele>3.8</ele><time>2022-11-04T15:29:37.0000000+00:00</time></trkpt><trkpt lat="39.45403607" lon="-0.34813254"><ele>3.8</ele><time>2022-11-04T15:29:38.0000000+00:00</time></trkpt><trkpt lat="39.45403607" lon="-0.34813263"><ele>3.8</ele><time>2022-11-04T15:29:39.0000000+00:00</time></trkpt><trkpt lat="39.45403598" lon="-0.34813254"><ele>3.8</ele><time>2022-11-04T15:29:40.0000000+00:00</time></trkpt><trkpt lat="39.45403598" lon="-0.34813254"><ele>3.8</ele><time>2022-11-04T15:29:41.0000000+00:00</time></trkpt><trkpt lat="39.4540359" lon="-0.34813254"><ele>3.8</ele><time>2022-11-04T15:29:42.0000000+00:00</time></trkpt><trkpt lat="39.45403573" lon="-0.34813254"><ele>3.8</ele><time>2022-11-04T15:29:43.0000000+00:00</time></trkpt><trkpt lat="39.45403573" lon="-0.34813271"><ele>3.8</ele><time>2022-11-04T15:29:44.0000000+00:00</time></trkpt><trkpt lat="39.45403573" lon="-0.34813271"><ele>3.8</ele><time>2022-11-04T15:29:45.0000000+00:00</time></trkpt><trkpt lat="39.45403573" lon="-0.34813246"><ele>3.8</ele><time>2022-11-04T15:29:46.0000000+00:00</time></trkpt><trkpt lat="39.45403573" lon="-0.34813246"><ele>3.8</ele><time>2022-11-04T15:29:47.0000000+00:00</time></trkpt><trkpt lat="39.45403565" lon="-0.34813237"><ele>3.8</ele><time>2022-11-04T15:29:48.0000000+00:00</time></trkpt><trkpt lat="39.45403565" lon="-0.34813237"><ele>3.8</ele><time>2022-11-04T15:29:49.0000000+00:00</time></trkpt><trkpt lat="39.45403556" lon="-0.34813237"><ele>3.8</ele><time>2022-11-04T15:29:50.0000000+00:00</time></trkpt><trkpt lat="39.4540354" lon="-0.34813221"><ele>3.8</ele><time>2022-11-04T15:29:51.0000000+00:00</time></trkpt><trkpt lat="39.45403523" lon="-0.34813229"><ele>3.8</ele><time>2022-11-04T15:29:52.0000000+00:00</time></trkpt><trkpt lat="39.45403523" lon="-0.34813237"><ele>3.8</ele><time>2022-11-04T15:29:53.0000000+00:00</time></trkpt><trkpt lat="39.45403523" lon="-0.34813237"><ele>3.8</ele><time>2022-11-04T15:29:54.0000000+00:00</time></trkpt><trkpt lat="39.45403531" lon="-0.34813237"><ele>3.8</ele><time>2022-11-04T15:29:55.0000000+00:00</time></trkpt><trkpt lat="39.45403531" lon="-0.34813212"><ele>3.8</ele><time>2022-11-04T15:29:56.0000000+00:00</time></trkpt><trkpt lat="39.45403531" lon="-0.34813196"><ele>3.8</ele><time>2022-11-04T15:29:57.0000000+00:00</time></trkpt><trkpt lat="39.4540354" lon="-0.34813196"><ele>3.8</ele><time>2022-11-04T15:29:58.0000000+00:00</time></trkpt><trkpt lat="39.4540354" lon="-0.34813212"><ele>3.8</ele><time>2022-11-04T15:29:59.0000000+00:00</time></trkpt><trkpt lat="39.45403523" lon="-0.34813204"><ele>3.8</ele><time>2022-11-04T15:30:00.0000000+00:00</time></trkpt><trkpt lat="39.45403523" lon="-0.34813187"><ele>3.8</ele><time>2022-11-04T15:30:01.0000000+00:00</time></trkpt><trkpt lat="39.45403531" lon="-0.34813187"><ele>3.8</ele><time>2022-11-04T15:30:02.0000000+00:00</time></trkpt><trkpt lat="39.45403531" lon="-0.34813179"><ele>3.8</ele><time>2022-11-04T15:30:03.0000000+00:00</time></trkpt><trkpt lat="39.45403514" lon="-0.34813162"><ele>3.8</ele><time>2022-11-04T15:30:04.0000000+00:00</time></trkpt><trkpt lat="39.45403498" lon="-0.34813154"><ele>3.8</ele><time>2022-11-04T15:30:05.0000000+00:00</time></trkpt><trkpt lat="39.45403498" lon="-0.34813154"><ele>3.8</ele><time>2022-11-04T15:30:06.0000000+00:00</time></trkpt><trkpt lat="39.45403498" lon="-0.34813179"><ele>3.8</ele><time>2022-11-04T15:30:07.0000000+00:00</time></trkpt><trkpt lat="39.45403498" lon="-0.34813187"><ele>3.8</ele><time>2022-11-04T15:30:08.0000000+00:00</time></trkpt><trkpt lat="39.45403498" lon="-0.34813187"><ele>3.8</ele><time>2022-11-04T15:30:09.0000000+00:00</time></trkpt><trkpt lat="39.45403506" lon="-0.34813187"><ele>3.8</ele><time>2022-11-04T15:30:10.0000000+00:00</time></trkpt><trkpt lat="39.45403506" lon="-0.34813179"><ele>3.8</ele><time>2022-11-04T15:30:11.0000000+00:00</time></trkpt><trkpt lat="39.45403498" lon="-0.3481317"><ele>3.8</ele><time>2022-11-04T15:30:12.0000000+00:00</time></trkpt><trkpt lat="39.45403506" lon="-0.34813179"><ele>3.8</ele><time>2022-11-04T15:30:13.0000000+00:00</time></trkpt><trkpt lat="39.45403498" lon="-0.34813187"><ele>3.8</ele><time>2022-11-04T15:30:14.0000000+00:00</time></trkpt><trkpt lat="39.45403498" lon="-0.34813196"><ele>3.8</ele><time>2022-11-04T15:30:15.0000000+00:00</time></trkpt><trkpt lat="39.45403489" lon="-0.34813204"><ele>3.8</ele><time>2022-11-04T15:30:16.0000000+00:00</time></trkpt><trkpt lat="39.45403481" lon="-0.34813187"><ele>3.8</ele><time>2022-11-04T15:30:17.0000000+00:00</time></trkpt><trkpt lat="39.45403473" lon="-0.3481317"><ele>3.8</ele><time>2022-11-04T15:30:18.0000000+00:00</time></trkpt><trkpt lat="39.45403473" lon="-0.34813179"><ele>3.8</ele><time>2022-11-04T15:30:19.0000000+00:00</time></trkpt><trkpt lat="39.45403481" lon="-0.34813187"><ele>3.8</ele><time>2022-11-04T15:30:20.0000000+00:00</time></trkpt><trkpt lat="39.45403481" lon="-0.34813196"><ele>3.8</ele><time>2022-11-04T15:30:21.0000000+00:00</time></trkpt><trkpt lat="39.45403481" lon="-0.34813212"><ele>3.8</ele><time>2022-11-04T15:30:22.0000000+00:00</time></trkpt><trkpt lat="39.45403481" lon="-0.34813212"><ele>3.8</ele><time>2022-11-04T15:30:23.0000000+00:00</time></trkpt><trkpt lat="39.45403473" lon="-0.34813212"><ele>3.8</ele><time>2022-11-04T15:30:24.0000000+00:00</time></trkpt><trkpt lat="39.45403473" lon="-0.34813212"><ele>3.8</ele><time>2022-11-04T15:30:25.0000000+00:00</time></trkpt><trkpt lat="39.45403473" lon="-0.34813204"><ele>3.8</ele><time>2022-11-04T15:30:26.0000000+00:00</time></trkpt><trkpt lat="39.45403464" lon="-0.34813196"><ele>3.8</ele><time>2022-11-04T15:30:27.0000000+00:00</time></trkpt><trkpt lat="39.45403464" lon="-0.34813204"><ele>3.8</ele><time>2022-11-04T15:30:28.0000000+00:00</time></trkpt><trkpt lat="39.45403473" lon="-0.34813229"><ele>3.8</ele><time>2022-11-04T15:30:29.0000000+00:00</time></trkpt><trkpt lat="39.45403464" lon="-0.34813221"><ele>3.8</ele><time>2022-11-04T15:30:30.0000000+00:00</time></trkpt><trkpt lat="39.45403464" lon="-0.34813237"><ele>3.8</ele><time>2022-11-04T15:30:31.0000000+00:00</time></trkpt><trkpt lat="39.45403473" lon="-0.34813263"><ele>3.8</ele><time>2022-11-04T15:30:32.0000000+00:00</time></trkpt><trkpt lat="39.45403473" lon="-0.34813288"><ele>3.8</ele><time>2022-11-04T15:30:33.0000000+00:00</time></trkpt><trkpt lat="39.45403473" lon="-0.34813296"><ele>3.8</ele><time>2022-11-04T15:30:34.0000000+00:00</time></trkpt><trkpt lat="39.45403489" lon="-0.34813321"><ele>3.8</ele><time>2022-11-04T15:30:35.0000000+00:00</time></trkpt><trkpt lat="39.45403498" lon="-0.34813346"><ele>3.8</ele><time>2022-11-04T15:30:36.0000000+00:00</time></trkpt><trkpt lat="39.45403506" lon="-0.34813355"><ele>3.8</ele><time>2022-11-04T15:30:37.0000000+00:00</time></trkpt><trkpt lat="39.45403514" lon="-0.34813355"><ele>3.8</ele><time>2022-11-04T15:30:38.0000000+00:00</time></trkpt><trkpt lat="39.45403523" lon="-0.34813372"><ele>3.8</ele><time>2022-11-04T15:30:39.0000000+00:00</time></trkpt><trkpt lat="39.45403531" lon="-0.34813397"><ele>3.8</ele><time>2022-11-04T15:30:40.0000000+00:00</time></trkpt><trkpt lat="39.4540354" lon="-0.34813422"><ele>3.8</ele><time>2022-11-04T15:30:41.0000000+00:00</time></trkpt><trkpt lat="39.4540354" lon="-0.3481343"><ele>3.8</ele><time>2022-11-04T15:30:42.0000000+00:00</time></trkpt><trkpt lat="39.45403548" lon="-0.34813439"><ele>3.8</ele><time>2022-11-04T15:30:43.0000000+00:00</time></trkpt><trkpt lat="39.45403548" lon="-0.34813447"><ele>3.8</ele><time>2022-11-04T15:30:44.0000000+00:00</time></trkpt><trkpt lat="39.45403565" lon="-0.34813455"><ele>3.8</ele><time>2022-11-04T15:30:45.0000000+00:00</time></trkpt><trkpt lat="39.45403573" lon="-0.34813464"><ele>3.8</ele><time>2022-11-04T15:30:46.0000000+00:00</time></trkpt><trkpt lat="39.45403582" lon="-0.34813464"><ele>3.8</ele><time>2022-11-04T15:30:47.0000000+00:00</time></trkpt><trkpt lat="39.45403582" lon="-0.34813455"><ele>3.8</ele><time>2022-11-04T15:30:48.0000000+00:00</time></trkpt><trkpt lat="39.45403582" lon="-0.34813455"><ele>3.8</ele><time>2022-11-04T15:30:49.0000000+00:00</time></trkpt><trkpt lat="39.45403573" lon="-0.34813464"><ele>3.8</ele><time>2022-11-04T15:30:50.0000000+00:00</time></trkpt><trkpt lat="39.45403582" lon="-0.34813481"><ele>3.8</ele><time>2022-11-04T15:30:51.0000000+00:00</time></trkpt><trkpt lat="39.4540359" lon="-0.34813506"><ele>3.8</ele><time>2022-11-04T15:30:52.0000000+00:00</time></trkpt><trkpt lat="39.4540359" lon="-0.34813514"><ele>3.8</ele><time>2022-11-04T15:30:53.0000000+00:00</time></trkpt><trkpt lat="39.4540359" lon="-0.34813539"><ele>3.8</ele><time>2022-11-04T15:30:54.0000000+00:00</time></trkpt><trkpt lat="39.45403598" lon="-0.34813556"><ele>3.8</ele><time>2022-11-04T15:30:55.0000000+00:00</time></trkpt><trkpt lat="39.45403607" lon="-0.34813564"><ele>3.8</ele><time>2022-11-04T15:30:56.0000000+00:00</time></trkpt><trkpt lat="39.45403607" lon="-0.34813573"><ele>3.8</ele><time>2022-11-04T15:30:57.0000000+00:00</time></trkpt><trkpt lat="39.45403607" lon="-0.34813581"><ele>3.8</ele><time>2022-11-04T15:30:58.0000000+00:00</time></trkpt><trkpt lat="39.45403607" lon="-0.34813581"><ele>3.8</ele><time>2022-11-04T15:30:59.0000000+00:00</time></trkpt><trkpt lat="39.45403598" lon="-0.34813581"><ele>3.8</ele><time>2022-11-04T15:31:00.0000000+00:00</time></trkpt><trkpt lat="39.45403598" lon="-0.34813589"><ele>3.8</ele><time>2022-11-04T15:31:01.0000000+00:00</time></trkpt><trkpt lat="39.4540359" lon="-0.34813589"><ele>3.8</ele><time>2022-11-04T15:31:02.0000000+00:00</time></trkpt><trkpt lat="39.45403573" lon="-0.34813589"><ele>3.8</ele><time>2022-11-04T15:31:03.0000000+00:00</time></trkpt><trkpt lat="39.45403565" lon="-0.34813598"><ele>3.8</ele><time>2022-11-04T15:31:04.0000000+00:00</time></trkpt><trkpt lat="39.45403548" lon="-0.34813598"><ele>3.8</ele><time>2022-11-04T15:31:05.0000000+00:00</time></trkpt><trkpt lat="39.4540354" lon="-0.34813606"><ele>3.8</ele><time>2022-11-04T15:31:06.0000000+00:00</time></trkpt><trkpt lat="39.45403531" lon="-0.34813623"><ele>3.8</ele><time>2022-11-04T15:31:07.0000000+00:00</time></trkpt><trkpt lat="39.45403531" lon="-0.34813631"><ele>3.8</ele><time>2022-11-04T15:31:08.0000000+00:00</time></trkpt><trkpt lat="39.45403531" lon="-0.34813648"><ele>3.8</ele><time>2022-11-04T15:31:09.0000000+00:00</time></trkpt><trkpt lat="39.45403531" lon="-0.34813665"><ele>3.8</ele><time>2022-11-04T15:31:10.0000000+00:00</time></trkpt><trkpt lat="39.45403531" lon="-0.34813682"><ele>3.8</ele><time>2022-11-04T15:31:11.0000000+00:00</time></trkpt><trkpt lat="39.45403523" lon="-0.34813682"><ele>3.8</ele><time>2022-11-04T15:31:12.0000000+00:00</time></trkpt><trkpt lat="39.45403514" lon="-0.3481369"><ele>3.8</ele><time>2022-11-04T15:31:13.0000000+00:00</time></trkpt><trkpt lat="39.45403506" lon="-0.3481369"><ele>3.8</ele><time>2022-11-04T15:31:14.0000000+00:00</time></trkpt><trkpt lat="39.45403498" lon="-0.34813698"><ele>3.8</ele><time>2022-11-04T15:31:15.0000000+00:00</time></trkpt><trkpt lat="39.45403489" lon="-0.34813707"><ele>3.8</ele><time>2022-11-04T15:31:16.0000000+00:00</time></trkpt><trkpt lat="39.45403473" lon="-0.34813707"><ele>3.8</ele><time>2022-11-04T15:31:17.0000000+00:00</time></trkpt><trkpt lat="39.45403456" lon="-0.34813715"><ele>3.8</ele><time>2022-11-04T15:31:18.0000000+00:00</time></trkpt><trkpt lat="39.45403447" lon="-0.34813724"><ele>3.8</ele><time>2022-11-04T15:31:19.0000000+00:00</time></trkpt><trkpt lat="39.45403431" lon="-0.34813732"><ele>3.8</ele><time>2022-11-04T15:31:20.0000000+00:00</time></trkpt><trkpt lat="39.45403439" lon="-0.3481374"><ele>3.8</ele><time>2022-11-04T15:31:21.0000000+00:00</time></trkpt><trkpt lat="39.45403431" lon="-0.34813749"><ele>3.8</ele><time>2022-11-04T15:31:22.0000000+00:00</time></trkpt><trkpt lat="39.45403422" lon="-0.34813757"><ele>3.8</ele><time>2022-11-04T15:31:23.0000000+00:00</time></trkpt><trkpt lat="39.45403414" lon="-0.34813774"><ele>3.8</ele><time>2022-11-04T15:31:24.0000000+00:00</time></trkpt><trkpt lat="39.45403397" lon="-0.34813774"><ele>3.8</ele><time>2022-11-04T15:31:25.0000000+00:00</time></trkpt><trkpt lat="39.45403389" lon="-0.34813774"><ele>3.8</ele><time>2022-11-04T15:31:26.0000000+00:00</time></trkpt><trkpt lat="39.45403389" lon="-0.34813774"><ele>3.8</ele><time>2022-11-04T15:31:27.0000000+00:00</time></trkpt><trkpt lat="39.45403397" lon="-0.34813791"><ele>3.8</ele><time>2022-11-04T15:31:28.0000000+00:00</time></trkpt><trkpt lat="39.45403406" lon="-0.34813791"><ele>3.8</ele><time>2022-11-04T15:31:29.0000000+00:00</time></trkpt><trkpt lat="39.45403406" lon="-0.34813774"><ele>3.8</ele><time>2022-11-04T15:31:30.0000000+00:00</time></trkpt><trkpt lat="39.45403406" lon="-0.34813774"><ele>3.8</ele><time>2022-11-04T15:31:31.0000000+00:00</time></trkpt><trkpt lat="39.45403397" lon="-0.34813774"><ele>3.8</ele><time>2022-11-04T15:31:32.0000000+00:00</time></trkpt><trkpt lat="39.45403397" lon="-0.34813774"><ele>3.8</ele><time>2022-11-04T15:31:33.0000000+00:00</time></trkpt><trkpt lat="39.45403397" lon="-0.34813774"><ele>3.8</ele><time>2022-11-04T15:31:34.0000000+00:00</time></trkpt><trkpt lat="39.45403397" lon="-0.34813774"><ele>3.8</ele><time>2022-11-04T15:31:35.0000000+00:00</time></trkpt><trkpt lat="39.45403406" lon="-0.34813774"><ele>3.8</ele><time>2022-11-04T15:31:36.0000000+00:00</time></trkpt><trkpt lat="39.45403406" lon="-0.34813774"><ele>3.8</ele><time>2022-11-04T15:31:37.0000000+00:00</time></trkpt><trkpt lat="39.45403406" lon="-0.34813791"><ele>3.8</ele><time>2022-11-04T15:31:38.0000000+00:00</time></trkpt><trkpt lat="39.45403406" lon="-0.34813791"><ele>3.8</ele><time>2022-11-04T15:31:39.0000000+00:00</time></trkpt><trkpt lat="39.45403406" lon="-0.34813782"><ele>3.8</ele><time>2022-11-04T15:31:40.0000000+00:00</time></trkpt><trkpt lat="39.45403414" lon="-0.34813782"><ele>3.8</ele><time>2022-11-04T15:31:41.0000000+00:00</time></trkpt><trkpt lat="39.45403414" lon="-0.34813782"><ele>3.8</ele><time>2022-11-04T15:31:42.0000000+00:00</time></trkpt><trkpt lat="39.45403422" lon="-0.34813791"><ele>3.8</ele><time>2022-11-04T15:31:43.0000000+00:00</time></trkpt><trkpt lat="39.45403431" lon="-0.34813799"><ele>3.8</ele><time>2022-11-04T15:31:44.0000000+00:00</time></trkpt><trkpt lat="39.45403439" lon="-0.34813799"><ele>3.8</ele><time>2022-11-04T15:31:45.0000000+00:00</time></trkpt><trkpt lat="39.45403439" lon="-0.34813799"><ele>3.8</ele><time>2022-11-04T15:31:46.0000000+00:00</time></trkpt><trkpt lat="39.45403439" lon="-0.34813807"><ele>3.8</ele><time>2022-11-04T15:31:47.0000000+00:00</time></trkpt><trkpt lat="39.45403439" lon="-0.34813816"><ele>3.8</ele><time>2022-11-04T15:31:48.0000000+00:00</time></trkpt><trkpt lat="39.45403431" lon="-0.34813816"><ele>3.8</ele><time>2022-11-04T15:31:49.0000000+00:00</time></trkpt><trkpt lat="39.45403439" lon="-0.34813807"><ele>3.8</ele><time>2022-11-04T15:31:50.0000000+00:00</time></trkpt><trkpt lat="39.45403447" lon="-0.34813799"><ele>3.8</ele><time>2022-11-04T15:31:51.0000000+00:00</time></trkpt><trkpt lat="39.45403447" lon="-0.34813799"><ele>3.8</ele><time>2022-11-04T15:31:52.0000000+00:00</time></trkpt><trkpt lat="39.45403447" lon="-0.34813791"><ele>3.8</ele><time>2022-11-04T15:31:53.0000000+00:00</time></trkpt><trkpt lat="39.45403447" lon="-0.34813765"><ele>3.8</ele><time>2022-11-04T15:31:54.0000000+00:00</time></trkpt><trkpt lat="39.45403439" lon="-0.34813749"><ele>3.8</ele><time>2022-11-04T15:31:55.0000000+00:00</time></trkpt><trkpt lat="39.45403447" lon="-0.34813757"><ele>3.8</ele><time>2022-11-04T15:31:56.0000000+00:00</time></trkpt><trkpt lat="39.45403447" lon="-0.34813757"><ele>3.8</ele><time>2022-11-04T15:31:57.0000000+00:00</time></trkpt><trkpt lat="39.45403456" lon="-0.3481374"><ele>3.8</ele><time>2022-11-04T15:31:58.0000000+00:00</time></trkpt><trkpt lat="39.45403464" lon="-0.3481374"><ele>3.8</ele><time>2022-11-04T15:31:59.0000000+00:00</time></trkpt><trkpt lat="39.45403464" lon="-0.34813724"><ele>3.8</ele><time>2022-11-04T15:32:00.0000000+00:00</time></trkpt><trkpt lat="39.45403456" lon="-0.34813724"><ele>3.8</ele><time>2022-11-04T15:32:01.0000000+00:00</time></trkpt><trkpt lat="39.45403447" lon="-0.34813715"><ele>3.8</ele><time>2022-11-04T15:32:02.0000000+00:00</time></trkpt><trkpt lat="39.45403431" lon="-0.34813715"><ele>3.8</ele><time>2022-11-04T15:32:03.0000000+00:00</time></trkpt><trkpt lat="39.45403422" lon="-0.34813715"><ele>3.8</ele><time>2022-11-04T15:32:04.0000000+00:00</time></trkpt><trkpt lat="39.45403397" lon="-0.3481369"><ele>3.8</ele><time>2022-11-04T15:32:05.0000000+00:00</time></trkpt><trkpt lat="39.4540338" lon="-0.34813665"><ele>3.8</ele><time>2022-11-04T15:32:06.0000000+00:00</time></trkpt><trkpt lat="39.45403364" lon="-0.34813631"><ele>3.8</ele><time>2022-11-04T15:32:07.0000000+00:00</time></trkpt><trkpt lat="39.45403347" lon="-0.34813589"><ele>3.8</ele><time>2022-11-04T15:32:08.0000000+00:00</time></trkpt><trkpt lat="39.45403355" lon="-0.34813581"><ele>3.8</ele><time>2022-11-04T15:32:09.0000000+00:00</time></trkpt><trkpt lat="39.45403372" lon="-0.34813598"><ele>3.8</ele><time>2022-11-04T15:32:10.0000000+00:00</time></trkpt><trkpt lat="39.45403397" lon="-0.34813615"><ele>3.8</ele><time>2022-11-04T15:32:11.0000000+00:00</time></trkpt><trkpt lat="39.45403422" lon="-0.34813631"><ele>3.8</ele><time>2022-11-04T15:32:12.0000000+00:00</time></trkpt><trkpt lat="39.45403439" lon="-0.3481364"><ele>3.8</ele><time>2022-11-04T15:32:13.0000000+00:00</time></trkpt><trkpt lat="39.45403447" lon="-0.34813657"><ele>3.8</ele><time>2022-11-04T15:32:14.0000000+00:00</time></trkpt><trkpt lat="39.45403439" lon="-0.34813673"><ele>3.8</ele><time>2022-11-04T15:32:15.0000000+00:00</time></trkpt><trkpt lat="39.45403439" lon="-0.34813682"><ele>3.8</ele><time>2022-11-04T15:32:16.0000000+00:00</time></trkpt><trkpt lat="39.45403431" lon="-0.3481369"><ele>3.8</ele><time>2022-11-04T15:32:17.0000000+00:00</time></trkpt><trkpt lat="39.45403431" lon="-0.34813698"><ele>3.8</ele><time>2022-11-04T15:32:18.0000000+00:00</time></trkpt><trkpt lat="39.45403439" lon="-0.34813707"><ele>3.8</ele><time>2022-11-04T15:32:19.0000000+00:00</time></trkpt><trkpt lat="39.45403464" lon="-0.34813715"><ele>3.8</ele><time>2022-11-04T15:32:20.0000000+00:00</time></trkpt><trkpt lat="39.45403607" lon="-0.34812961"><ele>3.8</ele><time>2022-11-04T15:32:21.0000000+00:00</time></trkpt><trkpt lat="39.45404177" lon="-0.34811553"><ele>3.8</ele><time>2022-11-04T15:32:22.0000000+00:00</time></trkpt><trkpt lat="39.45404839" lon="-0.34810086"><ele>3.8</ele><time>2022-11-04T15:32:23.0000000+00:00</time></trkpt><trkpt lat="39.45405132" lon="-0.34808803"><ele>3.8</ele><time>2022-11-04T15:32:24.0000000+00:00</time></trkpt><trkpt lat="39.45404872" lon="-0.34808074"><ele>3.8</ele><time>2022-11-04T15:32:25.0000000+00:00</time></trkpt><trkpt lat="39.45404344" lon="-0.34807546"><ele>3.8</ele><time>2022-11-04T15:32:26.0000000+00:00</time></trkpt><trkpt lat="39.45403967" lon="-0.34807839"><ele>3.8</ele><time>2022-11-04T15:32:27.0000000+00:00</time></trkpt><trkpt lat="39.45403246" lon="-0.34808342"><ele>3.8</ele><time>2022-11-04T15:32:28.0000000+00:00</time></trkpt><trkpt lat="39.45402517" lon="-0.34808502"><ele>3.8</ele><time>2022-11-04T15:32:29.0000000+00:00</time></trkpt><trkpt lat="39.45401863" lon="-0.34808619"><ele>3.8</ele><time>2022-11-04T15:32:30.0000000+00:00</time></trkpt><trkpt lat="39.45400899" lon="-0.34808644"><ele>3.8</ele><time>2022-11-04T15:32:31.0000000+00:00</time></trkpt><trkpt lat="39.4539965" lon="-0.3480872"><ele>3.8</ele><time>2022-11-04T15:32:32.0000000+00:00</time></trkpt><trkpt lat="39.45398821" lon="-0.34809306"><ele>3.8</ele><time>2022-11-04T15:32:33.0000000+00:00</time></trkpt><trkpt lat="39.45397781" lon="-0.34810379"><ele>3.8</ele><time>2022-11-04T15:32:34.0000000+00:00</time></trkpt><trkpt lat="39.4539758" lon="-0.34812399"><ele>4.4</ele><time>2022-11-04T15:32:35.0000000+00:00</time></trkpt><trkpt lat="39.45397337" lon="-0.34814696"><ele>3.4</ele><time>2022-11-04T15:32:36.0000000+00:00</time></trkpt><trkpt lat="39.45397086" lon="-0.34816666"><ele>3.4</ele><time>2022-11-04T15:32:37.0000000+00:00</time></trkpt><trkpt lat="39.45396541" lon="-0.34817915"><ele>3.4</ele><time>2022-11-04T15:32:38.0000000+00:00</time></trkpt><trkpt lat="39.45395786" lon="-0.34819566"><ele>3.4</ele><time>2022-11-04T15:32:39.0000000+00:00</time></trkpt><trkpt lat="39.45394638" lon="-0.3482058"><ele>3.4</ele><time>2022-11-04T15:32:40.0000000+00:00</time></trkpt><trkpt lat="39.45393993" lon="-0.34822282"><ele>3.4</ele><time>2022-11-04T15:32:41.0000000+00:00</time></trkpt><trkpt lat="39.45393263" lon="-0.34823706"><ele>3.4</ele><time>2022-11-04T15:32:42.0000000+00:00</time></trkpt><trkpt lat="39.45392895" lon="-0.34825685"><ele>3.4</ele><time>2022-11-04T15:32:43.0000000+00:00</time></trkpt><trkpt lat="39.45391713" lon="-0.34826766"><ele>3.6</ele><time>2022-11-04T15:32:44.0000000+00:00</time></trkpt><trkpt lat="39.45390606" lon="-0.34827939"><ele>3.6</ele><time>2022-11-04T15:32:45.0000000+00:00</time></trkpt><trkpt lat="39.45389818" lon="-0.3482918"><ele>3.6</ele><time>2022-11-04T15:32:46.0000000+00:00</time></trkpt><trkpt lat="39.45389559" lon="-0.3483037"><ele>3.6</ele><time>2022-11-04T15:32:47.0000000+00:00</time></trkpt><trkpt lat="39.45389014" lon="-0.34831032"><ele>3.6</ele><time>2022-11-04T15:32:48.0000000+00:00</time></trkpt><trkpt lat="39.45388268" lon="-0.34830823"><ele>3.6</ele><time>2022-11-04T15:32:49.0000000+00:00</time></trkpt><trkpt lat="39.45387421" lon="-0.34831376"><ele>3.6</ele><time>2022-11-04T15:32:50.0000000+00:00</time></trkpt><trkpt lat="39.45386868" lon="-0.34831971"><ele>3.6</ele><time>2022-11-04T15:32:51.0000000+00:00</time></trkpt><trkpt lat="39.45387203" lon="-0.34833429"><ele>3.6</ele><time>2022-11-04T15:32:52.0000000+00:00</time></trkpt><trkpt lat="39.45386726" lon="-0.34834611"><ele>3.6</ele><time>2022-11-04T15:32:53.0000000+00:00</time></trkpt><trkpt lat="39.45386516" lon="-0.34835634"><ele>3.6</ele><time>2022-11-04T15:32:54.0000000+00:00</time></trkpt><trkpt lat="39.45386197" lon="-0.34836832"><ele>3.6</ele><time>2022-11-04T15:32:55.0000000+00:00</time></trkpt><trkpt lat="39.45385736" lon="-0.34838383"><ele>3.6</ele><time>2022-11-04T15:32:56.0000000+00:00</time></trkpt><trkpt lat="39.45385502" lon="-0.34840244"><ele>3.6</ele><time>2022-11-04T15:32:57.0000000+00:00</time></trkpt><trkpt lat="39.45385343" lon="-0.34842029"><ele>3.6</ele><time>2022-11-04T15:32:58.0000000+00:00</time></trkpt><trkpt lat="39.45385376" lon="-0.34843932"><ele>3.6</ele><time>2022-11-04T15:32:59.0000000+00:00</time></trkpt><trkpt lat="39.45385359" lon="-0.3484596"><ele>3.6</ele><time>2022-11-04T15:33:00.0000000+00:00</time></trkpt><trkpt lat="39.45385368" lon="-0.34847788"><ele>3.6</ele><time>2022-11-04T15:33:01.0000000+00:00</time></trkpt><trkpt lat="39.45385125" lon="-0.34849347"><ele>3.6</ele><time>2022-11-04T15:33:02.0000000+00:00</time></trkpt><trkpt lat="39.45384957" lon="-0.34850964"><ele>3.6</ele><time>2022-11-04T15:33:03.0000000+00:00</time></trkpt><trkpt lat="39.45384571" lon="-0.34852297"><ele>3.6</ele><time>2022-11-04T15:33:04.0000000+00:00</time></trkpt><trkpt lat="39.4538375" lon="-0.34852104"><ele>3.6</ele><time>2022-11-04T15:33:05.0000000+00:00</time></trkpt><trkpt lat="39.45382409" lon="-0.34852456"><ele>3.6</ele><time>2022-11-04T15:33:06.0000000+00:00</time></trkpt><trkpt lat="39.45382275" lon="-0.34852381"><ele>3.6</ele><time>2022-11-04T15:33:07.0000000+00:00</time></trkpt><trkpt lat="39.45380556" lon="-0.34852624"><ele>3.6</ele><time>2022-11-04T15:33:08.0000000+00:00</time></trkpt><trkpt lat="39.45379668" lon="-0.34852842"><ele>3.6</ele><time>2022-11-04T15:33:09.0000000+00:00</time></trkpt><trkpt lat="39.45379215" lon="-0.34852867"><ele>3.6</ele><time>2022-11-04T15:33:10.0000000+00:00</time></trkpt><trkpt lat="39.45378855" lon="-0.34852574"><ele>3.8</ele><time>2022-11-04T15:33:11.0000000+00:00</time></trkpt><trkpt lat="39.45378662" lon="-0.34852146"><ele>3.8</ele><time>2022-11-04T15:33:12.0000000+00:00</time></trkpt><trkpt lat="39.45378176" lon="-0.34852205"><ele>3.8</ele><time>2022-11-04T15:33:13.0000000+00:00</time></trkpt><trkpt lat="39.45376868" lon="-0.3485249"><ele>3.8</ele><time>2022-11-04T15:33:14.0000000+00:00</time></trkpt><trkpt lat="39.45375963" lon="-0.3485228"><ele>3.8</ele><time>2022-11-04T15:33:15.0000000+00:00</time></trkpt><trkpt lat="39.45374689" lon="-0.34852146"><ele>3.8</ele><time>2022-11-04T15:33:16.0000000+00:00</time></trkpt><trkpt lat="39.45373851" lon="-0.3485373"><ele>3.8</ele><time>2022-11-04T15:33:17.0000000+00:00</time></trkpt><trkpt lat="39.45373566" lon="-0.34854929"><ele>3.8</ele><time>2022-11-04T15:33:18.0000000+00:00</time></trkpt><trkpt lat="39.45372602" lon="-0.34855474"><ele>3.8</ele><time>2022-11-04T15:33:19.0000000+00:00</time></trkpt><trkpt lat="39.45372292" lon="-0.34856848"><ele>3.8</ele><time>2022-11-04T15:33:20.0000000+00:00</time></trkpt><trkpt lat="39.45371931" lon="-0.3485736"><ele>3.8</ele><time>2022-11-04T15:33:21.0000000+00:00</time></trkpt><trkpt lat="39.45371563" lon="-0.34858089"><ele>3.6</ele><time>2022-11-04T15:33:22.0000000+00:00</time></trkpt><trkpt lat="39.4537132" lon="-0.3485824"><ele>3.6</ele><time>2022-11-04T15:33:23.0000000+00:00</time></trkpt><trkpt lat="39.45371437" lon="-0.34857536"><ele>3.6</ele><time>2022-11-04T15:33:24.0000000+00:00</time></trkpt><trkpt lat="39.45370968" lon="-0.34856874"><ele>3.6</ele><time>2022-11-04T15:33:25.0000000+00:00</time></trkpt><trkpt lat="39.45369735" lon="-0.34856957"><ele>3.6</ele><time>2022-11-04T15:33:26.0000000+00:00</time></trkpt><trkpt lat="39.45368403" lon="-0.34857326"><ele>3.6</ele><time>2022-11-04T15:33:27.0000000+00:00</time></trkpt><trkpt lat="39.45367171" lon="-0.34857217"><ele>3.6</ele><time>2022-11-04T15:33:28.0000000+00:00</time></trkpt><trkpt lat="39.4536676" lon="-0.34856681"><ele>3.6</ele><time>2022-11-04T15:33:29.0000000+00:00</time></trkpt><trkpt lat="39.45366642" lon="-0.34856329"><ele>3.6</ele><time>2022-11-04T15:33:30.0000000+00:00</time></trkpt><trkpt lat="39.45366475" lon="-0.34855901"><ele>3.6</ele><time>2022-11-04T15:33:31.0000000+00:00</time></trkpt><trkpt lat="39.45366483" lon="-0.34855248"><ele>3.6</ele><time>2022-11-04T15:33:32.0000000+00:00</time></trkpt><trkpt lat="39.45366458" lon="-0.3485508"><ele>3.6</ele><time>2022-11-04T15:33:33.0000000+00:00</time></trkpt><trkpt lat="39.45366542" lon="-0.34854753"><ele>3.4</ele><time>2022-11-04T15:33:34.0000000+00:00</time></trkpt><trkpt lat="39.45366492" lon="-0.3485446"><ele>3.4</ele><time>2022-11-04T15:33:35.0000000+00:00</time></trkpt><trkpt lat="39.45366592" lon="-0.34854334"><ele>3.4</ele><time>2022-11-04T15:33:36.0000000+00:00</time></trkpt><trkpt lat="39.45366475" lon="-0.34854175"><ele>3.4</ele><time>2022-11-04T15:33:37.0000000+00:00</time></trkpt><trkpt lat="39.45366592" lon="-0.34853999"><ele>3.4</ele><time>2022-11-04T15:33:38.0000000+00:00</time></trkpt><trkpt lat="39.45366374" lon="-0.34854275"><ele>3.4</ele><time>2022-11-04T15:33:39.0000000+00:00</time></trkpt><trkpt lat="39.45366165" lon="-0.34854719"><ele>3.4</ele><time>2022-11-04T15:33:40.0000000+00:00</time></trkpt><trkpt lat="39.45366198" lon="-0.34855415"><ele>3.4</ele><time>2022-11-04T15:33:41.0000000+00:00</time></trkpt><trkpt lat="39.45365796" lon="-0.34855725"><ele>3.4</ele><time>2022-11-04T15:33:42.0000000+00:00</time></trkpt><trkpt lat="39.45365578" lon="-0.34855801"><ele>3.4</ele><time>2022-11-04T15:33:43.0000000+00:00</time></trkpt><trkpt lat="39.45365804" lon="-0.348556"><ele>3.4</ele><time>2022-11-04T15:33:44.0000000+00:00</time></trkpt><trkpt lat="39.45365746" lon="-0.34855641"><ele>3.4</ele><time>2022-11-04T15:33:45.0000000+00:00</time></trkpt><trkpt lat="39.45365746" lon="-0.34855641"><ele>3.2</ele><time>2022-11-04T15:33:46.0000000+00:00</time></trkpt><trkpt lat="39.45365746" lon="-0.34855641"><ele>3.2</ele><time>2022-11-04T15:33:47.0000000+00:00</time></trkpt><trkpt lat="39.45365746" lon="-0.34855641"><ele>3.2</ele><time>2022-11-04T15:33:48.0000000+00:00</time></trkpt><trkpt lat="39.45365746" lon="-0.34855641"><ele>3.2</ele><time>2022-11-04T15:33:49.0000000+00:00</time></trkpt><trkpt lat="39.45365746" lon="-0.34855641"><ele>3.2</ele><time>2022-11-04T15:33:50.0000000+00:00</time></trkpt><trkpt lat="39.45365746" lon="-0.34855641"><ele>3.2</ele><time>2022-11-04T15:33:51.0000000+00:00</time></trkpt><trkpt lat="39.45365746" lon="-0.34855641"><ele>3.2</ele><time>2022-11-04T15:33:52.0000000+00:00</time></trkpt><trkpt lat="39.45365746" lon="-0.34855641"><ele>3.2</ele><time>2022-11-04T15:33:53.0000000+00:00</time></trkpt><trkpt lat="39.45365746" lon="-0.34855641"><ele>3.2</ele><time>2022-11-04T15:33:54.0000000+00:00</time></trkpt><trkpt lat="39.45365746" lon="-0.34855641"><ele>3.2</ele><time>2022-11-04T15:33:55.0000000+00:00</time></trkpt><trkpt lat="39.45365746" lon="-0.34855641"><ele>3.2</ele><time>2022-11-04T15:33:56.0000000+00:00</time></trkpt><trkpt lat="39.45365746" lon="-0.34855641"><ele>3.0</ele><time>2022-11-04T15:33:57.0000000+00:00</time></trkpt><trkpt lat="39.45365746" lon="-0.34855641"><ele>3.0</ele><time>2022-11-04T15:33:58.0000000+00:00</time></trkpt><trkpt lat="39.45365746" lon="-0.34855641"><ele>3.0</ele><time>2022-11-04T15:33:59.0000000+00:00</time></trkpt><trkpt lat="39.45365746" lon="-0.34855641"><ele>3.0</ele><time>2022-11-04T15:34:00.0000000+00:00</time></trkpt><trkpt lat="39.45365746" lon="-0.34855717"><ele>3.0</ele><time>2022-11-04T15:34:01.0000000+00:00</time></trkpt><trkpt lat="39.45365771" lon="-0.34855776"><ele>3.0</ele><time>2022-11-04T15:34:02.0000000+00:00</time></trkpt><trkpt lat="39.45365796" lon="-0.34855801"><ele>3.0</ele><time>2022-11-04T15:34:03.0000000+00:00</time></trkpt><trkpt lat="39.45365804" lon="-0.34855801"><ele>3.0</ele><time>2022-11-04T15:34:04.0000000+00:00</time></trkpt><trkpt lat="39.45365947" lon="-0.34855801"><ele>3.0</ele><time>2022-11-04T15:34:05.0000000+00:00</time></trkpt><trkpt lat="39.4536598" lon="-0.34855801"><ele>3.0</ele><time>2022-11-04T15:34:06.0000000+00:00</time></trkpt><trkpt lat="39.4536598" lon="-0.34855801"><ele>3.0</ele><time>2022-11-04T15:34:07.0000000+00:00</time></trkpt><trkpt lat="39.4536598" lon="-0.34855801"><ele>3.0</ele><time>2022-11-04T15:34:08.0000000+00:00</time></trkpt><trkpt lat="39.4536598" lon="-0.34855801"><ele>3.0</ele><time>2022-11-04T15:34:09.0000000+00:00</time></trkpt><trkpt lat="39.4536598" lon="-0.34855801"><ele>3.0</ele><time>2022-11-04T15:34:10.0000000+00:00</time></trkpt><trkpt lat="39.4536598" lon="-0.34855801"><ele>3.2</ele><time>2022-11-04T15:34:11.0000000+00:00</time></trkpt><trkpt lat="39.4536598" lon="-0.34855801"><ele>3.4</ele><time>2022-11-04T15:34:12.0000000+00:00</time></trkpt><trkpt lat="39.45365737" lon="-0.34855315"><ele>3.4</ele><time>2022-11-04T15:34:13.0000000+00:00</time></trkpt><trkpt lat="39.45364421" lon="-0.34854292"><ele>3.4</ele><time>2022-11-04T15:34:14.0000000+00:00</time></trkpt><trkpt lat="39.45363365" lon="-0.34853353"><ele>3.6</ele><time>2022-11-04T15:34:15.0000000+00:00</time></trkpt><trkpt lat="39.4536241" lon="-0.34852968"><ele>3.6</ele><time>2022-11-04T15:34:16.0000000+00:00</time></trkpt><trkpt lat="39.45361563" lon="-0.34852901"><ele>3.6</ele><time>2022-11-04T15:34:17.0000000+00:00</time></trkpt><trkpt lat="39.4536044" lon="-0.34852641"><ele>3.6</ele><time>2022-11-04T15:34:18.0000000+00:00</time></trkpt><trkpt lat="39.4535935" lon="-0.34852088"><ele>3.8</ele><time>2022-11-04T15:34:19.0000000+00:00</time></trkpt><trkpt lat="39.45358403" lon="-0.34851727"><ele>3.8</ele><time>2022-11-04T15:34:20.0000000+00:00</time></trkpt><trkpt lat="39.45357196" lon="-0.3485135"><ele>3.8</ele><time>2022-11-04T15:34:21.0000000+00:00</time></trkpt><trkpt lat="39.45355897" lon="-0.3485073"><ele>3.6</ele><time>2022-11-04T15:34:22.0000000+00:00</time></trkpt><trkpt lat="39.4535479" lon="-0.34850193"><ele>3.6</ele><time>2022-11-04T15:34:23.0000000+00:00</time></trkpt><trkpt lat="39.4535417" lon="-0.3484995"><ele>3.6</ele><time>2022-11-04T15:34:24.0000000+00:00</time></trkpt><trkpt lat="39.45354162" lon="-0.34849791"><ele>3.6</ele><time>2022-11-04T15:34:25.0000000+00:00</time></trkpt><trkpt lat="39.45354229" lon="-0.3484959"><ele>3.6</ele><time>2022-11-04T15:34:26.0000000+00:00</time></trkpt><trkpt lat="39.45354044" lon="-0.34849288"><ele>3.6</ele><time>2022-11-04T15:34:27.0000000+00:00</time></trkpt><trkpt lat="39.45354095" lon="-0.3484876"><ele>3.6</ele><time>2022-11-04T15:34:28.0000000+00:00</time></trkpt><trkpt lat="39.45354397" lon="-0.34848676"><ele>3.6</ele><time>2022-11-04T15:34:29.0000000+00:00</time></trkpt><trkpt lat="39.45354589" lon="-0.34848433"><ele>3.6</ele><time>2022-11-04T15:34:30.0000000+00:00</time></trkpt><trkpt lat="39.45355075" lon="-0.34848006"><ele>3.6</ele><time>2022-11-04T15:34:31.0000000+00:00</time></trkpt><trkpt lat="39.45355243" lon="-0.34847436"><ele>3.6</ele><time>2022-11-04T15:34:32.0000000+00:00</time></trkpt><trkpt lat="39.45355101" lon="-0.34846857"><ele>3.8</ele><time>2022-11-04T15:34:33.0000000+00:00</time></trkpt><trkpt lat="39.4535495" lon="-0.34846379"><ele>3.8</ele><time>2022-11-04T15:34:34.0000000+00:00</time></trkpt><trkpt lat="39.4535417" lon="-0.34845826"><ele>3.8</ele><time>2022-11-04T15:34:35.0000000+00:00</time></trkpt><trkpt lat="39.45353223" lon="-0.34845768"><ele>3.8</ele><time>2022-11-04T15:34:36.0000000+00:00</time></trkpt><trkpt lat="39.45351815" lon="-0.34846237"><ele>3.6</ele><time>2022-11-04T15:34:37.0000000+00:00</time></trkpt><trkpt lat="39.45350817" lon="-0.34846958"><ele>3.6</ele><time>2022-11-04T15:34:38.0000000+00:00</time></trkpt><trkpt lat="39.45350214" lon="-0.34847637"><ele>3.6</ele><time>2022-11-04T15:34:39.0000000+00:00</time></trkpt><trkpt lat="39.45349393" lon="-0.34847813"><ele>3.6</ele><time>2022-11-04T15:34:40.0000000+00:00</time></trkpt><trkpt lat="39.45348571" lon="-0.34847436"><ele>3.6</ele><time>2022-11-04T15:34:41.0000000+00:00</time></trkpt><trkpt lat="39.45347825" lon="-0.34846824"><ele>3.6</ele><time>2022-11-04T15:34:42.0000000+00:00</time></trkpt><trkpt lat="39.45346995" lon="-0.34846212"><ele>3.6</ele><time>2022-11-04T15:34:43.0000000+00:00</time></trkpt><trkpt lat="39.45346342" lon="-0.34845918"><ele>3.6</ele><time>2022-11-04T15:34:44.0000000+00:00</time></trkpt><trkpt lat="39.45346107" lon="-0.34845835"><ele>3.6</ele><time>2022-11-04T15:34:45.0000000+00:00</time></trkpt><trkpt lat="39.45346073" lon="-0.34846027"><ele>3.6</ele><time>2022-11-04T15:34:46.0000000+00:00</time></trkpt><trkpt lat="39.45346182" lon="-0.34846254"><ele>3.8</ele><time>2022-11-04T15:34:47.0000000+00:00</time></trkpt><trkpt lat="39.45346274" lon="-0.3484617"><ele>3.8</ele><time>2022-11-04T15:34:48.0000000+00:00</time></trkpt><trkpt lat="39.45346526" lon="-0.34846405"><ele>3.8</ele><time>2022-11-04T15:34:49.0000000+00:00</time></trkpt><trkpt lat="39.45346844" lon="-0.34846312"><ele>3.4</ele><time>2022-11-04T15:34:50.0000000+00:00</time></trkpt><trkpt lat="39.45347046" lon="-0.34846187"><ele>3.4</ele><time>2022-11-04T15:34:51.0000000+00:00</time></trkpt><trkpt lat="39.45347238" lon="-0.3484596"><ele>3.4</ele><time>2022-11-04T15:34:52.0000000+00:00</time></trkpt><trkpt lat="39.45347196" lon="-0.34845734"><ele>3.4</ele><time>2022-11-04T15:34:53.0000000+00:00</time></trkpt><trkpt lat="39.4534692" lon="-0.34845709"><ele>3.4</ele><time>2022-11-04T15:34:54.0000000+00:00</time></trkpt><trkpt lat="39.453464" lon="-0.34845449"><ele>3.4</ele><time>2022-11-04T15:34:55.0000000+00:00</time></trkpt><trkpt lat="39.45345738" lon="-0.34844938"><ele>3.4</ele><time>2022-11-04T15:34:56.0000000+00:00</time></trkpt><trkpt lat="39.45345067" lon="-0.34844351"><ele>3.4</ele><time>2022-11-04T15:34:57.0000000+00:00</time></trkpt><trkpt lat="39.45344397" lon="-0.34843731"><ele>3.4</ele><time>2022-11-04T15:34:58.0000000+00:00</time></trkpt><trkpt lat="39.45343534" lon="-0.34843152"><ele>3.4</ele><time>2022-11-04T15:34:59.0000000+00:00</time></trkpt><trkpt lat="39.45342687" lon="-0.34842239"><ele>3.4</ele><time>2022-11-04T15:35:00.0000000+00:00</time></trkpt><trkpt lat="39.45342243" lon="-0.34841468"><ele>3.4</ele><time>2022-11-04T15:35:01.0000000+00:00</time></trkpt><trkpt lat="39.45342109" lon="-0.34841409"><ele>3.4</ele><time>2022-11-04T15:35:02.0000000+00:00</time></trkpt><trkpt lat="39.45341262" lon="-0.34840956"><ele>3.4</ele><time>2022-11-04T15:35:03.0000000+00:00</time></trkpt><trkpt lat="39.453407" lon="-0.34840219"><ele>3.4</ele><time>2022-11-04T15:35:04.0000000+00:00</time></trkpt><trkpt lat="39.45340784" lon="-0.34839548"><ele>3.4</ele><time>2022-11-04T15:35:05.0000000+00:00</time></trkpt><trkpt lat="39.45340885" lon="-0.34838643"><ele>3.4</ele><time>2022-11-04T15:35:06.0000000+00:00</time></trkpt><trkpt lat="39.45340541" lon="-0.34837428"><ele>3.4</ele><time>2022-11-04T15:35:07.0000000+00:00</time></trkpt><trkpt lat="39.45340592" lon="-0.34836858"><ele>3.4</ele><time>2022-11-04T15:35:08.0000000+00:00</time></trkpt><trkpt lat="39.4534055" lon="-0.34836128"><ele>3.4</ele><time>2022-11-04T15:35:09.0000000+00:00</time></trkpt><trkpt lat="39.45340675" lon="-0.34835273"><ele>3.4</ele><time>2022-11-04T15:35:10.0000000+00:00</time></trkpt><trkpt lat="39.45340977" lon="-0.34834268"><ele>3.4</ele><time>2022-11-04T15:35:11.0000000+00:00</time></trkpt><trkpt lat="39.45340994" lon="-0.34833337"><ele>3.4</ele><time>2022-11-04T15:35:12.0000000+00:00</time></trkpt><trkpt lat="39.45340835" lon="-0.34832725"><ele>3.4</ele><time>2022-11-04T15:35:13.0000000+00:00</time></trkpt><trkpt lat="39.45340223" lon="-0.34831803"><ele>3.4</ele><time>2022-11-04T15:35:14.0000000+00:00</time></trkpt><trkpt lat="39.45339544" lon="-0.3483068"><ele>3.4</ele><time>2022-11-04T15:35:15.0000000+00:00</time></trkpt><trkpt lat="39.45338639" lon="-0.34830462"><ele>3.4</ele><time>2022-11-04T15:35:16.0000000+00:00</time></trkpt><trkpt lat="39.45337826" lon="-0.3483016"><ele>3.4</ele><time>2022-11-04T15:35:17.0000000+00:00</time></trkpt><trkpt lat="39.453378" lon="-0.34829515"><ele>3.4</ele><time>2022-11-04T15:35:18.0000000+00:00</time></trkpt><trkpt lat="39.45338077" lon="-0.34828761"><ele>3.4</ele><time>2022-11-04T15:35:19.0000000+00:00</time></trkpt><trkpt lat="39.4533884" lon="-0.34828224"><ele>3.4</ele><time>2022-11-04T15:35:20.0000000+00:00</time></trkpt><trkpt lat="39.4533967" lon="-0.3482783"><ele>3.4</ele><time>2022-11-04T15:35:21.0000000+00:00</time></trkpt><trkpt lat="39.45340374" lon="-0.34827394"><ele>3.4</ele><time>2022-11-04T15:35:22.0000000+00:00</time></trkpt><trkpt lat="39.45340902" lon="-0.34826975"><ele>3.4</ele><time>2022-11-04T15:35:23.0000000+00:00</time></trkpt><trkpt lat="39.4534153" lon="-0.34826992"><ele>3.4</ele><time>2022-11-04T15:35:24.0000000+00:00</time></trkpt><trkpt lat="39.4534174" lon="-0.34826724"><ele>3.4</ele><time>2022-11-04T15:35:25.0000000+00:00</time></trkpt><trkpt lat="39.45341907" lon="-0.34826506"><ele>3.4</ele><time>2022-11-04T15:35:26.0000000+00:00</time></trkpt><trkpt lat="39.4534241" lon="-0.34826799"><ele>3.4</ele><time>2022-11-04T15:35:27.0000000+00:00</time></trkpt><trkpt lat="39.45342578" lon="-0.348269"><ele>3.4</ele><time>2022-11-04T15:35:28.0000000+00:00</time></trkpt><trkpt lat="39.45342628" lon="-0.34826883"><ele>3.4</ele><time>2022-11-04T15:35:29.0000000+00:00</time></trkpt><trkpt lat="39.45342117" lon="-0.3482638"><ele>3.4</ele><time>2022-11-04T15:35:30.0000000+00:00</time></trkpt><trkpt lat="39.4534122" lon="-0.34825944"><ele>3.4</ele><time>2022-11-04T15:35:31.0000000+00:00</time></trkpt><trkpt lat="39.45340374" lon="-0.34825617"><ele>3.4</ele><time>2022-11-04T15:35:32.0000000+00:00</time></trkpt><trkpt lat="39.45339468" lon="-0.34825098"><ele>3.4</ele><time>2022-11-04T15:35:33.0000000+00:00</time></trkpt><trkpt lat="39.45338982" lon="-0.34824553"><ele>3.4</ele><time>2022-11-04T15:35:34.0000000+00:00</time></trkpt><trkpt lat="39.45338571" lon="-0.34824117"><ele>3.4</ele><time>2022-11-04T15:35:35.0000000+00:00</time></trkpt><trkpt lat="39.45337893" lon="-0.34823698"><ele>3.4</ele><time>2022-11-04T15:35:36.0000000+00:00</time></trkpt><trkpt lat="39.45337046" lon="-0.34822893"><ele>3.4</ele><time>2022-11-04T15:35:37.0000000+00:00</time></trkpt><trkpt lat="39.45336325" lon="-0.34822055"><ele>3.4</ele><time>2022-11-04T15:35:38.0000000+00:00</time></trkpt><trkpt lat="39.45336442" lon="-0.34821636"><ele>3.4</ele><time>2022-11-04T15:35:39.0000000+00:00</time></trkpt><trkpt lat="39.45337063" lon="-0.34820865"><ele>3.4</ele><time>2022-11-04T15:35:40.0000000+00:00</time></trkpt><trkpt lat="39.45336727" lon="-0.34821418"><ele>3.4</ele><time>2022-11-04T15:35:41.0000000+00:00</time></trkpt><trkpt lat="39.45336593" lon="-0.34821577"><ele>3.4</ele><time>2022-11-04T15:35:42.0000000+00:00</time></trkpt><trkpt lat="39.4533661" lon="-0.34821577"><ele>3.4</ele><time>2022-11-04T15:35:43.0000000+00:00</time></trkpt><trkpt lat="39.45336702" lon="-0.34821929"><ele>3.4</ele><time>2022-11-04T15:35:44.0000000+00:00</time></trkpt><trkpt lat="39.45336727" lon="-0.34821921"><ele>3.4</ele><time>2022-11-04T15:35:45.0000000+00:00</time></trkpt><trkpt lat="39.45336727" lon="-0.34822064"><ele>3.4</ele><time>2022-11-04T15:35:46.0000000+00:00</time></trkpt><trkpt lat="39.45336702" lon="-0.34821904"><ele>3.4</ele><time>2022-11-04T15:35:47.0000000+00:00</time></trkpt><trkpt lat="39.45336702" lon="-0.34821904"><ele>3.4</ele><time>2022-11-04T15:35:48.0000000+00:00</time></trkpt><trkpt lat="39.45336702" lon="-0.34821904"><ele>3.4</ele><time>2022-11-04T15:35:49.0000000+00:00</time></trkpt><trkpt lat="39.45336702" lon="-0.34821904"><ele>3.4</ele><time>2022-11-04T15:35:50.0000000+00:00</time></trkpt><trkpt lat="39.45336702" lon="-0.34821904"><ele>3.4</ele><time>2022-11-04T15:35:51.0000000+00:00</time></trkpt><trkpt lat="39.45336702" lon="-0.34821904"><ele>3.4</ele><time>2022-11-04T15:35:52.0000000+00:00</time></trkpt><trkpt lat="39.45336702" lon="-0.34821904"><ele>3.4</ele><time>2022-11-04T15:35:53.0000000+00:00</time></trkpt><trkpt lat="39.45336702" lon="-0.34821904"><ele>3.4</ele><time>2022-11-04T15:35:54.0000000+00:00</time></trkpt><trkpt lat="39.45336702" lon="-0.34821904"><ele>3.4</ele><time>2022-11-04T15:35:55.0000000+00:00</time></trkpt><trkpt lat="39.45336702" lon="-0.34821904"><ele>3.4</ele><time>2022-11-04T15:35:56.0000000+00:00</time></trkpt><trkpt lat="39.45336702" lon="-0.34821904"><ele>3.4</ele><time>2022-11-04T15:35:57.0000000+00:00</time></trkpt><trkpt lat="39.45336702" lon="-0.34821653"><ele>3.4</ele><time>2022-11-04T15:35:58.0000000+00:00</time></trkpt><trkpt lat="39.45336727" lon="-0.34821577"><ele>3.4</ele><time>2022-11-04T15:35:59.0000000+00:00</time></trkpt><trkpt lat="39.45336727" lon="-0.34821577"><ele>3.4</ele><time>2022-11-04T15:36:00.0000000+00:00</time></trkpt><trkpt lat="39.45336727" lon="-0.3482151"><ele>3.4</ele><time>2022-11-04T15:36:01.0000000+00:00</time></trkpt><trkpt lat="39.4533682" lon="-0.34821418"><ele>3.4</ele><time>2022-11-04T15:36:02.0000000+00:00</time></trkpt><trkpt lat="39.45337021" lon="-0.348211"><ele>3.4</ele><time>2022-11-04T15:36:03.0000000+00:00</time></trkpt><trkpt lat="39.45337054" lon="-0.34820882"><ele>3.4</ele><time>2022-11-04T15:36:04.0000000+00:00</time></trkpt><trkpt lat="39.45337172" lon="-0.34820521"><ele>3.4</ele><time>2022-11-04T15:36:05.0000000+00:00</time></trkpt><trkpt lat="39.45337691" lon="-0.34819398"><ele>3.4</ele><time>2022-11-04T15:36:06.0000000+00:00</time></trkpt><trkpt lat="39.45337826" lon="-0.34819298"><ele>3.4</ele><time>2022-11-04T15:36:07.0000000+00:00</time></trkpt><trkpt lat="39.45337859" lon="-0.34819289"><ele>3.4</ele><time>2022-11-04T15:36:08.0000000+00:00</time></trkpt><trkpt lat="39.45337893" lon="-0.34819289"><ele>3.4</ele><time>2022-11-04T15:36:09.0000000+00:00</time></trkpt><trkpt lat="39.45337893" lon="-0.34819289"><ele>3.4</ele><time>2022-11-04T15:36:10.0000000+00:00</time></trkpt><trkpt lat="39.45337893" lon="-0.34819289"><ele>3.4</ele><time>2022-11-04T15:36:11.0000000+00:00</time></trkpt><trkpt lat="39.45337893" lon="-0.34819289"><ele>3.4</ele><time>2022-11-04T15:36:12.0000000+00:00</time></trkpt><trkpt lat="39.45337893" lon="-0.34819289"><ele>3.4</ele><time>2022-11-04T15:36:13.0000000+00:00</time></trkpt><trkpt lat="39.45337893" lon="-0.34819289"><ele>3.4</ele><time>2022-11-04T15:36:14.0000000+00:00</time></trkpt><trkpt lat="39.45337893" lon="-0.34819289"><ele>3.4</ele><time>2022-11-04T15:36:15.0000000+00:00</time></trkpt><trkpt lat="39.45337893" lon="-0.34819289"><ele>3.4</ele><time>2022-11-04T15:36:16.0000000+00:00</time></trkpt><trkpt lat="39.45337893" lon="-0.34819289"><ele>3.4</ele><time>2022-11-04T15:36:17.0000000+00:00</time></trkpt><trkpt lat="39.45337893" lon="-0.34819289"><ele>3.4</ele><time>2022-11-04T15:36:18.0000000+00:00</time></trkpt><trkpt lat="39.45337893" lon="-0.34819289"><ele>3.4</ele><time>2022-11-04T15:36:19.0000000+00:00</time></trkpt><trkpt lat="39.45337926" lon="-0.34819289"><ele>3.4</ele><time>2022-11-04T15:36:20.0000000+00:00</time></trkpt><trkpt lat="39.45337985" lon="-0.34819666"><ele>3.4</ele><time>2022-11-04T15:36:21.0000000+00:00</time></trkpt><trkpt lat="39.45337993" lon="-0.34820027"><ele>3.4</ele><time>2022-11-04T15:36:22.0000000+00:00</time></trkpt><trkpt lat="39.45338002" lon="-0.34820152"><ele>3.4</ele><time>2022-11-04T15:36:23.0000000+00:00</time></trkpt><trkpt lat="39.45338002" lon="-0.34820186"><ele>3.4</ele><time>2022-11-04T15:36:24.0000000+00:00</time></trkpt><trkpt lat="39.45338337" lon="-0.34820982"><ele>3.4</ele><time>2022-11-04T15:36:25.0000000+00:00</time></trkpt><trkpt lat="39.45339125" lon="-0.34822835"><ele>3.4</ele><time>2022-11-04T15:36:26.0000000+00:00</time></trkpt><trkpt lat="39.45339778" lon="-0.34824788"><ele>3.4</ele><time>2022-11-04T15:36:27.0000000+00:00</time></trkpt><trkpt lat="39.4534055" lon="-0.3482664"><ele>3.4</ele><time>2022-11-04T15:36:28.0000000+00:00</time></trkpt><trkpt lat="39.45341631" lon="-0.34828828"><ele>3.4</ele><time>2022-11-04T15:36:29.0000000+00:00</time></trkpt><trkpt lat="39.45342729" lon="-0.3483068"><ele>3.4</ele><time>2022-11-04T15:36:30.0000000+00:00</time></trkpt><trkpt lat="39.4534355" lon="-0.34832197"><ele>3.4</ele><time>2022-11-04T15:36:31.0000000+00:00</time></trkpt><trkpt lat="39.45344062" lon="-0.34832776"><ele>3.4</ele><time>2022-11-04T15:36:32.0000000+00:00</time></trkpt><trkpt lat="39.45344573" lon="-0.3483332"><ele>3.2</ele><time>2022-11-04T15:36:33.0000000+00:00</time></trkpt><trkpt lat="39.45345067" lon="-0.34834242"><ele>3.2</ele><time>2022-11-04T15:36:34.0000000+00:00</time></trkpt><trkpt lat="39.45344925" lon="-0.34834829"><ele>3.2</ele><time>2022-11-04T15:36:35.0000000+00:00</time></trkpt><trkpt lat="39.45344866" lon="-0.34835877"><ele>3.2</ele><time>2022-11-04T15:36:36.0000000+00:00</time></trkpt><trkpt lat="39.45345151" lon="-0.34836397"><ele>3.0</ele><time>2022-11-04T15:36:37.0000000+00:00</time></trkpt><trkpt lat="39.45344891" lon="-0.34836615"><ele>3.0</ele><time>2022-11-04T15:36:38.0000000+00:00</time></trkpt><trkpt lat="39.45344925" lon="-0.34836958"><ele>3.0</ele><time>2022-11-04T15:36:39.0000000+00:00</time></trkpt><trkpt lat="39.45344925" lon="-0.34837503"><ele>3.0</ele><time>2022-11-04T15:36:40.0000000+00:00</time></trkpt><trkpt lat="39.45344774" lon="-0.34837729"><ele>2.8</ele><time>2022-11-04T15:36:41.0000000+00:00</time></trkpt><trkpt lat="39.45344648" lon="-0.34838065"><ele>2.8</ele><time>2022-11-04T15:36:42.0000000+00:00</time></trkpt><trkpt lat="39.45344699" lon="-0.34837838"><ele>2.6</ele><time>2022-11-04T15:36:43.0000000+00:00</time></trkpt><trkpt lat="39.45344933" lon="-0.34837721"><ele>2.6</ele><time>2022-11-04T15:36:44.0000000+00:00</time></trkpt><trkpt lat="39.45345302" lon="-0.34837587"><ele>2.4</ele><time>2022-11-04T15:36:45.0000000+00:00</time></trkpt><trkpt lat="39.45345679" lon="-0.34837201"><ele>2.0</ele><time>2022-11-04T15:36:46.0000000+00:00</time></trkpt><trkpt lat="39.45346266" lon="-0.34837176"><ele>2.0</ele><time>2022-11-04T15:36:47.0000000+00:00</time></trkpt><trkpt lat="39.45346945" lon="-0.34837629"><ele>1.6</ele><time>2022-11-04T15:36:48.0000000+00:00</time></trkpt><trkpt lat="39.45351136" lon="-0.34825374"><ele>0.4</ele><time>2022-11-04T16:03:03.0000000+00:00</time></trkpt><trkpt lat="39.45352796" lon="-0.34829088"><ele>0.4</ele><time>2022-11-04T16:03:04.0000000+00:00</time></trkpt><trkpt lat="39.45354019" lon="-0.34830873"><ele>0.4</ele><time>2022-11-04T16:03:05.0000000+00:00</time></trkpt><trkpt lat="39.4535464" lon="-0.34833631"><ele>0.4</ele><time>2022-11-04T16:03:06.0000000+00:00</time></trkpt><trkpt lat="39.45355562" lon="-0.34835156"><ele>0.4</ele><time>2022-11-04T16:03:07.0000000+00:00</time></trkpt><trkpt lat="39.45356752" lon="-0.3483467"><ele>0.4</ele><time>2022-11-04T16:03:08.0000000+00:00</time></trkpt><trkpt lat="39.45358353" lon="-0.34834896"><ele>0.4</ele><time>2022-11-04T16:03:09.0000000+00:00</time></trkpt><trkpt lat="39.45360582" lon="-0.34835659"><ele>0.4</ele><time>2022-11-04T16:03:10.0000000+00:00</time></trkpt><trkpt lat="39.45363751" lon="-0.34836564"><ele>0.4</ele><time>2022-11-04T16:03:11.0000000+00:00</time></trkpt><trkpt lat="39.45366047" lon="-0.34837763"><ele>0.6</ele><time>2022-11-04T16:03:12.0000000+00:00</time></trkpt><trkpt lat="39.45367196" lon="-0.34838819"><ele>0.6</ele><time>2022-11-04T16:03:13.0000000+00:00</time></trkpt><trkpt lat="39.45367766" lon="-0.34839314"><ele>0.6</ele><time>2022-11-04T16:03:14.0000000+00:00</time></trkpt><trkpt lat="39.45368528" lon="-0.34839221"><ele>0.6</ele><time>2022-11-04T16:03:15.0000000+00:00</time></trkpt><trkpt lat="39.45369727" lon="-0.3483902"><ele>0.6</ele><time>2022-11-04T16:03:16.0000000+00:00</time></trkpt><trkpt lat="39.45370817" lon="-0.34839079"><ele>0.6</ele><time>2022-11-04T16:03:17.0000000+00:00</time></trkpt><trkpt lat="39.45372158" lon="-0.34838785"><ele>0.4</ele><time>2022-11-04T16:03:18.0000000+00:00</time></trkpt><trkpt lat="39.45373298" lon="-0.3483866"><ele>0.4</ele><time>2022-11-04T16:03:19.0000000+00:00</time></trkpt><trkpt lat="39.45374899" lon="-0.34839079"><ele>0.4</ele><time>2022-11-04T16:03:20.0000000+00:00</time></trkpt><trkpt lat="39.45377153" lon="-0.34839666"><ele>0.4</ele><time>2022-11-04T16:03:21.0000000+00:00</time></trkpt><trkpt lat="39.45379542" lon="-0.34840772"><ele>0.4</ele><time>2022-11-04T16:03:22.0000000+00:00</time></trkpt><trkpt lat="39.4538147" lon="-0.34840118"><ele>0.4</ele><time>2022-11-04T16:03:23.0000000+00:00</time></trkpt><trkpt lat="39.45383222" lon="-0.34839045"><ele>0.4</ele><time>2022-11-04T16:03:24.0000000+00:00</time></trkpt><trkpt lat="39.45384949" lon="-0.34837671"><ele>0.6</ele><time>2022-11-04T16:03:25.0000000+00:00</time></trkpt><trkpt lat="39.45386382" lon="-0.34836757"><ele>0.6</ele><time>2022-11-04T16:03:26.0000000+00:00</time></trkpt><trkpt lat="39.45388109" lon="-0.34836128"><ele>0.6</ele><time>2022-11-04T16:03:27.0000000+00:00</time></trkpt><trkpt lat="39.45389768" lon="-0.34835064"><ele>0.6</ele><time>2022-11-04T16:03:28.0000000+00:00</time></trkpt><trkpt lat="39.45391956" lon="-0.34833916"><ele>0.6</ele><time>2022-11-04T16:03:29.0000000+00:00</time></trkpt><trkpt lat="39.45394361" lon="-0.34833027"><ele>0.6</ele><time>2022-11-04T16:03:30.0000000+00:00</time></trkpt><trkpt lat="39.45395912" lon="-0.34831393"><ele>0.6</ele><time>2022-11-04T16:03:31.0000000+00:00</time></trkpt><trkpt lat="39.45397396" lon="-0.34829565"><ele>0.6</ele><time>2022-11-04T16:03:32.0000000+00:00</time></trkpt><trkpt lat="39.45398519" lon="-0.34827855"><ele>0.6</ele><time>2022-11-04T16:03:33.0000000+00:00</time></trkpt><trkpt lat="39.45400028" lon="-0.34826238"><ele>0.6</ele><time>2022-11-04T16:03:34.0000000+00:00</time></trkpt><trkpt lat="39.45401017" lon="-0.34824494"><ele>0.6</ele><time>2022-11-04T16:03:35.0000000+00:00</time></trkpt><trkpt lat="39.45402131" lon="-0.34823296"><ele>0.6</ele><time>2022-11-04T16:03:36.0000000+00:00</time></trkpt><trkpt lat="39.45403783" lon="-0.34822407"><ele>0.6</ele><time>2022-11-04T16:03:37.0000000+00:00</time></trkpt><trkpt lat="39.45405358" lon="-0.34821695"><ele>0.6</ele><time>2022-11-04T16:03:38.0000000+00:00</time></trkpt><trkpt lat="39.45406457" lon="-0.34820907"><ele>0.6</ele><time>2022-11-04T16:03:39.0000000+00:00</time></trkpt><trkpt lat="39.45407538" lon="-0.34820144"><ele>0.6</ele><time>2022-11-04T16:03:40.0000000+00:00</time></trkpt><trkpt lat="39.45408619" lon="-0.34819155"><ele>0.6</ele><time>2022-11-04T16:03:41.0000000+00:00</time></trkpt><trkpt lat="39.45410136" lon="-0.34818769"><ele>0.6</ele><time>2022-11-04T16:03:42.0000000+00:00</time></trkpt><trkpt lat="39.45411393" lon="-0.34817562"><ele>0.6</ele><time>2022-11-04T16:03:43.0000000+00:00</time></trkpt><trkpt lat="39.4541317" lon="-0.34816624"><ele>0.6</ele><time>2022-11-04T16:03:44.0000000+00:00</time></trkpt><trkpt lat="39.45414763" lon="-0.34815894"><ele>0.8</ele><time>2022-11-04T16:03:45.0000000+00:00</time></trkpt><trkpt lat="39.45416054" lon="-0.34815224"><ele>0.8</ele><time>2022-11-04T16:03:46.0000000+00:00</time></trkpt><trkpt lat="39.45417563" lon="-0.34814361"><ele>0.8</ele><time>2022-11-04T16:03:47.0000000+00:00</time></trkpt><trkpt lat="39.45418133" lon="-0.34812399"><ele>0.6</ele><time>2022-11-04T16:03:48.0000000+00:00</time></trkpt><trkpt lat="39.45418032" lon="-0.34810036"><ele>0.6</ele><time>2022-11-04T16:03:49.0000000+00:00</time></trkpt><trkpt lat="39.45417663" lon="-0.34807487"><ele>0.6</ele><time>2022-11-04T16:03:50.0000000+00:00</time></trkpt><trkpt lat="39.45417998" lon="-0.34803179"><ele>0.6</ele><time>2022-11-04T16:03:51.0000000+00:00</time></trkpt><trkpt lat="39.45417604" lon="-0.3480017"><ele>0.6</ele><time>2022-11-04T16:03:52.0000000+00:00</time></trkpt><trkpt lat="39.45417269" lon="-0.34798049"><ele>0.6</ele><time>2022-11-04T16:03:53.0000000+00:00</time></trkpt><trkpt lat="39.45417102" lon="-0.34796096"><ele>0.6</ele><time>2022-11-04T16:03:54.0000000+00:00</time></trkpt><trkpt lat="39.45416523" lon="-0.34793817"><ele>0.4</ele><time>2022-11-04T16:03:55.0000000+00:00</time></trkpt><trkpt lat="39.45415484" lon="-0.34791486"><ele>0.4</ele><time>2022-11-04T16:03:56.0000000+00:00</time></trkpt><trkpt lat="39.45414939" lon="-0.34789567"><ele>0.4</ele><time>2022-11-04T16:03:57.0000000+00:00</time></trkpt><trkpt lat="39.45414604" lon="-0.3478784"><ele>0.2</ele><time>2022-11-04T16:03:58.0000000+00:00</time></trkpt><trkpt lat="39.45414034" lon="-0.34785544"><ele>0.4</ele><time>2022-11-04T16:03:59.0000000+00:00</time></trkpt><trkpt lat="39.45413447" lon="-0.34782853"><ele>0.4</ele><time>2022-11-04T16:04:00.0000000+00:00</time></trkpt><trkpt lat="39.4541255" lon="-0.34780322"><ele>0.4</ele><time>2022-11-04T16:04:01.0000000+00:00</time></trkpt><trkpt lat="39.4541188" lon="-0.34777321"><ele>0.4</ele><time>2022-11-04T16:04:02.0000000+00:00</time></trkpt><trkpt lat="39.45411167" lon="-0.3477453"><ele>0.4</ele><time>2022-11-04T16:04:03.0000000+00:00</time></trkpt><trkpt lat="39.4540991" lon="-0.34772543"><ele>0.4</ele><time>2022-11-04T16:04:04.0000000+00:00</time></trkpt><trkpt lat="39.45407898" lon="-0.34770314"><ele>0.6</ele><time>2022-11-04T16:04:05.0000000+00:00</time></trkpt><trkpt lat="39.4540727" lon="-0.34768352"><ele>0.6</ele><time>2022-11-04T16:04:06.0000000+00:00</time></trkpt><trkpt lat="39.45406373" lon="-0.34766433"><ele>0.6</ele><time>2022-11-04T16:04:07.0000000+00:00</time></trkpt><trkpt lat="39.45405727" lon="-0.34764857"><ele>0.6</ele><time>2022-11-04T16:04:08.0000000+00:00</time></trkpt><trkpt lat="39.45405082" lon="-0.34762938"><ele>0.8</ele><time>2022-11-04T16:04:09.0000000+00:00</time></trkpt><trkpt lat="39.45404219" lon="-0.34760985"><ele>0.8</ele><time>2022-11-04T16:04:10.0000000+00:00</time></trkpt><trkpt lat="39.45403481" lon="-0.34759359"><ele>0.6</ele><time>2022-11-04T16:04:11.0000000+00:00</time></trkpt><trkpt lat="39.45403037" lon="-0.34757439"><ele>0.4</ele><time>2022-11-04T16:04:12.0000000+00:00</time></trkpt><trkpt lat="39.4540307" lon="-0.3475557"><ele>0.4</ele><time>2022-11-04T16:04:13.0000000+00:00</time></trkpt><trkpt lat="39.45403079" lon="-0.34753902"><ele>0.4</ele><time>2022-11-04T16:04:14.0000000+00:00</time></trkpt><trkpt lat="39.45402794" lon="-0.34752158"><ele>0.4</ele><time>2022-11-04T16:04:15.0000000+00:00</time></trkpt><trkpt lat="39.45402727" lon="-0.34749761"><ele>0.4</ele><time>2022-11-04T16:04:16.0000000+00:00</time></trkpt><trkpt lat="39.45402676" lon="-0.34747138"><ele>0.4</ele><time>2022-11-04T16:04:17.0000000+00:00</time></trkpt><trkpt lat="39.4540266" lon="-0.34744925"><ele>0.4</ele><time>2022-11-04T16:04:18.0000000+00:00</time></trkpt><trkpt lat="39.45402458" lon="-0.34743022"><ele>0.4</ele><time>2022-11-04T16:04:19.0000000+00:00</time></trkpt><trkpt lat="39.45402098" lon="-0.34740902"><ele>0.4</ele><time>2022-11-04T16:04:20.0000000+00:00</time></trkpt><trkpt lat="39.45401494" lon="-0.34739016"><ele>0.6</ele><time>2022-11-04T16:04:21.0000000+00:00</time></trkpt><trkpt lat="39.45401209" lon="-0.34737306"><ele>0.6</ele><time>2022-11-04T16:04:22.0000000+00:00</time></trkpt><trkpt lat="39.45400095" lon="-0.3473578"><ele>0.6</ele><time>2022-11-04T16:04:23.0000000+00:00</time></trkpt><trkpt lat="39.45399064" lon="-0.34734355"><ele>0.6</ele><time>2022-11-04T16:04:24.0000000+00:00</time></trkpt><trkpt lat="39.45397421" lon="-0.34733048"><ele>0.6</ele><time>2022-11-04T16:04:25.0000000+00:00</time></trkpt><trkpt lat="39.4539561" lon="-0.34731891"><ele>0.6</ele><time>2022-11-04T16:04:26.0000000+00:00</time></trkpt><trkpt lat="39.45393322" lon="-0.34730533"><ele>0.6</ele><time>2022-11-04T16:04:27.0000000+00:00</time></trkpt><trkpt lat="39.45391947" lon="-0.34729309"><ele>0.6</ele><time>2022-11-04T16:04:28.0000000+00:00</time></trkpt><trkpt lat="39.45391797" lon="-0.34728169"><ele>0.6</ele><time>2022-11-04T16:04:29.0000000+00:00</time></trkpt><trkpt lat="39.45391738" lon="-0.34727097"><ele>0.6</ele><time>2022-11-04T16:04:30.0000000+00:00</time></trkpt><trkpt lat="39.45390766" lon="-0.34726443"><ele>0.6</ele><time>2022-11-04T16:04:31.0000000+00:00</time></trkpt><trkpt lat="39.45388394" lon="-0.347263"><ele>0.8</ele><time>2022-11-04T16:04:32.0000000+00:00</time></trkpt><trkpt lat="39.45386642" lon="-0.34724867"><ele>0.8</ele><time>2022-11-04T16:04:33.0000000+00:00</time></trkpt><trkpt lat="39.45384186" lon="-0.34722713"><ele>0.8</ele><time>2022-11-04T16:04:34.0000000+00:00</time></trkpt><trkpt lat="39.45382585" lon="-0.3472107"><ele>0.8</ele><time>2022-11-04T16:04:35.0000000+00:00</time></trkpt><trkpt lat="39.45381437" lon="-0.34719318"><ele>0.8</ele><time>2022-11-04T16:04:36.0000000+00:00</time></trkpt><trkpt lat="39.45379701" lon="-0.34718044"><ele>0.8</ele><time>2022-11-04T16:04:37.0000000+00:00</time></trkpt><trkpt lat="39.45377707" lon="-0.34717114"><ele>0.8</ele><time>2022-11-04T16:04:38.0000000+00:00</time></trkpt><trkpt lat="39.45374949" lon="-0.34717223"><ele>0.6</ele><time>2022-11-04T16:04:39.0000000+00:00</time></trkpt><trkpt lat="39.45372015" lon="-0.34718044"><ele>0.6</ele><time>2022-11-04T16:04:40.0000000+00:00</time></trkpt><trkpt lat="39.45369828" lon="-0.34717675"><ele>0.6</ele><time>2022-11-04T16:04:41.0000000+00:00</time></trkpt><trkpt lat="39.45367833" lon="-0.3471739"><ele>0.6</ele><time>2022-11-04T16:04:42.0000000+00:00</time></trkpt><trkpt lat="39.45365896" lon="-0.34718203"><ele>0.6</ele><time>2022-11-04T16:04:43.0000000+00:00</time></trkpt><trkpt lat="39.45364899" lon="-0.34716737"><ele>0.6</ele><time>2022-11-04T16:04:44.0000000+00:00</time></trkpt><trkpt lat="39.45363273" lon="-0.34715144"><ele>0.6</ele><time>2022-11-04T16:04:45.0000000+00:00</time></trkpt><trkpt lat="39.4536225" lon="-0.3471268"><ele>0.6</ele><time>2022-11-04T16:04:46.0000000+00:00</time></trkpt><trkpt lat="39.45361907" lon="-0.34709956"><ele>0.6</ele><time>2022-11-04T16:04:47.0000000+00:00</time></trkpt><trkpt lat="39.45361722" lon="-0.34706745"><ele>0.4</ele><time>2022-11-04T16:04:48.0000000+00:00</time></trkpt><trkpt lat="39.4536132" lon="-0.34704139"><ele>0.4</ele><time>2022-11-04T16:04:49.0000000+00:00</time></trkpt><trkpt lat="39.453608" lon="-0.34701557"><ele>0.2</ele><time>2022-11-04T16:04:50.0000000+00:00</time></trkpt><trkpt lat="39.45360574" lon="-0.34699461"><ele>0.0</ele><time>2022-11-04T16:04:51.0000000+00:00</time></trkpt><trkpt lat="39.45360197" lon="-0.34697458"><ele>0.0</ele><time>2022-11-04T16:04:52.0000000+00:00</time></trkpt><trkpt lat="39.45359417" lon="-0.34695815"><ele>0.0</ele><time>2022-11-04T16:04:53.0000000+00:00</time></trkpt><trkpt lat="39.45358889" lon="-0.34693334"><ele>0.0</ele><time>2022-11-04T16:04:54.0000000+00:00</time></trkpt><trkpt lat="39.45358713" lon="-0.34691172"><ele>0.2</ele><time>2022-11-04T16:04:55.0000000+00:00</time></trkpt><trkpt lat="39.45358747" lon="-0.34689311"><ele>0.6</ele><time>2022-11-04T16:04:56.0000000+00:00</time></trkpt><trkpt lat="39.45359124" lon="-0.34687308"><ele>0.8</ele><time>2022-11-04T16:04:57.0000000+00:00</time></trkpt><trkpt lat="39.45359543" lon="-0.3468476"><ele>1.0</ele><time>2022-11-04T16:04:58.0000000+00:00</time></trkpt><trkpt lat="39.4536013" lon="-0.34682647"><ele>1.2</ele><time>2022-11-04T16:04:59.0000000+00:00</time></trkpt><trkpt lat="39.45360934" lon="-0.34680376"><ele>1.2</ele><time>2022-11-04T16:05:00.0000000+00:00</time></trkpt><trkpt lat="39.45361001" lon="-0.34678029"><ele>1.2</ele><time>2022-11-04T16:05:01.0000000+00:00</time></trkpt><trkpt lat="39.45360725" lon="-0.3467554"><ele>1.0</ele><time>2022-11-04T16:05:02.0000000+00:00</time></trkpt><trkpt lat="39.45360515" lon="-0.34673335"><ele>0.8</ele><time>2022-11-04T16:05:03.0000000+00:00</time></trkpt><trkpt lat="39.45359401" lon="-0.3467165"><ele>0.8</ele><time>2022-11-04T16:05:04.0000000+00:00</time></trkpt><trkpt lat="39.4535842" lon="-0.34670108"><ele>0.8</ele><time>2022-11-04T16:05:05.0000000+00:00</time></trkpt><trkpt lat="39.45357707" lon="-0.34668289"><ele>0.8</ele><time>2022-11-04T16:05:06.0000000+00:00</time></trkpt><trkpt lat="39.45357255" lon="-0.3466647"><ele>1.4</ele><time>2022-11-04T16:05:07.0000000+00:00</time></trkpt><trkpt lat="39.4535702" lon="-0.34664568"><ele>1.6</ele><time>2022-11-04T16:05:08.0000000+00:00</time></trkpt><trkpt lat="39.45357096" lon="-0.34662908"><ele>1.8</ele><time>2022-11-04T16:05:09.0000000+00:00</time></trkpt><trkpt lat="39.45357456" lon="-0.34660335"><ele>1.8</ele><time>2022-11-04T16:05:10.0000000+00:00</time></trkpt><trkpt lat="39.45357808" lon="-0.34658382"><ele>1.8</ele><time>2022-11-04T16:05:11.0000000+00:00</time></trkpt><trkpt lat="39.45358185" lon="-0.34657267"><ele>2.0</ele><time>2022-11-04T16:05:12.0000000+00:00</time></trkpt><trkpt lat="39.45358839" lon="-0.34655901"><ele>2.0</ele><time>2022-11-04T16:05:13.0000000+00:00</time></trkpt><trkpt lat="39.45359627" lon="-0.34654618"><ele>2.0</ele><time>2022-11-04T16:05:14.0000000+00:00</time></trkpt><trkpt lat="39.45360842" lon="-0.34653395"><ele>2.0</ele><time>2022-11-04T16:05:15.0000000+00:00</time></trkpt><trkpt lat="39.45361974" lon="-0.34652087"><ele>2.0</ele><time>2022-11-04T16:05:16.0000000+00:00</time></trkpt><trkpt lat="39.45362678" lon="-0.34650696"><ele>2.0</ele><time>2022-11-04T16:05:17.0000000+00:00</time></trkpt><trkpt lat="39.45362703" lon="-0.34649245"><ele>2.0</ele><time>2022-11-04T16:05:18.0000000+00:00</time></trkpt><trkpt lat="39.45362862" lon="-0.34647519"><ele>2.0</ele><time>2022-11-04T16:05:19.0000000+00:00</time></trkpt><trkpt lat="39.45362971" lon="-0.34645775"><ele>2.0</ele><time>2022-11-04T16:05:20.0000000+00:00</time></trkpt><trkpt lat="39.45363189" lon="-0.34643848"><ele>1.8</ele><time>2022-11-04T16:05:21.0000000+00:00</time></trkpt><trkpt lat="39.45363357" lon="-0.34641777"><ele>1.8</ele><time>2022-11-04T16:05:22.0000000+00:00</time></trkpt><trkpt lat="39.45363457" lon="-0.34639883"><ele>1.8</ele><time>2022-11-04T16:05:23.0000000+00:00</time></trkpt><trkpt lat="39.45364011" lon="-0.34637695"><ele>1.8</ele><time>2022-11-04T16:05:24.0000000+00:00</time></trkpt><trkpt lat="39.45364715" lon="-0.34635725"><ele>2.0</ele><time>2022-11-04T16:05:25.0000000+00:00</time></trkpt><trkpt lat="39.45365159" lon="-0.34633873"><ele>2.0</ele><time>2022-11-04T16:05:26.0000000+00:00</time></trkpt><trkpt lat="39.45365184" lon="-0.3463192"><ele>2.0</ele><time>2022-11-04T16:05:27.0000000+00:00</time></trkpt><trkpt lat="39.45365058" lon="-0.3462964"><ele>2.0</ele><time>2022-11-04T16:05:28.0000000+00:00</time></trkpt><trkpt lat="39.45364547" lon="-0.34627444"><ele>2.2</ele><time>2022-11-04T16:05:29.0000000+00:00</time></trkpt><trkpt lat="39.45363985" lon="-0.34625324"><ele>2.2</ele><time>2022-11-04T16:05:30.0000000+00:00</time></trkpt><trkpt lat="39.45363524" lon="-0.34623354"><ele>2.2</ele><time>2022-11-04T16:05:31.0000000+00:00</time></trkpt><trkpt lat="39.45363298" lon="-0.34621091"><ele>2.2</ele><time>2022-11-04T16:05:32.0000000+00:00</time></trkpt><trkpt lat="39.45362778" lon="-0.34619071"><ele>2.2</ele><time>2022-11-04T16:05:33.0000000+00:00</time></trkpt><trkpt lat="39.45362108" lon="-0.34617193"><ele>2.2</ele><time>2022-11-04T16:05:34.0000000+00:00</time></trkpt><trkpt lat="39.4536137" lon="-0.34615274"><ele>2.2</ele><time>2022-11-04T16:05:35.0000000+00:00</time></trkpt><trkpt lat="39.45360163" lon="-0.34613404"><ele>2.2</ele><time>2022-11-04T16:05:36.0000000+00:00</time></trkpt><trkpt lat="39.45359048" lon="-0.3461177"><ele>2.2</ele><time>2022-11-04T16:05:37.0000000+00:00</time></trkpt><trkpt lat="39.45358101" lon="-0.34610077"><ele>2.2</ele><time>2022-11-04T16:05:38.0000000+00:00</time></trkpt><trkpt lat="39.45357489" lon="-0.34608317"><ele>2.2</ele><time>2022-11-04T16:05:39.0000000+00:00</time></trkpt><trkpt lat="39.45356735" lon="-0.34607026"><ele>2.2</ele><time>2022-11-04T16:05:40.0000000+00:00</time></trkpt><trkpt lat="39.45355872" lon="-0.34605852"><ele>2.0</ele><time>2022-11-04T16:05:41.0000000+00:00</time></trkpt><trkpt lat="39.45354623" lon="-0.3460436"><ele>1.8</ele><time>2022-11-04T16:05:42.0000000+00:00</time></trkpt><trkpt lat="39.45353424" lon="-0.34602877"><ele>1.8</ele><time>2022-11-04T16:05:43.0000000+00:00</time></trkpt><trkpt lat="39.45352167" lon="-0.34602072"><ele>1.8</ele><time>2022-11-04T16:05:44.0000000+00:00</time></trkpt><trkpt lat="39.45350776" lon="-0.3460141"><ele>1.8</ele><time>2022-11-04T16:05:45.0000000+00:00</time></trkpt><trkpt lat="39.45349351" lon="-0.34600874"><ele>1.8</ele><time>2022-11-04T16:05:46.0000000+00:00</time></trkpt><trkpt lat="39.45347641" lon="-0.3460063"><ele>1.6</ele><time>2022-11-04T16:05:47.0000000+00:00</time></trkpt><trkpt lat="39.45345922" lon="-0.34600111"><ele>1.6</ele><time>2022-11-04T16:05:48.0000000+00:00</time></trkpt><trkpt lat="39.45344104" lon="-0.3459934"><ele>1.6</ele><time>2022-11-04T16:05:49.0000000+00:00</time></trkpt><trkpt lat="39.45342092" lon="-0.34598518"><ele>1.6</ele><time>2022-11-04T16:05:50.0000000+00:00</time></trkpt><trkpt lat="39.45340323" lon="-0.34598149"><ele>1.6</ele><time>2022-11-04T16:05:51.0000000+00:00</time></trkpt><trkpt lat="39.45338454" lon="-0.34598392"><ele>1.4</ele><time>2022-11-04T16:05:52.0000000+00:00</time></trkpt><trkpt lat="39.4533682" lon="-0.34598175"><ele>1.6</ele><time>2022-11-04T16:05:53.0000000+00:00</time></trkpt><trkpt lat="39.45335772" lon="-0.34597739"><ele>1.6</ele><time>2022-11-04T16:05:54.0000000+00:00</time></trkpt><trkpt lat="39.45334498" lon="-0.34597429"><ele>1.6</ele><time>2022-11-04T16:05:55.0000000+00:00</time></trkpt><trkpt lat="39.45333215" lon="-0.34597831"><ele>1.6</ele><time>2022-11-04T16:05:56.0000000+00:00</time></trkpt><trkpt lat="39.45332008" lon="-0.34597864"><ele>1.6</ele><time>2022-11-04T16:05:57.0000000+00:00</time></trkpt><trkpt lat="39.45330776" lon="-0.34598242"><ele>1.6</ele><time>2022-11-04T16:05:58.0000000+00:00</time></trkpt><trkpt lat="39.45329377" lon="-0.34598493"><ele>1.4</ele><time>2022-11-04T16:05:59.0000000+00:00</time></trkpt><trkpt lat="39.45327516" lon="-0.34598175"><ele>1.4</ele><time>2022-11-04T16:06:00.0000000+00:00</time></trkpt><trkpt lat="39.45325068" lon="-0.34597873"><ele>1.0</ele><time>2022-11-04T16:06:01.0000000+00:00</time></trkpt><trkpt lat="39.45323006" lon="-0.3459742"><ele>1.0</ele><time>2022-11-04T16:06:02.0000000+00:00</time></trkpt><trkpt lat="39.45321037" lon="-0.34597244"><ele>0.8</ele><time>2022-11-04T16:06:03.0000000+00:00</time></trkpt><trkpt lat="39.45319335" lon="-0.34597009"><ele>0.6</ele><time>2022-11-04T16:06:04.0000000+00:00</time></trkpt><trkpt lat="39.4531765" lon="-0.34596833"><ele>0.6</ele><time>2022-11-04T16:06:05.0000000+00:00</time></trkpt><trkpt lat="39.45316041" lon="-0.34596909"><ele>0.4</ele><time>2022-11-04T16:06:06.0000000+00:00</time></trkpt><trkpt lat="39.45314239" lon="-0.34597353"><ele>0.4</ele><time>2022-11-04T16:06:07.0000000+00:00</time></trkpt><trkpt lat="39.45311674" lon="-0.34598133"><ele>0.4</ele><time>2022-11-04T16:06:08.0000000+00:00</time></trkpt><trkpt lat="39.45308656" lon="-0.34599138"><ele>0.4</ele><time>2022-11-04T16:06:09.0000000+00:00</time></trkpt><trkpt lat="39.45306142" lon="-0.34599775"><ele>0.2</ele><time>2022-11-04T16:06:10.0000000+00:00</time></trkpt><trkpt lat="39.45304097" lon="-0.3460053"><ele>0.2</ele><time>2022-11-04T16:06:11.0000000+00:00</time></trkpt><trkpt lat="39.45302295" lon="-0.34600798"><ele>0.2</ele><time>2022-11-04T16:06:12.0000000+00:00</time></trkpt><trkpt lat="39.45299948" lon="-0.34600798"><ele>0.2</ele><time>2022-11-04T16:06:13.0000000+00:00</time></trkpt><trkpt lat="39.45297953" lon="-0.3460063"><ele>0.2</ele><time>2022-11-04T16:06:14.0000000+00:00</time></trkpt><trkpt lat="39.45295866" lon="-0.34600639"><ele>0.2</ele><time>2022-11-04T16:06:15.0000000+00:00</time></trkpt><trkpt lat="39.45293821" lon="-0.34600605"><ele>0.2</ele><time>2022-11-04T16:06:16.0000000+00:00</time></trkpt><trkpt lat="39.45291608" lon="-0.34600815"><ele>0.2</ele><time>2022-11-04T16:06:17.0000000+00:00</time></trkpt><trkpt lat="39.45289613" lon="-0.34601175"><ele>0.4</ele><time>2022-11-04T16:06:18.0000000+00:00</time></trkpt><trkpt lat="39.4528792" lon="-0.3460146"><ele>0.4</ele><time>2022-11-04T16:06:19.0000000+00:00</time></trkpt><trkpt lat="39.45285975" lon="-0.34601678"><ele>0.4</ele><time>2022-11-04T16:06:20.0000000+00:00</time></trkpt><trkpt lat="39.45283863" lon="-0.34601745"><ele>0.4</ele><time>2022-11-04T16:06:21.0000000+00:00</time></trkpt><trkpt lat="39.45281767" lon="-0.34601678"><ele>0.4</ele><time>2022-11-04T16:06:22.0000000+00:00</time></trkpt><trkpt lat="39.45280024" lon="-0.34601234"><ele>0.4</ele><time>2022-11-04T16:06:23.0000000+00:00</time></trkpt><trkpt lat="39.45278725" lon="-0.34600354"><ele>0.4</ele><time>2022-11-04T16:06:24.0000000+00:00</time></trkpt><trkpt lat="39.45277736" lon="-0.34599138"><ele>0.4</ele><time>2022-11-04T16:06:25.0000000+00:00</time></trkpt><trkpt lat="39.45276269" lon="-0.34598552"><ele>0.2</ele><time>2022-11-04T16:06:26.0000000+00:00</time></trkpt><trkpt lat="39.45274911" lon="-0.34598468"><ele>0.2</ele><time>2022-11-04T16:06:27.0000000+00:00</time></trkpt><trkpt lat="39.45273369" lon="-0.34598309"><ele>0.2</ele><time>2022-11-04T16:06:28.0000000+00:00</time></trkpt><trkpt lat="39.45271986" lon="-0.34597705"><ele>0.2</ele><time>2022-11-04T16:06:29.0000000+00:00</time></trkpt><trkpt lat="39.45270368" lon="-0.3459742"><ele>0.2</ele><time>2022-11-04T16:06:30.0000000+00:00</time></trkpt><trkpt lat="39.45268826" lon="-0.34597898"><ele>0.2</ele><time>2022-11-04T16:06:31.0000000+00:00</time></trkpt><trkpt lat="39.45267174" lon="-0.34598929"><ele>0.2</ele><time>2022-11-04T16:06:32.0000000+00:00</time></trkpt><trkpt lat="39.45265314" lon="-0.34599373"><ele>0.2</ele><time>2022-11-04T16:06:33.0000000+00:00</time></trkpt><trkpt lat="39.45263252" lon="-0.34599423"><ele>0.2</ele><time>2022-11-04T16:06:34.0000000+00:00</time></trkpt><trkpt lat="39.45261148" lon="-0.34598954"><ele>0.2</ele><time>2022-11-04T16:06:35.0000000+00:00</time></trkpt><trkpt lat="39.45259404" lon="-0.3459851"><ele>0.2</ele><time>2022-11-04T16:06:36.0000000+00:00</time></trkpt><trkpt lat="39.4525772" lon="-0.34598451"><ele>0.2</ele><time>2022-11-04T16:06:37.0000000+00:00</time></trkpt><trkpt lat="39.45256027" lon="-0.34598527"><ele>0.2</ele><time>2022-11-04T16:06:38.0000000+00:00</time></trkpt><trkpt lat="39.45253948" lon="-0.3459877"><ele>0.2</ele><time>2022-11-04T16:06:39.0000000+00:00</time></trkpt><trkpt lat="39.45252137" lon="-0.34598099"><ele>0.2</ele><time>2022-11-04T16:06:40.0000000+00:00</time></trkpt><trkpt lat="39.45251131" lon="-0.34596708"><ele>0.2</ele><time>2022-11-04T16:06:41.0000000+00:00</time></trkpt><trkpt lat="39.45250964" lon="-0.34595459"><ele>0.4</ele><time>2022-11-04T16:06:42.0000000+00:00</time></trkpt><trkpt lat="39.45250654" lon="-0.34594855"><ele>0.4</ele><time>2022-11-04T16:06:43.0000000+00:00</time></trkpt><trkpt lat="39.45249514" lon="-0.34594663"><ele>0.4</ele><time>2022-11-04T16:06:44.0000000+00:00</time></trkpt><trkpt lat="39.45247804" lon="-0.34595165"><ele>0.4</ele><time>2022-11-04T16:06:45.0000000+00:00</time></trkpt><trkpt lat="39.45245641" lon="-0.34595643"><ele>0.4</ele><time>2022-11-04T16:06:46.0000000+00:00</time></trkpt><trkpt lat="39.45243722" lon="-0.34595911"><ele>0.4</ele><time>2022-11-04T16:06:47.0000000+00:00</time></trkpt><trkpt lat="39.45241476" lon="-0.34596892"><ele>0.4</ele><time>2022-11-04T16:06:48.0000000+00:00</time></trkpt><trkpt lat="39.45239564" lon="-0.34596666"><ele>0.4</ele><time>2022-11-04T16:06:49.0000000+00:00</time></trkpt><trkpt lat="39.45237679" lon="-0.3459623"><ele>0.4</ele><time>2022-11-04T16:06:50.0000000+00:00</time></trkpt><trkpt lat="39.45235826" lon="-0.34595811"><ele>0.4</ele><time>2022-11-04T16:06:51.0000000+00:00</time></trkpt><trkpt lat="39.45234619" lon="-0.3459447"><ele>0.4</ele><time>2022-11-04T16:06:52.0000000+00:00</time></trkpt><trkpt lat="39.45233169" lon="-0.34592651"><ele>0.2</ele><time>2022-11-04T16:06:53.0000000+00:00</time></trkpt><trkpt lat="39.45232549" lon="-0.34591033"><ele>0.2</ele><time>2022-11-04T16:06:54.0000000+00:00</time></trkpt><trkpt lat="39.45232373" lon="-0.34589424"><ele>0.2</ele><time>2022-11-04T16:06:55.0000000+00:00</time></trkpt><trkpt lat="39.45233244" lon="-0.34587395"><ele>0.2</ele><time>2022-11-04T16:06:56.0000000+00:00</time></trkpt><trkpt lat="39.45234426" lon="-0.34585476"><ele>0.2</ele><time>2022-11-04T16:06:57.0000000+00:00</time></trkpt><trkpt lat="39.45235751" lon="-0.34584143"><ele>0.2</ele><time>2022-11-04T16:06:58.0000000+00:00</time></trkpt><trkpt lat="39.4523731" lon="-0.34582836"><ele>0.2</ele><time>2022-11-04T16:06:59.0000000+00:00</time></trkpt><trkpt lat="39.45238148" lon="-0.34582031"><ele>0.4</ele><time>2022-11-04T16:07:00.0000000+00:00</time></trkpt><trkpt lat="39.45238466" lon="-0.34580933"><ele>0.6</ele><time>2022-11-04T16:07:01.0000000+00:00</time></trkpt><trkpt lat="39.45238835" lon="-0.34580304"><ele>1.0</ele><time>2022-11-04T16:07:02.0000000+00:00</time></trkpt><trkpt lat="39.45239338" lon="-0.34579399"><ele>1.2</ele><time>2022-11-04T16:07:03.0000000+00:00</time></trkpt><trkpt lat="39.45239875" lon="-0.34578393"><ele>1.6</ele><time>2022-11-04T16:07:04.0000000+00:00</time></trkpt><trkpt lat="39.45240445" lon="-0.34577128"><ele>1.8</ele><time>2022-11-04T16:07:05.0000000+00:00</time></trkpt><trkpt lat="39.45241056" lon="-0.34575979"><ele>2.0</ele><time>2022-11-04T16:07:06.0000000+00:00</time></trkpt><trkpt lat="39.45241551" lon="-0.34574898"><ele>2.0</ele><time>2022-11-04T16:07:07.0000000+00:00</time></trkpt><trkpt lat="39.45241702" lon="-0.3457359"><ele>2.2</ele><time>2022-11-04T16:07:08.0000000+00:00</time></trkpt><trkpt lat="39.45241643" lon="-0.34572258"><ele>2.4</ele><time>2022-11-04T16:07:09.0000000+00:00</time></trkpt><trkpt lat="39.45240788" lon="-0.34571168"><ele>2.4</ele><time>2022-11-04T16:07:10.0000000+00:00</time></trkpt><trkpt lat="39.45240377" lon="-0.3457038"><ele>2.4</ele><time>2022-11-04T16:07:11.0000000+00:00</time></trkpt><trkpt lat="39.4524083" lon="-0.34569458"><ele>2.6</ele><time>2022-11-04T16:07:12.0000000+00:00</time></trkpt><trkpt lat="39.45240277" lon="-0.3456883"><ele>2.6</ele><time>2022-11-04T16:07:13.0000000+00:00</time></trkpt><trkpt lat="39.45240051" lon="-0.34566902"><ele>2.6</ele><time>2022-11-04T16:07:14.0000000+00:00</time></trkpt><trkpt lat="39.45239514" lon="-0.34564345"><ele>2.6</ele><time>2022-11-04T16:07:15.0000000+00:00</time></trkpt><trkpt lat="39.45239472" lon="-0.34562367"><ele>2.4</ele><time>2022-11-04T16:07:16.0000000+00:00</time></trkpt><trkpt lat="39.45239129" lon="-0.34560255"><ele>2.2</ele><time>2022-11-04T16:07:17.0000000+00:00</time></trkpt><trkpt lat="39.45238785" lon="-0.34559542"><ele>2.0</ele><time>2022-11-04T16:07:18.0000000+00:00</time></trkpt><trkpt lat="39.4523912" lon="-0.34558486"><ele>2.0</ele><time>2022-11-04T16:07:19.0000000+00:00</time></trkpt><trkpt lat="39.45238927" lon="-0.34557992"><ele>2.0</ele><time>2022-11-04T16:07:20.0000000+00:00</time></trkpt><trkpt lat="39.45238978" lon="-0.34556676"><ele>2.0</ele><time>2022-11-04T16:07:21.0000000+00:00</time></trkpt><trkpt lat="39.45239363" lon="-0.3455531"><ele>2.0</ele><time>2022-11-04T16:07:22.0000000+00:00</time></trkpt><trkpt lat="39.45239757" lon="-0.34553516"><ele>1.8</ele><time>2022-11-04T16:07:23.0000000+00:00</time></trkpt><trkpt lat="39.45239548" lon="-0.34551077"><ele>1.8</ele><time>2022-11-04T16:07:24.0000000+00:00</time></trkpt><trkpt lat="39.45239388" lon="-0.34548763"><ele>1.8</ele><time>2022-11-04T16:07:25.0000000+00:00</time></trkpt><trkpt lat="39.45239129" lon="-0.34546944"><ele>1.8</ele><time>2022-11-04T16:07:26.0000000+00:00</time></trkpt><trkpt lat="39.45239095" lon="-0.34546483"><ele>1.8</ele><time>2022-11-04T16:07:27.0000000+00:00</time></trkpt><trkpt lat="39.45239112" lon="-0.3454541"><ele>1.8</ele><time>2022-11-04T16:07:28.0000000+00:00</time></trkpt><trkpt lat="39.4523964" lon="-0.34545251"><ele>2.0</ele><time>2022-11-04T16:07:29.0000000+00:00</time></trkpt><trkpt lat="39.45239984" lon="-0.34544631"><ele>2.4</ele><time>2022-11-04T16:07:30.0000000+00:00</time></trkpt><trkpt lat="39.4523974" lon="-0.34545469"><ele>2.6</ele><time>2022-11-04T16:07:31.0000000+00:00</time></trkpt><trkpt lat="39.45240193" lon="-0.34546182"><ele>3.2</ele><time>2022-11-04T16:07:32.0000000+00:00</time></trkpt><trkpt lat="39.45240897" lon="-0.34546475"><ele>3.4</ele><time>2022-11-04T16:07:33.0000000+00:00</time></trkpt><trkpt lat="39.45241392" lon="-0.34546844"><ele>3.8</ele><time>2022-11-04T16:07:34.0000000+00:00</time></trkpt><trkpt lat="39.45242532" lon="-0.34546366"><ele>4.0</ele><time>2022-11-04T16:07:35.0000000+00:00</time></trkpt><trkpt lat="39.45243395" lon="-0.34545721"><ele>4.2</ele><time>2022-11-04T16:07:36.0000000+00:00</time></trkpt><trkpt lat="39.45243789" lon="-0.34545888"><ele>4.6</ele><time>2022-11-04T16:07:37.0000000+00:00</time></trkpt><trkpt lat="39.45245298" lon="-0.34543709"><ele>4.6</ele><time>2022-11-04T16:07:38.0000000+00:00</time></trkpt><trkpt lat="39.45246664" lon="-0.34541169"><ele>4.8</ele><time>2022-11-04T16:07:39.0000000+00:00</time></trkpt><trkpt lat="39.45247276" lon="-0.34539451"><ele>4.8</ele><time>2022-11-04T16:07:40.0000000+00:00</time></trkpt><trkpt lat="39.45247854" lon="-0.34539392"><ele>4.8</ele><time>2022-11-04T16:07:41.0000000+00:00</time></trkpt><trkpt lat="39.45248005" lon="-0.34540029"><ele>4.8</ele><time>2022-11-04T16:07:42.0000000+00:00</time></trkpt><trkpt lat="39.45248474" lon="-0.34540524"><ele>4.8</ele><time>2022-11-04T16:07:43.0000000+00:00</time></trkpt><trkpt lat="39.45249455" lon="-0.34540247"><ele>4.8</ele><time>2022-11-04T16:07:44.0000000+00:00</time></trkpt><trkpt lat="39.45249371" lon="-0.345407"><ele>4.8</ele><time>2022-11-04T16:07:45.0000000+00:00</time></trkpt><trkpt lat="39.45249137" lon="-0.34540993"><ele>4.8</ele><time>2022-11-04T16:07:46.0000000+00:00</time></trkpt><trkpt lat="39.45249078" lon="-0.3454122"><ele>5.0</ele><time>2022-11-04T16:07:47.0000000+00:00</time></trkpt><trkpt lat="39.45249036" lon="-0.34541379"><ele>5.0</ele><time>2022-11-04T16:07:48.0000000+00:00</time></trkpt><trkpt lat="39.4524912" lon="-0.34541379"><ele>5.2</ele><time>2022-11-04T16:07:49.0000000+00:00</time></trkpt><trkpt lat="39.45249095" lon="-0.34541337"><ele>5.2</ele><time>2022-11-04T16:07:50.0000000+00:00</time></trkpt><trkpt lat="39.45249162" lon="-0.3454132"><ele>5.2</ele><time>2022-11-04T16:07:51.0000000+00:00</time></trkpt><trkpt lat="39.45249799" lon="-0.34540046"><ele>5.2</ele><time>2022-11-04T16:07:52.0000000+00:00</time></trkpt><trkpt lat="39.45249849" lon="-0.34539954"><ele>5.2</ele><time>2022-11-04T16:07:53.0000000+00:00</time></trkpt><trkpt lat="39.45249849" lon="-0.34539954"><ele>5.2</ele><time>2022-11-04T16:07:54.0000000+00:00</time></trkpt><trkpt lat="39.45249849" lon="-0.34539954"><ele>5.2</ele><time>2022-11-04T16:07:55.0000000+00:00</time></trkpt><trkpt lat="39.45249849" lon="-0.34539954"><ele>5.2</ele><time>2022-11-04T16:07:56.0000000+00:00</time></trkpt><trkpt lat="39.45249849" lon="-0.34539954"><ele>5.2</ele><time>2022-11-04T16:07:57.0000000+00:00</time></trkpt><trkpt lat="39.45249849" lon="-0.34539954"><ele>5.2</ele><time>2022-11-04T16:07:58.0000000+00:00</time></trkpt><trkpt lat="39.45249849" lon="-0.34539954"><ele>5.2</ele><time>2022-11-04T16:07:59.0000000+00:00</time></trkpt><trkpt lat="39.45249849" lon="-0.34539954"><ele>5.2</ele><time>2022-11-04T16:08:00.0000000+00:00</time></trkpt><trkpt lat="39.45249799" lon="-0.34539954"><ele>5.2</ele><time>2022-11-04T16:08:01.0000000+00:00</time></trkpt><trkpt lat="39.45249665" lon="-0.34539954"><ele>5.2</ele><time>2022-11-04T16:08:02.0000000+00:00</time></trkpt><trkpt lat="39.45249665" lon="-0.34539954"><ele>5.2</ele><time>2022-11-04T16:08:03.0000000+00:00</time></trkpt><trkpt lat="39.45249665" lon="-0.34539954"><ele>5.2</ele><time>2022-11-04T16:08:04.0000000+00:00</time></trkpt><trkpt lat="39.45249665" lon="-0.34539954"><ele>5.2</ele><time>2022-11-04T16:08:05.0000000+00:00</time></trkpt><trkpt lat="39.45249665" lon="-0.34539954"><ele>5.2</ele><time>2022-11-04T16:08:06.0000000+00:00</time></trkpt><trkpt lat="39.4524964" lon="-0.34539954"><ele>5.2</ele><time>2022-11-04T16:08:07.0000000+00:00</time></trkpt><trkpt lat="39.4524964" lon="-0.34539954"><ele>5.2</ele><time>2022-11-04T16:08:08.0000000+00:00</time></trkpt><trkpt lat="39.45249606" lon="-0.34539702"><ele>5.2</ele><time>2022-11-04T16:08:09.0000000+00:00</time></trkpt><trkpt lat="39.45249589" lon="-0.34539686"><ele>5.2</ele><time>2022-11-04T16:08:10.0000000+00:00</time></trkpt><trkpt lat="39.45249564" lon="-0.34539686"><ele>5.2</ele><time>2022-11-04T16:08:11.0000000+00:00</time></trkpt><trkpt lat="39.45249531" lon="-0.34539686"><ele>5.2</ele><time>2022-11-04T16:08:12.0000000+00:00</time></trkpt><trkpt lat="39.45249514" lon="-0.34539552"><ele>5.2</ele><time>2022-11-04T16:08:13.0000000+00:00</time></trkpt><trkpt lat="39.45249514" lon="-0.34539526"><ele>5.2</ele><time>2022-11-04T16:08:14.0000000+00:00</time></trkpt><trkpt lat="39.45249505" lon="-0.34539493"><ele>5.4</ele><time>2022-11-04T16:08:15.0000000+00:00</time></trkpt><trkpt lat="39.45249505" lon="-0.34539191"><ele>5.6</ele><time>2022-11-04T16:08:16.0000000+00:00</time></trkpt><trkpt lat="39.45249505" lon="-0.34539124"><ele>5.8</ele><time>2022-11-04T16:08:17.0000000+00:00</time></trkpt><trkpt lat="39.45249505" lon="-0.34539099"><ele>5.8</ele><time>2022-11-04T16:08:18.0000000+00:00</time></trkpt><trkpt lat="39.45249505" lon="-0.34539082"><ele>5.8</ele><time>2022-11-04T16:08:19.0000000+00:00</time></trkpt><trkpt lat="39.45249505" lon="-0.34539074"><ele>5.8</ele><time>2022-11-04T16:08:20.0000000+00:00</time></trkpt><trkpt lat="39.45249505" lon="-0.34539049"><ele>6.0</ele><time>2022-11-04T16:08:21.0000000+00:00</time></trkpt><trkpt lat="39.45249472" lon="-0.3453904"><ele>6.2</ele><time>2022-11-04T16:08:22.0000000+00:00</time></trkpt><trkpt lat="39.45249463" lon="-0.34539032"><ele>6.2</ele><time>2022-11-04T16:08:23.0000000+00:00</time></trkpt><trkpt lat="39.45249396" lon="-0.34539007"><ele>6.2</ele><time>2022-11-04T16:08:24.0000000+00:00</time></trkpt><trkpt lat="39.45249388" lon="-0.34538998"><ele>6.4</ele><time>2022-11-04T16:08:25.0000000+00:00</time></trkpt><trkpt lat="39.45249388" lon="-0.34538948"><ele>6.4</ele><time>2022-11-04T16:08:26.0000000+00:00</time></trkpt><trkpt lat="39.45249388" lon="-0.34538931"><ele>6.4</ele><time>2022-11-04T16:08:27.0000000+00:00</time></trkpt><trkpt lat="39.45249078" lon="-0.34538914"><ele>6.4</ele><time>2022-11-04T16:08:28.0000000+00:00</time></trkpt><trkpt lat="39.45248868" lon="-0.34538655"><ele>6.6</ele><time>2022-11-04T16:08:29.0000000+00:00</time></trkpt><trkpt lat="39.45248734" lon="-0.34538345"><ele>6.4</ele><time>2022-11-04T16:08:30.0000000+00:00</time></trkpt><trkpt lat="39.4524834" lon="-0.34538294"><ele>6.4</ele><time>2022-11-04T16:08:31.0000000+00:00</time></trkpt><trkpt lat="39.4524798" lon="-0.34538277"><ele>6.4</ele><time>2022-11-04T16:08:32.0000000+00:00</time></trkpt><trkpt lat="39.45247678" lon="-0.34538277"><ele>6.4</ele><time>2022-11-04T16:08:33.0000000+00:00</time></trkpt><trkpt lat="39.45247619" lon="-0.34538277"><ele>6.4</ele><time>2022-11-04T16:08:34.0000000+00:00</time></trkpt><trkpt lat="39.45247552" lon="-0.34538277"><ele>6.2</ele><time>2022-11-04T16:08:35.0000000+00:00</time></trkpt><trkpt lat="39.4524751" lon="-0.34538277"><ele>6.2</ele><time>2022-11-04T16:08:36.0000000+00:00</time></trkpt><trkpt lat="39.45247385" lon="-0.34538277"><ele>6.2</ele><time>2022-11-04T16:08:37.0000000+00:00</time></trkpt><trkpt lat="39.45247326" lon="-0.34538277"><ele>6.0</ele><time>2022-11-04T16:08:38.0000000+00:00</time></trkpt><trkpt lat="39.45247251" lon="-0.34538277"><ele>6.0</ele><time>2022-11-04T16:08:39.0000000+00:00</time></trkpt><trkpt lat="39.45247209" lon="-0.34538277"><ele>6.0</ele><time>2022-11-04T16:08:40.0000000+00:00</time></trkpt><trkpt lat="39.45247175" lon="-0.34538277"><ele>6.0</ele><time>2022-11-04T16:08:41.0000000+00:00</time></trkpt><trkpt lat="39.45247133" lon="-0.34538277"><ele>6.0</ele><time>2022-11-04T16:08:42.0000000+00:00</time></trkpt><trkpt lat="39.45247117" lon="-0.34538277"><ele>6.0</ele><time>2022-11-04T16:08:43.0000000+00:00</time></trkpt><trkpt lat="39.45247108" lon="-0.34538277"><ele>6.0</ele><time>2022-11-04T16:08:44.0000000+00:00</time></trkpt><trkpt lat="39.45247058" lon="-0.34538277"><ele>6.0</ele><time>2022-11-04T16:08:45.0000000+00:00</time></trkpt><trkpt lat="39.45247033" lon="-0.34538361"><ele>6.0</ele><time>2022-11-04T16:08:46.0000000+00:00</time></trkpt><trkpt lat="39.45247024" lon="-0.34538462"><ele>6.0</ele><time>2022-11-04T16:08:47.0000000+00:00</time></trkpt><trkpt lat="39.45247024" lon="-0.34538487"><ele>5.8</ele><time>2022-11-04T16:08:48.0000000+00:00</time></trkpt><trkpt lat="39.45247024" lon="-0.34538495"><ele>5.8</ele><time>2022-11-04T16:08:49.0000000+00:00</time></trkpt><trkpt lat="39.45247024" lon="-0.34538504"><ele>5.8</ele><time>2022-11-04T16:08:50.0000000+00:00</time></trkpt><trkpt lat="39.45247024" lon="-0.34538504"><ele>5.8</ele><time>2022-11-04T16:08:51.0000000+00:00</time></trkpt><trkpt lat="39.45247024" lon="-0.34538504"><ele>5.8</ele><time>2022-11-04T16:08:52.0000000+00:00</time></trkpt><trkpt lat="39.45247024" lon="-0.34538504"><ele>5.8</ele><time>2022-11-04T16:08:53.0000000+00:00</time></trkpt><trkpt lat="39.45247024" lon="-0.34538504"><ele>5.6</ele><time>2022-11-04T16:08:54.0000000+00:00</time></trkpt><trkpt lat="39.45247033" lon="-0.34538504"><ele>5.6</ele><time>2022-11-04T16:08:55.0000000+00:00</time></trkpt><trkpt lat="39.45247083" lon="-0.34538504"><ele>5.6</ele><time>2022-11-04T16:08:56.0000000+00:00</time></trkpt><trkpt lat="39.45247108" lon="-0.34538504"><ele>5.6</ele><time>2022-11-04T16:08:57.0000000+00:00</time></trkpt><trkpt lat="39.45247125" lon="-0.34538504"><ele>5.6</ele><time>2022-11-04T16:08:58.0000000+00:00</time></trkpt><trkpt lat="39.45247133" lon="-0.34538504"><ele>5.6</ele><time>2022-11-04T16:08:59.0000000+00:00</time></trkpt><trkpt lat="39.45247133" lon="-0.34538504"><ele>5.6</ele><time>2022-11-04T16:09:00.0000000+00:00</time></trkpt><trkpt lat="39.45247142" lon="-0.34538504"><ele>5.6</ele><time>2022-11-04T16:09:01.0000000+00:00</time></trkpt><trkpt lat="39.45247184" lon="-0.34538487"><ele>5.6</ele><time>2022-11-04T16:09:02.0000000+00:00</time></trkpt><trkpt lat="39.452472" lon="-0.34538479"><ele>5.6</ele><time>2022-11-04T16:09:03.0000000+00:00</time></trkpt><trkpt lat="39.45247217" lon="-0.34538479"><ele>5.6</ele><time>2022-11-04T16:09:04.0000000+00:00</time></trkpt><trkpt lat="39.45247234" lon="-0.34538462"><ele>5.6</ele><time>2022-11-04T16:09:05.0000000+00:00</time></trkpt><trkpt lat="39.45247276" lon="-0.34538453"><ele>5.6</ele><time>2022-11-04T16:09:06.0000000+00:00</time></trkpt><trkpt lat="39.45247301" lon="-0.34538445"><ele>5.6</ele><time>2022-11-04T16:09:07.0000000+00:00</time></trkpt><trkpt lat="39.45247309" lon="-0.3453842"><ele>5.6</ele><time>2022-11-04T16:09:08.0000000+00:00</time></trkpt><trkpt lat="39.45247309" lon="-0.34538412"><ele>5.6</ele><time>2022-11-04T16:09:09.0000000+00:00</time></trkpt><trkpt lat="39.45247318" lon="-0.34538386"><ele>5.6</ele><time>2022-11-04T16:09:10.0000000+00:00</time></trkpt><trkpt lat="39.45247318" lon="-0.34538378"><ele>5.6</ele><time>2022-11-04T16:09:11.0000000+00:00</time></trkpt><trkpt lat="39.45247318" lon="-0.3453837"><ele>5.6</ele><time>2022-11-04T16:09:12.0000000+00:00</time></trkpt><trkpt lat="39.45247318" lon="-0.3453837"><ele>5.6</ele><time>2022-11-04T16:09:13.0000000+00:00</time></trkpt><trkpt lat="39.45247318" lon="-0.34538361"><ele>5.6</ele><time>2022-11-04T16:09:14.0000000+00:00</time></trkpt><trkpt lat="39.45247318" lon="-0.34538361"><ele>5.6</ele><time>2022-11-04T16:09:15.0000000+00:00</time></trkpt><trkpt lat="39.45247318" lon="-0.34538345"><ele>5.6</ele><time>2022-11-04T16:09:16.0000000+00:00</time></trkpt><trkpt lat="39.45247318" lon="-0.34538345"><ele>5.6</ele><time>2022-11-04T16:09:17.0000000+00:00</time></trkpt><trkpt lat="39.45247309" lon="-0.34538353"><ele>5.6</ele><time>2022-11-04T16:09:18.0000000+00:00</time></trkpt><trkpt lat="39.45247293" lon="-0.34538353"><ele>5.6</ele><time>2022-11-04T16:09:19.0000000+00:00</time></trkpt><trkpt lat="39.45247267" lon="-0.34538361"><ele>5.6</ele><time>2022-11-04T16:09:20.0000000+00:00</time></trkpt><trkpt lat="39.45247251" lon="-0.34538361"><ele>5.6</ele><time>2022-11-04T16:09:21.0000000+00:00</time></trkpt><trkpt lat="39.45247242" lon="-0.3453837"><ele>5.6</ele><time>2022-11-04T16:09:22.0000000+00:00</time></trkpt><trkpt lat="39.45247242" lon="-0.3453837"><ele>5.6</ele><time>2022-11-04T16:09:23.0000000+00:00</time></trkpt><trkpt lat="39.45247234" lon="-0.34538378"><ele>5.6</ele><time>2022-11-04T16:09:24.0000000+00:00</time></trkpt><trkpt lat="39.45247226" lon="-0.34538395"><ele>5.6</ele><time>2022-11-04T16:09:25.0000000+00:00</time></trkpt><trkpt lat="39.45247217" lon="-0.34538412"><ele>5.6</ele><time>2022-11-04T16:09:26.0000000+00:00</time></trkpt><trkpt lat="39.45247209" lon="-0.34538428"><ele>5.6</ele><time>2022-11-04T16:09:27.0000000+00:00</time></trkpt><trkpt lat="39.452472" lon="-0.34538445"><ele>5.6</ele><time>2022-11-04T16:09:28.0000000+00:00</time></trkpt><trkpt lat="39.45247192" lon="-0.34538462"><ele>5.6</ele><time>2022-11-04T16:09:29.0000000+00:00</time></trkpt><trkpt lat="39.45247192" lon="-0.34538487"><ele>5.6</ele><time>2022-11-04T16:09:30.0000000+00:00</time></trkpt><trkpt lat="39.4524715" lon="-0.34538504"><ele>5.6</ele><time>2022-11-04T16:09:31.0000000+00:00</time></trkpt><trkpt lat="39.45247125" lon="-0.34538512"><ele>5.6</ele><time>2022-11-04T16:09:32.0000000+00:00</time></trkpt><trkpt lat="39.45247066" lon="-0.34538554"><ele>5.6</ele><time>2022-11-04T16:09:33.0000000+00:00</time></trkpt><trkpt lat="39.45246974" lon="-0.34538604"><ele>5.6</ele><time>2022-11-04T16:09:34.0000000+00:00</time></trkpt><trkpt lat="39.45246823" lon="-0.34538671"><ele>5.6</ele><time>2022-11-04T16:09:35.0000000+00:00</time></trkpt><trkpt lat="39.45246689" lon="-0.34538747"><ele>5.6</ele><time>2022-11-04T16:09:36.0000000+00:00</time></trkpt><trkpt lat="39.45246597" lon="-0.34538831"><ele>5.6</ele><time>2022-11-04T16:09:37.0000000+00:00</time></trkpt><trkpt lat="39.4524648" lon="-0.34538906"><ele>5.6</ele><time>2022-11-04T16:09:38.0000000+00:00</time></trkpt><trkpt lat="39.45246329" lon="-0.34538965"><ele>5.6</ele><time>2022-11-04T16:09:39.0000000+00:00</time></trkpt><trkpt lat="39.45246153" lon="-0.34539015"><ele>5.6</ele><time>2022-11-04T16:09:40.0000000+00:00</time></trkpt><trkpt lat="39.45245993" lon="-0.34539082"><ele>5.6</ele><time>2022-11-04T16:09:41.0000000+00:00</time></trkpt><trkpt lat="39.45245641" lon="-0.34539149"><ele>5.6</ele><time>2022-11-04T16:09:42.0000000+00:00</time></trkpt><trkpt lat="39.45245381" lon="-0.34539225"><ele>5.6</ele><time>2022-11-04T16:09:43.0000000+00:00</time></trkpt><trkpt lat="39.45245172" lon="-0.34539283"><ele>5.6</ele><time>2022-11-04T16:09:44.0000000+00:00</time></trkpt><trkpt lat="39.45245021" lon="-0.34539325"><ele>5.6</ele><time>2022-11-04T16:09:45.0000000+00:00</time></trkpt><trkpt lat="39.4524492" lon="-0.34539359"><ele>5.6</ele><time>2022-11-04T16:09:46.0000000+00:00</time></trkpt><trkpt lat="39.45244853" lon="-0.34539392"><ele>5.6</ele><time>2022-11-04T16:09:47.0000000+00:00</time></trkpt><trkpt lat="39.45244744" lon="-0.34539484"><ele>5.6</ele><time>2022-11-04T16:09:48.0000000+00:00</time></trkpt><trkpt lat="39.45244636" lon="-0.34539543"><ele>5.6</ele><time>2022-11-04T16:09:49.0000000+00:00</time></trkpt><trkpt lat="39.45244577" lon="-0.34539593"><ele>5.6</ele><time>2022-11-04T16:09:50.0000000+00:00</time></trkpt><trkpt lat="39.45244543" lon="-0.34539627"><ele>5.6</ele><time>2022-11-04T16:09:51.0000000+00:00</time></trkpt><trkpt lat="39.45244527" lon="-0.34539652"><ele>5.6</ele><time>2022-11-04T16:09:52.0000000+00:00</time></trkpt><trkpt lat="39.4524451" lon="-0.34539669"><ele>5.6</ele><time>2022-11-04T16:09:53.0000000+00:00</time></trkpt><trkpt lat="39.45244501" lon="-0.34539686"><ele>5.6</ele><time>2022-11-04T16:09:54.0000000+00:00</time></trkpt><trkpt lat="39.45244501" lon="-0.34539686"><ele>5.6</ele><time>2022-11-04T16:09:55.0000000+00:00</time></trkpt><trkpt lat="39.45244501" lon="-0.34539694"><ele>5.6</ele><time>2022-11-04T16:09:56.0000000+00:00</time></trkpt><trkpt lat="39.45244501" lon="-0.34539694"><ele>5.6</ele><time>2022-11-04T16:09:57.0000000+00:00</time></trkpt><trkpt lat="39.45244493" lon="-0.34539702"><ele>5.6</ele><time>2022-11-04T16:09:58.0000000+00:00</time></trkpt><trkpt lat="39.45244493" lon="-0.34539711"><ele>5.6</ele><time>2022-11-04T16:09:59.0000000+00:00</time></trkpt><trkpt lat="39.45244493" lon="-0.34539719"><ele>5.6</ele><time>2022-11-04T16:10:00.0000000+00:00</time></trkpt><trkpt lat="39.45244493" lon="-0.34539728"><ele>5.6</ele><time>2022-11-04T16:10:01.0000000+00:00</time></trkpt><trkpt lat="39.45244493" lon="-0.34539736"><ele>5.6</ele><time>2022-11-04T16:10:02.0000000+00:00</time></trkpt><trkpt lat="39.45244493" lon="-0.34539736"><ele>5.6</ele><time>2022-11-04T16:10:03.0000000+00:00</time></trkpt><trkpt lat="39.4524451" lon="-0.34539744"><ele>5.6</ele><time>2022-11-04T16:10:04.0000000+00:00</time></trkpt><trkpt lat="39.45244527" lon="-0.34539744"><ele>5.6</ele><time>2022-11-04T16:10:05.0000000+00:00</time></trkpt><trkpt lat="39.45244543" lon="-0.34539736"><ele>5.6</ele><time>2022-11-04T16:10:06.0000000+00:00</time></trkpt><trkpt lat="39.4524456" lon="-0.34539736"><ele>5.6</ele><time>2022-11-04T16:10:07.0000000+00:00</time></trkpt><trkpt lat="39.45244585" lon="-0.34539736"><ele>5.6</ele><time>2022-11-04T16:10:08.0000000+00:00</time></trkpt><trkpt lat="39.45244602" lon="-0.34539736"><ele>5.6</ele><time>2022-11-04T16:10:09.0000000+00:00</time></trkpt><trkpt lat="39.45244627" lon="-0.34539736"><ele>5.6</ele><time>2022-11-04T16:10:10.0000000+00:00</time></trkpt><trkpt lat="39.45244652" lon="-0.34539736"><ele>5.6</ele><time>2022-11-04T16:10:11.0000000+00:00</time></trkpt><trkpt lat="39.45244677" lon="-0.34539736"><ele>5.6</ele><time>2022-11-04T16:10:12.0000000+00:00</time></trkpt><trkpt lat="39.45244694" lon="-0.34539736"><ele>5.6</ele><time>2022-11-04T16:10:13.0000000+00:00</time></trkpt><trkpt lat="39.45244703" lon="-0.34539728"><ele>5.6</ele><time>2022-11-04T16:10:14.0000000+00:00</time></trkpt><trkpt lat="39.45244711" lon="-0.34539719"><ele>5.6</ele><time>2022-11-04T16:10:15.0000000+00:00</time></trkpt><trkpt lat="39.45244711" lon="-0.34539719"><ele>5.6</ele><time>2022-11-04T16:10:16.0000000+00:00</time></trkpt><trkpt lat="39.45244719" lon="-0.34539711"><ele>5.6</ele><time>2022-11-04T16:10:17.0000000+00:00</time></trkpt><trkpt lat="39.45244719" lon="-0.34539711"><ele>5.6</ele><time>2022-11-04T16:10:18.0000000+00:00</time></trkpt><trkpt lat="39.45244719" lon="-0.34539719"><ele>5.6</ele><time>2022-11-04T16:10:19.0000000+00:00</time></trkpt><trkpt lat="39.45244728" lon="-0.34539719"><ele>5.6</ele><time>2022-11-04T16:10:20.0000000+00:00</time></trkpt><trkpt lat="39.45244728" lon="-0.34539728"><ele>5.6</ele><time>2022-11-04T16:10:21.0000000+00:00</time></trkpt><trkpt lat="39.45244728" lon="-0.34539728"><ele>5.6</ele><time>2022-11-04T16:10:22.0000000+00:00</time></trkpt><trkpt lat="39.45244719" lon="-0.34539736"><ele>5.6</ele><time>2022-11-04T16:10:23.0000000+00:00</time></trkpt><trkpt lat="39.45244711" lon="-0.34539744"><ele>5.6</ele><time>2022-11-04T16:10:24.0000000+00:00</time></trkpt><trkpt lat="39.45244694" lon="-0.34539753"><ele>5.6</ele><time>2022-11-04T16:10:25.0000000+00:00</time></trkpt><trkpt lat="39.45244669" lon="-0.34539761"><ele>5.6</ele><time>2022-11-04T16:10:26.0000000+00:00</time></trkpt><trkpt lat="39.45244636" lon="-0.34539769"><ele>5.6</ele><time>2022-11-04T16:10:27.0000000+00:00</time></trkpt><trkpt lat="39.45244577" lon="-0.34539778"><ele>5.6</ele><time>2022-11-04T16:10:28.0000000+00:00</time></trkpt><trkpt lat="39.45244527" lon="-0.34539786"><ele>5.6</ele><time>2022-11-04T16:10:29.0000000+00:00</time></trkpt><trkpt lat="39.45244485" lon="-0.34539786"><ele>5.6</ele><time>2022-11-04T16:10:30.0000000+00:00</time></trkpt><trkpt lat="39.45244451" lon="-0.34539795"><ele>5.6</ele><time>2022-11-04T16:10:31.0000000+00:00</time></trkpt><trkpt lat="39.45244418" lon="-0.34539803"><ele>5.6</ele><time>2022-11-04T16:10:32.0000000+00:00</time></trkpt><trkpt lat="39.45244392" lon="-0.34539811"><ele>5.6</ele><time>2022-11-04T16:10:33.0000000+00:00</time></trkpt><trkpt lat="39.45244367" lon="-0.34539828"><ele>5.6</ele><time>2022-11-04T16:10:34.0000000+00:00</time></trkpt><trkpt lat="39.45244342" lon="-0.34539845"><ele>5.6</ele><time>2022-11-04T16:10:35.0000000+00:00</time></trkpt><trkpt lat="39.45244325" lon="-0.34539862"><ele>5.6</ele><time>2022-11-04T16:10:36.0000000+00:00</time></trkpt><trkpt lat="39.45244309" lon="-0.34539878"><ele>5.6</ele><time>2022-11-04T16:10:37.0000000+00:00</time></trkpt><trkpt lat="39.45244292" lon="-0.34539895"><ele>5.6</ele><time>2022-11-04T16:10:38.0000000+00:00</time></trkpt><trkpt lat="39.45244275" lon="-0.34539912"><ele>5.6</ele><time>2022-11-04T16:10:39.0000000+00:00</time></trkpt><trkpt lat="39.45244258" lon="-0.34539929"><ele>5.6</ele><time>2022-11-04T16:10:40.0000000+00:00</time></trkpt><trkpt lat="39.45244233" lon="-0.34539945"><ele>5.6</ele><time>2022-11-04T16:10:41.0000000+00:00</time></trkpt><trkpt lat="39.452442" lon="-0.34539962"><ele>5.6</ele><time>2022-11-04T16:10:42.0000000+00:00</time></trkpt><trkpt lat="39.45244166" lon="-0.34539971"><ele>5.6</ele><time>2022-11-04T16:10:43.0000000+00:00</time></trkpt><trkpt lat="39.45244141" lon="-0.34539987"><ele>5.6</ele><time>2022-11-04T16:10:44.0000000+00:00</time></trkpt><trkpt lat="39.45244116" lon="-0.34539996"><ele>5.6</ele><time>2022-11-04T16:10:45.0000000+00:00</time></trkpt><trkpt lat="39.45244082" lon="-0.34540013"><ele>5.6</ele><time>2022-11-04T16:10:46.0000000+00:00</time></trkpt><trkpt lat="39.45244049" lon="-0.34540021"><ele>5.6</ele><time>2022-11-04T16:10:47.0000000+00:00</time></trkpt><trkpt lat="39.45244024" lon="-0.34540029"><ele>5.6</ele><time>2022-11-04T16:10:48.0000000+00:00</time></trkpt><trkpt lat="39.45244007" lon="-0.34540038"><ele>5.6</ele><time>2022-11-04T16:10:49.0000000+00:00</time></trkpt><trkpt lat="39.4524399" lon="-0.34540046"><ele>5.6</ele><time>2022-11-04T16:10:50.0000000+00:00</time></trkpt><trkpt lat="39.45243973" lon="-0.34540054"><ele>5.6</ele><time>2022-11-04T16:10:51.0000000+00:00</time></trkpt><trkpt lat="39.45243948" lon="-0.34540063"><ele>5.6</ele><time>2022-11-04T16:10:52.0000000+00:00</time></trkpt><trkpt lat="39.45243923" lon="-0.34540063"><ele>5.6</ele><time>2022-11-04T16:10:53.0000000+00:00</time></trkpt><trkpt lat="39.4524389" lon="-0.34540071"><ele>5.6</ele><time>2022-11-04T16:10:54.0000000+00:00</time></trkpt><trkpt lat="39.45243864" lon="-0.34540071"><ele>5.6</ele><time>2022-11-04T16:10:55.0000000+00:00</time></trkpt><trkpt lat="39.45243831" lon="-0.3454008"><ele>5.6</ele><time>2022-11-04T16:10:56.0000000+00:00</time></trkpt><trkpt lat="39.45243789" lon="-0.3454008"><ele>5.6</ele><time>2022-11-04T16:10:57.0000000+00:00</time></trkpt><trkpt lat="39.45243764" lon="-0.3454008"><ele>5.6</ele><time>2022-11-04T16:10:58.0000000+00:00</time></trkpt><trkpt lat="39.45243739" lon="-0.34540088"><ele>5.6</ele><time>2022-11-04T16:10:59.0000000+00:00</time></trkpt><trkpt lat="39.45243713" lon="-0.34540088"><ele>5.6</ele><time>2022-11-04T16:11:00.0000000+00:00</time></trkpt><trkpt lat="39.45243697" lon="-0.34540088"><ele>5.6</ele><time>2022-11-04T16:11:01.0000000+00:00</time></trkpt><trkpt lat="39.4524368" lon="-0.34540088"><ele>5.6</ele><time>2022-11-04T16:11:02.0000000+00:00</time></trkpt><trkpt lat="39.45243663" lon="-0.34540088"><ele>5.6</ele><time>2022-11-04T16:11:03.0000000+00:00</time></trkpt><trkpt lat="39.45243646" lon="-0.34540088"><ele>5.6</ele><time>2022-11-04T16:11:04.0000000+00:00</time></trkpt><trkpt lat="39.4524363" lon="-0.34540088"><ele>5.6</ele><time>2022-11-04T16:11:05.0000000+00:00</time></trkpt><trkpt lat="39.45243613" lon="-0.3454008"><ele>5.6</ele><time>2022-11-04T16:11:06.0000000+00:00</time></trkpt><trkpt lat="39.45243605" lon="-0.3454008"><ele>5.6</ele><time>2022-11-04T16:11:07.0000000+00:00</time></trkpt><trkpt lat="39.45243588" lon="-0.3454008"><ele>5.6</ele><time>2022-11-04T16:11:08.0000000+00:00</time></trkpt><trkpt lat="39.45243579" lon="-0.3454008"><ele>5.6</ele><time>2022-11-04T16:11:09.0000000+00:00</time></trkpt><trkpt lat="39.45243571" lon="-0.3454008"><ele>5.6</ele><time>2022-11-04T16:11:10.0000000+00:00</time></trkpt><trkpt lat="39.45243563" lon="-0.3454008"><ele>5.6</ele><time>2022-11-04T16:11:11.0000000+00:00</time></trkpt><trkpt lat="39.45243563" lon="-0.3454008"><ele>5.6</ele><time>2022-11-04T16:11:12.0000000+00:00</time></trkpt><trkpt lat="39.45243554" lon="-0.3454008"><ele>5.6</ele><time>2022-11-04T16:11:13.0000000+00:00</time></trkpt><trkpt lat="39.45243563" lon="-0.34540063"><ele>5.6</ele><time>2022-11-04T16:11:14.0000000+00:00</time></trkpt><trkpt lat="39.45243563" lon="-0.34540046"><ele>5.6</ele><time>2022-11-04T16:11:15.0000000+00:00</time></trkpt><trkpt lat="39.45243563" lon="-0.34540046"><ele>5.6</ele><time>2022-11-04T16:11:16.0000000+00:00</time></trkpt><trkpt lat="39.45243563" lon="-0.34540038"><ele>5.6</ele><time>2022-11-04T16:11:17.0000000+00:00</time></trkpt><trkpt lat="39.45243571" lon="-0.34540029"><ele>5.6</ele><time>2022-11-04T16:11:18.0000000+00:00</time></trkpt><trkpt lat="39.45243571" lon="-0.34540021"><ele>5.6</ele><time>2022-11-04T16:11:19.0000000+00:00</time></trkpt><trkpt lat="39.45243571" lon="-0.34540013"><ele>5.6</ele><time>2022-11-04T16:11:20.0000000+00:00</time></trkpt><trkpt lat="39.45243571" lon="-0.34540013"><ele>5.6</ele><time>2022-11-04T16:11:21.0000000+00:00</time></trkpt><trkpt lat="39.45243571" lon="-0.34540013"><ele>5.6</ele><time>2022-11-04T16:11:22.0000000+00:00</time></trkpt><trkpt lat="39.45243579" lon="-0.34540013"><ele>5.6</ele><time>2022-11-04T16:11:23.0000000+00:00</time></trkpt><trkpt lat="39.45243588" lon="-0.34540004"><ele>5.6</ele><time>2022-11-04T16:11:24.0000000+00:00</time></trkpt><trkpt lat="39.45243596" lon="-0.34539996"><ele>5.6</ele><time>2022-11-04T16:11:25.0000000+00:00</time></trkpt><trkpt lat="39.45243605" lon="-0.34539979"><ele>5.6</ele><time>2022-11-04T16:11:26.0000000+00:00</time></trkpt><trkpt lat="39.45243613" lon="-0.34539962"><ele>5.6</ele><time>2022-11-04T16:11:27.0000000+00:00</time></trkpt><trkpt lat="39.45243613" lon="-0.34539945"><ele>5.6</ele><time>2022-11-04T16:11:28.0000000+00:00</time></trkpt><trkpt lat="39.45243621" lon="-0.34539937"><ele>5.6</ele><time>2022-11-04T16:11:29.0000000+00:00</time></trkpt><trkpt lat="39.45243638" lon="-0.34539929"><ele>5.6</ele><time>2022-11-04T16:11:30.0000000+00:00</time></trkpt><trkpt lat="39.45243646" lon="-0.3453992"><ele>5.6</ele><time>2022-11-04T16:11:31.0000000+00:00</time></trkpt><trkpt lat="39.45243663" lon="-0.34539912"><ele>5.6</ele><time>2022-11-04T16:11:32.0000000+00:00</time></trkpt><trkpt lat="39.4524368" lon="-0.34539904"><ele>5.6</ele><time>2022-11-04T16:11:33.0000000+00:00</time></trkpt><trkpt lat="39.45243697" lon="-0.34539904"><ele>5.6</ele><time>2022-11-04T16:11:34.0000000+00:00</time></trkpt><trkpt lat="39.45243713" lon="-0.34539895"><ele>5.6</ele><time>2022-11-04T16:11:35.0000000+00:00</time></trkpt><trkpt lat="39.45243739" lon="-0.34539887"><ele>5.6</ele><time>2022-11-04T16:11:36.0000000+00:00</time></trkpt><trkpt lat="39.45243747" lon="-0.34539878"><ele>5.6</ele><time>2022-11-04T16:11:37.0000000+00:00</time></trkpt><trkpt lat="39.45243764" lon="-0.34539878"><ele>5.6</ele><time>2022-11-04T16:11:38.0000000+00:00</time></trkpt><trkpt lat="39.45243772" lon="-0.3453987"><ele>5.6</ele><time>2022-11-04T16:11:39.0000000+00:00</time></trkpt><trkpt lat="39.45243789" lon="-0.34539862"><ele>5.6</ele><time>2022-11-04T16:11:40.0000000+00:00</time></trkpt><trkpt lat="39.45243789" lon="-0.34539853"><ele>5.6</ele><time>2022-11-04T16:11:41.0000000+00:00</time></trkpt><trkpt lat="39.45243814" lon="-0.34539862"><ele>5.6</ele><time>2022-11-04T16:11:42.0000000+00:00</time></trkpt><trkpt lat="39.45243839" lon="-0.34539853"><ele>5.6</ele><time>2022-11-04T16:11:43.0000000+00:00</time></trkpt><trkpt lat="39.45243848" lon="-0.34539845"><ele>5.6</ele><time>2022-11-04T16:11:44.0000000+00:00</time></trkpt><trkpt lat="39.45243873" lon="-0.34539837"><ele>5.6</ele><time>2022-11-04T16:11:45.0000000+00:00</time></trkpt><trkpt lat="39.45243898" lon="-0.34539828"><ele>5.6</ele><time>2022-11-04T16:11:46.0000000+00:00</time></trkpt><trkpt lat="39.45243915" lon="-0.34539811"><ele>5.6</ele><time>2022-11-04T16:11:47.0000000+00:00</time></trkpt><trkpt lat="39.45243931" lon="-0.34539795"><ele>5.6</ele><time>2022-11-04T16:11:48.0000000+00:00</time></trkpt><trkpt lat="39.45243948" lon="-0.34539786"><ele>5.6</ele><time>2022-11-04T16:11:49.0000000+00:00</time></trkpt><trkpt lat="39.45243965" lon="-0.34539786"><ele>5.6</ele><time>2022-11-04T16:11:50.0000000+00:00</time></trkpt><trkpt lat="39.45243982" lon="-0.34539769"><ele>5.6</ele><time>2022-11-04T16:11:51.0000000+00:00</time></trkpt><trkpt lat="39.45243998" lon="-0.34539761"><ele>5.6</ele><time>2022-11-04T16:11:52.0000000+00:00</time></trkpt><trkpt lat="39.45244015" lon="-0.34539736"><ele>5.6</ele><time>2022-11-04T16:11:53.0000000+00:00</time></trkpt><trkpt lat="39.45244032" lon="-0.34539719"><ele>5.6</ele><time>2022-11-04T16:11:54.0000000+00:00</time></trkpt><trkpt lat="39.45244049" lon="-0.34539702"><ele>5.6</ele><time>2022-11-04T16:11:55.0000000+00:00</time></trkpt><trkpt lat="39.45244074" lon="-0.34539677"><ele>5.6</ele><time>2022-11-04T16:11:56.0000000+00:00</time></trkpt><trkpt lat="39.45244082" lon="-0.3453966"><ele>5.6</ele><time>2022-11-04T16:11:57.0000000+00:00</time></trkpt><trkpt lat="39.45244107" lon="-0.34539627"><ele>5.6</ele><time>2022-11-04T16:11:58.0000000+00:00</time></trkpt><trkpt lat="39.45244124" lon="-0.3453961"><ele>5.6</ele><time>2022-11-04T16:11:59.0000000+00:00</time></trkpt><trkpt lat="39.45244141" lon="-0.34539602"><ele>5.6</ele><time>2022-11-04T16:12:00.0000000+00:00</time></trkpt><trkpt lat="39.45244141" lon="-0.34539593"><ele>5.6</ele><time>2022-11-04T16:12:01.0000000+00:00</time></trkpt><trkpt lat="39.45244149" lon="-0.34539577"><ele>5.6</ele><time>2022-11-04T16:12:02.0000000+00:00</time></trkpt><trkpt lat="39.45244158" lon="-0.34539568"><ele>5.6</ele><time>2022-11-04T16:12:03.0000000+00:00</time></trkpt><trkpt lat="39.45244166" lon="-0.34539568"><ele>5.6</ele><time>2022-11-04T16:12:04.0000000+00:00</time></trkpt><trkpt lat="39.45244166" lon="-0.34539568"><ele>5.6</ele><time>2022-11-04T16:12:05.0000000+00:00</time></trkpt><trkpt lat="39.45244166" lon="-0.34539568"><ele>5.6</ele><time>2022-11-04T16:12:06.0000000+00:00</time></trkpt><trkpt lat="39.45244166" lon="-0.3453956"><ele>5.6</ele><time>2022-11-04T16:12:07.0000000+00:00</time></trkpt><trkpt lat="39.45244166" lon="-0.34539552"><ele>5.6</ele><time>2022-11-04T16:12:08.0000000+00:00</time></trkpt><trkpt lat="39.45244166" lon="-0.34539543"><ele>5.6</ele><time>2022-11-04T16:12:09.0000000+00:00</time></trkpt><trkpt lat="39.45244183" lon="-0.34539535"><ele>5.6</ele><time>2022-11-04T16:12:10.0000000+00:00</time></trkpt><trkpt lat="39.45244191" lon="-0.34539526"><ele>5.6</ele><time>2022-11-04T16:12:11.0000000+00:00</time></trkpt><trkpt lat="39.452442" lon="-0.34539526"><ele>5.6</ele><time>2022-11-04T16:12:12.0000000+00:00</time></trkpt><trkpt lat="39.452442" lon="-0.3453951"><ele>5.6</ele><time>2022-11-04T16:12:13.0000000+00:00</time></trkpt><trkpt lat="39.452442" lon="-0.3453951"><ele>5.6</ele><time>2022-11-04T16:12:14.0000000+00:00</time></trkpt><trkpt lat="39.452442" lon="-0.3453951"><ele>5.6</ele><time>2022-11-04T16:12:15.0000000+00:00</time></trkpt><trkpt lat="39.452442" lon="-0.34539501"><ele>5.6</ele><time>2022-11-04T16:12:16.0000000+00:00</time></trkpt><trkpt lat="39.45244208" lon="-0.34539493"><ele>5.6</ele><time>2022-11-04T16:12:17.0000000+00:00</time></trkpt><trkpt lat="39.45244216" lon="-0.34539484"><ele>5.6</ele><time>2022-11-04T16:12:18.0000000+00:00</time></trkpt><trkpt lat="39.45244225" lon="-0.34539476"><ele>5.6</ele><time>2022-11-04T16:12:19.0000000+00:00</time></trkpt><trkpt lat="39.45244225" lon="-0.34539468"><ele>5.6</ele><time>2022-11-04T16:12:20.0000000+00:00</time></trkpt><trkpt lat="39.45244233" lon="-0.34539459"><ele>5.6</ele><time>2022-11-04T16:12:21.0000000+00:00</time></trkpt><trkpt lat="39.45244242" lon="-0.34539451"><ele>5.6</ele><time>2022-11-04T16:12:22.0000000+00:00</time></trkpt><trkpt lat="39.45244242" lon="-0.34539468"><ele>5.6</ele><time>2022-11-04T16:12:23.0000000+00:00</time></trkpt><trkpt lat="39.45244258" lon="-0.34539459"><ele>5.6</ele><time>2022-11-04T16:12:24.0000000+00:00</time></trkpt><trkpt lat="39.45244275" lon="-0.34539451"><ele>5.6</ele><time>2022-11-04T16:12:25.0000000+00:00</time></trkpt><trkpt lat="39.45244267" lon="-0.34539459"><ele>5.6</ele><time>2022-11-04T16:12:26.0000000+00:00</time></trkpt><trkpt lat="39.45244275" lon="-0.34539451"><ele>5.6</ele><time>2022-11-04T16:12:27.0000000+00:00</time></trkpt><trkpt lat="39.45244283" lon="-0.34539451"><ele>5.6</ele><time>2022-11-04T16:12:28.0000000+00:00</time></trkpt><trkpt lat="39.45244292" lon="-0.34539434"><ele>5.6</ele><time>2022-11-04T16:12:29.0000000+00:00</time></trkpt><trkpt lat="39.452443" lon="-0.34539426"><ele>5.6</ele><time>2022-11-04T16:12:30.0000000+00:00</time></trkpt><trkpt lat="39.45244309" lon="-0.34539417"><ele>5.6</ele><time>2022-11-04T16:12:31.0000000+00:00</time></trkpt><trkpt lat="39.45244325" lon="-0.34539409"><ele>5.6</ele><time>2022-11-04T16:12:32.0000000+00:00</time></trkpt><trkpt lat="39.45244342" lon="-0.34539401"><ele>5.6</ele><time>2022-11-04T16:12:33.0000000+00:00</time></trkpt><trkpt lat="39.45244351" lon="-0.34539392"><ele>5.6</ele><time>2022-11-04T16:12:34.0000000+00:00</time></trkpt><trkpt lat="39.45244351" lon="-0.34539392"><ele>5.6</ele><time>2022-11-04T16:12:35.0000000+00:00</time></trkpt><trkpt lat="39.45244367" lon="-0.34539384"><ele>5.6</ele><time>2022-11-04T16:12:36.0000000+00:00</time></trkpt><trkpt lat="39.45244367" lon="-0.34539384"><ele>5.6</ele><time>2022-11-04T16:12:37.0000000+00:00</time></trkpt><trkpt lat="39.45244359" lon="-0.34539384"><ele>5.6</ele><time>2022-11-04T16:12:38.0000000+00:00</time></trkpt><trkpt lat="39.45244351" lon="-0.34539392"><ele>5.6</ele><time>2022-11-04T16:12:39.0000000+00:00</time></trkpt><trkpt lat="39.45244351" lon="-0.34539392"><ele>5.6</ele><time>2022-11-04T16:12:40.0000000+00:00</time></trkpt><trkpt lat="39.45244342" lon="-0.34539392"><ele>5.6</ele><time>2022-11-04T16:12:41.0000000+00:00</time></trkpt><trkpt lat="39.45244342" lon="-0.34539392"><ele>5.6</ele><time>2022-11-04T16:12:42.0000000+00:00</time></trkpt><trkpt lat="39.45244325" lon="-0.34539392"><ele>5.6</ele><time>2022-11-04T16:12:43.0000000+00:00</time></trkpt><trkpt lat="39.45244325" lon="-0.34539384"><ele>5.6</ele><time>2022-11-04T16:12:44.0000000+00:00</time></trkpt><trkpt lat="39.45244325" lon="-0.34539384"><ele>5.6</ele><time>2022-11-04T16:12:45.0000000+00:00</time></trkpt><trkpt lat="39.45244325" lon="-0.34539384"><ele>5.6</ele><time>2022-11-04T16:12:46.0000000+00:00</time></trkpt><trkpt lat="39.45244334" lon="-0.34539376"><ele>5.6</ele><time>2022-11-04T16:12:47.0000000+00:00</time></trkpt><trkpt lat="39.45244334" lon="-0.34539367"><ele>5.6</ele><time>2022-11-04T16:12:48.0000000+00:00</time></trkpt><trkpt lat="39.45244342" lon="-0.34539367"><ele>5.6</ele><time>2022-11-04T16:12:49.0000000+00:00</time></trkpt><trkpt lat="39.45244351" lon="-0.3453935"><ele>5.6</ele><time>2022-11-04T16:12:50.0000000+00:00</time></trkpt><trkpt lat="39.45244359" lon="-0.3453935"><ele>5.6</ele><time>2022-11-04T16:12:51.0000000+00:00</time></trkpt><trkpt lat="39.45244367" lon="-0.34539334"><ele>5.6</ele><time>2022-11-04T16:12:52.0000000+00:00</time></trkpt><trkpt lat="39.45244384" lon="-0.34539334"><ele>5.6</ele><time>2022-11-04T16:12:53.0000000+00:00</time></trkpt><trkpt lat="39.45244392" lon="-0.34539325"><ele>5.6</ele><time>2022-11-04T16:12:54.0000000+00:00</time></trkpt><trkpt lat="39.45244401" lon="-0.34539317"><ele>5.6</ele><time>2022-11-04T16:12:55.0000000+00:00</time></trkpt><trkpt lat="39.45244418" lon="-0.34539308"><ele>5.6</ele><time>2022-11-04T16:12:56.0000000+00:00</time></trkpt><trkpt lat="39.45244434" lon="-0.345393"><ele>5.6</ele><time>2022-11-04T16:12:57.0000000+00:00</time></trkpt><trkpt lat="39.45244451" lon="-0.345393"><ele>5.6</ele><time>2022-11-04T16:12:58.0000000+00:00</time></trkpt><trkpt lat="39.45244468" lon="-0.345393"><ele>5.6</ele><time>2022-11-04T16:12:59.0000000+00:00</time></trkpt><trkpt lat="39.45244485" lon="-0.34539292"><ele>5.6</ele><time>2022-11-04T16:13:00.0000000+00:00</time></trkpt><trkpt lat="39.45244493" lon="-0.345393"><ele>5.6</ele><time>2022-11-04T16:13:01.0000000+00:00</time></trkpt><trkpt lat="39.45244501" lon="-0.345393"><ele>5.6</ele><time>2022-11-04T16:13:02.0000000+00:00</time></trkpt><trkpt lat="39.4524451" lon="-0.34539292"><ele>5.6</ele><time>2022-11-04T16:13:03.0000000+00:00</time></trkpt><trkpt lat="39.45244518" lon="-0.34539292"><ele>5.6</ele><time>2022-11-04T16:13:04.0000000+00:00</time></trkpt><trkpt lat="39.45244527" lon="-0.34539292"><ele>5.6</ele><time>2022-11-04T16:13:05.0000000+00:00</time></trkpt><trkpt lat="39.45244543" lon="-0.34539292"><ele>5.6</ele><time>2022-11-04T16:13:06.0000000+00:00</time></trkpt><trkpt lat="39.45244543" lon="-0.34539283"><ele>5.6</ele><time>2022-11-04T16:13:07.0000000+00:00</time></trkpt><trkpt lat="39.4524456" lon="-0.34539283"><ele>5.6</ele><time>2022-11-04T16:13:08.0000000+00:00</time></trkpt><trkpt lat="39.45244568" lon="-0.34539275"><ele>5.6</ele><time>2022-11-04T16:13:09.0000000+00:00</time></trkpt><trkpt lat="39.45244577" lon="-0.34539275"><ele>5.6</ele><time>2022-11-04T16:13:10.0000000+00:00</time></trkpt><trkpt lat="39.45244577" lon="-0.34539275"><ele>5.6</ele><time>2022-11-04T16:13:11.0000000+00:00</time></trkpt><trkpt lat="39.45244577" lon="-0.34539283"><ele>5.6</ele><time>2022-11-04T16:13:12.0000000+00:00</time></trkpt><trkpt lat="39.45244577" lon="-0.34539275"><ele>5.6</ele><time>2022-11-04T16:13:13.0000000+00:00</time></trkpt><trkpt lat="39.45244577" lon="-0.34539267"><ele>5.6</ele><time>2022-11-04T16:13:14.0000000+00:00</time></trkpt><trkpt lat="39.45244577" lon="-0.34539258"><ele>5.6</ele><time>2022-11-04T16:13:15.0000000+00:00</time></trkpt><trkpt lat="39.45244585" lon="-0.34539258"><ele>5.6</ele><time>2022-11-04T16:13:16.0000000+00:00</time></trkpt><trkpt lat="39.45244585" lon="-0.3453925"><ele>5.6</ele><time>2022-11-04T16:13:17.0000000+00:00</time></trkpt><trkpt lat="39.45244594" lon="-0.34539241"><ele>5.6</ele><time>2022-11-04T16:13:18.0000000+00:00</time></trkpt><trkpt lat="39.45244594" lon="-0.34539241"><ele>5.6</ele><time>2022-11-04T16:13:19.0000000+00:00</time></trkpt><trkpt lat="39.45244594" lon="-0.34539241"><ele>5.6</ele><time>2022-11-04T16:13:20.0000000+00:00</time></trkpt><trkpt lat="39.45244585" lon="-0.34539233"><ele>5.6</ele><time>2022-11-04T16:13:21.0000000+00:00</time></trkpt><trkpt lat="39.45244585" lon="-0.34539225"><ele>5.6</ele><time>2022-11-04T16:13:22.0000000+00:00</time></trkpt><trkpt lat="39.45244577" lon="-0.34539216"><ele>5.6</ele><time>2022-11-04T16:13:23.0000000+00:00</time></trkpt><trkpt lat="39.45244568" lon="-0.34539216"><ele>5.6</ele><time>2022-11-04T16:13:24.0000000+00:00</time></trkpt><trkpt lat="39.4524456" lon="-0.34539208"><ele>5.6</ele><time>2022-11-04T16:13:25.0000000+00:00</time></trkpt><trkpt lat="39.45244552" lon="-0.34539208"><ele>5.6</ele><time>2022-11-04T16:13:26.0000000+00:00</time></trkpt><trkpt lat="39.45244552" lon="-0.34539208"><ele>5.6</ele><time>2022-11-04T16:13:27.0000000+00:00</time></trkpt><trkpt lat="39.45244543" lon="-0.34539208"><ele>5.6</ele><time>2022-11-04T16:13:28.0000000+00:00</time></trkpt><trkpt lat="39.45244535" lon="-0.34539199"><ele>5.6</ele><time>2022-11-04T16:13:29.0000000+00:00</time></trkpt><trkpt lat="39.45244543" lon="-0.34539191"><ele>5.6</ele><time>2022-11-04T16:13:30.0000000+00:00</time></trkpt><trkpt lat="39.45244552" lon="-0.34539174"><ele>5.6</ele><time>2022-11-04T16:13:31.0000000+00:00</time></trkpt><trkpt lat="39.4524456" lon="-0.34539158"><ele>5.6</ele><time>2022-11-04T16:13:32.0000000+00:00</time></trkpt><trkpt lat="39.4524456" lon="-0.34539141"><ele>5.6</ele><time>2022-11-04T16:13:33.0000000+00:00</time></trkpt><trkpt lat="39.4524456" lon="-0.34539141"><ele>5.6</ele><time>2022-11-04T16:13:34.0000000+00:00</time></trkpt><trkpt lat="39.4524456" lon="-0.34539132"><ele>5.6</ele><time>2022-11-04T16:13:35.0000000+00:00</time></trkpt><trkpt lat="39.45244568" lon="-0.34539132"><ele>5.6</ele><time>2022-11-04T16:13:36.0000000+00:00</time></trkpt><trkpt lat="39.4524456" lon="-0.34539124"><ele>5.6</ele><time>2022-11-04T16:13:37.0000000+00:00</time></trkpt><trkpt lat="39.45244568" lon="-0.34539124"><ele>5.6</ele><time>2022-11-04T16:13:38.0000000+00:00</time></trkpt><trkpt lat="39.45244577" lon="-0.34539132"><ele>5.6</ele><time>2022-11-04T16:13:39.0000000+00:00</time></trkpt><trkpt lat="39.45244585" lon="-0.34539132"><ele>5.6</ele><time>2022-11-04T16:13:40.0000000+00:00</time></trkpt><trkpt lat="39.45244585" lon="-0.34539124"><ele>5.6</ele><time>2022-11-04T16:13:41.0000000+00:00</time></trkpt><trkpt lat="39.45244594" lon="-0.34539116"><ele>5.6</ele><time>2022-11-04T16:13:42.0000000+00:00</time></trkpt><trkpt lat="39.45244594" lon="-0.34539107"><ele>5.6</ele><time>2022-11-04T16:13:43.0000000+00:00</time></trkpt><trkpt lat="39.45244602" lon="-0.34539099"><ele>5.6</ele><time>2022-11-04T16:13:44.0000000+00:00</time></trkpt><trkpt lat="39.45244602" lon="-0.34539099"><ele>5.6</ele><time>2022-11-04T16:13:45.0000000+00:00</time></trkpt><trkpt lat="39.4524461" lon="-0.34539099"><ele>5.6</ele><time>2022-11-04T16:13:46.0000000+00:00</time></trkpt><trkpt lat="39.45244619" lon="-0.34539099"><ele>5.6</ele><time>2022-11-04T16:13:47.0000000+00:00</time></trkpt><trkpt lat="39.45244636" lon="-0.34539099"><ele>5.6</ele><time>2022-11-04T16:13:48.0000000+00:00</time></trkpt><trkpt lat="39.45244644" lon="-0.34539091"><ele>5.6</ele><time>2022-11-04T16:13:49.0000000+00:00</time></trkpt><trkpt lat="39.45244636" lon="-0.34539074"><ele>5.6</ele><time>2022-11-04T16:13:50.0000000+00:00</time></trkpt><trkpt lat="39.45244644" lon="-0.34539057"><ele>5.6</ele><time>2022-11-04T16:13:51.0000000+00:00</time></trkpt><trkpt lat="39.45244636" lon="-0.34539049"><ele>5.6</ele><time>2022-11-04T16:13:52.0000000+00:00</time></trkpt><trkpt lat="39.45244627" lon="-0.3453904"><ele>5.6</ele><time>2022-11-04T16:13:53.0000000+00:00</time></trkpt><trkpt lat="39.45244627" lon="-0.34539032"><ele>5.6</ele><time>2022-11-04T16:13:54.0000000+00:00</time></trkpt><trkpt lat="39.45244627" lon="-0.34539032"><ele>5.6</ele><time>2022-11-04T16:13:55.0000000+00:00</time></trkpt><trkpt lat="39.45244636" lon="-0.34539023"><ele>5.6</ele><time>2022-11-04T16:13:56.0000000+00:00</time></trkpt><trkpt lat="39.45244644" lon="-0.34539032"><ele>5.6</ele><time>2022-11-04T16:13:57.0000000+00:00</time></trkpt><trkpt lat="39.45244652" lon="-0.3453904"><ele>5.6</ele><time>2022-11-04T16:13:58.0000000+00:00</time></trkpt><trkpt lat="39.45244661" lon="-0.34539049"><ele>5.6</ele><time>2022-11-04T16:13:59.0000000+00:00</time></trkpt><trkpt lat="39.45244661" lon="-0.34539049"><ele>5.6</ele><time>2022-11-04T16:14:00.0000000+00:00</time></trkpt><trkpt lat="39.45244669" lon="-0.34539049"><ele>5.6</ele><time>2022-11-04T16:14:01.0000000+00:00</time></trkpt><trkpt lat="39.45244669" lon="-0.34539049"><ele>5.6</ele><time>2022-11-04T16:14:02.0000000+00:00</time></trkpt><trkpt lat="39.45244669" lon="-0.3453904"><ele>5.6</ele><time>2022-11-04T16:14:03.0000000+00:00</time></trkpt><trkpt lat="39.45244669" lon="-0.3453904"><ele>5.6</ele><time>2022-11-04T16:14:04.0000000+00:00</time></trkpt><trkpt lat="39.45244669" lon="-0.34539032"><ele>5.6</ele><time>2022-11-04T16:14:05.0000000+00:00</time></trkpt><trkpt lat="39.45244677" lon="-0.34539032"><ele>5.6</ele><time>2022-11-04T16:14:06.0000000+00:00</time></trkpt><trkpt lat="39.45244677" lon="-0.34539032"><ele>5.6</ele><time>2022-11-04T16:14:07.0000000+00:00</time></trkpt><trkpt lat="39.45244686" lon="-0.3453904"><ele>5.6</ele><time>2022-11-04T16:14:08.0000000+00:00</time></trkpt><trkpt lat="39.45244686" lon="-0.3453904"><ele>5.6</ele><time>2022-11-04T16:14:09.0000000+00:00</time></trkpt><trkpt lat="39.45244694" lon="-0.3453904"><ele>5.6</ele><time>2022-11-04T16:14:10.0000000+00:00</time></trkpt><trkpt lat="39.45244703" lon="-0.34539032"><ele>5.6</ele><time>2022-11-04T16:14:11.0000000+00:00</time></trkpt><trkpt lat="39.45244711" lon="-0.34539023"><ele>5.6</ele><time>2022-11-04T16:14:12.0000000+00:00</time></trkpt><trkpt lat="39.45244728" lon="-0.34539023"><ele>5.6</ele><time>2022-11-04T16:14:13.0000000+00:00</time></trkpt><trkpt lat="39.45244744" lon="-0.34539023"><ele>5.6</ele><time>2022-11-04T16:14:14.0000000+00:00</time></trkpt><trkpt lat="39.45244753" lon="-0.34539032"><ele>5.6</ele><time>2022-11-04T16:14:15.0000000+00:00</time></trkpt><trkpt lat="39.45244753" lon="-0.34539032"><ele>5.6</ele><time>2022-11-04T16:14:16.0000000+00:00</time></trkpt><trkpt lat="39.45244753" lon="-0.34539032"><ele>5.6</ele><time>2022-11-04T16:14:17.0000000+00:00</time></trkpt><trkpt lat="39.45244753" lon="-0.3453904"><ele>5.6</ele><time>2022-11-04T16:14:18.0000000+00:00</time></trkpt><trkpt lat="39.45244753" lon="-0.34539057"><ele>5.6</ele><time>2022-11-04T16:14:19.0000000+00:00</time></trkpt><trkpt lat="39.45244744" lon="-0.34539065"><ele>5.6</ele><time>2022-11-04T16:14:20.0000000+00:00</time></trkpt><trkpt lat="39.45244744" lon="-0.34539065"><ele>5.6</ele><time>2022-11-04T16:14:21.0000000+00:00</time></trkpt><trkpt lat="39.45244744" lon="-0.34539065"><ele>5.6</ele><time>2022-11-04T16:14:22.0000000+00:00</time></trkpt><trkpt lat="39.45244744" lon="-0.34539057"><ele>5.6</ele><time>2022-11-04T16:14:23.0000000+00:00</time></trkpt><trkpt lat="39.45244744" lon="-0.34539057"><ele>5.6</ele><time>2022-11-04T16:14:24.0000000+00:00</time></trkpt><trkpt lat="39.45244753" lon="-0.34539057"><ele>5.6</ele><time>2022-11-04T16:14:25.0000000+00:00</time></trkpt><trkpt lat="39.45244753" lon="-0.34539049"><ele>5.6</ele><time>2022-11-04T16:14:26.0000000+00:00</time></trkpt><trkpt lat="39.45244761" lon="-0.3453904"><ele>5.6</ele><time>2022-11-04T16:14:27.0000000+00:00</time></trkpt><trkpt lat="39.45244753" lon="-0.3453904"><ele>5.6</ele><time>2022-11-04T16:14:28.0000000+00:00</time></trkpt><trkpt lat="39.45244753" lon="-0.3453904"><ele>5.6</ele><time>2022-11-04T16:14:29.0000000+00:00</time></trkpt><trkpt lat="39.45244761" lon="-0.3453904"><ele>5.6</ele><time>2022-11-04T16:14:30.0000000+00:00</time></trkpt><trkpt lat="39.45244761" lon="-0.3453904"><ele>5.6</ele><time>2022-11-04T16:14:31.0000000+00:00</time></trkpt><trkpt lat="39.4524477" lon="-0.34539032"><ele>5.6</ele><time>2022-11-04T16:14:32.0000000+00:00</time></trkpt><trkpt lat="39.4524477" lon="-0.34539023"><ele>5.6</ele><time>2022-11-04T16:14:33.0000000+00:00</time></trkpt><trkpt lat="39.45244778" lon="-0.34539023"><ele>5.6</ele><time>2022-11-04T16:14:34.0000000+00:00</time></trkpt><trkpt lat="39.45244778" lon="-0.34539015"><ele>5.6</ele><time>2022-11-04T16:14:35.0000000+00:00</time></trkpt><trkpt lat="39.45244778" lon="-0.34539007"><ele>5.6</ele><time>2022-11-04T16:14:36.0000000+00:00</time></trkpt><trkpt lat="39.45244778" lon="-0.34539007"><ele>5.6</ele><time>2022-11-04T16:14:37.0000000+00:00</time></trkpt><trkpt lat="39.4524477" lon="-0.34539015"><ele>5.6</ele><time>2022-11-04T16:14:38.0000000+00:00</time></trkpt><trkpt lat="39.4524477" lon="-0.34539032"><ele>5.6</ele><time>2022-11-04T16:14:39.0000000+00:00</time></trkpt><trkpt lat="39.45244761" lon="-0.34539032"><ele>5.6</ele><time>2022-11-04T16:14:40.0000000+00:00</time></trkpt><trkpt lat="39.45244753" lon="-0.34539032"><ele>5.6</ele><time>2022-11-04T16:14:41.0000000+00:00</time></trkpt><trkpt lat="39.45244753" lon="-0.34539023"><ele>5.6</ele><time>2022-11-04T16:14:42.0000000+00:00</time></trkpt><trkpt lat="39.45244744" lon="-0.34539015"><ele>5.6</ele><time>2022-11-04T16:14:43.0000000+00:00</time></trkpt><trkpt lat="39.45244744" lon="-0.34538998"><ele>5.6</ele><time>2022-11-04T16:14:44.0000000+00:00</time></trkpt><trkpt lat="39.45244753" lon="-0.3453899"><ele>5.6</ele><time>2022-11-04T16:14:45.0000000+00:00</time></trkpt><trkpt lat="39.45244761" lon="-0.34538982"><ele>5.6</ele><time>2022-11-04T16:14:46.0000000+00:00</time></trkpt><trkpt lat="39.45244753" lon="-0.34538965"><ele>5.6</ele><time>2022-11-04T16:14:47.0000000+00:00</time></trkpt><trkpt lat="39.45244753" lon="-0.34538965"><ele>5.6</ele><time>2022-11-04T16:14:48.0000000+00:00</time></trkpt><trkpt lat="39.45244744" lon="-0.34538965"><ele>5.6</ele><time>2022-11-04T16:14:49.0000000+00:00</time></trkpt><trkpt lat="39.45244744" lon="-0.34538973"><ele>5.6</ele><time>2022-11-04T16:14:50.0000000+00:00</time></trkpt><trkpt lat="39.45244744" lon="-0.34538965"><ele>5.6</ele><time>2022-11-04T16:14:51.0000000+00:00</time></trkpt><trkpt lat="39.45244753" lon="-0.34538956"><ele>5.6</ele><time>2022-11-04T16:14:52.0000000+00:00</time></trkpt><trkpt lat="39.45244761" lon="-0.34538948"><ele>5.6</ele><time>2022-11-04T16:14:53.0000000+00:00</time></trkpt><trkpt lat="39.45244753" lon="-0.34538948"><ele>5.6</ele><time>2022-11-04T16:14:54.0000000+00:00</time></trkpt><trkpt lat="39.45244744" lon="-0.34538948"><ele>5.6</ele><time>2022-11-04T16:14:55.0000000+00:00</time></trkpt><trkpt lat="39.45244744" lon="-0.34538948"><ele>5.6</ele><time>2022-11-04T16:14:56.0000000+00:00</time></trkpt><trkpt lat="39.45244736" lon="-0.34538948"><ele>5.6</ele><time>2022-11-04T16:14:57.0000000+00:00</time></trkpt><trkpt lat="39.45244736" lon="-0.34538948"><ele>5.6</ele><time>2022-11-04T16:14:58.0000000+00:00</time></trkpt><trkpt lat="39.45244736" lon="-0.34538948"><ele>5.6</ele><time>2022-11-04T16:14:59.0000000+00:00</time></trkpt><trkpt lat="39.45244736" lon="-0.34538956"><ele>5.6</ele><time>2022-11-04T16:15:00.0000000+00:00</time></trkpt><trkpt lat="39.45244744" lon="-0.34538965"><ele>5.6</ele><time>2022-11-04T16:15:01.0000000+00:00</time></trkpt><trkpt lat="39.45244744" lon="-0.34538965"><ele>5.6</ele><time>2022-11-04T16:15:02.0000000+00:00</time></trkpt><trkpt lat="39.45244744" lon="-0.34538956"><ele>5.6</ele><time>2022-11-04T16:15:03.0000000+00:00</time></trkpt><trkpt lat="39.45244744" lon="-0.34538965"><ele>5.6</ele><time>2022-11-04T16:15:04.0000000+00:00</time></trkpt><trkpt lat="39.45244744" lon="-0.34538973"><ele>5.6</ele><time>2022-11-04T16:15:05.0000000+00:00</time></trkpt><trkpt lat="39.45244744" lon="-0.34538982"><ele>5.6</ele><time>2022-11-04T16:15:06.0000000+00:00</time></trkpt><trkpt lat="39.45244744" lon="-0.34538982"><ele>5.6</ele><time>2022-11-04T16:15:07.0000000+00:00</time></trkpt><trkpt lat="39.45244744" lon="-0.3453899"><ele>5.6</ele><time>2022-11-04T16:15:08.0000000+00:00</time></trkpt><trkpt lat="39.45244753" lon="-0.34538998"><ele>5.6</ele><time>2022-11-04T16:15:09.0000000+00:00</time></trkpt><trkpt lat="39.45244753" lon="-0.34539007"><ele>5.6</ele><time>2022-11-04T16:15:10.0000000+00:00</time></trkpt><trkpt lat="39.45244744" lon="-0.34539015"><ele>5.6</ele><time>2022-11-04T16:15:11.0000000+00:00</time></trkpt><trkpt lat="39.45244736" lon="-0.34539023"><ele>5.6</ele><time>2022-11-04T16:15:12.0000000+00:00</time></trkpt><trkpt lat="39.45244728" lon="-0.34539023"><ele>5.6</ele><time>2022-11-04T16:15:13.0000000+00:00</time></trkpt><trkpt lat="39.45244719" lon="-0.34539032"><ele>5.6</ele><time>2022-11-04T16:15:14.0000000+00:00</time></trkpt><trkpt lat="39.45244711" lon="-0.3453904"><ele>5.6</ele><time>2022-11-04T16:15:15.0000000+00:00</time></trkpt><trkpt lat="39.45244711" lon="-0.34539032"><ele>5.6</ele><time>2022-11-04T16:15:16.0000000+00:00</time></trkpt><trkpt lat="39.45244703" lon="-0.3453904"><ele>5.6</ele><time>2022-11-04T16:15:17.0000000+00:00</time></trkpt><trkpt lat="39.45244703" lon="-0.34539032"><ele>5.6</ele><time>2022-11-04T16:15:18.0000000+00:00</time></trkpt><trkpt lat="39.45244703" lon="-0.34539032"><ele>5.6</ele><time>2022-11-04T16:15:19.0000000+00:00</time></trkpt><trkpt lat="39.45244703" lon="-0.34539032"><ele>5.6</ele><time>2022-11-04T16:15:20.0000000+00:00</time></trkpt><trkpt lat="39.45244694" lon="-0.34539032"><ele>5.6</ele><time>2022-11-04T16:15:21.0000000+00:00</time></trkpt><trkpt lat="39.45244694" lon="-0.3453904"><ele>5.6</ele><time>2022-11-04T16:15:22.0000000+00:00</time></trkpt><trkpt lat="39.45244694" lon="-0.3453904"><ele>5.6</ele><time>2022-11-04T16:15:23.0000000+00:00</time></trkpt><trkpt lat="39.45244694" lon="-0.3453904"><ele>5.6</ele><time>2022-11-04T16:15:24.0000000+00:00</time></trkpt><trkpt lat="39.45244694" lon="-0.3453904"><ele>5.6</ele><time>2022-11-04T16:15:25.0000000+00:00</time></trkpt><trkpt lat="39.45244694" lon="-0.3453904"><ele>5.6</ele><time>2022-11-04T16:15:26.0000000+00:00</time></trkpt><trkpt lat="39.45244694" lon="-0.34539032"><ele>5.6</ele><time>2022-11-04T16:15:27.0000000+00:00</time></trkpt><trkpt lat="39.45244703" lon="-0.34539032"><ele>5.6</ele><time>2022-11-04T16:15:28.0000000+00:00</time></trkpt><trkpt lat="39.45244711" lon="-0.34539023"><ele>5.6</ele><time>2022-11-04T16:15:29.0000000+00:00</time></trkpt><trkpt lat="39.45244719" lon="-0.34539023"><ele>5.6</ele><time>2022-11-04T16:15:30.0000000+00:00</time></trkpt><trkpt lat="39.45244728" lon="-0.34539015"><ele>5.6</ele><time>2022-11-04T16:15:31.0000000+00:00</time></trkpt><trkpt lat="39.45244736" lon="-0.34539015"><ele>5.6</ele><time>2022-11-04T16:15:32.0000000+00:00</time></trkpt><trkpt lat="39.45244736" lon="-0.34539007"><ele>5.6</ele><time>2022-11-04T16:15:33.0000000+00:00</time></trkpt><trkpt lat="39.45244736" lon="-0.34539007"><ele>5.6</ele><time>2022-11-04T16:15:34.0000000+00:00</time></trkpt><trkpt lat="39.45244744" lon="-0.34539007"><ele>5.6</ele><time>2022-11-04T16:15:35.0000000+00:00</time></trkpt><trkpt lat="39.45244744" lon="-0.34539007"><ele>5.6</ele><time>2022-11-04T16:15:36.0000000+00:00</time></trkpt><trkpt lat="39.45244761" lon="-0.34539007"><ele>5.6</ele><time>2022-11-04T16:15:37.0000000+00:00</time></trkpt><trkpt lat="39.45244761" lon="-0.34539007"><ele>5.6</ele><time>2022-11-04T16:15:38.0000000+00:00</time></trkpt><trkpt lat="39.45244761" lon="-0.34539007"><ele>5.6</ele><time>2022-11-04T16:15:39.0000000+00:00</time></trkpt><trkpt lat="39.4524477" lon="-0.34538998"><ele>5.6</ele><time>2022-11-04T16:15:40.0000000+00:00</time></trkpt><trkpt lat="39.45244778" lon="-0.34538998"><ele>5.6</ele><time>2022-11-04T16:15:41.0000000+00:00</time></trkpt><trkpt lat="39.45244786" lon="-0.34538998"><ele>5.6</ele><time>2022-11-04T16:15:42.0000000+00:00</time></trkpt><trkpt lat="39.45244795" lon="-0.34538998"><ele>5.6</ele><time>2022-11-04T16:15:43.0000000+00:00</time></trkpt><trkpt lat="39.45244803" lon="-0.34539007"><ele>5.6</ele><time>2022-11-04T16:15:44.0000000+00:00</time></trkpt><trkpt lat="39.45244812" lon="-0.34539015"><ele>5.6</ele><time>2022-11-04T16:15:45.0000000+00:00</time></trkpt><trkpt lat="39.45244812" lon="-0.34539015"><ele>5.6</ele><time>2022-11-04T16:15:46.0000000+00:00</time></trkpt><trkpt lat="39.45244812" lon="-0.34539015"><ele>5.6</ele><time>2022-11-04T16:15:47.0000000+00:00</time></trkpt><trkpt lat="39.4524482" lon="-0.34539015"><ele>5.6</ele><time>2022-11-04T16:15:48.0000000+00:00</time></trkpt><trkpt lat="39.45244828" lon="-0.34539015"><ele>5.6</ele><time>2022-11-04T16:15:49.0000000+00:00</time></trkpt><trkpt lat="39.45244828" lon="-0.34539015"><ele>5.6</ele><time>2022-11-04T16:15:50.0000000+00:00</time></trkpt><trkpt lat="39.45244837" lon="-0.34539015"><ele>5.6</ele><time>2022-11-04T16:15:51.0000000+00:00</time></trkpt><trkpt lat="39.45244845" lon="-0.34539007"><ele>5.6</ele><time>2022-11-04T16:15:52.0000000+00:00</time></trkpt><trkpt lat="39.45244845" lon="-0.34539007"><ele>5.6</ele><time>2022-11-04T16:15:53.0000000+00:00</time></trkpt><trkpt lat="39.45244845" lon="-0.34539007"><ele>5.6</ele><time>2022-11-04T16:15:54.0000000+00:00</time></trkpt><trkpt lat="39.45244845" lon="-0.34539007"><ele>5.6</ele><time>2022-11-04T16:15:55.0000000+00:00</time></trkpt><trkpt lat="39.45244853" lon="-0.34538998"><ele>5.6</ele><time>2022-11-04T16:15:56.0000000+00:00</time></trkpt><trkpt lat="39.45244853" lon="-0.34538998"><ele>5.6</ele><time>2022-11-04T16:15:57.0000000+00:00</time></trkpt><trkpt lat="39.45244862" lon="-0.34538998"><ele>5.6</ele><time>2022-11-04T16:15:58.0000000+00:00</time></trkpt><trkpt lat="39.45244862" lon="-0.34538998"><ele>5.6</ele><time>2022-11-04T16:15:59.0000000+00:00</time></trkpt><trkpt lat="39.45244853" lon="-0.3453899"><ele>5.6</ele><time>2022-11-04T16:16:00.0000000+00:00</time></trkpt><trkpt lat="39.45244853" lon="-0.3453899"><ele>5.6</ele><time>2022-11-04T16:16:01.0000000+00:00</time></trkpt><trkpt lat="39.45244862" lon="-0.3453899"><ele>5.6</ele><time>2022-11-04T16:16:02.0000000+00:00</time></trkpt><trkpt lat="39.4524487" lon="-0.34538998"><ele>5.6</ele><time>2022-11-04T16:16:03.0000000+00:00</time></trkpt><trkpt lat="39.45244887" lon="-0.34538998"><ele>5.6</ele><time>2022-11-04T16:16:04.0000000+00:00</time></trkpt><trkpt lat="39.45244895" lon="-0.3453899"><ele>5.6</ele><time>2022-11-04T16:16:05.0000000+00:00</time></trkpt><trkpt lat="39.45244895" lon="-0.34538982"><ele>5.6</ele><time>2022-11-04T16:16:06.0000000+00:00</time></trkpt><trkpt lat="39.45244904" lon="-0.34538973"><ele>5.6</ele><time>2022-11-04T16:16:07.0000000+00:00</time></trkpt><trkpt lat="39.45244912" lon="-0.34538973"><ele>5.6</ele><time>2022-11-04T16:16:08.0000000+00:00</time></trkpt><trkpt lat="39.45244912" lon="-0.34538973"><ele>5.6</ele><time>2022-11-04T16:16:09.0000000+00:00</time></trkpt><trkpt lat="39.4524492" lon="-0.34538973"><ele>5.6</ele><time>2022-11-04T16:16:10.0000000+00:00</time></trkpt><trkpt lat="39.45244929" lon="-0.34538973"><ele>5.6</ele><time>2022-11-04T16:16:11.0000000+00:00</time></trkpt><trkpt lat="39.45244929" lon="-0.34538965"><ele>5.6</ele><time>2022-11-04T16:16:12.0000000+00:00</time></trkpt><trkpt lat="39.45244937" lon="-0.34538965"><ele>5.6</ele><time>2022-11-04T16:16:13.0000000+00:00</time></trkpt><trkpt lat="39.45244946" lon="-0.34538965"><ele>5.6</ele><time>2022-11-04T16:16:14.0000000+00:00</time></trkpt><trkpt lat="39.45244954" lon="-0.34538956"><ele>5.6</ele><time>2022-11-04T16:16:15.0000000+00:00</time></trkpt><trkpt lat="39.45244954" lon="-0.34538948"><ele>5.6</ele><time>2022-11-04T16:16:16.0000000+00:00</time></trkpt><trkpt lat="39.45244962" lon="-0.3453894"><ele>5.6</ele><time>2022-11-04T16:16:17.0000000+00:00</time></trkpt><trkpt lat="39.45244962" lon="-0.3453894"><ele>5.6</ele><time>2022-11-04T16:16:18.0000000+00:00</time></trkpt><trkpt lat="39.45244971" lon="-0.3453894"><ele>5.6</ele><time>2022-11-04T16:16:19.0000000+00:00</time></trkpt><trkpt lat="39.45244971" lon="-0.3453894"><ele>5.6</ele><time>2022-11-04T16:16:20.0000000+00:00</time></trkpt><trkpt lat="39.45244962" lon="-0.3453894"><ele>5.6</ele><time>2022-11-04T16:16:21.0000000+00:00</time></trkpt><trkpt lat="39.45244954" lon="-0.3453894"><ele>5.6</ele><time>2022-11-04T16:16:22.0000000+00:00</time></trkpt><trkpt lat="39.45245013" lon="-0.34539191"><ele>5.6</ele><time>2022-11-04T16:16:23.0000000+00:00</time></trkpt><trkpt lat="39.45245105" lon="-0.34539459"><ele>5.6</ele><time>2022-11-04T16:16:24.0000000+00:00</time></trkpt><trkpt lat="39.45245105" lon="-0.34539459"><ele>5.6</ele><time>2022-11-04T16:16:25.0000000+00:00</time></trkpt><trkpt lat="39.45245172" lon="-0.34539677"><ele>5.6</ele><time>2022-11-04T16:16:26.0000000+00:00</time></trkpt><trkpt lat="39.45245071" lon="-0.34539912"><ele>5.6</ele><time>2022-11-04T16:16:27.0000000+00:00</time></trkpt><trkpt lat="39.45245071" lon="-0.34539912"><ele>5.6</ele><time>2022-11-04T16:16:28.0000000+00:00</time></trkpt><trkpt lat="39.45245071" lon="-0.34539912"><ele>5.6</ele><time>2022-11-04T16:16:29.0000000+00:00</time></trkpt><trkpt lat="39.45245071" lon="-0.34539912"><ele>5.6</ele><time>2022-11-04T16:16:30.0000000+00:00</time></trkpt><trkpt lat="39.45245071" lon="-0.34539912"><ele>5.6</ele><time>2022-11-04T16:16:31.0000000+00:00</time></trkpt><trkpt lat="39.45245071" lon="-0.34539912"><ele>5.6</ele><time>2022-11-04T16:16:32.0000000+00:00</time></trkpt><trkpt lat="39.45245071" lon="-0.34539912"><ele>5.6</ele><time>2022-11-04T16:16:33.0000000+00:00</time></trkpt><trkpt lat="39.45245499" lon="-0.34541245"><ele>5.6</ele><time>2022-11-04T16:16:34.0000000+00:00</time></trkpt><trkpt lat="39.45245516" lon="-0.34541287"><ele>5.6</ele><time>2022-11-04T16:16:35.0000000+00:00</time></trkpt><trkpt lat="39.45245532" lon="-0.34541287"><ele>5.6</ele><time>2022-11-04T16:16:36.0000000+00:00</time></trkpt><trkpt lat="39.45245549" lon="-0.34541287"><ele>5.6</ele><time>2022-11-04T16:16:37.0000000+00:00</time></trkpt><trkpt lat="39.45245566" lon="-0.34541287"><ele>5.6</ele><time>2022-11-04T16:16:38.0000000+00:00</time></trkpt><trkpt lat="39.45245574" lon="-0.34541287"><ele>5.6</ele><time>2022-11-04T16:16:39.0000000+00:00</time></trkpt><trkpt lat="39.45245574" lon="-0.34541287"><ele>5.6</ele><time>2022-11-04T16:16:40.0000000+00:00</time></trkpt><trkpt lat="39.45245591" lon="-0.34541287"><ele>5.6</ele><time>2022-11-04T16:16:41.0000000+00:00</time></trkpt><trkpt lat="39.45245616" lon="-0.34541287"><ele>5.6</ele><time>2022-11-04T16:16:42.0000000+00:00</time></trkpt><trkpt lat="39.45245616" lon="-0.34541287"><ele>5.6</ele><time>2022-11-04T16:16:43.0000000+00:00</time></trkpt><trkpt lat="39.45245625" lon="-0.34541287"><ele>5.6</ele><time>2022-11-04T16:16:44.0000000+00:00</time></trkpt><trkpt lat="39.45245675" lon="-0.34541287"><ele>5.6</ele><time>2022-11-04T16:16:45.0000000+00:00</time></trkpt><trkpt lat="39.452457" lon="-0.34541287"><ele>5.6</ele><time>2022-11-04T16:16:46.0000000+00:00</time></trkpt><trkpt lat="39.45245717" lon="-0.34541287"><ele>5.6</ele><time>2022-11-04T16:16:47.0000000+00:00</time></trkpt><trkpt lat="39.45245784" lon="-0.34541287"><ele>5.6</ele><time>2022-11-04T16:16:48.0000000+00:00</time></trkpt><trkpt lat="39.45245792" lon="-0.34541194"><ele>5.6</ele><time>2022-11-04T16:16:49.0000000+00:00</time></trkpt><trkpt lat="39.45245817" lon="-0.34541178"><ele>5.6</ele><time>2022-11-04T16:16:50.0000000+00:00</time></trkpt><trkpt lat="39.45245826" lon="-0.34541161"><ele>5.6</ele><time>2022-11-04T16:16:51.0000000+00:00</time></trkpt><trkpt lat="39.45245834" lon="-0.34541111"><ele>5.6</ele><time>2022-11-04T16:16:52.0000000+00:00</time></trkpt><trkpt lat="39.45245834" lon="-0.34540867"><ele>5.6</ele><time>2022-11-04T16:16:53.0000000+00:00</time></trkpt><trkpt lat="39.45245834" lon="-0.34540666"><ele>5.6</ele><time>2022-11-04T16:16:54.0000000+00:00</time></trkpt><trkpt lat="39.45245826" lon="-0.34540415"><ele>5.6</ele><time>2022-11-04T16:16:55.0000000+00:00</time></trkpt><trkpt lat="39.45245826" lon="-0.34540306"><ele>5.6</ele><time>2022-11-04T16:16:56.0000000+00:00</time></trkpt><trkpt lat="39.45245826" lon="-0.34540281"><ele>5.6</ele><time>2022-11-04T16:16:57.0000000+00:00</time></trkpt><trkpt lat="39.45245817" lon="-0.34540121"><ele>5.6</ele><time>2022-11-04T16:16:58.0000000+00:00</time></trkpt><trkpt lat="39.45245734" lon="-0.34539945"><ele>5.6</ele><time>2022-11-04T16:16:59.0000000+00:00</time></trkpt><trkpt lat="39.45245725" lon="-0.34539719"><ele>5.6</ele><time>2022-11-04T16:17:00.0000000+00:00</time></trkpt><trkpt lat="39.45245717" lon="-0.34539635"><ele>5.6</ele><time>2022-11-04T16:17:01.0000000+00:00</time></trkpt><trkpt lat="39.45245717" lon="-0.34539493"><ele>5.6</ele><time>2022-11-04T16:17:02.0000000+00:00</time></trkpt><trkpt lat="39.45245717" lon="-0.34539049"><ele>5.6</ele><time>2022-11-04T16:17:03.0000000+00:00</time></trkpt><trkpt lat="39.4524565" lon="-0.34538965"><ele>5.6</ele><time>2022-11-04T16:17:04.0000000+00:00</time></trkpt><trkpt lat="39.45245633" lon="-0.34538931"><ele>5.6</ele><time>2022-11-04T16:17:05.0000000+00:00</time></trkpt><trkpt lat="39.45245591" lon="-0.34538914"><ele>5.6</ele><time>2022-11-04T16:17:06.0000000+00:00</time></trkpt><trkpt lat="39.45245532" lon="-0.34538839"><ele>5.6</ele><time>2022-11-04T16:17:07.0000000+00:00</time></trkpt><trkpt lat="39.45245524" lon="-0.3453878"><ele>5.6</ele><time>2022-11-04T16:17:08.0000000+00:00</time></trkpt><trkpt lat="39.45245482" lon="-0.34538764"><ele>5.6</ele><time>2022-11-04T16:17:09.0000000+00:00</time></trkpt><trkpt lat="39.45245465" lon="-0.34538738"><ele>5.6</ele><time>2022-11-04T16:17:10.0000000+00:00</time></trkpt><trkpt lat="39.45245465" lon="-0.3453863"><ele>5.6</ele><time>2022-11-04T16:17:11.0000000+00:00</time></trkpt><trkpt lat="39.45245465" lon="-0.34538319"><ele>5.6</ele><time>2022-11-04T16:17:12.0000000+00:00</time></trkpt><trkpt lat="39.45245465" lon="-0.34538085"><ele>5.6</ele><time>2022-11-04T16:17:13.0000000+00:00</time></trkpt><trkpt lat="39.45245465" lon="-0.34537925"><ele>5.6</ele><time>2022-11-04T16:17:14.0000000+00:00</time></trkpt><trkpt lat="39.45245465" lon="-0.34537884"><ele>5.6</ele><time>2022-11-04T16:17:15.0000000+00:00</time></trkpt><trkpt lat="39.45245465" lon="-0.34537875"><ele>5.6</ele><time>2022-11-04T16:17:16.0000000+00:00</time></trkpt><trkpt lat="39.45245465" lon="-0.34537875"><ele>5.6</ele><time>2022-11-04T16:17:17.0000000+00:00</time></trkpt><trkpt lat="39.45245465" lon="-0.34537875"><ele>5.6</ele><time>2022-11-04T16:17:18.0000000+00:00</time></trkpt><trkpt lat="39.45245465" lon="-0.34537875"><ele>5.6</ele><time>2022-11-04T16:17:19.0000000+00:00</time></trkpt><trkpt lat="39.45245465" lon="-0.34537875"><ele>5.6</ele><time>2022-11-04T16:17:20.0000000+00:00</time></trkpt><trkpt lat="39.45245465" lon="-0.34537875"><ele>5.6</ele><time>2022-11-04T16:17:21.0000000+00:00</time></trkpt><trkpt lat="39.45245465" lon="-0.34537875"><ele>5.6</ele><time>2022-11-04T16:17:22.0000000+00:00</time></trkpt><trkpt lat="39.45245465" lon="-0.34537875"><ele>5.6</ele><time>2022-11-04T16:17:23.0000000+00:00</time></trkpt><trkpt lat="39.45245474" lon="-0.34537875"><ele>5.6</ele><time>2022-11-04T16:17:24.0000000+00:00</time></trkpt><trkpt lat="39.45245482" lon="-0.34537875"><ele>5.6</ele><time>2022-11-04T16:17:25.0000000+00:00</time></trkpt><trkpt lat="39.45245482" lon="-0.34537875"><ele>5.6</ele><time>2022-11-04T16:17:26.0000000+00:00</time></trkpt><trkpt lat="39.45245482" lon="-0.34537875"><ele>5.6</ele><time>2022-11-04T16:17:27.0000000+00:00</time></trkpt><trkpt lat="39.45245482" lon="-0.34537875"><ele>5.6</ele><time>2022-11-04T16:17:28.0000000+00:00</time></trkpt><trkpt lat="39.45245482" lon="-0.34538051"><ele>5.6</ele><time>2022-11-04T16:17:29.0000000+00:00</time></trkpt><trkpt lat="39.45245482" lon="-0.34538194"><ele>5.6</ele><time>2022-11-04T16:17:30.0000000+00:00</time></trkpt><trkpt lat="39.45245482" lon="-0.34538269"><ele>5.6</ele><time>2022-11-04T16:17:31.0000000+00:00</time></trkpt><trkpt lat="39.45245482" lon="-0.34538328"><ele>5.6</ele><time>2022-11-04T16:17:32.0000000+00:00</time></trkpt><trkpt lat="39.45245482" lon="-0.34538412"><ele>5.6</ele><time>2022-11-04T16:17:33.0000000+00:00</time></trkpt><trkpt lat="39.45245482" lon="-0.34538495"><ele>5.6</ele><time>2022-11-04T16:17:34.0000000+00:00</time></trkpt><trkpt lat="39.45245482" lon="-0.34538521"><ele>5.6</ele><time>2022-11-04T16:17:35.0000000+00:00</time></trkpt><trkpt lat="39.45245482" lon="-0.34538529"><ele>5.6</ele><time>2022-11-04T16:17:36.0000000+00:00</time></trkpt><trkpt lat="39.45245482" lon="-0.34538529"><ele>5.6</ele><time>2022-11-04T16:17:37.0000000+00:00</time></trkpt><trkpt lat="39.45245482" lon="-0.34538529"><ele>5.6</ele><time>2022-11-04T16:17:38.0000000+00:00</time></trkpt><trkpt lat="39.45245348" lon="-0.34538537"><ele>5.6</ele><time>2022-11-04T16:17:39.0000000+00:00</time></trkpt><trkpt lat="39.45245239" lon="-0.34538537"><ele>5.6</ele><time>2022-11-04T16:17:40.0000000+00:00</time></trkpt><trkpt lat="39.45245197" lon="-0.34538537"><ele>5.6</ele><time>2022-11-04T16:17:41.0000000+00:00</time></trkpt><trkpt lat="39.4524518" lon="-0.34538537"><ele>5.6</ele><time>2022-11-04T16:17:42.0000000+00:00</time></trkpt><trkpt lat="39.45245013" lon="-0.34538537"><ele>5.6</ele><time>2022-11-04T16:17:43.0000000+00:00</time></trkpt><trkpt lat="39.4524492" lon="-0.34538546"><ele>5.6</ele><time>2022-11-04T16:17:44.0000000+00:00</time></trkpt><trkpt lat="39.45244879" lon="-0.34538554"><ele>5.6</ele><time>2022-11-04T16:17:45.0000000+00:00</time></trkpt><trkpt lat="39.45244862" lon="-0.34538562"><ele>5.6</ele><time>2022-11-04T16:17:46.0000000+00:00</time></trkpt><trkpt lat="39.45244837" lon="-0.34538571"><ele>5.6</ele><time>2022-11-04T16:17:47.0000000+00:00</time></trkpt><trkpt lat="39.4524482" lon="-0.34538571"><ele>5.6</ele><time>2022-11-04T16:17:48.0000000+00:00</time></trkpt><trkpt lat="39.45244803" lon="-0.34538579"><ele>5.6</ele><time>2022-11-04T16:17:49.0000000+00:00</time></trkpt><trkpt lat="39.45244795" lon="-0.34538579"><ele>5.6</ele><time>2022-11-04T16:17:50.0000000+00:00</time></trkpt><trkpt lat="39.45244719" lon="-0.34538579"><ele>5.6</ele><time>2022-11-04T16:17:51.0000000+00:00</time></trkpt><trkpt lat="39.45244661" lon="-0.34538579"><ele>5.6</ele><time>2022-11-04T16:17:52.0000000+00:00</time></trkpt><trkpt lat="39.45244627" lon="-0.34538579"><ele>5.6</ele><time>2022-11-04T16:17:53.0000000+00:00</time></trkpt><trkpt lat="39.4524461" lon="-0.34538579"><ele>5.6</ele><time>2022-11-04T16:17:54.0000000+00:00</time></trkpt><trkpt lat="39.45244602" lon="-0.34538579"><ele>5.6</ele><time>2022-11-04T16:17:55.0000000+00:00</time></trkpt><trkpt lat="39.45244594" lon="-0.34538579"><ele>5.6</ele><time>2022-11-04T16:17:56.0000000+00:00</time></trkpt><trkpt lat="39.45244594" lon="-0.34538579"><ele>5.6</ele><time>2022-11-04T16:17:57.0000000+00:00</time></trkpt><trkpt lat="39.45244585" lon="-0.34538588"><ele>5.6</ele><time>2022-11-04T16:17:58.0000000+00:00</time></trkpt><trkpt lat="39.45244577" lon="-0.34538596"><ele>5.6</ele><time>2022-11-04T16:17:59.0000000+00:00</time></trkpt><trkpt lat="39.45244568" lon="-0.34538613"><ele>5.6</ele><time>2022-11-04T16:18:00.0000000+00:00</time></trkpt><trkpt lat="39.4524456" lon="-0.3453863"><ele>5.6</ele><time>2022-11-04T16:18:01.0000000+00:00</time></trkpt><trkpt lat="39.45244543" lon="-0.3453868"><ele>5.6</ele><time>2022-11-04T16:18:02.0000000+00:00</time></trkpt><trkpt lat="39.45244527" lon="-0.3453873"><ele>5.6</ele><time>2022-11-04T16:18:03.0000000+00:00</time></trkpt><trkpt lat="39.45244518" lon="-0.34538764"><ele>5.6</ele><time>2022-11-04T16:18:04.0000000+00:00</time></trkpt><trkpt lat="39.45244468" lon="-0.34538806"><ele>5.6</ele><time>2022-11-04T16:18:05.0000000+00:00</time></trkpt><trkpt lat="39.45244443" lon="-0.34538839"><ele>5.6</ele><time>2022-11-04T16:18:06.0000000+00:00</time></trkpt><trkpt lat="39.45244426" lon="-0.34538864"><ele>5.6</ele><time>2022-11-04T16:18:07.0000000+00:00</time></trkpt><trkpt lat="39.45244384" lon="-0.34538898"><ele>5.6</ele><time>2022-11-04T16:18:08.0000000+00:00</time></trkpt><trkpt lat="39.45244334" lon="-0.34538923"><ele>5.6</ele><time>2022-11-04T16:18:09.0000000+00:00</time></trkpt><trkpt lat="39.452443" lon="-0.34538956"><ele>5.6</ele><time>2022-11-04T16:18:10.0000000+00:00</time></trkpt><trkpt lat="39.45244275" lon="-0.34538982"><ele>5.6</ele><time>2022-11-04T16:18:11.0000000+00:00</time></trkpt><trkpt lat="39.4524425" lon="-0.34539007"><ele>5.6</ele><time>2022-11-04T16:18:12.0000000+00:00</time></trkpt><trkpt lat="39.452442" lon="-0.34539032"><ele>5.6</ele><time>2022-11-04T16:18:13.0000000+00:00</time></trkpt><trkpt lat="39.45244099" lon="-0.34539074"><ele>5.6</ele><time>2022-11-04T16:18:14.0000000+00:00</time></trkpt><trkpt lat="39.45244032" lon="-0.34539107"><ele>5.6</ele><time>2022-11-04T16:18:15.0000000+00:00</time></trkpt><trkpt lat="39.45243965" lon="-0.34539149"><ele>5.6</ele><time>2022-11-04T16:18:16.0000000+00:00</time></trkpt><trkpt lat="39.45243931" lon="-0.34539166"><ele>5.6</ele><time>2022-11-04T16:18:17.0000000+00:00</time></trkpt><trkpt lat="39.45243864" lon="-0.34539174"><ele>5.6</ele><time>2022-11-04T16:18:18.0000000+00:00</time></trkpt><trkpt lat="39.45243789" lon="-0.34539183"><ele>5.6</ele><time>2022-11-04T16:18:19.0000000+00:00</time></trkpt><trkpt lat="39.4524373" lon="-0.34539183"><ele>5.6</ele><time>2022-11-04T16:18:20.0000000+00:00</time></trkpt><trkpt lat="39.45243655" lon="-0.34539183"><ele>5.6</ele><time>2022-11-04T16:18:21.0000000+00:00</time></trkpt><trkpt lat="39.45243605" lon="-0.34539183"><ele>5.6</ele><time>2022-11-04T16:18:22.0000000+00:00</time></trkpt><trkpt lat="39.45243563" lon="-0.34539183"><ele>5.6</ele><time>2022-11-04T16:18:23.0000000+00:00</time></trkpt><trkpt lat="39.45243512" lon="-0.34539183"><ele>5.6</ele><time>2022-11-04T16:18:24.0000000+00:00</time></trkpt><trkpt lat="39.45243437" lon="-0.34539183"><ele>5.6</ele><time>2022-11-04T16:18:25.0000000+00:00</time></trkpt><trkpt lat="39.45243378" lon="-0.34539183"><ele>5.6</ele><time>2022-11-04T16:18:26.0000000+00:00</time></trkpt><trkpt lat="39.45243353" lon="-0.34539183"><ele>5.6</ele><time>2022-11-04T16:18:27.0000000+00:00</time></trkpt><trkpt lat="39.45243328" lon="-0.34539174"><ele>5.6</ele><time>2022-11-04T16:18:28.0000000+00:00</time></trkpt><trkpt lat="39.4524332" lon="-0.34539166"><ele>5.6</ele><time>2022-11-04T16:18:29.0000000+00:00</time></trkpt><trkpt lat="39.45243311" lon="-0.34539149"><ele>5.6</ele><time>2022-11-04T16:18:30.0000000+00:00</time></trkpt><trkpt lat="39.45243311" lon="-0.3453904"><ele>5.6</ele><time>2022-11-04T16:18:31.0000000+00:00</time></trkpt><trkpt lat="39.45243303" lon="-0.34538831"><ele>5.6</ele><time>2022-11-04T16:18:32.0000000+00:00</time></trkpt><trkpt lat="39.45243303" lon="-0.34538655"><ele>5.6</ele><time>2022-11-04T16:18:33.0000000+00:00</time></trkpt><trkpt lat="39.45243303" lon="-0.34538529"><ele>5.6</ele><time>2022-11-04T16:18:34.0000000+00:00</time></trkpt><trkpt lat="39.45243303" lon="-0.34538462"><ele>5.6</ele><time>2022-11-04T16:18:35.0000000+00:00</time></trkpt><trkpt lat="39.45243311" lon="-0.34538403"><ele>5.6</ele><time>2022-11-04T16:18:36.0000000+00:00</time></trkpt><trkpt lat="39.4524332" lon="-0.3453837"><ele>5.6</ele><time>2022-11-04T16:18:37.0000000+00:00</time></trkpt><trkpt lat="39.45243361" lon="-0.34538345"><ele>5.6</ele><time>2022-11-04T16:18:38.0000000+00:00</time></trkpt><trkpt lat="39.45243412" lon="-0.34538328"><ele>5.6</ele><time>2022-11-04T16:18:39.0000000+00:00</time></trkpt><trkpt lat="39.45243454" lon="-0.34538319"><ele>5.6</ele><time>2022-11-04T16:18:40.0000000+00:00</time></trkpt><trkpt lat="39.45243479" lon="-0.34538311"><ele>5.6</ele><time>2022-11-04T16:18:41.0000000+00:00</time></trkpt><trkpt lat="39.45243462" lon="-0.34538303"><ele>5.6</ele><time>2022-11-04T16:18:42.0000000+00:00</time></trkpt><trkpt lat="39.45243462" lon="-0.34538294"><ele>5.6</ele><time>2022-11-04T16:18:43.0000000+00:00</time></trkpt><trkpt lat="39.45243454" lon="-0.34538286"><ele>5.6</ele><time>2022-11-04T16:18:44.0000000+00:00</time></trkpt><trkpt lat="39.4524347" lon="-0.34538286"><ele>5.6</ele><time>2022-11-04T16:18:45.0000000+00:00</time></trkpt><trkpt lat="39.45243487" lon="-0.34538277"><ele>5.6</ele><time>2022-11-04T16:18:46.0000000+00:00</time></trkpt><trkpt lat="39.45243496" lon="-0.34538277"><ele>5.6</ele><time>2022-11-04T16:18:47.0000000+00:00</time></trkpt><trkpt lat="39.45243504" lon="-0.34538277"><ele>5.6</ele><time>2022-11-04T16:18:48.0000000+00:00</time></trkpt><trkpt lat="39.45243512" lon="-0.34538277"><ele>5.6</ele><time>2022-11-04T16:18:49.0000000+00:00</time></trkpt><trkpt lat="39.45243529" lon="-0.34538277"><ele>5.6</ele><time>2022-11-04T16:18:50.0000000+00:00</time></trkpt><trkpt lat="39.45243537" lon="-0.34538286"><ele>5.6</ele><time>2022-11-04T16:18:51.0000000+00:00</time></trkpt><trkpt lat="39.45243563" lon="-0.34538286"><ele>5.6</ele><time>2022-11-04T16:18:52.0000000+00:00</time></trkpt><trkpt lat="39.45243605" lon="-0.34538294"><ele>5.6</ele><time>2022-11-04T16:18:53.0000000+00:00</time></trkpt><trkpt lat="39.4524363" lon="-0.34538294"><ele>5.6</ele><time>2022-11-04T16:18:54.0000000+00:00</time></trkpt><trkpt lat="39.45243655" lon="-0.34538303"><ele>5.6</ele><time>2022-11-04T16:18:55.0000000+00:00</time></trkpt><trkpt lat="39.45243705" lon="-0.34538311"><ele>5.6</ele><time>2022-11-04T16:18:56.0000000+00:00</time></trkpt><trkpt lat="39.45243755" lon="-0.34538311"><ele>5.6</ele><time>2022-11-04T16:18:57.0000000+00:00</time></trkpt><trkpt lat="39.45243789" lon="-0.34538319"><ele>5.6</ele><time>2022-11-04T16:18:58.0000000+00:00</time></trkpt><trkpt lat="39.45243831" lon="-0.34538378"><ele>5.6</ele><time>2022-11-04T16:18:59.0000000+00:00</time></trkpt><trkpt lat="39.45243873" lon="-0.34538445"><ele>5.6</ele><time>2022-11-04T16:19:00.0000000+00:00</time></trkpt><trkpt lat="39.45243906" lon="-0.34538495"><ele>5.6</ele><time>2022-11-04T16:19:01.0000000+00:00</time></trkpt><trkpt lat="39.45243957" lon="-0.34538546"><ele>5.6</ele><time>2022-11-04T16:19:02.0000000+00:00</time></trkpt><trkpt lat="39.45244007" lon="-0.34538588"><ele>5.6</ele><time>2022-11-04T16:19:03.0000000+00:00</time></trkpt><trkpt lat="39.4524404" lon="-0.34538621"><ele>5.6</ele><time>2022-11-04T16:19:04.0000000+00:00</time></trkpt><trkpt lat="39.45244066" lon="-0.3453868"><ele>5.6</ele><time>2022-11-04T16:19:05.0000000+00:00</time></trkpt><trkpt lat="39.45244099" lon="-0.3453873"><ele>5.6</ele><time>2022-11-04T16:19:06.0000000+00:00</time></trkpt><trkpt lat="39.45244124" lon="-0.34538772"><ele>5.6</ele><time>2022-11-04T16:19:07.0000000+00:00</time></trkpt><trkpt lat="39.45244141" lon="-0.34538806"><ele>5.6</ele><time>2022-11-04T16:19:08.0000000+00:00</time></trkpt><trkpt lat="39.45244166" lon="-0.34538847"><ele>5.6</ele><time>2022-11-04T16:19:09.0000000+00:00</time></trkpt><trkpt lat="39.45244191" lon="-0.34538881"><ele>5.6</ele><time>2022-11-04T16:19:10.0000000+00:00</time></trkpt><trkpt lat="39.45244225" lon="-0.34538914"><ele>5.6</ele><time>2022-11-04T16:19:11.0000000+00:00</time></trkpt><trkpt lat="39.45244258" lon="-0.3453894"><ele>5.6</ele><time>2022-11-04T16:19:12.0000000+00:00</time></trkpt><trkpt lat="39.45244292" lon="-0.34538998"><ele>5.6</ele><time>2022-11-04T16:19:13.0000000+00:00</time></trkpt><trkpt lat="39.45244317" lon="-0.34539074"><ele>5.6</ele><time>2022-11-04T16:19:14.0000000+00:00</time></trkpt><trkpt lat="39.45244342" lon="-0.34539158"><ele>5.6</ele><time>2022-11-04T16:19:15.0000000+00:00</time></trkpt><trkpt lat="39.45244376" lon="-0.34539233"><ele>5.6</ele><time>2022-11-04T16:19:16.0000000+00:00</time></trkpt><trkpt lat="39.45244392" lon="-0.34539292"><ele>5.6</ele><time>2022-11-04T16:19:17.0000000+00:00</time></trkpt><trkpt lat="39.45244418" lon="-0.3453935"><ele>5.6</ele><time>2022-11-04T16:19:18.0000000+00:00</time></trkpt><trkpt lat="39.45244434" lon="-0.34539409"><ele>5.6</ele><time>2022-11-04T16:19:19.0000000+00:00</time></trkpt><trkpt lat="39.45244451" lon="-0.34539459"><ele>5.6</ele><time>2022-11-04T16:19:20.0000000+00:00</time></trkpt><trkpt lat="39.45244468" lon="-0.34539501"><ele>5.6</ele><time>2022-11-04T16:19:21.0000000+00:00</time></trkpt><trkpt lat="39.45244485" lon="-0.34539535"><ele>5.6</ele><time>2022-11-04T16:19:22.0000000+00:00</time></trkpt><trkpt lat="39.45244493" lon="-0.34539568"><ele>5.6</ele><time>2022-11-04T16:19:23.0000000+00:00</time></trkpt><trkpt lat="39.45244501" lon="-0.34539602"><ele>5.6</ele><time>2022-11-04T16:19:24.0000000+00:00</time></trkpt><trkpt lat="39.4524451" lon="-0.34539627"><ele>5.6</ele><time>2022-11-04T16:19:25.0000000+00:00</time></trkpt><trkpt lat="39.45244518" lon="-0.34539652"><ele>5.6</ele><time>2022-11-04T16:19:26.0000000+00:00</time></trkpt><trkpt lat="39.45244527" lon="-0.34539669"><ele>5.6</ele><time>2022-11-04T16:19:27.0000000+00:00</time></trkpt><trkpt lat="39.45244535" lon="-0.34539686"><ele>5.6</ele><time>2022-11-04T16:19:28.0000000+00:00</time></trkpt><trkpt lat="39.45244535" lon="-0.34539694"><ele>5.6</ele><time>2022-11-04T16:19:29.0000000+00:00</time></trkpt><trkpt lat="39.45244543" lon="-0.34539711"><ele>5.6</ele><time>2022-11-04T16:19:30.0000000+00:00</time></trkpt><trkpt lat="39.45244543" lon="-0.34539719"><ele>5.6</ele><time>2022-11-04T16:19:31.0000000+00:00</time></trkpt><trkpt lat="39.45244543" lon="-0.34539728"><ele>5.6</ele><time>2022-11-04T16:19:32.0000000+00:00</time></trkpt><trkpt lat="39.45244543" lon="-0.34539728"><ele>5.6</ele><time>2022-11-04T16:19:33.0000000+00:00</time></trkpt><trkpt lat="39.45244535" lon="-0.34539728"><ele>5.6</ele><time>2022-11-04T16:19:34.0000000+00:00</time></trkpt><trkpt lat="39.45244535" lon="-0.34539728"><ele>5.6</ele><time>2022-11-04T16:19:35.0000000+00:00</time></trkpt><trkpt lat="39.45244527" lon="-0.34539728"><ele>5.6</ele><time>2022-11-04T16:19:36.0000000+00:00</time></trkpt><trkpt lat="39.45244527" lon="-0.34539728"><ele>5.6</ele><time>2022-11-04T16:19:37.0000000+00:00</time></trkpt><trkpt lat="39.45244518" lon="-0.34539736"><ele>5.6</ele><time>2022-11-04T16:19:38.0000000+00:00</time></trkpt><trkpt lat="39.4524451" lon="-0.34539728"><ele>5.6</ele><time>2022-11-04T16:19:39.0000000+00:00</time></trkpt><trkpt lat="39.45244501" lon="-0.34539711"><ele>5.6</ele><time>2022-11-04T16:19:40.0000000+00:00</time></trkpt><trkpt lat="39.45244501" lon="-0.34539694"><ele>5.6</ele><time>2022-11-04T16:19:41.0000000+00:00</time></trkpt><trkpt lat="39.45244493" lon="-0.34539669"><ele>5.6</ele><time>2022-11-04T16:19:42.0000000+00:00</time></trkpt><trkpt lat="39.45244485" lon="-0.34539644"><ele>5.6</ele><time>2022-11-04T16:19:43.0000000+00:00</time></trkpt><trkpt lat="39.45244485" lon="-0.34539619"><ele>5.6</ele><time>2022-11-04T16:19:44.0000000+00:00</time></trkpt><trkpt lat="39.45244485" lon="-0.34539602"><ele>5.6</ele><time>2022-11-04T16:19:45.0000000+00:00</time></trkpt><trkpt lat="39.45244476" lon="-0.34539585"><ele>5.6</ele><time>2022-11-04T16:19:46.0000000+00:00</time></trkpt><trkpt lat="39.45244476" lon="-0.34539577"><ele>5.6</ele><time>2022-11-04T16:19:47.0000000+00:00</time></trkpt><trkpt lat="39.45244493" lon="-0.34539593"><ele>5.6</ele><time>2022-11-04T16:19:48.0000000+00:00</time></trkpt><trkpt lat="39.4524451" lon="-0.34539602"><ele>5.6</ele><time>2022-11-04T16:19:49.0000000+00:00</time></trkpt><trkpt lat="39.4524451" lon="-0.3453961"><ele>5.6</ele><time>2022-11-04T16:19:50.0000000+00:00</time></trkpt><trkpt lat="39.45244518" lon="-0.34539619"><ele>5.6</ele><time>2022-11-04T16:19:51.0000000+00:00</time></trkpt><trkpt lat="39.45244518" lon="-0.34539627"><ele>5.6</ele><time>2022-11-04T16:19:52.0000000+00:00</time></trkpt><trkpt lat="39.45244518" lon="-0.34539627"><ele>5.6</ele><time>2022-11-04T16:19:53.0000000+00:00</time></trkpt><trkpt lat="39.45244518" lon="-0.3453961"><ele>5.6</ele><time>2022-11-04T16:19:54.0000000+00:00</time></trkpt><trkpt lat="39.45244501" lon="-0.34539593"><ele>5.6</ele><time>2022-11-04T16:19:55.0000000+00:00</time></trkpt><trkpt lat="39.45244493" lon="-0.34539577"><ele>5.6</ele><time>2022-11-04T16:19:56.0000000+00:00</time></trkpt><trkpt lat="39.45244485" lon="-0.34539577"><ele>5.6</ele><time>2022-11-04T16:19:57.0000000+00:00</time></trkpt><trkpt lat="39.45244485" lon="-0.3453956"><ele>5.6</ele><time>2022-11-04T16:19:58.0000000+00:00</time></trkpt><trkpt lat="39.45244476" lon="-0.3453956"><ele>5.6</ele><time>2022-11-04T16:19:59.0000000+00:00</time></trkpt><trkpt lat="39.45244476" lon="-0.3453956"><ele>5.6</ele><time>2022-11-04T16:20:00.0000000+00:00</time></trkpt><trkpt lat="39.45244459" lon="-0.34539577"><ele>5.6</ele><time>2022-11-04T16:20:01.0000000+00:00</time></trkpt><trkpt lat="39.45244451" lon="-0.34539577"><ele>5.6</ele><time>2022-11-04T16:20:02.0000000+00:00</time></trkpt><trkpt lat="39.45244443" lon="-0.34539585"><ele>5.6</ele><time>2022-11-04T16:20:03.0000000+00:00</time></trkpt><trkpt lat="39.45244434" lon="-0.34539577"><ele>5.6</ele><time>2022-11-04T16:20:04.0000000+00:00</time></trkpt><trkpt lat="39.45244426" lon="-0.34539568"><ele>5.6</ele><time>2022-11-04T16:20:05.0000000+00:00</time></trkpt><trkpt lat="39.45244418" lon="-0.3453956"><ele>5.6</ele><time>2022-11-04T16:20:06.0000000+00:00</time></trkpt><trkpt lat="39.45244401" lon="-0.34539543"><ele>5.6</ele><time>2022-11-04T16:20:07.0000000+00:00</time></trkpt><trkpt lat="39.45244401" lon="-0.34539518"><ele>5.6</ele><time>2022-11-04T16:20:08.0000000+00:00</time></trkpt><trkpt lat="39.45244409" lon="-0.3453951"><ele>5.6</ele><time>2022-11-04T16:20:09.0000000+00:00</time></trkpt><trkpt lat="39.45244409" lon="-0.34539501"><ele>5.6</ele><time>2022-11-04T16:20:10.0000000+00:00</time></trkpt><trkpt lat="39.45244426" lon="-0.34539484"><ele>5.6</ele><time>2022-11-04T16:20:11.0000000+00:00</time></trkpt><trkpt lat="39.45244426" lon="-0.34539484"><ele>5.6</ele><time>2022-11-04T16:20:12.0000000+00:00</time></trkpt><trkpt lat="39.45244426" lon="-0.34539484"><ele>5.6</ele><time>2022-11-04T16:20:13.0000000+00:00</time></trkpt><trkpt lat="39.45244426" lon="-0.34539484"><ele>5.6</ele><time>2022-11-04T16:20:14.0000000+00:00</time></trkpt><trkpt lat="39.45244434" lon="-0.34539493"><ele>5.6</ele><time>2022-11-04T16:20:15.0000000+00:00</time></trkpt><trkpt lat="39.45244443" lon="-0.34539484"><ele>5.6</ele><time>2022-11-04T16:20:16.0000000+00:00</time></trkpt><trkpt lat="39.45244443" lon="-0.34539476"><ele>5.6</ele><time>2022-11-04T16:20:17.0000000+00:00</time></trkpt><trkpt lat="39.45244443" lon="-0.34539468"><ele>5.6</ele><time>2022-11-04T16:20:18.0000000+00:00</time></trkpt><trkpt lat="39.45244443" lon="-0.34539459"><ele>5.6</ele><time>2022-11-04T16:20:19.0000000+00:00</time></trkpt><trkpt lat="39.45244443" lon="-0.34539443"><ele>5.6</ele><time>2022-11-04T16:20:20.0000000+00:00</time></trkpt><trkpt lat="39.45244451" lon="-0.34539434"><ele>5.6</ele><time>2022-11-04T16:20:21.0000000+00:00</time></trkpt><trkpt lat="39.45244451" lon="-0.34539426"><ele>5.6</ele><time>2022-11-04T16:20:22.0000000+00:00</time></trkpt><trkpt lat="39.45244451" lon="-0.34539409"><ele>5.6</ele><time>2022-11-04T16:20:23.0000000+00:00</time></trkpt><trkpt lat="39.45244459" lon="-0.34539401"><ele>5.6</ele><time>2022-11-04T16:20:24.0000000+00:00</time></trkpt><trkpt lat="39.45244443" lon="-0.34539392"><ele>5.6</ele><time>2022-11-04T16:20:25.0000000+00:00</time></trkpt><trkpt lat="39.45244443" lon="-0.34539376"><ele>5.6</ele><time>2022-11-04T16:20:26.0000000+00:00</time></trkpt><trkpt lat="39.45244443" lon="-0.34539367"><ele>5.6</ele><time>2022-11-04T16:20:27.0000000+00:00</time></trkpt><trkpt lat="39.45244451" lon="-0.34539359"><ele>5.6</ele><time>2022-11-04T16:20:28.0000000+00:00</time></trkpt><trkpt lat="39.45244459" lon="-0.34539342"><ele>5.6</ele><time>2022-11-04T16:20:29.0000000+00:00</time></trkpt><trkpt lat="39.45244459" lon="-0.34539334"><ele>5.6</ele><time>2022-11-04T16:20:30.0000000+00:00</time></trkpt><trkpt lat="39.45244476" lon="-0.34539317"><ele>5.6</ele><time>2022-11-04T16:20:31.0000000+00:00</time></trkpt><trkpt lat="39.45244485" lon="-0.345393"><ele>5.6</ele><time>2022-11-04T16:20:32.0000000+00:00</time></trkpt><trkpt lat="39.45244485" lon="-0.34539292"><ele>5.6</ele><time>2022-11-04T16:20:33.0000000+00:00</time></trkpt><trkpt lat="39.45244493" lon="-0.34539275"><ele>5.6</ele><time>2022-11-04T16:20:34.0000000+00:00</time></trkpt><trkpt lat="39.45244501" lon="-0.34539258"><ele>5.6</ele><time>2022-11-04T16:20:35.0000000+00:00</time></trkpt><trkpt lat="39.4524451" lon="-0.34539241"><ele>5.6</ele><time>2022-11-04T16:20:36.0000000+00:00</time></trkpt><trkpt lat="39.4524451" lon="-0.34539225"><ele>5.6</ele><time>2022-11-04T16:20:37.0000000+00:00</time></trkpt><trkpt lat="39.45244518" lon="-0.34539216"><ele>5.6</ele><time>2022-11-04T16:20:38.0000000+00:00</time></trkpt><trkpt lat="39.45244518" lon="-0.34539208"><ele>5.6</ele><time>2022-11-04T16:20:39.0000000+00:00</time></trkpt><trkpt lat="39.45244535" lon="-0.34539191"><ele>5.6</ele><time>2022-11-04T16:20:40.0000000+00:00</time></trkpt><trkpt lat="39.45244552" lon="-0.34539174"><ele>5.6</ele><time>2022-11-04T16:20:41.0000000+00:00</time></trkpt><trkpt lat="39.45244552" lon="-0.34539174"><ele>5.6</ele><time>2022-11-04T16:20:42.0000000+00:00</time></trkpt><trkpt lat="39.4524456" lon="-0.34539166"><ele>5.6</ele><time>2022-11-04T16:20:43.0000000+00:00</time></trkpt><trkpt lat="39.4524456" lon="-0.34539158"><ele>5.6</ele><time>2022-11-04T16:20:44.0000000+00:00</time></trkpt><trkpt lat="39.4524456" lon="-0.34539158"><ele>5.6</ele><time>2022-11-04T16:20:45.0000000+00:00</time></trkpt><trkpt lat="39.4524456" lon="-0.34539149"><ele>5.6</ele><time>2022-11-04T16:20:46.0000000+00:00</time></trkpt><trkpt lat="39.45244577" lon="-0.34539158"><ele>5.6</ele><time>2022-11-04T16:20:47.0000000+00:00</time></trkpt><trkpt lat="39.45244594" lon="-0.34539174"><ele>5.6</ele><time>2022-11-04T16:20:48.0000000+00:00</time></trkpt><trkpt lat="39.45244602" lon="-0.34539174"><ele>5.6</ele><time>2022-11-04T16:20:49.0000000+00:00</time></trkpt><trkpt lat="39.4524461" lon="-0.34539166"><ele>5.6</ele><time>2022-11-04T16:20:50.0000000+00:00</time></trkpt><trkpt lat="39.4524461" lon="-0.34539158"><ele>5.6</ele><time>2022-11-04T16:20:51.0000000+00:00</time></trkpt><trkpt lat="39.45244619" lon="-0.34539158"><ele>5.6</ele><time>2022-11-04T16:20:52.0000000+00:00</time></trkpt><trkpt lat="39.45244627" lon="-0.34539141"><ele>5.6</ele><time>2022-11-04T16:20:53.0000000+00:00</time></trkpt><trkpt lat="39.45244644" lon="-0.34539149"><ele>5.6</ele><time>2022-11-04T16:20:54.0000000+00:00</time></trkpt><trkpt lat="39.45244644" lon="-0.34539141"><ele>5.6</ele><time>2022-11-04T16:20:55.0000000+00:00</time></trkpt><trkpt lat="39.45244652" lon="-0.34539132"><ele>5.6</ele><time>2022-11-04T16:20:56.0000000+00:00</time></trkpt><trkpt lat="39.45244644" lon="-0.34539141"><ele>5.6</ele><time>2022-11-04T16:20:57.0000000+00:00</time></trkpt><trkpt lat="39.45244644" lon="-0.34539132"><ele>5.6</ele><time>2022-11-04T16:20:58.0000000+00:00</time></trkpt><trkpt lat="39.45244644" lon="-0.34539124"><ele>5.6</ele><time>2022-11-04T16:20:59.0000000+00:00</time></trkpt><trkpt lat="39.45244644" lon="-0.34539141"><ele>5.6</ele><time>2022-11-04T16:21:00.0000000+00:00</time></trkpt><trkpt lat="39.45244644" lon="-0.34539149"><ele>5.6</ele><time>2022-11-04T16:21:01.0000000+00:00</time></trkpt><trkpt lat="39.45244644" lon="-0.34539158"><ele>5.6</ele><time>2022-11-04T16:21:02.0000000+00:00</time></trkpt><trkpt lat="39.45244652" lon="-0.34539166"><ele>5.6</ele><time>2022-11-04T16:21:03.0000000+00:00</time></trkpt><trkpt lat="39.45244661" lon="-0.34539174"><ele>5.6</ele><time>2022-11-04T16:21:04.0000000+00:00</time></trkpt><trkpt lat="39.45244661" lon="-0.34539158"><ele>5.6</ele><time>2022-11-04T16:21:05.0000000+00:00</time></trkpt><trkpt lat="39.45244669" lon="-0.34539158"><ele>5.6</ele><time>2022-11-04T16:21:06.0000000+00:00</time></trkpt><trkpt lat="39.45244686" lon="-0.34539149"><ele>5.6</ele><time>2022-11-04T16:21:07.0000000+00:00</time></trkpt><trkpt lat="39.45244694" lon="-0.34539132"><ele>5.6</ele><time>2022-11-04T16:21:08.0000000+00:00</time></trkpt><trkpt lat="39.45244703" lon="-0.34539124"><ele>5.6</ele><time>2022-11-04T16:21:09.0000000+00:00</time></trkpt><trkpt lat="39.45244711" lon="-0.34539124"><ele>5.6</ele><time>2022-11-04T16:21:10.0000000+00:00</time></trkpt><trkpt lat="39.45244711" lon="-0.34539124"><ele>5.6</ele><time>2022-11-04T16:21:11.0000000+00:00</time></trkpt><trkpt lat="39.45244719" lon="-0.34539107"><ele>5.6</ele><time>2022-11-04T16:21:12.0000000+00:00</time></trkpt><trkpt lat="39.45244711" lon="-0.34539099"><ele>5.6</ele><time>2022-11-04T16:21:13.0000000+00:00</time></trkpt><trkpt lat="39.45244711" lon="-0.34539099"><ele>5.6</ele><time>2022-11-04T16:21:14.0000000+00:00</time></trkpt><trkpt lat="39.45244711" lon="-0.34539099"><ele>5.6</ele><time>2022-11-04T16:21:15.0000000+00:00</time></trkpt><trkpt lat="39.45244711" lon="-0.34539107"><ele>5.6</ele><time>2022-11-04T16:21:16.0000000+00:00</time></trkpt><trkpt lat="39.45244703" lon="-0.34539099"><ele>5.6</ele><time>2022-11-04T16:21:17.0000000+00:00</time></trkpt><trkpt lat="39.45244694" lon="-0.34539091"><ele>5.6</ele><time>2022-11-04T16:21:18.0000000+00:00</time></trkpt><trkpt lat="39.45244686" lon="-0.34539082"><ele>5.6</ele><time>2022-11-04T16:21:19.0000000+00:00</time></trkpt><trkpt lat="39.45244677" lon="-0.34539065"><ele>5.6</ele><time>2022-11-04T16:21:20.0000000+00:00</time></trkpt><trkpt lat="39.45244669" lon="-0.34539065"><ele>5.6</ele><time>2022-11-04T16:21:21.0000000+00:00</time></trkpt><trkpt lat="39.45244669" lon="-0.34539057"><ele>5.6</ele><time>2022-11-04T16:21:22.0000000+00:00</time></trkpt><trkpt lat="39.45244669" lon="-0.34539057"><ele>5.6</ele><time>2022-11-04T16:21:23.0000000+00:00</time></trkpt><trkpt lat="39.45244669" lon="-0.34539049"><ele>5.6</ele><time>2022-11-04T16:21:24.0000000+00:00</time></trkpt><trkpt lat="39.45244661" lon="-0.34539057"><ele>5.6</ele><time>2022-11-04T16:21:25.0000000+00:00</time></trkpt><trkpt lat="39.45244669" lon="-0.34539057"><ele>5.6</ele><time>2022-11-04T16:21:26.0000000+00:00</time></trkpt><trkpt lat="39.45244669" lon="-0.34539057"><ele>5.6</ele><time>2022-11-04T16:21:27.0000000+00:00</time></trkpt><trkpt lat="39.45244677" lon="-0.34539057"><ele>5.6</ele><time>2022-11-04T16:21:28.0000000+00:00</time></trkpt><trkpt lat="39.45244694" lon="-0.34539065"><ele>5.6</ele><time>2022-11-04T16:21:29.0000000+00:00</time></trkpt><trkpt lat="39.45244711" lon="-0.34539057"><ele>5.6</ele><time>2022-11-04T16:21:30.0000000+00:00</time></trkpt><trkpt lat="39.45244719" lon="-0.34539049"><ele>5.6</ele><time>2022-11-04T16:21:31.0000000+00:00</time></trkpt><trkpt lat="39.45244728" lon="-0.3453904"><ele>5.6</ele><time>2022-11-04T16:21:32.0000000+00:00</time></trkpt><trkpt lat="39.45244728" lon="-0.34539032"><ele>5.6</ele><time>2022-11-04T16:21:33.0000000+00:00</time></trkpt><trkpt lat="39.45244736" lon="-0.34539023"><ele>5.6</ele><time>2022-11-04T16:21:34.0000000+00:00</time></trkpt><trkpt lat="39.45244744" lon="-0.34539015"><ele>5.6</ele><time>2022-11-04T16:21:35.0000000+00:00</time></trkpt><trkpt lat="39.45244753" lon="-0.34539007"><ele>5.6</ele><time>2022-11-04T16:21:36.0000000+00:00</time></trkpt><trkpt lat="39.45244753" lon="-0.34538998"><ele>5.6</ele><time>2022-11-04T16:21:37.0000000+00:00</time></trkpt><trkpt lat="39.4524477" lon="-0.3453899"><ele>5.6</ele><time>2022-11-04T16:21:38.0000000+00:00</time></trkpt><trkpt lat="39.4524477" lon="-0.34538973"><ele>5.6</ele><time>2022-11-04T16:21:39.0000000+00:00</time></trkpt><trkpt lat="39.45244778" lon="-0.34538956"><ele>5.6</ele><time>2022-11-04T16:21:40.0000000+00:00</time></trkpt><trkpt lat="39.45244786" lon="-0.3453894"><ele>5.6</ele><time>2022-11-04T16:21:41.0000000+00:00</time></trkpt><trkpt lat="39.45244795" lon="-0.34538914"><ele>5.6</ele><time>2022-11-04T16:21:42.0000000+00:00</time></trkpt><trkpt lat="39.45244812" lon="-0.34538889"><ele>5.6</ele><time>2022-11-04T16:21:43.0000000+00:00</time></trkpt><trkpt lat="39.4524482" lon="-0.34538873"><ele>5.6</ele><time>2022-11-04T16:21:44.0000000+00:00</time></trkpt><trkpt lat="39.4524482" lon="-0.34538856"><ele>5.6</ele><time>2022-11-04T16:21:45.0000000+00:00</time></trkpt><trkpt lat="39.4524482" lon="-0.34538839"><ele>5.6</ele><time>2022-11-04T16:21:46.0000000+00:00</time></trkpt><trkpt lat="39.4524482" lon="-0.34538814"><ele>5.6</ele><time>2022-11-04T16:21:47.0000000+00:00</time></trkpt><trkpt lat="39.45244812" lon="-0.34538789"><ele>5.6</ele><time>2022-11-04T16:21:48.0000000+00:00</time></trkpt><trkpt lat="39.4524482" lon="-0.34538764"><ele>5.6</ele><time>2022-11-04T16:21:49.0000000+00:00</time></trkpt><trkpt lat="39.45244828" lon="-0.34538738"><ele>5.6</ele><time>2022-11-04T16:21:50.0000000+00:00</time></trkpt><trkpt lat="39.45244837" lon="-0.34538722"><ele>5.6</ele><time>2022-11-04T16:21:51.0000000+00:00</time></trkpt><trkpt lat="39.45245105" lon="-0.34537674"><ele>5.6</ele><time>2022-11-04T16:21:52.0000000+00:00</time></trkpt><trkpt lat="39.45244912" lon="-0.3453692"><ele>5.6</ele><time>2022-11-04T16:21:53.0000000+00:00</time></trkpt><trkpt lat="39.45244803" lon="-0.34536132"><ele>5.6</ele><time>2022-11-04T16:21:54.0000000+00:00</time></trkpt><trkpt lat="39.45244644" lon="-0.34534749"><ele>5.6</ele><time>2022-11-04T16:21:55.0000000+00:00</time></trkpt><trkpt lat="39.45244367" lon="-0.34533743"><ele>5.6</ele><time>2022-11-04T16:21:56.0000000+00:00</time></trkpt><trkpt lat="39.4524389" lon="-0.34532402"><ele>5.6</ele><time>2022-11-04T16:21:57.0000000+00:00</time></trkpt><trkpt lat="39.4524311" lon="-0.34531077"><ele>5.6</ele><time>2022-11-04T16:21:58.0000000+00:00</time></trkpt><trkpt lat="39.452428" lon="-0.34530038"><ele>5.6</ele><time>2022-11-04T16:21:59.0000000+00:00</time></trkpt><trkpt lat="39.45241995" lon="-0.34529317"><ele>5.6</ele><time>2022-11-04T16:22:00.0000000+00:00</time></trkpt><trkpt lat="39.45241937" lon="-0.34528554"><ele>5.6</ele><time>2022-11-04T16:22:01.0000000+00:00</time></trkpt><trkpt lat="39.45241534" lon="-0.34528546"><ele>5.6</ele><time>2022-11-04T16:22:02.0000000+00:00</time></trkpt><trkpt lat="39.45240377" lon="-0.34528177"><ele>5.6</ele><time>2022-11-04T16:22:03.0000000+00:00</time></trkpt><trkpt lat="39.45239372" lon="-0.3452837"><ele>5.6</ele><time>2022-11-04T16:22:04.0000000+00:00</time></trkpt><trkpt lat="39.45238064" lon="-0.34528337"><ele>5.6</ele><time>2022-11-04T16:22:05.0000000+00:00</time></trkpt><trkpt lat="39.45237243" lon="-0.34528705"><ele>5.6</ele><time>2022-11-04T16:22:06.0000000+00:00</time></trkpt><trkpt lat="39.45236572" lon="-0.34529267"><ele>1.4</ele><time>2022-11-04T16:22:07.0000000+00:00</time></trkpt><trkpt lat="39.45236044" lon="-0.34529845"><ele>1.4</ele><time>2022-11-04T16:22:08.0000000+00:00</time></trkpt><trkpt lat="39.45235717" lon="-0.34530424"><ele>1.4</ele><time>2022-11-04T16:22:09.0000000+00:00</time></trkpt><trkpt lat="39.45235767" lon="-0.34531253"><ele>1.4</ele><time>2022-11-04T16:22:10.0000000+00:00</time></trkpt><trkpt lat="39.45235633" lon="-0.34531941"><ele>1.4</ele><time>2022-11-04T16:22:11.0000000+00:00</time></trkpt><trkpt lat="39.45235223" lon="-0.34532821"><ele>1.2</ele><time>2022-11-04T16:22:12.0000000+00:00</time></trkpt><trkpt lat="39.45234519" lon="-0.34534028"><ele>1.2</ele><time>2022-11-04T16:22:13.0000000+00:00</time></trkpt><trkpt lat="39.45233756" lon="-0.34535436"><ele>1.2</ele><time>2022-11-04T16:22:14.0000000+00:00</time></trkpt><trkpt lat="39.45233747" lon="-0.34536542"><ele>1.2</ele><time>2022-11-04T16:22:15.0000000+00:00</time></trkpt><trkpt lat="39.45234041" lon="-0.34537632"><ele>1.2</ele><time>2022-11-04T16:22:16.0000000+00:00</time></trkpt><trkpt lat="39.45234099" lon="-0.34538194"><ele>1.2</ele><time>2022-11-04T16:22:17.0000000+00:00</time></trkpt><trkpt lat="39.45234099" lon="-0.34538512"><ele>1.2</ele><time>2022-11-04T16:22:18.0000000+00:00</time></trkpt><trkpt lat="39.45234141" lon="-0.34538579"><ele>1.2</ele><time>2022-11-04T16:22:19.0000000+00:00</time></trkpt><trkpt lat="39.45234292" lon="-0.34538412"><ele>1.2</ele><time>2022-11-04T16:22:20.0000000+00:00</time></trkpt><trkpt lat="39.45234493" lon="-0.34538118"><ele>1.4</ele><time>2022-11-04T16:22:21.0000000+00:00</time></trkpt><trkpt lat="39.45234502" lon="-0.34538018"><ele>1.4</ele><time>2022-11-04T16:22:22.0000000+00:00</time></trkpt><trkpt lat="39.45234401" lon="-0.34538085"><ele>1.6</ele><time>2022-11-04T16:22:23.0000000+00:00</time></trkpt><trkpt lat="39.45234435" lon="-0.34538043"><ele>1.6</ele><time>2022-11-04T16:22:24.0000000+00:00</time></trkpt><trkpt lat="39.4523451" lon="-0.34538135"><ele>1.6</ele><time>2022-11-04T16:22:25.0000000+00:00</time></trkpt><trkpt lat="39.4523451" lon="-0.34538303"><ele>1.8</ele><time>2022-11-04T16:22:26.0000000+00:00</time></trkpt><trkpt lat="39.45234636" lon="-0.34538185"><ele>1.8</ele><time>2022-11-04T16:22:27.0000000+00:00</time></trkpt><trkpt lat="39.45234745" lon="-0.34538076"><ele>1.8</ele><time>2022-11-04T16:22:28.0000000+00:00</time></trkpt><trkpt lat="39.45234745" lon="-0.34538076"><ele>1.6</ele><time>2022-11-04T16:22:29.0000000+00:00</time></trkpt><trkpt lat="39.45234745" lon="-0.34538076"><ele>1.6</ele><time>2022-11-04T16:22:30.0000000+00:00</time></trkpt><trkpt lat="39.45234745" lon="-0.34538076"><ele>1.4</ele><time>2022-11-04T16:22:31.0000000+00:00</time></trkpt><trkpt lat="39.45234745" lon="-0.34538076"><ele>1.4</ele><time>2022-11-04T16:22:32.0000000+00:00</time></trkpt><trkpt lat="39.45234745" lon="-0.34538076"><ele>1.4</ele><time>2022-11-04T16:22:33.0000000+00:00</time></trkpt><trkpt lat="39.45234745" lon="-0.34538076"><ele>1.4</ele><time>2022-11-04T16:22:34.0000000+00:00</time></trkpt><trkpt lat="39.45234745" lon="-0.34538076"><ele>1.4</ele><time>2022-11-04T16:22:35.0000000+00:00</time></trkpt><trkpt lat="39.45234745" lon="-0.34538076"><ele>1.4</ele><time>2022-11-04T16:22:36.0000000+00:00</time></trkpt><trkpt lat="39.45234745" lon="-0.34538076"><ele>1.2</ele><time>2022-11-04T16:22:37.0000000+00:00</time></trkpt><trkpt lat="39.45234745" lon="-0.34538076"><ele>1.2</ele><time>2022-11-04T16:22:38.0000000+00:00</time></trkpt><trkpt lat="39.45234745" lon="-0.34538076"><ele>1.2</ele><time>2022-11-04T16:22:39.0000000+00:00</time></trkpt><trkpt lat="39.45234745" lon="-0.34538076"><ele>1.2</ele><time>2022-11-04T16:22:40.0000000+00:00</time></trkpt><trkpt lat="39.45234745" lon="-0.34538076"><ele>1.2</ele><time>2022-11-04T16:22:41.0000000+00:00</time></trkpt><trkpt lat="39.45234745" lon="-0.34538076"><ele>1.2</ele><time>2022-11-04T16:22:42.0000000+00:00</time></trkpt><trkpt lat="39.45234745" lon="-0.34538043"><ele>1.2</ele><time>2022-11-04T16:22:43.0000000+00:00</time></trkpt><trkpt lat="39.45234745" lon="-0.34538018"><ele>1.2</ele><time>2022-11-04T16:22:44.0000000+00:00</time></trkpt><trkpt lat="39.45234745" lon="-0.34538009"><ele>1.2</ele><time>2022-11-04T16:22:45.0000000+00:00</time></trkpt><trkpt lat="39.45234745" lon="-0.34537942"><ele>1.4</ele><time>2022-11-04T16:22:46.0000000+00:00</time></trkpt><trkpt lat="39.45234745" lon="-0.34537934"><ele>1.4</ele><time>2022-11-04T16:22:47.0000000+00:00</time></trkpt><trkpt lat="39.45234745" lon="-0.34537934"><ele>1.2</ele><time>2022-11-04T16:22:48.0000000+00:00</time></trkpt><trkpt lat="39.45234871" lon="-0.34538328"><ele>1.2</ele><time>2022-11-04T16:22:49.0000000+00:00</time></trkpt><trkpt lat="39.45234896" lon="-0.34539795"><ele>1.2</ele><time>2022-11-04T16:22:50.0000000+00:00</time></trkpt><trkpt lat="39.45235784" lon="-0.34541161"><ele>1.2</ele><time>2022-11-04T16:22:51.0000000+00:00</time></trkpt><trkpt lat="39.45236455" lon="-0.34542779"><ele>1.2</ele><time>2022-11-04T16:22:52.0000000+00:00</time></trkpt><trkpt lat="39.45237268" lon="-0.34544438"><ele>1.2</ele><time>2022-11-04T16:22:53.0000000+00:00</time></trkpt><trkpt lat="39.4523829" lon="-0.34546089"><ele>1.2</ele><time>2022-11-04T16:22:54.0000000+00:00</time></trkpt><trkpt lat="39.45239305" lon="-0.34547783"><ele>1.0</ele><time>2022-11-04T16:22:55.0000000+00:00</time></trkpt><trkpt lat="39.45239766" lon="-0.34549149"><ele>1.0</ele><time>2022-11-04T16:22:56.0000000+00:00</time></trkpt><trkpt lat="39.45240059" lon="-0.34550431"><ele>1.0</ele><time>2022-11-04T16:22:57.0000000+00:00</time></trkpt><trkpt lat="39.45240612" lon="-0.34551697"><ele>1.0</ele><time>2022-11-04T16:22:58.0000000+00:00</time></trkpt><trkpt lat="39.45241149" lon="-0.34552828"><ele>1.0</ele><time>2022-11-04T16:22:59.0000000+00:00</time></trkpt><trkpt lat="39.45241618" lon="-0.34554203"><ele>1.0</ele><time>2022-11-04T16:23:00.0000000+00:00</time></trkpt><trkpt lat="39.45241786" lon="-0.34555477"><ele>1.0</ele><time>2022-11-04T16:23:01.0000000+00:00</time></trkpt><trkpt lat="39.4524228" lon="-0.34556533"><ele>1.0</ele><time>2022-11-04T16:23:02.0000000+00:00</time></trkpt><trkpt lat="39.45242515" lon="-0.34557547"><ele>1.0</ele><time>2022-11-04T16:23:03.0000000+00:00</time></trkpt><trkpt lat="39.45242398" lon="-0.34558662"><ele>1.2</ele><time>2022-11-04T16:23:04.0000000+00:00</time></trkpt><trkpt lat="39.45242414" lon="-0.3455976"><ele>1.2</ele><time>2022-11-04T16:23:05.0000000+00:00</time></trkpt><trkpt lat="39.4524285" lon="-0.34560515"><ele>1.2</ele><time>2022-11-04T16:23:06.0000000+00:00</time></trkpt><trkpt lat="39.45242917" lon="-0.3456173"><ele>1.0</ele><time>2022-11-04T16:23:07.0000000+00:00</time></trkpt><trkpt lat="39.45242993" lon="-0.34562971"><ele>1.0</ele><time>2022-11-04T16:23:08.0000000+00:00</time></trkpt><trkpt lat="39.45242959" lon="-0.34563867"><ele>1.0</ele><time>2022-11-04T16:23:09.0000000+00:00</time></trkpt><trkpt lat="39.45242632" lon="-0.34564488"><ele>1.0</ele><time>2022-11-04T16:23:10.0000000+00:00</time></trkpt><trkpt lat="39.45241735" lon="-0.34565368"><ele>0.8</ele><time>2022-11-04T16:23:11.0000000+00:00</time></trkpt><trkpt lat="39.45240579" lon="-0.34566374"><ele>0.8</ele><time>2022-11-04T16:23:12.0000000+00:00</time></trkpt><trkpt lat="39.45239623" lon="-0.34567296"><ele>0.8</ele><time>2022-11-04T16:23:13.0000000+00:00</time></trkpt><trkpt lat="39.45239288" lon="-0.34567966"><ele>0.8</ele><time>2022-11-04T16:23:14.0000000+00:00</time></trkpt><trkpt lat="39.45238743" lon="-0.34568427"><ele>0.6</ele><time>2022-11-04T16:23:15.0000000+00:00</time></trkpt><trkpt lat="39.4523819" lon="-0.34569098"><ele>0.6</ele><time>2022-11-04T16:23:16.0000000+00:00</time></trkpt><trkpt lat="39.45237402" lon="-0.34570137"><ele>0.6</ele><time>2022-11-04T16:23:17.0000000+00:00</time></trkpt><trkpt lat="39.45236958" lon="-0.34570439"><ele>0.4</ele><time>2022-11-04T16:23:18.0000000+00:00</time></trkpt><trkpt lat="39.45237243" lon="-0.34570112"><ele>0.4</ele><time>2022-11-04T16:23:19.0000000+00:00</time></trkpt><trkpt lat="39.45238282" lon="-0.34570296"><ele>0.2</ele><time>2022-11-04T16:23:20.0000000+00:00</time></trkpt><trkpt lat="39.4523933" lon="-0.3457064"><ele>0.0</ele><time>2022-11-04T16:23:21.0000000+00:00</time></trkpt><trkpt lat="39.45240042" lon="-0.34570682"><ele>0.0</ele><time>2022-11-04T16:23:22.0000000+00:00</time></trkpt><trkpt lat="39.45239305" lon="-0.34571881"><ele>-0.2</ele><time>2022-11-04T16:23:23.0000000+00:00</time></trkpt><trkpt lat="39.45238114" lon="-0.3457323"><ele>-0.2</ele><time>2022-11-04T16:23:24.0000000+00:00</time></trkpt><trkpt lat="39.45235977" lon="-0.34576968"><ele>-0.2</ele><time>2022-11-04T16:23:25.0000000+00:00</time></trkpt><trkpt lat="39.45234862" lon="-0.34579014"><ele>-0.4</ele><time>2022-11-04T16:23:26.0000000+00:00</time></trkpt><trkpt lat="39.45234695" lon="-0.34579617"><ele>-0.4</ele><time>2022-11-04T16:23:27.0000000+00:00</time></trkpt><trkpt lat="39.45233923" lon="-0.34580925"><ele>-0.6</ele><time>2022-11-04T16:23:28.0000000+00:00</time></trkpt><trkpt lat="39.45233362" lon="-0.34582098"><ele>-0.6</ele><time>2022-11-04T16:23:29.0000000+00:00</time></trkpt><trkpt lat="39.45233421" lon="-0.34583137"><ele>-0.6</ele><time>2022-11-04T16:23:30.0000000+00:00</time></trkpt><trkpt lat="39.45233873" lon="-0.34584411"><ele>-0.8</ele><time>2022-11-04T16:23:31.0000000+00:00</time></trkpt><trkpt lat="39.45234259" lon="-0.34585593"><ele>-0.8</ele><time>2022-11-04T16:23:32.0000000+00:00</time></trkpt><trkpt lat="39.45234753" lon="-0.34587052"><ele>-0.8</ele><time>2022-11-04T16:23:33.0000000+00:00</time></trkpt><trkpt lat="39.45235122" lon="-0.34588561"><ele>-0.8</ele><time>2022-11-04T16:23:34.0000000+00:00</time></trkpt><trkpt lat="39.45235591" lon="-0.34590002"><ele>-0.8</ele><time>2022-11-04T16:23:35.0000000+00:00</time></trkpt><trkpt lat="39.45236329" lon="-0.34591427"><ele>-0.8</ele><time>2022-11-04T16:23:36.0000000+00:00</time></trkpt><trkpt lat="39.45236882" lon="-0.34593104"><ele>-0.8</ele><time>2022-11-04T16:23:37.0000000+00:00</time></trkpt><trkpt lat="39.45237595" lon="-0.34594419"><ele>-0.8</ele><time>2022-11-04T16:23:38.0000000+00:00</time></trkpt><trkpt lat="39.45238391" lon="-0.34595392"><ele>-0.8</ele><time>2022-11-04T16:23:39.0000000+00:00</time></trkpt><trkpt lat="39.45239179" lon="-0.34596339"><ele>-0.6</ele><time>2022-11-04T16:23:40.0000000+00:00</time></trkpt><trkpt lat="39.45240076" lon="-0.34597294"><ele>-0.6</ele><time>2022-11-04T16:23:41.0000000+00:00</time></trkpt><trkpt lat="39.4524083" lon="-0.34597965"><ele>-0.4</ele><time>2022-11-04T16:23:42.0000000+00:00</time></trkpt><trkpt lat="39.45241853" lon="-0.34599256"><ele>-0.4</ele><time>2022-11-04T16:23:43.0000000+00:00</time></trkpt><trkpt lat="39.45242833" lon="-0.34600086"><ele>-0.4</ele><time>2022-11-04T16:23:44.0000000+00:00</time></trkpt><trkpt lat="39.45243672" lon="-0.3460084"><ele>-0.4</ele><time>2022-11-04T16:23:45.0000000+00:00</time></trkpt><trkpt lat="39.45244686" lon="-0.34601142"><ele>-0.6</ele><time>2022-11-04T16:23:46.0000000+00:00</time></trkpt><trkpt lat="39.45245759" lon="-0.34601645"><ele>-0.6</ele><time>2022-11-04T16:23:47.0000000+00:00</time></trkpt><trkpt lat="39.45246639" lon="-0.34602248"><ele>-0.6</ele><time>2022-11-04T16:23:48.0000000+00:00</time></trkpt><trkpt lat="39.45247603" lon="-0.34602173"><ele>-0.6</ele><time>2022-11-04T16:23:49.0000000+00:00</time></trkpt><trkpt lat="39.45248407" lon="-0.34601946"><ele>-0.6</ele><time>2022-11-04T16:23:50.0000000+00:00</time></trkpt><trkpt lat="39.45249338" lon="-0.34602089"><ele>-0.8</ele><time>2022-11-04T16:23:51.0000000+00:00</time></trkpt><trkpt lat="39.45250352" lon="-0.34602131"><ele>-0.8</ele><time>2022-11-04T16:23:52.0000000+00:00</time></trkpt><trkpt lat="39.45251123" lon="-0.3460255"><ele>-0.8</ele><time>2022-11-04T16:23:53.0000000+00:00</time></trkpt><trkpt lat="39.45252137" lon="-0.34602927"><ele>-0.8</ele><time>2022-11-04T16:23:54.0000000+00:00</time></trkpt><trkpt lat="39.45252892" lon="-0.34603304"><ele>-0.8</ele><time>2022-11-04T16:23:55.0000000+00:00</time></trkpt><trkpt lat="39.45253881" lon="-0.34603816"><ele>-0.8</ele><time>2022-11-04T16:23:56.0000000+00:00</time></trkpt><trkpt lat="39.45255029" lon="-0.34604344"><ele>-0.8</ele><time>2022-11-04T16:23:57.0000000+00:00</time></trkpt><trkpt lat="39.45256018" lon="-0.3460457"><ele>-0.8</ele><time>2022-11-04T16:23:58.0000000+00:00</time></trkpt><trkpt lat="39.45257024" lon="-0.34604821"><ele>-0.8</ele><time>2022-11-04T16:23:59.0000000+00:00</time></trkpt><trkpt lat="39.45257669" lon="-0.34604754"><ele>-0.8</ele><time>2022-11-04T16:24:00.0000000+00:00</time></trkpt><trkpt lat="39.45258424" lon="-0.34605358"><ele>-0.8</ele><time>2022-11-04T16:24:01.0000000+00:00</time></trkpt><trkpt lat="39.45259128" lon="-0.34605986"><ele>-0.6</ele><time>2022-11-04T16:24:02.0000000+00:00</time></trkpt><trkpt lat="39.45260209" lon="-0.34605936"><ele>-0.6</ele><time>2022-11-04T16:24:03.0000000+00:00</time></trkpt><trkpt lat="39.45261458" lon="-0.34605777"><ele>-0.6</ele><time>2022-11-04T16:24:04.0000000+00:00</time></trkpt><trkpt lat="39.45262631" lon="-0.34605718"><ele>-0.6</ele><time>2022-11-04T16:24:05.0000000+00:00</time></trkpt><trkpt lat="39.45263444" lon="-0.34605609"><ele>-0.8</ele><time>2022-11-04T16:24:06.0000000+00:00</time></trkpt><trkpt lat="39.45264266" lon="-0.34605349"><ele>-0.8</ele><time>2022-11-04T16:24:07.0000000+00:00</time></trkpt><trkpt lat="39.45264861" lon="-0.34604679"><ele>-0.8</ele><time>2022-11-04T16:24:08.0000000+00:00</time></trkpt><trkpt lat="39.45266445" lon="-0.34603723"><ele>-0.8</ele><time>2022-11-04T16:24:09.0000000+00:00</time></trkpt><trkpt lat="39.45267811" lon="-0.3460348"><ele>-0.8</ele><time>2022-11-04T16:24:10.0000000+00:00</time></trkpt><trkpt lat="39.4526844" lon="-0.34603958"><ele>-0.8</ele><time>2022-11-04T16:24:11.0000000+00:00</time></trkpt><trkpt lat="39.45269228" lon="-0.34604587"><ele>-0.8</ele><time>2022-11-04T16:24:12.0000000+00:00</time></trkpt><trkpt lat="39.45270049" lon="-0.34605559"><ele>-0.8</ele><time>2022-11-04T16:24:13.0000000+00:00</time></trkpt><trkpt lat="39.4527077" lon="-0.34606665"><ele>-0.6</ele><time>2022-11-04T16:24:14.0000000+00:00</time></trkpt><trkpt lat="39.45271005" lon="-0.34607252"><ele>-0.6</ele><time>2022-11-04T16:24:15.0000000+00:00</time></trkpt><trkpt lat="39.45271131" lon="-0.34607537"><ele>-0.6</ele><time>2022-11-04T16:24:16.0000000+00:00</time></trkpt><trkpt lat="39.45271248" lon="-0.34607604"><ele>-0.6</ele><time>2022-11-04T16:24:17.0000000+00:00</time></trkpt><trkpt lat="39.45271391" lon="-0.3460768"><ele>-0.8</ele><time>2022-11-04T16:24:18.0000000+00:00</time></trkpt><trkpt lat="39.45271634" lon="-0.34607797"><ele>-0.8</ele><time>2022-11-04T16:24:19.0000000+00:00</time></trkpt><trkpt lat="39.45271743" lon="-0.34607789"><ele>-0.8</ele><time>2022-11-04T16:24:20.0000000+00:00</time></trkpt><trkpt lat="39.45271843" lon="-0.34607931"><ele>-0.8</ele><time>2022-11-04T16:24:21.0000000+00:00</time></trkpt><trkpt lat="39.45272497" lon="-0.34607881"><ele>-0.8</ele><time>2022-11-04T16:24:22.0000000+00:00</time></trkpt><trkpt lat="39.45273235" lon="-0.34607688"><ele>-0.8</ele><time>2022-11-04T16:24:23.0000000+00:00</time></trkpt><trkpt lat="39.45274349" lon="-0.34607579"><ele>-1.0</ele><time>2022-11-04T16:24:24.0000000+00:00</time></trkpt><trkpt lat="39.45275355" lon="-0.34607462"><ele>-1.0</ele><time>2022-11-04T16:24:25.0000000+00:00</time></trkpt><trkpt lat="39.45276327" lon="-0.34607177"><ele>-1.0</ele><time>2022-11-04T16:24:26.0000000+00:00</time></trkpt><trkpt lat="39.45277358" lon="-0.34607227"><ele>-1.0</ele><time>2022-11-04T16:24:27.0000000+00:00</time></trkpt><trkpt lat="39.45278398" lon="-0.34607638"><ele>-1.0</ele><time>2022-11-04T16:24:28.0000000+00:00</time></trkpt><trkpt lat="39.45279513" lon="-0.34608191"><ele>-1.0</ele><time>2022-11-04T16:24:29.0000000+00:00</time></trkpt><trkpt lat="39.45280636" lon="-0.3460835"><ele>-1.0</ele><time>2022-11-04T16:24:30.0000000+00:00</time></trkpt><trkpt lat="39.45281516" lon="-0.34608576"><ele>-1.0</ele><time>2022-11-04T16:24:31.0000000+00:00</time></trkpt><trkpt lat="39.45282279" lon="-0.34608786"><ele>-1.0</ele><time>2022-11-04T16:24:32.0000000+00:00</time></trkpt><trkpt lat="39.4528346" lon="-0.3460866"><ele>-1.0</ele><time>2022-11-04T16:24:33.0000000+00:00</time></trkpt><trkpt lat="39.4528455" lon="-0.34608459"><ele>-1.0</ele><time>2022-11-04T16:24:34.0000000+00:00</time></trkpt><trkpt lat="39.45285698" lon="-0.34608644"><ele>-0.8</ele><time>2022-11-04T16:24:35.0000000+00:00</time></trkpt><trkpt lat="39.45286696" lon="-0.34609038"><ele>-0.8</ele><time>2022-11-04T16:24:36.0000000+00:00</time></trkpt><trkpt lat="39.45287744" lon="-0.34608979"><ele>-0.8</ele><time>2022-11-04T16:24:37.0000000+00:00</time></trkpt><trkpt lat="39.45288741" lon="-0.34608912"><ele>-0.6</ele><time>2022-11-04T16:24:38.0000000+00:00</time></trkpt><trkpt lat="39.45289646" lon="-0.34608836"><ele>-0.6</ele><time>2022-11-04T16:24:39.0000000+00:00</time></trkpt><trkpt lat="39.4529092" lon="-0.34608459"><ele>-0.6</ele><time>2022-11-04T16:24:40.0000000+00:00</time></trkpt><trkpt lat="39.45292044" lon="-0.34608392"><ele>-0.6</ele><time>2022-11-04T16:24:41.0000000+00:00</time></trkpt><trkpt lat="39.45292899" lon="-0.34608627"><ele>-0.4</ele><time>2022-11-04T16:24:42.0000000+00:00</time></trkpt><trkpt lat="39.45293661" lon="-0.34608778"><ele>-0.4</ele><time>2022-11-04T16:24:43.0000000+00:00</time></trkpt><trkpt lat="39.45294491" lon="-0.34608786"><ele>-0.4</ele><time>2022-11-04T16:24:44.0000000+00:00</time></trkpt><trkpt lat="39.4529522" lon="-0.34608853"><ele>-0.4</ele><time>2022-11-04T16:24:45.0000000+00:00</time></trkpt><trkpt lat="39.45296025" lon="-0.34608929"><ele>-0.4</ele><time>2022-11-04T16:24:46.0000000+00:00</time></trkpt><trkpt lat="39.45297056" lon="-0.34609071"><ele>-0.4</ele><time>2022-11-04T16:24:47.0000000+00:00</time></trkpt><trkpt lat="39.45297911" lon="-0.34609138"><ele>-0.4</ele><time>2022-11-04T16:24:48.0000000+00:00</time></trkpt><trkpt lat="39.45298799" lon="-0.3460939"><ele>-0.4</ele><time>2022-11-04T16:24:49.0000000+00:00</time></trkpt><trkpt lat="39.45299696" lon="-0.34609465"><ele>-0.4</ele><time>2022-11-04T16:24:50.0000000+00:00</time></trkpt><trkpt lat="39.45300509" lon="-0.34609457"><ele>-0.4</ele><time>2022-11-04T16:24:51.0000000+00:00</time></trkpt><trkpt lat="39.45301498" lon="-0.34609364"><ele>-0.6</ele><time>2022-11-04T16:24:52.0000000+00:00</time></trkpt><trkpt lat="39.45302605" lon="-0.34609482"><ele>-0.6</ele><time>2022-11-04T16:24:53.0000000+00:00</time></trkpt><trkpt lat="39.45304072" lon="-0.34609381"><ele>-0.6</ele><time>2022-11-04T16:24:54.0000000+00:00</time></trkpt><trkpt lat="39.45304633" lon="-0.34609457"><ele>-0.6</ele><time>2022-11-04T16:24:55.0000000+00:00</time></trkpt><trkpt lat="39.45304885" lon="-0.34609557"><ele>-0.6</ele><time>2022-11-04T16:24:56.0000000+00:00</time></trkpt><trkpt lat="39.45304968" lon="-0.34609607"><ele>-0.6</ele><time>2022-11-04T16:24:57.0000000+00:00</time></trkpt><trkpt lat="39.45304876" lon="-0.34609599"><ele>-0.6</ele><time>2022-11-04T16:24:58.0000000+00:00</time></trkpt><trkpt lat="39.453047" lon="-0.34609649"><ele>-0.6</ele><time>2022-11-04T16:24:59.0000000+00:00</time></trkpt><trkpt lat="39.45304591" lon="-0.346097"><ele>-0.6</ele><time>2022-11-04T16:25:00.0000000+00:00</time></trkpt><trkpt lat="39.4530444" lon="-0.34609733"><ele>-0.6</ele><time>2022-11-04T16:25:01.0000000+00:00</time></trkpt><trkpt lat="39.45304432" lon="-0.34609851"><ele>-0.6</ele><time>2022-11-04T16:25:02.0000000+00:00</time></trkpt><trkpt lat="39.4530434" lon="-0.34609901"><ele>-0.6</ele><time>2022-11-04T16:25:03.0000000+00:00</time></trkpt><trkpt lat="39.45304298" lon="-0.34609817"><ele>-0.6</ele><time>2022-11-04T16:25:04.0000000+00:00</time></trkpt><trkpt lat="39.45304248" lon="-0.34609809"><ele>-0.6</ele><time>2022-11-04T16:25:05.0000000+00:00</time></trkpt><trkpt lat="39.45304365" lon="-0.34609708"><ele>-0.6</ele><time>2022-11-04T16:25:06.0000000+00:00</time></trkpt><trkpt lat="39.45304658" lon="-0.34609624"><ele>-0.6</ele><time>2022-11-04T16:25:07.0000000+00:00</time></trkpt><trkpt lat="39.45305027" lon="-0.34609322"><ele>-0.6</ele><time>2022-11-04T16:25:08.0000000+00:00</time></trkpt><trkpt lat="39.45305714" lon="-0.34609113"><ele>-0.4</ele><time>2022-11-04T16:25:09.0000000+00:00</time></trkpt><trkpt lat="39.45306779" lon="-0.34608845"><ele>-0.4</ele><time>2022-11-04T16:25:10.0000000+00:00</time></trkpt><trkpt lat="39.45307626" lon="-0.34608501"><ele>-0.4</ele><time>2022-11-04T16:25:11.0000000+00:00</time></trkpt><trkpt lat="39.45308011" lon="-0.34608476"><ele>-0.4</ele><time>2022-11-04T16:25:12.0000000+00:00</time></trkpt><trkpt lat="39.45308221" lon="-0.34608459"><ele>-0.4</ele><time>2022-11-04T16:25:13.0000000+00:00</time></trkpt><trkpt lat="39.45308355" lon="-0.34608501"><ele>-0.2</ele><time>2022-11-04T16:25:14.0000000+00:00</time></trkpt><trkpt lat="39.45308355" lon="-0.34608501"><ele>-0.2</ele><time>2022-11-04T16:25:15.0000000+00:00</time></trkpt><trkpt lat="39.45308355" lon="-0.34608501"><ele>-0.2</ele><time>2022-11-04T16:25:16.0000000+00:00</time></trkpt><trkpt lat="39.45308355" lon="-0.34608501"><ele>-0.2</ele><time>2022-11-04T16:25:17.0000000+00:00</time></trkpt><trkpt lat="39.45308355" lon="-0.34608501"><ele>-0.2</ele><time>2022-11-04T16:25:18.0000000+00:00</time></trkpt><trkpt lat="39.45308355" lon="-0.34608501"><ele>-0.2</ele><time>2022-11-04T16:25:19.0000000+00:00</time></trkpt><trkpt lat="39.45308355" lon="-0.34608501"><ele>-0.2</ele><time>2022-11-04T16:25:20.0000000+00:00</time></trkpt><trkpt lat="39.45308355" lon="-0.34608501"><ele>-0.2</ele><time>2022-11-04T16:25:21.0000000+00:00</time></trkpt><trkpt lat="39.45308355" lon="-0.34608501"><ele>-0.2</ele><time>2022-11-04T16:25:22.0000000+00:00</time></trkpt><trkpt lat="39.45308355" lon="-0.34608501"><ele>-0.2</ele><time>2022-11-04T16:25:23.0000000+00:00</time></trkpt><trkpt lat="39.45308355" lon="-0.34608501"><ele>-0.2</ele><time>2022-11-04T16:25:24.0000000+00:00</time></trkpt><trkpt lat="39.45308355" lon="-0.34608501"><ele>-0.2</ele><time>2022-11-04T16:25:25.0000000+00:00</time></trkpt><trkpt lat="39.45308355" lon="-0.34608501"><ele>-0.2</ele><time>2022-11-04T16:25:26.0000000+00:00</time></trkpt><trkpt lat="39.45308355" lon="-0.34608501"><ele>-0.2</ele><time>2022-11-04T16:25:27.0000000+00:00</time></trkpt><trkpt lat="39.45308355" lon="-0.34608493"><ele>-0.2</ele><time>2022-11-04T16:25:28.0000000+00:00</time></trkpt><trkpt lat="39.45308925" lon="-0.34608392"><ele>-0.2</ele><time>2022-11-04T16:25:29.0000000+00:00</time></trkpt><trkpt lat="39.45310299" lon="-0.34608208"><ele>-0.2</ele><time>2022-11-04T16:25:30.0000000+00:00</time></trkpt><trkpt lat="39.4531123" lon="-0.34607814"><ele>0.0</ele><time>2022-11-04T16:25:31.0000000+00:00</time></trkpt><trkpt lat="39.45312864" lon="-0.34607722"><ele>0.0</ele><time>2022-11-04T16:25:32.0000000+00:00</time></trkpt><trkpt lat="39.45314339" lon="-0.34607923"><ele>0.0</ele><time>2022-11-04T16:25:33.0000000+00:00</time></trkpt><trkpt lat="39.4531584" lon="-0.3460835"><ele>0.0</ele><time>2022-11-04T16:25:34.0000000+00:00</time></trkpt><trkpt lat="39.45317307" lon="-0.34608635"><ele>0.0</ele><time>2022-11-04T16:25:35.0000000+00:00</time></trkpt><trkpt lat="39.45318773" lon="-0.34608912"><ele>0.0</ele><time>2022-11-04T16:25:36.0000000+00:00</time></trkpt><trkpt lat="39.453204" lon="-0.34609255"><ele>0.2</ele><time>2022-11-04T16:25:37.0000000+00:00</time></trkpt><trkpt lat="39.45322101" lon="-0.34609012"><ele>0.4</ele><time>2022-11-04T16:25:38.0000000+00:00</time></trkpt><trkpt lat="39.45323191" lon="-0.34608719"><ele>0.4</ele><time>2022-11-04T16:25:39.0000000+00:00</time></trkpt><trkpt lat="39.45324037" lon="-0.34608694"><ele>0.4</ele><time>2022-11-04T16:25:40.0000000+00:00</time></trkpt><trkpt lat="39.45325018" lon="-0.34608308"><ele>0.6</ele><time>2022-11-04T16:25:41.0000000+00:00</time></trkpt><trkpt lat="39.45326367" lon="-0.34608074"><ele>0.6</ele><time>2022-11-04T16:25:42.0000000+00:00</time></trkpt><trkpt lat="39.453276" lon="-0.34607596"><ele>0.6</ele><time>2022-11-04T16:25:43.0000000+00:00</time></trkpt><trkpt lat="39.45328689" lon="-0.34606825"><ele>0.8</ele><time>2022-11-04T16:25:44.0000000+00:00</time></trkpt><trkpt lat="39.45329955" lon="-0.34606355"><ele>0.8</ele><time>2022-11-04T16:25:45.0000000+00:00</time></trkpt><trkpt lat="39.45331933" lon="-0.34605173"><ele>0.8</ele><time>2022-11-04T16:25:46.0000000+00:00</time></trkpt><trkpt lat="39.45333283" lon="-0.34604645"><ele>0.8</ele><time>2022-11-04T16:25:47.0000000+00:00</time></trkpt><trkpt lat="39.45334154" lon="-0.34604469"><ele>0.8</ele><time>2022-11-04T16:25:48.0000000+00:00</time></trkpt><trkpt lat="39.45334892" lon="-0.34604293"><ele>0.8</ele><time>2022-11-04T16:25:49.0000000+00:00</time></trkpt><trkpt lat="39.45335881" lon="-0.34604218"><ele>0.8</ele><time>2022-11-04T16:25:50.0000000+00:00</time></trkpt><trkpt lat="39.45336895" lon="-0.34604067"><ele>0.8</ele><time>2022-11-04T16:25:51.0000000+00:00</time></trkpt><trkpt lat="39.45337641" lon="-0.34603975"><ele>1.0</ele><time>2022-11-04T16:25:52.0000000+00:00</time></trkpt><trkpt lat="39.45338815" lon="-0.34603707"><ele>1.0</ele><time>2022-11-04T16:25:53.0000000+00:00</time></trkpt><trkpt lat="39.45339904" lon="-0.34603656"><ele>1.0</ele><time>2022-11-04T16:25:54.0000000+00:00</time></trkpt><trkpt lat="39.45341673" lon="-0.34603723"><ele>1.0</ele><time>2022-11-04T16:25:55.0000000+00:00</time></trkpt><trkpt lat="39.45343215" lon="-0.34603941"><ele>1.0</ele><time>2022-11-04T16:25:56.0000000+00:00</time></trkpt><trkpt lat="39.45344372" lon="-0.34604402"><ele>1.0</ele><time>2022-11-04T16:25:57.0000000+00:00</time></trkpt><trkpt lat="39.45345193" lon="-0.34604863"><ele>1.0</ele><time>2022-11-04T16:25:58.0000000+00:00</time></trkpt><trkpt lat="39.45346124" lon="-0.34605282"><ele>1.0</ele><time>2022-11-04T16:25:59.0000000+00:00</time></trkpt><trkpt lat="39.45347406" lon="-0.34605693"><ele>1.0</ele><time>2022-11-04T16:26:00.0000000+00:00</time></trkpt><trkpt lat="39.45348579" lon="-0.34606255"><ele>1.0</ele><time>2022-11-04T16:26:01.0000000+00:00</time></trkpt><trkpt lat="39.45349585" lon="-0.34606841"><ele>1.0</ele><time>2022-11-04T16:26:02.0000000+00:00</time></trkpt><trkpt lat="39.45350558" lon="-0.34607671"><ele>1.0</ele><time>2022-11-04T16:26:03.0000000+00:00</time></trkpt><trkpt lat="39.45351513" lon="-0.34608551"><ele>1.0</ele><time>2022-11-04T16:26:04.0000000+00:00</time></trkpt><trkpt lat="39.45352293" lon="-0.34609591"><ele>1.0</ele><time>2022-11-04T16:26:05.0000000+00:00</time></trkpt><trkpt lat="39.45353198" lon="-0.34610882"><ele>1.0</ele><time>2022-11-04T16:26:06.0000000+00:00</time></trkpt><trkpt lat="39.45354288" lon="-0.34611988"><ele>1.0</ele><time>2022-11-04T16:26:07.0000000+00:00</time></trkpt><trkpt lat="39.45355578" lon="-0.34613195"><ele>1.0</ele><time>2022-11-04T16:26:08.0000000+00:00</time></trkpt><trkpt lat="39.45356919" lon="-0.34614343"><ele>1.0</ele><time>2022-11-04T16:26:09.0000000+00:00</time></trkpt><trkpt lat="39.45358194" lon="-0.34615709"><ele>1.0</ele><time>2022-11-04T16:26:10.0000000+00:00</time></trkpt><trkpt lat="39.45359518" lon="-0.34616967"><ele>1.0</ele><time>2022-11-04T16:26:11.0000000+00:00</time></trkpt><trkpt lat="39.45360666" lon="-0.34618249"><ele>1.0</ele><time>2022-11-04T16:26:12.0000000+00:00</time></trkpt><trkpt lat="39.45361421" lon="-0.34619833"><ele>1.0</ele><time>2022-11-04T16:26:13.0000000+00:00</time></trkpt><trkpt lat="39.45361613" lon="-0.34621778"><ele>1.0</ele><time>2022-11-04T16:26:14.0000000+00:00</time></trkpt><trkpt lat="39.45361873" lon="-0.3462353"><ele>1.0</ele><time>2022-11-04T16:26:15.0000000+00:00</time></trkpt><trkpt lat="39.45361815" lon="-0.34625231"><ele>1.0</ele><time>2022-11-04T16:26:16.0000000+00:00</time></trkpt><trkpt lat="39.45361907" lon="-0.34627193"><ele>1.0</ele><time>2022-11-04T16:26:17.0000000+00:00</time></trkpt><trkpt lat="39.45361831" lon="-0.34629498"><ele>1.0</ele><time>2022-11-04T16:26:18.0000000+00:00</time></trkpt><trkpt lat="39.45361907" lon="-0.34631493"><ele>1.0</ele><time>2022-11-04T16:26:19.0000000+00:00</time></trkpt><trkpt lat="39.45361706" lon="-0.34633462"><ele>1.0</ele><time>2022-11-04T16:26:20.0000000+00:00</time></trkpt><trkpt lat="39.45362058" lon="-0.34634837"><ele>1.0</ele><time>2022-11-04T16:26:21.0000000+00:00</time></trkpt><trkpt lat="39.45362552" lon="-0.34635382"><ele>1.0</ele><time>2022-11-04T16:26:22.0000000+00:00</time></trkpt><trkpt lat="39.45363172" lon="-0.34636497"><ele>1.0</ele><time>2022-11-04T16:26:23.0000000+00:00</time></trkpt><trkpt lat="39.45363575" lon="-0.34637687"><ele>1.0</ele><time>2022-11-04T16:26:24.0000000+00:00</time></trkpt><trkpt lat="39.45363466" lon="-0.34638567"><ele>0.8</ele><time>2022-11-04T16:26:25.0000000+00:00</time></trkpt><trkpt lat="39.45363684" lon="-0.34638953"><ele>0.8</ele><time>2022-11-04T16:26:26.0000000+00:00</time></trkpt><trkpt lat="39.45363541" lon="-0.34639355"><ele>0.8</ele><time>2022-11-04T16:26:27.0000000+00:00</time></trkpt><trkpt lat="39.45363952" lon="-0.34639699"><ele>0.6</ele><time>2022-11-04T16:26:28.0000000+00:00</time></trkpt><trkpt lat="39.45364798" lon="-0.34640201"><ele>0.6</ele><time>2022-11-04T16:26:29.0000000+00:00</time></trkpt><trkpt lat="39.45366005" lon="-0.34641006"><ele>0.6</ele><time>2022-11-04T16:26:30.0000000+00:00</time></trkpt><trkpt lat="39.4536712" lon="-0.34642238"><ele>0.6</ele><time>2022-11-04T16:26:31.0000000+00:00</time></trkpt><trkpt lat="39.45367556" lon="-0.34643378"><ele>0.4</ele><time>2022-11-04T16:26:32.0000000+00:00</time></trkpt><trkpt lat="39.45367741" lon="-0.34644661"><ele>0.4</ele><time>2022-11-04T16:26:33.0000000+00:00</time></trkpt><trkpt lat="39.45368076" lon="-0.34646144"><ele>0.6</ele><time>2022-11-04T16:26:34.0000000+00:00</time></trkpt><trkpt lat="39.4536826" lon="-0.34647368"><ele>0.6</ele><time>2022-11-04T16:26:35.0000000+00:00</time></trkpt><trkpt lat="39.45368386" lon="-0.34648801"><ele>0.6</ele><time>2022-11-04T16:26:36.0000000+00:00</time></trkpt><trkpt lat="39.45368629" lon="-0.3465031"><ele>0.6</ele><time>2022-11-04T16:26:37.0000000+00:00</time></trkpt><trkpt lat="39.45369232" lon="-0.34651567"><ele>0.6</ele><time>2022-11-04T16:26:38.0000000+00:00</time></trkpt><trkpt lat="39.45369719" lon="-0.34653017"><ele>0.6</ele><time>2022-11-04T16:26:39.0000000+00:00</time></trkpt><trkpt lat="39.45370188" lon="-0.34654484"><ele>0.6</ele><time>2022-11-04T16:26:40.0000000+00:00</time></trkpt><trkpt lat="39.45370439" lon="-0.34655892"><ele>0.6</ele><time>2022-11-04T16:26:41.0000000+00:00</time></trkpt><trkpt lat="39.45371001" lon="-0.34657099"><ele>0.6</ele><time>2022-11-04T16:26:42.0000000+00:00</time></trkpt><trkpt lat="39.45371353" lon="-0.34658776"><ele>0.4</ele><time>2022-11-04T16:26:43.0000000+00:00</time></trkpt><trkpt lat="39.45371714" lon="-0.3466041"><ele>0.4</ele><time>2022-11-04T16:26:44.0000000+00:00</time></trkpt><trkpt lat="39.45371982" lon="-0.34661843"><ele>0.4</ele><time>2022-11-04T16:26:45.0000000+00:00</time></trkpt><trkpt lat="39.45372342" lon="-0.34663218"><ele>0.4</ele><time>2022-11-04T16:26:46.0000000+00:00</time></trkpt><trkpt lat="39.45372594" lon="-0.34664534"><ele>0.4</ele><time>2022-11-04T16:26:47.0000000+00:00</time></trkpt><trkpt lat="39.45372887" lon="-0.34666043"><ele>0.2</ele><time>2022-11-04T16:26:48.0000000+00:00</time></trkpt><trkpt lat="39.45373298" lon="-0.3466735"><ele>0.2</ele><time>2022-11-04T16:26:49.0000000+00:00</time></trkpt><trkpt lat="39.45373943" lon="-0.34668692"><ele>0.0</ele><time>2022-11-04T16:26:50.0000000+00:00</time></trkpt><trkpt lat="39.45374396" lon="-0.34670167"><ele>0.0</ele><time>2022-11-04T16:26:51.0000000+00:00</time></trkpt><trkpt lat="39.45374681" lon="-0.34671483"><ele>0.0</ele><time>2022-11-04T16:26:52.0000000+00:00</time></trkpt><trkpt lat="39.45375259" lon="-0.34672354"><ele>-0.2</ele><time>2022-11-04T16:26:53.0000000+00:00</time></trkpt><trkpt lat="39.45375284" lon="-0.34673545"><ele>-0.2</ele><time>2022-11-04T16:26:54.0000000+00:00</time></trkpt><trkpt lat="39.45374949" lon="-0.34674835"><ele>-0.2</ele><time>2022-11-04T16:26:55.0000000+00:00</time></trkpt><trkpt lat="39.45374521" lon="-0.3467616"><ele>-0.2</ele><time>2022-11-04T16:26:56.0000000+00:00</time></trkpt><trkpt lat="39.45373901" lon="-0.34677275"><ele>-0.2</ele><time>2022-11-04T16:26:57.0000000+00:00</time></trkpt><trkpt lat="39.45373029" lon="-0.3467813"><ele>-0.2</ele><time>2022-11-04T16:26:58.0000000+00:00</time></trkpt><trkpt lat="39.453722" lon="-0.34678775"><ele>-0.2</ele><time>2022-11-04T16:26:59.0000000+00:00</time></trkpt><trkpt lat="39.4537147" lon="-0.34679454"><ele>0.0</ele><time>2022-11-04T16:27:00.0000000+00:00</time></trkpt><trkpt lat="39.45371219" lon="-0.34680376"><ele>0.0</ele><time>2022-11-04T16:27:01.0000000+00:00</time></trkpt><trkpt lat="39.45371554" lon="-0.34681323"><ele>0.0</ele><time>2022-11-04T16:27:02.0000000+00:00</time></trkpt><trkpt lat="39.453722" lon="-0.34682253"><ele>0.0</ele><time>2022-11-04T16:27:03.0000000+00:00</time></trkpt><trkpt lat="39.45373038" lon="-0.34683192"><ele>0.0</ele><time>2022-11-04T16:27:04.0000000+00:00</time></trkpt><trkpt lat="39.45373952" lon="-0.34684667"><ele>0.2</ele><time>2022-11-04T16:27:05.0000000+00:00</time></trkpt><trkpt lat="39.45374974" lon="-0.34685791"><ele>0.2</ele><time>2022-11-04T16:27:06.0000000+00:00</time></trkpt><trkpt lat="39.45375762" lon="-0.34686956"><ele>0.2</ele><time>2022-11-04T16:27:07.0000000+00:00</time></trkpt><trkpt lat="39.45376365" lon="-0.34688196"><ele>0.2</ele><time>2022-11-04T16:27:08.0000000+00:00</time></trkpt><trkpt lat="39.45377103" lon="-0.34689353"><ele>0.2</ele><time>2022-11-04T16:27:09.0000000+00:00</time></trkpt><trkpt lat="39.45377237" lon="-0.34690887"><ele>0.2</ele><time>2022-11-04T16:27:10.0000000+00:00</time></trkpt><trkpt lat="39.4537779" lon="-0.34692572"><ele>0.2</ele><time>2022-11-04T16:27:11.0000000+00:00</time></trkpt><trkpt lat="39.45378595" lon="-0.34694013"><ele>0.2</ele><time>2022-11-04T16:27:12.0000000+00:00</time></trkpt><trkpt lat="39.45379341" lon="-0.34695279"><ele>0.0</ele><time>2022-11-04T16:27:13.0000000+00:00</time></trkpt><trkpt lat="39.45379861" lon="-0.34696645"><ele>0.0</ele><time>2022-11-04T16:27:14.0000000+00:00</time></trkpt><trkpt lat="39.45380691" lon="-0.34697902"><ele>0.0</ele><time>2022-11-04T16:27:15.0000000+00:00</time></trkpt><trkpt lat="39.45381369" lon="-0.34699227"><ele>0.0</ele><time>2022-11-04T16:27:16.0000000+00:00</time></trkpt><trkpt lat="39.4538183" lon="-0.34700601"><ele>0.0</ele><time>2022-11-04T16:27:17.0000000+00:00</time></trkpt><trkpt lat="39.45382317" lon="-0.34702026"><ele>0.0</ele><time>2022-11-04T16:27:18.0000000+00:00</time></trkpt><trkpt lat="39.45382602" lon="-0.34703518"><ele>0.0</ele><time>2022-11-04T16:27:19.0000000+00:00</time></trkpt><trkpt lat="39.4538282" lon="-0.34704834"><ele>0.0</ele><time>2022-11-04T16:27:20.0000000+00:00</time></trkpt><trkpt lat="39.4538313" lon="-0.3470641"><ele>0.0</ele><time>2022-11-04T16:27:21.0000000+00:00</time></trkpt><trkpt lat="39.45383532" lon="-0.34707894"><ele>0.0</ele><time>2022-11-04T16:27:22.0000000+00:00</time></trkpt><trkpt lat="39.45384035" lon="-0.34709226"><ele>0.0</ele><time>2022-11-04T16:27:23.0000000+00:00</time></trkpt><trkpt lat="39.45384437" lon="-0.3471071"><ele>0.0</ele><time>2022-11-04T16:27:24.0000000+00:00</time></trkpt><trkpt lat="39.45384957" lon="-0.34712269"><ele>0.0</ele><time>2022-11-04T16:27:25.0000000+00:00</time></trkpt><trkpt lat="39.45385468" lon="-0.34713702"><ele>0.0</ele><time>2022-11-04T16:27:26.0000000+00:00</time></trkpt><trkpt lat="39.45386189" lon="-0.34714993"><ele>0.2</ele><time>2022-11-04T16:27:27.0000000+00:00</time></trkpt><trkpt lat="39.45386793" lon="-0.34716661"><ele>0.2</ele><time>2022-11-04T16:27:28.0000000+00:00</time></trkpt><trkpt lat="39.45387078" lon="-0.34718279"><ele>0.2</ele><time>2022-11-04T16:27:29.0000000+00:00</time></trkpt><trkpt lat="39.45387371" lon="-0.34720056"><ele>0.2</ele><time>2022-11-04T16:27:30.0000000+00:00</time></trkpt><trkpt lat="39.45388008" lon="-0.34721757"><ele>0.2</ele><time>2022-11-04T16:27:31.0000000+00:00</time></trkpt><trkpt lat="39.45388704" lon="-0.34723132"><ele>0.2</ele><time>2022-11-04T16:27:32.0000000+00:00</time></trkpt><trkpt lat="39.45389458" lon="-0.3472475"><ele>0.2</ele><time>2022-11-04T16:27:33.0000000+00:00</time></trkpt><trkpt lat="39.45389751" lon="-0.34726376"><ele>0.2</ele><time>2022-11-04T16:27:34.0000000+00:00</time></trkpt><trkpt lat="39.45390221" lon="-0.34727407"><ele>0.0</ele><time>2022-11-04T16:27:35.0000000+00:00</time></trkpt><trkpt lat="39.45390548" lon="-0.3472765"><ele>0.0</ele><time>2022-11-04T16:27:36.0000000+00:00</time></trkpt><trkpt lat="39.45390866" lon="-0.34728069"><ele>0.0</ele><time>2022-11-04T16:27:37.0000000+00:00</time></trkpt><trkpt lat="39.45390933" lon="-0.34728169"><ele>0.0</ele><time>2022-11-04T16:27:38.0000000+00:00</time></trkpt><trkpt lat="39.45390875" lon="-0.34728161"><ele>0.0</ele><time>2022-11-04T16:27:39.0000000+00:00</time></trkpt><trkpt lat="39.45390816" lon="-0.34728077"><ele>0.0</ele><time>2022-11-04T16:27:40.0000000+00:00</time></trkpt><trkpt lat="39.45390766" lon="-0.34728161"><ele>0.0</ele><time>2022-11-04T16:27:41.0000000+00:00</time></trkpt><trkpt lat="39.45390891" lon="-0.34728211"><ele>-0.2</ele><time>2022-11-04T16:27:42.0000000+00:00</time></trkpt><trkpt lat="39.45390933" lon="-0.34728253"><ele>-0.2</ele><time>2022-11-04T16:27:43.0000000+00:00</time></trkpt><trkpt lat="39.45390967" lon="-0.3472822"><ele>-0.2</ele><time>2022-11-04T16:27:44.0000000+00:00</time></trkpt><trkpt lat="39.45391034" lon="-0.34728304"><ele>-0.2</ele><time>2022-11-04T16:27:45.0000000+00:00</time></trkpt><trkpt lat="39.45390916" lon="-0.34728371"><ele>-0.2</ele><time>2022-11-04T16:27:46.0000000+00:00</time></trkpt><trkpt lat="39.45391352" lon="-0.34728848"><ele>-0.2</ele><time>2022-11-04T16:27:47.0000000+00:00</time></trkpt><trkpt lat="39.45391956" lon="-0.34729661"><ele>-0.2</ele><time>2022-11-04T16:27:48.0000000+00:00</time></trkpt><trkpt lat="39.45392559" lon="-0.34730734"><ele>-0.2</ele><time>2022-11-04T16:27:49.0000000+00:00</time></trkpt><trkpt lat="39.45393079" lon="-0.34731673"><ele>-0.2</ele><time>2022-11-04T16:27:50.0000000+00:00</time></trkpt><trkpt lat="39.45393649" lon="-0.34732905"><ele>-0.2</ele><time>2022-11-04T16:27:51.0000000+00:00</time></trkpt><trkpt lat="39.45394269" lon="-0.34734104"><ele>-0.2</ele><time>2022-11-04T16:27:52.0000000+00:00</time></trkpt><trkpt lat="39.45394537" lon="-0.34735277"><ele>-0.2</ele><time>2022-11-04T16:27:53.0000000+00:00</time></trkpt><trkpt lat="39.45394948" lon="-0.34736342"><ele>-0.2</ele><time>2022-11-04T16:27:54.0000000+00:00</time></trkpt><trkpt lat="39.45395233" lon="-0.34737591"><ele>-0.2</ele><time>2022-11-04T16:27:55.0000000+00:00</time></trkpt><trkpt lat="39.45395711" lon="-0.34739192"><ele>-0.2</ele><time>2022-11-04T16:27:56.0000000+00:00</time></trkpt><trkpt lat="39.4539618" lon="-0.34740734"><ele>-0.2</ele><time>2022-11-04T16:27:57.0000000+00:00</time></trkpt><trkpt lat="39.45396717" lon="-0.34742125"><ele>-0.2</ele><time>2022-11-04T16:27:58.0000000+00:00</time></trkpt><trkpt lat="39.45397161" lon="-0.34743936"><ele>-0.2</ele><time>2022-11-04T16:27:59.0000000+00:00</time></trkpt><trkpt lat="39.45397773" lon="-0.34745788"><ele>-0.2</ele><time>2022-11-04T16:28:00.0000000+00:00</time></trkpt><trkpt lat="39.45398301" lon="-0.34747607"><ele>-0.2</ele><time>2022-11-04T16:28:01.0000000+00:00</time></trkpt><trkpt lat="39.45399089" lon="-0.34749242"><ele>-0.2</ele><time>2022-11-04T16:28:02.0000000+00:00</time></trkpt><trkpt lat="39.45399609" lon="-0.34750591"><ele>-0.2</ele><time>2022-11-04T16:28:03.0000000+00:00</time></trkpt><trkpt lat="39.45399835" lon="-0.3475215"><ele>-0.2</ele><time>2022-11-04T16:28:04.0000000+00:00</time></trkpt><trkpt lat="39.45400187" lon="-0.34753382"><ele>-0.2</ele><time>2022-11-04T16:28:05.0000000+00:00</time></trkpt><trkpt lat="39.45400355" lon="-0.34754648"><ele>-0.2</ele><time>2022-11-04T16:28:06.0000000+00:00</time></trkpt><trkpt lat="39.45400748" lon="-0.34755779"><ele>-0.2</ele><time>2022-11-04T16:28:07.0000000+00:00</time></trkpt><trkpt lat="39.45401277" lon="-0.34757196"><ele>-0.4</ele><time>2022-11-04T16:28:08.0000000+00:00</time></trkpt><trkpt lat="39.45401553" lon="-0.34758797"><ele>-0.4</ele><time>2022-11-04T16:28:09.0000000+00:00</time></trkpt><trkpt lat="39.45402014" lon="-0.34760214"><ele>-0.4</ele><time>2022-11-04T16:28:10.0000000+00:00</time></trkpt><trkpt lat="39.45402634" lon="-0.34761496"><ele>-0.2</ele><time>2022-11-04T16:28:11.0000000+00:00</time></trkpt><trkpt lat="39.45403087" lon="-0.34762778"><ele>-0.2</ele><time>2022-11-04T16:28:12.0000000+00:00</time></trkpt><trkpt lat="39.45403556" lon="-0.34764337"><ele>-0.2</ele><time>2022-11-04T16:28:13.0000000+00:00</time></trkpt><trkpt lat="39.45404076" lon="-0.34766031"><ele>-0.2</ele><time>2022-11-04T16:28:14.0000000+00:00</time></trkpt><trkpt lat="39.45404478" lon="-0.34768168"><ele>-0.2</ele><time>2022-11-04T16:28:15.0000000+00:00</time></trkpt><trkpt lat="39.45404981" lon="-0.34769903"><ele>-0.2</ele><time>2022-11-04T16:28:16.0000000+00:00</time></trkpt><trkpt lat="39.45405719" lon="-0.34771261"><ele>-0.2</ele><time>2022-11-04T16:28:17.0000000+00:00</time></trkpt><trkpt lat="39.4540623" lon="-0.34772585"><ele>-0.2</ele><time>2022-11-04T16:28:18.0000000+00:00</time></trkpt><trkpt lat="39.45406582" lon="-0.34773247"><ele>-0.2</ele><time>2022-11-04T16:28:19.0000000+00:00</time></trkpt><trkpt lat="39.45406725" lon="-0.34773373"><ele>-0.2</ele><time>2022-11-04T16:28:20.0000000+00:00</time></trkpt><trkpt lat="39.45406339" lon="-0.34772904"><ele>-0.2</ele><time>2022-11-04T16:28:21.0000000+00:00</time></trkpt><trkpt lat="39.45406012" lon="-0.34771923"><ele>-0.2</ele><time>2022-11-04T16:28:22.0000000+00:00</time></trkpt><trkpt lat="39.4540561" lon="-0.34771093"><ele>-0.2</ele><time>2022-11-04T16:28:23.0000000+00:00</time></trkpt><trkpt lat="39.45405157" lon="-0.34770012"><ele>-0.2</ele><time>2022-11-04T16:28:24.0000000+00:00</time></trkpt><trkpt lat="39.45405015" lon="-0.34768662"><ele>-0.2</ele><time>2022-11-04T16:28:25.0000000+00:00</time></trkpt><trkpt lat="39.45404948" lon="-0.34766961"><ele>-0.2</ele><time>2022-11-04T16:28:26.0000000+00:00</time></trkpt><trkpt lat="39.45404579" lon="-0.34765427"><ele>-0.2</ele><time>2022-11-04T16:28:27.0000000+00:00</time></trkpt><trkpt lat="39.45404185" lon="-0.34763734"><ele>-0.4</ele><time>2022-11-04T16:28:28.0000000+00:00</time></trkpt><trkpt lat="39.4540359" lon="-0.34761873"><ele>-0.4</ele><time>2022-11-04T16:28:29.0000000+00:00</time></trkpt><trkpt lat="39.45402643" lon="-0.34761328"><ele>-0.4</ele><time>2022-11-04T16:28:30.0000000+00:00</time></trkpt><trkpt lat="39.45401251" lon="-0.34761412"><ele>-0.4</ele><time>2022-11-04T16:28:31.0000000+00:00</time></trkpt><trkpt lat="39.45399432" lon="-0.34762066"><ele>-0.4</ele><time>2022-11-04T16:28:32.0000000+00:00</time></trkpt><trkpt lat="39.45398527" lon="-0.34762929"><ele>-0.4</ele><time>2022-11-04T16:28:33.0000000+00:00</time></trkpt><trkpt lat="39.45397982" lon="-0.34764203"><ele>-0.4</ele><time>2022-11-04T16:28:34.0000000+00:00</time></trkpt><trkpt lat="39.45397832" lon="-0.34765863"><ele>-0.4</ele><time>2022-11-04T16:28:35.0000000+00:00</time></trkpt><trkpt lat="39.4539779" lon="-0.34767414"><ele>-0.2</ele><time>2022-11-04T16:28:36.0000000+00:00</time></trkpt><trkpt lat="39.45397823" lon="-0.34768847"><ele>-0.2</ele><time>2022-11-04T16:28:37.0000000+00:00</time></trkpt><trkpt lat="39.45397907" lon="-0.34770272"><ele>-0.2</ele><time>2022-11-04T16:28:38.0000000+00:00</time></trkpt><trkpt lat="39.4539789" lon="-0.34771588"><ele>-0.2</ele><time>2022-11-04T16:28:39.0000000+00:00</time></trkpt><trkpt lat="39.45397798" lon="-0.34772912"><ele>-0.2</ele><time>2022-11-04T16:28:40.0000000+00:00</time></trkpt><trkpt lat="39.45397312" lon="-0.34774295"><ele>-0.2</ele><time>2022-11-04T16:28:41.0000000+00:00</time></trkpt><trkpt lat="39.45396708" lon="-0.34775946"><ele>-0.2</ele><time>2022-11-04T16:28:42.0000000+00:00</time></trkpt><trkpt lat="39.45396482" lon="-0.34777447"><ele>-0.2</ele><time>2022-11-04T16:28:43.0000000+00:00</time></trkpt><trkpt lat="39.4539561" lon="-0.34779106"><ele>-0.2</ele><time>2022-11-04T16:28:44.0000000+00:00</time></trkpt><trkpt lat="39.45395258" lon="-0.3478028"><ele>-0.2</ele><time>2022-11-04T16:28:45.0000000+00:00</time></trkpt><trkpt lat="39.45395485" lon="-0.34781269"><ele>-0.2</ele><time>2022-11-04T16:28:46.0000000+00:00</time></trkpt><trkpt lat="39.45395887" lon="-0.34782132"><ele>-0.2</ele><time>2022-11-04T16:28:47.0000000+00:00</time></trkpt><trkpt lat="39.4539639" lon="-0.34782836"><ele>0.0</ele><time>2022-11-04T16:28:48.0000000+00:00</time></trkpt><trkpt lat="39.45396566" lon="-0.34783825"><ele>0.0</ele><time>2022-11-04T16:28:49.0000000+00:00</time></trkpt><trkpt lat="39.45396172" lon="-0.34785116"><ele>0.0</ele><time>2022-11-04T16:28:50.0000000+00:00</time></trkpt><trkpt lat="39.45395803" lon="-0.34786742"><ele>0.2</ele><time>2022-11-04T16:28:51.0000000+00:00</time></trkpt><trkpt lat="39.45395325" lon="-0.3478836"><ele>0.2</ele><time>2022-11-04T16:28:52.0000000+00:00</time></trkpt><trkpt lat="39.45394764" lon="-0.34789668"><ele>0.2</ele><time>2022-11-04T16:28:53.0000000+00:00</time></trkpt><trkpt lat="39.45394252" lon="-0.34790346"><ele>0.2</ele><time>2022-11-04T16:28:54.0000000+00:00</time></trkpt><trkpt lat="39.45393431" lon="-0.34791227"><ele>0.4</ele><time>2022-11-04T16:28:55.0000000+00:00</time></trkpt><trkpt lat="39.45392945" lon="-0.34792618"><ele>0.4</ele><time>2022-11-04T16:28:56.0000000+00:00</time></trkpt><trkpt lat="39.45392492" lon="-0.34794361"><ele>0.4</ele><time>2022-11-04T16:28:57.0000000+00:00</time></trkpt><trkpt lat="39.45392434" lon="-0.34795702"><ele>0.4</ele><time>2022-11-04T16:28:58.0000000+00:00</time></trkpt><trkpt lat="39.45392082" lon="-0.34796909"><ele>0.4</ele><time>2022-11-04T16:28:59.0000000+00:00</time></trkpt><trkpt lat="39.45390883" lon="-0.34798108"><ele>0.4</ele><time>2022-11-04T16:29:00.0000000+00:00</time></trkpt><trkpt lat="39.45389919" lon="-0.34799617"><ele>0.4</ele><time>2022-11-04T16:29:01.0000000+00:00</time></trkpt><trkpt lat="39.45389207" lon="-0.34800899"><ele>0.2</ele><time>2022-11-04T16:29:02.0000000+00:00</time></trkpt><trkpt lat="39.45388603" lon="-0.34802341"><ele>0.2</ele><time>2022-11-04T16:29:03.0000000+00:00</time></trkpt><trkpt lat="39.45388385" lon="-0.34804017"><ele>0.2</ele><time>2022-11-04T16:29:04.0000000+00:00</time></trkpt><trkpt lat="39.45388184" lon="-0.34805618"><ele>0.2</ele><time>2022-11-04T16:29:05.0000000+00:00</time></trkpt><trkpt lat="39.45388704" lon="-0.34806985"><ele>0.2</ele><time>2022-11-04T16:29:06.0000000+00:00</time></trkpt><trkpt lat="39.45389517" lon="-0.34808778"><ele>0.2</ele><time>2022-11-04T16:29:07.0000000+00:00</time></trkpt><trkpt lat="39.45389886" lon="-0.34810304"><ele>0.0</ele><time>2022-11-04T16:29:08.0000000+00:00</time></trkpt><trkpt lat="39.45390548" lon="-0.34812097"><ele>0.0</ele><time>2022-11-04T16:29:09.0000000+00:00</time></trkpt><trkpt lat="39.45391185" lon="-0.34813363"><ele>0.0</ele><time>2022-11-04T16:29:10.0000000+00:00</time></trkpt><trkpt lat="39.45391805" lon="-0.34813975"><ele>0.0</ele><time>2022-11-04T16:29:11.0000000+00:00</time></trkpt><trkpt lat="39.45392157" lon="-0.34814905"><ele>0.0</ele><time>2022-11-04T16:29:12.0000000+00:00</time></trkpt><trkpt lat="39.45392358" lon="-0.34815752"><ele>0.0</ele><time>2022-11-04T16:29:13.0000000+00:00</time></trkpt><trkpt lat="39.45392677" lon="-0.34816993"><ele>0.2</ele><time>2022-11-04T16:29:14.0000000+00:00</time></trkpt><trkpt lat="39.45393414" lon="-0.34818267"><ele>0.2</ele><time>2022-11-04T16:29:15.0000000+00:00</time></trkpt><trkpt lat="39.45394169" lon="-0.34819608"><ele>0.2</ele><time>2022-11-04T16:29:16.0000000+00:00</time></trkpt><trkpt lat="39.45394269" lon="-0.34821536"><ele>0.4</ele><time>2022-11-04T16:29:17.0000000+00:00</time></trkpt><trkpt lat="39.45394303" lon="-0.34824167"><ele>0.4</ele><time>2022-11-04T16:29:18.0000000+00:00</time></trkpt><trkpt lat="39.45394127" lon="-0.34826456"><ele>0.4</ele><time>2022-11-04T16:29:19.0000000+00:00</time></trkpt><trkpt lat="39.45393414" lon="-0.34828132"><ele>0.4</ele><time>2022-11-04T16:29:20.0000000+00:00</time></trkpt><trkpt lat="39.4539214" lon="-0.34829264"><ele>0.6</ele><time>2022-11-04T16:29:21.0000000+00:00</time></trkpt><trkpt lat="39.45391486" lon="-0.34830471"><ele>0.6</ele><time>2022-11-04T16:29:22.0000000+00:00</time></trkpt><trkpt lat="39.45390808" lon="-0.34831954"><ele>0.6</ele><time>2022-11-04T16:29:23.0000000+00:00</time></trkpt><trkpt lat="39.453895" lon="-0.34833907"><ele>0.4</ele><time>2022-11-04T16:29:24.0000000+00:00</time></trkpt><trkpt lat="39.45388335" lon="-0.34835869"><ele>0.4</ele><time>2022-11-04T16:29:25.0000000+00:00</time></trkpt><trkpt lat="39.45387731" lon="-0.34837436"><ele>0.4</ele><time>2022-11-04T16:29:26.0000000+00:00</time></trkpt><trkpt lat="39.45387472" lon="-0.34838174"><ele>0.4</ele><time>2022-11-04T16:29:27.0000000+00:00</time></trkpt><trkpt lat="39.4538717" lon="-0.34839724"><ele>0.2</ele><time>2022-11-04T16:29:28.0000000+00:00</time></trkpt><trkpt lat="39.453867" lon="-0.34841132"><ele>0.2</ele><time>2022-11-04T16:29:29.0000000+00:00</time></trkpt><trkpt lat="39.45386348" lon="-0.34842507"><ele>0.2</ele><time>2022-11-04T16:29:30.0000000+00:00</time></trkpt><trkpt lat="39.45386105" lon="-0.34843756"><ele>0.4</ele><time>2022-11-04T16:29:31.0000000+00:00</time></trkpt><trkpt lat="39.45385594" lon="-0.34845265"><ele>0.4</ele><time>2022-11-04T16:29:32.0000000+00:00</time></trkpt><trkpt lat="39.45385041" lon="-0.348471"><ele>0.4</ele><time>2022-11-04T16:29:33.0000000+00:00</time></trkpt><trkpt lat="39.45385208" lon="-0.34848467"><ele>0.4</ele><time>2022-11-04T16:29:34.0000000+00:00</time></trkpt><trkpt lat="39.45384831" lon="-0.34849732"><ele>0.4</ele><time>2022-11-04T16:29:35.0000000+00:00</time></trkpt><trkpt lat="39.45384932" lon="-0.34851174"><ele>0.2</ele><time>2022-11-04T16:29:36.0000000+00:00</time></trkpt><trkpt lat="39.45384882" lon="-0.34852465"><ele>0.2</ele><time>2022-11-04T16:29:37.0000000+00:00</time></trkpt><trkpt lat="39.45384689" lon="-0.34853722"><ele>0.2</ele><time>2022-11-04T16:29:38.0000000+00:00</time></trkpt><trkpt lat="39.45384161" lon="-0.34855139"><ele>0.2</ele><time>2022-11-04T16:29:39.0000000+00:00</time></trkpt><trkpt lat="39.45383884" lon="-0.34856496"><ele>0.2</ele><time>2022-11-04T16:29:40.0000000+00:00</time></trkpt><trkpt lat="39.45384462" lon="-0.34857385"><ele>0.2</ele><time>2022-11-04T16:29:41.0000000+00:00</time></trkpt><trkpt lat="39.45385485" lon="-0.34858223"><ele>0.2</ele><time>2022-11-04T16:29:42.0000000+00:00</time></trkpt><trkpt lat="39.45385376" lon="-0.34859983"><ele>0.2</ele><time>2022-11-04T16:29:43.0000000+00:00</time></trkpt><trkpt lat="39.45385175" lon="-0.34861274"><ele>0.2</ele><time>2022-11-04T16:29:44.0000000+00:00</time></trkpt><trkpt lat="39.45384722" lon="-0.34862657"><ele>0.2</ele><time>2022-11-04T16:29:45.0000000+00:00</time></trkpt><trkpt lat="39.45384052" lon="-0.34864736"><ele>0.2</ele><time>2022-11-04T16:29:46.0000000+00:00</time></trkpt><trkpt lat="39.45384001" lon="-0.3486575"><ele>0.0</ele><time>2022-11-04T16:29:47.0000000+00:00</time></trkpt><trkpt lat="39.45383524" lon="-0.34866664"><ele>0.2</ele><time>2022-11-04T16:29:48.0000000+00:00</time></trkpt><trkpt lat="39.45382929" lon="-0.34867753"><ele>0.2</ele><time>2022-11-04T16:29:49.0000000+00:00</time></trkpt><trkpt lat="39.45382568" lon="-0.34868617"><ele>0.2</ele><time>2022-11-04T16:29:50.0000000+00:00</time></trkpt><trkpt lat="39.45382585" lon="-0.34869949"><ele>0.2</ele><time>2022-11-04T16:29:51.0000000+00:00</time></trkpt><trkpt lat="39.453823" lon="-0.34871408"><ele>0.2</ele><time>2022-11-04T16:29:52.0000000+00:00</time></trkpt><trkpt lat="39.45382174" lon="-0.34872657"><ele>0.0</ele><time>2022-11-04T16:29:53.0000000+00:00</time></trkpt><trkpt lat="39.45382157" lon="-0.34873839"><ele>0.0</ele><time>2022-11-04T16:29:54.0000000+00:00</time></trkpt><trkpt lat="39.45381923" lon="-0.34874719"><ele>0.0</ele><time>2022-11-04T16:29:55.0000000+00:00</time></trkpt><trkpt lat="39.45380791" lon="-0.348772"><ele>0.0</ele><time>2022-11-04T16:29:56.0000000+00:00</time></trkpt><trkpt lat="39.45381403" lon="-0.34879052"><ele>0.0</ele><time>2022-11-04T16:29:57.0000000+00:00</time></trkpt><trkpt lat="39.45381763" lon="-0.34879756"><ele>0.0</ele><time>2022-11-04T16:29:58.0000000+00:00</time></trkpt><trkpt lat="39.45381805" lon="-0.34880276"><ele>0.0</ele><time>2022-11-04T16:29:59.0000000+00:00</time></trkpt><trkpt lat="39.45380825" lon="-0.34881223"><ele>0.0</ele><time>2022-11-04T16:30:00.0000000+00:00</time></trkpt><trkpt lat="39.45380632" lon="-0.34881743"><ele>0.0</ele><time>2022-11-04T16:30:01.0000000+00:00</time></trkpt><trkpt lat="39.45380615" lon="-0.34882086"><ele>0.0</ele><time>2022-11-04T16:30:02.0000000+00:00</time></trkpt><trkpt lat="39.45380707" lon="-0.34882422"><ele>0.0</ele><time>2022-11-04T16:30:03.0000000+00:00</time></trkpt><trkpt lat="39.45380565" lon="-0.34882489"><ele>0.0</ele><time>2022-11-04T16:30:04.0000000+00:00</time></trkpt><trkpt lat="39.45380431" lon="-0.34882195"><ele>0.0</ele><time>2022-11-04T16:30:05.0000000+00:00</time></trkpt><trkpt lat="39.45380741" lon="-0.34881617"><ele>0.2</ele><time>2022-11-04T16:30:06.0000000+00:00</time></trkpt><trkpt lat="39.45381152" lon="-0.34880737"><ele>0.0</ele><time>2022-11-04T16:30:07.0000000+00:00</time></trkpt><trkpt lat="39.45381713" lon="-0.34879329"><ele>0.0</ele><time>2022-11-04T16:30:08.0000000+00:00</time></trkpt><trkpt lat="39.45381998" lon="-0.34877996"><ele>0.0</ele><time>2022-11-04T16:30:09.0000000+00:00</time></trkpt><trkpt lat="39.45381889" lon="-0.34876479"><ele>0.0</ele><time>2022-11-04T16:30:10.0000000+00:00</time></trkpt><trkpt lat="39.45381504" lon="-0.34875054"><ele>0.0</ele><time>2022-11-04T16:30:11.0000000+00:00</time></trkpt><trkpt lat="39.45381571" lon="-0.34873294"><ele>0.0</ele><time>2022-11-04T16:30:12.0000000+00:00</time></trkpt><trkpt lat="39.45381478" lon="-0.34871911"><ele>0.0</ele><time>2022-11-04T16:30:13.0000000+00:00</time></trkpt><trkpt lat="39.45381336" lon="-0.34871517"><ele>0.0</ele><time>2022-11-04T16:30:14.0000000+00:00</time></trkpt><trkpt lat="39.45381319" lon="-0.34871492"><ele>0.0</ele><time>2022-11-04T16:30:15.0000000+00:00</time></trkpt><trkpt lat="39.45381244" lon="-0.34871458"><ele>0.0</ele><time>2022-11-04T16:30:16.0000000+00:00</time></trkpt><trkpt lat="39.45381043" lon="-0.34871542"><ele>0.0</ele><time>2022-11-04T16:30:17.0000000+00:00</time></trkpt><trkpt lat="39.45380515" lon="-0.34872414"><ele>0.0</ele><time>2022-11-04T16:30:18.0000000+00:00</time></trkpt><trkpt lat="39.45380045" lon="-0.34873461"><ele>0.2</ele><time>2022-11-04T16:30:19.0000000+00:00</time></trkpt><trkpt lat="39.45380062" lon="-0.34874425"><ele>0.2</ele><time>2022-11-04T16:30:20.0000000+00:00</time></trkpt><trkpt lat="39.45380095" lon="-0.34874844"><ele>0.2</ele><time>2022-11-04T16:30:21.0000000+00:00</time></trkpt><trkpt lat="39.45380154" lon="-0.34875683"><ele>0.2</ele><time>2022-11-04T16:30:22.0000000+00:00</time></trkpt><trkpt lat="39.45380112" lon="-0.34876605"><ele>0.2</ele><time>2022-11-04T16:30:23.0000000+00:00</time></trkpt><trkpt lat="39.45380221" lon="-0.34877133"><ele>0.0</ele><time>2022-11-04T16:30:24.0000000+00:00</time></trkpt><trkpt lat="39.45380154" lon="-0.34877443"><ele>0.0</ele><time>2022-11-04T16:30:25.0000000+00:00</time></trkpt><trkpt lat="39.4538028" lon="-0.34877694"><ele>-0.2</ele><time>2022-11-04T16:30:26.0000000+00:00</time></trkpt><trkpt lat="39.45380414" lon="-0.34877879"><ele>-0.2</ele><time>2022-11-04T16:30:27.0000000+00:00</time></trkpt><trkpt lat="39.45380397" lon="-0.34877845"><ele>-0.2</ele><time>2022-11-04T16:30:28.0000000+00:00</time></trkpt><trkpt lat="39.45380347" lon="-0.34877728"><ele>-0.2</ele><time>2022-11-04T16:30:29.0000000+00:00</time></trkpt><trkpt lat="39.45380347" lon="-0.34877728"><ele>-0.2</ele><time>2022-11-04T16:30:30.0000000+00:00</time></trkpt><trkpt lat="39.45380347" lon="-0.34877728"><ele>-0.2</ele><time>2022-11-04T16:30:31.0000000+00:00</time></trkpt><trkpt lat="39.45380347" lon="-0.34877728"><ele>-0.2</ele><time>2022-11-04T16:30:32.0000000+00:00</time></trkpt><trkpt lat="39.45380347" lon="-0.34877728"><ele>-0.2</ele><time>2022-11-04T16:30:33.0000000+00:00</time></trkpt><trkpt lat="39.45380347" lon="-0.34877728"><ele>-0.2</ele><time>2022-11-04T16:30:34.0000000+00:00</time></trkpt><trkpt lat="39.45380347" lon="-0.34877728"><ele>0.0</ele><time>2022-11-04T16:30:35.0000000+00:00</time></trkpt><trkpt lat="39.45380347" lon="-0.34877728"><ele>0.2</ele><time>2022-11-04T16:30:36.0000000+00:00</time></trkpt><trkpt lat="39.45380347" lon="-0.34877728"><ele>0.2</ele><time>2022-11-04T16:30:37.0000000+00:00</time></trkpt><trkpt lat="39.45380347" lon="-0.34877728"><ele>0.2</ele><time>2022-11-04T16:30:38.0000000+00:00</time></trkpt><trkpt lat="39.45380347" lon="-0.34877728"><ele>0.2</ele><time>2022-11-04T16:30:39.0000000+00:00</time></trkpt><trkpt lat="39.45380347" lon="-0.34877728"><ele>0.0</ele><time>2022-11-04T16:30:40.0000000+00:00</time></trkpt><trkpt lat="39.45380347" lon="-0.34877728"><ele>0.0</ele><time>2022-11-04T16:30:41.0000000+00:00</time></trkpt><trkpt lat="39.45380347" lon="-0.34877728"><ele>-0.2</ele><time>2022-11-04T16:30:42.0000000+00:00</time></trkpt><trkpt lat="39.45379802" lon="-0.34878667"><ele>-0.4</ele><time>2022-11-04T16:30:43.0000000+00:00</time></trkpt><trkpt lat="39.45378042" lon="-0.3488062"><ele>-0.4</ele><time>2022-11-04T16:30:44.0000000+00:00</time></trkpt><trkpt lat="39.45376349" lon="-0.34882338"><ele>-0.6</ele><time>2022-11-04T16:30:45.0000000+00:00</time></trkpt><trkpt lat="39.45373977" lon="-0.34884014"><ele>-0.6</ele><time>2022-11-04T16:30:46.0000000+00:00</time></trkpt><trkpt lat="39.45371856" lon="-0.34885657"><ele>-0.8</ele><time>2022-11-04T16:30:47.0000000+00:00</time></trkpt><trkpt lat="39.45370171" lon="-0.3488792"><ele>-0.8</ele><time>2022-11-04T16:30:48.0000000+00:00</time></trkpt><trkpt lat="39.45368562" lon="-0.34889873"><ele>-0.8</ele><time>2022-11-04T16:30:49.0000000+00:00</time></trkpt><trkpt lat="39.45367229" lon="-0.3489155"><ele>-1.0</ele><time>2022-11-04T16:30:50.0000000+00:00</time></trkpt><trkpt lat="39.45365528" lon="-0.34892874"><ele>-1.2</ele><time>2022-11-04T16:30:51.0000000+00:00</time></trkpt><trkpt lat="39.45363826" lon="-0.34893796"><ele>-1.2</ele><time>2022-11-04T16:30:52.0000000+00:00</time></trkpt><trkpt lat="39.45363189" lon="-0.34893159"><ele>-1.4</ele><time>2022-11-04T16:30:53.0000000+00:00</time></trkpt><trkpt lat="39.45362762" lon="-0.34892161"><ele>-1.6</ele><time>2022-11-04T16:30:54.0000000+00:00</time></trkpt><trkpt lat="39.45362418" lon="-0.34890795"><ele>-1.8</ele><time>2022-11-04T16:30:55.0000000+00:00</time></trkpt><trkpt lat="39.45362686" lon="-0.3488958"><ele>-2.0</ele><time>2022-11-04T16:30:56.0000000+00:00</time></trkpt><trkpt lat="39.45363122" lon="-0.34888691"><ele>-2.2</ele><time>2022-11-04T16:30:57.0000000+00:00</time></trkpt><trkpt lat="39.4536298" lon="-0.34887761"><ele>-2.2</ele><time>2022-11-04T16:30:58.0000000+00:00</time></trkpt><trkpt lat="39.45362376" lon="-0.3488642"><ele>-2.4</ele><time>2022-11-04T16:30:59.0000000+00:00</time></trkpt><trkpt lat="39.45362108" lon="-0.34885724"><ele>-2.4</ele><time>2022-11-04T16:31:00.0000000+00:00</time></trkpt><trkpt lat="39.45362175" lon="-0.34885313"><ele>-2.6</ele><time>2022-11-04T16:31:01.0000000+00:00</time></trkpt><trkpt lat="39.45362561" lon="-0.34884987"><ele>-2.6</ele><time>2022-11-04T16:31:02.0000000+00:00</time></trkpt><trkpt lat="39.45362577" lon="-0.34885406"><ele>-2.6</ele><time>2022-11-04T16:31:03.0000000+00:00</time></trkpt><trkpt lat="39.45362728" lon="-0.34885774"><ele>-2.6</ele><time>2022-11-04T16:31:04.0000000+00:00</time></trkpt><trkpt lat="39.45363256" lon="-0.3488554"><ele>-2.6</ele><time>2022-11-04T16:31:05.0000000+00:00</time></trkpt><trkpt lat="39.4536334" lon="-0.34885942"><ele>-2.6</ele><time>2022-11-04T16:31:06.0000000+00:00</time></trkpt><trkpt lat="39.45363306" lon="-0.34885892"><ele>-2.6</ele><time>2022-11-04T16:31:07.0000000+00:00</time></trkpt><trkpt lat="39.45363114" lon="-0.34886059"><ele>-2.6</ele><time>2022-11-04T16:31:08.0000000+00:00</time></trkpt><trkpt lat="39.45363055" lon="-0.34886252"><ele>-2.6</ele><time>2022-11-04T16:31:09.0000000+00:00</time></trkpt><trkpt lat="39.45362988" lon="-0.34886445"><ele>-2.6</ele><time>2022-11-04T16:31:10.0000000+00:00</time></trkpt><trkpt lat="39.45363608" lon="-0.34886713"><ele>-2.6</ele><time>2022-11-04T16:31:11.0000000+00:00</time></trkpt><trkpt lat="39.4536412" lon="-0.34886353"><ele>-2.6</ele><time>2022-11-04T16:31:12.0000000+00:00</time></trkpt><trkpt lat="39.45364463" lon="-0.34886093"><ele>-2.6</ele><time>2022-11-04T16:31:13.0000000+00:00</time></trkpt><trkpt lat="39.45364639" lon="-0.34885841"><ele>-2.4</ele><time>2022-11-04T16:31:14.0000000+00:00</time></trkpt><trkpt lat="39.45365033" lon="-0.34885992"><ele>-2.4</ele><time>2022-11-04T16:31:15.0000000+00:00</time></trkpt><trkpt lat="39.45365402" lon="-0.34886302"><ele>-2.4</ele><time>2022-11-04T16:31:16.0000000+00:00</time></trkpt><trkpt lat="39.45366249" lon="-0.34886504"><ele>-2.4</ele><time>2022-11-04T16:31:17.0000000+00:00</time></trkpt><trkpt lat="39.45367062" lon="-0.34886302"><ele>-2.6</ele><time>2022-11-04T16:31:18.0000000+00:00</time></trkpt><trkpt lat="39.45367112" lon="-0.34886403"><ele>-2.6</ele><time>2022-11-04T16:31:19.0000000+00:00</time></trkpt><trkpt lat="39.45366844" lon="-0.34886923"><ele>-2.6</ele><time>2022-11-04T16:31:20.0000000+00:00</time></trkpt><trkpt lat="39.45366844" lon="-0.34886923"><ele>-2.6</ele><time>2022-11-04T16:31:21.0000000+00:00</time></trkpt><trkpt lat="39.45366844" lon="-0.34886923"><ele>-2.6</ele><time>2022-11-04T16:31:22.0000000+00:00</time></trkpt><trkpt lat="39.45366844" lon="-0.34886923"><ele>-2.6</ele><time>2022-11-04T16:31:23.0000000+00:00</time></trkpt><trkpt lat="39.45366844" lon="-0.34886923"><ele>-2.6</ele><time>2022-11-04T16:31:24.0000000+00:00</time></trkpt><trkpt lat="39.45366844" lon="-0.34886923"><ele>-2.6</ele><time>2022-11-04T16:31:25.0000000+00:00</time></trkpt><trkpt lat="39.45366844" lon="-0.34886923"><ele>-2.6</ele><time>2022-11-04T16:31:26.0000000+00:00</time></trkpt><trkpt lat="39.45366844" lon="-0.34886923"><ele>-2.6</ele><time>2022-11-04T16:31:27.0000000+00:00</time></trkpt><trkpt lat="39.45366844" lon="-0.34886831"><ele>-2.6</ele><time>2022-11-04T16:31:28.0000000+00:00</time></trkpt><trkpt lat="39.45366844" lon="-0.3488673"><ele>-2.6</ele><time>2022-11-04T16:31:29.0000000+00:00</time></trkpt><trkpt lat="39.45366743" lon="-0.34886512"><ele>-2.6</ele><time>2022-11-04T16:31:30.0000000+00:00</time></trkpt><trkpt lat="39.45366735" lon="-0.34886403"><ele>-2.4</ele><time>2022-11-04T16:31:31.0000000+00:00</time></trkpt><trkpt lat="39.45366735" lon="-0.34886386"><ele>-2.4</ele><time>2022-11-04T16:31:32.0000000+00:00</time></trkpt><trkpt lat="39.45366735" lon="-0.34886353"><ele>-2.4</ele><time>2022-11-04T16:31:33.0000000+00:00</time></trkpt><trkpt lat="39.45366735" lon="-0.34886311"><ele>-2.4</ele><time>2022-11-04T16:31:34.0000000+00:00</time></trkpt><trkpt lat="39.45366735" lon="-0.34886302"><ele>-2.4</ele><time>2022-11-04T16:31:35.0000000+00:00</time></trkpt><trkpt lat="39.45366735" lon="-0.34886177"><ele>-2.4</ele><time>2022-11-04T16:31:36.0000000+00:00</time></trkpt><trkpt lat="39.45366735" lon="-0.34886143"><ele>-2.4</ele><time>2022-11-04T16:31:37.0000000+00:00</time></trkpt><trkpt lat="39.45366735" lon="-0.34886101"><ele>-2.2</ele><time>2022-11-04T16:31:38.0000000+00:00</time></trkpt><trkpt lat="39.45366718" lon="-0.34886059"><ele>-2.2</ele><time>2022-11-04T16:31:39.0000000+00:00</time></trkpt><trkpt lat="39.45366701" lon="-0.34886001"><ele>-2.2</ele><time>2022-11-04T16:31:40.0000000+00:00</time></trkpt><trkpt lat="39.45366693" lon="-0.34885967"><ele>-2.4</ele><time>2022-11-04T16:31:41.0000000+00:00</time></trkpt><trkpt lat="39.45366693" lon="-0.34885934"><ele>-2.4</ele><time>2022-11-04T16:31:42.0000000+00:00</time></trkpt><trkpt lat="39.45366693" lon="-0.34885858"><ele>-2.4</ele><time>2022-11-04T16:31:43.0000000+00:00</time></trkpt><trkpt lat="39.45366693" lon="-0.34885841"><ele>-2.6</ele><time>2022-11-04T16:31:44.0000000+00:00</time></trkpt><trkpt lat="39.45366693" lon="-0.34885816"><ele>-2.6</ele><time>2022-11-04T16:31:45.0000000+00:00</time></trkpt><trkpt lat="39.45366693" lon="-0.34885808"><ele>-2.6</ele><time>2022-11-04T16:31:46.0000000+00:00</time></trkpt><trkpt lat="39.45366693" lon="-0.34885808"><ele>-2.6</ele><time>2022-11-04T16:31:47.0000000+00:00</time></trkpt><trkpt lat="39.45366693" lon="-0.34885783"><ele>-2.6</ele><time>2022-11-04T16:31:48.0000000+00:00</time></trkpt><trkpt lat="39.45366693" lon="-0.34885766"><ele>-2.4</ele><time>2022-11-04T16:31:49.0000000+00:00</time></trkpt><trkpt lat="39.45366693" lon="-0.34885707"><ele>-2.4</ele><time>2022-11-04T16:31:50.0000000+00:00</time></trkpt><trkpt lat="39.45366693" lon="-0.34885691"><ele>-2.4</ele><time>2022-11-04T16:31:51.0000000+00:00</time></trkpt><trkpt lat="39.4536671" lon="-0.34885649"><ele>-2.4</ele><time>2022-11-04T16:31:52.0000000+00:00</time></trkpt><trkpt lat="39.45366735" lon="-0.34885615"><ele>-2.4</ele><time>2022-11-04T16:31:53.0000000+00:00</time></trkpt><trkpt lat="39.45366751" lon="-0.34885548"><ele>-2.4</ele><time>2022-11-04T16:31:54.0000000+00:00</time></trkpt><trkpt lat="39.45366802" lon="-0.34885515"><ele>-2.4</ele><time>2022-11-04T16:31:55.0000000+00:00</time></trkpt><trkpt lat="39.45366819" lon="-0.34885498"><ele>-2.6</ele><time>2022-11-04T16:31:56.0000000+00:00</time></trkpt><trkpt lat="39.45366844" lon="-0.34885397"><ele>-2.6</ele><time>2022-11-04T16:31:57.0000000+00:00</time></trkpt><trkpt lat="39.45366844" lon="-0.34885355"><ele>-2.6</ele><time>2022-11-04T16:31:58.0000000+00:00</time></trkpt><trkpt lat="39.45366844" lon="-0.34885255"><ele>-2.8</ele><time>2022-11-04T16:31:59.0000000+00:00</time></trkpt><trkpt lat="39.45366844" lon="-0.34885238"><ele>-2.8</ele><time>2022-11-04T16:32:00.0000000+00:00</time></trkpt><trkpt lat="39.45366844" lon="-0.3488523"><ele>-2.8</ele><time>2022-11-04T16:32:01.0000000+00:00</time></trkpt><trkpt lat="39.45366827" lon="-0.34885204"><ele>-2.6</ele><time>2022-11-04T16:32:02.0000000+00:00</time></trkpt><trkpt lat="39.45366718" lon="-0.3488507"><ele>-2.6</ele><time>2022-11-04T16:32:03.0000000+00:00</time></trkpt><trkpt lat="39.45366659" lon="-0.34884526"><ele>-2.6</ele><time>2022-11-04T16:32:04.0000000+00:00</time></trkpt><trkpt lat="39.45366642" lon="-0.34884366"><ele>-2.4</ele><time>2022-11-04T16:32:05.0000000+00:00</time></trkpt><trkpt lat="39.45366634" lon="-0.34884308"><ele>-2.4</ele><time>2022-11-04T16:32:06.0000000+00:00</time></trkpt><trkpt lat="39.45366609" lon="-0.34884257"><ele>-2.4</ele><time>2022-11-04T16:32:07.0000000+00:00</time></trkpt><trkpt lat="39.45366609" lon="-0.34884148"><ele>-2.4</ele><time>2022-11-04T16:32:08.0000000+00:00</time></trkpt><trkpt lat="39.45366626" lon="-0.34883997"><ele>-2.4</ele><time>2022-11-04T16:32:09.0000000+00:00</time></trkpt><trkpt lat="39.45366634" lon="-0.3488388"><ele>-2.2</ele><time>2022-11-04T16:32:10.0000000+00:00</time></trkpt><trkpt lat="39.45366634" lon="-0.3488383"><ele>-2.4</ele><time>2022-11-04T16:32:11.0000000+00:00</time></trkpt><trkpt lat="39.45366634" lon="-0.34883629"><ele>-2.4</ele><time>2022-11-04T16:32:12.0000000+00:00</time></trkpt><trkpt lat="39.45366634" lon="-0.34883528"><ele>-2.4</ele><time>2022-11-04T16:32:13.0000000+00:00</time></trkpt><trkpt lat="39.45366634" lon="-0.3488331"><ele>-2.6</ele><time>2022-11-04T16:32:14.0000000+00:00</time></trkpt><trkpt lat="39.45366634" lon="-0.34883159"><ele>-2.6</ele><time>2022-11-04T16:32:15.0000000+00:00</time></trkpt><trkpt lat="39.45366634" lon="-0.34883025"><ele>-2.6</ele><time>2022-11-04T16:32:16.0000000+00:00</time></trkpt><trkpt lat="39.45366609" lon="-0.34882933"><ele>-2.6</ele><time>2022-11-04T16:32:17.0000000+00:00</time></trkpt><trkpt lat="39.45366601" lon="-0.34882899"><ele>-2.6</ele><time>2022-11-04T16:32:18.0000000+00:00</time></trkpt><trkpt lat="39.45366592" lon="-0.34882849"><ele>-2.6</ele><time>2022-11-04T16:32:19.0000000+00:00</time></trkpt><trkpt lat="39.45366584" lon="-0.34882816"><ele>-2.6</ele><time>2022-11-04T16:32:20.0000000+00:00</time></trkpt><trkpt lat="39.45366567" lon="-0.34882749"><ele>-2.6</ele><time>2022-11-04T16:32:21.0000000+00:00</time></trkpt><trkpt lat="39.45366559" lon="-0.34882707"><ele>-2.6</ele><time>2022-11-04T16:32:22.0000000+00:00</time></trkpt><trkpt lat="39.45366542" lon="-0.34882388"><ele>-2.8</ele><time>2022-11-04T16:32:23.0000000+00:00</time></trkpt><trkpt lat="39.45366483" lon="-0.34882288"><ele>-2.8</ele><time>2022-11-04T16:32:24.0000000+00:00</time></trkpt><trkpt lat="39.45366458" lon="-0.34882229"><ele>-2.8</ele><time>2022-11-04T16:32:25.0000000+00:00</time></trkpt><trkpt lat="39.45366383" lon="-0.34882162"><ele>-2.8</ele><time>2022-11-04T16:32:26.0000000+00:00</time></trkpt><trkpt lat="39.45366307" lon="-0.34882078"><ele>-2.8</ele><time>2022-11-04T16:32:27.0000000+00:00</time></trkpt><trkpt lat="39.45366249" lon="-0.34882011"><ele>-2.8</ele><time>2022-11-04T16:32:28.0000000+00:00</time></trkpt><trkpt lat="39.45366165" lon="-0.34881994"><ele>-2.8</ele><time>2022-11-04T16:32:29.0000000+00:00</time></trkpt><trkpt lat="39.45366014" lon="-0.34881986"><ele>-2.8</ele><time>2022-11-04T16:32:30.0000000+00:00</time></trkpt><trkpt lat="39.45365938" lon="-0.34881986"><ele>-2.8</ele><time>2022-11-04T16:32:31.0000000+00:00</time></trkpt><trkpt lat="39.45365855" lon="-0.34881977"><ele>-2.8</ele><time>2022-11-04T16:32:32.0000000+00:00</time></trkpt><trkpt lat="39.45365771" lon="-0.34881977"><ele>-2.8</ele><time>2022-11-04T16:32:33.0000000+00:00</time></trkpt><trkpt lat="39.4536572" lon="-0.34881977"><ele>-2.8</ele><time>2022-11-04T16:32:34.0000000+00:00</time></trkpt><trkpt lat="39.45365695" lon="-0.34881977"><ele>-2.8</ele><time>2022-11-04T16:32:35.0000000+00:00</time></trkpt><trkpt lat="39.4536567" lon="-0.34881977"><ele>-2.8</ele><time>2022-11-04T16:32:36.0000000+00:00</time></trkpt><trkpt lat="39.4536562" lon="-0.34881977"><ele>-2.8</ele><time>2022-11-04T16:32:37.0000000+00:00</time></trkpt><trkpt lat="39.45365595" lon="-0.34881977"><ele>-2.8</ele><time>2022-11-04T16:32:38.0000000+00:00</time></trkpt><trkpt lat="39.45365033" lon="-0.34881977"><ele>-2.8</ele><time>2022-11-04T16:32:39.0000000+00:00</time></trkpt><trkpt lat="39.45364807" lon="-0.34881977"><ele>-2.8</ele><time>2022-11-04T16:32:40.0000000+00:00</time></trkpt><trkpt lat="39.45364706" lon="-0.34881977"><ele>-2.8</ele><time>2022-11-04T16:32:41.0000000+00:00</time></trkpt><trkpt lat="39.45364664" lon="-0.34881977"><ele>-2.8</ele><time>2022-11-04T16:32:42.0000000+00:00</time></trkpt><trkpt lat="39.45364639" lon="-0.34882589"><ele>-2.8</ele><time>2022-11-04T16:32:43.0000000+00:00</time></trkpt><trkpt lat="39.45364631" lon="-0.34883168"><ele>-2.8</ele><time>2022-11-04T16:32:44.0000000+00:00</time></trkpt><trkpt lat="39.45364606" lon="-0.34883545"><ele>-2.8</ele><time>2022-11-04T16:32:45.0000000+00:00</time></trkpt><trkpt lat="39.45364597" lon="-0.34883847"><ele>-2.8</ele><time>2022-11-04T16:32:46.0000000+00:00</time></trkpt><trkpt lat="39.45364581" lon="-0.34884065"><ele>-2.8</ele><time>2022-11-04T16:32:47.0000000+00:00</time></trkpt><trkpt lat="39.45364581" lon="-0.34884182"><ele>-2.8</ele><time>2022-11-04T16:32:48.0000000+00:00</time></trkpt><trkpt lat="39.45364572" lon="-0.34884417"><ele>-2.8</ele><time>2022-11-04T16:32:49.0000000+00:00</time></trkpt><trkpt lat="39.45364572" lon="-0.34884517"><ele>-2.8</ele><time>2022-11-04T16:32:50.0000000+00:00</time></trkpt><trkpt lat="39.45364572" lon="-0.34884559"><ele>-2.8</ele><time>2022-11-04T16:32:51.0000000+00:00</time></trkpt><trkpt lat="39.45364572" lon="-0.34884576"><ele>-2.8</ele><time>2022-11-04T16:32:52.0000000+00:00</time></trkpt><trkpt lat="39.45364572" lon="-0.34884584"><ele>-2.8</ele><time>2022-11-04T16:32:53.0000000+00:00</time></trkpt><trkpt lat="39.45364572" lon="-0.34884593"><ele>-2.8</ele><time>2022-11-04T16:32:54.0000000+00:00</time></trkpt><trkpt lat="39.45364572" lon="-0.34884593"><ele>-2.8</ele><time>2022-11-04T16:32:55.0000000+00:00</time></trkpt><trkpt lat="39.45364572" lon="-0.34884593"><ele>-2.8</ele><time>2022-11-04T16:32:56.0000000+00:00</time></trkpt><trkpt lat="39.45364572" lon="-0.34884593"><ele>-2.8</ele><time>2022-11-04T16:32:57.0000000+00:00</time></trkpt><trkpt lat="39.45364572" lon="-0.34884593"><ele>-2.8</ele><time>2022-11-04T16:32:58.0000000+00:00</time></trkpt><trkpt lat="39.45364597" lon="-0.34884593"><ele>-2.8</ele><time>2022-11-04T16:32:59.0000000+00:00</time></trkpt><trkpt lat="39.45364614" lon="-0.34884593"><ele>-2.8</ele><time>2022-11-04T16:33:00.0000000+00:00</time></trkpt><trkpt lat="39.45364614" lon="-0.34884593"><ele>-2.8</ele><time>2022-11-04T16:33:01.0000000+00:00</time></trkpt><trkpt lat="39.45364631" lon="-0.34884593"><ele>-2.8</ele><time>2022-11-04T16:33:02.0000000+00:00</time></trkpt><trkpt lat="39.45364748" lon="-0.34884593"><ele>-2.8</ele><time>2022-11-04T16:33:03.0000000+00:00</time></trkpt><trkpt lat="39.453651" lon="-0.3488445"><ele>-2.6</ele><time>2022-11-04T16:33:04.0000000+00:00</time></trkpt><trkpt lat="39.4536531" lon="-0.34884165"><ele>-2.6</ele><time>2022-11-04T16:33:05.0000000+00:00</time></trkpt><trkpt lat="39.45365603" lon="-0.34883905"><ele>-2.6</ele><time>2022-11-04T16:33:06.0000000+00:00</time></trkpt><trkpt lat="39.45365754" lon="-0.34883738"><ele>-2.6</ele><time>2022-11-04T16:33:07.0000000+00:00</time></trkpt><trkpt lat="39.45365838" lon="-0.34883528"><ele>-2.4</ele><time>2022-11-04T16:33:08.0000000+00:00</time></trkpt><trkpt lat="39.4536588" lon="-0.34883268"><ele>-2.4</ele><time>2022-11-04T16:33:09.0000000+00:00</time></trkpt><trkpt lat="39.45365896" lon="-0.34883092"><ele>-2.2</ele><time>2022-11-04T16:33:10.0000000+00:00</time></trkpt><trkpt lat="39.45365913" lon="-0.34882807"><ele>-2.2</ele><time>2022-11-04T16:33:11.0000000+00:00</time></trkpt><trkpt lat="39.45365922" lon="-0.34882497"><ele>-2.2</ele><time>2022-11-04T16:33:12.0000000+00:00</time></trkpt><trkpt lat="39.45365922" lon="-0.34882304"><ele>-2.2</ele><time>2022-11-04T16:33:13.0000000+00:00</time></trkpt><trkpt lat="39.45365922" lon="-0.34882153"><ele>-2.4</ele><time>2022-11-04T16:33:14.0000000+00:00</time></trkpt><trkpt lat="39.45365922" lon="-0.34882053"><ele>-2.6</ele><time>2022-11-04T16:33:15.0000000+00:00</time></trkpt><trkpt lat="39.45365922" lon="-0.34881994"><ele>-2.6</ele><time>2022-11-04T16:33:16.0000000+00:00</time></trkpt><trkpt lat="39.45365922" lon="-0.34881944"><ele>-2.6</ele><time>2022-11-04T16:33:17.0000000+00:00</time></trkpt><trkpt lat="39.4536593" lon="-0.3488191"><ele>-2.6</ele><time>2022-11-04T16:33:18.0000000+00:00</time></trkpt><trkpt lat="39.4536593" lon="-0.34881852"><ele>-2.6</ele><time>2022-11-04T16:33:19.0000000+00:00</time></trkpt><trkpt lat="39.4536593" lon="-0.34881768"><ele>-2.8</ele><time>2022-11-04T16:33:20.0000000+00:00</time></trkpt><trkpt lat="39.45365821" lon="-0.34881684"><ele>-2.8</ele><time>2022-11-04T16:33:21.0000000+00:00</time></trkpt><trkpt lat="39.45365729" lon="-0.348816"><ele>-2.8</ele><time>2022-11-04T16:33:22.0000000+00:00</time></trkpt><trkpt lat="39.45365662" lon="-0.34881533"><ele>-2.8</ele><time>2022-11-04T16:33:23.0000000+00:00</time></trkpt><trkpt lat="39.45365578" lon="-0.348815"><ele>-2.8</ele><time>2022-11-04T16:33:24.0000000+00:00</time></trkpt><trkpt lat="39.45365511" lon="-0.34881466"><ele>-2.8</ele><time>2022-11-04T16:33:25.0000000+00:00</time></trkpt><trkpt lat="39.45365469" lon="-0.34881441"><ele>-2.6</ele><time>2022-11-04T16:33:26.0000000+00:00</time></trkpt><trkpt lat="39.45365419" lon="-0.34881416"><ele>-2.6</ele><time>2022-11-04T16:33:27.0000000+00:00</time></trkpt><trkpt lat="39.45365318" lon="-0.34881382"><ele>-2.6</ele><time>2022-11-04T16:33:28.0000000+00:00</time></trkpt><trkpt lat="39.45364974" lon="-0.34881122"><ele>-2.6</ele><time>2022-11-04T16:33:29.0000000+00:00</time></trkpt><trkpt lat="39.45364547" lon="-0.34880812"><ele>-2.6</ele><time>2022-11-04T16:33:30.0000000+00:00</time></trkpt><trkpt lat="39.45364187" lon="-0.34880611"><ele>-2.6</ele><time>2022-11-04T16:33:31.0000000+00:00</time></trkpt><trkpt lat="39.4536396" lon="-0.34880469"><ele>-2.6</ele><time>2022-11-04T16:33:32.0000000+00:00</time></trkpt><trkpt lat="39.45363818" lon="-0.34880368"><ele>-2.6</ele><time>2022-11-04T16:33:33.0000000+00:00</time></trkpt><trkpt lat="39.45363717" lon="-0.34880242"><ele>-2.6</ele><time>2022-11-04T16:33:34.0000000+00:00</time></trkpt><trkpt lat="39.45363659" lon="-0.348801"><ele>-2.6</ele><time>2022-11-04T16:33:35.0000000+00:00</time></trkpt><trkpt lat="39.45363617" lon="-0.34879941"><ele>-2.8</ele><time>2022-11-04T16:33:36.0000000+00:00</time></trkpt><trkpt lat="39.45363591" lon="-0.34879823"><ele>-2.8</ele><time>2022-11-04T16:33:37.0000000+00:00</time></trkpt><trkpt lat="39.45363566" lon="-0.34879756"><ele>-2.8</ele><time>2022-11-04T16:33:38.0000000+00:00</time></trkpt><trkpt lat="39.45363558" lon="-0.34879706"><ele>-2.8</ele><time>2022-11-04T16:33:39.0000000+00:00</time></trkpt><trkpt lat="39.4536355" lon="-0.34879672"><ele>-2.6</ele><time>2022-11-04T16:33:40.0000000+00:00</time></trkpt><trkpt lat="39.45363541" lon="-0.34879647"><ele>-2.6</ele><time>2022-11-04T16:33:41.0000000+00:00</time></trkpt><trkpt lat="39.45363541" lon="-0.3487963"><ele>-2.6</ele><time>2022-11-04T16:33:42.0000000+00:00</time></trkpt><trkpt lat="39.45363541" lon="-0.34879622"><ele>-2.6</ele><time>2022-11-04T16:33:43.0000000+00:00</time></trkpt><trkpt lat="39.45363533" lon="-0.34879614"><ele>-2.6</ele><time>2022-11-04T16:33:44.0000000+00:00</time></trkpt><trkpt lat="39.45363533" lon="-0.34879597"><ele>-2.6</ele><time>2022-11-04T16:33:45.0000000+00:00</time></trkpt><trkpt lat="39.45363558" lon="-0.34879589"><ele>-2.6</ele><time>2022-11-04T16:33:46.0000000+00:00</time></trkpt><trkpt lat="39.45363742" lon="-0.3487958"><ele>-2.6</ele><time>2022-11-04T16:33:47.0000000+00:00</time></trkpt><trkpt lat="39.45364011" lon="-0.3487958"><ele>-2.6</ele><time>2022-11-04T16:33:48.0000000+00:00</time></trkpt><trkpt lat="39.4536427" lon="-0.3487958"><ele>-2.6</ele><time>2022-11-04T16:33:49.0000000+00:00</time></trkpt><trkpt lat="39.45364606" lon="-0.3487958"><ele>-2.6</ele><time>2022-11-04T16:33:50.0000000+00:00</time></trkpt><trkpt lat="39.45364933" lon="-0.34879589"><ele>-2.6</ele><time>2022-11-04T16:33:51.0000000+00:00</time></trkpt><trkpt lat="39.45365234" lon="-0.34879589"><ele>-2.6</ele><time>2022-11-04T16:33:52.0000000+00:00</time></trkpt><trkpt lat="39.45365469" lon="-0.34879589"><ele>-2.6</ele><time>2022-11-04T16:33:53.0000000+00:00</time></trkpt><trkpt lat="39.45365645" lon="-0.34879589"><ele>-2.6</ele><time>2022-11-04T16:33:54.0000000+00:00</time></trkpt><trkpt lat="39.45365804" lon="-0.34879589"><ele>-2.6</ele><time>2022-11-04T16:33:55.0000000+00:00</time></trkpt><trkpt lat="39.4536593" lon="-0.34879589"><ele>-2.6</ele><time>2022-11-04T16:33:56.0000000+00:00</time></trkpt><trkpt lat="39.45366031" lon="-0.34879589"><ele>-2.6</ele><time>2022-11-04T16:33:57.0000000+00:00</time></trkpt><trkpt lat="39.45366114" lon="-0.3487958"><ele>-2.6</ele><time>2022-11-04T16:33:58.0000000+00:00</time></trkpt><trkpt lat="39.45366181" lon="-0.34879572"><ele>-2.6</ele><time>2022-11-04T16:33:59.0000000+00:00</time></trkpt><trkpt lat="39.45366232" lon="-0.34879572"><ele>-2.6</ele><time>2022-11-04T16:34:00.0000000+00:00</time></trkpt><trkpt lat="39.45366282" lon="-0.34879555"><ele>-2.6</ele><time>2022-11-04T16:34:01.0000000+00:00</time></trkpt><trkpt lat="39.45366324" lon="-0.34879547"><ele>-2.6</ele><time>2022-11-04T16:34:02.0000000+00:00</time></trkpt><trkpt lat="39.45366366" lon="-0.34879547"><ele>-2.6</ele><time>2022-11-04T16:34:03.0000000+00:00</time></trkpt><trkpt lat="39.45366399" lon="-0.34879538"><ele>-2.6</ele><time>2022-11-04T16:34:04.0000000+00:00</time></trkpt><trkpt lat="39.45366433" lon="-0.3487953"><ele>-2.6</ele><time>2022-11-04T16:34:05.0000000+00:00</time></trkpt><trkpt lat="39.45366466" lon="-0.3487953"><ele>-2.6</ele><time>2022-11-04T16:34:06.0000000+00:00</time></trkpt><trkpt lat="39.453665" lon="-0.34879522"><ele>-2.6</ele><time>2022-11-04T16:34:07.0000000+00:00</time></trkpt><trkpt lat="39.45366525" lon="-0.34879505"><ele>-2.6</ele><time>2022-11-04T16:34:08.0000000+00:00</time></trkpt><trkpt lat="39.45366542" lon="-0.34879488"><ele>-2.6</ele><time>2022-11-04T16:34:09.0000000+00:00</time></trkpt><trkpt lat="39.45366559" lon="-0.34879387"><ele>-2.6</ele><time>2022-11-04T16:34:10.0000000+00:00</time></trkpt><trkpt lat="39.45366584" lon="-0.3487927"><ele>-2.6</ele><time>2022-11-04T16:34:11.0000000+00:00</time></trkpt><trkpt lat="39.45366617" lon="-0.34879178"><ele>-2.6</ele><time>2022-11-04T16:34:12.0000000+00:00</time></trkpt><trkpt lat="39.45366659" lon="-0.34879102"><ele>-2.6</ele><time>2022-11-04T16:34:13.0000000+00:00</time></trkpt><trkpt lat="39.45366693" lon="-0.34879035"><ele>-2.6</ele><time>2022-11-04T16:34:14.0000000+00:00</time></trkpt><trkpt lat="39.45366735" lon="-0.34878985"><ele>-2.6</ele><time>2022-11-04T16:34:15.0000000+00:00</time></trkpt><trkpt lat="39.45366777" lon="-0.34878935"><ele>-2.6</ele><time>2022-11-04T16:34:16.0000000+00:00</time></trkpt><trkpt lat="39.4536681" lon="-0.34878901"><ele>-2.6</ele><time>2022-11-04T16:34:17.0000000+00:00</time></trkpt><trkpt lat="39.45366835" lon="-0.34878868"><ele>-2.6</ele><time>2022-11-04T16:34:18.0000000+00:00</time></trkpt><trkpt lat="39.4536686" lon="-0.34878843"><ele>-2.6</ele><time>2022-11-04T16:34:19.0000000+00:00</time></trkpt><trkpt lat="39.45366877" lon="-0.34878817"><ele>-2.6</ele><time>2022-11-04T16:34:20.0000000+00:00</time></trkpt><trkpt lat="39.45366894" lon="-0.34878801"><ele>-2.6</ele><time>2022-11-04T16:34:21.0000000+00:00</time></trkpt><trkpt lat="39.45366911" lon="-0.34878784"><ele>-2.6</ele><time>2022-11-04T16:34:22.0000000+00:00</time></trkpt><trkpt lat="39.45366919" lon="-0.34878767"><ele>-2.6</ele><time>2022-11-04T16:34:23.0000000+00:00</time></trkpt><trkpt lat="39.45366919" lon="-0.34878759"><ele>-2.6</ele><time>2022-11-04T16:34:24.0000000+00:00</time></trkpt><trkpt lat="39.45366919" lon="-0.3487875"><ele>-2.6</ele><time>2022-11-04T16:34:25.0000000+00:00</time></trkpt><trkpt lat="39.45366902" lon="-0.34878759"><ele>-2.6</ele><time>2022-11-04T16:34:26.0000000+00:00</time></trkpt><trkpt lat="39.45366894" lon="-0.34878792"><ele>-2.6</ele><time>2022-11-04T16:34:27.0000000+00:00</time></trkpt><trkpt lat="39.45366877" lon="-0.34878834"><ele>-2.6</ele><time>2022-11-04T16:34:28.0000000+00:00</time></trkpt><trkpt lat="39.45366869" lon="-0.34878952"><ele>-2.6</ele><time>2022-11-04T16:34:29.0000000+00:00</time></trkpt><trkpt lat="39.45366835" lon="-0.34879111"><ele>-2.6</ele><time>2022-11-04T16:34:30.0000000+00:00</time></trkpt><trkpt lat="39.45366777" lon="-0.34879287"><ele>-2.6</ele><time>2022-11-04T16:34:31.0000000+00:00</time></trkpt><trkpt lat="39.45366726" lon="-0.34879454"><ele>-2.6</ele><time>2022-11-04T16:34:32.0000000+00:00</time></trkpt><trkpt lat="39.45366668" lon="-0.34879614"><ele>-2.6</ele><time>2022-11-04T16:34:33.0000000+00:00</time></trkpt><trkpt lat="39.45366232" lon="-0.34880737"><ele>-2.6</ele><time>2022-11-04T16:34:34.0000000+00:00</time></trkpt><trkpt lat="39.45366207" lon="-0.34883327"><ele>-2.6</ele><time>2022-11-04T16:34:35.0000000+00:00</time></trkpt><trkpt lat="39.45366735" lon="-0.34885607"><ele>-2.6</ele><time>2022-11-04T16:34:36.0000000+00:00</time></trkpt><trkpt lat="39.45367053" lon="-0.34887794"><ele>-2.6</ele><time>2022-11-04T16:34:37.0000000+00:00</time></trkpt><trkpt lat="39.45367221" lon="-0.34889546"><ele>-2.6</ele><time>2022-11-04T16:34:38.0000000+00:00</time></trkpt><trkpt lat="39.45367464" lon="-0.34891164"><ele>-2.6</ele><time>2022-11-04T16:34:39.0000000+00:00</time></trkpt><trkpt lat="39.45367774" lon="-0.3489367"><ele>-2.6</ele><time>2022-11-04T16:34:40.0000000+00:00</time></trkpt><trkpt lat="39.45368109" lon="-0.34895489"><ele>-2.6</ele><time>2022-11-04T16:34:41.0000000+00:00</time></trkpt><trkpt lat="39.45368595" lon="-0.34897132"><ele>-2.6</ele><time>2022-11-04T16:34:42.0000000+00:00</time></trkpt><trkpt lat="39.45368755" lon="-0.34898154"><ele>-2.6</ele><time>2022-11-04T16:34:43.0000000+00:00</time></trkpt><trkpt lat="39.45369375" lon="-0.34898892"><ele>-2.2</ele><time>2022-11-04T16:34:44.0000000+00:00</time></trkpt><trkpt lat="39.45370079" lon="-0.34899194"><ele>-2.0</ele><time>2022-11-04T16:34:45.0000000+00:00</time></trkpt><trkpt lat="39.45371278" lon="-0.34899504"><ele>-1.8</ele><time>2022-11-04T16:34:46.0000000+00:00</time></trkpt><trkpt lat="39.45372392" lon="-0.34899412"><ele>-1.6</ele><time>2022-11-04T16:34:47.0000000+00:00</time></trkpt><trkpt lat="39.4537334" lon="-0.34899169"><ele>-1.4</ele><time>2022-11-04T16:34:48.0000000+00:00</time></trkpt><trkpt lat="39.45374211" lon="-0.34898724"><ele>-1.2</ele><time>2022-11-04T16:34:49.0000000+00:00</time></trkpt><trkpt lat="39.45374991" lon="-0.34898154"><ele>-1.2</ele><time>2022-11-04T16:34:50.0000000+00:00</time></trkpt><trkpt lat="39.45375485" lon="-0.3489709"><ele>-1.0</ele><time>2022-11-04T16:34:51.0000000+00:00</time></trkpt><trkpt lat="39.45376265" lon="-0.34895992"><ele>-1.0</ele><time>2022-11-04T16:34:52.0000000+00:00</time></trkpt><trkpt lat="39.45377212" lon="-0.34895129"><ele>-1.2</ele><time>2022-11-04T16:34:53.0000000+00:00</time></trkpt><trkpt lat="39.45378025" lon="-0.34894802"><ele>-1.2</ele><time>2022-11-04T16:34:54.0000000+00:00</time></trkpt><trkpt lat="39.45377824" lon="-0.34893896"><ele>-1.2</ele><time>2022-11-04T16:34:55.0000000+00:00</time></trkpt><trkpt lat="39.45377916" lon="-0.34892505"><ele>-1.0</ele><time>2022-11-04T16:34:56.0000000+00:00</time></trkpt><trkpt lat="39.45377589" lon="-0.34891097"><ele>-1.0</ele><time>2022-11-04T16:34:57.0000000+00:00</time></trkpt><trkpt lat="39.45377648" lon="-0.34889949"><ele>-1.0</ele><time>2022-11-04T16:34:58.0000000+00:00</time></trkpt><trkpt lat="39.45377438" lon="-0.34889722"><ele>-0.8</ele><time>2022-11-04T16:34:59.0000000+00:00</time></trkpt><trkpt lat="39.45377254" lon="-0.34889546"><ele>-0.8</ele><time>2022-11-04T16:35:00.0000000+00:00</time></trkpt><trkpt lat="39.45377036" lon="-0.34889462"><ele>-0.8</ele><time>2022-11-04T16:35:01.0000000+00:00</time></trkpt><trkpt lat="39.45376709" lon="-0.34889412"><ele>-0.6</ele><time>2022-11-04T16:35:02.0000000+00:00</time></trkpt><trkpt lat="39.45376542" lon="-0.34889387"><ele>-0.6</ele><time>2022-11-04T16:35:03.0000000+00:00</time></trkpt><trkpt lat="39.45376625" lon="-0.34889446"><ele>-0.4</ele><time>2022-11-04T16:35:04.0000000+00:00</time></trkpt><trkpt lat="39.45376692" lon="-0.34889504"><ele>-0.4</ele><time>2022-11-04T16:35:05.0000000+00:00</time></trkpt><trkpt lat="39.45376718" lon="-0.34889546"><ele>-0.4</ele><time>2022-11-04T16:35:06.0000000+00:00</time></trkpt><trkpt lat="39.45376768" lon="-0.34889597"><ele>-0.4</ele><time>2022-11-04T16:35:07.0000000+00:00</time></trkpt><trkpt lat="39.4537686" lon="-0.34889638"><ele>-0.4</ele><time>2022-11-04T16:35:08.0000000+00:00</time></trkpt><trkpt lat="39.45376961" lon="-0.34889672"><ele>-0.4</ele><time>2022-11-04T16:35:09.0000000+00:00</time></trkpt><trkpt lat="39.45377011" lon="-0.34889647"><ele>-0.4</ele><time>2022-11-04T16:35:10.0000000+00:00</time></trkpt><trkpt lat="39.45377011" lon="-0.34889647"><ele>-0.4</ele><time>2022-11-04T16:35:11.0000000+00:00</time></trkpt><trkpt lat="39.45377011" lon="-0.34889647"><ele>-0.4</ele><time>2022-11-04T16:35:12.0000000+00:00</time></trkpt><trkpt lat="39.45377011" lon="-0.34889647"><ele>-0.4</ele><time>2022-11-04T16:35:13.0000000+00:00</time></trkpt><trkpt lat="39.45377011" lon="-0.34889647"><ele>-0.4</ele><time>2022-11-04T16:35:14.0000000+00:00</time></trkpt><trkpt lat="39.45377011" lon="-0.34889647"><ele>-0.4</ele><time>2022-11-04T16:35:15.0000000+00:00</time></trkpt><trkpt lat="39.45377011" lon="-0.34889647"><ele>-0.4</ele><time>2022-11-04T16:35:16.0000000+00:00</time></trkpt><trkpt lat="39.45377011" lon="-0.34889647"><ele>-0.4</ele><time>2022-11-04T16:35:17.0000000+00:00</time></trkpt><trkpt lat="39.45377011" lon="-0.34889647"><ele>-0.4</ele><time>2022-11-04T16:35:18.0000000+00:00</time></trkpt><trkpt lat="39.45377011" lon="-0.34889647"><ele>-0.2</ele><time>2022-11-04T16:35:19.0000000+00:00</time></trkpt><trkpt lat="39.45377011" lon="-0.34889647"><ele>-0.2</ele><time>2022-11-04T16:35:20.0000000+00:00</time></trkpt><trkpt lat="39.45377011" lon="-0.34889638"><ele>-0.2</ele><time>2022-11-04T16:35:21.0000000+00:00</time></trkpt><trkpt lat="39.45377011" lon="-0.34889597"><ele>-0.2</ele><time>2022-11-04T16:35:22.0000000+00:00</time></trkpt><trkpt lat="39.45377011" lon="-0.34889555"><ele>-0.2</ele><time>2022-11-04T16:35:23.0000000+00:00</time></trkpt><trkpt lat="39.45377011" lon="-0.34889504"><ele>-0.4</ele><time>2022-11-04T16:35:24.0000000+00:00</time></trkpt><trkpt lat="39.45377011" lon="-0.34889446"><ele>-0.6</ele><time>2022-11-04T16:35:25.0000000+00:00</time></trkpt><trkpt lat="39.45377179" lon="-0.34889412"><ele>-0.6</ele><time>2022-11-04T16:35:26.0000000+00:00</time></trkpt><trkpt lat="39.45377254" lon="-0.34889387"><ele>-0.6</ele><time>2022-11-04T16:35:27.0000000+00:00</time></trkpt><trkpt lat="39.45377564" lon="-0.34889387"><ele>-0.6</ele><time>2022-11-04T16:35:28.0000000+00:00</time></trkpt><trkpt lat="39.45378243" lon="-0.34888742"><ele>-0.8</ele><time>2022-11-04T16:35:29.0000000+00:00</time></trkpt><trkpt lat="39.45379031" lon="-0.34888289"><ele>-0.8</ele><time>2022-11-04T16:35:30.0000000+00:00</time></trkpt><trkpt lat="39.45379173" lon="-0.34887761"><ele>-0.8</ele><time>2022-11-04T16:35:31.0000000+00:00</time></trkpt><trkpt lat="39.45379207" lon="-0.34887459"><ele>-0.6</ele><time>2022-11-04T16:35:32.0000000+00:00</time></trkpt><trkpt lat="39.45379266" lon="-0.34886462"><ele>-0.6</ele><time>2022-11-04T16:35:33.0000000+00:00</time></trkpt><trkpt lat="39.45379274" lon="-0.34886034"><ele>-0.6</ele><time>2022-11-04T16:35:34.0000000+00:00</time></trkpt><trkpt lat="39.45379316" lon="-0.34885992"><ele>-0.6</ele><time>2022-11-04T16:35:35.0000000+00:00</time></trkpt><trkpt lat="39.45379324" lon="-0.34886185"><ele>-0.6</ele><time>2022-11-04T16:35:36.0000000+00:00</time></trkpt><trkpt lat="39.4537852" lon="-0.34887384"><ele>-0.6</ele><time>2022-11-04T16:35:37.0000000+00:00</time></trkpt><trkpt lat="39.45378075" lon="-0.34888574"><ele>-0.6</ele><time>2022-11-04T16:35:38.0000000+00:00</time></trkpt><trkpt lat="39.45377556" lon="-0.34889462"><ele>-0.6</ele><time>2022-11-04T16:35:39.0000000+00:00</time></trkpt><trkpt lat="39.45376902" lon="-0.34890611"><ele>-0.6</ele><time>2022-11-04T16:35:40.0000000+00:00</time></trkpt><trkpt lat="39.45376324" lon="-0.34891826"><ele>-0.6</ele><time>2022-11-04T16:35:41.0000000+00:00</time></trkpt><trkpt lat="39.45375955" lon="-0.34893192"><ele>-0.4</ele><time>2022-11-04T16:35:42.0000000+00:00</time></trkpt><trkpt lat="39.45375477" lon="-0.34894332"><ele>-0.4</ele><time>2022-11-04T16:35:43.0000000+00:00</time></trkpt><trkpt lat="39.45375091" lon="-0.34895196"><ele>-0.4</ele><time>2022-11-04T16:35:44.0000000+00:00</time></trkpt><trkpt lat="39.45374563" lon="-0.34895816"><ele>-0.4</ele><time>2022-11-04T16:35:45.0000000+00:00</time></trkpt><trkpt lat="39.45374287" lon="-0.34896755"><ele>-0.4</ele><time>2022-11-04T16:35:46.0000000+00:00</time></trkpt><trkpt lat="39.45373658" lon="-0.34896847"><ele>-0.6</ele><time>2022-11-04T16:35:47.0000000+00:00</time></trkpt><trkpt lat="39.45372753" lon="-0.34897006"><ele>-0.6</ele><time>2022-11-04T16:35:48.0000000+00:00</time></trkpt><trkpt lat="39.45371345" lon="-0.34897098"><ele>-0.6</ele><time>2022-11-04T16:35:49.0000000+00:00</time></trkpt><trkpt lat="39.45370322" lon="-0.34897082"><ele>-0.6</ele><time>2022-11-04T16:35:50.0000000+00:00</time></trkpt><trkpt lat="39.45368771" lon="-0.3489735"><ele>-0.6</ele><time>2022-11-04T16:35:51.0000000+00:00</time></trkpt><trkpt lat="39.45367414" lon="-0.34897777"><ele>-0.6</ele><time>2022-11-04T16:35:52.0000000+00:00</time></trkpt><trkpt lat="39.4536614" lon="-0.34899311"><ele>-0.6</ele><time>2022-11-04T16:35:53.0000000+00:00</time></trkpt><trkpt lat="39.4536505" lon="-0.34900476"><ele>-0.6</ele><time>2022-11-04T16:35:54.0000000+00:00</time></trkpt><trkpt lat="39.45363684" lon="-0.34901071"><ele>-0.6</ele><time>2022-11-04T16:35:55.0000000+00:00</time></trkpt><trkpt lat="39.45362351" lon="-0.34901113"><ele>-0.4</ele><time>2022-11-04T16:35:56.0000000+00:00</time></trkpt><trkpt lat="39.45361337" lon="-0.34901834"><ele>-0.4</ele><time>2022-11-04T16:35:57.0000000+00:00</time></trkpt><trkpt lat="39.45359962" lon="-0.3490201"><ele>-0.4</ele><time>2022-11-04T16:35:58.0000000+00:00</time></trkpt><trkpt lat="39.45359275" lon="-0.34902547"><ele>-0.4</ele><time>2022-11-04T16:35:59.0000000+00:00</time></trkpt><trkpt lat="39.45358202" lon="-0.3490305"><ele>-0.4</ele><time>2022-11-04T16:36:00.0000000+00:00</time></trkpt><trkpt lat="39.45357808" lon="-0.34904106"><ele>-0.4</ele><time>2022-11-04T16:36:01.0000000+00:00</time></trkpt><trkpt lat="39.45357146" lon="-0.3490538"><ele>-0.4</ele><time>2022-11-04T16:36:02.0000000+00:00</time></trkpt><trkpt lat="39.45356257" lon="-0.3490652"><ele>-0.4</ele><time>2022-11-04T16:36:03.0000000+00:00</time></trkpt><trkpt lat="39.45355629" lon="-0.34907492"><ele>-0.4</ele><time>2022-11-04T16:36:04.0000000+00:00</time></trkpt><trkpt lat="39.45355084" lon="-0.34908121"><ele>-0.4</ele><time>2022-11-04T16:36:05.0000000+00:00</time></trkpt><trkpt lat="39.45353977" lon="-0.34909369"><ele>-0.4</ele><time>2022-11-04T16:36:06.0000000+00:00</time></trkpt><trkpt lat="39.45352745" lon="-0.349104"><ele>-0.4</ele><time>2022-11-04T16:36:07.0000000+00:00</time></trkpt><trkpt lat="39.45351488" lon="-0.34911633"><ele>-0.4</ele><time>2022-11-04T16:36:08.0000000+00:00</time></trkpt><trkpt lat="39.45350482" lon="-0.34912471"><ele>-0.6</ele><time>2022-11-04T16:36:09.0000000+00:00</time></trkpt><trkpt lat="39.45348965" lon="-0.34913653"><ele>-0.6</ele><time>2022-11-04T16:36:10.0000000+00:00</time></trkpt><trkpt lat="39.4534744" lon="-0.34914441"><ele>-0.6</ele><time>2022-11-04T16:36:11.0000000+00:00</time></trkpt><trkpt lat="39.45345872" lon="-0.34914432"><ele>-0.6</ele><time>2022-11-04T16:36:12.0000000+00:00</time></trkpt><trkpt lat="39.4534412" lon="-0.3491558"><ele>-0.6</ele><time>2022-11-04T16:36:13.0000000+00:00</time></trkpt><trkpt lat="39.45341991" lon="-0.34916536"><ele>-0.6</ele><time>2022-11-04T16:36:14.0000000+00:00</time></trkpt><trkpt lat="39.45339955" lon="-0.34917433"><ele>-0.6</ele><time>2022-11-04T16:36:15.0000000+00:00</time></trkpt><trkpt lat="39.45339242" lon="-0.34918053"><ele>-0.6</ele><time>2022-11-04T16:36:16.0000000+00:00</time></trkpt><trkpt lat="39.45339955" lon="-0.3491807"><ele>-0.6</ele><time>2022-11-04T16:36:17.0000000+00:00</time></trkpt><trkpt lat="39.45339711" lon="-0.34918405"><ele>-0.8</ele><time>2022-11-04T16:36:18.0000000+00:00</time></trkpt><trkpt lat="39.45339284" lon="-0.34918699"><ele>-0.8</ele><time>2022-11-04T16:36:19.0000000+00:00</time></trkpt><trkpt lat="39.45339175" lon="-0.34918908"><ele>-0.8</ele><time>2022-11-04T16:36:20.0000000+00:00</time></trkpt><trkpt lat="39.45339041" lon="-0.34919025"><ele>-0.8</ele><time>2022-11-04T16:36:21.0000000+00:00</time></trkpt><trkpt lat="39.45336828" lon="-0.34919352"><ele>-0.8</ele><time>2022-11-04T16:36:22.0000000+00:00</time></trkpt><trkpt lat="39.45336719" lon="-0.34919419"><ele>-0.8</ele><time>2022-11-04T16:36:23.0000000+00:00</time></trkpt><trkpt lat="39.45336593" lon="-0.34919361"><ele>-1.0</ele><time>2022-11-04T16:36:24.0000000+00:00</time></trkpt><trkpt lat="39.45336426" lon="-0.34919185"><ele>-1.0</ele><time>2022-11-04T16:36:25.0000000+00:00</time></trkpt><trkpt lat="39.4533723" lon="-0.34919109"><ele>-1.0</ele><time>2022-11-04T16:36:26.0000000+00:00</time></trkpt><trkpt lat="39.45336996" lon="-0.34919361"><ele>-1.0</ele><time>2022-11-04T16:36:27.0000000+00:00</time></trkpt><trkpt lat="39.45336149" lon="-0.34919931"><ele>-1.0</ele><time>2022-11-04T16:36:28.0000000+00:00</time></trkpt><trkpt lat="39.4533516" lon="-0.34920459"><ele>-1.0</ele><time>2022-11-04T16:36:29.0000000+00:00</time></trkpt><trkpt lat="39.45334313" lon="-0.34920945"><ele>-1.0</ele><time>2022-11-04T16:36:30.0000000+00:00</time></trkpt><trkpt lat="39.453334" lon="-0.34921045"><ele>-1.0</ele><time>2022-11-04T16:36:31.0000000+00:00</time></trkpt><trkpt lat="39.45332218" lon="-0.34921188"><ele>-1.0</ele><time>2022-11-04T16:36:32.0000000+00:00</time></trkpt><trkpt lat="39.45331547" lon="-0.34921322"><ele>-1.0</ele><time>2022-11-04T16:36:33.0000000+00:00</time></trkpt><trkpt lat="39.45331028" lon="-0.34921339"><ele>-1.0</ele><time>2022-11-04T16:36:34.0000000+00:00</time></trkpt><trkpt lat="39.45330634" lon="-0.3492123"><ele>-1.0</ele><time>2022-11-04T16:36:35.0000000+00:00</time></trkpt><trkpt lat="39.45330902" lon="-0.34920895"><ele>-1.0</ele><time>2022-11-04T16:36:36.0000000+00:00</time></trkpt><trkpt lat="39.45330785" lon="-0.34920484"><ele>-0.8</ele><time>2022-11-04T16:36:37.0000000+00:00</time></trkpt><trkpt lat="39.4532998" lon="-0.34919805"><ele>-0.8</ele><time>2022-11-04T16:36:38.0000000+00:00</time></trkpt><trkpt lat="39.45329712" lon="-0.34919738"><ele>-0.8</ele><time>2022-11-04T16:36:39.0000000+00:00</time></trkpt><trkpt lat="39.45329628" lon="-0.34919914"><ele>-0.8</ele><time>2022-11-04T16:36:40.0000000+00:00</time></trkpt><trkpt lat="39.45329963" lon="-0.34920484"><ele>-0.8</ele><time>2022-11-04T16:36:41.0000000+00:00</time></trkpt><trkpt lat="39.45330902" lon="-0.34921515"><ele>-1.0</ele><time>2022-11-04T16:36:42.0000000+00:00</time></trkpt><trkpt lat="39.45331832" lon="-0.34921758"><ele>-1.0</ele><time>2022-11-04T16:36:43.0000000+00:00</time></trkpt><trkpt lat="39.45332411" lon="-0.34922353"><ele>-1.0</ele><time>2022-11-04T16:36:44.0000000+00:00</time></trkpt><trkpt lat="39.45332847" lon="-0.34922621"><ele>-1.0</ele><time>2022-11-04T16:36:45.0000000+00:00</time></trkpt><trkpt lat="39.45333006" lon="-0.34922512"><ele>-1.0</ele><time>2022-11-04T16:36:46.0000000+00:00</time></trkpt><trkpt lat="39.45333182" lon="-0.34922806"><ele>-1.0</ele><time>2022-11-04T16:36:47.0000000+00:00</time></trkpt><trkpt lat="39.45332847" lon="-0.34922604"><ele>-1.0</ele><time>2022-11-04T16:36:48.0000000+00:00</time></trkpt><trkpt lat="39.45332352" lon="-0.34922898"><ele>-1.0</ele><time>2022-11-04T16:36:49.0000000+00:00</time></trkpt><trkpt lat="39.45331648" lon="-0.34923317"><ele>-1.0</ele><time>2022-11-04T16:36:50.0000000+00:00</time></trkpt><trkpt lat="39.45330701" lon="-0.34923853"><ele>-1.0</ele><time>2022-11-04T16:36:51.0000000+00:00</time></trkpt><trkpt lat="39.45330072" lon="-0.34924465"><ele>-1.0</ele><time>2022-11-04T16:36:52.0000000+00:00</time></trkpt><trkpt lat="39.45329318" lon="-0.34924884"><ele>-1.0</ele><time>2022-11-04T16:36:53.0000000+00:00</time></trkpt><trkpt lat="39.45328865" lon="-0.34925588"><ele>-1.0</ele><time>2022-11-04T16:36:54.0000000+00:00</time></trkpt><trkpt lat="39.45328002" lon="-0.34926117"><ele>-1.0</ele><time>2022-11-04T16:36:55.0000000+00:00</time></trkpt><trkpt lat="39.4532744" lon="-0.34926217"><ele>-1.0</ele><time>2022-11-04T16:36:56.0000000+00:00</time></trkpt><trkpt lat="39.45326979" lon="-0.34926334"><ele>-1.0</ele><time>2022-11-04T16:36:57.0000000+00:00</time></trkpt><trkpt lat="39.45326066" lon="-0.34926569"><ele>-1.2</ele><time>2022-11-04T16:36:58.0000000+00:00</time></trkpt><trkpt lat="39.45325035" lon="-0.3492672"><ele>-1.2</ele><time>2022-11-04T16:36:59.0000000+00:00</time></trkpt><trkpt lat="39.45324364" lon="-0.34926904"><ele>-1.6</ele><time>2022-11-04T16:37:00.0000000+00:00</time></trkpt><trkpt lat="39.45323643" lon="-0.34926938"><ele>-1.8</ele><time>2022-11-04T16:37:01.0000000+00:00</time></trkpt><trkpt lat="39.45322478" lon="-0.34927156"><ele>-1.8</ele><time>2022-11-04T16:37:02.0000000+00:00</time></trkpt><trkpt lat="39.45321439" lon="-0.34927005"><ele>-1.8</ele><time>2022-11-04T16:37:03.0000000+00:00</time></trkpt><trkpt lat="39.45320441" lon="-0.34926611"><ele>-2.0</ele><time>2022-11-04T16:37:04.0000000+00:00</time></trkpt><trkpt lat="39.45319226" lon="-0.3492636"><ele>-2.0</ele><time>2022-11-04T16:37:05.0000000+00:00</time></trkpt><trkpt lat="39.45318354" lon="-0.34925966"><ele>-2.2</ele><time>2022-11-04T16:37:06.0000000+00:00</time></trkpt><trkpt lat="39.45317122" lon="-0.34925781"><ele>-2.6</ele><time>2022-11-04T16:37:07.0000000+00:00</time></trkpt><trkpt lat="39.45316242" lon="-0.34925991"><ele>-2.6</ele><time>2022-11-04T16:37:08.0000000+00:00</time></trkpt><trkpt lat="39.45315672" lon="-0.34925815"><ele>-2.6</ele><time>2022-11-04T16:37:09.0000000+00:00</time></trkpt><trkpt lat="39.45315496" lon="-0.3492563"><ele>-2.8</ele><time>2022-11-04T16:37:10.0000000+00:00</time></trkpt><trkpt lat="39.45315354" lon="-0.34925505"><ele>-2.8</ele><time>2022-11-04T16:37:11.0000000+00:00</time></trkpt><trkpt lat="39.45314759" lon="-0.34926745"><ele>-2.8</ele><time>2022-11-04T16:37:12.0000000+00:00</time></trkpt><trkpt lat="39.45314859" lon="-0.34927114"><ele>-3.2</ele><time>2022-11-04T16:37:13.0000000+00:00</time></trkpt><trkpt lat="39.45314926" lon="-0.34927759"><ele>-3.4</ele><time>2022-11-04T16:37:14.0000000+00:00</time></trkpt><trkpt lat="39.45315236" lon="-0.34928137"><ele>-3.6</ele><time>2022-11-04T16:37:15.0000000+00:00</time></trkpt><trkpt lat="39.45314624" lon="-0.34929151"><ele>-3.6</ele><time>2022-11-04T16:37:16.0000000+00:00</time></trkpt><trkpt lat="39.45314943" lon="-0.34929561"><ele>-3.8</ele><time>2022-11-04T16:37:17.0000000+00:00</time></trkpt><trkpt lat="39.45314658" lon="-0.34929536"><ele>-3.8</ele><time>2022-11-04T16:37:18.0000000+00:00</time></trkpt><trkpt lat="39.45315538" lon="-0.34929855"><ele>-3.8</ele><time>2022-11-04T16:37:19.0000000+00:00</time></trkpt><trkpt lat="39.45304742" lon="-0.34913862"><ele>-5.2</ele><time>2022-11-04T16:45:57.0000000+00:00</time></trkpt><trkpt lat="39.45308908" lon="-0.34918606"><ele>-5.2</ele><time>2022-11-04T16:45:58.0000000+00:00</time></trkpt><trkpt lat="39.45310794" lon="-0.34916125"><ele>-5.0</ele><time>2022-11-04T16:45:59.0000000+00:00</time></trkpt><trkpt lat="39.4531149" lon="-0.34913921"><ele>-5.0</ele><time>2022-11-04T16:46:00.0000000+00:00</time></trkpt><trkpt lat="39.45314105" lon="-0.34914885"><ele>-5.0</ele><time>2022-11-04T16:46:01.0000000+00:00</time></trkpt><trkpt lat="39.45315429" lon="-0.34917357"><ele>-5.0</ele><time>2022-11-04T16:46:02.0000000+00:00</time></trkpt><trkpt lat="39.45315421" lon="-0.34918388"><ele>-5.0</ele><time>2022-11-04T16:46:03.0000000+00:00</time></trkpt><trkpt lat="39.45316359" lon="-0.34918497"><ele>-5.0</ele><time>2022-11-04T16:46:04.0000000+00:00</time></trkpt><trkpt lat="39.4531791" lon="-0.34919134"><ele>-5.0</ele><time>2022-11-04T16:46:05.0000000+00:00</time></trkpt><trkpt lat="39.45319478" lon="-0.34920325"><ele>-4.8</ele><time>2022-11-04T16:46:06.0000000+00:00</time></trkpt><trkpt lat="39.4532107" lon="-0.34921448"><ele>-4.6</ele><time>2022-11-04T16:46:07.0000000+00:00</time></trkpt><trkpt lat="39.45321766" lon="-0.34923049"><ele>-4.4</ele><time>2022-11-04T16:46:08.0000000+00:00</time></trkpt><trkpt lat="39.45322378" lon="-0.34923912"><ele>-4.4</ele><time>2022-11-04T16:46:09.0000000+00:00</time></trkpt><trkpt lat="39.45322914" lon="-0.34924918"><ele>-4.4</ele><time>2022-11-04T16:46:10.0000000+00:00</time></trkpt><trkpt lat="39.45323484" lon="-0.34925069"><ele>-4.2</ele><time>2022-11-04T16:46:11.0000000+00:00</time></trkpt><trkpt lat="39.45324096" lon="-0.3492501"><ele>-4.2</ele><time>2022-11-04T16:46:12.0000000+00:00</time></trkpt><trkpt lat="39.4532511" lon="-0.34924599"><ele>-4.2</ele><time>2022-11-04T16:46:13.0000000+00:00</time></trkpt><trkpt lat="39.45326124" lon="-0.34924826"><ele>-4.2</ele><time>2022-11-04T16:46:14.0000000+00:00</time></trkpt><trkpt lat="39.45327197" lon="-0.34925044"><ele>-4.0</ele><time>2022-11-04T16:46:15.0000000+00:00</time></trkpt><trkpt lat="39.45328647" lon="-0.34925647"><ele>-3.6</ele><time>2022-11-04T16:46:16.0000000+00:00</time></trkpt><trkpt lat="39.45329377" lon="-0.34925731"><ele>-3.4</ele><time>2022-11-04T16:46:17.0000000+00:00</time></trkpt><trkpt lat="39.45331036" lon="-0.34925798"><ele>-3.4</ele><time>2022-11-04T16:46:18.0000000+00:00</time></trkpt><trkpt lat="39.45332922" lon="-0.34926427"><ele>-3.4</ele><time>2022-11-04T16:46:19.0000000+00:00</time></trkpt><trkpt lat="39.45334582" lon="-0.34926192"><ele>-3.4</ele><time>2022-11-04T16:46:20.0000000+00:00</time></trkpt><trkpt lat="39.45335898" lon="-0.3492553"><ele>-3.2</ele><time>2022-11-04T16:46:21.0000000+00:00</time></trkpt><trkpt lat="39.45336434" lon="-0.34924675"><ele>-3.2</ele><time>2022-11-04T16:46:22.0000000+00:00</time></trkpt><trkpt lat="39.45336476" lon="-0.34923359"><ele>-3.2</ele><time>2022-11-04T16:46:23.0000000+00:00</time></trkpt><trkpt lat="39.45336585" lon="-0.34922261"><ele>-3.2</ele><time>2022-11-04T16:46:24.0000000+00:00</time></trkpt><trkpt lat="39.45337105" lon="-0.349218"><ele>-3.2</ele><time>2022-11-04T16:46:25.0000000+00:00</time></trkpt><trkpt lat="39.45338043" lon="-0.34921431"><ele>-3.0</ele><time>2022-11-04T16:46:26.0000000+00:00</time></trkpt><trkpt lat="39.45338882" lon="-0.34921054"><ele>-3.0</ele><time>2022-11-04T16:46:27.0000000+00:00</time></trkpt><trkpt lat="39.45339477" lon="-0.34920492"><ele>-3.0</ele><time>2022-11-04T16:46:28.0000000+00:00</time></trkpt><trkpt lat="39.45339787" lon="-0.34919771"><ele>-2.8</ele><time>2022-11-04T16:46:29.0000000+00:00</time></trkpt><trkpt lat="39.45339611" lon="-0.34918514"><ele>-2.8</ele><time>2022-11-04T16:46:30.0000000+00:00</time></trkpt><trkpt lat="39.45339284" lon="-0.34916586"><ele>-2.8</ele><time>2022-11-04T16:46:31.0000000+00:00</time></trkpt><trkpt lat="39.45339435" lon="-0.34914575"><ele>-2.8</ele><time>2022-11-04T16:46:32.0000000+00:00</time></trkpt><trkpt lat="39.45339577" lon="-0.34913275"><ele>-2.8</ele><time>2022-11-04T16:46:33.0000000+00:00</time></trkpt><trkpt lat="39.45339351" lon="-0.34911322"><ele>-2.8</ele><time>2022-11-04T16:46:34.0000000+00:00</time></trkpt><trkpt lat="39.45339636" lon="-0.3490978"><ele>-2.8</ele><time>2022-11-04T16:46:35.0000000+00:00</time></trkpt><trkpt lat="39.45340055" lon="-0.34908741"><ele>-2.8</ele><time>2022-11-04T16:46:36.0000000+00:00</time></trkpt><trkpt lat="39.45340432" lon="-0.34907743"><ele>-2.8</ele><time>2022-11-04T16:46:37.0000000+00:00</time></trkpt><trkpt lat="39.45341027" lon="-0.34906872"><ele>-2.8</ele><time>2022-11-04T16:46:38.0000000+00:00</time></trkpt><trkpt lat="39.45341824" lon="-0.34906126"><ele>-2.8</ele><time>2022-11-04T16:46:39.0000000+00:00</time></trkpt><trkpt lat="39.45342871" lon="-0.34905371"><ele>-2.8</ele><time>2022-11-04T16:46:40.0000000+00:00</time></trkpt><trkpt lat="39.45343835" lon="-0.34905153"><ele>-2.8</ele><time>2022-11-04T16:46:41.0000000+00:00</time></trkpt><trkpt lat="39.45343944" lon="-0.34904189"><ele>-2.8</ele><time>2022-11-04T16:46:42.0000000+00:00</time></trkpt><trkpt lat="39.45342947" lon="-0.34903469"><ele>-2.6</ele><time>2022-11-04T16:46:43.0000000+00:00</time></trkpt><trkpt lat="39.45342486" lon="-0.34901868"><ele>-2.8</ele><time>2022-11-04T16:46:44.0000000+00:00</time></trkpt><trkpt lat="39.45342042" lon="-0.34900661"><ele>-2.8</ele><time>2022-11-04T16:46:45.0000000+00:00</time></trkpt><trkpt lat="39.45341212" lon="-0.34900015"><ele>-2.8</ele><time>2022-11-04T16:46:46.0000000+00:00</time></trkpt><trkpt lat="39.45340164" lon="-0.34898884"><ele>-2.8</ele><time>2022-11-04T16:46:47.0000000+00:00</time></trkpt><trkpt lat="39.45339276" lon="-0.34897794"><ele>-2.8</ele><time>2022-11-04T16:46:48.0000000+00:00</time></trkpt><trkpt lat="39.45338605" lon="-0.34897023"><ele>-2.8</ele><time>2022-11-04T16:46:49.0000000+00:00</time></trkpt><trkpt lat="39.45336954" lon="-0.34895632"><ele>-2.8</ele><time>2022-11-04T16:46:50.0000000+00:00</time></trkpt><trkpt lat="39.45335202" lon="-0.34894064"><ele>-2.8</ele><time>2022-11-04T16:46:51.0000000+00:00</time></trkpt><trkpt lat="39.45333676" lon="-0.34893016"><ele>-2.8</ele><time>2022-11-04T16:46:52.0000000+00:00</time></trkpt><trkpt lat="39.45332201" lon="-0.3489279"><ele>-2.8</ele><time>2022-11-04T16:46:53.0000000+00:00</time></trkpt><trkpt lat="39.45331589" lon="-0.3489155"><ele>-3.0</ele><time>2022-11-04T16:46:54.0000000+00:00</time></trkpt><trkpt lat="39.453306" lon="-0.34890619"><ele>-3.0</ele><time>2022-11-04T16:46:55.0000000+00:00</time></trkpt><trkpt lat="39.45329234" lon="-0.34890183"><ele>-3.0</ele><time>2022-11-04T16:46:56.0000000+00:00</time></trkpt><trkpt lat="39.45327834" lon="-0.3488906"><ele>-3.0</ele><time>2022-11-04T16:46:57.0000000+00:00</time></trkpt><trkpt lat="39.45326636" lon="-0.34888079"><ele>-3.0</ele><time>2022-11-04T16:46:58.0000000+00:00</time></trkpt><trkpt lat="39.45325663" lon="-0.3488756"><ele>-3.0</ele><time>2022-11-04T16:46:59.0000000+00:00</time></trkpt><trkpt lat="39.45324808" lon="-0.34887325"><ele>-3.0</ele><time>2022-11-04T16:47:00.0000000+00:00</time></trkpt><trkpt lat="39.4532392" lon="-0.34887677"><ele>-3.0</ele><time>2022-11-04T16:47:01.0000000+00:00</time></trkpt><trkpt lat="39.45322839" lon="-0.3488782"><ele>-3.0</ele><time>2022-11-04T16:47:02.0000000+00:00</time></trkpt><trkpt lat="39.45321766" lon="-0.34888507"><ele>-3.0</ele><time>2022-11-04T16:47:03.0000000+00:00</time></trkpt><trkpt lat="39.45320768" lon="-0.34889446"><ele>-3.0</ele><time>2022-11-04T16:47:04.0000000+00:00</time></trkpt><trkpt lat="39.4531941" lon="-0.34889823"><ele>-3.0</ele><time>2022-11-04T16:47:05.0000000+00:00</time></trkpt><trkpt lat="39.45317131" lon="-0.34889932"><ele>-2.8</ele><time>2022-11-04T16:47:06.0000000+00:00</time></trkpt><trkpt lat="39.45315152" lon="-0.34888742"><ele>-2.8</ele><time>2022-11-04T16:47:07.0000000+00:00</time></trkpt><trkpt lat="39.45314096" lon="-0.34888482"><ele>-2.8</ele><time>2022-11-04T16:47:08.0000000+00:00</time></trkpt><trkpt lat="39.45313191" lon="-0.34887996"><ele>-2.8</ele><time>2022-11-04T16:47:09.0000000+00:00</time></trkpt><trkpt lat="39.45312026" lon="-0.3488673"><ele>-3.0</ele><time>2022-11-04T16:47:10.0000000+00:00</time></trkpt><trkpt lat="39.45311163" lon="-0.34885037"><ele>-3.0</ele><time>2022-11-04T16:47:11.0000000+00:00</time></trkpt><trkpt lat="39.45310643" lon="-0.34883084"><ele>-3.0</ele><time>2022-11-04T16:47:12.0000000+00:00</time></trkpt><trkpt lat="39.45309847" lon="-0.34881885"><ele>-3.0</ele><time>2022-11-04T16:47:13.0000000+00:00</time></trkpt><trkpt lat="39.45308983" lon="-0.34880259"><ele>-3.0</ele><time>2022-11-04T16:47:14.0000000+00:00</time></trkpt><trkpt lat="39.45308698" lon="-0.34878859"><ele>-3.0</ele><time>2022-11-04T16:47:15.0000000+00:00</time></trkpt><trkpt lat="39.45308665" lon="-0.34877082"><ele>-3.0</ele><time>2022-11-04T16:47:16.0000000+00:00</time></trkpt><trkpt lat="39.45308095" lon="-0.34875314"><ele>-3.0</ele><time>2022-11-04T16:47:17.0000000+00:00</time></trkpt><trkpt lat="39.45307667" lon="-0.34873688"><ele>-3.2</ele><time>2022-11-04T16:47:18.0000000+00:00</time></trkpt><trkpt lat="39.45306988" lon="-0.34872405"><ele>-3.2</ele><time>2022-11-04T16:47:19.0000000+00:00</time></trkpt><trkpt lat="39.45306226" lon="-0.3487114"><ele>-3.0</ele><time>2022-11-04T16:47:20.0000000+00:00</time></trkpt><trkpt lat="39.45305253" lon="-0.3487062"><ele>-3.0</ele><time>2022-11-04T16:47:21.0000000+00:00</time></trkpt><trkpt lat="39.4530408" lon="-0.3486953"><ele>-3.0</ele><time>2022-11-04T16:47:22.0000000+00:00</time></trkpt><trkpt lat="39.45303736" lon="-0.34867778"><ele>-3.0</ele><time>2022-11-04T16:47:23.0000000+00:00</time></trkpt><trkpt lat="39.45303233" lon="-0.34866555"><ele>-3.0</ele><time>2022-11-04T16:47:24.0000000+00:00</time></trkpt><trkpt lat="39.45302806" lon="-0.34865348"><ele>-3.0</ele><time>2022-11-04T16:47:25.0000000+00:00</time></trkpt><trkpt lat="39.45302622" lon="-0.3486352"><ele>-3.0</ele><time>2022-11-04T16:47:26.0000000+00:00</time></trkpt><trkpt lat="39.45302387" lon="-0.34861802"><ele>-3.0</ele><time>2022-11-04T16:47:27.0000000+00:00</time></trkpt><trkpt lat="39.45301984" lon="-0.34860151"><ele>-2.8</ele><time>2022-11-04T16:47:28.0000000+00:00</time></trkpt><trkpt lat="39.45301306" lon="-0.34858667"><ele>-2.8</ele><time>2022-11-04T16:47:29.0000000+00:00</time></trkpt><trkpt lat="39.45300677" lon="-0.34857402"><ele>-2.8</ele><time>2022-11-04T16:47:30.0000000+00:00</time></trkpt><trkpt lat="39.45300057" lon="-0.34856094"><ele>-3.0</ele><time>2022-11-04T16:47:31.0000000+00:00</time></trkpt><trkpt lat="39.45299629" lon="-0.34854502"><ele>-3.0</ele><time>2022-11-04T16:47:32.0000000+00:00</time></trkpt><trkpt lat="39.45299436" lon="-0.34852825"><ele>-3.2</ele><time>2022-11-04T16:47:33.0000000+00:00</time></trkpt><trkpt lat="39.45298825" lon="-0.34851275"><ele>-3.2</ele><time>2022-11-04T16:47:34.0000000+00:00</time></trkpt><trkpt lat="39.4529807" lon="-0.34849657"><ele>-3.2</ele><time>2022-11-04T16:47:35.0000000+00:00</time></trkpt><trkpt lat="39.45297483" lon="-0.34848492"><ele>-3.2</ele><time>2022-11-04T16:47:36.0000000+00:00</time></trkpt><trkpt lat="39.45296746" lon="-0.34847159"><ele>-3.2</ele><time>2022-11-04T16:47:37.0000000+00:00</time></trkpt><trkpt lat="39.45296235" lon="-0.34845768"><ele>-3.2</ele><time>2022-11-04T16:47:38.0000000+00:00</time></trkpt><trkpt lat="39.45295522" lon="-0.34844653"><ele>-3.2</ele><time>2022-11-04T16:47:39.0000000+00:00</time></trkpt><trkpt lat="39.45294734" lon="-0.34843043"><ele>-3.2</ele><time>2022-11-04T16:47:40.0000000+00:00</time></trkpt><trkpt lat="39.45293955" lon="-0.34841451"><ele>-3.0</ele><time>2022-11-04T16:47:41.0000000+00:00</time></trkpt><trkpt lat="39.45293309" lon="-0.34840076"><ele>-3.0</ele><time>2022-11-04T16:47:42.0000000+00:00</time></trkpt><trkpt lat="39.45292404" lon="-0.34838576"><ele>-3.0</ele><time>2022-11-04T16:47:43.0000000+00:00</time></trkpt><trkpt lat="39.45291641" lon="-0.34836958"><ele>-3.0</ele><time>2022-11-04T16:47:44.0000000+00:00</time></trkpt><trkpt lat="39.45291423" lon="-0.34835341"><ele>-3.0</ele><time>2022-11-04T16:47:45.0000000+00:00</time></trkpt><trkpt lat="39.45291306" lon="-0.3483436"><ele>-3.0</ele><time>2022-11-04T16:47:46.0000000+00:00</time></trkpt><trkpt lat="39.45290962" lon="-0.34833505"><ele>-2.8</ele><time>2022-11-04T16:47:47.0000000+00:00</time></trkpt><trkpt lat="39.45290518" lon="-0.34832549"><ele>-2.8</ele><time>2022-11-04T16:47:48.0000000+00:00</time></trkpt><trkpt lat="39.45289143" lon="-0.34831937"><ele>-2.8</ele><time>2022-11-04T16:47:49.0000000+00:00</time></trkpt><trkpt lat="39.45289085" lon="-0.34829741"><ele>-3.0</ele><time>2022-11-04T16:47:50.0000000+00:00</time></trkpt><trkpt lat="39.45288925" lon="-0.34828065"><ele>-3.0</ele><time>2022-11-04T16:47:51.0000000+00:00</time></trkpt><trkpt lat="39.452889" lon="-0.34826766"><ele>-3.0</ele><time>2022-11-04T16:47:52.0000000+00:00</time></trkpt><trkpt lat="39.45288942" lon="-0.3482576"><ele>-3.0</ele><time>2022-11-04T16:47:53.0000000+00:00</time></trkpt><trkpt lat="39.45288825" lon="-0.34824268"><ele>-3.0</ele><time>2022-11-04T16:47:54.0000000+00:00</time></trkpt><trkpt lat="39.45288381" lon="-0.34824293"><ele>-3.0</ele><time>2022-11-04T16:47:55.0000000+00:00</time></trkpt><trkpt lat="39.45287777" lon="-0.34824578"><ele>-3.0</ele><time>2022-11-04T16:47:56.0000000+00:00</time></trkpt><trkpt lat="39.45286889" lon="-0.34824268"><ele>-3.0</ele><time>2022-11-04T16:47:57.0000000+00:00</time></trkpt><trkpt lat="39.45285925" lon="-0.34824913"><ele>-3.0</ele><time>2022-11-04T16:47:58.0000000+00:00</time></trkpt><trkpt lat="39.4528372" lon="-0.34825148"><ele>-3.0</ele><time>2022-11-04T16:47:59.0000000+00:00</time></trkpt><trkpt lat="39.45282731" lon="-0.34823187"><ele>-3.0</ele><time>2022-11-04T16:48:00.0000000+00:00</time></trkpt><trkpt lat="39.45282874" lon="-0.34820932"><ele>-3.0</ele><time>2022-11-04T16:48:01.0000000+00:00</time></trkpt><trkpt lat="39.45282212" lon="-0.34819549"><ele>-3.0</ele><time>2022-11-04T16:48:02.0000000+00:00</time></trkpt><trkpt lat="39.45281692" lon="-0.34818845"><ele>-3.0</ele><time>2022-11-04T16:48:03.0000000+00:00</time></trkpt><trkpt lat="39.45281541" lon="-0.34817462"><ele>-3.0</ele><time>2022-11-04T16:48:04.0000000+00:00</time></trkpt><trkpt lat="39.45280971" lon="-0.34816347"><ele>-3.2</ele><time>2022-11-04T16:48:05.0000000+00:00</time></trkpt><trkpt lat="39.452802" lon="-0.3481561"><ele>-3.2</ele><time>2022-11-04T16:48:06.0000000+00:00</time></trkpt><trkpt lat="39.45279412" lon="-0.34814503"><ele>-3.2</ele><time>2022-11-04T16:48:07.0000000+00:00</time></trkpt><trkpt lat="39.45278507" lon="-0.34813682"><ele>-3.2</ele><time>2022-11-04T16:48:08.0000000+00:00</time></trkpt><trkpt lat="39.45277903" lon="-0.34813003"><ele>-3.2</ele><time>2022-11-04T16:48:09.0000000+00:00</time></trkpt><trkpt lat="39.45276864" lon="-0.34812089"><ele>-3.2</ele><time>2022-11-04T16:48:10.0000000+00:00</time></trkpt><trkpt lat="39.45275649" lon="-0.34811477"><ele>-3.2</ele><time>2022-11-04T16:48:11.0000000+00:00</time></trkpt><trkpt lat="39.45274928" lon="-0.34810547"><ele>-3.2</ele><time>2022-11-04T16:48:12.0000000+00:00</time></trkpt><trkpt lat="39.45274157" lon="-0.34808829"><ele>-3.2</ele><time>2022-11-04T16:48:13.0000000+00:00</time></trkpt><trkpt lat="39.45273184" lon="-0.34807286"><ele>-3.2</ele><time>2022-11-04T16:48:14.0000000+00:00</time></trkpt><trkpt lat="39.45272371" lon="-0.3480649"><ele>-3.2</ele><time>2022-11-04T16:48:15.0000000+00:00</time></trkpt><trkpt lat="39.45271567" lon="-0.34805912"><ele>-3.4</ele><time>2022-11-04T16:48:16.0000000+00:00</time></trkpt><trkpt lat="39.45270988" lon="-0.34805677"><ele>-3.4</ele><time>2022-11-04T16:48:17.0000000+00:00</time></trkpt><trkpt lat="39.4527072" lon="-0.34805618"><ele>-3.4</ele><time>2022-11-04T16:48:18.0000000+00:00</time></trkpt><trkpt lat="39.45270737" lon="-0.34805518"><ele>-3.6</ele><time>2022-11-04T16:48:19.0000000+00:00</time></trkpt><trkpt lat="39.45270703" lon="-0.34805216"><ele>-3.6</ele><time>2022-11-04T16:48:20.0000000+00:00</time></trkpt><trkpt lat="39.45270686" lon="-0.348053"><ele>-3.6</ele><time>2022-11-04T16:48:21.0000000+00:00</time></trkpt><trkpt lat="39.45270997" lon="-0.34805157"><ele>-3.6</ele><time>2022-11-04T16:48:22.0000000+00:00</time></trkpt><trkpt lat="39.45271156" lon="-0.3480499"><ele>-3.6</ele><time>2022-11-04T16:48:23.0000000+00:00</time></trkpt><trkpt lat="39.45271256" lon="-0.34804889"><ele>-3.6</ele><time>2022-11-04T16:48:24.0000000+00:00</time></trkpt><trkpt lat="39.45271466" lon="-0.34804277"><ele>-3.6</ele><time>2022-11-04T16:48:25.0000000+00:00</time></trkpt><trkpt lat="39.45272799" lon="-0.34803858"><ele>-3.6</ele><time>2022-11-04T16:48:26.0000000+00:00</time></trkpt><trkpt lat="39.45273117" lon="-0.34802936"><ele>-3.6</ele><time>2022-11-04T16:48:27.0000000+00:00</time></trkpt><trkpt lat="39.45273084" lon="-0.34802131"><ele>-3.6</ele><time>2022-11-04T16:48:28.0000000+00:00</time></trkpt><trkpt lat="39.45273084" lon="-0.34802131"><ele>-3.6</ele><time>2022-11-04T16:48:29.0000000+00:00</time></trkpt><trkpt lat="39.45273084" lon="-0.34802131"><ele>-3.6</ele><time>2022-11-04T16:48:30.0000000+00:00</time></trkpt><trkpt lat="39.45273084" lon="-0.34802131"><ele>-3.6</ele><time>2022-11-04T16:48:31.0000000+00:00</time></trkpt><trkpt lat="39.45273084" lon="-0.34802131"><ele>-3.6</ele><time>2022-11-04T16:48:32.0000000+00:00</time></trkpt><trkpt lat="39.45273084" lon="-0.34802131"><ele>-3.6</ele><time>2022-11-04T16:48:33.0000000+00:00</time></trkpt><trkpt lat="39.45273084" lon="-0.34802131"><ele>-3.6</ele><time>2022-11-04T16:48:34.0000000+00:00</time></trkpt><trkpt lat="39.45273084" lon="-0.34802131"><ele>-3.6</ele><time>2022-11-04T16:48:35.0000000+00:00</time></trkpt><trkpt lat="39.45273084" lon="-0.34802131"><ele>-3.6</ele><time>2022-11-04T16:48:36.0000000+00:00</time></trkpt><trkpt lat="39.45273084" lon="-0.34802131"><ele>-3.6</ele><time>2022-11-04T16:48:37.0000000+00:00</time></trkpt><trkpt lat="39.45273084" lon="-0.34802131"><ele>-3.6</ele><time>2022-11-04T16:48:38.0000000+00:00</time></trkpt><trkpt lat="39.45273084" lon="-0.34802131"><ele>-3.8</ele><time>2022-11-04T16:48:39.0000000+00:00</time></trkpt><trkpt lat="39.45273084" lon="-0.34802131"><ele>-3.8</ele><time>2022-11-04T16:48:40.0000000+00:00</time></trkpt><trkpt lat="39.45273084" lon="-0.34802198"><ele>-3.8</ele><time>2022-11-04T16:48:41.0000000+00:00</time></trkpt><trkpt lat="39.45273084" lon="-0.34802307"><ele>-4.0</ele><time>2022-11-04T16:48:42.0000000+00:00</time></trkpt><trkpt lat="39.45273084" lon="-0.34802475"><ele>-4.0</ele><time>2022-11-04T16:48:43.0000000+00:00</time></trkpt><trkpt lat="39.45273084" lon="-0.34802903"><ele>-4.0</ele><time>2022-11-04T16:48:44.0000000+00:00</time></trkpt><trkpt lat="39.45273033" lon="-0.34803447"><ele>-4.0</ele><time>2022-11-04T16:48:45.0000000+00:00</time></trkpt><trkpt lat="39.45272824" lon="-0.34803825"><ele>-3.8</ele><time>2022-11-04T16:48:46.0000000+00:00</time></trkpt><trkpt lat="39.45272086" lon="-0.34804235"><ele>-3.8</ele><time>2022-11-04T16:48:47.0000000+00:00</time></trkpt><trkpt lat="39.4527155" lon="-0.34804696"><ele>-3.8</ele><time>2022-11-04T16:48:48.0000000+00:00</time></trkpt><trkpt lat="39.45271474" lon="-0.34804864"><ele>-3.8</ele><time>2022-11-04T16:48:49.0000000+00:00</time></trkpt><trkpt lat="39.45271474" lon="-0.34804881"><ele>-3.8</ele><time>2022-11-04T16:48:50.0000000+00:00</time></trkpt><trkpt lat="39.45271466" lon="-0.34804755"><ele>-3.8</ele><time>2022-11-04T16:48:51.0000000+00:00</time></trkpt><trkpt lat="39.45271022" lon="-0.34804587"><ele>-3.8</ele><time>2022-11-04T16:48:52.0000000+00:00</time></trkpt><trkpt lat="39.45270083" lon="-0.3480364"><ele>-3.8</ele><time>2022-11-04T16:48:53.0000000+00:00</time></trkpt><trkpt lat="39.45268977" lon="-0.34802333"><ele>-3.8</ele><time>2022-11-04T16:48:54.0000000+00:00</time></trkpt><trkpt lat="39.45268088" lon="-0.34801067"><ele>-3.8</ele><time>2022-11-04T16:48:55.0000000+00:00</time></trkpt><trkpt lat="39.45266957" lon="-0.34800036"><ele>-3.8</ele><time>2022-11-04T16:48:56.0000000+00:00</time></trkpt><trkpt lat="39.45265967" lon="-0.34799273"><ele>-3.8</ele><time>2022-11-04T16:48:57.0000000+00:00</time></trkpt><trkpt lat="39.45265087" lon="-0.34798955"><ele>-3.8</ele><time>2022-11-04T16:48:58.0000000+00:00</time></trkpt><trkpt lat="39.45264216" lon="-0.34798368"><ele>-4.0</ele><time>2022-11-04T16:48:59.0000000+00:00</time></trkpt><trkpt lat="39.45263109" lon="-0.34797731"><ele>-4.0</ele><time>2022-11-04T16:49:00.0000000+00:00</time></trkpt><trkpt lat="39.4526207" lon="-0.34797337"><ele>-4.0</ele><time>2022-11-04T16:49:01.0000000+00:00</time></trkpt><trkpt lat="39.45261718" lon="-0.34797823"><ele>-4.0</ele><time>2022-11-04T16:49:02.0000000+00:00</time></trkpt><trkpt lat="39.45261776" lon="-0.34798812"><ele>-4.0</ele><time>2022-11-04T16:49:03.0000000+00:00</time></trkpt><trkpt lat="39.45261299" lon="-0.34800053"><ele>-4.2</ele><time>2022-11-04T16:49:04.0000000+00:00</time></trkpt><trkpt lat="39.45260662" lon="-0.34801251"><ele>-4.2</ele><time>2022-11-04T16:49:05.0000000+00:00</time></trkpt><trkpt lat="39.45259664" lon="-0.34802643"><ele>-4.2</ele><time>2022-11-04T16:49:06.0000000+00:00</time></trkpt><trkpt lat="39.45258575" lon="-0.34804093"><ele>-4.2</ele><time>2022-11-04T16:49:07.0000000+00:00</time></trkpt><trkpt lat="39.45257602" lon="-0.34805417"><ele>-4.2</ele><time>2022-11-04T16:49:08.0000000+00:00</time></trkpt><trkpt lat="39.45256529" lon="-0.34806683"><ele>-4.2</ele><time>2022-11-04T16:49:09.0000000+00:00</time></trkpt><trkpt lat="39.45255691" lon="-0.3480789"><ele>-4.2</ele><time>2022-11-04T16:49:10.0000000+00:00</time></trkpt><trkpt lat="39.45254652" lon="-0.34809005"><ele>-4.4</ele><time>2022-11-04T16:49:11.0000000+00:00</time></trkpt><trkpt lat="39.45253923" lon="-0.34810228"><ele>-4.4</ele><time>2022-11-04T16:49:12.0000000+00:00</time></trkpt><trkpt lat="39.45253227" lon="-0.34811075"><ele>-4.4</ele><time>2022-11-04T16:49:13.0000000+00:00</time></trkpt><trkpt lat="39.45252573" lon="-0.34812005"><ele>-4.4</ele><time>2022-11-04T16:49:14.0000000+00:00</time></trkpt><trkpt lat="39.45251802" lon="-0.3481312"><ele>-4.4</ele><time>2022-11-04T16:49:15.0000000+00:00</time></trkpt><trkpt lat="39.45250754" lon="-0.34814084"><ele>-4.6</ele><time>2022-11-04T16:49:16.0000000+00:00</time></trkpt><trkpt lat="39.45250008" lon="-0.34815291"><ele>-4.4</ele><time>2022-11-04T16:49:17.0000000+00:00</time></trkpt><trkpt lat="39.45249505" lon="-0.3481659"><ele>-4.4</ele><time>2022-11-04T16:49:18.0000000+00:00</time></trkpt><trkpt lat="39.45248994" lon="-0.3481804"><ele>-4.6</ele><time>2022-11-04T16:49:19.0000000+00:00</time></trkpt><trkpt lat="39.45248751" lon="-0.34819817"><ele>-4.4</ele><time>2022-11-04T16:49:20.0000000+00:00</time></trkpt><trkpt lat="39.45248818" lon="-0.34821636"><ele>-4.4</ele><time>2022-11-04T16:49:21.0000000+00:00</time></trkpt><trkpt lat="39.45249187" lon="-0.3482322"><ele>-4.4</ele><time>2022-11-04T16:49:22.0000000+00:00</time></trkpt><trkpt lat="39.45249715" lon="-0.34824578"><ele>-4.4</ele><time>2022-11-04T16:49:23.0000000+00:00</time></trkpt><trkpt lat="39.45250302" lon="-0.34825785"><ele>-4.4</ele><time>2022-11-04T16:49:24.0000000+00:00</time></trkpt><trkpt lat="39.45250922" lon="-0.34827403"><ele>-4.4</ele><time>2022-11-04T16:49:25.0000000+00:00</time></trkpt><trkpt lat="39.45251534" lon="-0.34828903"><ele>-4.4</ele><time>2022-11-04T16:49:26.0000000+00:00</time></trkpt><trkpt lat="39.45252095" lon="-0.3483032"><ele>-4.2</ele><time>2022-11-04T16:49:27.0000000+00:00</time></trkpt><trkpt lat="39.45252741" lon="-0.34831912"><ele>-4.2</ele><time>2022-11-04T16:49:28.0000000+00:00</time></trkpt><trkpt lat="39.45253386" lon="-0.34833446"><ele>-4.2</ele><time>2022-11-04T16:49:29.0000000+00:00</time></trkpt><trkpt lat="39.45253839" lon="-0.34835089"><ele>-4.2</ele><time>2022-11-04T16:49:30.0000000+00:00</time></trkpt><trkpt lat="39.45253923" lon="-0.34836623"><ele>-4.2</ele><time>2022-11-04T16:49:31.0000000+00:00</time></trkpt><trkpt lat="39.45254057" lon="-0.34837972"><ele>-4.2</ele><time>2022-11-04T16:49:32.0000000+00:00</time></trkpt><trkpt lat="39.45254266" lon="-0.34839255"><ele>-4.2</ele><time>2022-11-04T16:49:33.0000000+00:00</time></trkpt><trkpt lat="39.45254426" lon="-0.34840487"><ele>-4.4</ele><time>2022-11-04T16:49:34.0000000+00:00</time></trkpt><trkpt lat="39.45254417" lon="-0.34841945"><ele>-4.4</ele><time>2022-11-04T16:49:35.0000000+00:00</time></trkpt><trkpt lat="39.45254627" lon="-0.34843412"><ele>-4.4</ele><time>2022-11-04T16:49:36.0000000+00:00</time></trkpt><trkpt lat="39.45254912" lon="-0.34844871"><ele>-4.4</ele><time>2022-11-04T16:49:37.0000000+00:00</time></trkpt><trkpt lat="39.45255406" lon="-0.34846312"><ele>-4.4</ele><time>2022-11-04T16:49:38.0000000+00:00</time></trkpt><trkpt lat="39.45255909" lon="-0.34847838"><ele>-4.4</ele><time>2022-11-04T16:49:39.0000000+00:00</time></trkpt><trkpt lat="39.45256311" lon="-0.34849523"><ele>-4.4</ele><time>2022-11-04T16:49:40.0000000+00:00</time></trkpt><trkpt lat="39.45256664" lon="-0.34851199"><ele>-4.4</ele><time>2022-11-04T16:49:41.0000000+00:00</time></trkpt><trkpt lat="39.45257024" lon="-0.3485285"><ele>-4.2</ele><time>2022-11-04T16:49:42.0000000+00:00</time></trkpt><trkpt lat="39.4525725" lon="-0.34854485"><ele>-4.2</ele><time>2022-11-04T16:49:43.0000000+00:00</time></trkpt><trkpt lat="39.45257443" lon="-0.34855692"><ele>-4.2</ele><time>2022-11-04T16:49:44.0000000+00:00</time></trkpt><trkpt lat="39.45257669" lon="-0.34856907"><ele>-4.2</ele><time>2022-11-04T16:49:45.0000000+00:00</time></trkpt><trkpt lat="39.45257728" lon="-0.34858416"><ele>-4.2</ele><time>2022-11-04T16:49:46.0000000+00:00</time></trkpt><trkpt lat="39.45257979" lon="-0.34860126"><ele>-4.2</ele><time>2022-11-04T16:49:47.0000000+00:00</time></trkpt><trkpt lat="39.45257963" lon="-0.34861911"><ele>-4.2</ele><time>2022-11-04T16:49:48.0000000+00:00</time></trkpt><trkpt lat="39.45258306" lon="-0.34863814"><ele>-4.2</ele><time>2022-11-04T16:49:49.0000000+00:00</time></trkpt><trkpt lat="39.45258994" lon="-0.34865214"><ele>-4.2</ele><time>2022-11-04T16:49:50.0000000+00:00</time></trkpt><trkpt lat="39.45259455" lon="-0.34866613"><ele>-4.2</ele><time>2022-11-04T16:49:51.0000000+00:00</time></trkpt><trkpt lat="39.45260176" lon="-0.34867678"><ele>-4.2</ele><time>2022-11-04T16:49:52.0000000+00:00</time></trkpt><trkpt lat="39.45260628" lon="-0.34869036"><ele>-4.2</ele><time>2022-11-04T16:49:53.0000000+00:00</time></trkpt><trkpt lat="39.45261274" lon="-0.34870544"><ele>-4.2</ele><time>2022-11-04T16:49:54.0000000+00:00</time></trkpt><trkpt lat="39.45261994" lon="-0.34871718"><ele>-4.2</ele><time>2022-11-04T16:49:55.0000000+00:00</time></trkpt><trkpt lat="39.45262531" lon="-0.34873"><ele>-4.2</ele><time>2022-11-04T16:49:56.0000000+00:00</time></trkpt><trkpt lat="39.45263252" lon="-0.34874476"><ele>-4.2</ele><time>2022-11-04T16:49:57.0000000+00:00</time></trkpt><trkpt lat="39.4526352" lon="-0.34875708"><ele>-4.2</ele><time>2022-11-04T16:49:58.0000000+00:00</time></trkpt><trkpt lat="39.45264333" lon="-0.34877292"><ele>-4.2</ele><time>2022-11-04T16:49:59.0000000+00:00</time></trkpt><trkpt lat="39.45264509" lon="-0.34879295"><ele>-4.0</ele><time>2022-11-04T16:50:00.0000000+00:00</time></trkpt><trkpt lat="39.45264886" lon="-0.34881324"><ele>-4.0</ele><time>2022-11-04T16:50:01.0000000+00:00</time></trkpt><trkpt lat="39.45265682" lon="-0.34882355"><ele>-4.0</ele><time>2022-11-04T16:50:02.0000000+00:00</time></trkpt><trkpt lat="39.45266537" lon="-0.34882866"><ele>-4.0</ele><time>2022-11-04T16:50:03.0000000+00:00</time></trkpt><trkpt lat="39.45267853" lon="-0.34883671"><ele>-4.0</ele><time>2022-11-04T16:50:04.0000000+00:00</time></trkpt><trkpt lat="39.45269253" lon="-0.34885196"><ele>-4.0</ele><time>2022-11-04T16:50:05.0000000+00:00</time></trkpt><trkpt lat="39.45270234" lon="-0.34886219"><ele>-4.0</ele><time>2022-11-04T16:50:06.0000000+00:00</time></trkpt><trkpt lat="39.45270603" lon="-0.34887459"><ele>-4.0</ele><time>2022-11-04T16:50:07.0000000+00:00</time></trkpt><trkpt lat="39.45270846" lon="-0.34888775"><ele>-4.0</ele><time>2022-11-04T16:50:08.0000000+00:00</time></trkpt><trkpt lat="39.45271005" lon="-0.34890141"><ele>-4.0</ele><time>2022-11-04T16:50:09.0000000+00:00</time></trkpt><trkpt lat="39.45271256" lon="-0.3489165"><ele>-4.0</ele><time>2022-11-04T16:50:10.0000000+00:00</time></trkpt><trkpt lat="39.45271776" lon="-0.34893092"><ele>-4.0</ele><time>2022-11-04T16:50:11.0000000+00:00</time></trkpt><trkpt lat="39.45272178" lon="-0.34895221"><ele>-4.0</ele><time>2022-11-04T16:50:12.0000000+00:00</time></trkpt><trkpt lat="39.45272455" lon="-0.34896621"><ele>-4.0</ele><time>2022-11-04T16:50:13.0000000+00:00</time></trkpt><trkpt lat="39.45271868" lon="-0.3489916"><ele>-4.0</ele><time>2022-11-04T16:50:14.0000000+00:00</time></trkpt><trkpt lat="39.45271466" lon="-0.34901801"><ele>-4.0</ele><time>2022-11-04T16:50:15.0000000+00:00</time></trkpt><trkpt lat="39.45271139" lon="-0.34904189"><ele>-4.0</ele><time>2022-11-04T16:50:16.0000000+00:00</time></trkpt><trkpt lat="39.45271323" lon="-0.34905572"><ele>-4.0</ele><time>2022-11-04T16:50:17.0000000+00:00</time></trkpt><trkpt lat="39.45271072" lon="-0.34906939"><ele>-4.0</ele><time>2022-11-04T16:50:18.0000000+00:00</time></trkpt><trkpt lat="39.45271323" lon="-0.34908364"><ele>-4.0</ele><time>2022-11-04T16:50:19.0000000+00:00</time></trkpt><trkpt lat="39.45271902" lon="-0.34909898"><ele>-4.0</ele><time>2022-11-04T16:50:20.0000000+00:00</time></trkpt><trkpt lat="39.4527274" lon="-0.34911792"><ele>-3.8</ele><time>2022-11-04T16:50:21.0000000+00:00</time></trkpt><trkpt lat="39.4527388" lon="-0.34912739"><ele>-3.8</ele><time>2022-11-04T16:50:22.0000000+00:00</time></trkpt><trkpt lat="39.45274618" lon="-0.34915027"><ele>-3.8</ele><time>2022-11-04T16:50:23.0000000+00:00</time></trkpt><trkpt lat="39.45275263" lon="-0.34917215"><ele>-3.8</ele><time>2022-11-04T16:50:24.0000000+00:00</time></trkpt><trkpt lat="39.45275665" lon="-0.34918807"><ele>-3.8</ele><time>2022-11-04T16:50:25.0000000+00:00</time></trkpt><trkpt lat="39.45276302" lon="-0.34920828"><ele>-3.8</ele><time>2022-11-04T16:50:26.0000000+00:00</time></trkpt><trkpt lat="39.45276277" lon="-0.34923082"><ele>-3.8</ele><time>2022-11-04T16:50:27.0000000+00:00</time></trkpt><trkpt lat="39.45276462" lon="-0.34924088"><ele>-3.8</ele><time>2022-11-04T16:50:28.0000000+00:00</time></trkpt><trkpt lat="39.45276923" lon="-0.34924993"><ele>-3.8</ele><time>2022-11-04T16:50:29.0000000+00:00</time></trkpt><trkpt lat="39.4527735" lon="-0.34926016"><ele>-4.0</ele><time>2022-11-04T16:50:30.0000000+00:00</time></trkpt><trkpt lat="39.45277903" lon="-0.34927483"><ele>-4.0</ele><time>2022-11-04T16:50:31.0000000+00:00</time></trkpt><trkpt lat="39.45278482" lon="-0.3492869"><ele>-4.0</ele><time>2022-11-04T16:50:32.0000000+00:00</time></trkpt><trkpt lat="39.45278641" lon="-0.34930207"><ele>-4.0</ele><time>2022-11-04T16:50:33.0000000+00:00</time></trkpt><trkpt lat="39.45279219" lon="-0.34930936"><ele>-4.0</ele><time>2022-11-04T16:50:34.0000000+00:00</time></trkpt><trkpt lat="39.45279881" lon="-0.34931221"><ele>-4.0</ele><time>2022-11-04T16:50:35.0000000+00:00</time></trkpt><trkpt lat="39.4528015" lon="-0.34932026"><ele>-4.0</ele><time>2022-11-04T16:50:36.0000000+00:00</time></trkpt><trkpt lat="39.45280711" lon="-0.34933342"><ele>-4.0</ele><time>2022-11-04T16:50:37.0000000+00:00</time></trkpt><trkpt lat="39.45281147" lon="-0.34934633"><ele>-4.0</ele><time>2022-11-04T16:50:38.0000000+00:00</time></trkpt><trkpt lat="39.45281474" lon="-0.34936451"><ele>-4.0</ele><time>2022-11-04T16:50:39.0000000+00:00</time></trkpt><trkpt lat="39.45281675" lon="-0.34937499"><ele>-4.0</ele><time>2022-11-04T16:50:40.0000000+00:00</time></trkpt><trkpt lat="39.45281969" lon="-0.34938715"><ele>-4.2</ele><time>2022-11-04T16:50:41.0000000+00:00</time></trkpt><trkpt lat="39.45282346" lon="-0.34940056"><ele>-4.2</ele><time>2022-11-04T16:50:42.0000000+00:00</time></trkpt><trkpt lat="39.45282497" lon="-0.34940802"><ele>-4.2</ele><time>2022-11-04T16:50:43.0000000+00:00</time></trkpt><trkpt lat="39.45282488" lon="-0.34941288"><ele>-4.2</ele><time>2022-11-04T16:50:44.0000000+00:00</time></trkpt><trkpt lat="39.4528243" lon="-0.34941531"><ele>-4.2</ele><time>2022-11-04T16:50:45.0000000+00:00</time></trkpt><trkpt lat="39.45282346" lon="-0.34941749"><ele>-4.2</ele><time>2022-11-04T16:50:46.0000000+00:00</time></trkpt><trkpt lat="39.45282354" lon="-0.34941791"><ele>-4.2</ele><time>2022-11-04T16:50:47.0000000+00:00</time></trkpt><trkpt lat="39.45282362" lon="-0.34941782"><ele>-4.2</ele><time>2022-11-04T16:50:48.0000000+00:00</time></trkpt><trkpt lat="39.45282522" lon="-0.34941833"><ele>-4.2</ele><time>2022-11-04T16:50:49.0000000+00:00</time></trkpt><trkpt lat="39.45282731" lon="-0.34941891"><ele>-4.2</ele><time>2022-11-04T16:50:50.0000000+00:00</time></trkpt><trkpt lat="39.45282714" lon="-0.34941983"><ele>-4.2</ele><time>2022-11-04T16:50:51.0000000+00:00</time></trkpt><trkpt lat="39.45283209" lon="-0.34942025"><ele>-4.0</ele><time>2022-11-04T16:50:52.0000000+00:00</time></trkpt><trkpt lat="39.45283595" lon="-0.34942453"><ele>-4.0</ele><time>2022-11-04T16:50:53.0000000+00:00</time></trkpt><trkpt lat="39.45283938" lon="-0.34943299"><ele>-4.0</ele><time>2022-11-04T16:50:54.0000000+00:00</time></trkpt><trkpt lat="39.45284274" lon="-0.34944381"><ele>-4.0</ele><time>2022-11-04T16:50:55.0000000+00:00</time></trkpt><trkpt lat="39.45284709" lon="-0.34945445"><ele>-4.0</ele><time>2022-11-04T16:50:56.0000000+00:00</time></trkpt><trkpt lat="39.45285154" lon="-0.34946719"><ele>-4.0</ele><time>2022-11-04T16:50:57.0000000+00:00</time></trkpt><trkpt lat="39.45285489" lon="-0.34948178"><ele>-4.0</ele><time>2022-11-04T16:50:58.0000000+00:00</time></trkpt><trkpt lat="39.45285799" lon="-0.34949712"><ele>-4.0</ele><time>2022-11-04T16:50:59.0000000+00:00</time></trkpt><trkpt lat="39.45285833" lon="-0.34951086"><ele>-4.0</ele><time>2022-11-04T16:51:00.0000000+00:00</time></trkpt><trkpt lat="39.45285833" lon="-0.34952209"><ele>-4.0</ele><time>2022-11-04T16:51:01.0000000+00:00</time></trkpt><trkpt lat="39.4528626" lon="-0.34953148"><ele>-4.0</ele><time>2022-11-04T16:51:02.0000000+00:00</time></trkpt><trkpt lat="39.4528662" lon="-0.34954305"><ele>-4.0</ele><time>2022-11-04T16:51:03.0000000+00:00</time></trkpt><trkpt lat="39.45286947" lon="-0.34956099"><ele>-4.0</ele><time>2022-11-04T16:51:04.0000000+00:00</time></trkpt><trkpt lat="39.45287643" lon="-0.34958219"><ele>-4.0</ele><time>2022-11-04T16:51:05.0000000+00:00</time></trkpt><trkpt lat="39.4528828" lon="-0.34960114"><ele>-4.0</ele><time>2022-11-04T16:51:06.0000000+00:00</time></trkpt><trkpt lat="39.45288448" lon="-0.34961723"><ele>-4.0</ele><time>2022-11-04T16:51:07.0000000+00:00</time></trkpt><trkpt lat="39.45288925" lon="-0.34963575"><ele>-4.0</ele><time>2022-11-04T16:51:08.0000000+00:00</time></trkpt><trkpt lat="39.45289982" lon="-0.34964732"><ele>-4.0</ele><time>2022-11-04T16:51:09.0000000+00:00</time></trkpt><trkpt lat="39.4529092" lon="-0.3496562"><ele>-4.0</ele><time>2022-11-04T16:51:10.0000000+00:00</time></trkpt><trkpt lat="39.45291851" lon="-0.34966526"><ele>-4.0</ele><time>2022-11-04T16:51:11.0000000+00:00</time></trkpt><trkpt lat="39.45292681" lon="-0.3496728"><ele>-4.0</ele><time>2022-11-04T16:51:12.0000000+00:00</time></trkpt><trkpt lat="39.45293242" lon="-0.34966769"><ele>-4.0</ele><time>2022-11-04T16:51:13.0000000+00:00</time></trkpt><trkpt lat="39.45293703" lon="-0.34967557"><ele>-4.0</ele><time>2022-11-04T16:51:14.0000000+00:00</time></trkpt><trkpt lat="39.45294315" lon="-0.34968085"><ele>-4.0</ele><time>2022-11-04T16:51:15.0000000+00:00</time></trkpt><trkpt lat="39.45295363" lon="-0.34968906"><ele>-4.0</ele><time>2022-11-04T16:51:16.0000000+00:00</time></trkpt><trkpt lat="39.45296754" lon="-0.34969283"><ele>-4.0</ele><time>2022-11-04T16:51:17.0000000+00:00</time></trkpt><trkpt lat="39.45298313" lon="-0.34968361"><ele>-4.0</ele><time>2022-11-04T16:51:18.0000000+00:00</time></trkpt><trkpt lat="39.45299981" lon="-0.34967615"><ele>-4.0</ele><time>2022-11-04T16:51:19.0000000+00:00</time></trkpt><trkpt lat="39.45301431" lon="-0.34966216"><ele>-4.0</ele><time>2022-11-04T16:51:20.0000000+00:00</time></trkpt><trkpt lat="39.45302823" lon="-0.34964992"><ele>-4.0</ele><time>2022-11-04T16:51:21.0000000+00:00</time></trkpt><trkpt lat="39.45304524" lon="-0.34964531"><ele>-4.0</ele><time>2022-11-04T16:51:22.0000000+00:00</time></trkpt><trkpt lat="39.4530636" lon="-0.34964346"><ele>-4.0</ele><time>2022-11-04T16:51:23.0000000+00:00</time></trkpt><trkpt lat="39.45308112" lon="-0.34964028"><ele>-4.2</ele><time>2022-11-04T16:51:24.0000000+00:00</time></trkpt><trkpt lat="39.45309847" lon="-0.34964003"><ele>-4.2</ele><time>2022-11-04T16:51:25.0000000+00:00</time></trkpt><trkpt lat="39.45310459" lon="-0.34963265"><ele>-4.4</ele><time>2022-11-04T16:51:26.0000000+00:00</time></trkpt><trkpt lat="39.45310651" lon="-0.34962603"><ele>-4.4</ele><time>2022-11-04T16:51:27.0000000+00:00</time></trkpt><trkpt lat="39.4531164" lon="-0.34961589"><ele>-4.4</ele><time>2022-11-04T16:51:28.0000000+00:00</time></trkpt><trkpt lat="39.45313216" lon="-0.34961362"><ele>-4.4</ele><time>2022-11-04T16:51:29.0000000+00:00</time></trkpt><trkpt lat="39.45314272" lon="-0.34960281"><ele>-4.6</ele><time>2022-11-04T16:51:30.0000000+00:00</time></trkpt><trkpt lat="39.45315144" lon="-0.34959544"><ele>-4.8</ele><time>2022-11-04T16:51:31.0000000+00:00</time></trkpt><trkpt lat="39.45316242" lon="-0.34958722"><ele>-4.8</ele><time>2022-11-04T16:51:32.0000000+00:00</time></trkpt><trkpt lat="39.45317818" lon="-0.3495801"><ele>-4.8</ele><time>2022-11-04T16:51:33.0000000+00:00</time></trkpt><trkpt lat="39.45319452" lon="-0.34957876"><ele>-5.0</ele><time>2022-11-04T16:51:34.0000000+00:00</time></trkpt><trkpt lat="39.4532107" lon="-0.34957599"><ele>-5.0</ele><time>2022-11-04T16:51:35.0000000+00:00</time></trkpt><trkpt lat="39.45322696" lon="-0.34957767"><ele>-5.0</ele><time>2022-11-04T16:51:36.0000000+00:00</time></trkpt><trkpt lat="39.45323551" lon="-0.34957197"><ele>-4.8</ele><time>2022-11-04T16:51:37.0000000+00:00</time></trkpt><trkpt lat="39.45324574" lon="-0.34956526"><ele>-5.0</ele><time>2022-11-04T16:51:38.0000000+00:00</time></trkpt><trkpt lat="39.45325295" lon="-0.34955646"><ele>-5.0</ele><time>2022-11-04T16:51:39.0000000+00:00</time></trkpt><trkpt lat="39.45326644" lon="-0.34955034"><ele>-5.0</ele><time>2022-11-04T16:51:40.0000000+00:00</time></trkpt><trkpt lat="39.4532734" lon="-0.34954246"><ele>-5.0</ele><time>2022-11-04T16:51:41.0000000+00:00</time></trkpt><trkpt lat="39.45328681" lon="-0.34953659"><ele>-5.2</ele><time>2022-11-04T16:51:42.0000000+00:00</time></trkpt><trkpt lat="39.45330055" lon="-0.34952763"><ele>-5.2</ele><time>2022-11-04T16:51:43.0000000+00:00</time></trkpt><trkpt lat="39.45331539" lon="-0.34952327"><ele>-5.4</ele><time>2022-11-04T16:51:44.0000000+00:00</time></trkpt><trkpt lat="39.45332989" lon="-0.34952352"><ele>-5.4</ele><time>2022-11-04T16:51:45.0000000+00:00</time></trkpt><trkpt lat="39.45333886" lon="-0.34951656"><ele>-5.6</ele><time>2022-11-04T16:51:46.0000000+00:00</time></trkpt><trkpt lat="39.45335001" lon="-0.34951514"><ele>-5.6</ele><time>2022-11-04T16:51:47.0000000+00:00</time></trkpt><trkpt lat="39.45336166" lon="-0.34951405"><ele>-5.6</ele><time>2022-11-04T16:51:48.0000000+00:00</time></trkpt><trkpt lat="39.45337381" lon="-0.34951338"><ele>-5.6</ele><time>2022-11-04T16:51:49.0000000+00:00</time></trkpt><trkpt lat="39.45338504" lon="-0.34951212"><ele>-5.6</ele><time>2022-11-04T16:51:50.0000000+00:00</time></trkpt><trkpt lat="39.45339695" lon="-0.34951028"><ele>-5.4</ele><time>2022-11-04T16:51:51.0000000+00:00</time></trkpt><trkpt lat="39.45341061" lon="-0.34951036"><ele>-5.4</ele><time>2022-11-04T16:51:52.0000000+00:00</time></trkpt><trkpt lat="39.45342477" lon="-0.34950399"><ele>-5.2</ele><time>2022-11-04T16:51:53.0000000+00:00</time></trkpt><trkpt lat="39.45343726" lon="-0.34949753"><ele>-5.2</ele><time>2022-11-04T16:51:54.0000000+00:00</time></trkpt><trkpt lat="39.45344891" lon="-0.34949519"><ele>-5.2</ele><time>2022-11-04T16:51:55.0000000+00:00</time></trkpt><trkpt lat="39.45345788" lon="-0.34948697"><ele>-5.2</ele><time>2022-11-04T16:51:56.0000000+00:00</time></trkpt><trkpt lat="39.4534671" lon="-0.34947801"><ele>-5.2</ele><time>2022-11-04T16:51:57.0000000+00:00</time></trkpt><trkpt lat="39.45347481" lon="-0.34947038"><ele>-5.2</ele><time>2022-11-04T16:51:58.0000000+00:00</time></trkpt><trkpt lat="39.45348353" lon="-0.34946325"><ele>-5.2</ele><time>2022-11-04T16:51:59.0000000+00:00</time></trkpt><trkpt lat="39.45349191" lon="-0.34945579"><ele>-5.0</ele><time>2022-11-04T16:52:00.0000000+00:00</time></trkpt><trkpt lat="39.45350206" lon="-0.34944833"><ele>-5.0</ele><time>2022-11-04T16:52:01.0000000+00:00</time></trkpt><trkpt lat="39.45351119" lon="-0.34944071"><ele>-5.0</ele><time>2022-11-04T16:52:02.0000000+00:00</time></trkpt><trkpt lat="39.45352217" lon="-0.34943366"><ele>-4.8</ele><time>2022-11-04T16:52:03.0000000+00:00</time></trkpt><trkpt lat="39.4535319" lon="-0.34942612"><ele>-4.8</ele><time>2022-11-04T16:52:04.0000000+00:00</time></trkpt><trkpt lat="39.45354179" lon="-0.3494195"><ele>-4.6</ele><time>2022-11-04T16:52:05.0000000+00:00</time></trkpt><trkpt lat="39.45354388" lon="-0.3494107"><ele>-4.6</ele><time>2022-11-04T16:52:06.0000000+00:00</time></trkpt><trkpt lat="39.45355201" lon="-0.34940676"><ele>-4.6</ele><time>2022-11-04T16:52:07.0000000+00:00</time></trkpt><trkpt lat="39.45356048" lon="-0.34940022"><ele>-4.4</ele><time>2022-11-04T16:52:08.0000000+00:00</time></trkpt><trkpt lat="39.45356727" lon="-0.34939477"><ele>-4.4</ele><time>2022-11-04T16:52:09.0000000+00:00</time></trkpt><trkpt lat="39.45358956" lon="-0.34939569"><ele>-4.4</ele><time>2022-11-04T16:52:10.0000000+00:00</time></trkpt><trkpt lat="39.45360708" lon="-0.34939234"><ele>-4.4</ele><time>2022-11-04T16:52:11.0000000+00:00</time></trkpt><trkpt lat="39.45362393" lon="-0.34938572"><ele>-4.4</ele><time>2022-11-04T16:52:12.0000000+00:00</time></trkpt><trkpt lat="39.45364136" lon="-0.34937876"><ele>-4.4</ele><time>2022-11-04T16:52:13.0000000+00:00</time></trkpt><trkpt lat="39.45365771" lon="-0.34937424"><ele>-4.6</ele><time>2022-11-04T16:52:14.0000000+00:00</time></trkpt><trkpt lat="39.45367388" lon="-0.34937323"><ele>-4.6</ele><time>2022-11-04T16:52:15.0000000+00:00</time></trkpt><trkpt lat="39.4536888" lon="-0.3493703"><ele>-4.6</ele><time>2022-11-04T16:52:16.0000000+00:00</time></trkpt><trkpt lat="39.45369911" lon="-0.34936527"><ele>-4.6</ele><time>2022-11-04T16:52:17.0000000+00:00</time></trkpt><trkpt lat="39.45371077" lon="-0.34935898"><ele>-4.4</ele><time>2022-11-04T16:52:18.0000000+00:00</time></trkpt><trkpt lat="39.45372242" lon="-0.34935672"><ele>-4.4</ele><time>2022-11-04T16:52:19.0000000+00:00</time></trkpt><trkpt lat="39.4537344" lon="-0.34935454"><ele>-4.4</ele><time>2022-11-04T16:52:20.0000000+00:00</time></trkpt><trkpt lat="39.45374932" lon="-0.34934901"><ele>-4.2</ele><time>2022-11-04T16:52:21.0000000+00:00</time></trkpt><trkpt lat="39.45376265" lon="-0.34934155"><ele>-4.2</ele><time>2022-11-04T16:52:22.0000000+00:00</time></trkpt><trkpt lat="39.45377304" lon="-0.34933208"><ele>-4.2</ele><time>2022-11-04T16:52:23.0000000+00:00</time></trkpt><trkpt lat="39.4537852" lon="-0.34932328"><ele>-4.2</ele><time>2022-11-04T16:52:24.0000000+00:00</time></trkpt><trkpt lat="39.45379349" lon="-0.34931171"><ele>-4.0</ele><time>2022-11-04T16:52:25.0000000+00:00</time></trkpt><trkpt lat="39.45380188" lon="-0.3493014"><ele>-4.0</ele><time>2022-11-04T16:52:26.0000000+00:00</time></trkpt><trkpt lat="39.45380934" lon="-0.34929209"><ele>-4.0</ele><time>2022-11-04T16:52:27.0000000+00:00</time></trkpt><trkpt lat="39.4538209" lon="-0.34928673"><ele>-4.0</ele><time>2022-11-04T16:52:28.0000000+00:00</time></trkpt><trkpt lat="39.45383641" lon="-0.34928296"><ele>-4.0</ele><time>2022-11-04T16:52:29.0000000+00:00</time></trkpt><trkpt lat="39.45385158" lon="-0.34927919"><ele>-4.0</ele><time>2022-11-04T16:52:30.0000000+00:00</time></trkpt><trkpt lat="39.45386491" lon="-0.34927743"><ele>-4.0</ele><time>2022-11-04T16:52:31.0000000+00:00</time></trkpt><trkpt lat="39.45387891" lon="-0.34926888"><ele>-4.0</ele><time>2022-11-04T16:52:32.0000000+00:00</time></trkpt><trkpt lat="39.453895" lon="-0.34926334"><ele>-4.2</ele><time>2022-11-04T16:52:33.0000000+00:00</time></trkpt><trkpt lat="39.4539095" lon="-0.34925622"><ele>-4.2</ele><time>2022-11-04T16:52:34.0000000+00:00</time></trkpt><trkpt lat="39.45392224" lon="-0.34924901"><ele>-4.2</ele><time>2022-11-04T16:52:35.0000000+00:00</time></trkpt><trkpt lat="39.45393213" lon="-0.34924541"><ele>-4.2</ele><time>2022-11-04T16:52:36.0000000+00:00</time></trkpt><trkpt lat="39.45394211" lon="-0.34924264"><ele>-4.2</ele><time>2022-11-04T16:52:37.0000000+00:00</time></trkpt><trkpt lat="39.45395325" lon="-0.34923174"><ele>-4.4</ele><time>2022-11-04T16:52:38.0000000+00:00</time></trkpt><trkpt lat="39.45396247" lon="-0.34922361"><ele>-4.4</ele><time>2022-11-04T16:52:39.0000000+00:00</time></trkpt><trkpt lat="39.45397454" lon="-0.34921548"><ele>-4.4</ele><time>2022-11-04T16:52:40.0000000+00:00</time></trkpt><trkpt lat="39.45398804" lon="-0.34921188"><ele>-4.4</ele><time>2022-11-04T16:52:41.0000000+00:00</time></trkpt><trkpt lat="39.45400103" lon="-0.34920987"><ele>-4.4</ele><time>2022-11-04T16:52:42.0000000+00:00</time></trkpt><trkpt lat="39.45401385" lon="-0.34920584"><ele>-4.4</ele><time>2022-11-04T16:52:43.0000000+00:00</time></trkpt><trkpt lat="39.45402676" lon="-0.34920174"><ele>-4.4</ele><time>2022-11-04T16:52:44.0000000+00:00</time></trkpt><trkpt lat="39.45404118" lon="-0.34920073"><ele>-4.4</ele><time>2022-11-04T16:52:45.0000000+00:00</time></trkpt><trkpt lat="39.45405107" lon="-0.34919939"><ele>-4.4</ele><time>2022-11-04T16:52:46.0000000+00:00</time></trkpt><trkpt lat="39.45406364" lon="-0.34919453"><ele>-4.4</ele><time>2022-11-04T16:52:47.0000000+00:00</time></trkpt><trkpt lat="39.45407563" lon="-0.34918732"><ele>-4.4</ele><time>2022-11-04T16:52:48.0000000+00:00</time></trkpt><trkpt lat="39.45408979" lon="-0.34917181"><ele>-4.4</ele><time>2022-11-04T16:52:49.0000000+00:00</time></trkpt><trkpt lat="39.45410497" lon="-0.34916142"><ele>-4.4</ele><time>2022-11-04T16:52:50.0000000+00:00</time></trkpt><trkpt lat="39.45411846" lon="-0.34915363"><ele>-4.4</ele><time>2022-11-04T16:52:51.0000000+00:00</time></trkpt><trkpt lat="39.45412483" lon="-0.34911918"><ele>-4.4</ele><time>2022-11-04T16:52:52.0000000+00:00</time></trkpt><trkpt lat="39.45411729" lon="-0.34908724"><ele>-4.2</ele><time>2022-11-04T16:52:53.0000000+00:00</time></trkpt><trkpt lat="39.45411653" lon="-0.34906955"><ele>-4.4</ele><time>2022-11-04T16:52:54.0000000+00:00</time></trkpt><trkpt lat="39.45412005" lon="-0.34906235"><ele>-4.4</ele><time>2022-11-04T16:52:55.0000000+00:00</time></trkpt><trkpt lat="39.4541302" lon="-0.34907643"><ele>-4.4</ele><time>2022-11-04T16:52:56.0000000+00:00</time></trkpt><trkpt lat="39.45414797" lon="-0.34909101"><ele>-4.4</ele><time>2022-11-04T16:52:57.0000000+00:00</time></trkpt><trkpt lat="39.45416372" lon="-0.34910702"><ele>-4.6</ele><time>2022-11-04T16:52:58.0000000+00:00</time></trkpt><trkpt lat="39.4541825" lon="-0.34912563"><ele>-4.8</ele><time>2022-11-04T16:52:59.0000000+00:00</time></trkpt><trkpt lat="39.45420136" lon="-0.3491325"><ele>-4.8</ele><time>2022-11-04T16:53:00.0000000+00:00</time></trkpt><trkpt lat="39.4542141" lon="-0.34913208"><ele>-4.8</ele><time>2022-11-04T16:53:01.0000000+00:00</time></trkpt><trkpt lat="39.45422499" lon="-0.34913024"><ele>-5.0</ele><time>2022-11-04T16:53:02.0000000+00:00</time></trkpt><trkpt lat="39.45423941" lon="-0.34913099"><ele>-5.0</ele><time>2022-11-04T16:53:03.0000000+00:00</time></trkpt><trkpt lat="39.45425626" lon="-0.3491356"><ele>-5.0</ele><time>2022-11-04T16:53:04.0000000+00:00</time></trkpt><trkpt lat="39.45426799" lon="-0.34913837"><ele>-5.0</ele><time>2022-11-04T16:53:05.0000000+00:00</time></trkpt><trkpt lat="39.4542773" lon="-0.3491413"><ele>-5.0</ele><time>2022-11-04T16:53:06.0000000+00:00</time></trkpt><trkpt lat="39.45428585" lon="-0.34914591"><ele>-5.0</ele><time>2022-11-04T16:53:07.0000000+00:00</time></trkpt><trkpt lat="39.45429364" lon="-0.34915237"><ele>-5.0</ele><time>2022-11-04T16:53:08.0000000+00:00</time></trkpt><trkpt lat="39.45430169" lon="-0.34916016"><ele>-5.0</ele><time>2022-11-04T16:53:09.0000000+00:00</time></trkpt><trkpt lat="39.45430605" lon="-0.34917064"><ele>-4.8</ele><time>2022-11-04T16:53:10.0000000+00:00</time></trkpt><trkpt lat="39.45431024" lon="-0.34917852"><ele>-4.8</ele><time>2022-11-04T16:53:11.0000000+00:00</time></trkpt><trkpt lat="39.45431309" lon="-0.34918254"><ele>-4.8</ele><time>2022-11-04T16:53:12.0000000+00:00</time></trkpt><trkpt lat="39.45431384" lon="-0.34918489"><ele>-4.8</ele><time>2022-11-04T16:53:13.0000000+00:00</time></trkpt><trkpt lat="39.4543177" lon="-0.34918824"><ele>-4.8</ele><time>2022-11-04T16:53:14.0000000+00:00</time></trkpt><trkpt lat="39.45432977" lon="-0.34918891"><ele>-4.8</ele><time>2022-11-04T16:53:15.0000000+00:00</time></trkpt><trkpt lat="39.45434947" lon="-0.34917693"><ele>-4.8</ele><time>2022-11-04T16:53:16.0000000+00:00</time></trkpt><trkpt lat="39.45436774" lon="-0.34916628"><ele>-4.8</ele><time>2022-11-04T16:53:17.0000000+00:00</time></trkpt><trkpt lat="39.45437604" lon="-0.34915974"><ele>-4.6</ele><time>2022-11-04T16:53:18.0000000+00:00</time></trkpt><trkpt lat="39.45439003" lon="-0.34915874"><ele>-4.6</ele><time>2022-11-04T16:53:19.0000000+00:00</time></trkpt><trkpt lat="39.45440345" lon="-0.34916016"><ele>-4.6</ele><time>2022-11-04T16:53:20.0000000+00:00</time></trkpt><trkpt lat="39.45441543" lon="-0.34916829"><ele>-4.6</ele><time>2022-11-04T16:53:21.0000000+00:00</time></trkpt><trkpt lat="39.45442985" lon="-0.34917735"><ele>-4.6</ele><time>2022-11-04T16:53:22.0000000+00:00</time></trkpt><trkpt lat="39.45444385" lon="-0.34918858"><ele>-4.6</ele><time>2022-11-04T16:53:23.0000000+00:00</time></trkpt><trkpt lat="39.45445734" lon="-0.34920031"><ele>-4.4</ele><time>2022-11-04T16:53:24.0000000+00:00</time></trkpt><trkpt lat="39.45446455" lon="-0.34920534"><ele>-4.4</ele><time>2022-11-04T16:53:25.0000000+00:00</time></trkpt><trkpt lat="39.45447008" lon="-0.34921599"><ele>-4.4</ele><time>2022-11-04T16:53:26.0000000+00:00</time></trkpt><trkpt lat="39.45447746" lon="-0.34921699"><ele>-4.4</ele><time>2022-11-04T16:53:27.0000000+00:00</time></trkpt><trkpt lat="39.45448483" lon="-0.34922143"><ele>-4.4</ele><time>2022-11-04T16:53:28.0000000+00:00</time></trkpt><trkpt lat="39.45449322" lon="-0.34922881"><ele>-4.4</ele><time>2022-11-04T16:53:29.0000000+00:00</time></trkpt><trkpt lat="39.45450135" lon="-0.34923677"><ele>-4.4</ele><time>2022-11-04T16:53:30.0000000+00:00</time></trkpt><trkpt lat="39.45450218" lon="-0.34925186"><ele>-4.4</ele><time>2022-11-04T16:53:31.0000000+00:00</time></trkpt><trkpt lat="39.45450537" lon="-0.34925697"><ele>-4.4</ele><time>2022-11-04T16:53:32.0000000+00:00</time></trkpt><trkpt lat="39.45451291" lon="-0.34926712"><ele>-4.6</ele><time>2022-11-04T16:53:33.0000000+00:00</time></trkpt><trkpt lat="39.45451727" lon="-0.34928204"><ele>-4.6</ele><time>2022-11-04T16:53:34.0000000+00:00</time></trkpt><trkpt lat="39.45452398" lon="-0.34928958"><ele>-4.8</ele><time>2022-11-04T16:53:35.0000000+00:00</time></trkpt><trkpt lat="39.45453102" lon="-0.34929553"><ele>-4.8</ele><time>2022-11-04T16:53:36.0000000+00:00</time></trkpt><trkpt lat="39.45453865" lon="-0.34930115"><ele>-5.0</ele><time>2022-11-04T16:53:37.0000000+00:00</time></trkpt><trkpt lat="39.45454401" lon="-0.34930525"><ele>-5.0</ele><time>2022-11-04T16:53:38.0000000+00:00</time></trkpt><trkpt lat="39.45454627" lon="-0.3493071"><ele>-5.0</ele><time>2022-11-04T16:53:39.0000000+00:00</time></trkpt><trkpt lat="39.45454745" lon="-0.34930743"><ele>-5.0</ele><time>2022-11-04T16:53:40.0000000+00:00</time></trkpt><trkpt lat="39.45454778" lon="-0.34930777"><ele>-5.2</ele><time>2022-11-04T16:53:41.0000000+00:00</time></trkpt><trkpt lat="39.45454644" lon="-0.34930944"><ele>-5.2</ele><time>2022-11-04T16:53:42.0000000+00:00</time></trkpt><trkpt lat="39.45454594" lon="-0.34930953"><ele>-5.2</ele><time>2022-11-04T16:53:43.0000000+00:00</time></trkpt><trkpt lat="39.45454451" lon="-0.34930986"><ele>-5.2</ele><time>2022-11-04T16:53:44.0000000+00:00</time></trkpt><trkpt lat="39.45454326" lon="-0.34931003"><ele>-5.2</ele><time>2022-11-04T16:53:45.0000000+00:00</time></trkpt><trkpt lat="39.45454191" lon="-0.34930936"><ele>-5.2</ele><time>2022-11-04T16:53:46.0000000+00:00</time></trkpt><trkpt lat="39.45454083" lon="-0.34930861"><ele>-5.2</ele><time>2022-11-04T16:53:47.0000000+00:00</time></trkpt><trkpt lat="39.45454024" lon="-0.34930852"><ele>-5.0</ele><time>2022-11-04T16:53:48.0000000+00:00</time></trkpt><trkpt lat="39.45454024" lon="-0.34930852"><ele>-5.0</ele><time>2022-11-04T16:53:49.0000000+00:00</time></trkpt><trkpt lat="39.45454024" lon="-0.34930852"><ele>-5.0</ele><time>2022-11-04T16:53:50.0000000+00:00</time></trkpt><trkpt lat="39.45454024" lon="-0.34930852"><ele>-5.0</ele><time>2022-11-04T16:53:51.0000000+00:00</time></trkpt><trkpt lat="39.45454024" lon="-0.34930852"><ele>-5.0</ele><time>2022-11-04T16:53:52.0000000+00:00</time></trkpt><trkpt lat="39.45454024" lon="-0.34930852"><ele>-5.0</ele><time>2022-11-04T16:53:53.0000000+00:00</time></trkpt><trkpt lat="39.45454024" lon="-0.34930852"><ele>-5.0</ele><time>2022-11-04T16:53:54.0000000+00:00</time></trkpt><trkpt lat="39.45454024" lon="-0.34930852"><ele>-5.0</ele><time>2022-11-04T16:53:55.0000000+00:00</time></trkpt><trkpt lat="39.45454024" lon="-0.34930852"><ele>-5.2</ele><time>2022-11-04T16:53:56.0000000+00:00</time></trkpt><trkpt lat="39.45454024" lon="-0.34930852"><ele>-5.2</ele><time>2022-11-04T16:53:57.0000000+00:00</time></trkpt><trkpt lat="39.45454141" lon="-0.34931129"><ele>-5.4</ele><time>2022-11-04T16:53:58.0000000+00:00</time></trkpt><trkpt lat="39.45454594" lon="-0.34932856"><ele>-5.4</ele><time>2022-11-04T16:53:59.0000000+00:00</time></trkpt><trkpt lat="39.45455357" lon="-0.34934088"><ele>-5.6</ele><time>2022-11-04T16:54:00.0000000+00:00</time></trkpt><trkpt lat="39.45456178" lon="-0.34935412"><ele>-5.6</ele><time>2022-11-04T16:54:01.0000000+00:00</time></trkpt><trkpt lat="39.45457167" lon="-0.34936661"><ele>-5.6</ele><time>2022-11-04T16:54:02.0000000+00:00</time></trkpt><trkpt lat="39.45458156" lon="-0.34937793"><ele>-5.6</ele><time>2022-11-04T16:54:03.0000000+00:00</time></trkpt><trkpt lat="39.45459028" lon="-0.34938849"><ele>-5.6</ele><time>2022-11-04T16:54:04.0000000+00:00</time></trkpt><trkpt lat="39.45459874" lon="-0.34939678"><ele>-5.6</ele><time>2022-11-04T16:54:05.0000000+00:00</time></trkpt><trkpt lat="39.45460553" lon="-0.34940441"><ele>-5.6</ele><time>2022-11-04T16:54:06.0000000+00:00</time></trkpt><trkpt lat="39.454615" lon="-0.34941497"><ele>-5.6</ele><time>2022-11-04T16:54:07.0000000+00:00</time></trkpt><trkpt lat="39.45462255" lon="-0.34942344"><ele>-5.8</ele><time>2022-11-04T16:54:08.0000000+00:00</time></trkpt><trkpt lat="39.45462984" lon="-0.3494335"><ele>-5.8</ele><time>2022-11-04T16:54:09.0000000+00:00</time></trkpt><trkpt lat="39.45463579" lon="-0.34943685"><ele>-5.8</ele><time>2022-11-04T16:54:10.0000000+00:00</time></trkpt><trkpt lat="39.45464199" lon="-0.34944121"><ele>-5.8</ele><time>2022-11-04T16:54:11.0000000+00:00</time></trkpt><trkpt lat="39.45465029" lon="-0.34945118"><ele>-5.8</ele><time>2022-11-04T16:54:12.0000000+00:00</time></trkpt><trkpt lat="39.45465406" lon="-0.34945864"><ele>-5.8</ele><time>2022-11-04T16:54:13.0000000+00:00</time></trkpt><trkpt lat="39.45465842" lon="-0.34946091"><ele>-5.8</ele><time>2022-11-04T16:54:14.0000000+00:00</time></trkpt><trkpt lat="39.45466354" lon="-0.34946074"><ele>-5.8</ele><time>2022-11-04T16:54:15.0000000+00:00</time></trkpt><trkpt lat="39.45467175" lon="-0.34946133"><ele>-5.8</ele><time>2022-11-04T16:54:16.0000000+00:00</time></trkpt><trkpt lat="39.45468357" lon="-0.349463"><ele>-5.8</ele><time>2022-11-04T16:54:17.0000000+00:00</time></trkpt><trkpt lat="39.45469036" lon="-0.34946443"><ele>-5.8</ele><time>2022-11-04T16:54:18.0000000+00:00</time></trkpt><trkpt lat="39.45469396" lon="-0.34946258"><ele>-6.0</ele><time>2022-11-04T16:54:19.0000000+00:00</time></trkpt><trkpt lat="39.45469623" lon="-0.3494542"><ele>-6.0</ele><time>2022-11-04T16:54:20.0000000+00:00</time></trkpt><trkpt lat="39.45469748" lon="-0.34944012"><ele>-6.2</ele><time>2022-11-04T16:54:21.0000000+00:00</time></trkpt><trkpt lat="39.45469765" lon="-0.34943618"><ele>-6.2</ele><time>2022-11-04T16:54:22.0000000+00:00</time></trkpt><trkpt lat="39.45468977" lon="-0.34940835"><ele>-6.2</ele><time>2022-11-04T16:54:23.0000000+00:00</time></trkpt><trkpt lat="39.45468164" lon="-0.34938287"><ele>-6.2</ele><time>2022-11-04T16:54:24.0000000+00:00</time></trkpt><trkpt lat="39.45468131" lon="-0.34938103"><ele>-6.2</ele><time>2022-11-04T16:54:25.0000000+00:00</time></trkpt><trkpt lat="39.45468382" lon="-0.34937918"><ele>-6.0</ele><time>2022-11-04T16:54:26.0000000+00:00</time></trkpt><trkpt lat="39.45468608" lon="-0.34937767"><ele>-5.8</ele><time>2022-11-04T16:54:27.0000000+00:00</time></trkpt><trkpt lat="39.45467779" lon="-0.34937969"><ele>-5.8</ele><time>2022-11-04T16:54:28.0000000+00:00</time></trkpt><trkpt lat="39.45467049" lon="-0.3493879"><ele>-5.8</ele><time>2022-11-04T16:54:29.0000000+00:00</time></trkpt><trkpt lat="39.45467083" lon="-0.34939469"><ele>-5.8</ele><time>2022-11-04T16:54:30.0000000+00:00</time></trkpt><trkpt lat="39.45466748" lon="-0.34940441"><ele>-5.8</ele><time>2022-11-04T16:54:31.0000000+00:00</time></trkpt><trkpt lat="39.45466714" lon="-0.34941246"><ele>-5.6</ele><time>2022-11-04T16:54:32.0000000+00:00</time></trkpt><trkpt lat="39.45467007" lon="-0.34942704"><ele>-5.6</ele><time>2022-11-04T16:54:33.0000000+00:00</time></trkpt><trkpt lat="39.45467376" lon="-0.34943618"><ele>-5.6</ele><time>2022-11-04T16:54:34.0000000+00:00</time></trkpt><trkpt lat="39.4546772" lon="-0.3494428"><ele>-5.6</ele><time>2022-11-04T16:54:35.0000000+00:00</time></trkpt><trkpt lat="39.45468072" lon="-0.3494454"><ele>-5.6</ele><time>2022-11-04T16:54:36.0000000+00:00</time></trkpt><trkpt lat="39.45469094" lon="-0.34944892"><ele>-5.6</ele><time>2022-11-04T16:54:37.0000000+00:00</time></trkpt><trkpt lat="39.45470553" lon="-0.34945319"><ele>-5.6</ele><time>2022-11-04T16:54:38.0000000+00:00</time></trkpt><trkpt lat="39.45472489" lon="-0.34945755"><ele>-5.6</ele><time>2022-11-04T16:54:39.0000000+00:00</time></trkpt><trkpt lat="39.45474811" lon="-0.34946099"><ele>-5.6</ele><time>2022-11-04T16:54:40.0000000+00:00</time></trkpt><trkpt lat="39.4547673" lon="-0.34946275"><ele>-5.8</ele><time>2022-11-04T16:54:41.0000000+00:00</time></trkpt><trkpt lat="39.45478449" lon="-0.34946459"><ele>-5.8</ele><time>2022-11-04T16:54:42.0000000+00:00</time></trkpt><trkpt lat="39.454801" lon="-0.34946535"><ele>-5.8</ele><time>2022-11-04T16:54:43.0000000+00:00</time></trkpt><trkpt lat="39.45481584" lon="-0.34946736"><ele>-5.8</ele><time>2022-11-04T16:54:44.0000000+00:00</time></trkpt><trkpt lat="39.45483092" lon="-0.34947465"><ele>-5.8</ele><time>2022-11-04T16:54:45.0000000+00:00</time></trkpt><trkpt lat="39.45484769" lon="-0.34948127"><ele>-5.8</ele><time>2022-11-04T16:54:46.0000000+00:00</time></trkpt><trkpt lat="39.45486696" lon="-0.34948505"><ele>-5.8</ele><time>2022-11-04T16:54:47.0000000+00:00</time></trkpt><trkpt lat="39.45488918" lon="-0.34948873"><ele>-5.6</ele><time>2022-11-04T16:54:48.0000000+00:00</time></trkpt><trkpt lat="39.45490946" lon="-0.34949569"><ele>-5.6</ele><time>2022-11-04T16:54:49.0000000+00:00</time></trkpt><trkpt lat="39.4549253" lon="-0.3495034"><ele>-5.6</ele><time>2022-11-04T16:54:50.0000000+00:00</time></trkpt><trkpt lat="39.45493955" lon="-0.34951002"><ele>-5.4</ele><time>2022-11-04T16:54:51.0000000+00:00</time></trkpt><trkpt lat="39.4549538" lon="-0.34951204"><ele>-5.4</ele><time>2022-11-04T16:54:52.0000000+00:00</time></trkpt><trkpt lat="39.45496964" lon="-0.3495179"><ele>-5.4</ele><time>2022-11-04T16:54:53.0000000+00:00</time></trkpt><trkpt lat="39.45498674" lon="-0.34952042"><ele>-5.4</ele><time>2022-11-04T16:54:54.0000000+00:00</time></trkpt><trkpt lat="39.45500334" lon="-0.34952218"><ele>-5.4</ele><time>2022-11-04T16:54:55.0000000+00:00</time></trkpt><trkpt lat="39.45501859" lon="-0.34951572"><ele>-5.6</ele><time>2022-11-04T16:54:56.0000000+00:00</time></trkpt><trkpt lat="39.45503511" lon="-0.34951095"><ele>-5.6</ele><time>2022-11-04T16:54:57.0000000+00:00</time></trkpt><trkpt lat="39.45505271" lon="-0.34950675"><ele>-5.6</ele><time>2022-11-04T16:54:58.0000000+00:00</time></trkpt><trkpt lat="39.45507224" lon="-0.3495034"><ele>-5.4</ele><time>2022-11-04T16:54:59.0000000+00:00</time></trkpt><trkpt lat="39.45509085" lon="-0.34950064"><ele>-5.4</ele><time>2022-11-04T16:55:00.0000000+00:00</time></trkpt><trkpt lat="39.45510761" lon="-0.34949552"><ele>-5.4</ele><time>2022-11-04T16:55:01.0000000+00:00</time></trkpt><trkpt lat="39.45512479" lon="-0.349491"><ele>-5.4</ele><time>2022-11-04T16:55:02.0000000+00:00</time></trkpt><trkpt lat="39.45514239" lon="-0.34948756"><ele>-5.4</ele><time>2022-11-04T16:55:03.0000000+00:00</time></trkpt><trkpt lat="39.45516176" lon="-0.34948136"><ele>-5.4</ele><time>2022-11-04T16:55:04.0000000+00:00</time></trkpt><trkpt lat="39.45518355" lon="-0.34947909"><ele>-5.6</ele><time>2022-11-04T16:55:05.0000000+00:00</time></trkpt><trkpt lat="39.45520802" lon="-0.34948178"><ele>-5.6</ele><time>2022-11-04T16:55:06.0000000+00:00</time></trkpt><trkpt lat="39.45523292" lon="-0.34949192"><ele>-5.6</ele><time>2022-11-04T16:55:07.0000000+00:00</time></trkpt><trkpt lat="39.45525304" lon="-0.34949645"><ele>-5.6</ele><time>2022-11-04T16:55:08.0000000+00:00</time></trkpt><trkpt lat="39.45525697" lon="-0.34949502"><ele>-5.6</ele><time>2022-11-04T16:55:09.0000000+00:00</time></trkpt><trkpt lat="39.45525798" lon="-0.34949292"><ele>-5.8</ele><time>2022-11-04T16:55:10.0000000+00:00</time></trkpt><trkpt lat="39.45525848" lon="-0.34949158"><ele>-5.8</ele><time>2022-11-04T16:55:11.0000000+00:00</time></trkpt><trkpt lat="39.45525815" lon="-0.34948974"><ele>-5.8</ele><time>2022-11-04T16:55:12.0000000+00:00</time></trkpt><trkpt lat="39.45525765" lon="-0.34948756"><ele>-5.6</ele><time>2022-11-04T16:55:13.0000000+00:00</time></trkpt><trkpt lat="39.45525731" lon="-0.34948605"><ele>-5.6</ele><time>2022-11-04T16:55:14.0000000+00:00</time></trkpt><trkpt lat="39.45525756" lon="-0.34948521"><ele>-5.6</ele><time>2022-11-04T16:55:15.0000000+00:00</time></trkpt><trkpt lat="39.45527198" lon="-0.34948848"><ele>-5.6</ele><time>2022-11-04T16:55:16.0000000+00:00</time></trkpt><trkpt lat="39.45527483" lon="-0.3494884"><ele>-5.6</ele><time>2022-11-04T16:55:17.0000000+00:00</time></trkpt><trkpt lat="39.45527508" lon="-0.34948815"><ele>-5.6</ele><time>2022-11-04T16:55:18.0000000+00:00</time></trkpt><trkpt lat="39.45527525" lon="-0.34948982"><ele>-5.6</ele><time>2022-11-04T16:55:19.0000000+00:00</time></trkpt><trkpt lat="39.45527583" lon="-0.34949041"><ele>-5.6</ele><time>2022-11-04T16:55:20.0000000+00:00</time></trkpt><trkpt lat="39.45527617" lon="-0.34949007"><ele>-5.6</ele><time>2022-11-04T16:55:21.0000000+00:00</time></trkpt><trkpt lat="39.45527575" lon="-0.34948932"><ele>-5.6</ele><time>2022-11-04T16:55:22.0000000+00:00</time></trkpt><trkpt lat="39.45527575" lon="-0.34948932"><ele>-5.6</ele><time>2022-11-04T16:55:23.0000000+00:00</time></trkpt><trkpt lat="39.45527575" lon="-0.34948932"><ele>-5.6</ele><time>2022-11-04T16:55:24.0000000+00:00</time></trkpt><trkpt lat="39.45527575" lon="-0.34948932"><ele>-5.6</ele><time>2022-11-04T16:55:25.0000000+00:00</time></trkpt><trkpt lat="39.45527575" lon="-0.34948932"><ele>-5.6</ele><time>2022-11-04T16:55:26.0000000+00:00</time></trkpt><trkpt lat="39.45527575" lon="-0.34948932"><ele>-5.6</ele><time>2022-11-04T16:55:27.0000000+00:00</time></trkpt><trkpt lat="39.45527575" lon="-0.34948932"><ele>-5.6</ele><time>2022-11-04T16:55:28.0000000+00:00</time></trkpt><trkpt lat="39.45527575" lon="-0.34948932"><ele>-5.6</ele><time>2022-11-04T16:55:29.0000000+00:00</time></trkpt><trkpt lat="39.45527575" lon="-0.34948932"><ele>-5.6</ele><time>2022-11-04T16:55:30.0000000+00:00</time></trkpt><trkpt lat="39.45527575" lon="-0.34948932"><ele>-5.6</ele><time>2022-11-04T16:55:31.0000000+00:00</time></trkpt><trkpt lat="39.45527575" lon="-0.34948932"><ele>-5.6</ele><time>2022-11-04T16:55:32.0000000+00:00</time></trkpt><trkpt lat="39.45527575" lon="-0.34948873"><ele>-5.6</ele><time>2022-11-04T16:55:33.0000000+00:00</time></trkpt><trkpt lat="39.45527575" lon="-0.34948848"><ele>-5.6</ele><time>2022-11-04T16:55:34.0000000+00:00</time></trkpt><trkpt lat="39.45527575" lon="-0.34948848"><ele>-5.6</ele><time>2022-11-04T16:55:35.0000000+00:00</time></trkpt><trkpt lat="39.45527583" lon="-0.34948848"><ele>-5.6</ele><time>2022-11-04T16:55:36.0000000+00:00</time></trkpt><trkpt lat="39.45527609" lon="-0.34948848"><ele>-5.6</ele><time>2022-11-04T16:55:37.0000000+00:00</time></trkpt><trkpt lat="39.45528581" lon="-0.34948848"><ele>-5.6</ele><time>2022-11-04T16:55:38.0000000+00:00</time></trkpt><trkpt lat="39.45528933" lon="-0.34949318"><ele>-5.6</ele><time>2022-11-04T16:55:39.0000000+00:00</time></trkpt><trkpt lat="39.45530115" lon="-0.34951036"><ele>-5.6</ele><time>2022-11-04T16:55:40.0000000+00:00</time></trkpt><trkpt lat="39.45531339" lon="-0.34952662"><ele>-5.6</ele><time>2022-11-04T16:55:41.0000000+00:00</time></trkpt><trkpt lat="39.45532629" lon="-0.34954447"><ele>-5.6</ele><time>2022-11-04T16:55:42.0000000+00:00</time></trkpt><trkpt lat="39.45534138" lon="-0.34955964"><ele>-5.6</ele><time>2022-11-04T16:55:43.0000000+00:00</time></trkpt><trkpt lat="39.4553568" lon="-0.34957046"><ele>-5.6</ele><time>2022-11-04T16:55:44.0000000+00:00</time></trkpt><trkpt lat="39.45537239" lon="-0.3495785"><ele>-5.6</ele><time>2022-11-04T16:55:45.0000000+00:00</time></trkpt><trkpt lat="39.45538815" lon="-0.34958764"><ele>-5.6</ele><time>2022-11-04T16:55:46.0000000+00:00</time></trkpt><trkpt lat="39.45540508" lon="-0.34959812"><ele>-5.6</ele><time>2022-11-04T16:55:47.0000000+00:00</time></trkpt><trkpt lat="39.4554247" lon="-0.34960843"><ele>-5.6</ele><time>2022-11-04T16:55:48.0000000+00:00</time></trkpt><trkpt lat="39.45543794" lon="-0.34962108"><ele>-5.2</ele><time>2022-11-04T16:55:49.0000000+00:00</time></trkpt><trkpt lat="39.4554459" lon="-0.34963408"><ele>-4.8</ele><time>2022-11-04T16:55:50.0000000+00:00</time></trkpt><trkpt lat="39.45545713" lon="-0.3496345"><ele>-4.6</ele><time>2022-11-04T16:55:51.0000000+00:00</time></trkpt><trkpt lat="39.45546803" lon="-0.34963014"><ele>-4.6</ele><time>2022-11-04T16:55:52.0000000+00:00</time></trkpt><trkpt lat="39.45548915" lon="-0.34963416"><ele>-4.4</ele><time>2022-11-04T16:55:53.0000000+00:00</time></trkpt><trkpt lat="39.45551095" lon="-0.34964313"><ele>-4.4</ele><time>2022-11-04T16:55:54.0000000+00:00</time></trkpt><trkpt lat="39.45553391" lon="-0.34964866"><ele>-4.4</ele><time>2022-11-04T16:55:55.0000000+00:00</time></trkpt><trkpt lat="39.4555485" lon="-0.34964799"><ele>-4.4</ele><time>2022-11-04T16:55:56.0000000+00:00</time></trkpt><trkpt lat="39.45555663" lon="-0.34964673"><ele>-4.2</ele><time>2022-11-04T16:55:57.0000000+00:00</time></trkpt><trkpt lat="39.45556426" lon="-0.34964506"><ele>-4.2</ele><time>2022-11-04T16:55:58.0000000+00:00</time></trkpt><trkpt lat="39.4555713" lon="-0.34963223"><ele>-4.4</ele><time>2022-11-04T16:55:59.0000000+00:00</time></trkpt><trkpt lat="39.45558026" lon="-0.34962134"><ele>-5.0</ele><time>2022-11-04T16:56:00.0000000+00:00</time></trkpt><trkpt lat="39.45558798" lon="-0.34961119"><ele>-5.2</ele><time>2022-11-04T16:56:01.0000000+00:00</time></trkpt><trkpt lat="39.45559359" lon="-0.34960248"><ele>-5.6</ele><time>2022-11-04T16:56:02.0000000+00:00</time></trkpt><trkpt lat="39.45559938" lon="-0.34959275"><ele>-5.8</ele><time>2022-11-04T16:56:03.0000000+00:00</time></trkpt><trkpt lat="39.45560675" lon="-0.34958454"><ele>-5.8</ele><time>2022-11-04T16:56:04.0000000+00:00</time></trkpt><trkpt lat="39.45561329" lon="-0.34957867"><ele>-5.8</ele><time>2022-11-04T16:56:05.0000000+00:00</time></trkpt><trkpt lat="39.45562067" lon="-0.34957339"><ele>-5.8</ele><time>2022-11-04T16:56:06.0000000+00:00</time></trkpt><trkpt lat="39.45562972" lon="-0.34957096"><ele>-5.8</ele><time>2022-11-04T16:56:07.0000000+00:00</time></trkpt><trkpt lat="39.45563668" lon="-0.34957272"><ele>-5.6</ele><time>2022-11-04T16:56:08.0000000+00:00</time></trkpt><trkpt lat="39.45564942" lon="-0.34957482"><ele>-5.6</ele><time>2022-11-04T16:56:09.0000000+00:00</time></trkpt><trkpt lat="39.45566584" lon="-0.34957892"><ele>-5.6</ele><time>2022-11-04T16:56:10.0000000+00:00</time></trkpt><trkpt lat="39.45567724" lon="-0.34958613"><ele>-5.6</ele><time>2022-11-04T16:56:11.0000000+00:00</time></trkpt><trkpt lat="39.45568789" lon="-0.349592"><ele>-5.6</ele><time>2022-11-04T16:56:12.0000000+00:00</time></trkpt><trkpt lat="39.45569845" lon="-0.34960055"><ele>-5.6</ele><time>2022-11-04T16:56:13.0000000+00:00</time></trkpt><trkpt lat="39.45570801" lon="-0.34960725"><ele>-5.6</ele><time>2022-11-04T16:56:14.0000000+00:00</time></trkpt><trkpt lat="39.4557179" lon="-0.34961622"><ele>-5.6</ele><time>2022-11-04T16:56:15.0000000+00:00</time></trkpt><trkpt lat="39.45572686" lon="-0.34962863"><ele>-5.6</ele><time>2022-11-04T16:56:16.0000000+00:00</time></trkpt><trkpt lat="39.4557365" lon="-0.34963885"><ele>-5.6</ele><time>2022-11-04T16:56:17.0000000+00:00</time></trkpt><trkpt lat="39.45574564" lon="-0.34964925"><ele>-5.4</ele><time>2022-11-04T16:56:18.0000000+00:00</time></trkpt><trkpt lat="39.4557552" lon="-0.34965889"><ele>-5.4</ele><time>2022-11-04T16:56:19.0000000+00:00</time></trkpt><trkpt lat="39.45576475" lon="-0.34966911"><ele>-5.4</ele><time>2022-11-04T16:56:20.0000000+00:00</time></trkpt><trkpt lat="39.45577615" lon="-0.3496785"><ele>-5.2</ele><time>2022-11-04T16:56:21.0000000+00:00</time></trkpt><trkpt lat="39.45578629" lon="-0.34968856"><ele>-5.2</ele><time>2022-11-04T16:56:22.0000000+00:00</time></trkpt><trkpt lat="39.45579509" lon="-0.34969753"><ele>-5.0</ele><time>2022-11-04T16:56:23.0000000+00:00</time></trkpt><trkpt lat="39.45580423" lon="-0.34970775"><ele>-5.0</ele><time>2022-11-04T16:56:24.0000000+00:00</time></trkpt><trkpt lat="39.45581161" lon="-0.34971672"><ele>-5.0</ele><time>2022-11-04T16:56:25.0000000+00:00</time></trkpt><trkpt lat="39.45581932" lon="-0.34972871"><ele>-4.8</ele><time>2022-11-04T16:56:26.0000000+00:00</time></trkpt><trkpt lat="39.45582845" lon="-0.34974212"><ele>-4.8</ele><time>2022-11-04T16:56:27.0000000+00:00</time></trkpt><trkpt lat="39.45583801" lon="-0.34975377"><ele>-4.8</ele><time>2022-11-04T16:56:28.0000000+00:00</time></trkpt><trkpt lat="39.4558448" lon="-0.34976441"><ele>-4.8</ele><time>2022-11-04T16:56:29.0000000+00:00</time></trkpt><trkpt lat="39.45585301" lon="-0.34977447"><ele>-4.8</ele><time>2022-11-04T16:56:30.0000000+00:00</time></trkpt><trkpt lat="39.45586273" lon="-0.34978076"><ele>-4.8</ele><time>2022-11-04T16:56:31.0000000+00:00</time></trkpt><trkpt lat="39.45587372" lon="-0.34978537"><ele>-4.8</ele><time>2022-11-04T16:56:32.0000000+00:00</time></trkpt><trkpt lat="39.45588369" lon="-0.34978629"><ele>-4.8</ele><time>2022-11-04T16:56:33.0000000+00:00</time></trkpt><trkpt lat="39.45589551" lon="-0.34978336"><ele>-4.8</ele><time>2022-11-04T16:56:34.0000000+00:00</time></trkpt><trkpt lat="39.45590565" lon="-0.34977422"><ele>-4.8</ele><time>2022-11-04T16:56:35.0000000+00:00</time></trkpt><trkpt lat="39.45591403" lon="-0.34976726"><ele>-4.8</ele><time>2022-11-04T16:56:36.0000000+00:00</time></trkpt><trkpt lat="39.4559199" lon="-0.3497624"><ele>-4.8</ele><time>2022-11-04T16:56:37.0000000+00:00</time></trkpt><trkpt lat="39.45592401" lon="-0.349764"><ele>-4.8</ele><time>2022-11-04T16:56:38.0000000+00:00</time></trkpt><trkpt lat="39.45592887" lon="-0.34976735"><ele>-4.8</ele><time>2022-11-04T16:56:39.0000000+00:00</time></trkpt><trkpt lat="39.45593272" lon="-0.34976936"><ele>-4.8</ele><time>2022-11-04T16:56:40.0000000+00:00</time></trkpt><trkpt lat="39.4559344" lon="-0.3497702"><ele>-4.8</ele><time>2022-11-04T16:56:41.0000000+00:00</time></trkpt><trkpt lat="39.45593507" lon="-0.34977053"><ele>-4.8</ele><time>2022-11-04T16:56:42.0000000+00:00</time></trkpt><trkpt lat="39.45593524" lon="-0.34977028"><ele>-4.8</ele><time>2022-11-04T16:56:43.0000000+00:00</time></trkpt><trkpt lat="39.45593557" lon="-0.34977053"><ele>-4.8</ele><time>2022-11-04T16:56:44.0000000+00:00</time></trkpt><trkpt lat="39.45593583" lon="-0.34976961"><ele>-4.8</ele><time>2022-11-04T16:56:45.0000000+00:00</time></trkpt><trkpt lat="39.4559339" lon="-0.34976936"><ele>-4.8</ele><time>2022-11-04T16:56:46.0000000+00:00</time></trkpt><trkpt lat="39.45592644" lon="-0.34976919"><ele>-4.6</ele><time>2022-11-04T16:56:47.0000000+00:00</time></trkpt><trkpt lat="39.45592023" lon="-0.34977271"><ele>-4.6</ele><time>2022-11-04T16:56:48.0000000+00:00</time></trkpt><trkpt lat="39.45591294" lon="-0.34978135"><ele>-4.8</ele><time>2022-11-04T16:56:49.0000000+00:00</time></trkpt><trkpt lat="39.45590716" lon="-0.34979283"><ele>-4.8</ele><time>2022-11-04T16:56:50.0000000+00:00</time></trkpt><trkpt lat="39.45590439" lon="-0.34980691"><ele>-4.8</ele><time>2022-11-04T16:56:51.0000000+00:00</time></trkpt><trkpt lat="39.45590532" lon="-0.349822"><ele>-4.8</ele><time>2022-11-04T16:56:52.0000000+00:00</time></trkpt><trkpt lat="39.45591001" lon="-0.34983742"><ele>-4.8</ele><time>2022-11-04T16:56:53.0000000+00:00</time></trkpt><trkpt lat="39.45591822" lon="-0.3498515"><ele>-4.8</ele><time>2022-11-04T16:56:54.0000000+00:00</time></trkpt><trkpt lat="39.45592677" lon="-0.3498634"><ele>-4.8</ele><time>2022-11-04T16:56:55.0000000+00:00</time></trkpt><trkpt lat="39.45593608" lon="-0.34987363"><ele>-4.8</ele><time>2022-11-04T16:56:56.0000000+00:00</time></trkpt><trkpt lat="39.45594261" lon="-0.34988528"><ele>-4.8</ele><time>2022-11-04T16:56:57.0000000+00:00</time></trkpt><trkpt lat="39.45594798" lon="-0.3498976"><ele>-4.8</ele><time>2022-11-04T16:56:58.0000000+00:00</time></trkpt><trkpt lat="39.45595435" lon="-0.34990758"><ele>-4.8</ele><time>2022-11-04T16:56:59.0000000+00:00</time></trkpt><trkpt lat="39.45596013" lon="-0.34992082"><ele>-4.8</ele><time>2022-11-04T16:57:00.0000000+00:00</time></trkpt><trkpt lat="39.45596675" lon="-0.34993473"><ele>-4.8</ele><time>2022-11-04T16:57:01.0000000+00:00</time></trkpt><trkpt lat="39.45597061" lon="-0.34994848"><ele>-4.8</ele><time>2022-11-04T16:57:02.0000000+00:00</time></trkpt><trkpt lat="39.45597757" lon="-0.34996114"><ele>-4.8</ele><time>2022-11-04T16:57:03.0000000+00:00</time></trkpt><trkpt lat="39.45598687" lon="-0.34997413"><ele>-4.8</ele><time>2022-11-04T16:57:04.0000000+00:00</time></trkpt><trkpt lat="39.45599517" lon="-0.34998603"><ele>-4.8</ele><time>2022-11-04T16:57:05.0000000+00:00</time></trkpt><trkpt lat="39.45599928" lon="-0.34999953"><ele>-4.6</ele><time>2022-11-04T16:57:06.0000000+00:00</time></trkpt><trkpt lat="39.4560059" lon="-0.35000967"><ele>-4.6</ele><time>2022-11-04T16:57:07.0000000+00:00</time></trkpt><trkpt lat="39.45601076" lon="-0.35001897"><ele>-4.6</ele><time>2022-11-04T16:57:08.0000000+00:00</time></trkpt><trkpt lat="39.45601738" lon="-0.35003163"><ele>-4.6</ele><time>2022-11-04T16:57:09.0000000+00:00</time></trkpt><trkpt lat="39.45602392" lon="-0.35004429"><ele>-4.6</ele><time>2022-11-04T16:57:10.0000000+00:00</time></trkpt><trkpt lat="39.45602752" lon="-0.35005728"><ele>-4.6</ele><time>2022-11-04T16:57:11.0000000+00:00</time></trkpt><trkpt lat="39.45603197" lon="-0.35007161"><ele>-4.6</ele><time>2022-11-04T16:57:12.0000000+00:00</time></trkpt><trkpt lat="39.45603767" lon="-0.35008527"><ele>-4.6</ele><time>2022-11-04T16:57:13.0000000+00:00</time></trkpt><trkpt lat="39.45604865" lon="-0.35009852"><ele>-4.6</ele><time>2022-11-04T16:57:14.0000000+00:00</time></trkpt><trkpt lat="39.45606155" lon="-0.35011268"><ele>-4.6</ele><time>2022-11-04T16:57:15.0000000+00:00</time></trkpt><trkpt lat="39.45607362" lon="-0.35012484"><ele>-4.8</ele><time>2022-11-04T16:57:16.0000000+00:00</time></trkpt><trkpt lat="39.45608435" lon="-0.35013112"><ele>-5.0</ele><time>2022-11-04T16:57:17.0000000+00:00</time></trkpt><trkpt lat="39.45609449" lon="-0.35014512"><ele>-5.0</ele><time>2022-11-04T16:57:18.0000000+00:00</time></trkpt><trkpt lat="39.45610556" lon="-0.35015468"><ele>-5.0</ele><time>2022-11-04T16:57:19.0000000+00:00</time></trkpt><trkpt lat="39.45611478" lon="-0.35016809"><ele>-5.0</ele><time>2022-11-04T16:57:20.0000000+00:00</time></trkpt><trkpt lat="39.45612157" lon="-0.35018292"><ele>-5.0</ele><time>2022-11-04T16:57:21.0000000+00:00</time></trkpt><trkpt lat="39.45612836" lon="-0.35019734"><ele>-5.0</ele><time>2022-11-04T16:57:22.0000000+00:00</time></trkpt><trkpt lat="39.456138" lon="-0.35020874"><ele>-5.0</ele><time>2022-11-04T16:57:23.0000000+00:00</time></trkpt><trkpt lat="39.45614646" lon="-0.35022341"><ele>-5.0</ele><time>2022-11-04T16:57:24.0000000+00:00</time></trkpt><trkpt lat="39.45615828" lon="-0.35023372"><ele>-5.0</ele><time>2022-11-04T16:57:25.0000000+00:00</time></trkpt><trkpt lat="39.45616599" lon="-0.35024822"><ele>-5.0</ele><time>2022-11-04T16:57:26.0000000+00:00</time></trkpt><trkpt lat="39.45617211" lon="-0.35026163"><ele>-5.0</ele><time>2022-11-04T16:57:27.0000000+00:00</time></trkpt><trkpt lat="39.45617748" lon="-0.35027655"><ele>-5.0</ele><time>2022-11-04T16:57:28.0000000+00:00</time></trkpt><trkpt lat="39.45617999" lon="-0.35029155"><ele>-5.2</ele><time>2022-11-04T16:57:29.0000000+00:00</time></trkpt><trkpt lat="39.45618695" lon="-0.35030454"><ele>-5.2</ele><time>2022-11-04T16:57:30.0000000+00:00</time></trkpt><trkpt lat="39.45619625" lon="-0.35031444"><ele>-5.2</ele><time>2022-11-04T16:57:31.0000000+00:00</time></trkpt><trkpt lat="39.45620287" lon="-0.35032885"><ele>-5.2</ele><time>2022-11-04T16:57:32.0000000+00:00</time></trkpt><trkpt lat="39.45620991" lon="-0.35034427"><ele>-5.2</ele><time>2022-11-04T16:57:33.0000000+00:00</time></trkpt><trkpt lat="39.45621796" lon="-0.35035551"><ele>-5.0</ele><time>2022-11-04T16:57:34.0000000+00:00</time></trkpt><trkpt lat="39.45622651" lon="-0.35036841"><ele>-5.0</ele><time>2022-11-04T16:57:35.0000000+00:00</time></trkpt><trkpt lat="39.45623414" lon="-0.35037906"><ele>-5.0</ele><time>2022-11-04T16:57:36.0000000+00:00</time></trkpt><trkpt lat="39.45624227" lon="-0.35039096"><ele>-4.8</ele><time>2022-11-04T16:57:37.0000000+00:00</time></trkpt><trkpt lat="39.4562509" lon="-0.35040127"><ele>-4.8</ele><time>2022-11-04T16:57:38.0000000+00:00</time></trkpt><trkpt lat="39.45625903" lon="-0.35041326"><ele>-4.8</ele><time>2022-11-04T16:57:39.0000000+00:00</time></trkpt><trkpt lat="39.45626901" lon="-0.3504213"><ele>-4.8</ele><time>2022-11-04T16:57:40.0000000+00:00</time></trkpt><trkpt lat="39.45627764" lon="-0.3504265"><ele>-4.8</ele><time>2022-11-04T16:57:41.0000000+00:00</time></trkpt><trkpt lat="39.45628066" lon="-0.3504291"><ele>-4.8</ele><time>2022-11-04T16:57:42.0000000+00:00</time></trkpt><trkpt lat="39.456282" lon="-0.35043036"><ele>-5.0</ele><time>2022-11-04T16:57:43.0000000+00:00</time></trkpt><trkpt lat="39.45628292" lon="-0.35043002"><ele>-5.0</ele><time>2022-11-04T16:57:44.0000000+00:00</time></trkpt><trkpt lat="39.4562789" lon="-0.35042256"><ele>-5.0</ele><time>2022-11-04T16:57:45.0000000+00:00</time></trkpt><trkpt lat="39.45627982" lon="-0.3504094"><ele>-5.0</ele><time>2022-11-04T16:57:46.0000000+00:00</time></trkpt><trkpt lat="39.45627764" lon="-0.35040588"><ele>-5.0</ele><time>2022-11-04T16:57:47.0000000+00:00</time></trkpt><trkpt lat="39.4562763" lon="-0.35040421"><ele>-5.0</ele><time>2022-11-04T16:57:48.0000000+00:00</time></trkpt><trkpt lat="39.45628133" lon="-0.35040211"><ele>-5.0</ele><time>2022-11-04T16:57:49.0000000+00:00</time></trkpt><trkpt lat="39.45628619" lon="-0.35040571"><ele>-4.6</ele><time>2022-11-04T16:57:50.0000000+00:00</time></trkpt><trkpt lat="39.45628527" lon="-0.35041921"><ele>-4.6</ele><time>2022-11-04T16:57:51.0000000+00:00</time></trkpt><trkpt lat="39.45628376" lon="-0.35042851"><ele>-4.6</ele><time>2022-11-04T16:57:52.0000000+00:00</time></trkpt><trkpt lat="39.45628476" lon="-0.35043262"><ele>-4.6</ele><time>2022-11-04T16:57:53.0000000+00:00</time></trkpt><trkpt lat="39.45628518" lon="-0.35043631"><ele>-4.6</ele><time>2022-11-04T16:57:54.0000000+00:00</time></trkpt><trkpt lat="39.45628929" lon="-0.35044695"><ele>-4.6</ele><time>2022-11-04T16:57:55.0000000+00:00</time></trkpt><trkpt lat="39.45629658" lon="-0.35045634"><ele>-4.6</ele><time>2022-11-04T16:57:56.0000000+00:00</time></trkpt><trkpt lat="39.45630329" lon="-0.35046766"><ele>-4.6</ele><time>2022-11-04T16:57:57.0000000+00:00</time></trkpt><trkpt lat="39.45631217" lon="-0.3504773"><ele>-4.6</ele><time>2022-11-04T16:57:58.0000000+00:00</time></trkpt><trkpt lat="39.45631988" lon="-0.35048794"><ele>-4.6</ele><time>2022-11-04T16:57:59.0000000+00:00</time></trkpt><trkpt lat="39.45632718" lon="-0.35049859"><ele>-4.6</ele><time>2022-11-04T16:58:00.0000000+00:00</time></trkpt><trkpt lat="39.45633003" lon="-0.35051057"><ele>-4.6</ele><time>2022-11-04T16:58:01.0000000+00:00</time></trkpt><trkpt lat="39.45633774" lon="-0.35052013"><ele>-4.6</ele><time>2022-11-04T16:58:02.0000000+00:00</time></trkpt><trkpt lat="39.45634511" lon="-0.35053127"><ele>-4.6</ele><time>2022-11-04T16:58:03.0000000+00:00</time></trkpt><trkpt lat="39.4563483" lon="-0.35054334"><ele>-4.6</ele><time>2022-11-04T16:58:04.0000000+00:00</time></trkpt><trkpt lat="39.45635324" lon="-0.35055826"><ele>-4.6</ele><time>2022-11-04T16:58:05.0000000+00:00</time></trkpt><trkpt lat="39.4563576" lon="-0.35057285"><ele>-4.6</ele><time>2022-11-04T16:58:06.0000000+00:00</time></trkpt><trkpt lat="39.45636196" lon="-0.35058475"><ele>-4.6</ele><time>2022-11-04T16:58:07.0000000+00:00</time></trkpt><trkpt lat="39.45637018" lon="-0.35059632"><ele>-4.6</ele><time>2022-11-04T16:58:08.0000000+00:00</time></trkpt><trkpt lat="39.45637797" lon="-0.35060948"><ele>-4.6</ele><time>2022-11-04T16:58:09.0000000+00:00</time></trkpt><trkpt lat="39.45638577" lon="-0.35062322"><ele>-4.6</ele><time>2022-11-04T16:58:10.0000000+00:00</time></trkpt><trkpt lat="39.45639792" lon="-0.35063672"><ele>-4.6</ele><time>2022-11-04T16:58:11.0000000+00:00</time></trkpt><trkpt lat="39.45640865" lon="-0.35064669"><ele>-4.6</ele><time>2022-11-04T16:58:12.0000000+00:00</time></trkpt><trkpt lat="39.45641812" lon="-0.35065583"><ele>-4.6</ele><time>2022-11-04T16:58:13.0000000+00:00</time></trkpt><trkpt lat="39.4564255" lon="-0.35066882"><ele>-4.6</ele><time>2022-11-04T16:58:14.0000000+00:00</time></trkpt><trkpt lat="39.45643539" lon="-0.35068139"><ele>-4.6</ele><time>2022-11-04T16:58:15.0000000+00:00</time></trkpt><trkpt lat="39.45644477" lon="-0.3506938"><ele>-4.6</ele><time>2022-11-04T16:58:16.0000000+00:00</time></trkpt><trkpt lat="39.45645332" lon="-0.35070352"><ele>-4.6</ele><time>2022-11-04T16:58:17.0000000+00:00</time></trkpt><trkpt lat="39.45646011" lon="-0.35071509"><ele>-4.6</ele><time>2022-11-04T16:58:18.0000000+00:00</time></trkpt><trkpt lat="39.45646782" lon="-0.35072523"><ele>-4.6</ele><time>2022-11-04T16:58:19.0000000+00:00</time></trkpt><trkpt lat="39.45647528" lon="-0.35073563"><ele>-4.6</ele><time>2022-11-04T16:58:20.0000000+00:00</time></trkpt><trkpt lat="39.45648417" lon="-0.3507456"><ele>-4.6</ele><time>2022-11-04T16:58:21.0000000+00:00</time></trkpt><trkpt lat="39.45649322" lon="-0.35075574"><ele>-4.6</ele><time>2022-11-04T16:58:22.0000000+00:00</time></trkpt><trkpt lat="39.45650278" lon="-0.35076823"><ele>-4.6</ele><time>2022-11-04T16:58:23.0000000+00:00</time></trkpt><trkpt lat="39.45651015" lon="-0.35078164"><ele>-4.6</ele><time>2022-11-04T16:58:24.0000000+00:00</time></trkpt><trkpt lat="39.45651912" lon="-0.35079422"><ele>-4.6</ele><time>2022-11-04T16:58:25.0000000+00:00</time></trkpt><trkpt lat="39.45652382" lon="-0.35080637"><ele>-4.6</ele><time>2022-11-04T16:58:26.0000000+00:00</time></trkpt><trkpt lat="39.45652776" lon="-0.35081668"><ele>-4.6</ele><time>2022-11-04T16:58:27.0000000+00:00</time></trkpt><trkpt lat="39.45653119" lon="-0.35082741"><ele>-4.6</ele><time>2022-11-04T16:58:28.0000000+00:00</time></trkpt><trkpt lat="39.45653915" lon="-0.35083914"><ele>-4.8</ele><time>2022-11-04T16:58:29.0000000+00:00</time></trkpt><trkpt lat="39.45655215" lon="-0.35085431"><ele>-4.8</ele><time>2022-11-04T16:58:30.0000000+00:00</time></trkpt><trkpt lat="39.45656497" lon="-0.35086546"><ele>-5.0</ele><time>2022-11-04T16:58:31.0000000+00:00</time></trkpt><trkpt lat="39.45657478" lon="-0.3508772"><ele>-5.0</ele><time>2022-11-04T16:58:32.0000000+00:00</time></trkpt><trkpt lat="39.45658408" lon="-0.35089086"><ele>-5.0</ele><time>2022-11-04T16:58:33.0000000+00:00</time></trkpt><trkpt lat="39.4565923" lon="-0.3509041"><ele>-4.8</ele><time>2022-11-04T16:58:34.0000000+00:00</time></trkpt><trkpt lat="39.45659917" lon="-0.35091852"><ele>-4.8</ele><time>2022-11-04T16:58:35.0000000+00:00</time></trkpt><trkpt lat="39.45660613" lon="-0.3509331"><ele>-4.8</ele><time>2022-11-04T16:58:36.0000000+00:00</time></trkpt><trkpt lat="39.45661509" lon="-0.35094509"><ele>-4.8</ele><time>2022-11-04T16:58:37.0000000+00:00</time></trkpt><trkpt lat="39.45662096" lon="-0.35095657"><ele>-4.6</ele><time>2022-11-04T16:58:38.0000000+00:00</time></trkpt><trkpt lat="39.45662733" lon="-0.35096915"><ele>-4.8</ele><time>2022-11-04T16:58:39.0000000+00:00</time></trkpt><trkpt lat="39.4566332" lon="-0.35097862"><ele>-4.8</ele><time>2022-11-04T16:58:40.0000000+00:00</time></trkpt><trkpt lat="39.45663789" lon="-0.35099287"><ele>-4.8</ele><time>2022-11-04T16:58:41.0000000+00:00</time></trkpt><trkpt lat="39.45664426" lon="-0.35100829"><ele>-4.8</ele><time>2022-11-04T16:58:42.0000000+00:00</time></trkpt><trkpt lat="39.45665734" lon="-0.35102086"><ele>-4.8</ele><time>2022-11-04T16:58:43.0000000+00:00</time></trkpt><trkpt lat="39.45667125" lon="-0.35103184"><ele>-4.8</ele><time>2022-11-04T16:58:44.0000000+00:00</time></trkpt><trkpt lat="39.45668274" lon="-0.35104333"><ele>-4.8</ele><time>2022-11-04T16:58:45.0000000+00:00</time></trkpt><trkpt lat="39.45669422" lon="-0.35105707"><ele>-4.8</ele><time>2022-11-04T16:58:46.0000000+00:00</time></trkpt><trkpt lat="39.45670369" lon="-0.35107325"><ele>-4.8</ele><time>2022-11-04T16:58:47.0000000+00:00</time></trkpt><trkpt lat="39.45671341" lon="-0.35108725"><ele>-4.8</ele><time>2022-11-04T16:58:48.0000000+00:00</time></trkpt><trkpt lat="39.45672113" lon="-0.35109932"><ele>-4.6</ele><time>2022-11-04T16:58:49.0000000+00:00</time></trkpt><trkpt lat="39.45672817" lon="-0.35111625"><ele>-4.6</ele><time>2022-11-04T16:58:50.0000000+00:00</time></trkpt><trkpt lat="39.45673303" lon="-0.35113184"><ele>-4.8</ele><time>2022-11-04T16:58:51.0000000+00:00</time></trkpt><trkpt lat="39.45673923" lon="-0.35114701"><ele>-4.8</ele><time>2022-11-04T16:58:52.0000000+00:00</time></trkpt><trkpt lat="39.45674619" lon="-0.35115967"><ele>-4.8</ele><time>2022-11-04T16:58:53.0000000+00:00</time></trkpt><trkpt lat="39.45675734" lon="-0.35117014"><ele>-4.8</ele><time>2022-11-04T16:58:54.0000000+00:00</time></trkpt><trkpt lat="39.45676589" lon="-0.3511849"><ele>-4.8</ele><time>2022-11-04T16:58:55.0000000+00:00</time></trkpt><trkpt lat="39.45677209" lon="-0.35119671"><ele>-4.8</ele><time>2022-11-04T16:58:56.0000000+00:00</time></trkpt><trkpt lat="39.45677913" lon="-0.35120937"><ele>-4.6</ele><time>2022-11-04T16:58:57.0000000+00:00</time></trkpt><trkpt lat="39.45678516" lon="-0.35122421"><ele>-4.6</ele><time>2022-11-04T16:58:58.0000000+00:00</time></trkpt><trkpt lat="39.45679673" lon="-0.35123544"><ele>-4.6</ele><time>2022-11-04T16:58:59.0000000+00:00</time></trkpt><trkpt lat="39.45680427" lon="-0.35124835"><ele>-4.6</ele><time>2022-11-04T16:59:00.0000000+00:00</time></trkpt><trkpt lat="39.45680997" lon="-0.3512605"><ele>-4.6</ele><time>2022-11-04T16:59:01.0000000+00:00</time></trkpt><trkpt lat="39.4568171" lon="-0.35127148"><ele>-4.6</ele><time>2022-11-04T16:59:02.0000000+00:00</time></trkpt><trkpt lat="39.45682582" lon="-0.3512797"><ele>-4.6</ele><time>2022-11-04T16:59:03.0000000+00:00</time></trkpt><trkpt lat="39.45683395" lon="-0.35128355"><ele>-4.6</ele><time>2022-11-04T16:59:04.0000000+00:00</time></trkpt><trkpt lat="39.45683889" lon="-0.35129285"><ele>-4.6</ele><time>2022-11-04T16:59:05.0000000+00:00</time></trkpt><trkpt lat="39.45684786" lon="-0.35130484"><ele>-4.8</ele><time>2022-11-04T16:59:06.0000000+00:00</time></trkpt><trkpt lat="39.45685666" lon="-0.35131482"><ele>-4.8</ele><time>2022-11-04T16:59:07.0000000+00:00</time></trkpt><trkpt lat="39.45686027" lon="-0.35132923"><ele>-4.8</ele><time>2022-11-04T16:59:08.0000000+00:00</time></trkpt><trkpt lat="39.45686529" lon="-0.35134357"><ele>-4.8</ele><time>2022-11-04T16:59:09.0000000+00:00</time></trkpt><trkpt lat="39.45687401" lon="-0.35135874"><ele>-4.8</ele><time>2022-11-04T16:59:10.0000000+00:00</time></trkpt><trkpt lat="39.45688541" lon="-0.35137131"><ele>-4.8</ele><time>2022-11-04T16:59:11.0000000+00:00</time></trkpt><trkpt lat="39.45689295" lon="-0.35138405"><ele>-4.8</ele><time>2022-11-04T16:59:12.0000000+00:00</time></trkpt><trkpt lat="39.45689681" lon="-0.35138992"><ele>-4.8</ele><time>2022-11-04T16:59:13.0000000+00:00</time></trkpt><trkpt lat="39.45689941" lon="-0.35139428"><ele>-4.8</ele><time>2022-11-04T16:59:14.0000000+00:00</time></trkpt><trkpt lat="39.45690041" lon="-0.3513957"><ele>-4.8</ele><time>2022-11-04T16:59:15.0000000+00:00</time></trkpt><trkpt lat="39.4569015" lon="-0.35139503"><ele>-4.8</ele><time>2022-11-04T16:59:16.0000000+00:00</time></trkpt><trkpt lat="39.4569031" lon="-0.35139436"><ele>-4.8</ele><time>2022-11-04T16:59:17.0000000+00:00</time></trkpt><trkpt lat="39.45691022" lon="-0.35139654"><ele>-4.8</ele><time>2022-11-04T16:59:18.0000000+00:00</time></trkpt><trkpt lat="39.45691969" lon="-0.35140341"><ele>-4.8</ele><time>2022-11-04T16:59:19.0000000+00:00</time></trkpt><trkpt lat="39.45692891" lon="-0.35141313"><ele>-4.8</ele><time>2022-11-04T16:59:20.0000000+00:00</time></trkpt><trkpt lat="39.45693629" lon="-0.35142529"><ele>-4.8</ele><time>2022-11-04T16:59:21.0000000+00:00</time></trkpt><trkpt lat="39.45694509" lon="-0.35143845"><ele>-4.8</ele><time>2022-11-04T16:59:22.0000000+00:00</time></trkpt><trkpt lat="39.45695171" lon="-0.35145178"><ele>-4.8</ele><time>2022-11-04T16:59:23.0000000+00:00</time></trkpt><trkpt lat="39.45695967" lon="-0.35146695"><ele>-4.8</ele><time>2022-11-04T16:59:24.0000000+00:00</time></trkpt><trkpt lat="39.45696512" lon="-0.35147935"><ele>-4.8</ele><time>2022-11-04T16:59:25.0000000+00:00</time></trkpt><trkpt lat="39.4569735" lon="-0.3514941"><ele>-4.8</ele><time>2022-11-04T16:59:26.0000000+00:00</time></trkpt><trkpt lat="39.45698314" lon="-0.35150525"><ele>-4.8</ele><time>2022-11-04T16:59:27.0000000+00:00</time></trkpt><trkpt lat="39.45699236" lon="-0.35151648"><ele>-4.8</ele><time>2022-11-04T16:59:28.0000000+00:00</time></trkpt><trkpt lat="39.45700091" lon="-0.35152193"><ele>-4.8</ele><time>2022-11-04T16:59:29.0000000+00:00</time></trkpt><trkpt lat="39.45701114" lon="-0.35152839"><ele>-4.8</ele><time>2022-11-04T16:59:30.0000000+00:00</time></trkpt><trkpt lat="39.45701961" lon="-0.35153476"><ele>-4.6</ele><time>2022-11-04T16:59:31.0000000+00:00</time></trkpt><trkpt lat="39.45702748" lon="-0.35154196"><ele>-4.6</ele><time>2022-11-04T16:59:32.0000000+00:00</time></trkpt><trkpt lat="39.45703612" lon="-0.35154951"><ele>-4.6</ele><time>2022-11-04T16:59:33.0000000+00:00</time></trkpt><trkpt lat="39.45704567" lon="-0.35156082"><ele>-4.4</ele><time>2022-11-04T16:59:34.0000000+00:00</time></trkpt><trkpt lat="39.45705489" lon="-0.35157365"><ele>-4.4</ele><time>2022-11-04T16:59:35.0000000+00:00</time></trkpt><trkpt lat="39.45706512" lon="-0.35158756"><ele>-4.2</ele><time>2022-11-04T16:59:36.0000000+00:00</time></trkpt><trkpt lat="39.4570735" lon="-0.35159997"><ele>-4.4</ele><time>2022-11-04T16:59:37.0000000+00:00</time></trkpt><trkpt lat="39.45707794" lon="-0.35161271"><ele>-4.4</ele><time>2022-11-04T16:59:38.0000000+00:00</time></trkpt><trkpt lat="39.45708549" lon="-0.35162771"><ele>-4.4</ele><time>2022-11-04T16:59:39.0000000+00:00</time></trkpt><trkpt lat="39.45709194" lon="-0.35164012"><ele>-4.4</ele><time>2022-11-04T16:59:40.0000000+00:00</time></trkpt><trkpt lat="39.45709353" lon="-0.35165001"><ele>-4.4</ele><time>2022-11-04T16:59:41.0000000+00:00</time></trkpt><trkpt lat="39.45709211" lon="-0.35166216"><ele>-4.4</ele><time>2022-11-04T16:59:42.0000000+00:00</time></trkpt><trkpt lat="39.45709462" lon="-0.35167197"><ele>-4.4</ele><time>2022-11-04T16:59:43.0000000+00:00</time></trkpt><trkpt lat="39.45710158" lon="-0.35167985"><ele>-4.4</ele><time>2022-11-04T16:59:44.0000000+00:00</time></trkpt><trkpt lat="39.45710979" lon="-0.3516894"><ele>-4.4</ele><time>2022-11-04T16:59:45.0000000+00:00</time></trkpt><trkpt lat="39.45712002" lon="-0.35170139"><ele>-4.4</ele><time>2022-11-04T16:59:46.0000000+00:00</time></trkpt><trkpt lat="39.45712974" lon="-0.35171572"><ele>-4.4</ele><time>2022-11-04T16:59:47.0000000+00:00</time></trkpt><trkpt lat="39.45714232" lon="-0.35172913"><ele>-4.4</ele><time>2022-11-04T16:59:48.0000000+00:00</time></trkpt><trkpt lat="39.45714735" lon="-0.35174179"><ele>-4.4</ele><time>2022-11-04T16:59:49.0000000+00:00</time></trkpt><trkpt lat="39.45714919" lon="-0.35175713"><ele>-4.4</ele><time>2022-11-04T16:59:50.0000000+00:00</time></trkpt><trkpt lat="39.45715522" lon="-0.35177171"><ele>-4.2</ele><time>2022-11-04T16:59:51.0000000+00:00</time></trkpt><trkpt lat="39.45716168" lon="-0.35178714"><ele>-4.4</ele><time>2022-11-04T16:59:52.0000000+00:00</time></trkpt><trkpt lat="39.45716922" lon="-0.35179904"><ele>-4.4</ele><time>2022-11-04T16:59:53.0000000+00:00</time></trkpt><trkpt lat="39.4571828" lon="-0.35180608"><ele>-4.4</ele><time>2022-11-04T16:59:54.0000000+00:00</time></trkpt><trkpt lat="39.45719563" lon="-0.35181027"><ele>-4.4</ele><time>2022-11-04T16:59:55.0000000+00:00</time></trkpt><trkpt lat="39.45720661" lon="-0.35181823"><ele>-4.4</ele><time>2022-11-04T16:59:56.0000000+00:00</time></trkpt><trkpt lat="39.45721775" lon="-0.35182905"><ele>-4.6</ele><time>2022-11-04T16:59:57.0000000+00:00</time></trkpt><trkpt lat="39.45722639" lon="-0.3518412"><ele>-4.6</ele><time>2022-11-04T16:59:58.0000000+00:00</time></trkpt><trkpt lat="39.45723385" lon="-0.35185092"><ele>-4.6</ele><time>2022-11-04T16:59:59.0000000+00:00</time></trkpt><trkpt lat="39.45724164" lon="-0.35186567"><ele>-4.6</ele><time>2022-11-04T17:00:00.0000000+00:00</time></trkpt><trkpt lat="39.45725086" lon="-0.35187615"><ele>-4.6</ele><time>2022-11-04T17:00:01.0000000+00:00</time></trkpt><trkpt lat="39.4572574" lon="-0.35189099"><ele>-4.4</ele><time>2022-11-04T17:00:02.0000000+00:00</time></trkpt><trkpt lat="39.45726771" lon="-0.35190515"><ele>-4.4</ele><time>2022-11-04T17:00:03.0000000+00:00</time></trkpt><trkpt lat="39.45727601" lon="-0.35191806"><ele>-4.4</ele><time>2022-11-04T17:00:04.0000000+00:00</time></trkpt><trkpt lat="39.45728271" lon="-0.35193047"><ele>-4.4</ele><time>2022-11-04T17:00:05.0000000+00:00</time></trkpt><trkpt lat="39.45728783" lon="-0.35194555"><ele>-4.4</ele><time>2022-11-04T17:00:06.0000000+00:00</time></trkpt><trkpt lat="39.45729403" lon="-0.35195871"><ele>-4.4</ele><time>2022-11-04T17:00:07.0000000+00:00</time></trkpt><trkpt lat="39.45729923" lon="-0.35197598"><ele>-4.6</ele><time>2022-11-04T17:00:08.0000000+00:00</time></trkpt><trkpt lat="39.45730149" lon="-0.35198897"><ele>-4.6</ele><time>2022-11-04T17:00:09.0000000+00:00</time></trkpt><trkpt lat="39.4573087" lon="-0.35199953"><ele>-4.6</ele><time>2022-11-04T17:00:10.0000000+00:00</time></trkpt><trkpt lat="39.45731725" lon="-0.35201244"><ele>-4.6</ele><time>2022-11-04T17:00:11.0000000+00:00</time></trkpt><trkpt lat="39.45732362" lon="-0.35202233"><ele>-4.6</ele><time>2022-11-04T17:00:12.0000000+00:00</time></trkpt><trkpt lat="39.4573377" lon="-0.3520313"><ele>-4.6</ele><time>2022-11-04T17:00:13.0000000+00:00</time></trkpt><trkpt lat="39.45734524" lon="-0.35204337"><ele>-4.6</ele><time>2022-11-04T17:00:14.0000000+00:00</time></trkpt><trkpt lat="39.45734977" lon="-0.35205687"><ele>-4.6</ele><time>2022-11-04T17:00:15.0000000+00:00</time></trkpt><trkpt lat="39.45735714" lon="-0.35207044"><ele>-4.6</ele><time>2022-11-04T17:00:16.0000000+00:00</time></trkpt><trkpt lat="39.45736737" lon="-0.35208377"><ele>-4.6</ele><time>2022-11-04T17:00:17.0000000+00:00</time></trkpt><trkpt lat="39.45737978" lon="-0.3520945"><ele>-4.6</ele><time>2022-11-04T17:00:18.0000000+00:00</time></trkpt><trkpt lat="39.45738891" lon="-0.35210724"><ele>-4.4</ele><time>2022-11-04T17:00:19.0000000+00:00</time></trkpt><trkpt lat="39.45739595" lon="-0.35211998"><ele>-4.4</ele><time>2022-11-04T17:00:20.0000000+00:00</time></trkpt><trkpt lat="39.45740559" lon="-0.35213281"><ele>-4.4</ele><time>2022-11-04T17:00:21.0000000+00:00</time></trkpt><trkpt lat="39.45741607" lon="-0.35214353"><ele>-4.4</ele><time>2022-11-04T17:00:22.0000000+00:00</time></trkpt><trkpt lat="39.45742579" lon="-0.35215208"><ele>-4.4</ele><time>2022-11-04T17:00:23.0000000+00:00</time></trkpt><trkpt lat="39.45743325" lon="-0.35215954"><ele>-4.4</ele><time>2022-11-04T17:00:24.0000000+00:00</time></trkpt><trkpt lat="39.45743996" lon="-0.35216793"><ele>-4.4</ele><time>2022-11-04T17:00:25.0000000+00:00</time></trkpt><trkpt lat="39.45744624" lon="-0.35217715"><ele>-4.4</ele><time>2022-11-04T17:00:26.0000000+00:00</time></trkpt><trkpt lat="39.45745236" lon="-0.35218704"><ele>-4.4</ele><time>2022-11-04T17:00:27.0000000+00:00</time></trkpt><trkpt lat="39.45745966" lon="-0.35220045"><ele>-4.4</ele><time>2022-11-04T17:00:28.0000000+00:00</time></trkpt><trkpt lat="39.45746728" lon="-0.35221268"><ele>-4.4</ele><time>2022-11-04T17:00:29.0000000+00:00</time></trkpt><trkpt lat="39.45747416" lon="-0.35222584"><ele>-4.4</ele><time>2022-11-04T17:00:30.0000000+00:00</time></trkpt><trkpt lat="39.45748438" lon="-0.35223867"><ele>-4.4</ele><time>2022-11-04T17:00:31.0000000+00:00</time></trkpt><trkpt lat="39.45750131" lon="-0.35225141"><ele>-4.4</ele><time>2022-11-04T17:00:32.0000000+00:00</time></trkpt><trkpt lat="39.45751414" lon="-0.35226239"><ele>-4.4</ele><time>2022-11-04T17:00:33.0000000+00:00</time></trkpt><trkpt lat="39.45751908" lon="-0.35227144"><ele>-4.4</ele><time>2022-11-04T17:00:34.0000000+00:00</time></trkpt><trkpt lat="39.45751875" lon="-0.35227731"><ele>-4.4</ele><time>2022-11-04T17:00:35.0000000+00:00</time></trkpt><trkpt lat="39.45751129" lon="-0.35227471"><ele>-4.4</ele><time>2022-11-04T17:00:36.0000000+00:00</time></trkpt><trkpt lat="39.45749695" lon="-0.3522722"><ele>-4.4</ele><time>2022-11-04T17:00:37.0000000+00:00</time></trkpt><trkpt lat="39.45748673" lon="-0.35228091"><ele>-4.4</ele><time>2022-11-04T17:00:38.0000000+00:00</time></trkpt><trkpt lat="39.45747491" lon="-0.35229818"><ele>-4.2</ele><time>2022-11-04T17:00:39.0000000+00:00</time></trkpt><trkpt lat="39.45747055" lon="-0.35231587"><ele>-4.2</ele><time>2022-11-04T17:00:40.0000000+00:00</time></trkpt><trkpt lat="39.45746175" lon="-0.3523307"><ele>-4.2</ele><time>2022-11-04T17:00:41.0000000+00:00</time></trkpt><trkpt lat="39.45745169" lon="-0.35234244"><ele>-4.2</ele><time>2022-11-04T17:00:42.0000000+00:00</time></trkpt><trkpt lat="39.45744867" lon="-0.35235853"><ele>-4.0</ele><time>2022-11-04T17:00:43.0000000+00:00</time></trkpt><trkpt lat="39.45744373" lon="-0.35237286"><ele>-3.8</ele><time>2022-11-04T17:00:44.0000000+00:00</time></trkpt><trkpt lat="39.4574392" lon="-0.35238736"><ele>-3.8</ele><time>2022-11-04T17:00:45.0000000+00:00</time></trkpt><trkpt lat="39.45743292" lon="-0.35239893"><ele>-3.6</ele><time>2022-11-04T17:00:46.0000000+00:00</time></trkpt><trkpt lat="39.45742596" lon="-0.35241561"><ele>-3.6</ele><time>2022-11-04T17:00:47.0000000+00:00</time></trkpt><trkpt lat="39.45742076" lon="-0.35242843"><ele>-3.4</ele><time>2022-11-04T17:00:48.0000000+00:00</time></trkpt><trkpt lat="39.45741666" lon="-0.35244101"><ele>-3.4</ele><time>2022-11-04T17:00:49.0000000+00:00</time></trkpt><trkpt lat="39.45741305" lon="-0.35245568"><ele>-3.2</ele><time>2022-11-04T17:00:50.0000000+00:00</time></trkpt><trkpt lat="39.45740769" lon="-0.35247386"><ele>-3.2</ele><time>2022-11-04T17:00:51.0000000+00:00</time></trkpt><trkpt lat="39.45740257" lon="-0.35249013"><ele>-3.2</ele><time>2022-11-04T17:00:52.0000000+00:00</time></trkpt><trkpt lat="39.45739998" lon="-0.35250345"><ele>-3.2</ele><time>2022-11-04T17:00:53.0000000+00:00</time></trkpt><trkpt lat="39.4573983" lon="-0.35251133"><ele>-3.2</ele><time>2022-11-04T17:00:54.0000000+00:00</time></trkpt><trkpt lat="39.4573978" lon="-0.35251561"><ele>-3.2</ele><time>2022-11-04T17:00:55.0000000+00:00</time></trkpt><trkpt lat="39.45739805" lon="-0.35251586"><ele>-3.2</ele><time>2022-11-04T17:00:56.0000000+00:00</time></trkpt><trkpt lat="39.45739914" lon="-0.35251519"><ele>-3.2</ele><time>2022-11-04T17:00:57.0000000+00:00</time></trkpt><trkpt lat="39.45740098" lon="-0.35251485"><ele>-3.4</ele><time>2022-11-04T17:00:58.0000000+00:00</time></trkpt><trkpt lat="39.45740174" lon="-0.35251468"><ele>-3.4</ele><time>2022-11-04T17:00:59.0000000+00:00</time></trkpt><trkpt lat="39.45740174" lon="-0.3525146"><ele>-3.4</ele><time>2022-11-04T17:01:00.0000000+00:00</time></trkpt><trkpt lat="39.45740199" lon="-0.35251393"><ele>-3.4</ele><time>2022-11-04T17:01:01.0000000+00:00</time></trkpt><trkpt lat="39.45740232" lon="-0.35251368"><ele>-3.4</ele><time>2022-11-04T17:01:02.0000000+00:00</time></trkpt><trkpt lat="39.45740257" lon="-0.35251326"><ele>-3.4</ele><time>2022-11-04T17:01:03.0000000+00:00</time></trkpt><trkpt lat="39.45740308" lon="-0.35251284"><ele>-3.6</ele><time>2022-11-04T17:01:04.0000000+00:00</time></trkpt><trkpt lat="39.45740408" lon="-0.35251225"><ele>-3.6</ele><time>2022-11-04T17:01:05.0000000+00:00</time></trkpt><trkpt lat="39.45740417" lon="-0.35251209"><ele>-3.4</ele><time>2022-11-04T17:01:06.0000000+00:00</time></trkpt><trkpt lat="39.45740417" lon="-0.35251209"><ele>-3.4</ele><time>2022-11-04T17:01:07.0000000+00:00</time></trkpt><trkpt lat="39.45740417" lon="-0.35251209"><ele>-3.4</ele><time>2022-11-04T17:01:08.0000000+00:00</time></trkpt><trkpt lat="39.45740417" lon="-0.35251209"><ele>-3.4</ele><time>2022-11-04T17:01:09.0000000+00:00</time></trkpt><trkpt lat="39.45740417" lon="-0.35251209"><ele>-3.4</ele><time>2022-11-04T17:01:10.0000000+00:00</time></trkpt><trkpt lat="39.45740417" lon="-0.35251209"><ele>-3.4</ele><time>2022-11-04T17:01:11.0000000+00:00</time></trkpt><trkpt lat="39.45740417" lon="-0.35251209"><ele>-3.4</ele><time>2022-11-04T17:01:12.0000000+00:00</time></trkpt><trkpt lat="39.45740417" lon="-0.35251209"><ele>-3.2</ele><time>2022-11-04T17:01:13.0000000+00:00</time></trkpt><trkpt lat="39.45740417" lon="-0.35251209"><ele>-3.4</ele><time>2022-11-04T17:01:14.0000000+00:00</time></trkpt><trkpt lat="39.45740417" lon="-0.35251209"><ele>-3.4</ele><time>2022-11-04T17:01:15.0000000+00:00</time></trkpt><trkpt lat="39.45740417" lon="-0.35251209"><ele>-3.4</ele><time>2022-11-04T17:01:16.0000000+00:00</time></trkpt><trkpt lat="39.45740417" lon="-0.35251209"><ele>-3.4</ele><time>2022-11-04T17:01:17.0000000+00:00</time></trkpt><trkpt lat="39.45740417" lon="-0.35251209"><ele>-3.4</ele><time>2022-11-04T17:01:18.0000000+00:00</time></trkpt><trkpt lat="39.45740417" lon="-0.35251209"><ele>-3.4</ele><time>2022-11-04T17:01:19.0000000+00:00</time></trkpt><trkpt lat="39.45740417" lon="-0.35251209"><ele>-3.4</ele><time>2022-11-04T17:01:20.0000000+00:00</time></trkpt><trkpt lat="39.45740417" lon="-0.35251209"><ele>-3.4</ele><time>2022-11-04T17:01:21.0000000+00:00</time></trkpt><trkpt lat="39.45740417" lon="-0.35251209"><ele>-3.4</ele><time>2022-11-04T17:01:22.0000000+00:00</time></trkpt><trkpt lat="39.45740417" lon="-0.35251209"><ele>-3.4</ele><time>2022-11-04T17:01:23.0000000+00:00</time></trkpt><trkpt lat="39.45740417" lon="-0.35251209"><ele>-3.2</ele><time>2022-11-04T17:01:24.0000000+00:00</time></trkpt><trkpt lat="39.45740425" lon="-0.35251209"><ele>-3.2</ele><time>2022-11-04T17:01:25.0000000+00:00</time></trkpt><trkpt lat="39.45740425" lon="-0.35251175"><ele>-3.2</ele><time>2022-11-04T17:01:26.0000000+00:00</time></trkpt><trkpt lat="39.45740433" lon="-0.35251175"><ele>-3.2</ele><time>2022-11-04T17:01:27.0000000+00:00</time></trkpt><trkpt lat="39.45740433" lon="-0.35251175"><ele>-3.2</ele><time>2022-11-04T17:01:28.0000000+00:00</time></trkpt><trkpt lat="39.45740433" lon="-0.35251175"><ele>-3.0</ele><time>2022-11-04T17:01:29.0000000+00:00</time></trkpt><trkpt lat="39.45740442" lon="-0.35251175"><ele>-3.0</ele><time>2022-11-04T17:01:30.0000000+00:00</time></trkpt><trkpt lat="39.45740442" lon="-0.35251167"><ele>-3.2</ele><time>2022-11-04T17:01:31.0000000+00:00</time></trkpt><trkpt lat="39.4574045" lon="-0.35251167"><ele>-3.2</ele><time>2022-11-04T17:01:32.0000000+00:00</time></trkpt><trkpt lat="39.45740467" lon="-0.35251167"><ele>-3.2</ele><time>2022-11-04T17:01:33.0000000+00:00</time></trkpt><trkpt lat="39.45740551" lon="-0.35251158"><ele>-3.2</ele><time>2022-11-04T17:01:34.0000000+00:00</time></trkpt><trkpt lat="39.45740568" lon="-0.35251158"><ele>-3.2</ele><time>2022-11-04T17:01:35.0000000+00:00</time></trkpt><trkpt lat="39.45740584" lon="-0.35251158"><ele>-3.4</ele><time>2022-11-04T17:01:36.0000000+00:00</time></trkpt><trkpt lat="39.45740601" lon="-0.35251158"><ele>-3.4</ele><time>2022-11-04T17:01:37.0000000+00:00</time></trkpt><trkpt lat="39.4574066" lon="-0.35251158"><ele>-3.4</ele><time>2022-11-04T17:01:38.0000000+00:00</time></trkpt><trkpt lat="39.45740702" lon="-0.35251158"><ele>-3.4</ele><time>2022-11-04T17:01:39.0000000+00:00</time></trkpt><trkpt lat="39.4574076" lon="-0.35251158"><ele>-3.4</ele><time>2022-11-04T17:01:40.0000000+00:00</time></trkpt><trkpt lat="39.45740769" lon="-0.35251142"><ele>-3.4</ele><time>2022-11-04T17:01:41.0000000+00:00</time></trkpt><trkpt lat="39.45740811" lon="-0.35251133"><ele>-3.4</ele><time>2022-11-04T17:01:42.0000000+00:00</time></trkpt><trkpt lat="39.45740827" lon="-0.35251133"><ele>-3.4</ele><time>2022-11-04T17:01:43.0000000+00:00</time></trkpt><trkpt lat="39.45740844" lon="-0.35251133"><ele>-3.4</ele><time>2022-11-04T17:01:44.0000000+00:00</time></trkpt><trkpt lat="39.45740844" lon="-0.35251133"><ele>-3.4</ele><time>2022-11-04T17:01:45.0000000+00:00</time></trkpt><trkpt lat="39.4574092" lon="-0.35251133"><ele>-3.4</ele><time>2022-11-04T17:01:46.0000000+00:00</time></trkpt><trkpt lat="39.45741029" lon="-0.35251133"><ele>-3.6</ele><time>2022-11-04T17:01:47.0000000+00:00</time></trkpt><trkpt lat="39.45741138" lon="-0.35251133"><ele>-3.6</ele><time>2022-11-04T17:01:48.0000000+00:00</time></trkpt><trkpt lat="39.45741188" lon="-0.35251133"><ele>-3.6</ele><time>2022-11-04T17:01:49.0000000+00:00</time></trkpt><trkpt lat="39.45741247" lon="-0.35251133"><ele>-3.6</ele><time>2022-11-04T17:01:50.0000000+00:00</time></trkpt><trkpt lat="39.45741263" lon="-0.35251133"><ele>-3.4</ele><time>2022-11-04T17:01:51.0000000+00:00</time></trkpt><trkpt lat="39.45741272" lon="-0.35251142"><ele>-3.4</ele><time>2022-11-04T17:01:52.0000000+00:00</time></trkpt><trkpt lat="39.45741414" lon="-0.3525146"><ele>-3.4</ele><time>2022-11-04T17:01:53.0000000+00:00</time></trkpt><trkpt lat="39.4574149" lon="-0.35253354"><ele>-3.4</ele><time>2022-11-04T17:01:54.0000000+00:00</time></trkpt><trkpt lat="39.4574149" lon="-0.35255123"><ele>-3.2</ele><time>2022-11-04T17:01:55.0000000+00:00</time></trkpt><trkpt lat="39.4574154" lon="-0.35257118"><ele>-3.2</ele><time>2022-11-04T17:01:56.0000000+00:00</time></trkpt><trkpt lat="39.45742026" lon="-0.35259096"><ele>-3.2</ele><time>2022-11-04T17:01:57.0000000+00:00</time></trkpt><trkpt lat="39.45742386" lon="-0.35260948"><ele>-3.2</ele><time>2022-11-04T17:01:58.0000000+00:00</time></trkpt><trkpt lat="39.45742881" lon="-0.35263002"><ele>-3.4</ele><time>2022-11-04T17:01:59.0000000+00:00</time></trkpt><trkpt lat="39.45743074" lon="-0.35265148"><ele>-3.4</ele><time>2022-11-04T17:02:00.0000000+00:00</time></trkpt><trkpt lat="39.45743476" lon="-0.35267377"><ele>-3.4</ele><time>2022-11-04T17:02:01.0000000+00:00</time></trkpt><trkpt lat="39.45743996" lon="-0.35269364"><ele>-3.4</ele><time>2022-11-04T17:02:02.0000000+00:00</time></trkpt><trkpt lat="39.45744256" lon="-0.35271241"><ele>-3.4</ele><time>2022-11-04T17:02:03.0000000+00:00</time></trkpt><trkpt lat="39.45744541" lon="-0.35273052"><ele>-3.4</ele><time>2022-11-04T17:02:04.0000000+00:00</time></trkpt><trkpt lat="39.45744666" lon="-0.35274946"><ele>-3.4</ele><time>2022-11-04T17:02:05.0000000+00:00</time></trkpt><trkpt lat="39.45744842" lon="-0.35277"><ele>-3.4</ele><time>2022-11-04T17:02:06.0000000+00:00</time></trkpt><trkpt lat="39.45745002" lon="-0.35278819"><ele>-3.4</ele><time>2022-11-04T17:02:07.0000000+00:00</time></trkpt><trkpt lat="39.45745044" lon="-0.35280361"><ele>-3.4</ele><time>2022-11-04T17:02:08.0000000+00:00</time></trkpt><trkpt lat="39.45745169" lon="-0.35282163"><ele>-3.4</ele><time>2022-11-04T17:02:09.0000000+00:00</time></trkpt><trkpt lat="39.45745496" lon="-0.35283948"><ele>-3.4</ele><time>2022-11-04T17:02:10.0000000+00:00</time></trkpt><trkpt lat="39.45745957" lon="-0.35285549"><ele>-3.4</ele><time>2022-11-04T17:02:11.0000000+00:00</time></trkpt><trkpt lat="39.45746007" lon="-0.35286748"><ele>-3.2</ele><time>2022-11-04T17:02:12.0000000+00:00</time></trkpt><trkpt lat="39.45745966" lon="-0.35288173"><ele>-3.2</ele><time>2022-11-04T17:02:13.0000000+00:00</time></trkpt><trkpt lat="39.45745882" lon="-0.35289899"><ele>-3.4</ele><time>2022-11-04T17:02:14.0000000+00:00</time></trkpt><trkpt lat="39.45746217" lon="-0.35291442"><ele>-3.4</ele><time>2022-11-04T17:02:15.0000000+00:00</time></trkpt><trkpt lat="39.45746485" lon="-0.35292699"><ele>-3.6</ele><time>2022-11-04T17:02:16.0000000+00:00</time></trkpt><trkpt lat="39.45746795" lon="-0.35294015"><ele>-3.6</ele><time>2022-11-04T17:02:17.0000000+00:00</time></trkpt><trkpt lat="39.45747089" lon="-0.35295482"><ele>-3.8</ele><time>2022-11-04T17:02:18.0000000+00:00</time></trkpt><trkpt lat="39.457476" lon="-0.35296815"><ele>-3.8</ele><time>2022-11-04T17:02:19.0000000+00:00</time></trkpt><trkpt lat="39.45748145" lon="-0.35298055"><ele>-3.8</ele><time>2022-11-04T17:02:20.0000000+00:00</time></trkpt><trkpt lat="39.45748606" lon="-0.35299354"><ele>-3.8</ele><time>2022-11-04T17:02:21.0000000+00:00</time></trkpt><trkpt lat="39.45749184" lon="-0.35300704"><ele>-3.8</ele><time>2022-11-04T17:02:22.0000000+00:00</time></trkpt><trkpt lat="39.45749704" lon="-0.35302321"><ele>-3.8</ele><time>2022-11-04T17:02:23.0000000+00:00</time></trkpt><trkpt lat="39.45750115" lon="-0.3530357"><ele>-3.8</ele><time>2022-11-04T17:02:24.0000000+00:00</time></trkpt><trkpt lat="39.45750349" lon="-0.35304861"><ele>-3.8</ele><time>2022-11-04T17:02:25.0000000+00:00</time></trkpt><trkpt lat="39.45751078" lon="-0.35306211"><ele>-3.8</ele><time>2022-11-04T17:02:26.0000000+00:00</time></trkpt><trkpt lat="39.45752118" lon="-0.35307342"><ele>-3.8</ele><time>2022-11-04T17:02:27.0000000+00:00</time></trkpt><trkpt lat="39.45752713" lon="-0.35308457"><ele>-4.0</ele><time>2022-11-04T17:02:28.0000000+00:00</time></trkpt><trkpt lat="39.4575335" lon="-0.35309136"><ele>-4.0</ele><time>2022-11-04T17:02:29.0000000+00:00</time></trkpt><trkpt lat="39.45753945" lon="-0.35309966"><ele>-4.0</ele><time>2022-11-04T17:02:30.0000000+00:00</time></trkpt><trkpt lat="39.45754632" lon="-0.35311223"><ele>-4.0</ele><time>2022-11-04T17:02:31.0000000+00:00</time></trkpt><trkpt lat="39.45755605" lon="-0.35312388"><ele>-4.0</ele><time>2022-11-04T17:02:32.0000000+00:00</time></trkpt><trkpt lat="39.45756627" lon="-0.35314073"><ele>-4.2</ele><time>2022-11-04T17:02:33.0000000+00:00</time></trkpt><trkpt lat="39.45757633" lon="-0.35315682"><ele>-4.2</ele><time>2022-11-04T17:02:34.0000000+00:00</time></trkpt><trkpt lat="39.45758714" lon="-0.35316763"><ele>-4.0</ele><time>2022-11-04T17:02:35.0000000+00:00</time></trkpt><trkpt lat="39.45759838" lon="-0.35317744"><ele>-4.0</ele><time>2022-11-04T17:02:36.0000000+00:00</time></trkpt><trkpt lat="39.45760718" lon="-0.35318993"><ele>-4.0</ele><time>2022-11-04T17:02:37.0000000+00:00</time></trkpt><trkpt lat="39.45761707" lon="-0.35320376"><ele>-4.0</ele><time>2022-11-04T17:02:38.0000000+00:00</time></trkpt><trkpt lat="39.45762696" lon="-0.35321692"><ele>-4.0</ele><time>2022-11-04T17:02:39.0000000+00:00</time></trkpt><trkpt lat="39.45763534" lon="-0.35323033"><ele>-4.0</ele><time>2022-11-04T17:02:40.0000000+00:00</time></trkpt><trkpt lat="39.45764188" lon="-0.35324299"><ele>-4.0</ele><time>2022-11-04T17:02:41.0000000+00:00</time></trkpt><trkpt lat="39.45764716" lon="-0.35324684"><ele>-4.0</ele><time>2022-11-04T17:02:42.0000000+00:00</time></trkpt><trkpt lat="39.45765277" lon="-0.35324718"><ele>-4.0</ele><time>2022-11-04T17:02:43.0000000+00:00</time></trkpt><trkpt lat="39.45765881" lon="-0.35324693"><ele>-4.0</ele><time>2022-11-04T17:02:44.0000000+00:00</time></trkpt><trkpt lat="39.45766677" lon="-0.35324944"><ele>-3.8</ele><time>2022-11-04T17:02:45.0000000+00:00</time></trkpt><trkpt lat="39.45767381" lon="-0.35324911"><ele>-3.8</ele><time>2022-11-04T17:02:46.0000000+00:00</time></trkpt><trkpt lat="39.45767826" lon="-0.3532486"><ele>-3.8</ele><time>2022-11-04T17:02:47.0000000+00:00</time></trkpt><trkpt lat="39.45768261" lon="-0.35324726"><ele>-3.6</ele><time>2022-11-04T17:02:48.0000000+00:00</time></trkpt><trkpt lat="39.45769108" lon="-0.35324341"><ele>-3.6</ele><time>2022-11-04T17:02:49.0000000+00:00</time></trkpt><trkpt lat="39.45770189" lon="-0.3532393"><ele>-3.6</ele><time>2022-11-04T17:02:50.0000000+00:00</time></trkpt><trkpt lat="39.45771916" lon="-0.3532305"><ele>-3.6</ele><time>2022-11-04T17:02:51.0000000+00:00</time></trkpt><trkpt lat="39.4577314" lon="-0.35322371"><ele>-3.4</ele><time>2022-11-04T17:02:52.0000000+00:00</time></trkpt><trkpt lat="39.4577485" lon="-0.35322413"><ele>-3.2</ele><time>2022-11-04T17:02:53.0000000+00:00</time></trkpt><trkpt lat="39.45776316" lon="-0.35322648"><ele>-3.2</ele><time>2022-11-04T17:02:54.0000000+00:00</time></trkpt><trkpt lat="39.45778831" lon="-0.35322488"><ele>-3.2</ele><time>2022-11-04T17:02:55.0000000+00:00</time></trkpt><trkpt lat="39.45780574" lon="-0.35322581"><ele>-3.2</ele><time>2022-11-04T17:02:56.0000000+00:00</time></trkpt><trkpt lat="39.45781765" lon="-0.35322413"><ele>-3.2</ele><time>2022-11-04T17:02:57.0000000+00:00</time></trkpt><trkpt lat="39.45783005" lon="-0.35322547"><ele>-3.2</ele><time>2022-11-04T17:02:58.0000000+00:00</time></trkpt><trkpt lat="39.45784095" lon="-0.3532284"><ele>-3.2</ele><time>2022-11-04T17:02:59.0000000+00:00</time></trkpt><trkpt lat="39.45785662" lon="-0.35322891"><ele>-3.2</ele><time>2022-11-04T17:03:00.0000000+00:00</time></trkpt><trkpt lat="39.45787716" lon="-0.35322991"><ele>-3.2</ele><time>2022-11-04T17:03:01.0000000+00:00</time></trkpt><trkpt lat="39.45789375" lon="-0.35322958"><ele>-3.4</ele><time>2022-11-04T17:03:02.0000000+00:00</time></trkpt><trkpt lat="39.45790859" lon="-0.35323452"><ele>-3.4</ele><time>2022-11-04T17:03:03.0000000+00:00</time></trkpt><trkpt lat="39.45791982" lon="-0.35324626"><ele>-3.4</ele><time>2022-11-04T17:03:04.0000000+00:00</time></trkpt><trkpt lat="39.45793524" lon="-0.35325933"><ele>-3.6</ele><time>2022-11-04T17:03:05.0000000+00:00</time></trkpt><trkpt lat="39.45795494" lon="-0.35327434"><ele>-3.6</ele><time>2022-11-04T17:03:06.0000000+00:00</time></trkpt><trkpt lat="39.45796986" lon="-0.35328733"><ele>-3.6</ele><time>2022-11-04T17:03:07.0000000+00:00</time></trkpt><trkpt lat="39.45798118" lon="-0.35329688"><ele>-3.6</ele><time>2022-11-04T17:03:08.0000000+00:00</time></trkpt><trkpt lat="39.45798679" lon="-0.35330887"><ele>-3.6</ele><time>2022-11-04T17:03:09.0000000+00:00</time></trkpt><trkpt lat="39.45799207" lon="-0.35332002"><ele>-3.6</ele><time>2022-11-04T17:03:10.0000000+00:00</time></trkpt><trkpt lat="39.45799903" lon="-0.35333452"><ele>-3.6</ele><time>2022-11-04T17:03:11.0000000+00:00</time></trkpt><trkpt lat="39.45801152" lon="-0.35335313"><ele>-3.6</ele><time>2022-11-04T17:03:12.0000000+00:00</time></trkpt><trkpt lat="39.45801755" lon="-0.35336922"><ele>-3.6</ele><time>2022-11-04T17:03:13.0000000+00:00</time></trkpt><trkpt lat="39.45802652" lon="-0.3533859"><ele>-3.6</ele><time>2022-11-04T17:03:14.0000000+00:00</time></trkpt><trkpt lat="39.45802803" lon="-0.35340074"><ele>-3.6</ele><time>2022-11-04T17:03:15.0000000+00:00</time></trkpt><trkpt lat="39.45802527" lon="-0.35341566"><ele>-3.6</ele><time>2022-11-04T17:03:16.0000000+00:00</time></trkpt><trkpt lat="39.45802066" lon="-0.35342773"><ele>-3.4</ele><time>2022-11-04T17:03:17.0000000+00:00</time></trkpt><trkpt lat="39.45801856" lon="-0.35344348"><ele>-3.4</ele><time>2022-11-04T17:03:18.0000000+00:00</time></trkpt><trkpt lat="39.45801563" lon="-0.35346142"><ele>-3.2</ele><time>2022-11-04T17:03:19.0000000+00:00</time></trkpt><trkpt lat="39.45801211" lon="-0.35347768"><ele>-3.2</ele><time>2022-11-04T17:03:20.0000000+00:00</time></trkpt><trkpt lat="39.45800683" lon="-0.35349495"><ele>-3.2</ele><time>2022-11-04T17:03:21.0000000+00:00</time></trkpt><trkpt lat="39.4580023" lon="-0.35351213"><ele>-3.2</ele><time>2022-11-04T17:03:22.0000000+00:00</time></trkpt><trkpt lat="39.45799635" lon="-0.35352982"><ele>-3.2</ele><time>2022-11-04T17:03:23.0000000+00:00</time></trkpt><trkpt lat="39.45799115" lon="-0.35354641"><ele>-3.2</ele><time>2022-11-04T17:03:24.0000000+00:00</time></trkpt><trkpt lat="39.45798889" lon="-0.35356318"><ele>-3.2</ele><time>2022-11-04T17:03:25.0000000+00:00</time></trkpt><trkpt lat="39.45798579" lon="-0.35357751"><ele>-3.2</ele><time>2022-11-04T17:03:26.0000000+00:00</time></trkpt><trkpt lat="39.45797967" lon="-0.35359092"><ele>-3.2</ele><time>2022-11-04T17:03:27.0000000+00:00</time></trkpt><trkpt lat="39.4579733" lon="-0.35360291"><ele>-3.2</ele><time>2022-11-04T17:03:28.0000000+00:00</time></trkpt><trkpt lat="39.45796793" lon="-0.35361582"><ele>-3.2</ele><time>2022-11-04T17:03:29.0000000+00:00</time></trkpt><trkpt lat="39.45796374" lon="-0.35362797"><ele>-3.2</ele><time>2022-11-04T17:03:30.0000000+00:00</time></trkpt><trkpt lat="39.45796173" lon="-0.3536392"><ele>-3.2</ele><time>2022-11-04T17:03:31.0000000+00:00</time></trkpt><trkpt lat="39.45796039" lon="-0.35364666"><ele>-3.4</ele><time>2022-11-04T17:03:32.0000000+00:00</time></trkpt><trkpt lat="39.45796022" lon="-0.35365211"><ele>-3.4</ele><time>2022-11-04T17:03:33.0000000+00:00</time></trkpt><trkpt lat="39.45795561" lon="-0.35365605"><ele>-3.4</ele><time>2022-11-04T17:03:34.0000000+00:00</time></trkpt><trkpt lat="39.4579422" lon="-0.35365731"><ele>-3.6</ele><time>2022-11-04T17:03:35.0000000+00:00</time></trkpt><trkpt lat="39.45793399" lon="-0.35365563"><ele>-3.6</ele><time>2022-11-04T17:03:36.0000000+00:00</time></trkpt><trkpt lat="39.45792452" lon="-0.35365203"><ele>-3.6</ele><time>2022-11-04T17:03:37.0000000+00:00</time></trkpt><trkpt lat="39.45790867" lon="-0.353648"><ele>-3.8</ele><time>2022-11-04T17:03:38.0000000+00:00</time></trkpt><trkpt lat="39.45789191" lon="-0.35364792"><ele>-3.8</ele><time>2022-11-04T17:03:39.0000000+00:00</time></trkpt><trkpt lat="39.457879" lon="-0.35365362"><ele>-3.8</ele><time>2022-11-04T17:03:40.0000000+00:00</time></trkpt><trkpt lat="39.45786676" lon="-0.35365957"><ele>-3.8</ele><time>2022-11-04T17:03:41.0000000+00:00</time></trkpt><trkpt lat="39.45785671" lon="-0.35367466"><ele>-4.0</ele><time>2022-11-04T17:03:42.0000000+00:00</time></trkpt><trkpt lat="39.45784774" lon="-0.35369184"><ele>-4.0</ele><time>2022-11-04T17:03:43.0000000+00:00</time></trkpt><trkpt lat="39.45783273" lon="-0.35370173"><ele>-4.0</ele><time>2022-11-04T17:03:44.0000000+00:00</time></trkpt><trkpt lat="39.4578205" lon="-0.35371472"><ele>-4.0</ele><time>2022-11-04T17:03:45.0000000+00:00</time></trkpt><trkpt lat="39.45780952" lon="-0.35372403"><ele>-4.0</ele><time>2022-11-04T17:03:46.0000000+00:00</time></trkpt><trkpt lat="39.4577982" lon="-0.35373006"><ele>-4.2</ele><time>2022-11-04T17:03:47.0000000+00:00</time></trkpt><trkpt lat="39.45778823" lon="-0.35373995"><ele>-4.2</ele><time>2022-11-04T17:03:48.0000000+00:00</time></trkpt><trkpt lat="39.45777884" lon="-0.35374649"><ele>-4.2</ele><time>2022-11-04T17:03:49.0000000+00:00</time></trkpt><trkpt lat="39.45776953" lon="-0.35375437"><ele>-4.2</ele><time>2022-11-04T17:03:50.0000000+00:00</time></trkpt><trkpt lat="39.457763" lon="-0.35376535"><ele>-4.2</ele><time>2022-11-04T17:03:51.0000000+00:00</time></trkpt><trkpt lat="39.45775855" lon="-0.35377415"><ele>-4.4</ele><time>2022-11-04T17:03:52.0000000+00:00</time></trkpt><trkpt lat="39.45775378" lon="-0.35378446"><ele>-4.4</ele><time>2022-11-04T17:03:53.0000000+00:00</time></trkpt><trkpt lat="39.45774699" lon="-0.35379435"><ele>-4.4</ele><time>2022-11-04T17:03:54.0000000+00:00</time></trkpt><trkpt lat="39.45774028" lon="-0.35380256"><ele>-4.4</ele><time>2022-11-04T17:03:55.0000000+00:00</time></trkpt><trkpt lat="39.45773458" lon="-0.35381505"><ele>-4.4</ele><time>2022-11-04T17:03:56.0000000+00:00</time></trkpt><trkpt lat="39.45772947" lon="-0.35382939"><ele>-4.6</ele><time>2022-11-04T17:03:57.0000000+00:00</time></trkpt><trkpt lat="39.45772511" lon="-0.35384188"><ele>-4.6</ele><time>2022-11-04T17:03:58.0000000+00:00</time></trkpt><trkpt lat="39.45771849" lon="-0.35385445"><ele>-4.8</ele><time>2022-11-04T17:03:59.0000000+00:00</time></trkpt><trkpt lat="39.45771053" lon="-0.35386543"><ele>-4.8</ele><time>2022-11-04T17:04:00.0000000+00:00</time></trkpt><trkpt lat="39.45770038" lon="-0.35387255"><ele>-4.8</ele><time>2022-11-04T17:04:01.0000000+00:00</time></trkpt><trkpt lat="39.45769083" lon="-0.35388035"><ele>-4.8</ele><time>2022-11-04T17:04:02.0000000+00:00</time></trkpt><trkpt lat="39.4576837" lon="-0.35389016"><ele>-5.0</ele><time>2022-11-04T17:04:03.0000000+00:00</time></trkpt><trkpt lat="39.45767784" lon="-0.35390273"><ele>-5.0</ele><time>2022-11-04T17:04:04.0000000+00:00</time></trkpt><trkpt lat="39.45767004" lon="-0.35391681"><ele>-5.0</ele><time>2022-11-04T17:04:05.0000000+00:00</time></trkpt><trkpt lat="39.45766526" lon="-0.35393064"><ele>-5.0</ele><time>2022-11-04T17:04:06.0000000+00:00</time></trkpt><trkpt lat="39.45766049" lon="-0.35394321"><ele>-5.0</ele><time>2022-11-04T17:04:07.0000000+00:00</time></trkpt><trkpt lat="39.45765353" lon="-0.35395671"><ele>-5.0</ele><time>2022-11-04T17:04:08.0000000+00:00</time></trkpt><trkpt lat="39.45765152" lon="-0.35397263"><ele>-5.0</ele><time>2022-11-04T17:04:09.0000000+00:00</time></trkpt><trkpt lat="39.45765009" lon="-0.35398923"><ele>-5.0</ele><time>2022-11-04T17:04:10.0000000+00:00</time></trkpt><trkpt lat="39.45764967" lon="-0.35400557"><ele>-5.0</ele><time>2022-11-04T17:04:11.0000000+00:00</time></trkpt><trkpt lat="39.4576511" lon="-0.35402024"><ele>-5.0</ele><time>2022-11-04T17:04:12.0000000+00:00</time></trkpt><trkpt lat="39.45765386" lon="-0.35403323"><ele>-5.0</ele><time>2022-11-04T17:04:13.0000000+00:00</time></trkpt><trkpt lat="39.45765646" lon="-0.35404539"><ele>-5.0</ele><time>2022-11-04T17:04:14.0000000+00:00</time></trkpt><trkpt lat="39.45765839" lon="-0.35406198"><ele>-5.0</ele><time>2022-11-04T17:04:15.0000000+00:00</time></trkpt><trkpt lat="39.45766585" lon="-0.354079"><ele>-5.0</ele><time>2022-11-04T17:04:16.0000000+00:00</time></trkpt><trkpt lat="39.45766929" lon="-0.35409526"><ele>-5.0</ele><time>2022-11-04T17:04:17.0000000+00:00</time></trkpt><trkpt lat="39.45767339" lon="-0.35410884"><ele>-5.0</ele><time>2022-11-04T17:04:18.0000000+00:00</time></trkpt><trkpt lat="39.4576744" lon="-0.35411873"><ele>-5.0</ele><time>2022-11-04T17:04:19.0000000+00:00</time></trkpt><trkpt lat="39.45767515" lon="-0.3541272"><ele>-5.0</ele><time>2022-11-04T17:04:20.0000000+00:00</time></trkpt><trkpt lat="39.4576718" lon="-0.35413466"><ele>-5.2</ele><time>2022-11-04T17:04:21.0000000+00:00</time></trkpt><trkpt lat="39.45767121" lon="-0.35414421"><ele>-5.2</ele><time>2022-11-04T17:04:22.0000000+00:00</time></trkpt><trkpt lat="39.45767415" lon="-0.3541427"><ele>-5.2</ele><time>2022-11-04T17:04:23.0000000+00:00</time></trkpt><trkpt lat="39.45768572" lon="-0.35414388"><ele>-5.2</ele><time>2022-11-04T17:04:24.0000000+00:00</time></trkpt><trkpt lat="39.45768781" lon="-0.35415075"><ele>-5.2</ele><time>2022-11-04T17:04:25.0000000+00:00</time></trkpt><trkpt lat="39.45768932" lon="-0.35416483"><ele>-5.2</ele><time>2022-11-04T17:04:26.0000000+00:00</time></trkpt><trkpt lat="39.45769309" lon="-0.35418285"><ele>-5.2</ele><time>2022-11-04T17:04:27.0000000+00:00</time></trkpt><trkpt lat="39.45769795" lon="-0.35420045"><ele>-5.0</ele><time>2022-11-04T17:04:28.0000000+00:00</time></trkpt><trkpt lat="39.45770248" lon="-0.35421931"><ele>-5.0</ele><time>2022-11-04T17:04:29.0000000+00:00</time></trkpt><trkpt lat="39.45770524" lon="-0.35423633"><ele>-5.0</ele><time>2022-11-04T17:04:30.0000000+00:00</time></trkpt><trkpt lat="39.45770734" lon="-0.35424831"><ele>-5.0</ele><time>2022-11-04T17:04:31.0000000+00:00</time></trkpt><trkpt lat="39.45771002" lon="-0.35426214"><ele>-5.0</ele><time>2022-11-04T17:04:32.0000000+00:00</time></trkpt><trkpt lat="39.45771111" lon="-0.35427706"><ele>-5.0</ele><time>2022-11-04T17:04:33.0000000+00:00</time></trkpt><trkpt lat="39.45771472" lon="-0.35428922"><ele>-5.0</ele><time>2022-11-04T17:04:34.0000000+00:00</time></trkpt><trkpt lat="39.45771312" lon="-0.35430514"><ele>-5.0</ele><time>2022-11-04T17:04:35.0000000+00:00</time></trkpt><trkpt lat="39.45771103" lon="-0.35432434"><ele>-5.0</ele><time>2022-11-04T17:04:36.0000000+00:00</time></trkpt><trkpt lat="39.45771036" lon="-0.35434563"><ele>-5.0</ele><time>2022-11-04T17:04:37.0000000+00:00</time></trkpt><trkpt lat="39.45770583" lon="-0.35436985"><ele>-5.0</ele><time>2022-11-04T17:04:38.0000000+00:00</time></trkpt><trkpt lat="39.45771514" lon="-0.35438729"><ele>-5.0</ele><time>2022-11-04T17:04:39.0000000+00:00</time></trkpt><trkpt lat="39.45773022" lon="-0.35440086"><ele>-5.0</ele><time>2022-11-04T17:04:40.0000000+00:00</time></trkpt><trkpt lat="39.45774498" lon="-0.35441503"><ele>-5.0</ele><time>2022-11-04T17:04:41.0000000+00:00</time></trkpt><trkpt lat="39.45775939" lon="-0.354424"><ele>-5.0</ele><time>2022-11-04T17:04:42.0000000+00:00</time></trkpt><trkpt lat="39.45776878" lon="-0.35443272"><ele>-5.0</ele><time>2022-11-04T17:04:43.0000000+00:00</time></trkpt><trkpt lat="39.45778127" lon="-0.35443984"><ele>-4.8</ele><time>2022-11-04T17:04:44.0000000+00:00</time></trkpt><trkpt lat="39.45779401" lon="-0.35444613"><ele>-4.8</ele><time>2022-11-04T17:04:45.0000000+00:00</time></trkpt><trkpt lat="39.4578117" lon="-0.35445174"><ele>-4.8</ele><time>2022-11-04T17:04:46.0000000+00:00</time></trkpt><trkpt lat="39.45783257" lon="-0.35445551"><ele>-4.8</ele><time>2022-11-04T17:04:47.0000000+00:00</time></trkpt><trkpt lat="39.45785428" lon="-0.35445811"><ele>-4.8</ele><time>2022-11-04T17:04:48.0000000+00:00</time></trkpt><trkpt lat="39.45787691" lon="-0.35445811"><ele>-4.8</ele><time>2022-11-04T17:04:49.0000000+00:00</time></trkpt><trkpt lat="39.45789593" lon="-0.35445811"><ele>-4.8</ele><time>2022-11-04T17:04:50.0000000+00:00</time></trkpt><trkpt lat="39.45791178" lon="-0.35446297"><ele>-4.8</ele><time>2022-11-04T17:04:51.0000000+00:00</time></trkpt><trkpt lat="39.45792737" lon="-0.35446825"><ele>-4.8</ele><time>2022-11-04T17:04:52.0000000+00:00</time></trkpt><trkpt lat="39.45794815" lon="-0.35446884"><ele>-4.8</ele><time>2022-11-04T17:04:53.0000000+00:00</time></trkpt><trkpt lat="39.45796819" lon="-0.35447119"><ele>-4.8</ele><time>2022-11-04T17:04:54.0000000+00:00</time></trkpt><trkpt lat="39.45798679" lon="-0.35447815"><ele>-4.8</ele><time>2022-11-04T17:04:55.0000000+00:00</time></trkpt><trkpt lat="39.45800196" lon="-0.35449231"><ele>-4.6</ele><time>2022-11-04T17:04:56.0000000+00:00</time></trkpt><trkpt lat="39.45800523" lon="-0.35452232"><ele>-4.6</ele><time>2022-11-04T17:04:57.0000000+00:00</time></trkpt><trkpt lat="39.4580049" lon="-0.35454688"><ele>-4.6</ele><time>2022-11-04T17:04:58.0000000+00:00</time></trkpt><trkpt lat="39.45800984" lon="-0.35456406"><ele>-4.6</ele><time>2022-11-04T17:04:59.0000000+00:00</time></trkpt><trkpt lat="39.45801999" lon="-0.35456959"><ele>-4.6</ele><time>2022-11-04T17:05:00.0000000+00:00</time></trkpt><trkpt lat="39.45803155" lon="-0.35456708"><ele>-4.8</ele><time>2022-11-04T17:05:01.0000000+00:00</time></trkpt><trkpt lat="39.4580432" lon="-0.35456515"><ele>-4.8</ele><time>2022-11-04T17:05:02.0000000+00:00</time></trkpt><trkpt lat="39.45805343" lon="-0.35456548"><ele>-5.0</ele><time>2022-11-04T17:05:03.0000000+00:00</time></trkpt><trkpt lat="39.45806583" lon="-0.354568"><ele>-5.0</ele><time>2022-11-04T17:05:04.0000000+00:00</time></trkpt><trkpt lat="39.45807941" lon="-0.35457135"><ele>-5.0</ele><time>2022-11-04T17:05:05.0000000+00:00</time></trkpt><trkpt lat="39.45809383" lon="-0.35457471"><ele>-5.0</ele><time>2022-11-04T17:05:06.0000000+00:00</time></trkpt><trkpt lat="39.4581064" lon="-0.35458007"><ele>-5.0</ele><time>2022-11-04T17:05:07.0000000+00:00</time></trkpt><trkpt lat="39.45811956" lon="-0.35458854"><ele>-5.0</ele><time>2022-11-04T17:05:08.0000000+00:00</time></trkpt><trkpt lat="39.45813457" lon="-0.3545965"><ele>-4.8</ele><time>2022-11-04T17:05:09.0000000+00:00</time></trkpt><trkpt lat="39.45814915" lon="-0.35460547"><ele>-4.8</ele><time>2022-11-04T17:05:10.0000000+00:00</time></trkpt><trkpt lat="39.45816524" lon="-0.35461368"><ele>-4.8</ele><time>2022-11-04T17:05:11.0000000+00:00</time></trkpt><trkpt lat="39.45817782" lon="-0.35462458"><ele>-4.8</ele><time>2022-11-04T17:05:12.0000000+00:00</time></trkpt><trkpt lat="39.45819248" lon="-0.35463832"><ele>-4.8</ele><time>2022-11-04T17:05:13.0000000+00:00</time></trkpt><trkpt lat="39.45820464" lon="-0.35465467"><ele>-5.0</ele><time>2022-11-04T17:05:14.0000000+00:00</time></trkpt><trkpt lat="39.45821704" lon="-0.3546737"><ele>-5.0</ele><time>2022-11-04T17:05:15.0000000+00:00</time></trkpt><trkpt lat="39.45822073" lon="-0.35470211"><ele>-5.2</ele><time>2022-11-04T17:05:16.0000000+00:00</time></trkpt><trkpt lat="39.45822618" lon="-0.35472306"><ele>-5.2</ele><time>2022-11-04T17:05:17.0000000+00:00</time></trkpt><trkpt lat="39.4582333" lon="-0.35473949"><ele>-5.2</ele><time>2022-11-04T17:05:18.0000000+00:00</time></trkpt><trkpt lat="39.45824009" lon="-0.35475525"><ele>-5.2</ele><time>2022-11-04T17:05:19.0000000+00:00</time></trkpt><trkpt lat="39.45824655" lon="-0.35477218"><ele>-5.0</ele><time>2022-11-04T17:05:20.0000000+00:00</time></trkpt><trkpt lat="39.45825996" lon="-0.35478308"><ele>-5.0</ele><time>2022-11-04T17:05:21.0000000+00:00</time></trkpt><trkpt lat="39.45827178" lon="-0.35479439"><ele>-5.0</ele><time>2022-11-04T17:05:22.0000000+00:00</time></trkpt><trkpt lat="39.45828502" lon="-0.3548047"><ele>-5.0</ele><time>2022-11-04T17:05:23.0000000+00:00</time></trkpt><trkpt lat="39.45829449" lon="-0.35482063"><ele>-5.0</ele><time>2022-11-04T17:05:24.0000000+00:00</time></trkpt><trkpt lat="39.4583007" lon="-0.35484058"><ele>-5.0</ele><time>2022-11-04T17:05:25.0000000+00:00</time></trkpt><trkpt lat="39.45829843" lon="-0.35486681"><ele>-5.0</ele><time>2022-11-04T17:05:26.0000000+00:00</time></trkpt><trkpt lat="39.45830732" lon="-0.35488132"><ele>-5.0</ele><time>2022-11-04T17:05:27.0000000+00:00</time></trkpt><trkpt lat="39.45831293" lon="-0.35489833"><ele>-5.0</ele><time>2022-11-04T17:05:28.0000000+00:00</time></trkpt><trkpt lat="39.45831989" lon="-0.35491409"><ele>-5.0</ele><time>2022-11-04T17:05:29.0000000+00:00</time></trkpt><trkpt lat="39.45832492" lon="-0.35493613"><ele>-5.0</ele><time>2022-11-04T17:05:30.0000000+00:00</time></trkpt><trkpt lat="39.45832819" lon="-0.35495566"><ele>-5.0</ele><time>2022-11-04T17:05:31.0000000+00:00</time></trkpt><trkpt lat="39.45833221" lon="-0.35497083"><ele>-5.0</ele><time>2022-11-04T17:05:32.0000000+00:00</time></trkpt><trkpt lat="39.45833867" lon="-0.35498785"><ele>-5.0</ele><time>2022-11-04T17:05:33.0000000+00:00</time></trkpt><trkpt lat="39.45834319" lon="-0.35500562"><ele>-5.0</ele><time>2022-11-04T17:05:34.0000000+00:00</time></trkpt><trkpt lat="39.45834973" lon="-0.35502012"><ele>-4.8</ele><time>2022-11-04T17:05:35.0000000+00:00</time></trkpt><trkpt lat="39.45836105" lon="-0.35503018"><ele>-4.8</ele><time>2022-11-04T17:05:36.0000000+00:00</time></trkpt><trkpt lat="39.45837462" lon="-0.35503672"><ele>-4.8</ele><time>2022-11-04T17:05:37.0000000+00:00</time></trkpt><trkpt lat="39.45838619" lon="-0.35504426"><ele>-4.8</ele><time>2022-11-04T17:05:38.0000000+00:00</time></trkpt><trkpt lat="39.45839893" lon="-0.35505214"><ele>-4.8</ele><time>2022-11-04T17:05:39.0000000+00:00</time></trkpt><trkpt lat="39.45841008" lon="-0.35506605"><ele>-4.6</ele><time>2022-11-04T17:05:40.0000000+00:00</time></trkpt><trkpt lat="39.45842148" lon="-0.35507812"><ele>-4.6</ele><time>2022-11-04T17:05:41.0000000+00:00</time></trkpt><trkpt lat="39.45843212" lon="-0.35508734"><ele>-4.6</ele><time>2022-11-04T17:05:42.0000000+00:00</time></trkpt><trkpt lat="39.45844478" lon="-0.35509874"><ele>-4.4</ele><time>2022-11-04T17:05:43.0000000+00:00</time></trkpt><trkpt lat="39.45845174" lon="-0.3551124"><ele>-4.4</ele><time>2022-11-04T17:05:44.0000000+00:00</time></trkpt><trkpt lat="39.45845836" lon="-0.35512883"><ele>-4.4</ele><time>2022-11-04T17:05:45.0000000+00:00</time></trkpt><trkpt lat="39.45846247" lon="-0.35514861"><ele>-4.6</ele><time>2022-11-04T17:05:46.0000000+00:00</time></trkpt><trkpt lat="39.45846775" lon="-0.35516705"><ele>-4.6</ele><time>2022-11-04T17:05:47.0000000+00:00</time></trkpt><trkpt lat="39.45847361" lon="-0.35518323"><ele>-4.6</ele><time>2022-11-04T17:05:48.0000000+00:00</time></trkpt><trkpt lat="39.45847806" lon="-0.35520142"><ele>-4.6</ele><time>2022-11-04T17:05:49.0000000+00:00</time></trkpt><trkpt lat="39.45848124" lon="-0.35522271"><ele>-4.4</ele><time>2022-11-04T17:05:50.0000000+00:00</time></trkpt><trkpt lat="39.45848845" lon="-0.35524123"><ele>-4.4</ele><time>2022-11-04T17:05:51.0000000+00:00</time></trkpt><trkpt lat="39.45849683" lon="-0.35525699"><ele>-4.4</ele><time>2022-11-04T17:05:52.0000000+00:00</time></trkpt><trkpt lat="39.45850547" lon="-0.35527049"><ele>-4.4</ele><time>2022-11-04T17:05:53.0000000+00:00</time></trkpt><trkpt lat="39.45851259" lon="-0.35528432"><ele>-4.4</ele><time>2022-11-04T17:05:54.0000000+00:00</time></trkpt><trkpt lat="39.45851871" lon="-0.35529748"><ele>-4.4</ele><time>2022-11-04T17:05:55.0000000+00:00</time></trkpt><trkpt lat="39.45852516" lon="-0.35531391"><ele>-4.6</ele><time>2022-11-04T17:05:56.0000000+00:00</time></trkpt><trkpt lat="39.45853229" lon="-0.35533017"><ele>-4.8</ele><time>2022-11-04T17:05:57.0000000+00:00</time></trkpt><trkpt lat="39.45854" lon="-0.355345"><ele>-4.8</ele><time>2022-11-04T17:05:58.0000000+00:00</time></trkpt><trkpt lat="39.45854737" lon="-0.35536244"><ele>-5.0</ele><time>2022-11-04T17:05:59.0000000+00:00</time></trkpt><trkpt lat="39.45855031" lon="-0.35538297"><ele>-5.0</ele><time>2022-11-04T17:06:00.0000000+00:00</time></trkpt><trkpt lat="39.45855173" lon="-0.35540208"><ele>-5.0</ele><time>2022-11-04T17:06:01.0000000+00:00</time></trkpt><trkpt lat="39.45855165" lon="-0.35542262"><ele>-5.0</ele><time>2022-11-04T17:06:02.0000000+00:00</time></trkpt><trkpt lat="39.458555" lon="-0.35543896"><ele>-4.8</ele><time>2022-11-04T17:06:03.0000000+00:00</time></trkpt><trkpt lat="39.45855609" lon="-0.35545799"><ele>-4.8</ele><time>2022-11-04T17:06:04.0000000+00:00</time></trkpt><trkpt lat="39.45856129" lon="-0.35547308"><ele>-4.8</ele><time>2022-11-04T17:06:05.0000000+00:00</time></trkpt><trkpt lat="39.45856464" lon="-0.35548917"><ele>-4.8</ele><time>2022-11-04T17:06:06.0000000+00:00</time></trkpt><trkpt lat="39.45856741" lon="-0.35550753"><ele>-4.6</ele><time>2022-11-04T17:06:07.0000000+00:00</time></trkpt><trkpt lat="39.45857177" lon="-0.35552404"><ele>-4.6</ele><time>2022-11-04T17:06:08.0000000+00:00</time></trkpt><trkpt lat="39.45857629" lon="-0.35553695"><ele>-4.8</ele><time>2022-11-04T17:06:09.0000000+00:00</time></trkpt><trkpt lat="39.45857998" lon="-0.35554826"><ele>-5.0</ele><time>2022-11-04T17:06:10.0000000+00:00</time></trkpt><trkpt lat="39.45857931" lon="-0.35555648"><ele>-5.0</ele><time>2022-11-04T17:06:11.0000000+00:00</time></trkpt><trkpt lat="39.45857889" lon="-0.35555949"><ele>-5.0</ele><time>2022-11-04T17:06:12.0000000+00:00</time></trkpt><trkpt lat="39.4585768" lon="-0.3555688"><ele>-5.0</ele><time>2022-11-04T17:06:13.0000000+00:00</time></trkpt><trkpt lat="39.45857881" lon="-0.35558255"><ele>-5.0</ele><time>2022-11-04T17:06:14.0000000+00:00</time></trkpt><trkpt lat="39.45858325" lon="-0.35559797"><ele>-5.0</ele><time>2022-11-04T17:06:15.0000000+00:00</time></trkpt><trkpt lat="39.45858643" lon="-0.35561565"><ele>-5.0</ele><time>2022-11-04T17:06:16.0000000+00:00</time></trkpt><trkpt lat="39.45858903" lon="-0.35563351"><ele>-5.0</ele><time>2022-11-04T17:06:17.0000000+00:00</time></trkpt><trkpt lat="39.45859213" lon="-0.35564943"><ele>-5.0</ele><time>2022-11-04T17:06:18.0000000+00:00</time></trkpt><trkpt lat="39.45859524" lon="-0.35566745"><ele>-5.0</ele><time>2022-11-04T17:06:19.0000000+00:00</time></trkpt><trkpt lat="39.45859733" lon="-0.35568522"><ele>-5.0</ele><time>2022-11-04T17:06:20.0000000+00:00</time></trkpt><trkpt lat="39.45860186" lon="-0.35570266"><ele>-5.0</ele><time>2022-11-04T17:06:21.0000000+00:00</time></trkpt><trkpt lat="39.45860454" lon="-0.35571925"><ele>-4.8</ele><time>2022-11-04T17:06:22.0000000+00:00</time></trkpt><trkpt lat="39.45860957" lon="-0.35573468"><ele>-4.8</ele><time>2022-11-04T17:06:23.0000000+00:00</time></trkpt><trkpt lat="39.45861233" lon="-0.35575077"><ele>-4.8</ele><time>2022-11-04T17:06:24.0000000+00:00</time></trkpt><trkpt lat="39.45861368" lon="-0.35577055"><ele>-4.8</ele><time>2022-11-04T17:06:25.0000000+00:00</time></trkpt><trkpt lat="39.45861544" lon="-0.35578908"><ele>-4.8</ele><time>2022-11-04T17:06:26.0000000+00:00</time></trkpt><trkpt lat="39.45861762" lon="-0.35580852"><ele>-4.8</ele><time>2022-11-04T17:06:27.0000000+00:00</time></trkpt><trkpt lat="39.45861979" lon="-0.35582797"><ele>-4.8</ele><time>2022-11-04T17:06:28.0000000+00:00</time></trkpt><trkpt lat="39.45861988" lon="-0.35584917"><ele>-5.0</ele><time>2022-11-04T17:06:29.0000000+00:00</time></trkpt><trkpt lat="39.4586208" lon="-0.35587021"><ele>-5.2</ele><time>2022-11-04T17:06:30.0000000+00:00</time></trkpt><trkpt lat="39.45861912" lon="-0.35589184"><ele>-5.2</ele><time>2022-11-04T17:06:31.0000000+00:00</time></trkpt><trkpt lat="39.4586187" lon="-0.35591464"><ele>-5.4</ele><time>2022-11-04T17:06:32.0000000+00:00</time></trkpt><trkpt lat="39.45861745" lon="-0.35593559"><ele>-5.4</ele><time>2022-11-04T17:06:33.0000000+00:00</time></trkpt><trkpt lat="39.45861854" lon="-0.35595403"><ele>-5.4</ele><time>2022-11-04T17:06:34.0000000+00:00</time></trkpt><trkpt lat="39.45861954" lon="-0.35597415"><ele>-5.2</ele><time>2022-11-04T17:06:35.0000000+00:00</time></trkpt><trkpt lat="39.45862223" lon="-0.35599334"><ele>-5.2</ele><time>2022-11-04T17:06:36.0000000+00:00</time></trkpt><trkpt lat="39.45862809" lon="-0.35601178"><ele>-5.2</ele><time>2022-11-04T17:06:37.0000000+00:00</time></trkpt><trkpt lat="39.4586353" lon="-0.35602788"><ele>-5.2</ele><time>2022-11-04T17:06:38.0000000+00:00</time></trkpt><trkpt lat="39.45864025" lon="-0.35604363"><ele>-5.2</ele><time>2022-11-04T17:06:39.0000000+00:00</time></trkpt><trkpt lat="39.45864511" lon="-0.35606132"><ele>-5.2</ele><time>2022-11-04T17:06:40.0000000+00:00</time></trkpt><trkpt lat="39.45864813" lon="-0.35608085"><ele>-5.2</ele><time>2022-11-04T17:06:41.0000000+00:00</time></trkpt><trkpt lat="39.4586493" lon="-0.3561013"><ele>-5.2</ele><time>2022-11-04T17:06:42.0000000+00:00</time></trkpt><trkpt lat="39.45865114" lon="-0.35612091"><ele>-5.2</ele><time>2022-11-04T17:06:43.0000000+00:00</time></trkpt><trkpt lat="39.45865374" lon="-0.35613935"><ele>-5.2</ele><time>2022-11-04T17:06:44.0000000+00:00</time></trkpt><trkpt lat="39.45865391" lon="-0.35615905"><ele>-5.2</ele><time>2022-11-04T17:06:45.0000000+00:00</time></trkpt><trkpt lat="39.45865559" lon="-0.3561795"><ele>-5.2</ele><time>2022-11-04T17:06:46.0000000+00:00</time></trkpt><trkpt lat="39.4586602" lon="-0.35620046"><ele>-5.2</ele><time>2022-11-04T17:06:47.0000000+00:00</time></trkpt><trkpt lat="39.45866388" lon="-0.35622024"><ele>-5.2</ele><time>2022-11-04T17:06:48.0000000+00:00</time></trkpt><trkpt lat="39.45866615" lon="-0.35624044"><ele>-5.2</ele><time>2022-11-04T17:06:49.0000000+00:00</time></trkpt><trkpt lat="39.45866967" lon="-0.35625754"><ele>-5.4</ele><time>2022-11-04T17:06:50.0000000+00:00</time></trkpt><trkpt lat="39.45867377" lon="-0.35627464"><ele>-5.4</ele><time>2022-11-04T17:06:51.0000000+00:00</time></trkpt><trkpt lat="39.45867696" lon="-0.35629333"><ele>-5.6</ele><time>2022-11-04T17:06:52.0000000+00:00</time></trkpt><trkpt lat="39.45867855" lon="-0.35630926"><ele>-5.6</ele><time>2022-11-04T17:06:53.0000000+00:00</time></trkpt><trkpt lat="39.45868224" lon="-0.35632468"><ele>-5.6</ele><time>2022-11-04T17:06:54.0000000+00:00</time></trkpt><trkpt lat="39.45869096" lon="-0.35633482"><ele>-5.6</ele><time>2022-11-04T17:06:55.0000000+00:00</time></trkpt><trkpt lat="39.45869993" lon="-0.35634622"><ele>-5.6</ele><time>2022-11-04T17:06:56.0000000+00:00</time></trkpt><trkpt lat="39.45870998" lon="-0.35635712"><ele>-5.6</ele><time>2022-11-04T17:06:57.0000000+00:00</time></trkpt><trkpt lat="39.45872155" lon="-0.35636919"><ele>-5.6</ele><time>2022-11-04T17:06:58.0000000+00:00</time></trkpt><trkpt lat="39.45873354" lon="-0.35638201"><ele>-5.6</ele><time>2022-11-04T17:06:59.0000000+00:00</time></trkpt><trkpt lat="39.45874267" lon="-0.35639802"><ele>-5.6</ele><time>2022-11-04T17:07:00.0000000+00:00</time></trkpt><trkpt lat="39.45875282" lon="-0.35641244"><ele>-5.6</ele><time>2022-11-04T17:07:01.0000000+00:00</time></trkpt><trkpt lat="39.45876312" lon="-0.35642644"><ele>-5.6</ele><time>2022-11-04T17:07:02.0000000+00:00</time></trkpt><trkpt lat="39.45877159" lon="-0.35644127"><ele>-5.6</ele><time>2022-11-04T17:07:03.0000000+00:00</time></trkpt><trkpt lat="39.4587783" lon="-0.35645368"><ele>-5.6</ele><time>2022-11-04T17:07:04.0000000+00:00</time></trkpt><trkpt lat="39.45878433" lon="-0.35646767"><ele>-5.6</ele><time>2022-11-04T17:07:05.0000000+00:00</time></trkpt><trkpt lat="39.45879187" lon="-0.35647882"><ele>-5.6</ele><time>2022-11-04T17:07:06.0000000+00:00</time></trkpt><trkpt lat="39.4588047" lon="-0.35649357"><ele>-5.6</ele><time>2022-11-04T17:07:07.0000000+00:00</time></trkpt><trkpt lat="39.45881451" lon="-0.3565064"><ele>-5.6</ele><time>2022-11-04T17:07:08.0000000+00:00</time></trkpt><trkpt lat="39.45881987" lon="-0.35651813"><ele>-5.4</ele><time>2022-11-04T17:07:09.0000000+00:00</time></trkpt><trkpt lat="39.4588275" lon="-0.35652987"><ele>-5.4</ele><time>2022-11-04T17:07:10.0000000+00:00</time></trkpt><trkpt lat="39.4588368" lon="-0.35653414"><ele>-5.4</ele><time>2022-11-04T17:07:11.0000000+00:00</time></trkpt><trkpt lat="39.45885164" lon="-0.35652668"><ele>-5.4</ele><time>2022-11-04T17:07:12.0000000+00:00</time></trkpt><trkpt lat="39.45885826" lon="-0.35651746"><ele>-5.4</ele><time>2022-11-04T17:07:13.0000000+00:00</time></trkpt><trkpt lat="39.45886002" lon="-0.35651721"><ele>-5.4</ele><time>2022-11-04T17:07:14.0000000+00:00</time></trkpt><trkpt lat="39.45886061" lon="-0.35651721"><ele>-5.0</ele><time>2022-11-04T17:07:15.0000000+00:00</time></trkpt><trkpt lat="39.45886077" lon="-0.35651729"><ele>-4.8</ele><time>2022-11-04T17:07:16.0000000+00:00</time></trkpt><trkpt lat="39.45886086" lon="-0.35651704"><ele>-4.8</ele><time>2022-11-04T17:07:17.0000000+00:00</time></trkpt><trkpt lat="39.45886103" lon="-0.35651688"><ele>-4.8</ele><time>2022-11-04T17:07:18.0000000+00:00</time></trkpt><trkpt lat="39.45886128" lon="-0.35651704"><ele>-4.8</ele><time>2022-11-04T17:07:19.0000000+00:00</time></trkpt><trkpt lat="39.45886128" lon="-0.35651671"><ele>-4.6</ele><time>2022-11-04T17:07:20.0000000+00:00</time></trkpt><trkpt lat="39.45886144" lon="-0.35651671"><ele>-4.6</ele><time>2022-11-04T17:07:21.0000000+00:00</time></trkpt><trkpt lat="39.45886178" lon="-0.35651679"><ele>-4.6</ele><time>2022-11-04T17:07:22.0000000+00:00</time></trkpt><trkpt lat="39.45886186" lon="-0.35651671"><ele>-4.6</ele><time>2022-11-04T17:07:23.0000000+00:00</time></trkpt><trkpt lat="39.45886161" lon="-0.35651662"><ele>-4.6</ele><time>2022-11-04T17:07:24.0000000+00:00</time></trkpt><trkpt lat="39.45886161" lon="-0.35651662"><ele>-4.6</ele><time>2022-11-04T17:07:25.0000000+00:00</time></trkpt><trkpt lat="39.45886161" lon="-0.35651662"><ele>-4.6</ele><time>2022-11-04T17:07:26.0000000+00:00</time></trkpt><trkpt lat="39.45886161" lon="-0.35651662"><ele>-4.6</ele><time>2022-11-04T17:07:27.0000000+00:00</time></trkpt><trkpt lat="39.45886161" lon="-0.35651662"><ele>-4.6</ele><time>2022-11-04T17:07:28.0000000+00:00</time></trkpt><trkpt lat="39.45886161" lon="-0.35651662"><ele>-4.4</ele><time>2022-11-04T17:07:29.0000000+00:00</time></trkpt><trkpt lat="39.45886161" lon="-0.35651662"><ele>-4.4</ele><time>2022-11-04T17:07:30.0000000+00:00</time></trkpt><trkpt lat="39.45886161" lon="-0.35651662"><ele>-4.6</ele><time>2022-11-04T17:07:31.0000000+00:00</time></trkpt><trkpt lat="39.45886161" lon="-0.35651671"><ele>-4.6</ele><time>2022-11-04T17:07:32.0000000+00:00</time></trkpt><trkpt lat="39.45886161" lon="-0.35651671"><ele>-4.6</ele><time>2022-11-04T17:07:33.0000000+00:00</time></trkpt><trkpt lat="39.45886161" lon="-0.35651671"><ele>-4.6</ele><time>2022-11-04T17:07:34.0000000+00:00</time></trkpt><trkpt lat="39.45886161" lon="-0.35651679"><ele>-4.6</ele><time>2022-11-04T17:07:35.0000000+00:00</time></trkpt><trkpt lat="39.45886161" lon="-0.35651688"><ele>-4.6</ele><time>2022-11-04T17:07:36.0000000+00:00</time></trkpt><trkpt lat="39.45886161" lon="-0.35651688"><ele>-4.6</ele><time>2022-11-04T17:07:37.0000000+00:00</time></trkpt><trkpt lat="39.45886161" lon="-0.35651704"><ele>-4.6</ele><time>2022-11-04T17:07:38.0000000+00:00</time></trkpt><trkpt lat="39.45886161" lon="-0.35651704"><ele>-4.6</ele><time>2022-11-04T17:07:39.0000000+00:00</time></trkpt><trkpt lat="39.45886379" lon="-0.35651947"><ele>-4.6</ele><time>2022-11-04T17:07:40.0000000+00:00</time></trkpt><trkpt lat="39.45887293" lon="-0.35653641"><ele>-4.8</ele><time>2022-11-04T17:07:41.0000000+00:00</time></trkpt><trkpt lat="39.45888299" lon="-0.35654764"><ele>-4.8</ele><time>2022-11-04T17:07:42.0000000+00:00</time></trkpt><trkpt lat="39.4588948" lon="-0.35655811"><ele>-5.0</ele><time>2022-11-04T17:07:43.0000000+00:00</time></trkpt><trkpt lat="39.45890855" lon="-0.35656457"><ele>-5.2</ele><time>2022-11-04T17:07:44.0000000+00:00</time></trkpt><trkpt lat="39.45892314" lon="-0.35657245"><ele>-5.4</ele><time>2022-11-04T17:07:45.0000000+00:00</time></trkpt><trkpt lat="39.45894015" lon="-0.35657329"><ele>-5.4</ele><time>2022-11-04T17:07:46.0000000+00:00</time></trkpt><trkpt lat="39.45895482" lon="-0.35656314"><ele>-5.4</ele><time>2022-11-04T17:07:47.0000000+00:00</time></trkpt><trkpt lat="39.45895876" lon="-0.35656449"><ele>-5.4</ele><time>2022-11-04T17:07:48.0000000+00:00</time></trkpt><trkpt lat="39.45896119" lon="-0.35656616"><ele>-5.4</ele><time>2022-11-04T17:07:49.0000000+00:00</time></trkpt><trkpt lat="39.45896186" lon="-0.35656633"><ele>-5.2</ele><time>2022-11-04T17:07:50.0000000+00:00</time></trkpt><trkpt lat="39.45896337" lon="-0.35656658"><ele>-5.2</ele><time>2022-11-04T17:07:51.0000000+00:00</time></trkpt><trkpt lat="39.45896454" lon="-0.35656658"><ele>-5.0</ele><time>2022-11-04T17:07:52.0000000+00:00</time></trkpt><trkpt lat="39.45896538" lon="-0.3565665"><ele>-5.0</ele><time>2022-11-04T17:07:53.0000000+00:00</time></trkpt><trkpt lat="39.45896546" lon="-0.35656675"><ele>-5.0</ele><time>2022-11-04T17:07:54.0000000+00:00</time></trkpt><trkpt lat="39.45896538" lon="-0.35656733"><ele>-5.0</ele><time>2022-11-04T17:07:55.0000000+00:00</time></trkpt><trkpt lat="39.4589658" lon="-0.35656842"><ele>-5.0</ele><time>2022-11-04T17:07:56.0000000+00:00</time></trkpt><trkpt lat="39.45896664" lon="-0.35656968"><ele>-5.0</ele><time>2022-11-04T17:07:57.0000000+00:00</time></trkpt><trkpt lat="39.45896714" lon="-0.35657262"><ele>-5.0</ele><time>2022-11-04T17:07:58.0000000+00:00</time></trkpt><trkpt lat="39.45896706" lon="-0.35657739"><ele>-5.0</ele><time>2022-11-04T17:07:59.0000000+00:00</time></trkpt><trkpt lat="39.45896328" lon="-0.3565877"><ele>-5.0</ele><time>2022-11-04T17:08:00.0000000+00:00</time></trkpt><trkpt lat="39.45896454" lon="-0.35659759"><ele>-5.2</ele><time>2022-11-04T17:08:01.0000000+00:00</time></trkpt><trkpt lat="39.45896773" lon="-0.3566152"><ele>-5.2</ele><time>2022-11-04T17:08:02.0000000+00:00</time></trkpt><trkpt lat="39.45897753" lon="-0.35662944"><ele>-5.2</ele><time>2022-11-04T17:08:03.0000000+00:00</time></trkpt><trkpt lat="39.45898801" lon="-0.35664177"><ele>-5.2</ele><time>2022-11-04T17:08:04.0000000+00:00</time></trkpt><trkpt lat="39.45900008" lon="-0.35665275"><ele>-5.4</ele><time>2022-11-04T17:08:05.0000000+00:00</time></trkpt><trkpt lat="39.45901408" lon="-0.35665736"><ele>-5.4</ele><time>2022-11-04T17:08:06.0000000+00:00</time></trkpt><trkpt lat="39.45902975" lon="-0.35665945"><ele>-5.4</ele><time>2022-11-04T17:08:07.0000000+00:00</time></trkpt><trkpt lat="39.45904409" lon="-0.3566613"><ele>-5.4</ele><time>2022-11-04T17:08:08.0000000+00:00</time></trkpt><trkpt lat="39.45905834" lon="-0.35666465"><ele>-5.4</ele><time>2022-11-04T17:08:09.0000000+00:00</time></trkpt><trkpt lat="39.45907024" lon="-0.35667228"><ele>-5.4</ele><time>2022-11-04T17:08:10.0000000+00:00</time></trkpt><trkpt lat="39.45907979" lon="-0.35667932"><ele>-5.4</ele><time>2022-11-04T17:08:11.0000000+00:00</time></trkpt><trkpt lat="39.45908365" lon="-0.35668518"><ele>-5.4</ele><time>2022-11-04T17:08:12.0000000+00:00</time></trkpt><trkpt lat="39.45908776" lon="-0.35669181"><ele>-5.4</ele><time>2022-11-04T17:08:13.0000000+00:00</time></trkpt><trkpt lat="39.45909203" lon="-0.35670069"><ele>-5.4</ele><time>2022-11-04T17:08:14.0000000+00:00</time></trkpt><trkpt lat="39.45909471" lon="-0.35671301"><ele>-5.4</ele><time>2022-11-04T17:08:15.0000000+00:00</time></trkpt><trkpt lat="39.45909698" lon="-0.35672424"><ele>-5.4</ele><time>2022-11-04T17:08:16.0000000+00:00</time></trkpt><trkpt lat="39.45910276" lon="-0.35673657"><ele>-5.2</ele><time>2022-11-04T17:08:17.0000000+00:00</time></trkpt><trkpt lat="39.45910812" lon="-0.35675006"><ele>-5.2</ele><time>2022-11-04T17:08:18.0000000+00:00</time></trkpt><trkpt lat="39.45911273" lon="-0.3567618"><ele>-5.2</ele><time>2022-11-04T17:08:19.0000000+00:00</time></trkpt><trkpt lat="39.4591186" lon="-0.35677428"><ele>-5.2</ele><time>2022-11-04T17:08:20.0000000+00:00</time></trkpt><trkpt lat="39.45912422" lon="-0.35678686"><ele>-5.0</ele><time>2022-11-04T17:08:21.0000000+00:00</time></trkpt><trkpt lat="39.45913302" lon="-0.35680337"><ele>-5.0</ele><time>2022-11-04T17:08:22.0000000+00:00</time></trkpt><trkpt lat="39.45913654" lon="-0.35682072"><ele>-5.0</ele><time>2022-11-04T17:08:23.0000000+00:00</time></trkpt><trkpt lat="39.45914065" lon="-0.35683732"><ele>-5.0</ele><time>2022-11-04T17:08:24.0000000+00:00</time></trkpt><trkpt lat="39.45914794" lon="-0.3568493"><ele>-4.8</ele><time>2022-11-04T17:08:25.0000000+00:00</time></trkpt><trkpt lat="39.4591564" lon="-0.35685592"><ele>-4.8</ele><time>2022-11-04T17:08:26.0000000+00:00</time></trkpt><trkpt lat="39.4591642" lon="-0.35686757"><ele>-4.6</ele><time>2022-11-04T17:08:27.0000000+00:00</time></trkpt><trkpt lat="39.45916688" lon="-0.35687839"><ele>-4.6</ele><time>2022-11-04T17:08:28.0000000+00:00</time></trkpt><trkpt lat="39.45917074" lon="-0.35688501"><ele>-4.6</ele><time>2022-11-04T17:08:29.0000000+00:00</time></trkpt><trkpt lat="39.45917635" lon="-0.35689314"><ele>-4.6</ele><time>2022-11-04T17:08:30.0000000+00:00</time></trkpt><trkpt lat="39.45918214" lon="-0.35690496"><ele>-4.6</ele><time>2022-11-04T17:08:31.0000000+00:00</time></trkpt><trkpt lat="39.45919278" lon="-0.35691275"><ele>-4.4</ele><time>2022-11-04T17:08:32.0000000+00:00</time></trkpt><trkpt lat="39.45919932" lon="-0.35692692"><ele>-4.4</ele><time>2022-11-04T17:08:33.0000000+00:00</time></trkpt><trkpt lat="39.45920175" lon="-0.3569332"><ele>-4.4</ele><time>2022-11-04T17:08:34.0000000+00:00</time></trkpt><trkpt lat="39.45920502" lon="-0.35693924"><ele>-4.4</ele><time>2022-11-04T17:08:35.0000000+00:00</time></trkpt><trkpt lat="39.45920661" lon="-0.35694335"><ele>-4.4</ele><time>2022-11-04T17:08:36.0000000+00:00</time></trkpt><trkpt lat="39.45920703" lon="-0.35694653"><ele>-4.2</ele><time>2022-11-04T17:08:37.0000000+00:00</time></trkpt><trkpt lat="39.45920829" lon="-0.35694963"><ele>-4.2</ele><time>2022-11-04T17:08:38.0000000+00:00</time></trkpt><trkpt lat="39.45920862" lon="-0.3569524"><ele>-4.2</ele><time>2022-11-04T17:08:39.0000000+00:00</time></trkpt><trkpt lat="39.4592098" lon="-0.35695257"><ele>-4.2</ele><time>2022-11-04T17:08:40.0000000+00:00</time></trkpt><trkpt lat="39.4592098" lon="-0.35695248"><ele>-4.2</ele><time>2022-11-04T17:08:41.0000000+00:00</time></trkpt><trkpt lat="39.45920955" lon="-0.35695273"><ele>-4.0</ele><time>2022-11-04T17:08:42.0000000+00:00</time></trkpt><trkpt lat="39.45920871" lon="-0.35695265"><ele>-4.0</ele><time>2022-11-04T17:08:43.0000000+00:00</time></trkpt><trkpt lat="39.45920904" lon="-0.35695248"><ele>-4.0</ele><time>2022-11-04T17:08:44.0000000+00:00</time></trkpt><trkpt lat="39.45920887" lon="-0.3569519"><ele>-4.0</ele><time>2022-11-04T17:08:45.0000000+00:00</time></trkpt><trkpt lat="39.45920871" lon="-0.35695282"><ele>-3.8</ele><time>2022-11-04T17:08:46.0000000+00:00</time></trkpt><trkpt lat="39.45920837" lon="-0.35695491"><ele>-3.8</ele><time>2022-11-04T17:08:47.0000000+00:00</time></trkpt><trkpt lat="39.45920829" lon="-0.35695592"><ele>-3.8</ele><time>2022-11-04T17:08:48.0000000+00:00</time></trkpt><trkpt lat="39.45920904" lon="-0.35695843"><ele>-3.8</ele><time>2022-11-04T17:08:49.0000000+00:00</time></trkpt><trkpt lat="39.45920846" lon="-0.35695927"><ele>-3.8</ele><time>2022-11-04T17:08:50.0000000+00:00</time></trkpt><trkpt lat="39.45920846" lon="-0.35695927"><ele>-3.8</ele><time>2022-11-04T17:08:51.0000000+00:00</time></trkpt><trkpt lat="39.45920846" lon="-0.35695927"><ele>-3.8</ele><time>2022-11-04T17:08:52.0000000+00:00</time></trkpt><trkpt lat="39.45920846" lon="-0.35695927"><ele>-3.8</ele><time>2022-11-04T17:08:53.0000000+00:00</time></trkpt><trkpt lat="39.45920846" lon="-0.35695927"><ele>-3.8</ele><time>2022-11-04T17:08:54.0000000+00:00</time></trkpt><trkpt lat="39.45920846" lon="-0.35695927"><ele>-3.8</ele><time>2022-11-04T17:08:55.0000000+00:00</time></trkpt><trkpt lat="39.45920846" lon="-0.35695927"><ele>-3.8</ele><time>2022-11-04T17:08:56.0000000+00:00</time></trkpt><trkpt lat="39.45920846" lon="-0.35695927"><ele>-3.8</ele><time>2022-11-04T17:08:57.0000000+00:00</time></trkpt><trkpt lat="39.45920846" lon="-0.35695927"><ele>-3.8</ele><time>2022-11-04T17:08:58.0000000+00:00</time></trkpt><trkpt lat="39.45920846" lon="-0.35695927"><ele>-3.8</ele><time>2022-11-04T17:08:59.0000000+00:00</time></trkpt><trkpt lat="39.45920846" lon="-0.35695927"><ele>-3.8</ele><time>2022-11-04T17:09:00.0000000+00:00</time></trkpt><trkpt lat="39.45920846" lon="-0.35695927"><ele>-3.8</ele><time>2022-11-04T17:09:01.0000000+00:00</time></trkpt><trkpt lat="39.45920846" lon="-0.35695927"><ele>-3.8</ele><time>2022-11-04T17:09:02.0000000+00:00</time></trkpt><trkpt lat="39.45920846" lon="-0.35695927"><ele>-3.8</ele><time>2022-11-04T17:09:03.0000000+00:00</time></trkpt><trkpt lat="39.45920846" lon="-0.35695927"><ele>-3.8</ele><time>2022-11-04T17:09:04.0000000+00:00</time></trkpt><trkpt lat="39.45920837" lon="-0.35695927"><ele>-3.8</ele><time>2022-11-04T17:09:05.0000000+00:00</time></trkpt><trkpt lat="39.45920829" lon="-0.35695927"><ele>-3.8</ele><time>2022-11-04T17:09:06.0000000+00:00</time></trkpt><trkpt lat="39.4592077" lon="-0.35695927"><ele>-3.8</ele><time>2022-11-04T17:09:07.0000000+00:00</time></trkpt><trkpt lat="39.45920602" lon="-0.35695927"><ele>-3.8</ele><time>2022-11-04T17:09:08.0000000+00:00</time></trkpt><trkpt lat="39.45920586" lon="-0.35695927"><ele>-3.8</ele><time>2022-11-04T17:09:09.0000000+00:00</time></trkpt><trkpt lat="39.45920586" lon="-0.35696162"><ele>-3.8</ele><time>2022-11-04T17:09:10.0000000+00:00</time></trkpt><trkpt lat="39.45920586" lon="-0.35696187"><ele>-3.8</ele><time>2022-11-04T17:09:11.0000000+00:00</time></trkpt><trkpt lat="39.45920586" lon="-0.35696195"><ele>-3.8</ele><time>2022-11-04T17:09:12.0000000+00:00</time></trkpt><trkpt lat="39.45920586" lon="-0.35696229"><ele>-3.8</ele><time>2022-11-04T17:09:13.0000000+00:00</time></trkpt><trkpt lat="39.45920586" lon="-0.35696254"><ele>-3.8</ele><time>2022-11-04T17:09:14.0000000+00:00</time></trkpt><trkpt lat="39.45920586" lon="-0.35696288"><ele>-3.8</ele><time>2022-11-04T17:09:15.0000000+00:00</time></trkpt><trkpt lat="39.45920586" lon="-0.35696321"><ele>-3.8</ele><time>2022-11-04T17:09:16.0000000+00:00</time></trkpt><trkpt lat="39.45920586" lon="-0.35696338"><ele>-3.8</ele><time>2022-11-04T17:09:17.0000000+00:00</time></trkpt><trkpt lat="39.45920586" lon="-0.35696338"><ele>-3.8</ele><time>2022-11-04T17:09:18.0000000+00:00</time></trkpt><trkpt lat="39.45920586" lon="-0.35696355"><ele>-3.8</ele><time>2022-11-04T17:09:19.0000000+00:00</time></trkpt><trkpt lat="39.45920686" lon="-0.35696874"><ele>-3.8</ele><time>2022-11-04T17:09:20.0000000+00:00</time></trkpt><trkpt lat="39.45921206" lon="-0.3569876"><ele>-3.8</ele><time>2022-11-04T17:09:21.0000000+00:00</time></trkpt><trkpt lat="39.45921826" lon="-0.3570063"><ele>-3.8</ele><time>2022-11-04T17:09:22.0000000+00:00</time></trkpt><trkpt lat="39.45922773" lon="-0.35702482"><ele>-3.8</ele><time>2022-11-04T17:09:23.0000000+00:00</time></trkpt><trkpt lat="39.45924223" lon="-0.35703773"><ele>-3.8</ele><time>2022-11-04T17:09:24.0000000+00:00</time></trkpt><trkpt lat="39.45925296" lon="-0.35704603"><ele>-3.8</ele><time>2022-11-04T17:09:25.0000000+00:00</time></trkpt><trkpt lat="39.45926151" lon="-0.35705558"><ele>-3.8</ele><time>2022-11-04T17:09:26.0000000+00:00</time></trkpt><trkpt lat="39.45926503" lon="-0.35706371"><ele>-3.8</ele><time>2022-11-04T17:09:27.0000000+00:00</time></trkpt><trkpt lat="39.45926629" lon="-0.35707033"><ele>-3.8</ele><time>2022-11-04T17:09:28.0000000+00:00</time></trkpt><trkpt lat="39.45926788" lon="-0.35707586"><ele>-3.8</ele><time>2022-11-04T17:09:29.0000000+00:00</time></trkpt><trkpt lat="39.45926872" lon="-0.3570757"><ele>-3.8</ele><time>2022-11-04T17:09:30.0000000+00:00</time></trkpt><trkpt lat="39.45926939" lon="-0.3570757"><ele>-3.8</ele><time>2022-11-04T17:09:31.0000000+00:00</time></trkpt><trkpt lat="39.45926964" lon="-0.35707536"><ele>-3.6</ele><time>2022-11-04T17:09:32.0000000+00:00</time></trkpt><trkpt lat="39.45926922" lon="-0.35707444"><ele>-3.6</ele><time>2022-11-04T17:09:33.0000000+00:00</time></trkpt><trkpt lat="39.45926897" lon="-0.35707444"><ele>-3.4</ele><time>2022-11-04T17:09:34.0000000+00:00</time></trkpt><trkpt lat="39.45926922" lon="-0.35707561"><ele>-3.4</ele><time>2022-11-04T17:09:35.0000000+00:00</time></trkpt><trkpt lat="39.45926939" lon="-0.35707628"><ele>-3.4</ele><time>2022-11-04T17:09:36.0000000+00:00</time></trkpt><trkpt lat="39.45926931" lon="-0.35707595"><ele>-3.4</ele><time>2022-11-04T17:09:37.0000000+00:00</time></trkpt><trkpt lat="39.45926931" lon="-0.35707553"><ele>-3.4</ele><time>2022-11-04T17:09:38.0000000+00:00</time></trkpt><trkpt lat="39.45926931" lon="-0.35707553"><ele>-3.4</ele><time>2022-11-04T17:09:39.0000000+00:00</time></trkpt><trkpt lat="39.45926931" lon="-0.35707553"><ele>-3.4</ele><time>2022-11-04T17:09:40.0000000+00:00</time></trkpt><trkpt lat="39.45926931" lon="-0.35707553"><ele>-3.4</ele><time>2022-11-04T17:09:41.0000000+00:00</time></trkpt><trkpt lat="39.45926931" lon="-0.35707553"><ele>-3.2</ele><time>2022-11-04T17:09:42.0000000+00:00</time></trkpt><trkpt lat="39.45926931" lon="-0.35707553"><ele>-3.2</ele><time>2022-11-04T17:09:43.0000000+00:00</time></trkpt><trkpt lat="39.45926931" lon="-0.35707553"><ele>-3.0</ele><time>2022-11-04T17:09:44.0000000+00:00</time></trkpt><trkpt lat="39.45926931" lon="-0.35707553"><ele>-3.0</ele><time>2022-11-04T17:09:45.0000000+00:00</time></trkpt><trkpt lat="39.45926931" lon="-0.35707553"><ele>-3.0</ele><time>2022-11-04T17:09:46.0000000+00:00</time></trkpt><trkpt lat="39.45926931" lon="-0.35707553"><ele>-3.0</ele><time>2022-11-04T17:09:47.0000000+00:00</time></trkpt><trkpt lat="39.45926931" lon="-0.35707553"><ele>-3.0</ele><time>2022-11-04T17:09:48.0000000+00:00</time></trkpt><trkpt lat="39.45926931" lon="-0.35707553"><ele>-3.0</ele><time>2022-11-04T17:09:49.0000000+00:00</time></trkpt><trkpt lat="39.45926931" lon="-0.35707553"><ele>-3.2</ele><time>2022-11-04T17:09:50.0000000+00:00</time></trkpt><trkpt lat="39.45926931" lon="-0.35707536"><ele>-3.0</ele><time>2022-11-04T17:09:51.0000000+00:00</time></trkpt><trkpt lat="39.45926922" lon="-0.35707452"><ele>-2.8</ele><time>2022-11-04T17:09:52.0000000+00:00</time></trkpt><trkpt lat="39.45926922" lon="-0.35707444"><ele>-2.6</ele><time>2022-11-04T17:09:53.0000000+00:00</time></trkpt><trkpt lat="39.45926897" lon="-0.35707352"><ele>-2.6</ele><time>2022-11-04T17:09:54.0000000+00:00</time></trkpt><trkpt lat="39.45926872" lon="-0.35707302"><ele>-2.4</ele><time>2022-11-04T17:09:55.0000000+00:00</time></trkpt><trkpt lat="39.45926746" lon="-0.35707042"><ele>-2.4</ele><time>2022-11-04T17:09:56.0000000+00:00</time></trkpt><trkpt lat="39.45926696" lon="-0.35706178"><ele>-2.4</ele><time>2022-11-04T17:09:57.0000000+00:00</time></trkpt><trkpt lat="39.45926671" lon="-0.35706036"><ele>-2.4</ele><time>2022-11-04T17:09:58.0000000+00:00</time></trkpt><trkpt lat="39.45926646" lon="-0.35705994"><ele>-2.4</ele><time>2022-11-04T17:09:59.0000000+00:00</time></trkpt><trkpt lat="39.45926453" lon="-0.35705994"><ele>-2.4</ele><time>2022-11-04T17:10:00.0000000+00:00</time></trkpt><trkpt lat="39.45926436" lon="-0.35705986"><ele>-2.6</ele><time>2022-11-04T17:10:01.0000000+00:00</time></trkpt><trkpt lat="39.45926428" lon="-0.35705986"><ele>-2.8</ele><time>2022-11-04T17:10:02.0000000+00:00</time></trkpt><trkpt lat="39.45926428" lon="-0.35705986"><ele>-3.0</ele><time>2022-11-04T17:10:03.0000000+00:00</time></trkpt><trkpt lat="39.45926679" lon="-0.35706354"><ele>-3.0</ele><time>2022-11-04T17:10:04.0000000+00:00</time></trkpt><trkpt lat="39.45927291" lon="-0.35708148"><ele>-3.2</ele><time>2022-11-04T17:10:05.0000000+00:00</time></trkpt><trkpt lat="39.45927794" lon="-0.35710109"><ele>-3.2</ele><time>2022-11-04T17:10:06.0000000+00:00</time></trkpt><trkpt lat="39.4592823" lon="-0.35712021"><ele>-3.4</ele><time>2022-11-04T17:10:07.0000000+00:00</time></trkpt><trkpt lat="39.45928716" lon="-0.35713747"><ele>-3.4</ele><time>2022-11-04T17:10:08.0000000+00:00</time></trkpt><trkpt lat="39.45929211" lon="-0.35715549"><ele>-3.4</ele><time>2022-11-04T17:10:09.0000000+00:00</time></trkpt><trkpt lat="39.45929756" lon="-0.35717326"><ele>-3.6</ele><time>2022-11-04T17:10:10.0000000+00:00</time></trkpt><trkpt lat="39.45930351" lon="-0.35719103"><ele>-3.6</ele><time>2022-11-04T17:10:11.0000000+00:00</time></trkpt><trkpt lat="39.45930937" lon="-0.35720947"><ele>-3.6</ele><time>2022-11-04T17:10:12.0000000+00:00</time></trkpt><trkpt lat="39.45931382" lon="-0.35722808"><ele>-3.8</ele><time>2022-11-04T17:10:13.0000000+00:00</time></trkpt><trkpt lat="39.45931625" lon="-0.35724208"><ele>-3.8</ele><time>2022-11-04T17:10:14.0000000+00:00</time></trkpt><trkpt lat="39.45932178" lon="-0.35725381"><ele>-3.8</ele><time>2022-11-04T17:10:15.0000000+00:00</time></trkpt><trkpt lat="39.45932907" lon="-0.35726186"><ele>-3.8</ele><time>2022-11-04T17:10:16.0000000+00:00</time></trkpt><trkpt lat="39.45933804" lon="-0.35727007"><ele>-3.8</ele><time>2022-11-04T17:10:17.0000000+00:00</time></trkpt><trkpt lat="39.45934651" lon="-0.35728005"><ele>-3.8</ele><time>2022-11-04T17:10:18.0000000+00:00</time></trkpt><trkpt lat="39.45935732" lon="-0.35729094"><ele>-3.6</ele><time>2022-11-04T17:10:19.0000000+00:00</time></trkpt><trkpt lat="39.45936453" lon="-0.35730855"><ele>-3.6</ele><time>2022-11-04T17:10:20.0000000+00:00</time></trkpt><trkpt lat="39.45937308" lon="-0.35732296"><ele>-3.6</ele><time>2022-11-04T17:10:21.0000000+00:00</time></trkpt><trkpt lat="39.4593802" lon="-0.3573378"><ele>-3.6</ele><time>2022-11-04T17:10:22.0000000+00:00</time></trkpt><trkpt lat="39.45938347" lon="-0.35735515"><ele>-3.6</ele><time>2022-11-04T17:10:23.0000000+00:00</time></trkpt><trkpt lat="39.45938489" lon="-0.35737284"><ele>-3.6</ele><time>2022-11-04T17:10:24.0000000+00:00</time></trkpt><trkpt lat="39.45938967" lon="-0.3573865"><ele>-3.8</ele><time>2022-11-04T17:10:25.0000000+00:00</time></trkpt><trkpt lat="39.45939143" lon="-0.3573989"><ele>-3.8</ele><time>2022-11-04T17:10:26.0000000+00:00</time></trkpt><trkpt lat="39.45939504" lon="-0.35741215"><ele>-3.8</ele><time>2022-11-04T17:10:27.0000000+00:00</time></trkpt><trkpt lat="39.45939906" lon="-0.35742346"><ele>-3.8</ele><time>2022-11-04T17:10:28.0000000+00:00</time></trkpt><trkpt lat="39.45940484" lon="-0.35743612"><ele>-3.8</ele><time>2022-11-04T17:10:29.0000000+00:00</time></trkpt><trkpt lat="39.45941163" lon="-0.35744995"><ele>-4.0</ele><time>2022-11-04T17:10:30.0000000+00:00</time></trkpt><trkpt lat="39.45941649" lon="-0.35745716"><ele>-4.0</ele><time>2022-11-04T17:10:31.0000000+00:00</time></trkpt><trkpt lat="39.45942152" lon="-0.3574673"><ele>-4.0</ele><time>2022-11-04T17:10:32.0000000+00:00</time></trkpt><trkpt lat="39.45942555" lon="-0.35747384"><ele>-4.0</ele><time>2022-11-04T17:10:33.0000000+00:00</time></trkpt><trkpt lat="39.45942965" lon="-0.35747803"><ele>-4.0</ele><time>2022-11-04T17:10:34.0000000+00:00</time></trkpt><trkpt lat="39.45943242" lon="-0.35748046"><ele>-4.0</ele><time>2022-11-04T17:10:35.0000000+00:00</time></trkpt><trkpt lat="39.45943376" lon="-0.35748105"><ele>-4.0</ele><time>2022-11-04T17:10:36.0000000+00:00</time></trkpt><trkpt lat="39.45943351" lon="-0.35748096"><ele>-4.0</ele><time>2022-11-04T17:10:37.0000000+00:00</time></trkpt><trkpt lat="39.45943317" lon="-0.35748063"><ele>-4.0</ele><time>2022-11-04T17:10:38.0000000+00:00</time></trkpt><trkpt lat="39.45943351" lon="-0.35748012"><ele>-4.0</ele><time>2022-11-04T17:10:39.0000000+00:00</time></trkpt><trkpt lat="39.4594341" lon="-0.35747945"><ele>-3.8</ele><time>2022-11-04T17:10:40.0000000+00:00</time></trkpt><trkpt lat="39.4594346" lon="-0.35747887"><ele>-3.6</ele><time>2022-11-04T17:10:41.0000000+00:00</time></trkpt><trkpt lat="39.4594346" lon="-0.35747778"><ele>-3.6</ele><time>2022-11-04T17:10:42.0000000+00:00</time></trkpt><trkpt lat="39.45943393" lon="-0.35747518"><ele>-3.8</ele><time>2022-11-04T17:10:43.0000000+00:00</time></trkpt><trkpt lat="39.45943309" lon="-0.35747459"><ele>-3.8</ele><time>2022-11-04T17:10:44.0000000+00:00</time></trkpt><trkpt lat="39.45943309" lon="-0.35747459"><ele>-3.8</ele><time>2022-11-04T17:10:45.0000000+00:00</time></trkpt><trkpt lat="39.45943309" lon="-0.35747459"><ele>-3.8</ele><time>2022-11-04T17:10:46.0000000+00:00</time></trkpt><trkpt lat="39.45943309" lon="-0.35747459"><ele>-3.8</ele><time>2022-11-04T17:10:47.0000000+00:00</time></trkpt><trkpt lat="39.45943309" lon="-0.35747459"><ele>-3.8</ele><time>2022-11-04T17:10:48.0000000+00:00</time></trkpt><trkpt lat="39.45943309" lon="-0.35747459"><ele>-3.8</ele><time>2022-11-04T17:10:49.0000000+00:00</time></trkpt><trkpt lat="39.45943309" lon="-0.35747459"><ele>-3.8</ele><time>2022-11-04T17:10:50.0000000+00:00</time></trkpt><trkpt lat="39.45943309" lon="-0.35747459"><ele>-3.8</ele><time>2022-11-04T17:10:51.0000000+00:00</time></trkpt><trkpt lat="39.45943309" lon="-0.35747518"><ele>-3.8</ele><time>2022-11-04T17:10:52.0000000+00:00</time></trkpt><trkpt lat="39.45943309" lon="-0.3574761"><ele>-3.8</ele><time>2022-11-04T17:10:53.0000000+00:00</time></trkpt><trkpt lat="39.45943309" lon="-0.35747669"><ele>-3.8</ele><time>2022-11-04T17:10:54.0000000+00:00</time></trkpt><trkpt lat="39.45943309" lon="-0.35747686"><ele>-3.8</ele><time>2022-11-04T17:10:55.0000000+00:00</time></trkpt><trkpt lat="39.45943309" lon="-0.35747719"><ele>-3.8</ele><time>2022-11-04T17:10:56.0000000+00:00</time></trkpt><trkpt lat="39.45942949" lon="-0.35748063"><ele>-3.8</ele><time>2022-11-04T17:10:57.0000000+00:00</time></trkpt><trkpt lat="39.45941582" lon="-0.35748448"><ele>-3.8</ele><time>2022-11-04T17:10:58.0000000+00:00</time></trkpt><trkpt lat="39.45940157" lon="-0.3574896"><ele>-3.8</ele><time>2022-11-04T17:10:59.0000000+00:00</time></trkpt><trkpt lat="39.45939185" lon="-0.35749412"><ele>-3.8</ele><time>2022-11-04T17:11:00.0000000+00:00</time></trkpt><trkpt lat="39.4593854" lon="-0.35749831"><ele>-3.8</ele><time>2022-11-04T17:11:01.0000000+00:00</time></trkpt><trkpt lat="39.45938121" lon="-0.35750292"><ele>-3.8</ele><time>2022-11-04T17:11:02.0000000+00:00</time></trkpt><trkpt lat="39.45937769" lon="-0.3575072"><ele>-3.8</ele><time>2022-11-04T17:11:03.0000000+00:00</time></trkpt><trkpt lat="39.459374" lon="-0.35751156"><ele>-3.8</ele><time>2022-11-04T17:11:04.0000000+00:00</time></trkpt><trkpt lat="39.45937023" lon="-0.35751558"><ele>-3.8</ele><time>2022-11-04T17:11:05.0000000+00:00</time></trkpt><trkpt lat="39.45936645" lon="-0.35751902"><ele>-3.8</ele><time>2022-11-04T17:11:06.0000000+00:00</time></trkpt><trkpt lat="39.45936671" lon="-0.35751918"><ele>-3.8</ele><time>2022-11-04T17:11:07.0000000+00:00</time></trkpt><trkpt lat="39.45937182" lon="-0.35751726"><ele>-3.8</ele><time>2022-11-04T17:11:08.0000000+00:00</time></trkpt><trkpt lat="39.4593797" lon="-0.35751717"><ele>-3.8</ele><time>2022-11-04T17:11:09.0000000+00:00</time></trkpt><trkpt lat="39.45938724" lon="-0.35751969"><ele>-3.8</ele><time>2022-11-04T17:11:10.0000000+00:00</time></trkpt><trkpt lat="39.4593952" lon="-0.35752287"><ele>-3.8</ele><time>2022-11-04T17:11:11.0000000+00:00</time></trkpt><trkpt lat="39.45940275" lon="-0.35752648"><ele>-3.8</ele><time>2022-11-04T17:11:12.0000000+00:00</time></trkpt><trkpt lat="39.45941264" lon="-0.35753058"><ele>-3.8</ele><time>2022-11-04T17:11:13.0000000+00:00</time></trkpt><trkpt lat="39.45942337" lon="-0.3575305"><ele>-3.8</ele><time>2022-11-04T17:11:14.0000000+00:00</time></trkpt><trkpt lat="39.45943535" lon="-0.35752723"><ele>-3.8</ele><time>2022-11-04T17:11:15.0000000+00:00</time></trkpt><trkpt lat="39.45944692" lon="-0.35751734"><ele>-3.8</ele><time>2022-11-04T17:11:16.0000000+00:00</time></trkpt><trkpt lat="39.45945866" lon="-0.3575077"><ele>-3.8</ele><time>2022-11-04T17:11:17.0000000+00:00</time></trkpt><trkpt lat="39.45946855" lon="-0.35750016"><ele>-3.8</ele><time>2022-11-04T17:11:18.0000000+00:00</time></trkpt><trkpt lat="39.45947961" lon="-0.35749203"><ele>-3.8</ele><time>2022-11-04T17:11:19.0000000+00:00</time></trkpt><trkpt lat="39.45949084" lon="-0.35748465"><ele>-3.8</ele><time>2022-11-04T17:11:20.0000000+00:00</time></trkpt><trkpt lat="39.45950425" lon="-0.35747929"><ele>-3.8</ele><time>2022-11-04T17:11:21.0000000+00:00</time></trkpt><trkpt lat="39.45951297" lon="-0.35747761"><ele>-3.8</ele><time>2022-11-04T17:11:22.0000000+00:00</time></trkpt><trkpt lat="39.45952705" lon="-0.35747786"><ele>-3.8</ele><time>2022-11-04T17:11:23.0000000+00:00</time></trkpt><trkpt lat="39.45953677" lon="-0.35747568"><ele>-3.8</ele><time>2022-11-04T17:11:24.0000000+00:00</time></trkpt><trkpt lat="39.45954641" lon="-0.35747333"><ele>-3.8</ele><time>2022-11-04T17:11:25.0000000+00:00</time></trkpt><trkpt lat="39.45955605" lon="-0.35747434"><ele>-3.8</ele><time>2022-11-04T17:11:26.0000000+00:00</time></trkpt><trkpt lat="39.45956754" lon="-0.3574756"><ele>-3.8</ele><time>2022-11-04T17:11:27.0000000+00:00</time></trkpt><trkpt lat="39.45957868" lon="-0.35747686"><ele>-3.8</ele><time>2022-11-04T17:11:28.0000000+00:00</time></trkpt><trkpt lat="39.45958774" lon="-0.35747526"><ele>-3.8</ele><time>2022-11-04T17:11:29.0000000+00:00</time></trkpt><trkpt lat="39.45959427" lon="-0.35746479"><ele>-4.0</ele><time>2022-11-04T17:11:30.0000000+00:00</time></trkpt><trkpt lat="39.45959671" lon="-0.35745867"><ele>-4.0</ele><time>2022-11-04T17:11:31.0000000+00:00</time></trkpt><trkpt lat="39.45959754" lon="-0.35745691"><ele>-4.0</ele><time>2022-11-04T17:11:32.0000000+00:00</time></trkpt><trkpt lat="39.45959788" lon="-0.3574564"><ele>-3.8</ele><time>2022-11-04T17:11:33.0000000+00:00</time></trkpt><trkpt lat="39.45959763" lon="-0.35745665"><ele>-3.8</ele><time>2022-11-04T17:11:34.0000000+00:00</time></trkpt><trkpt lat="39.45959888" lon="-0.35745791"><ele>-3.8</ele><time>2022-11-04T17:11:35.0000000+00:00</time></trkpt><trkpt lat="39.45960408" lon="-0.35745506"><ele>-3.6</ele><time>2022-11-04T17:11:36.0000000+00:00</time></trkpt><trkpt lat="39.45960978" lon="-0.35745012"><ele>-4.0</ele><time>2022-11-04T17:11:37.0000000+00:00</time></trkpt><trkpt lat="39.45961825" lon="-0.35744215"><ele>-4.0</ele><time>2022-11-04T17:11:38.0000000+00:00</time></trkpt><trkpt lat="39.45962738" lon="-0.35743226"><ele>-4.0</ele><time>2022-11-04T17:11:39.0000000+00:00</time></trkpt><trkpt lat="39.45963409" lon="-0.35742313"><ele>-4.2</ele><time>2022-11-04T17:11:40.0000000+00:00</time></trkpt><trkpt lat="39.45963384" lon="-0.35741533"><ele>-4.0</ele><time>2022-11-04T17:11:41.0000000+00:00</time></trkpt><trkpt lat="39.45963333" lon="-0.35741173"><ele>-4.0</ele><time>2022-11-04T17:11:42.0000000+00:00</time></trkpt><trkpt lat="39.45963317" lon="-0.3574093"><ele>-3.8</ele><time>2022-11-04T17:11:43.0000000+00:00</time></trkpt><trkpt lat="39.45963317" lon="-0.35740812"><ele>-3.6</ele><time>2022-11-04T17:11:44.0000000+00:00</time></trkpt><trkpt lat="39.459634" lon="-0.3574077"><ele>-3.6</ele><time>2022-11-04T17:11:45.0000000+00:00</time></trkpt><trkpt lat="39.45963459" lon="-0.35740762"><ele>-3.6</ele><time>2022-11-04T17:11:46.0000000+00:00</time></trkpt><trkpt lat="39.45963367" lon="-0.35740946"><ele>-3.4</ele><time>2022-11-04T17:11:47.0000000+00:00</time></trkpt><trkpt lat="39.45963283" lon="-0.35741122"><ele>-3.4</ele><time>2022-11-04T17:11:48.0000000+00:00</time></trkpt><trkpt lat="39.45963283" lon="-0.35741223"><ele>-3.4</ele><time>2022-11-04T17:11:49.0000000+00:00</time></trkpt><trkpt lat="39.45963828" lon="-0.35741248"><ele>-3.4</ele><time>2022-11-04T17:11:50.0000000+00:00</time></trkpt><trkpt lat="39.4596475" lon="-0.35741768"><ele>-3.6</ele><time>2022-11-04T17:11:51.0000000+00:00</time></trkpt><trkpt lat="39.45965429" lon="-0.35742447"><ele>-3.6</ele><time>2022-11-04T17:11:52.0000000+00:00</time></trkpt><trkpt lat="39.4596615" lon="-0.35743444"><ele>-3.8</ele><time>2022-11-04T17:11:53.0000000+00:00</time></trkpt><trkpt lat="39.45966996" lon="-0.35744526"><ele>-3.8</ele><time>2022-11-04T17:11:54.0000000+00:00</time></trkpt><trkpt lat="39.45967675" lon="-0.3574564"><ele>-3.8</ele><time>2022-11-04T17:11:55.0000000+00:00</time></trkpt><trkpt lat="39.45968245" lon="-0.35746889"><ele>-3.8</ele><time>2022-11-04T17:11:56.0000000+00:00</time></trkpt><trkpt lat="39.45968849" lon="-0.35747895"><ele>-3.6</ele><time>2022-11-04T17:11:57.0000000+00:00</time></trkpt><trkpt lat="39.45969796" lon="-0.357488"><ele>-3.8</ele><time>2022-11-04T17:11:58.0000000+00:00</time></trkpt><trkpt lat="39.45970735" lon="-0.35749672"><ele>-3.6</ele><time>2022-11-04T17:11:59.0000000+00:00</time></trkpt><trkpt lat="39.45971447" lon="-0.35750544"><ele>-3.6</ele><time>2022-11-04T17:12:00.0000000+00:00</time></trkpt><trkpt lat="39.45972403" lon="-0.35751256"><ele>-3.6</ele><time>2022-11-04T17:12:01.0000000+00:00</time></trkpt><trkpt lat="39.45973643" lon="-0.35751784"><ele>-3.6</ele><time>2022-11-04T17:12:02.0000000+00:00</time></trkpt><trkpt lat="39.45974976" lon="-0.35752497"><ele>-3.8</ele><time>2022-11-04T17:12:03.0000000+00:00</time></trkpt><trkpt lat="39.45976267" lon="-0.35753234"><ele>-3.6</ele><time>2022-11-04T17:12:04.0000000+00:00</time></trkpt><trkpt lat="39.4597739" lon="-0.35754265"><ele>-3.6</ele><time>2022-11-04T17:12:05.0000000+00:00</time></trkpt><trkpt lat="39.4597863" lon="-0.35755422"><ele>-3.6</ele><time>2022-11-04T17:12:06.0000000+00:00</time></trkpt><trkpt lat="39.45979184" lon="-0.35757048"><ele>-3.6</ele><time>2022-11-04T17:12:07.0000000+00:00</time></trkpt><trkpt lat="39.45980097" lon="-0.35758138"><ele>-3.6</ele><time>2022-11-04T17:12:08.0000000+00:00</time></trkpt><trkpt lat="39.4598122" lon="-0.35758733"><ele>-3.6</ele><time>2022-11-04T17:12:09.0000000+00:00</time></trkpt><trkpt lat="39.45982235" lon="-0.35759294"><ele>-3.6</ele><time>2022-11-04T17:12:10.0000000+00:00</time></trkpt><trkpt lat="39.45982838" lon="-0.35759579"><ele>-3.6</ele><time>2022-11-04T17:12:11.0000000+00:00</time></trkpt><trkpt lat="39.4598309" lon="-0.35759546"><ele>-3.6</ele><time>2022-11-04T17:12:12.0000000+00:00</time></trkpt><trkpt lat="39.45983157" lon="-0.35759496"><ele>-3.6</ele><time>2022-11-04T17:12:13.0000000+00:00</time></trkpt><trkpt lat="39.45983165" lon="-0.35759454"><ele>-3.6</ele><time>2022-11-04T17:12:14.0000000+00:00</time></trkpt><trkpt lat="39.45983165" lon="-0.35759437"><ele>-3.6</ele><time>2022-11-04T17:12:15.0000000+00:00</time></trkpt><trkpt lat="39.4598309" lon="-0.35759429"><ele>-3.6</ele><time>2022-11-04T17:12:16.0000000+00:00</time></trkpt><trkpt lat="39.45983115" lon="-0.35759227"><ele>-3.6</ele><time>2022-11-04T17:12:17.0000000+00:00</time></trkpt><trkpt lat="39.45983157" lon="-0.35759051"><ele>-3.6</ele><time>2022-11-04T17:12:18.0000000+00:00</time></trkpt><trkpt lat="39.45983148" lon="-0.3575911"><ele>-3.4</ele><time>2022-11-04T17:12:19.0000000+00:00</time></trkpt><trkpt lat="39.45983249" lon="-0.35759244"><ele>-3.4</ele><time>2022-11-04T17:12:20.0000000+00:00</time></trkpt><trkpt lat="39.45983249" lon="-0.35759261"><ele>-3.4</ele><time>2022-11-04T17:12:21.0000000+00:00</time></trkpt><trkpt lat="39.45983249" lon="-0.35759219"><ele>-3.0</ele><time>2022-11-04T17:12:22.0000000+00:00</time></trkpt><trkpt lat="39.45983249" lon="-0.35759219"><ele>-3.0</ele><time>2022-11-04T17:12:23.0000000+00:00</time></trkpt><trkpt lat="39.45983249" lon="-0.35759219"><ele>-2.8</ele><time>2022-11-04T17:12:24.0000000+00:00</time></trkpt><trkpt lat="39.45983249" lon="-0.35759219"><ele>-2.8</ele><time>2022-11-04T17:12:25.0000000+00:00</time></trkpt><trkpt lat="39.45983249" lon="-0.35759219"><ele>-2.8</ele><time>2022-11-04T17:12:26.0000000+00:00</time></trkpt><trkpt lat="39.45983249" lon="-0.35759219"><ele>-2.8</ele><time>2022-11-04T17:12:27.0000000+00:00</time></trkpt><trkpt lat="39.45983249" lon="-0.35759219"><ele>-2.8</ele><time>2022-11-04T17:12:28.0000000+00:00</time></trkpt><trkpt lat="39.45983249" lon="-0.35759219"><ele>-2.8</ele><time>2022-11-04T17:12:29.0000000+00:00</time></trkpt><trkpt lat="39.45983249" lon="-0.35759219"><ele>-2.8</ele><time>2022-11-04T17:12:30.0000000+00:00</time></trkpt><trkpt lat="39.45983249" lon="-0.35759219"><ele>-2.8</ele><time>2022-11-04T17:12:31.0000000+00:00</time></trkpt><trkpt lat="39.45983249" lon="-0.35759219"><ele>-2.8</ele><time>2022-11-04T17:12:32.0000000+00:00</time></trkpt><trkpt lat="39.45983249" lon="-0.35759219"><ele>-2.6</ele><time>2022-11-04T17:12:33.0000000+00:00</time></trkpt><trkpt lat="39.45983249" lon="-0.35759219"><ele>-2.6</ele><time>2022-11-04T17:12:34.0000000+00:00</time></trkpt><trkpt lat="39.45983249" lon="-0.35759219"><ele>-2.6</ele><time>2022-11-04T17:12:35.0000000+00:00</time></trkpt><trkpt lat="39.45983249" lon="-0.35759227"><ele>-2.6</ele><time>2022-11-04T17:12:36.0000000+00:00</time></trkpt><trkpt lat="39.45983249" lon="-0.35759227"><ele>-2.6</ele><time>2022-11-04T17:12:37.0000000+00:00</time></trkpt><trkpt lat="39.45983249" lon="-0.35759244"><ele>-2.8</ele><time>2022-11-04T17:12:38.0000000+00:00</time></trkpt><trkpt lat="39.45983257" lon="-0.35759253"><ele>-3.0</ele><time>2022-11-04T17:12:39.0000000+00:00</time></trkpt><trkpt lat="39.45983266" lon="-0.35759261"><ele>-3.0</ele><time>2022-11-04T17:12:40.0000000+00:00</time></trkpt><trkpt lat="39.45983266" lon="-0.35759261"><ele>-3.0</ele><time>2022-11-04T17:12:41.0000000+00:00</time></trkpt><trkpt lat="39.45983274" lon="-0.35759336"><ele>-3.0</ele><time>2022-11-04T17:12:42.0000000+00:00</time></trkpt><trkpt lat="39.45983282" lon="-0.3575937"><ele>-3.0</ele><time>2022-11-04T17:12:43.0000000+00:00</time></trkpt><trkpt lat="39.45983282" lon="-0.35759378"><ele>-3.2</ele><time>2022-11-04T17:12:44.0000000+00:00</time></trkpt><trkpt lat="39.45983282" lon="-0.35759378"><ele>-3.2</ele><time>2022-11-04T17:12:45.0000000+00:00</time></trkpt><trkpt lat="39.45983291" lon="-0.35759378"><ele>-3.2</ele><time>2022-11-04T17:12:46.0000000+00:00</time></trkpt><trkpt lat="39.45983299" lon="-0.35759395"><ele>-3.0</ele><time>2022-11-04T17:12:47.0000000+00:00</time></trkpt><trkpt lat="39.45983299" lon="-0.35759429"><ele>-3.0</ele><time>2022-11-04T17:12:48.0000000+00:00</time></trkpt><trkpt lat="39.45983299" lon="-0.35759454"><ele>-3.0</ele><time>2022-11-04T17:12:49.0000000+00:00</time></trkpt><trkpt lat="39.45983299" lon="-0.35759479"><ele>-3.0</ele><time>2022-11-04T17:12:50.0000000+00:00</time></trkpt><trkpt lat="39.45983299" lon="-0.35759496"><ele>-3.0</ele><time>2022-11-04T17:12:51.0000000+00:00</time></trkpt><trkpt lat="39.45983307" lon="-0.35759538"><ele>-3.0</ele><time>2022-11-04T17:12:52.0000000+00:00</time></trkpt><trkpt lat="39.45983324" lon="-0.35759554"><ele>-2.8</ele><time>2022-11-04T17:12:53.0000000+00:00</time></trkpt><trkpt lat="39.45983333" lon="-0.35759571"><ele>-2.6</ele><time>2022-11-04T17:12:54.0000000+00:00</time></trkpt><trkpt lat="39.45983341" lon="-0.35759588"><ele>-2.6</ele><time>2022-11-04T17:12:55.0000000+00:00</time></trkpt><trkpt lat="39.45983349" lon="-0.35759596"><ele>-2.6</ele><time>2022-11-04T17:12:56.0000000+00:00</time></trkpt><trkpt lat="39.45983366" lon="-0.3575968"><ele>-2.4</ele><time>2022-11-04T17:12:57.0000000+00:00</time></trkpt><trkpt lat="39.45983375" lon="-0.3575973"><ele>-2.4</ele><time>2022-11-04T17:12:58.0000000+00:00</time></trkpt><trkpt lat="39.45983375" lon="-0.35759797"><ele>-2.4</ele><time>2022-11-04T17:12:59.0000000+00:00</time></trkpt><trkpt lat="39.45983375" lon="-0.35759864"><ele>-2.4</ele><time>2022-11-04T17:13:00.0000000+00:00</time></trkpt><trkpt lat="39.45983375" lon="-0.35759881"><ele>-2.6</ele><time>2022-11-04T17:13:01.0000000+00:00</time></trkpt><trkpt lat="39.45983375" lon="-0.35759881"><ele>-2.8</ele><time>2022-11-04T17:13:02.0000000+00:00</time></trkpt><trkpt lat="39.45983375" lon="-0.35759881"><ele>-2.8</ele><time>2022-11-04T17:13:03.0000000+00:00</time></trkpt><trkpt lat="39.45983375" lon="-0.35759881"><ele>-2.8</ele><time>2022-11-04T17:13:04.0000000+00:00</time></trkpt><trkpt lat="39.45983375" lon="-0.35759881"><ele>-2.8</ele><time>2022-11-04T17:13:05.0000000+00:00</time></trkpt><trkpt lat="39.45983375" lon="-0.35759881"><ele>-2.8</ele><time>2022-11-04T17:13:06.0000000+00:00</time></trkpt><trkpt lat="39.45983375" lon="-0.35759881"><ele>-2.6</ele><time>2022-11-04T17:13:07.0000000+00:00</time></trkpt><trkpt lat="39.45983358" lon="-0.35759881"><ele>-2.6</ele><time>2022-11-04T17:13:08.0000000+00:00</time></trkpt><trkpt lat="39.45983358" lon="-0.35759881"><ele>-2.6</ele><time>2022-11-04T17:13:09.0000000+00:00</time></trkpt><trkpt lat="39.45983291" lon="-0.35759881"><ele>-2.6</ele><time>2022-11-04T17:13:10.0000000+00:00</time></trkpt><trkpt lat="39.45983207" lon="-0.35759881"><ele>-2.6</ele><time>2022-11-04T17:13:11.0000000+00:00</time></trkpt><trkpt lat="39.45983182" lon="-0.35759881"><ele>-2.6</ele><time>2022-11-04T17:13:12.0000000+00:00</time></trkpt><trkpt lat="39.4598314" lon="-0.35759881"><ele>-2.8</ele><time>2022-11-04T17:13:13.0000000+00:00</time></trkpt><trkpt lat="39.45983039" lon="-0.35759881"><ele>-2.8</ele><time>2022-11-04T17:13:14.0000000+00:00</time></trkpt><trkpt lat="39.45982939" lon="-0.35759856"><ele>-2.8</ele><time>2022-11-04T17:13:15.0000000+00:00</time></trkpt><trkpt lat="39.45982905" lon="-0.35759823"><ele>-2.8</ele><time>2022-11-04T17:13:16.0000000+00:00</time></trkpt><trkpt lat="39.45982863" lon="-0.35759789"><ele>-3.0</ele><time>2022-11-04T17:13:17.0000000+00:00</time></trkpt><trkpt lat="39.45982738" lon="-0.35759613"><ele>-3.0</ele><time>2022-11-04T17:13:18.0000000+00:00</time></trkpt><trkpt lat="39.45982553" lon="-0.35759563"><ele>-3.0</ele><time>2022-11-04T17:13:19.0000000+00:00</time></trkpt><trkpt lat="39.45982503" lon="-0.35759546"><ele>-3.2</ele><time>2022-11-04T17:13:20.0000000+00:00</time></trkpt><trkpt lat="39.45982486" lon="-0.35759546"><ele>-3.2</ele><time>2022-11-04T17:13:21.0000000+00:00</time></trkpt><trkpt lat="39.45982687" lon="-0.35759881"><ele>-3.2</ele><time>2022-11-04T17:13:22.0000000+00:00</time></trkpt><trkpt lat="39.45983802" lon="-0.35761138"><ele>-3.4</ele><time>2022-11-04T17:13:23.0000000+00:00</time></trkpt><trkpt lat="39.4598521" lon="-0.35762019"><ele>-3.4</ele><time>2022-11-04T17:13:24.0000000+00:00</time></trkpt><trkpt lat="39.45986593" lon="-0.35762882"><ele>-3.4</ele><time>2022-11-04T17:13:25.0000000+00:00</time></trkpt><trkpt lat="39.45987683" lon="-0.35763938"><ele>-3.2</ele><time>2022-11-04T17:13:26.0000000+00:00</time></trkpt><trkpt lat="39.45988798" lon="-0.35765145"><ele>-3.2</ele><time>2022-11-04T17:13:27.0000000+00:00</time></trkpt><trkpt lat="39.45990021" lon="-0.35766268"><ele>-3.2</ele><time>2022-11-04T17:13:28.0000000+00:00</time></trkpt><trkpt lat="39.45990549" lon="-0.35766972"><ele>-3.2</ele><time>2022-11-04T17:13:29.0000000+00:00</time></trkpt><trkpt lat="39.4599096" lon="-0.35767525"><ele>-3.0</ele><time>2022-11-04T17:13:30.0000000+00:00</time></trkpt><trkpt lat="39.45991304" lon="-0.35767961"><ele>-2.8</ele><time>2022-11-04T17:13:31.0000000+00:00</time></trkpt><trkpt lat="39.45991362" lon="-0.3576797"><ele>-2.6</ele><time>2022-11-04T17:13:32.0000000+00:00</time></trkpt><trkpt lat="39.45991388" lon="-0.35767961"><ele>-2.6</ele><time>2022-11-04T17:13:33.0000000+00:00</time></trkpt><trkpt lat="39.45991379" lon="-0.35767911"><ele>-2.4</ele><time>2022-11-04T17:13:34.0000000+00:00</time></trkpt><trkpt lat="39.45991438" lon="-0.35767961"><ele>-2.4</ele><time>2022-11-04T17:13:35.0000000+00:00</time></trkpt><trkpt lat="39.45991421" lon="-0.35767995"><ele>-2.4</ele><time>2022-11-04T17:13:36.0000000+00:00</time></trkpt><trkpt lat="39.45991388" lon="-0.35767986"><ele>-2.4</ele><time>2022-11-04T17:13:37.0000000+00:00</time></trkpt><trkpt lat="39.45991379" lon="-0.3576797"><ele>-2.4</ele><time>2022-11-04T17:13:38.0000000+00:00</time></trkpt><trkpt lat="39.45991413" lon="-0.35767953"><ele>-2.4</ele><time>2022-11-04T17:13:39.0000000+00:00</time></trkpt><trkpt lat="39.45991396" lon="-0.35767919"><ele>-2.4</ele><time>2022-11-04T17:13:40.0000000+00:00</time></trkpt><trkpt lat="39.45991396" lon="-0.35767919"><ele>-2.4</ele><time>2022-11-04T17:13:41.0000000+00:00</time></trkpt><trkpt lat="39.45991396" lon="-0.35767919"><ele>-2.2</ele><time>2022-11-04T17:13:42.0000000+00:00</time></trkpt><trkpt lat="39.45991396" lon="-0.35767919"><ele>-2.2</ele><time>2022-11-04T17:13:43.0000000+00:00</time></trkpt><trkpt lat="39.45991396" lon="-0.35767919"><ele>-2.2</ele><time>2022-11-04T17:13:44.0000000+00:00</time></trkpt><trkpt lat="39.45991396" lon="-0.35767919"><ele>-2.2</ele><time>2022-11-04T17:13:45.0000000+00:00</time></trkpt><trkpt lat="39.45991698" lon="-0.35768154"><ele>-2.2</ele><time>2022-11-04T17:13:46.0000000+00:00</time></trkpt><trkpt lat="39.45993005" lon="-0.35768984"><ele>-2.4</ele><time>2022-11-04T17:13:47.0000000+00:00</time></trkpt><trkpt lat="39.45994288" lon="-0.35769831"><ele>-2.4</ele><time>2022-11-04T17:13:48.0000000+00:00</time></trkpt><trkpt lat="39.45995587" lon="-0.35770484"><ele>-2.4</ele><time>2022-11-04T17:13:49.0000000+00:00</time></trkpt><trkpt lat="39.45997196" lon="-0.35771255"><ele>-2.6</ele><time>2022-11-04T17:13:50.0000000+00:00</time></trkpt><trkpt lat="39.4599863" lon="-0.35772412"><ele>-2.6</ele><time>2022-11-04T17:13:51.0000000+00:00</time></trkpt><trkpt lat="39.45999937" lon="-0.35773535"><ele>-2.6</ele><time>2022-11-04T17:13:52.0000000+00:00</time></trkpt><trkpt lat="39.46001086" lon="-0.35774734"><ele>-2.8</ele><time>2022-11-04T17:13:53.0000000+00:00</time></trkpt><trkpt lat="39.46002418" lon="-0.35776109"><ele>-2.8</ele><time>2022-11-04T17:13:54.0000000+00:00</time></trkpt><trkpt lat="39.46003583" lon="-0.35777307"><ele>-2.8</ele><time>2022-11-04T17:13:55.0000000+00:00</time></trkpt><trkpt lat="39.46004187" lon="-0.3577812"><ele>-2.8</ele><time>2022-11-04T17:13:56.0000000+00:00</time></trkpt><trkpt lat="39.46004329" lon="-0.35778933"><ele>-3.0</ele><time>2022-11-04T17:13:57.0000000+00:00</time></trkpt><trkpt lat="39.46004489" lon="-0.35779713"><ele>-2.8</ele><time>2022-11-04T17:13:58.0000000+00:00</time></trkpt><trkpt lat="39.4600495" lon="-0.35780719"><ele>-2.8</ele><time>2022-11-04T17:13:59.0000000+00:00</time></trkpt><trkpt lat="39.46005587" lon="-0.357818"><ele>-2.8</ele><time>2022-11-04T17:14:00.0000000+00:00</time></trkpt><trkpt lat="39.46006316" lon="-0.35782596"><ele>-2.6</ele><time>2022-11-04T17:14:01.0000000+00:00</time></trkpt><trkpt lat="39.46007053" lon="-0.35783191"><ele>-2.6</ele><time>2022-11-04T17:14:02.0000000+00:00</time></trkpt><trkpt lat="39.46007783" lon="-0.35783669"><ele>-2.6</ele><time>2022-11-04T17:14:03.0000000+00:00</time></trkpt><trkpt lat="39.46008596" lon="-0.35784247"><ele>-2.4</ele><time>2022-11-04T17:14:04.0000000+00:00</time></trkpt><trkpt lat="39.4600909" lon="-0.35784993"><ele>-2.4</ele><time>2022-11-04T17:14:05.0000000+00:00</time></trkpt><trkpt lat="39.46009501" lon="-0.35786125"><ele>-2.4</ele><time>2022-11-04T17:14:06.0000000+00:00</time></trkpt><trkpt lat="39.4601023" lon="-0.35787357"><ele>-2.6</ele><time>2022-11-04T17:14:07.0000000+00:00</time></trkpt><trkpt lat="39.46011295" lon="-0.35788195"><ele>-2.6</ele><time>2022-11-04T17:14:08.0000000+00:00</time></trkpt><trkpt lat="39.46012267" lon="-0.35789318"><ele>-2.6</ele><time>2022-11-04T17:14:09.0000000+00:00</time></trkpt><trkpt lat="39.46012979" lon="-0.35790509"><ele>-2.6</ele><time>2022-11-04T17:14:10.0000000+00:00</time></trkpt><trkpt lat="39.46013575" lon="-0.35791841"><ele>-2.6</ele><time>2022-11-04T17:14:11.0000000+00:00</time></trkpt><trkpt lat="39.46014069" lon="-0.35793006"><ele>-2.6</ele><time>2022-11-04T17:14:12.0000000+00:00</time></trkpt><trkpt lat="39.4601448" lon="-0.35794264"><ele>-2.6</ele><time>2022-11-04T17:14:13.0000000+00:00</time></trkpt><trkpt lat="39.46015192" lon="-0.35795127"><ele>-2.6</ele><time>2022-11-04T17:14:14.0000000+00:00</time></trkpt><trkpt lat="39.46015829" lon="-0.35796502"><ele>-2.6</ele><time>2022-11-04T17:14:15.0000000+00:00</time></trkpt><trkpt lat="39.46016257" lon="-0.35798094"><ele>-2.6</ele><time>2022-11-04T17:14:16.0000000+00:00</time></trkpt><trkpt lat="39.46016542" lon="-0.35799779"><ele>-2.6</ele><time>2022-11-04T17:14:17.0000000+00:00</time></trkpt><trkpt lat="39.46016726" lon="-0.35801196"><ele>-2.8</ele><time>2022-11-04T17:14:18.0000000+00:00</time></trkpt><trkpt lat="39.46017103" lon="-0.35802403"><ele>-3.0</ele><time>2022-11-04T17:14:19.0000000+00:00</time></trkpt><trkpt lat="39.46017858" lon="-0.35803283"><ele>-3.0</ele><time>2022-11-04T17:14:20.0000000+00:00</time></trkpt><trkpt lat="39.46018612" lon="-0.35804221"><ele>-3.0</ele><time>2022-11-04T17:14:21.0000000+00:00</time></trkpt><trkpt lat="39.46019375" lon="-0.3580516"><ele>-3.0</ele><time>2022-11-04T17:14:22.0000000+00:00</time></trkpt><trkpt lat="39.46020406" lon="-0.35805948"><ele>-3.0</ele><time>2022-11-04T17:14:23.0000000+00:00</time></trkpt><trkpt lat="39.46021613" lon="-0.35806937"><ele>-3.0</ele><time>2022-11-04T17:14:24.0000000+00:00</time></trkpt><trkpt lat="39.46022635" lon="-0.35807809"><ele>-3.2</ele><time>2022-11-04T17:14:25.0000000+00:00</time></trkpt><trkpt lat="39.46023759" lon="-0.35808438"><ele>-3.0</ele><time>2022-11-04T17:14:26.0000000+00:00</time></trkpt><trkpt lat="39.46024714" lon="-0.35809167"><ele>-3.0</ele><time>2022-11-04T17:14:27.0000000+00:00</time></trkpt><trkpt lat="39.46025494" lon="-0.3580946"><ele>-3.0</ele><time>2022-11-04T17:14:28.0000000+00:00</time></trkpt><trkpt lat="39.46026139" lon="-0.35810147"><ele>-3.0</ele><time>2022-11-04T17:14:29.0000000+00:00</time></trkpt><trkpt lat="39.4602681" lon="-0.35810273"><ele>-2.8</ele><time>2022-11-04T17:14:30.0000000+00:00</time></trkpt><trkpt lat="39.46027698" lon="-0.35809963"><ele>-2.8</ele><time>2022-11-04T17:14:31.0000000+00:00</time></trkpt><trkpt lat="39.4602862" lon="-0.35809745"><ele>-2.8</ele><time>2022-11-04T17:14:32.0000000+00:00</time></trkpt><trkpt lat="39.46029584" lon="-0.3580993"><ele>-2.8</ele><time>2022-11-04T17:14:33.0000000+00:00</time></trkpt><trkpt lat="39.46030573" lon="-0.3580998"><ele>-2.8</ele><time>2022-11-04T17:14:34.0000000+00:00</time></trkpt><trkpt lat="39.4603183" lon="-0.35810106"><ele>-2.8</ele><time>2022-11-04T17:14:35.0000000+00:00</time></trkpt><trkpt lat="39.46033113" lon="-0.35810256"><ele>-2.8</ele><time>2022-11-04T17:14:36.0000000+00:00</time></trkpt><trkpt lat="39.46034169" lon="-0.35810323"><ele>-2.8</ele><time>2022-11-04T17:14:37.0000000+00:00</time></trkpt><trkpt lat="39.46035049" lon="-0.35810592"><ele>-2.8</ele><time>2022-11-04T17:14:38.0000000+00:00</time></trkpt><trkpt lat="39.46035929" lon="-0.35810634"><ele>-2.8</ele><time>2022-11-04T17:14:39.0000000+00:00</time></trkpt><trkpt lat="39.46036809" lon="-0.35810852"><ele>-2.8</ele><time>2022-11-04T17:14:40.0000000+00:00</time></trkpt><trkpt lat="39.46037756" lon="-0.35811279"><ele>-3.0</ele><time>2022-11-04T17:14:41.0000000+00:00</time></trkpt><trkpt lat="39.46038921" lon="-0.35811489"><ele>-3.0</ele><time>2022-11-04T17:14:42.0000000+00:00</time></trkpt><trkpt lat="39.46039986" lon="-0.35811958"><ele>-3.0</ele><time>2022-11-04T17:14:43.0000000+00:00</time></trkpt><trkpt lat="39.46040866" lon="-0.35812553"><ele>-3.0</ele><time>2022-11-04T17:14:44.0000000+00:00</time></trkpt><trkpt lat="39.46041838" lon="-0.35813232"><ele>-3.0</ele><time>2022-11-04T17:14:45.0000000+00:00</time></trkpt><trkpt lat="39.46042853" lon="-0.35813391"><ele>-3.0</ele><time>2022-11-04T17:14:46.0000000+00:00</time></trkpt><trkpt lat="39.46044018" lon="-0.3581345"><ele>-3.0</ele><time>2022-11-04T17:14:47.0000000+00:00</time></trkpt><trkpt lat="39.46045199" lon="-0.35813877"><ele>-3.0</ele><time>2022-11-04T17:14:48.0000000+00:00</time></trkpt><trkpt lat="39.46046264" lon="-0.35814615"><ele>-3.0</ele><time>2022-11-04T17:14:49.0000000+00:00</time></trkpt><trkpt lat="39.46047387" lon="-0.35815512"><ele>-3.0</ele><time>2022-11-04T17:14:50.0000000+00:00</time></trkpt><trkpt lat="39.4604825" lon="-0.35816099"><ele>-3.0</ele><time>2022-11-04T17:14:51.0000000+00:00</time></trkpt><trkpt lat="39.46049323" lon="-0.35816635"><ele>-2.8</ele><time>2022-11-04T17:14:52.0000000+00:00</time></trkpt><trkpt lat="39.46050254" lon="-0.35817322"><ele>-3.0</ele><time>2022-11-04T17:14:53.0000000+00:00</time></trkpt><trkpt lat="39.46051335" lon="-0.35817817"><ele>-3.0</ele><time>2022-11-04T17:14:54.0000000+00:00</time></trkpt><trkpt lat="39.46052508" lon="-0.35818546"><ele>-3.0</ele><time>2022-11-04T17:14:55.0000000+00:00</time></trkpt><trkpt lat="39.46053925" lon="-0.3581915"><ele>-3.0</ele><time>2022-11-04T17:14:56.0000000+00:00</time></trkpt><trkpt lat="39.46055249" lon="-0.35819233"><ele>-3.2</ele><time>2022-11-04T17:14:57.0000000+00:00</time></trkpt><trkpt lat="39.46056825" lon="-0.35818831"><ele>-3.2</ele><time>2022-11-04T17:14:58.0000000+00:00</time></trkpt><trkpt lat="39.46058217" lon="-0.35818387"><ele>-3.2</ele><time>2022-11-04T17:14:59.0000000+00:00</time></trkpt><trkpt lat="39.46059558" lon="-0.3581801"><ele>-3.0</ele><time>2022-11-04T17:15:00.0000000+00:00</time></trkpt><trkpt lat="39.46060505" lon="-0.358178"><ele>-2.8</ele><time>2022-11-04T17:15:01.0000000+00:00</time></trkpt><trkpt lat="39.46060949" lon="-0.35817423"><ele>-2.8</ele><time>2022-11-04T17:15:02.0000000+00:00</time></trkpt><trkpt lat="39.46061175" lon="-0.35817565"><ele>-2.6</ele><time>2022-11-04T17:15:03.0000000+00:00</time></trkpt><trkpt lat="39.46061427" lon="-0.35818378"><ele>-2.8</ele><time>2022-11-04T17:15:04.0000000+00:00</time></trkpt><trkpt lat="39.46061938" lon="-0.35819317"><ele>-2.8</ele><time>2022-11-04T17:15:05.0000000+00:00</time></trkpt><trkpt lat="39.46062894" lon="-0.35820466"><ele>-3.0</ele><time>2022-11-04T17:15:06.0000000+00:00</time></trkpt><trkpt lat="39.46063925" lon="-0.35821354"><ele>-3.0</ele><time>2022-11-04T17:15:07.0000000+00:00</time></trkpt><trkpt lat="39.46064754" lon="-0.35821941"><ele>-3.0</ele><time>2022-11-04T17:15:08.0000000+00:00</time></trkpt><trkpt lat="39.46066037" lon="-0.35822293"><ele>-3.0</ele><time>2022-11-04T17:15:09.0000000+00:00</time></trkpt><trkpt lat="39.46067118" lon="-0.35823223"><ele>-3.0</ele><time>2022-11-04T17:15:10.0000000+00:00</time></trkpt><trkpt lat="39.46067881" lon="-0.35824346"><ele>-3.0</ele><time>2022-11-04T17:15:11.0000000+00:00</time></trkpt><trkpt lat="39.46068811" lon="-0.35825042"><ele>-3.0</ele><time>2022-11-04T17:15:12.0000000+00:00</time></trkpt><trkpt lat="39.46069784" lon="-0.35825101"><ele>-3.0</ele><time>2022-11-04T17:15:13.0000000+00:00</time></trkpt><trkpt lat="39.46070387" lon="-0.35824497"><ele>-3.0</ele><time>2022-11-04T17:15:14.0000000+00:00</time></trkpt><trkpt lat="39.46070739" lon="-0.35823919"><ele>-3.0</ele><time>2022-11-04T17:15:15.0000000+00:00</time></trkpt><trkpt lat="39.4607084" lon="-0.35823575"><ele>-3.0</ele><time>2022-11-04T17:15:16.0000000+00:00</time></trkpt><trkpt lat="39.46070815" lon="-0.35823466"><ele>-3.0</ele><time>2022-11-04T17:15:17.0000000+00:00</time></trkpt><trkpt lat="39.46070798" lon="-0.35823357"><ele>-3.0</ele><time>2022-11-04T17:15:18.0000000+00:00</time></trkpt><trkpt lat="39.46070773" lon="-0.35823349"><ele>-2.8</ele><time>2022-11-04T17:15:19.0000000+00:00</time></trkpt><trkpt lat="39.46070706" lon="-0.35823458"><ele>-2.8</ele><time>2022-11-04T17:15:20.0000000+00:00</time></trkpt><trkpt lat="39.46070789" lon="-0.35823491"><ele>-2.8</ele><time>2022-11-04T17:15:21.0000000+00:00</time></trkpt><trkpt lat="39.4607094" lon="-0.35823416"><ele>-2.6</ele><time>2022-11-04T17:15:22.0000000+00:00</time></trkpt><trkpt lat="39.46071108" lon="-0.35823324"><ele>-2.6</ele><time>2022-11-04T17:15:23.0000000+00:00</time></trkpt><trkpt lat="39.46071167" lon="-0.35823307"><ele>-2.6</ele><time>2022-11-04T17:15:24.0000000+00:00</time></trkpt><trkpt lat="39.46071242" lon="-0.35823257"><ele>-2.6</ele><time>2022-11-04T17:15:25.0000000+00:00</time></trkpt><trkpt lat="39.46071242" lon="-0.35823257"><ele>-2.6</ele><time>2022-11-04T17:15:26.0000000+00:00</time></trkpt><trkpt lat="39.46071242" lon="-0.35823257"><ele>-2.6</ele><time>2022-11-04T17:15:27.0000000+00:00</time></trkpt><trkpt lat="39.46071242" lon="-0.35823257"><ele>-2.6</ele><time>2022-11-04T17:15:28.0000000+00:00</time></trkpt><trkpt lat="39.46071242" lon="-0.35823257"><ele>-2.6</ele><time>2022-11-04T17:15:29.0000000+00:00</time></trkpt><trkpt lat="39.46071242" lon="-0.35823257"><ele>-2.6</ele><time>2022-11-04T17:15:30.0000000+00:00</time></trkpt><trkpt lat="39.46071242" lon="-0.35823257"><ele>-2.6</ele><time>2022-11-04T17:15:31.0000000+00:00</time></trkpt><trkpt lat="39.46071242" lon="-0.35823257"><ele>-2.6</ele><time>2022-11-04T17:15:32.0000000+00:00</time></trkpt><trkpt lat="39.46071242" lon="-0.35823257"><ele>-2.6</ele><time>2022-11-04T17:15:33.0000000+00:00</time></trkpt><trkpt lat="39.46071242" lon="-0.35823257"><ele>-2.6</ele><time>2022-11-04T17:15:34.0000000+00:00</time></trkpt><trkpt lat="39.46071242" lon="-0.35823257"><ele>-2.6</ele><time>2022-11-04T17:15:35.0000000+00:00</time></trkpt><trkpt lat="39.46071242" lon="-0.35823257"><ele>-2.6</ele><time>2022-11-04T17:15:36.0000000+00:00</time></trkpt><trkpt lat="39.46071242" lon="-0.35823257"><ele>-2.6</ele><time>2022-11-04T17:15:37.0000000+00:00</time></trkpt><trkpt lat="39.46071577" lon="-0.35823215"><ele>-2.6</ele><time>2022-11-04T17:15:38.0000000+00:00</time></trkpt><trkpt lat="39.46072759" lon="-0.35822477"><ele>-2.6</ele><time>2022-11-04T17:15:39.0000000+00:00</time></trkpt><trkpt lat="39.46074142" lon="-0.35821237"><ele>-2.6</ele><time>2022-11-04T17:15:40.0000000+00:00</time></trkpt><trkpt lat="39.46075441" lon="-0.3582065"><ele>-2.6</ele><time>2022-11-04T17:15:41.0000000+00:00</time></trkpt><trkpt lat="39.46076766" lon="-0.35820642"><ele>-2.6</ele><time>2022-11-04T17:15:42.0000000+00:00</time></trkpt><trkpt lat="39.46078325" lon="-0.35820943"><ele>-2.6</ele><time>2022-11-04T17:15:43.0000000+00:00</time></trkpt><trkpt lat="39.46080093" lon="-0.35821354"><ele>-2.6</ele><time>2022-11-04T17:15:44.0000000+00:00</time></trkpt><trkpt lat="39.46082147" lon="-0.35822025"><ele>-2.6</ele><time>2022-11-04T17:15:45.0000000+00:00</time></trkpt><trkpt lat="39.46083974" lon="-0.35822863"><ele>-2.6</ele><time>2022-11-04T17:15:46.0000000+00:00</time></trkpt><trkpt lat="39.46085307" lon="-0.35823584"><ele>-2.6</ele><time>2022-11-04T17:15:47.0000000+00:00</time></trkpt><trkpt lat="39.46086422" lon="-0.35824355"><ele>-2.6</ele><time>2022-11-04T17:15:48.0000000+00:00</time></trkpt><trkpt lat="39.46087612" lon="-0.35824967"><ele>-2.6</ele><time>2022-11-04T17:15:49.0000000+00:00</time></trkpt><trkpt lat="39.46088911" lon="-0.35825805"><ele>-2.6</ele><time>2022-11-04T17:15:50.0000000+00:00</time></trkpt><trkpt lat="39.46090378" lon="-0.35826735"><ele>-2.6</ele><time>2022-11-04T17:15:51.0000000+00:00</time></trkpt><trkpt lat="39.46091878" lon="-0.35827607"><ele>-2.6</ele><time>2022-11-04T17:15:52.0000000+00:00</time></trkpt><trkpt lat="39.46092985" lon="-0.35828311"><ele>-2.6</ele><time>2022-11-04T17:15:53.0000000+00:00</time></trkpt><trkpt lat="39.4609363" lon="-0.35828797"><ele>-2.8</ele><time>2022-11-04T17:15:54.0000000+00:00</time></trkpt><trkpt lat="39.46094477" lon="-0.3582935"><ele>-2.8</ele><time>2022-11-04T17:15:55.0000000+00:00</time></trkpt><trkpt lat="39.4609555" lon="-0.35830096"><ele>-2.8</ele><time>2022-11-04T17:15:56.0000000+00:00</time></trkpt><trkpt lat="39.46096656" lon="-0.35830859"><ele>-2.8</ele><time>2022-11-04T17:15:57.0000000+00:00</time></trkpt><trkpt lat="39.46097712" lon="-0.35831546"><ele>-2.8</ele><time>2022-11-04T17:15:58.0000000+00:00</time></trkpt><trkpt lat="39.460985" lon="-0.35832326"><ele>-2.8</ele><time>2022-11-04T17:15:59.0000000+00:00</time></trkpt><trkpt lat="39.46099774" lon="-0.35833256"><ele>-2.8</ele><time>2022-11-04T17:16:00.0000000+00:00</time></trkpt><trkpt lat="39.46101132" lon="-0.35833851"><ele>-3.0</ele><time>2022-11-04T17:16:01.0000000+00:00</time></trkpt><trkpt lat="39.46102481" lon="-0.3583391"><ele>-3.0</ele><time>2022-11-04T17:16:02.0000000+00:00</time></trkpt><trkpt lat="39.4610316" lon="-0.35833751"><ele>-3.0</ele><time>2022-11-04T17:16:03.0000000+00:00</time></trkpt><trkpt lat="39.46103965" lon="-0.35834145"><ele>-3.0</ele><time>2022-11-04T17:16:04.0000000+00:00</time></trkpt><trkpt lat="39.46104753" lon="-0.35834732"><ele>-3.2</ele><time>2022-11-04T17:16:05.0000000+00:00</time></trkpt><trkpt lat="39.46105692" lon="-0.35835519"><ele>-3.2</ele><time>2022-11-04T17:16:06.0000000+00:00</time></trkpt><trkpt lat="39.46106723" lon="-0.35836232"><ele>-3.2</ele><time>2022-11-04T17:16:07.0000000+00:00</time></trkpt><trkpt lat="39.46107703" lon="-0.3583702"><ele>-3.2</ele><time>2022-11-04T17:16:08.0000000+00:00</time></trkpt><trkpt lat="39.46108894" lon="-0.35837648"><ele>-3.2</ele><time>2022-11-04T17:16:09.0000000+00:00</time></trkpt><trkpt lat="39.46110017" lon="-0.35838193"><ele>-3.2</ele><time>2022-11-04T17:16:10.0000000+00:00</time></trkpt><trkpt lat="39.46111173" lon="-0.35838218"><ele>-3.2</ele><time>2022-11-04T17:16:11.0000000+00:00</time></trkpt><trkpt lat="39.46112447" lon="-0.35838118"><ele>-3.2</ele><time>2022-11-04T17:16:12.0000000+00:00</time></trkpt><trkpt lat="39.46114183" lon="-0.35838026"><ele>-3.4</ele><time>2022-11-04T17:16:13.0000000+00:00</time></trkpt><trkpt lat="39.46115842" lon="-0.3583785"><ele>-3.4</ele><time>2022-11-04T17:16:14.0000000+00:00</time></trkpt><trkpt lat="39.46117451" lon="-0.35837757"><ele>-3.4</ele><time>2022-11-04T17:16:15.0000000+00:00</time></trkpt><trkpt lat="39.46118985" lon="-0.35837632"><ele>-3.4</ele><time>2022-11-04T17:16:16.0000000+00:00</time></trkpt><trkpt lat="39.46120394" lon="-0.35837213"><ele>-3.4</ele><time>2022-11-04T17:16:17.0000000+00:00</time></trkpt><trkpt lat="39.46121818" lon="-0.35836659"><ele>-3.4</ele><time>2022-11-04T17:16:18.0000000+00:00</time></trkpt><trkpt lat="39.46123034" lon="-0.35836098"><ele>-3.2</ele><time>2022-11-04T17:16:19.0000000+00:00</time></trkpt><trkpt lat="39.46124333" lon="-0.35835729"><ele>-3.2</ele><time>2022-11-04T17:16:20.0000000+00:00</time></trkpt><trkpt lat="39.46125934" lon="-0.35835545"><ele>-3.2</ele><time>2022-11-04T17:16:21.0000000+00:00</time></trkpt><trkpt lat="39.4612725" lon="-0.35835167"><ele>-3.2</ele><time>2022-11-04T17:16:22.0000000+00:00</time></trkpt><trkpt lat="39.46128742" lon="-0.35834547"><ele>-3.2</ele><time>2022-11-04T17:16:23.0000000+00:00</time></trkpt><trkpt lat="39.46130284" lon="-0.35834078"><ele>-3.2</ele><time>2022-11-04T17:16:24.0000000+00:00</time></trkpt><trkpt lat="39.46131525" lon="-0.35833458"><ele>-3.2</ele><time>2022-11-04T17:16:25.0000000+00:00</time></trkpt><trkpt lat="39.46132665" lon="-0.35832929"><ele>-3.4</ele><time>2022-11-04T17:16:26.0000000+00:00</time></trkpt><trkpt lat="39.46134039" lon="-0.3583267"><ele>-3.4</ele><time>2022-11-04T17:16:27.0000000+00:00</time></trkpt><trkpt lat="39.46135297" lon="-0.35832217"><ele>-3.4</ele><time>2022-11-04T17:16:28.0000000+00:00</time></trkpt><trkpt lat="39.46136428" lon="-0.35831488"><ele>-3.4</ele><time>2022-11-04T17:16:29.0000000+00:00</time></trkpt><trkpt lat="39.4613766" lon="-0.35830826"><ele>-3.4</ele><time>2022-11-04T17:16:30.0000000+00:00</time></trkpt><trkpt lat="39.46138976" lon="-0.35830004"><ele>-3.4</ele><time>2022-11-04T17:16:31.0000000+00:00</time></trkpt><trkpt lat="39.4613994" lon="-0.35829258"><ele>-3.6</ele><time>2022-11-04T17:16:32.0000000+00:00</time></trkpt><trkpt lat="39.46140854" lon="-0.35828596"><ele>-3.6</ele><time>2022-11-04T17:16:33.0000000+00:00</time></trkpt><trkpt lat="39.4614222" lon="-0.35828001"><ele>-3.6</ele><time>2022-11-04T17:16:34.0000000+00:00</time></trkpt><trkpt lat="39.46143402" lon="-0.35827724"><ele>-3.6</ele><time>2022-11-04T17:16:35.0000000+00:00</time></trkpt><trkpt lat="39.46144114" lon="-0.35827708"><ele>-3.6</ele><time>2022-11-04T17:16:36.0000000+00:00</time></trkpt><trkpt lat="39.4614502" lon="-0.35827691"><ele>-3.6</ele><time>2022-11-04T17:16:37.0000000+00:00</time></trkpt><trkpt lat="39.46145766" lon="-0.3582723"><ele>-3.8</ele><time>2022-11-04T17:16:38.0000000+00:00</time></trkpt><trkpt lat="39.46146612" lon="-0.3582671"><ele>-3.8</ele><time>2022-11-04T17:16:39.0000000+00:00</time></trkpt><trkpt lat="39.46147744" lon="-0.35826107"><ele>-3.8</ele><time>2022-11-04T17:16:40.0000000+00:00</time></trkpt><trkpt lat="39.46148532" lon="-0.35825495"><ele>-4.0</ele><time>2022-11-04T17:16:41.0000000+00:00</time></trkpt><trkpt lat="39.46148397" lon="-0.35825662"><ele>-4.0</ele><time>2022-11-04T17:16:42.0000000+00:00</time></trkpt><trkpt lat="39.46148699" lon="-0.35826123"><ele>-4.0</ele><time>2022-11-04T17:16:43.0000000+00:00</time></trkpt><trkpt lat="39.46149437" lon="-0.35826459"><ele>-4.0</ele><time>2022-11-04T17:16:44.0000000+00:00</time></trkpt><trkpt lat="39.46150652" lon="-0.35827054"><ele>-3.8</ele><time>2022-11-04T17:16:45.0000000+00:00</time></trkpt><trkpt lat="39.46151909" lon="-0.35827766"><ele>-3.8</ele><time>2022-11-04T17:16:46.0000000+00:00</time></trkpt><trkpt lat="39.46154131" lon="-0.35827213"><ele>-3.8</ele><time>2022-11-04T17:16:47.0000000+00:00</time></trkpt><trkpt lat="39.46157768" lon="-0.35825855"><ele>-3.8</ele><time>2022-11-04T17:16:48.0000000+00:00</time></trkpt><trkpt lat="39.46160392" lon="-0.3582531"><ele>-3.8</ele><time>2022-11-04T17:16:49.0000000+00:00</time></trkpt><trkpt lat="39.46162865" lon="-0.3582671"><ele>-3.8</ele><time>2022-11-04T17:16:50.0000000+00:00</time></trkpt><trkpt lat="39.46164046" lon="-0.35828604"><ele>-3.8</ele><time>2022-11-04T17:16:51.0000000+00:00</time></trkpt><trkpt lat="39.46165505" lon="-0.35830197"><ele>-4.0</ele><time>2022-11-04T17:16:52.0000000+00:00</time></trkpt><trkpt lat="39.4616662" lon="-0.35831731"><ele>-4.0</ele><time>2022-11-04T17:16:53.0000000+00:00</time></trkpt><trkpt lat="39.46168372" lon="-0.35833969"><ele>-4.0</ele><time>2022-11-04T17:16:54.0000000+00:00</time></trkpt><trkpt lat="39.46169243" lon="-0.35835436"><ele>-4.0</ele><time>2022-11-04T17:16:55.0000000+00:00</time></trkpt><trkpt lat="39.46168732" lon="-0.35838587"><ele>-4.0</ele><time>2022-11-04T17:16:56.0000000+00:00</time></trkpt><trkpt lat="39.46169025" lon="-0.35838244"><ele>-4.0</ele><time>2022-11-04T17:16:57.0000000+00:00</time></trkpt><trkpt lat="39.46169151" lon="-0.3583904"><ele>-4.0</ele><time>2022-11-04T17:16:58.0000000+00:00</time></trkpt><trkpt lat="39.46169285" lon="-0.35839124"><ele>-4.0</ele><time>2022-11-04T17:16:59.0000000+00:00</time></trkpt><trkpt lat="39.46169436" lon="-0.35838797"><ele>-4.0</ele><time>2022-11-04T17:17:00.0000000+00:00</time></trkpt><trkpt lat="39.46169134" lon="-0.35839099"><ele>-4.0</ele><time>2022-11-04T17:17:01.0000000+00:00</time></trkpt><trkpt lat="39.46169403" lon="-0.35837514"><ele>-4.2</ele><time>2022-11-04T17:17:02.0000000+00:00</time></trkpt><trkpt lat="39.46169922" lon="-0.35834044"><ele>-4.2</ele><time>2022-11-04T17:17:03.0000000+00:00</time></trkpt><trkpt lat="39.46170987" lon="-0.35831639"><ele>-4.2</ele><time>2022-11-04T17:17:04.0000000+00:00</time></trkpt><trkpt lat="39.46172428" lon="-0.35829937"><ele>-4.2</ele><time>2022-11-04T17:17:05.0000000+00:00</time></trkpt><trkpt lat="39.46173769" lon="-0.35828521"><ele>-4.2</ele><time>2022-11-04T17:17:06.0000000+00:00</time></trkpt><trkpt lat="39.46175211" lon="-0.35827448"><ele>-4.2</ele><time>2022-11-04T17:17:07.0000000+00:00</time></trkpt><trkpt lat="39.46176343" lon="-0.35826475"><ele>-4.0</ele><time>2022-11-04T17:17:08.0000000+00:00</time></trkpt><trkpt lat="39.46177105" lon="-0.35825947"><ele>-4.0</ele><time>2022-11-04T17:17:09.0000000+00:00</time></trkpt><trkpt lat="39.46177759" lon="-0.35825562"><ele>-4.0</ele><time>2022-11-04T17:17:10.0000000+00:00</time></trkpt><trkpt lat="39.46178371" lon="-0.35825394"><ele>-4.0</ele><time>2022-11-04T17:17:11.0000000+00:00</time></trkpt><trkpt lat="39.46178899" lon="-0.35825553"><ele>-4.0</ele><time>2022-11-04T17:17:12.0000000+00:00</time></trkpt><trkpt lat="39.46179561" lon="-0.35825729"><ele>-4.0</ele><time>2022-11-04T17:17:13.0000000+00:00</time></trkpt><trkpt lat="39.46180718" lon="-0.3582609"><ele>-4.0</ele><time>2022-11-04T17:17:14.0000000+00:00</time></trkpt><trkpt lat="39.46181799" lon="-0.35826459"><ele>-4.2</ele><time>2022-11-04T17:17:15.0000000+00:00</time></trkpt><trkpt lat="39.4618257" lon="-0.35826945"><ele>-4.2</ele><time>2022-11-04T17:17:16.0000000+00:00</time></trkpt><trkpt lat="39.46183476" lon="-0.35827682"><ele>-4.4</ele><time>2022-11-04T17:17:17.0000000+00:00</time></trkpt><trkpt lat="39.46184641" lon="-0.35828521"><ele>-4.4</ele><time>2022-11-04T17:17:18.0000000+00:00</time></trkpt><trkpt lat="39.46186099" lon="-0.35829443"><ele>-4.4</ele><time>2022-11-04T17:17:19.0000000+00:00</time></trkpt><trkpt lat="39.46187055" lon="-0.3582992"><ele>-4.4</ele><time>2022-11-04T17:17:20.0000000+00:00</time></trkpt><trkpt lat="39.46188287" lon="-0.35830205"><ele>-4.4</ele><time>2022-11-04T17:17:21.0000000+00:00</time></trkpt><trkpt lat="39.46189812" lon="-0.3583008"><ele>-4.4</ele><time>2022-11-04T17:17:22.0000000+00:00</time></trkpt><trkpt lat="39.46191304" lon="-0.35830633"><ele>-4.4</ele><time>2022-11-04T17:17:23.0000000+00:00</time></trkpt><trkpt lat="39.46192654" lon="-0.35830968"><ele>-4.2</ele><time>2022-11-04T17:17:24.0000000+00:00</time></trkpt><trkpt lat="39.46193894" lon="-0.35830398"><ele>-4.4</ele><time>2022-11-04T17:17:25.0000000+00:00</time></trkpt><trkpt lat="39.46195655" lon="-0.35831622"><ele>-4.4</ele><time>2022-11-04T17:17:26.0000000+00:00</time></trkpt><trkpt lat="39.46197214" lon="-0.35832418"><ele>-4.4</ele><time>2022-11-04T17:17:27.0000000+00:00</time></trkpt><trkpt lat="39.46199125" lon="-0.35832393"><ele>-4.4</ele><time>2022-11-04T17:17:28.0000000+00:00</time></trkpt><trkpt lat="39.46200449" lon="-0.35833072"><ele>-4.4</ele><time>2022-11-04T17:17:29.0000000+00:00</time></trkpt><trkpt lat="39.46201329" lon="-0.35834204"><ele>-4.4</ele><time>2022-11-04T17:17:30.0000000+00:00</time></trkpt><trkpt lat="39.46202419" lon="-0.35835276"><ele>-4.4</ele><time>2022-11-04T17:17:31.0000000+00:00</time></trkpt><trkpt lat="39.46203785" lon="-0.35835922"><ele>-4.4</ele><time>2022-11-04T17:17:32.0000000+00:00</time></trkpt><trkpt lat="39.46205679" lon="-0.35836408"><ele>-4.4</ele><time>2022-11-04T17:17:33.0000000+00:00</time></trkpt><trkpt lat="39.46206761" lon="-0.35836852"><ele>-4.2</ele><time>2022-11-04T17:17:34.0000000+00:00</time></trkpt><trkpt lat="39.46207867" lon="-0.35837028"><ele>-4.2</ele><time>2022-11-04T17:17:35.0000000+00:00</time></trkpt><trkpt lat="39.46209032" lon="-0.35837757"><ele>-4.2</ele><time>2022-11-04T17:17:36.0000000+00:00</time></trkpt><trkpt lat="39.46209921" lon="-0.35838311"><ele>-4.2</ele><time>2022-11-04T17:17:37.0000000+00:00</time></trkpt><trkpt lat="39.46210935" lon="-0.35839191"><ele>-4.0</ele><time>2022-11-04T17:17:38.0000000+00:00</time></trkpt><trkpt lat="39.46212008" lon="-0.3584049"><ele>-4.0</ele><time>2022-11-04T17:17:39.0000000+00:00</time></trkpt><trkpt lat="39.46212754" lon="-0.35841378"><ele>-4.0</ele><time>2022-11-04T17:17:40.0000000+00:00</time></trkpt><trkpt lat="39.46213818" lon="-0.35842409"><ele>-4.0</ele><time>2022-11-04T17:17:41.0000000+00:00</time></trkpt><trkpt lat="39.46214967" lon="-0.35843792"><ele>-4.0</ele><time>2022-11-04T17:17:42.0000000+00:00</time></trkpt><trkpt lat="39.46215578" lon="-0.3584489"><ele>-4.0</ele><time>2022-11-04T17:17:43.0000000+00:00</time></trkpt><trkpt lat="39.46216643" lon="-0.35846273"><ele>-4.0</ele><time>2022-11-04T17:17:44.0000000+00:00</time></trkpt><trkpt lat="39.46217691" lon="-0.35847128"><ele>-4.0</ele><time>2022-11-04T17:17:45.0000000+00:00</time></trkpt><trkpt lat="39.46218973" lon="-0.35848394"><ele>-4.0</ele><time>2022-11-04T17:17:46.0000000+00:00</time></trkpt><trkpt lat="39.46219929" lon="-0.35849618"><ele>-4.0</ele><time>2022-11-04T17:17:47.0000000+00:00</time></trkpt><trkpt lat="39.46220893" lon="-0.35850381"><ele>-4.0</ele><time>2022-11-04T17:17:48.0000000+00:00</time></trkpt><trkpt lat="39.4622184" lon="-0.35851269"><ele>-4.0</ele><time>2022-11-04T17:17:49.0000000+00:00</time></trkpt><trkpt lat="39.46222787" lon="-0.35852099"><ele>-3.8</ele><time>2022-11-04T17:17:50.0000000+00:00</time></trkpt><trkpt lat="39.46223466" lon="-0.35853138"><ele>-3.8</ele><time>2022-11-04T17:17:51.0000000+00:00</time></trkpt><trkpt lat="39.46224069" lon="-0.35854479"><ele>-3.8</ele><time>2022-11-04T17:17:52.0000000+00:00</time></trkpt><trkpt lat="39.46225293" lon="-0.35855628"><ele>-3.8</ele><time>2022-11-04T17:17:53.0000000+00:00</time></trkpt><trkpt lat="39.4622686" lon="-0.35857019"><ele>-4.0</ele><time>2022-11-04T17:17:54.0000000+00:00</time></trkpt><trkpt lat="39.462279" lon="-0.35857991"><ele>-4.0</ele><time>2022-11-04T17:17:55.0000000+00:00</time></trkpt><trkpt lat="39.46228939" lon="-0.35859265"><ele>-4.0</ele><time>2022-11-04T17:17:56.0000000+00:00</time></trkpt><trkpt lat="39.46229677" lon="-0.35859953"><ele>-4.0</ele><time>2022-11-04T17:17:57.0000000+00:00</time></trkpt><trkpt lat="39.46230691" lon="-0.35860749"><ele>-4.0</ele><time>2022-11-04T17:17:58.0000000+00:00</time></trkpt><trkpt lat="39.46231873" lon="-0.35861797"><ele>-3.8</ele><time>2022-11-04T17:17:59.0000000+00:00</time></trkpt><trkpt lat="39.46232619" lon="-0.3586328"><ele>-3.8</ele><time>2022-11-04T17:18:00.0000000+00:00</time></trkpt><trkpt lat="39.46233147" lon="-0.35864655"><ele>-3.8</ele><time>2022-11-04T17:18:01.0000000+00:00</time></trkpt><trkpt lat="39.4623339" lon="-0.35866046"><ele>-3.8</ele><time>2022-11-04T17:18:02.0000000+00:00</time></trkpt><trkpt lat="39.46233516" lon="-0.35867337"><ele>-3.8</ele><time>2022-11-04T17:18:03.0000000+00:00</time></trkpt><trkpt lat="39.46233742" lon="-0.35868695"><ele>-3.8</ele><time>2022-11-04T17:18:04.0000000+00:00</time></trkpt><trkpt lat="39.46233683" lon="-0.35869927"><ele>-3.8</ele><time>2022-11-04T17:18:05.0000000+00:00</time></trkpt><trkpt lat="39.46234077" lon="-0.35870665"><ele>-3.8</ele><time>2022-11-04T17:18:06.0000000+00:00</time></trkpt><trkpt lat="39.46235058" lon="-0.35871285"><ele>-3.8</ele><time>2022-11-04T17:18:07.0000000+00:00</time></trkpt><trkpt lat="39.46235729" lon="-0.35871654"><ele>-4.0</ele><time>2022-11-04T17:18:08.0000000+00:00</time></trkpt><trkpt lat="39.4623707" lon="-0.35872132"><ele>-4.0</ele><time>2022-11-04T17:18:09.0000000+00:00</time></trkpt><trkpt lat="39.46238034" lon="-0.35872668"><ele>-4.0</ele><time>2022-11-04T17:18:10.0000000+00:00</time></trkpt><trkpt lat="39.4623893" lon="-0.35873464"><ele>-3.8</ele><time>2022-11-04T17:18:11.0000000+00:00</time></trkpt><trkpt lat="39.46240221" lon="-0.35873833"><ele>-3.8</ele><time>2022-11-04T17:18:12.0000000+00:00</time></trkpt><trkpt lat="39.46241646" lon="-0.35873431"><ele>-3.8</ele><time>2022-11-04T17:18:13.0000000+00:00</time></trkpt><trkpt lat="39.4624323" lon="-0.35873431"><ele>-3.6</ele><time>2022-11-04T17:18:14.0000000+00:00</time></trkpt><trkpt lat="39.46244697" lon="-0.35874135"><ele>-3.6</ele><time>2022-11-04T17:18:15.0000000+00:00</time></trkpt><trkpt lat="39.46245628" lon="-0.35875158"><ele>-3.6</ele><time>2022-11-04T17:18:16.0000000+00:00</time></trkpt><trkpt lat="39.46246726" lon="-0.35876666"><ele>-3.8</ele><time>2022-11-04T17:18:17.0000000+00:00</time></trkpt><trkpt lat="39.46248192" lon="-0.35877043"><ele>-4.0</ele><time>2022-11-04T17:18:18.0000000+00:00</time></trkpt><trkpt lat="39.46249064" lon="-0.35877932"><ele>-4.0</ele><time>2022-11-04T17:18:19.0000000+00:00</time></trkpt><trkpt lat="39.4624986" lon="-0.35879625"><ele>-4.0</ele><time>2022-11-04T17:18:20.0000000+00:00</time></trkpt><trkpt lat="39.46251327" lon="-0.35881595"><ele>-4.0</ele><time>2022-11-04T17:18:21.0000000+00:00</time></trkpt><trkpt lat="39.46252258" lon="-0.35882601"><ele>-4.2</ele><time>2022-11-04T17:18:22.0000000+00:00</time></trkpt><trkpt lat="39.46254387" lon="-0.35883456"><ele>-4.2</ele><time>2022-11-04T17:18:23.0000000+00:00</time></trkpt><trkpt lat="39.46255895" lon="-0.35884344"><ele>-4.2</ele><time>2022-11-04T17:18:24.0000000+00:00</time></trkpt><trkpt lat="39.4625665" lon="-0.35884964"><ele>-4.2</ele><time>2022-11-04T17:18:25.0000000+00:00</time></trkpt><trkpt lat="39.46258083" lon="-0.35886104"><ele>-4.2</ele><time>2022-11-04T17:18:26.0000000+00:00</time></trkpt><trkpt lat="39.46259483" lon="-0.35887328"><ele>-4.2</ele><time>2022-11-04T17:18:27.0000000+00:00</time></trkpt><trkpt lat="39.46261235" lon="-0.35888602"><ele>-4.2</ele><time>2022-11-04T17:18:28.0000000+00:00</time></trkpt><trkpt lat="39.46262408" lon="-0.35889784"><ele>-4.2</ele><time>2022-11-04T17:18:29.0000000+00:00</time></trkpt><trkpt lat="39.46263364" lon="-0.35890706"><ele>-4.2</ele><time>2022-11-04T17:18:30.0000000+00:00</time></trkpt><trkpt lat="39.4626468" lon="-0.35891863"><ele>-4.2</ele><time>2022-11-04T17:18:31.0000000+00:00</time></trkpt><trkpt lat="39.46265727" lon="-0.35892651"><ele>-4.2</ele><time>2022-11-04T17:18:32.0000000+00:00</time></trkpt><trkpt lat="39.46266834" lon="-0.35893472"><ele>-4.2</ele><time>2022-11-04T17:18:33.0000000+00:00</time></trkpt><trkpt lat="39.4626789" lon="-0.35894034"><ele>-4.2</ele><time>2022-11-04T17:18:34.0000000+00:00</time></trkpt><trkpt lat="39.46269114" lon="-0.35894721"><ele>-4.2</ele><time>2022-11-04T17:18:35.0000000+00:00</time></trkpt><trkpt lat="39.46269692" lon="-0.35895132"><ele>-4.2</ele><time>2022-11-04T17:18:36.0000000+00:00</time></trkpt><trkpt lat="39.46270111" lon="-0.35896163"><ele>-4.2</ele><time>2022-11-04T17:18:37.0000000+00:00</time></trkpt><trkpt lat="39.46270547" lon="-0.35897018"><ele>-4.4</ele><time>2022-11-04T17:18:38.0000000+00:00</time></trkpt><trkpt lat="39.46271226" lon="-0.3589752"><ele>-4.4</ele><time>2022-11-04T17:18:39.0000000+00:00</time></trkpt><trkpt lat="39.46271796" lon="-0.35897604"><ele>-4.4</ele><time>2022-11-04T17:18:40.0000000+00:00</time></trkpt><trkpt lat="39.46272525" lon="-0.35898057"><ele>-4.4</ele><time>2022-11-04T17:18:41.0000000+00:00</time></trkpt><trkpt lat="39.46273539" lon="-0.35898811"><ele>-4.4</ele><time>2022-11-04T17:18:42.0000000+00:00</time></trkpt><trkpt lat="39.46274679" lon="-0.35899859"><ele>-4.4</ele><time>2022-11-04T17:18:43.0000000+00:00</time></trkpt><trkpt lat="39.46275769" lon="-0.3590053"><ele>-4.4</ele><time>2022-11-04T17:18:44.0000000+00:00</time></trkpt><trkpt lat="39.46276817" lon="-0.35900815"><ele>-4.4</ele><time>2022-11-04T17:18:45.0000000+00:00</time></trkpt><trkpt lat="39.46277982" lon="-0.35901217"><ele>-4.4</ele><time>2022-11-04T17:18:46.0000000+00:00</time></trkpt><trkpt lat="39.46279063" lon="-0.35902013"><ele>-4.4</ele><time>2022-11-04T17:18:47.0000000+00:00</time></trkpt><trkpt lat="39.46280086" lon="-0.35902784"><ele>-4.4</ele><time>2022-11-04T17:18:48.0000000+00:00</time></trkpt><trkpt lat="39.46280974" lon="-0.35903488"><ele>-4.4</ele><time>2022-11-04T17:18:49.0000000+00:00</time></trkpt><trkpt lat="39.46282013" lon="-0.35904612"><ele>-4.4</ele><time>2022-11-04T17:18:50.0000000+00:00</time></trkpt><trkpt lat="39.46283111" lon="-0.35905978"><ele>-4.4</ele><time>2022-11-04T17:18:51.0000000+00:00</time></trkpt><trkpt lat="39.46284528" lon="-0.35907042"><ele>-4.2</ele><time>2022-11-04T17:18:52.0000000+00:00</time></trkpt><trkpt lat="39.46285802" lon="-0.35908031"><ele>-4.2</ele><time>2022-11-04T17:18:53.0000000+00:00</time></trkpt><trkpt lat="39.46286774" lon="-0.35909255"><ele>-4.2</ele><time>2022-11-04T17:18:54.0000000+00:00</time></trkpt><trkpt lat="39.46287612" lon="-0.35910219"><ele>-4.2</ele><time>2022-11-04T17:18:55.0000000+00:00</time></trkpt><trkpt lat="39.46289079" lon="-0.35911074"><ele>-4.2</ele><time>2022-11-04T17:18:56.0000000+00:00</time></trkpt><trkpt lat="39.46290747" lon="-0.35911711"><ele>-4.2</ele><time>2022-11-04T17:18:57.0000000+00:00</time></trkpt><trkpt lat="39.46292088" lon="-0.35912306"><ele>-4.2</ele><time>2022-11-04T17:18:58.0000000+00:00</time></trkpt><trkpt lat="39.46293337" lon="-0.3591291"><ele>-4.2</ele><time>2022-11-04T17:18:59.0000000+00:00</time></trkpt><trkpt lat="39.46295014" lon="-0.35913438"><ele>-4.2</ele><time>2022-11-04T17:19:00.0000000+00:00</time></trkpt><trkpt lat="39.46295978" lon="-0.35913714"><ele>-4.2</ele><time>2022-11-04T17:19:01.0000000+00:00</time></trkpt><trkpt lat="39.46297176" lon="-0.35914033"><ele>-4.2</ele><time>2022-11-04T17:19:02.0000000+00:00</time></trkpt><trkpt lat="39.46298727" lon="-0.35914024"><ele>-4.2</ele><time>2022-11-04T17:19:03.0000000+00:00</time></trkpt><trkpt lat="39.46300085" lon="-0.35914284"><ele>-4.0</ele><time>2022-11-04T17:19:04.0000000+00:00</time></trkpt><trkpt lat="39.46301325" lon="-0.35914804"><ele>-4.0</ele><time>2022-11-04T17:19:05.0000000+00:00</time></trkpt><trkpt lat="39.46302759" lon="-0.35915592"><ele>-4.0</ele><time>2022-11-04T17:19:06.0000000+00:00</time></trkpt><trkpt lat="39.46304066" lon="-0.35916531"><ele>-4.0</ele><time>2022-11-04T17:19:07.0000000+00:00</time></trkpt><trkpt lat="39.46305307" lon="-0.35917914"><ele>-3.8</ele><time>2022-11-04T17:19:08.0000000+00:00</time></trkpt><trkpt lat="39.46306706" lon="-0.35919322"><ele>-3.8</ele><time>2022-11-04T17:19:09.0000000+00:00</time></trkpt><trkpt lat="39.46307855" lon="-0.35920219"><ele>-3.8</ele><time>2022-11-04T17:19:10.0000000+00:00</time></trkpt><trkpt lat="39.46308877" lon="-0.35920906"><ele>-3.8</ele><time>2022-11-04T17:19:11.0000000+00:00</time></trkpt><trkpt lat="39.4630969" lon="-0.35921451"><ele>-3.8</ele><time>2022-11-04T17:19:12.0000000+00:00</time></trkpt><trkpt lat="39.46310663" lon="-0.35921929"><ele>-4.0</ele><time>2022-11-04T17:19:13.0000000+00:00</time></trkpt><trkpt lat="39.46311576" lon="-0.35921845"><ele>-4.0</ele><time>2022-11-04T17:19:14.0000000+00:00</time></trkpt><trkpt lat="39.46313102" lon="-0.3592182"><ele>-4.2</ele><time>2022-11-04T17:19:15.0000000+00:00</time></trkpt><trkpt lat="39.46314661" lon="-0.35921635"><ele>-4.2</ele><time>2022-11-04T17:19:16.0000000+00:00</time></trkpt><trkpt lat="39.46316262" lon="-0.35921493"><ele>-4.2</ele><time>2022-11-04T17:19:17.0000000+00:00</time></trkpt><trkpt lat="39.46317854" lon="-0.35921007"><ele>-4.2</ele><time>2022-11-04T17:19:18.0000000+00:00</time></trkpt><trkpt lat="39.46318902" lon="-0.35920571"><ele>-4.2</ele><time>2022-11-04T17:19:19.0000000+00:00</time></trkpt><trkpt lat="39.46320226" lon="-0.35920386"><ele>-4.2</ele><time>2022-11-04T17:19:20.0000000+00:00</time></trkpt><trkpt lat="39.46322582" lon="-0.35920587"><ele>-4.2</ele><time>2022-11-04T17:19:21.0000000+00:00</time></trkpt><trkpt lat="39.46324166" lon="-0.35920587"><ele>-4.2</ele><time>2022-11-04T17:19:22.0000000+00:00</time></trkpt><trkpt lat="39.46325239" lon="-0.35921216"><ele>-4.2</ele><time>2022-11-04T17:19:23.0000000+00:00</time></trkpt><trkpt lat="39.46326689" lon="-0.35921803"><ele>-4.2</ele><time>2022-11-04T17:19:24.0000000+00:00</time></trkpt><trkpt lat="39.46328449" lon="-0.35922457"><ele>-4.2</ele><time>2022-11-04T17:19:25.0000000+00:00</time></trkpt><trkpt lat="39.46329857" lon="-0.359228"><ele>-4.4</ele><time>2022-11-04T17:19:26.0000000+00:00</time></trkpt><trkpt lat="39.46331224" lon="-0.35923496"><ele>-4.4</ele><time>2022-11-04T17:19:27.0000000+00:00</time></trkpt><trkpt lat="39.46332095" lon="-0.35924049"><ele>-4.4</ele><time>2022-11-04T17:19:28.0000000+00:00</time></trkpt><trkpt lat="39.46333017" lon="-0.35924426"><ele>-4.4</ele><time>2022-11-04T17:19:29.0000000+00:00</time></trkpt><trkpt lat="39.46333973" lon="-0.35924703"><ele>-4.4</ele><time>2022-11-04T17:19:30.0000000+00:00</time></trkpt><trkpt lat="39.46335532" lon="-0.35925809"><ele>-4.4</ele><time>2022-11-04T17:19:31.0000000+00:00</time></trkpt><trkpt lat="39.46335658" lon="-0.35927033"><ele>-4.4</ele><time>2022-11-04T17:19:32.0000000+00:00</time></trkpt><trkpt lat="39.46335934" lon="-0.35926731"><ele>-4.4</ele><time>2022-11-04T17:19:33.0000000+00:00</time></trkpt><trkpt lat="39.46336127" lon="-0.35926002"><ele>-4.4</ele><time>2022-11-04T17:19:34.0000000+00:00</time></trkpt><trkpt lat="39.46336362" lon="-0.35925164"><ele>-4.4</ele><time>2022-11-04T17:19:35.0000000+00:00</time></trkpt><trkpt lat="39.46376955" lon="-0.35945088"><ele>-4.4</ele><time>2022-11-04T17:19:57.0000000+00:00</time></trkpt><trkpt lat="39.46375991" lon="-0.35945616"><ele>-4.4</ele><time>2022-11-04T17:19:58.0000000+00:00</time></trkpt><trkpt lat="39.46375337" lon="-0.35944501"><ele>-4.4</ele><time>2022-11-04T17:19:59.0000000+00:00</time></trkpt><trkpt lat="39.46375815" lon="-0.35946068"><ele>-4.4</ele><time>2022-11-04T17:20:00.0000000+00:00</time></trkpt><trkpt lat="39.46378565" lon="-0.35945448"><ele>-4.4</ele><time>2022-11-04T17:20:01.0000000+00:00</time></trkpt><trkpt lat="39.46379419" lon="-0.35946412"><ele>-4.4</ele><time>2022-11-04T17:20:02.0000000+00:00</time></trkpt><trkpt lat="39.46380543" lon="-0.35946613"><ele>-4.4</ele><time>2022-11-04T17:20:03.0000000+00:00</time></trkpt><trkpt lat="39.46381733" lon="-0.35946689"><ele>-4.4</ele><time>2022-11-04T17:20:04.0000000+00:00</time></trkpt><trkpt lat="39.46383275" lon="-0.35946261"><ele>-4.4</ele><time>2022-11-04T17:20:05.0000000+00:00</time></trkpt><trkpt lat="39.46384314" lon="-0.35946144"><ele>-4.4</ele><time>2022-11-04T17:20:06.0000000+00:00</time></trkpt><trkpt lat="39.4638558" lon="-0.35945758"><ele>-4.4</ele><time>2022-11-04T17:20:07.0000000+00:00</time></trkpt><trkpt lat="39.46386997" lon="-0.35945599"><ele>-4.4</ele><time>2022-11-04T17:20:08.0000000+00:00</time></trkpt><trkpt lat="39.46388581" lon="-0.35945063"><ele>-4.4</ele><time>2022-11-04T17:20:09.0000000+00:00</time></trkpt><trkpt lat="39.46390132" lon="-0.35945138"><ele>-4.4</ele><time>2022-11-04T17:20:10.0000000+00:00</time></trkpt><trkpt lat="39.4639159" lon="-0.359458"><ele>-4.4</ele><time>2022-11-04T17:20:11.0000000+00:00</time></trkpt><trkpt lat="39.46393459" lon="-0.35946479"><ele>-4.4</ele><time>2022-11-04T17:20:12.0000000+00:00</time></trkpt><trkpt lat="39.46394892" lon="-0.35947066"><ele>-4.4</ele><time>2022-11-04T17:20:13.0000000+00:00</time></trkpt><trkpt lat="39.46396804" lon="-0.35948549"><ele>-4.4</ele><time>2022-11-04T17:20:14.0000000+00:00</time></trkpt><trkpt lat="39.46397969" lon="-0.35949413"><ele>-4.4</ele><time>2022-11-04T17:20:15.0000000+00:00</time></trkpt><trkpt lat="39.46399025" lon="-0.35949731"><ele>-4.4</ele><time>2022-11-04T17:20:16.0000000+00:00</time></trkpt><trkpt lat="39.46400148" lon="-0.35950301"><ele>-4.4</ele><time>2022-11-04T17:20:17.0000000+00:00</time></trkpt><trkpt lat="39.46401682" lon="-0.35951089"><ele>-4.4</ele><time>2022-11-04T17:20:18.0000000+00:00</time></trkpt><trkpt lat="39.4640273" lon="-0.35951642"><ele>-4.4</ele><time>2022-11-04T17:20:19.0000000+00:00</time></trkpt><trkpt lat="39.46403668" lon="-0.35952129"><ele>-4.4</ele><time>2022-11-04T17:20:20.0000000+00:00</time></trkpt><trkpt lat="39.46404473" lon="-0.35952338"><ele>-4.4</ele><time>2022-11-04T17:20:21.0000000+00:00</time></trkpt><trkpt lat="39.46405672" lon="-0.35952891"><ele>-4.4</ele><time>2022-11-04T17:20:22.0000000+00:00</time></trkpt><trkpt lat="39.46407029" lon="-0.35953377"><ele>-4.6</ele><time>2022-11-04T17:20:23.0000000+00:00</time></trkpt><trkpt lat="39.46408656" lon="-0.35954073"><ele>-4.6</ele><time>2022-11-04T17:20:24.0000000+00:00</time></trkpt><trkpt lat="39.46410407" lon="-0.35954601"><ele>-4.6</ele><time>2022-11-04T17:20:25.0000000+00:00</time></trkpt><trkpt lat="39.46412159" lon="-0.35954769"><ele>-4.6</ele><time>2022-11-04T17:20:26.0000000+00:00</time></trkpt><trkpt lat="39.46413509" lon="-0.35954886"><ele>-4.6</ele><time>2022-11-04T17:20:27.0000000+00:00</time></trkpt><trkpt lat="39.46414691" lon="-0.35955465"><ele>-4.4</ele><time>2022-11-04T17:20:28.0000000+00:00</time></trkpt><trkpt lat="39.46416199" lon="-0.35956437"><ele>-4.4</ele><time>2022-11-04T17:20:29.0000000+00:00</time></trkpt><trkpt lat="39.46417566" lon="-0.35957661"><ele>-4.4</ele><time>2022-11-04T17:20:30.0000000+00:00</time></trkpt><trkpt lat="39.46418739" lon="-0.35958616"><ele>-4.4</ele><time>2022-11-04T17:20:31.0000000+00:00</time></trkpt><trkpt lat="39.46420097" lon="-0.35959899"><ele>-4.4</ele><time>2022-11-04T17:20:32.0000000+00:00</time></trkpt><trkpt lat="39.46421363" lon="-0.35960963"><ele>-4.4</ele><time>2022-11-04T17:20:33.0000000+00:00</time></trkpt><trkpt lat="39.46422796" lon="-0.35962162"><ele>-4.4</ele><time>2022-11-04T17:20:34.0000000+00:00</time></trkpt><trkpt lat="39.46424363" lon="-0.35963159"><ele>-4.4</ele><time>2022-11-04T17:20:35.0000000+00:00</time></trkpt><trkpt lat="39.46426006" lon="-0.35963872"><ele>-4.4</ele><time>2022-11-04T17:20:36.0000000+00:00</time></trkpt><trkpt lat="39.46427096" lon="-0.35964374"><ele>-4.4</ele><time>2022-11-04T17:20:37.0000000+00:00</time></trkpt><trkpt lat="39.46428319" lon="-0.35964928"><ele>-4.4</ele><time>2022-11-04T17:20:38.0000000+00:00</time></trkpt><trkpt lat="39.46429392" lon="-0.35965498"><ele>-4.4</ele><time>2022-11-04T17:20:39.0000000+00:00</time></trkpt><trkpt lat="39.46430683" lon="-0.35966001"><ele>-4.4</ele><time>2022-11-04T17:20:40.0000000+00:00</time></trkpt><trkpt lat="39.46431228" lon="-0.35967048"><ele>-4.4</ele><time>2022-11-04T17:20:41.0000000+00:00</time></trkpt><trkpt lat="39.46432217" lon="-0.35968239"><ele>-4.4</ele><time>2022-11-04T17:20:42.0000000+00:00</time></trkpt><trkpt lat="39.46433508" lon="-0.35969278"><ele>-4.4</ele><time>2022-11-04T17:20:43.0000000+00:00</time></trkpt><trkpt lat="39.46434623" lon="-0.35969605"><ele>-4.4</ele><time>2022-11-04T17:20:44.0000000+00:00</time></trkpt><trkpt lat="39.46435997" lon="-0.3597015"><ele>-4.2</ele><time>2022-11-04T17:20:45.0000000+00:00</time></trkpt><trkpt lat="39.46437473" lon="-0.35970661"><ele>-4.2</ele><time>2022-11-04T17:20:46.0000000+00:00</time></trkpt><trkpt lat="39.4643873" lon="-0.35971222"><ele>-4.2</ele><time>2022-11-04T17:20:47.0000000+00:00</time></trkpt><trkpt lat="39.46439719" lon="-0.35971214"><ele>-4.2</ele><time>2022-11-04T17:20:48.0000000+00:00</time></trkpt><trkpt lat="39.46440607" lon="-0.35971189"><ele>-4.2</ele><time>2022-11-04T17:20:49.0000000+00:00</time></trkpt><trkpt lat="39.4644194" lon="-0.35971642"><ele>-4.2</ele><time>2022-11-04T17:20:50.0000000+00:00</time></trkpt><trkpt lat="39.46443013" lon="-0.35972513"><ele>-4.2</ele><time>2022-11-04T17:20:51.0000000+00:00</time></trkpt><trkpt lat="39.46445008" lon="-0.35973175"><ele>-4.2</ele><time>2022-11-04T17:20:52.0000000+00:00</time></trkpt><trkpt lat="39.46446123" lon="-0.35973159"><ele>-4.2</ele><time>2022-11-04T17:20:53.0000000+00:00</time></trkpt><trkpt lat="39.46447346" lon="-0.35973393"><ele>-4.2</ele><time>2022-11-04T17:20:54.0000000+00:00</time></trkpt><trkpt lat="39.46448595" lon="-0.35973544"><ele>-4.2</ele><time>2022-11-04T17:20:55.0000000+00:00</time></trkpt><trkpt lat="39.46450406" lon="-0.35973863"><ele>-4.2</ele><time>2022-11-04T17:20:56.0000000+00:00</time></trkpt><trkpt lat="39.4645173" lon="-0.35974324"><ele>-4.2</ele><time>2022-11-04T17:20:57.0000000+00:00</time></trkpt><trkpt lat="39.46453457" lon="-0.35974961"><ele>-4.2</ele><time>2022-11-04T17:20:58.0000000+00:00</time></trkpt><trkpt lat="39.46455033" lon="-0.35975581"><ele>-4.4</ele><time>2022-11-04T17:20:59.0000000+00:00</time></trkpt><trkpt lat="39.46455712" lon="-0.35976277"><ele>-4.4</ele><time>2022-11-04T17:21:00.0000000+00:00</time></trkpt><trkpt lat="39.46456298" lon="-0.35976453"><ele>-4.4</ele><time>2022-11-04T17:21:01.0000000+00:00</time></trkpt><trkpt lat="39.46457162" lon="-0.35977006"><ele>-4.4</ele><time>2022-11-04T17:21:02.0000000+00:00</time></trkpt><trkpt lat="39.46458427" lon="-0.35977559"><ele>-4.4</ele><time>2022-11-04T17:21:03.0000000+00:00</time></trkpt><trkpt lat="39.46459768" lon="-0.35977928"><ele>-4.4</ele><time>2022-11-04T17:21:04.0000000+00:00</time></trkpt><trkpt lat="39.46460674" lon="-0.35978875"><ele>-4.4</ele><time>2022-11-04T17:21:05.0000000+00:00</time></trkpt><trkpt lat="39.46462023" lon="-0.35979797"><ele>-4.4</ele><time>2022-11-04T17:21:06.0000000+00:00</time></trkpt><trkpt lat="39.46463163" lon="-0.359802"><ele>-4.2</ele><time>2022-11-04T17:21:07.0000000+00:00</time></trkpt><trkpt lat="39.46464219" lon="-0.35980803"><ele>-4.2</ele><time>2022-11-04T17:21:08.0000000+00:00</time></trkpt><trkpt lat="39.46466038" lon="-0.35981448"><ele>-4.2</ele><time>2022-11-04T17:21:09.0000000+00:00</time></trkpt><trkpt lat="39.46467178" lon="-0.35981993"><ele>-4.0</ele><time>2022-11-04T17:21:10.0000000+00:00</time></trkpt><trkpt lat="39.46468662" lon="-0.35982647"><ele>-4.0</ele><time>2022-11-04T17:21:11.0000000+00:00</time></trkpt><trkpt lat="39.46470103" lon="-0.35983175"><ele>-4.0</ele><time>2022-11-04T17:21:12.0000000+00:00</time></trkpt><trkpt lat="39.46471721" lon="-0.35983753"><ele>-4.0</ele><time>2022-11-04T17:21:13.0000000+00:00</time></trkpt><trkpt lat="39.4647297" lon="-0.35984131"><ele>-4.0</ele><time>2022-11-04T17:21:14.0000000+00:00</time></trkpt><trkpt lat="39.4647437" lon="-0.35984399"><ele>-4.2</ele><time>2022-11-04T17:21:15.0000000+00:00</time></trkpt><trkpt lat="39.46475417" lon="-0.35984734"><ele>-4.2</ele><time>2022-11-04T17:21:16.0000000+00:00</time></trkpt><trkpt lat="39.46476859" lon="-0.35985363"><ele>-4.2</ele><time>2022-11-04T17:21:17.0000000+00:00</time></trkpt><trkpt lat="39.46478217" lon="-0.35985941"><ele>-4.2</ele><time>2022-11-04T17:21:18.0000000+00:00</time></trkpt><trkpt lat="39.46479508" lon="-0.35986628"><ele>-4.2</ele><time>2022-11-04T17:21:19.0000000+00:00</time></trkpt><trkpt lat="39.46480556" lon="-0.35987198"><ele>-4.2</ele><time>2022-11-04T17:21:20.0000000+00:00</time></trkpt><trkpt lat="39.46481478" lon="-0.35988079"><ele>-4.2</ele><time>2022-11-04T17:21:21.0000000+00:00</time></trkpt><trkpt lat="39.46482433" lon="-0.35988623"><ele>-4.2</ele><time>2022-11-04T17:21:22.0000000+00:00</time></trkpt><trkpt lat="39.46483724" lon="-0.35989151"><ele>-4.2</ele><time>2022-11-04T17:21:23.0000000+00:00</time></trkpt><trkpt lat="39.46484981" lon="-0.35989889"><ele>-4.2</ele><time>2022-11-04T17:21:24.0000000+00:00</time></trkpt><trkpt lat="39.46486314" lon="-0.35990585"><ele>-4.2</ele><time>2022-11-04T17:21:25.0000000+00:00</time></trkpt><trkpt lat="39.4648758" lon="-0.35991247"><ele>-4.2</ele><time>2022-11-04T17:21:26.0000000+00:00</time></trkpt><trkpt lat="39.46488795" lon="-0.35992093"><ele>-4.2</ele><time>2022-11-04T17:21:27.0000000+00:00</time></trkpt><trkpt lat="39.46489709" lon="-0.35993502"><ele>-4.2</ele><time>2022-11-04T17:21:28.0000000+00:00</time></trkpt><trkpt lat="39.4649058" lon="-0.35994859"><ele>-4.2</ele><time>2022-11-04T17:21:29.0000000+00:00</time></trkpt><trkpt lat="39.46491435" lon="-0.35996351"><ele>-4.4</ele><time>2022-11-04T17:21:30.0000000+00:00</time></trkpt><trkpt lat="39.46492047" lon="-0.3599781"><ele>-4.4</ele><time>2022-11-04T17:21:31.0000000+00:00</time></trkpt><trkpt lat="39.46492961" lon="-0.35998757"><ele>-4.4</ele><time>2022-11-04T17:21:32.0000000+00:00</time></trkpt><trkpt lat="39.46494176" lon="-0.35999226"><ele>-4.6</ele><time>2022-11-04T17:21:33.0000000+00:00</time></trkpt><trkpt lat="39.46495333" lon="-0.35999889"><ele>-4.6</ele><time>2022-11-04T17:21:34.0000000+00:00</time></trkpt><trkpt lat="39.46496531" lon="-0.36000651"><ele>-4.6</ele><time>2022-11-04T17:21:35.0000000+00:00</time></trkpt><trkpt lat="39.46497831" lon="-0.36001548"><ele>-4.6</ele><time>2022-11-04T17:21:36.0000000+00:00</time></trkpt><trkpt lat="39.4649923" lon="-0.36002269"><ele>-4.6</ele><time>2022-11-04T17:21:37.0000000+00:00</time></trkpt><trkpt lat="39.46500731" lon="-0.36003912"><ele>-4.8</ele><time>2022-11-04T17:21:38.0000000+00:00</time></trkpt><trkpt lat="39.46502172" lon="-0.36005144"><ele>-4.8</ele><time>2022-11-04T17:21:39.0000000+00:00</time></trkpt><trkpt lat="39.46503715" lon="-0.36006167"><ele>-4.6</ele><time>2022-11-04T17:21:40.0000000+00:00</time></trkpt><trkpt lat="39.46505374" lon="-0.36007734"><ele>-4.4</ele><time>2022-11-04T17:21:41.0000000+00:00</time></trkpt><trkpt lat="39.46506883" lon="-0.36009092"><ele>-4.2</ele><time>2022-11-04T17:21:42.0000000+00:00</time></trkpt><trkpt lat="39.46508518" lon="-0.36010869"><ele>-4.0</ele><time>2022-11-04T17:21:43.0000000+00:00</time></trkpt><trkpt lat="39.46510471" lon="-0.36012135"><ele>-4.0</ele><time>2022-11-04T17:21:44.0000000+00:00</time></trkpt><trkpt lat="39.46512449" lon="-0.36013006"><ele>-4.0</ele><time>2022-11-04T17:21:45.0000000+00:00</time></trkpt><trkpt lat="39.4651441" lon="-0.3601397"><ele>-4.0</ele><time>2022-11-04T17:21:46.0000000+00:00</time></trkpt><trkpt lat="39.46515944" lon="-0.36015102"><ele>-4.2</ele><time>2022-11-04T17:21:47.0000000+00:00</time></trkpt><trkpt lat="39.46517126" lon="-0.36016284"><ele>-4.4</ele><time>2022-11-04T17:21:48.0000000+00:00</time></trkpt><trkpt lat="39.46518333" lon="-0.36017306"><ele>-4.4</ele><time>2022-11-04T17:21:49.0000000+00:00</time></trkpt><trkpt lat="39.46519355" lon="-0.36018429"><ele>-4.4</ele><time>2022-11-04T17:21:50.0000000+00:00</time></trkpt><trkpt lat="39.4652037" lon="-0.36019335"><ele>-4.4</ele><time>2022-11-04T17:21:51.0000000+00:00</time></trkpt><trkpt lat="39.46521166" lon="-0.36020257"><ele>-4.4</ele><time>2022-11-04T17:21:52.0000000+00:00</time></trkpt><trkpt lat="39.46522038" lon="-0.36021019"><ele>-4.4</ele><time>2022-11-04T17:21:53.0000000+00:00</time></trkpt><trkpt lat="39.46522784" lon="-0.36022293"><ele>-4.6</ele><time>2022-11-04T17:21:54.0000000+00:00</time></trkpt><trkpt lat="39.46523513" lon="-0.36023542"><ele>-4.6</ele><time>2022-11-04T17:21:55.0000000+00:00</time></trkpt><trkpt lat="39.46524309" lon="-0.36024657"><ele>-4.6</ele><time>2022-11-04T17:21:56.0000000+00:00</time></trkpt><trkpt lat="39.46525189" lon="-0.36025847"><ele>-4.6</ele><time>2022-11-04T17:21:57.0000000+00:00</time></trkpt><trkpt lat="39.46525793" lon="-0.36028136"><ele>-4.6</ele><time>2022-11-04T17:21:58.0000000+00:00</time></trkpt><trkpt lat="39.46526547" lon="-0.36030164"><ele>-4.6</ele><time>2022-11-04T17:21:59.0000000+00:00</time></trkpt><trkpt lat="39.46527419" lon="-0.36031698"><ele>-4.6</ele><time>2022-11-04T17:22:00.0000000+00:00</time></trkpt><trkpt lat="39.4652845" lon="-0.36033223"><ele>-4.6</ele><time>2022-11-04T17:22:01.0000000+00:00</time></trkpt><trkpt lat="39.46529263" lon="-0.36034724"><ele>-4.6</ele><time>2022-11-04T17:22:02.0000000+00:00</time></trkpt><trkpt lat="39.46530101" lon="-0.3603635"><ele>-4.6</ele><time>2022-11-04T17:22:03.0000000+00:00</time></trkpt><trkpt lat="39.4653114" lon="-0.36038303"><ele>-4.6</ele><time>2022-11-04T17:22:04.0000000+00:00</time></trkpt><trkpt lat="39.46532146" lon="-0.36040021"><ele>-4.6</ele><time>2022-11-04T17:22:05.0000000+00:00</time></trkpt><trkpt lat="39.46533311" lon="-0.36041178"><ele>-4.6</ele><time>2022-11-04T17:22:06.0000000+00:00</time></trkpt><trkpt lat="39.46534711" lon="-0.3604215"><ele>-4.4</ele><time>2022-11-04T17:22:07.0000000+00:00</time></trkpt><trkpt lat="39.46536027" lon="-0.36043215"><ele>-4.4</ele><time>2022-11-04T17:22:08.0000000+00:00</time></trkpt><trkpt lat="39.46537133" lon="-0.36044531"><ele>-4.4</ele><time>2022-11-04T17:22:09.0000000+00:00</time></trkpt><trkpt lat="39.46538173" lon="-0.36046224"><ele>-4.2</ele><time>2022-11-04T17:22:10.0000000+00:00</time></trkpt><trkpt lat="39.46539279" lon="-0.36047707"><ele>-4.2</ele><time>2022-11-04T17:22:11.0000000+00:00</time></trkpt><trkpt lat="39.46540142" lon="-0.36049032"><ele>-4.2</ele><time>2022-11-04T17:22:12.0000000+00:00</time></trkpt><trkpt lat="39.46540914" lon="-0.36050658"><ele>-4.2</ele><time>2022-11-04T17:22:13.0000000+00:00</time></trkpt><trkpt lat="39.46541685" lon="-0.36052284"><ele>-4.2</ele><time>2022-11-04T17:22:14.0000000+00:00</time></trkpt><trkpt lat="39.46542389" lon="-0.36054949"><ele>-4.2</ele><time>2022-11-04T17:22:15.0000000+00:00</time></trkpt><trkpt lat="39.46543001" lon="-0.36056425"><ele>-4.4</ele><time>2022-11-04T17:22:16.0000000+00:00</time></trkpt><trkpt lat="39.46543587" lon="-0.36058076"><ele>-4.4</ele><time>2022-11-04T17:22:17.0000000+00:00</time></trkpt><trkpt lat="39.46543914" lon="-0.36060046"><ele>-4.4</ele><time>2022-11-04T17:22:18.0000000+00:00</time></trkpt><trkpt lat="39.46544191" lon="-0.36062208"><ele>-4.4</ele><time>2022-11-04T17:22:19.0000000+00:00</time></trkpt><trkpt lat="39.46544166" lon="-0.36064169"><ele>-4.4</ele><time>2022-11-04T17:22:20.0000000+00:00</time></trkpt><trkpt lat="39.46543981" lon="-0.36065863"><ele>-4.4</ele><time>2022-11-04T17:22:21.0000000+00:00</time></trkpt><trkpt lat="39.46543898" lon="-0.36067656"><ele>-4.4</ele><time>2022-11-04T17:22:22.0000000+00:00</time></trkpt><trkpt lat="39.46543797" lon="-0.36069576"><ele>-4.4</ele><time>2022-11-04T17:22:23.0000000+00:00</time></trkpt><trkpt lat="39.46543696" lon="-0.36070934"><ele>-4.4</ele><time>2022-11-04T17:22:24.0000000+00:00</time></trkpt><trkpt lat="39.46543504" lon="-0.36072359"><ele>-4.4</ele><time>2022-11-04T17:22:25.0000000+00:00</time></trkpt><trkpt lat="39.4654321" lon="-0.36073792"><ele>-4.4</ele><time>2022-11-04T17:22:26.0000000+00:00</time></trkpt><trkpt lat="39.46542892" lon="-0.36075074"><ele>-4.4</ele><time>2022-11-04T17:22:27.0000000+00:00</time></trkpt><trkpt lat="39.46542624" lon="-0.36076642"><ele>-4.4</ele><time>2022-11-04T17:22:28.0000000+00:00</time></trkpt><trkpt lat="39.46542347" lon="-0.36078343"><ele>-4.4</ele><time>2022-11-04T17:22:29.0000000+00:00</time></trkpt><trkpt lat="39.4654228" lon="-0.36080279"><ele>-4.4</ele><time>2022-11-04T17:22:30.0000000+00:00</time></trkpt><trkpt lat="39.46542221" lon="-0.36081956"><ele>-4.4</ele><time>2022-11-04T17:22:31.0000000+00:00</time></trkpt><trkpt lat="39.46541945" lon="-0.36083263"><ele>-4.4</ele><time>2022-11-04T17:22:32.0000000+00:00</time></trkpt><trkpt lat="39.46541634" lon="-0.36085099"><ele>-4.4</ele><time>2022-11-04T17:22:33.0000000+00:00</time></trkpt><trkpt lat="39.46541232" lon="-0.36086432"><ele>-4.4</ele><time>2022-11-04T17:22:34.0000000+00:00</time></trkpt><trkpt lat="39.46540528" lon="-0.36088058"><ele>-4.4</ele><time>2022-11-04T17:22:35.0000000+00:00</time></trkpt><trkpt lat="39.46539799" lon="-0.36089759"><ele>-4.4</ele><time>2022-11-04T17:22:36.0000000+00:00</time></trkpt><trkpt lat="39.46538969" lon="-0.3609079"><ele>-4.4</ele><time>2022-11-04T17:22:37.0000000+00:00</time></trkpt><trkpt lat="39.46537863" lon="-0.36092207"><ele>-4.4</ele><time>2022-11-04T17:22:38.0000000+00:00</time></trkpt><trkpt lat="39.46536907" lon="-0.3609359"><ele>-4.4</ele><time>2022-11-04T17:22:39.0000000+00:00</time></trkpt><trkpt lat="39.46536211" lon="-0.36095199"><ele>-4.4</ele><time>2022-11-04T17:22:40.0000000+00:00</time></trkpt><trkpt lat="39.46535583" lon="-0.36096792"><ele>-4.4</ele><time>2022-11-04T17:22:41.0000000+00:00</time></trkpt><trkpt lat="39.46534879" lon="-0.36098342"><ele>-4.4</ele><time>2022-11-04T17:22:42.0000000+00:00</time></trkpt><trkpt lat="39.46534225" lon="-0.36100002"><ele>-4.4</ele><time>2022-11-04T17:22:43.0000000+00:00</time></trkpt><trkpt lat="39.4653363" lon="-0.36101653"><ele>-4.4</ele><time>2022-11-04T17:22:44.0000000+00:00</time></trkpt><trkpt lat="39.46532959" lon="-0.36103321"><ele>-4.4</ele><time>2022-11-04T17:22:45.0000000+00:00</time></trkpt><trkpt lat="39.46532406" lon="-0.36104696"><ele>-4.4</ele><time>2022-11-04T17:22:46.0000000+00:00</time></trkpt><trkpt lat="39.46531853" lon="-0.36106389"><ele>-4.6</ele><time>2022-11-04T17:22:47.0000000+00:00</time></trkpt><trkpt lat="39.46531543" lon="-0.36107772"><ele>-4.6</ele><time>2022-11-04T17:22:48.0000000+00:00</time></trkpt><trkpt lat="39.46531492" lon="-0.36109239"><ele>-4.6</ele><time>2022-11-04T17:22:49.0000000+00:00</time></trkpt><trkpt lat="39.46531367" lon="-0.36110932"><ele>-4.4</ele><time>2022-11-04T17:22:50.0000000+00:00</time></trkpt><trkpt lat="39.46531056" lon="-0.36112516"><ele>-4.4</ele><time>2022-11-04T17:22:51.0000000+00:00</time></trkpt><trkpt lat="39.46530964" lon="-0.36114193"><ele>-4.4</ele><time>2022-11-04T17:22:52.0000000+00:00</time></trkpt><trkpt lat="39.46531409" lon="-0.36115777"><ele>-4.4</ele><time>2022-11-04T17:22:53.0000000+00:00</time></trkpt><trkpt lat="39.46532163" lon="-0.36116757"><ele>-4.4</ele><time>2022-11-04T17:22:54.0000000+00:00</time></trkpt><trkpt lat="39.46533177" lon="-0.3611773"><ele>-4.4</ele><time>2022-11-04T17:22:55.0000000+00:00</time></trkpt><trkpt lat="39.46534158" lon="-0.36118861"><ele>-4.4</ele><time>2022-11-04T17:22:56.0000000+00:00</time></trkpt><trkpt lat="39.46535373" lon="-0.3612006"><ele>-4.6</ele><time>2022-11-04T17:22:57.0000000+00:00</time></trkpt><trkpt lat="39.4653658" lon="-0.36120739"><ele>-4.6</ele><time>2022-11-04T17:22:58.0000000+00:00</time></trkpt><trkpt lat="39.4653793" lon="-0.36121368"><ele>-4.6</ele><time>2022-11-04T17:22:59.0000000+00:00</time></trkpt><trkpt lat="39.4653912" lon="-0.36122046"><ele>-4.6</ele><time>2022-11-04T17:23:00.0000000+00:00</time></trkpt><trkpt lat="39.46540386" lon="-0.36122927"><ele>-4.6</ele><time>2022-11-04T17:23:01.0000000+00:00</time></trkpt><trkpt lat="39.46541551" lon="-0.36123756"><ele>-4.6</ele><time>2022-11-04T17:23:02.0000000+00:00</time></trkpt><trkpt lat="39.46542833" lon="-0.36124595"><ele>-4.4</ele><time>2022-11-04T17:23:03.0000000+00:00</time></trkpt><trkpt lat="39.46544853" lon="-0.36125248"><ele>-4.4</ele><time>2022-11-04T17:23:04.0000000+00:00</time></trkpt><trkpt lat="39.46546094" lon="-0.36125869"><ele>-4.4</ele><time>2022-11-04T17:23:05.0000000+00:00</time></trkpt><trkpt lat="39.46547074" lon="-0.36126531"><ele>-4.4</ele><time>2022-11-04T17:23:06.0000000+00:00</time></trkpt><trkpt lat="39.46547829" lon="-0.36127017"><ele>-4.2</ele><time>2022-11-04T17:23:07.0000000+00:00</time></trkpt><trkpt lat="39.4654839" lon="-0.36127419"><ele>-4.2</ele><time>2022-11-04T17:23:08.0000000+00:00</time></trkpt><trkpt lat="39.46549363" lon="-0.36127998"><ele>-4.2</ele><time>2022-11-04T17:23:09.0000000+00:00</time></trkpt><trkpt lat="39.46550611" lon="-0.36128609"><ele>-4.2</ele><time>2022-11-04T17:23:10.0000000+00:00</time></trkpt><trkpt lat="39.46552036" lon="-0.36129364"><ele>-4.0</ele><time>2022-11-04T17:23:11.0000000+00:00</time></trkpt><trkpt lat="39.46553386" lon="-0.36129976"><ele>-4.0</ele><time>2022-11-04T17:23:12.0000000+00:00</time></trkpt><trkpt lat="39.46554693" lon="-0.36130487"><ele>-4.2</ele><time>2022-11-04T17:23:13.0000000+00:00</time></trkpt><trkpt lat="39.46556085" lon="-0.36131132"><ele>-4.2</ele><time>2022-11-04T17:23:14.0000000+00:00</time></trkpt><trkpt lat="39.46557485" lon="-0.36131929"><ele>-4.2</ele><time>2022-11-04T17:23:15.0000000+00:00</time></trkpt><trkpt lat="39.46558985" lon="-0.36132574"><ele>-4.4</ele><time>2022-11-04T17:23:16.0000000+00:00</time></trkpt><trkpt lat="39.46560192" lon="-0.36133387"><ele>-4.4</ele><time>2022-11-04T17:23:17.0000000+00:00</time></trkpt><trkpt lat="39.46561407" lon="-0.36134016"><ele>-4.6</ele><time>2022-11-04T17:23:18.0000000+00:00</time></trkpt><trkpt lat="39.46562505" lon="-0.36134712"><ele>-4.6</ele><time>2022-11-04T17:23:19.0000000+00:00</time></trkpt><trkpt lat="39.46563595" lon="-0.36135374"><ele>-4.6</ele><time>2022-11-04T17:23:20.0000000+00:00</time></trkpt><trkpt lat="39.46564819" lon="-0.3613586"><ele>-4.6</ele><time>2022-11-04T17:23:21.0000000+00:00</time></trkpt><trkpt lat="39.46566294" lon="-0.36136371"><ele>-4.6</ele><time>2022-11-04T17:23:22.0000000+00:00</time></trkpt><trkpt lat="39.46567325" lon="-0.36136916"><ele>-4.6</ele><time>2022-11-04T17:23:23.0000000+00:00</time></trkpt><trkpt lat="39.46568322" lon="-0.36137771"><ele>-4.6</ele><time>2022-11-04T17:23:24.0000000+00:00</time></trkpt><trkpt lat="39.4656942" lon="-0.361385"><ele>-4.6</ele><time>2022-11-04T17:23:25.0000000+00:00</time></trkpt><trkpt lat="39.46570393" lon="-0.36138877"><ele>-4.6</ele><time>2022-11-04T17:23:26.0000000+00:00</time></trkpt><trkpt lat="39.46571474" lon="-0.36139431"><ele>-4.6</ele><time>2022-11-04T17:23:27.0000000+00:00</time></trkpt><trkpt lat="39.46572756" lon="-0.36139967"><ele>-4.6</ele><time>2022-11-04T17:23:28.0000000+00:00</time></trkpt><trkpt lat="39.46574357" lon="-0.36140361"><ele>-4.6</ele><time>2022-11-04T17:23:29.0000000+00:00</time></trkpt><trkpt lat="39.46575942" lon="-0.36141358"><ele>-4.6</ele><time>2022-11-04T17:23:30.0000000+00:00</time></trkpt><trkpt lat="39.46577366" lon="-0.36142213"><ele>-4.6</ele><time>2022-11-04T17:23:31.0000000+00:00</time></trkpt><trkpt lat="39.46578808" lon="-0.36142909"><ele>-4.8</ele><time>2022-11-04T17:23:32.0000000+00:00</time></trkpt><trkpt lat="39.46580158" lon="-0.36143739"><ele>-4.8</ele><time>2022-11-04T17:23:33.0000000+00:00</time></trkpt><trkpt lat="39.46581583" lon="-0.36144166"><ele>-4.6</ele><time>2022-11-04T17:23:34.0000000+00:00</time></trkpt><trkpt lat="39.46582974" lon="-0.36144862"><ele>-4.4</ele><time>2022-11-04T17:23:35.0000000+00:00</time></trkpt><trkpt lat="39.46584223" lon="-0.36145642"><ele>-4.2</ele><time>2022-11-04T17:23:36.0000000+00:00</time></trkpt><trkpt lat="39.46585706" lon="-0.36146647"><ele>-4.2</ele><time>2022-11-04T17:23:37.0000000+00:00</time></trkpt><trkpt lat="39.46586888" lon="-0.36147636"><ele>-4.2</ele><time>2022-11-04T17:23:38.0000000+00:00</time></trkpt><trkpt lat="39.46588514" lon="-0.36148433"><ele>-4.2</ele><time>2022-11-04T17:23:39.0000000+00:00</time></trkpt><trkpt lat="39.46589856" lon="-0.36149422"><ele>-4.2</ele><time>2022-11-04T17:23:40.0000000+00:00</time></trkpt><trkpt lat="39.46591021" lon="-0.36150377"><ele>-4.2</ele><time>2022-11-04T17:23:41.0000000+00:00</time></trkpt><trkpt lat="39.46592093" lon="-0.36151123"><ele>-4.2</ele><time>2022-11-04T17:23:42.0000000+00:00</time></trkpt><trkpt lat="39.46593124" lon="-0.36151584"><ele>-4.4</ele><time>2022-11-04T17:23:43.0000000+00:00</time></trkpt><trkpt lat="39.46593778" lon="-0.36151911"><ele>-4.4</ele><time>2022-11-04T17:23:44.0000000+00:00</time></trkpt><trkpt lat="39.46594399" lon="-0.36152389"><ele>-4.4</ele><time>2022-11-04T17:23:45.0000000+00:00</time></trkpt><trkpt lat="39.4659501" lon="-0.36153361"><ele>-4.4</ele><time>2022-11-04T17:23:46.0000000+00:00</time></trkpt><trkpt lat="39.46595698" lon="-0.36154124"><ele>-4.6</ele><time>2022-11-04T17:23:47.0000000+00:00</time></trkpt><trkpt lat="39.46596678" lon="-0.36155096"><ele>-4.6</ele><time>2022-11-04T17:23:48.0000000+00:00</time></trkpt><trkpt lat="39.46597827" lon="-0.36156043"><ele>-4.4</ele><time>2022-11-04T17:23:49.0000000+00:00</time></trkpt><trkpt lat="39.4659895" lon="-0.36157141"><ele>-4.4</ele><time>2022-11-04T17:23:50.0000000+00:00</time></trkpt><trkpt lat="39.46600325" lon="-0.36157779"><ele>-4.4</ele><time>2022-11-04T17:23:51.0000000+00:00</time></trkpt><trkpt lat="39.46601783" lon="-0.36158365"><ele>-4.2</ele><time>2022-11-04T17:23:52.0000000+00:00</time></trkpt><trkpt lat="39.46603074" lon="-0.36158617"><ele>-4.2</ele><time>2022-11-04T17:23:53.0000000+00:00</time></trkpt><trkpt lat="39.46604507" lon="-0.3615917"><ele>-4.2</ele><time>2022-11-04T17:23:54.0000000+00:00</time></trkpt><trkpt lat="39.466062" lon="-0.36159656"><ele>-4.2</ele><time>2022-11-04T17:23:55.0000000+00:00</time></trkpt><trkpt lat="39.46607885" lon="-0.36160117"><ele>-4.2</ele><time>2022-11-04T17:23:56.0000000+00:00</time></trkpt><trkpt lat="39.46609494" lon="-0.36160796"><ele>-4.4</ele><time>2022-11-04T17:23:57.0000000+00:00</time></trkpt><trkpt lat="39.46610986" lon="-0.36161467"><ele>-4.6</ele><time>2022-11-04T17:23:58.0000000+00:00</time></trkpt><trkpt lat="39.4661273" lon="-0.36162389"><ele>-4.8</ele><time>2022-11-04T17:23:59.0000000+00:00</time></trkpt><trkpt lat="39.46614331" lon="-0.3616326"><ele>-4.8</ele><time>2022-11-04T17:24:00.0000000+00:00</time></trkpt><trkpt lat="39.46616066" lon="-0.36164241"><ele>-4.8</ele><time>2022-11-04T17:24:01.0000000+00:00</time></trkpt><trkpt lat="39.46617549" lon="-0.36164643"><ele>-4.8</ele><time>2022-11-04T17:24:02.0000000+00:00</time></trkpt><trkpt lat="39.4661915" lon="-0.36164995"><ele>-4.8</ele><time>2022-11-04T17:24:03.0000000+00:00</time></trkpt><trkpt lat="39.46620785" lon="-0.36165498"><ele>-4.8</ele><time>2022-11-04T17:24:04.0000000+00:00</time></trkpt><trkpt lat="39.46621992" lon="-0.36166035"><ele>-4.8</ele><time>2022-11-04T17:24:05.0000000+00:00</time></trkpt><trkpt lat="39.46623299" lon="-0.36166705"><ele>-4.8</ele><time>2022-11-04T17:24:06.0000000+00:00</time></trkpt><trkpt lat="39.46624515" lon="-0.36167418"><ele>-4.8</ele><time>2022-11-04T17:24:07.0000000+00:00</time></trkpt><trkpt lat="39.46625998" lon="-0.36167937"><ele>-4.8</ele><time>2022-11-04T17:24:08.0000000+00:00</time></trkpt><trkpt lat="39.46627222" lon="-0.36168616"><ele>-4.8</ele><time>2022-11-04T17:24:09.0000000+00:00</time></trkpt><trkpt lat="39.46628102" lon="-0.36169698"><ele>-4.8</ele><time>2022-11-04T17:24:10.0000000+00:00</time></trkpt><trkpt lat="39.46628949" lon="-0.36170888"><ele>-4.8</ele><time>2022-11-04T17:24:11.0000000+00:00</time></trkpt><trkpt lat="39.46629795" lon="-0.36171801"><ele>-4.8</ele><time>2022-11-04T17:24:12.0000000+00:00</time></trkpt><trkpt lat="39.46630868" lon="-0.36172573"><ele>-4.8</ele><time>2022-11-04T17:24:13.0000000+00:00</time></trkpt><trkpt lat="39.46632008" lon="-0.36173352"><ele>-4.8</ele><time>2022-11-04T17:24:14.0000000+00:00</time></trkpt><trkpt lat="39.46633257" lon="-0.36174316"><ele>-4.8</ele><time>2022-11-04T17:24:15.0000000+00:00</time></trkpt><trkpt lat="39.46634397" lon="-0.36175531"><ele>-4.8</ele><time>2022-11-04T17:24:16.0000000+00:00</time></trkpt><trkpt lat="39.46635587" lon="-0.36176562"><ele>-4.8</ele><time>2022-11-04T17:24:17.0000000+00:00</time></trkpt><trkpt lat="39.46636836" lon="-0.36177459"><ele>-4.8</ele><time>2022-11-04T17:24:18.0000000+00:00</time></trkpt><trkpt lat="39.4663832" lon="-0.36177794"><ele>-4.6</ele><time>2022-11-04T17:24:19.0000000+00:00</time></trkpt><trkpt lat="39.46639652" lon="-0.36177769"><ele>-4.6</ele><time>2022-11-04T17:24:20.0000000+00:00</time></trkpt><trkpt lat="39.46641304" lon="-0.36178038"><ele>-4.6</ele><time>2022-11-04T17:24:21.0000000+00:00</time></trkpt><trkpt lat="39.46643014" lon="-0.36178264"><ele>-4.8</ele><time>2022-11-04T17:24:22.0000000+00:00</time></trkpt><trkpt lat="39.4664412" lon="-0.36178792"><ele>-4.8</ele><time>2022-11-04T17:24:23.0000000+00:00</time></trkpt><trkpt lat="39.4664531" lon="-0.36179437"><ele>-4.8</ele><time>2022-11-04T17:24:24.0000000+00:00</time></trkpt><trkpt lat="39.46646207" lon="-0.36180334"><ele>-4.8</ele><time>2022-11-04T17:24:25.0000000+00:00</time></trkpt><trkpt lat="39.46647129" lon="-0.36180812"><ele>-4.8</ele><time>2022-11-04T17:24:26.0000000+00:00</time></trkpt><trkpt lat="39.466478" lon="-0.36181415"><ele>-4.8</ele><time>2022-11-04T17:24:27.0000000+00:00</time></trkpt><trkpt lat="39.46648143" lon="-0.36182027"><ele>-4.8</ele><time>2022-11-04T17:24:28.0000000+00:00</time></trkpt><trkpt lat="39.46648437" lon="-0.36182715"><ele>-4.8</ele><time>2022-11-04T17:24:29.0000000+00:00</time></trkpt><trkpt lat="39.46649241" lon="-0.36182983"><ele>-4.8</ele><time>2022-11-04T17:24:30.0000000+00:00</time></trkpt><trkpt lat="39.46650541" lon="-0.36184089"><ele>-4.4</ele><time>2022-11-04T17:24:31.0000000+00:00</time></trkpt><trkpt lat="39.46652376" lon="-0.3618419"><ele>-4.4</ele><time>2022-11-04T17:24:32.0000000+00:00</time></trkpt><trkpt lat="39.46653382" lon="-0.36183829"><ele>-4.2</ele><time>2022-11-04T17:24:33.0000000+00:00</time></trkpt><trkpt lat="39.46654866" lon="-0.36183653"><ele>-4.2</ele><time>2022-11-04T17:24:34.0000000+00:00</time></trkpt><trkpt lat="39.46656173" lon="-0.36183436"><ele>-4.2</ele><time>2022-11-04T17:24:35.0000000+00:00</time></trkpt><trkpt lat="39.46657313" lon="-0.36183109"><ele>-4.0</ele><time>2022-11-04T17:24:36.0000000+00:00</time></trkpt><trkpt lat="39.46658277" lon="-0.36182983"><ele>-4.0</ele><time>2022-11-04T17:24:37.0000000+00:00</time></trkpt><trkpt lat="39.4665909" lon="-0.36182455"><ele>-4.2</ele><time>2022-11-04T17:24:38.0000000+00:00</time></trkpt><trkpt lat="39.46659836" lon="-0.3618155"><ele>-4.2</ele><time>2022-11-04T17:24:39.0000000+00:00</time></trkpt><trkpt lat="39.46660708" lon="-0.36180678"><ele>-4.2</ele><time>2022-11-04T17:24:40.0000000+00:00</time></trkpt><trkpt lat="39.46661546" lon="-0.36179639"><ele>-4.2</ele><time>2022-11-04T17:24:41.0000000+00:00</time></trkpt><trkpt lat="39.46662535" lon="-0.36178608"><ele>-4.2</ele><time>2022-11-04T17:24:42.0000000+00:00</time></trkpt><trkpt lat="39.46663491" lon="-0.36177862"><ele>-4.2</ele><time>2022-11-04T17:24:43.0000000+00:00</time></trkpt><trkpt lat="39.46664698" lon="-0.361773"><ele>-4.2</ele><time>2022-11-04T17:24:44.0000000+00:00</time></trkpt><trkpt lat="39.46665913" lon="-0.36176847"><ele>-4.2</ele><time>2022-11-04T17:24:45.0000000+00:00</time></trkpt><trkpt lat="39.46667078" lon="-0.36176512"><ele>-4.2</ele><time>2022-11-04T17:24:46.0000000+00:00</time></trkpt><trkpt lat="39.46668335" lon="-0.3617621"><ele>-4.2</ele><time>2022-11-04T17:24:47.0000000+00:00</time></trkpt><trkpt lat="39.46669576" lon="-0.36175909"><ele>-4.2</ele><time>2022-11-04T17:24:48.0000000+00:00</time></trkpt><trkpt lat="39.46670841" lon="-0.36175397"><ele>-4.2</ele><time>2022-11-04T17:24:49.0000000+00:00</time></trkpt><trkpt lat="39.46672124" lon="-0.36175054"><ele>-4.0</ele><time>2022-11-04T17:24:50.0000000+00:00</time></trkpt><trkpt lat="39.46673306" lon="-0.36174702"><ele>-3.8</ele><time>2022-11-04T17:24:51.0000000+00:00</time></trkpt><trkpt lat="39.46674429" lon="-0.36175163"><ele>-3.8</ele><time>2022-11-04T17:24:52.0000000+00:00</time></trkpt><trkpt lat="39.46675695" lon="-0.36175875"><ele>-3.8</ele><time>2022-11-04T17:24:53.0000000+00:00</time></trkpt><trkpt lat="39.4667686" lon="-0.36176085"><ele>-4.0</ele><time>2022-11-04T17:24:54.0000000+00:00</time></trkpt><trkpt lat="39.46678016" lon="-0.36176244"><ele>-4.0</ele><time>2022-11-04T17:24:55.0000000+00:00</time></trkpt><trkpt lat="39.46678846" lon="-0.36176344"><ele>-4.0</ele><time>2022-11-04T17:24:56.0000000+00:00</time></trkpt><trkpt lat="39.46679902" lon="-0.36176428"><ele>-4.0</ele><time>2022-11-04T17:24:57.0000000+00:00</time></trkpt><trkpt lat="39.46681227" lon="-0.36176244"><ele>-4.0</ele><time>2022-11-04T17:24:58.0000000+00:00</time></trkpt><trkpt lat="39.46682149" lon="-0.3617621"><ele>-4.0</ele><time>2022-11-04T17:24:59.0000000+00:00</time></trkpt><trkpt lat="39.46682995" lon="-0.36176546"><ele>-4.0</ele><time>2022-11-04T17:25:00.0000000+00:00</time></trkpt><trkpt lat="39.46684102" lon="-0.36176872"><ele>-4.0</ele><time>2022-11-04T17:25:01.0000000+00:00</time></trkpt><trkpt lat="39.46685183" lon="-0.36177191"><ele>-4.2</ele><time>2022-11-04T17:25:02.0000000+00:00</time></trkpt><trkpt lat="39.46686113" lon="-0.3617818"><ele>-4.2</ele><time>2022-11-04T17:25:03.0000000+00:00</time></trkpt><trkpt lat="39.46687161" lon="-0.36179127"><ele>-4.2</ele><time>2022-11-04T17:25:04.0000000+00:00</time></trkpt><trkpt lat="39.46688695" lon="-0.3617994"><ele>-4.0</ele><time>2022-11-04T17:25:05.0000000+00:00</time></trkpt><trkpt lat="39.46690338" lon="-0.36181147"><ele>-4.0</ele><time>2022-11-04T17:25:06.0000000+00:00</time></trkpt><trkpt lat="39.46691964" lon="-0.36182178"><ele>-3.6</ele><time>2022-11-04T17:25:07.0000000+00:00</time></trkpt><trkpt lat="39.46693271" lon="-0.36182857"><ele>-3.4</ele><time>2022-11-04T17:25:08.0000000+00:00</time></trkpt><trkpt lat="39.46694202" lon="-0.36184366"><ele>-3.4</ele><time>2022-11-04T17:25:09.0000000+00:00</time></trkpt><trkpt lat="39.46695451" lon="-0.36184944"><ele>-3.2</ele><time>2022-11-04T17:25:10.0000000+00:00</time></trkpt><trkpt lat="39.46697144" lon="-0.36185154"><ele>-3.2</ele><time>2022-11-04T17:25:11.0000000+00:00</time></trkpt><trkpt lat="39.46698586" lon="-0.36186126"><ele>-3.4</ele><time>2022-11-04T17:25:12.0000000+00:00</time></trkpt><trkpt lat="39.46699675" lon="-0.36186671"><ele>-3.4</ele><time>2022-11-04T17:25:13.0000000+00:00</time></trkpt><trkpt lat="39.46700949" lon="-0.36187057"><ele>-3.4</ele><time>2022-11-04T17:25:14.0000000+00:00</time></trkpt><trkpt lat="39.46702047" lon="-0.36187652"><ele>-3.4</ele><time>2022-11-04T17:25:15.0000000+00:00</time></trkpt><trkpt lat="39.46702726" lon="-0.36188548"><ele>-3.6</ele><time>2022-11-04T17:25:16.0000000+00:00</time></trkpt><trkpt lat="39.46703523" lon="-0.36188666"><ele>-3.6</ele><time>2022-11-04T17:25:17.0000000+00:00</time></trkpt><trkpt lat="39.46704445" lon="-0.36188498"><ele>-3.8</ele><time>2022-11-04T17:25:18.0000000+00:00</time></trkpt><trkpt lat="39.46705325" lon="-0.36189026"><ele>-3.8</ele><time>2022-11-04T17:25:19.0000000+00:00</time></trkpt><trkpt lat="39.46706506" lon="-0.36189806"><ele>-3.8</ele><time>2022-11-04T17:25:20.0000000+00:00</time></trkpt><trkpt lat="39.46707655" lon="-0.36190569"><ele>-3.8</ele><time>2022-11-04T17:25:21.0000000+00:00</time></trkpt><trkpt lat="39.46708962" lon="-0.36191742"><ele>-3.8</ele><time>2022-11-04T17:25:22.0000000+00:00</time></trkpt><trkpt lat="39.46710169" lon="-0.36192865"><ele>-3.8</ele><time>2022-11-04T17:25:23.0000000+00:00</time></trkpt><trkpt lat="39.46711485" lon="-0.3619372"><ele>-3.8</ele><time>2022-11-04T17:25:24.0000000+00:00</time></trkpt><trkpt lat="39.46712818" lon="-0.36194525"><ele>-3.8</ele><time>2022-11-04T17:25:25.0000000+00:00</time></trkpt><trkpt lat="39.46714176" lon="-0.36195137"><ele>-3.8</ele><time>2022-11-04T17:25:26.0000000+00:00</time></trkpt><trkpt lat="39.46715509" lon="-0.36195564"><ele>-3.8</ele><time>2022-11-04T17:25:27.0000000+00:00</time></trkpt><trkpt lat="39.46716682" lon="-0.36196042"><ele>-3.8</ele><time>2022-11-04T17:25:28.0000000+00:00</time></trkpt><trkpt lat="39.46717378" lon="-0.36196603"><ele>-3.8</ele><time>2022-11-04T17:25:29.0000000+00:00</time></trkpt><trkpt lat="39.46718233" lon="-0.36197148"><ele>-3.8</ele><time>2022-11-04T17:25:30.0000000+00:00</time></trkpt><trkpt lat="39.46719582" lon="-0.36197534"><ele>-4.0</ele><time>2022-11-04T17:25:31.0000000+00:00</time></trkpt><trkpt lat="39.46721108" lon="-0.36198062"><ele>-4.0</ele><time>2022-11-04T17:25:32.0000000+00:00</time></trkpt><trkpt lat="39.46722499" lon="-0.36198925"><ele>-4.0</ele><time>2022-11-04T17:25:33.0000000+00:00</time></trkpt><trkpt lat="39.46723723" lon="-0.36199621"><ele>-4.0</ele><time>2022-11-04T17:25:34.0000000+00:00</time></trkpt><trkpt lat="39.4672503" lon="-0.36199872"><ele>-4.0</ele><time>2022-11-04T17:25:35.0000000+00:00</time></trkpt><trkpt lat="39.46726338" lon="-0.36200224"><ele>-3.8</ele><time>2022-11-04T17:25:36.0000000+00:00</time></trkpt><trkpt lat="39.46727696" lon="-0.36200996"><ele>-3.8</ele><time>2022-11-04T17:25:37.0000000+00:00</time></trkpt><trkpt lat="39.46728895" lon="-0.36202043"><ele>-3.8</ele><time>2022-11-04T17:25:38.0000000+00:00</time></trkpt><trkpt lat="39.46729858" lon="-0.36202814"><ele>-3.8</ele><time>2022-11-04T17:25:39.0000000+00:00</time></trkpt><trkpt lat="39.46730596" lon="-0.36203644"><ele>-3.8</ele><time>2022-11-04T17:25:40.0000000+00:00</time></trkpt><trkpt lat="39.46732029" lon="-0.3620429"><ele>-3.8</ele><time>2022-11-04T17:25:41.0000000+00:00</time></trkpt><trkpt lat="39.46733572" lon="-0.36205136"><ele>-3.8</ele><time>2022-11-04T17:25:42.0000000+00:00</time></trkpt><trkpt lat="39.46734636" lon="-0.36205865"><ele>-3.8</ele><time>2022-11-04T17:25:43.0000000+00:00</time></trkpt><trkpt lat="39.46735893" lon="-0.36206285"><ele>-3.8</ele><time>2022-11-04T17:25:44.0000000+00:00</time></trkpt><trkpt lat="39.46737335" lon="-0.36206201"><ele>-3.8</ele><time>2022-11-04T17:25:45.0000000+00:00</time></trkpt><trkpt lat="39.46738316" lon="-0.36206771"><ele>-3.8</ele><time>2022-11-04T17:25:46.0000000+00:00</time></trkpt><trkpt lat="39.46739934" lon="-0.36207844"><ele>-3.8</ele><time>2022-11-04T17:25:47.0000000+00:00</time></trkpt><trkpt lat="39.46741627" lon="-0.36209118"><ele>-3.8</ele><time>2022-11-04T17:25:48.0000000+00:00</time></trkpt><trkpt lat="39.46743345" lon="-0.36210442"><ele>-3.8</ele><time>2022-11-04T17:25:49.0000000+00:00</time></trkpt><trkpt lat="39.46744066" lon="-0.36211532"><ele>-3.8</ele><time>2022-11-04T17:25:50.0000000+00:00</time></trkpt><trkpt lat="39.46744636" lon="-0.3621206"><ele>-3.8</ele><time>2022-11-04T17:25:51.0000000+00:00</time></trkpt><trkpt lat="39.46745273" lon="-0.36212496"><ele>-4.0</ele><time>2022-11-04T17:25:52.0000000+00:00</time></trkpt><trkpt lat="39.46746212" lon="-0.36213107"><ele>-4.0</ele><time>2022-11-04T17:25:53.0000000+00:00</time></trkpt><trkpt lat="39.46747234" lon="-0.36214373"><ele>-4.0</ele><time>2022-11-04T17:25:54.0000000+00:00</time></trkpt><trkpt lat="39.46747821" lon="-0.3621527"><ele>-4.0</ele><time>2022-11-04T17:25:55.0000000+00:00</time></trkpt><trkpt lat="39.46748919" lon="-0.36216334"><ele>-4.0</ele><time>2022-11-04T17:25:56.0000000+00:00</time></trkpt><trkpt lat="39.46749891" lon="-0.36217407"><ele>-4.0</ele><time>2022-11-04T17:25:57.0000000+00:00</time></trkpt><trkpt lat="39.46751392" lon="-0.36218388"><ele>-4.0</ele><time>2022-11-04T17:25:58.0000000+00:00</time></trkpt><trkpt lat="39.46752506" lon="-0.36219042"><ele>-4.0</ele><time>2022-11-04T17:25:59.0000000+00:00</time></trkpt><trkpt lat="39.46753839" lon="-0.3621962"><ele>-4.0</ele><time>2022-11-04T17:26:00.0000000+00:00</time></trkpt><trkpt lat="39.46755096" lon="-0.36220416"><ele>-4.0</ele><time>2022-11-04T17:26:01.0000000+00:00</time></trkpt><trkpt lat="39.4675653" lon="-0.36221447"><ele>-4.0</ele><time>2022-11-04T17:26:02.0000000+00:00</time></trkpt><trkpt lat="39.46757879" lon="-0.36222453"><ele>-4.0</ele><time>2022-11-04T17:26:03.0000000+00:00</time></trkpt><trkpt lat="39.46759564" lon="-0.36223107"><ele>-3.8</ele><time>2022-11-04T17:26:04.0000000+00:00</time></trkpt><trkpt lat="39.46761483" lon="-0.36224046"><ele>-3.8</ele><time>2022-11-04T17:26:05.0000000+00:00</time></trkpt><trkpt lat="39.46763244" lon="-0.36224281"><ele>-3.8</ele><time>2022-11-04T17:26:06.0000000+00:00</time></trkpt><trkpt lat="39.46764677" lon="-0.36224566"><ele>-3.6</ele><time>2022-11-04T17:26:07.0000000+00:00</time></trkpt><trkpt lat="39.46765632" lon="-0.3622532"><ele>-3.6</ele><time>2022-11-04T17:26:08.0000000+00:00</time></trkpt><trkpt lat="39.46766261" lon="-0.36226242"><ele>-3.6</ele><time>2022-11-04T17:26:09.0000000+00:00</time></trkpt><trkpt lat="39.46767292" lon="-0.36226611"><ele>-3.6</ele><time>2022-11-04T17:26:10.0000000+00:00</time></trkpt><trkpt lat="39.4676839" lon="-0.36227097"><ele>-3.8</ele><time>2022-11-04T17:26:11.0000000+00:00</time></trkpt><trkpt lat="39.46769077" lon="-0.36227633"><ele>-3.8</ele><time>2022-11-04T17:26:12.0000000+00:00</time></trkpt><trkpt lat="39.46770963" lon="-0.36227918"><ele>-4.0</ele><time>2022-11-04T17:26:13.0000000+00:00</time></trkpt><trkpt lat="39.46772237" lon="-0.36229134"><ele>-4.0</ele><time>2022-11-04T17:26:14.0000000+00:00</time></trkpt><trkpt lat="39.46773076" lon="-0.36230609"><ele>-4.0</ele><time>2022-11-04T17:26:15.0000000+00:00</time></trkpt><trkpt lat="39.46773713" lon="-0.36231967"><ele>-4.0</ele><time>2022-11-04T17:26:16.0000000+00:00</time></trkpt><trkpt lat="39.46774811" lon="-0.36232872"><ele>-4.0</ele><time>2022-11-04T17:26:17.0000000+00:00</time></trkpt><trkpt lat="39.46775741" lon="-0.36233241"><ele>-4.0</ele><time>2022-11-04T17:26:18.0000000+00:00</time></trkpt><trkpt lat="39.4677704" lon="-0.3623304"><ele>-4.0</ele><time>2022-11-04T17:26:19.0000000+00:00</time></trkpt><trkpt lat="39.46778457" lon="-0.36233417"><ele>-4.0</ele><time>2022-11-04T17:26:20.0000000+00:00</time></trkpt><trkpt lat="39.46779781" lon="-0.36234314"><ele>-4.0</ele><time>2022-11-04T17:26:21.0000000+00:00</time></trkpt><trkpt lat="39.46781131" lon="-0.36235252"><ele>-4.0</ele><time>2022-11-04T17:26:22.0000000+00:00</time></trkpt><trkpt lat="39.46782329" lon="-0.362362"><ele>-4.0</ele><time>2022-11-04T17:26:23.0000000+00:00</time></trkpt><trkpt lat="39.46783167" lon="-0.36236937"><ele>-4.0</ele><time>2022-11-04T17:26:24.0000000+00:00</time></trkpt><trkpt lat="39.46784223" lon="-0.36238002"><ele>-3.8</ele><time>2022-11-04T17:26:25.0000000+00:00</time></trkpt><trkpt lat="39.46785028" lon="-0.36239343"><ele>-3.8</ele><time>2022-11-04T17:26:26.0000000+00:00</time></trkpt><trkpt lat="39.46785682" lon="-0.36239913"><ele>-3.8</ele><time>2022-11-04T17:26:27.0000000+00:00</time></trkpt><trkpt lat="39.46786487" lon="-0.36239963"><ele>-3.8</ele><time>2022-11-04T17:26:28.0000000+00:00</time></trkpt><trkpt lat="39.46787434" lon="-0.36240164"><ele>-3.8</ele><time>2022-11-04T17:26:29.0000000+00:00</time></trkpt><trkpt lat="39.46788414" lon="-0.36240491"><ele>-3.8</ele><time>2022-11-04T17:26:30.0000000+00:00</time></trkpt><trkpt lat="39.46789563" lon="-0.36240877"><ele>-4.0</ele><time>2022-11-04T17:26:31.0000000+00:00</time></trkpt><trkpt lat="39.46790502" lon="-0.36241346"><ele>-4.0</ele><time>2022-11-04T17:26:32.0000000+00:00</time></trkpt><trkpt lat="39.46791474" lon="-0.36242033"><ele>-4.0</ele><time>2022-11-04T17:26:33.0000000+00:00</time></trkpt><trkpt lat="39.46792672" lon="-0.36242578"><ele>-4.0</ele><time>2022-11-04T17:26:34.0000000+00:00</time></trkpt><trkpt lat="39.46793921" lon="-0.36243224"><ele>-4.0</ele><time>2022-11-04T17:26:35.0000000+00:00</time></trkpt><trkpt lat="39.46795179" lon="-0.36243944"><ele>-4.0</ele><time>2022-11-04T17:26:36.0000000+00:00</time></trkpt><trkpt lat="39.46796528" lon="-0.36244255"><ele>-3.8</ele><time>2022-11-04T17:26:37.0000000+00:00</time></trkpt><trkpt lat="39.4679792" lon="-0.36244523"><ele>-3.8</ele><time>2022-11-04T17:26:38.0000000+00:00</time></trkpt><trkpt lat="39.46799026" lon="-0.36244908"><ele>-3.8</ele><time>2022-11-04T17:26:39.0000000+00:00</time></trkpt><trkpt lat="39.46800174" lon="-0.36245093"><ele>-3.8</ele><time>2022-11-04T17:26:40.0000000+00:00</time></trkpt><trkpt lat="39.46801289" lon="-0.36245504"><ele>-3.8</ele><time>2022-11-04T17:26:41.0000000+00:00</time></trkpt><trkpt lat="39.4680232" lon="-0.36245965"><ele>-3.8</ele><time>2022-11-04T17:26:42.0000000+00:00</time></trkpt><trkpt lat="39.46803862" lon="-0.36246459"><ele>-3.8</ele><time>2022-11-04T17:26:43.0000000+00:00</time></trkpt><trkpt lat="39.4680522" lon="-0.36247197"><ele>-3.8</ele><time>2022-11-04T17:26:44.0000000+00:00</time></trkpt><trkpt lat="39.46806167" lon="-0.36248043"><ele>-4.0</ele><time>2022-11-04T17:26:45.0000000+00:00</time></trkpt><trkpt lat="39.46807207" lon="-0.36249158"><ele>-4.0</ele><time>2022-11-04T17:26:46.0000000+00:00</time></trkpt><trkpt lat="39.46808497" lon="-0.36250122"><ele>-4.0</ele><time>2022-11-04T17:26:47.0000000+00:00</time></trkpt><trkpt lat="39.46809855" lon="-0.36250625"><ele>-4.0</ele><time>2022-11-04T17:26:48.0000000+00:00</time></trkpt><trkpt lat="39.46811272" lon="-0.36251128"><ele>-4.0</ele><time>2022-11-04T17:26:49.0000000+00:00</time></trkpt><trkpt lat="39.46812814" lon="-0.36251631"><ele>-3.8</ele><time>2022-11-04T17:26:50.0000000+00:00</time></trkpt><trkpt lat="39.46814206" lon="-0.362521"><ele>-3.8</ele><time>2022-11-04T17:26:51.0000000+00:00</time></trkpt><trkpt lat="39.46815614" lon="-0.3625293"><ele>-3.6</ele><time>2022-11-04T17:26:52.0000000+00:00</time></trkpt><trkpt lat="39.46816879" lon="-0.36253827"><ele>-3.4</ele><time>2022-11-04T17:26:53.0000000+00:00</time></trkpt><trkpt lat="39.46817952" lon="-0.36254439"><ele>-3.4</ele><time>2022-11-04T17:26:54.0000000+00:00</time></trkpt><trkpt lat="39.46818908" lon="-0.36254883"><ele>-3.4</ele><time>2022-11-04T17:26:55.0000000+00:00</time></trkpt><trkpt lat="39.46819888" lon="-0.36255268"><ele>-3.6</ele><time>2022-11-04T17:26:56.0000000+00:00</time></trkpt><trkpt lat="39.46820953" lon="-0.36255679"><ele>-3.6</ele><time>2022-11-04T17:26:57.0000000+00:00</time></trkpt><trkpt lat="39.46821934" lon="-0.36256358"><ele>-3.4</ele><time>2022-11-04T17:26:58.0000000+00:00</time></trkpt><trkpt lat="39.46822872" lon="-0.36257054"><ele>-3.4</ele><time>2022-11-04T17:26:59.0000000+00:00</time></trkpt><trkpt lat="39.46823669" lon="-0.36257842"><ele>-3.4</ele><time>2022-11-04T17:27:00.0000000+00:00</time></trkpt><trkpt lat="39.46824088" lon="-0.36258697"><ele>-3.6</ele><time>2022-11-04T17:27:01.0000000+00:00</time></trkpt><trkpt lat="39.46824222" lon="-0.36260046"><ele>-3.6</ele><time>2022-11-04T17:27:02.0000000+00:00</time></trkpt><trkpt lat="39.46823987" lon="-0.36261572"><ele>-3.6</ele><time>2022-11-04T17:27:03.0000000+00:00</time></trkpt><trkpt lat="39.46823333" lon="-0.36262971"><ele>-3.6</ele><time>2022-11-04T17:27:04.0000000+00:00</time></trkpt><trkpt lat="39.46822696" lon="-0.36264556"><ele>-3.6</ele><time>2022-11-04T17:27:05.0000000+00:00</time></trkpt><trkpt lat="39.46822118" lon="-0.36266198"><ele>-3.6</ele><time>2022-11-04T17:27:06.0000000+00:00</time></trkpt><trkpt lat="39.46821774" lon="-0.36268084"><ele>-3.6</ele><time>2022-11-04T17:27:07.0000000+00:00</time></trkpt><trkpt lat="39.46821464" lon="-0.36269778"><ele>-3.6</ele><time>2022-11-04T17:27:08.0000000+00:00</time></trkpt><trkpt lat="39.46821087" lon="-0.36271479"><ele>-3.6</ele><time>2022-11-04T17:27:09.0000000+00:00</time></trkpt><trkpt lat="39.4682097" lon="-0.36273072"><ele>-3.6</ele><time>2022-11-04T17:27:10.0000000+00:00</time></trkpt><trkpt lat="39.46821305" lon="-0.36274279"><ele>-3.8</ele><time>2022-11-04T17:27:11.0000000+00:00</time></trkpt><trkpt lat="39.46822085" lon="-0.36275075"><ele>-3.8</ele><time>2022-11-04T17:27:12.0000000+00:00</time></trkpt><trkpt lat="39.46823107" lon="-0.36275779"><ele>-3.8</ele><time>2022-11-04T17:27:13.0000000+00:00</time></trkpt><trkpt lat="39.46823929" lon="-0.36276634"><ele>-3.8</ele><time>2022-11-04T17:27:14.0000000+00:00</time></trkpt><trkpt lat="39.46824716" lon="-0.36277388"><ele>-3.8</ele><time>2022-11-04T17:27:15.0000000+00:00</time></trkpt><trkpt lat="39.4682558" lon="-0.36278218"><ele>-3.8</ele><time>2022-11-04T17:27:16.0000000+00:00</time></trkpt><trkpt lat="39.46826569" lon="-0.36278796"><ele>-3.8</ele><time>2022-11-04T17:27:17.0000000+00:00</time></trkpt><trkpt lat="39.46827709" lon="-0.36279484"><ele>-3.8</ele><time>2022-11-04T17:27:18.0000000+00:00</time></trkpt><trkpt lat="39.46829226" lon="-0.36279777"><ele>-3.8</ele><time>2022-11-04T17:27:19.0000000+00:00</time></trkpt><trkpt lat="39.46831581" lon="-0.36280121"><ele>-3.8</ele><time>2022-11-04T17:27:20.0000000+00:00</time></trkpt><trkpt lat="39.46833861" lon="-0.36280205"><ele>-4.0</ele><time>2022-11-04T17:27:21.0000000+00:00</time></trkpt><trkpt lat="39.46835655" lon="-0.36280557"><ele>-4.0</ele><time>2022-11-04T17:27:22.0000000+00:00</time></trkpt><trkpt lat="39.46836728" lon="-0.36281018"><ele>-4.0</ele><time>2022-11-04T17:27:23.0000000+00:00</time></trkpt><trkpt lat="39.4683739" lon="-0.36281512"><ele>-4.0</ele><time>2022-11-04T17:27:24.0000000+00:00</time></trkpt><trkpt lat="39.46837968" lon="-0.36282526"><ele>-4.0</ele><time>2022-11-04T17:27:25.0000000+00:00</time></trkpt><trkpt lat="39.46838756" lon="-0.36283582"><ele>-4.0</ele><time>2022-11-04T17:27:26.0000000+00:00</time></trkpt><trkpt lat="39.46839762" lon="-0.36284161"><ele>-4.0</ele><time>2022-11-04T17:27:27.0000000+00:00</time></trkpt><trkpt lat="39.4684065" lon="-0.36284991"><ele>-4.2</ele><time>2022-11-04T17:27:28.0000000+00:00</time></trkpt><trkpt lat="39.46841891" lon="-0.36285921"><ele>-4.2</ele><time>2022-11-04T17:27:29.0000000+00:00</time></trkpt><trkpt lat="39.46843727" lon="-0.36286877"><ele>-4.2</ele><time>2022-11-04T17:27:30.0000000+00:00</time></trkpt><trkpt lat="39.46845395" lon="-0.36288025"><ele>-4.2</ele><time>2022-11-04T17:27:31.0000000+00:00</time></trkpt><trkpt lat="39.4684682" lon="-0.36288796"><ele>-4.0</ele><time>2022-11-04T17:27:32.0000000+00:00</time></trkpt><trkpt lat="39.46848052" lon="-0.36289542"><ele>-4.0</ele><time>2022-11-04T17:27:33.0000000+00:00</time></trkpt><trkpt lat="39.46849443" lon="-0.36290037"><ele>-4.0</ele><time>2022-11-04T17:27:34.0000000+00:00</time></trkpt><trkpt lat="39.4685086" lon="-0.36290456"><ele>-3.8</ele><time>2022-11-04T17:27:35.0000000+00:00</time></trkpt><trkpt lat="39.46852033" lon="-0.3629095"><ele>-4.0</ele><time>2022-11-04T17:27:36.0000000+00:00</time></trkpt><trkpt lat="39.46853139" lon="-0.36291537"><ele>-4.0</ele><time>2022-11-04T17:27:37.0000000+00:00</time></trkpt><trkpt lat="39.4685433" lon="-0.36292249"><ele>-4.0</ele><time>2022-11-04T17:27:38.0000000+00:00</time></trkpt><trkpt lat="39.46855654" lon="-0.36292945"><ele>-4.0</ele><time>2022-11-04T17:27:39.0000000+00:00</time></trkpt><trkpt lat="39.46856978" lon="-0.36293884"><ele>-4.0</ele><time>2022-11-04T17:27:40.0000000+00:00</time></trkpt><trkpt lat="39.4685816" lon="-0.36294404"><ele>-4.0</ele><time>2022-11-04T17:27:41.0000000+00:00</time></trkpt><trkpt lat="39.46859258" lon="-0.36294806"><ele>-4.0</ele><time>2022-11-04T17:27:42.0000000+00:00</time></trkpt><trkpt lat="39.4686034" lon="-0.36295435"><ele>-4.0</ele><time>2022-11-04T17:27:43.0000000+00:00</time></trkpt><trkpt lat="39.46861396" lon="-0.36295476"><ele>-4.0</ele><time>2022-11-04T17:27:44.0000000+00:00</time></trkpt><trkpt lat="39.46862636" lon="-0.36295569"><ele>-4.0</ele><time>2022-11-04T17:27:45.0000000+00:00</time></trkpt><trkpt lat="39.4686386" lon="-0.36295367"><ele>-4.0</ele><time>2022-11-04T17:27:46.0000000+00:00</time></trkpt><trkpt lat="39.46865084" lon="-0.36295309"><ele>-4.0</ele><time>2022-11-04T17:27:47.0000000+00:00</time></trkpt><trkpt lat="39.46866375" lon="-0.36295795"><ele>-4.0</ele><time>2022-11-04T17:27:48.0000000+00:00</time></trkpt><trkpt lat="39.46867674" lon="-0.36296147"><ele>-4.0</ele><time>2022-11-04T17:27:49.0000000+00:00</time></trkpt><trkpt lat="39.46869157" lon="-0.36296709"><ele>-4.0</ele><time>2022-11-04T17:27:50.0000000+00:00</time></trkpt><trkpt lat="39.46870314" lon="-0.36297211"><ele>-4.0</ele><time>2022-11-04T17:27:51.0000000+00:00</time></trkpt><trkpt lat="39.46871202" lon="-0.36297815"><ele>-4.0</ele><time>2022-11-04T17:27:52.0000000+00:00</time></trkpt><trkpt lat="39.4687251" lon="-0.36298527"><ele>-4.0</ele><time>2022-11-04T17:27:53.0000000+00:00</time></trkpt><trkpt lat="39.46873969" lon="-0.36298569"><ele>-3.8</ele><time>2022-11-04T17:27:54.0000000+00:00</time></trkpt><trkpt lat="39.46875452" lon="-0.36299022"><ele>-3.8</ele><time>2022-11-04T17:27:55.0000000+00:00</time></trkpt><trkpt lat="39.4687567" lon="-0.36299257"><ele>-3.8</ele><time>2022-11-04T17:27:56.0000000+00:00</time></trkpt><trkpt lat="39.46876508" lon="-0.36299634"><ele>-3.8</ele><time>2022-11-04T17:27:57.0000000+00:00</time></trkpt><trkpt lat="39.46902232" lon="-0.3631706"><ele>-3.8</ele><time>2022-11-04T17:28:17.0000000+00:00</time></trkpt><trkpt lat="39.46904269" lon="-0.36318099"><ele>-3.8</ele><time>2022-11-04T17:28:18.0000000+00:00</time></trkpt><trkpt lat="39.46908334" lon="-0.36315383"><ele>-3.8</ele><time>2022-11-04T17:28:19.0000000+00:00</time></trkpt><trkpt lat="39.46907798" lon="-0.36318317"><ele>-3.8</ele><time>2022-11-04T17:28:20.0000000+00:00</time></trkpt><trkpt lat="39.46909516" lon="-0.3632001"><ele>-3.8</ele><time>2022-11-04T17:28:21.0000000+00:00</time></trkpt><trkpt lat="39.46910807" lon="-0.36321586"><ele>-3.8</ele><time>2022-11-04T17:28:22.0000000+00:00</time></trkpt><trkpt lat="39.46911863" lon="-0.36322676"><ele>-3.8</ele><time>2022-11-04T17:28:23.0000000+00:00</time></trkpt><trkpt lat="39.46913347" lon="-0.36322768"><ele>-3.8</ele><time>2022-11-04T17:28:24.0000000+00:00</time></trkpt><trkpt lat="39.46914487" lon="-0.36323011"><ele>-4.0</ele><time>2022-11-04T17:28:25.0000000+00:00</time></trkpt><trkpt lat="39.46916155" lon="-0.36322659"><ele>-4.0</ele><time>2022-11-04T17:28:26.0000000+00:00</time></trkpt><trkpt lat="39.46917328" lon="-0.36322433"><ele>-4.0</ele><time>2022-11-04T17:28:27.0000000+00:00</time></trkpt><trkpt lat="39.46918015" lon="-0.36322122"><ele>-3.8</ele><time>2022-11-04T17:28:28.0000000+00:00</time></trkpt><trkpt lat="39.4691908" lon="-0.36322215"><ele>-3.8</ele><time>2022-11-04T17:28:29.0000000+00:00</time></trkpt><trkpt lat="39.4691996" lon="-0.36323036"><ele>-3.8</ele><time>2022-11-04T17:28:30.0000000+00:00</time></trkpt><trkpt lat="39.46920698" lon="-0.36324067"><ele>-3.8</ele><time>2022-11-04T17:28:31.0000000+00:00</time></trkpt><trkpt lat="39.46921276" lon="-0.36325282"><ele>-3.8</ele><time>2022-11-04T17:28:32.0000000+00:00</time></trkpt><trkpt lat="39.46922433" lon="-0.36326288"><ele>-3.8</ele><time>2022-11-04T17:28:33.0000000+00:00</time></trkpt><trkpt lat="39.46923556" lon="-0.36326892"><ele>-3.8</ele><time>2022-11-04T17:28:34.0000000+00:00</time></trkpt><trkpt lat="39.46924763" lon="-0.36328082"><ele>-3.8</ele><time>2022-11-04T17:28:35.0000000+00:00</time></trkpt><trkpt lat="39.46926045" lon="-0.36329582"><ele>-3.8</ele><time>2022-11-04T17:28:36.0000000+00:00</time></trkpt><trkpt lat="39.46926917" lon="-0.36331837"><ele>-3.8</ele><time>2022-11-04T17:28:37.0000000+00:00</time></trkpt><trkpt lat="39.46927462" lon="-0.36333312"><ele>-3.8</ele><time>2022-11-04T17:28:38.0000000+00:00</time></trkpt><trkpt lat="39.46928518" lon="-0.36333581"><ele>-3.8</ele><time>2022-11-04T17:28:39.0000000+00:00</time></trkpt><trkpt lat="39.46929675" lon="-0.36333463"><ele>-4.0</ele><time>2022-11-04T17:28:40.0000000+00:00</time></trkpt><trkpt lat="39.46930454" lon="-0.36334192"><ele>-4.0</ele><time>2022-11-04T17:28:41.0000000+00:00</time></trkpt><trkpt lat="39.46931879" lon="-0.3633545"><ele>-4.0</ele><time>2022-11-04T17:28:42.0000000+00:00</time></trkpt><trkpt lat="39.46933748" lon="-0.36336003"><ele>-4.0</ele><time>2022-11-04T17:28:43.0000000+00:00</time></trkpt><trkpt lat="39.4693586" lon="-0.36336975"><ele>-4.0</ele><time>2022-11-04T17:28:44.0000000+00:00</time></trkpt><trkpt lat="39.46937788" lon="-0.36337051"><ele>-4.0</ele><time>2022-11-04T17:28:45.0000000+00:00</time></trkpt><trkpt lat="39.46939507" lon="-0.36336565"><ele>-4.0</ele><time>2022-11-04T17:28:46.0000000+00:00</time></trkpt><trkpt lat="39.46940948" lon="-0.36335995"><ele>-4.0</ele><time>2022-11-04T17:28:47.0000000+00:00</time></trkpt><trkpt lat="39.46942323" lon="-0.36335014"><ele>-3.8</ele><time>2022-11-04T17:28:48.0000000+00:00</time></trkpt><trkpt lat="39.46943597" lon="-0.36333857"><ele>-3.8</ele><time>2022-11-04T17:28:49.0000000+00:00</time></trkpt><trkpt lat="39.46944762" lon="-0.36332742"><ele>-3.8</ele><time>2022-11-04T17:28:50.0000000+00:00</time></trkpt><trkpt lat="39.46945508" lon="-0.36331116"><ele>-4.0</ele><time>2022-11-04T17:28:51.0000000+00:00</time></trkpt><trkpt lat="39.46946162" lon="-0.36329499"><ele>-4.0</ele><time>2022-11-04T17:28:52.0000000+00:00</time></trkpt><trkpt lat="39.4694679" lon="-0.36328493"><ele>-4.0</ele><time>2022-11-04T17:28:53.0000000+00:00</time></trkpt><trkpt lat="39.46947495" lon="-0.36327428"><ele>-4.0</ele><time>2022-11-04T17:28:54.0000000+00:00</time></trkpt><trkpt lat="39.46947956" lon="-0.36326707"><ele>-4.0</ele><time>2022-11-04T17:28:55.0000000+00:00</time></trkpt><trkpt lat="39.46948777" lon="-0.3632628"><ele>-4.0</ele><time>2022-11-04T17:28:56.0000000+00:00</time></trkpt><trkpt lat="39.46950001" lon="-0.36326272"><ele>-4.0</ele><time>2022-11-04T17:28:57.0000000+00:00</time></trkpt><trkpt lat="39.46950906" lon="-0.36326473"><ele>-4.0</ele><time>2022-11-04T17:28:58.0000000+00:00</time></trkpt><trkpt lat="39.46952147" lon="-0.36326699"><ele>-4.0</ele><time>2022-11-04T17:28:59.0000000+00:00</time></trkpt><trkpt lat="39.46953001" lon="-0.36326984"><ele>-4.0</ele><time>2022-11-04T17:29:00.0000000+00:00</time></trkpt><trkpt lat="39.46953689" lon="-0.36327562"><ele>-4.0</ele><time>2022-11-04T17:29:01.0000000+00:00</time></trkpt><trkpt lat="39.46954745" lon="-0.36328183"><ele>-4.0</ele><time>2022-11-04T17:29:02.0000000+00:00</time></trkpt><trkpt lat="39.4695596" lon="-0.36328845"><ele>-4.0</ele><time>2022-11-04T17:29:03.0000000+00:00</time></trkpt><trkpt lat="39.46957218" lon="-0.36329197"><ele>-4.0</ele><time>2022-11-04T17:29:04.0000000+00:00</time></trkpt><trkpt lat="39.46958584" lon="-0.36329641"><ele>-4.0</ele><time>2022-11-04T17:29:05.0000000+00:00</time></trkpt><trkpt lat="39.46960017" lon="-0.36330655"><ele>-4.0</ele><time>2022-11-04T17:29:06.0000000+00:00</time></trkpt><trkpt lat="39.4696135" lon="-0.3633182"><ele>-4.0</ele><time>2022-11-04T17:29:07.0000000+00:00</time></trkpt><trkpt lat="39.46962674" lon="-0.36332441"><ele>-4.0</ele><time>2022-11-04T17:29:08.0000000+00:00</time></trkpt><trkpt lat="39.46964359" lon="-0.36333279"><ele>-4.0</ele><time>2022-11-04T17:29:09.0000000+00:00</time></trkpt><trkpt lat="39.46965516" lon="-0.36334151"><ele>-3.8</ele><time>2022-11-04T17:29:10.0000000+00:00</time></trkpt><trkpt lat="39.46966865" lon="-0.36334796"><ele>-3.8</ele><time>2022-11-04T17:29:11.0000000+00:00</time></trkpt><trkpt lat="39.46968458" lon="-0.36335148"><ele>-3.8</ele><time>2022-11-04T17:29:12.0000000+00:00</time></trkpt><trkpt lat="39.46969849" lon="-0.3633498"><ele>-3.8</ele><time>2022-11-04T17:29:13.0000000+00:00</time></trkpt><trkpt lat="39.46970562" lon="-0.36335542"><ele>-4.0</ele><time>2022-11-04T17:29:14.0000000+00:00</time></trkpt><trkpt lat="39.46972062" lon="-0.36335106"><ele>-4.0</ele><time>2022-11-04T17:29:15.0000000+00:00</time></trkpt><trkpt lat="39.46973353" lon="-0.36335659"><ele>-4.0</ele><time>2022-11-04T17:29:16.0000000+00:00</time></trkpt><trkpt lat="39.46974543" lon="-0.36336212"><ele>-4.0</ele><time>2022-11-04T17:29:17.0000000+00:00</time></trkpt><trkpt lat="39.46975825" lon="-0.36336288"><ele>-4.0</ele><time>2022-11-04T17:29:18.0000000+00:00</time></trkpt><trkpt lat="39.46976739" lon="-0.36336883"><ele>-4.0</ele><time>2022-11-04T17:29:19.0000000+00:00</time></trkpt><trkpt lat="39.46977384" lon="-0.36338316"><ele>-4.0</ele><time>2022-11-04T17:29:20.0000000+00:00</time></trkpt><trkpt lat="39.46978315" lon="-0.36339196"><ele>-4.0</ele><time>2022-11-04T17:29:21.0000000+00:00</time></trkpt><trkpt lat="39.46979404" lon="-0.36340018"><ele>-4.0</ele><time>2022-11-04T17:29:22.0000000+00:00</time></trkpt><trkpt lat="39.46980687" lon="-0.36341116"><ele>-4.0</ele><time>2022-11-04T17:29:23.0000000+00:00</time></trkpt><trkpt lat="39.46982388" lon="-0.36341636"><ele>-4.0</ele><time>2022-11-04T17:29:24.0000000+00:00</time></trkpt><trkpt lat="39.46983981" lon="-0.3634234"><ele>-4.2</ele><time>2022-11-04T17:29:25.0000000+00:00</time></trkpt><trkpt lat="39.46985297" lon="-0.3634301"><ele>-4.2</ele><time>2022-11-04T17:29:26.0000000+00:00</time></trkpt><trkpt lat="39.46986605" lon="-0.36343538"><ele>-4.2</ele><time>2022-11-04T17:29:27.0000000+00:00</time></trkpt><trkpt lat="39.46987879" lon="-0.36344636"><ele>-4.2</ele><time>2022-11-04T17:29:28.0000000+00:00</time></trkpt><trkpt lat="39.4698932" lon="-0.36345525"><ele>-4.0</ele><time>2022-11-04T17:29:29.0000000+00:00</time></trkpt><trkpt lat="39.46990879" lon="-0.36345483"><ele>-4.0</ele><time>2022-11-04T17:29:30.0000000+00:00</time></trkpt><trkpt lat="39.46992204" lon="-0.36344921"><ele>-4.0</ele><time>2022-11-04T17:29:31.0000000+00:00</time></trkpt><trkpt lat="39.46993645" lon="-0.36343681"><ele>-4.0</ele><time>2022-11-04T17:29:32.0000000+00:00</time></trkpt><trkpt lat="39.46994601" lon="-0.3634234"><ele>-4.0</ele><time>2022-11-04T17:29:33.0000000+00:00</time></trkpt><trkpt lat="39.46995883" lon="-0.36340973"><ele>-3.8</ele><time>2022-11-04T17:29:34.0000000+00:00</time></trkpt><trkpt lat="39.46996688" lon="-0.36339875"><ele>-3.8</ele><time>2022-11-04T17:29:35.0000000+00:00</time></trkpt><trkpt lat="39.46998121" lon="-0.36339087"><ele>-3.8</ele><time>2022-11-04T17:29:36.0000000+00:00</time></trkpt><trkpt lat="39.46999018" lon="-0.36337931"><ele>-3.8</ele><time>2022-11-04T17:29:37.0000000+00:00</time></trkpt><trkpt lat="39.46999898" lon="-0.36336606"><ele>-3.8</ele><time>2022-11-04T17:29:38.0000000+00:00</time></trkpt><trkpt lat="39.47000669" lon="-0.36335156"><ele>-3.8</ele><time>2022-11-04T17:29:39.0000000+00:00</time></trkpt><trkpt lat="39.47001298" lon="-0.36334293"><ele>-3.8</ele><time>2022-11-04T17:29:40.0000000+00:00</time></trkpt><trkpt lat="39.47002304" lon="-0.36333337"><ele>-3.8</ele><time>2022-11-04T17:29:41.0000000+00:00</time></trkpt><trkpt lat="39.47004022" lon="-0.3633234"><ele>-3.8</ele><time>2022-11-04T17:29:42.0000000+00:00</time></trkpt><trkpt lat="39.47005254" lon="-0.36331535"><ele>-3.8</ele><time>2022-11-04T17:29:43.0000000+00:00</time></trkpt><trkpt lat="39.47006336" lon="-0.3633058"><ele>-4.0</ele><time>2022-11-04T17:29:44.0000000+00:00</time></trkpt><trkpt lat="39.47007467" lon="-0.36329088"><ele>-4.0</ele><time>2022-11-04T17:29:45.0000000+00:00</time></trkpt><trkpt lat="39.47008557" lon="-0.36327839"><ele>-4.0</ele><time>2022-11-04T17:29:46.0000000+00:00</time></trkpt><trkpt lat="39.47009839" lon="-0.36326741"><ele>-4.0</ele><time>2022-11-04T17:29:47.0000000+00:00</time></trkpt><trkpt lat="39.47011088" lon="-0.36325752"><ele>-4.0</ele><time>2022-11-04T17:29:48.0000000+00:00</time></trkpt><trkpt lat="39.47012345" lon="-0.3632462"><ele>-4.0</ele><time>2022-11-04T17:29:49.0000000+00:00</time></trkpt><trkpt lat="39.47013519" lon="-0.36324017"><ele>-4.0</ele><time>2022-11-04T17:29:50.0000000+00:00</time></trkpt><trkpt lat="39.4701481" lon="-0.36323086"><ele>-4.0</ele><time>2022-11-04T17:29:51.0000000+00:00</time></trkpt><trkpt lat="39.47016042" lon="-0.36322718"><ele>-4.0</ele><time>2022-11-04T17:29:52.0000000+00:00</time></trkpt><trkpt lat="39.4701709" lon="-0.36322466"><ele>-4.0</ele><time>2022-11-04T17:29:53.0000000+00:00</time></trkpt><trkpt lat="39.47018112" lon="-0.36321997"><ele>-4.0</ele><time>2022-11-04T17:29:54.0000000+00:00</time></trkpt><trkpt lat="39.47019554" lon="-0.36321024"><ele>-4.0</ele><time>2022-11-04T17:29:55.0000000+00:00</time></trkpt><trkpt lat="39.47020937" lon="-0.36319834"><ele>-4.0</ele><time>2022-11-04T17:29:56.0000000+00:00</time></trkpt><trkpt lat="39.47022236" lon="-0.36318518"><ele>-4.0</ele><time>2022-11-04T17:29:57.0000000+00:00</time></trkpt><trkpt lat="39.47022932" lon="-0.36317001"><ele>-4.0</ele><time>2022-11-04T17:29:58.0000000+00:00</time></trkpt><trkpt lat="39.47023032" lon="-0.36315149"><ele>-4.0</ele><time>2022-11-04T17:29:59.0000000+00:00</time></trkpt><trkpt lat="39.47023493" lon="-0.36313489"><ele>-4.0</ele><time>2022-11-04T17:30:00.0000000+00:00</time></trkpt><trkpt lat="39.47023762" lon="-0.36312341"><ele>-3.8</ele><time>2022-11-04T17:30:01.0000000+00:00</time></trkpt><trkpt lat="39.47023669" lon="-0.36310815"><ele>-3.8</ele><time>2022-11-04T17:30:02.0000000+00:00</time></trkpt><trkpt lat="39.47023351" lon="-0.36309323"><ele>-3.8</ele><time>2022-11-04T17:30:03.0000000+00:00</time></trkpt><trkpt lat="39.47023493" lon="-0.36307999"><ele>-3.8</ele><time>2022-11-04T17:30:04.0000000+00:00</time></trkpt><trkpt lat="39.47023988" lon="-0.36306666"><ele>-3.8</ele><time>2022-11-04T17:30:05.0000000+00:00</time></trkpt><trkpt lat="39.47024826" lon="-0.36305032"><ele>-3.8</ele><time>2022-11-04T17:30:06.0000000+00:00</time></trkpt><trkpt lat="39.47025438" lon="-0.3630323"><ele>-3.8</ele><time>2022-11-04T17:30:07.0000000+00:00</time></trkpt><trkpt lat="39.4702574" lon="-0.36300589"><ele>-3.8</ele><time>2022-11-04T17:30:08.0000000+00:00</time></trkpt><trkpt lat="39.47025782" lon="-0.36298645"><ele>-3.8</ele><time>2022-11-04T17:30:09.0000000+00:00</time></trkpt><trkpt lat="39.47026025" lon="-0.36296818"><ele>-3.8</ele><time>2022-11-04T17:30:10.0000000+00:00</time></trkpt><trkpt lat="39.47026385" lon="-0.36295258"><ele>-3.8</ele><time>2022-11-04T17:30:11.0000000+00:00</time></trkpt><trkpt lat="39.47026888" lon="-0.36294269"><ele>-4.0</ele><time>2022-11-04T17:30:12.0000000+00:00</time></trkpt><trkpt lat="39.4702776" lon="-0.36293456"><ele>-4.0</ele><time>2022-11-04T17:30:13.0000000+00:00</time></trkpt><trkpt lat="39.4702812" lon="-0.36292182"><ele>-4.0</ele><time>2022-11-04T17:30:14.0000000+00:00</time></trkpt><trkpt lat="39.4702833" lon="-0.36290791"><ele>-4.0</ele><time>2022-11-04T17:30:15.0000000+00:00</time></trkpt><trkpt lat="39.47028481" lon="-0.36289089"><ele>-4.0</ele><time>2022-11-04T17:30:16.0000000+00:00</time></trkpt><trkpt lat="39.4702817" lon="-0.36287623"><ele>-4.2</ele><time>2022-11-04T17:30:17.0000000+00:00</time></trkpt><trkpt lat="39.47027676" lon="-0.3628655"><ele>-4.4</ele><time>2022-11-04T17:30:18.0000000+00:00</time></trkpt><trkpt lat="39.47027517" lon="-0.36285678"><ele>-4.4</ele><time>2022-11-04T17:30:19.0000000+00:00</time></trkpt><trkpt lat="39.47027483" lon="-0.36284924"><ele>-4.6</ele><time>2022-11-04T17:30:20.0000000+00:00</time></trkpt><trkpt lat="39.4702755" lon="-0.3628396"><ele>-4.6</ele><time>2022-11-04T17:30:21.0000000+00:00</time></trkpt><trkpt lat="39.47027441" lon="-0.36283138"><ele>-4.6</ele><time>2022-11-04T17:30:22.0000000+00:00</time></trkpt><trkpt lat="39.47027265" lon="-0.36282275"><ele>-4.8</ele><time>2022-11-04T17:30:23.0000000+00:00</time></trkpt><trkpt lat="39.47027248" lon="-0.36281026"><ele>-4.8</ele><time>2022-11-04T17:30:24.0000000+00:00</time></trkpt><trkpt lat="39.47027659" lon="-0.36278696"><ele>-4.8</ele><time>2022-11-04T17:30:25.0000000+00:00</time></trkpt><trkpt lat="39.47028824" lon="-0.36275678"><ele>-4.8</ele><time>2022-11-04T17:30:26.0000000+00:00</time></trkpt><trkpt lat="39.47030174" lon="-0.36274371"><ele>-4.8</ele><time>2022-11-04T17:30:27.0000000+00:00</time></trkpt><trkpt lat="39.47031389" lon="-0.36276433"><ele>-4.8</ele><time>2022-11-04T17:30:28.0000000+00:00</time></trkpt><trkpt lat="39.47032252" lon="-0.36273985"><ele>-4.8</ele><time>2022-11-04T17:30:29.0000000+00:00</time></trkpt><trkpt lat="39.47032303" lon="-0.36273717"><ele>-4.8</ele><time>2022-11-04T17:30:30.0000000+00:00</time></trkpt><trkpt lat="39.4703128" lon="-0.3627246"><ele>-4.8</ele><time>2022-11-04T17:30:31.0000000+00:00</time></trkpt><trkpt lat="39.47030668" lon="-0.36271446"><ele>-4.8</ele><time>2022-11-04T17:30:32.0000000+00:00</time></trkpt><trkpt lat="39.47030383" lon="-0.36271798"><ele>-4.8</ele><time>2022-11-04T17:30:33.0000000+00:00</time></trkpt><trkpt lat="39.47030492" lon="-0.36271454"><ele>-4.8</ele><time>2022-11-04T17:30:34.0000000+00:00</time></trkpt><trkpt lat="39.47030475" lon="-0.36271898"><ele>-4.8</ele><time>2022-11-04T17:30:35.0000000+00:00</time></trkpt><trkpt lat="39.47030517" lon="-0.36271714"><ele>-4.8</ele><time>2022-11-04T17:30:36.0000000+00:00</time></trkpt><trkpt lat="39.47030911" lon="-0.36272854"><ele>-4.8</ele><time>2022-11-04T17:30:37.0000000+00:00</time></trkpt><trkpt lat="39.47030836" lon="-0.3627225"><ele>-4.8</ele><time>2022-11-04T17:30:38.0000000+00:00</time></trkpt><trkpt lat="39.47030878" lon="-0.36272401"><ele>-4.8</ele><time>2022-11-04T17:30:39.0000000+00:00</time></trkpt><trkpt lat="39.47029352" lon="-0.36278285"><ele>-4.8</ele><time>2022-11-04T17:30:40.0000000+00:00</time></trkpt><trkpt lat="39.47030827" lon="-0.36279224"><ele>-4.8</ele><time>2022-11-04T17:30:41.0000000+00:00</time></trkpt><trkpt lat="39.4703299" lon="-0.36279509"><ele>-4.8</ele><time>2022-11-04T17:30:42.0000000+00:00</time></trkpt><trkpt lat="39.47035211" lon="-0.36280314"><ele>-4.8</ele><time>2022-11-04T17:30:43.0000000+00:00</time></trkpt><trkpt lat="39.47037248" lon="-0.36280674"><ele>-4.8</ele><time>2022-11-04T17:30:44.0000000+00:00</time></trkpt><trkpt lat="39.47039176" lon="-0.36282384"><ele>-4.6</ele><time>2022-11-04T17:30:45.0000000+00:00</time></trkpt><trkpt lat="39.47040886" lon="-0.36285921"><ele>-4.6</ele><time>2022-11-04T17:30:46.0000000+00:00</time></trkpt><trkpt lat="39.47041866" lon="-0.36288662"><ele>-4.4</ele><time>2022-11-04T17:30:47.0000000+00:00</time></trkpt><trkpt lat="39.47043493" lon="-0.36290104"><ele>-4.4</ele><time>2022-11-04T17:30:48.0000000+00:00</time></trkpt><trkpt lat="39.47044892" lon="-0.36291017"><ele>-4.4</ele><time>2022-11-04T17:30:49.0000000+00:00</time></trkpt><trkpt lat="39.47045848" lon="-0.36292627"><ele>-4.4</ele><time>2022-11-04T17:30:50.0000000+00:00</time></trkpt><trkpt lat="39.47045647" lon="-0.36293901"><ele>-4.4</ele><time>2022-11-04T17:30:51.0000000+00:00</time></trkpt><trkpt lat="39.47046435" lon="-0.36295317"><ele>-4.6</ele><time>2022-11-04T17:30:52.0000000+00:00</time></trkpt><trkpt lat="39.4704739" lon="-0.36296591"><ele>-4.6</ele><time>2022-11-04T17:30:53.0000000+00:00</time></trkpt><trkpt lat="39.47048513" lon="-0.3629748"><ele>-4.6</ele><time>2022-11-04T17:30:54.0000000+00:00</time></trkpt><trkpt lat="39.47049896" lon="-0.36297471"><ele>-4.6</ele><time>2022-11-04T17:30:55.0000000+00:00</time></trkpt><trkpt lat="39.47050726" lon="-0.36298075"><ele>-4.6</ele><time>2022-11-04T17:30:56.0000000+00:00</time></trkpt><trkpt lat="39.47051916" lon="-0.36298268"><ele>-4.6</ele><time>2022-11-04T17:30:57.0000000+00:00</time></trkpt><trkpt lat="39.47052352" lon="-0.36299307"><ele>-4.6</ele><time>2022-11-04T17:30:58.0000000+00:00</time></trkpt><trkpt lat="39.47053157" lon="-0.36300581"><ele>-4.6</ele><time>2022-11-04T17:30:59.0000000+00:00</time></trkpt><trkpt lat="39.47054054" lon="-0.36301838"><ele>-4.6</ele><time>2022-11-04T17:31:00.0000000+00:00</time></trkpt><trkpt lat="39.47054934" lon="-0.36302903"><ele>-4.6</ele><time>2022-11-04T17:31:01.0000000+00:00</time></trkpt><trkpt lat="39.47056082" lon="-0.36304101"><ele>-4.6</ele><time>2022-11-04T17:31:02.0000000+00:00</time></trkpt><trkpt lat="39.47057465" lon="-0.36305107"><ele>-4.6</ele><time>2022-11-04T17:31:03.0000000+00:00</time></trkpt><trkpt lat="39.47058898" lon="-0.36306088"><ele>-4.6</ele><time>2022-11-04T17:31:04.0000000+00:00</time></trkpt><trkpt lat="39.47060189" lon="-0.3630701"><ele>-4.6</ele><time>2022-11-04T17:31:05.0000000+00:00</time></trkpt><trkpt lat="39.47061463" lon="-0.36307907"><ele>-4.6</ele><time>2022-11-04T17:31:06.0000000+00:00</time></trkpt><trkpt lat="39.47062494" lon="-0.36308904"><ele>-4.4</ele><time>2022-11-04T17:31:07.0000000+00:00</time></trkpt><trkpt lat="39.47063441" lon="-0.36309885"><ele>-4.4</ele><time>2022-11-04T17:31:08.0000000+00:00</time></trkpt><trkpt lat="39.47064254" lon="-0.36310614"><ele>-4.4</ele><time>2022-11-04T17:31:09.0000000+00:00</time></trkpt><trkpt lat="39.47065193" lon="-0.36311653"><ele>-4.4</ele><time>2022-11-04T17:31:10.0000000+00:00</time></trkpt><trkpt lat="39.47066375" lon="-0.3631286"><ele>-4.4</ele><time>2022-11-04T17:31:11.0000000+00:00</time></trkpt><trkpt lat="39.47067792" lon="-0.36313875"><ele>-4.2</ele><time>2022-11-04T17:31:12.0000000+00:00</time></trkpt><trkpt lat="39.47069074" lon="-0.36315291"><ele>-4.2</ele><time>2022-11-04T17:31:13.0000000+00:00</time></trkpt><trkpt lat="39.47070281" lon="-0.36316549"><ele>-4.4</ele><time>2022-11-04T17:31:14.0000000+00:00</time></trkpt><trkpt lat="39.47071622" lon="-0.36317186"><ele>-4.4</ele><time>2022-11-04T17:31:15.0000000+00:00</time></trkpt><trkpt lat="39.47073324" lon="-0.36318367"><ele>-4.4</ele><time>2022-11-04T17:31:16.0000000+00:00</time></trkpt><trkpt lat="39.47075335" lon="-0.36319273"><ele>-4.6</ele><time>2022-11-04T17:31:17.0000000+00:00</time></trkpt><trkpt lat="39.47076852" lon="-0.3632017"><ele>-4.6</ele><time>2022-11-04T17:31:18.0000000+00:00</time></trkpt><trkpt lat="39.47078579" lon="-0.36320572"><ele>-4.6</ele><time>2022-11-04T17:31:19.0000000+00:00</time></trkpt><trkpt lat="39.4707987" lon="-0.36322039"><ele>-4.6</ele><time>2022-11-04T17:31:20.0000000+00:00</time></trkpt><trkpt lat="39.47080683" lon="-0.36323782"><ele>-4.6</ele><time>2022-11-04T17:31:21.0000000+00:00</time></trkpt><trkpt lat="39.47081764" lon="-0.36324964"><ele>-4.6</ele><time>2022-11-04T17:31:22.0000000+00:00</time></trkpt><trkpt lat="39.47082653" lon="-0.36326489"><ele>-4.8</ele><time>2022-11-04T17:31:23.0000000+00:00</time></trkpt><trkpt lat="39.47083885" lon="-0.36327361"><ele>-4.8</ele><time>2022-11-04T17:31:24.0000000+00:00</time></trkpt><trkpt lat="39.47085385" lon="-0.36328216"><ele>-4.8</ele><time>2022-11-04T17:31:25.0000000+00:00</time></trkpt><trkpt lat="39.47086718" lon="-0.36329364"><ele>-4.8</ele><time>2022-11-04T17:31:26.0000000+00:00</time></trkpt><trkpt lat="39.47088126" lon="-0.3633037"><ele>-4.8</ele><time>2022-11-04T17:31:27.0000000+00:00</time></trkpt><trkpt lat="39.47089417" lon="-0.3633094"><ele>-4.8</ele><time>2022-11-04T17:31:28.0000000+00:00</time></trkpt><trkpt lat="39.47090574" lon="-0.36331351"><ele>-4.8</ele><time>2022-11-04T17:31:29.0000000+00:00</time></trkpt><trkpt lat="39.47091739" lon="-0.36332055"><ele>-4.6</ele><time>2022-11-04T17:31:30.0000000+00:00</time></trkpt><trkpt lat="39.47092719" lon="-0.36332893"><ele>-4.6</ele><time>2022-11-04T17:31:31.0000000+00:00</time></trkpt><trkpt lat="39.47093457" lon="-0.36334301"><ele>-4.6</ele><time>2022-11-04T17:31:32.0000000+00:00</time></trkpt><trkpt lat="39.47093558" lon="-0.36336456"><ele>-4.6</ele><time>2022-11-04T17:31:33.0000000+00:00</time></trkpt><trkpt lat="39.47093717" lon="-0.36337595"><ele>-4.6</ele><time>2022-11-04T17:31:34.0000000+00:00</time></trkpt><trkpt lat="39.47095309" lon="-0.36337721"><ele>-4.6</ele><time>2022-11-04T17:31:35.0000000+00:00</time></trkpt><trkpt lat="39.47096491" lon="-0.36338274"><ele>-4.8</ele><time>2022-11-04T17:31:36.0000000+00:00</time></trkpt><trkpt lat="39.47097489" lon="-0.36339339"><ele>-4.8</ele><time>2022-11-04T17:31:37.0000000+00:00</time></trkpt><trkpt lat="39.47098847" lon="-0.36341091"><ele>-4.8</ele><time>2022-11-04T17:31:38.0000000+00:00</time></trkpt><trkpt lat="39.47099928" lon="-0.36342122"><ele>-4.8</ele><time>2022-11-04T17:31:39.0000000+00:00</time></trkpt><trkpt lat="39.47100816" lon="-0.36343354"><ele>-4.8</ele><time>2022-11-04T17:31:40.0000000+00:00</time></trkpt><trkpt lat="39.47101043" lon="-0.36345181"><ele>-4.8</ele><time>2022-11-04T17:31:41.0000000+00:00</time></trkpt><trkpt lat="39.47101671" lon="-0.36346832"><ele>-4.8</ele><time>2022-11-04T17:31:42.0000000+00:00</time></trkpt><trkpt lat="39.47102753" lon="-0.36347972"><ele>-4.8</ele><time>2022-11-04T17:31:43.0000000+00:00</time></trkpt><trkpt lat="39.47103976" lon="-0.36349079"><ele>-4.6</ele><time>2022-11-04T17:31:44.0000000+00:00</time></trkpt><trkpt lat="39.47105217" lon="-0.36350193"><ele>-4.6</ele><time>2022-11-04T17:31:45.0000000+00:00</time></trkpt><trkpt lat="39.47106441" lon="-0.36351292"><ele>-4.4</ele><time>2022-11-04T17:31:46.0000000+00:00</time></trkpt><trkpt lat="39.47107472" lon="-0.36352633"><ele>-4.4</ele><time>2022-11-04T17:31:47.0000000+00:00</time></trkpt><trkpt lat="39.47108519" lon="-0.36353798"><ele>-4.4</ele><time>2022-11-04T17:31:48.0000000+00:00</time></trkpt><trkpt lat="39.47109835" lon="-0.36354904"><ele>-4.2</ele><time>2022-11-04T17:31:49.0000000+00:00</time></trkpt><trkpt lat="39.47111185" lon="-0.36355935"><ele>-4.4</ele><time>2022-11-04T17:31:50.0000000+00:00</time></trkpt><trkpt lat="39.47112425" lon="-0.36357033"><ele>-4.4</ele><time>2022-11-04T17:31:51.0000000+00:00</time></trkpt><trkpt lat="39.47113607" lon="-0.36358123"><ele>-4.4</ele><time>2022-11-04T17:31:52.0000000+00:00</time></trkpt><trkpt lat="39.47114714" lon="-0.36359162"><ele>-4.4</ele><time>2022-11-04T17:31:53.0000000+00:00</time></trkpt><trkpt lat="39.47115862" lon="-0.36360059"><ele>-4.4</ele><time>2022-11-04T17:31:54.0000000+00:00</time></trkpt><trkpt lat="39.4711696" lon="-0.36360947"><ele>-4.4</ele><time>2022-11-04T17:31:55.0000000+00:00</time></trkpt><trkpt lat="39.47117999" lon="-0.36361719"><ele>-4.4</ele><time>2022-11-04T17:31:56.0000000+00:00</time></trkpt><trkpt lat="39.47118997" lon="-0.36362666"><ele>-4.4</ele><time>2022-11-04T17:31:57.0000000+00:00</time></trkpt><trkpt lat="39.47120095" lon="-0.36363336"><ele>-4.4</ele><time>2022-11-04T17:31:58.0000000+00:00</time></trkpt><trkpt lat="39.47121235" lon="-0.36363957"><ele>-4.2</ele><time>2022-11-04T17:31:59.0000000+00:00</time></trkpt><trkpt lat="39.47122341" lon="-0.36364594"><ele>-4.2</ele><time>2022-11-04T17:32:00.0000000+00:00</time></trkpt><trkpt lat="39.47123447" lon="-0.36365717"><ele>-4.2</ele><time>2022-11-04T17:32:01.0000000+00:00</time></trkpt><trkpt lat="39.47124437" lon="-0.36366387"><ele>-4.2</ele><time>2022-11-04T17:32:02.0000000+00:00</time></trkpt><trkpt lat="39.47124654" lon="-0.36367619"><ele>-4.2</ele><time>2022-11-04T17:32:03.0000000+00:00</time></trkpt><trkpt lat="39.47124638" lon="-0.36369447"><ele>-4.2</ele><time>2022-11-04T17:32:04.0000000+00:00</time></trkpt><trkpt lat="39.47125509" lon="-0.36370863"><ele>-4.2</ele><time>2022-11-04T17:32:05.0000000+00:00</time></trkpt><trkpt lat="39.47126205" lon="-0.36372498"><ele>-4.2</ele><time>2022-11-04T17:32:06.0000000+00:00</time></trkpt><trkpt lat="39.47126607" lon="-0.36373797"><ele>-4.2</ele><time>2022-11-04T17:32:07.0000000+00:00</time></trkpt><trkpt lat="39.47126322" lon="-0.36376043"><ele>-4.2</ele><time>2022-11-04T17:32:08.0000000+00:00</time></trkpt><trkpt lat="39.47127303" lon="-0.36377108"><ele>-4.2</ele><time>2022-11-04T17:32:09.0000000+00:00</time></trkpt><trkpt lat="39.47128971" lon="-0.36377627"><ele>-4.0</ele><time>2022-11-04T17:32:10.0000000+00:00</time></trkpt><trkpt lat="39.47131109" lon="-0.36377502"><ele>-4.0</ele><time>2022-11-04T17:32:11.0000000+00:00</time></trkpt><trkpt lat="39.47133556" lon="-0.36376664"><ele>-3.8</ele><time>2022-11-04T17:32:12.0000000+00:00</time></trkpt><trkpt lat="39.4713514" lon="-0.36376538"><ele>-3.8</ele><time>2022-11-04T17:32:13.0000000+00:00</time></trkpt><trkpt lat="39.47136113" lon="-0.36377049"><ele>-3.8</ele><time>2022-11-04T17:32:14.0000000+00:00</time></trkpt><trkpt lat="39.4713737" lon="-0.36378306"><ele>-3.8</ele><time>2022-11-04T17:32:15.0000000+00:00</time></trkpt><trkpt lat="39.47138962" lon="-0.36379832"><ele>-3.8</ele><time>2022-11-04T17:32:16.0000000+00:00</time></trkpt><trkpt lat="39.47141125" lon="-0.36381525"><ele>-3.8</ele><time>2022-11-04T17:32:17.0000000+00:00</time></trkpt><trkpt lat="39.471441" lon="-0.36381852"><ele>-3.8</ele><time>2022-11-04T17:32:18.0000000+00:00</time></trkpt><trkpt lat="39.47146825" lon="-0.36383621"><ele>-3.8</ele><time>2022-11-04T17:32:19.0000000+00:00</time></trkpt><trkpt lat="39.47148778" lon="-0.36384492"><ele>-3.8</ele><time>2022-11-04T17:32:20.0000000+00:00</time></trkpt><trkpt lat="39.47149733" lon="-0.36385657"><ele>-3.8</ele><time>2022-11-04T17:32:21.0000000+00:00</time></trkpt><trkpt lat="39.47150714" lon="-0.36386596"><ele>-3.8</ele><time>2022-11-04T17:32:22.0000000+00:00</time></trkpt><trkpt lat="39.47151678" lon="-0.36387325"><ele>-3.8</ele><time>2022-11-04T17:32:23.0000000+00:00</time></trkpt><trkpt lat="39.47153078" lon="-0.3638756"><ele>-3.6</ele><time>2022-11-04T17:32:24.0000000+00:00</time></trkpt><trkpt lat="39.47154301" lon="-0.36387879"><ele>-3.6</ele><time>2022-11-04T17:32:25.0000000+00:00</time></trkpt><trkpt lat="39.47155215" lon="-0.36388775"><ele>-3.4</ele><time>2022-11-04T17:32:26.0000000+00:00</time></trkpt><trkpt lat="39.47156455" lon="-0.3638994"><ele>-3.4</ele><time>2022-11-04T17:32:27.0000000+00:00</time></trkpt><trkpt lat="39.47157671" lon="-0.36390712"><ele>-3.4</ele><time>2022-11-04T17:32:28.0000000+00:00</time></trkpt><trkpt lat="39.47158568" lon="-0.3639186"><ele>-3.2</ele><time>2022-11-04T17:32:29.0000000+00:00</time></trkpt><trkpt lat="39.47159909" lon="-0.36392639"><ele>-3.2</ele><time>2022-11-04T17:32:30.0000000+00:00</time></trkpt><trkpt lat="39.47161418" lon="-0.36393226"><ele>-3.2</ele><time>2022-11-04T17:32:31.0000000+00:00</time></trkpt><trkpt lat="39.47163052" lon="-0.36394198"><ele>-3.2</ele><time>2022-11-04T17:32:32.0000000+00:00</time></trkpt><trkpt lat="39.47164645" lon="-0.36395037"><ele>-3.2</ele><time>2022-11-04T17:32:33.0000000+00:00</time></trkpt><trkpt lat="39.47166128" lon="-0.3639528"><ele>-3.2</ele><time>2022-11-04T17:32:34.0000000+00:00</time></trkpt><trkpt lat="39.47167427" lon="-0.36396487"><ele>-3.4</ele><time>2022-11-04T17:32:35.0000000+00:00</time></trkpt><trkpt lat="39.47168509" lon="-0.36397342"><ele>-3.4</ele><time>2022-11-04T17:32:36.0000000+00:00</time></trkpt><trkpt lat="39.47169489" lon="-0.36398465"><ele>-3.4</ele><time>2022-11-04T17:32:37.0000000+00:00</time></trkpt><trkpt lat="39.47170537" lon="-0.36399714"><ele>-3.4</ele><time>2022-11-04T17:32:38.0000000+00:00</time></trkpt><trkpt lat="39.47171727" lon="-0.36400753"><ele>-3.4</ele><time>2022-11-04T17:32:39.0000000+00:00</time></trkpt><trkpt lat="39.47172884" lon="-0.36401784"><ele>-3.4</ele><time>2022-11-04T17:32:40.0000000+00:00</time></trkpt><trkpt lat="39.4717415" lon="-0.36402681"><ele>-3.4</ele><time>2022-11-04T17:32:41.0000000+00:00</time></trkpt><trkpt lat="39.47175382" lon="-0.36403813"><ele>-3.4</ele><time>2022-11-04T17:32:42.0000000+00:00</time></trkpt><trkpt lat="39.47176597" lon="-0.36405078"><ele>-3.4</ele><time>2022-11-04T17:32:43.0000000+00:00</time></trkpt><trkpt lat="39.47177863" lon="-0.36406478"><ele>-3.4</ele><time>2022-11-04T17:32:44.0000000+00:00</time></trkpt><trkpt lat="39.4717907" lon="-0.36407769"><ele>-3.4</ele><time>2022-11-04T17:32:45.0000000+00:00</time></trkpt><trkpt lat="39.47180403" lon="-0.36408967"><ele>-3.4</ele><time>2022-11-04T17:32:46.0000000+00:00</time></trkpt><trkpt lat="39.47181635" lon="-0.36410166"><ele>-3.4</ele><time>2022-11-04T17:32:47.0000000+00:00</time></trkpt><trkpt lat="39.47182548" lon="-0.36411264"><ele>-3.6</ele><time>2022-11-04T17:32:48.0000000+00:00</time></trkpt><trkpt lat="39.47183814" lon="-0.36412144"><ele>-3.6</ele><time>2022-11-04T17:32:49.0000000+00:00</time></trkpt><trkpt lat="39.47185214" lon="-0.3641315"><ele>-3.6</ele><time>2022-11-04T17:32:50.0000000+00:00</time></trkpt><trkpt lat="39.47186396" lon="-0.36414466"><ele>-3.6</ele><time>2022-11-04T17:32:51.0000000+00:00</time></trkpt><trkpt lat="39.47187468" lon="-0.36415715"><ele>-3.6</ele><time>2022-11-04T17:32:52.0000000+00:00</time></trkpt><trkpt lat="39.47188608" lon="-0.36416511"><ele>-3.6</ele><time>2022-11-04T17:32:53.0000000+00:00</time></trkpt><trkpt lat="39.47189698" lon="-0.36417752"><ele>-3.6</ele><time>2022-11-04T17:32:54.0000000+00:00</time></trkpt><trkpt lat="39.47190645" lon="-0.36419109"><ele>-3.6</ele><time>2022-11-04T17:32:55.0000000+00:00</time></trkpt><trkpt lat="39.47191726" lon="-0.36420241"><ele>-3.4</ele><time>2022-11-04T17:32:56.0000000+00:00</time></trkpt><trkpt lat="39.4719264" lon="-0.36421456"><ele>-3.4</ele><time>2022-11-04T17:32:57.0000000+00:00</time></trkpt><trkpt lat="39.47193579" lon="-0.36422697"><ele>-3.4</ele><time>2022-11-04T17:32:58.0000000+00:00</time></trkpt><trkpt lat="39.47194392" lon="-0.36423904"><ele>-3.4</ele><time>2022-11-04T17:32:59.0000000+00:00</time></trkpt><trkpt lat="39.47195113" lon="-0.36425128"><ele>-3.4</ele><time>2022-11-04T17:33:00.0000000+00:00</time></trkpt><trkpt lat="39.47196228" lon="-0.36425924"><ele>-3.4</ele><time>2022-11-04T17:33:01.0000000+00:00</time></trkpt><trkpt lat="39.47197334" lon="-0.36426611"><ele>-3.4</ele><time>2022-11-04T17:33:02.0000000+00:00</time></trkpt><trkpt lat="39.47198449" lon="-0.36427382"><ele>-3.4</ele><time>2022-11-04T17:33:03.0000000+00:00</time></trkpt><trkpt lat="39.47199161" lon="-0.36428154"><ele>-3.2</ele><time>2022-11-04T17:33:04.0000000+00:00</time></trkpt><trkpt lat="39.47200083" lon="-0.36428908"><ele>-3.0</ele><time>2022-11-04T17:33:05.0000000+00:00</time></trkpt><trkpt lat="39.47201248" lon="-0.36429763"><ele>-3.0</ele><time>2022-11-04T17:33:06.0000000+00:00</time></trkpt><trkpt lat="39.47201894" lon="-0.36430467"><ele>-3.0</ele><time>2022-11-04T17:33:07.0000000+00:00</time></trkpt><trkpt lat="39.47202221" lon="-0.36430677"><ele>-3.0</ele><time>2022-11-04T17:33:08.0000000+00:00</time></trkpt><trkpt lat="39.47202355" lon="-0.36430702"><ele>-3.2</ele><time>2022-11-04T17:33:09.0000000+00:00</time></trkpt><trkpt lat="39.4720243" lon="-0.36430643"><ele>-3.2</ele><time>2022-11-04T17:33:10.0000000+00:00</time></trkpt><trkpt lat="39.4720248" lon="-0.36430509"><ele>-3.4</ele><time>2022-11-04T17:33:11.0000000+00:00</time></trkpt><trkpt lat="39.47202531" lon="-0.364304"><ele>-3.4</ele><time>2022-11-04T17:33:12.0000000+00:00</time></trkpt><trkpt lat="39.47202539" lon="-0.36430324"><ele>-3.4</ele><time>2022-11-04T17:33:13.0000000+00:00</time></trkpt><trkpt lat="39.47202489" lon="-0.36430392"><ele>-3.4</ele><time>2022-11-04T17:33:14.0000000+00:00</time></trkpt><trkpt lat="39.47202447" lon="-0.3643045"><ele>-3.4</ele><time>2022-11-04T17:33:15.0000000+00:00</time></trkpt><trkpt lat="39.47202388" lon="-0.36430584"><ele>-3.4</ele><time>2022-11-04T17:33:16.0000000+00:00</time></trkpt><trkpt lat="39.47202321" lon="-0.36430685"><ele>-3.4</ele><time>2022-11-04T17:33:17.0000000+00:00</time></trkpt><trkpt lat="39.4720233" lon="-0.36430559"><ele>-3.4</ele><time>2022-11-04T17:33:18.0000000+00:00</time></trkpt><trkpt lat="39.47202338" lon="-0.36430375"><ele>-3.4</ele><time>2022-11-04T17:33:19.0000000+00:00</time></trkpt><trkpt lat="39.47202271" lon="-0.36430576"><ele>-3.4</ele><time>2022-11-04T17:33:20.0000000+00:00</time></trkpt><trkpt lat="39.47202271" lon="-0.36430576"><ele>-3.4</ele><time>2022-11-04T17:33:21.0000000+00:00</time></trkpt><trkpt lat="39.47202271" lon="-0.36430576"><ele>-3.4</ele><time>2022-11-04T17:33:22.0000000+00:00</time></trkpt><trkpt lat="39.47202271" lon="-0.36430576"><ele>-3.4</ele><time>2022-11-04T17:33:23.0000000+00:00</time></trkpt><trkpt lat="39.47202271" lon="-0.36430576"><ele>-3.6</ele><time>2022-11-04T17:33:24.0000000+00:00</time></trkpt><trkpt lat="39.47202271" lon="-0.36430576"><ele>-3.6</ele><time>2022-11-04T17:33:25.0000000+00:00</time></trkpt><trkpt lat="39.47202271" lon="-0.36430576"><ele>-3.6</ele><time>2022-11-04T17:33:26.0000000+00:00</time></trkpt><trkpt lat="39.47202271" lon="-0.36430576"><ele>-3.6</ele><time>2022-11-04T17:33:27.0000000+00:00</time></trkpt><trkpt lat="39.47202271" lon="-0.36430576"><ele>-3.4</ele><time>2022-11-04T17:33:28.0000000+00:00</time></trkpt><trkpt lat="39.47202271" lon="-0.36430576"><ele>-3.4</ele><time>2022-11-04T17:33:29.0000000+00:00</time></trkpt><trkpt lat="39.47202271" lon="-0.36430576"><ele>-3.4</ele><time>2022-11-04T17:33:30.0000000+00:00</time></trkpt><trkpt lat="39.47202271" lon="-0.36430576"><ele>-3.4</ele><time>2022-11-04T17:33:31.0000000+00:00</time></trkpt><trkpt lat="39.47202698" lon="-0.36430702"><ele>-3.4</ele><time>2022-11-04T17:33:32.0000000+00:00</time></trkpt><trkpt lat="39.47204199" lon="-0.36431213"><ele>-3.4</ele><time>2022-11-04T17:33:33.0000000+00:00</time></trkpt><trkpt lat="39.47205557" lon="-0.36432462"><ele>-3.4</ele><time>2022-11-04T17:33:34.0000000+00:00</time></trkpt><trkpt lat="39.47206479" lon="-0.36434071"><ele>-3.2</ele><time>2022-11-04T17:33:35.0000000+00:00</time></trkpt><trkpt lat="39.47207593" lon="-0.36435496"><ele>-3.2</ele><time>2022-11-04T17:33:36.0000000+00:00</time></trkpt><trkpt lat="39.47208867" lon="-0.36436603"><ele>-3.2</ele><time>2022-11-04T17:33:37.0000000+00:00</time></trkpt><trkpt lat="39.47210318" lon="-0.36437583"><ele>-3.2</ele><time>2022-11-04T17:33:38.0000000+00:00</time></trkpt><trkpt lat="39.47212069" lon="-0.36438656"><ele>-3.0</ele><time>2022-11-04T17:33:39.0000000+00:00</time></trkpt><trkpt lat="39.47213687" lon="-0.36439645"><ele>-3.0</ele><time>2022-11-04T17:33:40.0000000+00:00</time></trkpt><trkpt lat="39.47215347" lon="-0.36440726"><ele>-3.0</ele><time>2022-11-04T17:33:41.0000000+00:00</time></trkpt><trkpt lat="39.47216579" lon="-0.36441992"><ele>-3.2</ele><time>2022-11-04T17:33:42.0000000+00:00</time></trkpt><trkpt lat="39.47217702" lon="-0.36442864"><ele>-3.0</ele><time>2022-11-04T17:33:43.0000000+00:00</time></trkpt><trkpt lat="39.47219043" lon="-0.36443434"><ele>-3.0</ele><time>2022-11-04T17:33:44.0000000+00:00</time></trkpt><trkpt lat="39.472202" lon="-0.3644418"><ele>-3.0</ele><time>2022-11-04T17:33:45.0000000+00:00</time></trkpt><trkpt lat="39.47221574" lon="-0.36444909"><ele>-3.0</ele><time>2022-11-04T17:33:46.0000000+00:00</time></trkpt><trkpt lat="39.47223117" lon="-0.36445865"><ele>-2.8</ele><time>2022-11-04T17:33:47.0000000+00:00</time></trkpt><trkpt lat="39.47224332" lon="-0.36447214"><ele>-2.6</ele><time>2022-11-04T17:33:48.0000000+00:00</time></trkpt><trkpt lat="39.47225346" lon="-0.36448631"><ele>-2.6</ele><time>2022-11-04T17:33:49.0000000+00:00</time></trkpt><trkpt lat="39.47226545" lon="-0.36450005"><ele>-2.6</ele><time>2022-11-04T17:33:50.0000000+00:00</time></trkpt><trkpt lat="39.47227718" lon="-0.3645169"><ele>-2.6</ele><time>2022-11-04T17:33:51.0000000+00:00</time></trkpt><trkpt lat="39.47228909" lon="-0.36452989"><ele>-2.6</ele><time>2022-11-04T17:33:52.0000000+00:00</time></trkpt><trkpt lat="39.472303" lon="-0.36454087"><ele>-2.6</ele><time>2022-11-04T17:33:53.0000000+00:00</time></trkpt><trkpt lat="39.47231524" lon="-0.3645511"><ele>-2.6</ele><time>2022-11-04T17:33:54.0000000+00:00</time></trkpt><trkpt lat="39.47232748" lon="-0.36456124"><ele>-2.6</ele><time>2022-11-04T17:33:55.0000000+00:00</time></trkpt><trkpt lat="39.47234139" lon="-0.36456795"><ele>-2.6</ele><time>2022-11-04T17:33:56.0000000+00:00</time></trkpt><trkpt lat="39.47235597" lon="-0.36457415"><ele>-2.6</ele><time>2022-11-04T17:33:57.0000000+00:00</time></trkpt><trkpt lat="39.47236578" lon="-0.3645796"><ele>-2.6</ele><time>2022-11-04T17:33:58.0000000+00:00</time></trkpt><trkpt lat="39.4723781" lon="-0.36458622"><ele>-2.8</ele><time>2022-11-04T17:33:59.0000000+00:00</time></trkpt><trkpt lat="39.47238942" lon="-0.36459661"><ele>-2.8</ele><time>2022-11-04T17:34:00.0000000+00:00</time></trkpt><trkpt lat="39.47240224" lon="-0.364606"><ele>-3.0</ele><time>2022-11-04T17:34:01.0000000+00:00</time></trkpt><trkpt lat="39.47241188" lon="-0.36461446"><ele>-3.0</ele><time>2022-11-04T17:34:02.0000000+00:00</time></trkpt><trkpt lat="39.47242135" lon="-0.36462058"><ele>-3.0</ele><time>2022-11-04T17:34:03.0000000+00:00</time></trkpt><trkpt lat="39.47242797" lon="-0.36462553"><ele>-3.2</ele><time>2022-11-04T17:34:04.0000000+00:00</time></trkpt><trkpt lat="39.47244147" lon="-0.3646298"><ele>-3.2</ele><time>2022-11-04T17:34:05.0000000+00:00</time></trkpt><trkpt lat="39.47245161" lon="-0.36463383"><ele>-3.2</ele><time>2022-11-04T17:34:06.0000000+00:00</time></trkpt><trkpt lat="39.47246108" lon="-0.36463768"><ele>-3.4</ele><time>2022-11-04T17:34:07.0000000+00:00</time></trkpt><trkpt lat="39.47247315" lon="-0.36463978"><ele>-3.4</ele><time>2022-11-04T17:34:08.0000000+00:00</time></trkpt><trkpt lat="39.47248715" lon="-0.36463969"><ele>-3.4</ele><time>2022-11-04T17:34:09.0000000+00:00</time></trkpt><trkpt lat="39.47249788" lon="-0.3646428"><ele>-3.4</ele><time>2022-11-04T17:34:10.0000000+00:00</time></trkpt><trkpt lat="39.47251037" lon="-0.36464506"><ele>-3.4</ele><time>2022-11-04T17:34:11.0000000+00:00</time></trkpt><trkpt lat="39.47252437" lon="-0.36465218"><ele>-3.2</ele><time>2022-11-04T17:34:12.0000000+00:00</time></trkpt><trkpt lat="39.47253635" lon="-0.36466509"><ele>-3.2</ele><time>2022-11-04T17:34:13.0000000+00:00</time></trkpt><trkpt lat="39.47254624" lon="-0.36467875"><ele>-3.2</ele><time>2022-11-04T17:34:14.0000000+00:00</time></trkpt><trkpt lat="39.47255689" lon="-0.36468906"><ele>-3.2</ele><time>2022-11-04T17:34:15.0000000+00:00</time></trkpt><trkpt lat="39.47256988" lon="-0.36470021"><ele>-3.0</ele><time>2022-11-04T17:34:16.0000000+00:00</time></trkpt><trkpt lat="39.47258396" lon="-0.36470826"><ele>-3.0</ele><time>2022-11-04T17:34:17.0000000+00:00</time></trkpt><trkpt lat="39.4725972" lon="-0.36471815"><ele>-2.8</ele><time>2022-11-04T17:34:18.0000000+00:00</time></trkpt><trkpt lat="39.47261053" lon="-0.36472678"><ele>-2.8</ele><time>2022-11-04T17:34:19.0000000+00:00</time></trkpt><trkpt lat="39.47262193" lon="-0.36473282"><ele>-2.8</ele><time>2022-11-04T17:34:20.0000000+00:00</time></trkpt><trkpt lat="39.47263618" lon="-0.36473952"><ele>-2.6</ele><time>2022-11-04T17:34:21.0000000+00:00</time></trkpt><trkpt lat="39.47265135" lon="-0.36474656"><ele>-2.4</ele><time>2022-11-04T17:34:22.0000000+00:00</time></trkpt><trkpt lat="39.47266527" lon="-0.3647526"><ele>-2.4</ele><time>2022-11-04T17:34:23.0000000+00:00</time></trkpt><trkpt lat="39.47267616" lon="-0.36475662"><ele>-2.4</ele><time>2022-11-04T17:34:24.0000000+00:00</time></trkpt><trkpt lat="39.47268848" lon="-0.36476207"><ele>-2.2</ele><time>2022-11-04T17:34:25.0000000+00:00</time></trkpt><trkpt lat="39.47270307" lon="-0.36476509"><ele>-2.2</ele><time>2022-11-04T17:34:26.0000000+00:00</time></trkpt><trkpt lat="39.47272059" lon="-0.36476467"><ele>-2.2</ele><time>2022-11-04T17:34:27.0000000+00:00</time></trkpt><trkpt lat="39.47273475" lon="-0.36477414"><ele>-2.2</ele><time>2022-11-04T17:34:28.0000000+00:00</time></trkpt><trkpt lat="39.47274548" lon="-0.36478353"><ele>-2.4</ele><time>2022-11-04T17:34:29.0000000+00:00</time></trkpt><trkpt lat="39.47275713" lon="-0.36478981"><ele>-2.4</ele><time>2022-11-04T17:34:30.0000000+00:00</time></trkpt><trkpt lat="39.47276895" lon="-0.36479275"><ele>-2.6</ele><time>2022-11-04T17:34:31.0000000+00:00</time></trkpt><trkpt lat="39.47278043" lon="-0.36479627"><ele>-2.6</ele><time>2022-11-04T17:34:32.0000000+00:00</time></trkpt><trkpt lat="39.4727915" lon="-0.36480255"><ele>-2.6</ele><time>2022-11-04T17:34:33.0000000+00:00</time></trkpt><trkpt lat="39.47280256" lon="-0.36481169"><ele>-2.8</ele><time>2022-11-04T17:34:34.0000000+00:00</time></trkpt><trkpt lat="39.47281379" lon="-0.36482871"><ele>-2.8</ele><time>2022-11-04T17:34:35.0000000+00:00</time></trkpt><trkpt lat="39.4728241" lon="-0.36484379"><ele>-3.0</ele><time>2022-11-04T17:34:36.0000000+00:00</time></trkpt><trkpt lat="39.47283265" lon="-0.36485729"><ele>-3.0</ele><time>2022-11-04T17:34:37.0000000+00:00</time></trkpt><trkpt lat="39.47283517" lon="-0.36486986"><ele>-2.8</ele><time>2022-11-04T17:34:38.0000000+00:00</time></trkpt><trkpt lat="39.47284103" lon="-0.36488235"><ele>-2.8</ele><time>2022-11-04T17:34:39.0000000+00:00</time></trkpt><trkpt lat="39.47285403" lon="-0.36489115"><ele>-3.0</ele><time>2022-11-04T17:34:40.0000000+00:00</time></trkpt><trkpt lat="39.47286978" lon="-0.36490389"><ele>-3.0</ele><time>2022-11-04T17:34:41.0000000+00:00</time></trkpt><trkpt lat="39.47288068" lon="-0.36491462"><ele>-3.0</ele><time>2022-11-04T17:34:42.0000000+00:00</time></trkpt><trkpt lat="39.47289292" lon="-0.36492535"><ele>-3.0</ele><time>2022-11-04T17:34:43.0000000+00:00</time></trkpt><trkpt lat="39.47290574" lon="-0.36493063"><ele>-3.0</ele><time>2022-11-04T17:34:44.0000000+00:00</time></trkpt><trkpt lat="39.4729189" lon="-0.36493683"><ele>-3.2</ele><time>2022-11-04T17:34:45.0000000+00:00</time></trkpt><trkpt lat="39.47293189" lon="-0.36494345"><ele>-3.2</ele><time>2022-11-04T17:34:46.0000000+00:00</time></trkpt><trkpt lat="39.47294623" lon="-0.36494832"><ele>-3.4</ele><time>2022-11-04T17:34:47.0000000+00:00</time></trkpt><trkpt lat="39.47295939" lon="-0.36495569"><ele>-3.4</ele><time>2022-11-04T17:34:48.0000000+00:00</time></trkpt><trkpt lat="39.47297079" lon="-0.36496189"><ele>-3.4</ele><time>2022-11-04T17:34:49.0000000+00:00</time></trkpt><trkpt lat="39.47298386" lon="-0.36496919"><ele>-3.4</ele><time>2022-11-04T17:34:50.0000000+00:00</time></trkpt><trkpt lat="39.47299744" lon="-0.3649769"><ele>-3.4</ele><time>2022-11-04T17:34:51.0000000+00:00</time></trkpt><trkpt lat="39.47300985" lon="-0.36498603"><ele>-3.4</ele><time>2022-11-04T17:34:52.0000000+00:00</time></trkpt><trkpt lat="39.47301798" lon="-0.36499827"><ele>-3.4</ele><time>2022-11-04T17:34:53.0000000+00:00</time></trkpt><trkpt lat="39.47302787" lon="-0.36501101"><ele>-3.2</ele><time>2022-11-04T17:34:54.0000000+00:00</time></trkpt><trkpt lat="39.47304178" lon="-0.36501973"><ele>-3.4</ele><time>2022-11-04T17:34:55.0000000+00:00</time></trkpt><trkpt lat="39.47305393" lon="-0.36503113"><ele>-3.4</ele><time>2022-11-04T17:34:56.0000000+00:00</time></trkpt><trkpt lat="39.47306969" lon="-0.36504127"><ele>-3.4</ele><time>2022-11-04T17:34:57.0000000+00:00</time></trkpt><trkpt lat="39.47308336" lon="-0.36505225"><ele>-3.2</ele><time>2022-11-04T17:34:58.0000000+00:00</time></trkpt><trkpt lat="39.4730935" lon="-0.36506482"><ele>-3.4</ele><time>2022-11-04T17:34:59.0000000+00:00</time></trkpt><trkpt lat="39.47310112" lon="-0.3650774"><ele>-3.4</ele><time>2022-11-04T17:35:00.0000000+00:00</time></trkpt><trkpt lat="39.47310724" lon="-0.36509081"><ele>-3.4</ele><time>2022-11-04T17:35:01.0000000+00:00</time></trkpt><trkpt lat="39.47311378" lon="-0.36510246"><ele>-3.4</ele><time>2022-11-04T17:35:02.0000000+00:00</time></trkpt><trkpt lat="39.47312057" lon="-0.3651121"><ele>-3.4</ele><time>2022-11-04T17:35:03.0000000+00:00</time></trkpt><trkpt lat="39.47312476" lon="-0.36512283"><ele>-3.4</ele><time>2022-11-04T17:35:04.0000000+00:00</time></trkpt><trkpt lat="39.47312602" lon="-0.36513339"><ele>-3.4</ele><time>2022-11-04T17:35:05.0000000+00:00</time></trkpt><trkpt lat="39.47312744" lon="-0.36514127"><ele>-3.2</ele><time>2022-11-04T17:35:06.0000000+00:00</time></trkpt><trkpt lat="39.47312887" lon="-0.36514638"><ele>-3.2</ele><time>2022-11-04T17:35:07.0000000+00:00</time></trkpt><trkpt lat="39.47313013" lon="-0.36514789"><ele>-3.0</ele><time>2022-11-04T17:35:08.0000000+00:00</time></trkpt><trkpt lat="39.47313013" lon="-0.36514806"><ele>-3.0</ele><time>2022-11-04T17:35:09.0000000+00:00</time></trkpt><trkpt lat="39.47312853" lon="-0.36514982"><ele>-3.0</ele><time>2022-11-04T17:35:10.0000000+00:00</time></trkpt><trkpt lat="39.47313264" lon="-0.36514931"><ele>-3.0</ele><time>2022-11-04T17:35:11.0000000+00:00</time></trkpt><trkpt lat="39.47314203" lon="-0.36515082"><ele>-3.2</ele><time>2022-11-04T17:35:12.0000000+00:00</time></trkpt><trkpt lat="39.47315242" lon="-0.36515376"><ele>-3.2</ele><time>2022-11-04T17:35:13.0000000+00:00</time></trkpt><trkpt lat="39.47315997" lon="-0.36516013"><ele>-3.2</ele><time>2022-11-04T17:35:14.0000000+00:00</time></trkpt><trkpt lat="39.47317044" lon="-0.36516314"><ele>-3.2</ele><time>2022-11-04T17:35:15.0000000+00:00</time></trkpt><trkpt lat="39.47318268" lon="-0.36516633"><ele>-3.2</ele><time>2022-11-04T17:35:16.0000000+00:00</time></trkpt><trkpt lat="39.47319341" lon="-0.3651675"><ele>-3.2</ele><time>2022-11-04T17:35:17.0000000+00:00</time></trkpt><trkpt lat="39.47320456" lon="-0.36516977"><ele>-3.2</ele><time>2022-11-04T17:35:18.0000000+00:00</time></trkpt><trkpt lat="39.47321671" lon="-0.36517387"><ele>-3.2</ele><time>2022-11-04T17:35:19.0000000+00:00</time></trkpt><trkpt lat="39.47322551" lon="-0.36517823"><ele>-3.2</ele><time>2022-11-04T17:35:20.0000000+00:00</time></trkpt><trkpt lat="39.47323247" lon="-0.365182"><ele>-3.2</ele><time>2022-11-04T17:35:21.0000000+00:00</time></trkpt><trkpt lat="39.47323909" lon="-0.36518678"><ele>-3.2</ele><time>2022-11-04T17:35:22.0000000+00:00</time></trkpt><trkpt lat="39.47324731" lon="-0.36518854"><ele>-3.2</ele><time>2022-11-04T17:35:23.0000000+00:00</time></trkpt><trkpt lat="39.47325544" lon="-0.36519315"><ele>-3.2</ele><time>2022-11-04T17:35:24.0000000+00:00</time></trkpt><trkpt lat="39.47325879" lon="-0.36519525"><ele>-3.2</ele><time>2022-11-04T17:35:25.0000000+00:00</time></trkpt><trkpt lat="39.47326063" lon="-0.36520229"><ele>-3.2</ele><time>2022-11-04T17:35:26.0000000+00:00</time></trkpt><trkpt lat="39.4732644" lon="-0.36520673"><ele>-3.2</ele><time>2022-11-04T17:35:27.0000000+00:00</time></trkpt><trkpt lat="39.47327036" lon="-0.36521226"><ele>-3.2</ele><time>2022-11-04T17:35:28.0000000+00:00</time></trkpt><trkpt lat="39.47327572" lon="-0.36522106"><ele>-3.2</ele><time>2022-11-04T17:35:29.0000000+00:00</time></trkpt><trkpt lat="39.47327832" lon="-0.3652281"><ele>-3.2</ele><time>2022-11-04T17:35:30.0000000+00:00</time></trkpt><trkpt lat="39.47328393" lon="-0.36522936"><ele>-3.2</ele><time>2022-11-04T17:35:31.0000000+00:00</time></trkpt><trkpt lat="39.47328972" lon="-0.36522785"><ele>-3.2</ele><time>2022-11-04T17:35:32.0000000+00:00</time></trkpt><trkpt lat="39.47329416" lon="-0.36522517"><ele>-3.2</ele><time>2022-11-04T17:35:33.0000000+00:00</time></trkpt><trkpt lat="39.47329475" lon="-0.36522484"><ele>-3.2</ele><time>2022-11-04T17:35:34.0000000+00:00</time></trkpt><trkpt lat="39.47329693" lon="-0.36522668"><ele>-3.2</ele><time>2022-11-04T17:35:35.0000000+00:00</time></trkpt><trkpt lat="39.47329936" lon="-0.36522945"><ele>-3.2</ele><time>2022-11-04T17:35:36.0000000+00:00</time></trkpt><trkpt lat="39.4733007" lon="-0.36523213"><ele>-3.2</ele><time>2022-11-04T17:35:37.0000000+00:00</time></trkpt><trkpt lat="39.47329919" lon="-0.36523607"><ele>-3.2</ele><time>2022-11-04T17:35:38.0000000+00:00</time></trkpt><trkpt lat="39.47329986" lon="-0.36524084"><ele>-3.2</ele><time>2022-11-04T17:35:39.0000000+00:00</time></trkpt><trkpt lat="39.47330698" lon="-0.36523582"><ele>-3.2</ele><time>2022-11-04T17:35:40.0000000+00:00</time></trkpt><trkpt lat="39.47331998" lon="-0.36522919"><ele>-3.2</ele><time>2022-11-04T17:35:41.0000000+00:00</time></trkpt><trkpt lat="39.47332702" lon="-0.36520539"><ele>-3.2</ele><time>2022-11-04T17:35:42.0000000+00:00</time></trkpt><trkpt lat="39.47332987" lon="-0.36519064"><ele>-3.2</ele><time>2022-11-04T17:35:43.0000000+00:00</time></trkpt><trkpt lat="39.47333439" lon="-0.36518552"><ele>-3.2</ele><time>2022-11-04T17:35:44.0000000+00:00</time></trkpt><trkpt lat="39.47333439" lon="-0.36518368"><ele>-3.2</ele><time>2022-11-04T17:35:45.0000000+00:00</time></trkpt><trkpt lat="39.47332618" lon="-0.36517144"><ele>-3.2</ele><time>2022-11-04T17:35:46.0000000+00:00</time></trkpt><trkpt lat="39.47332283" lon="-0.36516851"><ele>-3.2</ele><time>2022-11-04T17:35:47.0000000+00:00</time></trkpt><trkpt lat="39.47332366" lon="-0.36516583"><ele>-3.2</ele><time>2022-11-04T17:35:48.0000000+00:00</time></trkpt><trkpt lat="39.47332677" lon="-0.3651696"><ele>-3.2</ele><time>2022-11-04T17:35:49.0000000+00:00</time></trkpt><trkpt lat="39.47332744" lon="-0.36517547"><ele>-3.2</ele><time>2022-11-04T17:35:50.0000000+00:00</time></trkpt><trkpt lat="39.47332618" lon="-0.36517915"><ele>-3.2</ele><time>2022-11-04T17:35:51.0000000+00:00</time></trkpt><trkpt lat="39.47331998" lon="-0.36519474"><ele>-3.2</ele><time>2022-11-04T17:35:52.0000000+00:00</time></trkpt><trkpt lat="39.47335476" lon="-0.36520086"><ele>-3.2</ele><time>2022-11-04T17:35:53.0000000+00:00</time></trkpt><trkpt lat="39.47333448" lon="-0.36524143"><ele>-3.2</ele><time>2022-11-04T17:35:54.0000000+00:00</time></trkpt><trkpt lat="39.47332425" lon="-0.36526415"><ele>-3.2</ele><time>2022-11-04T17:35:55.0000000+00:00</time></trkpt><trkpt lat="39.4733074" lon="-0.36527731"><ele>-3.2</ele><time>2022-11-04T17:35:56.0000000+00:00</time></trkpt><trkpt lat="39.4733012" lon="-0.36531737"><ele>-3.2</ele><time>2022-11-04T17:35:57.0000000+00:00</time></trkpt><trkpt lat="39.47330422" lon="-0.36534243"><ele>-3.2</ele><time>2022-11-04T17:35:58.0000000+00:00</time></trkpt><trkpt lat="39.4733033" lon="-0.36536532"><ele>-3.2</ele><time>2022-11-04T17:35:59.0000000+00:00</time></trkpt><trkpt lat="39.47329709" lon="-0.36539373"><ele>-3.2</ele><time>2022-11-04T17:36:00.0000000+00:00</time></trkpt></trkseg><trkseg><trkpt lat="39.46261" lon="-0.3972484"><ele>25.4</ele><time>2022-11-06T12:18:45.0000000+00:00</time></trkpt><trkpt lat="39.46264462" lon="-0.39723851"><ele>25.4</ele><time>2022-11-06T12:18:46.0000000+00:00</time></trkpt><trkpt lat="39.46272366" lon="-0.39711278"><ele>25.4</ele><time>2022-11-06T12:18:47.0000000+00:00</time></trkpt><trkpt lat="39.46274847" lon="-0.39703776"><ele>25.4</ele><time>2022-11-06T12:18:48.0000000+00:00</time></trkpt><trkpt lat="39.46279272" lon="-0.39705419"><ele>25.4</ele><time>2022-11-06T12:18:49.0000000+00:00</time></trkpt><trkpt lat="39.46282701" lon="-0.39706366"><ele>25.4</ele><time>2022-11-06T12:18:50.0000000+00:00</time></trkpt><trkpt lat="39.46284654" lon="-0.39708084"><ele>25.4</ele><time>2022-11-06T12:18:51.0000000+00:00</time></trkpt><trkpt lat="39.4628514" lon="-0.39710138"><ele>25.6</ele><time>2022-11-06T12:18:52.0000000+00:00</time></trkpt><trkpt lat="39.4628659" lon="-0.39712032"><ele>25.6</ele><time>2022-11-06T12:18:53.0000000+00:00</time></trkpt><trkpt lat="39.46287193" lon="-0.39712778"><ele>25.6</ele><time>2022-11-06T12:18:54.0000000+00:00</time></trkpt><trkpt lat="39.46288199" lon="-0.39713658"><ele>25.6</ele><time>2022-11-06T12:18:55.0000000+00:00</time></trkpt><trkpt lat="39.46288576" lon="-0.39714748"><ele>25.6</ele><time>2022-11-06T12:18:56.0000000+00:00</time></trkpt><trkpt lat="39.46289104" lon="-0.39716517"><ele>25.6</ele><time>2022-11-06T12:18:57.0000000+00:00</time></trkpt><trkpt lat="39.46290026" lon="-0.39718721"><ele>25.6</ele><time>2022-11-06T12:18:58.0000000+00:00</time></trkpt><trkpt lat="39.46291535" lon="-0.3972049"><ele>25.4</ele><time>2022-11-06T12:18:59.0000000+00:00</time></trkpt><trkpt lat="39.46291803" lon="-0.39720121"><ele>25.4</ele><time>2022-11-06T12:19:00.0000000+00:00</time></trkpt><trkpt lat="39.46291837" lon="-0.39719517"><ele>25.2</ele><time>2022-11-06T12:19:01.0000000+00:00</time></trkpt><trkpt lat="39.46292591" lon="-0.39720062"><ele>25.2</ele><time>2022-11-06T12:19:02.0000000+00:00</time></trkpt><trkpt lat="39.46293069" lon="-0.3971883"><ele>25.2</ele><time>2022-11-06T12:19:03.0000000+00:00</time></trkpt><trkpt lat="39.46293924" lon="-0.39718847"><ele>25.2</ele><time>2022-11-06T12:19:04.0000000+00:00</time></trkpt><trkpt lat="39.46294251" lon="-0.39719467"><ele>25.2</ele><time>2022-11-06T12:19:05.0000000+00:00</time></trkpt><trkpt lat="39.46294922" lon="-0.3972028"><ele>25.2</ele><time>2022-11-06T12:19:06.0000000+00:00</time></trkpt><trkpt lat="39.46295676" lon="-0.39720649"><ele>25.2</ele><time>2022-11-06T12:19:07.0000000+00:00</time></trkpt><trkpt lat="39.4629674" lon="-0.39721093"><ele>25.2</ele><time>2022-11-06T12:19:08.0000000+00:00</time></trkpt><trkpt lat="39.46297419" lon="-0.39721219"><ele>25.2</ele><time>2022-11-06T12:19:09.0000000+00:00</time></trkpt><trkpt lat="39.46297796" lon="-0.39720884"><ele>25.0</ele><time>2022-11-06T12:19:10.0000000+00:00</time></trkpt><trkpt lat="39.46298895" lon="-0.39721143"><ele>25.0</ele><time>2022-11-06T12:19:11.0000000+00:00</time></trkpt><trkpt lat="39.46299724" lon="-0.39721571"><ele>25.0</ele><time>2022-11-06T12:19:12.0000000+00:00</time></trkpt><trkpt lat="39.46301283" lon="-0.3972235"><ele>25.0</ele><time>2022-11-06T12:19:13.0000000+00:00</time></trkpt><trkpt lat="39.46302264" lon="-0.39722124"><ele>25.0</ele><time>2022-11-06T12:19:14.0000000+00:00</time></trkpt><trkpt lat="39.46302893" lon="-0.39722728"><ele>25.0</ele><time>2022-11-06T12:19:15.0000000+00:00</time></trkpt><trkpt lat="39.46303722" lon="-0.39723482"><ele>25.0</ele><time>2022-11-06T12:19:16.0000000+00:00</time></trkpt><trkpt lat="39.46305365" lon="-0.39724806"><ele>25.0</ele><time>2022-11-06T12:19:17.0000000+00:00</time></trkpt><trkpt lat="39.46306514" lon="-0.39725737"><ele>25.2</ele><time>2022-11-06T12:19:18.0000000+00:00</time></trkpt><trkpt lat="39.46307779" lon="-0.39727572"><ele>25.2</ele><time>2022-11-06T12:19:19.0000000+00:00</time></trkpt><trkpt lat="39.46308928" lon="-0.39728746"><ele>25.2</ele><time>2022-11-06T12:19:20.0000000+00:00</time></trkpt><trkpt lat="39.46310302" lon="-0.39730263"><ele>25.2</ele><time>2022-11-06T12:19:21.0000000+00:00</time></trkpt><trkpt lat="39.46312423" lon="-0.39731571"><ele>25.2</ele><time>2022-11-06T12:19:22.0000000+00:00</time></trkpt><trkpt lat="39.46313127" lon="-0.39734504"><ele>25.2</ele><time>2022-11-06T12:19:23.0000000+00:00</time></trkpt><trkpt lat="39.46314787" lon="-0.39738779"><ele>25.2</ele><time>2022-11-06T12:19:24.0000000+00:00</time></trkpt><trkpt lat="39.46317083" lon="-0.39742719"><ele>25.2</ele><time>2022-11-06T12:19:25.0000000+00:00</time></trkpt><trkpt lat="39.46317569" lon="-0.39744353"><ele>25.2</ele><time>2022-11-06T12:19:26.0000000+00:00</time></trkpt><trkpt lat="39.46319707" lon="-0.39746633"><ele>25.2</ele><time>2022-11-06T12:19:27.0000000+00:00</time></trkpt><trkpt lat="39.46319623" lon="-0.39744001"><ele>25.2</ele><time>2022-11-06T12:19:28.0000000+00:00</time></trkpt><trkpt lat="39.46319581" lon="-0.39742341"><ele>25.2</ele><time>2022-11-06T12:19:29.0000000+00:00</time></trkpt><trkpt lat="39.46319598" lon="-0.39741327"><ele>25.2</ele><time>2022-11-06T12:19:30.0000000+00:00</time></trkpt><trkpt lat="39.46319539" lon="-0.39740548"><ele>25.2</ele><time>2022-11-06T12:19:31.0000000+00:00</time></trkpt><trkpt lat="39.46319682" lon="-0.39740346"><ele>25.2</ele><time>2022-11-06T12:19:32.0000000+00:00</time></trkpt><trkpt lat="39.46320168" lon="-0.39740522"><ele>25.2</ele><time>2022-11-06T12:19:33.0000000+00:00</time></trkpt><trkpt lat="39.46320654" lon="-0.39740237"><ele>25.2</ele><time>2022-11-06T12:19:34.0000000+00:00</time></trkpt><trkpt lat="39.4632083" lon="-0.39739793"><ele>25.2</ele><time>2022-11-06T12:19:35.0000000+00:00</time></trkpt><trkpt lat="39.46320201" lon="-0.39738519"><ele>25.2</ele><time>2022-11-06T12:19:36.0000000+00:00</time></trkpt><trkpt lat="39.4632" lon="-0.39737027"><ele>25.2</ele><time>2022-11-06T12:19:37.0000000+00:00</time></trkpt><trkpt lat="39.46320335" lon="-0.39736189"><ele>25.2</ele><time>2022-11-06T12:19:38.0000000+00:00</time></trkpt><trkpt lat="39.46320914" lon="-0.39735594"><ele>25.2</ele><time>2022-11-06T12:19:39.0000000+00:00</time></trkpt><trkpt lat="39.46323319" lon="-0.39736809"><ele>25.2</ele><time>2022-11-06T12:19:40.0000000+00:00</time></trkpt><trkpt lat="39.46324887" lon="-0.39737019"><ele>25.2</ele><time>2022-11-06T12:19:41.0000000+00:00</time></trkpt><trkpt lat="39.46326404" lon="-0.39737346"><ele>25.2</ele><time>2022-11-06T12:19:42.0000000+00:00</time></trkpt><trkpt lat="39.46327024" lon="-0.39737329"><ele>25.2</ele><time>2022-11-06T12:19:43.0000000+00:00</time></trkpt><trkpt lat="39.46327695" lon="-0.39737396"><ele>25.2</ele><time>2022-11-06T12:19:44.0000000+00:00</time></trkpt><trkpt lat="39.46328323" lon="-0.39737279"><ele>25.2</ele><time>2022-11-06T12:19:45.0000000+00:00</time></trkpt><trkpt lat="39.46328734" lon="-0.39736591"><ele>25.4</ele><time>2022-11-06T12:19:46.0000000+00:00</time></trkpt><trkpt lat="39.46327385" lon="-0.39729022"><ele>25.4</ele><time>2022-11-06T12:19:47.0000000+00:00</time></trkpt><trkpt lat="39.46329975" lon="-0.39727975"><ele>25.4</ele><time>2022-11-06T12:19:48.0000000+00:00</time></trkpt><trkpt lat="39.46330695" lon="-0.3972981"><ele>25.4</ele><time>2022-11-06T12:19:49.0000000+00:00</time></trkpt><trkpt lat="39.46331542" lon="-0.39729098"><ele>25.4</ele><time>2022-11-06T12:19:50.0000000+00:00</time></trkpt><trkpt lat="39.46332405" lon="-0.39728478"><ele>25.4</ele><time>2022-11-06T12:19:51.0000000+00:00</time></trkpt><trkpt lat="39.46333302" lon="-0.39727849"><ele>25.4</ele><time>2022-11-06T12:19:52.0000000+00:00</time></trkpt><trkpt lat="39.4633435" lon="-0.39727514"><ele>25.4</ele><time>2022-11-06T12:19:53.0000000+00:00</time></trkpt><trkpt lat="39.46335205" lon="-0.39726692"><ele>25.4</ele><time>2022-11-06T12:19:54.0000000+00:00</time></trkpt><trkpt lat="39.46335155" lon="-0.39728503"><ele>25.4</ele><time>2022-11-06T12:19:55.0000000+00:00</time></trkpt><trkpt lat="39.46337334" lon="-0.39729324"><ele>25.4</ele><time>2022-11-06T12:19:56.0000000+00:00</time></trkpt><trkpt lat="39.46338457" lon="-0.39729886"><ele>25.4</ele><time>2022-11-06T12:19:57.0000000+00:00</time></trkpt><trkpt lat="39.46338994" lon="-0.39731227"><ele>25.4</ele><time>2022-11-06T12:19:58.0000000+00:00</time></trkpt><trkpt lat="39.46339228" lon="-0.39731872"><ele>25.4</ele><time>2022-11-06T12:19:59.0000000+00:00</time></trkpt><trkpt lat="39.46339513" lon="-0.39733029"><ele>25.4</ele><time>2022-11-06T12:20:00.0000000+00:00</time></trkpt><trkpt lat="39.46339983" lon="-0.39733901"><ele>25.4</ele><time>2022-11-06T12:20:01.0000000+00:00</time></trkpt><trkpt lat="39.46340343" lon="-0.39734638"><ele>25.4</ele><time>2022-11-06T12:20:02.0000000+00:00</time></trkpt><trkpt lat="39.46340888" lon="-0.39735259"><ele>25.4</ele><time>2022-11-06T12:20:03.0000000+00:00</time></trkpt><trkpt lat="39.463415" lon="-0.39735812"><ele>25.4</ele><time>2022-11-06T12:20:04.0000000+00:00</time></trkpt><trkpt lat="39.46342355" lon="-0.39735946"><ele>25.4</ele><time>2022-11-06T12:20:05.0000000+00:00</time></trkpt><trkpt lat="39.46343" lon="-0.39736281"><ele>25.4</ele><time>2022-11-06T12:20:06.0000000+00:00</time></trkpt><trkpt lat="39.46343679" lon="-0.39737027"><ele>25.4</ele><time>2022-11-06T12:20:07.0000000+00:00</time></trkpt><trkpt lat="39.46344257" lon="-0.39737295"><ele>25.4</ele><time>2022-11-06T12:20:08.0000000+00:00</time></trkpt><trkpt lat="39.46344693" lon="-0.39737656"><ele>25.4</ele><time>2022-11-06T12:20:09.0000000+00:00</time></trkpt><trkpt lat="39.46345188" lon="-0.39738368"><ele>25.4</ele><time>2022-11-06T12:20:10.0000000+00:00</time></trkpt><trkpt lat="39.46346437" lon="-0.39738108"><ele>25.4</ele><time>2022-11-06T12:20:11.0000000+00:00</time></trkpt><trkpt lat="39.46347367" lon="-0.39737589"><ele>25.4</ele><time>2022-11-06T12:20:12.0000000+00:00</time></trkpt><trkpt lat="39.46348272" lon="-0.39737287"><ele>25.4</ele><time>2022-11-06T12:20:13.0000000+00:00</time></trkpt><trkpt lat="39.46348608" lon="-0.39737253"><ele>25.4</ele><time>2022-11-06T12:20:14.0000000+00:00</time></trkpt><trkpt lat="39.46349479" lon="-0.39737111"><ele>25.2</ele><time>2022-11-06T12:20:15.0000000+00:00</time></trkpt><trkpt lat="39.46348909" lon="-0.39737538"><ele>25.2</ele><time>2022-11-06T12:20:16.0000000+00:00</time></trkpt><trkpt lat="39.46348465" lon="-0.39736189"><ele>25.4</ele><time>2022-11-06T12:20:17.0000000+00:00</time></trkpt><trkpt lat="39.46347686" lon="-0.39735938"><ele>25.4</ele><time>2022-11-06T12:20:18.0000000+00:00</time></trkpt><trkpt lat="39.46345263" lon="-0.39736918"><ele>25.4</ele><time>2022-11-06T12:20:19.0000000+00:00</time></trkpt><trkpt lat="39.46345355" lon="-0.39737815"><ele>25.4</ele><time>2022-11-06T12:20:20.0000000+00:00</time></trkpt><trkpt lat="39.46345666" lon="-0.39738662"><ele>25.4</ele><time>2022-11-06T12:20:21.0000000+00:00</time></trkpt><trkpt lat="39.46346378" lon="-0.39741478"><ele>25.4</ele><time>2022-11-06T12:20:22.0000000+00:00</time></trkpt><trkpt lat="39.46348985" lon="-0.39743842"><ele>25.4</ele><time>2022-11-06T12:20:23.0000000+00:00</time></trkpt><trkpt lat="39.46349337" lon="-0.39745711"><ele>25.4</ele><time>2022-11-06T12:20:24.0000000+00:00</time></trkpt><trkpt lat="39.46348482" lon="-0.39746909"><ele>25.4</ele><time>2022-11-06T12:20:25.0000000+00:00</time></trkpt><trkpt lat="39.46348088" lon="-0.3974836"><ele>25.4</ele><time>2022-11-06T12:20:26.0000000+00:00</time></trkpt><trkpt lat="39.46348138" lon="-0.39748888"><ele>25.4</ele><time>2022-11-06T12:20:27.0000000+00:00</time></trkpt><trkpt lat="39.46348909" lon="-0.39749231"><ele>25.4</ele><time>2022-11-06T12:20:28.0000000+00:00</time></trkpt><trkpt lat="39.46347971" lon="-0.39746951"><ele>25.4</ele><time>2022-11-06T12:20:29.0000000+00:00</time></trkpt><trkpt lat="39.46348457" lon="-0.39746122"><ele>25.4</ele><time>2022-11-06T12:20:30.0000000+00:00</time></trkpt><trkpt lat="39.4634932" lon="-0.39745711"><ele>25.2</ele><time>2022-11-06T12:20:31.0000000+00:00</time></trkpt><trkpt lat="39.46349471" lon="-0.39744889"><ele>25.2</ele><time>2022-11-06T12:20:32.0000000+00:00</time></trkpt><trkpt lat="39.46349781" lon="-0.39744252"><ele>25.2</ele><time>2022-11-06T12:20:33.0000000+00:00</time></trkpt><trkpt lat="39.46350217" lon="-0.39743439"><ele>25.2</ele><time>2022-11-06T12:20:34.0000000+00:00</time></trkpt><trkpt lat="39.46349748" lon="-0.39742232"><ele>25.2</ele><time>2022-11-06T12:20:35.0000000+00:00</time></trkpt><trkpt lat="39.46350091" lon="-0.39741344"><ele>25.2</ele><time>2022-11-06T12:20:36.0000000+00:00</time></trkpt><trkpt lat="39.46350401" lon="-0.39740388"><ele>25.2</ele><time>2022-11-06T12:20:37.0000000+00:00</time></trkpt><trkpt lat="39.46352488" lon="-0.39739651"><ele>25.2</ele><time>2022-11-06T12:20:38.0000000+00:00</time></trkpt><trkpt lat="39.46352991" lon="-0.39738502"><ele>25.2</ele><time>2022-11-06T12:20:39.0000000+00:00</time></trkpt><trkpt lat="39.46356411" lon="-0.397381"><ele>25.4</ele><time>2022-11-06T12:20:40.0000000+00:00</time></trkpt><trkpt lat="39.46360426" lon="-0.39738536"><ele>25.4</ele><time>2022-11-06T12:20:41.0000000+00:00</time></trkpt><trkpt lat="39.4636191" lon="-0.39737589"><ele>25.4</ele><time>2022-11-06T12:20:42.0000000+00:00</time></trkpt><trkpt lat="39.46358708" lon="-0.39736189"><ele>25.4</ele><time>2022-11-06T12:20:43.0000000+00:00</time></trkpt><trkpt lat="39.46356897" lon="-0.39734655"><ele>25.4</ele><time>2022-11-06T12:20:44.0000000+00:00</time></trkpt><trkpt lat="39.46359286" lon="-0.3973442"><ele>25.4</ele><time>2022-11-06T12:20:45.0000000+00:00</time></trkpt><trkpt lat="39.46360124" lon="-0.39733574"><ele>25.4</ele><time>2022-11-06T12:20:46.0000000+00:00</time></trkpt><trkpt lat="39.46360854" lon="-0.39732794"><ele>25.4</ele><time>2022-11-06T12:20:47.0000000+00:00</time></trkpt><trkpt lat="39.46362061" lon="-0.39731939"><ele>25.2</ele><time>2022-11-06T12:20:48.0000000+00:00</time></trkpt><trkpt lat="39.46362915" lon="-0.39731059"><ele>25.2</ele><time>2022-11-06T12:20:49.0000000+00:00</time></trkpt><trkpt lat="39.46367542" lon="-0.39730523"><ele>25.2</ele><time>2022-11-06T12:20:50.0000000+00:00</time></trkpt><trkpt lat="39.46370275" lon="-0.39729634"><ele>25.2</ele><time>2022-11-06T12:20:51.0000000+00:00</time></trkpt><trkpt lat="39.46367081" lon="-0.39727279"><ele>25.2</ele><time>2022-11-06T12:20:52.0000000+00:00</time></trkpt><trkpt lat="39.46365732" lon="-0.39724982"><ele>25.4</ele><time>2022-11-06T12:20:53.0000000+00:00</time></trkpt><trkpt lat="39.46365665" lon="-0.3972339"><ele>25.4</ele><time>2022-11-06T12:20:54.0000000+00:00</time></trkpt><trkpt lat="39.46364349" lon="-0.39721311"><ele>25.4</ele><time>2022-11-06T12:20:55.0000000+00:00</time></trkpt><trkpt lat="39.46363553" lon="-0.39720004"><ele>25.4</ele><time>2022-11-06T12:20:56.0000000+00:00</time></trkpt><trkpt lat="39.46362153" lon="-0.39718797"><ele>25.2</ele><time>2022-11-06T12:20:57.0000000+00:00</time></trkpt><trkpt lat="39.46360795" lon="-0.39717531"><ele>25.2</ele><time>2022-11-06T12:20:58.0000000+00:00</time></trkpt><trkpt lat="39.46362488" lon="-0.39716047"><ele>25.2</ele><time>2022-11-06T12:20:59.0000000+00:00</time></trkpt><trkpt lat="39.46363159" lon="-0.39715083"><ele>25.2</ele><time>2022-11-06T12:21:00.0000000+00:00</time></trkpt><trkpt lat="39.46360602" lon="-0.39712762"><ele>25.2</ele><time>2022-11-06T12:21:01.0000000+00:00</time></trkpt><trkpt lat="39.46360434" lon="-0.39711412"><ele>25.2</ele><time>2022-11-06T12:21:02.0000000+00:00</time></trkpt><trkpt lat="39.46358716" lon="-0.39709618"><ele>25.2</ele><time>2022-11-06T12:21:03.0000000+00:00</time></trkpt><trkpt lat="39.46357333" lon="-0.39707883"><ele>25.4</ele><time>2022-11-06T12:21:04.0000000+00:00</time></trkpt><trkpt lat="39.4635626" lon="-0.39705897"><ele>25.4</ele><time>2022-11-06T12:21:05.0000000+00:00</time></trkpt><trkpt lat="39.46355472" lon="-0.39704061"><ele>25.4</ele><time>2022-11-06T12:21:06.0000000+00:00</time></trkpt><trkpt lat="39.46354366" lon="-0.39702192"><ele>25.4</ele><time>2022-11-06T12:21:07.0000000+00:00</time></trkpt><trkpt lat="39.46351231" lon="-0.39699862"><ele>25.4</ele><time>2022-11-06T12:21:08.0000000+00:00</time></trkpt><trkpt lat="39.46347619" lon="-0.39698722"><ele>25.4</ele><time>2022-11-06T12:21:09.0000000+00:00</time></trkpt><trkpt lat="39.46342673" lon="-0.39696861"><ele>25.4</ele><time>2022-11-06T12:21:10.0000000+00:00</time></trkpt><trkpt lat="39.46338072" lon="-0.39695084"><ele>25.4</ele><time>2022-11-06T12:21:11.0000000+00:00</time></trkpt><trkpt lat="39.46334316" lon="-0.3969288"><ele>25.4</ele><time>2022-11-06T12:21:12.0000000+00:00</time></trkpt><trkpt lat="39.46330008" lon="-0.39684573"><ele>25.4</ele><time>2022-11-06T12:21:18.0000000+00:00</time></trkpt><trkpt lat="39.4633067" lon="-0.39683433"><ele>25.4</ele><time>2022-11-06T12:21:19.0000000+00:00</time></trkpt><trkpt lat="39.46331165" lon="-0.39681832"><ele>25.4</ele><time>2022-11-06T12:21:20.0000000+00:00</time></trkpt><trkpt lat="39.46332045" lon="-0.39680969"><ele>25.4</ele><time>2022-11-06T12:21:21.0000000+00:00</time></trkpt><trkpt lat="39.46338315" lon="-0.39681271"><ele>25.4</ele><time>2022-11-06T12:21:22.0000000+00:00</time></trkpt><trkpt lat="39.46340025" lon="-0.39681128"><ele>25.6</ele><time>2022-11-06T12:21:23.0000000+00:00</time></trkpt><trkpt lat="39.46341173" lon="-0.39680474"><ele>25.4</ele><time>2022-11-06T12:21:24.0000000+00:00</time></trkpt><trkpt lat="39.46339295" lon="-0.39678605"><ele>25.4</ele><time>2022-11-06T12:21:25.0000000+00:00</time></trkpt><trkpt lat="39.46339455" lon="-0.39678186"><ele>25.4</ele><time>2022-11-06T12:21:26.0000000+00:00</time></trkpt><trkpt lat="39.46339253" lon="-0.39677239"><ele>25.4</ele><time>2022-11-06T12:21:27.0000000+00:00</time></trkpt><trkpt lat="39.46339396" lon="-0.39676594"><ele>25.4</ele><time>2022-11-06T12:21:28.0000000+00:00</time></trkpt><trkpt lat="39.46338373" lon="-0.39675504"><ele>25.4</ele><time>2022-11-06T12:21:29.0000000+00:00</time></trkpt><trkpt lat="39.46336487" lon="-0.3967371"><ele>25.4</ele><time>2022-11-06T12:21:30.0000000+00:00</time></trkpt><trkpt lat="39.46331785" lon="-0.39669083"><ele>25.4</ele><time>2022-11-06T12:21:33.0000000+00:00</time></trkpt><trkpt lat="39.46330821" lon="-0.396677"><ele>25.4</ele><time>2022-11-06T12:21:34.0000000+00:00</time></trkpt><trkpt lat="39.46328843" lon="-0.39665932"><ele>25.4</ele><time>2022-11-06T12:21:35.0000000+00:00</time></trkpt><trkpt lat="39.46328818" lon="-0.39663929"><ele>25.4</ele><time>2022-11-06T12:21:36.0000000+00:00</time></trkpt><trkpt lat="39.46328709" lon="-0.3966237"><ele>25.4</ele><time>2022-11-06T12:21:37.0000000+00:00</time></trkpt><trkpt lat="39.4632917" lon="-0.39660224"><ele>25.4</ele><time>2022-11-06T12:21:38.0000000+00:00</time></trkpt><trkpt lat="39.46330176" lon="-0.39659352"><ele>25.4</ele><time>2022-11-06T12:21:39.0000000+00:00</time></trkpt><trkpt lat="39.46330092" lon="-0.39658329"><ele>25.4</ele><time>2022-11-06T12:21:40.0000000+00:00</time></trkpt><trkpt lat="39.46325985" lon="-0.39656318"><ele>25.4</ele><time>2022-11-06T12:21:41.0000000+00:00</time></trkpt><trkpt lat="39.46322355" lon="-0.39655413"><ele>25.4</ele><time>2022-11-06T12:21:42.0000000+00:00</time></trkpt><trkpt lat="39.46321559" lon="-0.39654868"><ele>25.4</ele><time>2022-11-06T12:21:43.0000000+00:00</time></trkpt><trkpt lat="39.46319824" lon="-0.39653979"><ele>25.4</ele><time>2022-11-06T12:21:44.0000000+00:00</time></trkpt><trkpt lat="39.46321308" lon="-0.39652957"><ele>25.2</ele><time>2022-11-06T12:21:45.0000000+00:00</time></trkpt><trkpt lat="39.4632306" lon="-0.3965268"><ele>25.2</ele><time>2022-11-06T12:21:46.0000000+00:00</time></trkpt><trkpt lat="39.46323529" lon="-0.3965211"><ele>25.2</ele><time>2022-11-06T12:21:47.0000000+00:00</time></trkpt><trkpt lat="39.46322909" lon="-0.39652303"><ele>25.2</ele><time>2022-11-06T12:21:48.0000000+00:00</time></trkpt><trkpt lat="39.463228" lon="-0.39652035"><ele>25.2</ele><time>2022-11-06T12:21:49.0000000+00:00</time></trkpt><trkpt lat="39.46321928" lon="-0.39651909"><ele>25.2</ele><time>2022-11-06T12:21:50.0000000+00:00</time></trkpt><trkpt lat="39.46320805" lon="-0.39651029"><ele>25.2</ele><time>2022-11-06T12:21:51.0000000+00:00</time></trkpt><trkpt lat="39.46321257" lon="-0.39649973"><ele>25.2</ele><time>2022-11-06T12:21:52.0000000+00:00</time></trkpt><trkpt lat="39.46320444" lon="-0.39650191"><ele>25.2</ele><time>2022-11-06T12:21:53.0000000+00:00</time></trkpt><trkpt lat="39.46322531" lon="-0.39650174"><ele>25.2</ele><time>2022-11-06T12:21:54.0000000+00:00</time></trkpt><trkpt lat="39.46322272" lon="-0.39649244"><ele>25.2</ele><time>2022-11-06T12:21:55.0000000+00:00</time></trkpt><trkpt lat="39.46321593" lon="-0.39647693"><ele>25.2</ele><time>2022-11-06T12:21:56.0000000+00:00</time></trkpt><trkpt lat="39.4632052" lon="-0.39647089"><ele>25.2</ele><time>2022-11-06T12:21:57.0000000+00:00</time></trkpt><trkpt lat="39.4632363" lon="-0.39646084"><ele>25.2</ele><time>2022-11-06T12:21:58.0000000+00:00</time></trkpt><trkpt lat="39.46326085" lon="-0.39645857"><ele>25.2</ele><time>2022-11-06T12:21:59.0000000+00:00</time></trkpt><trkpt lat="39.46327644" lon="-0.39645279"><ele>25.0</ele><time>2022-11-06T12:22:00.0000000+00:00</time></trkpt><trkpt lat="39.46329279" lon="-0.39644307"><ele>25.0</ele><time>2022-11-06T12:22:01.0000000+00:00</time></trkpt><trkpt lat="39.46330545" lon="-0.39643167"><ele>25.0</ele><time>2022-11-06T12:22:02.0000000+00:00</time></trkpt><trkpt lat="39.46332305" lon="-0.39642077"><ele>25.0</ele><time>2022-11-06T12:22:03.0000000+00:00</time></trkpt><trkpt lat="39.46334501" lon="-0.39640954"><ele>25.0</ele><time>2022-11-06T12:22:04.0000000+00:00</time></trkpt><trkpt lat="39.46335716" lon="-0.39639705"><ele>25.0</ele><time>2022-11-06T12:22:05.0000000+00:00</time></trkpt><trkpt lat="39.46336513" lon="-0.39638548"><ele>25.0</ele><time>2022-11-06T12:22:06.0000000+00:00</time></trkpt><trkpt lat="39.46336839" lon="-0.39635665"><ele>25.0</ele><time>2022-11-06T12:22:07.0000000+00:00</time></trkpt><trkpt lat="39.46335498" lon="-0.39632035"><ele>25.0</ele><time>2022-11-06T12:22:08.0000000+00:00</time></trkpt><trkpt lat="39.46336546" lon="-0.39627878"><ele>25.0</ele><time>2022-11-06T12:22:09.0000000+00:00</time></trkpt><trkpt lat="39.463358" lon="-0.39624626"><ele>25.0</ele><time>2022-11-06T12:22:10.0000000+00:00</time></trkpt><trkpt lat="39.46336395" lon="-0.39623838"><ele>25.0</ele><time>2022-11-06T12:22:11.0000000+00:00</time></trkpt><trkpt lat="39.46336806" lon="-0.39622882"><ele>25.0</ele><time>2022-11-06T12:22:12.0000000+00:00</time></trkpt><trkpt lat="39.46336999" lon="-0.39621784"><ele>25.0</ele><time>2022-11-06T12:22:13.0000000+00:00</time></trkpt><trkpt lat="39.46337082" lon="-0.39620167"><ele>25.0</ele><time>2022-11-06T12:22:14.0000000+00:00</time></trkpt><trkpt lat="39.46336563" lon="-0.39618398"><ele>25.0</ele><time>2022-11-06T12:22:15.0000000+00:00</time></trkpt><trkpt lat="39.4633694" lon="-0.39616705"><ele>25.0</ele><time>2022-11-06T12:22:16.0000000+00:00</time></trkpt><trkpt lat="39.46339228" lon="-0.39616252"><ele>25.0</ele><time>2022-11-06T12:22:17.0000000+00:00</time></trkpt><trkpt lat="39.46339983" lon="-0.39616454"><ele>25.0</ele><time>2022-11-06T12:22:18.0000000+00:00</time></trkpt><trkpt lat="39.46338843" lon="-0.39615892"><ele>25.0</ele><time>2022-11-06T12:22:19.0000000+00:00</time></trkpt><trkpt lat="39.4633673" lon="-0.39613956"><ele>25.0</ele><time>2022-11-06T12:22:20.0000000+00:00</time></trkpt><trkpt lat="39.46334794" lon="-0.39612539"><ele>25.2</ele><time>2022-11-06T12:22:21.0000000+00:00</time></trkpt><trkpt lat="39.46330117" lon="-0.39610687"><ele>25.2</ele><time>2022-11-06T12:22:22.0000000+00:00</time></trkpt><trkpt lat="39.46329514" lon="-0.39612531"><ele>25.2</ele><time>2022-11-06T12:22:23.0000000+00:00</time></trkpt><trkpt lat="39.46323638" lon="-0.39616512"><ele>25.2</ele><time>2022-11-06T12:22:24.0000000+00:00</time></trkpt><trkpt lat="39.46320461" lon="-0.39618239"><ele>25.2</ele><time>2022-11-06T12:22:25.0000000+00:00</time></trkpt><trkpt lat="39.46316949" lon="-0.39620318"><ele>25.2</ele><time>2022-11-06T12:22:26.0000000+00:00</time></trkpt><trkpt lat="39.46309481" lon="-0.39614107"><ele>25.0</ele><time>2022-11-06T12:22:27.0000000+00:00</time></trkpt><trkpt lat="39.4630265" lon="-0.39604912"><ele>25.0</ele><time>2022-11-06T12:22:28.0000000+00:00</time></trkpt><trkpt lat="39.46291703" lon="-0.39594099"><ele>25.0</ele><time>2022-11-06T12:22:30.0000000+00:00</time></trkpt><trkpt lat="39.46282282" lon="-0.39589975"><ele>25.0</ele><time>2022-11-06T12:22:31.0000000+00:00</time></trkpt><trkpt lat="39.46283631" lon="-0.39593068"><ele>25.0</ele><time>2022-11-06T12:22:32.0000000+00:00</time></trkpt><trkpt lat="39.46283807" lon="-0.39594057"><ele>25.0</ele><time>2022-11-06T12:22:33.0000000+00:00</time></trkpt><trkpt lat="39.46284746" lon="-0.39596178"><ele>25.0</ele><time>2022-11-06T12:22:34.0000000+00:00</time></trkpt><trkpt lat="39.46284696" lon="-0.39597988"><ele>25.0</ele><time>2022-11-06T12:22:35.0000000+00:00</time></trkpt><trkpt lat="39.46285919" lon="-0.39599975"><ele>25.0</ele><time>2022-11-06T12:22:36.0000000+00:00</time></trkpt><trkpt lat="39.46283774" lon="-0.39601215"><ele>25.0</ele><time>2022-11-06T12:22:37.0000000+00:00</time></trkpt><trkpt lat="39.46280513" lon="-0.39601802"><ele>25.0</ele><time>2022-11-06T12:22:38.0000000+00:00</time></trkpt><trkpt lat="39.46278568" lon="-0.39602892"><ele>25.0</ele><time>2022-11-06T12:22:39.0000000+00:00</time></trkpt><trkpt lat="39.46279474" lon="-0.39603093"><ele>25.0</ele><time>2022-11-06T12:22:40.0000000+00:00</time></trkpt><trkpt lat="39.46280605" lon="-0.39602632"><ele>25.0</ele><time>2022-11-06T12:22:41.0000000+00:00</time></trkpt><trkpt lat="39.46282508" lon="-0.39601291"><ele>25.0</ele><time>2022-11-06T12:22:42.0000000+00:00</time></trkpt><trkpt lat="39.46282114" lon="-0.39601936"><ele>25.0</ele><time>2022-11-06T12:22:43.0000000+00:00</time></trkpt><trkpt lat="39.46282692" lon="-0.39600176"><ele>25.0</ele><time>2022-11-06T12:22:44.0000000+00:00</time></trkpt><trkpt lat="39.46282583" lon="-0.39599279"><ele>25.0</ele><time>2022-11-06T12:22:45.0000000+00:00</time></trkpt><trkpt lat="39.46282667" lon="-0.39598332"><ele>24.8</ele><time>2022-11-06T12:22:46.0000000+00:00</time></trkpt><trkpt lat="39.46283832" lon="-0.39597628"><ele>24.8</ele><time>2022-11-06T12:22:47.0000000+00:00</time></trkpt><trkpt lat="39.46284888" lon="-0.39595977"><ele>24.8</ele><time>2022-11-06T12:22:49.0000000+00:00</time></trkpt><trkpt lat="39.46285651" lon="-0.39595423"><ele>24.8</ele><time>2022-11-06T12:22:50.0000000+00:00</time></trkpt><trkpt lat="39.46286649" lon="-0.39594191"><ele>24.8</ele><time>2022-11-06T12:22:51.0000000+00:00</time></trkpt><trkpt lat="39.46288006" lon="-0.39593529"><ele>24.8</ele><time>2022-11-06T12:22:52.0000000+00:00</time></trkpt><trkpt lat="39.46292583" lon="-0.39594535"><ele>24.8</ele><time>2022-11-06T12:22:53.0000000+00:00</time></trkpt><trkpt lat="39.46295039" lon="-0.39594141"><ele>24.8</ele><time>2022-11-06T12:22:54.0000000+00:00</time></trkpt><trkpt lat="39.46296942" lon="-0.39593504"><ele>24.8</ele><time>2022-11-06T12:22:55.0000000+00:00</time></trkpt><trkpt lat="39.46299263" lon="-0.39592791"><ele>24.8</ele><time>2022-11-06T12:22:56.0000000+00:00</time></trkpt><trkpt lat="39.46300311" lon="-0.39592205"><ele>24.8</ele><time>2022-11-06T12:22:57.0000000+00:00</time></trkpt><trkpt lat="39.46300747" lon="-0.39591534"><ele>24.8</ele><time>2022-11-06T12:22:58.0000000+00:00</time></trkpt><trkpt lat="39.46300898" lon="-0.39590813"><ele>24.8</ele><time>2022-11-06T12:22:59.0000000+00:00</time></trkpt><trkpt lat="39.46302977" lon="-0.39590067"><ele>24.8</ele><time>2022-11-06T12:23:00.0000000+00:00</time></trkpt><trkpt lat="39.46303521" lon="-0.39589506"><ele>24.8</ele><time>2022-11-06T12:23:01.0000000+00:00</time></trkpt><trkpt lat="39.46304326" lon="-0.39589305"><ele>24.8</ele><time>2022-11-06T12:23:02.0000000+00:00</time></trkpt><trkpt lat="39.46306304" lon="-0.395885"><ele>24.8</ele><time>2022-11-06T12:23:03.0000000+00:00</time></trkpt><trkpt lat="39.46307662" lon="-0.39587963"><ele>24.8</ele><time>2022-11-06T12:23:04.0000000+00:00</time></trkpt><trkpt lat="39.46310093" lon="-0.39587729"><ele>24.8</ele><time>2022-11-06T12:23:05.0000000+00:00</time></trkpt><trkpt lat="39.46312037" lon="-0.3958705"><ele>24.8</ele><time>2022-11-06T12:23:06.0000000+00:00</time></trkpt><trkpt lat="39.46314686" lon="-0.39586195"><ele>24.8</ele><time>2022-11-06T12:23:07.0000000+00:00</time></trkpt><trkpt lat="39.46316413" lon="-0.39584879"><ele>24.8</ele><time>2022-11-06T12:23:08.0000000+00:00</time></trkpt><trkpt lat="39.46318215" lon="-0.39583907"><ele>24.8</ele><time>2022-11-06T12:23:09.0000000+00:00</time></trkpt><trkpt lat="39.46319263" lon="-0.39583094"><ele>24.8</ele><time>2022-11-06T12:23:10.0000000+00:00</time></trkpt><trkpt lat="39.46319715" lon="-0.3958218"><ele>24.8</ele><time>2022-11-06T12:23:11.0000000+00:00</time></trkpt><trkpt lat="39.46320386" lon="-0.39581803"><ele>24.8</ele><time>2022-11-06T12:23:12.0000000+00:00</time></trkpt><trkpt lat="39.46320696" lon="-0.39581727"><ele>24.6</ele><time>2022-11-06T12:23:13.0000000+00:00</time></trkpt><trkpt lat="39.46320721" lon="-0.39581702"><ele>24.6</ele><time>2022-11-06T12:23:14.0000000+00:00</time></trkpt><trkpt lat="39.46321333" lon="-0.39580604"><ele>24.6</ele><time>2022-11-06T12:23:15.0000000+00:00</time></trkpt><trkpt lat="39.46321995" lon="-0.39579137"><ele>24.6</ele><time>2022-11-06T12:23:16.0000000+00:00</time></trkpt><trkpt lat="39.46322766" lon="-0.39577637"><ele>24.6</ele><time>2022-11-06T12:23:17.0000000+00:00</time></trkpt><trkpt lat="39.46322825" lon="-0.39576564"><ele>24.6</ele><time>2022-11-06T12:23:18.0000000+00:00</time></trkpt><trkpt lat="39.46322573" lon="-0.39576338"><ele>24.6</ele><time>2022-11-06T12:23:19.0000000+00:00</time></trkpt><trkpt lat="39.46322791" lon="-0.3957529"><ele>24.6</ele><time>2022-11-06T12:23:20.0000000+00:00</time></trkpt><trkpt lat="39.46323068" lon="-0.39574804"><ele>24.6</ele><time>2022-11-06T12:23:21.0000000+00:00</time></trkpt><trkpt lat="39.46323294" lon="-0.39574158"><ele>24.6</ele><time>2022-11-06T12:23:22.0000000+00:00</time></trkpt><trkpt lat="39.46323118" lon="-0.39573102"><ele>24.6</ele><time>2022-11-06T12:23:23.0000000+00:00</time></trkpt><trkpt lat="39.46323604" lon="-0.39571703"><ele>24.6</ele><time>2022-11-06T12:23:24.0000000+00:00</time></trkpt><trkpt lat="39.46323579" lon="-0.39570261"><ele>24.6</ele><time>2022-11-06T12:23:25.0000000+00:00</time></trkpt><trkpt lat="39.46324074" lon="-0.39569087"><ele>24.6</ele><time>2022-11-06T12:23:26.0000000+00:00</time></trkpt><trkpt lat="39.46324736" lon="-0.39568216"><ele>24.6</ele><time>2022-11-06T12:23:27.0000000+00:00</time></trkpt><trkpt lat="39.46322523" lon="-0.39567797"><ele>24.6</ele><time>2022-11-06T12:23:28.0000000+00:00</time></trkpt><trkpt lat="39.46322599" lon="-0.39567931"><ele>24.6</ele><time>2022-11-06T12:23:29.0000000+00:00</time></trkpt><trkpt lat="39.46322649" lon="-0.39567629"><ele>24.6</ele><time>2022-11-06T12:23:30.0000000+00:00</time></trkpt><trkpt lat="39.46322473" lon="-0.39567688"><ele>24.6</ele><time>2022-11-06T12:23:31.0000000+00:00</time></trkpt><trkpt lat="39.46321685" lon="-0.39566514"><ele>24.6</ele><time>2022-11-06T12:23:32.0000000+00:00</time></trkpt><trkpt lat="39.46320947" lon="-0.39565466"><ele>24.6</ele><time>2022-11-06T12:23:33.0000000+00:00</time></trkpt><trkpt lat="39.46323018" lon="-0.39565383"><ele>24.6</ele><time>2022-11-06T12:23:34.0000000+00:00</time></trkpt><trkpt lat="39.46323638" lon="-0.39565089"><ele>24.6</ele><time>2022-11-06T12:23:35.0000000+00:00</time></trkpt><trkpt lat="39.46324459" lon="-0.39564821"><ele>24.6</ele><time>2022-11-06T12:23:36.0000000+00:00</time></trkpt><trkpt lat="39.46325063" lon="-0.39564419"><ele>24.6</ele><time>2022-11-06T12:23:37.0000000+00:00</time></trkpt><trkpt lat="39.46326898" lon="-0.39563254"><ele>24.6</ele><time>2022-11-06T12:23:38.0000000+00:00</time></trkpt><trkpt lat="39.46331844" lon="-0.39554696"><ele>24.4</ele><time>2022-11-06T12:23:47.0000000+00:00</time></trkpt><trkpt lat="39.46328466" lon="-0.39556875"><ele>24.4</ele><time>2022-11-06T12:23:49.0000000+00:00</time></trkpt><trkpt lat="39.46331483" lon="-0.39552994"><ele>24.4</ele><time>2022-11-06T12:23:50.0000000+00:00</time></trkpt><trkpt lat="39.46333227" lon="-0.39551175"><ele>24.4</ele><time>2022-11-06T12:23:51.0000000+00:00</time></trkpt><trkpt lat="39.46332363" lon="-0.3954882"><ele>24.6</ele><time>2022-11-06T12:23:52.0000000+00:00</time></trkpt><trkpt lat="39.46333998" lon="-0.39549113"><ele>24.6</ele><time>2022-11-06T12:23:53.0000000+00:00</time></trkpt><trkpt lat="39.46341483" lon="-0.39555006"><ele>24.6</ele><time>2022-11-06T12:23:54.0000000+00:00</time></trkpt><trkpt lat="39.46343377" lon="-0.39556196"><ele>24.4</ele><time>2022-11-06T12:23:55.0000000+00:00</time></trkpt><trkpt lat="39.46343109" lon="-0.39553623"><ele>24.4</ele><time>2022-11-06T12:23:56.0000000+00:00</time></trkpt><trkpt lat="39.46344425" lon="-0.3955364"><ele>24.4</ele><time>2022-11-06T12:23:57.0000000+00:00</time></trkpt><trkpt lat="39.4634176" lon="-0.39549809"><ele>24.4</ele><time>2022-11-06T12:23:58.0000000+00:00</time></trkpt><trkpt lat="39.46341877" lon="-0.3954908"><ele>24.2</ele><time>2022-11-06T12:23:59.0000000+00:00</time></trkpt><trkpt lat="39.46341642" lon="-0.39548418"><ele>24.2</ele><time>2022-11-06T12:24:00.0000000+00:00</time></trkpt><trkpt lat="39.46342095" lon="-0.39548853"><ele>24.2</ele><time>2022-11-06T12:24:01.0000000+00:00</time></trkpt><trkpt lat="39.46341072" lon="-0.39546423"><ele>24.2</ele><time>2022-11-06T12:24:02.0000000+00:00</time></trkpt><trkpt lat="39.46340997" lon="-0.39544629"><ele>24.2</ele><time>2022-11-06T12:24:03.0000000+00:00</time></trkpt><trkpt lat="39.46340829" lon="-0.39545031"><ele>24.2</ele><time>2022-11-06T12:24:04.0000000+00:00</time></trkpt><trkpt lat="39.46341156" lon="-0.39542617"><ele>24.2</ele><time>2022-11-06T12:24:05.0000000+00:00</time></trkpt><trkpt lat="39.46341357" lon="-0.39541896"><ele>24.2</ele><time>2022-11-06T12:24:06.0000000+00:00</time></trkpt><trkpt lat="39.46342137" lon="-0.39540597"><ele>24.2</ele><time>2022-11-06T12:24:07.0000000+00:00</time></trkpt><trkpt lat="39.46339731" lon="-0.39537286"><ele>24.2</ele><time>2022-11-06T12:24:08.0000000+00:00</time></trkpt><trkpt lat="39.46338558" lon="-0.39534068"><ele>24.2</ele><time>2022-11-06T12:24:09.0000000+00:00</time></trkpt><trkpt lat="39.46337845" lon="-0.39531956"><ele>24.2</ele><time>2022-11-06T12:24:10.0000000+00:00</time></trkpt><trkpt lat="39.46339052" lon="-0.39529449"><ele>24.2</ele><time>2022-11-06T12:24:11.0000000+00:00</time></trkpt><trkpt lat="39.46340745" lon="-0.39528041"><ele>24.2</ele><time>2022-11-06T12:24:12.0000000+00:00</time></trkpt><trkpt lat="39.46342422" lon="-0.39527061"><ele>24.2</ele><time>2022-11-06T12:24:13.0000000+00:00</time></trkpt><trkpt lat="39.46342858" lon="-0.39525904"><ele>24.2</ele><time>2022-11-06T12:24:14.0000000+00:00</time></trkpt><trkpt lat="39.46343436" lon="-0.39524839"><ele>24.2</ele><time>2022-11-06T12:24:15.0000000+00:00</time></trkpt><trkpt lat="39.46344811" lon="-0.39523079"><ele>24.2</ele><time>2022-11-06T12:24:16.0000000+00:00</time></trkpt><trkpt lat="39.4634564" lon="-0.39521604"><ele>24.2</ele><time>2022-11-06T12:24:17.0000000+00:00</time></trkpt><trkpt lat="39.46346613" lon="-0.39520833"><ele>24.2</ele><time>2022-11-06T12:24:18.0000000+00:00</time></trkpt><trkpt lat="39.46347141" lon="-0.39519726"><ele>24.2</ele><time>2022-11-06T12:24:19.0000000+00:00</time></trkpt><trkpt lat="39.46347929" lon="-0.39519433"><ele>24.2</ele><time>2022-11-06T12:24:20.0000000+00:00</time></trkpt><trkpt lat="39.46348239" lon="-0.39519349"><ele>24.2</ele><time>2022-11-06T12:24:21.0000000+00:00</time></trkpt><trkpt lat="39.46348884" lon="-0.39518972"><ele>24.2</ele><time>2022-11-06T12:24:22.0000000+00:00</time></trkpt><trkpt lat="39.46348649" lon="-0.39517765"><ele>24.2</ele><time>2022-11-06T12:24:23.0000000+00:00</time></trkpt><trkpt lat="39.4634958" lon="-0.39517396"><ele>24.2</ele><time>2022-11-06T12:24:24.0000000+00:00</time></trkpt><trkpt lat="39.4635015" lon="-0.39516449"><ele>24.2</ele><time>2022-11-06T12:24:25.0000000+00:00</time></trkpt><trkpt lat="39.46350745" lon="-0.39514354"><ele>24.2</ele><time>2022-11-06T12:24:26.0000000+00:00</time></trkpt><trkpt lat="39.46350468" lon="-0.39513281"><ele>24.4</ele><time>2022-11-06T12:24:27.0000000+00:00</time></trkpt><trkpt lat="39.46350452" lon="-0.39513038"><ele>24.4</ele><time>2022-11-06T12:24:28.0000000+00:00</time></trkpt><trkpt lat="39.46350485" lon="-0.39512677"><ele>24.4</ele><time>2022-11-06T12:24:29.0000000+00:00</time></trkpt><trkpt lat="39.46351784" lon="-0.39511596"><ele>24.4</ele><time>2022-11-06T12:24:30.0000000+00:00</time></trkpt><trkpt lat="39.46352656" lon="-0.39508947"><ele>24.4</ele><time>2022-11-06T12:24:31.0000000+00:00</time></trkpt><trkpt lat="39.46353377" lon="-0.39507397"><ele>24.4</ele><time>2022-11-06T12:24:32.0000000+00:00</time></trkpt><trkpt lat="39.46354148" lon="-0.395066"><ele>24.4</ele><time>2022-11-06T12:24:33.0000000+00:00</time></trkpt><trkpt lat="39.46354324" lon="-0.39505343"><ele>24.4</ele><time>2022-11-06T12:24:34.0000000+00:00</time></trkpt><trkpt lat="39.46354534" lon="-0.3950453"><ele>24.4</ele><time>2022-11-06T12:24:35.0000000+00:00</time></trkpt><trkpt lat="39.46355129" lon="-0.39503424"><ele>24.4</ele><time>2022-11-06T12:24:36.0000000+00:00</time></trkpt><trkpt lat="39.46355967" lon="-0.39503046"><ele>24.4</ele><time>2022-11-06T12:24:37.0000000+00:00</time></trkpt><trkpt lat="39.4635673" lon="-0.39503172"><ele>24.4</ele><time>2022-11-06T12:24:38.0000000+00:00</time></trkpt><trkpt lat="39.46357543" lon="-0.39503725"><ele>24.4</ele><time>2022-11-06T12:24:39.0000000+00:00</time></trkpt><trkpt lat="39.46358264" lon="-0.39504379"><ele>24.4</ele><time>2022-11-06T12:24:40.0000000+00:00</time></trkpt><trkpt lat="39.46359085" lon="-0.39503776"><ele>24.4</ele><time>2022-11-06T12:24:41.0000000+00:00</time></trkpt><trkpt lat="39.46359932" lon="-0.39502208"><ele>24.4</ele><time>2022-11-06T12:24:42.0000000+00:00</time></trkpt><trkpt lat="39.4636144" lon="-0.39500741"><ele>24.4</ele><time>2022-11-06T12:24:43.0000000+00:00</time></trkpt><trkpt lat="39.46362538" lon="-0.39499727"><ele>24.6</ele><time>2022-11-06T12:24:44.0000000+00:00</time></trkpt><trkpt lat="39.46364206" lon="-0.3949816"><ele>24.6</ele><time>2022-11-06T12:24:45.0000000+00:00</time></trkpt><trkpt lat="39.46365698" lon="-0.39496165"><ele>24.6</ele><time>2022-11-06T12:24:46.0000000+00:00</time></trkpt><trkpt lat="39.46366905" lon="-0.3949381"><ele>24.6</ele><time>2022-11-06T12:24:47.0000000+00:00</time></trkpt><trkpt lat="39.46368012" lon="-0.39491572"><ele>24.6</ele><time>2022-11-06T12:24:48.0000000+00:00</time></trkpt><trkpt lat="39.46369168" lon="-0.39489551"><ele>24.6</ele><time>2022-11-06T12:24:49.0000000+00:00</time></trkpt><trkpt lat="39.46368297" lon="-0.39493416"><ele>24.6</ele><time>2022-11-06T12:24:50.0000000+00:00</time></trkpt><trkpt lat="39.46366511" lon="-0.39494698"><ele>24.6</ele><time>2022-11-06T12:24:51.0000000+00:00</time></trkpt><trkpt lat="39.46366193" lon="-0.39494262"><ele>24.6</ele><time>2022-11-06T12:24:52.0000000+00:00</time></trkpt><trkpt lat="39.46367534" lon="-0.39491345"><ele>24.6</ele><time>2022-11-06T12:24:53.0000000+00:00</time></trkpt><trkpt lat="39.46369185" lon="-0.39489049"><ele>24.6</ele><time>2022-11-06T12:24:54.0000000+00:00</time></trkpt><trkpt lat="39.46370417" lon="-0.3948707"><ele>24.6</ele><time>2022-11-06T12:24:55.0000000+00:00</time></trkpt><trkpt lat="39.46371842" lon="-0.39485009"><ele>24.6</ele><time>2022-11-06T12:24:56.0000000+00:00</time></trkpt><trkpt lat="39.46373552" lon="-0.39483014"><ele>24.6</ele><time>2022-11-06T12:24:57.0000000+00:00</time></trkpt><trkpt lat="39.46373829" lon="-0.3948329"><ele>24.6</ele><time>2022-11-06T12:24:58.0000000+00:00</time></trkpt><trkpt lat="39.4637408" lon="-0.39482209"><ele>24.6</ele><time>2022-11-06T12:24:59.0000000+00:00</time></trkpt><trkpt lat="39.46374399" lon="-0.39481983"><ele>24.6</ele><time>2022-11-06T12:25:00.0000000+00:00</time></trkpt><trkpt lat="39.46374633" lon="-0.3948158"><ele>24.6</ele><time>2022-11-06T12:25:01.0000000+00:00</time></trkpt><trkpt lat="39.4637491" lon="-0.39481337"><ele>24.6</ele><time>2022-11-06T12:25:02.0000000+00:00</time></trkpt><trkpt lat="39.46375455" lon="-0.39480424"><ele>24.6</ele><time>2022-11-06T12:25:03.0000000+00:00</time></trkpt><trkpt lat="39.46376075" lon="-0.39479493"><ele>24.6</ele><time>2022-11-06T12:25:04.0000000+00:00</time></trkpt><trkpt lat="39.46376519" lon="-0.39478253"><ele>24.6</ele><time>2022-11-06T12:25:05.0000000+00:00</time></trkpt><trkpt lat="39.46377341" lon="-0.39476543"><ele>24.6</ele><time>2022-11-06T12:25:06.0000000+00:00</time></trkpt><trkpt lat="39.46377995" lon="-0.39475001"><ele>24.6</ele><time>2022-11-06T12:25:07.0000000+00:00</time></trkpt><trkpt lat="39.46378749" lon="-0.39472612"><ele>24.6</ele><time>2022-11-06T12:25:08.0000000+00:00</time></trkpt><trkpt lat="39.46379989" lon="-0.39470483"><ele>24.6</ele><time>2022-11-06T12:25:09.0000000+00:00</time></trkpt><trkpt lat="39.46381029" lon="-0.39469577"><ele>24.6</ele><time>2022-11-06T12:25:10.0000000+00:00</time></trkpt><trkpt lat="39.46381951" lon="-0.39468437"><ele>24.6</ele><time>2022-11-06T12:25:11.0000000+00:00</time></trkpt><trkpt lat="39.46381699" lon="-0.39462185"><ele>24.6</ele><time>2022-11-06T12:25:12.0000000+00:00</time></trkpt><trkpt lat="39.46379587" lon="-0.3945656"><ele>24.6</ele><time>2022-11-06T12:25:13.0000000+00:00</time></trkpt><trkpt lat="39.46379227" lon="-0.39452445"><ele>24.6</ele><time>2022-11-06T12:25:14.0000000+00:00</time></trkpt><trkpt lat="39.46378682" lon="-0.39449235"><ele>24.6</ele><time>2022-11-06T12:25:15.0000000+00:00</time></trkpt><trkpt lat="39.46377927" lon="-0.39446586"><ele>24.6</ele><time>2022-11-06T12:25:16.0000000+00:00</time></trkpt><trkpt lat="39.4637574" lon="-0.39442797"><ele>24.6</ele><time>2022-11-06T12:25:17.0000000+00:00</time></trkpt><trkpt lat="39.46375312" lon="-0.39441154"><ele>24.6</ele><time>2022-11-06T12:25:18.0000000+00:00</time></trkpt><trkpt lat="39.46375606" lon="-0.3944045"><ele>24.6</ele><time>2022-11-06T12:25:19.0000000+00:00</time></trkpt><trkpt lat="39.46374591" lon="-0.39438254"><ele>24.6</ele><time>2022-11-06T12:25:20.0000000+00:00</time></trkpt><trkpt lat="39.46374642" lon="-0.39435589"><ele>24.6</ele><time>2022-11-06T12:25:21.0000000+00:00</time></trkpt><trkpt lat="39.46375279" lon="-0.39434692"><ele>24.6</ele><time>2022-11-06T12:25:22.0000000+00:00</time></trkpt><trkpt lat="39.46375472" lon="-0.39433418"><ele>24.6</ele><time>2022-11-06T12:25:23.0000000+00:00</time></trkpt><trkpt lat="39.46376176" lon="-0.39433736"><ele>24.6</ele><time>2022-11-06T12:25:24.0000000+00:00</time></trkpt><trkpt lat="39.46376444" lon="-0.39434273"><ele>24.6</ele><time>2022-11-06T12:25:25.0000000+00:00</time></trkpt><trkpt lat="39.46375941" lon="-0.39434273"><ele>24.6</ele><time>2022-11-06T12:25:26.0000000+00:00</time></trkpt><trkpt lat="39.46375002" lon="-0.39433703"><ele>24.6</ele><time>2022-11-06T12:25:27.0000000+00:00</time></trkpt><trkpt lat="39.46374156" lon="-0.39433468"><ele>24.6</ele><time>2022-11-06T12:25:28.0000000+00:00</time></trkpt><trkpt lat="39.46373493" lon="-0.39433535"><ele>24.6</ele><time>2022-11-06T12:25:29.0000000+00:00</time></trkpt><trkpt lat="39.4637346" lon="-0.39433963"><ele>24.6</ele><time>2022-11-06T12:25:30.0000000+00:00</time></trkpt><trkpt lat="39.46373493" lon="-0.39434575"><ele>24.8</ele><time>2022-11-06T12:25:31.0000000+00:00</time></trkpt><trkpt lat="39.46374164" lon="-0.39434692"><ele>24.8</ele><time>2022-11-06T12:25:32.0000000+00:00</time></trkpt><trkpt lat="39.46374089" lon="-0.39434055"><ele>24.8</ele><time>2022-11-06T12:25:33.0000000+00:00</time></trkpt><trkpt lat="39.463747" lon="-0.39435765"><ele>24.8</ele><time>2022-11-06T12:25:34.0000000+00:00</time></trkpt><trkpt lat="39.46376863" lon="-0.39438539"><ele>24.8</ele><time>2022-11-06T12:25:35.0000000+00:00</time></trkpt><trkpt lat="39.46377802" lon="-0.39439319"><ele>24.6</ele><time>2022-11-06T12:25:36.0000000+00:00</time></trkpt><trkpt lat="39.46378556" lon="-0.39440207"><ele>24.6</ele><time>2022-11-06T12:25:37.0000000+00:00</time></trkpt><trkpt lat="39.4637807" lon="-0.39440082"><ele>24.6</ele><time>2022-11-06T12:25:38.0000000+00:00</time></trkpt><trkpt lat="39.46378464" lon="-0.39440417"><ele>24.6</ele><time>2022-11-06T12:25:39.0000000+00:00</time></trkpt><trkpt lat="39.46379051" lon="-0.39439621"><ele>24.6</ele><time>2022-11-06T12:25:40.0000000+00:00</time></trkpt><trkpt lat="39.46380023" lon="-0.3943833"><ele>24.6</ele><time>2022-11-06T12:25:41.0000000+00:00</time></trkpt><trkpt lat="39.46380811" lon="-0.39437785"><ele>24.6</ele><time>2022-11-06T12:25:42.0000000+00:00</time></trkpt><trkpt lat="39.46381917" lon="-0.39437324"><ele>24.6</ele><time>2022-11-06T12:25:43.0000000+00:00</time></trkpt><trkpt lat="39.46382873" lon="-0.39436813"><ele>24.6</ele><time>2022-11-06T12:25:44.0000000+00:00</time></trkpt><trkpt lat="39.46383845" lon="-0.39435891"><ele>24.6</ele><time>2022-11-06T12:25:45.0000000+00:00</time></trkpt><trkpt lat="39.46384616" lon="-0.39435052"><ele>24.6</ele><time>2022-11-06T12:25:46.0000000+00:00</time></trkpt><trkpt lat="39.46385572" lon="-0.39434122"><ele>24.6</ele><time>2022-11-06T12:25:47.0000000+00:00</time></trkpt><trkpt lat="39.46386251" lon="-0.39432957"><ele>24.6</ele><time>2022-11-06T12:25:48.0000000+00:00</time></trkpt><trkpt lat="39.46387818" lon="-0.39432211"><ele>24.6</ele><time>2022-11-06T12:25:49.0000000+00:00</time></trkpt><trkpt lat="39.46386888" lon="-0.39431239"><ele>24.6</ele><time>2022-11-06T12:25:50.0000000+00:00</time></trkpt><trkpt lat="39.4638662" lon="-0.3943082"><ele>24.6</ele><time>2022-11-06T12:25:51.0000000+00:00</time></trkpt><trkpt lat="39.46387575" lon="-0.39429864"><ele>24.6</ele><time>2022-11-06T12:25:52.0000000+00:00</time></trkpt><trkpt lat="39.4638864" lon="-0.39429386"><ele>24.6</ele><time>2022-11-06T12:25:53.0000000+00:00</time></trkpt><trkpt lat="39.4638869" lon="-0.39429445"><ele>24.6</ele><time>2022-11-06T12:25:54.0000000+00:00</time></trkpt><trkpt lat="39.46388522" lon="-0.39429445"><ele>24.6</ele><time>2022-11-06T12:25:55.0000000+00:00</time></trkpt><trkpt lat="39.46389218" lon="-0.39429906"><ele>24.6</ele><time>2022-11-06T12:25:56.0000000+00:00</time></trkpt><trkpt lat="39.46389922" lon="-0.39430358"><ele>24.4</ele><time>2022-11-06T12:25:57.0000000+00:00</time></trkpt><trkpt lat="39.46389738" lon="-0.39430685"><ele>24.4</ele><time>2022-11-06T12:25:58.0000000+00:00</time></trkpt><trkpt lat="39.46389679" lon="-0.39430727"><ele>24.4</ele><time>2022-11-06T12:25:59.0000000+00:00</time></trkpt><trkpt lat="39.46387718" lon="-0.39432513"><ele>24.4</ele><time>2022-11-06T12:26:00.0000000+00:00</time></trkpt><trkpt lat="39.46386192" lon="-0.39430652"><ele>24.4</ele><time>2022-11-06T12:26:01.0000000+00:00</time></trkpt><trkpt lat="39.46382093" lon="-0.39432026"><ele>24.4</ele><time>2022-11-06T12:26:02.0000000+00:00</time></trkpt><trkpt lat="39.46380601" lon="-0.39431624"><ele>24.4</ele><time>2022-11-06T12:26:03.0000000+00:00</time></trkpt><trkpt lat="39.46379839" lon="-0.39429646"><ele>24.6</ele><time>2022-11-06T12:26:04.0000000+00:00</time></trkpt><trkpt lat="39.46378271" lon="-0.39428665"><ele>24.6</ele><time>2022-11-06T12:26:05.0000000+00:00</time></trkpt><trkpt lat="39.46379134" lon="-0.39426662"><ele>24.6</ele><time>2022-11-06T12:26:06.0000000+00:00</time></trkpt><trkpt lat="39.46380694" lon="-0.39427048"><ele>24.6</ele><time>2022-11-06T12:26:07.0000000+00:00</time></trkpt><trkpt lat="39.46383225" lon="-0.39424592"><ele>24.6</ele><time>2022-11-06T12:26:08.0000000+00:00</time></trkpt><trkpt lat="39.46385605" lon="-0.39422647"><ele>24.6</ele><time>2022-11-06T12:26:09.0000000+00:00</time></trkpt><trkpt lat="39.46383208" lon="-0.39424793"><ele>24.6</ele><time>2022-11-06T12:26:10.0000000+00:00</time></trkpt><trkpt lat="39.46379587" lon="-0.39422404"><ele>24.6</ele><time>2022-11-06T12:26:11.0000000+00:00</time></trkpt><trkpt lat="39.46380744" lon="-0.39422672"><ele>24.6</ele><time>2022-11-06T12:26:12.0000000+00:00</time></trkpt><trkpt lat="39.46381331" lon="-0.39422396"><ele>24.6</ele><time>2022-11-06T12:26:13.0000000+00:00</time></trkpt><trkpt lat="39.46381247" lon="-0.39421281"><ele>24.6</ele><time>2022-11-06T12:26:14.0000000+00:00</time></trkpt><trkpt lat="39.46381121" lon="-0.39420677"><ele>24.6</ele><time>2022-11-06T12:26:15.0000000+00:00</time></trkpt><trkpt lat="39.46382135" lon="-0.39420267"><ele>24.6</ele><time>2022-11-06T12:26:16.0000000+00:00</time></trkpt><trkpt lat="39.4638346" lon="-0.39419605"><ele>24.4</ele><time>2022-11-06T12:26:17.0000000+00:00</time></trkpt><trkpt lat="39.46383719" lon="-0.39419571"><ele>24.4</ele><time>2022-11-06T12:26:18.0000000+00:00</time></trkpt><trkpt lat="39.46383879" lon="-0.39419621"><ele>24.4</ele><time>2022-11-06T12:26:19.0000000+00:00</time></trkpt><trkpt lat="39.46386854" lon="-0.39419311"><ele>24.4</ele><time>2022-11-06T12:26:20.0000000+00:00</time></trkpt><trkpt lat="39.46386871" lon="-0.3941859"><ele>24.6</ele><time>2022-11-06T12:26:21.0000000+00:00</time></trkpt><trkpt lat="39.46387525" lon="-0.39418398"><ele>24.6</ele><time>2022-11-06T12:26:22.0000000+00:00</time></trkpt><trkpt lat="39.4638817" lon="-0.39418163"><ele>24.6</ele><time>2022-11-06T12:26:23.0000000+00:00</time></trkpt><trkpt lat="39.4638864" lon="-0.39419303"><ele>24.6</ele><time>2022-11-06T12:26:24.0000000+00:00</time></trkpt><trkpt lat="39.46388573" lon="-0.3942113"><ele>24.6</ele><time>2022-11-06T12:26:25.0000000+00:00</time></trkpt><trkpt lat="39.46387433" lon="-0.39422178"><ele>24.6</ele><time>2022-11-06T12:26:26.0000000+00:00</time></trkpt><trkpt lat="39.46387625" lon="-0.39422295"><ele>24.6</ele><time>2022-11-06T12:26:27.0000000+00:00</time></trkpt><trkpt lat="39.46388883" lon="-0.39422102"><ele>24.6</ele><time>2022-11-06T12:26:28.0000000+00:00</time></trkpt><trkpt lat="39.46390341" lon="-0.39421968"><ele>24.6</ele><time>2022-11-06T12:26:29.0000000+00:00</time></trkpt><trkpt lat="39.46392085" lon="-0.39422161"><ele>24.6</ele><time>2022-11-06T12:26:30.0000000+00:00</time></trkpt><trkpt lat="39.46392361" lon="-0.39422471"><ele>24.6</ele><time>2022-11-06T12:26:31.0000000+00:00</time></trkpt><trkpt lat="39.46392546" lon="-0.39422614"><ele>24.6</ele><time>2022-11-06T12:26:32.0000000+00:00</time></trkpt><trkpt lat="39.46392395" lon="-0.39422882"><ele>24.6</ele><time>2022-11-06T12:26:33.0000000+00:00</time></trkpt><trkpt lat="39.46392495" lon="-0.39422974"><ele>24.6</ele><time>2022-11-06T12:26:34.0000000+00:00</time></trkpt><trkpt lat="39.4639242" lon="-0.39423083"><ele>24.6</ele><time>2022-11-06T12:26:35.0000000+00:00</time></trkpt><trkpt lat="39.46392202" lon="-0.39422932"><ele>24.6</ele><time>2022-11-06T12:26:36.0000000+00:00</time></trkpt><trkpt lat="39.46392185" lon="-0.39422622"><ele>24.4</ele><time>2022-11-06T12:26:37.0000000+00:00</time></trkpt><trkpt lat="39.46392328" lon="-0.39422211"><ele>24.4</ele><time>2022-11-06T12:26:38.0000000+00:00</time></trkpt><trkpt lat="39.46392361" lon="-0.39421574"><ele>24.4</ele><time>2022-11-06T12:26:39.0000000+00:00</time></trkpt><trkpt lat="39.46391841" lon="-0.39421247"><ele>24.4</ele><time>2022-11-06T12:26:40.0000000+00:00</time></trkpt><trkpt lat="39.46391833" lon="-0.39421323"><ele>24.4</ele><time>2022-11-06T12:26:41.0000000+00:00</time></trkpt><trkpt lat="39.46392143" lon="-0.39421096"><ele>24.4</ele><time>2022-11-06T12:26:42.0000000+00:00</time></trkpt><trkpt lat="39.46392093" lon="-0.39420753"><ele>24.4</ele><time>2022-11-06T12:26:43.0000000+00:00</time></trkpt><trkpt lat="39.46392596" lon="-0.39420728"><ele>24.4</ele><time>2022-11-06T12:26:44.0000000+00:00</time></trkpt><trkpt lat="39.46392654" lon="-0.39420334"><ele>24.4</ele><time>2022-11-06T12:26:45.0000000+00:00</time></trkpt><trkpt lat="39.46393501" lon="-0.39420032"><ele>24.4</ele><time>2022-11-06T12:26:46.0000000+00:00</time></trkpt><trkpt lat="39.4639449" lon="-0.39419806"><ele>24.2</ele><time>2022-11-06T12:26:47.0000000+00:00</time></trkpt><trkpt lat="39.46395278" lon="-0.39419361"><ele>24.2</ele><time>2022-11-06T12:26:48.0000000+00:00</time></trkpt><trkpt lat="39.46396074" lon="-0.39418791"><ele>24.2</ele><time>2022-11-06T12:26:49.0000000+00:00</time></trkpt><trkpt lat="39.46396879" lon="-0.39418506"><ele>24.4</ele><time>2022-11-06T12:26:50.0000000+00:00</time></trkpt><trkpt lat="39.46397818" lon="-0.39418381"><ele>24.4</ele><time>2022-11-06T12:26:51.0000000+00:00</time></trkpt><trkpt lat="39.46398891" lon="-0.39418297"><ele>24.6</ele><time>2022-11-06T12:26:52.0000000+00:00</time></trkpt><trkpt lat="39.46400022" lon="-0.39418473"><ele>24.6</ele><time>2022-11-06T12:26:53.0000000+00:00</time></trkpt><trkpt lat="39.4640055" lon="-0.39418297"><ele>24.6</ele><time>2022-11-06T12:26:54.0000000+00:00</time></trkpt><trkpt lat="39.46401171" lon="-0.39418758"><ele>24.6</ele><time>2022-11-06T12:26:55.0000000+00:00</time></trkpt><trkpt lat="39.46401657" lon="-0.39419043"><ele>24.6</ele><time>2022-11-06T12:26:56.0000000+00:00</time></trkpt><trkpt lat="39.46401933" lon="-0.39419219"><ele>24.6</ele><time>2022-11-06T12:26:57.0000000+00:00</time></trkpt><trkpt lat="39.46402394" lon="-0.39419227"><ele>24.6</ele><time>2022-11-06T12:26:58.0000000+00:00</time></trkpt><trkpt lat="39.46403123" lon="-0.39419772"><ele>24.6</ele><time>2022-11-06T12:26:59.0000000+00:00</time></trkpt><trkpt lat="39.46403987" lon="-0.39419697"><ele>24.6</ele><time>2022-11-06T12:27:00.0000000+00:00</time></trkpt><trkpt lat="39.46404766" lon="-0.39419428"><ele>24.6</ele><time>2022-11-06T12:27:01.0000000+00:00</time></trkpt><trkpt lat="39.46405873" lon="-0.39419521"><ele>24.6</ele><time>2022-11-06T12:27:02.0000000+00:00</time></trkpt><trkpt lat="39.46406267" lon="-0.39419864"><ele>24.6</ele><time>2022-11-06T12:27:03.0000000+00:00</time></trkpt><trkpt lat="39.46406367" lon="-0.39419487"><ele>24.6</ele><time>2022-11-06T12:27:04.0000000+00:00</time></trkpt><trkpt lat="39.46407055" lon="-0.39419755"><ele>24.8</ele><time>2022-11-06T12:27:05.0000000+00:00</time></trkpt><trkpt lat="39.46408245" lon="-0.39419353"><ele>24.8</ele><time>2022-11-06T12:27:06.0000000+00:00</time></trkpt><trkpt lat="39.46408647" lon="-0.39418188"><ele>24.8</ele><time>2022-11-06T12:27:07.0000000+00:00</time></trkpt><trkpt lat="39.46409284" lon="-0.39417232"><ele>25.0</ele><time>2022-11-06T12:27:08.0000000+00:00</time></trkpt><trkpt lat="39.46409737" lon="-0.39415958"><ele>25.0</ele><time>2022-11-06T12:27:09.0000000+00:00</time></trkpt><trkpt lat="39.46410139" lon="-0.39415011"><ele>25.0</ele><time>2022-11-06T12:27:10.0000000+00:00</time></trkpt><trkpt lat="39.46410902" lon="-0.39414265"><ele>25.0</ele><time>2022-11-06T12:27:11.0000000+00:00</time></trkpt><trkpt lat="39.46411941" lon="-0.39413335"><ele>25.0</ele><time>2022-11-06T12:27:12.0000000+00:00</time></trkpt><trkpt lat="39.46412436" lon="-0.3941243"><ele>25.0</ele><time>2022-11-06T12:27:13.0000000+00:00</time></trkpt><trkpt lat="39.46413215" lon="-0.39411524"><ele>25.0</ele><time>2022-11-06T12:27:14.0000000+00:00</time></trkpt><trkpt lat="39.46413877" lon="-0.39410661"><ele>25.0</ele><time>2022-11-06T12:27:15.0000000+00:00</time></trkpt><trkpt lat="39.46414707" lon="-0.3940984"><ele>25.2</ele><time>2022-11-06T12:27:16.0000000+00:00</time></trkpt><trkpt lat="39.46415302" lon="-0.39408926"><ele>25.2</ele><time>2022-11-06T12:27:17.0000000+00:00</time></trkpt><trkpt lat="39.4641599" lon="-0.39407266"><ele>25.2</ele><time>2022-11-06T12:27:18.0000000+00:00</time></trkpt><trkpt lat="39.46418177" lon="-0.39407794"><ele>25.2</ele><time>2022-11-06T12:27:19.0000000+00:00</time></trkpt><trkpt lat="39.46419234" lon="-0.39407568"><ele>25.2</ele><time>2022-11-06T12:27:20.0000000+00:00</time></trkpt><trkpt lat="39.46420231" lon="-0.3940725"><ele>25.2</ele><time>2022-11-06T12:27:21.0000000+00:00</time></trkpt><trkpt lat="39.46420776" lon="-0.39407753"><ele>25.2</ele><time>2022-11-06T12:27:22.0000000+00:00</time></trkpt><trkpt lat="39.46420977" lon="-0.39408607"><ele>25.4</ele><time>2022-11-06T12:27:23.0000000+00:00</time></trkpt><trkpt lat="39.46421639" lon="-0.39408607"><ele>25.4</ele><time>2022-11-06T12:27:24.0000000+00:00</time></trkpt><trkpt lat="39.46422502" lon="-0.39408591"><ele>25.4</ele><time>2022-11-06T12:27:25.0000000+00:00</time></trkpt><trkpt lat="39.46423098" lon="-0.39409127"><ele>25.4</ele><time>2022-11-06T12:27:26.0000000+00:00</time></trkpt><trkpt lat="39.46424154" lon="-0.39409814"><ele>25.4</ele><time>2022-11-06T12:27:27.0000000+00:00</time></trkpt><trkpt lat="39.46424916" lon="-0.39410745"><ele>25.4</ele><time>2022-11-06T12:27:28.0000000+00:00</time></trkpt><trkpt lat="39.46426165" lon="-0.39410653"><ele>25.4</ele><time>2022-11-06T12:27:29.0000000+00:00</time></trkpt><trkpt lat="39.4642661" lon="-0.39410862"><ele>25.4</ele><time>2022-11-06T12:27:30.0000000+00:00</time></trkpt><trkpt lat="39.4642645" lon="-0.39410309"><ele>25.4</ele><time>2022-11-06T12:27:31.0000000+00:00</time></trkpt><trkpt lat="39.46425998" lon="-0.39409588"><ele>25.4</ele><time>2022-11-06T12:27:32.0000000+00:00</time></trkpt><trkpt lat="39.46426341" lon="-0.39408398"><ele>25.4</ele><time>2022-11-06T12:27:33.0000000+00:00</time></trkpt><trkpt lat="39.46427196" lon="-0.3940652"><ele>25.4</ele><time>2022-11-06T12:27:34.0000000+00:00</time></trkpt><trkpt lat="39.46428487" lon="-0.39405196"><ele>25.4</ele><time>2022-11-06T12:27:35.0000000+00:00</time></trkpt><trkpt lat="39.46429728" lon="-0.39404894"><ele>25.4</ele><time>2022-11-06T12:27:36.0000000+00:00</time></trkpt><trkpt lat="39.46430901" lon="-0.39405045"><ele>25.6</ele><time>2022-11-06T12:27:37.0000000+00:00</time></trkpt><trkpt lat="39.46432142" lon="-0.39404769"><ele>25.6</ele><time>2022-11-06T12:27:38.0000000+00:00</time></trkpt><trkpt lat="39.46433533" lon="-0.39404475"><ele>25.6</ele><time>2022-11-06T12:27:39.0000000+00:00</time></trkpt><trkpt lat="39.46434681" lon="-0.39404986"><ele>25.6</ele><time>2022-11-06T12:27:40.0000000+00:00</time></trkpt><trkpt lat="39.46434899" lon="-0.3940652"><ele>25.6</ele><time>2022-11-06T12:27:41.0000000+00:00</time></trkpt><trkpt lat="39.46434245" lon="-0.39407945"><ele>25.6</ele><time>2022-11-06T12:27:42.0000000+00:00</time></trkpt><trkpt lat="39.46433575" lon="-0.39408448"><ele>25.6</ele><time>2022-11-06T12:27:43.0000000+00:00</time></trkpt><trkpt lat="39.46433466" lon="-0.39408675"><ele>25.4</ele><time>2022-11-06T12:27:44.0000000+00:00</time></trkpt><trkpt lat="39.46433147" lon="-0.39408716"><ele>25.4</ele><time>2022-11-06T12:27:45.0000000+00:00</time></trkpt><trkpt lat="39.46433265" lon="-0.39408473"><ele>25.4</ele><time>2022-11-06T12:27:46.0000000+00:00</time></trkpt><trkpt lat="39.46433365" lon="-0.39408758"><ele>25.4</ele><time>2022-11-06T12:27:47.0000000+00:00</time></trkpt><trkpt lat="39.46436282" lon="-0.39409186"><ele>25.4</ele><time>2022-11-06T12:27:48.0000000+00:00</time></trkpt><trkpt lat="39.46437405" lon="-0.3940994"><ele>25.4</ele><time>2022-11-06T12:27:49.0000000+00:00</time></trkpt><trkpt lat="39.46438009" lon="-0.39410887"><ele>25.4</ele><time>2022-11-06T12:27:50.0000000+00:00</time></trkpt><trkpt lat="39.46438202" lon="-0.39410929"><ele>25.6</ele><time>2022-11-06T12:27:51.0000000+00:00</time></trkpt><trkpt lat="39.46439233" lon="-0.39409823"><ele>25.6</ele><time>2022-11-06T12:27:52.0000000+00:00</time></trkpt><trkpt lat="39.46439501" lon="-0.39409781"><ele>25.6</ele><time>2022-11-06T12:27:53.0000000+00:00</time></trkpt><trkpt lat="39.46439794" lon="-0.39409965"><ele>25.6</ele><time>2022-11-06T12:27:54.0000000+00:00</time></trkpt><trkpt lat="39.46441814" lon="-0.39410158"><ele>25.6</ele><time>2022-11-06T12:27:55.0000000+00:00</time></trkpt><trkpt lat="39.46442711" lon="-0.39410175"><ele>25.6</ele><time>2022-11-06T12:27:56.0000000+00:00</time></trkpt><trkpt lat="39.46443876" lon="-0.39410669"><ele>25.4</ele><time>2022-11-06T12:27:57.0000000+00:00</time></trkpt><trkpt lat="39.46444186" lon="-0.39410795"><ele>25.4</ele><time>2022-11-06T12:27:58.0000000+00:00</time></trkpt><trkpt lat="39.46445209" lon="-0.39411021"><ele>25.4</ele><time>2022-11-06T12:27:59.0000000+00:00</time></trkpt><trkpt lat="39.46445779" lon="-0.39410653"><ele>25.4</ele><time>2022-11-06T12:28:00.0000000+00:00</time></trkpt><trkpt lat="39.46444337" lon="-0.39411089"><ele>25.4</ele><time>2022-11-06T12:28:01.0000000+00:00</time></trkpt><trkpt lat="39.46444404" lon="-0.39411239"><ele>25.4</ele><time>2022-11-06T12:28:02.0000000+00:00</time></trkpt><trkpt lat="39.46444253" lon="-0.39411189"><ele>25.4</ele><time>2022-11-06T12:28:03.0000000+00:00</time></trkpt><trkpt lat="39.46444379" lon="-0.39411197"><ele>25.4</ele><time>2022-11-06T12:28:04.0000000+00:00</time></trkpt><trkpt lat="39.46444371" lon="-0.3941129"><ele>25.4</ele><time>2022-11-06T12:28:05.0000000+00:00</time></trkpt><trkpt lat="39.4644541" lon="-0.39411365"><ele>25.6</ele><time>2022-11-06T12:28:06.0000000+00:00</time></trkpt><trkpt lat="39.46446567" lon="-0.39411382"><ele>25.6</ele><time>2022-11-06T12:28:07.0000000+00:00</time></trkpt><trkpt lat="39.46448243" lon="-0.3941165"><ele>25.6</ele><time>2022-11-06T12:28:08.0000000+00:00</time></trkpt><trkpt lat="39.46449853" lon="-0.39411633"><ele>25.6</ele><time>2022-11-06T12:28:09.0000000+00:00</time></trkpt><trkpt lat="39.46451437" lon="-0.39412136"><ele>25.6</ele><time>2022-11-06T12:28:10.0000000+00:00</time></trkpt><trkpt lat="39.46452761" lon="-0.39413394"><ele>25.8</ele><time>2022-11-06T12:28:11.0000000+00:00</time></trkpt><trkpt lat="39.46453859" lon="-0.39414626"><ele>25.8</ele><time>2022-11-06T12:28:12.0000000+00:00</time></trkpt><trkpt lat="39.46454798" lon="-0.39413804"><ele>25.8</ele><time>2022-11-06T12:28:13.0000000+00:00</time></trkpt><trkpt lat="39.4645479" lon="-0.3941419"><ele>25.8</ele><time>2022-11-06T12:28:14.0000000+00:00</time></trkpt><trkpt lat="39.46454622" lon="-0.39414299"><ele>25.8</ele><time>2022-11-06T12:28:15.0000000+00:00</time></trkpt><trkpt lat="39.46454496" lon="-0.39415062"><ele>25.8</ele><time>2022-11-06T12:28:16.0000000+00:00</time></trkpt><trkpt lat="39.46455544" lon="-0.39415799"><ele>25.8</ele><time>2022-11-06T12:28:17.0000000+00:00</time></trkpt><trkpt lat="39.46457304" lon="-0.39416218"><ele>26.0</ele><time>2022-11-06T12:28:18.0000000+00:00</time></trkpt><trkpt lat="39.46458939" lon="-0.39416445"><ele>26.0</ele><time>2022-11-06T12:28:19.0000000+00:00</time></trkpt><trkpt lat="39.46457857" lon="-0.39417224"><ele>26.0</ele><time>2022-11-06T12:28:20.0000000+00:00</time></trkpt><trkpt lat="39.46458788" lon="-0.39417626"><ele>26.0</ele><time>2022-11-06T12:28:21.0000000+00:00</time></trkpt><trkpt lat="39.46459676" lon="-0.39417283"><ele>26.0</ele><time>2022-11-06T12:28:22.0000000+00:00</time></trkpt><trkpt lat="39.46460414" lon="-0.39416914"><ele>26.0</ele><time>2022-11-06T12:28:23.0000000+00:00</time></trkpt><trkpt lat="39.46463071" lon="-0.39416763"><ele>26.0</ele><time>2022-11-06T12:28:24.0000000+00:00</time></trkpt><trkpt lat="39.46465317" lon="-0.39416746"><ele>26.0</ele><time>2022-11-06T12:28:25.0000000+00:00</time></trkpt><trkpt lat="39.46467605" lon="-0.39416755"><ele>26.0</ele><time>2022-11-06T12:28:26.0000000+00:00</time></trkpt><trkpt lat="39.46469424" lon="-0.39416336"><ele>26.0</ele><time>2022-11-06T12:28:27.0000000+00:00</time></trkpt><trkpt lat="39.46471352" lon="-0.39416344"><ele>26.0</ele><time>2022-11-06T12:28:28.0000000+00:00</time></trkpt><trkpt lat="39.46473347" lon="-0.39416394"><ele>26.0</ele><time>2022-11-06T12:28:29.0000000+00:00</time></trkpt><trkpt lat="39.46475074" lon="-0.39416897"><ele>26.0</ele><time>2022-11-06T12:28:30.0000000+00:00</time></trkpt><trkpt lat="39.46476465" lon="-0.39416713"><ele>26.0</ele><time>2022-11-06T12:28:31.0000000+00:00</time></trkpt><trkpt lat="39.46477974" lon="-0.39416453"><ele>26.0</ele><time>2022-11-06T12:28:32.0000000+00:00</time></trkpt><trkpt lat="39.46479566" lon="-0.39415749"><ele>26.0</ele><time>2022-11-06T12:28:33.0000000+00:00</time></trkpt><trkpt lat="39.46481729" lon="-0.39415246"><ele>26.0</ele><time>2022-11-06T12:28:34.0000000+00:00</time></trkpt><trkpt lat="39.46484101" lon="-0.39414894"><ele>26.0</ele><time>2022-11-06T12:28:35.0000000+00:00</time></trkpt><trkpt lat="39.46485459" lon="-0.39415313"><ele>26.0</ele><time>2022-11-06T12:28:36.0000000+00:00</time></trkpt><trkpt lat="39.46486733" lon="-0.39416042"><ele>26.0</ele><time>2022-11-06T12:28:37.0000000+00:00</time></trkpt><trkpt lat="39.46487336" lon="-0.39416771"><ele>26.0</ele><time>2022-11-06T12:28:38.0000000+00:00</time></trkpt><trkpt lat="39.46488569" lon="-0.39417886"><ele>26.0</ele><time>2022-11-06T12:28:39.0000000+00:00</time></trkpt><trkpt lat="39.4648903" lon="-0.39420174"><ele>26.0</ele><time>2022-11-06T12:28:40.0000000+00:00</time></trkpt><trkpt lat="39.4648908" lon="-0.39422538"><ele>26.0</ele><time>2022-11-06T12:28:41.0000000+00:00</time></trkpt><trkpt lat="39.46489784" lon="-0.39423971"><ele>26.0</ele><time>2022-11-06T12:28:42.0000000+00:00</time></trkpt><trkpt lat="39.4649053" lon="-0.39425296"><ele>26.0</ele><time>2022-11-06T12:28:43.0000000+00:00</time></trkpt><trkpt lat="39.46491687" lon="-0.39426067"><ele>26.0</ele><time>2022-11-06T12:28:44.0000000+00:00</time></trkpt><trkpt lat="39.46492768" lon="-0.39427148"><ele>26.0</ele><time>2022-11-06T12:28:45.0000000+00:00</time></trkpt><trkpt lat="39.4649395" lon="-0.39428146"><ele>26.2</ele><time>2022-11-06T12:28:46.0000000+00:00</time></trkpt><trkpt lat="39.46495232" lon="-0.39428934"><ele>26.2</ele><time>2022-11-06T12:28:47.0000000+00:00</time></trkpt><trkpt lat="39.46496104" lon="-0.39429772"><ele>26.2</ele><time>2022-11-06T12:28:48.0000000+00:00</time></trkpt><trkpt lat="39.46497202" lon="-0.39430358"><ele>26.2</ele><time>2022-11-06T12:28:49.0000000+00:00</time></trkpt><trkpt lat="39.4649825" lon="-0.39430945"><ele>26.2</ele><time>2022-11-06T12:28:50.0000000+00:00</time></trkpt><trkpt lat="39.46499365" lon="-0.394318"><ele>26.2</ele><time>2022-11-06T12:28:51.0000000+00:00</time></trkpt><trkpt lat="39.46499993" lon="-0.39432982"><ele>26.2</ele><time>2022-11-06T12:28:52.0000000+00:00</time></trkpt><trkpt lat="39.46500471" lon="-0.3943543"><ele>26.2</ele><time>2022-11-06T12:28:53.0000000+00:00</time></trkpt><trkpt lat="39.46500898" lon="-0.39437852"><ele>26.4</ele><time>2022-11-06T12:28:54.0000000+00:00</time></trkpt><trkpt lat="39.4650125" lon="-0.39439947"><ele>26.4</ele><time>2022-11-06T12:28:55.0000000+00:00</time></trkpt><trkpt lat="39.46501728" lon="-0.39441867"><ele>26.4</ele><time>2022-11-06T12:28:56.0000000+00:00</time></trkpt><trkpt lat="39.46503145" lon="-0.39444004"><ele>26.4</ele><time>2022-11-06T12:28:57.0000000+00:00</time></trkpt><trkpt lat="39.46504997" lon="-0.39446041"><ele>26.4</ele><time>2022-11-06T12:28:58.0000000+00:00</time></trkpt><trkpt lat="39.46505986" lon="-0.39447625"><ele>26.4</ele><time>2022-11-06T12:28:59.0000000+00:00</time></trkpt><trkpt lat="39.46506632" lon="-0.39449218"><ele>26.4</ele><time>2022-11-06T12:29:00.0000000+00:00</time></trkpt><trkpt lat="39.46507235" lon="-0.3945169"><ele>26.4</ele><time>2022-11-06T12:29:01.0000000+00:00</time></trkpt><trkpt lat="39.46507704" lon="-0.39453342"><ele>26.4</ele><time>2022-11-06T12:29:02.0000000+00:00</time></trkpt><trkpt lat="39.46508844" lon="-0.39455311"><ele>26.4</ele><time>2022-11-06T12:29:03.0000000+00:00</time></trkpt><trkpt lat="39.46509926" lon="-0.39457264"><ele>26.4</ele><time>2022-11-06T12:29:04.0000000+00:00</time></trkpt><trkpt lat="39.46510663" lon="-0.39458815"><ele>26.4</ele><time>2022-11-06T12:29:05.0000000+00:00</time></trkpt><trkpt lat="39.46511476" lon="-0.39460056"><ele>26.6</ele><time>2022-11-06T12:29:06.0000000+00:00</time></trkpt><trkpt lat="39.46512172" lon="-0.39461028"><ele>26.6</ele><time>2022-11-06T12:29:07.0000000+00:00</time></trkpt><trkpt lat="39.46512876" lon="-0.39461866"><ele>26.6</ele><time>2022-11-06T12:29:08.0000000+00:00</time></trkpt><trkpt lat="39.46513723" lon="-0.39463526"><ele>26.6</ele><time>2022-11-06T12:29:09.0000000+00:00</time></trkpt><trkpt lat="39.46514209" lon="-0.39465185"><ele>26.6</ele><time>2022-11-06T12:29:10.0000000+00:00</time></trkpt><trkpt lat="39.46514955" lon="-0.39467054"><ele>26.6</ele><time>2022-11-06T12:29:11.0000000+00:00</time></trkpt><trkpt lat="39.46515592" lon="-0.39467884"><ele>26.6</ele><time>2022-11-06T12:29:12.0000000+00:00</time></trkpt><trkpt lat="39.46516539" lon="-0.39468127"><ele>26.6</ele><time>2022-11-06T12:29:13.0000000+00:00</time></trkpt><trkpt lat="39.46517486" lon="-0.39468546"><ele>26.6</ele><time>2022-11-06T12:29:14.0000000+00:00</time></trkpt><trkpt lat="39.46517671" lon="-0.39469661"><ele>26.6</ele><time>2022-11-06T12:29:15.0000000+00:00</time></trkpt><trkpt lat="39.46518257" lon="-0.3947065"><ele>26.8</ele><time>2022-11-06T12:29:16.0000000+00:00</time></trkpt><trkpt lat="39.46519481" lon="-0.39471765"><ele>26.8</ele><time>2022-11-06T12:29:17.0000000+00:00</time></trkpt><trkpt lat="39.4652073" lon="-0.39472796"><ele>26.8</ele><time>2022-11-06T12:29:18.0000000+00:00</time></trkpt><trkpt lat="39.4652161" lon="-0.39474112"><ele>26.8</ele><time>2022-11-06T12:29:19.0000000+00:00</time></trkpt><trkpt lat="39.46522675" lon="-0.39476015"><ele>26.8</ele><time>2022-11-06T12:29:20.0000000+00:00</time></trkpt><trkpt lat="39.46523538" lon="-0.39477926"><ele>26.8</ele><time>2022-11-06T12:29:21.0000000+00:00</time></trkpt><trkpt lat="39.46523001" lon="-0.39479678"><ele>26.8</ele><time>2022-11-06T12:29:22.0000000+00:00</time></trkpt><trkpt lat="39.46522281" lon="-0.39481119"><ele>26.6</ele><time>2022-11-06T12:29:23.0000000+00:00</time></trkpt><trkpt lat="39.46522431" lon="-0.39482351"><ele>26.6</ele><time>2022-11-06T12:29:24.0000000+00:00</time></trkpt><trkpt lat="39.46522641" lon="-0.39483667"><ele>26.6</ele><time>2022-11-06T12:29:25.0000000+00:00</time></trkpt><trkpt lat="39.46522465" lon="-0.39485335"><ele>26.6</ele><time>2022-11-06T12:29:26.0000000+00:00</time></trkpt><trkpt lat="39.46522658" lon="-0.39487624"><ele>26.6</ele><time>2022-11-06T12:29:27.0000000+00:00</time></trkpt><trkpt lat="39.46522716" lon="-0.39490155"><ele>26.8</ele><time>2022-11-06T12:29:28.0000000+00:00</time></trkpt><trkpt lat="39.46522431" lon="-0.39492653"><ele>26.8</ele><time>2022-11-06T12:29:29.0000000+00:00</time></trkpt><trkpt lat="39.46521903" lon="-0.39495109"><ele>26.8</ele><time>2022-11-06T12:29:30.0000000+00:00</time></trkpt><trkpt lat="39.46521836" lon="-0.39496944"><ele>26.6</ele><time>2022-11-06T12:29:31.0000000+00:00</time></trkpt><trkpt lat="39.46521945" lon="-0.39498378"><ele>26.6</ele><time>2022-11-06T12:29:32.0000000+00:00</time></trkpt><trkpt lat="39.46521987" lon="-0.39499333"><ele>26.6</ele><time>2022-11-06T12:29:33.0000000+00:00</time></trkpt><trkpt lat="39.46522247" lon="-0.39500238"><ele>26.4</ele><time>2022-11-06T12:29:34.0000000+00:00</time></trkpt><trkpt lat="39.46522314" lon="-0.3950132"><ele>26.4</ele><time>2022-11-06T12:29:35.0000000+00:00</time></trkpt><trkpt lat="39.46522591" lon="-0.39502317"><ele>26.4</ele><time>2022-11-06T12:29:36.0000000+00:00</time></trkpt><trkpt lat="39.46522901" lon="-0.39503214"><ele>26.4</ele><time>2022-11-06T12:29:37.0000000+00:00</time></trkpt><trkpt lat="39.46523588" lon="-0.39504027"><ele>26.2</ele><time>2022-11-06T12:29:38.0000000+00:00</time></trkpt><trkpt lat="39.46524158" lon="-0.39504899"><ele>26.2</ele><time>2022-11-06T12:29:39.0000000+00:00</time></trkpt><trkpt lat="39.4652503" lon="-0.39505268"><ele>26.2</ele><time>2022-11-06T12:29:40.0000000+00:00</time></trkpt><trkpt lat="39.46525273" lon="-0.39505276"><ele>26.2</ele><time>2022-11-06T12:29:41.0000000+00:00</time></trkpt><trkpt lat="39.46526472" lon="-0.3950489"><ele>26.2</ele><time>2022-11-06T12:29:42.0000000+00:00</time></trkpt><trkpt lat="39.46526396" lon="-0.39505745"><ele>26.2</ele><time>2022-11-06T12:29:43.0000000+00:00</time></trkpt><trkpt lat="39.4652736" lon="-0.39506567"><ele>26.2</ele><time>2022-11-06T12:29:44.0000000+00:00</time></trkpt><trkpt lat="39.4652772" lon="-0.39508478"><ele>26.2</ele><time>2022-11-06T12:29:45.0000000+00:00</time></trkpt><trkpt lat="39.46527813" lon="-0.39510096"><ele>26.2</ele><time>2022-11-06T12:29:46.0000000+00:00</time></trkpt><trkpt lat="39.46528114" lon="-0.39510917"><ele>26.2</ele><time>2022-11-06T12:29:47.0000000+00:00</time></trkpt><trkpt lat="39.4652928" lon="-0.39510448"><ele>26.2</ele><time>2022-11-06T12:29:48.0000000+00:00</time></trkpt><trkpt lat="39.46530411" lon="-0.39510179"><ele>26.2</ele><time>2022-11-06T12:29:49.0000000+00:00</time></trkpt><trkpt lat="39.46530813" lon="-0.39508964"><ele>26.2</ele><time>2022-11-06T12:29:50.0000000+00:00</time></trkpt><trkpt lat="39.46531593" lon="-0.39509073"><ele>26.2</ele><time>2022-11-06T12:29:51.0000000+00:00</time></trkpt><trkpt lat="39.4653166" lon="-0.39509492"><ele>26.2</ele><time>2022-11-06T12:29:52.0000000+00:00</time></trkpt><trkpt lat="39.46531853" lon="-0.3951028"><ele>26.2</ele><time>2022-11-06T12:29:53.0000000+00:00</time></trkpt><trkpt lat="39.46532213" lon="-0.39511009"><ele>26.2</ele><time>2022-11-06T12:29:54.0000000+00:00</time></trkpt><trkpt lat="39.4653259" lon="-0.39511588"><ele>26.2</ele><time>2022-11-06T12:29:55.0000000+00:00</time></trkpt><trkpt lat="39.46533152" lon="-0.39512342"><ele>26.2</ele><time>2022-11-06T12:29:56.0000000+00:00</time></trkpt><trkpt lat="39.46533898" lon="-0.39512945"><ele>26.2</ele><time>2022-11-06T12:29:57.0000000+00:00</time></trkpt><trkpt lat="39.46534929" lon="-0.39513717"><ele>26.2</ele><time>2022-11-06T12:29:58.0000000+00:00</time></trkpt><trkpt lat="39.46535792" lon="-0.39513909"><ele>26.2</ele><time>2022-11-06T12:29:59.0000000+00:00</time></trkpt><trkpt lat="39.46536941" lon="-0.39514169"><ele>26.2</ele><time>2022-11-06T12:30:00.0000000+00:00</time></trkpt><trkpt lat="39.46537544" lon="-0.39514412"><ele>26.2</ele><time>2022-11-06T12:30:01.0000000+00:00</time></trkpt><trkpt lat="39.46538525" lon="-0.39514622"><ele>26.2</ele><time>2022-11-06T12:30:02.0000000+00:00</time></trkpt><trkpt lat="39.4653943" lon="-0.39515032"><ele>26.2</ele><time>2022-11-06T12:30:03.0000000+00:00</time></trkpt><trkpt lat="39.46540025" lon="-0.39515292"><ele>26.2</ele><time>2022-11-06T12:30:04.0000000+00:00</time></trkpt><trkpt lat="39.46541073" lon="-0.39515896"><ele>26.0</ele><time>2022-11-06T12:30:05.0000000+00:00</time></trkpt><trkpt lat="39.46542481" lon="-0.39517153"><ele>26.0</ele><time>2022-11-06T12:30:06.0000000+00:00</time></trkpt><trkpt lat="39.46543889" lon="-0.39518335"><ele>26.0</ele><time>2022-11-06T12:30:07.0000000+00:00</time></trkpt><trkpt lat="39.46544987" lon="-0.39519064"><ele>26.0</ele><time>2022-11-06T12:30:08.0000000+00:00</time></trkpt><trkpt lat="39.46546345" lon="-0.39519676"><ele>26.0</ele><time>2022-11-06T12:30:09.0000000+00:00</time></trkpt><trkpt lat="39.46547175" lon="-0.39520145"><ele>26.0</ele><time>2022-11-06T12:30:10.0000000+00:00</time></trkpt><trkpt lat="39.46547921" lon="-0.39520741"><ele>25.8</ele><time>2022-11-06T12:30:11.0000000+00:00</time></trkpt><trkpt lat="39.46548658" lon="-0.39520917"><ele>25.8</ele><time>2022-11-06T12:30:12.0000000+00:00</time></trkpt><trkpt lat="39.46549262" lon="-0.3952095"><ele>25.8</ele><time>2022-11-06T12:30:13.0000000+00:00</time></trkpt><trkpt lat="39.46549664" lon="-0.39521067"><ele>26.0</ele><time>2022-11-06T12:30:14.0000000+00:00</time></trkpt><trkpt lat="39.46550846" lon="-0.39521193"><ele>26.0</ele><time>2022-11-06T12:30:15.0000000+00:00</time></trkpt><trkpt lat="39.46551953" lon="-0.39521285"><ele>26.0</ele><time>2022-11-06T12:30:16.0000000+00:00</time></trkpt><trkpt lat="39.46552732" lon="-0.39521168"><ele>26.0</ele><time>2022-11-06T12:30:17.0000000+00:00</time></trkpt><trkpt lat="39.46553193" lon="-0.39521042"><ele>26.0</ele><time>2022-11-06T12:30:18.0000000+00:00</time></trkpt><trkpt lat="39.46553646" lon="-0.39520925"><ele>26.0</ele><time>2022-11-06T12:30:19.0000000+00:00</time></trkpt><trkpt lat="39.46554325" lon="-0.39520992"><ele>26.0</ele><time>2022-11-06T12:30:20.0000000+00:00</time></trkpt><trkpt lat="39.4655466" lon="-0.3952121"><ele>26.0</ele><time>2022-11-06T12:30:21.0000000+00:00</time></trkpt><trkpt lat="39.4655559" lon="-0.3952178"><ele>26.2</ele><time>2022-11-06T12:30:22.0000000+00:00</time></trkpt><trkpt lat="39.46556496" lon="-0.39522434"><ele>26.2</ele><time>2022-11-06T12:30:23.0000000+00:00</time></trkpt><trkpt lat="39.46557778" lon="-0.39523498"><ele>26.2</ele><time>2022-11-06T12:30:24.0000000+00:00</time></trkpt><trkpt lat="39.46558809" lon="-0.39524127"><ele>26.2</ele><time>2022-11-06T12:30:25.0000000+00:00</time></trkpt><trkpt lat="39.46559547" lon="-0.3952489"><ele>26.0</ele><time>2022-11-06T12:30:26.0000000+00:00</time></trkpt><trkpt lat="39.46560418" lon="-0.39525736"><ele>26.0</ele><time>2022-11-06T12:30:27.0000000+00:00</time></trkpt><trkpt lat="39.46560879" lon="-0.39526641"><ele>26.0</ele><time>2022-11-06T12:30:28.0000000+00:00</time></trkpt><trkpt lat="39.4656129" lon="-0.39527471"><ele>26.0</ele><time>2022-11-06T12:30:29.0000000+00:00</time></trkpt><trkpt lat="39.46561801" lon="-0.39527966"><ele>26.0</ele><time>2022-11-06T12:30:30.0000000+00:00</time></trkpt><trkpt lat="39.46562321" lon="-0.3952846"><ele>26.0</ele><time>2022-11-06T12:30:31.0000000+00:00</time></trkpt><trkpt lat="39.46563704" lon="-0.39528779"><ele>26.0</ele><time>2022-11-06T12:30:32.0000000+00:00</time></trkpt><trkpt lat="39.46564601" lon="-0.39529039"><ele>26.0</ele><time>2022-11-06T12:30:33.0000000+00:00</time></trkpt><trkpt lat="39.46565389" lon="-0.39529215"><ele>26.0</ele><time>2022-11-06T12:30:34.0000000+00:00</time></trkpt><trkpt lat="39.46566068" lon="-0.39529567"><ele>26.0</ele><time>2022-11-06T12:30:35.0000000+00:00</time></trkpt><trkpt lat="39.46567057" lon="-0.39530112"><ele>26.0</ele><time>2022-11-06T12:30:36.0000000+00:00</time></trkpt><trkpt lat="39.46568138" lon="-0.39530346"><ele>26.0</ele><time>2022-11-06T12:30:37.0000000+00:00</time></trkpt><trkpt lat="39.46569295" lon="-0.39530522"><ele>26.0</ele><time>2022-11-06T12:30:38.0000000+00:00</time></trkpt><trkpt lat="39.4657046" lon="-0.39530447"><ele>26.0</ele><time>2022-11-06T12:30:39.0000000+00:00</time></trkpt><trkpt lat="39.46571382" lon="-0.39530422"><ele>26.0</ele><time>2022-11-06T12:30:40.0000000+00:00</time></trkpt><trkpt lat="39.46572228" lon="-0.39530254"><ele>26.0</ele><time>2022-11-06T12:30:41.0000000+00:00</time></trkpt><trkpt lat="39.46572723" lon="-0.39528905"><ele>26.0</ele><time>2022-11-06T12:30:42.0000000+00:00</time></trkpt><trkpt lat="39.46573796" lon="-0.39527932"><ele>26.0</ele><time>2022-11-06T12:30:43.0000000+00:00</time></trkpt><trkpt lat="39.46574693" lon="-0.39527547"><ele>26.0</ele><time>2022-11-06T12:30:44.0000000+00:00</time></trkpt><trkpt lat="39.46575522" lon="-0.39527739"><ele>26.0</ele><time>2022-11-06T12:30:45.0000000+00:00</time></trkpt><trkpt lat="39.46576243" lon="-0.39527941"><ele>26.0</ele><time>2022-11-06T12:30:46.0000000+00:00</time></trkpt><trkpt lat="39.46576905" lon="-0.39528192"><ele>26.0</ele><time>2022-11-06T12:30:47.0000000+00:00</time></trkpt><trkpt lat="39.46577517" lon="-0.39528854"><ele>26.0</ele><time>2022-11-06T12:30:48.0000000+00:00</time></trkpt><trkpt lat="39.4657849" lon="-0.3952919"><ele>26.0</ele><time>2022-11-06T12:30:49.0000000+00:00</time></trkpt><trkpt lat="39.46579252" lon="-0.39530179"><ele>26.0</ele><time>2022-11-06T12:30:50.0000000+00:00</time></trkpt><trkpt lat="39.46579512" lon="-0.39530279"><ele>26.0</ele><time>2022-11-06T12:30:51.0000000+00:00</time></trkpt><trkpt lat="39.46580174" lon="-0.39530346"><ele>26.0</ele><time>2022-11-06T12:30:52.0000000+00:00</time></trkpt><trkpt lat="39.46580987" lon="-0.39531319"><ele>26.0</ele><time>2022-11-06T12:30:53.0000000+00:00</time></trkpt><trkpt lat="39.46581742" lon="-0.39532148"><ele>26.0</ele><time>2022-11-06T12:30:54.0000000+00:00</time></trkpt><trkpt lat="39.46582689" lon="-0.39533255"><ele>26.0</ele><time>2022-11-06T12:30:55.0000000+00:00</time></trkpt><trkpt lat="39.46583351" lon="-0.39535912"><ele>26.0</ele><time>2022-11-06T12:30:56.0000000+00:00</time></trkpt><trkpt lat="39.46583116" lon="-0.39540488"><ele>26.0</ele><time>2022-11-06T12:30:57.0000000+00:00</time></trkpt><trkpt lat="39.46583075" lon="-0.39542081"><ele>26.0</ele><time>2022-11-06T12:30:58.0000000+00:00</time></trkpt><trkpt lat="39.46583083" lon="-0.39543623"><ele>26.0</ele><time>2022-11-06T12:30:59.0000000+00:00</time></trkpt><trkpt lat="39.46583485" lon="-0.39543523"><ele>25.8</ele><time>2022-11-06T12:31:00.0000000+00:00</time></trkpt><trkpt lat="39.46584131" lon="-0.39543003"><ele>25.8</ele><time>2022-11-06T12:31:01.0000000+00:00</time></trkpt><trkpt lat="39.46584768" lon="-0.39543548"><ele>25.8</ele><time>2022-11-06T12:31:02.0000000+00:00</time></trkpt><trkpt lat="39.4658569" lon="-0.3954483"><ele>25.8</ele><time>2022-11-06T12:31:03.0000000+00:00</time></trkpt><trkpt lat="39.46586075" lon="-0.39545224"><ele>25.8</ele><time>2022-11-06T12:31:04.0000000+00:00</time></trkpt><trkpt lat="39.46586863" lon="-0.39544956"><ele>25.8</ele><time>2022-11-06T12:31:05.0000000+00:00</time></trkpt><trkpt lat="39.46587995" lon="-0.39544621"><ele>25.8</ele><time>2022-11-06T12:31:06.0000000+00:00</time></trkpt><trkpt lat="39.46589093" lon="-0.39544528"><ele>25.8</ele><time>2022-11-06T12:31:07.0000000+00:00</time></trkpt><trkpt lat="39.46589227" lon="-0.39544738"><ele>25.8</ele><time>2022-11-06T12:31:08.0000000+00:00</time></trkpt><trkpt lat="39.46589344" lon="-0.39544696"><ele>25.8</ele><time>2022-11-06T12:31:09.0000000+00:00</time></trkpt><trkpt lat="39.46589763" lon="-0.3954483"><ele>25.8</ele><time>2022-11-06T12:31:10.0000000+00:00</time></trkpt><trkpt lat="39.46590669" lon="-0.39543799"><ele>26.0</ele><time>2022-11-06T12:31:11.0000000+00:00</time></trkpt><trkpt lat="39.4659185" lon="-0.3954343"><ele>26.0</ele><time>2022-11-06T12:31:12.0000000+00:00</time></trkpt><trkpt lat="39.46592655" lon="-0.39543866"><ele>26.0</ele><time>2022-11-06T12:31:13.0000000+00:00</time></trkpt><trkpt lat="39.46593954" lon="-0.39544386"><ele>26.0</ele><time>2022-11-06T12:31:14.0000000+00:00</time></trkpt><trkpt lat="39.46594734" lon="-0.39544269"><ele>26.0</ele><time>2022-11-06T12:31:15.0000000+00:00</time></trkpt><trkpt lat="39.46595119" lon="-0.39543984"><ele>26.0</ele><time>2022-11-06T12:31:16.0000000+00:00</time></trkpt><trkpt lat="39.46596234" lon="-0.39544143"><ele>26.0</ele><time>2022-11-06T12:31:17.0000000+00:00</time></trkpt><trkpt lat="39.46596905" lon="-0.3954457"><ele>26.0</ele><time>2022-11-06T12:31:18.0000000+00:00</time></trkpt><trkpt lat="39.46597315" lon="-0.39544663"><ele>26.0</ele><time>2022-11-06T12:31:19.0000000+00:00</time></trkpt><trkpt lat="39.46597735" lon="-0.39544755"><ele>25.8</ele><time>2022-11-06T12:31:20.0000000+00:00</time></trkpt><trkpt lat="39.46598271" lon="-0.39545065"><ele>25.8</ele><time>2022-11-06T12:31:21.0000000+00:00</time></trkpt><trkpt lat="39.46599042" lon="-0.39545207"><ele>25.8</ele><time>2022-11-06T12:31:22.0000000+00:00</time></trkpt><trkpt lat="39.46599847" lon="-0.39545048"><ele>25.8</ele><time>2022-11-06T12:31:23.0000000+00:00</time></trkpt><trkpt lat="39.46600601" lon="-0.39545149"><ele>25.8</ele><time>2022-11-06T12:31:24.0000000+00:00</time></trkpt><trkpt lat="39.46601607" lon="-0.3954545"><ele>25.8</ele><time>2022-11-06T12:31:25.0000000+00:00</time></trkpt><trkpt lat="39.46602361" lon="-0.39545191"><ele>26.0</ele><time>2022-11-06T12:31:26.0000000+00:00</time></trkpt><trkpt lat="39.46602663" lon="-0.39544319"><ele>26.0</ele><time>2022-11-06T12:31:27.0000000+00:00</time></trkpt><trkpt lat="39.46602353" lon="-0.39543682"><ele>26.0</ele><time>2022-11-06T12:31:28.0000000+00:00</time></trkpt><trkpt lat="39.46602889" lon="-0.39544143"><ele>26.0</ele><time>2022-11-06T12:31:29.0000000+00:00</time></trkpt><trkpt lat="39.46603208" lon="-0.39544"><ele>26.0</ele><time>2022-11-06T12:31:30.0000000+00:00</time></trkpt><trkpt lat="39.4660351" lon="-0.39544042"><ele>26.0</ele><time>2022-11-06T12:31:31.0000000+00:00</time></trkpt><trkpt lat="39.46603837" lon="-0.39544009"><ele>26.0</ele><time>2022-11-06T12:31:32.0000000+00:00</time></trkpt><trkpt lat="39.46604423" lon="-0.39544009"><ele>26.0</ele><time>2022-11-06T12:31:33.0000000+00:00</time></trkpt><trkpt lat="39.46605119" lon="-0.39544235"><ele>26.0</ele><time>2022-11-06T12:31:34.0000000+00:00</time></trkpt><trkpt lat="39.46605999" lon="-0.39544327"><ele>26.0</ele><time>2022-11-06T12:31:35.0000000+00:00</time></trkpt><trkpt lat="39.46606343" lon="-0.39544118"><ele>26.0</ele><time>2022-11-06T12:31:36.0000000+00:00</time></trkpt><trkpt lat="39.46607198" lon="-0.39544051"><ele>26.0</ele><time>2022-11-06T12:31:37.0000000+00:00</time></trkpt><trkpt lat="39.46607743" lon="-0.39543539"><ele>26.0</ele><time>2022-11-06T12:31:38.0000000+00:00</time></trkpt><trkpt lat="39.46608723" lon="-0.39543606"><ele>26.0</ele><time>2022-11-06T12:31:39.0000000+00:00</time></trkpt><trkpt lat="39.4660967" lon="-0.39543523"><ele>26.0</ele><time>2022-11-06T12:31:40.0000000+00:00</time></trkpt><trkpt lat="39.46611271" lon="-0.39543782"><ele>26.0</ele><time>2022-11-06T12:31:41.0000000+00:00</time></trkpt><trkpt lat="39.46612537" lon="-0.39544336"><ele>26.0</ele><time>2022-11-06T12:31:42.0000000+00:00</time></trkpt><trkpt lat="39.46613736" lon="-0.39544805"><ele>26.0</ele><time>2022-11-06T12:31:43.0000000+00:00</time></trkpt><trkpt lat="39.46614515" lon="-0.39545325"><ele>26.0</ele><time>2022-11-06T12:31:44.0000000+00:00</time></trkpt><trkpt lat="39.46615588" lon="-0.39546012"><ele>26.0</ele><time>2022-11-06T12:31:45.0000000+00:00</time></trkpt><trkpt lat="39.46616686" lon="-0.39546724"><ele>26.0</ele><time>2022-11-06T12:31:46.0000000+00:00</time></trkpt><trkpt lat="39.46617667" lon="-0.39547076"><ele>26.0</ele><time>2022-11-06T12:31:47.0000000+00:00</time></trkpt><trkpt lat="39.46618748" lon="-0.39547739"><ele>26.2</ele><time>2022-11-06T12:31:48.0000000+00:00</time></trkpt><trkpt lat="39.46619603" lon="-0.3954799"><ele>26.2</ele><time>2022-11-06T12:31:49.0000000+00:00</time></trkpt><trkpt lat="39.46620617" lon="-0.39548568"><ele>26.2</ele><time>2022-11-06T12:31:50.0000000+00:00</time></trkpt><trkpt lat="39.46621522" lon="-0.3954908"><ele>26.2</ele><time>2022-11-06T12:31:51.0000000+00:00</time></trkpt><trkpt lat="39.4662252" lon="-0.39549348"><ele>26.2</ele><time>2022-11-06T12:31:52.0000000+00:00</time></trkpt><trkpt lat="39.46623274" lon="-0.39549323"><ele>26.4</ele><time>2022-11-06T12:31:53.0000000+00:00</time></trkpt><trkpt lat="39.46624682" lon="-0.39548979"><ele>26.4</ele><time>2022-11-06T12:31:54.0000000+00:00</time></trkpt><trkpt lat="39.46625554" lon="-0.39548937"><ele>26.4</ele><time>2022-11-06T12:31:55.0000000+00:00</time></trkpt><trkpt lat="39.46626375" lon="-0.39548895"><ele>26.4</ele><time>2022-11-06T12:31:56.0000000+00:00</time></trkpt><trkpt lat="39.46627499" lon="-0.39549314"><ele>26.4</ele><time>2022-11-06T12:31:57.0000000+00:00</time></trkpt><trkpt lat="39.46628546" lon="-0.39549943"><ele>26.4</ele><time>2022-11-06T12:31:58.0000000+00:00</time></trkpt><trkpt lat="39.46629527" lon="-0.39550882"><ele>26.6</ele><time>2022-11-06T12:31:59.0000000+00:00</time></trkpt><trkpt lat="39.46630441" lon="-0.39551552"><ele>26.6</ele><time>2022-11-06T12:32:00.0000000+00:00</time></trkpt><trkpt lat="39.46631799" lon="-0.3955172"><ele>26.4</ele><time>2022-11-06T12:32:01.0000000+00:00</time></trkpt><trkpt lat="39.46632922" lon="-0.39551888"><ele>26.4</ele><time>2022-11-06T12:32:02.0000000+00:00</time></trkpt><trkpt lat="39.46633777" lon="-0.39552164"><ele>26.4</ele><time>2022-11-06T12:32:03.0000000+00:00</time></trkpt><trkpt lat="39.46634565" lon="-0.39552424"><ele>26.4</ele><time>2022-11-06T12:32:04.0000000+00:00</time></trkpt><trkpt lat="39.46635369" lon="-0.3955286"><ele>26.4</ele><time>2022-11-06T12:32:05.0000000+00:00</time></trkpt><trkpt lat="39.46636233" lon="-0.39553262"><ele>26.4</ele><time>2022-11-06T12:32:06.0000000+00:00</time></trkpt><trkpt lat="39.46637406" lon="-0.39553832"><ele>26.4</ele><time>2022-11-06T12:32:07.0000000+00:00</time></trkpt><trkpt lat="39.46638295" lon="-0.39553707"><ele>26.4</ele><time>2022-11-06T12:32:08.0000000+00:00</time></trkpt><trkpt lat="39.46638797" lon="-0.39553514"><ele>26.4</ele><time>2022-11-06T12:32:09.0000000+00:00</time></trkpt><trkpt lat="39.46639108" lon="-0.39553438"><ele>26.4</ele><time>2022-11-06T12:32:10.0000000+00:00</time></trkpt><trkpt lat="39.46639787" lon="-0.39553857"><ele>26.4</ele><time>2022-11-06T12:32:11.0000000+00:00</time></trkpt><trkpt lat="39.46640097" lon="-0.39554277"><ele>26.4</ele><time>2022-11-06T12:32:12.0000000+00:00</time></trkpt><trkpt lat="39.46640994" lon="-0.39554494"><ele>26.4</ele><time>2022-11-06T12:32:13.0000000+00:00</time></trkpt><trkpt lat="39.46642729" lon="-0.39555081"><ele>26.4</ele><time>2022-11-06T12:32:14.0000000+00:00</time></trkpt><trkpt lat="39.46643785" lon="-0.39556213"><ele>26.4</ele><time>2022-11-06T12:32:15.0000000+00:00</time></trkpt><trkpt lat="39.46644749" lon="-0.39556439"><ele>26.4</ele><time>2022-11-06T12:32:16.0000000+00:00</time></trkpt><trkpt lat="39.46645704" lon="-0.39556003"><ele>26.4</ele><time>2022-11-06T12:32:17.0000000+00:00</time></trkpt><trkpt lat="39.46646358" lon="-0.39555852"><ele>26.4</ele><time>2022-11-06T12:32:18.0000000+00:00</time></trkpt><trkpt lat="39.46647154" lon="-0.39556154"><ele>26.4</ele><time>2022-11-06T12:32:19.0000000+00:00</time></trkpt><trkpt lat="39.4664785" lon="-0.39556967"><ele>26.4</ele><time>2022-11-06T12:32:20.0000000+00:00</time></trkpt><trkpt lat="39.46648755" lon="-0.39557906"><ele>26.4</ele><time>2022-11-06T12:32:21.0000000+00:00</time></trkpt><trkpt lat="39.46649225" lon="-0.3955809"><ele>26.4</ele><time>2022-11-06T12:32:22.0000000+00:00</time></trkpt><trkpt lat="39.46649945" lon="-0.39558266"><ele>26.4</ele><time>2022-11-06T12:32:23.0000000+00:00</time></trkpt><trkpt lat="39.46650951" lon="-0.39558468"><ele>26.4</ele><time>2022-11-06T12:32:24.0000000+00:00</time></trkpt><trkpt lat="39.46652175" lon="-0.39558526"><ele>26.4</ele><time>2022-11-06T12:32:25.0000000+00:00</time></trkpt><trkpt lat="39.46652954" lon="-0.39558451"><ele>26.4</ele><time>2022-11-06T12:32:26.0000000+00:00</time></trkpt><trkpt lat="39.46653156" lon="-0.39558602"><ele>26.4</ele><time>2022-11-06T12:32:27.0000000+00:00</time></trkpt><trkpt lat="39.46653508" lon="-0.395583"><ele>26.4</ele><time>2022-11-06T12:32:28.0000000+00:00</time></trkpt><trkpt lat="39.46654312" lon="-0.3955742"><ele>26.4</ele><time>2022-11-06T12:32:29.0000000+00:00</time></trkpt><trkpt lat="39.46655687" lon="-0.39556406"><ele>26.4</ele><time>2022-11-06T12:32:30.0000000+00:00</time></trkpt><trkpt lat="39.46657171" lon="-0.39555366"><ele>26.4</ele><time>2022-11-06T12:32:31.0000000+00:00</time></trkpt><trkpt lat="39.46658704" lon="-0.39554268"><ele>26.4</ele><time>2022-11-06T12:32:32.0000000+00:00</time></trkpt><trkpt lat="39.46658931" lon="-0.39553195"><ele>26.4</ele><time>2022-11-06T12:32:33.0000000+00:00</time></trkpt><trkpt lat="39.46659006" lon="-0.39552164"><ele>26.4</ele><time>2022-11-06T12:32:34.0000000+00:00</time></trkpt><trkpt lat="39.46659057" lon="-0.39551108"><ele>26.2</ele><time>2022-11-06T12:32:35.0000000+00:00</time></trkpt><trkpt lat="39.46659383" lon="-0.39550144"><ele>26.2</ele><time>2022-11-06T12:32:36.0000000+00:00</time></trkpt><trkpt lat="39.46659861" lon="-0.39549206"><ele>26.2</ele><time>2022-11-06T12:32:37.0000000+00:00</time></trkpt><trkpt lat="39.46660046" lon="-0.39548744"><ele>26.2</ele><time>2022-11-06T12:32:38.0000000+00:00</time></trkpt><trkpt lat="39.46659744" lon="-0.39548367"><ele>26.2</ele><time>2022-11-06T12:32:39.0000000+00:00</time></trkpt><trkpt lat="39.46659274" lon="-0.39547579"><ele>26.2</ele><time>2022-11-06T12:32:40.0000000+00:00</time></trkpt><trkpt lat="39.46658763" lon="-0.39546833"><ele>26.2</ele><time>2022-11-06T12:32:41.0000000+00:00</time></trkpt><trkpt lat="39.46658243" lon="-0.39546222"><ele>26.0</ele><time>2022-11-06T12:32:42.0000000+00:00</time></trkpt><trkpt lat="39.46657799" lon="-0.39545652"><ele>26.0</ele><time>2022-11-06T12:32:43.0000000+00:00</time></trkpt><trkpt lat="39.46657707" lon="-0.39545207"><ele>26.0</ele><time>2022-11-06T12:32:44.0000000+00:00</time></trkpt><trkpt lat="39.46658319" lon="-0.39544202"><ele>26.0</ele><time>2022-11-06T12:32:45.0000000+00:00</time></trkpt><trkpt lat="39.46659132" lon="-0.39543347"><ele>26.0</ele><time>2022-11-06T12:32:46.0000000+00:00</time></trkpt><trkpt lat="39.4665904" lon="-0.39542785"><ele>26.0</ele><time>2022-11-06T12:32:47.0000000+00:00</time></trkpt><trkpt lat="39.46660356" lon="-0.39541511"><ele>26.0</ele><time>2022-11-06T12:32:48.0000000+00:00</time></trkpt><trkpt lat="39.46660683" lon="-0.39541259"><ele>25.8</ele><time>2022-11-06T12:32:49.0000000+00:00</time></trkpt><trkpt lat="39.46661118" lon="-0.39540388"><ele>25.8</ele><time>2022-11-06T12:32:50.0000000+00:00</time></trkpt><trkpt lat="39.46661445" lon="-0.39538938"><ele>25.8</ele><time>2022-11-06T12:32:51.0000000+00:00</time></trkpt><trkpt lat="39.46661839" lon="-0.39537488"><ele>25.8</ele><time>2022-11-06T12:32:52.0000000+00:00</time></trkpt><trkpt lat="39.46662895" lon="-0.39536876"><ele>25.8</ele><time>2022-11-06T12:32:53.0000000+00:00</time></trkpt><trkpt lat="39.46662401" lon="-0.39536566"><ele>25.8</ele><time>2022-11-06T12:32:54.0000000+00:00</time></trkpt><trkpt lat="39.4666199" lon="-0.39535987"><ele>25.8</ele><time>2022-11-06T12:32:55.0000000+00:00</time></trkpt><trkpt lat="39.46661244" lon="-0.39535535"><ele>25.8</ele><time>2022-11-06T12:32:56.0000000+00:00</time></trkpt><trkpt lat="39.46659065" lon="-0.39533766"><ele>25.8</ele><time>2022-11-06T12:32:57.0000000+00:00</time></trkpt><trkpt lat="39.46657967" lon="-0.39533858"><ele>25.8</ele><time>2022-11-06T12:32:58.0000000+00:00</time></trkpt><trkpt lat="39.46657095" lon="-0.39534059"><ele>25.8</ele><time>2022-11-06T12:32:59.0000000+00:00</time></trkpt><trkpt lat="39.46656869" lon="-0.39534261"><ele>25.8</ele><time>2022-11-06T12:33:00.0000000+00:00</time></trkpt><trkpt lat="39.46656735" lon="-0.39534546"><ele>25.8</ele><time>2022-11-06T12:33:01.0000000+00:00</time></trkpt><trkpt lat="39.46656793" lon="-0.39534722"><ele>25.8</ele><time>2022-11-06T12:33:02.0000000+00:00</time></trkpt><trkpt lat="39.46656886" lon="-0.39534864"><ele>25.8</ele><time>2022-11-06T12:33:03.0000000+00:00</time></trkpt><trkpt lat="39.46657062" lon="-0.3953473"><ele>25.8</ele><time>2022-11-06T12:33:04.0000000+00:00</time></trkpt><trkpt lat="39.46657372" lon="-0.39534504"><ele>25.8</ele><time>2022-11-06T12:33:05.0000000+00:00</time></trkpt><trkpt lat="39.46657782" lon="-0.3953437"><ele>25.8</ele><time>2022-11-06T12:33:06.0000000+00:00</time></trkpt><trkpt lat="39.4665821" lon="-0.39534026"><ele>25.8</ele><time>2022-11-06T12:33:07.0000000+00:00</time></trkpt><trkpt lat="39.46658311" lon="-0.39534093"><ele>25.8</ele><time>2022-11-06T12:33:08.0000000+00:00</time></trkpt><trkpt lat="39.46658755" lon="-0.39533707"><ele>25.8</ele><time>2022-11-06T12:33:09.0000000+00:00</time></trkpt><trkpt lat="39.46659626" lon="-0.39532408"><ele>25.8</ele><time>2022-11-06T12:33:10.0000000+00:00</time></trkpt><trkpt lat="39.46663071" lon="-0.39529852"><ele>25.8</ele><time>2022-11-06T12:33:11.0000000+00:00</time></trkpt><trkpt lat="39.46666835" lon="-0.3952639"><ele>25.8</ele><time>2022-11-06T12:33:12.0000000+00:00</time></trkpt><trkpt lat="39.46669425" lon="-0.39525141"><ele>25.8</ele><time>2022-11-06T12:33:13.0000000+00:00</time></trkpt><trkpt lat="39.46670565" lon="-0.39525468"><ele>25.8</ele><time>2022-11-06T12:33:14.0000000+00:00</time></trkpt><trkpt lat="39.46668629" lon="-0.39526491"><ele>25.8</ele><time>2022-11-06T12:33:15.0000000+00:00</time></trkpt><trkpt lat="39.46667271" lon="-0.39527941"><ele>25.8</ele><time>2022-11-06T12:33:16.0000000+00:00</time></trkpt><trkpt lat="39.4666743" lon="-0.39528108"><ele>25.8</ele><time>2022-11-06T12:33:17.0000000+00:00</time></trkpt><trkpt lat="39.46668134" lon="-0.39527865"><ele>25.8</ele><time>2022-11-06T12:33:18.0000000+00:00</time></trkpt><trkpt lat="39.46668193" lon="-0.39528645"><ele>25.8</ele><time>2022-11-06T12:33:19.0000000+00:00</time></trkpt><trkpt lat="39.46668386" lon="-0.3953012"><ele>25.8</ele><time>2022-11-06T12:33:20.0000000+00:00</time></trkpt><trkpt lat="39.46669257" lon="-0.39529399"><ele>25.8</ele><time>2022-11-06T12:33:21.0000000+00:00</time></trkpt><trkpt lat="39.46670364" lon="-0.39529625"><ele>25.8</ele><time>2022-11-06T12:33:22.0000000+00:00</time></trkpt><trkpt lat="39.46671931" lon="-0.39530003"><ele>25.8</ele><time>2022-11-06T12:33:23.0000000+00:00</time></trkpt><trkpt lat="39.46671923" lon="-0.39530405"><ele>25.8</ele><time>2022-11-06T12:33:24.0000000+00:00</time></trkpt><trkpt lat="39.46672216" lon="-0.39530447"><ele>25.8</ele><time>2022-11-06T12:33:25.0000000+00:00</time></trkpt><trkpt lat="39.46672057" lon="-0.39530422"><ele>25.8</ele><time>2022-11-06T12:33:26.0000000+00:00</time></trkpt><trkpt lat="39.466708" lon="-0.39529617"><ele>25.8</ele><time>2022-11-06T12:33:27.0000000+00:00</time></trkpt><trkpt lat="39.46670565" lon="-0.39529667"><ele>25.8</ele><time>2022-11-06T12:33:28.0000000+00:00</time></trkpt><trkpt lat="39.46670012" lon="-0.39529416"><ele>26.0</ele><time>2022-11-06T12:33:29.0000000+00:00</time></trkpt><trkpt lat="39.46669819" lon="-0.39529609"><ele>26.0</ele><time>2022-11-06T12:33:30.0000000+00:00</time></trkpt><trkpt lat="39.46669718" lon="-0.39529298"><ele>26.0</ele><time>2022-11-06T12:33:31.0000000+00:00</time></trkpt><trkpt lat="39.46668176" lon="-0.39528561"><ele>26.0</ele><time>2022-11-06T12:33:32.0000000+00:00</time></trkpt><trkpt lat="39.46667983" lon="-0.39529206"><ele>26.2</ele><time>2022-11-06T12:33:33.0000000+00:00</time></trkpt><trkpt lat="39.46666776" lon="-0.39529692"><ele>26.2</ele><time>2022-11-06T12:33:34.0000000+00:00</time></trkpt><trkpt lat="39.46667237" lon="-0.39530849"><ele>26.0</ele><time>2022-11-06T12:33:35.0000000+00:00</time></trkpt><trkpt lat="39.46666156" lon="-0.3953007"><ele>26.0</ele><time>2022-11-06T12:33:36.0000000+00:00</time></trkpt><trkpt lat="39.46666013" lon="-0.39530313"><ele>26.0</ele><time>2022-11-06T12:33:37.0000000+00:00</time></trkpt><trkpt lat="39.46665343" lon="-0.39529818"><ele>26.0</ele><time>2022-11-06T12:33:38.0000000+00:00</time></trkpt><trkpt lat="39.46665335" lon="-0.39530078"><ele>26.0</ele><time>2022-11-06T12:33:39.0000000+00:00</time></trkpt><trkpt lat="39.46666114" lon="-0.39530757"><ele>26.0</ele><time>2022-11-06T12:33:40.0000000+00:00</time></trkpt><trkpt lat="39.4666562" lon="-0.39530958"><ele>26.2</ele><time>2022-11-06T12:33:41.0000000+00:00</time></trkpt><trkpt lat="39.46664211" lon="-0.39529458"><ele>26.2</ele><time>2022-11-06T12:33:42.0000000+00:00</time></trkpt><trkpt lat="39.46662753" lon="-0.39528519"><ele>26.2</ele><time>2022-11-06T12:33:43.0000000+00:00</time></trkpt><trkpt lat="39.46662258" lon="-0.39528511"><ele>26.2</ele><time>2022-11-06T12:33:44.0000000+00:00</time></trkpt><trkpt lat="39.46661294" lon="-0.39527681"><ele>26.2</ele><time>2022-11-06T12:33:45.0000000+00:00</time></trkpt><trkpt lat="39.46659761" lon="-0.39525602"><ele>26.2</ele><time>2022-11-06T12:33:46.0000000+00:00</time></trkpt><trkpt lat="39.46657749" lon="-0.39524035"><ele>26.2</ele><time>2022-11-06T12:33:47.0000000+00:00</time></trkpt><trkpt lat="39.46655628" lon="-0.39522844"><ele>26.2</ele><time>2022-11-06T12:33:48.0000000+00:00</time></trkpt><trkpt lat="39.46653684" lon="-0.39522124"><ele>26.2</ele><time>2022-11-06T12:33:49.0000000+00:00</time></trkpt><trkpt lat="39.46651924" lon="-0.39521453"><ele>26.2</ele><time>2022-11-06T12:33:50.0000000+00:00</time></trkpt><trkpt lat="39.46649895" lon="-0.39520221"><ele>26.2</ele><time>2022-11-06T12:33:51.0000000+00:00</time></trkpt><trkpt lat="39.46647816" lon="-0.3951924"><ele>26.2</ele><time>2022-11-06T12:33:52.0000000+00:00</time></trkpt><trkpt lat="39.46646031" lon="-0.3951888"><ele>26.4</ele><time>2022-11-06T12:33:53.0000000+00:00</time></trkpt><trkpt lat="39.46645419" lon="-0.39519047"><ele>26.4</ele><time>2022-11-06T12:33:54.0000000+00:00</time></trkpt><trkpt lat="39.46645193" lon="-0.39519198"><ele>26.2</ele><time>2022-11-06T12:33:55.0000000+00:00</time></trkpt><trkpt lat="39.46644204" lon="-0.39519542"><ele>26.4</ele><time>2022-11-06T12:33:56.0000000+00:00</time></trkpt><trkpt lat="39.46643835" lon="-0.39519626"><ele>26.4</ele><time>2022-11-06T12:33:57.0000000+00:00</time></trkpt><trkpt lat="39.46643525" lon="-0.39519701"><ele>26.4</ele><time>2022-11-06T12:33:58.0000000+00:00</time></trkpt><trkpt lat="39.46642477" lon="-0.39519634"><ele>26.4</ele><time>2022-11-06T12:33:59.0000000+00:00</time></trkpt><trkpt lat="39.46641279" lon="-0.39519073"><ele>26.4</ele><time>2022-11-06T12:34:00.0000000+00:00</time></trkpt><trkpt lat="39.46640398" lon="-0.39518536"><ele>26.2</ele><time>2022-11-06T12:34:01.0000000+00:00</time></trkpt><trkpt lat="39.46639535" lon="-0.39518293"><ele>26.2</ele><time>2022-11-06T12:34:02.0000000+00:00</time></trkpt><trkpt lat="39.4663842" lon="-0.39518042"><ele>26.2</ele><time>2022-11-06T12:34:03.0000000+00:00</time></trkpt><trkpt lat="39.46637641" lon="-0.39517706"><ele>26.2</ele><time>2022-11-06T12:34:04.0000000+00:00</time></trkpt><trkpt lat="39.46637381" lon="-0.39517866"><ele>26.2</ele><time>2022-11-06T12:34:05.0000000+00:00</time></trkpt><trkpt lat="39.46637465" lon="-0.39518083"><ele>26.2</ele><time>2022-11-06T12:34:06.0000000+00:00</time></trkpt><trkpt lat="39.46637389" lon="-0.39517924"><ele>26.0</ele><time>2022-11-06T12:34:07.0000000+00:00</time></trkpt><trkpt lat="39.46637398" lon="-0.39518318"><ele>26.0</ele><time>2022-11-06T12:34:08.0000000+00:00</time></trkpt><trkpt lat="39.46637364" lon="-0.39518695"><ele>26.0</ele><time>2022-11-06T12:34:09.0000000+00:00</time></trkpt><trkpt lat="39.46637297" lon="-0.39519056"><ele>26.0</ele><time>2022-11-06T12:34:10.0000000+00:00</time></trkpt><trkpt lat="39.46637029" lon="-0.39519358"><ele>26.0</ele><time>2022-11-06T12:34:11.0000000+00:00</time></trkpt><trkpt lat="39.46636694" lon="-0.39519617"><ele>26.0</ele><time>2022-11-06T12:34:12.0000000+00:00</time></trkpt><trkpt lat="39.46635319" lon="-0.39519031"><ele>26.0</ele><time>2022-11-06T12:34:13.0000000+00:00</time></trkpt><trkpt lat="39.46632939" lon="-0.39517958"><ele>26.0</ele><time>2022-11-06T12:34:14.0000000+00:00</time></trkpt><trkpt lat="39.46632494" lon="-0.39518234"><ele>26.0</ele><time>2022-11-06T12:34:15.0000000+00:00</time></trkpt><trkpt lat="39.46629477" lon="-0.39516164"><ele>26.0</ele><time>2022-11-06T12:34:16.0000000+00:00</time></trkpt><trkpt lat="39.46628991" lon="-0.3951634"><ele>26.0</ele><time>2022-11-06T12:34:17.0000000+00:00</time></trkpt><trkpt lat="39.46626325" lon="-0.39514831"><ele>26.0</ele><time>2022-11-06T12:34:18.0000000+00:00</time></trkpt><trkpt lat="39.46624448" lon="-0.39513582"><ele>26.0</ele><time>2022-11-06T12:34:19.0000000+00:00</time></trkpt><trkpt lat="39.46622746" lon="-0.39512384"><ele>26.0</ele><time>2022-11-06T12:34:20.0000000+00:00</time></trkpt><trkpt lat="39.46622252" lon="-0.39512149"><ele>26.0</ele><time>2022-11-06T12:34:21.0000000+00:00</time></trkpt><trkpt lat="39.4662195" lon="-0.3951199"><ele>26.2</ele><time>2022-11-06T12:34:22.0000000+00:00</time></trkpt><trkpt lat="39.46620734" lon="-0.3951116"><ele>26.2</ele><time>2022-11-06T12:34:23.0000000+00:00</time></trkpt><trkpt lat="39.46619603" lon="-0.39510347"><ele>26.2</ele><time>2022-11-06T12:34:24.0000000+00:00</time></trkpt><trkpt lat="39.46619092" lon="-0.395094"><ele>26.2</ele><time>2022-11-06T12:34:25.0000000+00:00</time></trkpt><trkpt lat="39.46618631" lon="-0.39509274"><ele>26.2</ele><time>2022-11-06T12:34:26.0000000+00:00</time></trkpt><trkpt lat="39.46618279" lon="-0.39509274"><ele>26.2</ele><time>2022-11-06T12:34:27.0000000+00:00</time></trkpt><trkpt lat="39.46616611" lon="-0.39508654"><ele>26.2</ele><time>2022-11-06T12:34:28.0000000+00:00</time></trkpt><trkpt lat="39.46614565" lon="-0.39507749"><ele>26.2</ele><time>2022-11-06T12:34:29.0000000+00:00</time></trkpt><trkpt lat="39.46612344" lon="-0.39506483"><ele>26.2</ele><time>2022-11-06T12:34:30.0000000+00:00</time></trkpt><trkpt lat="39.46610383" lon="-0.39505385"><ele>26.2</ele><time>2022-11-06T12:34:31.0000000+00:00</time></trkpt><trkpt lat="39.46609955" lon="-0.39505016"><ele>26.2</ele><time>2022-11-06T12:34:32.0000000+00:00</time></trkpt><trkpt lat="39.46609612" lon="-0.39505142"><ele>26.2</ele><time>2022-11-06T12:34:33.0000000+00:00</time></trkpt><trkpt lat="39.46609285" lon="-0.39505259"><ele>26.2</ele><time>2022-11-06T12:34:34.0000000+00:00</time></trkpt><trkpt lat="39.46608639" lon="-0.39504899"><ele>26.2</ele><time>2022-11-06T12:34:35.0000000+00:00</time></trkpt><trkpt lat="39.46608212" lon="-0.39504807"><ele>26.2</ele><time>2022-11-06T12:34:36.0000000+00:00</time></trkpt><trkpt lat="39.46607357" lon="-0.39504346"><ele>26.2</ele><time>2022-11-06T12:34:37.0000000+00:00</time></trkpt><trkpt lat="39.46606846" lon="-0.39504002"><ele>26.2</ele><time>2022-11-06T12:34:38.0000000+00:00</time></trkpt><trkpt lat="39.46605982" lon="-0.39504413"><ele>26.2</ele><time>2022-11-06T12:34:39.0000000+00:00</time></trkpt><trkpt lat="39.46605588" lon="-0.39504605"><ele>26.2</ele><time>2022-11-06T12:34:40.0000000+00:00</time></trkpt><trkpt lat="39.46605521" lon="-0.39504714"><ele>26.2</ele><time>2022-11-06T12:34:41.0000000+00:00</time></trkpt><trkpt lat="39.46604909" lon="-0.39504077"><ele>26.2</ele><time>2022-11-06T12:34:42.0000000+00:00</time></trkpt><trkpt lat="39.46604507" lon="-0.39503323"><ele>26.2</ele><time>2022-11-06T12:34:43.0000000+00:00</time></trkpt><trkpt lat="39.46603669" lon="-0.39503432"><ele>26.2</ele><time>2022-11-06T12:34:44.0000000+00:00</time></trkpt><trkpt lat="39.46603401" lon="-0.39503742"><ele>26.2</ele><time>2022-11-06T12:34:45.0000000+00:00</time></trkpt><trkpt lat="39.46603342" lon="-0.39503482"><ele>26.2</ele><time>2022-11-06T12:34:46.0000000+00:00</time></trkpt><trkpt lat="39.466032" lon="-0.39503248"><ele>26.2</ele><time>2022-11-06T12:34:47.0000000+00:00</time></trkpt><trkpt lat="39.4660294" lon="-0.39503189"><ele>26.2</ele><time>2022-11-06T12:34:48.0000000+00:00</time></trkpt><trkpt lat="39.46602956" lon="-0.39502812"><ele>26.2</ele><time>2022-11-06T12:34:49.0000000+00:00</time></trkpt><trkpt lat="39.46603258" lon="-0.39502326"><ele>26.2</ele><time>2022-11-06T12:34:50.0000000+00:00</time></trkpt><trkpt lat="39.46603208" lon="-0.39502099"><ele>26.2</ele><time>2022-11-06T12:34:51.0000000+00:00</time></trkpt><trkpt lat="39.46602873" lon="-0.39501672"><ele>26.2</ele><time>2022-11-06T12:34:52.0000000+00:00</time></trkpt><trkpt lat="39.46602495" lon="-0.39501194"><ele>26.4</ele><time>2022-11-06T12:34:53.0000000+00:00</time></trkpt><trkpt lat="39.4660247" lon="-0.39500758"><ele>26.4</ele><time>2022-11-06T12:34:54.0000000+00:00</time></trkpt><trkpt lat="39.46602562" lon="-0.39500431"><ele>26.4</ele><time>2022-11-06T12:34:55.0000000+00:00</time></trkpt><trkpt lat="39.46602445" lon="-0.39499484"><ele>26.4</ele><time>2022-11-06T12:34:56.0000000+00:00</time></trkpt><trkpt lat="39.46602252" lon="-0.39498059"><ele>26.4</ele><time>2022-11-06T12:34:57.0000000+00:00</time></trkpt><trkpt lat="39.46601959" lon="-0.39497104"><ele>26.4</ele><time>2022-11-06T12:34:58.0000000+00:00</time></trkpt><trkpt lat="39.46601255" lon="-0.39495863"><ele>26.4</ele><time>2022-11-06T12:34:59.0000000+00:00</time></trkpt><trkpt lat="39.46601096" lon="-0.39494606"><ele>26.2</ele><time>2022-11-06T12:35:00.0000000+00:00</time></trkpt><trkpt lat="39.46600827" lon="-0.39493223"><ele>26.2</ele><time>2022-11-06T12:35:01.0000000+00:00</time></trkpt><trkpt lat="39.4660014" lon="-0.39492351"><ele>26.2</ele><time>2022-11-06T12:35:02.0000000+00:00</time></trkpt><trkpt lat="39.46599403" lon="-0.39491714"><ele>26.2</ele><time>2022-11-06T12:35:03.0000000+00:00</time></trkpt><trkpt lat="39.4659895" lon="-0.39491219"><ele>26.2</ele><time>2022-11-06T12:35:04.0000000+00:00</time></trkpt><trkpt lat="39.46598841" lon="-0.39489979"><ele>26.2</ele><time>2022-11-06T12:35:05.0000000+00:00</time></trkpt><trkpt lat="39.46598514" lon="-0.39488261"><ele>26.2</ele><time>2022-11-06T12:35:06.0000000+00:00</time></trkpt><trkpt lat="39.46597793" lon="-0.39486668"><ele>26.4</ele><time>2022-11-06T12:35:07.0000000+00:00</time></trkpt><trkpt lat="39.46596402" lon="-0.39485034"><ele>26.4</ele><time>2022-11-06T12:35:08.0000000+00:00</time></trkpt><trkpt lat="39.46595128" lon="-0.39483332"><ele>26.4</ele><time>2022-11-06T12:35:09.0000000+00:00</time></trkpt><trkpt lat="39.46594399" lon="-0.39482167"><ele>26.4</ele><time>2022-11-06T12:35:10.0000000+00:00</time></trkpt><trkpt lat="39.46593644" lon="-0.39481312"><ele>26.4</ele><time>2022-11-06T12:35:11.0000000+00:00</time></trkpt><trkpt lat="39.4659263" lon="-0.39480482"><ele>26.4</ele><time>2022-11-06T12:35:12.0000000+00:00</time></trkpt><trkpt lat="39.46591532" lon="-0.39479787"><ele>26.4</ele><time>2022-11-06T12:35:13.0000000+00:00</time></trkpt><trkpt lat="39.46590115" lon="-0.39479275"><ele>26.4</ele><time>2022-11-06T12:35:14.0000000+00:00</time></trkpt><trkpt lat="39.46589537" lon="-0.39479267"><ele>26.4</ele><time>2022-11-06T12:35:15.0000000+00:00</time></trkpt><trkpt lat="39.46588397" lon="-0.3947889"><ele>26.4</ele><time>2022-11-06T12:35:16.0000000+00:00</time></trkpt><trkpt lat="39.46587877" lon="-0.39477976"><ele>26.4</ele><time>2022-11-06T12:35:17.0000000+00:00</time></trkpt><trkpt lat="39.46587123" lon="-0.39476769"><ele>26.6</ele><time>2022-11-06T12:35:18.0000000+00:00</time></trkpt><trkpt lat="39.46586654" lon="-0.39476484"><ele>26.6</ele><time>2022-11-06T12:35:19.0000000+00:00</time></trkpt><trkpt lat="39.46585799" lon="-0.39475101"><ele>26.6</ele><time>2022-11-06T12:35:20.0000000+00:00</time></trkpt><trkpt lat="39.46584759" lon="-0.39473861"><ele>26.4</ele><time>2022-11-06T12:35:21.0000000+00:00</time></trkpt><trkpt lat="39.46583603" lon="-0.39473634"><ele>26.4</ele><time>2022-11-06T12:35:22.0000000+00:00</time></trkpt><trkpt lat="39.46582488" lon="-0.39473475"><ele>26.4</ele><time>2022-11-06T12:35:23.0000000+00:00</time></trkpt><trkpt lat="39.46581197" lon="-0.39473089"><ele>26.4</ele><time>2022-11-06T12:35:24.0000000+00:00</time></trkpt><trkpt lat="39.46579345" lon="-0.39473165"><ele>26.4</ele><time>2022-11-06T12:35:25.0000000+00:00</time></trkpt><trkpt lat="39.4657797" lon="-0.39472989"><ele>26.4</ele><time>2022-11-06T12:35:26.0000000+00:00</time></trkpt><trkpt lat="39.46576386" lon="-0.3947257"><ele>26.4</ele><time>2022-11-06T12:35:27.0000000+00:00</time></trkpt><trkpt lat="39.46575279" lon="-0.39472234"><ele>26.4</ele><time>2022-11-06T12:35:28.0000000+00:00</time></trkpt><trkpt lat="39.46573888" lon="-0.39470868"><ele>26.4</ele><time>2022-11-06T12:35:29.0000000+00:00</time></trkpt><trkpt lat="39.46572555" lon="-0.39468949"><ele>26.4</ele><time>2022-11-06T12:35:30.0000000+00:00</time></trkpt><trkpt lat="39.46571608" lon="-0.39467138"><ele>26.4</ele><time>2022-11-06T12:35:31.0000000+00:00</time></trkpt><trkpt lat="39.46571172" lon="-0.39467373"><ele>26.4</ele><time>2022-11-06T12:35:32.0000000+00:00</time></trkpt><trkpt lat="39.46570309" lon="-0.3946822"><ele>26.4</ele><time>2022-11-06T12:35:33.0000000+00:00</time></trkpt><trkpt lat="39.4656932" lon="-0.39468966"><ele>26.4</ele><time>2022-11-06T12:35:34.0000000+00:00</time></trkpt><trkpt lat="39.46568071" lon="-0.39468505"><ele>26.4</ele><time>2022-11-06T12:35:35.0000000+00:00</time></trkpt><trkpt lat="39.46567442" lon="-0.39467624"><ele>26.4</ele><time>2022-11-06T12:35:36.0000000+00:00</time></trkpt><trkpt lat="39.4656647" lon="-0.3946692"><ele>26.4</ele><time>2022-11-06T12:35:37.0000000+00:00</time></trkpt><trkpt lat="39.46565523" lon="-0.39466484"><ele>26.4</ele><time>2022-11-06T12:35:38.0000000+00:00</time></trkpt><trkpt lat="39.46564584" lon="-0.39466367"><ele>26.4</ele><time>2022-11-06T12:35:39.0000000+00:00</time></trkpt><trkpt lat="39.4656502" lon="-0.39465269"><ele>26.4</ele><time>2022-11-06T12:35:40.0000000+00:00</time></trkpt><trkpt lat="39.46565045" lon="-0.39465764"><ele>26.4</ele><time>2022-11-06T12:35:41.0000000+00:00</time></trkpt><trkpt lat="39.4656471" lon="-0.39465839"><ele>26.4</ele><time>2022-11-06T12:35:42.0000000+00:00</time></trkpt><trkpt lat="39.46564023" lon="-0.39466116"><ele>26.4</ele><time>2022-11-06T12:35:43.0000000+00:00</time></trkpt><trkpt lat="39.46564006" lon="-0.39465428"><ele>26.4</ele><time>2022-11-06T12:35:44.0000000+00:00</time></trkpt><trkpt lat="39.46563201" lon="-0.39464749"><ele>26.4</ele><time>2022-11-06T12:35:45.0000000+00:00</time></trkpt><trkpt lat="39.46562958" lon="-0.39464314"><ele>26.4</ele><time>2022-11-06T12:35:46.0000000+00:00</time></trkpt><trkpt lat="39.46562522" lon="-0.39464255"><ele>26.4</ele><time>2022-11-06T12:35:47.0000000+00:00</time></trkpt><trkpt lat="39.46562237" lon="-0.3946376"><ele>26.4</ele><time>2022-11-06T12:35:48.0000000+00:00</time></trkpt><trkpt lat="39.46561567" lon="-0.39462294"><ele>26.6</ele><time>2022-11-06T12:35:49.0000000+00:00</time></trkpt><trkpt lat="39.46560485" lon="-0.3946003"><ele>26.6</ele><time>2022-11-06T12:35:50.0000000+00:00</time></trkpt><trkpt lat="39.46559371" lon="-0.39458714"><ele>26.6</ele><time>2022-11-06T12:35:51.0000000+00:00</time></trkpt><trkpt lat="39.4655782" lon="-0.39458698"><ele>26.8</ele><time>2022-11-06T12:35:52.0000000+00:00</time></trkpt><trkpt lat="39.46556311" lon="-0.39459142"><ele>27.0</ele><time>2022-11-06T12:35:53.0000000+00:00</time></trkpt><trkpt lat="39.46554719" lon="-0.39459301"><ele>27.0</ele><time>2022-11-06T12:35:54.0000000+00:00</time></trkpt><trkpt lat="39.46553" lon="-0.39459603"><ele>27.2</ele><time>2022-11-06T12:35:55.0000000+00:00</time></trkpt><trkpt lat="39.46551969" lon="-0.39459678"><ele>27.4</ele><time>2022-11-06T12:35:56.0000000+00:00</time></trkpt><trkpt lat="39.46551165" lon="-0.39459528"><ele>27.4</ele><time>2022-11-06T12:35:57.0000000+00:00</time></trkpt><trkpt lat="39.46550134" lon="-0.39459737"><ele>27.4</ele><time>2022-11-06T12:35:58.0000000+00:00</time></trkpt><trkpt lat="39.46548893" lon="-0.39459754"><ele>27.4</ele><time>2022-11-06T12:35:59.0000000+00:00</time></trkpt><trkpt lat="39.46548055" lon="-0.39459553"><ele>27.2</ele><time>2022-11-06T12:36:00.0000000+00:00</time></trkpt><trkpt lat="39.46547384" lon="-0.39459477"><ele>27.0</ele><time>2022-11-06T12:36:01.0000000+00:00</time></trkpt><trkpt lat="39.46546337" lon="-0.39459385"><ele>26.8</ele><time>2022-11-06T12:36:02.0000000+00:00</time></trkpt><trkpt lat="39.46544937" lon="-0.39459058"><ele>26.8</ele><time>2022-11-06T12:36:03.0000000+00:00</time></trkpt><trkpt lat="39.46543722" lon="-0.39459427"><ele>26.8</ele><time>2022-11-06T12:36:04.0000000+00:00</time></trkpt><trkpt lat="39.46542565" lon="-0.3945972"><ele>26.8</ele><time>2022-11-06T12:36:05.0000000+00:00</time></trkpt><trkpt lat="39.46541299" lon="-0.39460106"><ele>26.8</ele><time>2022-11-06T12:36:06.0000000+00:00</time></trkpt><trkpt lat="39.46540302" lon="-0.39460424"><ele>26.8</ele><time>2022-11-06T12:36:07.0000000+00:00</time></trkpt><trkpt lat="39.46538542" lon="-0.39459846"><ele>26.8</ele><time>2022-11-06T12:36:08.0000000+00:00</time></trkpt><trkpt lat="39.46536907" lon="-0.39458103"><ele>26.8</ele><time>2022-11-06T12:36:09.0000000+00:00</time></trkpt><trkpt lat="39.46535164" lon="-0.39457256"><ele>26.8</ele><time>2022-11-06T12:36:10.0000000+00:00</time></trkpt><trkpt lat="39.46533236" lon="-0.39457038"><ele>26.8</ele><time>2022-11-06T12:36:11.0000000+00:00</time></trkpt><trkpt lat="39.46532825" lon="-0.39457122"><ele>26.8</ele><time>2022-11-06T12:36:12.0000000+00:00</time></trkpt><trkpt lat="39.4653104" lon="-0.39457021"><ele>26.6</ele><time>2022-11-06T12:36:13.0000000+00:00</time></trkpt><trkpt lat="39.46530034" lon="-0.3945656"><ele>26.6</ele><time>2022-11-06T12:36:14.0000000+00:00</time></trkpt><trkpt lat="39.46529347" lon="-0.39456342"><ele>26.6</ele><time>2022-11-06T12:36:15.0000000+00:00</time></trkpt><trkpt lat="39.46529372" lon="-0.39456351"><ele>26.6</ele><time>2022-11-06T12:36:16.0000000+00:00</time></trkpt><trkpt lat="39.46528299" lon="-0.39455504"><ele>26.6</ele><time>2022-11-06T12:36:17.0000000+00:00</time></trkpt><trkpt lat="39.46527033" lon="-0.39454113"><ele>26.6</ele><time>2022-11-06T12:36:18.0000000+00:00</time></trkpt><trkpt lat="39.46525952" lon="-0.39452269"><ele>26.6</ele><time>2022-11-06T12:36:19.0000000+00:00</time></trkpt><trkpt lat="39.46524896" lon="-0.3945081"><ele>26.4</ele><time>2022-11-06T12:36:20.0000000+00:00</time></trkpt><trkpt lat="39.46523823" lon="-0.39449595"><ele>26.4</ele><time>2022-11-06T12:36:21.0000000+00:00</time></trkpt><trkpt lat="39.465227" lon="-0.39448815"><ele>26.4</ele><time>2022-11-06T12:36:22.0000000+00:00</time></trkpt><trkpt lat="39.4652187" lon="-0.39448371"><ele>26.4</ele><time>2022-11-06T12:36:23.0000000+00:00</time></trkpt><trkpt lat="39.46521107" lon="-0.39447952"><ele>26.4</ele><time>2022-11-06T12:36:24.0000000+00:00</time></trkpt><trkpt lat="39.4652042" lon="-0.39447868"><ele>26.4</ele><time>2022-11-06T12:36:25.0000000+00:00</time></trkpt><trkpt lat="39.465198" lon="-0.39448271"><ele>26.4</ele><time>2022-11-06T12:36:26.0000000+00:00</time></trkpt><trkpt lat="39.46519188" lon="-0.39448681"><ele>26.6</ele><time>2022-11-06T12:36:27.0000000+00:00</time></trkpt><trkpt lat="39.46518769" lon="-0.39448162"><ele>26.6</ele><time>2022-11-06T12:36:28.0000000+00:00</time></trkpt><trkpt lat="39.46517847" lon="-0.39446712"><ele>26.6</ele><time>2022-11-06T12:36:29.0000000+00:00</time></trkpt><trkpt lat="39.46517612" lon="-0.39445345"><ele>26.6</ele><time>2022-11-06T12:36:30.0000000+00:00</time></trkpt><trkpt lat="39.46517587" lon="-0.39444205"><ele>26.6</ele><time>2022-11-06T12:36:31.0000000+00:00</time></trkpt><trkpt lat="39.46517168" lon="-0.39443292"><ele>26.8</ele><time>2022-11-06T12:36:32.0000000+00:00</time></trkpt><trkpt lat="39.46516774" lon="-0.39443309"><ele>26.8</ele><time>2022-11-06T12:36:33.0000000+00:00</time></trkpt><trkpt lat="39.46516296" lon="-0.3944242"><ele>26.8</ele><time>2022-11-06T12:36:34.0000000+00:00</time></trkpt><trkpt lat="39.46515039" lon="-0.3944102"><ele>26.8</ele><time>2022-11-06T12:36:35.0000000+00:00</time></trkpt><trkpt lat="39.4651446" lon="-0.39439336"><ele>26.8</ele><time>2022-11-06T12:36:36.0000000+00:00</time></trkpt><trkpt lat="39.46514293" lon="-0.39439159"><ele>26.8</ele><time>2022-11-06T12:36:37.0000000+00:00</time></trkpt><trkpt lat="39.46513547" lon="-0.39438363"><ele>26.6</ele><time>2022-11-06T12:36:38.0000000+00:00</time></trkpt><trkpt lat="39.46513446" lon="-0.39438003"><ele>26.6</ele><time>2022-11-06T12:36:39.0000000+00:00</time></trkpt><trkpt lat="39.46513136" lon="-0.39437089"><ele>26.6</ele><time>2022-11-06T12:36:40.0000000+00:00</time></trkpt><trkpt lat="39.46512901" lon="-0.39436888"><ele>26.6</ele><time>2022-11-06T12:36:41.0000000+00:00</time></trkpt><trkpt lat="39.46511761" lon="-0.39436695"><ele>26.8</ele><time>2022-11-06T12:36:42.0000000+00:00</time></trkpt><trkpt lat="39.46510722" lon="-0.39435874"><ele>26.8</ele><time>2022-11-06T12:36:43.0000000+00:00</time></trkpt><trkpt lat="39.46509264" lon="-0.39436494"><ele>26.8</ele><time>2022-11-06T12:36:44.0000000+00:00</time></trkpt><trkpt lat="39.46507688" lon="-0.39437391"><ele>26.8</ele><time>2022-11-06T12:36:45.0000000+00:00</time></trkpt><trkpt lat="39.46506321" lon="-0.39438028"><ele>26.8</ele><time>2022-11-06T12:36:46.0000000+00:00</time></trkpt><trkpt lat="39.46504704" lon="-0.39438464"><ele>26.8</ele><time>2022-11-06T12:36:47.0000000+00:00</time></trkpt><trkpt lat="39.46502592" lon="-0.39438137"><ele>26.8</ele><time>2022-11-06T12:36:48.0000000+00:00</time></trkpt><trkpt lat="39.46500144" lon="-0.39437349"><ele>27.0</ele><time>2022-11-06T12:36:49.0000000+00:00</time></trkpt><trkpt lat="39.46498744" lon="-0.39435865"><ele>27.0</ele><time>2022-11-06T12:36:50.0000000+00:00</time></trkpt><trkpt lat="39.46497479" lon="-0.3943403"><ele>27.0</ele><time>2022-11-06T12:36:51.0000000+00:00</time></trkpt><trkpt lat="39.46495802" lon="-0.39432488"><ele>27.0</ele><time>2022-11-06T12:36:52.0000000+00:00</time></trkpt><trkpt lat="39.46494461" lon="-0.39431138"><ele>27.0</ele><time>2022-11-06T12:36:53.0000000+00:00</time></trkpt><trkpt lat="39.46493061" lon="-0.39430115"><ele>27.0</ele><time>2022-11-06T12:36:54.0000000+00:00</time></trkpt><trkpt lat="39.46492785" lon="-0.39428682"><ele>27.2</ele><time>2022-11-06T12:36:55.0000000+00:00</time></trkpt><trkpt lat="39.46492617" lon="-0.39428221"><ele>27.2</ele><time>2022-11-06T12:36:56.0000000+00:00</time></trkpt><trkpt lat="39.46491175" lon="-0.39426645"><ele>27.2</ele><time>2022-11-06T12:36:57.0000000+00:00</time></trkpt><trkpt lat="39.46490672" lon="-0.39424893"><ele>27.2</ele><time>2022-11-06T12:36:58.0000000+00:00</time></trkpt><trkpt lat="39.46489709" lon="-0.3942398"><ele>27.2</ele><time>2022-11-06T12:36:59.0000000+00:00</time></trkpt><trkpt lat="39.46488753" lon="-0.3942341"><ele>27.0</ele><time>2022-11-06T12:37:00.0000000+00:00</time></trkpt><trkpt lat="39.464882" lon="-0.39422999"><ele>27.0</ele><time>2022-11-06T12:37:01.0000000+00:00</time></trkpt><trkpt lat="39.46487772" lon="-0.39422656"><ele>27.0</ele><time>2022-11-06T12:37:02.0000000+00:00</time></trkpt><trkpt lat="39.46487228" lon="-0.39422622"><ele>27.0</ele><time>2022-11-06T12:37:03.0000000+00:00</time></trkpt><trkpt lat="39.46486674" lon="-0.39422513"><ele>27.0</ele><time>2022-11-06T12:37:04.0000000+00:00</time></trkpt><trkpt lat="39.46486004" lon="-0.39422924"><ele>27.0</ele><time>2022-11-06T12:37:05.0000000+00:00</time></trkpt><trkpt lat="39.46485275" lon="-0.39422371"><ele>27.0</ele><time>2022-11-06T12:37:06.0000000+00:00</time></trkpt><trkpt lat="39.46485073" lon="-0.39422345"><ele>27.0</ele><time>2022-11-06T12:37:07.0000000+00:00</time></trkpt><trkpt lat="39.46483665" lon="-0.39421993"><ele>27.0</ele><time>2022-11-06T12:37:08.0000000+00:00</time></trkpt><trkpt lat="39.46482408" lon="-0.39421449"><ele>27.0</ele><time>2022-11-06T12:37:09.0000000+00:00</time></trkpt><trkpt lat="39.46481343" lon="-0.39421164"><ele>27.0</ele><time>2022-11-06T12:37:10.0000000+00:00</time></trkpt><trkpt lat="39.46480338" lon="-0.39421189"><ele>27.0</ele><time>2022-11-06T12:37:11.0000000+00:00</time></trkpt><trkpt lat="39.46479231" lon="-0.39421138"><ele>27.0</ele><time>2022-11-06T12:37:12.0000000+00:00</time></trkpt><trkpt lat="39.46479558" lon="-0.39420703"><ele>27.0</ele><time>2022-11-06T12:37:13.0000000+00:00</time></trkpt><trkpt lat="39.46478737" lon="-0.39420686"><ele>27.0</ele><time>2022-11-06T12:37:14.0000000+00:00</time></trkpt><trkpt lat="39.46478552" lon="-0.39420594"><ele>27.0</ele><time>2022-11-06T12:37:15.0000000+00:00</time></trkpt><trkpt lat="39.46478041" lon="-0.3941999"><ele>27.0</ele><time>2022-11-06T12:37:16.0000000+00:00</time></trkpt><trkpt lat="39.46478083" lon="-0.39418909"><ele>27.0</ele><time>2022-11-06T12:37:17.0000000+00:00</time></trkpt><trkpt lat="39.46478192" lon="-0.39417668"><ele>27.0</ele><time>2022-11-06T12:37:18.0000000+00:00</time></trkpt><trkpt lat="39.4647732" lon="-0.39416436"><ele>27.0</ele><time>2022-11-06T12:37:19.0000000+00:00</time></trkpt><trkpt lat="39.46475753" lon="-0.39416109"><ele>27.0</ele><time>2022-11-06T12:37:20.0000000+00:00</time></trkpt><trkpt lat="39.4647416" lon="-0.39416579"><ele>27.0</ele><time>2022-11-06T12:37:21.0000000+00:00</time></trkpt><trkpt lat="39.46472853" lon="-0.39416436"><ele>26.8</ele><time>2022-11-06T12:37:22.0000000+00:00</time></trkpt><trkpt lat="39.46471486" lon="-0.39416092"><ele>26.8</ele><time>2022-11-06T12:37:23.0000000+00:00</time></trkpt><trkpt lat="39.46470338" lon="-0.39414751"><ele>26.8</ele><time>2022-11-06T12:37:24.0000000+00:00</time></trkpt><trkpt lat="39.4646898" lon="-0.39413536"><ele>26.8</ele><time>2022-11-06T12:37:25.0000000+00:00</time></trkpt><trkpt lat="39.46467178" lon="-0.39413067"><ele>26.8</ele><time>2022-11-06T12:37:26.0000000+00:00</time></trkpt><trkpt lat="39.46464873" lon="-0.39413318"><ele>26.8</ele><time>2022-11-06T12:37:27.0000000+00:00</time></trkpt><trkpt lat="39.46462895" lon="-0.39413511"><ele>26.8</ele><time>2022-11-06T12:37:28.0000000+00:00</time></trkpt><trkpt lat="39.46461629" lon="-0.39413159"><ele>26.8</ele><time>2022-11-06T12:37:29.0000000+00:00</time></trkpt><trkpt lat="39.46460405" lon="-0.39413125"><ele>26.8</ele><time>2022-11-06T12:37:30.0000000+00:00</time></trkpt><trkpt lat="39.46458872" lon="-0.39413662"><ele>26.8</ele><time>2022-11-06T12:37:31.0000000+00:00</time></trkpt><trkpt lat="39.46457187" lon="-0.3941362"><ele>26.8</ele><time>2022-11-06T12:37:32.0000000+00:00</time></trkpt><trkpt lat="39.46456022" lon="-0.39413544"><ele>26.8</ele><time>2022-11-06T12:37:33.0000000+00:00</time></trkpt><trkpt lat="39.46454773" lon="-0.39412689"><ele>26.8</ele><time>2022-11-06T12:37:34.0000000+00:00</time></trkpt><trkpt lat="39.46453926" lon="-0.39411038"><ele>26.8</ele><time>2022-11-06T12:37:35.0000000+00:00</time></trkpt><trkpt lat="39.46450984" lon="-0.39410896"><ele>26.8</ele><time>2022-11-06T12:37:36.0000000+00:00</time></trkpt><trkpt lat="39.46448646" lon="-0.39410099"><ele>26.8</ele><time>2022-11-06T12:37:37.0000000+00:00</time></trkpt><trkpt lat="39.46447413" lon="-0.3940937"><ele>26.8</ele><time>2022-11-06T12:37:38.0000000+00:00</time></trkpt><trkpt lat="39.46446366" lon="-0.39408742"><ele>26.8</ele><time>2022-11-06T12:37:39.0000000+00:00</time></trkpt><trkpt lat="39.46444639" lon="-0.39408691"><ele>26.8</ele><time>2022-11-06T12:37:40.0000000+00:00</time></trkpt><trkpt lat="39.46443432" lon="-0.39410158"><ele>26.8</ele><time>2022-11-06T12:37:41.0000000+00:00</time></trkpt><trkpt lat="39.46443114" lon="-0.39410493"><ele>26.8</ele><time>2022-11-06T12:37:42.0000000+00:00</time></trkpt><trkpt lat="39.46442418" lon="-0.39411122"><ele>26.8</ele><time>2022-11-06T12:37:43.0000000+00:00</time></trkpt><trkpt lat="39.46442468" lon="-0.39411332"><ele>26.8</ele><time>2022-11-06T12:37:44.0000000+00:00</time></trkpt><trkpt lat="39.46442502" lon="-0.39411575"><ele>26.8</ele><time>2022-11-06T12:37:45.0000000+00:00</time></trkpt><trkpt lat="39.46441655" lon="-0.39411617"><ele>26.8</ele><time>2022-11-06T12:37:46.0000000+00:00</time></trkpt><trkpt lat="39.46440876" lon="-0.39411667"><ele>26.8</ele><time>2022-11-06T12:37:47.0000000+00:00</time></trkpt><trkpt lat="39.46439736" lon="-0.39410099"><ele>26.8</ele><time>2022-11-06T12:37:48.0000000+00:00</time></trkpt><trkpt lat="39.46439325" lon="-0.39409622"><ele>26.8</ele><time>2022-11-06T12:37:49.0000000+00:00</time></trkpt><trkpt lat="39.46438327" lon="-0.39409999"><ele>26.8</ele><time>2022-11-06T12:37:50.0000000+00:00</time></trkpt><trkpt lat="39.46437833" lon="-0.39410401"><ele>27.0</ele><time>2022-11-06T12:37:51.0000000+00:00</time></trkpt><trkpt lat="39.46436727" lon="-0.39410359"><ele>27.0</ele><time>2022-11-06T12:37:52.0000000+00:00</time></trkpt><trkpt lat="39.46435536" lon="-0.39409647"><ele>27.0</ele><time>2022-11-06T12:37:53.0000000+00:00</time></trkpt><trkpt lat="39.46435637" lon="-0.39409068"><ele>27.0</ele><time>2022-11-06T12:37:54.0000000+00:00</time></trkpt><trkpt lat="39.46434329" lon="-0.39408876"><ele>27.0</ele><time>2022-11-06T12:37:55.0000000+00:00</time></trkpt><trkpt lat="39.46432661" lon="-0.39409136"><ele>27.0</ele><time>2022-11-06T12:37:56.0000000+00:00</time></trkpt><trkpt lat="39.46431329" lon="-0.39408901"><ele>27.0</ele><time>2022-11-06T12:37:57.0000000+00:00</time></trkpt><trkpt lat="39.46429552" lon="-0.3940937"><ele>27.0</ele><time>2022-11-06T12:37:58.0000000+00:00</time></trkpt><trkpt lat="39.46428244" lon="-0.39409882"><ele>27.0</ele><time>2022-11-06T12:37:59.0000000+00:00</time></trkpt><trkpt lat="39.46427104" lon="-0.39410753"><ele>27.0</ele><time>2022-11-06T12:38:00.0000000+00:00</time></trkpt><trkpt lat="39.46425931" lon="-0.394116"><ele>27.0</ele><time>2022-11-06T12:38:01.0000000+00:00</time></trkpt><trkpt lat="39.46424732" lon="-0.39412279"><ele>27.0</ele><time>2022-11-06T12:38:02.0000000+00:00</time></trkpt><trkpt lat="39.46423709" lon="-0.39412857"><ele>27.0</ele><time>2022-11-06T12:38:03.0000000+00:00</time></trkpt><trkpt lat="39.46423131" lon="-0.39413888"><ele>27.0</ele><time>2022-11-06T12:38:04.0000000+00:00</time></trkpt><trkpt lat="39.46423148" lon="-0.39415053"><ele>27.0</ele><time>2022-11-06T12:38:05.0000000+00:00</time></trkpt><trkpt lat="39.46422067" lon="-0.39414869"><ele>26.8</ele><time>2022-11-06T12:38:06.0000000+00:00</time></trkpt><trkpt lat="39.46421254" lon="-0.39414659"><ele>26.8</ele><time>2022-11-06T12:38:07.0000000+00:00</time></trkpt><trkpt lat="39.46420021" lon="-0.39414131"><ele>26.8</ele><time>2022-11-06T12:38:08.0000000+00:00</time></trkpt><trkpt lat="39.46419024" lon="-0.39414399"><ele>26.8</ele><time>2022-11-06T12:38:09.0000000+00:00</time></trkpt><trkpt lat="39.46418228" lon="-0.3941507"><ele>27.0</ele><time>2022-11-06T12:38:10.0000000+00:00</time></trkpt><trkpt lat="39.46417213" lon="-0.39415187"><ele>27.0</ele><time>2022-11-06T12:38:11.0000000+00:00</time></trkpt><trkpt lat="39.4641635" lon="-0.39415095"><ele>27.0</ele><time>2022-11-06T12:38:12.0000000+00:00</time></trkpt><trkpt lat="39.46415747" lon="-0.39415321"><ele>27.0</ele><time>2022-11-06T12:38:13.0000000+00:00</time></trkpt><trkpt lat="39.46415344" lon="-0.39415481"><ele>26.8</ele><time>2022-11-06T12:38:14.0000000+00:00</time></trkpt><trkpt lat="39.46414573" lon="-0.39414894"><ele>26.8</ele><time>2022-11-06T12:38:15.0000000+00:00</time></trkpt><trkpt lat="39.46413308" lon="-0.39413058"><ele>26.6</ele><time>2022-11-06T12:38:16.0000000+00:00</time></trkpt><trkpt lat="39.46412218" lon="-0.3941113"><ele>26.6</ele><time>2022-11-06T12:38:17.0000000+00:00</time></trkpt><trkpt lat="39.46411313" lon="-0.39409722"><ele>26.6</ele><time>2022-11-06T12:38:18.0000000+00:00</time></trkpt><trkpt lat="39.46410215" lon="-0.39408415"><ele>26.6</ele><time>2022-11-06T12:38:19.0000000+00:00</time></trkpt><trkpt lat="39.46409452" lon="-0.39406311"><ele>26.6</ele><time>2022-11-06T12:38:20.0000000+00:00</time></trkpt><trkpt lat="39.46409284" lon="-0.39405162"><ele>26.6</ele><time>2022-11-06T12:38:21.0000000+00:00</time></trkpt><trkpt lat="39.46408873" lon="-0.3940466"><ele>26.6</ele><time>2022-11-06T12:38:22.0000000+00:00</time></trkpt><trkpt lat="39.46408496" lon="-0.39404769"><ele>26.6</ele><time>2022-11-06T12:38:23.0000000+00:00</time></trkpt><trkpt lat="39.4640791" lon="-0.39404576"><ele>26.6</ele><time>2022-11-06T12:38:24.0000000+00:00</time></trkpt><trkpt lat="39.4640713" lon="-0.39404249"><ele>26.6</ele><time>2022-11-06T12:38:25.0000000+00:00</time></trkpt><trkpt lat="39.46406543" lon="-0.39404048"><ele>26.6</ele><time>2022-11-06T12:38:26.0000000+00:00</time></trkpt><trkpt lat="39.46405814" lon="-0.39403863"><ele>26.6</ele><time>2022-11-06T12:38:27.0000000+00:00</time></trkpt><trkpt lat="39.46404607" lon="-0.39404383"><ele>26.6</ele><time>2022-11-06T12:38:28.0000000+00:00</time></trkpt><trkpt lat="39.46403677" lon="-0.39405355"><ele>26.6</ele><time>2022-11-06T12:38:29.0000000+00:00</time></trkpt><trkpt lat="39.46402579" lon="-0.39406646"><ele>26.6</ele><time>2022-11-06T12:38:30.0000000+00:00</time></trkpt><trkpt lat="39.46401648" lon="-0.39407593"><ele>26.6</ele><time>2022-11-06T12:38:31.0000000+00:00</time></trkpt><trkpt lat="39.46400416" lon="-0.39408155"><ele>26.6</ele><time>2022-11-06T12:38:32.0000000+00:00</time></trkpt><trkpt lat="39.46399167" lon="-0.39407861"><ele>26.6</ele><time>2022-11-06T12:38:33.0000000+00:00</time></trkpt><trkpt lat="39.46398002" lon="-0.3940699"><ele>26.6</ele><time>2022-11-06T12:38:34.0000000+00:00</time></trkpt><trkpt lat="39.46397273" lon="-0.39406219"><ele>26.6</ele><time>2022-11-06T12:38:35.0000000+00:00</time></trkpt><trkpt lat="39.46397457" lon="-0.39405858"><ele>26.6</ele><time>2022-11-06T12:38:36.0000000+00:00</time></trkpt><trkpt lat="39.46397667" lon="-0.39405095"><ele>26.6</ele><time>2022-11-06T12:38:37.0000000+00:00</time></trkpt><trkpt lat="39.46397323" lon="-0.39403779"><ele>26.6</ele><time>2022-11-06T12:38:38.0000000+00:00</time></trkpt><trkpt lat="39.46397482" lon="-0.39404911"><ele>26.6</ele><time>2022-11-06T12:38:39.0000000+00:00</time></trkpt><trkpt lat="39.46396762" lon="-0.39402883"><ele>26.8</ele><time>2022-11-06T12:38:40.0000000+00:00</time></trkpt><trkpt lat="39.46397457" lon="-0.39399521"><ele>27.2</ele><time>2022-11-06T12:38:41.0000000+00:00</time></trkpt><trkpt lat="39.46397265" lon="-0.39396655"><ele>27.4</ele><time>2022-11-06T12:38:42.0000000+00:00</time></trkpt><trkpt lat="39.46396753" lon="-0.39393704"><ele>27.4</ele><time>2022-11-06T12:38:43.0000000+00:00</time></trkpt><trkpt lat="39.46396041" lon="-0.39391123"><ele>27.4</ele><time>2022-11-06T12:38:44.0000000+00:00</time></trkpt><trkpt lat="39.46395814" lon="-0.39389069"><ele>27.4</ele><time>2022-11-06T12:38:45.0000000+00:00</time></trkpt><trkpt lat="39.46394834" lon="-0.39386286"><ele>27.2</ele><time>2022-11-06T12:38:46.0000000+00:00</time></trkpt><trkpt lat="39.46394038" lon="-0.39383353"><ele>27.0</ele><time>2022-11-06T12:38:47.0000000+00:00</time></trkpt><trkpt lat="39.46393266" lon="-0.39381249"><ele>27.0</ele><time>2022-11-06T12:38:48.0000000+00:00</time></trkpt><trkpt lat="39.46392546" lon="-0.39380268"><ele>27.0</ele><time>2022-11-06T12:38:49.0000000+00:00</time></trkpt><trkpt lat="39.46391816" lon="-0.39379371"><ele>26.8</ele><time>2022-11-06T12:38:50.0000000+00:00</time></trkpt><trkpt lat="39.4639102" lon="-0.39377628"><ele>26.8</ele><time>2022-11-06T12:38:51.0000000+00:00</time></trkpt><trkpt lat="39.46391121" lon="-0.39375675"><ele>26.8</ele><time>2022-11-06T12:38:52.0000000+00:00</time></trkpt><trkpt lat="39.4639066" lon="-0.39373244"><ele>26.8</ele><time>2022-11-06T12:38:53.0000000+00:00</time></trkpt><trkpt lat="39.46390727" lon="-0.39372079"><ele>26.8</ele><time>2022-11-06T12:38:54.0000000+00:00</time></trkpt><trkpt lat="39.46390576" lon="-0.39371174"><ele>26.8</ele><time>2022-11-06T12:38:55.0000000+00:00</time></trkpt><trkpt lat="39.46390417" lon="-0.39370076"><ele>26.8</ele><time>2022-11-06T12:38:56.0000000+00:00</time></trkpt><trkpt lat="39.46390517" lon="-0.39368978"><ele>26.8</ele><time>2022-11-06T12:38:57.0000000+00:00</time></trkpt><trkpt lat="39.46390735" lon="-0.39368274"><ele>26.8</ele><time>2022-11-06T12:38:58.0000000+00:00</time></trkpt><trkpt lat="39.46390341" lon="-0.39367796"><ele>26.8</ele><time>2022-11-06T12:38:59.0000000+00:00</time></trkpt><trkpt lat="39.46389922" lon="-0.39367561"><ele>26.8</ele><time>2022-11-06T12:39:00.0000000+00:00</time></trkpt><trkpt lat="39.46389402" lon="-0.39367343"><ele>26.8</ele><time>2022-11-06T12:39:01.0000000+00:00</time></trkpt><trkpt lat="39.46389528" lon="-0.39366991"><ele>26.6</ele><time>2022-11-06T12:39:02.0000000+00:00</time></trkpt><trkpt lat="39.46389964" lon="-0.3936643"><ele>26.4</ele><time>2022-11-06T12:39:03.0000000+00:00</time></trkpt><trkpt lat="39.46390006" lon="-0.39366539"><ele>26.4</ele><time>2022-11-06T12:39:04.0000000+00:00</time></trkpt><trkpt lat="39.46389763" lon="-0.3936684"><ele>26.4</ele><time>2022-11-06T12:39:05.0000000+00:00</time></trkpt><trkpt lat="39.46389377" lon="-0.39367863"><ele>26.4</ele><time>2022-11-06T12:39:06.0000000+00:00</time></trkpt><trkpt lat="39.46387441" lon="-0.39369598"><ele>26.4</ele><time>2022-11-06T12:39:07.0000000+00:00</time></trkpt><trkpt lat="39.46384482" lon="-0.3937202"><ele>26.4</ele><time>2022-11-06T12:39:08.0000000+00:00</time></trkpt><trkpt lat="39.46381649" lon="-0.39373496"><ele>26.4</ele><time>2022-11-06T12:39:09.0000000+00:00</time></trkpt><trkpt lat="39.46379369" lon="-0.39376287"><ele>26.4</ele><time>2022-11-06T12:39:10.0000000+00:00</time></trkpt><trkpt lat="39.46377735" lon="-0.3937736"><ele>26.4</ele><time>2022-11-06T12:39:11.0000000+00:00</time></trkpt><trkpt lat="39.46376427" lon="-0.39377972"><ele>26.4</ele><time>2022-11-06T12:39:12.0000000+00:00</time></trkpt><trkpt lat="39.46375287" lon="-0.39378332"><ele>26.4</ele><time>2022-11-06T12:39:13.0000000+00:00</time></trkpt><trkpt lat="39.46373384" lon="-0.39378835"><ele>26.4</ele><time>2022-11-06T12:39:14.0000000+00:00</time></trkpt><trkpt lat="39.46371348" lon="-0.39379321"><ele>26.4</ele><time>2022-11-06T12:39:15.0000000+00:00</time></trkpt><trkpt lat="39.46369797" lon="-0.39379589"><ele>26.4</ele><time>2022-11-06T12:39:16.0000000+00:00</time></trkpt><trkpt lat="39.46369085" lon="-0.39379723"><ele>26.4</ele><time>2022-11-06T12:39:17.0000000+00:00</time></trkpt><trkpt lat="39.46368054" lon="-0.39379489"><ele>26.4</ele><time>2022-11-06T12:39:18.0000000+00:00</time></trkpt><trkpt lat="39.46366687" lon="-0.39379472"><ele>26.4</ele><time>2022-11-06T12:39:19.0000000+00:00</time></trkpt><trkpt lat="39.46365975" lon="-0.39378952"><ele>26.4</ele><time>2022-11-06T12:39:20.0000000+00:00</time></trkpt><trkpt lat="39.46364885" lon="-0.39378164"><ele>26.2</ele><time>2022-11-06T12:39:21.0000000+00:00</time></trkpt><trkpt lat="39.46363586" lon="-0.39377837"><ele>26.2</ele><time>2022-11-06T12:39:22.0000000+00:00</time></trkpt><trkpt lat="39.46362337" lon="-0.39377494"><ele>26.2</ele><time>2022-11-06T12:39:23.0000000+00:00</time></trkpt><trkpt lat="39.4636118" lon="-0.39376605"><ele>26.2</ele><time>2022-11-06T12:39:24.0000000+00:00</time></trkpt><trkpt lat="39.46359848" lon="-0.39376287"><ele>26.2</ele><time>2022-11-06T12:39:25.0000000+00:00</time></trkpt><trkpt lat="39.46358272" lon="-0.39375298"><ele>26.2</ele><time>2022-11-06T12:39:26.0000000+00:00</time></trkpt><trkpt lat="39.46356537" lon="-0.39375147"><ele>26.2</ele><time>2022-11-06T12:39:27.0000000+00:00</time></trkpt><trkpt lat="39.4635543" lon="-0.39374753"><ele>26.2</ele><time>2022-11-06T12:39:28.0000000+00:00</time></trkpt><trkpt lat="39.46353754" lon="-0.39374409"><ele>26.2</ele><time>2022-11-06T12:39:29.0000000+00:00</time></trkpt><trkpt lat="39.4635248" lon="-0.39373077"><ele>26.2</ele><time>2022-11-06T12:39:30.0000000+00:00</time></trkpt><trkpt lat="39.46351063" lon="-0.39371861"><ele>26.2</ele><time>2022-11-06T12:39:31.0000000+00:00</time></trkpt><trkpt lat="39.4634984" lon="-0.39371484"><ele>26.2</ele><time>2022-11-06T12:39:32.0000000+00:00</time></trkpt><trkpt lat="39.46348633" lon="-0.39371224"><ele>26.2</ele><time>2022-11-06T12:39:33.0000000+00:00</time></trkpt><trkpt lat="39.46347417" lon="-0.39370704"><ele>26.2</ele><time>2022-11-06T12:39:34.0000000+00:00</time></trkpt><trkpt lat="39.46346671" lon="-0.39370663"><ele>26.2</ele><time>2022-11-06T12:39:35.0000000+00:00</time></trkpt><trkpt lat="39.46345657" lon="-0.39370487"><ele>26.2</ele><time>2022-11-06T12:39:36.0000000+00:00</time></trkpt><trkpt lat="39.46344802" lon="-0.39369632"><ele>26.2</ele><time>2022-11-06T12:39:37.0000000+00:00</time></trkpt><trkpt lat="39.46344266" lon="-0.39368517"><ele>26.2</ele><time>2022-11-06T12:39:38.0000000+00:00</time></trkpt><trkpt lat="39.46343863" lon="-0.39366958"><ele>26.2</ele><time>2022-11-06T12:39:39.0000000+00:00</time></trkpt><trkpt lat="39.46343411" lon="-0.39366799"><ele>26.2</ele><time>2022-11-06T12:39:40.0000000+00:00</time></trkpt><trkpt lat="39.4634264" lon="-0.39365818"><ele>26.0</ele><time>2022-11-06T12:39:41.0000000+00:00</time></trkpt><trkpt lat="39.46342464" lon="-0.39364535"><ele>26.0</ele><time>2022-11-06T12:39:42.0000000+00:00</time></trkpt><trkpt lat="39.4634181" lon="-0.39363513"><ele>26.2</ele><time>2022-11-06T12:39:43.0000000+00:00</time></trkpt><trkpt lat="39.46341257" lon="-0.39362574"><ele>26.2</ele><time>2022-11-06T12:39:44.0000000+00:00</time></trkpt><trkpt lat="39.46340502" lon="-0.39361912"><ele>26.2</ele><time>2022-11-06T12:39:45.0000000+00:00</time></trkpt><trkpt lat="39.46339731" lon="-0.39361225"><ele>26.2</ele><time>2022-11-06T12:39:46.0000000+00:00</time></trkpt><trkpt lat="39.46338926" lon="-0.39360018"><ele>26.2</ele><time>2022-11-06T12:39:47.0000000+00:00</time></trkpt><trkpt lat="39.46337728" lon="-0.39358299"><ele>26.2</ele><time>2022-11-06T12:39:48.0000000+00:00</time></trkpt><trkpt lat="39.46337041" lon="-0.39355969"><ele>26.2</ele><time>2022-11-06T12:39:49.0000000+00:00</time></trkpt><trkpt lat="39.46336445" lon="-0.39354318"><ele>26.2</ele><time>2022-11-06T12:39:50.0000000+00:00</time></trkpt><trkpt lat="39.46336244" lon="-0.39352155"><ele>26.2</ele><time>2022-11-06T12:39:51.0000000+00:00</time></trkpt><trkpt lat="39.4633544" lon="-0.39350228"><ele>26.0</ele><time>2022-11-06T12:39:52.0000000+00:00</time></trkpt><trkpt lat="39.46334828" lon="-0.39348585"><ele>26.0</ele><time>2022-11-06T12:39:53.0000000+00:00</time></trkpt><trkpt lat="39.46334358" lon="-0.39346858"><ele>26.0</ele><time>2022-11-06T12:39:54.0000000+00:00</time></trkpt><trkpt lat="39.46333822" lon="-0.39345056"><ele>26.0</ele><time>2022-11-06T12:39:55.0000000+00:00</time></trkpt><trkpt lat="39.46333478" lon="-0.39343505"><ele>26.0</ele><time>2022-11-06T12:39:56.0000000+00:00</time></trkpt><trkpt lat="39.46332498" lon="-0.39341678"><ele>26.0</ele><time>2022-11-06T12:39:57.0000000+00:00</time></trkpt><trkpt lat="39.46332104" lon="-0.39339616"><ele>26.0</ele><time>2022-11-06T12:39:58.0000000+00:00</time></trkpt><trkpt lat="39.46331911" lon="-0.39337537"><ele>26.0</ele><time>2022-11-06T12:39:59.0000000+00:00</time></trkpt><trkpt lat="39.46331592" lon="-0.3933576"><ele>26.2</ele><time>2022-11-06T12:40:00.0000000+00:00</time></trkpt><trkpt lat="39.46331148" lon="-0.39334671"><ele>26.0</ele><time>2022-11-06T12:40:01.0000000+00:00</time></trkpt><trkpt lat="39.46330645" lon="-0.39333246"><ele>26.0</ele><time>2022-11-06T12:40:02.0000000+00:00</time></trkpt><trkpt lat="39.46330377" lon="-0.39331754"><ele>26.0</ele><time>2022-11-06T12:40:03.0000000+00:00</time></trkpt><trkpt lat="39.4632938" lon="-0.39330346"><ele>26.0</ele><time>2022-11-06T12:40:04.0000000+00:00</time></trkpt><trkpt lat="39.46329002" lon="-0.39328611"><ele>26.0</ele><time>2022-11-06T12:40:05.0000000+00:00</time></trkpt><trkpt lat="39.46328424" lon="-0.39327311"><ele>26.0</ele><time>2022-11-06T12:40:06.0000000+00:00</time></trkpt><trkpt lat="39.46328835" lon="-0.39323389"><ele>26.0</ele><time>2022-11-06T12:40:07.0000000+00:00</time></trkpt><trkpt lat="39.46328717" lon="-0.39320329"><ele>26.0</ele><time>2022-11-06T12:40:08.0000000+00:00</time></trkpt><trkpt lat="39.46328541" lon="-0.39319022"><ele>26.0</ele><time>2022-11-06T12:40:09.0000000+00:00</time></trkpt><trkpt lat="39.46328022" lon="-0.39317555"><ele>26.0</ele><time>2022-11-06T12:40:10.0000000+00:00</time></trkpt><trkpt lat="39.46327996" lon="-0.39315803"><ele>26.2</ele><time>2022-11-06T12:40:11.0000000+00:00</time></trkpt><trkpt lat="39.46327167" lon="-0.39313573"><ele>26.2</ele><time>2022-11-06T12:40:12.0000000+00:00</time></trkpt><trkpt lat="39.46330494" lon="-0.39310095"><ele>26.2</ele><time>2022-11-06T12:40:13.0000000+00:00</time></trkpt><trkpt lat="39.46331408" lon="-0.39308477"><ele>26.2</ele><time>2022-11-06T12:40:14.0000000+00:00</time></trkpt><trkpt lat="39.46331928" lon="-0.39306449"><ele>26.2</ele><time>2022-11-06T12:40:15.0000000+00:00</time></trkpt><trkpt lat="39.46333621" lon="-0.39303188"><ele>26.2</ele><time>2022-11-06T12:40:16.0000000+00:00</time></trkpt><trkpt lat="39.46332732" lon="-0.39301889"><ele>26.0</ele><time>2022-11-06T12:40:17.0000000+00:00</time></trkpt><trkpt lat="39.46330025" lon="-0.39301344"><ele>26.0</ele><time>2022-11-06T12:40:18.0000000+00:00</time></trkpt><trkpt lat="39.46329262" lon="-0.39299743"><ele>26.0</ele><time>2022-11-06T12:40:19.0000000+00:00</time></trkpt><trkpt lat="39.46327854" lon="-0.39299349"><ele>26.0</ele><time>2022-11-06T12:40:20.0000000+00:00</time></trkpt><trkpt lat="39.46326773" lon="-0.39298637"><ele>26.0</ele><time>2022-11-06T12:40:21.0000000+00:00</time></trkpt><trkpt lat="39.46326278" lon="-0.39297849"><ele>26.0</ele><time>2022-11-06T12:40:22.0000000+00:00</time></trkpt><trkpt lat="39.46325842" lon="-0.3929681"><ele>26.0</ele><time>2022-11-06T12:40:23.0000000+00:00</time></trkpt><trkpt lat="39.46325197" lon="-0.39295921"><ele>26.0</ele><time>2022-11-06T12:40:24.0000000+00:00</time></trkpt><trkpt lat="39.4632518" lon="-0.3929396"><ele>26.0</ele><time>2022-11-06T12:40:25.0000000+00:00</time></trkpt><trkpt lat="39.46325683" lon="-0.39291839"><ele>25.8</ele><time>2022-11-06T12:40:26.0000000+00:00</time></trkpt><trkpt lat="39.463258" lon="-0.3929033"><ele>25.8</ele><time>2022-11-06T12:40:27.0000000+00:00</time></trkpt><trkpt lat="39.46326002" lon="-0.39288336"><ele>25.8</ele><time>2022-11-06T12:40:28.0000000+00:00</time></trkpt><trkpt lat="39.46326152" lon="-0.39285779"><ele>25.8</ele><time>2022-11-06T12:40:29.0000000+00:00</time></trkpt><trkpt lat="39.46326454" lon="-0.39284086"><ele>25.8</ele><time>2022-11-06T12:40:30.0000000+00:00</time></trkpt><trkpt lat="39.46326873" lon="-0.39282938"><ele>25.6</ele><time>2022-11-06T12:40:31.0000000+00:00</time></trkpt><trkpt lat="39.46326848" lon="-0.39281404"><ele>25.6</ele><time>2022-11-06T12:40:32.0000000+00:00</time></trkpt><trkpt lat="39.4632606" lon="-0.39280918"><ele>25.6</ele><time>2022-11-06T12:40:33.0000000+00:00</time></trkpt><trkpt lat="39.46325633" lon="-0.39279761"><ele>25.6</ele><time>2022-11-06T12:40:34.0000000+00:00</time></trkpt><trkpt lat="39.46324694" lon="-0.39279258"><ele>25.6</ele><time>2022-11-06T12:40:35.0000000+00:00</time></trkpt><trkpt lat="39.46324526" lon="-0.39279233"><ele>25.6</ele><time>2022-11-06T12:40:36.0000000+00:00</time></trkpt><trkpt lat="39.46323831" lon="-0.3927847"><ele>25.6</ele><time>2022-11-06T12:40:37.0000000+00:00</time></trkpt><trkpt lat="39.46323227" lon="-0.39277355"><ele>25.6</ele><time>2022-11-06T12:40:38.0000000+00:00</time></trkpt><trkpt lat="39.46322749" lon="-0.39275704"><ele>25.6</ele><time>2022-11-06T12:40:39.0000000+00:00</time></trkpt><trkpt lat="39.4632166" lon="-0.39274296"><ele>25.6</ele><time>2022-11-06T12:40:40.0000000+00:00</time></trkpt><trkpt lat="39.46320428" lon="-0.39272276"><ele>25.8</ele><time>2022-11-06T12:40:41.0000000+00:00</time></trkpt><trkpt lat="39.46319279" lon="-0.3926961"><ele>25.6</ele><time>2022-11-06T12:40:42.0000000+00:00</time></trkpt><trkpt lat="39.46317905" lon="-0.39267481"><ele>25.4</ele><time>2022-11-06T12:40:43.0000000+00:00</time></trkpt><trkpt lat="39.46315432" lon="-0.39267423"><ele>25.4</ele><time>2022-11-06T12:40:44.0000000+00:00</time></trkpt><trkpt lat="39.46314015" lon="-0.39266316"><ele>25.2</ele><time>2022-11-06T12:40:45.0000000+00:00</time></trkpt><trkpt lat="39.46312415" lon="-0.39264933"><ele>25.2</ele><time>2022-11-06T12:40:46.0000000+00:00</time></trkpt><trkpt lat="39.46311099" lon="-0.3926345"><ele>25.2</ele><time>2022-11-06T12:40:47.0000000+00:00</time></trkpt><trkpt lat="39.46309883" lon="-0.39261656"><ele>25.0</ele><time>2022-11-06T12:40:48.0000000+00:00</time></trkpt><trkpt lat="39.46309037" lon="-0.39259787"><ele>25.0</ele><time>2022-11-06T12:40:49.0000000+00:00</time></trkpt><trkpt lat="39.4630876" lon="-0.39258781"><ele>24.8</ele><time>2022-11-06T12:40:50.0000000+00:00</time></trkpt><trkpt lat="39.46308735" lon="-0.3925806"><ele>24.8</ele><time>2022-11-06T12:40:51.0000000+00:00</time></trkpt><trkpt lat="39.46308995" lon="-0.39257515"><ele>24.8</ele><time>2022-11-06T12:40:52.0000000+00:00</time></trkpt><trkpt lat="39.46308509" lon="-0.39256954"><ele>24.8</ele><time>2022-11-06T12:40:53.0000000+00:00</time></trkpt><trkpt lat="39.46306941" lon="-0.39256132"><ele>24.8</ele><time>2022-11-06T12:40:54.0000000+00:00</time></trkpt><trkpt lat="39.46307251" lon="-0.39254732"><ele>24.8</ele><time>2022-11-06T12:40:55.0000000+00:00</time></trkpt><trkpt lat="39.46307411" lon="-0.39252964"><ele>24.8</ele><time>2022-11-06T12:40:56.0000000+00:00</time></trkpt><trkpt lat="39.46306891" lon="-0.39252059"><ele>24.8</ele><time>2022-11-06T12:40:57.0000000+00:00</time></trkpt><trkpt lat="39.4630679" lon="-0.39250827"><ele>25.0</ele><time>2022-11-06T12:40:58.0000000+00:00</time></trkpt><trkpt lat="39.46306706" lon="-0.39249938"><ele>25.0</ele><time>2022-11-06T12:40:59.0000000+00:00</time></trkpt><trkpt lat="39.46307159" lon="-0.39248991"><ele>25.0</ele><time>2022-11-06T12:41:00.0000000+00:00</time></trkpt><trkpt lat="39.46307193" lon="-0.39249058"><ele>25.0</ele><time>2022-11-06T12:41:01.0000000+00:00</time></trkpt><trkpt lat="39.46306941" lon="-0.39249259"><ele>25.0</ele><time>2022-11-06T12:41:02.0000000+00:00</time></trkpt><trkpt lat="39.46306623" lon="-0.39249385"><ele>24.8</ele><time>2022-11-06T12:41:03.0000000+00:00</time></trkpt><trkpt lat="39.46306195" lon="-0.39249578"><ele>24.8</ele><time>2022-11-06T12:41:04.0000000+00:00</time></trkpt><trkpt lat="39.46305592" lon="-0.39248714"><ele>24.8</ele><time>2022-11-06T12:41:05.0000000+00:00</time></trkpt><trkpt lat="39.46304804" lon="-0.39247952"><ele>24.8</ele><time>2022-11-06T12:41:06.0000000+00:00</time></trkpt><trkpt lat="39.46304804" lon="-0.39247323"><ele>24.8</ele><time>2022-11-06T12:41:07.0000000+00:00</time></trkpt><trkpt lat="39.46304351" lon="-0.39246937"><ele>24.8</ele><time>2022-11-06T12:41:08.0000000+00:00</time></trkpt><trkpt lat="39.46303697" lon="-0.3924661"><ele>24.8</ele><time>2022-11-06T12:41:09.0000000+00:00</time></trkpt><trkpt lat="39.46303186" lon="-0.39245864"><ele>24.8</ele><time>2022-11-06T12:41:10.0000000+00:00</time></trkpt><trkpt lat="39.46302993" lon="-0.39244758"><ele>24.8</ele><time>2022-11-06T12:41:11.0000000+00:00</time></trkpt><trkpt lat="39.46303102" lon="-0.39244113"><ele>25.0</ele><time>2022-11-06T12:41:12.0000000+00:00</time></trkpt><trkpt lat="39.46304368" lon="-0.39243207"><ele>25.0</ele><time>2022-11-06T12:41:13.0000000+00:00</time></trkpt><trkpt lat="39.46305458" lon="-0.39241833"><ele>25.0</ele><time>2022-11-06T12:41:14.0000000+00:00</time></trkpt><trkpt lat="39.46305776" lon="-0.39239377"><ele>25.0</ele><time>2022-11-06T12:41:15.0000000+00:00</time></trkpt><trkpt lat="39.46305743" lon="-0.39238446"><ele>25.0</ele><time>2022-11-06T12:41:16.0000000+00:00</time></trkpt><trkpt lat="39.46305022" lon="-0.39237315"><ele>25.0</ele><time>2022-11-06T12:41:17.0000000+00:00</time></trkpt><trkpt lat="39.4630415" lon="-0.39235706"><ele>25.0</ele><time>2022-11-06T12:41:18.0000000+00:00</time></trkpt><trkpt lat="39.46303379" lon="-0.39234884"><ele>24.8</ele><time>2022-11-06T12:41:19.0000000+00:00</time></trkpt><trkpt lat="39.46303085" lon="-0.39234222"><ele>24.8</ele><time>2022-11-06T12:41:20.0000000+00:00</time></trkpt><trkpt lat="39.46302323" lon="-0.39233342"><ele>24.8</ele><time>2022-11-06T12:41:21.0000000+00:00</time></trkpt><trkpt lat="39.46300286" lon="-0.39230517"><ele>24.8</ele><time>2022-11-06T12:41:22.0000000+00:00</time></trkpt><trkpt lat="39.46298157" lon="-0.39227751"><ele>24.8</ele><time>2022-11-06T12:41:23.0000000+00:00</time></trkpt><trkpt lat="39.46296154" lon="-0.39224709"><ele>24.8</ele><time>2022-11-06T12:41:24.0000000+00:00</time></trkpt><trkpt lat="39.46295525" lon="-0.39223032"><ele>24.8</ele><time>2022-11-06T12:41:25.0000000+00:00</time></trkpt><trkpt lat="39.46294234" lon="-0.39221381"><ele>24.8</ele><time>2022-11-06T12:41:26.0000000+00:00</time></trkpt><trkpt lat="39.46294318" lon="-0.39221171"><ele>24.8</ele><time>2022-11-06T12:41:27.0000000+00:00</time></trkpt><trkpt lat="39.46294519" lon="-0.39220459"><ele>24.8</ele><time>2022-11-06T12:41:28.0000000+00:00</time></trkpt><trkpt lat="39.46294695" lon="-0.39219227"><ele>24.8</ele><time>2022-11-06T12:41:29.0000000+00:00</time></trkpt><trkpt lat="39.46293924" lon="-0.39218145"><ele>24.8</ele><time>2022-11-06T12:41:30.0000000+00:00</time></trkpt><trkpt lat="39.46293128" lon="-0.39216679"><ele>24.8</ele><time>2022-11-06T12:41:31.0000000+00:00</time></trkpt><trkpt lat="39.46292147" lon="-0.39215421"><ele>24.8</ele><time>2022-11-06T12:41:32.0000000+00:00</time></trkpt><trkpt lat="39.4629146" lon="-0.39214432"><ele>24.8</ele><time>2022-11-06T12:41:33.0000000+00:00</time></trkpt><trkpt lat="39.4629177" lon="-0.39212404"><ele>24.8</ele><time>2022-11-06T12:41:34.0000000+00:00</time></trkpt><trkpt lat="39.46291384" lon="-0.39211105"><ele>24.8</ele><time>2022-11-06T12:41:35.0000000+00:00</time></trkpt><trkpt lat="39.46290596" lon="-0.39210593"><ele>24.8</ele><time>2022-11-06T12:41:36.0000000+00:00</time></trkpt><trkpt lat="39.46289088" lon="-0.39209529"><ele>24.6</ele><time>2022-11-06T12:41:37.0000000+00:00</time></trkpt><trkpt lat="39.46287688" lon="-0.39207978"><ele>24.6</ele><time>2022-11-06T12:41:38.0000000+00:00</time></trkpt><trkpt lat="39.46286942" lon="-0.39207165"><ele>24.6</ele><time>2022-11-06T12:41:39.0000000+00:00</time></trkpt><trkpt lat="39.46286481" lon="-0.39206017"><ele>24.6</ele><time>2022-11-06T12:41:40.0000000+00:00</time></trkpt><trkpt lat="39.46286229" lon="-0.39204994"><ele>24.6</ele><time>2022-11-06T12:41:41.0000000+00:00</time></trkpt><trkpt lat="39.4628607" lon="-0.39204768"><ele>24.6</ele><time>2022-11-06T12:41:42.0000000+00:00</time></trkpt><trkpt lat="39.46285869" lon="-0.39203846"><ele>24.6</ele><time>2022-11-06T12:41:43.0000000+00:00</time></trkpt><trkpt lat="39.46284276" lon="-0.39203217"><ele>24.6</ele><time>2022-11-06T12:41:44.0000000+00:00</time></trkpt><trkpt lat="39.46283522" lon="-0.39203209"><ele>24.6</ele><time>2022-11-06T12:41:45.0000000+00:00</time></trkpt><trkpt lat="39.46284511" lon="-0.39202052"><ele>24.6</ele><time>2022-11-06T12:41:46.0000000+00:00</time></trkpt><trkpt lat="39.46283815" lon="-0.39200854"><ele>24.6</ele><time>2022-11-06T12:41:47.0000000+00:00</time></trkpt><trkpt lat="39.462825" lon="-0.39198473"><ele>24.6</ele><time>2022-11-06T12:41:48.0000000+00:00</time></trkpt><trkpt lat="39.46281653" lon="-0.39197241"><ele>24.6</ele><time>2022-11-06T12:41:49.0000000+00:00</time></trkpt><trkpt lat="39.46280454" lon="-0.39198666"><ele>24.6</ele><time>2022-11-06T12:41:50.0000000+00:00</time></trkpt><trkpt lat="39.4627892" lon="-0.39196344"><ele>24.4</ele><time>2022-11-06T12:41:51.0000000+00:00</time></trkpt><trkpt lat="39.46278166" lon="-0.39195104"><ele>24.4</ele><time>2022-11-06T12:41:52.0000000+00:00</time></trkpt><trkpt lat="39.46277177" lon="-0.39194106"><ele>24.4</ele><time>2022-11-06T12:41:53.0000000+00:00</time></trkpt><trkpt lat="39.46274989" lon="-0.39190427"><ele>24.6</ele><time>2022-11-06T12:41:54.0000000+00:00</time></trkpt><trkpt lat="39.46273036" lon="-0.39183981"><ele>24.6</ele><time>2022-11-06T12:41:55.0000000+00:00</time></trkpt><trkpt lat="39.46270924" lon="-0.39179388"><ele>24.6</ele><time>2022-11-06T12:41:56.0000000+00:00</time></trkpt><trkpt lat="39.46269156" lon="-0.39176093"><ele>24.6</ele><time>2022-11-06T12:41:57.0000000+00:00</time></trkpt><trkpt lat="39.46267085" lon="-0.39173277"><ele>24.6</ele><time>2022-11-06T12:41:58.0000000+00:00</time></trkpt><trkpt lat="39.46266172" lon="-0.39173101"><ele>24.6</ele><time>2022-11-06T12:41:59.0000000+00:00</time></trkpt><trkpt lat="39.46264755" lon="-0.39172841"><ele>24.6</ele><time>2022-11-06T12:42:00.0000000+00:00</time></trkpt><trkpt lat="39.46263766" lon="-0.39173084"><ele>24.6</ele><time>2022-11-06T12:42:01.0000000+00:00</time></trkpt><trkpt lat="39.46262601" lon="-0.39172933"><ele>24.6</ele><time>2022-11-06T12:42:02.0000000+00:00</time></trkpt><trkpt lat="39.46261553" lon="-0.39173202"><ele>24.6</ele><time>2022-11-06T12:42:03.0000000+00:00</time></trkpt><trkpt lat="39.4626064" lon="-0.39172288"><ele>24.6</ele><time>2022-11-06T12:42:04.0000000+00:00</time></trkpt><trkpt lat="39.46259231" lon="-0.39169405"><ele>24.8</ele><time>2022-11-06T12:42:05.0000000+00:00</time></trkpt><trkpt lat="39.46258083" lon="-0.39166974"><ele>24.8</ele><time>2022-11-06T12:42:06.0000000+00:00</time></trkpt><trkpt lat="39.46257396" lon="-0.3916482"><ele>24.8</ele><time>2022-11-06T12:42:07.0000000+00:00</time></trkpt><trkpt lat="39.46256239" lon="-0.39163328"><ele>24.8</ele><time>2022-11-06T12:42:08.0000000+00:00</time></trkpt><trkpt lat="39.46255267" lon="-0.39162506"><ele>25.0</ele><time>2022-11-06T12:42:09.0000000+00:00</time></trkpt><trkpt lat="39.46253934" lon="-0.39162481"><ele>25.0</ele><time>2022-11-06T12:42:10.0000000+00:00</time></trkpt><trkpt lat="39.46252408" lon="-0.39160763"><ele>25.0</ele><time>2022-11-06T12:42:11.0000000+00:00</time></trkpt><trkpt lat="39.46250581" lon="-0.39160017"><ele>25.0</ele><time>2022-11-06T12:42:12.0000000+00:00</time></trkpt><trkpt lat="39.46249299" lon="-0.39158139"><ele>25.2</ele><time>2022-11-06T12:42:13.0000000+00:00</time></trkpt><trkpt lat="39.46245946" lon="-0.39159757"><ele>25.2</ele><time>2022-11-06T12:42:14.0000000+00:00</time></trkpt><trkpt lat="39.46243289" lon="-0.3916"><ele>25.0</ele><time>2022-11-06T12:42:15.0000000+00:00</time></trkpt><trkpt lat="39.46240028" lon="-0.39160361"><ele>25.0</ele><time>2022-11-06T12:42:16.0000000+00:00</time></trkpt><trkpt lat="39.46237723" lon="-0.39163143"><ele>25.0</ele><time>2022-11-06T12:42:17.0000000+00:00</time></trkpt><trkpt lat="39.46234966" lon="-0.39168038"><ele>25.0</ele><time>2022-11-06T12:42:18.0000000+00:00</time></trkpt><trkpt lat="39.46232443" lon="-0.39172028"><ele>24.8</ele><time>2022-11-06T12:42:19.0000000+00:00</time></trkpt><trkpt lat="39.46231781" lon="-0.39169572"><ele>24.8</ele><time>2022-11-06T12:42:20.0000000+00:00</time></trkpt><trkpt lat="39.46231345" lon="-0.39164702"><ele>24.8</ele><time>2022-11-06T12:42:21.0000000+00:00</time></trkpt><trkpt lat="39.46229744" lon="-0.39162607"><ele>24.8</ele><time>2022-11-06T12:42:22.0000000+00:00</time></trkpt><trkpt lat="39.46227673" lon="-0.3916197"><ele>24.8</ele><time>2022-11-06T12:42:23.0000000+00:00</time></trkpt><trkpt lat="39.46226173" lon="-0.39161568"><ele>24.8</ele><time>2022-11-06T12:42:24.0000000+00:00</time></trkpt><trkpt lat="39.46221571" lon="-0.39155742"><ele>24.8</ele><time>2022-11-06T12:42:25.0000000+00:00</time></trkpt><trkpt lat="39.4621992" lon="-0.39153689"><ele>24.8</ele><time>2022-11-06T12:42:26.0000000+00:00</time></trkpt><trkpt lat="39.46218495" lon="-0.39151928"><ele>24.8</ele><time>2022-11-06T12:42:27.0000000+00:00</time></trkpt><trkpt lat="39.46216106" lon="-0.39149825"><ele>24.8</ele><time>2022-11-06T12:42:28.0000000+00:00</time></trkpt><trkpt lat="39.46213827" lon="-0.39147645"><ele>24.8</ele><time>2022-11-06T12:42:29.0000000+00:00</time></trkpt><trkpt lat="39.46211848" lon="-0.3914581"><ele>24.8</ele><time>2022-11-06T12:42:30.0000000+00:00</time></trkpt><trkpt lat="39.46210876" lon="-0.39144904"><ele>24.8</ele><time>2022-11-06T12:42:31.0000000+00:00</time></trkpt><trkpt lat="39.46210164" lon="-0.39143999"><ele>24.8</ele><time>2022-11-06T12:42:32.0000000+00:00</time></trkpt><trkpt lat="39.46209342" lon="-0.39142465"><ele>24.8</ele><time>2022-11-06T12:42:33.0000000+00:00</time></trkpt><trkpt lat="39.46208588" lon="-0.39141065"><ele>24.8</ele><time>2022-11-06T12:42:34.0000000+00:00</time></trkpt><trkpt lat="39.46208529" lon="-0.39140672"><ele>25.0</ele><time>2022-11-06T12:42:35.0000000+00:00</time></trkpt><trkpt lat="39.46209367" lon="-0.39141074"><ele>25.0</ele><time>2022-11-06T12:42:36.0000000+00:00</time></trkpt><trkpt lat="39.46210524" lon="-0.39141996"><ele>24.8</ele><time>2022-11-06T12:42:37.0000000+00:00</time></trkpt><trkpt lat="39.46212033" lon="-0.39143169"><ele>24.8</ele><time>2022-11-06T12:42:38.0000000+00:00</time></trkpt><trkpt lat="39.46211832" lon="-0.39142675"><ele>24.8</ele><time>2022-11-06T12:42:39.0000000+00:00</time></trkpt><trkpt lat="39.46212393" lon="-0.39143035"><ele>24.8</ele><time>2022-11-06T12:42:40.0000000+00:00</time></trkpt><trkpt lat="39.46213374" lon="-0.39142842"><ele>24.8</ele><time>2022-11-06T12:42:41.0000000+00:00</time></trkpt><trkpt lat="39.46213542" lon="-0.39141568"><ele>24.8</ele><time>2022-11-06T12:42:42.0000000+00:00</time></trkpt><trkpt lat="39.4621117" lon="-0.39139842"><ele>24.8</ele><time>2022-11-06T12:42:43.0000000+00:00</time></trkpt><trkpt lat="39.46206568" lon="-0.39141518"><ele>24.8</ele><time>2022-11-06T12:42:44.0000000+00:00</time></trkpt><trkpt lat="39.46204615" lon="-0.39142683"><ele>24.8</ele><time>2022-11-06T12:42:45.0000000+00:00</time></trkpt><trkpt lat="39.46204003" lon="-0.39144184"><ele>24.8</ele><time>2022-11-06T12:42:46.0000000+00:00</time></trkpt><trkpt lat="39.46203374" lon="-0.39146145"><ele>24.8</ele><time>2022-11-06T12:42:47.0000000+00:00</time></trkpt><trkpt lat="39.46202603" lon="-0.39146665"><ele>24.8</ele><time>2022-11-06T12:42:48.0000000+00:00</time></trkpt><trkpt lat="39.4620226" lon="-0.39147285"><ele>24.8</ele><time>2022-11-06T12:42:49.0000000+00:00</time></trkpt><trkpt lat="39.46202352" lon="-0.39147696"><ele>24.8</ele><time>2022-11-06T12:42:50.0000000+00:00</time></trkpt><trkpt lat="39.46202318" lon="-0.39147955"><ele>24.8</ele><time>2022-11-06T12:42:51.0000000+00:00</time></trkpt><trkpt lat="39.46202184" lon="-0.39149121"><ele>24.8</ele><time>2022-11-06T12:42:52.0000000+00:00</time></trkpt><trkpt lat="39.46203207" lon="-0.391484"><ele>24.8</ele><time>2022-11-06T12:42:53.0000000+00:00</time></trkpt><trkpt lat="39.46203869" lon="-0.39149028"><ele>24.8</ele><time>2022-11-06T12:42:54.0000000+00:00</time></trkpt><trkpt lat="39.46204548" lon="-0.39149498"><ele>24.8</ele><time>2022-11-06T12:42:55.0000000+00:00</time></trkpt><trkpt lat="39.46204162" lon="-0.39150277"><ele>24.8</ele><time>2022-11-06T12:42:56.0000000+00:00</time></trkpt><trkpt lat="39.46201832" lon="-0.39152959"><ele>24.8</ele><time>2022-11-06T12:42:57.0000000+00:00</time></trkpt><trkpt lat="39.4620127" lon="-0.39153806"><ele>24.8</ele><time>2022-11-06T12:42:58.0000000+00:00</time></trkpt><trkpt lat="39.46201949" lon="-0.39152792"><ele>24.8</ele><time>2022-11-06T12:42:59.0000000+00:00</time></trkpt><trkpt lat="39.46202838" lon="-0.39153303"><ele>24.8</ele><time>2022-11-06T12:43:00.0000000+00:00</time></trkpt><trkpt lat="39.46202821" lon="-0.39153965"><ele>24.8</ele><time>2022-11-06T12:43:01.0000000+00:00</time></trkpt><trkpt lat="39.46202737" lon="-0.39154611"><ele>24.8</ele><time>2022-11-06T12:43:02.0000000+00:00</time></trkpt><trkpt lat="39.46202285" lon="-0.39154954"><ele>24.8</ele><time>2022-11-06T12:43:03.0000000+00:00</time></trkpt><trkpt lat="39.46201438" lon="-0.39155415"><ele>24.8</ele><time>2022-11-06T12:43:04.0000000+00:00</time></trkpt><trkpt lat="39.46203316" lon="-0.3915358"><ele>24.8</ele><time>2022-11-06T12:43:05.0000000+00:00</time></trkpt><trkpt lat="39.46204833" lon="-0.3915337"><ele>24.8</ele><time>2022-11-06T12:43:06.0000000+00:00</time></trkpt><trkpt lat="39.46205822" lon="-0.39153957"><ele>24.8</ele><time>2022-11-06T12:43:07.0000000+00:00</time></trkpt><trkpt lat="39.4620697" lon="-0.39153814"><ele>25.0</ele><time>2022-11-06T12:43:08.0000000+00:00</time></trkpt><trkpt lat="39.46208403" lon="-0.39153714"><ele>25.0</ele><time>2022-11-06T12:43:09.0000000+00:00</time></trkpt><trkpt lat="39.46205143" lon="-0.39153571"><ele>25.0</ele><time>2022-11-06T12:43:10.0000000+00:00</time></trkpt><trkpt lat="39.46204741" lon="-0.39153764"><ele>25.2</ele><time>2022-11-06T12:43:11.0000000+00:00</time></trkpt><trkpt lat="39.4620345" lon="-0.39154066"><ele>25.2</ele><time>2022-11-06T12:43:12.0000000+00:00</time></trkpt><trkpt lat="39.46205403" lon="-0.39151677"><ele>25.2</ele><time>2022-11-06T12:43:13.0000000+00:00</time></trkpt><trkpt lat="39.46210197" lon="-0.39147461"><ele>25.2</ele><time>2022-11-06T12:43:14.0000000+00:00</time></trkpt><trkpt lat="39.46211589" lon="-0.39144971"><ele>25.2</ele><time>2022-11-06T12:43:15.0000000+00:00</time></trkpt><trkpt lat="39.46212561" lon="-0.39143211"><ele>25.4</ele><time>2022-11-06T12:43:16.0000000+00:00</time></trkpt><trkpt lat="39.46213659" lon="-0.39141476"><ele>25.4</ele><time>2022-11-06T12:43:17.0000000+00:00</time></trkpt><trkpt lat="39.46211144" lon="-0.39142775"><ele>25.4</ele><time>2022-11-06T12:43:18.0000000+00:00</time></trkpt><trkpt lat="39.46205151" lon="-0.3914757"><ele>25.4</ele><time>2022-11-06T12:43:19.0000000+00:00</time></trkpt><trkpt lat="39.46201145" lon="-0.39151208"><ele>25.4</ele><time>2022-11-06T12:43:20.0000000+00:00</time></trkpt><trkpt lat="39.46199016" lon="-0.39153328"><ele>25.4</ele><time>2022-11-06T12:43:21.0000000+00:00</time></trkpt><trkpt lat="39.46197566" lon="-0.39154552"><ele>25.4</ele><time>2022-11-06T12:43:22.0000000+00:00</time></trkpt><trkpt lat="39.46196862" lon="-0.39154862"><ele>25.4</ele><time>2022-11-06T12:43:23.0000000+00:00</time></trkpt><trkpt lat="39.46195512" lon="-0.39155591"><ele>25.4</ele><time>2022-11-06T12:43:24.0000000+00:00</time></trkpt><trkpt lat="39.46194674" lon="-0.39156404"><ele>25.4</ele><time>2022-11-06T12:43:25.0000000+00:00</time></trkpt><trkpt lat="39.46194934" lon="-0.39156589"><ele>25.4</ele><time>2022-11-06T12:43:26.0000000+00:00</time></trkpt><trkpt lat="39.4619366" lon="-0.39156999"><ele>25.4</ele><time>2022-11-06T12:43:27.0000000+00:00</time></trkpt><trkpt lat="39.46192252" lon="-0.39157963"><ele>25.4</ele><time>2022-11-06T12:43:28.0000000+00:00</time></trkpt><trkpt lat="39.46189662" lon="-0.39157385"><ele>25.4</ele><time>2022-11-06T12:43:29.0000000+00:00</time></trkpt><trkpt lat="39.4618775" lon="-0.39157067"><ele>25.4</ele><time>2022-11-06T12:43:30.0000000+00:00</time></trkpt><trkpt lat="39.46185756" lon="-0.39155994"><ele>25.4</ele><time>2022-11-06T12:43:31.0000000+00:00</time></trkpt><trkpt lat="39.46181338" lon="-0.3915073"><ele>25.4</ele><time>2022-11-06T12:43:32.0000000+00:00</time></trkpt><trkpt lat="39.46180609" lon="-0.39149556"><ele>25.4</ele><time>2022-11-06T12:43:33.0000000+00:00</time></trkpt><trkpt lat="39.46178556" lon="-0.39147276"><ele>25.4</ele><time>2022-11-06T12:43:34.0000000+00:00</time></trkpt><trkpt lat="39.46175521" lon="-0.39143672"><ele>25.4</ele><time>2022-11-06T12:43:35.0000000+00:00</time></trkpt><trkpt lat="39.46174356" lon="-0.39142021"><ele>25.6</ele><time>2022-11-06T12:43:36.0000000+00:00</time></trkpt><trkpt lat="39.46173895" lon="-0.3914291"><ele>25.6</ele><time>2022-11-06T12:43:37.0000000+00:00</time></trkpt><trkpt lat="39.46173459" lon="-0.39143169"><ele>25.6</ele><time>2022-11-06T12:43:38.0000000+00:00</time></trkpt><trkpt lat="39.46173308" lon="-0.3914363"><ele>25.6</ele><time>2022-11-06T12:43:39.0000000+00:00</time></trkpt><trkpt lat="39.46173669" lon="-0.39144225"><ele>25.6</ele><time>2022-11-06T12:43:40.0000000+00:00</time></trkpt><trkpt lat="39.46174448" lon="-0.39145575"><ele>25.6</ele><time>2022-11-06T12:43:41.0000000+00:00</time></trkpt><trkpt lat="39.46173468" lon="-0.39143756"><ele>25.6</ele><time>2022-11-06T12:43:42.0000000+00:00</time></trkpt><trkpt lat="39.46170886" lon="-0.39140035"><ele>25.6</ele><time>2022-11-06T12:43:43.0000000+00:00</time></trkpt><trkpt lat="39.46167735" lon="-0.39137922"><ele>25.6</ele><time>2022-11-06T12:43:44.0000000+00:00</time></trkpt><trkpt lat="39.46164876" lon="-0.39135584"><ele>25.6</ele><time>2022-11-06T12:43:45.0000000+00:00</time></trkpt><trkpt lat="39.46160987" lon="-0.39132826"><ele>25.6</ele><time>2022-11-06T12:43:46.0000000+00:00</time></trkpt><trkpt lat="39.46157701" lon="-0.39130923"><ele>25.6</ele><time>2022-11-06T12:43:47.0000000+00:00</time></trkpt><trkpt lat="39.46154516" lon="-0.39129289"><ele>25.6</ele><time>2022-11-06T12:43:48.0000000+00:00</time></trkpt><trkpt lat="39.46154416" lon="-0.39130529"><ele>25.6</ele><time>2022-11-06T12:43:49.0000000+00:00</time></trkpt><trkpt lat="39.46155455" lon="-0.39132658"><ele>25.6</ele><time>2022-11-06T12:43:50.0000000+00:00</time></trkpt><trkpt lat="39.46155447" lon="-0.39134427"><ele>25.6</ele><time>2022-11-06T12:43:51.0000000+00:00</time></trkpt><trkpt lat="39.46155681" lon="-0.39135953"><ele>25.6</ele><time>2022-11-06T12:43:52.0000000+00:00</time></trkpt><trkpt lat="39.46159436" lon="-0.39139263"><ele>25.6</ele><time>2022-11-06T12:43:53.0000000+00:00</time></trkpt><trkpt lat="39.46162521" lon="-0.39143169"><ele>25.6</ele><time>2022-11-06T12:43:54.0000000+00:00</time></trkpt><trkpt lat="39.46163292" lon="-0.39145089"><ele>25.6</ele><time>2022-11-06T12:43:55.0000000+00:00</time></trkpt><trkpt lat="39.46162278" lon="-0.39146732"><ele>25.6</ele><time>2022-11-06T12:43:56.0000000+00:00</time></trkpt><trkpt lat="39.4615978" lon="-0.39148467"><ele>25.6</ele><time>2022-11-06T12:43:57.0000000+00:00</time></trkpt><trkpt lat="39.46157768" lon="-0.39149908"><ele>25.6</ele><time>2022-11-06T12:43:58.0000000+00:00</time></trkpt><trkpt lat="39.46156872" lon="-0.39149766"><ele>25.6</ele><time>2022-11-06T12:43:59.0000000+00:00</time></trkpt><trkpt lat="39.46156193" lon="-0.39150344"><ele>25.6</ele><time>2022-11-06T12:44:00.0000000+00:00</time></trkpt><trkpt lat="39.46155581" lon="-0.3915228"><ele>25.6</ele><time>2022-11-06T12:44:01.0000000+00:00</time></trkpt><trkpt lat="39.4615579" lon="-0.39151928"><ele>25.6</ele><time>2022-11-06T12:44:02.0000000+00:00</time></trkpt><trkpt lat="39.46155547" lon="-0.39151568"><ele>25.6</ele><time>2022-11-06T12:44:03.0000000+00:00</time></trkpt><trkpt lat="39.46155019" lon="-0.39151233"><ele>25.6</ele><time>2022-11-06T12:44:04.0000000+00:00</time></trkpt><trkpt lat="39.46154751" lon="-0.39151124"><ele>25.6</ele><time>2022-11-06T12:44:05.0000000+00:00</time></trkpt><trkpt lat="39.46153075" lon="-0.39151677"><ele>25.8</ele><time>2022-11-06T12:44:06.0000000+00:00</time></trkpt><trkpt lat="39.46153494" lon="-0.39151166"><ele>25.8</ele><time>2022-11-06T12:44:07.0000000+00:00</time></trkpt><trkpt lat="39.46152706" lon="-0.3915052"><ele>25.8</ele><time>2022-11-06T12:44:08.0000000+00:00</time></trkpt><trkpt lat="39.46151256" lon="-0.3914985"><ele>25.8</ele><time>2022-11-06T12:44:09.0000000+00:00</time></trkpt><trkpt lat="39.46149512" lon="-0.39148995"><ele>25.8</ele><time>2022-11-06T12:44:10.0000000+00:00</time></trkpt><trkpt lat="39.46147827" lon="-0.39147997"><ele>25.8</ele><time>2022-11-06T12:44:11.0000000+00:00</time></trkpt><trkpt lat="39.46146671" lon="-0.39147067"><ele>25.8</ele><time>2022-11-06T12:44:12.0000000+00:00</time></trkpt><trkpt lat="39.46145045" lon="-0.39146237"><ele>25.8</ele><time>2022-11-06T12:44:13.0000000+00:00</time></trkpt><trkpt lat="39.46143511" lon="-0.39145667"><ele>25.8</ele><time>2022-11-06T12:44:14.0000000+00:00</time></trkpt><trkpt lat="39.46141759" lon="-0.39145625"><ele>26.0</ele><time>2022-11-06T12:44:15.0000000+00:00</time></trkpt><trkpt lat="39.46141323" lon="-0.39145147"><ele>26.0</ele><time>2022-11-06T12:44:16.0000000+00:00</time></trkpt><trkpt lat="39.46140686" lon="-0.39145659"><ele>26.0</ele><time>2022-11-06T12:44:17.0000000+00:00</time></trkpt><trkpt lat="39.46140711" lon="-0.39146614"><ele>26.0</ele><time>2022-11-06T12:44:18.0000000+00:00</time></trkpt><trkpt lat="39.46139379" lon="-0.39148349"><ele>26.0</ele><time>2022-11-06T12:44:19.0000000+00:00</time></trkpt><trkpt lat="39.46138918" lon="-0.39149204"><ele>26.0</ele><time>2022-11-06T12:44:20.0000000+00:00</time></trkpt><trkpt lat="39.46138867" lon="-0.39148827"><ele>26.0</ele><time>2022-11-06T12:44:21.0000000+00:00</time></trkpt><trkpt lat="39.46139026" lon="-0.39148232"><ele>26.0</ele><time>2022-11-06T12:44:22.0000000+00:00</time></trkpt><trkpt lat="39.46139337" lon="-0.39147679"><ele>26.0</ele><time>2022-11-06T12:44:23.0000000+00:00</time></trkpt><trkpt lat="39.46141038" lon="-0.39147293"><ele>26.0</ele><time>2022-11-06T12:44:24.0000000+00:00</time></trkpt><trkpt lat="39.4614217" lon="-0.39146313"><ele>26.0</ele><time>2022-11-06T12:44:25.0000000+00:00</time></trkpt><trkpt lat="39.46143041" lon="-0.3914586"><ele>26.0</ele><time>2022-11-06T12:44:26.0000000+00:00</time></trkpt><trkpt lat="39.4614393" lon="-0.39145902"><ele>26.0</ele><time>2022-11-06T12:44:27.0000000+00:00</time></trkpt><trkpt lat="39.46143276" lon="-0.39145852"><ele>26.0</ele><time>2022-11-06T12:44:28.0000000+00:00</time></trkpt><trkpt lat="39.46143083" lon="-0.39144946"><ele>26.0</ele><time>2022-11-06T12:44:29.0000000+00:00</time></trkpt><trkpt lat="39.46142689" lon="-0.39143337"><ele>26.0</ele><time>2022-11-06T12:44:30.0000000+00:00</time></trkpt><trkpt lat="39.46143268" lon="-0.39142013"><ele>26.0</ele><time>2022-11-06T12:44:31.0000000+00:00</time></trkpt><trkpt lat="39.46142798" lon="-0.39140269"><ele>26.0</ele><time>2022-11-06T12:44:32.0000000+00:00</time></trkpt><trkpt lat="39.46140711" lon="-0.39138425"><ele>26.2</ele><time>2022-11-06T12:44:33.0000000+00:00</time></trkpt><trkpt lat="39.46139035" lon="-0.39136816"><ele>26.2</ele><time>2022-11-06T12:44:34.0000000+00:00</time></trkpt><trkpt lat="39.46138213" lon="-0.39135818"><ele>26.2</ele><time>2022-11-06T12:44:35.0000000+00:00</time></trkpt><trkpt lat="39.46138255" lon="-0.39135609"><ele>26.0</ele><time>2022-11-06T12:44:36.0000000+00:00</time></trkpt><trkpt lat="39.46138708" lon="-0.39135181"><ele>26.0</ele><time>2022-11-06T12:44:37.0000000+00:00</time></trkpt><trkpt lat="39.46139144" lon="-0.39135165"><ele>26.0</ele><time>2022-11-06T12:44:38.0000000+00:00</time></trkpt><trkpt lat="39.4613937" lon="-0.39134176"><ele>26.0</ele><time>2022-11-06T12:44:39.0000000+00:00</time></trkpt><trkpt lat="39.46139177" lon="-0.39132994"><ele>26.0</ele><time>2022-11-06T12:44:40.0000000+00:00</time></trkpt><trkpt lat="39.46138783" lon="-0.39131242"><ele>26.0</ele><time>2022-11-06T12:44:41.0000000+00:00</time></trkpt><trkpt lat="39.46137895" lon="-0.39130429"><ele>26.2</ele><time>2022-11-06T12:44:42.0000000+00:00</time></trkpt><trkpt lat="39.4613647" lon="-0.39129775"><ele>26.2</ele><time>2022-11-06T12:44:43.0000000+00:00</time></trkpt><trkpt lat="39.46136034" lon="-0.39129373"><ele>26.2</ele><time>2022-11-06T12:44:44.0000000+00:00</time></trkpt><trkpt lat="39.46135682" lon="-0.39129121"><ele>26.2</ele><time>2022-11-06T12:44:45.0000000+00:00</time></trkpt><trkpt lat="39.46134467" lon="-0.39127889"><ele>26.2</ele><time>2022-11-06T12:44:46.0000000+00:00</time></trkpt><trkpt lat="39.46133696" lon="-0.39126515"><ele>26.2</ele><time>2022-11-06T12:44:47.0000000+00:00</time></trkpt><trkpt lat="39.46133126" lon="-0.39124863"><ele>26.2</ele><time>2022-11-06T12:44:48.0000000+00:00</time></trkpt><trkpt lat="39.46132153" lon="-0.39123304"><ele>26.2</ele><time>2022-11-06T12:44:49.0000000+00:00</time></trkpt><trkpt lat="39.46131122" lon="-0.39122474"><ele>26.2</ele><time>2022-11-06T12:44:50.0000000+00:00</time></trkpt><trkpt lat="39.46129731" lon="-0.39122039"><ele>26.2</ele><time>2022-11-06T12:44:51.0000000+00:00</time></trkpt><trkpt lat="39.46128231" lon="-0.39121519"><ele>26.2</ele><time>2022-11-06T12:44:52.0000000+00:00</time></trkpt><trkpt lat="39.46126755" lon="-0.39121217"><ele>26.2</ele><time>2022-11-06T12:44:53.0000000+00:00</time></trkpt><trkpt lat="39.46126026" lon="-0.39121167"><ele>26.2</ele><time>2022-11-06T12:44:54.0000000+00:00</time></trkpt><trkpt lat="39.46124425" lon="-0.39120605"><ele>26.2</ele><time>2022-11-06T12:44:55.0000000+00:00</time></trkpt><trkpt lat="39.46122321" lon="-0.39119633"><ele>26.2</ele><time>2022-11-06T12:44:56.0000000+00:00</time></trkpt><trkpt lat="39.4612041" lon="-0.39118627"><ele>26.2</ele><time>2022-11-06T12:44:57.0000000+00:00</time></trkpt><trkpt lat="39.4612005" lon="-0.39118242"><ele>26.2</ele><time>2022-11-06T12:44:58.0000000+00:00</time></trkpt><trkpt lat="39.46120008" lon="-0.39118107"><ele>26.2</ele><time>2022-11-06T12:44:59.0000000+00:00</time></trkpt><trkpt lat="39.46119463" lon="-0.39117806"><ele>26.2</ele><time>2022-11-06T12:45:00.0000000+00:00</time></trkpt><trkpt lat="39.4611917" lon="-0.39117286"><ele>26.2</ele><time>2022-11-06T12:45:01.0000000+00:00</time></trkpt><trkpt lat="39.46118834" lon="-0.3911654"><ele>26.0</ele><time>2022-11-06T12:45:02.0000000+00:00</time></trkpt><trkpt lat="39.46118449" lon="-0.39115937"><ele>26.0</ele><time>2022-11-06T12:45:03.0000000+00:00</time></trkpt><trkpt lat="39.46117921" lon="-0.39114562"><ele>26.0</ele><time>2022-11-06T12:45:04.0000000+00:00</time></trkpt><trkpt lat="39.46118214" lon="-0.39113841"><ele>25.8</ele><time>2022-11-06T12:45:05.0000000+00:00</time></trkpt><trkpt lat="39.46119891" lon="-0.39115559"><ele>25.8</ele><time>2022-11-06T12:45:06.0000000+00:00</time></trkpt><trkpt lat="39.46120494" lon="-0.39115853"><ele>25.8</ele><time>2022-11-06T12:45:07.0000000+00:00</time></trkpt><trkpt lat="39.46119731" lon="-0.39114704"><ele>25.8</ele><time>2022-11-06T12:45:08.0000000+00:00</time></trkpt><trkpt lat="39.4611813" lon="-0.39109893"><ele>25.8</ele><time>2022-11-06T12:45:09.0000000+00:00</time></trkpt><trkpt lat="39.46114166" lon="-0.39104604"><ele>25.8</ele><time>2022-11-06T12:45:10.0000000+00:00</time></trkpt><trkpt lat="39.46111551" lon="-0.39100061"><ele>25.8</ele><time>2022-11-06T12:45:11.0000000+00:00</time></trkpt><trkpt lat="39.46111316" lon="-0.39100958"><ele>25.8</ele><time>2022-11-06T12:45:12.0000000+00:00</time></trkpt><trkpt lat="39.46112154" lon="-0.39101788"><ele>25.8</ele><time>2022-11-06T12:45:13.0000000+00:00</time></trkpt><trkpt lat="39.46112565" lon="-0.3910193"><ele>25.8</ele><time>2022-11-06T12:45:14.0000000+00:00</time></trkpt><trkpt lat="39.46112498" lon="-0.39101838"><ele>25.8</ele><time>2022-11-06T12:45:15.0000000+00:00</time></trkpt><trkpt lat="39.46112548" lon="-0.39101444"><ele>25.8</ele><time>2022-11-06T12:45:16.0000000+00:00</time></trkpt><trkpt lat="39.46112892" lon="-0.39101017"><ele>25.8</ele><time>2022-11-06T12:45:17.0000000+00:00</time></trkpt><trkpt lat="39.4611311" lon="-0.39101109"><ele>25.8</ele><time>2022-11-06T12:45:18.0000000+00:00</time></trkpt><trkpt lat="39.46109824" lon="-0.39100589"><ele>25.8</ele><time>2022-11-06T12:45:19.0000000+00:00</time></trkpt><trkpt lat="39.4610865" lon="-0.39099684"><ele>26.0</ele><time>2022-11-06T12:45:20.0000000+00:00</time></trkpt><trkpt lat="39.46108365" lon="-0.39098728"><ele>26.0</ele><time>2022-11-06T12:45:21.0000000+00:00</time></trkpt><trkpt lat="39.46107997" lon="-0.39097362"><ele>26.0</ele><time>2022-11-06T12:45:22.0000000+00:00</time></trkpt><trkpt lat="39.46107728" lon="-0.39096398"><ele>26.0</ele><time>2022-11-06T12:45:23.0000000+00:00</time></trkpt><trkpt lat="39.46115155" lon="-0.39095552"><ele>26.0</ele><time>2022-11-06T12:45:24.0000000+00:00</time></trkpt><trkpt lat="39.46124082" lon="-0.39094236"><ele>26.0</ele><time>2022-11-06T12:45:25.0000000+00:00</time></trkpt><trkpt lat="39.46127334" lon="-0.39094546"><ele>26.0</ele><time>2022-11-06T12:45:26.0000000+00:00</time></trkpt><trkpt lat="39.46131055" lon="-0.39093775"><ele>26.0</ele><time>2022-11-06T12:45:27.0000000+00:00</time></trkpt><trkpt lat="39.46134366" lon="-0.39092844"><ele>26.0</ele><time>2022-11-06T12:45:28.0000000+00:00</time></trkpt><trkpt lat="39.46136814" lon="-0.3909173"><ele>26.0</ele><time>2022-11-06T12:45:29.0000000+00:00</time></trkpt><trkpt lat="39.46125481" lon="-0.39090296"><ele>26.0</ele><time>2022-11-06T12:45:30.0000000+00:00</time></trkpt><trkpt lat="39.46124031" lon="-0.39088871"><ele>26.0</ele><time>2022-11-06T12:45:31.0000000+00:00</time></trkpt><trkpt lat="39.46122414" lon="-0.39087589"><ele>26.0</ele><time>2022-11-06T12:45:32.0000000+00:00</time></trkpt><trkpt lat="39.46119849" lon="-0.39086424"><ele>26.0</ele><time>2022-11-06T12:45:33.0000000+00:00</time></trkpt><trkpt lat="39.46117954" lon="-0.39085485"><ele>26.0</ele><time>2022-11-06T12:45:34.0000000+00:00</time></trkpt><trkpt lat="39.46116605" lon="-0.39084689"><ele>26.0</ele><time>2022-11-06T12:45:35.0000000+00:00</time></trkpt><trkpt lat="39.46114149" lon="-0.39082853"><ele>26.0</ele><time>2022-11-06T12:45:36.0000000+00:00</time></trkpt><trkpt lat="39.46111132" lon="-0.39081311"><ele>26.0</ele><time>2022-11-06T12:45:37.0000000+00:00</time></trkpt><trkpt lat="39.46109505" lon="-0.39080305"><ele>26.0</ele><time>2022-11-06T12:45:38.0000000+00:00</time></trkpt><trkpt lat="39.4610798" lon="-0.39079425"><ele>26.0</ele><time>2022-11-06T12:45:39.0000000+00:00</time></trkpt><trkpt lat="39.4610658" lon="-0.39079526"><ele>26.0</ele><time>2022-11-06T12:45:40.0000000+00:00</time></trkpt><trkpt lat="39.46106547" lon="-0.39078402"><ele>26.0</ele><time>2022-11-06T12:45:41.0000000+00:00</time></trkpt><trkpt lat="39.46106974" lon="-0.39077866"><ele>26.0</ele><time>2022-11-06T12:45:42.0000000+00:00</time></trkpt><trkpt lat="39.46107921" lon="-0.39077237"><ele>26.0</ele><time>2022-11-06T12:45:43.0000000+00:00</time></trkpt><trkpt lat="39.4610741" lon="-0.39076835"><ele>26.0</ele><time>2022-11-06T12:45:44.0000000+00:00</time></trkpt><trkpt lat="39.46106999" lon="-0.39075829"><ele>26.0</ele><time>2022-11-06T12:45:45.0000000+00:00</time></trkpt><trkpt lat="39.46106278" lon="-0.39075008"><ele>26.0</ele><time>2022-11-06T12:45:46.0000000+00:00</time></trkpt><trkpt lat="39.461042" lon="-0.39074161"><ele>26.0</ele><time>2022-11-06T12:45:47.0000000+00:00</time></trkpt><trkpt lat="39.46102976" lon="-0.39072703"><ele>26.0</ele><time>2022-11-06T12:45:48.0000000+00:00</time></trkpt><trkpt lat="39.46101777" lon="-0.39071043"><ele>26.0</ele><time>2022-11-06T12:45:49.0000000+00:00</time></trkpt><trkpt lat="39.46100067" lon="-0.39068772"><ele>26.0</ele><time>2022-11-06T12:45:50.0000000+00:00</time></trkpt><trkpt lat="39.46099564" lon="-0.39068394"><ele>26.0</ele><time>2022-11-06T12:45:51.0000000+00:00</time></trkpt><trkpt lat="39.46098207" lon="-0.39067464"><ele>26.0</ele><time>2022-11-06T12:45:52.0000000+00:00</time></trkpt><trkpt lat="39.46099992" lon="-0.39069115"><ele>26.0</ele><time>2022-11-06T12:45:53.0000000+00:00</time></trkpt><trkpt lat="39.46097075" lon="-0.39065838"><ele>26.0</ele><time>2022-11-06T12:45:54.0000000+00:00</time></trkpt><trkpt lat="39.46096438" lon="-0.3906557"><ele>26.0</ele><time>2022-11-06T12:45:55.0000000+00:00</time></trkpt><trkpt lat="39.46097109" lon="-0.39066643"><ele>26.0</ele><time>2022-11-06T12:45:56.0000000+00:00</time></trkpt><trkpt lat="39.46094854" lon="-0.39067489"><ele>26.0</ele><time>2022-11-06T12:45:57.0000000+00:00</time></trkpt><trkpt lat="39.46095751" lon="-0.39069274"><ele>25.8</ele><time>2022-11-06T12:45:58.0000000+00:00</time></trkpt><trkpt lat="39.46096513" lon="-0.39070532"><ele>25.8</ele><time>2022-11-06T12:45:59.0000000+00:00</time></trkpt><trkpt lat="39.46096555" lon="-0.39069811"><ele>25.8</ele><time>2022-11-06T12:46:00.0000000+00:00</time></trkpt><trkpt lat="39.46096136" lon="-0.39066684"><ele>25.8</ele><time>2022-11-06T12:46:01.0000000+00:00</time></trkpt><trkpt lat="39.4609586" lon="-0.39060608"><ele>25.8</ele><time>2022-11-06T12:46:02.0000000+00:00</time></trkpt><trkpt lat="39.46095097" lon="-0.39058177"><ele>26.0</ele><time>2022-11-06T12:46:03.0000000+00:00</time></trkpt><trkpt lat="39.46094804" lon="-0.39057372"><ele>26.0</ele><time>2022-11-06T12:46:04.0000000+00:00</time></trkpt><trkpt lat="39.46093622" lon="-0.39056048"><ele>26.0</ele><time>2022-11-06T12:46:05.0000000+00:00</time></trkpt><trkpt lat="39.46092247" lon="-0.39055034"><ele>26.0</ele><time>2022-11-06T12:46:06.0000000+00:00</time></trkpt><trkpt lat="39.46092063" lon="-0.39054598"><ele>26.0</ele><time>2022-11-06T12:46:07.0000000+00:00</time></trkpt><trkpt lat="39.46091551" lon="-0.39053483"><ele>26.0</ele><time>2022-11-06T12:46:08.0000000+00:00</time></trkpt><trkpt lat="39.46092406" lon="-0.39054858"><ele>26.0</ele><time>2022-11-06T12:46:09.0000000+00:00</time></trkpt><trkpt lat="39.46093462" lon="-0.39056601"><ele>26.0</ele><time>2022-11-06T12:46:10.0000000+00:00</time></trkpt><trkpt lat="39.46093513" lon="-0.39057674"><ele>26.0</ele><time>2022-11-06T12:46:11.0000000+00:00</time></trkpt><trkpt lat="39.4609244" lon="-0.39058068"><ele>26.0</ele><time>2022-11-06T12:46:12.0000000+00:00</time></trkpt><trkpt lat="39.46090738" lon="-0.39057758"><ele>26.0</ele><time>2022-11-06T12:46:13.0000000+00:00</time></trkpt><trkpt lat="39.46090839" lon="-0.3905837"><ele>26.0</ele><time>2022-11-06T12:46:14.0000000+00:00</time></trkpt><trkpt lat="39.46089674" lon="-0.39057833"><ele>26.0</ele><time>2022-11-06T12:46:15.0000000+00:00</time></trkpt><trkpt lat="39.46089733" lon="-0.3905821"><ele>26.0</ele><time>2022-11-06T12:46:16.0000000+00:00</time></trkpt><trkpt lat="39.46089716" lon="-0.39058479"><ele>25.8</ele><time>2022-11-06T12:46:17.0000000+00:00</time></trkpt><trkpt lat="39.46088039" lon="-0.39057305"><ele>25.8</ele><time>2022-11-06T12:46:18.0000000+00:00</time></trkpt><trkpt lat="39.46086497" lon="-0.39056182"><ele>25.8</ele><time>2022-11-06T12:46:19.0000000+00:00</time></trkpt><trkpt lat="39.46085206" lon="-0.39055252"><ele>25.8</ele><time>2022-11-06T12:46:20.0000000+00:00</time></trkpt><trkpt lat="39.46084402" lon="-0.39055369"><ele>25.8</ele><time>2022-11-06T12:46:21.0000000+00:00</time></trkpt><trkpt lat="39.46083563" lon="-0.39056417"><ele>25.8</ele><time>2022-11-06T12:46:22.0000000+00:00</time></trkpt><trkpt lat="39.46084444" lon="-0.39057297"><ele>26.0</ele><time>2022-11-06T12:46:23.0000000+00:00</time></trkpt><trkpt lat="39.46084351" lon="-0.390578"><ele>26.0</ele><time>2022-11-06T12:46:24.0000000+00:00</time></trkpt><trkpt lat="39.46084645" lon="-0.39058395"><ele>26.0</ele><time>2022-11-06T12:46:25.0000000+00:00</time></trkpt><trkpt lat="39.46085265" lon="-0.39058294"><ele>26.0</ele><time>2022-11-06T12:46:26.0000000+00:00</time></trkpt><trkpt lat="39.46085843" lon="-0.39058152"><ele>26.0</ele><time>2022-11-06T12:46:27.0000000+00:00</time></trkpt><trkpt lat="39.46086053" lon="-0.3905878"><ele>25.8</ele><time>2022-11-06T12:46:28.0000000+00:00</time></trkpt><trkpt lat="39.4608612" lon="-0.39058495"><ele>26.0</ele><time>2022-11-06T12:46:29.0000000+00:00</time></trkpt><trkpt lat="39.46085877" lon="-0.39057724"><ele>25.8</ele><time>2022-11-06T12:46:30.0000000+00:00</time></trkpt><trkpt lat="39.46086447" lon="-0.39055637"><ele>25.8</ele><time>2022-11-06T12:46:31.0000000+00:00</time></trkpt><trkpt lat="39.46086832" lon="-0.39053089"><ele>25.8</ele><time>2022-11-06T12:46:32.0000000+00:00</time></trkpt><trkpt lat="39.46086346" lon="-0.39050541"><ele>25.8</ele><time>2022-11-06T12:46:33.0000000+00:00</time></trkpt><trkpt lat="39.46085684" lon="-0.39047674"><ele>25.8</ele><time>2022-11-06T12:46:34.0000000+00:00</time></trkpt><trkpt lat="39.46085072" lon="-0.39045537"><ele>25.8</ele><time>2022-11-06T12:46:35.0000000+00:00</time></trkpt><trkpt lat="39.4608462" lon="-0.39043609"><ele>25.8</ele><time>2022-11-06T12:46:36.0000000+00:00</time></trkpt><trkpt lat="39.46083664" lon="-0.39040843"><ele>25.8</ele><time>2022-11-06T12:46:37.0000000+00:00</time></trkpt><trkpt lat="39.46083052" lon="-0.39037532"><ele>25.8</ele><time>2022-11-06T12:46:38.0000000+00:00</time></trkpt><trkpt lat="39.46082482" lon="-0.39034297"><ele>25.8</ele><time>2022-11-06T12:46:39.0000000+00:00</time></trkpt><trkpt lat="39.46081242" lon="-0.39030936"><ele>25.8</ele><time>2022-11-06T12:46:40.0000000+00:00</time></trkpt><trkpt lat="39.46081258" lon="-0.39030852"><ele>26.0</ele><time>2022-11-06T12:46:41.0000000+00:00</time></trkpt><trkpt lat="39.46079708" lon="-0.39026988"><ele>26.0</ele><time>2022-11-06T12:46:42.0000000+00:00</time></trkpt><trkpt lat="39.46078945" lon="-0.39024071"><ele>26.0</ele><time>2022-11-06T12:46:43.0000000+00:00</time></trkpt><trkpt lat="39.46077428" lon="-0.39021154"><ele>26.0</ele><time>2022-11-06T12:46:44.0000000+00:00</time></trkpt><trkpt lat="39.46075802" lon="-0.39019503"><ele>26.0</ele><time>2022-11-06T12:46:45.0000000+00:00</time></trkpt><trkpt lat="39.4607431" lon="-0.39018212"><ele>26.0</ele><time>2022-11-06T12:46:46.0000000+00:00</time></trkpt><trkpt lat="39.46073472" lon="-0.39017147"><ele>26.0</ele><time>2022-11-06T12:46:47.0000000+00:00</time></trkpt><trkpt lat="39.46072063" lon="-0.39015454"><ele>26.0</ele><time>2022-11-06T12:46:48.0000000+00:00</time></trkpt><trkpt lat="39.46069809" lon="-0.39013652"><ele>26.0</ele><time>2022-11-06T12:46:49.0000000+00:00</time></trkpt><trkpt lat="39.46068342" lon="-0.39011607"><ele>26.0</ele><time>2022-11-06T12:46:50.0000000+00:00</time></trkpt><trkpt lat="39.46067621" lon="-0.39009394"><ele>26.0</ele><time>2022-11-06T12:46:51.0000000+00:00</time></trkpt><trkpt lat="39.46067487" lon="-0.39006653"><ele>26.0</ele><time>2022-11-06T12:46:52.0000000+00:00</time></trkpt><trkpt lat="39.46067537" lon="-0.39005723"><ele>26.0</ele><time>2022-11-06T12:46:53.0000000+00:00</time></trkpt><trkpt lat="39.46067319" lon="-0.39005522"><ele>26.0</ele><time>2022-11-06T12:46:54.0000000+00:00</time></trkpt><trkpt lat="39.46065752" lon="-0.39003954"><ele>26.0</ele><time>2022-11-06T12:46:55.0000000+00:00</time></trkpt><trkpt lat="39.46064042" lon="-0.39001926"><ele>25.8</ele><time>2022-11-06T12:46:56.0000000+00:00</time></trkpt><trkpt lat="39.46061871" lon="-0.38999696"><ele>25.8</ele><time>2022-11-06T12:46:57.0000000+00:00</time></trkpt><trkpt lat="39.46059734" lon="-0.38997316"><ele>25.8</ele><time>2022-11-06T12:46:58.0000000+00:00</time></trkpt><trkpt lat="39.46058208" lon="-0.38995623"><ele>25.8</ele><time>2022-11-06T12:46:59.0000000+00:00</time></trkpt><trkpt lat="39.4605711" lon="-0.3899398"><ele>25.8</ele><time>2022-11-06T12:47:00.0000000+00:00</time></trkpt><trkpt lat="39.46055995" lon="-0.38993041"><ele>25.8</ele><time>2022-11-06T12:47:01.0000000+00:00</time></trkpt><trkpt lat="39.46054009" lon="-0.38991189"><ele>25.8</ele><time>2022-11-06T12:47:02.0000000+00:00</time></trkpt><trkpt lat="39.460525" lon="-0.38989931"><ele>25.8</ele><time>2022-11-06T12:47:03.0000000+00:00</time></trkpt><trkpt lat="39.46050933" lon="-0.38987735"><ele>25.8</ele><time>2022-11-06T12:47:04.0000000+00:00</time></trkpt><trkpt lat="39.46049097" lon="-0.38985782"><ele>25.8</ele><time>2022-11-06T12:47:05.0000000+00:00</time></trkpt><trkpt lat="39.46047446" lon="-0.38984131"><ele>25.8</ele><time>2022-11-06T12:47:06.0000000+00:00</time></trkpt><trkpt lat="39.46045694" lon="-0.38982983"><ele>25.6</ele><time>2022-11-06T12:47:07.0000000+00:00</time></trkpt><trkpt lat="39.46045619" lon="-0.38982933"><ele>25.8</ele><time>2022-11-06T12:47:08.0000000+00:00</time></trkpt><trkpt lat="39.46044764" lon="-0.38981223"><ele>25.8</ele><time>2022-11-06T12:47:09.0000000+00:00</time></trkpt><trkpt lat="39.46042878" lon="-0.38979035"><ele>25.8</ele><time>2022-11-06T12:47:10.0000000+00:00</time></trkpt><trkpt lat="39.46041562" lon="-0.38978096"><ele>25.8</ele><time>2022-11-06T12:47:11.0000000+00:00</time></trkpt><trkpt lat="39.46040338" lon="-0.38976864"><ele>25.8</ele><time>2022-11-06T12:47:12.0000000+00:00</time></trkpt><trkpt lat="39.46038972" lon="-0.38976654"><ele>25.8</ele><time>2022-11-06T12:47:13.0000000+00:00</time></trkpt><trkpt lat="39.46038234" lon="-0.38977493"><ele>25.8</ele><time>2022-11-06T12:47:14.0000000+00:00</time></trkpt><trkpt lat="39.46037052" lon="-0.3897787"><ele>25.8</ele><time>2022-11-06T12:47:15.0000000+00:00</time></trkpt><trkpt lat="39.46035686" lon="-0.38978004"><ele>25.8</ele><time>2022-11-06T12:47:16.0000000+00:00</time></trkpt><trkpt lat="39.4603525" lon="-0.3897823"><ele>25.8</ele><time>2022-11-06T12:47:17.0000000+00:00</time></trkpt><trkpt lat="39.46033901" lon="-0.38977493"><ele>25.8</ele><time>2022-11-06T12:47:18.0000000+00:00</time></trkpt><trkpt lat="39.4603318" lon="-0.38977157"><ele>25.8</ele><time>2022-11-06T12:47:19.0000000+00:00</time></trkpt><trkpt lat="39.46031688" lon="-0.38975816"><ele>25.8</ele><time>2022-11-06T12:47:20.0000000+00:00</time></trkpt><trkpt lat="39.46029835" lon="-0.38975146"><ele>25.8</ele><time>2022-11-06T12:47:21.0000000+00:00</time></trkpt><trkpt lat="39.46027866" lon="-0.38974182"><ele>25.8</ele><time>2022-11-06T12:47:22.0000000+00:00</time></trkpt><trkpt lat="39.4602639" lon="-0.38974023"><ele>25.8</ele><time>2022-11-06T12:47:23.0000000+00:00</time></trkpt><trkpt lat="39.46024714" lon="-0.3897445"><ele>26.0</ele><time>2022-11-06T12:47:24.0000000+00:00</time></trkpt><trkpt lat="39.46023172" lon="-0.38974727"><ele>25.8</ele><time>2022-11-06T12:47:25.0000000+00:00</time></trkpt><trkpt lat="39.46021789" lon="-0.38975431"><ele>26.0</ele><time>2022-11-06T12:47:26.0000000+00:00</time></trkpt><trkpt lat="39.46020515" lon="-0.38976143"><ele>25.8</ele><time>2022-11-06T12:47:27.0000000+00:00</time></trkpt><trkpt lat="39.46019207" lon="-0.38976805"><ele>25.8</ele><time>2022-11-06T12:47:28.0000000+00:00</time></trkpt><trkpt lat="39.46017824" lon="-0.38977241"><ele>26.0</ele><time>2022-11-06T12:47:29.0000000+00:00</time></trkpt><trkpt lat="39.46016567" lon="-0.38978373"><ele>26.0</ele><time>2022-11-06T12:47:30.0000000+00:00</time></trkpt><trkpt lat="39.46015041" lon="-0.3897875"><ele>26.0</ele><time>2022-11-06T12:47:31.0000000+00:00</time></trkpt><trkpt lat="39.46013591" lon="-0.38979856"><ele>26.0</ele><time>2022-11-06T12:47:32.0000000+00:00</time></trkpt><trkpt lat="39.46013306" lon="-0.38982136"><ele>26.0</ele><time>2022-11-06T12:47:33.0000000+00:00</time></trkpt><trkpt lat="39.46012812" lon="-0.38984139"><ele>26.0</ele><time>2022-11-06T12:47:34.0000000+00:00</time></trkpt><trkpt lat="39.46011672" lon="-0.38985891"><ele>26.0</ele><time>2022-11-06T12:47:35.0000000+00:00</time></trkpt><trkpt lat="39.46010004" lon="-0.3898704"><ele>26.0</ele><time>2022-11-06T12:47:36.0000000+00:00</time></trkpt><trkpt lat="39.46008126" lon="-0.38987425"><ele>25.8</ele><time>2022-11-06T12:47:37.0000000+00:00</time></trkpt><trkpt lat="39.46007682" lon="-0.38988012"><ele>25.8</ele><time>2022-11-06T12:47:38.0000000+00:00</time></trkpt><trkpt lat="39.46006022" lon="-0.38988272"><ele>25.8</ele><time>2022-11-06T12:47:39.0000000+00:00</time></trkpt><trkpt lat="39.46004413" lon="-0.38989135"><ele>25.8</ele><time>2022-11-06T12:47:40.0000000+00:00</time></trkpt><trkpt lat="39.46002368" lon="-0.38989663"><ele>25.8</ele><time>2022-11-06T12:47:41.0000000+00:00</time></trkpt><trkpt lat="39.46000826" lon="-0.389903"><ele>25.8</ele><time>2022-11-06T12:47:42.0000000+00:00</time></trkpt><trkpt lat="39.45999778" lon="-0.38990225"><ele>25.8</ele><time>2022-11-06T12:47:43.0000000+00:00</time></trkpt><trkpt lat="39.45999225" lon="-0.38990334"><ele>25.8</ele><time>2022-11-06T12:47:44.0000000+00:00</time></trkpt><trkpt lat="39.45997951" lon="-0.38989973"><ele>25.8</ele><time>2022-11-06T12:47:45.0000000+00:00</time></trkpt><trkpt lat="39.45996811" lon="-0.3898911"><ele>25.8</ele><time>2022-11-06T12:47:46.0000000+00:00</time></trkpt><trkpt lat="39.45995604" lon="-0.38988909"><ele>25.8</ele><time>2022-11-06T12:47:47.0000000+00:00</time></trkpt><trkpt lat="39.45993927" lon="-0.38989227"><ele>25.8</ele><time>2022-11-06T12:47:48.0000000+00:00</time></trkpt><trkpt lat="39.45991312" lon="-0.38989445"><ele>25.8</ele><time>2022-11-06T12:47:49.0000000+00:00</time></trkpt><trkpt lat="39.45988957" lon="-0.3898916"><ele>26.0</ele><time>2022-11-06T12:47:50.0000000+00:00</time></trkpt><trkpt lat="39.45987163" lon="-0.38988741"><ele>26.0</ele><time>2022-11-06T12:47:51.0000000+00:00</time></trkpt><trkpt lat="39.45985839" lon="-0.38988875"><ele>26.0</ele><time>2022-11-06T12:47:52.0000000+00:00</time></trkpt><trkpt lat="39.45985579" lon="-0.38988666"><ele>26.0</ele><time>2022-11-06T12:47:53.0000000+00:00</time></trkpt><trkpt lat="39.45984984" lon="-0.3899004"><ele>26.0</ele><time>2022-11-06T12:47:54.0000000+00:00</time></trkpt><trkpt lat="39.45983249" lon="-0.38989688"><ele>26.0</ele><time>2022-11-06T12:47:55.0000000+00:00</time></trkpt><trkpt lat="39.45981606" lon="-0.38989311"><ele>26.0</ele><time>2022-11-06T12:47:56.0000000+00:00</time></trkpt><trkpt lat="39.45980407" lon="-0.38989395"><ele>26.0</ele><time>2022-11-06T12:47:57.0000000+00:00</time></trkpt><trkpt lat="39.459792" lon="-0.38989998"><ele>26.0</ele><time>2022-11-06T12:47:58.0000000+00:00</time></trkpt><trkpt lat="39.45978496" lon="-0.38991524"><ele>26.0</ele><time>2022-11-06T12:47:59.0000000+00:00</time></trkpt><trkpt lat="39.45979477" lon="-0.38993863"><ele>26.0</ele><time>2022-11-06T12:48:00.0000000+00:00</time></trkpt><trkpt lat="39.4597936" lon="-0.38995296"><ele>26.0</ele><time>2022-11-06T12:48:01.0000000+00:00</time></trkpt><trkpt lat="39.45978412" lon="-0.38996109"><ele>26.0</ele><time>2022-11-06T12:48:02.0000000+00:00</time></trkpt><trkpt lat="39.45977331" lon="-0.38996168"><ele>25.8</ele><time>2022-11-06T12:48:03.0000000+00:00</time></trkpt><trkpt lat="39.45975931" lon="-0.38996159"><ele>25.8</ele><time>2022-11-06T12:48:04.0000000+00:00</time></trkpt><trkpt lat="39.45974775" lon="-0.38997601"><ele>25.8</ele><time>2022-11-06T12:48:05.0000000+00:00</time></trkpt><trkpt lat="39.45973274" lon="-0.38997375"><ele>25.8</ele><time>2022-11-06T12:48:06.0000000+00:00</time></trkpt><trkpt lat="39.45971388" lon="-0.38996846"><ele>25.8</ele><time>2022-11-06T12:48:07.0000000+00:00</time></trkpt><trkpt lat="39.45969863" lon="-0.38996385"><ele>25.8</ele><time>2022-11-06T12:48:08.0000000+00:00</time></trkpt><trkpt lat="39.45968765" lon="-0.38996654"><ele>25.8</ele><time>2022-11-06T12:48:09.0000000+00:00</time></trkpt><trkpt lat="39.4596791" lon="-0.38996721"><ele>25.8</ele><time>2022-11-06T12:48:10.0000000+00:00</time></trkpt><trkpt lat="39.45967248" lon="-0.38996955"><ele>25.8</ele><time>2022-11-06T12:48:11.0000000+00:00</time></trkpt><trkpt lat="39.45966787" lon="-0.38997534"><ele>25.8</ele><time>2022-11-06T12:48:12.0000000+00:00</time></trkpt><trkpt lat="39.45965806" lon="-0.38997836"><ele>25.8</ele><time>2022-11-06T12:48:13.0000000+00:00</time></trkpt><trkpt lat="39.4596501" lon="-0.38998397"><ele>25.8</ele><time>2022-11-06T12:48:14.0000000+00:00</time></trkpt><trkpt lat="39.45963828" lon="-0.38999386"><ele>25.8</ele><time>2022-11-06T12:48:15.0000000+00:00</time></trkpt><trkpt lat="39.45963057" lon="-0.38999747"><ele>25.8</ele><time>2022-11-06T12:48:16.0000000+00:00</time></trkpt><trkpt lat="39.45962495" lon="-0.39000317"><ele>25.8</ele><time>2022-11-06T12:48:17.0000000+00:00</time></trkpt><trkpt lat="39.45960928" lon="-0.39000845"><ele>25.8</ele><time>2022-11-06T12:48:18.0000000+00:00</time></trkpt><trkpt lat="39.45959922" lon="-0.39002094"><ele>25.8</ele><time>2022-11-06T12:48:19.0000000+00:00</time></trkpt><trkpt lat="39.45958472" lon="-0.39002471"><ele>26.0</ele><time>2022-11-06T12:48:20.0000000+00:00</time></trkpt><trkpt lat="39.45956988" lon="-0.39002571"><ele>26.0</ele><time>2022-11-06T12:48:21.0000000+00:00</time></trkpt><trkpt lat="39.45956142" lon="-0.39003342"><ele>26.0</ele><time>2022-11-06T12:48:22.0000000+00:00</time></trkpt><trkpt lat="39.45955228" lon="-0.39004063"><ele>25.8</ele><time>2022-11-06T12:48:23.0000000+00:00</time></trkpt><trkpt lat="39.45954273" lon="-0.39004977"><ele>26.0</ele><time>2022-11-06T12:48:24.0000000+00:00</time></trkpt><trkpt lat="39.45953317" lon="-0.39005815"><ele>26.0</ele><time>2022-11-06T12:48:25.0000000+00:00</time></trkpt><trkpt lat="39.45952462" lon="-0.39006586"><ele>26.0</ele><time>2022-11-06T12:48:26.0000000+00:00</time></trkpt><trkpt lat="39.45951792" lon="-0.39006435"><ele>26.0</ele><time>2022-11-06T12:48:27.0000000+00:00</time></trkpt><trkpt lat="39.45951071" lon="-0.39005723"><ele>26.0</ele><time>2022-11-06T12:48:28.0000000+00:00</time></trkpt><trkpt lat="39.45950082" lon="-0.39005404"><ele>26.0</ele><time>2022-11-06T12:48:29.0000000+00:00</time></trkpt><trkpt lat="39.45949621" lon="-0.39006251"><ele>26.0</ele><time>2022-11-06T12:48:30.0000000+00:00</time></trkpt><trkpt lat="39.45949277" lon="-0.39007927"><ele>26.0</ele><time>2022-11-06T12:48:31.0000000+00:00</time></trkpt><trkpt lat="39.45948388" lon="-0.39008908"><ele>25.8</ele><time>2022-11-06T12:48:32.0000000+00:00</time></trkpt><trkpt lat="39.45947265" lon="-0.39009553"><ele>26.0</ele><time>2022-11-06T12:48:33.0000000+00:00</time></trkpt><trkpt lat="39.45945907" lon="-0.39009654"><ele>26.0</ele><time>2022-11-06T12:48:34.0000000+00:00</time></trkpt><trkpt lat="39.45945396" lon="-0.39010568"><ele>25.8</ele><time>2022-11-06T12:48:35.0000000+00:00</time></trkpt><trkpt lat="39.45945488" lon="-0.39011758"><ele>26.0</ele><time>2022-11-06T12:48:36.0000000+00:00</time></trkpt><trkpt lat="39.45945446" lon="-0.3901237"><ele>26.0</ele><time>2022-11-06T12:48:37.0000000+00:00</time></trkpt><trkpt lat="39.45945094" lon="-0.39012755"><ele>26.0</ele><time>2022-11-06T12:48:38.0000000+00:00</time></trkpt><trkpt lat="39.45945262" lon="-0.39013853"><ele>26.0</ele><time>2022-11-06T12:48:39.0000000+00:00</time></trkpt><trkpt lat="39.45945371" lon="-0.39014951"><ele>26.0</ele><time>2022-11-06T12:48:40.0000000+00:00</time></trkpt><trkpt lat="39.45944441" lon="-0.3901579"><ele>26.0</ele><time>2022-11-06T12:48:41.0000000+00:00</time></trkpt><trkpt lat="39.4594315" lon="-0.39015899"><ele>26.0</ele><time>2022-11-06T12:48:42.0000000+00:00</time></trkpt><trkpt lat="39.45941457" lon="-0.39015639"><ele>26.0</ele><time>2022-11-06T12:48:43.0000000+00:00</time></trkpt><trkpt lat="39.4593999" lon="-0.39015647"><ele>26.0</ele><time>2022-11-06T12:48:44.0000000+00:00</time></trkpt><trkpt lat="39.45939646" lon="-0.39015513"><ele>26.0</ele><time>2022-11-06T12:48:45.0000000+00:00</time></trkpt><trkpt lat="39.4593895" lon="-0.39015982"><ele>26.0</ele><time>2022-11-06T12:48:46.0000000+00:00</time></trkpt><trkpt lat="39.45938867" lon="-0.39016041"><ele>26.0</ele><time>2022-11-06T12:48:47.0000000+00:00</time></trkpt><trkpt lat="39.45939437" lon="-0.39017466"><ele>26.0</ele><time>2022-11-06T12:48:48.0000000+00:00</time></trkpt><trkpt lat="39.45939772" lon="-0.39017751"><ele>26.0</ele><time>2022-11-06T12:48:49.0000000+00:00</time></trkpt><trkpt lat="39.45940233" lon="-0.39017944"><ele>26.0</ele><time>2022-11-06T12:48:50.0000000+00:00</time></trkpt><trkpt lat="39.45940023" lon="-0.39017919"><ele>26.0</ele><time>2022-11-06T12:48:51.0000000+00:00</time></trkpt><trkpt lat="39.45939462" lon="-0.39017977"><ele>26.0</ele><time>2022-11-06T12:48:52.0000000+00:00</time></trkpt><trkpt lat="39.45938498" lon="-0.39017323"><ele>25.8</ele><time>2022-11-06T12:48:53.0000000+00:00</time></trkpt><trkpt lat="39.45937584" lon="-0.39016753"><ele>25.8</ele><time>2022-11-06T12:48:54.0000000+00:00</time></trkpt><trkpt lat="39.45936847" lon="-0.39015907"><ele>25.8</ele><time>2022-11-06T12:48:55.0000000+00:00</time></trkpt><trkpt lat="39.4593605" lon="-0.39015186"><ele>25.6</ele><time>2022-11-06T12:48:56.0000000+00:00</time></trkpt><trkpt lat="39.45934751" lon="-0.3901465"><ele>25.4</ele><time>2022-11-06T12:48:57.0000000+00:00</time></trkpt><trkpt lat="39.45933611" lon="-0.39014448"><ele>25.4</ele><time>2022-11-06T12:48:58.0000000+00:00</time></trkpt><trkpt lat="39.45934122" lon="-0.39015438"><ele>25.4</ele><time>2022-11-06T12:48:59.0000000+00:00</time></trkpt><trkpt lat="39.45934324" lon="-0.39016276"><ele>25.4</ele><time>2022-11-06T12:49:00.0000000+00:00</time></trkpt><trkpt lat="39.45934651" lon="-0.39016443"><ele>25.6</ele><time>2022-11-06T12:49:01.0000000+00:00</time></trkpt><trkpt lat="39.45934458" lon="-0.39015957"><ele>25.8</ele><time>2022-11-06T12:49:02.0000000+00:00</time></trkpt><trkpt lat="39.45934273" lon="-0.3901418"><ele>25.8</ele><time>2022-11-06T12:49:03.0000000+00:00</time></trkpt><trkpt lat="39.45933519" lon="-0.39012831"><ele>26.0</ele><time>2022-11-06T12:49:04.0000000+00:00</time></trkpt><trkpt lat="39.45933066" lon="-0.39011506"><ele>26.0</ele><time>2022-11-06T12:49:05.0000000+00:00</time></trkpt><trkpt lat="39.45932454" lon="-0.39010492"><ele>26.0</ele><time>2022-11-06T12:49:06.0000000+00:00</time></trkpt><trkpt lat="39.45930778" lon="-0.39008874"><ele>25.6</ele><time>2022-11-06T12:49:07.0000000+00:00</time></trkpt><trkpt lat="39.45929538" lon="-0.39007114"><ele>25.4</ele><time>2022-11-06T12:49:08.0000000+00:00</time></trkpt><trkpt lat="39.45928951" lon="-0.39004969"><ele>25.4</ele><time>2022-11-06T12:49:09.0000000+00:00</time></trkpt><trkpt lat="39.45928884" lon="-0.39002923"><ele>25.2</ele><time>2022-11-06T12:49:10.0000000+00:00</time></trkpt><trkpt lat="39.45928951" lon="-0.39001029"><ele>25.2</ele><time>2022-11-06T12:49:11.0000000+00:00</time></trkpt><trkpt lat="39.45928926" lon="-0.38999596"><ele>25.2</ele><time>2022-11-06T12:49:12.0000000+00:00</time></trkpt><trkpt lat="39.4592906" lon="-0.3899833"><ele>25.2</ele><time>2022-11-06T12:49:13.0000000+00:00</time></trkpt><trkpt lat="39.45929336" lon="-0.38996997"><ele>25.2</ele><time>2022-11-06T12:49:14.0000000+00:00</time></trkpt><trkpt lat="39.45929521" lon="-0.38995447"><ele>25.2</ele><time>2022-11-06T12:49:15.0000000+00:00</time></trkpt><trkpt lat="39.45928616" lon="-0.3899372"><ele>25.0</ele><time>2022-11-06T12:49:16.0000000+00:00</time></trkpt><trkpt lat="39.4592901" lon="-0.38991407"><ele>25.0</ele><time>2022-11-06T12:49:17.0000000+00:00</time></trkpt><trkpt lat="39.45929152" lon="-0.38990325"><ele>25.0</ele><time>2022-11-06T12:49:18.0000000+00:00</time></trkpt><trkpt lat="39.45928909" lon="-0.38989085"><ele>25.2</ele><time>2022-11-06T12:49:19.0000000+00:00</time></trkpt><trkpt lat="39.45928498" lon="-0.38987836"><ele>25.2</ele><time>2022-11-06T12:49:20.0000000+00:00</time></trkpt><trkpt lat="39.45928657" lon="-0.38986579"><ele>25.2</ele><time>2022-11-06T12:49:21.0000000+00:00</time></trkpt><trkpt lat="39.45929211" lon="-0.38985179"><ele>25.2</ele><time>2022-11-06T12:49:22.0000000+00:00</time></trkpt><trkpt lat="39.45928875" lon="-0.38983871"><ele>25.2</ele><time>2022-11-06T12:49:23.0000000+00:00</time></trkpt><trkpt lat="39.45928683" lon="-0.38983016"><ele>25.2</ele><time>2022-11-06T12:49:24.0000000+00:00</time></trkpt><trkpt lat="39.45928481" lon="-0.3898139"><ele>25.2</ele><time>2022-11-06T12:49:25.0000000+00:00</time></trkpt><trkpt lat="39.45927744" lon="-0.38979286"><ele>25.2</ele><time>2022-11-06T12:49:26.0000000+00:00</time></trkpt><trkpt lat="39.4592559" lon="-0.38977342"><ele>25.2</ele><time>2022-11-06T12:49:27.0000000+00:00</time></trkpt><trkpt lat="39.45923712" lon="-0.38975732"><ele>25.2</ele><time>2022-11-06T12:49:28.0000000+00:00</time></trkpt><trkpt lat="39.45923016" lon="-0.38974408"><ele>25.2</ele><time>2022-11-06T12:49:29.0000000+00:00</time></trkpt><trkpt lat="39.45922648" lon="-0.38972891"><ele>25.2</ele><time>2022-11-06T12:49:30.0000000+00:00</time></trkpt><trkpt lat="39.45922446" lon="-0.38971474"><ele>25.2</ele><time>2022-11-06T12:49:31.0000000+00:00</time></trkpt><trkpt lat="39.45922514" lon="-0.3896984"><ele>25.2</ele><time>2022-11-06T12:49:32.0000000+00:00</time></trkpt><trkpt lat="39.45922103" lon="-0.38968482"><ele>25.2</ele><time>2022-11-06T12:49:33.0000000+00:00</time></trkpt><trkpt lat="39.45921692" lon="-0.38967602"><ele>25.2</ele><time>2022-11-06T12:49:34.0000000+00:00</time></trkpt><trkpt lat="39.45921231" lon="-0.3896642"><ele>25.2</ele><time>2022-11-06T12:49:35.0000000+00:00</time></trkpt><trkpt lat="39.45920334" lon="-0.38965364"><ele>25.2</ele><time>2022-11-06T12:49:36.0000000+00:00</time></trkpt><trkpt lat="39.45919228" lon="-0.38964593"><ele>25.2</ele><time>2022-11-06T12:49:37.0000000+00:00</time></trkpt><trkpt lat="39.45918758" lon="-0.38963646"><ele>25.2</ele><time>2022-11-06T12:49:38.0000000+00:00</time></trkpt><trkpt lat="39.45918272" lon="-0.38962623"><ele>25.4</ele><time>2022-11-06T12:49:39.0000000+00:00</time></trkpt><trkpt lat="39.45917434" lon="-0.38960947"><ele>25.4</ele><time>2022-11-06T12:49:40.0000000+00:00</time></trkpt><trkpt lat="39.45917434" lon="-0.38959631"><ele>25.4</ele><time>2022-11-06T12:49:41.0000000+00:00</time></trkpt><trkpt lat="39.4591751" lon="-0.38958441"><ele>25.6</ele><time>2022-11-06T12:49:42.0000000+00:00</time></trkpt><trkpt lat="39.45917401" lon="-0.38957619"><ele>25.6</ele><time>2022-11-06T12:49:43.0000000+00:00</time></trkpt><trkpt lat="39.45917535" lon="-0.38956923"><ele>25.6</ele><time>2022-11-06T12:49:44.0000000+00:00</time></trkpt><trkpt lat="39.45917124" lon="-0.38956286"><ele>25.6</ele><time>2022-11-06T12:49:45.0000000+00:00</time></trkpt><trkpt lat="39.45917049" lon="-0.38955364"><ele>25.8</ele><time>2022-11-06T12:49:46.0000000+00:00</time></trkpt><trkpt lat="39.45916738" lon="-0.38954568"><ele>25.8</ele><time>2022-11-06T12:49:47.0000000+00:00</time></trkpt><trkpt lat="39.45916395" lon="-0.38953906"><ele>25.8</ele><time>2022-11-06T12:49:48.0000000+00:00</time></trkpt><trkpt lat="39.45916034" lon="-0.38952934"><ele>25.8</ele><time>2022-11-06T12:49:49.0000000+00:00</time></trkpt><trkpt lat="39.45916336" lon="-0.38951936"><ele>25.8</ele><time>2022-11-06T12:49:50.0000000+00:00</time></trkpt><trkpt lat="39.45917015" lon="-0.38950604"><ele>25.6</ele><time>2022-11-06T12:49:51.0000000+00:00</time></trkpt><trkpt lat="39.45916973" lon="-0.38949288"><ele>25.6</ele><time>2022-11-06T12:49:52.0000000+00:00</time></trkpt><trkpt lat="39.45916789" lon="-0.38947913"><ele>25.6</ele><time>2022-11-06T12:49:53.0000000+00:00</time></trkpt><trkpt lat="39.45917711" lon="-0.38945247"><ele>25.6</ele><time>2022-11-06T12:49:54.0000000+00:00</time></trkpt><trkpt lat="39.45919228" lon="-0.38942733"><ele>25.6</ele><time>2022-11-06T12:49:55.0000000+00:00</time></trkpt><trkpt lat="39.45919748" lon="-0.38940813"><ele>25.6</ele><time>2022-11-06T12:49:56.0000000+00:00</time></trkpt><trkpt lat="39.45919672" lon="-0.38939481"><ele>25.4</ele><time>2022-11-06T12:49:57.0000000+00:00</time></trkpt><trkpt lat="39.4591927" lon="-0.38937888"><ele>25.4</ele><time>2022-11-06T12:49:58.0000000+00:00</time></trkpt><trkpt lat="39.45918742" lon="-0.38936698"><ele>25.4</ele><time>2022-11-06T12:49:59.0000000+00:00</time></trkpt><trkpt lat="39.45918247" lon="-0.38935826"><ele>25.4</ele><time>2022-11-06T12:50:00.0000000+00:00</time></trkpt><trkpt lat="39.4591818" lon="-0.38934661"><ele>25.4</ele><time>2022-11-06T12:50:01.0000000+00:00</time></trkpt><trkpt lat="39.45917753" lon="-0.38933446"><ele>25.4</ele><time>2022-11-06T12:50:02.0000000+00:00</time></trkpt><trkpt lat="39.45917937" lon="-0.38932675"><ele>25.2</ele><time>2022-11-06T12:50:03.0000000+00:00</time></trkpt><trkpt lat="39.45919094" lon="-0.3893156"><ele>25.2</ele><time>2022-11-06T12:50:04.0000000+00:00</time></trkpt><trkpt lat="39.45919002" lon="-0.38930764"><ele>25.2</ele><time>2022-11-06T12:50:05.0000000+00:00</time></trkpt><trkpt lat="39.45918641" lon="-0.38929305"><ele>25.2</ele><time>2022-11-06T12:50:06.0000000+00:00</time></trkpt><trkpt lat="39.45917828" lon="-0.38927687"><ele>25.2</ele><time>2022-11-06T12:50:07.0000000+00:00</time></trkpt><trkpt lat="39.4591652" lon="-0.3892664"><ele>25.2</ele><time>2022-11-06T12:50:08.0000000+00:00</time></trkpt><trkpt lat="39.45916093" lon="-0.38925516"><ele>25.2</ele><time>2022-11-06T12:50:09.0000000+00:00</time></trkpt><trkpt lat="39.459159" lon="-0.38924209"><ele>25.2</ele><time>2022-11-06T12:50:10.0000000+00:00</time></trkpt><trkpt lat="39.45915791" lon="-0.38922926"><ele>25.0</ele><time>2022-11-06T12:50:11.0000000+00:00</time></trkpt><trkpt lat="39.45915716" lon="-0.38921242"><ele>25.0</ele><time>2022-11-06T12:50:12.0000000+00:00</time></trkpt><trkpt lat="39.4591549" lon="-0.38919272"><ele>25.0</ele><time>2022-11-06T12:50:13.0000000+00:00</time></trkpt><trkpt lat="39.45914685" lon="-0.38916422"><ele>25.0</ele><time>2022-11-06T12:50:14.0000000+00:00</time></trkpt><trkpt lat="39.45914308" lon="-0.38914"><ele>25.0</ele><time>2022-11-06T12:50:15.0000000+00:00</time></trkpt><trkpt lat="39.45914039" lon="-0.38912181"><ele>25.0</ele><time>2022-11-06T12:50:16.0000000+00:00</time></trkpt><trkpt lat="39.45913704" lon="-0.38911167"><ele>25.0</ele><time>2022-11-06T12:50:17.0000000+00:00</time></trkpt><trkpt lat="39.45912606" lon="-0.38909457"><ele>25.0</ele><time>2022-11-06T12:50:18.0000000+00:00</time></trkpt><trkpt lat="39.45911785" lon="-0.38907076"><ele>25.0</ele><time>2022-11-06T12:50:19.0000000+00:00</time></trkpt><trkpt lat="39.45911743" lon="-0.38905392"><ele>25.0</ele><time>2022-11-06T12:50:20.0000000+00:00</time></trkpt><trkpt lat="39.45912204" lon="-0.38903086"><ele>25.0</ele><time>2022-11-06T12:50:21.0000000+00:00</time></trkpt><trkpt lat="39.45911709" lon="-0.3890136"><ele>25.0</ele><time>2022-11-06T12:50:22.0000000+00:00</time></trkpt><trkpt lat="39.45909983" lon="-0.38899818"><ele>25.0</ele><time>2022-11-06T12:50:23.0000000+00:00</time></trkpt><trkpt lat="39.45908105" lon="-0.38898376"><ele>25.0</ele><time>2022-11-06T12:50:24.0000000+00:00</time></trkpt><trkpt lat="39.45906236" lon="-0.3889706"><ele>25.0</ele><time>2022-11-06T12:50:25.0000000+00:00</time></trkpt><trkpt lat="39.45903763" lon="-0.38896364"><ele>25.0</ele><time>2022-11-06T12:50:26.0000000+00:00</time></trkpt><trkpt lat="39.45901525" lon="-0.38896415"><ele>25.0</ele><time>2022-11-06T12:50:27.0000000+00:00</time></trkpt><trkpt lat="39.45899799" lon="-0.38897194"><ele>25.2</ele><time>2022-11-06T12:50:28.0000000+00:00</time></trkpt><trkpt lat="39.45898575" lon="-0.38898493"><ele>25.2</ele><time>2022-11-06T12:50:29.0000000+00:00</time></trkpt><trkpt lat="39.45897418" lon="-0.38899625"><ele>25.2</ele><time>2022-11-06T12:50:30.0000000+00:00</time></trkpt><trkpt lat="39.45896287" lon="-0.38899876"><ele>25.2</ele><time>2022-11-06T12:50:31.0000000+00:00</time></trkpt><trkpt lat="39.45895641" lon="-0.38900656"><ele>25.2</ele><time>2022-11-06T12:50:32.0000000+00:00</time></trkpt><trkpt lat="39.45894308" lon="-0.38900723"><ele>25.2</ele><time>2022-11-06T12:50:33.0000000+00:00</time></trkpt><trkpt lat="39.45891643" lon="-0.38900916"><ele>25.2</ele><time>2022-11-06T12:50:34.0000000+00:00</time></trkpt><trkpt lat="39.45889648" lon="-0.38901276"><ele>25.2</ele><time>2022-11-06T12:50:35.0000000+00:00</time></trkpt><trkpt lat="39.45888466" lon="-0.38902357"><ele>25.2</ele><time>2022-11-06T12:50:36.0000000+00:00</time></trkpt><trkpt lat="39.45887486" lon="-0.38903254"><ele>25.2</ele><time>2022-11-06T12:50:37.0000000+00:00</time></trkpt><trkpt lat="39.45886823" lon="-0.38904017"><ele>25.2</ele><time>2022-11-06T12:50:38.0000000+00:00</time></trkpt><trkpt lat="39.45886044" lon="-0.38904788"><ele>25.2</ele><time>2022-11-06T12:50:39.0000000+00:00</time></trkpt><trkpt lat="39.45885449" lon="-0.3890535"><ele>25.4</ele><time>2022-11-06T12:50:40.0000000+00:00</time></trkpt><trkpt lat="39.45885063" lon="-0.38906422"><ele>25.4</ele><time>2022-11-06T12:50:41.0000000+00:00</time></trkpt><trkpt lat="39.45884074" lon="-0.38906741"><ele>25.4</ele><time>2022-11-06T12:50:42.0000000+00:00</time></trkpt><trkpt lat="39.4588342" lon="-0.38907076"><ele>25.4</ele><time>2022-11-06T12:50:43.0000000+00:00</time></trkpt><trkpt lat="39.45882632" lon="-0.38908107"><ele>25.4</ele><time>2022-11-06T12:50:44.0000000+00:00</time></trkpt><trkpt lat="39.45881635" lon="-0.38908619"><ele>25.4</ele><time>2022-11-06T12:50:45.0000000+00:00</time></trkpt><trkpt lat="39.45880319" lon="-0.38908585"><ele>25.6</ele><time>2022-11-06T12:50:46.0000000+00:00</time></trkpt><trkpt lat="39.45879364" lon="-0.38908241"><ele>25.6</ele><time>2022-11-06T12:50:47.0000000+00:00</time></trkpt><trkpt lat="39.4587902" lon="-0.38907537"><ele>25.6</ele><time>2022-11-06T12:50:48.0000000+00:00</time></trkpt><trkpt lat="39.45878483" lon="-0.38907412"><ele>25.6</ele><time>2022-11-06T12:50:49.0000000+00:00</time></trkpt><trkpt lat="39.45878249" lon="-0.38907487"><ele>25.6</ele><time>2022-11-06T12:50:50.0000000+00:00</time></trkpt><trkpt lat="39.45877821" lon="-0.38907638"><ele>25.4</ele><time>2022-11-06T12:50:51.0000000+00:00</time></trkpt><trkpt lat="39.45878249" lon="-0.38908711"><ele>25.4</ele><time>2022-11-06T12:50:52.0000000+00:00</time></trkpt><trkpt lat="39.45878131" lon="-0.38909004"><ele>25.4</ele><time>2022-11-06T12:50:53.0000000+00:00</time></trkpt><trkpt lat="39.45877796" lon="-0.38908711"><ele>25.4</ele><time>2022-11-06T12:50:54.0000000+00:00</time></trkpt><trkpt lat="39.45876924" lon="-0.38908518"><ele>25.4</ele><time>2022-11-06T12:50:55.0000000+00:00</time></trkpt><trkpt lat="39.45875449" lon="-0.38909851"><ele>25.4</ele><time>2022-11-06T12:50:56.0000000+00:00</time></trkpt><trkpt lat="39.45874024" lon="-0.38910756"><ele>25.4</ele><time>2022-11-06T12:50:57.0000000+00:00</time></trkpt><trkpt lat="39.4587239" lon="-0.38912558"><ele>25.4</ele><time>2022-11-06T12:50:58.0000000+00:00</time></trkpt><trkpt lat="39.45869716" lon="-0.38915374"><ele>25.4</ele><time>2022-11-06T12:50:59.0000000+00:00</time></trkpt><trkpt lat="39.45868568" lon="-0.38916263"><ele>25.6</ele><time>2022-11-06T12:51:00.0000000+00:00</time></trkpt><trkpt lat="39.4586752" lon="-0.38915743"><ele>25.4</ele><time>2022-11-06T12:51:01.0000000+00:00</time></trkpt><trkpt lat="39.45866489" lon="-0.38915467"><ele>25.4</ele><time>2022-11-06T12:51:02.0000000+00:00</time></trkpt><trkpt lat="39.45865466" lon="-0.38915467"><ele>25.4</ele><time>2022-11-06T12:51:03.0000000+00:00</time></trkpt><trkpt lat="39.45863388" lon="-0.38914628"><ele>25.4</ele><time>2022-11-06T12:51:04.0000000+00:00</time></trkpt><trkpt lat="39.45862223" lon="-0.38914628"><ele>25.4</ele><time>2022-11-06T12:51:05.0000000+00:00</time></trkpt><trkpt lat="39.45861217" lon="-0.38915081"><ele>25.4</ele><time>2022-11-06T12:51:06.0000000+00:00</time></trkpt><trkpt lat="39.45860429" lon="-0.38914997"><ele>25.4</ele><time>2022-11-06T12:51:07.0000000+00:00</time></trkpt><trkpt lat="39.45859708" lon="-0.38915257"><ele>25.4</ele><time>2022-11-06T12:51:08.0000000+00:00</time></trkpt><trkpt lat="39.45859247" lon="-0.38914838"><ele>25.4</ele><time>2022-11-06T12:51:09.0000000+00:00</time></trkpt><trkpt lat="39.45858484" lon="-0.38914469"><ele>25.4</ele><time>2022-11-06T12:51:10.0000000+00:00</time></trkpt><trkpt lat="39.45857671" lon="-0.38915081"><ele>25.4</ele><time>2022-11-06T12:51:11.0000000+00:00</time></trkpt><trkpt lat="39.45857327" lon="-0.38915609"><ele>25.4</ele><time>2022-11-06T12:51:12.0000000+00:00</time></trkpt><trkpt lat="39.45855844" lon="-0.38914226"><ele>25.4</ele><time>2022-11-06T12:51:13.0000000+00:00</time></trkpt><trkpt lat="39.45854" lon="-0.38913044"><ele>25.4</ele><time>2022-11-06T12:51:14.0000000+00:00</time></trkpt><trkpt lat="39.45853522" lon="-0.38910731"><ele>25.4</ele><time>2022-11-06T12:51:15.0000000+00:00</time></trkpt><trkpt lat="39.45853363" lon="-0.3890804"><ele>25.4</ele><time>2022-11-06T12:51:16.0000000+00:00</time></trkpt><trkpt lat="39.45852684" lon="-0.38907453"><ele>25.4</ele><time>2022-11-06T12:51:17.0000000+00:00</time></trkpt><trkpt lat="39.45851695" lon="-0.38908099"><ele>25.4</ele><time>2022-11-06T12:51:18.0000000+00:00</time></trkpt><trkpt lat="39.4585084" lon="-0.38908367"><ele>25.4</ele><time>2022-11-06T12:51:19.0000000+00:00</time></trkpt><trkpt lat="39.45850169" lon="-0.38909172"><ele>25.4</ele><time>2022-11-06T12:51:20.0000000+00:00</time></trkpt><trkpt lat="39.45849172" lon="-0.38909909"><ele>25.6</ele><time>2022-11-06T12:51:21.0000000+00:00</time></trkpt><trkpt lat="39.45848619" lon="-0.38910756"><ele>25.6</ele><time>2022-11-06T12:51:22.0000000+00:00</time></trkpt><trkpt lat="39.45847998" lon="-0.38910748"><ele>25.6</ele><time>2022-11-06T12:51:23.0000000+00:00</time></trkpt><trkpt lat="39.4584768" lon="-0.3891027"><ele>25.6</ele><time>2022-11-06T12:51:24.0000000+00:00</time></trkpt><trkpt lat="39.45848191" lon="-0.3890965"><ele>25.6</ele><time>2022-11-06T12:51:25.0000000+00:00</time></trkpt><trkpt lat="39.45847613" lon="-0.38910354"><ele>25.8</ele><time>2022-11-06T12:51:26.0000000+00:00</time></trkpt><trkpt lat="39.45846758" lon="-0.38909691"><ele>25.8</ele><time>2022-11-06T12:51:27.0000000+00:00</time></trkpt><trkpt lat="39.4584571" lon="-0.38908501"><ele>25.8</ele><time>2022-11-06T12:51:28.0000000+00:00</time></trkpt><trkpt lat="39.4584509" lon="-0.38908434"><ele>25.8</ele><time>2022-11-06T12:51:29.0000000+00:00</time></trkpt><trkpt lat="39.45844654" lon="-0.38908132"><ele>25.8</ele><time>2022-11-06T12:51:30.0000000+00:00</time></trkpt><trkpt lat="39.45844411" lon="-0.38907789"><ele>25.8</ele><time>2022-11-06T12:51:31.0000000+00:00</time></trkpt><trkpt lat="39.45845651" lon="-0.38908761"><ele>25.8</ele><time>2022-11-06T12:51:32.0000000+00:00</time></trkpt><trkpt lat="39.45845509" lon="-0.38908367"><ele>25.8</ele><time>2022-11-06T12:51:33.0000000+00:00</time></trkpt><trkpt lat="39.45845434" lon="-0.38908132"><ele>25.8</ele><time>2022-11-06T12:51:34.0000000+00:00</time></trkpt><trkpt lat="39.4584514" lon="-0.38907998"><ele>25.8</ele><time>2022-11-06T12:51:35.0000000+00:00</time></trkpt><trkpt lat="39.45845241" lon="-0.38907847"><ele>25.8</ele><time>2022-11-06T12:51:36.0000000+00:00</time></trkpt><trkpt lat="39.45845509" lon="-0.38907898"><ele>25.8</ele><time>2022-11-06T12:51:37.0000000+00:00</time></trkpt><trkpt lat="39.45845635" lon="-0.38907965"><ele>25.8</ele><time>2022-11-06T12:51:38.0000000+00:00</time></trkpt><trkpt lat="39.45846322" lon="-0.38907747"><ele>25.8</ele><time>2022-11-06T12:51:39.0000000+00:00</time></trkpt><trkpt lat="39.45846657" lon="-0.3890794"><ele>25.8</ele><time>2022-11-06T12:51:40.0000000+00:00</time></trkpt><trkpt lat="39.45846917" lon="-0.38908065"><ele>25.8</ele><time>2022-11-06T12:51:41.0000000+00:00</time></trkpt><trkpt lat="39.45846959" lon="-0.38908116"><ele>25.6</ele><time>2022-11-06T12:51:42.0000000+00:00</time></trkpt><trkpt lat="39.45846959" lon="-0.38908116"><ele>25.6</ele><time>2022-11-06T12:51:43.0000000+00:00</time></trkpt><trkpt lat="39.45846959" lon="-0.38908116"><ele>25.6</ele><time>2022-11-06T12:51:44.0000000+00:00</time></trkpt><trkpt lat="39.45846959" lon="-0.38908116"><ele>25.6</ele><time>2022-11-06T12:51:45.0000000+00:00</time></trkpt><trkpt lat="39.45846959" lon="-0.38908116"><ele>25.6</ele><time>2022-11-06T12:51:46.0000000+00:00</time></trkpt><trkpt lat="39.45846959" lon="-0.38908116"><ele>25.6</ele><time>2022-11-06T12:51:47.0000000+00:00</time></trkpt><trkpt lat="39.45846959" lon="-0.38908116"><ele>25.8</ele><time>2022-11-06T12:51:48.0000000+00:00</time></trkpt><trkpt lat="39.45846959" lon="-0.38908116"><ele>25.8</ele><time>2022-11-06T12:51:49.0000000+00:00</time></trkpt><trkpt lat="39.45846959" lon="-0.38908116"><ele>26.0</ele><time>2022-11-06T12:51:50.0000000+00:00</time></trkpt><trkpt lat="39.45846959" lon="-0.38908116"><ele>26.0</ele><time>2022-11-06T12:51:51.0000000+00:00</time></trkpt><trkpt lat="39.45846959" lon="-0.38908116"><ele>26.0</ele><time>2022-11-06T12:51:52.0000000+00:00</time></trkpt><trkpt lat="39.458469" lon="-0.38907847"><ele>26.0</ele><time>2022-11-06T12:51:53.0000000+00:00</time></trkpt><trkpt lat="39.45845878" lon="-0.38906959"><ele>26.0</ele><time>2022-11-06T12:51:54.0000000+00:00</time></trkpt><trkpt lat="39.45845291" lon="-0.38906381"><ele>26.0</ele><time>2022-11-06T12:51:55.0000000+00:00</time></trkpt><trkpt lat="39.45844813" lon="-0.38905886"><ele>26.0</ele><time>2022-11-06T12:51:56.0000000+00:00</time></trkpt><trkpt lat="39.45843481" lon="-0.38905702"><ele>26.0</ele><time>2022-11-06T12:51:57.0000000+00:00</time></trkpt><trkpt lat="39.45841955" lon="-0.38905936"><ele>26.0</ele><time>2022-11-06T12:51:58.0000000+00:00</time></trkpt><trkpt lat="39.45841393" lon="-0.38905727"><ele>26.0</ele><time>2022-11-06T12:51:59.0000000+00:00</time></trkpt><trkpt lat="39.4583996" lon="-0.389054"><ele>26.0</ele><time>2022-11-06T12:52:00.0000000+00:00</time></trkpt><trkpt lat="39.45838225" lon="-0.38905098"><ele>26.0</ele><time>2022-11-06T12:52:01.0000000+00:00</time></trkpt><trkpt lat="39.45836825" lon="-0.3890457"><ele>26.0</ele><time>2022-11-06T12:52:02.0000000+00:00</time></trkpt><trkpt lat="39.45835853" lon="-0.38904578"><ele>26.0</ele><time>2022-11-06T12:52:03.0000000+00:00</time></trkpt><trkpt lat="39.45834973" lon="-0.38905081"><ele>26.0</ele><time>2022-11-06T12:52:04.0000000+00:00</time></trkpt><trkpt lat="39.45833942" lon="-0.38905853"><ele>26.0</ele><time>2022-11-06T12:52:05.0000000+00:00</time></trkpt><trkpt lat="39.45832894" lon="-0.38906573"><ele>26.0</ele><time>2022-11-06T12:52:06.0000000+00:00</time></trkpt><trkpt lat="39.45831603" lon="-0.38907328"><ele>26.0</ele><time>2022-11-06T12:52:07.0000000+00:00</time></trkpt><trkpt lat="39.45830505" lon="-0.38908208"><ele>26.0</ele><time>2022-11-06T12:52:08.0000000+00:00</time></trkpt><trkpt lat="39.45829625" lon="-0.38908686"><ele>26.0</ele><time>2022-11-06T12:52:09.0000000+00:00</time></trkpt><trkpt lat="39.45828997" lon="-0.38907277"><ele>26.0</ele><time>2022-11-06T12:52:10.0000000+00:00</time></trkpt><trkpt lat="39.45828217" lon="-0.38907604"><ele>26.0</ele><time>2022-11-06T12:52:11.0000000+00:00</time></trkpt><trkpt lat="39.4582732" lon="-0.38907663"><ele>26.0</ele><time>2022-11-06T12:52:12.0000000+00:00</time></trkpt><trkpt lat="39.45826214" lon="-0.38908032"><ele>26.0</ele><time>2022-11-06T12:52:13.0000000+00:00</time></trkpt><trkpt lat="39.45824881" lon="-0.38907755"><ele>26.0</ele><time>2022-11-06T12:52:14.0000000+00:00</time></trkpt><trkpt lat="39.45823222" lon="-0.38908426"><ele>26.0</ele><time>2022-11-06T12:52:15.0000000+00:00</time></trkpt><trkpt lat="39.45822182" lon="-0.38908543"><ele>26.0</ele><time>2022-11-06T12:52:16.0000000+00:00</time></trkpt><trkpt lat="39.45821436" lon="-0.38908694"><ele>26.2</ele><time>2022-11-06T12:52:17.0000000+00:00</time></trkpt><trkpt lat="39.45820497" lon="-0.38909297"><ele>26.2</ele><time>2022-11-06T12:52:18.0000000+00:00</time></trkpt><trkpt lat="39.45820103" lon="-0.38904059"><ele>26.0</ele><time>2022-11-06T12:52:19.0000000+00:00</time></trkpt><trkpt lat="39.4581945" lon="-0.38903003"><ele>26.2</ele><time>2022-11-06T12:52:20.0000000+00:00</time></trkpt><trkpt lat="39.45818025" lon="-0.38904679"><ele>26.2</ele><time>2022-11-06T12:52:21.0000000+00:00</time></trkpt><trkpt lat="39.458166" lon="-0.38906464"><ele>26.2</ele><time>2022-11-06T12:52:22.0000000+00:00</time></trkpt><trkpt lat="39.4581541" lon="-0.3890923"><ele>26.4</ele><time>2022-11-06T12:52:23.0000000+00:00</time></trkpt><trkpt lat="39.45814186" lon="-0.38911091"><ele>26.4</ele><time>2022-11-06T12:52:24.0000000+00:00</time></trkpt><trkpt lat="39.45812711" lon="-0.38915785"><ele>26.6</ele><time>2022-11-06T12:52:25.0000000+00:00</time></trkpt><trkpt lat="39.45808981" lon="-0.38918912"><ele>26.6</ele><time>2022-11-06T12:52:26.0000000+00:00</time></trkpt><trkpt lat="39.4580624" lon="-0.38922306"><ele>26.8</ele><time>2022-11-06T12:52:27.0000000+00:00</time></trkpt><trkpt lat="39.45801646" lon="-0.3893052"><ele>26.8</ele><time>2022-11-06T12:52:28.0000000+00:00</time></trkpt><trkpt lat="39.45797514" lon="-0.3893627"><ele>26.8</ele><time>2022-11-06T12:52:29.0000000+00:00</time></trkpt><trkpt lat="39.45796081" lon="-0.38940076"><ele>26.8</ele><time>2022-11-06T12:52:30.0000000+00:00</time></trkpt><trkpt lat="39.45794866" lon="-0.38943437"><ele>26.6</ele><time>2022-11-06T12:52:31.0000000+00:00</time></trkpt><trkpt lat="39.45793105" lon="-0.38945658"><ele>26.6</ele><time>2022-11-06T12:52:32.0000000+00:00</time></trkpt><trkpt lat="39.45791211" lon="-0.38948877"><ele>26.4</ele><time>2022-11-06T12:52:33.0000000+00:00</time></trkpt><trkpt lat="39.45789962" lon="-0.38950612"><ele>26.2</ele><time>2022-11-06T12:52:34.0000000+00:00</time></trkpt><trkpt lat="39.45788822" lon="-0.38951995"><ele>26.0</ele><time>2022-11-06T12:52:35.0000000+00:00</time></trkpt><trkpt lat="39.45787925" lon="-0.38956395"><ele>26.0</ele><time>2022-11-06T12:52:36.0000000+00:00</time></trkpt><trkpt lat="39.45787012" lon="-0.38959254"><ele>26.0</ele><time>2022-11-06T12:52:37.0000000+00:00</time></trkpt><trkpt lat="39.45785939" lon="-0.38963973"><ele>25.8</ele><time>2022-11-06T12:52:38.0000000+00:00</time></trkpt><trkpt lat="39.45784489" lon="-0.3897015"><ele>25.8</ele><time>2022-11-06T12:52:39.0000000+00:00</time></trkpt><trkpt lat="39.45783139" lon="-0.38976001"><ele>25.8</ele><time>2022-11-06T12:52:40.0000000+00:00</time></trkpt><trkpt lat="39.45782033" lon="-0.38981265"><ele>25.8</ele><time>2022-11-06T12:52:41.0000000+00:00</time></trkpt><trkpt lat="39.45780516" lon="-0.38982815"><ele>25.8</ele><time>2022-11-06T12:52:42.0000000+00:00</time></trkpt><trkpt lat="39.45779108" lon="-0.38983394"><ele>25.8</ele><time>2022-11-06T12:52:43.0000000+00:00</time></trkpt><trkpt lat="39.45778001" lon="-0.38981617"><ele>25.8</ele><time>2022-11-06T12:52:44.0000000+00:00</time></trkpt><trkpt lat="39.4577692" lon="-0.38977074"><ele>25.8</ele><time>2022-11-06T12:52:45.0000000+00:00</time></trkpt><trkpt lat="39.45776844" lon="-0.38973285"><ele>25.8</ele><time>2022-11-06T12:52:46.0000000+00:00</time></trkpt><trkpt lat="39.45776928" lon="-0.38973335"><ele>25.8</ele><time>2022-11-06T12:52:47.0000000+00:00</time></trkpt><trkpt lat="39.45777079" lon="-0.38970863"><ele>25.8</ele><time>2022-11-06T12:52:48.0000000+00:00</time></trkpt><trkpt lat="39.45777004" lon="-0.38971374"><ele>25.8</ele><time>2022-11-06T12:52:49.0000000+00:00</time></trkpt><trkpt lat="39.45776509" lon="-0.38969429"><ele>25.8</ele><time>2022-11-06T12:52:50.0000000+00:00</time></trkpt><trkpt lat="39.457764" lon="-0.38969748"><ele>25.8</ele><time>2022-11-06T12:52:51.0000000+00:00</time></trkpt><trkpt lat="39.45776216" lon="-0.38969991"><ele>25.8</ele><time>2022-11-06T12:52:52.0000000+00:00</time></trkpt><trkpt lat="39.45775705" lon="-0.38969329"><ele>25.8</ele><time>2022-11-06T12:52:53.0000000+00:00</time></trkpt><trkpt lat="39.45774615" lon="-0.38968482"><ele>25.6</ele><time>2022-11-06T12:52:54.0000000+00:00</time></trkpt><trkpt lat="39.45773827" lon="-0.38967283"><ele>25.6</ele><time>2022-11-06T12:52:55.0000000+00:00</time></trkpt><trkpt lat="39.45772922" lon="-0.38966152"><ele>25.6</ele><time>2022-11-06T12:52:56.0000000+00:00</time></trkpt><trkpt lat="39.45770441" lon="-0.38965272"><ele>25.6</ele><time>2022-11-06T12:52:57.0000000+00:00</time></trkpt><trkpt lat="39.45767423" lon="-0.38964266"><ele>25.8</ele><time>2022-11-06T12:52:58.0000000+00:00</time></trkpt><trkpt lat="39.45766736" lon="-0.38963176"><ele>25.8</ele><time>2022-11-06T12:52:59.0000000+00:00</time></trkpt><trkpt lat="39.45766258" lon="-0.38962246"><ele>25.8</ele><time>2022-11-06T12:53:00.0000000+00:00</time></trkpt><trkpt lat="39.45765948" lon="-0.38961156"><ele>25.8</ele><time>2022-11-06T12:53:01.0000000+00:00</time></trkpt><trkpt lat="39.45765881" lon="-0.38960729"><ele>25.8</ele><time>2022-11-06T12:53:02.0000000+00:00</time></trkpt><trkpt lat="39.4576599" lon="-0.38960603"><ele>25.8</ele><time>2022-11-06T12:53:03.0000000+00:00</time></trkpt><trkpt lat="39.45764582" lon="-0.38958759"><ele>25.8</ele><time>2022-11-06T12:53:04.0000000+00:00</time></trkpt><trkpt lat="39.45762461" lon="-0.38957552"><ele>25.6</ele><time>2022-11-06T12:53:05.0000000+00:00</time></trkpt><trkpt lat="39.45759259" lon="-0.38956253"><ele>25.6</ele><time>2022-11-06T12:53:06.0000000+00:00</time></trkpt><trkpt lat="39.45756611" lon="-0.3895482"><ele>25.6</ele><time>2022-11-06T12:53:07.0000000+00:00</time></trkpt><trkpt lat="39.45755538" lon="-0.38953629"><ele>25.6</ele><time>2022-11-06T12:53:08.0000000+00:00</time></trkpt><trkpt lat="39.45754767" lon="-0.38953462"><ele>25.6</ele><time>2022-11-06T12:53:09.0000000+00:00</time></trkpt><trkpt lat="39.45754523" lon="-0.38952154"><ele>25.6</ele><time>2022-11-06T12:53:10.0000000+00:00</time></trkpt><trkpt lat="39.45753199" lon="-0.38950168"><ele>25.6</ele><time>2022-11-06T12:53:11.0000000+00:00</time></trkpt><trkpt lat="39.45752847" lon="-0.38948701"><ele>25.6</ele><time>2022-11-06T12:53:12.0000000+00:00</time></trkpt><trkpt lat="39.45753719" lon="-0.38946714"><ele>25.6</ele><time>2022-11-06T12:53:13.0000000+00:00</time></trkpt><trkpt lat="39.45754674" lon="-0.38944393"><ele>25.6</ele><time>2022-11-06T12:53:14.0000000+00:00</time></trkpt><trkpt lat="39.45755186" lon="-0.38941568"><ele>25.6</ele><time>2022-11-06T12:53:15.0000000+00:00</time></trkpt><trkpt lat="39.45754549" lon="-0.38940948"><ele>25.6</ele><time>2022-11-06T12:53:16.0000000+00:00</time></trkpt><trkpt lat="39.45754783" lon="-0.38938366"><ele>25.6</ele><time>2022-11-06T12:53:17.0000000+00:00</time></trkpt><trkpt lat="39.45754574" lon="-0.38936681"><ele>25.6</ele><time>2022-11-06T12:53:18.0000000+00:00</time></trkpt><trkpt lat="39.45756854" lon="-0.38935198"><ele>25.6</ele><time>2022-11-06T12:53:19.0000000+00:00</time></trkpt><trkpt lat="39.457563" lon="-0.38931753"><ele>25.6</ele><time>2022-11-06T12:53:20.0000000+00:00</time></trkpt><trkpt lat="39.45753995" lon="-0.38927428"><ele>25.6</ele><time>2022-11-06T12:53:21.0000000+00:00</time></trkpt><trkpt lat="39.45751389" lon="-0.38922683"><ele>25.6</ele><time>2022-11-06T12:53:22.0000000+00:00</time></trkpt><trkpt lat="39.45751078" lon="-0.38919356"><ele>25.6</ele><time>2022-11-06T12:53:23.0000000+00:00</time></trkpt><trkpt lat="39.45750911" lon="-0.3891638"><ele>25.6</ele><time>2022-11-06T12:53:24.0000000+00:00</time></trkpt><trkpt lat="39.45750861" lon="-0.38913975"><ele>25.6</ele><time>2022-11-06T12:53:25.0000000+00:00</time></trkpt><trkpt lat="39.45750383" lon="-0.38911393"><ele>25.6</ele><time>2022-11-06T12:53:26.0000000+00:00</time></trkpt><trkpt lat="39.45750098" lon="-0.38909013"><ele>25.6</ele><time>2022-11-06T12:53:27.0000000+00:00</time></trkpt><trkpt lat="39.45750307" lon="-0.38907026"><ele>25.6</ele><time>2022-11-06T12:53:28.0000000+00:00</time></trkpt><trkpt lat="39.45750156" lon="-0.38906816"><ele>25.6</ele><time>2022-11-06T12:53:29.0000000+00:00</time></trkpt><trkpt lat="39.45753518" lon="-0.38908786"><ele>25.6</ele><time>2022-11-06T12:53:30.0000000+00:00</time></trkpt><trkpt lat="39.45753702" lon="-0.38908476"><ele>25.6</ele><time>2022-11-06T12:53:31.0000000+00:00</time></trkpt><trkpt lat="39.45753199" lon="-0.3890633"><ele>25.6</ele><time>2022-11-06T12:53:32.0000000+00:00</time></trkpt><trkpt lat="39.45752285" lon="-0.38901527"><ele>25.4</ele><time>2022-11-06T12:53:33.0000000+00:00</time></trkpt><trkpt lat="39.45751238" lon="-0.38899373"><ele>25.4</ele><time>2022-11-06T12:53:34.0000000+00:00</time></trkpt><trkpt lat="39.457504" lon="-0.38897286"><ele>25.4</ele><time>2022-11-06T12:53:35.0000000+00:00</time></trkpt><trkpt lat="39.45749327" lon="-0.38895492"><ele>25.4</ele><time>2022-11-06T12:53:36.0000000+00:00</time></trkpt><trkpt lat="39.4574812" lon="-0.38894948"><ele>25.4</ele><time>2022-11-06T12:53:37.0000000+00:00</time></trkpt><trkpt lat="39.45745974" lon="-0.38894713"><ele>25.4</ele><time>2022-11-06T12:53:38.0000000+00:00</time></trkpt><trkpt lat="39.45745186" lon="-0.38893933"><ele>25.4</ele><time>2022-11-06T12:53:39.0000000+00:00</time></trkpt><trkpt lat="39.45744968" lon="-0.3889333"><ele>25.4</ele><time>2022-11-06T12:53:40.0000000+00:00</time></trkpt><trkpt lat="39.45745018" lon="-0.38892592"><ele>25.4</ele><time>2022-11-06T12:53:41.0000000+00:00</time></trkpt><trkpt lat="39.45744926" lon="-0.38891377"><ele>25.4</ele><time>2022-11-06T12:53:42.0000000+00:00</time></trkpt><trkpt lat="39.45747114" lon="-0.3889017"><ele>25.4</ele><time>2022-11-06T12:53:43.0000000+00:00</time></trkpt><trkpt lat="39.45749654" lon="-0.38889089"><ele>25.4</ele><time>2022-11-06T12:53:44.0000000+00:00</time></trkpt><trkpt lat="39.45750793" lon="-0.38888745"><ele>25.4</ele><time>2022-11-06T12:53:45.0000000+00:00</time></trkpt><trkpt lat="39.45751204" lon="-0.38889491"><ele>25.4</ele><time>2022-11-06T12:53:46.0000000+00:00</time></trkpt><trkpt lat="39.457519" lon="-0.3888867"><ele>25.2</ele><time>2022-11-06T12:53:47.0000000+00:00</time></trkpt><trkpt lat="39.45751917" lon="-0.38887672"><ele>25.2</ele><time>2022-11-06T12:53:48.0000000+00:00</time></trkpt><trkpt lat="39.45752453" lon="-0.38886532"><ele>25.2</ele><time>2022-11-06T12:53:49.0000000+00:00</time></trkpt><trkpt lat="39.45750207" lon="-0.38885023"><ele>25.2</ele><time>2022-11-06T12:53:50.0000000+00:00</time></trkpt><trkpt lat="39.45749134" lon="-0.38884303"><ele>25.2</ele><time>2022-11-06T12:53:51.0000000+00:00</time></trkpt><trkpt lat="39.45748581" lon="-0.38883548"><ele>25.2</ele><time>2022-11-06T12:53:52.0000000+00:00</time></trkpt><trkpt lat="39.4574786" lon="-0.38883347"><ele>25.0</ele><time>2022-11-06T12:53:53.0000000+00:00</time></trkpt><trkpt lat="39.45747659" lon="-0.38883934"><ele>25.0</ele><time>2022-11-06T12:53:54.0000000+00:00</time></trkpt><trkpt lat="39.45747273" lon="-0.38884236"><ele>25.0</ele><time>2022-11-06T12:53:55.0000000+00:00</time></trkpt><trkpt lat="39.45746955" lon="-0.38883925"><ele>25.0</ele><time>2022-11-06T12:53:56.0000000+00:00</time></trkpt><trkpt lat="39.45746586" lon="-0.38884043"><ele>24.8</ele><time>2022-11-06T12:53:57.0000000+00:00</time></trkpt><trkpt lat="39.45744826" lon="-0.38883682"><ele>24.8</ele><time>2022-11-06T12:53:58.0000000+00:00</time></trkpt><trkpt lat="39.45743166" lon="-0.38884219"><ele>24.8</ele><time>2022-11-06T12:53:59.0000000+00:00</time></trkpt><trkpt lat="39.45742227" lon="-0.38884512"><ele>24.8</ele><time>2022-11-06T12:54:00.0000000+00:00</time></trkpt><trkpt lat="39.45742412" lon="-0.38882677"><ele>24.8</ele><time>2022-11-06T12:54:01.0000000+00:00</time></trkpt><trkpt lat="39.45742219" lon="-0.38881696"><ele>24.8</ele><time>2022-11-06T12:54:02.0000000+00:00</time></trkpt><trkpt lat="39.45742244" lon="-0.38880229"><ele>24.8</ele><time>2022-11-06T12:54:03.0000000+00:00</time></trkpt><trkpt lat="39.4574237" lon="-0.38878796"><ele>25.0</ele><time>2022-11-06T12:54:04.0000000+00:00</time></trkpt><trkpt lat="39.45742068" lon="-0.38877882"><ele>25.0</ele><time>2022-11-06T12:54:05.0000000+00:00</time></trkpt><trkpt lat="39.45741716" lon="-0.38876901"><ele>25.0</ele><time>2022-11-06T12:54:06.0000000+00:00</time></trkpt><trkpt lat="39.45741414" lon="-0.38876105"><ele>25.0</ele><time>2022-11-06T12:54:07.0000000+00:00</time></trkpt><trkpt lat="39.45741531" lon="-0.38874814"><ele>24.8</ele><time>2022-11-06T12:54:08.0000000+00:00</time></trkpt><trkpt lat="39.45741741" lon="-0.38873155"><ele>24.8</ele><time>2022-11-06T12:54:09.0000000+00:00</time></trkpt><trkpt lat="39.45742009" lon="-0.38871151"><ele>24.8</ele><time>2022-11-06T12:54:10.0000000+00:00</time></trkpt><trkpt lat="39.4574237" lon="-0.38868721"><ele>24.8</ele><time>2022-11-06T12:54:11.0000000+00:00</time></trkpt><trkpt lat="39.45742915" lon="-0.38866374"><ele>24.8</ele><time>2022-11-06T12:54:12.0000000+00:00</time></trkpt><trkpt lat="39.45742445" lon="-0.38853927"><ele>24.8</ele><time>2022-11-06T12:54:21.0000000+00:00</time></trkpt><trkpt lat="39.45743468" lon="-0.38853885"><ele>24.8</ele><time>2022-11-06T12:54:22.0000000+00:00</time></trkpt><trkpt lat="39.45744105" lon="-0.38853977"><ele>24.8</ele><time>2022-11-06T12:54:23.0000000+00:00</time></trkpt><trkpt lat="39.45744976" lon="-0.38853801"><ele>25.0</ele><time>2022-11-06T12:54:24.0000000+00:00</time></trkpt><trkpt lat="39.45745764" lon="-0.38853709"><ele>25.0</ele><time>2022-11-06T12:54:25.0000000+00:00</time></trkpt><trkpt lat="39.45745119" lon="-0.38854145"><ele>25.0</ele><time>2022-11-06T12:54:26.0000000+00:00</time></trkpt><trkpt lat="39.45744264" lon="-0.38853038"><ele>25.2</ele><time>2022-11-06T12:54:27.0000000+00:00</time></trkpt><trkpt lat="39.45743677" lon="-0.38851915"><ele>25.2</ele><time>2022-11-06T12:54:28.0000000+00:00</time></trkpt><trkpt lat="39.45742839" lon="-0.38850934"><ele>25.2</ele><time>2022-11-06T12:54:29.0000000+00:00</time></trkpt><trkpt lat="39.45742261" lon="-0.38849954"><ele>25.2</ele><time>2022-11-06T12:54:30.0000000+00:00</time></trkpt><trkpt lat="39.45741691" lon="-0.38848956"><ele>25.2</ele><time>2022-11-06T12:54:31.0000000+00:00</time></trkpt><trkpt lat="39.45741272" lon="-0.38847724"><ele>25.2</ele><time>2022-11-06T12:54:32.0000000+00:00</time></trkpt><trkpt lat="39.45743074" lon="-0.38847087"><ele>25.2</ele><time>2022-11-06T12:54:33.0000000+00:00</time></trkpt><trkpt lat="39.45744063" lon="-0.38844732"><ele>25.2</ele><time>2022-11-06T12:54:34.0000000+00:00</time></trkpt><trkpt lat="39.45744867" lon="-0.38841756"><ele>25.2</ele><time>2022-11-06T12:54:35.0000000+00:00</time></trkpt><trkpt lat="39.45742169" lon="-0.38840792"><ele>25.2</ele><time>2022-11-06T12:54:36.0000000+00:00</time></trkpt><trkpt lat="39.45741632" lon="-0.38838102"><ele>25.2</ele><time>2022-11-06T12:54:37.0000000+00:00</time></trkpt><trkpt lat="39.45741582" lon="-0.38836719"><ele>25.2</ele><time>2022-11-06T12:54:38.0000000+00:00</time></trkpt><trkpt lat="39.45743384" lon="-0.38835671"><ele>25.2</ele><time>2022-11-06T12:54:39.0000000+00:00</time></trkpt><trkpt lat="39.45743837" lon="-0.38833248"><ele>25.2</ele><time>2022-11-06T12:54:40.0000000+00:00</time></trkpt><trkpt lat="39.45743635" lon="-0.3883231"><ele>25.2</ele><time>2022-11-06T12:54:41.0000000+00:00</time></trkpt><trkpt lat="39.45744365" lon="-0.38829896"><ele>25.2</ele><time>2022-11-06T12:54:42.0000000+00:00</time></trkpt><trkpt lat="39.45744046" lon="-0.38830139"><ele>25.2</ele><time>2022-11-06T12:54:43.0000000+00:00</time></trkpt><trkpt lat="39.45743451" lon="-0.38830348"><ele>25.2</ele><time>2022-11-06T12:54:44.0000000+00:00</time></trkpt><trkpt lat="39.45742562" lon="-0.38830717"><ele>25.2</ele><time>2022-11-06T12:54:45.0000000+00:00</time></trkpt><trkpt lat="39.45741548" lon="-0.38830591"><ele>25.2</ele><time>2022-11-06T12:54:46.0000000+00:00</time></trkpt><trkpt lat="39.4574097" lon="-0.38830977"><ele>25.2</ele><time>2022-11-06T12:54:47.0000000+00:00</time></trkpt><trkpt lat="39.45741096" lon="-0.38831924"><ele>25.0</ele><time>2022-11-06T12:54:48.0000000+00:00</time></trkpt><trkpt lat="39.45741138" lon="-0.3883469"><ele>25.0</ele><time>2022-11-06T12:54:49.0000000+00:00</time></trkpt><trkpt lat="39.45742236" lon="-0.38835369"><ele>25.0</ele><time>2022-11-06T12:54:50.0000000+00:00</time></trkpt><trkpt lat="39.45744767" lon="-0.38838445"><ele>25.0</ele><time>2022-11-06T12:54:52.0000000+00:00</time></trkpt><trkpt lat="39.45748539" lon="-0.38839677"><ele>25.0</ele><time>2022-11-06T12:54:54.0000000+00:00</time></trkpt><trkpt lat="39.45749008" lon="-0.38840507"><ele>25.0</ele><time>2022-11-06T12:54:55.0000000+00:00</time></trkpt><trkpt lat="39.45750458" lon="-0.38841396"><ele>25.0</ele><time>2022-11-06T12:54:56.0000000+00:00</time></trkpt><trkpt lat="39.45753694" lon="-0.38841773"><ele>25.0</ele><time>2022-11-06T12:54:57.0000000+00:00</time></trkpt><trkpt lat="39.45755362" lon="-0.38842066"><ele>25.0</ele><time>2022-11-06T12:54:58.0000000+00:00</time></trkpt><trkpt lat="39.45756108" lon="-0.38842058"><ele>25.0</ele><time>2022-11-06T12:54:59.0000000+00:00</time></trkpt><trkpt lat="39.45757038" lon="-0.3884236"><ele>25.0</ele><time>2022-11-06T12:55:00.0000000+00:00</time></trkpt><trkpt lat="39.45757692" lon="-0.38842108"><ele>24.8</ele><time>2022-11-06T12:55:01.0000000+00:00</time></trkpt><trkpt lat="39.45758337" lon="-0.38841982"><ele>24.8</ele><time>2022-11-06T12:55:02.0000000+00:00</time></trkpt><trkpt lat="39.45758781" lon="-0.38843064"><ele>24.8</ele><time>2022-11-06T12:55:03.0000000+00:00</time></trkpt><trkpt lat="39.45766426" lon="-0.38845159"><ele>24.8</ele><time>2022-11-06T12:55:07.0000000+00:00</time></trkpt><trkpt lat="39.45774254" lon="-0.38844061"><ele>24.8</ele><time>2022-11-06T12:55:09.0000000+00:00</time></trkpt><trkpt lat="39.45778026" lon="-0.38843483"><ele>25.0</ele><time>2022-11-06T12:55:10.0000000+00:00</time></trkpt><trkpt lat="39.45779862" lon="-0.38843357"><ele>24.8</ele><time>2022-11-06T12:55:11.0000000+00:00</time></trkpt><trkpt lat="39.45744323" lon="-0.38862191"><ele>24.8</ele><time>2022-11-06T12:55:16.0000000+00:00</time></trkpt><trkpt lat="39.45739771" lon="-0.3886375"><ele>24.8</ele><time>2022-11-06T12:55:17.0000000+00:00</time></trkpt><trkpt lat="39.4574387" lon="-0.38863516"><ele>25.0</ele><time>2022-11-06T12:55:24.0000000+00:00</time></trkpt><trkpt lat="39.45746418" lon="-0.38862627"><ele>25.0</ele><time>2022-11-06T12:55:25.0000000+00:00</time></trkpt><trkpt lat="39.45748002" lon="-0.38860372"><ele>25.0</ele><time>2022-11-06T12:55:26.0000000+00:00</time></trkpt><trkpt lat="39.457505" lon="-0.38858243"><ele>25.0</ele><time>2022-11-06T12:55:27.0000000+00:00</time></trkpt><trkpt lat="39.45752948" lon="-0.38856341"><ele>25.0</ele><time>2022-11-06T12:55:28.0000000+00:00</time></trkpt><trkpt lat="39.45756191" lon="-0.38854765"><ele>25.0</ele><time>2022-11-06T12:55:29.0000000+00:00</time></trkpt><trkpt lat="39.45776283" lon="-0.38857849"><ele>25.0</ele><time>2022-11-06T12:55:30.0000000+00:00</time></trkpt><trkpt lat="39.45782838" lon="-0.38858168"><ele>25.0</ele><time>2022-11-06T12:55:31.0000000+00:00</time></trkpt><trkpt lat="39.45792393" lon="-0.38858461"><ele>25.0</ele><time>2022-11-06T12:55:33.0000000+00:00</time></trkpt><trkpt lat="39.45791211" lon="-0.38856869"><ele>25.0</ele><time>2022-11-06T12:55:34.0000000+00:00</time></trkpt><trkpt lat="39.45790834" lon="-0.38856349"><ele>25.0</ele><time>2022-11-06T12:55:35.0000000+00:00</time></trkpt><trkpt lat="39.45786458" lon="-0.38856919"><ele>25.0</ele><time>2022-11-06T12:55:36.0000000+00:00</time></trkpt><trkpt lat="39.45783282" lon="-0.38856735"><ele>25.2</ele><time>2022-11-06T12:55:37.0000000+00:00</time></trkpt><trkpt lat="39.45781429" lon="-0.38858403"><ele>25.2</ele><time>2022-11-06T12:55:38.0000000+00:00</time></trkpt><trkpt lat="39.45780491" lon="-0.3885919"><ele>25.2</ele><time>2022-11-06T12:55:39.0000000+00:00</time></trkpt><trkpt lat="39.45779242" lon="-0.38859132"><ele>25.2</ele><time>2022-11-06T12:55:40.0000000+00:00</time></trkpt><trkpt lat="39.45780382" lon="-0.38858822"><ele>25.2</ele><time>2022-11-06T12:55:41.0000000+00:00</time></trkpt><trkpt lat="39.45780826" lon="-0.38858738"><ele>25.2</ele><time>2022-11-06T12:55:42.0000000+00:00</time></trkpt><trkpt lat="39.45779661" lon="-0.38859492"><ele>25.2</ele><time>2022-11-06T12:55:43.0000000+00:00</time></trkpt><trkpt lat="39.45778026" lon="-0.38860423"><ele>25.0</ele><time>2022-11-06T12:55:44.0000000+00:00</time></trkpt><trkpt lat="39.45778253" lon="-0.38860506"><ele>25.0</ele><time>2022-11-06T12:55:45.0000000+00:00</time></trkpt><trkpt lat="39.45777314" lon="-0.38860766"><ele>25.0</ele><time>2022-11-06T12:55:46.0000000+00:00</time></trkpt><trkpt lat="39.45777339" lon="-0.38860867"><ele>25.0</ele><time>2022-11-06T12:55:47.0000000+00:00</time></trkpt><trkpt lat="39.45775679" lon="-0.38861445"><ele>25.0</ele><time>2022-11-06T12:55:48.0000000+00:00</time></trkpt><trkpt lat="39.45773684" lon="-0.38861873"><ele>25.0</ele><time>2022-11-06T12:55:49.0000000+00:00</time></trkpt><trkpt lat="39.45773106" lon="-0.38861294"><ele>25.0</ele><time>2022-11-06T12:55:50.0000000+00:00</time></trkpt><trkpt lat="39.45774632" lon="-0.38860783"><ele>25.0</ele><time>2022-11-06T12:55:51.0000000+00:00</time></trkpt><trkpt lat="39.45774891" lon="-0.38860657"><ele>25.0</ele><time>2022-11-06T12:55:52.0000000+00:00</time></trkpt><trkpt lat="39.45773676" lon="-0.3886142"><ele>25.2</ele><time>2022-11-06T12:55:53.0000000+00:00</time></trkpt><trkpt lat="39.45772243" lon="-0.3886194"><ele>25.4</ele><time>2022-11-06T12:55:54.0000000+00:00</time></trkpt><trkpt lat="39.45772318" lon="-0.38862049"><ele>25.4</ele><time>2022-11-06T12:55:55.0000000+00:00</time></trkpt><trkpt lat="39.45771078" lon="-0.38862367"><ele>25.4</ele><time>2022-11-06T12:55:56.0000000+00:00</time></trkpt><trkpt lat="39.45770181" lon="-0.38862107"><ele>25.4</ele><time>2022-11-06T12:55:57.0000000+00:00</time></trkpt><trkpt lat="39.45769602" lon="-0.38861688"><ele>25.6</ele><time>2022-11-06T12:55:58.0000000+00:00</time></trkpt><trkpt lat="39.45769167" lon="-0.38860917"><ele>25.6</ele><time>2022-11-06T12:55:59.0000000+00:00</time></trkpt><trkpt lat="39.45769502" lon="-0.38859953"><ele>25.6</ele><time>2022-11-06T12:56:00.0000000+00:00</time></trkpt><trkpt lat="39.45769644" lon="-0.38858034"><ele>25.6</ele><time>2022-11-06T12:56:01.0000000+00:00</time></trkpt><trkpt lat="39.45771312" lon="-0.38855746"><ele>25.8</ele><time>2022-11-06T12:56:02.0000000+00:00</time></trkpt><trkpt lat="39.4577148" lon="-0.38855611"><ele>25.8</ele><time>2022-11-06T12:56:03.0000000+00:00</time></trkpt><trkpt lat="39.457706" lon="-0.38855041"><ele>25.8</ele><time>2022-11-06T12:56:04.0000000+00:00</time></trkpt><trkpt lat="39.45769753" lon="-0.38855704"><ele>25.8</ele><time>2022-11-06T12:56:05.0000000+00:00</time></trkpt><trkpt lat="39.45769192" lon="-0.38856391"><ele>25.8</ele><time>2022-11-06T12:56:06.0000000+00:00</time></trkpt><trkpt lat="39.45768739" lon="-0.38856668"><ele>25.8</ele><time>2022-11-06T12:56:07.0000000+00:00</time></trkpt><trkpt lat="39.45767616" lon="-0.3885707"><ele>25.8</ele><time>2022-11-06T12:56:08.0000000+00:00</time></trkpt><trkpt lat="39.45767281" lon="-0.38856751"><ele>25.8</ele><time>2022-11-06T12:56:09.0000000+00:00</time></trkpt><trkpt lat="39.45767105" lon="-0.38856642"><ele>25.8</ele><time>2022-11-06T12:56:10.0000000+00:00</time></trkpt><trkpt lat="39.45766518" lon="-0.38856609"><ele>25.8</ele><time>2022-11-06T12:56:11.0000000+00:00</time></trkpt><trkpt lat="39.45765185" lon="-0.38857598"><ele>25.8</ele><time>2022-11-06T12:56:12.0000000+00:00</time></trkpt><trkpt lat="39.4576314" lon="-0.38859467"><ele>25.8</ele><time>2022-11-06T12:56:13.0000000+00:00</time></trkpt><trkpt lat="39.45761941" lon="-0.38860548"><ele>25.8</ele><time>2022-11-06T12:56:14.0000000+00:00</time></trkpt><trkpt lat="39.45761749" lon="-0.38860649"><ele>25.8</ele><time>2022-11-06T12:56:15.0000000+00:00</time></trkpt><trkpt lat="39.45761858" lon="-0.38860775"><ele>25.8</ele><time>2022-11-06T12:56:16.0000000+00:00</time></trkpt><trkpt lat="39.45761682" lon="-0.38860565"><ele>25.8</ele><time>2022-11-06T12:56:17.0000000+00:00</time></trkpt><trkpt lat="39.45760785" lon="-0.38861537"><ele>25.8</ele><time>2022-11-06T12:56:18.0000000+00:00</time></trkpt><trkpt lat="39.45759603" lon="-0.38864119"><ele>25.8</ele><time>2022-11-06T12:56:19.0000000+00:00</time></trkpt><trkpt lat="39.45759209" lon="-0.38866131"><ele>25.8</ele><time>2022-11-06T12:56:20.0000000+00:00</time></trkpt><trkpt lat="39.45759293" lon="-0.38866525"><ele>25.8</ele><time>2022-11-06T12:56:21.0000000+00:00</time></trkpt><trkpt lat="39.45757784" lon="-0.38869081"><ele>25.8</ele><time>2022-11-06T12:56:22.0000000+00:00</time></trkpt><trkpt lat="39.45755127" lon="-0.38870875"><ele>25.8</ele><time>2022-11-06T12:56:23.0000000+00:00</time></trkpt><trkpt lat="39.4575314" lon="-0.38871529"><ele>25.8</ele><time>2022-11-06T12:56:24.0000000+00:00</time></trkpt><trkpt lat="39.45753601" lon="-0.38871571"><ele>25.8</ele><time>2022-11-06T12:56:25.0000000+00:00</time></trkpt><trkpt lat="39.45753878" lon="-0.38871747"><ele>25.8</ele><time>2022-11-06T12:56:26.0000000+00:00</time></trkpt><trkpt lat="39.45753375" lon="-0.38872249"><ele>25.8</ele><time>2022-11-06T12:56:27.0000000+00:00</time></trkpt><trkpt lat="39.45754691" lon="-0.38871177"><ele>25.8</ele><time>2022-11-06T12:56:28.0000000+00:00</time></trkpt><trkpt lat="39.45757013" lon="-0.38869894"><ele>25.8</ele><time>2022-11-06T12:56:29.0000000+00:00</time></trkpt><trkpt lat="39.45757524" lon="-0.38869416"><ele>25.8</ele><time>2022-11-06T12:56:30.0000000+00:00</time></trkpt><trkpt lat="39.45758086" lon="-0.38868679"><ele>25.6</ele><time>2022-11-06T12:56:31.0000000+00:00</time></trkpt><trkpt lat="39.45758035" lon="-0.38868411"><ele>25.6</ele><time>2022-11-06T12:56:32.0000000+00:00</time></trkpt><trkpt lat="39.457577" lon="-0.3886836"><ele>25.6</ele><time>2022-11-06T12:56:33.0000000+00:00</time></trkpt><trkpt lat="39.45757231" lon="-0.38868075"><ele>25.6</ele><time>2022-11-06T12:56:34.0000000+00:00</time></trkpt><trkpt lat="39.45756845" lon="-0.3886795"><ele>25.6</ele><time>2022-11-06T12:56:35.0000000+00:00</time></trkpt><trkpt lat="39.45756351" lon="-0.38867958"><ele>25.6</ele><time>2022-11-06T12:56:36.0000000+00:00</time></trkpt><trkpt lat="39.45756208" lon="-0.38868159"><ele>25.6</ele><time>2022-11-06T12:56:37.0000000+00:00</time></trkpt><trkpt lat="39.45756015" lon="-0.38868335"><ele>25.6</ele><time>2022-11-06T12:56:38.0000000+00:00</time></trkpt><trkpt lat="39.45755672" lon="-0.38868193"><ele>25.6</ele><time>2022-11-06T12:56:39.0000000+00:00</time></trkpt><trkpt lat="39.45755018" lon="-0.38868226"><ele>25.6</ele><time>2022-11-06T12:56:40.0000000+00:00</time></trkpt><trkpt lat="39.4575449" lon="-0.38868612"><ele>25.6</ele><time>2022-11-06T12:56:41.0000000+00:00</time></trkpt><trkpt lat="39.45753836" lon="-0.38869048"><ele>25.6</ele><time>2022-11-06T12:56:42.0000000+00:00</time></trkpt><trkpt lat="39.45752956" lon="-0.38869659"><ele>25.6</ele><time>2022-11-06T12:56:43.0000000+00:00</time></trkpt><trkpt lat="39.45752545" lon="-0.38870028"><ele>25.6</ele><time>2022-11-06T12:56:44.0000000+00:00</time></trkpt><trkpt lat="39.45752302" lon="-0.38870255"><ele>25.6</ele><time>2022-11-06T12:56:45.0000000+00:00</time></trkpt><trkpt lat="39.45751917" lon="-0.38868704"><ele>25.6</ele><time>2022-11-06T12:56:46.0000000+00:00</time></trkpt><trkpt lat="39.45752017" lon="-0.38867019"><ele>25.6</ele><time>2022-11-06T12:56:47.0000000+00:00</time></trkpt><trkpt lat="39.45751783" lon="-0.38867388"><ele>25.8</ele><time>2022-11-06T12:56:48.0000000+00:00</time></trkpt><trkpt lat="39.45751556" lon="-0.38867396"><ele>25.8</ele><time>2022-11-06T12:56:49.0000000+00:00</time></trkpt><trkpt lat="39.45751405" lon="-0.3886748"><ele>26.0</ele><time>2022-11-06T12:56:50.0000000+00:00</time></trkpt><trkpt lat="39.45751598" lon="-0.38867329"><ele>26.0</ele><time>2022-11-06T12:56:51.0000000+00:00</time></trkpt><trkpt lat="39.45751623" lon="-0.38867245"><ele>26.0</ele><time>2022-11-06T12:56:52.0000000+00:00</time></trkpt><trkpt lat="39.45751724" lon="-0.38866818"><ele>26.2</ele><time>2022-11-06T12:56:53.0000000+00:00</time></trkpt><trkpt lat="39.45751766" lon="-0.3886655"><ele>26.2</ele><time>2022-11-06T12:56:54.0000000+00:00</time></trkpt><trkpt lat="39.45753694" lon="-0.38865368"><ele>26.2</ele><time>2022-11-06T12:56:55.0000000+00:00</time></trkpt><trkpt lat="39.45754917" lon="-0.38864463"><ele>26.2</ele><time>2022-11-06T12:56:56.0000000+00:00</time></trkpt><trkpt lat="39.45754917" lon="-0.38864463"><ele>26.2</ele><time>2022-11-06T12:56:57.0000000+00:00</time></trkpt><trkpt lat="39.45754917" lon="-0.38864463"><ele>26.2</ele><time>2022-11-06T12:56:58.0000000+00:00</time></trkpt><trkpt lat="39.45754917" lon="-0.38864463"><ele>26.2</ele><time>2022-11-06T12:56:59.0000000+00:00</time></trkpt><trkpt lat="39.45754917" lon="-0.38864463"><ele>26.0</ele><time>2022-11-06T12:57:00.0000000+00:00</time></trkpt><trkpt lat="39.45754917" lon="-0.38864463"><ele>26.0</ele><time>2022-11-06T12:57:01.0000000+00:00</time></trkpt><trkpt lat="39.45754917" lon="-0.38864463"><ele>26.0</ele><time>2022-11-06T12:57:02.0000000+00:00</time></trkpt><trkpt lat="39.45754917" lon="-0.38864463"><ele>26.0</ele><time>2022-11-06T12:57:03.0000000+00:00</time></trkpt><trkpt lat="39.45754917" lon="-0.38864463"><ele>26.0</ele><time>2022-11-06T12:57:04.0000000+00:00</time></trkpt><trkpt lat="39.45754825" lon="-0.38864429"><ele>26.0</ele><time>2022-11-06T12:57:05.0000000+00:00</time></trkpt><trkpt lat="39.45754825" lon="-0.38863666"><ele>26.0</ele><time>2022-11-06T12:57:06.0000000+00:00</time></trkpt><trkpt lat="39.4575444" lon="-0.38862853"><ele>25.8</ele><time>2022-11-06T12:57:07.0000000+00:00</time></trkpt><trkpt lat="39.45753685" lon="-0.38861579"><ele>25.8</ele><time>2022-11-06T12:57:08.0000000+00:00</time></trkpt><trkpt lat="39.4575542" lon="-0.38860297"><ele>25.8</ele><time>2022-11-06T12:57:09.0000000+00:00</time></trkpt><trkpt lat="39.45760097" lon="-0.38859082"><ele>25.8</ele><time>2022-11-06T12:57:10.0000000+00:00</time></trkpt><trkpt lat="39.45762495" lon="-0.38857799"><ele>25.8</ele><time>2022-11-06T12:57:11.0000000+00:00</time></trkpt><trkpt lat="39.45762947" lon="-0.3885743"><ele>25.8</ele><time>2022-11-06T12:57:12.0000000+00:00</time></trkpt><trkpt lat="39.45763635" lon="-0.38856248"><ele>25.8</ele><time>2022-11-06T12:57:13.0000000+00:00</time></trkpt><trkpt lat="39.45761262" lon="-0.38856139"><ele>25.8</ele><time>2022-11-06T12:57:14.0000000+00:00</time></trkpt><trkpt lat="39.45761296" lon="-0.38855519"><ele>25.8</ele><time>2022-11-06T12:57:15.0000000+00:00</time></trkpt><trkpt lat="39.45756451" lon="-0.38855637"><ele>25.8</ele><time>2022-11-06T12:57:16.0000000+00:00</time></trkpt><trkpt lat="39.45750768" lon="-0.38855796"><ele>25.8</ele><time>2022-11-06T12:57:17.0000000+00:00</time></trkpt><trkpt lat="39.45747759" lon="-0.38855159"><ele>25.8</ele><time>2022-11-06T12:57:18.0000000+00:00</time></trkpt><trkpt lat="39.45746401" lon="-0.38855"><ele>25.8</ele><time>2022-11-06T12:57:19.0000000+00:00</time></trkpt><trkpt lat="39.45746351" lon="-0.38854706"><ele>25.8</ele><time>2022-11-06T12:57:20.0000000+00:00</time></trkpt><trkpt lat="39.45745094" lon="-0.3885484"><ele>25.8</ele><time>2022-11-06T12:57:21.0000000+00:00</time></trkpt><trkpt lat="39.45749042" lon="-0.38852493"><ele>25.8</ele><time>2022-11-06T12:57:22.0000000+00:00</time></trkpt><trkpt lat="39.45748916" lon="-0.38851529"><ele>25.8</ele><time>2022-11-06T12:57:23.0000000+00:00</time></trkpt><trkpt lat="39.45746871" lon="-0.38849736"><ele>25.8</ele><time>2022-11-06T12:57:24.0000000+00:00</time></trkpt><trkpt lat="39.45744532" lon="-0.38847506"><ele>25.8</ele><time>2022-11-06T12:57:25.0000000+00:00</time></trkpt><trkpt lat="39.45743392" lon="-0.38846961"><ele>25.8</ele><time>2022-11-06T12:57:26.0000000+00:00</time></trkpt><trkpt lat="39.45743334" lon="-0.3884583"><ele>25.8</ele><time>2022-11-06T12:57:27.0000000+00:00</time></trkpt><trkpt lat="39.45743359" lon="-0.38844816"><ele>25.8</ele><time>2022-11-06T12:57:28.0000000+00:00</time></trkpt><trkpt lat="39.45745035" lon="-0.38843298"><ele>25.8</ele><time>2022-11-06T12:57:29.0000000+00:00</time></trkpt><trkpt lat="39.45744004" lon="-0.38843131"><ele>25.8</ele><time>2022-11-06T12:57:30.0000000+00:00</time></trkpt><trkpt lat="39.45745898" lon="-0.38842737"><ele>25.6</ele><time>2022-11-06T12:57:31.0000000+00:00</time></trkpt><trkpt lat="39.4574755" lon="-0.38841697"><ele>25.6</ele><time>2022-11-06T12:57:32.0000000+00:00</time></trkpt><trkpt lat="39.4575014" lon="-0.38840071"><ele>25.0</ele><time>2022-11-06T12:57:33.0000000+00:00</time></trkpt><trkpt lat="39.45752411" lon="-0.38838856"><ele>25.0</ele><time>2022-11-06T12:57:34.0000000+00:00</time></trkpt><trkpt lat="39.4575475" lon="-0.38837615"><ele>25.0</ele><time>2022-11-06T12:57:35.0000000+00:00</time></trkpt><trkpt lat="39.45756837" lon="-0.38836618"><ele>24.8</ele><time>2022-11-06T12:57:36.0000000+00:00</time></trkpt><trkpt lat="39.45761137" lon="-0.38835403"><ele>24.8</ele><time>2022-11-06T12:57:37.0000000+00:00</time></trkpt><trkpt lat="39.45760944" lon="-0.38834657"><ele>24.6</ele><time>2022-11-06T12:57:38.0000000+00:00</time></trkpt><trkpt lat="39.45761371" lon="-0.38833668"><ele>24.6</ele><time>2022-11-06T12:57:39.0000000+00:00</time></trkpt><trkpt lat="39.45761187" lon="-0.38833223"><ele>24.6</ele><time>2022-11-06T12:57:40.0000000+00:00</time></trkpt><trkpt lat="39.45761271" lon="-0.38831882"><ele>24.6</ele><time>2022-11-06T12:57:41.0000000+00:00</time></trkpt><trkpt lat="39.45760885" lon="-0.38831539"><ele>24.6</ele><time>2022-11-06T12:57:42.0000000+00:00</time></trkpt><trkpt lat="39.45760751" lon="-0.38831228"><ele>24.6</ele><time>2022-11-06T12:57:43.0000000+00:00</time></trkpt><trkpt lat="39.4576055" lon="-0.38831287"><ele>24.6</ele><time>2022-11-06T12:57:44.0000000+00:00</time></trkpt><trkpt lat="39.4576133" lon="-0.38831539"><ele>24.6</ele><time>2022-11-06T12:57:45.0000000+00:00</time></trkpt><trkpt lat="39.45761514" lon="-0.38831321"><ele>24.6</ele><time>2022-11-06T12:57:46.0000000+00:00</time></trkpt><trkpt lat="39.45762268" lon="-0.38829971"><ele>24.6</ele><time>2022-11-06T12:57:47.0000000+00:00</time></trkpt><trkpt lat="39.45762042" lon="-0.38828965"><ele>24.6</ele><time>2022-11-06T12:57:48.0000000+00:00</time></trkpt><trkpt lat="39.45761045" lon="-0.38828244"><ele>24.6</ele><time>2022-11-06T12:57:49.0000000+00:00</time></trkpt><trkpt lat="39.45760483" lon="-0.38827675"><ele>24.4</ele><time>2022-11-06T12:57:50.0000000+00:00</time></trkpt><trkpt lat="39.45760131" lon="-0.38827666"><ele>24.4</ele><time>2022-11-06T12:57:51.0000000+00:00</time></trkpt><trkpt lat="39.45758463" lon="-0.38828454"><ele>24.4</ele><time>2022-11-06T12:57:52.0000000+00:00</time></trkpt><trkpt lat="39.45757926" lon="-0.38828521"><ele>24.4</ele><time>2022-11-06T12:57:53.0000000+00:00</time></trkpt><trkpt lat="39.45758061" lon="-0.38827767"><ele>24.4</ele><time>2022-11-06T12:57:54.0000000+00:00</time></trkpt><trkpt lat="39.45757734" lon="-0.38827356"><ele>24.4</ele><time>2022-11-06T12:57:55.0000000+00:00</time></trkpt><trkpt lat="39.45755244" lon="-0.38828035"><ele>24.4</ele><time>2022-11-06T12:57:56.0000000+00:00</time></trkpt><trkpt lat="39.45752495" lon="-0.38829158"><ele>24.4</ele><time>2022-11-06T12:57:57.0000000+00:00</time></trkpt><trkpt lat="39.45750928" lon="-0.3882832"><ele>24.4</ele><time>2022-11-06T12:57:58.0000000+00:00</time></trkpt><trkpt lat="39.45748732" lon="-0.38827959"><ele>24.4</ele><time>2022-11-06T12:57:59.0000000+00:00</time></trkpt><trkpt lat="39.45745924" lon="-0.38828177"><ele>24.4</ele><time>2022-11-06T12:58:00.0000000+00:00</time></trkpt><trkpt lat="39.45743015" lon="-0.38828379"><ele>24.4</ele><time>2022-11-06T12:58:01.0000000+00:00</time></trkpt><trkpt lat="39.4573931" lon="-0.38828773"><ele>24.4</ele><time>2022-11-06T12:58:02.0000000+00:00</time></trkpt><trkpt lat="39.45736896" lon="-0.38828043"><ele>24.4</ele><time>2022-11-06T12:58:03.0000000+00:00</time></trkpt><trkpt lat="39.45735161" lon="-0.38826861"><ele>24.4</ele><time>2022-11-06T12:58:04.0000000+00:00</time></trkpt><trkpt lat="39.45734692" lon="-0.3882423"><ele>24.4</ele><time>2022-11-06T12:58:05.0000000+00:00</time></trkpt><trkpt lat="39.45736201" lon="-0.38821497"><ele>24.6</ele><time>2022-11-06T12:58:06.0000000+00:00</time></trkpt><trkpt lat="39.45739855" lon="-0.38817901"><ele>24.6</ele><time>2022-11-06T12:58:07.0000000+00:00</time></trkpt><trkpt lat="39.45738564" lon="-0.38815043"><ele>24.6</ele><time>2022-11-06T12:58:08.0000000+00:00</time></trkpt><trkpt lat="39.45736804" lon="-0.38814758"><ele>24.4</ele><time>2022-11-06T12:58:09.0000000+00:00</time></trkpt><trkpt lat="39.45735161" lon="-0.38815429"><ele>24.4</ele><time>2022-11-06T12:58:10.0000000+00:00</time></trkpt><trkpt lat="39.45733066" lon="-0.38815395"><ele>24.4</ele><time>2022-11-06T12:58:11.0000000+00:00</time></trkpt><trkpt lat="39.45730752" lon="-0.38814984"><ele>24.4</ele><time>2022-11-06T12:58:12.0000000+00:00</time></trkpt><trkpt lat="39.45728347" lon="-0.38814515"><ele>24.4</ele><time>2022-11-06T12:58:13.0000000+00:00</time></trkpt><trkpt lat="39.45726846" lon="-0.38813409"><ele>24.4</ele><time>2022-11-06T12:58:14.0000000+00:00</time></trkpt><trkpt lat="39.45725069" lon="-0.38812403"><ele>24.4</ele><time>2022-11-06T12:58:15.0000000+00:00</time></trkpt><trkpt lat="39.45723988" lon="-0.38811824"><ele>24.4</ele><time>2022-11-06T12:58:16.0000000+00:00</time></trkpt><trkpt lat="39.45724927" lon="-0.38809679"><ele>24.4</ele><time>2022-11-06T12:58:17.0000000+00:00</time></trkpt><trkpt lat="39.45726536" lon="-0.3880729"><ele>24.4</ele><time>2022-11-06T12:58:18.0000000+00:00</time></trkpt><trkpt lat="39.45727106" lon="-0.3880501"><ele>24.4</ele><time>2022-11-06T12:58:19.0000000+00:00</time></trkpt><trkpt lat="39.45725581" lon="-0.38804289"><ele>24.4</ele><time>2022-11-06T12:58:20.0000000+00:00</time></trkpt><trkpt lat="39.45723577" lon="-0.38804649"><ele>24.4</ele><time>2022-11-06T12:58:21.0000000+00:00</time></trkpt><trkpt lat="39.45721968" lon="-0.38804314"><ele>24.6</ele><time>2022-11-06T12:58:22.0000000+00:00</time></trkpt><trkpt lat="39.45719898" lon="-0.38804205"><ele>24.6</ele><time>2022-11-06T12:58:23.0000000+00:00</time></trkpt><trkpt lat="39.45719319" lon="-0.38802453"><ele>24.6</ele><time>2022-11-06T12:58:24.0000000+00:00</time></trkpt><trkpt lat="39.45718733" lon="-0.3880014"><ele>24.6</ele><time>2022-11-06T12:58:25.0000000+00:00</time></trkpt><trkpt lat="39.45717299" lon="-0.38798288"><ele>24.6</ele><time>2022-11-06T12:58:26.0000000+00:00</time></trkpt><trkpt lat="39.45716176" lon="-0.38797801"><ele>24.6</ele><time>2022-11-06T12:58:27.0000000+00:00</time></trkpt><trkpt lat="39.45715355" lon="-0.38797022"><ele>24.6</ele><time>2022-11-06T12:58:28.0000000+00:00</time></trkpt><trkpt lat="39.4571424" lon="-0.38796787"><ele>24.6</ele><time>2022-11-06T12:58:29.0000000+00:00</time></trkpt><trkpt lat="39.4571424" lon="-0.38795974"><ele>24.6</ele><time>2022-11-06T12:58:30.0000000+00:00</time></trkpt><trkpt lat="39.45715196" lon="-0.38793954"><ele>24.6</ele><time>2022-11-06T12:58:31.0000000+00:00</time></trkpt><trkpt lat="39.45715606" lon="-0.38792345"><ele>24.6</ele><time>2022-11-06T12:58:32.0000000+00:00</time></trkpt><trkpt lat="39.45715053" lon="-0.38791121"><ele>24.6</ele><time>2022-11-06T12:58:33.0000000+00:00</time></trkpt><trkpt lat="39.45711633" lon="-0.38790107"><ele>24.6</ele><time>2022-11-06T12:58:34.0000000+00:00</time></trkpt><trkpt lat="39.45710443" lon="-0.38789026"><ele>24.6</ele><time>2022-11-06T12:58:35.0000000+00:00</time></trkpt><trkpt lat="39.45710317" lon="-0.38787022"><ele>24.4</ele><time>2022-11-06T12:58:36.0000000+00:00</time></trkpt><trkpt lat="39.45710116" lon="-0.3878486"><ele>24.4</ele><time>2022-11-06T12:58:37.0000000+00:00</time></trkpt><trkpt lat="39.45710208" lon="-0.38782379"><ele>24.4</ele><time>2022-11-06T12:58:38.0000000+00:00</time></trkpt><trkpt lat="39.45710451" lon="-0.38779772"><ele>24.4</ele><time>2022-11-06T12:58:39.0000000+00:00</time></trkpt><trkpt lat="39.45711499" lon="-0.38777467"><ele>24.4</ele><time>2022-11-06T12:58:40.0000000+00:00</time></trkpt><trkpt lat="39.45712388" lon="-0.38774734"><ele>24.4</ele><time>2022-11-06T12:58:41.0000000+00:00</time></trkpt><trkpt lat="39.45713444" lon="-0.38772765"><ele>24.4</ele><time>2022-11-06T12:58:42.0000000+00:00</time></trkpt><trkpt lat="39.4571424" lon="-0.3877103"><ele>24.4</ele><time>2022-11-06T12:58:43.0000000+00:00</time></trkpt><trkpt lat="39.45714609" lon="-0.3876942"><ele>24.4</ele><time>2022-11-06T12:58:44.0000000+00:00</time></trkpt><trkpt lat="39.45714776" lon="-0.38767844"><ele>24.4</ele><time>2022-11-06T12:58:45.0000000+00:00</time></trkpt><trkpt lat="39.45714768" lon="-0.38766361"><ele>24.4</ele><time>2022-11-06T12:58:46.0000000+00:00</time></trkpt><trkpt lat="39.45713754" lon="-0.38764777"><ele>24.4</ele><time>2022-11-06T12:58:47.0000000+00:00</time></trkpt><trkpt lat="39.45713419" lon="-0.38764182"><ele>24.4</ele><time>2022-11-06T12:58:48.0000000+00:00</time></trkpt><trkpt lat="39.45713243" lon="-0.38763578"><ele>24.4</ele><time>2022-11-06T12:58:49.0000000+00:00</time></trkpt><trkpt lat="39.45713561" lon="-0.38761684"><ele>24.4</ele><time>2022-11-06T12:58:50.0000000+00:00</time></trkpt><trkpt lat="39.45712555" lon="-0.38759697"><ele>24.4</ele><time>2022-11-06T12:58:51.0000000+00:00</time></trkpt><trkpt lat="39.45711969" lon="-0.38757493"><ele>24.4</ele><time>2022-11-06T12:58:52.0000000+00:00</time></trkpt><trkpt lat="39.45711616" lon="-0.38755272"><ele>24.4</ele><time>2022-11-06T12:58:53.0000000+00:00</time></trkpt><trkpt lat="39.45711206" lon="-0.38753319"><ele>24.6</ele><time>2022-11-06T12:58:54.0000000+00:00</time></trkpt><trkpt lat="39.45711658" lon="-0.38751701"><ele>24.4</ele><time>2022-11-06T12:58:55.0000000+00:00</time></trkpt><trkpt lat="39.45712145" lon="-0.38750025"><ele>24.4</ele><time>2022-11-06T12:58:56.0000000+00:00</time></trkpt><trkpt lat="39.45713142" lon="-0.38745364"><ele>24.4</ele><time>2022-11-06T12:58:57.0000000+00:00</time></trkpt><trkpt lat="39.45714005" lon="-0.38742984"><ele>24.4</ele><time>2022-11-06T12:58:58.0000000+00:00</time></trkpt><trkpt lat="39.45713779" lon="-0.38740696"><ele>24.4</ele><time>2022-11-06T12:58:59.0000000+00:00</time></trkpt><trkpt lat="39.45715908" lon="-0.38735658"><ele>24.4</ele><time>2022-11-06T12:59:00.0000000+00:00</time></trkpt><trkpt lat="39.45714508" lon="-0.38731727"><ele>24.4</ele><time>2022-11-06T12:59:01.0000000+00:00</time></trkpt><trkpt lat="39.45715539" lon="-0.38727854"><ele>24.4</ele><time>2022-11-06T12:59:02.0000000+00:00</time></trkpt><trkpt lat="39.45716369" lon="-0.38723923"><ele>24.4</ele><time>2022-11-06T12:59:03.0000000+00:00</time></trkpt><trkpt lat="39.45715698" lon="-0.38722524"><ele>24.4</ele><time>2022-11-06T12:59:04.0000000+00:00</time></trkpt><trkpt lat="39.45713553" lon="-0.3872596"><ele>24.4</ele><time>2022-11-06T12:59:05.0000000+00:00</time></trkpt><trkpt lat="39.45712136" lon="-0.38726606"><ele>24.4</ele><time>2022-11-06T12:59:06.0000000+00:00</time></trkpt><trkpt lat="39.4571191" lon="-0.38726505"><ele>24.4</ele><time>2022-11-06T12:59:07.0000000+00:00</time></trkpt><trkpt lat="39.45712991" lon="-0.38726069"><ele>24.4</ele><time>2022-11-06T12:59:08.0000000+00:00</time></trkpt><trkpt lat="39.45713402" lon="-0.38724845"><ele>24.4</ele><time>2022-11-06T12:59:09.0000000+00:00</time></trkpt><trkpt lat="39.45714114" lon="-0.38723035"><ele>24.4</ele><time>2022-11-06T12:59:10.0000000+00:00</time></trkpt><trkpt lat="39.45715564" lon="-0.38722834"><ele>24.4</ele><time>2022-11-06T12:59:11.0000000+00:00</time></trkpt><trkpt lat="39.45716369" lon="-0.3872156"><ele>24.2</ele><time>2022-11-06T12:59:12.0000000+00:00</time></trkpt><trkpt lat="39.45717509" lon="-0.38722063"><ele>24.4</ele><time>2022-11-06T12:59:13.0000000+00:00</time></trkpt><trkpt lat="39.4571849" lon="-0.38722046"><ele>24.2</ele><time>2022-11-06T12:59:14.0000000+00:00</time></trkpt><trkpt lat="39.45718565" lon="-0.38721476"><ele>24.2</ele><time>2022-11-06T12:59:15.0000000+00:00</time></trkpt><trkpt lat="39.4571916" lon="-0.38721677"><ele>24.2</ele><time>2022-11-06T12:59:16.0000000+00:00</time></trkpt><trkpt lat="39.45719563" lon="-0.3872197"><ele>24.2</ele><time>2022-11-06T12:59:17.0000000+00:00</time></trkpt><trkpt lat="39.4572025" lon="-0.38722607"><ele>24.2</ele><time>2022-11-06T12:59:18.0000000+00:00</time></trkpt><trkpt lat="39.45720476" lon="-0.38722917"><ele>24.2</ele><time>2022-11-06T12:59:19.0000000+00:00</time></trkpt><trkpt lat="39.45721557" lon="-0.38723387"><ele>24.2</ele><time>2022-11-06T12:59:20.0000000+00:00</time></trkpt><trkpt lat="39.4572284" lon="-0.38723378"><ele>24.2</ele><time>2022-11-06T12:59:21.0000000+00:00</time></trkpt><trkpt lat="39.45723066" lon="-0.38723454"><ele>24.2</ele><time>2022-11-06T12:59:22.0000000+00:00</time></trkpt><trkpt lat="39.45723712" lon="-0.38721987"><ele>24.2</ele><time>2022-11-06T12:59:23.0000000+00:00</time></trkpt><trkpt lat="39.45724256" lon="-0.38719975"><ele>24.2</ele><time>2022-11-06T12:59:24.0000000+00:00</time></trkpt><trkpt lat="39.45727576" lon="-0.38723169"><ele>24.2</ele><time>2022-11-06T12:59:25.0000000+00:00</time></trkpt><trkpt lat="39.45728347" lon="-0.38723999"><ele>24.2</ele><time>2022-11-06T12:59:26.0000000+00:00</time></trkpt><trkpt lat="39.45728665" lon="-0.38724141"><ele>24.0</ele><time>2022-11-06T12:59:27.0000000+00:00</time></trkpt><trkpt lat="39.4572885" lon="-0.38724158"><ele>24.0</ele><time>2022-11-06T12:59:28.0000000+00:00</time></trkpt><trkpt lat="39.45729084" lon="-0.38724301"><ele>24.0</ele><time>2022-11-06T12:59:29.0000000+00:00</time></trkpt><trkpt lat="39.45729529" lon="-0.3872394"><ele>24.0</ele><time>2022-11-06T12:59:30.0000000+00:00</time></trkpt><trkpt lat="39.45730275" lon="-0.38724208"><ele>24.0</ele><time>2022-11-06T12:59:31.0000000+00:00</time></trkpt><trkpt lat="39.45730928" lon="-0.38724585"><ele>24.0</ele><time>2022-11-06T12:59:32.0000000+00:00</time></trkpt><trkpt lat="39.45731331" lon="-0.38725248"><ele>24.0</ele><time>2022-11-06T12:59:33.0000000+00:00</time></trkpt><trkpt lat="39.45731062" lon="-0.38724384"><ele>24.0</ele><time>2022-11-06T12:59:34.0000000+00:00</time></trkpt><trkpt lat="39.45731113" lon="-0.38724518"><ele>24.0</ele><time>2022-11-06T12:59:35.0000000+00:00</time></trkpt><trkpt lat="39.45731071" lon="-0.38724795"><ele>23.8</ele><time>2022-11-06T12:59:36.0000000+00:00</time></trkpt><trkpt lat="39.45731222" lon="-0.38725114"><ele>23.8</ele><time>2022-11-06T12:59:37.0000000+00:00</time></trkpt><trkpt lat="39.4573128" lon="-0.38724904"><ele>23.8</ele><time>2022-11-06T12:59:38.0000000+00:00</time></trkpt><trkpt lat="39.45731054" lon="-0.38724518"><ele>24.0</ele><time>2022-11-06T12:59:39.0000000+00:00</time></trkpt><trkpt lat="39.4573087" lon="-0.38724468"><ele>24.0</ele><time>2022-11-06T12:59:40.0000000+00:00</time></trkpt><trkpt lat="39.45731532" lon="-0.38724342"><ele>24.0</ele><time>2022-11-06T12:59:41.0000000+00:00</time></trkpt><trkpt lat="39.45732052" lon="-0.38724829"><ele>24.0</ele><time>2022-11-06T12:59:42.0000000+00:00</time></trkpt><trkpt lat="39.45733124" lon="-0.3872529"><ele>24.0</ele><time>2022-11-06T12:59:43.0000000+00:00</time></trkpt><trkpt lat="39.45733829" lon="-0.38725038"><ele>24.0</ele><time>2022-11-06T12:59:44.0000000+00:00</time></trkpt><trkpt lat="39.45734357" lon="-0.38725013"><ele>23.8</ele><time>2022-11-06T12:59:45.0000000+00:00</time></trkpt><trkpt lat="39.45734449" lon="-0.38724787"><ele>23.8</ele><time>2022-11-06T12:59:46.0000000+00:00</time></trkpt><trkpt lat="39.45733753" lon="-0.3872451"><ele>23.8</ele><time>2022-11-06T12:59:47.0000000+00:00</time></trkpt><trkpt lat="39.45733057" lon="-0.38723731"><ele>23.8</ele><time>2022-11-06T12:59:48.0000000+00:00</time></trkpt><trkpt lat="39.45732412" lon="-0.38722574"><ele>23.8</ele><time>2022-11-06T12:59:49.0000000+00:00</time></trkpt><trkpt lat="39.45731197" lon="-0.38721182"><ele>23.8</ele><time>2022-11-06T12:59:50.0000000+00:00</time></trkpt><trkpt lat="39.4573035" lon="-0.38719598"><ele>23.8</ele><time>2022-11-06T12:59:51.0000000+00:00</time></trkpt><trkpt lat="39.45728716" lon="-0.38717805"><ele>23.8</ele><time>2022-11-06T12:59:52.0000000+00:00</time></trkpt><trkpt lat="39.45726436" lon="-0.38715416"><ele>23.8</ele><time>2022-11-06T12:59:53.0000000+00:00</time></trkpt><trkpt lat="39.45724508" lon="-0.38712968"><ele>23.8</ele><time>2022-11-06T12:59:54.0000000+00:00</time></trkpt><trkpt lat="39.45725388" lon="-0.38710672"><ele>23.8</ele><time>2022-11-06T12:59:55.0000000+00:00</time></trkpt><trkpt lat="39.45725547" lon="-0.38708593"><ele>23.8</ele><time>2022-11-06T12:59:56.0000000+00:00</time></trkpt><trkpt lat="39.45724927" lon="-0.38706724"><ele>23.8</ele><time>2022-11-06T12:59:57.0000000+00:00</time></trkpt><trkpt lat="39.45724114" lon="-0.38705098"><ele>23.8</ele><time>2022-11-06T12:59:58.0000000+00:00</time></trkpt><trkpt lat="39.45722488" lon="-0.38704896"><ele>23.8</ele><time>2022-11-06T12:59:59.0000000+00:00</time></trkpt><trkpt lat="39.45721683" lon="-0.3870405"><ele>23.8</ele><time>2022-11-06T13:00:00.0000000+00:00</time></trkpt><trkpt lat="39.45721951" lon="-0.38703606"><ele>23.8</ele><time>2022-11-06T13:00:01.0000000+00:00</time></trkpt><trkpt lat="39.45722085" lon="-0.38702466"><ele>23.8</ele><time>2022-11-06T13:00:02.0000000+00:00</time></trkpt><trkpt lat="39.45722018" lon="-0.38701317"><ele>23.8</ele><time>2022-11-06T13:00:03.0000000+00:00</time></trkpt><trkpt lat="39.45721977" lon="-0.38700228"><ele>23.8</ele><time>2022-11-06T13:00:04.0000000+00:00</time></trkpt><trkpt lat="39.45720728" lon="-0.38699331"><ele>24.0</ele><time>2022-11-06T13:00:05.0000000+00:00</time></trkpt><trkpt lat="39.45719722" lon="-0.38698669"><ele>24.0</ele><time>2022-11-06T13:00:06.0000000+00:00</time></trkpt><trkpt lat="39.45718112" lon="-0.38698719"><ele>24.0</ele><time>2022-11-06T13:00:07.0000000+00:00</time></trkpt><trkpt lat="39.45717216" lon="-0.38699716"><ele>24.0</ele><time>2022-11-06T13:00:08.0000000+00:00</time></trkpt><trkpt lat="39.45716889" lon="-0.38699691"><ele>24.0</ele><time>2022-11-06T13:00:09.0000000+00:00</time></trkpt><trkpt lat="39.45718766" lon="-0.38698476"><ele>24.0</ele><time>2022-11-06T13:00:10.0000000+00:00</time></trkpt><trkpt lat="39.45719051" lon="-0.38697043"><ele>24.0</ele><time>2022-11-06T13:00:11.0000000+00:00</time></trkpt><trkpt lat="39.45717006" lon="-0.38697847"><ele>24.0</ele><time>2022-11-06T13:00:12.0000000+00:00</time></trkpt><trkpt lat="39.45713888" lon="-0.38699658"><ele>23.8</ele><time>2022-11-06T13:00:13.0000000+00:00</time></trkpt><trkpt lat="39.45711214" lon="-0.38700538"><ele>23.8</ele><time>2022-11-06T13:00:14.0000000+00:00</time></trkpt><trkpt lat="39.45707434" lon="-0.38701477"><ele>23.8</ele><time>2022-11-06T13:00:15.0000000+00:00</time></trkpt><trkpt lat="39.45704651" lon="-0.38701141"><ele>23.8</ele><time>2022-11-06T13:00:16.0000000+00:00</time></trkpt><trkpt lat="39.45701516" lon="-0.38702809"><ele>23.8</ele><time>2022-11-06T13:00:17.0000000+00:00</time></trkpt><trkpt lat="39.45700318" lon="-0.38703086"><ele>23.8</ele><time>2022-11-06T13:00:18.0000000+00:00</time></trkpt><trkpt lat="39.45698415" lon="-0.38703849"><ele>23.8</ele><time>2022-11-06T13:00:19.0000000+00:00</time></trkpt><trkpt lat="39.456958" lon="-0.38704989"><ele>23.8</ele><time>2022-11-06T13:00:20.0000000+00:00</time></trkpt><trkpt lat="39.45694526" lon="-0.38705056"><ele>23.8</ele><time>2022-11-06T13:00:21.0000000+00:00</time></trkpt><trkpt lat="39.45694886" lon="-0.38704251"><ele>23.8</ele><time>2022-11-06T13:00:22.0000000+00:00</time></trkpt><trkpt lat="39.45694442" lon="-0.3870431"><ele>23.8</ele><time>2022-11-06T13:00:23.0000000+00:00</time></trkpt><trkpt lat="39.45693503" lon="-0.38704108"><ele>23.8</ele><time>2022-11-06T13:00:24.0000000+00:00</time></trkpt><trkpt lat="39.45693445" lon="-0.38704067"><ele>23.8</ele><time>2022-11-06T13:00:25.0000000+00:00</time></trkpt><trkpt lat="39.45693252" lon="-0.38703857"><ele>23.8</ele><time>2022-11-06T13:00:26.0000000+00:00</time></trkpt><trkpt lat="39.45692883" lon="-0.38703798"><ele>24.0</ele><time>2022-11-06T13:00:27.0000000+00:00</time></trkpt><trkpt lat="39.456916" lon="-0.38704653"><ele>24.0</ele><time>2022-11-06T13:00:28.0000000+00:00</time></trkpt><trkpt lat="39.45691265" lon="-0.38705357"><ele>24.0</ele><time>2022-11-06T13:00:29.0000000+00:00</time></trkpt><trkpt lat="39.45689849" lon="-0.38705844"><ele>24.0</ele><time>2022-11-06T13:00:30.0000000+00:00</time></trkpt><trkpt lat="39.45689488" lon="-0.38705022"><ele>24.0</ele><time>2022-11-06T13:00:31.0000000+00:00</time></trkpt><trkpt lat="39.45690653" lon="-0.3870457"><ele>24.0</ele><time>2022-11-06T13:00:32.0000000+00:00</time></trkpt><trkpt lat="39.45691517" lon="-0.3870384"><ele>24.0</ele><time>2022-11-06T13:00:33.0000000+00:00</time></trkpt><trkpt lat="39.45692229" lon="-0.38703329"><ele>24.0</ele><time>2022-11-06T13:00:34.0000000+00:00</time></trkpt><trkpt lat="39.45692011" lon="-0.38703622"><ele>23.8</ele><time>2022-11-06T13:00:35.0000000+00:00</time></trkpt><trkpt lat="39.45690176" lon="-0.38704092"><ele>23.8</ele><time>2022-11-06T13:00:36.0000000+00:00</time></trkpt><trkpt lat="39.4568803" lon="-0.38704578"><ele>23.6</ele><time>2022-11-06T13:00:37.0000000+00:00</time></trkpt><trkpt lat="39.45685297" lon="-0.3870467"><ele>23.6</ele><time>2022-11-06T13:00:38.0000000+00:00</time></trkpt><trkpt lat="39.45682556" lon="-0.38704452"><ele>23.8</ele><time>2022-11-06T13:00:39.0000000+00:00</time></trkpt><trkpt lat="39.45682271" lon="-0.38704528"><ele>23.8</ele><time>2022-11-06T13:00:40.0000000+00:00</time></trkpt><trkpt lat="39.45682079" lon="-0.38704192"><ele>23.8</ele><time>2022-11-06T13:00:41.0000000+00:00</time></trkpt><trkpt lat="39.4567943" lon="-0.38702172"><ele>23.8</ele><time>2022-11-06T13:00:42.0000000+00:00</time></trkpt><trkpt lat="39.45677854" lon="-0.38700689"><ele>23.8</ele><time>2022-11-06T13:00:43.0000000+00:00</time></trkpt><trkpt lat="39.45676195" lon="-0.38700152"><ele>23.8</ele><time>2022-11-06T13:00:44.0000000+00:00</time></trkpt><trkpt lat="39.45675289" lon="-0.38699197"><ele>23.6</ele><time>2022-11-06T13:00:45.0000000+00:00</time></trkpt><trkpt lat="39.45674585" lon="-0.38698442"><ele>23.6</ele><time>2022-11-06T13:00:46.0000000+00:00</time></trkpt><trkpt lat="39.45674283" lon="-0.38696908"><ele>23.6</ele><time>2022-11-06T13:00:47.0000000+00:00</time></trkpt><trkpt lat="39.45673537" lon="-0.38695039"><ele>23.6</ele><time>2022-11-06T13:00:48.0000000+00:00</time></trkpt><trkpt lat="39.45673487" lon="-0.3869436"><ele>23.6</ele><time>2022-11-06T13:00:49.0000000+00:00</time></trkpt><trkpt lat="39.45672842" lon="-0.38692894"><ele>23.6</ele><time>2022-11-06T13:00:50.0000000+00:00</time></trkpt><trkpt lat="39.45672565" lon="-0.38690773"><ele>23.6</ele><time>2022-11-06T13:00:51.0000000+00:00</time></trkpt><trkpt lat="39.45672138" lon="-0.38689616"><ele>23.6</ele><time>2022-11-06T13:00:52.0000000+00:00</time></trkpt><trkpt lat="39.4567145" lon="-0.38688711"><ele>23.6</ele><time>2022-11-06T13:00:53.0000000+00:00</time></trkpt><trkpt lat="39.45670662" lon="-0.38688099"><ele>23.6</ele><time>2022-11-06T13:00:54.0000000+00:00</time></trkpt><trkpt lat="39.45670067" lon="-0.38687202"><ele>23.6</ele><time>2022-11-06T13:00:55.0000000+00:00</time></trkpt><trkpt lat="39.45670486" lon="-0.38687076"><ele>23.6</ele><time>2022-11-06T13:00:56.0000000+00:00</time></trkpt><trkpt lat="39.45670101" lon="-0.38686783"><ele>23.6</ele><time>2022-11-06T13:00:57.0000000+00:00</time></trkpt><trkpt lat="39.4566964" lon="-0.38686129"><ele>23.6</ele><time>2022-11-06T13:00:58.0000000+00:00</time></trkpt><trkpt lat="39.45669137" lon="-0.3868535"><ele>23.6</ele><time>2022-11-06T13:00:59.0000000+00:00</time></trkpt><trkpt lat="39.45668877" lon="-0.38684252"><ele>23.6</ele><time>2022-11-06T13:01:00.0000000+00:00</time></trkpt><trkpt lat="39.45667762" lon="-0.38683254"><ele>23.6</ele><time>2022-11-06T13:01:01.0000000+00:00</time></trkpt><trkpt lat="39.45666581" lon="-0.38682098"><ele>23.6</ele><time>2022-11-06T13:01:02.0000000+00:00</time></trkpt><trkpt lat="39.4566529" lon="-0.38680195"><ele>23.6</ele><time>2022-11-06T13:01:03.0000000+00:00</time></trkpt><trkpt lat="39.4566456" lon="-0.38678267"><ele>23.6</ele><time>2022-11-06T13:01:04.0000000+00:00</time></trkpt><trkpt lat="39.45664217" lon="-0.38677429"><ele>23.6</ele><time>2022-11-06T13:01:05.0000000+00:00</time></trkpt><trkpt lat="39.45663923" lon="-0.3867556"><ele>23.6</ele><time>2022-11-06T13:01:06.0000000+00:00</time></trkpt><trkpt lat="39.45663647" lon="-0.38673816"><ele>23.6</ele><time>2022-11-06T13:01:07.0000000+00:00</time></trkpt><trkpt lat="39.45662767" lon="-0.3867162"><ele>23.6</ele><time>2022-11-06T13:01:08.0000000+00:00</time></trkpt><trkpt lat="39.4566244" lon="-0.38670941"><ele>23.6</ele><time>2022-11-06T13:01:09.0000000+00:00</time></trkpt><trkpt lat="39.45661635" lon="-0.3866981"><ele>23.6</ele><time>2022-11-06T13:01:10.0000000+00:00</time></trkpt><trkpt lat="39.45661384" lon="-0.38670003"><ele>23.6</ele><time>2022-11-06T13:01:11.0000000+00:00</time></trkpt><trkpt lat="39.45659858" lon="-0.38669148"><ele>23.6</ele><time>2022-11-06T13:01:12.0000000+00:00</time></trkpt><trkpt lat="39.45658651" lon="-0.38668259"><ele>23.6</ele><time>2022-11-06T13:01:13.0000000+00:00</time></trkpt><trkpt lat="39.4565752" lon="-0.38667429"><ele>23.6</ele><time>2022-11-06T13:01:14.0000000+00:00</time></trkpt><trkpt lat="39.45656958" lon="-0.38664965"><ele>23.6</ele><time>2022-11-06T13:01:15.0000000+00:00</time></trkpt><trkpt lat="39.45656438" lon="-0.3866266"><ele>23.6</ele><time>2022-11-06T13:01:16.0000000+00:00</time></trkpt><trkpt lat="39.45654997" lon="-0.38661017"><ele>23.6</ele><time>2022-11-06T13:01:17.0000000+00:00</time></trkpt><trkpt lat="39.45653848" lon="-0.38659986"><ele>23.6</ele><time>2022-11-06T13:01:18.0000000+00:00</time></trkpt><trkpt lat="39.45653874" lon="-0.38659466"><ele>23.6</ele><time>2022-11-06T13:01:19.0000000+00:00</time></trkpt><trkpt lat="39.45652952" lon="-0.38657371"><ele>23.6</ele><time>2022-11-06T13:01:20.0000000+00:00</time></trkpt><trkpt lat="39.45653111" lon="-0.38655628"><ele>23.6</ele><time>2022-11-06T13:01:21.0000000+00:00</time></trkpt><trkpt lat="39.45652968" lon="-0.38654488"><ele>23.6</ele><time>2022-11-06T13:01:22.0000000+00:00</time></trkpt><trkpt lat="39.45653387" lon="-0.38653004"><ele>23.6</ele><time>2022-11-06T13:01:23.0000000+00:00</time></trkpt><trkpt lat="39.45654804" lon="-0.38651671"><ele>23.6</ele><time>2022-11-06T13:01:24.0000000+00:00</time></trkpt><trkpt lat="39.45654997" lon="-0.38649567"><ele>23.6</ele><time>2022-11-06T13:01:25.0000000+00:00</time></trkpt><trkpt lat="39.45654159" lon="-0.38647925"><ele>23.4</ele><time>2022-11-06T13:01:26.0000000+00:00</time></trkpt><trkpt lat="39.45653413" lon="-0.38644907"><ele>23.4</ele><time>2022-11-06T13:01:27.0000000+00:00</time></trkpt><trkpt lat="39.45652566" lon="-0.38643608"><ele>23.4</ele><time>2022-11-06T13:01:28.0000000+00:00</time></trkpt><trkpt lat="39.45651954" lon="-0.38642284"><ele>23.4</ele><time>2022-11-06T13:01:29.0000000+00:00</time></trkpt><trkpt lat="39.45652105" lon="-0.38641026"><ele>23.4</ele><time>2022-11-06T13:01:30.0000000+00:00</time></trkpt><trkpt lat="39.45651049" lon="-0.38641529"><ele>23.4</ele><time>2022-11-06T13:01:31.0000000+00:00</time></trkpt><trkpt lat="39.45650789" lon="-0.38642443"><ele>23.4</ele><time>2022-11-06T13:01:32.0000000+00:00</time></trkpt><trkpt lat="39.45651292" lon="-0.38641881"><ele>23.4</ele><time>2022-11-06T13:01:33.0000000+00:00</time></trkpt><trkpt lat="39.45653153" lon="-0.38640993"><ele>23.4</ele><time>2022-11-06T13:01:34.0000000+00:00</time></trkpt><trkpt lat="39.45654661" lon="-0.38640657"><ele>23.4</ele><time>2022-11-06T13:01:35.0000000+00:00</time></trkpt><trkpt lat="39.45655298" lon="-0.38640113"><ele>23.4</ele><time>2022-11-06T13:01:36.0000000+00:00</time></trkpt><trkpt lat="39.45655483" lon="-0.38639786"><ele>23.4</ele><time>2022-11-06T13:01:37.0000000+00:00</time></trkpt><trkpt lat="39.45655701" lon="-0.3863935"><ele>23.4</ele><time>2022-11-06T13:01:38.0000000+00:00</time></trkpt><trkpt lat="39.45655709" lon="-0.38639023"><ele>23.4</ele><time>2022-11-06T13:01:39.0000000+00:00</time></trkpt><trkpt lat="39.45655659" lon="-0.3863816"><ele>23.4</ele><time>2022-11-06T13:01:40.0000000+00:00</time></trkpt><trkpt lat="39.45655533" lon="-0.38637347"><ele>23.4</ele><time>2022-11-06T13:01:41.0000000+00:00</time></trkpt><trkpt lat="39.45654678" lon="-0.38635"><ele>23.4</ele><time>2022-11-06T13:01:42.0000000+00:00</time></trkpt><trkpt lat="39.45654368" lon="-0.38633474"><ele>23.4</ele><time>2022-11-06T13:01:43.0000000+00:00</time></trkpt><trkpt lat="39.45654393" lon="-0.38632426"><ele>23.2</ele><time>2022-11-06T13:01:44.0000000+00:00</time></trkpt><trkpt lat="39.45654226" lon="-0.3863184"><ele>23.2</ele><time>2022-11-06T13:01:45.0000000+00:00</time></trkpt><trkpt lat="39.45653404" lon="-0.3863184"><ele>23.2</ele><time>2022-11-06T13:01:46.0000000+00:00</time></trkpt><trkpt lat="39.45653731" lon="-0.38633868"><ele>23.2</ele><time>2022-11-06T13:01:47.0000000+00:00</time></trkpt><trkpt lat="39.45653211" lon="-0.38634027"><ele>23.2</ele><time>2022-11-06T13:01:48.0000000+00:00</time></trkpt><trkpt lat="39.4565244" lon="-0.38634405"><ele>23.2</ele><time>2022-11-06T13:01:49.0000000+00:00</time></trkpt><trkpt lat="39.45651962" lon="-0.38634522"><ele>23.2</ele><time>2022-11-06T13:01:50.0000000+00:00</time></trkpt><trkpt lat="39.45651409" lon="-0.38633374"><ele>23.2</ele><time>2022-11-06T13:01:51.0000000+00:00</time></trkpt><trkpt lat="39.45648626" lon="-0.38632443"><ele>23.2</ele><time>2022-11-06T13:01:52.0000000+00:00</time></trkpt><trkpt lat="39.45648291" lon="-0.38630339"><ele>23.2</ele><time>2022-11-06T13:01:53.0000000+00:00</time></trkpt><trkpt lat="39.45647361" lon="-0.38629778"><ele>23.2</ele><time>2022-11-06T13:01:54.0000000+00:00</time></trkpt><trkpt lat="39.45646321" lon="-0.38629434"><ele>23.2</ele><time>2022-11-06T13:01:55.0000000+00:00</time></trkpt><trkpt lat="39.45645592" lon="-0.38629124"><ele>23.2</ele><time>2022-11-06T13:01:56.0000000+00:00</time></trkpt><trkpt lat="39.45644301" lon="-0.38628713"><ele>23.2</ele><time>2022-11-06T13:01:57.0000000+00:00</time></trkpt><trkpt lat="39.45643405" lon="-0.38628068"><ele>23.2</ele><time>2022-11-06T13:01:58.0000000+00:00</time></trkpt><trkpt lat="39.45643036" lon="-0.38626987"><ele>23.0</ele><time>2022-11-06T13:01:59.0000000+00:00</time></trkpt><trkpt lat="39.4564296" lon="-0.38625159"><ele>23.0</ele><time>2022-11-06T13:02:00.0000000+00:00</time></trkpt><trkpt lat="39.4564229" lon="-0.38622561"><ele>23.0</ele><time>2022-11-06T13:02:01.0000000+00:00</time></trkpt><trkpt lat="39.45641485" lon="-0.38619409"><ele>23.2</ele><time>2022-11-06T13:02:02.0000000+00:00</time></trkpt><trkpt lat="39.45641234" lon="-0.38616325"><ele>23.2</ele><time>2022-11-06T13:02:03.0000000+00:00</time></trkpt><trkpt lat="39.45641133" lon="-0.3861376"><ele>23.2</ele><time>2022-11-06T13:02:04.0000000+00:00</time></trkpt><trkpt lat="39.45640421" lon="-0.38610659"><ele>23.2</ele><time>2022-11-06T13:02:05.0000000+00:00</time></trkpt><trkpt lat="39.45640597" lon="-0.38607339"><ele>23.2</ele><time>2022-11-06T13:02:06.0000000+00:00</time></trkpt><trkpt lat="39.45640278" lon="-0.38604884"><ele>23.2</ele><time>2022-11-06T13:02:07.0000000+00:00</time></trkpt><trkpt lat="39.4564006" lon="-0.38602511"><ele>23.2</ele><time>2022-11-06T13:02:08.0000000+00:00</time></trkpt><trkpt lat="39.45640194" lon="-0.38599745"><ele>23.2</ele><time>2022-11-06T13:02:09.0000000+00:00</time></trkpt><trkpt lat="39.45641628" lon="-0.38598572"><ele>23.2</ele><time>2022-11-06T13:02:10.0000000+00:00</time></trkpt><trkpt lat="39.45643849" lon="-0.38596259"><ele>23.2</ele><time>2022-11-06T13:02:11.0000000+00:00</time></trkpt><trkpt lat="39.45643539" lon="-0.38593384"><ele>23.2</ele><time>2022-11-06T13:02:12.0000000+00:00</time></trkpt><trkpt lat="39.45643505" lon="-0.38590626"><ele>23.2</ele><time>2022-11-06T13:02:13.0000000+00:00</time></trkpt><trkpt lat="39.45642659" lon="-0.3858739"><ele>23.2</ele><time>2022-11-06T13:02:14.0000000+00:00</time></trkpt><trkpt lat="39.45642114" lon="-0.38584365"><ele>23.2</ele><time>2022-11-06T13:02:15.0000000+00:00</time></trkpt><trkpt lat="39.45641292" lon="-0.38582085"><ele>23.2</ele><time>2022-11-06T13:02:16.0000000+00:00</time></trkpt><trkpt lat="39.4564141" lon="-0.38580693"><ele>23.4</ele><time>2022-11-06T13:02:17.0000000+00:00</time></trkpt><trkpt lat="39.4564146" lon="-0.3858009"><ele>23.4</ele><time>2022-11-06T13:02:18.0000000+00:00</time></trkpt><trkpt lat="39.45641644" lon="-0.38578874"><ele>23.4</ele><time>2022-11-06T13:02:19.0000000+00:00</time></trkpt><trkpt lat="39.45641393" lon="-0.38578598"><ele>23.4</ele><time>2022-11-06T13:02:20.0000000+00:00</time></trkpt><trkpt lat="39.45641385" lon="-0.38578397"><ele>23.2</ele><time>2022-11-06T13:02:21.0000000+00:00</time></trkpt><trkpt lat="39.45641586" lon="-0.3857781"><ele>23.2</ele><time>2022-11-06T13:02:22.0000000+00:00</time></trkpt><trkpt lat="39.45641317" lon="-0.38577642"><ele>23.2</ele><time>2022-11-06T13:02:23.0000000+00:00</time></trkpt><trkpt lat="39.45641049" lon="-0.38575991"><ele>23.2</ele><time>2022-11-06T13:02:24.0000000+00:00</time></trkpt><trkpt lat="39.45640706" lon="-0.38574834"><ele>23.2</ele><time>2022-11-06T13:02:25.0000000+00:00</time></trkpt><trkpt lat="39.45640781" lon="-0.38573225"><ele>23.0</ele><time>2022-11-06T13:02:26.0000000+00:00</time></trkpt><trkpt lat="39.45640747" lon="-0.38572161"><ele>23.0</ele><time>2022-11-06T13:02:27.0000000+00:00</time></trkpt><trkpt lat="39.45641007" lon="-0.38571012"><ele>23.0</ele><time>2022-11-06T13:02:28.0000000+00:00</time></trkpt><trkpt lat="39.45640907" lon="-0.38570467"><ele>23.0</ele><time>2022-11-06T13:02:29.0000000+00:00</time></trkpt><trkpt lat="39.45640898" lon="-0.38569797"><ele>23.0</ele><time>2022-11-06T13:02:30.0000000+00:00</time></trkpt><trkpt lat="39.45640513" lon="-0.38568875"><ele>22.8</ele><time>2022-11-06T13:02:31.0000000+00:00</time></trkpt><trkpt lat="39.4564006" lon="-0.38567475"><ele>22.8</ele><time>2022-11-06T13:02:32.0000000+00:00</time></trkpt><trkpt lat="39.45639038" lon="-0.38566235"><ele>22.8</ele><time>2022-11-06T13:02:33.0000000+00:00</time></trkpt><trkpt lat="39.45637613" lon="-0.3856481"><ele>22.8</ele><time>2022-11-06T13:02:34.0000000+00:00</time></trkpt><trkpt lat="39.45637202" lon="-0.38563385"><ele>22.8</ele><time>2022-11-06T13:02:35.0000000+00:00</time></trkpt><trkpt lat="39.45636665" lon="-0.38562119"><ele>22.8</ele><time>2022-11-06T13:02:36.0000000+00:00</time></trkpt><trkpt lat="39.45636347" lon="-0.38560451"><ele>22.8</ele><time>2022-11-06T13:02:37.0000000+00:00</time></trkpt><trkpt lat="39.45636104" lon="-0.38559898"><ele>22.8</ele><time>2022-11-06T13:02:38.0000000+00:00</time></trkpt><trkpt lat="39.45635961" lon="-0.38559621"><ele>22.8</ele><time>2022-11-06T13:02:39.0000000+00:00</time></trkpt><trkpt lat="39.45635819" lon="-0.38557744"><ele>22.8</ele><time>2022-11-06T13:02:40.0000000+00:00</time></trkpt><trkpt lat="39.45635802" lon="-0.38555506"><ele>22.8</ele><time>2022-11-06T13:02:41.0000000+00:00</time></trkpt><trkpt lat="39.45635576" lon="-0.38555036"><ele>22.8</ele><time>2022-11-06T13:02:42.0000000+00:00</time></trkpt><trkpt lat="39.45635459" lon="-0.38553662"><ele>22.8</ele><time>2022-11-06T13:02:43.0000000+00:00</time></trkpt><trkpt lat="39.45634997" lon="-0.38551256"><ele>22.8</ele><time>2022-11-06T13:02:44.0000000+00:00</time></trkpt><trkpt lat="39.45634444" lon="-0.38549303"><ele>22.8</ele><time>2022-11-06T13:02:45.0000000+00:00</time></trkpt><trkpt lat="39.45633832" lon="-0.38548163"><ele>22.8</ele><time>2022-11-06T13:02:46.0000000+00:00</time></trkpt><trkpt lat="39.45633237" lon="-0.38547367"><ele>22.6</ele><time>2022-11-06T13:02:47.0000000+00:00</time></trkpt><trkpt lat="39.45633045" lon="-0.38546336"><ele>22.6</ele><time>2022-11-06T13:02:48.0000000+00:00</time></trkpt><trkpt lat="39.45632994" lon="-0.38546059"><ele>22.6</ele><time>2022-11-06T13:02:49.0000000+00:00</time></trkpt><trkpt lat="39.45633539" lon="-0.38543511"><ele>22.6</ele><time>2022-11-06T13:02:50.0000000+00:00</time></trkpt><trkpt lat="39.45634293" lon="-0.38541198"><ele>22.6</ele><time>2022-11-06T13:02:51.0000000+00:00</time></trkpt><trkpt lat="39.45634637" lon="-0.38539278"><ele>22.6</ele><time>2022-11-06T13:02:52.0000000+00:00</time></trkpt><trkpt lat="39.45634067" lon="-0.38537149"><ele>22.6</ele><time>2022-11-06T13:02:53.0000000+00:00</time></trkpt><trkpt lat="39.45632944" lon="-0.38535649"><ele>22.6</ele><time>2022-11-06T13:02:54.0000000+00:00</time></trkpt><trkpt lat="39.45632475" lon="-0.38535012"><ele>22.6</ele><time>2022-11-06T13:02:55.0000000+00:00</time></trkpt><trkpt lat="39.45632449" lon="-0.38533671"><ele>22.6</ele><time>2022-11-06T13:02:56.0000000+00:00</time></trkpt><trkpt lat="39.45632508" lon="-0.38532263"><ele>22.8</ele><time>2022-11-06T13:02:57.0000000+00:00</time></trkpt><trkpt lat="39.4563193" lon="-0.38530964"><ele>23.0</ele><time>2022-11-06T13:02:58.0000000+00:00</time></trkpt><trkpt lat="39.45632458" lon="-0.38527971"><ele>23.0</ele><time>2022-11-06T13:02:59.0000000+00:00</time></trkpt><trkpt lat="39.45632282" lon="-0.38527326"><ele>23.0</ele><time>2022-11-06T13:03:00.0000000+00:00</time></trkpt><trkpt lat="39.45632089" lon="-0.38526873"><ele>23.0</ele><time>2022-11-06T13:03:01.0000000+00:00</time></trkpt><trkpt lat="39.45635291" lon="-0.38524141"><ele>23.0</ele><time>2022-11-06T13:03:02.0000000+00:00</time></trkpt><trkpt lat="39.45636733" lon="-0.3852316"><ele>23.0</ele><time>2022-11-06T13:03:03.0000000+00:00</time></trkpt><trkpt lat="39.45639574" lon="-0.3851969"><ele>23.0</ele><time>2022-11-06T13:03:04.0000000+00:00</time></trkpt><trkpt lat="39.45639909" lon="-0.38519355"><ele>23.0</ele><time>2022-11-06T13:03:05.0000000+00:00</time></trkpt><trkpt lat="39.45640974" lon="-0.38517309"><ele>23.0</ele><time>2022-11-06T13:03:06.0000000+00:00</time></trkpt><trkpt lat="39.45641753" lon="-0.38516304"><ele>23.2</ele><time>2022-11-06T13:03:07.0000000+00:00</time></trkpt><trkpt lat="39.45642365" lon="-0.38515071"><ele>23.2</ele><time>2022-11-06T13:03:08.0000000+00:00</time></trkpt><trkpt lat="39.45641175" lon="-0.38514778"><ele>23.2</ele><time>2022-11-06T13:03:09.0000000+00:00</time></trkpt><trkpt lat="39.45639658" lon="-0.38514434"><ele>23.2</ele><time>2022-11-06T13:03:10.0000000+00:00</time></trkpt><trkpt lat="39.45638392" lon="-0.38514216"><ele>23.2</ele><time>2022-11-06T13:03:11.0000000+00:00</time></trkpt><trkpt lat="39.45637495" lon="-0.38513864"><ele>23.4</ele><time>2022-11-06T13:03:12.0000000+00:00</time></trkpt><trkpt lat="39.45636674" lon="-0.38513051"><ele>23.4</ele><time>2022-11-06T13:03:13.0000000+00:00</time></trkpt><trkpt lat="39.45635668" lon="-0.38511953"><ele>23.4</ele><time>2022-11-06T13:03:14.0000000+00:00</time></trkpt><trkpt lat="39.45635299" lon="-0.38510528"><ele>23.4</ele><time>2022-11-06T13:03:15.0000000+00:00</time></trkpt><trkpt lat="39.45635039" lon="-0.38509313"><ele>23.4</ele><time>2022-11-06T13:03:16.0000000+00:00</time></trkpt><trkpt lat="39.45634411" lon="-0.38507997"><ele>23.6</ele><time>2022-11-06T13:03:17.0000000+00:00</time></trkpt><trkpt lat="39.45633723" lon="-0.38507109"><ele>23.6</ele><time>2022-11-06T13:03:18.0000000+00:00</time></trkpt><trkpt lat="39.45633019" lon="-0.3850612"><ele>23.6</ele><time>2022-11-06T13:03:19.0000000+00:00</time></trkpt><trkpt lat="39.45632307" lon="-0.38505181"><ele>23.6</ele><time>2022-11-06T13:03:20.0000000+00:00</time></trkpt><trkpt lat="39.45631242" lon="-0.38504116"><ele>23.6</ele><time>2022-11-06T13:03:21.0000000+00:00</time></trkpt><trkpt lat="39.45630647" lon="-0.38503798"><ele>23.6</ele><time>2022-11-06T13:03:22.0000000+00:00</time></trkpt><trkpt lat="39.45630136" lon="-0.38502616"><ele>23.6</ele><time>2022-11-06T13:03:23.0000000+00:00</time></trkpt><trkpt lat="39.45629625" lon="-0.38500822"><ele>23.6</ele><time>2022-11-06T13:03:24.0000000+00:00</time></trkpt><trkpt lat="39.45633941" lon="-0.38499624"><ele>23.6</ele><time>2022-11-06T13:03:25.0000000+00:00</time></trkpt><trkpt lat="39.45633824" lon="-0.38498945"><ele>23.6</ele><time>2022-11-06T13:03:26.0000000+00:00</time></trkpt><trkpt lat="39.45633137" lon="-0.38497067"><ele>23.6</ele><time>2022-11-06T13:03:27.0000000+00:00</time></trkpt><trkpt lat="39.45631938" lon="-0.38495014"><ele>23.6</ele><time>2022-11-06T13:03:28.0000000+00:00</time></trkpt><trkpt lat="39.45633623" lon="-0.38493941"><ele>23.6</ele><time>2022-11-06T13:03:29.0000000+00:00</time></trkpt><trkpt lat="39.45634821" lon="-0.38492843"><ele>23.6</ele><time>2022-11-06T13:03:30.0000000+00:00</time></trkpt><trkpt lat="39.45635836" lon="-0.38491418"><ele>23.6</ele><time>2022-11-06T13:03:31.0000000+00:00</time></trkpt><trkpt lat="39.4563747" lon="-0.38490429"><ele>23.4</ele><time>2022-11-06T13:03:32.0000000+00:00</time></trkpt><trkpt lat="39.45639289" lon="-0.3848944"><ele>23.4</ele><time>2022-11-06T13:03:33.0000000+00:00</time></trkpt><trkpt lat="39.45638233" lon="-0.3848814"><ele>23.4</ele><time>2022-11-06T13:03:34.0000000+00:00</time></trkpt><trkpt lat="39.45636406" lon="-0.38486095"><ele>23.4</ele><time>2022-11-06T13:03:35.0000000+00:00</time></trkpt><trkpt lat="39.45633849" lon="-0.38483866"><ele>23.4</ele><time>2022-11-06T13:03:36.0000000+00:00</time></trkpt><trkpt lat="39.45631838" lon="-0.38482114"><ele>23.4</ele><time>2022-11-06T13:03:37.0000000+00:00</time></trkpt><trkpt lat="39.45629189" lon="-0.38480295"><ele>23.4</ele><time>2022-11-06T13:03:38.0000000+00:00</time></trkpt><trkpt lat="39.45625191" lon="-0.38477998"><ele>23.4</ele><time>2022-11-06T13:03:39.0000000+00:00</time></trkpt><trkpt lat="39.45624612" lon="-0.38477252"><ele>23.2</ele><time>2022-11-06T13:03:40.0000000+00:00</time></trkpt><trkpt lat="39.45623992" lon="-0.38476615"><ele>23.2</ele><time>2022-11-06T13:03:41.0000000+00:00</time></trkpt><trkpt lat="39.45625342" lon="-0.38474696"><ele>23.2</ele><time>2022-11-06T13:03:42.0000000+00:00</time></trkpt><trkpt lat="39.45626188" lon="-0.38472801"><ele>23.2</ele><time>2022-11-06T13:03:43.0000000+00:00</time></trkpt><trkpt lat="39.45626825" lon="-0.38470689"><ele>23.2</ele><time>2022-11-06T13:03:44.0000000+00:00</time></trkpt><trkpt lat="39.45626465" lon="-0.38468828"><ele>23.2</ele><time>2022-11-06T13:03:45.0000000+00:00</time></trkpt><trkpt lat="39.45626297" lon="-0.38467127"><ele>23.2</ele><time>2022-11-06T13:03:46.0000000+00:00</time></trkpt><trkpt lat="39.45625534" lon="-0.38465308"><ele>23.2</ele><time>2022-11-06T13:03:47.0000000+00:00</time></trkpt><trkpt lat="39.45625216" lon="-0.38463783"><ele>23.2</ele><time>2022-11-06T13:03:48.0000000+00:00</time></trkpt><trkpt lat="39.456253" lon="-0.38462601"><ele>23.2</ele><time>2022-11-06T13:03:49.0000000+00:00</time></trkpt><trkpt lat="39.45629197" lon="-0.38464294"><ele>23.2</ele><time>2022-11-06T13:03:50.0000000+00:00</time></trkpt><trkpt lat="39.4563167" lon="-0.38464855"><ele>23.2</ele><time>2022-11-06T13:03:51.0000000+00:00</time></trkpt><trkpt lat="39.45634369" lon="-0.38465241"><ele>23.2</ele><time>2022-11-06T13:03:52.0000000+00:00</time></trkpt><trkpt lat="39.45636137" lon="-0.38464235"><ele>23.0</ele><time>2022-11-06T13:03:53.0000000+00:00</time></trkpt><trkpt lat="39.45638929" lon="-0.38462835"><ele>23.0</ele><time>2022-11-06T13:03:54.0000000+00:00</time></trkpt><trkpt lat="39.45641091" lon="-0.38461679"><ele>23.0</ele><time>2022-11-06T13:03:55.0000000+00:00</time></trkpt><trkpt lat="39.45643296" lon="-0.38460312"><ele>23.0</ele><time>2022-11-06T13:03:56.0000000+00:00</time></trkpt><trkpt lat="39.45644913" lon="-0.38458468"><ele>23.0</ele><time>2022-11-06T13:03:57.0000000+00:00</time></trkpt><trkpt lat="39.45644444" lon="-0.38455132"><ele>23.0</ele><time>2022-11-06T13:03:58.0000000+00:00</time></trkpt><trkpt lat="39.45646707" lon="-0.38453364"><ele>23.0</ele><time>2022-11-06T13:03:59.0000000+00:00</time></trkpt><trkpt lat="39.45646648" lon="-0.38451629"><ele>23.0</ele><time>2022-11-06T13:04:00.0000000+00:00</time></trkpt><trkpt lat="39.45645282" lon="-0.38449458"><ele>23.0</ele><time>2022-11-06T13:04:01.0000000+00:00</time></trkpt><trkpt lat="39.45638828" lon="-0.38447815"><ele>23.0</ele><time>2022-11-06T13:04:02.0000000+00:00</time></trkpt><trkpt lat="39.45638116" lon="-0.38446331"><ele>23.0</ele><time>2022-11-06T13:04:03.0000000+00:00</time></trkpt><trkpt lat="39.45634956" lon="-0.38444052"><ele>23.0</ele><time>2022-11-06T13:04:04.0000000+00:00</time></trkpt><trkpt lat="39.45641074" lon="-0.38443339"><ele>23.0</ele><time>2022-11-06T13:04:05.0000000+00:00</time></trkpt><trkpt lat="39.45640773" lon="-0.38441906"><ele>22.8</ele><time>2022-11-06T13:04:06.0000000+00:00</time></trkpt><trkpt lat="39.45638124" lon="-0.3844059"><ele>22.8</ele><time>2022-11-06T13:04:07.0000000+00:00</time></trkpt><trkpt lat="39.45636657" lon="-0.38438888"><ele>22.8</ele><time>2022-11-06T13:04:08.0000000+00:00</time></trkpt><trkpt lat="39.45639582" lon="-0.38438218"><ele>22.8</ele><time>2022-11-06T13:04:09.0000000+00:00</time></trkpt><trkpt lat="39.45639473" lon="-0.38437421"><ele>22.8</ele><time>2022-11-06T13:04:10.0000000+00:00</time></trkpt><trkpt lat="39.45639725" lon="-0.38436365"><ele>22.8</ele><time>2022-11-06T13:04:11.0000000+00:00</time></trkpt><trkpt lat="39.45639465" lon="-0.38434982"><ele>22.8</ele><time>2022-11-06T13:04:12.0000000+00:00</time></trkpt><trkpt lat="39.45638132" lon="-0.3843292"><ele>22.8</ele><time>2022-11-06T13:04:13.0000000+00:00</time></trkpt><trkpt lat="39.4563602" lon="-0.38431169"><ele>22.6</ele><time>2022-11-06T13:04:14.0000000+00:00</time></trkpt><trkpt lat="39.45634738" lon="-0.38428168"><ele>22.6</ele><time>2022-11-06T13:04:15.0000000+00:00</time></trkpt><trkpt lat="39.45632248" lon="-0.38424857"><ele>22.6</ele><time>2022-11-06T13:04:16.0000000+00:00</time></trkpt><trkpt lat="39.45629491" lon="-0.38421881"><ele>22.6</ele><time>2022-11-06T13:04:17.0000000+00:00</time></trkpt><trkpt lat="39.45627077" lon="-0.38419065"><ele>22.6</ele><time>2022-11-06T13:04:18.0000000+00:00</time></trkpt><trkpt lat="39.45625409" lon="-0.38417079"><ele>22.6</ele><time>2022-11-06T13:04:19.0000000+00:00</time></trkpt><trkpt lat="39.45623389" lon="-0.38415536"><ele>22.6</ele><time>2022-11-06T13:04:20.0000000+00:00</time></trkpt><trkpt lat="39.45620229" lon="-0.38413818"><ele>22.6</ele><time>2022-11-06T13:04:21.0000000+00:00</time></trkpt><trkpt lat="39.45619223" lon="-0.38411882"><ele>22.6</ele><time>2022-11-06T13:04:22.0000000+00:00</time></trkpt><trkpt lat="39.45617781" lon="-0.38410105"><ele>22.6</ele><time>2022-11-06T13:04:23.0000000+00:00</time></trkpt><trkpt lat="39.45613758" lon="-0.3840806"><ele>22.6</ele><time>2022-11-06T13:04:24.0000000+00:00</time></trkpt><trkpt lat="39.45613867" lon="-0.38407213"><ele>22.6</ele><time>2022-11-06T13:04:25.0000000+00:00</time></trkpt><trkpt lat="39.45613121" lon="-0.38405998"><ele>22.6</ele><time>2022-11-06T13:04:26.0000000+00:00</time></trkpt><trkpt lat="39.45611444" lon="-0.38405872"><ele>22.6</ele><time>2022-11-06T13:04:27.0000000+00:00</time></trkpt><trkpt lat="39.45611486" lon="-0.38405621"><ele>22.6</ele><time>2022-11-06T13:04:28.0000000+00:00</time></trkpt><trkpt lat="39.45610908" lon="-0.38406266"><ele>22.6</ele><time>2022-11-06T13:04:29.0000000+00:00</time></trkpt><trkpt lat="39.45610799" lon="-0.38406576"><ele>22.6</ele><time>2022-11-06T13:04:30.0000000+00:00</time></trkpt><trkpt lat="39.45610397" lon="-0.38406677"><ele>22.6</ele><time>2022-11-06T13:04:31.0000000+00:00</time></trkpt><trkpt lat="39.45610573" lon="-0.3840666"><ele>22.6</ele><time>2022-11-06T13:04:32.0000000+00:00</time></trkpt><trkpt lat="39.45610774" lon="-0.38407942"><ele>22.6</ele><time>2022-11-06T13:04:33.0000000+00:00</time></trkpt><trkpt lat="39.45609449" lon="-0.38410306"><ele>22.6</ele><time>2022-11-06T13:04:34.0000000+00:00</time></trkpt><trkpt lat="39.45608259" lon="-0.38411354"><ele>22.4</ele><time>2022-11-06T13:04:35.0000000+00:00</time></trkpt><trkpt lat="39.45608259" lon="-0.38412058"><ele>22.4</ele><time>2022-11-06T13:04:36.0000000+00:00</time></trkpt><trkpt lat="39.45608821" lon="-0.38412041"><ele>22.4</ele><time>2022-11-06T13:04:37.0000000+00:00</time></trkpt><trkpt lat="39.45609114" lon="-0.38411262"><ele>22.4</ele><time>2022-11-06T13:04:38.0000000+00:00</time></trkpt><trkpt lat="39.45609634" lon="-0.38410071"><ele>22.4</ele><time>2022-11-06T13:04:39.0000000+00:00</time></trkpt><trkpt lat="39.45610162" lon="-0.38409066"><ele>22.4</ele><time>2022-11-06T13:04:40.0000000+00:00</time></trkpt><trkpt lat="39.45611411" lon="-0.38407389"><ele>22.4</ele><time>2022-11-06T13:04:41.0000000+00:00</time></trkpt><trkpt lat="39.45611218" lon="-0.38405973"><ele>22.4</ele><time>2022-11-06T13:04:42.0000000+00:00</time></trkpt><trkpt lat="39.45610975" lon="-0.38404212"><ele>22.4</ele><time>2022-11-06T13:04:43.0000000+00:00</time></trkpt><trkpt lat="39.45610598" lon="-0.38402536"><ele>22.4</ele><time>2022-11-06T13:04:44.0000000+00:00</time></trkpt><trkpt lat="39.45611436" lon="-0.38400801"><ele>22.4</ele><time>2022-11-06T13:04:45.0000000+00:00</time></trkpt><trkpt lat="39.45612215" lon="-0.38398798"><ele>22.4</ele><time>2022-11-06T13:04:46.0000000+00:00</time></trkpt><trkpt lat="39.45613297" lon="-0.38397071"><ele>22.6</ele><time>2022-11-06T13:04:47.0000000+00:00</time></trkpt><trkpt lat="39.45615283" lon="-0.38394548"><ele>22.4</ele><time>2022-11-06T13:04:48.0000000+00:00</time></trkpt><trkpt lat="39.45616993" lon="-0.38392461"><ele>22.4</ele><time>2022-11-06T13:04:49.0000000+00:00</time></trkpt><trkpt lat="39.45617077" lon="-0.38390935"><ele>22.4</ele><time>2022-11-06T13:04:50.0000000+00:00</time></trkpt><trkpt lat="39.45617186" lon="-0.38389267"><ele>22.4</ele><time>2022-11-06T13:04:51.0000000+00:00</time></trkpt><trkpt lat="39.45618334" lon="-0.38387222"><ele>22.4</ele><time>2022-11-06T13:04:52.0000000+00:00</time></trkpt><trkpt lat="39.4561996" lon="-0.38385462"><ele>22.4</ele><time>2022-11-06T13:04:53.0000000+00:00</time></trkpt><trkpt lat="39.4562131" lon="-0.38385915"><ele>22.4</ele><time>2022-11-06T13:04:54.0000000+00:00</time></trkpt><trkpt lat="39.45621989" lon="-0.38386133"><ele>22.4</ele><time>2022-11-06T13:04:55.0000000+00:00</time></trkpt><trkpt lat="39.45621972" lon="-0.3838568"><ele>22.6</ele><time>2022-11-06T13:04:56.0000000+00:00</time></trkpt><trkpt lat="39.45621796" lon="-0.3838459"><ele>22.6</ele><time>2022-11-06T13:04:57.0000000+00:00</time></trkpt><trkpt lat="39.4562193" lon="-0.38383693"><ele>22.6</ele><time>2022-11-06T13:04:58.0000000+00:00</time></trkpt><trkpt lat="39.4562245" lon="-0.38382084"><ele>22.6</ele><time>2022-11-06T13:04:59.0000000+00:00</time></trkpt><trkpt lat="39.45623313" lon="-0.38381263"><ele>22.6</ele><time>2022-11-06T13:05:00.0000000+00:00</time></trkpt><trkpt lat="39.45623472" lon="-0.38379888"><ele>22.6</ele><time>2022-11-06T13:05:01.0000000+00:00</time></trkpt><trkpt lat="39.45623389" lon="-0.38378681"><ele>22.8</ele><time>2022-11-06T13:05:02.0000000+00:00</time></trkpt><trkpt lat="39.45623011" lon="-0.38378421"><ele>22.8</ele><time>2022-11-06T13:05:03.0000000+00:00</time></trkpt><trkpt lat="39.45622793" lon="-0.38377114"><ele>22.8</ele><time>2022-11-06T13:05:04.0000000+00:00</time></trkpt><trkpt lat="39.45622383" lon="-0.38376343"><ele>22.8</ele><time>2022-11-06T13:05:05.0000000+00:00</time></trkpt><trkpt lat="39.45622022" lon="-0.383748"><ele>22.8</ele><time>2022-11-06T13:05:06.0000000+00:00</time></trkpt><trkpt lat="39.45622073" lon="-0.38372428"><ele>22.8</ele><time>2022-11-06T13:05:07.0000000+00:00</time></trkpt><trkpt lat="39.4562183" lon="-0.38370341"><ele>22.8</ele><time>2022-11-06T13:05:08.0000000+00:00</time></trkpt><trkpt lat="39.456225" lon="-0.38368371"><ele>22.8</ele><time>2022-11-06T13:05:09.0000000+00:00</time></trkpt><trkpt lat="39.45622735" lon="-0.38366888"><ele>22.8</ele><time>2022-11-06T13:05:10.0000000+00:00</time></trkpt><trkpt lat="39.45622861" lon="-0.38365387"><ele>22.8</ele><time>2022-11-06T13:05:11.0000000+00:00</time></trkpt><trkpt lat="39.45622517" lon="-0.38364507"><ele>22.8</ele><time>2022-11-06T13:05:12.0000000+00:00</time></trkpt><trkpt lat="39.45622534" lon="-0.3836294"><ele>22.6</ele><time>2022-11-06T13:05:13.0000000+00:00</time></trkpt><trkpt lat="39.45622651" lon="-0.38362135"><ele>22.6</ele><time>2022-11-06T13:05:14.0000000+00:00</time></trkpt><trkpt lat="39.45622609" lon="-0.38360006"><ele>22.6</ele><time>2022-11-06T13:05:15.0000000+00:00</time></trkpt><trkpt lat="39.4562364" lon="-0.38357953"><ele>22.6</ele><time>2022-11-06T13:05:16.0000000+00:00</time></trkpt><trkpt lat="39.45624411" lon="-0.38356561"><ele>22.6</ele><time>2022-11-06T13:05:17.0000000+00:00</time></trkpt><trkpt lat="39.45624881" lon="-0.38355161"><ele>22.6</ele><time>2022-11-06T13:05:18.0000000+00:00</time></trkpt><trkpt lat="39.45626649" lon="-0.38353502"><ele>22.6</ele><time>2022-11-06T13:05:19.0000000+00:00</time></trkpt><trkpt lat="39.45628258" lon="-0.38351465"><ele>22.6</ele><time>2022-11-06T13:05:20.0000000+00:00</time></trkpt><trkpt lat="39.45629239" lon="-0.38350375"><ele>22.6</ele><time>2022-11-06T13:05:21.0000000+00:00</time></trkpt><trkpt lat="39.45630572" lon="-0.38349068"><ele>22.6</ele><time>2022-11-06T13:05:22.0000000+00:00</time></trkpt><trkpt lat="39.45631653" lon="-0.3834735"><ele>22.6</ele><time>2022-11-06T13:05:23.0000000+00:00</time></trkpt><trkpt lat="39.45633053" lon="-0.38345145"><ele>22.6</ele><time>2022-11-06T13:05:24.0000000+00:00</time></trkpt><trkpt lat="39.45632407" lon="-0.38344064"><ele>22.6</ele><time>2022-11-06T13:05:25.0000000+00:00</time></trkpt><trkpt lat="39.45632131" lon="-0.38342706"><ele>22.6</ele><time>2022-11-06T13:05:26.0000000+00:00</time></trkpt><trkpt lat="39.45631896" lon="-0.38341189"><ele>22.6</ele><time>2022-11-06T13:05:27.0000000+00:00</time></trkpt><trkpt lat="39.45632751" lon="-0.38339471"><ele>22.6</ele><time>2022-11-06T13:05:28.0000000+00:00</time></trkpt><trkpt lat="39.4563307" lon="-0.38338012"><ele>22.6</ele><time>2022-11-06T13:05:29.0000000+00:00</time></trkpt><trkpt lat="39.45633506" lon="-0.38336847"><ele>22.6</ele><time>2022-11-06T13:05:30.0000000+00:00</time></trkpt><trkpt lat="39.4563374" lon="-0.38335766"><ele>22.6</ele><time>2022-11-06T13:05:31.0000000+00:00</time></trkpt><trkpt lat="39.45633614" lon="-0.38334458"><ele>22.6</ele><time>2022-11-06T13:05:32.0000000+00:00</time></trkpt><trkpt lat="39.45633715" lon="-0.38333016"><ele>22.6</ele><time>2022-11-06T13:05:33.0000000+00:00</time></trkpt><trkpt lat="39.45633128" lon="-0.38331172"><ele>22.6</ele><time>2022-11-06T13:05:34.0000000+00:00</time></trkpt><trkpt lat="39.4563281" lon="-0.38330368"><ele>22.6</ele><time>2022-11-06T13:05:35.0000000+00:00</time></trkpt><trkpt lat="39.45633086" lon="-0.38328976"><ele>22.4</ele><time>2022-11-06T13:05:36.0000000+00:00</time></trkpt><trkpt lat="39.45634486" lon="-0.38327258"><ele>22.4</ele><time>2022-11-06T13:05:37.0000000+00:00</time></trkpt><trkpt lat="39.45635584" lon="-0.38325582"><ele>22.4</ele><time>2022-11-06T13:05:38.0000000+00:00</time></trkpt><trkpt lat="39.4563457" lon="-0.38324593"><ele>22.6</ele><time>2022-11-06T13:05:39.0000000+00:00</time></trkpt><trkpt lat="39.45633983" lon="-0.3832274"><ele>22.6</ele><time>2022-11-06T13:05:40.0000000+00:00</time></trkpt><trkpt lat="39.45632751" lon="-0.3832041"><ele>22.6</ele><time>2022-11-06T13:05:41.0000000+00:00</time></trkpt><trkpt lat="39.45632491" lon="-0.38318063"><ele>22.4</ele><time>2022-11-06T13:05:42.0000000+00:00</time></trkpt><trkpt lat="39.45632567" lon="-0.38315817"><ele>22.4</ele><time>2022-11-06T13:05:43.0000000+00:00</time></trkpt><trkpt lat="39.45632324" lon="-0.38314325"><ele>22.4</ele><time>2022-11-06T13:05:44.0000000+00:00</time></trkpt><trkpt lat="39.45632374" lon="-0.38312732"><ele>22.4</ele><time>2022-11-06T13:05:45.0000000+00:00</time></trkpt><trkpt lat="39.45633497" lon="-0.38311165"><ele>22.4</ele><time>2022-11-06T13:05:46.0000000+00:00</time></trkpt><trkpt lat="39.45634352" lon="-0.38309899"><ele>22.4</ele><time>2022-11-06T13:05:47.0000000+00:00</time></trkpt><trkpt lat="39.4563426" lon="-0.38308935"><ele>22.4</ele><time>2022-11-06T13:05:48.0000000+00:00</time></trkpt><trkpt lat="39.45634377" lon="-0.38307896"><ele>22.4</ele><time>2022-11-06T13:05:49.0000000+00:00</time></trkpt><trkpt lat="39.45633925" lon="-0.38306228"><ele>22.2</ele><time>2022-11-06T13:05:50.0000000+00:00</time></trkpt><trkpt lat="39.45633472" lon="-0.38305063"><ele>22.2</ele><time>2022-11-06T13:05:51.0000000+00:00</time></trkpt><trkpt lat="39.45633782" lon="-0.38304434"><ele>22.2</ele><time>2022-11-06T13:05:52.0000000+00:00</time></trkpt><trkpt lat="39.45633866" lon="-0.38303034"><ele>22.2</ele><time>2022-11-06T13:05:53.0000000+00:00</time></trkpt><trkpt lat="39.4563452" lon="-0.38301383"><ele>22.2</ele><time>2022-11-06T13:05:54.0000000+00:00</time></trkpt><trkpt lat="39.45635073" lon="-0.38300143"><ele>22.2</ele><time>2022-11-06T13:05:55.0000000+00:00</time></trkpt><trkpt lat="39.45635735" lon="-0.38299078"><ele>22.2</ele><time>2022-11-06T13:05:56.0000000+00:00</time></trkpt><trkpt lat="39.45635199" lon="-0.38297025"><ele>22.2</ele><time>2022-11-06T13:05:57.0000000+00:00</time></trkpt><trkpt lat="39.45634394" lon="-0.38295566"><ele>22.2</ele><time>2022-11-06T13:05:58.0000000+00:00</time></trkpt><trkpt lat="39.45633606" lon="-0.3829508"><ele>22.2</ele><time>2022-11-06T13:05:59.0000000+00:00</time></trkpt><trkpt lat="39.45632483" lon="-0.38294745"><ele>22.4</ele><time>2022-11-06T13:06:00.0000000+00:00</time></trkpt><trkpt lat="39.45631729" lon="-0.38293873"><ele>22.4</ele><time>2022-11-06T13:06:01.0000000+00:00</time></trkpt><trkpt lat="39.45630605" lon="-0.38292322"><ele>22.4</ele><time>2022-11-06T13:06:02.0000000+00:00</time></trkpt><trkpt lat="39.45629809" lon="-0.38290956"><ele>22.4</ele><time>2022-11-06T13:06:03.0000000+00:00</time></trkpt><trkpt lat="39.45629717" lon="-0.38289573"><ele>22.2</ele><time>2022-11-06T13:06:04.0000000+00:00</time></trkpt><trkpt lat="39.45629021" lon="-0.38288039"><ele>22.4</ele><time>2022-11-06T13:06:05.0000000+00:00</time></trkpt><trkpt lat="39.4562768" lon="-0.38286547"><ele>22.4</ele><time>2022-11-06T13:06:06.0000000+00:00</time></trkpt><trkpt lat="39.45625467" lon="-0.38285181"><ele>22.4</ele><time>2022-11-06T13:06:07.0000000+00:00</time></trkpt><trkpt lat="39.45623313" lon="-0.38284343"><ele>22.4</ele><time>2022-11-06T13:06:08.0000000+00:00</time></trkpt><trkpt lat="39.45621503" lon="-0.3828275"><ele>22.4</ele><time>2022-11-06T13:06:09.0000000+00:00</time></trkpt><trkpt lat="39.45620899" lon="-0.38281392"><ele>22.4</ele><time>2022-11-06T13:06:10.0000000+00:00</time></trkpt><trkpt lat="39.45619432" lon="-0.38280353"><ele>22.4</ele><time>2022-11-06T13:06:11.0000000+00:00</time></trkpt><trkpt lat="39.45618854" lon="-0.38280194"><ele>22.4</ele><time>2022-11-06T13:06:12.0000000+00:00</time></trkpt><trkpt lat="39.45617404" lon="-0.38279942"><ele>22.4</ele><time>2022-11-06T13:06:13.0000000+00:00</time></trkpt><trkpt lat="39.45616289" lon="-0.38278987"><ele>22.4</ele><time>2022-11-06T13:06:14.0000000+00:00</time></trkpt><trkpt lat="39.45615317" lon="-0.38277973"><ele>22.4</ele><time>2022-11-06T13:06:15.0000000+00:00</time></trkpt><trkpt lat="39.45615686" lon="-0.38278744"><ele>22.4</ele><time>2022-11-06T13:06:16.0000000+00:00</time></trkpt><trkpt lat="39.45616993" lon="-0.38278928"><ele>22.4</ele><time>2022-11-06T13:06:17.0000000+00:00</time></trkpt><trkpt lat="39.45614185" lon="-0.38280034"><ele>22.4</ele><time>2022-11-06T13:06:18.0000000+00:00</time></trkpt><trkpt lat="39.45614269" lon="-0.38279523"><ele>22.4</ele><time>2022-11-06T13:06:19.0000000+00:00</time></trkpt><trkpt lat="39.45612249" lon="-0.38275668"><ele>22.4</ele><time>2022-11-06T13:06:20.0000000+00:00</time></trkpt><trkpt lat="39.45611822" lon="-0.38273103"><ele>22.4</ele><time>2022-11-06T13:06:21.0000000+00:00</time></trkpt><trkpt lat="39.45611428" lon="-0.38270806"><ele>22.4</ele><time>2022-11-06T13:06:22.0000000+00:00</time></trkpt><trkpt lat="39.45613029" lon="-0.38271393"><ele>22.4</ele><time>2022-11-06T13:06:23.0000000+00:00</time></trkpt><trkpt lat="39.45615895" lon="-0.38273312"><ele>22.4</ele><time>2022-11-06T13:06:24.0000000+00:00</time></trkpt><trkpt lat="39.45617278" lon="-0.38273019"><ele>22.6</ele><time>2022-11-06T13:06:25.0000000+00:00</time></trkpt><trkpt lat="39.45618988" lon="-0.38273069"><ele>22.6</ele><time>2022-11-06T13:06:26.0000000+00:00</time></trkpt><trkpt lat="39.45619575" lon="-0.38271351"><ele>22.6</ele><time>2022-11-06T13:06:27.0000000+00:00</time></trkpt><trkpt lat="39.45619189" lon="-0.38269247"><ele>22.4</ele><time>2022-11-06T13:06:28.0000000+00:00</time></trkpt><trkpt lat="39.45619642" lon="-0.38267671"><ele>22.4</ele><time>2022-11-06T13:06:29.0000000+00:00</time></trkpt><trkpt lat="39.45620673" lon="-0.38267445"><ele>22.4</ele><time>2022-11-06T13:06:30.0000000+00:00</time></trkpt><trkpt lat="39.45620078" lon="-0.38266506"><ele>22.4</ele><time>2022-11-06T13:06:31.0000000+00:00</time></trkpt><trkpt lat="39.45618141" lon="-0.38265257"><ele>22.4</ele><time>2022-11-06T13:06:32.0000000+00:00</time></trkpt><trkpt lat="39.45616918" lon="-0.38263497"><ele>22.4</ele><time>2022-11-06T13:06:33.0000000+00:00</time></trkpt><trkpt lat="39.45615459" lon="-0.38262064"><ele>22.4</ele><time>2022-11-06T13:06:34.0000000+00:00</time></trkpt><trkpt lat="39.45613314" lon="-0.38260982"><ele>22.4</ele><time>2022-11-06T13:06:35.0000000+00:00</time></trkpt><trkpt lat="39.45611578" lon="-0.3825939"><ele>22.4</ele><time>2022-11-06T13:06:36.0000000+00:00</time></trkpt><trkpt lat="39.45610086" lon="-0.38258074"><ele>22.6</ele><time>2022-11-06T13:06:37.0000000+00:00</time></trkpt><trkpt lat="39.45608368" lon="-0.38257227"><ele>22.6</ele><time>2022-11-06T13:06:38.0000000+00:00</time></trkpt><trkpt lat="39.45606457" lon="-0.38255995"><ele>22.6</ele><time>2022-11-06T13:06:39.0000000+00:00</time></trkpt><trkpt lat="39.45604445" lon="-0.38253808"><ele>22.6</ele><time>2022-11-06T13:06:40.0000000+00:00</time></trkpt><trkpt lat="39.45602627" lon="-0.38252374"><ele>22.6</ele><time>2022-11-06T13:06:41.0000000+00:00</time></trkpt><trkpt lat="39.45601093" lon="-0.38250564"><ele>22.6</ele><time>2022-11-06T13:06:42.0000000+00:00</time></trkpt><trkpt lat="39.45599835" lon="-0.38247672"><ele>22.6</ele><time>2022-11-06T13:06:43.0000000+00:00</time></trkpt><trkpt lat="39.45598092" lon="-0.3824613"><ele>22.6</ele><time>2022-11-06T13:06:44.0000000+00:00</time></trkpt><trkpt lat="39.45596516" lon="-0.38244286"><ele>22.6</ele><time>2022-11-06T13:06:45.0000000+00:00</time></trkpt><trkpt lat="39.45595653" lon="-0.38242425"><ele>22.6</ele><time>2022-11-06T13:06:46.0000000+00:00</time></trkpt><trkpt lat="39.45594848" lon="-0.38240438"><ele>22.6</ele><time>2022-11-06T13:06:47.0000000+00:00</time></trkpt><trkpt lat="39.45593448" lon="-0.38240572"><ele>22.6</ele><time>2022-11-06T13:06:48.0000000+00:00</time></trkpt><trkpt lat="39.45592183" lon="-0.38239407"><ele>22.6</ele><time>2022-11-06T13:06:49.0000000+00:00</time></trkpt><trkpt lat="39.4559137" lon="-0.38238184"><ele>22.6</ele><time>2022-11-06T13:06:50.0000000+00:00</time></trkpt><trkpt lat="39.45590666" lon="-0.38236172"><ele>22.6</ele><time>2022-11-06T13:06:51.0000000+00:00</time></trkpt><trkpt lat="39.45589811" lon="-0.38235074"><ele>22.6</ele><time>2022-11-06T13:06:52.0000000+00:00</time></trkpt><trkpt lat="39.45589383" lon="-0.38234839"><ele>22.6</ele><time>2022-11-06T13:06:53.0000000+00:00</time></trkpt><trkpt lat="39.455894" lon="-0.3823437"><ele>22.6</ele><time>2022-11-06T13:06:54.0000000+00:00</time></trkpt><trkpt lat="39.45589199" lon="-0.38234403"><ele>22.6</ele><time>2022-11-06T13:06:55.0000000+00:00</time></trkpt><trkpt lat="39.45587833" lon="-0.38234755"><ele>22.8</ele><time>2022-11-06T13:06:56.0000000+00:00</time></trkpt><trkpt lat="39.45586399" lon="-0.3823442"><ele>22.8</ele><time>2022-11-06T13:06:57.0000000+00:00</time></trkpt><trkpt lat="39.45584865" lon="-0.38233842"><ele>22.8</ele><time>2022-11-06T13:06:58.0000000+00:00</time></trkpt><trkpt lat="39.45583415" lon="-0.38233808"><ele>22.8</ele><time>2022-11-06T13:06:59.0000000+00:00</time></trkpt><trkpt lat="39.45582099" lon="-0.38233465"><ele>22.8</ele><time>2022-11-06T13:07:00.0000000+00:00</time></trkpt><trkpt lat="39.45581756" lon="-0.3823328"><ele>22.8</ele><time>2022-11-06T13:07:01.0000000+00:00</time></trkpt><trkpt lat="39.45582317" lon="-0.3823349"><ele>22.8</ele><time>2022-11-06T13:07:02.0000000+00:00</time></trkpt><trkpt lat="39.45583231" lon="-0.38233456"><ele>22.8</ele><time>2022-11-06T13:07:03.0000000+00:00</time></trkpt><trkpt lat="39.45583197" lon="-0.38232325"><ele>22.8</ele><time>2022-11-06T13:07:04.0000000+00:00</time></trkpt><trkpt lat="39.45583382" lon="-0.38231855"><ele>22.8</ele><time>2022-11-06T13:07:05.0000000+00:00</time></trkpt><trkpt lat="39.45582745" lon="-0.3823064"><ele>22.8</ele><time>2022-11-06T13:07:06.0000000+00:00</time></trkpt><trkpt lat="39.45581018" lon="-0.38229634"><ele>22.8</ele><time>2022-11-06T13:07:07.0000000+00:00</time></trkpt><trkpt lat="39.45578822" lon="-0.38228025"><ele>22.8</ele><time>2022-11-06T13:07:08.0000000+00:00</time></trkpt><trkpt lat="39.45576978" lon="-0.38226591"><ele>22.8</ele><time>2022-11-06T13:07:09.0000000+00:00</time></trkpt><trkpt lat="39.45575503" lon="-0.38225435"><ele>22.8</ele><time>2022-11-06T13:07:10.0000000+00:00</time></trkpt><trkpt lat="39.45574338" lon="-0.38224622"><ele>22.8</ele><time>2022-11-06T13:07:11.0000000+00:00</time></trkpt><trkpt lat="39.45574078" lon="-0.38224278"><ele>22.8</ele><time>2022-11-06T13:07:12.0000000+00:00</time></trkpt><trkpt lat="39.45573919" lon="-0.38224027"><ele>22.8</ele><time>2022-11-06T13:07:13.0000000+00:00</time></trkpt><trkpt lat="39.45573743" lon="-0.38223708"><ele>22.8</ele><time>2022-11-06T13:07:14.0000000+00:00</time></trkpt><trkpt lat="39.45572603" lon="-0.38222551"><ele>22.8</ele><time>2022-11-06T13:07:15.0000000+00:00</time></trkpt><trkpt lat="39.45571303" lon="-0.38221018"><ele>22.8</ele><time>2022-11-06T13:07:16.0000000+00:00</time></trkpt><trkpt lat="39.45569904" lon="-0.38219878"><ele>23.0</ele><time>2022-11-06T13:07:17.0000000+00:00</time></trkpt><trkpt lat="39.45569644" lon="-0.38219425"><ele>23.0</ele><time>2022-11-06T13:07:18.0000000+00:00</time></trkpt><trkpt lat="39.45568135" lon="-0.38218972"><ele>23.0</ele><time>2022-11-06T13:07:19.0000000+00:00</time></trkpt><trkpt lat="39.45567079" lon="-0.38218034"><ele>23.0</ele><time>2022-11-06T13:07:20.0000000+00:00</time></trkpt><trkpt lat="39.45566744" lon="-0.38217564"><ele>23.0</ele><time>2022-11-06T13:07:21.0000000+00:00</time></trkpt><trkpt lat="39.45564841" lon="-0.38216399"><ele>23.0</ele><time>2022-11-06T13:07:22.0000000+00:00</time></trkpt><trkpt lat="39.4556293" lon="-0.38215385"><ele>23.0</ele><time>2022-11-06T13:07:23.0000000+00:00</time></trkpt><trkpt lat="39.45561203" lon="-0.38214102"><ele>23.0</ele><time>2022-11-06T13:07:24.0000000+00:00</time></trkpt><trkpt lat="39.45559938" lon="-0.38214999"><ele>23.0</ele><time>2022-11-06T13:07:25.0000000+00:00</time></trkpt><trkpt lat="39.45558705" lon="-0.38215016"><ele>23.0</ele><time>2022-11-06T13:07:26.0000000+00:00</time></trkpt><trkpt lat="39.45557398" lon="-0.38214312"><ele>23.0</ele><time>2022-11-06T13:07:27.0000000+00:00</time></trkpt><trkpt lat="39.45556903" lon="-0.38214019"><ele>23.0</ele><time>2022-11-06T13:07:28.0000000+00:00</time></trkpt><trkpt lat="39.45556576" lon="-0.38214186"><ele>23.0</ele><time>2022-11-06T13:07:29.0000000+00:00</time></trkpt><trkpt lat="39.45556224" lon="-0.38214086"><ele>23.0</ele><time>2022-11-06T13:07:30.0000000+00:00</time></trkpt><trkpt lat="39.45554749" lon="-0.38214128"><ele>23.0</ele><time>2022-11-06T13:07:31.0000000+00:00</time></trkpt><trkpt lat="39.45554883" lon="-0.38213809"><ele>23.0</ele><time>2022-11-06T13:07:32.0000000+00:00</time></trkpt><trkpt lat="39.45554942" lon="-0.38213675"><ele>23.0</ele><time>2022-11-06T13:07:33.0000000+00:00</time></trkpt><trkpt lat="39.45552" lon="-0.38211278"><ele>23.2</ele><time>2022-11-06T13:07:34.0000000+00:00</time></trkpt><trkpt lat="39.4554993" lon="-0.38209342"><ele>23.2</ele><time>2022-11-06T13:07:35.0000000+00:00</time></trkpt><trkpt lat="39.45549594" lon="-0.38209266"><ele>23.2</ele><time>2022-11-06T13:07:36.0000000+00:00</time></trkpt><trkpt lat="39.45547381" lon="-0.38208503"><ele>23.0</ele><time>2022-11-06T13:07:37.0000000+00:00</time></trkpt><trkpt lat="39.45546485" lon="-0.38208914"><ele>23.0</ele><time>2022-11-06T13:07:38.0000000+00:00</time></trkpt><trkpt lat="39.45545479" lon="-0.38208922"><ele>23.0</ele><time>2022-11-06T13:07:39.0000000+00:00</time></trkpt><trkpt lat="39.45543819" lon="-0.38208386"><ele>23.0</ele><time>2022-11-06T13:07:40.0000000+00:00</time></trkpt><trkpt lat="39.45543408" lon="-0.38208235"><ele>23.0</ele><time>2022-11-06T13:07:41.0000000+00:00</time></trkpt><trkpt lat="39.45543182" lon="-0.38208461"><ele>23.0</ele><time>2022-11-06T13:07:42.0000000+00:00</time></trkpt><trkpt lat="39.45542386" lon="-0.38206467"><ele>23.0</ele><time>2022-11-06T13:07:43.0000000+00:00</time></trkpt><trkpt lat="39.45541263" lon="-0.38205243"><ele>23.0</ele><time>2022-11-06T13:07:44.0000000+00:00</time></trkpt><trkpt lat="39.45540156" lon="-0.38203969"><ele>23.0</ele><time>2022-11-06T13:07:45.0000000+00:00</time></trkpt><trkpt lat="39.45539184" lon="-0.38203256"><ele>23.0</ele><time>2022-11-06T13:07:46.0000000+00:00</time></trkpt><trkpt lat="39.45538572" lon="-0.38202234"><ele>23.0</ele><time>2022-11-06T13:07:47.0000000+00:00</time></trkpt><trkpt lat="39.45537239" lon="-0.3820075"><ele>23.0</ele><time>2022-11-06T13:07:48.0000000+00:00</time></trkpt><trkpt lat="39.45536083" lon="-0.3819966"><ele>23.0</ele><time>2022-11-06T13:07:49.0000000+00:00</time></trkpt><trkpt lat="39.45535035" lon="-0.38199116"><ele>23.0</ele><time>2022-11-06T13:07:50.0000000+00:00</time></trkpt><trkpt lat="39.45534783" lon="-0.38199141"><ele>23.0</ele><time>2022-11-06T13:07:51.0000000+00:00</time></trkpt><trkpt lat="39.4553356" lon="-0.38198562"><ele>23.0</ele><time>2022-11-06T13:07:52.0000000+00:00</time></trkpt><trkpt lat="39.45533015" lon="-0.38198001"><ele>23.0</ele><time>2022-11-06T13:07:53.0000000+00:00</time></trkpt><trkpt lat="39.45532914" lon="-0.38198034"><ele>23.2</ele><time>2022-11-06T13:07:54.0000000+00:00</time></trkpt><trkpt lat="39.45531506" lon="-0.38197045"><ele>23.0</ele><time>2022-11-06T13:07:55.0000000+00:00</time></trkpt><trkpt lat="39.4553102" lon="-0.38195729"><ele>23.0</ele><time>2022-11-06T13:07:56.0000000+00:00</time></trkpt><trkpt lat="39.45530207" lon="-0.38195302"><ele>23.0</ele><time>2022-11-06T13:07:57.0000000+00:00</time></trkpt><trkpt lat="39.45529578" lon="-0.38194003"><ele>23.2</ele><time>2022-11-06T13:07:58.0000000+00:00</time></trkpt><trkpt lat="39.45528061" lon="-0.3819324"><ele>23.2</ele><time>2022-11-06T13:07:59.0000000+00:00</time></trkpt><trkpt lat="39.45526904" lon="-0.38192486"><ele>23.2</ele><time>2022-11-06T13:08:00.0000000+00:00</time></trkpt><trkpt lat="39.45525563" lon="-0.38192125"><ele>23.2</ele><time>2022-11-06T13:08:01.0000000+00:00</time></trkpt><trkpt lat="39.45525253" lon="-0.38191957"><ele>23.2</ele><time>2022-11-06T13:08:02.0000000+00:00</time></trkpt><trkpt lat="39.45525144" lon="-0.38191362"><ele>23.2</ele><time>2022-11-06T13:08:03.0000000+00:00</time></trkpt><trkpt lat="39.45524482" lon="-0.38189133"><ele>23.2</ele><time>2022-11-06T13:08:04.0000000+00:00</time></trkpt><trkpt lat="39.45523954" lon="-0.38186417"><ele>23.2</ele><time>2022-11-06T13:08:05.0000000+00:00</time></trkpt><trkpt lat="39.45523501" lon="-0.38185604"><ele>23.2</ele><time>2022-11-06T13:08:06.0000000+00:00</time></trkpt><trkpt lat="39.45522848" lon="-0.38185185"><ele>23.2</ele><time>2022-11-06T13:08:07.0000000+00:00</time></trkpt><trkpt lat="39.45522923" lon="-0.38184556"><ele>23.2</ele><time>2022-11-06T13:08:08.0000000+00:00</time></trkpt><trkpt lat="39.45522051" lon="-0.38184095"><ele>23.2</ele><time>2022-11-06T13:08:09.0000000+00:00</time></trkpt><trkpt lat="39.45521188" lon="-0.38183014"><ele>23.2</ele><time>2022-11-06T13:08:10.0000000+00:00</time></trkpt><trkpt lat="39.45520484" lon="-0.38181287"><ele>23.2</ele><time>2022-11-06T13:08:11.0000000+00:00</time></trkpt><trkpt lat="39.45519872" lon="-0.38180147"><ele>23.2</ele><time>2022-11-06T13:08:12.0000000+00:00</time></trkpt><trkpt lat="39.45519939" lon="-0.38179083"><ele>23.0</ele><time>2022-11-06T13:08:13.0000000+00:00</time></trkpt><trkpt lat="39.45521138" lon="-0.38177608"><ele>23.0</ele><time>2022-11-06T13:08:14.0000000+00:00</time></trkpt><trkpt lat="39.45521532" lon="-0.38176334"><ele>23.0</ele><time>2022-11-06T13:08:15.0000000+00:00</time></trkpt><trkpt lat="39.45522328" lon="-0.38173224"><ele>23.0</ele><time>2022-11-06T13:08:16.0000000+00:00</time></trkpt><trkpt lat="39.45522294" lon="-0.38172729"><ele>23.0</ele><time>2022-11-06T13:08:17.0000000+00:00</time></trkpt><trkpt lat="39.45523275" lon="-0.38171355"><ele>23.0</ele><time>2022-11-06T13:08:18.0000000+00:00</time></trkpt><trkpt lat="39.45524851" lon="-0.38170483"><ele>23.2</ele><time>2022-11-06T13:08:19.0000000+00:00</time></trkpt><trkpt lat="39.45525035" lon="-0.38169921"><ele>23.2</ele><time>2022-11-06T13:08:20.0000000+00:00</time></trkpt><trkpt lat="39.45524834" lon="-0.38169427"><ele>23.2</ele><time>2022-11-06T13:08:21.0000000+00:00</time></trkpt><trkpt lat="39.45524658" lon="-0.38167868"><ele>23.2</ele><time>2022-11-06T13:08:22.0000000+00:00</time></trkpt><trkpt lat="39.45523753" lon="-0.38166728"><ele>23.0</ele><time>2022-11-06T13:08:23.0000000+00:00</time></trkpt><trkpt lat="39.4552361" lon="-0.3816568"><ele>23.0</ele><time>2022-11-06T13:08:24.0000000+00:00</time></trkpt><trkpt lat="39.45523552" lon="-0.38165303"><ele>23.0</ele><time>2022-11-06T13:08:25.0000000+00:00</time></trkpt><trkpt lat="39.45522839" lon="-0.38164373"><ele>23.0</ele><time>2022-11-06T13:08:26.0000000+00:00</time></trkpt><trkpt lat="39.45522479" lon="-0.38162512"><ele>23.2</ele><time>2022-11-06T13:08:27.0000000+00:00</time></trkpt><trkpt lat="39.45522219" lon="-0.38159955"><ele>23.2</ele><time>2022-11-06T13:08:28.0000000+00:00</time></trkpt><trkpt lat="39.45521188" lon="-0.38157835"><ele>23.2</ele><time>2022-11-06T13:08:29.0000000+00:00</time></trkpt><trkpt lat="39.45519696" lon="-0.38155798"><ele>23.2</ele><time>2022-11-06T13:08:30.0000000+00:00</time></trkpt><trkpt lat="39.45517567" lon="-0.38153476"><ele>23.2</ele><time>2022-11-06T13:08:31.0000000+00:00</time></trkpt><trkpt lat="39.45515312" lon="-0.38151548"><ele>23.2</ele><time>2022-11-06T13:08:32.0000000+00:00</time></trkpt><trkpt lat="39.45513569" lon="-0.38149989"><ele>23.2</ele><time>2022-11-06T13:08:33.0000000+00:00</time></trkpt><trkpt lat="39.455117" lon="-0.38150501"><ele>23.2</ele><time>2022-11-06T13:08:34.0000000+00:00</time></trkpt><trkpt lat="39.45509504" lon="-0.38151188"><ele>23.2</ele><time>2022-11-06T13:08:35.0000000+00:00</time></trkpt><trkpt lat="39.45507576" lon="-0.3815092"><ele>23.2</ele><time>2022-11-06T13:08:36.0000000+00:00</time></trkpt><trkpt lat="39.45506511" lon="-0.38149889"><ele>23.2</ele><time>2022-11-06T13:08:37.0000000+00:00</time></trkpt><trkpt lat="39.45506813" lon="-0.38149319"><ele>23.4</ele><time>2022-11-06T13:08:38.0000000+00:00</time></trkpt><trkpt lat="39.4550719" lon="-0.38148522"><ele>23.4</ele><time>2022-11-06T13:08:39.0000000+00:00</time></trkpt><trkpt lat="39.45507567" lon="-0.38148003"><ele>23.2</ele><time>2022-11-06T13:08:40.0000000+00:00</time></trkpt><trkpt lat="39.45507324" lon="-0.38147869"><ele>23.2</ele><time>2022-11-06T13:08:41.0000000+00:00</time></trkpt><trkpt lat="39.4550678" lon="-0.38148187"><ele>23.4</ele><time>2022-11-06T13:08:42.0000000+00:00</time></trkpt><trkpt lat="39.45506251" lon="-0.38148372"><ele>23.4</ele><time>2022-11-06T13:08:43.0000000+00:00</time></trkpt><trkpt lat="39.45505296" lon="-0.38148506"><ele>23.4</ele><time>2022-11-06T13:08:44.0000000+00:00</time></trkpt><trkpt lat="39.45504198" lon="-0.38148581"><ele>23.4</ele><time>2022-11-06T13:08:45.0000000+00:00</time></trkpt><trkpt lat="39.45502563" lon="-0.38148648"><ele>23.4</ele><time>2022-11-06T13:08:46.0000000+00:00</time></trkpt><trkpt lat="39.45501122" lon="-0.38148581"><ele>23.4</ele><time>2022-11-06T13:08:47.0000000+00:00</time></trkpt><trkpt lat="39.45500124" lon="-0.38148858"><ele>23.4</ele><time>2022-11-06T13:08:48.0000000+00:00</time></trkpt><trkpt lat="39.45499328" lon="-0.38149486"><ele>23.6</ele><time>2022-11-06T13:08:49.0000000+00:00</time></trkpt><trkpt lat="39.4549823" lon="-0.38149813"><ele>23.6</ele><time>2022-11-06T13:08:50.0000000+00:00</time></trkpt><trkpt lat="39.45497249" lon="-0.38149637"><ele>23.6</ele><time>2022-11-06T13:08:51.0000000+00:00</time></trkpt><trkpt lat="39.45496009" lon="-0.38149981"><ele>23.6</ele><time>2022-11-06T13:08:52.0000000+00:00</time></trkpt><trkpt lat="39.45495984" lon="-0.38149964"><ele>23.6</ele><time>2022-11-06T13:08:53.0000000+00:00</time></trkpt><trkpt lat="39.45495011" lon="-0.38149436"><ele>23.6</ele><time>2022-11-06T13:08:54.0000000+00:00</time></trkpt><trkpt lat="39.45493955" lon="-0.38148715"><ele>23.6</ele><time>2022-11-06T13:08:55.0000000+00:00</time></trkpt><trkpt lat="39.45492698" lon="-0.38147433"><ele>23.6</ele><time>2022-11-06T13:08:56.0000000+00:00</time></trkpt><trkpt lat="39.45490636" lon="-0.38145589"><ele>23.6</ele><time>2022-11-06T13:08:57.0000000+00:00</time></trkpt><trkpt lat="39.45489102" lon="-0.38145388"><ele>23.6</ele><time>2022-11-06T13:08:58.0000000+00:00</time></trkpt><trkpt lat="39.45487987" lon="-0.38145631"><ele>23.4</ele><time>2022-11-06T13:08:59.0000000+00:00</time></trkpt><trkpt lat="39.45487007" lon="-0.38144943"><ele>23.4</ele><time>2022-11-06T13:09:00.0000000+00:00</time></trkpt><trkpt lat="39.45486051" lon="-0.38144281"><ele>23.4</ele><time>2022-11-06T13:09:01.0000000+00:00</time></trkpt><trkpt lat="39.45485992" lon="-0.38144457"><ele>23.4</ele><time>2022-11-06T13:09:02.0000000+00:00</time></trkpt><trkpt lat="39.45486018" lon="-0.38145027"><ele>23.4</ele><time>2022-11-06T13:09:03.0000000+00:00</time></trkpt><trkpt lat="39.45485682" lon="-0.38144851"><ele>23.4</ele><time>2022-11-06T13:09:04.0000000+00:00</time></trkpt><trkpt lat="39.45485012" lon="-0.3814413"><ele>23.4</ele><time>2022-11-06T13:09:05.0000000+00:00</time></trkpt><trkpt lat="39.45484626" lon="-0.38144021"><ele>23.4</ele><time>2022-11-06T13:09:06.0000000+00:00</time></trkpt><trkpt lat="39.45484274" lon="-0.38144642"><ele>23.4</ele><time>2022-11-06T13:09:07.0000000+00:00</time></trkpt><trkpt lat="39.45484148" lon="-0.38145086"><ele>23.4</ele><time>2022-11-06T13:09:08.0000000+00:00</time></trkpt><trkpt lat="39.45483671" lon="-0.38144868"><ele>23.6</ele><time>2022-11-06T13:09:09.0000000+00:00</time></trkpt><trkpt lat="39.45482397" lon="-0.38143996"><ele>23.6</ele><time>2022-11-06T13:09:10.0000000+00:00</time></trkpt><trkpt lat="39.45480469" lon="-0.38143183"><ele>23.6</ele><time>2022-11-06T13:09:11.0000000+00:00</time></trkpt><trkpt lat="39.4547875" lon="-0.38142404"><ele>23.6</ele><time>2022-11-06T13:09:12.0000000+00:00</time></trkpt><trkpt lat="39.4547834" lon="-0.38142747"><ele>23.6</ele><time>2022-11-06T13:09:13.0000000+00:00</time></trkpt><trkpt lat="39.45477451" lon="-0.38142487"><ele>23.6</ele><time>2022-11-06T13:09:14.0000000+00:00</time></trkpt><trkpt lat="39.45475993" lon="-0.38142253"><ele>23.6</ele><time>2022-11-06T13:09:15.0000000+00:00</time></trkpt><trkpt lat="39.45474618" lon="-0.38141951"><ele>23.6</ele><time>2022-11-06T13:09:16.0000000+00:00</time></trkpt><trkpt lat="39.45473981" lon="-0.38142722"><ele>23.6</ele><time>2022-11-06T13:09:17.0000000+00:00</time></trkpt><trkpt lat="39.45473135" lon="-0.38143409"><ele>23.8</ele><time>2022-11-06T13:09:18.0000000+00:00</time></trkpt><trkpt lat="39.45472866" lon="-0.38143728"><ele>23.8</ele><time>2022-11-06T13:09:19.0000000+00:00</time></trkpt><trkpt lat="39.45471056" lon="-0.38143409"><ele>23.8</ele><time>2022-11-06T13:09:20.0000000+00:00</time></trkpt><trkpt lat="39.45469094" lon="-0.38143166"><ele>23.8</ele><time>2022-11-06T13:09:21.0000000+00:00</time></trkpt><trkpt lat="39.45468332" lon="-0.38143351"><ele>23.6</ele><time>2022-11-06T13:09:22.0000000+00:00</time></trkpt><trkpt lat="39.45467661" lon="-0.38144038"><ele>23.6</ele><time>2022-11-06T13:09:23.0000000+00:00</time></trkpt><trkpt lat="39.45466546" lon="-0.38144725"><ele>23.6</ele><time>2022-11-06T13:09:24.0000000+00:00</time></trkpt><trkpt lat="39.45465591" lon="-0.38144147"><ele>23.6</ele><time>2022-11-06T13:09:25.0000000+00:00</time></trkpt><trkpt lat="39.45464887" lon="-0.38144248"><ele>23.6</ele><time>2022-11-06T13:09:26.0000000+00:00</time></trkpt><trkpt lat="39.45463814" lon="-0.38144315"><ele>23.6</ele><time>2022-11-06T13:09:27.0000000+00:00</time></trkpt><trkpt lat="39.45462791" lon="-0.38144642"><ele>23.6</ele><time>2022-11-06T13:09:28.0000000+00:00</time></trkpt><trkpt lat="39.45461668" lon="-0.38143904"><ele>23.6</ele><time>2022-11-06T13:09:29.0000000+00:00</time></trkpt><trkpt lat="39.45460327" lon="-0.38143133"><ele>23.6</ele><time>2022-11-06T13:09:30.0000000+00:00</time></trkpt><trkpt lat="39.45459849" lon="-0.38142772"><ele>23.6</ele><time>2022-11-06T13:09:31.0000000+00:00</time></trkpt><trkpt lat="39.45459522" lon="-0.38142865"><ele>23.6</ele><time>2022-11-06T13:09:32.0000000+00:00</time></trkpt><trkpt lat="39.45459045" lon="-0.38142487"><ele>23.6</ele><time>2022-11-06T13:09:33.0000000+00:00</time></trkpt><trkpt lat="39.45457854" lon="-0.38142387"><ele>23.6</ele><time>2022-11-06T13:09:34.0000000+00:00</time></trkpt><trkpt lat="39.45456094" lon="-0.38142622"><ele>23.8</ele><time>2022-11-06T13:09:35.0000000+00:00</time></trkpt><trkpt lat="39.45455072" lon="-0.38142957"><ele>24.2</ele><time>2022-11-06T13:09:36.0000000+00:00</time></trkpt><trkpt lat="39.45454619" lon="-0.38142596"><ele>24.4</ele><time>2022-11-06T13:09:37.0000000+00:00</time></trkpt><trkpt lat="39.45454359" lon="-0.38142429"><ele>24.6</ele><time>2022-11-06T13:09:38.0000000+00:00</time></trkpt><trkpt lat="39.45455231" lon="-0.38142228"><ele>24.8</ele><time>2022-11-06T13:09:39.0000000+00:00</time></trkpt><trkpt lat="39.45456572" lon="-0.38141725"><ele>25.0</ele><time>2022-11-06T13:09:40.0000000+00:00</time></trkpt><trkpt lat="39.45456798" lon="-0.38141532"><ele>25.4</ele><time>2022-11-06T13:09:41.0000000+00:00</time></trkpt><trkpt lat="39.45456823" lon="-0.38141348"><ele>25.8</ele><time>2022-11-06T13:09:42.0000000+00:00</time></trkpt><trkpt lat="39.45457343" lon="-0.38141205"><ele>26.0</ele><time>2022-11-06T13:09:43.0000000+00:00</time></trkpt><trkpt lat="39.45458131" lon="-0.38140157"><ele>26.2</ele><time>2022-11-06T13:09:44.0000000+00:00</time></trkpt><trkpt lat="39.4545798" lon="-0.38137701"><ele>26.6</ele><time>2022-11-06T13:09:45.0000000+00:00</time></trkpt><trkpt lat="39.45457519" lon="-0.38135715"><ele>26.8</ele><time>2022-11-06T13:09:46.0000000+00:00</time></trkpt><trkpt lat="39.4545767" lon="-0.38135514"><ele>26.8</ele><time>2022-11-06T13:09:47.0000000+00:00</time></trkpt><trkpt lat="39.45457829" lon="-0.38135329"><ele>27.0</ele><time>2022-11-06T13:09:48.0000000+00:00</time></trkpt><trkpt lat="39.45458223" lon="-0.38135002"><ele>27.2</ele><time>2022-11-06T13:09:49.0000000+00:00</time></trkpt><trkpt lat="39.45458131" lon="-0.3813522"><ele>27.4</ele><time>2022-11-06T13:09:50.0000000+00:00</time></trkpt><trkpt lat="39.45458198" lon="-0.38135463"><ele>27.6</ele><time>2022-11-06T13:09:51.0000000+00:00</time></trkpt><trkpt lat="39.45458164" lon="-0.38135547"><ele>27.8</ele><time>2022-11-06T13:09:52.0000000+00:00</time></trkpt><trkpt lat="39.4545798" lon="-0.38135639"><ele>27.8</ele><time>2022-11-06T13:09:53.0000000+00:00</time></trkpt><trkpt lat="39.45457662" lon="-0.38135723"><ele>28.2</ele><time>2022-11-06T13:09:54.0000000+00:00</time></trkpt><trkpt lat="39.45457536" lon="-0.3813569"><ele>28.4</ele><time>2022-11-06T13:09:55.0000000+00:00</time></trkpt><trkpt lat="39.45457284" lon="-0.38135656"><ele>28.6</ele><time>2022-11-06T13:09:56.0000000+00:00</time></trkpt><trkpt lat="39.45457318" lon="-0.38135455"><ele>28.8</ele><time>2022-11-06T13:09:57.0000000+00:00</time></trkpt><trkpt lat="39.45456924" lon="-0.38135313"><ele>29.0</ele><time>2022-11-06T13:09:58.0000000+00:00</time></trkpt><trkpt lat="39.45456237" lon="-0.38135069"><ele>29.2</ele><time>2022-11-06T13:09:59.0000000+00:00</time></trkpt><trkpt lat="39.45455591" lon="-0.38134206"><ele>29.4</ele><time>2022-11-06T13:10:00.0000000+00:00</time></trkpt><trkpt lat="39.45454108" lon="-0.38133133"><ele>29.4</ele><time>2022-11-06T13:10:01.0000000+00:00</time></trkpt><trkpt lat="39.45452959" lon="-0.38132069"><ele>29.4</ele><time>2022-11-06T13:10:02.0000000+00:00</time></trkpt><trkpt lat="39.45452071" lon="-0.38131105"><ele>29.4</ele><time>2022-11-06T13:10:03.0000000+00:00</time></trkpt><trkpt lat="39.45451459" lon="-0.38130133"><ele>29.4</ele><time>2022-11-06T13:10:04.0000000+00:00</time></trkpt><trkpt lat="39.45450939" lon="-0.38129118"><ele>29.4</ele><time>2022-11-06T13:10:05.0000000+00:00</time></trkpt><trkpt lat="39.45450495" lon="-0.38128062"><ele>29.4</ele><time>2022-11-06T13:10:06.0000000+00:00</time></trkpt><trkpt lat="39.45449808" lon="-0.38126562"><ele>29.4</ele><time>2022-11-06T13:10:07.0000000+00:00</time></trkpt><trkpt lat="39.45449146" lon="-0.3812502"><ele>29.4</ele><time>2022-11-06T13:10:08.0000000+00:00</time></trkpt><trkpt lat="39.4544876" lon="-0.38123771"><ele>29.2</ele><time>2022-11-06T13:10:09.0000000+00:00</time></trkpt><trkpt lat="39.45448525" lon="-0.38122421"><ele>29.2</ele><time>2022-11-06T13:10:10.0000000+00:00</time></trkpt><trkpt lat="39.45448341" lon="-0.38120661"><ele>29.2</ele><time>2022-11-06T13:10:11.0000000+00:00</time></trkpt><trkpt lat="39.45448165" lon="-0.38119823"><ele>29.2</ele><time>2022-11-06T13:10:12.0000000+00:00</time></trkpt><trkpt lat="39.45448048" lon="-0.38119244"><ele>29.2</ele><time>2022-11-06T13:10:13.0000000+00:00</time></trkpt><trkpt lat="39.45447897" lon="-0.38117618"><ele>29.2</ele><time>2022-11-06T13:10:14.0000000+00:00</time></trkpt><trkpt lat="39.45447654" lon="-0.3811709"><ele>29.2</ele><time>2022-11-06T13:10:15.0000000+00:00</time></trkpt><trkpt lat="39.4544705" lon="-0.38116328"><ele>29.2</ele><time>2022-11-06T13:10:16.0000000+00:00</time></trkpt><trkpt lat="39.45446287" lon="-0.38115188"><ele>29.2</ele><time>2022-11-06T13:10:17.0000000+00:00</time></trkpt><trkpt lat="39.45445508" lon="-0.38114685"><ele>29.2</ele><time>2022-11-06T13:10:18.0000000+00:00</time></trkpt><trkpt lat="39.45445206" lon="-0.3811388"><ele>29.2</ele><time>2022-11-06T13:10:19.0000000+00:00</time></trkpt><trkpt lat="39.45445273" lon="-0.38112204"><ele>29.2</ele><time>2022-11-06T13:10:20.0000000+00:00</time></trkpt><trkpt lat="39.45444737" lon="-0.3811155"><ele>29.2</ele><time>2022-11-06T13:10:21.0000000+00:00</time></trkpt><trkpt lat="39.45444477" lon="-0.38110745"><ele>29.2</ele><time>2022-11-06T13:10:22.0000000+00:00</time></trkpt><trkpt lat="39.45444016" lon="-0.38110066"><ele>29.2</ele><time>2022-11-06T13:10:23.0000000+00:00</time></trkpt><trkpt lat="39.4544394" lon="-0.38108826"><ele>29.2</ele><time>2022-11-06T13:10:24.0000000+00:00</time></trkpt><trkpt lat="39.45443555" lon="-0.38107761"><ele>29.2</ele><time>2022-11-06T13:10:25.0000000+00:00</time></trkpt><trkpt lat="39.45442968" lon="-0.38106546"><ele>29.2</ele><time>2022-11-06T13:10:26.0000000+00:00</time></trkpt><trkpt lat="39.45442583" lon="-0.3810554"><ele>29.2</ele><time>2022-11-06T13:10:27.0000000+00:00</time></trkpt><trkpt lat="39.45442314" lon="-0.38104476"><ele>29.2</ele><time>2022-11-06T13:10:28.0000000+00:00</time></trkpt><trkpt lat="39.45442465" lon="-0.38103662"><ele>29.2</ele><time>2022-11-06T13:10:29.0000000+00:00</time></trkpt><trkpt lat="39.4544239" lon="-0.38102808"><ele>29.2</ele><time>2022-11-06T13:10:30.0000000+00:00</time></trkpt><trkpt lat="39.45442474" lon="-0.38102623"><ele>29.4</ele><time>2022-11-06T13:10:31.0000000+00:00</time></trkpt><trkpt lat="39.45442524" lon="-0.38102447"><ele>29.4</ele><time>2022-11-06T13:10:32.0000000+00:00</time></trkpt><trkpt lat="39.45442976" lon="-0.38102028"><ele>29.4</ele><time>2022-11-06T13:10:33.0000000+00:00</time></trkpt><trkpt lat="39.45443153" lon="-0.38101986"><ele>29.4</ele><time>2022-11-06T13:10:34.0000000+00:00</time></trkpt><trkpt lat="39.45443404" lon="-0.38101877"><ele>29.4</ele><time>2022-11-06T13:10:35.0000000+00:00</time></trkpt><trkpt lat="39.45443647" lon="-0.38101869"><ele>29.2</ele><time>2022-11-06T13:10:36.0000000+00:00</time></trkpt><trkpt lat="39.45443731" lon="-0.38102171"><ele>28.8</ele><time>2022-11-06T13:10:37.0000000+00:00</time></trkpt><trkpt lat="39.45443991" lon="-0.38102162"><ele>28.6</ele><time>2022-11-06T13:10:38.0000000+00:00</time></trkpt><trkpt lat="39.45444326" lon="-0.38102028"><ele>28.4</ele><time>2022-11-06T13:10:39.0000000+00:00</time></trkpt><trkpt lat="39.45444418" lon="-0.38101902"><ele>28.2</ele><time>2022-11-06T13:10:40.0000000+00:00</time></trkpt><trkpt lat="39.45444418" lon="-0.38101743"><ele>28.0</ele><time>2022-11-06T13:10:41.0000000+00:00</time></trkpt><trkpt lat="39.45444594" lon="-0.38101542"><ele>27.6</ele><time>2022-11-06T13:10:42.0000000+00:00</time></trkpt><trkpt lat="39.45445114" lon="-0.38101425"><ele>27.4</ele><time>2022-11-06T13:10:43.0000000+00:00</time></trkpt><trkpt lat="39.45445566" lon="-0.38102422"><ele>27.2</ele><time>2022-11-06T13:10:44.0000000+00:00</time></trkpt><trkpt lat="39.45445885" lon="-0.3810274"><ele>27.0</ele><time>2022-11-06T13:10:45.0000000+00:00</time></trkpt><trkpt lat="39.45446237" lon="-0.38102824"><ele>26.8</ele><time>2022-11-06T13:10:46.0000000+00:00</time></trkpt><trkpt lat="39.45446455" lon="-0.38102715"><ele>26.6</ele><time>2022-11-06T13:10:47.0000000+00:00</time></trkpt><trkpt lat="39.4544674" lon="-0.38103528"><ele>26.4</ele><time>2022-11-06T13:10:48.0000000+00:00</time></trkpt><trkpt lat="39.45447536" lon="-0.38103269"><ele>26.0</ele><time>2022-11-06T13:10:49.0000000+00:00</time></trkpt><trkpt lat="39.45447763" lon="-0.38103227"><ele>25.8</ele><time>2022-11-06T13:10:50.0000000+00:00</time></trkpt><trkpt lat="39.45448148" lon="-0.38103495"><ele>25.6</ele><time>2022-11-06T13:10:51.0000000+00:00</time></trkpt><trkpt lat="39.45448894" lon="-0.38103176"><ele>25.2</ele><time>2022-11-06T13:10:52.0000000+00:00</time></trkpt><trkpt lat="39.45449288" lon="-0.38103269"><ele>25.0</ele><time>2022-11-06T13:10:53.0000000+00:00</time></trkpt><trkpt lat="39.45449824" lon="-0.38103269"><ele>24.8</ele><time>2022-11-06T13:10:54.0000000+00:00</time></trkpt><trkpt lat="39.45450436" lon="-0.38102816"><ele>24.4</ele><time>2022-11-06T13:10:55.0000000+00:00</time></trkpt><trkpt lat="39.45451367" lon="-0.38102321"><ele>24.2</ele><time>2022-11-06T13:10:56.0000000+00:00</time></trkpt><trkpt lat="39.45451895" lon="-0.38102355"><ele>24.0</ele><time>2022-11-06T13:10:57.0000000+00:00</time></trkpt><trkpt lat="39.45453228" lon="-0.38101911"><ele>23.6</ele><time>2022-11-06T13:10:58.0000000+00:00</time></trkpt><trkpt lat="39.45454024" lon="-0.38101257"><ele>23.6</ele><time>2022-11-06T13:10:59.0000000+00:00</time></trkpt><trkpt lat="39.45455541" lon="-0.38100192"><ele>23.4</ele><time>2022-11-06T13:11:00.0000000+00:00</time></trkpt><trkpt lat="39.45457209" lon="-0.38098256"><ele>23.2</ele><time>2022-11-06T13:11:01.0000000+00:00</time></trkpt><trkpt lat="39.45458123" lon="-0.38096814"><ele>23.2</ele><time>2022-11-06T13:11:02.0000000+00:00</time></trkpt><trkpt lat="39.45458701" lon="-0.38096186"><ele>23.2</ele><time>2022-11-06T13:11:03.0000000+00:00</time></trkpt><trkpt lat="39.45459053" lon="-0.38095834"><ele>23.2</ele><time>2022-11-06T13:11:04.0000000+00:00</time></trkpt><trkpt lat="39.45459581" lon="-0.38095524"><ele>23.0</ele><time>2022-11-06T13:11:05.0000000+00:00</time></trkpt><trkpt lat="39.45460738" lon="-0.38094551"><ele>23.0</ele><time>2022-11-06T13:11:06.0000000+00:00</time></trkpt><trkpt lat="39.4546171" lon="-0.38093772"><ele>23.0</ele><time>2022-11-06T13:11:07.0000000+00:00</time></trkpt><trkpt lat="39.45462791" lon="-0.38093302"><ele>23.0</ele><time>2022-11-06T13:11:08.0000000+00:00</time></trkpt><trkpt lat="39.45464032" lon="-0.38092867"><ele>22.8</ele><time>2022-11-06T13:11:09.0000000+00:00</time></trkpt><trkpt lat="39.4546523" lon="-0.380928"><ele>22.8</ele><time>2022-11-06T13:11:10.0000000+00:00</time></trkpt><trkpt lat="39.45466152" lon="-0.38092288"><ele>22.8</ele><time>2022-11-06T13:11:11.0000000+00:00</time></trkpt><trkpt lat="39.45467175" lon="-0.38091651"><ele>22.8</ele><time>2022-11-06T13:11:12.0000000+00:00</time></trkpt><trkpt lat="39.4546772" lon="-0.380915"><ele>22.8</ele><time>2022-11-06T13:11:13.0000000+00:00</time></trkpt><trkpt lat="39.4546829" lon="-0.38091693"><ele>22.8</ele><time>2022-11-06T13:11:14.0000000+00:00</time></trkpt><trkpt lat="39.4546881" lon="-0.38091408"><ele>22.8</ele><time>2022-11-06T13:11:15.0000000+00:00</time></trkpt><trkpt lat="39.45468784" lon="-0.38090469"><ele>22.8</ele><time>2022-11-06T13:11:16.0000000+00:00</time></trkpt><trkpt lat="39.45468885" lon="-0.38088827"><ele>22.8</ele><time>2022-11-06T13:11:17.0000000+00:00</time></trkpt><trkpt lat="39.45469505" lon="-0.38086924"><ele>22.6</ele><time>2022-11-06T13:11:18.0000000+00:00</time></trkpt><trkpt lat="39.45469916" lon="-0.38085608"><ele>22.6</ele><time>2022-11-06T13:11:19.0000000+00:00</time></trkpt><trkpt lat="39.45470846" lon="-0.38083948"><ele>22.6</ele><time>2022-11-06T13:11:20.0000000+00:00</time></trkpt><trkpt lat="39.4547176" lon="-0.38082917"><ele>22.6</ele><time>2022-11-06T13:11:21.0000000+00:00</time></trkpt><trkpt lat="39.45473076" lon="-0.38082305"><ele>22.6</ele><time>2022-11-06T13:11:22.0000000+00:00</time></trkpt><trkpt lat="39.45474425" lon="-0.38081811"><ele>22.6</ele><time>2022-11-06T13:11:23.0000000+00:00</time></trkpt><trkpt lat="39.45475364" lon="-0.38081325"><ele>22.6</ele><time>2022-11-06T13:11:24.0000000+00:00</time></trkpt><trkpt lat="39.45476504" lon="-0.38081023"><ele>22.6</ele><time>2022-11-06T13:11:25.0000000+00:00</time></trkpt><trkpt lat="39.45477552" lon="-0.38080554"><ele>22.6</ele><time>2022-11-06T13:11:26.0000000+00:00</time></trkpt><trkpt lat="39.454787" lon="-0.38079212"><ele>22.6</ele><time>2022-11-06T13:11:27.0000000+00:00</time></trkpt><trkpt lat="39.45479731" lon="-0.38078282"><ele>22.8</ele><time>2022-11-06T13:11:28.0000000+00:00</time></trkpt><trkpt lat="39.45480435" lon="-0.38077083"><ele>22.8</ele><time>2022-11-06T13:11:29.0000000+00:00</time></trkpt><trkpt lat="39.45480863" lon="-0.38075332"><ele>22.8</ele><time>2022-11-06T13:11:30.0000000+00:00</time></trkpt><trkpt lat="39.45482053" lon="-0.38074091"><ele>22.8</ele><time>2022-11-06T13:11:31.0000000+00:00</time></trkpt><trkpt lat="39.45482606" lon="-0.38073219"><ele>22.8</ele><time>2022-11-06T13:11:32.0000000+00:00</time></trkpt><trkpt lat="39.45483109" lon="-0.38072113"><ele>22.8</ele><time>2022-11-06T13:11:33.0000000+00:00</time></trkpt><trkpt lat="39.45483159" lon="-0.38071065"><ele>22.8</ele><time>2022-11-06T13:11:34.0000000+00:00</time></trkpt><trkpt lat="39.45483729" lon="-0.38069992"><ele>22.8</ele><time>2022-11-06T13:11:35.0000000+00:00</time></trkpt><trkpt lat="39.45484266" lon="-0.3806933"><ele>22.8</ele><time>2022-11-06T13:11:36.0000000+00:00</time></trkpt><trkpt lat="39.4548533" lon="-0.38068207"><ele>22.8</ele><time>2022-11-06T13:11:37.0000000+00:00</time></trkpt><trkpt lat="39.4548699" lon="-0.38066665"><ele>22.6</ele><time>2022-11-06T13:11:38.0000000+00:00</time></trkpt><trkpt lat="39.45488599" lon="-0.38066816"><ele>22.6</ele><time>2022-11-06T13:11:39.0000000+00:00</time></trkpt><trkpt lat="39.45488976" lon="-0.38066153"><ele>22.6</ele><time>2022-11-06T13:11:40.0000000+00:00</time></trkpt><trkpt lat="39.45489722" lon="-0.38065215"><ele>22.6</ele><time>2022-11-06T13:11:41.0000000+00:00</time></trkpt><trkpt lat="39.45490041" lon="-0.38064159"><ele>22.6</ele><time>2022-11-06T13:11:42.0000000+00:00</time></trkpt><trkpt lat="39.45490586" lon="-0.38063228"><ele>22.6</ele><time>2022-11-06T13:11:43.0000000+00:00</time></trkpt><trkpt lat="39.45491198" lon="-0.38062231"><ele>22.6</ele><time>2022-11-06T13:11:44.0000000+00:00</time></trkpt><trkpt lat="39.4549165" lon="-0.38060756"><ele>22.6</ele><time>2022-11-06T13:11:45.0000000+00:00</time></trkpt><trkpt lat="39.45492421" lon="-0.38059305"><ele>22.4</ele><time>2022-11-06T13:11:46.0000000+00:00</time></trkpt><trkpt lat="39.45493335" lon="-0.38057285"><ele>22.4</ele><time>2022-11-06T13:11:47.0000000+00:00</time></trkpt><trkpt lat="39.45494693" lon="-0.38055249"><ele>22.4</ele><time>2022-11-06T13:11:48.0000000+00:00</time></trkpt><trkpt lat="39.45496059" lon="-0.38054243"><ele>22.4</ele><time>2022-11-06T13:11:49.0000000+00:00</time></trkpt><trkpt lat="39.45496302" lon="-0.38053958"><ele>22.4</ele><time>2022-11-06T13:11:50.0000000+00:00</time></trkpt><trkpt lat="39.45497668" lon="-0.38053731"><ele>22.2</ele><time>2022-11-06T13:11:51.0000000+00:00</time></trkpt><trkpt lat="39.45499294" lon="-0.38052499"><ele>22.2</ele><time>2022-11-06T13:11:52.0000000+00:00</time></trkpt><trkpt lat="39.45499932" lon="-0.3805089"><ele>22.2</ele><time>2022-11-06T13:11:53.0000000+00:00</time></trkpt><trkpt lat="39.45500149" lon="-0.38049063"><ele>22.2</ele><time>2022-11-06T13:11:54.0000000+00:00</time></trkpt><trkpt lat="39.45500518" lon="-0.38047445"><ele>22.2</ele><time>2022-11-06T13:11:55.0000000+00:00</time></trkpt><trkpt lat="39.45501826" lon="-0.3804592"><ele>22.0</ele><time>2022-11-06T13:11:56.0000000+00:00</time></trkpt><trkpt lat="39.45502563" lon="-0.38044302"><ele>22.0</ele><time>2022-11-06T13:11:57.0000000+00:00</time></trkpt><trkpt lat="39.45503117" lon="-0.38043606"><ele>22.0</ele><time>2022-11-06T13:11:58.0000000+00:00</time></trkpt><trkpt lat="39.45504231" lon="-0.38043824"><ele>22.0</ele><time>2022-11-06T13:11:59.0000000+00:00</time></trkpt><trkpt lat="39.45505187" lon="-0.38043765"><ele>22.0</ele><time>2022-11-06T13:12:00.0000000+00:00</time></trkpt><trkpt lat="39.45505933" lon="-0.38043388"><ele>22.0</ele><time>2022-11-06T13:12:01.0000000+00:00</time></trkpt><trkpt lat="39.455075" lon="-0.38042751"><ele>22.0</ele><time>2022-11-06T13:12:02.0000000+00:00</time></trkpt><trkpt lat="39.45509227" lon="-0.38042072"><ele>22.0</ele><time>2022-11-06T13:12:03.0000000+00:00</time></trkpt><trkpt lat="39.45509453" lon="-0.38041653"><ele>22.0</ele><time>2022-11-06T13:12:04.0000000+00:00</time></trkpt><trkpt lat="39.45510878" lon="-0.38041209"><ele>22.2</ele><time>2022-11-06T13:12:05.0000000+00:00</time></trkpt><trkpt lat="39.45511876" lon="-0.3804089"><ele>22.0</ele><time>2022-11-06T13:12:06.0000000+00:00</time></trkpt><trkpt lat="39.45512739" lon="-0.38039742"><ele>22.0</ele><time>2022-11-06T13:12:07.0000000+00:00</time></trkpt><trkpt lat="39.45512747" lon="-0.3803825"><ele>21.8</ele><time>2022-11-06T13:12:08.0000000+00:00</time></trkpt><trkpt lat="39.45512706" lon="-0.38037001"><ele>21.8</ele><time>2022-11-06T13:12:09.0000000+00:00</time></trkpt><trkpt lat="39.4551232" lon="-0.38035652"><ele>21.8</ele><time>2022-11-06T13:12:10.0000000+00:00</time></trkpt><trkpt lat="39.45511884" lon="-0.38033623"><ele>21.8</ele><time>2022-11-06T13:12:11.0000000+00:00</time></trkpt><trkpt lat="39.45511415" lon="-0.38031989"><ele>21.8</ele><time>2022-11-06T13:12:12.0000000+00:00</time></trkpt><trkpt lat="39.45511155" lon="-0.38030455"><ele>21.8</ele><time>2022-11-06T13:12:13.0000000+00:00</time></trkpt><trkpt lat="39.45510929" lon="-0.38029114"><ele>21.8</ele><time>2022-11-06T13:12:14.0000000+00:00</time></trkpt><trkpt lat="39.45510878" lon="-0.38027781"><ele>21.8</ele><time>2022-11-06T13:12:15.0000000+00:00</time></trkpt><trkpt lat="39.45510744" lon="-0.38026725"><ele>21.8</ele><time>2022-11-06T13:12:16.0000000+00:00</time></trkpt><trkpt lat="39.4551082" lon="-0.3802587"><ele>21.8</ele><time>2022-11-06T13:12:17.0000000+00:00</time></trkpt><trkpt lat="39.45511431" lon="-0.38024403"><ele>21.8</ele><time>2022-11-06T13:12:18.0000000+00:00</time></trkpt><trkpt lat="39.45511515" lon="-0.38023716"><ele>21.8</ele><time>2022-11-06T13:12:19.0000000+00:00</time></trkpt><trkpt lat="39.45511608" lon="-0.38022962"><ele>21.8</ele><time>2022-11-06T13:12:20.0000000+00:00</time></trkpt><trkpt lat="39.45511876" lon="-0.38022358"><ele>21.8</ele><time>2022-11-06T13:12:21.0000000+00:00</time></trkpt><trkpt lat="39.4551268" lon="-0.38020237"><ele>21.8</ele><time>2022-11-06T13:12:22.0000000+00:00</time></trkpt><trkpt lat="39.45513259" lon="-0.38018603"><ele>22.0</ele><time>2022-11-06T13:12:23.0000000+00:00</time></trkpt><trkpt lat="39.45514223" lon="-0.38017103"><ele>22.0</ele><time>2022-11-06T13:12:24.0000000+00:00</time></trkpt><trkpt lat="39.45515254" lon="-0.3801608"><ele>22.0</ele><time>2022-11-06T13:12:25.0000000+00:00</time></trkpt><trkpt lat="39.45515405" lon="-0.38014018"><ele>22.0</ele><time>2022-11-06T13:12:26.0000000+00:00</time></trkpt><trkpt lat="39.45515698" lon="-0.38013817"><ele>22.0</ele><time>2022-11-06T13:12:27.0000000+00:00</time></trkpt><trkpt lat="39.45515891" lon="-0.38013272"><ele>22.0</ele><time>2022-11-06T13:12:28.0000000+00:00</time></trkpt><trkpt lat="39.45513368" lon="-0.38015275"><ele>22.0</ele><time>2022-11-06T13:12:29.0000000+00:00</time></trkpt><trkpt lat="39.45510652" lon="-0.38016809"><ele>22.0</ele><time>2022-11-06T13:12:30.0000000+00:00</time></trkpt><trkpt lat="39.45510099" lon="-0.38015485"><ele>22.0</ele><time>2022-11-06T13:12:31.0000000+00:00</time></trkpt><trkpt lat="39.4550937" lon="-0.38014781"><ele>22.0</ele><time>2022-11-06T13:12:32.0000000+00:00</time></trkpt><trkpt lat="39.45508691" lon="-0.38013389"><ele>22.2</ele><time>2022-11-06T13:12:33.0000000+00:00</time></trkpt><trkpt lat="39.45508196" lon="-0.38012283"><ele>22.2</ele><time>2022-11-06T13:12:34.0000000+00:00</time></trkpt><trkpt lat="39.45507693" lon="-0.38012249"><ele>22.2</ele><time>2022-11-06T13:12:35.0000000+00:00</time></trkpt><trkpt lat="39.45507274" lon="-0.38011679"><ele>22.2</ele><time>2022-11-06T13:12:36.0000000+00:00</time></trkpt><trkpt lat="39.45508406" lon="-0.38012886"><ele>22.2</ele><time>2022-11-06T13:12:37.0000000+00:00</time></trkpt><trkpt lat="39.45509445" lon="-0.38013574"><ele>22.4</ele><time>2022-11-06T13:12:38.0000000+00:00</time></trkpt><trkpt lat="39.45510719" lon="-0.38013959"><ele>22.4</ele><time>2022-11-06T13:12:39.0000000+00:00</time></trkpt><trkpt lat="39.45512362" lon="-0.38014538"><ele>22.6</ele><time>2022-11-06T13:12:40.0000000+00:00</time></trkpt><trkpt lat="39.45513929" lon="-0.38014236"><ele>22.6</ele><time>2022-11-06T13:12:41.0000000+00:00</time></trkpt><trkpt lat="39.45515731" lon="-0.38014747"><ele>22.6</ele><time>2022-11-06T13:12:42.0000000+00:00</time></trkpt><trkpt lat="39.45519964" lon="-0.38015946"><ele>22.6</ele><time>2022-11-06T13:12:43.0000000+00:00</time></trkpt><trkpt lat="39.45523527" lon="-0.38016524"><ele>22.8</ele><time>2022-11-06T13:12:44.0000000+00:00</time></trkpt><trkpt lat="39.45527609" lon="-0.38016927"><ele>22.8</ele><time>2022-11-06T13:12:45.0000000+00:00</time></trkpt><trkpt lat="39.45531062" lon="-0.38016876"><ele>22.8</ele><time>2022-11-06T13:12:46.0000000+00:00</time></trkpt><trkpt lat="39.45534448" lon="-0.38016784"><ele>22.6</ele><time>2022-11-06T13:12:47.0000000+00:00</time></trkpt><trkpt lat="39.45535555" lon="-0.38016323"><ele>22.6</ele><time>2022-11-06T13:12:48.0000000+00:00</time></trkpt><trkpt lat="39.45537256" lon="-0.38015418"><ele>22.6</ele><time>2022-11-06T13:12:49.0000000+00:00</time></trkpt><trkpt lat="39.45538337" lon="-0.38014806"><ele>22.6</ele><time>2022-11-06T13:12:50.0000000+00:00</time></trkpt><trkpt lat="39.45539083" lon="-0.38013834"><ele>22.6</ele><time>2022-11-06T13:12:51.0000000+00:00</time></trkpt><trkpt lat="39.45539913" lon="-0.38012886"><ele>22.6</ele><time>2022-11-06T13:12:52.0000000+00:00</time></trkpt><trkpt lat="39.45539838" lon="-0.38012073"><ele>22.6</ele><time>2022-11-06T13:12:53.0000000+00:00</time></trkpt><trkpt lat="39.45540215" lon="-0.38011135"><ele>22.6</ele><time>2022-11-06T13:12:54.0000000+00:00</time></trkpt><trkpt lat="39.45540651" lon="-0.3801038"><ele>22.6</ele><time>2022-11-06T13:12:55.0000000+00:00</time></trkpt><trkpt lat="39.45541087" lon="-0.38009366"><ele>22.6</ele><time>2022-11-06T13:12:56.0000000+00:00</time></trkpt><trkpt lat="39.45541279" lon="-0.38008704"><ele>22.6</ele><time>2022-11-06T13:12:57.0000000+00:00</time></trkpt><trkpt lat="39.4554169" lon="-0.38008285"><ele>22.6</ele><time>2022-11-06T13:12:58.0000000+00:00</time></trkpt><trkpt lat="39.45542587" lon="-0.38007229"><ele>22.6</ele><time>2022-11-06T13:12:59.0000000+00:00</time></trkpt><trkpt lat="39.45543685" lon="-0.38006038"><ele>22.6</ele><time>2022-11-06T13:13:00.0000000+00:00</time></trkpt><trkpt lat="39.45544431" lon="-0.38004647"><ele>22.6</ele><time>2022-11-06T13:13:01.0000000+00:00</time></trkpt><trkpt lat="39.45544364" lon="-0.38003717"><ele>22.6</ele><time>2022-11-06T13:13:02.0000000+00:00</time></trkpt><trkpt lat="39.45544674" lon="-0.380022"><ele>22.6</ele><time>2022-11-06T13:13:03.0000000+00:00</time></trkpt><trkpt lat="39.45545278" lon="-0.38000397"><ele>22.6</ele><time>2022-11-06T13:13:04.0000000+00:00</time></trkpt><trkpt lat="39.45545814" lon="-0.37999149"><ele>22.6</ele><time>2022-11-06T13:13:05.0000000+00:00</time></trkpt><trkpt lat="39.45545345" lon="-0.3799878"><ele>22.6</ele><time>2022-11-06T13:13:06.0000000+00:00</time></trkpt><trkpt lat="39.45545537" lon="-0.3799702"><ele>22.6</ele><time>2022-11-06T13:13:07.0000000+00:00</time></trkpt><trkpt lat="39.45545361" lon="-0.37995745"><ele>22.6</ele><time>2022-11-06T13:13:08.0000000+00:00</time></trkpt><trkpt lat="39.45545445" lon="-0.37993616"><ele>22.6</ele><time>2022-11-06T13:13:09.0000000+00:00</time></trkpt><trkpt lat="39.4554506" lon="-0.37992066"><ele>22.6</ele><time>2022-11-06T13:13:10.0000000+00:00</time></trkpt><trkpt lat="39.45544289" lon="-0.37991881"><ele>22.4</ele><time>2022-11-06T13:13:11.0000000+00:00</time></trkpt><trkpt lat="39.45544071" lon="-0.37990456"><ele>22.4</ele><time>2022-11-06T13:13:12.0000000+00:00</time></trkpt><trkpt lat="39.45543266" lon="-0.37989752"><ele>22.4</ele><time>2022-11-06T13:13:13.0000000+00:00</time></trkpt><trkpt lat="39.4554231" lon="-0.37988713"><ele>22.4</ele><time>2022-11-06T13:13:14.0000000+00:00</time></trkpt><trkpt lat="39.45542126" lon="-0.37987808"><ele>22.4</ele><time>2022-11-06T13:13:15.0000000+00:00</time></trkpt><trkpt lat="39.4554273" lon="-0.37985478"><ele>22.4</ele><time>2022-11-06T13:13:16.0000000+00:00</time></trkpt><trkpt lat="39.45543475" lon="-0.37983977"><ele>22.4</ele><time>2022-11-06T13:13:17.0000000+00:00</time></trkpt><trkpt lat="39.45544289" lon="-0.37982267"><ele>22.4</ele><time>2022-11-06T13:13:18.0000000+00:00</time></trkpt><trkpt lat="39.45545554" lon="-0.37979652"><ele>22.2</ele><time>2022-11-06T13:13:19.0000000+00:00</time></trkpt><trkpt lat="39.45546334" lon="-0.3797728"><ele>22.2</ele><time>2022-11-06T13:13:20.0000000+00:00</time></trkpt><trkpt lat="39.455462" lon="-0.37975956"><ele>22.2</ele><time>2022-11-06T13:13:21.0000000+00:00</time></trkpt><trkpt lat="39.45545688" lon="-0.37975059"><ele>22.2</ele><time>2022-11-06T13:13:22.0000000+00:00</time></trkpt><trkpt lat="39.45545739" lon="-0.37973994"><ele>22.2</ele><time>2022-11-06T13:13:23.0000000+00:00</time></trkpt><trkpt lat="39.45546032" lon="-0.37972469"><ele>22.2</ele><time>2022-11-06T13:13:24.0000000+00:00</time></trkpt><trkpt lat="39.45546485" lon="-0.37971396"><ele>22.2</ele><time>2022-11-06T13:13:25.0000000+00:00</time></trkpt><trkpt lat="39.45546996" lon="-0.37970415"><ele>22.2</ele><time>2022-11-06T13:13:26.0000000+00:00</time></trkpt><trkpt lat="39.45547591" lon="-0.37969736"><ele>22.2</ele><time>2022-11-06T13:13:27.0000000+00:00</time></trkpt><trkpt lat="39.45548119" lon="-0.3796754"><ele>22.2</ele><time>2022-11-06T13:13:28.0000000+00:00</time></trkpt><trkpt lat="39.45548639" lon="-0.37966333"><ele>22.2</ele><time>2022-11-06T13:13:29.0000000+00:00</time></trkpt><trkpt lat="39.45548957" lon="-0.37965244"><ele>22.2</ele><time>2022-11-06T13:13:30.0000000+00:00</time></trkpt><trkpt lat="39.45548974" lon="-0.37964255"><ele>22.2</ele><time>2022-11-06T13:13:31.0000000+00:00</time></trkpt><trkpt lat="39.45547801" lon="-0.3796345"><ele>22.2</ele><time>2022-11-06T13:13:32.0000000+00:00</time></trkpt><trkpt lat="39.4554677" lon="-0.37962"><ele>22.2</ele><time>2022-11-06T13:13:33.0000000+00:00</time></trkpt><trkpt lat="39.45546568" lon="-0.37960324"><ele>22.2</ele><time>2022-11-06T13:13:34.0000000+00:00</time></trkpt><trkpt lat="39.45546619" lon="-0.37959041"><ele>22.2</ele><time>2022-11-06T13:13:35.0000000+00:00</time></trkpt><trkpt lat="39.45546837" lon="-0.37958195"><ele>22.2</ele><time>2022-11-06T13:13:36.0000000+00:00</time></trkpt><trkpt lat="39.45548044" lon="-0.37956686"><ele>22.0</ele><time>2022-11-06T13:13:37.0000000+00:00</time></trkpt><trkpt lat="39.45549829" lon="-0.37954674"><ele>22.0</ele><time>2022-11-06T13:13:38.0000000+00:00</time></trkpt><trkpt lat="39.45549971" lon="-0.37952981"><ele>22.0</ele><time>2022-11-06T13:13:39.0000000+00:00</time></trkpt><trkpt lat="39.45549888" lon="-0.3795252"><ele>22.0</ele><time>2022-11-06T13:13:40.0000000+00:00</time></trkpt><trkpt lat="39.45549368" lon="-0.37952394"><ele>21.8</ele><time>2022-11-06T13:13:41.0000000+00:00</time></trkpt><trkpt lat="39.45549527" lon="-0.37951179"><ele>21.8</ele><time>2022-11-06T13:13:42.0000000+00:00</time></trkpt><trkpt lat="39.4554951" lon="-0.3795019"><ele>21.8</ele><time>2022-11-06T13:13:43.0000000+00:00</time></trkpt><trkpt lat="39.45549795" lon="-0.37948195"><ele>21.8</ele><time>2022-11-06T13:13:44.0000000+00:00</time></trkpt><trkpt lat="39.45550826" lon="-0.37945387"><ele>21.8</ele><time>2022-11-06T13:13:45.0000000+00:00</time></trkpt><trkpt lat="39.45551405" lon="-0.3794444"><ele>22.0</ele><time>2022-11-06T13:13:46.0000000+00:00</time></trkpt><trkpt lat="39.45552042" lon="-0.37943618"><ele>22.0</ele><time>2022-11-06T13:13:47.0000000+00:00</time></trkpt><trkpt lat="39.45552352" lon="-0.37942663"><ele>22.0</ele><time>2022-11-06T13:13:48.0000000+00:00</time></trkpt><trkpt lat="39.45552738" lon="-0.37941598"><ele>22.0</ele><time>2022-11-06T13:13:49.0000000+00:00</time></trkpt><trkpt lat="39.45553165" lon="-0.37940995"><ele>22.0</ele><time>2022-11-06T13:13:50.0000000+00:00</time></trkpt><trkpt lat="39.45553911" lon="-0.37940433"><ele>22.0</ele><time>2022-11-06T13:13:51.0000000+00:00</time></trkpt><trkpt lat="39.4555464" lon="-0.37939939"><ele>22.0</ele><time>2022-11-06T13:13:52.0000000+00:00</time></trkpt><trkpt lat="39.45554908" lon="-0.37939151"><ele>22.0</ele><time>2022-11-06T13:13:53.0000000+00:00</time></trkpt><trkpt lat="39.45555135" lon="-0.37937986"><ele>22.0</ele><time>2022-11-06T13:13:54.0000000+00:00</time></trkpt><trkpt lat="39.45556023" lon="-0.37936527"><ele>22.0</ele><time>2022-11-06T13:13:55.0000000+00:00</time></trkpt><trkpt lat="39.45556593" lon="-0.37934884"><ele>22.0</ele><time>2022-11-06T13:13:56.0000000+00:00</time></trkpt><trkpt lat="39.4555744" lon="-0.37933552"><ele>22.0</ele><time>2022-11-06T13:13:57.0000000+00:00</time></trkpt><trkpt lat="39.45557616" lon="-0.37932253"><ele>22.0</ele><time>2022-11-06T13:13:58.0000000+00:00</time></trkpt><trkpt lat="39.45557934" lon="-0.37930844"><ele>22.0</ele><time>2022-11-06T13:13:59.0000000+00:00</time></trkpt><trkpt lat="39.45558253" lon="-0.37929034"><ele>22.0</ele><time>2022-11-06T13:14:00.0000000+00:00</time></trkpt><trkpt lat="39.45558865" lon="-0.37927668"><ele>22.0</ele><time>2022-11-06T13:14:01.0000000+00:00</time></trkpt><trkpt lat="39.45559686" lon="-0.37925958"><ele>21.8</ele><time>2022-11-06T13:14:02.0000000+00:00</time></trkpt><trkpt lat="39.4556039" lon="-0.37924558"><ele>21.8</ele><time>2022-11-06T13:14:03.0000000+00:00</time></trkpt><trkpt lat="39.45561421" lon="-0.37923602"><ele>21.8</ele><time>2022-11-06T13:14:04.0000000+00:00</time></trkpt><trkpt lat="39.45562234" lon="-0.3792263"><ele>21.8</ele><time>2022-11-06T13:14:05.0000000+00:00</time></trkpt><trkpt lat="39.4556288" lon="-0.37921691"><ele>21.8</ele><time>2022-11-06T13:14:06.0000000+00:00</time></trkpt><trkpt lat="39.45563676" lon="-0.37919998"><ele>21.8</ele><time>2022-11-06T13:14:07.0000000+00:00</time></trkpt><trkpt lat="39.45564548" lon="-0.37918691"><ele>21.8</ele><time>2022-11-06T13:14:08.0000000+00:00</time></trkpt><trkpt lat="39.45564874" lon="-0.37918129"><ele>21.8</ele><time>2022-11-06T13:14:09.0000000+00:00</time></trkpt><trkpt lat="39.45565512" lon="-0.37917165"><ele>21.8</ele><time>2022-11-06T13:14:10.0000000+00:00</time></trkpt><trkpt lat="39.45566375" lon="-0.37915732"><ele>21.8</ele><time>2022-11-06T13:14:11.0000000+00:00</time></trkpt><trkpt lat="39.45566895" lon="-0.37914265"><ele>21.8</ele><time>2022-11-06T13:14:12.0000000+00:00</time></trkpt><trkpt lat="39.45567582" lon="-0.379131"><ele>21.6</ele><time>2022-11-06T13:14:13.0000000+00:00</time></trkpt><trkpt lat="39.455678" lon="-0.3791175"><ele>21.6</ele><time>2022-11-06T13:14:14.0000000+00:00</time></trkpt><trkpt lat="39.45568244" lon="-0.37910191"><ele>21.6</ele><time>2022-11-06T13:14:15.0000000+00:00</time></trkpt><trkpt lat="39.45568588" lon="-0.37909571"><ele>21.6</ele><time>2022-11-06T13:14:16.0000000+00:00</time></trkpt><trkpt lat="39.45568822" lon="-0.37908766"><ele>21.6</ele><time>2022-11-06T13:14:17.0000000+00:00</time></trkpt><trkpt lat="39.45569334" lon="-0.37907979"><ele>21.6</ele><time>2022-11-06T13:14:18.0000000+00:00</time></trkpt><trkpt lat="39.45570256" lon="-0.37906772"><ele>21.6</ele><time>2022-11-06T13:14:19.0000000+00:00</time></trkpt><trkpt lat="39.45571119" lon="-0.37905799"><ele>21.6</ele><time>2022-11-06T13:14:20.0000000+00:00</time></trkpt><trkpt lat="39.45571932" lon="-0.37904265"><ele>21.6</ele><time>2022-11-06T13:14:21.0000000+00:00</time></trkpt><trkpt lat="39.45572477" lon="-0.37903519"><ele>21.6</ele><time>2022-11-06T13:14:22.0000000+00:00</time></trkpt><trkpt lat="39.45573089" lon="-0.37902379"><ele>21.6</ele><time>2022-11-06T13:14:23.0000000+00:00</time></trkpt><trkpt lat="39.45573701" lon="-0.37901935"><ele>21.6</ele><time>2022-11-06T13:14:24.0000000+00:00</time></trkpt><trkpt lat="39.45574371" lon="-0.37901835"><ele>21.6</ele><time>2022-11-06T13:14:25.0000000+00:00</time></trkpt><trkpt lat="39.45574899" lon="-0.37901893"><ele>21.6</ele><time>2022-11-06T13:14:26.0000000+00:00</time></trkpt><trkpt lat="39.45576048" lon="-0.37902438"><ele>21.6</ele><time>2022-11-06T13:14:27.0000000+00:00</time></trkpt><trkpt lat="39.45576534" lon="-0.37903218"><ele>21.6</ele><time>2022-11-06T13:14:28.0000000+00:00</time></trkpt><trkpt lat="39.4557728" lon="-0.37903955"><ele>21.6</ele><time>2022-11-06T13:14:29.0000000+00:00</time></trkpt><trkpt lat="39.45579124" lon="-0.37906621"><ele>21.6</ele><time>2022-11-06T13:14:30.0000000+00:00</time></trkpt><trkpt lat="39.455807" lon="-0.37908146"><ele>21.6</ele><time>2022-11-06T13:14:31.0000000+00:00</time></trkpt><trkpt lat="39.45582485" lon="-0.37907668"><ele>21.6</ele><time>2022-11-06T13:14:32.0000000+00:00</time></trkpt><trkpt lat="39.45583357" lon="-0.37907476"><ele>21.6</ele><time>2022-11-06T13:14:33.0000000+00:00</time></trkpt><trkpt lat="39.45584354" lon="-0.37907409"><ele>21.6</ele><time>2022-11-06T13:14:34.0000000+00:00</time></trkpt><trkpt lat="39.45585335" lon="-0.37907467"><ele>21.6</ele><time>2022-11-06T13:14:35.0000000+00:00</time></trkpt><trkpt lat="39.45586651" lon="-0.3790771"><ele>21.6</ele><time>2022-11-06T13:14:36.0000000+00:00</time></trkpt><trkpt lat="39.45587774" lon="-0.3790714"><ele>21.6</ele><time>2022-11-06T13:14:37.0000000+00:00</time></trkpt><trkpt lat="39.45589693" lon="-0.37906554"><ele>21.6</ele><time>2022-11-06T13:14:38.0000000+00:00</time></trkpt><trkpt lat="39.45591068" lon="-0.37906839"><ele>21.6</ele><time>2022-11-06T13:14:39.0000000+00:00</time></trkpt><trkpt lat="39.45591378" lon="-0.3790704"><ele>21.8</ele><time>2022-11-06T13:14:40.0000000+00:00</time></trkpt><trkpt lat="39.45592216" lon="-0.37905984"><ele>21.8</ele><time>2022-11-06T13:14:41.0000000+00:00</time></trkpt><trkpt lat="39.45592862" lon="-0.37905975"><ele>21.8</ele><time>2022-11-06T13:14:42.0000000+00:00</time></trkpt><trkpt lat="39.45592862" lon="-0.37906176"><ele>21.8</ele><time>2022-11-06T13:14:43.0000000+00:00</time></trkpt><trkpt lat="39.45593541" lon="-0.37906713"><ele>21.8</ele><time>2022-11-06T13:14:44.0000000+00:00</time></trkpt><trkpt lat="39.45594203" lon="-0.37906797"><ele>21.8</ele><time>2022-11-06T13:14:45.0000000+00:00</time></trkpt><trkpt lat="39.45595301" lon="-0.37907048"><ele>21.8</ele><time>2022-11-06T13:14:46.0000000+00:00</time></trkpt><trkpt lat="39.45596265" lon="-0.37907057"><ele>21.8</ele><time>2022-11-06T13:14:47.0000000+00:00</time></trkpt><trkpt lat="39.45597472" lon="-0.37907182"><ele>21.8</ele><time>2022-11-06T13:14:48.0000000+00:00</time></trkpt><trkpt lat="39.45598545" lon="-0.3790735"><ele>21.8</ele><time>2022-11-06T13:14:49.0000000+00:00</time></trkpt><trkpt lat="39.45599609" lon="-0.379074"><ele>21.8</ele><time>2022-11-06T13:14:50.0000000+00:00</time></trkpt><trkpt lat="39.45600556" lon="-0.37907358"><ele>21.8</ele><time>2022-11-06T13:14:51.0000000+00:00</time></trkpt><trkpt lat="39.45601503" lon="-0.37907702"><ele>21.8</ele><time>2022-11-06T13:14:52.0000000+00:00</time></trkpt><trkpt lat="39.45602073" lon="-0.37908129"><ele>21.8</ele><time>2022-11-06T13:14:53.0000000+00:00</time></trkpt><trkpt lat="39.45602752" lon="-0.37908909"><ele>21.8</ele><time>2022-11-06T13:14:54.0000000+00:00</time></trkpt><trkpt lat="39.45603021" lon="-0.37908901"><ele>21.8</ele><time>2022-11-06T13:14:55.0000000+00:00</time></trkpt><trkpt lat="39.45603792" lon="-0.37908901"><ele>21.8</ele><time>2022-11-06T13:14:56.0000000+00:00</time></trkpt><trkpt lat="39.45604638" lon="-0.37908431"><ele>21.8</ele><time>2022-11-06T13:14:57.0000000+00:00</time></trkpt><trkpt lat="39.45605493" lon="-0.37908129"><ele>21.8</ele><time>2022-11-06T13:14:58.0000000+00:00</time></trkpt><trkpt lat="39.45606968" lon="-0.37908272"><ele>22.0</ele><time>2022-11-06T13:14:59.0000000+00:00</time></trkpt><trkpt lat="39.45608092" lon="-0.37908515"><ele>22.0</ele><time>2022-11-06T13:15:00.0000000+00:00</time></trkpt><trkpt lat="39.45609349" lon="-0.37909068"><ele>22.0</ele><time>2022-11-06T13:15:01.0000000+00:00</time></trkpt><trkpt lat="39.4561069" lon="-0.37909613"><ele>21.8</ele><time>2022-11-06T13:15:02.0000000+00:00</time></trkpt><trkpt lat="39.4561188" lon="-0.37910351"><ele>21.8</ele><time>2022-11-06T13:15:03.0000000+00:00</time></trkpt><trkpt lat="39.45612894" lon="-0.37910946"><ele>21.8</ele><time>2022-11-06T13:15:04.0000000+00:00</time></trkpt><trkpt lat="39.45613205" lon="-0.37911918"><ele>21.8</ele><time>2022-11-06T13:15:05.0000000+00:00</time></trkpt><trkpt lat="39.45614085" lon="-0.37912387"><ele>21.8</ele><time>2022-11-06T13:15:06.0000000+00:00</time></trkpt><trkpt lat="39.45615124" lon="-0.37912203"><ele>21.8</ele><time>2022-11-06T13:15:07.0000000+00:00</time></trkpt><trkpt lat="39.45616289" lon="-0.37912304"><ele>21.8</ele><time>2022-11-06T13:15:08.0000000+00:00</time></trkpt><trkpt lat="39.45617504" lon="-0.37911851"><ele>21.8</ele><time>2022-11-06T13:15:09.0000000+00:00</time></trkpt><trkpt lat="39.4561882" lon="-0.37911474"><ele>21.8</ele><time>2022-11-06T13:15:10.0000000+00:00</time></trkpt><trkpt lat="39.45619717" lon="-0.37911834"><ele>21.6</ele><time>2022-11-06T13:15:11.0000000+00:00</time></trkpt><trkpt lat="39.45620346" lon="-0.37912211"><ele>21.6</ele><time>2022-11-06T13:15:12.0000000+00:00</time></trkpt><trkpt lat="39.45620916" lon="-0.37913008"><ele>21.6</ele><time>2022-11-06T13:15:13.0000000+00:00</time></trkpt><trkpt lat="39.4562141" lon="-0.37913863"><ele>21.6</ele><time>2022-11-06T13:15:14.0000000+00:00</time></trkpt><trkpt lat="39.45621754" lon="-0.37914877"><ele>21.6</ele><time>2022-11-06T13:15:15.0000000+00:00</time></trkpt><trkpt lat="39.45622517" lon="-0.37915338"><ele>21.6</ele><time>2022-11-06T13:15:16.0000000+00:00</time></trkpt><trkpt lat="39.45623833" lon="-0.37915363"><ele>21.6</ele><time>2022-11-06T13:15:17.0000000+00:00</time></trkpt><trkpt lat="39.45624671" lon="-0.37915967"><ele>21.4</ele><time>2022-11-06T13:15:18.0000000+00:00</time></trkpt><trkpt lat="39.45625266" lon="-0.37916612"><ele>21.4</ele><time>2022-11-06T13:15:19.0000000+00:00</time></trkpt><trkpt lat="39.45626264" lon="-0.3791766"><ele>21.4</ele><time>2022-11-06T13:15:20.0000000+00:00</time></trkpt><trkpt lat="39.45628007" lon="-0.37918741"><ele>21.4</ele><time>2022-11-06T13:15:21.0000000+00:00</time></trkpt><trkpt lat="39.45628895" lon="-0.37919395"><ele>21.4</ele><time>2022-11-06T13:15:22.0000000+00:00</time></trkpt><trkpt lat="39.45629633" lon="-0.37920409"><ele>21.4</ele><time>2022-11-06T13:15:23.0000000+00:00</time></trkpt><trkpt lat="39.45630077" lon="-0.37920937"><ele>21.4</ele><time>2022-11-06T13:15:24.0000000+00:00</time></trkpt><trkpt lat="39.45630882" lon="-0.37921432"><ele>21.4</ele><time>2022-11-06T13:15:25.0000000+00:00</time></trkpt><trkpt lat="39.45631955" lon="-0.37921457"><ele>21.4</ele><time>2022-11-06T13:15:26.0000000+00:00</time></trkpt><trkpt lat="39.45633078" lon="-0.37920987"><ele>21.4</ele><time>2022-11-06T13:15:27.0000000+00:00</time></trkpt><trkpt lat="39.45633774" lon="-0.37921088"><ele>21.4</ele><time>2022-11-06T13:15:28.0000000+00:00</time></trkpt><trkpt lat="39.45634495" lon="-0.37921364"><ele>21.4</ele><time>2022-11-06T13:15:29.0000000+00:00</time></trkpt><trkpt lat="39.45635224" lon="-0.37921691"><ele>21.4</ele><time>2022-11-06T13:15:30.0000000+00:00</time></trkpt><trkpt lat="39.4563592" lon="-0.37922462"><ele>21.4</ele><time>2022-11-06T13:15:31.0000000+00:00</time></trkpt><trkpt lat="39.45636867" lon="-0.37923284"><ele>21.4</ele><time>2022-11-06T13:15:32.0000000+00:00</time></trkpt><trkpt lat="39.45637127" lon="-0.37924231"><ele>21.4</ele><time>2022-11-06T13:15:33.0000000+00:00</time></trkpt><trkpt lat="39.45637613" lon="-0.3792491"><ele>21.4</ele><time>2022-11-06T13:15:34.0000000+00:00</time></trkpt><trkpt lat="39.45638275" lon="-0.37925027"><ele>21.4</ele><time>2022-11-06T13:15:35.0000000+00:00</time></trkpt><trkpt lat="39.45639306" lon="-0.3792512"><ele>21.4</ele><time>2022-11-06T13:15:36.0000000+00:00</time></trkpt><trkpt lat="39.45640647" lon="-0.37925187"><ele>21.4</ele><time>2022-11-06T13:15:37.0000000+00:00</time></trkpt><trkpt lat="39.45641728" lon="-0.37925614"><ele>21.4</ele><time>2022-11-06T13:15:38.0000000+00:00</time></trkpt><trkpt lat="39.45642784" lon="-0.37926318"><ele>21.4</ele><time>2022-11-06T13:15:39.0000000+00:00</time></trkpt><trkpt lat="39.45643614" lon="-0.37927232"><ele>21.4</ele><time>2022-11-06T13:15:40.0000000+00:00</time></trkpt><trkpt lat="39.45644293" lon="-0.37927944"><ele>21.4</ele><time>2022-11-06T13:15:41.0000000+00:00</time></trkpt><trkpt lat="39.45645014" lon="-0.37928414"><ele>21.4</ele><time>2022-11-06T13:15:42.0000000+00:00</time></trkpt><trkpt lat="39.45646087" lon="-0.37928565"><ele>21.4</ele><time>2022-11-06T13:15:43.0000000+00:00</time></trkpt><trkpt lat="39.45647143" lon="-0.37928405"><ele>21.4</ele><time>2022-11-06T13:15:44.0000000+00:00</time></trkpt><trkpt lat="39.45648274" lon="-0.37928389"><ele>21.4</ele><time>2022-11-06T13:15:45.0000000+00:00</time></trkpt><trkpt lat="39.45648995" lon="-0.37928497"><ele>21.2</ele><time>2022-11-06T13:15:46.0000000+00:00</time></trkpt><trkpt lat="39.45649775" lon="-0.3792885"><ele>21.2</ele><time>2022-11-06T13:15:47.0000000+00:00</time></trkpt><trkpt lat="39.45650571" lon="-0.37929311"><ele>21.2</ele><time>2022-11-06T13:15:48.0000000+00:00</time></trkpt><trkpt lat="39.45651418" lon="-0.37929671"><ele>21.2</ele><time>2022-11-06T13:15:49.0000000+00:00</time></trkpt><trkpt lat="39.45652323" lon="-0.37930006"><ele>21.2</ele><time>2022-11-06T13:15:50.0000000+00:00</time></trkpt><trkpt lat="39.45653169" lon="-0.37930635"><ele>21.2</ele><time>2022-11-06T13:15:51.0000000+00:00</time></trkpt><trkpt lat="39.45653882" lon="-0.37930979"><ele>21.2</ele><time>2022-11-06T13:15:52.0000000+00:00</time></trkpt><trkpt lat="39.45654502" lon="-0.37931263"><ele>21.2</ele><time>2022-11-06T13:15:53.0000000+00:00</time></trkpt><trkpt lat="39.45655248" lon="-0.37931624"><ele>21.2</ele><time>2022-11-06T13:15:54.0000000+00:00</time></trkpt><trkpt lat="39.45656313" lon="-0.37932169"><ele>21.2</ele><time>2022-11-06T13:15:55.0000000+00:00</time></trkpt><trkpt lat="39.45657562" lon="-0.37932504"><ele>21.2</ele><time>2022-11-06T13:15:56.0000000+00:00</time></trkpt><trkpt lat="39.45658266" lon="-0.37932705"><ele>21.2</ele><time>2022-11-06T13:15:57.0000000+00:00</time></trkpt><trkpt lat="39.45658894" lon="-0.3793299"><ele>21.2</ele><time>2022-11-06T13:15:58.0000000+00:00</time></trkpt><trkpt lat="39.45659707" lon="-0.37933317"><ele>21.2</ele><time>2022-11-06T13:15:59.0000000+00:00</time></trkpt><trkpt lat="39.45660906" lon="-0.37933325"><ele>21.2</ele><time>2022-11-06T13:16:00.0000000+00:00</time></trkpt><trkpt lat="39.45662482" lon="-0.37933393"><ele>21.2</ele><time>2022-11-06T13:16:01.0000000+00:00</time></trkpt><trkpt lat="39.45663689" lon="-0.37934055"><ele>21.2</ele><time>2022-11-06T13:16:02.0000000+00:00</time></trkpt><trkpt lat="39.45664628" lon="-0.37934549"><ele>21.2</ele><time>2022-11-06T13:16:03.0000000+00:00</time></trkpt><trkpt lat="39.45665449" lon="-0.3793475"><ele>21.2</ele><time>2022-11-06T13:16:04.0000000+00:00</time></trkpt><trkpt lat="39.45665533" lon="-0.37934599"><ele>21.2</ele><time>2022-11-06T13:16:05.0000000+00:00</time></trkpt><trkpt lat="39.4566627" lon="-0.37934985"><ele>21.2</ele><time>2022-11-06T13:16:06.0000000+00:00</time></trkpt><trkpt lat="39.45666941" lon="-0.37935756"><ele>21.2</ele><time>2022-11-06T13:16:07.0000000+00:00</time></trkpt><trkpt lat="39.4566731" lon="-0.37936267"><ele>21.2</ele><time>2022-11-06T13:16:08.0000000+00:00</time></trkpt><trkpt lat="39.4566793" lon="-0.37936787"><ele>21.0</ele><time>2022-11-06T13:16:09.0000000+00:00</time></trkpt><trkpt lat="39.45668827" lon="-0.37937164"><ele>21.0</ele><time>2022-11-06T13:16:10.0000000+00:00</time></trkpt><trkpt lat="39.45669564" lon="-0.37937592"><ele>21.0</ele><time>2022-11-06T13:16:11.0000000+00:00</time></trkpt><trkpt lat="39.45670126" lon="-0.37937659"><ele>21.0</ele><time>2022-11-06T13:16:12.0000000+00:00</time></trkpt><trkpt lat="39.45671216" lon="-0.3793812"><ele>20.8</ele><time>2022-11-06T13:16:13.0000000+00:00</time></trkpt><trkpt lat="39.45672565" lon="-0.3793838"><ele>20.8</ele><time>2022-11-06T13:16:14.0000000+00:00</time></trkpt><trkpt lat="39.45674309" lon="-0.37938849"><ele>20.8</ele><time>2022-11-06T13:16:15.0000000+00:00</time></trkpt><trkpt lat="39.45675658" lon="-0.37939863"><ele>20.8</ele><time>2022-11-06T13:16:16.0000000+00:00</time></trkpt><trkpt lat="39.45676387" lon="-0.37940492"><ele>20.8</ele><time>2022-11-06T13:16:17.0000000+00:00</time></trkpt><trkpt lat="39.45677158" lon="-0.37940827"><ele>20.8</ele><time>2022-11-06T13:16:18.0000000+00:00</time></trkpt><trkpt lat="39.45677854" lon="-0.37941112"><ele>20.8</ele><time>2022-11-06T13:16:19.0000000+00:00</time></trkpt><trkpt lat="39.45678357" lon="-0.37941464"><ele>20.6</ele><time>2022-11-06T13:16:20.0000000+00:00</time></trkpt><trkpt lat="39.45678868" lon="-0.37941892"><ele>20.6</ele><time>2022-11-06T13:16:21.0000000+00:00</time></trkpt><trkpt lat="39.45679581" lon="-0.37942294"><ele>20.6</ele><time>2022-11-06T13:16:22.0000000+00:00</time></trkpt><trkpt lat="39.45680411" lon="-0.37942017"><ele>20.6</ele><time>2022-11-06T13:16:23.0000000+00:00</time></trkpt><trkpt lat="39.456815" lon="-0.37942403"><ele>20.6</ele><time>2022-11-06T13:16:24.0000000+00:00</time></trkpt><trkpt lat="39.45682188" lon="-0.37943015"><ele>20.4</ele><time>2022-11-06T13:16:25.0000000+00:00</time></trkpt><trkpt lat="39.45682665" lon="-0.37943853"><ele>20.4</ele><time>2022-11-06T13:16:26.0000000+00:00</time></trkpt><trkpt lat="39.45683001" lon="-0.37944205"><ele>20.4</ele><time>2022-11-06T13:16:27.0000000+00:00</time></trkpt><trkpt lat="39.45683504" lon="-0.37944431"><ele>20.4</ele><time>2022-11-06T13:16:28.0000000+00:00</time></trkpt><trkpt lat="39.45684325" lon="-0.37944867"><ele>20.6</ele><time>2022-11-06T13:16:29.0000000+00:00</time></trkpt><trkpt lat="39.45684954" lon="-0.37946016"><ele>20.6</ele><time>2022-11-06T13:16:30.0000000+00:00</time></trkpt><trkpt lat="39.45685574" lon="-0.37946745"><ele>20.6</ele><time>2022-11-06T13:16:31.0000000+00:00</time></trkpt><trkpt lat="39.45686362" lon="-0.37947223"><ele>20.6</ele><time>2022-11-06T13:16:32.0000000+00:00</time></trkpt><trkpt lat="39.456872" lon="-0.37947952"><ele>20.6</ele><time>2022-11-06T13:16:33.0000000+00:00</time></trkpt><trkpt lat="39.45687929" lon="-0.37948472"><ele>20.6</ele><time>2022-11-06T13:16:34.0000000+00:00</time></trkpt><trkpt lat="39.45688742" lon="-0.37948824"><ele>20.6</ele><time>2022-11-06T13:16:35.0000000+00:00</time></trkpt><trkpt lat="39.45689648" lon="-0.37949301"><ele>20.6</ele><time>2022-11-06T13:16:36.0000000+00:00</time></trkpt><trkpt lat="39.45690461" lon="-0.3794962"><ele>20.6</ele><time>2022-11-06T13:16:37.0000000+00:00</time></trkpt><trkpt lat="39.45691047" lon="-0.37949896"><ele>20.6</ele><time>2022-11-06T13:16:38.0000000+00:00</time></trkpt><trkpt lat="39.45691659" lon="-0.37950181"><ele>20.6</ele><time>2022-11-06T13:16:39.0000000+00:00</time></trkpt><trkpt lat="39.45692321" lon="-0.37950483"><ele>20.6</ele><time>2022-11-06T13:16:40.0000000+00:00</time></trkpt><trkpt lat="39.45692992" lon="-0.37950617"><ele>20.6</ele><time>2022-11-06T13:16:41.0000000+00:00</time></trkpt><trkpt lat="39.4569321" lon="-0.37950802"><ele>20.8</ele><time>2022-11-06T13:16:42.0000000+00:00</time></trkpt><trkpt lat="39.45693386" lon="-0.3795081"><ele>20.8</ele><time>2022-11-06T13:16:43.0000000+00:00</time></trkpt><trkpt lat="39.45693755" lon="-0.37950785"><ele>20.8</ele><time>2022-11-06T13:16:44.0000000+00:00</time></trkpt><trkpt lat="39.45693989" lon="-0.37951338"><ele>20.8</ele><time>2022-11-06T13:16:45.0000000+00:00</time></trkpt><trkpt lat="39.45694107" lon="-0.37952185"><ele>20.8</ele><time>2022-11-06T13:16:46.0000000+00:00</time></trkpt><trkpt lat="39.45694895" lon="-0.37953023"><ele>20.8</ele><time>2022-11-06T13:16:47.0000000+00:00</time></trkpt><trkpt lat="39.45696093" lon="-0.37953534"><ele>21.0</ele><time>2022-11-06T13:16:48.0000000+00:00</time></trkpt><trkpt lat="39.45697568" lon="-0.37954247"><ele>20.8</ele><time>2022-11-06T13:16:49.0000000+00:00</time></trkpt><trkpt lat="39.45699161" lon="-0.37955068"><ele>20.8</ele><time>2022-11-06T13:16:50.0000000+00:00</time></trkpt><trkpt lat="39.45700921" lon="-0.37955646"><ele>20.8</ele><time>2022-11-06T13:16:51.0000000+00:00</time></trkpt><trkpt lat="39.45701885" lon="-0.37956342"><ele>21.0</ele><time>2022-11-06T13:16:52.0000000+00:00</time></trkpt><trkpt lat="39.45702413" lon="-0.37956853"><ele>21.0</ele><time>2022-11-06T13:16:53.0000000+00:00</time></trkpt><trkpt lat="39.45703411" lon="-0.37957122"><ele>21.0</ele><time>2022-11-06T13:16:54.0000000+00:00</time></trkpt><trkpt lat="39.45704735" lon="-0.37957616"><ele>21.0</ele><time>2022-11-06T13:16:55.0000000+00:00</time></trkpt><trkpt lat="39.45706093" lon="-0.37958144"><ele>21.0</ele><time>2022-11-06T13:16:56.0000000+00:00</time></trkpt><trkpt lat="39.45707291" lon="-0.37958228"><ele>20.8</ele><time>2022-11-06T13:16:57.0000000+00:00</time></trkpt><trkpt lat="39.45708674" lon="-0.37958656"><ele>20.8</ele><time>2022-11-06T13:16:58.0000000+00:00</time></trkpt><trkpt lat="39.45709353" lon="-0.37959133"><ele>20.8</ele><time>2022-11-06T13:16:59.0000000+00:00</time></trkpt><trkpt lat="39.45710041" lon="-0.37959427"><ele>20.8</ele><time>2022-11-06T13:17:00.0000000+00:00</time></trkpt><trkpt lat="39.4571046" lon="-0.37959754"><ele>20.8</ele><time>2022-11-06T13:17:01.0000000+00:00</time></trkpt><trkpt lat="39.45711214" lon="-0.37960072"><ele>20.8</ele><time>2022-11-06T13:17:02.0000000+00:00</time></trkpt><trkpt lat="39.45712589" lon="-0.37961262"><ele>20.6</ele><time>2022-11-06T13:17:03.0000000+00:00</time></trkpt><trkpt lat="39.45713737" lon="-0.37962587"><ele>20.6</ele><time>2022-11-06T13:17:04.0000000+00:00</time></trkpt><trkpt lat="39.45714466" lon="-0.37964238"><ele>20.6</ele><time>2022-11-06T13:17:05.0000000+00:00</time></trkpt><trkpt lat="39.45715866" lon="-0.37964841"><ele>20.6</ele><time>2022-11-06T13:17:06.0000000+00:00</time></trkpt><trkpt lat="39.45716771" lon="-0.37965059"><ele>20.6</ele><time>2022-11-06T13:17:07.0000000+00:00</time></trkpt><trkpt lat="39.45717366" lon="-0.37965302"><ele>20.6</ele><time>2022-11-06T13:17:08.0000000+00:00</time></trkpt><trkpt lat="39.45717794" lon="-0.37965755"><ele>20.6</ele><time>2022-11-06T13:17:09.0000000+00:00</time></trkpt><trkpt lat="39.45718641" lon="-0.37966199"><ele>20.6</ele><time>2022-11-06T13:17:10.0000000+00:00</time></trkpt><trkpt lat="39.45719797" lon="-0.37966803"><ele>20.6</ele><time>2022-11-06T13:17:11.0000000+00:00</time></trkpt><trkpt lat="39.45720987" lon="-0.37967532"><ele>20.6</ele><time>2022-11-06T13:17:12.0000000+00:00</time></trkpt><trkpt lat="39.4572222" lon="-0.37968814"><ele>20.6</ele><time>2022-11-06T13:17:13.0000000+00:00</time></trkpt><trkpt lat="39.4572284" lon="-0.37969594"><ele>20.6</ele><time>2022-11-06T13:17:14.0000000+00:00</time></trkpt><trkpt lat="39.45722865" lon="-0.37970172"><ele>20.6</ele><time>2022-11-06T13:17:15.0000000+00:00</time></trkpt><trkpt lat="39.45724122" lon="-0.37970625"><ele>20.6</ele><time>2022-11-06T13:17:16.0000000+00:00</time></trkpt><trkpt lat="39.45725648" lon="-0.37971027"><ele>20.6</ele><time>2022-11-06T13:17:17.0000000+00:00</time></trkpt><trkpt lat="39.45727349" lon="-0.37970499"><ele>20.6</ele><time>2022-11-06T13:17:18.0000000+00:00</time></trkpt><trkpt lat="39.45728598" lon="-0.37969644"><ele>20.6</ele><time>2022-11-06T13:17:19.0000000+00:00</time></trkpt><trkpt lat="39.45729788" lon="-0.37968278"><ele>20.4</ele><time>2022-11-06T13:17:20.0000000+00:00</time></trkpt><trkpt lat="39.45730719" lon="-0.37967046"><ele>20.4</ele><time>2022-11-06T13:17:21.0000000+00:00</time></trkpt><trkpt lat="39.45731071" lon="-0.37965839"><ele>20.4</ele><time>2022-11-06T13:17:22.0000000+00:00</time></trkpt><trkpt lat="39.45731456" lon="-0.3796485"><ele>20.4</ele><time>2022-11-06T13:17:23.0000000+00:00</time></trkpt><trkpt lat="39.45732228" lon="-0.37964816"><ele>20.4</ele><time>2022-11-06T13:17:24.0000000+00:00</time></trkpt><trkpt lat="39.45733007" lon="-0.37964749"><ele>20.4</ele><time>2022-11-06T13:17:25.0000000+00:00</time></trkpt><trkpt lat="39.45733409" lon="-0.37964632"><ele>20.4</ele><time>2022-11-06T13:17:26.0000000+00:00</time></trkpt><trkpt lat="39.45734507" lon="-0.37965294"><ele>20.4</ele><time>2022-11-06T13:17:27.0000000+00:00</time></trkpt><trkpt lat="39.45735488" lon="-0.37965613"><ele>20.4</ele><time>2022-11-06T13:17:28.0000000+00:00</time></trkpt><trkpt lat="39.45736377" lon="-0.37965638"><ele>20.4</ele><time>2022-11-06T13:17:29.0000000+00:00</time></trkpt><trkpt lat="39.45737575" lon="-0.37965219"><ele>20.4</ele><time>2022-11-06T13:17:30.0000000+00:00</time></trkpt><trkpt lat="39.45738489" lon="-0.37964682"><ele>20.4</ele><time>2022-11-06T13:17:31.0000000+00:00</time></trkpt><trkpt lat="39.45739729" lon="-0.37963953"><ele>20.4</ele><time>2022-11-06T13:17:32.0000000+00:00</time></trkpt><trkpt lat="39.45740584" lon="-0.37963534"><ele>20.4</ele><time>2022-11-06T13:17:33.0000000+00:00</time></trkpt><trkpt lat="39.45741842" lon="-0.37963006"><ele>20.4</ele><time>2022-11-06T13:17:34.0000000+00:00</time></trkpt><trkpt lat="39.45742873" lon="-0.37962779"><ele>20.4</ele><time>2022-11-06T13:17:35.0000000+00:00</time></trkpt><trkpt lat="39.45744013" lon="-0.37962587"><ele>20.4</ele><time>2022-11-06T13:17:36.0000000+00:00</time></trkpt><trkpt lat="39.45744926" lon="-0.37962738"><ele>20.4</ele><time>2022-11-06T13:17:37.0000000+00:00</time></trkpt><trkpt lat="39.4574537" lon="-0.37962369"><ele>20.8</ele><time>2022-11-06T13:17:38.0000000+00:00</time></trkpt><trkpt lat="39.45745479" lon="-0.3796226"><ele>21.0</ele><time>2022-11-06T13:17:39.0000000+00:00</time></trkpt><trkpt lat="39.45746125" lon="-0.37962109"><ele>21.0</ele><time>2022-11-06T13:17:40.0000000+00:00</time></trkpt><trkpt lat="39.45747097" lon="-0.37962226"><ele>21.0</ele><time>2022-11-06T13:17:41.0000000+00:00</time></trkpt><trkpt lat="39.45748522" lon="-0.37962595"><ele>21.0</ele><time>2022-11-06T13:17:42.0000000+00:00</time></trkpt><trkpt lat="39.45750291" lon="-0.37962603"><ele>20.8</ele><time>2022-11-06T13:17:43.0000000+00:00</time></trkpt><trkpt lat="39.45750978" lon="-0.37961564"><ele>20.6</ele><time>2022-11-06T13:17:44.0000000+00:00</time></trkpt><trkpt lat="39.45750936" lon="-0.37961262"><ele>20.4</ele><time>2022-11-06T13:17:45.0000000+00:00</time></trkpt><trkpt lat="39.45751498" lon="-0.37961422"><ele>20.4</ele><time>2022-11-06T13:17:46.0000000+00:00</time></trkpt><trkpt lat="39.45751892" lon="-0.37961254"><ele>20.4</ele><time>2022-11-06T13:17:47.0000000+00:00</time></trkpt><trkpt lat="39.45752361" lon="-0.37961765"><ele>20.4</ele><time>2022-11-06T13:17:48.0000000+00:00</time></trkpt><trkpt lat="39.45753534" lon="-0.37961246"><ele>20.4</ele><time>2022-11-06T13:17:49.0000000+00:00</time></trkpt><trkpt lat="39.45754431" lon="-0.37961162"><ele>20.4</ele><time>2022-11-06T13:17:50.0000000+00:00</time></trkpt><trkpt lat="39.45755563" lon="-0.37961061"><ele>20.4</ele><time>2022-11-06T13:17:51.0000000+00:00</time></trkpt><trkpt lat="39.45756351" lon="-0.37960868"><ele>20.8</ele><time>2022-11-06T13:17:52.0000000+00:00</time></trkpt><trkpt lat="39.45756921" lon="-0.37961053"><ele>21.0</ele><time>2022-11-06T13:17:53.0000000+00:00</time></trkpt><trkpt lat="39.45757851" lon="-0.37961137"><ele>21.0</ele><time>2022-11-06T13:17:54.0000000+00:00</time></trkpt><trkpt lat="39.45758631" lon="-0.37961061"><ele>21.0</ele><time>2022-11-06T13:17:55.0000000+00:00</time></trkpt><trkpt lat="39.45759527" lon="-0.37960785"><ele>21.0</ele><time>2022-11-06T13:17:56.0000000+00:00</time></trkpt><trkpt lat="39.45760567" lon="-0.37960525"><ele>21.0</ele><time>2022-11-06T13:17:57.0000000+00:00</time></trkpt><trkpt lat="39.45761497" lon="-0.3796008"><ele>21.0</ele><time>2022-11-06T13:17:58.0000000+00:00</time></trkpt><trkpt lat="39.45762235" lon="-0.37959544"><ele>21.0</ele><time>2022-11-06T13:17:59.0000000+00:00</time></trkpt><trkpt lat="39.45763098" lon="-0.37958982"><ele>21.0</ele><time>2022-11-06T13:18:00.0000000+00:00</time></trkpt><trkpt lat="39.4576402" lon="-0.37958697"><ele>21.0</ele><time>2022-11-06T13:18:01.0000000+00:00</time></trkpt><trkpt lat="39.45764758" lon="-0.3795827"><ele>21.0</ele><time>2022-11-06T13:18:02.0000000+00:00</time></trkpt><trkpt lat="39.45765428" lon="-0.37958086"><ele>20.6</ele><time>2022-11-06T13:18:03.0000000+00:00</time></trkpt><trkpt lat="39.45766401" lon="-0.37957759"><ele>20.4</ele><time>2022-11-06T13:18:04.0000000+00:00</time></trkpt><trkpt lat="39.45767348" lon="-0.37958094"><ele>20.4</ele><time>2022-11-06T13:18:05.0000000+00:00</time></trkpt><trkpt lat="39.45768261" lon="-0.37958144"><ele>20.4</ele><time>2022-11-06T13:18:06.0000000+00:00</time></trkpt><trkpt lat="39.45768932" lon="-0.37958186"><ele>20.4</ele><time>2022-11-06T13:18:07.0000000+00:00</time></trkpt><trkpt lat="39.45770114" lon="-0.37958161"><ele>20.4</ele><time>2022-11-06T13:18:08.0000000+00:00</time></trkpt><trkpt lat="39.45771203" lon="-0.37957884"><ele>20.4</ele><time>2022-11-06T13:18:09.0000000+00:00</time></trkpt><trkpt lat="39.45772218" lon="-0.3795775"><ele>20.4</ele><time>2022-11-06T13:18:10.0000000+00:00</time></trkpt><trkpt lat="39.4577293" lon="-0.37957625"><ele>20.4</ele><time>2022-11-06T13:18:11.0000000+00:00</time></trkpt><trkpt lat="39.45773995" lon="-0.3795765"><ele>20.4</ele><time>2022-11-06T13:18:12.0000000+00:00</time></trkpt><trkpt lat="39.45774875" lon="-0.37957558"><ele>20.4</ele><time>2022-11-06T13:18:13.0000000+00:00</time></trkpt><trkpt lat="39.45776023" lon="-0.37957097"><ele>20.4</ele><time>2022-11-06T13:18:14.0000000+00:00</time></trkpt><trkpt lat="39.45777004" lon="-0.37956694"><ele>20.4</ele><time>2022-11-06T13:18:15.0000000+00:00</time></trkpt><trkpt lat="39.45777808" lon="-0.37956359"><ele>20.4</ele><time>2022-11-06T13:18:16.0000000+00:00</time></trkpt><trkpt lat="39.45778906" lon="-0.37956158"><ele>20.4</ele><time>2022-11-06T13:18:17.0000000+00:00</time></trkpt><trkpt lat="39.45780013" lon="-0.37956166"><ele>20.4</ele><time>2022-11-06T13:18:18.0000000+00:00</time></trkpt><trkpt lat="39.45780985" lon="-0.37955797"><ele>20.4</ele><time>2022-11-06T13:18:19.0000000+00:00</time></trkpt><trkpt lat="39.4578241" lon="-0.37954892"><ele>20.4</ele><time>2022-11-06T13:18:20.0000000+00:00</time></trkpt><trkpt lat="39.45783248" lon="-0.37954775"><ele>20.4</ele><time>2022-11-06T13:18:21.0000000+00:00</time></trkpt><trkpt lat="39.45784011" lon="-0.37954381"><ele>20.4</ele><time>2022-11-06T13:18:22.0000000+00:00</time></trkpt><trkpt lat="39.4578464" lon="-0.37954113"><ele>20.4</ele><time>2022-11-06T13:18:23.0000000+00:00</time></trkpt><trkpt lat="39.45785293" lon="-0.37954314"><ele>20.4</ele><time>2022-11-06T13:18:24.0000000+00:00</time></trkpt><trkpt lat="39.4578593" lon="-0.37954188"><ele>20.4</ele><time>2022-11-06T13:18:25.0000000+00:00</time></trkpt><trkpt lat="39.45786257" lon="-0.37954121"><ele>20.4</ele><time>2022-11-06T13:18:26.0000000+00:00</time></trkpt><trkpt lat="39.45786618" lon="-0.37954322"><ele>20.4</ele><time>2022-11-06T13:18:27.0000000+00:00</time></trkpt><trkpt lat="39.45786735" lon="-0.3795366"><ele>20.4</ele><time>2022-11-06T13:18:28.0000000+00:00</time></trkpt><trkpt lat="39.45786609" lon="-0.37953526"><ele>20.2</ele><time>2022-11-06T13:18:29.0000000+00:00</time></trkpt><trkpt lat="39.45786928" lon="-0.37953509"><ele>20.2</ele><time>2022-11-06T13:18:30.0000000+00:00</time></trkpt><trkpt lat="39.45787255" lon="-0.37952637"><ele>20.2</ele><time>2022-11-06T13:18:31.0000000+00:00</time></trkpt><trkpt lat="39.45787598" lon="-0.37952151"><ele>20.0</ele><time>2022-11-06T13:18:32.0000000+00:00</time></trkpt><trkpt lat="39.45789292" lon="-0.37950978"><ele>20.0</ele><time>2022-11-06T13:18:33.0000000+00:00</time></trkpt><trkpt lat="39.45790222" lon="-0.37950718"><ele>20.0</ele><time>2022-11-06T13:18:34.0000000+00:00</time></trkpt><trkpt lat="39.45790373" lon="-0.37950785"><ele>20.0</ele><time>2022-11-06T13:18:35.0000000+00:00</time></trkpt><trkpt lat="39.4579018" lon="-0.37951229"><ele>20.0</ele><time>2022-11-06T13:18:36.0000000+00:00</time></trkpt><trkpt lat="39.45790675" lon="-0.37950902"><ele>20.0</ele><time>2022-11-06T13:18:37.0000000+00:00</time></trkpt><trkpt lat="39.45791731" lon="-0.37949964"><ele>20.0</ele><time>2022-11-06T13:18:38.0000000+00:00</time></trkpt><trkpt lat="39.45792343" lon="-0.37949637"><ele>20.0</ele><time>2022-11-06T13:18:39.0000000+00:00</time></trkpt><trkpt lat="39.45793415" lon="-0.379491"><ele>20.0</ele><time>2022-11-06T13:18:40.0000000+00:00</time></trkpt><trkpt lat="39.45794312" lon="-0.37948731"><ele>20.0</ele><time>2022-11-06T13:18:41.0000000+00:00</time></trkpt><trkpt lat="39.45795209" lon="-0.37947826"><ele>20.0</ele><time>2022-11-06T13:18:42.0000000+00:00</time></trkpt><trkpt lat="39.45796173" lon="-0.37947223"><ele>20.0</ele><time>2022-11-06T13:18:43.0000000+00:00</time></trkpt><trkpt lat="39.45796894" lon="-0.37946728"><ele>20.0</ele><time>2022-11-06T13:18:44.0000000+00:00</time></trkpt><trkpt lat="39.45797229" lon="-0.37947197"><ele>20.2</ele><time>2022-11-06T13:18:45.0000000+00:00</time></trkpt><trkpt lat="39.45798252" lon="-0.37946611"><ele>20.2</ele><time>2022-11-06T13:18:46.0000000+00:00</time></trkpt><trkpt lat="39.45799065" lon="-0.37946368"><ele>20.2</ele><time>2022-11-06T13:18:47.0000000+00:00</time></trkpt><trkpt lat="39.45800113" lon="-0.37945882"><ele>20.2</ele><time>2022-11-06T13:18:48.0000000+00:00</time></trkpt><trkpt lat="39.45800984" lon="-0.37945194"><ele>20.2</ele><time>2022-11-06T13:18:49.0000000+00:00</time></trkpt><trkpt lat="39.45801672" lon="-0.379447"><ele>20.2</ele><time>2022-11-06T13:18:50.0000000+00:00</time></trkpt><trkpt lat="39.45802149" lon="-0.37944926"><ele>20.2</ele><time>2022-11-06T13:18:51.0000000+00:00</time></trkpt><trkpt lat="39.45802426" lon="-0.379447"><ele>20.2</ele><time>2022-11-06T13:18:52.0000000+00:00</time></trkpt><trkpt lat="39.45802946" lon="-0.37942939"><ele>20.2</ele><time>2022-11-06T13:18:53.0000000+00:00</time></trkpt><trkpt lat="39.45803641" lon="-0.37940886"><ele>20.2</ele><time>2022-11-06T13:18:54.0000000+00:00</time></trkpt><trkpt lat="39.45804136" lon="-0.37939101"><ele>20.2</ele><time>2022-11-06T13:18:55.0000000+00:00</time></trkpt><trkpt lat="39.45805192" lon="-0.37937793"><ele>20.2</ele><time>2022-11-06T13:18:56.0000000+00:00</time></trkpt><trkpt lat="39.4580598" lon="-0.37937055"><ele>20.2</ele><time>2022-11-06T13:18:57.0000000+00:00</time></trkpt><trkpt lat="39.45806349" lon="-0.37936041"><ele>20.2</ele><time>2022-11-06T13:18:58.0000000+00:00</time></trkpt><trkpt lat="39.4580686" lon="-0.37934524"><ele>20.0</ele><time>2022-11-06T13:18:59.0000000+00:00</time></trkpt><trkpt lat="39.45807757" lon="-0.37932353"><ele>20.2</ele><time>2022-11-06T13:19:00.0000000+00:00</time></trkpt><trkpt lat="39.45808117" lon="-0.37930358"><ele>20.2</ele><time>2022-11-06T13:19:01.0000000+00:00</time></trkpt><trkpt lat="39.4580857" lon="-0.37928757"><ele>20.2</ele><time>2022-11-06T13:19:02.0000000+00:00</time></trkpt><trkpt lat="39.45809165" lon="-0.37927366"><ele>20.2</ele><time>2022-11-06T13:19:03.0000000+00:00</time></trkpt><trkpt lat="39.45810481" lon="-0.37925949"><ele>20.4</ele><time>2022-11-06T13:19:04.0000000+00:00</time></trkpt><trkpt lat="39.45811017" lon="-0.37925899"><ele>20.4</ele><time>2022-11-06T13:19:05.0000000+00:00</time></trkpt><trkpt lat="39.45811302" lon="-0.37925254"><ele>20.4</ele><time>2022-11-06T13:19:06.0000000+00:00</time></trkpt><trkpt lat="39.45811663" lon="-0.37924382"><ele>20.4</ele><time>2022-11-06T13:19:07.0000000+00:00</time></trkpt><trkpt lat="39.45811319" lon="-0.37923812"><ele>20.4</ele><time>2022-11-06T13:19:08.0000000+00:00</time></trkpt><trkpt lat="39.4581178" lon="-0.37922739"><ele>20.6</ele><time>2022-11-06T13:19:09.0000000+00:00</time></trkpt><trkpt lat="39.45812535" lon="-0.37922027"><ele>20.6</ele><time>2022-11-06T13:19:10.0000000+00:00</time></trkpt><trkpt lat="39.45812895" lon="-0.37921364"><ele>20.6</ele><time>2022-11-06T13:19:11.0000000+00:00</time></trkpt><trkpt lat="39.45812493" lon="-0.37920308"><ele>20.6</ele><time>2022-11-06T13:19:12.0000000+00:00</time></trkpt><trkpt lat="39.45812199" lon="-0.37919537"><ele>20.6</ele><time>2022-11-06T13:19:13.0000000+00:00</time></trkpt><trkpt lat="39.45811898" lon="-0.37919311"><ele>20.6</ele><time>2022-11-06T13:19:14.0000000+00:00</time></trkpt><trkpt lat="39.45811621" lon="-0.37918842"><ele>20.6</ele><time>2022-11-06T13:19:15.0000000+00:00</time></trkpt><trkpt lat="39.45811671" lon="-0.37918079"><ele>20.6</ele><time>2022-11-06T13:19:16.0000000+00:00</time></trkpt><trkpt lat="39.4581199" lon="-0.37917232"><ele>20.6</ele><time>2022-11-06T13:19:17.0000000+00:00</time></trkpt><trkpt lat="39.45812753" lon="-0.3791621"><ele>20.6</ele><time>2022-11-06T13:19:18.0000000+00:00</time></trkpt><trkpt lat="39.45813163" lon="-0.37915413"><ele>20.6</ele><time>2022-11-06T13:19:19.0000000+00:00</time></trkpt><trkpt lat="39.45813306" lon="-0.379146"><ele>20.6</ele><time>2022-11-06T13:19:20.0000000+00:00</time></trkpt><trkpt lat="39.45813616" lon="-0.37913645"><ele>20.4</ele><time>2022-11-06T13:19:21.0000000+00:00</time></trkpt><trkpt lat="39.4581396" lon="-0.37912631"><ele>20.4</ele><time>2022-11-06T13:19:22.0000000+00:00</time></trkpt><trkpt lat="39.45813951" lon="-0.37911926"><ele>20.4</ele><time>2022-11-06T13:19:23.0000000+00:00</time></trkpt><trkpt lat="39.45813901" lon="-0.37911256"><ele>20.4</ele><time>2022-11-06T13:19:24.0000000+00:00</time></trkpt><trkpt lat="39.45813767" lon="-0.37910619"><ele>20.4</ele><time>2022-11-06T13:19:25.0000000+00:00</time></trkpt><trkpt lat="39.45813976" lon="-0.37909253"><ele>20.4</ele><time>2022-11-06T13:19:26.0000000+00:00</time></trkpt><trkpt lat="39.45813934" lon="-0.37908708"><ele>20.4</ele><time>2022-11-06T13:19:27.0000000+00:00</time></trkpt><trkpt lat="39.45813976" lon="-0.37908255"><ele>20.4</ele><time>2022-11-06T13:19:28.0000000+00:00</time></trkpt><trkpt lat="39.45814337" lon="-0.37907383"><ele>20.4</ele><time>2022-11-06T13:19:29.0000000+00:00</time></trkpt><trkpt lat="39.45814923" lon="-0.37906093"><ele>20.4</ele><time>2022-11-06T13:19:30.0000000+00:00</time></trkpt><trkpt lat="39.45815183" lon="-0.37905657"><ele>20.4</ele><time>2022-11-06T13:19:31.0000000+00:00</time></trkpt><trkpt lat="39.45815912" lon="-0.37904894"><ele>20.4</ele><time>2022-11-06T13:19:32.0000000+00:00</time></trkpt><trkpt lat="39.45816658" lon="-0.37903955"><ele>20.4</ele><time>2022-11-06T13:19:33.0000000+00:00</time></trkpt><trkpt lat="39.45816809" lon="-0.37903268"><ele>20.4</ele><time>2022-11-06T13:19:34.0000000+00:00</time></trkpt><trkpt lat="39.458167" lon="-0.37902505"><ele>20.4</ele><time>2022-11-06T13:19:35.0000000+00:00</time></trkpt><trkpt lat="39.4581686" lon="-0.37901525"><ele>20.4</ele><time>2022-11-06T13:19:36.0000000+00:00</time></trkpt><trkpt lat="39.45817044" lon="-0.379002"><ele>20.4</ele><time>2022-11-06T13:19:37.0000000+00:00</time></trkpt><trkpt lat="39.45817664" lon="-0.37898867"><ele>20.4</ele><time>2022-11-06T13:19:38.0000000+00:00</time></trkpt><trkpt lat="39.45817849" lon="-0.37897795"><ele>20.4</ele><time>2022-11-06T13:19:39.0000000+00:00</time></trkpt><trkpt lat="39.45818176" lon="-0.3789621"><ele>20.4</ele><time>2022-11-06T13:19:40.0000000+00:00</time></trkpt><trkpt lat="39.45818779" lon="-0.37894383"><ele>20.4</ele><time>2022-11-06T13:19:41.0000000+00:00</time></trkpt><trkpt lat="39.45819341" lon="-0.37892749"><ele>20.6</ele><time>2022-11-06T13:19:42.0000000+00:00</time></trkpt><trkpt lat="39.45819693" lon="-0.37891517"><ele>20.6</ele><time>2022-11-06T13:19:43.0000000+00:00</time></trkpt><trkpt lat="39.45819936" lon="-0.37890435"><ele>20.6</ele><time>2022-11-06T13:19:44.0000000+00:00</time></trkpt><trkpt lat="39.45819919" lon="-0.3788979"><ele>20.6</ele><time>2022-11-06T13:19:45.0000000+00:00</time></trkpt><trkpt lat="39.45819844" lon="-0.37889337"><ele>20.6</ele><time>2022-11-06T13:19:46.0000000+00:00</time></trkpt><trkpt lat="39.45819827" lon="-0.37888675"><ele>20.6</ele><time>2022-11-06T13:19:47.0000000+00:00</time></trkpt><trkpt lat="39.45820204" lon="-0.37887862"><ele>20.6</ele><time>2022-11-06T13:19:48.0000000+00:00</time></trkpt><trkpt lat="39.45820791" lon="-0.37887057"><ele>20.6</ele><time>2022-11-06T13:19:49.0000000+00:00</time></trkpt><trkpt lat="39.45821411" lon="-0.37886119"><ele>20.6</ele><time>2022-11-06T13:19:50.0000000+00:00</time></trkpt><trkpt lat="39.45821637" lon="-0.37885155"><ele>20.6</ele><time>2022-11-06T13:19:51.0000000+00:00</time></trkpt><trkpt lat="39.45821595" lon="-0.37884601"><ele>20.6</ele><time>2022-11-06T13:19:52.0000000+00:00</time></trkpt><trkpt lat="39.45821604" lon="-0.37883981"><ele>20.8</ele><time>2022-11-06T13:19:53.0000000+00:00</time></trkpt><trkpt lat="39.45821738" lon="-0.37883042"><ele>20.8</ele><time>2022-11-06T13:19:54.0000000+00:00</time></trkpt><trkpt lat="39.45821847" lon="-0.37882397"><ele>20.8</ele><time>2022-11-06T13:19:55.0000000+00:00</time></trkpt><trkpt lat="39.45822031" lon="-0.37881492"><ele>20.8</ele><time>2022-11-06T13:19:56.0000000+00:00</time></trkpt><trkpt lat="39.45821646" lon="-0.37880385"><ele>21.0</ele><time>2022-11-06T13:19:57.0000000+00:00</time></trkpt><trkpt lat="39.45822115" lon="-0.37879162"><ele>21.0</ele><time>2022-11-06T13:19:58.0000000+00:00</time></trkpt><trkpt lat="39.45822392" lon="-0.37878181"><ele>21.0</ele><time>2022-11-06T13:19:59.0000000+00:00</time></trkpt><trkpt lat="39.45822635" lon="-0.37877276"><ele>21.0</ele><time>2022-11-06T13:20:00.0000000+00:00</time></trkpt><trkpt lat="39.45823347" lon="-0.37875851"><ele>21.0</ele><time>2022-11-06T13:20:01.0000000+00:00</time></trkpt><trkpt lat="39.45823926" lon="-0.37874158"><ele>21.0</ele><time>2022-11-06T13:20:02.0000000+00:00</time></trkpt><trkpt lat="39.45824387" lon="-0.37872934"><ele>21.0</ele><time>2022-11-06T13:20:03.0000000+00:00</time></trkpt><trkpt lat="39.45824487" lon="-0.37872523"><ele>21.0</ele><time>2022-11-06T13:20:04.0000000+00:00</time></trkpt><trkpt lat="39.45824789" lon="-0.37871853"><ele>21.0</ele><time>2022-11-06T13:20:05.0000000+00:00</time></trkpt><trkpt lat="39.45824957" lon="-0.37871425"><ele>21.0</ele><time>2022-11-06T13:20:06.0000000+00:00</time></trkpt><trkpt lat="39.45824998" lon="-0.37871216"><ele>21.0</ele><time>2022-11-06T13:20:07.0000000+00:00</time></trkpt><trkpt lat="39.45825183" lon="-0.37870838"><ele>21.0</ele><time>2022-11-06T13:20:08.0000000+00:00</time></trkpt><trkpt lat="39.45825283" lon="-0.37870352"><ele>21.0</ele><time>2022-11-06T13:20:09.0000000+00:00</time></trkpt><trkpt lat="39.45825585" lon="-0.37869967"><ele>21.0</ele><time>2022-11-06T13:20:10.0000000+00:00</time></trkpt><trkpt lat="39.45826407" lon="-0.37869045"><ele>21.0</ele><time>2022-11-06T13:20:11.0000000+00:00</time></trkpt><trkpt lat="39.45826759" lon="-0.37868215"><ele>21.0</ele><time>2022-11-06T13:20:12.0000000+00:00</time></trkpt><trkpt lat="39.45826859" lon="-0.3786793"><ele>21.0</ele><time>2022-11-06T13:20:13.0000000+00:00</time></trkpt><trkpt lat="39.45826851" lon="-0.37867578"><ele>21.0</ele><time>2022-11-06T13:20:14.0000000+00:00</time></trkpt><trkpt lat="39.45827245" lon="-0.37866756"><ele>21.0</ele><time>2022-11-06T13:20:15.0000000+00:00</time></trkpt><trkpt lat="39.45827739" lon="-0.37865792"><ele>21.2</ele><time>2022-11-06T13:20:16.0000000+00:00</time></trkpt><trkpt lat="39.45827907" lon="-0.37865172"><ele>21.2</ele><time>2022-11-06T13:20:17.0000000+00:00</time></trkpt><trkpt lat="39.45827798" lon="-0.37864946"><ele>21.2</ele><time>2022-11-06T13:20:18.0000000+00:00</time></trkpt><trkpt lat="39.45827656" lon="-0.37864334"><ele>21.2</ele><time>2022-11-06T13:20:19.0000000+00:00</time></trkpt><trkpt lat="39.45827672" lon="-0.37863504"><ele>21.2</ele><time>2022-11-06T13:20:20.0000000+00:00</time></trkpt><trkpt lat="39.45827823" lon="-0.3786254"><ele>21.2</ele><time>2022-11-06T13:20:21.0000000+00:00</time></trkpt><trkpt lat="39.45828234" lon="-0.37861291"><ele>21.2</ele><time>2022-11-06T13:20:22.0000000+00:00</time></trkpt><trkpt lat="39.45828519" lon="-0.37860202"><ele>21.2</ele><time>2022-11-06T13:20:23.0000000+00:00</time></trkpt><trkpt lat="39.45828578" lon="-0.37859531"><ele>21.2</ele><time>2022-11-06T13:20:24.0000000+00:00</time></trkpt><trkpt lat="39.45828703" lon="-0.37858601"><ele>21.2</ele><time>2022-11-06T13:20:25.0000000+00:00</time></trkpt><trkpt lat="39.45828854" lon="-0.37857788"><ele>21.2</ele><time>2022-11-06T13:20:26.0000000+00:00</time></trkpt><trkpt lat="39.45829064" lon="-0.37856924"><ele>21.2</ele><time>2022-11-06T13:20:27.0000000+00:00</time></trkpt><trkpt lat="39.45829215" lon="-0.37856354"><ele>21.2</ele><time>2022-11-06T13:20:28.0000000+00:00</time></trkpt><trkpt lat="39.4582924" lon="-0.37855868"><ele>21.2</ele><time>2022-11-06T13:20:29.0000000+00:00</time></trkpt><trkpt lat="39.45829592" lon="-0.37855416"><ele>21.0</ele><time>2022-11-06T13:20:30.0000000+00:00</time></trkpt><trkpt lat="39.45830556" lon="-0.37854401"><ele>21.0</ele><time>2022-11-06T13:20:31.0000000+00:00</time></trkpt><trkpt lat="39.45831067" lon="-0.37853312"><ele>21.0</ele><time>2022-11-06T13:20:32.0000000+00:00</time></trkpt><trkpt lat="39.45831159" lon="-0.37852767"><ele>21.2</ele><time>2022-11-06T13:20:33.0000000+00:00</time></trkpt><trkpt lat="39.45831369" lon="-0.37852398"><ele>21.2</ele><time>2022-11-06T13:20:34.0000000+00:00</time></trkpt><trkpt lat="39.45831612" lon="-0.37851476"><ele>21.2</ele><time>2022-11-06T13:20:35.0000000+00:00</time></trkpt><trkpt lat="39.45831955" lon="-0.37850353"><ele>21.2</ele><time>2022-11-06T13:20:36.0000000+00:00</time></trkpt><trkpt lat="39.45832484" lon="-0.37849666"><ele>21.2</ele><time>2022-11-06T13:20:37.0000000+00:00</time></trkpt><trkpt lat="39.4583328" lon="-0.37848576"><ele>21.2</ele><time>2022-11-06T13:20:38.0000000+00:00</time></trkpt><trkpt lat="39.45833263" lon="-0.37848115"><ele>21.2</ele><time>2022-11-06T13:20:39.0000000+00:00</time></trkpt><trkpt lat="39.45833473" lon="-0.37847461"><ele>21.2</ele><time>2022-11-06T13:20:40.0000000+00:00</time></trkpt><trkpt lat="39.45833523" lon="-0.37847394"><ele>21.4</ele><time>2022-11-06T13:20:41.0000000+00:00</time></trkpt><trkpt lat="39.45833481" lon="-0.37847243"><ele>21.4</ele><time>2022-11-06T13:20:42.0000000+00:00</time></trkpt><trkpt lat="39.45833582" lon="-0.37846732"><ele>21.4</ele><time>2022-11-06T13:20:43.0000000+00:00</time></trkpt><trkpt lat="39.45833883" lon="-0.37846003"><ele>21.4</ele><time>2022-11-06T13:20:44.0000000+00:00</time></trkpt><trkpt lat="39.45834017" lon="-0.37845617"><ele>21.4</ele><time>2022-11-06T13:20:45.0000000+00:00</time></trkpt><trkpt lat="39.45834168" lon="-0.37845173"><ele>21.4</ele><time>2022-11-06T13:20:46.0000000+00:00</time></trkpt><trkpt lat="39.45834252" lon="-0.3784472"><ele>21.4</ele><time>2022-11-06T13:20:47.0000000+00:00</time></trkpt><trkpt lat="39.45834789" lon="-0.37843262"><ele>21.4</ele><time>2022-11-06T13:20:48.0000000+00:00</time></trkpt><trkpt lat="39.45835266" lon="-0.37841938"><ele>21.4</ele><time>2022-11-06T13:20:49.0000000+00:00</time></trkpt><trkpt lat="39.45835392" lon="-0.37841317"><ele>21.6</ele><time>2022-11-06T13:20:50.0000000+00:00</time></trkpt><trkpt lat="39.4583556" lon="-0.37840605"><ele>21.6</ele><time>2022-11-06T13:20:51.0000000+00:00</time></trkpt><trkpt lat="39.4583556" lon="-0.37840244"><ele>21.6</ele><time>2022-11-06T13:20:52.0000000+00:00</time></trkpt><trkpt lat="39.45835685" lon="-0.37839331"><ele>21.6</ele><time>2022-11-06T13:20:53.0000000+00:00</time></trkpt><trkpt lat="39.45836297" lon="-0.37837998"><ele>21.6</ele><time>2022-11-06T13:20:54.0000000+00:00</time></trkpt><trkpt lat="39.45837244" lon="-0.3783659"><ele>21.6</ele><time>2022-11-06T13:20:55.0000000+00:00</time></trkpt><trkpt lat="39.45837949" lon="-0.37835626"><ele>21.8</ele><time>2022-11-06T13:20:56.0000000+00:00</time></trkpt><trkpt lat="39.45838627" lon="-0.37834478"><ele>21.8</ele><time>2022-11-06T13:20:57.0000000+00:00</time></trkpt><trkpt lat="39.45839181" lon="-0.37833354"><ele>21.8</ele><time>2022-11-06T13:20:58.0000000+00:00</time></trkpt><trkpt lat="39.45839843" lon="-0.37832357"><ele>21.8</ele><time>2022-11-06T13:20:59.0000000+00:00</time></trkpt><trkpt lat="39.45840698" lon="-0.37830748"><ele>21.8</ele><time>2022-11-06T13:21:00.0000000+00:00</time></trkpt><trkpt lat="39.4584193" lon="-0.37829239"><ele>21.8</ele><time>2022-11-06T13:21:01.0000000+00:00</time></trkpt><trkpt lat="39.45843246" lon="-0.37827361"><ele>21.8</ele><time>2022-11-06T13:21:02.0000000+00:00</time></trkpt><trkpt lat="39.45844864" lon="-0.37825727"><ele>21.8</ele><time>2022-11-06T13:21:03.0000000+00:00</time></trkpt><trkpt lat="39.45845626" lon="-0.37824545"><ele>21.8</ele><time>2022-11-06T13:21:04.0000000+00:00</time></trkpt><trkpt lat="39.45846045" lon="-0.37823816"><ele>21.8</ele><time>2022-11-06T13:21:05.0000000+00:00</time></trkpt><trkpt lat="39.45846238" lon="-0.37822936"><ele>21.8</ele><time>2022-11-06T13:21:06.0000000+00:00</time></trkpt><trkpt lat="39.45846884" lon="-0.37822056"><ele>22.0</ele><time>2022-11-06T13:21:07.0000000+00:00</time></trkpt><trkpt lat="39.45846783" lon="-0.37821385"><ele>22.0</ele><time>2022-11-06T13:21:08.0000000+00:00</time></trkpt><trkpt lat="39.45847378" lon="-0.37820187"><ele>22.0</ele><time>2022-11-06T13:21:09.0000000+00:00</time></trkpt><trkpt lat="39.45848241" lon="-0.37819072"><ele>22.0</ele><time>2022-11-06T13:21:10.0000000+00:00</time></trkpt><trkpt lat="39.45849055" lon="-0.37817949"><ele>22.0</ele><time>2022-11-06T13:21:11.0000000+00:00</time></trkpt><trkpt lat="39.4584996" lon="-0.37817236"><ele>22.0</ele><time>2022-11-06T13:21:12.0000000+00:00</time></trkpt><trkpt lat="39.45850186" lon="-0.37816658"><ele>22.0</ele><time>2022-11-06T13:21:13.0000000+00:00</time></trkpt><trkpt lat="39.45850572" lon="-0.37816683"><ele>22.0</ele><time>2022-11-06T13:21:14.0000000+00:00</time></trkpt><trkpt lat="39.45851142" lon="-0.37816666"><ele>22.0</ele><time>2022-11-06T13:21:15.0000000+00:00</time></trkpt><trkpt lat="39.45851561" lon="-0.37817035"><ele>22.0</ele><time>2022-11-06T13:21:16.0000000+00:00</time></trkpt><trkpt lat="39.45851754" lon="-0.37817094"><ele>22.0</ele><time>2022-11-06T13:21:17.0000000+00:00</time></trkpt><trkpt lat="39.45852122" lon="-0.37816599"><ele>22.0</ele><time>2022-11-06T13:21:18.0000000+00:00</time></trkpt><trkpt lat="39.45852634" lon="-0.3781623"><ele>22.0</ele><time>2022-11-06T13:21:19.0000000+00:00</time></trkpt><trkpt lat="39.45853237" lon="-0.37815685"><ele>22.0</ele><time>2022-11-06T13:21:20.0000000+00:00</time></trkpt><trkpt lat="39.45854025" lon="-0.37815451"><ele>22.2</ele><time>2022-11-06T13:21:21.0000000+00:00</time></trkpt><trkpt lat="39.45854922" lon="-0.3781556"><ele>22.0</ele><time>2022-11-06T13:21:22.0000000+00:00</time></trkpt><trkpt lat="39.45855819" lon="-0.37815183"><ele>22.0</ele><time>2022-11-06T13:21:23.0000000+00:00</time></trkpt><trkpt lat="39.45856456" lon="-0.37814487"><ele>22.0</ele><time>2022-11-06T13:21:24.0000000+00:00</time></trkpt><trkpt lat="39.45856959" lon="-0.37812919"><ele>22.0</ele><time>2022-11-06T13:21:25.0000000+00:00</time></trkpt><trkpt lat="39.45857612" lon="-0.37812056"><ele>22.0</ele><time>2022-11-06T13:21:26.0000000+00:00</time></trkpt><trkpt lat="39.45858132" lon="-0.37811897"><ele>22.0</ele><time>2022-11-06T13:21:27.0000000+00:00</time></trkpt><trkpt lat="39.45858534" lon="-0.37811939"><ele>22.0</ele><time>2022-11-06T13:21:28.0000000+00:00</time></trkpt><trkpt lat="39.45859515" lon="-0.37811729"><ele>22.0</ele><time>2022-11-06T13:21:29.0000000+00:00</time></trkpt><trkpt lat="39.45860446" lon="-0.37811763"><ele>22.0</ele><time>2022-11-06T13:21:30.0000000+00:00</time></trkpt><trkpt lat="39.45861351" lon="-0.3781183"><ele>22.0</ele><time>2022-11-06T13:21:31.0000000+00:00</time></trkpt><trkpt lat="39.45861829" lon="-0.37811863"><ele>22.0</ele><time>2022-11-06T13:21:32.0000000+00:00</time></trkpt><trkpt lat="39.45862851" lon="-0.37810757"><ele>22.0</ele><time>2022-11-06T13:21:33.0000000+00:00</time></trkpt><trkpt lat="39.45864083" lon="-0.37809441"><ele>22.0</ele><time>2022-11-06T13:21:34.0000000+00:00</time></trkpt><trkpt lat="39.45865148" lon="-0.37808435"><ele>22.0</ele><time>2022-11-06T13:21:35.0000000+00:00</time></trkpt><trkpt lat="39.45866548" lon="-0.37807102"><ele>22.0</ele><time>2022-11-06T13:21:36.0000000+00:00</time></trkpt><trkpt lat="39.45867696" lon="-0.37806021"><ele>22.0</ele><time>2022-11-06T13:21:37.0000000+00:00</time></trkpt><trkpt lat="39.45868811" lon="-0.37805183"><ele>22.0</ele><time>2022-11-06T13:21:38.0000000+00:00</time></trkpt><trkpt lat="39.45869691" lon="-0.37804579"><ele>22.2</ele><time>2022-11-06T13:21:39.0000000+00:00</time></trkpt><trkpt lat="39.45870713" lon="-0.37803934"><ele>22.2</ele><time>2022-11-06T13:21:40.0000000+00:00</time></trkpt><trkpt lat="39.45871644" lon="-0.37803398"><ele>22.2</ele><time>2022-11-06T13:21:41.0000000+00:00</time></trkpt><trkpt lat="39.45872407" lon="-0.37802819"><ele>22.2</ele><time>2022-11-06T13:21:42.0000000+00:00</time></trkpt><trkpt lat="39.45873111" lon="-0.37802224"><ele>22.2</ele><time>2022-11-06T13:21:43.0000000+00:00</time></trkpt><trkpt lat="39.45873555" lon="-0.37801503"><ele>22.2</ele><time>2022-11-06T13:21:44.0000000+00:00</time></trkpt><trkpt lat="39.45874435" lon="-0.37800732"><ele>22.2</ele><time>2022-11-06T13:21:45.0000000+00:00</time></trkpt><trkpt lat="39.45875064" lon="-0.37800363"><ele>22.4</ele><time>2022-11-06T13:21:46.0000000+00:00</time></trkpt><trkpt lat="39.45875826" lon="-0.37799978"><ele>22.4</ele><time>2022-11-06T13:21:47.0000000+00:00</time></trkpt><trkpt lat="39.45876547" lon="-0.37799391"><ele>22.2</ele><time>2022-11-06T13:21:48.0000000+00:00</time></trkpt><trkpt lat="39.45877235" lon="-0.37798871"><ele>22.2</ele><time>2022-11-06T13:21:49.0000000+00:00</time></trkpt><trkpt lat="39.4587824" lon="-0.37798352"><ele>22.2</ele><time>2022-11-06T13:21:50.0000000+00:00</time></trkpt><trkpt lat="39.45879355" lon="-0.37798109"><ele>22.2</ele><time>2022-11-06T13:21:51.0000000+00:00</time></trkpt><trkpt lat="39.45880076" lon="-0.37797446"><ele>22.2</ele><time>2022-11-06T13:21:52.0000000+00:00</time></trkpt><trkpt lat="39.45881526" lon="-0.37796189"><ele>22.2</ele><time>2022-11-06T13:21:53.0000000+00:00</time></trkpt><trkpt lat="39.4588244" lon="-0.37795628"><ele>22.2</ele><time>2022-11-06T13:21:54.0000000+00:00</time></trkpt><trkpt lat="39.45883102" lon="-0.37794999"><ele>22.2</ele><time>2022-11-06T13:21:55.0000000+00:00</time></trkpt><trkpt lat="39.4588425" lon="-0.37794261"><ele>22.2</ele><time>2022-11-06T13:21:56.0000000+00:00</time></trkpt><trkpt lat="39.45884946" lon="-0.37793624"><ele>22.2</ele><time>2022-11-06T13:21:57.0000000+00:00</time></trkpt><trkpt lat="39.45885105" lon="-0.37793742"><ele>22.2</ele><time>2022-11-06T13:21:58.0000000+00:00</time></trkpt><trkpt lat="39.45886228" lon="-0.37794353"><ele>22.2</ele><time>2022-11-06T13:21:59.0000000+00:00</time></trkpt><trkpt lat="39.45887175" lon="-0.37793784"><ele>22.2</ele><time>2022-11-06T13:22:00.0000000+00:00</time></trkpt><trkpt lat="39.45888064" lon="-0.37792585"><ele>22.2</ele><time>2022-11-06T13:22:01.0000000+00:00</time></trkpt><trkpt lat="39.45888466" lon="-0.37791973"><ele>22.2</ele><time>2022-11-06T13:22:02.0000000+00:00</time></trkpt><trkpt lat="39.45888827" lon="-0.37791646"><ele>22.2</ele><time>2022-11-06T13:22:03.0000000+00:00</time></trkpt><trkpt lat="39.45889673" lon="-0.37791546"><ele>22.2</ele><time>2022-11-06T13:22:04.0000000+00:00</time></trkpt><trkpt lat="39.45889556" lon="-0.37791235"><ele>22.0</ele><time>2022-11-06T13:22:05.0000000+00:00</time></trkpt><trkpt lat="39.45889707" lon="-0.37791009"><ele>22.0</ele><time>2022-11-06T13:22:06.0000000+00:00</time></trkpt><trkpt lat="39.4588969" lon="-0.37790624"><ele>22.0</ele><time>2022-11-06T13:22:07.0000000+00:00</time></trkpt><trkpt lat="39.45889455" lon="-0.37789819"><ele>22.0</ele><time>2022-11-06T13:22:08.0000000+00:00</time></trkpt><trkpt lat="39.45889439" lon="-0.37789341"><ele>22.0</ele><time>2022-11-06T13:22:09.0000000+00:00</time></trkpt><trkpt lat="39.45889422" lon="-0.37789333"><ele>22.0</ele><time>2022-11-06T13:22:10.0000000+00:00</time></trkpt><trkpt lat="39.45889388" lon="-0.37789316"><ele>22.0</ele><time>2022-11-06T13:22:11.0000000+00:00</time></trkpt><trkpt lat="39.45889506" lon="-0.3778909"><ele>22.0</ele><time>2022-11-06T13:22:12.0000000+00:00</time></trkpt><trkpt lat="39.45889581" lon="-0.3778883"><ele>22.0</ele><time>2022-11-06T13:22:13.0000000+00:00</time></trkpt><trkpt lat="39.45889967" lon="-0.37788101"><ele>22.0</ele><time>2022-11-06T13:22:14.0000000+00:00</time></trkpt><trkpt lat="39.45890486" lon="-0.37787003"><ele>22.0</ele><time>2022-11-06T13:22:15.0000000+00:00</time></trkpt><trkpt lat="39.45890755" lon="-0.37786776"><ele>22.0</ele><time>2022-11-06T13:22:16.0000000+00:00</time></trkpt><trkpt lat="39.45891249" lon="-0.37786156"><ele>22.0</ele><time>2022-11-06T13:22:17.0000000+00:00</time></trkpt><trkpt lat="39.45891836" lon="-0.37785762"><ele>22.0</ele><time>2022-11-06T13:22:18.0000000+00:00</time></trkpt><trkpt lat="39.45892163" lon="-0.37785586"><ele>22.0</ele><time>2022-11-06T13:22:19.0000000+00:00</time></trkpt><trkpt lat="39.4589264" lon="-0.37785133"><ele>22.0</ele><time>2022-11-06T13:22:20.0000000+00:00</time></trkpt><trkpt lat="39.45893101" lon="-0.37784522"><ele>22.0</ele><time>2022-11-06T13:22:21.0000000+00:00</time></trkpt><trkpt lat="39.45893755" lon="-0.3778318"><ele>22.0</ele><time>2022-11-06T13:22:22.0000000+00:00</time></trkpt><trkpt lat="39.4589456" lon="-0.37782149"><ele>22.0</ele><time>2022-11-06T13:22:23.0000000+00:00</time></trkpt><trkpt lat="39.45895499" lon="-0.3778059"><ele>22.2</ele><time>2022-11-06T13:22:24.0000000+00:00</time></trkpt><trkpt lat="39.45896546" lon="-0.37778394"><ele>22.2</ele><time>2022-11-06T13:22:25.0000000+00:00</time></trkpt><trkpt lat="39.45897209" lon="-0.37776467"><ele>22.2</ele><time>2022-11-06T13:22:26.0000000+00:00</time></trkpt><trkpt lat="39.45897745" lon="-0.37775469"><ele>22.2</ele><time>2022-11-06T13:22:27.0000000+00:00</time></trkpt><trkpt lat="39.45898382" lon="-0.37775008"><ele>22.2</ele><time>2022-11-06T13:22:28.0000000+00:00</time></trkpt><trkpt lat="39.45898952" lon="-0.3777422"><ele>22.0</ele><time>2022-11-06T13:22:29.0000000+00:00</time></trkpt><trkpt lat="39.45899329" lon="-0.37773382"><ele>22.0</ele><time>2022-11-06T13:22:30.0000000+00:00</time></trkpt><trkpt lat="39.45900017" lon="-0.37772787"><ele>22.0</ele><time>2022-11-06T13:22:31.0000000+00:00</time></trkpt><trkpt lat="39.45900947" lon="-0.3777132"><ele>22.0</ele><time>2022-11-06T13:22:32.0000000+00:00</time></trkpt><trkpt lat="39.4590145" lon="-0.3777044"><ele>22.0</ele><time>2022-11-06T13:22:33.0000000+00:00</time></trkpt><trkpt lat="39.45902154" lon="-0.37769795"><ele>21.8</ele><time>2022-11-06T13:22:34.0000000+00:00</time></trkpt><trkpt lat="39.45903084" lon="-0.37769283"><ele>21.8</ele><time>2022-11-06T13:22:35.0000000+00:00</time></trkpt><trkpt lat="39.45903327" lon="-0.37768906"><ele>21.8</ele><time>2022-11-06T13:22:36.0000000+00:00</time></trkpt><trkpt lat="39.45903311" lon="-0.3776873"><ele>21.8</ele><time>2022-11-06T13:22:37.0000000+00:00</time></trkpt><trkpt lat="39.45903218" lon="-0.37768638"><ele>21.8</ele><time>2022-11-06T13:22:38.0000000+00:00</time></trkpt><trkpt lat="39.45903168" lon="-0.37768629"><ele>21.8</ele><time>2022-11-06T13:22:39.0000000+00:00</time></trkpt><trkpt lat="39.45903126" lon="-0.37768696"><ele>21.8</ele><time>2022-11-06T13:22:40.0000000+00:00</time></trkpt><trkpt lat="39.45903068" lon="-0.37768738"><ele>21.8</ele><time>2022-11-06T13:22:41.0000000+00:00</time></trkpt><trkpt lat="39.4590295" lon="-0.37768722"><ele>21.8</ele><time>2022-11-06T13:22:42.0000000+00:00</time></trkpt><trkpt lat="39.45902824" lon="-0.37768655"><ele>21.6</ele><time>2022-11-06T13:22:43.0000000+00:00</time></trkpt><trkpt lat="39.45902707" lon="-0.37768646"><ele>21.8</ele><time>2022-11-06T13:22:44.0000000+00:00</time></trkpt><trkpt lat="39.45902665" lon="-0.37768655"><ele>21.8</ele><time>2022-11-06T13:22:45.0000000+00:00</time></trkpt><trkpt lat="39.45902766" lon="-0.37768512"><ele>21.8</ele><time>2022-11-06T13:22:46.0000000+00:00</time></trkpt><trkpt lat="39.45902933" lon="-0.37768462"><ele>21.8</ele><time>2022-11-06T13:22:47.0000000+00:00</time></trkpt><trkpt lat="39.45903788" lon="-0.37768646"><ele>21.8</ele><time>2022-11-06T13:22:48.0000000+00:00</time></trkpt><trkpt lat="39.45904048" lon="-0.37768755"><ele>21.8</ele><time>2022-11-06T13:22:49.0000000+00:00</time></trkpt><trkpt lat="39.45904132" lon="-0.3776878"><ele>21.8</ele><time>2022-11-06T13:22:50.0000000+00:00</time></trkpt><trkpt lat="39.45904241" lon="-0.37768764"><ele>21.8</ele><time>2022-11-06T13:22:51.0000000+00:00</time></trkpt><trkpt lat="39.45904383" lon="-0.3776878"><ele>21.8</ele><time>2022-11-06T13:22:52.0000000+00:00</time></trkpt><trkpt lat="39.45904459" lon="-0.37768764"><ele>21.8</ele><time>2022-11-06T13:22:53.0000000+00:00</time></trkpt><trkpt lat="39.45904501" lon="-0.37768537"><ele>21.8</ele><time>2022-11-06T13:22:54.0000000+00:00</time></trkpt><trkpt lat="39.45904333" lon="-0.37768453"><ele>21.8</ele><time>2022-11-06T13:22:55.0000000+00:00</time></trkpt><trkpt lat="39.45904342" lon="-0.37768303"><ele>21.8</ele><time>2022-11-06T13:22:56.0000000+00:00</time></trkpt><trkpt lat="39.45904509" lon="-0.37768168"><ele>21.8</ele><time>2022-11-06T13:22:57.0000000+00:00</time></trkpt><trkpt lat="39.45904677" lon="-0.37768051"><ele>21.8</ele><time>2022-11-06T13:22:58.0000000+00:00</time></trkpt><trkpt lat="39.45904828" lon="-0.37768026"><ele>21.8</ele><time>2022-11-06T13:22:59.0000000+00:00</time></trkpt><trkpt lat="39.45904995" lon="-0.37768026"><ele>21.8</ele><time>2022-11-06T13:23:00.0000000+00:00</time></trkpt><trkpt lat="39.45905062" lon="-0.37768026"><ele>21.8</ele><time>2022-11-06T13:23:01.0000000+00:00</time></trkpt><trkpt lat="39.45905062" lon="-0.37768026"><ele>21.8</ele><time>2022-11-06T13:23:02.0000000+00:00</time></trkpt><trkpt lat="39.45905062" lon="-0.37768026"><ele>21.8</ele><time>2022-11-06T13:23:03.0000000+00:00</time></trkpt><trkpt lat="39.45905062" lon="-0.37768026"><ele>21.8</ele><time>2022-11-06T13:23:04.0000000+00:00</time></trkpt><trkpt lat="39.45905062" lon="-0.37768026"><ele>21.8</ele><time>2022-11-06T13:23:05.0000000+00:00</time></trkpt><trkpt lat="39.45905062" lon="-0.37768026"><ele>21.8</ele><time>2022-11-06T13:23:06.0000000+00:00</time></trkpt><trkpt lat="39.45905062" lon="-0.37768026"><ele>21.8</ele><time>2022-11-06T13:23:07.0000000+00:00</time></trkpt><trkpt lat="39.45905062" lon="-0.37768026"><ele>21.8</ele><time>2022-11-06T13:23:08.0000000+00:00</time></trkpt><trkpt lat="39.45905062" lon="-0.37768026"><ele>21.8</ele><time>2022-11-06T13:23:09.0000000+00:00</time></trkpt><trkpt lat="39.45905062" lon="-0.37768026"><ele>21.8</ele><time>2022-11-06T13:23:10.0000000+00:00</time></trkpt><trkpt lat="39.45905062" lon="-0.37768026"><ele>21.8</ele><time>2022-11-06T13:23:11.0000000+00:00</time></trkpt><trkpt lat="39.45905062" lon="-0.37768026"><ele>21.8</ele><time>2022-11-06T13:23:12.0000000+00:00</time></trkpt><trkpt lat="39.45905062" lon="-0.37768026"><ele>21.8</ele><time>2022-11-06T13:23:13.0000000+00:00</time></trkpt><trkpt lat="39.45905062" lon="-0.37768026"><ele>21.8</ele><time>2022-11-06T13:23:14.0000000+00:00</time></trkpt><trkpt lat="39.45905062" lon="-0.37768026"><ele>21.8</ele><time>2022-11-06T13:23:15.0000000+00:00</time></trkpt><trkpt lat="39.45905062" lon="-0.37768026"><ele>21.8</ele><time>2022-11-06T13:23:16.0000000+00:00</time></trkpt><trkpt lat="39.45905062" lon="-0.37768026"><ele>21.8</ele><time>2022-11-06T13:23:17.0000000+00:00</time></trkpt><trkpt lat="39.45905079" lon="-0.37768026"><ele>21.8</ele><time>2022-11-06T13:23:18.0000000+00:00</time></trkpt><trkpt lat="39.45905113" lon="-0.37768026"><ele>21.8</ele><time>2022-11-06T13:23:19.0000000+00:00</time></trkpt><trkpt lat="39.45905129" lon="-0.37768026"><ele>21.8</ele><time>2022-11-06T13:23:20.0000000+00:00</time></trkpt><trkpt lat="39.45905129" lon="-0.37768026"><ele>21.8</ele><time>2022-11-06T13:23:21.0000000+00:00</time></trkpt><trkpt lat="39.45905129" lon="-0.37768026"><ele>21.8</ele><time>2022-11-06T13:23:22.0000000+00:00</time></trkpt><trkpt lat="39.45905146" lon="-0.37768026"><ele>21.8</ele><time>2022-11-06T13:23:23.0000000+00:00</time></trkpt><trkpt lat="39.45905197" lon="-0.37768026"><ele>21.8</ele><time>2022-11-06T13:23:24.0000000+00:00</time></trkpt><trkpt lat="39.45905238" lon="-0.37768001"><ele>21.8</ele><time>2022-11-06T13:23:25.0000000+00:00</time></trkpt><trkpt lat="39.4590528" lon="-0.37767984"><ele>21.8</ele><time>2022-11-06T13:23:26.0000000+00:00</time></trkpt><trkpt lat="39.45905347" lon="-0.37767976"><ele>21.8</ele><time>2022-11-06T13:23:27.0000000+00:00</time></trkpt><trkpt lat="39.45905364" lon="-0.37767967"><ele>21.8</ele><time>2022-11-06T13:23:28.0000000+00:00</time></trkpt><trkpt lat="39.45905758" lon="-0.37767364"><ele>21.8</ele><time>2022-11-06T13:23:29.0000000+00:00</time></trkpt><trkpt lat="39.45906789" lon="-0.37765713"><ele>21.8</ele><time>2022-11-06T13:23:30.0000000+00:00</time></trkpt><trkpt lat="39.45907543" lon="-0.37764019"><ele>21.8</ele><time>2022-11-06T13:23:31.0000000+00:00</time></trkpt><trkpt lat="39.45908373" lon="-0.37762259"><ele>21.8</ele><time>2022-11-06T13:23:32.0000000+00:00</time></trkpt><trkpt lat="39.45909379" lon="-0.37760608"><ele>21.8</ele><time>2022-11-06T13:23:33.0000000+00:00</time></trkpt><trkpt lat="39.45910226" lon="-0.37758772"><ele>21.8</ele><time>2022-11-06T13:23:34.0000000+00:00</time></trkpt><trkpt lat="39.45911206" lon="-0.37756945"><ele>21.8</ele><time>2022-11-06T13:23:35.0000000+00:00</time></trkpt><trkpt lat="39.45912003" lon="-0.37754665"><ele>21.8</ele><time>2022-11-06T13:23:36.0000000+00:00</time></trkpt><trkpt lat="39.45912606" lon="-0.37752871"><ele>21.8</ele><time>2022-11-06T13:23:37.0000000+00:00</time></trkpt><trkpt lat="39.45913788" lon="-0.37750566"><ele>21.8</ele><time>2022-11-06T13:23:38.0000000+00:00</time></trkpt><trkpt lat="39.45914366" lon="-0.37748664"><ele>21.8</ele><time>2022-11-06T13:23:39.0000000+00:00</time></trkpt><trkpt lat="39.45915322" lon="-0.37747038"><ele>22.0</ele><time>2022-11-06T13:23:40.0000000+00:00</time></trkpt><trkpt lat="39.4591637" lon="-0.37745621"><ele>22.0</ele><time>2022-11-06T13:23:41.0000000+00:00</time></trkpt><trkpt lat="39.45917459" lon="-0.37744297"><ele>22.0</ele><time>2022-11-06T13:23:42.0000000+00:00</time></trkpt><trkpt lat="39.45918457" lon="-0.37743107"><ele>22.0</ele><time>2022-11-06T13:23:43.0000000+00:00</time></trkpt><trkpt lat="39.4591927" lon="-0.37742092"><ele>22.0</ele><time>2022-11-06T13:23:44.0000000+00:00</time></trkpt><trkpt lat="39.45919714" lon="-0.37741464"><ele>22.0</ele><time>2022-11-06T13:23:45.0000000+00:00</time></trkpt><trkpt lat="39.45920091" lon="-0.37740709"><ele>22.0</ele><time>2022-11-06T13:23:46.0000000+00:00</time></trkpt><trkpt lat="39.45920636" lon="-0.37739812"><ele>22.0</ele><time>2022-11-06T13:23:47.0000000+00:00</time></trkpt><trkpt lat="39.45921307" lon="-0.37738128"><ele>22.0</ele><time>2022-11-06T13:23:48.0000000+00:00</time></trkpt><trkpt lat="39.45921625" lon="-0.3773687"><ele>22.0</ele><time>2022-11-06T13:23:49.0000000+00:00</time></trkpt><trkpt lat="39.45922983" lon="-0.37734976"><ele>22.0</ele><time>2022-11-06T13:23:50.0000000+00:00</time></trkpt><trkpt lat="39.45923913" lon="-0.37733375"><ele>22.0</ele><time>2022-11-06T13:23:51.0000000+00:00</time></trkpt><trkpt lat="39.45924684" lon="-0.37732646"><ele>22.0</ele><time>2022-11-06T13:23:52.0000000+00:00</time></trkpt><trkpt lat="39.45925305" lon="-0.37732285"><ele>21.8</ele><time>2022-11-06T13:23:53.0000000+00:00</time></trkpt><trkpt lat="39.45925816" lon="-0.37732587"><ele>21.8</ele><time>2022-11-06T13:23:54.0000000+00:00</time></trkpt><trkpt lat="39.45927006" lon="-0.37732026"><ele>21.8</ele><time>2022-11-06T13:23:55.0000000+00:00</time></trkpt><trkpt lat="39.45927844" lon="-0.37730894"><ele>21.8</ele><time>2022-11-06T13:23:56.0000000+00:00</time></trkpt><trkpt lat="39.45927987" lon="-0.37730542"><ele>21.8</ele><time>2022-11-06T13:23:57.0000000+00:00</time></trkpt><trkpt lat="39.45927585" lon="-0.37729955"><ele>21.6</ele><time>2022-11-06T13:23:58.0000000+00:00</time></trkpt><trkpt lat="39.45927358" lon="-0.37728648"><ele>21.6</ele><time>2022-11-06T13:23:59.0000000+00:00</time></trkpt><trkpt lat="39.45927291" lon="-0.37727298"><ele>21.6</ele><time>2022-11-06T13:24:00.0000000+00:00</time></trkpt><trkpt lat="39.45927392" lon="-0.37726158"><ele>21.6</ele><time>2022-11-06T13:24:01.0000000+00:00</time></trkpt><trkpt lat="39.45927409" lon="-0.37725077"><ele>21.6</ele><time>2022-11-06T13:24:02.0000000+00:00</time></trkpt><trkpt lat="39.45927274" lon="-0.37724331"><ele>21.6</ele><time>2022-11-06T13:24:03.0000000+00:00</time></trkpt><trkpt lat="39.45927291" lon="-0.37723811"><ele>21.6</ele><time>2022-11-06T13:24:04.0000000+00:00</time></trkpt><trkpt lat="39.45927132" lon="-0.37723543"><ele>21.6</ele><time>2022-11-06T13:24:05.0000000+00:00</time></trkpt><trkpt lat="39.45927291" lon="-0.37722864"><ele>21.6</ele><time>2022-11-06T13:24:06.0000000+00:00</time></trkpt><trkpt lat="39.45927274" lon="-0.37722479"><ele>21.6</ele><time>2022-11-06T13:24:07.0000000+00:00</time></trkpt><trkpt lat="39.45927476" lon="-0.37720551"><ele>21.6</ele><time>2022-11-06T13:24:08.0000000+00:00</time></trkpt><trkpt lat="39.45927442" lon="-0.37718623"><ele>21.6</ele><time>2022-11-06T13:24:09.0000000+00:00</time></trkpt><trkpt lat="39.45927392" lon="-0.37716913"><ele>21.6</ele><time>2022-11-06T13:24:10.0000000+00:00</time></trkpt><trkpt lat="39.45926931" lon="-0.37715681"><ele>21.8</ele><time>2022-11-06T13:24:11.0000000+00:00</time></trkpt><trkpt lat="39.45926847" lon="-0.37714499"><ele>21.8</ele><time>2022-11-06T13:24:12.0000000+00:00</time></trkpt><trkpt lat="39.45926931" lon="-0.37712865"><ele>21.8</ele><time>2022-11-06T13:24:13.0000000+00:00</time></trkpt><trkpt lat="39.45927006" lon="-0.37710048"><ele>21.8</ele><time>2022-11-06T13:24:14.0000000+00:00</time></trkpt><trkpt lat="39.45927375" lon="-0.37707626"><ele>21.8</ele><time>2022-11-06T13:24:15.0000000+00:00</time></trkpt><trkpt lat="39.45927844" lon="-0.37706159"><ele>21.8</ele><time>2022-11-06T13:24:16.0000000+00:00</time></trkpt><trkpt lat="39.45928247" lon="-0.37705866"><ele>22.0</ele><time>2022-11-06T13:24:17.0000000+00:00</time></trkpt><trkpt lat="39.45928121" lon="-0.37706612"><ele>22.0</ele><time>2022-11-06T13:24:18.0000000+00:00</time></trkpt><trkpt lat="39.45928364" lon="-0.37707291"><ele>22.0</ele><time>2022-11-06T13:24:19.0000000+00:00</time></trkpt><trkpt lat="39.45929194" lon="-0.37706494"><ele>22.0</ele><time>2022-11-06T13:24:20.0000000+00:00</time></trkpt><trkpt lat="39.45929965" lon="-0.37705069"><ele>22.0</ele><time>2022-11-06T13:24:21.0000000+00:00</time></trkpt><trkpt lat="39.45931155" lon="-0.37702555"><ele>22.0</ele><time>2022-11-06T13:24:22.0000000+00:00</time></trkpt><trkpt lat="39.45931608" lon="-0.37701566"><ele>22.0</ele><time>2022-11-06T13:24:23.0000000+00:00</time></trkpt><trkpt lat="39.45931708" lon="-0.37699965"><ele>22.0</ele><time>2022-11-06T13:24:24.0000000+00:00</time></trkpt><trkpt lat="39.45929202" lon="-0.37698062"><ele>22.0</ele><time>2022-11-06T13:24:25.0000000+00:00</time></trkpt><trkpt lat="39.45929362" lon="-0.37696403"><ele>22.0</ele><time>2022-11-06T13:24:26.0000000+00:00</time></trkpt><trkpt lat="39.4592901" lon="-0.37695983"><ele>22.0</ele><time>2022-11-06T13:24:27.0000000+00:00</time></trkpt><trkpt lat="39.45929236" lon="-0.37694089"><ele>22.0</ele><time>2022-11-06T13:24:28.0000000+00:00</time></trkpt><trkpt lat="39.45929403" lon="-0.37692388"><ele>22.0</ele><time>2022-11-06T13:24:29.0000000+00:00</time></trkpt><trkpt lat="39.45929529" lon="-0.37690125"><ele>22.0</ele><time>2022-11-06T13:24:30.0000000+00:00</time></trkpt><trkpt lat="39.45929571" lon="-0.37687928"><ele>22.0</ele><time>2022-11-06T13:24:31.0000000+00:00</time></trkpt><trkpt lat="39.45929789" lon="-0.37686009"><ele>22.0</ele><time>2022-11-06T13:24:32.0000000+00:00</time></trkpt><trkpt lat="39.45930015" lon="-0.3768554"><ele>22.0</ele><time>2022-11-06T13:24:33.0000000+00:00</time></trkpt><trkpt lat="39.45930133" lon="-0.37685548"><ele>22.0</ele><time>2022-11-06T13:24:34.0000000+00:00</time></trkpt><trkpt lat="39.45929781" lon="-0.37685162"><ele>22.0</ele><time>2022-11-06T13:24:35.0000000+00:00</time></trkpt><trkpt lat="39.45929303" lon="-0.3768497"><ele>22.0</ele><time>2022-11-06T13:24:36.0000000+00:00</time></trkpt><trkpt lat="39.45926948" lon="-0.37684685"><ele>22.0</ele><time>2022-11-06T13:24:37.0000000+00:00</time></trkpt><trkpt lat="39.45926436" lon="-0.37684048"><ele>22.0</ele><time>2022-11-06T13:24:38.0000000+00:00</time></trkpt><trkpt lat="39.45926126" lon="-0.37683109"><ele>22.0</ele><time>2022-11-06T13:24:39.0000000+00:00</time></trkpt><trkpt lat="39.45925816" lon="-0.37681458"><ele>22.0</ele><time>2022-11-06T13:24:40.0000000+00:00</time></trkpt><trkpt lat="39.45925782" lon="-0.37679647"><ele>22.0</ele><time>2022-11-06T13:24:41.0000000+00:00</time></trkpt><trkpt lat="39.45926277" lon="-0.37678314"><ele>22.0</ele><time>2022-11-06T13:24:42.0000000+00:00</time></trkpt><trkpt lat="39.45926881" lon="-0.37677141"><ele>22.0</ele><time>2022-11-06T13:24:43.0000000+00:00</time></trkpt><trkpt lat="39.459273" lon="-0.37675917"><ele>22.0</ele><time>2022-11-06T13:24:44.0000000+00:00</time></trkpt><trkpt lat="39.4592771" lon="-0.37674895"><ele>22.0</ele><time>2022-11-06T13:24:45.0000000+00:00</time></trkpt><trkpt lat="39.45928171" lon="-0.37673495"><ele>22.0</ele><time>2022-11-06T13:24:46.0000000+00:00</time></trkpt><trkpt lat="39.4592849" lon="-0.37671743"><ele>22.0</ele><time>2022-11-06T13:24:47.0000000+00:00</time></trkpt><trkpt lat="39.45928389" lon="-0.37669773"><ele>22.0</ele><time>2022-11-06T13:24:48.0000000+00:00</time></trkpt><trkpt lat="39.45928113" lon="-0.37668231"><ele>22.2</ele><time>2022-11-06T13:24:49.0000000+00:00</time></trkpt><trkpt lat="39.45928129" lon="-0.37666253"><ele>22.2</ele><time>2022-11-06T13:24:50.0000000+00:00</time></trkpt><trkpt lat="39.45928356" lon="-0.37664828"><ele>22.2</ele><time>2022-11-06T13:24:51.0000000+00:00</time></trkpt><trkpt lat="39.45928155" lon="-0.37664501"><ele>22.4</ele><time>2022-11-06T13:24:52.0000000+00:00</time></trkpt><trkpt lat="39.45928012" lon="-0.37663554"><ele>22.4</ele><time>2022-11-06T13:24:53.0000000+00:00</time></trkpt><trkpt lat="39.45927878" lon="-0.37662833"><ele>22.4</ele><time>2022-11-06T13:24:54.0000000+00:00</time></trkpt><trkpt lat="39.45928565" lon="-0.37662573"><ele>22.4</ele><time>2022-11-06T13:24:55.0000000+00:00</time></trkpt><trkpt lat="39.45929663" lon="-0.37662297"><ele>22.4</ele><time>2022-11-06T13:24:56.0000000+00:00</time></trkpt><trkpt lat="39.45930099" lon="-0.37662758"><ele>22.4</ele><time>2022-11-06T13:24:57.0000000+00:00</time></trkpt><trkpt lat="39.45930309" lon="-0.37662095"><ele>22.4</ele><time>2022-11-06T13:24:58.0000000+00:00</time></trkpt><trkpt lat="39.45930669" lon="-0.37659715"><ele>22.4</ele><time>2022-11-06T13:24:59.0000000+00:00</time></trkpt><trkpt lat="39.45931356" lon="-0.37656957"><ele>22.4</ele><time>2022-11-06T13:25:00.0000000+00:00</time></trkpt><trkpt lat="39.45931549" lon="-0.37654627"><ele>22.4</ele><time>2022-11-06T13:25:01.0000000+00:00</time></trkpt><trkpt lat="39.45929647" lon="-0.37651652"><ele>22.4</ele><time>2022-11-06T13:25:02.0000000+00:00</time></trkpt><trkpt lat="39.45928456" lon="-0.37651375"><ele>22.4</ele><time>2022-11-06T13:25:03.0000000+00:00</time></trkpt><trkpt lat="39.45928238" lon="-0.37651124"><ele>22.4</ele><time>2022-11-06T13:25:04.0000000+00:00</time></trkpt><trkpt lat="39.45928196" lon="-0.37650562"><ele>22.4</ele><time>2022-11-06T13:25:05.0000000+00:00</time></trkpt><trkpt lat="39.45929068" lon="-0.37649548"><ele>22.4</ele><time>2022-11-06T13:25:06.0000000+00:00</time></trkpt><trkpt lat="39.45929579" lon="-0.37648751"><ele>22.4</ele><time>2022-11-06T13:25:07.0000000+00:00</time></trkpt><trkpt lat="39.45929923" lon="-0.37646656"><ele>22.4</ele><time>2022-11-06T13:25:08.0000000+00:00</time></trkpt><trkpt lat="39.45930594" lon="-0.37644527"><ele>22.4</ele><time>2022-11-06T13:25:09.0000000+00:00</time></trkpt><trkpt lat="39.45931105" lon="-0.37643446"><ele>22.4</ele><time>2022-11-06T13:25:10.0000000+00:00</time></trkpt><trkpt lat="39.45931482" lon="-0.37642926"><ele>22.4</ele><time>2022-11-06T13:25:11.0000000+00:00</time></trkpt><trkpt lat="39.45932027" lon="-0.37642691"><ele>22.4</ele><time>2022-11-06T13:25:12.0000000+00:00</time></trkpt><trkpt lat="39.45932739" lon="-0.37642448"><ele>22.4</ele><time>2022-11-06T13:25:13.0000000+00:00</time></trkpt><trkpt lat="39.45933418" lon="-0.37642499"><ele>22.4</ele><time>2022-11-06T13:25:14.0000000+00:00</time></trkpt><trkpt lat="39.45933762" lon="-0.37641686"><ele>22.4</ele><time>2022-11-06T13:25:15.0000000+00:00</time></trkpt><trkpt lat="39.45934868" lon="-0.37640587"><ele>22.4</ele><time>2022-11-06T13:25:16.0000000+00:00</time></trkpt><trkpt lat="39.45935941" lon="-0.37638903"><ele>22.4</ele><time>2022-11-06T13:25:17.0000000+00:00</time></trkpt><trkpt lat="39.45936511" lon="-0.37637637"><ele>22.4</ele><time>2022-11-06T13:25:18.0000000+00:00</time></trkpt><trkpt lat="39.45936469" lon="-0.3763591"><ele>22.4</ele><time>2022-11-06T13:25:19.0000000+00:00</time></trkpt><trkpt lat="39.45936419" lon="-0.3763519"><ele>22.4</ele><time>2022-11-06T13:25:20.0000000+00:00</time></trkpt><trkpt lat="39.45936319" lon="-0.37634737"><ele>22.4</ele><time>2022-11-06T13:25:21.0000000+00:00</time></trkpt><trkpt lat="39.45936277" lon="-0.37634544"><ele>22.4</ele><time>2022-11-06T13:25:22.0000000+00:00</time></trkpt><trkpt lat="39.45936293" lon="-0.37633253"><ele>22.4</ele><time>2022-11-06T13:25:23.0000000+00:00</time></trkpt><trkpt lat="39.45936469" lon="-0.37631962"><ele>22.4</ele><time>2022-11-06T13:25:24.0000000+00:00</time></trkpt><trkpt lat="39.45934877" lon="-0.37632088"><ele>22.4</ele><time>2022-11-06T13:25:25.0000000+00:00</time></trkpt><trkpt lat="39.45934684" lon="-0.37631862"><ele>22.4</ele><time>2022-11-06T13:25:26.0000000+00:00</time></trkpt><trkpt lat="39.45934366" lon="-0.37630873"><ele>22.4</ele><time>2022-11-06T13:25:27.0000000+00:00</time></trkpt><trkpt lat="39.45934416" lon="-0.37630395"><ele>22.4</ele><time>2022-11-06T13:25:28.0000000+00:00</time></trkpt><trkpt lat="39.45934583" lon="-0.37628727"><ele>22.4</ele><time>2022-11-06T13:25:29.0000000+00:00</time></trkpt><trkpt lat="39.45934718" lon="-0.37627185"><ele>22.4</ele><time>2022-11-06T13:25:30.0000000+00:00</time></trkpt><trkpt lat="39.45934206" lon="-0.37631258"><ele>22.4</ele><time>2022-11-06T13:25:31.0000000+00:00</time></trkpt><trkpt lat="39.45934089" lon="-0.37632348"><ele>22.4</ele><time>2022-11-06T13:25:32.0000000+00:00</time></trkpt><trkpt lat="39.45935103" lon="-0.37631912"><ele>22.4</ele><time>2022-11-06T13:25:33.0000000+00:00</time></trkpt><trkpt lat="39.45936075" lon="-0.37629825"><ele>22.4</ele><time>2022-11-06T13:25:34.0000000+00:00</time></trkpt><trkpt lat="39.45936117" lon="-0.37628677"><ele>22.4</ele><time>2022-11-06T13:25:35.0000000+00:00</time></trkpt><trkpt lat="39.45936243" lon="-0.37627931"><ele>22.4</ele><time>2022-11-06T13:25:36.0000000+00:00</time></trkpt><trkpt lat="39.45936855" lon="-0.37627227"><ele>22.4</ele><time>2022-11-06T13:25:37.0000000+00:00</time></trkpt><trkpt lat="39.4593745" lon="-0.37625969"><ele>22.4</ele><time>2022-11-06T13:25:38.0000000+00:00</time></trkpt><trkpt lat="39.4593802" lon="-0.37625182"><ele>22.4</ele><time>2022-11-06T13:25:39.0000000+00:00</time></trkpt><trkpt lat="39.4593802" lon="-0.37625182"><ele>22.4</ele><time>2022-11-06T13:25:40.0000000+00:00</time></trkpt><trkpt lat="39.4593802" lon="-0.37625182"><ele>22.4</ele><time>2022-11-06T13:25:41.0000000+00:00</time></trkpt><trkpt lat="39.4593802" lon="-0.37625182"><ele>22.4</ele><time>2022-11-06T13:25:42.0000000+00:00</time></trkpt><trkpt lat="39.4593802" lon="-0.37625182"><ele>22.4</ele><time>2022-11-06T13:25:43.0000000+00:00</time></trkpt><trkpt lat="39.4593802" lon="-0.37625182"><ele>22.4</ele><time>2022-11-06T13:25:44.0000000+00:00</time></trkpt><trkpt lat="39.45938204" lon="-0.37624033"><ele>22.4</ele><time>2022-11-06T13:25:45.0000000+00:00</time></trkpt><trkpt lat="39.45939487" lon="-0.37620605"><ele>22.4</ele><time>2022-11-06T13:25:46.0000000+00:00</time></trkpt><trkpt lat="39.45940644" lon="-0.37616875"><ele>22.4</ele><time>2022-11-06T13:25:47.0000000+00:00</time></trkpt><trkpt lat="39.45941859" lon="-0.37613866"><ele>22.6</ele><time>2022-11-06T13:25:48.0000000+00:00</time></trkpt><trkpt lat="39.4594258" lon="-0.37611251"><ele>22.6</ele><time>2022-11-06T13:25:49.0000000+00:00</time></trkpt><trkpt lat="39.45943217" lon="-0.37608393"><ele>22.6</ele><time>2022-11-06T13:25:50.0000000+00:00</time></trkpt><trkpt lat="39.4594398" lon="-0.37605509"><ele>22.6</ele><time>2022-11-06T13:25:51.0000000+00:00</time></trkpt><trkpt lat="39.45944147" lon="-0.37603665"><ele>22.6</ele><time>2022-11-06T13:25:52.0000000+00:00</time></trkpt><trkpt lat="39.45944608" lon="-0.37601603"><ele>22.6</ele><time>2022-11-06T13:25:53.0000000+00:00</time></trkpt><trkpt lat="39.45945446" lon="-0.37599365"><ele>22.6</ele><time>2022-11-06T13:25:54.0000000+00:00</time></trkpt><trkpt lat="39.45945899" lon="-0.37598393"><ele>22.6</ele><time>2022-11-06T13:25:55.0000000+00:00</time></trkpt><trkpt lat="39.45946762" lon="-0.37597471"><ele>22.6</ele><time>2022-11-06T13:25:56.0000000+00:00</time></trkpt><trkpt lat="39.45946964" lon="-0.37596935"><ele>22.6</ele><time>2022-11-06T13:25:57.0000000+00:00</time></trkpt><trkpt lat="39.45946863" lon="-0.37596071"><ele>22.6</ele><time>2022-11-06T13:25:58.0000000+00:00</time></trkpt><trkpt lat="39.45945706" lon="-0.37596499"><ele>22.6</ele><time>2022-11-06T13:25:59.0000000+00:00</time></trkpt><trkpt lat="39.45945832" lon="-0.37596658"><ele>22.6</ele><time>2022-11-06T13:26:00.0000000+00:00</time></trkpt><trkpt lat="39.45946" lon="-0.3759582"><ele>22.6</ele><time>2022-11-06T13:26:01.0000000+00:00</time></trkpt><trkpt lat="39.45945815" lon="-0.37595602"><ele>22.6</ele><time>2022-11-06T13:26:02.0000000+00:00</time></trkpt><trkpt lat="39.45945505" lon="-0.37595602"><ele>22.6</ele><time>2022-11-06T13:26:03.0000000+00:00</time></trkpt><trkpt lat="39.45946117" lon="-0.37595015"><ele>22.6</ele><time>2022-11-06T13:26:04.0000000+00:00</time></trkpt><trkpt lat="39.45946838" lon="-0.37594152"><ele>22.8</ele><time>2022-11-06T13:26:05.0000000+00:00</time></trkpt><trkpt lat="39.45947701" lon="-0.37592978"><ele>22.8</ele><time>2022-11-06T13:26:06.0000000+00:00</time></trkpt><trkpt lat="39.45948095" lon="-0.37590673"><ele>22.8</ele><time>2022-11-06T13:26:07.0000000+00:00</time></trkpt><trkpt lat="39.45949914" lon="-0.37586885"><ele>22.8</ele><time>2022-11-06T13:26:08.0000000+00:00</time></trkpt><trkpt lat="39.45952387" lon="-0.37583876"><ele>22.8</ele><time>2022-11-06T13:26:09.0000000+00:00</time></trkpt><trkpt lat="39.45954851" lon="-0.37580716"><ele>22.8</ele><time>2022-11-06T13:26:10.0000000+00:00</time></trkpt><trkpt lat="39.45956578" lon="-0.37577497"><ele>22.8</ele><time>2022-11-06T13:26:11.0000000+00:00</time></trkpt><trkpt lat="39.45958237" lon="-0.37575133"><ele>22.8</ele><time>2022-11-06T13:26:12.0000000+00:00</time></trkpt><trkpt lat="39.45960123" lon="-0.37572929"><ele>22.8</ele><time>2022-11-06T13:26:13.0000000+00:00</time></trkpt><trkpt lat="39.45961263" lon="-0.37571303"><ele>23.0</ele><time>2022-11-06T13:26:14.0000000+00:00</time></trkpt><trkpt lat="39.45962202" lon="-0.37569149"><ele>23.0</ele><time>2022-11-06T13:26:15.0000000+00:00</time></trkpt><trkpt lat="39.45962914" lon="-0.37566651"><ele>23.0</ele><time>2022-11-06T13:26:16.0000000+00:00</time></trkpt><trkpt lat="39.45963082" lon="-0.37564891"><ele>23.0</ele><time>2022-11-06T13:26:17.0000000+00:00</time></trkpt><trkpt lat="39.45963744" lon="-0.37563046"><ele>23.0</ele><time>2022-11-06T13:26:18.0000000+00:00</time></trkpt><trkpt lat="39.45964322" lon="-0.37561119"><ele>23.0</ele><time>2022-11-06T13:26:19.0000000+00:00</time></trkpt><trkpt lat="39.45964071" lon="-0.37559333"><ele>23.0</ele><time>2022-11-06T13:26:20.0000000+00:00</time></trkpt><trkpt lat="39.4596413" lon="-0.37558956"><ele>23.0</ele><time>2022-11-06T13:26:21.0000000+00:00</time></trkpt><trkpt lat="39.45964566" lon="-0.37558177"><ele>23.0</ele><time>2022-11-06T13:26:22.0000000+00:00</time></trkpt><trkpt lat="39.45965177" lon="-0.37557447"><ele>23.0</ele><time>2022-11-06T13:26:23.0000000+00:00</time></trkpt><trkpt lat="39.45965513" lon="-0.37557288"><ele>23.0</ele><time>2022-11-06T13:26:24.0000000+00:00</time></trkpt><trkpt lat="39.45965647" lon="-0.37557087"><ele>23.0</ele><time>2022-11-06T13:26:25.0000000+00:00</time></trkpt><trkpt lat="39.45966108" lon="-0.37556492"><ele>23.0</ele><time>2022-11-06T13:26:26.0000000+00:00</time></trkpt><trkpt lat="39.45966108" lon="-0.37556131"><ele>23.2</ele><time>2022-11-06T13:26:27.0000000+00:00</time></trkpt><trkpt lat="39.45966636" lon="-0.3755567"><ele>23.2</ele><time>2022-11-06T13:26:28.0000000+00:00</time></trkpt><trkpt lat="39.45966577" lon="-0.37554757"><ele>23.4</ele><time>2022-11-06T13:26:29.0000000+00:00</time></trkpt><trkpt lat="39.45966175" lon="-0.37553994"><ele>23.2</ele><time>2022-11-06T13:26:30.0000000+00:00</time></trkpt><trkpt lat="39.45966234" lon="-0.37553449"><ele>23.4</ele><time>2022-11-06T13:26:31.0000000+00:00</time></trkpt><trkpt lat="39.45965932" lon="-0.37552879"><ele>23.4</ele><time>2022-11-06T13:26:32.0000000+00:00</time></trkpt><trkpt lat="39.45966074" lon="-0.37551806"><ele>23.4</ele><time>2022-11-06T13:26:33.0000000+00:00</time></trkpt><trkpt lat="39.45966183" lon="-0.37551035"><ele>23.4</ele><time>2022-11-06T13:26:34.0000000+00:00</time></trkpt><trkpt lat="39.45966703" lon="-0.37549904"><ele>23.4</ele><time>2022-11-06T13:26:35.0000000+00:00</time></trkpt><trkpt lat="39.45966711" lon="-0.37549149"><ele>23.4</ele><time>2022-11-06T13:26:36.0000000+00:00</time></trkpt><trkpt lat="39.45966845" lon="-0.37548387"><ele>23.4</ele><time>2022-11-06T13:26:37.0000000+00:00</time></trkpt><trkpt lat="39.45967047" lon="-0.37548102"><ele>23.4</ele><time>2022-11-06T13:26:38.0000000+00:00</time></trkpt><trkpt lat="39.45967499" lon="-0.37548051"><ele>23.4</ele><time>2022-11-06T13:26:39.0000000+00:00</time></trkpt><trkpt lat="39.45968513" lon="-0.37546995"><ele>23.4</ele><time>2022-11-06T13:26:40.0000000+00:00</time></trkpt><trkpt lat="39.45969251" lon="-0.37547674"><ele>23.2</ele><time>2022-11-06T13:26:41.0000000+00:00</time></trkpt><trkpt lat="39.45969419" lon="-0.37548068"><ele>23.2</ele><time>2022-11-06T13:26:42.0000000+00:00</time></trkpt><trkpt lat="39.45967348" lon="-0.37547741"><ele>23.2</ele><time>2022-11-06T13:26:43.0000000+00:00</time></trkpt><trkpt lat="39.45966284" lon="-0.37548328"><ele>23.2</ele><time>2022-11-06T13:26:44.0000000+00:00</time></trkpt><trkpt lat="39.45966619" lon="-0.37548521"><ele>23.2</ele><time>2022-11-06T13:26:45.0000000+00:00</time></trkpt><trkpt lat="39.45967005" lon="-0.37549996"><ele>23.2</ele><time>2022-11-06T13:26:46.0000000+00:00</time></trkpt><trkpt lat="39.45967348" lon="-0.37551345"><ele>23.2</ele><time>2022-11-06T13:26:47.0000000+00:00</time></trkpt><trkpt lat="39.45967449" lon="-0.37551806"><ele>23.2</ele><time>2022-11-06T13:26:48.0000000+00:00</time></trkpt><trkpt lat="39.45967181" lon="-0.37552091"><ele>23.2</ele><time>2022-11-06T13:26:49.0000000+00:00</time></trkpt><trkpt lat="39.45966368" lon="-0.37552066"><ele>23.2</ele><time>2022-11-06T13:26:50.0000000+00:00</time></trkpt><trkpt lat="39.45966519" lon="-0.37551463"><ele>23.2</ele><time>2022-11-06T13:26:51.0000000+00:00</time></trkpt><trkpt lat="39.45966527" lon="-0.37551002"><ele>23.2</ele><time>2022-11-06T13:26:52.0000000+00:00</time></trkpt><trkpt lat="39.45968254" lon="-0.37551396"><ele>23.2</ele><time>2022-11-06T13:26:53.0000000+00:00</time></trkpt><trkpt lat="39.45968631" lon="-0.3755184"><ele>23.2</ele><time>2022-11-06T13:26:54.0000000+00:00</time></trkpt><trkpt lat="39.45969863" lon="-0.3755277"><ele>23.2</ele><time>2022-11-06T13:26:55.0000000+00:00</time></trkpt><trkpt lat="39.45970248" lon="-0.37553349"><ele>23.2</ele><time>2022-11-06T13:26:56.0000000+00:00</time></trkpt><trkpt lat="39.45970517" lon="-0.37554002"><ele>23.2</ele><time>2022-11-06T13:26:57.0000000+00:00</time></trkpt><trkpt lat="39.45970886" lon="-0.37554572"><ele>23.2</ele><time>2022-11-06T13:26:58.0000000+00:00</time></trkpt><trkpt lat="39.45970969" lon="-0.37555486"><ele>23.2</ele><time>2022-11-06T13:26:59.0000000+00:00</time></trkpt><trkpt lat="39.45971347" lon="-0.37555913"><ele>23.0</ele><time>2022-11-06T13:27:00.0000000+00:00</time></trkpt><trkpt lat="39.45972143" lon="-0.37555218"><ele>23.0</ele><time>2022-11-06T13:27:01.0000000+00:00</time></trkpt><trkpt lat="39.45973434" lon="-0.37554757"><ele>23.0</ele><time>2022-11-06T13:27:02.0000000+00:00</time></trkpt><trkpt lat="39.45974305" lon="-0.37554321"><ele>23.0</ele><time>2022-11-06T13:27:03.0000000+00:00</time></trkpt><trkpt lat="39.45974733" lon="-0.37553709"><ele>23.0</ele><time>2022-11-06T13:27:04.0000000+00:00</time></trkpt><trkpt lat="39.45975395" lon="-0.37552594"><ele>23.0</ele><time>2022-11-06T13:27:05.0000000+00:00</time></trkpt><trkpt lat="39.45975923" lon="-0.37551547"><ele>23.0</ele><time>2022-11-06T13:27:06.0000000+00:00</time></trkpt><trkpt lat="39.45976384" lon="-0.37550306"><ele>23.0</ele><time>2022-11-06T13:27:07.0000000+00:00</time></trkpt><trkpt lat="39.45977273" lon="-0.37549116"><ele>23.0</ele><time>2022-11-06T13:27:08.0000000+00:00</time></trkpt><trkpt lat="39.45977993" lon="-0.37547884"><ele>23.0</ele><time>2022-11-06T13:27:09.0000000+00:00</time></trkpt><trkpt lat="39.4597879" lon="-0.37546618"><ele>23.2</ele><time>2022-11-06T13:27:10.0000000+00:00</time></trkpt><trkpt lat="39.4597977" lon="-0.37545838"><ele>23.2</ele><time>2022-11-06T13:27:11.0000000+00:00</time></trkpt><trkpt lat="39.45981028" lon="-0.37544925"><ele>23.2</ele><time>2022-11-06T13:27:12.0000000+00:00</time></trkpt><trkpt lat="39.45982142" lon="-0.37544204"><ele>23.2</ele><time>2022-11-06T13:27:13.0000000+00:00</time></trkpt><trkpt lat="39.45983467" lon="-0.37543609"><ele>23.2</ele><time>2022-11-06T13:27:14.0000000+00:00</time></trkpt><trkpt lat="39.4598433" lon="-0.37542637"><ele>23.2</ele><time>2022-11-06T13:27:15.0000000+00:00</time></trkpt><trkpt lat="39.45985202" lon="-0.37541715"><ele>23.2</ele><time>2022-11-06T13:27:16.0000000+00:00</time></trkpt><trkpt lat="39.45986325" lon="-0.3754065"><ele>23.2</ele><time>2022-11-06T13:27:17.0000000+00:00</time></trkpt><trkpt lat="39.45987071" lon="-0.37539862"><ele>23.2</ele><time>2022-11-06T13:27:18.0000000+00:00</time></trkpt><trkpt lat="39.45988932" lon="-0.3753889"><ele>23.2</ele><time>2022-11-06T13:27:19.0000000+00:00</time></trkpt><trkpt lat="39.45989594" lon="-0.37538068"><ele>23.2</ele><time>2022-11-06T13:27:20.0000000+00:00</time></trkpt><trkpt lat="39.45990357" lon="-0.37537289"><ele>23.2</ele><time>2022-11-06T13:27:21.0000000+00:00</time></trkpt><trkpt lat="39.45991773" lon="-0.37535789"><ele>23.2</ele><time>2022-11-06T13:27:22.0000000+00:00</time></trkpt><trkpt lat="39.45993198" lon="-0.3753495"><ele>23.2</ele><time>2022-11-06T13:27:23.0000000+00:00</time></trkpt><trkpt lat="39.45994715" lon="-0.37534263"><ele>23.2</ele><time>2022-11-06T13:27:24.0000000+00:00</time></trkpt><trkpt lat="39.45997079" lon="-0.37534196"><ele>23.4</ele><time>2022-11-06T13:27:25.0000000+00:00</time></trkpt><trkpt lat="39.45999007" lon="-0.37533324"><ele>23.4</ele><time>2022-11-06T13:27:26.0000000+00:00</time></trkpt><trkpt lat="39.45999233" lon="-0.37531598"><ele>23.4</ele><time>2022-11-06T13:27:27.0000000+00:00</time></trkpt><trkpt lat="39.46001069" lon="-0.37529276"><ele>23.4</ele><time>2022-11-06T13:27:28.0000000+00:00</time></trkpt><trkpt lat="39.46001865" lon="-0.37528815"><ele>23.4</ele><time>2022-11-06T13:27:29.0000000+00:00</time></trkpt><trkpt lat="39.46002242" lon="-0.37527951"><ele>23.4</ele><time>2022-11-06T13:27:30.0000000+00:00</time></trkpt><trkpt lat="39.46001697" lon="-0.37527197"><ele>23.4</ele><time>2022-11-06T13:27:31.0000000+00:00</time></trkpt><trkpt lat="39.46002779" lon="-0.37526342"><ele>23.4</ele><time>2022-11-06T13:27:32.0000000+00:00</time></trkpt><trkpt lat="39.46003776" lon="-0.37525672"><ele>23.4</ele><time>2022-11-06T13:27:33.0000000+00:00</time></trkpt><trkpt lat="39.46004698" lon="-0.37524297"><ele>23.4</ele><time>2022-11-06T13:27:34.0000000+00:00</time></trkpt><trkpt lat="39.46005126" lon="-0.37522319"><ele>23.4</ele><time>2022-11-06T13:27:35.0000000+00:00</time></trkpt><trkpt lat="39.46005897" lon="-0.37521045"><ele>23.4</ele><time>2022-11-06T13:27:36.0000000+00:00</time></trkpt><trkpt lat="39.46007137" lon="-0.37519503"><ele>23.4</ele><time>2022-11-06T13:27:37.0000000+00:00</time></trkpt><trkpt lat="39.46007808" lon="-0.37518404"><ele>23.4</ele><time>2022-11-06T13:27:38.0000000+00:00</time></trkpt><trkpt lat="39.46008721" lon="-0.37517089"><ele>23.4</ele><time>2022-11-06T13:27:39.0000000+00:00</time></trkpt><trkpt lat="39.46009023" lon="-0.37516041"><ele>23.4</ele><time>2022-11-06T13:27:40.0000000+00:00</time></trkpt><trkpt lat="39.46009073" lon="-0.3751537"><ele>23.4</ele><time>2022-11-06T13:27:41.0000000+00:00</time></trkpt><trkpt lat="39.46009392" lon="-0.37513535"><ele>23.6</ele><time>2022-11-06T13:27:42.0000000+00:00</time></trkpt><trkpt lat="39.4600956" lon="-0.3751211"><ele>23.6</ele><time>2022-11-06T13:27:43.0000000+00:00</time></trkpt><trkpt lat="39.46009593" lon="-0.37511322"><ele>23.6</ele><time>2022-11-06T13:27:44.0000000+00:00</time></trkpt><trkpt lat="39.46010297" lon="-0.37510224"><ele>23.6</ele><time>2022-11-06T13:27:45.0000000+00:00</time></trkpt><trkpt lat="39.46010842" lon="-0.37509277"><ele>23.6</ele><time>2022-11-06T13:27:46.0000000+00:00</time></trkpt><trkpt lat="39.46011261" lon="-0.37508992"><ele>23.6</ele><time>2022-11-06T13:27:47.0000000+00:00</time></trkpt><trkpt lat="39.46011881" lon="-0.37508095"><ele>23.6</ele><time>2022-11-06T13:27:48.0000000+00:00</time></trkpt><trkpt lat="39.46012016" lon="-0.37507081"><ele>23.8</ele><time>2022-11-06T13:27:49.0000000+00:00</time></trkpt><trkpt lat="39.46012175" lon="-0.37505982"><ele>23.8</ele><time>2022-11-06T13:27:50.0000000+00:00</time></trkpt><trkpt lat="39.46012401" lon="-0.37505052"><ele>23.8</ele><time>2022-11-06T13:27:51.0000000+00:00</time></trkpt><trkpt lat="39.46012594" lon="-0.37504097"><ele>23.8</ele><time>2022-11-06T13:27:52.0000000+00:00</time></trkpt><trkpt lat="39.46013264" lon="-0.37502973"><ele>23.8</ele><time>2022-11-06T13:27:53.0000000+00:00</time></trkpt><trkpt lat="39.46013985" lon="-0.37501766"><ele>23.8</ele><time>2022-11-06T13:27:54.0000000+00:00</time></trkpt><trkpt lat="39.46015025" lon="-0.37500367"><ele>23.8</ele><time>2022-11-06T13:27:55.0000000+00:00</time></trkpt><trkpt lat="39.46015687" lon="-0.37499503"><ele>23.8</ele><time>2022-11-06T13:27:56.0000000+00:00</time></trkpt><trkpt lat="39.46015963" lon="-0.37498405"><ele>23.8</ele><time>2022-11-06T13:27:57.0000000+00:00</time></trkpt><trkpt lat="39.46016299" lon="-0.37497391"><ele>23.8</ele><time>2022-11-06T13:27:58.0000000+00:00</time></trkpt><trkpt lat="39.46016869" lon="-0.37496628"><ele>23.8</ele><time>2022-11-06T13:27:59.0000000+00:00</time></trkpt><trkpt lat="39.46016843" lon="-0.37495581"><ele>23.8</ele><time>2022-11-06T13:28:00.0000000+00:00</time></trkpt><trkpt lat="39.46017698" lon="-0.37493569"><ele>23.8</ele><time>2022-11-06T13:28:01.0000000+00:00</time></trkpt><trkpt lat="39.46018495" lon="-0.37492203"><ele>23.8</ele><time>2022-11-06T13:28:02.0000000+00:00</time></trkpt><trkpt lat="39.46020138" lon="-0.37489219"><ele>23.8</ele><time>2022-11-06T13:28:03.0000000+00:00</time></trkpt><trkpt lat="39.46019643" lon="-0.37488682"><ele>23.8</ele><time>2022-11-06T13:28:04.0000000+00:00</time></trkpt><trkpt lat="39.46019551" lon="-0.37486151"><ele>23.8</ele><time>2022-11-06T13:28:05.0000000+00:00</time></trkpt><trkpt lat="39.46020096" lon="-0.37484835"><ele>23.8</ele><time>2022-11-06T13:28:06.0000000+00:00</time></trkpt><trkpt lat="39.46020674" lon="-0.37483594"><ele>23.8</ele><time>2022-11-06T13:28:07.0000000+00:00</time></trkpt><trkpt lat="39.46021286" lon="-0.37482413"><ele>23.8</ele><time>2022-11-06T13:28:08.0000000+00:00</time></trkpt><trkpt lat="39.46022183" lon="-0.37480803"><ele>23.8</ele><time>2022-11-06T13:28:09.0000000+00:00</time></trkpt><trkpt lat="39.46022954" lon="-0.37480242"><ele>23.8</ele><time>2022-11-06T13:28:10.0000000+00:00</time></trkpt><trkpt lat="39.46023507" lon="-0.37479772"><ele>23.8</ele><time>2022-11-06T13:28:11.0000000+00:00</time></trkpt><trkpt lat="39.4602365" lon="-0.37479336"><ele>23.8</ele><time>2022-11-06T13:28:12.0000000+00:00</time></trkpt><trkpt lat="39.46023733" lon="-0.37478867"><ele>23.8</ele><time>2022-11-06T13:28:13.0000000+00:00</time></trkpt><trkpt lat="39.46023767" lon="-0.37478624"><ele>23.8</ele><time>2022-11-06T13:28:14.0000000+00:00</time></trkpt><trkpt lat="39.460238" lon="-0.37478381"><ele>23.8</ele><time>2022-11-06T13:28:15.0000000+00:00</time></trkpt><trkpt lat="39.46023859" lon="-0.3747818"><ele>23.8</ele><time>2022-11-06T13:28:16.0000000+00:00</time></trkpt><trkpt lat="39.4602479" lon="-0.37477098"><ele>23.8</ele><time>2022-11-06T13:28:17.0000000+00:00</time></trkpt><trkpt lat="39.46025292" lon="-0.37475565"><ele>23.8</ele><time>2022-11-06T13:28:18.0000000+00:00</time></trkpt><trkpt lat="39.46025251" lon="-0.37475162"><ele>23.8</ele><time>2022-11-06T13:28:19.0000000+00:00</time></trkpt><trkpt lat="39.4602515" lon="-0.3747502"><ele>23.8</ele><time>2022-11-06T13:28:20.0000000+00:00</time></trkpt><trkpt lat="39.46025075" lon="-0.3747507"><ele>23.8</ele><time>2022-11-06T13:28:21.0000000+00:00</time></trkpt><trkpt lat="39.46024957" lon="-0.37475179"><ele>23.8</ele><time>2022-11-06T13:28:22.0000000+00:00</time></trkpt><trkpt lat="39.46024966" lon="-0.37475288"><ele>23.8</ele><time>2022-11-06T13:28:23.0000000+00:00</time></trkpt><trkpt lat="39.46025125" lon="-0.37475305"><ele>23.8</ele><time>2022-11-06T13:28:24.0000000+00:00</time></trkpt><trkpt lat="39.4602546" lon="-0.37474567"><ele>23.8</ele><time>2022-11-06T13:28:25.0000000+00:00</time></trkpt><trkpt lat="39.46025997" lon="-0.37473276"><ele>23.8</ele><time>2022-11-06T13:28:26.0000000+00:00</time></trkpt><trkpt lat="39.46026684" lon="-0.37472162"><ele>23.8</ele><time>2022-11-06T13:28:27.0000000+00:00</time></trkpt><trkpt lat="39.46027472" lon="-0.3747072"><ele>24.0</ele><time>2022-11-06T13:28:28.0000000+00:00</time></trkpt><trkpt lat="39.46027396" lon="-0.37469429"><ele>24.0</ele><time>2022-11-06T13:28:29.0000000+00:00</time></trkpt><trkpt lat="39.46027556" lon="-0.37468792"><ele>24.0</ele><time>2022-11-06T13:28:30.0000000+00:00</time></trkpt><trkpt lat="39.46028033" lon="-0.37467853"><ele>24.0</ele><time>2022-11-06T13:28:31.0000000+00:00</time></trkpt><trkpt lat="39.46028578" lon="-0.37467057"><ele>24.0</ele><time>2022-11-06T13:28:32.0000000+00:00</time></trkpt><trkpt lat="39.46029048" lon="-0.37466755"><ele>24.0</ele><time>2022-11-06T13:28:33.0000000+00:00</time></trkpt><trkpt lat="39.46029576" lon="-0.37466303"><ele>24.0</ele><time>2022-11-06T13:28:34.0000000+00:00</time></trkpt><trkpt lat="39.46030439" lon="-0.3746507"><ele>24.0</ele><time>2022-11-06T13:28:35.0000000+00:00</time></trkpt><trkpt lat="39.46031151" lon="-0.37464249"><ele>24.0</ele><time>2022-11-06T13:28:36.0000000+00:00</time></trkpt><trkpt lat="39.46031755" lon="-0.37462623"><ele>24.0</ele><time>2022-11-06T13:28:37.0000000+00:00</time></trkpt><trkpt lat="39.46032484" lon="-0.37461869"><ele>24.0</ele><time>2022-11-06T13:28:38.0000000+00:00</time></trkpt><trkpt lat="39.46033197" lon="-0.3746124"><ele>24.0</ele><time>2022-11-06T13:28:39.0000000+00:00</time></trkpt><trkpt lat="39.46033725" lon="-0.37460393"><ele>24.0</ele><time>2022-11-06T13:28:40.0000000+00:00</time></trkpt><trkpt lat="39.46034278" lon="-0.37459505"><ele>24.0</ele><time>2022-11-06T13:28:41.0000000+00:00</time></trkpt><trkpt lat="39.46034948" lon="-0.37458658"><ele>24.2</ele><time>2022-11-06T13:28:42.0000000+00:00</time></trkpt><trkpt lat="39.46035116" lon="-0.3745725"><ele>24.2</ele><time>2022-11-06T13:28:43.0000000+00:00</time></trkpt><trkpt lat="39.46035007" lon="-0.37455968"><ele>24.2</ele><time>2022-11-06T13:28:44.0000000+00:00</time></trkpt><trkpt lat="39.46035049" lon="-0.37454953"><ele>24.4</ele><time>2022-11-06T13:28:45.0000000+00:00</time></trkpt><trkpt lat="39.460353" lon="-0.37454375"><ele>24.4</ele><time>2022-11-06T13:28:46.0000000+00:00</time></trkpt><trkpt lat="39.46035191" lon="-0.37454442"><ele>24.4</ele><time>2022-11-06T13:28:47.0000000+00:00</time></trkpt><trkpt lat="39.46034823" lon="-0.37453663"><ele>24.6</ele><time>2022-11-06T13:28:48.0000000+00:00</time></trkpt><trkpt lat="39.46034605" lon="-0.37452489"><ele>24.6</ele><time>2022-11-06T13:28:49.0000000+00:00</time></trkpt><trkpt lat="39.4603494" lon="-0.3745145"><ele>24.6</ele><time>2022-11-06T13:28:50.0000000+00:00</time></trkpt><trkpt lat="39.46035175" lon="-0.37451014"><ele>24.6</ele><time>2022-11-06T13:28:51.0000000+00:00</time></trkpt><trkpt lat="39.46035183" lon="-0.37450838"><ele>24.8</ele><time>2022-11-06T13:28:52.0000000+00:00</time></trkpt><trkpt lat="39.46035485" lon="-0.37451106"><ele>24.8</ele><time>2022-11-06T13:28:53.0000000+00:00</time></trkpt><trkpt lat="39.46035074" lon="-0.3745062"><ele>24.8</ele><time>2022-11-06T13:28:54.0000000+00:00</time></trkpt><trkpt lat="39.46035242" lon="-0.37450888"><ele>24.8</ele><time>2022-11-06T13:28:55.0000000+00:00</time></trkpt><trkpt lat="39.46035409" lon="-0.37450997"><ele>24.8</ele><time>2022-11-06T13:28:56.0000000+00:00</time></trkpt><trkpt lat="39.46035435" lon="-0.3745088"><ele>24.6</ele><time>2022-11-06T13:28:57.0000000+00:00</time></trkpt><trkpt lat="39.46035443" lon="-0.3745093"><ele>24.6</ele><time>2022-11-06T13:28:58.0000000+00:00</time></trkpt><trkpt lat="39.46035502" lon="-0.37450687"><ele>24.4</ele><time>2022-11-06T13:28:59.0000000+00:00</time></trkpt><trkpt lat="39.46035678" lon="-0.37450913"><ele>24.4</ele><time>2022-11-06T13:29:00.0000000+00:00</time></trkpt><trkpt lat="39.46036013" lon="-0.37451265"><ele>24.4</ele><time>2022-11-06T13:29:01.0000000+00:00</time></trkpt><trkpt lat="39.46035678" lon="-0.37450964"><ele>24.4</ele><time>2022-11-06T13:29:02.0000000+00:00</time></trkpt><trkpt lat="39.46035435" lon="-0.37450712"><ele>24.4</ele><time>2022-11-06T13:29:03.0000000+00:00</time></trkpt><trkpt lat="39.46035116" lon="-0.37450586"><ele>24.2</ele><time>2022-11-06T13:29:04.0000000+00:00</time></trkpt><trkpt lat="39.4603494" lon="-0.37450553"><ele>24.2</ele><time>2022-11-06T13:29:05.0000000+00:00</time></trkpt><trkpt lat="39.46035401" lon="-0.37449664"><ele>24.2</ele><time>2022-11-06T13:29:06.0000000+00:00</time></trkpt><trkpt lat="39.46035812" lon="-0.37448684"><ele>24.2</ele><time>2022-11-06T13:29:07.0000000+00:00</time></trkpt><trkpt lat="39.46036373" lon="-0.37447703"><ele>24.2</ele><time>2022-11-06T13:29:08.0000000+00:00</time></trkpt><trkpt lat="39.46037295" lon="-0.37446865"><ele>24.2</ele><time>2022-11-06T13:29:09.0000000+00:00</time></trkpt><trkpt lat="39.46037974" lon="-0.37446178"><ele>24.2</ele><time>2022-11-06T13:29:10.0000000+00:00</time></trkpt><trkpt lat="39.46038863" lon="-0.37445113"><ele>24.2</ele><time>2022-11-06T13:29:11.0000000+00:00</time></trkpt><trkpt lat="39.46039458" lon="-0.37444677"><ele>24.4</ele><time>2022-11-06T13:29:12.0000000+00:00</time></trkpt><trkpt lat="39.46039676" lon="-0.37444593"><ele>24.4</ele><time>2022-11-06T13:29:13.0000000+00:00</time></trkpt><trkpt lat="39.46039994" lon="-0.37444409"><ele>24.4</ele><time>2022-11-06T13:29:14.0000000+00:00</time></trkpt><trkpt lat="39.4604007" lon="-0.37444837"><ele>24.4</ele><time>2022-11-06T13:29:15.0000000+00:00</time></trkpt><trkpt lat="39.46039776" lon="-0.37445088"><ele>24.4</ele><time>2022-11-06T13:29:16.0000000+00:00</time></trkpt><trkpt lat="39.46039433" lon="-0.37444744"><ele>24.4</ele><time>2022-11-06T13:29:17.0000000+00:00</time></trkpt><trkpt lat="39.46039223" lon="-0.37444417"><ele>24.4</ele><time>2022-11-06T13:29:18.0000000+00:00</time></trkpt><trkpt lat="39.46039206" lon="-0.37443982"><ele>24.2</ele><time>2022-11-06T13:29:19.0000000+00:00</time></trkpt><trkpt lat="39.46039047" lon="-0.37443873"><ele>24.2</ele><time>2022-11-06T13:29:20.0000000+00:00</time></trkpt><trkpt lat="39.46038947" lon="-0.37443864"><ele>24.2</ele><time>2022-11-06T13:29:21.0000000+00:00</time></trkpt><trkpt lat="39.46038888" lon="-0.37443755"><ele>24.2</ele><time>2022-11-06T13:29:22.0000000+00:00</time></trkpt><trkpt lat="39.46038804" lon="-0.3744363"><ele>24.2</ele><time>2022-11-06T13:29:23.0000000+00:00</time></trkpt><trkpt lat="39.46038804" lon="-0.37443495"><ele>24.4</ele><time>2022-11-06T13:29:24.0000000+00:00</time></trkpt><trkpt lat="39.46038804" lon="-0.37443495"><ele>24.4</ele><time>2022-11-06T13:29:25.0000000+00:00</time></trkpt><trkpt lat="39.46038804" lon="-0.37443495"><ele>24.4</ele><time>2022-11-06T13:29:26.0000000+00:00</time></trkpt><trkpt lat="39.46038804" lon="-0.37443495"><ele>24.4</ele><time>2022-11-06T13:29:27.0000000+00:00</time></trkpt><trkpt lat="39.46038804" lon="-0.37443495"><ele>24.4</ele><time>2022-11-06T13:29:28.0000000+00:00</time></trkpt><trkpt lat="39.46038804" lon="-0.37443495"><ele>24.4</ele><time>2022-11-06T13:29:29.0000000+00:00</time></trkpt><trkpt lat="39.46038804" lon="-0.37443495"><ele>24.4</ele><time>2022-11-06T13:29:30.0000000+00:00</time></trkpt><trkpt lat="39.46038804" lon="-0.37443495"><ele>24.4</ele><time>2022-11-06T13:29:31.0000000+00:00</time></trkpt><trkpt lat="39.46038804" lon="-0.37443495"><ele>24.4</ele><time>2022-11-06T13:29:32.0000000+00:00</time></trkpt><trkpt lat="39.46038804" lon="-0.37443495"><ele>24.4</ele><time>2022-11-06T13:29:33.0000000+00:00</time></trkpt><trkpt lat="39.46038804" lon="-0.37443495"><ele>24.2</ele><time>2022-11-06T13:29:34.0000000+00:00</time></trkpt><trkpt lat="39.46038804" lon="-0.37443495"><ele>24.2</ele><time>2022-11-06T13:29:35.0000000+00:00</time></trkpt><trkpt lat="39.46038804" lon="-0.37443495"><ele>24.2</ele><time>2022-11-06T13:29:36.0000000+00:00</time></trkpt><trkpt lat="39.46038804" lon="-0.37443495"><ele>24.2</ele><time>2022-11-06T13:29:37.0000000+00:00</time></trkpt><trkpt lat="39.46038804" lon="-0.37443495"><ele>24.2</ele><time>2022-11-06T13:29:38.0000000+00:00</time></trkpt><trkpt lat="39.46038804" lon="-0.37443495"><ele>24.2</ele><time>2022-11-06T13:29:39.0000000+00:00</time></trkpt><trkpt lat="39.46038804" lon="-0.37443495"><ele>24.2</ele><time>2022-11-06T13:29:40.0000000+00:00</time></trkpt><trkpt lat="39.46038226" lon="-0.37442783"><ele>24.2</ele><time>2022-11-06T13:29:41.0000000+00:00</time></trkpt><trkpt lat="39.46036868" lon="-0.37441802"><ele>24.2</ele><time>2022-11-06T13:29:42.0000000+00:00</time></trkpt><trkpt lat="39.46036264" lon="-0.37441224"><ele>24.4</ele><time>2022-11-06T13:29:43.0000000+00:00</time></trkpt><trkpt lat="39.46035837" lon="-0.37440428"><ele>24.4</ele><time>2022-11-06T13:29:44.0000000+00:00</time></trkpt><trkpt lat="39.46035401" lon="-0.37438877"><ele>24.4</ele><time>2022-11-06T13:29:45.0000000+00:00</time></trkpt><trkpt lat="39.46034957" lon="-0.3743829"><ele>24.4</ele><time>2022-11-06T13:29:46.0000000+00:00</time></trkpt><trkpt lat="39.46034613" lon="-0.37437704"><ele>24.4</ele><time>2022-11-06T13:29:47.0000000+00:00</time></trkpt><trkpt lat="39.46033926" lon="-0.37437804"><ele>24.6</ele><time>2022-11-06T13:29:48.0000000+00:00</time></trkpt><trkpt lat="39.4603344" lon="-0.37437645"><ele>24.6</ele><time>2022-11-06T13:29:49.0000000+00:00</time></trkpt><trkpt lat="39.46032853" lon="-0.37437301"><ele>24.6</ele><time>2022-11-06T13:29:50.0000000+00:00</time></trkpt><trkpt lat="39.46033046" lon="-0.37436681"><ele>24.6</ele><time>2022-11-06T13:29:51.0000000+00:00</time></trkpt><trkpt lat="39.46032652" lon="-0.37435885"><ele>24.4</ele><time>2022-11-06T13:29:52.0000000+00:00</time></trkpt><trkpt lat="39.46032593" lon="-0.37435667"><ele>24.4</ele><time>2022-11-06T13:29:53.0000000+00:00</time></trkpt><trkpt lat="39.46032677" lon="-0.37433982"><ele>24.4</ele><time>2022-11-06T13:29:54.0000000+00:00</time></trkpt><trkpt lat="39.46032652" lon="-0.3743171"><ele>24.4</ele><time>2022-11-06T13:29:55.0000000+00:00</time></trkpt><trkpt lat="39.46032702" lon="-0.37431476"><ele>24.4</ele><time>2022-11-06T13:29:56.0000000+00:00</time></trkpt><trkpt lat="39.46033004" lon="-0.37431333"><ele>24.4</ele><time>2022-11-06T13:29:57.0000000+00:00</time></trkpt><trkpt lat="39.46033171" lon="-0.37431375"><ele>24.4</ele><time>2022-11-06T13:29:58.0000000+00:00</time></trkpt><trkpt lat="39.46033565" lon="-0.37430319"><ele>24.4</ele><time>2022-11-06T13:29:59.0000000+00:00</time></trkpt><trkpt lat="39.46034362" lon="-0.37430428"><ele>24.4</ele><time>2022-11-06T13:30:00.0000000+00:00</time></trkpt><trkpt lat="39.46034513" lon="-0.37430747"><ele>24.2</ele><time>2022-11-06T13:30:01.0000000+00:00</time></trkpt><trkpt lat="39.46034873" lon="-0.37430713"><ele>24.2</ele><time>2022-11-06T13:30:02.0000000+00:00</time></trkpt><trkpt lat="39.46035015" lon="-0.37430344"><ele>24.2</ele><time>2022-11-06T13:30:03.0000000+00:00</time></trkpt><trkpt lat="39.46035041" lon="-0.37430453"><ele>24.2</ele><time>2022-11-06T13:30:04.0000000+00:00</time></trkpt><trkpt lat="39.46035091" lon="-0.37430118"><ele>24.2</ele><time>2022-11-06T13:30:05.0000000+00:00</time></trkpt><trkpt lat="39.46034974" lon="-0.37429347"><ele>24.2</ele><time>2022-11-06T13:30:06.0000000+00:00</time></trkpt><trkpt lat="39.46035083" lon="-0.37428835"><ele>24.0</ele><time>2022-11-06T13:30:07.0000000+00:00</time></trkpt><trkpt lat="39.46035275" lon="-0.37428718"><ele>24.0</ele><time>2022-11-06T13:30:08.0000000+00:00</time></trkpt><trkpt lat="39.46034253" lon="-0.37429556"><ele>24.0</ele><time>2022-11-06T13:30:09.0000000+00:00</time></trkpt><trkpt lat="39.46032811" lon="-0.3743026"><ele>23.8</ele><time>2022-11-06T13:30:10.0000000+00:00</time></trkpt><trkpt lat="39.46032333" lon="-0.37430671"><ele>23.8</ele><time>2022-11-06T13:30:11.0000000+00:00</time></trkpt><trkpt lat="39.4603271" lon="-0.37429615"><ele>23.8</ele><time>2022-11-06T13:30:12.0000000+00:00</time></trkpt><trkpt lat="39.46032727" lon="-0.37429053"><ele>23.8</ele><time>2022-11-06T13:30:13.0000000+00:00</time></trkpt><trkpt lat="39.4603235" lon="-0.37428861"><ele>23.8</ele><time>2022-11-06T13:30:14.0000000+00:00</time></trkpt><trkpt lat="39.46032828" lon="-0.3742793"><ele>23.8</ele><time>2022-11-06T13:30:15.0000000+00:00</time></trkpt><trkpt lat="39.4603297" lon="-0.37427888"><ele>23.8</ele><time>2022-11-06T13:30:16.0000000+00:00</time></trkpt><trkpt lat="39.46033029" lon="-0.37427796"><ele>23.8</ele><time>2022-11-06T13:30:17.0000000+00:00</time></trkpt><trkpt lat="39.46033029" lon="-0.37427587"><ele>23.8</ele><time>2022-11-06T13:30:18.0000000+00:00</time></trkpt><trkpt lat="39.46033004" lon="-0.37427511"><ele>23.6</ele><time>2022-11-06T13:30:19.0000000+00:00</time></trkpt><trkpt lat="39.46033004" lon="-0.37427511"><ele>23.6</ele><time>2022-11-06T13:30:20.0000000+00:00</time></trkpt><trkpt lat="39.46033004" lon="-0.37427511"><ele>23.6</ele><time>2022-11-06T13:30:21.0000000+00:00</time></trkpt><trkpt lat="39.46033004" lon="-0.37427511"><ele>23.6</ele><time>2022-11-06T13:30:22.0000000+00:00</time></trkpt><trkpt lat="39.46033004" lon="-0.37427511"><ele>23.6</ele><time>2022-11-06T13:30:23.0000000+00:00</time></trkpt><trkpt lat="39.46033004" lon="-0.37427511"><ele>23.6</ele><time>2022-11-06T13:30:24.0000000+00:00</time></trkpt><trkpt lat="39.46033004" lon="-0.37427511"><ele>23.6</ele><time>2022-11-06T13:30:25.0000000+00:00</time></trkpt><trkpt lat="39.46033004" lon="-0.37427511"><ele>23.6</ele><time>2022-11-06T13:30:26.0000000+00:00</time></trkpt><trkpt lat="39.46033004" lon="-0.37427511"><ele>23.6</ele><time>2022-11-06T13:30:27.0000000+00:00</time></trkpt><trkpt lat="39.46033004" lon="-0.37427511"><ele>23.6</ele><time>2022-11-06T13:30:28.0000000+00:00</time></trkpt><trkpt lat="39.46032995" lon="-0.37427511"><ele>23.6</ele><time>2022-11-06T13:30:29.0000000+00:00</time></trkpt><trkpt lat="39.46032979" lon="-0.37427511"><ele>23.6</ele><time>2022-11-06T13:30:30.0000000+00:00</time></trkpt><trkpt lat="39.46032903" lon="-0.37427561"><ele>23.6</ele><time>2022-11-06T13:30:31.0000000+00:00</time></trkpt><trkpt lat="39.46032836" lon="-0.37427587"><ele>23.6</ele><time>2022-11-06T13:30:32.0000000+00:00</time></trkpt><trkpt lat="39.46032794" lon="-0.37427788"><ele>23.6</ele><time>2022-11-06T13:30:33.0000000+00:00</time></trkpt><trkpt lat="39.46032794" lon="-0.3742788"><ele>23.6</ele><time>2022-11-06T13:30:34.0000000+00:00</time></trkpt><trkpt lat="39.46032736" lon="-0.3742793"><ele>23.6</ele><time>2022-11-06T13:30:35.0000000+00:00</time></trkpt><trkpt lat="39.4603271" lon="-0.37427939"><ele>23.6</ele><time>2022-11-06T13:30:36.0000000+00:00</time></trkpt><trkpt lat="39.46032635" lon="-0.37428207"><ele>23.6</ele><time>2022-11-06T13:30:37.0000000+00:00</time></trkpt><trkpt lat="39.46032375" lon="-0.37428576"><ele>23.6</ele><time>2022-11-06T13:30:38.0000000+00:00</time></trkpt><trkpt lat="39.46032342" lon="-0.37428835"><ele>23.6</ele><time>2022-11-06T13:30:39.0000000+00:00</time></trkpt><trkpt lat="39.46032166" lon="-0.37429028"><ele>23.6</ele><time>2022-11-06T13:30:40.0000000+00:00</time></trkpt><trkpt lat="39.4603199" lon="-0.37429053"><ele>23.6</ele><time>2022-11-06T13:30:41.0000000+00:00</time></trkpt><trkpt lat="39.46031973" lon="-0.37429053"><ele>23.6</ele><time>2022-11-06T13:30:42.0000000+00:00</time></trkpt><trkpt lat="39.46031948" lon="-0.37429053"><ele>23.6</ele><time>2022-11-06T13:30:43.0000000+00:00</time></trkpt><trkpt lat="39.46031923" lon="-0.37429204"><ele>23.6</ele><time>2022-11-06T13:30:44.0000000+00:00</time></trkpt><trkpt lat="39.4603142" lon="-0.37429288"><ele>23.6</ele><time>2022-11-06T13:30:45.0000000+00:00</time></trkpt><trkpt lat="39.46031302" lon="-0.37429422"><ele>23.6</ele><time>2022-11-06T13:30:46.0000000+00:00</time></trkpt><trkpt lat="39.46031109" lon="-0.37429774"><ele>23.6</ele><time>2022-11-06T13:30:47.0000000+00:00</time></trkpt><trkpt lat="39.46031042" lon="-0.37429816"><ele>23.6</ele><time>2022-11-06T13:30:48.0000000+00:00</time></trkpt><trkpt lat="39.46030933" lon="-0.37429825"><ele>23.6</ele><time>2022-11-06T13:30:49.0000000+00:00</time></trkpt><trkpt lat="39.46030866" lon="-0.37429825"><ele>23.6</ele><time>2022-11-06T13:30:50.0000000+00:00</time></trkpt><trkpt lat="39.46030741" lon="-0.37429825"><ele>23.6</ele><time>2022-11-06T13:30:51.0000000+00:00</time></trkpt><trkpt lat="39.46030548" lon="-0.37429825"><ele>23.6</ele><time>2022-11-06T13:30:52.0000000+00:00</time></trkpt><trkpt lat="39.46030322" lon="-0.37429825"><ele>23.6</ele><time>2022-11-06T13:30:53.0000000+00:00</time></trkpt><trkpt lat="39.46030162" lon="-0.37429825"><ele>23.4</ele><time>2022-11-06T13:30:54.0000000+00:00</time></trkpt><trkpt lat="39.46030129" lon="-0.37429825"><ele>23.4</ele><time>2022-11-06T13:30:55.0000000+00:00</time></trkpt><trkpt lat="39.46030112" lon="-0.37429825"><ele>23.4</ele><time>2022-11-06T13:30:56.0000000+00:00</time></trkpt><trkpt lat="39.46030095" lon="-0.37429825"><ele>23.4</ele><time>2022-11-06T13:30:57.0000000+00:00</time></trkpt><trkpt lat="39.46030087" lon="-0.37429825"><ele>23.4</ele><time>2022-11-06T13:30:58.0000000+00:00</time></trkpt><trkpt lat="39.4603007" lon="-0.37429892"><ele>23.4</ele><time>2022-11-06T13:30:59.0000000+00:00</time></trkpt><trkpt lat="39.46030045" lon="-0.37429933"><ele>23.4</ele><time>2022-11-06T13:31:00.0000000+00:00</time></trkpt><trkpt lat="39.46030045" lon="-0.37430076"><ele>23.4</ele><time>2022-11-06T13:31:01.0000000+00:00</time></trkpt><trkpt lat="39.4603002" lon="-0.37430126"><ele>23.6</ele><time>2022-11-06T13:31:02.0000000+00:00</time></trkpt><trkpt lat="39.46030003" lon="-0.37430135"><ele>23.6</ele><time>2022-11-06T13:31:03.0000000+00:00</time></trkpt><trkpt lat="39.46029995" lon="-0.37430135"><ele>23.6</ele><time>2022-11-06T13:31:04.0000000+00:00</time></trkpt><trkpt lat="39.46029995" lon="-0.37430135"><ele>23.6</ele><time>2022-11-06T13:31:05.0000000+00:00</time></trkpt><trkpt lat="39.46029978" lon="-0.37430135"><ele>23.6</ele><time>2022-11-06T13:31:06.0000000+00:00</time></trkpt><trkpt lat="39.46029911" lon="-0.37430135"><ele>23.6</ele><time>2022-11-06T13:31:07.0000000+00:00</time></trkpt><trkpt lat="39.4602981" lon="-0.37430135"><ele>23.6</ele><time>2022-11-06T13:31:08.0000000+00:00</time></trkpt><trkpt lat="39.46029685" lon="-0.37430135"><ele>23.6</ele><time>2022-11-06T13:31:09.0000000+00:00</time></trkpt><trkpt lat="39.46029509" lon="-0.37430135"><ele>23.6</ele><time>2022-11-06T13:31:10.0000000+00:00</time></trkpt><trkpt lat="39.460294" lon="-0.37430135"><ele>23.6</ele><time>2022-11-06T13:31:11.0000000+00:00</time></trkpt><trkpt lat="39.46029333" lon="-0.37430135"><ele>23.6</ele><time>2022-11-06T13:31:12.0000000+00:00</time></trkpt><trkpt lat="39.46029307" lon="-0.37430135"><ele>23.6</ele><time>2022-11-06T13:31:13.0000000+00:00</time></trkpt><trkpt lat="39.46029282" lon="-0.37430101"><ele>23.6</ele><time>2022-11-06T13:31:14.0000000+00:00</time></trkpt><trkpt lat="39.46029249" lon="-0.37430126"><ele>23.6</ele><time>2022-11-06T13:31:15.0000000+00:00</time></trkpt><trkpt lat="39.46029232" lon="-0.37430126"><ele>23.6</ele><time>2022-11-06T13:31:16.0000000+00:00</time></trkpt><trkpt lat="39.46029198" lon="-0.37430135"><ele>23.6</ele><time>2022-11-06T13:31:17.0000000+00:00</time></trkpt><trkpt lat="39.4602914" lon="-0.37430244"><ele>23.6</ele><time>2022-11-06T13:31:18.0000000+00:00</time></trkpt><trkpt lat="39.46029123" lon="-0.37430277"><ele>23.6</ele><time>2022-11-06T13:31:19.0000000+00:00</time></trkpt><trkpt lat="39.46028989" lon="-0.37430286"><ele>23.6</ele><time>2022-11-06T13:31:20.0000000+00:00</time></trkpt><trkpt lat="39.46028939" lon="-0.37430311"><ele>23.6</ele><time>2022-11-06T13:31:21.0000000+00:00</time></trkpt><trkpt lat="39.46028813" lon="-0.37430336"><ele>23.6</ele><time>2022-11-06T13:31:22.0000000+00:00</time></trkpt><trkpt lat="39.46028737" lon="-0.37430353"><ele>23.6</ele><time>2022-11-06T13:31:23.0000000+00:00</time></trkpt><trkpt lat="39.46028687" lon="-0.37430403"><ele>23.6</ele><time>2022-11-06T13:31:24.0000000+00:00</time></trkpt><trkpt lat="39.46028637" lon="-0.37430436"><ele>23.6</ele><time>2022-11-06T13:31:25.0000000+00:00</time></trkpt><trkpt lat="39.4602857" lon="-0.37430487"><ele>23.6</ele><time>2022-11-06T13:31:26.0000000+00:00</time></trkpt><trkpt lat="39.46028545" lon="-0.37430512"><ele>23.6</ele><time>2022-11-06T13:31:27.0000000+00:00</time></trkpt><trkpt lat="39.46028486" lon="-0.37430529"><ele>23.6</ele><time>2022-11-06T13:31:28.0000000+00:00</time></trkpt><trkpt lat="39.46028352" lon="-0.37430537"><ele>23.6</ele><time>2022-11-06T13:31:29.0000000+00:00</time></trkpt><trkpt lat="39.46028293" lon="-0.37430545"><ele>23.6</ele><time>2022-11-06T13:31:30.0000000+00:00</time></trkpt><trkpt lat="39.46028251" lon="-0.37430545"><ele>23.6</ele><time>2022-11-06T13:31:31.0000000+00:00</time></trkpt><trkpt lat="39.46028218" lon="-0.37430537"><ele>23.6</ele><time>2022-11-06T13:31:32.0000000+00:00</time></trkpt><trkpt lat="39.46028184" lon="-0.3743052"><ele>23.6</ele><time>2022-11-06T13:31:33.0000000+00:00</time></trkpt><trkpt lat="39.46028109" lon="-0.37430462"><ele>23.6</ele><time>2022-11-06T13:31:34.0000000+00:00</time></trkpt><trkpt lat="39.46028075" lon="-0.37430394"><ele>23.6</ele><time>2022-11-06T13:31:35.0000000+00:00</time></trkpt><trkpt lat="39.46028067" lon="-0.37430369"><ele>23.6</ele><time>2022-11-06T13:31:36.0000000+00:00</time></trkpt><trkpt lat="39.46028067" lon="-0.37430336"><ele>23.6</ele><time>2022-11-06T13:31:37.0000000+00:00</time></trkpt><trkpt lat="39.46028519" lon="-0.3743011"><ele>23.6</ele><time>2022-11-06T13:31:38.0000000+00:00</time></trkpt><trkpt lat="39.46029953" lon="-0.37429699"><ele>23.6</ele><time>2022-11-06T13:31:39.0000000+00:00</time></trkpt><trkpt lat="39.46031076" lon="-0.37429271"><ele>23.6</ele><time>2022-11-06T13:31:40.0000000+00:00</time></trkpt><trkpt lat="39.46032308" lon="-0.37428483"><ele>23.6</ele><time>2022-11-06T13:31:41.0000000+00:00</time></trkpt><trkpt lat="39.46033549" lon="-0.37427628"><ele>23.6</ele><time>2022-11-06T13:31:42.0000000+00:00</time></trkpt><trkpt lat="39.4603437" lon="-0.37426279"><ele>23.6</ele><time>2022-11-06T13:31:43.0000000+00:00</time></trkpt><trkpt lat="39.46034739" lon="-0.37425323"><ele>23.6</ele><time>2022-11-06T13:31:44.0000000+00:00</time></trkpt><trkpt lat="39.46035468" lon="-0.37424301"><ele>23.6</ele><time>2022-11-06T13:31:45.0000000+00:00</time></trkpt><trkpt lat="39.46035912" lon="-0.37423312"><ele>23.6</ele><time>2022-11-06T13:31:46.0000000+00:00</time></trkpt><trkpt lat="39.46037237" lon="-0.37422474"><ele>23.6</ele><time>2022-11-06T13:31:47.0000000+00:00</time></trkpt><trkpt lat="39.46037396" lon="-0.37421795"><ele>23.6</ele><time>2022-11-06T13:31:48.0000000+00:00</time></trkpt><trkpt lat="39.46037555" lon="-0.374213"><ele>23.6</ele><time>2022-11-06T13:31:49.0000000+00:00</time></trkpt><trkpt lat="39.46038226" lon="-0.37421082"><ele>23.6</ele><time>2022-11-06T13:31:50.0000000+00:00</time></trkpt><trkpt lat="39.46039114" lon="-0.37420688"><ele>24.2</ele><time>2022-11-06T13:31:51.0000000+00:00</time></trkpt><trkpt lat="39.46040137" lon="-0.37420244"><ele>24.4</ele><time>2022-11-06T13:31:52.0000000+00:00</time></trkpt><trkpt lat="39.46041092" lon="-0.37419397"><ele>24.6</ele><time>2022-11-06T13:31:53.0000000+00:00</time></trkpt><trkpt lat="39.46041562" lon="-0.37419096"><ele>24.8</ele><time>2022-11-06T13:31:54.0000000+00:00</time></trkpt><trkpt lat="39.46042157" lon="-0.37418718"><ele>24.8</ele><time>2022-11-06T13:31:55.0000000+00:00</time></trkpt><trkpt lat="39.46043154" lon="-0.37418685"><ele>24.8</ele><time>2022-11-06T13:31:56.0000000+00:00</time></trkpt><trkpt lat="39.46043573" lon="-0.37418643"><ele>24.8</ele><time>2022-11-06T13:31:57.0000000+00:00</time></trkpt><trkpt lat="39.46044328" lon="-0.3741923"><ele>24.8</ele><time>2022-11-06T13:31:58.0000000+00:00</time></trkpt><trkpt lat="39.46044336" lon="-0.37419146"><ele>24.8</ele><time>2022-11-06T13:31:59.0000000+00:00</time></trkpt><trkpt lat="39.4604421" lon="-0.37419205"><ele>24.8</ele><time>2022-11-06T13:32:00.0000000+00:00</time></trkpt><trkpt lat="39.4604421" lon="-0.37419406"><ele>24.8</ele><time>2022-11-06T13:32:01.0000000+00:00</time></trkpt><trkpt lat="39.46044688" lon="-0.37419523"><ele>25.0</ele><time>2022-11-06T13:32:02.0000000+00:00</time></trkpt><trkpt lat="39.46044931" lon="-0.37419473"><ele>25.0</ele><time>2022-11-06T13:32:03.0000000+00:00</time></trkpt><trkpt lat="39.46044185" lon="-0.3742073"><ele>25.0</ele><time>2022-11-06T13:32:04.0000000+00:00</time></trkpt><trkpt lat="39.46043951" lon="-0.37420839"><ele>25.0</ele><time>2022-11-06T13:32:05.0000000+00:00</time></trkpt><trkpt lat="39.46041185" lon="-0.37422457"><ele>25.0</ele><time>2022-11-06T13:32:06.0000000+00:00</time></trkpt><trkpt lat="39.46040866" lon="-0.3742265"><ele>25.0</ele><time>2022-11-06T13:32:07.0000000+00:00</time></trkpt><trkpt lat="39.4604043" lon="-0.37422826"><ele>25.0</ele><time>2022-11-06T13:32:08.0000000+00:00</time></trkpt><trkpt lat="39.46041109" lon="-0.37422574"><ele>25.0</ele><time>2022-11-06T13:32:09.0000000+00:00</time></trkpt><trkpt lat="39.46041168" lon="-0.3742244"><ele>25.0</ele><time>2022-11-06T13:32:10.0000000+00:00</time></trkpt><trkpt lat="39.46041327" lon="-0.37422432"><ele>25.0</ele><time>2022-11-06T13:32:11.0000000+00:00</time></trkpt><trkpt lat="39.46041587" lon="-0.37422105"><ele>25.0</ele><time>2022-11-06T13:32:12.0000000+00:00</time></trkpt><trkpt lat="39.46042023" lon="-0.37421577"><ele>25.0</ele><time>2022-11-06T13:32:13.0000000+00:00</time></trkpt><trkpt lat="39.46042785" lon="-0.37420889"><ele>25.0</ele><time>2022-11-06T13:32:14.0000000+00:00</time></trkpt><trkpt lat="39.46043615" lon="-0.37419733"><ele>24.8</ele><time>2022-11-06T13:32:15.0000000+00:00</time></trkpt><trkpt lat="39.46044219" lon="-0.37418626"><ele>24.8</ele><time>2022-11-06T13:32:16.0000000+00:00</time></trkpt><trkpt lat="39.46045141" lon="-0.37417394"><ele>24.8</ele><time>2022-11-06T13:32:17.0000000+00:00</time></trkpt><trkpt lat="39.46046557" lon="-0.37415885"><ele>24.8</ele><time>2022-11-06T13:32:18.0000000+00:00</time></trkpt><trkpt lat="39.4604784" lon="-0.37414729"><ele>24.8</ele><time>2022-11-06T13:32:19.0000000+00:00</time></trkpt><trkpt lat="39.46049332" lon="-0.37413119"><ele>24.8</ele><time>2022-11-06T13:32:20.0000000+00:00</time></trkpt><trkpt lat="39.46050002" lon="-0.37411954"><ele>24.8</ele><time>2022-11-06T13:32:21.0000000+00:00</time></trkpt><trkpt lat="39.46051042" lon="-0.37410806"><ele>24.8</ele><time>2022-11-06T13:32:22.0000000+00:00</time></trkpt><trkpt lat="39.46051695" lon="-0.37409674"><ele>24.8</ele><time>2022-11-06T13:32:23.0000000+00:00</time></trkpt><trkpt lat="39.46052601" lon="-0.37408367"><ele>24.8</ele><time>2022-11-06T13:32:24.0000000+00:00</time></trkpt><trkpt lat="39.46053523" lon="-0.37406975"><ele>24.8</ele><time>2022-11-06T13:32:25.0000000+00:00</time></trkpt><trkpt lat="39.46054445" lon="-0.37406154"><ele>24.8</ele><time>2022-11-06T13:32:26.0000000+00:00</time></trkpt><trkpt lat="39.46055526" lon="-0.37405551"><ele>24.6</ele><time>2022-11-06T13:32:27.0000000+00:00</time></trkpt><trkpt lat="39.46055945" lon="-0.37404981"><ele>24.6</ele><time>2022-11-06T13:32:28.0000000+00:00</time></trkpt><trkpt lat="39.46056096" lon="-0.37403757"><ele>24.6</ele><time>2022-11-06T13:32:29.0000000+00:00</time></trkpt><trkpt lat="39.46056079" lon="-0.37402533"><ele>24.6</ele><time>2022-11-06T13:32:30.0000000+00:00</time></trkpt><trkpt lat="39.46056465" lon="-0.37401502"><ele>24.6</ele><time>2022-11-06T13:32:31.0000000+00:00</time></trkpt><trkpt lat="39.46056783" lon="-0.37400329"><ele>24.6</ele><time>2022-11-06T13:32:32.0000000+00:00</time></trkpt><trkpt lat="39.4605706" lon="-0.37399197"><ele>24.6</ele><time>2022-11-06T13:32:33.0000000+00:00</time></trkpt><trkpt lat="39.4605701" lon="-0.3739856"><ele>24.6</ele><time>2022-11-06T13:32:34.0000000+00:00</time></trkpt><trkpt lat="39.46056641" lon="-0.37397479"><ele>24.6</ele><time>2022-11-06T13:32:35.0000000+00:00</time></trkpt><trkpt lat="39.46057244" lon="-0.37395895"><ele>24.6</ele><time>2022-11-06T13:32:36.0000000+00:00</time></trkpt><trkpt lat="39.46057445" lon="-0.37395928"><ele>24.6</ele><time>2022-11-06T13:32:37.0000000+00:00</time></trkpt><trkpt lat="39.4605737" lon="-0.37395543"><ele>24.6</ele><time>2022-11-06T13:32:38.0000000+00:00</time></trkpt><trkpt lat="39.46057563" lon="-0.37395316"><ele>24.6</ele><time>2022-11-06T13:32:39.0000000+00:00</time></trkpt><trkpt lat="39.46057571" lon="-0.37395073"><ele>24.6</ele><time>2022-11-06T13:32:40.0000000+00:00</time></trkpt><trkpt lat="39.46058284" lon="-0.3739333"><ele>24.6</ele><time>2022-11-06T13:32:41.0000000+00:00</time></trkpt><trkpt lat="39.46058929" lon="-0.37391637"><ele>24.6</ele><time>2022-11-06T13:32:42.0000000+00:00</time></trkpt><trkpt lat="39.46060027" lon="-0.37390765"><ele>24.6</ele><time>2022-11-06T13:32:43.0000000+00:00</time></trkpt><trkpt lat="39.46061108" lon="-0.37388384"><ele>24.6</ele><time>2022-11-06T13:32:44.0000000+00:00</time></trkpt><trkpt lat="39.46061838" lon="-0.37387362"><ele>24.6</ele><time>2022-11-06T13:32:45.0000000+00:00</time></trkpt><trkpt lat="39.4606224" lon="-0.37386172"><ele>24.6</ele><time>2022-11-06T13:32:46.0000000+00:00</time></trkpt><trkpt lat="39.46062617" lon="-0.37386079"><ele>24.6</ele><time>2022-11-06T13:32:47.0000000+00:00</time></trkpt><trkpt lat="39.46063078" lon="-0.37384328"><ele>24.6</ele><time>2022-11-06T13:32:48.0000000+00:00</time></trkpt><trkpt lat="39.4606281" lon="-0.37383447"><ele>24.6</ele><time>2022-11-06T13:32:49.0000000+00:00</time></trkpt><trkpt lat="39.46063338" lon="-0.37381855"><ele>24.6</ele><time>2022-11-06T13:32:50.0000000+00:00</time></trkpt><trkpt lat="39.46063631" lon="-0.37381771"><ele>24.6</ele><time>2022-11-06T13:32:51.0000000+00:00</time></trkpt><trkpt lat="39.46064126" lon="-0.37381117"><ele>24.6</ele><time>2022-11-06T13:32:52.0000000+00:00</time></trkpt><trkpt lat="39.4606405" lon="-0.37380665"><ele>24.6</ele><time>2022-11-06T13:32:53.0000000+00:00</time></trkpt><trkpt lat="39.46065031" lon="-0.37380304"><ele>24.6</ele><time>2022-11-06T13:32:54.0000000+00:00</time></trkpt><trkpt lat="39.46066666" lon="-0.37380355"><ele>24.6</ele><time>2022-11-06T13:32:55.0000000+00:00</time></trkpt><trkpt lat="39.46067495" lon="-0.37379516"><ele>24.6</ele><time>2022-11-06T13:32:56.0000000+00:00</time></trkpt><trkpt lat="39.46068049" lon="-0.37378611"><ele>24.6</ele><time>2022-11-06T13:32:57.0000000+00:00</time></trkpt><trkpt lat="39.46068359" lon="-0.37377471"><ele>24.6</ele><time>2022-11-06T13:32:58.0000000+00:00</time></trkpt><trkpt lat="39.46068627" lon="-0.37376398"><ele>24.6</ele><time>2022-11-06T13:32:59.0000000+00:00</time></trkpt><trkpt lat="39.46069398" lon="-0.37375066"><ele>24.6</ele><time>2022-11-06T13:33:00.0000000+00:00</time></trkpt><trkpt lat="39.46070437" lon="-0.37374194"><ele>24.6</ele><time>2022-11-06T13:33:01.0000000+00:00</time></trkpt><trkpt lat="39.46071887" lon="-0.37373498"><ele>24.6</ele><time>2022-11-06T13:33:02.0000000+00:00</time></trkpt><trkpt lat="39.46072365" lon="-0.37372333"><ele>24.6</ele><time>2022-11-06T13:33:03.0000000+00:00</time></trkpt><trkpt lat="39.46072927" lon="-0.37370774"><ele>24.6</ele><time>2022-11-06T13:33:04.0000000+00:00</time></trkpt><trkpt lat="39.46073405" lon="-0.3736971"><ele>24.6</ele><time>2022-11-06T13:33:05.0000000+00:00</time></trkpt><trkpt lat="39.46074125" lon="-0.37368218"><ele>24.6</ele><time>2022-11-06T13:33:06.0000000+00:00</time></trkpt><trkpt lat="39.46074444" lon="-0.37366625"><ele>24.6</ele><time>2022-11-06T13:33:07.0000000+00:00</time></trkpt><trkpt lat="39.46074184" lon="-0.3736577"><ele>24.6</ele><time>2022-11-06T13:33:08.0000000+00:00</time></trkpt><trkpt lat="39.46074243" lon="-0.37364312"><ele>24.6</ele><time>2022-11-06T13:33:09.0000000+00:00</time></trkpt><trkpt lat="39.46074662" lon="-0.37363465"><ele>24.8</ele><time>2022-11-06T13:33:10.0000000+00:00</time></trkpt><trkpt lat="39.46074796" lon="-0.37361973"><ele>24.8</ele><time>2022-11-06T13:33:11.0000000+00:00</time></trkpt><trkpt lat="39.46074603" lon="-0.37360716"><ele>24.8</ele><time>2022-11-06T13:33:12.0000000+00:00</time></trkpt><trkpt lat="39.46074972" lon="-0.37359442"><ele>24.8</ele><time>2022-11-06T13:33:13.0000000+00:00</time></trkpt><trkpt lat="39.46076305" lon="-0.37358436"><ele>24.8</ele><time>2022-11-06T13:33:14.0000000+00:00</time></trkpt><trkpt lat="39.46077067" lon="-0.37357933"><ele>24.8</ele><time>2022-11-06T13:33:15.0000000+00:00</time></trkpt><trkpt lat="39.46078518" lon="-0.37356659"><ele>24.8</ele><time>2022-11-06T13:33:16.0000000+00:00</time></trkpt><trkpt lat="39.46078928" lon="-0.37355863"><ele>24.8</ele><time>2022-11-06T13:33:17.0000000+00:00</time></trkpt><trkpt lat="39.46079004" lon="-0.37354848"><ele>24.8</ele><time>2022-11-06T13:33:18.0000000+00:00</time></trkpt><trkpt lat="39.46079381" lon="-0.37353801"><ele>24.8</ele><time>2022-11-06T13:33:19.0000000+00:00</time></trkpt><trkpt lat="39.46079833" lon="-0.3735303"><ele>25.0</ele><time>2022-11-06T13:33:20.0000000+00:00</time></trkpt><trkpt lat="39.46080487" lon="-0.37351915"><ele>25.0</ele><time>2022-11-06T13:33:21.0000000+00:00</time></trkpt><trkpt lat="39.46080814" lon="-0.37350766"><ele>25.0</ele><time>2022-11-06T13:33:22.0000000+00:00</time></trkpt><trkpt lat="39.4608177" lon="-0.37350456"><ele>25.0</ele><time>2022-11-06T13:33:23.0000000+00:00</time></trkpt><trkpt lat="39.4608234" lon="-0.37350238"><ele>24.8</ele><time>2022-11-06T13:33:24.0000000+00:00</time></trkpt><trkpt lat="39.46082826" lon="-0.37349626"><ele>24.8</ele><time>2022-11-06T13:33:25.0000000+00:00</time></trkpt><trkpt lat="39.46083429" lon="-0.37348394"><ele>24.8</ele><time>2022-11-06T13:33:26.0000000+00:00</time></trkpt><trkpt lat="39.46084175" lon="-0.37346785"><ele>24.8</ele><time>2022-11-06T13:33:27.0000000+00:00</time></trkpt><trkpt lat="39.46084427" lon="-0.37346232"><ele>25.0</ele><time>2022-11-06T13:33:28.0000000+00:00</time></trkpt><trkpt lat="39.46083756" lon="-0.37346198"><ele>25.0</ele><time>2022-11-06T13:33:29.0000000+00:00</time></trkpt><trkpt lat="39.46083865" lon="-0.37346056"><ele>25.0</ele><time>2022-11-06T13:33:30.0000000+00:00</time></trkpt><trkpt lat="39.46083807" lon="-0.37345938"><ele>25.0</ele><time>2022-11-06T13:33:31.0000000+00:00</time></trkpt><trkpt lat="39.46083605" lon="-0.37345603"><ele>25.0</ele><time>2022-11-06T13:33:32.0000000+00:00</time></trkpt><trkpt lat="39.46084159" lon="-0.37344824"><ele>25.0</ele><time>2022-11-06T13:33:33.0000000+00:00</time></trkpt><trkpt lat="39.46084544" lon="-0.37344153"><ele>24.8</ele><time>2022-11-06T13:33:34.0000000+00:00</time></trkpt><trkpt lat="39.46084896" lon="-0.37343625"><ele>24.8</ele><time>2022-11-06T13:33:35.0000000+00:00</time></trkpt><trkpt lat="39.46085382" lon="-0.37343022"><ele>24.8</ele><time>2022-11-06T13:33:36.0000000+00:00</time></trkpt><trkpt lat="39.46085726" lon="-0.37342778"><ele>24.8</ele><time>2022-11-06T13:33:37.0000000+00:00</time></trkpt><trkpt lat="39.46085692" lon="-0.37342561"><ele>24.8</ele><time>2022-11-06T13:33:38.0000000+00:00</time></trkpt><trkpt lat="39.46085475" lon="-0.37341907"><ele>24.8</ele><time>2022-11-06T13:33:39.0000000+00:00</time></trkpt><trkpt lat="39.46084863" lon="-0.3734106"><ele>24.8</ele><time>2022-11-06T13:33:40.0000000+00:00</time></trkpt><trkpt lat="39.46084552" lon="-0.37340071"><ele>24.8</ele><time>2022-11-06T13:33:41.0000000+00:00</time></trkpt><trkpt lat="39.46084611" lon="-0.37338923"><ele>24.8</ele><time>2022-11-06T13:33:42.0000000+00:00</time></trkpt><trkpt lat="39.46085164" lon="-0.37337942"><ele>25.0</ele><time>2022-11-06T13:33:43.0000000+00:00</time></trkpt><trkpt lat="39.46085533" lon="-0.37336794"><ele>25.0</ele><time>2022-11-06T13:33:44.0000000+00:00</time></trkpt><trkpt lat="39.46086204" lon="-0.37335386"><ele>24.8</ele><time>2022-11-06T13:33:45.0000000+00:00</time></trkpt><trkpt lat="39.46086816" lon="-0.37333491"><ele>24.8</ele><time>2022-11-06T13:33:46.0000000+00:00</time></trkpt><trkpt lat="39.46087017" lon="-0.37331681"><ele>24.8</ele><time>2022-11-06T13:33:47.0000000+00:00</time></trkpt><trkpt lat="39.46087419" lon="-0.37329895"><ele>24.8</ele><time>2022-11-06T13:33:48.0000000+00:00</time></trkpt><trkpt lat="39.46087997" lon="-0.37328647"><ele>24.8</ele><time>2022-11-06T13:33:49.0000000+00:00</time></trkpt><trkpt lat="39.46088509" lon="-0.3732744"><ele>25.0</ele><time>2022-11-06T13:33:50.0000000+00:00</time></trkpt><trkpt lat="39.46089179" lon="-0.37326576"><ele>25.0</ele><time>2022-11-06T13:33:51.0000000+00:00</time></trkpt><trkpt lat="39.46089942" lon="-0.37325344"><ele>25.0</ele><time>2022-11-06T13:33:52.0000000+00:00</time></trkpt><trkpt lat="39.46090495" lon="-0.37324548"><ele>25.0</ele><time>2022-11-06T13:33:53.0000000+00:00</time></trkpt><trkpt lat="39.46090872" lon="-0.3732314"><ele>25.0</ele><time>2022-11-06T13:33:54.0000000+00:00</time></trkpt><trkpt lat="39.46091627" lon="-0.37322008"><ele>25.0</ele><time>2022-11-06T13:33:55.0000000+00:00</time></trkpt><trkpt lat="39.46092834" lon="-0.37321589"><ele>25.0</ele><time>2022-11-06T13:33:56.0000000+00:00</time></trkpt><trkpt lat="39.46094762" lon="-0.37320617"><ele>25.0</ele><time>2022-11-06T13:33:57.0000000+00:00</time></trkpt><trkpt lat="39.46095114" lon="-0.37319636"><ele>25.0</ele><time>2022-11-06T13:33:58.0000000+00:00</time></trkpt><trkpt lat="39.46095105" lon="-0.37318429"><ele>25.0</ele><time>2022-11-06T13:33:59.0000000+00:00</time></trkpt><trkpt lat="39.46095156" lon="-0.3731718"><ele>25.0</ele><time>2022-11-06T13:34:00.0000000+00:00</time></trkpt><trkpt lat="39.46095407" lon="-0.37316811"><ele>25.0</ele><time>2022-11-06T13:34:01.0000000+00:00</time></trkpt><trkpt lat="39.46095374" lon="-0.37316627"><ele>25.0</ele><time>2022-11-06T13:34:02.0000000+00:00</time></trkpt><trkpt lat="39.46095407" lon="-0.37316124"><ele>25.0</ele><time>2022-11-06T13:34:03.0000000+00:00</time></trkpt><trkpt lat="39.4609565" lon="-0.37314096"><ele>25.0</ele><time>2022-11-06T13:34:04.0000000+00:00</time></trkpt><trkpt lat="39.46095491" lon="-0.37311983"><ele>25.0</ele><time>2022-11-06T13:34:05.0000000+00:00</time></trkpt><trkpt lat="39.46095575" lon="-0.37311606"><ele>25.0</ele><time>2022-11-06T13:34:06.0000000+00:00</time></trkpt><trkpt lat="39.4609477" lon="-0.37306334"><ele>25.0</ele><time>2022-11-06T13:34:07.0000000+00:00</time></trkpt><trkpt lat="39.46094862" lon="-0.3730568"><ele>24.8</ele><time>2022-11-06T13:34:08.0000000+00:00</time></trkpt><trkpt lat="39.46095499" lon="-0.37303736"><ele>24.8</ele><time>2022-11-06T13:34:09.0000000+00:00</time></trkpt><trkpt lat="39.46094468" lon="-0.37302638"><ele>24.8</ele><time>2022-11-06T13:34:10.0000000+00:00</time></trkpt><trkpt lat="39.460957" lon="-0.37301774"><ele>24.8</ele><time>2022-11-06T13:34:11.0000000+00:00</time></trkpt><trkpt lat="39.46096974" lon="-0.37300559"><ele>24.8</ele><time>2022-11-06T13:34:12.0000000+00:00</time></trkpt><trkpt lat="39.46097536" lon="-0.37300408"><ele>24.8</ele><time>2022-11-06T13:34:13.0000000+00:00</time></trkpt><trkpt lat="39.46097125" lon="-0.37299"><ele>24.8</ele><time>2022-11-06T13:34:14.0000000+00:00</time></trkpt><trkpt lat="39.46096891" lon="-0.37298757"><ele>24.8</ele><time>2022-11-06T13:34:15.0000000+00:00</time></trkpt><trkpt lat="39.46096111" lon="-0.3729698"><ele>24.8</ele><time>2022-11-06T13:34:16.0000000+00:00</time></trkpt><trkpt lat="39.46094317" lon="-0.37296812"><ele>24.8</ele><time>2022-11-06T13:34:17.0000000+00:00</time></trkpt><trkpt lat="39.46094032" lon="-0.37296418"><ele>24.8</ele><time>2022-11-06T13:34:18.0000000+00:00</time></trkpt><trkpt lat="39.46093597" lon="-0.37295312"><ele>24.8</ele><time>2022-11-06T13:34:19.0000000+00:00</time></trkpt><trkpt lat="39.46093127" lon="-0.37293543"><ele>24.8</ele><time>2022-11-06T13:34:20.0000000+00:00</time></trkpt><trkpt lat="39.46092272" lon="-0.37290844"><ele>24.8</ele><time>2022-11-06T13:34:21.0000000+00:00</time></trkpt><trkpt lat="39.46089624" lon="-0.37291096"><ele>24.8</ele><time>2022-11-06T13:34:22.0000000+00:00</time></trkpt><trkpt lat="39.46088249" lon="-0.37288514"><ele>24.8</ele><time>2022-11-06T13:34:23.0000000+00:00</time></trkpt><trkpt lat="39.46087251" lon="-0.37286796"><ele>24.8</ele><time>2022-11-06T13:34:24.0000000+00:00</time></trkpt><trkpt lat="39.46086271" lon="-0.37286041"><ele>24.8</ele><time>2022-11-06T13:34:25.0000000+00:00</time></trkpt><trkpt lat="39.46086891" lon="-0.372846"><ele>24.8</ele><time>2022-11-06T13:34:26.0000000+00:00</time></trkpt><trkpt lat="39.46086036" lon="-0.37284231"><ele>24.8</ele><time>2022-11-06T13:34:27.0000000+00:00</time></trkpt><trkpt lat="39.4608503" lon="-0.37284331"><ele>24.8</ele><time>2022-11-06T13:34:28.0000000+00:00</time></trkpt><trkpt lat="39.46084091" lon="-0.37284809"><ele>24.8</ele><time>2022-11-06T13:34:29.0000000+00:00</time></trkpt><trkpt lat="39.46083915" lon="-0.3728517"><ele>24.8</ele><time>2022-11-06T13:34:30.0000000+00:00</time></trkpt><trkpt lat="39.46084016" lon="-0.37285036"><ele>24.8</ele><time>2022-11-06T13:34:31.0000000+00:00</time></trkpt><trkpt lat="39.46084117" lon="-0.37284876"><ele>24.8</ele><time>2022-11-06T13:34:32.0000000+00:00</time></trkpt><trkpt lat="39.46084091" lon="-0.37284709"><ele>24.8</ele><time>2022-11-06T13:34:33.0000000+00:00</time></trkpt><trkpt lat="39.4608415" lon="-0.37284818"><ele>24.8</ele><time>2022-11-06T13:34:34.0000000+00:00</time></trkpt><trkpt lat="39.46084293" lon="-0.37284566"><ele>24.8</ele><time>2022-11-06T13:34:35.0000000+00:00</time></trkpt><trkpt lat="39.46084938" lon="-0.37283678"><ele>24.8</ele><time>2022-11-06T13:34:36.0000000+00:00</time></trkpt><trkpt lat="39.46085894" lon="-0.37282705"><ele>24.8</ele><time>2022-11-06T13:34:37.0000000+00:00</time></trkpt><trkpt lat="39.46087042" lon="-0.37281641"><ele>24.8</ele><time>2022-11-06T13:34:38.0000000+00:00</time></trkpt><trkpt lat="39.46086598" lon="-0.37281591"><ele>24.8</ele><time>2022-11-06T13:34:39.0000000+00:00</time></trkpt><trkpt lat="39.46088056" lon="-0.37280317"><ele>24.8</ele><time>2022-11-06T13:34:40.0000000+00:00</time></trkpt><trkpt lat="39.46089121" lon="-0.37279277"><ele>24.8</ele><time>2022-11-06T13:34:41.0000000+00:00</time></trkpt><trkpt lat="39.46089003" lon="-0.37278934"><ele>24.8</ele><time>2022-11-06T13:34:42.0000000+00:00</time></trkpt><trkpt lat="39.46089221" lon="-0.37278053"><ele>24.8</ele><time>2022-11-06T13:34:43.0000000+00:00</time></trkpt><trkpt lat="39.46088961" lon="-0.3727797"><ele>24.8</ele><time>2022-11-06T13:34:44.0000000+00:00</time></trkpt><trkpt lat="39.4608871" lon="-0.3727828"><ele>24.8</ele><time>2022-11-06T13:34:45.0000000+00:00</time></trkpt><trkpt lat="39.4608933" lon="-0.37278188"><ele>24.8</ele><time>2022-11-06T13:34:46.0000000+00:00</time></trkpt><trkpt lat="39.4609011" lon="-0.37277416"><ele>24.8</ele><time>2022-11-06T13:34:47.0000000+00:00</time></trkpt><trkpt lat="39.46091275" lon="-0.37276436"><ele>24.8</ele><time>2022-11-06T13:34:48.0000000+00:00</time></trkpt><trkpt lat="39.46093504" lon="-0.37274843"><ele>24.8</ele><time>2022-11-06T13:34:49.0000000+00:00</time></trkpt><trkpt lat="39.46095851" lon="-0.37272873"><ele>24.8</ele><time>2022-11-06T13:34:50.0000000+00:00</time></trkpt><trkpt lat="39.46097427" lon="-0.37271381"><ele>24.8</ele><time>2022-11-06T13:34:51.0000000+00:00</time></trkpt><trkpt lat="39.46097754" lon="-0.37270811"><ele>24.8</ele><time>2022-11-06T13:34:52.0000000+00:00</time></trkpt><trkpt lat="39.46097469" lon="-0.37270585"><ele>24.8</ele><time>2022-11-06T13:34:53.0000000+00:00</time></trkpt><trkpt lat="39.46097285" lon="-0.37270862"><ele>24.8</ele><time>2022-11-06T13:34:54.0000000+00:00</time></trkpt><trkpt lat="39.46096572" lon="-0.37272228"><ele>24.8</ele><time>2022-11-06T13:34:55.0000000+00:00</time></trkpt><trkpt lat="39.460957" lon="-0.3727263"><ele>24.8</ele><time>2022-11-06T13:34:56.0000000+00:00</time></trkpt><trkpt lat="39.46096581" lon="-0.37272203"><ele>24.8</ele><time>2022-11-06T13:34:57.0000000+00:00</time></trkpt><trkpt lat="39.46096212" lon="-0.3727201"><ele>24.8</ele><time>2022-11-06T13:34:58.0000000+00:00</time></trkpt><trkpt lat="39.46096555" lon="-0.37270753"><ele>24.8</ele><time>2022-11-06T13:34:59.0000000+00:00</time></trkpt><trkpt lat="39.46095684" lon="-0.37270929"><ele>24.8</ele><time>2022-11-06T13:35:00.0000000+00:00</time></trkpt><trkpt lat="39.46094502" lon="-0.37271801"><ele>24.8</ele><time>2022-11-06T13:35:01.0000000+00:00</time></trkpt><trkpt lat="39.46093781" lon="-0.37271784"><ele>24.8</ele><time>2022-11-06T13:35:02.0000000+00:00</time></trkpt><trkpt lat="39.46092867" lon="-0.3727201"><ele>24.8</ele><time>2022-11-06T13:35:03.0000000+00:00</time></trkpt><trkpt lat="39.46091811" lon="-0.37272027"><ele>25.0</ele><time>2022-11-06T13:35:04.0000000+00:00</time></trkpt><trkpt lat="39.4609104" lon="-0.37272555"><ele>25.0</ele><time>2022-11-06T13:35:05.0000000+00:00</time></trkpt><trkpt lat="39.4609073" lon="-0.37272639"><ele>25.0</ele><time>2022-11-06T13:35:06.0000000+00:00</time></trkpt><trkpt lat="39.4609042" lon="-0.37272647"><ele>25.0</ele><time>2022-11-06T13:35:07.0000000+00:00</time></trkpt><trkpt lat="39.46090235" lon="-0.37273745"><ele>25.0</ele><time>2022-11-06T13:35:08.0000000+00:00</time></trkpt><trkpt lat="39.46090579" lon="-0.37273812"><ele>25.0</ele><time>2022-11-06T13:35:09.0000000+00:00</time></trkpt><trkpt lat="39.46089707" lon="-0.37274223"><ele>25.0</ele><time>2022-11-06T13:35:10.0000000+00:00</time></trkpt><trkpt lat="39.46088433" lon="-0.37275095"><ele>25.0</ele><time>2022-11-06T13:35:11.0000000+00:00</time></trkpt><trkpt lat="39.46088056" lon="-0.37275757"><ele>25.0</ele><time>2022-11-06T13:35:12.0000000+00:00</time></trkpt><trkpt lat="39.46088433" lon="-0.37275933"><ele>25.0</ele><time>2022-11-06T13:35:13.0000000+00:00</time></trkpt><trkpt lat="39.46087369" lon="-0.37276276"><ele>25.0</ele><time>2022-11-06T13:35:14.0000000+00:00</time></trkpt><trkpt lat="39.46087159" lon="-0.37276536"><ele>25.0</ele><time>2022-11-06T13:35:15.0000000+00:00</time></trkpt><trkpt lat="39.46087008" lon="-0.37276796"><ele>25.0</ele><time>2022-11-06T13:35:16.0000000+00:00</time></trkpt><trkpt lat="39.46087168" lon="-0.37276804"><ele>25.0</ele><time>2022-11-06T13:35:17.0000000+00:00</time></trkpt><trkpt lat="39.46087369" lon="-0.37276369"><ele>25.0</ele><time>2022-11-06T13:35:18.0000000+00:00</time></trkpt><trkpt lat="39.46088115" lon="-0.37276335"><ele>25.0</ele><time>2022-11-06T13:35:19.0000000+00:00</time></trkpt><trkpt lat="39.46088534" lon="-0.37276746"><ele>25.0</ele><time>2022-11-06T13:35:20.0000000+00:00</time></trkpt><trkpt lat="39.46088827" lon="-0.37277157"><ele>25.0</ele><time>2022-11-06T13:35:21.0000000+00:00</time></trkpt><trkpt lat="39.4608928" lon="-0.37277039"><ele>25.0</ele><time>2022-11-06T13:35:22.0000000+00:00</time></trkpt><trkpt lat="39.46088936" lon="-0.37277157"><ele>25.0</ele><time>2022-11-06T13:35:23.0000000+00:00</time></trkpt><trkpt lat="39.46089456" lon="-0.37277525"><ele>24.8</ele><time>2022-11-06T13:35:24.0000000+00:00</time></trkpt><trkpt lat="39.46090059" lon="-0.37277835"><ele>24.8</ele><time>2022-11-06T13:35:25.0000000+00:00</time></trkpt><trkpt lat="39.46089892" lon="-0.37278288"><ele>24.8</ele><time>2022-11-06T13:35:26.0000000+00:00</time></trkpt><trkpt lat="39.46089942" lon="-0.37278908"><ele>24.6</ele><time>2022-11-06T13:35:27.0000000+00:00</time></trkpt><trkpt lat="39.46089791" lon="-0.37279093"><ele>24.6</ele><time>2022-11-06T13:35:28.0000000+00:00</time></trkpt><trkpt lat="39.46090252" lon="-0.37279017"><ele>24.6</ele><time>2022-11-06T13:35:29.0000000+00:00</time></trkpt><trkpt lat="39.46090261" lon="-0.37278649"><ele>24.6</ele><time>2022-11-06T13:35:30.0000000+00:00</time></trkpt><trkpt lat="39.46091082" lon="-0.37277886"><ele>24.6</ele><time>2022-11-06T13:35:31.0000000+00:00</time></trkpt><trkpt lat="39.46091652" lon="-0.37277324"><ele>24.6</ele><time>2022-11-06T13:35:32.0000000+00:00</time></trkpt><trkpt lat="39.46091702" lon="-0.37277274"><ele>24.6</ele><time>2022-11-06T13:35:33.0000000+00:00</time></trkpt><trkpt lat="39.46091635" lon="-0.37277307"><ele>24.6</ele><time>2022-11-06T13:35:34.0000000+00:00</time></trkpt><trkpt lat="39.46091451" lon="-0.37277643"><ele>24.6</ele><time>2022-11-06T13:35:35.0000000+00:00</time></trkpt><trkpt lat="39.46091694" lon="-0.37277391"><ele>24.6</ele><time>2022-11-06T13:35:36.0000000+00:00</time></trkpt><trkpt lat="39.46092046" lon="-0.37277215"><ele>24.4</ele><time>2022-11-06T13:35:37.0000000+00:00</time></trkpt><trkpt lat="39.46092675" lon="-0.37276779"><ele>24.4</ele><time>2022-11-06T13:35:38.0000000+00:00</time></trkpt><trkpt lat="39.4608902" lon="-0.3727864"><ele>24.4</ele><time>2022-11-06T13:35:39.0000000+00:00</time></trkpt><trkpt lat="39.46089624" lon="-0.37278699"><ele>24.4</ele><time>2022-11-06T13:35:40.0000000+00:00</time></trkpt><trkpt lat="39.46090311" lon="-0.37277626"><ele>24.4</ele><time>2022-11-06T13:35:41.0000000+00:00</time></trkpt><trkpt lat="39.46089984" lon="-0.3727745"><ele>24.6</ele><time>2022-11-06T13:35:42.0000000+00:00</time></trkpt><trkpt lat="39.46089783" lon="-0.37277634"><ele>24.4</ele><time>2022-11-06T13:35:43.0000000+00:00</time></trkpt><trkpt lat="39.46089892" lon="-0.3727828"><ele>24.4</ele><time>2022-11-06T13:35:44.0000000+00:00</time></trkpt><trkpt lat="39.46089909" lon="-0.37279218"><ele>24.4</ele><time>2022-11-06T13:35:45.0000000+00:00</time></trkpt><trkpt lat="39.46090437" lon="-0.37280006"><ele>24.4</ele><time>2022-11-06T13:35:46.0000000+00:00</time></trkpt><trkpt lat="39.46086489" lon="-0.37279847"><ele>24.4</ele><time>2022-11-06T13:35:47.0000000+00:00</time></trkpt><trkpt lat="39.46085634" lon="-0.37279772"><ele>24.4</ele><time>2022-11-06T13:35:48.0000000+00:00</time></trkpt><trkpt lat="39.46088634" lon="-0.37279889"><ele>24.4</ele><time>2022-11-06T13:35:49.0000000+00:00</time></trkpt><trkpt lat="39.46088945" lon="-0.3727999"><ele>24.4</ele><time>2022-11-06T13:35:50.0000000+00:00</time></trkpt><trkpt lat="39.46089531" lon="-0.37279939"><ele>24.4</ele><time>2022-11-06T13:35:51.0000000+00:00</time></trkpt><trkpt lat="39.46090453" lon="-0.37280107"><ele>24.4</ele><time>2022-11-06T13:35:52.0000000+00:00</time></trkpt><trkpt lat="39.46085617" lon="-0.37279638"><ele>24.4</ele><time>2022-11-06T13:35:53.0000000+00:00</time></trkpt><trkpt lat="39.46084687" lon="-0.37279311"><ele>24.4</ele><time>2022-11-06T13:35:54.0000000+00:00</time></trkpt><trkpt lat="39.46084435" lon="-0.37279788"><ele>24.4</ele><time>2022-11-06T13:35:55.0000000+00:00</time></trkpt><trkpt lat="39.46084268" lon="-0.37279822"><ele>24.4</ele><time>2022-11-06T13:35:56.0000000+00:00</time></trkpt><trkpt lat="39.46084276" lon="-0.37279755"><ele>24.4</ele><time>2022-11-06T13:35:57.0000000+00:00</time></trkpt><trkpt lat="39.46084301" lon="-0.37279763"><ele>24.4</ele><time>2022-11-06T13:35:58.0000000+00:00</time></trkpt><trkpt lat="39.46084376" lon="-0.37279856"><ele>24.4</ele><time>2022-11-06T13:35:59.0000000+00:00</time></trkpt><trkpt lat="39.46084804" lon="-0.37279487"><ele>24.4</ele><time>2022-11-06T13:36:00.0000000+00:00</time></trkpt><trkpt lat="39.46084687" lon="-0.37279403"><ele>24.2</ele><time>2022-11-06T13:36:01.0000000+00:00</time></trkpt><trkpt lat="39.46084209" lon="-0.37280224"><ele>24.2</ele><time>2022-11-06T13:36:02.0000000+00:00</time></trkpt><trkpt lat="39.46084444" lon="-0.37280249"><ele>24.2</ele><time>2022-11-06T13:36:03.0000000+00:00</time></trkpt><trkpt lat="39.46084402" lon="-0.37280266"><ele>24.0</ele><time>2022-11-06T13:36:04.0000000+00:00</time></trkpt><trkpt lat="39.46084544" lon="-0.37280434"><ele>24.0</ele><time>2022-11-06T13:36:05.0000000+00:00</time></trkpt><trkpt lat="39.46084972" lon="-0.3728035"><ele>24.0</ele><time>2022-11-06T13:36:06.0000000+00:00</time></trkpt><trkpt lat="39.46085114" lon="-0.37280534"><ele>24.0</ele><time>2022-11-06T13:36:07.0000000+00:00</time></trkpt><trkpt lat="39.46085676" lon="-0.37280392"><ele>24.0</ele><time>2022-11-06T13:36:08.0000000+00:00</time></trkpt><trkpt lat="39.46086455" lon="-0.37279847"><ele>24.0</ele><time>2022-11-06T13:36:09.0000000+00:00</time></trkpt><trkpt lat="39.46086665" lon="-0.37279512"><ele>24.0</ele><time>2022-11-06T13:36:10.0000000+00:00</time></trkpt><trkpt lat="39.46086103" lon="-0.37279948"><ele>24.0</ele><time>2022-11-06T13:36:11.0000000+00:00</time></trkpt><trkpt lat="39.46085969" lon="-0.37280853"><ele>24.0</ele><time>2022-11-06T13:36:12.0000000+00:00</time></trkpt><trkpt lat="39.46085483" lon="-0.37282068"><ele>24.0</ele><time>2022-11-06T13:36:13.0000000+00:00</time></trkpt><trkpt lat="39.46084946" lon="-0.37283552"><ele>24.0</ele><time>2022-11-06T13:36:14.0000000+00:00</time></trkpt><trkpt lat="39.46084234" lon="-0.37284759"><ele>24.0</ele><time>2022-11-06T13:36:15.0000000+00:00</time></trkpt><trkpt lat="39.4608296" lon="-0.37285354"><ele>24.0</ele><time>2022-11-06T13:36:16.0000000+00:00</time></trkpt><trkpt lat="39.46082633" lon="-0.37285388"><ele>24.0</ele><time>2022-11-06T13:36:17.0000000+00:00</time></trkpt><trkpt lat="39.46082583" lon="-0.37285337"><ele>24.0</ele><time>2022-11-06T13:36:18.0000000+00:00</time></trkpt><trkpt lat="39.46082415" lon="-0.37285681"><ele>24.0</ele><time>2022-11-06T13:36:19.0000000+00:00</time></trkpt><trkpt lat="39.46082206" lon="-0.37286058"><ele>24.0</ele><time>2022-11-06T13:36:20.0000000+00:00</time></trkpt><trkpt lat="39.46081476" lon="-0.37287081"><ele>24.0</ele><time>2022-11-06T13:36:21.0000000+00:00</time></trkpt><trkpt lat="39.46080479" lon="-0.37287944"><ele>24.0</ele><time>2022-11-06T13:36:22.0000000+00:00</time></trkpt><trkpt lat="39.46080085" lon="-0.37288296"><ele>24.0</ele><time>2022-11-06T13:36:23.0000000+00:00</time></trkpt><trkpt lat="39.46079875" lon="-0.37288606"><ele>24.2</ele><time>2022-11-06T13:36:24.0000000+00:00</time></trkpt><trkpt lat="39.46079758" lon="-0.37288958"><ele>24.2</ele><time>2022-11-06T13:36:25.0000000+00:00</time></trkpt><trkpt lat="39.4607959" lon="-0.37289386"><ele>24.2</ele><time>2022-11-06T13:36:26.0000000+00:00</time></trkpt><trkpt lat="39.46079817" lon="-0.37289537"><ele>24.0</ele><time>2022-11-06T13:36:27.0000000+00:00</time></trkpt><trkpt lat="39.46080362" lon="-0.37289444"><ele>24.0</ele><time>2022-11-06T13:36:28.0000000+00:00</time></trkpt><trkpt lat="39.46080605" lon="-0.37289671"><ele>24.0</ele><time>2022-11-06T13:36:29.0000000+00:00</time></trkpt><trkpt lat="39.46081426" lon="-0.37289486"><ele>24.0</ele><time>2022-11-06T13:36:30.0000000+00:00</time></trkpt><trkpt lat="39.4608208" lon="-0.37289411"><ele>24.0</ele><time>2022-11-06T13:36:31.0000000+00:00</time></trkpt><trkpt lat="39.46082507" lon="-0.37289159"><ele>24.0</ele><time>2022-11-06T13:36:32.0000000+00:00</time></trkpt><trkpt lat="39.46082817" lon="-0.37288858"><ele>24.0</ele><time>2022-11-06T13:36:33.0000000+00:00</time></trkpt><trkpt lat="39.4608379" lon="-0.37288011"><ele>24.0</ele><time>2022-11-06T13:36:34.0000000+00:00</time></trkpt><trkpt lat="39.46084402" lon="-0.37287022"><ele>24.0</ele><time>2022-11-06T13:36:35.0000000+00:00</time></trkpt><trkpt lat="39.46084837" lon="-0.37285564"><ele>24.0</ele><time>2022-11-06T13:36:36.0000000+00:00</time></trkpt><trkpt lat="39.46084628" lon="-0.37285061"><ele>24.0</ele><time>2022-11-06T13:36:37.0000000+00:00</time></trkpt><trkpt lat="39.46085433" lon="-0.37283544"><ele>24.0</ele><time>2022-11-06T13:36:38.0000000+00:00</time></trkpt><trkpt lat="39.46085198" lon="-0.3728346"><ele>23.8</ele><time>2022-11-06T13:36:39.0000000+00:00</time></trkpt><trkpt lat="39.46085324" lon="-0.37283359"><ele>23.8</ele><time>2022-11-06T13:36:40.0000000+00:00</time></trkpt><trkpt lat="39.46085307" lon="-0.37283602"><ele>23.8</ele><time>2022-11-06T13:36:41.0000000+00:00</time></trkpt><trkpt lat="39.46086003" lon="-0.37283242"><ele>23.8</ele><time>2022-11-06T13:36:42.0000000+00:00</time></trkpt><trkpt lat="39.46086019" lon="-0.37282957"><ele>23.6</ele><time>2022-11-06T13:36:43.0000000+00:00</time></trkpt><trkpt lat="39.46085726" lon="-0.37283141"><ele>23.6</ele><time>2022-11-06T13:36:44.0000000+00:00</time></trkpt><trkpt lat="39.46085651" lon="-0.37283317"><ele>23.6</ele><time>2022-11-06T13:36:45.0000000+00:00</time></trkpt><trkpt lat="39.46085583" lon="-0.37283233"><ele>23.6</ele><time>2022-11-06T13:36:46.0000000+00:00</time></trkpt><trkpt lat="39.46085625" lon="-0.37283326"><ele>23.6</ele><time>2022-11-06T13:36:47.0000000+00:00</time></trkpt><trkpt lat="39.46085583" lon="-0.37284222"><ele>23.6</ele><time>2022-11-06T13:36:48.0000000+00:00</time></trkpt><trkpt lat="39.46085064" lon="-0.37284818"><ele>23.6</ele><time>2022-11-06T13:36:49.0000000+00:00</time></trkpt><trkpt lat="39.46084754" lon="-0.37285237"><ele>23.6</ele><time>2022-11-06T13:36:50.0000000+00:00</time></trkpt><trkpt lat="39.46084536" lon="-0.37285027"><ele>23.6</ele><time>2022-11-06T13:36:51.0000000+00:00</time></trkpt><trkpt lat="39.46084209" lon="-0.37285077"><ele>23.8</ele><time>2022-11-06T13:36:52.0000000+00:00</time></trkpt><trkpt lat="39.46084066" lon="-0.37284994"><ele>23.8</ele><time>2022-11-06T13:36:53.0000000+00:00</time></trkpt><trkpt lat="39.46084511" lon="-0.3728491"><ele>23.6</ele><time>2022-11-06T13:36:54.0000000+00:00</time></trkpt><trkpt lat="39.46084594" lon="-0.37284533"><ele>23.6</ele><time>2022-11-06T13:36:55.0000000+00:00</time></trkpt><trkpt lat="39.46085324" lon="-0.3728408"><ele>23.6</ele><time>2022-11-06T13:36:56.0000000+00:00</time></trkpt><trkpt lat="39.46086103" lon="-0.37283376"><ele>23.6</ele><time>2022-11-06T13:36:57.0000000+00:00</time></trkpt><trkpt lat="39.46086388" lon="-0.3728346"><ele>23.6</ele><time>2022-11-06T13:36:58.0000000+00:00</time></trkpt><trkpt lat="39.46086614" lon="-0.37283451"><ele>23.6</ele><time>2022-11-06T13:36:59.0000000+00:00</time></trkpt><trkpt lat="39.46086564" lon="-0.37283502"><ele>23.6</ele><time>2022-11-06T13:37:00.0000000+00:00</time></trkpt><trkpt lat="39.46086564" lon="-0.37283502"><ele>23.6</ele><time>2022-11-06T13:37:01.0000000+00:00</time></trkpt><trkpt lat="39.46086564" lon="-0.37283502"><ele>23.6</ele><time>2022-11-06T13:37:02.0000000+00:00</time></trkpt><trkpt lat="39.46086564" lon="-0.37283502"><ele>23.6</ele><time>2022-11-06T13:37:03.0000000+00:00</time></trkpt><trkpt lat="39.46086564" lon="-0.37283502"><ele>23.8</ele><time>2022-11-06T13:37:04.0000000+00:00</time></trkpt><trkpt lat="39.46086874" lon="-0.37283259"><ele>23.8</ele><time>2022-11-06T13:37:05.0000000+00:00</time></trkpt><trkpt lat="39.46086899" lon="-0.37282353"><ele>23.8</ele><time>2022-11-06T13:37:06.0000000+00:00</time></trkpt><trkpt lat="39.46088031" lon="-0.3728154"><ele>23.8</ele><time>2022-11-06T13:37:07.0000000+00:00</time></trkpt><trkpt lat="39.46086891" lon="-0.37281524"><ele>23.8</ele><time>2022-11-06T13:37:08.0000000+00:00</time></trkpt><trkpt lat="39.46087277" lon="-0.37281331"><ele>23.8</ele><time>2022-11-06T13:37:09.0000000+00:00</time></trkpt><trkpt lat="39.46087989" lon="-0.37280861"><ele>23.8</ele><time>2022-11-06T13:37:10.0000000+00:00</time></trkpt><trkpt lat="39.46088207" lon="-0.37280434"><ele>24.8</ele><time>2022-11-06T13:37:11.0000000+00:00</time></trkpt><trkpt lat="39.46087679" lon="-0.3728014"><ele>24.8</ele><time>2022-11-06T13:37:12.0000000+00:00</time></trkpt><trkpt lat="39.46086715" lon="-0.37280057"><ele>24.8</ele><time>2022-11-06T13:37:13.0000000+00:00</time></trkpt><trkpt lat="39.46086866" lon="-0.37279755"><ele>24.8</ele><time>2022-11-06T13:37:14.0000000+00:00</time></trkpt><trkpt lat="39.46087402" lon="-0.37279755"><ele>24.8</ele><time>2022-11-06T13:37:15.0000000+00:00</time></trkpt><trkpt lat="39.46088224" lon="-0.37280166"><ele>24.8</ele><time>2022-11-06T13:37:16.0000000+00:00</time></trkpt><trkpt lat="39.46087427" lon="-0.37281163"><ele>24.8</ele><time>2022-11-06T13:37:17.0000000+00:00</time></trkpt><trkpt lat="39.46086103" lon="-0.37281725"><ele>24.8</ele><time>2022-11-06T13:37:18.0000000+00:00</time></trkpt><trkpt lat="39.46086145" lon="-0.37281532"><ele>24.6</ele><time>2022-11-06T13:37:19.0000000+00:00</time></trkpt><trkpt lat="39.46085709" lon="-0.37281532"><ele>24.8</ele><time>2022-11-06T13:37:20.0000000+00:00</time></trkpt><trkpt lat="39.46085542" lon="-0.37281339"><ele>24.8</ele><time>2022-11-06T13:37:21.0000000+00:00</time></trkpt><trkpt lat="39.46085298" lon="-0.37281289"><ele>24.8</ele><time>2022-11-06T13:37:22.0000000+00:00</time></trkpt><trkpt lat="39.46084997" lon="-0.37281322"><ele>24.8</ele><time>2022-11-06T13:37:23.0000000+00:00</time></trkpt><trkpt lat="39.46084821" lon="-0.37281423"><ele>24.8</ele><time>2022-11-06T13:37:24.0000000+00:00</time></trkpt><trkpt lat="39.46084863" lon="-0.37281515"><ele>24.8</ele><time>2022-11-06T13:37:25.0000000+00:00</time></trkpt><trkpt lat="39.4608498" lon="-0.37281297"><ele>24.8</ele><time>2022-11-06T13:37:26.0000000+00:00</time></trkpt><trkpt lat="39.46084921" lon="-0.37281314"><ele>24.8</ele><time>2022-11-06T13:37:27.0000000+00:00</time></trkpt><trkpt lat="39.46086296" lon="-0.37280853"><ele>24.8</ele><time>2022-11-06T13:37:28.0000000+00:00</time></trkpt><trkpt lat="39.46087687" lon="-0.37280266"><ele>24.8</ele><time>2022-11-06T13:37:29.0000000+00:00</time></trkpt><trkpt lat="39.460884" lon="-0.37279562"><ele>24.8</ele><time>2022-11-06T13:37:30.0000000+00:00</time></trkpt><trkpt lat="39.4608954" lon="-0.37279017"><ele>24.8</ele><time>2022-11-06T13:37:31.0000000+00:00</time></trkpt><trkpt lat="39.46089297" lon="-0.37279252"><ele>24.8</ele><time>2022-11-06T13:37:32.0000000+00:00</time></trkpt><trkpt lat="39.46088391" lon="-0.37280702"><ele>24.8</ele><time>2022-11-06T13:37:33.0000000+00:00</time></trkpt><trkpt lat="39.46086606" lon="-0.37282437"><ele>24.8</ele><time>2022-11-06T13:37:34.0000000+00:00</time></trkpt><trkpt lat="39.46085055" lon="-0.37284281"><ele>24.8</ele><time>2022-11-06T13:37:35.0000000+00:00</time></trkpt><trkpt lat="39.4608446" lon="-0.37285027"><ele>23.6</ele><time>2022-11-06T13:37:36.0000000+00:00</time></trkpt><trkpt lat="39.46081879" lon="-0.37287215"><ele>23.6</ele><time>2022-11-06T13:37:37.0000000+00:00</time></trkpt><trkpt lat="39.46080227" lon="-0.37289185"><ele>23.6</ele><time>2022-11-06T13:37:38.0000000+00:00</time></trkpt><trkpt lat="39.46078987" lon="-0.37290216"><ele>23.8</ele><time>2022-11-06T13:37:39.0000000+00:00</time></trkpt><trkpt lat="39.46079272" lon="-0.37290869"><ele>23.8</ele><time>2022-11-06T13:37:40.0000000+00:00</time></trkpt><trkpt lat="39.46079104" lon="-0.37292018"><ele>23.8</ele><time>2022-11-06T13:37:41.0000000+00:00</time></trkpt><trkpt lat="39.46080144" lon="-0.37292487"><ele>23.8</ele><time>2022-11-06T13:37:42.0000000+00:00</time></trkpt><trkpt lat="39.46080739" lon="-0.37292722"><ele>23.8</ele><time>2022-11-06T13:37:43.0000000+00:00</time></trkpt><trkpt lat="39.46081183" lon="-0.37293526"><ele>23.8</ele><time>2022-11-06T13:37:44.0000000+00:00</time></trkpt><trkpt lat="39.46081912" lon="-0.37293451"><ele>23.8</ele><time>2022-11-06T13:37:45.0000000+00:00</time></trkpt><trkpt lat="39.46083245" lon="-0.37293132"><ele>23.8</ele><time>2022-11-06T13:37:46.0000000+00:00</time></trkpt><trkpt lat="39.46084754" lon="-0.37293459"><ele>23.8</ele><time>2022-11-06T13:37:47.0000000+00:00</time></trkpt><trkpt lat="39.46084963" lon="-0.37293878"><ele>23.8</ele><time>2022-11-06T13:37:48.0000000+00:00</time></trkpt><trkpt lat="39.46085173" lon="-0.37293719"><ele>23.8</ele><time>2022-11-06T13:37:49.0000000+00:00</time></trkpt><trkpt lat="39.46085257" lon="-0.37293568"><ele>23.8</ele><time>2022-11-06T13:37:50.0000000+00:00</time></trkpt><trkpt lat="39.46085148" lon="-0.37292822"><ele>23.8</ele><time>2022-11-06T13:37:51.0000000+00:00</time></trkpt><trkpt lat="39.46085734" lon="-0.37292303"><ele>23.8</ele><time>2022-11-06T13:37:52.0000000+00:00</time></trkpt><trkpt lat="39.46085617" lon="-0.37291833"><ele>23.8</ele><time>2022-11-06T13:37:53.0000000+00:00</time></trkpt><trkpt lat="39.46085919" lon="-0.37290978"><ele>23.8</ele><time>2022-11-06T13:37:54.0000000+00:00</time></trkpt><trkpt lat="39.4608591" lon="-0.37291045"><ele>23.8</ele><time>2022-11-06T13:37:55.0000000+00:00</time></trkpt><trkpt lat="39.46085684" lon="-0.37291037"><ele>23.8</ele><time>2022-11-06T13:37:56.0000000+00:00</time></trkpt><trkpt lat="39.46084368" lon="-0.37291582"><ele>23.8</ele><time>2022-11-06T13:37:57.0000000+00:00</time></trkpt><trkpt lat="39.46082993" lon="-0.3729206"><ele>23.8</ele><time>2022-11-06T13:37:58.0000000+00:00</time></trkpt><trkpt lat="39.46081719" lon="-0.37292018"><ele>23.8</ele><time>2022-11-06T13:37:59.0000000+00:00</time></trkpt><trkpt lat="39.46081476" lon="-0.37291808"><ele>23.8</ele><time>2022-11-06T13:38:00.0000000+00:00</time></trkpt><trkpt lat="39.46081066" lon="-0.37292026"><ele>23.8</ele><time>2022-11-06T13:38:01.0000000+00:00</time></trkpt><trkpt lat="39.46080839" lon="-0.37292437"><ele>23.8</ele><time>2022-11-06T13:38:02.0000000+00:00</time></trkpt><trkpt lat="39.46080596" lon="-0.37293074"><ele>23.8</ele><time>2022-11-06T13:38:03.0000000+00:00</time></trkpt><trkpt lat="39.46080227" lon="-0.37293334"><ele>23.8</ele><time>2022-11-06T13:38:04.0000000+00:00</time></trkpt><trkpt lat="39.46079833" lon="-0.37293736"><ele>23.8</ele><time>2022-11-06T13:38:05.0000000+00:00</time></trkpt><trkpt lat="39.46079481" lon="-0.37294029"><ele>23.8</ele><time>2022-11-06T13:38:06.0000000+00:00</time></trkpt><trkpt lat="39.4608006" lon="-0.37294432"><ele>23.8</ele><time>2022-11-06T13:38:07.0000000+00:00</time></trkpt><trkpt lat="39.46079968" lon="-0.37294943"><ele>23.8</ele><time>2022-11-06T13:38:08.0000000+00:00</time></trkpt><trkpt lat="39.46079347" lon="-0.37295379"><ele>23.8</ele><time>2022-11-06T13:38:09.0000000+00:00</time></trkpt><trkpt lat="39.46079188" lon="-0.37295639"><ele>23.8</ele><time>2022-11-06T13:38:10.0000000+00:00</time></trkpt><trkpt lat="39.46079113" lon="-0.37295437"><ele>23.8</ele><time>2022-11-06T13:38:11.0000000+00:00</time></trkpt><trkpt lat="39.46078937" lon="-0.37295236"><ele>23.8</ele><time>2022-11-06T13:38:12.0000000+00:00</time></trkpt><trkpt lat="39.46079456" lon="-0.372948"><ele>23.8</ele><time>2022-11-06T13:38:13.0000000+00:00</time></trkpt><trkpt lat="39.46079423" lon="-0.37294549"><ele>23.8</ele><time>2022-11-06T13:38:14.0000000+00:00</time></trkpt><trkpt lat="39.46079171" lon="-0.37294381"><ele>23.8</ele><time>2022-11-06T13:38:15.0000000+00:00</time></trkpt><trkpt lat="39.46080294" lon="-0.37293828"><ele>23.8</ele><time>2022-11-06T13:38:16.0000000+00:00</time></trkpt><trkpt lat="39.46079783" lon="-0.37294071"><ele>23.8</ele><time>2022-11-06T13:38:17.0000000+00:00</time></trkpt><trkpt lat="39.46079264" lon="-0.37294013"><ele>23.8</ele><time>2022-11-06T13:38:18.0000000+00:00</time></trkpt><trkpt lat="39.46078509" lon="-0.3729408"><ele>23.8</ele><time>2022-11-06T13:38:19.0000000+00:00</time></trkpt><trkpt lat="39.46077193" lon="-0.37294641"><ele>23.8</ele><time>2022-11-06T13:38:20.0000000+00:00</time></trkpt><trkpt lat="39.46076053" lon="-0.37295354"><ele>23.8</ele><time>2022-11-06T13:38:21.0000000+00:00</time></trkpt><trkpt lat="39.46075282" lon="-0.37296116"><ele>23.8</ele><time>2022-11-06T13:38:22.0000000+00:00</time></trkpt><trkpt lat="39.46074436" lon="-0.37296737"><ele>23.8</ele><time>2022-11-06T13:38:23.0000000+00:00</time></trkpt><trkpt lat="39.46073765" lon="-0.37297315"><ele>23.8</ele><time>2022-11-06T13:38:24.0000000+00:00</time></trkpt><trkpt lat="39.46074796" lon="-0.37296862"><ele>23.8</ele><time>2022-11-06T13:38:25.0000000+00:00</time></trkpt><trkpt lat="39.46075819" lon="-0.37296301"><ele>23.8</ele><time>2022-11-06T13:38:26.0000000+00:00</time></trkpt><trkpt lat="39.46077" lon="-0.37295437"><ele>23.8</ele><time>2022-11-06T13:38:27.0000000+00:00</time></trkpt><trkpt lat="39.4607721" lon="-0.3729522"><ele>23.8</ele><time>2022-11-06T13:38:28.0000000+00:00</time></trkpt><trkpt lat="39.46079196" lon="-0.37293971"><ele>23.8</ele><time>2022-11-06T13:38:29.0000000+00:00</time></trkpt><trkpt lat="39.46079942" lon="-0.37293367"><ele>23.8</ele><time>2022-11-06T13:38:30.0000000+00:00</time></trkpt><trkpt lat="39.46079984" lon="-0.37293149"><ele>23.8</ele><time>2022-11-06T13:38:31.0000000+00:00</time></trkpt><trkpt lat="39.46081166" lon="-0.37292361"><ele>23.8</ele><time>2022-11-06T13:38:32.0000000+00:00</time></trkpt><trkpt lat="39.46083304" lon="-0.37290702"><ele>23.8</ele><time>2022-11-06T13:38:33.0000000+00:00</time></trkpt><trkpt lat="39.46084695" lon="-0.37289604"><ele>23.8</ele><time>2022-11-06T13:38:34.0000000+00:00</time></trkpt><trkpt lat="39.46085885" lon="-0.37288774"><ele>23.8</ele><time>2022-11-06T13:38:35.0000000+00:00</time></trkpt><trkpt lat="39.46085868" lon="-0.37289109"><ele>23.8</ele><time>2022-11-06T13:38:36.0000000+00:00</time></trkpt><trkpt lat="39.46083681" lon="-0.37288564"><ele>23.8</ele><time>2022-11-06T13:38:37.0000000+00:00</time></trkpt><trkpt lat="39.46083278" lon="-0.37287626"><ele>23.8</ele><time>2022-11-06T13:38:38.0000000+00:00</time></trkpt><trkpt lat="39.46083237" lon="-0.37287206"><ele>23.8</ele><time>2022-11-06T13:38:39.0000000+00:00</time></trkpt><trkpt lat="39.46084502" lon="-0.37286402"><ele>23.8</ele><time>2022-11-06T13:38:40.0000000+00:00</time></trkpt><trkpt lat="39.46085206" lon="-0.37285974"><ele>23.8</ele><time>2022-11-06T13:38:41.0000000+00:00</time></trkpt><trkpt lat="39.46085936" lon="-0.37285429"><ele>23.8</ele><time>2022-11-06T13:38:42.0000000+00:00</time></trkpt><trkpt lat="39.46085005" lon="-0.37285455"><ele>23.8</ele><time>2022-11-06T13:38:43.0000000+00:00</time></trkpt><trkpt lat="39.4608493" lon="-0.37285413"><ele>23.8</ele><time>2022-11-06T13:38:44.0000000+00:00</time></trkpt><trkpt lat="39.46084938" lon="-0.37285346"><ele>23.8</ele><time>2022-11-06T13:38:45.0000000+00:00</time></trkpt><trkpt lat="39.46084854" lon="-0.37285295"><ele>23.8</ele><time>2022-11-06T13:38:46.0000000+00:00</time></trkpt><trkpt lat="39.46084754" lon="-0.37285262"><ele>23.8</ele><time>2022-11-06T13:38:47.0000000+00:00</time></trkpt><trkpt lat="39.46084804" lon="-0.37285111"><ele>23.8</ele><time>2022-11-06T13:38:48.0000000+00:00</time></trkpt><trkpt lat="39.46083605" lon="-0.37286444"><ele>23.8</ele><time>2022-11-06T13:38:49.0000000+00:00</time></trkpt><trkpt lat="39.46082767" lon="-0.3728755"><ele>23.8</ele><time>2022-11-06T13:38:50.0000000+00:00</time></trkpt><trkpt lat="39.46082365" lon="-0.37287835"><ele>23.8</ele><time>2022-11-06T13:38:51.0000000+00:00</time></trkpt><trkpt lat="39.46081342" lon="-0.37287911"><ele>23.8</ele><time>2022-11-06T13:38:52.0000000+00:00</time></trkpt><trkpt lat="39.46080915" lon="-0.37288003"><ele>23.8</ele><time>2022-11-06T13:38:53.0000000+00:00</time></trkpt><trkpt lat="39.46081091" lon="-0.37288045"><ele>23.8</ele><time>2022-11-06T13:38:54.0000000+00:00</time></trkpt><trkpt lat="39.46081711" lon="-0.37287642"><ele>23.8</ele><time>2022-11-06T13:38:55.0000000+00:00</time></trkpt><trkpt lat="39.46082893" lon="-0.37286561"><ele>23.8</ele><time>2022-11-06T13:38:56.0000000+00:00</time></trkpt><trkpt lat="39.46083706" lon="-0.37286209"><ele>23.8</ele><time>2022-11-06T13:38:57.0000000+00:00</time></trkpt><trkpt lat="39.46085324" lon="-0.37285253"><ele>23.8</ele><time>2022-11-06T13:38:58.0000000+00:00</time></trkpt><trkpt lat="39.46087034" lon="-0.37283979"><ele>23.8</ele><time>2022-11-06T13:38:59.0000000+00:00</time></trkpt><trkpt lat="39.46087293" lon="-0.37283728"><ele>23.8</ele><time>2022-11-06T13:39:00.0000000+00:00</time></trkpt><trkpt lat="39.46086715" lon="-0.37283787"><ele>23.8</ele><time>2022-11-06T13:39:01.0000000+00:00</time></trkpt><trkpt lat="39.46085709" lon="-0.37284466"><ele>23.8</ele><time>2022-11-06T13:39:02.0000000+00:00</time></trkpt><trkpt lat="39.4608348" lon="-0.37285823"><ele>23.8</ele><time>2022-11-06T13:39:03.0000000+00:00</time></trkpt><trkpt lat="39.46083647" lon="-0.37285991"><ele>23.8</ele><time>2022-11-06T13:39:04.0000000+00:00</time></trkpt><trkpt lat="39.46083211" lon="-0.3728636"><ele>23.8</ele><time>2022-11-06T13:39:05.0000000+00:00</time></trkpt><trkpt lat="39.46082893" lon="-0.37286611"><ele>23.8</ele><time>2022-11-06T13:39:06.0000000+00:00</time></trkpt><trkpt lat="39.46082851" lon="-0.37286645"><ele>23.8</ele><time>2022-11-06T13:39:07.0000000+00:00</time></trkpt><trkpt lat="39.4608265" lon="-0.3728662"><ele>23.8</ele><time>2022-11-06T13:39:08.0000000+00:00</time></trkpt><trkpt lat="39.46082641" lon="-0.3728631"><ele>23.8</ele><time>2022-11-06T13:39:09.0000000+00:00</time></trkpt><trkpt lat="39.46082214" lon="-0.37286771"><ele>23.8</ele><time>2022-11-06T13:39:10.0000000+00:00</time></trkpt><trkpt lat="39.46081493" lon="-0.37286628"><ele>23.8</ele><time>2022-11-06T13:39:11.0000000+00:00</time></trkpt><trkpt lat="39.46080269" lon="-0.37286754"><ele>23.8</ele><time>2022-11-06T13:39:12.0000000+00:00</time></trkpt><trkpt lat="39.46079222" lon="-0.37287198"><ele>23.8</ele><time>2022-11-06T13:39:13.0000000+00:00</time></trkpt><trkpt lat="39.46078652" lon="-0.37287416"><ele>23.8</ele><time>2022-11-06T13:39:14.0000000+00:00</time></trkpt><trkpt lat="39.46077897" lon="-0.37287827"><ele>23.8</ele><time>2022-11-06T13:39:15.0000000+00:00</time></trkpt><trkpt lat="39.46077176" lon="-0.37288522"><ele>23.8</ele><time>2022-11-06T13:39:16.0000000+00:00</time></trkpt><trkpt lat="39.46077118" lon="-0.37288598"><ele>23.8</ele><time>2022-11-06T13:39:17.0000000+00:00</time></trkpt><trkpt lat="39.46078358" lon="-0.37287634"><ele>23.8</ele><time>2022-11-06T13:39:18.0000000+00:00</time></trkpt><trkpt lat="39.46077202" lon="-0.37288313"><ele>23.8</ele><time>2022-11-06T13:39:19.0000000+00:00</time></trkpt><trkpt lat="39.46076908" lon="-0.3728874"><ele>23.8</ele><time>2022-11-06T13:39:20.0000000+00:00</time></trkpt><trkpt lat="39.46076741" lon="-0.37288707"><ele>23.8</ele><time>2022-11-06T13:39:21.0000000+00:00</time></trkpt><trkpt lat="39.46076254" lon="-0.37288732"><ele>23.8</ele><time>2022-11-06T13:39:22.0000000+00:00</time></trkpt><trkpt lat="39.46076011" lon="-0.37288531"><ele>23.8</ele><time>2022-11-06T13:39:23.0000000+00:00</time></trkpt><trkpt lat="39.46075114" lon="-0.37288598"><ele>23.8</ele><time>2022-11-06T13:39:24.0000000+00:00</time></trkpt><trkpt lat="39.46073581" lon="-0.37289461"><ele>23.8</ele><time>2022-11-06T13:39:25.0000000+00:00</time></trkpt><trkpt lat="39.46071996" lon="-0.3729035"><ele>23.8</ele><time>2022-11-06T13:39:26.0000000+00:00</time></trkpt><trkpt lat="39.46071971" lon="-0.37290199"><ele>23.8</ele><time>2022-11-06T13:39:27.0000000+00:00</time></trkpt><trkpt lat="39.46072089" lon="-0.37290685"><ele>23.8</ele><time>2022-11-06T13:39:28.0000000+00:00</time></trkpt><trkpt lat="39.46070806" lon="-0.37291506"><ele>23.8</ele><time>2022-11-06T13:39:29.0000000+00:00</time></trkpt><trkpt lat="39.46070312" lon="-0.37291892"><ele>23.8</ele><time>2022-11-06T13:39:30.0000000+00:00</time></trkpt><trkpt lat="39.46069742" lon="-0.37292521"><ele>23.8</ele><time>2022-11-06T13:39:31.0000000+00:00</time></trkpt><trkpt lat="39.46069415" lon="-0.37292822"><ele>23.8</ele><time>2022-11-06T13:39:32.0000000+00:00</time></trkpt><trkpt lat="39.46069096" lon="-0.37293099"><ele>23.8</ele><time>2022-11-06T13:39:33.0000000+00:00</time></trkpt><trkpt lat="39.46068325" lon="-0.37293795"><ele>23.8</ele><time>2022-11-06T13:39:34.0000000+00:00</time></trkpt><trkpt lat="39.4606794" lon="-0.37294147"><ele>23.8</ele><time>2022-11-06T13:39:35.0000000+00:00</time></trkpt><trkpt lat="39.46067353" lon="-0.37294524"><ele>23.8</ele><time>2022-11-06T13:39:36.0000000+00:00</time></trkpt><trkpt lat="39.46066842" lon="-0.37295018"><ele>23.8</ele><time>2022-11-06T13:39:37.0000000+00:00</time></trkpt><trkpt lat="39.46066506" lon="-0.37295194"><ele>23.8</ele><time>2022-11-06T13:39:38.0000000+00:00</time></trkpt><trkpt lat="39.46065802" lon="-0.37295924"><ele>23.8</ele><time>2022-11-06T13:39:39.0000000+00:00</time></trkpt><trkpt lat="39.46065819" lon="-0.37295697"><ele>23.8</ele><time>2022-11-06T13:39:40.0000000+00:00</time></trkpt><trkpt lat="39.46065702" lon="-0.37295345"><ele>23.8</ele><time>2022-11-06T13:39:41.0000000+00:00</time></trkpt><trkpt lat="39.46065735" lon="-0.3729475"><ele>23.8</ele><time>2022-11-06T13:39:42.0000000+00:00</time></trkpt><trkpt lat="39.46066523" lon="-0.37293342"><ele>23.8</ele><time>2022-11-06T13:39:43.0000000+00:00</time></trkpt><trkpt lat="39.46071602" lon="-0.37290333"><ele>23.8</ele><time>2022-11-06T13:39:44.0000000+00:00</time></trkpt><trkpt lat="39.46074729" lon="-0.37288019"><ele>23.8</ele><time>2022-11-06T13:39:45.0000000+00:00</time></trkpt><trkpt lat="39.46077704" lon="-0.37285832"><ele>23.8</ele><time>2022-11-06T13:39:46.0000000+00:00</time></trkpt><trkpt lat="39.46073874" lon="-0.37288698"><ele>23.8</ele><time>2022-11-06T13:39:47.0000000+00:00</time></trkpt><trkpt lat="39.46068409" lon="-0.37291381"><ele>23.8</ele><time>2022-11-06T13:39:48.0000000+00:00</time></trkpt><trkpt lat="39.4606861" lon="-0.37291993"><ele>23.8</ele><time>2022-11-06T13:39:49.0000000+00:00</time></trkpt><trkpt lat="39.46068082" lon="-0.37292554"><ele>23.8</ele><time>2022-11-06T13:39:50.0000000+00:00</time></trkpt><trkpt lat="39.46066917" lon="-0.37293912"><ele>23.8</ele><time>2022-11-06T13:39:51.0000000+00:00</time></trkpt><trkpt lat="39.46066976" lon="-0.37292906"><ele>23.8</ele><time>2022-11-06T13:39:52.0000000+00:00</time></trkpt><trkpt lat="39.4606592" lon="-0.37294021"><ele>23.8</ele><time>2022-11-06T13:39:53.0000000+00:00</time></trkpt><trkpt lat="39.46065676" lon="-0.37294122"><ele>23.8</ele><time>2022-11-06T13:39:54.0000000+00:00</time></trkpt><trkpt lat="39.46065542" lon="-0.37294096"><ele>23.8</ele><time>2022-11-06T13:39:55.0000000+00:00</time></trkpt><trkpt lat="39.4606431" lon="-0.3729506"><ele>23.8</ele><time>2022-11-06T13:39:56.0000000+00:00</time></trkpt><trkpt lat="39.46062835" lon="-0.37296259"><ele>23.8</ele><time>2022-11-06T13:39:57.0000000+00:00</time></trkpt><trkpt lat="39.46061997" lon="-0.37296862"><ele>23.8</ele><time>2022-11-06T13:39:58.0000000+00:00</time></trkpt><trkpt lat="39.46063053" lon="-0.37296586"><ele>23.8</ele><time>2022-11-06T13:39:59.0000000+00:00</time></trkpt><trkpt lat="39.46062366" lon="-0.37296871"><ele>23.8</ele><time>2022-11-06T13:40:00.0000000+00:00</time></trkpt><trkpt lat="39.46067772" lon="-0.37296401"><ele>23.8</ele><time>2022-11-06T13:40:01.0000000+00:00</time></trkpt><trkpt lat="39.46069314" lon="-0.37295261"><ele>23.8</ele><time>2022-11-06T13:40:02.0000000+00:00</time></trkpt><trkpt lat="39.46070571" lon="-0.37293501"><ele>23.8</ele><time>2022-11-06T13:40:03.0000000+00:00</time></trkpt><trkpt lat="39.46071116" lon="-0.37292562"><ele>23.8</ele><time>2022-11-06T13:40:04.0000000+00:00</time></trkpt><trkpt lat="39.46072139" lon="-0.37292026"><ele>23.8</ele><time>2022-11-06T13:40:05.0000000+00:00</time></trkpt><trkpt lat="39.46071192" lon="-0.37292588"><ele>23.8</ele><time>2022-11-06T13:40:06.0000000+00:00</time></trkpt><trkpt lat="39.46070303" lon="-0.372933"><ele>23.8</ele><time>2022-11-06T13:40:07.0000000+00:00</time></trkpt><trkpt lat="39.46069717" lon="-0.37293183"><ele>23.8</ele><time>2022-11-06T13:40:08.0000000+00:00</time></trkpt><trkpt lat="39.46069105" lon="-0.37293979"><ele>23.8</ele><time>2022-11-06T13:40:09.0000000+00:00</time></trkpt><trkpt lat="39.46068375" lon="-0.372948"><ele>23.8</ele><time>2022-11-06T13:40:10.0000000+00:00</time></trkpt><trkpt lat="39.46067319" lon="-0.37295496"><ele>23.8</ele><time>2022-11-06T13:40:11.0000000+00:00</time></trkpt><trkpt lat="39.46066422" lon="-0.37296108"><ele>23.8</ele><time>2022-11-06T13:40:12.0000000+00:00</time></trkpt><trkpt lat="39.46065827" lon="-0.37296393"><ele>23.8</ele><time>2022-11-06T13:40:13.0000000+00:00</time></trkpt><trkpt lat="39.46065886" lon="-0.3729615"><ele>23.8</ele><time>2022-11-06T13:40:14.0000000+00:00</time></trkpt><trkpt lat="39.46066473" lon="-0.37295932"><ele>23.8</ele><time>2022-11-06T13:40:15.0000000+00:00</time></trkpt><trkpt lat="39.46067981" lon="-0.372948"><ele>23.8</ele><time>2022-11-06T13:40:16.0000000+00:00</time></trkpt><trkpt lat="39.46069448" lon="-0.37293912"><ele>23.8</ele><time>2022-11-06T13:40:17.0000000+00:00</time></trkpt><trkpt lat="39.46069934" lon="-0.37293661"><ele>23.8</ele><time>2022-11-06T13:40:18.0000000+00:00</time></trkpt><trkpt lat="39.46069817" lon="-0.37293484"><ele>23.8</ele><time>2022-11-06T13:40:19.0000000+00:00</time></trkpt><trkpt lat="39.46069415" lon="-0.37293401"><ele>23.8</ele><time>2022-11-06T13:40:20.0000000+00:00</time></trkpt><trkpt lat="39.46068836" lon="-0.37293434"><ele>23.8</ele><time>2022-11-06T13:40:21.0000000+00:00</time></trkpt><trkpt lat="39.46068862" lon="-0.37293283"><ele>23.8</ele><time>2022-11-06T13:40:22.0000000+00:00</time></trkpt><trkpt lat="39.46068568" lon="-0.37293091"><ele>23.8</ele><time>2022-11-06T13:40:23.0000000+00:00</time></trkpt><trkpt lat="39.46068778" lon="-0.37292915"><ele>23.8</ele><time>2022-11-06T13:40:24.0000000+00:00</time></trkpt><trkpt lat="39.46069398" lon="-0.37292395"><ele>23.8</ele><time>2022-11-06T13:40:25.0000000+00:00</time></trkpt><trkpt lat="39.46067177" lon="-0.37294457"><ele>23.8</ele><time>2022-11-06T13:40:26.0000000+00:00</time></trkpt><trkpt lat="39.46066045" lon="-0.37295379"><ele>23.8</ele><time>2022-11-06T13:40:27.0000000+00:00</time></trkpt><trkpt lat="39.46065433" lon="-0.37295831"><ele>23.8</ele><time>2022-11-06T13:40:28.0000000+00:00</time></trkpt><trkpt lat="39.46064268" lon="-0.37296963"><ele>23.8</ele><time>2022-11-06T13:40:29.0000000+00:00</time></trkpt><trkpt lat="39.46063472" lon="-0.37298329"><ele>23.8</ele><time>2022-11-06T13:40:30.0000000+00:00</time></trkpt><trkpt lat="39.46062869" lon="-0.37299176"><ele>23.8</ele><time>2022-11-06T13:40:31.0000000+00:00</time></trkpt><trkpt lat="39.46062684" lon="-0.37299553"><ele>23.8</ele><time>2022-11-06T13:40:32.0000000+00:00</time></trkpt><trkpt lat="39.46061905" lon="-0.37300752"><ele>23.8</ele><time>2022-11-06T13:40:33.0000000+00:00</time></trkpt><trkpt lat="39.46059843" lon="-0.37301783"><ele>23.8</ele><time>2022-11-06T13:40:34.0000000+00:00</time></trkpt><trkpt lat="39.46058384" lon="-0.37302981"><ele>23.8</ele><time>2022-11-06T13:40:35.0000000+00:00</time></trkpt><trkpt lat="39.46057127" lon="-0.37303995"><ele>23.8</ele><time>2022-11-06T13:40:36.0000000+00:00</time></trkpt><trkpt lat="39.46056616" lon="-0.37305144"><ele>23.8</ele><time>2022-11-06T13:40:37.0000000+00:00</time></trkpt><trkpt lat="39.46056473" lon="-0.3730537"><ele>23.8</ele><time>2022-11-06T13:40:38.0000000+00:00</time></trkpt><trkpt lat="39.4605644" lon="-0.37305764"><ele>23.8</ele><time>2022-11-06T13:40:39.0000000+00:00</time></trkpt><trkpt lat="39.46057504" lon="-0.37305102"><ele>23.8</ele><time>2022-11-06T13:40:40.0000000+00:00</time></trkpt><trkpt lat="39.46058761" lon="-0.37303828"><ele>23.8</ele><time>2022-11-06T13:40:41.0000000+00:00</time></trkpt><trkpt lat="39.46058049" lon="-0.37303325"><ele>23.8</ele><time>2022-11-06T13:40:42.0000000+00:00</time></trkpt><trkpt lat="39.46057496" lon="-0.37303149"><ele>23.8</ele><time>2022-11-06T13:40:43.0000000+00:00</time></trkpt><trkpt lat="39.46057127" lon="-0.37302822"><ele>23.8</ele><time>2022-11-06T13:40:44.0000000+00:00</time></trkpt><trkpt lat="39.46062558" lon="-0.37300986"><ele>23.8</ele><time>2022-11-06T13:40:45.0000000+00:00</time></trkpt><trkpt lat="39.4606535" lon="-0.37299075"><ele>23.8</ele><time>2022-11-06T13:40:46.0000000+00:00</time></trkpt><trkpt lat="39.46067286" lon="-0.3729729"><ele>23.8</ele><time>2022-11-06T13:40:47.0000000+00:00</time></trkpt><trkpt lat="39.46067504" lon="-0.37296586"><ele>23.8</ele><time>2022-11-06T13:40:48.0000000+00:00</time></trkpt><trkpt lat="39.4606659" lon="-0.37296091"><ele>23.8</ele><time>2022-11-06T13:40:49.0000000+00:00</time></trkpt><trkpt lat="39.4606607" lon="-0.3729646"><ele>23.8</ele><time>2022-11-06T13:40:50.0000000+00:00</time></trkpt><trkpt lat="39.46066112" lon="-0.372976"><ele>23.8</ele><time>2022-11-06T13:40:51.0000000+00:00</time></trkpt><trkpt lat="39.46065928" lon="-0.37298095"><ele>23.8</ele><time>2022-11-06T13:40:52.0000000+00:00</time></trkpt><trkpt lat="39.46065593" lon="-0.37297885"><ele>23.8</ele><time>2022-11-06T13:40:53.0000000+00:00</time></trkpt><trkpt lat="39.46064612" lon="-0.37297382"><ele>23.8</ele><time>2022-11-06T13:40:54.0000000+00:00</time></trkpt><trkpt lat="39.46064654" lon="-0.37296745"><ele>23.8</ele><time>2022-11-06T13:40:55.0000000+00:00</time></trkpt><trkpt lat="39.46067001" lon="-0.37296988"><ele>23.8</ele><time>2022-11-06T13:40:56.0000000+00:00</time></trkpt><trkpt lat="39.46068459" lon="-0.37297583"><ele>23.8</ele><time>2022-11-06T13:40:57.0000000+00:00</time></trkpt><trkpt lat="39.46069951" lon="-0.37298824"><ele>23.8</ele><time>2022-11-06T13:40:58.0000000+00:00</time></trkpt><trkpt lat="39.46071804" lon="-0.37298748"><ele>23.8</ele><time>2022-11-06T13:40:59.0000000+00:00</time></trkpt><trkpt lat="39.46074218" lon="-0.37298463"><ele>23.8</ele><time>2022-11-06T13:41:00.0000000+00:00</time></trkpt><trkpt lat="39.46076062" lon="-0.37297675"><ele>23.8</ele><time>2022-11-06T13:41:01.0000000+00:00</time></trkpt><trkpt lat="39.46076497" lon="-0.37297634"><ele>23.8</ele><time>2022-11-06T13:41:02.0000000+00:00</time></trkpt><trkpt lat="39.46077403" lon="-0.37297114"><ele>23.8</ele><time>2022-11-06T13:41:03.0000000+00:00</time></trkpt><trkpt lat="39.46078132" lon="-0.37296854"><ele>23.8</ele><time>2022-11-06T13:41:04.0000000+00:00</time></trkpt><trkpt lat="39.46078853" lon="-0.37296779"><ele>23.8</ele><time>2022-11-06T13:41:05.0000000+00:00</time></trkpt><trkpt lat="39.46079389" lon="-0.37296846"><ele>23.8</ele><time>2022-11-06T13:41:06.0000000+00:00</time></trkpt><trkpt lat="39.46077788" lon="-0.37297231"><ele>23.8</ele><time>2022-11-06T13:41:07.0000000+00:00</time></trkpt><trkpt lat="39.46076456" lon="-0.37297164"><ele>23.8</ele><time>2022-11-06T13:41:08.0000000+00:00</time></trkpt><trkpt lat="39.46078425" lon="-0.3729584"><ele>23.8</ele><time>2022-11-06T13:41:09.0000000+00:00</time></trkpt><trkpt lat="39.46078325" lon="-0.3729563"><ele>23.8</ele><time>2022-11-06T13:41:10.0000000+00:00</time></trkpt><trkpt lat="39.46078459" lon="-0.37294943"><ele>23.8</ele><time>2022-11-06T13:41:11.0000000+00:00</time></trkpt><trkpt lat="39.46079825" lon="-0.37294088"><ele>23.8</ele><time>2022-11-06T13:41:12.0000000+00:00</time></trkpt><trkpt lat="39.46081418" lon="-0.37293384"><ele>23.8</ele><time>2022-11-06T13:41:13.0000000+00:00</time></trkpt><trkpt lat="39.46082943" lon="-0.37291934"><ele>23.8</ele><time>2022-11-06T13:41:14.0000000+00:00</time></trkpt><trkpt lat="39.46084259" lon="-0.37291825"><ele>23.8</ele><time>2022-11-06T13:41:15.0000000+00:00</time></trkpt><trkpt lat="39.46086304" lon="-0.37290987"><ele>23.8</ele><time>2022-11-06T13:41:16.0000000+00:00</time></trkpt><trkpt lat="39.46088039" lon="-0.37290308"><ele>23.8</ele><time>2022-11-06T13:41:17.0000000+00:00</time></trkpt><trkpt lat="39.46088961" lon="-0.37290534"><ele>23.8</ele><time>2022-11-06T13:41:18.0000000+00:00</time></trkpt><trkpt lat="39.46088911" lon="-0.37290559"><ele>23.8</ele><time>2022-11-06T13:41:19.0000000+00:00</time></trkpt><trkpt lat="39.46089523" lon="-0.37290073"><ele>23.8</ele><time>2022-11-06T13:41:20.0000000+00:00</time></trkpt><trkpt lat="39.46088567" lon="-0.37289478"><ele>23.8</ele><time>2022-11-06T13:41:21.0000000+00:00</time></trkpt><trkpt lat="39.46086614" lon="-0.3728843"><ele>23.8</ele><time>2022-11-06T13:41:22.0000000+00:00</time></trkpt><trkpt lat="39.46085583" lon="-0.37287869"><ele>23.8</ele><time>2022-11-06T13:41:23.0000000+00:00</time></trkpt><trkpt lat="39.46084946" lon="-0.37287315"><ele>23.8</ele><time>2022-11-06T13:41:24.0000000+00:00</time></trkpt><trkpt lat="39.46083991" lon="-0.37286662"><ele>23.8</ele><time>2022-11-06T13:41:25.0000000+00:00</time></trkpt><trkpt lat="39.46083714" lon="-0.37285656"><ele>23.8</ele><time>2022-11-06T13:41:26.0000000+00:00</time></trkpt><trkpt lat="39.46083605" lon="-0.37285245"><ele>23.8</ele><time>2022-11-06T13:41:27.0000000+00:00</time></trkpt><trkpt lat="39.46084075" lon="-0.37284809"><ele>23.8</ele><time>2022-11-06T13:41:28.0000000+00:00</time></trkpt><trkpt lat="39.46084259" lon="-0.37284667"><ele>23.8</ele><time>2022-11-06T13:41:29.0000000+00:00</time></trkpt><trkpt lat="39.46083983" lon="-0.37285497"><ele>23.8</ele><time>2022-11-06T13:41:30.0000000+00:00</time></trkpt><trkpt lat="39.46083765" lon="-0.37286175"><ele>23.8</ele><time>2022-11-06T13:41:31.0000000+00:00</time></trkpt><trkpt lat="39.46083421" lon="-0.37284591"><ele>23.8</ele><time>2022-11-06T13:41:32.0000000+00:00</time></trkpt><trkpt lat="39.46084033" lon="-0.37283946"><ele>23.8</ele><time>2022-11-06T13:41:33.0000000+00:00</time></trkpt><trkpt lat="39.46084435" lon="-0.37283359"><ele>23.8</ele><time>2022-11-06T13:41:34.0000000+00:00</time></trkpt><trkpt lat="39.46085516" lon="-0.37282596"><ele>23.8</ele><time>2022-11-06T13:41:35.0000000+00:00</time></trkpt><trkpt lat="39.46085718" lon="-0.37281817"><ele>23.8</ele><time>2022-11-06T13:41:36.0000000+00:00</time></trkpt><trkpt lat="39.46086288" lon="-0.37281054"><ele>23.8</ele><time>2022-11-06T13:41:37.0000000+00:00</time></trkpt><trkpt lat="39.46085399" lon="-0.37280526"><ele>23.8</ele><time>2022-11-06T13:41:38.0000000+00:00</time></trkpt><trkpt lat="39.46086447" lon="-0.37279679"><ele>23.8</ele><time>2022-11-06T13:41:39.0000000+00:00</time></trkpt><trkpt lat="39.46088299" lon="-0.37279453"><ele>23.8</ele><time>2022-11-06T13:41:40.0000000+00:00</time></trkpt><trkpt lat="39.46089163" lon="-0.37278799"><ele>23.8</ele><time>2022-11-06T13:41:41.0000000+00:00</time></trkpt><trkpt lat="39.46088794" lon="-0.37279436"><ele>23.8</ele><time>2022-11-06T13:41:42.0000000+00:00</time></trkpt><trkpt lat="39.4608907" lon="-0.37279503"><ele>23.8</ele><time>2022-11-06T13:41:43.0000000+00:00</time></trkpt><trkpt lat="39.46090085" lon="-0.37279587"><ele>23.8</ele><time>2022-11-06T13:41:44.0000000+00:00</time></trkpt><trkpt lat="39.46089942" lon="-0.37279973"><ele>23.8</ele><time>2022-11-06T13:41:45.0000000+00:00</time></trkpt><trkpt lat="39.46089749" lon="-0.37280149"><ele>23.8</ele><time>2022-11-06T13:41:46.0000000+00:00</time></trkpt><trkpt lat="39.46089313" lon="-0.37280132"><ele>23.8</ele><time>2022-11-06T13:41:47.0000000+00:00</time></trkpt><trkpt lat="39.46088785" lon="-0.37280082"><ele>23.8</ele><time>2022-11-06T13:41:48.0000000+00:00</time></trkpt><trkpt lat="39.46088844" lon="-0.37279788"><ele>23.8</ele><time>2022-11-06T13:41:49.0000000+00:00</time></trkpt><trkpt lat="39.46089196" lon="-0.37279805"><ele>23.8</ele><time>2022-11-06T13:41:50.0000000+00:00</time></trkpt><trkpt lat="39.4608954" lon="-0.37280317"><ele>23.8</ele><time>2022-11-06T13:41:51.0000000+00:00</time></trkpt><trkpt lat="39.46089515" lon="-0.37280853"><ele>23.8</ele><time>2022-11-06T13:41:52.0000000+00:00</time></trkpt><trkpt lat="39.46089372" lon="-0.37281071"><ele>23.8</ele><time>2022-11-06T13:41:53.0000000+00:00</time></trkpt><trkpt lat="39.46088517" lon="-0.37281415"><ele>23.8</ele><time>2022-11-06T13:41:54.0000000+00:00</time></trkpt><trkpt lat="39.46087277" lon="-0.37281004"><ele>23.8</ele><time>2022-11-06T13:41:55.0000000+00:00</time></trkpt><trkpt lat="39.46086782" lon="-0.37279906"><ele>23.8</ele><time>2022-11-06T13:41:56.0000000+00:00</time></trkpt><trkpt lat="39.4608591" lon="-0.37279118"><ele>23.8</ele><time>2022-11-06T13:41:57.0000000+00:00</time></trkpt><trkpt lat="39.46083287" lon="-0.37279545"><ele>23.8</ele><time>2022-11-06T13:41:58.0000000+00:00</time></trkpt><trkpt lat="39.46082541" lon="-0.37278967"><ele>23.8</ele><time>2022-11-06T13:41:59.0000000+00:00</time></trkpt><trkpt lat="39.46083815" lon="-0.37279571"><ele>23.8</ele><time>2022-11-06T13:42:00.0000000+00:00</time></trkpt><trkpt lat="39.46088115" lon="-0.37280409"><ele>23.8</ele><time>2022-11-06T13:42:01.0000000+00:00</time></trkpt><trkpt lat="39.46087989" lon="-0.37282085"><ele>23.8</ele><time>2022-11-06T13:42:02.0000000+00:00</time></trkpt><trkpt lat="39.46089992" lon="-0.37282781"><ele>23.8</ele><time>2022-11-06T13:42:03.0000000+00:00</time></trkpt><trkpt lat="39.46090512" lon="-0.37282772"><ele>23.8</ele><time>2022-11-06T13:42:04.0000000+00:00</time></trkpt><trkpt lat="39.46090839" lon="-0.37282253"><ele>23.8</ele><time>2022-11-06T13:42:05.0000000+00:00</time></trkpt><trkpt lat="39.46090621" lon="-0.37282714"><ele>23.8</ele><time>2022-11-06T13:42:06.0000000+00:00</time></trkpt><trkpt lat="39.4608985" lon="-0.37283284"><ele>23.8</ele><time>2022-11-06T13:42:07.0000000+00:00</time></trkpt><trkpt lat="39.46089339" lon="-0.37281876"><ele>23.8</ele><time>2022-11-06T13:42:08.0000000+00:00</time></trkpt><trkpt lat="39.46088065" lon="-0.37279738"><ele>23.8</ele><time>2022-11-06T13:42:09.0000000+00:00</time></trkpt><trkpt lat="39.4608793" lon="-0.37278037"><ele>23.8</ele><time>2022-11-06T13:42:10.0000000+00:00</time></trkpt><trkpt lat="39.46088718" lon="-0.3728154"><ele>23.8</ele><time>2022-11-06T13:42:11.0000000+00:00</time></trkpt><trkpt lat="39.46088869" lon="-0.37281473"><ele>23.8</ele><time>2022-11-06T13:42:12.0000000+00:00</time></trkpt><trkpt lat="39.46090688" lon="-0.37278917"><ele>23.8</ele><time>2022-11-06T13:42:13.0000000+00:00</time></trkpt><trkpt lat="39.46092197" lon="-0.37279001"><ele>23.8</ele><time>2022-11-06T13:42:14.0000000+00:00</time></trkpt><trkpt lat="39.4609358" lon="-0.37279864"><ele>23.8</ele><time>2022-11-06T13:42:15.0000000+00:00</time></trkpt><trkpt lat="39.46093991" lon="-0.37289444"><ele>23.8</ele><time>2022-11-06T13:42:16.0000000+00:00</time></trkpt><trkpt lat="39.46095021" lon="-0.37290199"><ele>23.8</ele><time>2022-11-06T13:42:17.0000000+00:00</time></trkpt><trkpt lat="39.46095097" lon="-0.37290651"><ele>23.8</ele><time>2022-11-06T13:42:18.0000000+00:00</time></trkpt><trkpt lat="39.46095449" lon="-0.37292068"><ele>23.8</ele><time>2022-11-06T13:42:19.0000000+00:00</time></trkpt><trkpt lat="39.46096187" lon="-0.37293451"><ele>23.8</ele><time>2022-11-06T13:42:20.0000000+00:00</time></trkpt><trkpt lat="39.46095617" lon="-0.37293283"><ele>23.8</ele><time>2022-11-06T13:42:21.0000000+00:00</time></trkpt><trkpt lat="39.46096497" lon="-0.37293392"><ele>23.8</ele><time>2022-11-06T13:42:22.0000000+00:00</time></trkpt><trkpt lat="39.46097343" lon="-0.37292185"><ele>23.8</ele><time>2022-11-06T13:42:23.0000000+00:00</time></trkpt><trkpt lat="39.46098089" lon="-0.37290601"><ele>23.8</ele><time>2022-11-06T13:42:24.0000000+00:00</time></trkpt><trkpt lat="39.46098475" lon="-0.37288975"><ele>23.8</ele><time>2022-11-06T13:42:25.0000000+00:00</time></trkpt><trkpt lat="39.46096983" lon="-0.37288598"><ele>23.8</ele><time>2022-11-06T13:42:26.0000000+00:00</time></trkpt><trkpt lat="39.46095893" lon="-0.37288372"><ele>23.8</ele><time>2022-11-06T13:42:27.0000000+00:00</time></trkpt><trkpt lat="39.46096396" lon="-0.37287911"><ele>23.8</ele><time>2022-11-06T13:42:28.0000000+00:00</time></trkpt><trkpt lat="39.46096648" lon="-0.37287676"><ele>23.8</ele><time>2022-11-06T13:42:29.0000000+00:00</time></trkpt><trkpt lat="39.46096849" lon="-0.37287751"><ele>23.8</ele><time>2022-11-06T13:42:30.0000000+00:00</time></trkpt><trkpt lat="39.46095063" lon="-0.37290928"><ele>23.8</ele><time>2022-11-06T13:42:31.0000000+00:00</time></trkpt><trkpt lat="39.46094125" lon="-0.37292118"><ele>23.8</ele><time>2022-11-06T13:42:32.0000000+00:00</time></trkpt><trkpt lat="39.46092641" lon="-0.37289252"><ele>23.8</ele><time>2022-11-06T13:42:33.0000000+00:00</time></trkpt><trkpt lat="39.46092884" lon="-0.37289151"><ele>23.8</ele><time>2022-11-06T13:42:34.0000000+00:00</time></trkpt><trkpt lat="39.46093949" lon="-0.37288791"><ele>23.8</ele><time>2022-11-06T13:42:35.0000000+00:00</time></trkpt><trkpt lat="39.46094795" lon="-0.37288003"><ele>23.8</ele><time>2022-11-06T13:42:36.0000000+00:00</time></trkpt><trkpt lat="39.46095365" lon="-0.3728833"><ele>23.8</ele><time>2022-11-06T13:42:37.0000000+00:00</time></trkpt><trkpt lat="39.46096128" lon="-0.37289017"><ele>23.8</ele><time>2022-11-06T13:42:38.0000000+00:00</time></trkpt><trkpt lat="39.4609643" lon="-0.37289159"><ele>23.8</ele><time>2022-11-06T13:42:39.0000000+00:00</time></trkpt><trkpt lat="39.46096463" lon="-0.37288807"><ele>23.8</ele><time>2022-11-06T13:42:40.0000000+00:00</time></trkpt><trkpt lat="39.4609627" lon="-0.37289092"><ele>23.8</ele><time>2022-11-06T13:42:41.0000000+00:00</time></trkpt><trkpt lat="39.46096639" lon="-0.37289352"><ele>23.8</ele><time>2022-11-06T13:42:42.0000000+00:00</time></trkpt><trkpt lat="39.4609793" lon="-0.37287726"><ele>23.8</ele><time>2022-11-06T13:42:44.0000000+00:00</time></trkpt><trkpt lat="39.46093588" lon="-0.37288196"><ele>23.8</ele><time>2022-11-06T13:42:45.0000000+00:00</time></trkpt><trkpt lat="39.4609296" lon="-0.37287156"><ele>23.8</ele><time>2022-11-06T13:42:46.0000000+00:00</time></trkpt><trkpt lat="39.4609244" lon="-0.37286435"><ele>23.8</ele><time>2022-11-06T13:42:47.0000000+00:00</time></trkpt><trkpt lat="39.4609192" lon="-0.37285656"><ele>23.8</ele><time>2022-11-06T13:42:48.0000000+00:00</time></trkpt><trkpt lat="39.46090864" lon="-0.37284616"><ele>23.8</ele><time>2022-11-06T13:42:49.0000000+00:00</time></trkpt><trkpt lat="39.46089724" lon="-0.37283829"><ele>23.8</ele><time>2022-11-06T13:42:50.0000000+00:00</time></trkpt><trkpt lat="39.4608866" lon="-0.37285086"><ele>23.8</ele><time>2022-11-06T13:42:51.0000000+00:00</time></trkpt><trkpt lat="39.46087277" lon="-0.37287466"><ele>23.8</ele><time>2022-11-06T13:42:52.0000000+00:00</time></trkpt><trkpt lat="39.46085567" lon="-0.3729009"><ele>23.8</ele><time>2022-11-06T13:42:53.0000000+00:00</time></trkpt><trkpt lat="39.46083731" lon="-0.37293401"><ele>23.8</ele><time>2022-11-06T13:42:54.0000000+00:00</time></trkpt><trkpt lat="39.46082935" lon="-0.3729729"><ele>23.8</ele><time>2022-11-06T13:42:55.0000000+00:00</time></trkpt><trkpt lat="39.46082801" lon="-0.37297407"><ele>23.8</ele><time>2022-11-06T13:42:56.0000000+00:00</time></trkpt><trkpt lat="39.46081149" lon="-0.37296292"><ele>23.8</ele><time>2022-11-06T13:42:58.0000000+00:00</time></trkpt><trkpt lat="39.46081216" lon="-0.37288279"><ele>23.8</ele><time>2022-11-06T13:42:59.0000000+00:00</time></trkpt><trkpt lat="39.4608161" lon="-0.37276427"><ele>23.8</ele><time>2022-11-06T13:43:00.0000000+00:00</time></trkpt><trkpt lat="39.46082206" lon="-0.37275036"><ele>23.8</ele><time>2022-11-06T13:43:01.0000000+00:00</time></trkpt><trkpt lat="39.46084402" lon="-0.37274231"><ele>23.8</ele><time>2022-11-06T13:43:02.0000000+00:00</time></trkpt><trkpt lat="39.46084569" lon="-0.37274424"><ele>23.8</ele><time>2022-11-06T13:43:03.0000000+00:00</time></trkpt><trkpt lat="39.46086774" lon="-0.37272387"><ele>23.8</ele><time>2022-11-06T13:43:04.0000000+00:00</time></trkpt><trkpt lat="39.46090043" lon="-0.37269219"><ele>23.8</ele><time>2022-11-06T13:43:05.0000000+00:00</time></trkpt><trkpt lat="39.46091962" lon="-0.37267727"><ele>23.8</ele><time>2022-11-06T13:43:06.0000000+00:00</time></trkpt><trkpt lat="39.46094141" lon="-0.37266059"><ele>23.8</ele><time>2022-11-06T13:43:07.0000000+00:00</time></trkpt><trkpt lat="39.46095382" lon="-0.37265271"><ele>23.8</ele><time>2022-11-06T13:43:08.0000000+00:00</time></trkpt><trkpt lat="39.46096723" lon="-0.37264424"><ele>23.8</ele><time>2022-11-06T13:43:09.0000000+00:00</time></trkpt><trkpt lat="39.46098173" lon="-0.37263318"><ele>23.8</ele><time>2022-11-06T13:43:10.0000000+00:00</time></trkpt><trkpt lat="39.4610083" lon="-0.37261013"><ele>23.8</ele><time>2022-11-06T13:43:11.0000000+00:00</time></trkpt><trkpt lat="39.46103445" lon="-0.37258918"><ele>23.8</ele><time>2022-11-06T13:43:12.0000000+00:00</time></trkpt><trkpt lat="39.46104862" lon="-0.37257518"><ele>23.8</ele><time>2022-11-06T13:43:13.0000000+00:00</time></trkpt><trkpt lat="39.46104728" lon="-0.37256512"><ele>23.8</ele><time>2022-11-06T13:43:14.0000000+00:00</time></trkpt><trkpt lat="39.46105298" lon="-0.37256361"><ele>23.8</ele><time>2022-11-06T13:43:15.0000000+00:00</time></trkpt><trkpt lat="39.46105826" lon="-0.3725621"><ele>23.8</ele><time>2022-11-06T13:43:16.0000000+00:00</time></trkpt><trkpt lat="39.46106957" lon="-0.37256562"><ele>23.8</ele><time>2022-11-06T13:43:17.0000000+00:00</time></trkpt><trkpt lat="39.46107578" lon="-0.37255992"><ele>23.8</ele><time>2022-11-06T13:43:18.0000000+00:00</time></trkpt><trkpt lat="39.46107854" lon="-0.37256093"><ele>23.8</ele><time>2022-11-06T13:43:19.0000000+00:00</time></trkpt><trkpt lat="39.46108986" lon="-0.37255908"><ele>23.8</ele><time>2022-11-06T13:43:20.0000000+00:00</time></trkpt><trkpt lat="39.4610948" lon="-0.37256302"><ele>23.8</ele><time>2022-11-06T13:43:21.0000000+00:00</time></trkpt><trkpt lat="39.46110612" lon="-0.37256059"><ele>23.8</ele><time>2022-11-06T13:43:22.0000000+00:00</time></trkpt><trkpt lat="39.46111475" lon="-0.37255372"><ele>23.8</ele><time>2022-11-06T13:43:23.0000000+00:00</time></trkpt><trkpt lat="39.46110268" lon="-0.37257115"><ele>23.8</ele><time>2022-11-06T13:43:24.0000000+00:00</time></trkpt><trkpt lat="39.46112045" lon="-0.37257811"><ele>23.8</ele><time>2022-11-06T13:43:25.0000000+00:00</time></trkpt><trkpt lat="39.46112766" lon="-0.37259337"><ele>23.8</ele><time>2022-11-06T13:43:26.0000000+00:00</time></trkpt><trkpt lat="39.46112858" lon="-0.37258725"><ele>23.8</ele><time>2022-11-06T13:43:27.0000000+00:00</time></trkpt><trkpt lat="39.46113805" lon="-0.37259144"><ele>23.8</ele><time>2022-11-06T13:43:29.0000000+00:00</time></trkpt><trkpt lat="39.46113965" lon="-0.37260074"><ele>23.8</ele><time>2022-11-06T13:43:30.0000000+00:00</time></trkpt><trkpt lat="39.46114484" lon="-0.37256269"><ele>23.8</ele><time>2022-11-06T13:43:31.0000000+00:00</time></trkpt><trkpt lat="39.46114493" lon="-0.37257191"><ele>23.8</ele><time>2022-11-06T13:43:32.0000000+00:00</time></trkpt><trkpt lat="39.46114627" lon="-0.37260904"><ele>23.8</ele><time>2022-11-06T13:43:33.0000000+00:00</time></trkpt><trkpt lat="39.46114576" lon="-0.37255464"><ele>23.8</ele><time>2022-11-06T13:43:34.0000000+00:00</time></trkpt><trkpt lat="39.46114744" lon="-0.37255037"><ele>23.8</ele><time>2022-11-06T13:43:35.0000000+00:00</time></trkpt><trkpt lat="39.46115205" lon="-0.37254375"><ele>23.8</ele><time>2022-11-06T13:43:36.0000000+00:00</time></trkpt><trkpt lat="39.46115733" lon="-0.37255003"><ele>23.8</ele><time>2022-11-06T13:43:37.0000000+00:00</time></trkpt><trkpt lat="39.46116303" lon="-0.3725559"><ele>23.8</ele><time>2022-11-06T13:43:38.0000000+00:00</time></trkpt><trkpt lat="39.46116395" lon="-0.37257258"><ele>23.8</ele><time>2022-11-06T13:43:39.0000000+00:00</time></trkpt><trkpt lat="39.46116756" lon="-0.37257342"><ele>23.8</ele><time>2022-11-06T13:43:40.0000000+00:00</time></trkpt><trkpt lat="39.46116957" lon="-0.37259177"><ele>23.8</ele><time>2022-11-06T13:43:41.0000000+00:00</time></trkpt><trkpt lat="39.46116898" lon="-0.3725989"><ele>23.8</ele><time>2022-11-06T13:43:42.0000000+00:00</time></trkpt><trkpt lat="39.46116496" lon="-0.37261298"><ele>23.8</ele><time>2022-11-06T13:43:43.0000000+00:00</time></trkpt><trkpt lat="39.46115457" lon="-0.37264341"><ele>23.8</ele><time>2022-11-06T13:43:44.0000000+00:00</time></trkpt><trkpt lat="39.46108676" lon="-0.37272873"><ele>23.8</ele><time>2022-11-06T13:43:45.0000000+00:00</time></trkpt><trkpt lat="39.46106773" lon="-0.37276176"><ele>23.8</ele><time>2022-11-06T13:43:46.0000000+00:00</time></trkpt><trkpt lat="39.46103487" lon="-0.37282244"><ele>23.8</ele><time>2022-11-06T13:43:47.0000000+00:00</time></trkpt><trkpt lat="39.46103211" lon="-0.37282479"><ele>23.8</ele><time>2022-11-06T13:43:48.0000000+00:00</time></trkpt><trkpt lat="39.46103219" lon="-0.37282504"><ele>23.8</ele><time>2022-11-06T13:43:49.0000000+00:00</time></trkpt><trkpt lat="39.46103253" lon="-0.37282404"><ele>23.8</ele><time>2022-11-06T13:43:50.0000000+00:00</time></trkpt><trkpt lat="39.46103102" lon="-0.37282395"><ele>23.8</ele><time>2022-11-06T13:43:51.0000000+00:00</time></trkpt><trkpt lat="39.46102909" lon="-0.37282253"><ele>23.8</ele><time>2022-11-06T13:43:52.0000000+00:00</time></trkpt><trkpt lat="39.4610285" lon="-0.37282043"><ele>23.8</ele><time>2022-11-06T13:43:53.0000000+00:00</time></trkpt><trkpt lat="39.46102666" lon="-0.37281968"><ele>23.8</ele><time>2022-11-06T13:43:54.0000000+00:00</time></trkpt><trkpt lat="39.46101618" lon="-0.37282202"><ele>23.8</ele><time>2022-11-06T13:43:55.0000000+00:00</time></trkpt><trkpt lat="39.46098927" lon="-0.37283921"><ele>23.8</ele><time>2022-11-06T13:43:57.0000000+00:00</time></trkpt><trkpt lat="39.46098944" lon="-0.3728439"><ele>23.8</ele><time>2022-11-06T13:43:58.0000000+00:00</time></trkpt><trkpt lat="39.46098986" lon="-0.37284466"><ele>23.8</ele><time>2022-11-06T13:43:59.0000000+00:00</time></trkpt><trkpt lat="39.46098961" lon="-0.37284549"><ele>23.8</ele><time>2022-11-06T13:44:00.0000000+00:00</time></trkpt><trkpt lat="39.46097704" lon="-0.37285832"><ele>23.8</ele><time>2022-11-06T13:44:01.0000000+00:00</time></trkpt><trkpt lat="39.46097813" lon="-0.37286041"><ele>23.8</ele><time>2022-11-06T13:44:02.0000000+00:00</time></trkpt><trkpt lat="39.46097167" lon="-0.37286645"><ele>23.8</ele><time>2022-11-06T13:44:03.0000000+00:00</time></trkpt><trkpt lat="39.4609705" lon="-0.37286955"><ele>23.8</ele><time>2022-11-06T13:44:04.0000000+00:00</time></trkpt><trkpt lat="39.46097058" lon="-0.37286737"><ele>23.8</ele><time>2022-11-06T13:44:05.0000000+00:00</time></trkpt><trkpt lat="39.46096882" lon="-0.37286712"><ele>23.8</ele><time>2022-11-06T13:44:06.0000000+00:00</time></trkpt><trkpt lat="39.46096396" lon="-0.3728688"><ele>23.8</ele><time>2022-11-06T13:44:07.0000000+00:00</time></trkpt><trkpt lat="39.46096421" lon="-0.37286913"><ele>23.8</ele><time>2022-11-06T13:44:08.0000000+00:00</time></trkpt><trkpt lat="39.46096379" lon="-0.37287148"><ele>23.8</ele><time>2022-11-06T13:44:09.0000000+00:00</time></trkpt><trkpt lat="39.46096405" lon="-0.37287156"><ele>23.8</ele><time>2022-11-06T13:44:10.0000000+00:00</time></trkpt><trkpt lat="39.46096689" lon="-0.37287014"><ele>23.8</ele><time>2022-11-06T13:44:11.0000000+00:00</time></trkpt><trkpt lat="39.46097025" lon="-0.37286586"><ele>23.8</ele><time>2022-11-06T13:44:12.0000000+00:00</time></trkpt><trkpt lat="39.46097544" lon="-0.37286134"><ele>23.8</ele><time>2022-11-06T13:44:13.0000000+00:00</time></trkpt><trkpt lat="39.46097637" lon="-0.37286108"><ele>23.8</ele><time>2022-11-06T13:44:14.0000000+00:00</time></trkpt><trkpt lat="39.46095751" lon="-0.37286896"><ele>23.8</ele><time>2022-11-06T13:44:15.0000000+00:00</time></trkpt><trkpt lat="39.46093923" lon="-0.37287491"><ele>23.8</ele><time>2022-11-06T13:44:16.0000000+00:00</time></trkpt><trkpt lat="39.46092767" lon="-0.37288045"><ele>23.8</ele><time>2022-11-06T13:44:17.0000000+00:00</time></trkpt><trkpt lat="39.46092398" lon="-0.37288623"><ele>23.8</ele><time>2022-11-06T13:44:18.0000000+00:00</time></trkpt><trkpt lat="39.46092624" lon="-0.37288539"><ele>23.8</ele><time>2022-11-06T13:44:19.0000000+00:00</time></trkpt><trkpt lat="39.46092566" lon="-0.37288464"><ele>23.8</ele><time>2022-11-06T13:44:20.0000000+00:00</time></trkpt><trkpt lat="39.46092172" lon="-0.37288774"><ele>23.8</ele><time>2022-11-06T13:44:21.0000000+00:00</time></trkpt><trkpt lat="39.46092566" lon="-0.37288489"><ele>23.8</ele><time>2022-11-06T13:44:22.0000000+00:00</time></trkpt><trkpt lat="39.460927" lon="-0.37288941"><ele>23.8</ele><time>2022-11-06T13:44:23.0000000+00:00</time></trkpt><trkpt lat="39.46092524" lon="-0.37289654"><ele>23.8</ele><time>2022-11-06T13:44:24.0000000+00:00</time></trkpt><trkpt lat="39.46091845" lon="-0.37290383"><ele>23.8</ele><time>2022-11-06T13:44:25.0000000+00:00</time></trkpt><trkpt lat="39.46090428" lon="-0.37291205"><ele>23.8</ele><time>2022-11-06T13:44:26.0000000+00:00</time></trkpt><trkpt lat="39.46088123" lon="-0.372933"><ele>23.8</ele><time>2022-11-06T13:44:28.0000000+00:00</time></trkpt><trkpt lat="39.46086522" lon="-0.37294122"><ele>23.8</ele><time>2022-11-06T13:44:29.0000000+00:00</time></trkpt><trkpt lat="39.4608467" lon="-0.37295437"><ele>23.8</ele><time>2022-11-06T13:44:30.0000000+00:00</time></trkpt><trkpt lat="39.46085533" lon="-0.37295236"><ele>23.8</ele><time>2022-11-06T13:44:31.0000000+00:00</time></trkpt><trkpt lat="39.46086296" lon="-0.3729439"><ele>23.8</ele><time>2022-11-06T13:44:32.0000000+00:00</time></trkpt><trkpt lat="39.46087771" lon="-0.37293392"><ele>23.8</ele><time>2022-11-06T13:44:33.0000000+00:00</time></trkpt><trkpt lat="39.46089489" lon="-0.37292336"><ele>23.8</ele><time>2022-11-06T13:44:34.0000000+00:00</time></trkpt><trkpt lat="39.46093186" lon="-0.37290601"><ele>24.4</ele><time>2022-11-06T13:44:39.0000000+00:00</time></trkpt><trkpt lat="39.46092976" lon="-0.37291205"><ele>24.4</ele><time>2022-11-06T13:44:40.0000000+00:00</time></trkpt><trkpt lat="39.46092784" lon="-0.3729149"><ele>24.4</ele><time>2022-11-06T13:44:41.0000000+00:00</time></trkpt><trkpt lat="39.46093261" lon="-0.37290936"><ele>24.4</ele><time>2022-11-06T13:44:42.0000000+00:00</time></trkpt><trkpt lat="39.46093555" lon="-0.37290727"><ele>24.2</ele><time>2022-11-06T13:44:43.0000000+00:00</time></trkpt><trkpt lat="39.46093563" lon="-0.3729102"><ele>24.2</ele><time>2022-11-06T13:44:44.0000000+00:00</time></trkpt><trkpt lat="39.46093856" lon="-0.37290702"><ele>24.2</ele><time>2022-11-06T13:44:45.0000000+00:00</time></trkpt><trkpt lat="39.46093789" lon="-0.37290878"><ele>24.2</ele><time>2022-11-06T13:44:46.0000000+00:00</time></trkpt><trkpt lat="39.46093949" lon="-0.37290417"><ele>24.2</ele><time>2022-11-06T13:44:47.0000000+00:00</time></trkpt><trkpt lat="39.46094032" lon="-0.37290325"><ele>24.2</ele><time>2022-11-06T13:44:48.0000000+00:00</time></trkpt><trkpt lat="39.4609384" lon="-0.37290576"><ele>24.2</ele><time>2022-11-06T13:44:49.0000000+00:00</time></trkpt><trkpt lat="39.46093353" lon="-0.37290819"><ele>24.2</ele><time>2022-11-06T13:44:50.0000000+00:00</time></trkpt><trkpt lat="39.46093337" lon="-0.37290702"><ele>24.2</ele><time>2022-11-06T13:44:51.0000000+00:00</time></trkpt><trkpt lat="39.46095206" lon="-0.37289268"><ele>24.2</ele><time>2022-11-06T13:44:52.0000000+00:00</time></trkpt><trkpt lat="39.46096279" lon="-0.37288154"><ele>24.2</ele><time>2022-11-06T13:44:53.0000000+00:00</time></trkpt><trkpt lat="39.46096974" lon="-0.37287684"><ele>24.2</ele><time>2022-11-06T13:44:54.0000000+00:00</time></trkpt><trkpt lat="39.46098064" lon="-0.3728667"><ele>24.2</ele><time>2022-11-06T13:44:55.0000000+00:00</time></trkpt><trkpt lat="39.46098257" lon="-0.37286578"><ele>24.2</ele><time>2022-11-06T13:44:56.0000000+00:00</time></trkpt><trkpt lat="39.46095206" lon="-0.3728962"><ele>24.2</ele><time>2022-11-06T13:44:57.0000000+00:00</time></trkpt><trkpt lat="39.46093672" lon="-0.37290987"><ele>24.2</ele><time>2022-11-06T13:44:58.0000000+00:00</time></trkpt><trkpt lat="39.46092725" lon="-0.37292143"><ele>24.2</ele><time>2022-11-06T13:44:59.0000000+00:00</time></trkpt><trkpt lat="39.46094519" lon="-0.37290601"><ele>24.2</ele><time>2022-11-06T13:45:00.0000000+00:00</time></trkpt><trkpt lat="39.46095566" lon="-0.37289771"><ele>24.2</ele><time>2022-11-06T13:45:01.0000000+00:00</time></trkpt><trkpt lat="39.46097477" lon="-0.3728817"><ele>24.2</ele><time>2022-11-06T13:45:02.0000000+00:00</time></trkpt><trkpt lat="39.46097402" lon="-0.37287927"><ele>24.2</ele><time>2022-11-06T13:45:03.0000000+00:00</time></trkpt><trkpt lat="39.46097435" lon="-0.37287651"><ele>24.2</ele><time>2022-11-06T13:45:04.0000000+00:00</time></trkpt><trkpt lat="39.46100704" lon="-0.37285103"><ele>24.2</ele><time>2022-11-06T13:45:05.0000000+00:00</time></trkpt><trkpt lat="39.46103185" lon="-0.3728201"><ele>24.2</ele><time>2022-11-06T13:45:06.0000000+00:00</time></trkpt><trkpt lat="39.46105675" lon="-0.372789"><ele>24.2</ele><time>2022-11-06T13:45:07.0000000+00:00</time></trkpt><trkpt lat="39.4610912" lon="-0.37276008"><ele>24.2</ele><time>2022-11-06T13:45:08.0000000+00:00</time></trkpt><trkpt lat="39.46112154" lon="-0.37272949"><ele>24.2</ele><time>2022-11-06T13:45:09.0000000+00:00</time></trkpt><trkpt lat="39.46114987" lon="-0.37269948"><ele>24.2</ele><time>2022-11-06T13:45:10.0000000+00:00</time></trkpt><trkpt lat="39.46118206" lon="-0.37266704"><ele>24.2</ele><time>2022-11-06T13:45:11.0000000+00:00</time></trkpt><trkpt lat="39.46122145" lon="-0.37262865"><ele>24.2</ele><time>2022-11-06T13:45:12.0000000+00:00</time></trkpt><trkpt lat="39.46125892" lon="-0.37259923"><ele>24.2</ele><time>2022-11-06T13:45:13.0000000+00:00</time></trkpt><trkpt lat="39.46127309" lon="-0.37258012"><ele>24.2</ele><time>2022-11-06T13:45:14.0000000+00:00</time></trkpt><trkpt lat="39.46129764" lon="-0.37255791"><ele>24.2</ele><time>2022-11-06T13:45:15.0000000+00:00</time></trkpt><trkpt lat="39.46131977" lon="-0.37253796"><ele>24.2</ele><time>2022-11-06T13:45:16.0000000+00:00</time></trkpt><trkpt lat="39.46121777" lon="-0.37257417"><ele>24.2</ele><time>2022-11-06T13:45:17.0000000+00:00</time></trkpt><trkpt lat="39.46118709" lon="-0.37261767"><ele>24.4</ele><time>2022-11-06T13:45:18.0000000+00:00</time></trkpt><trkpt lat="39.46115255" lon="-0.37265749"><ele>24.4</ele><time>2022-11-06T13:45:19.0000000+00:00</time></trkpt><trkpt lat="39.46115976" lon="-0.37266847"><ele>24.2</ele><time>2022-11-06T13:45:20.0000000+00:00</time></trkpt><trkpt lat="39.46115926" lon="-0.3726621"><ele>24.2</ele><time>2022-11-06T13:45:21.0000000+00:00</time></trkpt><trkpt lat="39.46115247" lon="-0.37265942"><ele>24.2</ele><time>2022-11-06T13:45:22.0000000+00:00</time></trkpt><trkpt lat="39.46114685" lon="-0.37265573"><ele>24.2</ele><time>2022-11-06T13:45:23.0000000+00:00</time></trkpt><trkpt lat="39.46111081" lon="-0.3726647"><ele>24.2</ele><time>2022-11-06T13:45:24.0000000+00:00</time></trkpt><trkpt lat="39.46107871" lon="-0.37267886"><ele>24.2</ele><time>2022-11-06T13:45:25.0000000+00:00</time></trkpt><trkpt lat="39.46106823" lon="-0.37268297"><ele>24.2</ele><time>2022-11-06T13:45:26.0000000+00:00</time></trkpt><trkpt lat="39.46105708" lon="-0.37268934"><ele>24.2</ele><time>2022-11-06T13:45:27.0000000+00:00</time></trkpt><trkpt lat="39.46104258" lon="-0.37270107"><ele>24.2</ele><time>2022-11-06T13:45:28.0000000+00:00</time></trkpt><trkpt lat="39.46102817" lon="-0.37271314"><ele>24.2</ele><time>2022-11-06T13:45:29.0000000+00:00</time></trkpt><trkpt lat="39.46102615" lon="-0.37270904"><ele>24.2</ele><time>2022-11-06T13:45:30.0000000+00:00</time></trkpt><trkpt lat="39.46103554" lon="-0.37269889"><ele>24.2</ele><time>2022-11-06T13:45:31.0000000+00:00</time></trkpt><trkpt lat="39.46102942" lon="-0.37270451"><ele>24.2</ele><time>2022-11-06T13:45:32.0000000+00:00</time></trkpt><trkpt lat="39.46103613" lon="-0.37270141"><ele>24.2</ele><time>2022-11-06T13:45:33.0000000+00:00</time></trkpt><trkpt lat="39.46104057" lon="-0.37269789"><ele>24.2</ele><time>2022-11-06T13:45:34.0000000+00:00</time></trkpt><trkpt lat="39.461043" lon="-0.37269671"><ele>24.2</ele><time>2022-11-06T13:45:35.0000000+00:00</time></trkpt><trkpt lat="39.46104325" lon="-0.37269604"><ele>24.2</ele><time>2022-11-06T13:45:36.0000000+00:00</time></trkpt><trkpt lat="39.46103043" lon="-0.3727051"><ele>24.2</ele><time>2022-11-06T13:45:37.0000000+00:00</time></trkpt><trkpt lat="39.46104686" lon="-0.37269311"><ele>24.2</ele><time>2022-11-06T13:45:38.0000000+00:00</time></trkpt><trkpt lat="39.46105817" lon="-0.37268573"><ele>24.2</ele><time>2022-11-06T13:45:39.0000000+00:00</time></trkpt><trkpt lat="39.46108877" lon="-0.37266646"><ele>24.2</ele><time>2022-11-06T13:45:40.0000000+00:00</time></trkpt><trkpt lat="39.46110763" lon="-0.37265539"><ele>24.2</ele><time>2022-11-06T13:45:41.0000000+00:00</time></trkpt><trkpt lat="39.46111802" lon="-0.37264902"><ele>24.2</ele><time>2022-11-06T13:45:42.0000000+00:00</time></trkpt><trkpt lat="39.46111953" lon="-0.37264735"><ele>24.2</ele><time>2022-11-06T13:45:43.0000000+00:00</time></trkpt><trkpt lat="39.46113395" lon="-0.3726372"><ele>24.2</ele><time>2022-11-06T13:45:44.0000000+00:00</time></trkpt><trkpt lat="39.46113428" lon="-0.37263243"><ele>24.2</ele><time>2022-11-06T13:45:45.0000000+00:00</time></trkpt><trkpt lat="39.46112925" lon="-0.37263025"><ele>24.2</ele><time>2022-11-06T13:45:46.0000000+00:00</time></trkpt><trkpt lat="39.46113839" lon="-0.37262161"><ele>24.2</ele><time>2022-11-06T13:45:47.0000000+00:00</time></trkpt><trkpt lat="39.46114903" lon="-0.37261298"><ele>24.2</ele><time>2022-11-06T13:45:48.0000000+00:00</time></trkpt><trkpt lat="39.46114652" lon="-0.37261348"><ele>24.2</ele><time>2022-11-06T13:45:49.0000000+00:00</time></trkpt><trkpt lat="39.46113688" lon="-0.37261499"><ele>24.2</ele><time>2022-11-06T13:45:50.0000000+00:00</time></trkpt><trkpt lat="39.46116169" lon="-0.37260409"><ele>24.2</ele><time>2022-11-06T13:45:51.0000000+00:00</time></trkpt><trkpt lat="39.46116479" lon="-0.37259957"><ele>24.2</ele><time>2022-11-06T13:45:52.0000000+00:00</time></trkpt><trkpt lat="39.46117577" lon="-0.37259228"><ele>24.2</ele><time>2022-11-06T13:45:53.0000000+00:00</time></trkpt><trkpt lat="39.46117384" lon="-0.37259194"><ele>24.2</ele><time>2022-11-06T13:45:54.0000000+00:00</time></trkpt><trkpt lat="39.46116773" lon="-0.37258792"><ele>24.2</ele><time>2022-11-06T13:45:55.0000000+00:00</time></trkpt><trkpt lat="39.46116965" lon="-0.37258716"><ele>24.2</ele><time>2022-11-06T13:45:56.0000000+00:00</time></trkpt><trkpt lat="39.46117099" lon="-0.37258373"><ele>24.2</ele><time>2022-11-06T13:45:57.0000000+00:00</time></trkpt><trkpt lat="39.46117208" lon="-0.37257937"><ele>24.2</ele><time>2022-11-06T13:45:58.0000000+00:00</time></trkpt><trkpt lat="39.46115884" lon="-0.37258138"><ele>24.2</ele><time>2022-11-06T13:45:59.0000000+00:00</time></trkpt><trkpt lat="39.46081267" lon="-0.37266864"><ele>24.2</ele><time>2022-11-06T13:46:00.0000000+00:00</time></trkpt><trkpt lat="39.46080806" lon="-0.37266897"><ele>24.2</ele><time>2022-11-06T13:46:01.0000000+00:00</time></trkpt><trkpt lat="39.46083086" lon="-0.37266805"><ele>24.2</ele><time>2022-11-06T13:46:02.0000000+00:00</time></trkpt><trkpt lat="39.46085416" lon="-0.37267903"><ele>24.2</ele><time>2022-11-06T13:46:03.0000000+00:00</time></trkpt><trkpt lat="39.46087545" lon="-0.37266788"><ele>24.2</ele><time>2022-11-06T13:46:04.0000000+00:00</time></trkpt><trkpt lat="39.46089406" lon="-0.37265598"><ele>24.2</ele><time>2022-11-06T13:46:05.0000000+00:00</time></trkpt><trkpt lat="39.46086816" lon="-0.37267601"><ele>24.2</ele><time>2022-11-06T13:46:06.0000000+00:00</time></trkpt><trkpt lat="39.46086296" lon="-0.37267802"><ele>24.2</ele><time>2022-11-06T13:46:07.0000000+00:00</time></trkpt><trkpt lat="39.46084804" lon="-0.37268875"><ele>24.2</ele><time>2022-11-06T13:46:08.0000000+00:00</time></trkpt><trkpt lat="39.46082952" lon="-0.37270225"><ele>24.2</ele><time>2022-11-06T13:46:09.0000000+00:00</time></trkpt><trkpt lat="39.46081786" lon="-0.37271105"><ele>24.2</ele><time>2022-11-06T13:46:10.0000000+00:00</time></trkpt><trkpt lat="39.46081024" lon="-0.37271524"><ele>24.2</ele><time>2022-11-06T13:46:11.0000000+00:00</time></trkpt><trkpt lat="39.46064595" lon="-0.37277928"><ele>24.2</ele><time>2022-11-06T13:46:12.0000000+00:00</time></trkpt><trkpt lat="39.46052877" lon="-0.3728315"><ele>24.2</ele><time>2022-11-06T13:46:13.0000000+00:00</time></trkpt><trkpt lat="39.46051729" lon="-0.3728413"><ele>24.2</ele><time>2022-11-06T13:46:14.0000000+00:00</time></trkpt><trkpt lat="39.46050631" lon="-0.37285027"><ele>24.2</ele><time>2022-11-06T13:46:15.0000000+00:00</time></trkpt><trkpt lat="39.46049533" lon="-0.37285991"><ele>24.2</ele><time>2022-11-06T13:46:16.0000000+00:00</time></trkpt><trkpt lat="39.46048284" lon="-0.3728688"><ele>24.2</ele><time>2022-11-06T13:46:17.0000000+00:00</time></trkpt><trkpt lat="39.46048443" lon="-0.37286737"><ele>24.2</ele><time>2022-11-06T13:46:18.0000000+00:00</time></trkpt><trkpt lat="39.46048896" lon="-0.37285899"><ele>24.2</ele><time>2022-11-06T13:46:19.0000000+00:00</time></trkpt><trkpt lat="39.46060916" lon="-0.3728097"><ele>24.2</ele><time>2022-11-06T13:46:20.0000000+00:00</time></trkpt><trkpt lat="39.46061209" lon="-0.37280451"><ele>24.2</ele><time>2022-11-06T13:46:21.0000000+00:00</time></trkpt><trkpt lat="39.46060832" lon="-0.37280803"><ele>24.2</ele><time>2022-11-06T13:46:22.0000000+00:00</time></trkpt><trkpt lat="39.46059616" lon="-0.37281876"><ele>24.2</ele><time>2022-11-06T13:46:23.0000000+00:00</time></trkpt><trkpt lat="39.46058309" lon="-0.37283208"><ele>24.2</ele><time>2022-11-06T13:46:24.0000000+00:00</time></trkpt><trkpt lat="39.46057311" lon="-0.37283845"><ele>24.2</ele><time>2022-11-06T13:46:25.0000000+00:00</time></trkpt><trkpt lat="39.46056037" lon="-0.37285371"><ele>24.2</ele><time>2022-11-06T13:46:26.0000000+00:00</time></trkpt><trkpt lat="39.46054772" lon="-0.37286729"><ele>24.2</ele><time>2022-11-06T13:46:27.0000000+00:00</time></trkpt><trkpt lat="39.46053816" lon="-0.37287785"><ele>24.2</ele><time>2022-11-06T13:46:28.0000000+00:00</time></trkpt><trkpt lat="39.46052894" lon="-0.37288531"><ele>24.2</ele><time>2022-11-06T13:46:29.0000000+00:00</time></trkpt><trkpt lat="39.46051369" lon="-0.37289511"><ele>24.2</ele><time>2022-11-06T13:46:30.0000000+00:00</time></trkpt><trkpt lat="39.46049977" lon="-0.37290291"><ele>24.2</ele><time>2022-11-06T13:46:31.0000000+00:00</time></trkpt><trkpt lat="39.4604753" lon="-0.3729133"><ele>24.2</ele><time>2022-11-06T13:46:32.0000000+00:00</time></trkpt><trkpt lat="39.46048552" lon="-0.37290911"><ele>24.2</ele><time>2022-11-06T13:46:33.0000000+00:00</time></trkpt><trkpt lat="39.46047722" lon="-0.37291347"><ele>24.2</ele><time>2022-11-06T13:46:34.0000000+00:00</time></trkpt><trkpt lat="39.46046733" lon="-0.37292085"><ele>24.2</ele><time>2022-11-06T13:46:35.0000000+00:00</time></trkpt><trkpt lat="39.46046189" lon="-0.37292504"><ele>24.2</ele><time>2022-11-06T13:46:36.0000000+00:00</time></trkpt><trkpt lat="39.46045686" lon="-0.37292697"><ele>24.2</ele><time>2022-11-06T13:46:37.0000000+00:00</time></trkpt><trkpt lat="39.4604608" lon="-0.3729237"><ele>24.2</ele><time>2022-11-06T13:46:38.0000000+00:00</time></trkpt><trkpt lat="39.46046163" lon="-0.37292227"><ele>24.2</ele><time>2022-11-06T13:46:39.0000000+00:00</time></trkpt><trkpt lat="39.46047446" lon="-0.37291942"><ele>24.2</ele><time>2022-11-06T13:46:40.0000000+00:00</time></trkpt><trkpt lat="39.46048334" lon="-0.37292437"><ele>24.2</ele><time>2022-11-06T13:46:41.0000000+00:00</time></trkpt><trkpt lat="39.46049583" lon="-0.37292579"><ele>24.2</ele><time>2022-11-06T13:46:42.0000000+00:00</time></trkpt><trkpt lat="39.4604986" lon="-0.37292588"><ele>24.2</ele><time>2022-11-06T13:46:43.0000000+00:00</time></trkpt><trkpt lat="39.46050027" lon="-0.3729263"><ele>24.2</ele><time>2022-11-06T13:46:44.0000000+00:00</time></trkpt><trkpt lat="39.46049977" lon="-0.37292864"><ele>24.2</ele><time>2022-11-06T13:46:45.0000000+00:00</time></trkpt><trkpt lat="39.46052425" lon="-0.37291708"><ele>24.2</ele><time>2022-11-06T13:46:46.0000000+00:00</time></trkpt><trkpt lat="39.46056104" lon="-0.37289562"><ele>24.2</ele><time>2022-11-06T13:46:47.0000000+00:00</time></trkpt><trkpt lat="39.46059046" lon="-0.37288715"><ele>24.2</ele><time>2022-11-06T13:46:48.0000000+00:00</time></trkpt><trkpt lat="39.46060932" lon="-0.37287986"><ele>24.2</ele><time>2022-11-06T13:46:49.0000000+00:00</time></trkpt><trkpt lat="39.4606089" lon="-0.37287667"><ele>24.2</ele><time>2022-11-06T13:46:50.0000000+00:00</time></trkpt><trkpt lat="39.46060765" lon="-0.37287718"><ele>24.2</ele><time>2022-11-06T13:46:51.0000000+00:00</time></trkpt><trkpt lat="39.46060237" lon="-0.3728864"><ele>24.2</ele><time>2022-11-06T13:46:52.0000000+00:00</time></trkpt><trkpt lat="39.46059767" lon="-0.37288992"><ele>24.2</ele><time>2022-11-06T13:46:53.0000000+00:00</time></trkpt><trkpt lat="39.46058217" lon="-0.37289495"><ele>24.2</ele><time>2022-11-06T13:46:54.0000000+00:00</time></trkpt><trkpt lat="39.46059088" lon="-0.37288631"><ele>24.2</ele><time>2022-11-06T13:46:55.0000000+00:00</time></trkpt><trkpt lat="39.4605877" lon="-0.37288925"><ele>24.2</ele><time>2022-11-06T13:46:56.0000000+00:00</time></trkpt><trkpt lat="39.46058434" lon="-0.37289847"><ele>24.2</ele><time>2022-11-06T13:46:57.0000000+00:00</time></trkpt><trkpt lat="39.46061268" lon="-0.37290031"><ele>24.2</ele><time>2022-11-06T13:46:58.0000000+00:00</time></trkpt><trkpt lat="39.4606032" lon="-0.37290911"><ele>24.2</ele><time>2022-11-06T13:46:59.0000000+00:00</time></trkpt><trkpt lat="39.46060605" lon="-0.37291188"><ele>24.2</ele><time>2022-11-06T13:47:00.0000000+00:00</time></trkpt><trkpt lat="39.46062642" lon="-0.37290341"><ele>24.2</ele><time>2022-11-06T13:47:01.0000000+00:00</time></trkpt><trkpt lat="39.46062567" lon="-0.37290576"><ele>24.2</ele><time>2022-11-06T13:47:02.0000000+00:00</time></trkpt><trkpt lat="39.46062483" lon="-0.37291423"><ele>24.2</ele><time>2022-11-06T13:47:03.0000000+00:00</time></trkpt><trkpt lat="39.46064159" lon="-0.37291381"><ele>24.2</ele><time>2022-11-06T13:47:04.0000000+00:00</time></trkpt><trkpt lat="39.46064218" lon="-0.37291925"><ele>24.2</ele><time>2022-11-06T13:47:05.0000000+00:00</time></trkpt><trkpt lat="39.4606452" lon="-0.37291758"><ele>24.2</ele><time>2022-11-06T13:47:06.0000000+00:00</time></trkpt><trkpt lat="39.46061913" lon="-0.37293501"><ele>24.2</ele><time>2022-11-06T13:47:07.0000000+00:00</time></trkpt><trkpt lat="39.4605918" lon="-0.37295622"><ele>24.2</ele><time>2022-11-06T13:47:08.0000000+00:00</time></trkpt><trkpt lat="39.46055383" lon="-0.37298262"><ele>24.2</ele><time>2022-11-06T13:47:09.0000000+00:00</time></trkpt><trkpt lat="39.46056347" lon="-0.37297835"><ele>24.2</ele><time>2022-11-06T13:47:10.0000000+00:00</time></trkpt><trkpt lat="39.46056875" lon="-0.37298044"><ele>24.2</ele><time>2022-11-06T13:47:11.0000000+00:00</time></trkpt><trkpt lat="39.46056498" lon="-0.37298136"><ele>24.2</ele><time>2022-11-06T13:47:12.0000000+00:00</time></trkpt><trkpt lat="39.46058384" lon="-0.37297315"><ele>24.2</ele><time>2022-11-06T13:47:13.0000000+00:00</time></trkpt><trkpt lat="39.46060974" lon="-0.37296108"><ele>24.2</ele><time>2022-11-06T13:47:14.0000000+00:00</time></trkpt><trkpt lat="39.46062257" lon="-0.37296301"><ele>24.2</ele><time>2022-11-06T13:47:15.0000000+00:00</time></trkpt><trkpt lat="39.46065987" lon="-0.37295085"><ele>24.2</ele><time>2022-11-06T13:47:16.0000000+00:00</time></trkpt><trkpt lat="39.46068962" lon="-0.37293945"><ele>24.2</ele><time>2022-11-06T13:47:17.0000000+00:00</time></trkpt><trkpt lat="39.46073002" lon="-0.37291045"><ele>24.2</ele><time>2022-11-06T13:47:18.0000000+00:00</time></trkpt><trkpt lat="39.46077369" lon="-0.3728895"><ele>24.2</ele><time>2022-11-06T13:47:19.0000000+00:00</time></trkpt><trkpt lat="39.46077579" lon="-0.37288221"><ele>24.2</ele><time>2022-11-06T13:47:20.0000000+00:00</time></trkpt><trkpt lat="39.46078241" lon="-0.37287584"><ele>24.2</ele><time>2022-11-06T13:47:21.0000000+00:00</time></trkpt><trkpt lat="39.46079548" lon="-0.37286888"><ele>24.2</ele><time>2022-11-06T13:47:22.0000000+00:00</time></trkpt><trkpt lat="39.46080387" lon="-0.37286469"><ele>24.2</ele><time>2022-11-06T13:47:23.0000000+00:00</time></trkpt><trkpt lat="39.460812" lon="-0.37286134"><ele>24.2</ele><time>2022-11-06T13:47:24.0000000+00:00</time></trkpt><trkpt lat="39.46082625" lon="-0.37285773"><ele>24.2</ele><time>2022-11-06T13:47:25.0000000+00:00</time></trkpt><trkpt lat="39.46083077" lon="-0.3728589"><ele>24.2</ele><time>2022-11-06T13:47:26.0000000+00:00</time></trkpt><trkpt lat="39.46083211" lon="-0.37286553"><ele>24.2</ele><time>2022-11-06T13:47:27.0000000+00:00</time></trkpt><trkpt lat="39.46081828" lon="-0.37288003"><ele>24.2</ele><time>2022-11-06T13:47:28.0000000+00:00</time></trkpt><trkpt lat="39.46080797" lon="-0.37289185"><ele>24.2</ele><time>2022-11-06T13:47:29.0000000+00:00</time></trkpt><trkpt lat="39.46080429" lon="-0.37289461"><ele>24.2</ele><time>2022-11-06T13:47:30.0000000+00:00</time></trkpt><trkpt lat="39.46081719" lon="-0.37288975"><ele>24.2</ele><time>2022-11-06T13:47:31.0000000+00:00</time></trkpt><trkpt lat="39.46083119" lon="-0.37288103"><ele>24.2</ele><time>2022-11-06T13:47:32.0000000+00:00</time></trkpt><trkpt lat="39.46084536" lon="-0.37287793"><ele>24.2</ele><time>2022-11-06T13:47:33.0000000+00:00</time></trkpt><trkpt lat="39.46084796" lon="-0.37288078"><ele>24.2</ele><time>2022-11-06T13:47:34.0000000+00:00</time></trkpt><trkpt lat="39.46085827" lon="-0.37287877"><ele>24.2</ele><time>2022-11-06T13:47:35.0000000+00:00</time></trkpt><trkpt lat="39.46085743" lon="-0.37287902"><ele>24.2</ele><time>2022-11-06T13:47:36.0000000+00:00</time></trkpt><trkpt lat="39.46085625" lon="-0.37288019"><ele>24.2</ele><time>2022-11-06T13:47:37.0000000+00:00</time></trkpt><trkpt lat="39.46085273" lon="-0.37288489"><ele>24.2</ele><time>2022-11-06T13:47:38.0000000+00:00</time></trkpt><trkpt lat="39.46085324" lon="-0.37288606"><ele>24.2</ele><time>2022-11-06T13:47:39.0000000+00:00</time></trkpt><trkpt lat="39.46085936" lon="-0.37288196"><ele>24.2</ele><time>2022-11-06T13:47:40.0000000+00:00</time></trkpt><trkpt lat="39.46086966" lon="-0.37287517"><ele>24.2</ele><time>2022-11-06T13:47:41.0000000+00:00</time></trkpt><trkpt lat="39.46087897" lon="-0.37287232"><ele>24.2</ele><time>2022-11-06T13:47:42.0000000+00:00</time></trkpt><trkpt lat="39.46088769" lon="-0.37286787"><ele>24.2</ele><time>2022-11-06T13:47:43.0000000+00:00</time></trkpt><trkpt lat="39.46088844" lon="-0.3728667"><ele>24.2</ele><time>2022-11-06T13:47:44.0000000+00:00</time></trkpt><trkpt lat="39.46088693" lon="-0.37286578"><ele>24.2</ele><time>2022-11-06T13:47:45.0000000+00:00</time></trkpt><trkpt lat="39.46088643" lon="-0.37286494"><ele>24.2</ele><time>2022-11-06T13:47:46.0000000+00:00</time></trkpt><trkpt lat="39.46088777" lon="-0.37286754"><ele>24.2</ele><time>2022-11-06T13:47:47.0000000+00:00</time></trkpt><trkpt lat="39.46088785" lon="-0.37286787"><ele>24.2</ele><time>2022-11-06T13:47:48.0000000+00:00</time></trkpt><trkpt lat="39.46088936" lon="-0.3728662"><ele>24.2</ele><time>2022-11-06T13:47:49.0000000+00:00</time></trkpt><trkpt lat="39.46088936" lon="-0.37286905"><ele>24.2</ele><time>2022-11-06T13:47:50.0000000+00:00</time></trkpt><trkpt lat="39.46088961" lon="-0.37287039"><ele>24.2</ele><time>2022-11-06T13:47:51.0000000+00:00</time></trkpt><trkpt lat="39.46089112" lon="-0.37286955"><ele>24.2</ele><time>2022-11-06T13:47:52.0000000+00:00</time></trkpt><trkpt lat="39.46088836" lon="-0.37287273"><ele>24.2</ele><time>2022-11-06T13:47:53.0000000+00:00</time></trkpt><trkpt lat="39.46090965" lon="-0.37286159"><ele>24.2</ele><time>2022-11-06T13:47:54.0000000+00:00</time></trkpt><trkpt lat="39.4609037" lon="-0.37285849"><ele>24.2</ele><time>2022-11-06T13:47:55.0000000+00:00</time></trkpt><trkpt lat="39.46090822" lon="-0.37284642"><ele>24.2</ele><time>2022-11-06T13:47:56.0000000+00:00</time></trkpt><trkpt lat="39.46091585" lon="-0.37283057"><ele>24.2</ele><time>2022-11-06T13:47:57.0000000+00:00</time></trkpt><trkpt lat="39.46091367" lon="-0.3728299"><ele>24.2</ele><time>2022-11-06T13:47:58.0000000+00:00</time></trkpt><trkpt lat="39.46091241" lon="-0.37283049"><ele>24.2</ele><time>2022-11-06T13:47:59.0000000+00:00</time></trkpt><trkpt lat="39.4609125" lon="-0.37283066"><ele>24.2</ele><time>2022-11-06T13:48:00.0000000+00:00</time></trkpt><trkpt lat="39.46090805" lon="-0.37282957"><ele>24.2</ele><time>2022-11-06T13:48:01.0000000+00:00</time></trkpt><trkpt lat="39.46090487" lon="-0.37283451"><ele>24.2</ele><time>2022-11-06T13:48:02.0000000+00:00</time></trkpt><trkpt lat="39.46090227" lon="-0.37283359"><ele>24.2</ele><time>2022-11-06T13:48:03.0000000+00:00</time></trkpt><trkpt lat="39.46091132" lon="-0.37283141"><ele>24.2</ele><time>2022-11-06T13:48:04.0000000+00:00</time></trkpt><trkpt lat="39.46090638" lon="-0.37283879"><ele>24.2</ele><time>2022-11-06T13:48:05.0000000+00:00</time></trkpt><trkpt lat="39.46090059" lon="-0.37284072"><ele>24.2</ele><time>2022-11-06T13:48:06.0000000+00:00</time></trkpt><trkpt lat="39.46089741" lon="-0.37284038"><ele>24.2</ele><time>2022-11-06T13:48:07.0000000+00:00</time></trkpt><trkpt lat="39.46089573" lon="-0.37284189"><ele>24.2</ele><time>2022-11-06T13:48:08.0000000+00:00</time></trkpt><trkpt lat="39.46089464" lon="-0.37284273"><ele>24.2</ele><time>2022-11-06T13:48:09.0000000+00:00</time></trkpt><trkpt lat="39.46089313" lon="-0.37284298"><ele>24.2</ele><time>2022-11-06T13:48:10.0000000+00:00</time></trkpt><trkpt lat="39.46089171" lon="-0.37284239"><ele>24.2</ele><time>2022-11-06T13:48:11.0000000+00:00</time></trkpt><trkpt lat="39.46089028" lon="-0.37284206"><ele>24.2</ele><time>2022-11-06T13:48:12.0000000+00:00</time></trkpt><trkpt lat="39.46089003" lon="-0.37284147"><ele>24.2</ele><time>2022-11-06T13:48:13.0000000+00:00</time></trkpt><trkpt lat="39.46088995" lon="-0.37284072"><ele>24.2</ele><time>2022-11-06T13:48:14.0000000+00:00</time></trkpt><trkpt lat="39.46089054" lon="-0.37284172"><ele>24.2</ele><time>2022-11-06T13:48:15.0000000+00:00</time></trkpt><trkpt lat="39.46089179" lon="-0.37284264"><ele>24.2</ele><time>2022-11-06T13:48:16.0000000+00:00</time></trkpt><trkpt lat="39.4608866" lon="-0.37284491"><ele>24.2</ele><time>2022-11-06T13:48:17.0000000+00:00</time></trkpt><trkpt lat="39.46088391" lon="-0.37284734"><ele>24.2</ele><time>2022-11-06T13:48:18.0000000+00:00</time></trkpt><trkpt lat="39.46088349" lon="-0.37284843"><ele>24.2</ele><time>2022-11-06T13:48:19.0000000+00:00</time></trkpt><trkpt lat="39.46088308" lon="-0.37284968"><ele>24.2</ele><time>2022-11-06T13:48:20.0000000+00:00</time></trkpt><trkpt lat="39.46088282" lon="-0.37284776"><ele>24.2</ele><time>2022-11-06T13:48:21.0000000+00:00</time></trkpt><trkpt lat="39.46088207" lon="-0.37284834"><ele>24.2</ele><time>2022-11-06T13:48:22.0000000+00:00</time></trkpt><trkpt lat="39.46088215" lon="-0.37284893"><ele>24.2</ele><time>2022-11-06T13:48:23.0000000+00:00</time></trkpt><trkpt lat="39.46088215" lon="-0.37284893"><ele>24.2</ele><time>2022-11-06T13:48:24.0000000+00:00</time></trkpt><trkpt lat="39.46088215" lon="-0.37284893"><ele>24.2</ele><time>2022-11-06T13:48:25.0000000+00:00</time></trkpt><trkpt lat="39.46088215" lon="-0.37284893"><ele>24.2</ele><time>2022-11-06T13:48:26.0000000+00:00</time></trkpt><trkpt lat="39.46088215" lon="-0.37284893"><ele>24.2</ele><time>2022-11-06T13:48:27.0000000+00:00</time></trkpt><trkpt lat="39.46088215" lon="-0.37284893"><ele>24.2</ele><time>2022-11-06T13:48:28.0000000+00:00</time></trkpt><trkpt lat="39.46088215" lon="-0.37284893"><ele>24.2</ele><time>2022-11-06T13:48:29.0000000+00:00</time></trkpt><trkpt lat="39.46088215" lon="-0.37284893"><ele>24.2</ele><time>2022-11-06T13:48:30.0000000+00:00</time></trkpt><trkpt lat="39.46088215" lon="-0.37284893"><ele>24.2</ele><time>2022-11-06T13:48:31.0000000+00:00</time></trkpt><trkpt lat="39.46088215" lon="-0.37284893"><ele>24.2</ele><time>2022-11-06T13:48:32.0000000+00:00</time></trkpt><trkpt lat="39.46088215" lon="-0.37284893"><ele>24.2</ele><time>2022-11-06T13:48:33.0000000+00:00</time></trkpt><trkpt lat="39.46088215" lon="-0.37284893"><ele>24.2</ele><time>2022-11-06T13:48:34.0000000+00:00</time></trkpt><trkpt lat="39.46088215" lon="-0.37284893"><ele>24.2</ele><time>2022-11-06T13:48:35.0000000+00:00</time></trkpt><trkpt lat="39.46088215" lon="-0.37284893"><ele>24.2</ele><time>2022-11-06T13:48:36.0000000+00:00</time></trkpt><trkpt lat="39.46088215" lon="-0.37284843"><ele>24.2</ele><time>2022-11-06T13:48:37.0000000+00:00</time></trkpt><trkpt lat="39.46088215" lon="-0.37284834"><ele>24.2</ele><time>2022-11-06T13:48:38.0000000+00:00</time></trkpt><trkpt lat="39.46088215" lon="-0.37284784"><ele>24.2</ele><time>2022-11-06T13:48:39.0000000+00:00</time></trkpt><trkpt lat="39.46088215" lon="-0.37284742"><ele>24.2</ele><time>2022-11-06T13:48:40.0000000+00:00</time></trkpt><trkpt lat="39.46088274" lon="-0.372847"><ele>24.2</ele><time>2022-11-06T13:48:41.0000000+00:00</time></trkpt><trkpt lat="39.46088308" lon="-0.37284507"><ele>24.2</ele><time>2022-11-06T13:48:42.0000000+00:00</time></trkpt><trkpt lat="39.46088341" lon="-0.3728444"><ele>24.2</ele><time>2022-11-06T13:48:43.0000000+00:00</time></trkpt><trkpt lat="39.46088383" lon="-0.37284281"><ele>24.2</ele><time>2022-11-06T13:48:44.0000000+00:00</time></trkpt><trkpt lat="39.46088391" lon="-0.37284273"><ele>24.2</ele><time>2022-11-06T13:48:45.0000000+00:00</time></trkpt><trkpt lat="39.46088391" lon="-0.37284114"><ele>24.2</ele><time>2022-11-06T13:48:46.0000000+00:00</time></trkpt><trkpt lat="39.46088391" lon="-0.37283803"><ele>24.2</ele><time>2022-11-06T13:48:47.0000000+00:00</time></trkpt><trkpt lat="39.46088358" lon="-0.37283577"><ele>24.2</ele><time>2022-11-06T13:48:48.0000000+00:00</time></trkpt><trkpt lat="39.46088341" lon="-0.37282957"><ele>24.2</ele><time>2022-11-06T13:48:49.0000000+00:00</time></trkpt><trkpt lat="39.46088492" lon="-0.37282102"><ele>24.2</ele><time>2022-11-06T13:48:50.0000000+00:00</time></trkpt><trkpt lat="39.46088618" lon="-0.37281121"><ele>24.2</ele><time>2022-11-06T13:48:51.0000000+00:00</time></trkpt><trkpt lat="39.4608876" lon="-0.37280425"><ele>24.2</ele><time>2022-11-06T13:48:52.0000000+00:00</time></trkpt><trkpt lat="39.46088618" lon="-0.37279788"><ele>24.2</ele><time>2022-11-06T13:48:53.0000000+00:00</time></trkpt><trkpt lat="39.46088534" lon="-0.37279805"><ele>24.2</ele><time>2022-11-06T13:48:54.0000000+00:00</time></trkpt><trkpt lat="39.46088811" lon="-0.37279956"><ele>24.2</ele><time>2022-11-06T13:48:55.0000000+00:00</time></trkpt><trkpt lat="39.46088467" lon="-0.37280945"><ele>24.2</ele><time>2022-11-06T13:48:56.0000000+00:00</time></trkpt><trkpt lat="39.460884" lon="-0.37282177"><ele>24.2</ele><time>2022-11-06T13:48:57.0000000+00:00</time></trkpt><trkpt lat="39.46088425" lon="-0.37282119"><ele>24.2</ele><time>2022-11-06T13:48:58.0000000+00:00</time></trkpt><trkpt lat="39.46088232" lon="-0.37282295"><ele>24.2</ele><time>2022-11-06T13:48:59.0000000+00:00</time></trkpt><trkpt lat="39.46088626" lon="-0.37281632"><ele>24.2</ele><time>2022-11-06T13:49:00.0000000+00:00</time></trkpt><trkpt lat="39.4608866" lon="-0.37281574"><ele>24.2</ele><time>2022-11-06T13:49:01.0000000+00:00</time></trkpt><trkpt lat="39.4608866" lon="-0.37281574"><ele>24.2</ele><time>2022-11-06T13:49:02.0000000+00:00</time></trkpt><trkpt lat="39.4608866" lon="-0.37281574"><ele>24.2</ele><time>2022-11-06T13:49:03.0000000+00:00</time></trkpt><trkpt lat="39.4608866" lon="-0.37281574"><ele>24.2</ele><time>2022-11-06T13:49:04.0000000+00:00</time></trkpt><trkpt lat="39.4608866" lon="-0.37281574"><ele>24.2</ele><time>2022-11-06T13:49:05.0000000+00:00</time></trkpt><trkpt lat="39.4608866" lon="-0.37281574"><ele>24.2</ele><time>2022-11-06T13:49:06.0000000+00:00</time></trkpt><trkpt lat="39.4608866" lon="-0.37281574"><ele>24.2</ele><time>2022-11-06T13:49:07.0000000+00:00</time></trkpt><trkpt lat="39.4608866" lon="-0.37281574"><ele>24.2</ele><time>2022-11-06T13:49:08.0000000+00:00</time></trkpt><trkpt lat="39.4608866" lon="-0.37281574"><ele>24.2</ele><time>2022-11-06T13:49:09.0000000+00:00</time></trkpt><trkpt lat="39.4608866" lon="-0.37281574"><ele>24.2</ele><time>2022-11-06T13:49:10.0000000+00:00</time></trkpt><trkpt lat="39.46088626" lon="-0.37281574"><ele>24.2</ele><time>2022-11-06T13:49:11.0000000+00:00</time></trkpt><trkpt lat="39.46088509" lon="-0.37281574"><ele>24.2</ele><time>2022-11-06T13:49:12.0000000+00:00</time></trkpt><trkpt lat="39.460885" lon="-0.37281616"><ele>24.2</ele><time>2022-11-06T13:49:13.0000000+00:00</time></trkpt><trkpt lat="39.4608845" lon="-0.37281632"><ele>24.2</ele><time>2022-11-06T13:49:14.0000000+00:00</time></trkpt><trkpt lat="39.46088442" lon="-0.37281985"><ele>24.2</ele><time>2022-11-06T13:49:15.0000000+00:00</time></trkpt><trkpt lat="39.46088433" lon="-0.3728211"><ele>24.2</ele><time>2022-11-06T13:49:16.0000000+00:00</time></trkpt><trkpt lat="39.46088425" lon="-0.37282169"><ele>24.2</ele><time>2022-11-06T13:49:17.0000000+00:00</time></trkpt><trkpt lat="39.46088417" lon="-0.37282236"><ele>24.2</ele><time>2022-11-06T13:49:18.0000000+00:00</time></trkpt><trkpt lat="39.460884" lon="-0.37282295"><ele>24.2</ele><time>2022-11-06T13:49:19.0000000+00:00</time></trkpt><trkpt lat="39.46088291" lon="-0.37282521"><ele>24.2</ele><time>2022-11-06T13:49:20.0000000+00:00</time></trkpt><trkpt lat="39.46088274" lon="-0.37282848"><ele>24.2</ele><time>2022-11-06T13:49:21.0000000+00:00</time></trkpt><trkpt lat="39.46088232" lon="-0.37283426"><ele>24.2</ele><time>2022-11-06T13:49:22.0000000+00:00</time></trkpt><trkpt lat="39.46087746" lon="-0.37283996"><ele>24.2</ele><time>2022-11-06T13:49:23.0000000+00:00</time></trkpt><trkpt lat="39.46087453" lon="-0.37284315"><ele>24.2</ele><time>2022-11-06T13:49:24.0000000+00:00</time></trkpt><trkpt lat="39.46087176" lon="-0.37284399"><ele>24.2</ele><time>2022-11-06T13:49:25.0000000+00:00</time></trkpt><trkpt lat="39.46087092" lon="-0.37285128"><ele>24.2</ele><time>2022-11-06T13:49:26.0000000+00:00</time></trkpt><trkpt lat="39.46087067" lon="-0.37285849"><ele>24.2</ele><time>2022-11-06T13:49:27.0000000+00:00</time></trkpt><trkpt lat="39.46086765" lon="-0.37286025"><ele>24.2</ele><time>2022-11-06T13:49:28.0000000+00:00</time></trkpt><trkpt lat="39.46086732" lon="-0.3728605"><ele>24.2</ele><time>2022-11-06T13:49:29.0000000+00:00</time></trkpt><trkpt lat="39.46086723" lon="-0.3728605"><ele>24.2</ele><time>2022-11-06T13:49:30.0000000+00:00</time></trkpt><trkpt lat="39.46086723" lon="-0.3728605"><ele>24.2</ele><time>2022-11-06T13:49:31.0000000+00:00</time></trkpt><trkpt lat="39.46086723" lon="-0.3728605"><ele>24.2</ele><time>2022-11-06T13:49:32.0000000+00:00</time></trkpt><trkpt lat="39.46086723" lon="-0.372861"><ele>24.2</ele><time>2022-11-06T13:49:33.0000000+00:00</time></trkpt><trkpt lat="39.46086723" lon="-0.37286108"><ele>24.2</ele><time>2022-11-06T13:49:34.0000000+00:00</time></trkpt><trkpt lat="39.46086723" lon="-0.37286108"><ele>24.2</ele><time>2022-11-06T13:49:35.0000000+00:00</time></trkpt><trkpt lat="39.46086681" lon="-0.37286108"><ele>24.2</ele><time>2022-11-06T13:49:36.0000000+00:00</time></trkpt><trkpt lat="39.46086698" lon="-0.37286083"><ele>24.2</ele><time>2022-11-06T13:49:37.0000000+00:00</time></trkpt><trkpt lat="39.46086698" lon="-0.37286083"><ele>24.2</ele><time>2022-11-06T13:49:38.0000000+00:00</time></trkpt><trkpt lat="39.46086698" lon="-0.37286083"><ele>24.2</ele><time>2022-11-06T13:49:39.0000000+00:00</time></trkpt><trkpt lat="39.46086698" lon="-0.37286083"><ele>24.2</ele><time>2022-11-06T13:49:40.0000000+00:00</time></trkpt><trkpt lat="39.46086698" lon="-0.37286083"><ele>24.2</ele><time>2022-11-06T13:49:41.0000000+00:00</time></trkpt><trkpt lat="39.46086698" lon="-0.37286083"><ele>24.2</ele><time>2022-11-06T13:49:42.0000000+00:00</time></trkpt><trkpt lat="39.46086698" lon="-0.37286083"><ele>24.2</ele><time>2022-11-06T13:49:43.0000000+00:00</time></trkpt><trkpt lat="39.46086698" lon="-0.37286083"><ele>24.2</ele><time>2022-11-06T13:49:44.0000000+00:00</time></trkpt><trkpt lat="39.4608679" lon="-0.37286008"><ele>24.2</ele><time>2022-11-06T13:49:45.0000000+00:00</time></trkpt><trkpt lat="39.46086816" lon="-0.37285924"><ele>24.2</ele><time>2022-11-06T13:49:46.0000000+00:00</time></trkpt><trkpt lat="39.46086832" lon="-0.37285916"><ele>24.2</ele><time>2022-11-06T13:49:47.0000000+00:00</time></trkpt><trkpt lat="39.46086941" lon="-0.3728584"><ele>24.2</ele><time>2022-11-06T13:49:48.0000000+00:00</time></trkpt><trkpt lat="39.46087" lon="-0.37285773"><ele>24.2</ele><time>2022-11-06T13:49:49.0000000+00:00</time></trkpt><trkpt lat="39.46087025" lon="-0.37285714"><ele>24.2</ele><time>2022-11-06T13:49:50.0000000+00:00</time></trkpt><trkpt lat="39.46087151" lon="-0.37285639"><ele>24.2</ele><time>2022-11-06T13:49:51.0000000+00:00</time></trkpt><trkpt lat="39.46087184" lon="-0.37285622"><ele>24.2</ele><time>2022-11-06T13:49:52.0000000+00:00</time></trkpt><trkpt lat="39.46087268" lon="-0.37285597"><ele>24.2</ele><time>2022-11-06T13:49:53.0000000+00:00</time></trkpt><trkpt lat="39.46087905" lon="-0.37284927"><ele>24.2</ele><time>2022-11-06T13:49:54.0000000+00:00</time></trkpt><trkpt lat="39.46088031" lon="-0.37284734"><ele>24.2</ele><time>2022-11-06T13:49:55.0000000+00:00</time></trkpt><trkpt lat="39.46088073" lon="-0.37284667"><ele>24.2</ele><time>2022-11-06T13:49:56.0000000+00:00</time></trkpt><trkpt lat="39.46088282" lon="-0.37284474"><ele>24.2</ele><time>2022-11-06T13:49:57.0000000+00:00</time></trkpt><trkpt lat="39.46088341" lon="-0.37284306"><ele>24.2</ele><time>2022-11-06T13:49:58.0000000+00:00</time></trkpt><trkpt lat="39.460884" lon="-0.37284181"><ele>24.2</ele><time>2022-11-06T13:49:59.0000000+00:00</time></trkpt><trkpt lat="39.46088517" lon="-0.3728408"><ele>24.2</ele><time>2022-11-06T13:50:00.0000000+00:00</time></trkpt><trkpt lat="39.4608876" lon="-0.37284046"><ele>24.2</ele><time>2022-11-06T13:50:01.0000000+00:00</time></trkpt><trkpt lat="39.46089054" lon="-0.37283954"><ele>24.2</ele><time>2022-11-06T13:50:02.0000000+00:00</time></trkpt><trkpt lat="39.46089364" lon="-0.37283937"><ele>24.2</ele><time>2022-11-06T13:50:03.0000000+00:00</time></trkpt><trkpt lat="39.46089431" lon="-0.37283937"><ele>24.2</ele><time>2022-11-06T13:50:04.0000000+00:00</time></trkpt><trkpt lat="39.46089598" lon="-0.37283937"><ele>24.2</ele><time>2022-11-06T13:50:05.0000000+00:00</time></trkpt><trkpt lat="39.46089909" lon="-0.37283937"><ele>24.2</ele><time>2022-11-06T13:50:06.0000000+00:00</time></trkpt><trkpt lat="39.46090126" lon="-0.37283937"><ele>24.2</ele><time>2022-11-06T13:50:07.0000000+00:00</time></trkpt><trkpt lat="39.46090797" lon="-0.37283937"><ele>24.2</ele><time>2022-11-06T13:50:08.0000000+00:00</time></trkpt><trkpt lat="39.46091719" lon="-0.37283937"><ele>24.2</ele><time>2022-11-06T13:50:09.0000000+00:00</time></trkpt><trkpt lat="39.46092038" lon="-0.37283937"><ele>24.2</ele><time>2022-11-06T13:50:10.0000000+00:00</time></trkpt><trkpt lat="39.46092138" lon="-0.37283937"><ele>24.2</ele><time>2022-11-06T13:50:11.0000000+00:00</time></trkpt><trkpt lat="39.46092239" lon="-0.37283937"><ele>24.2</ele><time>2022-11-06T13:50:12.0000000+00:00</time></trkpt><trkpt lat="39.46092323" lon="-0.37283937"><ele>24.2</ele><time>2022-11-06T13:50:13.0000000+00:00</time></trkpt><trkpt lat="39.4609254" lon="-0.37283937"><ele>24.2</ele><time>2022-11-06T13:50:14.0000000+00:00</time></trkpt><trkpt lat="39.46092683" lon="-0.37284021"><ele>24.2</ele><time>2022-11-06T13:50:15.0000000+00:00</time></trkpt><trkpt lat="39.46092733" lon="-0.37284038"><ele>24.2</ele><time>2022-11-06T13:50:16.0000000+00:00</time></trkpt><trkpt lat="39.46092834" lon="-0.37284457"><ele>24.2</ele><time>2022-11-06T13:50:17.0000000+00:00</time></trkpt><trkpt lat="39.46093102" lon="-0.3728496"><ele>24.2</ele><time>2022-11-06T13:50:18.0000000+00:00</time></trkpt><trkpt lat="39.46093706" lon="-0.37285195"><ele>24.2</ele><time>2022-11-06T13:50:19.0000000+00:00</time></trkpt><trkpt lat="39.46093965" lon="-0.37285304"><ele>24.2</ele><time>2022-11-06T13:50:20.0000000+00:00</time></trkpt><trkpt lat="39.46094276" lon="-0.37285329"><ele>24.2</ele><time>2022-11-06T13:50:21.0000000+00:00</time></trkpt><trkpt lat="39.46094963" lon="-0.37285379"><ele>24.2</ele><time>2022-11-06T13:50:22.0000000+00:00</time></trkpt><trkpt lat="39.46095156" lon="-0.37285513"><ele>24.2</ele><time>2022-11-06T13:50:23.0000000+00:00</time></trkpt><trkpt lat="39.46095198" lon="-0.37285639"><ele>24.2</ele><time>2022-11-06T13:50:24.0000000+00:00</time></trkpt><trkpt lat="39.46095265" lon="-0.37285673"><ele>24.2</ele><time>2022-11-06T13:50:25.0000000+00:00</time></trkpt><trkpt lat="39.46095281" lon="-0.37285765"><ele>24.2</ele><time>2022-11-06T13:50:26.0000000+00:00</time></trkpt><trkpt lat="39.4609529" lon="-0.37285798"><ele>24.2</ele><time>2022-11-06T13:50:27.0000000+00:00</time></trkpt><trkpt lat="39.4609529" lon="-0.37285899"><ele>24.2</ele><time>2022-11-06T13:50:28.0000000+00:00</time></trkpt><trkpt lat="39.4609503" lon="-0.37286108"><ele>24.2</ele><time>2022-11-06T13:50:29.0000000+00:00</time></trkpt><trkpt lat="39.46094384" lon="-0.37286586"><ele>24.2</ele><time>2022-11-06T13:50:30.0000000+00:00</time></trkpt><trkpt lat="39.46093806" lon="-0.37287525"><ele>24.2</ele><time>2022-11-06T13:50:31.0000000+00:00</time></trkpt><trkpt lat="39.46093965" lon="-0.37287667"><ele>24.2</ele><time>2022-11-06T13:50:32.0000000+00:00</time></trkpt><trkpt lat="39.46093923" lon="-0.37287701"><ele>24.2</ele><time>2022-11-06T13:50:33.0000000+00:00</time></trkpt><trkpt lat="39.46093613" lon="-0.37287961"><ele>24.2</ele><time>2022-11-06T13:50:34.0000000+00:00</time></trkpt><trkpt lat="39.46093613" lon="-0.37287961"><ele>24.2</ele><time>2022-11-06T13:50:35.0000000+00:00</time></trkpt><trkpt lat="39.46093613" lon="-0.37287961"><ele>24.2</ele><time>2022-11-06T13:50:36.0000000+00:00</time></trkpt><trkpt lat="39.46093613" lon="-0.37287961"><ele>24.2</ele><time>2022-11-06T13:50:37.0000000+00:00</time></trkpt><trkpt lat="39.46093613" lon="-0.37287961"><ele>24.2</ele><time>2022-11-06T13:50:38.0000000+00:00</time></trkpt><trkpt lat="39.46093613" lon="-0.37287961"><ele>24.2</ele><time>2022-11-06T13:50:39.0000000+00:00</time></trkpt><trkpt lat="39.46093613" lon="-0.37287961"><ele>24.2</ele><time>2022-11-06T13:50:40.0000000+00:00</time></trkpt><trkpt lat="39.46093613" lon="-0.37287961"><ele>24.2</ele><time>2022-11-06T13:50:41.0000000+00:00</time></trkpt><trkpt lat="39.46093613" lon="-0.37287961"><ele>24.2</ele><time>2022-11-06T13:50:42.0000000+00:00</time></trkpt><trkpt lat="39.46093613" lon="-0.37287961"><ele>24.2</ele><time>2022-11-06T13:50:43.0000000+00:00</time></trkpt><trkpt lat="39.46093613" lon="-0.37287961"><ele>24.2</ele><time>2022-11-06T13:50:44.0000000+00:00</time></trkpt><trkpt lat="39.46093613" lon="-0.37287961"><ele>24.2</ele><time>2022-11-06T13:50:45.0000000+00:00</time></trkpt><trkpt lat="39.46093756" lon="-0.3728745"><ele>24.2</ele><time>2022-11-06T13:50:46.0000000+00:00</time></trkpt><trkpt lat="39.46093798" lon="-0.37285321"><ele>24.2</ele><time>2022-11-06T13:50:47.0000000+00:00</time></trkpt><trkpt lat="39.46093588" lon="-0.37284776"><ele>24.2</ele><time>2022-11-06T13:50:48.0000000+00:00</time></trkpt><trkpt lat="39.46093731" lon="-0.37283015"><ele>24.2</ele><time>2022-11-06T13:50:49.0000000+00:00</time></trkpt><trkpt lat="39.46093781" lon="-0.37281817"><ele>24.2</ele><time>2022-11-06T13:50:50.0000000+00:00</time></trkpt><trkpt lat="39.46093965" lon="-0.37280962"><ele>24.2</ele><time>2022-11-06T13:50:51.0000000+00:00</time></trkpt><trkpt lat="39.46093245" lon="-0.37280744"><ele>24.2</ele><time>2022-11-06T13:50:52.0000000+00:00</time></trkpt><trkpt lat="39.46092121" lon="-0.37280962"><ele>24.2</ele><time>2022-11-06T13:50:53.0000000+00:00</time></trkpt><trkpt lat="39.46091216" lon="-0.37281926"><ele>24.2</ele><time>2022-11-06T13:50:54.0000000+00:00</time></trkpt><trkpt lat="39.46092071" lon="-0.37283435"><ele>24.2</ele><time>2022-11-06T13:50:55.0000000+00:00</time></trkpt><trkpt lat="39.46095164" lon="-0.37284181"><ele>24.2</ele><time>2022-11-06T13:50:56.0000000+00:00</time></trkpt><trkpt lat="39.46095424" lon="-0.37284248"><ele>24.2</ele><time>2022-11-06T13:50:57.0000000+00:00</time></trkpt><trkpt lat="39.4609555" lon="-0.37284264"><ele>24.2</ele><time>2022-11-06T13:50:58.0000000+00:00</time></trkpt><trkpt lat="39.46095466" lon="-0.37285446"><ele>24.2</ele><time>2022-11-06T13:50:59.0000000+00:00</time></trkpt><trkpt lat="39.46094854" lon="-0.37287441"><ele>24.2</ele><time>2022-11-06T13:51:00.0000000+00:00</time></trkpt><trkpt lat="39.46094602" lon="-0.3728947"><ele>24.2</ele><time>2022-11-06T13:51:01.0000000+00:00</time></trkpt><trkpt lat="39.46094351" lon="-0.37290031"><ele>24.2</ele><time>2022-11-06T13:51:02.0000000+00:00</time></trkpt><trkpt lat="39.46094167" lon="-0.3729045"><ele>24.2</ele><time>2022-11-06T13:51:03.0000000+00:00</time></trkpt><trkpt lat="39.46095348" lon="-0.37290207"><ele>24.2</ele><time>2022-11-06T13:51:04.0000000+00:00</time></trkpt><trkpt lat="39.46094854" lon="-0.37291003"><ele>24.2</ele><time>2022-11-06T13:51:05.0000000+00:00</time></trkpt><trkpt lat="39.46094116" lon="-0.37291632"><ele>24.2</ele><time>2022-11-06T13:51:06.0000000+00:00</time></trkpt><trkpt lat="39.46092549" lon="-0.37292713"><ele>24.2</ele><time>2022-11-06T13:51:07.0000000+00:00</time></trkpt><trkpt lat="39.46091845" lon="-0.37292839"><ele>24.2</ele><time>2022-11-06T13:51:08.0000000+00:00</time></trkpt><trkpt lat="39.46091484" lon="-0.37293325"><ele>24.2</ele><time>2022-11-06T13:51:09.0000000+00:00</time></trkpt><trkpt lat="39.46091199" lon="-0.37293325"><ele>24.2</ele><time>2022-11-06T13:51:10.0000000+00:00</time></trkpt><trkpt lat="39.46091082" lon="-0.37291649"><ele>24.2</ele><time>2022-11-06T13:51:11.0000000+00:00</time></trkpt><trkpt lat="39.4609125" lon="-0.37291112"><ele>24.2</ele><time>2022-11-06T13:51:12.0000000+00:00</time></trkpt><trkpt lat="39.46091359" lon="-0.37290844"><ele>24.2</ele><time>2022-11-06T13:51:13.0000000+00:00</time></trkpt><trkpt lat="39.46090395" lon="-0.37291682"><ele>24.2</ele><time>2022-11-06T13:51:14.0000000+00:00</time></trkpt><trkpt lat="39.46090328" lon="-0.37291666"><ele>24.2</ele><time>2022-11-06T13:51:15.0000000+00:00</time></trkpt><trkpt lat="39.46090328" lon="-0.37291464"><ele>24.2</ele><time>2022-11-06T13:51:16.0000000+00:00</time></trkpt><trkpt lat="39.46090252" lon="-0.3729149"><ele>24.2</ele><time>2022-11-06T13:51:17.0000000+00:00</time></trkpt><trkpt lat="39.46090068" lon="-0.37291741"><ele>24.2</ele><time>2022-11-06T13:51:18.0000000+00:00</time></trkpt><trkpt lat="39.46090235" lon="-0.37291448"><ele>24.2</ele><time>2022-11-06T13:51:19.0000000+00:00</time></trkpt><trkpt lat="39.46090235" lon="-0.37291448"><ele>24.2</ele><time>2022-11-06T13:51:20.0000000+00:00</time></trkpt><trkpt lat="39.46090235" lon="-0.37291448"><ele>24.2</ele><time>2022-11-06T13:51:21.0000000+00:00</time></trkpt><trkpt lat="39.46090235" lon="-0.37291448"><ele>24.2</ele><time>2022-11-06T13:51:22.0000000+00:00</time></trkpt><trkpt lat="39.46090235" lon="-0.37291448"><ele>24.2</ele><time>2022-11-06T13:51:23.0000000+00:00</time></trkpt><trkpt lat="39.46090537" lon="-0.37291456"><ele>24.2</ele><time>2022-11-06T13:51:24.0000000+00:00</time></trkpt><trkpt lat="39.46091007" lon="-0.37291112"><ele>24.2</ele><time>2022-11-06T13:51:25.0000000+00:00</time></trkpt><trkpt lat="39.46091375" lon="-0.37290894"><ele>24.2</ele><time>2022-11-06T13:51:26.0000000+00:00</time></trkpt><trkpt lat="39.46089733" lon="-0.37291724"><ele>24.2</ele><time>2022-11-06T13:51:27.0000000+00:00</time></trkpt><trkpt lat="39.46088492" lon="-0.37292495"><ele>24.2</ele><time>2022-11-06T13:51:28.0000000+00:00</time></trkpt><trkpt lat="39.46086681" lon="-0.37293979"><ele>24.2</ele><time>2022-11-06T13:51:29.0000000+00:00</time></trkpt><trkpt lat="39.46084108" lon="-0.37295999"><ele>24.2</ele><time>2022-11-06T13:51:30.0000000+00:00</time></trkpt><trkpt lat="39.46083857" lon="-0.3729729"><ele>24.2</ele><time>2022-11-06T13:51:31.0000000+00:00</time></trkpt><trkpt lat="39.46083698" lon="-0.37297826"><ele>24.2</ele><time>2022-11-06T13:51:32.0000000+00:00</time></trkpt><trkpt lat="39.46082231" lon="-0.37298991"><ele>24.2</ele><time>2022-11-06T13:51:33.0000000+00:00</time></trkpt><trkpt lat="39.46082667" lon="-0.37299033"><ele>24.2</ele><time>2022-11-06T13:51:34.0000000+00:00</time></trkpt><trkpt lat="39.46082985" lon="-0.37298086"><ele>24.2</ele><time>2022-11-06T13:51:35.0000000+00:00</time></trkpt><trkpt lat="39.46083446" lon="-0.37296535"><ele>24.2</ele><time>2022-11-06T13:51:36.0000000+00:00</time></trkpt><trkpt lat="39.46083002" lon="-0.37296334"><ele>24.2</ele><time>2022-11-06T13:51:37.0000000+00:00</time></trkpt><trkpt lat="39.46081594" lon="-0.37296753"><ele>24.2</ele><time>2022-11-06T13:51:38.0000000+00:00</time></trkpt><trkpt lat="39.4608032" lon="-0.372976"><ele>24.2</ele><time>2022-11-06T13:51:39.0000000+00:00</time></trkpt><trkpt lat="39.46079616" lon="-0.37298011"><ele>24.2</ele><time>2022-11-06T13:51:40.0000000+00:00</time></trkpt><trkpt lat="39.46079942" lon="-0.372976"><ele>24.2</ele><time>2022-11-06T13:51:41.0000000+00:00</time></trkpt><trkpt lat="39.46080194" lon="-0.37297365"><ele>24.2</ele><time>2022-11-06T13:51:42.0000000+00:00</time></trkpt><trkpt lat="39.46080663" lon="-0.3729708"><ele>24.2</ele><time>2022-11-06T13:51:43.0000000+00:00</time></trkpt><trkpt lat="39.46082457" lon="-0.3729589"><ele>24.2</ele><time>2022-11-06T13:51:44.0000000+00:00</time></trkpt><trkpt lat="39.46083471" lon="-0.3729553"><ele>24.2</ele><time>2022-11-06T13:51:45.0000000+00:00</time></trkpt><trkpt lat="39.46082398" lon="-0.37296083"><ele>24.2</ele><time>2022-11-06T13:51:46.0000000+00:00</time></trkpt><trkpt lat="39.460827" lon="-0.37296586"><ele>24.2</ele><time>2022-11-06T13:51:47.0000000+00:00</time></trkpt><trkpt lat="39.46082616" lon="-0.37296712"><ele>24.2</ele><time>2022-11-06T13:51:48.0000000+00:00</time></trkpt><trkpt lat="39.46082457" lon="-0.37296787"><ele>24.2</ele><time>2022-11-06T13:51:49.0000000+00:00</time></trkpt><trkpt lat="39.46082323" lon="-0.37296971"><ele>24.2</ele><time>2022-11-06T13:51:50.0000000+00:00</time></trkpt><trkpt lat="39.46082323" lon="-0.37297022"><ele>24.2</ele><time>2022-11-06T13:51:51.0000000+00:00</time></trkpt><trkpt lat="39.46082323" lon="-0.37297022"><ele>24.2</ele><time>2022-11-06T13:51:52.0000000+00:00</time></trkpt><trkpt lat="39.46082323" lon="-0.37297022"><ele>24.2</ele><time>2022-11-06T13:51:53.0000000+00:00</time></trkpt><trkpt lat="39.46082323" lon="-0.37297022"><ele>24.2</ele><time>2022-11-06T13:51:54.0000000+00:00</time></trkpt><trkpt lat="39.46082323" lon="-0.37297022"><ele>24.2</ele><time>2022-11-06T13:51:55.0000000+00:00</time></trkpt><trkpt lat="39.46082323" lon="-0.37297022"><ele>24.2</ele><time>2022-11-06T13:51:56.0000000+00:00</time></trkpt><trkpt lat="39.46082323" lon="-0.37297022"><ele>24.2</ele><time>2022-11-06T13:51:57.0000000+00:00</time></trkpt><trkpt lat="39.46082323" lon="-0.37297022"><ele>24.2</ele><time>2022-11-06T13:51:58.0000000+00:00</time></trkpt><trkpt lat="39.46082323" lon="-0.37297022"><ele>24.2</ele><time>2022-11-06T13:51:59.0000000+00:00</time></trkpt><trkpt lat="39.46082323" lon="-0.37297022"><ele>24.2</ele><time>2022-11-06T13:52:00.0000000+00:00</time></trkpt><trkpt lat="39.46082323" lon="-0.37297022"><ele>24.2</ele><time>2022-11-06T13:52:01.0000000+00:00</time></trkpt><trkpt lat="39.46082323" lon="-0.37297022"><ele>24.2</ele><time>2022-11-06T13:52:02.0000000+00:00</time></trkpt><trkpt lat="39.46082323" lon="-0.37297022"><ele>24.2</ele><time>2022-11-06T13:52:03.0000000+00:00</time></trkpt><trkpt lat="39.46082323" lon="-0.37297022"><ele>24.2</ele><time>2022-11-06T13:52:04.0000000+00:00</time></trkpt><trkpt lat="39.4608239" lon="-0.37297022"><ele>24.2</ele><time>2022-11-06T13:52:05.0000000+00:00</time></trkpt><trkpt lat="39.46082398" lon="-0.37297022"><ele>24.2</ele><time>2022-11-06T13:52:06.0000000+00:00</time></trkpt><trkpt lat="39.46082432" lon="-0.37297022"><ele>24.2</ele><time>2022-11-06T13:52:07.0000000+00:00</time></trkpt><trkpt lat="39.46082457" lon="-0.37297022"><ele>24.2</ele><time>2022-11-06T13:52:08.0000000+00:00</time></trkpt><trkpt lat="39.46082457" lon="-0.37297022"><ele>24.2</ele><time>2022-11-06T13:52:09.0000000+00:00</time></trkpt><trkpt lat="39.46082457" lon="-0.37297022"><ele>24.2</ele><time>2022-11-06T13:52:10.0000000+00:00</time></trkpt><trkpt lat="39.46082457" lon="-0.37297022"><ele>24.2</ele><time>2022-11-06T13:52:11.0000000+00:00</time></trkpt><trkpt lat="39.46082457" lon="-0.37297022"><ele>24.2</ele><time>2022-11-06T13:52:12.0000000+00:00</time></trkpt><trkpt lat="39.46082457" lon="-0.37297022"><ele>24.2</ele><time>2022-11-06T13:52:13.0000000+00:00</time></trkpt><trkpt lat="39.46082457" lon="-0.37297122"><ele>24.2</ele><time>2022-11-06T13:52:14.0000000+00:00</time></trkpt><trkpt lat="39.46082457" lon="-0.37297147"><ele>24.2</ele><time>2022-11-06T13:52:15.0000000+00:00</time></trkpt><trkpt lat="39.46082541" lon="-0.37297156"><ele>24.2</ele><time>2022-11-06T13:52:16.0000000+00:00</time></trkpt><trkpt lat="39.46082549" lon="-0.37297206"><ele>24.2</ele><time>2022-11-06T13:52:17.0000000+00:00</time></trkpt><trkpt lat="39.46082549" lon="-0.37297206"><ele>24.2</ele><time>2022-11-06T13:52:18.0000000+00:00</time></trkpt><trkpt lat="39.46082692" lon="-0.37297214"><ele>24.2</ele><time>2022-11-06T13:52:19.0000000+00:00</time></trkpt><trkpt lat="39.4608275" lon="-0.37297223"><ele>24.2</ele><time>2022-11-06T13:52:20.0000000+00:00</time></trkpt><trkpt lat="39.46082834" lon="-0.37297223"><ele>24.2</ele><time>2022-11-06T13:52:21.0000000+00:00</time></trkpt><trkpt lat="39.46082918" lon="-0.37297256"><ele>24.2</ele><time>2022-11-06T13:52:22.0000000+00:00</time></trkpt><trkpt lat="39.46082935" lon="-0.37297265"><ele>24.2</ele><time>2022-11-06T13:52:23.0000000+00:00</time></trkpt><trkpt lat="39.46082943" lon="-0.37297315"><ele>24.2</ele><time>2022-11-06T13:52:24.0000000+00:00</time></trkpt><trkpt lat="39.46082968" lon="-0.37297323"><ele>24.2</ele><time>2022-11-06T13:52:25.0000000+00:00</time></trkpt><trkpt lat="39.46083019" lon="-0.37297349"><ele>24.2</ele><time>2022-11-06T13:52:26.0000000+00:00</time></trkpt><trkpt lat="39.46083086" lon="-0.37297382"><ele>24.2</ele><time>2022-11-06T13:52:27.0000000+00:00</time></trkpt><trkpt lat="39.46083102" lon="-0.37297382"><ele>24.2</ele><time>2022-11-06T13:52:28.0000000+00:00</time></trkpt><trkpt lat="39.46083169" lon="-0.37297458"><ele>24.2</ele><time>2022-11-06T13:52:29.0000000+00:00</time></trkpt><trkpt lat="39.46083387" lon="-0.37297474"><ele>24.2</ele><time>2022-11-06T13:52:30.0000000+00:00</time></trkpt><trkpt lat="39.46083488" lon="-0.37297474"><ele>24.2</ele><time>2022-11-06T13:52:31.0000000+00:00</time></trkpt><trkpt lat="39.4608353" lon="-0.37297474"><ele>24.2</ele><time>2022-11-06T13:52:32.0000000+00:00</time></trkpt><trkpt lat="39.46083589" lon="-0.37297474"><ele>24.2</ele><time>2022-11-06T13:52:33.0000000+00:00</time></trkpt><trkpt lat="39.46083672" lon="-0.37297474"><ele>24.2</ele><time>2022-11-06T13:52:34.0000000+00:00</time></trkpt><trkpt lat="39.46083815" lon="-0.37297474"><ele>24.2</ele><time>2022-11-06T13:52:35.0000000+00:00</time></trkpt><trkpt lat="39.46083857" lon="-0.37297474"><ele>24.2</ele><time>2022-11-06T13:52:36.0000000+00:00</time></trkpt><trkpt lat="39.46083899" lon="-0.37297424"><ele>24.2</ele><time>2022-11-06T13:52:37.0000000+00:00</time></trkpt><trkpt lat="39.46083949" lon="-0.37297399"><ele>24.2</ele><time>2022-11-06T13:52:38.0000000+00:00</time></trkpt><trkpt lat="39.46083974" lon="-0.37297374"><ele>24.2</ele><time>2022-11-06T13:52:39.0000000+00:00</time></trkpt><trkpt lat="39.46083983" lon="-0.37297357"><ele>24.2</ele><time>2022-11-06T13:52:40.0000000+00:00</time></trkpt><trkpt lat="39.46084066" lon="-0.37297214"><ele>24.2</ele><time>2022-11-06T13:52:41.0000000+00:00</time></trkpt><trkpt lat="39.46083815" lon="-0.37297424"><ele>24.2</ele><time>2022-11-06T13:52:42.0000000+00:00</time></trkpt><trkpt lat="39.46083572" lon="-0.37297583"><ele>24.2</ele><time>2022-11-06T13:52:43.0000000+00:00</time></trkpt><trkpt lat="39.46083723" lon="-0.37297307"><ele>24.2</ele><time>2022-11-06T13:52:44.0000000+00:00</time></trkpt><trkpt lat="39.46083522" lon="-0.3729698"><ele>24.2</ele><time>2022-11-06T13:52:45.0000000+00:00</time></trkpt><trkpt lat="39.460827" lon="-0.37297424"><ele>24.2</ele><time>2022-11-06T13:52:46.0000000+00:00</time></trkpt><trkpt lat="39.46082289" lon="-0.37297902"><ele>24.2</ele><time>2022-11-06T13:52:47.0000000+00:00</time></trkpt><trkpt lat="39.46082365" lon="-0.37298019"><ele>24.2</ele><time>2022-11-06T13:52:48.0000000+00:00</time></trkpt><trkpt lat="39.46082717" lon="-0.37297784"><ele>24.2</ele><time>2022-11-06T13:52:49.0000000+00:00</time></trkpt><trkpt lat="39.46083102" lon="-0.37297516"><ele>24.2</ele><time>2022-11-06T13:52:50.0000000+00:00</time></trkpt><trkpt lat="39.46083061" lon="-0.37297608"><ele>24.2</ele><time>2022-11-06T13:52:51.0000000+00:00</time></trkpt><trkpt lat="39.46082952" lon="-0.37297826"><ele>24.2</ele><time>2022-11-06T13:52:52.0000000+00:00</time></trkpt><trkpt lat="39.46082474" lon="-0.37298287"><ele>24.2</ele><time>2022-11-06T13:52:53.0000000+00:00</time></trkpt><trkpt lat="39.46082113" lon="-0.37298782"><ele>24.2</ele><time>2022-11-06T13:52:54.0000000+00:00</time></trkpt><trkpt lat="39.46081619" lon="-0.37299151"><ele>24.2</ele><time>2022-11-06T13:52:55.0000000+00:00</time></trkpt><trkpt lat="39.46081543" lon="-0.37298941"><ele>24.2</ele><time>2022-11-06T13:52:56.0000000+00:00</time></trkpt><trkpt lat="39.46082046" lon="-0.37298639"><ele>24.2</ele><time>2022-11-06T13:52:57.0000000+00:00</time></trkpt><trkpt lat="39.46082046" lon="-0.37298639"><ele>24.2</ele><time>2022-11-06T13:52:58.0000000+00:00</time></trkpt><trkpt lat="39.46082046" lon="-0.37298639"><ele>24.2</ele><time>2022-11-06T13:52:59.0000000+00:00</time></trkpt><trkpt lat="39.46082046" lon="-0.37298639"><ele>24.2</ele><time>2022-11-06T13:53:00.0000000+00:00</time></trkpt><trkpt lat="39.46082046" lon="-0.37298639"><ele>24.2</ele><time>2022-11-06T13:53:01.0000000+00:00</time></trkpt><trkpt lat="39.46082197" lon="-0.37298572"><ele>24.2</ele><time>2022-11-06T13:53:02.0000000+00:00</time></trkpt><trkpt lat="39.46082884" lon="-0.37298086"><ele>24.2</ele><time>2022-11-06T13:53:03.0000000+00:00</time></trkpt><trkpt lat="39.46083111" lon="-0.37298162"><ele>24.2</ele><time>2022-11-06T13:53:04.0000000+00:00</time></trkpt><trkpt lat="39.4608384" lon="-0.37298329"><ele>24.2</ele><time>2022-11-06T13:53:05.0000000+00:00</time></trkpt><trkpt lat="39.46084502" lon="-0.37298363"><ele>24.2</ele><time>2022-11-06T13:53:06.0000000+00:00</time></trkpt><trkpt lat="39.46084737" lon="-0.37298673"><ele>24.2</ele><time>2022-11-06T13:53:07.0000000+00:00</time></trkpt><trkpt lat="39.46084846" lon="-0.37298916"><ele>24.2</ele><time>2022-11-06T13:53:08.0000000+00:00</time></trkpt><trkpt lat="39.46085684" lon="-0.37298732"><ele>24.2</ele><time>2022-11-06T13:53:09.0000000+00:00</time></trkpt><trkpt lat="39.46086405" lon="-0.37298706"><ele>24.2</ele><time>2022-11-06T13:53:10.0000000+00:00</time></trkpt><trkpt lat="39.46087277" lon="-0.37298891"><ele>24.2</ele><time>2022-11-06T13:53:11.0000000+00:00</time></trkpt><trkpt lat="39.46087545" lon="-0.37299293"><ele>24.2</ele><time>2022-11-06T13:53:12.0000000+00:00</time></trkpt><trkpt lat="39.46086916" lon="-0.37299654"><ele>24.2</ele><time>2022-11-06T13:53:13.0000000+00:00</time></trkpt><trkpt lat="39.46087444" lon="-0.37299796"><ele>24.2</ele><time>2022-11-06T13:53:14.0000000+00:00</time></trkpt><trkpt lat="39.46087511" lon="-0.3729998"><ele>24.2</ele><time>2022-11-06T13:53:15.0000000+00:00</time></trkpt><trkpt lat="39.4608757" lon="-0.37300274"><ele>24.2</ele><time>2022-11-06T13:53:16.0000000+00:00</time></trkpt><trkpt lat="39.46087277" lon="-0.37300902"><ele>24.2</ele><time>2022-11-06T13:53:17.0000000+00:00</time></trkpt><trkpt lat="39.46087788" lon="-0.37301682"><ele>24.2</ele><time>2022-11-06T13:53:18.0000000+00:00</time></trkpt><trkpt lat="39.46088106" lon="-0.37302654"><ele>24.2</ele><time>2022-11-06T13:53:19.0000000+00:00</time></trkpt><trkpt lat="39.46088207" lon="-0.37303467"><ele>24.2</ele><time>2022-11-06T13:53:20.0000000+00:00</time></trkpt><trkpt lat="39.46088316" lon="-0.37304046"><ele>24.2</ele><time>2022-11-06T13:53:21.0000000+00:00</time></trkpt><trkpt lat="39.46088299" lon="-0.37304255"><ele>24.2</ele><time>2022-11-06T13:53:22.0000000+00:00</time></trkpt><trkpt lat="39.46088215" lon="-0.37304482"><ele>24.2</ele><time>2022-11-06T13:53:23.0000000+00:00</time></trkpt><trkpt lat="39.46088048" lon="-0.37305152"><ele>24.2</ele><time>2022-11-06T13:53:24.0000000+00:00</time></trkpt><trkpt lat="39.46088224" lon="-0.37305404"><ele>24.2</ele><time>2022-11-06T13:53:25.0000000+00:00</time></trkpt><trkpt lat="39.46088559" lon="-0.37305563"><ele>24.2</ele><time>2022-11-06T13:53:26.0000000+00:00</time></trkpt><trkpt lat="39.46087972" lon="-0.37306309"><ele>24.2</ele><time>2022-11-06T13:53:27.0000000+00:00</time></trkpt><trkpt lat="39.46090604" lon="-0.37304289"><ele>24.2</ele><time>2022-11-06T13:53:28.0000000+00:00</time></trkpt><trkpt lat="39.46091761" lon="-0.37302361"><ele>24.2</ele><time>2022-11-06T13:53:29.0000000+00:00</time></trkpt><trkpt lat="39.46092649" lon="-0.37301716"><ele>24.2</ele><time>2022-11-06T13:53:30.0000000+00:00</time></trkpt><trkpt lat="39.46092926" lon="-0.3730133"><ele>24.2</ele><time>2022-11-06T13:53:31.0000000+00:00</time></trkpt><trkpt lat="39.46094091" lon="-0.37300475"><ele>24.2</ele><time>2022-11-06T13:53:32.0000000+00:00</time></trkpt><trkpt lat="39.46093831" lon="-0.37300408"><ele>24.2</ele><time>2022-11-06T13:53:33.0000000+00:00</time></trkpt><trkpt lat="39.46092574" lon="-0.37301808"><ele>24.2</ele><time>2022-11-06T13:53:34.0000000+00:00</time></trkpt><trkpt lat="39.46094032" lon="-0.37301053"><ele>24.2</ele><time>2022-11-06T13:53:35.0000000+00:00</time></trkpt><trkpt lat="39.460956" lon="-0.37300483"><ele>24.2</ele><time>2022-11-06T13:53:36.0000000+00:00</time></trkpt><trkpt lat="39.4609513" lon="-0.37300383"><ele>24.2</ele><time>2022-11-06T13:53:37.0000000+00:00</time></trkpt><trkpt lat="39.46094946" lon="-0.37300517"><ele>24.2</ele><time>2022-11-06T13:53:38.0000000+00:00</time></trkpt><trkpt lat="39.46095105" lon="-0.37300492"><ele>24.2</ele><time>2022-11-06T13:53:39.0000000+00:00</time></trkpt><trkpt lat="39.46094887" lon="-0.37300425"><ele>24.2</ele><time>2022-11-06T13:53:40.0000000+00:00</time></trkpt><trkpt lat="39.46094904" lon="-0.37300475"><ele>24.2</ele><time>2022-11-06T13:53:41.0000000+00:00</time></trkpt><trkpt lat="39.46094343" lon="-0.37300609"><ele>24.2</ele><time>2022-11-06T13:53:42.0000000+00:00</time></trkpt><trkpt lat="39.46092599" lon="-0.37300953"><ele>24.2</ele><time>2022-11-06T13:53:43.0000000+00:00</time></trkpt><trkpt lat="39.46091887" lon="-0.37301011"><ele>24.2</ele><time>2022-11-06T13:53:44.0000000+00:00</time></trkpt><trkpt lat="39.46091635" lon="-0.37301405"><ele>24.2</ele><time>2022-11-06T13:53:45.0000000+00:00</time></trkpt><trkpt lat="39.46091048" lon="-0.37301431"><ele>24.2</ele><time>2022-11-06T13:53:46.0000000+00:00</time></trkpt><trkpt lat="39.46090546" lon="-0.37301506"><ele>24.2</ele><time>2022-11-06T13:53:47.0000000+00:00</time></trkpt><trkpt lat="39.46094049" lon="-0.3729962"><ele>24.2</ele><time>2022-11-06T13:53:48.0000000+00:00</time></trkpt><trkpt lat="39.46091191" lon="-0.37303291"><ele>24.2</ele><time>2022-11-06T13:53:49.0000000+00:00</time></trkpt><trkpt lat="39.46090655" lon="-0.37304205"><ele>24.2</ele><time>2022-11-06T13:53:50.0000000+00:00</time></trkpt><trkpt lat="39.46091996" lon="-0.37303652"><ele>24.2</ele><time>2022-11-06T13:53:51.0000000+00:00</time></trkpt><trkpt lat="39.4609223" lon="-0.37303543"><ele>24.2</ele><time>2022-11-06T13:53:52.0000000+00:00</time></trkpt><trkpt lat="39.46089146" lon="-0.37305689"><ele>24.2</ele><time>2022-11-06T13:53:53.0000000+00:00</time></trkpt><trkpt lat="39.46087159" lon="-0.37306988"><ele>24.2</ele><time>2022-11-06T13:53:54.0000000+00:00</time></trkpt><trkpt lat="39.46085349" lon="-0.37308396"><ele>24.2</ele><time>2022-11-06T13:53:55.0000000+00:00</time></trkpt><trkpt lat="39.4608384" lon="-0.37309737"><ele>24.2</ele><time>2022-11-06T13:53:56.0000000+00:00</time></trkpt><trkpt lat="39.46082197" lon="-0.37310634"><ele>24.2</ele><time>2022-11-06T13:53:57.0000000+00:00</time></trkpt><trkpt lat="39.46083186" lon="-0.37310114"><ele>24.2</ele><time>2022-11-06T13:53:58.0000000+00:00</time></trkpt><trkpt lat="39.46084041" lon="-0.37310374"><ele>24.2</ele><time>2022-11-06T13:53:59.0000000+00:00</time></trkpt><trkpt lat="39.46083974" lon="-0.37310324"><ele>24.2</ele><time>2022-11-06T13:54:00.0000000+00:00</time></trkpt><trkpt lat="39.46081133" lon="-0.37312788"><ele>24.2</ele><time>2022-11-06T13:54:01.0000000+00:00</time></trkpt><trkpt lat="39.46079842" lon="-0.37313978"><ele>24.2</ele><time>2022-11-06T13:54:02.0000000+00:00</time></trkpt><trkpt lat="39.46078199" lon="-0.37315395"><ele>24.2</ele><time>2022-11-06T13:54:03.0000000+00:00</time></trkpt><trkpt lat="39.46078132" lon="-0.37316342"><ele>24.2</ele><time>2022-11-06T13:54:04.0000000+00:00</time></trkpt><trkpt lat="39.46078752" lon="-0.37314305"><ele>24.2</ele><time>2022-11-06T13:54:05.0000000+00:00</time></trkpt><trkpt lat="39.46080554" lon="-0.37312293"><ele>24.2</ele><time>2022-11-06T13:54:06.0000000+00:00</time></trkpt><trkpt lat="39.46081904" lon="-0.37310885"><ele>24.2</ele><time>2022-11-06T13:54:07.0000000+00:00</time></trkpt><trkpt lat="39.46082876" lon="-0.37309896"><ele>24.2</ele><time>2022-11-06T13:54:08.0000000+00:00</time></trkpt><trkpt lat="39.46083706" lon="-0.37309025"><ele>24.2</ele><time>2022-11-06T13:54:09.0000000+00:00</time></trkpt><trkpt lat="39.46084117" lon="-0.37308723"><ele>24.2</ele><time>2022-11-06T13:54:10.0000000+00:00</time></trkpt><trkpt lat="39.46084326" lon="-0.37309653"><ele>24.2</ele><time>2022-11-06T13:54:11.0000000+00:00</time></trkpt><trkpt lat="39.46086112" lon="-0.3730879"><ele>24.2</ele><time>2022-11-06T13:54:13.0000000+00:00</time></trkpt><trkpt lat="39.46086916" lon="-0.37308027"><ele>24.2</ele><time>2022-11-06T13:54:14.0000000+00:00</time></trkpt><trkpt lat="39.46086447" lon="-0.3730879"><ele>24.2</ele><time>2022-11-06T13:54:15.0000000+00:00</time></trkpt><trkpt lat="39.4608726" lon="-0.37306543"><ele>24.2</ele><time>2022-11-06T13:54:16.0000000+00:00</time></trkpt><trkpt lat="39.4608073" lon="-0.37307222"><ele>24.2</ele><time>2022-11-06T13:54:17.0000000+00:00</time></trkpt><trkpt lat="39.46078501" lon="-0.37308874"><ele>24.2</ele><time>2022-11-06T13:54:18.0000000+00:00</time></trkpt><trkpt lat="39.46077009" lon="-0.37310131"><ele>24.2</ele><time>2022-11-06T13:54:19.0000000+00:00</time></trkpt><trkpt lat="39.46078241" lon="-0.37310081"><ele>24.2</ele><time>2022-11-06T13:54:20.0000000+00:00</time></trkpt><trkpt lat="39.46077788" lon="-0.37309611"><ele>24.2</ele><time>2022-11-06T13:54:21.0000000+00:00</time></trkpt><trkpt lat="39.46077445" lon="-0.37308966"><ele>24.2</ele><time>2022-11-06T13:54:22.0000000+00:00</time></trkpt><trkpt lat="39.46078132" lon="-0.37307742"><ele>24.2</ele><time>2022-11-06T13:54:23.0000000+00:00</time></trkpt><trkpt lat="39.46075131" lon="-0.37308916"><ele>24.2</ele><time>2022-11-06T13:54:24.0000000+00:00</time></trkpt><trkpt lat="39.46074897" lon="-0.37308849"><ele>24.2</ele><time>2022-11-06T13:54:25.0000000+00:00</time></trkpt><trkpt lat="39.46074695" lon="-0.37308874"><ele>24.2</ele><time>2022-11-06T13:54:26.0000000+00:00</time></trkpt><trkpt lat="39.4607457" lon="-0.37308957"><ele>24.2</ele><time>2022-11-06T13:54:27.0000000+00:00</time></trkpt><trkpt lat="39.460726" lon="-0.37310022"><ele>24.2</ele><time>2022-11-06T13:54:28.0000000+00:00</time></trkpt><trkpt lat="39.46072323" lon="-0.37309812"><ele>24.2</ele><time>2022-11-06T13:54:29.0000000+00:00</time></trkpt><trkpt lat="39.46071971" lon="-0.37310106"><ele>24.2</ele><time>2022-11-06T13:54:30.0000000+00:00</time></trkpt><trkpt lat="39.460711" lon="-0.37310743"><ele>24.2</ele><time>2022-11-06T13:54:31.0000000+00:00</time></trkpt><trkpt lat="39.46069331" lon="-0.37311782"><ele>24.2</ele><time>2022-11-06T13:54:32.0000000+00:00</time></trkpt><trkpt lat="39.4606664" lon="-0.37313869"><ele>24.2</ele><time>2022-11-06T13:54:33.0000000+00:00</time></trkpt><trkpt lat="39.46063841" lon="-0.3731625"><ele>24.2</ele><time>2022-11-06T13:54:34.0000000+00:00</time></trkpt><trkpt lat="39.46059918" lon="-0.37318463"><ele>24.2</ele><time>2022-11-06T13:54:35.0000000+00:00</time></trkpt><trkpt lat="39.46057747" lon="-0.37319636"><ele>24.2</ele><time>2022-11-06T13:54:36.0000000+00:00</time></trkpt><trkpt lat="39.46060295" lon="-0.37314246"><ele>24.2</ele><time>2022-11-06T13:54:37.0000000+00:00</time></trkpt><trkpt lat="39.46060337" lon="-0.37312796"><ele>24.2</ele><time>2022-11-06T13:54:38.0000000+00:00</time></trkpt><trkpt lat="39.4606027" lon="-0.37311631"><ele>24.2</ele><time>2022-11-06T13:54:39.0000000+00:00</time></trkpt><trkpt lat="39.46059298" lon="-0.37310307"><ele>24.2</ele><time>2022-11-06T13:54:40.0000000+00:00</time></trkpt><trkpt lat="39.46058812" lon="-0.37309226"><ele>24.2</ele><time>2022-11-06T13:54:41.0000000+00:00</time></trkpt><trkpt lat="39.46058761" lon="-0.37307885"><ele>24.2</ele><time>2022-11-06T13:54:42.0000000+00:00</time></trkpt><trkpt lat="39.46058166" lon="-0.37306828"><ele>24.2</ele><time>2022-11-06T13:54:43.0000000+00:00</time></trkpt><trkpt lat="39.46058795" lon="-0.37305546"><ele>24.2</ele><time>2022-11-06T13:54:44.0000000+00:00</time></trkpt><trkpt lat="39.46058879" lon="-0.37304155"><ele>24.2</ele><time>2022-11-06T13:54:45.0000000+00:00</time></trkpt><trkpt lat="39.46059415" lon="-0.3730278"><ele>24.2</ele><time>2022-11-06T13:54:46.0000000+00:00</time></trkpt><trkpt lat="39.46058401" lon="-0.37302596"><ele>24.2</ele><time>2022-11-06T13:54:47.0000000+00:00</time></trkpt><trkpt lat="39.46057865" lon="-0.37302042"><ele>24.2</ele><time>2022-11-06T13:54:48.0000000+00:00</time></trkpt><trkpt lat="39.46058502" lon="-0.37301179"><ele>24.2</ele><time>2022-11-06T13:54:49.0000000+00:00</time></trkpt><trkpt lat="39.46058351" lon="-0.373019"><ele>24.2</ele><time>2022-11-06T13:54:50.0000000+00:00</time></trkpt><trkpt lat="39.46058963" lon="-0.37302093"><ele>24.2</ele><time>2022-11-06T13:54:51.0000000+00:00</time></trkpt><trkpt lat="39.46058527" lon="-0.37302721"><ele>24.2</ele><time>2022-11-06T13:54:52.0000000+00:00</time></trkpt><trkpt lat="39.46058317" lon="-0.37303258"><ele>24.2</ele><time>2022-11-06T13:54:53.0000000+00:00</time></trkpt><trkpt lat="39.46057596" lon="-0.37303777"><ele>24.2</ele><time>2022-11-06T13:54:54.0000000+00:00</time></trkpt><trkpt lat="39.4605649" lon="-0.3730454"><ele>24.2</ele><time>2022-11-06T13:54:55.0000000+00:00</time></trkpt><trkpt lat="39.46053632" lon="-0.37306527"><ele>24.2</ele><time>2022-11-06T13:54:56.0000000+00:00</time></trkpt><trkpt lat="39.46051503" lon="-0.37307801"><ele>24.2</ele><time>2022-11-06T13:54:57.0000000+00:00</time></trkpt><trkpt lat="39.46050991" lon="-0.3730832"><ele>24.2</ele><time>2022-11-06T13:54:58.0000000+00:00</time></trkpt><trkpt lat="39.46049667" lon="-0.37309226"><ele>24.2</ele><time>2022-11-06T13:54:59.0000000+00:00</time></trkpt><trkpt lat="39.46047077" lon="-0.3731019"><ele>24.2</ele><time>2022-11-06T13:55:00.0000000+00:00</time></trkpt><trkpt lat="39.46043246" lon="-0.37311698"><ele>24.2</ele><time>2022-11-06T13:55:01.0000000+00:00</time></trkpt><trkpt lat="39.46039056" lon="-0.37313568"><ele>24.2</ele><time>2022-11-06T13:55:02.0000000+00:00</time></trkpt><trkpt lat="39.4603644" lon="-0.37315152"><ele>24.2</ele><time>2022-11-06T13:55:03.0000000+00:00</time></trkpt><trkpt lat="39.46034596" lon="-0.373163"><ele>24.2</ele><time>2022-11-06T13:55:04.0000000+00:00</time></trkpt><trkpt lat="39.46032233" lon="-0.37317842"><ele>24.2</ele><time>2022-11-06T13:55:05.0000000+00:00</time></trkpt><trkpt lat="39.46033272" lon="-0.37318027"><ele>24.2</ele><time>2022-11-06T13:55:06.0000000+00:00</time></trkpt><trkpt lat="39.46032266" lon="-0.37317901"><ele>24.2</ele><time>2022-11-06T13:55:07.0000000+00:00</time></trkpt><trkpt lat="39.46030808" lon="-0.37318186"><ele>24.2</ele><time>2022-11-06T13:55:08.0000000+00:00</time></trkpt><trkpt lat="39.46030221" lon="-0.3731801"><ele>24.2</ele><time>2022-11-06T13:55:09.0000000+00:00</time></trkpt><trkpt lat="39.46029902" lon="-0.37317666"><ele>24.2</ele><time>2022-11-06T13:55:10.0000000+00:00</time></trkpt><trkpt lat="39.4602883" lon="-0.37317574"><ele>24.2</ele><time>2022-11-06T13:55:11.0000000+00:00</time></trkpt><trkpt lat="39.46030749" lon="-0.37317541"><ele>24.2</ele><time>2022-11-06T13:55:12.0000000+00:00</time></trkpt><trkpt lat="39.46067185" lon="-0.37343935"><ele>23.8</ele><time>2022-11-06T14:00:24.0000000+00:00</time></trkpt><trkpt lat="39.46064436" lon="-0.37361361"><ele>23.8</ele><time>2022-11-06T14:00:25.0000000+00:00</time></trkpt><trkpt lat="39.46094234" lon="-0.37267249"><ele>23.8</ele><time>2022-11-06T14:00:26.0000000+00:00</time></trkpt><trkpt lat="39.46101476" lon="-0.37262329"><ele>23.8</ele><time>2022-11-06T14:00:27.0000000+00:00</time></trkpt><trkpt lat="39.46101836" lon="-0.37264559"><ele>23.8</ele><time>2022-11-06T14:00:28.0000000+00:00</time></trkpt><trkpt lat="39.46098416" lon="-0.37268875"><ele>23.8</ele><time>2022-11-06T14:00:29.0000000+00:00</time></trkpt><trkpt lat="39.46097067" lon="-0.37272438"><ele>23.6</ele><time>2022-11-06T14:00:30.0000000+00:00</time></trkpt><trkpt lat="39.46098022" lon="-0.37274726"><ele>23.6</ele><time>2022-11-06T14:00:31.0000000+00:00</time></trkpt><trkpt lat="39.46098106" lon="-0.37277802"><ele>23.6</ele><time>2022-11-06T14:00:32.0000000+00:00</time></trkpt><trkpt lat="39.46098592" lon="-0.37279981"><ele>23.6</ele><time>2022-11-06T14:00:33.0000000+00:00</time></trkpt><trkpt lat="39.46099347" lon="-0.37280032"><ele>23.6</ele><time>2022-11-06T14:00:34.0000000+00:00</time></trkpt><trkpt lat="39.46100067" lon="-0.37280392"><ele>23.4</ele><time>2022-11-06T14:00:35.0000000+00:00</time></trkpt><trkpt lat="39.46100855" lon="-0.37281054"><ele>23.4</ele><time>2022-11-06T14:00:36.0000000+00:00</time></trkpt><trkpt lat="39.4610145" lon="-0.37282345"><ele>23.2</ele><time>2022-11-06T14:00:37.0000000+00:00</time></trkpt><trkpt lat="39.46101928" lon="-0.37282697"><ele>23.2</ele><time>2022-11-06T14:00:38.0000000+00:00</time></trkpt><trkpt lat="39.46101886" lon="-0.37284683"><ele>23.2</ele><time>2022-11-06T14:00:39.0000000+00:00</time></trkpt><trkpt lat="39.46101442" lon="-0.37286938"><ele>23.2</ele><time>2022-11-06T14:00:40.0000000+00:00</time></trkpt><trkpt lat="39.46101006" lon="-0.3728869"><ele>23.2</ele><time>2022-11-06T14:00:41.0000000+00:00</time></trkpt><trkpt lat="39.46099933" lon="-0.37291221"><ele>23.0</ele><time>2022-11-06T14:00:42.0000000+00:00</time></trkpt><trkpt lat="39.46098751" lon="-0.37293912"><ele>23.0</ele><time>2022-11-06T14:00:43.0000000+00:00</time></trkpt><trkpt lat="39.46097201" lon="-0.37295312"><ele>23.0</ele><time>2022-11-06T14:00:44.0000000+00:00</time></trkpt><trkpt lat="39.46095902" lon="-0.37295002"><ele>23.0</ele><time>2022-11-06T14:00:45.0000000+00:00</time></trkpt><trkpt lat="39.46094376" lon="-0.37296007"><ele>23.0</ele><time>2022-11-06T14:00:46.0000000+00:00</time></trkpt><trkpt lat="39.46093446" lon="-0.37297147"><ele>23.2</ele><time>2022-11-06T14:00:47.0000000+00:00</time></trkpt><trkpt lat="39.46092792" lon="-0.37298463"><ele>23.2</ele><time>2022-11-06T14:00:48.0000000+00:00</time></trkpt><trkpt lat="39.46092767" lon="-0.37299134"><ele>23.2</ele><time>2022-11-06T14:00:49.0000000+00:00</time></trkpt><trkpt lat="39.46093219" lon="-0.37301322"><ele>23.2</ele><time>2022-11-06T14:00:50.0000000+00:00</time></trkpt><trkpt lat="39.46092716" lon="-0.37302797"><ele>23.2</ele><time>2022-11-06T14:00:51.0000000+00:00</time></trkpt><trkpt lat="39.46092255" lon="-0.37303249"><ele>23.2</ele><time>2022-11-06T14:00:52.0000000+00:00</time></trkpt><trkpt lat="39.46091987" lon="-0.37302705"><ele>23.2</ele><time>2022-11-06T14:00:53.0000000+00:00</time></trkpt><trkpt lat="39.46091535" lon="-0.37302252"><ele>23.2</ele><time>2022-11-06T14:00:54.0000000+00:00</time></trkpt><trkpt lat="39.46090621" lon="-0.37300433"><ele>23.2</ele><time>2022-11-06T14:00:55.0000000+00:00</time></trkpt><trkpt lat="39.46090789" lon="-0.3730102"><ele>23.2</ele><time>2022-11-06T14:00:56.0000000+00:00</time></trkpt><trkpt lat="39.46090822" lon="-0.37300651"><ele>23.2</ele><time>2022-11-06T14:00:57.0000000+00:00</time></trkpt><trkpt lat="39.46090696" lon="-0.37300517"><ele>23.2</ele><time>2022-11-06T14:00:58.0000000+00:00</time></trkpt><trkpt lat="39.46091157" lon="-0.37300006"><ele>23.2</ele><time>2022-11-06T14:00:59.0000000+00:00</time></trkpt><trkpt lat="39.46090981" lon="-0.3729843"><ele>23.2</ele><time>2022-11-06T14:01:00.0000000+00:00</time></trkpt><trkpt lat="39.46091468" lon="-0.37296058"><ele>23.4</ele><time>2022-11-06T14:01:01.0000000+00:00</time></trkpt><trkpt lat="39.46091149" lon="-0.3729356"><ele>23.4</ele><time>2022-11-06T14:01:02.0000000+00:00</time></trkpt><trkpt lat="39.46091794" lon="-0.37291138"><ele>23.4</ele><time>2022-11-06T14:01:03.0000000+00:00</time></trkpt><trkpt lat="39.46090755" lon="-0.37290123"><ele>23.4</ele><time>2022-11-06T14:01:04.0000000+00:00</time></trkpt><trkpt lat="39.46089841" lon="-0.37290014"><ele>23.6</ele><time>2022-11-06T14:01:05.0000000+00:00</time></trkpt><trkpt lat="39.46089439" lon="-0.37289905"><ele>23.6</ele><time>2022-11-06T14:01:06.0000000+00:00</time></trkpt><trkpt lat="39.46089213" lon="-0.37289981"><ele>23.6</ele><time>2022-11-06T14:01:07.0000000+00:00</time></trkpt><trkpt lat="39.4608902" lon="-0.37290492"><ele>23.6</ele><time>2022-11-06T14:01:08.0000000+00:00</time></trkpt><trkpt lat="39.46088081" lon="-0.37290735"><ele>23.6</ele><time>2022-11-06T14:01:09.0000000+00:00</time></trkpt><trkpt lat="39.46087344" lon="-0.37291573"><ele>23.8</ele><time>2022-11-06T14:01:10.0000000+00:00</time></trkpt><trkpt lat="39.46086296" lon="-0.37292495"><ele>24.0</ele><time>2022-11-06T14:01:11.0000000+00:00</time></trkpt><trkpt lat="39.460855" lon="-0.37291196"><ele>24.0</ele><time>2022-11-06T14:01:12.0000000+00:00</time></trkpt><trkpt lat="39.46084594" lon="-0.37289956"><ele>24.0</ele><time>2022-11-06T14:01:13.0000000+00:00</time></trkpt><trkpt lat="39.46083848" lon="-0.3728983"><ele>24.2</ele><time>2022-11-06T14:01:14.0000000+00:00</time></trkpt><trkpt lat="39.46082776" lon="-0.37288757"><ele>24.2</ele><time>2022-11-06T14:01:15.0000000+00:00</time></trkpt><trkpt lat="39.46082315" lon="-0.37288648"><ele>24.0</ele><time>2022-11-06T14:01:16.0000000+00:00</time></trkpt><trkpt lat="39.46082155" lon="-0.3729009"><ele>23.8</ele><time>2022-11-06T14:01:17.0000000+00:00</time></trkpt><trkpt lat="39.46082088" lon="-0.3729159"><ele>23.6</ele><time>2022-11-06T14:01:18.0000000+00:00</time></trkpt><trkpt lat="39.46082038" lon="-0.37293032"><ele>23.4</ele><time>2022-11-06T14:01:19.0000000+00:00</time></trkpt><trkpt lat="39.46082206" lon="-0.37294423"><ele>23.4</ele><time>2022-11-06T14:01:20.0000000+00:00</time></trkpt><trkpt lat="39.46082013" lon="-0.37296343"><ele>23.2</ele><time>2022-11-06T14:01:21.0000000+00:00</time></trkpt><trkpt lat="39.46081719" lon="-0.37298706"><ele>23.2</ele><time>2022-11-06T14:01:22.0000000+00:00</time></trkpt><trkpt lat="39.46081409" lon="-0.37301087"><ele>23.2</ele><time>2022-11-06T14:01:23.0000000+00:00</time></trkpt><trkpt lat="39.46081108" lon="-0.37303099"><ele>23.2</ele><time>2022-11-06T14:01:24.0000000+00:00</time></trkpt><trkpt lat="39.46080906" lon="-0.3730506"><ele>23.2</ele><time>2022-11-06T14:01:25.0000000+00:00</time></trkpt><trkpt lat="39.46080747" lon="-0.37307105"><ele>23.2</ele><time>2022-11-06T14:01:26.0000000+00:00</time></trkpt><trkpt lat="39.4608068" lon="-0.37308211"><ele>23.2</ele><time>2022-11-06T14:01:27.0000000+00:00</time></trkpt><trkpt lat="39.46080714" lon="-0.37309041"><ele>23.2</ele><time>2022-11-06T14:01:28.0000000+00:00</time></trkpt><trkpt lat="39.46080211" lon="-0.3731112"><ele>23.2</ele><time>2022-11-06T14:01:29.0000000+00:00</time></trkpt><trkpt lat="39.46079859" lon="-0.37312838"><ele>23.2</ele><time>2022-11-06T14:01:30.0000000+00:00</time></trkpt><trkpt lat="39.46079758" lon="-0.37314632"><ele>23.2</ele><time>2022-11-06T14:01:31.0000000+00:00</time></trkpt><trkpt lat="39.46079557" lon="-0.37316593"><ele>23.2</ele><time>2022-11-06T14:01:32.0000000+00:00</time></trkpt><trkpt lat="39.46079507" lon="-0.37318421"><ele>23.2</ele><time>2022-11-06T14:01:33.0000000+00:00</time></trkpt><trkpt lat="39.46079289" lon="-0.37320374"><ele>23.2</ele><time>2022-11-06T14:01:34.0000000+00:00</time></trkpt><trkpt lat="39.46079523" lon="-0.37320172"><ele>23.2</ele><time>2022-11-06T14:01:35.0000000+00:00</time></trkpt><trkpt lat="39.46079716" lon="-0.37321019"><ele>23.2</ele><time>2022-11-06T14:01:36.0000000+00:00</time></trkpt><trkpt lat="39.46079808" lon="-0.37321681"><ele>23.2</ele><time>2022-11-06T14:01:37.0000000+00:00</time></trkpt><trkpt lat="39.46079783" lon="-0.3732293"><ele>23.2</ele><time>2022-11-06T14:01:38.0000000+00:00</time></trkpt><trkpt lat="39.46079976" lon="-0.3732288"><ele>23.2</ele><time>2022-11-06T14:01:39.0000000+00:00</time></trkpt><trkpt lat="39.4608006" lon="-0.37323617"><ele>23.2</ele><time>2022-11-06T14:01:40.0000000+00:00</time></trkpt><trkpt lat="39.46080152" lon="-0.37323483"><ele>23.2</ele><time>2022-11-06T14:01:41.0000000+00:00</time></trkpt><trkpt lat="39.46080286" lon="-0.37322201"><ele>23.2</ele><time>2022-11-06T14:01:42.0000000+00:00</time></trkpt><trkpt lat="39.46080286" lon="-0.3732024"><ele>23.2</ele><time>2022-11-06T14:01:43.0000000+00:00</time></trkpt><trkpt lat="39.46080211" lon="-0.37319695"><ele>23.2</ele><time>2022-11-06T14:01:44.0000000+00:00</time></trkpt><trkpt lat="39.46080219" lon="-0.37318739"><ele>23.2</ele><time>2022-11-06T14:01:45.0000000+00:00</time></trkpt><trkpt lat="39.46080412" lon="-0.37318488"><ele>23.2</ele><time>2022-11-06T14:01:46.0000000+00:00</time></trkpt><trkpt lat="39.46080588" lon="-0.37318454"><ele>23.2</ele><time>2022-11-06T14:01:47.0000000+00:00</time></trkpt><trkpt lat="39.46080538" lon="-0.3731868"><ele>23.2</ele><time>2022-11-06T14:01:48.0000000+00:00</time></trkpt><trkpt lat="39.46080781" lon="-0.37317867"><ele>23.2</ele><time>2022-11-06T14:01:49.0000000+00:00</time></trkpt><trkpt lat="39.46081124" lon="-0.37317884"><ele>23.2</ele><time>2022-11-06T14:01:50.0000000+00:00</time></trkpt><trkpt lat="39.46081535" lon="-0.37317197"><ele>23.2</ele><time>2022-11-06T14:01:51.0000000+00:00</time></trkpt><trkpt lat="39.46081703" lon="-0.37316836"><ele>23.2</ele><time>2022-11-06T14:01:52.0000000+00:00</time></trkpt><trkpt lat="39.46081728" lon="-0.37316426"><ele>23.2</ele><time>2022-11-06T14:01:53.0000000+00:00</time></trkpt><trkpt lat="39.4608182" lon="-0.37316627"><ele>23.4</ele><time>2022-11-06T14:01:54.0000000+00:00</time></trkpt><trkpt lat="39.46081912" lon="-0.37316367"><ele>23.4</ele><time>2022-11-06T14:01:55.0000000+00:00</time></trkpt><trkpt lat="39.46082231" lon="-0.3731599"><ele>23.4</ele><time>2022-11-06T14:01:56.0000000+00:00</time></trkpt><trkpt lat="39.46082306" lon="-0.37315537"><ele>23.4</ele><time>2022-11-06T14:01:57.0000000+00:00</time></trkpt><trkpt lat="39.46082356" lon="-0.3731485"><ele>23.4</ele><time>2022-11-06T14:01:58.0000000+00:00</time></trkpt><trkpt lat="39.46082826" lon="-0.37313869"><ele>23.4</ele><time>2022-11-06T14:01:59.0000000+00:00</time></trkpt><trkpt lat="39.46083672" lon="-0.37313023"><ele>23.4</ele><time>2022-11-06T14:02:00.0000000+00:00</time></trkpt><trkpt lat="39.46083748" lon="-0.37313584"><ele>23.4</ele><time>2022-11-06T14:02:01.0000000+00:00</time></trkpt><trkpt lat="39.46083848" lon="-0.37313936"><ele>23.4</ele><time>2022-11-06T14:02:02.0000000+00:00</time></trkpt><trkpt lat="39.46084008" lon="-0.37314397"><ele>23.4</ele><time>2022-11-06T14:02:03.0000000+00:00</time></trkpt><trkpt lat="39.46084175" lon="-0.37314238"><ele>23.2</ele><time>2022-11-06T14:02:04.0000000+00:00</time></trkpt><trkpt lat="39.46084435" lon="-0.3731428"><ele>23.2</ele><time>2022-11-06T14:02:05.0000000+00:00</time></trkpt><trkpt lat="39.46084418" lon="-0.37314917"><ele>23.2</ele><time>2022-11-06T14:02:06.0000000+00:00</time></trkpt><trkpt lat="39.46084226" lon="-0.37315764"><ele>23.2</ele><time>2022-11-06T14:02:07.0000000+00:00</time></trkpt><trkpt lat="39.46083807" lon="-0.37316032"><ele>23.2</ele><time>2022-11-06T14:02:08.0000000+00:00</time></trkpt><trkpt lat="39.46083698" lon="-0.37315713"><ele>23.2</ele><time>2022-11-06T14:02:09.0000000+00:00</time></trkpt><trkpt lat="39.46083949" lon="-0.37312679"><ele>23.2</ele><time>2022-11-06T14:02:10.0000000+00:00</time></trkpt><trkpt lat="39.4608405" lon="-0.37312704"><ele>23.2</ele><time>2022-11-06T14:02:11.0000000+00:00</time></trkpt><trkpt lat="39.46084016" lon="-0.37310701"><ele>23.2</ele><time>2022-11-06T14:02:12.0000000+00:00</time></trkpt><trkpt lat="39.46084133" lon="-0.37309385"><ele>23.2</ele><time>2022-11-06T14:02:13.0000000+00:00</time></trkpt><trkpt lat="39.46083656" lon="-0.37309846"><ele>23.2</ele><time>2022-11-06T14:02:14.0000000+00:00</time></trkpt><trkpt lat="39.46083421" lon="-0.37310014"><ele>23.2</ele><time>2022-11-06T14:02:15.0000000+00:00</time></trkpt><trkpt lat="39.46083211" lon="-0.37311204"><ele>23.2</ele><time>2022-11-06T14:02:16.0000000+00:00</time></trkpt><trkpt lat="39.46083035" lon="-0.37311707"><ele>23.2</ele><time>2022-11-06T14:02:17.0000000+00:00</time></trkpt><trkpt lat="39.46082977" lon="-0.37312218"><ele>23.2</ele><time>2022-11-06T14:02:18.0000000+00:00</time></trkpt><trkpt lat="39.46082801" lon="-0.37312637"><ele>23.2</ele><time>2022-11-06T14:02:19.0000000+00:00</time></trkpt><trkpt lat="39.46082289" lon="-0.37313257"><ele>23.2</ele><time>2022-11-06T14:02:20.0000000+00:00</time></trkpt><trkpt lat="39.4608218" lon="-0.37314205"><ele>23.2</ele><time>2022-11-06T14:02:21.0000000+00:00</time></trkpt><trkpt lat="39.46082139" lon="-0.37315034"><ele>23.2</ele><time>2022-11-06T14:02:22.0000000+00:00</time></trkpt><trkpt lat="39.46082189" lon="-0.37315814"><ele>23.2</ele><time>2022-11-06T14:02:23.0000000+00:00</time></trkpt><trkpt lat="39.46082507" lon="-0.373163"><ele>23.2</ele><time>2022-11-06T14:02:24.0000000+00:00</time></trkpt><trkpt lat="39.46082423" lon="-0.3731666"><ele>23.2</ele><time>2022-11-06T14:02:25.0000000+00:00</time></trkpt><trkpt lat="39.4608234" lon="-0.37315596"><ele>23.4</ele><time>2022-11-06T14:02:26.0000000+00:00</time></trkpt><trkpt lat="39.46082214" lon="-0.37316107"><ele>23.4</ele><time>2022-11-06T14:02:27.0000000+00:00</time></trkpt><trkpt lat="39.46082273" lon="-0.37316526"><ele>23.4</ele><time>2022-11-06T14:02:28.0000000+00:00</time></trkpt><trkpt lat="39.4608296" lon="-0.37315873"><ele>23.4</ele><time>2022-11-06T14:02:29.0000000+00:00</time></trkpt><trkpt lat="39.46083865" lon="-0.37315093"><ele>23.4</ele><time>2022-11-06T14:02:30.0000000+00:00</time></trkpt><trkpt lat="39.4608436" lon="-0.37313945"><ele>23.6</ele><time>2022-11-06T14:02:31.0000000+00:00</time></trkpt><trkpt lat="39.4608493" lon="-0.37313199"><ele>23.6</ele><time>2022-11-06T14:02:32.0000000+00:00</time></trkpt><trkpt lat="39.46085407" lon="-0.37312402"><ele>23.6</ele><time>2022-11-06T14:02:33.0000000+00:00</time></trkpt><trkpt lat="39.46086137" lon="-0.3730967"><ele>23.6</ele><time>2022-11-06T14:02:34.0000000+00:00</time></trkpt><trkpt lat="39.46086673" lon="-0.37310567"><ele>23.6</ele><time>2022-11-06T14:02:35.0000000+00:00</time></trkpt><trkpt lat="39.4608726" lon="-0.37311355"><ele>23.6</ele><time>2022-11-06T14:02:36.0000000+00:00</time></trkpt><trkpt lat="39.46087511" lon="-0.37312436"><ele>23.6</ele><time>2022-11-06T14:02:37.0000000+00:00</time></trkpt><trkpt lat="39.46088106" lon="-0.37313065"><ele>23.6</ele><time>2022-11-06T14:02:38.0000000+00:00</time></trkpt><trkpt lat="39.46089347" lon="-0.37310617"><ele>23.6</ele><time>2022-11-06T14:02:39.0000000+00:00</time></trkpt><trkpt lat="39.46090269" lon="-0.3730874"><ele>23.6</ele><time>2022-11-06T14:02:40.0000000+00:00</time></trkpt><trkpt lat="39.46090596" lon="-0.37307985"><ele>23.6</ele><time>2022-11-06T14:02:41.0000000+00:00</time></trkpt><trkpt lat="39.46090671" lon="-0.3730516"><ele>23.6</ele><time>2022-11-06T14:02:42.0000000+00:00</time></trkpt><trkpt lat="39.46090202" lon="-0.37304993"><ele>23.6</ele><time>2022-11-06T14:02:43.0000000+00:00</time></trkpt><trkpt lat="39.46089934" lon="-0.37305295"><ele>23.6</ele><time>2022-11-06T14:02:44.0000000+00:00</time></trkpt><trkpt lat="39.46089867" lon="-0.3730356"><ele>23.6</ele><time>2022-11-06T14:02:45.0000000+00:00</time></trkpt><trkpt lat="39.46089288" lon="-0.37302654"><ele>23.8</ele><time>2022-11-06T14:02:46.0000000+00:00</time></trkpt><trkpt lat="39.46089406" lon="-0.37301632"><ele>23.8</ele><time>2022-11-06T14:02:47.0000000+00:00</time></trkpt><trkpt lat="39.46090093" lon="-0.37298237"><ele>23.6</ele><time>2022-11-06T14:02:48.0000000+00:00</time></trkpt><trkpt lat="39.46090638" lon="-0.37298212"><ele>23.6</ele><time>2022-11-06T14:02:49.0000000+00:00</time></trkpt><trkpt lat="39.46090814" lon="-0.37294465"><ele>23.6</ele><time>2022-11-06T14:02:50.0000000+00:00</time></trkpt><trkpt lat="39.46091543" lon="-0.37290777"><ele>23.6</ele><time>2022-11-06T14:02:51.0000000+00:00</time></trkpt><trkpt lat="39.46091811" lon="-0.37286226"><ele>23.6</ele><time>2022-11-06T14:02:52.0000000+00:00</time></trkpt><trkpt lat="39.46093119" lon="-0.37281767"><ele>23.6</ele><time>2022-11-06T14:02:53.0000000+00:00</time></trkpt><trkpt lat="39.4609555" lon="-0.37278866"><ele>23.6</ele><time>2022-11-06T14:02:54.0000000+00:00</time></trkpt><trkpt lat="39.46096555" lon="-0.37276838"><ele>23.6</ele><time>2022-11-06T14:02:55.0000000+00:00</time></trkpt><trkpt lat="39.46097134" lon="-0.37277056"><ele>23.6</ele><time>2022-11-06T14:02:56.0000000+00:00</time></trkpt><trkpt lat="39.46098081" lon="-0.3727859"><ele>23.6</ele><time>2022-11-06T14:02:57.0000000+00:00</time></trkpt><trkpt lat="39.46097301" lon="-0.3727833"><ele>23.6</ele><time>2022-11-06T14:02:58.0000000+00:00</time></trkpt><trkpt lat="39.46096145" lon="-0.37282613"><ele>23.6</ele><time>2022-11-06T14:02:59.0000000+00:00</time></trkpt><trkpt lat="39.46094443" lon="-0.37285932"><ele>23.6</ele><time>2022-11-06T14:03:00.0000000+00:00</time></trkpt><trkpt lat="39.46092876" lon="-0.37292319"><ele>23.6</ele><time>2022-11-06T14:03:01.0000000+00:00</time></trkpt><trkpt lat="39.46091903" lon="-0.37294381"><ele>23.6</ele><time>2022-11-06T14:03:02.0000000+00:00</time></trkpt><trkpt lat="39.46090981" lon="-0.37297089"><ele>23.6</ele><time>2022-11-06T14:03:03.0000000+00:00</time></trkpt><trkpt lat="39.46090437" lon="-0.37302"><ele>23.6</ele><time>2022-11-06T14:03:04.0000000+00:00</time></trkpt><trkpt lat="39.46089892" lon="-0.37304993"><ele>23.8</ele><time>2022-11-06T14:03:05.0000000+00:00</time></trkpt><trkpt lat="39.46089624" lon="-0.37304641"><ele>23.8</ele><time>2022-11-06T14:03:06.0000000+00:00</time></trkpt><trkpt lat="39.46088995" lon="-0.37308077"><ele>23.8</ele><time>2022-11-06T14:03:07.0000000+00:00</time></trkpt><trkpt lat="39.46088517" lon="-0.37309368"><ele>23.8</ele><time>2022-11-06T14:03:08.0000000+00:00</time></trkpt><trkpt lat="39.46088073" lon="-0.37309703"><ele>23.8</ele><time>2022-11-06T14:03:09.0000000+00:00</time></trkpt><trkpt lat="39.46087972" lon="-0.37310257"><ele>23.8</ele><time>2022-11-06T14:03:10.0000000+00:00</time></trkpt><trkpt lat="39.4608819" lon="-0.37308094"><ele>23.8</ele><time>2022-11-06T14:03:11.0000000+00:00</time></trkpt><trkpt lat="39.46088735" lon="-0.37306837"><ele>23.6</ele><time>2022-11-06T14:03:12.0000000+00:00</time></trkpt><trkpt lat="39.4608902" lon="-0.37306351"><ele>24.0</ele><time>2022-11-06T14:03:13.0000000+00:00</time></trkpt><trkpt lat="39.46088987" lon="-0.37306669"><ele>24.0</ele><time>2022-11-06T14:03:14.0000000+00:00</time></trkpt><trkpt lat="39.46088869" lon="-0.37307306"><ele>24.0</ele><time>2022-11-06T14:03:15.0000000+00:00</time></trkpt><trkpt lat="39.46088509" lon="-0.37307683"><ele>24.0</ele><time>2022-11-06T14:03:16.0000000+00:00</time></trkpt><trkpt lat="39.46088199" lon="-0.37307625"><ele>24.0</ele><time>2022-11-06T14:03:17.0000000+00:00</time></trkpt><trkpt lat="39.46088014" lon="-0.37307952"><ele>24.0</ele><time>2022-11-06T14:03:18.0000000+00:00</time></trkpt><trkpt lat="39.46087319" lon="-0.37310097"><ele>24.0</ele><time>2022-11-06T14:03:19.0000000+00:00</time></trkpt><trkpt lat="39.46086673" lon="-0.3731107"><ele>24.0</ele><time>2022-11-06T14:03:20.0000000+00:00</time></trkpt><trkpt lat="39.46086371" lon="-0.37311279"><ele>24.0</ele><time>2022-11-06T14:03:21.0000000+00:00</time></trkpt><trkpt lat="39.46086564" lon="-0.37310919"><ele>24.0</ele><time>2022-11-06T14:03:22.0000000+00:00</time></trkpt><trkpt lat="39.46086547" lon="-0.37311581"><ele>24.0</ele><time>2022-11-06T14:03:23.0000000+00:00</time></trkpt><trkpt lat="39.46087084" lon="-0.37312595"><ele>24.0</ele><time>2022-11-06T14:03:24.0000000+00:00</time></trkpt><trkpt lat="39.46087319" lon="-0.37312947"><ele>24.0</ele><time>2022-11-06T14:03:25.0000000+00:00</time></trkpt><trkpt lat="39.46087671" lon="-0.37312679"><ele>24.0</ele><time>2022-11-06T14:03:26.0000000+00:00</time></trkpt><trkpt lat="39.46087972" lon="-0.37310089"><ele>24.0</ele><time>2022-11-06T14:03:27.0000000+00:00</time></trkpt><trkpt lat="39.46088626" lon="-0.3730687"><ele>24.0</ele><time>2022-11-06T14:03:28.0000000+00:00</time></trkpt><trkpt lat="39.46088995" lon="-0.37306225"><ele>24.0</ele><time>2022-11-06T14:03:29.0000000+00:00</time></trkpt><trkpt lat="39.46089188" lon="-0.3730573"><ele>24.0</ele><time>2022-11-06T14:03:30.0000000+00:00</time></trkpt><trkpt lat="39.4608897" lon="-0.37305647"><ele>24.0</ele><time>2022-11-06T14:03:31.0000000+00:00</time></trkpt><trkpt lat="39.46088383" lon="-0.37307072"><ele>24.0</ele><time>2022-11-06T14:03:32.0000000+00:00</time></trkpt><trkpt lat="39.46088039" lon="-0.3730858"><ele>24.0</ele><time>2022-11-06T14:03:33.0000000+00:00</time></trkpt><trkpt lat="39.46087721" lon="-0.37309821"><ele>24.0</ele><time>2022-11-06T14:03:34.0000000+00:00</time></trkpt><trkpt lat="39.46087075" lon="-0.37311908"><ele>24.0</ele><time>2022-11-06T14:03:35.0000000+00:00</time></trkpt><trkpt lat="39.46086237" lon="-0.37313987"><ele>24.0</ele><time>2022-11-06T14:03:36.0000000+00:00</time></trkpt><trkpt lat="39.46085785" lon="-0.37315428"><ele>24.0</ele><time>2022-11-06T14:03:37.0000000+00:00</time></trkpt><trkpt lat="39.46085651" lon="-0.37314347"><ele>24.0</ele><time>2022-11-06T14:03:38.0000000+00:00</time></trkpt><trkpt lat="39.46085223" lon="-0.37315412"><ele>24.0</ele><time>2022-11-06T14:03:39.0000000+00:00</time></trkpt><trkpt lat="39.46084745" lon="-0.37316878"><ele>24.0</ele><time>2022-11-06T14:03:40.0000000+00:00</time></trkpt><trkpt lat="39.46084091" lon="-0.37318161"><ele>24.0</ele><time>2022-11-06T14:03:41.0000000+00:00</time></trkpt><trkpt lat="39.46083941" lon="-0.37318932"><ele>24.0</ele><time>2022-11-06T14:03:42.0000000+00:00</time></trkpt><trkpt lat="39.46084083" lon="-0.37319158"><ele>24.0</ele><time>2022-11-06T14:03:43.0000000+00:00</time></trkpt><trkpt lat="39.4608493" lon="-0.37318085"><ele>24.0</ele><time>2022-11-06T14:03:44.0000000+00:00</time></trkpt><trkpt lat="39.46086656" lon="-0.3731682"><ele>24.0</ele><time>2022-11-06T14:03:45.0000000+00:00</time></trkpt><trkpt lat="39.46086874" lon="-0.37314205"><ele>24.0</ele><time>2022-11-06T14:03:46.0000000+00:00</time></trkpt><trkpt lat="39.46086464" lon="-0.37312453"><ele>24.0</ele><time>2022-11-06T14:03:47.0000000+00:00</time></trkpt><trkpt lat="39.46087562" lon="-0.3730889"><ele>24.0</ele><time>2022-11-06T14:03:48.0000000+00:00</time></trkpt><trkpt lat="39.46087847" lon="-0.37305915"><ele>24.0</ele><time>2022-11-06T14:03:49.0000000+00:00</time></trkpt><trkpt lat="39.46087495" lon="-0.37303107"><ele>24.0</ele><time>2022-11-06T14:03:50.0000000+00:00</time></trkpt><trkpt lat="39.46087159" lon="-0.37301456"><ele>24.0</ele><time>2022-11-06T14:03:51.0000000+00:00</time></trkpt><trkpt lat="39.46086531" lon="-0.37299293"><ele>24.0</ele><time>2022-11-06T14:03:52.0000000+00:00</time></trkpt><trkpt lat="39.46085516" lon="-0.37296795"><ele>24.0</ele><time>2022-11-06T14:03:53.0000000+00:00</time></trkpt><trkpt lat="39.460856" lon="-0.37295127"><ele>24.0</ele><time>2022-11-06T14:03:54.0000000+00:00</time></trkpt><trkpt lat="39.46084594" lon="-0.37295798"><ele>24.0</ele><time>2022-11-06T14:03:55.0000000+00:00</time></trkpt><trkpt lat="39.46083681" lon="-0.37298388"><ele>24.0</ele><time>2022-11-06T14:03:56.0000000+00:00</time></trkpt><trkpt lat="39.46082926" lon="-0.37299369"><ele>24.0</ele><time>2022-11-06T14:03:57.0000000+00:00</time></trkpt><trkpt lat="39.46082482" lon="-0.37300131"><ele>24.0</ele><time>2022-11-06T14:03:58.0000000+00:00</time></trkpt><trkpt lat="39.46084645" lon="-0.37297969"><ele>24.0</ele><time>2022-11-06T14:03:59.0000000+00:00</time></trkpt><trkpt lat="39.46086246" lon="-0.37295094"><ele>24.0</ele><time>2022-11-06T14:04:00.0000000+00:00</time></trkpt><trkpt lat="39.46085458" lon="-0.37295949"><ele>24.0</ele><time>2022-11-06T14:04:01.0000000+00:00</time></trkpt><trkpt lat="39.46086648" lon="-0.37293778"><ele>24.0</ele><time>2022-11-06T14:04:02.0000000+00:00</time></trkpt><trkpt lat="39.46085868" lon="-0.37295823"><ele>24.0</ele><time>2022-11-06T14:04:03.0000000+00:00</time></trkpt><trkpt lat="39.4608643" lon="-0.37296209"><ele>24.0</ele><time>2022-11-06T14:04:04.0000000+00:00</time></trkpt><trkpt lat="39.46090143" lon="-0.37297164"><ele>24.0</ele><time>2022-11-06T14:04:05.0000000+00:00</time></trkpt><trkpt lat="39.46091644" lon="-0.37298254"><ele>24.0</ele><time>2022-11-06T14:04:06.0000000+00:00</time></trkpt><trkpt lat="39.46091677" lon="-0.37300492"><ele>24.0</ele><time>2022-11-06T14:04:07.0000000+00:00</time></trkpt><trkpt lat="39.46091627" lon="-0.37300525"><ele>24.0</ele><time>2022-11-06T14:04:08.0000000+00:00</time></trkpt><trkpt lat="39.46091501" lon="-0.37300726"><ele>24.0</ele><time>2022-11-06T14:04:09.0000000+00:00</time></trkpt><trkpt lat="39.4609078" lon="-0.37301229"><ele>24.0</ele><time>2022-11-06T14:04:10.0000000+00:00</time></trkpt><trkpt lat="39.46089707" lon="-0.37302923"><ele>24.0</ele><time>2022-11-06T14:04:11.0000000+00:00</time></trkpt><trkpt lat="39.46088224" lon="-0.37305906"><ele>24.0</ele><time>2022-11-06T14:04:12.0000000+00:00</time></trkpt><trkpt lat="39.46087956" lon="-0.37308279"><ele>24.0</ele><time>2022-11-06T14:04:13.0000000+00:00</time></trkpt><trkpt lat="39.46087302" lon="-0.37308689"><ele>24.0</ele><time>2022-11-06T14:04:14.0000000+00:00</time></trkpt><trkpt lat="39.46086539" lon="-0.37310584"><ele>24.0</ele><time>2022-11-06T14:04:15.0000000+00:00</time></trkpt><trkpt lat="39.46085759" lon="-0.37311187"><ele>24.0</ele><time>2022-11-06T14:04:16.0000000+00:00</time></trkpt><trkpt lat="39.46085097" lon="-0.37310818"><ele>24.0</ele><time>2022-11-06T14:04:17.0000000+00:00</time></trkpt><trkpt lat="39.46084276" lon="-0.37311874"><ele>24.0</ele><time>2022-11-06T14:04:18.0000000+00:00</time></trkpt><trkpt lat="39.46083555" lon="-0.37313056"><ele>24.0</ele><time>2022-11-06T14:04:19.0000000+00:00</time></trkpt><trkpt lat="39.46083203" lon="-0.37314716"><ele>24.0</ele><time>2022-11-06T14:04:20.0000000+00:00</time></trkpt><trkpt lat="39.46082952" lon="-0.37318555"><ele>24.0</ele><time>2022-11-06T14:04:21.0000000+00:00</time></trkpt><trkpt lat="39.46082826" lon="-0.37320952"><ele>24.0</ele><time>2022-11-06T14:04:22.0000000+00:00</time></trkpt><trkpt lat="39.46082608" lon="-0.37321162"><ele>24.0</ele><time>2022-11-06T14:04:23.0000000+00:00</time></trkpt><trkpt lat="39.46082348" lon="-0.37320457"><ele>24.0</ele><time>2022-11-06T14:04:24.0000000+00:00</time></trkpt><trkpt lat="39.46082164" lon="-0.37320877"><ele>24.0</ele><time>2022-11-06T14:04:25.0000000+00:00</time></trkpt><trkpt lat="39.46081795" lon="-0.37322167"><ele>24.0</ele><time>2022-11-06T14:04:26.0000000+00:00</time></trkpt><trkpt lat="39.46081493" lon="-0.37323081"><ele>24.0</ele><time>2022-11-06T14:04:27.0000000+00:00</time></trkpt><trkpt lat="39.46081418" lon="-0.37323752"><ele>24.0</ele><time>2022-11-06T14:04:28.0000000+00:00</time></trkpt><trkpt lat="39.4608151" lon="-0.37323416"><ele>24.0</ele><time>2022-11-06T14:04:29.0000000+00:00</time></trkpt><trkpt lat="39.46081518" lon="-0.37324229"><ele>24.0</ele><time>2022-11-06T14:04:30.0000000+00:00</time></trkpt><trkpt lat="39.46081694" lon="-0.37324707"><ele>24.0</ele><time>2022-11-06T14:04:31.0000000+00:00</time></trkpt><trkpt lat="39.46082516" lon="-0.37324363"><ele>24.0</ele><time>2022-11-06T14:04:32.0000000+00:00</time></trkpt><trkpt lat="39.46083773" lon="-0.37324933"><ele>24.0</ele><time>2022-11-06T14:04:33.0000000+00:00</time></trkpt><trkpt lat="39.4608405" lon="-0.37325"><ele>24.0</ele><time>2022-11-06T14:04:34.0000000+00:00</time></trkpt><trkpt lat="39.46083664" lon="-0.37325512"><ele>24.0</ele><time>2022-11-06T14:04:35.0000000+00:00</time></trkpt><trkpt lat="39.46083019" lon="-0.37325998"><ele>24.0</ele><time>2022-11-06T14:04:36.0000000+00:00</time></trkpt><trkpt lat="39.46082315" lon="-0.37325805"><ele>24.0</ele><time>2022-11-06T14:04:37.0000000+00:00</time></trkpt><trkpt lat="39.46081946" lon="-0.37325964"><ele>24.0</ele><time>2022-11-06T14:04:38.0000000+00:00</time></trkpt><trkpt lat="39.46081485" lon="-0.37326425"><ele>24.0</ele><time>2022-11-06T14:04:39.0000000+00:00</time></trkpt><trkpt lat="39.46080487" lon="-0.37326928"><ele>24.0</ele><time>2022-11-06T14:04:40.0000000+00:00</time></trkpt><trkpt lat="39.46079733" lon="-0.37327138"><ele>24.0</ele><time>2022-11-06T14:04:41.0000000+00:00</time></trkpt><trkpt lat="39.46079356" lon="-0.37327113"><ele>24.0</ele><time>2022-11-06T14:04:42.0000000+00:00</time></trkpt><trkpt lat="39.46083622" lon="-0.37326618"><ele>24.0</ele><time>2022-11-06T14:04:43.0000000+00:00</time></trkpt><trkpt lat="39.46085969" lon="-0.37326274"><ele>24.0</ele><time>2022-11-06T14:04:44.0000000+00:00</time></trkpt><trkpt lat="39.46083538" lon="-0.3732583"><ele>24.0</ele><time>2022-11-06T14:04:45.0000000+00:00</time></trkpt><trkpt lat="39.46083656" lon="-0.37325705"><ele>24.0</ele><time>2022-11-06T14:04:46.0000000+00:00</time></trkpt><trkpt lat="39.46084393" lon="-0.37327046"><ele>24.0</ele><time>2022-11-06T14:04:47.0000000+00:00</time></trkpt><trkpt lat="39.46085315" lon="-0.37327213"><ele>24.0</ele><time>2022-11-06T14:04:48.0000000+00:00</time></trkpt><trkpt lat="39.460856" lon="-0.37326274"><ele>24.0</ele><time>2022-11-06T14:04:49.0000000+00:00</time></trkpt><trkpt lat="39.46086841" lon="-0.37325612"><ele>24.0</ele><time>2022-11-06T14:04:50.0000000+00:00</time></trkpt><trkpt lat="39.4608814" lon="-0.3732412"><ele>24.0</ele><time>2022-11-06T14:04:51.0000000+00:00</time></trkpt><trkpt lat="39.46091669" lon="-0.37322075"><ele>24.0</ele><time>2022-11-06T14:04:52.0000000+00:00</time></trkpt><trkpt lat="39.4609389" lon="-0.37321379"><ele>24.0</ele><time>2022-11-06T14:04:53.0000000+00:00</time></trkpt><trkpt lat="39.46094745" lon="-0.37321488"><ele>24.0</ele><time>2022-11-06T14:04:54.0000000+00:00</time></trkpt><trkpt lat="39.46095156" lon="-0.37321044"><ele>24.0</ele><time>2022-11-06T14:04:55.0000000+00:00</time></trkpt><trkpt lat="39.46094862" lon="-0.37320885"><ele>24.0</ele><time>2022-11-06T14:04:56.0000000+00:00</time></trkpt><trkpt lat="39.46094074" lon="-0.3732112"><ele>24.0</ele><time>2022-11-06T14:04:57.0000000+00:00</time></trkpt><trkpt lat="39.46093345" lon="-0.37321321"><ele>24.0</ele><time>2022-11-06T14:04:58.0000000+00:00</time></trkpt><trkpt lat="39.4609332" lon="-0.37321463"><ele>24.0</ele><time>2022-11-06T14:04:59.0000000+00:00</time></trkpt><trkpt lat="39.46093622" lon="-0.37321882"><ele>24.0</ele><time>2022-11-06T14:05:00.0000000+00:00</time></trkpt><trkpt lat="39.46093781" lon="-0.3732205"><ele>24.0</ele><time>2022-11-06T14:05:01.0000000+00:00</time></trkpt><trkpt lat="39.4609368" lon="-0.37322201"><ele>24.0</ele><time>2022-11-06T14:05:02.0000000+00:00</time></trkpt><trkpt lat="39.46093429" lon="-0.37322293"><ele>24.0</ele><time>2022-11-06T14:05:03.0000000+00:00</time></trkpt><trkpt lat="39.46093379" lon="-0.37322142"><ele>24.0</ele><time>2022-11-06T14:05:04.0000000+00:00</time></trkpt><trkpt lat="39.46093655" lon="-0.37321061"><ele>24.0</ele><time>2022-11-06T14:05:05.0000000+00:00</time></trkpt><trkpt lat="39.46093831" lon="-0.37319879"><ele>24.0</ele><time>2022-11-06T14:05:06.0000000+00:00</time></trkpt><trkpt lat="39.46093773" lon="-0.37318773"><ele>24.0</ele><time>2022-11-06T14:05:07.0000000+00:00</time></trkpt><trkpt lat="39.46094049" lon="-0.37317675"><ele>24.0</ele><time>2022-11-06T14:05:08.0000000+00:00</time></trkpt><trkpt lat="39.46094879" lon="-0.37315579"><ele>24.0</ele><time>2022-11-06T14:05:09.0000000+00:00</time></trkpt><trkpt lat="39.46095323" lon="-0.37313107"><ele>24.0</ele><time>2022-11-06T14:05:10.0000000+00:00</time></trkpt><trkpt lat="39.46095248" lon="-0.37309251"><ele>24.0</ele><time>2022-11-06T14:05:11.0000000+00:00</time></trkpt><trkpt lat="39.46096069" lon="-0.3730516"><ele>24.0</ele><time>2022-11-06T14:05:12.0000000+00:00</time></trkpt><trkpt lat="39.46097167" lon="-0.37301112"><ele>24.0</ele><time>2022-11-06T14:05:13.0000000+00:00</time></trkpt><trkpt lat="39.46096857" lon="-0.37299746"><ele>24.0</ele><time>2022-11-06T14:05:14.0000000+00:00</time></trkpt><trkpt lat="39.46096195" lon="-0.3729988"><ele>24.0</ele><time>2022-11-06T14:05:15.0000000+00:00</time></trkpt><trkpt lat="39.46095524" lon="-0.37299746"><ele>24.0</ele><time>2022-11-06T14:05:16.0000000+00:00</time></trkpt><trkpt lat="39.46095323" lon="-0.37299662"><ele>24.0</ele><time>2022-11-06T14:05:17.0000000+00:00</time></trkpt><trkpt lat="39.46095726" lon="-0.37298396"><ele>24.0</ele><time>2022-11-06T14:05:18.0000000+00:00</time></trkpt><trkpt lat="39.46096187" lon="-0.37297566"><ele>24.4</ele><time>2022-11-06T14:05:19.0000000+00:00</time></trkpt><trkpt lat="39.46096421" lon="-0.37297751"><ele>24.8</ele><time>2022-11-06T14:05:20.0000000+00:00</time></trkpt><trkpt lat="39.46096463" lon="-0.3729786"><ele>24.8</ele><time>2022-11-06T14:05:21.0000000+00:00</time></trkpt><trkpt lat="39.46096111" lon="-0.37298447"><ele>25.0</ele><time>2022-11-06T14:05:22.0000000+00:00</time></trkpt><trkpt lat="39.46095809" lon="-0.37299268"><ele>25.0</ele><time>2022-11-06T14:05:23.0000000+00:00</time></trkpt><trkpt lat="39.4609513" lon="-0.37300441"><ele>25.0</ele><time>2022-11-06T14:05:24.0000000+00:00</time></trkpt><trkpt lat="39.46094661" lon="-0.37301431"><ele>25.0</ele><time>2022-11-06T14:05:25.0000000+00:00</time></trkpt><trkpt lat="39.46094058" lon="-0.37302839"><ele>25.0</ele><time>2022-11-06T14:05:26.0000000+00:00</time></trkpt><trkpt lat="39.46093462" lon="-0.37304054"><ele>25.0</ele><time>2022-11-06T14:05:27.0000000+00:00</time></trkpt><trkpt lat="39.46093219" lon="-0.37304523"><ele>25.2</ele><time>2022-11-06T14:05:28.0000000+00:00</time></trkpt><trkpt lat="39.46093245" lon="-0.37303677"><ele>25.2</ele><time>2022-11-06T14:05:29.0000000+00:00</time></trkpt><trkpt lat="39.46093169" lon="-0.37305026"><ele>25.2</ele><time>2022-11-06T14:05:30.0000000+00:00</time></trkpt><trkpt lat="39.46092985" lon="-0.37305739"><ele>25.2</ele><time>2022-11-06T14:05:31.0000000+00:00</time></trkpt><trkpt lat="39.4609306" lon="-0.37305437"><ele>25.0</ele><time>2022-11-06T14:05:32.0000000+00:00</time></trkpt><trkpt lat="39.46093018" lon="-0.37305571"><ele>25.0</ele><time>2022-11-06T14:05:33.0000000+00:00</time></trkpt><trkpt lat="39.46092725" lon="-0.37305714"><ele>25.0</ele><time>2022-11-06T14:05:34.0000000+00:00</time></trkpt><trkpt lat="39.46092348" lon="-0.37305747"><ele>25.0</ele><time>2022-11-06T14:05:35.0000000+00:00</time></trkpt><trkpt lat="39.46092172" lon="-0.3730558"><ele>25.0</ele><time>2022-11-06T14:05:36.0000000+00:00</time></trkpt><trkpt lat="39.46091711" lon="-0.37304976"><ele>25.0</ele><time>2022-11-06T14:05:37.0000000+00:00</time></trkpt><trkpt lat="39.46091669" lon="-0.37303861"><ele>25.0</ele><time>2022-11-06T14:05:38.0000000+00:00</time></trkpt><trkpt lat="39.46091685" lon="-0.37303794"><ele>25.0</ele><time>2022-11-06T14:05:39.0000000+00:00</time></trkpt><trkpt lat="39.46091627" lon="-0.37302906"><ele>25.0</ele><time>2022-11-06T14:05:40.0000000+00:00</time></trkpt><trkpt lat="39.46091627" lon="-0.37301707"><ele>25.0</ele><time>2022-11-06T14:05:41.0000000+00:00</time></trkpt><trkpt lat="39.46091551" lon="-0.37300785"><ele>25.0</ele><time>2022-11-06T14:05:42.0000000+00:00</time></trkpt><trkpt lat="39.46091241" lon="-0.37302218"><ele>25.0</ele><time>2022-11-06T14:05:43.0000000+00:00</time></trkpt><trkpt lat="39.46090831" lon="-0.37302009"><ele>25.0</ele><time>2022-11-06T14:05:44.0000000+00:00</time></trkpt><trkpt lat="39.46090378" lon="-0.37303073"><ele>25.0</ele><time>2022-11-06T14:05:45.0000000+00:00</time></trkpt><trkpt lat="39.4609037" lon="-0.37303568"><ele>24.8</ele><time>2022-11-06T14:05:46.0000000+00:00</time></trkpt><trkpt lat="39.46089816" lon="-0.37304691"><ele>25.0</ele><time>2022-11-06T14:05:47.0000000+00:00</time></trkpt><trkpt lat="39.46089422" lon="-0.37305479"><ele>25.0</ele><time>2022-11-06T14:05:48.0000000+00:00</time></trkpt><trkpt lat="39.46087947" lon="-0.37307407"><ele>25.0</ele><time>2022-11-06T14:05:49.0000000+00:00</time></trkpt><trkpt lat="39.46086531" lon="-0.37308681"><ele>25.0</ele><time>2022-11-06T14:05:50.0000000+00:00</time></trkpt><trkpt lat="39.46085768" lon="-0.3730946"><ele>25.0</ele><time>2022-11-06T14:05:51.0000000+00:00</time></trkpt><trkpt lat="39.46085022" lon="-0.37310584"><ele>25.0</ele><time>2022-11-06T14:05:52.0000000+00:00</time></trkpt><trkpt lat="39.4608441" lon="-0.37311137"><ele>25.0</ele><time>2022-11-06T14:05:53.0000000+00:00</time></trkpt><trkpt lat="39.46084209" lon="-0.37312034"><ele>25.0</ele><time>2022-11-06T14:05:54.0000000+00:00</time></trkpt><trkpt lat="39.46084209" lon="-0.3731226"><ele>25.0</ele><time>2022-11-06T14:05:55.0000000+00:00</time></trkpt><trkpt lat="39.46083899" lon="-0.37313274"><ele>25.0</ele><time>2022-11-06T14:05:56.0000000+00:00</time></trkpt><trkpt lat="39.46083488" lon="-0.3731397"><ele>25.2</ele><time>2022-11-06T14:05:57.0000000+00:00</time></trkpt><trkpt lat="39.46083077" lon="-0.37314456"><ele>23.2</ele><time>2022-11-06T14:05:58.0000000+00:00</time></trkpt><trkpt lat="39.46083387" lon="-0.37313651"><ele>23.2</ele><time>2022-11-06T14:05:59.0000000+00:00</time></trkpt><trkpt lat="39.46084184" lon="-0.37311799"><ele>23.2</ele><time>2022-11-06T14:06:00.0000000+00:00</time></trkpt><trkpt lat="39.46084745" lon="-0.37311455"><ele>23.2</ele><time>2022-11-06T14:06:01.0000000+00:00</time></trkpt><trkpt lat="39.46085382" lon="-0.37310634"><ele>23.2</ele><time>2022-11-06T14:06:02.0000000+00:00</time></trkpt><trkpt lat="39.46085785" lon="-0.37309008"><ele>23.2</ele><time>2022-11-06T14:06:03.0000000+00:00</time></trkpt><trkpt lat="39.4608638" lon="-0.37307826"><ele>23.2</ele><time>2022-11-06T14:06:04.0000000+00:00</time></trkpt><trkpt lat="39.46086774" lon="-0.37306988"><ele>23.2</ele><time>2022-11-06T14:06:05.0000000+00:00</time></trkpt><trkpt lat="39.46087034" lon="-0.37306569"><ele>23.2</ele><time>2022-11-06T14:06:06.0000000+00:00</time></trkpt><trkpt lat="39.46087218" lon="-0.37306292"><ele>23.2</ele><time>2022-11-06T14:06:07.0000000+00:00</time></trkpt><trkpt lat="39.46087436" lon="-0.37306552"><ele>23.2</ele><time>2022-11-06T14:06:08.0000000+00:00</time></trkpt><trkpt lat="39.46087285" lon="-0.37306594"><ele>23.2</ele><time>2022-11-06T14:06:09.0000000+00:00</time></trkpt><trkpt lat="39.46087" lon="-0.37307113"><ele>23.2</ele><time>2022-11-06T14:06:10.0000000+00:00</time></trkpt><trkpt lat="39.46087084" lon="-0.37307273"><ele>23.2</ele><time>2022-11-06T14:06:11.0000000+00:00</time></trkpt><trkpt lat="39.46087184" lon="-0.37307642"><ele>23.2</ele><time>2022-11-06T14:06:12.0000000+00:00</time></trkpt><trkpt lat="39.46087201" lon="-0.37307885"><ele>23.2</ele><time>2022-11-06T14:06:13.0000000+00:00</time></trkpt><trkpt lat="39.46087319" lon="-0.37308077"><ele>23.2</ele><time>2022-11-06T14:06:14.0000000+00:00</time></trkpt><trkpt lat="39.46087369" lon="-0.37308203"><ele>23.2</ele><time>2022-11-06T14:06:15.0000000+00:00</time></trkpt><trkpt lat="39.46087268" lon="-0.37308404"><ele>23.2</ele><time>2022-11-06T14:06:16.0000000+00:00</time></trkpt><trkpt lat="39.46087075" lon="-0.37308522"><ele>23.2</ele><time>2022-11-06T14:06:17.0000000+00:00</time></trkpt><trkpt lat="39.46086874" lon="-0.3730889"><ele>23.2</ele><time>2022-11-06T14:06:18.0000000+00:00</time></trkpt><trkpt lat="39.46086757" lon="-0.3730941"><ele>23.2</ele><time>2022-11-06T14:06:19.0000000+00:00</time></trkpt><trkpt lat="39.46086623" lon="-0.37309921"><ele>23.2</ele><time>2022-11-06T14:06:20.0000000+00:00</time></trkpt><trkpt lat="39.46086539" lon="-0.37310483"><ele>23.2</ele><time>2022-11-06T14:06:21.0000000+00:00</time></trkpt><trkpt lat="39.4608643" lon="-0.37310617"><ele>23.2</ele><time>2022-11-06T14:06:22.0000000+00:00</time></trkpt><trkpt lat="39.46086656" lon="-0.37310408"><ele>23.2</ele><time>2022-11-06T14:06:23.0000000+00:00</time></trkpt><trkpt lat="39.4608679" lon="-0.37310215"><ele>23.2</ele><time>2022-11-06T14:06:24.0000000+00:00</time></trkpt><trkpt lat="39.46087067" lon="-0.37309771"><ele>23.2</ele><time>2022-11-06T14:06:25.0000000+00:00</time></trkpt><trkpt lat="39.46087914" lon="-0.37308362"><ele>23.2</ele><time>2022-11-06T14:06:26.0000000+00:00</time></trkpt><trkpt lat="39.46089087" lon="-0.37305848"><ele>23.2</ele><time>2022-11-06T14:06:27.0000000+00:00</time></trkpt><trkpt lat="39.46089984" lon="-0.37303668"><ele>23.2</ele><time>2022-11-06T14:06:28.0000000+00:00</time></trkpt><trkpt lat="39.46090872" lon="-0.37302244"><ele>23.2</ele><time>2022-11-06T14:06:29.0000000+00:00</time></trkpt><trkpt lat="39.46091635" lon="-0.37300299"><ele>23.2</ele><time>2022-11-06T14:06:30.0000000+00:00</time></trkpt><trkpt lat="39.46091518" lon="-0.37300626"><ele>23.2</ele><time>2022-11-06T14:06:31.0000000+00:00</time></trkpt><trkpt lat="39.46091577" lon="-0.37299888"><ele>23.2</ele><time>2022-11-06T14:06:32.0000000+00:00</time></trkpt><trkpt lat="39.46091711" lon="-0.37299612"><ele>23.2</ele><time>2022-11-06T14:06:33.0000000+00:00</time></trkpt><trkpt lat="39.4609161" lon="-0.37300207"><ele>23.2</ele><time>2022-11-06T14:06:34.0000000+00:00</time></trkpt><trkpt lat="39.46091836" lon="-0.37300383"><ele>23.2</ele><time>2022-11-06T14:06:35.0000000+00:00</time></trkpt><trkpt lat="39.46092029" lon="-0.37300291"><ele>23.2</ele><time>2022-11-06T14:06:36.0000000+00:00</time></trkpt><trkpt lat="39.46091878" lon="-0.37300441"><ele>23.4</ele><time>2022-11-06T14:06:37.0000000+00:00</time></trkpt><trkpt lat="39.46091753" lon="-0.37300626"><ele>23.4</ele><time>2022-11-06T14:06:38.0000000+00:00</time></trkpt><trkpt lat="39.4609161" lon="-0.37300852"><ele>23.6</ele><time>2022-11-06T14:06:39.0000000+00:00</time></trkpt><trkpt lat="39.46091593" lon="-0.37301171"><ele>23.6</ele><time>2022-11-06T14:06:40.0000000+00:00</time></trkpt><trkpt lat="39.46091518" lon="-0.37301674"><ele>23.6</ele><time>2022-11-06T14:06:41.0000000+00:00</time></trkpt><trkpt lat="39.46091585" lon="-0.37301716"><ele>23.4</ele><time>2022-11-06T14:06:42.0000000+00:00</time></trkpt><trkpt lat="39.46091845" lon="-0.37301984"><ele>23.4</ele><time>2022-11-06T14:06:43.0000000+00:00</time></trkpt><trkpt lat="39.46092021" lon="-0.37302369"><ele>23.4</ele><time>2022-11-06T14:06:44.0000000+00:00</time></trkpt><trkpt lat="39.46092088" lon="-0.37302881"><ele>23.2</ele><time>2022-11-06T14:06:45.0000000+00:00</time></trkpt><trkpt lat="39.46092004" lon="-0.37303191"><ele>23.2</ele><time>2022-11-06T14:06:46.0000000+00:00</time></trkpt><trkpt lat="39.46091736" lon="-0.37303233"><ele>23.2</ele><time>2022-11-06T14:06:47.0000000+00:00</time></trkpt><trkpt lat="39.46091518" lon="-0.37303291"><ele>23.2</ele><time>2022-11-06T14:06:48.0000000+00:00</time></trkpt><trkpt lat="39.46091258" lon="-0.37303451"><ele>23.2</ele><time>2022-11-06T14:06:49.0000000+00:00</time></trkpt><trkpt lat="39.46091032" lon="-0.37303786"><ele>23.2</ele><time>2022-11-06T14:06:50.0000000+00:00</time></trkpt><trkpt lat="39.46090814" lon="-0.37304272"><ele>23.2</ele><time>2022-11-06T14:06:51.0000000+00:00</time></trkpt><trkpt lat="39.46090613" lon="-0.37304859"><ele>23.2</ele><time>2022-11-06T14:06:52.0000000+00:00</time></trkpt><trkpt lat="39.46090395" lon="-0.37305781"><ele>23.2</ele><time>2022-11-06T14:06:53.0000000+00:00</time></trkpt><trkpt lat="39.46089992" lon="-0.3730713"><ele>23.2</ele><time>2022-11-06T14:06:54.0000000+00:00</time></trkpt><trkpt lat="39.46089934" lon="-0.37307893"><ele>23.2</ele><time>2022-11-06T14:06:55.0000000+00:00</time></trkpt><trkpt lat="39.4608995" lon="-0.37308781"><ele>23.2</ele><time>2022-11-06T14:06:56.0000000+00:00</time></trkpt><trkpt lat="39.46088869" lon="-0.37309444"><ele>23.2</ele><time>2022-11-06T14:06:57.0000000+00:00</time></trkpt><trkpt lat="39.4608959" lon="-0.3731112"><ele>23.2</ele><time>2022-11-06T14:06:58.0000000+00:00</time></trkpt><trkpt lat="39.46089825" lon="-0.37310366"><ele>23.2</ele><time>2022-11-06T14:06:59.0000000+00:00</time></trkpt><trkpt lat="39.46092247" lon="-0.37309737"><ele>23.2</ele><time>2022-11-06T14:07:00.0000000+00:00</time></trkpt><trkpt lat="39.46094703" lon="-0.37309502"><ele>23.2</ele><time>2022-11-06T14:07:01.0000000+00:00</time></trkpt><trkpt lat="39.46095374" lon="-0.373106"><ele>23.2</ele><time>2022-11-06T14:07:02.0000000+00:00</time></trkpt><trkpt lat="39.46095969" lon="-0.37311304"><ele>23.2</ele><time>2022-11-06T14:07:03.0000000+00:00</time></trkpt><trkpt lat="39.46095659" lon="-0.37311774"><ele>23.2</ele><time>2022-11-06T14:07:04.0000000+00:00</time></trkpt><trkpt lat="39.46096488" lon="-0.37312101"><ele>23.2</ele><time>2022-11-06T14:07:05.0000000+00:00</time></trkpt><trkpt lat="39.46096857" lon="-0.37312243"><ele>23.2</ele><time>2022-11-06T14:07:06.0000000+00:00</time></trkpt><trkpt lat="39.46096731" lon="-0.37313316"><ele>23.2</ele><time>2022-11-06T14:07:07.0000000+00:00</time></trkpt><trkpt lat="39.46096547" lon="-0.37314087"><ele>23.2</ele><time>2022-11-06T14:07:08.0000000+00:00</time></trkpt><trkpt lat="39.4609596" lon="-0.37314674"><ele>23.2</ele><time>2022-11-06T14:07:09.0000000+00:00</time></trkpt><trkpt lat="39.46095457" lon="-0.37315973"><ele>23.2</ele><time>2022-11-06T14:07:10.0000000+00:00</time></trkpt><trkpt lat="39.46095759" lon="-0.37316225"><ele>23.2</ele><time>2022-11-06T14:07:11.0000000+00:00</time></trkpt><trkpt lat="39.46095273" lon="-0.3731708"><ele>23.2</ele><time>2022-11-06T14:07:12.0000000+00:00</time></trkpt><trkpt lat="39.46095181" lon="-0.37317423"><ele>23.2</ele><time>2022-11-06T14:07:13.0000000+00:00</time></trkpt><trkpt lat="39.46094737" lon="-0.37317155"><ele>23.2</ele><time>2022-11-06T14:07:14.0000000+00:00</time></trkpt><trkpt lat="39.46094309" lon="-0.3731744"><ele>23.2</ele><time>2022-11-06T14:07:15.0000000+00:00</time></trkpt><trkpt lat="39.46093588" lon="-0.37318152"><ele>23.2</ele><time>2022-11-06T14:07:16.0000000+00:00</time></trkpt><trkpt lat="39.46092825" lon="-0.37317549"><ele>23.2</ele><time>2022-11-06T14:07:17.0000000+00:00</time></trkpt><trkpt lat="39.46093211" lon="-0.37315462"><ele>23.2</ele><time>2022-11-06T14:07:18.0000000+00:00</time></trkpt><trkpt lat="39.46092876" lon="-0.37315638"><ele>23.2</ele><time>2022-11-06T14:07:19.0000000+00:00</time></trkpt><trkpt lat="39.46093043" lon="-0.37314498"><ele>23.2</ele><time>2022-11-06T14:07:20.0000000+00:00</time></trkpt><trkpt lat="39.460928" lon="-0.3731402"><ele>23.0</ele><time>2022-11-06T14:07:21.0000000+00:00</time></trkpt><trkpt lat="39.46092272" lon="-0.37313291"><ele>23.0</ele><time>2022-11-06T14:07:22.0000000+00:00</time></trkpt><trkpt lat="39.46091602" lon="-0.37312956"><ele>23.0</ele><time>2022-11-06T14:07:23.0000000+00:00</time></trkpt><trkpt lat="39.46091459" lon="-0.37312453"><ele>23.0</ele><time>2022-11-06T14:07:24.0000000+00:00</time></trkpt><trkpt lat="39.46091685" lon="-0.37312"><ele>23.0</ele><time>2022-11-06T14:07:25.0000000+00:00</time></trkpt><trkpt lat="39.46091099" lon="-0.37312109"><ele>23.0</ele><time>2022-11-06T14:07:26.0000000+00:00</time></trkpt><trkpt lat="39.46090587" lon="-0.37312302"><ele>23.0</ele><time>2022-11-06T14:07:27.0000000+00:00</time></trkpt><trkpt lat="39.46089992" lon="-0.37312872"><ele>23.0</ele><time>2022-11-06T14:07:28.0000000+00:00</time></trkpt><trkpt lat="39.46089372" lon="-0.373134"><ele>23.0</ele><time>2022-11-06T14:07:29.0000000+00:00</time></trkpt><trkpt lat="39.46088743" lon="-0.3731428"><ele>23.0</ele><time>2022-11-06T14:07:30.0000000+00:00</time></trkpt><trkpt lat="39.46088601" lon="-0.37314657"><ele>23.0</ele><time>2022-11-06T14:07:31.0000000+00:00</time></trkpt><trkpt lat="39.46088601" lon="-0.37314657"><ele>23.0</ele><time>2022-11-06T14:07:32.0000000+00:00</time></trkpt><trkpt lat="39.46088601" lon="-0.37314657"><ele>23.0</ele><time>2022-11-06T14:07:33.0000000+00:00</time></trkpt><trkpt lat="39.46088576" lon="-0.37314515"><ele>23.0</ele><time>2022-11-06T14:07:34.0000000+00:00</time></trkpt><trkpt lat="39.46088123" lon="-0.37314439"><ele>23.0</ele><time>2022-11-06T14:07:35.0000000+00:00</time></trkpt><trkpt lat="39.46087805" lon="-0.37314448"><ele>23.0</ele><time>2022-11-06T14:07:36.0000000+00:00</time></trkpt><trkpt lat="39.46087805" lon="-0.37314381"><ele>23.0</ele><time>2022-11-06T14:07:37.0000000+00:00</time></trkpt><trkpt lat="39.46087587" lon="-0.37314439"><ele>23.0</ele><time>2022-11-06T14:07:38.0000000+00:00</time></trkpt><trkpt lat="39.46088995" lon="-0.37314238"><ele>23.0</ele><time>2022-11-06T14:07:39.0000000+00:00</time></trkpt><trkpt lat="39.46089741" lon="-0.37314205"><ele>23.0</ele><time>2022-11-06T14:07:40.0000000+00:00</time></trkpt><trkpt lat="39.4608866" lon="-0.37314531"><ele>23.0</ele><time>2022-11-06T14:07:41.0000000+00:00</time></trkpt><trkpt lat="39.46088634" lon="-0.37314422"><ele>23.0</ele><time>2022-11-06T14:07:42.0000000+00:00</time></trkpt><trkpt lat="39.46088785" lon="-0.3731537"><ele>23.0</ele><time>2022-11-06T14:07:43.0000000+00:00</time></trkpt><trkpt lat="39.46089699" lon="-0.37317884"><ele>23.0</ele><time>2022-11-06T14:07:44.0000000+00:00</time></trkpt><trkpt lat="39.46089238" lon="-0.37319644"><ele>23.0</ele><time>2022-11-06T14:07:45.0000000+00:00</time></trkpt><trkpt lat="39.46088685" lon="-0.37321312"><ele>23.0</ele><time>2022-11-06T14:07:46.0000000+00:00</time></trkpt><trkpt lat="39.46088567" lon="-0.37324707"><ele>23.0</ele><time>2022-11-06T14:07:47.0000000+00:00</time></trkpt><trkpt lat="39.46092423" lon="-0.37325763"><ele>23.0</ele><time>2022-11-06T14:07:48.0000000+00:00</time></trkpt><trkpt lat="39.46091166" lon="-0.37323433"><ele>23.0</ele><time>2022-11-06T14:07:49.0000000+00:00</time></trkpt><trkpt lat="39.46097461" lon="-0.37317934"><ele>23.0</ele><time>2022-11-06T14:07:50.0000000+00:00</time></trkpt><trkpt lat="39.46097788" lon="-0.37313727"><ele>23.0</ele><time>2022-11-06T14:07:51.0000000+00:00</time></trkpt><trkpt lat="39.46096614" lon="-0.37311388"><ele>23.0</ele><time>2022-11-06T14:07:52.0000000+00:00</time></trkpt><trkpt lat="39.46096882" lon="-0.37310416"><ele>23.0</ele><time>2022-11-06T14:07:53.0000000+00:00</time></trkpt><trkpt lat="39.46096606" lon="-0.37308849"><ele>23.0</ele><time>2022-11-06T14:07:54.0000000+00:00</time></trkpt><trkpt lat="39.46097285" lon="-0.37306988"><ele>23.0</ele><time>2022-11-06T14:07:55.0000000+00:00</time></trkpt><trkpt lat="39.46096832" lon="-0.37307357"><ele>23.0</ele><time>2022-11-06T14:07:56.0000000+00:00</time></trkpt><trkpt lat="39.46096078" lon="-0.37308178"><ele>23.0</ele><time>2022-11-06T14:07:57.0000000+00:00</time></trkpt><trkpt lat="39.46096564" lon="-0.37306041"><ele>23.0</ele><time>2022-11-06T14:07:58.0000000+00:00</time></trkpt><trkpt lat="39.46096438" lon="-0.37302579"><ele>23.0</ele><time>2022-11-06T14:07:59.0000000+00:00</time></trkpt><trkpt lat="39.46096145" lon="-0.37300735"><ele>23.0</ele><time>2022-11-06T14:08:00.0000000+00:00</time></trkpt><trkpt lat="39.46095726" lon="-0.3729822"><ele>23.0</ele><time>2022-11-06T14:08:01.0000000+00:00</time></trkpt><trkpt lat="39.46095977" lon="-0.37298044"><ele>23.0</ele><time>2022-11-06T14:08:02.0000000+00:00</time></trkpt><trkpt lat="39.46096019" lon="-0.3729812"><ele>23.0</ele><time>2022-11-06T14:08:03.0000000+00:00</time></trkpt><trkpt lat="39.46096103" lon="-0.37297089"><ele>23.0</ele><time>2022-11-06T14:08:04.0000000+00:00</time></trkpt><trkpt lat="39.46096052" lon="-0.37295605"><ele>23.0</ele><time>2022-11-06T14:08:05.0000000+00:00</time></trkpt><trkpt lat="39.46096011" lon="-0.37295672"><ele>23.0</ele><time>2022-11-06T14:08:06.0000000+00:00</time></trkpt><trkpt lat="39.46096522" lon="-0.37295664"><ele>23.0</ele><time>2022-11-06T14:08:07.0000000+00:00</time></trkpt><trkpt lat="39.46096614" lon="-0.37295488"><ele>23.0</ele><time>2022-11-06T14:08:08.0000000+00:00</time></trkpt><trkpt lat="39.46096564" lon="-0.37295396"><ele>23.0</ele><time>2022-11-06T14:08:09.0000000+00:00</time></trkpt><trkpt lat="39.46096924" lon="-0.37294038"><ele>23.0</ele><time>2022-11-06T14:08:10.0000000+00:00</time></trkpt><trkpt lat="39.46097486" lon="-0.37293426"><ele>23.0</ele><time>2022-11-06T14:08:11.0000000+00:00</time></trkpt><trkpt lat="39.46097343" lon="-0.3729361"><ele>23.0</ele><time>2022-11-06T14:08:12.0000000+00:00</time></trkpt><trkpt lat="39.46097611" lon="-0.37294423"><ele>23.0</ele><time>2022-11-06T14:08:13.0000000+00:00</time></trkpt><trkpt lat="39.46097519" lon="-0.37294893"><ele>23.0</ele><time>2022-11-06T14:08:14.0000000+00:00</time></trkpt><trkpt lat="39.46097519" lon="-0.37294976"><ele>23.0</ele><time>2022-11-06T14:08:15.0000000+00:00</time></trkpt><trkpt lat="39.46097746" lon="-0.3729506"><ele>23.0</ele><time>2022-11-06T14:08:16.0000000+00:00</time></trkpt><trkpt lat="39.4609762" lon="-0.37295253"><ele>23.0</ele><time>2022-11-06T14:08:17.0000000+00:00</time></trkpt><trkpt lat="39.46097528" lon="-0.3729584"><ele>23.0</ele><time>2022-11-06T14:08:18.0000000+00:00</time></trkpt><trkpt lat="39.46097687" lon="-0.3729563"><ele>23.0</ele><time>2022-11-06T14:08:19.0000000+00:00</time></trkpt><trkpt lat="39.46098031" lon="-0.37295186"><ele>23.0</ele><time>2022-11-06T14:08:20.0000000+00:00</time></trkpt><trkpt lat="39.46097989" lon="-0.372961"><ele>23.0</ele><time>2022-11-06T14:08:21.0000000+00:00</time></trkpt><trkpt lat="39.46097494" lon="-0.37297868"><ele>23.0</ele><time>2022-11-06T14:08:22.0000000+00:00</time></trkpt><trkpt lat="39.46096891" lon="-0.37300081"><ele>23.0</ele><time>2022-11-06T14:08:23.0000000+00:00</time></trkpt><trkpt lat="39.46096681" lon="-0.37301506"><ele>23.0</ele><time>2022-11-06T14:08:24.0000000+00:00</time></trkpt><trkpt lat="39.4609684" lon="-0.37302252"><ele>23.0</ele><time>2022-11-06T14:08:25.0000000+00:00</time></trkpt><trkpt lat="39.46097109" lon="-0.37302361"><ele>23.0</ele><time>2022-11-06T14:08:26.0000000+00:00</time></trkpt><trkpt lat="39.46097125" lon="-0.37302604"><ele>23.0</ele><time>2022-11-06T14:08:27.0000000+00:00</time></trkpt><trkpt lat="39.46096656" lon="-0.37302772"><ele>23.0</ele><time>2022-11-06T14:08:28.0000000+00:00</time></trkpt><trkpt lat="39.46095868" lon="-0.37303258"><ele>23.0</ele><time>2022-11-06T14:08:29.0000000+00:00</time></trkpt><trkpt lat="39.46094384" lon="-0.37303736"><ele>23.0</ele><time>2022-11-06T14:08:30.0000000+00:00</time></trkpt><trkpt lat="39.46093077" lon="-0.37304834"><ele>23.0</ele><time>2022-11-06T14:08:31.0000000+00:00</time></trkpt><trkpt lat="39.460927" lon="-0.37304725"><ele>23.0</ele><time>2022-11-06T14:08:32.0000000+00:00</time></trkpt><trkpt lat="39.46092641" lon="-0.37304641"><ele>23.0</ele><time>2022-11-06T14:08:33.0000000+00:00</time></trkpt><trkpt lat="39.46092532" lon="-0.37304616"><ele>23.0</ele><time>2022-11-06T14:08:34.0000000+00:00</time></trkpt><trkpt lat="39.46092784" lon="-0.37304096"><ele>23.0</ele><time>2022-11-06T14:08:35.0000000+00:00</time></trkpt><trkpt lat="39.46092758" lon="-0.37303987"><ele>23.0</ele><time>2022-11-06T14:08:36.0000000+00:00</time></trkpt><trkpt lat="39.460927" lon="-0.3730392"><ele>23.0</ele><time>2022-11-06T14:08:37.0000000+00:00</time></trkpt><trkpt lat="39.46092666" lon="-0.37303937"><ele>23.0</ele><time>2022-11-06T14:08:38.0000000+00:00</time></trkpt><trkpt lat="39.46092666" lon="-0.37303953"><ele>23.0</ele><time>2022-11-06T14:08:39.0000000+00:00</time></trkpt><trkpt lat="39.46092675" lon="-0.37304012"><ele>23.0</ele><time>2022-11-06T14:08:40.0000000+00:00</time></trkpt><trkpt lat="39.460928" lon="-0.37303979"><ele>23.0</ele><time>2022-11-06T14:08:41.0000000+00:00</time></trkpt><trkpt lat="39.46092775" lon="-0.37304079"><ele>23.0</ele><time>2022-11-06T14:08:42.0000000+00:00</time></trkpt><trkpt lat="39.4609327" lon="-0.3730335"><ele>23.0</ele><time>2022-11-06T14:08:43.0000000+00:00</time></trkpt><trkpt lat="39.46094175" lon="-0.37302696"><ele>23.0</ele><time>2022-11-06T14:08:44.0000000+00:00</time></trkpt><trkpt lat="39.46094116" lon="-0.37302855"><ele>23.0</ele><time>2022-11-06T14:08:45.0000000+00:00</time></trkpt><trkpt lat="39.46094141" lon="-0.37303224"><ele>23.0</ele><time>2022-11-06T14:08:46.0000000+00:00</time></trkpt><trkpt lat="39.46094133" lon="-0.373033"><ele>23.0</ele><time>2022-11-06T14:08:47.0000000+00:00</time></trkpt><trkpt lat="39.460942" lon="-0.37303585"><ele>23.0</ele><time>2022-11-06T14:08:48.0000000+00:00</time></trkpt><trkpt lat="39.46093907" lon="-0.37305295"><ele>23.0</ele><time>2022-11-06T14:08:49.0000000+00:00</time></trkpt><trkpt lat="39.46094904" lon="-0.37305336"><ele>23.0</ele><time>2022-11-06T14:08:50.0000000+00:00</time></trkpt><trkpt lat="39.46095432" lon="-0.37306133"><ele>23.0</ele><time>2022-11-06T14:08:51.0000000+00:00</time></trkpt><trkpt lat="39.46095558" lon="-0.37306418"><ele>23.0</ele><time>2022-11-06T14:08:52.0000000+00:00</time></trkpt><trkpt lat="39.46096187" lon="-0.37307105"><ele>23.0</ele><time>2022-11-06T14:08:53.0000000+00:00</time></trkpt><trkpt lat="39.46100495" lon="-0.37306745"><ele>23.0</ele><time>2022-11-06T14:08:54.0000000+00:00</time></trkpt><trkpt lat="39.4610187" lon="-0.37306518"><ele>23.0</ele><time>2022-11-06T14:08:55.0000000+00:00</time></trkpt><trkpt lat="39.46103881" lon="-0.3730589"><ele>23.0</ele><time>2022-11-06T14:08:56.0000000+00:00</time></trkpt><trkpt lat="39.46102766" lon="-0.37305454"><ele>23.0</ele><time>2022-11-06T14:08:57.0000000+00:00</time></trkpt><trkpt lat="39.46101157" lon="-0.37306451"><ele>23.0</ele><time>2022-11-06T14:08:58.0000000+00:00</time></trkpt><trkpt lat="39.46101425" lon="-0.37306543"><ele>23.0</ele><time>2022-11-06T14:08:59.0000000+00:00</time></trkpt><trkpt lat="39.46102188" lon="-0.37305814"><ele>23.0</ele><time>2022-11-06T14:09:00.0000000+00:00</time></trkpt><trkpt lat="39.46102817" lon="-0.37305186"><ele>23.0</ele><time>2022-11-06T14:09:01.0000000+00:00</time></trkpt><trkpt lat="39.46102825" lon="-0.3730506"><ele>23.0</ele><time>2022-11-06T14:09:02.0000000+00:00</time></trkpt><trkpt lat="39.46102783" lon="-0.37305093"><ele>23.0</ele><time>2022-11-06T14:09:03.0000000+00:00</time></trkpt><trkpt lat="39.46102683" lon="-0.37305177"><ele>23.0</ele><time>2022-11-06T14:09:04.0000000+00:00</time></trkpt><trkpt lat="39.46102842" lon="-0.37305085"><ele>23.0</ele><time>2022-11-06T14:09:05.0000000+00:00</time></trkpt><trkpt lat="39.46101601" lon="-0.37306049"><ele>23.0</ele><time>2022-11-06T14:09:06.0000000+00:00</time></trkpt><trkpt lat="39.4610135" lon="-0.37306259"><ele>23.0</ele><time>2022-11-06T14:09:07.0000000+00:00</time></trkpt><trkpt lat="39.46101107" lon="-0.37306468"><ele>23.0</ele><time>2022-11-06T14:09:08.0000000+00:00</time></trkpt><trkpt lat="39.46101149" lon="-0.37306418"><ele>23.0</ele><time>2022-11-06T14:09:09.0000000+00:00</time></trkpt><trkpt lat="39.46100679" lon="-0.37306644"><ele>23.0</ele><time>2022-11-06T14:09:10.0000000+00:00</time></trkpt><trkpt lat="39.46100461" lon="-0.37306887"><ele>23.0</ele><time>2022-11-06T14:09:11.0000000+00:00</time></trkpt><trkpt lat="39.46100134" lon="-0.37307248"><ele>23.0</ele><time>2022-11-06T14:09:12.0000000+00:00</time></trkpt><trkpt lat="39.46099715" lon="-0.37308086"><ele>23.0</ele><time>2022-11-06T14:09:13.0000000+00:00</time></trkpt><trkpt lat="39.46099171" lon="-0.37308773"><ele>23.0</ele><time>2022-11-06T14:09:14.0000000+00:00</time></trkpt><trkpt lat="39.46098349" lon="-0.37309133"><ele>23.0</ele><time>2022-11-06T14:09:15.0000000+00:00</time></trkpt><trkpt lat="39.46097938" lon="-0.37309519"><ele>23.0</ele><time>2022-11-06T14:09:16.0000000+00:00</time></trkpt><trkpt lat="39.46097586" lon="-0.37308865"><ele>23.0</ele><time>2022-11-06T14:09:17.0000000+00:00</time></trkpt><trkpt lat="39.46096949" lon="-0.37308488"><ele>23.0</ele><time>2022-11-06T14:09:18.0000000+00:00</time></trkpt><trkpt lat="39.46096673" lon="-0.37307499"><ele>23.0</ele><time>2022-11-06T14:09:19.0000000+00:00</time></trkpt><trkpt lat="39.46096405" lon="-0.37307558"><ele>23.0</ele><time>2022-11-06T14:09:20.0000000+00:00</time></trkpt><trkpt lat="39.46095541" lon="-0.37308304"><ele>23.0</ele><time>2022-11-06T14:09:21.0000000+00:00</time></trkpt><trkpt lat="39.46094661" lon="-0.37307843"><ele>23.0</ele><time>2022-11-06T14:09:22.0000000+00:00</time></trkpt><trkpt lat="39.46094208" lon="-0.37307885"><ele>23.0</ele><time>2022-11-06T14:09:23.0000000+00:00</time></trkpt><trkpt lat="39.46093421" lon="-0.37306845"><ele>23.0</ele><time>2022-11-06T14:09:24.0000000+00:00</time></trkpt><trkpt lat="39.46092599" lon="-0.37305932"><ele>23.0</ele><time>2022-11-06T14:09:25.0000000+00:00</time></trkpt><trkpt lat="39.46093136" lon="-0.37305873"><ele>23.0</ele><time>2022-11-06T14:09:26.0000000+00:00</time></trkpt><trkpt lat="39.46095164" lon="-0.37307306"><ele>23.0</ele><time>2022-11-06T14:09:27.0000000+00:00</time></trkpt><trkpt lat="39.46095566" lon="-0.37307558"><ele>23.0</ele><time>2022-11-06T14:09:28.0000000+00:00</time></trkpt><trkpt lat="39.46095524" lon="-0.37307725"><ele>23.0</ele><time>2022-11-06T14:09:29.0000000+00:00</time></trkpt><trkpt lat="39.46097285" lon="-0.37307004"><ele>23.0</ele><time>2022-11-06T14:09:30.0000000+00:00</time></trkpt><trkpt lat="39.46098466" lon="-0.37305269"><ele>23.0</ele><time>2022-11-06T14:09:31.0000000+00:00</time></trkpt><trkpt lat="39.46099456" lon="-0.37304716"><ele>23.0</ele><time>2022-11-06T14:09:32.0000000+00:00</time></trkpt><trkpt lat="39.46100419" lon="-0.37304406"><ele>23.0</ele><time>2022-11-06T14:09:33.0000000+00:00</time></trkpt><trkpt lat="39.46101593" lon="-0.37303451"><ele>23.0</ele><time>2022-11-06T14:09:34.0000000+00:00</time></trkpt><trkpt lat="39.46101668" lon="-0.37302646"><ele>23.0</ele><time>2022-11-06T14:09:35.0000000+00:00</time></trkpt><trkpt lat="39.46102213" lon="-0.37302537"><ele>23.0</ele><time>2022-11-06T14:09:36.0000000+00:00</time></trkpt><trkpt lat="39.46102439" lon="-0.37302746"><ele>23.0</ele><time>2022-11-06T14:09:37.0000000+00:00</time></trkpt><trkpt lat="39.46100067" lon="-0.37302411"><ele>23.0</ele><time>2022-11-06T14:09:38.0000000+00:00</time></trkpt><trkpt lat="39.46099095" lon="-0.37302864"><ele>23.0</ele><time>2022-11-06T14:09:39.0000000+00:00</time></trkpt><trkpt lat="39.46098282" lon="-0.37303308"><ele>23.0</ele><time>2022-11-06T14:09:40.0000000+00:00</time></trkpt><trkpt lat="39.4609705" lon="-0.37303442"><ele>23.0</ele><time>2022-11-06T14:09:41.0000000+00:00</time></trkpt><trkpt lat="39.46101509" lon="-0.37303191"><ele>23.0</ele><time>2022-11-06T14:09:42.0000000+00:00</time></trkpt><trkpt lat="39.46102289" lon="-0.37304171"><ele>23.0</ele><time>2022-11-06T14:09:43.0000000+00:00</time></trkpt><trkpt lat="39.46102096" lon="-0.37304247"><ele>23.0</ele><time>2022-11-06T14:09:44.0000000+00:00</time></trkpt><trkpt lat="39.46102247" lon="-0.37304582"><ele>23.0</ele><time>2022-11-06T14:09:45.0000000+00:00</time></trkpt><trkpt lat="39.46101409" lon="-0.37304741"><ele>23.0</ele><time>2022-11-06T14:09:46.0000000+00:00</time></trkpt><trkpt lat="39.46100679" lon="-0.37304783"><ele>23.0</ele><time>2022-11-06T14:09:47.0000000+00:00</time></trkpt><trkpt lat="39.46101341" lon="-0.37304507"><ele>23.0</ele><time>2022-11-06T14:09:48.0000000+00:00</time></trkpt><trkpt lat="39.46101132" lon="-0.37304012"><ele>23.0</ele><time>2022-11-06T14:09:49.0000000+00:00</time></trkpt><trkpt lat="39.46100604" lon="-0.37303794"><ele>23.0</ele><time>2022-11-06T14:09:50.0000000+00:00</time></trkpt><trkpt lat="39.46100604" lon="-0.37303182"><ele>23.0</ele><time>2022-11-06T14:09:51.0000000+00:00</time></trkpt><trkpt lat="39.46101476" lon="-0.37302269"><ele>23.0</ele><time>2022-11-06T14:09:52.0000000+00:00</time></trkpt><trkpt lat="39.46101023" lon="-0.37302897"><ele>23.0</ele><time>2022-11-06T14:09:53.0000000+00:00</time></trkpt><trkpt lat="39.46099992" lon="-0.37303358"><ele>23.0</ele><time>2022-11-06T14:09:54.0000000+00:00</time></trkpt><trkpt lat="39.46099305" lon="-0.37302763"><ele>23.0</ele><time>2022-11-06T14:09:55.0000000+00:00</time></trkpt><trkpt lat="39.46098768" lon="-0.37302042"><ele>23.0</ele><time>2022-11-06T14:09:56.0000000+00:00</time></trkpt><trkpt lat="39.46098425" lon="-0.37301405"><ele>23.0</ele><time>2022-11-06T14:09:57.0000000+00:00</time></trkpt><trkpt lat="39.4609798" lon="-0.37300919"><ele>23.0</ele><time>2022-11-06T14:09:58.0000000+00:00</time></trkpt><trkpt lat="39.46098534" lon="-0.37300383"><ele>23.0</ele><time>2022-11-06T14:09:59.0000000+00:00</time></trkpt><trkpt lat="39.46099338" lon="-0.37300324"><ele>23.0</ele><time>2022-11-06T14:10:00.0000000+00:00</time></trkpt><trkpt lat="39.46099238" lon="-0.37301447"><ele>23.0</ele><time>2022-11-06T14:10:01.0000000+00:00</time></trkpt><trkpt lat="39.46099154" lon="-0.37301607"><ele>23.0</ele><time>2022-11-06T14:10:02.0000000+00:00</time></trkpt><trkpt lat="39.46099162" lon="-0.37302311"><ele>23.0</ele><time>2022-11-06T14:10:03.0000000+00:00</time></trkpt><trkpt lat="39.46099849" lon="-0.37302084"><ele>23.0</ele><time>2022-11-06T14:10:04.0000000+00:00</time></trkpt><trkpt lat="39.46098961" lon="-0.37302319"><ele>23.0</ele><time>2022-11-06T14:10:05.0000000+00:00</time></trkpt><trkpt lat="39.46098416" lon="-0.37302587"><ele>23.0</ele><time>2022-11-06T14:10:06.0000000+00:00</time></trkpt><trkpt lat="39.46098433" lon="-0.37302596"><ele>23.0</ele><time>2022-11-06T14:10:07.0000000+00:00</time></trkpt><trkpt lat="39.46098332" lon="-0.37302529"><ele>23.0</ele><time>2022-11-06T14:10:08.0000000+00:00</time></trkpt><trkpt lat="39.46097159" lon="-0.3730278"><ele>23.0</ele><time>2022-11-06T14:10:09.0000000+00:00</time></trkpt><trkpt lat="39.46096212" lon="-0.37302638"><ele>23.0</ele><time>2022-11-06T14:10:10.0000000+00:00</time></trkpt><trkpt lat="39.46096086" lon="-0.37302529"><ele>23.0</ele><time>2022-11-06T14:10:11.0000000+00:00</time></trkpt><trkpt lat="39.4609586" lon="-0.37302478"><ele>23.0</ele><time>2022-11-06T14:10:12.0000000+00:00</time></trkpt><trkpt lat="39.46095927" lon="-0.37302478"><ele>23.0</ele><time>2022-11-06T14:10:13.0000000+00:00</time></trkpt><trkpt lat="39.46096002" lon="-0.37302562"><ele>23.0</ele><time>2022-11-06T14:10:14.0000000+00:00</time></trkpt><trkpt lat="39.46095365" lon="-0.37302428"><ele>23.0</ele><time>2022-11-06T14:10:15.0000000+00:00</time></trkpt><trkpt lat="39.46095323" lon="-0.37302336"><ele>23.0</ele><time>2022-11-06T14:10:16.0000000+00:00</time></trkpt><trkpt lat="39.46095348" lon="-0.37302344"><ele>23.0</ele><time>2022-11-06T14:10:17.0000000+00:00</time></trkpt><trkpt lat="39.46094929" lon="-0.37302646"><ele>23.0</ele><time>2022-11-06T14:10:18.0000000+00:00</time></trkpt><trkpt lat="39.46094192" lon="-0.37303124"><ele>23.0</ele><time>2022-11-06T14:10:19.0000000+00:00</time></trkpt><trkpt lat="39.46093831" lon="-0.37303249"><ele>23.0</ele><time>2022-11-06T14:10:20.0000000+00:00</time></trkpt><trkpt lat="39.46092758" lon="-0.37303912"><ele>23.0</ele><time>2022-11-06T14:10:21.0000000+00:00</time></trkpt><trkpt lat="39.46092507" lon="-0.37303912"><ele>23.0</ele><time>2022-11-06T14:10:22.0000000+00:00</time></trkpt><trkpt lat="39.46090696" lon="-0.37304465"><ele>23.0</ele><time>2022-11-06T14:10:23.0000000+00:00</time></trkpt><trkpt lat="39.46090244" lon="-0.37304222"><ele>23.0</ele><time>2022-11-06T14:10:24.0000000+00:00</time></trkpt><trkpt lat="39.46090252" lon="-0.37304909"><ele>23.0</ele><time>2022-11-06T14:10:25.0000000+00:00</time></trkpt><trkpt lat="39.4609047" lon="-0.37306208"><ele>23.0</ele><time>2022-11-06T14:10:26.0000000+00:00</time></trkpt><trkpt lat="39.46090395" lon="-0.37306854"><ele>23.0</ele><time>2022-11-06T14:10:27.0000000+00:00</time></trkpt><trkpt lat="39.46090261" lon="-0.37307021"><ele>23.0</ele><time>2022-11-06T14:10:28.0000000+00:00</time></trkpt><trkpt lat="39.46090646" lon="-0.3730687"><ele>23.0</ele><time>2022-11-06T14:10:29.0000000+00:00</time></trkpt><trkpt lat="39.46091032" lon="-0.37306845"><ele>23.0</ele><time>2022-11-06T14:10:30.0000000+00:00</time></trkpt><trkpt lat="39.46091149" lon="-0.37307021"><ele>23.0</ele><time>2022-11-06T14:10:31.0000000+00:00</time></trkpt><trkpt lat="39.46091308" lon="-0.37307214"><ele>23.0</ele><time>2022-11-06T14:10:32.0000000+00:00</time></trkpt><trkpt lat="39.46091216" lon="-0.37307449"><ele>23.0</ele><time>2022-11-06T14:10:33.0000000+00:00</time></trkpt><trkpt lat="39.46091509" lon="-0.37305554"><ele>23.0</ele><time>2022-11-06T14:10:34.0000000+00:00</time></trkpt><trkpt lat="39.46093597" lon="-0.37303928"><ele>23.0</ele><time>2022-11-06T14:10:35.0000000+00:00</time></trkpt><trkpt lat="39.46093949" lon="-0.37302436"><ele>23.0</ele><time>2022-11-06T14:10:36.0000000+00:00</time></trkpt><trkpt lat="39.46093823" lon="-0.37302671"><ele>23.0</ele><time>2022-11-06T14:10:37.0000000+00:00</time></trkpt><trkpt lat="39.46093848" lon="-0.37302889"><ele>23.0</ele><time>2022-11-06T14:10:38.0000000+00:00</time></trkpt><trkpt lat="39.46093605" lon="-0.37303149"><ele>23.0</ele><time>2022-11-06T14:10:39.0000000+00:00</time></trkpt><trkpt lat="39.46092884" lon="-0.37303576"><ele>23.0</ele><time>2022-11-06T14:10:40.0000000+00:00</time></trkpt><trkpt lat="39.46092222" lon="-0.37304088"><ele>23.0</ele><time>2022-11-06T14:10:41.0000000+00:00</time></trkpt><trkpt lat="39.46091442" lon="-0.37304733"><ele>23.0</ele><time>2022-11-06T14:10:42.0000000+00:00</time></trkpt><trkpt lat="39.4609104" lon="-0.3730516"><ele>23.0</ele><time>2022-11-06T14:10:43.0000000+00:00</time></trkpt><trkpt lat="39.46090973" lon="-0.37305303"><ele>23.0</ele><time>2022-11-06T14:10:44.0000000+00:00</time></trkpt><trkpt lat="39.46090847" lon="-0.37305429"><ele>23.0</ele><time>2022-11-06T14:10:45.0000000+00:00</time></trkpt><trkpt lat="39.46090504" lon="-0.37305353"><ele>23.0</ele><time>2022-11-06T14:10:46.0000000+00:00</time></trkpt><trkpt lat="39.46090085" lon="-0.37305747"><ele>23.0</ele><time>2022-11-06T14:10:47.0000000+00:00</time></trkpt><trkpt lat="39.46089825" lon="-0.37306082"><ele>23.0</ele><time>2022-11-06T14:10:48.0000000+00:00</time></trkpt><trkpt lat="39.46089791" lon="-0.37306217"><ele>23.0</ele><time>2022-11-06T14:10:49.0000000+00:00</time></trkpt><trkpt lat="39.46089733" lon="-0.3730625"><ele>23.0</ele><time>2022-11-06T14:10:50.0000000+00:00</time></trkpt><trkpt lat="39.46089783" lon="-0.3730625"><ele>23.0</ele><time>2022-11-06T14:10:51.0000000+00:00</time></trkpt><trkpt lat="39.46089791" lon="-0.37306342"><ele>23.0</ele><time>2022-11-06T14:10:52.0000000+00:00</time></trkpt><trkpt lat="39.46089766" lon="-0.37306359"><ele>23.0</ele><time>2022-11-06T14:10:53.0000000+00:00</time></trkpt><trkpt lat="39.46089691" lon="-0.37306502"><ele>23.0</ele><time>2022-11-06T14:10:54.0000000+00:00</time></trkpt><trkpt lat="39.46089582" lon="-0.37306694"><ele>23.0</ele><time>2022-11-06T14:10:55.0000000+00:00</time></trkpt><trkpt lat="39.46089339" lon="-0.37306937"><ele>23.0</ele><time>2022-11-06T14:10:56.0000000+00:00</time></trkpt><trkpt lat="39.46089288" lon="-0.37307055"><ele>23.0</ele><time>2022-11-06T14:10:57.0000000+00:00</time></trkpt><trkpt lat="39.46089699" lon="-0.3730656"><ele>23.0</ele><time>2022-11-06T14:10:58.0000000+00:00</time></trkpt><trkpt lat="39.46089892" lon="-0.3730651"><ele>23.0</ele><time>2022-11-06T14:10:59.0000000+00:00</time></trkpt><trkpt lat="39.46090194" lon="-0.37306543"><ele>23.0</ele><time>2022-11-06T14:11:00.0000000+00:00</time></trkpt><trkpt lat="39.46089833" lon="-0.3730615"><ele>23.0</ele><time>2022-11-06T14:11:01.0000000+00:00</time></trkpt><trkpt lat="39.46089808" lon="-0.37306091"><ele>23.0</ele><time>2022-11-06T14:11:02.0000000+00:00</time></trkpt><trkpt lat="39.46090009" lon="-0.37305513"><ele>23.0</ele><time>2022-11-06T14:11:03.0000000+00:00</time></trkpt><trkpt lat="39.46089766" lon="-0.37304616"><ele>23.0</ele><time>2022-11-06T14:11:04.0000000+00:00</time></trkpt><trkpt lat="39.46088827" lon="-0.37304306"><ele>23.0</ele><time>2022-11-06T14:11:05.0000000+00:00</time></trkpt><trkpt lat="39.46088534" lon="-0.3730444"><ele>23.0</ele><time>2022-11-06T14:11:06.0000000+00:00</time></trkpt><trkpt lat="39.46088551" lon="-0.37303903"><ele>23.0</ele><time>2022-11-06T14:11:07.0000000+00:00</time></trkpt><trkpt lat="39.46088442" lon="-0.37304096"><ele>23.0</ele><time>2022-11-06T14:11:08.0000000+00:00</time></trkpt><trkpt lat="39.46088199" lon="-0.37304356"><ele>23.0</ele><time>2022-11-06T14:11:09.0000000+00:00</time></trkpt><trkpt lat="39.46087838" lon="-0.37304121"><ele>23.0</ele><time>2022-11-06T14:11:10.0000000+00:00</time></trkpt><trkpt lat="39.46087277" lon="-0.37304163"><ele>23.0</ele><time>2022-11-06T14:11:11.0000000+00:00</time></trkpt><trkpt lat="39.46086941" lon="-0.37304599"><ele>23.0</ele><time>2022-11-06T14:11:12.0000000+00:00</time></trkpt><trkpt lat="39.46086573" lon="-0.37304993"><ele>23.0</ele><time>2022-11-06T14:11:13.0000000+00:00</time></trkpt><trkpt lat="39.46086086" lon="-0.37305278"><ele>23.0</ele><time>2022-11-06T14:11:14.0000000+00:00</time></trkpt><trkpt lat="39.46086003" lon="-0.37304901"><ele>23.0</ele><time>2022-11-06T14:11:15.0000000+00:00</time></trkpt><trkpt lat="39.46085801" lon="-0.37304549"><ele>23.0</ele><time>2022-11-06T14:11:16.0000000+00:00</time></trkpt><trkpt lat="39.46085609" lon="-0.37304523"><ele>23.0</ele><time>2022-11-06T14:11:17.0000000+00:00</time></trkpt><trkpt lat="39.460855" lon="-0.37304347"><ele>23.0</ele><time>2022-11-06T14:11:18.0000000+00:00</time></trkpt><trkpt lat="39.46085349" lon="-0.37304331"><ele>23.0</ele><time>2022-11-06T14:11:19.0000000+00:00</time></trkpt><trkpt lat="39.46085801" lon="-0.37303761"><ele>23.0</ele><time>2022-11-06T14:11:20.0000000+00:00</time></trkpt><trkpt lat="39.4608591" lon="-0.37303928"><ele>23.0</ele><time>2022-11-06T14:11:21.0000000+00:00</time></trkpt><trkpt lat="39.46085919" lon="-0.37303995"><ele>23.0</ele><time>2022-11-06T14:11:22.0000000+00:00</time></trkpt><trkpt lat="39.46085936" lon="-0.37303853"><ele>23.0</ele><time>2022-11-06T14:11:23.0000000+00:00</time></trkpt><trkpt lat="39.46085952" lon="-0.37303912"><ele>23.0</ele><time>2022-11-06T14:11:24.0000000+00:00</time></trkpt><trkpt lat="39.46086036" lon="-0.37304138"><ele>23.0</ele><time>2022-11-06T14:11:25.0000000+00:00</time></trkpt><trkpt lat="39.46086036" lon="-0.37304113"><ele>23.0</ele><time>2022-11-06T14:11:26.0000000+00:00</time></trkpt><trkpt lat="39.46086053" lon="-0.37303979"><ele>23.0</ele><time>2022-11-06T14:11:27.0000000+00:00</time></trkpt><trkpt lat="39.46085927" lon="-0.37303979"><ele>23.0</ele><time>2022-11-06T14:11:28.0000000+00:00</time></trkpt><trkpt lat="39.46085885" lon="-0.37304155"><ele>23.0</ele><time>2022-11-06T14:11:29.0000000+00:00</time></trkpt><trkpt lat="39.46085936" lon="-0.37304222"><ele>23.0</ele><time>2022-11-06T14:11:30.0000000+00:00</time></trkpt><trkpt lat="39.46085894" lon="-0.37304331"><ele>23.0</ele><time>2022-11-06T14:11:31.0000000+00:00</time></trkpt><trkpt lat="39.46085952" lon="-0.37303903"><ele>23.0</ele><time>2022-11-06T14:11:32.0000000+00:00</time></trkpt><trkpt lat="39.46085835" lon="-0.37304079"><ele>23.0</ele><time>2022-11-06T14:11:33.0000000+00:00</time></trkpt><trkpt lat="39.46085776" lon="-0.37304205"><ele>23.0</ele><time>2022-11-06T14:11:34.0000000+00:00</time></trkpt><trkpt lat="39.46086028" lon="-0.37304205"><ele>23.0</ele><time>2022-11-06T14:11:35.0000000+00:00</time></trkpt><trkpt lat="39.46086246" lon="-0.37304046"><ele>23.0</ele><time>2022-11-06T14:11:36.0000000+00:00</time></trkpt><trkpt lat="39.46086246" lon="-0.37304213"><ele>23.0</ele><time>2022-11-06T14:11:37.0000000+00:00</time></trkpt><trkpt lat="39.46086246" lon="-0.37304213"><ele>23.0</ele><time>2022-11-06T14:11:38.0000000+00:00</time></trkpt><trkpt lat="39.46086246" lon="-0.37304213"><ele>23.0</ele><time>2022-11-06T14:11:39.0000000+00:00</time></trkpt><trkpt lat="39.46086246" lon="-0.37304213"><ele>23.0</ele><time>2022-11-06T14:11:40.0000000+00:00</time></trkpt><trkpt lat="39.46086246" lon="-0.37304213"><ele>23.0</ele><time>2022-11-06T14:11:41.0000000+00:00</time></trkpt><trkpt lat="39.46086246" lon="-0.37304213"><ele>23.0</ele><time>2022-11-06T14:11:42.0000000+00:00</time></trkpt><trkpt lat="39.46086246" lon="-0.37304213"><ele>23.0</ele><time>2022-11-06T14:11:43.0000000+00:00</time></trkpt><trkpt lat="39.46086246" lon="-0.37304213"><ele>23.0</ele><time>2022-11-06T14:11:44.0000000+00:00</time></trkpt><trkpt lat="39.46086162" lon="-0.37304373"><ele>23.0</ele><time>2022-11-06T14:11:45.0000000+00:00</time></trkpt><trkpt lat="39.46085768" lon="-0.37304004"><ele>23.0</ele><time>2022-11-06T14:11:46.0000000+00:00</time></trkpt><trkpt lat="39.46085198" lon="-0.37304381"><ele>23.0</ele><time>2022-11-06T14:11:47.0000000+00:00</time></trkpt><trkpt lat="39.46084871" lon="-0.37304725"><ele>23.0</ele><time>2022-11-06T14:11:48.0000000+00:00</time></trkpt><trkpt lat="39.46084737" lon="-0.37304674"><ele>23.0</ele><time>2022-11-06T14:11:49.0000000+00:00</time></trkpt><trkpt lat="39.46084519" lon="-0.37304699"><ele>23.0</ele><time>2022-11-06T14:11:50.0000000+00:00</time></trkpt><trkpt lat="39.46084309" lon="-0.37305018"><ele>23.0</ele><time>2022-11-06T14:11:51.0000000+00:00</time></trkpt><trkpt lat="39.46084217" lon="-0.37305236"><ele>23.0</ele><time>2022-11-06T14:11:52.0000000+00:00</time></trkpt><trkpt lat="39.46083999" lon="-0.37305714"><ele>23.0</ele><time>2022-11-06T14:11:53.0000000+00:00</time></trkpt><trkpt lat="39.46083823" lon="-0.37306074"><ele>23.0</ele><time>2022-11-06T14:11:54.0000000+00:00</time></trkpt><trkpt lat="39.46084511" lon="-0.37305487"><ele>23.0</ele><time>2022-11-06T14:11:55.0000000+00:00</time></trkpt><trkpt lat="39.46084594" lon="-0.37305404"><ele>23.0</ele><time>2022-11-06T14:11:56.0000000+00:00</time></trkpt><trkpt lat="39.4608467" lon="-0.37305295"><ele>23.0</ele><time>2022-11-06T14:11:57.0000000+00:00</time></trkpt><trkpt lat="39.46084703" lon="-0.3730537"><ele>23.0</ele><time>2022-11-06T14:11:58.0000000+00:00</time></trkpt><trkpt lat="39.46084762" lon="-0.37305496"><ele>23.0</ele><time>2022-11-06T14:11:59.0000000+00:00</time></trkpt><trkpt lat="39.46084821" lon="-0.37305739"><ele>23.0</ele><time>2022-11-06T14:12:00.0000000+00:00</time></trkpt><trkpt lat="39.46084879" lon="-0.37305906"><ele>23.0</ele><time>2022-11-06T14:12:01.0000000+00:00</time></trkpt><trkpt lat="39.46084678" lon="-0.37305965"><ele>23.0</ele><time>2022-11-06T14:12:02.0000000+00:00</time></trkpt><trkpt lat="39.46084293" lon="-0.37306409"><ele>23.0</ele><time>2022-11-06T14:12:03.0000000+00:00</time></trkpt><trkpt lat="39.4608405" lon="-0.37306736"><ele>23.0</ele><time>2022-11-06T14:12:04.0000000+00:00</time></trkpt><trkpt lat="39.46083932" lon="-0.37306988"><ele>23.0</ele><time>2022-11-06T14:12:05.0000000+00:00</time></trkpt><trkpt lat="39.46083823" lon="-0.37307206"><ele>23.0</ele><time>2022-11-06T14:12:06.0000000+00:00</time></trkpt><trkpt lat="39.46083857" lon="-0.37307289"><ele>23.0</ele><time>2022-11-06T14:12:07.0000000+00:00</time></trkpt><trkpt lat="39.46083932" lon="-0.37307289"><ele>23.0</ele><time>2022-11-06T14:12:08.0000000+00:00</time></trkpt><trkpt lat="39.46083966" lon="-0.3730734"><ele>23.0</ele><time>2022-11-06T14:12:09.0000000+00:00</time></trkpt><trkpt lat="39.46084008" lon="-0.37307365"><ele>23.0</ele><time>2022-11-06T14:12:10.0000000+00:00</time></trkpt><trkpt lat="39.46083966" lon="-0.37307398"><ele>23.0</ele><time>2022-11-06T14:12:11.0000000+00:00</time></trkpt><trkpt lat="39.46083907" lon="-0.37307465"><ele>23.0</ele><time>2022-11-06T14:12:12.0000000+00:00</time></trkpt><trkpt lat="39.46083706" lon="-0.37307541"><ele>23.0</ele><time>2022-11-06T14:12:13.0000000+00:00</time></trkpt><trkpt lat="39.46083538" lon="-0.37307667"><ele>23.0</ele><time>2022-11-06T14:12:14.0000000+00:00</time></trkpt><trkpt lat="39.46083304" lon="-0.37307893"><ele>23.0</ele><time>2022-11-06T14:12:15.0000000+00:00</time></trkpt><trkpt lat="39.46083639" lon="-0.37307533"><ele>23.0</ele><time>2022-11-06T14:12:16.0000000+00:00</time></trkpt><trkpt lat="39.46084184" lon="-0.37307415"><ele>23.0</ele><time>2022-11-06T14:12:17.0000000+00:00</time></trkpt><trkpt lat="39.46084452" lon="-0.37307625"><ele>23.0</ele><time>2022-11-06T14:12:18.0000000+00:00</time></trkpt><trkpt lat="39.46084209" lon="-0.37308002"><ele>23.0</ele><time>2022-11-06T14:12:19.0000000+00:00</time></trkpt><trkpt lat="39.46084217" lon="-0.3730817"><ele>23.0</ele><time>2022-11-06T14:12:20.0000000+00:00</time></trkpt><trkpt lat="39.46084519" lon="-0.37308161"><ele>23.0</ele><time>2022-11-06T14:12:21.0000000+00:00</time></trkpt><trkpt lat="39.46084552" lon="-0.37308077"><ele>23.0</ele><time>2022-11-06T14:12:22.0000000+00:00</time></trkpt><trkpt lat="39.46084779" lon="-0.37308027"><ele>23.0</ele><time>2022-11-06T14:12:23.0000000+00:00</time></trkpt><trkpt lat="39.46084804" lon="-0.37308069"><ele>23.0</ele><time>2022-11-06T14:12:24.0000000+00:00</time></trkpt><trkpt lat="39.46084946" lon="-0.37308077"><ele>23.0</ele><time>2022-11-06T14:12:25.0000000+00:00</time></trkpt><trkpt lat="39.46085659" lon="-0.37307516"><ele>23.0</ele><time>2022-11-06T14:12:26.0000000+00:00</time></trkpt><trkpt lat="39.46085801" lon="-0.373076"><ele>23.0</ele><time>2022-11-06T14:12:27.0000000+00:00</time></trkpt><trkpt lat="39.46086095" lon="-0.37307625"><ele>23.0</ele><time>2022-11-06T14:12:28.0000000+00:00</time></trkpt><trkpt lat="39.46086388" lon="-0.37307591"><ele>23.0</ele><time>2022-11-06T14:12:29.0000000+00:00</time></trkpt><trkpt lat="39.46086405" lon="-0.37307767"><ele>23.0</ele><time>2022-11-06T14:12:30.0000000+00:00</time></trkpt><trkpt lat="39.46087042" lon="-0.37307105"><ele>23.0</ele><time>2022-11-06T14:12:31.0000000+00:00</time></trkpt><trkpt lat="39.46087017" lon="-0.3730744"><ele>23.0</ele><time>2022-11-06T14:12:32.0000000+00:00</time></trkpt><trkpt lat="39.46087042" lon="-0.37307734"><ele>23.0</ele><time>2022-11-06T14:12:33.0000000+00:00</time></trkpt><trkpt lat="39.46086841" lon="-0.37308128"><ele>23.0</ele><time>2022-11-06T14:12:34.0000000+00:00</time></trkpt><trkpt lat="39.46087117" lon="-0.37308195"><ele>23.0</ele><time>2022-11-06T14:12:35.0000000+00:00</time></trkpt><trkpt lat="39.4608752" lon="-0.37308203"><ele>23.0</ele><time>2022-11-06T14:12:36.0000000+00:00</time></trkpt><trkpt lat="39.46088006" lon="-0.37308002"><ele>23.0</ele><time>2022-11-06T14:12:37.0000000+00:00</time></trkpt><trkpt lat="39.46088375" lon="-0.37308639"><ele>23.0</ele><time>2022-11-06T14:12:38.0000000+00:00</time></trkpt><trkpt lat="39.46088936" lon="-0.37309469"><ele>23.0</ele><time>2022-11-06T14:12:39.0000000+00:00</time></trkpt><trkpt lat="39.46089121" lon="-0.37309561"><ele>23.0</ele><time>2022-11-06T14:12:40.0000000+00:00</time></trkpt><trkpt lat="39.46089313" lon="-0.37309536"><ele>23.0</ele><time>2022-11-06T14:12:41.0000000+00:00</time></trkpt><trkpt lat="39.46089372" lon="-0.37309159"><ele>23.0</ele><time>2022-11-06T14:12:42.0000000+00:00</time></trkpt><trkpt lat="39.46090395" lon="-0.37308765"><ele>23.0</ele><time>2022-11-06T14:12:43.0000000+00:00</time></trkpt><trkpt lat="39.46091149" lon="-0.37308605"><ele>23.0</ele><time>2022-11-06T14:12:44.0000000+00:00</time></trkpt><trkpt lat="39.46091685" lon="-0.37308555"><ele>23.0</ele><time>2022-11-06T14:12:45.0000000+00:00</time></trkpt><trkpt lat="39.46092247" lon="-0.37308329"><ele>23.0</ele><time>2022-11-06T14:12:46.0000000+00:00</time></trkpt><trkpt lat="39.4609192" lon="-0.37308706"><ele>23.0</ele><time>2022-11-06T14:12:47.0000000+00:00</time></trkpt><trkpt lat="39.46091535" lon="-0.3730915"><ele>23.0</ele><time>2022-11-06T14:12:48.0000000+00:00</time></trkpt><trkpt lat="39.46090973" lon="-0.37309771"><ele>23.0</ele><time>2022-11-06T14:12:49.0000000+00:00</time></trkpt><trkpt lat="39.46090722" lon="-0.37310064"><ele>23.0</ele><time>2022-11-06T14:12:50.0000000+00:00</time></trkpt><trkpt lat="39.46091015" lon="-0.37309695"><ele>23.0</ele><time>2022-11-06T14:12:51.0000000+00:00</time></trkpt><trkpt lat="39.46091157" lon="-0.37309745"><ele>23.0</ele><time>2022-11-06T14:12:52.0000000+00:00</time></trkpt><trkpt lat="39.46091015" lon="-0.37309988"><ele>23.0</ele><time>2022-11-06T14:12:53.0000000+00:00</time></trkpt><trkpt lat="39.46091099" lon="-0.3730967"><ele>23.0</ele><time>2022-11-06T14:12:54.0000000+00:00</time></trkpt><trkpt lat="39.46091099" lon="-0.37309444"><ele>23.0</ele><time>2022-11-06T14:12:55.0000000+00:00</time></trkpt><trkpt lat="39.46090864" lon="-0.37309804"><ele>23.0</ele><time>2022-11-06T14:12:56.0000000+00:00</time></trkpt><trkpt lat="39.4609052" lon="-0.37310206"><ele>23.0</ele><time>2022-11-06T14:12:57.0000000+00:00</time></trkpt><trkpt lat="39.46090261" lon="-0.37310491"><ele>23.0</ele><time>2022-11-06T14:12:58.0000000+00:00</time></trkpt><trkpt lat="39.46090269" lon="-0.373106"><ele>23.0</ele><time>2022-11-06T14:12:59.0000000+00:00</time></trkpt><trkpt lat="39.46090168" lon="-0.37310793"><ele>23.0</ele><time>2022-11-06T14:13:00.0000000+00:00</time></trkpt><trkpt lat="39.46090085" lon="-0.37310751"><ele>23.0</ele><time>2022-11-06T14:13:01.0000000+00:00</time></trkpt><trkpt lat="39.46090152" lon="-0.37310533"><ele>23.0</ele><time>2022-11-06T14:13:02.0000000+00:00</time></trkpt><trkpt lat="39.46090453" lon="-0.37310961"><ele>23.0</ele><time>2022-11-06T14:13:03.0000000+00:00</time></trkpt><trkpt lat="39.46091099" lon="-0.3731055"><ele>23.0</ele><time>2022-11-06T14:13:04.0000000+00:00</time></trkpt><trkpt lat="39.46091032" lon="-0.37310919"><ele>23.0</ele><time>2022-11-06T14:13:05.0000000+00:00</time></trkpt><trkpt lat="39.46090965" lon="-0.37311263"><ele>23.0</ele><time>2022-11-06T14:13:06.0000000+00:00</time></trkpt><trkpt lat="39.46091233" lon="-0.37311254"><ele>23.0</ele><time>2022-11-06T14:13:07.0000000+00:00</time></trkpt><trkpt lat="39.46091442" lon="-0.37311296"><ele>23.0</ele><time>2022-11-06T14:13:08.0000000+00:00</time></trkpt><trkpt lat="39.46091753" lon="-0.37312696"><ele>23.0</ele><time>2022-11-06T14:13:09.0000000+00:00</time></trkpt><trkpt lat="39.46091694" lon="-0.37313794"><ele>23.0</ele><time>2022-11-06T14:13:10.0000000+00:00</time></trkpt><trkpt lat="39.46091996" lon="-0.37312998"><ele>23.0</ele><time>2022-11-06T14:13:11.0000000+00:00</time></trkpt><trkpt lat="39.46092004" lon="-0.3731288"><ele>23.0</ele><time>2022-11-06T14:13:12.0000000+00:00</time></trkpt><trkpt lat="39.46092021" lon="-0.37312788"><ele>23.0</ele><time>2022-11-06T14:13:13.0000000+00:00</time></trkpt><trkpt lat="39.46092021" lon="-0.37312788"><ele>23.0</ele><time>2022-11-06T14:13:14.0000000+00:00</time></trkpt><trkpt lat="39.46092021" lon="-0.37312788"><ele>23.0</ele><time>2022-11-06T14:13:15.0000000+00:00</time></trkpt><trkpt lat="39.46092021" lon="-0.37312788"><ele>23.0</ele><time>2022-11-06T14:13:16.0000000+00:00</time></trkpt><trkpt lat="39.46092021" lon="-0.37312788"><ele>23.0</ele><time>2022-11-06T14:13:17.0000000+00:00</time></trkpt><trkpt lat="39.46092021" lon="-0.37312788"><ele>23.0</ele><time>2022-11-06T14:13:18.0000000+00:00</time></trkpt><trkpt lat="39.46092021" lon="-0.37312788"><ele>23.0</ele><time>2022-11-06T14:13:19.0000000+00:00</time></trkpt><trkpt lat="39.46092281" lon="-0.37312478"><ele>23.0</ele><time>2022-11-06T14:13:20.0000000+00:00</time></trkpt><trkpt lat="39.46092524" lon="-0.37311983"><ele>23.0</ele><time>2022-11-06T14:13:21.0000000+00:00</time></trkpt><trkpt lat="39.46093421" lon="-0.37310315"><ele>23.0</ele><time>2022-11-06T14:13:22.0000000+00:00</time></trkpt><trkpt lat="39.46093923" lon="-0.37310181"><ele>23.0</ele><time>2022-11-06T14:13:23.0000000+00:00</time></trkpt><trkpt lat="39.46094242" lon="-0.3730998"><ele>23.0</ele><time>2022-11-06T14:13:24.0000000+00:00</time></trkpt><trkpt lat="39.46094695" lon="-0.37309678"><ele>23.0</ele><time>2022-11-06T14:13:25.0000000+00:00</time></trkpt><trkpt lat="39.4609503" lon="-0.37309469"><ele>23.0</ele><time>2022-11-06T14:13:26.0000000+00:00</time></trkpt><trkpt lat="39.46095591" lon="-0.37308966"><ele>23.0</ele><time>2022-11-06T14:13:27.0000000+00:00</time></trkpt><trkpt lat="39.46095767" lon="-0.37308253"><ele>23.0</ele><time>2022-11-06T14:13:28.0000000+00:00</time></trkpt><trkpt lat="39.46095793" lon="-0.37308119"><ele>23.0</ele><time>2022-11-06T14:13:29.0000000+00:00</time></trkpt><trkpt lat="39.46096069" lon="-0.37307843"><ele>23.0</ele><time>2022-11-06T14:13:30.0000000+00:00</time></trkpt><trkpt lat="39.460957" lon="-0.37308463"><ele>23.0</ele><time>2022-11-06T14:13:31.0000000+00:00</time></trkpt><trkpt lat="39.46095583" lon="-0.37308756"><ele>23.0</ele><time>2022-11-06T14:13:32.0000000+00:00</time></trkpt><trkpt lat="39.46095633" lon="-0.37309016"><ele>23.0</ele><time>2022-11-06T14:13:33.0000000+00:00</time></trkpt><trkpt lat="39.46095608" lon="-0.37309469"><ele>23.0</ele><time>2022-11-06T14:13:34.0000000+00:00</time></trkpt><trkpt lat="39.46096287" lon="-0.37307885"><ele>23.0</ele><time>2022-11-06T14:13:35.0000000+00:00</time></trkpt><trkpt lat="39.46096505" lon="-0.37307801"><ele>23.0</ele><time>2022-11-06T14:13:36.0000000+00:00</time></trkpt><trkpt lat="39.46096656" lon="-0.37307608"><ele>23.0</ele><time>2022-11-06T14:13:37.0000000+00:00</time></trkpt><trkpt lat="39.46097301" lon="-0.3730708"><ele>23.0</ele><time>2022-11-06T14:13:38.0000000+00:00</time></trkpt><trkpt lat="39.46098156" lon="-0.37306267"><ele>23.0</ele><time>2022-11-06T14:13:39.0000000+00:00</time></trkpt><trkpt lat="39.46098198" lon="-0.37306267"><ele>23.0</ele><time>2022-11-06T14:13:40.0000000+00:00</time></trkpt><trkpt lat="39.46098198" lon="-0.37306267"><ele>23.0</ele><time>2022-11-06T14:13:41.0000000+00:00</time></trkpt><trkpt lat="39.46098198" lon="-0.37306267"><ele>23.0</ele><time>2022-11-06T14:13:42.0000000+00:00</time></trkpt><trkpt lat="39.46097997" lon="-0.37306569"><ele>23.0</ele><time>2022-11-06T14:13:43.0000000+00:00</time></trkpt><trkpt lat="39.46097285" lon="-0.37307155"><ele>23.0</ele><time>2022-11-06T14:13:44.0000000+00:00</time></trkpt><trkpt lat="39.46096731" lon="-0.37308203"><ele>23.0</ele><time>2022-11-06T14:13:45.0000000+00:00</time></trkpt><trkpt lat="39.46096396" lon="-0.37309142"><ele>23.0</ele><time>2022-11-06T14:13:46.0000000+00:00</time></trkpt><trkpt lat="39.4609653" lon="-0.37309838"><ele>23.0</ele><time>2022-11-06T14:13:47.0000000+00:00</time></trkpt><trkpt lat="39.46095902" lon="-0.3731262"><ele>23.0</ele><time>2022-11-06T14:13:48.0000000+00:00</time></trkpt><trkpt lat="39.46095885" lon="-0.37314029"><ele>23.0</ele><time>2022-11-06T14:13:49.0000000+00:00</time></trkpt><trkpt lat="39.46096011" lon="-0.37314598"><ele>23.0</ele><time>2022-11-06T14:13:50.0000000+00:00</time></trkpt><trkpt lat="39.46095835" lon="-0.37315143"><ele>23.0</ele><time>2022-11-06T14:13:51.0000000+00:00</time></trkpt><trkpt lat="39.4609648" lon="-0.37313794"><ele>23.0</ele><time>2022-11-06T14:13:52.0000000+00:00</time></trkpt><trkpt lat="39.46096589" lon="-0.37313366"><ele>23.0</ele><time>2022-11-06T14:13:53.0000000+00:00</time></trkpt><trkpt lat="39.46096731" lon="-0.37312998"><ele>23.0</ele><time>2022-11-06T14:13:54.0000000+00:00</time></trkpt><trkpt lat="39.46096555" lon="-0.3731293"><ele>23.0</ele><time>2022-11-06T14:13:55.0000000+00:00</time></trkpt><trkpt lat="39.46096572" lon="-0.3731319"><ele>23.0</ele><time>2022-11-06T14:13:56.0000000+00:00</time></trkpt><trkpt lat="39.46096773" lon="-0.37313199"><ele>23.0</ele><time>2022-11-06T14:13:57.0000000+00:00</time></trkpt><trkpt lat="39.46096614" lon="-0.37313375"><ele>23.0</ele><time>2022-11-06T14:13:58.0000000+00:00</time></trkpt><trkpt lat="39.46096413" lon="-0.37314029"><ele>23.0</ele><time>2022-11-06T14:13:59.0000000+00:00</time></trkpt><trkpt lat="39.46096245" lon="-0.3731459"><ele>23.0</ele><time>2022-11-06T14:14:00.0000000+00:00</time></trkpt><trkpt lat="39.46096128" lon="-0.37314666"><ele>23.0</ele><time>2022-11-06T14:14:01.0000000+00:00</time></trkpt><trkpt lat="39.46096438" lon="-0.37313635"><ele>23.0</ele><time>2022-11-06T14:14:02.0000000+00:00</time></trkpt><trkpt lat="39.46096321" lon="-0.37313643"><ele>23.0</ele><time>2022-11-06T14:14:03.0000000+00:00</time></trkpt><trkpt lat="39.4609762" lon="-0.37311179"><ele>23.0</ele><time>2022-11-06T14:14:04.0000000+00:00</time></trkpt><trkpt lat="39.46097637" lon="-0.37311053"><ele>23.0</ele><time>2022-11-06T14:14:05.0000000+00:00</time></trkpt><trkpt lat="39.46097578" lon="-0.37310877"><ele>23.0</ele><time>2022-11-06T14:14:06.0000000+00:00</time></trkpt><trkpt lat="39.46097561" lon="-0.37310793"><ele>23.0</ele><time>2022-11-06T14:14:07.0000000+00:00</time></trkpt><trkpt lat="39.46097595" lon="-0.37310734"><ele>23.0</ele><time>2022-11-06T14:14:08.0000000+00:00</time></trkpt><trkpt lat="39.46097611" lon="-0.37310508"><ele>23.0</ele><time>2022-11-06T14:14:09.0000000+00:00</time></trkpt><trkpt lat="39.46097611" lon="-0.37310324"><ele>23.0</ele><time>2022-11-06T14:14:10.0000000+00:00</time></trkpt><trkpt lat="39.46097637" lon="-0.37310206"><ele>23.0</ele><time>2022-11-06T14:14:11.0000000+00:00</time></trkpt><trkpt lat="39.46097653" lon="-0.37310064"><ele>23.0</ele><time>2022-11-06T14:14:12.0000000+00:00</time></trkpt><trkpt lat="39.46097435" lon="-0.37309469"><ele>23.0</ele><time>2022-11-06T14:14:13.0000000+00:00</time></trkpt><trkpt lat="39.46097226" lon="-0.37309242"><ele>23.0</ele><time>2022-11-06T14:14:14.0000000+00:00</time></trkpt><trkpt lat="39.46097704" lon="-0.37308538"><ele>23.0</ele><time>2022-11-06T14:14:15.0000000+00:00</time></trkpt><trkpt lat="39.46097955" lon="-0.37307734"><ele>23.0</ele><time>2022-11-06T14:14:16.0000000+00:00</time></trkpt><trkpt lat="39.46097687" lon="-0.37307977"><ele>23.0</ele><time>2022-11-06T14:14:17.0000000+00:00</time></trkpt><trkpt lat="39.46098114" lon="-0.37306552"><ele>23.0</ele><time>2022-11-06T14:14:18.0000000+00:00</time></trkpt><trkpt lat="39.46097905" lon="-0.37306602"><ele>23.0</ele><time>2022-11-06T14:14:19.0000000+00:00</time></trkpt><trkpt lat="39.46097737" lon="-0.3730646"><ele>23.0</ele><time>2022-11-06T14:14:20.0000000+00:00</time></trkpt><trkpt lat="39.46097938" lon="-0.37305328"><ele>23.0</ele><time>2022-11-06T14:14:21.0000000+00:00</time></trkpt><trkpt lat="39.46098357" lon="-0.37304808"><ele>23.0</ele><time>2022-11-06T14:14:22.0000000+00:00</time></trkpt><trkpt lat="39.46098324" lon="-0.37305144"><ele>23.0</ele><time>2022-11-06T14:14:23.0000000+00:00</time></trkpt><trkpt lat="39.46098307" lon="-0.3730542"><ele>23.0</ele><time>2022-11-06T14:14:24.0000000+00:00</time></trkpt><trkpt lat="39.46098307" lon="-0.37305739"><ele>23.0</ele><time>2022-11-06T14:14:25.0000000+00:00</time></trkpt><trkpt lat="39.46098307" lon="-0.37305923"><ele>23.0</ele><time>2022-11-06T14:14:26.0000000+00:00</time></trkpt><trkpt lat="39.46098165" lon="-0.37305672"><ele>23.0</ele><time>2022-11-06T14:14:27.0000000+00:00</time></trkpt><trkpt lat="39.46098123" lon="-0.37305865"><ele>23.0</ele><time>2022-11-06T14:14:28.0000000+00:00</time></trkpt><trkpt lat="39.46097637" lon="-0.37306108"><ele>23.0</ele><time>2022-11-06T14:14:29.0000000+00:00</time></trkpt><trkpt lat="39.46097377" lon="-0.37306158"><ele>23.0</ele><time>2022-11-06T14:14:30.0000000+00:00</time></trkpt><trkpt lat="39.46097427" lon="-0.3730589"><ele>23.0</ele><time>2022-11-06T14:14:31.0000000+00:00</time></trkpt><trkpt lat="39.46097788" lon="-0.37305823"><ele>23.0</ele><time>2022-11-06T14:14:32.0000000+00:00</time></trkpt><trkpt lat="39.46097896" lon="-0.37305211"><ele>23.0</ele><time>2022-11-06T14:14:33.0000000+00:00</time></trkpt><trkpt lat="39.46097947" lon="-0.37305035"><ele>23.0</ele><time>2022-11-06T14:14:34.0000000+00:00</time></trkpt><trkpt lat="39.46097997" lon="-0.37304012"><ele>23.0</ele><time>2022-11-06T14:14:35.0000000+00:00</time></trkpt><trkpt lat="39.46098408" lon="-0.37303484"><ele>23.0</ele><time>2022-11-06T14:14:36.0000000+00:00</time></trkpt><trkpt lat="39.46098969" lon="-0.37302403"><ele>23.0</ele><time>2022-11-06T14:14:37.0000000+00:00</time></trkpt><trkpt lat="39.46099003" lon="-0.37302059"><ele>23.0</ele><time>2022-11-06T14:14:38.0000000+00:00</time></trkpt><trkpt lat="39.46102959" lon="-0.37298086"><ele>23.0</ele><time>2022-11-06T14:14:39.0000000+00:00</time></trkpt><trkpt lat="39.46101945" lon="-0.37298078"><ele>23.0</ele><time>2022-11-06T14:14:40.0000000+00:00</time></trkpt><trkpt lat="39.46102146" lon="-0.37297927"><ele>23.0</ele><time>2022-11-06T14:14:41.0000000+00:00</time></trkpt><trkpt lat="39.46100679" lon="-0.37298841"><ele>23.0</ele><time>2022-11-06T14:14:42.0000000+00:00</time></trkpt><trkpt lat="39.46100629" lon="-0.37298773"><ele>23.0</ele><time>2022-11-06T14:14:43.0000000+00:00</time></trkpt><trkpt lat="39.46100319" lon="-0.37298296"><ele>23.0</ele><time>2022-11-06T14:14:44.0000000+00:00</time></trkpt><trkpt lat="39.46099112" lon="-0.37298908"><ele>23.0</ele><time>2022-11-06T14:14:45.0000000+00:00</time></trkpt><trkpt lat="39.46098802" lon="-0.37298849"><ele>23.0</ele><time>2022-11-06T14:14:46.0000000+00:00</time></trkpt><trkpt lat="39.46098844" lon="-0.37297868"><ele>23.0</ele><time>2022-11-06T14:14:47.0000000+00:00</time></trkpt><trkpt lat="39.46098961" lon="-0.37297499"><ele>23.0</ele><time>2022-11-06T14:14:48.0000000+00:00</time></trkpt><trkpt lat="39.46099045" lon="-0.37297248"><ele>23.0</ele><time>2022-11-06T14:14:49.0000000+00:00</time></trkpt><trkpt lat="39.46098743" lon="-0.37297483"><ele>23.0</ele><time>2022-11-06T14:14:50.0000000+00:00</time></trkpt><trkpt lat="39.4609881" lon="-0.37297793"><ele>23.0</ele><time>2022-11-06T14:14:51.0000000+00:00</time></trkpt><trkpt lat="39.46098316" lon="-0.37298229"><ele>23.0</ele><time>2022-11-06T14:14:52.0000000+00:00</time></trkpt><trkpt lat="39.46098215" lon="-0.37298472"><ele>23.0</ele><time>2022-11-06T14:14:53.0000000+00:00</time></trkpt><trkpt lat="39.46098081" lon="-0.37298639"><ele>23.0</ele><time>2022-11-06T14:14:54.0000000+00:00</time></trkpt><trkpt lat="39.46097544" lon="-0.37297843"><ele>23.0</ele><time>2022-11-06T14:14:55.0000000+00:00</time></trkpt><trkpt lat="39.46097142" lon="-0.3729817"><ele>23.0</ele><time>2022-11-06T14:14:56.0000000+00:00</time></trkpt><trkpt lat="39.46096648" lon="-0.37298522"><ele>23.0</ele><time>2022-11-06T14:14:57.0000000+00:00</time></trkpt><trkpt lat="39.46096379" lon="-0.37298354"><ele>23.0</ele><time>2022-11-06T14:14:58.0000000+00:00</time></trkpt><trkpt lat="39.46096723" lon="-0.37298178"><ele>23.0</ele><time>2022-11-06T14:14:59.0000000+00:00</time></trkpt><trkpt lat="39.46097016" lon="-0.3729781"><ele>23.0</ele><time>2022-11-06T14:15:00.0000000+00:00</time></trkpt><trkpt lat="39.46097293" lon="-0.37297516"><ele>23.0</ele><time>2022-11-06T14:15:01.0000000+00:00</time></trkpt><trkpt lat="39.46097712" lon="-0.37297139"><ele>23.0</ele><time>2022-11-06T14:15:02.0000000+00:00</time></trkpt><trkpt lat="39.46098232" lon="-0.37297441"><ele>23.0</ele><time>2022-11-06T14:15:03.0000000+00:00</time></trkpt><trkpt lat="39.46098282" lon="-0.3729739"><ele>23.0</ele><time>2022-11-06T14:15:04.0000000+00:00</time></trkpt><trkpt lat="39.46098173" lon="-0.37297265"><ele>23.0</ele><time>2022-11-06T14:15:05.0000000+00:00</time></trkpt><trkpt lat="39.46098165" lon="-0.37297332"><ele>23.0</ele><time>2022-11-06T14:15:06.0000000+00:00</time></trkpt><trkpt lat="39.46098265" lon="-0.37297265"><ele>23.0</ele><time>2022-11-06T14:15:07.0000000+00:00</time></trkpt><trkpt lat="39.46098391" lon="-0.37296862"><ele>23.0</ele><time>2022-11-06T14:15:08.0000000+00:00</time></trkpt><trkpt lat="39.4609855" lon="-0.37296142"><ele>23.0</ele><time>2022-11-06T14:15:09.0000000+00:00</time></trkpt><trkpt lat="39.46098383" lon="-0.37295429"><ele>23.0</ele><time>2022-11-06T14:15:10.0000000+00:00</time></trkpt><trkpt lat="39.46098768" lon="-0.37294876"><ele>23.0</ele><time>2022-11-06T14:15:11.0000000+00:00</time></trkpt><trkpt lat="39.46098978" lon="-0.37294448"><ele>23.0</ele><time>2022-11-06T14:15:12.0000000+00:00</time></trkpt><trkpt lat="39.46099187" lon="-0.37293912"><ele>23.0</ele><time>2022-11-06T14:15:13.0000000+00:00</time></trkpt><trkpt lat="39.46099338" lon="-0.37293711"><ele>23.0</ele><time>2022-11-06T14:15:14.0000000+00:00</time></trkpt><trkpt lat="39.46099799" lon="-0.37292604"><ele>23.0</ele><time>2022-11-06T14:15:15.0000000+00:00</time></trkpt><trkpt lat="39.4609995" lon="-0.37292277"><ele>23.0</ele><time>2022-11-06T14:15:16.0000000+00:00</time></trkpt><trkpt lat="39.46100378" lon="-0.37289922"><ele>23.0</ele><time>2022-11-06T14:15:17.0000000+00:00</time></trkpt><trkpt lat="39.46100076" lon="-0.37289981"><ele>23.0</ele><time>2022-11-06T14:15:18.0000000+00:00</time></trkpt><trkpt lat="39.46099439" lon="-0.37291146"><ele>23.0</ele><time>2022-11-06T14:15:19.0000000+00:00</time></trkpt><trkpt lat="39.46099145" lon="-0.37292613"><ele>23.0</ele><time>2022-11-06T14:15:20.0000000+00:00</time></trkpt><trkpt lat="39.46099263" lon="-0.37293183"><ele>23.0</ele><time>2022-11-06T14:15:21.0000000+00:00</time></trkpt><trkpt lat="39.46099271" lon="-0.37293677"><ele>23.0</ele><time>2022-11-06T14:15:22.0000000+00:00</time></trkpt><trkpt lat="39.46099472" lon="-0.37293484"><ele>23.0</ele><time>2022-11-06T14:15:23.0000000+00:00</time></trkpt><trkpt lat="39.46099363" lon="-0.37293744"><ele>23.0</ele><time>2022-11-06T14:15:24.0000000+00:00</time></trkpt><trkpt lat="39.46099254" lon="-0.37294029"><ele>23.0</ele><time>2022-11-06T14:15:25.0000000+00:00</time></trkpt><trkpt lat="39.46099196" lon="-0.37294063"><ele>23.0</ele><time>2022-11-06T14:15:26.0000000+00:00</time></trkpt><trkpt lat="39.46099103" lon="-0.37294398"><ele>23.0</ele><time>2022-11-06T14:15:27.0000000+00:00</time></trkpt><trkpt lat="39.46099154" lon="-0.37294549"><ele>23.0</ele><time>2022-11-06T14:15:28.0000000+00:00</time></trkpt><trkpt lat="39.46099355" lon="-0.37295085"><ele>23.0</ele><time>2022-11-06T14:15:29.0000000+00:00</time></trkpt><trkpt lat="39.46099858" lon="-0.3729506"><ele>23.0</ele><time>2022-11-06T14:15:30.0000000+00:00</time></trkpt><trkpt lat="39.46100168" lon="-0.37295664"><ele>23.0</ele><time>2022-11-06T14:15:31.0000000+00:00</time></trkpt><trkpt lat="39.46100118" lon="-0.37295773"><ele>23.0</ele><time>2022-11-06T14:15:32.0000000+00:00</time></trkpt><trkpt lat="39.46100118" lon="-0.37295773"><ele>23.0</ele><time>2022-11-06T14:15:33.0000000+00:00</time></trkpt><trkpt lat="39.46100118" lon="-0.37295773"><ele>23.0</ele><time>2022-11-06T14:15:34.0000000+00:00</time></trkpt><trkpt lat="39.46100118" lon="-0.37295773"><ele>23.0</ele><time>2022-11-06T14:15:35.0000000+00:00</time></trkpt><trkpt lat="39.46100118" lon="-0.37295773"><ele>23.0</ele><time>2022-11-06T14:15:36.0000000+00:00</time></trkpt><trkpt lat="39.46100118" lon="-0.37295773"><ele>23.0</ele><time>2022-11-06T14:15:37.0000000+00:00</time></trkpt><trkpt lat="39.46100118" lon="-0.37295773"><ele>23.0</ele><time>2022-11-06T14:15:38.0000000+00:00</time></trkpt><trkpt lat="39.46100118" lon="-0.37295773"><ele>23.0</ele><time>2022-11-06T14:15:39.0000000+00:00</time></trkpt><trkpt lat="39.46100118" lon="-0.37295773"><ele>23.0</ele><time>2022-11-06T14:15:40.0000000+00:00</time></trkpt><trkpt lat="39.46100118" lon="-0.37295773"><ele>23.0</ele><time>2022-11-06T14:15:41.0000000+00:00</time></trkpt><trkpt lat="39.46100118" lon="-0.37295773"><ele>23.0</ele><time>2022-11-06T14:15:42.0000000+00:00</time></trkpt><trkpt lat="39.46100118" lon="-0.37295773"><ele>23.0</ele><time>2022-11-06T14:15:43.0000000+00:00</time></trkpt><trkpt lat="39.46100118" lon="-0.37295773"><ele>23.0</ele><time>2022-11-06T14:15:44.0000000+00:00</time></trkpt><trkpt lat="39.46100118" lon="-0.37295773"><ele>23.0</ele><time>2022-11-06T14:15:45.0000000+00:00</time></trkpt><trkpt lat="39.46100118" lon="-0.37295773"><ele>23.0</ele><time>2022-11-06T14:15:46.0000000+00:00</time></trkpt><trkpt lat="39.46100168" lon="-0.37295773"><ele>23.0</ele><time>2022-11-06T14:15:47.0000000+00:00</time></trkpt><trkpt lat="39.46100185" lon="-0.37295773"><ele>23.0</ele><time>2022-11-06T14:15:48.0000000+00:00</time></trkpt><trkpt lat="39.46100378" lon="-0.37296234"><ele>23.0</ele><time>2022-11-06T14:15:49.0000000+00:00</time></trkpt><trkpt lat="39.46100922" lon="-0.37296276"><ele>23.0</ele><time>2022-11-06T14:15:50.0000000+00:00</time></trkpt><trkpt lat="39.46100746" lon="-0.37298245"><ele>23.0</ele><time>2022-11-06T14:15:51.0000000+00:00</time></trkpt><trkpt lat="39.46100445" lon="-0.37298773"><ele>23.0</ele><time>2022-11-06T14:15:52.0000000+00:00</time></trkpt><trkpt lat="39.46099858" lon="-0.37300173"><ele>23.0</ele><time>2022-11-06T14:15:53.0000000+00:00</time></trkpt><trkpt lat="39.46099481" lon="-0.37303543"><ele>23.0</ele><time>2022-11-06T14:15:54.0000000+00:00</time></trkpt><trkpt lat="39.46099179" lon="-0.37304356"><ele>23.0</ele><time>2022-11-06T14:15:55.0000000+00:00</time></trkpt><trkpt lat="39.46099799" lon="-0.37304767"><ele>23.0</ele><time>2022-11-06T14:15:56.0000000+00:00</time></trkpt><trkpt lat="39.46100042" lon="-0.37304482"><ele>23.0</ele><time>2022-11-06T14:15:57.0000000+00:00</time></trkpt><trkpt lat="39.46100243" lon="-0.37304867"><ele>23.0</ele><time>2022-11-06T14:15:58.0000000+00:00</time></trkpt><trkpt lat="39.46099984" lon="-0.37305102"><ele>23.0</ele><time>2022-11-06T14:15:59.0000000+00:00</time></trkpt><trkpt lat="39.46099917" lon="-0.37305278"><ele>23.0</ele><time>2022-11-06T14:16:00.0000000+00:00</time></trkpt><trkpt lat="39.46100118" lon="-0.37305395"><ele>23.0</ele><time>2022-11-06T14:16:01.0000000+00:00</time></trkpt><trkpt lat="39.46100503" lon="-0.37306435"><ele>23.0</ele><time>2022-11-06T14:16:02.0000000+00:00</time></trkpt><trkpt lat="39.46100411" lon="-0.37306736"><ele>23.0</ele><time>2022-11-06T14:16:03.0000000+00:00</time></trkpt><trkpt lat="39.46100478" lon="-0.37307105"><ele>23.0</ele><time>2022-11-06T14:16:04.0000000+00:00</time></trkpt><trkpt lat="39.46100235" lon="-0.37307331"><ele>23.0</ele><time>2022-11-06T14:16:05.0000000+00:00</time></trkpt><trkpt lat="39.46100277" lon="-0.37307474"><ele>23.0</ele><time>2022-11-06T14:16:06.0000000+00:00</time></trkpt><trkpt lat="39.46100587" lon="-0.37307893"><ele>23.0</ele><time>2022-11-06T14:16:07.0000000+00:00</time></trkpt><trkpt lat="39.46100864" lon="-0.37308153"><ele>23.0</ele><time>2022-11-06T14:16:08.0000000+00:00</time></trkpt><trkpt lat="39.46101149" lon="-0.3730822"><ele>23.0</ele><time>2022-11-06T14:16:09.0000000+00:00</time></trkpt><trkpt lat="39.46101216" lon="-0.37307968"><ele>23.0</ele><time>2022-11-06T14:16:10.0000000+00:00</time></trkpt><trkpt lat="39.46101073" lon="-0.3730801"><ele>23.0</ele><time>2022-11-06T14:16:11.0000000+00:00</time></trkpt><trkpt lat="39.46100839" lon="-0.37308111"><ele>23.0</ele><time>2022-11-06T14:16:12.0000000+00:00</time></trkpt><trkpt lat="39.46100704" lon="-0.37308094"><ele>23.0</ele><time>2022-11-06T14:16:13.0000000+00:00</time></trkpt><trkpt lat="39.46100696" lon="-0.37309301"><ele>23.0</ele><time>2022-11-06T14:16:14.0000000+00:00</time></trkpt><trkpt lat="39.4610192" lon="-0.37309988"><ele>23.0</ele><time>2022-11-06T14:16:15.0000000+00:00</time></trkpt><trkpt lat="39.4610254" lon="-0.37310391"><ele>23.0</ele><time>2022-11-06T14:16:16.0000000+00:00</time></trkpt><trkpt lat="39.46103739" lon="-0.37310349"><ele>23.0</ele><time>2022-11-06T14:16:17.0000000+00:00</time></trkpt><trkpt lat="39.46104032" lon="-0.37310265"><ele>23.0</ele><time>2022-11-06T14:16:18.0000000+00:00</time></trkpt><trkpt lat="39.46104283" lon="-0.37309829"><ele>23.0</ele><time>2022-11-06T14:16:19.0000000+00:00</time></trkpt><trkpt lat="39.46104476" lon="-0.37309578"><ele>23.0</ele><time>2022-11-06T14:16:20.0000000+00:00</time></trkpt><trkpt lat="39.46104485" lon="-0.37310206"><ele>23.0</ele><time>2022-11-06T14:16:21.0000000+00:00</time></trkpt><trkpt lat="39.4610446" lon="-0.37310843"><ele>23.0</ele><time>2022-11-06T14:16:22.0000000+00:00</time></trkpt><trkpt lat="39.4610451" lon="-0.3731081"><ele>23.0</ele><time>2022-11-06T14:16:23.0000000+00:00</time></trkpt><trkpt lat="39.46104795" lon="-0.37310726"><ele>23.0</ele><time>2022-11-06T14:16:24.0000000+00:00</time></trkpt><trkpt lat="39.46104812" lon="-0.37311128"><ele>23.0</ele><time>2022-11-06T14:16:25.0000000+00:00</time></trkpt><trkpt lat="39.46104644" lon="-0.37311246"><ele>23.0</ele><time>2022-11-06T14:16:26.0000000+00:00</time></trkpt><trkpt lat="39.46104485" lon="-0.37311606"><ele>23.0</ele><time>2022-11-06T14:16:27.0000000+00:00</time></trkpt><trkpt lat="39.46104367" lon="-0.37311816"><ele>23.0</ele><time>2022-11-06T14:16:28.0000000+00:00</time></trkpt><trkpt lat="39.46104233" lon="-0.37311975"><ele>23.0</ele><time>2022-11-06T14:16:29.0000000+00:00</time></trkpt><trkpt lat="39.4610342" lon="-0.37313174"><ele>23.0</ele><time>2022-11-06T14:16:30.0000000+00:00</time></trkpt><trkpt lat="39.46102817" lon="-0.37313785"><ele>23.0</ele><time>2022-11-06T14:16:31.0000000+00:00</time></trkpt><trkpt lat="39.46102515" lon="-0.37314112"><ele>23.0</ele><time>2022-11-06T14:16:32.0000000+00:00</time></trkpt><trkpt lat="39.46101987" lon="-0.37314372"><ele>23.0</ele><time>2022-11-06T14:16:33.0000000+00:00</time></trkpt><trkpt lat="39.4610145" lon="-0.37314842"><ele>23.0</ele><time>2022-11-06T14:16:34.0000000+00:00</time></trkpt><trkpt lat="39.4610088" lon="-0.37315764"><ele>23.0</ele><time>2022-11-06T14:16:35.0000000+00:00</time></trkpt><trkpt lat="39.46100822" lon="-0.37315445"><ele>23.0</ele><time>2022-11-06T14:16:36.0000000+00:00</time></trkpt><trkpt lat="39.46100696" lon="-0.37315772"><ele>23.0</ele><time>2022-11-06T14:16:37.0000000+00:00</time></trkpt><trkpt lat="39.46099799" lon="-0.37316635"><ele>23.0</ele><time>2022-11-06T14:16:38.0000000+00:00</time></trkpt><trkpt lat="39.46099732" lon="-0.37316107"><ele>23.0</ele><time>2022-11-06T14:16:39.0000000+00:00</time></trkpt><trkpt lat="39.46099883" lon="-0.37316225"><ele>23.0</ele><time>2022-11-06T14:16:40.0000000+00:00</time></trkpt><trkpt lat="39.46099749" lon="-0.37316468"><ele>23.0</ele><time>2022-11-06T14:16:41.0000000+00:00</time></trkpt><trkpt lat="39.46099556" lon="-0.3731666"><ele>23.0</ele><time>2022-11-06T14:16:42.0000000+00:00</time></trkpt><trkpt lat="39.46099313" lon="-0.37316669"><ele>23.0</ele><time>2022-11-06T14:16:43.0000000+00:00</time></trkpt><trkpt lat="39.46099137" lon="-0.37316158"><ele>23.0</ele><time>2022-11-06T14:16:44.0000000+00:00</time></trkpt><trkpt lat="39.46099145" lon="-0.37316074"><ele>23.0</ele><time>2022-11-06T14:16:45.0000000+00:00</time></trkpt><trkpt lat="39.46098877" lon="-0.3731625"><ele>23.0</ele><time>2022-11-06T14:16:46.0000000+00:00</time></trkpt><trkpt lat="39.46098919" lon="-0.37316199"><ele>23.0</ele><time>2022-11-06T14:16:47.0000000+00:00</time></trkpt><trkpt lat="39.46098785" lon="-0.37316199"><ele>23.0</ele><time>2022-11-06T14:16:48.0000000+00:00</time></trkpt><trkpt lat="39.46098701" lon="-0.37316107"><ele>23.0</ele><time>2022-11-06T14:16:49.0000000+00:00</time></trkpt><trkpt lat="39.4609876" lon="-0.37316065"><ele>23.0</ele><time>2022-11-06T14:16:50.0000000+00:00</time></trkpt><trkpt lat="39.46098668" lon="-0.37316132"><ele>23.0</ele><time>2022-11-06T14:16:51.0000000+00:00</time></trkpt><trkpt lat="39.4609855" lon="-0.37316057"><ele>23.0</ele><time>2022-11-06T14:16:52.0000000+00:00</time></trkpt><trkpt lat="39.46098366" lon="-0.37316124"><ele>23.0</ele><time>2022-11-06T14:16:53.0000000+00:00</time></trkpt><trkpt lat="39.46097905" lon="-0.37315898"><ele>23.0</ele><time>2022-11-06T14:16:54.0000000+00:00</time></trkpt><trkpt lat="39.46097201" lon="-0.37316065"><ele>23.0</ele><time>2022-11-06T14:16:55.0000000+00:00</time></trkpt><trkpt lat="39.46096723" lon="-0.37316275"><ele>23.0</ele><time>2022-11-06T14:16:56.0000000+00:00</time></trkpt><trkpt lat="39.46095876" lon="-0.37316334"><ele>23.0</ele><time>2022-11-06T14:16:57.0000000+00:00</time></trkpt><trkpt lat="39.46095466" lon="-0.37316568"><ele>23.0</ele><time>2022-11-06T14:16:58.0000000+00:00</time></trkpt><trkpt lat="39.46096052" lon="-0.37315914"><ele>23.0</ele><time>2022-11-06T14:16:59.0000000+00:00</time></trkpt><trkpt lat="39.4609627" lon="-0.37315873"><ele>23.0</ele><time>2022-11-06T14:17:00.0000000+00:00</time></trkpt><trkpt lat="39.46097796" lon="-0.37315554"><ele>23.0</ele><time>2022-11-06T14:17:01.0000000+00:00</time></trkpt><trkpt lat="39.46098592" lon="-0.37315847"><ele>23.0</ele><time>2022-11-06T14:17:02.0000000+00:00</time></trkpt><trkpt lat="39.46098307" lon="-0.3731656"><ele>23.0</ele><time>2022-11-06T14:17:03.0000000+00:00</time></trkpt><trkpt lat="39.46098223" lon="-0.37317121"><ele>23.0</ele><time>2022-11-06T14:17:04.0000000+00:00</time></trkpt><trkpt lat="39.46097192" lon="-0.37317809"><ele>23.0</ele><time>2022-11-06T14:17:05.0000000+00:00</time></trkpt><trkpt lat="39.46096363" lon="-0.37316526"><ele>23.0</ele><time>2022-11-06T14:17:06.0000000+00:00</time></trkpt><trkpt lat="39.46096388" lon="-0.3731594"><ele>23.0</ele><time>2022-11-06T14:17:07.0000000+00:00</time></trkpt><trkpt lat="39.46096572" lon="-0.37315688"><ele>23.0</ele><time>2022-11-06T14:17:08.0000000+00:00</time></trkpt><trkpt lat="39.46096857" lon="-0.37315554"><ele>23.0</ele><time>2022-11-06T14:17:09.0000000+00:00</time></trkpt><trkpt lat="39.46096807" lon="-0.37315638"><ele>23.0</ele><time>2022-11-06T14:17:10.0000000+00:00</time></trkpt><trkpt lat="39.46096907" lon="-0.37315629"><ele>23.0</ele><time>2022-11-06T14:17:11.0000000+00:00</time></trkpt><trkpt lat="39.46096321" lon="-0.37315286"><ele>23.0</ele><time>2022-11-06T14:17:12.0000000+00:00</time></trkpt><trkpt lat="39.4609643" lon="-0.37315001"><ele>23.0</ele><time>2022-11-06T14:17:13.0000000+00:00</time></trkpt><trkpt lat="39.46096572" lon="-0.37314598"><ele>23.0</ele><time>2022-11-06T14:17:14.0000000+00:00</time></trkpt><trkpt lat="39.4609684" lon="-0.37314406"><ele>23.0</ele><time>2022-11-06T14:17:15.0000000+00:00</time></trkpt><trkpt lat="39.46097327" lon="-0.37313987"><ele>23.0</ele><time>2022-11-06T14:17:16.0000000+00:00</time></trkpt><trkpt lat="39.46096866" lon="-0.37313274"><ele>23.0</ele><time>2022-11-06T14:17:17.0000000+00:00</time></trkpt><trkpt lat="39.46096153" lon="-0.37312335"><ele>23.0</ele><time>2022-11-06T14:17:18.0000000+00:00</time></trkpt><trkpt lat="39.46095248" lon="-0.37312151"><ele>23.0</ele><time>2022-11-06T14:17:19.0000000+00:00</time></trkpt><trkpt lat="39.46094359" lon="-0.37312528"><ele>23.0</ele><time>2022-11-06T14:17:20.0000000+00:00</time></trkpt><trkpt lat="39.46093387" lon="-0.3731314"><ele>23.0</ele><time>2022-11-06T14:17:21.0000000+00:00</time></trkpt><trkpt lat="39.46092406" lon="-0.37313777"><ele>23.0</ele><time>2022-11-06T14:17:22.0000000+00:00</time></trkpt><trkpt lat="39.460913" lon="-0.37315068"><ele>23.0</ele><time>2022-11-06T14:17:23.0000000+00:00</time></trkpt><trkpt lat="39.46090101" lon="-0.37316057"><ele>23.0</ele><time>2022-11-06T14:17:24.0000000+00:00</time></trkpt><trkpt lat="39.46089431" lon="-0.37316644"><ele>23.0</ele><time>2022-11-06T14:17:25.0000000+00:00</time></trkpt><trkpt lat="39.46088811" lon="-0.3731713"><ele>23.0</ele><time>2022-11-06T14:17:26.0000000+00:00</time></trkpt><trkpt lat="39.46088425" lon="-0.37316945"><ele>23.0</ele><time>2022-11-06T14:17:27.0000000+00:00</time></trkpt><trkpt lat="39.46088106" lon="-0.37316803"><ele>23.0</ele><time>2022-11-06T14:17:28.0000000+00:00</time></trkpt><trkpt lat="39.46091442" lon="-0.37316736"><ele>23.0</ele><time>2022-11-06T14:17:29.0000000+00:00</time></trkpt><trkpt lat="39.46091342" lon="-0.3731692"><ele>23.0</ele><time>2022-11-06T14:17:30.0000000+00:00</time></trkpt><trkpt lat="39.46091384" lon="-0.37316216"><ele>23.0</ele><time>2022-11-06T14:17:31.0000000+00:00</time></trkpt><trkpt lat="39.46088752" lon="-0.37317566"><ele>23.0</ele><time>2022-11-06T14:17:32.0000000+00:00</time></trkpt><trkpt lat="39.46089749" lon="-0.37317708"><ele>23.0</ele><time>2022-11-06T14:17:33.0000000+00:00</time></trkpt><trkpt lat="39.46089892" lon="-0.37317356"><ele>23.0</ele><time>2022-11-06T14:17:34.0000000+00:00</time></trkpt><trkpt lat="39.46089816" lon="-0.37315428"><ele>23.0</ele><time>2022-11-06T14:17:35.0000000+00:00</time></trkpt><trkpt lat="39.46089808" lon="-0.37315043"><ele>23.0</ele><time>2022-11-06T14:17:36.0000000+00:00</time></trkpt><trkpt lat="39.46090638" lon="-0.37313576"><ele>23.0</ele><time>2022-11-06T14:17:37.0000000+00:00</time></trkpt><trkpt lat="39.46090655" lon="-0.37313878"><ele>23.0</ele><time>2022-11-06T14:17:38.0000000+00:00</time></trkpt><trkpt lat="39.46090713" lon="-0.37314246"><ele>23.0</ele><time>2022-11-06T14:17:39.0000000+00:00</time></trkpt><trkpt lat="39.46090604" lon="-0.37314339"><ele>23.0</ele><time>2022-11-06T14:17:40.0000000+00:00</time></trkpt><trkpt lat="39.46090554" lon="-0.37312956"><ele>23.0</ele><time>2022-11-06T14:17:41.0000000+00:00</time></trkpt><trkpt lat="39.46090126" lon="-0.37311866"><ele>23.0</ele><time>2022-11-06T14:17:42.0000000+00:00</time></trkpt><trkpt lat="39.4608995" lon="-0.3731148"><ele>23.0</ele><time>2022-11-06T14:17:43.0000000+00:00</time></trkpt><trkpt lat="39.4609052" lon="-0.37310751"><ele>23.0</ele><time>2022-11-06T14:17:44.0000000+00:00</time></trkpt><trkpt lat="39.46091183" lon="-0.37309318"><ele>23.0</ele><time>2022-11-06T14:17:45.0000000+00:00</time></trkpt><trkpt lat="39.46091493" lon="-0.37308672"><ele>23.0</ele><time>2022-11-06T14:17:46.0000000+00:00</time></trkpt><trkpt lat="39.46092054" lon="-0.37307918"><ele>23.0</ele><time>2022-11-06T14:17:47.0000000+00:00</time></trkpt><trkpt lat="39.46091945" lon="-0.37307784"><ele>23.0</ele><time>2022-11-06T14:17:48.0000000+00:00</time></trkpt><trkpt lat="39.4609192" lon="-0.37307516"><ele>23.0</ele><time>2022-11-06T14:17:49.0000000+00:00</time></trkpt><trkpt lat="39.46092012" lon="-0.37307432"><ele>23.0</ele><time>2022-11-06T14:17:50.0000000+00:00</time></trkpt><trkpt lat="39.46092825" lon="-0.37305764"><ele>23.0</ele><time>2022-11-06T14:17:51.0000000+00:00</time></trkpt><trkpt lat="39.46092851" lon="-0.37304138"><ele>23.0</ele><time>2022-11-06T14:17:52.0000000+00:00</time></trkpt><trkpt lat="39.46093588" lon="-0.37303618"><ele>23.0</ele><time>2022-11-06T14:17:53.0000000+00:00</time></trkpt><trkpt lat="39.46094242" lon="-0.37302948"><ele>23.0</ele><time>2022-11-06T14:17:54.0000000+00:00</time></trkpt><trkpt lat="39.46095198" lon="-0.37301238"><ele>23.0</ele><time>2022-11-06T14:17:55.0000000+00:00</time></trkpt><trkpt lat="39.46095994" lon="-0.37300366"><ele>23.0</ele><time>2022-11-06T14:17:56.0000000+00:00</time></trkpt><trkpt lat="39.46096052" lon="-0.37299947"><ele>23.0</ele><time>2022-11-06T14:17:57.0000000+00:00</time></trkpt><trkpt lat="39.460971" lon="-0.37300089"><ele>23.0</ele><time>2022-11-06T14:17:58.0000000+00:00</time></trkpt><trkpt lat="39.4609814" lon="-0.37299947"><ele>23.0</ele><time>2022-11-06T14:17:59.0000000+00:00</time></trkpt><trkpt lat="39.46098718" lon="-0.37300056"><ele>23.0</ele><time>2022-11-06T14:18:00.0000000+00:00</time></trkpt><trkpt lat="39.46099841" lon="-0.37299939"><ele>23.0</ele><time>2022-11-06T14:18:01.0000000+00:00</time></trkpt><trkpt lat="39.46100445" lon="-0.37300441"><ele>23.0</ele><time>2022-11-06T14:18:02.0000000+00:00</time></trkpt><trkpt lat="39.46100956" lon="-0.37300592"><ele>23.0</ele><time>2022-11-06T14:18:03.0000000+00:00</time></trkpt><trkpt lat="39.46101358" lon="-0.37300735"><ele>23.0</ele><time>2022-11-06T14:18:04.0000000+00:00</time></trkpt><trkpt lat="39.461" lon="-0.37300777"><ele>23.0</ele><time>2022-11-06T14:18:05.0000000+00:00</time></trkpt><trkpt lat="39.46099489" lon="-0.37300659"><ele>23.0</ele><time>2022-11-06T14:18:06.0000000+00:00</time></trkpt><trkpt lat="39.46099849" lon="-0.37300098"><ele>23.0</ele><time>2022-11-06T14:18:07.0000000+00:00</time></trkpt><trkpt lat="39.46100218" lon="-0.37300458"><ele>23.0</ele><time>2022-11-06T14:18:08.0000000+00:00</time></trkpt><trkpt lat="39.46100637" lon="-0.37300148"><ele>23.0</ele><time>2022-11-06T14:18:09.0000000+00:00</time></trkpt><trkpt lat="39.4609912" lon="-0.37300827"><ele>23.0</ele><time>2022-11-06T14:18:10.0000000+00:00</time></trkpt><trkpt lat="39.46099187" lon="-0.3730071"><ele>23.0</ele><time>2022-11-06T14:18:11.0000000+00:00</time></trkpt><trkpt lat="39.46098927" lon="-0.37300919"><ele>23.0</ele><time>2022-11-06T14:18:12.0000000+00:00</time></trkpt><trkpt lat="39.46098542" lon="-0.37300643"><ele>23.0</ele><time>2022-11-06T14:18:13.0000000+00:00</time></trkpt><trkpt lat="39.46098324" lon="-0.37299704"><ele>23.0</ele><time>2022-11-06T14:18:14.0000000+00:00</time></trkpt><trkpt lat="39.46098366" lon="-0.37299494"><ele>23.0</ele><time>2022-11-06T14:18:15.0000000+00:00</time></trkpt><trkpt lat="39.46098466" lon="-0.3729936"><ele>23.0</ele><time>2022-11-06T14:18:16.0000000+00:00</time></trkpt><trkpt lat="39.4609845" lon="-0.37299285"><ele>23.0</ele><time>2022-11-06T14:18:17.0000000+00:00</time></trkpt><trkpt lat="39.4609772" lon="-0.37300861"><ele>23.0</ele><time>2022-11-06T14:18:18.0000000+00:00</time></trkpt><trkpt lat="39.46097226" lon="-0.37300726"><ele>23.0</ele><time>2022-11-06T14:18:19.0000000+00:00</time></trkpt><trkpt lat="39.46097067" lon="-0.3730128"><ele>23.0</ele><time>2022-11-06T14:18:20.0000000+00:00</time></trkpt><trkpt lat="39.46097083" lon="-0.37301824"><ele>23.0</ele><time>2022-11-06T14:18:21.0000000+00:00</time></trkpt><trkpt lat="39.46096916" lon="-0.37302135"><ele>23.0</ele><time>2022-11-06T14:18:22.0000000+00:00</time></trkpt><trkpt lat="39.46096773" lon="-0.37302428"><ele>23.0</ele><time>2022-11-06T14:18:23.0000000+00:00</time></trkpt><trkpt lat="39.46096857" lon="-0.37302084"><ele>23.0</ele><time>2022-11-06T14:18:24.0000000+00:00</time></trkpt><trkpt lat="39.46096849" lon="-0.37302034"><ele>23.0</ele><time>2022-11-06T14:18:25.0000000+00:00</time></trkpt><trkpt lat="39.46095013" lon="-0.37301791"><ele>23.0</ele><time>2022-11-06T14:18:26.0000000+00:00</time></trkpt><trkpt lat="39.46094586" lon="-0.37301875"><ele>23.0</ele><time>2022-11-06T14:18:27.0000000+00:00</time></trkpt><trkpt lat="39.46094141" lon="-0.37302009"><ele>23.0</ele><time>2022-11-06T14:18:28.0000000+00:00</time></trkpt><trkpt lat="39.46093706" lon="-0.37302797"><ele>23.0</ele><time>2022-11-06T14:18:29.0000000+00:00</time></trkpt><trkpt lat="39.46093706" lon="-0.37302948"><ele>23.0</ele><time>2022-11-06T14:18:30.0000000+00:00</time></trkpt><trkpt lat="39.46093747" lon="-0.37303099"><ele>23.0</ele><time>2022-11-06T14:18:31.0000000+00:00</time></trkpt><trkpt lat="39.46094091" lon="-0.3730107"><ele>23.0</ele><time>2022-11-06T14:18:32.0000000+00:00</time></trkpt><trkpt lat="39.46094292" lon="-0.37299084"><ele>23.0</ele><time>2022-11-06T14:18:33.0000000+00:00</time></trkpt><trkpt lat="39.46094234" lon="-0.37298396"><ele>23.0</ele><time>2022-11-06T14:18:34.0000000+00:00</time></trkpt><trkpt lat="39.46094317" lon="-0.37298203"><ele>23.0</ele><time>2022-11-06T14:18:35.0000000+00:00</time></trkpt><trkpt lat="39.46094368" lon="-0.37298899"><ele>23.0</ele><time>2022-11-06T14:18:36.0000000+00:00</time></trkpt><trkpt lat="39.46094845" lon="-0.37298849"><ele>23.0</ele><time>2022-11-06T14:18:37.0000000+00:00</time></trkpt><trkpt lat="39.46095835" lon="-0.37296318"><ele>23.0</ele><time>2022-11-06T14:18:38.0000000+00:00</time></trkpt><trkpt lat="39.46096522" lon="-0.37294993"><ele>23.0</ele><time>2022-11-06T14:18:39.0000000+00:00</time></trkpt><trkpt lat="39.46096765" lon="-0.37294415"><ele>23.0</ele><time>2022-11-06T14:18:40.0000000+00:00</time></trkpt><trkpt lat="39.46096798" lon="-0.37294013"><ele>23.0</ele><time>2022-11-06T14:18:41.0000000+00:00</time></trkpt><trkpt lat="39.46096698" lon="-0.37293501"><ele>23.0</ele><time>2022-11-06T14:18:42.0000000+00:00</time></trkpt><trkpt lat="39.46096689" lon="-0.37293015"><ele>23.0</ele><time>2022-11-06T14:18:43.0000000+00:00</time></trkpt><trkpt lat="39.46096673" lon="-0.37292537"><ele>23.0</ele><time>2022-11-06T14:18:44.0000000+00:00</time></trkpt><trkpt lat="39.46096463" lon="-0.37292881"><ele>23.0</ele><time>2022-11-06T14:18:45.0000000+00:00</time></trkpt><trkpt lat="39.46096564" lon="-0.37293996"><ele>23.0</ele><time>2022-11-06T14:18:46.0000000+00:00</time></trkpt><trkpt lat="39.46096354" lon="-0.37294465"><ele>23.0</ele><time>2022-11-06T14:18:47.0000000+00:00</time></trkpt><trkpt lat="39.46096438" lon="-0.37295329"><ele>23.0</ele><time>2022-11-06T14:18:48.0000000+00:00</time></trkpt><trkpt lat="39.46096036" lon="-0.37297131"><ele>23.0</ele><time>2022-11-06T14:18:49.0000000+00:00</time></trkpt><trkpt lat="39.46095851" lon="-0.37298103"><ele>23.0</ele><time>2022-11-06T14:18:50.0000000+00:00</time></trkpt><trkpt lat="39.46096254" lon="-0.37297868"><ele>23.0</ele><time>2022-11-06T14:18:51.0000000+00:00</time></trkpt><trkpt lat="39.46096899" lon="-0.37297575"><ele>23.0</ele><time>2022-11-06T14:18:52.0000000+00:00</time></trkpt><trkpt lat="39.46097226" lon="-0.37297659"><ele>23.0</ele><time>2022-11-06T14:18:53.0000000+00:00</time></trkpt><trkpt lat="39.46097318" lon="-0.37297835"><ele>23.0</ele><time>2022-11-06T14:18:54.0000000+00:00</time></trkpt><trkpt lat="39.46097611" lon="-0.37298572"><ele>23.0</ele><time>2022-11-06T14:18:55.0000000+00:00</time></trkpt><trkpt lat="39.46097628" lon="-0.37298421"><ele>23.0</ele><time>2022-11-06T14:18:56.0000000+00:00</time></trkpt><trkpt lat="39.46097947" lon="-0.37298488"><ele>23.0</ele><time>2022-11-06T14:18:57.0000000+00:00</time></trkpt><trkpt lat="39.46097695" lon="-0.37299293"><ele>23.0</ele><time>2022-11-06T14:18:58.0000000+00:00</time></trkpt><trkpt lat="39.4609596" lon="-0.37300198"><ele>23.0</ele><time>2022-11-06T14:18:59.0000000+00:00</time></trkpt><trkpt lat="39.46095491" lon="-0.3730097"><ele>23.0</ele><time>2022-11-06T14:19:00.0000000+00:00</time></trkpt><trkpt lat="39.46095659" lon="-0.37301372"><ele>23.0</ele><time>2022-11-06T14:19:01.0000000+00:00</time></trkpt><trkpt lat="39.46095776" lon="-0.37301883"><ele>23.0</ele><time>2022-11-06T14:19:02.0000000+00:00</time></trkpt><trkpt lat="39.46095734" lon="-0.37302059"><ele>23.0</ele><time>2022-11-06T14:19:03.0000000+00:00</time></trkpt><trkpt lat="39.46095826" lon="-0.37302344"><ele>23.0</ele><time>2022-11-06T14:19:04.0000000+00:00</time></trkpt><trkpt lat="39.46095902" lon="-0.37302378"><ele>23.0</ele><time>2022-11-06T14:19:05.0000000+00:00</time></trkpt><trkpt lat="39.46096011" lon="-0.37301984"><ele>23.0</ele><time>2022-11-06T14:19:06.0000000+00:00</time></trkpt><trkpt lat="39.46096128" lon="-0.3730164"><ele>23.0</ele><time>2022-11-06T14:19:07.0000000+00:00</time></trkpt><trkpt lat="39.46096111" lon="-0.37301783"><ele>23.0</ele><time>2022-11-06T14:19:08.0000000+00:00</time></trkpt><trkpt lat="39.46096312" lon="-0.37301187"><ele>23.0</ele><time>2022-11-06T14:19:09.0000000+00:00</time></trkpt><trkpt lat="39.4609653" lon="-0.37300048"><ele>23.0</ele><time>2022-11-06T14:19:10.0000000+00:00</time></trkpt><trkpt lat="39.4609643" lon="-0.37299637"><ele>23.0</ele><time>2022-11-06T14:19:11.0000000+00:00</time></trkpt><trkpt lat="39.46097544" lon="-0.37300115"><ele>23.0</ele><time>2022-11-06T14:19:12.0000000+00:00</time></trkpt><trkpt lat="39.46096832" lon="-0.37301028"><ele>23.0</ele><time>2022-11-06T14:19:13.0000000+00:00</time></trkpt><trkpt lat="39.46096287" lon="-0.37302336"><ele>23.0</ele><time>2022-11-06T14:19:14.0000000+00:00</time></trkpt><trkpt lat="39.46096446" lon="-0.3730242"><ele>23.0</ele><time>2022-11-06T14:19:15.0000000+00:00</time></trkpt><trkpt lat="39.46094141" lon="-0.37302713"><ele>23.0</ele><time>2022-11-06T14:19:16.0000000+00:00</time></trkpt><trkpt lat="39.4609327" lon="-0.3730273"><ele>23.0</ele><time>2022-11-06T14:19:17.0000000+00:00</time></trkpt><trkpt lat="39.46092264" lon="-0.37303518"><ele>23.0</ele><time>2022-11-06T14:19:18.0000000+00:00</time></trkpt><trkpt lat="39.46091275" lon="-0.37304054"><ele>23.0</ele><time>2022-11-06T14:19:19.0000000+00:00</time></trkpt><trkpt lat="39.4609016" lon="-0.37305169"><ele>23.0</ele><time>2022-11-06T14:19:20.0000000+00:00</time></trkpt><trkpt lat="39.46089858" lon="-0.37305471"><ele>23.0</ele><time>2022-11-06T14:19:21.0000000+00:00</time></trkpt><trkpt lat="39.46089481" lon="-0.37305655"><ele>23.0</ele><time>2022-11-06T14:19:22.0000000+00:00</time></trkpt><trkpt lat="39.46089422" lon="-0.37306066"><ele>23.0</ele><time>2022-11-06T14:19:23.0000000+00:00</time></trkpt><trkpt lat="39.46089573" lon="-0.37305689"><ele>23.0</ele><time>2022-11-06T14:19:24.0000000+00:00</time></trkpt><trkpt lat="39.46090269" lon="-0.3730537"><ele>23.0</ele><time>2022-11-06T14:19:25.0000000+00:00</time></trkpt><trkpt lat="39.46089959" lon="-0.37305563"><ele>23.0</ele><time>2022-11-06T14:19:26.0000000+00:00</time></trkpt><trkpt lat="39.46091618" lon="-0.37304674"><ele>23.0</ele><time>2022-11-06T14:19:27.0000000+00:00</time></trkpt><trkpt lat="39.46092063" lon="-0.37304456"><ele>23.0</ele><time>2022-11-06T14:19:28.0000000+00:00</time></trkpt><trkpt lat="39.46093027" lon="-0.37304171"><ele>23.0</ele><time>2022-11-06T14:19:29.0000000+00:00</time></trkpt><trkpt lat="39.46093295" lon="-0.37304146"><ele>23.0</ele><time>2022-11-06T14:19:30.0000000+00:00</time></trkpt><trkpt lat="39.4609441" lon="-0.37303828"><ele>23.0</ele><time>2022-11-06T14:19:31.0000000+00:00</time></trkpt><trkpt lat="39.46094234" lon="-0.37303769"><ele>23.0</ele><time>2022-11-06T14:19:32.0000000+00:00</time></trkpt><trkpt lat="39.46096136" lon="-0.3730257"><ele>23.0</ele><time>2022-11-06T14:19:33.0000000+00:00</time></trkpt><trkpt lat="39.46096312" lon="-0.37302529"><ele>23.0</ele><time>2022-11-06T14:19:34.0000000+00:00</time></trkpt><trkpt lat="39.46096228" lon="-0.37302545"><ele>23.0</ele><time>2022-11-06T14:19:35.0000000+00:00</time></trkpt><trkpt lat="39.46096228" lon="-0.37302545"><ele>23.0</ele><time>2022-11-06T14:19:36.0000000+00:00</time></trkpt><trkpt lat="39.46096228" lon="-0.37302545"><ele>23.0</ele><time>2022-11-06T14:19:37.0000000+00:00</time></trkpt><trkpt lat="39.46096228" lon="-0.37302545"><ele>23.0</ele><time>2022-11-06T14:19:38.0000000+00:00</time></trkpt><trkpt lat="39.46096228" lon="-0.37302545"><ele>23.0</ele><time>2022-11-06T14:19:39.0000000+00:00</time></trkpt><trkpt lat="39.46096228" lon="-0.37302545"><ele>23.0</ele><time>2022-11-06T14:19:40.0000000+00:00</time></trkpt><trkpt lat="39.46096228" lon="-0.37302545"><ele>23.0</ele><time>2022-11-06T14:19:41.0000000+00:00</time></trkpt><trkpt lat="39.46096228" lon="-0.37302545"><ele>23.0</ele><time>2022-11-06T14:19:42.0000000+00:00</time></trkpt><trkpt lat="39.46096228" lon="-0.37302545"><ele>23.0</ele><time>2022-11-06T14:19:43.0000000+00:00</time></trkpt><trkpt lat="39.46096145" lon="-0.37302562"><ele>23.0</ele><time>2022-11-06T14:19:44.0000000+00:00</time></trkpt><trkpt lat="39.46095843" lon="-0.37302956"><ele>23.0</ele><time>2022-11-06T14:19:45.0000000+00:00</time></trkpt><trkpt lat="39.46095482" lon="-0.37303199"><ele>23.0</ele><time>2022-11-06T14:19:46.0000000+00:00</time></trkpt><trkpt lat="39.46094519" lon="-0.37303568"><ele>23.0</ele><time>2022-11-06T14:19:47.0000000+00:00</time></trkpt><trkpt lat="39.46094418" lon="-0.37303585"><ele>23.0</ele><time>2022-11-06T14:19:48.0000000+00:00</time></trkpt><trkpt lat="39.4609441" lon="-0.37303761"><ele>23.0</ele><time>2022-11-06T14:19:49.0000000+00:00</time></trkpt><trkpt lat="39.4609441" lon="-0.37303786"><ele>23.0</ele><time>2022-11-06T14:19:50.0000000+00:00</time></trkpt><trkpt lat="39.4609441" lon="-0.37303819"><ele>23.0</ele><time>2022-11-06T14:19:51.0000000+00:00</time></trkpt><trkpt lat="39.4609441" lon="-0.37303845"><ele>23.0</ele><time>2022-11-06T14:19:52.0000000+00:00</time></trkpt><trkpt lat="39.4609441" lon="-0.37303895"><ele>23.0</ele><time>2022-11-06T14:19:53.0000000+00:00</time></trkpt><trkpt lat="39.4609441" lon="-0.37303987"><ele>23.0</ele><time>2022-11-06T14:19:54.0000000+00:00</time></trkpt><trkpt lat="39.46094628" lon="-0.37304096"><ele>23.0</ele><time>2022-11-06T14:19:55.0000000+00:00</time></trkpt><trkpt lat="39.46093798" lon="-0.37304389"><ele>23.0</ele><time>2022-11-06T14:19:56.0000000+00:00</time></trkpt><trkpt lat="39.4609353" lon="-0.37304473"><ele>23.0</ele><time>2022-11-06T14:19:57.0000000+00:00</time></trkpt><trkpt lat="39.46093831" lon="-0.37304532"><ele>23.0</ele><time>2022-11-06T14:19:58.0000000+00:00</time></trkpt><trkpt lat="39.46093831" lon="-0.37304532"><ele>23.0</ele><time>2022-11-06T14:19:59.0000000+00:00</time></trkpt><trkpt lat="39.46093773" lon="-0.37304624"><ele>23.0</ele><time>2022-11-06T14:20:00.0000000+00:00</time></trkpt><trkpt lat="39.46091862" lon="-0.37304691"><ele>23.0</ele><time>2022-11-06T14:20:01.0000000+00:00</time></trkpt><trkpt lat="39.46092239" lon="-0.37304733"><ele>23.0</ele><time>2022-11-06T14:20:02.0000000+00:00</time></trkpt><trkpt lat="39.46092758" lon="-0.37305177"><ele>23.0</ele><time>2022-11-06T14:20:03.0000000+00:00</time></trkpt><trkpt lat="39.46093102" lon="-0.37305228"><ele>23.0</ele><time>2022-11-06T14:20:04.0000000+00:00</time></trkpt><trkpt lat="39.46092968" lon="-0.37305311"><ele>23.0</ele><time>2022-11-06T14:20:05.0000000+00:00</time></trkpt><trkpt lat="39.46093613" lon="-0.37305496"><ele>23.0</ele><time>2022-11-06T14:20:06.0000000+00:00</time></trkpt><trkpt lat="39.4609363" lon="-0.37305764"><ele>23.0</ele><time>2022-11-06T14:20:07.0000000+00:00</time></trkpt><trkpt lat="39.46093571" lon="-0.37306854"><ele>23.0</ele><time>2022-11-06T14:20:08.0000000+00:00</time></trkpt><trkpt lat="39.46093756" lon="-0.37307021"><ele>23.0</ele><time>2022-11-06T14:20:09.0000000+00:00</time></trkpt><trkpt lat="39.46092775" lon="-0.37307859"><ele>23.0</ele><time>2022-11-06T14:20:10.0000000+00:00</time></trkpt><trkpt lat="39.46091987" lon="-0.37308119"><ele>23.0</ele><time>2022-11-06T14:20:11.0000000+00:00</time></trkpt><trkpt lat="39.46091836" lon="-0.37308195"><ele>23.0</ele><time>2022-11-06T14:20:12.0000000+00:00</time></trkpt><trkpt lat="39.4609156" lon="-0.37308144"><ele>23.0</ele><time>2022-11-06T14:20:13.0000000+00:00</time></trkpt><trkpt lat="39.46091644" lon="-0.37308077"><ele>23.0</ele><time>2022-11-06T14:20:14.0000000+00:00</time></trkpt><trkpt lat="39.46091644" lon="-0.37308077"><ele>23.0</ele><time>2022-11-06T14:20:15.0000000+00:00</time></trkpt><trkpt lat="39.46091644" lon="-0.37308077"><ele>23.0</ele><time>2022-11-06T14:20:16.0000000+00:00</time></trkpt><trkpt lat="39.46091644" lon="-0.37308077"><ele>23.0</ele><time>2022-11-06T14:20:17.0000000+00:00</time></trkpt><trkpt lat="39.46091644" lon="-0.37308077"><ele>23.0</ele><time>2022-11-06T14:20:18.0000000+00:00</time></trkpt><trkpt lat="39.46091644" lon="-0.37308077"><ele>23.0</ele><time>2022-11-06T14:20:19.0000000+00:00</time></trkpt><trkpt lat="39.46091644" lon="-0.37308077"><ele>23.0</ele><time>2022-11-06T14:20:20.0000000+00:00</time></trkpt><trkpt lat="39.46091644" lon="-0.37308077"><ele>23.0</ele><time>2022-11-06T14:20:21.0000000+00:00</time></trkpt><trkpt lat="39.46092146" lon="-0.37308245"><ele>23.0</ele><time>2022-11-06T14:20:22.0000000+00:00</time></trkpt><trkpt lat="39.46093856" lon="-0.3730832"><ele>23.0</ele><time>2022-11-06T14:20:23.0000000+00:00</time></trkpt><trkpt lat="39.46094602" lon="-0.3730915"><ele>23.0</ele><time>2022-11-06T14:20:24.0000000+00:00</time></trkpt><trkpt lat="39.46096203" lon="-0.37309251"><ele>23.0</ele><time>2022-11-06T14:20:25.0000000+00:00</time></trkpt><trkpt lat="39.46097025" lon="-0.37309066"><ele>23.0</ele><time>2022-11-06T14:20:26.0000000+00:00</time></trkpt><trkpt lat="39.46097645" lon="-0.37309226"><ele>23.0</ele><time>2022-11-06T14:20:27.0000000+00:00</time></trkpt><trkpt lat="39.46098106" lon="-0.37309108"><ele>23.0</ele><time>2022-11-06T14:20:28.0000000+00:00</time></trkpt><trkpt lat="39.46098894" lon="-0.37309041"><ele>23.0</ele><time>2022-11-06T14:20:29.0000000+00:00</time></trkpt><trkpt lat="39.46099564" lon="-0.37309033"><ele>23.0</ele><time>2022-11-06T14:20:30.0000000+00:00</time></trkpt><trkpt lat="39.46100126" lon="-0.37309192"><ele>23.0</ele><time>2022-11-06T14:20:31.0000000+00:00</time></trkpt><trkpt lat="39.46100025" lon="-0.37309519"><ele>23.0</ele><time>2022-11-06T14:20:32.0000000+00:00</time></trkpt><trkpt lat="39.46100093" lon="-0.3730967"><ele>23.0</ele><time>2022-11-06T14:20:33.0000000+00:00</time></trkpt><trkpt lat="39.46099942" lon="-0.37309142"><ele>23.0</ele><time>2022-11-06T14:20:34.0000000+00:00</time></trkpt><trkpt lat="39.46099615" lon="-0.3730884"><ele>23.0</ele><time>2022-11-06T14:20:35.0000000+00:00</time></trkpt><trkpt lat="39.46099271" lon="-0.37308262"><ele>23.0</ele><time>2022-11-06T14:20:36.0000000+00:00</time></trkpt><trkpt lat="39.46099137" lon="-0.37308396"><ele>23.0</ele><time>2022-11-06T14:20:37.0000000+00:00</time></trkpt><trkpt lat="39.4609943" lon="-0.37308312"><ele>23.0</ele><time>2022-11-06T14:20:38.0000000+00:00</time></trkpt><trkpt lat="39.46098768" lon="-0.37308647"><ele>23.0</ele><time>2022-11-06T14:20:39.0000000+00:00</time></trkpt><trkpt lat="39.46098466" lon="-0.37308999"><ele>23.0</ele><time>2022-11-06T14:20:40.0000000+00:00</time></trkpt><trkpt lat="39.46098525" lon="-0.37308991"><ele>23.0</ele><time>2022-11-06T14:20:41.0000000+00:00</time></trkpt><trkpt lat="39.46098835" lon="-0.3730915"><ele>23.0</ele><time>2022-11-06T14:20:42.0000000+00:00</time></trkpt><trkpt lat="39.46098676" lon="-0.37309293"><ele>23.0</ele><time>2022-11-06T14:20:43.0000000+00:00</time></trkpt><trkpt lat="39.46098575" lon="-0.37309175"><ele>23.0</ele><time>2022-11-06T14:20:44.0000000+00:00</time></trkpt><trkpt lat="39.46098961" lon="-0.37307985"><ele>23.0</ele><time>2022-11-06T14:20:45.0000000+00:00</time></trkpt><trkpt lat="39.46099254" lon="-0.37307398"><ele>23.0</ele><time>2022-11-06T14:20:46.0000000+00:00</time></trkpt><trkpt lat="39.4609912" lon="-0.37307164"><ele>23.0</ele><time>2022-11-06T14:20:47.0000000+00:00</time></trkpt><trkpt lat="39.46098357" lon="-0.37307952"><ele>23.0</ele><time>2022-11-06T14:20:48.0000000+00:00</time></trkpt><trkpt lat="39.46097611" lon="-0.37307574"><ele>23.0</ele><time>2022-11-06T14:20:49.0000000+00:00</time></trkpt><trkpt lat="39.46095499" lon="-0.37309041"><ele>23.0</ele><time>2022-11-06T14:20:50.0000000+00:00</time></trkpt><trkpt lat="39.46094401" lon="-0.37309226"><ele>23.0</ele><time>2022-11-06T14:20:51.0000000+00:00</time></trkpt><trkpt lat="39.46092851" lon="-0.37309343"><ele>23.0</ele><time>2022-11-06T14:20:52.0000000+00:00</time></trkpt><trkpt lat="39.46092373" lon="-0.37309947"><ele>23.0</ele><time>2022-11-06T14:20:53.0000000+00:00</time></trkpt><trkpt lat="39.46090487" lon="-0.37310416"><ele>23.0</ele><time>2022-11-06T14:20:54.0000000+00:00</time></trkpt><trkpt lat="39.46089841" lon="-0.37310181"><ele>23.0</ele><time>2022-11-06T14:20:55.0000000+00:00</time></trkpt><trkpt lat="39.46089657" lon="-0.37310533"><ele>23.0</ele><time>2022-11-06T14:20:56.0000000+00:00</time></trkpt><trkpt lat="39.46089942" lon="-0.37311288"><ele>23.0</ele><time>2022-11-06T14:20:57.0000000+00:00</time></trkpt><trkpt lat="39.46090126" lon="-0.37311866"><ele>23.0</ele><time>2022-11-06T14:20:58.0000000+00:00</time></trkpt><trkpt lat="39.46090403" lon="-0.37311941"><ele>23.0</ele><time>2022-11-06T14:20:59.0000000+00:00</time></trkpt><trkpt lat="39.46090814" lon="-0.37311439"><ele>23.0</ele><time>2022-11-06T14:21:00.0000000+00:00</time></trkpt><trkpt lat="39.46091166" lon="-0.37311464"><ele>23.0</ele><time>2022-11-06T14:21:01.0000000+00:00</time></trkpt><trkpt lat="39.46091417" lon="-0.37311237"><ele>23.0</ele><time>2022-11-06T14:21:02.0000000+00:00</time></trkpt><trkpt lat="39.46091602" lon="-0.37311388"><ele>23.0</ele><time>2022-11-06T14:21:03.0000000+00:00</time></trkpt><trkpt lat="39.46091719" lon="-0.37311682"><ele>23.0</ele><time>2022-11-06T14:21:04.0000000+00:00</time></trkpt><trkpt lat="39.46093814" lon="-0.37311715"><ele>23.0</ele><time>2022-11-06T14:21:05.0000000+00:00</time></trkpt><trkpt lat="39.46088794" lon="-0.37313107"><ele>23.0</ele><time>2022-11-06T14:21:06.0000000+00:00</time></trkpt><trkpt lat="39.46089137" lon="-0.37313827"><ele>23.0</ele><time>2022-11-06T14:21:07.0000000+00:00</time></trkpt><trkpt lat="39.46088056" lon="-0.37314682"><ele>23.0</ele><time>2022-11-06T14:21:08.0000000+00:00</time></trkpt><trkpt lat="39.46087411" lon="-0.37314984"><ele>23.0</ele><time>2022-11-06T14:21:09.0000000+00:00</time></trkpt><trkpt lat="39.46089121" lon="-0.37314816"><ele>23.0</ele><time>2022-11-06T14:21:10.0000000+00:00</time></trkpt><trkpt lat="39.46090085" lon="-0.37314674"><ele>23.0</ele><time>2022-11-06T14:21:11.0000000+00:00</time></trkpt><trkpt lat="39.4609099" lon="-0.37314565"><ele>23.0</ele><time>2022-11-06T14:21:12.0000000+00:00</time></trkpt><trkpt lat="39.46090428" lon="-0.37315764"><ele>23.0</ele><time>2022-11-06T14:21:13.0000000+00:00</time></trkpt><trkpt lat="39.46091685" lon="-0.37316216"><ele>23.0</ele><time>2022-11-06T14:21:14.0000000+00:00</time></trkpt><trkpt lat="39.46091241" lon="-0.37316593"><ele>23.0</ele><time>2022-11-06T14:21:15.0000000+00:00</time></trkpt><trkpt lat="39.4609156" lon="-0.37316929"><ele>23.0</ele><time>2022-11-06T14:21:16.0000000+00:00</time></trkpt><trkpt lat="39.46091518" lon="-0.3731749"><ele>23.0</ele><time>2022-11-06T14:21:17.0000000+00:00</time></trkpt><trkpt lat="39.46090898" lon="-0.37318504"><ele>23.0</ele><time>2022-11-06T14:21:18.0000000+00:00</time></trkpt><trkpt lat="39.46090302" lon="-0.37319468"><ele>23.0</ele><time>2022-11-06T14:21:19.0000000+00:00</time></trkpt><trkpt lat="39.46090202" lon="-0.37319636"><ele>23.0</ele><time>2022-11-06T14:21:20.0000000+00:00</time></trkpt><trkpt lat="39.46090001" lon="-0.37319913"><ele>23.0</ele><time>2022-11-06T14:21:21.0000000+00:00</time></trkpt><trkpt lat="39.46088987" lon="-0.37320005"><ele>23.0</ele><time>2022-11-06T14:21:22.0000000+00:00</time></trkpt><trkpt lat="39.46088132" lon="-0.37320659"><ele>23.0</ele><time>2022-11-06T14:21:23.0000000+00:00</time></trkpt><trkpt lat="39.46087897" lon="-0.37320742"><ele>23.0</ele><time>2022-11-06T14:21:24.0000000+00:00</time></trkpt><trkpt lat="39.46087805" lon="-0.37320851"><ele>23.0</ele><time>2022-11-06T14:21:25.0000000+00:00</time></trkpt><trkpt lat="39.46087545" lon="-0.37321069"><ele>23.0</ele><time>2022-11-06T14:21:26.0000000+00:00</time></trkpt><trkpt lat="39.46087411" lon="-0.37321195"><ele>23.0</ele><time>2022-11-06T14:21:27.0000000+00:00</time></trkpt><trkpt lat="39.46087201" lon="-0.3732148"><ele>23.0</ele><time>2022-11-06T14:21:28.0000000+00:00</time></trkpt><trkpt lat="39.46087134" lon="-0.37321731"><ele>23.0</ele><time>2022-11-06T14:21:29.0000000+00:00</time></trkpt><trkpt lat="39.46086992" lon="-0.37322084"><ele>23.0</ele><time>2022-11-06T14:21:30.0000000+00:00</time></trkpt><trkpt lat="39.46086966" lon="-0.37322167"><ele>23.0</ele><time>2022-11-06T14:21:31.0000000+00:00</time></trkpt><trkpt lat="39.46086698" lon="-0.37322436"><ele>23.0</ele><time>2022-11-06T14:21:32.0000000+00:00</time></trkpt><trkpt lat="39.46086438" lon="-0.37322679"><ele>23.0</ele><time>2022-11-06T14:21:33.0000000+00:00</time></trkpt><trkpt lat="39.46086237" lon="-0.37322838"><ele>23.0</ele><time>2022-11-06T14:21:34.0000000+00:00</time></trkpt><trkpt lat="39.46085969" lon="-0.37323073"><ele>23.0</ele><time>2022-11-06T14:21:35.0000000+00:00</time></trkpt><trkpt lat="39.46085692" lon="-0.37323408"><ele>23.0</ele><time>2022-11-06T14:21:36.0000000+00:00</time></trkpt><trkpt lat="39.46085894" lon="-0.37322947"><ele>23.0</ele><time>2022-11-06T14:21:37.0000000+00:00</time></trkpt><trkpt lat="39.46085977" lon="-0.37322863"><ele>23.0</ele><time>2022-11-06T14:21:38.0000000+00:00</time></trkpt><trkpt lat="39.46085977" lon="-0.37322838"><ele>23.0</ele><time>2022-11-06T14:21:39.0000000+00:00</time></trkpt><trkpt lat="39.46085977" lon="-0.37322838"><ele>23.0</ele><time>2022-11-06T14:21:40.0000000+00:00</time></trkpt><trkpt lat="39.46085977" lon="-0.37322838"><ele>23.0</ele><time>2022-11-06T14:21:41.0000000+00:00</time></trkpt><trkpt lat="39.46085977" lon="-0.37322838"><ele>23.0</ele><time>2022-11-06T14:21:42.0000000+00:00</time></trkpt><trkpt lat="39.46085977" lon="-0.37322838"><ele>23.0</ele><time>2022-11-06T14:21:43.0000000+00:00</time></trkpt><trkpt lat="39.46085977" lon="-0.37322838"><ele>23.0</ele><time>2022-11-06T14:21:44.0000000+00:00</time></trkpt><trkpt lat="39.46085977" lon="-0.37322838"><ele>23.0</ele><time>2022-11-06T14:21:45.0000000+00:00</time></trkpt><trkpt lat="39.46085977" lon="-0.37322838"><ele>23.0</ele><time>2022-11-06T14:21:46.0000000+00:00</time></trkpt><trkpt lat="39.46085977" lon="-0.37322838"><ele>23.0</ele><time>2022-11-06T14:21:47.0000000+00:00</time></trkpt><trkpt lat="39.46085977" lon="-0.37322838"><ele>23.0</ele><time>2022-11-06T14:21:48.0000000+00:00</time></trkpt><trkpt lat="39.46085977" lon="-0.37322838"><ele>23.0</ele><time>2022-11-06T14:21:49.0000000+00:00</time></trkpt><trkpt lat="39.46085977" lon="-0.37322838"><ele>23.0</ele><time>2022-11-06T14:21:50.0000000+00:00</time></trkpt><trkpt lat="39.46085977" lon="-0.37322863"><ele>23.0</ele><time>2022-11-06T14:21:51.0000000+00:00</time></trkpt><trkpt lat="39.46085969" lon="-0.37322938"><ele>23.0</ele><time>2022-11-06T14:21:52.0000000+00:00</time></trkpt><trkpt lat="39.46085927" lon="-0.37322964"><ele>23.0</ele><time>2022-11-06T14:21:53.0000000+00:00</time></trkpt><trkpt lat="39.46085894" lon="-0.37323022"><ele>23.0</ele><time>2022-11-06T14:21:54.0000000+00:00</time></trkpt><trkpt lat="39.46085885" lon="-0.37323047"><ele>23.0</ele><time>2022-11-06T14:21:55.0000000+00:00</time></trkpt><trkpt lat="39.46085868" lon="-0.37323047"><ele>23.0</ele><time>2022-11-06T14:21:56.0000000+00:00</time></trkpt><trkpt lat="39.46085818" lon="-0.37323073"><ele>23.0</ele><time>2022-11-06T14:21:57.0000000+00:00</time></trkpt><trkpt lat="39.46085709" lon="-0.37323081"><ele>23.0</ele><time>2022-11-06T14:21:58.0000000+00:00</time></trkpt><trkpt lat="39.46085508" lon="-0.37323173"><ele>23.0</ele><time>2022-11-06T14:21:59.0000000+00:00</time></trkpt><trkpt lat="39.46085475" lon="-0.37323182"><ele>23.0</ele><time>2022-11-06T14:22:00.0000000+00:00</time></trkpt><trkpt lat="39.46085458" lon="-0.37323182"><ele>23.0</ele><time>2022-11-06T14:22:01.0000000+00:00</time></trkpt><trkpt lat="39.46085064" lon="-0.37323182"><ele>23.0</ele><time>2022-11-06T14:22:02.0000000+00:00</time></trkpt><trkpt lat="39.46084997" lon="-0.37323182"><ele>23.0</ele><time>2022-11-06T14:22:03.0000000+00:00</time></trkpt><trkpt lat="39.46084972" lon="-0.37323182"><ele>23.0</ele><time>2022-11-06T14:22:04.0000000+00:00</time></trkpt><trkpt lat="39.46084955" lon="-0.37323182"><ele>23.0</ele><time>2022-11-06T14:22:05.0000000+00:00</time></trkpt><trkpt lat="39.46084837" lon="-0.37323098"><ele>23.0</ele><time>2022-11-06T14:22:06.0000000+00:00</time></trkpt><trkpt lat="39.46084829" lon="-0.37323089"><ele>23.0</ele><time>2022-11-06T14:22:07.0000000+00:00</time></trkpt><trkpt lat="39.46084963" lon="-0.3732267"><ele>23.0</ele><time>2022-11-06T14:22:08.0000000+00:00</time></trkpt><trkpt lat="39.46084938" lon="-0.37322528"><ele>23.0</ele><time>2022-11-06T14:22:09.0000000+00:00</time></trkpt><trkpt lat="39.46085315" lon="-0.37322"><ele>23.0</ele><time>2022-11-06T14:22:10.0000000+00:00</time></trkpt><trkpt lat="39.46085592" lon="-0.37321497"><ele>23.0</ele><time>2022-11-06T14:22:11.0000000+00:00</time></trkpt><trkpt lat="39.46085231" lon="-0.37321136"><ele>23.0</ele><time>2022-11-06T14:22:12.0000000+00:00</time></trkpt><trkpt lat="39.46084636" lon="-0.37321136"><ele>23.0</ele><time>2022-11-06T14:22:13.0000000+00:00</time></trkpt><trkpt lat="39.46084058" lon="-0.37321019"><ele>23.0</ele><time>2022-11-06T14:22:14.0000000+00:00</time></trkpt><trkpt lat="39.46084142" lon="-0.37320047"><ele>23.0</ele><time>2022-11-06T14:22:15.0000000+00:00</time></trkpt><trkpt lat="39.46084393" lon="-0.37318496"><ele>23.0</ele><time>2022-11-06T14:22:16.0000000+00:00</time></trkpt><trkpt lat="39.46084326" lon="-0.37318127"><ele>23.0</ele><time>2022-11-06T14:22:17.0000000+00:00</time></trkpt><trkpt lat="39.46084175" lon="-0.37318178"><ele>23.0</ele><time>2022-11-06T14:22:18.0000000+00:00</time></trkpt><trkpt lat="39.46083848" lon="-0.3731775"><ele>23.0</ele><time>2022-11-06T14:22:19.0000000+00:00</time></trkpt><trkpt lat="39.46084108" lon="-0.37317214"><ele>23.0</ele><time>2022-11-06T14:22:20.0000000+00:00</time></trkpt><trkpt lat="39.46083773" lon="-0.37316761"><ele>23.0</ele><time>2022-11-06T14:22:21.0000000+00:00</time></trkpt><trkpt lat="39.46082725" lon="-0.37316468"><ele>23.0</ele><time>2022-11-06T14:22:22.0000000+00:00</time></trkpt><trkpt lat="39.46082826" lon="-0.37313584"><ele>23.0</ele><time>2022-11-06T14:22:23.0000000+00:00</time></trkpt><trkpt lat="39.46082708" lon="-0.37313601"><ele>23.0</ele><time>2022-11-06T14:22:24.0000000+00:00</time></trkpt><trkpt lat="39.46082625" lon="-0.37313609"><ele>23.0</ele><time>2022-11-06T14:22:25.0000000+00:00</time></trkpt><trkpt lat="39.46082734" lon="-0.37313551"><ele>23.0</ele><time>2022-11-06T14:22:26.0000000+00:00</time></trkpt><trkpt lat="39.46083169" lon="-0.37313107"><ele>23.0</ele><time>2022-11-06T14:22:27.0000000+00:00</time></trkpt><trkpt lat="39.46083647" lon="-0.37312679"><ele>23.0</ele><time>2022-11-06T14:22:28.0000000+00:00</time></trkpt><trkpt lat="39.46084108" lon="-0.37312277"><ele>23.0</ele><time>2022-11-06T14:22:29.0000000+00:00</time></trkpt><trkpt lat="39.46083689" lon="-0.37312754"><ele>23.0</ele><time>2022-11-06T14:22:30.0000000+00:00</time></trkpt><trkpt lat="39.46080932" lon="-0.3731366"><ele>23.0</ele><time>2022-11-06T14:22:31.0000000+00:00</time></trkpt><trkpt lat="39.46078685" lon="-0.37315353"><ele>23.0</ele><time>2022-11-06T14:22:32.0000000+00:00</time></trkpt><trkpt lat="39.46076347" lon="-0.37316736"><ele>23.0</ele><time>2022-11-06T14:22:33.0000000+00:00</time></trkpt><trkpt lat="39.46075525" lon="-0.37316627"><ele>23.0</ele><time>2022-11-06T14:22:34.0000000+00:00</time></trkpt><trkpt lat="39.46074486" lon="-0.37315973"><ele>23.0</ele><time>2022-11-06T14:22:35.0000000+00:00</time></trkpt><trkpt lat="39.4607369" lon="-0.37315386"><ele>23.0</ele><time>2022-11-06T14:22:36.0000000+00:00</time></trkpt><trkpt lat="39.46082063" lon="-0.37308857"><ele>23.0</ele><time>2022-11-06T14:22:37.0000000+00:00</time></trkpt><trkpt lat="39.4608353" lon="-0.37307315"><ele>23.0</ele><time>2022-11-06T14:22:38.0000000+00:00</time></trkpt><trkpt lat="39.46085374" lon="-0.3730568"><ele>23.0</ele><time>2022-11-06T14:22:39.0000000+00:00</time></trkpt><trkpt lat="39.46086019" lon="-0.37304926"><ele>22.4</ele><time>2022-11-06T14:22:40.0000000+00:00</time></trkpt><trkpt lat="39.46086313" lon="-0.37304482"><ele>22.2</ele><time>2022-11-06T14:22:41.0000000+00:00</time></trkpt><trkpt lat="39.46086665" lon="-0.37303937"><ele>22.0</ele><time>2022-11-06T14:22:42.0000000+00:00</time></trkpt><trkpt lat="39.46087151" lon="-0.37303492"><ele>22.0</ele><time>2022-11-06T14:22:43.0000000+00:00</time></trkpt><trkpt lat="39.46088199" lon="-0.37302805"><ele>22.0</ele><time>2022-11-06T14:22:44.0000000+00:00</time></trkpt><trkpt lat="39.46088148" lon="-0.37302847"><ele>21.8</ele><time>2022-11-06T14:22:45.0000000+00:00</time></trkpt><trkpt lat="39.46088903" lon="-0.37302738"><ele>21.8</ele><time>2022-11-06T14:22:46.0000000+00:00</time></trkpt><trkpt lat="39.46089556" lon="-0.37302353"><ele>21.8</ele><time>2022-11-06T14:22:47.0000000+00:00</time></trkpt><trkpt lat="39.46088919" lon="-0.3730169"><ele>21.8</ele><time>2022-11-06T14:22:48.0000000+00:00</time></trkpt><trkpt lat="39.46087897" lon="-0.3730112"><ele>21.8</ele><time>2022-11-06T14:22:49.0000000+00:00</time></trkpt><trkpt lat="39.46088157" lon="-0.37300827"><ele>21.8</ele><time>2022-11-06T14:22:50.0000000+00:00</time></trkpt><trkpt lat="39.46084888" lon="-0.37302973"><ele>21.8</ele><time>2022-11-06T14:22:51.0000000+00:00</time></trkpt><trkpt lat="39.46084678" lon="-0.3730304"><ele>21.8</ele><time>2022-11-06T14:22:52.0000000+00:00</time></trkpt><trkpt lat="39.46084837" lon="-0.37302864"><ele>21.8</ele><time>2022-11-06T14:22:53.0000000+00:00</time></trkpt><trkpt lat="39.46082658" lon="-0.37303375"><ele>21.8</ele><time>2022-11-06T14:22:54.0000000+00:00</time></trkpt><trkpt lat="39.46082423" lon="-0.37303417"><ele>21.8</ele><time>2022-11-06T14:22:55.0000000+00:00</time></trkpt><trkpt lat="39.46078325" lon="-0.37306736"><ele>21.8</ele><time>2022-11-06T14:22:56.0000000+00:00</time></trkpt><trkpt lat="39.46074947" lon="-0.37309812"><ele>21.8</ele><time>2022-11-06T14:22:57.0000000+00:00</time></trkpt><trkpt lat="39.46073874" lon="-0.37311221"><ele>21.8</ele><time>2022-11-06T14:22:58.0000000+00:00</time></trkpt><trkpt lat="39.46074016" lon="-0.37313542"><ele>21.8</ele><time>2022-11-06T14:22:59.0000000+00:00</time></trkpt><trkpt lat="39.46074737" lon="-0.37312729"><ele>21.8</ele><time>2022-11-06T14:23:00.0000000+00:00</time></trkpt><trkpt lat="39.46074737" lon="-0.37312746"><ele>21.6</ele><time>2022-11-06T14:23:01.0000000+00:00</time></trkpt><trkpt lat="39.46074863" lon="-0.37312595"><ele>21.6</ele><time>2022-11-06T14:23:02.0000000+00:00</time></trkpt><trkpt lat="39.46075559" lon="-0.37311858"><ele>21.6</ele><time>2022-11-06T14:23:03.0000000+00:00</time></trkpt><trkpt lat="39.46077009" lon="-0.37310357"><ele>21.6</ele><time>2022-11-06T14:23:04.0000000+00:00</time></trkpt><trkpt lat="39.46077026" lon="-0.3730993"><ele>21.6</ele><time>2022-11-06T14:23:05.0000000+00:00</time></trkpt><trkpt lat="39.46076632" lon="-0.37310089"><ele>21.6</ele><time>2022-11-06T14:23:06.0000000+00:00</time></trkpt><trkpt lat="39.46076439" lon="-0.37310676"><ele>21.6</ele><time>2022-11-06T14:23:07.0000000+00:00</time></trkpt><trkpt lat="39.46078023" lon="-0.37310332"><ele>21.6</ele><time>2022-11-06T14:23:08.0000000+00:00</time></trkpt><trkpt lat="39.46079557" lon="-0.37308932"><ele>21.6</ele><time>2022-11-06T14:23:09.0000000+00:00</time></trkpt><trkpt lat="39.46079984" lon="-0.37308614"><ele>21.6</ele><time>2022-11-06T14:23:10.0000000+00:00</time></trkpt><trkpt lat="39.46079984" lon="-0.37308622"><ele>21.8</ele><time>2022-11-06T14:23:11.0000000+00:00</time></trkpt><trkpt lat="39.4607975" lon="-0.37308781"><ele>21.8</ele><time>2022-11-06T14:23:12.0000000+00:00</time></trkpt><trkpt lat="39.46079498" lon="-0.37308974"><ele>21.8</ele><time>2022-11-06T14:23:13.0000000+00:00</time></trkpt><trkpt lat="39.46080169" lon="-0.37307784"><ele>21.8</ele><time>2022-11-06T14:23:14.0000000+00:00</time></trkpt><trkpt lat="39.46080638" lon="-0.3730739"><ele>21.8</ele><time>2022-11-06T14:23:15.0000000+00:00</time></trkpt><trkpt lat="39.4608068" lon="-0.37307357"><ele>21.8</ele><time>2022-11-06T14:23:16.0000000+00:00</time></trkpt><trkpt lat="39.46079959" lon="-0.37308413"><ele>21.8</ele><time>2022-11-06T14:23:17.0000000+00:00</time></trkpt><trkpt lat="39.46079146" lon="-0.37309569"><ele>21.8</ele><time>2022-11-06T14:23:18.0000000+00:00</time></trkpt><trkpt lat="39.46078769" lon="-0.37310324"><ele>21.8</ele><time>2022-11-06T14:23:19.0000000+00:00</time></trkpt><trkpt lat="39.46078325" lon="-0.37310936"><ele>21.8</ele><time>2022-11-06T14:23:20.0000000+00:00</time></trkpt><trkpt lat="39.46078325" lon="-0.37310936"><ele>21.8</ele><time>2022-11-06T14:23:21.0000000+00:00</time></trkpt><trkpt lat="39.46078199" lon="-0.37311036"><ele>21.8</ele><time>2022-11-06T14:23:22.0000000+00:00</time></trkpt><trkpt lat="39.46077646" lon="-0.37311447"><ele>21.8</ele><time>2022-11-06T14:23:23.0000000+00:00</time></trkpt><trkpt lat="39.46077227" lon="-0.37311799"><ele>21.8</ele><time>2022-11-06T14:23:24.0000000+00:00</time></trkpt><trkpt lat="39.46076162" lon="-0.37311992"><ele>21.8</ele><time>2022-11-06T14:23:25.0000000+00:00</time></trkpt><trkpt lat="39.46076682" lon="-0.37311019"><ele>21.8</ele><time>2022-11-06T14:23:26.0000000+00:00</time></trkpt><trkpt lat="39.46077822" lon="-0.37309972"><ele>21.8</ele><time>2022-11-06T14:23:27.0000000+00:00</time></trkpt><trkpt lat="39.46077889" lon="-0.37309913"><ele>21.8</ele><time>2022-11-06T14:23:28.0000000+00:00</time></trkpt><trkpt lat="39.46077713" lon="-0.37310181"><ele>21.8</ele><time>2022-11-06T14:23:29.0000000+00:00</time></trkpt><trkpt lat="39.46077445" lon="-0.37310433"><ele>21.8</ele><time>2022-11-06T14:23:30.0000000+00:00</time></trkpt><trkpt lat="39.46077679" lon="-0.37310382"><ele>21.8</ele><time>2022-11-06T14:23:31.0000000+00:00</time></trkpt><trkpt lat="39.46077864" lon="-0.37310248"><ele>21.8</ele><time>2022-11-06T14:23:32.0000000+00:00</time></trkpt><trkpt lat="39.4607788" lon="-0.37310265"><ele>21.8</ele><time>2022-11-06T14:23:33.0000000+00:00</time></trkpt><trkpt lat="39.46077964" lon="-0.37310114"><ele>21.8</ele><time>2022-11-06T14:23:34.0000000+00:00</time></trkpt><trkpt lat="39.46076933" lon="-0.37310734"><ele>22.0</ele><time>2022-11-06T14:23:35.0000000+00:00</time></trkpt><trkpt lat="39.46076187" lon="-0.3731138"><ele>22.0</ele><time>2022-11-06T14:23:36.0000000+00:00</time></trkpt><trkpt lat="39.46075869" lon="-0.37311715"><ele>22.0</ele><time>2022-11-06T14:23:37.0000000+00:00</time></trkpt><trkpt lat="39.46075726" lon="-0.37311816"><ele>22.0</ele><time>2022-11-06T14:23:38.0000000+00:00</time></trkpt><trkpt lat="39.4607571" lon="-0.37311774"><ele>22.0</ele><time>2022-11-06T14:23:39.0000000+00:00</time></trkpt><trkpt lat="39.4607571" lon="-0.37311774"><ele>22.0</ele><time>2022-11-06T14:23:40.0000000+00:00</time></trkpt><trkpt lat="39.4607571" lon="-0.37311774"><ele>22.0</ele><time>2022-11-06T14:23:41.0000000+00:00</time></trkpt><trkpt lat="39.4607571" lon="-0.37311774"><ele>22.0</ele><time>2022-11-06T14:23:42.0000000+00:00</time></trkpt><trkpt lat="39.4607571" lon="-0.37311774"><ele>22.0</ele><time>2022-11-06T14:23:43.0000000+00:00</time></trkpt><trkpt lat="39.4607571" lon="-0.37311774"><ele>22.0</ele><time>2022-11-06T14:23:44.0000000+00:00</time></trkpt><trkpt lat="39.4607571" lon="-0.37311774"><ele>22.2</ele><time>2022-11-06T14:23:45.0000000+00:00</time></trkpt><trkpt lat="39.4607571" lon="-0.37311774"><ele>22.2</ele><time>2022-11-06T14:23:46.0000000+00:00</time></trkpt><trkpt lat="39.4607571" lon="-0.37311774"><ele>22.2</ele><time>2022-11-06T14:23:47.0000000+00:00</time></trkpt><trkpt lat="39.4607571" lon="-0.37311774"><ele>22.2</ele><time>2022-11-06T14:23:48.0000000+00:00</time></trkpt><trkpt lat="39.4607571" lon="-0.37311774"><ele>22.2</ele><time>2022-11-06T14:23:49.0000000+00:00</time></trkpt><trkpt lat="39.4607571" lon="-0.37311774"><ele>22.2</ele><time>2022-11-06T14:23:50.0000000+00:00</time></trkpt><trkpt lat="39.4607571" lon="-0.37311774"><ele>22.2</ele><time>2022-11-06T14:23:51.0000000+00:00</time></trkpt><trkpt lat="39.4607571" lon="-0.37311774"><ele>22.2</ele><time>2022-11-06T14:23:52.0000000+00:00</time></trkpt><trkpt lat="39.4607571" lon="-0.37311774"><ele>22.2</ele><time>2022-11-06T14:23:53.0000000+00:00</time></trkpt><trkpt lat="39.4607571" lon="-0.37311774"><ele>22.2</ele><time>2022-11-06T14:23:54.0000000+00:00</time></trkpt><trkpt lat="39.4607571" lon="-0.37311774"><ele>22.2</ele><time>2022-11-06T14:23:55.0000000+00:00</time></trkpt><trkpt lat="39.4607571" lon="-0.37311774"><ele>22.2</ele><time>2022-11-06T14:23:56.0000000+00:00</time></trkpt><trkpt lat="39.4607571" lon="-0.37311816"><ele>22.2</ele><time>2022-11-06T14:23:57.0000000+00:00</time></trkpt><trkpt lat="39.46075617" lon="-0.37311858"><ele>22.2</ele><time>2022-11-06T14:23:58.0000000+00:00</time></trkpt><trkpt lat="39.460755" lon="-0.373119"><ele>22.2</ele><time>2022-11-06T14:23:59.0000000+00:00</time></trkpt><trkpt lat="39.46075483" lon="-0.37311774"><ele>22.2</ele><time>2022-11-06T14:24:00.0000000+00:00</time></trkpt><trkpt lat="39.46075483" lon="-0.37311774"><ele>22.2</ele><time>2022-11-06T14:24:01.0000000+00:00</time></trkpt><trkpt lat="39.46075483" lon="-0.37311774"><ele>22.2</ele><time>2022-11-06T14:24:02.0000000+00:00</time></trkpt><trkpt lat="39.46075408" lon="-0.37311757"><ele>22.2</ele><time>2022-11-06T14:24:03.0000000+00:00</time></trkpt><trkpt lat="39.46075777" lon="-0.37310994"><ele>22.2</ele><time>2022-11-06T14:24:04.0000000+00:00</time></trkpt><trkpt lat="39.4607519" lon="-0.37311304"><ele>22.2</ele><time>2022-11-06T14:24:05.0000000+00:00</time></trkpt><trkpt lat="39.46075073" lon="-0.37311296"><ele>22.2</ele><time>2022-11-06T14:24:06.0000000+00:00</time></trkpt><trkpt lat="39.46075131" lon="-0.37311204"><ele>22.2</ele><time>2022-11-06T14:24:07.0000000+00:00</time></trkpt><trkpt lat="39.46073916" lon="-0.37311816"><ele>22.2</ele><time>2022-11-06T14:24:08.0000000+00:00</time></trkpt><trkpt lat="39.4607436" lon="-0.37311547"><ele>22.2</ele><time>2022-11-06T14:24:09.0000000+00:00</time></trkpt><trkpt lat="39.46074008" lon="-0.37311799"><ele>22.2</ele><time>2022-11-06T14:24:10.0000000+00:00</time></trkpt><trkpt lat="39.46071896" lon="-0.37313375"><ele>22.2</ele><time>2022-11-06T14:24:11.0000000+00:00</time></trkpt><trkpt lat="39.46071385" lon="-0.3731345"><ele>22.2</ele><time>2022-11-06T14:24:12.0000000+00:00</time></trkpt><trkpt lat="39.46070823" lon="-0.37313098"><ele>22.2</ele><time>2022-11-06T14:24:13.0000000+00:00</time></trkpt><trkpt lat="39.46072759" lon="-0.37312361"><ele>22.2</ele><time>2022-11-06T14:24:14.0000000+00:00</time></trkpt><trkpt lat="39.46072759" lon="-0.37312361"><ele>22.2</ele><time>2022-11-06T14:24:15.0000000+00:00</time></trkpt><trkpt lat="39.46072759" lon="-0.37312361"><ele>22.2</ele><time>2022-11-06T14:24:16.0000000+00:00</time></trkpt><trkpt lat="39.46072759" lon="-0.37312361"><ele>22.2</ele><time>2022-11-06T14:24:17.0000000+00:00</time></trkpt><trkpt lat="39.46072759" lon="-0.37312361"><ele>22.2</ele><time>2022-11-06T14:24:18.0000000+00:00</time></trkpt><trkpt lat="39.4607312" lon="-0.37312117"><ele>22.2</ele><time>2022-11-06T14:24:19.0000000+00:00</time></trkpt><trkpt lat="39.46073757" lon="-0.37311807"><ele>22.2</ele><time>2022-11-06T14:24:20.0000000+00:00</time></trkpt><trkpt lat="39.46074218" lon="-0.37311606"><ele>22.2</ele><time>2022-11-06T14:24:21.0000000+00:00</time></trkpt><trkpt lat="39.4607467" lon="-0.37311405"><ele>22.2</ele><time>2022-11-06T14:24:22.0000000+00:00</time></trkpt><trkpt lat="39.46074771" lon="-0.37311464"><ele>22.2</ele><time>2022-11-06T14:24:23.0000000+00:00</time></trkpt><trkpt lat="39.46075047" lon="-0.37311413"><ele>22.2</ele><time>2022-11-06T14:24:24.0000000+00:00</time></trkpt><trkpt lat="39.46074997" lon="-0.37312377"><ele>22.2</ele><time>2022-11-06T14:24:25.0000000+00:00</time></trkpt><trkpt lat="39.46075156" lon="-0.37312428"><ele>22.2</ele><time>2022-11-06T14:24:26.0000000+00:00</time></trkpt><trkpt lat="39.46075123" lon="-0.37312738"><ele>22.2</ele><time>2022-11-06T14:24:27.0000000+00:00</time></trkpt><trkpt lat="39.46076062" lon="-0.37312025"><ele>22.2</ele><time>2022-11-06T14:24:28.0000000+00:00</time></trkpt><trkpt lat="39.46078015" lon="-0.37311162"><ele>22.2</ele><time>2022-11-06T14:24:29.0000000+00:00</time></trkpt><trkpt lat="39.46078392" lon="-0.37311128"><ele>22.2</ele><time>2022-11-06T14:24:30.0000000+00:00</time></trkpt><trkpt lat="39.46078643" lon="-0.37311263"><ele>22.2</ele><time>2022-11-06T14:24:31.0000000+00:00</time></trkpt><trkpt lat="39.4607866" lon="-0.37310843"><ele>22.2</ele><time>2022-11-06T14:24:32.0000000+00:00</time></trkpt><trkpt lat="39.46078501" lon="-0.37310592"><ele>22.2</ele><time>2022-11-06T14:24:33.0000000+00:00</time></trkpt><trkpt lat="39.46079121" lon="-0.37309595"><ele>22.2</ele><time>2022-11-06T14:24:34.0000000+00:00</time></trkpt><trkpt lat="39.46077788" lon="-0.37310315"><ele>22.2</ele><time>2022-11-06T14:24:35.0000000+00:00</time></trkpt><trkpt lat="39.46076171" lon="-0.37311556"><ele>22.2</ele><time>2022-11-06T14:24:36.0000000+00:00</time></trkpt><trkpt lat="39.46074452" lon="-0.37312771"><ele>22.2</ele><time>2022-11-06T14:24:37.0000000+00:00</time></trkpt><trkpt lat="39.46072801" lon="-0.37314003"><ele>22.2</ele><time>2022-11-06T14:24:38.0000000+00:00</time></trkpt><trkpt lat="39.46071225" lon="-0.37315127"><ele>22.2</ele><time>2022-11-06T14:24:39.0000000+00:00</time></trkpt><trkpt lat="39.46069641" lon="-0.37316158"><ele>22.2</ele><time>2022-11-06T14:24:40.0000000+00:00</time></trkpt><trkpt lat="39.46069432" lon="-0.37315931"><ele>22.2</ele><time>2022-11-06T14:24:41.0000000+00:00</time></trkpt><trkpt lat="39.46069566" lon="-0.3731635"><ele>22.2</ele><time>2022-11-06T14:24:42.0000000+00:00</time></trkpt><trkpt lat="39.46070622" lon="-0.37316526"><ele>22.2</ele><time>2022-11-06T14:24:43.0000000+00:00</time></trkpt><trkpt lat="39.46071192" lon="-0.3731687"><ele>22.2</ele><time>2022-11-06T14:24:44.0000000+00:00</time></trkpt><trkpt lat="39.46071653" lon="-0.37316057"><ele>22.2</ele><time>2022-11-06T14:24:45.0000000+00:00</time></trkpt><trkpt lat="39.46076003" lon="-0.37315009"><ele>22.2</ele><time>2022-11-06T14:24:46.0000000+00:00</time></trkpt><trkpt lat="39.46076254" lon="-0.37315311"><ele>22.2</ele><time>2022-11-06T14:24:47.0000000+00:00</time></trkpt><trkpt lat="39.46076623" lon="-0.37315579"><ele>22.2</ele><time>2022-11-06T14:24:48.0000000+00:00</time></trkpt><trkpt lat="39.46077277" lon="-0.3731542"><ele>22.2</ele><time>2022-11-06T14:24:49.0000000+00:00</time></trkpt><trkpt lat="39.46077093" lon="-0.37315596"><ele>22.2</ele><time>2022-11-06T14:24:50.0000000+00:00</time></trkpt><trkpt lat="39.46078182" lon="-0.37314816"><ele>22.2</ele><time>2022-11-06T14:24:51.0000000+00:00</time></trkpt><trkpt lat="39.46079264" lon="-0.37312922"><ele>22.2</ele><time>2022-11-06T14:24:52.0000000+00:00</time></trkpt><trkpt lat="39.46079255" lon="-0.37313056"><ele>22.2</ele><time>2022-11-06T14:24:53.0000000+00:00</time></trkpt><trkpt lat="39.46079255" lon="-0.37313408"><ele>22.2</ele><time>2022-11-06T14:24:54.0000000+00:00</time></trkpt><trkpt lat="39.4608001" lon="-0.37312788"><ele>22.2</ele><time>2022-11-06T14:24:55.0000000+00:00</time></trkpt><trkpt lat="39.46079414" lon="-0.37313215"><ele>22.2</ele><time>2022-11-06T14:24:56.0000000+00:00</time></trkpt><trkpt lat="39.46079222" lon="-0.3731345"><ele>22.2</ele><time>2022-11-06T14:24:57.0000000+00:00</time></trkpt><trkpt lat="39.4607985" lon="-0.3731221"><ele>22.2</ele><time>2022-11-06T14:24:58.0000000+00:00</time></trkpt><trkpt lat="39.46080781" lon="-0.37310617"><ele>22.2</ele><time>2022-11-06T14:24:59.0000000+00:00</time></trkpt><trkpt lat="39.46082105" lon="-0.3730858"><ele>22.2</ele><time>2022-11-06T14:25:00.0000000+00:00</time></trkpt><trkpt lat="39.46082851" lon="-0.37308211"><ele>22.2</ele><time>2022-11-06T14:25:01.0000000+00:00</time></trkpt><trkpt lat="39.46082792" lon="-0.37308279"><ele>22.2</ele><time>2022-11-06T14:25:02.0000000+00:00</time></trkpt><trkpt lat="39.46083119" lon="-0.37308388"><ele>22.2</ele><time>2022-11-06T14:25:03.0000000+00:00</time></trkpt><trkpt lat="39.46082231" lon="-0.37308865"><ele>22.2</ele><time>2022-11-06T14:25:04.0000000+00:00</time></trkpt><trkpt lat="39.46081535" lon="-0.37309494"><ele>22.2</ele><time>2022-11-06T14:25:05.0000000+00:00</time></trkpt><trkpt lat="39.46081384" lon="-0.37309645"><ele>22.2</ele><time>2022-11-06T14:25:06.0000000+00:00</time></trkpt><trkpt lat="39.46081275" lon="-0.37309595"><ele>22.2</ele><time>2022-11-06T14:25:07.0000000+00:00</time></trkpt><trkpt lat="39.46081141" lon="-0.37309611"><ele>22.2</ele><time>2022-11-06T14:25:08.0000000+00:00</time></trkpt><trkpt lat="39.46081292" lon="-0.37309578"><ele>22.2</ele><time>2022-11-06T14:25:09.0000000+00:00</time></trkpt><trkpt lat="39.46081292" lon="-0.37309578"><ele>22.2</ele><time>2022-11-06T14:25:10.0000000+00:00</time></trkpt><trkpt lat="39.46081317" lon="-0.37309569"><ele>22.2</ele><time>2022-11-06T14:25:11.0000000+00:00</time></trkpt><trkpt lat="39.46081401" lon="-0.37310005"><ele>22.2</ele><time>2022-11-06T14:25:12.0000000+00:00</time></trkpt><trkpt lat="39.46081334" lon="-0.3731024"><ele>22.2</ele><time>2022-11-06T14:25:13.0000000+00:00</time></trkpt><trkpt lat="39.46081066" lon="-0.37310265"><ele>22.2</ele><time>2022-11-06T14:25:14.0000000+00:00</time></trkpt><trkpt lat="39.46081325" lon="-0.37310081"><ele>22.2</ele><time>2022-11-06T14:25:15.0000000+00:00</time></trkpt><trkpt lat="39.46081401" lon="-0.37310089"><ele>22.2</ele><time>2022-11-06T14:25:16.0000000+00:00</time></trkpt><trkpt lat="39.46081418" lon="-0.37310106"><ele>22.2</ele><time>2022-11-06T14:25:17.0000000+00:00</time></trkpt><trkpt lat="39.46081418" lon="-0.37310106"><ele>22.2</ele><time>2022-11-06T14:25:18.0000000+00:00</time></trkpt><trkpt lat="39.46081418" lon="-0.37310106"><ele>22.2</ele><time>2022-11-06T14:25:19.0000000+00:00</time></trkpt><trkpt lat="39.46081418" lon="-0.37310106"><ele>22.2</ele><time>2022-11-06T14:25:20.0000000+00:00</time></trkpt><trkpt lat="39.46081418" lon="-0.37310106"><ele>22.2</ele><time>2022-11-06T14:25:21.0000000+00:00</time></trkpt><trkpt lat="39.46081418" lon="-0.37310106"><ele>22.2</ele><time>2022-11-06T14:25:22.0000000+00:00</time></trkpt><trkpt lat="39.46081418" lon="-0.37310106"><ele>22.2</ele><time>2022-11-06T14:25:23.0000000+00:00</time></trkpt><trkpt lat="39.46081418" lon="-0.37310106"><ele>22.2</ele><time>2022-11-06T14:25:24.0000000+00:00</time></trkpt><trkpt lat="39.46081418" lon="-0.37310106"><ele>22.2</ele><time>2022-11-06T14:25:25.0000000+00:00</time></trkpt><trkpt lat="39.46081778" lon="-0.37309745"><ele>22.2</ele><time>2022-11-06T14:25:26.0000000+00:00</time></trkpt><trkpt lat="39.46083228" lon="-0.3730817"><ele>22.2</ele><time>2022-11-06T14:25:27.0000000+00:00</time></trkpt><trkpt lat="39.46084402" lon="-0.37307072"><ele>22.2</ele><time>2022-11-06T14:25:28.0000000+00:00</time></trkpt><trkpt lat="39.46085533" lon="-0.37306275"><ele>22.2</ele><time>2022-11-06T14:25:29.0000000+00:00</time></trkpt><trkpt lat="39.46086145" lon="-0.37305563"><ele>22.2</ele><time>2022-11-06T14:25:30.0000000+00:00</time></trkpt><trkpt lat="39.46086983" lon="-0.37304993"><ele>22.2</ele><time>2022-11-06T14:25:31.0000000+00:00</time></trkpt><trkpt lat="39.46087386" lon="-0.37304482"><ele>22.2</ele><time>2022-11-06T14:25:32.0000000+00:00</time></trkpt><trkpt lat="39.46087763" lon="-0.37304096"><ele>22.2</ele><time>2022-11-06T14:25:33.0000000+00:00</time></trkpt><trkpt lat="39.46088065" lon="-0.37303953"><ele>22.2</ele><time>2022-11-06T14:25:34.0000000+00:00</time></trkpt><trkpt lat="39.46087352" lon="-0.37303903"><ele>22.2</ele><time>2022-11-06T14:25:35.0000000+00:00</time></trkpt><trkpt lat="39.4608721" lon="-0.37304037"><ele>22.2</ele><time>2022-11-06T14:25:36.0000000+00:00</time></trkpt><trkpt lat="39.46087461" lon="-0.37303861"><ele>22.2</ele><time>2022-11-06T14:25:37.0000000+00:00</time></trkpt><trkpt lat="39.46087595" lon="-0.37303744"><ele>22.2</ele><time>2022-11-06T14:25:38.0000000+00:00</time></trkpt><trkpt lat="39.46087679" lon="-0.37303744"><ele>22.2</ele><time>2022-11-06T14:25:39.0000000+00:00</time></trkpt><trkpt lat="39.46087486" lon="-0.37303777"><ele>22.2</ele><time>2022-11-06T14:25:40.0000000+00:00</time></trkpt><trkpt lat="39.46087486" lon="-0.37303777"><ele>22.2</ele><time>2022-11-06T14:25:41.0000000+00:00</time></trkpt><trkpt lat="39.46087486" lon="-0.37303777"><ele>22.2</ele><time>2022-11-06T14:25:42.0000000+00:00</time></trkpt><trkpt lat="39.46087486" lon="-0.37303777"><ele>22.2</ele><time>2022-11-06T14:25:43.0000000+00:00</time></trkpt><trkpt lat="39.46087486" lon="-0.37303777"><ele>22.2</ele><time>2022-11-06T14:25:44.0000000+00:00</time></trkpt><trkpt lat="39.46087486" lon="-0.37303777"><ele>22.2</ele><time>2022-11-06T14:25:45.0000000+00:00</time></trkpt><trkpt lat="39.46087486" lon="-0.37303777"><ele>22.2</ele><time>2022-11-06T14:25:46.0000000+00:00</time></trkpt><trkpt lat="39.46087763" lon="-0.37303794"><ele>22.2</ele><time>2022-11-06T14:25:47.0000000+00:00</time></trkpt><trkpt lat="39.46088517" lon="-0.37303031"><ele>22.2</ele><time>2022-11-06T14:25:48.0000000+00:00</time></trkpt><trkpt lat="39.46089347" lon="-0.3730159"><ele>22.2</ele><time>2022-11-06T14:25:49.0000000+00:00</time></trkpt><trkpt lat="39.46089959" lon="-0.37300651"><ele>22.2</ele><time>2022-11-06T14:25:50.0000000+00:00</time></trkpt><trkpt lat="39.46092549" lon="-0.37299905"><ele>22.2</ele><time>2022-11-06T14:25:51.0000000+00:00</time></trkpt><trkpt lat="39.46093136" lon="-0.37300081"><ele>22.2</ele><time>2022-11-06T14:25:52.0000000+00:00</time></trkpt><trkpt lat="39.46092683" lon="-0.37300542"><ele>22.2</ele><time>2022-11-06T14:25:53.0000000+00:00</time></trkpt><trkpt lat="39.46092599" lon="-0.37300768"><ele>22.2</ele><time>2022-11-06T14:25:54.0000000+00:00</time></trkpt><trkpt lat="39.46092188" lon="-0.37301129"><ele>22.2</ele><time>2022-11-06T14:25:55.0000000+00:00</time></trkpt><trkpt lat="39.46091937" lon="-0.37302076"><ele>22.2</ele><time>2022-11-06T14:25:56.0000000+00:00</time></trkpt><trkpt lat="39.46092029" lon="-0.37302889"><ele>22.2</ele><time>2022-11-06T14:25:57.0000000+00:00</time></trkpt><trkpt lat="39.46092046" lon="-0.37302906"><ele>22.2</ele><time>2022-11-06T14:25:58.0000000+00:00</time></trkpt><trkpt lat="39.46093504" lon="-0.3730076"><ele>22.2</ele><time>2022-11-06T14:25:59.0000000+00:00</time></trkpt><trkpt lat="39.46094032" lon="-0.37300173"><ele>22.2</ele><time>2022-11-06T14:26:00.0000000+00:00</time></trkpt><trkpt lat="39.46094653" lon="-0.37299067"><ele>22.2</ele><time>2022-11-06T14:26:01.0000000+00:00</time></trkpt><trkpt lat="39.46094686" lon="-0.3729874"><ele>22.2</ele><time>2022-11-06T14:26:02.0000000+00:00</time></trkpt><trkpt lat="39.46095038" lon="-0.37298514"><ele>22.2</ele><time>2022-11-06T14:26:03.0000000+00:00</time></trkpt><trkpt lat="39.46095114" lon="-0.37298983"><ele>22.2</ele><time>2022-11-06T14:26:04.0000000+00:00</time></trkpt><trkpt lat="39.46095281" lon="-0.37299251"><ele>22.2</ele><time>2022-11-06T14:26:05.0000000+00:00</time></trkpt><trkpt lat="39.46095357" lon="-0.3729957"><ele>22.2</ele><time>2022-11-06T14:26:06.0000000+00:00</time></trkpt><trkpt lat="39.46095759" lon="-0.37299695"><ele>22.2</ele><time>2022-11-06T14:26:07.0000000+00:00</time></trkpt><trkpt lat="39.46095583" lon="-0.37299871"><ele>22.2</ele><time>2022-11-06T14:26:08.0000000+00:00</time></trkpt><trkpt lat="39.4609529" lon="-0.37299888"><ele>22.2</ele><time>2022-11-06T14:26:09.0000000+00:00</time></trkpt><trkpt lat="39.46095332" lon="-0.37299955"><ele>22.2</ele><time>2022-11-06T14:26:10.0000000+00:00</time></trkpt><trkpt lat="39.46095181" lon="-0.37300106"><ele>22.2</ele><time>2022-11-06T14:26:11.0000000+00:00</time></trkpt><trkpt lat="39.4609503" lon="-0.37300207"><ele>22.2</ele><time>2022-11-06T14:26:12.0000000+00:00</time></trkpt><trkpt lat="39.46094862" lon="-0.37300374"><ele>22.2</ele><time>2022-11-06T14:26:13.0000000+00:00</time></trkpt><trkpt lat="39.46094879" lon="-0.37299712"><ele>22.2</ele><time>2022-11-06T14:26:14.0000000+00:00</time></trkpt><trkpt lat="39.46094686" lon="-0.37298505"><ele>22.2</ele><time>2022-11-06T14:26:15.0000000+00:00</time></trkpt><trkpt lat="39.46094309" lon="-0.37297919"><ele>22.2</ele><time>2022-11-06T14:26:16.0000000+00:00</time></trkpt><trkpt lat="39.46094334" lon="-0.37297256"><ele>22.2</ele><time>2022-11-06T14:26:17.0000000+00:00</time></trkpt><trkpt lat="39.46094242" lon="-0.37298254"><ele>22.2</ele><time>2022-11-06T14:26:18.0000000+00:00</time></trkpt><trkpt lat="39.46094284" lon="-0.37298271"><ele>22.2</ele><time>2022-11-06T14:26:19.0000000+00:00</time></trkpt><trkpt lat="39.46094074" lon="-0.37298891"><ele>22.2</ele><time>2022-11-06T14:26:20.0000000+00:00</time></trkpt><trkpt lat="39.46094066" lon="-0.37298271"><ele>22.2</ele><time>2022-11-06T14:26:21.0000000+00:00</time></trkpt><trkpt lat="39.46093873" lon="-0.37298908"><ele>22.2</ele><time>2022-11-06T14:26:22.0000000+00:00</time></trkpt><trkpt lat="39.46093764" lon="-0.37299218"><ele>22.2</ele><time>2022-11-06T14:26:23.0000000+00:00</time></trkpt><trkpt lat="39.46093513" lon="-0.37299268"><ele>22.2</ele><time>2022-11-06T14:26:24.0000000+00:00</time></trkpt><trkpt lat="39.4609358" lon="-0.37299813"><ele>22.2</ele><time>2022-11-06T14:26:25.0000000+00:00</time></trkpt><trkpt lat="39.46094167" lon="-0.37298312"><ele>22.2</ele><time>2022-11-06T14:26:26.0000000+00:00</time></trkpt><trkpt lat="39.46094242" lon="-0.37298455"><ele>22.2</ele><time>2022-11-06T14:26:27.0000000+00:00</time></trkpt><trkpt lat="39.46094359" lon="-0.37298539"><ele>22.2</ele><time>2022-11-06T14:26:28.0000000+00:00</time></trkpt><trkpt lat="39.46094435" lon="-0.37298346"><ele>22.2</ele><time>2022-11-06T14:26:29.0000000+00:00</time></trkpt><trkpt lat="39.46094728" lon="-0.37297307"><ele>22.2</ele><time>2022-11-06T14:26:30.0000000+00:00</time></trkpt><trkpt lat="39.46094711" lon="-0.37297474"><ele>22.2</ele><time>2022-11-06T14:26:31.0000000+00:00</time></trkpt><trkpt lat="39.4609441" lon="-0.37297986"><ele>22.2</ele><time>2022-11-06T14:26:32.0000000+00:00</time></trkpt><trkpt lat="39.46094359" lon="-0.37298036"><ele>22.2</ele><time>2022-11-06T14:26:33.0000000+00:00</time></trkpt><trkpt lat="39.46094217" lon="-0.3729781"><ele>22.2</ele><time>2022-11-06T14:26:34.0000000+00:00</time></trkpt><trkpt lat="39.46094343" lon="-0.37297835"><ele>22.2</ele><time>2022-11-06T14:26:35.0000000+00:00</time></trkpt><trkpt lat="39.46094334" lon="-0.37296494"><ele>22.2</ele><time>2022-11-06T14:26:36.0000000+00:00</time></trkpt><trkpt lat="39.46094359" lon="-0.37296234"><ele>22.2</ele><time>2022-11-06T14:26:37.0000000+00:00</time></trkpt><trkpt lat="39.46094535" lon="-0.37295815"><ele>22.2</ele><time>2022-11-06T14:26:38.0000000+00:00</time></trkpt><trkpt lat="39.46094745" lon="-0.3729527"><ele>22.2</ele><time>2022-11-06T14:26:39.0000000+00:00</time></trkpt><trkpt lat="39.46095441" lon="-0.37294775"><ele>22.2</ele><time>2022-11-06T14:26:40.0000000+00:00</time></trkpt><trkpt lat="39.46096262" lon="-0.37295144"><ele>22.2</ele><time>2022-11-06T14:26:41.0000000+00:00</time></trkpt><trkpt lat="39.46096446" lon="-0.37295781"><ele>22.2</ele><time>2022-11-06T14:26:42.0000000+00:00</time></trkpt><trkpt lat="39.46096807" lon="-0.37294842"><ele>22.2</ele><time>2022-11-06T14:26:43.0000000+00:00</time></trkpt><trkpt lat="39.46096991" lon="-0.37295278"><ele>22.2</ele><time>2022-11-06T14:26:44.0000000+00:00</time></trkpt><trkpt lat="39.46096916" lon="-0.3729553"><ele>22.2</ele><time>2022-11-06T14:26:45.0000000+00:00</time></trkpt><trkpt lat="39.46097" lon="-0.37295613"><ele>22.2</ele><time>2022-11-06T14:26:46.0000000+00:00</time></trkpt><trkpt lat="39.46097293" lon="-0.37295521"><ele>22.2</ele><time>2022-11-06T14:26:47.0000000+00:00</time></trkpt><trkpt lat="39.46097385" lon="-0.3729532"><ele>22.2</ele><time>2022-11-06T14:26:48.0000000+00:00</time></trkpt><trkpt lat="39.4609762" lon="-0.37294708"><ele>22.2</ele><time>2022-11-06T14:26:49.0000000+00:00</time></trkpt><trkpt lat="39.46097788" lon="-0.37294356"><ele>22.2</ele><time>2022-11-06T14:26:50.0000000+00:00</time></trkpt><trkpt lat="39.46098014" lon="-0.37294415"><ele>22.2</ele><time>2022-11-06T14:26:51.0000000+00:00</time></trkpt><trkpt lat="39.46098366" lon="-0.37293158"><ele>22.2</ele><time>2022-11-06T14:26:52.0000000+00:00</time></trkpt><trkpt lat="39.46098567" lon="-0.37293116"><ele>22.2</ele><time>2022-11-06T14:26:53.0000000+00:00</time></trkpt><trkpt lat="39.46098894" lon="-0.37293258"><ele>22.2</ele><time>2022-11-06T14:26:54.0000000+00:00</time></trkpt><trkpt lat="39.46098316" lon="-0.37292864"><ele>22.2</ele><time>2022-11-06T14:26:55.0000000+00:00</time></trkpt><trkpt lat="39.46098039" lon="-0.37293116"><ele>22.2</ele><time>2022-11-06T14:26:56.0000000+00:00</time></trkpt><trkpt lat="39.46097712" lon="-0.37292596"><ele>22.2</ele><time>2022-11-06T14:26:57.0000000+00:00</time></trkpt><trkpt lat="39.46097301" lon="-0.37292202"><ele>22.2</ele><time>2022-11-06T14:26:58.0000000+00:00</time></trkpt><trkpt lat="39.46097368" lon="-0.37292194"><ele>22.2</ele><time>2022-11-06T14:26:59.0000000+00:00</time></trkpt><trkpt lat="39.46097394" lon="-0.37292504"><ele>22.2</ele><time>2022-11-06T14:27:00.0000000+00:00</time></trkpt><trkpt lat="39.46097083" lon="-0.37293116"><ele>22.2</ele><time>2022-11-06T14:27:01.0000000+00:00</time></trkpt><trkpt lat="39.46099028" lon="-0.37293769"><ele>22.2</ele><time>2022-11-06T14:27:02.0000000+00:00</time></trkpt><trkpt lat="39.46098818" lon="-0.37293744"><ele>22.2</ele><time>2022-11-06T14:27:03.0000000+00:00</time></trkpt><trkpt lat="39.46099581" lon="-0.37292663"><ele>22.2</ele><time>2022-11-06T14:27:04.0000000+00:00</time></trkpt><trkpt lat="39.46100327" lon="-0.3729133"><ele>22.2</ele><time>2022-11-06T14:27:05.0000000+00:00</time></trkpt><trkpt lat="39.46100989" lon="-0.37290853"><ele>22.2</ele><time>2022-11-06T14:27:06.0000000+00:00</time></trkpt><trkpt lat="39.46101434" lon="-0.37290609"><ele>22.2</ele><time>2022-11-06T14:27:07.0000000+00:00</time></trkpt><trkpt lat="39.46099933" lon="-0.37291741"><ele>22.2</ele><time>2022-11-06T14:27:08.0000000+00:00</time></trkpt><trkpt lat="39.46098274" lon="-0.37292965"><ele>22.2</ele><time>2022-11-06T14:27:09.0000000+00:00</time></trkpt><trkpt lat="39.46096748" lon="-0.37294004"><ele>22.2</ele><time>2022-11-06T14:27:10.0000000+00:00</time></trkpt><trkpt lat="39.46097167" lon="-0.37293493"><ele>22.2</ele><time>2022-11-06T14:27:11.0000000+00:00</time></trkpt><trkpt lat="39.46097167" lon="-0.37294566"><ele>22.2</ele><time>2022-11-06T14:27:12.0000000+00:00</time></trkpt><trkpt lat="39.46097243" lon="-0.37294792"><ele>22.2</ele><time>2022-11-06T14:27:13.0000000+00:00</time></trkpt><trkpt lat="39.46097268" lon="-0.37295186"><ele>22.2</ele><time>2022-11-06T14:27:14.0000000+00:00</time></trkpt><trkpt lat="39.46097268" lon="-0.37295186"><ele>22.2</ele><time>2022-11-06T14:27:15.0000000+00:00</time></trkpt><trkpt lat="39.46097268" lon="-0.37295186"><ele>22.2</ele><time>2022-11-06T14:27:16.0000000+00:00</time></trkpt><trkpt lat="39.46097268" lon="-0.37295186"><ele>22.2</ele><time>2022-11-06T14:27:17.0000000+00:00</time></trkpt><trkpt lat="39.46097268" lon="-0.37295186"><ele>22.2</ele><time>2022-11-06T14:27:18.0000000+00:00</time></trkpt><trkpt lat="39.46097268" lon="-0.37295186"><ele>22.2</ele><time>2022-11-06T14:27:19.0000000+00:00</time></trkpt><trkpt lat="39.46097268" lon="-0.37295186"><ele>22.2</ele><time>2022-11-06T14:27:20.0000000+00:00</time></trkpt><trkpt lat="39.46097268" lon="-0.37295186"><ele>22.2</ele><time>2022-11-06T14:27:21.0000000+00:00</time></trkpt><trkpt lat="39.46097268" lon="-0.37295186"><ele>22.2</ele><time>2022-11-06T14:27:22.0000000+00:00</time></trkpt><trkpt lat="39.46097268" lon="-0.37295186"><ele>22.2</ele><time>2022-11-06T14:27:23.0000000+00:00</time></trkpt><trkpt lat="39.46097268" lon="-0.37295186"><ele>22.2</ele><time>2022-11-06T14:27:24.0000000+00:00</time></trkpt><trkpt lat="39.46097268" lon="-0.37294817"><ele>22.2</ele><time>2022-11-06T14:27:25.0000000+00:00</time></trkpt><trkpt lat="39.46097268" lon="-0.37294792"><ele>22.2</ele><time>2022-11-06T14:27:26.0000000+00:00</time></trkpt><trkpt lat="39.46097268" lon="-0.37294666"><ele>22.2</ele><time>2022-11-06T14:27:27.0000000+00:00</time></trkpt><trkpt lat="39.46097251" lon="-0.37294482"><ele>22.2</ele><time>2022-11-06T14:27:28.0000000+00:00</time></trkpt><trkpt lat="39.46097159" lon="-0.37295069"><ele>22.2</ele><time>2022-11-06T14:27:29.0000000+00:00</time></trkpt><trkpt lat="39.4609679" lon="-0.3729579"><ele>22.2</ele><time>2022-11-06T14:27:30.0000000+00:00</time></trkpt><trkpt lat="39.4609679" lon="-0.3729579"><ele>22.2</ele><time>2022-11-06T14:27:31.0000000+00:00</time></trkpt><trkpt lat="39.4609679" lon="-0.3729579"><ele>22.2</ele><time>2022-11-06T14:27:32.0000000+00:00</time></trkpt><trkpt lat="39.4609679" lon="-0.3729579"><ele>22.2</ele><time>2022-11-06T14:27:33.0000000+00:00</time></trkpt><trkpt lat="39.4609679" lon="-0.3729579"><ele>22.2</ele><time>2022-11-06T14:27:34.0000000+00:00</time></trkpt><trkpt lat="39.4609679" lon="-0.3729579"><ele>22.2</ele><time>2022-11-06T14:27:35.0000000+00:00</time></trkpt><trkpt lat="39.4609679" lon="-0.3729579"><ele>22.2</ele><time>2022-11-06T14:27:36.0000000+00:00</time></trkpt><trkpt lat="39.4609679" lon="-0.3729579"><ele>22.2</ele><time>2022-11-06T14:27:37.0000000+00:00</time></trkpt><trkpt lat="39.46096866" lon="-0.3729579"><ele>22.2</ele><time>2022-11-06T14:27:38.0000000+00:00</time></trkpt><trkpt lat="39.46096874" lon="-0.3729579"><ele>22.2</ele><time>2022-11-06T14:27:39.0000000+00:00</time></trkpt><trkpt lat="39.46096874" lon="-0.3729579"><ele>22.2</ele><time>2022-11-06T14:27:40.0000000+00:00</time></trkpt><trkpt lat="39.46096723" lon="-0.37296183"><ele>22.2</ele><time>2022-11-06T14:27:41.0000000+00:00</time></trkpt><trkpt lat="39.46096723" lon="-0.37296183"><ele>22.2</ele><time>2022-11-06T14:27:42.0000000+00:00</time></trkpt><trkpt lat="39.46096723" lon="-0.37296183"><ele>22.2</ele><time>2022-11-06T14:27:43.0000000+00:00</time></trkpt><trkpt lat="39.46096723" lon="-0.37296183"><ele>22.2</ele><time>2022-11-06T14:27:44.0000000+00:00</time></trkpt><trkpt lat="39.46096723" lon="-0.37296183"><ele>22.2</ele><time>2022-11-06T14:27:45.0000000+00:00</time></trkpt><trkpt lat="39.46096723" lon="-0.37296183"><ele>22.2</ele><time>2022-11-06T14:27:46.0000000+00:00</time></trkpt><trkpt lat="39.46096723" lon="-0.37296183"><ele>22.2</ele><time>2022-11-06T14:27:47.0000000+00:00</time></trkpt><trkpt lat="39.46096723" lon="-0.37296292"><ele>22.2</ele><time>2022-11-06T14:27:48.0000000+00:00</time></trkpt><trkpt lat="39.46096723" lon="-0.37296318"><ele>22.2</ele><time>2022-11-06T14:27:49.0000000+00:00</time></trkpt><trkpt lat="39.46096723" lon="-0.37296569"><ele>22.2</ele><time>2022-11-06T14:27:50.0000000+00:00</time></trkpt><trkpt lat="39.46096723" lon="-0.37296603"><ele>22.2</ele><time>2022-11-06T14:27:51.0000000+00:00</time></trkpt><trkpt lat="39.46096723" lon="-0.37296653"><ele>22.2</ele><time>2022-11-06T14:27:52.0000000+00:00</time></trkpt><trkpt lat="39.46096312" lon="-0.37297977"><ele>22.2</ele><time>2022-11-06T14:27:53.0000000+00:00</time></trkpt><trkpt lat="39.46096228" lon="-0.37298069"><ele>22.2</ele><time>2022-11-06T14:27:54.0000000+00:00</time></trkpt><trkpt lat="39.46096228" lon="-0.37298153"><ele>22.2</ele><time>2022-11-06T14:27:55.0000000+00:00</time></trkpt><trkpt lat="39.46096228" lon="-0.3729822"><ele>22.2</ele><time>2022-11-06T14:27:56.0000000+00:00</time></trkpt><trkpt lat="39.46096228" lon="-0.3729822"><ele>22.2</ele><time>2022-11-06T14:27:57.0000000+00:00</time></trkpt><trkpt lat="39.46096228" lon="-0.3729822"><ele>22.2</ele><time>2022-11-06T14:27:58.0000000+00:00</time></trkpt><trkpt lat="39.46096228" lon="-0.3729822"><ele>22.2</ele><time>2022-11-06T14:27:59.0000000+00:00</time></trkpt><trkpt lat="39.46096245" lon="-0.3729822"><ele>22.2</ele><time>2022-11-06T14:28:00.0000000+00:00</time></trkpt><trkpt lat="39.46096128" lon="-0.37298363"><ele>22.2</ele><time>2022-11-06T14:28:01.0000000+00:00</time></trkpt><trkpt lat="39.46096262" lon="-0.37298757"><ele>22.2</ele><time>2022-11-06T14:28:02.0000000+00:00</time></trkpt><trkpt lat="39.46096363" lon="-0.37298874"><ele>22.2</ele><time>2022-11-06T14:28:03.0000000+00:00</time></trkpt><trkpt lat="39.46096363" lon="-0.37298874"><ele>22.2</ele><time>2022-11-06T14:28:04.0000000+00:00</time></trkpt><trkpt lat="39.46096363" lon="-0.37298874"><ele>22.2</ele><time>2022-11-06T14:28:05.0000000+00:00</time></trkpt><trkpt lat="39.46096363" lon="-0.37298874"><ele>22.2</ele><time>2022-11-06T14:28:06.0000000+00:00</time></trkpt><trkpt lat="39.46096363" lon="-0.37298874"><ele>22.2</ele><time>2022-11-06T14:28:07.0000000+00:00</time></trkpt><trkpt lat="39.46096363" lon="-0.37298874"><ele>22.2</ele><time>2022-11-06T14:28:08.0000000+00:00</time></trkpt><trkpt lat="39.46096363" lon="-0.37298874"><ele>22.2</ele><time>2022-11-06T14:28:09.0000000+00:00</time></trkpt><trkpt lat="39.46096363" lon="-0.37298874"><ele>22.2</ele><time>2022-11-06T14:28:10.0000000+00:00</time></trkpt><trkpt lat="39.4609643" lon="-0.37298874"><ele>22.2</ele><time>2022-11-06T14:28:11.0000000+00:00</time></trkpt><trkpt lat="39.46096463" lon="-0.37298874"><ele>22.2</ele><time>2022-11-06T14:28:12.0000000+00:00</time></trkpt><trkpt lat="39.46096505" lon="-0.37298874"><ele>22.2</ele><time>2022-11-06T14:28:13.0000000+00:00</time></trkpt><trkpt lat="39.46096597" lon="-0.37298874"><ele>22.2</ele><time>2022-11-06T14:28:14.0000000+00:00</time></trkpt><trkpt lat="39.46096606" lon="-0.37298874"><ele>22.2</ele><time>2022-11-06T14:28:15.0000000+00:00</time></trkpt><trkpt lat="39.46096606" lon="-0.37298874"><ele>22.2</ele><time>2022-11-06T14:28:16.0000000+00:00</time></trkpt><trkpt lat="39.46096622" lon="-0.37298874"><ele>22.2</ele><time>2022-11-06T14:28:17.0000000+00:00</time></trkpt><trkpt lat="39.46096589" lon="-0.37299218"><ele>22.2</ele><time>2022-11-06T14:28:18.0000000+00:00</time></trkpt><trkpt lat="39.46096304" lon="-0.37299377"><ele>22.2</ele><time>2022-11-06T14:28:19.0000000+00:00</time></trkpt><trkpt lat="39.46096161" lon="-0.37299276"><ele>22.2</ele><time>2022-11-06T14:28:20.0000000+00:00</time></trkpt><trkpt lat="39.46097938" lon="-0.37298782"><ele>22.2</ele><time>2022-11-06T14:28:21.0000000+00:00</time></trkpt><trkpt lat="39.46097955" lon="-0.37298497"><ele>22.2</ele><time>2022-11-06T14:28:22.0000000+00:00</time></trkpt><trkpt lat="39.46099238" lon="-0.37297717"><ele>22.2</ele><time>2022-11-06T14:28:23.0000000+00:00</time></trkpt><trkpt lat="39.46100319" lon="-0.37297038"><ele>22.2</ele><time>2022-11-06T14:28:24.0000000+00:00</time></trkpt><trkpt lat="39.46100294" lon="-0.37297843"><ele>22.2</ele><time>2022-11-06T14:28:25.0000000+00:00</time></trkpt><trkpt lat="39.460999" lon="-0.37299503"><ele>22.2</ele><time>2022-11-06T14:28:26.0000000+00:00</time></trkpt><trkpt lat="39.46099992" lon="-0.37299193"><ele>22.2</ele><time>2022-11-06T14:28:27.0000000+00:00</time></trkpt><trkpt lat="39.46099992" lon="-0.37299193"><ele>22.2</ele><time>2022-11-06T14:28:28.0000000+00:00</time></trkpt><trkpt lat="39.46099992" lon="-0.37299193"><ele>22.2</ele><time>2022-11-06T14:28:29.0000000+00:00</time></trkpt><trkpt lat="39.46099992" lon="-0.37299193"><ele>22.2</ele><time>2022-11-06T14:28:30.0000000+00:00</time></trkpt><trkpt lat="39.46099992" lon="-0.37299193"><ele>22.2</ele><time>2022-11-06T14:28:31.0000000+00:00</time></trkpt><trkpt lat="39.46099992" lon="-0.37299193"><ele>22.2</ele><time>2022-11-06T14:28:32.0000000+00:00</time></trkpt><trkpt lat="39.46099992" lon="-0.37299193"><ele>22.2</ele><time>2022-11-06T14:28:33.0000000+00:00</time></trkpt><trkpt lat="39.46099992" lon="-0.37299193"><ele>22.2</ele><time>2022-11-06T14:28:34.0000000+00:00</time></trkpt><trkpt lat="39.46099992" lon="-0.37299193"><ele>22.2</ele><time>2022-11-06T14:28:35.0000000+00:00</time></trkpt><trkpt lat="39.46099992" lon="-0.37299193"><ele>22.2</ele><time>2022-11-06T14:28:36.0000000+00:00</time></trkpt><trkpt lat="39.46099992" lon="-0.37299193"><ele>22.2</ele><time>2022-11-06T14:28:37.0000000+00:00</time></trkpt><trkpt lat="39.46099875" lon="-0.37299193"><ele>22.2</ele><time>2022-11-06T14:28:38.0000000+00:00</time></trkpt><trkpt lat="39.4609938" lon="-0.37299679"><ele>22.2</ele><time>2022-11-06T14:28:39.0000000+00:00</time></trkpt><trkpt lat="39.46099129" lon="-0.37299838"><ele>22.2</ele><time>2022-11-06T14:28:40.0000000+00:00</time></trkpt><trkpt lat="39.46098777" lon="-0.37300182"><ele>22.2</ele><time>2022-11-06T14:28:41.0000000+00:00</time></trkpt><trkpt lat="39.46098106" lon="-0.37300475"><ele>22.2</ele><time>2022-11-06T14:28:42.0000000+00:00</time></trkpt><trkpt lat="39.46097821" lon="-0.37300802"><ele>22.2</ele><time>2022-11-06T14:28:43.0000000+00:00</time></trkpt><trkpt lat="39.46097754" lon="-0.37301305"><ele>22.2</ele><time>2022-11-06T14:28:44.0000000+00:00</time></trkpt><trkpt lat="39.46097494" lon="-0.37301632"><ele>22.2</ele><time>2022-11-06T14:28:45.0000000+00:00</time></trkpt><trkpt lat="39.460971" lon="-0.37301724"><ele>22.2</ele><time>2022-11-06T14:28:46.0000000+00:00</time></trkpt><trkpt lat="39.46095927" lon="-0.37301363"><ele>22.2</ele><time>2022-11-06T14:28:47.0000000+00:00</time></trkpt><trkpt lat="39.46095298" lon="-0.37300441"><ele>22.2</ele><time>2022-11-06T14:28:48.0000000+00:00</time></trkpt><trkpt lat="39.46094602" lon="-0.37299788"><ele>22.2</ele><time>2022-11-06T14:28:49.0000000+00:00</time></trkpt><trkpt lat="39.46093127" lon="-0.372991"><ele>22.2</ele><time>2022-11-06T14:28:50.0000000+00:00</time></trkpt><trkpt lat="39.46092272" lon="-0.3729905"><ele>22.2</ele><time>2022-11-06T14:28:51.0000000+00:00</time></trkpt><trkpt lat="39.46091375" lon="-0.37298975"><ele>22.2</ele><time>2022-11-06T14:28:52.0000000+00:00</time></trkpt><trkpt lat="39.4609042" lon="-0.37298924"><ele>22.2</ele><time>2022-11-06T14:28:53.0000000+00:00</time></trkpt><trkpt lat="39.46086707" lon="-0.37300634"><ele>22.2</ele><time>2022-11-06T14:28:54.0000000+00:00</time></trkpt><trkpt lat="39.46084754" lon="-0.37302403"><ele>22.2</ele><time>2022-11-06T14:28:55.0000000+00:00</time></trkpt><trkpt lat="39.4608353" lon="-0.37303166"><ele>22.2</ele><time>2022-11-06T14:28:56.0000000+00:00</time></trkpt><trkpt lat="39.46083999" lon="-0.37303191"><ele>22.2</ele><time>2022-11-06T14:28:57.0000000+00:00</time></trkpt><trkpt lat="39.46084016" lon="-0.37303216"><ele>22.2</ele><time>2022-11-06T14:28:58.0000000+00:00</time></trkpt><trkpt lat="39.46084159" lon="-0.37302554"><ele>22.2</ele><time>2022-11-06T14:28:59.0000000+00:00</time></trkpt><trkpt lat="39.46084494" lon="-0.37302587"><ele>22.2</ele><time>2022-11-06T14:29:00.0000000+00:00</time></trkpt><trkpt lat="39.46084469" lon="-0.37302244"><ele>22.2</ele><time>2022-11-06T14:29:01.0000000+00:00</time></trkpt><trkpt lat="39.46084653" lon="-0.37301816"><ele>22.2</ele><time>2022-11-06T14:29:02.0000000+00:00</time></trkpt><trkpt lat="39.46084846" lon="-0.37301322"><ele>22.2</ele><time>2022-11-06T14:29:03.0000000+00:00</time></trkpt><trkpt lat="39.46083035" lon="-0.37301732"><ele>22.2</ele><time>2022-11-06T14:29:04.0000000+00:00</time></trkpt><trkpt lat="39.46081946" lon="-0.37302369"><ele>22.2</ele><time>2022-11-06T14:29:05.0000000+00:00</time></trkpt><trkpt lat="39.46080529" lon="-0.3730304"><ele>22.2</ele><time>2022-11-06T14:29:06.0000000+00:00</time></trkpt><trkpt lat="39.46079649" lon="-0.3730273"><ele>22.2</ele><time>2022-11-06T14:29:07.0000000+00:00</time></trkpt><trkpt lat="39.4608063" lon="-0.3730242"><ele>22.2</ele><time>2022-11-06T14:29:08.0000000+00:00</time></trkpt><trkpt lat="39.46080672" lon="-0.37302009"><ele>22.2</ele><time>2022-11-06T14:29:09.0000000+00:00</time></trkpt><trkpt lat="39.4608042" lon="-0.37301824"><ele>22.2</ele><time>2022-11-06T14:29:10.0000000+00:00</time></trkpt><trkpt lat="39.46080504" lon="-0.37302554"><ele>22.2</ele><time>2022-11-06T14:29:11.0000000+00:00</time></trkpt><trkpt lat="39.4608037" lon="-0.37303073"><ele>22.2</ele><time>2022-11-06T14:29:12.0000000+00:00</time></trkpt><trkpt lat="39.46081066" lon="-0.37303224"><ele>22.2</ele><time>2022-11-06T14:29:13.0000000+00:00</time></trkpt><trkpt lat="39.46081485" lon="-0.37303241"><ele>22.2</ele><time>2022-11-06T14:29:14.0000000+00:00</time></trkpt><trkpt lat="39.4608358" lon="-0.37302738"><ele>22.2</ele><time>2022-11-06T14:29:15.0000000+00:00</time></trkpt><trkpt lat="39.46084192" lon="-0.37303006"><ele>22.2</ele><time>2022-11-06T14:29:16.0000000+00:00</time></trkpt><trkpt lat="39.46083471" lon="-0.37302369"><ele>22.2</ele><time>2022-11-06T14:29:17.0000000+00:00</time></trkpt><trkpt lat="39.4608332" lon="-0.37301908"><ele>22.2</ele><time>2022-11-06T14:29:18.0000000+00:00</time></trkpt><trkpt lat="39.46083589" lon="-0.37302311"><ele>22.2</ele><time>2022-11-06T14:29:19.0000000+00:00</time></trkpt><trkpt lat="39.46083656" lon="-0.37302889"><ele>22.2</ele><time>2022-11-06T14:29:20.0000000+00:00</time></trkpt><trkpt lat="39.46083647" lon="-0.37303233"><ele>22.2</ele><time>2022-11-06T14:29:21.0000000+00:00</time></trkpt><trkpt lat="39.46083765" lon="-0.373034"><ele>22.2</ele><time>2022-11-06T14:29:22.0000000+00:00</time></trkpt><trkpt lat="39.46083672" lon="-0.37303543"><ele>22.2</ele><time>2022-11-06T14:29:23.0000000+00:00</time></trkpt><trkpt lat="39.46083672" lon="-0.3730356"><ele>22.2</ele><time>2022-11-06T14:29:24.0000000+00:00</time></trkpt><trkpt lat="39.46083882" lon="-0.37303484"><ele>22.2</ele><time>2022-11-06T14:29:25.0000000+00:00</time></trkpt><trkpt lat="39.46085114" lon="-0.37303442"><ele>22.2</ele><time>2022-11-06T14:29:26.0000000+00:00</time></trkpt><trkpt lat="39.46085986" lon="-0.37303224"><ele>22.2</ele><time>2022-11-06T14:29:27.0000000+00:00</time></trkpt><trkpt lat="39.46086237" lon="-0.37302889"><ele>22.2</ele><time>2022-11-06T14:29:28.0000000+00:00</time></trkpt><trkpt lat="39.46087319" lon="-0.37302772"><ele>22.2</ele><time>2022-11-06T14:29:29.0000000+00:00</time></trkpt><trkpt lat="39.46087939" lon="-0.37302931"><ele>22.2</ele><time>2022-11-06T14:29:30.0000000+00:00</time></trkpt><trkpt lat="39.46088945" lon="-0.37303635"><ele>22.2</ele><time>2022-11-06T14:29:31.0000000+00:00</time></trkpt><trkpt lat="39.46089313" lon="-0.37304691"><ele>22.2</ele><time>2022-11-06T14:29:32.0000000+00:00</time></trkpt><trkpt lat="39.46089691" lon="-0.3730501"><ele>22.2</ele><time>2022-11-06T14:29:33.0000000+00:00</time></trkpt><trkpt lat="39.4609047" lon="-0.37304901"><ele>22.2</ele><time>2022-11-06T14:29:34.0000000+00:00</time></trkpt><trkpt lat="39.46091325" lon="-0.37304842"><ele>22.2</ele><time>2022-11-06T14:29:35.0000000+00:00</time></trkpt><trkpt lat="39.46090822" lon="-0.37304875"><ele>22.2</ele><time>2022-11-06T14:29:36.0000000+00:00</time></trkpt><trkpt lat="39.46089598" lon="-0.37304892"><ele>22.2</ele><time>2022-11-06T14:29:37.0000000+00:00</time></trkpt><trkpt lat="39.46088718" lon="-0.37305052"><ele>22.2</ele><time>2022-11-06T14:29:38.0000000+00:00</time></trkpt><trkpt lat="39.46088249" lon="-0.37305026"><ele>22.2</ele><time>2022-11-06T14:29:39.0000000+00:00</time></trkpt><trkpt lat="39.4608814" lon="-0.37304976"><ele>22.2</ele><time>2022-11-06T14:29:40.0000000+00:00</time></trkpt><trkpt lat="39.46087863" lon="-0.37304616"><ele>22.2</ele><time>2022-11-06T14:29:41.0000000+00:00</time></trkpt><trkpt lat="39.46088031" lon="-0.37304004"><ele>22.2</ele><time>2022-11-06T14:29:42.0000000+00:00</time></trkpt><trkpt lat="39.46088132" lon="-0.37303769"><ele>22.2</ele><time>2022-11-06T14:29:43.0000000+00:00</time></trkpt><trkpt lat="39.46087972" lon="-0.37303685"><ele>22.2</ele><time>2022-11-06T14:29:44.0000000+00:00</time></trkpt><trkpt lat="39.46087411" lon="-0.37304222"><ele>22.2</ele><time>2022-11-06T14:29:45.0000000+00:00</time></trkpt><trkpt lat="39.46086539" lon="-0.3730413"><ele>22.2</ele><time>2022-11-06T14:29:46.0000000+00:00</time></trkpt><trkpt lat="39.46085609" lon="-0.37303761"><ele>22.2</ele><time>2022-11-06T14:29:47.0000000+00:00</time></trkpt><trkpt lat="39.46085349" lon="-0.37303853"><ele>22.2</ele><time>2022-11-06T14:29:48.0000000+00:00</time></trkpt><trkpt lat="39.46085441" lon="-0.37304096"><ele>22.2</ele><time>2022-11-06T14:29:49.0000000+00:00</time></trkpt><trkpt lat="39.46085483" lon="-0.37304155"><ele>22.2</ele><time>2022-11-06T14:29:50.0000000+00:00</time></trkpt><trkpt lat="39.46085483" lon="-0.37304155"><ele>22.2</ele><time>2022-11-06T14:29:51.0000000+00:00</time></trkpt><trkpt lat="39.46085483" lon="-0.37304155"><ele>22.2</ele><time>2022-11-06T14:29:52.0000000+00:00</time></trkpt><trkpt lat="39.46085483" lon="-0.37304155"><ele>22.2</ele><time>2022-11-06T14:29:53.0000000+00:00</time></trkpt><trkpt lat="39.46085483" lon="-0.37304155"><ele>22.2</ele><time>2022-11-06T14:29:54.0000000+00:00</time></trkpt><trkpt lat="39.46085483" lon="-0.37304155"><ele>22.2</ele><time>2022-11-06T14:29:55.0000000+00:00</time></trkpt><trkpt lat="39.46085483" lon="-0.37304155"><ele>22.2</ele><time>2022-11-06T14:29:56.0000000+00:00</time></trkpt><trkpt lat="39.46085483" lon="-0.37304155"><ele>22.2</ele><time>2022-11-06T14:29:57.0000000+00:00</time></trkpt><trkpt lat="39.46085483" lon="-0.37304155"><ele>22.2</ele><time>2022-11-06T14:29:58.0000000+00:00</time></trkpt><trkpt lat="39.46085483" lon="-0.37304155"><ele>22.2</ele><time>2022-11-06T14:29:59.0000000+00:00</time></trkpt><trkpt lat="39.46085483" lon="-0.37304155"><ele>22.2</ele><time>2022-11-06T14:30:00.0000000+00:00</time></trkpt><trkpt lat="39.46085483" lon="-0.37304155"><ele>22.2</ele><time>2022-11-06T14:30:01.0000000+00:00</time></trkpt><trkpt lat="39.46085483" lon="-0.37304155"><ele>22.2</ele><time>2022-11-06T14:30:02.0000000+00:00</time></trkpt><trkpt lat="39.46085483" lon="-0.37304155"><ele>22.2</ele><time>2022-11-06T14:30:03.0000000+00:00</time></trkpt><trkpt lat="39.46085483" lon="-0.37304155"><ele>22.2</ele><time>2022-11-06T14:30:04.0000000+00:00</time></trkpt><trkpt lat="39.46085483" lon="-0.37304188"><ele>22.2</ele><time>2022-11-06T14:30:05.0000000+00:00</time></trkpt><trkpt lat="39.46085483" lon="-0.37304213"><ele>22.2</ele><time>2022-11-06T14:30:06.0000000+00:00</time></trkpt><trkpt lat="39.4608555" lon="-0.37304222"><ele>22.2</ele><time>2022-11-06T14:30:07.0000000+00:00</time></trkpt><trkpt lat="39.46085609" lon="-0.3730423"><ele>22.2</ele><time>2022-11-06T14:30:08.0000000+00:00</time></trkpt><trkpt lat="39.46085759" lon="-0.37304414"><ele>22.2</ele><time>2022-11-06T14:30:09.0000000+00:00</time></trkpt><trkpt lat="39.46085776" lon="-0.37304448"><ele>22.2</ele><time>2022-11-06T14:30:10.0000000+00:00</time></trkpt><trkpt lat="39.46085986" lon="-0.37304456"><ele>22.2</ele><time>2022-11-06T14:30:11.0000000+00:00</time></trkpt><trkpt lat="39.46086003" lon="-0.37304523"><ele>22.2</ele><time>2022-11-06T14:30:12.0000000+00:00</time></trkpt><trkpt lat="39.46086003" lon="-0.37304591"><ele>22.2</ele><time>2022-11-06T14:30:13.0000000+00:00</time></trkpt><trkpt lat="39.46086003" lon="-0.37304691"><ele>22.2</ele><time>2022-11-06T14:30:14.0000000+00:00</time></trkpt><trkpt lat="39.46086003" lon="-0.37304716"><ele>22.2</ele><time>2022-11-06T14:30:15.0000000+00:00</time></trkpt><trkpt lat="39.46086003" lon="-0.37304909"><ele>22.2</ele><time>2022-11-06T14:30:16.0000000+00:00</time></trkpt><trkpt lat="39.46086078" lon="-0.37305068"><ele>22.2</ele><time>2022-11-06T14:30:17.0000000+00:00</time></trkpt><trkpt lat="39.46086212" lon="-0.37305672"><ele>22.2</ele><time>2022-11-06T14:30:18.0000000+00:00</time></trkpt><trkpt lat="39.46086304" lon="-0.37305974"><ele>22.2</ele><time>2022-11-06T14:30:19.0000000+00:00</time></trkpt><trkpt lat="39.46086355" lon="-0.37306233"><ele>22.2</ele><time>2022-11-06T14:30:20.0000000+00:00</time></trkpt><trkpt lat="39.46086447" lon="-0.37306485"><ele>22.2</ele><time>2022-11-06T14:30:21.0000000+00:00</time></trkpt><trkpt lat="39.46086505" lon="-0.37307105"><ele>22.2</ele><time>2022-11-06T14:30:22.0000000+00:00</time></trkpt><trkpt lat="39.46086581" lon="-0.37307608"><ele>22.2</ele><time>2022-11-06T14:30:23.0000000+00:00</time></trkpt><trkpt lat="39.46086723" lon="-0.37308027"><ele>22.2</ele><time>2022-11-06T14:30:24.0000000+00:00</time></trkpt><trkpt lat="39.46086799" lon="-0.37308111"><ele>22.2</ele><time>2022-11-06T14:30:25.0000000+00:00</time></trkpt><trkpt lat="39.46087092" lon="-0.37308295"><ele>22.2</ele><time>2022-11-06T14:30:26.0000000+00:00</time></trkpt><trkpt lat="39.46087427" lon="-0.37308396"><ele>22.2</ele><time>2022-11-06T14:30:27.0000000+00:00</time></trkpt><trkpt lat="39.46087704" lon="-0.37308522"><ele>22.2</ele><time>2022-11-06T14:30:28.0000000+00:00</time></trkpt><trkpt lat="39.4608819" lon="-0.37308572"><ele>22.2</ele><time>2022-11-06T14:30:29.0000000+00:00</time></trkpt><trkpt lat="39.46088282" lon="-0.37308874"><ele>22.2</ele><time>2022-11-06T14:30:30.0000000+00:00</time></trkpt><trkpt lat="39.46088299" lon="-0.373091"><ele>22.2</ele><time>2022-11-06T14:30:31.0000000+00:00</time></trkpt><trkpt lat="39.46088308" lon="-0.37309544"><ele>22.2</ele><time>2022-11-06T14:30:32.0000000+00:00</time></trkpt><trkpt lat="39.46088308" lon="-0.37309703"><ele>22.2</ele><time>2022-11-06T14:30:33.0000000+00:00</time></trkpt><trkpt lat="39.46088308" lon="-0.37309779"><ele>22.2</ele><time>2022-11-06T14:30:34.0000000+00:00</time></trkpt><trkpt lat="39.46088308" lon="-0.37309888"><ele>22.2</ele><time>2022-11-06T14:30:35.0000000+00:00</time></trkpt><trkpt lat="39.46088308" lon="-0.37309913"><ele>22.2</ele><time>2022-11-06T14:30:36.0000000+00:00</time></trkpt><trkpt lat="39.46088308" lon="-0.3730993"><ele>22.2</ele><time>2022-11-06T14:30:37.0000000+00:00</time></trkpt><trkpt lat="39.46088308" lon="-0.37309972"><ele>22.2</ele><time>2022-11-06T14:30:38.0000000+00:00</time></trkpt><trkpt lat="39.46088308" lon="-0.37310408"><ele>22.2</ele><time>2022-11-06T14:30:39.0000000+00:00</time></trkpt><trkpt lat="39.46088308" lon="-0.37310584"><ele>22.2</ele><time>2022-11-06T14:30:40.0000000+00:00</time></trkpt><trkpt lat="39.46088308" lon="-0.37310684"><ele>22.2</ele><time>2022-11-06T14:30:41.0000000+00:00</time></trkpt><trkpt lat="39.46088308" lon="-0.37310701"><ele>22.2</ele><time>2022-11-06T14:30:42.0000000+00:00</time></trkpt><trkpt lat="39.46088308" lon="-0.37310709"><ele>22.2</ele><time>2022-11-06T14:30:43.0000000+00:00</time></trkpt><trkpt lat="39.46087872" lon="-0.37310718"><ele>22.2</ele><time>2022-11-06T14:30:44.0000000+00:00</time></trkpt><trkpt lat="39.46087369" lon="-0.3731029"><ele>22.2</ele><time>2022-11-06T14:30:45.0000000+00:00</time></trkpt><trkpt lat="39.4608664" lon="-0.37310282"><ele>22.2</ele><time>2022-11-06T14:30:46.0000000+00:00</time></trkpt><trkpt lat="39.4608591" lon="-0.37310123"><ele>22.2</ele><time>2022-11-06T14:30:47.0000000+00:00</time></trkpt><trkpt lat="39.46085148" lon="-0.37310097"><ele>22.2</ele><time>2022-11-06T14:30:48.0000000+00:00</time></trkpt><trkpt lat="39.46085022" lon="-0.37309896"><ele>22.2</ele><time>2022-11-06T14:30:49.0000000+00:00</time></trkpt><trkpt lat="39.46084745" lon="-0.37312134"><ele>22.2</ele><time>2022-11-06T14:30:50.0000000+00:00</time></trkpt><trkpt lat="39.46083773" lon="-0.37312905"><ele>22.2</ele><time>2022-11-06T14:30:51.0000000+00:00</time></trkpt><trkpt lat="39.46082826" lon="-0.37313903"><ele>22.2</ele><time>2022-11-06T14:30:52.0000000+00:00</time></trkpt><trkpt lat="39.46082449" lon="-0.37314506"><ele>22.2</ele><time>2022-11-06T14:30:53.0000000+00:00</time></trkpt><trkpt lat="39.46082046" lon="-0.37314934"><ele>22.2</ele><time>2022-11-06T14:30:54.0000000+00:00</time></trkpt><trkpt lat="39.46082323" lon="-0.37315177"><ele>22.2</ele><time>2022-11-06T14:30:55.0000000+00:00</time></trkpt><trkpt lat="39.46081074" lon="-0.37315495"><ele>22.2</ele><time>2022-11-06T14:30:56.0000000+00:00</time></trkpt><trkpt lat="39.46080471" lon="-0.37315982"><ele>22.2</ele><time>2022-11-06T14:30:57.0000000+00:00</time></trkpt><trkpt lat="39.46080487" lon="-0.37315705"><ele>22.2</ele><time>2022-11-06T14:30:58.0000000+00:00</time></trkpt><trkpt lat="39.4608037" lon="-0.37315805"><ele>22.2</ele><time>2022-11-06T14:30:59.0000000+00:00</time></trkpt><trkpt lat="39.46080496" lon="-0.37315755"><ele>22.2</ele><time>2022-11-06T14:31:00.0000000+00:00</time></trkpt><trkpt lat="39.46080504" lon="-0.37315562"><ele>22.2</ele><time>2022-11-06T14:31:01.0000000+00:00</time></trkpt><trkpt lat="39.46082993" lon="-0.37315018"><ele>22.2</ele><time>2022-11-06T14:31:02.0000000+00:00</time></trkpt><trkpt lat="39.46085567" lon="-0.37314842"><ele>22.2</ele><time>2022-11-06T14:31:03.0000000+00:00</time></trkpt><trkpt lat="39.46087796" lon="-0.37314716"><ele>22.2</ele><time>2022-11-06T14:31:04.0000000+00:00</time></trkpt><trkpt lat="39.46088291" lon="-0.37314506"><ele>22.2</ele><time>2022-11-06T14:31:05.0000000+00:00</time></trkpt><trkpt lat="39.46089598" lon="-0.37313115"><ele>22.2</ele><time>2022-11-06T14:31:06.0000000+00:00</time></trkpt><trkpt lat="39.46089867" lon="-0.37312914"><ele>22.2</ele><time>2022-11-06T14:31:07.0000000+00:00</time></trkpt><trkpt lat="39.46090629" lon="-0.37312243"><ele>22.2</ele><time>2022-11-06T14:31:08.0000000+00:00</time></trkpt><trkpt lat="39.46089339" lon="-0.37311883"><ele>22.2</ele><time>2022-11-06T14:31:09.0000000+00:00</time></trkpt><trkpt lat="39.46088609" lon="-0.37311447"><ele>22.2</ele><time>2022-11-06T14:31:10.0000000+00:00</time></trkpt><trkpt lat="39.46088517" lon="-0.37311765"><ele>22.2</ele><time>2022-11-06T14:31:11.0000000+00:00</time></trkpt><trkpt lat="39.46088735" lon="-0.37310835"><ele>22.2</ele><time>2022-11-06T14:31:12.0000000+00:00</time></trkpt><trkpt lat="39.46089422" lon="-0.37310324"><ele>22.2</ele><time>2022-11-06T14:31:13.0000000+00:00</time></trkpt><trkpt lat="39.46089833" lon="-0.37309712"><ele>22.2</ele><time>2022-11-06T14:31:14.0000000+00:00</time></trkpt><trkpt lat="39.46090319" lon="-0.37308647"><ele>22.2</ele><time>2022-11-06T14:31:15.0000000+00:00</time></trkpt><trkpt lat="39.4609042" lon="-0.37307717"><ele>22.2</ele><time>2022-11-06T14:31:16.0000000+00:00</time></trkpt><trkpt lat="39.46090847" lon="-0.37307038"><ele>22.2</ele><time>2022-11-06T14:31:17.0000000+00:00</time></trkpt><trkpt lat="39.46091007" lon="-0.37306091"><ele>22.2</ele><time>2022-11-06T14:31:18.0000000+00:00</time></trkpt><trkpt lat="39.4609156" lon="-0.37305404"><ele>22.2</ele><time>2022-11-06T14:31:19.0000000+00:00</time></trkpt><trkpt lat="39.46091426" lon="-0.37304767"><ele>22.2</ele><time>2022-11-06T14:31:20.0000000+00:00</time></trkpt><trkpt lat="39.46090956" lon="-0.37304331"><ele>22.2</ele><time>2022-11-06T14:31:21.0000000+00:00</time></trkpt><trkpt lat="39.46091065" lon="-0.37303652"><ele>22.2</ele><time>2022-11-06T14:31:22.0000000+00:00</time></trkpt><trkpt lat="39.46089691" lon="-0.3730428"><ele>22.2</ele><time>2022-11-06T14:31:23.0000000+00:00</time></trkpt><trkpt lat="39.46086078" lon="-0.37301003"><ele>22.2</ele><time>2022-11-06T14:31:24.0000000+00:00</time></trkpt><trkpt lat="39.46084804" lon="-0.37301875"><ele>22.2</ele><time>2022-11-06T14:31:25.0000000+00:00</time></trkpt><trkpt lat="39.46083111" lon="-0.37301288"><ele>22.2</ele><time>2022-11-06T14:31:26.0000000+00:00</time></trkpt><trkpt lat="39.46086656" lon="-0.37299469"><ele>22.2</ele><time>2022-11-06T14:31:27.0000000+00:00</time></trkpt><trkpt lat="39.46086816" lon="-0.37299251"><ele>22.2</ele><time>2022-11-06T14:31:28.0000000+00:00</time></trkpt><trkpt lat="39.46086866" lon="-0.37299427"><ele>22.2</ele><time>2022-11-06T14:31:29.0000000+00:00</time></trkpt><trkpt lat="39.46087101" lon="-0.37299578"><ele>22.2</ele><time>2022-11-06T14:31:30.0000000+00:00</time></trkpt><trkpt lat="39.46087251" lon="-0.3729874"><ele>22.2</ele><time>2022-11-06T14:31:31.0000000+00:00</time></trkpt><trkpt lat="39.46087528" lon="-0.37296871"><ele>22.2</ele><time>2022-11-06T14:31:32.0000000+00:00</time></trkpt><trkpt lat="39.46087511" lon="-0.3729558"><ele>22.2</ele><time>2022-11-06T14:31:33.0000000+00:00</time></trkpt><trkpt lat="39.46086816" lon="-0.37301338"><ele>22.2</ele><time>2022-11-06T14:31:34.0000000+00:00</time></trkpt><trkpt lat="39.46087754" lon="-0.3730138"><ele>22.2</ele><time>2022-11-06T14:31:35.0000000+00:00</time></trkpt><trkpt lat="39.46088157" lon="-0.37302663"><ele>22.2</ele><time>2022-11-06T14:31:36.0000000+00:00</time></trkpt><trkpt lat="39.46090076" lon="-0.37303819"><ele>22.2</ele><time>2022-11-06T14:31:37.0000000+00:00</time></trkpt><trkpt lat="39.46088433" lon="-0.37308421"><ele>22.2</ele><time>2022-11-06T14:31:38.0000000+00:00</time></trkpt><trkpt lat="39.46089012" lon="-0.37309427"><ele>22.2</ele><time>2022-11-06T14:31:39.0000000+00:00</time></trkpt><trkpt lat="39.46088894" lon="-0.37309435"><ele>22.2</ele><time>2022-11-06T14:31:40.0000000+00:00</time></trkpt><trkpt lat="39.46088911" lon="-0.37309762"><ele>22.2</ele><time>2022-11-06T14:31:41.0000000+00:00</time></trkpt><trkpt lat="39.46088551" lon="-0.37309854"><ele>22.2</ele><time>2022-11-06T14:31:42.0000000+00:00</time></trkpt><trkpt lat="39.4608954" lon="-0.37308832"><ele>22.2</ele><time>2022-11-06T14:31:43.0000000+00:00</time></trkpt><trkpt lat="39.46089523" lon="-0.3730858"><ele>22.2</ele><time>2022-11-06T14:31:44.0000000+00:00</time></trkpt><trkpt lat="39.46089129" lon="-0.37308647"><ele>22.2</ele><time>2022-11-06T14:31:45.0000000+00:00</time></trkpt><trkpt lat="39.46090034" lon="-0.37307725"><ele>22.2</ele><time>2022-11-06T14:31:46.0000000+00:00</time></trkpt><trkpt lat="39.46090973" lon="-0.37307122"><ele>22.2</ele><time>2022-11-06T14:31:47.0000000+00:00</time></trkpt><trkpt lat="39.46091996" lon="-0.37307289"><ele>22.2</ele><time>2022-11-06T14:31:48.0000000+00:00</time></trkpt><trkpt lat="39.46092842" lon="-0.37307642"><ele>22.2</ele><time>2022-11-06T14:31:49.0000000+00:00</time></trkpt><trkpt lat="39.46093697" lon="-0.3730713"><ele>22.2</ele><time>2022-11-06T14:31:50.0000000+00:00</time></trkpt><trkpt lat="39.46095089" lon="-0.37306007"><ele>22.2</ele><time>2022-11-06T14:31:51.0000000+00:00</time></trkpt><trkpt lat="39.46096438" lon="-0.37304917"><ele>22.2</ele><time>2022-11-06T14:31:52.0000000+00:00</time></trkpt><trkpt lat="39.46097444" lon="-0.3730356"><ele>22.2</ele><time>2022-11-06T14:31:53.0000000+00:00</time></trkpt><trkpt lat="39.46098886" lon="-0.37301933"><ele>22.2</ele><time>2022-11-06T14:31:54.0000000+00:00</time></trkpt><trkpt lat="39.46100788" lon="-0.37305043"><ele>22.2</ele><time>2022-11-06T14:31:55.0000000+00:00</time></trkpt><trkpt lat="39.46102113" lon="-0.37307046"><ele>22.2</ele><time>2022-11-06T14:31:56.0000000+00:00</time></trkpt><trkpt lat="39.46102775" lon="-0.37307776"><ele>22.2</ele><time>2022-11-06T14:31:57.0000000+00:00</time></trkpt><trkpt lat="39.46103026" lon="-0.37307717"><ele>22.2</ele><time>2022-11-06T14:31:58.0000000+00:00</time></trkpt><trkpt lat="39.46103294" lon="-0.37306753"><ele>22.2</ele><time>2022-11-06T14:31:59.0000000+00:00</time></trkpt><trkpt lat="39.46103563" lon="-0.37305915"><ele>22.2</ele><time>2022-11-06T14:32:00.0000000+00:00</time></trkpt><trkpt lat="39.46103579" lon="-0.37305336"><ele>22.2</ele><time>2022-11-06T14:32:01.0000000+00:00</time></trkpt><trkpt lat="39.46103881" lon="-0.37302956"><ele>22.2</ele><time>2022-11-06T14:32:02.0000000+00:00</time></trkpt><trkpt lat="39.46103336" lon="-0.37302537"><ele>22.2</ele><time>2022-11-06T14:32:03.0000000+00:00</time></trkpt><trkpt lat="39.4610347" lon="-0.37301431"><ele>22.2</ele><time>2022-11-06T14:32:04.0000000+00:00</time></trkpt><trkpt lat="39.46104384" lon="-0.37300198"><ele>22.2</ele><time>2022-11-06T14:32:05.0000000+00:00</time></trkpt><trkpt lat="39.46112045" lon="-0.37297357"><ele>22.2</ele><time>2022-11-06T14:32:06.0000000+00:00</time></trkpt><trkpt lat="39.46113453" lon="-0.37297365"><ele>22.2</ele><time>2022-11-06T14:32:07.0000000+00:00</time></trkpt><trkpt lat="39.46111383" lon="-0.37301498"><ele>22.2</ele><time>2022-11-06T14:32:08.0000000+00:00</time></trkpt><trkpt lat="39.46110352" lon="-0.37302688"><ele>22.2</ele><time>2022-11-06T14:32:09.0000000+00:00</time></trkpt><trkpt lat="39.46108474" lon="-0.37302956"><ele>22.2</ele><time>2022-11-06T14:32:10.0000000+00:00</time></trkpt><trkpt lat="39.46105926" lon="-0.37304062"><ele>22.2</ele><time>2022-11-06T14:32:11.0000000+00:00</time></trkpt><trkpt lat="39.46103714" lon="-0.37305504"><ele>22.2</ele><time>2022-11-06T14:32:12.0000000+00:00</time></trkpt><trkpt lat="39.46101593" lon="-0.37306988"><ele>22.2</ele><time>2022-11-06T14:32:13.0000000+00:00</time></trkpt><trkpt lat="39.46100864" lon="-0.3730672"><ele>22.2</ele><time>2022-11-06T14:32:14.0000000+00:00</time></trkpt><trkpt lat="39.46100964" lon="-0.37305739"><ele>22.2</ele><time>2022-11-06T14:32:15.0000000+00:00</time></trkpt><trkpt lat="39.46101316" lon="-0.37304892"><ele>22.2</ele><time>2022-11-06T14:32:16.0000000+00:00</time></trkpt><trkpt lat="39.46101115" lon="-0.3730501"><ele>22.2</ele><time>2022-11-06T14:32:17.0000000+00:00</time></trkpt><trkpt lat="39.46100621" lon="-0.37305471"><ele>22.2</ele><time>2022-11-06T14:32:18.0000000+00:00</time></trkpt><trkpt lat="39.46099137" lon="-0.37305898"><ele>22.2</ele><time>2022-11-06T14:32:19.0000000+00:00</time></trkpt><trkpt lat="39.46098366" lon="-0.37306275"><ele>22.2</ele><time>2022-11-06T14:32:20.0000000+00:00</time></trkpt><trkpt lat="39.46099028" lon="-0.37306317"><ele>22.2</ele><time>2022-11-06T14:32:21.0000000+00:00</time></trkpt><trkpt lat="39.46098131" lon="-0.37306636"><ele>22.2</ele><time>2022-11-06T14:32:22.0000000+00:00</time></trkpt><trkpt lat="39.4609565" lon="-0.37307449"><ele>22.2</ele><time>2022-11-06T14:32:23.0000000+00:00</time></trkpt><trkpt lat="39.46093789" lon="-0.37307977"><ele>22.2</ele><time>2022-11-06T14:32:24.0000000+00:00</time></trkpt><trkpt lat="39.46091401" lon="-0.37308698"><ele>22.2</ele><time>2022-11-06T14:32:25.0000000+00:00</time></trkpt><trkpt lat="39.46088475" lon="-0.37309863"><ele>22.2</ele><time>2022-11-06T14:32:26.0000000+00:00</time></trkpt><trkpt lat="39.46085894" lon="-0.37310508"><ele>22.2</ele><time>2022-11-06T14:32:27.0000000+00:00</time></trkpt><trkpt lat="39.46086128" lon="-0.3731112"><ele>22.2</ele><time>2022-11-06T14:32:28.0000000+00:00</time></trkpt><trkpt lat="39.46085164" lon="-0.37312092"><ele>22.2</ele><time>2022-11-06T14:32:29.0000000+00:00</time></trkpt><trkpt lat="39.46085558" lon="-0.37312872"><ele>22.2</ele><time>2022-11-06T14:32:30.0000000+00:00</time></trkpt><trkpt lat="39.46089037" lon="-0.37310382"><ele>22.2</ele><time>2022-11-06T14:32:31.0000000+00:00</time></trkpt><trkpt lat="39.4608726" lon="-0.37314054"><ele>22.2</ele><time>2022-11-06T14:32:32.0000000+00:00</time></trkpt><trkpt lat="39.46087587" lon="-0.37313333"><ele>22.2</ele><time>2022-11-06T14:32:33.0000000+00:00</time></trkpt><trkpt lat="39.46086614" lon="-0.3731464"><ele>22.2</ele><time>2022-11-06T14:32:34.0000000+00:00</time></trkpt><trkpt lat="39.46087897" lon="-0.37308773"><ele>22.2</ele><time>2022-11-06T14:32:35.0000000+00:00</time></trkpt><trkpt lat="39.46086941" lon="-0.3730967"><ele>22.2</ele><time>2022-11-06T14:32:36.0000000+00:00</time></trkpt><trkpt lat="39.46086623" lon="-0.37310307"><ele>22.2</ele><time>2022-11-06T14:32:37.0000000+00:00</time></trkpt><trkpt lat="39.46088115" lon="-0.3730744"><ele>22.2</ele><time>2022-11-06T14:32:38.0000000+00:00</time></trkpt><trkpt lat="39.46088869" lon="-0.37307013"><ele>22.2</ele><time>2022-11-06T14:32:39.0000000+00:00</time></trkpt><trkpt lat="39.46089272" lon="-0.37306753"><ele>22.2</ele><time>2022-11-06T14:32:40.0000000+00:00</time></trkpt><trkpt lat="39.46089892" lon="-0.37306535"><ele>22.2</ele><time>2022-11-06T14:32:41.0000000+00:00</time></trkpt><trkpt lat="39.46090789" lon="-0.37305739"><ele>22.2</ele><time>2022-11-06T14:32:42.0000000+00:00</time></trkpt><trkpt lat="39.46091208" lon="-0.37305052"><ele>22.2</ele><time>2022-11-06T14:32:43.0000000+00:00</time></trkpt><trkpt lat="39.4609156" lon="-0.37303903"><ele>22.2</ele><time>2022-11-06T14:32:44.0000000+00:00</time></trkpt><trkpt lat="39.46091895" lon="-0.37302353"><ele>22.2</ele><time>2022-11-06T14:32:45.0000000+00:00</time></trkpt><trkpt lat="39.46091887" lon="-0.37302109"><ele>22.2</ele><time>2022-11-06T14:32:46.0000000+00:00</time></trkpt><trkpt lat="39.4609104" lon="-0.37301665"><ele>22.2</ele><time>2022-11-06T14:32:47.0000000+00:00</time></trkpt><trkpt lat="39.4608923" lon="-0.37301255"><ele>22.2</ele><time>2022-11-06T14:32:48.0000000+00:00</time></trkpt><trkpt lat="39.46087184" lon="-0.37302068"><ele>22.2</ele><time>2022-11-06T14:32:49.0000000+00:00</time></trkpt><trkpt lat="39.46085248" lon="-0.37303241"><ele>22.2</ele><time>2022-11-06T14:32:50.0000000+00:00</time></trkpt><trkpt lat="39.46082943" lon="-0.37304666"><ele>22.2</ele><time>2022-11-06T14:32:51.0000000+00:00</time></trkpt><trkpt lat="39.46081275" lon="-0.37305714"><ele>22.2</ele><time>2022-11-06T14:32:52.0000000+00:00</time></trkpt><trkpt lat="39.46080504" lon="-0.37306359"><ele>22.2</ele><time>2022-11-06T14:32:53.0000000+00:00</time></trkpt><trkpt lat="39.46080613" lon="-0.37306418"><ele>22.2</ele><time>2022-11-06T14:32:54.0000000+00:00</time></trkpt><trkpt lat="39.46079632" lon="-0.37306996"><ele>22.2</ele><time>2022-11-06T14:32:55.0000000+00:00</time></trkpt><trkpt lat="39.46078224" lon="-0.37306988"><ele>22.2</ele><time>2022-11-06T14:32:56.0000000+00:00</time></trkpt><trkpt lat="39.46076439" lon="-0.37307222"><ele>22.2</ele><time>2022-11-06T14:32:57.0000000+00:00</time></trkpt><trkpt lat="39.4607431" lon="-0.37307994"><ele>22.2</ele><time>2022-11-06T14:32:58.0000000+00:00</time></trkpt><trkpt lat="39.46071644" lon="-0.37308765"><ele>22.2</ele><time>2022-11-06T14:32:59.0000000+00:00</time></trkpt><trkpt lat="39.46069113" lon="-0.37309393"><ele>22.2</ele><time>2022-11-06T14:33:00.0000000+00:00</time></trkpt><trkpt lat="39.4606721" lon="-0.37309787"><ele>22.2</ele><time>2022-11-06T14:33:01.0000000+00:00</time></trkpt><trkpt lat="39.46066322" lon="-0.37310156"><ele>22.2</ele><time>2022-11-06T14:33:02.0000000+00:00</time></trkpt><trkpt lat="39.46064763" lon="-0.37311288"><ele>22.2</ele><time>2022-11-06T14:33:03.0000000+00:00</time></trkpt><trkpt lat="39.46063455" lon="-0.3731231"><ele>22.2</ele><time>2022-11-06T14:33:04.0000000+00:00</time></trkpt><trkpt lat="39.46063715" lon="-0.37313526"><ele>22.2</ele><time>2022-11-06T14:33:05.0000000+00:00</time></trkpt><trkpt lat="39.46066598" lon="-0.37312537"><ele>22.2</ele><time>2022-11-06T14:33:06.0000000+00:00</time></trkpt><trkpt lat="39.4606685" lon="-0.37312134"><ele>22.2</ele><time>2022-11-06T14:33:07.0000000+00:00</time></trkpt><trkpt lat="39.46068132" lon="-0.37311019"><ele>22.2</ele><time>2022-11-06T14:33:08.0000000+00:00</time></trkpt><trkpt lat="39.46069038" lon="-0.37310265"><ele>22.2</ele><time>2022-11-06T14:33:09.0000000+00:00</time></trkpt><trkpt lat="39.46069205" lon="-0.37310081"><ele>22.2</ele><time>2022-11-06T14:33:10.0000000+00:00</time></trkpt><trkpt lat="39.46069096" lon="-0.3731003"><ele>22.2</ele><time>2022-11-06T14:33:11.0000000+00:00</time></trkpt><trkpt lat="39.46069247" lon="-0.37310282"><ele>22.2</ele><time>2022-11-06T14:33:12.0000000+00:00</time></trkpt><trkpt lat="39.46071083" lon="-0.37310123"><ele>22.2</ele><time>2022-11-06T14:33:13.0000000+00:00</time></trkpt><trkpt lat="39.4607312" lon="-0.37309335"><ele>22.2</ele><time>2022-11-06T14:33:14.0000000+00:00</time></trkpt><trkpt lat="39.46074637" lon="-0.37309343"><ele>22.2</ele><time>2022-11-06T14:33:15.0000000+00:00</time></trkpt><trkpt lat="39.46074436" lon="-0.37309511"><ele>22.2</ele><time>2022-11-06T14:33:16.0000000+00:00</time></trkpt><trkpt lat="39.4607602" lon="-0.3730972"><ele>22.2</ele><time>2022-11-06T14:33:17.0000000+00:00</time></trkpt><trkpt lat="39.46078233" lon="-0.37309712"><ele>22.2</ele><time>2022-11-06T14:33:18.0000000+00:00</time></trkpt><trkpt lat="39.4608042" lon="-0.37308312"><ele>22.2</ele><time>2022-11-06T14:33:19.0000000+00:00</time></trkpt><trkpt lat="39.46083019" lon="-0.37308647"><ele>22.2</ele><time>2022-11-06T14:33:20.0000000+00:00</time></trkpt><trkpt lat="39.46084159" lon="-0.37308597"><ele>22.2</ele><time>2022-11-06T14:33:21.0000000+00:00</time></trkpt><trkpt lat="39.46085064" lon="-0.37307683"><ele>22.2</ele><time>2022-11-06T14:33:22.0000000+00:00</time></trkpt><trkpt lat="39.46084318" lon="-0.37307625"><ele>22.2</ele><time>2022-11-06T14:33:23.0000000+00:00</time></trkpt><trkpt lat="39.46079766" lon="-0.37309025"><ele>22.2</ele><time>2022-11-06T14:33:24.0000000+00:00</time></trkpt><trkpt lat="39.46080546" lon="-0.37309603"><ele>22.2</ele><time>2022-11-06T14:33:25.0000000+00:00</time></trkpt><trkpt lat="39.46081233" lon="-0.37309527"><ele>22.2</ele><time>2022-11-06T14:33:26.0000000+00:00</time></trkpt><trkpt lat="39.4608265" lon="-0.37309092"><ele>22.2</ele><time>2022-11-06T14:33:27.0000000+00:00</time></trkpt><trkpt lat="39.46083052" lon="-0.37309108"><ele>22.2</ele><time>2022-11-06T14:33:28.0000000+00:00</time></trkpt><trkpt lat="39.46082759" lon="-0.37309159"><ele>22.2</ele><time>2022-11-06T14:33:29.0000000+00:00</time></trkpt><trkpt lat="39.46080747" lon="-0.37311003"><ele>22.2</ele><time>2022-11-06T14:33:30.0000000+00:00</time></trkpt><trkpt lat="39.46079616" lon="-0.37311648"><ele>22.2</ele><time>2022-11-06T14:33:31.0000000+00:00</time></trkpt><trkpt lat="39.46079859" lon="-0.37311648"><ele>22.2</ele><time>2022-11-06T14:33:32.0000000+00:00</time></trkpt><trkpt lat="39.46079238" lon="-0.37311849"><ele>22.2</ele><time>2022-11-06T14:33:33.0000000+00:00</time></trkpt><trkpt lat="39.46079004" lon="-0.37312059"><ele>22.2</ele><time>2022-11-06T14:33:34.0000000+00:00</time></trkpt><trkpt lat="39.46079071" lon="-0.37312101"><ele>22.2</ele><time>2022-11-06T14:33:35.0000000+00:00</time></trkpt><trkpt lat="39.46079272" lon="-0.37312151"><ele>22.2</ele><time>2022-11-06T14:33:36.0000000+00:00</time></trkpt><trkpt lat="39.46081267" lon="-0.37311941"><ele>22.2</ele><time>2022-11-06T14:33:37.0000000+00:00</time></trkpt><trkpt lat="39.46081451" lon="-0.37311908"><ele>22.2</ele><time>2022-11-06T14:33:38.0000000+00:00</time></trkpt><trkpt lat="39.46081393" lon="-0.37312034"><ele>22.2</ele><time>2022-11-06T14:33:39.0000000+00:00</time></trkpt><trkpt lat="39.46082038" lon="-0.37311933"><ele>22.2</ele><time>2022-11-06T14:33:40.0000000+00:00</time></trkpt><trkpt lat="39.46081854" lon="-0.37311179"><ele>22.2</ele><time>2022-11-06T14:33:41.0000000+00:00</time></trkpt><trkpt lat="39.46083144" lon="-0.37310617"><ele>22.2</ele><time>2022-11-06T14:33:42.0000000+00:00</time></trkpt><trkpt lat="39.46084913" lon="-0.37310257"><ele>22.2</ele><time>2022-11-06T14:33:43.0000000+00:00</time></trkpt><trkpt lat="39.46085391" lon="-0.37310232"><ele>22.2</ele><time>2022-11-06T14:33:44.0000000+00:00</time></trkpt><trkpt lat="39.46086036" lon="-0.37309393"><ele>22.2</ele><time>2022-11-06T14:33:45.0000000+00:00</time></trkpt><trkpt lat="39.46087218" lon="-0.37308438"><ele>22.2</ele><time>2022-11-06T14:33:46.0000000+00:00</time></trkpt><trkpt lat="39.46087453" lon="-0.37308086"><ele>22.2</ele><time>2022-11-06T14:33:47.0000000+00:00</time></trkpt><trkpt lat="39.46087654" lon="-0.37307792"><ele>22.2</ele><time>2022-11-06T14:33:48.0000000+00:00</time></trkpt><trkpt lat="39.46087645" lon="-0.37307734"><ele>22.2</ele><time>2022-11-06T14:33:49.0000000+00:00</time></trkpt><trkpt lat="39.46087587" lon="-0.37307734"><ele>22.2</ele><time>2022-11-06T14:33:50.0000000+00:00</time></trkpt><trkpt lat="39.46087034" lon="-0.37308228"><ele>22.2</ele><time>2022-11-06T14:33:51.0000000+00:00</time></trkpt><trkpt lat="39.46086849" lon="-0.37308429"><ele>22.2</ele><time>2022-11-06T14:33:52.0000000+00:00</time></trkpt><trkpt lat="39.4608664" lon="-0.37308656"><ele>22.2</ele><time>2022-11-06T14:33:53.0000000+00:00</time></trkpt><trkpt lat="39.4608643" lon="-0.37308916"><ele>22.2</ele><time>2022-11-06T14:33:54.0000000+00:00</time></trkpt><trkpt lat="39.46086422" lon="-0.37309075"><ele>22.2</ele><time>2022-11-06T14:33:55.0000000+00:00</time></trkpt><trkpt lat="39.46086321" lon="-0.37309201"><ele>22.2</ele><time>2022-11-06T14:33:56.0000000+00:00</time></trkpt><trkpt lat="39.46086296" lon="-0.37309368"><ele>22.2</ele><time>2022-11-06T14:33:57.0000000+00:00</time></trkpt><trkpt lat="39.46086388" lon="-0.37309502"><ele>22.2</ele><time>2022-11-06T14:33:58.0000000+00:00</time></trkpt><trkpt lat="39.46087604" lon="-0.37309318"><ele>22.2</ele><time>2022-11-06T14:33:59.0000000+00:00</time></trkpt><trkpt lat="39.46087386" lon="-0.37309452"><ele>22.2</ele><time>2022-11-06T14:34:00.0000000+00:00</time></trkpt><trkpt lat="39.46087151" lon="-0.37309494"><ele>22.2</ele><time>2022-11-06T14:34:01.0000000+00:00</time></trkpt><trkpt lat="39.46087034" lon="-0.37309444"><ele>22.2</ele><time>2022-11-06T14:34:02.0000000+00:00</time></trkpt><trkpt lat="39.46087008" lon="-0.37309293"><ele>22.2</ele><time>2022-11-06T14:34:03.0000000+00:00</time></trkpt><trkpt lat="39.46086975" lon="-0.37309268"><ele>22.2</ele><time>2022-11-06T14:34:04.0000000+00:00</time></trkpt><trkpt lat="39.46086925" lon="-0.37309377"><ele>22.2</ele><time>2022-11-06T14:34:05.0000000+00:00</time></trkpt><trkpt lat="39.46086925" lon="-0.37309519"><ele>22.2</ele><time>2022-11-06T14:34:06.0000000+00:00</time></trkpt><trkpt lat="39.46086765" lon="-0.37309812"><ele>22.2</ele><time>2022-11-06T14:34:07.0000000+00:00</time></trkpt><trkpt lat="39.46086966" lon="-0.37309486"><ele>22.2</ele><time>2022-11-06T14:34:08.0000000+00:00</time></trkpt><trkpt lat="39.46086774" lon="-0.37309854"><ele>22.2</ele><time>2022-11-06T14:34:09.0000000+00:00</time></trkpt><trkpt lat="39.46086681" lon="-0.37310097"><ele>22.2</ele><time>2022-11-06T14:34:10.0000000+00:00</time></trkpt><trkpt lat="39.46086598" lon="-0.37310072"><ele>22.2</ele><time>2022-11-06T14:34:11.0000000+00:00</time></trkpt><trkpt lat="39.46086531" lon="-0.37310123"><ele>22.2</ele><time>2022-11-06T14:34:12.0000000+00:00</time></trkpt><trkpt lat="39.46086472" lon="-0.37310198"><ele>22.2</ele><time>2022-11-06T14:34:13.0000000+00:00</time></trkpt><trkpt lat="39.46086505" lon="-0.37310232"><ele>22.2</ele><time>2022-11-06T14:34:14.0000000+00:00</time></trkpt><trkpt lat="39.46086413" lon="-0.3731019"><ele>22.2</ele><time>2022-11-06T14:34:15.0000000+00:00</time></trkpt><trkpt lat="39.46086413" lon="-0.37310173"><ele>22.2</ele><time>2022-11-06T14:34:16.0000000+00:00</time></trkpt><trkpt lat="39.46086581" lon="-0.37310005"><ele>22.2</ele><time>2022-11-06T14:34:17.0000000+00:00</time></trkpt><trkpt lat="39.4608664" lon="-0.37309988"><ele>22.2</ele><time>2022-11-06T14:34:18.0000000+00:00</time></trkpt><trkpt lat="39.46086673" lon="-0.37310123"><ele>22.2</ele><time>2022-11-06T14:34:19.0000000+00:00</time></trkpt><trkpt lat="39.46086673" lon="-0.37310123"><ele>22.2</ele><time>2022-11-06T14:34:20.0000000+00:00</time></trkpt><trkpt lat="39.46086673" lon="-0.37310123"><ele>22.2</ele><time>2022-11-06T14:34:21.0000000+00:00</time></trkpt><trkpt lat="39.46086673" lon="-0.37310123"><ele>22.2</ele><time>2022-11-06T14:34:22.0000000+00:00</time></trkpt><trkpt lat="39.46086673" lon="-0.37310123"><ele>22.2</ele><time>2022-11-06T14:34:23.0000000+00:00</time></trkpt><trkpt lat="39.46086673" lon="-0.37310123"><ele>22.2</ele><time>2022-11-06T14:34:24.0000000+00:00</time></trkpt><trkpt lat="39.46086673" lon="-0.37310123"><ele>22.2</ele><time>2022-11-06T14:34:25.0000000+00:00</time></trkpt><trkpt lat="39.46086673" lon="-0.37310123"><ele>22.2</ele><time>2022-11-06T14:34:26.0000000+00:00</time></trkpt><trkpt lat="39.46086673" lon="-0.37310123"><ele>22.2</ele><time>2022-11-06T14:34:27.0000000+00:00</time></trkpt><trkpt lat="39.46086908" lon="-0.37310081"><ele>22.2</ele><time>2022-11-06T14:34:28.0000000+00:00</time></trkpt><trkpt lat="39.46087528" lon="-0.373105"><ele>22.2</ele><time>2022-11-06T14:34:29.0000000+00:00</time></trkpt><trkpt lat="39.46088341" lon="-0.37310776"><ele>22.2</ele><time>2022-11-06T14:34:30.0000000+00:00</time></trkpt><trkpt lat="39.46088861" lon="-0.37311053"><ele>22.2</ele><time>2022-11-06T14:34:31.0000000+00:00</time></trkpt><trkpt lat="39.4608907" lon="-0.37311824"><ele>22.2</ele><time>2022-11-06T14:34:32.0000000+00:00</time></trkpt><trkpt lat="39.46089255" lon="-0.37312159"><ele>22.2</ele><time>2022-11-06T14:34:33.0000000+00:00</time></trkpt><trkpt lat="39.46089984" lon="-0.37312889"><ele>22.2</ele><time>2022-11-06T14:34:34.0000000+00:00</time></trkpt><trkpt lat="39.46090244" lon="-0.37313811"><ele>22.2</ele><time>2022-11-06T14:34:35.0000000+00:00</time></trkpt><trkpt lat="39.46090923" lon="-0.3731459"><ele>22.2</ele><time>2022-11-06T14:34:36.0000000+00:00</time></trkpt><trkpt lat="39.46090487" lon="-0.37314892"><ele>22.2</ele><time>2022-11-06T14:34:37.0000000+00:00</time></trkpt><trkpt lat="39.46089624" lon="-0.37314892"><ele>22.2</ele><time>2022-11-06T14:34:38.0000000+00:00</time></trkpt><trkpt lat="39.46089364" lon="-0.37314607"><ele>22.2</ele><time>2022-11-06T14:34:39.0000000+00:00</time></trkpt><trkpt lat="39.46089095" lon="-0.37314925"><ele>22.2</ele><time>2022-11-06T14:34:40.0000000+00:00</time></trkpt><trkpt lat="39.46088685" lon="-0.37315118"><ele>22.2</ele><time>2022-11-06T14:34:41.0000000+00:00</time></trkpt><trkpt lat="39.46088567" lon="-0.37315227"><ele>22.2</ele><time>2022-11-06T14:34:42.0000000+00:00</time></trkpt><trkpt lat="39.46088492" lon="-0.37315009"><ele>22.2</ele><time>2022-11-06T14:34:43.0000000+00:00</time></trkpt><trkpt lat="39.46088526" lon="-0.37315051"><ele>22.2</ele><time>2022-11-06T14:34:44.0000000+00:00</time></trkpt><trkpt lat="39.46088526" lon="-0.37315051"><ele>22.2</ele><time>2022-11-06T14:34:45.0000000+00:00</time></trkpt><trkpt lat="39.46088526" lon="-0.37315051"><ele>22.2</ele><time>2022-11-06T14:34:46.0000000+00:00</time></trkpt><trkpt lat="39.46088526" lon="-0.37315051"><ele>22.2</ele><time>2022-11-06T14:34:47.0000000+00:00</time></trkpt><trkpt lat="39.46088526" lon="-0.37315051"><ele>22.2</ele><time>2022-11-06T14:34:48.0000000+00:00</time></trkpt><trkpt lat="39.46088526" lon="-0.37315051"><ele>22.2</ele><time>2022-11-06T14:34:49.0000000+00:00</time></trkpt><trkpt lat="39.46088526" lon="-0.37315051"><ele>22.2</ele><time>2022-11-06T14:34:50.0000000+00:00</time></trkpt><trkpt lat="39.46088526" lon="-0.37315051"><ele>22.2</ele><time>2022-11-06T14:34:51.0000000+00:00</time></trkpt><trkpt lat="39.46088526" lon="-0.37315051"><ele>22.2</ele><time>2022-11-06T14:34:52.0000000+00:00</time></trkpt><trkpt lat="39.46088526" lon="-0.37315051"><ele>22.2</ele><time>2022-11-06T14:34:53.0000000+00:00</time></trkpt><trkpt lat="39.46088526" lon="-0.37315051"><ele>22.2</ele><time>2022-11-06T14:34:54.0000000+00:00</time></trkpt><trkpt lat="39.46088526" lon="-0.37315051"><ele>22.2</ele><time>2022-11-06T14:34:55.0000000+00:00</time></trkpt><trkpt lat="39.46088526" lon="-0.37315051"><ele>22.2</ele><time>2022-11-06T14:34:56.0000000+00:00</time></trkpt><trkpt lat="39.46088526" lon="-0.37315051"><ele>22.2</ele><time>2022-11-06T14:34:57.0000000+00:00</time></trkpt><trkpt lat="39.46088526" lon="-0.37315051"><ele>22.2</ele><time>2022-11-06T14:34:58.0000000+00:00</time></trkpt><trkpt lat="39.460885" lon="-0.37315051"><ele>22.2</ele><time>2022-11-06T14:34:59.0000000+00:00</time></trkpt><trkpt lat="39.46088358" lon="-0.37315051"><ele>22.2</ele><time>2022-11-06T14:35:00.0000000+00:00</time></trkpt><trkpt lat="39.46088282" lon="-0.3731506"><ele>22.2</ele><time>2022-11-06T14:35:01.0000000+00:00</time></trkpt><trkpt lat="39.46088106" lon="-0.37315261"><ele>22.2</ele><time>2022-11-06T14:35:02.0000000+00:00</time></trkpt><trkpt lat="39.46087888" lon="-0.37316602"><ele>22.2</ele><time>2022-11-06T14:35:03.0000000+00:00</time></trkpt><trkpt lat="39.46088274" lon="-0.37316484"><ele>22.2</ele><time>2022-11-06T14:35:04.0000000+00:00</time></trkpt><trkpt lat="39.46088291" lon="-0.37316568"><ele>22.2</ele><time>2022-11-06T14:35:05.0000000+00:00</time></trkpt><trkpt lat="39.46087503" lon="-0.37316535"><ele>22.2</ele><time>2022-11-06T14:35:06.0000000+00:00</time></trkpt><trkpt lat="39.46087645" lon="-0.37316694"><ele>22.2</ele><time>2022-11-06T14:35:07.0000000+00:00</time></trkpt><trkpt lat="39.46088425" lon="-0.37316996"><ele>22.2</ele><time>2022-11-06T14:35:08.0000000+00:00</time></trkpt><trkpt lat="39.46088894" lon="-0.37317473"><ele>22.2</ele><time>2022-11-06T14:35:09.0000000+00:00</time></trkpt><trkpt lat="39.46087981" lon="-0.37318563"><ele>22.2</ele><time>2022-11-06T14:35:10.0000000+00:00</time></trkpt><trkpt lat="39.46087402" lon="-0.37319167"><ele>22.2</ele><time>2022-11-06T14:35:11.0000000+00:00</time></trkpt><trkpt lat="39.46087268" lon="-0.37319158"><ele>22.2</ele><time>2022-11-06T14:35:12.0000000+00:00</time></trkpt><trkpt lat="39.46087268" lon="-0.37319158"><ele>22.2</ele><time>2022-11-06T14:35:13.0000000+00:00</time></trkpt><trkpt lat="39.46087729" lon="-0.37319041"><ele>22.2</ele><time>2022-11-06T14:35:14.0000000+00:00</time></trkpt><trkpt lat="39.46088299" lon="-0.37319016"><ele>22.2</ele><time>2022-11-06T14:35:15.0000000+00:00</time></trkpt><trkpt lat="39.46087989" lon="-0.37318982"><ele>22.2</ele><time>2022-11-06T14:35:16.0000000+00:00</time></trkpt><trkpt lat="39.46088148" lon="-0.37318538"><ele>22.2</ele><time>2022-11-06T14:35:17.0000000+00:00</time></trkpt><trkpt lat="39.46088668" lon="-0.37318345"><ele>22.2</ele><time>2022-11-06T14:35:18.0000000+00:00</time></trkpt><trkpt lat="39.46088794" lon="-0.37318253"><ele>22.2</ele><time>2022-11-06T14:35:19.0000000+00:00</time></trkpt><trkpt lat="39.46089272" lon="-0.37318597"><ele>22.2</ele><time>2022-11-06T14:35:20.0000000+00:00</time></trkpt><trkpt lat="39.46090202" lon="-0.3731868"><ele>22.2</ele><time>2022-11-06T14:35:21.0000000+00:00</time></trkpt><trkpt lat="39.46090277" lon="-0.37318982"><ele>22.2</ele><time>2022-11-06T14:35:22.0000000+00:00</time></trkpt><trkpt lat="39.46090093" lon="-0.37319401"><ele>22.2</ele><time>2022-11-06T14:35:23.0000000+00:00</time></trkpt><trkpt lat="39.46089364" lon="-0.37320038"><ele>22.2</ele><time>2022-11-06T14:35:24.0000000+00:00</time></trkpt><trkpt lat="39.46087511" lon="-0.3731915"><ele>22.2</ele><time>2022-11-06T14:35:25.0000000+00:00</time></trkpt><trkpt lat="39.46088534" lon="-0.37318639"><ele>22.2</ele><time>2022-11-06T14:35:26.0000000+00:00</time></trkpt><trkpt lat="39.46088215" lon="-0.37318857"><ele>22.2</ele><time>2022-11-06T14:35:27.0000000+00:00</time></trkpt><trkpt lat="39.46088006" lon="-0.37318287"><ele>22.2</ele><time>2022-11-06T14:35:28.0000000+00:00</time></trkpt><trkpt lat="39.46087377" lon="-0.37317256"><ele>22.2</ele><time>2022-11-06T14:35:29.0000000+00:00</time></trkpt><trkpt lat="39.46087101" lon="-0.37316409"><ele>22.2</ele><time>2022-11-06T14:35:30.0000000+00:00</time></trkpt><trkpt lat="39.46086153" lon="-0.37315261"><ele>22.2</ele><time>2022-11-06T14:35:31.0000000+00:00</time></trkpt><trkpt lat="39.46084561" lon="-0.37315822"><ele>22.2</ele><time>2022-11-06T14:35:32.0000000+00:00</time></trkpt><trkpt lat="39.46083153" lon="-0.37316392"><ele>22.2</ele><time>2022-11-06T14:35:33.0000000+00:00</time></trkpt><trkpt lat="39.4608156" lon="-0.3731713"><ele>22.2</ele><time>2022-11-06T14:35:34.0000000+00:00</time></trkpt><trkpt lat="39.46080772" lon="-0.37317247"><ele>22.2</ele><time>2022-11-06T14:35:35.0000000+00:00</time></trkpt><trkpt lat="39.46080412" lon="-0.37316116"><ele>22.2</ele><time>2022-11-06T14:35:36.0000000+00:00</time></trkpt><trkpt lat="39.46080026" lon="-0.37314875"><ele>22.2</ele><time>2022-11-06T14:35:37.0000000+00:00</time></trkpt><trkpt lat="39.4607954" lon="-0.37313961"><ele>22.2</ele><time>2022-11-06T14:35:38.0000000+00:00</time></trkpt><trkpt lat="39.46079456" lon="-0.37314163"><ele>22.2</ele><time>2022-11-06T14:35:39.0000000+00:00</time></trkpt><trkpt lat="39.46080278" lon="-0.37313492"><ele>22.2</ele><time>2022-11-06T14:35:40.0000000+00:00</time></trkpt><trkpt lat="39.46081024" lon="-0.37312662"><ele>22.2</ele><time>2022-11-06T14:35:41.0000000+00:00</time></trkpt><trkpt lat="39.46081988" lon="-0.37311866"><ele>22.2</ele><time>2022-11-06T14:35:42.0000000+00:00</time></trkpt><trkpt lat="39.4608265" lon="-0.37311195"><ele>22.2</ele><time>2022-11-06T14:35:43.0000000+00:00</time></trkpt><trkpt lat="39.46082884" lon="-0.37311271"><ele>22.2</ele><time>2022-11-06T14:35:44.0000000+00:00</time></trkpt><trkpt lat="39.46083304" lon="-0.37311053"><ele>22.2</ele><time>2022-11-06T14:35:45.0000000+00:00</time></trkpt><trkpt lat="39.46083362" lon="-0.37310961"><ele>22.2</ele><time>2022-11-06T14:35:46.0000000+00:00</time></trkpt><trkpt lat="39.46083161" lon="-0.37311162"><ele>22.2</ele><time>2022-11-06T14:35:47.0000000+00:00</time></trkpt><trkpt lat="39.4608301" lon="-0.37311279"><ele>22.2</ele><time>2022-11-06T14:35:48.0000000+00:00</time></trkpt><trkpt lat="39.46082943" lon="-0.37311254"><ele>22.2</ele><time>2022-11-06T14:35:49.0000000+00:00</time></trkpt><trkpt lat="39.46083077" lon="-0.37311078"><ele>22.2</ele><time>2022-11-06T14:35:50.0000000+00:00</time></trkpt><trkpt lat="39.46083102" lon="-0.37310986"><ele>22.2</ele><time>2022-11-06T14:35:51.0000000+00:00</time></trkpt><trkpt lat="39.46082884" lon="-0.37311103"><ele>22.2</ele><time>2022-11-06T14:35:52.0000000+00:00</time></trkpt><trkpt lat="39.46082524" lon="-0.37311355"><ele>22.2</ele><time>2022-11-06T14:35:53.0000000+00:00</time></trkpt><trkpt lat="39.46082507" lon="-0.37311195"><ele>22.2</ele><time>2022-11-06T14:35:54.0000000+00:00</time></trkpt><trkpt lat="39.46082532" lon="-0.37311028"><ele>22.2</ele><time>2022-11-06T14:35:55.0000000+00:00</time></trkpt><trkpt lat="39.46082532" lon="-0.37310827"><ele>22.2</ele><time>2022-11-06T14:35:56.0000000+00:00</time></trkpt><trkpt lat="39.46082491" lon="-0.37310969"><ele>22.2</ele><time>2022-11-06T14:35:57.0000000+00:00</time></trkpt><trkpt lat="39.46082382" lon="-0.37310944"><ele>22.2</ele><time>2022-11-06T14:35:58.0000000+00:00</time></trkpt><trkpt lat="39.46082382" lon="-0.37310944"><ele>22.2</ele><time>2022-11-06T14:35:59.0000000+00:00</time></trkpt><trkpt lat="39.46082382" lon="-0.37310944"><ele>22.2</ele><time>2022-11-06T14:36:00.0000000+00:00</time></trkpt><trkpt lat="39.46082382" lon="-0.37310944"><ele>22.2</ele><time>2022-11-06T14:36:01.0000000+00:00</time></trkpt><trkpt lat="39.46082382" lon="-0.37310944"><ele>22.2</ele><time>2022-11-06T14:36:02.0000000+00:00</time></trkpt><trkpt lat="39.46082382" lon="-0.37310944"><ele>22.2</ele><time>2022-11-06T14:36:03.0000000+00:00</time></trkpt><trkpt lat="39.46082382" lon="-0.37310944"><ele>22.2</ele><time>2022-11-06T14:36:04.0000000+00:00</time></trkpt><trkpt lat="39.46082382" lon="-0.37310944"><ele>22.2</ele><time>2022-11-06T14:36:05.0000000+00:00</time></trkpt><trkpt lat="39.46082382" lon="-0.37310944"><ele>22.2</ele><time>2022-11-06T14:36:06.0000000+00:00</time></trkpt><trkpt lat="39.46082491" lon="-0.37310944"><ele>22.2</ele><time>2022-11-06T14:36:07.0000000+00:00</time></trkpt><trkpt lat="39.46082507" lon="-0.37310944"><ele>22.2</ele><time>2022-11-06T14:36:08.0000000+00:00</time></trkpt><trkpt lat="39.46082524" lon="-0.37310944"><ele>22.2</ele><time>2022-11-06T14:36:09.0000000+00:00</time></trkpt><trkpt lat="39.46082532" lon="-0.37310944"><ele>22.2</ele><time>2022-11-06T14:36:10.0000000+00:00</time></trkpt><trkpt lat="39.46082532" lon="-0.37310944"><ele>22.2</ele><time>2022-11-06T14:36:11.0000000+00:00</time></trkpt><trkpt lat="39.46082708" lon="-0.37310944"><ele>22.2</ele><time>2022-11-06T14:36:12.0000000+00:00</time></trkpt><trkpt lat="39.46082876" lon="-0.37310835"><ele>22.2</ele><time>2022-11-06T14:36:13.0000000+00:00</time></trkpt><trkpt lat="39.46083061" lon="-0.37310776"><ele>22.2</ele><time>2022-11-06T14:36:14.0000000+00:00</time></trkpt><trkpt lat="39.46083102" lon="-0.37309846"><ele>22.2</ele><time>2022-11-06T14:36:15.0000000+00:00</time></trkpt><trkpt lat="39.46083262" lon="-0.37308429"><ele>22.2</ele><time>2022-11-06T14:36:16.0000000+00:00</time></trkpt><trkpt lat="39.46083748" lon="-0.37307759"><ele>22.2</ele><time>2022-11-06T14:36:17.0000000+00:00</time></trkpt><trkpt lat="39.4608358" lon="-0.37307382"><ele>22.2</ele><time>2022-11-06T14:36:18.0000000+00:00</time></trkpt><trkpt lat="39.46083614" lon="-0.3730708"><ele>22.2</ele><time>2022-11-06T14:36:19.0000000+00:00</time></trkpt><trkpt lat="39.46083949" lon="-0.37306837"><ele>22.2</ele><time>2022-11-06T14:36:20.0000000+00:00</time></trkpt><trkpt lat="39.46083941" lon="-0.37305831"><ele>22.2</ele><time>2022-11-06T14:36:21.0000000+00:00</time></trkpt><trkpt lat="39.46085198" lon="-0.37304498"><ele>22.2</ele><time>2022-11-06T14:36:22.0000000+00:00</time></trkpt><trkpt lat="39.46087059" lon="-0.373034"><ele>22.2</ele><time>2022-11-06T14:36:23.0000000+00:00</time></trkpt><trkpt lat="39.46089012" lon="-0.37301992"><ele>22.2</ele><time>2022-11-06T14:36:24.0000000+00:00</time></trkpt><trkpt lat="39.46091099" lon="-0.37300735"><ele>22.2</ele><time>2022-11-06T14:36:25.0000000+00:00</time></trkpt><trkpt lat="39.46093865" lon="-0.37299427"><ele>22.2</ele><time>2022-11-06T14:36:26.0000000+00:00</time></trkpt><trkpt lat="39.46095843" lon="-0.3729848"><ele>22.2</ele><time>2022-11-06T14:36:27.0000000+00:00</time></trkpt><trkpt lat="39.46097561" lon="-0.37296938"><ele>22.2</ele><time>2022-11-06T14:36:28.0000000+00:00</time></trkpt><trkpt lat="39.4609876" lon="-0.37295454"><ele>22.2</ele><time>2022-11-06T14:36:29.0000000+00:00</time></trkpt><trkpt lat="39.4609933" lon="-0.37294406"><ele>22.2</ele><time>2022-11-06T14:36:30.0000000+00:00</time></trkpt><trkpt lat="39.4610104" lon="-0.37292697"><ele>22.2</ele><time>2022-11-06T14:36:31.0000000+00:00</time></trkpt><trkpt lat="39.4609943" lon="-0.37293702"><ele>22.2</ele><time>2022-11-06T14:36:32.0000000+00:00</time></trkpt><trkpt lat="39.4609943" lon="-0.37293744"><ele>22.2</ele><time>2022-11-06T14:36:33.0000000+00:00</time></trkpt><trkpt lat="39.46099305" lon="-0.37294398"><ele>22.2</ele><time>2022-11-06T14:36:34.0000000+00:00</time></trkpt><trkpt lat="39.46098433" lon="-0.37294792"><ele>22.2</ele><time>2022-11-06T14:36:35.0000000+00:00</time></trkpt><trkpt lat="39.46098022" lon="-0.37294901"><ele>22.2</ele><time>2022-11-06T14:36:36.0000000+00:00</time></trkpt><trkpt lat="39.46097368" lon="-0.37295781"><ele>22.2</ele><time>2022-11-06T14:36:37.0000000+00:00</time></trkpt><trkpt lat="39.46095994" lon="-0.372991"><ele>22.2</ele><time>2022-11-06T14:36:38.0000000+00:00</time></trkpt><trkpt lat="39.46095256" lon="-0.37301841"><ele>22.2</ele><time>2022-11-06T14:36:39.0000000+00:00</time></trkpt><trkpt lat="39.46094938" lon="-0.37303107"><ele>22.2</ele><time>2022-11-06T14:36:40.0000000+00:00</time></trkpt><trkpt lat="39.46093991" lon="-0.37306979"><ele>22.2</ele><time>2022-11-06T14:36:42.0000000+00:00</time></trkpt><trkpt lat="39.46095399" lon="-0.37302596"><ele>22.2</ele><time>2022-11-06T14:36:43.0000000+00:00</time></trkpt><trkpt lat="39.46099095" lon="-0.37300307"><ele>22.2</ele><time>2022-11-06T14:36:44.0000000+00:00</time></trkpt><trkpt lat="39.46096807" lon="-0.3729931"><ele>22.2</ele><time>2022-11-06T14:36:45.0000000+00:00</time></trkpt><trkpt lat="39.46096237" lon="-0.37299587"><ele>24.0</ele><time>2022-11-06T14:36:46.0000000+00:00</time></trkpt><trkpt lat="39.46092725" lon="-0.37300886"><ele>24.0</ele><time>2022-11-06T14:36:47.0000000+00:00</time></trkpt><trkpt lat="39.46091392" lon="-0.37301271"><ele>24.0</ele><time>2022-11-06T14:36:48.0000000+00:00</time></trkpt><trkpt lat="39.46087587" lon="-0.37301531"><ele>24.0</ele><time>2022-11-06T14:36:49.0000000+00:00</time></trkpt><trkpt lat="39.46086707" lon="-0.37301489"><ele>24.2</ele><time>2022-11-06T14:36:50.0000000+00:00</time></trkpt><trkpt lat="39.46086296" lon="-0.37301942"><ele>24.2</ele><time>2022-11-06T14:36:51.0000000+00:00</time></trkpt><trkpt lat="39.46086388" lon="-0.37302252"><ele>24.2</ele><time>2022-11-06T14:36:52.0000000+00:00</time></trkpt><trkpt lat="39.46087377" lon="-0.37301984"><ele>24.2</ele><time>2022-11-06T14:36:53.0000000+00:00</time></trkpt><trkpt lat="39.46087729" lon="-0.37300525"><ele>24.2</ele><time>2022-11-06T14:36:54.0000000+00:00</time></trkpt><trkpt lat="39.46087176" lon="-0.37299444"><ele>24.2</ele><time>2022-11-06T14:36:55.0000000+00:00</time></trkpt><trkpt lat="39.46088802" lon="-0.37297424"><ele>24.2</ele><time>2022-11-06T14:36:56.0000000+00:00</time></trkpt><trkpt lat="39.46087989" lon="-0.37297801"><ele>24.2</ele><time>2022-11-06T14:36:57.0000000+00:00</time></trkpt><trkpt lat="39.46087495" lon="-0.37298606"><ele>24.2</ele><time>2022-11-06T14:36:58.0000000+00:00</time></trkpt><trkpt lat="39.4608736" lon="-0.37298472"><ele>24.0</ele><time>2022-11-06T14:36:59.0000000+00:00</time></trkpt><trkpt lat="39.46086539" lon="-0.37299268"><ele>24.0</ele><time>2022-11-06T14:37:00.0000000+00:00</time></trkpt><trkpt lat="39.46089121" lon="-0.372991"><ele>24.0</ele><time>2022-11-06T14:37:01.0000000+00:00</time></trkpt><trkpt lat="39.46091266" lon="-0.37298597"><ele>23.8</ele><time>2022-11-06T14:37:02.0000000+00:00</time></trkpt><trkpt lat="39.46091736" lon="-0.3729843"><ele>23.8</ele><time>2022-11-06T14:37:03.0000000+00:00</time></trkpt><trkpt lat="39.46091342" lon="-0.37298338"><ele>23.8</ele><time>2022-11-06T14:37:04.0000000+00:00</time></trkpt><trkpt lat="39.46092247" lon="-0.37297877"><ele>23.8</ele><time>2022-11-06T14:37:05.0000000+00:00</time></trkpt><trkpt lat="39.4609389" lon="-0.37297374"><ele>23.8</ele><time>2022-11-06T14:37:06.0000000+00:00</time></trkpt><trkpt lat="39.46094686" lon="-0.37295521"><ele>23.8</ele><time>2022-11-06T14:37:07.0000000+00:00</time></trkpt><trkpt lat="39.46093504" lon="-0.37295203"><ele>23.8</ele><time>2022-11-06T14:37:08.0000000+00:00</time></trkpt><trkpt lat="39.46093186" lon="-0.37295194"><ele>23.8</ele><time>2022-11-06T14:37:09.0000000+00:00</time></trkpt><trkpt lat="39.46093882" lon="-0.37295513"><ele>23.8</ele><time>2022-11-06T14:37:10.0000000+00:00</time></trkpt><trkpt lat="39.46093345" lon="-0.37296217"><ele>23.8</ele><time>2022-11-06T14:37:11.0000000+00:00</time></trkpt><trkpt lat="39.46092909" lon="-0.37296452"><ele>24.0</ele><time>2022-11-06T14:37:12.0000000+00:00</time></trkpt><trkpt lat="39.46093462" lon="-0.37297323"><ele>24.0</ele><time>2022-11-06T14:37:13.0000000+00:00</time></trkpt><trkpt lat="39.46093437" lon="-0.37297382"><ele>24.0</ele><time>2022-11-06T14:37:14.0000000+00:00</time></trkpt><trkpt lat="39.46093479" lon="-0.37297692"><ele>24.0</ele><time>2022-11-06T14:37:15.0000000+00:00</time></trkpt><trkpt lat="39.46093404" lon="-0.37297977"><ele>24.0</ele><time>2022-11-06T14:37:16.0000000+00:00</time></trkpt><trkpt lat="39.4609363" lon="-0.37298061"><ele>24.0</ele><time>2022-11-06T14:37:17.0000000+00:00</time></trkpt><trkpt lat="39.46094309" lon="-0.37297399"><ele>24.0</ele><time>2022-11-06T14:37:18.0000000+00:00</time></trkpt><trkpt lat="39.46094334" lon="-0.37297214"><ele>24.2</ele><time>2022-11-06T14:37:19.0000000+00:00</time></trkpt><trkpt lat="39.46093136" lon="-0.37297516"><ele>24.2</ele><time>2022-11-06T14:37:20.0000000+00:00</time></trkpt><trkpt lat="39.46093001" lon="-0.37297374"><ele>24.2</ele><time>2022-11-06T14:37:21.0000000+00:00</time></trkpt><trkpt lat="39.46092574" lon="-0.37297701"><ele>24.2</ele><time>2022-11-06T14:37:22.0000000+00:00</time></trkpt><trkpt lat="39.46092364" lon="-0.37297742"><ele>24.2</ele><time>2022-11-06T14:37:23.0000000+00:00</time></trkpt><trkpt lat="39.46092113" lon="-0.37297784"><ele>24.2</ele><time>2022-11-06T14:37:24.0000000+00:00</time></trkpt><trkpt lat="39.46092524" lon="-0.3729786"><ele>24.2</ele><time>2022-11-06T14:37:25.0000000+00:00</time></trkpt><trkpt lat="39.46092758" lon="-0.37297256"><ele>24.2</ele><time>2022-11-06T14:37:26.0000000+00:00</time></trkpt><trkpt lat="39.46093194" lon="-0.37296779"><ele>24.2</ele><time>2022-11-06T14:37:27.0000000+00:00</time></trkpt><trkpt lat="39.46094929" lon="-0.3729589"><ele>24.2</ele><time>2022-11-06T14:37:28.0000000+00:00</time></trkpt><trkpt lat="39.46098718" lon="-0.37295295"><ele>24.2</ele><time>2022-11-06T14:37:29.0000000+00:00</time></trkpt><trkpt lat="39.46098668" lon="-0.37295396"><ele>24.0</ele><time>2022-11-06T14:37:30.0000000+00:00</time></trkpt><trkpt lat="39.46099397" lon="-0.37295194"><ele>24.0</ele><time>2022-11-06T14:37:31.0000000+00:00</time></trkpt><trkpt lat="39.46100386" lon="-0.37294876"><ele>24.0</ele><time>2022-11-06T14:37:32.0000000+00:00</time></trkpt><trkpt lat="39.46098735" lon="-0.37296443"><ele>24.0</ele><time>2022-11-06T14:37:33.0000000+00:00</time></trkpt><trkpt lat="39.46097218" lon="-0.37297248"><ele>24.0</ele><time>2022-11-06T14:37:34.0000000+00:00</time></trkpt><trkpt lat="39.46096698" lon="-0.37297114"><ele>24.2</ele><time>2022-11-06T14:37:35.0000000+00:00</time></trkpt><trkpt lat="39.46096807" lon="-0.3729682"><ele>24.2</ele><time>2022-11-06T14:37:36.0000000+00:00</time></trkpt><trkpt lat="39.46095952" lon="-0.37297273"><ele>24.2</ele><time>2022-11-06T14:37:37.0000000+00:00</time></trkpt><trkpt lat="39.46095684" lon="-0.37297156"><ele>24.2</ele><time>2022-11-06T14:37:38.0000000+00:00</time></trkpt><trkpt lat="39.4609555" lon="-0.37297064"><ele>24.2</ele><time>2022-11-06T14:37:39.0000000+00:00</time></trkpt><trkpt lat="39.46095315" lon="-0.37296988"><ele>24.2</ele><time>2022-11-06T14:37:40.0000000+00:00</time></trkpt><trkpt lat="39.46094619" lon="-0.37297047"><ele>24.2</ele><time>2022-11-06T14:37:41.0000000+00:00</time></trkpt><trkpt lat="39.46093462" lon="-0.37297365"><ele>24.2</ele><time>2022-11-06T14:37:42.0000000+00:00</time></trkpt><trkpt lat="39.46092499" lon="-0.3729817"><ele>24.2</ele><time>2022-11-06T14:37:43.0000000+00:00</time></trkpt><trkpt lat="39.46091962" lon="-0.37298631"><ele>24.2</ele><time>2022-11-06T14:37:44.0000000+00:00</time></trkpt><trkpt lat="39.46091032" lon="-0.3729941"><ele>24.2</ele><time>2022-11-06T14:37:45.0000000+00:00</time></trkpt><trkpt lat="39.46089749" lon="-0.37299545"><ele>24.4</ele><time>2022-11-06T14:37:46.0000000+00:00</time></trkpt><trkpt lat="39.46089841" lon="-0.37299545"><ele>24.4</ele><time>2022-11-06T14:37:47.0000000+00:00</time></trkpt><trkpt lat="39.4608928" lon="-0.37299276"><ele>24.4</ele><time>2022-11-06T14:37:48.0000000+00:00</time></trkpt><trkpt lat="39.46088081" lon="-0.3729962"><ele>24.4</ele><time>2022-11-06T14:37:49.0000000+00:00</time></trkpt><trkpt lat="39.46086774" lon="-0.37299846"><ele>24.4</ele><time>2022-11-06T14:37:50.0000000+00:00</time></trkpt><trkpt lat="39.46086028" lon="-0.3729988"><ele>24.6</ele><time>2022-11-06T14:37:51.0000000+00:00</time></trkpt><trkpt lat="39.46086128" lon="-0.37299545"><ele>24.6</ele><time>2022-11-06T14:37:52.0000000+00:00</time></trkpt><trkpt lat="39.46085927" lon="-0.37300165"><ele>24.6</ele><time>2022-11-06T14:37:53.0000000+00:00</time></trkpt><trkpt lat="39.46086388" lon="-0.37300743"><ele>24.6</ele><time>2022-11-06T14:37:54.0000000+00:00</time></trkpt><trkpt lat="39.46086036" lon="-0.37301933"><ele>24.6</ele><time>2022-11-06T14:37:55.0000000+00:00</time></trkpt><trkpt lat="39.46085818" lon="-0.37302788"><ele>24.6</ele><time>2022-11-06T14:37:56.0000000+00:00</time></trkpt><trkpt lat="39.46085592" lon="-0.37303819"><ele>24.6</ele><time>2022-11-06T14:37:57.0000000+00:00</time></trkpt><trkpt lat="39.46085466" lon="-0.37304741"><ele>24.6</ele><time>2022-11-06T14:37:58.0000000+00:00</time></trkpt><trkpt lat="39.46086447" lon="-0.37305244"><ele>24.6</ele><time>2022-11-06T14:38:00.0000000+00:00</time></trkpt><trkpt lat="39.46086531" lon="-0.37305261"><ele>24.6</ele><time>2022-11-06T14:38:01.0000000+00:00</time></trkpt><trkpt lat="39.46087629" lon="-0.37304557"><ele>24.6</ele><time>2022-11-06T14:38:03.0000000+00:00</time></trkpt><trkpt lat="39.46086145" lon="-0.37304347"><ele>24.6</ele><time>2022-11-06T14:38:04.0000000+00:00</time></trkpt><trkpt lat="39.46085877" lon="-0.37304339"><ele>24.6</ele><time>2022-11-06T14:38:05.0000000+00:00</time></trkpt><trkpt lat="39.46085382" lon="-0.37304875"><ele>24.6</ele><time>2022-11-06T14:38:06.0000000+00:00</time></trkpt><trkpt lat="39.46084502" lon="-0.37305127"><ele>24.6</ele><time>2022-11-06T14:38:07.0000000+00:00</time></trkpt><trkpt lat="39.46084117" lon="-0.37305328"><ele>24.6</ele><time>2022-11-06T14:38:08.0000000+00:00</time></trkpt><trkpt lat="39.46083899" lon="-0.37305621"><ele>24.6</ele><time>2022-11-06T14:38:09.0000000+00:00</time></trkpt><trkpt lat="39.46083815" lon="-0.37305814"><ele>24.6</ele><time>2022-11-06T14:38:10.0000000+00:00</time></trkpt><trkpt lat="39.46084024" lon="-0.37306259"><ele>24.6</ele><time>2022-11-06T14:38:11.0000000+00:00</time></trkpt><trkpt lat="39.46084309" lon="-0.37306309"><ele>24.6</ele><time>2022-11-06T14:38:12.0000000+00:00</time></trkpt><trkpt lat="39.46085609" lon="-0.37304976"><ele>24.6</ele><time>2022-11-06T14:38:13.0000000+00:00</time></trkpt><trkpt lat="39.46086044" lon="-0.37304155"><ele>24.6</ele><time>2022-11-06T14:38:14.0000000+00:00</time></trkpt><trkpt lat="39.4608736" lon="-0.37303031"><ele>24.6</ele><time>2022-11-06T14:38:15.0000000+00:00</time></trkpt><trkpt lat="39.46088559" lon="-0.37301992"><ele>24.6</ele><time>2022-11-06T14:38:16.0000000+00:00</time></trkpt><trkpt lat="39.46089372" lon="-0.37301472"><ele>24.6</ele><time>2022-11-06T14:38:17.0000000+00:00</time></trkpt><trkpt lat="39.46089649" lon="-0.37300861"><ele>24.6</ele><time>2022-11-06T14:38:18.0000000+00:00</time></trkpt><trkpt lat="39.46088651" lon="-0.37300441"><ele>24.6</ele><time>2022-11-06T14:38:19.0000000+00:00</time></trkpt><trkpt lat="39.46088182" lon="-0.37299234"><ele>24.6</ele><time>2022-11-06T14:38:20.0000000+00:00</time></trkpt><trkpt lat="39.46086556" lon="-0.37298665"><ele>24.6</ele><time>2022-11-06T14:38:21.0000000+00:00</time></trkpt><trkpt lat="39.4608291" lon="-0.37300031"><ele>24.6</ele><time>2022-11-06T14:38:22.0000000+00:00</time></trkpt><trkpt lat="39.46083589" lon="-0.37300525"><ele>24.6</ele><time>2022-11-06T14:38:23.0000000+00:00</time></trkpt><trkpt lat="39.46082641" lon="-0.37301087"><ele>24.6</ele><time>2022-11-06T14:38:24.0000000+00:00</time></trkpt><trkpt lat="39.46083304" lon="-0.37301296"><ele>24.6</ele><time>2022-11-06T14:38:25.0000000+00:00</time></trkpt><trkpt lat="39.46082993" lon="-0.37301271"><ele>24.6</ele><time>2022-11-06T14:38:26.0000000+00:00</time></trkpt><trkpt lat="39.46083907" lon="-0.37300517"><ele>24.6</ele><time>2022-11-06T14:38:27.0000000+00:00</time></trkpt><trkpt lat="39.46086036" lon="-0.37299729"><ele>24.6</ele><time>2022-11-06T14:38:28.0000000+00:00</time></trkpt><trkpt lat="39.46087092" lon="-0.37299461"><ele>24.6</ele><time>2022-11-06T14:38:29.0000000+00:00</time></trkpt><trkpt lat="39.46088542" lon="-0.37300006"><ele>24.6</ele><time>2022-11-06T14:38:30.0000000+00:00</time></trkpt><trkpt lat="39.4608923" lon="-0.37300559"><ele>24.6</ele><time>2022-11-06T14:38:31.0000000+00:00</time></trkpt><trkpt lat="39.46088878" lon="-0.37301011"><ele>24.6</ele><time>2022-11-06T14:38:32.0000000+00:00</time></trkpt><trkpt lat="39.46088928" lon="-0.37301892"><ele>24.6</ele><time>2022-11-06T14:38:33.0000000+00:00</time></trkpt><trkpt lat="39.46086883" lon="-0.37302537"><ele>24.6</ele><time>2022-11-06T14:38:34.0000000+00:00</time></trkpt><trkpt lat="39.46085902" lon="-0.3730242"><ele>24.6</ele><time>2022-11-06T14:38:35.0000000+00:00</time></trkpt><trkpt lat="39.46085399" lon="-0.37302185"><ele>24.6</ele><time>2022-11-06T14:38:36.0000000+00:00</time></trkpt><trkpt lat="39.46083463" lon="-0.37301908"><ele>24.6</ele><time>2022-11-06T14:38:37.0000000+00:00</time></trkpt><trkpt lat="39.46083211" lon="-0.37301992"><ele>24.6</ele><time>2022-11-06T14:38:38.0000000+00:00</time></trkpt><trkpt lat="39.46082633" lon="-0.37302193"><ele>24.6</ele><time>2022-11-06T14:38:39.0000000+00:00</time></trkpt><trkpt lat="39.46082809" lon="-0.37302285"><ele>24.6</ele><time>2022-11-06T14:38:40.0000000+00:00</time></trkpt><trkpt lat="39.46083874" lon="-0.37302218"><ele>24.6</ele><time>2022-11-06T14:38:41.0000000+00:00</time></trkpt><trkpt lat="39.46083932" lon="-0.37301615"><ele>24.6</ele><time>2022-11-06T14:38:42.0000000+00:00</time></trkpt><trkpt lat="39.4608073" lon="-0.37300567"><ele>24.6</ele><time>2022-11-06T14:38:43.0000000+00:00</time></trkpt><trkpt lat="39.46079649" lon="-0.37299729"><ele>24.6</ele><time>2022-11-06T14:38:44.0000000+00:00</time></trkpt><trkpt lat="39.46080303" lon="-0.37299561"><ele>24.6</ele><time>2022-11-06T14:38:45.0000000+00:00</time></trkpt><trkpt lat="39.46083362" lon="-0.37299804"><ele>24.6</ele><time>2022-11-06T14:38:46.0000000+00:00</time></trkpt><trkpt lat="39.46083966" lon="-0.37299419"><ele>24.6</ele><time>2022-11-06T14:38:47.0000000+00:00</time></trkpt><trkpt lat="39.46086849" lon="-0.37299075"><ele>24.6</ele><time>2022-11-06T14:38:48.0000000+00:00</time></trkpt><trkpt lat="39.4608757" lon="-0.37299075"><ele>24.6</ele><time>2022-11-06T14:38:49.0000000+00:00</time></trkpt><trkpt lat="39.46090671" lon="-0.37298824"><ele>24.6</ele><time>2022-11-06T14:38:50.0000000+00:00</time></trkpt><trkpt lat="39.4609311" lon="-0.37298086"><ele>24.6</ele><time>2022-11-06T14:38:51.0000000+00:00</time></trkpt><trkpt lat="39.46093647" lon="-0.37298254"><ele>24.6</ele><time>2022-11-06T14:38:52.0000000+00:00</time></trkpt><trkpt lat="39.46093814" lon="-0.3729848"><ele>24.6</ele><time>2022-11-06T14:38:53.0000000+00:00</time></trkpt><trkpt lat="39.46094284" lon="-0.37298681"><ele>24.6</ele><time>2022-11-06T14:38:54.0000000+00:00</time></trkpt><trkpt lat="39.4609441" lon="-0.37298882"><ele>24.6</ele><time>2022-11-06T14:38:55.0000000+00:00</time></trkpt><trkpt lat="39.46095667" lon="-0.37298606"><ele>24.6</ele><time>2022-11-06T14:38:56.0000000+00:00</time></trkpt><trkpt lat="39.46097125" lon="-0.37298732"><ele>24.6</ele><time>2022-11-06T14:38:57.0000000+00:00</time></trkpt><trkpt lat="39.46098408" lon="-0.37298866"><ele>24.6</ele><time>2022-11-06T14:38:58.0000000+00:00</time></trkpt><trkpt lat="39.46099682" lon="-0.37298782"><ele>24.6</ele><time>2022-11-06T14:38:59.0000000+00:00</time></trkpt><trkpt lat="39.46100344" lon="-0.37298882"><ele>24.6</ele><time>2022-11-06T14:39:00.0000000+00:00</time></trkpt><trkpt lat="39.46099908" lon="-0.37298924"><ele>24.6</ele><time>2022-11-06T14:39:01.0000000+00:00</time></trkpt><trkpt lat="39.4609798" lon="-0.37299251"><ele>24.6</ele><time>2022-11-06T14:39:02.0000000+00:00</time></trkpt><trkpt lat="39.4609622" lon="-0.37300207"><ele>24.6</ele><time>2022-11-06T14:39:03.0000000+00:00</time></trkpt><trkpt lat="39.46091962" lon="-0.37301967"><ele>24.6</ele><time>2022-11-06T14:39:04.0000000+00:00</time></trkpt><trkpt lat="39.46090319" lon="-0.3729993"><ele>24.6</ele><time>2022-11-06T14:39:05.0000000+00:00</time></trkpt><trkpt lat="39.46088215" lon="-0.37299955"><ele>24.6</ele><time>2022-11-06T14:39:06.0000000+00:00</time></trkpt><trkpt lat="39.460827" lon="-0.37303509"><ele>24.6</ele><time>2022-11-06T14:39:07.0000000+00:00</time></trkpt><trkpt lat="39.46082641" lon="-0.37302537"><ele>24.6</ele><time>2022-11-06T14:39:08.0000000+00:00</time></trkpt><trkpt lat="39.46082792" lon="-0.3730159"><ele>24.6</ele><time>2022-11-06T14:39:09.0000000+00:00</time></trkpt><trkpt lat="39.46083211" lon="-0.37301431"><ele>24.6</ele><time>2022-11-06T14:39:10.0000000+00:00</time></trkpt><trkpt lat="39.46083672" lon="-0.37301565"><ele>24.6</ele><time>2022-11-06T14:39:11.0000000+00:00</time></trkpt><trkpt lat="39.46082884" lon="-0.37303233"><ele>24.6</ele><time>2022-11-06T14:39:12.0000000+00:00</time></trkpt><trkpt lat="39.4608348" lon="-0.37304507"><ele>24.6</ele><time>2022-11-06T14:39:13.0000000+00:00</time></trkpt><trkpt lat="39.46083438" lon="-0.37304767"><ele>24.6</ele><time>2022-11-06T14:39:14.0000000+00:00</time></trkpt><trkpt lat="39.46085734" lon="-0.37305479"><ele>24.6</ele><time>2022-11-06T14:39:15.0000000+00:00</time></trkpt><trkpt lat="39.46086137" lon="-0.37305202"><ele>24.6</ele><time>2022-11-06T14:39:16.0000000+00:00</time></trkpt><trkpt lat="39.46086472" lon="-0.37303358"><ele>24.6</ele><time>2022-11-06T14:39:17.0000000+00:00</time></trkpt><trkpt lat="39.4608384" lon="-0.373034"><ele>24.6</ele><time>2022-11-06T14:39:18.0000000+00:00</time></trkpt><trkpt lat="39.4608234" lon="-0.37305085"><ele>24.6</ele><time>2022-11-06T14:39:19.0000000+00:00</time></trkpt><trkpt lat="39.46078979" lon="-0.37306963"><ele>24.6</ele><time>2022-11-06T14:39:20.0000000+00:00</time></trkpt><trkpt lat="39.46078677" lon="-0.37306761"><ele>24.6</ele><time>2022-11-06T14:39:21.0000000+00:00</time></trkpt><trkpt lat="39.46078325" lon="-0.37306468"><ele>24.6</ele><time>2022-11-06T14:39:22.0000000+00:00</time></trkpt><trkpt lat="39.46078098" lon="-0.3730651"><ele>24.6</ele><time>2022-11-06T14:39:23.0000000+00:00</time></trkpt><trkpt lat="39.46082507" lon="-0.37304138"><ele>24.6</ele><time>2022-11-06T14:39:24.0000000+00:00</time></trkpt><trkpt lat="39.46085349" lon="-0.37304247"><ele>24.6</ele><time>2022-11-06T14:39:25.0000000+00:00</time></trkpt><trkpt lat="39.46088743" lon="-0.37301414"><ele>24.6</ele><time>2022-11-06T14:39:26.0000000+00:00</time></trkpt><trkpt lat="39.4608757" lon="-0.37301531"><ele>24.6</ele><time>2022-11-06T14:39:27.0000000+00:00</time></trkpt><trkpt lat="39.46087503" lon="-0.37301422"><ele>24.6</ele><time>2022-11-06T14:39:28.0000000+00:00</time></trkpt><trkpt lat="39.46088048" lon="-0.37300852"><ele>24.6</ele><time>2022-11-06T14:39:29.0000000+00:00</time></trkpt><trkpt lat="39.46087553" lon="-0.37300265"><ele>24.6</ele><time>2022-11-06T14:39:30.0000000+00:00</time></trkpt><trkpt lat="39.46086858" lon="-0.37300022"><ele>24.6</ele><time>2022-11-06T14:39:31.0000000+00:00</time></trkpt><trkpt lat="39.4608586" lon="-0.37299587"><ele>24.6</ele><time>2022-11-06T14:39:32.0000000+00:00</time></trkpt><trkpt lat="39.46085483" lon="-0.37299209"><ele>24.6</ele><time>2022-11-06T14:39:33.0000000+00:00</time></trkpt><trkpt lat="39.46083111" lon="-0.37299955"><ele>24.6</ele><time>2022-11-06T14:39:34.0000000+00:00</time></trkpt><trkpt lat="39.46084502" lon="-0.37299008"><ele>24.6</ele><time>2022-11-06T14:39:35.0000000+00:00</time></trkpt><trkpt lat="39.46085164" lon="-0.37298597"><ele>24.6</ele><time>2022-11-06T14:39:36.0000000+00:00</time></trkpt><trkpt lat="39.46086673" lon="-0.37297885"><ele>24.6</ele><time>2022-11-06T14:39:37.0000000+00:00</time></trkpt><trkpt lat="39.46086162" lon="-0.37297608"><ele>24.6</ele><time>2022-11-06T14:39:38.0000000+00:00</time></trkpt><trkpt lat="39.46086455" lon="-0.37296896"><ele>24.6</ele><time>2022-11-06T14:39:39.0000000+00:00</time></trkpt><trkpt lat="39.46086489" lon="-0.37296083"><ele>24.6</ele><time>2022-11-06T14:39:40.0000000+00:00</time></trkpt><trkpt lat="39.46086531" lon="-0.37295287"><ele>24.6</ele><time>2022-11-06T14:39:41.0000000+00:00</time></trkpt><trkpt lat="39.46086497" lon="-0.37294096"><ele>24.6</ele><time>2022-11-06T14:39:42.0000000+00:00</time></trkpt><trkpt lat="39.46086581" lon="-0.37292546"><ele>24.6</ele><time>2022-11-06T14:39:43.0000000+00:00</time></trkpt><trkpt lat="39.46086447" lon="-0.37292252"><ele>24.6</ele><time>2022-11-06T14:39:44.0000000+00:00</time></trkpt><trkpt lat="39.46087008" lon="-0.37290886"><ele>24.6</ele><time>2022-11-06T14:39:45.0000000+00:00</time></trkpt><trkpt lat="39.46087235" lon="-0.37290199"><ele>24.6</ele><time>2022-11-06T14:39:46.0000000+00:00</time></trkpt><trkpt lat="39.4608736" lon="-0.37289654"><ele>24.6</ele><time>2022-11-06T14:39:47.0000000+00:00</time></trkpt><trkpt lat="39.46086874" lon="-0.37289637"><ele>24.6</ele><time>2022-11-06T14:39:48.0000000+00:00</time></trkpt><trkpt lat="39.46086271" lon="-0.37290978"><ele>24.6</ele><time>2022-11-06T14:39:49.0000000+00:00</time></trkpt><trkpt lat="39.46086195" lon="-0.37292445"><ele>24.6</ele><time>2022-11-06T14:39:50.0000000+00:00</time></trkpt><trkpt lat="39.46086187" lon="-0.37293183"><ele>24.6</ele><time>2022-11-06T14:39:51.0000000+00:00</time></trkpt><trkpt lat="39.46085667" lon="-0.37294524"><ele>24.6</ele><time>2022-11-06T14:39:52.0000000+00:00</time></trkpt><trkpt lat="39.46085768" lon="-0.372947"><ele>24.6</ele><time>2022-11-06T14:39:53.0000000+00:00</time></trkpt><trkpt lat="39.46086573" lon="-0.37296192"><ele>24.6</ele><time>2022-11-06T14:39:54.0000000+00:00</time></trkpt><trkpt lat="39.46085483" lon="-0.3729708"><ele>24.6</ele><time>2022-11-06T14:39:55.0000000+00:00</time></trkpt><trkpt lat="39.46084108" lon="-0.37297801"><ele>24.6</ele><time>2022-11-06T14:39:56.0000000+00:00</time></trkpt><trkpt lat="39.46085315" lon="-0.37297851"><ele>24.6</ele><time>2022-11-06T14:39:57.0000000+00:00</time></trkpt><trkpt lat="39.46084863" lon="-0.37298681"><ele>24.6</ele><time>2022-11-06T14:39:58.0000000+00:00</time></trkpt><trkpt lat="39.46083354" lon="-0.37300467"><ele>24.6</ele><time>2022-11-06T14:39:59.0000000+00:00</time></trkpt><trkpt lat="39.46082809" lon="-0.37302353"><ele>24.6</ele><time>2022-11-06T14:40:00.0000000+00:00</time></trkpt><trkpt lat="39.46080873" lon="-0.37303694"><ele>24.6</ele><time>2022-11-06T14:40:01.0000000+00:00</time></trkpt><trkpt lat="39.46077193" lon="-0.3730454"><ele>24.6</ele><time>2022-11-06T14:40:02.0000000+00:00</time></trkpt><trkpt lat="39.46076958" lon="-0.37304658"><ele>24.6</ele><time>2022-11-06T14:40:03.0000000+00:00</time></trkpt><trkpt lat="39.46076137" lon="-0.37303953"><ele>24.6</ele><time>2022-11-06T14:40:04.0000000+00:00</time></trkpt><trkpt lat="39.46076389" lon="-0.37303878"><ele>24.6</ele><time>2022-11-06T14:40:05.0000000+00:00</time></trkpt><trkpt lat="39.46076699" lon="-0.37303467"><ele>24.6</ele><time>2022-11-06T14:40:06.0000000+00:00</time></trkpt><trkpt lat="39.46077026" lon="-0.37303157"><ele>24.6</ele><time>2022-11-06T14:40:07.0000000+00:00</time></trkpt><trkpt lat="39.46075601" lon="-0.37303694"><ele>24.6</ele><time>2022-11-06T14:40:08.0000000+00:00</time></trkpt><trkpt lat="39.46074209" lon="-0.37303417"><ele>24.6</ele><time>2022-11-06T14:40:09.0000000+00:00</time></trkpt><trkpt lat="39.46074746" lon="-0.37303409"><ele>24.6</ele><time>2022-11-06T14:40:10.0000000+00:00</time></trkpt><trkpt lat="39.46074226" lon="-0.37304104"><ele>24.6</ele><time>2022-11-06T14:40:11.0000000+00:00</time></trkpt><trkpt lat="39.46075081" lon="-0.37304959"><ele>24.6</ele><time>2022-11-06T14:40:12.0000000+00:00</time></trkpt><trkpt lat="39.46076036" lon="-0.37304951"><ele>24.6</ele><time>2022-11-06T14:40:13.0000000+00:00</time></trkpt><trkpt lat="39.46075969" lon="-0.37304741"><ele>24.6</ele><time>2022-11-06T14:40:14.0000000+00:00</time></trkpt><trkpt lat="39.46076263" lon="-0.37304792"><ele>24.6</ele><time>2022-11-06T14:40:15.0000000+00:00</time></trkpt><trkpt lat="39.46076045" lon="-0.37304984"><ele>24.6</ele><time>2022-11-06T14:40:16.0000000+00:00</time></trkpt><trkpt lat="39.46076229" lon="-0.3730532"><ele>24.6</ele><time>2022-11-06T14:40:17.0000000+00:00</time></trkpt><trkpt lat="39.46074645" lon="-0.37306267"><ele>24.6</ele><time>2022-11-06T14:40:18.0000000+00:00</time></trkpt><trkpt lat="39.46073882" lon="-0.37307608"><ele>24.6</ele><time>2022-11-06T14:40:19.0000000+00:00</time></trkpt><trkpt lat="39.46073606" lon="-0.3730822"><ele>24.6</ele><time>2022-11-06T14:40:20.0000000+00:00</time></trkpt><trkpt lat="39.46072164" lon="-0.37308346"><ele>24.6</ele><time>2022-11-06T14:40:21.0000000+00:00</time></trkpt><trkpt lat="39.46072407" lon="-0.37307859"><ele>24.6</ele><time>2022-11-06T14:40:22.0000000+00:00</time></trkpt><trkpt lat="39.46071535" lon="-0.37308086"><ele>24.6</ele><time>2022-11-06T14:40:23.0000000+00:00</time></trkpt><trkpt lat="39.46072633" lon="-0.37306912"><ele>24.6</ele><time>2022-11-06T14:40:24.0000000+00:00</time></trkpt><trkpt lat="39.46072508" lon="-0.37306753"><ele>24.6</ele><time>2022-11-06T14:40:25.0000000+00:00</time></trkpt><trkpt lat="39.46072332" lon="-0.37306979"><ele>24.6</ele><time>2022-11-06T14:40:26.0000000+00:00</time></trkpt><trkpt lat="39.46072097" lon="-0.37307097"><ele>24.6</ele><time>2022-11-06T14:40:27.0000000+00:00</time></trkpt><trkpt lat="39.46071971" lon="-0.37306795"><ele>24.6</ele><time>2022-11-06T14:40:28.0000000+00:00</time></trkpt><trkpt lat="39.46071854" lon="-0.37306611"><ele>24.6</ele><time>2022-11-06T14:40:29.0000000+00:00</time></trkpt><trkpt lat="39.46071887" lon="-0.37307155"><ele>24.6</ele><time>2022-11-06T14:40:30.0000000+00:00</time></trkpt><trkpt lat="39.46072156" lon="-0.37308002"><ele>24.6</ele><time>2022-11-06T14:40:31.0000000+00:00</time></trkpt><trkpt lat="39.46071753" lon="-0.37307943"><ele>24.6</ele><time>2022-11-06T14:40:32.0000000+00:00</time></trkpt><trkpt lat="39.46072751" lon="-0.37306401"><ele>24.6</ele><time>2022-11-06T14:40:33.0000000+00:00</time></trkpt><trkpt lat="39.46072348" lon="-0.37304289"><ele>24.6</ele><time>2022-11-06T14:40:34.0000000+00:00</time></trkpt><trkpt lat="39.46071745" lon="-0.37303752"><ele>24.6</ele><time>2022-11-06T14:40:35.0000000+00:00</time></trkpt><trkpt lat="39.46071653" lon="-0.37302562"><ele>24.6</ele><time>2022-11-06T14:40:36.0000000+00:00</time></trkpt><trkpt lat="39.46071921" lon="-0.37301196"><ele>24.6</ele><time>2022-11-06T14:40:37.0000000+00:00</time></trkpt><trkpt lat="39.46072139" lon="-0.37299846"><ele>24.6</ele><time>2022-11-06T14:40:38.0000000+00:00</time></trkpt><trkpt lat="39.46072424" lon="-0.37299017"><ele>24.6</ele><time>2022-11-06T14:40:39.0000000+00:00</time></trkpt><trkpt lat="39.46073379" lon="-0.37298556"><ele>24.6</ele><time>2022-11-06T14:40:40.0000000+00:00</time></trkpt><trkpt lat="39.46072558" lon="-0.37298715"><ele>24.6</ele><time>2022-11-06T14:40:41.0000000+00:00</time></trkpt><trkpt lat="39.46072307" lon="-0.37298447"><ele>24.6</ele><time>2022-11-06T14:40:42.0000000+00:00</time></trkpt><trkpt lat="39.46072189" lon="-0.37299461"><ele>24.6</ele><time>2022-11-06T14:40:43.0000000+00:00</time></trkpt><trkpt lat="39.46073597" lon="-0.37299511"><ele>24.6</ele><time>2022-11-06T14:40:44.0000000+00:00</time></trkpt><trkpt lat="39.46073338" lon="-0.37299712"><ele>24.6</ele><time>2022-11-06T14:40:45.0000000+00:00</time></trkpt><trkpt lat="39.46073321" lon="-0.37299905"><ele>24.6</ele><time>2022-11-06T14:40:46.0000000+00:00</time></trkpt><trkpt lat="39.46072977" lon="-0.37300173"><ele>24.6</ele><time>2022-11-06T14:40:47.0000000+00:00</time></trkpt><trkpt lat="39.46072566" lon="-0.37300534"><ele>24.6</ele><time>2022-11-06T14:40:48.0000000+00:00</time></trkpt><trkpt lat="39.46072684" lon="-0.37300819"><ele>24.6</ele><time>2022-11-06T14:40:49.0000000+00:00</time></trkpt><trkpt lat="39.46072734" lon="-0.37301053"><ele>24.6</ele><time>2022-11-06T14:40:50.0000000+00:00</time></trkpt><trkpt lat="39.46073455" lon="-0.37301171"><ele>24.6</ele><time>2022-11-06T14:40:51.0000000+00:00</time></trkpt><trkpt lat="39.46074863" lon="-0.37300274"><ele>24.6</ele><time>2022-11-06T14:40:52.0000000+00:00</time></trkpt><trkpt lat="39.46076187" lon="-0.37298958"><ele>24.6</ele><time>2022-11-06T14:40:53.0000000+00:00</time></trkpt><trkpt lat="39.46076154" lon="-0.37297902"><ele>24.6</ele><time>2022-11-06T14:40:54.0000000+00:00</time></trkpt><trkpt lat="39.4607524" lon="-0.37298564"><ele>24.6</ele><time>2022-11-06T14:40:55.0000000+00:00</time></trkpt><trkpt lat="39.46074737" lon="-0.37298757"><ele>24.6</ele><time>2022-11-06T14:40:56.0000000+00:00</time></trkpt><trkpt lat="39.46074578" lon="-0.37298472"><ele>24.6</ele><time>2022-11-06T14:40:57.0000000+00:00</time></trkpt><trkpt lat="39.46074226" lon="-0.37298656"><ele>24.6</ele><time>2022-11-06T14:40:58.0000000+00:00</time></trkpt><trkpt lat="39.46071468" lon="-0.37297592"><ele>24.6</ele><time>2022-11-06T14:41:10.0000000+00:00</time></trkpt><trkpt lat="39.46068862" lon="-0.37300274"><ele>24.6</ele><time>2022-11-06T14:41:11.0000000+00:00</time></trkpt><trkpt lat="39.4606856" lon="-0.37301464"><ele>24.6</ele><time>2022-11-06T14:41:12.0000000+00:00</time></trkpt><trkpt lat="39.46085156" lon="-0.37291967"><ele>24.6</ele><time>2022-11-06T14:41:27.0000000+00:00</time></trkpt><trkpt lat="39.4608534" lon="-0.37292546"><ele>24.6</ele><time>2022-11-06T14:41:28.0000000+00:00</time></trkpt><trkpt lat="39.46085156" lon="-0.37293007"><ele>24.6</ele><time>2022-11-06T14:41:29.0000000+00:00</time></trkpt><trkpt lat="39.46085164" lon="-0.37293158"><ele>24.6</ele><time>2022-11-06T14:41:30.0000000+00:00</time></trkpt><trkpt lat="39.46085919" lon="-0.37294004"><ele>24.6</ele><time>2022-11-06T14:41:31.0000000+00:00</time></trkpt><trkpt lat="39.46086279" lon="-0.37293845"><ele>24.6</ele><time>2022-11-06T14:41:32.0000000+00:00</time></trkpt><trkpt lat="39.4608674" lon="-0.37295111"><ele>24.6</ele><time>2022-11-06T14:41:33.0000000+00:00</time></trkpt><trkpt lat="39.46086707" lon="-0.37295228"><ele>24.6</ele><time>2022-11-06T14:41:34.0000000+00:00</time></trkpt><trkpt lat="39.46086573" lon="-0.37295354"><ele>24.6</ele><time>2022-11-06T14:41:35.0000000+00:00</time></trkpt><trkpt lat="39.4608679" lon="-0.37295647"><ele>24.6</ele><time>2022-11-06T14:41:36.0000000+00:00</time></trkpt><trkpt lat="39.46086095" lon="-0.3729589"><ele>24.6</ele><time>2022-11-06T14:41:37.0000000+00:00</time></trkpt><trkpt lat="39.46085416" lon="-0.3729698"><ele>24.6</ele><time>2022-11-06T14:41:38.0000000+00:00</time></trkpt><trkpt lat="39.46083153" lon="-0.3729874"><ele>24.6</ele><time>2022-11-06T14:41:39.0000000+00:00</time></trkpt><trkpt lat="39.46080529" lon="-0.37298514"><ele>24.6</ele><time>2022-11-06T14:41:40.0000000+00:00</time></trkpt><trkpt lat="39.46078149" lon="-0.3729941"><ele>24.6</ele><time>2022-11-06T14:41:41.0000000+00:00</time></trkpt><trkpt lat="39.46077277" lon="-0.37299654"><ele>24.6</ele><time>2022-11-06T14:41:42.0000000+00:00</time></trkpt><trkpt lat="39.46076464" lon="-0.37299821"><ele>24.6</ele><time>2022-11-06T14:41:43.0000000+00:00</time></trkpt><trkpt lat="39.46079599" lon="-0.37300567"><ele>24.6</ele><time>2022-11-06T14:41:44.0000000+00:00</time></trkpt><trkpt lat="39.46080454" lon="-0.37301162"><ele>24.6</ele><time>2022-11-06T14:41:45.0000000+00:00</time></trkpt><trkpt lat="39.4608016" lon="-0.37301363"><ele>24.6</ele><time>2022-11-06T14:41:46.0000000+00:00</time></trkpt><trkpt lat="39.46080722" lon="-0.37302998"><ele>24.6</ele><time>2022-11-06T14:41:47.0000000+00:00</time></trkpt><trkpt lat="39.46078945" lon="-0.37304021"><ele>24.6</ele><time>2022-11-06T14:41:48.0000000+00:00</time></trkpt><trkpt lat="39.46077973" lon="-0.37305404"><ele>24.6</ele><time>2022-11-06T14:41:49.0000000+00:00</time></trkpt><trkpt lat="39.46077235" lon="-0.37306351"><ele>24.6</ele><time>2022-11-06T14:41:50.0000000+00:00</time></trkpt><trkpt lat="39.46074452" lon="-0.37307968"><ele>24.6</ele><time>2022-11-06T14:41:51.0000000+00:00</time></trkpt><trkpt lat="39.46073103" lon="-0.37308379"><ele>24.6</ele><time>2022-11-06T14:41:52.0000000+00:00</time></trkpt><trkpt lat="39.46071628" lon="-0.37307818"><ele>24.6</ele><time>2022-11-06T14:41:53.0000000+00:00</time></trkpt><trkpt lat="39.46071644" lon="-0.37307642"><ele>24.6</ele><time>2022-11-06T14:41:54.0000000+00:00</time></trkpt><trkpt lat="39.46070169" lon="-0.37308027"><ele>24.6</ele><time>2022-11-06T14:41:55.0000000+00:00</time></trkpt><trkpt lat="39.46069825" lon="-0.37307642"><ele>24.6</ele><time>2022-11-06T14:41:56.0000000+00:00</time></trkpt><trkpt lat="39.46069649" lon="-0.37307566"><ele>24.6</ele><time>2022-11-06T14:41:57.0000000+00:00</time></trkpt><trkpt lat="39.46069054" lon="-0.373076"><ele>24.6</ele><time>2022-11-06T14:41:58.0000000+00:00</time></trkpt><trkpt lat="39.46069071" lon="-0.37308094"><ele>24.6</ele><time>2022-11-06T14:41:59.0000000+00:00</time></trkpt><trkpt lat="39.46068862" lon="-0.3730905"><ele>24.6</ele><time>2022-11-06T14:42:00.0000000+00:00</time></trkpt><trkpt lat="39.4606571" lon="-0.3730998"><ele>24.6</ele><time>2022-11-06T14:42:01.0000000+00:00</time></trkpt><trkpt lat="39.46064821" lon="-0.37310634"><ele>24.6</ele><time>2022-11-06T14:42:02.0000000+00:00</time></trkpt><trkpt lat="39.46063573" lon="-0.37311363"><ele>24.6</ele><time>2022-11-06T14:42:03.0000000+00:00</time></trkpt><trkpt lat="39.46062902" lon="-0.37311656"><ele>24.6</ele><time>2022-11-06T14:42:04.0000000+00:00</time></trkpt><trkpt lat="39.46064478" lon="-0.37310818"><ele>24.6</ele><time>2022-11-06T14:42:05.0000000+00:00</time></trkpt><trkpt lat="39.46066213" lon="-0.37309553"><ele>24.6</ele><time>2022-11-06T14:42:06.0000000+00:00</time></trkpt><trkpt lat="39.46068334" lon="-0.37307449"><ele>24.6</ele><time>2022-11-06T14:42:07.0000000+00:00</time></trkpt><trkpt lat="39.4606887" lon="-0.37306745"><ele>24.6</ele><time>2022-11-06T14:42:08.0000000+00:00</time></trkpt><trkpt lat="39.46070504" lon="-0.37305613"><ele>24.6</ele><time>2022-11-06T14:42:09.0000000+00:00</time></trkpt><trkpt lat="39.46069197" lon="-0.37305772"><ele>24.6</ele><time>2022-11-06T14:42:10.0000000+00:00</time></trkpt><trkpt lat="39.46070169" lon="-0.37305571"><ele>24.6</ele><time>2022-11-06T14:42:11.0000000+00:00</time></trkpt><trkpt lat="39.4607011" lon="-0.37305085"><ele>24.6</ele><time>2022-11-06T14:42:12.0000000+00:00</time></trkpt><trkpt lat="39.46070127" lon="-0.37304691"><ele>24.6</ele><time>2022-11-06T14:42:13.0000000+00:00</time></trkpt><trkpt lat="39.46071359" lon="-0.37303409"><ele>24.6</ele><time>2022-11-06T14:42:14.0000000+00:00</time></trkpt><trkpt lat="39.46072189" lon="-0.37302109"><ele>24.6</ele><time>2022-11-06T14:42:15.0000000+00:00</time></trkpt><trkpt lat="39.4607426" lon="-0.37300592"><ele>24.6</ele><time>2022-11-06T14:42:16.0000000+00:00</time></trkpt><trkpt lat="39.46075257" lon="-0.37300198"><ele>24.6</ele><time>2022-11-06T14:42:17.0000000+00:00</time></trkpt><trkpt lat="39.46075726" lon="-0.37300148"><ele>24.6</ele><time>2022-11-06T14:42:18.0000000+00:00</time></trkpt><trkpt lat="39.46077478" lon="-0.37299662"><ele>24.6</ele><time>2022-11-06T14:42:19.0000000+00:00</time></trkpt><trkpt lat="39.46078962" lon="-0.37299058"><ele>24.6</ele><time>2022-11-06T14:42:20.0000000+00:00</time></trkpt><trkpt lat="39.46079155" lon="-0.37298782"><ele>24.6</ele><time>2022-11-06T14:42:21.0000000+00:00</time></trkpt><trkpt lat="39.46079507" lon="-0.37298606"><ele>24.6</ele><time>2022-11-06T14:42:22.0000000+00:00</time></trkpt><trkpt lat="39.46080026" lon="-0.37297759"><ele>24.6</ele><time>2022-11-06T14:42:23.0000000+00:00</time></trkpt><trkpt lat="39.46081426" lon="-0.37295035"><ele>24.6</ele><time>2022-11-06T14:42:24.0000000+00:00</time></trkpt><trkpt lat="39.46082566" lon="-0.37292705"><ele>24.6</ele><time>2022-11-06T14:42:25.0000000+00:00</time></trkpt><trkpt lat="39.4608296" lon="-0.37292889"><ele>24.6</ele><time>2022-11-06T14:42:26.0000000+00:00</time></trkpt><trkpt lat="39.46083698" lon="-0.37290366"><ele>24.6</ele><time>2022-11-06T14:42:27.0000000+00:00</time></trkpt><trkpt lat="39.46084125" lon="-0.37289369"><ele>24.6</ele><time>2022-11-06T14:42:28.0000000+00:00</time></trkpt><trkpt lat="39.4608322" lon="-0.37288916"><ele>24.6</ele><time>2022-11-06T14:42:29.0000000+00:00</time></trkpt><trkpt lat="39.46082968" lon="-0.37287768"><ele>24.6</ele><time>2022-11-06T14:42:30.0000000+00:00</time></trkpt><trkpt lat="39.46082868" lon="-0.37288522"><ele>24.6</ele><time>2022-11-06T14:42:31.0000000+00:00</time></trkpt><trkpt lat="39.46082918" lon="-0.37288673"><ele>24.6</ele><time>2022-11-06T14:42:32.0000000+00:00</time></trkpt><trkpt lat="39.46082516" lon="-0.37288849"><ele>24.6</ele><time>2022-11-06T14:42:33.0000000+00:00</time></trkpt><trkpt lat="39.46082365" lon="-0.37288598"><ele>24.6</ele><time>2022-11-06T14:42:34.0000000+00:00</time></trkpt><trkpt lat="39.46081661" lon="-0.37287391"><ele>24.6</ele><time>2022-11-06T14:42:35.0000000+00:00</time></trkpt><trkpt lat="39.46081216" lon="-0.37286519"><ele>24.6</ele><time>2022-11-06T14:42:36.0000000+00:00</time></trkpt><trkpt lat="39.46080714" lon="-0.37285237"><ele>24.6</ele><time>2022-11-06T14:42:37.0000000+00:00</time></trkpt><trkpt lat="39.46080546" lon="-0.37284583"><ele>24.6</ele><time>2022-11-06T14:42:38.0000000+00:00</time></trkpt><trkpt lat="39.46081418" lon="-0.37285178"><ele>24.6</ele><time>2022-11-06T14:42:39.0000000+00:00</time></trkpt><trkpt lat="39.46082759" lon="-0.37285195"><ele>24.6</ele><time>2022-11-06T14:42:40.0000000+00:00</time></trkpt><trkpt lat="39.46083714" lon="-0.37285404"><ele>24.6</ele><time>2022-11-06T14:42:41.0000000+00:00</time></trkpt><trkpt lat="39.46085751" lon="-0.37285622"><ele>24.6</ele><time>2022-11-06T14:42:42.0000000+00:00</time></trkpt><trkpt lat="39.46087763" lon="-0.37285857"><ele>24.6</ele><time>2022-11-06T14:42:43.0000000+00:00</time></trkpt><trkpt lat="39.46088852" lon="-0.37285547"><ele>24.6</ele><time>2022-11-06T14:42:44.0000000+00:00</time></trkpt><trkpt lat="39.46089397" lon="-0.37284893"><ele>24.6</ele><time>2022-11-06T14:42:45.0000000+00:00</time></trkpt><trkpt lat="39.46089808" lon="-0.37283862"><ele>24.6</ele><time>2022-11-06T14:42:46.0000000+00:00</time></trkpt><trkpt lat="39.46090411" lon="-0.3728268"><ele>24.6</ele><time>2022-11-06T14:42:47.0000000+00:00</time></trkpt><trkpt lat="39.46090671" lon="-0.37281808"><ele>24.6</ele><time>2022-11-06T14:42:48.0000000+00:00</time></trkpt><trkpt lat="39.46090043" lon="-0.37281976"><ele>24.6</ele><time>2022-11-06T14:42:49.0000000+00:00</time></trkpt><trkpt lat="39.46089825" lon="-0.37281968"><ele>24.6</ele><time>2022-11-06T14:42:50.0000000+00:00</time></trkpt><trkpt lat="39.4608938" lon="-0.37283342"><ele>24.6</ele><time>2022-11-06T14:42:51.0000000+00:00</time></trkpt><trkpt lat="39.46088961" lon="-0.37283527"><ele>24.6</ele><time>2022-11-06T14:42:52.0000000+00:00</time></trkpt><trkpt lat="39.46088417" lon="-0.37284021"><ele>24.6</ele><time>2022-11-06T14:42:53.0000000+00:00</time></trkpt><trkpt lat="39.46088039" lon="-0.37283963"><ele>24.6</ele><time>2022-11-06T14:42:54.0000000+00:00</time></trkpt><trkpt lat="39.4608778" lon="-0.37283518"><ele>24.6</ele><time>2022-11-06T14:42:55.0000000+00:00</time></trkpt><trkpt lat="39.4608783" lon="-0.37283083"><ele>24.6</ele><time>2022-11-06T14:42:56.0000000+00:00</time></trkpt><trkpt lat="39.46088173" lon="-0.37282781"><ele>24.6</ele><time>2022-11-06T14:42:57.0000000+00:00</time></trkpt><trkpt lat="39.46088475" lon="-0.37282705"><ele>24.6</ele><time>2022-11-06T14:42:58.0000000+00:00</time></trkpt><trkpt lat="39.46088308" lon="-0.37284256"><ele>24.6</ele><time>2022-11-06T14:42:59.0000000+00:00</time></trkpt><trkpt lat="39.46089272" lon="-0.37285388"><ele>24.6</ele><time>2022-11-06T14:43:00.0000000+00:00</time></trkpt><trkpt lat="39.46090227" lon="-0.37286653"><ele>24.6</ele><time>2022-11-06T14:43:01.0000000+00:00</time></trkpt><trkpt lat="39.46090881" lon="-0.37287558"><ele>24.6</ele><time>2022-11-06T14:43:02.0000000+00:00</time></trkpt><trkpt lat="39.46091493" lon="-0.37286771"><ele>24.6</ele><time>2022-11-06T14:43:03.0000000+00:00</time></trkpt><trkpt lat="39.46091568" lon="-0.37286276"><ele>24.6</ele><time>2022-11-06T14:43:04.0000000+00:00</time></trkpt><trkpt lat="39.46091669" lon="-0.37285647"><ele>24.6</ele><time>2022-11-06T14:43:05.0000000+00:00</time></trkpt><trkpt lat="39.46091979" lon="-0.37285362"><ele>24.6</ele><time>2022-11-06T14:43:06.0000000+00:00</time></trkpt><trkpt lat="39.46091317" lon="-0.37285111"><ele>24.6</ele><time>2022-11-06T14:43:07.0000000+00:00</time></trkpt><trkpt lat="39.46091233" lon="-0.3728631"><ele>24.6</ele><time>2022-11-06T14:43:08.0000000+00:00</time></trkpt><trkpt lat="39.46090864" lon="-0.37288279"><ele>24.6</ele><time>2022-11-06T14:43:09.0000000+00:00</time></trkpt><trkpt lat="39.46090889" lon="-0.37288774"><ele>24.6</ele><time>2022-11-06T14:43:10.0000000+00:00</time></trkpt><trkpt lat="39.46090671" lon="-0.37289654"><ele>24.6</ele><time>2022-11-06T14:43:11.0000000+00:00</time></trkpt><trkpt lat="39.46090286" lon="-0.37290601"><ele>24.6</ele><time>2022-11-06T14:43:12.0000000+00:00</time></trkpt><trkpt lat="39.46090722" lon="-0.372918"><ele>24.6</ele><time>2022-11-06T14:43:13.0000000+00:00</time></trkpt><trkpt lat="39.46091283" lon="-0.37292529"><ele>24.6</ele><time>2022-11-06T14:43:14.0000000+00:00</time></trkpt><trkpt lat="39.46091224" lon="-0.37293208"><ele>24.6</ele><time>2022-11-06T14:43:15.0000000+00:00</time></trkpt><trkpt lat="39.46090546" lon="-0.37293786"><ele>24.6</ele><time>2022-11-06T14:43:16.0000000+00:00</time></trkpt><trkpt lat="39.4609161" lon="-0.37294004"><ele>24.6</ele><time>2022-11-06T14:43:17.0000000+00:00</time></trkpt><trkpt lat="39.46091962" lon="-0.37294373"><ele>24.6</ele><time>2022-11-06T14:43:18.0000000+00:00</time></trkpt><trkpt lat="39.46092222" lon="-0.37295203"><ele>24.6</ele><time>2022-11-06T14:43:19.0000000+00:00</time></trkpt><trkpt lat="39.46091887" lon="-0.37296351"><ele>24.6</ele><time>2022-11-06T14:43:20.0000000+00:00</time></trkpt><trkpt lat="39.46091769" lon="-0.37296544"><ele>24.6</ele><time>2022-11-06T14:43:21.0000000+00:00</time></trkpt><trkpt lat="39.46091107" lon="-0.37296309"><ele>24.6</ele><time>2022-11-06T14:43:22.0000000+00:00</time></trkpt><trkpt lat="39.4609223" lon="-0.37294256"><ele>24.6</ele><time>2022-11-06T14:43:23.0000000+00:00</time></trkpt><trkpt lat="39.46091996" lon="-0.37293007"><ele>24.6</ele><time>2022-11-06T14:43:24.0000000+00:00</time></trkpt><trkpt lat="39.46092172" lon="-0.37292512"><ele>24.6</ele><time>2022-11-06T14:43:25.0000000+00:00</time></trkpt><trkpt lat="39.46091727" lon="-0.37293032"><ele>24.6</ele><time>2022-11-06T14:43:26.0000000+00:00</time></trkpt><trkpt lat="39.46090856" lon="-0.37293451"><ele>24.6</ele><time>2022-11-06T14:43:27.0000000+00:00</time></trkpt><trkpt lat="39.46090856" lon="-0.37293451"><ele>24.6</ele><time>2022-11-06T14:43:28.0000000+00:00</time></trkpt><trkpt lat="39.46090856" lon="-0.37293451"><ele>24.6</ele><time>2022-11-06T14:43:29.0000000+00:00</time></trkpt><trkpt lat="39.46090856" lon="-0.37293451"><ele>24.6</ele><time>2022-11-06T14:43:30.0000000+00:00</time></trkpt><trkpt lat="39.46090856" lon="-0.37293451"><ele>24.6</ele><time>2022-11-06T14:43:31.0000000+00:00</time></trkpt><trkpt lat="39.46090856" lon="-0.37293451"><ele>24.6</ele><time>2022-11-06T14:43:32.0000000+00:00</time></trkpt><trkpt lat="39.46090856" lon="-0.37293451"><ele>24.6</ele><time>2022-11-06T14:43:33.0000000+00:00</time></trkpt><trkpt lat="39.46090856" lon="-0.37293451"><ele>24.6</ele><time>2022-11-06T14:43:34.0000000+00:00</time></trkpt><trkpt lat="39.46090856" lon="-0.37293451"><ele>24.6</ele><time>2022-11-06T14:43:35.0000000+00:00</time></trkpt><trkpt lat="39.46090856" lon="-0.37293451"><ele>24.6</ele><time>2022-11-06T14:43:36.0000000+00:00</time></trkpt><trkpt lat="39.46090856" lon="-0.37293451"><ele>24.6</ele><time>2022-11-06T14:43:37.0000000+00:00</time></trkpt><trkpt lat="39.46090856" lon="-0.37293451"><ele>24.6</ele><time>2022-11-06T14:43:38.0000000+00:00</time></trkpt><trkpt lat="39.46090856" lon="-0.37293451"><ele>24.6</ele><time>2022-11-06T14:43:39.0000000+00:00</time></trkpt><trkpt lat="39.46090856" lon="-0.37293459"><ele>24.6</ele><time>2022-11-06T14:43:40.0000000+00:00</time></trkpt><trkpt lat="39.46090856" lon="-0.37293459"><ele>24.6</ele><time>2022-11-06T14:43:41.0000000+00:00</time></trkpt><trkpt lat="39.46090856" lon="-0.37293459"><ele>24.6</ele><time>2022-11-06T14:43:42.0000000+00:00</time></trkpt><trkpt lat="39.46090856" lon="-0.37293459"><ele>24.6</ele><time>2022-11-06T14:43:43.0000000+00:00</time></trkpt><trkpt lat="39.46090856" lon="-0.37293459"><ele>24.6</ele><time>2022-11-06T14:43:44.0000000+00:00</time></trkpt><trkpt lat="39.46090856" lon="-0.37293459"><ele>24.6</ele><time>2022-11-06T14:43:45.0000000+00:00</time></trkpt><trkpt lat="39.46090856" lon="-0.37293459"><ele>24.6</ele><time>2022-11-06T14:43:46.0000000+00:00</time></trkpt><trkpt lat="39.46090856" lon="-0.37293459"><ele>24.6</ele><time>2022-11-06T14:43:47.0000000+00:00</time></trkpt><trkpt lat="39.46090847" lon="-0.37293459"><ele>24.6</ele><time>2022-11-06T14:43:48.0000000+00:00</time></trkpt><trkpt lat="39.46090554" lon="-0.37293459"><ele>24.6</ele><time>2022-11-06T14:43:49.0000000+00:00</time></trkpt><trkpt lat="39.46090504" lon="-0.37293451"><ele>24.6</ele><time>2022-11-06T14:43:50.0000000+00:00</time></trkpt><trkpt lat="39.46090453" lon="-0.3729335"><ele>24.6</ele><time>2022-11-06T14:43:51.0000000+00:00</time></trkpt><trkpt lat="39.46090378" lon="-0.37293275"><ele>24.6</ele><time>2022-11-06T14:43:52.0000000+00:00</time></trkpt><trkpt lat="39.46090328" lon="-0.37293208"><ele>24.6</ele><time>2022-11-06T14:43:53.0000000+00:00</time></trkpt><trkpt lat="39.46090194" lon="-0.37293199"><ele>24.6</ele><time>2022-11-06T14:43:54.0000000+00:00</time></trkpt><trkpt lat="39.46089858" lon="-0.37293199"><ele>24.6</ele><time>2022-11-06T14:43:55.0000000+00:00</time></trkpt><trkpt lat="39.46089699" lon="-0.37293199"><ele>24.6</ele><time>2022-11-06T14:43:56.0000000+00:00</time></trkpt><trkpt lat="39.46089649" lon="-0.37293166"><ele>24.6</ele><time>2022-11-06T14:43:57.0000000+00:00</time></trkpt><trkpt lat="39.46089607" lon="-0.37292931"><ele>24.6</ele><time>2022-11-06T14:43:58.0000000+00:00</time></trkpt><trkpt lat="39.46089607" lon="-0.37292822"><ele>24.6</ele><time>2022-11-06T14:43:59.0000000+00:00</time></trkpt><trkpt lat="39.46089598" lon="-0.37292806"><ele>24.6</ele><time>2022-11-06T14:44:00.0000000+00:00</time></trkpt><trkpt lat="39.46089598" lon="-0.37292806"><ele>24.6</ele><time>2022-11-06T14:44:01.0000000+00:00</time></trkpt><trkpt lat="39.46089598" lon="-0.37292806"><ele>24.6</ele><time>2022-11-06T14:44:02.0000000+00:00</time></trkpt><trkpt lat="39.46089598" lon="-0.37292806"><ele>24.6</ele><time>2022-11-06T14:44:03.0000000+00:00</time></trkpt><trkpt lat="39.46089598" lon="-0.37292806"><ele>24.6</ele><time>2022-11-06T14:44:04.0000000+00:00</time></trkpt><trkpt lat="39.46089598" lon="-0.37292806"><ele>24.6</ele><time>2022-11-06T14:44:05.0000000+00:00</time></trkpt><trkpt lat="39.46089598" lon="-0.37292806"><ele>24.6</ele><time>2022-11-06T14:44:06.0000000+00:00</time></trkpt><trkpt lat="39.46089598" lon="-0.37292806"><ele>24.6</ele><time>2022-11-06T14:44:07.0000000+00:00</time></trkpt><trkpt lat="39.46089598" lon="-0.37292806"><ele>24.6</ele><time>2022-11-06T14:44:08.0000000+00:00</time></trkpt><trkpt lat="39.46089598" lon="-0.37292806"><ele>24.6</ele><time>2022-11-06T14:44:09.0000000+00:00</time></trkpt><trkpt lat="39.46089598" lon="-0.37292806"><ele>24.6</ele><time>2022-11-06T14:44:10.0000000+00:00</time></trkpt><trkpt lat="39.46089657" lon="-0.37292806"><ele>24.6</ele><time>2022-11-06T14:44:11.0000000+00:00</time></trkpt><trkpt lat="39.46089774" lon="-0.37292772"><ele>24.6</ele><time>2022-11-06T14:44:12.0000000+00:00</time></trkpt><trkpt lat="39.46089867" lon="-0.37292755"><ele>24.6</ele><time>2022-11-06T14:44:13.0000000+00:00</time></trkpt><trkpt lat="39.46090512" lon="-0.37292747"><ele>24.6</ele><time>2022-11-06T14:44:14.0000000+00:00</time></trkpt><trkpt lat="39.46090663" lon="-0.37292747"><ele>24.6</ele><time>2022-11-06T14:44:15.0000000+00:00</time></trkpt><trkpt lat="39.46090696" lon="-0.37292747"><ele>24.6</ele><time>2022-11-06T14:44:16.0000000+00:00</time></trkpt><trkpt lat="39.46090705" lon="-0.37292747"><ele>24.6</ele><time>2022-11-06T14:44:17.0000000+00:00</time></trkpt><trkpt lat="39.46090705" lon="-0.37292747"><ele>24.6</ele><time>2022-11-06T14:44:18.0000000+00:00</time></trkpt><trkpt lat="39.46090856" lon="-0.37292747"><ele>24.6</ele><time>2022-11-06T14:44:19.0000000+00:00</time></trkpt><trkpt lat="39.46091032" lon="-0.37292051"><ele>24.6</ele><time>2022-11-06T14:44:20.0000000+00:00</time></trkpt><trkpt lat="39.46091442" lon="-0.37291272"><ele>24.6</ele><time>2022-11-06T14:44:21.0000000+00:00</time></trkpt><trkpt lat="39.46091669" lon="-0.37290635"><ele>24.6</ele><time>2022-11-06T14:44:22.0000000+00:00</time></trkpt><trkpt lat="39.46091065" lon="-0.37290601"><ele>24.6</ele><time>2022-11-06T14:44:23.0000000+00:00</time></trkpt><trkpt lat="39.46091023" lon="-0.37290157"><ele>24.6</ele><time>2022-11-06T14:44:24.0000000+00:00</time></trkpt><trkpt lat="39.46090479" lon="-0.37289101"><ele>24.6</ele><time>2022-11-06T14:44:25.0000000+00:00</time></trkpt><trkpt lat="39.4608954" lon="-0.37288891"><ele>24.6</ele><time>2022-11-06T14:44:26.0000000+00:00</time></trkpt><trkpt lat="39.46088274" lon="-0.37289503"><ele>24.6</ele><time>2022-11-06T14:44:27.0000000+00:00</time></trkpt><trkpt lat="39.46086363" lon="-0.37292093"><ele>24.6</ele><time>2022-11-06T14:44:28.0000000+00:00</time></trkpt><trkpt lat="39.46084393" lon="-0.37294524"><ele>24.6</ele><time>2022-11-06T14:44:29.0000000+00:00</time></trkpt><trkpt lat="39.4608244" lon="-0.37298698"><ele>24.6</ele><time>2022-11-06T14:44:30.0000000+00:00</time></trkpt><trkpt lat="39.46080554" lon="-0.37302378"><ele>24.6</ele><time>2022-11-06T14:44:31.0000000+00:00</time></trkpt><trkpt lat="39.4608016" lon="-0.37306267"><ele>24.6</ele><time>2022-11-06T14:44:32.0000000+00:00</time></trkpt><trkpt lat="39.46079548" lon="-0.37306233"><ele>24.6</ele><time>2022-11-06T14:44:33.0000000+00:00</time></trkpt><trkpt lat="39.46079247" lon="-0.37304356"><ele>24.6</ele><time>2022-11-06T14:44:34.0000000+00:00</time></trkpt><trkpt lat="39.46079222" lon="-0.37304775"><ele>24.6</ele><time>2022-11-06T14:44:35.0000000+00:00</time></trkpt><trkpt lat="39.46078568" lon="-0.37303065"><ele>24.6</ele><time>2022-11-06T14:44:36.0000000+00:00</time></trkpt><trkpt lat="39.46078761" lon="-0.37303031"><ele>24.6</ele><time>2022-11-06T14:44:37.0000000+00:00</time></trkpt><trkpt lat="39.46079507" lon="-0.37302487"><ele>24.6</ele><time>2022-11-06T14:44:38.0000000+00:00</time></trkpt><trkpt lat="39.46079406" lon="-0.37303182"><ele>24.6</ele><time>2022-11-06T14:44:39.0000000+00:00</time></trkpt><trkpt lat="39.46079607" lon="-0.3730366"><ele>24.6</ele><time>2022-11-06T14:44:40.0000000+00:00</time></trkpt><trkpt lat="39.46080378" lon="-0.37304565"><ele>24.6</ele><time>2022-11-06T14:44:41.0000000+00:00</time></trkpt><trkpt lat="39.46080068" lon="-0.373048"><ele>24.6</ele><time>2022-11-06T14:44:42.0000000+00:00</time></trkpt><trkpt lat="39.46081216" lon="-0.37303316"><ele>24.6</ele><time>2022-11-06T14:44:43.0000000+00:00</time></trkpt><trkpt lat="39.46081158" lon="-0.37300668"><ele>24.6</ele><time>2022-11-06T14:44:44.0000000+00:00</time></trkpt><trkpt lat="39.46081074" lon="-0.37300441"><ele>24.6</ele><time>2022-11-06T14:44:45.0000000+00:00</time></trkpt><trkpt lat="39.46080655" lon="-0.37300332"><ele>24.6</ele><time>2022-11-06T14:44:46.0000000+00:00</time></trkpt><trkpt lat="39.46082021" lon="-0.37300525"><ele>24.6</ele><time>2022-11-06T14:44:47.0000000+00:00</time></trkpt><trkpt lat="39.46084402" lon="-0.37298941"><ele>24.6</ele><time>2022-11-06T14:44:48.0000000+00:00</time></trkpt><trkpt lat="39.46086262" lon="-0.37298933"><ele>24.6</ele><time>2022-11-06T14:44:49.0000000+00:00</time></trkpt><trkpt lat="39.46088542" lon="-0.37299193"><ele>24.6</ele><time>2022-11-06T14:44:50.0000000+00:00</time></trkpt><trkpt lat="39.46090437" lon="-0.37296753"><ele>24.6</ele><time>2022-11-06T14:44:51.0000000+00:00</time></trkpt><trkpt lat="39.46092021" lon="-0.37296351"><ele>24.6</ele><time>2022-11-06T14:44:52.0000000+00:00</time></trkpt><trkpt lat="39.46094854" lon="-0.37293552"><ele>24.6</ele><time>2022-11-06T14:44:53.0000000+00:00</time></trkpt><trkpt lat="39.46096513" lon="-0.37292194"><ele>24.6</ele><time>2022-11-06T14:44:54.0000000+00:00</time></trkpt><trkpt lat="39.46099187" lon="-0.37293686"><ele>24.6</ele><time>2022-11-06T14:44:55.0000000+00:00</time></trkpt><trkpt lat="39.46100947" lon="-0.37293174"><ele>24.6</ele><time>2022-11-06T14:44:56.0000000+00:00</time></trkpt><trkpt lat="39.46102087" lon="-0.37291892"><ele>24.6</ele><time>2022-11-06T14:44:57.0000000+00:00</time></trkpt><trkpt lat="39.46102314" lon="-0.37290257"><ele>24.6</ele><time>2022-11-06T14:44:58.0000000+00:00</time></trkpt><trkpt lat="39.46102339" lon="-0.37290534"><ele>24.6</ele><time>2022-11-06T14:44:59.0000000+00:00</time></trkpt><trkpt lat="39.46102574" lon="-0.37291079"><ele>24.6</ele><time>2022-11-06T14:45:00.0000000+00:00</time></trkpt><trkpt lat="39.46101652" lon="-0.37293795"><ele>24.6</ele><time>2022-11-06T14:45:01.0000000+00:00</time></trkpt><trkpt lat="39.4610171" lon="-0.37294339"><ele>24.6</ele><time>2022-11-06T14:45:03.0000000+00:00</time></trkpt><trkpt lat="39.46098249" lon="-0.37287986"><ele>24.6</ele><time>2022-11-06T14:45:04.0000000+00:00</time></trkpt><trkpt lat="39.46098148" lon="-0.37287693"><ele>24.6</ele><time>2022-11-06T14:45:05.0000000+00:00</time></trkpt><trkpt lat="39.46097855" lon="-0.37287818"><ele>24.6</ele><time>2022-11-06T14:45:06.0000000+00:00</time></trkpt><trkpt lat="39.46097829" lon="-0.37288187"><ele>24.6</ele><time>2022-11-06T14:45:07.0000000+00:00</time></trkpt><trkpt lat="39.46097327" lon="-0.37287894"><ele>24.6</ele><time>2022-11-06T14:45:08.0000000+00:00</time></trkpt><trkpt lat="39.46097754" lon="-0.3728786"><ele>24.6</ele><time>2022-11-06T14:45:09.0000000+00:00</time></trkpt><trkpt lat="39.46095482" lon="-0.37289595"><ele>24.6</ele><time>2022-11-06T14:45:10.0000000+00:00</time></trkpt><trkpt lat="39.46096622" lon="-0.37289679"><ele>24.6</ele><time>2022-11-06T14:45:11.0000000+00:00</time></trkpt><trkpt lat="39.46096907" lon="-0.3729035"><ele>24.6</ele><time>2022-11-06T14:45:12.0000000+00:00</time></trkpt><trkpt lat="39.46094845" lon="-0.37291833"><ele>24.6</ele><time>2022-11-06T14:45:13.0000000+00:00</time></trkpt><trkpt lat="39.46094041" lon="-0.37291917"><ele>24.6</ele><time>2022-11-06T14:45:14.0000000+00:00</time></trkpt><trkpt lat="39.46092373" lon="-0.37293317"><ele>24.6</ele><time>2022-11-06T14:45:15.0000000+00:00</time></trkpt><trkpt lat="39.46092415" lon="-0.37293786"><ele>24.6</ele><time>2022-11-06T14:45:16.0000000+00:00</time></trkpt><trkpt lat="39.46091945" lon="-0.37293962"><ele>24.6</ele><time>2022-11-06T14:45:17.0000000+00:00</time></trkpt><trkpt lat="39.46091694" lon="-0.37293853"><ele>24.6</ele><time>2022-11-06T14:45:18.0000000+00:00</time></trkpt><trkpt lat="39.46093236" lon="-0.37292738"><ele>24.6</ele><time>2022-11-06T14:45:19.0000000+00:00</time></trkpt><trkpt lat="39.46093387" lon="-0.37292378"><ele>24.6</ele><time>2022-11-06T14:45:20.0000000+00:00</time></trkpt><trkpt lat="39.46093722" lon="-0.37292479"><ele>24.6</ele><time>2022-11-06T14:45:21.0000000+00:00</time></trkpt><trkpt lat="39.46093991" lon="-0.37292043"><ele>24.6</ele><time>2022-11-06T14:45:22.0000000+00:00</time></trkpt><trkpt lat="39.46094309" lon="-0.37292034"><ele>24.6</ele><time>2022-11-06T14:45:23.0000000+00:00</time></trkpt><trkpt lat="39.46094158" lon="-0.37292018"><ele>24.6</ele><time>2022-11-06T14:45:24.0000000+00:00</time></trkpt><trkpt lat="39.46094141" lon="-0.37291666"><ele>24.6</ele><time>2022-11-06T14:45:25.0000000+00:00</time></trkpt><trkpt lat="39.46094141" lon="-0.37291414"><ele>24.6</ele><time>2022-11-06T14:45:26.0000000+00:00</time></trkpt><trkpt lat="39.46094804" lon="-0.37291372"><ele>24.6</ele><time>2022-11-06T14:45:27.0000000+00:00</time></trkpt><trkpt lat="39.4609508" lon="-0.37291381"><ele>24.6</ele><time>2022-11-06T14:45:28.0000000+00:00</time></trkpt><trkpt lat="39.46094443" lon="-0.37291599"><ele>24.6</ele><time>2022-11-06T14:45:29.0000000+00:00</time></trkpt><trkpt lat="39.46094108" lon="-0.37291389"><ele>24.6</ele><time>2022-11-06T14:45:30.0000000+00:00</time></trkpt><trkpt lat="39.46093714" lon="-0.37291414"><ele>24.6</ele><time>2022-11-06T14:45:32.0000000+00:00</time></trkpt><trkpt lat="39.46093421" lon="-0.37291372"><ele>24.6</ele><time>2022-11-06T14:45:33.0000000+00:00</time></trkpt><trkpt lat="39.46093991" lon="-0.37289235"><ele>24.6</ele><time>2022-11-06T14:45:34.0000000+00:00</time></trkpt><trkpt lat="39.46094292" lon="-0.37286812"><ele>24.6</ele><time>2022-11-06T14:45:35.0000000+00:00</time></trkpt><trkpt lat="39.46094636" lon="-0.37285287"><ele>24.6</ele><time>2022-11-06T14:45:36.0000000+00:00</time></trkpt><trkpt lat="39.46094384" lon="-0.37283971"><ele>24.6</ele><time>2022-11-06T14:45:37.0000000+00:00</time></trkpt><trkpt lat="39.46094234" lon="-0.37281959"><ele>24.6</ele><time>2022-11-06T14:45:38.0000000+00:00</time></trkpt><trkpt lat="39.46094041" lon="-0.37280551"><ele>24.6</ele><time>2022-11-06T14:45:39.0000000+00:00</time></trkpt><trkpt lat="39.46094217" lon="-0.37282513"><ele>24.6</ele><time>2022-11-06T14:45:40.0000000+00:00</time></trkpt><trkpt lat="39.460942" lon="-0.37282881"><ele>24.6</ele><time>2022-11-06T14:45:41.0000000+00:00</time></trkpt><trkpt lat="39.46094041" lon="-0.37281976"><ele>24.6</ele><time>2022-11-06T14:45:42.0000000+00:00</time></trkpt><trkpt lat="39.46093999" lon="-0.37281825"><ele>24.6</ele><time>2022-11-06T14:45:43.0000000+00:00</time></trkpt><trkpt lat="39.46092758" lon="-0.37281389"><ele>24.6</ele><time>2022-11-06T14:45:44.0000000+00:00</time></trkpt><trkpt lat="39.46092457" lon="-0.37281096"><ele>24.6</ele><time>2022-11-06T14:45:45.0000000+00:00</time></trkpt><trkpt lat="39.46092255" lon="-0.37280928"><ele>24.6</ele><time>2022-11-06T14:45:46.0000000+00:00</time></trkpt><trkpt lat="39.46092079" lon="-0.37280761"><ele>24.6</ele><time>2022-11-06T14:45:47.0000000+00:00</time></trkpt><trkpt lat="39.4609192" lon="-0.37280727"><ele>24.6</ele><time>2022-11-06T14:45:48.0000000+00:00</time></trkpt><trkpt lat="39.46091644" lon="-0.37280752"><ele>24.6</ele><time>2022-11-06T14:45:49.0000000+00:00</time></trkpt><trkpt lat="39.46091258" lon="-0.37280861"><ele>24.6</ele><time>2022-11-06T14:45:50.0000000+00:00</time></trkpt><trkpt lat="39.46095206" lon="-0.373004"><ele>25.4</ele><time>2022-11-06T14:47:20.0000000+00:00</time></trkpt><trkpt lat="39.46102188" lon="-0.37300995"><ele>25.4</ele><time>2022-11-06T14:47:21.0000000+00:00</time></trkpt><trkpt lat="39.46091434" lon="-0.37308916"><ele>25.4</ele><time>2022-11-06T14:47:22.0000000+00:00</time></trkpt><trkpt lat="39.46080864" lon="-0.37315051"><ele>25.4</ele><time>2022-11-06T14:47:23.0000000+00:00</time></trkpt><trkpt lat="39.4608301" lon="-0.3729812"><ele>25.4</ele><time>2022-11-06T14:47:24.0000000+00:00</time></trkpt><trkpt lat="39.46084159" lon="-0.37297349"><ele>25.4</ele><time>2022-11-06T14:47:25.0000000+00:00</time></trkpt><trkpt lat="39.46084024" lon="-0.37295823"><ele>25.4</ele><time>2022-11-06T14:47:26.0000000+00:00</time></trkpt><trkpt lat="39.4608358" lon="-0.3729589"><ele>23.8</ele><time>2022-11-06T14:47:27.0000000+00:00</time></trkpt><trkpt lat="39.46082583" lon="-0.3729667"><ele>23.8</ele><time>2022-11-06T14:47:28.0000000+00:00</time></trkpt><trkpt lat="39.46081678" lon="-0.37298002"><ele>23.8</ele><time>2022-11-06T14:47:29.0000000+00:00</time></trkpt><trkpt lat="39.46080462" lon="-0.37297173"><ele>23.8</ele><time>2022-11-06T14:47:30.0000000+00:00</time></trkpt><trkpt lat="39.46079607" lon="-0.3729667"><ele>23.8</ele><time>2022-11-06T14:47:31.0000000+00:00</time></trkpt><trkpt lat="39.46079515" lon="-0.37295722"><ele>23.8</ele><time>2022-11-06T14:47:32.0000000+00:00</time></trkpt><trkpt lat="39.46080915" lon="-0.37295655"><ele>23.8</ele><time>2022-11-06T14:47:33.0000000+00:00</time></trkpt><trkpt lat="39.46082172" lon="-0.37295236"><ele>23.8</ele><time>2022-11-06T14:47:34.0000000+00:00</time></trkpt><trkpt lat="39.46083211" lon="-0.37295421"><ele>23.8</ele><time>2022-11-06T14:47:35.0000000+00:00</time></trkpt><trkpt lat="39.46084796" lon="-0.37294733"><ele>23.8</ele><time>2022-11-06T14:47:36.0000000+00:00</time></trkpt><trkpt lat="39.4608783" lon="-0.37293275"><ele>23.6</ele><time>2022-11-06T14:47:37.0000000+00:00</time></trkpt><trkpt lat="39.46089179" lon="-0.37292562"><ele>23.6</ele><time>2022-11-06T14:47:38.0000000+00:00</time></trkpt><trkpt lat="39.46090244" lon="-0.37291783"><ele>23.6</ele><time>2022-11-06T14:47:39.0000000+00:00</time></trkpt><trkpt lat="39.46091241" lon="-0.3729076"><ele>23.6</ele><time>2022-11-06T14:47:40.0000000+00:00</time></trkpt><trkpt lat="39.46092557" lon="-0.37288573"><ele>23.6</ele><time>2022-11-06T14:47:41.0000000+00:00</time></trkpt><trkpt lat="39.46092884" lon="-0.37287676"><ele>23.6</ele><time>2022-11-06T14:47:42.0000000+00:00</time></trkpt><trkpt lat="39.46091677" lon="-0.37288346"><ele>23.6</ele><time>2022-11-06T14:47:43.0000000+00:00</time></trkpt><trkpt lat="39.46091048" lon="-0.37288707"><ele>23.6</ele><time>2022-11-06T14:47:44.0000000+00:00</time></trkpt><trkpt lat="39.4609094" lon="-0.3728931"><ele>23.6</ele><time>2022-11-06T14:47:45.0000000+00:00</time></trkpt><trkpt lat="39.46090378" lon="-0.37290375"><ele>23.4</ele><time>2022-11-06T14:47:46.0000000+00:00</time></trkpt><trkpt lat="39.46090219" lon="-0.37291448"><ele>23.4</ele><time>2022-11-06T14:47:47.0000000+00:00</time></trkpt><trkpt lat="39.4609047" lon="-0.37292521"><ele>23.4</ele><time>2022-11-06T14:47:48.0000000+00:00</time></trkpt><trkpt lat="39.46091023" lon="-0.37293837"><ele>23.4</ele><time>2022-11-06T14:47:49.0000000+00:00</time></trkpt><trkpt lat="39.46091618" lon="-0.37294767"><ele>23.4</ele><time>2022-11-06T14:47:50.0000000+00:00</time></trkpt><trkpt lat="39.46092012" lon="-0.37295605"><ele>23.4</ele><time>2022-11-06T14:47:51.0000000+00:00</time></trkpt><trkpt lat="39.46092138" lon="-0.3729615"><ele>23.4</ele><time>2022-11-06T14:47:52.0000000+00:00</time></trkpt><trkpt lat="39.46087888" lon="-0.37296535"><ele>23.4</ele><time>2022-11-06T14:47:53.0000000+00:00</time></trkpt><trkpt lat="39.46086472" lon="-0.37296871"><ele>23.4</ele><time>2022-11-06T14:47:54.0000000+00:00</time></trkpt><trkpt lat="39.46085986" lon="-0.3729698"><ele>23.4</ele><time>2022-11-06T14:47:55.0000000+00:00</time></trkpt><trkpt lat="39.4608591" lon="-0.37297516"><ele>23.4</ele><time>2022-11-06T14:47:56.0000000+00:00</time></trkpt><trkpt lat="39.46085701" lon="-0.37298597"><ele>23.6</ele><time>2022-11-06T14:47:57.0000000+00:00</time></trkpt><trkpt lat="39.46085433" lon="-0.37300081"><ele>23.6</ele><time>2022-11-06T14:47:58.0000000+00:00</time></trkpt><trkpt lat="39.46085089" lon="-0.37301866"><ele>23.4</ele><time>2022-11-06T14:47:59.0000000+00:00</time></trkpt><trkpt lat="39.46084653" lon="-0.37302068"><ele>23.4</ele><time>2022-11-06T14:48:00.0000000+00:00</time></trkpt><trkpt lat="39.46084368" lon="-0.37302311"><ele>23.4</ele><time>2022-11-06T14:48:01.0000000+00:00</time></trkpt><trkpt lat="39.46084427" lon="-0.37302227"><ele>23.4</ele><time>2022-11-06T14:48:02.0000000+00:00</time></trkpt><trkpt lat="39.46084603" lon="-0.37302344"><ele>23.4</ele><time>2022-11-06T14:48:03.0000000+00:00</time></trkpt><trkpt lat="39.46084485" lon="-0.37303006"><ele>23.6</ele><time>2022-11-06T14:48:04.0000000+00:00</time></trkpt><trkpt lat="39.46084125" lon="-0.37303283"><ele>23.6</ele><time>2022-11-06T14:48:05.0000000+00:00</time></trkpt><trkpt lat="39.46083765" lon="-0.3730247"><ele>23.6</ele><time>2022-11-06T14:48:06.0000000+00:00</time></trkpt><trkpt lat="39.46083262" lon="-0.37302093"><ele>23.6</ele><time>2022-11-06T14:48:07.0000000+00:00</time></trkpt><trkpt lat="39.46083077" lon="-0.37301665"><ele>23.4</ele><time>2022-11-06T14:48:08.0000000+00:00</time></trkpt><trkpt lat="39.46082876" lon="-0.37301573"><ele>23.4</ele><time>2022-11-06T14:48:09.0000000+00:00</time></trkpt><trkpt lat="39.46082918" lon="-0.37301992"><ele>23.4</ele><time>2022-11-06T14:48:10.0000000+00:00</time></trkpt><trkpt lat="39.46082968" lon="-0.37302193"><ele>23.2</ele><time>2022-11-06T14:48:11.0000000+00:00</time></trkpt><trkpt lat="39.46083622" lon="-0.37302587"><ele>23.2</ele><time>2022-11-06T14:48:12.0000000+00:00</time></trkpt><trkpt lat="39.46084653" lon="-0.37303082"><ele>23.4</ele><time>2022-11-06T14:48:13.0000000+00:00</time></trkpt><trkpt lat="39.46085458" lon="-0.37303291"><ele>23.4</ele><time>2022-11-06T14:48:14.0000000+00:00</time></trkpt><trkpt lat="39.4608617" lon="-0.37303451"><ele>23.4</ele><time>2022-11-06T14:48:15.0000000+00:00</time></trkpt><trkpt lat="39.46086137" lon="-0.37303425"><ele>23.4</ele><time>2022-11-06T14:48:16.0000000+00:00</time></trkpt><trkpt lat="39.46086003" lon="-0.37305571"><ele>23.4</ele><time>2022-11-06T14:48:17.0000000+00:00</time></trkpt><trkpt lat="39.46085885" lon="-0.37307088"><ele>23.4</ele><time>2022-11-06T14:48:18.0000000+00:00</time></trkpt><trkpt lat="39.46082817" lon="-0.37308857"><ele>23.4</ele><time>2022-11-06T14:48:19.0000000+00:00</time></trkpt><trkpt lat="39.46084024" lon="-0.3730905"><ele>23.4</ele><time>2022-11-06T14:48:20.0000000+00:00</time></trkpt><trkpt lat="39.46088073" lon="-0.37309075"><ele>23.4</ele><time>2022-11-06T14:48:21.0000000+00:00</time></trkpt><trkpt lat="39.46091996" lon="-0.37308354"><ele>23.4</ele><time>2022-11-06T14:48:22.0000000+00:00</time></trkpt><trkpt lat="39.46094125" lon="-0.37307248"><ele>23.4</ele><time>2022-11-06T14:48:23.0000000+00:00</time></trkpt><trkpt lat="39.46092976" lon="-0.37306066"><ele>23.4</ele><time>2022-11-06T14:48:24.0000000+00:00</time></trkpt><trkpt lat="39.46093303" lon="-0.37305345"><ele>23.4</ele><time>2022-11-06T14:48:25.0000000+00:00</time></trkpt><trkpt lat="39.46093546" lon="-0.37304884"><ele>23.4</ele><time>2022-11-06T14:48:26.0000000+00:00</time></trkpt><trkpt lat="39.46094083" lon="-0.37305789"><ele>23.4</ele><time>2022-11-06T14:48:27.0000000+00:00</time></trkpt><trkpt lat="39.46093001" lon="-0.37306879"><ele>23.4</ele><time>2022-11-06T14:48:28.0000000+00:00</time></trkpt><trkpt lat="39.46092599" lon="-0.37308128"><ele>23.2</ele><time>2022-11-06T14:48:29.0000000+00:00</time></trkpt><trkpt lat="39.46091233" lon="-0.37301841"><ele>23.2</ele><time>2022-11-06T14:48:30.0000000+00:00</time></trkpt><trkpt lat="39.46090445" lon="-0.37302084"><ele>23.2</ele><time>2022-11-06T14:48:31.0000000+00:00</time></trkpt><trkpt lat="39.46089448" lon="-0.37301179"><ele>23.2</ele><time>2022-11-06T14:48:32.0000000+00:00</time></trkpt><trkpt lat="39.46090437" lon="-0.37301095"><ele>23.2</ele><time>2022-11-06T14:48:33.0000000+00:00</time></trkpt><trkpt lat="39.46091929" lon="-0.37299721"><ele>24.0</ele><time>2022-11-06T14:48:34.0000000+00:00</time></trkpt><trkpt lat="39.46093697" lon="-0.37298095"><ele>24.0</ele><time>2022-11-06T14:48:35.0000000+00:00</time></trkpt><trkpt lat="39.46095902" lon="-0.37297675"><ele>24.0</ele><time>2022-11-06T14:48:36.0000000+00:00</time></trkpt><trkpt lat="39.46097402" lon="-0.37297592"><ele>24.0</ele><time>2022-11-06T14:48:37.0000000+00:00</time></trkpt><trkpt lat="39.46098927" lon="-0.37297893"><ele>24.0</ele><time>2022-11-06T14:48:38.0000000+00:00</time></trkpt><trkpt lat="39.46100486" lon="-0.3729739"><ele>24.0</ele><time>2022-11-06T14:48:39.0000000+00:00</time></trkpt><trkpt lat="39.46105407" lon="-0.37297055"><ele>24.0</ele><time>2022-11-06T14:48:40.0000000+00:00</time></trkpt><trkpt lat="39.46106723" lon="-0.37296653"><ele>24.0</ele><time>2022-11-06T14:48:41.0000000+00:00</time></trkpt><trkpt lat="39.46109614" lon="-0.37296334"><ele>24.0</ele><time>2022-11-06T14:48:42.0000000+00:00</time></trkpt><trkpt lat="39.46109598" lon="-0.37296016"><ele>24.0</ele><time>2022-11-06T14:48:43.0000000+00:00</time></trkpt><trkpt lat="39.46106949" lon="-0.37295697"><ele>24.0</ele><time>2022-11-06T14:48:44.0000000+00:00</time></trkpt><trkpt lat="39.46086799" lon="-0.37297374"><ele>24.0</ele><time>2022-11-06T14:48:45.0000000+00:00</time></trkpt><trkpt lat="39.46084385" lon="-0.37298547"><ele>23.8</ele><time>2022-11-06T14:48:46.0000000+00:00</time></trkpt><trkpt lat="39.46088215" lon="-0.37297801"><ele>23.8</ele><time>2022-11-06T14:48:47.0000000+00:00</time></trkpt><trkpt lat="39.46087637" lon="-0.37297726"><ele>23.8</ele><time>2022-11-06T14:48:48.0000000+00:00</time></trkpt><trkpt lat="39.46086849" lon="-0.372976"><ele>23.8</ele><time>2022-11-06T14:48:49.0000000+00:00</time></trkpt><trkpt lat="39.46088458" lon="-0.3729755"><ele>23.8</ele><time>2022-11-06T14:48:50.0000000+00:00</time></trkpt><trkpt lat="39.46089892" lon="-0.37297977"><ele>23.8</ele><time>2022-11-06T14:48:51.0000000+00:00</time></trkpt><trkpt lat="39.4609394" lon="-0.37297675"><ele>23.8</ele><time>2022-11-06T14:48:52.0000000+00:00</time></trkpt><trkpt lat="39.46091862" lon="-0.37298631"><ele>23.8</ele><time>2022-11-06T14:48:53.0000000+00:00</time></trkpt><trkpt lat="39.46092088" lon="-0.37299268"><ele>24.0</ele><time>2022-11-06T14:48:54.0000000+00:00</time></trkpt><trkpt lat="39.46092373" lon="-0.37299922"><ele>24.0</ele><time>2022-11-06T14:48:55.0000000+00:00</time></trkpt><trkpt lat="39.46089808" lon="-0.37302218"><ele>24.0</ele><time>2022-11-06T14:48:56.0000000+00:00</time></trkpt><trkpt lat="39.46087503" lon="-0.37304817"><ele>24.0</ele><time>2022-11-06T14:48:57.0000000+00:00</time></trkpt><trkpt lat="39.46085357" lon="-0.37305865"><ele>24.0</ele><time>2022-11-06T14:48:58.0000000+00:00</time></trkpt><trkpt lat="39.46090076" lon="-0.37305504"><ele>23.8</ele><time>2022-11-06T14:48:59.0000000+00:00</time></trkpt><trkpt lat="39.46090252" lon="-0.37306435"><ele>23.8</ele><time>2022-11-06T14:49:00.0000000+00:00</time></trkpt><trkpt lat="39.4609503" lon="-0.37305445"><ele>23.8</ele><time>2022-11-06T14:49:01.0000000+00:00</time></trkpt><trkpt lat="39.46096614" lon="-0.37305102"><ele>23.8</ele><time>2022-11-06T14:49:02.0000000+00:00</time></trkpt><trkpt lat="39.46098584" lon="-0.37304842"><ele>23.8</ele><time>2022-11-06T14:49:03.0000000+00:00</time></trkpt><trkpt lat="39.46098953" lon="-0.37304532"><ele>23.8</ele><time>2022-11-06T14:49:04.0000000+00:00</time></trkpt><trkpt lat="39.46098207" lon="-0.3730413"><ele>23.8</ele><time>2022-11-06T14:49:05.0000000+00:00</time></trkpt><trkpt lat="39.46098232" lon="-0.37304498"><ele>23.8</ele><time>2022-11-06T14:49:06.0000000+00:00</time></trkpt><trkpt lat="39.46096631" lon="-0.37305378"><ele>23.8</ele><time>2022-11-06T14:49:07.0000000+00:00</time></trkpt><trkpt lat="39.46095449" lon="-0.37306569"><ele>23.8</ele><time>2022-11-06T14:49:08.0000000+00:00</time></trkpt><trkpt lat="39.46091292" lon="-0.373076"><ele>23.8</ele><time>2022-11-06T14:49:09.0000000+00:00</time></trkpt><trkpt lat="39.46087" lon="-0.3730941"><ele>23.8</ele><time>2022-11-06T14:49:10.0000000+00:00</time></trkpt><trkpt lat="39.46083278" lon="-0.37310743"><ele>23.8</ele><time>2022-11-06T14:49:11.0000000+00:00</time></trkpt><trkpt lat="39.46080395" lon="-0.37312293"><ele>23.8</ele><time>2022-11-06T14:49:12.0000000+00:00</time></trkpt><trkpt lat="39.46079884" lon="-0.37313509"><ele>23.8</ele><time>2022-11-06T14:49:13.0000000+00:00</time></trkpt><trkpt lat="39.46078702" lon="-0.3731485"><ele>23.8</ele><time>2022-11-06T14:49:14.0000000+00:00</time></trkpt><trkpt lat="39.46083186" lon="-0.37313853"><ele>23.8</ele><time>2022-11-06T14:49:15.0000000+00:00</time></trkpt><trkpt lat="39.46083924" lon="-0.37313903"><ele>23.8</ele><time>2022-11-06T14:49:16.0000000+00:00</time></trkpt><trkpt lat="39.46080462" lon="-0.37314531"><ele>24.0</ele><time>2022-11-06T14:49:17.0000000+00:00</time></trkpt><trkpt lat="39.46079037" lon="-0.37314305"><ele>24.0</ele><time>2022-11-06T14:49:18.0000000+00:00</time></trkpt><trkpt lat="39.46075684" lon="-0.37315336"><ele>24.0</ele><time>2022-11-06T14:49:19.0000000+00:00</time></trkpt><trkpt lat="39.46075567" lon="-0.37315789"><ele>23.0</ele><time>2022-11-06T14:49:20.0000000+00:00</time></trkpt><trkpt lat="39.46077126" lon="-0.37316744"><ele>23.0</ele><time>2022-11-06T14:49:21.0000000+00:00</time></trkpt><trkpt lat="39.46078777" lon="-0.3731708"><ele>23.0</ele><time>2022-11-06T14:49:22.0000000+00:00</time></trkpt><trkpt lat="39.46077847" lon="-0.37318178"><ele>23.0</ele><time>2022-11-06T14:49:23.0000000+00:00</time></trkpt><trkpt lat="39.46077889" lon="-0.37318773"><ele>23.0</ele><time>2022-11-06T14:49:24.0000000+00:00</time></trkpt><trkpt lat="39.46077663" lon="-0.3731946"><ele>23.0</ele><time>2022-11-06T14:49:25.0000000+00:00</time></trkpt><trkpt lat="39.46078124" lon="-0.37319276"><ele>23.2</ele><time>2022-11-06T14:49:26.0000000+00:00</time></trkpt><trkpt lat="39.46078425" lon="-0.37318823"><ele>23.2</ele><time>2022-11-06T14:49:27.0000000+00:00</time></trkpt><trkpt lat="39.46081099" lon="-0.37318588"><ele>23.2</ele><time>2022-11-06T14:49:28.0000000+00:00</time></trkpt><trkpt lat="39.46082373" lon="-0.37318739"><ele>23.2</ele><time>2022-11-06T14:49:29.0000000+00:00</time></trkpt><trkpt lat="39.46079968" lon="-0.37319334"><ele>23.2</ele><time>2022-11-06T14:49:30.0000000+00:00</time></trkpt><trkpt lat="39.46078065" lon="-0.37320097"><ele>23.2</ele><time>2022-11-06T14:49:31.0000000+00:00</time></trkpt><trkpt lat="39.46076254" lon="-0.37320952"><ele>23.2</ele><time>2022-11-06T14:49:32.0000000+00:00</time></trkpt><trkpt lat="39.4607426" lon="-0.37322151"><ele>23.2</ele><time>2022-11-06T14:49:33.0000000+00:00</time></trkpt><trkpt lat="39.46073145" lon="-0.37322704"><ele>23.2</ele><time>2022-11-06T14:49:34.0000000+00:00</time></trkpt><trkpt lat="39.46074234" lon="-0.3732231"><ele>23.2</ele><time>2022-11-06T14:49:35.0000000+00:00</time></trkpt><trkpt lat="39.46077931" lon="-0.37321245"><ele>23.2</ele><time>2022-11-06T14:49:36.0000000+00:00</time></trkpt><trkpt lat="39.46079683" lon="-0.37321061"><ele>23.2</ele><time>2022-11-06T14:49:37.0000000+00:00</time></trkpt><trkpt lat="39.46077914" lon="-0.37321304"><ele>23.2</ele><time>2022-11-06T14:49:38.0000000+00:00</time></trkpt><trkpt lat="39.4607918" lon="-0.37321606"><ele>23.2</ele><time>2022-11-06T14:49:39.0000000+00:00</time></trkpt><trkpt lat="39.46080345" lon="-0.37322494"><ele>23.2</ele><time>2022-11-06T14:49:40.0000000+00:00</time></trkpt><trkpt lat="39.46079674" lon="-0.3732402"><ele>23.2</ele><time>2022-11-06T14:49:41.0000000+00:00</time></trkpt><trkpt lat="39.4607949" lon="-0.37323827"><ele>23.2</ele><time>2022-11-06T14:49:42.0000000+00:00</time></trkpt><trkpt lat="39.46079071" lon="-0.37324808"><ele>23.2</ele><time>2022-11-06T14:49:43.0000000+00:00</time></trkpt><trkpt lat="39.46078375" lon="-0.3732635"><ele>23.2</ele><time>2022-11-06T14:49:44.0000000+00:00</time></trkpt><trkpt lat="39.46077805" lon="-0.37327339"><ele>23.2</ele><time>2022-11-06T14:49:45.0000000+00:00</time></trkpt><trkpt lat="39.46079121" lon="-0.3732728"><ele>23.2</ele><time>2022-11-06T14:49:46.0000000+00:00</time></trkpt><trkpt lat="39.46081175" lon="-0.37326316"><ele>23.2</ele><time>2022-11-06T14:49:47.0000000+00:00</time></trkpt><trkpt lat="39.46083237" lon="-0.37325193"><ele>23.2</ele><time>2022-11-06T14:49:48.0000000+00:00</time></trkpt><trkpt lat="39.46085005" lon="-0.37324942"><ele>23.2</ele><time>2022-11-06T14:49:49.0000000+00:00</time></trkpt><trkpt lat="39.46086933" lon="-0.37324254"><ele>23.2</ele><time>2022-11-06T14:49:50.0000000+00:00</time></trkpt><trkpt lat="39.46088115" lon="-0.37323324"><ele>23.2</ele><time>2022-11-06T14:49:51.0000000+00:00</time></trkpt><trkpt lat="39.46087553" lon="-0.37324732"><ele>23.2</ele><time>2022-11-06T14:49:52.0000000+00:00</time></trkpt><trkpt lat="39.46085868" lon="-0.37326031"><ele>23.2</ele><time>2022-11-06T14:49:53.0000000+00:00</time></trkpt><trkpt lat="39.46084955" lon="-0.37327247"><ele>23.2</ele><time>2022-11-06T14:49:54.0000000+00:00</time></trkpt><trkpt lat="39.46081879" lon="-0.37328244"><ele>23.2</ele><time>2022-11-06T14:49:55.0000000+00:00</time></trkpt><trkpt lat="39.46079733" lon="-0.37329527"><ele>23.2</ele><time>2022-11-06T14:49:56.0000000+00:00</time></trkpt><trkpt lat="39.4607757" lon="-0.37330817"><ele>23.4</ele><time>2022-11-06T14:49:57.0000000+00:00</time></trkpt><trkpt lat="39.46075056" lon="-0.37331991"><ele>23.4</ele><time>2022-11-06T14:49:58.0000000+00:00</time></trkpt><trkpt lat="39.46077118" lon="-0.37333407"><ele>23.4</ele><time>2022-11-06T14:49:59.0000000+00:00</time></trkpt><trkpt lat="39.46078844" lon="-0.37333483"><ele>23.4</ele><time>2022-11-06T14:50:00.0000000+00:00</time></trkpt><trkpt lat="39.46083438" lon="-0.3733277"><ele>23.4</ele><time>2022-11-06T14:50:01.0000000+00:00</time></trkpt><trkpt lat="39.46082834" lon="-0.37331882"><ele>23.4</ele><time>2022-11-06T14:50:02.0000000+00:00</time></trkpt><trkpt lat="39.46083672" lon="-0.37331513"><ele>23.4</ele><time>2022-11-06T14:50:03.0000000+00:00</time></trkpt><trkpt lat="39.46084226" lon="-0.37331237"><ele>23.4</ele><time>2022-11-06T14:50:04.0000000+00:00</time></trkpt><trkpt lat="39.46081711" lon="-0.37330382"><ele>23.4</ele><time>2022-11-06T14:50:05.0000000+00:00</time></trkpt><trkpt lat="39.46081577" lon="-0.37329845"><ele>23.4</ele><time>2022-11-06T14:50:06.0000000+00:00</time></trkpt><trkpt lat="39.460842" lon="-0.37328739"><ele>23.4</ele><time>2022-11-06T14:50:07.0000000+00:00</time></trkpt><trkpt lat="39.46082038" lon="-0.37328722"><ele>23.2</ele><time>2022-11-06T14:50:08.0000000+00:00</time></trkpt><trkpt lat="39.46081476" lon="-0.37328965"><ele>23.2</ele><time>2022-11-06T14:50:09.0000000+00:00</time></trkpt><trkpt lat="39.4608099" lon="-0.37329191"><ele>23.2</ele><time>2022-11-06T14:50:10.0000000+00:00</time></trkpt><trkpt lat="39.46080429" lon="-0.37329359"><ele>23.2</ele><time>2022-11-06T14:50:11.0000000+00:00</time></trkpt><trkpt lat="39.46079683" lon="-0.37329644"><ele>23.2</ele><time>2022-11-06T14:50:12.0000000+00:00</time></trkpt><trkpt lat="39.46079046" lon="-0.37329753"><ele>23.2</ele><time>2022-11-06T14:50:13.0000000+00:00</time></trkpt><trkpt lat="39.46078409" lon="-0.37329854"><ele>23.2</ele><time>2022-11-06T14:50:14.0000000+00:00</time></trkpt><trkpt lat="39.46077671" lon="-0.37329602"><ele>23.2</ele><time>2022-11-06T14:50:15.0000000+00:00</time></trkpt><trkpt lat="39.46077478" lon="-0.37329267"><ele>23.2</ele><time>2022-11-06T14:50:16.0000000+00:00</time></trkpt><trkpt lat="39.46074276" lon="-0.37330625"><ele>23.2</ele><time>2022-11-06T14:50:17.0000000+00:00</time></trkpt><trkpt lat="39.46069901" lon="-0.37332351"><ele>23.4</ele><time>2022-11-06T14:50:18.0000000+00:00</time></trkpt><trkpt lat="39.46065039" lon="-0.37334388"><ele>23.4</ele><time>2022-11-06T14:50:19.0000000+00:00</time></trkpt><trkpt lat="39.46060111" lon="-0.37336249"><ele>23.4</ele><time>2022-11-06T14:50:20.0000000+00:00</time></trkpt><trkpt lat="39.460553" lon="-0.37338118"><ele>23.4</ele><time>2022-11-06T14:50:21.0000000+00:00</time></trkpt><trkpt lat="39.46055124" lon="-0.37341077"><ele>23.4</ele><time>2022-11-06T14:50:22.0000000+00:00</time></trkpt><trkpt lat="39.46057823" lon="-0.37343063"><ele>23.6</ele><time>2022-11-06T14:50:23.0000000+00:00</time></trkpt><trkpt lat="39.46057412" lon="-0.37345821"><ele>23.6</ele><time>2022-11-06T14:50:24.0000000+00:00</time></trkpt><trkpt lat="39.46057797" lon="-0.37347866"><ele>23.6</ele><time>2022-11-06T14:50:25.0000000+00:00</time></trkpt><trkpt lat="39.46060404" lon="-0.37346668"><ele>23.6</ele><time>2022-11-06T14:50:26.0000000+00:00</time></trkpt><trkpt lat="39.46061301" lon="-0.37344991"><ele>23.6</ele><time>2022-11-06T14:50:27.0000000+00:00</time></trkpt><trkpt lat="39.46061745" lon="-0.37342988"><ele>23.6</ele><time>2022-11-06T14:50:28.0000000+00:00</time></trkpt><trkpt lat="39.46062475" lon="-0.37340909"><ele>23.6</ele><time>2022-11-06T14:50:29.0000000+00:00</time></trkpt><trkpt lat="39.46064444" lon="-0.37338386"><ele>23.6</ele><time>2022-11-06T14:50:30.0000000+00:00</time></trkpt><trkpt lat="39.46063506" lon="-0.37336534"><ele>23.6</ele><time>2022-11-06T14:50:31.0000000+00:00</time></trkpt><trkpt lat="39.46065433" lon="-0.37333592"><ele>23.6</ele><time>2022-11-06T14:50:32.0000000+00:00</time></trkpt><trkpt lat="39.46064746" lon="-0.3733236"><ele>23.6</ele><time>2022-11-06T14:50:33.0000000+00:00</time></trkpt><trkpt lat="39.46065039" lon="-0.37330164"><ele>23.6</ele><time>2022-11-06T14:50:34.0000000+00:00</time></trkpt><trkpt lat="39.46066749" lon="-0.373292"><ele>23.6</ele><time>2022-11-06T14:50:35.0000000+00:00</time></trkpt><trkpt lat="39.46068493" lon="-0.37328538"><ele>23.6</ele><time>2022-11-06T14:50:36.0000000+00:00</time></trkpt><trkpt lat="39.460698" lon="-0.37328471"><ele>23.4</ele><time>2022-11-06T14:50:37.0000000+00:00</time></trkpt><trkpt lat="39.46071854" lon="-0.37327398"><ele>23.4</ele><time>2022-11-06T14:50:38.0000000+00:00</time></trkpt><trkpt lat="39.46073036" lon="-0.37326367"><ele>23.4</ele><time>2022-11-06T14:50:39.0000000+00:00</time></trkpt><trkpt lat="39.46074813" lon="-0.37325051"><ele>23.4</ele><time>2022-11-06T14:50:40.0000000+00:00</time></trkpt><trkpt lat="39.46076858" lon="-0.37323441"><ele>23.4</ele><time>2022-11-06T14:50:41.0000000+00:00</time></trkpt><trkpt lat="39.46079272" lon="-0.37321312"><ele>23.4</ele><time>2022-11-06T14:50:42.0000000+00:00</time></trkpt><trkpt lat="39.46080043" lon="-0.37319779"><ele>23.4</ele><time>2022-11-06T14:50:43.0000000+00:00</time></trkpt><trkpt lat="39.46080663" lon="-0.37317591"><ele>23.4</ele><time>2022-11-06T14:50:44.0000000+00:00</time></trkpt><trkpt lat="39.46081359" lon="-0.37315328"><ele>23.4</ele><time>2022-11-06T14:50:45.0000000+00:00</time></trkpt><trkpt lat="39.46081678" lon="-0.37314909"><ele>23.4</ele><time>2022-11-06T14:50:46.0000000+00:00</time></trkpt><trkpt lat="39.46084058" lon="-0.37312612"><ele>23.2</ele><time>2022-11-06T14:50:47.0000000+00:00</time></trkpt><trkpt lat="39.46086246" lon="-0.37311724"><ele>23.2</ele><time>2022-11-06T14:50:48.0000000+00:00</time></trkpt><trkpt lat="39.46087268" lon="-0.3731086"><ele>23.2</ele><time>2022-11-06T14:50:49.0000000+00:00</time></trkpt><trkpt lat="39.46087947" lon="-0.37310215"><ele>23.2</ele><time>2022-11-06T14:50:50.0000000+00:00</time></trkpt><trkpt lat="39.46088299" lon="-0.37309988"><ele>23.2</ele><time>2022-11-06T14:50:51.0000000+00:00</time></trkpt><trkpt lat="39.460884" lon="-0.3731034"><ele>23.2</ele><time>2022-11-06T14:50:52.0000000+00:00</time></trkpt><trkpt lat="39.46090294" lon="-0.37310064"><ele>23.2</ele><time>2022-11-06T14:50:53.0000000+00:00</time></trkpt><trkpt lat="39.46091141" lon="-0.37309821"><ele>23.2</ele><time>2022-11-06T14:50:54.0000000+00:00</time></trkpt><trkpt lat="39.46090981" lon="-0.37309544"><ele>23.2</ele><time>2022-11-06T14:50:55.0000000+00:00</time></trkpt><trkpt lat="39.46090546" lon="-0.37309226"><ele>23.2</ele><time>2022-11-06T14:50:56.0000000+00:00</time></trkpt><trkpt lat="39.46090311" lon="-0.37309368"><ele>23.2</ele><time>2022-11-06T14:50:57.0000000+00:00</time></trkpt><trkpt lat="39.46090294" lon="-0.37309444"><ele>23.2</ele><time>2022-11-06T14:50:58.0000000+00:00</time></trkpt><trkpt lat="39.46090093" lon="-0.37309201"><ele>23.2</ele><time>2022-11-06T14:50:59.0000000+00:00</time></trkpt><trkpt lat="39.46089917" lon="-0.37308974"><ele>23.2</ele><time>2022-11-06T14:51:00.0000000+00:00</time></trkpt><trkpt lat="39.46089774" lon="-0.37308731"><ele>23.2</ele><time>2022-11-06T14:51:01.0000000+00:00</time></trkpt><trkpt lat="39.46090344" lon="-0.373076"><ele>23.2</ele><time>2022-11-06T14:51:02.0000000+00:00</time></trkpt><trkpt lat="39.46090411" lon="-0.37306627"><ele>23.2</ele><time>2022-11-06T14:51:03.0000000+00:00</time></trkpt><trkpt lat="39.46090277" lon="-0.37305269"><ele>23.2</ele><time>2022-11-06T14:51:04.0000000+00:00</time></trkpt><trkpt lat="39.46089917" lon="-0.37303677"><ele>23.4</ele><time>2022-11-06T14:51:05.0000000+00:00</time></trkpt><trkpt lat="39.46089548" lon="-0.37302084"><ele>23.2</ele><time>2022-11-06T14:51:06.0000000+00:00</time></trkpt><trkpt lat="39.46088718" lon="-0.37300794"><ele>23.2</ele><time>2022-11-06T14:51:07.0000000+00:00</time></trkpt><trkpt lat="39.46088039" lon="-0.37300123"><ele>23.2</ele><time>2022-11-06T14:51:08.0000000+00:00</time></trkpt><trkpt lat="39.46086849" lon="-0.37299821"><ele>23.2</ele><time>2022-11-06T14:51:09.0000000+00:00</time></trkpt><trkpt lat="39.4608586" lon="-0.37300559"><ele>23.2</ele><time>2022-11-06T14:51:10.0000000+00:00</time></trkpt><trkpt lat="39.46085709" lon="-0.37301355"><ele>23.2</ele><time>2022-11-06T14:51:11.0000000+00:00</time></trkpt><trkpt lat="39.46085651" lon="-0.37301724"><ele>23.2</ele><time>2022-11-06T14:51:12.0000000+00:00</time></trkpt><trkpt lat="39.46086405" lon="-0.37301565"><ele>23.2</ele><time>2022-11-06T14:51:13.0000000+00:00</time></trkpt><trkpt lat="39.46087654" lon="-0.37300852"><ele>23.2</ele><time>2022-11-06T14:51:14.0000000+00:00</time></trkpt><trkpt lat="39.46087629" lon="-0.37300383"><ele>23.2</ele><time>2022-11-06T14:51:15.0000000+00:00</time></trkpt><trkpt lat="39.46087126" lon="-0.37299704"><ele>23.0</ele><time>2022-11-06T14:51:16.0000000+00:00</time></trkpt><trkpt lat="39.46086983" lon="-0.37298807"><ele>23.0</ele><time>2022-11-06T14:51:17.0000000+00:00</time></trkpt><trkpt lat="39.46087268" lon="-0.37298053"><ele>23.0</ele><time>2022-11-06T14:51:18.0000000+00:00</time></trkpt><trkpt lat="39.46087461" lon="-0.37297206"><ele>23.0</ele><time>2022-11-06T14:51:19.0000000+00:00</time></trkpt><trkpt lat="39.46087444" lon="-0.37296929"><ele>23.0</ele><time>2022-11-06T14:51:20.0000000+00:00</time></trkpt><trkpt lat="39.46087427" lon="-0.37297038"><ele>23.0</ele><time>2022-11-06T14:51:21.0000000+00:00</time></trkpt><trkpt lat="39.4608788" lon="-0.37297474"><ele>23.0</ele><time>2022-11-06T14:51:22.0000000+00:00</time></trkpt><trkpt lat="39.46088039" lon="-0.37297701"><ele>23.0</ele><time>2022-11-06T14:51:23.0000000+00:00</time></trkpt><trkpt lat="39.46088509" lon="-0.3729817"><ele>23.0</ele><time>2022-11-06T14:51:24.0000000+00:00</time></trkpt><trkpt lat="39.46088894" lon="-0.37297935"><ele>23.2</ele><time>2022-11-06T14:51:25.0000000+00:00</time></trkpt><trkpt lat="39.46088593" lon="-0.37297449"><ele>23.2</ele><time>2022-11-06T14:51:26.0000000+00:00</time></trkpt><trkpt lat="39.46088987" lon="-0.37297315"><ele>23.2</ele><time>2022-11-06T14:51:27.0000000+00:00</time></trkpt><trkpt lat="39.46089506" lon="-0.37297927"><ele>23.2</ele><time>2022-11-06T14:51:28.0000000+00:00</time></trkpt><trkpt lat="39.46089632" lon="-0.37298706"><ele>23.2</ele><time>2022-11-06T14:51:29.0000000+00:00</time></trkpt><trkpt lat="39.46090126" lon="-0.37298396"><ele>23.2</ele><time>2022-11-06T14:51:30.0000000+00:00</time></trkpt><trkpt lat="39.46091032" lon="-0.37298287"><ele>23.2</ele><time>2022-11-06T14:51:31.0000000+00:00</time></trkpt><trkpt lat="39.46092289" lon="-0.37298665"><ele>23.2</ele><time>2022-11-06T14:51:32.0000000+00:00</time></trkpt><trkpt lat="39.46093471" lon="-0.37297583"><ele>23.2</ele><time>2022-11-06T14:51:33.0000000+00:00</time></trkpt><trkpt lat="39.46093689" lon="-0.37297114"><ele>23.2</ele><time>2022-11-06T14:51:34.0000000+00:00</time></trkpt><trkpt lat="39.46093219" lon="-0.37297726"><ele>23.2</ele><time>2022-11-06T14:51:35.0000000+00:00</time></trkpt><trkpt lat="39.46092884" lon="-0.37297768"><ele>23.2</ele><time>2022-11-06T14:51:36.0000000+00:00</time></trkpt><trkpt lat="39.46093194" lon="-0.3729734"><ele>23.2</ele><time>2022-11-06T14:51:37.0000000+00:00</time></trkpt><trkpt lat="39.46093345" lon="-0.37297005"><ele>23.2</ele><time>2022-11-06T14:51:38.0000000+00:00</time></trkpt><trkpt lat="39.46092876" lon="-0.37297072"><ele>23.2</ele><time>2022-11-06T14:51:39.0000000+00:00</time></trkpt><trkpt lat="39.46092038" lon="-0.37296753"><ele>23.2</ele><time>2022-11-06T14:51:40.0000000+00:00</time></trkpt><trkpt lat="39.46091744" lon="-0.37295085"><ele>23.2</ele><time>2022-11-06T14:51:41.0000000+00:00</time></trkpt><trkpt lat="39.46090931" lon="-0.37293417"><ele>23.2</ele><time>2022-11-06T14:51:42.0000000+00:00</time></trkpt><trkpt lat="39.46091375" lon="-0.37291154"><ele>23.2</ele><time>2022-11-06T14:51:43.0000000+00:00</time></trkpt><trkpt lat="39.46093555" lon="-0.37291355"><ele>23.2</ele><time>2022-11-06T14:51:44.0000000+00:00</time></trkpt><trkpt lat="39.46093798" lon="-0.3729004"><ele>23.2</ele><time>2022-11-06T14:51:45.0000000+00:00</time></trkpt><trkpt lat="39.46093814" lon="-0.37289134"><ele>23.2</ele><time>2022-11-06T14:51:46.0000000+00:00</time></trkpt><trkpt lat="39.46093722" lon="-0.37289537"><ele>23.2</ele><time>2022-11-06T14:51:47.0000000+00:00</time></trkpt><trkpt lat="39.46093613" lon="-0.3728905"><ele>23.2</ele><time>2022-11-06T14:51:48.0000000+00:00</time></trkpt><trkpt lat="39.46093043" lon="-0.37288631"><ele>23.2</ele><time>2022-11-06T14:51:49.0000000+00:00</time></trkpt><trkpt lat="39.46092465" lon="-0.37288589"><ele>23.2</ele><time>2022-11-06T14:51:50.0000000+00:00</time></trkpt><trkpt lat="39.46091434" lon="-0.3728869"><ele>23.2</ele><time>2022-11-06T14:51:51.0000000+00:00</time></trkpt><trkpt lat="39.46088987" lon="-0.37289"><ele>23.4</ele><time>2022-11-06T14:51:52.0000000+00:00</time></trkpt><trkpt lat="39.46087696" lon="-0.37289327"><ele>23.4</ele><time>2022-11-06T14:51:53.0000000+00:00</time></trkpt><trkpt lat="39.46088945" lon="-0.37289486"><ele>23.4</ele><time>2022-11-06T14:51:54.0000000+00:00</time></trkpt><trkpt lat="39.46089841" lon="-0.37289905"><ele>23.4</ele><time>2022-11-06T14:51:55.0000000+00:00</time></trkpt><trkpt lat="39.46090311" lon="-0.37289964"><ele>23.4</ele><time>2022-11-06T14:51:56.0000000+00:00</time></trkpt><trkpt lat="39.46091023" lon="-0.37290241"><ele>23.2</ele><time>2022-11-06T14:51:57.0000000+00:00</time></trkpt><trkpt lat="39.46093706" lon="-0.37290501"><ele>23.2</ele><time>2022-11-06T14:51:58.0000000+00:00</time></trkpt><trkpt lat="39.46096228" lon="-0.37290182"><ele>23.2</ele><time>2022-11-06T14:51:59.0000000+00:00</time></trkpt><trkpt lat="39.46097285" lon="-0.37290509"><ele>23.2</ele><time>2022-11-06T14:52:00.0000000+00:00</time></trkpt><trkpt lat="39.4609907" lon="-0.37290786"><ele>23.2</ele><time>2022-11-06T14:52:01.0000000+00:00</time></trkpt><trkpt lat="39.46102574" lon="-0.37290827"><ele>23.2</ele><time>2022-11-06T14:52:02.0000000+00:00</time></trkpt><trkpt lat="39.46104091" lon="-0.3729092"><ele>23.2</ele><time>2022-11-06T14:52:03.0000000+00:00</time></trkpt><trkpt lat="39.4610606" lon="-0.3729123"><ele>23.2</ele><time>2022-11-06T14:52:04.0000000+00:00</time></trkpt><trkpt lat="39.46107083" lon="-0.37291238"><ele>23.0</ele><time>2022-11-06T14:52:05.0000000+00:00</time></trkpt><trkpt lat="39.46107024" lon="-0.37291045"><ele>23.0</ele><time>2022-11-06T14:52:06.0000000+00:00</time></trkpt><trkpt lat="39.46106806" lon="-0.37291364"><ele>23.0</ele><time>2022-11-06T14:52:07.0000000+00:00</time></trkpt><trkpt lat="39.46105985" lon="-0.37291079"><ele>23.0</ele><time>2022-11-06T14:52:08.0000000+00:00</time></trkpt><trkpt lat="39.4610487" lon="-0.37290945"><ele>23.0</ele><time>2022-11-06T14:52:09.0000000+00:00</time></trkpt><trkpt lat="39.46103906" lon="-0.3729076"><ele>23.0</ele><time>2022-11-06T14:52:10.0000000+00:00</time></trkpt><trkpt lat="39.46103118" lon="-0.37290467"><ele>23.2</ele><time>2022-11-06T14:52:11.0000000+00:00</time></trkpt><trkpt lat="39.4610223" lon="-0.37290492"><ele>23.2</ele><time>2022-11-06T14:52:12.0000000+00:00</time></trkpt><trkpt lat="39.46101517" lon="-0.37290325"><ele>23.2</ele><time>2022-11-06T14:52:13.0000000+00:00</time></trkpt><trkpt lat="39.46100889" lon="-0.37290014"><ele>23.2</ele><time>2022-11-06T14:52:14.0000000+00:00</time></trkpt><trkpt lat="39.46100537" lon="-0.37290584"><ele>23.2</ele><time>2022-11-06T14:52:15.0000000+00:00</time></trkpt><trkpt lat="39.46100009" lon="-0.37290601"><ele>23.2</ele><time>2022-11-06T14:52:16.0000000+00:00</time></trkpt><trkpt lat="39.46099439" lon="-0.3729071"><ele>23.2</ele><time>2022-11-06T14:52:17.0000000+00:00</time></trkpt><trkpt lat="39.4609912" lon="-0.37290786"><ele>23.2</ele><time>2022-11-06T14:52:18.0000000+00:00</time></trkpt><trkpt lat="39.46098617" lon="-0.37291816"><ele>23.2</ele><time>2022-11-06T14:52:19.0000000+00:00</time></trkpt><trkpt lat="39.46098332" lon="-0.37293317"><ele>23.2</ele><time>2022-11-06T14:52:20.0000000+00:00</time></trkpt><trkpt lat="39.46097695" lon="-0.37294893"><ele>23.2</ele><time>2022-11-06T14:52:21.0000000+00:00</time></trkpt><trkpt lat="39.46096631" lon="-0.37295974"><ele>23.2</ele><time>2022-11-06T14:52:22.0000000+00:00</time></trkpt><trkpt lat="39.46094795" lon="-0.37297055"><ele>23.2</ele><time>2022-11-06T14:52:23.0000000+00:00</time></trkpt><trkpt lat="39.4609482" lon="-0.37297332"><ele>23.2</ele><time>2022-11-06T14:52:24.0000000+00:00</time></trkpt><trkpt lat="39.46095868" lon="-0.37296812"><ele>23.2</ele><time>2022-11-06T14:52:25.0000000+00:00</time></trkpt><trkpt lat="39.46095633" lon="-0.37297717"><ele>23.2</ele><time>2022-11-06T14:52:26.0000000+00:00</time></trkpt><trkpt lat="39.46094099" lon="-0.37299025"><ele>23.2</ele><time>2022-11-06T14:52:27.0000000+00:00</time></trkpt><trkpt lat="39.46093789" lon="-0.37299838"><ele>23.2</ele><time>2022-11-06T14:52:28.0000000+00:00</time></trkpt><trkpt lat="39.46093521" lon="-0.37300433"><ele>23.2</ele><time>2022-11-06T14:52:29.0000000+00:00</time></trkpt><trkpt lat="39.46093513" lon="-0.37301372"><ele>23.2</ele><time>2022-11-06T14:52:30.0000000+00:00</time></trkpt><trkpt lat="39.4609301" lon="-0.37301833"><ele>23.2</ele><time>2022-11-06T14:52:31.0000000+00:00</time></trkpt><trkpt lat="39.46092582" lon="-0.37302235"><ele>23.2</ele><time>2022-11-06T14:52:32.0000000+00:00</time></trkpt><trkpt lat="39.46092415" lon="-0.37302252"><ele>23.2</ele><time>2022-11-06T14:52:33.0000000+00:00</time></trkpt><trkpt lat="39.46092507" lon="-0.37302621"><ele>23.2</ele><time>2022-11-06T14:52:34.0000000+00:00</time></trkpt><trkpt lat="39.46092457" lon="-0.37303048"><ele>23.2</ele><time>2022-11-06T14:52:35.0000000+00:00</time></trkpt><trkpt lat="39.46092038" lon="-0.3730242"><ele>23.2</ele><time>2022-11-06T14:52:36.0000000+00:00</time></trkpt><trkpt lat="39.46091903" lon="-0.37301439"><ele>23.2</ele><time>2022-11-06T14:52:37.0000000+00:00</time></trkpt><trkpt lat="39.4609166" lon="-0.37301523"><ele>23.2</ele><time>2022-11-06T14:52:38.0000000+00:00</time></trkpt><trkpt lat="39.46091157" lon="-0.37301087"><ele>23.2</ele><time>2022-11-06T14:52:39.0000000+00:00</time></trkpt><trkpt lat="39.4609275" lon="-0.37300978"><ele>23.2</ele><time>2022-11-06T14:52:40.0000000+00:00</time></trkpt><trkpt lat="39.46093194" lon="-0.37300802"><ele>23.2</ele><time>2022-11-06T14:52:41.0000000+00:00</time></trkpt><trkpt lat="39.46093638" lon="-0.37300785"><ele>23.2</ele><time>2022-11-06T14:52:42.0000000+00:00</time></trkpt><trkpt lat="39.46093203" lon="-0.37300852"><ele>23.2</ele><time>2022-11-06T14:52:43.0000000+00:00</time></trkpt><trkpt lat="39.4609275" lon="-0.373004"><ele>23.2</ele><time>2022-11-06T14:52:44.0000000+00:00</time></trkpt><trkpt lat="39.46092716" lon="-0.37299402"><ele>23.2</ele><time>2022-11-06T14:52:45.0000000+00:00</time></trkpt><trkpt lat="39.46092825" lon="-0.37298732"><ele>23.2</ele><time>2022-11-06T14:52:46.0000000+00:00</time></trkpt><trkpt lat="39.46093454" lon="-0.37298841"><ele>23.2</ele><time>2022-11-06T14:52:47.0000000+00:00</time></trkpt><trkpt lat="39.4609451" lon="-0.37299511"><ele>23.2</ele><time>2022-11-06T14:52:48.0000000+00:00</time></trkpt><trkpt lat="39.46095633" lon="-0.37300232"><ele>23.2</ele><time>2022-11-06T14:52:49.0000000+00:00</time></trkpt><trkpt lat="39.46096078" lon="-0.37300509"><ele>23.2</ele><time>2022-11-06T14:52:50.0000000+00:00</time></trkpt><trkpt lat="39.4609612" lon="-0.37300735"><ele>23.2</ele><time>2022-11-06T14:52:51.0000000+00:00</time></trkpt><trkpt lat="39.46096019" lon="-0.37301238"><ele>23.2</ele><time>2022-11-06T14:52:52.0000000+00:00</time></trkpt><trkpt lat="39.4609586" lon="-0.37301472"><ele>23.2</ele><time>2022-11-06T14:52:53.0000000+00:00</time></trkpt><trkpt lat="39.46095659" lon="-0.37301481"><ele>23.2</ele><time>2022-11-06T14:52:54.0000000+00:00</time></trkpt><trkpt lat="39.46095692" lon="-0.37301171"><ele>23.2</ele><time>2022-11-06T14:52:55.0000000+00:00</time></trkpt><trkpt lat="39.46095382" lon="-0.37300802"><ele>23.2</ele><time>2022-11-06T14:52:56.0000000+00:00</time></trkpt><trkpt lat="39.46095357" lon="-0.37300869"><ele>23.2</ele><time>2022-11-06T14:52:57.0000000+00:00</time></trkpt><trkpt lat="39.46095415" lon="-0.37300953"><ele>23.2</ele><time>2022-11-06T14:52:58.0000000+00:00</time></trkpt><trkpt lat="39.46095918" lon="-0.37301087"><ele>23.2</ele><time>2022-11-06T14:52:59.0000000+00:00</time></trkpt><trkpt lat="39.4609596" lon="-0.37301355"><ele>23.2</ele><time>2022-11-06T14:53:00.0000000+00:00</time></trkpt><trkpt lat="39.46096044" lon="-0.37301489"><ele>23.2</ele><time>2022-11-06T14:53:01.0000000+00:00</time></trkpt><trkpt lat="39.46095851" lon="-0.37301531"><ele>23.2</ele><time>2022-11-06T14:53:02.0000000+00:00</time></trkpt><trkpt lat="39.46095818" lon="-0.37301129"><ele>23.2</ele><time>2022-11-06T14:53:03.0000000+00:00</time></trkpt><trkpt lat="39.46096002" lon="-0.37300928"><ele>23.2</ele><time>2022-11-06T14:53:04.0000000+00:00</time></trkpt><trkpt lat="39.46095357" lon="-0.37301003"><ele>23.2</ele><time>2022-11-06T14:53:05.0000000+00:00</time></trkpt><trkpt lat="39.4609503" lon="-0.3730081"><ele>23.2</ele><time>2022-11-06T14:53:06.0000000+00:00</time></trkpt><trkpt lat="39.46094896" lon="-0.3730055"><ele>23.2</ele><time>2022-11-06T14:53:07.0000000+00:00</time></trkpt><trkpt lat="39.46095818" lon="-0.37299084"><ele>23.2</ele><time>2022-11-06T14:53:08.0000000+00:00</time></trkpt><trkpt lat="39.46096337" lon="-0.37296921"><ele>23.2</ele><time>2022-11-06T14:53:09.0000000+00:00</time></trkpt><trkpt lat="39.46096757" lon="-0.37296368"><ele>23.2</ele><time>2022-11-06T14:53:10.0000000+00:00</time></trkpt><trkpt lat="39.46099078" lon="-0.37298036"><ele>23.2</ele><time>2022-11-06T14:53:11.0000000+00:00</time></trkpt><trkpt lat="39.46100738" lon="-0.37299234"><ele>23.2</ele><time>2022-11-06T14:53:12.0000000+00:00</time></trkpt><trkpt lat="39.46102431" lon="-0.37300073"><ele>23.2</ele><time>2022-11-06T14:53:13.0000000+00:00</time></trkpt><trkpt lat="39.46102649" lon="-0.37300064"><ele>23.2</ele><time>2022-11-06T14:53:14.0000000+00:00</time></trkpt><trkpt lat="39.46101652" lon="-0.37298908"><ele>23.2</ele><time>2022-11-06T14:53:15.0000000+00:00</time></trkpt><trkpt lat="39.46100788" lon="-0.37297256"><ele>23.2</ele><time>2022-11-06T14:53:16.0000000+00:00</time></trkpt><trkpt lat="39.46100218" lon="-0.37296846"><ele>23.2</ele><time>2022-11-06T14:53:17.0000000+00:00</time></trkpt><trkpt lat="39.46099984" lon="-0.37296879"><ele>23.2</ele><time>2022-11-06T14:53:18.0000000+00:00</time></trkpt><trkpt lat="39.46099741" lon="-0.37296594"><ele>23.2</ele><time>2022-11-06T14:53:19.0000000+00:00</time></trkpt><trkpt lat="39.46099137" lon="-0.37296435"><ele>23.2</ele><time>2022-11-06T14:53:20.0000000+00:00</time></trkpt><trkpt lat="39.4609876" lon="-0.37296276"><ele>23.2</ele><time>2022-11-06T14:53:21.0000000+00:00</time></trkpt><trkpt lat="39.4609907" lon="-0.37295982"><ele>23.2</ele><time>2022-11-06T14:53:22.0000000+00:00</time></trkpt><trkpt lat="39.46099028" lon="-0.37295681"><ele>23.0</ele><time>2022-11-06T14:53:23.0000000+00:00</time></trkpt><trkpt lat="39.46098316" lon="-0.37295538"><ele>23.0</ele><time>2022-11-06T14:53:24.0000000+00:00</time></trkpt><trkpt lat="39.46097964" lon="-0.37295488"><ele>23.0</ele><time>2022-11-06T14:53:25.0000000+00:00</time></trkpt><trkpt lat="39.46097586" lon="-0.37295127"><ele>23.0</ele><time>2022-11-06T14:53:26.0000000+00:00</time></trkpt><trkpt lat="39.46097134" lon="-0.37295102"><ele>22.8</ele><time>2022-11-06T14:53:27.0000000+00:00</time></trkpt><trkpt lat="39.46096807" lon="-0.37295597"><ele>22.8</ele><time>2022-11-06T14:53:28.0000000+00:00</time></trkpt><trkpt lat="39.4609684" lon="-0.37295815"><ele>22.8</ele><time>2022-11-06T14:53:29.0000000+00:00</time></trkpt><trkpt lat="39.46096723" lon="-0.37296116"><ele>23.0</ele><time>2022-11-06T14:53:30.0000000+00:00</time></trkpt><trkpt lat="39.46096513" lon="-0.37296452"><ele>23.0</ele><time>2022-11-06T14:53:31.0000000+00:00</time></trkpt><trkpt lat="39.4609643" lon="-0.3729677"><ele>23.0</ele><time>2022-11-06T14:53:32.0000000+00:00</time></trkpt><trkpt lat="39.46097008" lon="-0.37296628"><ele>23.0</ele><time>2022-11-06T14:53:33.0000000+00:00</time></trkpt><trkpt lat="39.46096002" lon="-0.37296527"><ele>23.0</ele><time>2022-11-06T14:53:34.0000000+00:00</time></trkpt><trkpt lat="39.46095415" lon="-0.37296334"><ele>23.0</ele><time>2022-11-06T14:53:35.0000000+00:00</time></trkpt><trkpt lat="39.4609513" lon="-0.37296292"><ele>23.0</ele><time>2022-11-06T14:53:36.0000000+00:00</time></trkpt><trkpt lat="39.46094376" lon="-0.37295387"><ele>23.0</ele><time>2022-11-06T14:53:37.0000000+00:00</time></trkpt><trkpt lat="39.46094158" lon="-0.37295018"><ele>23.0</ele><time>2022-11-06T14:53:38.0000000+00:00</time></trkpt><trkpt lat="39.46094208" lon="-0.37294574"><ele>23.0</ele><time>2022-11-06T14:53:39.0000000+00:00</time></trkpt><trkpt lat="39.46093362" lon="-0.37294054"><ele>23.0</ele><time>2022-11-06T14:53:40.0000000+00:00</time></trkpt><trkpt lat="39.46093697" lon="-0.37294138"><ele>23.0</ele><time>2022-11-06T14:53:41.0000000+00:00</time></trkpt><trkpt lat="39.46093697" lon="-0.37294138"><ele>23.2</ele><time>2022-11-06T14:53:42.0000000+00:00</time></trkpt><trkpt lat="39.46093697" lon="-0.37294138"><ele>23.2</ele><time>2022-11-06T14:53:43.0000000+00:00</time></trkpt><trkpt lat="39.46093697" lon="-0.37294138"><ele>23.2</ele><time>2022-11-06T14:53:44.0000000+00:00</time></trkpt><trkpt lat="39.46093697" lon="-0.37294138"><ele>23.2</ele><time>2022-11-06T14:53:45.0000000+00:00</time></trkpt><trkpt lat="39.46093697" lon="-0.37294138"><ele>23.2</ele><time>2022-11-06T14:53:46.0000000+00:00</time></trkpt><trkpt lat="39.46093697" lon="-0.37294138"><ele>23.2</ele><time>2022-11-06T14:53:47.0000000+00:00</time></trkpt><trkpt lat="39.46093697" lon="-0.37294138"><ele>23.2</ele><time>2022-11-06T14:53:48.0000000+00:00</time></trkpt><trkpt lat="39.46093697" lon="-0.37294138"><ele>23.2</ele><time>2022-11-06T14:53:49.0000000+00:00</time></trkpt><trkpt lat="39.46093697" lon="-0.37294331"><ele>23.2</ele><time>2022-11-06T14:53:50.0000000+00:00</time></trkpt><trkpt lat="39.46093697" lon="-0.37294566"><ele>23.2</ele><time>2022-11-06T14:53:51.0000000+00:00</time></trkpt><trkpt lat="39.46093697" lon="-0.37294809"><ele>23.2</ele><time>2022-11-06T14:53:52.0000000+00:00</time></trkpt><trkpt lat="39.46093714" lon="-0.37294834"><ele>23.2</ele><time>2022-11-06T14:53:53.0000000+00:00</time></trkpt><trkpt lat="39.46093739" lon="-0.37294926"><ele>23.2</ele><time>2022-11-06T14:53:54.0000000+00:00</time></trkpt><trkpt lat="39.46093756" lon="-0.37295018"><ele>23.2</ele><time>2022-11-06T14:53:55.0000000+00:00</time></trkpt><trkpt lat="39.46093764" lon="-0.37295345"><ele>23.2</ele><time>2022-11-06T14:53:56.0000000+00:00</time></trkpt><trkpt lat="39.46093555" lon="-0.3729558"><ele>23.2</ele><time>2022-11-06T14:53:57.0000000+00:00</time></trkpt><trkpt lat="39.46093907" lon="-0.37295731"><ele>23.2</ele><time>2022-11-06T14:53:58.0000000+00:00</time></trkpt><trkpt lat="39.46092021" lon="-0.3729651"><ele>23.2</ele><time>2022-11-06T14:53:59.0000000+00:00</time></trkpt><trkpt lat="39.4609104" lon="-0.37296871"><ele>23.2</ele><time>2022-11-06T14:54:00.0000000+00:00</time></trkpt><trkpt lat="39.46090428" lon="-0.37298019"><ele>23.2</ele><time>2022-11-06T14:54:01.0000000+00:00</time></trkpt><trkpt lat="39.46089204" lon="-0.3729848"><ele>23.2</ele><time>2022-11-06T14:54:02.0000000+00:00</time></trkpt><trkpt lat="39.46087386" lon="-0.37299578"><ele>23.2</ele><time>2022-11-06T14:54:03.0000000+00:00</time></trkpt><trkpt lat="39.4608586" lon="-0.37300584"><ele>23.2</ele><time>2022-11-06T14:54:04.0000000+00:00</time></trkpt><trkpt lat="39.46084913" lon="-0.37301808"><ele>23.0</ele><time>2022-11-06T14:54:05.0000000+00:00</time></trkpt><trkpt lat="39.46084511" lon="-0.37302244"><ele>23.6</ele><time>2022-11-06T14:54:06.0000000+00:00</time></trkpt><trkpt lat="39.46084678" lon="-0.3730278"><ele>23.6</ele><time>2022-11-06T14:54:07.0000000+00:00</time></trkpt><trkpt lat="39.46084972" lon="-0.37302822"><ele>23.6</ele><time>2022-11-06T14:54:08.0000000+00:00</time></trkpt><trkpt lat="39.46085282" lon="-0.37302269"><ele>23.6</ele><time>2022-11-06T14:54:09.0000000+00:00</time></trkpt><trkpt lat="39.4608555" lon="-0.37302193"><ele>23.6</ele><time>2022-11-06T14:54:10.0000000+00:00</time></trkpt><trkpt lat="39.46085927" lon="-0.37302051"><ele>23.6</ele><time>2022-11-06T14:54:11.0000000+00:00</time></trkpt><trkpt lat="39.46086371" lon="-0.3730138"><ele>23.6</ele><time>2022-11-06T14:54:12.0000000+00:00</time></trkpt><trkpt lat="39.46086288" lon="-0.37301196"><ele>23.8</ele><time>2022-11-06T14:54:13.0000000+00:00</time></trkpt><trkpt lat="39.46086271" lon="-0.37301933"><ele>23.6</ele><time>2022-11-06T14:54:14.0000000+00:00</time></trkpt><trkpt lat="39.4608638" lon="-0.37303233"><ele>23.6</ele><time>2022-11-06T14:54:15.0000000+00:00</time></trkpt><trkpt lat="39.46086212" lon="-0.3730366"><ele>23.6</ele><time>2022-11-06T14:54:16.0000000+00:00</time></trkpt><trkpt lat="39.46086112" lon="-0.37303451"><ele>23.6</ele><time>2022-11-06T14:54:17.0000000+00:00</time></trkpt><trkpt lat="39.4608534" lon="-0.37303166"><ele>23.6</ele><time>2022-11-06T14:54:18.0000000+00:00</time></trkpt><trkpt lat="39.46085215" lon="-0.37303073"><ele>23.6</ele><time>2022-11-06T14:54:19.0000000+00:00</time></trkpt><trkpt lat="39.46085407" lon="-0.37302881"><ele>23.6</ele><time>2022-11-06T14:54:20.0000000+00:00</time></trkpt><trkpt lat="39.4608617" lon="-0.37303518"><ele>23.6</ele><time>2022-11-06T14:54:21.0000000+00:00</time></trkpt><trkpt lat="39.46087034" lon="-0.3730371"><ele>23.6</ele><time>2022-11-06T14:54:22.0000000+00:00</time></trkpt><trkpt lat="39.46086103" lon="-0.37302788"><ele>23.6</ele><time>2022-11-06T14:54:23.0000000+00:00</time></trkpt><trkpt lat="39.46086455" lon="-0.37302093"><ele>23.6</ele><time>2022-11-06T14:54:24.0000000+00:00</time></trkpt><trkpt lat="39.46087511" lon="-0.37302135"><ele>23.6</ele><time>2022-11-06T14:54:25.0000000+00:00</time></trkpt><trkpt lat="39.46089716" lon="-0.37301548"><ele>23.6</ele><time>2022-11-06T14:54:26.0000000+00:00</time></trkpt><trkpt lat="39.46090235" lon="-0.37300953"><ele>24.0</ele><time>2022-11-06T14:54:27.0000000+00:00</time></trkpt><trkpt lat="39.46092188" lon="-0.37299905"><ele>24.0</ele><time>2022-11-06T14:54:28.0000000+00:00</time></trkpt><trkpt lat="39.46093898" lon="-0.37299285"><ele>24.0</ele><time>2022-11-06T14:54:29.0000000+00:00</time></trkpt><trkpt lat="39.4609586" lon="-0.37298949"><ele>24.0</ele><time>2022-11-06T14:54:30.0000000+00:00</time></trkpt><trkpt lat="39.46094762" lon="-0.3729843"><ele>24.0</ele><time>2022-11-06T14:54:31.0000000+00:00</time></trkpt><trkpt lat="39.46093697" lon="-0.37298203"><ele>24.0</ele><time>2022-11-06T14:54:32.0000000+00:00</time></trkpt><trkpt lat="39.46092574" lon="-0.37298363"><ele>24.0</ele><time>2022-11-06T14:54:33.0000000+00:00</time></trkpt><trkpt lat="39.46091719" lon="-0.37298338"><ele>24.0</ele><time>2022-11-06T14:54:34.0000000+00:00</time></trkpt><trkpt lat="39.46090479" lon="-0.37298656"><ele>24.0</ele><time>2022-11-06T14:54:35.0000000+00:00</time></trkpt><trkpt lat="39.46089171" lon="-0.37298924"><ele>24.0</ele><time>2022-11-06T14:54:36.0000000+00:00</time></trkpt><trkpt lat="39.46089037" lon="-0.37298874"><ele>24.0</ele><time>2022-11-06T14:54:37.0000000+00:00</time></trkpt><trkpt lat="39.46087461" lon="-0.37298514"><ele>24.0</ele><time>2022-11-06T14:54:38.0000000+00:00</time></trkpt><trkpt lat="39.46086598" lon="-0.37298203"><ele>24.0</ele><time>2022-11-06T14:54:39.0000000+00:00</time></trkpt><trkpt lat="39.46086288" lon="-0.37297684"><ele>24.0</ele><time>2022-11-06T14:54:40.0000000+00:00</time></trkpt><trkpt lat="39.46085357" lon="-0.37297248"><ele>23.8</ele><time>2022-11-06T14:54:41.0000000+00:00</time></trkpt><trkpt lat="39.46084301" lon="-0.37296569"><ele>23.8</ele><time>2022-11-06T14:54:42.0000000+00:00</time></trkpt><trkpt lat="39.46084083" lon="-0.37296142"><ele>23.8</ele><time>2022-11-06T14:54:43.0000000+00:00</time></trkpt><trkpt lat="39.46082734" lon="-0.37295924"><ele>23.8</ele><time>2022-11-06T14:54:44.0000000+00:00</time></trkpt><trkpt lat="39.46081409" lon="-0.37295496"><ele>23.8</ele><time>2022-11-06T14:54:45.0000000+00:00</time></trkpt><trkpt lat="39.4608073" lon="-0.37295488"><ele>23.8</ele><time>2022-11-06T14:54:46.0000000+00:00</time></trkpt><trkpt lat="39.46080823" lon="-0.37295706"><ele>23.8</ele><time>2022-11-06T14:54:47.0000000+00:00</time></trkpt><trkpt lat="39.4608068" lon="-0.37295882"><ele>24.0</ele><time>2022-11-06T14:54:48.0000000+00:00</time></trkpt><trkpt lat="39.46080118" lon="-0.37295722"><ele>24.0</ele><time>2022-11-06T14:54:49.0000000+00:00</time></trkpt><trkpt lat="39.46080261" lon="-0.37295655"><ele>24.0</ele><time>2022-11-06T14:54:50.0000000+00:00</time></trkpt><trkpt lat="39.46079926" lon="-0.37295362"><ele>24.0</ele><time>2022-11-06T14:54:51.0000000+00:00</time></trkpt><trkpt lat="39.4607985" lon="-0.37295287"><ele>24.0</ele><time>2022-11-06T14:54:52.0000000+00:00</time></trkpt><trkpt lat="39.46078601" lon="-0.37294985"><ele>24.0</ele><time>2022-11-06T14:54:53.0000000+00:00</time></trkpt><trkpt lat="39.46077378" lon="-0.37294976"><ele>24.0</ele><time>2022-11-06T14:54:54.0000000+00:00</time></trkpt><trkpt lat="39.46076975" lon="-0.37295437"><ele>24.0</ele><time>2022-11-06T14:54:55.0000000+00:00</time></trkpt><trkpt lat="39.46076481" lon="-0.37295748"><ele>24.0</ele><time>2022-11-06T14:54:56.0000000+00:00</time></trkpt><trkpt lat="39.46076389" lon="-0.37295924"><ele>24.0</ele><time>2022-11-06T14:54:57.0000000+00:00</time></trkpt><trkpt lat="39.46073857" lon="-0.37296251"><ele>24.0</ele><time>2022-11-06T14:54:58.0000000+00:00</time></trkpt><trkpt lat="39.46071032" lon="-0.3729734"><ele>24.0</ele><time>2022-11-06T14:54:59.0000000+00:00</time></trkpt><trkpt lat="39.46069155" lon="-0.37297407"><ele>24.0</ele><time>2022-11-06T14:55:00.0000000+00:00</time></trkpt><trkpt lat="39.46067462" lon="-0.37297441"><ele>24.0</ele><time>2022-11-06T14:55:01.0000000+00:00</time></trkpt><trkpt lat="39.46066984" lon="-0.37297365"><ele>24.0</ele><time>2022-11-06T14:55:02.0000000+00:00</time></trkpt><trkpt lat="39.46067135" lon="-0.37297114"><ele>24.0</ele><time>2022-11-06T14:55:03.0000000+00:00</time></trkpt><trkpt lat="39.46067965" lon="-0.37296829"><ele>24.0</ele><time>2022-11-06T14:55:04.0000000+00:00</time></trkpt><trkpt lat="39.46067604" lon="-0.37296477"><ele>24.0</ele><time>2022-11-06T14:55:05.0000000+00:00</time></trkpt><trkpt lat="39.46068032" lon="-0.37296251"><ele>24.0</ele><time>2022-11-06T14:55:06.0000000+00:00</time></trkpt><trkpt lat="39.4606861" lon="-0.37296318"><ele>24.0</ele><time>2022-11-06T14:55:07.0000000+00:00</time></trkpt><trkpt lat="39.46069406" lon="-0.37296401"><ele>24.0</ele><time>2022-11-06T14:55:08.0000000+00:00</time></trkpt><trkpt lat="39.46069985" lon="-0.3729589"><ele>24.0</ele><time>2022-11-06T14:55:09.0000000+00:00</time></trkpt><trkpt lat="39.46070169" lon="-0.37296108"><ele>24.0</ele><time>2022-11-06T14:55:10.0000000+00:00</time></trkpt><trkpt lat="39.46070756" lon="-0.37296242"><ele>24.0</ele><time>2022-11-06T14:55:11.0000000+00:00</time></trkpt><trkpt lat="39.46070789" lon="-0.37296686"><ele>23.8</ele><time>2022-11-06T14:55:12.0000000+00:00</time></trkpt><trkpt lat="39.46071602" lon="-0.37294985"><ele>23.8</ele><time>2022-11-06T14:55:13.0000000+00:00</time></trkpt><trkpt lat="39.46071535" lon="-0.3729418"><ele>23.8</ele><time>2022-11-06T14:55:14.0000000+00:00</time></trkpt><trkpt lat="39.46071544" lon="-0.3729382"><ele>23.8</ele><time>2022-11-06T14:55:15.0000000+00:00</time></trkpt><trkpt lat="39.46072189" lon="-0.37293023"><ele>23.8</ele><time>2022-11-06T14:55:16.0000000+00:00</time></trkpt><trkpt lat="39.46073229" lon="-0.37291523"><ele>23.8</ele><time>2022-11-06T14:55:17.0000000+00:00</time></trkpt><trkpt lat="39.460741" lon="-0.37290425"><ele>23.8</ele><time>2022-11-06T14:55:18.0000000+00:00</time></trkpt><trkpt lat="39.46074779" lon="-0.37289034"><ele>23.8</ele><time>2022-11-06T14:55:19.0000000+00:00</time></trkpt><trkpt lat="39.46075282" lon="-0.37289696"><ele>23.8</ele><time>2022-11-06T14:55:20.0000000+00:00</time></trkpt><trkpt lat="39.46075408" lon="-0.37289763"><ele>23.8</ele><time>2022-11-06T14:55:21.0000000+00:00</time></trkpt><trkpt lat="39.46075643" lon="-0.37289235"><ele>23.8</ele><time>2022-11-06T14:55:22.0000000+00:00</time></trkpt><trkpt lat="39.46075802" lon="-0.37288128"><ele>23.6</ele><time>2022-11-06T14:55:23.0000000+00:00</time></trkpt><trkpt lat="39.46075869" lon="-0.37287483"><ele>23.6</ele><time>2022-11-06T14:55:24.0000000+00:00</time></trkpt><trkpt lat="39.46076246" lon="-0.37286796"><ele>23.6</ele><time>2022-11-06T14:55:25.0000000+00:00</time></trkpt><trkpt lat="39.4607612" lon="-0.3728672"><ele>23.8</ele><time>2022-11-06T14:55:26.0000000+00:00</time></trkpt><trkpt lat="39.46076196" lon="-0.37286771"><ele>24.0</ele><time>2022-11-06T14:55:27.0000000+00:00</time></trkpt><trkpt lat="39.46076196" lon="-0.37286896"><ele>24.0</ele><time>2022-11-06T14:55:28.0000000+00:00</time></trkpt><trkpt lat="39.46076078" lon="-0.37286854"><ele>24.0</ele><time>2022-11-06T14:55:29.0000000+00:00</time></trkpt><trkpt lat="39.46075928" lon="-0.37287097"><ele>24.0</ele><time>2022-11-06T14:55:30.0000000+00:00</time></trkpt><trkpt lat="39.46076087" lon="-0.37287533"><ele>24.0</ele><time>2022-11-06T14:55:31.0000000+00:00</time></trkpt><trkpt lat="39.46076137" lon="-0.37287684"><ele>24.0</ele><time>2022-11-06T14:55:32.0000000+00:00</time></trkpt><trkpt lat="39.46076254" lon="-0.37288103"><ele>24.0</ele><time>2022-11-06T14:55:33.0000000+00:00</time></trkpt><trkpt lat="39.46076347" lon="-0.37288874"><ele>24.0</ele><time>2022-11-06T14:55:34.0000000+00:00</time></trkpt><trkpt lat="39.46076447" lon="-0.37290668"><ele>24.0</ele><time>2022-11-06T14:55:35.0000000+00:00</time></trkpt><trkpt lat="39.46076028" lon="-0.37293149"><ele>24.0</ele><time>2022-11-06T14:55:36.0000000+00:00</time></trkpt><trkpt lat="39.46070345" lon="-0.37295211"><ele>24.0</ele><time>2022-11-06T14:55:37.0000000+00:00</time></trkpt><trkpt lat="39.46066766" lon="-0.37296921"><ele>24.0</ele><time>2022-11-06T14:55:38.0000000+00:00</time></trkpt><trkpt lat="39.46064143" lon="-0.37296846"><ele>24.0</ele><time>2022-11-06T14:55:39.0000000+00:00</time></trkpt><trkpt lat="39.46061284" lon="-0.37296829"><ele>24.0</ele><time>2022-11-06T14:55:40.0000000+00:00</time></trkpt><trkpt lat="39.46058443" lon="-0.3729677"><ele>24.0</ele><time>2022-11-06T14:55:41.0000000+00:00</time></trkpt><trkpt lat="39.46055576" lon="-0.3729667"><ele>24.0</ele><time>2022-11-06T14:55:42.0000000+00:00</time></trkpt><trkpt lat="39.46052726" lon="-0.37296519"><ele>24.0</ele><time>2022-11-06T14:55:43.0000000+00:00</time></trkpt><trkpt lat="39.46049969" lon="-0.37296359"><ele>24.0</ele><time>2022-11-06T14:55:44.0000000+00:00</time></trkpt><trkpt lat="39.46050379" lon="-0.37296904"><ele>24.0</ele><time>2022-11-06T14:55:45.0000000+00:00</time></trkpt><trkpt lat="39.46052081" lon="-0.37296913"><ele>24.0</ele><time>2022-11-06T14:55:46.0000000+00:00</time></trkpt><trkpt lat="39.46052257" lon="-0.3729682"><ele>24.0</ele><time>2022-11-06T14:55:47.0000000+00:00</time></trkpt><trkpt lat="39.46052492" lon="-0.37296728"><ele>24.0</ele><time>2022-11-06T14:55:48.0000000+00:00</time></trkpt><trkpt lat="39.4604981" lon="-0.3729724"><ele>24.0</ele><time>2022-11-06T14:55:49.0000000+00:00</time></trkpt><trkpt lat="39.46048477" lon="-0.37297826"><ele>24.0</ele><time>2022-11-06T14:55:50.0000000+00:00</time></trkpt><trkpt lat="39.46047538" lon="-0.37298472"><ele>24.0</ele><time>2022-11-06T14:55:51.0000000+00:00</time></trkpt><trkpt lat="39.46047119" lon="-0.37298673"><ele>24.0</ele><time>2022-11-06T14:55:52.0000000+00:00</time></trkpt><trkpt lat="39.46045962" lon="-0.3729905"><ele>24.0</ele><time>2022-11-06T14:55:53.0000000+00:00</time></trkpt><trkpt lat="39.46044428" lon="-0.3729843"><ele>24.0</ele><time>2022-11-06T14:55:54.0000000+00:00</time></trkpt><trkpt lat="39.46049835" lon="-0.37295748"><ele>24.0</ele><time>2022-11-06T14:55:55.0000000+00:00</time></trkpt><trkpt lat="39.46050287" lon="-0.37295831"><ele>24.0</ele><time>2022-11-06T14:55:56.0000000+00:00</time></trkpt><trkpt lat="39.46049608" lon="-0.3729444"><ele>24.0</ele><time>2022-11-06T14:55:57.0000000+00:00</time></trkpt><trkpt lat="39.4605131" lon="-0.37293661"><ele>24.0</ele><time>2022-11-06T14:55:58.0000000+00:00</time></trkpt><trkpt lat="39.46051754" lon="-0.37293091"><ele>24.0</ele><time>2022-11-06T14:55:59.0000000+00:00</time></trkpt><trkpt lat="39.46051612" lon="-0.37293091"><ele>24.0</ele><time>2022-11-06T14:56:00.0000000+00:00</time></trkpt><trkpt lat="39.46051159" lon="-0.3729335"><ele>24.0</ele><time>2022-11-06T14:56:01.0000000+00:00</time></trkpt><trkpt lat="39.46051595" lon="-0.37294507"><ele>24.0</ele><time>2022-11-06T14:56:02.0000000+00:00</time></trkpt><trkpt lat="39.46050069" lon="-0.37296854"><ele>24.0</ele><time>2022-11-06T14:56:03.0000000+00:00</time></trkpt><trkpt lat="39.46049164" lon="-0.37298488"><ele>24.0</ele><time>2022-11-06T14:56:04.0000000+00:00</time></trkpt><trkpt lat="39.46048603" lon="-0.37299444"><ele>24.0</ele><time>2022-11-06T14:56:05.0000000+00:00</time></trkpt><trkpt lat="39.46050363" lon="-0.37298514"><ele>24.0</ele><time>2022-11-06T14:56:06.0000000+00:00</time></trkpt><trkpt lat="39.46050346" lon="-0.37298438"><ele>24.0</ele><time>2022-11-06T14:56:07.0000000+00:00</time></trkpt><trkpt lat="39.46050245" lon="-0.37298363"><ele>24.0</ele><time>2022-11-06T14:56:08.0000000+00:00</time></trkpt><trkpt lat="39.46050069" lon="-0.37298136"><ele>24.0</ele><time>2022-11-06T14:56:09.0000000+00:00</time></trkpt><trkpt lat="39.4605126" lon="-0.37298061"><ele>24.0</ele><time>2022-11-06T14:56:10.0000000+00:00</time></trkpt><trkpt lat="39.46051301" lon="-0.3729843"><ele>24.0</ele><time>2022-11-06T14:56:11.0000000+00:00</time></trkpt><trkpt lat="39.46055333" lon="-0.3729838"><ele>24.0</ele><time>2022-11-06T14:56:12.0000000+00:00</time></trkpt><trkpt lat="39.46059046" lon="-0.37298396"><ele>24.0</ele><time>2022-11-06T14:56:13.0000000+00:00</time></trkpt><trkpt lat="39.46060253" lon="-0.37298438"><ele>24.0</ele><time>2022-11-06T14:56:14.0000000+00:00</time></trkpt><trkpt lat="39.46060815" lon="-0.3729817"><ele>24.0</ele><time>2022-11-06T14:56:15.0000000+00:00</time></trkpt><trkpt lat="39.46061167" lon="-0.37297734"><ele>24.0</ele><time>2022-11-06T14:56:16.0000000+00:00</time></trkpt><trkpt lat="39.46060765" lon="-0.37298338"><ele>24.0</ele><time>2022-11-06T14:56:17.0000000+00:00</time></trkpt><trkpt lat="39.46060195" lon="-0.37297885"><ele>24.0</ele><time>2022-11-06T14:56:18.0000000+00:00</time></trkpt><trkpt lat="39.46060656" lon="-0.37296795"><ele>24.0</ele><time>2022-11-06T14:56:19.0000000+00:00</time></trkpt><trkpt lat="39.46060597" lon="-0.37296921"><ele>24.0</ele><time>2022-11-06T14:56:20.0000000+00:00</time></trkpt><trkpt lat="39.46062014" lon="-0.37294691"><ele>24.0</ele><time>2022-11-06T14:56:21.0000000+00:00</time></trkpt><trkpt lat="39.46062181" lon="-0.37294574"><ele>24.0</ele><time>2022-11-06T14:56:22.0000000+00:00</time></trkpt><trkpt lat="39.4606146" lon="-0.37294163"><ele>24.0</ele><time>2022-11-06T14:56:23.0000000+00:00</time></trkpt><trkpt lat="39.46060698" lon="-0.37293468"><ele>24.0</ele><time>2022-11-06T14:56:24.0000000+00:00</time></trkpt><trkpt lat="39.46060631" lon="-0.37293585"><ele>24.0</ele><time>2022-11-06T14:56:25.0000000+00:00</time></trkpt><trkpt lat="39.46061787" lon="-0.37293367"><ele>24.0</ele><time>2022-11-06T14:56:26.0000000+00:00</time></trkpt><trkpt lat="39.46061477" lon="-0.3729356"><ele>24.0</ele><time>2022-11-06T14:56:27.0000000+00:00</time></trkpt><trkpt lat="39.46061871" lon="-0.37293283"><ele>24.0</ele><time>2022-11-06T14:56:28.0000000+00:00</time></trkpt><trkpt lat="39.46060983" lon="-0.37293057"><ele>24.0</ele><time>2022-11-06T14:56:29.0000000+00:00</time></trkpt><trkpt lat="39.4606074" lon="-0.37293166"><ele>24.0</ele><time>2022-11-06T14:56:30.0000000+00:00</time></trkpt><trkpt lat="39.46060413" lon="-0.37293644"><ele>24.0</ele><time>2022-11-06T14:56:31.0000000+00:00</time></trkpt><trkpt lat="39.46061318" lon="-0.37293644"><ele>24.0</ele><time>2022-11-06T14:56:32.0000000+00:00</time></trkpt><trkpt lat="39.46060974" lon="-0.37293878"><ele>24.0</ele><time>2022-11-06T14:56:33.0000000+00:00</time></trkpt><trkpt lat="39.46060999" lon="-0.3729392"><ele>24.0</ele><time>2022-11-06T14:56:34.0000000+00:00</time></trkpt><trkpt lat="39.46061377" lon="-0.3729351"><ele>24.0</ele><time>2022-11-06T14:56:35.0000000+00:00</time></trkpt><trkpt lat="39.46062324" lon="-0.37292487"><ele>24.0</ele><time>2022-11-06T14:56:36.0000000+00:00</time></trkpt><trkpt lat="39.46062516" lon="-0.3729206"><ele>24.0</ele><time>2022-11-06T14:56:37.0000000+00:00</time></trkpt><trkpt lat="39.46062382" lon="-0.37291925"><ele>24.0</ele><time>2022-11-06T14:56:38.0000000+00:00</time></trkpt><trkpt lat="39.4606234" lon="-0.37291884"><ele>24.0</ele><time>2022-11-06T14:56:39.0000000+00:00</time></trkpt><trkpt lat="39.46062801" lon="-0.37291347"><ele>24.0</ele><time>2022-11-06T14:56:40.0000000+00:00</time></trkpt><trkpt lat="39.46062743" lon="-0.37291272"><ele>24.0</ele><time>2022-11-06T14:56:41.0000000+00:00</time></trkpt><trkpt lat="39.46063003" lon="-0.37291389"><ele>24.0</ele><time>2022-11-06T14:56:42.0000000+00:00</time></trkpt><trkpt lat="39.46063028" lon="-0.37291163"><ele>24.0</ele><time>2022-11-06T14:56:43.0000000+00:00</time></trkpt><trkpt lat="39.46063296" lon="-0.37290827"><ele>24.0</ele><time>2022-11-06T14:56:44.0000000+00:00</time></trkpt><trkpt lat="39.46063388" lon="-0.37291129"><ele>24.0</ele><time>2022-11-06T14:56:45.0000000+00:00</time></trkpt><trkpt lat="39.46063162" lon="-0.37291045"><ele>24.0</ele><time>2022-11-06T14:56:46.0000000+00:00</time></trkpt><trkpt lat="39.4606338" lon="-0.37290006"><ele>24.0</ele><time>2022-11-06T14:56:47.0000000+00:00</time></trkpt><trkpt lat="39.4606312" lon="-0.37289947"><ele>24.0</ele><time>2022-11-06T14:56:48.0000000+00:00</time></trkpt><trkpt lat="39.46062919" lon="-0.3728978"><ele>24.0</ele><time>2022-11-06T14:56:49.0000000+00:00</time></trkpt><trkpt lat="39.46062701" lon="-0.37289838"><ele>24.0</ele><time>2022-11-06T14:56:50.0000000+00:00</time></trkpt><trkpt lat="39.46062508" lon="-0.37289864"><ele>24.0</ele><time>2022-11-06T14:56:51.0000000+00:00</time></trkpt><trkpt lat="39.46062483" lon="-0.37289755"><ele>24.0</ele><time>2022-11-06T14:56:52.0000000+00:00</time></trkpt><trkpt lat="39.46062575" lon="-0.37289495"><ele>24.0</ele><time>2022-11-06T14:56:53.0000000+00:00</time></trkpt><trkpt lat="39.46063112" lon="-0.3728869"><ele>24.0</ele><time>2022-11-06T14:56:54.0000000+00:00</time></trkpt><trkpt lat="39.46064059" lon="-0.3728755"><ele>24.0</ele><time>2022-11-06T14:56:55.0000000+00:00</time></trkpt><trkpt lat="39.46064117" lon="-0.37287114"><ele>24.0</ele><time>2022-11-06T14:56:56.0000000+00:00</time></trkpt><trkpt lat="39.46063992" lon="-0.3728688"><ele>24.0</ele><time>2022-11-06T14:56:57.0000000+00:00</time></trkpt><trkpt lat="39.46063858" lon="-0.37286544"><ele>24.0</ele><time>2022-11-06T14:56:58.0000000+00:00</time></trkpt><trkpt lat="39.46063958" lon="-0.37286486"><ele>24.0</ele><time>2022-11-06T14:56:59.0000000+00:00</time></trkpt><trkpt lat="39.46064" lon="-0.37286653"><ele>24.0</ele><time>2022-11-06T14:57:00.0000000+00:00</time></trkpt><trkpt lat="39.46064" lon="-0.37286653"><ele>24.0</ele><time>2022-11-06T14:57:01.0000000+00:00</time></trkpt><trkpt lat="39.46064" lon="-0.37286653"><ele>24.0</ele><time>2022-11-06T14:57:02.0000000+00:00</time></trkpt><trkpt lat="39.46064" lon="-0.37286653"><ele>24.0</ele><time>2022-11-06T14:57:03.0000000+00:00</time></trkpt><trkpt lat="39.46064084" lon="-0.37286586"><ele>24.0</ele><time>2022-11-06T14:57:04.0000000+00:00</time></trkpt><trkpt lat="39.46064537" lon="-0.37286234"><ele>24.0</ele><time>2022-11-06T14:57:05.0000000+00:00</time></trkpt><trkpt lat="39.4606488" lon="-0.37286117"><ele>24.0</ele><time>2022-11-06T14:57:06.0000000+00:00</time></trkpt><trkpt lat="39.46064671" lon="-0.37285974"><ele>24.0</ele><time>2022-11-06T14:57:07.0000000+00:00</time></trkpt><trkpt lat="39.46064972" lon="-0.37285421"><ele>24.0</ele><time>2022-11-06T14:57:08.0000000+00:00</time></trkpt><trkpt lat="39.46066045" lon="-0.37284491"><ele>24.0</ele><time>2022-11-06T14:57:09.0000000+00:00</time></trkpt><trkpt lat="39.46067177" lon="-0.3728439"><ele>24.0</ele><time>2022-11-06T14:57:10.0000000+00:00</time></trkpt><trkpt lat="39.46067629" lon="-0.37284038"><ele>24.0</ele><time>2022-11-06T14:57:11.0000000+00:00</time></trkpt><trkpt lat="39.46067696" lon="-0.37284222"><ele>24.0</ele><time>2022-11-06T14:57:12.0000000+00:00</time></trkpt><trkpt lat="39.46067747" lon="-0.37284264"><ele>24.0</ele><time>2022-11-06T14:57:13.0000000+00:00</time></trkpt><trkpt lat="39.4606825" lon="-0.37284524"><ele>24.0</ele><time>2022-11-06T14:57:14.0000000+00:00</time></trkpt><trkpt lat="39.46068736" lon="-0.37284751"><ele>24.0</ele><time>2022-11-06T14:57:15.0000000+00:00</time></trkpt><trkpt lat="39.46069021" lon="-0.37284801"><ele>24.0</ele><time>2022-11-06T14:57:16.0000000+00:00</time></trkpt><trkpt lat="39.46069121" lon="-0.372847"><ele>24.0</ele><time>2022-11-06T14:57:17.0000000+00:00</time></trkpt><trkpt lat="39.4606913" lon="-0.37284533"><ele>24.0</ele><time>2022-11-06T14:57:18.0000000+00:00</time></trkpt><trkpt lat="39.46067956" lon="-0.37284843"><ele>24.0</ele><time>2022-11-06T14:57:19.0000000+00:00</time></trkpt><trkpt lat="39.46069708" lon="-0.37285513"><ele>24.0</ele><time>2022-11-06T14:57:20.0000000+00:00</time></trkpt><trkpt lat="39.46069884" lon="-0.37285949"><ele>24.0</ele><time>2022-11-06T14:57:21.0000000+00:00</time></trkpt><trkpt lat="39.46070303" lon="-0.37286662"><ele>24.0</ele><time>2022-11-06T14:57:22.0000000+00:00</time></trkpt><trkpt lat="39.46070873" lon="-0.37287307"><ele>24.0</ele><time>2022-11-06T14:57:23.0000000+00:00</time></trkpt><trkpt lat="39.46071217" lon="-0.3728781"><ele>24.0</ele><time>2022-11-06T14:57:24.0000000+00:00</time></trkpt><trkpt lat="39.46071913" lon="-0.37288338"><ele>24.0</ele><time>2022-11-06T14:57:25.0000000+00:00</time></trkpt><trkpt lat="39.46072332" lon="-0.37288581"><ele>24.0</ele><time>2022-11-06T14:57:26.0000000+00:00</time></trkpt><trkpt lat="39.46073044" lon="-0.37289134"><ele>24.0</ele><time>2022-11-06T14:57:27.0000000+00:00</time></trkpt><trkpt lat="39.46073145" lon="-0.3728921"><ele>24.0</ele><time>2022-11-06T14:57:28.0000000+00:00</time></trkpt><trkpt lat="39.46073312" lon="-0.3728931"><ele>24.0</ele><time>2022-11-06T14:57:29.0000000+00:00</time></trkpt><trkpt lat="39.4607374" lon="-0.37290408"><ele>24.0</ele><time>2022-11-06T14:57:30.0000000+00:00</time></trkpt><trkpt lat="39.46074964" lon="-0.37290249"><ele>24.0</ele><time>2022-11-06T14:57:31.0000000+00:00</time></trkpt><trkpt lat="39.4607602" lon="-0.37289746"><ele>24.0</ele><time>2022-11-06T14:57:32.0000000+00:00</time></trkpt><trkpt lat="39.46076942" lon="-0.37289109"><ele>24.0</ele><time>2022-11-06T14:57:33.0000000+00:00</time></trkpt><trkpt lat="39.46078233" lon="-0.37289092"><ele>24.0</ele><time>2022-11-06T14:57:34.0000000+00:00</time></trkpt><trkpt lat="39.46078476" lon="-0.37289201"><ele>24.0</ele><time>2022-11-06T14:57:35.0000000+00:00</time></trkpt><trkpt lat="39.46079046" lon="-0.37289796"><ele>24.0</ele><time>2022-11-06T14:57:36.0000000+00:00</time></trkpt><trkpt lat="39.46078685" lon="-0.37290693"><ele>24.0</ele><time>2022-11-06T14:57:37.0000000+00:00</time></trkpt><trkpt lat="39.46078576" lon="-0.37291029"><ele>24.0</ele><time>2022-11-06T14:57:38.0000000+00:00</time></trkpt><trkpt lat="39.46079104" lon="-0.37291573"><ele>24.0</ele><time>2022-11-06T14:57:39.0000000+00:00</time></trkpt><trkpt lat="39.46079213" lon="-0.37291951"><ele>24.0</ele><time>2022-11-06T14:57:40.0000000+00:00</time></trkpt><trkpt lat="39.46079331" lon="-0.37291909"><ele>24.0</ele><time>2022-11-06T14:57:41.0000000+00:00</time></trkpt><trkpt lat="39.4607954" lon="-0.37291909"><ele>24.0</ele><time>2022-11-06T14:57:42.0000000+00:00</time></trkpt><trkpt lat="39.46080294" lon="-0.37291934"><ele>24.0</ele><time>2022-11-06T14:57:43.0000000+00:00</time></trkpt><trkpt lat="39.46080278" lon="-0.37291959"><ele>24.0</ele><time>2022-11-06T14:57:44.0000000+00:00</time></trkpt><trkpt lat="39.46080529" lon="-0.37292403"><ele>24.0</ele><time>2022-11-06T14:57:45.0000000+00:00</time></trkpt><trkpt lat="39.46080605" lon="-0.37292361"><ele>24.0</ele><time>2022-11-06T14:57:46.0000000+00:00</time></trkpt><trkpt lat="39.46080932" lon="-0.372919"><ele>24.0</ele><time>2022-11-06T14:57:47.0000000+00:00</time></trkpt><trkpt lat="39.46081007" lon="-0.37292093"><ele>24.0</ele><time>2022-11-06T14:57:48.0000000+00:00</time></trkpt><trkpt lat="39.46081007" lon="-0.37292093"><ele>24.0</ele><time>2022-11-06T14:57:49.0000000+00:00</time></trkpt><trkpt lat="39.46081007" lon="-0.37292093"><ele>24.0</ele><time>2022-11-06T14:57:50.0000000+00:00</time></trkpt><trkpt lat="39.46081007" lon="-0.37292093"><ele>24.0</ele><time>2022-11-06T14:57:51.0000000+00:00</time></trkpt><trkpt lat="39.46081007" lon="-0.37292093"><ele>24.0</ele><time>2022-11-06T14:57:52.0000000+00:00</time></trkpt><trkpt lat="39.46081007" lon="-0.37292093"><ele>24.0</ele><time>2022-11-06T14:57:53.0000000+00:00</time></trkpt><trkpt lat="39.46081007" lon="-0.37292093"><ele>24.0</ele><time>2022-11-06T14:57:54.0000000+00:00</time></trkpt><trkpt lat="39.46081007" lon="-0.37292093"><ele>24.0</ele><time>2022-11-06T14:57:55.0000000+00:00</time></trkpt><trkpt lat="39.46081007" lon="-0.37292093"><ele>24.0</ele><time>2022-11-06T14:57:56.0000000+00:00</time></trkpt><trkpt lat="39.46081007" lon="-0.37292093"><ele>24.0</ele><time>2022-11-06T14:57:57.0000000+00:00</time></trkpt><trkpt lat="39.46081007" lon="-0.37292093"><ele>24.0</ele><time>2022-11-06T14:57:58.0000000+00:00</time></trkpt><trkpt lat="39.46081007" lon="-0.37292093"><ele>24.0</ele><time>2022-11-06T14:57:59.0000000+00:00</time></trkpt><trkpt lat="39.46081007" lon="-0.37292093"><ele>24.0</ele><time>2022-11-06T14:58:00.0000000+00:00</time></trkpt><trkpt lat="39.46081007" lon="-0.37292093"><ele>24.0</ele><time>2022-11-06T14:58:01.0000000+00:00</time></trkpt><trkpt lat="39.46081007" lon="-0.37292345"><ele>24.0</ele><time>2022-11-06T14:58:02.0000000+00:00</time></trkpt><trkpt lat="39.46081007" lon="-0.37292403"><ele>24.0</ele><time>2022-11-06T14:58:03.0000000+00:00</time></trkpt><trkpt lat="39.46081116" lon="-0.37292412"><ele>24.0</ele><time>2022-11-06T14:58:04.0000000+00:00</time></trkpt><trkpt lat="39.46081292" lon="-0.37293158"><ele>24.0</ele><time>2022-11-06T14:58:05.0000000+00:00</time></trkpt><trkpt lat="39.4608203" lon="-0.37293577"><ele>24.0</ele><time>2022-11-06T14:58:06.0000000+00:00</time></trkpt><trkpt lat="39.46082315" lon="-0.37294063"><ele>24.0</ele><time>2022-11-06T14:58:07.0000000+00:00</time></trkpt><trkpt lat="39.46083102" lon="-0.37294507"><ele>24.0</ele><time>2022-11-06T14:58:08.0000000+00:00</time></trkpt><trkpt lat="39.46084159" lon="-0.37294599"><ele>24.0</ele><time>2022-11-06T14:58:09.0000000+00:00</time></trkpt><trkpt lat="39.46085575" lon="-0.37294608"><ele>24.0</ele><time>2022-11-06T14:58:10.0000000+00:00</time></trkpt><trkpt lat="39.46086447" lon="-0.37294608"><ele>24.0</ele><time>2022-11-06T14:58:11.0000000+00:00</time></trkpt><trkpt lat="39.4608695" lon="-0.37294608"><ele>24.0</ele><time>2022-11-06T14:58:12.0000000+00:00</time></trkpt><trkpt lat="39.46088173" lon="-0.37294356"><ele>24.0</ele><time>2022-11-06T14:58:13.0000000+00:00</time></trkpt><trkpt lat="39.46090361" lon="-0.37293191"><ele>24.0</ele><time>2022-11-06T14:58:14.0000000+00:00</time></trkpt><trkpt lat="39.46092038" lon="-0.37292948"><ele>24.0</ele><time>2022-11-06T14:58:15.0000000+00:00</time></trkpt><trkpt lat="39.46093504" lon="-0.37292705"><ele>24.0</ele><time>2022-11-06T14:58:16.0000000+00:00</time></trkpt><trkpt lat="39.46094728" lon="-0.372918"><ele>24.0</ele><time>2022-11-06T14:58:17.0000000+00:00</time></trkpt><trkpt lat="39.46096086" lon="-0.37291741"><ele>24.0</ele><time>2022-11-06T14:58:18.0000000+00:00</time></trkpt><trkpt lat="39.46096765" lon="-0.37291557"><ele>24.0</ele><time>2022-11-06T14:58:19.0000000+00:00</time></trkpt><trkpt lat="39.46097796" lon="-0.37291247"><ele>24.0</ele><time>2022-11-06T14:58:20.0000000+00:00</time></trkpt><trkpt lat="39.46098282" lon="-0.37290903"><ele>24.0</ele><time>2022-11-06T14:58:21.0000000+00:00</time></trkpt><trkpt lat="39.46097503" lon="-0.37290609"><ele>24.0</ele><time>2022-11-06T14:58:22.0000000+00:00</time></trkpt><trkpt lat="39.46096522" lon="-0.37289805"><ele>24.0</ele><time>2022-11-06T14:58:23.0000000+00:00</time></trkpt><trkpt lat="39.46097352" lon="-0.37289537"><ele>24.0</ele><time>2022-11-06T14:58:24.0000000+00:00</time></trkpt><trkpt lat="39.46098651" lon="-0.37289436"><ele>24.0</ele><time>2022-11-06T14:58:25.0000000+00:00</time></trkpt><trkpt lat="39.46099321" lon="-0.37289679"><ele>24.0</ele><time>2022-11-06T14:58:26.0000000+00:00</time></trkpt><trkpt lat="39.46100067" lon="-0.37289084"><ele>24.0</ele><time>2022-11-06T14:58:27.0000000+00:00</time></trkpt><trkpt lat="39.4609969" lon="-0.37289151"><ele>24.0</ele><time>2022-11-06T14:58:28.0000000+00:00</time></trkpt><trkpt lat="39.46098584" lon="-0.37289528"><ele>24.0</ele><time>2022-11-06T14:58:29.0000000+00:00</time></trkpt><trkpt lat="39.46098659" lon="-0.37289612"><ele>24.0</ele><time>2022-11-06T14:58:30.0000000+00:00</time></trkpt><trkpt lat="39.46098701" lon="-0.37289855"><ele>24.0</ele><time>2022-11-06T14:58:31.0000000+00:00</time></trkpt><trkpt lat="39.46098718" lon="-0.37290098"><ele>24.0</ele><time>2022-11-06T14:58:32.0000000+00:00</time></trkpt><trkpt lat="39.46098777" lon="-0.37290048"><ele>24.0</ele><time>2022-11-06T14:58:33.0000000+00:00</time></trkpt><trkpt lat="39.46098073" lon="-0.37289822"><ele>24.0</ele><time>2022-11-06T14:58:34.0000000+00:00</time></trkpt><trkpt lat="39.46097813" lon="-0.37289763"><ele>24.0</ele><time>2022-11-06T14:58:35.0000000+00:00</time></trkpt><trkpt lat="39.46097846" lon="-0.37290241"><ele>24.0</ele><time>2022-11-06T14:58:36.0000000+00:00</time></trkpt><trkpt lat="39.4609829" lon="-0.37290509"><ele>24.0</ele><time>2022-11-06T14:58:37.0000000+00:00</time></trkpt><trkpt lat="39.46098458" lon="-0.37289411"><ele>24.0</ele><time>2022-11-06T14:58:38.0000000+00:00</time></trkpt><trkpt lat="39.46098232" lon="-0.3729014"><ele>24.0</ele><time>2022-11-06T14:58:39.0000000+00:00</time></trkpt><trkpt lat="39.46097042" lon="-0.37291775"><ele>24.0</ele><time>2022-11-06T14:58:40.0000000+00:00</time></trkpt><trkpt lat="39.46097528" lon="-0.37292579"><ele>24.0</ele><time>2022-11-06T14:58:41.0000000+00:00</time></trkpt><trkpt lat="39.46095198" lon="-0.37294884"><ele>24.0</ele><time>2022-11-06T14:58:42.0000000+00:00</time></trkpt><trkpt lat="39.46094762" lon="-0.37295781"><ele>24.0</ele><time>2022-11-06T14:58:43.0000000+00:00</time></trkpt><trkpt lat="39.46094225" lon="-0.37297307"><ele>24.0</ele><time>2022-11-06T14:58:44.0000000+00:00</time></trkpt><trkpt lat="39.46095306" lon="-0.37296242"><ele>24.0</ele><time>2022-11-06T14:58:45.0000000+00:00</time></trkpt><trkpt lat="39.46095927" lon="-0.37296007"><ele>24.0</ele><time>2022-11-06T14:58:46.0000000+00:00</time></trkpt><trkpt lat="39.46097435" lon="-0.37295848"><ele>24.0</ele><time>2022-11-06T14:58:47.0000000+00:00</time></trkpt><trkpt lat="39.46098492" lon="-0.37295655"><ele>24.0</ele><time>2022-11-06T14:58:48.0000000+00:00</time></trkpt><trkpt lat="39.4609907" lon="-0.37295915"><ele>24.0</ele><time>2022-11-06T14:58:49.0000000+00:00</time></trkpt><trkpt lat="39.46098827" lon="-0.37295379"><ele>24.0</ele><time>2022-11-06T14:58:50.0000000+00:00</time></trkpt><trkpt lat="39.46099707" lon="-0.37294583"><ele>24.0</ele><time>2022-11-06T14:58:51.0000000+00:00</time></trkpt><trkpt lat="39.46100713" lon="-0.3729408"><ele>24.0</ele><time>2022-11-06T14:58:52.0000000+00:00</time></trkpt><trkpt lat="39.46100637" lon="-0.37293661"><ele>24.0</ele><time>2022-11-06T14:58:53.0000000+00:00</time></trkpt><trkpt lat="39.46100352" lon="-0.37293728"><ele>24.0</ele><time>2022-11-06T14:58:54.0000000+00:00</time></trkpt><trkpt lat="39.46100562" lon="-0.37293887"><ele>24.0</ele><time>2022-11-06T14:58:55.0000000+00:00</time></trkpt><trkpt lat="39.46101953" lon="-0.37293971"><ele>24.0</ele><time>2022-11-06T14:58:56.0000000+00:00</time></trkpt><trkpt lat="39.46102582" lon="-0.37293753"><ele>24.0</ele><time>2022-11-06T14:58:57.0000000+00:00</time></trkpt><trkpt lat="39.46101534" lon="-0.37293929"><ele>24.0</ele><time>2022-11-06T14:58:58.0000000+00:00</time></trkpt><trkpt lat="39.46100637" lon="-0.37293652"><ele>24.0</ele><time>2022-11-06T14:58:59.0000000+00:00</time></trkpt><trkpt lat="39.46100411" lon="-0.37293568"><ele>24.0</ele><time>2022-11-06T14:59:00.0000000+00:00</time></trkpt><trkpt lat="39.46100034" lon="-0.3729304"><ele>24.0</ele><time>2022-11-06T14:59:01.0000000+00:00</time></trkpt><trkpt lat="39.46099791" lon="-0.37292889"><ele>24.0</ele><time>2022-11-06T14:59:02.0000000+00:00</time></trkpt><trkpt lat="39.46100621" lon="-0.37292596"><ele>24.0</ele><time>2022-11-06T14:59:03.0000000+00:00</time></trkpt><trkpt lat="39.46100134" lon="-0.37293132"><ele>24.0</ele><time>2022-11-06T14:59:04.0000000+00:00</time></trkpt><trkpt lat="39.46100495" lon="-0.37292982"><ele>24.0</ele><time>2022-11-06T14:59:05.0000000+00:00</time></trkpt><trkpt lat="39.46101073" lon="-0.37293694"><ele>24.0</ele><time>2022-11-06T14:59:06.0000000+00:00</time></trkpt><trkpt lat="39.46101727" lon="-0.37293585"><ele>24.0</ele><time>2022-11-06T14:59:07.0000000+00:00</time></trkpt><trkpt lat="39.46101761" lon="-0.37295094"><ele>24.0</ele><time>2022-11-06T14:59:08.0000000+00:00</time></trkpt><trkpt lat="39.46101626" lon="-0.37295278"><ele>24.0</ele><time>2022-11-06T14:59:09.0000000+00:00</time></trkpt><trkpt lat="39.46101626" lon="-0.3729522"><ele>24.0</ele><time>2022-11-06T14:59:10.0000000+00:00</time></trkpt><trkpt lat="39.46100227" lon="-0.3729506"><ele>24.0</ele><time>2022-11-06T14:59:11.0000000+00:00</time></trkpt><trkpt lat="39.46098148" lon="-0.37295119"><ele>24.0</ele><time>2022-11-06T14:59:12.0000000+00:00</time></trkpt><trkpt lat="39.46098257" lon="-0.37294348"><ele>24.0</ele><time>2022-11-06T14:59:13.0000000+00:00</time></trkpt><trkpt lat="39.46098483" lon="-0.37294197"><ele>24.0</ele><time>2022-11-06T14:59:14.0000000+00:00</time></trkpt><trkpt lat="39.46098249" lon="-0.37294876"><ele>24.0</ele><time>2022-11-06T14:59:15.0000000+00:00</time></trkpt><trkpt lat="39.46097452" lon="-0.37295035"><ele>24.0</ele><time>2022-11-06T14:59:16.0000000+00:00</time></trkpt><trkpt lat="39.46098508" lon="-0.37294884"><ele>24.0</ele><time>2022-11-06T14:59:17.0000000+00:00</time></trkpt><trkpt lat="39.46098441" lon="-0.37295245"><ele>24.0</ele><time>2022-11-06T14:59:18.0000000+00:00</time></trkpt><trkpt lat="39.46099489" lon="-0.37295613"><ele>24.0</ele><time>2022-11-06T14:59:19.0000000+00:00</time></trkpt><trkpt lat="39.46099196" lon="-0.37295069"><ele>24.0</ele><time>2022-11-06T14:59:20.0000000+00:00</time></trkpt><trkpt lat="39.46098911" lon="-0.37294406"><ele>24.0</ele><time>2022-11-06T14:59:21.0000000+00:00</time></trkpt><trkpt lat="39.46097838" lon="-0.37294398"><ele>24.0</ele><time>2022-11-06T14:59:22.0000000+00:00</time></trkpt><trkpt lat="39.46097259" lon="-0.37294532"><ele>24.0</ele><time>2022-11-06T14:59:23.0000000+00:00</time></trkpt><trkpt lat="39.46092666" lon="-0.37296787"><ele>24.0</ele><time>2022-11-06T14:59:24.0000000+00:00</time></trkpt><trkpt lat="39.4608809" lon="-0.37297751"><ele>24.0</ele><time>2022-11-06T14:59:25.0000000+00:00</time></trkpt><trkpt lat="39.46087914" lon="-0.37298095"><ele>24.0</ele><time>2022-11-06T14:59:26.0000000+00:00</time></trkpt><trkpt lat="39.4608793" lon="-0.37297374"><ele>24.0</ele><time>2022-11-06T14:59:27.0000000+00:00</time></trkpt><trkpt lat="39.4608669" lon="-0.37295555"><ele>24.0</ele><time>2022-11-06T14:59:28.0000000+00:00</time></trkpt><trkpt lat="39.46087" lon="-0.37292755"><ele>24.0</ele><time>2022-11-06T14:59:29.0000000+00:00</time></trkpt><trkpt lat="39.46087939" lon="-0.37292353"><ele>24.0</ele><time>2022-11-06T14:59:30.0000000+00:00</time></trkpt><trkpt lat="39.46087528" lon="-0.37291205"><ele>24.0</ele><time>2022-11-06T14:59:31.0000000+00:00</time></trkpt><trkpt lat="39.4608674" lon="-0.37289763"><ele>24.0</ele><time>2022-11-06T14:59:32.0000000+00:00</time></trkpt><trkpt lat="39.46087109" lon="-0.37289394"><ele>24.0</ele><time>2022-11-06T14:59:33.0000000+00:00</time></trkpt><trkpt lat="39.46087536" lon="-0.37289654"><ele>24.0</ele><time>2022-11-06T14:59:34.0000000+00:00</time></trkpt><trkpt lat="39.46085215" lon="-0.3728957"><ele>24.0</ele><time>2022-11-06T14:59:35.0000000+00:00</time></trkpt><trkpt lat="39.4608384" lon="-0.3728931"><ele>24.0</ele><time>2022-11-06T14:59:36.0000000+00:00</time></trkpt><trkpt lat="39.46085005" lon="-0.37289168"><ele>24.0</ele><time>2022-11-06T14:59:37.0000000+00:00</time></trkpt><trkpt lat="39.46085659" lon="-0.37288246"><ele>24.0</ele><time>2022-11-06T14:59:38.0000000+00:00</time></trkpt><trkpt lat="39.46086187" lon="-0.37287684"><ele>24.0</ele><time>2022-11-06T14:59:39.0000000+00:00</time></trkpt><trkpt lat="39.46090118" lon="-0.37287106"><ele>24.0</ele><time>2022-11-06T14:59:40.0000000+00:00</time></trkpt><trkpt lat="39.46092323" lon="-0.37286586"><ele>24.0</ele><time>2022-11-06T14:59:41.0000000+00:00</time></trkpt><trkpt lat="39.46091543" lon="-0.3728641"><ele>24.0</ele><time>2022-11-06T14:59:42.0000000+00:00</time></trkpt><trkpt lat="39.46093337" lon="-0.37284968"><ele>24.0</ele><time>2022-11-06T14:59:43.0000000+00:00</time></trkpt><trkpt lat="39.46092884" lon="-0.37284742"><ele>24.0</ele><time>2022-11-06T14:59:44.0000000+00:00</time></trkpt><trkpt lat="39.46092725" lon="-0.37284876"><ele>24.0</ele><time>2022-11-06T14:59:45.0000000+00:00</time></trkpt><trkpt lat="39.4609296" lon="-0.37286209"><ele>24.0</ele><time>2022-11-06T14:59:46.0000000+00:00</time></trkpt><trkpt lat="39.46093421" lon="-0.37286243"><ele>24.0</ele><time>2022-11-06T14:59:47.0000000+00:00</time></trkpt><trkpt lat="39.46093429" lon="-0.37286402"><ele>24.0</ele><time>2022-11-06T14:59:48.0000000+00:00</time></trkpt><trkpt lat="39.46092859" lon="-0.37287014"><ele>24.0</ele><time>2022-11-06T14:59:49.0000000+00:00</time></trkpt><trkpt lat="39.46091736" lon="-0.37287491"><ele>24.0</ele><time>2022-11-06T14:59:50.0000000+00:00</time></trkpt><trkpt lat="39.46090319" lon="-0.3728755"><ele>24.0</ele><time>2022-11-06T14:59:51.0000000+00:00</time></trkpt><trkpt lat="39.46090093" lon="-0.37287626"><ele>24.0</ele><time>2022-11-06T14:59:52.0000000+00:00</time></trkpt><trkpt lat="39.4608928" lon="-0.37287843"><ele>24.0</ele><time>2022-11-06T14:59:53.0000000+00:00</time></trkpt><trkpt lat="39.4608897" lon="-0.37289503"><ele>24.0</ele><time>2022-11-06T14:59:54.0000000+00:00</time></trkpt><trkpt lat="39.4608897" lon="-0.37289662"><ele>24.0</ele><time>2022-11-06T14:59:55.0000000+00:00</time></trkpt><trkpt lat="39.46089213" lon="-0.37289579"><ele>24.0</ele><time>2022-11-06T14:59:56.0000000+00:00</time></trkpt><trkpt lat="39.46088375" lon="-0.37290257"><ele>24.0</ele><time>2022-11-06T14:59:57.0000000+00:00</time></trkpt><trkpt lat="39.46088383" lon="-0.37290442"><ele>24.0</ele><time>2022-11-06T14:59:58.0000000+00:00</time></trkpt><trkpt lat="39.46088073" lon="-0.37291649"><ele>24.0</ele><time>2022-11-06T14:59:59.0000000+00:00</time></trkpt><trkpt lat="39.46088039" lon="-0.37291867"><ele>24.0</ele><time>2022-11-06T15:00:00.0000000+00:00</time></trkpt><trkpt lat="39.46086874" lon="-0.37292227"><ele>24.0</ele><time>2022-11-06T15:00:01.0000000+00:00</time></trkpt><trkpt lat="39.46086891" lon="-0.37292261"><ele>24.0</ele><time>2022-11-06T15:00:02.0000000+00:00</time></trkpt><trkpt lat="39.46086598" lon="-0.37293501"><ele>24.0</ele><time>2022-11-06T15:00:03.0000000+00:00</time></trkpt><trkpt lat="39.46086891" lon="-0.3729361"><ele>24.0</ele><time>2022-11-06T15:00:04.0000000+00:00</time></trkpt><trkpt lat="39.46086732" lon="-0.37293627"><ele>24.0</ele><time>2022-11-06T15:00:05.0000000+00:00</time></trkpt><trkpt lat="39.46086581" lon="-0.37293443"><ele>24.0</ele><time>2022-11-06T15:00:06.0000000+00:00</time></trkpt><trkpt lat="39.46086187" lon="-0.37293376"><ele>24.0</ele><time>2022-11-06T15:00:07.0000000+00:00</time></trkpt><trkpt lat="39.46085592" lon="-0.37293535"><ele>24.0</ele><time>2022-11-06T15:00:08.0000000+00:00</time></trkpt><trkpt lat="39.46085466" lon="-0.37293627"><ele>24.0</ele><time>2022-11-06T15:00:09.0000000+00:00</time></trkpt><trkpt lat="39.46085558" lon="-0.37293904"><ele>24.0</ele><time>2022-11-06T15:00:10.0000000+00:00</time></trkpt><trkpt lat="39.46084729" lon="-0.37294264"><ele>24.0</ele><time>2022-11-06T15:00:11.0000000+00:00</time></trkpt><trkpt lat="39.46084946" lon="-0.37294482"><ele>24.0</ele><time>2022-11-06T15:00:12.0000000+00:00</time></trkpt><trkpt lat="39.4608493" lon="-0.3729387"><ele>24.0</ele><time>2022-11-06T15:00:13.0000000+00:00</time></trkpt><trkpt lat="39.46085307" lon="-0.37293761"><ele>24.0</ele><time>2022-11-06T15:00:14.0000000+00:00</time></trkpt><trkpt lat="39.46085366" lon="-0.3729387"><ele>24.0</ele><time>2022-11-06T15:00:15.0000000+00:00</time></trkpt><trkpt lat="39.46085801" lon="-0.37294029"><ele>24.0</ele><time>2022-11-06T15:00:16.0000000+00:00</time></trkpt><trkpt lat="39.46086505" lon="-0.37294876"><ele>24.0</ele><time>2022-11-06T15:00:17.0000000+00:00</time></trkpt><trkpt lat="39.46086673" lon="-0.37295362"><ele>24.0</ele><time>2022-11-06T15:00:18.0000000+00:00</time></trkpt><trkpt lat="39.46086497" lon="-0.37295722"><ele>24.0</ele><time>2022-11-06T15:00:19.0000000+00:00</time></trkpt><trkpt lat="39.46086254" lon="-0.37295949"><ele>24.0</ele><time>2022-11-06T15:00:20.0000000+00:00</time></trkpt><trkpt lat="39.46085944" lon="-0.37295664"><ele>24.0</ele><time>2022-11-06T15:00:21.0000000+00:00</time></trkpt><trkpt lat="39.46085751" lon="-0.37294976"><ele>24.0</ele><time>2022-11-06T15:00:22.0000000+00:00</time></trkpt><trkpt lat="39.460855" lon="-0.37294398"><ele>24.0</ele><time>2022-11-06T15:00:23.0000000+00:00</time></trkpt><trkpt lat="39.46085391" lon="-0.37294247"><ele>24.0</ele><time>2022-11-06T15:00:24.0000000+00:00</time></trkpt><trkpt lat="39.46085282" lon="-0.37294499"><ele>24.0</ele><time>2022-11-06T15:00:25.0000000+00:00</time></trkpt><trkpt lat="39.46085282" lon="-0.37294691"><ele>24.0</ele><time>2022-11-06T15:00:26.0000000+00:00</time></trkpt><trkpt lat="39.46085164" lon="-0.37294524"><ele>24.0</ele><time>2022-11-06T15:00:27.0000000+00:00</time></trkpt><trkpt lat="39.46084821" lon="-0.37294054"><ele>24.0</ele><time>2022-11-06T15:00:28.0000000+00:00</time></trkpt><trkpt lat="39.46084527" lon="-0.37294029"><ele>24.0</ele><time>2022-11-06T15:00:29.0000000+00:00</time></trkpt><trkpt lat="39.46085852" lon="-0.37294013"><ele>24.0</ele><time>2022-11-06T15:00:30.0000000+00:00</time></trkpt><trkpt lat="39.46086757" lon="-0.37293987"><ele>24.0</ele><time>2022-11-06T15:00:31.0000000+00:00</time></trkpt><trkpt lat="39.46087126" lon="-0.37294046"><ele>24.0</ele><time>2022-11-06T15:00:32.0000000+00:00</time></trkpt><trkpt lat="39.4608814" lon="-0.37294272"><ele>24.0</ele><time>2022-11-06T15:00:33.0000000+00:00</time></trkpt><trkpt lat="39.46089037" lon="-0.37294725"><ele>24.0</ele><time>2022-11-06T15:00:34.0000000+00:00</time></trkpt><trkpt lat="39.46089003" lon="-0.37294365"><ele>24.0</ele><time>2022-11-06T15:00:35.0000000+00:00</time></trkpt><trkpt lat="39.46089003" lon="-0.37294113"><ele>24.0</ele><time>2022-11-06T15:00:36.0000000+00:00</time></trkpt><trkpt lat="39.46089414" lon="-0.37294306"><ele>24.0</ele><time>2022-11-06T15:00:37.0000000+00:00</time></trkpt><trkpt lat="39.46089439" lon="-0.37294608"><ele>24.0</ele><time>2022-11-06T15:00:38.0000000+00:00</time></trkpt><trkpt lat="39.46089397" lon="-0.37294759"><ele>24.0</ele><time>2022-11-06T15:00:39.0000000+00:00</time></trkpt><trkpt lat="39.46089179" lon="-0.37294784"><ele>24.0</ele><time>2022-11-06T15:00:40.0000000+00:00</time></trkpt><trkpt lat="39.46089095" lon="-0.37294876"><ele>24.0</ele><time>2022-11-06T15:00:41.0000000+00:00</time></trkpt><trkpt lat="39.46088945" lon="-0.37294767"><ele>24.0</ele><time>2022-11-06T15:00:42.0000000+00:00</time></trkpt><trkpt lat="39.46089163" lon="-0.37294918"><ele>24.0</ele><time>2022-11-06T15:00:43.0000000+00:00</time></trkpt><trkpt lat="39.46089992" lon="-0.37294851"><ele>24.0</ele><time>2022-11-06T15:00:44.0000000+00:00</time></trkpt><trkpt lat="39.4609135" lon="-0.37294616"><ele>24.0</ele><time>2022-11-06T15:00:45.0000000+00:00</time></trkpt><trkpt lat="39.4609311" lon="-0.3729439"><ele>24.0</ele><time>2022-11-06T15:00:46.0000000+00:00</time></trkpt><trkpt lat="39.46094259" lon="-0.3729413"><ele>24.0</ele><time>2022-11-06T15:00:47.0000000+00:00</time></trkpt><trkpt lat="39.46094913" lon="-0.37294365"><ele>24.0</ele><time>2022-11-06T15:00:48.0000000+00:00</time></trkpt><trkpt lat="39.46094871" lon="-0.37294583"><ele>24.0</ele><time>2022-11-06T15:00:49.0000000+00:00</time></trkpt><trkpt lat="39.46094175" lon="-0.37295278"><ele>24.0</ele><time>2022-11-06T15:00:50.0000000+00:00</time></trkpt><trkpt lat="39.46093831" lon="-0.37296016"><ele>24.0</ele><time>2022-11-06T15:00:51.0000000+00:00</time></trkpt><trkpt lat="39.46092641" lon="-0.37295387"><ele>24.0</ele><time>2022-11-06T15:00:52.0000000+00:00</time></trkpt><trkpt lat="39.46092239" lon="-0.37295152"><ele>24.0</ele><time>2022-11-06T15:00:53.0000000+00:00</time></trkpt><trkpt lat="39.4609073" lon="-0.37295932"><ele>24.0</ele><time>2022-11-06T15:00:54.0000000+00:00</time></trkpt><trkpt lat="39.46090537" lon="-0.37296971"><ele>24.0</ele><time>2022-11-06T15:00:55.0000000+00:00</time></trkpt><trkpt lat="39.46090395" lon="-0.37297516"><ele>24.0</ele><time>2022-11-06T15:00:56.0000000+00:00</time></trkpt><trkpt lat="39.46089724" lon="-0.37298614"><ele>24.0</ele><time>2022-11-06T15:00:57.0000000+00:00</time></trkpt><trkpt lat="39.46089665" lon="-0.37298262"><ele>24.0</ele><time>2022-11-06T15:00:58.0000000+00:00</time></trkpt><trkpt lat="39.46089548" lon="-0.37296703"><ele>24.0</ele><time>2022-11-06T15:00:59.0000000+00:00</time></trkpt><trkpt lat="39.46089481" lon="-0.37296318"><ele>24.0</ele><time>2022-11-06T15:01:00.0000000+00:00</time></trkpt><trkpt lat="39.46089456" lon="-0.37296401"><ele>24.0</ele><time>2022-11-06T15:01:01.0000000+00:00</time></trkpt><trkpt lat="39.46089473" lon="-0.37296535"><ele>24.0</ele><time>2022-11-06T15:01:02.0000000+00:00</time></trkpt><trkpt lat="39.46091023" lon="-0.37299126"><ele>24.0</ele><time>2022-11-06T15:01:03.0000000+00:00</time></trkpt><trkpt lat="39.46091367" lon="-0.37299444"><ele>24.0</ele><time>2022-11-06T15:01:04.0000000+00:00</time></trkpt><trkpt lat="39.46091652" lon="-0.37299201"><ele>24.0</ele><time>2022-11-06T15:01:05.0000000+00:00</time></trkpt><trkpt lat="39.46091853" lon="-0.37300039"><ele>24.0</ele><time>2022-11-06T15:01:06.0000000+00:00</time></trkpt><trkpt lat="39.46091895" lon="-0.37300576"><ele>24.0</ele><time>2022-11-06T15:01:07.0000000+00:00</time></trkpt><trkpt lat="39.46092063" lon="-0.37302688"><ele>24.0</ele><time>2022-11-06T15:01:08.0000000+00:00</time></trkpt><trkpt lat="39.46091962" lon="-0.37304037"><ele>24.0</ele><time>2022-11-06T15:01:09.0000000+00:00</time></trkpt><trkpt lat="39.46092608" lon="-0.37306694"><ele>24.0</ele><time>2022-11-06T15:01:10.0000000+00:00</time></trkpt><trkpt lat="39.460927" lon="-0.37307424"><ele>24.0</ele><time>2022-11-06T15:01:11.0000000+00:00</time></trkpt><trkpt lat="39.46091929" lon="-0.37306326"><ele>24.0</ele><time>2022-11-06T15:01:12.0000000+00:00</time></trkpt><trkpt lat="39.4609182" lon="-0.37306259"><ele>24.0</ele><time>2022-11-06T15:01:13.0000000+00:00</time></trkpt><trkpt lat="39.46091602" lon="-0.37305965"><ele>24.0</ele><time>2022-11-06T15:01:14.0000000+00:00</time></trkpt><trkpt lat="39.46091627" lon="-0.37305948"><ele>24.0</ele><time>2022-11-06T15:01:15.0000000+00:00</time></trkpt><trkpt lat="39.4609244" lon="-0.37306376"><ele>24.0</ele><time>2022-11-06T15:01:16.0000000+00:00</time></trkpt><trkpt lat="39.46093898" lon="-0.37307231"><ele>24.0</ele><time>2022-11-06T15:01:17.0000000+00:00</time></trkpt><trkpt lat="39.46094938" lon="-0.37307642"><ele>24.0</ele><time>2022-11-06T15:01:18.0000000+00:00</time></trkpt><trkpt lat="39.46096069" lon="-0.37308857"><ele>24.0</ele><time>2022-11-06T15:01:19.0000000+00:00</time></trkpt><trkpt lat="39.46097184" lon="-0.3730972"><ele>24.0</ele><time>2022-11-06T15:01:20.0000000+00:00</time></trkpt><trkpt lat="39.46097561" lon="-0.37310232"><ele>24.0</ele><time>2022-11-06T15:01:21.0000000+00:00</time></trkpt><trkpt lat="39.46097687" lon="-0.37308522"><ele>24.0</ele><time>2022-11-06T15:01:22.0000000+00:00</time></trkpt><trkpt lat="39.4609757" lon="-0.37308245"><ele>24.0</ele><time>2022-11-06T15:01:23.0000000+00:00</time></trkpt><trkpt lat="39.46097276" lon="-0.37306946"><ele>24.0</ele><time>2022-11-06T15:01:24.0000000+00:00</time></trkpt><trkpt lat="39.46096639" lon="-0.37306502"><ele>24.0</ele><time>2022-11-06T15:01:25.0000000+00:00</time></trkpt><trkpt lat="39.46096337" lon="-0.37306284"><ele>24.0</ele><time>2022-11-06T15:01:26.0000000+00:00</time></trkpt><trkpt lat="39.46096773" lon="-0.37305588"><ele>24.0</ele><time>2022-11-06T15:01:27.0000000+00:00</time></trkpt><trkpt lat="39.46096874" lon="-0.37305445"><ele>24.0</ele><time>2022-11-06T15:01:28.0000000+00:00</time></trkpt><trkpt lat="39.46097385" lon="-0.37304331"><ele>24.0</ele><time>2022-11-06T15:01:29.0000000+00:00</time></trkpt><trkpt lat="39.46098148" lon="-0.37303325"><ele>24.0</ele><time>2022-11-06T15:01:30.0000000+00:00</time></trkpt><trkpt lat="39.46098039" lon="-0.37302579"><ele>24.0</ele><time>2022-11-06T15:01:31.0000000+00:00</time></trkpt><trkpt lat="39.46097461" lon="-0.37302503"><ele>24.0</ele><time>2022-11-06T15:01:32.0000000+00:00</time></trkpt><trkpt lat="39.46098131" lon="-0.37302327"><ele>23.8</ele><time>2022-11-06T15:01:33.0000000+00:00</time></trkpt><trkpt lat="39.46099221" lon="-0.37301984"><ele>23.8</ele><time>2022-11-06T15:01:34.0000000+00:00</time></trkpt><trkpt lat="39.46100713" lon="-0.37301975"><ele>23.8</ele><time>2022-11-06T15:01:35.0000000+00:00</time></trkpt><trkpt lat="39.46101811" lon="-0.37301959"><ele>23.8</ele><time>2022-11-06T15:01:36.0000000+00:00</time></trkpt><trkpt lat="39.46103026" lon="-0.37301489"><ele>23.8</ele><time>2022-11-06T15:01:37.0000000+00:00</time></trkpt><trkpt lat="39.46103563" lon="-0.37301757"><ele>24.0</ele><time>2022-11-06T15:01:38.0000000+00:00</time></trkpt><trkpt lat="39.46105105" lon="-0.37301523"><ele>24.2</ele><time>2022-11-06T15:01:39.0000000+00:00</time></trkpt><trkpt lat="39.4610684" lon="-0.37301238"><ele>24.2</ele><time>2022-11-06T15:01:40.0000000+00:00</time></trkpt><trkpt lat="39.46107368" lon="-0.37301062"><ele>24.4</ele><time>2022-11-06T15:01:41.0000000+00:00</time></trkpt><trkpt lat="39.46107041" lon="-0.37300944"><ele>24.4</ele><time>2022-11-06T15:01:42.0000000+00:00</time></trkpt><trkpt lat="39.46104971" lon="-0.37301405"><ele>24.4</ele><time>2022-11-06T15:01:43.0000000+00:00</time></trkpt><trkpt lat="39.46103085" lon="-0.37302034"><ele>24.2</ele><time>2022-11-06T15:01:44.0000000+00:00</time></trkpt><trkpt lat="39.46101031" lon="-0.37302612"><ele>24.2</ele><time>2022-11-06T15:01:45.0000000+00:00</time></trkpt><trkpt lat="39.46100621" lon="-0.37303023"><ele>24.2</ele><time>2022-11-06T15:01:46.0000000+00:00</time></trkpt><trkpt lat="39.46099891" lon="-0.37303744"><ele>24.2</ele><time>2022-11-06T15:01:47.0000000+00:00</time></trkpt><trkpt lat="39.46099263" lon="-0.37304398"><ele>24.2</ele><time>2022-11-06T15:01:48.0000000+00:00</time></trkpt><trkpt lat="39.46099741" lon="-0.37305177"><ele>24.2</ele><time>2022-11-06T15:01:49.0000000+00:00</time></trkpt><trkpt lat="39.46100344" lon="-0.37306602"><ele>24.2</ele><time>2022-11-06T15:01:50.0000000+00:00</time></trkpt><trkpt lat="39.46101258" lon="-0.37308195"><ele>24.2</ele><time>2022-11-06T15:01:51.0000000+00:00</time></trkpt><trkpt lat="39.46102062" lon="-0.37309678"><ele>24.2</ele><time>2022-11-06T15:01:52.0000000+00:00</time></trkpt><trkpt lat="39.46101987" lon="-0.37310123"><ele>24.2</ele><time>2022-11-06T15:01:53.0000000+00:00</time></trkpt><trkpt lat="39.46101853" lon="-0.37309871"><ele>24.2</ele><time>2022-11-06T15:01:54.0000000+00:00</time></trkpt><trkpt lat="39.46102012" lon="-0.37310944"><ele>24.2</ele><time>2022-11-06T15:01:55.0000000+00:00</time></trkpt><trkpt lat="39.46102012" lon="-0.37311447"><ele>24.2</ele><time>2022-11-06T15:01:56.0000000+00:00</time></trkpt><trkpt lat="39.46102163" lon="-0.3731148"><ele>24.2</ele><time>2022-11-06T15:01:57.0000000+00:00</time></trkpt><trkpt lat="39.46102523" lon="-0.37312067"><ele>24.0</ele><time>2022-11-06T15:01:58.0000000+00:00</time></trkpt><trkpt lat="39.46103018" lon="-0.37312436"><ele>24.0</ele><time>2022-11-06T15:01:59.0000000+00:00</time></trkpt><trkpt lat="39.46103512" lon="-0.37312293"><ele>24.0</ele><time>2022-11-06T15:02:00.0000000+00:00</time></trkpt><trkpt lat="39.46104107" lon="-0.37315051"><ele>24.0</ele><time>2022-11-06T15:02:01.0000000+00:00</time></trkpt><trkpt lat="39.46104703" lon="-0.37316744"><ele>24.0</ele><time>2022-11-06T15:02:02.0000000+00:00</time></trkpt><trkpt lat="39.46105532" lon="-0.37318412"><ele>24.0</ele><time>2022-11-06T15:02:03.0000000+00:00</time></trkpt><trkpt lat="39.46106044" lon="-0.3732096"><ele>24.4</ele><time>2022-11-06T15:02:04.0000000+00:00</time></trkpt><trkpt lat="39.46106773" lon="-0.37323441"><ele>24.6</ele><time>2022-11-06T15:02:05.0000000+00:00</time></trkpt><trkpt lat="39.46107066" lon="-0.37325637"><ele>24.6</ele><time>2022-11-06T15:02:06.0000000+00:00</time></trkpt><trkpt lat="39.46107502" lon="-0.3732728"><ele>24.8</ele><time>2022-11-06T15:02:07.0000000+00:00</time></trkpt><trkpt lat="39.46108206" lon="-0.37328663"><ele>24.6</ele><time>2022-11-06T15:02:08.0000000+00:00</time></trkpt><trkpt lat="39.46109061" lon="-0.37329837"><ele>24.6</ele><time>2022-11-06T15:02:09.0000000+00:00</time></trkpt><trkpt lat="39.46109866" lon="-0.37329879"><ele>24.4</ele><time>2022-11-06T15:02:10.0000000+00:00</time></trkpt><trkpt lat="39.46110453" lon="-0.37329258"><ele>24.4</ele><time>2022-11-06T15:02:11.0000000+00:00</time></trkpt><trkpt lat="39.46110872" lon="-0.3732951"><ele>24.2</ele><time>2022-11-06T15:02:12.0000000+00:00</time></trkpt><trkpt lat="39.46111308" lon="-0.37330289"><ele>24.2</ele><time>2022-11-06T15:02:13.0000000+00:00</time></trkpt><trkpt lat="39.46111492" lon="-0.37331161"><ele>24.2</ele><time>2022-11-06T15:02:14.0000000+00:00</time></trkpt><trkpt lat="39.46111425" lon="-0.37331438"><ele>24.2</ele><time>2022-11-06T15:02:15.0000000+00:00</time></trkpt><trkpt lat="39.46111785" lon="-0.37331245"><ele>24.2</ele><time>2022-11-06T15:02:16.0000000+00:00</time></trkpt><trkpt lat="39.46112716" lon="-0.37331505"><ele>24.2</ele><time>2022-11-06T15:02:17.0000000+00:00</time></trkpt><trkpt lat="39.46114794" lon="-0.37332259"><ele>24.4</ele><time>2022-11-06T15:02:18.0000000+00:00</time></trkpt><trkpt lat="39.46117594" lon="-0.37332712"><ele>24.2</ele><time>2022-11-06T15:02:19.0000000+00:00</time></trkpt><trkpt lat="39.46120217" lon="-0.37332946"><ele>24.2</ele><time>2022-11-06T15:02:20.0000000+00:00</time></trkpt><trkpt lat="39.4612202" lon="-0.37332988"><ele>24.2</ele><time>2022-11-06T15:02:21.0000000+00:00</time></trkpt><trkpt lat="39.46124014" lon="-0.37333198"><ele>24.4</ele><time>2022-11-06T15:02:22.0000000+00:00</time></trkpt><trkpt lat="39.46124149" lon="-0.37333399"><ele>24.2</ele><time>2022-11-06T15:02:23.0000000+00:00</time></trkpt><trkpt lat="39.46124618" lon="-0.3733407"><ele>24.2</ele><time>2022-11-06T15:02:24.0000000+00:00</time></trkpt><trkpt lat="39.46126529" lon="-0.37334891"><ele>24.0</ele><time>2022-11-06T15:02:25.0000000+00:00</time></trkpt><trkpt lat="39.46128189" lon="-0.37335218"><ele>24.0</ele><time>2022-11-06T15:02:26.0000000+00:00</time></trkpt><trkpt lat="39.46128977" lon="-0.37335637"><ele>24.0</ele><time>2022-11-06T15:02:27.0000000+00:00</time></trkpt><trkpt lat="39.46130192" lon="-0.37335637"><ele>24.0</ele><time>2022-11-06T15:02:28.0000000+00:00</time></trkpt><trkpt lat="39.46131634" lon="-0.37335897"><ele>24.0</ele><time>2022-11-06T15:02:29.0000000+00:00</time></trkpt><trkpt lat="39.46131977" lon="-0.37336836"><ele>24.0</ele><time>2022-11-06T15:02:30.0000000+00:00</time></trkpt><trkpt lat="39.46132422" lon="-0.37337816"><ele>24.0</ele><time>2022-11-06T15:02:31.0000000+00:00</time></trkpt><trkpt lat="39.46133453" lon="-0.37338378"><ele>24.2</ele><time>2022-11-06T15:02:32.0000000+00:00</time></trkpt><trkpt lat="39.4613445" lon="-0.37338453"><ele>24.2</ele><time>2022-11-06T15:02:33.0000000+00:00</time></trkpt><trkpt lat="39.4613554" lon="-0.37338579"><ele>24.2</ele><time>2022-11-06T15:02:34.0000000+00:00</time></trkpt><trkpt lat="39.46136814" lon="-0.37339065"><ele>24.2</ele><time>2022-11-06T15:02:35.0000000+00:00</time></trkpt><trkpt lat="39.46138565" lon="-0.37339652"><ele>24.4</ele><time>2022-11-06T15:02:36.0000000+00:00</time></trkpt><trkpt lat="39.46139228" lon="-0.37340155"><ele>24.4</ele><time>2022-11-06T15:02:37.0000000+00:00</time></trkpt><trkpt lat="39.46140418" lon="-0.37340356"><ele>24.4</ele><time>2022-11-06T15:02:38.0000000+00:00</time></trkpt><trkpt lat="39.4614108" lon="-0.3733868"><ele>24.6</ele><time>2022-11-06T15:02:39.0000000+00:00</time></trkpt><trkpt lat="39.46141466" lon="-0.37339719"><ele>24.6</ele><time>2022-11-06T15:02:40.0000000+00:00</time></trkpt><trkpt lat="39.46142756" lon="-0.37339912"><ele>24.6</ele><time>2022-11-06T15:02:41.0000000+00:00</time></trkpt><trkpt lat="39.4614455" lon="-0.37339266"><ele>24.6</ele><time>2022-11-06T15:02:42.0000000+00:00</time></trkpt><trkpt lat="39.46145623" lon="-0.3733795"><ele>24.6</ele><time>2022-11-06T15:02:43.0000000+00:00</time></trkpt><trkpt lat="39.46146227" lon="-0.37337179"><ele>24.6</ele><time>2022-11-06T15:02:44.0000000+00:00</time></trkpt><trkpt lat="39.46147266" lon="-0.37337154"><ele>24.6</ele><time>2022-11-06T15:02:45.0000000+00:00</time></trkpt><trkpt lat="39.46148112" lon="-0.3733852"><ele>24.8</ele><time>2022-11-06T15:02:46.0000000+00:00</time></trkpt><trkpt lat="39.46148657" lon="-0.3733935"><ele>24.8</ele><time>2022-11-06T15:02:47.0000000+00:00</time></trkpt><trkpt lat="39.46148775" lon="-0.37340264"><ele>24.8</ele><time>2022-11-06T15:02:48.0000000+00:00</time></trkpt><trkpt lat="39.46149143" lon="-0.37340825"><ele>24.8</ele><time>2022-11-06T15:02:49.0000000+00:00</time></trkpt><trkpt lat="39.46150795" lon="-0.37341337"><ele>24.8</ele><time>2022-11-06T15:02:50.0000000+00:00</time></trkpt><trkpt lat="39.46151516" lon="-0.37341764"><ele>24.8</ele><time>2022-11-06T15:02:51.0000000+00:00</time></trkpt><trkpt lat="39.46150568" lon="-0.37342661"><ele>24.8</ele><time>2022-11-06T15:02:52.0000000+00:00</time></trkpt><trkpt lat="39.46150987" lon="-0.37343466"><ele>24.6</ele><time>2022-11-06T15:02:53.0000000+00:00</time></trkpt><trkpt lat="39.4615061" lon="-0.37344111"><ele>24.6</ele><time>2022-11-06T15:02:54.0000000+00:00</time></trkpt><trkpt lat="39.46149998" lon="-0.37344555"><ele>24.6</ele><time>2022-11-06T15:02:55.0000000+00:00</time></trkpt><trkpt lat="39.46149336" lon="-0.37345058"><ele>24.4</ele><time>2022-11-06T15:02:56.0000000+00:00</time></trkpt><trkpt lat="39.46147962" lon="-0.37345075"><ele>24.4</ele><time>2022-11-06T15:02:57.0000000+00:00</time></trkpt><trkpt lat="39.46147492" lon="-0.37344916"><ele>24.4</ele><time>2022-11-06T15:02:58.0000000+00:00</time></trkpt><trkpt lat="39.46149688" lon="-0.37346265"><ele>24.4</ele><time>2022-11-06T15:02:59.0000000+00:00</time></trkpt><trkpt lat="39.46151993" lon="-0.37347531"><ele>24.4</ele><time>2022-11-06T15:03:00.0000000+00:00</time></trkpt><trkpt lat="39.46153946" lon="-0.37348654"><ele>24.6</ele><time>2022-11-06T15:03:01.0000000+00:00</time></trkpt><trkpt lat="39.46154567" lon="-0.37348495"><ele>24.6</ele><time>2022-11-06T15:03:02.0000000+00:00</time></trkpt><trkpt lat="39.46154969" lon="-0.37348637"><ele>24.8</ele><time>2022-11-06T15:03:03.0000000+00:00</time></trkpt><trkpt lat="39.4615693" lon="-0.37349828"><ele>24.8</ele><time>2022-11-06T15:03:04.0000000+00:00</time></trkpt><trkpt lat="39.46158682" lon="-0.37350657"><ele>25.0</ele><time>2022-11-06T15:03:05.0000000+00:00</time></trkpt><trkpt lat="39.46158883" lon="-0.37350372"><ele>25.0</ele><time>2022-11-06T15:03:06.0000000+00:00</time></trkpt><trkpt lat="39.4616009" lon="-0.37351127"><ele>25.0</ele><time>2022-11-06T15:03:07.0000000+00:00</time></trkpt><trkpt lat="39.46160903" lon="-0.3735163"><ele>25.0</ele><time>2022-11-06T15:03:08.0000000+00:00</time></trkpt><trkpt lat="39.46161674" lon="-0.37350884"><ele>24.8</ele><time>2022-11-06T15:03:09.0000000+00:00</time></trkpt><trkpt lat="39.46163116" lon="-0.37350423"><ele>25.0</ele><time>2022-11-06T15:03:10.0000000+00:00</time></trkpt><trkpt lat="39.46163686" lon="-0.37349861"><ele>25.0</ele><time>2022-11-06T15:03:11.0000000+00:00</time></trkpt><trkpt lat="39.46164281" lon="-0.37349886"><ele>25.2</ele><time>2022-11-06T15:03:12.0000000+00:00</time></trkpt><trkpt lat="39.46165052" lon="-0.37349467"><ele>25.2</ele><time>2022-11-06T15:03:13.0000000+00:00</time></trkpt><trkpt lat="39.46166167" lon="-0.37348948"><ele>25.2</ele><time>2022-11-06T15:03:14.0000000+00:00</time></trkpt><trkpt lat="39.46167156" lon="-0.37349224"><ele>25.2</ele><time>2022-11-06T15:03:15.0000000+00:00</time></trkpt><trkpt lat="39.46167341" lon="-0.37348797"><ele>25.2</ele><time>2022-11-06T15:03:16.0000000+00:00</time></trkpt><trkpt lat="39.46169034" lon="-0.37349031"><ele>25.2</ele><time>2022-11-06T15:03:17.0000000+00:00</time></trkpt><trkpt lat="39.46169872" lon="-0.37349199"><ele>25.2</ele><time>2022-11-06T15:03:18.0000000+00:00</time></trkpt><trkpt lat="39.46169118" lon="-0.37349752"><ele>25.2</ele><time>2022-11-06T15:03:19.0000000+00:00</time></trkpt><trkpt lat="39.46168514" lon="-0.37349786"><ele>25.2</ele><time>2022-11-06T15:03:20.0000000+00:00</time></trkpt><trkpt lat="39.46168288" lon="-0.37351135"><ele>25.2</ele><time>2022-11-06T15:03:21.0000000+00:00</time></trkpt><trkpt lat="39.46169268" lon="-0.37352493"><ele>25.2</ele><time>2022-11-06T15:03:22.0000000+00:00</time></trkpt><trkpt lat="39.46170584" lon="-0.37353641"><ele>25.2</ele><time>2022-11-06T15:03:23.0000000+00:00</time></trkpt><trkpt lat="39.46172663" lon="-0.37355276"><ele>25.0</ele><time>2022-11-06T15:03:24.0000000+00:00</time></trkpt><trkpt lat="39.46172688" lon="-0.37356969"><ele>25.0</ele><time>2022-11-06T15:03:25.0000000+00:00</time></trkpt><trkpt lat="39.46171657" lon="-0.37358293"><ele>25.0</ele><time>2022-11-06T15:03:26.0000000+00:00</time></trkpt><trkpt lat="39.46172093" lon="-0.37359308"><ele>25.0</ele><time>2022-11-06T15:03:27.0000000+00:00</time></trkpt><trkpt lat="39.46173552" lon="-0.37360624"><ele>25.0</ele><time>2022-11-06T15:03:28.0000000+00:00</time></trkpt><trkpt lat="39.46175354" lon="-0.37361914"><ele>25.0</ele><time>2022-11-06T15:03:29.0000000+00:00</time></trkpt><trkpt lat="39.46178044" lon="-0.3736282"><ele>25.0</ele><time>2022-11-06T15:03:30.0000000+00:00</time></trkpt><trkpt lat="39.461804" lon="-0.3736318"><ele>25.0</ele><time>2022-11-06T15:03:31.0000000+00:00</time></trkpt><trkpt lat="39.46181062" lon="-0.37362954"><ele>25.0</ele><time>2022-11-06T15:03:32.0000000+00:00</time></trkpt><trkpt lat="39.46181783" lon="-0.37363633"><ele>25.0</ele><time>2022-11-06T15:03:33.0000000+00:00</time></trkpt><trkpt lat="39.46184213" lon="-0.37364722"><ele>25.0</ele><time>2022-11-06T15:03:34.0000000+00:00</time></trkpt><trkpt lat="39.46186091" lon="-0.37365938"><ele>25.2</ele><time>2022-11-06T15:03:35.0000000+00:00</time></trkpt><trkpt lat="39.46185311" lon="-0.37365711"><ele>25.2</ele><time>2022-11-06T15:03:36.0000000+00:00</time></trkpt><trkpt lat="39.46186409" lon="-0.3736639"><ele>25.2</ele><time>2022-11-06T15:03:37.0000000+00:00</time></trkpt><trkpt lat="39.46186133" lon="-0.37367497"><ele>25.2</ele><time>2022-11-06T15:03:38.0000000+00:00</time></trkpt><trkpt lat="39.46186703" lon="-0.373695"><ele>25.0</ele><time>2022-11-06T15:03:39.0000000+00:00</time></trkpt><trkpt lat="39.46186543" lon="-0.37370271"><ele>25.0</ele><time>2022-11-06T15:03:40.0000000+00:00</time></trkpt><trkpt lat="39.46187943" lon="-0.37371034"><ele>25.0</ele><time>2022-11-06T15:03:41.0000000+00:00</time></trkpt><trkpt lat="39.46188924" lon="-0.37373171"><ele>25.0</ele><time>2022-11-06T15:03:42.0000000+00:00</time></trkpt><trkpt lat="39.46190047" lon="-0.37374546"><ele>25.0</ele><time>2022-11-06T15:03:43.0000000+00:00</time></trkpt><trkpt lat="39.46190198" lon="-0.37375074"><ele>25.0</ele><time>2022-11-06T15:03:44.0000000+00:00</time></trkpt><trkpt lat="39.46191413" lon="-0.37374931"><ele>25.0</ele><time>2022-11-06T15:03:45.0000000+00:00</time></trkpt><trkpt lat="39.46192243" lon="-0.37374789"><ele>25.0</ele><time>2022-11-06T15:03:46.0000000+00:00</time></trkpt><trkpt lat="39.4619397" lon="-0.37374663"><ele>25.0</ele><time>2022-11-06T15:03:47.0000000+00:00</time></trkpt><trkpt lat="39.46194523" lon="-0.37374479"><ele>25.0</ele><time>2022-11-06T15:03:48.0000000+00:00</time></trkpt><trkpt lat="39.46193744" lon="-0.37374303"><ele>25.0</ele><time>2022-11-06T15:03:49.0000000+00:00</time></trkpt><trkpt lat="39.4619366" lon="-0.37374881"><ele>25.0</ele><time>2022-11-06T15:03:50.0000000+00:00</time></trkpt><trkpt lat="39.4619262" lon="-0.3737551"><ele>25.2</ele><time>2022-11-06T15:03:51.0000000+00:00</time></trkpt><trkpt lat="39.46192537" lon="-0.37376708"><ele>25.2</ele><time>2022-11-06T15:03:52.0000000+00:00</time></trkpt><trkpt lat="39.46193559" lon="-0.37378133"><ele>25.2</ele><time>2022-11-06T15:03:53.0000000+00:00</time></trkpt><trkpt lat="39.46194531" lon="-0.37379801"><ele>25.2</ele><time>2022-11-06T15:03:54.0000000+00:00</time></trkpt><trkpt lat="39.46196149" lon="-0.37381478"><ele>25.2</ele><time>2022-11-06T15:03:55.0000000+00:00</time></trkpt><trkpt lat="39.46197834" lon="-0.37382685"><ele>25.2</ele><time>2022-11-06T15:03:56.0000000+00:00</time></trkpt><trkpt lat="39.46198806" lon="-0.37383112"><ele>25.2</ele><time>2022-11-06T15:03:57.0000000+00:00</time></trkpt><trkpt lat="39.46199711" lon="-0.37383439"><ele>25.2</ele><time>2022-11-06T15:03:58.0000000+00:00</time></trkpt><trkpt lat="39.46200877" lon="-0.37384478"><ele>25.2</ele><time>2022-11-06T15:03:59.0000000+00:00</time></trkpt><trkpt lat="39.46202167" lon="-0.37385535"><ele>25.2</ele><time>2022-11-06T15:04:00.0000000+00:00</time></trkpt><trkpt lat="39.46202729" lon="-0.37386264"><ele>25.2</ele><time>2022-11-06T15:04:01.0000000+00:00</time></trkpt><trkpt lat="39.46203332" lon="-0.37386842"><ele>25.2</ele><time>2022-11-06T15:04:02.0000000+00:00</time></trkpt><trkpt lat="39.46203684" lon="-0.37388552"><ele>25.2</ele><time>2022-11-06T15:04:03.0000000+00:00</time></trkpt><trkpt lat="39.46203534" lon="-0.37390513"><ele>25.2</ele><time>2022-11-06T15:04:04.0000000+00:00</time></trkpt><trkpt lat="39.46203584" lon="-0.37393078"><ele>25.2</ele><time>2022-11-06T15:04:05.0000000+00:00</time></trkpt><trkpt lat="39.46203651" lon="-0.3739338"><ele>25.2</ele><time>2022-11-06T15:04:06.0000000+00:00</time></trkpt><trkpt lat="39.46204338" lon="-0.37395492"><ele>25.2</ele><time>2022-11-06T15:04:07.0000000+00:00</time></trkpt><trkpt lat="39.46204464" lon="-0.37395744"><ele>25.2</ele><time>2022-11-06T15:04:08.0000000+00:00</time></trkpt><trkpt lat="39.46204313" lon="-0.37397194"><ele>25.2</ele><time>2022-11-06T15:04:09.0000000+00:00</time></trkpt><trkpt lat="39.46204774" lon="-0.37397403"><ele>25.2</ele><time>2022-11-06T15:04:10.0000000+00:00</time></trkpt><trkpt lat="39.46204405" lon="-0.37397152"><ele>25.2</ele><time>2022-11-06T15:04:11.0000000+00:00</time></trkpt><trkpt lat="39.46203978" lon="-0.3739747"><ele>25.2</ele><time>2022-11-06T15:04:12.0000000+00:00</time></trkpt><trkpt lat="39.46204347" lon="-0.37398761"><ele>25.2</ele><time>2022-11-06T15:04:13.0000000+00:00</time></trkpt><trkpt lat="39.46204665" lon="-0.37399775"><ele>25.2</ele><time>2022-11-06T15:04:14.0000000+00:00</time></trkpt><trkpt lat="39.46204766" lon="-0.37400379"><ele>25.2</ele><time>2022-11-06T15:04:15.0000000+00:00</time></trkpt><trkpt lat="39.46205369" lon="-0.37400262"><ele>25.2</ele><time>2022-11-06T15:04:16.0000000+00:00</time></trkpt><trkpt lat="39.46206325" lon="-0.37400999"><ele>25.2</ele><time>2022-11-06T15:04:17.0000000+00:00</time></trkpt><trkpt lat="39.46207825" lon="-0.37402181"><ele>25.2</ele><time>2022-11-06T15:04:18.0000000+00:00</time></trkpt><trkpt lat="39.46208973" lon="-0.3740281"><ele>25.2</ele><time>2022-11-06T15:04:19.0000000+00:00</time></trkpt><trkpt lat="39.46209711" lon="-0.37402952"><ele>25.2</ele><time>2022-11-06T15:04:20.0000000+00:00</time></trkpt><trkpt lat="39.46209518" lon="-0.37402826"><ele>25.2</ele><time>2022-11-06T15:04:21.0000000+00:00</time></trkpt><trkpt lat="39.46209862" lon="-0.37400706"><ele>25.2</ele><time>2022-11-06T15:04:22.0000000+00:00</time></trkpt><trkpt lat="39.46210298" lon="-0.37397982"><ele>25.2</ele><time>2022-11-06T15:04:23.0000000+00:00</time></trkpt><trkpt lat="39.46209627" lon="-0.3739659"><ele>25.2</ele><time>2022-11-06T15:04:24.0000000+00:00</time></trkpt><trkpt lat="39.46209745" lon="-0.37396389"><ele>25.2</ele><time>2022-11-06T15:04:25.0000000+00:00</time></trkpt><trkpt lat="39.46209694" lon="-0.37396758"><ele>25.2</ele><time>2022-11-06T15:04:26.0000000+00:00</time></trkpt><trkpt lat="39.46209074" lon="-0.37396381"><ele>25.2</ele><time>2022-11-06T15:04:27.0000000+00:00</time></trkpt><trkpt lat="39.46208781" lon="-0.37396666"><ele>25.2</ele><time>2022-11-06T15:04:28.0000000+00:00</time></trkpt><trkpt lat="39.46208169" lon="-0.37397152"><ele>25.2</ele><time>2022-11-06T15:04:29.0000000+00:00</time></trkpt><trkpt lat="39.46207867" lon="-0.37397781"><ele>25.2</ele><time>2022-11-06T15:04:30.0000000+00:00</time></trkpt><trkpt lat="39.46207741" lon="-0.37398568"><ele>25.2</ele><time>2022-11-06T15:04:31.0000000+00:00</time></trkpt><trkpt lat="39.46207867" lon="-0.37398853"><ele>25.2</ele><time>2022-11-06T15:04:32.0000000+00:00</time></trkpt><trkpt lat="39.46207959" lon="-0.37399214"><ele>25.2</ele><time>2022-11-06T15:04:33.0000000+00:00</time></trkpt><trkpt lat="39.46208772" lon="-0.37400027"><ele>25.2</ele><time>2022-11-06T15:04:34.0000000+00:00</time></trkpt><trkpt lat="39.4620925" lon="-0.37400077"><ele>25.0</ele><time>2022-11-06T15:04:35.0000000+00:00</time></trkpt><trkpt lat="39.46209367" lon="-0.37400932"><ele>25.0</ele><time>2022-11-06T15:04:36.0000000+00:00</time></trkpt><trkpt lat="39.46209862" lon="-0.37403665"><ele>25.0</ele><time>2022-11-06T15:04:37.0000000+00:00</time></trkpt><trkpt lat="39.46210516" lon="-0.37406263"><ele>25.0</ele><time>2022-11-06T15:04:38.0000000+00:00</time></trkpt><trkpt lat="39.46211513" lon="-0.3740897"><ele>25.0</ele><time>2022-11-06T15:04:39.0000000+00:00</time></trkpt><trkpt lat="39.46212997" lon="-0.37412197"><ele>25.0</ele><time>2022-11-06T15:04:40.0000000+00:00</time></trkpt><trkpt lat="39.4621391" lon="-0.37414075"><ele>25.0</ele><time>2022-11-06T15:04:41.0000000+00:00</time></trkpt><trkpt lat="39.4621505" lon="-0.3741524"><ele>25.0</ele><time>2022-11-06T15:04:42.0000000+00:00</time></trkpt><trkpt lat="39.46215956" lon="-0.37417042"><ele>25.2</ele><time>2022-11-06T15:04:43.0000000+00:00</time></trkpt><trkpt lat="39.46216324" lon="-0.37417679"><ele>25.2</ele><time>2022-11-06T15:04:44.0000000+00:00</time></trkpt><trkpt lat="39.46217473" lon="-0.37419473"><ele>25.2</ele><time>2022-11-06T15:04:45.0000000+00:00</time></trkpt><trkpt lat="39.46218872" lon="-0.37421091"><ele>25.2</ele><time>2022-11-06T15:04:46.0000000+00:00</time></trkpt><trkpt lat="39.46220624" lon="-0.37421451"><ele>25.2</ele><time>2022-11-06T15:04:47.0000000+00:00</time></trkpt><trkpt lat="39.46221831" lon="-0.37418811"><ele>25.2</ele><time>2022-11-06T15:04:48.0000000+00:00</time></trkpt><trkpt lat="39.46222535" lon="-0.37418065"><ele>25.2</ele><time>2022-11-06T15:04:49.0000000+00:00</time></trkpt><trkpt lat="39.46223415" lon="-0.3741866"><ele>25.2</ele><time>2022-11-06T15:04:50.0000000+00:00</time></trkpt><trkpt lat="39.46224673" lon="-0.37419154"><ele>25.0</ele><time>2022-11-06T15:04:51.0000000+00:00</time></trkpt><trkpt lat="39.46225922" lon="-0.37420873"><ele>25.0</ele><time>2022-11-06T15:04:52.0000000+00:00</time></trkpt><trkpt lat="39.46226575" lon="-0.37421954"><ele>25.0</ele><time>2022-11-06T15:04:53.0000000+00:00</time></trkpt><trkpt lat="39.46226659" lon="-0.37421669"><ele>25.0</ele><time>2022-11-06T15:04:54.0000000+00:00</time></trkpt><trkpt lat="39.46227011" lon="-0.37421116"><ele>25.0</ele><time>2022-11-06T15:04:55.0000000+00:00</time></trkpt><trkpt lat="39.46227732" lon="-0.3742177"><ele>25.0</ele><time>2022-11-06T15:04:56.0000000+00:00</time></trkpt><trkpt lat="39.46228704" lon="-0.37423614"><ele>25.0</ele><time>2022-11-06T15:04:57.0000000+00:00</time></trkpt><trkpt lat="39.46229568" lon="-0.37425449"><ele>25.0</ele><time>2022-11-06T15:04:58.0000000+00:00</time></trkpt><trkpt lat="39.46230842" lon="-0.37426933"><ele>25.0</ele><time>2022-11-06T15:04:59.0000000+00:00</time></trkpt><trkpt lat="39.46232225" lon="-0.37429255"><ele>25.0</ele><time>2022-11-06T15:05:00.0000000+00:00</time></trkpt><trkpt lat="39.46234119" lon="-0.37430621"><ele>25.0</ele><time>2022-11-06T15:05:01.0000000+00:00</time></trkpt><trkpt lat="39.46236491" lon="-0.3743135"><ele>25.0</ele><time>2022-11-06T15:05:02.0000000+00:00</time></trkpt><trkpt lat="39.46238344" lon="-0.37432155"><ele>25.0</ele><time>2022-11-06T15:05:03.0000000+00:00</time></trkpt><trkpt lat="39.46239467" lon="-0.37432825"><ele>25.0</ele><time>2022-11-06T15:05:04.0000000+00:00</time></trkpt><trkpt lat="39.46241462" lon="-0.37432725"><ele>25.0</ele><time>2022-11-06T15:05:05.0000000+00:00</time></trkpt><trkpt lat="39.46243767" lon="-0.37431912"><ele>25.0</ele><time>2022-11-06T15:05:06.0000000+00:00</time></trkpt><trkpt lat="39.4624525" lon="-0.37432347"><ele>25.0</ele><time>2022-11-06T15:05:07.0000000+00:00</time></trkpt><trkpt lat="39.4624572" lon="-0.37432867"><ele>25.0</ele><time>2022-11-06T15:05:08.0000000+00:00</time></trkpt><trkpt lat="39.46246147" lon="-0.37433035"><ele>25.0</ele><time>2022-11-06T15:05:09.0000000+00:00</time></trkpt><trkpt lat="39.46246407" lon="-0.37434527"><ele>25.0</ele><time>2022-11-06T15:05:10.0000000+00:00</time></trkpt><trkpt lat="39.46247715" lon="-0.37435063"><ele>25.0</ele><time>2022-11-06T15:05:11.0000000+00:00</time></trkpt><trkpt lat="39.46248553" lon="-0.37436471"><ele>25.0</ele><time>2022-11-06T15:05:12.0000000+00:00</time></trkpt><trkpt lat="39.46249919" lon="-0.3743736"><ele>25.0</ele><time>2022-11-06T15:05:13.0000000+00:00</time></trkpt><trkpt lat="39.46249994" lon="-0.37437645"><ele>25.0</ele><time>2022-11-06T15:05:14.0000000+00:00</time></trkpt><trkpt lat="39.46251746" lon="-0.37437687"><ele>25.0</ele><time>2022-11-06T15:05:15.0000000+00:00</time></trkpt><trkpt lat="39.46251998" lon="-0.37438131"><ele>25.0</ele><time>2022-11-06T15:05:16.0000000+00:00</time></trkpt><trkpt lat="39.46251956" lon="-0.37438575"><ele>25.0</ele><time>2022-11-06T15:05:17.0000000+00:00</time></trkpt><trkpt lat="39.4625385" lon="-0.37437905"><ele>25.0</ele><time>2022-11-06T15:05:18.0000000+00:00</time></trkpt><trkpt lat="39.46255309" lon="-0.37437469"><ele>24.8</ele><time>2022-11-06T15:05:19.0000000+00:00</time></trkpt><trkpt lat="39.46256666" lon="-0.37437662"><ele>24.8</ele><time>2022-11-06T15:05:20.0000000+00:00</time></trkpt><trkpt lat="39.46256566" lon="-0.37437972"><ele>24.8</ele><time>2022-11-06T15:05:21.0000000+00:00</time></trkpt><trkpt lat="39.46257664" lon="-0.37437846"><ele>25.0</ele><time>2022-11-06T15:05:22.0000000+00:00</time></trkpt><trkpt lat="39.46258477" lon="-0.37437536"><ele>25.0</ele><time>2022-11-06T15:05:23.0000000+00:00</time></trkpt><trkpt lat="39.46258217" lon="-0.37437796"><ele>25.0</ele><time>2022-11-06T15:05:24.0000000+00:00</time></trkpt><trkpt lat="39.4625836" lon="-0.37436547"><ele>25.2</ele><time>2022-11-06T15:05:25.0000000+00:00</time></trkpt><trkpt lat="39.46258402" lon="-0.37436136"><ele>25.0</ele><time>2022-11-06T15:05:26.0000000+00:00</time></trkpt><trkpt lat="39.46258443" lon="-0.374357"><ele>25.0</ele><time>2022-11-06T15:05:27.0000000+00:00</time></trkpt><trkpt lat="39.46258066" lon="-0.37436019"><ele>25.0</ele><time>2022-11-06T15:05:28.0000000+00:00</time></trkpt><trkpt lat="39.46258511" lon="-0.37435021"><ele>25.0</ele><time>2022-11-06T15:05:29.0000000+00:00</time></trkpt><trkpt lat="39.46258603" lon="-0.37435331"><ele>25.0</ele><time>2022-11-06T15:05:30.0000000+00:00</time></trkpt><trkpt lat="39.46260296" lon="-0.37434879"><ele>25.0</ele><time>2022-11-06T15:05:31.0000000+00:00</time></trkpt><trkpt lat="39.46262551" lon="-0.37434552"><ele>24.8</ele><time>2022-11-06T15:05:32.0000000+00:00</time></trkpt><trkpt lat="39.46265794" lon="-0.37433957"><ele>24.8</ele><time>2022-11-06T15:05:33.0000000+00:00</time></trkpt><trkpt lat="39.46268041" lon="-0.37433429"><ele>24.8</ele><time>2022-11-06T15:05:34.0000000+00:00</time></trkpt><trkpt lat="39.46268602" lon="-0.37433504"><ele>24.8</ele><time>2022-11-06T15:05:35.0000000+00:00</time></trkpt><trkpt lat="39.4627022" lon="-0.37433412"><ele>24.8</ele><time>2022-11-06T15:05:36.0000000+00:00</time></trkpt><trkpt lat="39.46270681" lon="-0.3743311"><ele>24.8</ele><time>2022-11-06T15:05:37.0000000+00:00</time></trkpt><trkpt lat="39.46272248" lon="-0.37433052"><ele>24.8</ele><time>2022-11-06T15:05:38.0000000+00:00</time></trkpt><trkpt lat="39.46272617" lon="-0.37433504"><ele>24.8</ele><time>2022-11-06T15:05:39.0000000+00:00</time></trkpt><trkpt lat="39.46274042" lon="-0.37432079"><ele>24.8</ele><time>2022-11-06T15:05:40.0000000+00:00</time></trkpt><trkpt lat="39.46275341" lon="-0.37431995"><ele>24.8</ele><time>2022-11-06T15:05:41.0000000+00:00</time></trkpt><trkpt lat="39.46277722" lon="-0.37432239"><ele>24.8</ele><time>2022-11-06T15:05:42.0000000+00:00</time></trkpt><trkpt lat="39.46278141" lon="-0.37432658"><ele>24.8</ele><time>2022-11-06T15:05:43.0000000+00:00</time></trkpt><trkpt lat="39.4627949" lon="-0.37432658"><ele>24.8</ele><time>2022-11-06T15:05:44.0000000+00:00</time></trkpt><trkpt lat="39.46279943" lon="-0.37432968"><ele>24.8</ele><time>2022-11-06T15:05:45.0000000+00:00</time></trkpt><trkpt lat="39.46279876" lon="-0.37432951"><ele>24.8</ele><time>2022-11-06T15:05:46.0000000+00:00</time></trkpt><trkpt lat="39.46280597" lon="-0.37433102"><ele>24.8</ele><time>2022-11-06T15:05:47.0000000+00:00</time></trkpt><trkpt lat="39.46282173" lon="-0.37433647"><ele>24.8</ele><time>2022-11-06T15:05:48.0000000+00:00</time></trkpt><trkpt lat="39.4628426" lon="-0.37433622"><ele>24.8</ele><time>2022-11-06T15:05:49.0000000+00:00</time></trkpt><trkpt lat="39.46286925" lon="-0.37433747"><ele>24.6</ele><time>2022-11-06T15:05:50.0000000+00:00</time></trkpt><trkpt lat="39.46288157" lon="-0.37434351"><ele>24.6</ele><time>2022-11-06T15:05:51.0000000+00:00</time></trkpt><trkpt lat="39.46288719" lon="-0.37434753"><ele>24.6</ele><time>2022-11-06T15:05:52.0000000+00:00</time></trkpt><trkpt lat="39.46288442" lon="-0.37434074"><ele>24.6</ele><time>2022-11-06T15:05:53.0000000+00:00</time></trkpt><trkpt lat="39.46288652" lon="-0.37433546"><ele>24.6</ele><time>2022-11-06T15:05:54.0000000+00:00</time></trkpt><trkpt lat="39.46288576" lon="-0.37433161"><ele>24.6</ele><time>2022-11-06T15:05:55.0000000+00:00</time></trkpt><trkpt lat="39.46288149" lon="-0.37431778"><ele>24.6</ele><time>2022-11-06T15:05:56.0000000+00:00</time></trkpt><trkpt lat="39.46287537" lon="-0.37431333"><ele>24.8</ele><time>2022-11-06T15:05:57.0000000+00:00</time></trkpt><trkpt lat="39.4628783" lon="-0.37431417"><ele>24.8</ele><time>2022-11-06T15:05:58.0000000+00:00</time></trkpt><trkpt lat="39.46288476" lon="-0.37431761"><ele>24.8</ele><time>2022-11-06T15:05:59.0000000+00:00</time></trkpt><trkpt lat="39.46289733" lon="-0.37433337"><ele>24.8</ele><time>2022-11-06T15:06:00.0000000+00:00</time></trkpt><trkpt lat="39.46289951" lon="-0.37433186"><ele>24.8</ele><time>2022-11-06T15:06:01.0000000+00:00</time></trkpt><trkpt lat="39.46292424" lon="-0.37434317"><ele>24.8</ele><time>2022-11-06T15:06:02.0000000+00:00</time></trkpt><trkpt lat="39.46294134" lon="-0.37435206"><ele>24.8</ele><time>2022-11-06T15:06:03.0000000+00:00</time></trkpt><trkpt lat="39.46296296" lon="-0.37436429"><ele>24.8</ele><time>2022-11-06T15:06:04.0000000+00:00</time></trkpt><trkpt lat="39.46298836" lon="-0.37438349"><ele>24.8</ele><time>2022-11-06T15:06:05.0000000+00:00</time></trkpt><trkpt lat="39.46301795" lon="-0.37440461"><ele>24.8</ele><time>2022-11-06T15:06:06.0000000+00:00</time></trkpt><trkpt lat="39.46302356" lon="-0.37440855"><ele>24.8</ele><time>2022-11-06T15:06:07.0000000+00:00</time></trkpt><trkpt lat="39.46302138" lon="-0.37441668"><ele>24.8</ele><time>2022-11-06T15:06:08.0000000+00:00</time></trkpt><trkpt lat="39.46301627" lon="-0.37443001"><ele>24.8</ele><time>2022-11-06T15:06:09.0000000+00:00</time></trkpt><trkpt lat="39.46300965" lon="-0.3744342"><ele>24.8</ele><time>2022-11-06T15:06:10.0000000+00:00</time></trkpt><trkpt lat="39.46299381" lon="-0.37444652"><ele>24.8</ele><time>2022-11-06T15:06:11.0000000+00:00</time></trkpt><trkpt lat="39.46298199" lon="-0.37445599"><ele>24.8</ele><time>2022-11-06T15:06:12.0000000+00:00</time></trkpt><trkpt lat="39.46297922" lon="-0.3744565"><ele>24.8</ele><time>2022-11-06T15:06:13.0000000+00:00</time></trkpt><trkpt lat="39.46297847" lon="-0.37445775"><ele>25.0</ele><time>2022-11-06T15:06:14.0000000+00:00</time></trkpt><trkpt lat="39.46298693" lon="-0.37446865"><ele>25.0</ele><time>2022-11-06T15:06:15.0000000+00:00</time></trkpt><trkpt lat="39.46298987" lon="-0.37447209"><ele>25.0</ele><time>2022-11-06T15:06:16.0000000+00:00</time></trkpt><trkpt lat="39.46299339" lon="-0.37447594"><ele>25.0</ele><time>2022-11-06T15:06:17.0000000+00:00</time></trkpt><trkpt lat="39.46299481" lon="-0.37448005"><ele>25.2</ele><time>2022-11-06T15:06:18.0000000+00:00</time></trkpt><trkpt lat="39.46299641" lon="-0.37448323"><ele>25.2</ele><time>2022-11-06T15:06:19.0000000+00:00</time></trkpt><trkpt lat="39.46301635" lon="-0.37449421"><ele>25.0</ele><time>2022-11-06T15:06:20.0000000+00:00</time></trkpt><trkpt lat="39.46304435" lon="-0.37451483"><ele>25.0</ele><time>2022-11-06T15:06:21.0000000+00:00</time></trkpt><trkpt lat="39.46308425" lon="-0.37454358"><ele>25.0</ele><time>2022-11-06T15:06:22.0000000+00:00</time></trkpt><trkpt lat="39.46310663" lon="-0.37455884"><ele>25.0</ele><time>2022-11-06T15:06:23.0000000+00:00</time></trkpt><trkpt lat="39.46311794" lon="-0.37456865"><ele>25.0</ele><time>2022-11-06T15:06:24.0000000+00:00</time></trkpt><trkpt lat="39.46312146" lon="-0.37457158"><ele>25.0</ele><time>2022-11-06T15:06:25.0000000+00:00</time></trkpt><trkpt lat="39.46312339" lon="-0.37457183"><ele>25.0</ele><time>2022-11-06T15:06:26.0000000+00:00</time></trkpt><trkpt lat="39.4631254" lon="-0.37456831"><ele>25.0</ele><time>2022-11-06T15:06:27.0000000+00:00</time></trkpt><trkpt lat="39.46311995" lon="-0.37456638"><ele>25.0</ele><time>2022-11-06T15:06:28.0000000+00:00</time></trkpt><trkpt lat="39.46312691" lon="-0.37456974"><ele>25.0</ele><time>2022-11-06T15:06:29.0000000+00:00</time></trkpt><trkpt lat="39.46313219" lon="-0.3745787"><ele>25.0</ele><time>2022-11-06T15:06:30.0000000+00:00</time></trkpt><trkpt lat="39.46313127" lon="-0.37458465"><ele>25.0</ele><time>2022-11-06T15:06:31.0000000+00:00</time></trkpt><trkpt lat="39.46313018" lon="-0.37458968"><ele>25.0</ele><time>2022-11-06T15:06:32.0000000+00:00</time></trkpt><trkpt lat="39.4631285" lon="-0.37459228"><ele>24.8</ele><time>2022-11-06T15:06:33.0000000+00:00</time></trkpt><trkpt lat="39.46312926" lon="-0.37459362"><ele>24.8</ele><time>2022-11-06T15:06:34.0000000+00:00</time></trkpt><trkpt lat="39.46313219" lon="-0.3745989"><ele>24.8</ele><time>2022-11-06T15:06:35.0000000+00:00</time></trkpt><trkpt lat="39.46313596" lon="-0.37459111"><ele>24.8</ele><time>2022-11-06T15:06:36.0000000+00:00</time></trkpt><trkpt lat="39.4631337" lon="-0.37458843"><ele>24.8</ele><time>2022-11-06T15:06:37.0000000+00:00</time></trkpt><trkpt lat="39.46313337" lon="-0.37458943"><ele>24.8</ele><time>2022-11-06T15:06:38.0000000+00:00</time></trkpt><trkpt lat="39.46313169" lon="-0.37459178"><ele>24.8</ele><time>2022-11-06T15:06:39.0000000+00:00</time></trkpt><trkpt lat="39.46314359" lon="-0.37458365"><ele>24.8</ele><time>2022-11-06T15:06:40.0000000+00:00</time></trkpt><trkpt lat="39.46314175" lon="-0.37458147"><ele>24.8</ele><time>2022-11-06T15:06:41.0000000+00:00</time></trkpt><trkpt lat="39.46314233" lon="-0.37458088"><ele>24.8</ele><time>2022-11-06T15:06:42.0000000+00:00</time></trkpt><trkpt lat="39.46314342" lon="-0.37458264"><ele>24.8</ele><time>2022-11-06T15:06:43.0000000+00:00</time></trkpt><trkpt lat="39.46315038" lon="-0.37458725"><ele>24.8</ele><time>2022-11-06T15:06:44.0000000+00:00</time></trkpt><trkpt lat="39.46316002" lon="-0.37459966"><ele>24.8</ele><time>2022-11-06T15:06:45.0000000+00:00</time></trkpt><trkpt lat="39.46316212" lon="-0.37461206"><ele>24.8</ele><time>2022-11-06T15:06:46.0000000+00:00</time></trkpt><trkpt lat="39.46316874" lon="-0.37461433"><ele>24.8</ele><time>2022-11-06T15:06:47.0000000+00:00</time></trkpt><trkpt lat="39.46317251" lon="-0.37461969"><ele>24.8</ele><time>2022-11-06T15:06:48.0000000+00:00</time></trkpt><trkpt lat="39.46317268" lon="-0.37462195"><ele>24.8</ele><time>2022-11-06T15:06:49.0000000+00:00</time></trkpt><trkpt lat="39.46317636" lon="-0.37462279"><ele>24.8</ele><time>2022-11-06T15:06:50.0000000+00:00</time></trkpt><trkpt lat="39.46318114" lon="-0.37461818"><ele>24.8</ele><time>2022-11-06T15:06:51.0000000+00:00</time></trkpt><trkpt lat="39.46318332" lon="-0.37462371"><ele>24.8</ele><time>2022-11-06T15:06:52.0000000+00:00</time></trkpt><trkpt lat="39.463185" lon="-0.37462371"><ele>24.6</ele><time>2022-11-06T15:06:53.0000000+00:00</time></trkpt><trkpt lat="39.46318734" lon="-0.37462204"><ele>24.6</ele><time>2022-11-06T15:06:54.0000000+00:00</time></trkpt><trkpt lat="39.46319321" lon="-0.37462925"><ele>24.6</ele><time>2022-11-06T15:06:55.0000000+00:00</time></trkpt><trkpt lat="39.46319573" lon="-0.37464643"><ele>24.6</ele><time>2022-11-06T15:06:56.0000000+00:00</time></trkpt><trkpt lat="39.46320118" lon="-0.37466093"><ele>24.6</ele><time>2022-11-06T15:06:57.0000000+00:00</time></trkpt><trkpt lat="39.46321081" lon="-0.37466621"><ele>24.6</ele><time>2022-11-06T15:06:58.0000000+00:00</time></trkpt><trkpt lat="39.4632192" lon="-0.37466805"><ele>24.6</ele><time>2022-11-06T15:06:59.0000000+00:00</time></trkpt><trkpt lat="39.4632264" lon="-0.37467753"><ele>24.6</ele><time>2022-11-06T15:07:00.0000000+00:00</time></trkpt><trkpt lat="39.46322875" lon="-0.37469144"><ele>24.6</ele><time>2022-11-06T15:07:01.0000000+00:00</time></trkpt><trkpt lat="39.46323487" lon="-0.3747072"><ele>24.6</ele><time>2022-11-06T15:07:02.0000000+00:00</time></trkpt><trkpt lat="39.46323923" lon="-0.37471005"><ele>24.6</ele><time>2022-11-06T15:07:03.0000000+00:00</time></trkpt><trkpt lat="39.46324635" lon="-0.3747129"><ele>24.6</ele><time>2022-11-06T15:07:04.0000000+00:00</time></trkpt><trkpt lat="39.4632487" lon="-0.37471315"><ele>24.6</ele><time>2022-11-06T15:07:05.0000000+00:00</time></trkpt><trkpt lat="39.4632513" lon="-0.37472304"><ele>24.6</ele><time>2022-11-06T15:07:06.0000000+00:00</time></trkpt><trkpt lat="39.4632544" lon="-0.37473134"><ele>24.6</ele><time>2022-11-06T15:07:07.0000000+00:00</time></trkpt><trkpt lat="39.46325624" lon="-0.37473125"><ele>24.6</ele><time>2022-11-06T15:07:08.0000000+00:00</time></trkpt><trkpt lat="39.46326446" lon="-0.37473301"><ele>24.8</ele><time>2022-11-06T15:07:09.0000000+00:00</time></trkpt><trkpt lat="39.46327569" lon="-0.37476109"><ele>24.8</ele><time>2022-11-06T15:07:10.0000000+00:00</time></trkpt><trkpt lat="39.46328751" lon="-0.37479051"><ele>24.8</ele><time>2022-11-06T15:07:11.0000000+00:00</time></trkpt><trkpt lat="39.46330335" lon="-0.37481968"><ele>24.8</ele><time>2022-11-06T15:07:12.0000000+00:00</time></trkpt><trkpt lat="39.46331257" lon="-0.37483301"><ele>24.8</ele><time>2022-11-06T15:07:13.0000000+00:00</time></trkpt><trkpt lat="39.46332271" lon="-0.37484525"><ele>24.8</ele><time>2022-11-06T15:07:14.0000000+00:00</time></trkpt><trkpt lat="39.46332389" lon="-0.37484106"><ele>24.8</ele><time>2022-11-06T15:07:15.0000000+00:00</time></trkpt><trkpt lat="39.46331869" lon="-0.3748476"><ele>24.8</ele><time>2022-11-06T15:07:16.0000000+00:00</time></trkpt><trkpt lat="39.46331877" lon="-0.3748476"><ele>24.6</ele><time>2022-11-06T15:07:17.0000000+00:00</time></trkpt><trkpt lat="39.46332431" lon="-0.37484734"><ele>24.6</ele><time>2022-11-06T15:07:18.0000000+00:00</time></trkpt><trkpt lat="39.46334434" lon="-0.3748486"><ele>24.6</ele><time>2022-11-06T15:07:19.0000000+00:00</time></trkpt><trkpt lat="39.46335423" lon="-0.37484248"><ele>24.6</ele><time>2022-11-06T15:07:20.0000000+00:00</time></trkpt><trkpt lat="39.46336454" lon="-0.37482999"><ele>24.6</ele><time>2022-11-06T15:07:21.0000000+00:00</time></trkpt><trkpt lat="39.4633658" lon="-0.37481298"><ele>24.6</ele><time>2022-11-06T15:07:22.0000000+00:00</time></trkpt><trkpt lat="39.46337476" lon="-0.37480946"><ele>24.6</ele><time>2022-11-06T15:07:23.0000000+00:00</time></trkpt><trkpt lat="39.46337359" lon="-0.3748087"><ele>24.6</ele><time>2022-11-06T15:07:24.0000000+00:00</time></trkpt><trkpt lat="39.4634134" lon="-0.37482957"><ele>24.6</ele><time>2022-11-06T15:07:25.0000000+00:00</time></trkpt><trkpt lat="39.46341299" lon="-0.37483066"><ele>24.6</ele><time>2022-11-06T15:07:26.0000000+00:00</time></trkpt><trkpt lat="39.46345439" lon="-0.37484894"><ele>24.6</ele><time>2022-11-06T15:07:27.0000000+00:00</time></trkpt><trkpt lat="39.46349043" lon="-0.37485816"><ele>24.6</ele><time>2022-11-06T15:07:28.0000000+00:00</time></trkpt><trkpt lat="39.46351357" lon="-0.37486503"><ele>24.6</ele><time>2022-11-06T15:07:29.0000000+00:00</time></trkpt><trkpt lat="39.46352882" lon="-0.37486847"><ele>24.6</ele><time>2022-11-06T15:07:30.0000000+00:00</time></trkpt><trkpt lat="39.46354911" lon="-0.37487534"><ele>24.6</ele><time>2022-11-06T15:07:31.0000000+00:00</time></trkpt><trkpt lat="39.46355883" lon="-0.37487509"><ele>24.6</ele><time>2022-11-06T15:07:32.0000000+00:00</time></trkpt><trkpt lat="39.46356637" lon="-0.37487685"><ele>24.6</ele><time>2022-11-06T15:07:33.0000000+00:00</time></trkpt><trkpt lat="39.46357392" lon="-0.37488322"><ele>24.4</ele><time>2022-11-06T15:07:34.0000000+00:00</time></trkpt><trkpt lat="39.46358155" lon="-0.37489043"><ele>24.4</ele><time>2022-11-06T15:07:35.0000000+00:00</time></trkpt><trkpt lat="39.46358431" lon="-0.37489579"><ele>24.4</ele><time>2022-11-06T15:07:36.0000000+00:00</time></trkpt><trkpt lat="39.46358632" lon="-0.37489085"><ele>24.4</ele><time>2022-11-06T15:07:37.0000000+00:00</time></trkpt><trkpt lat="39.46358398" lon="-0.37487852"><ele>24.4</ele><time>2022-11-06T15:07:38.0000000+00:00</time></trkpt><trkpt lat="39.46359068" lon="-0.37487199"><ele>24.4</ele><time>2022-11-06T15:07:39.0000000+00:00</time></trkpt><trkpt lat="39.46360795" lon="-0.37487953"><ele>24.4</ele><time>2022-11-06T15:07:40.0000000+00:00</time></trkpt><trkpt lat="39.46363963" lon="-0.3749061"><ele>24.4</ele><time>2022-11-06T15:07:41.0000000+00:00</time></trkpt><trkpt lat="39.46366771" lon="-0.37492446"><ele>24.4</ele><time>2022-11-06T15:07:42.0000000+00:00</time></trkpt><trkpt lat="39.46367182" lon="-0.37492798"><ele>24.4</ele><time>2022-11-06T15:07:43.0000000+00:00</time></trkpt><trkpt lat="39.46367341" lon="-0.37492865"><ele>24.4</ele><time>2022-11-06T15:07:44.0000000+00:00</time></trkpt><trkpt lat="39.46367752" lon="-0.37493611"><ele>24.6</ele><time>2022-11-06T15:07:45.0000000+00:00</time></trkpt><trkpt lat="39.4636838" lon="-0.37493946"><ele>24.6</ele><time>2022-11-06T15:07:46.0000000+00:00</time></trkpt><trkpt lat="39.46369059" lon="-0.37494357"><ele>24.6</ele><time>2022-11-06T15:07:47.0000000+00:00</time></trkpt><trkpt lat="39.46369462" lon="-0.37494793"><ele>24.4</ele><time>2022-11-06T15:07:48.0000000+00:00</time></trkpt><trkpt lat="39.46370191" lon="-0.37495539"><ele>24.4</ele><time>2022-11-06T15:07:49.0000000+00:00</time></trkpt><trkpt lat="39.4637061" lon="-0.37496251"><ele>24.4</ele><time>2022-11-06T15:07:50.0000000+00:00</time></trkpt><trkpt lat="39.46370987" lon="-0.37496586"><ele>24.4</ele><time>2022-11-06T15:07:51.0000000+00:00</time></trkpt><trkpt lat="39.46371004" lon="-0.3749714"><ele>24.4</ele><time>2022-11-06T15:07:52.0000000+00:00</time></trkpt><trkpt lat="39.46372043" lon="-0.37498036"><ele>24.4</ele><time>2022-11-06T15:07:53.0000000+00:00</time></trkpt><trkpt lat="39.46372831" lon="-0.37498682"><ele>24.4</ele><time>2022-11-06T15:07:54.0000000+00:00</time></trkpt><trkpt lat="39.46372991" lon="-0.37498833"><ele>24.4</ele><time>2022-11-06T15:07:55.0000000+00:00</time></trkpt><trkpt lat="39.46374541" lon="-0.37499989"><ele>24.4</ele><time>2022-11-06T15:07:56.0000000+00:00</time></trkpt><trkpt lat="39.46376679" lon="-0.37501398"><ele>24.4</ele><time>2022-11-06T15:07:57.0000000+00:00</time></trkpt><trkpt lat="39.46378414" lon="-0.37502244"><ele>24.4</ele><time>2022-11-06T15:07:58.0000000+00:00</time></trkpt><trkpt lat="39.46380006" lon="-0.37503032"><ele>24.4</ele><time>2022-11-06T15:07:59.0000000+00:00</time></trkpt><trkpt lat="39.46381741" lon="-0.37504566"><ele>24.4</ele><time>2022-11-06T15:08:00.0000000+00:00</time></trkpt><trkpt lat="39.46384348" lon="-0.37506066"><ele>24.4</ele><time>2022-11-06T15:08:01.0000000+00:00</time></trkpt><trkpt lat="39.46386276" lon="-0.37506385"><ele>24.4</ele><time>2022-11-06T15:08:02.0000000+00:00</time></trkpt><trkpt lat="39.46387676" lon="-0.3750791"><ele>24.4</ele><time>2022-11-06T15:08:03.0000000+00:00</time></trkpt><trkpt lat="39.46388874" lon="-0.37508933"><ele>24.4</ele><time>2022-11-06T15:08:04.0000000+00:00</time></trkpt><trkpt lat="39.46389662" lon="-0.37510467"><ele>24.4</ele><time>2022-11-06T15:08:05.0000000+00:00</time></trkpt><trkpt lat="39.46390006" lon="-0.37511171"><ele>24.4</ele><time>2022-11-06T15:08:06.0000000+00:00</time></trkpt><trkpt lat="39.46390911" lon="-0.37512026"><ele>24.4</ele><time>2022-11-06T15:08:07.0000000+00:00</time></trkpt><trkpt lat="39.46391489" lon="-0.3751242"><ele>24.6</ele><time>2022-11-06T15:08:08.0000000+00:00</time></trkpt><trkpt lat="39.46391565" lon="-0.37512872"><ele>24.6</ele><time>2022-11-06T15:08:09.0000000+00:00</time></trkpt><trkpt lat="39.46393317" lon="-0.3751366"><ele>24.6</ele><time>2022-11-06T15:08:10.0000000+00:00</time></trkpt><trkpt lat="39.46394758" lon="-0.37514046"><ele>24.6</ele><time>2022-11-06T15:08:11.0000000+00:00</time></trkpt><trkpt lat="39.46394817" lon="-0.37515035"><ele>24.4</ele><time>2022-11-06T15:08:12.0000000+00:00</time></trkpt><trkpt lat="39.46394297" lon="-0.37517298"><ele>24.4</ele><time>2022-11-06T15:08:13.0000000+00:00</time></trkpt><trkpt lat="39.46394356" lon="-0.37517617"><ele>24.6</ele><time>2022-11-06T15:08:14.0000000+00:00</time></trkpt><trkpt lat="39.46393769" lon="-0.37518505"><ele>24.6</ele><time>2022-11-06T15:08:15.0000000+00:00</time></trkpt><trkpt lat="39.46393074" lon="-0.37519536"><ele>24.6</ele><time>2022-11-06T15:08:16.0000000+00:00</time></trkpt><trkpt lat="39.46392663" lon="-0.3751972"><ele>24.6</ele><time>2022-11-06T15:08:17.0000000+00:00</time></trkpt><trkpt lat="39.4639304" lon="-0.37519394"><ele>24.6</ele><time>2022-11-06T15:08:18.0000000+00:00</time></trkpt><trkpt lat="39.4639361" lon="-0.37520064"><ele>24.6</ele><time>2022-11-06T15:08:19.0000000+00:00</time></trkpt><trkpt lat="39.46394482" lon="-0.37520844"><ele>24.6</ele><time>2022-11-06T15:08:20.0000000+00:00</time></trkpt><trkpt lat="39.46395236" lon="-0.37521958"><ele>24.6</ele><time>2022-11-06T15:08:21.0000000+00:00</time></trkpt><trkpt lat="39.46395513" lon="-0.37522679"><ele>24.6</ele><time>2022-11-06T15:08:22.0000000+00:00</time></trkpt><trkpt lat="39.46395781" lon="-0.37523015"><ele>24.6</ele><time>2022-11-06T15:08:23.0000000+00:00</time></trkpt><trkpt lat="39.46396736" lon="-0.37523844"><ele>24.6</ele><time>2022-11-06T15:08:24.0000000+00:00</time></trkpt><trkpt lat="39.46397558" lon="-0.37524481"><ele>24.6</ele><time>2022-11-06T15:08:25.0000000+00:00</time></trkpt><trkpt lat="39.4639822" lon="-0.37524766"><ele>24.6</ele><time>2022-11-06T15:08:26.0000000+00:00</time></trkpt><trkpt lat="39.46398824" lon="-0.37525512"><ele>24.6</ele><time>2022-11-06T15:08:27.0000000+00:00</time></trkpt><trkpt lat="39.46398798" lon="-0.3752687"><ele>24.6</ele><time>2022-11-06T15:08:28.0000000+00:00</time></trkpt><trkpt lat="39.4639884" lon="-0.37527331"><ele>24.6</ele><time>2022-11-06T15:08:29.0000000+00:00</time></trkpt><trkpt lat="39.4639884" lon="-0.37527884"><ele>24.6</ele><time>2022-11-06T15:08:30.0000000+00:00</time></trkpt><trkpt lat="39.46399042" lon="-0.37528278"><ele>24.6</ele><time>2022-11-06T15:08:31.0000000+00:00</time></trkpt><trkpt lat="39.46398907" lon="-0.37528622"><ele>24.6</ele><time>2022-11-06T15:08:32.0000000+00:00</time></trkpt><trkpt lat="39.46399645" lon="-0.37528605"><ele>24.6</ele><time>2022-11-06T15:08:33.0000000+00:00</time></trkpt><trkpt lat="39.46399787" lon="-0.37528966"><ele>24.4</ele><time>2022-11-06T15:08:34.0000000+00:00</time></trkpt><trkpt lat="39.46400542" lon="-0.37529435"><ele>24.4</ele><time>2022-11-06T15:08:35.0000000+00:00</time></trkpt><trkpt lat="39.46400969" lon="-0.37531145"><ele>24.4</ele><time>2022-11-06T15:08:36.0000000+00:00</time></trkpt><trkpt lat="39.46401246" lon="-0.37531572"><ele>24.4</ele><time>2022-11-06T15:08:37.0000000+00:00</time></trkpt><trkpt lat="39.46402025" lon="-0.37531832"><ele>24.4</ele><time>2022-11-06T15:08:38.0000000+00:00</time></trkpt><trkpt lat="39.46402788" lon="-0.37532595"><ele>24.4</ele><time>2022-11-06T15:08:39.0000000+00:00</time></trkpt><trkpt lat="39.4640283" lon="-0.37533039"><ele>24.2</ele><time>2022-11-06T15:08:40.0000000+00:00</time></trkpt><trkpt lat="39.46403123" lon="-0.37534003"><ele>24.2</ele><time>2022-11-06T15:08:41.0000000+00:00</time></trkpt><trkpt lat="39.46402931" lon="-0.37534263"><ele>24.2</ele><time>2022-11-06T15:08:42.0000000+00:00</time></trkpt><trkpt lat="39.46403082" lon="-0.37534397"><ele>24.2</ele><time>2022-11-06T15:08:43.0000000+00:00</time></trkpt><trkpt lat="39.4640309" lon="-0.37534481"><ele>24.2</ele><time>2022-11-06T15:08:44.0000000+00:00</time></trkpt><trkpt lat="39.46402629" lon="-0.37534607"><ele>24.4</ele><time>2022-11-06T15:08:45.0000000+00:00</time></trkpt><trkpt lat="39.46403015" lon="-0.37533693"><ele>24.2</ele><time>2022-11-06T15:08:46.0000000+00:00</time></trkpt><trkpt lat="39.46402662" lon="-0.37533877"><ele>24.4</ele><time>2022-11-06T15:08:47.0000000+00:00</time></trkpt><trkpt lat="39.46403635" lon="-0.37533836"><ele>24.4</ele><time>2022-11-06T15:08:48.0000000+00:00</time></trkpt><trkpt lat="39.46404071" lon="-0.37533777"><ele>24.4</ele><time>2022-11-06T15:08:49.0000000+00:00</time></trkpt><trkpt lat="39.46404859" lon="-0.37534313"><ele>24.4</ele><time>2022-11-06T15:08:50.0000000+00:00</time></trkpt><trkpt lat="39.46405688" lon="-0.37534104"><ele>24.4</ele><time>2022-11-06T15:08:51.0000000+00:00</time></trkpt><trkpt lat="39.46405873" lon="-0.37534372"><ele>24.4</ele><time>2022-11-06T15:08:52.0000000+00:00</time></trkpt><trkpt lat="39.46405957" lon="-0.37534037"><ele>24.4</ele><time>2022-11-06T15:08:53.0000000+00:00</time></trkpt><trkpt lat="39.46405646" lon="-0.37534246"><ele>24.4</ele><time>2022-11-06T15:08:54.0000000+00:00</time></trkpt><trkpt lat="39.46405445" lon="-0.37534632"><ele>24.4</ele><time>2022-11-06T15:08:55.0000000+00:00</time></trkpt><trkpt lat="39.46405546" lon="-0.37534716"><ele>24.4</ele><time>2022-11-06T15:08:56.0000000+00:00</time></trkpt><trkpt lat="39.46405621" lon="-0.3753485"><ele>24.4</ele><time>2022-11-06T15:08:57.0000000+00:00</time></trkpt><trkpt lat="39.46405739" lon="-0.37534749"><ele>24.4</ele><time>2022-11-06T15:08:58.0000000+00:00</time></trkpt><trkpt lat="39.4640573" lon="-0.37534422"><ele>24.4</ele><time>2022-11-06T15:08:59.0000000+00:00</time></trkpt><trkpt lat="39.46405848" lon="-0.3753381"><ele>24.4</ele><time>2022-11-06T15:09:00.0000000+00:00</time></trkpt><trkpt lat="39.46406091" lon="-0.37533014"><ele>24.6</ele><time>2022-11-06T15:09:01.0000000+00:00</time></trkpt><trkpt lat="39.4640656" lon="-0.37532662"><ele>24.6</ele><time>2022-11-06T15:09:02.0000000+00:00</time></trkpt><trkpt lat="39.46407574" lon="-0.37532469"><ele>24.6</ele><time>2022-11-06T15:09:03.0000000+00:00</time></trkpt><trkpt lat="39.46408421" lon="-0.37532033"><ele>24.6</ele><time>2022-11-06T15:09:04.0000000+00:00</time></trkpt><trkpt lat="39.46409091" lon="-0.37529921"><ele>24.8</ele><time>2022-11-06T15:09:05.0000000+00:00</time></trkpt><trkpt lat="39.4640946" lon="-0.37528429"><ele>24.8</ele><time>2022-11-06T15:09:06.0000000+00:00</time></trkpt><trkpt lat="39.46410617" lon="-0.37527356"><ele>24.8</ele><time>2022-11-06T15:09:07.0000000+00:00</time></trkpt><trkpt lat="39.46412201" lon="-0.37526803"><ele>24.8</ele><time>2022-11-06T15:09:08.0000000+00:00</time></trkpt><trkpt lat="39.46414414" lon="-0.37528094"><ele>24.8</ele><time>2022-11-06T15:09:09.0000000+00:00</time></trkpt><trkpt lat="39.46416032" lon="-0.37529108"><ele>24.8</ele><time>2022-11-06T15:09:10.0000000+00:00</time></trkpt><trkpt lat="39.46418102" lon="-0.37529578"><ele>24.8</ele><time>2022-11-06T15:09:11.0000000+00:00</time></trkpt><trkpt lat="39.46420164" lon="-0.37530449"><ele>24.8</ele><time>2022-11-06T15:09:12.0000000+00:00</time></trkpt><trkpt lat="39.46422435" lon="-0.37531145"><ele>24.8</ele><time>2022-11-06T15:09:13.0000000+00:00</time></trkpt><trkpt lat="39.46423827" lon="-0.37531732"><ele>24.8</ele><time>2022-11-06T15:09:14.0000000+00:00</time></trkpt><trkpt lat="39.46425067" lon="-0.37532109"><ele>24.8</ele><time>2022-11-06T15:09:15.0000000+00:00</time></trkpt><trkpt lat="39.46425051" lon="-0.37532318"><ele>24.8</ele><time>2022-11-06T15:09:16.0000000+00:00</time></trkpt><trkpt lat="39.4642645" lon="-0.37533165"><ele>24.8</ele><time>2022-11-06T15:09:17.0000000+00:00</time></trkpt><trkpt lat="39.46427984" lon="-0.37534137"><ele>24.8</ele><time>2022-11-06T15:09:18.0000000+00:00</time></trkpt><trkpt lat="39.46428303" lon="-0.37534749"><ele>24.8</ele><time>2022-11-06T15:09:19.0000000+00:00</time></trkpt><trkpt lat="39.46428864" lon="-0.37535629"><ele>24.8</ele><time>2022-11-06T15:09:20.0000000+00:00</time></trkpt><trkpt lat="39.4642935" lon="-0.3753656"><ele>24.8</ele><time>2022-11-06T15:09:21.0000000+00:00</time></trkpt><trkpt lat="39.46430398" lon="-0.37537842"><ele>24.8</ele><time>2022-11-06T15:09:22.0000000+00:00</time></trkpt><trkpt lat="39.46432452" lon="-0.375392"><ele>25.0</ele><time>2022-11-06T15:09:23.0000000+00:00</time></trkpt><trkpt lat="39.46433927" lon="-0.37540248"><ele>25.0</ele><time>2022-11-06T15:09:24.0000000+00:00</time></trkpt><trkpt lat="39.46435821" lon="-0.37541488"><ele>25.0</ele><time>2022-11-06T15:09:25.0000000+00:00</time></trkpt><trkpt lat="39.46437808" lon="-0.37542268"><ele>25.0</ele><time>2022-11-06T15:09:26.0000000+00:00</time></trkpt><trkpt lat="39.46440306" lon="-0.37542695"><ele>25.0</ele><time>2022-11-06T15:09:27.0000000+00:00</time></trkpt><trkpt lat="39.46443357" lon="-0.37543718"><ele>25.0</ele><time>2022-11-06T15:09:28.0000000+00:00</time></trkpt><trkpt lat="39.46446617" lon="-0.37544657"><ele>24.8</ele><time>2022-11-06T15:09:29.0000000+00:00</time></trkpt><trkpt lat="39.4644961" lon="-0.37546149"><ele>24.8</ele><time>2022-11-06T15:09:30.0000000+00:00</time></trkpt><trkpt lat="39.46451261" lon="-0.37547163"><ele>24.6</ele><time>2022-11-06T15:09:31.0000000+00:00</time></trkpt><trkpt lat="39.46455728" lon="-0.37549987"><ele>24.6</ele><time>2022-11-06T15:09:32.0000000+00:00</time></trkpt><trkpt lat="39.46458327" lon="-0.37551857"><ele>24.6</ele><time>2022-11-06T15:09:33.0000000+00:00</time></trkpt><trkpt lat="39.46460858" lon="-0.37553734"><ele>24.6</ele><time>2022-11-06T15:09:34.0000000+00:00</time></trkpt><trkpt lat="39.46462375" lon="-0.37555075"><ele>24.6</ele><time>2022-11-06T15:09:35.0000000+00:00</time></trkpt><trkpt lat="39.46465242" lon="-0.37558101"><ele>24.8</ele><time>2022-11-06T15:09:36.0000000+00:00</time></trkpt><trkpt lat="39.46467706" lon="-0.37561546"><ele>24.8</ele><time>2022-11-06T15:09:37.0000000+00:00</time></trkpt><trkpt lat="39.46467212" lon="-0.37564513"><ele>24.8</ele><time>2022-11-06T15:09:38.0000000+00:00</time></trkpt><trkpt lat="39.46465309" lon="-0.37566634"><ele>24.8</ele><time>2022-11-06T15:09:39.0000000+00:00</time></trkpt><trkpt lat="39.4646385" lon="-0.37570372"><ele>24.8</ele><time>2022-11-06T15:09:40.0000000+00:00</time></trkpt><trkpt lat="39.46463557" lon="-0.37574639"><ele>24.8</ele><time>2022-11-06T15:09:41.0000000+00:00</time></trkpt><trkpt lat="39.46465476" lon="-0.3757743"><ele>24.8</ele><time>2022-11-06T15:09:42.0000000+00:00</time></trkpt><trkpt lat="39.46465761" lon="-0.37578687"><ele>24.6</ele><time>2022-11-06T15:09:43.0000000+00:00</time></trkpt><trkpt lat="39.46463976" lon="-0.37579056"><ele>24.8</ele><time>2022-11-06T15:09:44.0000000+00:00</time></trkpt><trkpt lat="39.46461336" lon="-0.37578578"><ele>24.8</ele><time>2022-11-06T15:09:45.0000000+00:00</time></trkpt><trkpt lat="39.4645862" lon="-0.37578419"><ele>24.8</ele><time>2022-11-06T15:09:46.0000000+00:00</time></trkpt><trkpt lat="39.46457069" lon="-0.37577832"><ele>24.8</ele><time>2022-11-06T15:09:47.0000000+00:00</time></trkpt><trkpt lat="39.4645624" lon="-0.37577053"><ele>24.8</ele><time>2022-11-06T15:09:48.0000000+00:00</time></trkpt><trkpt lat="39.46456818" lon="-0.37577556"><ele>24.8</ele><time>2022-11-06T15:09:49.0000000+00:00</time></trkpt><trkpt lat="39.46456147" lon="-0.3757857"><ele>24.8</ele><time>2022-11-06T15:09:50.0000000+00:00</time></trkpt><trkpt lat="39.46454194" lon="-0.3757914"><ele>24.8</ele><time>2022-11-06T15:09:51.0000000+00:00</time></trkpt><trkpt lat="39.46452719" lon="-0.37579902"><ele>24.8</ele><time>2022-11-06T15:09:52.0000000+00:00</time></trkpt><trkpt lat="39.46451839" lon="-0.3758064"><ele>24.8</ele><time>2022-11-06T15:09:53.0000000+00:00</time></trkpt><trkpt lat="39.46451194" lon="-0.37581277"><ele>24.8</ele><time>2022-11-06T15:09:54.0000000+00:00</time></trkpt><trkpt lat="39.46450297" lon="-0.3758183"><ele>24.8</ele><time>2022-11-06T15:09:55.0000000+00:00</time></trkpt><trkpt lat="39.46449308" lon="-0.37582032"><ele>24.8</ele><time>2022-11-06T15:09:56.0000000+00:00</time></trkpt><trkpt lat="39.4644826" lon="-0.37582518"><ele>24.8</ele><time>2022-11-06T15:09:57.0000000+00:00</time></trkpt><trkpt lat="39.46447506" lon="-0.37582937"><ele>24.8</ele><time>2022-11-06T15:09:58.0000000+00:00</time></trkpt><trkpt lat="39.46446248" lon="-0.37582291"><ele>24.8</ele><time>2022-11-06T15:09:59.0000000+00:00</time></trkpt><trkpt lat="39.46445419" lon="-0.37582912"><ele>24.8</ele><time>2022-11-06T15:10:00.0000000+00:00</time></trkpt><trkpt lat="39.4644329" lon="-0.37583331"><ele>24.8</ele><time>2022-11-06T15:10:01.0000000+00:00</time></trkpt><trkpt lat="39.46440515" lon="-0.37583448"><ele>24.8</ele><time>2022-11-06T15:10:02.0000000+00:00</time></trkpt><trkpt lat="39.46437456" lon="-0.37584236"><ele>24.8</ele><time>2022-11-06T15:10:03.0000000+00:00</time></trkpt><trkpt lat="39.46433189" lon="-0.37584001"><ele>24.8</ele><time>2022-11-06T15:10:04.0000000+00:00</time></trkpt><trkpt lat="39.46428881" lon="-0.37582685"><ele>24.8</ele><time>2022-11-06T15:10:05.0000000+00:00</time></trkpt><trkpt lat="39.46425696" lon="-0.37582694"><ele>24.8</ele><time>2022-11-06T15:10:06.0000000+00:00</time></trkpt><trkpt lat="39.46425051" lon="-0.37584513"><ele>24.8</ele><time>2022-11-06T15:10:07.0000000+00:00</time></trkpt><trkpt lat="39.46426006" lon="-0.37586533"><ele>24.8</ele><time>2022-11-06T15:10:08.0000000+00:00</time></trkpt><trkpt lat="39.46426291" lon="-0.37588276"><ele>24.8</ele><time>2022-11-06T15:10:09.0000000+00:00</time></trkpt><trkpt lat="39.46425989" lon="-0.37589131"><ele>24.8</ele><time>2022-11-06T15:10:10.0000000+00:00</time></trkpt><trkpt lat="39.46425528" lon="-0.37589818"><ele>24.8</ele><time>2022-11-06T15:10:11.0000000+00:00</time></trkpt><trkpt lat="39.46425067" lon="-0.37590765"><ele>24.8</ele><time>2022-11-06T15:10:12.0000000+00:00</time></trkpt><trkpt lat="39.46424598" lon="-0.37591964"><ele>24.8</ele><time>2022-11-06T15:10:13.0000000+00:00</time></trkpt><trkpt lat="39.46424455" lon="-0.37593246"><ele>24.8</ele><time>2022-11-06T15:10:14.0000000+00:00</time></trkpt><trkpt lat="39.46424506" lon="-0.37594571"><ele>24.8</ele><time>2022-11-06T15:10:15.0000000+00:00</time></trkpt><trkpt lat="39.46424472" lon="-0.37595912"><ele>24.8</ele><time>2022-11-06T15:10:16.0000000+00:00</time></trkpt><trkpt lat="39.46423927" lon="-0.37597043"><ele>24.8</ele><time>2022-11-06T15:10:17.0000000+00:00</time></trkpt><trkpt lat="39.46424623" lon="-0.37598007"><ele>24.8</ele><time>2022-11-06T15:10:18.0000000+00:00</time></trkpt><trkpt lat="39.46424875" lon="-0.3759929"><ele>24.8</ele><time>2022-11-06T15:10:19.0000000+00:00</time></trkpt><trkpt lat="39.46425034" lon="-0.37600556"><ele>25.0</ele><time>2022-11-06T15:10:20.0000000+00:00</time></trkpt><trkpt lat="39.46425327" lon="-0.37602123"><ele>25.0</ele><time>2022-11-06T15:10:21.0000000+00:00</time></trkpt><trkpt lat="39.46425411" lon="-0.37604009"><ele>25.0</ele><time>2022-11-06T15:10:22.0000000+00:00</time></trkpt><trkpt lat="39.46425872" lon="-0.37605643"><ele>25.0</ele><time>2022-11-06T15:10:23.0000000+00:00</time></trkpt><trkpt lat="39.46425478" lon="-0.37607043"><ele>25.0</ele><time>2022-11-06T15:10:24.0000000+00:00</time></trkpt><trkpt lat="39.46427364" lon="-0.37608359"><ele>24.8</ele><time>2022-11-06T15:10:25.0000000+00:00</time></trkpt><trkpt lat="39.46426408" lon="-0.37609692"><ele>24.8</ele><time>2022-11-06T15:10:26.0000000+00:00</time></trkpt><trkpt lat="39.46426886" lon="-0.37611025"><ele>24.8</ele><time>2022-11-06T15:10:27.0000000+00:00</time></trkpt><trkpt lat="39.4642847" lon="-0.37613967"><ele>24.8</ele><time>2022-11-06T15:10:28.0000000+00:00</time></trkpt><trkpt lat="39.46428571" lon="-0.37615098"><ele>25.0</ele><time>2022-11-06T15:10:29.0000000+00:00</time></trkpt><trkpt lat="39.46427909" lon="-0.37616196"><ele>25.0</ele><time>2022-11-06T15:10:30.0000000+00:00</time></trkpt><trkpt lat="39.46425528" lon="-0.37617495"><ele>25.0</ele><time>2022-11-06T15:10:31.0000000+00:00</time></trkpt><trkpt lat="39.46423793" lon="-0.37618585"><ele>25.0</ele><time>2022-11-06T15:10:32.0000000+00:00</time></trkpt><trkpt lat="39.46423701" lon="-0.37619046"><ele>25.0</ele><time>2022-11-06T15:10:33.0000000+00:00</time></trkpt><trkpt lat="39.46424556" lon="-0.37620069"><ele>25.0</ele><time>2022-11-06T15:10:34.0000000+00:00</time></trkpt><trkpt lat="39.46426878" lon="-0.37621879"><ele>25.0</ele><time>2022-11-06T15:10:35.0000000+00:00</time></trkpt><trkpt lat="39.46432209" lon="-0.37624813"><ele>25.0</ele><time>2022-11-06T15:10:36.0000000+00:00</time></trkpt><trkpt lat="39.46436358" lon="-0.37627679"><ele>25.0</ele><time>2022-11-06T15:10:37.0000000+00:00</time></trkpt><trkpt lat="39.46438721" lon="-0.3762985"><ele>25.0</ele><time>2022-11-06T15:10:38.0000000+00:00</time></trkpt><trkpt lat="39.46440565" lon="-0.37631284"><ele>25.0</ele><time>2022-11-06T15:10:39.0000000+00:00</time></trkpt><trkpt lat="39.46441412" lon="-0.37632147"><ele>25.0</ele><time>2022-11-06T15:10:40.0000000+00:00</time></trkpt><trkpt lat="39.46442988" lon="-0.37632935"><ele>25.2</ele><time>2022-11-06T15:10:41.0000000+00:00</time></trkpt><trkpt lat="39.46444153" lon="-0.37633949"><ele>25.0</ele><time>2022-11-06T15:10:42.0000000+00:00</time></trkpt><trkpt lat="39.46443759" lon="-0.37634603"><ele>25.0</ele><time>2022-11-06T15:10:43.0000000+00:00</time></trkpt><trkpt lat="39.46440121" lon="-0.37635265"><ele>25.0</ele><time>2022-11-06T15:10:44.0000000+00:00</time></trkpt><trkpt lat="39.46437523" lon="-0.37635525"><ele>25.0</ele><time>2022-11-06T15:10:45.0000000+00:00</time></trkpt><trkpt lat="39.46434908" lon="-0.37636262"><ele>25.0</ele><time>2022-11-06T15:10:46.0000000+00:00</time></trkpt><trkpt lat="39.46433106" lon="-0.37636623"><ele>25.0</ele><time>2022-11-06T15:10:47.0000000+00:00</time></trkpt><trkpt lat="39.46432309" lon="-0.37637268"><ele>25.0</ele><time>2022-11-06T15:10:48.0000000+00:00</time></trkpt><trkpt lat="39.46430775" lon="-0.37638106"><ele>25.0</ele><time>2022-11-06T15:10:49.0000000+00:00</time></trkpt><trkpt lat="39.46430641" lon="-0.37638777"><ele>25.2</ele><time>2022-11-06T15:10:50.0000000+00:00</time></trkpt><trkpt lat="39.46429627" lon="-0.37639473"><ele>25.0</ele><time>2022-11-06T15:10:51.0000000+00:00</time></trkpt><trkpt lat="39.46427959" lon="-0.3763985"><ele>25.2</ele><time>2022-11-06T15:10:52.0000000+00:00</time></trkpt><trkpt lat="39.46424908" lon="-0.37640126"><ele>25.2</ele><time>2022-11-06T15:10:53.0000000+00:00</time></trkpt><trkpt lat="39.46421807" lon="-0.37640722"><ele>25.2</ele><time>2022-11-06T15:10:54.0000000+00:00</time></trkpt><trkpt lat="39.46418814" lon="-0.37640965"><ele>25.2</ele><time>2022-11-06T15:10:55.0000000+00:00</time></trkpt><trkpt lat="39.46418705" lon="-0.37641342"><ele>25.2</ele><time>2022-11-06T15:10:56.0000000+00:00</time></trkpt><trkpt lat="39.46417775" lon="-0.37641292"><ele>25.2</ele><time>2022-11-06T15:10:57.0000000+00:00</time></trkpt><trkpt lat="39.46416124" lon="-0.37641451"><ele>25.2</ele><time>2022-11-06T15:10:58.0000000+00:00</time></trkpt><trkpt lat="39.46413961" lon="-0.37641593"><ele>25.2</ele><time>2022-11-06T15:10:59.0000000+00:00</time></trkpt><trkpt lat="39.46413769" lon="-0.37641627"><ele>25.2</ele><time>2022-11-06T15:11:00.0000000+00:00</time></trkpt><trkpt lat="39.46411514" lon="-0.37641535"><ele>25.2</ele><time>2022-11-06T15:11:01.0000000+00:00</time></trkpt><trkpt lat="39.46409561" lon="-0.37641526"><ele>25.2</ele><time>2022-11-06T15:11:02.0000000+00:00</time></trkpt><trkpt lat="39.46408153" lon="-0.37641987"><ele>25.4</ele><time>2022-11-06T15:11:03.0000000+00:00</time></trkpt><trkpt lat="39.46406879" lon="-0.37642666"><ele>25.4</ele><time>2022-11-06T15:11:04.0000000+00:00</time></trkpt><trkpt lat="39.46405856" lon="-0.3764353"><ele>25.4</ele><time>2022-11-06T15:11:05.0000000+00:00</time></trkpt><trkpt lat="39.46404884" lon="-0.376442"><ele>25.4</ele><time>2022-11-06T15:11:06.0000000+00:00</time></trkpt><trkpt lat="39.46403903" lon="-0.37644871"><ele>25.4</ele><time>2022-11-06T15:11:07.0000000+00:00</time></trkpt><trkpt lat="39.46402545" lon="-0.37645265"><ele>25.4</ele><time>2022-11-06T15:11:08.0000000+00:00</time></trkpt><trkpt lat="39.46400466" lon="-0.37646011"><ele>25.4</ele><time>2022-11-06T15:11:09.0000000+00:00</time></trkpt><trkpt lat="39.46398681" lon="-0.37647033"><ele>25.4</ele><time>2022-11-06T15:11:10.0000000+00:00</time></trkpt><trkpt lat="39.46397013" lon="-0.37647192"><ele>25.4</ele><time>2022-11-06T15:11:11.0000000+00:00</time></trkpt><trkpt lat="39.46393535" lon="-0.37648274"><ele>25.4</ele><time>2022-11-06T15:11:12.0000000+00:00</time></trkpt><trkpt lat="39.46392286" lon="-0.37649288"><ele>25.2</ele><time>2022-11-06T15:11:13.0000000+00:00</time></trkpt><trkpt lat="39.4638983" lon="-0.37650562"><ele>25.2</ele><time>2022-11-06T15:11:14.0000000+00:00</time></trkpt><trkpt lat="39.46386536" lon="-0.37650922"><ele>25.2</ele><time>2022-11-06T15:11:15.0000000+00:00</time></trkpt><trkpt lat="39.46383569" lon="-0.37651668"><ele>25.2</ele><time>2022-11-06T15:11:16.0000000+00:00</time></trkpt><trkpt lat="39.46381766" lon="-0.37653789"><ele>25.2</ele><time>2022-11-06T15:11:17.0000000+00:00</time></trkpt><trkpt lat="39.46379621" lon="-0.37655273"><ele>25.2</ele><time>2022-11-06T15:11:18.0000000+00:00</time></trkpt><trkpt lat="39.4637631" lon="-0.37656656"><ele>25.2</ele><time>2022-11-06T15:11:19.0000000+00:00</time></trkpt><trkpt lat="39.46374608" lon="-0.37656714"><ele>25.2</ele><time>2022-11-06T15:11:20.0000000+00:00</time></trkpt><trkpt lat="39.463732" lon="-0.37655859"><ele>25.2</ele><time>2022-11-06T15:11:21.0000000+00:00</time></trkpt><trkpt lat="39.46371012" lon="-0.37653688"><ele>25.2</ele><time>2022-11-06T15:11:22.0000000+00:00</time></trkpt><trkpt lat="39.46368707" lon="-0.37650948"><ele>25.2</ele><time>2022-11-06T15:11:23.0000000+00:00</time></trkpt><trkpt lat="39.46368339" lon="-0.37650327"><ele>25.2</ele><time>2022-11-06T15:11:24.0000000+00:00</time></trkpt><trkpt lat="39.46367609" lon="-0.37650847"><ele>25.2</ele><time>2022-11-06T15:11:25.0000000+00:00</time></trkpt><trkpt lat="39.46366721" lon="-0.37651727"><ele>25.2</ele><time>2022-11-06T15:11:26.0000000+00:00</time></trkpt><trkpt lat="39.46367358" lon="-0.37653739"><ele>25.2</ele><time>2022-11-06T15:11:27.0000000+00:00</time></trkpt><trkpt lat="39.46367232" lon="-0.37654233"><ele>25.2</ele><time>2022-11-06T15:11:28.0000000+00:00</time></trkpt><trkpt lat="39.46366428" lon="-0.37652934"><ele>25.2</ele><time>2022-11-06T15:11:29.0000000+00:00</time></trkpt><trkpt lat="39.46365388" lon="-0.37651367"><ele>25.2</ele><time>2022-11-06T15:11:30.0000000+00:00</time></trkpt><trkpt lat="39.46364692" lon="-0.37650428"><ele>25.2</ele><time>2022-11-06T15:11:31.0000000+00:00</time></trkpt><trkpt lat="39.46364801" lon="-0.37650051"><ele>25.2</ele><time>2022-11-06T15:11:32.0000000+00:00</time></trkpt><trkpt lat="39.46364231" lon="-0.37650302"><ele>25.2</ele><time>2022-11-06T15:11:33.0000000+00:00</time></trkpt><trkpt lat="39.46365003" lon="-0.37650696"><ele>25.2</ele><time>2022-11-06T15:11:34.0000000+00:00</time></trkpt><trkpt lat="39.46366645" lon="-0.37652649"><ele>25.2</ele><time>2022-11-06T15:11:35.0000000+00:00</time></trkpt><trkpt lat="39.46367911" lon="-0.37654568"><ele>25.2</ele><time>2022-11-06T15:11:36.0000000+00:00</time></trkpt><trkpt lat="39.46369043" lon="-0.37657594"><ele>25.2</ele><time>2022-11-06T15:11:37.0000000+00:00</time></trkpt><trkpt lat="39.46369386" lon="-0.37659598"><ele>25.4</ele><time>2022-11-06T15:11:38.0000000+00:00</time></trkpt><trkpt lat="39.46371549" lon="-0.37660888"><ele>25.4</ele><time>2022-11-06T15:11:39.0000000+00:00</time></trkpt><trkpt lat="39.46373963" lon="-0.3766254"><ele>25.4</ele><time>2022-11-06T15:11:40.0000000+00:00</time></trkpt><trkpt lat="39.46374424" lon="-0.37663948"><ele>25.4</ele><time>2022-11-06T15:11:41.0000000+00:00</time></trkpt><trkpt lat="39.46374868" lon="-0.37665406"><ele>25.4</ele><time>2022-11-06T15:11:42.0000000+00:00</time></trkpt><trkpt lat="39.46375304" lon="-0.37667208"><ele>25.6</ele><time>2022-11-06T15:11:43.0000000+00:00</time></trkpt><trkpt lat="39.46376779" lon="-0.37667133"><ele>25.6</ele><time>2022-11-06T15:11:44.0000000+00:00</time></trkpt><trkpt lat="39.46378715" lon="-0.37667309"><ele>25.6</ele><time>2022-11-06T15:11:45.0000000+00:00</time></trkpt><trkpt lat="39.46380476" lon="-0.37667753"><ele>25.6</ele><time>2022-11-06T15:11:46.0000000+00:00</time></trkpt><trkpt lat="39.46382018" lon="-0.37667837"><ele>25.6</ele><time>2022-11-06T15:11:47.0000000+00:00</time></trkpt><trkpt lat="39.46383594" lon="-0.37669564"><ele>25.6</ele><time>2022-11-06T15:11:48.0000000+00:00</time></trkpt><trkpt lat="39.46385371" lon="-0.37672975"><ele>25.6</ele><time>2022-11-06T15:11:49.0000000+00:00</time></trkpt><trkpt lat="39.46387399" lon="-0.37676638"><ele>25.6</ele><time>2022-11-06T15:11:50.0000000+00:00</time></trkpt><trkpt lat="39.4638807" lon="-0.37677954"><ele>25.6</ele><time>2022-11-06T15:11:51.0000000+00:00</time></trkpt><trkpt lat="39.46389746" lon="-0.3767818"><ele>25.6</ele><time>2022-11-06T15:11:52.0000000+00:00</time></trkpt><trkpt lat="39.46391649" lon="-0.37680988"><ele>25.6</ele><time>2022-11-06T15:11:53.0000000+00:00</time></trkpt><trkpt lat="39.46392948" lon="-0.37683687"><ele>25.6</ele><time>2022-11-06T15:11:54.0000000+00:00</time></trkpt><trkpt lat="39.46393392" lon="-0.37686344"><ele>25.6</ele><time>2022-11-06T15:11:55.0000000+00:00</time></trkpt><trkpt lat="39.46392529" lon="-0.37688591"><ele>25.6</ele><time>2022-11-06T15:11:56.0000000+00:00</time></trkpt><trkpt lat="39.46392705" lon="-0.37688976"><ele>25.6</ele><time>2022-11-06T15:11:57.0000000+00:00</time></trkpt><trkpt lat="39.46393685" lon="-0.37688901"><ele>25.6</ele><time>2022-11-06T15:11:58.0000000+00:00</time></trkpt><trkpt lat="39.46394892" lon="-0.37689471"><ele>25.6</ele><time>2022-11-06T15:11:59.0000000+00:00</time></trkpt><trkpt lat="39.46394691" lon="-0.37690183"><ele>25.6</ele><time>2022-11-06T15:12:00.0000000+00:00</time></trkpt><trkpt lat="39.46395655" lon="-0.37691893"><ele>25.6</ele><time>2022-11-06T15:12:01.0000000+00:00</time></trkpt><trkpt lat="39.46396954" lon="-0.37693486"><ele>25.6</ele><time>2022-11-06T15:12:02.0000000+00:00</time></trkpt><trkpt lat="39.46396577" lon="-0.37693142"><ele>25.6</ele><time>2022-11-06T15:12:03.0000000+00:00</time></trkpt><trkpt lat="39.46395001" lon="-0.37692631"><ele>25.6</ele><time>2022-11-06T15:12:04.0000000+00:00</time></trkpt><trkpt lat="39.46396896" lon="-0.37694919"><ele>25.6</ele><time>2022-11-06T15:12:05.0000000+00:00</time></trkpt><trkpt lat="39.46397156" lon="-0.37695967"><ele>25.6</ele><time>2022-11-06T15:12:06.0000000+00:00</time></trkpt><trkpt lat="39.4639641" lon="-0.37696662"><ele>25.6</ele><time>2022-11-06T15:12:07.0000000+00:00</time></trkpt><trkpt lat="39.46397617" lon="-0.37697643"><ele>25.8</ele><time>2022-11-06T15:12:08.0000000+00:00</time></trkpt><trkpt lat="39.4639822" lon="-0.37699722"><ele>25.8</ele><time>2022-11-06T15:12:09.0000000+00:00</time></trkpt><trkpt lat="39.463976" lon="-0.37700376"><ele>25.8</ele><time>2022-11-06T15:12:10.0000000+00:00</time></trkpt><trkpt lat="39.46397667" lon="-0.37700518"><ele>25.8</ele><time>2022-11-06T15:12:11.0000000+00:00</time></trkpt><trkpt lat="39.46396745" lon="-0.37701516"><ele>25.8</ele><time>2022-11-06T15:12:12.0000000+00:00</time></trkpt><trkpt lat="39.46398757" lon="-0.37704114"><ele>25.8</ele><time>2022-11-06T15:12:13.0000000+00:00</time></trkpt><trkpt lat="39.46399595" lon="-0.37706494"><ele>25.8</ele><time>2022-11-06T15:12:14.0000000+00:00</time></trkpt><trkpt lat="39.46400601" lon="-0.37708548"><ele>25.8</ele><time>2022-11-06T15:12:15.0000000+00:00</time></trkpt><trkpt lat="39.46401984" lon="-0.37709395"><ele>25.8</ele><time>2022-11-06T15:12:16.0000000+00:00</time></trkpt><trkpt lat="39.46403325" lon="-0.37709721"><ele>25.8</ele><time>2022-11-06T15:12:17.0000000+00:00</time></trkpt><trkpt lat="39.46405487" lon="-0.37712412"><ele>25.8</ele><time>2022-11-06T15:12:18.0000000+00:00</time></trkpt><trkpt lat="39.46404146" lon="-0.37713334"><ele>25.8</ele><time>2022-11-06T15:12:19.0000000+00:00</time></trkpt><trkpt lat="39.46402939" lon="-0.37714927"><ele>25.8</ele><time>2022-11-06T15:12:20.0000000+00:00</time></trkpt><trkpt lat="39.46402134" lon="-0.37716276"><ele>25.8</ele><time>2022-11-06T15:12:21.0000000+00:00</time></trkpt><trkpt lat="39.46402344" lon="-0.37716385"><ele>25.8</ele><time>2022-11-06T15:12:22.0000000+00:00</time></trkpt><trkpt lat="39.464019" lon="-0.37718598"><ele>26.0</ele><time>2022-11-06T15:12:23.0000000+00:00</time></trkpt><trkpt lat="39.46397399" lon="-0.37718648"><ele>26.0</ele><time>2022-11-06T15:12:24.0000000+00:00</time></trkpt><trkpt lat="39.46391313" lon="-0.37717483"><ele>26.0</ele><time>2022-11-06T15:12:25.0000000+00:00</time></trkpt><trkpt lat="39.46389478" lon="-0.37715756"><ele>26.0</ele><time>2022-11-06T15:12:26.0000000+00:00</time></trkpt><trkpt lat="39.46385345" lon="-0.37713468"><ele>25.8</ele><time>2022-11-06T15:12:27.0000000+00:00</time></trkpt><trkpt lat="39.46381766" lon="-0.37712647"><ele>25.8</ele><time>2022-11-06T15:12:28.0000000+00:00</time></trkpt><trkpt lat="39.463803" lon="-0.37713133"><ele>25.8</ele><time>2022-11-06T15:12:29.0000000+00:00</time></trkpt><trkpt lat="39.46380367" lon="-0.37715488"><ele>25.8</ele><time>2022-11-06T15:12:30.0000000+00:00</time></trkpt><trkpt lat="39.46378782" lon="-0.37716636"><ele>25.8</ele><time>2022-11-06T15:12:31.0000000+00:00</time></trkpt><trkpt lat="39.46379269" lon="-0.37717232"><ele>25.8</ele><time>2022-11-06T15:12:32.0000000+00:00</time></trkpt><trkpt lat="39.46377534" lon="-0.37716963"><ele>25.8</ele><time>2022-11-06T15:12:33.0000000+00:00</time></trkpt><trkpt lat="39.46378087" lon="-0.37717575"><ele>25.8</ele><time>2022-11-06T15:12:34.0000000+00:00</time></trkpt><trkpt lat="39.4637988" lon="-0.37719629"><ele>25.8</ele><time>2022-11-06T15:12:35.0000000+00:00</time></trkpt><trkpt lat="39.46382278" lon="-0.37721624"><ele>25.6</ele><time>2022-11-06T15:12:36.0000000+00:00</time></trkpt><trkpt lat="39.46383786" lon="-0.37722923"><ele>25.6</ele><time>2022-11-06T15:12:37.0000000+00:00</time></trkpt><trkpt lat="39.46386033" lon="-0.377248"><ele>25.6</ele><time>2022-11-06T15:12:38.0000000+00:00</time></trkpt><trkpt lat="39.46387835" lon="-0.37726401"><ele>25.6</ele><time>2022-11-06T15:12:39.0000000+00:00</time></trkpt><trkpt lat="39.46387181" lon="-0.37726644"><ele>25.6</ele><time>2022-11-06T15:12:40.0000000+00:00</time></trkpt><trkpt lat="39.46388271" lon="-0.37726971"><ele>25.6</ele><time>2022-11-06T15:12:41.0000000+00:00</time></trkpt><trkpt lat="39.46388866" lon="-0.37727407"><ele>25.6</ele><time>2022-11-06T15:12:42.0000000+00:00</time></trkpt><trkpt lat="39.46390056" lon="-0.3772698"><ele>25.6</ele><time>2022-11-06T15:12:43.0000000+00:00</time></trkpt><trkpt lat="39.46391665" lon="-0.37727743"><ele>25.6</ele><time>2022-11-06T15:12:44.0000000+00:00</time></trkpt><trkpt lat="39.46392571" lon="-0.37729193"><ele>25.6</ele><time>2022-11-06T15:12:45.0000000+00:00</time></trkpt><trkpt lat="39.46393375" lon="-0.37730333"><ele>25.6</ele><time>2022-11-06T15:12:46.0000000+00:00</time></trkpt><trkpt lat="39.46393887" lon="-0.37732285"><ele>25.6</ele><time>2022-11-06T15:12:47.0000000+00:00</time></trkpt><trkpt lat="39.46394499" lon="-0.37733669"><ele>25.8</ele><time>2022-11-06T15:12:48.0000000+00:00</time></trkpt><trkpt lat="39.46393702" lon="-0.37735093"><ele>25.8</ele><time>2022-11-06T15:12:49.0000000+00:00</time></trkpt><trkpt lat="39.46389981" lon="-0.37736292"><ele>25.8</ele><time>2022-11-06T15:12:50.0000000+00:00</time></trkpt><trkpt lat="39.4638729" lon="-0.37737734"><ele>25.8</ele><time>2022-11-06T15:12:51.0000000+00:00</time></trkpt><trkpt lat="39.46383258" lon="-0.37739435"><ele>25.8</ele><time>2022-11-06T15:12:52.0000000+00:00</time></trkpt><trkpt lat="39.46379973" lon="-0.37741497"><ele>25.8</ele><time>2022-11-06T15:12:53.0000000+00:00</time></trkpt><trkpt lat="39.46377081" lon="-0.37743274"><ele>25.8</ele><time>2022-11-06T15:12:54.0000000+00:00</time></trkpt><trkpt lat="39.46375924" lon="-0.37743475"><ele>25.8</ele><time>2022-11-06T15:12:55.0000000+00:00</time></trkpt><trkpt lat="39.46374717" lon="-0.37743811"><ele>25.8</ele><time>2022-11-06T15:12:56.0000000+00:00</time></trkpt><trkpt lat="39.4637258" lon="-0.37744012"><ele>25.8</ele><time>2022-11-06T15:12:57.0000000+00:00</time></trkpt><trkpt lat="39.46373795" lon="-0.37744272"><ele>25.8</ele><time>2022-11-06T15:12:58.0000000+00:00</time></trkpt><trkpt lat="39.46376176" lon="-0.37745856"><ele>26.0</ele><time>2022-11-06T15:12:59.0000000+00:00</time></trkpt><trkpt lat="39.46377391" lon="-0.37747742"><ele>26.0</ele><time>2022-11-06T15:13:00.0000000+00:00</time></trkpt><trkpt lat="39.46378204" lon="-0.37749318"><ele>26.0</ele><time>2022-11-06T15:13:01.0000000+00:00</time></trkpt><trkpt lat="39.46379227" lon="-0.37750617"><ele>26.0</ele><time>2022-11-06T15:13:02.0000000+00:00</time></trkpt><trkpt lat="39.4637978" lon="-0.37753098"><ele>26.0</ele><time>2022-11-06T15:13:03.0000000+00:00</time></trkpt><trkpt lat="39.4638035" lon="-0.37755176"><ele>26.0</ele><time>2022-11-06T15:13:04.0000000+00:00</time></trkpt><trkpt lat="39.46380585" lon="-0.37757414"><ele>26.2</ele><time>2022-11-06T15:13:05.0000000+00:00</time></trkpt><trkpt lat="39.46382563" lon="-0.3775858"><ele>26.2</ele><time>2022-11-06T15:13:06.0000000+00:00</time></trkpt><trkpt lat="39.4638118" lon="-0.37760499"><ele>26.2</ele><time>2022-11-06T15:13:07.0000000+00:00</time></trkpt><trkpt lat="39.46383166" lon="-0.37761253"><ele>26.2</ele><time>2022-11-06T15:13:08.0000000+00:00</time></trkpt><trkpt lat="39.46385924" lon="-0.37761153"><ele>26.2</ele><time>2022-11-06T15:13:09.0000000+00:00</time></trkpt><trkpt lat="39.46386376" lon="-0.37760834"><ele>26.2</ele><time>2022-11-06T15:13:10.0000000+00:00</time></trkpt><trkpt lat="39.46386083" lon="-0.37762167"><ele>26.2</ele><time>2022-11-06T15:13:11.0000000+00:00</time></trkpt><trkpt lat="39.46387248" lon="-0.37763097"><ele>26.2</ele><time>2022-11-06T15:13:12.0000000+00:00</time></trkpt><trkpt lat="39.46387416" lon="-0.37764179"><ele>26.0</ele><time>2022-11-06T15:13:13.0000000+00:00</time></trkpt><trkpt lat="39.46387324" lon="-0.37764581"><ele>26.0</ele><time>2022-11-06T15:13:14.0000000+00:00</time></trkpt><trkpt lat="39.46386393" lon="-0.37765922"><ele>26.0</ele><time>2022-11-06T15:13:15.0000000+00:00</time></trkpt><trkpt lat="39.4638672" lon="-0.37766995"><ele>26.2</ele><time>2022-11-06T15:13:16.0000000+00:00</time></trkpt><trkpt lat="39.46386997" lon="-0.37769057"><ele>26.0</ele><time>2022-11-06T15:13:17.0000000+00:00</time></trkpt><trkpt lat="39.46385488" lon="-0.37770021"><ele>26.0</ele><time>2022-11-06T15:13:18.0000000+00:00</time></trkpt><trkpt lat="39.463833" lon="-0.37770985"><ele>26.0</ele><time>2022-11-06T15:13:19.0000000+00:00</time></trkpt><trkpt lat="39.46365598" lon="-0.37770046"><ele>25.8</ele><time>2022-11-06T15:13:20.0000000+00:00</time></trkpt><trkpt lat="39.46356436" lon="-0.37770256"><ele>25.8</ele><time>2022-11-06T15:13:21.0000000+00:00</time></trkpt><trkpt lat="39.46345498" lon="-0.37769996"><ele>25.6</ele><time>2022-11-06T15:13:22.0000000+00:00</time></trkpt><trkpt lat="39.4634497" lon="-0.37770381"><ele>25.4</ele><time>2022-11-06T15:13:23.0000000+00:00</time></trkpt><trkpt lat="39.46343637" lon="-0.37770683"><ele>25.2</ele><time>2022-11-06T15:13:24.0000000+00:00</time></trkpt><trkpt lat="39.46343771" lon="-0.37770842"><ele>25.0</ele><time>2022-11-06T15:13:25.0000000+00:00</time></trkpt><trkpt lat="39.46340812" lon="-0.37770004"><ele>24.8</ele><time>2022-11-06T15:13:26.0000000+00:00</time></trkpt><trkpt lat="39.46339949" lon="-0.37769359"><ele>24.4</ele><time>2022-11-06T15:13:27.0000000+00:00</time></trkpt><trkpt lat="39.46339228" lon="-0.37768738"><ele>24.2</ele><time>2022-11-06T15:13:28.0000000+00:00</time></trkpt><trkpt lat="39.46338449" lon="-0.37768034"><ele>23.8</ele><time>2022-11-06T15:13:29.0000000+00:00</time></trkpt><trkpt lat="39.46337728" lon="-0.37767355"><ele>23.6</ele><time>2022-11-06T15:13:30.0000000+00:00</time></trkpt><trkpt lat="39.46310487" lon="-0.37921289"><ele>25.6</ele><time>2022-11-06T15:15:46.0000000+00:00</time></trkpt><trkpt lat="39.46296942" lon="-0.37920032"><ele>25.6</ele><time>2022-11-06T15:15:47.0000000+00:00</time></trkpt><trkpt lat="39.46296782" lon="-0.37897216"><ele>25.8</ele><time>2022-11-06T15:15:48.0000000+00:00</time></trkpt><trkpt lat="39.46301191" lon="-0.37903578"><ele>26.0</ele><time>2022-11-06T15:15:49.0000000+00:00</time></trkpt><trkpt lat="39.46303421" lon="-0.37901885"><ele>26.2</ele><time>2022-11-06T15:15:50.0000000+00:00</time></trkpt><trkpt lat="39.46304142" lon="-0.37904274"><ele>26.2</ele><time>2022-11-06T15:15:51.0000000+00:00</time></trkpt><trkpt lat="39.46302876" lon="-0.37904341"><ele>26.2</ele><time>2022-11-06T15:15:52.0000000+00:00</time></trkpt><trkpt lat="39.46301216" lon="-0.37904324"><ele>26.2</ele><time>2022-11-06T15:15:53.0000000+00:00</time></trkpt><trkpt lat="39.463013" lon="-0.37906746"><ele>26.2</ele><time>2022-11-06T15:15:54.0000000+00:00</time></trkpt><trkpt lat="39.46302021" lon="-0.37908859"><ele>26.2</ele><time>2022-11-06T15:15:55.0000000+00:00</time></trkpt><trkpt lat="39.46302733" lon="-0.37910376"><ele>26.2</ele><time>2022-11-06T15:15:56.0000000+00:00</time></trkpt><trkpt lat="39.46302398" lon="-0.3791113"><ele>26.2</ele><time>2022-11-06T15:15:57.0000000+00:00</time></trkpt><trkpt lat="39.46302909" lon="-0.37912563"><ele>26.2</ele><time>2022-11-06T15:15:58.0000000+00:00</time></trkpt><trkpt lat="39.46303966" lon="-0.37913142"><ele>26.2</ele><time>2022-11-06T15:15:59.0000000+00:00</time></trkpt><trkpt lat="39.46304577" lon="-0.37914181"><ele>26.2</ele><time>2022-11-06T15:16:00.0000000+00:00</time></trkpt><trkpt lat="39.46304619" lon="-0.3791512"><ele>26.2</ele><time>2022-11-06T15:16:01.0000000+00:00</time></trkpt><trkpt lat="39.46304678" lon="-0.37916285"><ele>26.2</ele><time>2022-11-06T15:16:02.0000000+00:00</time></trkpt><trkpt lat="39.4630451" lon="-0.37917609"><ele>26.2</ele><time>2022-11-06T15:16:03.0000000+00:00</time></trkpt><trkpt lat="39.46304142" lon="-0.37919085"><ele>26.4</ele><time>2022-11-06T15:16:04.0000000+00:00</time></trkpt><trkpt lat="39.46303488" lon="-0.37919713"><ele>26.4</ele><time>2022-11-06T15:16:05.0000000+00:00</time></trkpt><trkpt lat="39.46302868" lon="-0.37919981"><ele>26.4</ele><time>2022-11-06T15:16:06.0000000+00:00</time></trkpt><trkpt lat="39.46302356" lon="-0.37920199"><ele>26.4</ele><time>2022-11-06T15:16:07.0000000+00:00</time></trkpt><trkpt lat="39.46302138" lon="-0.37921029"><ele>26.4</ele><time>2022-11-06T15:16:08.0000000+00:00</time></trkpt><trkpt lat="39.46300839" lon="-0.37922949"><ele>26.4</ele><time>2022-11-06T15:16:09.0000000+00:00</time></trkpt><trkpt lat="39.46300663" lon="-0.37924181"><ele>26.4</ele><time>2022-11-06T15:16:10.0000000+00:00</time></trkpt><trkpt lat="39.46301032" lon="-0.3792527"><ele>26.6</ele><time>2022-11-06T15:16:11.0000000+00:00</time></trkpt><trkpt lat="39.46301091" lon="-0.37926285"><ele>26.6</ele><time>2022-11-06T15:16:12.0000000+00:00</time></trkpt><trkpt lat="39.46301376" lon="-0.37927114"><ele>26.6</ele><time>2022-11-06T15:16:13.0000000+00:00</time></trkpt><trkpt lat="39.46301451" lon="-0.3792843"><ele>26.8</ele><time>2022-11-06T15:16:14.0000000+00:00</time></trkpt><trkpt lat="39.46301585" lon="-0.37929537"><ele>26.8</ele><time>2022-11-06T15:16:15.0000000+00:00</time></trkpt><trkpt lat="39.46301468" lon="-0.37930777"><ele>26.8</ele><time>2022-11-06T15:16:16.0000000+00:00</time></trkpt><trkpt lat="39.46301669" lon="-0.37931926"><ele>26.6</ele><time>2022-11-06T15:16:17.0000000+00:00</time></trkpt><trkpt lat="39.46301074" lon="-0.37932093"><ele>26.6</ele><time>2022-11-06T15:16:18.0000000+00:00</time></trkpt><trkpt lat="39.46300521" lon="-0.37932009"><ele>26.6</ele><time>2022-11-06T15:16:19.0000000+00:00</time></trkpt><trkpt lat="39.46299565" lon="-0.37932839"><ele>26.6</ele><time>2022-11-06T15:16:20.0000000+00:00</time></trkpt><trkpt lat="39.46298375" lon="-0.37933099"><ele>26.6</ele><time>2022-11-06T15:16:21.0000000+00:00</time></trkpt><trkpt lat="39.46297512" lon="-0.3793377"><ele>26.6</ele><time>2022-11-06T15:16:22.0000000+00:00</time></trkpt><trkpt lat="39.46297335" lon="-0.37934574"><ele>26.6</ele><time>2022-11-06T15:16:23.0000000+00:00</time></trkpt><trkpt lat="39.46296816" lon="-0.37936192"><ele>26.6</ele><time>2022-11-06T15:16:24.0000000+00:00</time></trkpt><trkpt lat="39.46295827" lon="-0.37936133"><ele>26.6</ele><time>2022-11-06T15:16:25.0000000+00:00</time></trkpt><trkpt lat="39.46294963" lon="-0.37936175"><ele>26.6</ele><time>2022-11-06T15:16:26.0000000+00:00</time></trkpt><trkpt lat="39.46294419" lon="-0.37936024"><ele>26.6</ele><time>2022-11-06T15:16:27.0000000+00:00</time></trkpt><trkpt lat="39.46293572" lon="-0.37935035"><ele>26.4</ele><time>2022-11-06T15:16:28.0000000+00:00</time></trkpt><trkpt lat="39.46293136" lon="-0.37934918"><ele>26.4</ele><time>2022-11-06T15:16:29.0000000+00:00</time></trkpt><trkpt lat="39.46292885" lon="-0.37934306"><ele>26.4</ele><time>2022-11-06T15:16:30.0000000+00:00</time></trkpt><trkpt lat="39.46292407" lon="-0.3793408"><ele>26.4</ele><time>2022-11-06T15:16:31.0000000+00:00</time></trkpt><trkpt lat="39.46292072" lon="-0.37935086"><ele>26.4</ele><time>2022-11-06T15:16:32.0000000+00:00</time></trkpt><trkpt lat="39.46291334" lon="-0.37935522"><ele>26.4</ele><time>2022-11-06T15:16:33.0000000+00:00</time></trkpt><trkpt lat="39.46290379" lon="-0.37937081"><ele>26.2</ele><time>2022-11-06T15:16:34.0000000+00:00</time></trkpt><trkpt lat="39.46289733" lon="-0.37937433"><ele>26.2</ele><time>2022-11-06T15:16:35.0000000+00:00</time></trkpt><trkpt lat="39.46289029" lon="-0.37937257"><ele>26.2</ele><time>2022-11-06T15:16:36.0000000+00:00</time></trkpt><trkpt lat="39.46288828" lon="-0.37938556"><ele>26.2</ele><time>2022-11-06T15:16:37.0000000+00:00</time></trkpt><trkpt lat="39.46287906" lon="-0.37939528"><ele>26.2</ele><time>2022-11-06T15:16:38.0000000+00:00</time></trkpt><trkpt lat="39.46287059" lon="-0.37941221"><ele>26.2</ele><time>2022-11-06T15:16:39.0000000+00:00</time></trkpt><trkpt lat="39.46285492" lon="-0.37942143"><ele>26.2</ele><time>2022-11-06T15:16:40.0000000+00:00</time></trkpt><trkpt lat="39.46283698" lon="-0.37945027"><ele>26.2</ele><time>2022-11-06T15:16:41.0000000+00:00</time></trkpt><trkpt lat="39.4628224" lon="-0.37947441"><ele>26.2</ele><time>2022-11-06T15:16:42.0000000+00:00</time></trkpt><trkpt lat="39.46280404" lon="-0.37948036"><ele>26.2</ele><time>2022-11-06T15:16:43.0000000+00:00</time></trkpt><trkpt lat="39.46279096" lon="-0.37948002"><ele>26.2</ele><time>2022-11-06T15:16:44.0000000+00:00</time></trkpt><trkpt lat="39.46277512" lon="-0.37948656"><ele>26.2</ele><time>2022-11-06T15:16:45.0000000+00:00</time></trkpt><trkpt lat="39.46275417" lon="-0.37948983"><ele>26.2</ele><time>2022-11-06T15:16:46.0000000+00:00</time></trkpt><trkpt lat="39.46273866" lon="-0.37948254"><ele>26.2</ele><time>2022-11-06T15:16:47.0000000+00:00</time></trkpt><trkpt lat="39.46272994" lon="-0.37948706"><ele>26.2</ele><time>2022-11-06T15:16:48.0000000+00:00</time></trkpt><trkpt lat="39.46271922" lon="-0.37949218"><ele>26.2</ele><time>2022-11-06T15:16:49.0000000+00:00</time></trkpt><trkpt lat="39.46271838" lon="-0.37950969"><ele>26.2</ele><time>2022-11-06T15:16:50.0000000+00:00</time></trkpt><trkpt lat="39.46271578" lon="-0.37951212"><ele>26.2</ele><time>2022-11-06T15:16:51.0000000+00:00</time></trkpt><trkpt lat="39.46270471" lon="-0.37949687"><ele>26.2</ele><time>2022-11-06T15:16:52.0000000+00:00</time></trkpt><trkpt lat="39.46269055" lon="-0.37948329"><ele>26.4</ele><time>2022-11-06T15:16:53.0000000+00:00</time></trkpt><trkpt lat="39.46266507" lon="-0.37946611"><ele>26.4</ele><time>2022-11-06T15:16:54.0000000+00:00</time></trkpt><trkpt lat="39.4626442" lon="-0.3794527"><ele>26.2</ele><time>2022-11-06T15:16:55.0000000+00:00</time></trkpt><trkpt lat="39.46263288" lon="-0.37945848"><ele>26.4</ele><time>2022-11-06T15:16:56.0000000+00:00</time></trkpt><trkpt lat="39.46262408" lon="-0.37946904"><ele>26.4</ele><time>2022-11-06T15:16:57.0000000+00:00</time></trkpt><trkpt lat="39.46261972" lon="-0.37947985"><ele>26.4</ele><time>2022-11-06T15:16:58.0000000+00:00</time></trkpt><trkpt lat="39.46260707" lon="-0.37948589"><ele>26.4</ele><time>2022-11-06T15:16:59.0000000+00:00</time></trkpt><trkpt lat="39.46259826" lon="-0.3794998"><ele>26.2</ele><time>2022-11-06T15:17:00.0000000+00:00</time></trkpt><trkpt lat="39.46258083" lon="-0.37949788"><ele>26.2</ele><time>2022-11-06T15:17:01.0000000+00:00</time></trkpt><trkpt lat="39.46256407" lon="-0.37949838"><ele>26.2</ele><time>2022-11-06T15:17:02.0000000+00:00</time></trkpt><trkpt lat="39.46255535" lon="-0.37950215"><ele>26.4</ele><time>2022-11-06T15:17:03.0000000+00:00</time></trkpt><trkpt lat="39.46254018" lon="-0.37950777"><ele>26.4</ele><time>2022-11-06T15:17:04.0000000+00:00</time></trkpt><trkpt lat="39.4625292" lon="-0.37950961"><ele>26.2</ele><time>2022-11-06T15:17:05.0000000+00:00</time></trkpt><trkpt lat="39.46251436" lon="-0.37951556"><ele>26.2</ele><time>2022-11-06T15:17:06.0000000+00:00</time></trkpt><trkpt lat="39.4625007" lon="-0.3795257"><ele>26.2</ele><time>2022-11-06T15:17:07.0000000+00:00</time></trkpt><trkpt lat="39.46248603" lon="-0.37951908"><ele>26.2</ele><time>2022-11-06T15:17:08.0000000+00:00</time></trkpt><trkpt lat="39.46246977" lon="-0.3795045"><ele>26.4</ele><time>2022-11-06T15:17:09.0000000+00:00</time></trkpt><trkpt lat="39.46246575" lon="-0.37950609"><ele>26.4</ele><time>2022-11-06T15:17:10.0000000+00:00</time></trkpt><trkpt lat="39.46248075" lon="-0.3795257"><ele>26.4</ele><time>2022-11-06T15:17:11.0000000+00:00</time></trkpt><trkpt lat="39.4624748" lon="-0.3795345"><ele>26.4</ele><time>2022-11-06T15:17:12.0000000+00:00</time></trkpt><trkpt lat="39.46245938" lon="-0.37953316"><ele>26.4</ele><time>2022-11-06T15:17:13.0000000+00:00</time></trkpt><trkpt lat="39.46243934" lon="-0.37952302"><ele>26.6</ele><time>2022-11-06T15:17:14.0000000+00:00</time></trkpt><trkpt lat="39.46241655" lon="-0.37952327"><ele>26.6</ele><time>2022-11-06T15:17:15.0000000+00:00</time></trkpt><trkpt lat="39.4623971" lon="-0.37950994"><ele>26.4</ele><time>2022-11-06T15:17:16.0000000+00:00</time></trkpt><trkpt lat="39.46238327" lon="-0.37951196"><ele>26.4</ele><time>2022-11-06T15:17:17.0000000+00:00</time></trkpt><trkpt lat="39.46236843" lon="-0.3795159"><ele>26.4</ele><time>2022-11-06T15:17:18.0000000+00:00</time></trkpt><trkpt lat="39.46236013" lon="-0.37952201"><ele>26.4</ele><time>2022-11-06T15:17:19.0000000+00:00</time></trkpt><trkpt lat="39.46235267" lon="-0.37952621"><ele>26.4</ele><time>2022-11-06T15:17:20.0000000+00:00</time></trkpt><trkpt lat="39.46235016" lon="-0.379534"><ele>26.4</ele><time>2022-11-06T15:17:21.0000000+00:00</time></trkpt><trkpt lat="39.46234681" lon="-0.37954272"><ele>26.6</ele><time>2022-11-06T15:17:22.0000000+00:00</time></trkpt><trkpt lat="39.46233482" lon="-0.37954984"><ele>26.6</ele><time>2022-11-06T15:17:23.0000000+00:00</time></trkpt><trkpt lat="39.46232409" lon="-0.3795589"><ele>26.6</ele><time>2022-11-06T15:17:24.0000000+00:00</time></trkpt><trkpt lat="39.46231403" lon="-0.3795604"><ele>26.6</ele><time>2022-11-06T15:17:25.0000000+00:00</time></trkpt><trkpt lat="39.46230398" lon="-0.37956141"><ele>26.6</ele><time>2022-11-06T15:17:26.0000000+00:00</time></trkpt><trkpt lat="39.46229216" lon="-0.37956158"><ele>26.6</ele><time>2022-11-06T15:17:27.0000000+00:00</time></trkpt><trkpt lat="39.46228059" lon="-0.37956694"><ele>26.8</ele><time>2022-11-06T15:17:28.0000000+00:00</time></trkpt><trkpt lat="39.46227095" lon="-0.37957398"><ele>26.8</ele><time>2022-11-06T15:17:29.0000000+00:00</time></trkpt><trkpt lat="39.46226173" lon="-0.37958236"><ele>27.0</ele><time>2022-11-06T15:17:30.0000000+00:00</time></trkpt><trkpt lat="39.46225368" lon="-0.37958982"><ele>27.0</ele><time>2022-11-06T15:17:31.0000000+00:00</time></trkpt><trkpt lat="39.46224597" lon="-0.37958949"><ele>27.0</ele><time>2022-11-06T15:17:32.0000000+00:00</time></trkpt><trkpt lat="39.46224522" lon="-0.3795967"><ele>27.0</ele><time>2022-11-06T15:17:33.0000000+00:00</time></trkpt><trkpt lat="39.46224187" lon="-0.37959762"><ele>27.0</ele><time>2022-11-06T15:17:34.0000000+00:00</time></trkpt><trkpt lat="39.4622422" lon="-0.37959888"><ele>27.0</ele><time>2022-11-06T15:17:35.0000000+00:00</time></trkpt><trkpt lat="39.4622417" lon="-0.37959687"><ele>27.0</ele><time>2022-11-06T15:17:36.0000000+00:00</time></trkpt><trkpt lat="39.4622417" lon="-0.37959804"><ele>27.0</ele><time>2022-11-06T15:17:37.0000000+00:00</time></trkpt><trkpt lat="39.4622422" lon="-0.37959804"><ele>27.0</ele><time>2022-11-06T15:17:38.0000000+00:00</time></trkpt><trkpt lat="39.4622391" lon="-0.3795967"><ele>26.8</ele><time>2022-11-06T15:17:39.0000000+00:00</time></trkpt><trkpt lat="39.46222946" lon="-0.37959536"><ele>26.8</ele><time>2022-11-06T15:17:40.0000000+00:00</time></trkpt><trkpt lat="39.46222602" lon="-0.37959988"><ele>26.8</ele><time>2022-11-06T15:17:41.0000000+00:00</time></trkpt><trkpt lat="39.46222125" lon="-0.37960961"><ele>27.0</ele><time>2022-11-06T15:17:42.0000000+00:00</time></trkpt><trkpt lat="39.46221446" lon="-0.37961111"><ele>27.0</ele><time>2022-11-06T15:17:43.0000000+00:00</time></trkpt><trkpt lat="39.46220985" lon="-0.37961246"><ele>27.0</ele><time>2022-11-06T15:17:44.0000000+00:00</time></trkpt><trkpt lat="39.46219711" lon="-0.37960458"><ele>27.0</ele><time>2022-11-06T15:17:45.0000000+00:00</time></trkpt><trkpt lat="39.46218881" lon="-0.37960776"><ele>27.0</ele><time>2022-11-06T15:17:46.0000000+00:00</time></trkpt><trkpt lat="39.46218168" lon="-0.37961438"><ele>27.0</ele><time>2022-11-06T15:17:47.0000000+00:00</time></trkpt><trkpt lat="39.46218529" lon="-0.37963735"><ele>27.0</ele><time>2022-11-06T15:17:48.0000000+00:00</time></trkpt><trkpt lat="39.46218076" lon="-0.37964883"><ele>27.0</ele><time>2022-11-06T15:17:49.0000000+00:00</time></trkpt><trkpt lat="39.46217422" lon="-0.37965797"><ele>27.0</ele><time>2022-11-06T15:17:50.0000000+00:00</time></trkpt><trkpt lat="39.46215947" lon="-0.3796552"><ele>27.0</ele><time>2022-11-06T15:17:51.0000000+00:00</time></trkpt><trkpt lat="39.46216023" lon="-0.37967239"><ele>27.0</ele><time>2022-11-06T15:17:52.0000000+00:00</time></trkpt><trkpt lat="39.46215159" lon="-0.37967918"><ele>27.0</ele><time>2022-11-06T15:17:53.0000000+00:00</time></trkpt><trkpt lat="39.4621407" lon="-0.37967599"><ele>27.0</ele><time>2022-11-06T15:17:54.0000000+00:00</time></trkpt><trkpt lat="39.4621334" lon="-0.37968253"><ele>27.0</ele><time>2022-11-06T15:17:55.0000000+00:00</time></trkpt><trkpt lat="39.46212402" lon="-0.37967767"><ele>27.0</ele><time>2022-11-06T15:17:56.0000000+00:00</time></trkpt><trkpt lat="39.46211111" lon="-0.37967457"><ele>27.0</ele><time>2022-11-06T15:17:57.0000000+00:00</time></trkpt><trkpt lat="39.46210197" lon="-0.37967867"><ele>26.8</ele><time>2022-11-06T15:17:58.0000000+00:00</time></trkpt><trkpt lat="39.46208999" lon="-0.37968035"><ele>26.8</ele><time>2022-11-06T15:17:59.0000000+00:00</time></trkpt><trkpt lat="39.46207674" lon="-0.37968027"><ele>26.8</ele><time>2022-11-06T15:18:00.0000000+00:00</time></trkpt><trkpt lat="39.46206735" lon="-0.37968152"><ele>26.8</ele><time>2022-11-06T15:18:01.0000000+00:00</time></trkpt><trkpt lat="39.46206383" lon="-0.3796837"><ele>26.8</ele><time>2022-11-06T15:18:02.0000000+00:00</time></trkpt><trkpt lat="39.4620557" lon="-0.37968077"><ele>26.8</ele><time>2022-11-06T15:18:03.0000000+00:00</time></trkpt><trkpt lat="39.46204866" lon="-0.37967918"><ele>26.8</ele><time>2022-11-06T15:18:04.0000000+00:00</time></trkpt><trkpt lat="39.4620459" lon="-0.37967834"><ele>26.8</ele><time>2022-11-06T15:18:05.0000000+00:00</time></trkpt><trkpt lat="39.46203567" lon="-0.37968211"><ele>27.0</ele><time>2022-11-06T15:18:06.0000000+00:00</time></trkpt><trkpt lat="39.4620226" lon="-0.37968504"><ele>27.0</ele><time>2022-11-06T15:18:07.0000000+00:00</time></trkpt><trkpt lat="39.46201346" lon="-0.37969066"><ele>27.0</ele><time>2022-11-06T15:18:08.0000000+00:00</time></trkpt><trkpt lat="39.4620065" lon="-0.37969837"><ele>27.0</ele><time>2022-11-06T15:18:09.0000000+00:00</time></trkpt><trkpt lat="39.46200038" lon="-0.37970407"><ele>27.0</ele><time>2022-11-06T15:18:10.0000000+00:00</time></trkpt><trkpt lat="39.46199435" lon="-0.37970734"><ele>27.0</ele><time>2022-11-06T15:18:11.0000000+00:00</time></trkpt><trkpt lat="39.4619868" lon="-0.37971069"><ele>27.0</ele><time>2022-11-06T15:18:12.0000000+00:00</time></trkpt><trkpt lat="39.46197834" lon="-0.37971304"><ele>27.0</ele><time>2022-11-06T15:18:13.0000000+00:00</time></trkpt><trkpt lat="39.46196769" lon="-0.37971597"><ele>27.0</ele><time>2022-11-06T15:18:14.0000000+00:00</time></trkpt><trkpt lat="39.46195814" lon="-0.37972192"><ele>27.0</ele><time>2022-11-06T15:18:15.0000000+00:00</time></trkpt><trkpt lat="39.4619516" lon="-0.37972963"><ele>27.2</ele><time>2022-11-06T15:18:16.0000000+00:00</time></trkpt><trkpt lat="39.46194624" lon="-0.37973726"><ele>27.2</ele><time>2022-11-06T15:18:17.0000000+00:00</time></trkpt><trkpt lat="39.46193517" lon="-0.37974087"><ele>27.4</ele><time>2022-11-06T15:18:18.0000000+00:00</time></trkpt><trkpt lat="39.46192855" lon="-0.37974573"><ele>27.6</ele><time>2022-11-06T15:18:19.0000000+00:00</time></trkpt><trkpt lat="39.46192352" lon="-0.37974992"><ele>27.6</ele><time>2022-11-06T15:18:20.0000000+00:00</time></trkpt><trkpt lat="39.46191832" lon="-0.37975352"><ele>27.6</ele><time>2022-11-06T15:18:21.0000000+00:00</time></trkpt><trkpt lat="39.46191221" lon="-0.37975604"><ele>27.6</ele><time>2022-11-06T15:18:22.0000000+00:00</time></trkpt><trkpt lat="39.46190449" lon="-0.3797547"><ele>27.6</ele><time>2022-11-06T15:18:23.0000000+00:00</time></trkpt><trkpt lat="39.46189863" lon="-0.37975931"><ele>27.4</ele><time>2022-11-06T15:18:24.0000000+00:00</time></trkpt><trkpt lat="39.46189527" lon="-0.37976475"><ele>27.2</ele><time>2022-11-06T15:18:25.0000000+00:00</time></trkpt><trkpt lat="39.4618915" lon="-0.37976727"><ele>27.0</ele><time>2022-11-06T15:18:26.0000000+00:00</time></trkpt><trkpt lat="39.46188538" lon="-0.37976911"><ele>27.0</ele><time>2022-11-06T15:18:27.0000000+00:00</time></trkpt><trkpt lat="39.46188295" lon="-0.3797728"><ele>27.0</ele><time>2022-11-06T15:18:28.0000000+00:00</time></trkpt><trkpt lat="39.46187809" lon="-0.37977842"><ele>26.8</ele><time>2022-11-06T15:18:29.0000000+00:00</time></trkpt><trkpt lat="39.46186887" lon="-0.37978278"><ele>26.8</ele><time>2022-11-06T15:18:30.0000000+00:00</time></trkpt><trkpt lat="39.46186041" lon="-0.37978403"><ele>26.8</ele><time>2022-11-06T15:18:31.0000000+00:00</time></trkpt><trkpt lat="39.46185186" lon="-0.37978236"><ele>26.8</ele><time>2022-11-06T15:18:32.0000000+00:00</time></trkpt><trkpt lat="39.46184146" lon="-0.37978244"><ele>26.8</ele><time>2022-11-06T15:18:33.0000000+00:00</time></trkpt><trkpt lat="39.46183199" lon="-0.37977858"><ele>26.8</ele><time>2022-11-06T15:18:34.0000000+00:00</time></trkpt><trkpt lat="39.46182428" lon="-0.37978294"><ele>26.8</ele><time>2022-11-06T15:18:35.0000000+00:00</time></trkpt><trkpt lat="39.4618185" lon="-0.37979183"><ele>26.8</ele><time>2022-11-06T15:18:36.0000000+00:00</time></trkpt><trkpt lat="39.46180794" lon="-0.37979526"><ele>26.8</ele><time>2022-11-06T15:18:37.0000000+00:00</time></trkpt><trkpt lat="39.4617983" lon="-0.37980046"><ele>26.8</ele><time>2022-11-06T15:18:38.0000000+00:00</time></trkpt><trkpt lat="39.4617869" lon="-0.37980365"><ele>26.8</ele><time>2022-11-06T15:18:39.0000000+00:00</time></trkpt><trkpt lat="39.46177248" lon="-0.37979728"><ele>26.8</ele><time>2022-11-06T15:18:40.0000000+00:00</time></trkpt><trkpt lat="39.46176267" lon="-0.37980088"><ele>26.8</ele><time>2022-11-06T15:18:41.0000000+00:00</time></trkpt><trkpt lat="39.46175312" lon="-0.37980423"><ele>26.8</ele><time>2022-11-06T15:18:42.0000000+00:00</time></trkpt><trkpt lat="39.46174205" lon="-0.37980759"><ele>26.8</ele><time>2022-11-06T15:18:43.0000000+00:00</time></trkpt><trkpt lat="39.46173258" lon="-0.37981111"><ele>27.0</ele><time>2022-11-06T15:18:44.0000000+00:00</time></trkpt><trkpt lat="39.46172546" lon="-0.37981907"><ele>27.0</ele><time>2022-11-06T15:18:45.0000000+00:00</time></trkpt><trkpt lat="39.46171615" lon="-0.37982133"><ele>27.0</ele><time>2022-11-06T15:18:46.0000000+00:00</time></trkpt><trkpt lat="39.46170249" lon="-0.37982443"><ele>27.0</ele><time>2022-11-06T15:18:47.0000000+00:00</time></trkpt><trkpt lat="39.46168682" lon="-0.3798241"><ele>27.0</ele><time>2022-11-06T15:18:48.0000000+00:00</time></trkpt><trkpt lat="39.46167349" lon="-0.37982678"><ele>27.0</ele><time>2022-11-06T15:18:49.0000000+00:00</time></trkpt><trkpt lat="39.46166134" lon="-0.37982594"><ele>26.8</ele><time>2022-11-06T15:18:50.0000000+00:00</time></trkpt><trkpt lat="39.46165396" lon="-0.37983424"><ele>26.8</ele><time>2022-11-06T15:18:51.0000000+00:00</time></trkpt><trkpt lat="39.46163896" lon="-0.37983885"><ele>26.8</ele><time>2022-11-06T15:18:52.0000000+00:00</time></trkpt><trkpt lat="39.46162999" lon="-0.37984698"><ele>26.8</ele><time>2022-11-06T15:18:53.0000000+00:00</time></trkpt><trkpt lat="39.46161716" lon="-0.37985168"><ele>26.8</ele><time>2022-11-06T15:18:54.0000000+00:00</time></trkpt><trkpt lat="39.46160786" lon="-0.37985243"><ele>26.8</ele><time>2022-11-06T15:18:55.0000000+00:00</time></trkpt><trkpt lat="39.46160266" lon="-0.37985888"><ele>26.8</ele><time>2022-11-06T15:18:56.0000000+00:00</time></trkpt><trkpt lat="39.46159336" lon="-0.37986366"><ele>26.8</ele><time>2022-11-06T15:18:57.0000000+00:00</time></trkpt><trkpt lat="39.46158632" lon="-0.37986903"><ele>26.8</ele><time>2022-11-06T15:18:58.0000000+00:00</time></trkpt><trkpt lat="39.46158154" lon="-0.37986676"><ele>26.8</ele><time>2022-11-06T15:18:59.0000000+00:00</time></trkpt><trkpt lat="39.46157827" lon="-0.37987104"><ele>26.8</ele><time>2022-11-06T15:19:00.0000000+00:00</time></trkpt><trkpt lat="39.46157123" lon="-0.37986911"><ele>26.8</ele><time>2022-11-06T15:19:01.0000000+00:00</time></trkpt><trkpt lat="39.46157022" lon="-0.37987213"><ele>26.8</ele><time>2022-11-06T15:19:02.0000000+00:00</time></trkpt><trkpt lat="39.46156997" lon="-0.37987531"><ele>26.8</ele><time>2022-11-06T15:19:03.0000000+00:00</time></trkpt><trkpt lat="39.46156939" lon="-0.37987883"><ele>26.6</ele><time>2022-11-06T15:19:04.0000000+00:00</time></trkpt><trkpt lat="39.46155807" lon="-0.37988353"><ele>26.6</ele><time>2022-11-06T15:19:05.0000000+00:00</time></trkpt><trkpt lat="39.4615543" lon="-0.37988688"><ele>26.6</ele><time>2022-11-06T15:19:06.0000000+00:00</time></trkpt><trkpt lat="39.46154047" lon="-0.37989048"><ele>26.6</ele><time>2022-11-06T15:19:07.0000000+00:00</time></trkpt><trkpt lat="39.46153125" lon="-0.37989526"><ele>26.6</ele><time>2022-11-06T15:19:08.0000000+00:00</time></trkpt><trkpt lat="39.46152278" lon="-0.37990188"><ele>26.6</ele><time>2022-11-06T15:19:09.0000000+00:00</time></trkpt><trkpt lat="39.46151541" lon="-0.37990599"><ele>26.6</ele><time>2022-11-06T15:19:10.0000000+00:00</time></trkpt><trkpt lat="39.46150661" lon="-0.37991085"><ele>26.6</ele><time>2022-11-06T15:19:11.0000000+00:00</time></trkpt><trkpt lat="39.46149814" lon="-0.3799137"><ele>26.6</ele><time>2022-11-06T15:19:12.0000000+00:00</time></trkpt><trkpt lat="39.46148959" lon="-0.37991856"><ele>26.6</ele><time>2022-11-06T15:19:13.0000000+00:00</time></trkpt><trkpt lat="39.46148465" lon="-0.37992342"><ele>26.6</ele><time>2022-11-06T15:19:14.0000000+00:00</time></trkpt><trkpt lat="39.46147853" lon="-0.37993474"><ele>26.6</ele><time>2022-11-06T15:19:15.0000000+00:00</time></trkpt><trkpt lat="39.4614745" lon="-0.37994455"><ele>26.6</ele><time>2022-11-06T15:19:16.0000000+00:00</time></trkpt><trkpt lat="39.46146679" lon="-0.37995368"><ele>26.6</ele><time>2022-11-06T15:19:17.0000000+00:00</time></trkpt><trkpt lat="39.46145481" lon="-0.37996416"><ele>26.6</ele><time>2022-11-06T15:19:18.0000000+00:00</time></trkpt><trkpt lat="39.46144374" lon="-0.37997137"><ele>26.6</ele><time>2022-11-06T15:19:19.0000000+00:00</time></trkpt><trkpt lat="39.46143461" lon="-0.37997372"><ele>26.6</ele><time>2022-11-06T15:19:20.0000000+00:00</time></trkpt><trkpt lat="39.46141927" lon="-0.3799738"><ele>26.6</ele><time>2022-11-06T15:19:21.0000000+00:00</time></trkpt><trkpt lat="39.46141332" lon="-0.37998662"><ele>26.4</ele><time>2022-11-06T15:19:22.0000000+00:00</time></trkpt><trkpt lat="39.46140979" lon="-0.38000003"><ele>26.4</ele><time>2022-11-06T15:19:23.0000000+00:00</time></trkpt><trkpt lat="39.46140527" lon="-0.38001646"><ele>26.4</ele><time>2022-11-06T15:19:24.0000000+00:00</time></trkpt><trkpt lat="39.46140225" lon="-0.38002619"><ele>26.4</ele><time>2022-11-06T15:19:25.0000000+00:00</time></trkpt><trkpt lat="39.46139119" lon="-0.38002627"><ele>26.4</ele><time>2022-11-06T15:19:26.0000000+00:00</time></trkpt><trkpt lat="39.46138792" lon="-0.38003901"><ele>26.4</ele><time>2022-11-06T15:19:27.0000000+00:00</time></trkpt><trkpt lat="39.46137602" lon="-0.3800608"><ele>26.4</ele><time>2022-11-06T15:19:28.0000000+00:00</time></trkpt><trkpt lat="39.46136395" lon="-0.38008302"><ele>26.4</ele><time>2022-11-06T15:19:29.0000000+00:00</time></trkpt><trkpt lat="39.46135523" lon="-0.38010632"><ele>26.4</ele><time>2022-11-06T15:19:30.0000000+00:00</time></trkpt><trkpt lat="39.4613424" lon="-0.38012258"><ele>26.4</ele><time>2022-11-06T15:19:31.0000000+00:00</time></trkpt><trkpt lat="39.46134098" lon="-0.38013582"><ele>26.4</ele><time>2022-11-06T15:19:32.0000000+00:00</time></trkpt><trkpt lat="39.46133629" lon="-0.38014144"><ele>26.4</ele><time>2022-11-06T15:19:33.0000000+00:00</time></trkpt><trkpt lat="39.46131701" lon="-0.38014395"><ele>26.4</ele><time>2022-11-06T15:19:34.0000000+00:00</time></trkpt><trkpt lat="39.46131039" lon="-0.38014689"><ele>26.4</ele><time>2022-11-06T15:19:35.0000000+00:00</time></trkpt><trkpt lat="39.46130418" lon="-0.3801582"><ele>26.4</ele><time>2022-11-06T15:19:36.0000000+00:00</time></trkpt><trkpt lat="39.46130502" lon="-0.38017279"><ele>26.4</ele><time>2022-11-06T15:19:37.0000000+00:00</time></trkpt><trkpt lat="39.46129169" lon="-0.38017932"><ele>26.4</ele><time>2022-11-06T15:19:38.0000000+00:00</time></trkpt><trkpt lat="39.46128532" lon="-0.38019491"><ele>26.4</ele><time>2022-11-06T15:19:39.0000000+00:00</time></trkpt><trkpt lat="39.4612818" lon="-0.38021294"><ele>26.4</ele><time>2022-11-06T15:19:40.0000000+00:00</time></trkpt><trkpt lat="39.4612735" lon="-0.38022098"><ele>26.4</ele><time>2022-11-06T15:19:41.0000000+00:00</time></trkpt><trkpt lat="39.46126588" lon="-0.38023112"><ele>26.4</ele><time>2022-11-06T15:19:42.0000000+00:00</time></trkpt><trkpt lat="39.46126085" lon="-0.38024277"><ele>26.4</ele><time>2022-11-06T15:19:43.0000000+00:00</time></trkpt><trkpt lat="39.46125649" lon="-0.38024931"><ele>26.4</ele><time>2022-11-06T15:19:44.0000000+00:00</time></trkpt><trkpt lat="39.46125439" lon="-0.38026557"><ele>26.6</ele><time>2022-11-06T15:19:45.0000000+00:00</time></trkpt><trkpt lat="39.46125012" lon="-0.38027739"><ele>26.6</ele><time>2022-11-06T15:19:46.0000000+00:00</time></trkpt><trkpt lat="39.46124735" lon="-0.38029072"><ele>26.6</ele><time>2022-11-06T15:19:47.0000000+00:00</time></trkpt><trkpt lat="39.46124484" lon="-0.38030354"><ele>26.6</ele><time>2022-11-06T15:19:48.0000000+00:00</time></trkpt><trkpt lat="39.46123906" lon="-0.38031628"><ele>26.6</ele><time>2022-11-06T15:19:49.0000000+00:00</time></trkpt><trkpt lat="39.4612347" lon="-0.38032467"><ele>26.4</ele><time>2022-11-06T15:19:50.0000000+00:00</time></trkpt><trkpt lat="39.46122564" lon="-0.38033816"><ele>26.4</ele><time>2022-11-06T15:19:51.0000000+00:00</time></trkpt><trkpt lat="39.46121944" lon="-0.38034864"><ele>26.4</ele><time>2022-11-06T15:19:52.0000000+00:00</time></trkpt><trkpt lat="39.46121173" lon="-0.3803628"><ele>26.4</ele><time>2022-11-06T15:19:53.0000000+00:00</time></trkpt><trkpt lat="39.46120645" lon="-0.38037999"><ele>26.4</ele><time>2022-11-06T15:19:54.0000000+00:00</time></trkpt><trkpt lat="39.46120662" lon="-0.38039348"><ele>26.4</ele><time>2022-11-06T15:19:55.0000000+00:00</time></trkpt><trkpt lat="39.46120754" lon="-0.38040547"><ele>26.4</ele><time>2022-11-06T15:19:56.0000000+00:00</time></trkpt><trkpt lat="39.46120419" lon="-0.38041603"><ele>26.4</ele><time>2022-11-06T15:19:57.0000000+00:00</time></trkpt><trkpt lat="39.46120184" lon="-0.38042592"><ele>26.4</ele><time>2022-11-06T15:19:58.0000000+00:00</time></trkpt><trkpt lat="39.46120427" lon="-0.3804343"><ele>26.4</ele><time>2022-11-06T15:19:59.0000000+00:00</time></trkpt><trkpt lat="39.46119773" lon="-0.38044134"><ele>26.4</ele><time>2022-11-06T15:20:00.0000000+00:00</time></trkpt><trkpt lat="39.46119547" lon="-0.38044729"><ele>26.4</ele><time>2022-11-06T15:20:01.0000000+00:00</time></trkpt><trkpt lat="39.46119773" lon="-0.38045568"><ele>26.4</ele><time>2022-11-06T15:20:02.0000000+00:00</time></trkpt><trkpt lat="39.46119388" lon="-0.38046079"><ele>26.4</ele><time>2022-11-06T15:20:03.0000000+00:00</time></trkpt><trkpt lat="39.46118524" lon="-0.38046883"><ele>26.4</ele><time>2022-11-06T15:20:04.0000000+00:00</time></trkpt><trkpt lat="39.46117678" lon="-0.38048158"><ele>26.4</ele><time>2022-11-06T15:20:05.0000000+00:00</time></trkpt><trkpt lat="39.46117284" lon="-0.3804944"><ele>26.4</ele><time>2022-11-06T15:20:06.0000000+00:00</time></trkpt><trkpt lat="39.46116504" lon="-0.38051167"><ele>26.4</ele><time>2022-11-06T15:20:07.0000000+00:00</time></trkpt><trkpt lat="39.46116261" lon="-0.38052684"><ele>26.4</ele><time>2022-11-06T15:20:08.0000000+00:00</time></trkpt><trkpt lat="39.46115993" lon="-0.38053681"><ele>26.4</ele><time>2022-11-06T15:20:09.0000000+00:00</time></trkpt><trkpt lat="39.46115675" lon="-0.38054603"><ele>26.4</ele><time>2022-11-06T15:20:10.0000000+00:00</time></trkpt><trkpt lat="39.46115281" lon="-0.38055584"><ele>26.4</ele><time>2022-11-06T15:20:11.0000000+00:00</time></trkpt><trkpt lat="39.46114669" lon="-0.38056355"><ele>26.2</ele><time>2022-11-06T15:20:12.0000000+00:00</time></trkpt><trkpt lat="39.46114459" lon="-0.38057093"><ele>26.2</ele><time>2022-11-06T15:20:13.0000000+00:00</time></trkpt><trkpt lat="39.46114459" lon="-0.38057352"><ele>26.2</ele><time>2022-11-06T15:20:14.0000000+00:00</time></trkpt><trkpt lat="39.46114627" lon="-0.38058425"><ele>26.2</ele><time>2022-11-06T15:20:15.0000000+00:00</time></trkpt><trkpt lat="39.46114929" lon="-0.3805949"><ele>26.2</ele><time>2022-11-06T15:20:16.0000000+00:00</time></trkpt><trkpt lat="39.46115021" lon="-0.38060051"><ele>26.2</ele><time>2022-11-06T15:20:17.0000000+00:00</time></trkpt><trkpt lat="39.46114744" lon="-0.38061015"><ele>26.2</ele><time>2022-11-06T15:20:18.0000000+00:00</time></trkpt><trkpt lat="39.46114384" lon="-0.3806203"><ele>26.2</ele><time>2022-11-06T15:20:19.0000000+00:00</time></trkpt><trkpt lat="39.46113713" lon="-0.38062876"><ele>26.2</ele><time>2022-11-06T15:20:20.0000000+00:00</time></trkpt><trkpt lat="39.46113118" lon="-0.38063915"><ele>26.2</ele><time>2022-11-06T15:20:21.0000000+00:00</time></trkpt><trkpt lat="39.46112699" lon="-0.38065299"><ele>26.2</ele><time>2022-11-06T15:20:22.0000000+00:00</time></trkpt><trkpt lat="39.46112347" lon="-0.38066782"><ele>26.2</ele><time>2022-11-06T15:20:23.0000000+00:00</time></trkpt><trkpt lat="39.46111769" lon="-0.3806845"><ele>26.2</ele><time>2022-11-06T15:20:24.0000000+00:00</time></trkpt><trkpt lat="39.46111274" lon="-0.38069657"><ele>26.4</ele><time>2022-11-06T15:20:25.0000000+00:00</time></trkpt><trkpt lat="39.46110193" lon="-0.38070956"><ele>26.4</ele><time>2022-11-06T15:20:26.0000000+00:00</time></trkpt><trkpt lat="39.46109505" lon="-0.38072809"><ele>26.4</ele><time>2022-11-06T15:20:27.0000000+00:00</time></trkpt><trkpt lat="39.46108734" lon="-0.38074401"><ele>26.6</ele><time>2022-11-06T15:20:28.0000000+00:00</time></trkpt><trkpt lat="39.46108122" lon="-0.38075684"><ele>26.6</ele><time>2022-11-06T15:20:29.0000000+00:00</time></trkpt><trkpt lat="39.46107351" lon="-0.38077251"><ele>26.6</ele><time>2022-11-06T15:20:30.0000000+00:00</time></trkpt><trkpt lat="39.46106781" lon="-0.3807798"><ele>26.6</ele><time>2022-11-06T15:20:31.0000000+00:00</time></trkpt><trkpt lat="39.46105775" lon="-0.3807907"><ele>26.4</ele><time>2022-11-06T15:20:32.0000000+00:00</time></trkpt><trkpt lat="39.46105071" lon="-0.38080269"><ele>26.4</ele><time>2022-11-06T15:20:33.0000000+00:00</time></trkpt><trkpt lat="39.46104527" lon="-0.38081283"><ele>26.4</ele><time>2022-11-06T15:20:34.0000000+00:00</time></trkpt><trkpt lat="39.46104392" lon="-0.38082297"><ele>26.4</ele><time>2022-11-06T15:20:35.0000000+00:00</time></trkpt><trkpt lat="39.46104275" lon="-0.3808342"><ele>26.2</ele><time>2022-11-06T15:20:36.0000000+00:00</time></trkpt><trkpt lat="39.46104208" lon="-0.38084359"><ele>26.2</ele><time>2022-11-06T15:20:37.0000000+00:00</time></trkpt><trkpt lat="39.4610363" lon="-0.38085256"><ele>26.2</ele><time>2022-11-06T15:20:38.0000000+00:00</time></trkpt><trkpt lat="39.46102825" lon="-0.38086521"><ele>26.0</ele><time>2022-11-06T15:20:39.0000000+00:00</time></trkpt><trkpt lat="39.46100964" lon="-0.38087888"><ele>26.2</ele><time>2022-11-06T15:20:40.0000000+00:00</time></trkpt><trkpt lat="39.46100084" lon="-0.38088877"><ele>26.2</ele><time>2022-11-06T15:20:41.0000000+00:00</time></trkpt><trkpt lat="39.46100403" lon="-0.38091257"><ele>26.2</ele><time>2022-11-06T15:20:42.0000000+00:00</time></trkpt><trkpt lat="39.46100185" lon="-0.38093311"><ele>26.2</ele><time>2022-11-06T15:20:43.0000000+00:00</time></trkpt><trkpt lat="39.46100378" lon="-0.38094015"><ele>26.2</ele><time>2022-11-06T15:20:44.0000000+00:00</time></trkpt><trkpt lat="39.46100126" lon="-0.38095205"><ele>26.2</ele><time>2022-11-06T15:20:45.0000000+00:00</time></trkpt><trkpt lat="39.46100034" lon="-0.38095859"><ele>26.2</ele><time>2022-11-06T15:20:46.0000000+00:00</time></trkpt><trkpt lat="39.46099715" lon="-0.38096521"><ele>26.2</ele><time>2022-11-06T15:20:47.0000000+00:00</time></trkpt><trkpt lat="39.46099355" lon="-0.38097007"><ele>26.2</ele><time>2022-11-06T15:20:48.0000000+00:00</time></trkpt><trkpt lat="39.46098735" lon="-0.38098097"><ele>26.2</ele><time>2022-11-06T15:20:49.0000000+00:00</time></trkpt><trkpt lat="39.46097829" lon="-0.38099748"><ele>26.2</ele><time>2022-11-06T15:20:50.0000000+00:00</time></trkpt><trkpt lat="39.46097394" lon="-0.38100829"><ele>26.2</ele><time>2022-11-06T15:20:51.0000000+00:00</time></trkpt><trkpt lat="39.46096522" lon="-0.38101835"><ele>26.2</ele><time>2022-11-06T15:20:52.0000000+00:00</time></trkpt><trkpt lat="39.46095734" lon="-0.38103369"><ele>26.2</ele><time>2022-11-06T15:20:53.0000000+00:00</time></trkpt><trkpt lat="39.46095306" lon="-0.38104677"><ele>26.2</ele><time>2022-11-06T15:20:54.0000000+00:00</time></trkpt><trkpt lat="39.4609482" lon="-0.38105339"><ele>26.2</ele><time>2022-11-06T15:20:55.0000000+00:00</time></trkpt><trkpt lat="39.4609456" lon="-0.38106118"><ele>26.2</ele><time>2022-11-06T15:20:56.0000000+00:00</time></trkpt><trkpt lat="39.46094259" lon="-0.38107174"><ele>26.2</ele><time>2022-11-06T15:20:57.0000000+00:00</time></trkpt><trkpt lat="39.46093907" lon="-0.38108071"><ele>26.2</ele><time>2022-11-06T15:20:58.0000000+00:00</time></trkpt><trkpt lat="39.46093353" lon="-0.3810896"><ele>26.2</ele><time>2022-11-06T15:20:59.0000000+00:00</time></trkpt><trkpt lat="39.46092515" lon="-0.381101"><ele>26.2</ele><time>2022-11-06T15:21:00.0000000+00:00</time></trkpt><trkpt lat="39.46091962" lon="-0.38111709"><ele>26.2</ele><time>2022-11-06T15:21:01.0000000+00:00</time></trkpt><trkpt lat="39.46091593" lon="-0.38112463"><ele>26.2</ele><time>2022-11-06T15:21:02.0000000+00:00</time></trkpt><trkpt lat="39.46091308" lon="-0.38113687"><ele>26.4</ele><time>2022-11-06T15:21:03.0000000+00:00</time></trkpt><trkpt lat="39.46090914" lon="-0.38115204"><ele>26.4</ele><time>2022-11-06T15:21:04.0000000+00:00</time></trkpt><trkpt lat="39.46090663" lon="-0.3811611"><ele>26.4</ele><time>2022-11-06T15:21:05.0000000+00:00</time></trkpt><trkpt lat="39.46090319" lon="-0.38116705"><ele>26.4</ele><time>2022-11-06T15:21:06.0000000+00:00</time></trkpt><trkpt lat="39.46089942" lon="-0.38117317"><ele>26.4</ele><time>2022-11-06T15:21:07.0000000+00:00</time></trkpt><trkpt lat="39.46089481" lon="-0.38118448"><ele>26.4</ele><time>2022-11-06T15:21:08.0000000+00:00</time></trkpt><trkpt lat="39.46089054" lon="-0.38119144"><ele>26.2</ele><time>2022-11-06T15:21:09.0000000+00:00</time></trkpt><trkpt lat="39.46088341" lon="-0.38120049"><ele>26.2</ele><time>2022-11-06T15:21:10.0000000+00:00</time></trkpt><trkpt lat="39.46087461" lon="-0.38120854"><ele>26.2</ele><time>2022-11-06T15:21:11.0000000+00:00</time></trkpt><trkpt lat="39.46086816" lon="-0.38121474"><ele>26.2</ele><time>2022-11-06T15:21:12.0000000+00:00</time></trkpt><trkpt lat="39.46086019" lon="-0.38122631"><ele>26.2</ele><time>2022-11-06T15:21:13.0000000+00:00</time></trkpt><trkpt lat="39.46085013" lon="-0.38123804"><ele>26.2</ele><time>2022-11-06T15:21:14.0000000+00:00</time></trkpt><trkpt lat="39.46084301" lon="-0.38124776"><ele>26.2</ele><time>2022-11-06T15:21:15.0000000+00:00</time></trkpt><trkpt lat="39.46084133" lon="-0.38125791"><ele>26.2</ele><time>2022-11-06T15:21:16.0000000+00:00</time></trkpt><trkpt lat="39.46083957" lon="-0.3812719"><ele>26.2</ele><time>2022-11-06T15:21:17.0000000+00:00</time></trkpt><trkpt lat="39.46083874" lon="-0.38128406"><ele>26.2</ele><time>2022-11-06T15:21:18.0000000+00:00</time></trkpt><trkpt lat="39.46083496" lon="-0.38129135"><ele>26.2</ele><time>2022-11-06T15:21:19.0000000+00:00</time></trkpt><trkpt lat="39.46082507" lon="-0.38130401"><ele>26.2</ele><time>2022-11-06T15:21:20.0000000+00:00</time></trkpt><trkpt lat="39.46082625" lon="-0.38131876"><ele>26.2</ele><time>2022-11-06T15:21:21.0000000+00:00</time></trkpt><trkpt lat="39.46082742" lon="-0.38133041"><ele>26.2</ele><time>2022-11-06T15:21:22.0000000+00:00</time></trkpt><trkpt lat="39.46082868" lon="-0.38134248"><ele>26.2</ele><time>2022-11-06T15:21:23.0000000+00:00</time></trkpt><trkpt lat="39.46082164" lon="-0.38135396"><ele>26.0</ele><time>2022-11-06T15:21:24.0000000+00:00</time></trkpt><trkpt lat="39.46081284" lon="-0.38136302"><ele>26.0</ele><time>2022-11-06T15:21:25.0000000+00:00</time></trkpt><trkpt lat="39.46080538" lon="-0.38137483"><ele>26.0</ele><time>2022-11-06T15:21:26.0000000+00:00</time></trkpt><trkpt lat="39.46080529" lon="-0.38138959"><ele>26.0</ele><time>2022-11-06T15:21:27.0000000+00:00</time></trkpt><trkpt lat="39.46079766" lon="-0.38140208"><ele>26.0</ele><time>2022-11-06T15:21:28.0000000+00:00</time></trkpt><trkpt lat="39.46079087" lon="-0.38140333"><ele>26.0</ele><time>2022-11-06T15:21:29.0000000+00:00</time></trkpt><trkpt lat="39.46078694" lon="-0.38141574"><ele>26.0</ele><time>2022-11-06T15:21:30.0000000+00:00</time></trkpt><trkpt lat="39.46078182" lon="-0.38142546"><ele>26.2</ele><time>2022-11-06T15:21:31.0000000+00:00</time></trkpt><trkpt lat="39.46077864" lon="-0.38144139"><ele>26.2</ele><time>2022-11-06T15:21:32.0000000+00:00</time></trkpt><trkpt lat="39.46077336" lon="-0.38145304"><ele>26.2</ele><time>2022-11-06T15:21:33.0000000+00:00</time></trkpt><trkpt lat="39.46076766" lon="-0.3814662"><ele>26.2</ele><time>2022-11-06T15:21:34.0000000+00:00</time></trkpt><trkpt lat="39.4607581" lon="-0.3814776"><ele>26.2</ele><time>2022-11-06T15:21:35.0000000+00:00</time></trkpt><trkpt lat="39.46075089" lon="-0.38148992"><ele>26.2</ele><time>2022-11-06T15:21:36.0000000+00:00</time></trkpt><trkpt lat="39.46074477" lon="-0.38149746"><ele>26.2</ele><time>2022-11-06T15:21:37.0000000+00:00</time></trkpt><trkpt lat="39.4607384" lon="-0.38151288"><ele>26.4</ele><time>2022-11-06T15:21:38.0000000+00:00</time></trkpt><trkpt lat="39.46073622" lon="-0.38152915"><ele>26.4</ele><time>2022-11-06T15:21:39.0000000+00:00</time></trkpt><trkpt lat="39.46073673" lon="-0.38154599"><ele>26.2</ele><time>2022-11-06T15:21:40.0000000+00:00</time></trkpt><trkpt lat="39.46073413" lon="-0.38156368"><ele>26.2</ele><time>2022-11-06T15:21:41.0000000+00:00</time></trkpt><trkpt lat="39.46072969" lon="-0.38157868"><ele>26.2</ele><time>2022-11-06T15:21:42.0000000+00:00</time></trkpt><trkpt lat="39.46072038" lon="-0.38158514"><ele>26.0</ele><time>2022-11-06T15:21:43.0000000+00:00</time></trkpt><trkpt lat="39.46071686" lon="-0.38159436"><ele>26.0</ele><time>2022-11-06T15:21:44.0000000+00:00</time></trkpt><trkpt lat="39.46071334" lon="-0.38160324"><ele>26.0</ele><time>2022-11-06T15:21:45.0000000+00:00</time></trkpt><trkpt lat="39.4607084" lon="-0.3816169"><ele>26.0</ele><time>2022-11-06T15:21:46.0000000+00:00</time></trkpt><trkpt lat="39.46070488" lon="-0.38162763"><ele>26.0</ele><time>2022-11-06T15:21:47.0000000+00:00</time></trkpt><trkpt lat="39.46070094" lon="-0.38164104"><ele>26.0</ele><time>2022-11-06T15:21:48.0000000+00:00</time></trkpt><trkpt lat="39.46069121" lon="-0.3816475"><ele>26.0</ele><time>2022-11-06T15:21:49.0000000+00:00</time></trkpt><trkpt lat="39.46068392" lon="-0.38165211"><ele>26.0</ele><time>2022-11-06T15:21:50.0000000+00:00</time></trkpt><trkpt lat="39.46067445" lon="-0.3816475"><ele>26.0</ele><time>2022-11-06T15:21:51.0000000+00:00</time></trkpt><trkpt lat="39.46066205" lon="-0.38164959"><ele>26.0</ele><time>2022-11-06T15:21:52.0000000+00:00</time></trkpt><trkpt lat="39.46065157" lon="-0.3816573"><ele>26.0</ele><time>2022-11-06T15:21:53.0000000+00:00</time></trkpt><trkpt lat="39.46064025" lon="-0.38166502"><ele>26.0</ele><time>2022-11-06T15:21:54.0000000+00:00</time></trkpt><trkpt lat="39.46063589" lon="-0.3816853"><ele>26.0</ele><time>2022-11-06T15:21:55.0000000+00:00</time></trkpt><trkpt lat="39.46063967" lon="-0.38170584"><ele>26.0</ele><time>2022-11-06T15:21:56.0000000+00:00</time></trkpt><trkpt lat="39.46063648" lon="-0.3817169"><ele>26.0</ele><time>2022-11-06T15:21:57.0000000+00:00</time></trkpt><trkpt lat="39.4606348" lon="-0.38172629"><ele>26.0</ele><time>2022-11-06T15:21:58.0000000+00:00</time></trkpt><trkpt lat="39.46063531" lon="-0.38173526"><ele>26.0</ele><time>2022-11-06T15:21:59.0000000+00:00</time></trkpt><trkpt lat="39.46063296" lon="-0.38174364"><ele>26.0</ele><time>2022-11-06T15:22:00.0000000+00:00</time></trkpt><trkpt lat="39.46062416" lon="-0.38176149"><ele>26.0</ele><time>2022-11-06T15:22:01.0000000+00:00</time></trkpt><trkpt lat="39.46061276" lon="-0.38177884"><ele>26.0</ele><time>2022-11-06T15:22:02.0000000+00:00</time></trkpt><trkpt lat="39.46060136" lon="-0.38178999"><ele>26.0</ele><time>2022-11-06T15:22:03.0000000+00:00</time></trkpt><trkpt lat="39.46059097" lon="-0.38179779"><ele>26.0</ele><time>2022-11-06T15:22:04.0000000+00:00</time></trkpt><trkpt lat="39.46058451" lon="-0.38179653"><ele>26.0</ele><time>2022-11-06T15:22:05.0000000+00:00</time></trkpt><trkpt lat="39.46058317" lon="-0.38180843"><ele>25.8</ele><time>2022-11-06T15:22:06.0000000+00:00</time></trkpt><trkpt lat="39.46058149" lon="-0.38182092"><ele>25.8</ele><time>2022-11-06T15:22:07.0000000+00:00</time></trkpt><trkpt lat="39.46058015" lon="-0.38183047"><ele>25.8</ele><time>2022-11-06T15:22:08.0000000+00:00</time></trkpt><trkpt lat="39.46057831" lon="-0.38184657"><ele>25.8</ele><time>2022-11-06T15:22:09.0000000+00:00</time></trkpt><trkpt lat="39.46057512" lon="-0.3818573"><ele>25.8</ele><time>2022-11-06T15:22:10.0000000+00:00</time></trkpt><trkpt lat="39.46056951" lon="-0.38186668"><ele>25.8</ele><time>2022-11-06T15:22:11.0000000+00:00</time></trkpt><trkpt lat="39.4605654" lon="-0.38187448"><ele>25.8</ele><time>2022-11-06T15:22:12.0000000+00:00</time></trkpt><trkpt lat="39.46056297" lon="-0.38188278"><ele>25.8</ele><time>2022-11-06T15:22:13.0000000+00:00</time></trkpt><trkpt lat="39.46055886" lon="-0.38189351"><ele>25.8</ele><time>2022-11-06T15:22:14.0000000+00:00</time></trkpt><trkpt lat="39.46055501" lon="-0.38190281"><ele>25.8</ele><time>2022-11-06T15:22:15.0000000+00:00</time></trkpt><trkpt lat="39.46055333" lon="-0.38191362"><ele>25.8</ele><time>2022-11-06T15:22:16.0000000+00:00</time></trkpt><trkpt lat="39.46055291" lon="-0.38192519"><ele>25.8</ele><time>2022-11-06T15:22:17.0000000+00:00</time></trkpt><trkpt lat="39.46055174" lon="-0.38193743"><ele>25.8</ele><time>2022-11-06T15:22:18.0000000+00:00</time></trkpt><trkpt lat="39.46055065" lon="-0.38194933"><ele>25.8</ele><time>2022-11-06T15:22:19.0000000+00:00</time></trkpt><trkpt lat="39.46054621" lon="-0.38195939"><ele>25.8</ele><time>2022-11-06T15:22:20.0000000+00:00</time></trkpt><trkpt lat="39.46054411" lon="-0.38197255"><ele>25.8</ele><time>2022-11-06T15:22:21.0000000+00:00</time></trkpt><trkpt lat="39.46054042" lon="-0.38198395"><ele>25.6</ele><time>2022-11-06T15:22:22.0000000+00:00</time></trkpt><trkpt lat="39.46054026" lon="-0.38199459"><ele>25.6</ele><time>2022-11-06T15:22:23.0000000+00:00</time></trkpt><trkpt lat="39.46053883" lon="-0.3820049"><ele>25.6</ele><time>2022-11-06T15:22:24.0000000+00:00</time></trkpt><trkpt lat="39.46053523" lon="-0.38201429"><ele>25.6</ele><time>2022-11-06T15:22:25.0000000+00:00</time></trkpt><trkpt lat="39.46053213" lon="-0.38202259"><ele>25.6</ele><time>2022-11-06T15:22:26.0000000+00:00</time></trkpt><trkpt lat="39.46052835" lon="-0.38202946"><ele>25.6</ele><time>2022-11-06T15:22:27.0000000+00:00</time></trkpt><trkpt lat="39.46052441" lon="-0.38203759"><ele>25.6</ele><time>2022-11-06T15:22:28.0000000+00:00</time></trkpt><trkpt lat="39.46052425" lon="-0.38205142"><ele>25.6</ele><time>2022-11-06T15:22:29.0000000+00:00</time></trkpt><trkpt lat="39.46052198" lon="-0.38206358"><ele>25.6</ele><time>2022-11-06T15:22:30.0000000+00:00</time></trkpt><trkpt lat="39.46051729" lon="-0.38207682"><ele>25.6</ele><time>2022-11-06T15:22:31.0000000+00:00</time></trkpt><trkpt lat="39.4605126" lon="-0.38209191"><ele>25.8</ele><time>2022-11-06T15:22:32.0000000+00:00</time></trkpt><trkpt lat="39.46050765" lon="-0.38210331"><ele>25.6</ele><time>2022-11-06T15:22:33.0000000+00:00</time></trkpt><trkpt lat="39.46050262" lon="-0.38211353"><ele>25.6</ele><time>2022-11-06T15:22:34.0000000+00:00</time></trkpt><trkpt lat="39.460496" lon="-0.38212418"><ele>25.6</ele><time>2022-11-06T15:22:35.0000000+00:00</time></trkpt><trkpt lat="39.4604908" lon="-0.38213717"><ele>25.6</ele><time>2022-11-06T15:22:36.0000000+00:00</time></trkpt><trkpt lat="39.46048477" lon="-0.38214664"><ele>25.6</ele><time>2022-11-06T15:22:37.0000000+00:00</time></trkpt><trkpt lat="39.46047773" lon="-0.38215821"><ele>25.6</ele><time>2022-11-06T15:22:38.0000000+00:00</time></trkpt><trkpt lat="39.46047127" lon="-0.3821681"><ele>25.6</ele><time>2022-11-06T15:22:39.0000000+00:00</time></trkpt><trkpt lat="39.46046297" lon="-0.38217589"><ele>25.6</ele><time>2022-11-06T15:22:40.0000000+00:00</time></trkpt><trkpt lat="39.46045593" lon="-0.38218469"><ele>25.6</ele><time>2022-11-06T15:22:41.0000000+00:00</time></trkpt><trkpt lat="39.46044772" lon="-0.38219249"><ele>25.6</ele><time>2022-11-06T15:22:42.0000000+00:00</time></trkpt><trkpt lat="39.46044026" lon="-0.38220489"><ele>25.6</ele><time>2022-11-06T15:22:43.0000000+00:00</time></trkpt><trkpt lat="39.46043297" lon="-0.3822178"><ele>25.6</ele><time>2022-11-06T15:22:44.0000000+00:00</time></trkpt><trkpt lat="39.46042685" lon="-0.38223197"><ele>25.6</ele><time>2022-11-06T15:22:45.0000000+00:00</time></trkpt><trkpt lat="39.46042601" lon="-0.3822463"><ele>25.6</ele><time>2022-11-06T15:22:46.0000000+00:00</time></trkpt><trkpt lat="39.46042324" lon="-0.38225996"><ele>25.6</ele><time>2022-11-06T15:22:47.0000000+00:00</time></trkpt><trkpt lat="39.46041486" lon="-0.38228268"><ele>25.6</ele><time>2022-11-06T15:22:48.0000000+00:00</time></trkpt><trkpt lat="39.46040799" lon="-0.38229978"><ele>25.6</ele><time>2022-11-06T15:22:49.0000000+00:00</time></trkpt><trkpt lat="39.46039927" lon="-0.38231009"><ele>25.6</ele><time>2022-11-06T15:22:50.0000000+00:00</time></trkpt><trkpt lat="39.46039491" lon="-0.3823204"><ele>25.6</ele><time>2022-11-06T15:22:51.0000000+00:00</time></trkpt><trkpt lat="39.4603929" lon="-0.3823287"><ele>25.6</ele><time>2022-11-06T15:22:52.0000000+00:00</time></trkpt><trkpt lat="39.46038586" lon="-0.38233624"><ele>25.6</ele><time>2022-11-06T15:22:53.0000000+00:00</time></trkpt><trkpt lat="39.4603888" lon="-0.38234127"><ele>25.6</ele><time>2022-11-06T15:22:54.0000000+00:00</time></trkpt><trkpt lat="39.46038737" lon="-0.38235409"><ele>25.6</ele><time>2022-11-06T15:22:55.0000000+00:00</time></trkpt><trkpt lat="39.460381" lon="-0.3823758"><ele>25.6</ele><time>2022-11-06T15:22:56.0000000+00:00</time></trkpt><trkpt lat="39.46037119" lon="-0.38239433"><ele>25.8</ele><time>2022-11-06T15:22:57.0000000+00:00</time></trkpt><trkpt lat="39.46036172" lon="-0.38240589"><ele>25.8</ele><time>2022-11-06T15:22:58.0000000+00:00</time></trkpt><trkpt lat="39.46035351" lon="-0.38241637"><ele>26.0</ele><time>2022-11-06T15:22:59.0000000+00:00</time></trkpt><trkpt lat="39.4603458" lon="-0.38242467"><ele>26.0</ele><time>2022-11-06T15:23:00.0000000+00:00</time></trkpt><trkpt lat="39.46033783" lon="-0.38242986"><ele>26.2</ele><time>2022-11-06T15:23:01.0000000+00:00</time></trkpt><trkpt lat="39.46033012" lon="-0.38243808"><ele>26.0</ele><time>2022-11-06T15:23:02.0000000+00:00</time></trkpt><trkpt lat="39.46032182" lon="-0.38244956"><ele>26.0</ele><time>2022-11-06T15:23:03.0000000+00:00</time></trkpt><trkpt lat="39.46031436" lon="-0.38246339"><ele>26.0</ele><time>2022-11-06T15:23:04.0000000+00:00</time></trkpt><trkpt lat="39.46030975" lon="-0.38247345"><ele>26.0</ele><time>2022-11-06T15:23:05.0000000+00:00</time></trkpt><trkpt lat="39.46030648" lon="-0.38248426"><ele>25.8</ele><time>2022-11-06T15:23:06.0000000+00:00</time></trkpt><trkpt lat="39.46029886" lon="-0.38249072"><ele>25.6</ele><time>2022-11-06T15:23:07.0000000+00:00</time></trkpt><trkpt lat="39.46029307" lon="-0.382497"><ele>25.6</ele><time>2022-11-06T15:23:08.0000000+00:00</time></trkpt><trkpt lat="39.46028897" lon="-0.38250472"><ele>25.4</ele><time>2022-11-06T15:23:09.0000000+00:00</time></trkpt><trkpt lat="39.46028662" lon="-0.38251385"><ele>25.4</ele><time>2022-11-06T15:23:10.0000000+00:00</time></trkpt><trkpt lat="39.46028385" lon="-0.38252022"><ele>25.4</ele><time>2022-11-06T15:23:11.0000000+00:00</time></trkpt><trkpt lat="39.46027966" lon="-0.38253011"><ele>25.4</ele><time>2022-11-06T15:23:12.0000000+00:00</time></trkpt><trkpt lat="39.46027438" lon="-0.38254025"><ele>25.4</ele><time>2022-11-06T15:23:13.0000000+00:00</time></trkpt><trkpt lat="39.46026776" lon="-0.38254805"><ele>25.4</ele><time>2022-11-06T15:23:14.0000000+00:00</time></trkpt><trkpt lat="39.46026449" lon="-0.38255987"><ele>25.4</ele><time>2022-11-06T15:23:15.0000000+00:00</time></trkpt><trkpt lat="39.46026022" lon="-0.38257278"><ele>25.2</ele><time>2022-11-06T15:23:16.0000000+00:00</time></trkpt><trkpt lat="39.46025829" lon="-0.38258418"><ele>25.2</ele><time>2022-11-06T15:23:17.0000000+00:00</time></trkpt><trkpt lat="39.46025292" lon="-0.38259449"><ele>25.2</ele><time>2022-11-06T15:23:18.0000000+00:00</time></trkpt><trkpt lat="39.46024739" lon="-0.38260186"><ele>25.2</ele><time>2022-11-06T15:23:19.0000000+00:00</time></trkpt><trkpt lat="39.46024094" lon="-0.38260731"><ele>25.2</ele><time>2022-11-06T15:23:20.0000000+00:00</time></trkpt><trkpt lat="39.46023834" lon="-0.3826151"><ele>25.2</ele><time>2022-11-06T15:23:21.0000000+00:00</time></trkpt><trkpt lat="39.46023725" lon="-0.38262634"><ele>25.2</ele><time>2022-11-06T15:23:22.0000000+00:00</time></trkpt><trkpt lat="39.46023541" lon="-0.38263673"><ele>25.2</ele><time>2022-11-06T15:23:23.0000000+00:00</time></trkpt><trkpt lat="39.46023557" lon="-0.38264905"><ele>25.2</ele><time>2022-11-06T15:23:24.0000000+00:00</time></trkpt><trkpt lat="39.46023507" lon="-0.38265785"><ele>25.2</ele><time>2022-11-06T15:23:25.0000000+00:00</time></trkpt><trkpt lat="39.46023205" lon="-0.38266053"><ele>25.2</ele><time>2022-11-06T15:23:26.0000000+00:00</time></trkpt><trkpt lat="39.46022845" lon="-0.38266749"><ele>25.2</ele><time>2022-11-06T15:23:27.0000000+00:00</time></trkpt><trkpt lat="39.46021873" lon="-0.38267152"><ele>25.0</ele><time>2022-11-06T15:23:28.0000000+00:00</time></trkpt><trkpt lat="39.46020666" lon="-0.38267428"><ele>25.0</ele><time>2022-11-06T15:23:29.0000000+00:00</time></trkpt><trkpt lat="39.46019375" lon="-0.38267646"><ele>25.0</ele><time>2022-11-06T15:23:30.0000000+00:00</time></trkpt><trkpt lat="39.46018168" lon="-0.38268241"><ele>25.0</ele><time>2022-11-06T15:23:31.0000000+00:00</time></trkpt><trkpt lat="39.46016827" lon="-0.38268727"><ele>25.0</ele><time>2022-11-06T15:23:32.0000000+00:00</time></trkpt><trkpt lat="39.4601572" lon="-0.38269406"><ele>25.0</ele><time>2022-11-06T15:23:33.0000000+00:00</time></trkpt><trkpt lat="39.46015276" lon="-0.38270102"><ele>25.0</ele><time>2022-11-06T15:23:34.0000000+00:00</time></trkpt><trkpt lat="39.46014522" lon="-0.38270538"><ele>25.0</ele><time>2022-11-06T15:23:35.0000000+00:00</time></trkpt><trkpt lat="39.46013021" lon="-0.38270697"><ele>25.2</ele><time>2022-11-06T15:23:36.0000000+00:00</time></trkpt><trkpt lat="39.46012292" lon="-0.38270923"><ele>25.0</ele><time>2022-11-06T15:23:37.0000000+00:00</time></trkpt><trkpt lat="39.46011194" lon="-0.38271091"><ele>25.0</ele><time>2022-11-06T15:23:38.0000000+00:00</time></trkpt><trkpt lat="39.46010012" lon="-0.38271125"><ele>25.0</ele><time>2022-11-06T15:23:39.0000000+00:00</time></trkpt><trkpt lat="39.46008914" lon="-0.38271334"><ele>25.0</ele><time>2022-11-06T15:23:40.0000000+00:00</time></trkpt><trkpt lat="39.46007791" lon="-0.38271594"><ele>25.2</ele><time>2022-11-06T15:23:41.0000000+00:00</time></trkpt><trkpt lat="39.46006517" lon="-0.38271904"><ele>25.2</ele><time>2022-11-06T15:23:42.0000000+00:00</time></trkpt><trkpt lat="39.46005687" lon="-0.38271929"><ele>25.2</ele><time>2022-11-06T15:23:43.0000000+00:00</time></trkpt><trkpt lat="39.46005025" lon="-0.38272214"><ele>25.2</ele><time>2022-11-06T15:23:44.0000000+00:00</time></trkpt><trkpt lat="39.46004271" lon="-0.38272189"><ele>25.2</ele><time>2022-11-06T15:23:45.0000000+00:00</time></trkpt><trkpt lat="39.460036" lon="-0.38272482"><ele>25.2</ele><time>2022-11-06T15:23:46.0000000+00:00</time></trkpt><trkpt lat="39.46003114" lon="-0.38273027"><ele>25.0</ele><time>2022-11-06T15:23:47.0000000+00:00</time></trkpt><trkpt lat="39.46002175" lon="-0.38273136"><ele>25.0</ele><time>2022-11-06T15:23:48.0000000+00:00</time></trkpt><trkpt lat="39.46001412" lon="-0.38273505"><ele>25.0</ele><time>2022-11-06T15:23:49.0000000+00:00</time></trkpt><trkpt lat="39.46000365" lon="-0.38273882"><ele>25.0</ele><time>2022-11-06T15:23:50.0000000+00:00</time></trkpt><trkpt lat="39.45999241" lon="-0.38274092"><ele>25.0</ele><time>2022-11-06T15:23:51.0000000+00:00</time></trkpt><trkpt lat="39.45998596" lon="-0.38274544"><ele>25.0</ele><time>2022-11-06T15:23:52.0000000+00:00</time></trkpt><trkpt lat="39.45997817" lon="-0.38275098"><ele>25.0</ele><time>2022-11-06T15:23:53.0000000+00:00</time></trkpt><trkpt lat="39.45996769" lon="-0.38275567"><ele>25.0</ele><time>2022-11-06T15:23:54.0000000+00:00</time></trkpt><trkpt lat="39.45995947" lon="-0.38276045"><ele>25.0</ele><time>2022-11-06T15:23:55.0000000+00:00</time></trkpt><trkpt lat="39.45995352" lon="-0.38276799"><ele>25.0</ele><time>2022-11-06T15:23:56.0000000+00:00</time></trkpt><trkpt lat="39.45994875" lon="-0.38277713"><ele>25.0</ele><time>2022-11-06T15:23:57.0000000+00:00</time></trkpt><trkpt lat="39.45994606" lon="-0.38278408"><ele>25.0</ele><time>2022-11-06T15:23:58.0000000+00:00</time></trkpt><trkpt lat="39.45994464" lon="-0.38278836"><ele>25.0</ele><time>2022-11-06T15:23:59.0000000+00:00</time></trkpt><trkpt lat="39.45994338" lon="-0.38279079"><ele>25.0</ele><time>2022-11-06T15:24:00.0000000+00:00</time></trkpt><trkpt lat="39.45994263" lon="-0.38279171"><ele>25.0</ele><time>2022-11-06T15:24:01.0000000+00:00</time></trkpt><trkpt lat="39.45994212" lon="-0.38279171"><ele>25.0</ele><time>2022-11-06T15:24:02.0000000+00:00</time></trkpt><trkpt lat="39.45994246" lon="-0.38279138"><ele>25.2</ele><time>2022-11-06T15:24:03.0000000+00:00</time></trkpt><trkpt lat="39.45994279" lon="-0.38279012"><ele>25.2</ele><time>2022-11-06T15:24:04.0000000+00:00</time></trkpt><trkpt lat="39.45994346" lon="-0.38278903"><ele>25.2</ele><time>2022-11-06T15:24:05.0000000+00:00</time></trkpt><trkpt lat="39.45994388" lon="-0.38279154"><ele>25.4</ele><time>2022-11-06T15:24:06.0000000+00:00</time></trkpt><trkpt lat="39.45994346" lon="-0.38279238"><ele>25.4</ele><time>2022-11-06T15:24:07.0000000+00:00</time></trkpt><trkpt lat="39.45994338" lon="-0.38279465"><ele>25.4</ele><time>2022-11-06T15:24:08.0000000+00:00</time></trkpt><trkpt lat="39.45994296" lon="-0.38279599"><ele>25.4</ele><time>2022-11-06T15:24:09.0000000+00:00</time></trkpt><trkpt lat="39.45994296" lon="-0.38279599"><ele>25.4</ele><time>2022-11-06T15:24:10.0000000+00:00</time></trkpt><trkpt lat="39.45994296" lon="-0.38279599"><ele>25.4</ele><time>2022-11-06T15:24:11.0000000+00:00</time></trkpt><trkpt lat="39.45994296" lon="-0.38279599"><ele>25.2</ele><time>2022-11-06T15:24:12.0000000+00:00</time></trkpt><trkpt lat="39.45994296" lon="-0.38279599"><ele>25.2</ele><time>2022-11-06T15:24:13.0000000+00:00</time></trkpt><trkpt lat="39.45994296" lon="-0.38279599"><ele>25.2</ele><time>2022-11-06T15:24:14.0000000+00:00</time></trkpt><trkpt lat="39.45994296" lon="-0.38279599"><ele>25.2</ele><time>2022-11-06T15:24:15.0000000+00:00</time></trkpt><trkpt lat="39.45994296" lon="-0.38279599"><ele>25.2</ele><time>2022-11-06T15:24:16.0000000+00:00</time></trkpt><trkpt lat="39.45994296" lon="-0.38279599"><ele>25.2</ele><time>2022-11-06T15:24:17.0000000+00:00</time></trkpt><trkpt lat="39.45994296" lon="-0.38279599"><ele>25.2</ele><time>2022-11-06T15:24:18.0000000+00:00</time></trkpt><trkpt lat="39.45994296" lon="-0.38279599"><ele>25.2</ele><time>2022-11-06T15:24:19.0000000+00:00</time></trkpt><trkpt lat="39.45994296" lon="-0.38279599"><ele>25.2</ele><time>2022-11-06T15:24:20.0000000+00:00</time></trkpt><trkpt lat="39.45994321" lon="-0.38279599"><ele>25.2</ele><time>2022-11-06T15:24:21.0000000+00:00</time></trkpt><trkpt lat="39.45994338" lon="-0.38279599"><ele>25.2</ele><time>2022-11-06T15:24:22.0000000+00:00</time></trkpt><trkpt lat="39.45994346" lon="-0.38279599"><ele>25.2</ele><time>2022-11-06T15:24:23.0000000+00:00</time></trkpt><trkpt lat="39.45994464" lon="-0.38280127"><ele>25.2</ele><time>2022-11-06T15:24:24.0000000+00:00</time></trkpt><trkpt lat="39.45994732" lon="-0.38282046"><ele>25.2</ele><time>2022-11-06T15:24:25.0000000+00:00</time></trkpt><trkpt lat="39.45995067" lon="-0.38283915"><ele>25.2</ele><time>2022-11-06T15:24:26.0000000+00:00</time></trkpt><trkpt lat="39.45995562" lon="-0.38285902"><ele>25.2</ele><time>2022-11-06T15:24:27.0000000+00:00</time></trkpt><trkpt lat="39.45996048" lon="-0.38287268"><ele>25.2</ele><time>2022-11-06T15:24:28.0000000+00:00</time></trkpt><trkpt lat="39.45996182" lon="-0.38288894"><ele>25.2</ele><time>2022-11-06T15:24:29.0000000+00:00</time></trkpt><trkpt lat="39.4599666" lon="-0.38290839"><ele>25.2</ele><time>2022-11-06T15:24:30.0000000+00:00</time></trkpt><trkpt lat="39.45997146" lon="-0.38292406"><ele>25.2</ele><time>2022-11-06T15:24:31.0000000+00:00</time></trkpt><trkpt lat="39.45997733" lon="-0.3829399"><ele>25.2</ele><time>2022-11-06T15:24:32.0000000+00:00</time></trkpt><trkpt lat="39.45998361" lon="-0.38295323"><ele>25.2</ele><time>2022-11-06T15:24:33.0000000+00:00</time></trkpt><trkpt lat="39.45998864" lon="-0.3829586"><ele>25.2</ele><time>2022-11-06T15:24:34.0000000+00:00</time></trkpt><trkpt lat="39.45999602" lon="-0.38296966"><ele>25.4</ele><time>2022-11-06T15:24:35.0000000+00:00</time></trkpt><trkpt lat="39.46000306" lon="-0.38297821"><ele>25.4</ele><time>2022-11-06T15:24:36.0000000+00:00</time></trkpt><trkpt lat="39.46000859" lon="-0.38298617"><ele>25.6</ele><time>2022-11-06T15:24:37.0000000+00:00</time></trkpt><trkpt lat="39.46001555" lon="-0.38299472"><ele>25.6</ele><time>2022-11-06T15:24:38.0000000+00:00</time></trkpt><trkpt lat="39.46001848" lon="-0.38299439"><ele>25.6</ele><time>2022-11-06T15:24:39.0000000+00:00</time></trkpt><trkpt lat="39.46002309" lon="-0.38299254"><ele>25.8</ele><time>2022-11-06T15:24:40.0000000+00:00</time></trkpt><trkpt lat="39.46002846" lon="-0.38299749"><ele>26.2</ele><time>2022-11-06T15:24:41.0000000+00:00</time></trkpt><trkpt lat="39.46003466" lon="-0.38301081"><ele>26.4</ele><time>2022-11-06T15:24:42.0000000+00:00</time></trkpt><trkpt lat="39.46004019" lon="-0.38302858"><ele>26.4</ele><time>2022-11-06T15:24:43.0000000+00:00</time></trkpt><trkpt lat="39.46004648" lon="-0.38303998"><ele>26.6</ele><time>2022-11-06T15:24:44.0000000+00:00</time></trkpt><trkpt lat="39.46004983" lon="-0.38304426"><ele>26.6</ele><time>2022-11-06T15:24:45.0000000+00:00</time></trkpt><trkpt lat="39.46005176" lon="-0.38304946"><ele>26.6</ele><time>2022-11-06T15:24:46.0000000+00:00</time></trkpt><trkpt lat="39.46005318" lon="-0.38306035"><ele>26.6</ele><time>2022-11-06T15:24:47.0000000+00:00</time></trkpt><trkpt lat="39.46005721" lon="-0.38306396"><ele>26.6</ele><time>2022-11-06T15:24:48.0000000+00:00</time></trkpt><trkpt lat="39.46005888" lon="-0.38307427"><ele>26.6</ele><time>2022-11-06T15:24:49.0000000+00:00</time></trkpt><trkpt lat="39.46006115" lon="-0.38307795"><ele>26.6</ele><time>2022-11-06T15:24:50.0000000+00:00</time></trkpt><trkpt lat="39.46005637" lon="-0.38308533"><ele>26.6</ele><time>2022-11-06T15:24:51.0000000+00:00</time></trkpt><trkpt lat="39.46005511" lon="-0.38308868"><ele>26.6</ele><time>2022-11-06T15:24:52.0000000+00:00</time></trkpt><trkpt lat="39.46006031" lon="-0.38309514"><ele>26.6</ele><time>2022-11-06T15:24:53.0000000+00:00</time></trkpt><trkpt lat="39.46007188" lon="-0.3831083"><ele>26.6</ele><time>2022-11-06T15:24:54.0000000+00:00</time></trkpt><trkpt lat="39.46007959" lon="-0.38311559"><ele>26.6</ele><time>2022-11-06T15:24:55.0000000+00:00</time></trkpt><trkpt lat="39.46008193" lon="-0.38312883"><ele>26.6</ele><time>2022-11-06T15:24:56.0000000+00:00</time></trkpt><trkpt lat="39.4600769" lon="-0.38314073"><ele>26.6</ele><time>2022-11-06T15:24:57.0000000+00:00</time></trkpt><trkpt lat="39.46007581" lon="-0.38314769"><ele>26.6</ele><time>2022-11-06T15:24:58.0000000+00:00</time></trkpt><trkpt lat="39.4600738" lon="-0.38315389"><ele>26.4</ele><time>2022-11-06T15:24:59.0000000+00:00</time></trkpt><trkpt lat="39.46006618" lon="-0.38316479"><ele>26.4</ele><time>2022-11-06T15:25:00.0000000+00:00</time></trkpt><trkpt lat="39.46005981" lon="-0.3831699"><ele>26.4</ele><time>2022-11-06T15:25:01.0000000+00:00</time></trkpt><trkpt lat="39.46005293" lon="-0.38317795"><ele>26.4</ele><time>2022-11-06T15:25:02.0000000+00:00</time></trkpt><trkpt lat="39.46004463" lon="-0.38318164"><ele>26.4</ele><time>2022-11-06T15:25:03.0000000+00:00</time></trkpt><trkpt lat="39.46003491" lon="-0.38318985"><ele>26.4</ele><time>2022-11-06T15:25:04.0000000+00:00</time></trkpt><trkpt lat="39.46003072" lon="-0.38319555"><ele>26.4</ele><time>2022-11-06T15:25:05.0000000+00:00</time></trkpt><trkpt lat="39.46002888" lon="-0.38319698"><ele>26.4</ele><time>2022-11-06T15:25:06.0000000+00:00</time></trkpt><trkpt lat="39.46002301" lon="-0.38320603"><ele>26.4</ele><time>2022-11-06T15:25:07.0000000+00:00</time></trkpt><trkpt lat="39.46001488" lon="-0.38321282"><ele>26.4</ele><time>2022-11-06T15:25:08.0000000+00:00</time></trkpt><trkpt lat="39.4600075" lon="-0.38322288"><ele>26.4</ele><time>2022-11-06T15:25:09.0000000+00:00</time></trkpt><trkpt lat="39.45999971" lon="-0.38323151"><ele>26.4</ele><time>2022-11-06T15:25:10.0000000+00:00</time></trkpt><trkpt lat="39.45999275" lon="-0.38323738"><ele>26.4</ele><time>2022-11-06T15:25:11.0000000+00:00</time></trkpt><trkpt lat="39.45999124" lon="-0.38324039"><ele>26.4</ele><time>2022-11-06T15:25:12.0000000+00:00</time></trkpt><trkpt lat="39.4599863" lon="-0.38324257"><ele>26.2</ele><time>2022-11-06T15:25:13.0000000+00:00</time></trkpt><trkpt lat="39.45998085" lon="-0.38324433"><ele>26.2</ele><time>2022-11-06T15:25:14.0000000+00:00</time></trkpt><trkpt lat="39.45997842" lon="-0.38324735"><ele>26.2</ele><time>2022-11-06T15:25:15.0000000+00:00</time></trkpt><trkpt lat="39.45997188" lon="-0.38325599"><ele>26.2</ele><time>2022-11-06T15:25:16.0000000+00:00</time></trkpt><trkpt lat="39.45996693" lon="-0.38326504"><ele>26.2</ele><time>2022-11-06T15:25:17.0000000+00:00</time></trkpt><trkpt lat="39.45996115" lon="-0.38327677"><ele>26.2</ele><time>2022-11-06T15:25:18.0000000+00:00</time></trkpt><trkpt lat="39.45994992" lon="-0.38329186"><ele>26.2</ele><time>2022-11-06T15:25:19.0000000+00:00</time></trkpt><trkpt lat="39.45993869" lon="-0.38330292"><ele>26.2</ele><time>2022-11-06T15:25:20.0000000+00:00</time></trkpt><trkpt lat="39.45993374" lon="-0.38331105"><ele>26.2</ele><time>2022-11-06T15:25:21.0000000+00:00</time></trkpt><trkpt lat="39.45992771" lon="-0.38331566"><ele>26.2</ele><time>2022-11-06T15:25:22.0000000+00:00</time></trkpt><trkpt lat="39.45992259" lon="-0.38332773"><ele>26.2</ele><time>2022-11-06T15:25:23.0000000+00:00</time></trkpt><trkpt lat="39.45992108" lon="-0.38333737"><ele>26.2</ele><time>2022-11-06T15:25:24.0000000+00:00</time></trkpt><trkpt lat="39.45992" lon="-0.38334969"><ele>26.2</ele><time>2022-11-06T15:25:25.0000000+00:00</time></trkpt><trkpt lat="39.45991807" lon="-0.38336151"><ele>26.2</ele><time>2022-11-06T15:25:26.0000000+00:00</time></trkpt><trkpt lat="39.45991136" lon="-0.38337333"><ele>26.2</ele><time>2022-11-06T15:25:27.0000000+00:00</time></trkpt><trkpt lat="39.45991145" lon="-0.38338054"><ele>26.0</ele><time>2022-11-06T15:25:28.0000000+00:00</time></trkpt><trkpt lat="39.45991321" lon="-0.38338624"><ele>26.0</ele><time>2022-11-06T15:25:29.0000000+00:00</time></trkpt><trkpt lat="39.45991664" lon="-0.38339596"><ele>26.2</ele><time>2022-11-06T15:25:30.0000000+00:00</time></trkpt><trkpt lat="39.45992083" lon="-0.38340527"><ele>26.2</ele><time>2022-11-06T15:25:31.0000000+00:00</time></trkpt><trkpt lat="39.45992142" lon="-0.38341943"><ele>26.2</ele><time>2022-11-06T15:25:32.0000000+00:00</time></trkpt><trkpt lat="39.45991748" lon="-0.38343242"><ele>26.0</ele><time>2022-11-06T15:25:33.0000000+00:00</time></trkpt><trkpt lat="39.45991731" lon="-0.38344315"><ele>26.0</ele><time>2022-11-06T15:25:34.0000000+00:00</time></trkpt><trkpt lat="39.45991078" lon="-0.38345405"><ele>26.0</ele><time>2022-11-06T15:25:35.0000000+00:00</time></trkpt><trkpt lat="39.45990189" lon="-0.38347006"><ele>26.2</ele><time>2022-11-06T15:25:36.0000000+00:00</time></trkpt><trkpt lat="39.45989217" lon="-0.38348339"><ele>26.0</ele><time>2022-11-06T15:25:37.0000000+00:00</time></trkpt><trkpt lat="39.45988731" lon="-0.38349168"><ele>26.2</ele><time>2022-11-06T15:25:38.0000000+00:00</time></trkpt><trkpt lat="39.45990063" lon="-0.38350208"><ele>26.2</ele><time>2022-11-06T15:25:39.0000000+00:00</time></trkpt><trkpt lat="39.4599013" lon="-0.38351079"><ele>26.2</ele><time>2022-11-06T15:25:40.0000000+00:00</time></trkpt><trkpt lat="39.45990415" lon="-0.38352211"><ele>26.2</ele><time>2022-11-06T15:25:41.0000000+00:00</time></trkpt><trkpt lat="39.45990784" lon="-0.38353141"><ele>26.2</ele><time>2022-11-06T15:25:42.0000000+00:00</time></trkpt><trkpt lat="39.4599044" lon="-0.38354164"><ele>26.2</ele><time>2022-11-06T15:25:43.0000000+00:00</time></trkpt><trkpt lat="39.45990097" lon="-0.38354784"><ele>26.2</ele><time>2022-11-06T15:25:44.0000000+00:00</time></trkpt><trkpt lat="39.45990239" lon="-0.38355136"><ele>26.2</ele><time>2022-11-06T15:25:45.0000000+00:00</time></trkpt><trkpt lat="39.45988974" lon="-0.38355296"><ele>26.2</ele><time>2022-11-06T15:25:46.0000000+00:00</time></trkpt><trkpt lat="39.4598775" lon="-0.38355933"><ele>26.2</ele><time>2022-11-06T15:25:47.0000000+00:00</time></trkpt><trkpt lat="39.45986945" lon="-0.38357056"><ele>26.2</ele><time>2022-11-06T15:25:48.0000000+00:00</time></trkpt><trkpt lat="39.45986493" lon="-0.38358112"><ele>26.4</ele><time>2022-11-06T15:25:49.0000000+00:00</time></trkpt><trkpt lat="39.45986283" lon="-0.38359277"><ele>26.4</ele><time>2022-11-06T15:25:50.0000000+00:00</time></trkpt><trkpt lat="39.45986811" lon="-0.38360417"><ele>26.6</ele><time>2022-11-06T15:25:51.0000000+00:00</time></trkpt><trkpt lat="39.45986928" lon="-0.38361423"><ele>26.6</ele><time>2022-11-06T15:25:52.0000000+00:00</time></trkpt><trkpt lat="39.45986426" lon="-0.38362026"><ele>26.6</ele><time>2022-11-06T15:25:53.0000000+00:00</time></trkpt><trkpt lat="39.45986023" lon="-0.3836289"><ele>26.6</ele><time>2022-11-06T15:25:54.0000000+00:00</time></trkpt><trkpt lat="39.45985646" lon="-0.38363803"><ele>26.8</ele><time>2022-11-06T15:25:55.0000000+00:00</time></trkpt><trkpt lat="39.45985478" lon="-0.38364834"><ele>26.8</ele><time>2022-11-06T15:25:56.0000000+00:00</time></trkpt><trkpt lat="39.4598542" lon="-0.38365983"><ele>26.6</ele><time>2022-11-06T15:25:57.0000000+00:00</time></trkpt><trkpt lat="39.45984942" lon="-0.38366511"><ele>26.6</ele><time>2022-11-06T15:25:58.0000000+00:00</time></trkpt><trkpt lat="39.45984003" lon="-0.38367307"><ele>26.6</ele><time>2022-11-06T15:25:59.0000000+00:00</time></trkpt><trkpt lat="39.45983106" lon="-0.38367986"><ele>26.4</ele><time>2022-11-06T15:26:00.0000000+00:00</time></trkpt><trkpt lat="39.45983081" lon="-0.38368749"><ele>26.4</ele><time>2022-11-06T15:26:01.0000000+00:00</time></trkpt><trkpt lat="39.45982972" lon="-0.38369528"><ele>26.4</ele><time>2022-11-06T15:26:02.0000000+00:00</time></trkpt><trkpt lat="39.45983324" lon="-0.38370098"><ele>26.4</ele><time>2022-11-06T15:26:03.0000000+00:00</time></trkpt><trkpt lat="39.45982603" lon="-0.38371221"><ele>26.4</ele><time>2022-11-06T15:26:04.0000000+00:00</time></trkpt><trkpt lat="39.45982914" lon="-0.38372353"><ele>26.4</ele><time>2022-11-06T15:26:05.0000000+00:00</time></trkpt><trkpt lat="39.45983349" lon="-0.38373183"><ele>26.6</ele><time>2022-11-06T15:26:06.0000000+00:00</time></trkpt><trkpt lat="39.45982729" lon="-0.3837418"><ele>26.6</ele><time>2022-11-06T15:26:07.0000000+00:00</time></trkpt><trkpt lat="39.45981933" lon="-0.38375337"><ele>26.6</ele><time>2022-11-06T15:26:08.0000000+00:00</time></trkpt><trkpt lat="39.45981187" lon="-0.38377298"><ele>26.6</ele><time>2022-11-06T15:26:09.0000000+00:00</time></trkpt><trkpt lat="39.45980625" lon="-0.38378547"><ele>26.6</ele><time>2022-11-06T15:26:10.0000000+00:00</time></trkpt><trkpt lat="39.45980567" lon="-0.38379989"><ele>26.6</ele><time>2022-11-06T15:26:11.0000000+00:00</time></trkpt><trkpt lat="39.45980449" lon="-0.38380844"><ele>26.6</ele><time>2022-11-06T15:26:12.0000000+00:00</time></trkpt><trkpt lat="39.45980022" lon="-0.38381648"><ele>26.8</ele><time>2022-11-06T15:26:13.0000000+00:00</time></trkpt><trkpt lat="39.45979326" lon="-0.38382495"><ele>26.8</ele><time>2022-11-06T15:26:14.0000000+00:00</time></trkpt><trkpt lat="39.45978354" lon="-0.38382989"><ele>26.8</ele><time>2022-11-06T15:26:15.0000000+00:00</time></trkpt><trkpt lat="39.45977558" lon="-0.38383836"><ele>26.8</ele><time>2022-11-06T15:26:16.0000000+00:00</time></trkpt><trkpt lat="39.45977164" lon="-0.38384909"><ele>26.8</ele><time>2022-11-06T15:26:17.0000000+00:00</time></trkpt><trkpt lat="39.45976694" lon="-0.38386443"><ele>27.0</ele><time>2022-11-06T15:26:18.0000000+00:00</time></trkpt><trkpt lat="39.45975764" lon="-0.38387382"><ele>27.0</ele><time>2022-11-06T15:26:19.0000000+00:00</time></trkpt><trkpt lat="39.45974741" lon="-0.38388572"><ele>27.0</ele><time>2022-11-06T15:26:20.0000000+00:00</time></trkpt><trkpt lat="39.45973677" lon="-0.38389829"><ele>27.0</ele><time>2022-11-06T15:26:21.0000000+00:00</time></trkpt><trkpt lat="39.45973769" lon="-0.38391925"><ele>27.0</ele><time>2022-11-06T15:26:22.0000000+00:00</time></trkpt><trkpt lat="39.45974196" lon="-0.38394372"><ele>27.0</ele><time>2022-11-06T15:26:23.0000000+00:00</time></trkpt><trkpt lat="39.45973928" lon="-0.38395839"><ele>27.0</ele><time>2022-11-06T15:26:24.0000000+00:00</time></trkpt><trkpt lat="39.45973383" lon="-0.38397021"><ele>27.0</ele><time>2022-11-06T15:26:25.0000000+00:00</time></trkpt><trkpt lat="39.4597288" lon="-0.38397901"><ele>27.0</ele><time>2022-11-06T15:26:26.0000000+00:00</time></trkpt><trkpt lat="39.45971657" lon="-0.38399225"><ele>27.0</ele><time>2022-11-06T15:26:27.0000000+00:00</time></trkpt><trkpt lat="39.45970525" lon="-0.3840008"><ele>27.2</ele><time>2022-11-06T15:26:28.0000000+00:00</time></trkpt><trkpt lat="39.45969913" lon="-0.38400994"><ele>27.2</ele><time>2022-11-06T15:26:29.0000000+00:00</time></trkpt><trkpt lat="39.45968891" lon="-0.38401689"><ele>27.2</ele><time>2022-11-06T15:26:30.0000000+00:00</time></trkpt><trkpt lat="39.45968111" lon="-0.3840257"><ele>27.2</ele><time>2022-11-06T15:26:31.0000000+00:00</time></trkpt><trkpt lat="39.45967684" lon="-0.38402896"><ele>27.2</ele><time>2022-11-06T15:26:32.0000000+00:00</time></trkpt><trkpt lat="39.4596537" lon="-0.3840407"><ele>27.2</ele><time>2022-11-06T15:26:33.0000000+00:00</time></trkpt><trkpt lat="39.45961917" lon="-0.38404623"><ele>27.2</ele><time>2022-11-06T15:26:34.0000000+00:00</time></trkpt><trkpt lat="39.45958438" lon="-0.38406878"><ele>27.2</ele><time>2022-11-06T15:26:35.0000000+00:00</time></trkpt><trkpt lat="39.45956016" lon="-0.3840935"><ele>27.2</ele><time>2022-11-06T15:26:36.0000000+00:00</time></trkpt><trkpt lat="39.45954591" lon="-0.3841132"><ele>27.2</ele><time>2022-11-06T15:26:37.0000000+00:00</time></trkpt><trkpt lat="39.45953418" lon="-0.38412502"><ele>27.4</ele><time>2022-11-06T15:26:38.0000000+00:00</time></trkpt><trkpt lat="39.45951574" lon="-0.38413097"><ele>27.4</ele><time>2022-11-06T15:26:39.0000000+00:00</time></trkpt><trkpt lat="39.45949964" lon="-0.38413751"><ele>27.4</ele><time>2022-11-06T15:26:40.0000000+00:00</time></trkpt><trkpt lat="39.45948598" lon="-0.38414472"><ele>27.4</ele><time>2022-11-06T15:26:41.0000000+00:00</time></trkpt><trkpt lat="39.45947735" lon="-0.3841562"><ele>27.4</ele><time>2022-11-06T15:26:42.0000000+00:00</time></trkpt><trkpt lat="39.45946804" lon="-0.38416819"><ele>27.4</ele><time>2022-11-06T15:26:43.0000000+00:00</time></trkpt><trkpt lat="39.45946075" lon="-0.38418973"><ele>27.4</ele><time>2022-11-06T15:26:44.0000000+00:00</time></trkpt><trkpt lat="39.45946268" lon="-0.38422435"><ele>27.4</ele><time>2022-11-06T15:26:45.0000000+00:00</time></trkpt><trkpt lat="39.45946779" lon="-0.38425167"><ele>27.4</ele><time>2022-11-06T15:26:46.0000000+00:00</time></trkpt><trkpt lat="39.45946871" lon="-0.38425922"><ele>27.6</ele><time>2022-11-06T15:26:47.0000000+00:00</time></trkpt><trkpt lat="39.45946913" lon="-0.38426139"><ele>27.6</ele><time>2022-11-06T15:26:48.0000000+00:00</time></trkpt><trkpt lat="39.4594693" lon="-0.38426156"><ele>27.6</ele><time>2022-11-06T15:26:49.0000000+00:00</time></trkpt><trkpt lat="39.45946888" lon="-0.38426223"><ele>27.6</ele><time>2022-11-06T15:26:50.0000000+00:00</time></trkpt><trkpt lat="39.45946838" lon="-0.38426374"><ele>27.6</ele><time>2022-11-06T15:26:51.0000000+00:00</time></trkpt><trkpt lat="39.45947014" lon="-0.384266"><ele>27.8</ele><time>2022-11-06T15:26:52.0000000+00:00</time></trkpt><trkpt lat="39.4594714" lon="-0.38426785"><ele>27.8</ele><time>2022-11-06T15:26:53.0000000+00:00</time></trkpt><trkpt lat="39.45947316" lon="-0.38427003"><ele>27.8</ele><time>2022-11-06T15:26:54.0000000+00:00</time></trkpt><trkpt lat="39.45947349" lon="-0.38428025"><ele>27.8</ele><time>2022-11-06T15:26:55.0000000+00:00</time></trkpt><trkpt lat="39.45947693" lon="-0.38428252"><ele>28.0</ele><time>2022-11-06T15:26:56.0000000+00:00</time></trkpt><trkpt lat="39.4594771" lon="-0.38427849"><ele>28.0</ele><time>2022-11-06T15:26:57.0000000+00:00</time></trkpt><trkpt lat="39.45947659" lon="-0.38427958"><ele>28.0</ele><time>2022-11-06T15:26:58.0000000+00:00</time></trkpt><trkpt lat="39.45947601" lon="-0.38428126"><ele>28.0</ele><time>2022-11-06T15:26:59.0000000+00:00</time></trkpt><trkpt lat="39.45947601" lon="-0.3842795"><ele>28.0</ele><time>2022-11-06T15:27:00.0000000+00:00</time></trkpt><trkpt lat="39.45947542" lon="-0.38429182"><ele>28.0</ele><time>2022-11-06T15:27:01.0000000+00:00</time></trkpt><trkpt lat="39.45947299" lon="-0.38429081"><ele>28.0</ele><time>2022-11-06T15:27:02.0000000+00:00</time></trkpt><trkpt lat="39.45947207" lon="-0.38428847"><ele>28.0</ele><time>2022-11-06T15:27:03.0000000+00:00</time></trkpt><trkpt lat="39.45947022" lon="-0.3842883"><ele>28.0</ele><time>2022-11-06T15:27:04.0000000+00:00</time></trkpt><trkpt lat="39.45947005" lon="-0.38428822"><ele>28.0</ele><time>2022-11-06T15:27:05.0000000+00:00</time></trkpt><trkpt lat="39.45947005" lon="-0.38428822"><ele>28.0</ele><time>2022-11-06T15:27:06.0000000+00:00</time></trkpt><trkpt lat="39.45947005" lon="-0.38428822"><ele>28.0</ele><time>2022-11-06T15:27:07.0000000+00:00</time></trkpt><trkpt lat="39.45947005" lon="-0.38428822"><ele>28.0</ele><time>2022-11-06T15:27:08.0000000+00:00</time></trkpt><trkpt lat="39.45947005" lon="-0.38428822"><ele>28.0</ele><time>2022-11-06T15:27:09.0000000+00:00</time></trkpt><trkpt lat="39.45947005" lon="-0.38428822"><ele>28.0</ele><time>2022-11-06T15:27:10.0000000+00:00</time></trkpt><trkpt lat="39.45947005" lon="-0.38428822"><ele>28.0</ele><time>2022-11-06T15:27:11.0000000+00:00</time></trkpt><trkpt lat="39.45947005" lon="-0.38428822"><ele>28.0</ele><time>2022-11-06T15:27:12.0000000+00:00</time></trkpt><trkpt lat="39.45947005" lon="-0.38428822"><ele>28.0</ele><time>2022-11-06T15:27:13.0000000+00:00</time></trkpt><trkpt lat="39.45947005" lon="-0.38428822"><ele>28.0</ele><time>2022-11-06T15:27:14.0000000+00:00</time></trkpt><trkpt lat="39.45947005" lon="-0.38428822"><ele>28.0</ele><time>2022-11-06T15:27:15.0000000+00:00</time></trkpt><trkpt lat="39.45947005" lon="-0.38428822"><ele>28.0</ele><time>2022-11-06T15:27:16.0000000+00:00</time></trkpt><trkpt lat="39.45947005" lon="-0.38428822"><ele>27.8</ele><time>2022-11-06T15:27:17.0000000+00:00</time></trkpt><trkpt lat="39.45947005" lon="-0.38428822"><ele>27.8</ele><time>2022-11-06T15:27:18.0000000+00:00</time></trkpt><trkpt lat="39.45947005" lon="-0.38428797"><ele>27.8</ele><time>2022-11-06T15:27:19.0000000+00:00</time></trkpt><trkpt lat="39.45947005" lon="-0.38428788"><ele>27.8</ele><time>2022-11-06T15:27:20.0000000+00:00</time></trkpt><trkpt lat="39.45947005" lon="-0.38428788"><ele>27.8</ele><time>2022-11-06T15:27:21.0000000+00:00</time></trkpt><trkpt lat="39.45947005" lon="-0.38428788"><ele>27.8</ele><time>2022-11-06T15:27:22.0000000+00:00</time></trkpt><trkpt lat="39.45947005" lon="-0.38428788"><ele>27.8</ele><time>2022-11-06T15:27:23.0000000+00:00</time></trkpt><trkpt lat="39.45947005" lon="-0.38428788"><ele>27.8</ele><time>2022-11-06T15:27:24.0000000+00:00</time></trkpt><trkpt lat="39.45947022" lon="-0.38428788"><ele>27.8</ele><time>2022-11-06T15:27:25.0000000+00:00</time></trkpt><trkpt lat="39.45947022" lon="-0.38428788"><ele>27.8</ele><time>2022-11-06T15:27:26.0000000+00:00</time></trkpt><trkpt lat="39.45947031" lon="-0.38428788"><ele>27.8</ele><time>2022-11-06T15:27:27.0000000+00:00</time></trkpt><trkpt lat="39.45947031" lon="-0.38428788"><ele>27.8</ele><time>2022-11-06T15:27:28.0000000+00:00</time></trkpt><trkpt lat="39.45947031" lon="-0.38428788"><ele>27.8</ele><time>2022-11-06T15:27:29.0000000+00:00</time></trkpt><trkpt lat="39.45947031" lon="-0.38428788"><ele>27.8</ele><time>2022-11-06T15:27:30.0000000+00:00</time></trkpt><trkpt lat="39.45947031" lon="-0.3842878"><ele>27.8</ele><time>2022-11-06T15:27:31.0000000+00:00</time></trkpt><trkpt lat="39.45947031" lon="-0.38428755"><ele>27.8</ele><time>2022-11-06T15:27:32.0000000+00:00</time></trkpt><trkpt lat="39.45947031" lon="-0.38428738"><ele>27.8</ele><time>2022-11-06T15:27:33.0000000+00:00</time></trkpt><trkpt lat="39.45947056" lon="-0.38428729"><ele>28.0</ele><time>2022-11-06T15:27:34.0000000+00:00</time></trkpt><trkpt lat="39.45947073" lon="-0.38428713"><ele>28.0</ele><time>2022-11-06T15:27:35.0000000+00:00</time></trkpt><trkpt lat="39.45947073" lon="-0.38428696"><ele>28.0</ele><time>2022-11-06T15:27:36.0000000+00:00</time></trkpt><trkpt lat="39.45947114" lon="-0.38428679"><ele>28.0</ele><time>2022-11-06T15:27:37.0000000+00:00</time></trkpt><trkpt lat="39.45947148" lon="-0.38428612"><ele>28.0</ele><time>2022-11-06T15:27:38.0000000+00:00</time></trkpt><trkpt lat="39.45947173" lon="-0.3842857"><ele>28.0</ele><time>2022-11-06T15:27:39.0000000+00:00</time></trkpt><trkpt lat="39.45947257" lon="-0.38428553"><ele>28.0</ele><time>2022-11-06T15:27:40.0000000+00:00</time></trkpt><trkpt lat="39.45947349" lon="-0.38428545"><ele>28.0</ele><time>2022-11-06T15:27:41.0000000+00:00</time></trkpt><trkpt lat="39.45947416" lon="-0.38428486"><ele>28.0</ele><time>2022-11-06T15:27:42.0000000+00:00</time></trkpt><trkpt lat="39.45947777" lon="-0.3842847"><ele>28.0</ele><time>2022-11-06T15:27:43.0000000+00:00</time></trkpt><trkpt lat="39.45947869" lon="-0.38428352"><ele>28.0</ele><time>2022-11-06T15:27:44.0000000+00:00</time></trkpt><trkpt lat="39.4594802" lon="-0.38428168"><ele>28.0</ele><time>2022-11-06T15:27:45.0000000+00:00</time></trkpt><trkpt lat="39.45948112" lon="-0.38427942"><ele>28.0</ele><time>2022-11-06T15:27:46.0000000+00:00</time></trkpt><trkpt lat="39.45948154" lon="-0.38427866"><ele>28.0</ele><time>2022-11-06T15:27:47.0000000+00:00</time></trkpt><trkpt lat="39.45948171" lon="-0.38427816"><ele>28.0</ele><time>2022-11-06T15:27:48.0000000+00:00</time></trkpt><trkpt lat="39.45948187" lon="-0.38427766"><ele>28.0</ele><time>2022-11-06T15:27:49.0000000+00:00</time></trkpt><trkpt lat="39.45948221" lon="-0.38427724"><ele>28.0</ele><time>2022-11-06T15:27:50.0000000+00:00</time></trkpt><trkpt lat="39.45948238" lon="-0.38427707"><ele>28.2</ele><time>2022-11-06T15:27:51.0000000+00:00</time></trkpt><trkpt lat="39.45948271" lon="-0.38427615"><ele>28.2</ele><time>2022-11-06T15:27:52.0000000+00:00</time></trkpt><trkpt lat="39.4594828" lon="-0.38427531"><ele>27.8</ele><time>2022-11-06T15:27:53.0000000+00:00</time></trkpt><trkpt lat="39.45948305" lon="-0.38427497"><ele>27.8</ele><time>2022-11-06T15:27:54.0000000+00:00</time></trkpt><trkpt lat="39.45948321" lon="-0.38427422"><ele>27.8</ele><time>2022-11-06T15:27:55.0000000+00:00</time></trkpt><trkpt lat="39.45948573" lon="-0.38427271"><ele>27.8</ele><time>2022-11-06T15:27:56.0000000+00:00</time></trkpt><trkpt lat="39.45948665" lon="-0.38427204"><ele>27.8</ele><time>2022-11-06T15:27:57.0000000+00:00</time></trkpt><trkpt lat="39.45948774" lon="-0.38427179"><ele>27.8</ele><time>2022-11-06T15:27:58.0000000+00:00</time></trkpt><trkpt lat="39.45948942" lon="-0.3842717"><ele>27.8</ele><time>2022-11-06T15:27:59.0000000+00:00</time></trkpt><trkpt lat="39.45949017" lon="-0.38427154"><ele>27.8</ele><time>2022-11-06T15:28:00.0000000+00:00</time></trkpt><trkpt lat="39.45949059" lon="-0.38427137"><ele>27.8</ele><time>2022-11-06T15:28:01.0000000+00:00</time></trkpt><trkpt lat="39.45949093" lon="-0.3842712"><ele>27.8</ele><time>2022-11-06T15:28:02.0000000+00:00</time></trkpt><trkpt lat="39.45949101" lon="-0.38427078"><ele>27.8</ele><time>2022-11-06T15:28:03.0000000+00:00</time></trkpt><trkpt lat="39.45949151" lon="-0.38427061"><ele>27.8</ele><time>2022-11-06T15:28:04.0000000+00:00</time></trkpt><trkpt lat="39.45949168" lon="-0.38427061"><ele>27.8</ele><time>2022-11-06T15:28:05.0000000+00:00</time></trkpt><trkpt lat="39.45949176" lon="-0.38427061"><ele>27.8</ele><time>2022-11-06T15:28:06.0000000+00:00</time></trkpt><trkpt lat="39.45949185" lon="-0.38427061"><ele>27.8</ele><time>2022-11-06T15:28:07.0000000+00:00</time></trkpt><trkpt lat="39.45949202" lon="-0.38427061"><ele>27.8</ele><time>2022-11-06T15:28:08.0000000+00:00</time></trkpt><trkpt lat="39.45949202" lon="-0.38427061"><ele>27.8</ele><time>2022-11-06T15:28:09.0000000+00:00</time></trkpt><trkpt lat="39.45949202" lon="-0.38427095"><ele>27.8</ele><time>2022-11-06T15:28:10.0000000+00:00</time></trkpt><trkpt lat="39.45949202" lon="-0.38427103"><ele>27.8</ele><time>2022-11-06T15:28:11.0000000+00:00</time></trkpt><trkpt lat="39.45949202" lon="-0.38427112"><ele>27.8</ele><time>2022-11-06T15:28:12.0000000+00:00</time></trkpt><trkpt lat="39.45949202" lon="-0.38427112"><ele>27.8</ele><time>2022-11-06T15:28:13.0000000+00:00</time></trkpt><trkpt lat="39.45949202" lon="-0.38427112"><ele>27.8</ele><time>2022-11-06T15:28:14.0000000+00:00</time></trkpt><trkpt lat="39.45949202" lon="-0.3842712"><ele>27.8</ele><time>2022-11-06T15:28:15.0000000+00:00</time></trkpt><trkpt lat="39.45949193" lon="-0.38427137"><ele>27.8</ele><time>2022-11-06T15:28:16.0000000+00:00</time></trkpt><trkpt lat="39.45949185" lon="-0.38427162"><ele>27.8</ele><time>2022-11-06T15:28:17.0000000+00:00</time></trkpt><trkpt lat="39.45949176" lon="-0.3842717"><ele>27.8</ele><time>2022-11-06T15:28:18.0000000+00:00</time></trkpt><trkpt lat="39.45949168" lon="-0.38427179"><ele>27.8</ele><time>2022-11-06T15:28:19.0000000+00:00</time></trkpt><trkpt lat="39.45949134" lon="-0.38427237"><ele>27.8</ele><time>2022-11-06T15:28:20.0000000+00:00</time></trkpt><trkpt lat="39.45949118" lon="-0.38427363"><ele>27.8</ele><time>2022-11-06T15:28:21.0000000+00:00</time></trkpt><trkpt lat="39.45949109" lon="-0.38427531"><ele>27.8</ele><time>2022-11-06T15:28:22.0000000+00:00</time></trkpt><trkpt lat="39.45949109" lon="-0.38428277"><ele>27.8</ele><time>2022-11-06T15:28:23.0000000+00:00</time></trkpt><trkpt lat="39.45949118" lon="-0.38428688"><ele>27.8</ele><time>2022-11-06T15:28:24.0000000+00:00</time></trkpt><trkpt lat="39.45949126" lon="-0.38428956"><ele>27.8</ele><time>2022-11-06T15:28:25.0000000+00:00</time></trkpt><trkpt lat="39.45949126" lon="-0.38429065"><ele>27.8</ele><time>2022-11-06T15:28:26.0000000+00:00</time></trkpt><trkpt lat="39.45949126" lon="-0.38429182"><ele>27.8</ele><time>2022-11-06T15:28:27.0000000+00:00</time></trkpt><trkpt lat="39.45949126" lon="-0.38429232"><ele>27.8</ele><time>2022-11-06T15:28:28.0000000+00:00</time></trkpt><trkpt lat="39.45949118" lon="-0.38429299"><ele>27.8</ele><time>2022-11-06T15:28:29.0000000+00:00</time></trkpt><trkpt lat="39.45949093" lon="-0.38429341"><ele>27.8</ele><time>2022-11-06T15:28:30.0000000+00:00</time></trkpt><trkpt lat="39.45949084" lon="-0.38429375"><ele>27.8</ele><time>2022-11-06T15:28:31.0000000+00:00</time></trkpt><trkpt lat="39.45949076" lon="-0.38429408"><ele>27.8</ele><time>2022-11-06T15:28:32.0000000+00:00</time></trkpt><trkpt lat="39.45949067" lon="-0.38429475"><ele>27.8</ele><time>2022-11-06T15:28:33.0000000+00:00</time></trkpt><trkpt lat="39.45949059" lon="-0.38429542"><ele>27.8</ele><time>2022-11-06T15:28:34.0000000+00:00</time></trkpt><trkpt lat="39.45949051" lon="-0.3842961"><ele>27.8</ele><time>2022-11-06T15:28:35.0000000+00:00</time></trkpt><trkpt lat="39.45949042" lon="-0.3842971"><ele>27.8</ele><time>2022-11-06T15:28:36.0000000+00:00</time></trkpt><trkpt lat="39.45949034" lon="-0.38429836"><ele>27.8</ele><time>2022-11-06T15:28:37.0000000+00:00</time></trkpt><trkpt lat="39.45949034" lon="-0.38429945"><ele>27.8</ele><time>2022-11-06T15:28:38.0000000+00:00</time></trkpt><trkpt lat="39.45949017" lon="-0.3843002"><ele>27.8</ele><time>2022-11-06T15:28:39.0000000+00:00</time></trkpt><trkpt lat="39.45949009" lon="-0.38430071"><ele>27.8</ele><time>2022-11-06T15:28:40.0000000+00:00</time></trkpt><trkpt lat="39.45949" lon="-0.38430817"><ele>27.8</ele><time>2022-11-06T15:28:41.0000000+00:00</time></trkpt><trkpt lat="39.45948992" lon="-0.38431194"><ele>27.8</ele><time>2022-11-06T15:28:42.0000000+00:00</time></trkpt><trkpt lat="39.45948992" lon="-0.38431412"><ele>27.8</ele><time>2022-11-06T15:28:43.0000000+00:00</time></trkpt><trkpt lat="39.45948992" lon="-0.38431537"><ele>27.8</ele><time>2022-11-06T15:28:44.0000000+00:00</time></trkpt><trkpt lat="39.45948975" lon="-0.38431604"><ele>27.8</ele><time>2022-11-06T15:28:45.0000000+00:00</time></trkpt><trkpt lat="39.45948958" lon="-0.38431646"><ele>27.8</ele><time>2022-11-06T15:28:46.0000000+00:00</time></trkpt><trkpt lat="39.4594895" lon="-0.38431671"><ele>27.8</ele><time>2022-11-06T15:28:47.0000000+00:00</time></trkpt><trkpt lat="39.45948875" lon="-0.38431688"><ele>27.8</ele><time>2022-11-06T15:28:48.0000000+00:00</time></trkpt><trkpt lat="39.45948799" lon="-0.38431697"><ele>27.8</ele><time>2022-11-06T15:28:49.0000000+00:00</time></trkpt><trkpt lat="39.45948732" lon="-0.38431705"><ele>27.8</ele><time>2022-11-06T15:28:50.0000000+00:00</time></trkpt><trkpt lat="39.45948682" lon="-0.38431705"><ele>27.8</ele><time>2022-11-06T15:28:51.0000000+00:00</time></trkpt><trkpt lat="39.45948523" lon="-0.38431713"><ele>27.8</ele><time>2022-11-06T15:28:52.0000000+00:00</time></trkpt><trkpt lat="39.45948397" lon="-0.38431722"><ele>27.8</ele><time>2022-11-06T15:28:53.0000000+00:00</time></trkpt><trkpt lat="39.45948305" lon="-0.3843173"><ele>27.8</ele><time>2022-11-06T15:28:54.0000000+00:00</time></trkpt><trkpt lat="39.45948078" lon="-0.38431739"><ele>27.8</ele><time>2022-11-06T15:28:55.0000000+00:00</time></trkpt><trkpt lat="39.45947877" lon="-0.38431747"><ele>27.8</ele><time>2022-11-06T15:28:56.0000000+00:00</time></trkpt><trkpt lat="39.4594771" lon="-0.38431747"><ele>27.8</ele><time>2022-11-06T15:28:57.0000000+00:00</time></trkpt><trkpt lat="39.45947601" lon="-0.38431755"><ele>27.8</ele><time>2022-11-06T15:28:58.0000000+00:00</time></trkpt><trkpt lat="39.45947534" lon="-0.38431772"><ele>27.8</ele><time>2022-11-06T15:28:59.0000000+00:00</time></trkpt><trkpt lat="39.459475" lon="-0.38431772"><ele>27.8</ele><time>2022-11-06T15:29:00.0000000+00:00</time></trkpt><trkpt lat="39.45947483" lon="-0.3843178"><ele>27.8</ele><time>2022-11-06T15:29:01.0000000+00:00</time></trkpt><trkpt lat="39.45947466" lon="-0.3843178"><ele>27.8</ele><time>2022-11-06T15:29:02.0000000+00:00</time></trkpt><trkpt lat="39.45947425" lon="-0.3843178"><ele>27.8</ele><time>2022-11-06T15:29:03.0000000+00:00</time></trkpt><trkpt lat="39.45947374" lon="-0.38431789"><ele>27.8</ele><time>2022-11-06T15:29:04.0000000+00:00</time></trkpt><trkpt lat="39.45947341" lon="-0.38431806"><ele>27.8</ele><time>2022-11-06T15:29:05.0000000+00:00</time></trkpt><trkpt lat="39.45947316" lon="-0.38431822"><ele>27.8</ele><time>2022-11-06T15:29:06.0000000+00:00</time></trkpt><trkpt lat="39.45947299" lon="-0.38431831"><ele>27.8</ele><time>2022-11-06T15:29:07.0000000+00:00</time></trkpt><trkpt lat="39.45947282" lon="-0.38431856"><ele>27.8</ele><time>2022-11-06T15:29:08.0000000+00:00</time></trkpt><trkpt lat="39.45947274" lon="-0.38431906"><ele>27.8</ele><time>2022-11-06T15:29:09.0000000+00:00</time></trkpt><trkpt lat="39.45947257" lon="-0.3843194"><ele>27.8</ele><time>2022-11-06T15:29:10.0000000+00:00</time></trkpt><trkpt lat="39.45947249" lon="-0.38431956"><ele>27.8</ele><time>2022-11-06T15:29:11.0000000+00:00</time></trkpt><trkpt lat="39.45947223" lon="-0.38431965"><ele>27.8</ele><time>2022-11-06T15:29:12.0000000+00:00</time></trkpt><trkpt lat="39.45947207" lon="-0.38431982"><ele>27.8</ele><time>2022-11-06T15:29:13.0000000+00:00</time></trkpt><trkpt lat="39.4594719" lon="-0.38431998"><ele>27.8</ele><time>2022-11-06T15:29:14.0000000+00:00</time></trkpt><trkpt lat="39.45947181" lon="-0.38432015"><ele>27.8</ele><time>2022-11-06T15:29:15.0000000+00:00</time></trkpt><trkpt lat="39.45947165" lon="-0.38432032"><ele>27.8</ele><time>2022-11-06T15:29:16.0000000+00:00</time></trkpt><trkpt lat="39.4594714" lon="-0.38432057"><ele>27.8</ele><time>2022-11-06T15:29:17.0000000+00:00</time></trkpt><trkpt lat="39.45947106" lon="-0.38432091"><ele>27.8</ele><time>2022-11-06T15:29:18.0000000+00:00</time></trkpt><trkpt lat="39.45947081" lon="-0.38432166"><ele>27.8</ele><time>2022-11-06T15:29:19.0000000+00:00</time></trkpt><trkpt lat="39.45947056" lon="-0.38432216"><ele>27.8</ele><time>2022-11-06T15:29:20.0000000+00:00</time></trkpt><trkpt lat="39.45947039" lon="-0.3843225"><ele>27.8</ele><time>2022-11-06T15:29:21.0000000+00:00</time></trkpt><trkpt lat="39.45947031" lon="-0.38432283"><ele>27.8</ele><time>2022-11-06T15:29:22.0000000+00:00</time></trkpt><trkpt lat="39.45947005" lon="-0.38432736"><ele>27.8</ele><time>2022-11-06T15:29:23.0000000+00:00</time></trkpt><trkpt lat="39.45946989" lon="-0.38433063"><ele>27.8</ele><time>2022-11-06T15:29:24.0000000+00:00</time></trkpt><trkpt lat="39.45946972" lon="-0.38433323"><ele>27.8</ele><time>2022-11-06T15:29:25.0000000+00:00</time></trkpt><trkpt lat="39.45946955" lon="-0.38433583"><ele>27.8</ele><time>2022-11-06T15:29:26.0000000+00:00</time></trkpt><trkpt lat="39.45946947" lon="-0.38433775"><ele>27.8</ele><time>2022-11-06T15:29:27.0000000+00:00</time></trkpt><trkpt lat="39.45946938" lon="-0.38433926"><ele>27.8</ele><time>2022-11-06T15:29:28.0000000+00:00</time></trkpt><trkpt lat="39.4594693" lon="-0.38434035"><ele>27.8</ele><time>2022-11-06T15:29:29.0000000+00:00</time></trkpt><trkpt lat="39.45946896" lon="-0.38434111"><ele>27.8</ele><time>2022-11-06T15:29:30.0000000+00:00</time></trkpt><trkpt lat="39.45946863" lon="-0.38434178"><ele>27.8</ele><time>2022-11-06T15:29:31.0000000+00:00</time></trkpt><trkpt lat="39.45946821" lon="-0.38434228"><ele>27.8</ele><time>2022-11-06T15:29:32.0000000+00:00</time></trkpt><trkpt lat="39.45946771" lon="-0.38434287"><ele>27.8</ele><time>2022-11-06T15:29:33.0000000+00:00</time></trkpt><trkpt lat="39.45946704" lon="-0.38434329"><ele>27.8</ele><time>2022-11-06T15:29:34.0000000+00:00</time></trkpt><trkpt lat="39.45946645" lon="-0.3843437"><ele>27.8</ele><time>2022-11-06T15:29:35.0000000+00:00</time></trkpt><trkpt lat="39.45946561" lon="-0.38434404"><ele>27.8</ele><time>2022-11-06T15:29:36.0000000+00:00</time></trkpt><trkpt lat="39.4594641" lon="-0.3843453"><ele>27.8</ele><time>2022-11-06T15:29:37.0000000+00:00</time></trkpt><trkpt lat="39.45946285" lon="-0.3843463"><ele>27.8</ele><time>2022-11-06T15:29:38.0000000+00:00</time></trkpt><trkpt lat="39.45946201" lon="-0.38434731"><ele>27.8</ele><time>2022-11-06T15:29:39.0000000+00:00</time></trkpt><trkpt lat="39.45946134" lon="-0.38434806"><ele>27.8</ele><time>2022-11-06T15:29:40.0000000+00:00</time></trkpt><trkpt lat="39.45946083" lon="-0.38434899"><ele>27.8</ele><time>2022-11-06T15:29:41.0000000+00:00</time></trkpt><trkpt lat="39.45946042" lon="-0.38434974"><ele>27.8</ele><time>2022-11-06T15:29:42.0000000+00:00</time></trkpt><trkpt lat="39.45946016" lon="-0.38435041"><ele>27.8</ele><time>2022-11-06T15:29:43.0000000+00:00</time></trkpt><trkpt lat="39.45945991" lon="-0.384351"><ele>27.8</ele><time>2022-11-06T15:29:44.0000000+00:00</time></trkpt><trkpt lat="39.45945974" lon="-0.38435175"><ele>27.8</ele><time>2022-11-06T15:29:45.0000000+00:00</time></trkpt><trkpt lat="39.45945941" lon="-0.38435251"><ele>27.8</ele><time>2022-11-06T15:29:46.0000000+00:00</time></trkpt><trkpt lat="39.45945907" lon="-0.38435343"><ele>27.8</ele><time>2022-11-06T15:29:47.0000000+00:00</time></trkpt><trkpt lat="39.45945857" lon="-0.38435435"><ele>27.8</ele><time>2022-11-06T15:29:48.0000000+00:00</time></trkpt><trkpt lat="39.45945807" lon="-0.3843551"><ele>27.8</ele><time>2022-11-06T15:29:49.0000000+00:00</time></trkpt><trkpt lat="39.45945765" lon="-0.38435569"><ele>27.8</ele><time>2022-11-06T15:29:50.0000000+00:00</time></trkpt><trkpt lat="39.45945723" lon="-0.38435611"><ele>27.8</ele><time>2022-11-06T15:29:51.0000000+00:00</time></trkpt><trkpt lat="39.45945698" lon="-0.38435653"><ele>27.8</ele><time>2022-11-06T15:29:52.0000000+00:00</time></trkpt><trkpt lat="39.45945664" lon="-0.38435678"><ele>27.8</ele><time>2022-11-06T15:29:53.0000000+00:00</time></trkpt><trkpt lat="39.45945631" lon="-0.38435703"><ele>27.8</ele><time>2022-11-06T15:29:54.0000000+00:00</time></trkpt><trkpt lat="39.45945606" lon="-0.38435728"><ele>27.8</ele><time>2022-11-06T15:29:55.0000000+00:00</time></trkpt><trkpt lat="39.45945581" lon="-0.38435745"><ele>27.8</ele><time>2022-11-06T15:29:56.0000000+00:00</time></trkpt><trkpt lat="39.45945564" lon="-0.38435753"><ele>27.8</ele><time>2022-11-06T15:29:57.0000000+00:00</time></trkpt><trkpt lat="39.45945555" lon="-0.38435762"><ele>27.8</ele><time>2022-11-06T15:29:58.0000000+00:00</time></trkpt><trkpt lat="39.45945539" lon="-0.3843577"><ele>27.8</ele><time>2022-11-06T15:29:59.0000000+00:00</time></trkpt><trkpt lat="39.4594553" lon="-0.38435779"><ele>27.8</ele><time>2022-11-06T15:30:00.0000000+00:00</time></trkpt><trkpt lat="39.45945522" lon="-0.38435787"><ele>27.8</ele><time>2022-11-06T15:30:01.0000000+00:00</time></trkpt><trkpt lat="39.45945472" lon="-0.38435795"><ele>27.8</ele><time>2022-11-06T15:30:02.0000000+00:00</time></trkpt><trkpt lat="39.45945413" lon="-0.3843577"><ele>27.8</ele><time>2022-11-06T15:30:03.0000000+00:00</time></trkpt><trkpt lat="39.45945354" lon="-0.38435728"><ele>27.8</ele><time>2022-11-06T15:30:04.0000000+00:00</time></trkpt><trkpt lat="39.45945287" lon="-0.38435686"><ele>27.8</ele><time>2022-11-06T15:30:05.0000000+00:00</time></trkpt><trkpt lat="39.45945229" lon="-0.38435645"><ele>27.8</ele><time>2022-11-06T15:30:06.0000000+00:00</time></trkpt><trkpt lat="39.45945187" lon="-0.38435619"><ele>27.8</ele><time>2022-11-06T15:30:07.0000000+00:00</time></trkpt><trkpt lat="39.45945136" lon="-0.38435594"><ele>27.8</ele><time>2022-11-06T15:30:08.0000000+00:00</time></trkpt><trkpt lat="39.45945094" lon="-0.38435569"><ele>27.8</ele><time>2022-11-06T15:30:09.0000000+00:00</time></trkpt><trkpt lat="39.45945052" lon="-0.38435552"><ele>27.8</ele><time>2022-11-06T15:30:10.0000000+00:00</time></trkpt><trkpt lat="39.45945019" lon="-0.38435536"><ele>27.8</ele><time>2022-11-06T15:30:11.0000000+00:00</time></trkpt><trkpt lat="39.45944985" lon="-0.38435519"><ele>27.8</ele><time>2022-11-06T15:30:12.0000000+00:00</time></trkpt><trkpt lat="39.45944944" lon="-0.3843551"><ele>27.8</ele><time>2022-11-06T15:30:13.0000000+00:00</time></trkpt><trkpt lat="39.4594491" lon="-0.38435502"><ele>27.8</ele><time>2022-11-06T15:30:14.0000000+00:00</time></trkpt><trkpt lat="39.45944876" lon="-0.38435494"><ele>27.8</ele><time>2022-11-06T15:30:15.0000000+00:00</time></trkpt><trkpt lat="39.45944851" lon="-0.38435485"><ele>27.8</ele><time>2022-11-06T15:30:16.0000000+00:00</time></trkpt><trkpt lat="39.45944818" lon="-0.38435477"><ele>27.8</ele><time>2022-11-06T15:30:17.0000000+00:00</time></trkpt><trkpt lat="39.45944784" lon="-0.38435469"><ele>27.8</ele><time>2022-11-06T15:30:18.0000000+00:00</time></trkpt><trkpt lat="39.45944742" lon="-0.38435494"><ele>27.8</ele><time>2022-11-06T15:30:19.0000000+00:00</time></trkpt><trkpt lat="39.45944692" lon="-0.38435552"><ele>27.8</ele><time>2022-11-06T15:30:20.0000000+00:00</time></trkpt><trkpt lat="39.4594465" lon="-0.38435619"><ele>27.8</ele><time>2022-11-06T15:30:21.0000000+00:00</time></trkpt><trkpt lat="39.45944617" lon="-0.38435703"><ele>27.8</ele><time>2022-11-06T15:30:22.0000000+00:00</time></trkpt><trkpt lat="39.45944591" lon="-0.3843577"><ele>27.8</ele><time>2022-11-06T15:30:23.0000000+00:00</time></trkpt><trkpt lat="39.45944575" lon="-0.38435812"><ele>27.8</ele><time>2022-11-06T15:30:24.0000000+00:00</time></trkpt><trkpt lat="39.45944558" lon="-0.38435837"><ele>27.8</ele><time>2022-11-06T15:30:25.0000000+00:00</time></trkpt><trkpt lat="39.45944533" lon="-0.38435888"><ele>27.8</ele><time>2022-11-06T15:30:26.0000000+00:00</time></trkpt><trkpt lat="39.45944516" lon="-0.38435946"><ele>27.8</ele><time>2022-11-06T15:30:27.0000000+00:00</time></trkpt><trkpt lat="39.45944499" lon="-0.38435997"><ele>27.8</ele><time>2022-11-06T15:30:28.0000000+00:00</time></trkpt><trkpt lat="39.45944491" lon="-0.38436047"><ele>27.8</ele><time>2022-11-06T15:30:29.0000000+00:00</time></trkpt><trkpt lat="39.45944474" lon="-0.38436089"><ele>27.8</ele><time>2022-11-06T15:30:30.0000000+00:00</time></trkpt><trkpt lat="39.45944474" lon="-0.38436131"><ele>27.8</ele><time>2022-11-06T15:30:31.0000000+00:00</time></trkpt><trkpt lat="39.45944466" lon="-0.38436181"><ele>27.8</ele><time>2022-11-06T15:30:32.0000000+00:00</time></trkpt><trkpt lat="39.45944457" lon="-0.38436223"><ele>27.8</ele><time>2022-11-06T15:30:33.0000000+00:00</time></trkpt><trkpt lat="39.45944424" lon="-0.38436256"><ele>27.8</ele><time>2022-11-06T15:30:34.0000000+00:00</time></trkpt><trkpt lat="39.45944432" lon="-0.38436298"><ele>27.8</ele><time>2022-11-06T15:30:35.0000000+00:00</time></trkpt><trkpt lat="39.45944424" lon="-0.38436332"><ele>27.8</ele><time>2022-11-06T15:30:36.0000000+00:00</time></trkpt><trkpt lat="39.45944407" lon="-0.38436357"><ele>27.8</ele><time>2022-11-06T15:30:37.0000000+00:00</time></trkpt><trkpt lat="39.4594439" lon="-0.38436382"><ele>27.8</ele><time>2022-11-06T15:30:38.0000000+00:00</time></trkpt><trkpt lat="39.45944382" lon="-0.38436416"><ele>27.8</ele><time>2022-11-06T15:30:39.0000000+00:00</time></trkpt><trkpt lat="39.45944365" lon="-0.38436441"><ele>27.8</ele><time>2022-11-06T15:30:40.0000000+00:00</time></trkpt><trkpt lat="39.45944323" lon="-0.38436474"><ele>27.8</ele><time>2022-11-06T15:30:41.0000000+00:00</time></trkpt><trkpt lat="39.45944323" lon="-0.38436508"><ele>27.8</ele><time>2022-11-06T15:30:42.0000000+00:00</time></trkpt><trkpt lat="39.45944332" lon="-0.38436541"><ele>27.8</ele><time>2022-11-06T15:30:43.0000000+00:00</time></trkpt><trkpt lat="39.45944348" lon="-0.38436583"><ele>27.8</ele><time>2022-11-06T15:30:44.0000000+00:00</time></trkpt><trkpt lat="39.45944348" lon="-0.38436625"><ele>27.8</ele><time>2022-11-06T15:30:45.0000000+00:00</time></trkpt><trkpt lat="39.45944332" lon="-0.38436659"><ele>27.8</ele><time>2022-11-06T15:30:46.0000000+00:00</time></trkpt><trkpt lat="39.45944298" lon="-0.38436692"><ele>27.8</ele><time>2022-11-06T15:30:47.0000000+00:00</time></trkpt><trkpt lat="39.4594429" lon="-0.38436734"><ele>27.8</ele><time>2022-11-06T15:30:48.0000000+00:00</time></trkpt><trkpt lat="39.45944273" lon="-0.38436759"><ele>27.8</ele><time>2022-11-06T15:30:49.0000000+00:00</time></trkpt><trkpt lat="39.45944239" lon="-0.38436784"><ele>27.8</ele><time>2022-11-06T15:30:50.0000000+00:00</time></trkpt><trkpt lat="39.45944223" lon="-0.38436793"><ele>27.8</ele><time>2022-11-06T15:30:51.0000000+00:00</time></trkpt><trkpt lat="39.45944198" lon="-0.38436801"><ele>27.8</ele><time>2022-11-06T15:30:52.0000000+00:00</time></trkpt><trkpt lat="39.45944181" lon="-0.38436801"><ele>27.8</ele><time>2022-11-06T15:30:53.0000000+00:00</time></trkpt><trkpt lat="39.45944332" lon="-0.38437304"><ele>27.8</ele><time>2022-11-06T15:30:54.0000000+00:00</time></trkpt><trkpt lat="39.45944508" lon="-0.38437765"><ele>27.8</ele><time>2022-11-06T15:30:55.0000000+00:00</time></trkpt><trkpt lat="39.45943904" lon="-0.38439366"><ele>27.8</ele><time>2022-11-06T15:30:56.0000000+00:00</time></trkpt><trkpt lat="39.45944432" lon="-0.38439324"><ele>27.8</ele><time>2022-11-06T15:30:57.0000000+00:00</time></trkpt><trkpt lat="39.45944533" lon="-0.38440095"><ele>27.8</ele><time>2022-11-06T15:30:58.0000000+00:00</time></trkpt><trkpt lat="39.45944726" lon="-0.3844064"><ele>27.8</ele><time>2022-11-06T15:30:59.0000000+00:00</time></trkpt><trkpt lat="39.45944726" lon="-0.3844064"><ele>27.8</ele><time>2022-11-06T15:31:00.0000000+00:00</time></trkpt><trkpt lat="39.45944726" lon="-0.3844064"><ele>27.8</ele><time>2022-11-06T15:31:01.0000000+00:00</time></trkpt><trkpt lat="39.45944726" lon="-0.3844064"><ele>27.8</ele><time>2022-11-06T15:31:02.0000000+00:00</time></trkpt><trkpt lat="39.45944726" lon="-0.3844064"><ele>27.8</ele><time>2022-11-06T15:31:03.0000000+00:00</time></trkpt><trkpt lat="39.45944726" lon="-0.3844064"><ele>27.8</ele><time>2022-11-06T15:31:04.0000000+00:00</time></trkpt><trkpt lat="39.45944726" lon="-0.3844064"><ele>27.8</ele><time>2022-11-06T15:31:05.0000000+00:00</time></trkpt><trkpt lat="39.45944726" lon="-0.38440741"><ele>27.8</ele><time>2022-11-06T15:31:06.0000000+00:00</time></trkpt><trkpt lat="39.45944726" lon="-0.38440741"><ele>27.8</ele><time>2022-11-06T15:31:07.0000000+00:00</time></trkpt><trkpt lat="39.45944726" lon="-0.38440741"><ele>27.8</ele><time>2022-11-06T15:31:08.0000000+00:00</time></trkpt><trkpt lat="39.45944726" lon="-0.38440741"><ele>27.8</ele><time>2022-11-06T15:31:09.0000000+00:00</time></trkpt><trkpt lat="39.45944726" lon="-0.38440741"><ele>27.8</ele><time>2022-11-06T15:31:10.0000000+00:00</time></trkpt><trkpt lat="39.45944726" lon="-0.38440741"><ele>27.8</ele><time>2022-11-06T15:31:11.0000000+00:00</time></trkpt><trkpt lat="39.45944726" lon="-0.38440741"><ele>27.8</ele><time>2022-11-06T15:31:12.0000000+00:00</time></trkpt><trkpt lat="39.45944726" lon="-0.38440741"><ele>27.8</ele><time>2022-11-06T15:31:13.0000000+00:00</time></trkpt><trkpt lat="39.45944726" lon="-0.38440757"><ele>27.8</ele><time>2022-11-06T15:31:14.0000000+00:00</time></trkpt><trkpt lat="39.45944726" lon="-0.38440816"><ele>27.8</ele><time>2022-11-06T15:31:15.0000000+00:00</time></trkpt><trkpt lat="39.45944726" lon="-0.38440892"><ele>27.8</ele><time>2022-11-06T15:31:16.0000000+00:00</time></trkpt><trkpt lat="39.45944726" lon="-0.38441679"><ele>27.8</ele><time>2022-11-06T15:31:17.0000000+00:00</time></trkpt><trkpt lat="39.45944726" lon="-0.38441763"><ele>27.8</ele><time>2022-11-06T15:31:18.0000000+00:00</time></trkpt><trkpt lat="39.45944726" lon="-0.38441788"><ele>27.8</ele><time>2022-11-06T15:31:19.0000000+00:00</time></trkpt><trkpt lat="39.45944659" lon="-0.38441847"><ele>27.8</ele><time>2022-11-06T15:31:20.0000000+00:00</time></trkpt><trkpt lat="39.45944642" lon="-0.38441847"><ele>27.8</ele><time>2022-11-06T15:31:21.0000000+00:00</time></trkpt><trkpt lat="39.4594455" lon="-0.38441847"><ele>27.8</ele><time>2022-11-06T15:31:22.0000000+00:00</time></trkpt><trkpt lat="39.45944415" lon="-0.38442099"><ele>27.8</ele><time>2022-11-06T15:31:23.0000000+00:00</time></trkpt><trkpt lat="39.45944298" lon="-0.38442191"><ele>27.8</ele><time>2022-11-06T15:31:24.0000000+00:00</time></trkpt><trkpt lat="39.45944172" lon="-0.38442308"><ele>27.8</ele><time>2022-11-06T15:31:25.0000000+00:00</time></trkpt><trkpt lat="39.45944147" lon="-0.38442317"><ele>27.8</ele><time>2022-11-06T15:31:26.0000000+00:00</time></trkpt><trkpt lat="39.45944114" lon="-0.38442367"><ele>27.8</ele><time>2022-11-06T15:31:27.0000000+00:00</time></trkpt><trkpt lat="39.45944105" lon="-0.38442375"><ele>27.8</ele><time>2022-11-06T15:31:28.0000000+00:00</time></trkpt><trkpt lat="39.45944047" lon="-0.38442375"><ele>27.8</ele><time>2022-11-06T15:31:29.0000000+00:00</time></trkpt><trkpt lat="39.45943787" lon="-0.38442375"><ele>27.8</ele><time>2022-11-06T15:31:30.0000000+00:00</time></trkpt><trkpt lat="39.45943485" lon="-0.38442585"><ele>27.8</ele><time>2022-11-06T15:31:31.0000000+00:00</time></trkpt><trkpt lat="39.45943317" lon="-0.38442719"><ele>27.8</ele><time>2022-11-06T15:31:32.0000000+00:00</time></trkpt><trkpt lat="39.45943267" lon="-0.38442828"><ele>27.8</ele><time>2022-11-06T15:31:33.0000000+00:00</time></trkpt><trkpt lat="39.4594315" lon="-0.38442962"><ele>27.8</ele><time>2022-11-06T15:31:34.0000000+00:00</time></trkpt><trkpt lat="39.45942747" lon="-0.3844375"><ele>27.8</ele><time>2022-11-06T15:31:35.0000000+00:00</time></trkpt><trkpt lat="39.45942672" lon="-0.38444043"><ele>27.8</ele><time>2022-11-06T15:31:36.0000000+00:00</time></trkpt><trkpt lat="39.45942638" lon="-0.38444228"><ele>27.8</ele><time>2022-11-06T15:31:37.0000000+00:00</time></trkpt><trkpt lat="39.4594263" lon="-0.38444839"><ele>27.8</ele><time>2022-11-06T15:31:38.0000000+00:00</time></trkpt><trkpt lat="39.45942605" lon="-0.38444974"><ele>27.8</ele><time>2022-11-06T15:31:39.0000000+00:00</time></trkpt><trkpt lat="39.4594258" lon="-0.38445116"><ele>27.8</ele><time>2022-11-06T15:31:40.0000000+00:00</time></trkpt><trkpt lat="39.45942546" lon="-0.38445409"><ele>27.8</ele><time>2022-11-06T15:31:41.0000000+00:00</time></trkpt><trkpt lat="39.45942546" lon="-0.3844551"><ele>27.8</ele><time>2022-11-06T15:31:42.0000000+00:00</time></trkpt><trkpt lat="39.45942538" lon="-0.38445669"><ele>27.8</ele><time>2022-11-06T15:31:43.0000000+00:00</time></trkpt><trkpt lat="39.45942521" lon="-0.3844572"><ele>27.8</ele><time>2022-11-06T15:31:44.0000000+00:00</time></trkpt><trkpt lat="39.45942521" lon="-0.38445761"><ele>27.8</ele><time>2022-11-06T15:31:45.0000000+00:00</time></trkpt><trkpt lat="39.45942521" lon="-0.3844577"><ele>27.8</ele><time>2022-11-06T15:31:46.0000000+00:00</time></trkpt><trkpt lat="39.45942521" lon="-0.38445854"><ele>27.8</ele><time>2022-11-06T15:31:47.0000000+00:00</time></trkpt><trkpt lat="39.45942521" lon="-0.38445912"><ele>27.8</ele><time>2022-11-06T15:31:48.0000000+00:00</time></trkpt><trkpt lat="39.45942521" lon="-0.38446675"><ele>27.8</ele><time>2022-11-06T15:31:49.0000000+00:00</time></trkpt><trkpt lat="39.45942521" lon="-0.38447899"><ele>27.8</ele><time>2022-11-06T15:31:50.0000000+00:00</time></trkpt><trkpt lat="39.4594253" lon="-0.38448511"><ele>27.8</ele><time>2022-11-06T15:31:51.0000000+00:00</time></trkpt><trkpt lat="39.4594253" lon="-0.38449466"><ele>27.8</ele><time>2022-11-06T15:31:52.0000000+00:00</time></trkpt><trkpt lat="39.45942538" lon="-0.38449919"><ele>27.8</ele><time>2022-11-06T15:31:53.0000000+00:00</time></trkpt><trkpt lat="39.45942538" lon="-0.38450112"><ele>27.8</ele><time>2022-11-06T15:31:54.0000000+00:00</time></trkpt><trkpt lat="39.45942538" lon="-0.3845033"><ele>27.8</ele><time>2022-11-06T15:31:55.0000000+00:00</time></trkpt><trkpt lat="39.45942555" lon="-0.38450455"><ele>27.8</ele><time>2022-11-06T15:31:56.0000000+00:00</time></trkpt><trkpt lat="39.45942563" lon="-0.38450615"><ele>27.8</ele><time>2022-11-06T15:31:57.0000000+00:00</time></trkpt><trkpt lat="39.45942571" lon="-0.38451025"><ele>27.8</ele><time>2022-11-06T15:31:58.0000000+00:00</time></trkpt><trkpt lat="39.45942571" lon="-0.3845126"><ele>27.8</ele><time>2022-11-06T15:31:59.0000000+00:00</time></trkpt><trkpt lat="39.45942597" lon="-0.38451335"><ele>27.8</ele><time>2022-11-06T15:32:00.0000000+00:00</time></trkpt><trkpt lat="39.45942605" lon="-0.38451402"><ele>27.8</ele><time>2022-11-06T15:32:01.0000000+00:00</time></trkpt><trkpt lat="39.45942622" lon="-0.38451461"><ele>27.8</ele><time>2022-11-06T15:32:02.0000000+00:00</time></trkpt><trkpt lat="39.45942638" lon="-0.38451503"><ele>27.8</ele><time>2022-11-06T15:32:03.0000000+00:00</time></trkpt><trkpt lat="39.45942638" lon="-0.38451537"><ele>27.8</ele><time>2022-11-06T15:32:04.0000000+00:00</time></trkpt><trkpt lat="39.4594263" lon="-0.38451587"><ele>27.8</ele><time>2022-11-06T15:32:05.0000000+00:00</time></trkpt><trkpt lat="39.4594263" lon="-0.38452006"><ele>27.8</ele><time>2022-11-06T15:32:06.0000000+00:00</time></trkpt><trkpt lat="39.45942622" lon="-0.38452869"><ele>27.8</ele><time>2022-11-06T15:32:07.0000000+00:00</time></trkpt><trkpt lat="39.45942613" lon="-0.38453272"><ele>27.8</ele><time>2022-11-06T15:32:08.0000000+00:00</time></trkpt><trkpt lat="39.45942613" lon="-0.38453473"><ele>27.8</ele><time>2022-11-06T15:32:09.0000000+00:00</time></trkpt><trkpt lat="39.45942613" lon="-0.38453708"><ele>27.8</ele><time>2022-11-06T15:32:10.0000000+00:00</time></trkpt><trkpt lat="39.45942613" lon="-0.38453808"><ele>27.8</ele><time>2022-11-06T15:32:11.0000000+00:00</time></trkpt><trkpt lat="39.4594263" lon="-0.38453909"><ele>27.8</ele><time>2022-11-06T15:32:12.0000000+00:00</time></trkpt><trkpt lat="39.45942647" lon="-0.38454286"><ele>27.8</ele><time>2022-11-06T15:32:13.0000000+00:00</time></trkpt><trkpt lat="39.45942672" lon="-0.38454504"><ele>27.8</ele><time>2022-11-06T15:32:14.0000000+00:00</time></trkpt><trkpt lat="39.45943041" lon="-0.3845468"><ele>27.8</ele><time>2022-11-06T15:32:15.0000000+00:00</time></trkpt><trkpt lat="39.45943334" lon="-0.38454722"><ele>27.8</ele><time>2022-11-06T15:32:16.0000000+00:00</time></trkpt><trkpt lat="39.45943728" lon="-0.38454814"><ele>27.8</ele><time>2022-11-06T15:32:17.0000000+00:00</time></trkpt><trkpt lat="39.45943728" lon="-0.38454814"><ele>27.8</ele><time>2022-11-06T15:32:18.0000000+00:00</time></trkpt><trkpt lat="39.45943728" lon="-0.38454814"><ele>27.8</ele><time>2022-11-06T15:32:19.0000000+00:00</time></trkpt><trkpt lat="39.45943728" lon="-0.38454814"><ele>27.8</ele><time>2022-11-06T15:32:20.0000000+00:00</time></trkpt><trkpt lat="39.45943728" lon="-0.38454814"><ele>27.8</ele><time>2022-11-06T15:32:21.0000000+00:00</time></trkpt><trkpt lat="39.45943728" lon="-0.38454814"><ele>27.8</ele><time>2022-11-06T15:32:22.0000000+00:00</time></trkpt><trkpt lat="39.45943728" lon="-0.38454814"><ele>27.8</ele><time>2022-11-06T15:32:23.0000000+00:00</time></trkpt><trkpt lat="39.45943728" lon="-0.38456013"><ele>27.8</ele><time>2022-11-06T15:32:24.0000000+00:00</time></trkpt><trkpt lat="39.45943728" lon="-0.38456138"><ele>27.8</ele><time>2022-11-06T15:32:25.0000000+00:00</time></trkpt><trkpt lat="39.45943728" lon="-0.38456205"><ele>27.8</ele><time>2022-11-06T15:32:26.0000000+00:00</time></trkpt><trkpt lat="39.4594408" lon="-0.38456239"><ele>27.8</ele><time>2022-11-06T15:32:27.0000000+00:00</time></trkpt><trkpt lat="39.4594455" lon="-0.38456272"><ele>27.8</ele><time>2022-11-06T15:32:28.0000000+00:00</time></trkpt><trkpt lat="39.45945488" lon="-0.38456298"><ele>27.8</ele><time>2022-11-06T15:32:29.0000000+00:00</time></trkpt><trkpt lat="39.45946042" lon="-0.38456373"><ele>27.8</ele><time>2022-11-06T15:32:30.0000000+00:00</time></trkpt><trkpt lat="39.45946243" lon="-0.3845644"><ele>27.8</ele><time>2022-11-06T15:32:31.0000000+00:00</time></trkpt><trkpt lat="39.45946251" lon="-0.38456474"><ele>27.8</ele><time>2022-11-06T15:32:32.0000000+00:00</time></trkpt><trkpt lat="39.45946276" lon="-0.3845649"><ele>27.8</ele><time>2022-11-06T15:32:33.0000000+00:00</time></trkpt><trkpt lat="39.45946318" lon="-0.38456549"><ele>27.8</ele><time>2022-11-06T15:32:34.0000000+00:00</time></trkpt><trkpt lat="39.45946352" lon="-0.38456608"><ele>27.8</ele><time>2022-11-06T15:32:35.0000000+00:00</time></trkpt><trkpt lat="39.4594641" lon="-0.38456691"><ele>27.8</ele><time>2022-11-06T15:32:36.0000000+00:00</time></trkpt><trkpt lat="39.45946528" lon="-0.384567"><ele>27.8</ele><time>2022-11-06T15:32:37.0000000+00:00</time></trkpt><trkpt lat="39.45946586" lon="-0.38456708"><ele>27.8</ele><time>2022-11-06T15:32:38.0000000+00:00</time></trkpt><trkpt lat="39.45946687" lon="-0.38456708"><ele>27.8</ele><time>2022-11-06T15:32:39.0000000+00:00</time></trkpt><trkpt lat="39.45946704" lon="-0.38456733"><ele>27.8</ele><time>2022-11-06T15:32:40.0000000+00:00</time></trkpt><trkpt lat="39.45946704" lon="-0.38456792"><ele>27.8</ele><time>2022-11-06T15:32:41.0000000+00:00</time></trkpt><trkpt lat="39.45946729" lon="-0.38456859"><ele>27.8</ele><time>2022-11-06T15:32:42.0000000+00:00</time></trkpt><trkpt lat="39.45946804" lon="-0.38456867"><ele>27.8</ele><time>2022-11-06T15:32:43.0000000+00:00</time></trkpt><trkpt lat="39.45947022" lon="-0.38456909"><ele>27.8</ele><time>2022-11-06T15:32:44.0000000+00:00</time></trkpt><trkpt lat="39.45947073" lon="-0.38456918"><ele>27.8</ele><time>2022-11-06T15:32:45.0000000+00:00</time></trkpt><trkpt lat="39.45947123" lon="-0.3845696"><ele>27.8</ele><time>2022-11-06T15:32:46.0000000+00:00</time></trkpt><trkpt lat="39.4594714" lon="-0.38457027"><ele>27.8</ele><time>2022-11-06T15:32:47.0000000+00:00</time></trkpt><trkpt lat="39.45947223" lon="-0.38457044"><ele>27.8</ele><time>2022-11-06T15:32:48.0000000+00:00</time></trkpt><trkpt lat="39.45947282" lon="-0.38457236"><ele>27.8</ele><time>2022-11-06T15:32:49.0000000+00:00</time></trkpt><trkpt lat="39.4594729" lon="-0.38457337"><ele>27.8</ele><time>2022-11-06T15:32:50.0000000+00:00</time></trkpt><trkpt lat="39.4594729" lon="-0.38457404"><ele>27.8</ele><time>2022-11-06T15:32:51.0000000+00:00</time></trkpt><trkpt lat="39.4594729" lon="-0.38457513"><ele>27.8</ele><time>2022-11-06T15:32:52.0000000+00:00</time></trkpt><trkpt lat="39.4594729" lon="-0.38457538"><ele>27.8</ele><time>2022-11-06T15:32:53.0000000+00:00</time></trkpt><trkpt lat="39.4594729" lon="-0.38457714"><ele>27.8</ele><time>2022-11-06T15:32:54.0000000+00:00</time></trkpt><trkpt lat="39.4594729" lon="-0.38457823"><ele>27.8</ele><time>2022-11-06T15:32:55.0000000+00:00</time></trkpt><trkpt lat="39.4594729" lon="-0.38457924"><ele>27.8</ele><time>2022-11-06T15:32:56.0000000+00:00</time></trkpt><trkpt lat="39.4594729" lon="-0.38458016"><ele>27.8</ele><time>2022-11-06T15:32:57.0000000+00:00</time></trkpt><trkpt lat="39.45947249" lon="-0.38458033"><ele>27.8</ele><time>2022-11-06T15:32:58.0000000+00:00</time></trkpt><trkpt lat="39.45947165" lon="-0.38458041"><ele>27.8</ele><time>2022-11-06T15:32:59.0000000+00:00</time></trkpt><trkpt lat="39.45947098" lon="-0.38458074"><ele>27.8</ele><time>2022-11-06T15:33:00.0000000+00:00</time></trkpt><trkpt lat="39.45947064" lon="-0.38458091"><ele>27.8</ele><time>2022-11-06T15:33:01.0000000+00:00</time></trkpt><trkpt lat="39.45946788" lon="-0.38458116"><ele>27.8</ele><time>2022-11-06T15:33:02.0000000+00:00</time></trkpt><trkpt lat="39.4594672" lon="-0.38458142"><ele>27.8</ele><time>2022-11-06T15:33:03.0000000+00:00</time></trkpt><trkpt lat="39.45946704" lon="-0.38458158"><ele>27.8</ele><time>2022-11-06T15:33:04.0000000+00:00</time></trkpt><trkpt lat="39.45945832" lon="-0.38458175"><ele>27.8</ele><time>2022-11-06T15:33:05.0000000+00:00</time></trkpt><trkpt lat="39.45945497" lon="-0.38458175"><ele>27.8</ele><time>2022-11-06T15:33:06.0000000+00:00</time></trkpt><trkpt lat="39.45945405" lon="-0.38458175"><ele>27.8</ele><time>2022-11-06T15:33:07.0000000+00:00</time></trkpt><trkpt lat="39.45945379" lon="-0.38458175"><ele>27.8</ele><time>2022-11-06T15:33:08.0000000+00:00</time></trkpt><trkpt lat="39.45945363" lon="-0.38458175"><ele>27.8</ele><time>2022-11-06T15:33:09.0000000+00:00</time></trkpt><trkpt lat="39.45945354" lon="-0.38458167"><ele>27.8</ele><time>2022-11-06T15:33:10.0000000+00:00</time></trkpt><trkpt lat="39.45945346" lon="-0.3845815"><ele>27.8</ele><time>2022-11-06T15:33:11.0000000+00:00</time></trkpt><trkpt lat="39.45945321" lon="-0.38458133"><ele>27.8</ele><time>2022-11-06T15:33:12.0000000+00:00</time></trkpt><trkpt lat="39.4594517" lon="-0.38458108"><ele>27.8</ele><time>2022-11-06T15:33:13.0000000+00:00</time></trkpt><trkpt lat="39.45945094" lon="-0.38458083"><ele>27.8</ele><time>2022-11-06T15:33:14.0000000+00:00</time></trkpt><trkpt lat="39.45945078" lon="-0.38458083"><ele>27.8</ele><time>2022-11-06T15:33:15.0000000+00:00</time></trkpt><trkpt lat="39.45945061" lon="-0.38458049"><ele>27.8</ele><time>2022-11-06T15:33:16.0000000+00:00</time></trkpt><trkpt lat="39.45945061" lon="-0.38458049"><ele>27.8</ele><time>2022-11-06T15:33:17.0000000+00:00</time></trkpt><trkpt lat="39.45945052" lon="-0.38458041"><ele>27.8</ele><time>2022-11-06T15:33:18.0000000+00:00</time></trkpt><trkpt lat="39.45945052" lon="-0.38458041"><ele>27.8</ele><time>2022-11-06T15:33:19.0000000+00:00</time></trkpt><trkpt lat="39.45945052" lon="-0.38458007"><ele>27.8</ele><time>2022-11-06T15:33:20.0000000+00:00</time></trkpt><trkpt lat="39.45945052" lon="-0.38457999"><ele>27.8</ele><time>2022-11-06T15:33:21.0000000+00:00</time></trkpt><trkpt lat="39.45945052" lon="-0.38457982"><ele>27.8</ele><time>2022-11-06T15:33:22.0000000+00:00</time></trkpt><trkpt lat="39.45945052" lon="-0.38457949"><ele>27.8</ele><time>2022-11-06T15:33:23.0000000+00:00</time></trkpt><trkpt lat="39.45945052" lon="-0.38457831"><ele>27.8</ele><time>2022-11-06T15:33:24.0000000+00:00</time></trkpt><trkpt lat="39.45945052" lon="-0.38457773"><ele>27.8</ele><time>2022-11-06T15:33:25.0000000+00:00</time></trkpt><trkpt lat="39.45945052" lon="-0.38457681"><ele>27.8</ele><time>2022-11-06T15:33:26.0000000+00:00</time></trkpt><trkpt lat="39.45945052" lon="-0.3845758"><ele>27.8</ele><time>2022-11-06T15:33:27.0000000+00:00</time></trkpt><trkpt lat="39.45945061" lon="-0.38457513"><ele>27.8</ele><time>2022-11-06T15:33:28.0000000+00:00</time></trkpt><trkpt lat="39.45945069" lon="-0.38457454"><ele>27.8</ele><time>2022-11-06T15:33:29.0000000+00:00</time></trkpt><trkpt lat="39.45945086" lon="-0.38457421"><ele>27.8</ele><time>2022-11-06T15:33:30.0000000+00:00</time></trkpt><trkpt lat="39.45945103" lon="-0.38457312"><ele>27.8</ele><time>2022-11-06T15:33:31.0000000+00:00</time></trkpt><trkpt lat="39.45945111" lon="-0.38457194"><ele>27.8</ele><time>2022-11-06T15:33:32.0000000+00:00</time></trkpt><trkpt lat="39.45945153" lon="-0.38457144"><ele>27.8</ele><time>2022-11-06T15:33:33.0000000+00:00</time></trkpt><trkpt lat="39.45945178" lon="-0.38457127"><ele>27.8</ele><time>2022-11-06T15:33:34.0000000+00:00</time></trkpt><trkpt lat="39.45945178" lon="-0.38457111"><ele>27.8</ele><time>2022-11-06T15:33:35.0000000+00:00</time></trkpt><trkpt lat="39.45945187" lon="-0.38457069"><ele>27.8</ele><time>2022-11-06T15:33:36.0000000+00:00</time></trkpt><trkpt lat="39.45945187" lon="-0.38457044"><ele>27.8</ele><time>2022-11-06T15:33:37.0000000+00:00</time></trkpt><trkpt lat="39.45945187" lon="-0.38457044"><ele>27.8</ele><time>2022-11-06T15:33:38.0000000+00:00</time></trkpt><trkpt lat="39.45945187" lon="-0.38457035"><ele>27.8</ele><time>2022-11-06T15:33:39.0000000+00:00</time></trkpt><trkpt lat="39.45945187" lon="-0.38457035"><ele>27.8</ele><time>2022-11-06T15:33:40.0000000+00:00</time></trkpt><trkpt lat="39.45945187" lon="-0.38457035"><ele>27.8</ele><time>2022-11-06T15:33:41.0000000+00:00</time></trkpt><trkpt lat="39.45945187" lon="-0.38457035"><ele>27.8</ele><time>2022-11-06T15:33:42.0000000+00:00</time></trkpt><trkpt lat="39.45945187" lon="-0.38457035"><ele>27.8</ele><time>2022-11-06T15:33:43.0000000+00:00</time></trkpt><trkpt lat="39.45945187" lon="-0.38456976"><ele>27.8</ele><time>2022-11-06T15:33:44.0000000+00:00</time></trkpt><trkpt lat="39.45945187" lon="-0.38456935"><ele>27.8</ele><time>2022-11-06T15:33:45.0000000+00:00</time></trkpt><trkpt lat="39.45945145" lon="-0.38456901"><ele>27.8</ele><time>2022-11-06T15:33:46.0000000+00:00</time></trkpt><trkpt lat="39.4594512" lon="-0.38456876"><ele>27.8</ele><time>2022-11-06T15:33:47.0000000+00:00</time></trkpt><trkpt lat="39.45945103" lon="-0.38456851"><ele>27.8</ele><time>2022-11-06T15:33:48.0000000+00:00</time></trkpt><trkpt lat="39.45945036" lon="-0.384568"><ele>27.8</ele><time>2022-11-06T15:33:49.0000000+00:00</time></trkpt><trkpt lat="39.45944994" lon="-0.38456675"><ele>27.8</ele><time>2022-11-06T15:33:50.0000000+00:00</time></trkpt><trkpt lat="39.45944944" lon="-0.38456381"><ele>27.8</ele><time>2022-11-06T15:33:51.0000000+00:00</time></trkpt><trkpt lat="39.45944918" lon="-0.38456172"><ele>27.8</ele><time>2022-11-06T15:33:52.0000000+00:00</time></trkpt><trkpt lat="39.45944902" lon="-0.38456054"><ele>27.8</ele><time>2022-11-06T15:33:53.0000000+00:00</time></trkpt><trkpt lat="39.45944902" lon="-0.38455887"><ele>27.8</ele><time>2022-11-06T15:33:54.0000000+00:00</time></trkpt><trkpt lat="39.45944902" lon="-0.38455769"><ele>27.8</ele><time>2022-11-06T15:33:55.0000000+00:00</time></trkpt><trkpt lat="39.45944893" lon="-0.38455711"><ele>27.8</ele><time>2022-11-06T15:33:56.0000000+00:00</time></trkpt><trkpt lat="39.45944893" lon="-0.38455677"><ele>27.8</ele><time>2022-11-06T15:33:57.0000000+00:00</time></trkpt><trkpt lat="39.45944893" lon="-0.38455669"><ele>27.8</ele><time>2022-11-06T15:33:58.0000000+00:00</time></trkpt><trkpt lat="39.45944893" lon="-0.38455661"><ele>27.8</ele><time>2022-11-06T15:33:59.0000000+00:00</time></trkpt><trkpt lat="39.45944893" lon="-0.38455652"><ele>27.8</ele><time>2022-11-06T15:34:00.0000000+00:00</time></trkpt><trkpt lat="39.45944893" lon="-0.38455652"><ele>27.8</ele><time>2022-11-06T15:34:01.0000000+00:00</time></trkpt><trkpt lat="39.45944893" lon="-0.38455652"><ele>27.8</ele><time>2022-11-06T15:34:02.0000000+00:00</time></trkpt><trkpt lat="39.45944893" lon="-0.38455652"><ele>27.8</ele><time>2022-11-06T15:34:03.0000000+00:00</time></trkpt><trkpt lat="39.45944927" lon="-0.38455652"><ele>27.8</ele><time>2022-11-06T15:34:04.0000000+00:00</time></trkpt><trkpt lat="39.45944952" lon="-0.38455652"><ele>27.8</ele><time>2022-11-06T15:34:05.0000000+00:00</time></trkpt><trkpt lat="39.4594496" lon="-0.38455652"><ele>27.8</ele><time>2022-11-06T15:34:06.0000000+00:00</time></trkpt><trkpt lat="39.45944985" lon="-0.38455652"><ele>27.8</ele><time>2022-11-06T15:34:07.0000000+00:00</time></trkpt><trkpt lat="39.45945078" lon="-0.38455652"><ele>27.8</ele><time>2022-11-06T15:34:08.0000000+00:00</time></trkpt><trkpt lat="39.45945145" lon="-0.38455652"><ele>27.8</ele><time>2022-11-06T15:34:09.0000000+00:00</time></trkpt><trkpt lat="39.45945337" lon="-0.38455661"><ele>27.8</ele><time>2022-11-06T15:34:10.0000000+00:00</time></trkpt><trkpt lat="39.45945547" lon="-0.38455761"><ele>27.8</ele><time>2022-11-06T15:34:11.0000000+00:00</time></trkpt><trkpt lat="39.45945664" lon="-0.38456239"><ele>27.8</ele><time>2022-11-06T15:34:12.0000000+00:00</time></trkpt><trkpt lat="39.45945731" lon="-0.38456524"><ele>27.8</ele><time>2022-11-06T15:34:13.0000000+00:00</time></trkpt><trkpt lat="39.45945815" lon="-0.38456775"><ele>27.8</ele><time>2022-11-06T15:34:14.0000000+00:00</time></trkpt><trkpt lat="39.45945916" lon="-0.38456976"><ele>27.8</ele><time>2022-11-06T15:34:15.0000000+00:00</time></trkpt><trkpt lat="39.45946016" lon="-0.38457102"><ele>27.8</ele><time>2022-11-06T15:34:16.0000000+00:00</time></trkpt><trkpt lat="39.45946075" lon="-0.38457186"><ele>27.8</ele><time>2022-11-06T15:34:17.0000000+00:00</time></trkpt><trkpt lat="39.45946117" lon="-0.38457253"><ele>27.8</ele><time>2022-11-06T15:34:18.0000000+00:00</time></trkpt><trkpt lat="39.45946151" lon="-0.38457295"><ele>27.8</ele><time>2022-11-06T15:34:19.0000000+00:00</time></trkpt><trkpt lat="39.45946176" lon="-0.38457329"><ele>27.8</ele><time>2022-11-06T15:34:20.0000000+00:00</time></trkpt><trkpt lat="39.45946184" lon="-0.38457354"><ele>27.8</ele><time>2022-11-06T15:34:21.0000000+00:00</time></trkpt><trkpt lat="39.45946192" lon="-0.38457396"><ele>27.8</ele><time>2022-11-06T15:34:22.0000000+00:00</time></trkpt><trkpt lat="39.45946201" lon="-0.38457421"><ele>27.8</ele><time>2022-11-06T15:34:23.0000000+00:00</time></trkpt><trkpt lat="39.45946201" lon="-0.38457437"><ele>27.8</ele><time>2022-11-06T15:34:24.0000000+00:00</time></trkpt><trkpt lat="39.45946209" lon="-0.38457471"><ele>27.8</ele><time>2022-11-06T15:34:25.0000000+00:00</time></trkpt><trkpt lat="39.45946209" lon="-0.38457521"><ele>27.8</ele><time>2022-11-06T15:34:26.0000000+00:00</time></trkpt><trkpt lat="39.45946209" lon="-0.38457555"><ele>27.8</ele><time>2022-11-06T15:34:27.0000000+00:00</time></trkpt><trkpt lat="39.45946201" lon="-0.38457597"><ele>27.8</ele><time>2022-11-06T15:34:28.0000000+00:00</time></trkpt><trkpt lat="39.45946201" lon="-0.38457639"><ele>27.8</ele><time>2022-11-06T15:34:29.0000000+00:00</time></trkpt><trkpt lat="39.45946192" lon="-0.38457706"><ele>27.8</ele><time>2022-11-06T15:34:30.0000000+00:00</time></trkpt><trkpt lat="39.45946184" lon="-0.38457756"><ele>27.8</ele><time>2022-11-06T15:34:31.0000000+00:00</time></trkpt><trkpt lat="39.45946159" lon="-0.38457974"><ele>27.8</ele><time>2022-11-06T15:34:32.0000000+00:00</time></trkpt><trkpt lat="39.45946151" lon="-0.38458142"><ele>27.8</ele><time>2022-11-06T15:34:33.0000000+00:00</time></trkpt><trkpt lat="39.45946083" lon="-0.38458251"><ele>27.8</ele><time>2022-11-06T15:34:34.0000000+00:00</time></trkpt><trkpt lat="39.45945991" lon="-0.38458334"><ele>27.8</ele><time>2022-11-06T15:34:35.0000000+00:00</time></trkpt><trkpt lat="39.45945916" lon="-0.3845841"><ele>27.8</ele><time>2022-11-06T15:34:36.0000000+00:00</time></trkpt><trkpt lat="39.45945857" lon="-0.38458477"><ele>27.8</ele><time>2022-11-06T15:34:37.0000000+00:00</time></trkpt><trkpt lat="39.45945757" lon="-0.38458544"><ele>27.8</ele><time>2022-11-06T15:34:38.0000000+00:00</time></trkpt><trkpt lat="39.45945673" lon="-0.38458594"><ele>27.8</ele><time>2022-11-06T15:34:39.0000000+00:00</time></trkpt><trkpt lat="39.45945522" lon="-0.38458636"><ele>27.8</ele><time>2022-11-06T15:34:40.0000000+00:00</time></trkpt><trkpt lat="39.45945413" lon="-0.3845867"><ele>27.8</ele><time>2022-11-06T15:34:41.0000000+00:00</time></trkpt><trkpt lat="39.45945321" lon="-0.38458686"><ele>27.8</ele><time>2022-11-06T15:34:42.0000000+00:00</time></trkpt><trkpt lat="39.4594522" lon="-0.38458703"><ele>27.8</ele><time>2022-11-06T15:34:43.0000000+00:00</time></trkpt><trkpt lat="39.45945128" lon="-0.38458712"><ele>27.8</ele><time>2022-11-06T15:34:44.0000000+00:00</time></trkpt><trkpt lat="39.45945044" lon="-0.3845872"><ele>27.8</ele><time>2022-11-06T15:34:45.0000000+00:00</time></trkpt><trkpt lat="39.45944977" lon="-0.38458728"><ele>27.8</ele><time>2022-11-06T15:34:46.0000000+00:00</time></trkpt><trkpt lat="39.45944885" lon="-0.38458728"><ele>27.8</ele><time>2022-11-06T15:34:47.0000000+00:00</time></trkpt><trkpt lat="39.45944826" lon="-0.38458737"><ele>27.8</ele><time>2022-11-06T15:34:48.0000000+00:00</time></trkpt><trkpt lat="39.45944759" lon="-0.38458737"><ele>27.8</ele><time>2022-11-06T15:34:49.0000000+00:00</time></trkpt><trkpt lat="39.45944717" lon="-0.38458737"><ele>27.8</ele><time>2022-11-06T15:34:50.0000000+00:00</time></trkpt><trkpt lat="39.45944675" lon="-0.38458737"><ele>27.8</ele><time>2022-11-06T15:34:51.0000000+00:00</time></trkpt><trkpt lat="39.4594465" lon="-0.38458745"><ele>27.8</ele><time>2022-11-06T15:34:52.0000000+00:00</time></trkpt><trkpt lat="39.45944625" lon="-0.38458745"><ele>27.8</ele><time>2022-11-06T15:34:53.0000000+00:00</time></trkpt><trkpt lat="39.45944591" lon="-0.38458737"><ele>27.8</ele><time>2022-11-06T15:34:54.0000000+00:00</time></trkpt><trkpt lat="39.45944566" lon="-0.38458653"><ele>27.8</ele><time>2022-11-06T15:34:55.0000000+00:00</time></trkpt><trkpt lat="39.4594455" lon="-0.38458577"><ele>27.8</ele><time>2022-11-06T15:34:56.0000000+00:00</time></trkpt><trkpt lat="39.45944533" lon="-0.38458468"><ele>27.8</ele><time>2022-11-06T15:34:57.0000000+00:00</time></trkpt><trkpt lat="39.45944524" lon="-0.38458376"><ele>27.8</ele><time>2022-11-06T15:34:58.0000000+00:00</time></trkpt><trkpt lat="39.45944516" lon="-0.38458292"><ele>27.8</ele><time>2022-11-06T15:34:59.0000000+00:00</time></trkpt><trkpt lat="39.45944508" lon="-0.38458234"><ele>27.8</ele><time>2022-11-06T15:35:00.0000000+00:00</time></trkpt><trkpt lat="39.45944499" lon="-0.38458175"><ele>27.8</ele><time>2022-11-06T15:35:01.0000000+00:00</time></trkpt><trkpt lat="39.45944499" lon="-0.38458125"><ele>27.8</ele><time>2022-11-06T15:35:02.0000000+00:00</time></trkpt><trkpt lat="39.45944508" lon="-0.38458091"><ele>27.8</ele><time>2022-11-06T15:35:03.0000000+00:00</time></trkpt><trkpt lat="39.45944516" lon="-0.38458058"><ele>27.8</ele><time>2022-11-06T15:35:04.0000000+00:00</time></trkpt><trkpt lat="39.45944524" lon="-0.38458033"><ele>27.8</ele><time>2022-11-06T15:35:05.0000000+00:00</time></trkpt><trkpt lat="39.45944533" lon="-0.38458016"><ele>27.8</ele><time>2022-11-06T15:35:06.0000000+00:00</time></trkpt><trkpt lat="39.45944541" lon="-0.38457999"><ele>27.8</ele><time>2022-11-06T15:35:07.0000000+00:00</time></trkpt><trkpt lat="39.45944541" lon="-0.38457982"><ele>27.8</ele><time>2022-11-06T15:35:08.0000000+00:00</time></trkpt><trkpt lat="39.4594455" lon="-0.38457974"><ele>27.8</ele><time>2022-11-06T15:35:09.0000000+00:00</time></trkpt><trkpt lat="39.4594455" lon="-0.38457957"><ele>27.8</ele><time>2022-11-06T15:35:10.0000000+00:00</time></trkpt><trkpt lat="39.45944558" lon="-0.3845794"><ele>27.8</ele><time>2022-11-06T15:35:11.0000000+00:00</time></trkpt><trkpt lat="39.45944558" lon="-0.38457932"><ele>27.8</ele><time>2022-11-06T15:35:12.0000000+00:00</time></trkpt><trkpt lat="39.45944558" lon="-0.38457915"><ele>27.8</ele><time>2022-11-06T15:35:13.0000000+00:00</time></trkpt><trkpt lat="39.45944558" lon="-0.38457898"><ele>27.8</ele><time>2022-11-06T15:35:14.0000000+00:00</time></trkpt><trkpt lat="39.45944558" lon="-0.38457882"><ele>27.8</ele><time>2022-11-06T15:35:15.0000000+00:00</time></trkpt><trkpt lat="39.45944566" lon="-0.38457857"><ele>27.8</ele><time>2022-11-06T15:35:16.0000000+00:00</time></trkpt><trkpt lat="39.45944566" lon="-0.38457831"><ele>27.8</ele><time>2022-11-06T15:35:17.0000000+00:00</time></trkpt><trkpt lat="39.45944566" lon="-0.38457806"><ele>27.8</ele><time>2022-11-06T15:35:18.0000000+00:00</time></trkpt><trkpt lat="39.45944566" lon="-0.3845779"><ele>27.8</ele><time>2022-11-06T15:35:19.0000000+00:00</time></trkpt><trkpt lat="39.45944566" lon="-0.38457773"><ele>27.8</ele><time>2022-11-06T15:35:20.0000000+00:00</time></trkpt><trkpt lat="39.45944558" lon="-0.38457748"><ele>27.8</ele><time>2022-11-06T15:35:21.0000000+00:00</time></trkpt><trkpt lat="39.45944541" lon="-0.38457731"><ele>27.8</ele><time>2022-11-06T15:35:22.0000000+00:00</time></trkpt><trkpt lat="39.45944499" lon="-0.38457714"><ele>27.8</ele><time>2022-11-06T15:35:23.0000000+00:00</time></trkpt><trkpt lat="39.45944424" lon="-0.38457697"><ele>27.8</ele><time>2022-11-06T15:35:24.0000000+00:00</time></trkpt><trkpt lat="39.4594434" lon="-0.38457681"><ele>27.8</ele><time>2022-11-06T15:35:25.0000000+00:00</time></trkpt><trkpt lat="39.45944265" lon="-0.38457672"><ele>27.8</ele><time>2022-11-06T15:35:26.0000000+00:00</time></trkpt><trkpt lat="39.45944198" lon="-0.38457655"><ele>27.8</ele><time>2022-11-06T15:35:27.0000000+00:00</time></trkpt><trkpt lat="39.45944139" lon="-0.38457647"><ele>27.8</ele><time>2022-11-06T15:35:28.0000000+00:00</time></trkpt><trkpt lat="39.4594408" lon="-0.3845763"><ele>27.8</ele><time>2022-11-06T15:35:29.0000000+00:00</time></trkpt><trkpt lat="39.45944038" lon="-0.38457622"><ele>27.8</ele><time>2022-11-06T15:35:30.0000000+00:00</time></trkpt><trkpt lat="39.45943996" lon="-0.38457613"><ele>27.8</ele><time>2022-11-06T15:35:31.0000000+00:00</time></trkpt><trkpt lat="39.45943963" lon="-0.38457605"><ele>27.8</ele><time>2022-11-06T15:35:32.0000000+00:00</time></trkpt><trkpt lat="39.45943938" lon="-0.38457588"><ele>27.8</ele><time>2022-11-06T15:35:33.0000000+00:00</time></trkpt><trkpt lat="39.45943913" lon="-0.3845758"><ele>27.8</ele><time>2022-11-06T15:35:34.0000000+00:00</time></trkpt><trkpt lat="39.45943904" lon="-0.38457572"><ele>27.8</ele><time>2022-11-06T15:35:35.0000000+00:00</time></trkpt><trkpt lat="39.45943887" lon="-0.38457572"><ele>27.8</ele><time>2022-11-06T15:35:36.0000000+00:00</time></trkpt><trkpt lat="39.45943887" lon="-0.38457563"><ele>27.8</ele><time>2022-11-06T15:35:37.0000000+00:00</time></trkpt><trkpt lat="39.45943871" lon="-0.38457588"><ele>27.8</ele><time>2022-11-06T15:35:38.0000000+00:00</time></trkpt><trkpt lat="39.45943862" lon="-0.38457613"><ele>27.8</ele><time>2022-11-06T15:35:39.0000000+00:00</time></trkpt><trkpt lat="39.45943854" lon="-0.38457622"><ele>27.8</ele><time>2022-11-06T15:35:40.0000000+00:00</time></trkpt><trkpt lat="39.45943845" lon="-0.3845763"><ele>27.8</ele><time>2022-11-06T15:35:41.0000000+00:00</time></trkpt><trkpt lat="39.4594382" lon="-0.38457647"><ele>27.8</ele><time>2022-11-06T15:35:42.0000000+00:00</time></trkpt><trkpt lat="39.45943795" lon="-0.38457655"><ele>27.8</ele><time>2022-11-06T15:35:43.0000000+00:00</time></trkpt><trkpt lat="39.4594377" lon="-0.38457664"><ele>27.8</ele><time>2022-11-06T15:35:44.0000000+00:00</time></trkpt><trkpt lat="39.4594377" lon="-0.38457681"><ele>27.8</ele><time>2022-11-06T15:35:45.0000000+00:00</time></trkpt><trkpt lat="39.45943787" lon="-0.38457681"><ele>27.8</ele><time>2022-11-06T15:35:46.0000000+00:00</time></trkpt><trkpt lat="39.45943804" lon="-0.38457647"><ele>27.8</ele><time>2022-11-06T15:35:47.0000000+00:00</time></trkpt><trkpt lat="39.45943829" lon="-0.38457639"><ele>27.8</ele><time>2022-11-06T15:35:48.0000000+00:00</time></trkpt><trkpt lat="39.45943845" lon="-0.38457639"><ele>27.8</ele><time>2022-11-06T15:35:49.0000000+00:00</time></trkpt><trkpt lat="39.45943845" lon="-0.38457639"><ele>27.8</ele><time>2022-11-06T15:35:50.0000000+00:00</time></trkpt><trkpt lat="39.45943837" lon="-0.38457655"><ele>27.8</ele><time>2022-11-06T15:35:51.0000000+00:00</time></trkpt><trkpt lat="39.45943837" lon="-0.38457664"><ele>27.8</ele><time>2022-11-06T15:35:52.0000000+00:00</time></trkpt><trkpt lat="39.45943829" lon="-0.38457681"><ele>27.8</ele><time>2022-11-06T15:35:53.0000000+00:00</time></trkpt><trkpt lat="39.45943795" lon="-0.38457714"><ele>27.8</ele><time>2022-11-06T15:35:54.0000000+00:00</time></trkpt><trkpt lat="39.45943778" lon="-0.38457731"><ele>27.8</ele><time>2022-11-06T15:35:55.0000000+00:00</time></trkpt><trkpt lat="39.4594377" lon="-0.38457739"><ele>27.8</ele><time>2022-11-06T15:35:56.0000000+00:00</time></trkpt><trkpt lat="39.45943762" lon="-0.38457748"><ele>27.8</ele><time>2022-11-06T15:35:57.0000000+00:00</time></trkpt><trkpt lat="39.45943745" lon="-0.38457764"><ele>27.8</ele><time>2022-11-06T15:35:58.0000000+00:00</time></trkpt><trkpt lat="39.4594372" lon="-0.3845779"><ele>27.8</ele><time>2022-11-06T15:35:59.0000000+00:00</time></trkpt><trkpt lat="39.45943703" lon="-0.38457798"><ele>27.8</ele><time>2022-11-06T15:36:00.0000000+00:00</time></trkpt><trkpt lat="39.45943703" lon="-0.38457798"><ele>27.8</ele><time>2022-11-06T15:36:01.0000000+00:00</time></trkpt><trkpt lat="39.45943669" lon="-0.38457798"><ele>27.8</ele><time>2022-11-06T15:36:02.0000000+00:00</time></trkpt><trkpt lat="39.45943661" lon="-0.38457798"><ele>27.8</ele><time>2022-11-06T15:36:03.0000000+00:00</time></trkpt><trkpt lat="39.45943653" lon="-0.38457815"><ele>27.8</ele><time>2022-11-06T15:36:04.0000000+00:00</time></trkpt><trkpt lat="39.45943653" lon="-0.38457815"><ele>27.8</ele><time>2022-11-06T15:36:05.0000000+00:00</time></trkpt><trkpt lat="39.45943653" lon="-0.38457823"><ele>27.8</ele><time>2022-11-06T15:36:06.0000000+00:00</time></trkpt><trkpt lat="39.45943661" lon="-0.38457815"><ele>27.8</ele><time>2022-11-06T15:36:07.0000000+00:00</time></trkpt><trkpt lat="39.45943669" lon="-0.38457815"><ele>27.8</ele><time>2022-11-06T15:36:08.0000000+00:00</time></trkpt><trkpt lat="39.45943678" lon="-0.38457815"><ele>27.8</ele><time>2022-11-06T15:36:09.0000000+00:00</time></trkpt><trkpt lat="39.45943678" lon="-0.38457823"><ele>27.8</ele><time>2022-11-06T15:36:10.0000000+00:00</time></trkpt><trkpt lat="39.45943669" lon="-0.38457831"><ele>27.8</ele><time>2022-11-06T15:36:11.0000000+00:00</time></trkpt><trkpt lat="39.45943678" lon="-0.38457831"><ele>27.8</ele><time>2022-11-06T15:36:12.0000000+00:00</time></trkpt><trkpt lat="39.4594372" lon="-0.38457815"><ele>27.8</ele><time>2022-11-06T15:36:13.0000000+00:00</time></trkpt><trkpt lat="39.4594377" lon="-0.38457806"><ele>27.8</ele><time>2022-11-06T15:36:14.0000000+00:00</time></trkpt><trkpt lat="39.45943804" lon="-0.38457806"><ele>27.8</ele><time>2022-11-06T15:36:15.0000000+00:00</time></trkpt><trkpt lat="39.45943804" lon="-0.38457815"><ele>27.8</ele><time>2022-11-06T15:36:16.0000000+00:00</time></trkpt><trkpt lat="39.45943778" lon="-0.38457823"><ele>27.8</ele><time>2022-11-06T15:36:17.0000000+00:00</time></trkpt><trkpt lat="39.45944097" lon="-0.38458577"><ele>27.8</ele><time>2022-11-06T15:36:18.0000000+00:00</time></trkpt><trkpt lat="39.45940216" lon="-0.38460447"><ele>27.8</ele><time>2022-11-06T15:36:19.0000000+00:00</time></trkpt><trkpt lat="39.45937811" lon="-0.3846193"><ele>27.8</ele><time>2022-11-06T15:36:20.0000000+00:00</time></trkpt><trkpt lat="39.45936319" lon="-0.3846328"><ele>27.8</ele><time>2022-11-06T15:36:21.0000000+00:00</time></trkpt><trkpt lat="39.4593481" lon="-0.38464462"><ele>27.8</ele><time>2022-11-06T15:36:22.0000000+00:00</time></trkpt><trkpt lat="39.459331" lon="-0.38465828"><ele>27.8</ele><time>2022-11-06T15:36:23.0000000+00:00</time></trkpt><trkpt lat="39.45930979" lon="-0.38467278"><ele>27.8</ele><time>2022-11-06T15:36:24.0000000+00:00</time></trkpt><trkpt lat="39.45930535" lon="-0.38467932"><ele>27.8</ele><time>2022-11-06T15:36:25.0000000+00:00</time></trkpt></trkseg><trkseg><trkpt lat="39.48187346" lon="-0.37609826"><ele>9.4</ele><time>2022-11-09T16:18:41.0000000+00:00</time></trkpt><trkpt lat="39.48183071" lon="-0.37605635"><ele>9.4</ele><time>2022-11-09T16:18:42.0000000+00:00</time></trkpt><trkpt lat="39.48175527" lon="-0.37602869"><ele>9.4</ele><time>2022-11-09T16:18:43.0000000+00:00</time></trkpt><trkpt lat="39.4816536" lon="-0.37599315"><ele>9.4</ele><time>2022-11-09T16:18:44.0000000+00:00</time></trkpt><trkpt lat="39.48163482" lon="-0.37594244"><ele>9.4</ele><time>2022-11-09T16:18:45.0000000+00:00</time></trkpt><trkpt lat="39.48159836" lon="-0.37589693"><ele>9.4</ele><time>2022-11-09T16:18:46.0000000+00:00</time></trkpt><trkpt lat="39.48155327" lon="-0.37583088"><ele>9.4</ele><time>2022-11-09T16:18:47.0000000+00:00</time></trkpt><trkpt lat="39.48152334" lon="-0.37578243"><ele>9.4</ele><time>2022-11-09T16:18:48.0000000+00:00</time></trkpt><trkpt lat="39.48148118" lon="-0.3757422"><ele>9.4</ele><time>2022-11-09T16:18:49.0000000+00:00</time></trkpt><trkpt lat="39.48145671" lon="-0.37569434"><ele>9.0</ele><time>2022-11-09T16:18:50.0000000+00:00</time></trkpt><trkpt lat="39.48145813" lon="-0.37564061"><ele>8.8</ele><time>2022-11-09T16:18:51.0000000+00:00</time></trkpt><trkpt lat="39.48146073" lon="-0.37558721"><ele>8.6</ele><time>2022-11-09T16:18:52.0000000+00:00</time></trkpt><trkpt lat="39.48144891" lon="-0.37552913"><ele>8.6</ele><time>2022-11-09T16:18:53.0000000+00:00</time></trkpt><trkpt lat="39.48140189" lon="-0.37545495"><ele>8.4</ele><time>2022-11-09T16:18:54.0000000+00:00</time></trkpt><trkpt lat="39.48137214" lon="-0.37538731"><ele>8.4</ele><time>2022-11-09T16:18:55.0000000+00:00</time></trkpt><trkpt lat="39.48133676" lon="-0.37531732"><ele>8.4</ele><time>2022-11-09T16:18:56.0000000+00:00</time></trkpt><trkpt lat="39.48128169" lon="-0.37523517"><ele>8.4</ele><time>2022-11-09T16:18:57.0000000+00:00</time></trkpt><trkpt lat="39.48123283" lon="-0.37516728"><ele>8.6</ele><time>2022-11-09T16:18:58.0000000+00:00</time></trkpt><trkpt lat="39.4812112" lon="-0.37509193"><ele>8.6</ele><time>2022-11-09T16:18:59.0000000+00:00</time></trkpt><trkpt lat="39.4812107" lon="-0.37493133"><ele>8.6</ele><time>2022-11-09T16:19:01.0000000+00:00</time></trkpt><trkpt lat="39.48121229" lon="-0.3748476"><ele>8.6</ele><time>2022-11-09T16:19:02.0000000+00:00</time></trkpt><trkpt lat="39.48120441" lon="-0.37476428"><ele>8.4</ele><time>2022-11-09T16:19:03.0000000+00:00</time></trkpt><trkpt lat="39.48118589" lon="-0.37468541"><ele>8.4</ele><time>2022-11-09T16:19:04.0000000+00:00</time></trkpt><trkpt lat="39.48114985" lon="-0.3746217"><ele>8.2</ele><time>2022-11-09T16:19:05.0000000+00:00</time></trkpt><trkpt lat="39.48109143" lon="-0.37457468"><ele>8.2</ele><time>2022-11-09T16:19:06.0000000+00:00</time></trkpt><trkpt lat="39.48102596" lon="-0.37450897"><ele>8.2</ele><time>2022-11-09T16:19:07.0000000+00:00</time></trkpt><trkpt lat="39.48098087" lon="-0.37445071"><ele>8.0</ele><time>2022-11-09T16:19:08.0000000+00:00</time></trkpt><trkpt lat="39.48094273" lon="-0.37440453"><ele>8.0</ele><time>2022-11-09T16:19:09.0000000+00:00</time></trkpt><trkpt lat="39.48088909" lon="-0.37433756"><ele>7.8</ele><time>2022-11-09T16:19:10.0000000+00:00</time></trkpt><trkpt lat="39.48084533" lon="-0.37427964"><ele>7.8</ele><time>2022-11-09T16:19:11.0000000+00:00</time></trkpt><trkpt lat="39.48080074" lon="-0.37422281"><ele>7.8</ele><time>2022-11-09T16:19:12.0000000+00:00</time></trkpt><trkpt lat="39.48076" lon="-0.37417981"><ele>7.8</ele><time>2022-11-09T16:19:13.0000000+00:00</time></trkpt><trkpt lat="39.48070192" lon="-0.37411032"><ele>7.8</ele><time>2022-11-09T16:19:14.0000000+00:00</time></trkpt><trkpt lat="39.48065364" lon="-0.37405048"><ele>7.8</ele><time>2022-11-09T16:19:15.0000000+00:00</time></trkpt><trkpt lat="39.48059899" lon="-0.37398811"><ele>7.8</ele><time>2022-11-09T16:19:16.0000000+00:00</time></trkpt><trkpt lat="39.48054635" lon="-0.37392542"><ele>7.8</ele><time>2022-11-09T16:19:17.0000000+00:00</time></trkpt><trkpt lat="39.48049908" lon="-0.37386239"><ele>7.8</ele><time>2022-11-09T16:19:18.0000000+00:00</time></trkpt><trkpt lat="39.48045348" lon="-0.3737908"><ele>7.6</ele><time>2022-11-09T16:19:19.0000000+00:00</time></trkpt><trkpt lat="39.48041266" lon="-0.37371797"><ele>7.6</ele><time>2022-11-09T16:19:20.0000000+00:00</time></trkpt><trkpt lat="39.48036949" lon="-0.37365544"><ele>7.6</ele><time>2022-11-09T16:19:21.0000000+00:00</time></trkpt><trkpt lat="39.48033018" lon="-0.37359685"><ele>7.6</ele><time>2022-11-09T16:19:22.0000000+00:00</time></trkpt><trkpt lat="39.48029464" lon="-0.37354178"><ele>7.6</ele><time>2022-11-09T16:19:23.0000000+00:00</time></trkpt><trkpt lat="39.48025634" lon="-0.37348595"><ele>7.6</ele><time>2022-11-09T16:19:24.0000000+00:00</time></trkpt><trkpt lat="39.48022147" lon="-0.37341957"><ele>7.6</ele><time>2022-11-09T16:19:25.0000000+00:00</time></trkpt><trkpt lat="39.48018526" lon="-0.37335302"><ele>7.6</ele><time>2022-11-09T16:19:26.0000000+00:00</time></trkpt><trkpt lat="39.48014184" lon="-0.37329393"><ele>7.6</ele><time>2022-11-09T16:19:27.0000000+00:00</time></trkpt><trkpt lat="39.48010152" lon="-0.37325042"><ele>7.6</ele><time>2022-11-09T16:19:28.0000000+00:00</time></trkpt><trkpt lat="39.48004914" lon="-0.37318295"><ele>7.4</ele><time>2022-11-09T16:19:29.0000000+00:00</time></trkpt><trkpt lat="39.48001251" lon="-0.37312319"><ele>7.4</ele><time>2022-11-09T16:19:30.0000000+00:00</time></trkpt><trkpt lat="39.47998552" lon="-0.37306133"><ele>7.4</ele><time>2022-11-09T16:19:31.0000000+00:00</time></trkpt><trkpt lat="39.47995719" lon="-0.37300517"><ele>7.4</ele><time>2022-11-09T16:19:32.0000000+00:00</time></trkpt><trkpt lat="39.47992525" lon="-0.37295211"><ele>7.4</ele><time>2022-11-09T16:19:33.0000000+00:00</time></trkpt><trkpt lat="39.47989399" lon="-0.37289838"><ele>7.4</ele><time>2022-11-09T16:19:34.0000000+00:00</time></trkpt><trkpt lat="39.47986415" lon="-0.3728408"><ele>7.4</ele><time>2022-11-09T16:19:35.0000000+00:00</time></trkpt><trkpt lat="39.47983406" lon="-0.37278196"><ele>7.4</ele><time>2022-11-09T16:19:36.0000000+00:00</time></trkpt><trkpt lat="39.47980003" lon="-0.37272194"><ele>7.4</ele><time>2022-11-09T16:19:37.0000000+00:00</time></trkpt><trkpt lat="39.47975627" lon="-0.37265464"><ele>7.4</ele><time>2022-11-09T16:19:38.0000000+00:00</time></trkpt><trkpt lat="39.47971386" lon="-0.37258792"><ele>7.6</ele><time>2022-11-09T16:19:39.0000000+00:00</time></trkpt><trkpt lat="39.47968444" lon="-0.37252371"><ele>7.6</ele><time>2022-11-09T16:19:40.0000000+00:00</time></trkpt><trkpt lat="39.47965669" lon="-0.37245674"><ele>7.6</ele><time>2022-11-09T16:19:41.0000000+00:00</time></trkpt><trkpt lat="39.4796235" lon="-0.37239438"><ele>7.6</ele><time>2022-11-09T16:19:42.0000000+00:00</time></trkpt><trkpt lat="39.47960137" lon="-0.37233537"><ele>7.6</ele><time>2022-11-09T16:19:43.0000000+00:00</time></trkpt><trkpt lat="39.47957447" lon="-0.37227653"><ele>7.6</ele><time>2022-11-09T16:19:44.0000000+00:00</time></trkpt><trkpt lat="39.47954916" lon="-0.3722135"><ele>7.6</ele><time>2022-11-09T16:19:45.0000000+00:00</time></trkpt><trkpt lat="39.47952468" lon="-0.37214946"><ele>7.6</ele><time>2022-11-09T16:19:46.0000000+00:00</time></trkpt><trkpt lat="39.47948855" lon="-0.37210143"><ele>7.6</ele><time>2022-11-09T16:19:47.0000000+00:00</time></trkpt><trkpt lat="39.47944396" lon="-0.37205684"><ele>7.6</ele><time>2022-11-09T16:19:48.0000000+00:00</time></trkpt><trkpt lat="39.47939971" lon="-0.37201485"><ele>7.6</ele><time>2022-11-09T16:19:49.0000000+00:00</time></trkpt><trkpt lat="39.47935226" lon="-0.37197612"><ele>7.8</ele><time>2022-11-09T16:19:50.0000000+00:00</time></trkpt><trkpt lat="39.47930038" lon="-0.37193488"><ele>7.8</ele><time>2022-11-09T16:19:51.0000000+00:00</time></trkpt><trkpt lat="39.47925001" lon="-0.3718882"><ele>7.8</ele><time>2022-11-09T16:19:52.0000000+00:00</time></trkpt><trkpt lat="39.47920047" lon="-0.37184076"><ele>7.8</ele><time>2022-11-09T16:19:53.0000000+00:00</time></trkpt><trkpt lat="39.47915143" lon="-0.37179331"><ele>7.8</ele><time>2022-11-09T16:19:54.0000000+00:00</time></trkpt><trkpt lat="39.47910332" lon="-0.37177395"><ele>7.6</ele><time>2022-11-09T16:19:55.0000000+00:00</time></trkpt><trkpt lat="39.47905697" lon="-0.37174931"><ele>7.4</ele><time>2022-11-09T16:19:56.0000000+00:00</time></trkpt><trkpt lat="39.47900903" lon="-0.37174453"><ele>7.4</ele><time>2022-11-09T16:19:57.0000000+00:00</time></trkpt><trkpt lat="39.47899251" lon="-0.3717359"><ele>7.2</ele><time>2022-11-09T16:19:58.0000000+00:00</time></trkpt><trkpt lat="39.47899243" lon="-0.37172726"><ele>7.2</ele><time>2022-11-09T16:19:59.0000000+00:00</time></trkpt><trkpt lat="39.47899578" lon="-0.37170044"><ele>7.2</ele><time>2022-11-09T16:20:00.0000000+00:00</time></trkpt><trkpt lat="39.47899419" lon="-0.37167211"><ele>7.4</ele><time>2022-11-09T16:20:01.0000000+00:00</time></trkpt><trkpt lat="39.47898271" lon="-0.37165577"><ele>7.6</ele><time>2022-11-09T16:20:02.0000000+00:00</time></trkpt><trkpt lat="39.4789594" lon="-0.37164495"><ele>7.8</ele><time>2022-11-09T16:20:03.0000000+00:00</time></trkpt><trkpt lat="39.47893803" lon="-0.37162735"><ele>8.2</ele><time>2022-11-09T16:20:04.0000000+00:00</time></trkpt><trkpt lat="39.47890576" lon="-0.37160556"><ele>8.4</ele><time>2022-11-09T16:20:05.0000000+00:00</time></trkpt><trkpt lat="39.47887844" lon="-0.37159022"><ele>8.6</ele><time>2022-11-09T16:20:06.0000000+00:00</time></trkpt><trkpt lat="39.47885002" lon="-0.37156927"><ele>8.6</ele><time>2022-11-09T16:20:07.0000000+00:00</time></trkpt><trkpt lat="39.47882555" lon="-0.37154974"><ele>8.8</ele><time>2022-11-09T16:20:08.0000000+00:00</time></trkpt><trkpt lat="39.47880761" lon="-0.37152777"><ele>9.0</ele><time>2022-11-09T16:20:09.0000000+00:00</time></trkpt><trkpt lat="39.47880442" lon="-0.37151135"><ele>9.0</ele><time>2022-11-09T16:20:10.0000000+00:00</time></trkpt><trkpt lat="39.47880786" lon="-0.37150372"><ele>9.2</ele><time>2022-11-09T16:20:11.0000000+00:00</time></trkpt><trkpt lat="39.47880652" lon="-0.37151294"><ele>9.2</ele><time>2022-11-09T16:20:12.0000000+00:00</time></trkpt><trkpt lat="39.47882487" lon="-0.37152417"><ele>9.2</ele><time>2022-11-09T16:20:13.0000000+00:00</time></trkpt><trkpt lat="39.47885857" lon="-0.37154328"><ele>9.6</ele><time>2022-11-09T16:20:14.0000000+00:00</time></trkpt><trkpt lat="39.47888237" lon="-0.37156424"><ele>9.8</ele><time>2022-11-09T16:20:15.0000000+00:00</time></trkpt><trkpt lat="39.47890542" lon="-0.37159533"><ele>8.2</ele><time>2022-11-09T16:20:16.0000000+00:00</time></trkpt><trkpt lat="39.47892881" lon="-0.37162869"><ele>8.2</ele><time>2022-11-09T16:20:17.0000000+00:00</time></trkpt><trkpt lat="39.47895387" lon="-0.37166365"><ele>8.2</ele><time>2022-11-09T16:20:18.0000000+00:00</time></trkpt><trkpt lat="39.47898598" lon="-0.37170237"><ele>8.2</ele><time>2022-11-09T16:20:19.0000000+00:00</time></trkpt><trkpt lat="39.47900785" lon="-0.37172525"><ele>8.2</ele><time>2022-11-09T16:20:20.0000000+00:00</time></trkpt><trkpt lat="39.47903384" lon="-0.37175124"><ele>8.4</ele><time>2022-11-09T16:20:21.0000000+00:00</time></trkpt><trkpt lat="39.47905806" lon="-0.371768"><ele>8.6</ele><time>2022-11-09T16:20:22.0000000+00:00</time></trkpt><trkpt lat="39.4790791" lon="-0.37177688"><ele>8.8</ele><time>2022-11-09T16:20:23.0000000+00:00</time></trkpt><trkpt lat="39.47909812" lon="-0.37178133"><ele>8.8</ele><time>2022-11-09T16:20:24.0000000+00:00</time></trkpt><trkpt lat="39.47911447" lon="-0.37178644"><ele>9.0</ele><time>2022-11-09T16:20:25.0000000+00:00</time></trkpt><trkpt lat="39.47913148" lon="-0.37180547"><ele>9.0</ele><time>2022-11-09T16:20:26.0000000+00:00</time></trkpt><trkpt lat="39.47915336" lon="-0.37183078"><ele>9.0</ele><time>2022-11-09T16:20:27.0000000+00:00</time></trkpt><trkpt lat="39.47917599" lon="-0.37185618"><ele>9.2</ele><time>2022-11-09T16:20:28.0000000+00:00</time></trkpt><trkpt lat="39.47919502" lon="-0.37188652"><ele>9.2</ele><time>2022-11-09T16:20:29.0000000+00:00</time></trkpt><trkpt lat="39.47922436" lon="-0.37191334"><ele>9.4</ele><time>2022-11-09T16:20:30.0000000+00:00</time></trkpt><trkpt lat="39.479249" lon="-0.37193371"><ele>9.4</ele><time>2022-11-09T16:20:31.0000000+00:00</time></trkpt><trkpt lat="39.47927565" lon="-0.37195609"><ele>9.6</ele><time>2022-11-09T16:20:32.0000000+00:00</time></trkpt><trkpt lat="39.47929904" lon="-0.37198082"><ele>9.6</ele><time>2022-11-09T16:20:33.0000000+00:00</time></trkpt><trkpt lat="39.47931337" lon="-0.37200471"><ele>9.6</ele><time>2022-11-09T16:20:34.0000000+00:00</time></trkpt><trkpt lat="39.47932452" lon="-0.37202465"><ele>9.6</ele><time>2022-11-09T16:20:35.0000000+00:00</time></trkpt><trkpt lat="39.47933709" lon="-0.3720363"><ele>9.8</ele><time>2022-11-09T16:20:36.0000000+00:00</time></trkpt><trkpt lat="39.47935721" lon="-0.37205407"><ele>9.6</ele><time>2022-11-09T16:20:37.0000000+00:00</time></trkpt><trkpt lat="39.47937238" lon="-0.37206933"><ele>9.8</ele><time>2022-11-09T16:20:38.0000000+00:00</time></trkpt><trkpt lat="39.47938965" lon="-0.37208953"><ele>9.8</ele><time>2022-11-09T16:20:39.0000000+00:00</time></trkpt><trkpt lat="39.47941396" lon="-0.37211551"><ele>9.8</ele><time>2022-11-09T16:20:40.0000000+00:00</time></trkpt><trkpt lat="39.47943315" lon="-0.37214384"><ele>9.8</ele><time>2022-11-09T16:20:41.0000000+00:00</time></trkpt><trkpt lat="39.47945058" lon="-0.37216974"><ele>9.8</ele><time>2022-11-09T16:20:42.0000000+00:00</time></trkpt><trkpt lat="39.47948369" lon="-0.37220637"><ele>9.8</ele><time>2022-11-09T16:20:43.0000000+00:00</time></trkpt><trkpt lat="39.47950909" lon="-0.37223118"><ele>10.0</ele><time>2022-11-09T16:20:44.0000000+00:00</time></trkpt><trkpt lat="39.47953926" lon="-0.37226446"><ele>10.0</ele><time>2022-11-09T16:20:45.0000000+00:00</time></trkpt><trkpt lat="39.47956667" lon="-0.37230352"><ele>10.0</ele><time>2022-11-09T16:20:46.0000000+00:00</time></trkpt><trkpt lat="39.4795919" lon="-0.37234836"><ele>10.0</ele><time>2022-11-09T16:20:47.0000000+00:00</time></trkpt><trkpt lat="39.47961881" lon="-0.37239455"><ele>10.0</ele><time>2022-11-09T16:20:48.0000000+00:00</time></trkpt><trkpt lat="39.47964831" lon="-0.37244241"><ele>10.0</ele><time>2022-11-09T16:20:49.0000000+00:00</time></trkpt><trkpt lat="39.47967388" lon="-0.37249203"><ele>10.0</ele><time>2022-11-09T16:20:50.0000000+00:00</time></trkpt><trkpt lat="39.47969852" lon="-0.37254106"><ele>10.0</ele><time>2022-11-09T16:20:51.0000000+00:00</time></trkpt><trkpt lat="39.47972484" lon="-0.37258666"><ele>10.2</ele><time>2022-11-09T16:20:52.0000000+00:00</time></trkpt><trkpt lat="39.47974948" lon="-0.37263352"><ele>10.2</ele><time>2022-11-09T16:20:53.0000000+00:00</time></trkpt><trkpt lat="39.47977924" lon="-0.3726854"><ele>10.0</ele><time>2022-11-09T16:20:54.0000000+00:00</time></trkpt><trkpt lat="39.47980824" lon="-0.37274055"><ele>10.0</ele><time>2022-11-09T16:20:55.0000000+00:00</time></trkpt><trkpt lat="39.47983808" lon="-0.37279705"><ele>10.0</ele><time>2022-11-09T16:20:56.0000000+00:00</time></trkpt><trkpt lat="39.47987798" lon="-0.37286301"><ele>10.0</ele><time>2022-11-09T16:20:57.0000000+00:00</time></trkpt><trkpt lat="39.47990991" lon="-0.3729149"><ele>10.0</ele><time>2022-11-09T16:20:58.0000000+00:00</time></trkpt><trkpt lat="39.47993933" lon="-0.37297013"><ele>10.0</ele><time>2022-11-09T16:20:59.0000000+00:00</time></trkpt><trkpt lat="39.47996205" lon="-0.37301573"><ele>10.0</ele><time>2022-11-09T16:21:00.0000000+00:00</time></trkpt><trkpt lat="39.47999432" lon="-0.3730713"><ele>10.0</ele><time>2022-11-09T16:21:01.0000000+00:00</time></trkpt><trkpt lat="39.48003162" lon="-0.37313945"><ele>10.0</ele><time>2022-11-09T16:21:02.0000000+00:00</time></trkpt><trkpt lat="39.48005123" lon="-0.37318907"><ele>10.0</ele><time>2022-11-09T16:21:03.0000000+00:00</time></trkpt><trkpt lat="39.48008023" lon="-0.37325679"><ele>10.0</ele><time>2022-11-09T16:21:04.0000000+00:00</time></trkpt><trkpt lat="39.48012575" lon="-0.37332175"><ele>10.0</ele><time>2022-11-09T16:21:05.0000000+00:00</time></trkpt><trkpt lat="39.4801529" lon="-0.37336308"><ele>10.0</ele><time>2022-11-09T16:21:06.0000000+00:00</time></trkpt><trkpt lat="39.48018199" lon="-0.37341085"><ele>10.0</ele><time>2022-11-09T16:21:07.0000000+00:00</time></trkpt><trkpt lat="39.48020571" lon="-0.37345117"><ele>9.8</ele><time>2022-11-09T16:21:08.0000000+00:00</time></trkpt><trkpt lat="39.48022264" lon="-0.37348319"><ele>9.6</ele><time>2022-11-09T16:21:09.0000000+00:00</time></trkpt><trkpt lat="39.48023966" lon="-0.37350917"><ele>9.6</ele><time>2022-11-09T16:21:10.0000000+00:00</time></trkpt><trkpt lat="39.48025491" lon="-0.37353315"><ele>9.4</ele><time>2022-11-09T16:21:11.0000000+00:00</time></trkpt><trkpt lat="39.48026723" lon="-0.37355485"><ele>9.4</ele><time>2022-11-09T16:21:12.0000000+00:00</time></trkpt><trkpt lat="39.48027268" lon="-0.37358243"><ele>9.4</ele><time>2022-11-09T16:21:13.0000000+00:00</time></trkpt><trkpt lat="39.48027327" lon="-0.37359827"><ele>9.4</ele><time>2022-11-09T16:21:14.0000000+00:00</time></trkpt><trkpt lat="39.48027612" lon="-0.3736023"><ele>9.2</ele><time>2022-11-09T16:21:15.0000000+00:00</time></trkpt><trkpt lat="39.48027612" lon="-0.3736023"><ele>9.2</ele><time>2022-11-09T16:21:16.0000000+00:00</time></trkpt><trkpt lat="39.48027612" lon="-0.3736023"><ele>9.2</ele><time>2022-11-09T16:21:17.0000000+00:00</time></trkpt><trkpt lat="39.48027612" lon="-0.3736023"><ele>9.0</ele><time>2022-11-09T16:21:18.0000000+00:00</time></trkpt><trkpt lat="39.48027612" lon="-0.3736023"><ele>9.0</ele><time>2022-11-09T16:21:19.0000000+00:00</time></trkpt><trkpt lat="39.48027612" lon="-0.3736023"><ele>9.0</ele><time>2022-11-09T16:21:20.0000000+00:00</time></trkpt><trkpt lat="39.48027612" lon="-0.3736023"><ele>9.0</ele><time>2022-11-09T16:21:21.0000000+00:00</time></trkpt><trkpt lat="39.48027612" lon="-0.3736023"><ele>9.0</ele><time>2022-11-09T16:21:22.0000000+00:00</time></trkpt><trkpt lat="39.48027612" lon="-0.3736023"><ele>9.0</ele><time>2022-11-09T16:21:23.0000000+00:00</time></trkpt><trkpt lat="39.48027612" lon="-0.3736023"><ele>9.0</ele><time>2022-11-09T16:21:24.0000000+00:00</time></trkpt><trkpt lat="39.48027612" lon="-0.3736023"><ele>9.0</ele><time>2022-11-09T16:21:25.0000000+00:00</time></trkpt><trkpt lat="39.48027612" lon="-0.3736023"><ele>9.0</ele><time>2022-11-09T16:21:26.0000000+00:00</time></trkpt><trkpt lat="39.48027612" lon="-0.3736023"><ele>9.0</ele><time>2022-11-09T16:21:27.0000000+00:00</time></trkpt><trkpt lat="39.48027612" lon="-0.3736023"><ele>9.0</ele><time>2022-11-09T16:21:28.0000000+00:00</time></trkpt><trkpt lat="39.48027612" lon="-0.3736023"><ele>9.0</ele><time>2022-11-09T16:21:29.0000000+00:00</time></trkpt><trkpt lat="39.48027612" lon="-0.3736023"><ele>9.0</ele><time>2022-11-09T16:21:30.0000000+00:00</time></trkpt><trkpt lat="39.48027612" lon="-0.3736023"><ele>9.0</ele><time>2022-11-09T16:21:31.0000000+00:00</time></trkpt><trkpt lat="39.48027612" lon="-0.3736023"><ele>9.0</ele><time>2022-11-09T16:21:32.0000000+00:00</time></trkpt><trkpt lat="39.48027612" lon="-0.3736023"><ele>9.0</ele><time>2022-11-09T16:21:33.0000000+00:00</time></trkpt><trkpt lat="39.48027612" lon="-0.3736023"><ele>9.0</ele><time>2022-11-09T16:21:34.0000000+00:00</time></trkpt><trkpt lat="39.48027612" lon="-0.3736023"><ele>9.0</ele><time>2022-11-09T16:21:35.0000000+00:00</time></trkpt><trkpt lat="39.48027612" lon="-0.3736023"><ele>9.0</ele><time>2022-11-09T16:21:36.0000000+00:00</time></trkpt><trkpt lat="39.48027612" lon="-0.3736023"><ele>9.0</ele><time>2022-11-09T16:21:37.0000000+00:00</time></trkpt><trkpt lat="39.48027612" lon="-0.3736023"><ele>9.0</ele><time>2022-11-09T16:21:38.0000000+00:00</time></trkpt><trkpt lat="39.48027612" lon="-0.3736023"><ele>9.0</ele><time>2022-11-09T16:21:39.0000000+00:00</time></trkpt><trkpt lat="39.48027612" lon="-0.3736023"><ele>9.0</ele><time>2022-11-09T16:21:40.0000000+00:00</time></trkpt><trkpt lat="39.48027612" lon="-0.3736023"><ele>9.0</ele><time>2022-11-09T16:21:41.0000000+00:00</time></trkpt><trkpt lat="39.48027612" lon="-0.3736023"><ele>9.0</ele><time>2022-11-09T16:21:42.0000000+00:00</time></trkpt><trkpt lat="39.48027612" lon="-0.3736023"><ele>9.0</ele><time>2022-11-09T16:21:43.0000000+00:00</time></trkpt><trkpt lat="39.48027612" lon="-0.3736023"><ele>9.0</ele><time>2022-11-09T16:21:44.0000000+00:00</time></trkpt><trkpt lat="39.48027612" lon="-0.3736023"><ele>9.0</ele><time>2022-11-09T16:21:45.0000000+00:00</time></trkpt><trkpt lat="39.48027612" lon="-0.3736023"><ele>9.0</ele><time>2022-11-09T16:21:46.0000000+00:00</time></trkpt><trkpt lat="39.48027612" lon="-0.3736023"><ele>9.0</ele><time>2022-11-09T16:21:47.0000000+00:00</time></trkpt><trkpt lat="39.48027612" lon="-0.3736023"><ele>9.0</ele><time>2022-11-09T16:21:48.0000000+00:00</time></trkpt><trkpt lat="39.48027612" lon="-0.3736023"><ele>9.0</ele><time>2022-11-09T16:21:49.0000000+00:00</time></trkpt><trkpt lat="39.48027612" lon="-0.3736023"><ele>9.0</ele><time>2022-11-09T16:21:50.0000000+00:00</time></trkpt><trkpt lat="39.48027612" lon="-0.3736023"><ele>9.0</ele><time>2022-11-09T16:21:51.0000000+00:00</time></trkpt><trkpt lat="39.48027612" lon="-0.3736023"><ele>9.0</ele><time>2022-11-09T16:21:52.0000000+00:00</time></trkpt><trkpt lat="39.48027612" lon="-0.3736023"><ele>9.0</ele><time>2022-11-09T16:21:53.0000000+00:00</time></trkpt><trkpt lat="39.48027612" lon="-0.3736023"><ele>9.0</ele><time>2022-11-09T16:21:54.0000000+00:00</time></trkpt><trkpt lat="39.48027612" lon="-0.3736023"><ele>9.0</ele><time>2022-11-09T16:21:55.0000000+00:00</time></trkpt><trkpt lat="39.48027612" lon="-0.3736023"><ele>9.0</ele><time>2022-11-09T16:21:56.0000000+00:00</time></trkpt><trkpt lat="39.48027612" lon="-0.3736023"><ele>9.0</ele><time>2022-11-09T16:21:57.0000000+00:00</time></trkpt><trkpt lat="39.48027612" lon="-0.3736023"><ele>9.0</ele><time>2022-11-09T16:21:58.0000000+00:00</time></trkpt><trkpt lat="39.48027612" lon="-0.3736023"><ele>9.0</ele><time>2022-11-09T16:21:59.0000000+00:00</time></trkpt><trkpt lat="39.48027612" lon="-0.3736023"><ele>9.0</ele><time>2022-11-09T16:22:00.0000000+00:00</time></trkpt><trkpt lat="39.48027612" lon="-0.3736023"><ele>9.0</ele><time>2022-11-09T16:22:01.0000000+00:00</time></trkpt><trkpt lat="39.48027612" lon="-0.3736023"><ele>9.0</ele><time>2022-11-09T16:22:02.0000000+00:00</time></trkpt><trkpt lat="39.48027838" lon="-0.3736028"><ele>9.0</ele><time>2022-11-09T16:22:03.0000000+00:00</time></trkpt><trkpt lat="39.48027838" lon="-0.3736028"><ele>9.0</ele><time>2022-11-09T16:22:04.0000000+00:00</time></trkpt><trkpt lat="39.48027838" lon="-0.3736028"><ele>9.0</ele><time>2022-11-09T16:22:05.0000000+00:00</time></trkpt><trkpt lat="39.48027838" lon="-0.3736028"><ele>9.0</ele><time>2022-11-09T16:22:06.0000000+00:00</time></trkpt><trkpt lat="39.48027838" lon="-0.3736028"><ele>9.0</ele><time>2022-11-09T16:22:07.0000000+00:00</time></trkpt><trkpt lat="39.48027838" lon="-0.3736028"><ele>9.0</ele><time>2022-11-09T16:22:08.0000000+00:00</time></trkpt><trkpt lat="39.48027838" lon="-0.3736028"><ele>9.0</ele><time>2022-11-09T16:22:09.0000000+00:00</time></trkpt><trkpt lat="39.48027838" lon="-0.3736028"><ele>9.0</ele><time>2022-11-09T16:22:10.0000000+00:00</time></trkpt><trkpt lat="39.48027838" lon="-0.3736028"><ele>9.0</ele><time>2022-11-09T16:22:11.0000000+00:00</time></trkpt><trkpt lat="39.48027838" lon="-0.3736028"><ele>9.0</ele><time>2022-11-09T16:22:12.0000000+00:00</time></trkpt><trkpt lat="39.48028416" lon="-0.3736023"><ele>9.0</ele><time>2022-11-09T16:22:13.0000000+00:00</time></trkpt><trkpt lat="39.48029573" lon="-0.37360833"><ele>9.0</ele><time>2022-11-09T16:22:14.0000000+00:00</time></trkpt><trkpt lat="39.48030797" lon="-0.37361495"><ele>9.0</ele><time>2022-11-09T16:22:15.0000000+00:00</time></trkpt><trkpt lat="39.48032666" lon="-0.37362509"><ele>9.0</ele><time>2022-11-09T16:22:16.0000000+00:00</time></trkpt><trkpt lat="39.48035969" lon="-0.37363465"><ele>9.0</ele><time>2022-11-09T16:22:17.0000000+00:00</time></trkpt><trkpt lat="39.48040335" lon="-0.37363247"><ele>9.0</ele><time>2022-11-09T16:22:18.0000000+00:00</time></trkpt><trkpt lat="39.48044535" lon="-0.37362233"><ele>9.0</ele><time>2022-11-09T16:22:19.0000000+00:00</time></trkpt><trkpt lat="39.48047519" lon="-0.37360841"><ele>9.0</ele><time>2022-11-09T16:22:20.0000000+00:00</time></trkpt><trkpt lat="39.48050427" lon="-0.37358989"><ele>9.0</ele><time>2022-11-09T16:22:21.0000000+00:00</time></trkpt><trkpt lat="39.48053202" lon="-0.37356927"><ele>9.2</ele><time>2022-11-09T16:22:22.0000000+00:00</time></trkpt><trkpt lat="39.48056093" lon="-0.37354739"><ele>9.2</ele><time>2022-11-09T16:22:23.0000000+00:00</time></trkpt><trkpt lat="39.48058868" lon="-0.37352175"><ele>9.2</ele><time>2022-11-09T16:22:24.0000000+00:00</time></trkpt><trkpt lat="39.4806098" lon="-0.37349685"><ele>9.2</ele><time>2022-11-09T16:22:25.0000000+00:00</time></trkpt><trkpt lat="39.48063193" lon="-0.37347305"><ele>9.2</ele><time>2022-11-09T16:22:26.0000000+00:00</time></trkpt><trkpt lat="39.48065858" lon="-0.37344371"><ele>9.2</ele><time>2022-11-09T16:22:27.0000000+00:00</time></trkpt><trkpt lat="39.48068809" lon="-0.37340549"><ele>9.2</ele><time>2022-11-09T16:22:28.0000000+00:00</time></trkpt><trkpt lat="39.48072187" lon="-0.37337992"><ele>9.2</ele><time>2022-11-09T16:22:29.0000000+00:00</time></trkpt><trkpt lat="39.48075439" lon="-0.3733723"><ele>9.2</ele><time>2022-11-09T16:22:30.0000000+00:00</time></trkpt><trkpt lat="39.48079144" lon="-0.37335201"><ele>9.4</ele><time>2022-11-09T16:22:31.0000000+00:00</time></trkpt><trkpt lat="39.48082865" lon="-0.37332997"><ele>9.4</ele><time>2022-11-09T16:22:32.0000000+00:00</time></trkpt><trkpt lat="39.48085615" lon="-0.37334355"><ele>9.6</ele><time>2022-11-09T16:22:33.0000000+00:00</time></trkpt><trkpt lat="39.4808652" lon="-0.37337649"><ele>9.6</ele><time>2022-11-09T16:22:34.0000000+00:00</time></trkpt><trkpt lat="39.48087534" lon="-0.3734049"><ele>9.8</ele><time>2022-11-09T16:22:35.0000000+00:00</time></trkpt><trkpt lat="39.48088448" lon="-0.37343281"><ele>9.8</ele><time>2022-11-09T16:22:36.0000000+00:00</time></trkpt><trkpt lat="39.48089168" lon="-0.37345922"><ele>9.8</ele><time>2022-11-09T16:22:37.0000000+00:00</time></trkpt><trkpt lat="39.4809082" lon="-0.37349928"><ele>9.8</ele><time>2022-11-09T16:22:38.0000000+00:00</time></trkpt><trkpt lat="39.48093401" lon="-0.37352149"><ele>9.8</ele><time>2022-11-09T16:22:39.0000000+00:00</time></trkpt><trkpt lat="39.48118916" lon="-0.37291121"><ele>9.2</ele><time>2022-11-09T16:22:47.0000000+00:00</time></trkpt><trkpt lat="39.48126091" lon="-0.3729107"><ele>9.2</ele><time>2022-11-09T16:22:48.0000000+00:00</time></trkpt><trkpt lat="39.48131623" lon="-0.37290048"><ele>9.2</ele><time>2022-11-09T16:22:49.0000000+00:00</time></trkpt><trkpt lat="39.4813609" lon="-0.37288388"><ele>9.0</ele><time>2022-11-09T16:22:50.0000000+00:00</time></trkpt><trkpt lat="39.48139946" lon="-0.3728703"><ele>9.0</ele><time>2022-11-09T16:22:51.0000000+00:00</time></trkpt><trkpt lat="39.48143533" lon="-0.37282613"><ele>9.2</ele><time>2022-11-09T16:22:52.0000000+00:00</time></trkpt><trkpt lat="39.48147842" lon="-0.37278338"><ele>9.2</ele><time>2022-11-09T16:22:53.0000000+00:00</time></trkpt><trkpt lat="39.48153315" lon="-0.37270535"><ele>9.2</ele><time>2022-11-09T16:22:54.0000000+00:00</time></trkpt><trkpt lat="39.48158277" lon="-0.37269705"><ele>9.2</ele><time>2022-11-09T16:22:55.0000000+00:00</time></trkpt><trkpt lat="39.48163264" lon="-0.37266838"><ele>9.2</ele><time>2022-11-09T16:22:56.0000000+00:00</time></trkpt><trkpt lat="39.48168662" lon="-0.37267073"><ele>9.2</ele><time>2022-11-09T16:22:57.0000000+00:00</time></trkpt><trkpt lat="39.48174714" lon="-0.37264927"><ele>9.2</ele><time>2022-11-09T16:22:58.0000000+00:00</time></trkpt><trkpt lat="39.48179634" lon="-0.37263502"><ele>9.2</ele><time>2022-11-09T16:22:59.0000000+00:00</time></trkpt><trkpt lat="39.48184085" lon="-0.3726315"><ele>9.4</ele><time>2022-11-09T16:23:00.0000000+00:00</time></trkpt><trkpt lat="39.48188813" lon="-0.37265321"><ele>9.4</ele><time>2022-11-09T16:23:01.0000000+00:00</time></trkpt><trkpt lat="39.48194412" lon="-0.37264818"><ele>9.6</ele><time>2022-11-09T16:23:02.0000000+00:00</time></trkpt><trkpt lat="39.48200522" lon="-0.3725968"><ele>9.6</ele><time>2022-11-09T16:23:03.0000000+00:00</time></trkpt><trkpt lat="39.48205434" lon="-0.3725901"><ele>9.8</ele><time>2022-11-09T16:23:04.0000000+00:00</time></trkpt><trkpt lat="39.48210203" lon="-0.37255791"><ele>9.8</ele><time>2022-11-09T16:23:05.0000000+00:00</time></trkpt><trkpt lat="39.48215962" lon="-0.37251005"><ele>9.8</ele><time>2022-11-09T16:23:06.0000000+00:00</time></trkpt><trkpt lat="39.48221804" lon="-0.37246973"><ele>9.6</ele><time>2022-11-09T16:23:07.0000000+00:00</time></trkpt><trkpt lat="39.48227537" lon="-0.3724347"><ele>9.6</ele><time>2022-11-09T16:23:08.0000000+00:00</time></trkpt><trkpt lat="39.48232491" lon="-0.37238692"><ele>9.6</ele><time>2022-11-09T16:23:09.0000000+00:00</time></trkpt><trkpt lat="39.48237872" lon="-0.37235172"><ele>9.6</ele><time>2022-11-09T16:23:10.0000000+00:00</time></trkpt><trkpt lat="39.48243412" lon="-0.37228718"><ele>9.6</ele><time>2022-11-09T16:23:11.0000000+00:00</time></trkpt><trkpt lat="39.4824907" lon="-0.37224233"><ele>9.6</ele><time>2022-11-09T16:23:12.0000000+00:00</time></trkpt><trkpt lat="39.48256664" lon="-0.37218894"><ele>9.8</ele><time>2022-11-09T16:23:13.0000000+00:00</time></trkpt><trkpt lat="39.48262892" lon="-0.37213756"><ele>9.8</ele><time>2022-11-09T16:23:14.0000000+00:00</time></trkpt><trkpt lat="39.48268583" lon="-0.37211962"><ele>9.6</ele><time>2022-11-09T16:23:15.0000000+00:00</time></trkpt><trkpt lat="39.48273839" lon="-0.3721047"><ele>9.6</ele><time>2022-11-09T16:23:16.0000000+00:00</time></trkpt><trkpt lat="39.48278935" lon="-0.37208576"><ele>9.6</ele><time>2022-11-09T16:23:17.0000000+00:00</time></trkpt><trkpt lat="39.48284995" lon="-0.37205039"><ele>9.6</ele><time>2022-11-09T16:23:18.0000000+00:00</time></trkpt><trkpt lat="39.48289773" lon="-0.37200588"><ele>9.4</ele><time>2022-11-09T16:23:19.0000000+00:00</time></trkpt><trkpt lat="39.48294751" lon="-0.37196363"><ele>9.4</ele><time>2022-11-09T16:23:20.0000000+00:00</time></trkpt><trkpt lat="39.48299881" lon="-0.37193622"><ele>9.4</ele><time>2022-11-09T16:23:21.0000000+00:00</time></trkpt><trkpt lat="39.48305287" lon="-0.37189926"><ele>9.4</ele><time>2022-11-09T16:23:22.0000000+00:00</time></trkpt><trkpt lat="39.48310928" lon="-0.37185936"><ele>9.6</ele><time>2022-11-09T16:23:23.0000000+00:00</time></trkpt><trkpt lat="39.48316586" lon="-0.37182014"><ele>9.6</ele><time>2022-11-09T16:23:24.0000000+00:00</time></trkpt><trkpt lat="39.48322269" lon="-0.37178393"><ele>9.6</ele><time>2022-11-09T16:23:25.0000000+00:00</time></trkpt><trkpt lat="39.48327919" lon="-0.37175207"><ele>9.6</ele><time>2022-11-09T16:23:26.0000000+00:00</time></trkpt><trkpt lat="39.48334104" lon="-0.37171033"><ele>9.4</ele><time>2022-11-09T16:23:27.0000000+00:00</time></trkpt><trkpt lat="39.48339184" lon="-0.37168183"><ele>9.4</ele><time>2022-11-09T16:23:28.0000000+00:00</time></trkpt><trkpt lat="39.48343308" lon="-0.3716639"><ele>9.0</ele><time>2022-11-09T16:23:29.0000000+00:00</time></trkpt><trkpt lat="39.48347272" lon="-0.37164185"><ele>9.0</ele><time>2022-11-09T16:23:30.0000000+00:00</time></trkpt><trkpt lat="39.48351866" lon="-0.37161268"><ele>8.8</ele><time>2022-11-09T16:23:31.0000000+00:00</time></trkpt><trkpt lat="39.48355042" lon="-0.3716162"><ele>8.8</ele><time>2022-11-09T16:23:32.0000000+00:00</time></trkpt><trkpt lat="39.48357607" lon="-0.37158192"><ele>8.8</ele><time>2022-11-09T16:23:33.0000000+00:00</time></trkpt><trkpt lat="39.48359745" lon="-0.37156574"><ele>8.8</ele><time>2022-11-09T16:23:34.0000000+00:00</time></trkpt><trkpt lat="39.48362452" lon="-0.37157086"><ele>8.8</ele><time>2022-11-09T16:23:35.0000000+00:00</time></trkpt><trkpt lat="39.48365956" lon="-0.37157983"><ele>8.8</ele><time>2022-11-09T16:23:36.0000000+00:00</time></trkpt><trkpt lat="39.48369241" lon="-0.37158687"><ele>9.0</ele><time>2022-11-09T16:23:37.0000000+00:00</time></trkpt><trkpt lat="39.48372963" lon="-0.37158092"><ele>9.2</ele><time>2022-11-09T16:23:38.0000000+00:00</time></trkpt><trkpt lat="39.48376081" lon="-0.37156097"><ele>9.2</ele><time>2022-11-09T16:23:39.0000000+00:00</time></trkpt><trkpt lat="39.48381211" lon="-0.37150959"><ele>9.2</ele><time>2022-11-09T16:23:40.0000000+00:00</time></trkpt><trkpt lat="39.4838427" lon="-0.37149408"><ele>9.2</ele><time>2022-11-09T16:23:41.0000000+00:00</time></trkpt><trkpt lat="39.48388453" lon="-0.37147522"><ele>9.2</ele><time>2022-11-09T16:23:42.0000000+00:00</time></trkpt><trkpt lat="39.48392057" lon="-0.37145167"><ele>9.2</ele><time>2022-11-09T16:23:43.0000000+00:00</time></trkpt><trkpt lat="39.48396709" lon="-0.37140364"><ele>9.2</ele><time>2022-11-09T16:23:44.0000000+00:00</time></trkpt><trkpt lat="39.48401294" lon="-0.37135326"><ele>9.4</ele><time>2022-11-09T16:23:45.0000000+00:00</time></trkpt><trkpt lat="39.48405745" lon="-0.37131446"><ele>9.4</ele><time>2022-11-09T16:23:46.0000000+00:00</time></trkpt><trkpt lat="39.48410229" lon="-0.37127171"><ele>9.6</ele><time>2022-11-09T16:23:47.0000000+00:00</time></trkpt><trkpt lat="39.48414898" lon="-0.37123776"><ele>9.6</ele><time>2022-11-09T16:23:48.0000000+00:00</time></trkpt><trkpt lat="39.48419466" lon="-0.37121949"><ele>9.8</ele><time>2022-11-09T16:23:49.0000000+00:00</time></trkpt><trkpt lat="39.4842426" lon="-0.3712044"><ele>9.8</ele><time>2022-11-09T16:23:50.0000000+00:00</time></trkpt><trkpt lat="39.48429465" lon="-0.3711904"><ele>9.8</ele><time>2022-11-09T16:23:51.0000000+00:00</time></trkpt><trkpt lat="39.48434427" lon="-0.37117691"><ele>9.8</ele><time>2022-11-09T16:23:52.0000000+00:00</time></trkpt><trkpt lat="39.48438535" lon="-0.37115813"><ele>9.8</ele><time>2022-11-09T16:23:53.0000000+00:00</time></trkpt><trkpt lat="39.48443136" lon="-0.37113349"><ele>9.8</ele><time>2022-11-09T16:23:54.0000000+00:00</time></trkpt><trkpt lat="39.48446992" lon="-0.37110214"><ele>9.8</ele><time>2022-11-09T16:23:55.0000000+00:00</time></trkpt><trkpt lat="39.48451233" lon="-0.37107356"><ele>9.8</ele><time>2022-11-09T16:23:56.0000000+00:00</time></trkpt><trkpt lat="39.48455122" lon="-0.37104841"><ele>9.8</ele><time>2022-11-09T16:23:57.0000000+00:00</time></trkpt><trkpt lat="39.48459271" lon="-0.37102654"><ele>9.6</ele><time>2022-11-09T16:23:58.0000000+00:00</time></trkpt><trkpt lat="39.48463379" lon="-0.37100801"><ele>9.6</ele><time>2022-11-09T16:23:59.0000000+00:00</time></trkpt><trkpt lat="39.48467393" lon="-0.37098496"><ele>9.6</ele><time>2022-11-09T16:24:00.0000000+00:00</time></trkpt><trkpt lat="39.4847316" lon="-0.37094163"><ele>9.6</ele><time>2022-11-09T16:24:01.0000000+00:00</time></trkpt><trkpt lat="39.48479757" lon="-0.37085496"><ele>9.4</ele><time>2022-11-09T16:24:02.0000000+00:00</time></trkpt><trkpt lat="39.48483185" lon="-0.37077315"><ele>9.4</ele><time>2022-11-09T16:24:03.0000000+00:00</time></trkpt><trkpt lat="39.48485406" lon="-0.3707159"><ele>9.4</ele><time>2022-11-09T16:24:04.0000000+00:00</time></trkpt><trkpt lat="39.48486731" lon="-0.37068447"><ele>9.4</ele><time>2022-11-09T16:24:05.0000000+00:00</time></trkpt><trkpt lat="39.48488533" lon="-0.37062714"><ele>9.4</ele><time>2022-11-09T16:24:06.0000000+00:00</time></trkpt><trkpt lat="39.48489983" lon="-0.37061289"><ele>9.2</ele><time>2022-11-09T16:24:07.0000000+00:00</time></trkpt><trkpt lat="39.48491542" lon="-0.37059319"><ele>9.0</ele><time>2022-11-09T16:24:08.0000000+00:00</time></trkpt><trkpt lat="39.48493377" lon="-0.3705683"><ele>9.0</ele><time>2022-11-09T16:24:09.0000000+00:00</time></trkpt><trkpt lat="39.48496663" lon="-0.37056042"><ele>9.0</ele><time>2022-11-09T16:24:10.0000000+00:00</time></trkpt><trkpt lat="39.4849963" lon="-0.37054265"><ele>9.0</ele><time>2022-11-09T16:24:11.0000000+00:00</time></trkpt><trkpt lat="39.48502673" lon="-0.37052555"><ele>8.8</ele><time>2022-11-09T16:24:12.0000000+00:00</time></trkpt><trkpt lat="39.48504869" lon="-0.37050996"><ele>9.0</ele><time>2022-11-09T16:24:13.0000000+00:00</time></trkpt><trkpt lat="39.48505732" lon="-0.37050434"><ele>9.0</ele><time>2022-11-09T16:24:14.0000000+00:00</time></trkpt><trkpt lat="39.485045" lon="-0.3704968"><ele>9.0</ele><time>2022-11-09T16:24:15.0000000+00:00</time></trkpt><trkpt lat="39.48504668" lon="-0.37051985"><ele>9.0</ele><time>2022-11-09T16:24:16.0000000+00:00</time></trkpt><trkpt lat="39.48504668" lon="-0.37051985"><ele>9.0</ele><time>2022-11-09T16:24:17.0000000+00:00</time></trkpt><trkpt lat="39.48504559" lon="-0.37058272"><ele>9.0</ele><time>2022-11-09T16:24:18.0000000+00:00</time></trkpt><trkpt lat="39.48504919" lon="-0.37057953"><ele>9.0</ele><time>2022-11-09T16:24:19.0000000+00:00</time></trkpt><trkpt lat="39.48505389" lon="-0.37055338"><ele>9.0</ele><time>2022-11-09T16:24:20.0000000+00:00</time></trkpt><trkpt lat="39.48508649" lon="-0.37056754"><ele>9.0</ele><time>2022-11-09T16:24:21.0000000+00:00</time></trkpt><trkpt lat="39.48510535" lon="-0.37055925"><ele>9.0</ele><time>2022-11-09T16:24:22.0000000+00:00</time></trkpt><trkpt lat="39.4851289" lon="-0.37054902"><ele>9.0</ele><time>2022-11-09T16:24:23.0000000+00:00</time></trkpt><trkpt lat="39.48515841" lon="-0.37053393"><ele>9.0</ele><time>2022-11-09T16:24:24.0000000+00:00</time></trkpt><trkpt lat="39.48518867" lon="-0.37051424"><ele>9.2</ele><time>2022-11-09T16:24:25.0000000+00:00</time></trkpt><trkpt lat="39.48521893" lon="-0.37049043"><ele>9.2</ele><time>2022-11-09T16:24:26.0000000+00:00</time></trkpt><trkpt lat="39.48525715" lon="-0.37046788"><ele>9.2</ele><time>2022-11-09T16:24:27.0000000+00:00</time></trkpt><trkpt lat="39.48529746" lon="-0.37044793"><ele>9.2</ele><time>2022-11-09T16:24:28.0000000+00:00</time></trkpt><trkpt lat="39.48534315" lon="-0.37042933"><ele>9.2</ele><time>2022-11-09T16:24:29.0000000+00:00</time></trkpt><trkpt lat="39.48538514" lon="-0.37040854"><ele>9.2</ele><time>2022-11-09T16:24:30.0000000+00:00</time></trkpt><trkpt lat="39.48544096" lon="-0.37037912"><ele>9.4</ele><time>2022-11-09T16:24:31.0000000+00:00</time></trkpt><trkpt lat="39.48549972" lon="-0.37034802"><ele>9.4</ele><time>2022-11-09T16:24:32.0000000+00:00</time></trkpt><trkpt lat="39.48555957" lon="-0.37031994"><ele>9.4</ele><time>2022-11-09T16:24:33.0000000+00:00</time></trkpt><trkpt lat="39.48560701" lon="-0.37029605"><ele>9.4</ele><time>2022-11-09T16:24:34.0000000+00:00</time></trkpt><trkpt lat="39.48564976" lon="-0.37026655"><ele>9.6</ele><time>2022-11-09T16:24:35.0000000+00:00</time></trkpt><trkpt lat="39.48569376" lon="-0.37023864"><ele>9.6</ele><time>2022-11-09T16:24:36.0000000+00:00</time></trkpt><trkpt lat="39.48574053" lon="-0.37021978"><ele>9.4</ele><time>2022-11-09T16:24:37.0000000+00:00</time></trkpt><trkpt lat="39.48578546" lon="-0.37020352"><ele>9.4</ele><time>2022-11-09T16:24:38.0000000+00:00</time></trkpt><trkpt lat="39.48583575" lon="-0.37019312"><ele>9.6</ele><time>2022-11-09T16:24:39.0000000+00:00</time></trkpt><trkpt lat="39.48588923" lon="-0.37017116"><ele>9.6</ele><time>2022-11-09T16:24:40.0000000+00:00</time></trkpt><trkpt lat="39.48594723" lon="-0.37014459"><ele>9.4</ele><time>2022-11-09T16:24:41.0000000+00:00</time></trkpt><trkpt lat="39.48600364" lon="-0.37011014"><ele>9.4</ele><time>2022-11-09T16:24:42.0000000+00:00</time></trkpt><trkpt lat="39.48605628" lon="-0.37004929"><ele>9.4</ele><time>2022-11-09T16:24:43.0000000+00:00</time></trkpt><trkpt lat="39.48610992" lon="-0.36997863"><ele>9.4</ele><time>2022-11-09T16:24:44.0000000+00:00</time></trkpt><trkpt lat="39.48616256" lon="-0.36992767"><ele>9.4</ele><time>2022-11-09T16:24:45.0000000+00:00</time></trkpt><trkpt lat="39.48621042" lon="-0.36987486"><ele>9.4</ele><time>2022-11-09T16:24:46.0000000+00:00</time></trkpt><trkpt lat="39.48624915" lon="-0.36983262"><ele>9.4</ele><time>2022-11-09T16:24:47.0000000+00:00</time></trkpt><trkpt lat="39.48630489" lon="-0.36980244"><ele>9.6</ele><time>2022-11-09T16:24:48.0000000+00:00</time></trkpt><trkpt lat="39.48635786" lon="-0.36977319"><ele>9.6</ele><time>2022-11-09T16:24:49.0000000+00:00</time></trkpt><trkpt lat="39.48641343" lon="-0.36974285"><ele>9.6</ele><time>2022-11-09T16:24:50.0000000+00:00</time></trkpt><trkpt lat="39.48646632" lon="-0.36972634"><ele>9.8</ele><time>2022-11-09T16:24:51.0000000+00:00</time></trkpt><trkpt lat="39.48651175" lon="-0.36971846"><ele>9.8</ele><time>2022-11-09T16:24:52.0000000+00:00</time></trkpt><trkpt lat="39.48654905" lon="-0.36968501"><ele>9.8</ele><time>2022-11-09T16:24:53.0000000+00:00</time></trkpt><trkpt lat="39.48658727" lon="-0.36964855"><ele>9.8</ele><time>2022-11-09T16:24:54.0000000+00:00</time></trkpt><trkpt lat="39.48663203" lon="-0.36962299"><ele>9.8</ele><time>2022-11-09T16:24:55.0000000+00:00</time></trkpt><trkpt lat="39.48667713" lon="-0.36959021"><ele>9.8</ele><time>2022-11-09T16:24:56.0000000+00:00</time></trkpt><trkpt lat="39.48673035" lon="-0.36952752"><ele>9.6</ele><time>2022-11-09T16:24:57.0000000+00:00</time></trkpt><trkpt lat="39.4867845" lon="-0.36946708"><ele>9.6</ele><time>2022-11-09T16:24:58.0000000+00:00</time></trkpt><trkpt lat="39.48683663" lon="-0.36941545"><ele>9.4</ele><time>2022-11-09T16:24:59.0000000+00:00</time></trkpt><trkpt lat="39.4868803" lon="-0.36937421"><ele>9.4</ele><time>2022-11-09T16:25:00.0000000+00:00</time></trkpt><trkpt lat="39.48691886" lon="-0.36932979"><ele>9.4</ele><time>2022-11-09T16:25:01.0000000+00:00</time></trkpt><trkpt lat="39.48695499" lon="-0.36925502"><ele>9.2</ele><time>2022-11-09T16:25:02.0000000+00:00</time></trkpt><trkpt lat="39.48698583" lon="-0.36917187"><ele>9.2</ele><time>2022-11-09T16:25:03.0000000+00:00</time></trkpt><trkpt lat="39.48701366" lon="-0.36908981"><ele>9.2</ele><time>2022-11-09T16:25:04.0000000+00:00</time></trkpt><trkpt lat="39.48704056" lon="-0.36902661"><ele>9.2</ele><time>2022-11-09T16:25:05.0000000+00:00</time></trkpt><trkpt lat="39.4870699" lon="-0.36898571"><ele>9.2</ele><time>2022-11-09T16:25:06.0000000+00:00</time></trkpt><trkpt lat="39.48710159" lon="-0.36897046"><ele>9.2</ele><time>2022-11-09T16:25:07.0000000+00:00</time></trkpt><trkpt lat="39.48713411" lon="-0.36898278"><ele>9.2</ele><time>2022-11-09T16:25:08.0000000+00:00</time></trkpt><trkpt lat="39.48717057" lon="-0.36896761"><ele>9.0</ele><time>2022-11-09T16:25:09.0000000+00:00</time></trkpt><trkpt lat="39.4872113" lon="-0.36893408"><ele>9.0</ele><time>2022-11-09T16:25:10.0000000+00:00</time></trkpt><trkpt lat="39.48725866" lon="-0.36886551"><ele>9.0</ele><time>2022-11-09T16:25:11.0000000+00:00</time></trkpt><trkpt lat="39.48730904" lon="-0.36880139"><ele>9.0</ele><time>2022-11-09T16:25:12.0000000+00:00</time></trkpt><trkpt lat="39.48736033" lon="-0.3687366"><ele>9.2</ele><time>2022-11-09T16:25:13.0000000+00:00</time></trkpt><trkpt lat="39.48740115" lon="-0.36866745"><ele>9.8</ele><time>2022-11-09T16:25:14.0000000+00:00</time></trkpt><trkpt lat="39.48743803" lon="-0.36861699"><ele>10.0</ele><time>2022-11-09T16:25:15.0000000+00:00</time></trkpt><trkpt lat="39.48747626" lon="-0.36856829"><ele>10.2</ele><time>2022-11-09T16:25:16.0000000+00:00</time></trkpt><trkpt lat="39.48751548" lon="-0.36851104"><ele>10.2</ele><time>2022-11-09T16:25:17.0000000+00:00</time></trkpt><trkpt lat="39.48754465" lon="-0.36847157"><ele>10.2</ele><time>2022-11-09T16:25:18.0000000+00:00</time></trkpt><trkpt lat="39.48757399" lon="-0.36842706"><ele>10.0</ele><time>2022-11-09T16:25:19.0000000+00:00</time></trkpt><trkpt lat="39.48760157" lon="-0.3683631"><ele>9.8</ele><time>2022-11-09T16:25:20.0000000+00:00</time></trkpt><trkpt lat="39.4876268" lon="-0.3682849"><ele>9.8</ele><time>2022-11-09T16:25:21.0000000+00:00</time></trkpt><trkpt lat="39.4876485" lon="-0.36822204"><ele>9.8</ele><time>2022-11-09T16:25:22.0000000+00:00</time></trkpt><trkpt lat="39.48766569" lon="-0.3681632"><ele>9.6</ele><time>2022-11-09T16:25:23.0000000+00:00</time></trkpt><trkpt lat="39.48767407" lon="-0.36813151"><ele>9.6</ele><time>2022-11-09T16:25:24.0000000+00:00</time></trkpt><trkpt lat="39.48767851" lon="-0.36815607"><ele>9.4</ele><time>2022-11-09T16:25:25.0000000+00:00</time></trkpt><trkpt lat="39.48768312" lon="-0.36817853"><ele>9.2</ele><time>2022-11-09T16:25:26.0000000+00:00</time></trkpt><trkpt lat="39.48768413" lon="-0.36817904"><ele>9.0</ele><time>2022-11-09T16:25:27.0000000+00:00</time></trkpt><trkpt lat="39.48768195" lon="-0.36819723"><ele>9.0</ele><time>2022-11-09T16:25:28.0000000+00:00</time></trkpt><trkpt lat="39.48768186" lon="-0.36820561"><ele>8.8</ele><time>2022-11-09T16:25:29.0000000+00:00</time></trkpt><trkpt lat="39.48768186" lon="-0.36820561"><ele>8.8</ele><time>2022-11-09T16:25:30.0000000+00:00</time></trkpt><trkpt lat="39.48768815" lon="-0.36814241"><ele>8.6</ele><time>2022-11-09T16:25:31.0000000+00:00</time></trkpt><trkpt lat="39.48769972" lon="-0.36811877"><ele>8.6</ele><time>2022-11-09T16:25:32.0000000+00:00</time></trkpt><trkpt lat="39.48770592" lon="-0.36810829"><ele>8.6</ele><time>2022-11-09T16:25:33.0000000+00:00</time></trkpt><trkpt lat="39.48770978" lon="-0.36810536"><ele>8.6</ele><time>2022-11-09T16:25:34.0000000+00:00</time></trkpt><trkpt lat="39.48770978" lon="-0.36810536"><ele>8.6</ele><time>2022-11-09T16:25:35.0000000+00:00</time></trkpt><trkpt lat="39.48770978" lon="-0.36810536"><ele>8.4</ele><time>2022-11-09T16:25:36.0000000+00:00</time></trkpt><trkpt lat="39.48770978" lon="-0.36810536"><ele>8.4</ele><time>2022-11-09T16:25:37.0000000+00:00</time></trkpt><trkpt lat="39.48770978" lon="-0.36810536"><ele>8.4</ele><time>2022-11-09T16:25:38.0000000+00:00</time></trkpt><trkpt lat="39.48770978" lon="-0.36810536"><ele>8.4</ele><time>2022-11-09T16:25:39.0000000+00:00</time></trkpt><trkpt lat="39.48770978" lon="-0.36810536"><ele>8.4</ele><time>2022-11-09T16:25:40.0000000+00:00</time></trkpt><trkpt lat="39.48771061" lon="-0.36811047"><ele>8.4</ele><time>2022-11-09T16:25:41.0000000+00:00</time></trkpt><trkpt lat="39.48770802" lon="-0.36811056"><ele>8.4</ele><time>2022-11-09T16:25:42.0000000+00:00</time></trkpt><trkpt lat="39.48770802" lon="-0.36811056"><ele>8.4</ele><time>2022-11-09T16:25:43.0000000+00:00</time></trkpt><trkpt lat="39.48771145" lon="-0.36813268"><ele>8.4</ele><time>2022-11-09T16:25:44.0000000+00:00</time></trkpt><trkpt lat="39.487719" lon="-0.36814065"><ele>8.4</ele><time>2022-11-09T16:25:45.0000000+00:00</time></trkpt><trkpt lat="39.48772302" lon="-0.36813947"><ele>8.4</ele><time>2022-11-09T16:25:46.0000000+00:00</time></trkpt><trkpt lat="39.48772302" lon="-0.36813947"><ele>8.2</ele><time>2022-11-09T16:25:47.0000000+00:00</time></trkpt><trkpt lat="39.48772302" lon="-0.36813947"><ele>8.2</ele><time>2022-11-09T16:25:48.0000000+00:00</time></trkpt><trkpt lat="39.48772302" lon="-0.36813947"><ele>8.2</ele><time>2022-11-09T16:25:49.0000000+00:00</time></trkpt><trkpt lat="39.48772302" lon="-0.36813947"><ele>8.2</ele><time>2022-11-09T16:25:50.0000000+00:00</time></trkpt><trkpt lat="39.48772302" lon="-0.36813947"><ele>8.2</ele><time>2022-11-09T16:25:51.0000000+00:00</time></trkpt><trkpt lat="39.48772302" lon="-0.36813947"><ele>8.2</ele><time>2022-11-09T16:25:52.0000000+00:00</time></trkpt><trkpt lat="39.48772302" lon="-0.36813947"><ele>8.2</ele><time>2022-11-09T16:25:53.0000000+00:00</time></trkpt><trkpt lat="39.48772302" lon="-0.36813947"><ele>8.2</ele><time>2022-11-09T16:25:54.0000000+00:00</time></trkpt><trkpt lat="39.48772302" lon="-0.36813947"><ele>8.2</ele><time>2022-11-09T16:25:55.0000000+00:00</time></trkpt><trkpt lat="39.48772302" lon="-0.36813947"><ele>8.2</ele><time>2022-11-09T16:25:56.0000000+00:00</time></trkpt><trkpt lat="39.48772302" lon="-0.36813947"><ele>8.0</ele><time>2022-11-09T16:25:57.0000000+00:00</time></trkpt><trkpt lat="39.48770642" lon="-0.36816621"><ele>8.0</ele><time>2022-11-09T16:25:58.0000000+00:00</time></trkpt><trkpt lat="39.4877045" lon="-0.36816177"><ele>8.0</ele><time>2022-11-09T16:25:59.0000000+00:00</time></trkpt><trkpt lat="39.48771665" lon="-0.36814199"><ele>8.4</ele><time>2022-11-09T16:26:00.0000000+00:00</time></trkpt><trkpt lat="39.48773677" lon="-0.36810762"><ele>8.4</ele><time>2022-11-09T16:26:01.0000000+00:00</time></trkpt><trkpt lat="39.4877594" lon="-0.36807384"><ele>8.4</ele><time>2022-11-09T16:26:02.0000000+00:00</time></trkpt><trkpt lat="39.4877879" lon="-0.36804493"><ele>8.4</ele><time>2022-11-09T16:26:03.0000000+00:00</time></trkpt><trkpt lat="39.48781597" lon="-0.36802372"><ele>8.2</ele><time>2022-11-09T16:26:04.0000000+00:00</time></trkpt><trkpt lat="39.4878381" lon="-0.36800989"><ele>8.0</ele><time>2022-11-09T16:26:05.0000000+00:00</time></trkpt><trkpt lat="39.48785579" lon="-0.36799304"><ele>8.0</ele><time>2022-11-09T16:26:06.0000000+00:00</time></trkpt><trkpt lat="39.48786643" lon="-0.36798617"><ele>7.6</ele><time>2022-11-09T16:26:07.0000000+00:00</time></trkpt><trkpt lat="39.48787096" lon="-0.36799296"><ele>7.6</ele><time>2022-11-09T16:26:08.0000000+00:00</time></trkpt><trkpt lat="39.48787733" lon="-0.36799405"><ele>7.4</ele><time>2022-11-09T16:26:09.0000000+00:00</time></trkpt><trkpt lat="39.48788202" lon="-0.36799128"><ele>7.4</ele><time>2022-11-09T16:26:10.0000000+00:00</time></trkpt><trkpt lat="39.48788202" lon="-0.36799128"><ele>7.8</ele><time>2022-11-09T16:26:11.0000000+00:00</time></trkpt><trkpt lat="39.48788202" lon="-0.36799128"><ele>8.0</ele><time>2022-11-09T16:26:12.0000000+00:00</time></trkpt><trkpt lat="39.48788052" lon="-0.3679891"><ele>8.0</ele><time>2022-11-09T16:26:13.0000000+00:00</time></trkpt><trkpt lat="39.48787968" lon="-0.36798265"><ele>8.0</ele><time>2022-11-09T16:26:14.0000000+00:00</time></trkpt><trkpt lat="39.48787297" lon="-0.36798575"><ele>8.0</ele><time>2022-11-09T16:26:15.0000000+00:00</time></trkpt><trkpt lat="39.48786342" lon="-0.36798315"><ele>8.0</ele><time>2022-11-09T16:26:16.0000000+00:00</time></trkpt><trkpt lat="39.48784581" lon="-0.36798039"><ele>7.8</ele><time>2022-11-09T16:26:17.0000000+00:00</time></trkpt><trkpt lat="39.48782478" lon="-0.36796739"><ele>7.8</ele><time>2022-11-09T16:26:18.0000000+00:00</time></trkpt><trkpt lat="39.48780181" lon="-0.36794384"><ele>7.8</ele><time>2022-11-09T16:26:19.0000000+00:00</time></trkpt><trkpt lat="39.48778069" lon="-0.36791652"><ele>7.8</ele><time>2022-11-09T16:26:20.0000000+00:00</time></trkpt><trkpt lat="39.48776116" lon="-0.36788668"><ele>7.8</ele><time>2022-11-09T16:26:21.0000000+00:00</time></trkpt><trkpt lat="39.48775889" lon="-0.36786287"><ele>7.8</ele><time>2022-11-09T16:26:22.0000000+00:00</time></trkpt><trkpt lat="39.48775102" lon="-0.36784259"><ele>7.8</ele><time>2022-11-09T16:26:23.0000000+00:00</time></trkpt><trkpt lat="39.48774791" lon="-0.36783731"><ele>7.8</ele><time>2022-11-09T16:26:24.0000000+00:00</time></trkpt><trkpt lat="39.48774791" lon="-0.36783731"><ele>7.8</ele><time>2022-11-09T16:26:25.0000000+00:00</time></trkpt><trkpt lat="39.48773593" lon="-0.36783068"><ele>7.8</ele><time>2022-11-09T16:26:26.0000000+00:00</time></trkpt><trkpt lat="39.48770324" lon="-0.36779489"><ele>7.8</ele><time>2022-11-09T16:26:27.0000000+00:00</time></trkpt><trkpt lat="39.48770223" lon="-0.3677467"><ele>7.8</ele><time>2022-11-09T16:26:28.0000000+00:00</time></trkpt><trkpt lat="39.48772176" lon="-0.36770294"><ele>7.8</ele><time>2022-11-09T16:26:29.0000000+00:00</time></trkpt><trkpt lat="39.48774205" lon="-0.3676576"><ele>8.0</ele><time>2022-11-09T16:26:30.0000000+00:00</time></trkpt><trkpt lat="39.48776015" lon="-0.36761234"><ele>8.0</ele><time>2022-11-09T16:26:31.0000000+00:00</time></trkpt><trkpt lat="39.48780231" lon="-0.36758543"><ele>8.2</ele><time>2022-11-09T16:26:32.0000000+00:00</time></trkpt><trkpt lat="39.4878397" lon="-0.36755249"><ele>8.2</ele><time>2022-11-09T16:26:33.0000000+00:00</time></trkpt><trkpt lat="39.48786509" lon="-0.36750681"><ele>8.2</ele><time>2022-11-09T16:26:34.0000000+00:00</time></trkpt><trkpt lat="39.48790968" lon="-0.36742106"><ele>8.0</ele><time>2022-11-09T16:26:35.0000000+00:00</time></trkpt><trkpt lat="39.48796224" lon="-0.36734378"><ele>8.0</ele><time>2022-11-09T16:26:36.0000000+00:00</time></trkpt><trkpt lat="39.48799954" lon="-0.36729064"><ele>8.0</ele><time>2022-11-09T16:26:37.0000000+00:00</time></trkpt><trkpt lat="39.48803835" lon="-0.36724211"><ele>7.8</ele><time>2022-11-09T16:26:38.0000000+00:00</time></trkpt><trkpt lat="39.48806852" lon="-0.36719676"><ele>7.6</ele><time>2022-11-09T16:26:39.0000000+00:00</time></trkpt><trkpt lat="39.48810364" lon="-0.36718268"><ele>7.4</ele><time>2022-11-09T16:26:40.0000000+00:00</time></trkpt><trkpt lat="39.48814689" lon="-0.36718302"><ele>7.4</ele><time>2022-11-09T16:26:41.0000000+00:00</time></trkpt><trkpt lat="39.48818511" lon="-0.36720313"><ele>7.4</ele><time>2022-11-09T16:26:42.0000000+00:00</time></trkpt><trkpt lat="39.48821344" lon="-0.36722275"><ele>7.4</ele><time>2022-11-09T16:26:43.0000000+00:00</time></trkpt><trkpt lat="39.48825787" lon="-0.36723892"><ele>7.6</ele><time>2022-11-09T16:26:44.0000000+00:00</time></trkpt><trkpt lat="39.48829785" lon="-0.36724999"><ele>7.8</ele><time>2022-11-09T16:26:45.0000000+00:00</time></trkpt><trkpt lat="39.48833758" lon="-0.36724278"><ele>8.0</ele><time>2022-11-09T16:26:46.0000000+00:00</time></trkpt><trkpt lat="39.48838536" lon="-0.36719165"><ele>8.0</ele><time>2022-11-09T16:26:47.0000000+00:00</time></trkpt><trkpt lat="39.48841251" lon="-0.36715318"><ele>8.0</ele><time>2022-11-09T16:26:48.0000000+00:00</time></trkpt><trkpt lat="39.48843917" lon="-0.36712392"><ele>8.0</ele><time>2022-11-09T16:26:49.0000000+00:00</time></trkpt><trkpt lat="39.48846993" lon="-0.36707925"><ele>8.0</ele><time>2022-11-09T16:26:50.0000000+00:00</time></trkpt><trkpt lat="39.48849759" lon="-0.36697296"><ele>7.8</ele><time>2022-11-09T16:26:51.0000000+00:00</time></trkpt><trkpt lat="39.48853087" lon="-0.36685218"><ele>7.8</ele><time>2022-11-09T16:26:52.0000000+00:00</time></trkpt><trkpt lat="39.48855559" lon="-0.36677918"><ele>7.8</ele><time>2022-11-09T16:26:53.0000000+00:00</time></trkpt><trkpt lat="39.48864679" lon="-0.36657189"><ele>7.8</ele><time>2022-11-09T16:26:55.0000000+00:00</time></trkpt><trkpt lat="39.48868166" lon="-0.36653065"><ele>7.8</ele><time>2022-11-09T16:26:56.0000000+00:00</time></trkpt><trkpt lat="39.4887348" lon="-0.36656049"><ele>7.8</ele><time>2022-11-09T16:26:57.0000000+00:00</time></trkpt><trkpt lat="39.4887757" lon="-0.36651305"><ele>7.8</ele><time>2022-11-09T16:26:58.0000000+00:00</time></trkpt><trkpt lat="39.48881862" lon="-0.36638472"><ele>7.8</ele><time>2022-11-09T16:26:59.0000000+00:00</time></trkpt><trkpt lat="39.48886246" lon="-0.36630317"><ele>7.8</ele><time>2022-11-09T16:27:00.0000000+00:00</time></trkpt><trkpt lat="39.48885273" lon="-0.36624257"><ele>7.8</ele><time>2022-11-09T16:27:01.0000000+00:00</time></trkpt><trkpt lat="39.48887997" lon="-0.36617828"><ele>7.8</ele><time>2022-11-09T16:27:02.0000000+00:00</time></trkpt><trkpt lat="39.48891174" lon="-0.36610493"><ele>8.0</ele><time>2022-11-09T16:27:03.0000000+00:00</time></trkpt><trkpt lat="39.4889482" lon="-0.36602782"><ele>7.8</ele><time>2022-11-09T16:27:04.0000000+00:00</time></trkpt><trkpt lat="39.48896983" lon="-0.36597996"><ele>8.0</ele><time>2022-11-09T16:27:05.0000000+00:00</time></trkpt><trkpt lat="39.48899958" lon="-0.3659202"><ele>8.0</ele><time>2022-11-09T16:27:06.0000000+00:00</time></trkpt><trkpt lat="39.48903211" lon="-0.36586278"><ele>8.0</ele><time>2022-11-09T16:27:07.0000000+00:00</time></trkpt><trkpt lat="39.48906999" lon="-0.36580771"><ele>7.8</ele><time>2022-11-09T16:27:08.0000000+00:00</time></trkpt><trkpt lat="39.48911374" lon="-0.36575055"><ele>7.8</ele><time>2022-11-09T16:27:09.0000000+00:00</time></trkpt><trkpt lat="39.48915054" lon="-0.36569724"><ele>7.6</ele><time>2022-11-09T16:27:10.0000000+00:00</time></trkpt><trkpt lat="39.48918189" lon="-0.36564058"><ele>7.4</ele><time>2022-11-09T16:27:11.0000000+00:00</time></trkpt><trkpt lat="39.48919798" lon="-0.36561049"><ele>7.2</ele><time>2022-11-09T16:27:12.0000000+00:00</time></trkpt><trkpt lat="39.48921433" lon="-0.3655897"><ele>7.2</ele><time>2022-11-09T16:27:13.0000000+00:00</time></trkpt><trkpt lat="39.48923796" lon="-0.36555056"><ele>7.2</ele><time>2022-11-09T16:27:14.0000000+00:00</time></trkpt><trkpt lat="39.48926412" lon="-0.36550446"><ele>7.2</ele><time>2022-11-09T16:27:15.0000000+00:00</time></trkpt><trkpt lat="39.48929337" lon="-0.36545701"><ele>7.2</ele><time>2022-11-09T16:27:16.0000000+00:00</time></trkpt><trkpt lat="39.48932807" lon="-0.36540044"><ele>7.2</ele><time>2022-11-09T16:27:17.0000000+00:00</time></trkpt><trkpt lat="39.48936109" lon="-0.36534436"><ele>7.2</ele><time>2022-11-09T16:27:18.0000000+00:00</time></trkpt><trkpt lat="39.48939571" lon="-0.36530145"><ele>7.4</ele><time>2022-11-09T16:27:19.0000000+00:00</time></trkpt><trkpt lat="39.48942706" lon="-0.36524462"><ele>7.4</ele><time>2022-11-09T16:27:20.0000000+00:00</time></trkpt><trkpt lat="39.48945908" lon="-0.36519365"><ele>7.4</ele><time>2022-11-09T16:27:21.0000000+00:00</time></trkpt><trkpt lat="39.48949428" lon="-0.36513163"><ele>7.4</ele><time>2022-11-09T16:27:22.0000000+00:00</time></trkpt><trkpt lat="39.4895372" lon="-0.36505544"><ele>7.4</ele><time>2022-11-09T16:27:23.0000000+00:00</time></trkpt><trkpt lat="39.48957693" lon="-0.36498243"><ele>7.4</ele><time>2022-11-09T16:27:24.0000000+00:00</time></trkpt><trkpt lat="39.48961943" lon="-0.36489928"><ele>7.6</ele><time>2022-11-09T16:27:25.0000000+00:00</time></trkpt><trkpt lat="39.48965597" lon="-0.36482208"><ele>7.6</ele><time>2022-11-09T16:27:26.0000000+00:00</time></trkpt><trkpt lat="39.48968866" lon="-0.36474036"><ele>7.6</ele><time>2022-11-09T16:27:27.0000000+00:00</time></trkpt><trkpt lat="39.4897102" lon="-0.36465813"><ele>7.8</ele><time>2022-11-09T16:27:28.0000000+00:00</time></trkpt><trkpt lat="39.4897294" lon="-0.3645998"><ele>7.8</ele><time>2022-11-09T16:27:29.0000000+00:00</time></trkpt><trkpt lat="39.48974926" lon="-0.36454112"><ele>8.0</ele><time>2022-11-09T16:27:30.0000000+00:00</time></trkpt><trkpt lat="39.4897869" lon="-0.36445387"><ele>8.0</ele><time>2022-11-09T16:27:31.0000000+00:00</time></trkpt><trkpt lat="39.4898112" lon="-0.36439427"><ele>8.0</ele><time>2022-11-09T16:27:32.0000000+00:00</time></trkpt><trkpt lat="39.48984498" lon="-0.36433468"><ele>7.8</ele><time>2022-11-09T16:27:33.0000000+00:00</time></trkpt><trkpt lat="39.48988513" lon="-0.36424088"><ele>7.6</ele><time>2022-11-09T16:27:34.0000000+00:00</time></trkpt><trkpt lat="39.48991933" lon="-0.36414525"><ele>7.4</ele><time>2022-11-09T16:27:35.0000000+00:00</time></trkpt><trkpt lat="39.48998203" lon="-0.36406436"><ele>7.2</ele><time>2022-11-09T16:27:36.0000000+00:00</time></trkpt><trkpt lat="39.49001681" lon="-0.36400443"><ele>7.0</ele><time>2022-11-09T16:27:37.0000000+00:00</time></trkpt><trkpt lat="39.49004741" lon="-0.36395741"><ele>6.8</ele><time>2022-11-09T16:27:38.0000000+00:00</time></trkpt><trkpt lat="39.49008797" lon="-0.36389899"><ele>6.8</ele><time>2022-11-09T16:27:39.0000000+00:00</time></trkpt><trkpt lat="39.49013785" lon="-0.3638533"><ele>6.6</ele><time>2022-11-09T16:27:40.0000000+00:00</time></trkpt><trkpt lat="39.4901764" lon="-0.36379228"><ele>6.4</ele><time>2022-11-09T16:27:41.0000000+00:00</time></trkpt><trkpt lat="39.49022317" lon="-0.36373847"><ele>6.4</ele><time>2022-11-09T16:27:42.0000000+00:00</time></trkpt><trkpt lat="39.49025662" lon="-0.36367854"><ele>6.4</ele><time>2022-11-09T16:27:43.0000000+00:00</time></trkpt><trkpt lat="39.49029752" lon="-0.36359707"><ele>6.4</ele><time>2022-11-09T16:27:44.0000000+00:00</time></trkpt><trkpt lat="39.4903453" lon="-0.36351007"><ele>6.4</ele><time>2022-11-09T16:27:45.0000000+00:00</time></trkpt><trkpt lat="39.49039425" lon="-0.36343446"><ele>6.2</ele><time>2022-11-09T16:27:46.0000000+00:00</time></trkpt><trkpt lat="39.49044328" lon="-0.36335559"><ele>6.2</ele><time>2022-11-09T16:27:47.0000000+00:00</time></trkpt><trkpt lat="39.49048678" lon="-0.36328342"><ele>6.2</ele><time>2022-11-09T16:27:48.0000000+00:00</time></trkpt><trkpt lat="39.4905266" lon="-0.36321628"><ele>6.4</ele><time>2022-11-09T16:27:49.0000000+00:00</time></trkpt><trkpt lat="39.49056876" lon="-0.36315425"><ele>6.2</ele><time>2022-11-09T16:27:50.0000000+00:00</time></trkpt><trkpt lat="39.49061302" lon="-0.36308267"><ele>6.2</ele><time>2022-11-09T16:27:51.0000000+00:00</time></trkpt><trkpt lat="39.49065861" lon="-0.36300941"><ele>6.2</ele><time>2022-11-09T16:27:52.0000000+00:00</time></trkpt><trkpt lat="39.49070706" lon="-0.36287388"><ele>6.0</ele><time>2022-11-09T16:27:53.0000000+00:00</time></trkpt><trkpt lat="39.49074403" lon="-0.36281185"><ele>5.8</ele><time>2022-11-09T16:27:54.0000000+00:00</time></trkpt><trkpt lat="39.49078862" lon="-0.36275636"><ele>5.8</ele><time>2022-11-09T16:27:55.0000000+00:00</time></trkpt><trkpt lat="39.4908281" lon="-0.36270021"><ele>5.8</ele><time>2022-11-09T16:27:56.0000000+00:00</time></trkpt><trkpt lat="39.49086431" lon="-0.36263919"><ele>5.8</ele><time>2022-11-09T16:27:57.0000000+00:00</time></trkpt><trkpt lat="39.49090454" lon="-0.3625718"><ele>6.2</ele><time>2022-11-09T16:27:58.0000000+00:00</time></trkpt><trkpt lat="39.49094519" lon="-0.36249887"><ele>6.4</ele><time>2022-11-09T16:27:59.0000000+00:00</time></trkpt><trkpt lat="39.49098903" lon="-0.36242712"><ele>6.4</ele><time>2022-11-09T16:28:00.0000000+00:00</time></trkpt><trkpt lat="39.4910441" lon="-0.36235252"><ele>6.4</ele><time>2022-11-09T16:28:01.0000000+00:00</time></trkpt><trkpt lat="39.49109011" lon="-0.36228547"><ele>6.4</ele><time>2022-11-09T16:28:02.0000000+00:00</time></trkpt><trkpt lat="39.49116463" lon="-0.36216997"><ele>6.2</ele><time>2022-11-09T16:28:03.0000000+00:00</time></trkpt><trkpt lat="39.49120847" lon="-0.36211867"><ele>6.0</ele><time>2022-11-09T16:28:04.0000000+00:00</time></trkpt><trkpt lat="39.49124401" lon="-0.36199395"><ele>5.6</ele><time>2022-11-09T16:28:05.0000000+00:00</time></trkpt><trkpt lat="39.49128483" lon="-0.36193159"><ele>5.4</ele><time>2022-11-09T16:28:06.0000000+00:00</time></trkpt><trkpt lat="39.49132808" lon="-0.36186386"><ele>5.4</ele><time>2022-11-09T16:28:07.0000000+00:00</time></trkpt><trkpt lat="39.49137233" lon="-0.3617932"><ele>5.2</ele><time>2022-11-09T16:28:08.0000000+00:00</time></trkpt><trkpt lat="39.49141852" lon="-0.36171726"><ele>5.2</ele><time>2022-11-09T16:28:09.0000000+00:00</time></trkpt><trkpt lat="39.49145498" lon="-0.36165465"><ele>5.2</ele><time>2022-11-09T16:28:10.0000000+00:00</time></trkpt><trkpt lat="39.49148892" lon="-0.36159648"><ele>5.2</ele><time>2022-11-09T16:28:11.0000000+00:00</time></trkpt><trkpt lat="39.49152455" lon="-0.36153864"><ele>5.2</ele><time>2022-11-09T16:28:12.0000000+00:00</time></trkpt><trkpt lat="39.49156176" lon="-0.36147167"><ele>5.2</ele><time>2022-11-09T16:28:13.0000000+00:00</time></trkpt><trkpt lat="39.49158372" lon="-0.36142247"><ele>5.2</ele><time>2022-11-09T16:28:14.0000000+00:00</time></trkpt><trkpt lat="39.49162211" lon="-0.36135709"><ele>5.0</ele><time>2022-11-09T16:28:15.0000000+00:00</time></trkpt><trkpt lat="39.49166872" lon="-0.36128995"><ele>5.0</ele><time>2022-11-09T16:28:16.0000000+00:00</time></trkpt><trkpt lat="39.49172102" lon="-0.36122809"><ele>5.0</ele><time>2022-11-09T16:28:17.0000000+00:00</time></trkpt><trkpt lat="39.49177014" lon="-0.36117118"><ele>5.2</ele><time>2022-11-09T16:28:18.0000000+00:00</time></trkpt><trkpt lat="39.49180341" lon="-0.36111091"><ele>5.2</ele><time>2022-11-09T16:28:19.0000000+00:00</time></trkpt><trkpt lat="39.49185018" lon="-0.36105727"><ele>5.2</ele><time>2022-11-09T16:28:20.0000000+00:00</time></trkpt><trkpt lat="39.49190458" lon="-0.36100647"><ele>5.2</ele><time>2022-11-09T16:28:21.0000000+00:00</time></trkpt><trkpt lat="39.49195504" lon="-0.36095208"><ele>5.2</ele><time>2022-11-09T16:28:22.0000000+00:00</time></trkpt><trkpt lat="39.49199896" lon="-0.36089181"><ele>5.2</ele><time>2022-11-09T16:28:23.0000000+00:00</time></trkpt><trkpt lat="39.49205068" lon="-0.3608292"><ele>5.2</ele><time>2022-11-09T16:28:24.0000000+00:00</time></trkpt><trkpt lat="39.49211572" lon="-0.36075619"><ele>5.2</ele><time>2022-11-09T16:28:25.0000000+00:00</time></trkpt><trkpt lat="39.49215721" lon="-0.36071403"><ele>5.2</ele><time>2022-11-09T16:28:26.0000000+00:00</time></trkpt><trkpt lat="39.49220105" lon="-0.36066726"><ele>5.2</ele><time>2022-11-09T16:28:27.0000000+00:00</time></trkpt><trkpt lat="39.49224179" lon="-0.36061948"><ele>5.2</ele><time>2022-11-09T16:28:28.0000000+00:00</time></trkpt><trkpt lat="39.49228688" lon="-0.36056701"><ele>5.2</ele><time>2022-11-09T16:28:29.0000000+00:00</time></trkpt><trkpt lat="39.49233416" lon="-0.36051873"><ele>5.0</ele><time>2022-11-09T16:28:30.0000000+00:00</time></trkpt><trkpt lat="39.49237506" lon="-0.36046769"><ele>5.0</ele><time>2022-11-09T16:28:31.0000000+00:00</time></trkpt><trkpt lat="39.49241663" lon="-0.36041605"><ele>4.8</ele><time>2022-11-09T16:28:32.0000000+00:00</time></trkpt><trkpt lat="39.4924541" lon="-0.3603604"><ele>4.8</ele><time>2022-11-09T16:28:33.0000000+00:00</time></trkpt><trkpt lat="39.49248914" lon="-0.36030491"><ele>4.8</ele><time>2022-11-09T16:28:34.0000000+00:00</time></trkpt><trkpt lat="39.49252384" lon="-0.36026141"><ele>5.0</ele><time>2022-11-09T16:28:35.0000000+00:00</time></trkpt><trkpt lat="39.49255535" lon="-0.36021891"><ele>5.0</ele><time>2022-11-09T16:28:36.0000000+00:00</time></trkpt><trkpt lat="39.49257379" lon="-0.36019452"><ele>5.0</ele><time>2022-11-09T16:28:37.0000000+00:00</time></trkpt><trkpt lat="39.49260204" lon="-0.36015923"><ele>5.0</ele><time>2022-11-09T16:28:38.0000000+00:00</time></trkpt><trkpt lat="39.4926416" lon="-0.36011162"><ele>5.0</ele><time>2022-11-09T16:28:39.0000000+00:00</time></trkpt><trkpt lat="39.49268594" lon="-0.36006125"><ele>4.8</ele><time>2022-11-09T16:28:40.0000000+00:00</time></trkpt><trkpt lat="39.49274923" lon="-0.35997802"><ele>4.8</ele><time>2022-11-09T16:28:41.0000000+00:00</time></trkpt><trkpt lat="39.49279977" lon="-0.3599014"><ele>4.8</ele><time>2022-11-09T16:28:42.0000000+00:00</time></trkpt><trkpt lat="39.49284336" lon="-0.35983737"><ele>4.6</ele><time>2022-11-09T16:28:43.0000000+00:00</time></trkpt><trkpt lat="39.49287529" lon="-0.35977308"><ele>4.6</ele><time>2022-11-09T16:28:44.0000000+00:00</time></trkpt><trkpt lat="39.49289214" lon="-0.359717"><ele>4.6</ele><time>2022-11-09T16:28:45.0000000+00:00</time></trkpt><trkpt lat="39.49290052" lon="-0.35964282"><ele>4.8</ele><time>2022-11-09T16:28:46.0000000+00:00</time></trkpt><trkpt lat="39.49293187" lon="-0.35957853"><ele>4.8</ele><time>2022-11-09T16:28:47.0000000+00:00</time></trkpt><trkpt lat="39.49296774" lon="-0.35951098"><ele>5.0</ele><time>2022-11-09T16:28:48.0000000+00:00</time></trkpt><trkpt lat="39.49300538" lon="-0.35944585"><ele>5.0</ele><time>2022-11-09T16:28:49.0000000+00:00</time></trkpt><trkpt lat="39.49304352" lon="-0.35937745"><ele>5.2</ele><time>2022-11-09T16:28:50.0000000+00:00</time></trkpt><trkpt lat="39.49308484" lon="-0.35931065"><ele>5.2</ele><time>2022-11-09T16:28:51.0000000+00:00</time></trkpt><trkpt lat="39.49312381" lon="-0.35924519"><ele>5.4</ele><time>2022-11-09T16:28:52.0000000+00:00</time></trkpt><trkpt lat="39.49315894" lon="-0.35917956"><ele>5.4</ele><time>2022-11-09T16:28:53.0000000+00:00</time></trkpt><trkpt lat="39.49319355" lon="-0.35911309"><ele>5.4</ele><time>2022-11-09T16:28:54.0000000+00:00</time></trkpt><trkpt lat="39.49321954" lon="-0.35904704"><ele>5.4</ele><time>2022-11-09T16:28:55.0000000+00:00</time></trkpt><trkpt lat="39.49325893" lon="-0.35897872"><ele>5.6</ele><time>2022-11-09T16:28:56.0000000+00:00</time></trkpt><trkpt lat="39.49329145" lon="-0.35891351"><ele>5.6</ele><time>2022-11-09T16:28:57.0000000+00:00</time></trkpt><trkpt lat="39.49332406" lon="-0.35884864"><ele>5.8</ele><time>2022-11-09T16:28:58.0000000+00:00</time></trkpt><trkpt lat="39.49335658" lon="-0.3587846"><ele>5.8</ele><time>2022-11-09T16:28:59.0000000+00:00</time></trkpt><trkpt lat="39.49338759" lon="-0.35872106"><ele>5.8</ele><time>2022-11-09T16:29:00.0000000+00:00</time></trkpt><trkpt lat="39.49342045" lon="-0.35865636"><ele>5.8</ele><time>2022-11-09T16:29:01.0000000+00:00</time></trkpt><trkpt lat="39.49345088" lon="-0.35859349"><ele>5.8</ele><time>2022-11-09T16:29:02.0000000+00:00</time></trkpt><trkpt lat="39.49348499" lon="-0.35853482"><ele>5.8</ele><time>2022-11-09T16:29:03.0000000+00:00</time></trkpt><trkpt lat="39.49350829" lon="-0.35847983"><ele>5.8</ele><time>2022-11-09T16:29:04.0000000+00:00</time></trkpt><trkpt lat="39.49353713" lon="-0.35842644"><ele>5.6</ele><time>2022-11-09T16:29:05.0000000+00:00</time></trkpt><trkpt lat="39.49357024" lon="-0.35837347"><ele>5.6</ele><time>2022-11-09T16:29:06.0000000+00:00</time></trkpt><trkpt lat="39.49360519" lon="-0.35832762"><ele>5.6</ele><time>2022-11-09T16:29:07.0000000+00:00</time></trkpt><trkpt lat="39.49363503" lon="-0.35828806"><ele>5.6</ele><time>2022-11-09T16:29:08.0000000+00:00</time></trkpt><trkpt lat="39.49366101" lon="-0.35824288"><ele>5.6</ele><time>2022-11-09T16:29:09.0000000+00:00</time></trkpt><trkpt lat="39.49368322" lon="-0.35819183"><ele>5.6</ele><time>2022-11-09T16:29:10.0000000+00:00</time></trkpt><trkpt lat="39.49370166" lon="-0.35812746"><ele>5.8</ele><time>2022-11-09T16:29:11.0000000+00:00</time></trkpt><trkpt lat="39.4937015" lon="-0.35807096"><ele>5.8</ele><time>2022-11-09T16:29:12.0000000+00:00</time></trkpt><trkpt lat="39.49370124" lon="-0.35802838"><ele>5.6</ele><time>2022-11-09T16:29:13.0000000+00:00</time></trkpt><trkpt lat="39.49370233" lon="-0.35799092"><ele>5.6</ele><time>2022-11-09T16:29:14.0000000+00:00</time></trkpt><trkpt lat="39.49369554" lon="-0.35795203"><ele>5.4</ele><time>2022-11-09T16:29:15.0000000+00:00</time></trkpt><trkpt lat="39.49369663" lon="-0.35790182"><ele>5.2</ele><time>2022-11-09T16:29:16.0000000+00:00</time></trkpt><trkpt lat="39.49369345" lon="-0.35786695"><ele>5.2</ele><time>2022-11-09T16:29:17.0000000+00:00</time></trkpt><trkpt lat="39.4936994" lon="-0.35784465"><ele>5.0</ele><time>2022-11-09T16:29:18.0000000+00:00</time></trkpt><trkpt lat="39.49370703" lon="-0.35782294"><ele>4.8</ele><time>2022-11-09T16:29:19.0000000+00:00</time></trkpt><trkpt lat="39.49371927" lon="-0.35779822"><ele>4.8</ele><time>2022-11-09T16:29:20.0000000+00:00</time></trkpt><trkpt lat="39.49372589" lon="-0.35777282"><ele>4.6</ele><time>2022-11-09T16:29:21.0000000+00:00</time></trkpt><trkpt lat="39.49373016" lon="-0.35774147"><ele>4.6</ele><time>2022-11-09T16:29:22.0000000+00:00</time></trkpt><trkpt lat="39.49372907" lon="-0.35770593"><ele>4.6</ele><time>2022-11-09T16:29:23.0000000+00:00</time></trkpt><trkpt lat="39.49372388" lon="-0.35765472"><ele>4.6</ele><time>2022-11-09T16:29:24.0000000+00:00</time></trkpt><trkpt lat="39.49372186" lon="-0.35761532"><ele>4.8</ele><time>2022-11-09T16:29:25.0000000+00:00</time></trkpt><trkpt lat="39.49372237" lon="-0.35756151"><ele>4.8</ele><time>2022-11-09T16:29:26.0000000+00:00</time></trkpt><trkpt lat="39.49372505" lon="-0.3575046"><ele>4.8</ele><time>2022-11-09T16:29:27.0000000+00:00</time></trkpt><trkpt lat="39.49372924" lon="-0.35744551"><ele>4.8</ele><time>2022-11-09T16:29:28.0000000+00:00</time></trkpt><trkpt lat="39.49373603" lon="-0.3573839"><ele>4.8</ele><time>2022-11-09T16:29:29.0000000+00:00</time></trkpt><trkpt lat="39.4937398" lon="-0.35731877"><ele>4.8</ele><time>2022-11-09T16:29:30.0000000+00:00</time></trkpt><trkpt lat="39.49374097" lon="-0.35724987"><ele>4.6</ele><time>2022-11-09T16:29:31.0000000+00:00</time></trkpt><trkpt lat="39.49372849" lon="-0.35717343"><ele>4.6</ele><time>2022-11-09T16:29:32.0000000+00:00</time></trkpt><trkpt lat="39.49365816" lon="-0.35711031"><ele>4.6</ele><time>2022-11-09T16:29:33.0000000+00:00</time></trkpt><trkpt lat="39.49362631" lon="-0.3570581"><ele>4.6</ele><time>2022-11-09T16:29:34.0000000+00:00</time></trkpt><trkpt lat="39.49360108" lon="-0.35701317"><ele>4.6</ele><time>2022-11-09T16:29:35.0000000+00:00</time></trkpt><trkpt lat="39.49360552" lon="-0.35695877"><ele>4.6</ele><time>2022-11-09T16:29:36.0000000+00:00</time></trkpt><trkpt lat="39.49362421" lon="-0.35691158"><ele>4.6</ele><time>2022-11-09T16:29:37.0000000+00:00</time></trkpt><trkpt lat="39.49364534" lon="-0.35686883"><ele>4.4</ele><time>2022-11-09T16:29:38.0000000+00:00</time></trkpt><trkpt lat="39.49367434" lon="-0.35683757"><ele>4.4</ele><time>2022-11-09T16:29:39.0000000+00:00</time></trkpt><trkpt lat="39.49371591" lon="-0.35681645"><ele>4.4</ele><time>2022-11-09T16:29:40.0000000+00:00</time></trkpt><trkpt lat="39.49375296" lon="-0.35681552"><ele>4.4</ele><time>2022-11-09T16:29:41.0000000+00:00</time></trkpt><trkpt lat="39.49379814" lon="-0.3568229"><ele>4.4</ele><time>2022-11-09T16:29:42.0000000+00:00</time></trkpt><trkpt lat="39.49384332" lon="-0.35683363"><ele>4.4</ele><time>2022-11-09T16:29:43.0000000+00:00</time></trkpt><trkpt lat="39.4938921" lon="-0.35684603"><ele>4.4</ele><time>2022-11-09T16:29:44.0000000+00:00</time></trkpt><trkpt lat="39.49394231" lon="-0.35685802"><ele>4.6</ele><time>2022-11-09T16:29:45.0000000+00:00</time></trkpt><trkpt lat="39.49400291" lon="-0.35686657"><ele>4.6</ele><time>2022-11-09T16:29:46.0000000+00:00</time></trkpt><trkpt lat="39.49405664" lon="-0.35686598"><ele>4.8</ele><time>2022-11-09T16:29:47.0000000+00:00</time></trkpt><trkpt lat="39.49410886" lon="-0.35685743"><ele>4.8</ele><time>2022-11-09T16:29:48.0000000+00:00</time></trkpt><trkpt lat="39.49416996" lon="-0.35683857"><ele>5.0</ele><time>2022-11-09T16:29:49.0000000+00:00</time></trkpt><trkpt lat="39.49422679" lon="-0.35681779"><ele>5.0</ele><time>2022-11-09T16:29:50.0000000+00:00</time></trkpt><trkpt lat="39.4942775" lon="-0.35678962"><ele>5.0</ele><time>2022-11-09T16:29:51.0000000+00:00</time></trkpt><trkpt lat="39.49432167" lon="-0.35675115"><ele>5.0</ele><time>2022-11-09T16:29:52.0000000+00:00</time></trkpt><trkpt lat="39.49435864" lon="-0.35670874"><ele>5.0</ele><time>2022-11-09T16:29:53.0000000+00:00</time></trkpt><trkpt lat="39.4943842" lon="-0.35667295"><ele>5.0</ele><time>2022-11-09T16:29:54.0000000+00:00</time></trkpt><trkpt lat="39.4943956" lon="-0.35665493"><ele>4.8</ele><time>2022-11-09T16:29:55.0000000+00:00</time></trkpt><trkpt lat="39.49439677" lon="-0.35665073"><ele>4.8</ele><time>2022-11-09T16:29:56.0000000+00:00</time></trkpt><trkpt lat="39.49439677" lon="-0.35665073"><ele>4.8</ele><time>2022-11-09T16:29:57.0000000+00:00</time></trkpt><trkpt lat="39.49439677" lon="-0.35665073"><ele>4.6</ele><time>2022-11-09T16:29:58.0000000+00:00</time></trkpt><trkpt lat="39.49439677" lon="-0.35665073"><ele>4.6</ele><time>2022-11-09T16:29:59.0000000+00:00</time></trkpt><trkpt lat="39.49439677" lon="-0.35665073"><ele>4.4</ele><time>2022-11-09T16:30:00.0000000+00:00</time></trkpt><trkpt lat="39.49439677" lon="-0.35665073"><ele>4.4</ele><time>2022-11-09T16:30:01.0000000+00:00</time></trkpt><trkpt lat="39.49439677" lon="-0.35665073"><ele>4.4</ele><time>2022-11-09T16:30:02.0000000+00:00</time></trkpt><trkpt lat="39.49439677" lon="-0.35665073"><ele>4.4</ele><time>2022-11-09T16:30:03.0000000+00:00</time></trkpt><trkpt lat="39.49439677" lon="-0.35665073"><ele>4.4</ele><time>2022-11-09T16:30:04.0000000+00:00</time></trkpt><trkpt lat="39.49439677" lon="-0.35665073"><ele>4.4</ele><time>2022-11-09T16:30:05.0000000+00:00</time></trkpt><trkpt lat="39.49439677" lon="-0.35665073"><ele>4.4</ele><time>2022-11-09T16:30:06.0000000+00:00</time></trkpt><trkpt lat="39.49439677" lon="-0.35665073"><ele>4.4</ele><time>2022-11-09T16:30:07.0000000+00:00</time></trkpt><trkpt lat="39.49439677" lon="-0.35665073"><ele>4.4</ele><time>2022-11-09T16:30:08.0000000+00:00</time></trkpt><trkpt lat="39.49439426" lon="-0.35665467"><ele>4.4</ele><time>2022-11-09T16:30:09.0000000+00:00</time></trkpt><trkpt lat="39.49439661" lon="-0.35665459"><ele>4.4</ele><time>2022-11-09T16:30:10.0000000+00:00</time></trkpt><trkpt lat="39.49439661" lon="-0.35665459"><ele>4.2</ele><time>2022-11-09T16:30:11.0000000+00:00</time></trkpt><trkpt lat="39.49439954" lon="-0.35665141"><ele>4.2</ele><time>2022-11-09T16:30:12.0000000+00:00</time></trkpt><trkpt lat="39.49441195" lon="-0.35665182"><ele>4.0</ele><time>2022-11-09T16:30:13.0000000+00:00</time></trkpt><trkpt lat="39.49442661" lon="-0.35665157"><ele>4.0</ele><time>2022-11-09T16:30:14.0000000+00:00</time></trkpt><trkpt lat="39.49444581" lon="-0.35665635"><ele>3.8</ele><time>2022-11-09T16:30:15.0000000+00:00</time></trkpt><trkpt lat="39.4944624" lon="-0.35666582"><ele>3.8</ele><time>2022-11-09T16:30:16.0000000+00:00</time></trkpt><trkpt lat="39.49447707" lon="-0.35667521"><ele>3.8</ele><time>2022-11-09T16:30:17.0000000+00:00</time></trkpt><trkpt lat="39.4944868" lon="-0.35669005"><ele>3.8</ele><time>2022-11-09T16:30:18.0000000+00:00</time></trkpt><trkpt lat="39.49452083" lon="-0.35670706"><ele>4.0</ele><time>2022-11-09T16:30:19.0000000+00:00</time></trkpt><trkpt lat="39.49455938" lon="-0.35671745"><ele>4.0</ele><time>2022-11-09T16:30:20.0000000+00:00</time></trkpt><trkpt lat="39.49459216" lon="-0.35672232"><ele>4.0</ele><time>2022-11-09T16:30:21.0000000+00:00</time></trkpt><trkpt lat="39.49461722" lon="-0.35671796"><ele>4.2</ele><time>2022-11-09T16:30:22.0000000+00:00</time></trkpt><trkpt lat="39.49463767" lon="-0.35670647"><ele>4.2</ele><time>2022-11-09T16:30:23.0000000+00:00</time></trkpt><trkpt lat="39.49464873" lon="-0.35668879"><ele>4.2</ele><time>2022-11-09T16:30:24.0000000+00:00</time></trkpt><trkpt lat="39.49463683" lon="-0.35666934"><ele>4.4</ele><time>2022-11-09T16:30:25.0000000+00:00</time></trkpt><trkpt lat="39.49463918" lon="-0.35664227"><ele>4.2</ele><time>2022-11-09T16:30:26.0000000+00:00</time></trkpt><trkpt lat="39.49463558" lon="-0.35660958"><ele>4.2</ele><time>2022-11-09T16:30:27.0000000+00:00</time></trkpt><trkpt lat="39.49463583" lon="-0.35657111"><ele>4.0</ele><time>2022-11-09T16:30:28.0000000+00:00</time></trkpt><trkpt lat="39.49464941" lon="-0.35652802"><ele>4.0</ele><time>2022-11-09T16:30:29.0000000+00:00</time></trkpt><trkpt lat="39.49467204" lon="-0.35648486"><ele>4.0</ele><time>2022-11-09T16:30:30.0000000+00:00</time></trkpt><trkpt lat="39.49469643" lon="-0.35644387"><ele>3.8</ele><time>2022-11-09T16:30:31.0000000+00:00</time></trkpt><trkpt lat="39.49472107" lon="-0.35640347"><ele>3.6</ele><time>2022-11-09T16:30:32.0000000+00:00</time></trkpt><trkpt lat="39.49474102" lon="-0.35637028"><ele>3.4</ele><time>2022-11-09T16:30:33.0000000+00:00</time></trkpt><trkpt lat="39.49475661" lon="-0.35634337"><ele>3.4</ele><time>2022-11-09T16:30:34.0000000+00:00</time></trkpt><trkpt lat="39.49476935" lon="-0.35631898"><ele>3.2</ele><time>2022-11-09T16:30:35.0000000+00:00</time></trkpt><trkpt lat="39.49478913" lon="-0.35628621"><ele>3.2</ele><time>2022-11-09T16:30:36.0000000+00:00</time></trkpt><trkpt lat="39.4948069" lon="-0.35626022"><ele>3.2</ele><time>2022-11-09T16:30:37.0000000+00:00</time></trkpt><trkpt lat="39.49484688" lon="-0.35622242"><ele>3.0</ele><time>2022-11-09T16:30:38.0000000+00:00</time></trkpt><trkpt lat="39.49488435" lon="-0.35617925"><ele>3.0</ele><time>2022-11-09T16:30:39.0000000+00:00</time></trkpt><trkpt lat="39.49492039" lon="-0.35613483"><ele>3.0</ele><time>2022-11-09T16:30:40.0000000+00:00</time></trkpt><trkpt lat="39.49496213" lon="-0.35608429"><ele>3.0</ele><time>2022-11-09T16:30:41.0000000+00:00</time></trkpt><trkpt lat="39.49500262" lon="-0.35603047"><ele>3.0</ele><time>2022-11-09T16:30:42.0000000+00:00</time></trkpt><trkpt lat="39.49503288" lon="-0.3559868"><ele>3.0</ele><time>2022-11-09T16:30:43.0000000+00:00</time></trkpt><trkpt lat="39.49506205" lon="-0.35594238"><ele>3.0</ele><time>2022-11-09T16:30:44.0000000+00:00</time></trkpt><trkpt lat="39.49509608" lon="-0.35588421"><ele>2.8</ele><time>2022-11-09T16:30:45.0000000+00:00</time></trkpt><trkpt lat="39.49511762" lon="-0.35584297"><ele>2.8</ele><time>2022-11-09T16:30:46.0000000+00:00</time></trkpt><trkpt lat="39.49514503" lon="-0.35579117"><ele>2.8</ele><time>2022-11-09T16:30:47.0000000+00:00</time></trkpt><trkpt lat="39.49517151" lon="-0.35573753"><ele>2.8</ele><time>2022-11-09T16:30:48.0000000+00:00</time></trkpt><trkpt lat="39.49520177" lon="-0.35568028"><ele>3.0</ele><time>2022-11-09T16:30:49.0000000+00:00</time></trkpt><trkpt lat="39.49523564" lon="-0.35561951"><ele>3.0</ele><time>2022-11-09T16:30:50.0000000+00:00</time></trkpt><trkpt lat="39.49527009" lon="-0.35556042"><ele>3.0</ele><time>2022-11-09T16:30:51.0000000+00:00</time></trkpt><trkpt lat="39.49530512" lon="-0.35549521"><ele>3.0</ele><time>2022-11-09T16:30:52.0000000+00:00</time></trkpt><trkpt lat="39.49534116" lon="-0.35543712"><ele>3.0</ele><time>2022-11-09T16:30:53.0000000+00:00</time></trkpt><trkpt lat="39.49537863" lon="-0.35537853"><ele>3.0</ele><time>2022-11-09T16:30:54.0000000+00:00</time></trkpt><trkpt lat="39.495414" lon="-0.3553186"><ele>3.0</ele><time>2022-11-09T16:30:55.0000000+00:00</time></trkpt><trkpt lat="39.49545231" lon="-0.35525934"><ele>3.0</ele><time>2022-11-09T16:30:56.0000000+00:00</time></trkpt><trkpt lat="39.49549237" lon="-0.35519916"><ele>3.2</ele><time>2022-11-09T16:30:57.0000000+00:00</time></trkpt><trkpt lat="39.49553043" lon="-0.3551342"><ele>3.4</ele><time>2022-11-09T16:30:58.0000000+00:00</time></trkpt><trkpt lat="39.49557066" lon="-0.35506798"><ele>3.8</ele><time>2022-11-09T16:30:59.0000000+00:00</time></trkpt><trkpt lat="39.49561165" lon="-0.3550026"><ele>3.8</ele><time>2022-11-09T16:31:00.0000000+00:00</time></trkpt><trkpt lat="39.49565129" lon="-0.3549337"><ele>3.8</ele><time>2022-11-09T16:31:01.0000000+00:00</time></trkpt><trkpt lat="39.49569019" lon="-0.35486313"><ele>4.0</ele><time>2022-11-09T16:31:02.0000000+00:00</time></trkpt><trkpt lat="39.49572405" lon="-0.35479113"><ele>4.0</ele><time>2022-11-09T16:31:03.0000000+00:00</time></trkpt><trkpt lat="39.49575707" lon="-0.35472105"><ele>4.0</ele><time>2022-11-09T16:31:04.0000000+00:00</time></trkpt><trkpt lat="39.4957927" lon="-0.35465534"><ele>3.8</ele><time>2022-11-09T16:31:05.0000000+00:00</time></trkpt><trkpt lat="39.49583301" lon="-0.35459625"><ele>3.8</ele><time>2022-11-09T16:31:06.0000000+00:00</time></trkpt><trkpt lat="39.49587719" lon="-0.35454202"><ele>3.6</ele><time>2022-11-09T16:31:07.0000000+00:00</time></trkpt><trkpt lat="39.49592647" lon="-0.35448946"><ele>3.6</ele><time>2022-11-09T16:31:08.0000000+00:00</time></trkpt><trkpt lat="39.49597551" lon="-0.35443146"><ele>3.6</ele><time>2022-11-09T16:31:09.0000000+00:00</time></trkpt><trkpt lat="39.49601959" lon="-0.35436298"><ele>3.4</ele><time>2022-11-09T16:31:10.0000000+00:00</time></trkpt><trkpt lat="39.4960641" lon="-0.35429089"><ele>3.4</ele><time>2022-11-09T16:31:11.0000000+00:00</time></trkpt><trkpt lat="39.49610786" lon="-0.35421856"><ele>3.2</ele><time>2022-11-09T16:31:12.0000000+00:00</time></trkpt><trkpt lat="39.49615471" lon="-0.35414714"><ele>3.2</ele><time>2022-11-09T16:31:13.0000000+00:00</time></trkpt><trkpt lat="39.49620199" lon="-0.35407548"><ele>3.4</ele><time>2022-11-09T16:31:14.0000000+00:00</time></trkpt><trkpt lat="39.49624926" lon="-0.35400524"><ele>3.6</ele><time>2022-11-09T16:31:15.0000000+00:00</time></trkpt><trkpt lat="39.49629494" lon="-0.35393491"><ele>3.6</ele><time>2022-11-09T16:31:16.0000000+00:00</time></trkpt><trkpt lat="39.4963361" lon="-0.3538599"><ele>3.4</ele><time>2022-11-09T16:31:17.0000000+00:00</time></trkpt><trkpt lat="39.49637909" lon="-0.35378446"><ele>3.4</ele><time>2022-11-09T16:31:18.0000000+00:00</time></trkpt><trkpt lat="39.49642167" lon="-0.35371916"><ele>3.4</ele><time>2022-11-09T16:31:19.0000000+00:00</time></trkpt><trkpt lat="39.49645822" lon="-0.35366544"><ele>3.4</ele><time>2022-11-09T16:31:20.0000000+00:00</time></trkpt><trkpt lat="39.49648487" lon="-0.3536273"><ele>3.2</ele><time>2022-11-09T16:31:21.0000000+00:00</time></trkpt><trkpt lat="39.49650985" lon="-0.35360718"><ele>3.0</ele><time>2022-11-09T16:31:22.0000000+00:00</time></trkpt><trkpt lat="39.4965319" lon="-0.35360282"><ele>3.0</ele><time>2022-11-09T16:31:23.0000000+00:00</time></trkpt><trkpt lat="39.49655721" lon="-0.35361162"><ele>3.0</ele><time>2022-11-09T16:31:24.0000000+00:00</time></trkpt><trkpt lat="39.49657716" lon="-0.35362897"><ele>2.8</ele><time>2022-11-09T16:31:25.0000000+00:00</time></trkpt><trkpt lat="39.49659116" lon="-0.35365018"><ele>2.8</ele><time>2022-11-09T16:31:26.0000000+00:00</time></trkpt><trkpt lat="39.49660289" lon="-0.3536672"><ele>2.8</ele><time>2022-11-09T16:31:27.0000000+00:00</time></trkpt><trkpt lat="39.49661194" lon="-0.3536827"><ele>2.8</ele><time>2022-11-09T16:31:28.0000000+00:00</time></trkpt><trkpt lat="39.49661739" lon="-0.35369846"><ele>3.0</ele><time>2022-11-09T16:31:29.0000000+00:00</time></trkpt><trkpt lat="39.49662477" lon="-0.35371305"><ele>3.0</ele><time>2022-11-09T16:31:30.0000000+00:00</time></trkpt><trkpt lat="39.49662779" lon="-0.35371833"><ele>2.8</ele><time>2022-11-09T16:31:31.0000000+00:00</time></trkpt><trkpt lat="39.49662779" lon="-0.35371833"><ele>2.8</ele><time>2022-11-09T16:31:32.0000000+00:00</time></trkpt><trkpt lat="39.49662779" lon="-0.35371833"><ele>2.8</ele><time>2022-11-09T16:31:33.0000000+00:00</time></trkpt><trkpt lat="39.49662779" lon="-0.35371833"><ele>2.8</ele><time>2022-11-09T16:31:34.0000000+00:00</time></trkpt><trkpt lat="39.49662779" lon="-0.35371833"><ele>2.8</ele><time>2022-11-09T16:31:35.0000000+00:00</time></trkpt><trkpt lat="39.49662779" lon="-0.35371833"><ele>2.8</ele><time>2022-11-09T16:31:36.0000000+00:00</time></trkpt><trkpt lat="39.49662779" lon="-0.35371833"><ele>2.8</ele><time>2022-11-09T16:31:37.0000000+00:00</time></trkpt><trkpt lat="39.49662779" lon="-0.35371833"><ele>2.8</ele><time>2022-11-09T16:31:38.0000000+00:00</time></trkpt><trkpt lat="39.49662779" lon="-0.35371833"><ele>2.6</ele><time>2022-11-09T16:31:39.0000000+00:00</time></trkpt><trkpt lat="39.49662779" lon="-0.35371833"><ele>2.6</ele><time>2022-11-09T16:31:40.0000000+00:00</time></trkpt><trkpt lat="39.49662779" lon="-0.35371833"><ele>2.6</ele><time>2022-11-09T16:31:41.0000000+00:00</time></trkpt><trkpt lat="39.49662779" lon="-0.35371833"><ele>2.6</ele><time>2022-11-09T16:31:42.0000000+00:00</time></trkpt><trkpt lat="39.49662779" lon="-0.35371833"><ele>2.4</ele><time>2022-11-09T16:31:43.0000000+00:00</time></trkpt><trkpt lat="39.49662779" lon="-0.35371833"><ele>2.4</ele><time>2022-11-09T16:31:44.0000000+00:00</time></trkpt><trkpt lat="39.49662779" lon="-0.35371833"><ele>2.2</ele><time>2022-11-09T16:31:45.0000000+00:00</time></trkpt><trkpt lat="39.49662779" lon="-0.35371833"><ele>2.2</ele><time>2022-11-09T16:31:46.0000000+00:00</time></trkpt><trkpt lat="39.49663114" lon="-0.35371657"><ele>2.4</ele><time>2022-11-09T16:31:47.0000000+00:00</time></trkpt><trkpt lat="39.49664597" lon="-0.3537159"><ele>2.4</ele><time>2022-11-09T16:31:48.0000000+00:00</time></trkpt><trkpt lat="39.49666768" lon="-0.35371137"><ele>2.4</ele><time>2022-11-09T16:31:49.0000000+00:00</time></trkpt><trkpt lat="39.49668445" lon="-0.35369888"><ele>2.4</ele><time>2022-11-09T16:31:50.0000000+00:00</time></trkpt><trkpt lat="39.49669568" lon="-0.35367499"><ele>2.4</ele><time>2022-11-09T16:31:51.0000000+00:00</time></trkpt><trkpt lat="39.49670113" lon="-0.35364431"><ele>2.4</ele><time>2022-11-09T16:31:52.0000000+00:00</time></trkpt><trkpt lat="39.4966904" lon="-0.35361942"><ele>2.4</ele><time>2022-11-09T16:31:53.0000000+00:00</time></trkpt><trkpt lat="39.49667615" lon="-0.35359738"><ele>2.2</ele><time>2022-11-09T16:31:54.0000000+00:00</time></trkpt><trkpt lat="39.49667397" lon="-0.35357256"><ele>2.2</ele><time>2022-11-09T16:31:55.0000000+00:00</time></trkpt><trkpt lat="39.49668663" lon="-0.35353845"><ele>2.4</ele><time>2022-11-09T16:31:56.0000000+00:00</time></trkpt><trkpt lat="39.49670934" lon="-0.35350811"><ele>2.4</ele><time>2022-11-09T16:31:57.0000000+00:00</time></trkpt><trkpt lat="39.49673759" lon="-0.35347844"><ele>2.4</ele><time>2022-11-09T16:31:58.0000000+00:00</time></trkpt><trkpt lat="39.49676508" lon="-0.35344474"><ele>2.6</ele><time>2022-11-09T16:31:59.0000000+00:00</time></trkpt><trkpt lat="39.49679249" lon="-0.35341155"><ele>2.8</ele><time>2022-11-09T16:32:00.0000000+00:00</time></trkpt><trkpt lat="39.49681328" lon="-0.3533823"><ele>2.8</ele><time>2022-11-09T16:32:01.0000000+00:00</time></trkpt><trkpt lat="39.49681185" lon="-0.35336"><ele>2.8</ele><time>2022-11-09T16:32:02.0000000+00:00</time></trkpt><trkpt lat="39.49679207" lon="-0.35333653"><ele>2.8</ele><time>2022-11-09T16:32:03.0000000+00:00</time></trkpt><trkpt lat="39.49677522" lon="-0.35330552"><ele>2.8</ele><time>2022-11-09T16:32:04.0000000+00:00</time></trkpt><trkpt lat="39.49675879" lon="-0.35327409"><ele>2.8</ele><time>2022-11-09T16:32:05.0000000+00:00</time></trkpt><trkpt lat="39.49674069" lon="-0.35325045"><ele>2.6</ele><time>2022-11-09T16:32:06.0000000+00:00</time></trkpt><trkpt lat="39.49672887" lon="-0.35322849"><ele>2.6</ele><time>2022-11-09T16:32:07.0000000+00:00</time></trkpt><trkpt lat="39.49671806" lon="-0.35320024"><ele>2.6</ele><time>2022-11-09T16:32:08.0000000+00:00</time></trkpt><trkpt lat="39.49671513" lon="-0.35315733"><ele>2.6</ele><time>2022-11-09T16:32:09.0000000+00:00</time></trkpt><trkpt lat="39.49670674" lon="-0.35312388"><ele>2.6</ele><time>2022-11-09T16:32:10.0000000+00:00</time></trkpt><trkpt lat="39.49669886" lon="-0.35310846"><ele>2.6</ele><time>2022-11-09T16:32:11.0000000+00:00</time></trkpt><trkpt lat="39.49670792" lon="-0.35310972"><ele>2.6</ele><time>2022-11-09T16:32:12.0000000+00:00</time></trkpt><trkpt lat="39.49672602" lon="-0.35311542"><ele>2.6</ele><time>2022-11-09T16:32:13.0000000+00:00</time></trkpt><trkpt lat="39.49674253" lon="-0.35311491"><ele>2.6</ele><time>2022-11-09T16:32:14.0000000+00:00</time></trkpt><trkpt lat="39.49675209" lon="-0.35310485"><ele>2.6</ele><time>2022-11-09T16:32:15.0000000+00:00</time></trkpt><trkpt lat="39.49676366" lon="-0.35309287"><ele>2.4</ele><time>2022-11-09T16:32:16.0000000+00:00</time></trkpt><trkpt lat="39.49676869" lon="-0.35308901"><ele>2.4</ele><time>2022-11-09T16:32:17.0000000+00:00</time></trkpt><trkpt lat="39.49676869" lon="-0.35308901"><ele>2.4</ele><time>2022-11-09T16:32:18.0000000+00:00</time></trkpt><trkpt lat="39.49676869" lon="-0.35308901"><ele>2.4</ele><time>2022-11-09T16:32:19.0000000+00:00</time></trkpt><trkpt lat="39.49676869" lon="-0.35308901"><ele>2.4</ele><time>2022-11-09T16:32:20.0000000+00:00</time></trkpt><trkpt lat="39.49676869" lon="-0.35308901"><ele>2.4</ele><time>2022-11-09T16:32:21.0000000+00:00</time></trkpt><trkpt lat="39.49676869" lon="-0.35308901"><ele>2.4</ele><time>2022-11-09T16:32:22.0000000+00:00</time></trkpt><trkpt lat="39.49676869" lon="-0.35308901"><ele>2.4</ele><time>2022-11-09T16:32:23.0000000+00:00</time></trkpt><trkpt lat="39.49676869" lon="-0.35308901"><ele>2.4</ele><time>2022-11-09T16:32:24.0000000+00:00</time></trkpt><trkpt lat="39.49676885" lon="-0.35308826"><ele>2.2</ele><time>2022-11-09T16:32:25.0000000+00:00</time></trkpt><trkpt lat="39.49676357" lon="-0.35308667"><ele>2.4</ele><time>2022-11-09T16:32:26.0000000+00:00</time></trkpt><trkpt lat="39.49675628" lon="-0.35308315"><ele>2.2</ele><time>2022-11-09T16:32:27.0000000+00:00</time></trkpt><trkpt lat="39.49675318" lon="-0.35308264"><ele>2.2</ele><time>2022-11-09T16:32:28.0000000+00:00</time></trkpt><trkpt lat="39.49675318" lon="-0.35308264"><ele>2.2</ele><time>2022-11-09T16:32:29.0000000+00:00</time></trkpt><trkpt lat="39.49675318" lon="-0.35308264"><ele>2.4</ele><time>2022-11-09T16:32:30.0000000+00:00</time></trkpt><trkpt lat="39.49675318" lon="-0.35308264"><ele>2.4</ele><time>2022-11-09T16:32:31.0000000+00:00</time></trkpt><trkpt lat="39.49675318" lon="-0.35308264"><ele>2.2</ele><time>2022-11-09T16:32:32.0000000+00:00</time></trkpt><trkpt lat="39.49675318" lon="-0.35308264"><ele>2.2</ele><time>2022-11-09T16:32:33.0000000+00:00</time></trkpt><trkpt lat="39.49675318" lon="-0.35308264"><ele>2.2</ele><time>2022-11-09T16:32:34.0000000+00:00</time></trkpt><trkpt lat="39.49675318" lon="-0.35308264"><ele>2.4</ele><time>2022-11-09T16:32:35.0000000+00:00</time></trkpt><trkpt lat="39.49675318" lon="-0.35308264"><ele>2.4</ele><time>2022-11-09T16:32:36.0000000+00:00</time></trkpt><trkpt lat="39.49674714" lon="-0.35308122"><ele>2.4</ele><time>2022-11-09T16:32:37.0000000+00:00</time></trkpt><trkpt lat="39.49673373" lon="-0.35309237"><ele>2.4</ele><time>2022-11-09T16:32:38.0000000+00:00</time></trkpt><trkpt lat="39.496722" lon="-0.35310159"><ele>2.4</ele><time>2022-11-09T16:32:39.0000000+00:00</time></trkpt><trkpt lat="39.49670037" lon="-0.35311634"><ele>2.4</ele><time>2022-11-09T16:32:40.0000000+00:00</time></trkpt><trkpt lat="39.49668185" lon="-0.35311609"><ele>2.4</ele><time>2022-11-09T16:32:41.0000000+00:00</time></trkpt><trkpt lat="39.49666182" lon="-0.35310376"><ele>2.4</ele><time>2022-11-09T16:32:42.0000000+00:00</time></trkpt><trkpt lat="39.49664807" lon="-0.35308507"><ele>2.4</ele><time>2022-11-09T16:32:43.0000000+00:00</time></trkpt><trkpt lat="39.49662879" lon="-0.35307066"><ele>2.4</ele><time>2022-11-09T16:32:44.0000000+00:00</time></trkpt><trkpt lat="39.4966065" lon="-0.35305775"><ele>2.4</ele><time>2022-11-09T16:32:45.0000000+00:00</time></trkpt><trkpt lat="39.49659694" lon="-0.35303822"><ele>2.2</ele><time>2022-11-09T16:32:46.0000000+00:00</time></trkpt><trkpt lat="39.49659082" lon="-0.35300955"><ele>2.2</ele><time>2022-11-09T16:32:47.0000000+00:00</time></trkpt><trkpt lat="39.49657624" lon="-0.3529751"><ele>2.2</ele><time>2022-11-09T16:32:48.0000000+00:00</time></trkpt><trkpt lat="39.4965588" lon="-0.35294216"><ele>2.2</ele><time>2022-11-09T16:32:49.0000000+00:00</time></trkpt><trkpt lat="39.49654229" lon="-0.35291182"><ele>2.2</ele><time>2022-11-09T16:32:50.0000000+00:00</time></trkpt><trkpt lat="39.49652838" lon="-0.35288181"><ele>2.2</ele><time>2022-11-09T16:32:51.0000000+00:00</time></trkpt><trkpt lat="39.49650759" lon="-0.3528575"><ele>2.2</ele><time>2022-11-09T16:32:52.0000000+00:00</time></trkpt><trkpt lat="39.49648026" lon="-0.35283278"><ele>2.2</ele><time>2022-11-09T16:32:53.0000000+00:00</time></trkpt><trkpt lat="39.49645202" lon="-0.35280554"><ele>2.4</ele><time>2022-11-09T16:32:54.0000000+00:00</time></trkpt><trkpt lat="39.49642771" lon="-0.35276949"><ele>2.4</ele><time>2022-11-09T16:32:55.0000000+00:00</time></trkpt><trkpt lat="39.49642075" lon="-0.35273253"><ele>2.4</ele><time>2022-11-09T16:32:56.0000000+00:00</time></trkpt><trkpt lat="39.49641447" lon="-0.35269288"><ele>2.4</ele><time>2022-11-09T16:32:57.0000000+00:00</time></trkpt><trkpt lat="39.49640013" lon="-0.35265634"><ele>2.4</ele><time>2022-11-09T16:32:58.0000000+00:00</time></trkpt><trkpt lat="39.49638077" lon="-0.35262097"><ele>2.4</ele><time>2022-11-09T16:32:59.0000000+00:00</time></trkpt><trkpt lat="39.49633325" lon="-0.35256439"><ele>2.4</ele><time>2022-11-09T16:33:00.0000000+00:00</time></trkpt><trkpt lat="39.49630391" lon="-0.35250278"><ele>2.4</ele><time>2022-11-09T16:33:01.0000000+00:00</time></trkpt><trkpt lat="39.49628798" lon="-0.3524193"><ele>2.4</ele><time>2022-11-09T16:33:02.0000000+00:00</time></trkpt><trkpt lat="39.4962739" lon="-0.35233162"><ele>2.4</ele><time>2022-11-09T16:33:03.0000000+00:00</time></trkpt><trkpt lat="39.49625328" lon="-0.35224236"><ele>2.4</ele><time>2022-11-09T16:33:04.0000000+00:00</time></trkpt><trkpt lat="39.49622705" lon="-0.35215384"><ele>2.4</ele><time>2022-11-09T16:33:05.0000000+00:00</time></trkpt><trkpt lat="39.49619738" lon="-0.35206181"><ele>2.4</ele><time>2022-11-09T16:33:06.0000000+00:00</time></trkpt><trkpt lat="39.49618606" lon="-0.35196408"><ele>2.4</ele><time>2022-11-09T16:33:07.0000000+00:00</time></trkpt><trkpt lat="39.49618237" lon="-0.3518702"><ele>2.4</ele><time>2022-11-09T16:33:08.0000000+00:00</time></trkpt><trkpt lat="39.49616494" lon="-0.3517811"><ele>2.4</ele><time>2022-11-09T16:33:09.0000000+00:00</time></trkpt><trkpt lat="39.49614675" lon="-0.35168312"><ele>2.4</ele><time>2022-11-09T16:33:10.0000000+00:00</time></trkpt><trkpt lat="39.49612814" lon="-0.35160458"><ele>2.2</ele><time>2022-11-09T16:33:11.0000000+00:00</time></trkpt><trkpt lat="39.49611012" lon="-0.35152679"><ele>2.2</ele><time>2022-11-09T16:33:12.0000000+00:00</time></trkpt><trkpt lat="39.49610635" lon="-0.35144775"><ele>2.2</ele><time>2022-11-09T16:33:13.0000000+00:00</time></trkpt><trkpt lat="39.49608891" lon="-0.35137265"><ele>2.0</ele><time>2022-11-09T16:33:14.0000000+00:00</time></trkpt><trkpt lat="39.49607634" lon="-0.35129168"><ele>2.0</ele><time>2022-11-09T16:33:15.0000000+00:00</time></trkpt><trkpt lat="39.49606268" lon="-0.35121348"><ele>2.0</ele><time>2022-11-09T16:33:16.0000000+00:00</time></trkpt><trkpt lat="39.49604508" lon="-0.35115992"><ele>2.0</ele><time>2022-11-09T16:33:17.0000000+00:00</time></trkpt><trkpt lat="39.4959973" lon="-0.35113125"><ele>1.8</ele><time>2022-11-09T16:33:18.0000000+00:00</time></trkpt><trkpt lat="39.49594902" lon="-0.35111323"><ele>1.8</ele><time>2022-11-09T16:33:19.0000000+00:00</time></trkpt><trkpt lat="39.49591574" lon="-0.35108549"><ele>1.8</ele><time>2022-11-09T16:33:20.0000000+00:00</time></trkpt><trkpt lat="39.49589781" lon="-0.35105623"><ele>1.8</ele><time>2022-11-09T16:33:21.0000000+00:00</time></trkpt><trkpt lat="39.49589361" lon="-0.35103251"><ele>1.6</ele><time>2022-11-09T16:33:22.0000000+00:00</time></trkpt><trkpt lat="39.495889" lon="-0.35102002"><ele>1.6</ele><time>2022-11-09T16:33:23.0000000+00:00</time></trkpt><trkpt lat="39.49588347" lon="-0.3510212"><ele>1.6</ele><time>2022-11-09T16:33:24.0000000+00:00</time></trkpt><trkpt lat="39.49587744" lon="-0.35100401"><ele>1.6</ele><time>2022-11-09T16:33:25.0000000+00:00</time></trkpt><trkpt lat="39.49585967" lon="-0.35093822"><ele>1.6</ele><time>2022-11-09T16:33:26.0000000+00:00</time></trkpt><trkpt lat="39.49584383" lon="-0.35086228"><ele>1.6</ele><time>2022-11-09T16:33:27.0000000+00:00</time></trkpt><trkpt lat="39.4958217" lon="-0.35079489"><ele>1.6</ele><time>2022-11-09T16:33:28.0000000+00:00</time></trkpt><trkpt lat="39.49577711" lon="-0.35072615"><ele>1.6</ele><time>2022-11-09T16:33:29.0000000+00:00</time></trkpt><trkpt lat="39.49573796" lon="-0.35065239"><ele>1.6</ele><time>2022-11-09T16:33:30.0000000+00:00</time></trkpt><trkpt lat="39.49569924" lon="-0.35057168"><ele>1.6</ele><time>2022-11-09T16:33:31.0000000+00:00</time></trkpt><trkpt lat="39.49567258" lon="-0.35049758"><ele>1.8</ele><time>2022-11-09T16:33:32.0000000+00:00</time></trkpt><trkpt lat="39.49565129" lon="-0.35042466"><ele>1.8</ele><time>2022-11-09T16:33:33.0000000+00:00</time></trkpt><trkpt lat="39.49563294" lon="-0.35034578"><ele>1.8</ele><time>2022-11-09T16:33:34.0000000+00:00</time></trkpt><trkpt lat="39.49561961" lon="-0.35026364"><ele>1.8</ele><time>2022-11-09T16:33:35.0000000+00:00</time></trkpt><trkpt lat="39.49560444" lon="-0.35017664"><ele>1.6</ele><time>2022-11-09T16:33:36.0000000+00:00</time></trkpt><trkpt lat="39.49560477" lon="-0.35009977"><ele>1.8</ele><time>2022-11-09T16:33:37.0000000+00:00</time></trkpt><trkpt lat="39.49560603" lon="-0.3500147"><ele>1.6</ele><time>2022-11-09T16:33:38.0000000+00:00</time></trkpt><trkpt lat="39.4956124" lon="-0.34993608"><ele>1.6</ele><time>2022-11-09T16:33:39.0000000+00:00</time></trkpt><trkpt lat="39.49560829" lon="-0.34984522"><ele>1.6</ele><time>2022-11-09T16:33:40.0000000+00:00</time></trkpt><trkpt lat="39.49559463" lon="-0.34974203"><ele>1.6</ele><time>2022-11-09T16:33:41.0000000+00:00</time></trkpt><trkpt lat="39.49560972" lon="-0.34964774"><ele>1.6</ele><time>2022-11-09T16:33:42.0000000+00:00</time></trkpt><trkpt lat="39.4956295" lon="-0.3495858"><ele>1.6</ele><time>2022-11-09T16:33:43.0000000+00:00</time></trkpt><trkpt lat="39.49563998" lon="-0.34953618"><ele>1.6</ele><time>2022-11-09T16:33:44.0000000+00:00</time></trkpt><trkpt lat="39.49562766" lon="-0.34950349"><ele>1.6</ele><time>2022-11-09T16:33:45.0000000+00:00</time></trkpt><trkpt lat="39.49562799" lon="-0.34946501"><ele>1.6</ele><time>2022-11-09T16:33:46.0000000+00:00</time></trkpt><trkpt lat="39.49561877" lon="-0.3494226"><ele>1.6</ele><time>2022-11-09T16:33:47.0000000+00:00</time></trkpt><trkpt lat="39.49560511" lon="-0.34937608"><ele>1.4</ele><time>2022-11-09T16:33:48.0000000+00:00</time></trkpt><trkpt lat="39.49559044" lon="-0.34932478"><ele>1.4</ele><time>2022-11-09T16:33:49.0000000+00:00</time></trkpt><trkpt lat="39.49557125" lon="-0.34927198"><ele>1.4</ele><time>2022-11-09T16:33:50.0000000+00:00</time></trkpt><trkpt lat="39.4955482" lon="-0.34922177"><ele>1.2</ele><time>2022-11-09T16:33:51.0000000+00:00</time></trkpt><trkpt lat="39.49552615" lon="-0.34916335"><ele>1.2</ele><time>2022-11-09T16:33:52.0000000+00:00</time></trkpt><trkpt lat="39.49550285" lon="-0.34911498"><ele>1.2</ele><time>2022-11-09T16:33:53.0000000+00:00</time></trkpt><trkpt lat="39.49548567" lon="-0.34906302"><ele>1.2</ele><time>2022-11-09T16:33:54.0000000+00:00</time></trkpt><trkpt lat="39.49546245" lon="-0.34901004"><ele>1.0</ele><time>2022-11-09T16:33:55.0000000+00:00</time></trkpt><trkpt lat="39.49544887" lon="-0.34895321"><ele>1.0</ele><time>2022-11-09T16:33:56.0000000+00:00</time></trkpt><trkpt lat="39.49542465" lon="-0.34889454"><ele>1.0</ele><time>2022-11-09T16:33:57.0000000+00:00</time></trkpt><trkpt lat="39.49540176" lon="-0.34883436"><ele>1.0</ele><time>2022-11-09T16:33:58.0000000+00:00</time></trkpt><trkpt lat="39.49538869" lon="-0.34876571"><ele>1.0</ele><time>2022-11-09T16:33:59.0000000+00:00</time></trkpt><trkpt lat="39.49538475" lon="-0.34869681"><ele>1.0</ele><time>2022-11-09T16:34:00.0000000+00:00</time></trkpt><trkpt lat="39.49537436" lon="-0.34862691"><ele>1.0</ele><time>2022-11-09T16:34:01.0000000+00:00</time></trkpt><trkpt lat="39.49536103" lon="-0.34853948"><ele>1.0</ele><time>2022-11-09T16:34:02.0000000+00:00</time></trkpt><trkpt lat="39.49536002" lon="-0.34846882"><ele>1.0</ele><time>2022-11-09T16:34:03.0000000+00:00</time></trkpt><trkpt lat="39.49535709" lon="-0.34841241"><ele>1.0</ele><time>2022-11-09T16:34:04.0000000+00:00</time></trkpt><trkpt lat="39.49536589" lon="-0.34835491"><ele>1.0</ele><time>2022-11-09T16:34:05.0000000+00:00</time></trkpt><trkpt lat="39.49538265" lon="-0.34830119"><ele>1.0</ele><time>2022-11-09T16:34:06.0000000+00:00</time></trkpt><trkpt lat="39.49540554" lon="-0.34825475"><ele>1.0</ele><time>2022-11-09T16:34:07.0000000+00:00</time></trkpt><trkpt lat="39.49543093" lon="-0.34820404"><ele>1.2</ele><time>2022-11-09T16:34:08.0000000+00:00</time></trkpt><trkpt lat="39.4954793" lon="-0.34810756"><ele>1.2</ele><time>2022-11-09T16:34:09.0000000+00:00</time></trkpt><trkpt lat="39.49549983" lon="-0.34805057"><ele>1.2</ele><time>2022-11-09T16:34:10.0000000+00:00</time></trkpt><trkpt lat="39.49550914" lon="-0.34799743"><ele>1.2</ele><time>2022-11-09T16:34:11.0000000+00:00</time></trkpt><trkpt lat="39.49550645" lon="-0.34795376"><ele>1.2</ele><time>2022-11-09T16:34:12.0000000+00:00</time></trkpt><trkpt lat="39.49550201" lon="-0.34791914"><ele>1.2</ele><time>2022-11-09T16:34:13.0000000+00:00</time></trkpt><trkpt lat="39.49549665" lon="-0.34789181"><ele>1.2</ele><time>2022-11-09T16:34:14.0000000+00:00</time></trkpt><trkpt lat="39.49549472" lon="-0.34786658"><ele>1.2</ele><time>2022-11-09T16:34:15.0000000+00:00</time></trkpt><trkpt lat="39.49549221" lon="-0.34784622"><ele>1.2</ele><time>2022-11-09T16:34:16.0000000+00:00</time></trkpt><trkpt lat="39.49548818" lon="-0.34782283"><ele>1.0</ele><time>2022-11-09T16:34:17.0000000+00:00</time></trkpt><trkpt lat="39.49548525" lon="-0.34779735"><ele>1.0</ele><time>2022-11-09T16:34:18.0000000+00:00</time></trkpt><trkpt lat="39.49548969" lon="-0.34777547"><ele>0.8</ele><time>2022-11-09T16:34:19.0000000+00:00</time></trkpt><trkpt lat="39.49549967" lon="-0.34775955"><ele>0.8</ele><time>2022-11-09T16:34:20.0000000+00:00</time></trkpt><trkpt lat="39.49550805" lon="-0.34775309"><ele>0.6</ele><time>2022-11-09T16:34:21.0000000+00:00</time></trkpt><trkpt lat="39.49552984" lon="-0.34775645"><ele>0.6</ele><time>2022-11-09T16:34:22.0000000+00:00</time></trkpt><trkpt lat="39.49555306" lon="-0.34775628"><ele>0.4</ele><time>2022-11-09T16:34:23.0000000+00:00</time></trkpt><trkpt lat="39.49556873" lon="-0.34774337"><ele>0.6</ele><time>2022-11-09T16:34:24.0000000+00:00</time></trkpt><trkpt lat="39.49557963" lon="-0.34772359"><ele>0.6</ele><time>2022-11-09T16:34:25.0000000+00:00</time></trkpt><trkpt lat="39.4955865" lon="-0.34769945"><ele>0.6</ele><time>2022-11-09T16:34:26.0000000+00:00</time></trkpt><trkpt lat="39.4955927" lon="-0.34767028"><ele>0.6</ele><time>2022-11-09T16:34:27.0000000+00:00</time></trkpt><trkpt lat="39.49559614" lon="-0.3476391"><ele>0.8</ele><time>2022-11-09T16:34:28.0000000+00:00</time></trkpt><trkpt lat="39.49560838" lon="-0.34761077"><ele>0.8</ele><time>2022-11-09T16:34:29.0000000+00:00</time></trkpt><trkpt lat="39.49562866" lon="-0.34758596"><ele>0.6</ele><time>2022-11-09T16:34:30.0000000+00:00</time></trkpt><trkpt lat="39.49564828" lon="-0.34756224"><ele>0.6</ele><time>2022-11-09T16:34:31.0000000+00:00</time></trkpt><trkpt lat="39.49567711" lon="-0.34754732"><ele>0.6</ele><time>2022-11-09T16:34:32.0000000+00:00</time></trkpt><trkpt lat="39.49571139" lon="-0.347535"><ele>0.6</ele><time>2022-11-09T16:34:33.0000000+00:00</time></trkpt><trkpt lat="39.49575045" lon="-0.34752184"><ele>0.6</ele><time>2022-11-09T16:34:34.0000000+00:00</time></trkpt><trkpt lat="39.49579027" lon="-0.34750734"><ele>0.6</ele><time>2022-11-09T16:34:35.0000000+00:00</time></trkpt><trkpt lat="39.49583192" lon="-0.34749292"><ele>0.8</ele><time>2022-11-09T16:34:36.0000000+00:00</time></trkpt><trkpt lat="39.49588062" lon="-0.34747456"><ele>0.8</ele><time>2022-11-09T16:34:37.0000000+00:00</time></trkpt><trkpt lat="39.49591767" lon="-0.34746291"><ele>0.8</ele><time>2022-11-09T16:34:38.0000000+00:00</time></trkpt><trkpt lat="39.49596277" lon="-0.34744875"><ele>0.8</ele><time>2022-11-09T16:34:39.0000000+00:00</time></trkpt><trkpt lat="39.4960097" lon="-0.34743961"><ele>0.8</ele><time>2022-11-09T16:34:40.0000000+00:00</time></trkpt><trkpt lat="39.49605673" lon="-0.3474288"><ele>0.8</ele><time>2022-11-09T16:34:41.0000000+00:00</time></trkpt><trkpt lat="39.49610308" lon="-0.34741606"><ele>0.8</ele><time>2022-11-09T16:34:42.0000000+00:00</time></trkpt><trkpt lat="39.49615731" lon="-0.34740474"><ele>0.8</ele><time>2022-11-09T16:34:43.0000000+00:00</time></trkpt><trkpt lat="39.49621204" lon="-0.34738077"><ele>0.8</ele><time>2022-11-09T16:34:44.0000000+00:00</time></trkpt><trkpt lat="39.49626435" lon="-0.34735864"><ele>0.8</ele><time>2022-11-09T16:34:45.0000000+00:00</time></trkpt><trkpt lat="39.49630165" lon="-0.34732838"><ele>0.8</ele><time>2022-11-09T16:34:46.0000000+00:00</time></trkpt><trkpt lat="39.49634004" lon="-0.34729997"><ele>0.8</ele><time>2022-11-09T16:34:47.0000000+00:00</time></trkpt><trkpt lat="39.49639862" lon="-0.34728882"><ele>0.8</ele><time>2022-11-09T16:34:48.0000000+00:00</time></trkpt><trkpt lat="39.49646132" lon="-0.34727977"><ele>0.8</ele><time>2022-11-09T16:34:49.0000000+00:00</time></trkpt><trkpt lat="39.49652838" lon="-0.34726636"><ele>0.8</ele><time>2022-11-09T16:34:50.0000000+00:00</time></trkpt><trkpt lat="39.49659216" lon="-0.34724758"><ele>0.8</ele><time>2022-11-09T16:34:51.0000000+00:00</time></trkpt><trkpt lat="39.49667154" lon="-0.34722302"><ele>0.8</ele><time>2022-11-09T16:34:52.0000000+00:00</time></trkpt><trkpt lat="39.49674429" lon="-0.34719888"><ele>1.0</ele><time>2022-11-09T16:34:53.0000000+00:00</time></trkpt><trkpt lat="39.49682367" lon="-0.34718564"><ele>1.0</ele><time>2022-11-09T16:34:54.0000000+00:00</time></trkpt><trkpt lat="39.49689861" lon="-0.34716452"><ele>1.0</ele><time>2022-11-09T16:34:55.0000000+00:00</time></trkpt><trkpt lat="39.49694848" lon="-0.34715018"><ele>1.0</ele><time>2022-11-09T16:34:56.0000000+00:00</time></trkpt><trkpt lat="39.49700514" lon="-0.34712981"><ele>1.0</ele><time>2022-11-09T16:34:57.0000000+00:00</time></trkpt><trkpt lat="39.49705727" lon="-0.34711062"><ele>1.0</ele><time>2022-11-09T16:34:58.0000000+00:00</time></trkpt><trkpt lat="39.49711385" lon="-0.34709453"><ele>1.0</ele><time>2022-11-09T16:34:59.0000000+00:00</time></trkpt><trkpt lat="39.4971747" lon="-0.34708665"><ele>0.8</ele><time>2022-11-09T16:35:00.0000000+00:00</time></trkpt><trkpt lat="39.49721653" lon="-0.34706159"><ele>0.8</ele><time>2022-11-09T16:35:01.0000000+00:00</time></trkpt><trkpt lat="39.49725098" lon="-0.34701859"><ele>0.6</ele><time>2022-11-09T16:35:02.0000000+00:00</time></trkpt><trkpt lat="39.49728258" lon="-0.34697877"><ele>0.4</ele><time>2022-11-09T16:35:03.0000000+00:00</time></trkpt><trkpt lat="39.49730756" lon="-0.34695514"><ele>0.2</ele><time>2022-11-09T16:35:04.0000000+00:00</time></trkpt><trkpt lat="39.49732633" lon="-0.3469408"><ele>0.0</ele><time>2022-11-09T16:35:05.0000000+00:00</time></trkpt><trkpt lat="39.4973467" lon="-0.34693862"><ele>-0.2</ele><time>2022-11-09T16:35:06.0000000+00:00</time></trkpt><trkpt lat="39.49737461" lon="-0.34694156"><ele>-0.4</ele><time>2022-11-09T16:35:07.0000000+00:00</time></trkpt><trkpt lat="39.49740135" lon="-0.34693745"><ele>-0.4</ele><time>2022-11-09T16:35:08.0000000+00:00</time></trkpt><trkpt lat="39.4974073" lon="-0.34693745"><ele>-0.6</ele><time>2022-11-09T16:35:09.0000000+00:00</time></trkpt><trkpt lat="39.49743186" lon="-0.34694835"><ele>-0.6</ele><time>2022-11-09T16:35:10.0000000+00:00</time></trkpt><trkpt lat="39.49746748" lon="-0.34696897"><ele>-0.6</ele><time>2022-11-09T16:35:11.0000000+00:00</time></trkpt><trkpt lat="39.497513" lon="-0.34699244"><ele>-0.4</ele><time>2022-11-09T16:35:12.0000000+00:00</time></trkpt><trkpt lat="39.49756078" lon="-0.34700325"><ele>-0.4</ele><time>2022-11-09T16:35:13.0000000+00:00</time></trkpt><trkpt lat="39.49760998" lon="-0.34700744"><ele>-0.4</ele><time>2022-11-09T16:35:14.0000000+00:00</time></trkpt><trkpt lat="39.49765633" lon="-0.34700065"><ele>-0.2</ele><time>2022-11-09T16:35:15.0000000+00:00</time></trkpt><trkpt lat="39.49770419" lon="-0.34698665"><ele>-0.2</ele><time>2022-11-09T16:35:16.0000000+00:00</time></trkpt><trkpt lat="39.49775515" lon="-0.34696796"><ele>-0.2</ele><time>2022-11-09T16:35:17.0000000+00:00</time></trkpt><trkpt lat="39.49781131" lon="-0.34695111"><ele>0.0</ele><time>2022-11-09T16:35:18.0000000+00:00</time></trkpt><trkpt lat="39.49786822" lon="-0.34693619"><ele>0.0</ele><time>2022-11-09T16:35:19.0000000+00:00</time></trkpt><trkpt lat="39.49791986" lon="-0.34692077"><ele>0.2</ele><time>2022-11-09T16:35:20.0000000+00:00</time></trkpt><trkpt lat="39.49797551" lon="-0.34690468"><ele>0.2</ele><time>2022-11-09T16:35:21.0000000+00:00</time></trkpt><trkpt lat="39.49802832" lon="-0.34688037"><ele>0.4</ele><time>2022-11-09T16:35:22.0000000+00:00</time></trkpt><trkpt lat="39.49808054" lon="-0.34686109"><ele>0.4</ele><time>2022-11-09T16:35:23.0000000+00:00</time></trkpt><trkpt lat="39.49813485" lon="-0.34684156"><ele>0.6</ele><time>2022-11-09T16:35:24.0000000+00:00</time></trkpt><trkpt lat="39.4981947" lon="-0.34682287"><ele>0.6</ele><time>2022-11-09T16:35:25.0000000+00:00</time></trkpt><trkpt lat="39.49825153" lon="-0.34680468"><ele>0.6</ele><time>2022-11-09T16:35:26.0000000+00:00</time></trkpt><trkpt lat="39.49830852" lon="-0.34678708"><ele>0.6</ele><time>2022-11-09T16:35:27.0000000+00:00</time></trkpt><trkpt lat="39.49836418" lon="-0.34677107"><ele>0.6</ele><time>2022-11-09T16:35:28.0000000+00:00</time></trkpt><trkpt lat="39.4984257" lon="-0.34675732"><ele>0.6</ele><time>2022-11-09T16:35:29.0000000+00:00</time></trkpt><trkpt lat="39.49848773" lon="-0.34674148"><ele>0.6</ele><time>2022-11-09T16:35:30.0000000+00:00</time></trkpt><trkpt lat="39.49855403" lon="-0.34672665"><ele>0.8</ele><time>2022-11-09T16:35:31.0000000+00:00</time></trkpt><trkpt lat="39.49861547" lon="-0.34671064"><ele>0.8</ele><time>2022-11-09T16:35:32.0000000+00:00</time></trkpt><trkpt lat="39.4986728" lon="-0.34669312"><ele>0.8</ele><time>2022-11-09T16:35:33.0000000+00:00</time></trkpt><trkpt lat="39.49873307" lon="-0.34667736"><ele>1.0</ele><time>2022-11-09T16:35:34.0000000+00:00</time></trkpt><trkpt lat="39.49878906" lon="-0.34666009"><ele>1.0</ele><time>2022-11-09T16:35:35.0000000+00:00</time></trkpt><trkpt lat="39.49884296" lon="-0.34663838"><ele>1.0</ele><time>2022-11-09T16:35:36.0000000+00:00</time></trkpt><trkpt lat="39.49889895" lon="-0.34661911"><ele>1.0</ele><time>2022-11-09T16:35:37.0000000+00:00</time></trkpt><trkpt lat="39.49896089" lon="-0.34660259"><ele>1.0</ele><time>2022-11-09T16:35:38.0000000+00:00</time></trkpt><trkpt lat="39.49902258" lon="-0.34658742"><ele>1.0</ele><time>2022-11-09T16:35:39.0000000+00:00</time></trkpt><trkpt lat="39.49908393" lon="-0.3465715"><ele>0.8</ele><time>2022-11-09T16:35:40.0000000+00:00</time></trkpt><trkpt lat="39.49914596" lon="-0.34655867"><ele>0.8</ele><time>2022-11-09T16:35:41.0000000+00:00</time></trkpt><trkpt lat="39.49920606" lon="-0.34654476"><ele>0.8</ele><time>2022-11-09T16:35:42.0000000+00:00</time></trkpt><trkpt lat="39.49926666" lon="-0.34652758"><ele>0.8</ele><time>2022-11-09T16:35:43.0000000+00:00</time></trkpt><trkpt lat="39.49932726" lon="-0.3465124"><ele>0.8</ele><time>2022-11-09T16:35:44.0000000+00:00</time></trkpt><trkpt lat="39.49938443" lon="-0.34649581"><ele>0.8</ele><time>2022-11-09T16:35:45.0000000+00:00</time></trkpt><trkpt lat="39.49944193" lon="-0.34647921"><ele>0.8</ele><time>2022-11-09T16:35:46.0000000+00:00</time></trkpt><trkpt lat="39.49949926" lon="-0.3464627"><ele>0.8</ele><time>2022-11-09T16:35:47.0000000+00:00</time></trkpt><trkpt lat="39.49955525" lon="-0.34644644"><ele>1.0</ele><time>2022-11-09T16:35:48.0000000+00:00</time></trkpt><trkpt lat="39.4996094" lon="-0.34642406"><ele>1.0</ele><time>2022-11-09T16:35:49.0000000+00:00</time></trkpt><trkpt lat="39.49966639" lon="-0.34640352"><ele>1.0</ele><time>2022-11-09T16:35:50.0000000+00:00</time></trkpt><trkpt lat="39.4997249" lon="-0.34638232"><ele>1.0</ele><time>2022-11-09T16:35:51.0000000+00:00</time></trkpt><trkpt lat="39.49978282" lon="-0.3463627"><ele>1.0</ele><time>2022-11-09T16:35:52.0000000+00:00</time></trkpt><trkpt lat="39.49984116" lon="-0.34634837"><ele>1.0</ele><time>2022-11-09T16:35:53.0000000+00:00</time></trkpt><trkpt lat="39.49989824" lon="-0.3463332"><ele>1.0</ele><time>2022-11-09T16:35:54.0000000+00:00</time></trkpt><trkpt lat="39.49995406" lon="-0.34631333"><ele>1.0</ele><time>2022-11-09T16:35:55.0000000+00:00</time></trkpt><trkpt lat="39.50001751" lon="-0.34629699"><ele>0.8</ele><time>2022-11-09T16:35:56.0000000+00:00</time></trkpt><trkpt lat="39.50008364" lon="-0.34628081"><ele>0.8</ele><time>2022-11-09T16:35:57.0000000+00:00</time></trkpt><trkpt lat="39.50014844" lon="-0.34626958"><ele>0.8</ele><time>2022-11-09T16:35:58.0000000+00:00</time></trkpt><trkpt lat="39.50021432" lon="-0.34625516"><ele>0.6</ele><time>2022-11-09T16:35:59.0000000+00:00</time></trkpt><trkpt lat="39.50027551" lon="-0.34624108"><ele>0.6</ele><time>2022-11-09T16:36:00.0000000+00:00</time></trkpt><trkpt lat="39.50033426" lon="-0.34622918"><ele>0.6</ele><time>2022-11-09T16:36:01.0000000+00:00</time></trkpt><trkpt lat="39.50038791" lon="-0.34621057"><ele>0.4</ele><time>2022-11-09T16:36:02.0000000+00:00</time></trkpt><trkpt lat="39.50044742" lon="-0.34619557"><ele>0.6</ele><time>2022-11-09T16:36:03.0000000+00:00</time></trkpt><trkpt lat="39.50051397" lon="-0.34618777"><ele>0.4</ele><time>2022-11-09T16:36:04.0000000+00:00</time></trkpt><trkpt lat="39.5005874" lon="-0.34617394"><ele>0.4</ele><time>2022-11-09T16:36:05.0000000+00:00</time></trkpt><trkpt lat="39.50065001" lon="-0.34615533"><ele>0.4</ele><time>2022-11-09T16:36:06.0000000+00:00</time></trkpt><trkpt lat="39.5007055" lon="-0.34614008"><ele>0.4</ele><time>2022-11-09T16:36:07.0000000+00:00</time></trkpt><trkpt lat="39.50074741" lon="-0.34612742"><ele>0.4</ele><time>2022-11-09T16:36:08.0000000+00:00</time></trkpt><trkpt lat="39.50078135" lon="-0.34611393"><ele>0.4</ele><time>2022-11-09T16:36:09.0000000+00:00</time></trkpt><trkpt lat="39.50081429" lon="-0.34609951"><ele>0.4</ele><time>2022-11-09T16:36:10.0000000+00:00</time></trkpt><trkpt lat="39.50084657" lon="-0.34608367"><ele>0.4</ele><time>2022-11-09T16:36:11.0000000+00:00</time></trkpt><trkpt lat="39.50087414" lon="-0.34606129"><ele>0.4</ele><time>2022-11-09T16:36:12.0000000+00:00</time></trkpt><trkpt lat="39.50089904" lon="-0.34604277"><ele>0.6</ele><time>2022-11-09T16:36:13.0000000+00:00</time></trkpt><trkpt lat="39.50092586" lon="-0.34602483"><ele>0.6</ele><time>2022-11-09T16:36:14.0000000+00:00</time></trkpt><trkpt lat="39.50094815" lon="-0.34601519"><ele>0.6</ele><time>2022-11-09T16:36:15.0000000+00:00</time></trkpt><trkpt lat="39.50096995" lon="-0.3460162"><ele>0.6</ele><time>2022-11-09T16:36:16.0000000+00:00</time></trkpt><trkpt lat="39.50098126" lon="-0.34602231"><ele>0.4</ele><time>2022-11-09T16:36:17.0000000+00:00</time></trkpt><trkpt lat="39.50098587" lon="-0.34602885"><ele>0.2</ele><time>2022-11-09T16:36:18.0000000+00:00</time></trkpt><trkpt lat="39.50098629" lon="-0.34603992"><ele>0.0</ele><time>2022-11-09T16:36:19.0000000+00:00</time></trkpt><trkpt lat="39.50098093" lon="-0.34605743"><ele>0.0</ele><time>2022-11-09T16:36:20.0000000+00:00</time></trkpt><trkpt lat="39.50097271" lon="-0.34608367"><ele>0.0</ele><time>2022-11-09T16:36:21.0000000+00:00</time></trkpt><trkpt lat="39.50098135" lon="-0.34611787"><ele>0.0</ele><time>2022-11-09T16:36:22.0000000+00:00</time></trkpt><trkpt lat="39.50100021" lon="-0.34614645"><ele>0.0</ele><time>2022-11-09T16:36:23.0000000+00:00</time></trkpt><trkpt lat="39.50102728" lon="-0.34616288"><ele>0.0</ele><time>2022-11-09T16:36:24.0000000+00:00</time></trkpt><trkpt lat="39.50106366" lon="-0.34618509"><ele>0.2</ele><time>2022-11-09T16:36:25.0000000+00:00</time></trkpt><trkpt lat="39.50110213" lon="-0.34621024"><ele>0.4</ele><time>2022-11-09T16:36:26.0000000+00:00</time></trkpt><trkpt lat="39.50113918" lon="-0.34623681"><ele>0.4</ele><time>2022-11-09T16:36:27.0000000+00:00</time></trkpt><trkpt lat="39.50118486" lon="-0.34626296"><ele>0.4</ele><time>2022-11-09T16:36:28.0000000+00:00</time></trkpt><trkpt lat="39.50122484" lon="-0.34627872"><ele>0.4</ele><time>2022-11-09T16:36:29.0000000+00:00</time></trkpt><trkpt lat="39.50126474" lon="-0.34629355"><ele>0.6</ele><time>2022-11-09T16:36:30.0000000+00:00</time></trkpt><trkpt lat="39.50129676" lon="-0.34630587"><ele>0.6</ele><time>2022-11-09T16:36:31.0000000+00:00</time></trkpt><trkpt lat="39.50132769" lon="-0.34631191"><ele>0.6</ele><time>2022-11-09T16:36:32.0000000+00:00</time></trkpt><trkpt lat="39.50135618" lon="-0.34631459"><ele>0.4</ele><time>2022-11-09T16:36:33.0000000+00:00</time></trkpt><trkpt lat="39.50138468" lon="-0.34630504"><ele>0.2</ele><time>2022-11-09T16:36:34.0000000+00:00</time></trkpt><trkpt lat="39.50141184" lon="-0.34627939"><ele>0.0</ele><time>2022-11-09T16:36:35.0000000+00:00</time></trkpt><trkpt lat="39.50144168" lon="-0.34624846"><ele>0.0</ele><time>2022-11-09T16:36:36.0000000+00:00</time></trkpt><trkpt lat="39.50147605" lon="-0.34622314"><ele>0.0</ele><time>2022-11-09T16:36:37.0000000+00:00</time></trkpt><trkpt lat="39.50151536" lon="-0.3461975"><ele>-0.2</ele><time>2022-11-09T16:36:38.0000000+00:00</time></trkpt><trkpt lat="39.50155291" lon="-0.34617394"><ele>-0.2</ele><time>2022-11-09T16:36:39.0000000+00:00</time></trkpt><trkpt lat="39.50159113" lon="-0.34614704"><ele>-0.2</ele><time>2022-11-09T16:36:40.0000000+00:00</time></trkpt><trkpt lat="39.50163539" lon="-0.3461286"><ele>-0.2</ele><time>2022-11-09T16:36:41.0000000+00:00</time></trkpt><trkpt lat="39.50167872" lon="-0.34610773"><ele>-0.2</ele><time>2022-11-09T16:36:42.0000000+00:00</time></trkpt><trkpt lat="39.50172239" lon="-0.34609264"><ele>-0.2</ele><time>2022-11-09T16:36:43.0000000+00:00</time></trkpt><trkpt lat="39.50176807" lon="-0.34608317"><ele>-0.2</ele><time>2022-11-09T16:36:44.0000000+00:00</time></trkpt><trkpt lat="39.50181979" lon="-0.34607772"><ele>0.2</ele><time>2022-11-09T16:36:45.0000000+00:00</time></trkpt><trkpt lat="39.50187041" lon="-0.3460695"><ele>0.4</ele><time>2022-11-09T16:36:46.0000000+00:00</time></trkpt><trkpt lat="39.50191953" lon="-0.34606339"><ele>0.4</ele><time>2022-11-09T16:36:47.0000000+00:00</time></trkpt><trkpt lat="39.50196337" lon="-0.34605626"><ele>0.6</ele><time>2022-11-09T16:36:48.0000000+00:00</time></trkpt><trkpt lat="39.50200863" lon="-0.34605324"><ele>0.6</ele><time>2022-11-09T16:36:49.0000000+00:00</time></trkpt><trkpt lat="39.50205658" lon="-0.34605291"><ele>0.8</ele><time>2022-11-09T16:36:50.0000000+00:00</time></trkpt><trkpt lat="39.5021088" lon="-0.34604721"><ele>1.0</ele><time>2022-11-09T16:36:51.0000000+00:00</time></trkpt><trkpt lat="39.50216286" lon="-0.34603816"><ele>1.0</ele><time>2022-11-09T16:36:52.0000000+00:00</time></trkpt><trkpt lat="39.50221944" lon="-0.34603053"><ele>1.2</ele><time>2022-11-09T16:36:53.0000000+00:00</time></trkpt><trkpt lat="39.50227962" lon="-0.34602801"><ele>1.2</ele><time>2022-11-09T16:36:54.0000000+00:00</time></trkpt><trkpt lat="39.50233812" lon="-0.34602466"><ele>1.2</ele><time>2022-11-09T16:36:55.0000000+00:00</time></trkpt><trkpt lat="39.50239738" lon="-0.3460234"><ele>1.2</ele><time>2022-11-09T16:36:56.0000000+00:00</time></trkpt><trkpt lat="39.50245204" lon="-0.34602072"><ele>1.4</ele><time>2022-11-09T16:36:57.0000000+00:00</time></trkpt><trkpt lat="39.50250761" lon="-0.3460172"><ele>1.4</ele><time>2022-11-09T16:36:58.0000000+00:00</time></trkpt><trkpt lat="39.50256092" lon="-0.34601343"><ele>1.4</ele><time>2022-11-09T16:36:59.0000000+00:00</time></trkpt><trkpt lat="39.50261632" lon="-0.3460105"><ele>1.4</ele><time>2022-11-09T16:37:00.0000000+00:00</time></trkpt><trkpt lat="39.5026703" lon="-0.34600999"><ele>1.4</ele><time>2022-11-09T16:37:01.0000000+00:00</time></trkpt><trkpt lat="39.50271565" lon="-0.34601594"><ele>1.4</ele><time>2022-11-09T16:37:02.0000000+00:00</time></trkpt><trkpt lat="39.50274959" lon="-0.34603111"><ele>1.2</ele><time>2022-11-09T16:37:03.0000000+00:00</time></trkpt><trkpt lat="39.50277382" lon="-0.34605299"><ele>1.2</ele><time>2022-11-09T16:37:04.0000000+00:00</time></trkpt><trkpt lat="39.50279435" lon="-0.34606858"><ele>1.2</ele><time>2022-11-09T16:37:05.0000000+00:00</time></trkpt><trkpt lat="39.502806" lon="-0.34607998"><ele>1.0</ele><time>2022-11-09T16:37:06.0000000+00:00</time></trkpt><trkpt lat="39.50280785" lon="-0.34609281"><ele>1.0</ele><time>2022-11-09T16:37:07.0000000+00:00</time></trkpt><trkpt lat="39.50282302" lon="-0.34610647"><ele>0.8</ele><time>2022-11-09T16:37:08.0000000+00:00</time></trkpt><trkpt lat="39.50284045" lon="-0.34612197"><ele>0.8</ele><time>2022-11-09T16:37:09.0000000+00:00</time></trkpt><trkpt lat="39.50286585" lon="-0.34613497"><ele>0.8</ele><time>2022-11-09T16:37:10.0000000+00:00</time></trkpt><trkpt lat="39.50289468" lon="-0.34613312"><ele>0.8</ele><time>2022-11-09T16:37:11.0000000+00:00</time></trkpt><trkpt lat="39.50291446" lon="-0.3461177"><ele>0.8</ele><time>2022-11-09T16:37:12.0000000+00:00</time></trkpt><trkpt lat="39.50293668" lon="-0.34609649"><ele>0.8</ele><time>2022-11-09T16:37:13.0000000+00:00</time></trkpt><trkpt lat="39.50296828" lon="-0.346069"><ele>0.8</ele><time>2022-11-09T16:37:14.0000000+00:00</time></trkpt><trkpt lat="39.5030008" lon="-0.34604159"><ele>1.0</ele><time>2022-11-09T16:37:15.0000000+00:00</time></trkpt><trkpt lat="39.50303726" lon="-0.3460115"><ele>1.0</ele><time>2022-11-09T16:37:16.0000000+00:00</time></trkpt><trkpt lat="39.50308126" lon="-0.34598233"><ele>1.0</ele><time>2022-11-09T16:37:17.0000000+00:00</time></trkpt><trkpt lat="39.50311957" lon="-0.34595677"><ele>1.0</ele><time>2022-11-09T16:37:18.0000000+00:00</time></trkpt><trkpt lat="39.50316081" lon="-0.3459359"><ele>1.0</ele><time>2022-11-09T16:37:19.0000000+00:00</time></trkpt><trkpt lat="39.50320406" lon="-0.34592274"><ele>1.0</ele><time>2022-11-09T16:37:20.0000000+00:00</time></trkpt><trkpt lat="39.50324538" lon="-0.34591561"><ele>1.0</ele><time>2022-11-09T16:37:21.0000000+00:00</time></trkpt><trkpt lat="39.50328327" lon="-0.34591461"><ele>1.0</ele><time>2022-11-09T16:37:22.0000000+00:00</time></trkpt><trkpt lat="39.50332928" lon="-0.34591519"><ele>1.0</ele><time>2022-11-09T16:37:23.0000000+00:00</time></trkpt><trkpt lat="39.50337815" lon="-0.34591897"><ele>1.0</ele><time>2022-11-09T16:37:24.0000000+00:00</time></trkpt><trkpt lat="39.50343121" lon="-0.34592156"><ele>1.0</ele><time>2022-11-09T16:37:25.0000000+00:00</time></trkpt><trkpt lat="39.50348469" lon="-0.34592249"><ele>1.2</ele><time>2022-11-09T16:37:26.0000000+00:00</time></trkpt><trkpt lat="39.50353808" lon="-0.34592785"><ele>1.2</ele><time>2022-11-09T16:37:27.0000000+00:00</time></trkpt><trkpt lat="39.50359315" lon="-0.34593682"><ele>1.2</ele><time>2022-11-09T16:37:28.0000000+00:00</time></trkpt><trkpt lat="39.50364872" lon="-0.34594679"><ele>1.4</ele><time>2022-11-09T16:37:29.0000000+00:00</time></trkpt><trkpt lat="39.50370588" lon="-0.34594939"><ele>1.4</ele><time>2022-11-09T16:37:30.0000000+00:00</time></trkpt><trkpt lat="39.50376229" lon="-0.34594948"><ele>1.4</ele><time>2022-11-09T16:37:31.0000000+00:00</time></trkpt><trkpt lat="39.50381829" lon="-0.34595358"><ele>1.6</ele><time>2022-11-09T16:37:32.0000000+00:00</time></trkpt><trkpt lat="39.50387579" lon="-0.34596004"><ele>1.8</ele><time>2022-11-09T16:37:33.0000000+00:00</time></trkpt><trkpt lat="39.50393345" lon="-0.34596532"><ele>1.8</ele><time>2022-11-09T16:37:34.0000000+00:00</time></trkpt><trkpt lat="39.50399254" lon="-0.34597169"><ele>1.8</ele><time>2022-11-09T16:37:35.0000000+00:00</time></trkpt><trkpt lat="39.50405424" lon="-0.34597864"><ele>1.8</ele><time>2022-11-09T16:37:36.0000000+00:00</time></trkpt><trkpt lat="39.50411534" lon="-0.34598745"><ele>1.8</ele><time>2022-11-09T16:37:37.0000000+00:00</time></trkpt><trkpt lat="39.50417762" lon="-0.34599449"><ele>1.8</ele><time>2022-11-09T16:37:38.0000000+00:00</time></trkpt><trkpt lat="39.50423981" lon="-0.34599977"><ele>1.8</ele><time>2022-11-09T16:37:39.0000000+00:00</time></trkpt><trkpt lat="39.50430519" lon="-0.3460063"><ele>1.8</ele><time>2022-11-09T16:37:40.0000000+00:00</time></trkpt><trkpt lat="39.5043678" lon="-0.34601427"><ele>1.8</ele><time>2022-11-09T16:37:41.0000000+00:00</time></trkpt><trkpt lat="39.50442891" lon="-0.34602759"><ele>1.8</ele><time>2022-11-09T16:37:42.0000000+00:00</time></trkpt><trkpt lat="39.50449244" lon="-0.34604034"><ele>1.8</ele><time>2022-11-09T16:37:43.0000000+00:00</time></trkpt><trkpt lat="39.50455539" lon="-0.34604914"><ele>1.8</ele><time>2022-11-09T16:37:44.0000000+00:00</time></trkpt><trkpt lat="39.50461783" lon="-0.34605467"><ele>1.8</ele><time>2022-11-09T16:37:45.0000000+00:00</time></trkpt><trkpt lat="39.50467944" lon="-0.34605735"><ele>1.8</ele><time>2022-11-09T16:37:46.0000000+00:00</time></trkpt><trkpt lat="39.50473895" lon="-0.34605651"><ele>2.0</ele><time>2022-11-09T16:37:47.0000000+00:00</time></trkpt><trkpt lat="39.50480031" lon="-0.34605417"><ele>2.0</ele><time>2022-11-09T16:37:48.0000000+00:00</time></trkpt><trkpt lat="39.50485949" lon="-0.34606104"><ele>2.0</ele><time>2022-11-09T16:37:49.0000000+00:00</time></trkpt><trkpt lat="39.50491279" lon="-0.34606632"><ele>2.2</ele><time>2022-11-09T16:37:50.0000000+00:00</time></trkpt><trkpt lat="39.50495311" lon="-0.34607261"><ele>2.2</ele><time>2022-11-09T16:37:51.0000000+00:00</time></trkpt><trkpt lat="39.50498513" lon="-0.3460747"><ele>2.2</ele><time>2022-11-09T16:37:52.0000000+00:00</time></trkpt><trkpt lat="39.50500818" lon="-0.34607654"><ele>2.2</ele><time>2022-11-09T16:37:53.0000000+00:00</time></trkpt><trkpt lat="39.50503048" lon="-0.34608115"><ele>2.0</ele><time>2022-11-09T16:37:54.0000000+00:00</time></trkpt><trkpt lat="39.50505227" lon="-0.34608434"><ele>2.0</ele><time>2022-11-09T16:37:55.0000000+00:00</time></trkpt><trkpt lat="39.50507674" lon="-0.34608903"><ele>2.0</ele><time>2022-11-09T16:37:56.0000000+00:00</time></trkpt><trkpt lat="39.50509854" lon="-0.34609549"><ele>2.0</ele><time>2022-11-09T16:37:57.0000000+00:00</time></trkpt><trkpt lat="39.50512025" lon="-0.34610211"><ele>2.0</ele><time>2022-11-09T16:37:58.0000000+00:00</time></trkpt><trkpt lat="39.50514481" lon="-0.34610949"><ele>2.0</ele><time>2022-11-09T16:37:59.0000000+00:00</time></trkpt><trkpt lat="39.50516895" lon="-0.34611502"><ele>2.0</ele><time>2022-11-09T16:38:00.0000000+00:00</time></trkpt><trkpt lat="39.50519283" lon="-0.34611845"><ele>2.2</ele><time>2022-11-09T16:38:01.0000000+00:00</time></trkpt><trkpt lat="39.50521739" lon="-0.34612256"><ele>2.2</ele><time>2022-11-09T16:38:02.0000000+00:00</time></trkpt><trkpt lat="39.50524539" lon="-0.34612675"><ele>2.4</ele><time>2022-11-09T16:38:03.0000000+00:00</time></trkpt><trkpt lat="39.50526961" lon="-0.34613254"><ele>2.4</ele><time>2022-11-09T16:38:04.0000000+00:00</time></trkpt><trkpt lat="39.50530163" lon="-0.34613815"><ele>2.4</ele><time>2022-11-09T16:38:05.0000000+00:00</time></trkpt><trkpt lat="39.50533927" lon="-0.34614679"><ele>2.4</ele><time>2022-11-09T16:38:06.0000000+00:00</time></trkpt><trkpt lat="39.50538009" lon="-0.34615433"><ele>2.4</ele><time>2022-11-09T16:38:07.0000000+00:00</time></trkpt><trkpt lat="39.50542183" lon="-0.34615978"><ele>2.2</ele><time>2022-11-09T16:38:08.0000000+00:00</time></trkpt><trkpt lat="39.50546365" lon="-0.34616673"><ele>2.4</ele><time>2022-11-09T16:38:09.0000000+00:00</time></trkpt><trkpt lat="39.50550766" lon="-0.34617394"><ele>2.4</ele><time>2022-11-09T16:38:10.0000000+00:00</time></trkpt><trkpt lat="39.50555175" lon="-0.34617981"><ele>2.4</ele><time>2022-11-09T16:38:11.0000000+00:00</time></trkpt><trkpt lat="39.50559416" lon="-0.34618593"><ele>2.4</ele><time>2022-11-09T16:38:12.0000000+00:00</time></trkpt><trkpt lat="39.50563749" lon="-0.34619481"><ele>2.4</ele><time>2022-11-09T16:38:13.0000000+00:00</time></trkpt><trkpt lat="39.50568016" lon="-0.34620328"><ele>2.4</ele><time>2022-11-09T16:38:14.0000000+00:00</time></trkpt><trkpt lat="39.50572056" lon="-0.34620638"><ele>2.4</ele><time>2022-11-09T16:38:15.0000000+00:00</time></trkpt><trkpt lat="39.5057654" lon="-0.34621158"><ele>2.2</ele><time>2022-11-09T16:38:16.0000000+00:00</time></trkpt><trkpt lat="39.50581427" lon="-0.34621459"><ele>2.2</ele><time>2022-11-09T16:38:17.0000000+00:00</time></trkpt><trkpt lat="39.50586565" lon="-0.34622323"><ele>2.0</ele><time>2022-11-09T16:38:18.0000000+00:00</time></trkpt><trkpt lat="39.50591326" lon="-0.34623354"><ele>1.4</ele><time>2022-11-09T16:38:19.0000000+00:00</time></trkpt><trkpt lat="39.50596707" lon="-0.346241"><ele>1.2</ele><time>2022-11-09T16:38:20.0000000+00:00</time></trkpt><trkpt lat="39.50602323" lon="-0.34624435"><ele>1.0</ele><time>2022-11-09T16:38:21.0000000+00:00</time></trkpt><trkpt lat="39.50608014" lon="-0.34625106"><ele>1.0</ele><time>2022-11-09T16:38:22.0000000+00:00</time></trkpt><trkpt lat="39.50614024" lon="-0.34626103"><ele>0.8</ele><time>2022-11-09T16:38:23.0000000+00:00</time></trkpt><trkpt lat="39.50620201" lon="-0.34626966"><ele>0.8</ele><time>2022-11-09T16:38:24.0000000+00:00</time></trkpt><trkpt lat="39.50626446" lon="-0.34627721"><ele>0.8</ele><time>2022-11-09T16:38:25.0000000+00:00</time></trkpt><trkpt lat="39.50632691" lon="-0.34628148"><ele>1.0</ele><time>2022-11-09T16:38:26.0000000+00:00</time></trkpt><trkpt lat="39.50638717" lon="-0.34628509"><ele>1.4</ele><time>2022-11-09T16:38:27.0000000+00:00</time></trkpt><trkpt lat="39.50644668" lon="-0.34628886"><ele>1.6</ele><time>2022-11-09T16:38:28.0000000+00:00</time></trkpt><trkpt lat="39.50650913" lon="-0.34629674"><ele>1.6</ele><time>2022-11-09T16:38:29.0000000+00:00</time></trkpt><trkpt lat="39.50657233" lon="-0.34630763"><ele>1.8</ele><time>2022-11-09T16:38:30.0000000+00:00</time></trkpt><trkpt lat="39.50663142" lon="-0.3463166"><ele>1.8</ele><time>2022-11-09T16:38:31.0000000+00:00</time></trkpt><trkpt lat="39.50668875" lon="-0.34632674"><ele>1.8</ele><time>2022-11-09T16:38:32.0000000+00:00</time></trkpt><trkpt lat="39.50675136" lon="-0.34633814"><ele>1.8</ele><time>2022-11-09T16:38:33.0000000+00:00</time></trkpt><trkpt lat="39.50681876" lon="-0.34634871"><ele>1.6</ele><time>2022-11-09T16:38:34.0000000+00:00</time></trkpt><trkpt lat="39.5068838" lon="-0.34635717"><ele>1.4</ele><time>2022-11-09T16:38:35.0000000+00:00</time></trkpt><trkpt lat="39.50694641" lon="-0.34636555"><ele>1.2</ele><time>2022-11-09T16:38:36.0000000+00:00</time></trkpt><trkpt lat="39.50700944" lon="-0.34637678"><ele>1.2</ele><time>2022-11-09T16:38:37.0000000+00:00</time></trkpt><trkpt lat="39.50706686" lon="-0.34638735"><ele>1.2</ele><time>2022-11-09T16:38:38.0000000+00:00</time></trkpt><trkpt lat="39.50712754" lon="-0.34639699"><ele>1.2</ele><time>2022-11-09T16:38:39.0000000+00:00</time></trkpt><trkpt lat="39.50719183" lon="-0.3464031"><ele>1.2</ele><time>2022-11-09T16:38:40.0000000+00:00</time></trkpt><trkpt lat="39.50725528" lon="-0.34641149"><ele>1.2</ele><time>2022-11-09T16:38:41.0000000+00:00</time></trkpt><trkpt lat="39.50731706" lon="-0.34642263"><ele>1.4</ele><time>2022-11-09T16:38:42.0000000+00:00</time></trkpt><trkpt lat="39.50737875" lon="-0.34643311"><ele>1.4</ele><time>2022-11-09T16:38:43.0000000+00:00</time></trkpt><trkpt lat="39.5074422" lon="-0.34644292"><ele>1.4</ele><time>2022-11-09T16:38:44.0000000+00:00</time></trkpt><trkpt lat="39.50750138" lon="-0.34644904"><ele>1.4</ele><time>2022-11-09T16:38:45.0000000+00:00</time></trkpt><trkpt lat="39.50756039" lon="-0.34645365"><ele>1.4</ele><time>2022-11-09T16:38:46.0000000+00:00</time></trkpt><trkpt lat="39.50762107" lon="-0.34645566"><ele>1.4</ele><time>2022-11-09T16:38:47.0000000+00:00</time></trkpt><trkpt lat="39.50768259" lon="-0.34645926"><ele>1.4</ele><time>2022-11-09T16:38:48.0000000+00:00</time></trkpt><trkpt lat="39.50774303" lon="-0.34646622"><ele>1.4</ele><time>2022-11-09T16:38:49.0000000+00:00</time></trkpt><trkpt lat="39.50780489" lon="-0.34647293"><ele>1.4</ele><time>2022-11-09T16:38:50.0000000+00:00</time></trkpt><trkpt lat="39.50787412" lon="-0.34648022"><ele>1.6</ele><time>2022-11-09T16:38:51.0000000+00:00</time></trkpt><trkpt lat="39.50794109" lon="-0.34648793"><ele>1.8</ele><time>2022-11-09T16:38:52.0000000+00:00</time></trkpt><trkpt lat="39.50800739" lon="-0.34649547"><ele>1.8</ele><time>2022-11-09T16:38:53.0000000+00:00</time></trkpt><trkpt lat="39.5080711" lon="-0.3465052"><ele>2.0</ele><time>2022-11-09T16:38:54.0000000+00:00</time></trkpt><trkpt lat="39.50813522" lon="-0.34651064"><ele>2.0</ele><time>2022-11-09T16:38:55.0000000+00:00</time></trkpt><trkpt lat="39.5081949" lon="-0.34651944"><ele>2.0</ele><time>2022-11-09T16:38:56.0000000+00:00</time></trkpt><trkpt lat="39.50825256" lon="-0.34653042"><ele>2.0</ele><time>2022-11-09T16:38:57.0000000+00:00</time></trkpt><trkpt lat="39.50831417" lon="-0.34653948"><ele>1.8</ele><time>2022-11-09T16:38:58.0000000+00:00</time></trkpt><trkpt lat="39.50837703" lon="-0.34654786"><ele>1.6</ele><time>2022-11-09T16:38:59.0000000+00:00</time></trkpt><trkpt lat="39.50844158" lon="-0.34655465"><ele>1.4</ele><time>2022-11-09T16:39:00.0000000+00:00</time></trkpt><trkpt lat="39.5085041" lon="-0.34656127"><ele>1.4</ele><time>2022-11-09T16:39:01.0000000+00:00</time></trkpt><trkpt lat="39.50856714" lon="-0.34656756"><ele>1.2</ele><time>2022-11-09T16:39:02.0000000+00:00</time></trkpt><trkpt lat="39.50862899" lon="-0.34657116"><ele>1.2</ele><time>2022-11-09T16:39:03.0000000+00:00</time></trkpt><trkpt lat="39.50868909" lon="-0.34658005"><ele>1.2</ele><time>2022-11-09T16:39:04.0000000+00:00</time></trkpt><trkpt lat="39.50875036" lon="-0.3465891"><ele>1.4</ele><time>2022-11-09T16:39:05.0000000+00:00</time></trkpt><trkpt lat="39.50881147" lon="-0.34659958"><ele>1.6</ele><time>2022-11-09T16:39:06.0000000+00:00</time></trkpt><trkpt lat="39.50887408" lon="-0.34660896"><ele>1.6</ele><time>2022-11-09T16:39:07.0000000+00:00</time></trkpt><trkpt lat="39.50893158" lon="-0.34661181"><ele>1.6</ele><time>2022-11-09T16:39:08.0000000+00:00</time></trkpt><trkpt lat="39.50898958" lon="-0.34661902"><ele>1.8</ele><time>2022-11-09T16:39:09.0000000+00:00</time></trkpt><trkpt lat="39.50904918" lon="-0.34662732"><ele>1.8</ele><time>2022-11-09T16:39:10.0000000+00:00</time></trkpt><trkpt lat="39.50911003" lon="-0.34663612"><ele>2.0</ele><time>2022-11-09T16:39:11.0000000+00:00</time></trkpt><trkpt lat="39.50917063" lon="-0.34664559"><ele>2.0</ele><time>2022-11-09T16:39:12.0000000+00:00</time></trkpt><trkpt lat="39.50922947" lon="-0.34665548"><ele>2.0</ele><time>2022-11-09T16:39:13.0000000+00:00</time></trkpt><trkpt lat="39.50928664" lon="-0.34666395"><ele>2.0</ele><time>2022-11-09T16:39:14.0000000+00:00</time></trkpt><trkpt lat="39.50934246" lon="-0.34667208"><ele>2.0</ele><time>2022-11-09T16:39:15.0000000+00:00</time></trkpt><trkpt lat="39.50939921" lon="-0.34668113"><ele>2.0</ele><time>2022-11-09T16:39:16.0000000+00:00</time></trkpt><trkpt lat="39.50945545" lon="-0.34668666"><ele>2.0</ele><time>2022-11-09T16:39:17.0000000+00:00</time></trkpt><trkpt lat="39.50951597" lon="-0.34669169"><ele>2.0</ele><time>2022-11-09T16:39:18.0000000+00:00</time></trkpt><trkpt lat="39.50957866" lon="-0.34669982"><ele>2.0</ele><time>2022-11-09T16:39:19.0000000+00:00</time></trkpt><trkpt lat="39.50964069" lon="-0.34670837"><ele>2.0</ele><time>2022-11-09T16:39:20.0000000+00:00</time></trkpt><trkpt lat="39.50970297" lon="-0.34671516"><ele>2.0</ele><time>2022-11-09T16:39:21.0000000+00:00</time></trkpt><trkpt lat="39.50976525" lon="-0.34672472"><ele>2.0</ele><time>2022-11-09T16:39:22.0000000+00:00</time></trkpt><trkpt lat="39.50982551" lon="-0.3467295"><ele>1.8</ele><time>2022-11-09T16:39:23.0000000+00:00</time></trkpt><trkpt lat="39.50988553" lon="-0.34673863"><ele>1.6</ele><time>2022-11-09T16:39:24.0000000+00:00</time></trkpt><trkpt lat="39.50994713" lon="-0.34674827"><ele>1.4</ele><time>2022-11-09T16:39:25.0000000+00:00</time></trkpt><trkpt lat="39.51000891" lon="-0.34675355"><ele>1.4</ele><time>2022-11-09T16:39:26.0000000+00:00</time></trkpt><trkpt lat="39.51007051" lon="-0.34675665"><ele>1.4</ele><time>2022-11-09T16:39:27.0000000+00:00</time></trkpt><trkpt lat="39.51012994" lon="-0.34676286"><ele>1.4</ele><time>2022-11-09T16:39:28.0000000+00:00</time></trkpt><trkpt lat="39.51019473" lon="-0.34676914"><ele>1.6</ele><time>2022-11-09T16:39:29.0000000+00:00</time></trkpt><trkpt lat="39.51026011" lon="-0.34678272"><ele>1.6</ele><time>2022-11-09T16:39:30.0000000+00:00</time></trkpt><trkpt lat="39.51032658" lon="-0.34679588"><ele>1.6</ele><time>2022-11-09T16:39:31.0000000+00:00</time></trkpt><trkpt lat="39.5103907" lon="-0.34680602"><ele>1.6</ele><time>2022-11-09T16:39:32.0000000+00:00</time></trkpt><trkpt lat="39.5104513" lon="-0.34681608"><ele>1.4</ele><time>2022-11-09T16:39:33.0000000+00:00</time></trkpt><trkpt lat="39.51050704" lon="-0.34682497"><ele>1.4</ele><time>2022-11-09T16:39:34.0000000+00:00</time></trkpt><trkpt lat="39.51056228" lon="-0.34683284"><ele>1.4</ele><time>2022-11-09T16:39:35.0000000+00:00</time></trkpt><trkpt lat="39.51061852" lon="-0.34683812"><ele>1.4</ele><time>2022-11-09T16:39:36.0000000+00:00</time></trkpt><trkpt lat="39.51067099" lon="-0.34684869"><ele>1.4</ele><time>2022-11-09T16:39:37.0000000+00:00</time></trkpt><trkpt lat="39.5107212" lon="-0.34685858"><ele>1.4</ele><time>2022-11-09T16:39:38.0000000+00:00</time></trkpt><trkpt lat="39.5107725" lon="-0.34686805"><ele>1.6</ele><time>2022-11-09T16:39:39.0000000+00:00</time></trkpt><trkpt lat="39.51082371" lon="-0.34687777"><ele>1.6</ele><time>2022-11-09T16:39:40.0000000+00:00</time></trkpt><trkpt lat="39.51087509" lon="-0.34688624"><ele>1.6</ele><time>2022-11-09T16:39:41.0000000+00:00</time></trkpt><trkpt lat="39.51092999" lon="-0.34689487"><ele>1.6</ele><time>2022-11-09T16:39:42.0000000+00:00</time></trkpt><trkpt lat="39.51098414" lon="-0.3469025"><ele>1.6</ele><time>2022-11-09T16:39:43.0000000+00:00</time></trkpt><trkpt lat="39.51104064" lon="-0.34690979"><ele>1.4</ele><time>2022-11-09T16:39:44.0000000+00:00</time></trkpt><trkpt lat="39.51109747" lon="-0.34691633"><ele>1.4</ele><time>2022-11-09T16:39:45.0000000+00:00</time></trkpt><trkpt lat="39.51115287" lon="-0.34692094"><ele>1.4</ele><time>2022-11-09T16:39:46.0000000+00:00</time></trkpt><trkpt lat="39.5112154" lon="-0.34692706"><ele>1.4</ele><time>2022-11-09T16:39:47.0000000+00:00</time></trkpt><trkpt lat="39.51127307" lon="-0.34693209"><ele>1.2</ele><time>2022-11-09T16:39:48.0000000+00:00</time></trkpt><trkpt lat="39.51133006" lon="-0.34694022"><ele>1.2</ele><time>2022-11-09T16:39:49.0000000+00:00</time></trkpt><trkpt lat="39.51138597" lon="-0.34694424"><ele>1.2</ele><time>2022-11-09T16:39:50.0000000+00:00</time></trkpt><trkpt lat="39.5114423" lon="-0.34694717"><ele>1.2</ele><time>2022-11-09T16:39:51.0000000+00:00</time></trkpt><trkpt lat="39.51150198" lon="-0.3469522"><ele>1.4</ele><time>2022-11-09T16:39:52.0000000+00:00</time></trkpt><trkpt lat="39.51155755" lon="-0.34695715"><ele>1.4</ele><time>2022-11-09T16:39:53.0000000+00:00</time></trkpt><trkpt lat="39.51161371" lon="-0.34696025"><ele>1.6</ele><time>2022-11-09T16:39:54.0000000+00:00</time></trkpt><trkpt lat="39.51167255" lon="-0.34696645"><ele>1.8</ele><time>2022-11-09T16:39:55.0000000+00:00</time></trkpt><trkpt lat="39.51173147" lon="-0.34697089"><ele>1.8</ele><time>2022-11-09T16:39:56.0000000+00:00</time></trkpt><trkpt lat="39.51178964" lon="-0.34697852"><ele>2.0</ele><time>2022-11-09T16:39:57.0000000+00:00</time></trkpt><trkpt lat="39.51184915" lon="-0.34698975"><ele>2.2</ele><time>2022-11-09T16:39:58.0000000+00:00</time></trkpt><trkpt lat="39.51190489" lon="-0.34699939"><ele>2.0</ele><time>2022-11-09T16:39:59.0000000+00:00</time></trkpt><trkpt lat="39.51195225" lon="-0.34700828"><ele>2.0</ele><time>2022-11-09T16:40:00.0000000+00:00</time></trkpt><trkpt lat="39.51198989" lon="-0.34701817"><ele>2.0</ele><time>2022-11-09T16:40:01.0000000+00:00</time></trkpt><trkpt lat="39.5120245" lon="-0.34702999"><ele>1.8</ele><time>2022-11-09T16:40:02.0000000+00:00</time></trkpt><trkpt lat="39.51205946" lon="-0.34704407"><ele>1.6</ele><time>2022-11-09T16:40:03.0000000+00:00</time></trkpt><trkpt lat="39.51209407" lon="-0.34705815"><ele>1.4</ele><time>2022-11-09T16:40:04.0000000+00:00</time></trkpt><trkpt lat="39.51212869" lon="-0.34706838"><ele>1.2</ele><time>2022-11-09T16:40:05.0000000+00:00</time></trkpt><trkpt lat="39.51216498" lon="-0.34707776"><ele>1.2</ele><time>2022-11-09T16:40:06.0000000+00:00</time></trkpt><trkpt lat="39.51220513" lon="-0.3470843"><ele>1.6</ele><time>2022-11-09T16:40:07.0000000+00:00</time></trkpt><trkpt lat="39.51224662" lon="-0.34708547"><ele>1.6</ele><time>2022-11-09T16:40:08.0000000+00:00</time></trkpt><trkpt lat="39.51228954" lon="-0.3470869"><ele>1.8</ele><time>2022-11-09T16:40:09.0000000+00:00</time></trkpt><trkpt lat="39.51233245" lon="-0.34709025"><ele>1.8</ele><time>2022-11-09T16:40:10.0000000+00:00</time></trkpt><trkpt lat="39.51237604" lon="-0.3470957"><ele>1.8</ele><time>2022-11-09T16:40:11.0000000+00:00</time></trkpt><trkpt lat="39.51242382" lon="-0.34710442"><ele>1.8</ele><time>2022-11-09T16:40:12.0000000+00:00</time></trkpt><trkpt lat="39.51247436" lon="-0.34711154"><ele>1.8</ele><time>2022-11-09T16:40:13.0000000+00:00</time></trkpt><trkpt lat="39.5125244" lon="-0.34711691"><ele>1.6</ele><time>2022-11-09T16:40:14.0000000+00:00</time></trkpt><trkpt lat="39.51257771" lon="-0.34712428"><ele>1.6</ele><time>2022-11-09T16:40:15.0000000+00:00</time></trkpt><trkpt lat="39.51263219" lon="-0.34713375"><ele>1.6</ele><time>2022-11-09T16:40:16.0000000+00:00</time></trkpt><trkpt lat="39.51268743" lon="-0.34714331"><ele>1.4</ele><time>2022-11-09T16:40:17.0000000+00:00</time></trkpt><trkpt lat="39.51274401" lon="-0.34715119"><ele>1.4</ele><time>2022-11-09T16:40:18.0000000+00:00</time></trkpt><trkpt lat="39.5127984" lon="-0.34715764"><ele>1.4</ele><time>2022-11-09T16:40:19.0000000+00:00</time></trkpt><trkpt lat="39.51285205" lon="-0.34716435"><ele>1.4</ele><time>2022-11-09T16:40:20.0000000+00:00</time></trkpt><trkpt lat="39.51290737" lon="-0.34716871"><ele>1.4</ele><time>2022-11-09T16:40:21.0000000+00:00</time></trkpt><trkpt lat="39.51296378" lon="-0.34717281"><ele>1.6</ele><time>2022-11-09T16:40:22.0000000+00:00</time></trkpt><trkpt lat="39.51302136" lon="-0.34717826"><ele>1.6</ele><time>2022-11-09T16:40:23.0000000+00:00</time></trkpt><trkpt lat="39.51307819" lon="-0.34718623"><ele>1.8</ele><time>2022-11-09T16:40:24.0000000+00:00</time></trkpt><trkpt lat="39.51313452" lon="-0.34719327"><ele>1.8</ele><time>2022-11-09T16:40:25.0000000+00:00</time></trkpt><trkpt lat="39.51318967" lon="-0.34720156"><ele>2.0</ele><time>2022-11-09T16:40:26.0000000+00:00</time></trkpt><trkpt lat="39.51324868" lon="-0.34720894"><ele>2.0</ele><time>2022-11-09T16:40:27.0000000+00:00</time></trkpt><trkpt lat="39.5133071" lon="-0.34721749"><ele>2.0</ele><time>2022-11-09T16:40:28.0000000+00:00</time></trkpt><trkpt lat="39.51336578" lon="-0.34722621"><ele>2.0</ele><time>2022-11-09T16:40:29.0000000+00:00</time></trkpt><trkpt lat="39.51342571" lon="-0.34723518"><ele>2.0</ele><time>2022-11-09T16:40:30.0000000+00:00</time></trkpt><trkpt lat="39.5134853" lon="-0.34724171"><ele>2.0</ele><time>2022-11-09T16:40:31.0000000+00:00</time></trkpt><trkpt lat="39.51354532" lon="-0.34724733"><ele>2.0</ele><time>2022-11-09T16:40:32.0000000+00:00</time></trkpt><trkpt lat="39.51360164" lon="-0.34725546"><ele>2.0</ele><time>2022-11-09T16:40:33.0000000+00:00</time></trkpt><trkpt lat="39.51365897" lon="-0.34726166"><ele>2.0</ele><time>2022-11-09T16:40:34.0000000+00:00</time></trkpt><trkpt lat="39.5137153" lon="-0.34726946"><ele>2.0</ele><time>2022-11-09T16:40:35.0000000+00:00</time></trkpt><trkpt lat="39.51377079" lon="-0.3472775"><ele>2.0</ele><time>2022-11-09T16:40:36.0000000+00:00</time></trkpt><trkpt lat="39.51383114" lon="-0.34728765"><ele>2.0</ele><time>2022-11-09T16:40:37.0000000+00:00</time></trkpt><trkpt lat="39.51389325" lon="-0.34729913"><ele>2.0</ele><time>2022-11-09T16:40:38.0000000+00:00</time></trkpt><trkpt lat="39.51395159" lon="-0.34730894"><ele>2.0</ele><time>2022-11-09T16:40:39.0000000+00:00</time></trkpt><trkpt lat="39.51401135" lon="-0.34731623"><ele>2.0</ele><time>2022-11-09T16:40:40.0000000+00:00</time></trkpt><trkpt lat="39.5140665" lon="-0.34732562"><ele>2.0</ele><time>2022-11-09T16:40:41.0000000+00:00</time></trkpt><trkpt lat="39.51412761" lon="-0.34733827"><ele>2.0</ele><time>2022-11-09T16:40:42.0000000+00:00</time></trkpt><trkpt lat="39.5141872" lon="-0.3473516"><ele>2.0</ele><time>2022-11-09T16:40:43.0000000+00:00</time></trkpt><trkpt lat="39.51424621" lon="-0.34736107"><ele>2.0</ele><time>2022-11-09T16:40:44.0000000+00:00</time></trkpt><trkpt lat="39.51430438" lon="-0.34736644"><ele>2.0</ele><time>2022-11-09T16:40:45.0000000+00:00</time></trkpt><trkpt lat="39.51436389" lon="-0.34737079"><ele>2.0</ele><time>2022-11-09T16:40:46.0000000+00:00</time></trkpt><trkpt lat="39.51442491" lon="-0.34737499"><ele>1.8</ele><time>2022-11-09T16:40:47.0000000+00:00</time></trkpt><trkpt lat="39.51448568" lon="-0.34738052"><ele>1.8</ele><time>2022-11-09T16:40:48.0000000+00:00</time></trkpt><trkpt lat="39.51454737" lon="-0.34738571"><ele>1.8</ele><time>2022-11-09T16:40:49.0000000+00:00</time></trkpt><trkpt lat="39.51460714" lon="-0.3473894"><ele>1.8</ele><time>2022-11-09T16:40:50.0000000+00:00</time></trkpt><trkpt lat="39.51466648" lon="-0.34739376"><ele>2.0</ele><time>2022-11-09T16:40:51.0000000+00:00</time></trkpt><trkpt lat="39.51472364" lon="-0.34740156"><ele>2.0</ele><time>2022-11-09T16:40:52.0000000+00:00</time></trkpt><trkpt lat="39.5147793" lon="-0.34740876"><ele>2.2</ele><time>2022-11-09T16:40:53.0000000+00:00</time></trkpt><trkpt lat="39.51483663" lon="-0.34741673"><ele>2.2</ele><time>2022-11-09T16:40:54.0000000+00:00</time></trkpt><trkpt lat="39.51489581" lon="-0.34742578"><ele>1.8</ele><time>2022-11-09T16:40:55.0000000+00:00</time></trkpt><trkpt lat="39.51495029" lon="-0.34743701"><ele>1.6</ele><time>2022-11-09T16:40:56.0000000+00:00</time></trkpt><trkpt lat="39.51500695" lon="-0.34744774"><ele>1.4</ele><time>2022-11-09T16:40:57.0000000+00:00</time></trkpt><trkpt lat="39.51506135" lon="-0.3474557"><ele>1.4</ele><time>2022-11-09T16:40:58.0000000+00:00</time></trkpt><trkpt lat="39.51511533" lon="-0.34746509"><ele>1.4</ele><time>2022-11-09T16:40:59.0000000+00:00</time></trkpt><trkpt lat="39.51517006" lon="-0.3474728"><ele>1.4</ele><time>2022-11-09T16:41:00.0000000+00:00</time></trkpt><trkpt lat="39.51522463" lon="-0.34748026"><ele>1.4</ele><time>2022-11-09T16:41:01.0000000+00:00</time></trkpt><trkpt lat="39.51528012" lon="-0.34748705"><ele>1.4</ele><time>2022-11-09T16:41:02.0000000+00:00</time></trkpt><trkpt lat="39.51533544" lon="-0.347492"><ele>1.6</ele><time>2022-11-09T16:41:03.0000000+00:00</time></trkpt><trkpt lat="39.51539487" lon="-0.34750046"><ele>1.6</ele><time>2022-11-09T16:41:04.0000000+00:00</time></trkpt><trkpt lat="39.51545463" lon="-0.34750952"><ele>1.6</ele><time>2022-11-09T16:41:05.0000000+00:00</time></trkpt><trkpt lat="39.51550894" lon="-0.34751723"><ele>1.8</ele><time>2022-11-09T16:41:06.0000000+00:00</time></trkpt><trkpt lat="39.51556007" lon="-0.34752402"><ele>2.0</ele><time>2022-11-09T16:41:07.0000000+00:00</time></trkpt><trkpt lat="39.51561104" lon="-0.34753189"><ele>2.4</ele><time>2022-11-09T16:41:08.0000000+00:00</time></trkpt><trkpt lat="39.51566183" lon="-0.34754036"><ele>2.6</ele><time>2022-11-09T16:41:09.0000000+00:00</time></trkpt><trkpt lat="39.51571086" lon="-0.34754816"><ele>2.8</ele><time>2022-11-09T16:41:10.0000000+00:00</time></trkpt><trkpt lat="39.51576023" lon="-0.34755511"><ele>3.0</ele><time>2022-11-09T16:41:11.0000000+00:00</time></trkpt><trkpt lat="39.5158091" lon="-0.34756358"><ele>3.0</ele><time>2022-11-09T16:41:12.0000000+00:00</time></trkpt><trkpt lat="39.51585847" lon="-0.3475723"><ele>3.0</ele><time>2022-11-09T16:41:13.0000000+00:00</time></trkpt><trkpt lat="39.51590968" lon="-0.34757976"><ele>3.0</ele><time>2022-11-09T16:41:14.0000000+00:00</time></trkpt><trkpt lat="39.51596081" lon="-0.34758705"><ele>2.8</ele><time>2022-11-09T16:41:15.0000000+00:00</time></trkpt><trkpt lat="39.51601337" lon="-0.34759367"><ele>3.0</ele><time>2022-11-09T16:41:16.0000000+00:00</time></trkpt><trkpt lat="39.51606601" lon="-0.34760214"><ele>3.0</ele><time>2022-11-09T16:41:17.0000000+00:00</time></trkpt><trkpt lat="39.51612049" lon="-0.34760968"><ele>3.0</ele><time>2022-11-09T16:41:18.0000000+00:00</time></trkpt><trkpt lat="39.51617598" lon="-0.34761739"><ele>2.8</ele><time>2022-11-09T16:41:19.0000000+00:00</time></trkpt><trkpt lat="39.51623239" lon="-0.34762619"><ele>2.8</ele><time>2022-11-09T16:41:20.0000000+00:00</time></trkpt><trkpt lat="39.51628435" lon="-0.34763248"><ele>2.6</ele><time>2022-11-09T16:41:21.0000000+00:00</time></trkpt><trkpt lat="39.51633733" lon="-0.34763516"><ele>2.6</ele><time>2022-11-09T16:41:22.0000000+00:00</time></trkpt><trkpt lat="39.51639298" lon="-0.3476386"><ele>2.6</ele><time>2022-11-09T16:41:23.0000000+00:00</time></trkpt><trkpt lat="39.51644872" lon="-0.34764631"><ele>2.6</ele><time>2022-11-09T16:41:24.0000000+00:00</time></trkpt><trkpt lat="39.51650119" lon="-0.3476541"><ele>2.6</ele><time>2022-11-09T16:41:25.0000000+00:00</time></trkpt><trkpt lat="39.51655568" lon="-0.34766383"><ele>2.6</ele><time>2022-11-09T16:41:26.0000000+00:00</time></trkpt><trkpt lat="39.51661033" lon="-0.34767137"><ele>2.8</ele><time>2022-11-09T16:41:27.0000000+00:00</time></trkpt><trkpt lat="39.51666347" lon="-0.34767841"><ele>2.8</ele><time>2022-11-09T16:41:28.0000000+00:00</time></trkpt><trkpt lat="39.51671812" lon="-0.34768621"><ele>3.0</ele><time>2022-11-09T16:41:29.0000000+00:00</time></trkpt><trkpt lat="39.51677025" lon="-0.34769584"><ele>3.0</ele><time>2022-11-09T16:41:30.0000000+00:00</time></trkpt><trkpt lat="39.51682272" lon="-0.34770641"><ele>3.0</ele><time>2022-11-09T16:41:31.0000000+00:00</time></trkpt><trkpt lat="39.51687771" lon="-0.34771672"><ele>3.0</ele><time>2022-11-09T16:41:32.0000000+00:00</time></trkpt><trkpt lat="39.51692984" lon="-0.34772267"><ele>3.0</ele><time>2022-11-09T16:41:33.0000000+00:00</time></trkpt><trkpt lat="39.51698097" lon="-0.34772376"><ele>3.0</ele><time>2022-11-09T16:41:34.0000000+00:00</time></trkpt><trkpt lat="39.51703177" lon="-0.34772501"><ele>3.0</ele><time>2022-11-09T16:41:35.0000000+00:00</time></trkpt><trkpt lat="39.51708491" lon="-0.34772887"><ele>3.0</ele><time>2022-11-09T16:41:36.0000000+00:00</time></trkpt><trkpt lat="39.5171399" lon="-0.3477365"><ele>3.0</ele><time>2022-11-09T16:41:37.0000000+00:00</time></trkpt><trkpt lat="39.51719346" lon="-0.34774756"><ele>3.0</ele><time>2022-11-09T16:41:38.0000000+00:00</time></trkpt><trkpt lat="39.51724827" lon="-0.3477598"><ele>3.2</ele><time>2022-11-09T16:41:39.0000000+00:00</time></trkpt><trkpt lat="39.51729982" lon="-0.34776843"><ele>3.2</ele><time>2022-11-09T16:41:40.0000000+00:00</time></trkpt><trkpt lat="39.51735715" lon="-0.34777715"><ele>3.2</ele><time>2022-11-09T16:41:41.0000000+00:00</time></trkpt><trkpt lat="39.51741717" lon="-0.34778268"><ele>3.0</ele><time>2022-11-09T16:41:42.0000000+00:00</time></trkpt><trkpt lat="39.51747878" lon="-0.34778712"><ele>3.0</ele><time>2022-11-09T16:41:43.0000000+00:00</time></trkpt><trkpt lat="39.51753669" lon="-0.34779307"><ele>2.8</ele><time>2022-11-09T16:41:44.0000000+00:00</time></trkpt><trkpt lat="39.51759688" lon="-0.34780062"><ele>2.8</ele><time>2022-11-09T16:41:45.0000000+00:00</time></trkpt><trkpt lat="39.51765605" lon="-0.3478054"><ele>2.8</ele><time>2022-11-09T16:41:46.0000000+00:00</time></trkpt><trkpt lat="39.51771548" lon="-0.34780816"><ele>2.8</ele><time>2022-11-09T16:41:47.0000000+00:00</time></trkpt><trkpt lat="39.51777482" lon="-0.34781101"><ele>2.8</ele><time>2022-11-09T16:41:48.0000000+00:00</time></trkpt><trkpt lat="39.5178309" lon="-0.34781152"><ele>2.8</ele><time>2022-11-09T16:41:49.0000000+00:00</time></trkpt><trkpt lat="39.51788714" lon="-0.34781294"><ele>2.8</ele><time>2022-11-09T16:41:50.0000000+00:00</time></trkpt><trkpt lat="39.51794112" lon="-0.34781562"><ele>3.0</ele><time>2022-11-09T16:41:51.0000000+00:00</time></trkpt><trkpt lat="39.5180008" lon="-0.3478178"><ele>3.0</ele><time>2022-11-09T16:41:52.0000000+00:00</time></trkpt><trkpt lat="39.51806895" lon="-0.34782467"><ele>3.4</ele><time>2022-11-09T16:41:53.0000000+00:00</time></trkpt><trkpt lat="39.51813407" lon="-0.34782962"><ele>3.4</ele><time>2022-11-09T16:41:54.0000000+00:00</time></trkpt><trkpt lat="39.51819434" lon="-0.34783172"><ele>3.6</ele><time>2022-11-09T16:41:55.0000000+00:00</time></trkpt><trkpt lat="39.51825268" lon="-0.34783524"><ele>3.6</ele><time>2022-11-09T16:41:56.0000000+00:00</time></trkpt><trkpt lat="39.518309" lon="-0.34783565"><ele>3.6</ele><time>2022-11-09T16:41:57.0000000+00:00</time></trkpt><trkpt lat="39.51836617" lon="-0.34783532"><ele>3.8</ele><time>2022-11-09T16:41:58.0000000+00:00</time></trkpt><trkpt lat="39.51842199" lon="-0.34783389"><ele>3.8</ele><time>2022-11-09T16:41:59.0000000+00:00</time></trkpt><trkpt lat="39.51847463" lon="-0.3478297"><ele>3.8</ele><time>2022-11-09T16:42:00.0000000+00:00</time></trkpt><trkpt lat="39.51852601" lon="-0.34782333"><ele>4.0</ele><time>2022-11-09T16:42:01.0000000+00:00</time></trkpt><trkpt lat="39.51857773" lon="-0.34782182"><ele>4.0</ele><time>2022-11-09T16:42:02.0000000+00:00</time></trkpt><trkpt lat="39.51863045" lon="-0.34782342"><ele>4.0</ele><time>2022-11-09T16:42:03.0000000+00:00</time></trkpt><trkpt lat="39.51868342" lon="-0.34782509"><ele>4.0</ele><time>2022-11-09T16:42:04.0000000+00:00</time></trkpt><trkpt lat="39.51873665" lon="-0.34782719"><ele>3.8</ele><time>2022-11-09T16:42:05.0000000+00:00</time></trkpt><trkpt lat="39.51878929" lon="-0.34782769"><ele>3.6</ele><time>2022-11-09T16:42:06.0000000+00:00</time></trkpt><trkpt lat="39.51884285" lon="-0.34782476"><ele>3.4</ele><time>2022-11-09T16:42:07.0000000+00:00</time></trkpt><trkpt lat="39.51889867" lon="-0.34782082"><ele>3.4</ele><time>2022-11-09T16:42:08.0000000+00:00</time></trkpt><trkpt lat="39.51895642" lon="-0.34781973"><ele>3.4</ele><time>2022-11-09T16:42:09.0000000+00:00</time></trkpt><trkpt lat="39.51901032" lon="-0.34781981"><ele>3.4</ele><time>2022-11-09T16:42:10.0000000+00:00</time></trkpt><trkpt lat="39.5190596" lon="-0.34781973"><ele>3.4</ele><time>2022-11-09T16:42:11.0000000+00:00</time></trkpt><trkpt lat="39.51910939" lon="-0.34781621"><ele>3.8</ele><time>2022-11-09T16:42:12.0000000+00:00</time></trkpt><trkpt lat="39.51916136" lon="-0.34781755"><ele>3.8</ele><time>2022-11-09T16:42:13.0000000+00:00</time></trkpt><trkpt lat="39.51921215" lon="-0.34781487"><ele>4.0</ele><time>2022-11-09T16:42:14.0000000+00:00</time></trkpt><trkpt lat="39.51926169" lon="-0.34781093"><ele>4.0</ele><time>2022-11-09T16:42:15.0000000+00:00</time></trkpt><trkpt lat="39.51930595" lon="-0.34780808"><ele>4.0</ele><time>2022-11-09T16:42:16.0000000+00:00</time></trkpt><trkpt lat="39.51935138" lon="-0.34780464"><ele>4.4</ele><time>2022-11-09T16:42:17.0000000+00:00</time></trkpt><trkpt lat="39.51939664" lon="-0.34780037"><ele>4.2</ele><time>2022-11-09T16:42:18.0000000+00:00</time></trkpt><trkpt lat="39.51944609" lon="-0.34779886"><ele>3.8</ele><time>2022-11-09T16:42:19.0000000+00:00</time></trkpt><trkpt lat="39.5194989" lon="-0.34779886"><ele>3.6</ele><time>2022-11-09T16:42:20.0000000+00:00</time></trkpt><trkpt lat="39.51955229" lon="-0.34779567"><ele>3.8</ele><time>2022-11-09T16:42:21.0000000+00:00</time></trkpt><trkpt lat="39.51960661" lon="-0.34778997"><ele>4.0</ele><time>2022-11-09T16:42:22.0000000+00:00</time></trkpt><trkpt lat="39.51965958" lon="-0.34778042"><ele>4.2</ele><time>2022-11-09T16:42:23.0000000+00:00</time></trkpt><trkpt lat="39.51971079" lon="-0.34777279"><ele>4.2</ele><time>2022-11-09T16:42:24.0000000+00:00</time></trkpt><trkpt lat="39.51976184" lon="-0.347765"><ele>4.2</ele><time>2022-11-09T16:42:25.0000000+00:00</time></trkpt><trkpt lat="39.51981532" lon="-0.34775888"><ele>4.2</ele><time>2022-11-09T16:42:26.0000000+00:00</time></trkpt><trkpt lat="39.51987072" lon="-0.34775368"><ele>4.2</ele><time>2022-11-09T16:42:27.0000000+00:00</time></trkpt><trkpt lat="39.51992646" lon="-0.34774723"><ele>4.2</ele><time>2022-11-09T16:42:28.0000000+00:00</time></trkpt><trkpt lat="39.51998161" lon="-0.34774153"><ele>4.2</ele><time>2022-11-09T16:42:29.0000000+00:00</time></trkpt><trkpt lat="39.52003785" lon="-0.34773524"><ele>4.2</ele><time>2022-11-09T16:42:30.0000000+00:00</time></trkpt><trkpt lat="39.5200946" lon="-0.34772602"><ele>4.0</ele><time>2022-11-09T16:42:31.0000000+00:00</time></trkpt><trkpt lat="39.52015302" lon="-0.34771848"><ele>3.8</ele><time>2022-11-09T16:42:32.0000000+00:00</time></trkpt><trkpt lat="39.52020994" lon="-0.34770716"><ele>3.4</ele><time>2022-11-09T16:42:33.0000000+00:00</time></trkpt><trkpt lat="39.52026635" lon="-0.34770004"><ele>3.4</ele><time>2022-11-09T16:42:34.0000000+00:00</time></trkpt><trkpt lat="39.52032326" lon="-0.34769333"><ele>3.6</ele><time>2022-11-09T16:42:35.0000000+00:00</time></trkpt><trkpt lat="39.52038118" lon="-0.34768897"><ele>3.6</ele><time>2022-11-09T16:42:36.0000000+00:00</time></trkpt><trkpt lat="39.52043465" lon="-0.34768612"><ele>3.6</ele><time>2022-11-09T16:42:37.0000000+00:00</time></trkpt><trkpt lat="39.52048771" lon="-0.34768319"><ele>3.8</ele><time>2022-11-09T16:42:38.0000000+00:00</time></trkpt><trkpt lat="39.52054027" lon="-0.34767682"><ele>4.0</ele><time>2022-11-09T16:42:39.0000000+00:00</time></trkpt><trkpt lat="39.52059433" lon="-0.34766835"><ele>4.0</ele><time>2022-11-09T16:42:40.0000000+00:00</time></trkpt><trkpt lat="39.52064814" lon="-0.34765905"><ele>4.4</ele><time>2022-11-09T16:42:41.0000000+00:00</time></trkpt><trkpt lat="39.52070237" lon="-0.34764865"><ele>4.6</ele><time>2022-11-09T16:42:42.0000000+00:00</time></trkpt><trkpt lat="39.52075878" lon="-0.34763642"><ele>4.8</ele><time>2022-11-09T16:42:43.0000000+00:00</time></trkpt><trkpt lat="39.52081293" lon="-0.34762351"><ele>4.8</ele><time>2022-11-09T16:42:44.0000000+00:00</time></trkpt><trkpt lat="39.5208649" lon="-0.34760859"><ele>5.2</ele><time>2022-11-09T16:42:45.0000000+00:00</time></trkpt><trkpt lat="39.52091376" lon="-0.34759451"><ele>5.4</ele><time>2022-11-09T16:42:46.0000000+00:00</time></trkpt><trkpt lat="39.52096305" lon="-0.34757984"><ele>5.6</ele><time>2022-11-09T16:42:47.0000000+00:00</time></trkpt><trkpt lat="39.52101292" lon="-0.34756492"><ele>6.0</ele><time>2022-11-09T16:42:48.0000000+00:00</time></trkpt><trkpt lat="39.52106346" lon="-0.34755033"><ele>6.2</ele><time>2022-11-09T16:42:49.0000000+00:00</time></trkpt><trkpt lat="39.52111367" lon="-0.3475355"><ele>6.4</ele><time>2022-11-09T16:42:50.0000000+00:00</time></trkpt><trkpt lat="39.5211648" lon="-0.34751521"><ele>6.6</ele><time>2022-11-09T16:42:51.0000000+00:00</time></trkpt><trkpt lat="39.5212156" lon="-0.34749669"><ele>6.8</ele><time>2022-11-09T16:42:52.0000000+00:00</time></trkpt><trkpt lat="39.52126597" lon="-0.3474775"><ele>6.8</ele><time>2022-11-09T16:42:53.0000000+00:00</time></trkpt><trkpt lat="39.52131526" lon="-0.34746157"><ele>6.8</ele><time>2022-11-09T16:42:54.0000000+00:00</time></trkpt><trkpt lat="39.5213658" lon="-0.34744967"><ele>6.8</ele><time>2022-11-09T16:42:55.0000000+00:00</time></trkpt><trkpt lat="39.52141366" lon="-0.34743567"><ele>7.0</ele><time>2022-11-09T16:42:56.0000000+00:00</time></trkpt><trkpt lat="39.52145917" lon="-0.34742461"><ele>7.2</ele><time>2022-11-09T16:42:57.0000000+00:00</time></trkpt><trkpt lat="39.52149538" lon="-0.34741195"><ele>7.2</ele><time>2022-11-09T16:42:58.0000000+00:00</time></trkpt><trkpt lat="39.5215212" lon="-0.34739091"><ele>7.4</ele><time>2022-11-09T16:42:59.0000000+00:00</time></trkpt><trkpt lat="39.52154685" lon="-0.34737884"><ele>7.4</ele><time>2022-11-09T16:43:00.0000000+00:00</time></trkpt><trkpt lat="39.52158608" lon="-0.34737214"><ele>7.4</ele><time>2022-11-09T16:43:01.0000000+00:00</time></trkpt><trkpt lat="39.52162857" lon="-0.34736862"><ele>7.4</ele><time>2022-11-09T16:43:02.0000000+00:00</time></trkpt><trkpt lat="39.52166671" lon="-0.34735889"><ele>7.4</ele><time>2022-11-09T16:43:03.0000000+00:00</time></trkpt><trkpt lat="39.52170686" lon="-0.34734942"><ele>7.4</ele><time>2022-11-09T16:43:04.0000000+00:00</time></trkpt><trkpt lat="39.5217419" lon="-0.34733936"><ele>7.4</ele><time>2022-11-09T16:43:05.0000000+00:00</time></trkpt><trkpt lat="39.52177601" lon="-0.34733115"><ele>7.4</ele><time>2022-11-09T16:43:06.0000000+00:00</time></trkpt><trkpt lat="39.52180878" lon="-0.34732285"><ele>7.4</ele><time>2022-11-09T16:43:07.0000000+00:00</time></trkpt><trkpt lat="39.52184189" lon="-0.34731145"><ele>7.4</ele><time>2022-11-09T16:43:08.0000000+00:00</time></trkpt><trkpt lat="39.521875" lon="-0.34729829"><ele>7.4</ele><time>2022-11-09T16:43:09.0000000+00:00</time></trkpt><trkpt lat="39.52191222" lon="-0.34728446"><ele>7.4</ele><time>2022-11-09T16:43:10.0000000+00:00</time></trkpt><trkpt lat="39.52195195" lon="-0.34726837"><ele>7.4</ele><time>2022-11-09T16:43:11.0000000+00:00</time></trkpt><trkpt lat="39.52199645" lon="-0.34725177"><ele>7.6</ele><time>2022-11-09T16:43:12.0000000+00:00</time></trkpt><trkpt lat="39.52204607" lon="-0.347233"><ele>7.6</ele><time>2022-11-09T16:43:13.0000000+00:00</time></trkpt><trkpt lat="39.52210098" lon="-0.34721682"><ele>7.6</ele><time>2022-11-09T16:43:14.0000000+00:00</time></trkpt><trkpt lat="39.52216099" lon="-0.34720006"><ele>7.8</ele><time>2022-11-09T16:43:15.0000000+00:00</time></trkpt><trkpt lat="39.5222262" lon="-0.34718807"><ele>7.8</ele><time>2022-11-09T16:43:16.0000000+00:00</time></trkpt><trkpt lat="39.52228261" lon="-0.34717307"><ele>7.6</ele><time>2022-11-09T16:43:17.0000000+00:00</time></trkpt><trkpt lat="39.52233483" lon="-0.34715639"><ele>7.6</ele><time>2022-11-09T16:43:18.0000000+00:00</time></trkpt><trkpt lat="39.52238722" lon="-0.34713627"><ele>7.4</ele><time>2022-11-09T16:43:19.0000000+00:00</time></trkpt><trkpt lat="39.52243726" lon="-0.34711741"><ele>7.2</ele><time>2022-11-09T16:43:20.0000000+00:00</time></trkpt><trkpt lat="39.52248713" lon="-0.34709855"><ele>7.2</ele><time>2022-11-09T16:43:21.0000000+00:00</time></trkpt><trkpt lat="39.52253977" lon="-0.34707936"><ele>7.0</ele><time>2022-11-09T16:43:22.0000000+00:00</time></trkpt><trkpt lat="39.52259182" lon="-0.3470615"><ele>7.0</ele><time>2022-11-09T16:43:23.0000000+00:00</time></trkpt><trkpt lat="39.52264697" lon="-0.34704373"><ele>6.6</ele><time>2022-11-09T16:43:24.0000000+00:00</time></trkpt><trkpt lat="39.52269886" lon="-0.347032"><ele>6.4</ele><time>2022-11-09T16:43:25.0000000+00:00</time></trkpt><trkpt lat="39.52274772" lon="-0.34701892"><ele>6.2</ele><time>2022-11-09T16:43:26.0000000+00:00</time></trkpt><trkpt lat="39.52280003" lon="-0.34700492"><ele>6.2</ele><time>2022-11-09T16:43:27.0000000+00:00</time></trkpt><trkpt lat="39.52284822" lon="-0.34699176"><ele>6.0</ele><time>2022-11-09T16:43:28.0000000+00:00</time></trkpt><trkpt lat="39.52289776" lon="-0.34697626"><ele>6.0</ele><time>2022-11-09T16:43:29.0000000+00:00</time></trkpt><trkpt lat="39.52294562" lon="-0.34695539"><ele>6.0</ele><time>2022-11-09T16:43:30.0000000+00:00</time></trkpt><trkpt lat="39.52299373" lon="-0.34693326"><ele>6.0</ele><time>2022-11-09T16:43:31.0000000+00:00</time></trkpt><trkpt lat="39.52304537" lon="-0.34690225"><ele>6.0</ele><time>2022-11-09T16:43:32.0000000+00:00</time></trkpt><trkpt lat="39.52309934" lon="-0.34686788"><ele>6.0</ele><time>2022-11-09T16:43:33.0000000+00:00</time></trkpt><trkpt lat="39.52315743" lon="-0.34684215"><ele>6.0</ele><time>2022-11-09T16:43:34.0000000+00:00</time></trkpt><trkpt lat="39.52321594" lon="-0.34681709"><ele>6.0</ele><time>2022-11-09T16:43:35.0000000+00:00</time></trkpt><trkpt lat="39.52327528" lon="-0.34679395"><ele>6.0</ele><time>2022-11-09T16:43:36.0000000+00:00</time></trkpt><trkpt lat="39.5233389" lon="-0.34677266"><ele>6.0</ele><time>2022-11-09T16:43:37.0000000+00:00</time></trkpt><trkpt lat="39.52340294" lon="-0.34675313"><ele>6.0</ele><time>2022-11-09T16:43:38.0000000+00:00</time></trkpt><trkpt lat="39.52346169" lon="-0.34673218"><ele>6.2</ele><time>2022-11-09T16:43:39.0000000+00:00</time></trkpt><trkpt lat="39.52352095" lon="-0.34670963"><ele>6.2</ele><time>2022-11-09T16:43:40.0000000+00:00</time></trkpt><trkpt lat="39.52358114" lon="-0.3466839"><ele>6.2</ele><time>2022-11-09T16:43:41.0000000+00:00</time></trkpt><trkpt lat="39.52364056" lon="-0.34665942"><ele>6.2</ele><time>2022-11-09T16:43:42.0000000+00:00</time></trkpt><trkpt lat="39.52369882" lon="-0.34663595"><ele>6.0</ele><time>2022-11-09T16:43:43.0000000+00:00</time></trkpt><trkpt lat="39.52375741" lon="-0.34661139"><ele>6.0</ele><time>2022-11-09T16:43:44.0000000+00:00</time></trkpt><trkpt lat="39.52381692" lon="-0.34658943"><ele>5.8</ele><time>2022-11-09T16:43:45.0000000+00:00</time></trkpt><trkpt lat="39.52387467" lon="-0.34657016"><ele>5.8</ele><time>2022-11-09T16:43:46.0000000+00:00</time></trkpt><trkpt lat="39.523931" lon="-0.34654987"><ele>6.0</ele><time>2022-11-09T16:43:47.0000000+00:00</time></trkpt><trkpt lat="39.52398229" lon="-0.34652959"><ele>6.0</ele><time>2022-11-09T16:43:48.0000000+00:00</time></trkpt><trkpt lat="39.52403016" lon="-0.34651291"><ele>6.4</ele><time>2022-11-09T16:43:49.0000000+00:00</time></trkpt><trkpt lat="39.52407274" lon="-0.34650084"><ele>6.8</ele><time>2022-11-09T16:43:50.0000000+00:00</time></trkpt><trkpt lat="39.52411515" lon="-0.34648919"><ele>7.0</ele><time>2022-11-09T16:43:51.0000000+00:00</time></trkpt><trkpt lat="39.52415882" lon="-0.34647494"><ele>7.0</ele><time>2022-11-09T16:43:52.0000000+00:00</time></trkpt><trkpt lat="39.52420198" lon="-0.34645893"><ele>7.2</ele><time>2022-11-09T16:43:53.0000000+00:00</time></trkpt><trkpt lat="39.52424389" lon="-0.34644225"><ele>7.2</ele><time>2022-11-09T16:43:54.0000000+00:00</time></trkpt><trkpt lat="39.52428815" lon="-0.34642565"><ele>7.2</ele><time>2022-11-09T16:43:55.0000000+00:00</time></trkpt><trkpt lat="39.5243366" lon="-0.34640411"><ele>7.2</ele><time>2022-11-09T16:43:56.0000000+00:00</time></trkpt><trkpt lat="39.52438697" lon="-0.34638039"><ele>7.2</ele><time>2022-11-09T16:43:57.0000000+00:00</time></trkpt><trkpt lat="39.52443911" lon="-0.34635834"><ele>7.0</ele><time>2022-11-09T16:43:58.0000000+00:00</time></trkpt><trkpt lat="39.52449275" lon="-0.34633387"><ele>7.0</ele><time>2022-11-09T16:43:59.0000000+00:00</time></trkpt><trkpt lat="39.52454874" lon="-0.34630671"><ele>7.0</ele><time>2022-11-09T16:44:00.0000000+00:00</time></trkpt><trkpt lat="39.52460641" lon="-0.34628031"><ele>7.0</ele><time>2022-11-09T16:44:01.0000000+00:00</time></trkpt><trkpt lat="39.52466634" lon="-0.3462581"><ele>7.0</ele><time>2022-11-09T16:44:02.0000000+00:00</time></trkpt><trkpt lat="39.52472694" lon="-0.34624024"><ele>7.0</ele><time>2022-11-09T16:44:03.0000000+00:00</time></trkpt><trkpt lat="39.52478461" lon="-0.34621988"><ele>7.0</ele><time>2022-11-09T16:44:04.0000000+00:00</time></trkpt><trkpt lat="39.5248406" lon="-0.34619465"><ele>7.0</ele><time>2022-11-09T16:44:05.0000000+00:00</time></trkpt><trkpt lat="39.52489592" lon="-0.34616975"><ele>6.8</ele><time>2022-11-09T16:44:06.0000000+00:00</time></trkpt><trkpt lat="39.52494361" lon="-0.34613974"><ele>6.8</ele><time>2022-11-09T16:44:07.0000000+00:00</time></trkpt><trkpt lat="39.52498309" lon="-0.34610638"><ele>6.8</ele><time>2022-11-09T16:44:08.0000000+00:00</time></trkpt><trkpt lat="39.52502375" lon="-0.34608292"><ele>6.6</ele><time>2022-11-09T16:44:09.0000000+00:00</time></trkpt><trkpt lat="39.52506867" lon="-0.34606875"><ele>6.6</ele><time>2022-11-09T16:44:10.0000000+00:00</time></trkpt><trkpt lat="39.52511704" lon="-0.34606062"><ele>6.6</ele><time>2022-11-09T16:44:11.0000000+00:00</time></trkpt><trkpt lat="39.52516481" lon="-0.3460488"><ele>6.6</ele><time>2022-11-09T16:44:12.0000000+00:00</time></trkpt><trkpt lat="39.52521334" lon="-0.34603296"><ele>6.8</ele><time>2022-11-09T16:44:13.0000000+00:00</time></trkpt><trkpt lat="39.52526397" lon="-0.34601921"><ele>7.0</ele><time>2022-11-09T16:44:14.0000000+00:00</time></trkpt><trkpt lat="39.52531192" lon="-0.34600555"><ele>7.2</ele><time>2022-11-09T16:44:15.0000000+00:00</time></trkpt><trkpt lat="39.52536154" lon="-0.34599097"><ele>7.2</ele><time>2022-11-09T16:44:16.0000000+00:00</time></trkpt><trkpt lat="39.52540848" lon="-0.34596959"><ele>7.2</ele><time>2022-11-09T16:44:17.0000000+00:00</time></trkpt><trkpt lat="39.52545835" lon="-0.34594981"><ele>7.2</ele><time>2022-11-09T16:44:18.0000000+00:00</time></trkpt><trkpt lat="39.52550856" lon="-0.34593045"><ele>7.2</ele><time>2022-11-09T16:44:19.0000000+00:00</time></trkpt><trkpt lat="39.52555943" lon="-0.3459105"><ele>7.2</ele><time>2022-11-09T16:44:20.0000000+00:00</time></trkpt><trkpt lat="39.52561065" lon="-0.34589022"><ele>7.2</ele><time>2022-11-09T16:44:21.0000000+00:00</time></trkpt><trkpt lat="39.5256679" lon="-0.34587488"><ele>7.2</ele><time>2022-11-09T16:44:22.0000000+00:00</time></trkpt><trkpt lat="39.52571802" lon="-0.34586121"><ele>7.2</ele><time>2022-11-09T16:44:23.0000000+00:00</time></trkpt><trkpt lat="39.52577057" lon="-0.3458442"><ele>7.2</ele><time>2022-11-09T16:44:24.0000000+00:00</time></trkpt><trkpt lat="39.5258207" lon="-0.34582006"><ele>7.2</ele><time>2022-11-09T16:44:25.0000000+00:00</time></trkpt><trkpt lat="39.5258766" lon="-0.34579634"><ele>7.2</ele><time>2022-11-09T16:44:26.0000000+00:00</time></trkpt><trkpt lat="39.52593335" lon="-0.34577404"><ele>7.0</ele><time>2022-11-09T16:44:27.0000000+00:00</time></trkpt><trkpt lat="39.52600024" lon="-0.34576222"><ele>7.0</ele><time>2022-11-09T16:44:28.0000000+00:00</time></trkpt><trkpt lat="39.52606226" lon="-0.34573657"><ele>6.8</ele><time>2022-11-09T16:44:29.0000000+00:00</time></trkpt><trkpt lat="39.52612043" lon="-0.34571227"><ele>6.8</ele><time>2022-11-09T16:44:30.0000000+00:00</time></trkpt><trkpt lat="39.52617374" lon="-0.34569056"><ele>6.8</ele><time>2022-11-09T16:44:31.0000000+00:00</time></trkpt><trkpt lat="39.52623191" lon="-0.34567455"><ele>6.8</ele><time>2022-11-09T16:44:32.0000000+00:00</time></trkpt><trkpt lat="39.52628774" lon="-0.34565745"><ele>6.6</ele><time>2022-11-09T16:44:33.0000000+00:00</time></trkpt><trkpt lat="39.5263475" lon="-0.34564655"><ele>6.6</ele><time>2022-11-09T16:44:34.0000000+00:00</time></trkpt><trkpt lat="39.52640936" lon="-0.34562971"><ele>6.6</ele><time>2022-11-09T16:44:35.0000000+00:00</time></trkpt><trkpt lat="39.52647373" lon="-0.34561026"><ele>6.8</ele><time>2022-11-09T16:44:36.0000000+00:00</time></trkpt><trkpt lat="39.52653836" lon="-0.34559115"><ele>6.8</ele><time>2022-11-09T16:44:37.0000000+00:00</time></trkpt><trkpt lat="39.52660566" lon="-0.3455764"><ele>6.8</ele><time>2022-11-09T16:44:38.0000000+00:00</time></trkpt><trkpt lat="39.52667045" lon="-0.34555293"><ele>6.8</ele><time>2022-11-09T16:44:39.0000000+00:00</time></trkpt><trkpt lat="39.52674103" lon="-0.34552921"><ele>6.8</ele><time>2022-11-09T16:44:40.0000000+00:00</time></trkpt><trkpt lat="39.52681135" lon="-0.34550473"><ele>6.8</ele><time>2022-11-09T16:44:41.0000000+00:00</time></trkpt><trkpt lat="39.52688092" lon="-0.34547657"><ele>6.8</ele><time>2022-11-09T16:44:42.0000000+00:00</time></trkpt><trkpt lat="39.52694647" lon="-0.34545159"><ele>6.8</ele><time>2022-11-09T16:44:43.0000000+00:00</time></trkpt><trkpt lat="39.52700866" lon="-0.34542142"><ele>6.8</ele><time>2022-11-09T16:44:44.0000000+00:00</time></trkpt><trkpt lat="39.52706985" lon="-0.34539166"><ele>7.0</ele><time>2022-11-09T16:44:45.0000000+00:00</time></trkpt><trkpt lat="39.5271245" lon="-0.34536157"><ele>7.0</ele><time>2022-11-09T16:44:46.0000000+00:00</time></trkpt><trkpt lat="39.5271784" lon="-0.34533273"><ele>7.0</ele><time>2022-11-09T16:44:47.0000000+00:00</time></trkpt><trkpt lat="39.52723456" lon="-0.34530608"><ele>7.0</ele><time>2022-11-09T16:44:48.0000000+00:00</time></trkpt><trkpt lat="39.52728594" lon="-0.34527783"><ele>7.0</ele><time>2022-11-09T16:44:49.0000000+00:00</time></trkpt><trkpt lat="39.52734084" lon="-0.34525638"><ele>7.0</ele><time>2022-11-09T16:44:50.0000000+00:00</time></trkpt><trkpt lat="39.52738971" lon="-0.34523592"><ele>6.8</ele><time>2022-11-09T16:44:51.0000000+00:00</time></trkpt><trkpt lat="39.52743522" lon="-0.34521514"><ele>6.8</ele><time>2022-11-09T16:44:52.0000000+00:00</time></trkpt><trkpt lat="39.52747051" lon="-0.34519427"><ele>6.6</ele><time>2022-11-09T16:44:53.0000000+00:00</time></trkpt><trkpt lat="39.52751024" lon="-0.345177"><ele>6.6</ele><time>2022-11-09T16:44:54.0000000+00:00</time></trkpt><trkpt lat="39.52755005" lon="-0.34516074"><ele>6.4</ele><time>2022-11-09T16:44:55.0000000+00:00</time></trkpt><trkpt lat="39.52759431" lon="-0.34514414"><ele>6.4</ele><time>2022-11-09T16:44:56.0000000+00:00</time></trkpt><trkpt lat="39.52763949" lon="-0.34512755"><ele>6.4</ele><time>2022-11-09T16:44:57.0000000+00:00</time></trkpt><trkpt lat="39.527685" lon="-0.34511179"><ele>6.4</ele><time>2022-11-09T16:44:58.0000000+00:00</time></trkpt><trkpt lat="39.52773236" lon="-0.34509343"><ele>6.4</ele><time>2022-11-09T16:44:59.0000000+00:00</time></trkpt><trkpt lat="39.52777787" lon="-0.34507533"><ele>6.4</ele><time>2022-11-09T16:45:00.0000000+00:00</time></trkpt><trkpt lat="39.52782389" lon="-0.34506292"><ele>6.4</ele><time>2022-11-09T16:45:01.0000000+00:00</time></trkpt><trkpt lat="39.52786806" lon="-0.34504817"><ele>6.4</ele><time>2022-11-09T16:45:02.0000000+00:00</time></trkpt><trkpt lat="39.52791827" lon="-0.34502763"><ele>6.4</ele><time>2022-11-09T16:45:03.0000000+00:00</time></trkpt><trkpt lat="39.52797007" lon="-0.34500458"><ele>6.6</ele><time>2022-11-09T16:45:04.0000000+00:00</time></trkpt><trkpt lat="39.52802086" lon="-0.34498405"><ele>6.6</ele><time>2022-11-09T16:45:05.0000000+00:00</time></trkpt><trkpt lat="39.5280709" lon="-0.34496083"><ele>6.6</ele><time>2022-11-09T16:45:06.0000000+00:00</time></trkpt><trkpt lat="39.52810929" lon="-0.34494046"><ele>6.4</ele><time>2022-11-09T16:45:07.0000000+00:00</time></trkpt><trkpt lat="39.52814735" lon="-0.34492412"><ele>6.4</ele><time>2022-11-09T16:45:08.0000000+00:00</time></trkpt><trkpt lat="39.52819118" lon="-0.3449071"><ele>6.4</ele><time>2022-11-09T16:45:09.0000000+00:00</time></trkpt><trkpt lat="39.52823795" lon="-0.34489579"><ele>6.2</ele><time>2022-11-09T16:45:10.0000000+00:00</time></trkpt><trkpt lat="39.52827794" lon="-0.34488196"><ele>6.2</ele><time>2022-11-09T16:45:11.0000000+00:00</time></trkpt><trkpt lat="39.52830476" lon="-0.34487022"><ele>6.0</ele><time>2022-11-09T16:45:12.0000000+00:00</time></trkpt><trkpt lat="39.52833284" lon="-0.34485547"><ele>5.8</ele><time>2022-11-09T16:45:13.0000000+00:00</time></trkpt><trkpt lat="39.52835538" lon="-0.34484021"><ele>5.6</ele><time>2022-11-09T16:45:14.0000000+00:00</time></trkpt><trkpt lat="39.52837877" lon="-0.34481968"><ele>5.4</ele><time>2022-11-09T16:45:15.0000000+00:00</time></trkpt><trkpt lat="39.52840467" lon="-0.34479654"><ele>5.2</ele><time>2022-11-09T16:45:16.0000000+00:00</time></trkpt><trkpt lat="39.52843091" lon="-0.34477375"><ele>5.0</ele><time>2022-11-09T16:45:17.0000000+00:00</time></trkpt><trkpt lat="39.52845236" lon="-0.34475581"><ele>5.0</ele><time>2022-11-09T16:45:18.0000000+00:00</time></trkpt><trkpt lat="39.52846862" lon="-0.34474592"><ele>5.0</ele><time>2022-11-09T16:45:19.0000000+00:00</time></trkpt><trkpt lat="39.52848706" lon="-0.34474734"><ele>5.0</ele><time>2022-11-09T16:45:20.0000000+00:00</time></trkpt><trkpt lat="39.52851045" lon="-0.34475556"><ele>5.0</ele><time>2022-11-09T16:45:21.0000000+00:00</time></trkpt><trkpt lat="39.52852403" lon="-0.3447745"><ele>5.0</ele><time>2022-11-09T16:45:22.0000000+00:00</time></trkpt><trkpt lat="39.52853895" lon="-0.34480241"><ele>5.2</ele><time>2022-11-09T16:45:23.0000000+00:00</time></trkpt><trkpt lat="39.52856108" lon="-0.3448211"><ele>5.2</ele><time>2022-11-09T16:45:24.0000000+00:00</time></trkpt><trkpt lat="39.52858882" lon="-0.34482219"><ele>5.2</ele><time>2022-11-09T16:45:25.0000000+00:00</time></trkpt><trkpt lat="39.52861908" lon="-0.34481716"><ele>5.2</ele><time>2022-11-09T16:45:26.0000000+00:00</time></trkpt><trkpt lat="39.52864582" lon="-0.34480887"><ele>5.4</ele><time>2022-11-09T16:45:27.0000000+00:00</time></trkpt><trkpt lat="39.52867138" lon="-0.34480258"><ele>5.4</ele><time>2022-11-09T16:45:28.0000000+00:00</time></trkpt><trkpt lat="39.52870005" lon="-0.34479562"><ele>5.6</ele><time>2022-11-09T16:45:29.0000000+00:00</time></trkpt><trkpt lat="39.52872788" lon="-0.34478565"><ele>5.6</ele><time>2022-11-09T16:45:30.0000000+00:00</time></trkpt><trkpt lat="39.52875688" lon="-0.34477886"><ele>5.6</ele><time>2022-11-09T16:45:31.0000000+00:00</time></trkpt><trkpt lat="39.52879133" lon="-0.34477165"><ele>5.6</ele><time>2022-11-09T16:45:32.0000000+00:00</time></trkpt><trkpt lat="39.52882896" lon="-0.34476285"><ele>5.8</ele><time>2022-11-09T16:45:33.0000000+00:00</time></trkpt><trkpt lat="39.52886811" lon="-0.34475145"><ele>5.8</ele><time>2022-11-09T16:45:34.0000000+00:00</time></trkpt><trkpt lat="39.52890507" lon="-0.34473611"><ele>6.0</ele><time>2022-11-09T16:45:35.0000000+00:00</time></trkpt><trkpt lat="39.5289412" lon="-0.34472345"><ele>6.0</ele><time>2022-11-09T16:45:36.0000000+00:00</time></trkpt><trkpt lat="39.52898009" lon="-0.34470988"><ele>6.2</ele><time>2022-11-09T16:45:37.0000000+00:00</time></trkpt><trkpt lat="39.52901831" lon="-0.3446989"><ele>6.2</ele><time>2022-11-09T16:45:38.0000000+00:00</time></trkpt><trkpt lat="39.52905661" lon="-0.34468507"><ele>6.4</ele><time>2022-11-09T16:45:39.0000000+00:00</time></trkpt><trkpt lat="39.52909358" lon="-0.3446709"><ele>6.4</ele><time>2022-11-09T16:45:40.0000000+00:00</time></trkpt><trkpt lat="39.52912711" lon="-0.34465673"><ele>6.6</ele><time>2022-11-09T16:45:41.0000000+00:00</time></trkpt><trkpt lat="39.5291634" lon="-0.34464693"><ele>6.6</ele><time>2022-11-09T16:45:42.0000000+00:00</time></trkpt><trkpt lat="39.52920179" lon="-0.3446388"><ele>6.6</ele><time>2022-11-09T16:45:43.0000000+00:00</time></trkpt><trkpt lat="39.52924278" lon="-0.34463293"><ele>6.6</ele><time>2022-11-09T16:45:44.0000000+00:00</time></trkpt><trkpt lat="39.52928435" lon="-0.34462388"><ele>6.6</ele><time>2022-11-09T16:45:45.0000000+00:00</time></trkpt><trkpt lat="39.52932525" lon="-0.34461306"><ele>6.6</ele><time>2022-11-09T16:45:46.0000000+00:00</time></trkpt><trkpt lat="39.52936498" lon="-0.34460175"><ele>6.6</ele><time>2022-11-09T16:45:47.0000000+00:00</time></trkpt><trkpt lat="39.52940681" lon="-0.34459136"><ele>6.6</ele><time>2022-11-09T16:45:48.0000000+00:00</time></trkpt><trkpt lat="39.52945149" lon="-0.34458406"><ele>6.6</ele><time>2022-11-09T16:45:49.0000000+00:00</time></trkpt><trkpt lat="39.52949977" lon="-0.34457853"><ele>6.6</ele><time>2022-11-09T16:45:50.0000000+00:00</time></trkpt><trkpt lat="39.52954838" lon="-0.34456177"><ele>6.6</ele><time>2022-11-09T16:45:51.0000000+00:00</time></trkpt><trkpt lat="39.52959934" lon="-0.34454316"><ele>6.6</ele><time>2022-11-09T16:45:52.0000000+00:00</time></trkpt><trkpt lat="39.52964947" lon="-0.34452774"><ele>6.6</ele><time>2022-11-09T16:45:53.0000000+00:00</time></trkpt><trkpt lat="39.52970152" lon="-0.34451835"><ele>6.6</ele><time>2022-11-09T16:45:54.0000000+00:00</time></trkpt><trkpt lat="39.5297612" lon="-0.34450972"><ele>6.6</ele><time>2022-11-09T16:45:55.0000000+00:00</time></trkpt><trkpt lat="39.52980621" lon="-0.34450075"><ele>6.6</ele><time>2022-11-09T16:45:56.0000000+00:00</time></trkpt><trkpt lat="39.52984468" lon="-0.34449488"><ele>6.6</ele><time>2022-11-09T16:45:57.0000000+00:00</time></trkpt><trkpt lat="39.5298762" lon="-0.34449044"><ele>6.2</ele><time>2022-11-09T16:45:58.0000000+00:00</time></trkpt><trkpt lat="39.529899" lon="-0.34448801"><ele>6.2</ele><time>2022-11-09T16:45:59.0000000+00:00</time></trkpt><trkpt lat="39.52991568" lon="-0.34448641"><ele>6.2</ele><time>2022-11-09T16:46:00.0000000+00:00</time></trkpt><trkpt lat="39.529928" lon="-0.34448398"><ele>6.0</ele><time>2022-11-09T16:46:01.0000000+00:00</time></trkpt><trkpt lat="39.52993202" lon="-0.34448231"><ele>6.0</ele><time>2022-11-09T16:46:02.0000000+00:00</time></trkpt><trkpt lat="39.52993219" lon="-0.34448331"><ele>6.2</ele><time>2022-11-09T16:46:03.0000000+00:00</time></trkpt><trkpt lat="39.52993747" lon="-0.3444834"><ele>6.2</ele><time>2022-11-09T16:46:04.0000000+00:00</time></trkpt><trkpt lat="39.52994736" lon="-0.34447619"><ele>6.2</ele><time>2022-11-09T16:46:05.0000000+00:00</time></trkpt><trkpt lat="39.52996806" lon="-0.34446999"><ele>6.4</ele><time>2022-11-09T16:46:06.0000000+00:00</time></trkpt><trkpt lat="39.52999505" lon="-0.34447166"><ele>6.4</ele><time>2022-11-09T16:46:07.0000000+00:00</time></trkpt><trkpt lat="39.53002757" lon="-0.34447485"><ele>6.4</ele><time>2022-11-09T16:46:08.0000000+00:00</time></trkpt><trkpt lat="39.53006789" lon="-0.34447929"><ele>6.2</ele><time>2022-11-09T16:46:09.0000000+00:00</time></trkpt><trkpt lat="39.53010745" lon="-0.34447074"><ele>6.4</ele><time>2022-11-09T16:46:10.0000000+00:00</time></trkpt><trkpt lat="39.5301502" lon="-0.34445062"><ele>6.4</ele><time>2022-11-09T16:46:11.0000000+00:00</time></trkpt><trkpt lat="39.53020527" lon="-0.34442347"><ele>6.4</ele><time>2022-11-09T16:46:12.0000000+00:00</time></trkpt><trkpt lat="39.53024341" lon="-0.34441282"><ele>6.6</ele><time>2022-11-09T16:46:13.0000000+00:00</time></trkpt><trkpt lat="39.53028364" lon="-0.34440519"><ele>6.6</ele><time>2022-11-09T16:46:14.0000000+00:00</time></trkpt><trkpt lat="39.53032195" lon="-0.34440318"><ele>6.8</ele><time>2022-11-09T16:46:15.0000000+00:00</time></trkpt><trkpt lat="39.53035958" lon="-0.34440327"><ele>6.8</ele><time>2022-11-09T16:46:16.0000000+00:00</time></trkpt><trkpt lat="39.53039789" lon="-0.34440301"><ele>6.8</ele><time>2022-11-09T16:46:17.0000000+00:00</time></trkpt><trkpt lat="39.53043854" lon="-0.34439673"><ele>6.8</ele><time>2022-11-09T16:46:18.0000000+00:00</time></trkpt><trkpt lat="39.5304807" lon="-0.34438675"><ele>6.8</ele><time>2022-11-09T16:46:19.0000000+00:00</time></trkpt><trkpt lat="39.53052471" lon="-0.34438013"><ele>6.8</ele><time>2022-11-09T16:46:20.0000000+00:00</time></trkpt><trkpt lat="39.53057282" lon="-0.34437745"><ele>6.8</ele><time>2022-11-09T16:46:21.0000000+00:00</time></trkpt><trkpt lat="39.53062277" lon="-0.34437385"><ele>6.8</ele><time>2022-11-09T16:46:22.0000000+00:00</time></trkpt><trkpt lat="39.53067524" lon="-0.34436613"><ele>6.8</ele><time>2022-11-09T16:46:23.0000000+00:00</time></trkpt><trkpt lat="39.53072327" lon="-0.34435742"><ele>6.8</ele><time>2022-11-09T16:46:24.0000000+00:00</time></trkpt><trkpt lat="39.53077415" lon="-0.34435113"><ele>6.8</ele><time>2022-11-09T16:46:25.0000000+00:00</time></trkpt><trkpt lat="39.53083416" lon="-0.34434401"><ele>6.8</ele><time>2022-11-09T16:46:26.0000000+00:00</time></trkpt><trkpt lat="39.53089653" lon="-0.34434208"><ele>7.0</ele><time>2022-11-09T16:46:27.0000000+00:00</time></trkpt><trkpt lat="39.53095411" lon="-0.34433789"><ele>7.0</ele><time>2022-11-09T16:46:28.0000000+00:00</time></trkpt><trkpt lat="39.53101932" lon="-0.34433604"><ele>7.0</ele><time>2022-11-09T16:46:29.0000000+00:00</time></trkpt><trkpt lat="39.53107749" lon="-0.34433001"><ele>7.0</ele><time>2022-11-09T16:46:30.0000000+00:00</time></trkpt><trkpt lat="39.53113432" lon="-0.34432171"><ele>7.0</ele><time>2022-11-09T16:46:31.0000000+00:00</time></trkpt><trkpt lat="39.5311904" lon="-0.34431635"><ele>7.0</ele><time>2022-11-09T16:46:32.0000000+00:00</time></trkpt><trkpt lat="39.53124488" lon="-0.34430905"><ele>7.0</ele><time>2022-11-09T16:46:33.0000000+00:00</time></trkpt><trkpt lat="39.53129525" lon="-0.3443052"><ele>7.2</ele><time>2022-11-09T16:46:34.0000000+00:00</time></trkpt><trkpt lat="39.53134823" lon="-0.34429489"><ele>7.2</ele><time>2022-11-09T16:46:35.0000000+00:00</time></trkpt><trkpt lat="39.53139366" lon="-0.34428307"><ele>7.2</ele><time>2022-11-09T16:46:36.0000000+00:00</time></trkpt><trkpt lat="39.53144621" lon="-0.34427293"><ele>7.2</ele><time>2022-11-09T16:46:37.0000000+00:00</time></trkpt><trkpt lat="39.53150287" lon="-0.34427293"><ele>7.2</ele><time>2022-11-09T16:46:38.0000000+00:00</time></trkpt><trkpt lat="39.53155434" lon="-0.34427477"><ele>7.2</ele><time>2022-11-09T16:46:39.0000000+00:00</time></trkpt><trkpt lat="39.53159893" lon="-0.34427427"><ele>7.2</ele><time>2022-11-09T16:46:40.0000000+00:00</time></trkpt><trkpt lat="39.53164646" lon="-0.34427159"><ele>7.2</ele><time>2022-11-09T16:46:41.0000000+00:00</time></trkpt><trkpt lat="39.53169197" lon="-0.34426563"><ele>7.2</ele><time>2022-11-09T16:46:42.0000000+00:00</time></trkpt><trkpt lat="39.53172977" lon="-0.34424912"><ele>7.2</ele><time>2022-11-09T16:46:43.0000000+00:00</time></trkpt><trkpt lat="39.53174662" lon="-0.34423521"><ele>7.2</ele><time>2022-11-09T16:46:44.0000000+00:00</time></trkpt><trkpt lat="39.53178995" lon="-0.34422691"><ele>7.2</ele><time>2022-11-09T16:46:45.0000000+00:00</time></trkpt><trkpt lat="39.53184762" lon="-0.34421434"><ele>7.0</ele><time>2022-11-09T16:46:46.0000000+00:00</time></trkpt><trkpt lat="39.53189414" lon="-0.34420688"><ele>7.2</ele><time>2022-11-09T16:46:47.0000000+00:00</time></trkpt><trkpt lat="39.5319394" lon="-0.34420386"><ele>7.2</ele><time>2022-11-09T16:46:48.0000000+00:00</time></trkpt><trkpt lat="39.53198534" lon="-0.34420679"><ele>7.2</ele><time>2022-11-09T16:46:49.0000000+00:00</time></trkpt><trkpt lat="39.53202783" lon="-0.34420822"><ele>7.2</ele><time>2022-11-09T16:46:50.0000000+00:00</time></trkpt><trkpt lat="39.53206404" lon="-0.34420319"><ele>7.2</ele><time>2022-11-09T16:46:51.0000000+00:00</time></trkpt><trkpt lat="39.53209321" lon="-0.34419808"><ele>7.2</ele><time>2022-11-09T16:46:52.0000000+00:00</time></trkpt><trkpt lat="39.53212498" lon="-0.34419456"><ele>7.2</ele><time>2022-11-09T16:46:53.0000000+00:00</time></trkpt><trkpt lat="39.53216001" lon="-0.3441933"><ele>7.2</ele><time>2022-11-09T16:46:54.0000000+00:00</time></trkpt><trkpt lat="39.53219078" lon="-0.34419078"><ele>7.0</ele><time>2022-11-09T16:46:55.0000000+00:00</time></trkpt><trkpt lat="39.5322233" lon="-0.34418517"><ele>6.8</ele><time>2022-11-09T16:46:56.0000000+00:00</time></trkpt><trkpt lat="39.53225683" lon="-0.34418081"><ele>6.8</ele><time>2022-11-09T16:46:57.0000000+00:00</time></trkpt><trkpt lat="39.53228675" lon="-0.34417737"><ele>6.6</ele><time>2022-11-09T16:46:58.0000000+00:00</time></trkpt><trkpt lat="39.53232095" lon="-0.34417268"><ele>6.8</ele><time>2022-11-09T16:46:59.0000000+00:00</time></trkpt><trkpt lat="39.53235875" lon="-0.34416899"><ele>6.8</ele><time>2022-11-09T16:47:00.0000000+00:00</time></trkpt><trkpt lat="39.53239496" lon="-0.34416681"><ele>6.8</ele><time>2022-11-09T16:47:01.0000000+00:00</time></trkpt><trkpt lat="39.53243025" lon="-0.34416639"><ele>6.8</ele><time>2022-11-09T16:47:02.0000000+00:00</time></trkpt><trkpt lat="39.53246595" lon="-0.34416648"><ele>7.0</ele><time>2022-11-09T16:47:03.0000000+00:00</time></trkpt><trkpt lat="39.53250258" lon="-0.34416321"><ele>6.8</ele><time>2022-11-09T16:47:04.0000000+00:00</time></trkpt><trkpt lat="39.53254122" lon="-0.34415558"><ele>6.8</ele><time>2022-11-09T16:47:05.0000000+00:00</time></trkpt><trkpt lat="39.53258297" lon="-0.34414753"><ele>6.8</ele><time>2022-11-09T16:47:06.0000000+00:00</time></trkpt><trkpt lat="39.53262672" lon="-0.34414141"><ele>6.8</ele><time>2022-11-09T16:47:07.0000000+00:00</time></trkpt><trkpt lat="39.5326688" lon="-0.34413111"><ele>6.8</ele><time>2022-11-09T16:47:08.0000000+00:00</time></trkpt><trkpt lat="39.53270953" lon="-0.34412574"><ele>6.8</ele><time>2022-11-09T16:47:09.0000000+00:00</time></trkpt><trkpt lat="39.53275052" lon="-0.34412264"><ele>6.8</ele><time>2022-11-09T16:47:10.0000000+00:00</time></trkpt><trkpt lat="39.53279721" lon="-0.34411878"><ele>7.0</ele><time>2022-11-09T16:47:11.0000000+00:00</time></trkpt><trkpt lat="39.53284959" lon="-0.3441156"><ele>7.2</ele><time>2022-11-09T16:47:12.0000000+00:00</time></trkpt><trkpt lat="39.53290315" lon="-0.34410948"><ele>7.2</ele><time>2022-11-09T16:47:13.0000000+00:00</time></trkpt><trkpt lat="39.5329573" lon="-0.34410453"><ele>7.2</ele><time>2022-11-09T16:47:14.0000000+00:00</time></trkpt><trkpt lat="39.53301195" lon="-0.34410076"><ele>6.8</ele><time>2022-11-09T16:47:15.0000000+00:00</time></trkpt><trkpt lat="39.53306777" lon="-0.34409724"><ele>6.4</ele><time>2022-11-09T16:47:16.0000000+00:00</time></trkpt><trkpt lat="39.53311773" lon="-0.34409171"><ele>6.4</ele><time>2022-11-09T16:47:17.0000000+00:00</time></trkpt><trkpt lat="39.53316425" lon="-0.34408509"><ele>6.2</ele><time>2022-11-09T16:47:18.0000000+00:00</time></trkpt><trkpt lat="39.53321706" lon="-0.34407838"><ele>6.2</ele><time>2022-11-09T16:47:19.0000000+00:00</time></trkpt><trkpt lat="39.53326676" lon="-0.34407218"><ele>6.2</ele><time>2022-11-09T16:47:20.0000000+00:00</time></trkpt><trkpt lat="39.53331973" lon="-0.34405902"><ele>6.4</ele><time>2022-11-09T16:47:21.0000000+00:00</time></trkpt><trkpt lat="39.53337011" lon="-0.34404695"><ele>6.4</ele><time>2022-11-09T16:47:22.0000000+00:00</time></trkpt><trkpt lat="39.53342116" lon="-0.34403714"><ele>6.4</ele><time>2022-11-09T16:47:23.0000000+00:00</time></trkpt><trkpt lat="39.53347187" lon="-0.34403035"><ele>6.8</ele><time>2022-11-09T16:47:24.0000000+00:00</time></trkpt><trkpt lat="39.53352082" lon="-0.34402818"><ele>7.0</ele><time>2022-11-09T16:47:25.0000000+00:00</time></trkpt><trkpt lat="39.53356507" lon="-0.34403111"><ele>7.2</ele><time>2022-11-09T16:47:26.0000000+00:00</time></trkpt><trkpt lat="39.53360137" lon="-0.34402893"><ele>7.8</ele><time>2022-11-09T16:47:27.0000000+00:00</time></trkpt><trkpt lat="39.53363364" lon="-0.34402558"><ele>8.2</ele><time>2022-11-09T16:47:28.0000000+00:00</time></trkpt><trkpt lat="39.53367697" lon="-0.34402801"><ele>8.4</ele><time>2022-11-09T16:47:29.0000000+00:00</time></trkpt><trkpt lat="39.53372458" lon="-0.34403253"><ele>8.4</ele><time>2022-11-09T16:47:30.0000000+00:00</time></trkpt><trkpt lat="39.53377093" lon="-0.34403094"><ele>8.4</ele><time>2022-11-09T16:47:31.0000000+00:00</time></trkpt><trkpt lat="39.53381787" lon="-0.3440291"><ele>8.6</ele><time>2022-11-09T16:47:32.0000000+00:00</time></trkpt><trkpt lat="39.53386406" lon="-0.34402432"><ele>8.6</ele><time>2022-11-09T16:47:33.0000000+00:00</time></trkpt><trkpt lat="39.53391183" lon="-0.34401912"><ele>8.4</ele><time>2022-11-09T16:47:34.0000000+00:00</time></trkpt><trkpt lat="39.53396246" lon="-0.34400906"><ele>8.2</ele><time>2022-11-09T16:47:35.0000000+00:00</time></trkpt><trkpt lat="39.53401845" lon="-0.34399666"><ele>8.2</ele><time>2022-11-09T16:47:36.0000000+00:00</time></trkpt><trkpt lat="39.5340695" lon="-0.34398928"><ele>8.2</ele><time>2022-11-09T16:47:37.0000000+00:00</time></trkpt><trkpt lat="39.5341228" lon="-0.34398568"><ele>8.0</ele><time>2022-11-09T16:47:38.0000000+00:00</time></trkpt><trkpt lat="39.53418173" lon="-0.34398249"><ele>8.0</ele><time>2022-11-09T16:47:39.0000000+00:00</time></trkpt><trkpt lat="39.53423797" lon="-0.34397218"><ele>7.8</ele><time>2022-11-09T16:47:40.0000000+00:00</time></trkpt><trkpt lat="39.5342891" lon="-0.3439638"><ele>7.8</ele><time>2022-11-09T16:47:41.0000000+00:00</time></trkpt><trkpt lat="39.53433646" lon="-0.34395794"><ele>7.8</ele><time>2022-11-09T16:47:42.0000000+00:00</time></trkpt><trkpt lat="39.53438206" lon="-0.34395014"><ele>7.6</ele><time>2022-11-09T16:47:43.0000000+00:00</time></trkpt><trkpt lat="39.53442765" lon="-0.34394871"><ele>7.4</ele><time>2022-11-09T16:47:44.0000000+00:00</time></trkpt><trkpt lat="39.53446227" lon="-0.34394947"><ele>7.4</ele><time>2022-11-09T16:47:45.0000000+00:00</time></trkpt><trkpt lat="39.53448406" lon="-0.3439488"><ele>7.4</ele><time>2022-11-09T16:47:46.0000000+00:00</time></trkpt><trkpt lat="39.5344896" lon="-0.34394654"><ele>7.4</ele><time>2022-11-09T16:47:47.0000000+00:00</time></trkpt><trkpt lat="39.5344896" lon="-0.34394654"><ele>7.4</ele><time>2022-11-09T16:47:48.0000000+00:00</time></trkpt><trkpt lat="39.5344896" lon="-0.34394654"><ele>7.4</ele><time>2022-11-09T16:47:49.0000000+00:00</time></trkpt><trkpt lat="39.5344896" lon="-0.34394654"><ele>7.4</ele><time>2022-11-09T16:47:50.0000000+00:00</time></trkpt><trkpt lat="39.5344896" lon="-0.34394654"><ele>7.6</ele><time>2022-11-09T16:47:51.0000000+00:00</time></trkpt><trkpt lat="39.5344896" lon="-0.34394654"><ele>7.6</ele><time>2022-11-09T16:47:52.0000000+00:00</time></trkpt><trkpt lat="39.5344896" lon="-0.34394654"><ele>7.6</ele><time>2022-11-09T16:47:53.0000000+00:00</time></trkpt><trkpt lat="39.5344896" lon="-0.34394654"><ele>7.6</ele><time>2022-11-09T16:47:54.0000000+00:00</time></trkpt><trkpt lat="39.5344896" lon="-0.34394654"><ele>7.6</ele><time>2022-11-09T16:47:55.0000000+00:00</time></trkpt><trkpt lat="39.5344896" lon="-0.34394654"><ele>7.6</ele><time>2022-11-09T16:47:56.0000000+00:00</time></trkpt><trkpt lat="39.5344896" lon="-0.34394654"><ele>7.6</ele><time>2022-11-09T16:47:57.0000000+00:00</time></trkpt><trkpt lat="39.5344896" lon="-0.34394654"><ele>7.8</ele><time>2022-11-09T16:47:58.0000000+00:00</time></trkpt><trkpt lat="39.5344896" lon="-0.34394654"><ele>7.8</ele><time>2022-11-09T16:47:59.0000000+00:00</time></trkpt><trkpt lat="39.5344896" lon="-0.34394654"><ele>7.8</ele><time>2022-11-09T16:48:00.0000000+00:00</time></trkpt><trkpt lat="39.53448683" lon="-0.34394662"><ele>7.8</ele><time>2022-11-09T16:48:01.0000000+00:00</time></trkpt><trkpt lat="39.53448465" lon="-0.34394846"><ele>7.8</ele><time>2022-11-09T16:48:02.0000000+00:00</time></trkpt><trkpt lat="39.53448465" lon="-0.34394846"><ele>7.8</ele><time>2022-11-09T16:48:03.0000000+00:00</time></trkpt><trkpt lat="39.53448465" lon="-0.34394846"><ele>7.8</ele><time>2022-11-09T16:48:04.0000000+00:00</time></trkpt><trkpt lat="39.53448465" lon="-0.34394846"><ele>7.8</ele><time>2022-11-09T16:48:05.0000000+00:00</time></trkpt><trkpt lat="39.53448465" lon="-0.34394846"><ele>7.8</ele><time>2022-11-09T16:48:06.0000000+00:00</time></trkpt><trkpt lat="39.53448465" lon="-0.34394846"><ele>7.8</ele><time>2022-11-09T16:48:07.0000000+00:00</time></trkpt><trkpt lat="39.53448465" lon="-0.34394846"><ele>7.8</ele><time>2022-11-09T16:48:08.0000000+00:00</time></trkpt><trkpt lat="39.53448465" lon="-0.34394846"><ele>7.8</ele><time>2022-11-09T16:48:09.0000000+00:00</time></trkpt><trkpt lat="39.53448465" lon="-0.34394846"><ele>7.8</ele><time>2022-11-09T16:48:10.0000000+00:00</time></trkpt><trkpt lat="39.53448683" lon="-0.34394997"><ele>7.8</ele><time>2022-11-09T16:48:11.0000000+00:00</time></trkpt><trkpt lat="39.53449043" lon="-0.34395182"><ele>7.8</ele><time>2022-11-09T16:48:12.0000000+00:00</time></trkpt><trkpt lat="39.53449681" lon="-0.3439519"><ele>7.8</ele><time>2022-11-09T16:48:13.0000000+00:00</time></trkpt><trkpt lat="39.53450804" lon="-0.34394846"><ele>7.8</ele><time>2022-11-09T16:48:14.0000000+00:00</time></trkpt><trkpt lat="39.53452388" lon="-0.34394184"><ele>7.6</ele><time>2022-11-09T16:48:15.0000000+00:00</time></trkpt><trkpt lat="39.53454056" lon="-0.34393421"><ele>7.6</ele><time>2022-11-09T16:48:16.0000000+00:00</time></trkpt><trkpt lat="39.53456176" lon="-0.34392776"><ele>7.4</ele><time>2022-11-09T16:48:17.0000000+00:00</time></trkpt><trkpt lat="39.53458875" lon="-0.34392634"><ele>7.4</ele><time>2022-11-09T16:48:18.0000000+00:00</time></trkpt><trkpt lat="39.53461507" lon="-0.3439224"><ele>7.2</ele><time>2022-11-09T16:48:19.0000000+00:00</time></trkpt><trkpt lat="39.53464877" lon="-0.34392214"><ele>7.2</ele><time>2022-11-09T16:48:20.0000000+00:00</time></trkpt><trkpt lat="39.53468255" lon="-0.34391837"><ele>7.0</ele><time>2022-11-09T16:48:21.0000000+00:00</time></trkpt><trkpt lat="39.53471708" lon="-0.34391091"><ele>6.8</ele><time>2022-11-09T16:48:22.0000000+00:00</time></trkpt><trkpt lat="39.53475413" lon="-0.34390488"><ele>6.4</ele><time>2022-11-09T16:48:23.0000000+00:00</time></trkpt><trkpt lat="39.53478908" lon="-0.34389993"><ele>6.2</ele><time>2022-11-09T16:48:24.0000000+00:00</time></trkpt><trkpt lat="39.53482898" lon="-0.34389608"><ele>6.2</ele><time>2022-11-09T16:48:25.0000000+00:00</time></trkpt><trkpt lat="39.53487609" lon="-0.34389306"><ele>6.2</ele><time>2022-11-09T16:48:26.0000000+00:00</time></trkpt><trkpt lat="39.53491766" lon="-0.34389105"><ele>6.4</ele><time>2022-11-09T16:48:27.0000000+00:00</time></trkpt><trkpt lat="39.53495412" lon="-0.34388728"><ele>6.8</ele><time>2022-11-09T16:48:28.0000000+00:00</time></trkpt><trkpt lat="39.53499092" lon="-0.34388526"><ele>6.8</ele><time>2022-11-09T16:48:29.0000000+00:00</time></trkpt><trkpt lat="39.53503191" lon="-0.34388652"><ele>7.2</ele><time>2022-11-09T16:48:30.0000000+00:00</time></trkpt><trkpt lat="39.53507331" lon="-0.34388837"><ele>7.2</ele><time>2022-11-09T16:48:31.0000000+00:00</time></trkpt><trkpt lat="39.53511346" lon="-0.34388602"><ele>7.4</ele><time>2022-11-09T16:48:32.0000000+00:00</time></trkpt><trkpt lat="39.53515638" lon="-0.34388225"><ele>7.4</ele><time>2022-11-09T16:48:33.0000000+00:00</time></trkpt><trkpt lat="39.53520172" lon="-0.34387864"><ele>7.4</ele><time>2022-11-09T16:48:34.0000000+00:00</time></trkpt><trkpt lat="39.5352469" lon="-0.3438742"><ele>7.4</ele><time>2022-11-09T16:48:35.0000000+00:00</time></trkpt><trkpt lat="39.53529082" lon="-0.34386884"><ele>7.4</ele><time>2022-11-09T16:48:36.0000000+00:00</time></trkpt><trkpt lat="39.53533835" lon="-0.34386531"><ele>7.6</ele><time>2022-11-09T16:48:37.0000000+00:00</time></trkpt><trkpt lat="39.5353883" lon="-0.34386045"><ele>7.6</ele><time>2022-11-09T16:48:38.0000000+00:00</time></trkpt><trkpt lat="39.53544027" lon="-0.34385568"><ele>7.8</ele><time>2022-11-09T16:48:39.0000000+00:00</time></trkpt><trkpt lat="39.53549056" lon="-0.34384998"><ele>8.0</ele><time>2022-11-09T16:48:40.0000000+00:00</time></trkpt><trkpt lat="39.53553993" lon="-0.34384134"><ele>8.2</ele><time>2022-11-09T16:48:41.0000000+00:00</time></trkpt><trkpt lat="39.53559031" lon="-0.34383296"><ele>8.2</ele><time>2022-11-09T16:48:42.0000000+00:00</time></trkpt><trkpt lat="39.53564387" lon="-0.34382718"><ele>8.4</ele><time>2022-11-09T16:48:43.0000000+00:00</time></trkpt><trkpt lat="39.53569617" lon="-0.34382148"><ele>8.4</ele><time>2022-11-09T16:48:44.0000000+00:00</time></trkpt><trkpt lat="39.53574202" lon="-0.34381586"><ele>8.4</ele><time>2022-11-09T16:48:45.0000000+00:00</time></trkpt><trkpt lat="39.5357908" lon="-0.34381284"><ele>8.6</ele><time>2022-11-09T16:48:46.0000000+00:00</time></trkpt><trkpt lat="39.53584017" lon="-0.34380916"><ele>8.6</ele><time>2022-11-09T16:48:47.0000000+00:00</time></trkpt><trkpt lat="39.53589331" lon="-0.34380614"><ele>8.6</ele><time>2022-11-09T16:48:48.0000000+00:00</time></trkpt><trkpt lat="39.53594352" lon="-0.34380086"><ele>8.6</ele><time>2022-11-09T16:48:49.0000000+00:00</time></trkpt><trkpt lat="39.5359944" lon="-0.34379583"><ele>8.6</ele><time>2022-11-09T16:48:50.0000000+00:00</time></trkpt><trkpt lat="39.53604905" lon="-0.34379231"><ele>8.6</ele><time>2022-11-09T16:48:51.0000000+00:00</time></trkpt><trkpt lat="39.5361073" lon="-0.34379021"><ele>8.4</ele><time>2022-11-09T16:48:52.0000000+00:00</time></trkpt><trkpt lat="39.53616665" lon="-0.34378761"><ele>8.4</ele><time>2022-11-09T16:48:53.0000000+00:00</time></trkpt><trkpt lat="39.53622147" lon="-0.34378376"><ele>8.2</ele><time>2022-11-09T16:48:54.0000000+00:00</time></trkpt><trkpt lat="39.53627293" lon="-0.34378175"><ele>8.2</ele><time>2022-11-09T16:48:55.0000000+00:00</time></trkpt><trkpt lat="39.53632297" lon="-0.34377948"><ele>8.2</ele><time>2022-11-09T16:48:56.0000000+00:00</time></trkpt><trkpt lat="39.53637661" lon="-0.34377521"><ele>8.2</ele><time>2022-11-09T16:48:57.0000000+00:00</time></trkpt><trkpt lat="39.53643194" lon="-0.34376951"><ele>8.2</ele><time>2022-11-09T16:48:58.0000000+00:00</time></trkpt><trkpt lat="39.53648524" lon="-0.34376322"><ele>8.4</ele><time>2022-11-09T16:48:59.0000000+00:00</time></trkpt><trkpt lat="39.53654174" lon="-0.34375819"><ele>8.4</ele><time>2022-11-09T16:49:00.0000000+00:00</time></trkpt><trkpt lat="39.53659739" lon="-0.34375082"><ele>8.6</ele><time>2022-11-09T16:49:01.0000000+00:00</time></trkpt><trkpt lat="39.53665255" lon="-0.34374135"><ele>8.6</ele><time>2022-11-09T16:49:02.0000000+00:00</time></trkpt><trkpt lat="39.53670678" lon="-0.34373565"><ele>8.6</ele><time>2022-11-09T16:49:03.0000000+00:00</time></trkpt><trkpt lat="39.53675916" lon="-0.34373095"><ele>8.8</ele><time>2022-11-09T16:49:04.0000000+00:00</time></trkpt><trkpt lat="39.53680007" lon="-0.34372416"><ele>8.8</ele><time>2022-11-09T16:49:05.0000000+00:00</time></trkpt><trkpt lat="39.53684977" lon="-0.34371989"><ele>8.6</ele><time>2022-11-09T16:49:06.0000000+00:00</time></trkpt><trkpt lat="39.53690325" lon="-0.34371503"><ele>8.8</ele><time>2022-11-09T16:49:07.0000000+00:00</time></trkpt><trkpt lat="39.53695346" lon="-0.34370631"><ele>8.8</ele><time>2022-11-09T16:49:08.0000000+00:00</time></trkpt><trkpt lat="39.5370066" lon="-0.34370136"><ele>8.8</ele><time>2022-11-09T16:49:09.0000000+00:00</time></trkpt><trkpt lat="39.53706284" lon="-0.34369072"><ele>8.8</ele><time>2022-11-09T16:49:10.0000000+00:00</time></trkpt><trkpt lat="39.53711657" lon="-0.34367806"><ele>8.8</ele><time>2022-11-09T16:49:11.0000000+00:00</time></trkpt><trkpt lat="39.53716829" lon="-0.34366876"><ele>8.8</ele><time>2022-11-09T16:49:12.0000000+00:00</time></trkpt><trkpt lat="39.53721631" lon="-0.34366281"><ele>8.8</ele><time>2022-11-09T16:49:13.0000000+00:00</time></trkpt><trkpt lat="39.53725554" lon="-0.34366356"><ele>8.8</ele><time>2022-11-09T16:49:14.0000000+00:00</time></trkpt><trkpt lat="39.53728991" lon="-0.34367194"><ele>8.8</ele><time>2022-11-09T16:49:15.0000000+00:00</time></trkpt><trkpt lat="39.53731681" lon="-0.34368653"><ele>8.8</ele><time>2022-11-09T16:49:16.0000000+00:00</time></trkpt><trkpt lat="39.53733718" lon="-0.34371302"><ele>8.8</ele><time>2022-11-09T16:49:17.0000000+00:00</time></trkpt><trkpt lat="39.53734908" lon="-0.34374956"><ele>8.8</ele><time>2022-11-09T16:49:18.0000000+00:00</time></trkpt><trkpt lat="39.53736275" lon="-0.3437882"><ele>8.8</ele><time>2022-11-09T16:49:19.0000000+00:00</time></trkpt><trkpt lat="39.53738177" lon="-0.34382458"><ele>9.0</ele><time>2022-11-09T16:49:20.0000000+00:00</time></trkpt><trkpt lat="39.53740574" lon="-0.34385853"><ele>9.0</ele><time>2022-11-09T16:49:21.0000000+00:00</time></trkpt><trkpt lat="39.53743366" lon="-0.34389046"><ele>9.2</ele><time>2022-11-09T16:49:22.0000000+00:00</time></trkpt><trkpt lat="39.53746215" lon="-0.34392105"><ele>9.2</ele><time>2022-11-09T16:49:23.0000000+00:00</time></trkpt><trkpt lat="39.53749233" lon="-0.34394972"><ele>9.4</ele><time>2022-11-09T16:49:24.0000000+00:00</time></trkpt><trkpt lat="39.53752586" lon="-0.34397805"><ele>9.4</ele><time>2022-11-09T16:49:25.0000000+00:00</time></trkpt><trkpt lat="39.53756148" lon="-0.34400295"><ele>9.4</ele><time>2022-11-09T16:49:26.0000000+00:00</time></trkpt><trkpt lat="39.53759199" lon="-0.34402868"><ele>9.4</ele><time>2022-11-09T16:49:27.0000000+00:00</time></trkpt><trkpt lat="39.53762007" lon="-0.34405793"><ele>9.6</ele><time>2022-11-09T16:49:28.0000000+00:00</time></trkpt><trkpt lat="39.5376453" lon="-0.34409129"><ele>9.6</ele><time>2022-11-09T16:49:29.0000000+00:00</time></trkpt><trkpt lat="39.53767153" lon="-0.34412423"><ele>9.4</ele><time>2022-11-09T16:49:30.0000000+00:00</time></trkpt><trkpt lat="39.53770045" lon="-0.34415013"><ele>9.2</ele><time>2022-11-09T16:49:31.0000000+00:00</time></trkpt><trkpt lat="39.53772987" lon="-0.34416153"><ele>9.0</ele><time>2022-11-09T16:49:32.0000000+00:00</time></trkpt><trkpt lat="39.53775996" lon="-0.34416061"><ele>8.8</ele><time>2022-11-09T16:49:33.0000000+00:00</time></trkpt><trkpt lat="39.53778964" lon="-0.34415172"><ele>8.8</ele><time>2022-11-09T16:49:34.0000000+00:00</time></trkpt><trkpt lat="39.53781621" lon="-0.34413848"><ele>8.8</ele><time>2022-11-09T16:49:35.0000000+00:00</time></trkpt><trkpt lat="39.5378385" lon="-0.34412507"><ele>8.8</ele><time>2022-11-09T16:49:36.0000000+00:00</time></trkpt><trkpt lat="39.53785292" lon="-0.34411359"><ele>8.8</ele><time>2022-11-09T16:49:37.0000000+00:00</time></trkpt><trkpt lat="39.53786407" lon="-0.34410227"><ele>8.8</ele><time>2022-11-09T16:49:38.0000000+00:00</time></trkpt><trkpt lat="39.53788075" lon="-0.34408408"><ele>9.0</ele><time>2022-11-09T16:49:39.0000000+00:00</time></trkpt><trkpt lat="39.53791134" lon="-0.34406019"><ele>9.0</ele><time>2022-11-09T16:49:40.0000000+00:00</time></trkpt><trkpt lat="39.53794302" lon="-0.34402943"><ele>9.0</ele><time>2022-11-09T16:49:41.0000000+00:00</time></trkpt><trkpt lat="39.53797421" lon="-0.34400001"><ele>9.0</ele><time>2022-11-09T16:49:42.0000000+00:00</time></trkpt><trkpt lat="39.53801008" lon="-0.34398048"><ele>9.0</ele><time>2022-11-09T16:49:43.0000000+00:00</time></trkpt><trkpt lat="39.53805476" lon="-0.34397327"><ele>9.0</ele><time>2022-11-09T16:49:44.0000000+00:00</time></trkpt><trkpt lat="39.53810287" lon="-0.34398207"><ele>9.0</ele><time>2022-11-09T16:49:45.0000000+00:00</time></trkpt><trkpt lat="39.53815366" lon="-0.34399959"><ele>9.0</ele><time>2022-11-09T16:49:46.0000000+00:00</time></trkpt><trkpt lat="39.53820337" lon="-0.34401594"><ele>9.0</ele><time>2022-11-09T16:49:47.0000000+00:00</time></trkpt><trkpt lat="39.53825265" lon="-0.34401602"><ele>9.0</ele><time>2022-11-09T16:49:48.0000000+00:00</time></trkpt><trkpt lat="39.53829875" lon="-0.34399431"><ele>9.0</ele><time>2022-11-09T16:49:49.0000000+00:00</time></trkpt><trkpt lat="39.53833798" lon="-0.34394888"><ele>9.0</ele><time>2022-11-09T16:49:50.0000000+00:00</time></trkpt><trkpt lat="39.53836992" lon="-0.34389323"><ele>9.0</ele><time>2022-11-09T16:49:51.0000000+00:00</time></trkpt><trkpt lat="39.53839992" lon="-0.3438348"><ele>9.2</ele><time>2022-11-09T16:49:52.0000000+00:00</time></trkpt><trkpt lat="39.53843303" lon="-0.34378099"><ele>9.2</ele><time>2022-11-09T16:49:53.0000000+00:00</time></trkpt><trkpt lat="39.53846966" lon="-0.34373255"><ele>9.0</ele><time>2022-11-09T16:49:54.0000000+00:00</time></trkpt><trkpt lat="39.53850696" lon="-0.34368963"><ele>9.0</ele><time>2022-11-09T16:49:55.0000000+00:00</time></trkpt><trkpt lat="39.53854887" lon="-0.34365141"><ele>9.2</ele><time>2022-11-09T16:49:56.0000000+00:00</time></trkpt><trkpt lat="39.53859732" lon="-0.34361679"><ele>9.2</ele><time>2022-11-09T16:49:57.0000000+00:00</time></trkpt><trkpt lat="39.53865046" lon="-0.34358787"><ele>9.2</ele><time>2022-11-09T16:49:58.0000000+00:00</time></trkpt><trkpt lat="39.53870527" lon="-0.34356114"><ele>9.0</ele><time>2022-11-09T16:49:59.0000000+00:00</time></trkpt><trkpt lat="39.53875733" lon="-0.34353473"><ele>9.0</ele><time>2022-11-09T16:50:00.0000000+00:00</time></trkpt><trkpt lat="39.53881055" lon="-0.34351805"><ele>9.0</ele><time>2022-11-09T16:50:01.0000000+00:00</time></trkpt><trkpt lat="39.53886797" lon="-0.34350808"><ele>9.0</ele><time>2022-11-09T16:50:02.0000000+00:00</time></trkpt><trkpt lat="39.53892287" lon="-0.34350079"><ele>9.0</ele><time>2022-11-09T16:50:03.0000000+00:00</time></trkpt><trkpt lat="39.53897995" lon="-0.343494"><ele>9.0</ele><time>2022-11-09T16:50:04.0000000+00:00</time></trkpt><trkpt lat="39.53903871" lon="-0.34348427"><ele>9.0</ele><time>2022-11-09T16:50:05.0000000+00:00</time></trkpt><trkpt lat="39.53909654" lon="-0.34347824"><ele>9.0</ele><time>2022-11-09T16:50:06.0000000+00:00</time></trkpt><trkpt lat="39.5391589" lon="-0.34347489"><ele>9.2</ele><time>2022-11-09T16:50:07.0000000+00:00</time></trkpt><trkpt lat="39.53922118" lon="-0.34346617"><ele>9.4</ele><time>2022-11-09T16:50:08.0000000+00:00</time></trkpt><trkpt lat="39.53927717" lon="-0.34345544"><ele>9.6</ele><time>2022-11-09T16:50:09.0000000+00:00</time></trkpt><trkpt lat="39.53933836" lon="-0.34345158"><ele>9.4</ele><time>2022-11-09T16:50:10.0000000+00:00</time></trkpt><trkpt lat="39.5393946" lon="-0.34344547"><ele>9.6</ele><time>2022-11-09T16:50:11.0000000+00:00</time></trkpt><trkpt lat="39.53945403" lon="-0.34343583"><ele>9.6</ele><time>2022-11-09T16:50:12.0000000+00:00</time></trkpt><trkpt lat="39.53951346" lon="-0.34342577"><ele>9.6</ele><time>2022-11-09T16:50:13.0000000+00:00</time></trkpt><trkpt lat="39.53957481" lon="-0.34341881"><ele>9.6</ele><time>2022-11-09T16:50:14.0000000+00:00</time></trkpt><trkpt lat="39.53963483" lon="-0.3434111"><ele>9.4</ele><time>2022-11-09T16:50:15.0000000+00:00</time></trkpt><trkpt lat="39.53969928" lon="-0.34339945"><ele>9.2</ele><time>2022-11-09T16:50:16.0000000+00:00</time></trkpt><trkpt lat="39.53975829" lon="-0.34338621"><ele>9.2</ele><time>2022-11-09T16:50:17.0000000+00:00</time></trkpt><trkpt lat="39.53981588" lon="-0.34337271"><ele>9.2</ele><time>2022-11-09T16:50:18.0000000+00:00</time></trkpt><trkpt lat="39.53987455" lon="-0.34335737"><ele>9.2</ele><time>2022-11-09T16:50:19.0000000+00:00</time></trkpt><trkpt lat="39.53993121" lon="-0.34334413"><ele>9.4</ele><time>2022-11-09T16:50:20.0000000+00:00</time></trkpt><trkpt lat="39.53998871" lon="-0.34333298"><ele>9.6</ele><time>2022-11-09T16:50:21.0000000+00:00</time></trkpt><trkpt lat="39.54004873" lon="-0.34332695"><ele>9.6</ele><time>2022-11-09T16:50:22.0000000+00:00</time></trkpt><trkpt lat="39.54010748" lon="-0.34332007"><ele>9.8</ele><time>2022-11-09T16:50:23.0000000+00:00</time></trkpt><trkpt lat="39.54016783" lon="-0.34331203"><ele>9.8</ele><time>2022-11-09T16:50:24.0000000+00:00</time></trkpt><trkpt lat="39.54022927" lon="-0.34330213"><ele>9.8</ele><time>2022-11-09T16:50:25.0000000+00:00</time></trkpt><trkpt lat="39.54029038" lon="-0.34328504"><ele>10.0</ele><time>2022-11-09T16:50:26.0000000+00:00</time></trkpt><trkpt lat="39.54035341" lon="-0.34326802"><ele>10.0</ele><time>2022-11-09T16:50:27.0000000+00:00</time></trkpt><trkpt lat="39.54041812" lon="-0.3432552"><ele>10.0</ele><time>2022-11-09T16:50:28.0000000+00:00</time></trkpt><trkpt lat="39.54048274" lon="-0.34324447"><ele>10.0</ele><time>2022-11-09T16:50:29.0000000+00:00</time></trkpt><trkpt lat="39.54054552" lon="-0.34323181"><ele>10.0</ele><time>2022-11-09T16:50:30.0000000+00:00</time></trkpt><trkpt lat="39.54060688" lon="-0.34321697"><ele>10.2</ele><time>2022-11-09T16:50:31.0000000+00:00</time></trkpt><trkpt lat="39.54066941" lon="-0.34320088"><ele>10.2</ele><time>2022-11-09T16:50:32.0000000+00:00</time></trkpt><trkpt lat="39.54073252" lon="-0.3431868"><ele>10.2</ele><time>2022-11-09T16:50:33.0000000+00:00</time></trkpt><trkpt lat="39.54079446" lon="-0.34317331"><ele>10.4</ele><time>2022-11-09T16:50:34.0000000+00:00</time></trkpt><trkpt lat="39.54085733" lon="-0.34316132"><ele>10.4</ele><time>2022-11-09T16:50:35.0000000+00:00</time></trkpt><trkpt lat="39.5409212" lon="-0.34314849"><ele>10.4</ele><time>2022-11-09T16:50:36.0000000+00:00</time></trkpt><trkpt lat="39.54098649" lon="-0.34313575"><ele>10.4</ele><time>2022-11-09T16:50:37.0000000+00:00</time></trkpt><trkpt lat="39.54104944" lon="-0.34312159"><ele>10.4</ele><time>2022-11-09T16:50:38.0000000+00:00</time></trkpt><trkpt lat="39.5411134" lon="-0.34310675"><ele>10.4</ele><time>2022-11-09T16:50:39.0000000+00:00</time></trkpt><trkpt lat="39.54118112" lon="-0.34309728"><ele>10.6</ele><time>2022-11-09T16:50:40.0000000+00:00</time></trkpt><trkpt lat="39.54124793" lon="-0.34308203"><ele>10.8</ele><time>2022-11-09T16:50:41.0000000+00:00</time></trkpt><trkpt lat="39.54130844" lon="-0.34306593"><ele>10.8</ele><time>2022-11-09T16:50:42.0000000+00:00</time></trkpt><trkpt lat="39.54136502" lon="-0.34304858"><ele>11.0</ele><time>2022-11-09T16:50:43.0000000+00:00</time></trkpt><trkpt lat="39.54141841" lon="-0.34303056"><ele>11.0</ele><time>2022-11-09T16:50:44.0000000+00:00</time></trkpt><trkpt lat="39.54147063" lon="-0.34301078"><ele>11.0</ele><time>2022-11-09T16:50:45.0000000+00:00</time></trkpt><trkpt lat="39.5415231" lon="-0.34298924"><ele>11.0</ele><time>2022-11-09T16:50:46.0000000+00:00</time></trkpt><trkpt lat="39.54157524" lon="-0.34297147"><ele>11.0</ele><time>2022-11-09T16:50:47.0000000+00:00</time></trkpt><trkpt lat="39.54162511" lon="-0.34295437"><ele>11.0</ele><time>2022-11-09T16:50:48.0000000+00:00</time></trkpt><trkpt lat="39.54167381" lon="-0.34293752"><ele>10.8</ele><time>2022-11-09T16:50:49.0000000+00:00</time></trkpt><trkpt lat="39.54172519" lon="-0.34292604"><ele>10.8</ele><time>2022-11-09T16:50:50.0000000+00:00</time></trkpt><trkpt lat="39.5417754" lon="-0.34291741"><ele>10.6</ele><time>2022-11-09T16:50:51.0000000+00:00</time></trkpt><trkpt lat="39.54182737" lon="-0.342905"><ele>10.6</ele><time>2022-11-09T16:50:52.0000000+00:00</time></trkpt><trkpt lat="39.54188" lon="-0.34289067"><ele>10.4</ele><time>2022-11-09T16:50:53.0000000+00:00</time></trkpt><trkpt lat="39.54193675" lon="-0.3428755"><ele>10.4</ele><time>2022-11-09T16:50:54.0000000+00:00</time></trkpt><trkpt lat="39.541995" lon="-0.34286074"><ele>10.4</ele><time>2022-11-09T16:50:55.0000000+00:00</time></trkpt><trkpt lat="39.5420525" lon="-0.34284339"><ele>10.4</ele><time>2022-11-09T16:50:56.0000000+00:00</time></trkpt><trkpt lat="39.54210699" lon="-0.34282453"><ele>10.2</ele><time>2022-11-09T16:50:57.0000000+00:00</time></trkpt><trkpt lat="39.54216021" lon="-0.34280417"><ele>10.4</ele><time>2022-11-09T16:50:58.0000000+00:00</time></trkpt><trkpt lat="39.54221696" lon="-0.34278715"><ele>10.6</ele><time>2022-11-09T16:50:59.0000000+00:00</time></trkpt><trkpt lat="39.54227102" lon="-0.34276712"><ele>10.6</ele><time>2022-11-09T16:51:00.0000000+00:00</time></trkpt><trkpt lat="39.54232609" lon="-0.34274792"><ele>10.6</ele><time>2022-11-09T16:51:01.0000000+00:00</time></trkpt><trkpt lat="39.54238476" lon="-0.34272714"><ele>10.8</ele><time>2022-11-09T16:51:02.0000000+00:00</time></trkpt><trkpt lat="39.54243933" lon="-0.34270928"><ele>10.8</ele><time>2022-11-09T16:51:03.0000000+00:00</time></trkpt><trkpt lat="39.54248266" lon="-0.34268447"><ele>10.8</ele><time>2022-11-09T16:51:04.0000000+00:00</time></trkpt><trkpt lat="39.54250538" lon="-0.34265287"><ele>11.0</ele><time>2022-11-09T16:51:05.0000000+00:00</time></trkpt><trkpt lat="39.54250781" lon="-0.34261968"><ele>11.0</ele><time>2022-11-09T16:51:06.0000000+00:00</time></trkpt><trkpt lat="39.54250521" lon="-0.3425885"><ele>11.0</ele><time>2022-11-09T16:51:07.0000000+00:00</time></trkpt><trkpt lat="39.54249817" lon="-0.34255992"><ele>11.0</ele><time>2022-11-09T16:51:08.0000000+00:00</time></trkpt><trkpt lat="39.54248794" lon="-0.34253226"><ele>11.0</ele><time>2022-11-09T16:51:09.0000000+00:00</time></trkpt><trkpt lat="39.54247763" lon="-0.34250435"><ele>10.8</ele><time>2022-11-09T16:51:10.0000000+00:00</time></trkpt><trkpt lat="39.54246925" lon="-0.34247233"><ele>10.8</ele><time>2022-11-09T16:51:11.0000000+00:00</time></trkpt><trkpt lat="39.54245836" lon="-0.34244031"><ele>10.8</ele><time>2022-11-09T16:51:12.0000000+00:00</time></trkpt><trkpt lat="39.54244587" lon="-0.34240385"><ele>10.8</ele><time>2022-11-09T16:51:13.0000000+00:00</time></trkpt><trkpt lat="39.54242952" lon="-0.34236319"><ele>10.6</ele><time>2022-11-09T16:51:14.0000000+00:00</time></trkpt><trkpt lat="39.54242332" lon="-0.34232087"><ele>10.6</ele><time>2022-11-09T16:51:15.0000000+00:00</time></trkpt><trkpt lat="39.54243145" lon="-0.34227745"><ele>10.6</ele><time>2022-11-09T16:51:16.0000000+00:00</time></trkpt><trkpt lat="39.54244654" lon="-0.34223244"><ele>10.6</ele><time>2022-11-09T16:51:17.0000000+00:00</time></trkpt><trkpt lat="39.5424602" lon="-0.34218106"><ele>10.4</ele><time>2022-11-09T16:51:18.0000000+00:00</time></trkpt><trkpt lat="39.5424711" lon="-0.34213051"><ele>10.4</ele><time>2022-11-09T16:51:19.0000000+00:00</time></trkpt><trkpt lat="39.54248241" lon="-0.34208349"><ele>10.4</ele><time>2022-11-09T16:51:20.0000000+00:00</time></trkpt><trkpt lat="39.54249188" lon="-0.34204443"><ele>10.2</ele><time>2022-11-09T16:51:21.0000000+00:00</time></trkpt><trkpt lat="39.54249867" lon="-0.34201233"><ele>10.2</ele><time>2022-11-09T16:51:22.0000000+00:00</time></trkpt><trkpt lat="39.54250043" lon="-0.34199003"><ele>10.2</ele><time>2022-11-09T16:51:23.0000000+00:00</time></trkpt><trkpt lat="39.54250119" lon="-0.34197335"><ele>10.2</ele><time>2022-11-09T16:51:24.0000000+00:00</time></trkpt><trkpt lat="39.54250789" lon="-0.34195256"><ele>10.0</ele><time>2022-11-09T16:51:25.0000000+00:00</time></trkpt><trkpt lat="39.54252533" lon="-0.34192692"><ele>10.0</ele><time>2022-11-09T16:51:26.0000000+00:00</time></trkpt><trkpt lat="39.54254796" lon="-0.34189741"><ele>10.0</ele><time>2022-11-09T16:51:27.0000000+00:00</time></trkpt><trkpt lat="39.54257218" lon="-0.34186187"><ele>10.0</ele><time>2022-11-09T16:51:28.0000000+00:00</time></trkpt><trkpt lat="39.54259322" lon="-0.34182256"><ele>10.0</ele><time>2022-11-09T16:51:29.0000000+00:00</time></trkpt><trkpt lat="39.54261585" lon="-0.34178157"><ele>9.8</ele><time>2022-11-09T16:51:30.0000000+00:00</time></trkpt><trkpt lat="39.5426384" lon="-0.34174939"><ele>9.8</ele><time>2022-11-09T16:51:31.0000000+00:00</time></trkpt><trkpt lat="39.54266824" lon="-0.34172692"><ele>9.8</ele><time>2022-11-09T16:51:32.0000000+00:00</time></trkpt><trkpt lat="39.54270294" lon="-0.34171586"><ele>9.8</ele><time>2022-11-09T16:51:33.0000000+00:00</time></trkpt><trkpt lat="39.54273907" lon="-0.34171133"><ele>9.8</ele><time>2022-11-09T16:51:34.0000000+00:00</time></trkpt><trkpt lat="39.54277494" lon="-0.34171209"><ele>9.6</ele><time>2022-11-09T16:51:35.0000000+00:00</time></trkpt><trkpt lat="39.54280755" lon="-0.34171217"><ele>9.6</ele><time>2022-11-09T16:51:36.0000000+00:00</time></trkpt><trkpt lat="39.5428378" lon="-0.34171477"><ele>9.4</ele><time>2022-11-09T16:51:37.0000000+00:00</time></trkpt><trkpt lat="39.54286773" lon="-0.34171871"><ele>9.2</ele><time>2022-11-09T16:51:38.0000000+00:00</time></trkpt><trkpt lat="39.54289732" lon="-0.34172424"><ele>9.2</ele><time>2022-11-09T16:51:39.0000000+00:00</time></trkpt><trkpt lat="39.54292757" lon="-0.3417286"><ele>9.2</ele><time>2022-11-09T16:51:40.0000000+00:00</time></trkpt><trkpt lat="39.5429611" lon="-0.34173598"><ele>9.0</ele><time>2022-11-09T16:51:41.0000000+00:00</time></trkpt><trkpt lat="39.54299606" lon="-0.34174629"><ele>9.0</ele><time>2022-11-09T16:51:42.0000000+00:00</time></trkpt><trkpt lat="39.54303126" lon="-0.3417597"><ele>9.0</ele><time>2022-11-09T16:51:43.0000000+00:00</time></trkpt><trkpt lat="39.54306068" lon="-0.34177336"><ele>9.0</ele><time>2022-11-09T16:51:44.0000000+00:00</time></trkpt><trkpt lat="39.54309178" lon="-0.34178484"><ele>9.0</ele><time>2022-11-09T16:51:45.0000000+00:00</time></trkpt><trkpt lat="39.54312371" lon="-0.3417913"><ele>9.2</ele><time>2022-11-09T16:51:46.0000000+00:00</time></trkpt><trkpt lat="39.54315414" lon="-0.34179524"><ele>9.4</ele><time>2022-11-09T16:51:47.0000000+00:00</time></trkpt><trkpt lat="39.54318104" lon="-0.34180102"><ele>9.4</ele><time>2022-11-09T16:51:48.0000000+00:00</time></trkpt><trkpt lat="39.54321197" lon="-0.34180907"><ele>9.4</ele><time>2022-11-09T16:51:49.0000000+00:00</time></trkpt><trkpt lat="39.54324508" lon="-0.34181762"><ele>9.4</ele><time>2022-11-09T16:51:50.0000000+00:00</time></trkpt><trkpt lat="39.54328238" lon="-0.34183069"><ele>9.4</ele><time>2022-11-09T16:51:51.0000000+00:00</time></trkpt><trkpt lat="39.5433253" lon="-0.3418431"><ele>9.6</ele><time>2022-11-09T16:51:52.0000000+00:00</time></trkpt><trkpt lat="39.54336846" lon="-0.34184947"><ele>9.8</ele><time>2022-11-09T16:51:53.0000000+00:00</time></trkpt><trkpt lat="39.54341373" lon="-0.34185022"><ele>9.8</ele><time>2022-11-09T16:51:54.0000000+00:00</time></trkpt><trkpt lat="39.54346058" lon="-0.34184394"><ele>9.8</ele><time>2022-11-09T16:51:55.0000000+00:00</time></trkpt><trkpt lat="39.54350752" lon="-0.34183354"><ele>10.0</ele><time>2022-11-09T16:51:56.0000000+00:00</time></trkpt><trkpt lat="39.54355622" lon="-0.34181862"><ele>10.0</ele><time>2022-11-09T16:51:57.0000000+00:00</time></trkpt><trkpt lat="39.54360844" lon="-0.34180362"><ele>10.0</ele><time>2022-11-09T16:51:58.0000000+00:00</time></trkpt><trkpt lat="39.54366091" lon="-0.34178141"><ele>10.0</ele><time>2022-11-09T16:51:59.0000000+00:00</time></trkpt><trkpt lat="39.54371338" lon="-0.34175224"><ele>10.0</ele><time>2022-11-09T16:52:00.0000000+00:00</time></trkpt><trkpt lat="39.54376442" lon="-0.34172139"><ele>10.0</ele><time>2022-11-09T16:52:01.0000000+00:00</time></trkpt><trkpt lat="39.54381438" lon="-0.34169097"><ele>10.0</ele><time>2022-11-09T16:52:02.0000000+00:00</time></trkpt><trkpt lat="39.54386543" lon="-0.34166238"><ele>10.0</ele><time>2022-11-09T16:52:03.0000000+00:00</time></trkpt><trkpt lat="39.54391957" lon="-0.34163799"><ele>10.0</ele><time>2022-11-09T16:52:04.0000000+00:00</time></trkpt><trkpt lat="39.54397791" lon="-0.34161201"><ele>10.0</ele><time>2022-11-09T16:52:05.0000000+00:00</time></trkpt><trkpt lat="39.54403189" lon="-0.34159298"><ele>10.0</ele><time>2022-11-09T16:52:06.0000000+00:00</time></trkpt><trkpt lat="39.54408419" lon="-0.34156976"><ele>10.0</ele><time>2022-11-09T16:52:07.0000000+00:00</time></trkpt><trkpt lat="39.54413164" lon="-0.34154101"><ele>10.0</ele><time>2022-11-09T16:52:08.0000000+00:00</time></trkpt><trkpt lat="39.54418344" lon="-0.34151587"><ele>10.2</ele><time>2022-11-09T16:52:09.0000000+00:00</time></trkpt><trkpt lat="39.54423901" lon="-0.34149399"><ele>10.2</ele><time>2022-11-09T16:52:10.0000000+00:00</time></trkpt><trkpt lat="39.54429927" lon="-0.34147337"><ele>10.2</ele><time>2022-11-09T16:52:11.0000000+00:00</time></trkpt><trkpt lat="39.54435946" lon="-0.34144764"><ele>10.2</ele><time>2022-11-09T16:52:12.0000000+00:00</time></trkpt><trkpt lat="39.5444157" lon="-0.34142283"><ele>10.2</ele><time>2022-11-09T16:52:13.0000000+00:00</time></trkpt><trkpt lat="39.54446741" lon="-0.3413976"><ele>10.2</ele><time>2022-11-09T16:52:14.0000000+00:00</time></trkpt><trkpt lat="39.54451821" lon="-0.34137044"><ele>10.4</ele><time>2022-11-09T16:52:15.0000000+00:00</time></trkpt><trkpt lat="39.54457495" lon="-0.34134672"><ele>10.2</ele><time>2022-11-09T16:52:16.0000000+00:00</time></trkpt><trkpt lat="39.5446338" lon="-0.34132266"><ele>10.2</ele><time>2022-11-09T16:52:17.0000000+00:00</time></trkpt><trkpt lat="39.54469465" lon="-0.34130045"><ele>10.2</ele><time>2022-11-09T16:52:18.0000000+00:00</time></trkpt><trkpt lat="39.54475315" lon="-0.34127615"><ele>10.2</ele><time>2022-11-09T16:52:19.0000000+00:00</time></trkpt><trkpt lat="39.54481216" lon="-0.34125075"><ele>10.2</ele><time>2022-11-09T16:52:20.0000000+00:00</time></trkpt><trkpt lat="39.54487109" lon="-0.34122384"><ele>10.2</ele><time>2022-11-09T16:52:21.0000000+00:00</time></trkpt><trkpt lat="39.54493328" lon="-0.34119819"><ele>10.2</ele><time>2022-11-09T16:52:22.0000000+00:00</time></trkpt><trkpt lat="39.54499782" lon="-0.3411738"><ele>10.2</ele><time>2022-11-09T16:52:23.0000000+00:00</time></trkpt><trkpt lat="39.54505884" lon="-0.34115042"><ele>10.2</ele><time>2022-11-09T16:52:24.0000000+00:00</time></trkpt><trkpt lat="39.54511751" lon="-0.3411308"><ele>10.2</ele><time>2022-11-09T16:52:25.0000000+00:00</time></trkpt><trkpt lat="39.54517074" lon="-0.34110675"><ele>10.2</ele><time>2022-11-09T16:52:26.0000000+00:00</time></trkpt><trkpt lat="39.54521961" lon="-0.34108403"><ele>10.2</ele><time>2022-11-09T16:52:27.0000000+00:00</time></trkpt><trkpt lat="39.54526898" lon="-0.34106509"><ele>10.2</ele><time>2022-11-09T16:52:28.0000000+00:00</time></trkpt><trkpt lat="39.54531809" lon="-0.34104807"><ele>10.2</ele><time>2022-11-09T16:52:29.0000000+00:00</time></trkpt><trkpt lat="39.54537098" lon="-0.34103014"><ele>10.2</ele><time>2022-11-09T16:52:30.0000000+00:00</time></trkpt><trkpt lat="39.54542597" lon="-0.34100667"><ele>10.2</ele><time>2022-11-09T16:52:31.0000000+00:00</time></trkpt><trkpt lat="39.5454776" lon="-0.34097758"><ele>10.4</ele><time>2022-11-09T16:52:32.0000000+00:00</time></trkpt><trkpt lat="39.54553032" lon="-0.34094808"><ele>10.4</ele><time>2022-11-09T16:52:33.0000000+00:00</time></trkpt><trkpt lat="39.54558397" lon="-0.34091732"><ele>10.6</ele><time>2022-11-09T16:52:34.0000000+00:00</time></trkpt><trkpt lat="39.54563971" lon="-0.34088899"><ele>10.6</ele><time>2022-11-09T16:52:35.0000000+00:00</time></trkpt><trkpt lat="39.54569846" lon="-0.34086149"><ele>10.6</ele><time>2022-11-09T16:52:36.0000000+00:00</time></trkpt><trkpt lat="39.54575689" lon="-0.34083123"><ele>10.6</ele><time>2022-11-09T16:52:37.0000000+00:00</time></trkpt><trkpt lat="39.54581271" lon="-0.34079829"><ele>10.8</ele><time>2022-11-09T16:52:38.0000000+00:00</time></trkpt><trkpt lat="39.54586392" lon="-0.34075881"><ele>10.8</ele><time>2022-11-09T16:52:39.0000000+00:00</time></trkpt><trkpt lat="39.54591706" lon="-0.34072453"><ele>10.8</ele><time>2022-11-09T16:52:40.0000000+00:00</time></trkpt><trkpt lat="39.54597658" lon="-0.34069444"><ele>10.8</ele><time>2022-11-09T16:52:41.0000000+00:00</time></trkpt><trkpt lat="39.54603307" lon="-0.34067005"><ele>10.8</ele><time>2022-11-09T16:52:42.0000000+00:00</time></trkpt><trkpt lat="39.54608127" lon="-0.3406377"><ele>11.0</ele><time>2022-11-09T16:52:43.0000000+00:00</time></trkpt><trkpt lat="39.54612804" lon="-0.34060509"><ele>11.0</ele><time>2022-11-09T16:52:44.0000000+00:00</time></trkpt><trkpt lat="39.54617732" lon="-0.34057475"><ele>11.0</ele><time>2022-11-09T16:52:45.0000000+00:00</time></trkpt><trkpt lat="39.54622828" lon="-0.34054658"><ele>11.0</ele><time>2022-11-09T16:52:46.0000000+00:00</time></trkpt><trkpt lat="39.54628478" lon="-0.34052311"><ele>11.0</ele><time>2022-11-09T16:52:47.0000000+00:00</time></trkpt><trkpt lat="39.54634647" lon="-0.3405009"><ele>10.8</ele><time>2022-11-09T16:52:48.0000000+00:00</time></trkpt><trkpt lat="39.54641135" lon="-0.34047861"><ele>10.8</ele><time>2022-11-09T16:52:49.0000000+00:00</time></trkpt><trkpt lat="39.5464748" lon="-0.34045229"><ele>10.8</ele><time>2022-11-09T16:52:50.0000000+00:00</time></trkpt><trkpt lat="39.54653531" lon="-0.34042127"><ele>10.8</ele><time>2022-11-09T16:52:51.0000000+00:00</time></trkpt><trkpt lat="39.54659633" lon="-0.34038825"><ele>10.8</ele><time>2022-11-09T16:52:52.0000000+00:00</time></trkpt><trkpt lat="39.54665811" lon="-0.34035531"><ele>10.8</ele><time>2022-11-09T16:52:53.0000000+00:00</time></trkpt><trkpt lat="39.54672307" lon="-0.34032119"><ele>10.8</ele><time>2022-11-09T16:52:54.0000000+00:00</time></trkpt><trkpt lat="39.54678468" lon="-0.34028306"><ele>10.8</ele><time>2022-11-09T16:52:55.0000000+00:00</time></trkpt><trkpt lat="39.54684645" lon="-0.34024006"><ele>10.8</ele><time>2022-11-09T16:52:56.0000000+00:00</time></trkpt><trkpt lat="39.54690336" lon="-0.34019555"><ele>10.6</ele><time>2022-11-09T16:52:57.0000000+00:00</time></trkpt><trkpt lat="39.54696002" lon="-0.34015532"><ele>10.6</ele><time>2022-11-09T16:52:58.0000000+00:00</time></trkpt><trkpt lat="39.54701811" lon="-0.34011844"><ele>10.6</ele><time>2022-11-09T16:52:59.0000000+00:00</time></trkpt><trkpt lat="39.54707176" lon="-0.34007996"><ele>10.6</ele><time>2022-11-09T16:53:00.0000000+00:00</time></trkpt><trkpt lat="39.54712808" lon="-0.34004107"><ele>10.6</ele><time>2022-11-09T16:53:01.0000000+00:00</time></trkpt><trkpt lat="39.54718726" lon="-0.34000847"><ele>10.8</ele><time>2022-11-09T16:53:02.0000000+00:00</time></trkpt><trkpt lat="39.54724602" lon="-0.3399762"><ele>10.8</ele><time>2022-11-09T16:53:03.0000000+00:00</time></trkpt><trkpt lat="39.54730184" lon="-0.33994133"><ele>10.8</ele><time>2022-11-09T16:53:04.0000000+00:00</time></trkpt><trkpt lat="39.54735632" lon="-0.33990688"><ele>10.8</ele><time>2022-11-09T16:53:05.0000000+00:00</time></trkpt><trkpt lat="39.54741399" lon="-0.3398726"><ele>11.0</ele><time>2022-11-09T16:53:06.0000000+00:00</time></trkpt><trkpt lat="39.54747484" lon="-0.33983488"><ele>11.0</ele><time>2022-11-09T16:53:07.0000000+00:00</time></trkpt><trkpt lat="39.54753578" lon="-0.3397949"><ele>11.2</ele><time>2022-11-09T16:53:08.0000000+00:00</time></trkpt><trkpt lat="39.54759135" lon="-0.33975332"><ele>11.2</ele><time>2022-11-09T16:53:09.0000000+00:00</time></trkpt><trkpt lat="39.54764868" lon="-0.33971594"><ele>11.2</ele><time>2022-11-09T16:53:10.0000000+00:00</time></trkpt><trkpt lat="39.54770593" lon="-0.3396835"><ele>11.2</ele><time>2022-11-09T16:53:11.0000000+00:00</time></trkpt><trkpt lat="39.54776527" lon="-0.33965374"><ele>11.0</ele><time>2022-11-09T16:53:12.0000000+00:00</time></trkpt><trkpt lat="39.54782386" lon="-0.33962625"><ele>10.8</ele><time>2022-11-09T16:53:13.0000000+00:00</time></trkpt><trkpt lat="39.54788346" lon="-0.33959842"><ele>10.6</ele><time>2022-11-09T16:53:14.0000000+00:00</time></trkpt><trkpt lat="39.54793987" lon="-0.33957085"><ele>10.4</ele><time>2022-11-09T16:53:15.0000000+00:00</time></trkpt><trkpt lat="39.54799393" lon="-0.33954109"><ele>10.2</ele><time>2022-11-09T16:53:16.0000000+00:00</time></trkpt><trkpt lat="39.54804565" lon="-0.33950941"><ele>10.2</ele><time>2022-11-09T16:53:17.0000000+00:00</time></trkpt><trkpt lat="39.54809401" lon="-0.33947144"><ele>10.2</ele><time>2022-11-09T16:53:18.0000000+00:00</time></trkpt><trkpt lat="39.54814456" lon="-0.33942819"><ele>10.2</ele><time>2022-11-09T16:53:19.0000000+00:00</time></trkpt><trkpt lat="39.54819686" lon="-0.33938561"><ele>10.2</ele><time>2022-11-09T16:53:20.0000000+00:00</time></trkpt><trkpt lat="39.54825075" lon="-0.33934563"><ele>10.2</ele><time>2022-11-09T16:53:21.0000000+00:00</time></trkpt><trkpt lat="39.54830742" lon="-0.33930874"><ele>10.2</ele><time>2022-11-09T16:53:22.0000000+00:00</time></trkpt><trkpt lat="39.54836316" lon="-0.33927052"><ele>10.2</ele><time>2022-11-09T16:53:23.0000000+00:00</time></trkpt><trkpt lat="39.54842074" lon="-0.33923255"><ele>10.2</ele><time>2022-11-09T16:53:24.0000000+00:00</time></trkpt><trkpt lat="39.5484795" lon="-0.33919752"><ele>10.2</ele><time>2022-11-09T16:53:25.0000000+00:00</time></trkpt><trkpt lat="39.54853457" lon="-0.33916592"><ele>10.4</ele><time>2022-11-09T16:53:26.0000000+00:00</time></trkpt><trkpt lat="39.5485888" lon="-0.33913784"><ele>10.4</ele><time>2022-11-09T16:53:27.0000000+00:00</time></trkpt><trkpt lat="39.54865099" lon="-0.3391163"><ele>10.4</ele><time>2022-11-09T16:53:28.0000000+00:00</time></trkpt><trkpt lat="39.54871151" lon="-0.33908847"><ele>10.4</ele><time>2022-11-09T16:53:29.0000000+00:00</time></trkpt><trkpt lat="39.5487685" lon="-0.33905343"><ele>10.4</ele><time>2022-11-09T16:53:30.0000000+00:00</time></trkpt><trkpt lat="39.54882148" lon="-0.33901035"><ele>10.4</ele><time>2022-11-09T16:53:31.0000000+00:00</time></trkpt><trkpt lat="39.54887915" lon="-0.33896601"><ele>10.4</ele><time>2022-11-09T16:53:32.0000000+00:00</time></trkpt><trkpt lat="39.54894126" lon="-0.33892578"><ele>10.4</ele><time>2022-11-09T16:53:33.0000000+00:00</time></trkpt><trkpt lat="39.54899959" lon="-0.33888739"><ele>10.2</ele><time>2022-11-09T16:53:34.0000000+00:00</time></trkpt><trkpt lat="39.54905936" lon="-0.33885109"><ele>10.2</ele><time>2022-11-09T16:53:35.0000000+00:00</time></trkpt><trkpt lat="39.54912063" lon="-0.33882033"><ele>10.2</ele><time>2022-11-09T16:53:36.0000000+00:00</time></trkpt><trkpt lat="39.5491762" lon="-0.33878957"><ele>10.0</ele><time>2022-11-09T16:53:37.0000000+00:00</time></trkpt><trkpt lat="39.54923211" lon="-0.33875546"><ele>10.0</ele><time>2022-11-09T16:53:38.0000000+00:00</time></trkpt><trkpt lat="39.54928726" lon="-0.33872352"><ele>9.8</ele><time>2022-11-09T16:53:39.0000000+00:00</time></trkpt><trkpt lat="39.54934074" lon="-0.33869594"><ele>9.8</ele><time>2022-11-09T16:53:40.0000000+00:00</time></trkpt><trkpt lat="39.54938977" lon="-0.33866845"><ele>9.8</ele><time>2022-11-09T16:53:41.0000000+00:00</time></trkpt><trkpt lat="39.54943612" lon="-0.33864146"><ele>9.8</ele><time>2022-11-09T16:53:42.0000000+00:00</time></trkpt><trkpt lat="39.54947996" lon="-0.33861372"><ele>9.8</ele><time>2022-11-09T16:53:43.0000000+00:00</time></trkpt><trkpt lat="39.5495191" lon="-0.33858405"><ele>9.8</ele><time>2022-11-09T16:53:44.0000000+00:00</time></trkpt><trkpt lat="39.54955339" lon="-0.33855689"><ele>9.8</ele><time>2022-11-09T16:53:45.0000000+00:00</time></trkpt><trkpt lat="39.5495911" lon="-0.33853065"><ele>9.8</ele><time>2022-11-09T16:53:46.0000000+00:00</time></trkpt><trkpt lat="39.54963033" lon="-0.33850266"><ele>9.8</ele><time>2022-11-09T16:53:47.0000000+00:00</time></trkpt><trkpt lat="39.54967015" lon="-0.33847827"><ele>9.8</ele><time>2022-11-09T16:53:48.0000000+00:00</time></trkpt><trkpt lat="39.54970711" lon="-0.3384522"><ele>9.8</ele><time>2022-11-09T16:53:49.0000000+00:00</time></trkpt><trkpt lat="39.54974215" lon="-0.33842211"><ele>9.6</ele><time>2022-11-09T16:53:50.0000000+00:00</time></trkpt><trkpt lat="39.54977978" lon="-0.33839277"><ele>9.6</ele><time>2022-11-09T16:53:51.0000000+00:00</time></trkpt><trkpt lat="39.54981649" lon="-0.33835958"><ele>9.4</ele><time>2022-11-09T16:53:52.0000000+00:00</time></trkpt><trkpt lat="39.54984977" lon="-0.33833594"><ele>9.4</ele><time>2022-11-09T16:53:53.0000000+00:00</time></trkpt><trkpt lat="39.54987223" lon="-0.3383139"><ele>9.2</ele><time>2022-11-09T16:53:54.0000000+00:00</time></trkpt><trkpt lat="39.54989595" lon="-0.33829261"><ele>9.2</ele><time>2022-11-09T16:53:55.0000000+00:00</time></trkpt><trkpt lat="39.54991758" lon="-0.33827215"><ele>9.2</ele><time>2022-11-09T16:53:56.0000000+00:00</time></trkpt><trkpt lat="39.5499351" lon="-0.33824667"><ele>9.2</ele><time>2022-11-09T16:53:57.0000000+00:00</time></trkpt><trkpt lat="39.54995136" lon="-0.33821918"><ele>9.2</ele><time>2022-11-09T16:53:58.0000000+00:00</time></trkpt><trkpt lat="39.54996636" lon="-0.33819429"><ele>9.0</ele><time>2022-11-09T16:53:59.0000000+00:00</time></trkpt><trkpt lat="39.54997617" lon="-0.33817333"><ele>9.0</ele><time>2022-11-09T16:54:00.0000000+00:00</time></trkpt><trkpt lat="39.54998371" lon="-0.33815548"><ele>9.0</ele><time>2022-11-09T16:54:01.0000000+00:00</time></trkpt><trkpt lat="39.54999168" lon="-0.33814098"><ele>9.0</ele><time>2022-11-09T16:54:02.0000000+00:00</time></trkpt><trkpt lat="39.55000198" lon="-0.33812799"><ele>9.0</ele><time>2022-11-09T16:54:03.0000000+00:00</time></trkpt><trkpt lat="39.55001121" lon="-0.33811751"><ele>9.0</ele><time>2022-11-09T16:54:04.0000000+00:00</time></trkpt><trkpt lat="39.55001975" lon="-0.33810695"><ele>9.0</ele><time>2022-11-09T16:54:05.0000000+00:00</time></trkpt><trkpt lat="39.55002705" lon="-0.33809379"><ele>9.0</ele><time>2022-11-09T16:54:06.0000000+00:00</time></trkpt><trkpt lat="39.55003099" lon="-0.33806873"><ele>9.0</ele><time>2022-11-09T16:54:07.0000000+00:00</time></trkpt><trkpt lat="39.55002177" lon="-0.33805364"><ele>9.2</ele><time>2022-11-09T16:54:08.0000000+00:00</time></trkpt><trkpt lat="39.55000542" lon="-0.33805364"><ele>9.2</ele><time>2022-11-09T16:54:09.0000000+00:00</time></trkpt><trkpt lat="39.54998992" lon="-0.33806806"><ele>9.2</ele><time>2022-11-09T16:54:10.0000000+00:00</time></trkpt><trkpt lat="39.5499791" lon="-0.33809387"><ele>9.4</ele><time>2022-11-09T16:54:11.0000000+00:00</time></trkpt><trkpt lat="39.54996745" lon="-0.3381269"><ele>9.4</ele><time>2022-11-09T16:54:12.0000000+00:00</time></trkpt><trkpt lat="39.54995739" lon="-0.33816344"><ele>9.4</ele><time>2022-11-09T16:54:13.0000000+00:00</time></trkpt><trkpt lat="39.54994641" lon="-0.33819948"><ele>9.4</ele><time>2022-11-09T16:54:14.0000000+00:00</time></trkpt><trkpt lat="39.5499418" lon="-0.3382367"><ele>9.4</ele><time>2022-11-09T16:54:15.0000000+00:00</time></trkpt><trkpt lat="39.54994767" lon="-0.33826646"><ele>9.4</ele><time>2022-11-09T16:54:16.0000000+00:00</time></trkpt><trkpt lat="39.54996041" lon="-0.33828498"><ele>9.4</ele><time>2022-11-09T16:54:17.0000000+00:00</time></trkpt><trkpt lat="39.54997709" lon="-0.33829889"><ele>9.6</ele><time>2022-11-09T16:54:18.0000000+00:00</time></trkpt><trkpt lat="39.54999679" lon="-0.33832027"><ele>9.6</ele><time>2022-11-09T16:54:19.0000000+00:00</time></trkpt><trkpt lat="39.55001925" lon="-0.33835371"><ele>9.6</ele><time>2022-11-09T16:54:20.0000000+00:00</time></trkpt><trkpt lat="39.55004054" lon="-0.33839185"><ele>9.8</ele><time>2022-11-09T16:54:21.0000000+00:00</time></trkpt><trkpt lat="39.5500594" lon="-0.33843661"><ele>10.0</ele><time>2022-11-09T16:54:22.0000000+00:00</time></trkpt><trkpt lat="39.55007943" lon="-0.33848355"><ele>10.0</ele><time>2022-11-09T16:54:23.0000000+00:00</time></trkpt><trkpt lat="39.55009854" lon="-0.3385221"><ele>10.2</ele><time>2022-11-09T16:54:24.0000000+00:00</time></trkpt><trkpt lat="39.55012847" lon="-0.33855597"><ele>10.2</ele><time>2022-11-09T16:54:25.0000000+00:00</time></trkpt><trkpt lat="39.55016334" lon="-0.33857617"><ele>10.2</ele><time>2022-11-09T16:54:26.0000000+00:00</time></trkpt><trkpt lat="39.55020298" lon="-0.33858455"><ele>10.2</ele><time>2022-11-09T16:54:27.0000000+00:00</time></trkpt><trkpt lat="39.5502454" lon="-0.33858606"><ele>10.0</ele><time>2022-11-09T16:54:28.0000000+00:00</time></trkpt><trkpt lat="39.55028907" lon="-0.33859301"><ele>10.0</ele><time>2022-11-09T16:54:29.0000000+00:00</time></trkpt><trkpt lat="39.5503324" lon="-0.33861447"><ele>10.0</ele><time>2022-11-09T16:54:30.0000000+00:00</time></trkpt><trkpt lat="39.55037171" lon="-0.33864465"><ele>10.0</ele><time>2022-11-09T16:54:31.0000000+00:00</time></trkpt><trkpt lat="39.55040792" lon="-0.33867851"><ele>10.0</ele><time>2022-11-09T16:54:32.0000000+00:00</time></trkpt><trkpt lat="39.55043784" lon="-0.338705"><ele>10.0</ele><time>2022-11-09T16:54:33.0000000+00:00</time></trkpt><trkpt lat="39.55047062" lon="-0.33871288"><ele>10.0</ele><time>2022-11-09T16:54:34.0000000+00:00</time></trkpt><trkpt lat="39.55050373" lon="-0.33870533"><ele>10.0</ele><time>2022-11-09T16:54:35.0000000+00:00</time></trkpt><trkpt lat="39.55053541" lon="-0.33869209"><ele>10.0</ele><time>2022-11-09T16:54:36.0000000+00:00</time></trkpt><trkpt lat="39.55056969" lon="-0.33867289"><ele>9.8</ele><time>2022-11-09T16:54:37.0000000+00:00</time></trkpt><trkpt lat="39.55060733" lon="-0.33865311"><ele>9.8</ele><time>2022-11-09T16:54:38.0000000+00:00</time></trkpt><trkpt lat="39.55064915" lon="-0.33862855"><ele>9.6</ele><time>2022-11-09T16:54:39.0000000+00:00</time></trkpt><trkpt lat="39.55068503" lon="-0.33859218"><ele>9.6</ele><time>2022-11-09T16:54:40.0000000+00:00</time></trkpt><trkpt lat="39.55071" lon="-0.33853836"><ele>9.6</ele><time>2022-11-09T16:54:41.0000000+00:00</time></trkpt><trkpt lat="39.55072191" lon="-0.33847139"><ele>9.6</ele><time>2022-11-09T16:54:42.0000000+00:00</time></trkpt><trkpt lat="39.5507292" lon="-0.33840291"><ele>9.6</ele><time>2022-11-09T16:54:43.0000000+00:00</time></trkpt><trkpt lat="39.55074512" lon="-0.33833636"><ele>9.6</ele><time>2022-11-09T16:54:44.0000000+00:00</time></trkpt><trkpt lat="39.55077421" lon="-0.33827014"><ele>9.8</ele><time>2022-11-09T16:54:45.0000000+00:00</time></trkpt><trkpt lat="39.55081034" lon="-0.33820116"><ele>9.8</ele><time>2022-11-09T16:54:46.0000000+00:00</time></trkpt><trkpt lat="39.55085116" lon="-0.33814173"><ele>10.0</ele><time>2022-11-09T16:54:47.0000000+00:00</time></trkpt><trkpt lat="39.55089508" lon="-0.33808566"><ele>10.0</ele><time>2022-11-09T16:54:48.0000000+00:00</time></trkpt><trkpt lat="39.55094721" lon="-0.3380331"><ele>10.0</ele><time>2022-11-09T16:54:49.0000000+00:00</time></trkpt><trkpt lat="39.55099809" lon="-0.33799103"><ele>10.0</ele><time>2022-11-09T16:54:50.0000000+00:00</time></trkpt><trkpt lat="39.55105215" lon="-0.33795641"><ele>10.2</ele><time>2022-11-09T16:54:51.0000000+00:00</time></trkpt><trkpt lat="39.55110798" lon="-0.33792355"><ele>10.2</ele><time>2022-11-09T16:54:52.0000000+00:00</time></trkpt><trkpt lat="39.55116422" lon="-0.33789078"><ele>10.0</ele><time>2022-11-09T16:54:53.0000000+00:00</time></trkpt><trkpt lat="39.55122097" lon="-0.33785901"><ele>10.0</ele><time>2022-11-09T16:54:54.0000000+00:00</time></trkpt><trkpt lat="39.55127805" lon="-0.3378285"><ele>10.0</ele><time>2022-11-09T16:54:55.0000000+00:00</time></trkpt><trkpt lat="39.55133571" lon="-0.33779631"><ele>9.8</ele><time>2022-11-09T16:54:56.0000000+00:00</time></trkpt><trkpt lat="39.55138927" lon="-0.33776094"><ele>9.6</ele><time>2022-11-09T16:54:57.0000000+00:00</time></trkpt><trkpt lat="39.55144384" lon="-0.33773144"><ele>9.6</ele><time>2022-11-09T16:54:58.0000000+00:00</time></trkpt><trkpt lat="39.55149564" lon="-0.33770369"><ele>9.6</ele><time>2022-11-09T16:54:59.0000000+00:00</time></trkpt><trkpt lat="39.55154685" lon="-0.33767528"><ele>9.6</ele><time>2022-11-09T16:55:00.0000000+00:00</time></trkpt><trkpt lat="39.55159446" lon="-0.33764879"><ele>9.6</ele><time>2022-11-09T16:55:01.0000000+00:00</time></trkpt><trkpt lat="39.55163989" lon="-0.33762004"><ele>9.6</ele><time>2022-11-09T16:55:02.0000000+00:00</time></trkpt><trkpt lat="39.5516844" lon="-0.33758945"><ele>9.8</ele><time>2022-11-09T16:55:03.0000000+00:00</time></trkpt><trkpt lat="39.55173142" lon="-0.33755944"><ele>9.8</ele><time>2022-11-09T16:55:04.0000000+00:00</time></trkpt><trkpt lat="39.55178188" lon="-0.33752784"><ele>10.0</ele><time>2022-11-09T16:55:05.0000000+00:00</time></trkpt><trkpt lat="39.55183469" lon="-0.33749398"><ele>10.0</ele><time>2022-11-09T16:55:06.0000000+00:00</time></trkpt><trkpt lat="39.55188666" lon="-0.33746213"><ele>10.2</ele><time>2022-11-09T16:55:07.0000000+00:00</time></trkpt><trkpt lat="39.55194072" lon="-0.33743011"><ele>10.2</ele><time>2022-11-09T16:55:08.0000000+00:00</time></trkpt><trkpt lat="39.55199646" lon="-0.33739868"><ele>10.4</ele><time>2022-11-09T16:55:09.0000000+00:00</time></trkpt><trkpt lat="39.55205061" lon="-0.33737085"><ele>10.6</ele><time>2022-11-09T16:55:10.0000000+00:00</time></trkpt><trkpt lat="39.55210576" lon="-0.33734327"><ele>10.6</ele><time>2022-11-09T16:55:11.0000000+00:00</time></trkpt><trkpt lat="39.55215689" lon="-0.33731595"><ele>10.6</ele><time>2022-11-09T16:55:12.0000000+00:00</time></trkpt><trkpt lat="39.55220525" lon="-0.33728829"><ele>10.4</ele><time>2022-11-09T16:55:13.0000000+00:00</time></trkpt><trkpt lat="39.55225378" lon="-0.33726172"><ele>10.4</ele><time>2022-11-09T16:55:14.0000000+00:00</time></trkpt><trkpt lat="39.55230022" lon="-0.33723448"><ele>10.2</ele><time>2022-11-09T16:55:15.0000000+00:00</time></trkpt><trkpt lat="39.55234733" lon="-0.33720765"><ele>10.2</ele><time>2022-11-09T16:55:16.0000000+00:00</time></trkpt><trkpt lat="39.55239368" lon="-0.33718184"><ele>10.2</ele><time>2022-11-09T16:55:17.0000000+00:00</time></trkpt><trkpt lat="39.55243894" lon="-0.33715577"><ele>10.0</ele><time>2022-11-09T16:55:18.0000000+00:00</time></trkpt><trkpt lat="39.55248144" lon="-0.33712995"><ele>10.0</ele><time>2022-11-09T16:55:19.0000000+00:00</time></trkpt><trkpt lat="39.5525215" lon="-0.33710447"><ele>10.0</ele><time>2022-11-09T16:55:20.0000000+00:00</time></trkpt><trkpt lat="39.55255746" lon="-0.33707438"><ele>9.8</ele><time>2022-11-09T16:55:21.0000000+00:00</time></trkpt><trkpt lat="39.552594" lon="-0.33704873"><ele>9.6</ele><time>2022-11-09T16:55:22.0000000+00:00</time></trkpt><trkpt lat="39.55263181" lon="-0.33702409"><ele>9.6</ele><time>2022-11-09T16:55:23.0000000+00:00</time></trkpt><trkpt lat="39.55267749" lon="-0.33700003"><ele>9.4</ele><time>2022-11-09T16:55:24.0000000+00:00</time></trkpt><trkpt lat="39.55272568" lon="-0.33697145"><ele>9.2</ele><time>2022-11-09T16:55:25.0000000+00:00</time></trkpt><trkpt lat="39.55277388" lon="-0.33694278"><ele>9.2</ele><time>2022-11-09T16:55:26.0000000+00:00</time></trkpt><trkpt lat="39.55282023" lon="-0.33691068"><ele>9.2</ele><time>2022-11-09T16:55:27.0000000+00:00</time></trkpt><trkpt lat="39.5528686" lon="-0.33687623"><ele>9.4</ele><time>2022-11-09T16:55:28.0000000+00:00</time></trkpt><trkpt lat="39.55292249" lon="-0.33684312"><ele>9.6</ele><time>2022-11-09T16:55:29.0000000+00:00</time></trkpt><trkpt lat="39.5529784" lon="-0.33680725"><ele>9.6</ele><time>2022-11-09T16:55:30.0000000+00:00</time></trkpt><trkpt lat="39.55303196" lon="-0.33677473"><ele>9.6</ele><time>2022-11-09T16:55:31.0000000+00:00</time></trkpt><trkpt lat="39.55308912" lon="-0.33674271"><ele>9.8</ele><time>2022-11-09T16:55:32.0000000+00:00</time></trkpt><trkpt lat="39.55314553" lon="-0.33671144"><ele>10.0</ele><time>2022-11-09T16:55:33.0000000+00:00</time></trkpt><trkpt lat="39.55320136" lon="-0.33668018"><ele>10.0</ele><time>2022-11-09T16:55:34.0000000+00:00</time></trkpt><trkpt lat="39.55325559" lon="-0.33664665"><ele>10.2</ele><time>2022-11-09T16:55:35.0000000+00:00</time></trkpt><trkpt lat="39.5533099" lon="-0.33661153"><ele>10.2</ele><time>2022-11-09T16:55:36.0000000+00:00</time></trkpt><trkpt lat="39.5533648" lon="-0.33657683"><ele>10.4</ele><time>2022-11-09T16:55:37.0000000+00:00</time></trkpt><trkpt lat="39.55342063" lon="-0.33654297"><ele>10.4</ele><time>2022-11-09T16:55:38.0000000+00:00</time></trkpt><trkpt lat="39.55347762" lon="-0.33650776"><ele>10.4</ele><time>2022-11-09T16:55:39.0000000+00:00</time></trkpt><trkpt lat="39.55353387" lon="-0.33647139"><ele>10.4</ele><time>2022-11-09T16:55:40.0000000+00:00</time></trkpt><trkpt lat="39.55359128" lon="-0.33643459"><ele>10.4</ele><time>2022-11-09T16:55:41.0000000+00:00</time></trkpt><trkpt lat="39.55365289" lon="-0.33640014"><ele>10.2</ele><time>2022-11-09T16:55:42.0000000+00:00</time></trkpt><trkpt lat="39.55371634" lon="-0.3363646"><ele>10.2</ele><time>2022-11-09T16:55:43.0000000+00:00</time></trkpt><trkpt lat="39.55378122" lon="-0.33633024"><ele>10.2</ele><time>2022-11-09T16:55:44.0000000+00:00</time></trkpt><trkpt lat="39.55384375" lon="-0.33629344"><ele>10.2</ele><time>2022-11-09T16:55:45.0000000+00:00</time></trkpt><trkpt lat="39.55390493" lon="-0.33625522"><ele>10.2</ele><time>2022-11-09T16:55:46.0000000+00:00</time></trkpt><trkpt lat="39.55396822" lon="-0.33621909"><ele>10.0</ele><time>2022-11-09T16:55:47.0000000+00:00</time></trkpt><trkpt lat="39.55403267" lon="-0.33618397"><ele>10.2</ele><time>2022-11-09T16:55:48.0000000+00:00</time></trkpt><trkpt lat="39.55409328" lon="-0.33614642"><ele>10.2</ele><time>2022-11-09T16:55:49.0000000+00:00</time></trkpt><trkpt lat="39.55415371" lon="-0.33611029"><ele>10.2</ele><time>2022-11-09T16:55:50.0000000+00:00</time></trkpt><trkpt lat="39.55421506" lon="-0.3360735"><ele>10.4</ele><time>2022-11-09T16:55:51.0000000+00:00</time></trkpt><trkpt lat="39.554275" lon="-0.33603846"><ele>10.4</ele><time>2022-11-09T16:55:52.0000000+00:00</time></trkpt><trkpt lat="39.55433241" lon="-0.33600443"><ele>10.4</ele><time>2022-11-09T16:55:53.0000000+00:00</time></trkpt><trkpt lat="39.55438597" lon="-0.33596738"><ele>10.4</ele><time>2022-11-09T16:55:54.0000000+00:00</time></trkpt><trkpt lat="39.55444154" lon="-0.33592933"><ele>10.4</ele><time>2022-11-09T16:55:55.0000000+00:00</time></trkpt><trkpt lat="39.55449083" lon="-0.3358901"><ele>10.4</ele><time>2022-11-09T16:55:56.0000000+00:00</time></trkpt><trkpt lat="39.55454112" lon="-0.33585825"><ele>10.4</ele><time>2022-11-09T16:55:57.0000000+00:00</time></trkpt><trkpt lat="39.55459074" lon="-0.33583076"><ele>10.2</ele><time>2022-11-09T16:55:58.0000000+00:00</time></trkpt><trkpt lat="39.55463902" lon="-0.33580394"><ele>10.0</ele><time>2022-11-09T16:55:59.0000000+00:00</time></trkpt><trkpt lat="39.55468814" lon="-0.33577737"><ele>10.0</ele><time>2022-11-09T16:56:00.0000000+00:00</time></trkpt><trkpt lat="39.55473625" lon="-0.33574895"><ele>9.8</ele><time>2022-11-09T16:56:01.0000000+00:00</time></trkpt><trkpt lat="39.55478596" lon="-0.33571953"><ele>9.8</ele><time>2022-11-09T16:56:02.0000000+00:00</time></trkpt><trkpt lat="39.55483935" lon="-0.33568885"><ele>9.8</ele><time>2022-11-09T16:56:03.0000000+00:00</time></trkpt><trkpt lat="39.55489551" lon="-0.3356591"><ele>9.8</ele><time>2022-11-09T16:56:04.0000000+00:00</time></trkpt><trkpt lat="39.55494999" lon="-0.33563001"><ele>9.8</ele><time>2022-11-09T16:56:05.0000000+00:00</time></trkpt><trkpt lat="39.55500363" lon="-0.33560051"><ele>9.8</ele><time>2022-11-09T16:56:06.0000000+00:00</time></trkpt><trkpt lat="39.55505711" lon="-0.33556849"><ele>9.8</ele><time>2022-11-09T16:56:07.0000000+00:00</time></trkpt><trkpt lat="39.5551131" lon="-0.33553354"><ele>9.6</ele><time>2022-11-09T16:56:08.0000000+00:00</time></trkpt><trkpt lat="39.555168" lon="-0.33550068"><ele>9.4</ele><time>2022-11-09T16:56:09.0000000+00:00</time></trkpt><trkpt lat="39.55522299" lon="-0.33546883"><ele>9.2</ele><time>2022-11-09T16:56:10.0000000+00:00</time></trkpt><trkpt lat="39.55528049" lon="-0.3354379"><ele>9.0</ele><time>2022-11-09T16:56:11.0000000+00:00</time></trkpt><trkpt lat="39.55533765" lon="-0.33540638"><ele>9.0</ele><time>2022-11-09T16:56:12.0000000+00:00</time></trkpt><trkpt lat="39.55539297" lon="-0.33537512"><ele>9.0</ele><time>2022-11-09T16:56:13.0000000+00:00</time></trkpt><trkpt lat="39.55544829" lon="-0.33534754"><ele>9.0</ele><time>2022-11-09T16:56:14.0000000+00:00</time></trkpt><trkpt lat="39.55550571" lon="-0.33532868"><ele>9.2</ele><time>2022-11-09T16:56:15.0000000+00:00</time></trkpt><trkpt lat="39.55557159" lon="-0.33532818"><ele>9.4</ele><time>2022-11-09T16:56:16.0000000+00:00</time></trkpt><trkpt lat="39.55563529" lon="-0.33533916"><ele>9.4</ele><time>2022-11-09T16:56:17.0000000+00:00</time></trkpt><trkpt lat="39.55569229" lon="-0.33536154"><ele>9.6</ele><time>2022-11-09T16:56:18.0000000+00:00</time></trkpt><trkpt lat="39.55573998" lon="-0.33538979"><ele>9.6</ele><time>2022-11-09T16:56:19.0000000+00:00</time></trkpt><trkpt lat="39.55578449" lon="-0.33541443"><ele>9.6</ele><time>2022-11-09T16:56:20.0000000+00:00</time></trkpt><trkpt lat="39.55582523" lon="-0.33542281"><ele>9.6</ele><time>2022-11-09T16:56:21.0000000+00:00</time></trkpt><trkpt lat="39.55585918" lon="-0.335413"><ele>9.6</ele><time>2022-11-09T16:56:22.0000000+00:00</time></trkpt><trkpt lat="39.5558886" lon="-0.33539968"><ele>9.6</ele><time>2022-11-09T16:56:23.0000000+00:00</time></trkpt><trkpt lat="39.55591642" lon="-0.33538325"><ele>9.4</ele><time>2022-11-09T16:56:24.0000000+00:00</time></trkpt><trkpt lat="39.55594299" lon="-0.33536774"><ele>9.4</ele><time>2022-11-09T16:56:25.0000000+00:00</time></trkpt><trkpt lat="39.55597065" lon="-0.33535148"><ele>9.4</ele><time>2022-11-09T16:56:26.0000000+00:00</time></trkpt><trkpt lat="39.55600024" lon="-0.33533447"><ele>9.4</ele><time>2022-11-09T16:56:27.0000000+00:00</time></trkpt><trkpt lat="39.55603503" lon="-0.33531812"><ele>9.4</ele><time>2022-11-09T16:56:28.0000000+00:00</time></trkpt><trkpt lat="39.55606973" lon="-0.33529532"><ele>9.6</ele><time>2022-11-09T16:56:29.0000000+00:00</time></trkpt><trkpt lat="39.5560989" lon="-0.33525945"><ele>9.6</ele><time>2022-11-09T16:56:30.0000000+00:00</time></trkpt><trkpt lat="39.55612429" lon="-0.33521268"><ele>9.8</ele><time>2022-11-09T16:56:31.0000000+00:00</time></trkpt><trkpt lat="39.55615154" lon="-0.33516037"><ele>9.8</ele><time>2022-11-09T16:56:32.0000000+00:00</time></trkpt><trkpt lat="39.55618171" lon="-0.33510614"><ele>9.8</ele><time>2022-11-09T16:56:33.0000000+00:00</time></trkpt><trkpt lat="39.55621666" lon="-0.33505074"><ele>9.8</ele><time>2022-11-09T16:56:34.0000000+00:00</time></trkpt><trkpt lat="39.55625262" lon="-0.33499684"><ele>9.8</ele><time>2022-11-09T16:56:35.0000000+00:00</time></trkpt><trkpt lat="39.55628967" lon="-0.33494487"><ele>9.8</ele><time>2022-11-09T16:56:36.0000000+00:00</time></trkpt><trkpt lat="39.55632865" lon="-0.33489517"><ele>9.8</ele><time>2022-11-09T16:56:37.0000000+00:00</time></trkpt><trkpt lat="39.55637047" lon="-0.3348484"><ele>10.0</ele><time>2022-11-09T16:56:38.0000000+00:00</time></trkpt><trkpt lat="39.55641699" lon="-0.3348033"><ele>10.0</ele><time>2022-11-09T16:56:39.0000000+00:00</time></trkpt><trkpt lat="39.55646829" lon="-0.33476567"><ele>10.0</ele><time>2022-11-09T16:56:40.0000000+00:00</time></trkpt><trkpt lat="39.55652361" lon="-0.33473189"><ele>10.0</ele><time>2022-11-09T16:56:41.0000000+00:00</time></trkpt><trkpt lat="39.55658354" lon="-0.33470088"><ele>10.0</ele><time>2022-11-09T16:56:42.0000000+00:00</time></trkpt><trkpt lat="39.55664456" lon="-0.33466961"><ele>10.0</ele><time>2022-11-09T16:56:43.0000000+00:00</time></trkpt><trkpt lat="39.5567065" lon="-0.33463667"><ele>10.0</ele><time>2022-11-09T16:56:44.0000000+00:00</time></trkpt><trkpt lat="39.55676727" lon="-0.33460449"><ele>10.0</ele><time>2022-11-09T16:56:45.0000000+00:00</time></trkpt><trkpt lat="39.55682821" lon="-0.33457045"><ele>10.0</ele><time>2022-11-09T16:56:46.0000000+00:00</time></trkpt><trkpt lat="39.55688881" lon="-0.33453684"><ele>10.2</ele><time>2022-11-09T16:56:47.0000000+00:00</time></trkpt><trkpt lat="39.5569479" lon="-0.33450256"><ele>10.2</ele><time>2022-11-09T16:56:48.0000000+00:00</time></trkpt><trkpt lat="39.55700641" lon="-0.33446878"><ele>10.2</ele><time>2022-11-09T16:56:49.0000000+00:00</time></trkpt><trkpt lat="39.55706935" lon="-0.33443199"><ele>10.4</ele><time>2022-11-09T16:56:50.0000000+00:00</time></trkpt><trkpt lat="39.55712954" lon="-0.3343962"><ele>10.4</ele><time>2022-11-09T16:56:51.0000000+00:00</time></trkpt><trkpt lat="39.55719123" lon="-0.33436468"><ele>10.4</ele><time>2022-11-09T16:56:52.0000000+00:00</time></trkpt><trkpt lat="39.55725309" lon="-0.33433467"><ele>10.4</ele><time>2022-11-09T16:56:53.0000000+00:00</time></trkpt><trkpt lat="39.55732961" lon="-0.33431967"><ele>10.4</ele><time>2022-11-09T16:56:54.0000000+00:00</time></trkpt><trkpt lat="39.55740388" lon="-0.33429058"><ele>10.4</ele><time>2022-11-09T16:56:55.0000000+00:00</time></trkpt><trkpt lat="39.5574649" lon="-0.33425563"><ele>10.6</ele><time>2022-11-09T16:56:56.0000000+00:00</time></trkpt><trkpt lat="39.55752466" lon="-0.33421984"><ele>10.4</ele><time>2022-11-09T16:56:57.0000000+00:00</time></trkpt><trkpt lat="39.55758593" lon="-0.33418547"><ele>10.4</ele><time>2022-11-09T16:56:58.0000000+00:00</time></trkpt><trkpt lat="39.55764787" lon="-0.33415136"><ele>10.4</ele><time>2022-11-09T16:56:59.0000000+00:00</time></trkpt><trkpt lat="39.55771225" lon="-0.33411666"><ele>10.4</ele><time>2022-11-09T16:57:00.0000000+00:00</time></trkpt><trkpt lat="39.55777042" lon="-0.33407567"><ele>10.2</ele><time>2022-11-09T16:57:01.0000000+00:00</time></trkpt><trkpt lat="39.55783051" lon="-0.3340367"><ele>10.0</ele><time>2022-11-09T16:57:02.0000000+00:00</time></trkpt><trkpt lat="39.55789556" lon="-0.33399998"><ele>10.0</ele><time>2022-11-09T16:57:03.0000000+00:00</time></trkpt><trkpt lat="39.55796018" lon="-0.33396696"><ele>10.0</ele><time>2022-11-09T16:57:04.0000000+00:00</time></trkpt><trkpt lat="39.55802254" lon="-0.33393301"><ele>10.0</ele><time>2022-11-09T16:57:05.0000000+00:00</time></trkpt><trkpt lat="39.55808365" lon="-0.33390175"><ele>10.0</ele><time>2022-11-09T16:57:06.0000000+00:00</time></trkpt><trkpt lat="39.55813855" lon="-0.33386554"><ele>10.4</ele><time>2022-11-09T16:57:07.0000000+00:00</time></trkpt><trkpt lat="39.55818549" lon="-0.33382095"><ele>10.6</ele><time>2022-11-09T16:57:08.0000000+00:00</time></trkpt><trkpt lat="39.55822866" lon="-0.33377493"><ele>10.8</ele><time>2022-11-09T16:57:09.0000000+00:00</time></trkpt><trkpt lat="39.55827375" lon="-0.33373478"><ele>11.0</ele><time>2022-11-09T16:57:10.0000000+00:00</time></trkpt><trkpt lat="39.55832614" lon="-0.33370217"><ele>11.2</ele><time>2022-11-09T16:57:11.0000000+00:00</time></trkpt><trkpt lat="39.55837819" lon="-0.33367292"><ele>11.2</ele><time>2022-11-09T16:57:12.0000000+00:00</time></trkpt><trkpt lat="39.55843284" lon="-0.3336471"><ele>11.2</ele><time>2022-11-09T16:57:13.0000000+00:00</time></trkpt><trkpt lat="39.55848564" lon="-0.3336207"><ele>10.8</ele><time>2022-11-09T16:57:14.0000000+00:00</time></trkpt><trkpt lat="39.55853962" lon="-0.33359539"><ele>10.4</ele><time>2022-11-09T16:57:15.0000000+00:00</time></trkpt><trkpt lat="39.55859394" lon="-0.33356404"><ele>10.2</ele><time>2022-11-09T16:57:16.0000000+00:00</time></trkpt><trkpt lat="39.55864716" lon="-0.33353102"><ele>10.0</ele><time>2022-11-09T16:57:17.0000000+00:00</time></trkpt><trkpt lat="39.55870156" lon="-0.33349631"><ele>9.8</ele><time>2022-11-09T16:57:18.0000000+00:00</time></trkpt><trkpt lat="39.55875294" lon="-0.3334565"><ele>9.8</ele><time>2022-11-09T16:57:19.0000000+00:00</time></trkpt><trkpt lat="39.55880717" lon="-0.33341493"><ele>9.6</ele><time>2022-11-09T16:57:20.0000000+00:00</time></trkpt><trkpt lat="39.55886174" lon="-0.33337964"><ele>9.8</ele><time>2022-11-09T16:57:21.0000000+00:00</time></trkpt><trkpt lat="39.55892041" lon="-0.33334536"><ele>9.8</ele><time>2022-11-09T16:57:22.0000000+00:00</time></trkpt><trkpt lat="39.55898529" lon="-0.33331191"><ele>9.8</ele><time>2022-11-09T16:57:23.0000000+00:00</time></trkpt><trkpt lat="39.55904388" lon="-0.33327671"><ele>9.8</ele><time>2022-11-09T16:57:24.0000000+00:00</time></trkpt><trkpt lat="39.55910079" lon="-0.33323974"><ele>10.0</ele><time>2022-11-09T16:57:25.0000000+00:00</time></trkpt><trkpt lat="39.55915947" lon="-0.33320387"><ele>10.0</ele><time>2022-11-09T16:57:26.0000000+00:00</time></trkpt><trkpt lat="39.5592199" lon="-0.33316992"><ele>9.8</ele><time>2022-11-09T16:57:27.0000000+00:00</time></trkpt><trkpt lat="39.55928017" lon="-0.33313505"><ele>9.8</ele><time>2022-11-09T16:57:28.0000000+00:00</time></trkpt><trkpt lat="39.55934018" lon="-0.33309918"><ele>9.8</ele><time>2022-11-09T16:57:29.0000000+00:00</time></trkpt><trkpt lat="39.55940338" lon="-0.33306339"><ele>9.8</ele><time>2022-11-09T16:57:30.0000000+00:00</time></trkpt><trkpt lat="39.55946708" lon="-0.33302533"><ele>9.8</ele><time>2022-11-09T16:57:31.0000000+00:00</time></trkpt><trkpt lat="39.55952777" lon="-0.33298736"><ele>9.6</ele><time>2022-11-09T16:57:32.0000000+00:00</time></trkpt><trkpt lat="39.55958753" lon="-0.33294931"><ele>9.8</ele><time>2022-11-09T16:57:33.0000000+00:00</time></trkpt><trkpt lat="39.55964427" lon="-0.33290916"><ele>9.8</ele><time>2022-11-09T16:57:34.0000000+00:00</time></trkpt><trkpt lat="39.55970362" lon="-0.33286817"><ele>9.8</ele><time>2022-11-09T16:57:35.0000000+00:00</time></trkpt><trkpt lat="39.55976263" lon="-0.33282945"><ele>9.6</ele><time>2022-11-09T16:57:36.0000000+00:00</time></trkpt><trkpt lat="39.5598213" lon="-0.3327919"><ele>9.6</ele><time>2022-11-09T16:57:37.0000000+00:00</time></trkpt><trkpt lat="39.55987964" lon="-0.33275343"><ele>9.4</ele><time>2022-11-09T16:57:38.0000000+00:00</time></trkpt><trkpt lat="39.55993949" lon="-0.33271571"><ele>9.4</ele><time>2022-11-09T16:57:39.0000000+00:00</time></trkpt><trkpt lat="39.55999707" lon="-0.33267983"><ele>9.4</ele><time>2022-11-09T16:57:40.0000000+00:00</time></trkpt><trkpt lat="39.56005482" lon="-0.33264387"><ele>9.4</ele><time>2022-11-09T16:57:41.0000000+00:00</time></trkpt><trkpt lat="39.56011098" lon="-0.33261412"><ele>9.4</ele><time>2022-11-09T16:57:42.0000000+00:00</time></trkpt><trkpt lat="39.56016923" lon="-0.3325883"><ele>9.4</ele><time>2022-11-09T16:57:43.0000000+00:00</time></trkpt><trkpt lat="39.56022372" lon="-0.3325821"><ele>9.4</ele><time>2022-11-09T16:57:44.0000000+00:00</time></trkpt><trkpt lat="39.56027459" lon="-0.33258109"><ele>9.4</ele><time>2022-11-09T16:57:45.0000000+00:00</time></trkpt><trkpt lat="39.56032866" lon="-0.33258688"><ele>9.4</ele><time>2022-11-09T16:57:46.0000000+00:00</time></trkpt><trkpt lat="39.56038113" lon="-0.33259761"><ele>9.4</ele><time>2022-11-09T16:57:47.0000000+00:00</time></trkpt><trkpt lat="39.56043033" lon="-0.33261244"><ele>9.2</ele><time>2022-11-09T16:57:48.0000000+00:00</time></trkpt><trkpt lat="39.56047467" lon="-0.33263155"><ele>9.0</ele><time>2022-11-09T16:57:49.0000000+00:00</time></trkpt><trkpt lat="39.56050862" lon="-0.33264731"><ele>8.8</ele><time>2022-11-09T16:57:50.0000000+00:00</time></trkpt><trkpt lat="39.56053837" lon="-0.33265159"><ele>8.6</ele><time>2022-11-09T16:57:51.0000000+00:00</time></trkpt><trkpt lat="39.56057106" lon="-0.33264019"><ele>8.4</ele><time>2022-11-09T16:57:52.0000000+00:00</time></trkpt><trkpt lat="39.56060425" lon="-0.332622"><ele>8.4</ele><time>2022-11-09T16:57:53.0000000+00:00</time></trkpt><trkpt lat="39.56063669" lon="-0.3325987"><ele>8.4</ele><time>2022-11-09T16:57:54.0000000+00:00</time></trkpt><trkpt lat="39.56067156" lon="-0.33257171"><ele>8.4</ele><time>2022-11-09T16:57:55.0000000+00:00</time></trkpt><trkpt lat="39.56070559" lon="-0.33253114"><ele>8.4</ele><time>2022-11-09T16:57:56.0000000+00:00</time></trkpt><trkpt lat="39.56072822" lon="-0.33247758"><ele>8.4</ele><time>2022-11-09T16:57:57.0000000+00:00</time></trkpt><trkpt lat="39.56074582" lon="-0.33241547"><ele>8.4</ele><time>2022-11-09T16:57:58.0000000+00:00</time></trkpt><trkpt lat="39.56076795" lon="-0.3323552"><ele>8.4</ele><time>2022-11-09T16:57:59.0000000+00:00</time></trkpt><trkpt lat="39.56079352" lon="-0.33229527"><ele>8.4</ele><time>2022-11-09T16:58:00.0000000+00:00</time></trkpt><trkpt lat="39.56082537" lon="-0.33224112"><ele>8.4</ele><time>2022-11-09T16:58:01.0000000+00:00</time></trkpt><trkpt lat="39.56086577" lon="-0.33219066"><ele>8.4</ele><time>2022-11-09T16:58:02.0000000+00:00</time></trkpt><trkpt lat="39.56090734" lon="-0.33214104"><ele>8.4</ele><time>2022-11-09T16:58:03.0000000+00:00</time></trkpt><trkpt lat="39.56095068" lon="-0.33209159"><ele>8.4</ele><time>2022-11-09T16:58:04.0000000+00:00</time></trkpt><trkpt lat="39.56099887" lon="-0.332047"><ele>8.6</ele><time>2022-11-09T16:58:05.0000000+00:00</time></trkpt><trkpt lat="39.56105311" lon="-0.3320092"><ele>8.8</ele><time>2022-11-09T16:58:06.0000000+00:00</time></trkpt><trkpt lat="39.56111144" lon="-0.33197542"><ele>8.8</ele><time>2022-11-09T16:58:07.0000000+00:00</time></trkpt><trkpt lat="39.56117196" lon="-0.33193988"><ele>8.8</ele><time>2022-11-09T16:58:08.0000000+00:00</time></trkpt><trkpt lat="39.56123181" lon="-0.33190493"><ele>8.8</ele><time>2022-11-09T16:58:09.0000000+00:00</time></trkpt><trkpt lat="39.5612904" lon="-0.33187006"><ele>8.8</ele><time>2022-11-09T16:58:10.0000000+00:00</time></trkpt><trkpt lat="39.56134446" lon="-0.33183058"><ele>9.0</ele><time>2022-11-09T16:58:11.0000000+00:00</time></trkpt><trkpt lat="39.56140171" lon="-0.33179269"><ele>9.0</ele><time>2022-11-09T16:58:12.0000000+00:00</time></trkpt><trkpt lat="39.56146323" lon="-0.33175615"><ele>9.0</ele><time>2022-11-09T16:58:13.0000000+00:00</time></trkpt><trkpt lat="39.56152593" lon="-0.3317227"><ele>9.2</ele><time>2022-11-09T16:58:14.0000000+00:00</time></trkpt><trkpt lat="39.56158829" lon="-0.3316901"><ele>9.2</ele><time>2022-11-09T16:58:15.0000000+00:00</time></trkpt><trkpt lat="39.56164889" lon="-0.33166051"><ele>9.2</ele><time>2022-11-09T16:58:16.0000000+00:00</time></trkpt><trkpt lat="39.56170564" lon="-0.33163168"><ele>9.2</ele><time>2022-11-09T16:58:17.0000000+00:00</time></trkpt><trkpt lat="39.56175534" lon="-0.33160628"><ele>9.2</ele><time>2022-11-09T16:58:18.0000000+00:00</time></trkpt><trkpt lat="39.56180119" lon="-0.33158147"><ele>9.2</ele><time>2022-11-09T16:58:19.0000000+00:00</time></trkpt><trkpt lat="39.5618452" lon="-0.33155414"><ele>9.0</ele><time>2022-11-09T16:58:20.0000000+00:00</time></trkpt><trkpt lat="39.56188333" lon="-0.33152824"><ele>9.0</ele><time>2022-11-09T16:58:21.0000000+00:00</time></trkpt><trkpt lat="39.56192122" lon="-0.3315015"><ele>8.8</ele><time>2022-11-09T16:58:22.0000000+00:00</time></trkpt><trkpt lat="39.56196112" lon="-0.33147787"><ele>8.6</ele><time>2022-11-09T16:58:23.0000000+00:00</time></trkpt><trkpt lat="39.56199858" lon="-0.33145633"><ele>8.6</ele><time>2022-11-09T16:58:24.0000000+00:00</time></trkpt><trkpt lat="39.56203236" lon="-0.33143495"><ele>8.6</ele><time>2022-11-09T16:58:25.0000000+00:00</time></trkpt><trkpt lat="39.56207109" lon="-0.33141433"><ele>8.6</ele><time>2022-11-09T16:58:26.0000000+00:00</time></trkpt><trkpt lat="39.56210948" lon="-0.33138743"><ele>8.6</ele><time>2022-11-09T16:58:27.0000000+00:00</time></trkpt><trkpt lat="39.56214409" lon="-0.33136547"><ele>8.6</ele><time>2022-11-09T16:58:28.0000000+00:00</time></trkpt><trkpt lat="39.56217896" lon="-0.33134543"><ele>8.6</ele><time>2022-11-09T16:58:29.0000000+00:00</time></trkpt><trkpt lat="39.56221299" lon="-0.33133077"><ele>8.6</ele><time>2022-11-09T16:58:30.0000000+00:00</time></trkpt><trkpt lat="39.56224694" lon="-0.33131333"><ele>8.6</ele><time>2022-11-09T16:58:31.0000000+00:00</time></trkpt><trkpt lat="39.56228214" lon="-0.33129078"><ele>8.8</ele><time>2022-11-09T16:58:32.0000000+00:00</time></trkpt><trkpt lat="39.56231173" lon="-0.33126849"><ele>8.8</ele><time>2022-11-09T16:58:33.0000000+00:00</time></trkpt><trkpt lat="39.56234216" lon="-0.33125172"><ele>8.8</ele><time>2022-11-09T16:58:34.0000000+00:00</time></trkpt><trkpt lat="39.56237485" lon="-0.33124091"><ele>8.6</ele><time>2022-11-09T16:58:35.0000000+00:00</time></trkpt><trkpt lat="39.56240142" lon="-0.33123228"><ele>8.6</ele><time>2022-11-09T16:58:36.0000000+00:00</time></trkpt><trkpt lat="39.56242723" lon="-0.33122549"><ele>8.2</ele><time>2022-11-09T16:58:37.0000000+00:00</time></trkpt><trkpt lat="39.56245439" lon="-0.33122004"><ele>8.0</ele><time>2022-11-09T16:58:38.0000000+00:00</time></trkpt><trkpt lat="39.56248155" lon="-0.33121602"><ele>8.0</ele><time>2022-11-09T16:58:39.0000000+00:00</time></trkpt><trkpt lat="39.56250426" lon="-0.33121862"><ele>8.0</ele><time>2022-11-09T16:58:40.0000000+00:00</time></trkpt><trkpt lat="39.56252178" lon="-0.33122985"><ele>7.8</ele><time>2022-11-09T16:58:41.0000000+00:00</time></trkpt><trkpt lat="39.56253092" lon="-0.33124678"><ele>7.8</ele><time>2022-11-09T16:58:42.0000000+00:00</time></trkpt><trkpt lat="39.56253645" lon="-0.33127461"><ele>7.8</ele><time>2022-11-09T16:58:43.0000000+00:00</time></trkpt><trkpt lat="39.56254249" lon="-0.33130813"><ele>8.0</ele><time>2022-11-09T16:58:44.0000000+00:00</time></trkpt><trkpt lat="39.56254383" lon="-0.33134325"><ele>8.0</ele><time>2022-11-09T16:58:45.0000000+00:00</time></trkpt><trkpt lat="39.56253955" lon="-0.3313798"><ele>8.0</ele><time>2022-11-09T16:58:46.0000000+00:00</time></trkpt><trkpt lat="39.56253192" lon="-0.3314078"><ele>8.2</ele><time>2022-11-09T16:58:47.0000000+00:00</time></trkpt><trkpt lat="39.5625134" lon="-0.33142431"><ele>8.4</ele><time>2022-11-09T16:58:48.0000000+00:00</time></trkpt><trkpt lat="39.56248448" lon="-0.33144065"><ele>8.4</ele><time>2022-11-09T16:58:49.0000000+00:00</time></trkpt><trkpt lat="39.56245104" lon="-0.33145775"><ele>8.6</ele><time>2022-11-09T16:58:50.0000000+00:00</time></trkpt><trkpt lat="39.56241609" lon="-0.3314772"><ele>8.8</ele><time>2022-11-09T16:58:51.0000000+00:00</time></trkpt><trkpt lat="39.56238147" lon="-0.3314922"><ele>9.0</ele><time>2022-11-09T16:58:52.0000000+00:00</time></trkpt><trkpt lat="39.56235708" lon="-0.33150813"><ele>9.0</ele><time>2022-11-09T16:58:53.0000000+00:00</time></trkpt><trkpt lat="39.56234266" lon="-0.33153445"><ele>9.0</ele><time>2022-11-09T16:58:54.0000000+00:00</time></trkpt><trkpt lat="39.56233705" lon="-0.33156001"><ele>9.0</ele><time>2022-11-09T16:58:55.0000000+00:00</time></trkpt><trkpt lat="39.56233436" lon="-0.33158314"><ele>9.0</ele><time>2022-11-09T16:58:56.0000000+00:00</time></trkpt><trkpt lat="39.56233495" lon="-0.3316041"><ele>9.0</ele><time>2022-11-09T16:58:57.0000000+00:00</time></trkpt><trkpt lat="39.56233713" lon="-0.33162564"><ele>8.8</ele><time>2022-11-09T16:58:58.0000000+00:00</time></trkpt><trkpt lat="39.56234124" lon="-0.33164986"><ele>8.8</ele><time>2022-11-09T16:58:59.0000000+00:00</time></trkpt><trkpt lat="39.56234937" lon="-0.33167903"><ele>8.8</ele><time>2022-11-09T16:59:00.0000000+00:00</time></trkpt><trkpt lat="39.56235951" lon="-0.3317113"><ele>8.6</ele><time>2022-11-09T16:59:01.0000000+00:00</time></trkpt><trkpt lat="39.56236965" lon="-0.33174424"><ele>8.6</ele><time>2022-11-09T16:59:02.0000000+00:00</time></trkpt><trkpt lat="39.56237703" lon="-0.33177752"><ele>8.6</ele><time>2022-11-09T16:59:03.0000000+00:00</time></trkpt><trkpt lat="39.56237929" lon="-0.33180728"><ele>8.6</ele><time>2022-11-09T16:59:04.0000000+00:00</time></trkpt><trkpt lat="39.56238507" lon="-0.33182832"><ele>8.6</ele><time>2022-11-09T16:59:05.0000000+00:00</time></trkpt><trkpt lat="39.56238993" lon="-0.3318512"><ele>8.6</ele><time>2022-11-09T16:59:06.0000000+00:00</time></trkpt><trkpt lat="39.5623984" lon="-0.33187249"><ele>8.6</ele><time>2022-11-09T16:59:07.0000000+00:00</time></trkpt><trkpt lat="39.56240745" lon="-0.33188992"><ele>8.6</ele><time>2022-11-09T16:59:08.0000000+00:00</time></trkpt><trkpt lat="39.5624093" lon="-0.33190543"><ele>8.8</ele><time>2022-11-09T16:59:09.0000000+00:00</time></trkpt><trkpt lat="39.56241609" lon="-0.33192337"><ele>8.6</ele><time>2022-11-09T16:59:10.0000000+00:00</time></trkpt><trkpt lat="39.56242229" lon="-0.33194399"><ele>8.6</ele><time>2022-11-09T16:59:11.0000000+00:00</time></trkpt><trkpt lat="39.56242975" lon="-0.33196586"><ele>8.6</ele><time>2022-11-09T16:59:12.0000000+00:00</time></trkpt><trkpt lat="39.56244157" lon="-0.33198983"><ele>8.6</ele><time>2022-11-09T16:59:13.0000000+00:00</time></trkpt><trkpt lat="39.56244551" lon="-0.33200635"><ele>8.6</ele><time>2022-11-09T16:59:14.0000000+00:00</time></trkpt><trkpt lat="39.56244752" lon="-0.33201054"><ele>8.4</ele><time>2022-11-09T16:59:15.0000000+00:00</time></trkpt><trkpt lat="39.56244752" lon="-0.33201054"><ele>8.4</ele><time>2022-11-09T16:59:16.0000000+00:00</time></trkpt><trkpt lat="39.56244752" lon="-0.33201054"><ele>8.4</ele><time>2022-11-09T16:59:17.0000000+00:00</time></trkpt><trkpt lat="39.56244727" lon="-0.33201213"><ele>8.4</ele><time>2022-11-09T16:59:18.0000000+00:00</time></trkpt><trkpt lat="39.56244224" lon="-0.33201087"><ele>8.2</ele><time>2022-11-09T16:59:19.0000000+00:00</time></trkpt><trkpt lat="39.56244224" lon="-0.33201087"><ele>8.2</ele><time>2022-11-09T16:59:20.0000000+00:00</time></trkpt><trkpt lat="39.56244224" lon="-0.33201087"><ele>8.2</ele><time>2022-11-09T16:59:21.0000000+00:00</time></trkpt><trkpt lat="39.56244241" lon="-0.33200869"><ele>8.2</ele><time>2022-11-09T16:59:22.0000000+00:00</time></trkpt><trkpt lat="39.56243704" lon="-0.33200677"><ele>8.2</ele><time>2022-11-09T16:59:23.0000000+00:00</time></trkpt><trkpt lat="39.56242371" lon="-0.33200936"><ele>8.2</ele><time>2022-11-09T16:59:24.0000000+00:00</time></trkpt><trkpt lat="39.56241122" lon="-0.33201163"><ele>8.2</ele><time>2022-11-09T16:59:25.0000000+00:00</time></trkpt><trkpt lat="39.56239739" lon="-0.3320128"><ele>8.2</ele><time>2022-11-09T16:59:26.0000000+00:00</time></trkpt><trkpt lat="39.56239061" lon="-0.33201523"><ele>8.4</ele><time>2022-11-09T16:59:27.0000000+00:00</time></trkpt><trkpt lat="39.56239061" lon="-0.33201523"><ele>8.4</ele><time>2022-11-09T16:59:28.0000000+00:00</time></trkpt><trkpt lat="39.56239337" lon="-0.33201758"><ele>8.4</ele><time>2022-11-09T16:59:29.0000000+00:00</time></trkpt><trkpt lat="39.56239647" lon="-0.3320206"><ele>8.4</ele><time>2022-11-09T16:59:30.0000000+00:00</time></trkpt><trkpt lat="39.56239647" lon="-0.3320206"><ele>8.2</ele><time>2022-11-09T16:59:31.0000000+00:00</time></trkpt><trkpt lat="39.56239647" lon="-0.3320206"><ele>8.2</ele><time>2022-11-09T16:59:32.0000000+00:00</time></trkpt><trkpt lat="39.56239647" lon="-0.3320206"><ele>8.2</ele><time>2022-11-09T16:59:33.0000000+00:00</time></trkpt><trkpt lat="39.56239647" lon="-0.3320206"><ele>8.2</ele><time>2022-11-09T16:59:34.0000000+00:00</time></trkpt><trkpt lat="39.56239647" lon="-0.3320206"><ele>8.2</ele><time>2022-11-09T16:59:35.0000000+00:00</time></trkpt><trkpt lat="39.56239647" lon="-0.3320206"><ele>8.2</ele><time>2022-11-09T16:59:36.0000000+00:00</time></trkpt><trkpt lat="39.56240812" lon="-0.33201942"><ele>8.2</ele><time>2022-11-09T16:59:37.0000000+00:00</time></trkpt><trkpt lat="39.56241097" lon="-0.33202001"><ele>8.0</ele><time>2022-11-09T16:59:38.0000000+00:00</time></trkpt><trkpt lat="39.56241097" lon="-0.33202001"><ele>8.0</ele><time>2022-11-09T16:59:39.0000000+00:00</time></trkpt><trkpt lat="39.56241097" lon="-0.33202001"><ele>8.0</ele><time>2022-11-09T16:59:40.0000000+00:00</time></trkpt><trkpt lat="39.56241097" lon="-0.33202001"><ele>8.0</ele><time>2022-11-09T16:59:41.0000000+00:00</time></trkpt><trkpt lat="39.56241097" lon="-0.33202001"><ele>8.0</ele><time>2022-11-09T16:59:42.0000000+00:00</time></trkpt><trkpt lat="39.56241097" lon="-0.33202001"><ele>8.0</ele><time>2022-11-09T16:59:43.0000000+00:00</time></trkpt><trkpt lat="39.56241391" lon="-0.33202504"><ele>8.0</ele><time>2022-11-09T16:59:44.0000000+00:00</time></trkpt><trkpt lat="39.56241709" lon="-0.33202596"><ele>8.0</ele><time>2022-11-09T16:59:45.0000000+00:00</time></trkpt><trkpt lat="39.56241709" lon="-0.33202596"><ele>8.2</ele><time>2022-11-09T16:59:46.0000000+00:00</time></trkpt><trkpt lat="39.56241709" lon="-0.33202596"><ele>8.2</ele><time>2022-11-09T16:59:47.0000000+00:00</time></trkpt><trkpt lat="39.56241709" lon="-0.33202596"><ele>8.0</ele><time>2022-11-09T16:59:48.0000000+00:00</time></trkpt><trkpt lat="39.56241709" lon="-0.33202596"><ele>8.0</ele><time>2022-11-09T16:59:49.0000000+00:00</time></trkpt><trkpt lat="39.56241709" lon="-0.33202596"><ele>8.0</ele><time>2022-11-09T16:59:50.0000000+00:00</time></trkpt><trkpt lat="39.56241709" lon="-0.33202596"><ele>8.0</ele><time>2022-11-09T16:59:51.0000000+00:00</time></trkpt><trkpt lat="39.56241709" lon="-0.33202596"><ele>8.0</ele><time>2022-11-09T16:59:52.0000000+00:00</time></trkpt><trkpt lat="39.56241709" lon="-0.33202596"><ele>8.0</ele><time>2022-11-09T16:59:53.0000000+00:00</time></trkpt><trkpt lat="39.56241709" lon="-0.33202596"><ele>8.0</ele><time>2022-11-09T16:59:54.0000000+00:00</time></trkpt><trkpt lat="39.56241709" lon="-0.33202596"><ele>8.0</ele><time>2022-11-09T16:59:55.0000000+00:00</time></trkpt><trkpt lat="39.56241709" lon="-0.33202596"><ele>8.0</ele><time>2022-11-09T16:59:56.0000000+00:00</time></trkpt><trkpt lat="39.56241709" lon="-0.33202596"><ele>8.0</ele><time>2022-11-09T16:59:57.0000000+00:00</time></trkpt><trkpt lat="39.56241709" lon="-0.33202596"><ele>8.0</ele><time>2022-11-09T16:59:58.0000000+00:00</time></trkpt><trkpt lat="39.56241709" lon="-0.33202596"><ele>8.0</ele><time>2022-11-09T16:59:59.0000000+00:00</time></trkpt><trkpt lat="39.56241709" lon="-0.33202596"><ele>8.0</ele><time>2022-11-09T17:00:00.0000000+00:00</time></trkpt><trkpt lat="39.56241709" lon="-0.33202596"><ele>8.0</ele><time>2022-11-09T17:00:01.0000000+00:00</time></trkpt><trkpt lat="39.56241709" lon="-0.33202596"><ele>8.0</ele><time>2022-11-09T17:00:02.0000000+00:00</time></trkpt><trkpt lat="39.56241709" lon="-0.33202596"><ele>8.0</ele><time>2022-11-09T17:00:03.0000000+00:00</time></trkpt><trkpt lat="39.56241709" lon="-0.33202596"><ele>8.0</ele><time>2022-11-09T17:00:04.0000000+00:00</time></trkpt><trkpt lat="39.56241709" lon="-0.33202596"><ele>8.0</ele><time>2022-11-09T17:00:05.0000000+00:00</time></trkpt><trkpt lat="39.56241709" lon="-0.33202596"><ele>8.0</ele><time>2022-11-09T17:00:06.0000000+00:00</time></trkpt><trkpt lat="39.56241709" lon="-0.33202596"><ele>8.0</ele><time>2022-11-09T17:00:07.0000000+00:00</time></trkpt><trkpt lat="39.56241709" lon="-0.33202596"><ele>8.0</ele><time>2022-11-09T17:00:08.0000000+00:00</time></trkpt><trkpt lat="39.56241709" lon="-0.33202596"><ele>8.0</ele><time>2022-11-09T17:00:09.0000000+00:00</time></trkpt><trkpt lat="39.56241709" lon="-0.33202596"><ele>8.0</ele><time>2022-11-09T17:00:10.0000000+00:00</time></trkpt><trkpt lat="39.56241709" lon="-0.33202596"><ele>8.0</ele><time>2022-11-09T17:00:11.0000000+00:00</time></trkpt><trkpt lat="39.56241709" lon="-0.33202596"><ele>8.0</ele><time>2022-11-09T17:00:12.0000000+00:00</time></trkpt><trkpt lat="39.56241709" lon="-0.33202596"><ele>8.0</ele><time>2022-11-09T17:00:13.0000000+00:00</time></trkpt><trkpt lat="39.56241709" lon="-0.33202596"><ele>8.0</ele><time>2022-11-09T17:00:14.0000000+00:00</time></trkpt><trkpt lat="39.56242363" lon="-0.33202244"><ele>8.0</ele><time>2022-11-09T17:00:15.0000000+00:00</time></trkpt><trkpt lat="39.56243277" lon="-0.33201339"><ele>8.0</ele><time>2022-11-09T17:00:16.0000000+00:00</time></trkpt><trkpt lat="39.56243319" lon="-0.33201087"><ele>8.0</ele><time>2022-11-09T17:00:17.0000000+00:00</time></trkpt><trkpt lat="39.56243319" lon="-0.33201087"><ele>8.0</ele><time>2022-11-09T17:00:18.0000000+00:00</time></trkpt><trkpt lat="39.56243319" lon="-0.33201087"><ele>8.0</ele><time>2022-11-09T17:00:19.0000000+00:00</time></trkpt><trkpt lat="39.56243319" lon="-0.33201087"><ele>8.0</ele><time>2022-11-09T17:00:20.0000000+00:00</time></trkpt><trkpt lat="39.56243319" lon="-0.33201087"><ele>8.0</ele><time>2022-11-09T17:00:21.0000000+00:00</time></trkpt><trkpt lat="39.56243319" lon="-0.33201087"><ele>8.0</ele><time>2022-11-09T17:00:22.0000000+00:00</time></trkpt><trkpt lat="39.56243319" lon="-0.33201087"><ele>8.0</ele><time>2022-11-09T17:00:23.0000000+00:00</time></trkpt><trkpt lat="39.56243319" lon="-0.33201087"><ele>8.0</ele><time>2022-11-09T17:00:24.0000000+00:00</time></trkpt><trkpt lat="39.56244031" lon="-0.33201314"><ele>8.0</ele><time>2022-11-09T17:00:25.0000000+00:00</time></trkpt><trkpt lat="39.56243796" lon="-0.33201515"><ele>8.0</ele><time>2022-11-09T17:00:26.0000000+00:00</time></trkpt><trkpt lat="39.56243796" lon="-0.33201515"><ele>7.8</ele><time>2022-11-09T17:00:27.0000000+00:00</time></trkpt><trkpt lat="39.56243796" lon="-0.33201515"><ele>7.8</ele><time>2022-11-09T17:00:28.0000000+00:00</time></trkpt><trkpt lat="39.56243796" lon="-0.33201515"><ele>7.6</ele><time>2022-11-09T17:00:29.0000000+00:00</time></trkpt><trkpt lat="39.56243796" lon="-0.33201515"><ele>7.6</ele><time>2022-11-09T17:00:30.0000000+00:00</time></trkpt><trkpt lat="39.56243796" lon="-0.33201515"><ele>7.6</ele><time>2022-11-09T17:00:31.0000000+00:00</time></trkpt><trkpt lat="39.56243796" lon="-0.33201515"><ele>7.6</ele><time>2022-11-09T17:00:32.0000000+00:00</time></trkpt><trkpt lat="39.56243796" lon="-0.33201515"><ele>7.6</ele><time>2022-11-09T17:00:33.0000000+00:00</time></trkpt><trkpt lat="39.56244073" lon="-0.33201439"><ele>7.6</ele><time>2022-11-09T17:00:34.0000000+00:00</time></trkpt><trkpt lat="39.56243763" lon="-0.33201582"><ele>7.6</ele><time>2022-11-09T17:00:35.0000000+00:00</time></trkpt><trkpt lat="39.56244165" lon="-0.33201632"><ele>7.6</ele><time>2022-11-09T17:00:36.0000000+00:00</time></trkpt><trkpt lat="39.56244601" lon="-0.33201607"><ele>7.6</ele><time>2022-11-09T17:00:37.0000000+00:00</time></trkpt><trkpt lat="39.56244794" lon="-0.33201431"><ele>7.6</ele><time>2022-11-09T17:00:38.0000000+00:00</time></trkpt><trkpt lat="39.56244794" lon="-0.33201431"><ele>7.6</ele><time>2022-11-09T17:00:39.0000000+00:00</time></trkpt><trkpt lat="39.56244794" lon="-0.33201431"><ele>7.6</ele><time>2022-11-09T17:00:40.0000000+00:00</time></trkpt><trkpt lat="39.56244626" lon="-0.33200936"><ele>7.6</ele><time>2022-11-09T17:00:41.0000000+00:00</time></trkpt><trkpt lat="39.56244425" lon="-0.3320092"><ele>7.6</ele><time>2022-11-09T17:00:42.0000000+00:00</time></trkpt><trkpt lat="39.56244425" lon="-0.3320092"><ele>7.6</ele><time>2022-11-09T17:00:43.0000000+00:00</time></trkpt><trkpt lat="39.56244685" lon="-0.3320102"><ele>7.4</ele><time>2022-11-09T17:00:44.0000000+00:00</time></trkpt><trkpt lat="39.56244366" lon="-0.33200987"><ele>7.4</ele><time>2022-11-09T17:00:45.0000000+00:00</time></trkpt><trkpt lat="39.56244702" lon="-0.33200693"><ele>7.4</ele><time>2022-11-09T17:00:46.0000000+00:00</time></trkpt><trkpt lat="39.562444" lon="-0.3320071"><ele>7.4</ele><time>2022-11-09T17:00:47.0000000+00:00</time></trkpt><trkpt lat="39.562444" lon="-0.3320071"><ele>7.4</ele><time>2022-11-09T17:00:48.0000000+00:00</time></trkpt><trkpt lat="39.56245012" lon="-0.33200819"><ele>7.4</ele><time>2022-11-09T17:00:49.0000000+00:00</time></trkpt><trkpt lat="39.56244785" lon="-0.33200744"><ele>7.4</ele><time>2022-11-09T17:00:50.0000000+00:00</time></trkpt><trkpt lat="39.56244785" lon="-0.33200744"><ele>7.4</ele><time>2022-11-09T17:00:51.0000000+00:00</time></trkpt><trkpt lat="39.56245129" lon="-0.33200375"><ele>7.4</ele><time>2022-11-09T17:00:52.0000000+00:00</time></trkpt><trkpt lat="39.56245272" lon="-0.33200165"><ele>7.4</ele><time>2022-11-09T17:00:53.0000000+00:00</time></trkpt><trkpt lat="39.5624507" lon="-0.33199738"><ele>7.4</ele><time>2022-11-09T17:00:54.0000000+00:00</time></trkpt><trkpt lat="39.56245272" lon="-0.3319957"><ele>7.4</ele><time>2022-11-09T17:00:55.0000000+00:00</time></trkpt><trkpt lat="39.56245272" lon="-0.3319957"><ele>7.4</ele><time>2022-11-09T17:00:56.0000000+00:00</time></trkpt><trkpt lat="39.56245171" lon="-0.33199688"><ele>7.4</ele><time>2022-11-09T17:00:57.0000000+00:00</time></trkpt><trkpt lat="39.56245422" lon="-0.33200274"><ele>7.4</ele><time>2022-11-09T17:00:58.0000000+00:00</time></trkpt><trkpt lat="39.56246118" lon="-0.33200668"><ele>7.4</ele><time>2022-11-09T17:00:59.0000000+00:00</time></trkpt><trkpt lat="39.56246319" lon="-0.3320071"><ele>7.4</ele><time>2022-11-09T17:01:00.0000000+00:00</time></trkpt><trkpt lat="39.56246537" lon="-0.33201163"><ele>7.4</ele><time>2022-11-09T17:01:01.0000000+00:00</time></trkpt><trkpt lat="39.56246487" lon="-0.33201716"><ele>7.4</ele><time>2022-11-09T17:01:02.0000000+00:00</time></trkpt><trkpt lat="39.56246453" lon="-0.3320273"><ele>7.6</ele><time>2022-11-09T17:01:03.0000000+00:00</time></trkpt><trkpt lat="39.56246562" lon="-0.33204826"><ele>7.6</ele><time>2022-11-09T17:01:04.0000000+00:00</time></trkpt><trkpt lat="39.5624637" lon="-0.33206007"><ele>7.6</ele><time>2022-11-09T17:01:05.0000000+00:00</time></trkpt><trkpt lat="39.56247141" lon="-0.33206862"><ele>7.6</ele><time>2022-11-09T17:01:06.0000000+00:00</time></trkpt><trkpt lat="39.56247535" lon="-0.33208882"><ele>7.6</ele><time>2022-11-09T17:01:07.0000000+00:00</time></trkpt><trkpt lat="39.56247727" lon="-0.33209997"><ele>7.6</ele><time>2022-11-09T17:01:08.0000000+00:00</time></trkpt><trkpt lat="39.56248616" lon="-0.33209796"><ele>7.6</ele><time>2022-11-09T17:01:09.0000000+00:00</time></trkpt><trkpt lat="39.56249161" lon="-0.33210366"><ele>7.8</ele><time>2022-11-09T17:01:10.0000000+00:00</time></trkpt><trkpt lat="39.56249756" lon="-0.33212814"><ele>7.6</ele><time>2022-11-09T17:01:12.0000000+00:00</time></trkpt><trkpt lat="39.56249404" lon="-0.33212495"><ele>7.8</ele><time>2022-11-09T17:01:13.0000000+00:00</time></trkpt><trkpt lat="39.56250049" lon="-0.33211774"><ele>7.8</ele><time>2022-11-09T17:01:14.0000000+00:00</time></trkpt><trkpt lat="39.56250435" lon="-0.33212252"><ele>7.8</ele><time>2022-11-09T17:01:15.0000000+00:00</time></trkpt><trkpt lat="39.56250493" lon="-0.33210743"><ele>7.8</ele><time>2022-11-09T17:01:16.0000000+00:00</time></trkpt><trkpt lat="39.56249856" lon="-0.33209746"><ele>7.6</ele><time>2022-11-09T17:01:17.0000000+00:00</time></trkpt><trkpt lat="39.56247753" lon="-0.33208673"><ele>7.6</ele><time>2022-11-09T17:01:18.0000000+00:00</time></trkpt><trkpt lat="39.56245867" lon="-0.33200023"><ele>7.6</ele><time>2022-11-09T17:01:22.0000000+00:00</time></trkpt><trkpt lat="39.56245548" lon="-0.33200786"><ele>7.6</ele><time>2022-11-09T17:01:23.0000000+00:00</time></trkpt><trkpt lat="39.56247954" lon="-0.3320211"><ele>7.6</ele><time>2022-11-09T17:01:30.0000000+00:00</time></trkpt><trkpt lat="39.56252002" lon="-0.33208489"><ele>7.6</ele><time>2022-11-09T17:01:32.0000000+00:00</time></trkpt><trkpt lat="39.56252396" lon="-0.33209821"><ele>7.6</ele><time>2022-11-09T17:01:33.0000000+00:00</time></trkpt><trkpt lat="39.56250661" lon="-0.33207994"><ele>7.6</ele><time>2022-11-09T17:01:34.0000000+00:00</time></trkpt><trkpt lat="39.56250628" lon="-0.3320553"><ele>7.6</ele><time>2022-11-09T17:01:36.0000000+00:00</time></trkpt><trkpt lat="39.56243687" lon="-0.33202076"><ele>7.6</ele><time>2022-11-09T17:01:37.0000000+00:00</time></trkpt><trkpt lat="39.56238943" lon="-0.33199537"><ele>7.6</ele><time>2022-11-09T17:01:38.0000000+00:00</time></trkpt><trkpt lat="39.56235766" lon="-0.33198045"><ele>7.6</ele><time>2022-11-09T17:01:39.0000000+00:00</time></trkpt><trkpt lat="39.56232732" lon="-0.33195077"><ele>7.6</ele><time>2022-11-09T17:01:40.0000000+00:00</time></trkpt><trkpt lat="39.56231475" lon="-0.33192546"><ele>7.6</ele><time>2022-11-09T17:01:41.0000000+00:00</time></trkpt><trkpt lat="39.56231316" lon="-0.33190627"><ele>7.6</ele><time>2022-11-09T17:01:42.0000000+00:00</time></trkpt><trkpt lat="39.56231634" lon="-0.33187936"><ele>7.6</ele><time>2022-11-09T17:01:43.0000000+00:00</time></trkpt><trkpt lat="39.56232967" lon="-0.33185748"><ele>7.6</ele><time>2022-11-09T17:01:44.0000000+00:00</time></trkpt><trkpt lat="39.56233176" lon="-0.33185447"><ele>7.6</ele><time>2022-11-09T17:01:46.0000000+00:00</time></trkpt><trkpt lat="39.56234987" lon="-0.33188741"><ele>7.6</ele><time>2022-11-09T17:01:47.0000000+00:00</time></trkpt><trkpt lat="39.5623616" lon="-0.33189663"><ele>7.6</ele><time>2022-11-09T17:01:48.0000000+00:00</time></trkpt><trkpt lat="39.56235758" lon="-0.33189076"><ele>7.6</ele><time>2022-11-09T17:01:49.0000000+00:00</time></trkpt><trkpt lat="39.56235666" lon="-0.33189034"><ele>7.6</ele><time>2022-11-09T17:01:50.0000000+00:00</time></trkpt><trkpt lat="39.56235356" lon="-0.33187768"><ele>7.6</ele><time>2022-11-09T17:01:52.0000000+00:00</time></trkpt><trkpt lat="39.56234442" lon="-0.33185405"><ele>7.4</ele><time>2022-11-09T17:01:55.0000000+00:00</time></trkpt><trkpt lat="39.56233914" lon="-0.33184667"><ele>7.4</ele><time>2022-11-09T17:01:56.0000000+00:00</time></trkpt><trkpt lat="39.56256051" lon="-0.33246961"><ele>7.2</ele><time>2022-11-09T17:02:56.0000000+00:00</time></trkpt><trkpt lat="39.56268967" lon="-0.33202177"><ele>7.2</ele><time>2022-11-09T17:03:09.0000000+00:00</time></trkpt><trkpt lat="39.56269453" lon="-0.3319584"><ele>7.2</ele><time>2022-11-09T17:03:10.0000000+00:00</time></trkpt><trkpt lat="39.56255741" lon="-0.33193141"><ele>7.2</ele><time>2022-11-09T17:03:11.0000000+00:00</time></trkpt><trkpt lat="39.56252782" lon="-0.33190392"><ele>7.2</ele><time>2022-11-09T17:03:12.0000000+00:00</time></trkpt><trkpt lat="39.56254458" lon="-0.33189805"><ele>7.2</ele><time>2022-11-09T17:03:15.0000000+00:00</time></trkpt><trkpt lat="39.56254408" lon="-0.33191306"><ele>7.0</ele><time>2022-11-09T17:03:16.0000000+00:00</time></trkpt><trkpt lat="39.56254265" lon="-0.3319123"><ele>6.8</ele><time>2022-11-09T17:03:17.0000000+00:00</time></trkpt><trkpt lat="39.56254986" lon="-0.33190711"><ele>6.8</ele><time>2022-11-09T17:03:18.0000000+00:00</time></trkpt><trkpt lat="39.56255187" lon="-0.33190291"><ele>6.8</ele><time>2022-11-09T17:03:19.0000000+00:00</time></trkpt><trkpt lat="39.56254869" lon="-0.33190459"><ele>6.6</ele><time>2022-11-09T17:03:20.0000000+00:00</time></trkpt><trkpt lat="39.56254869" lon="-0.33190459"><ele>6.6</ele><time>2022-11-09T17:03:21.0000000+00:00</time></trkpt><trkpt lat="39.56254869" lon="-0.33190459"><ele>6.6</ele><time>2022-11-09T17:03:22.0000000+00:00</time></trkpt><trkpt lat="39.56254064" lon="-0.3319346"><ele>6.6</ele><time>2022-11-09T17:03:23.0000000+00:00</time></trkpt><trkpt lat="39.56251231" lon="-0.3319527"><ele>6.6</ele><time>2022-11-09T17:03:24.0000000+00:00</time></trkpt><trkpt lat="39.56251189" lon="-0.33195572"><ele>6.6</ele><time>2022-11-09T17:03:25.0000000+00:00</time></trkpt><trkpt lat="39.56252111" lon="-0.33194499"><ele>6.6</ele><time>2022-11-09T17:03:26.0000000+00:00</time></trkpt><trkpt lat="39.56251223" lon="-0.3319351"><ele>6.4</ele><time>2022-11-09T17:03:27.0000000+00:00</time></trkpt><trkpt lat="39.56248851" lon="-0.33193032"><ele>6.4</ele><time>2022-11-09T17:03:28.0000000+00:00</time></trkpt><trkpt lat="39.56248809" lon="-0.33192957"><ele>6.4</ele><time>2022-11-09T17:03:29.0000000+00:00</time></trkpt><trkpt lat="39.56248809" lon="-0.33192957"><ele>6.2</ele><time>2022-11-09T17:03:30.0000000+00:00</time></trkpt><trkpt lat="39.56247677" lon="-0.33194575"><ele>6.2</ele><time>2022-11-09T17:03:31.0000000+00:00</time></trkpt><trkpt lat="39.56247459" lon="-0.33194759"><ele>6.2</ele><time>2022-11-09T17:03:32.0000000+00:00</time></trkpt><trkpt lat="39.56246562" lon="-0.33193812"><ele>6.2</ele><time>2022-11-09T17:03:33.0000000+00:00</time></trkpt><trkpt lat="39.56246554" lon="-0.33193762"><ele>6.2</ele><time>2022-11-09T17:03:34.0000000+00:00</time></trkpt><trkpt lat="39.56246353" lon="-0.33193803"><ele>6.2</ele><time>2022-11-09T17:03:35.0000000+00:00</time></trkpt><trkpt lat="39.56246336" lon="-0.33193745"><ele>6.4</ele><time>2022-11-09T17:03:36.0000000+00:00</time></trkpt><trkpt lat="39.56246336" lon="-0.33193745"><ele>6.4</ele><time>2022-11-09T17:03:37.0000000+00:00</time></trkpt><trkpt lat="39.56246336" lon="-0.33193745"><ele>6.4</ele><time>2022-11-09T17:03:38.0000000+00:00</time></trkpt><trkpt lat="39.56246336" lon="-0.33193745"><ele>6.2</ele><time>2022-11-09T17:03:39.0000000+00:00</time></trkpt><trkpt lat="39.56247141" lon="-0.33193644"><ele>6.2</ele><time>2022-11-09T17:03:40.0000000+00:00</time></trkpt><trkpt lat="39.56246973" lon="-0.33193594"><ele>6.4</ele><time>2022-11-09T17:03:41.0000000+00:00</time></trkpt><trkpt lat="39.56246973" lon="-0.33193594"><ele>6.2</ele><time>2022-11-09T17:03:42.0000000+00:00</time></trkpt><trkpt lat="39.56246973" lon="-0.33193594"><ele>6.2</ele><time>2022-11-09T17:03:43.0000000+00:00</time></trkpt><trkpt lat="39.56246973" lon="-0.33193594"><ele>6.2</ele><time>2022-11-09T17:03:44.0000000+00:00</time></trkpt><trkpt lat="39.56246973" lon="-0.33193594"><ele>6.2</ele><time>2022-11-09T17:03:45.0000000+00:00</time></trkpt><trkpt lat="39.5624466" lon="-0.33194809"><ele>6.4</ele><time>2022-11-09T17:03:46.0000000+00:00</time></trkpt><trkpt lat="39.56242455" lon="-0.33196284"><ele>6.4</ele><time>2022-11-09T17:03:47.0000000+00:00</time></trkpt><trkpt lat="39.56241952" lon="-0.33196301"><ele>6.2</ele><time>2022-11-09T17:03:48.0000000+00:00</time></trkpt><trkpt lat="39.56241952" lon="-0.33196301"><ele>6.2</ele><time>2022-11-09T17:03:49.0000000+00:00</time></trkpt><trkpt lat="39.56241952" lon="-0.33196301"><ele>6.2</ele><time>2022-11-09T17:03:50.0000000+00:00</time></trkpt><trkpt lat="39.56241952" lon="-0.33196301"><ele>6.2</ele><time>2022-11-09T17:03:51.0000000+00:00</time></trkpt><trkpt lat="39.56241952" lon="-0.33196301"><ele>6.2</ele><time>2022-11-09T17:03:52.0000000+00:00</time></trkpt><trkpt lat="39.56241743" lon="-0.33196385"><ele>6.2</ele><time>2022-11-09T17:03:53.0000000+00:00</time></trkpt><trkpt lat="39.56243252" lon="-0.3319729"><ele>6.2</ele><time>2022-11-09T17:03:54.0000000+00:00</time></trkpt><trkpt lat="39.56245096" lon="-0.33198137"><ele>6.2</ele><time>2022-11-09T17:03:55.0000000+00:00</time></trkpt><trkpt lat="39.56245372" lon="-0.33198422"><ele>6.2</ele><time>2022-11-09T17:03:56.0000000+00:00</time></trkpt><trkpt lat="39.56245381" lon="-0.33198422"><ele>6.2</ele><time>2022-11-09T17:03:57.0000000+00:00</time></trkpt><trkpt lat="39.56249496" lon="-0.33199478"><ele>6.2</ele><time>2022-11-09T17:03:58.0000000+00:00</time></trkpt><trkpt lat="39.56249546" lon="-0.33199411"><ele>6.4</ele><time>2022-11-09T17:03:59.0000000+00:00</time></trkpt><trkpt lat="39.56249546" lon="-0.33199411"><ele>6.6</ele><time>2022-11-09T17:04:00.0000000+00:00</time></trkpt><trkpt lat="39.56249546" lon="-0.33199411"><ele>6.6</ele><time>2022-11-09T17:04:01.0000000+00:00</time></trkpt><trkpt lat="39.56249546" lon="-0.33199411"><ele>6.8</ele><time>2022-11-09T17:04:02.0000000+00:00</time></trkpt><trkpt lat="39.56249546" lon="-0.33199411"><ele>6.8</ele><time>2022-11-09T17:04:03.0000000+00:00</time></trkpt><trkpt lat="39.56249513" lon="-0.33199419"><ele>6.8</ele><time>2022-11-09T17:04:04.0000000+00:00</time></trkpt><trkpt lat="39.56250963" lon="-0.33199729"><ele>6.8</ele><time>2022-11-09T17:04:05.0000000+00:00</time></trkpt><trkpt lat="39.5625082" lon="-0.33199545"><ele>6.6</ele><time>2022-11-09T17:04:06.0000000+00:00</time></trkpt><trkpt lat="39.56250871" lon="-0.33199729"><ele>6.6</ele><time>2022-11-09T17:04:07.0000000+00:00</time></trkpt><trkpt lat="39.56250703" lon="-0.33199696"><ele>6.6</ele><time>2022-11-09T17:04:08.0000000+00:00</time></trkpt><trkpt lat="39.56250703" lon="-0.33199696"><ele>6.6</ele><time>2022-11-09T17:04:09.0000000+00:00</time></trkpt><trkpt lat="39.56250703" lon="-0.33199696"><ele>6.6</ele><time>2022-11-09T17:04:10.0000000+00:00</time></trkpt><trkpt lat="39.56250703" lon="-0.33199696"><ele>6.6</ele><time>2022-11-09T17:04:11.0000000+00:00</time></trkpt><trkpt lat="39.56250703" lon="-0.33199696"><ele>6.6</ele><time>2022-11-09T17:04:12.0000000+00:00</time></trkpt><trkpt lat="39.56250686" lon="-0.33200878"><ele>6.8</ele><time>2022-11-09T17:04:13.0000000+00:00</time></trkpt><trkpt lat="39.56250284" lon="-0.33200878"><ele>7.0</ele><time>2022-11-09T17:04:14.0000000+00:00</time></trkpt><trkpt lat="39.56249714" lon="-0.33200048"><ele>7.2</ele><time>2022-11-09T17:04:15.0000000+00:00</time></trkpt><trkpt lat="39.5624937" lon="-0.33200048"><ele>7.2</ele><time>2022-11-09T17:04:16.0000000+00:00</time></trkpt><trkpt lat="39.5624937" lon="-0.33200048"><ele>7.2</ele><time>2022-11-09T17:04:17.0000000+00:00</time></trkpt><trkpt lat="39.5624937" lon="-0.33200048"><ele>7.2</ele><time>2022-11-09T17:04:18.0000000+00:00</time></trkpt><trkpt lat="39.5624937" lon="-0.33200048"><ele>7.2</ele><time>2022-11-09T17:04:19.0000000+00:00</time></trkpt><trkpt lat="39.5624937" lon="-0.33200048"><ele>7.2</ele><time>2022-11-09T17:04:20.0000000+00:00</time></trkpt><trkpt lat="39.56249622" lon="-0.33200794"><ele>7.2</ele><time>2022-11-09T17:04:21.0000000+00:00</time></trkpt><trkpt lat="39.56249538" lon="-0.33201012"><ele>7.2</ele><time>2022-11-09T17:04:22.0000000+00:00</time></trkpt><trkpt lat="39.56249639" lon="-0.33201121"><ele>7.0</ele><time>2022-11-09T17:04:23.0000000+00:00</time></trkpt><trkpt lat="39.56249639" lon="-0.33201121"><ele>7.0</ele><time>2022-11-09T17:04:24.0000000+00:00</time></trkpt><trkpt lat="39.56249639" lon="-0.33201121"><ele>6.8</ele><time>2022-11-09T17:04:25.0000000+00:00</time></trkpt><trkpt lat="39.56249639" lon="-0.33201121"><ele>6.8</ele><time>2022-11-09T17:04:26.0000000+00:00</time></trkpt><trkpt lat="39.56249639" lon="-0.33201121"><ele>6.8</ele><time>2022-11-09T17:04:27.0000000+00:00</time></trkpt><trkpt lat="39.56249622" lon="-0.3320128"><ele>6.6</ele><time>2022-11-09T17:04:28.0000000+00:00</time></trkpt><trkpt lat="39.56249412" lon="-0.33201423"><ele>6.6</ele><time>2022-11-09T17:04:29.0000000+00:00</time></trkpt><trkpt lat="39.56248641" lon="-0.33201573"><ele>6.6</ele><time>2022-11-09T17:04:30.0000000+00:00</time></trkpt><trkpt lat="39.56248432" lon="-0.33201456"><ele>6.4</ele><time>2022-11-09T17:04:31.0000000+00:00</time></trkpt><trkpt lat="39.56248423" lon="-0.33201867"><ele>6.4</ele><time>2022-11-09T17:04:32.0000000+00:00</time></trkpt><trkpt lat="39.56247987" lon="-0.33201959"><ele>6.2</ele><time>2022-11-09T17:04:33.0000000+00:00</time></trkpt><trkpt lat="39.56247895" lon="-0.33201858"><ele>6.0</ele><time>2022-11-09T17:04:34.0000000+00:00</time></trkpt><trkpt lat="39.56247895" lon="-0.33201858"><ele>6.0</ele><time>2022-11-09T17:04:35.0000000+00:00</time></trkpt><trkpt lat="39.56247794" lon="-0.33201934"><ele>6.0</ele><time>2022-11-09T17:04:36.0000000+00:00</time></trkpt><trkpt lat="39.56247292" lon="-0.33201976"><ele>6.6</ele><time>2022-11-09T17:04:37.0000000+00:00</time></trkpt><trkpt lat="39.56247292" lon="-0.33201976"><ele>6.6</ele><time>2022-11-09T17:04:38.0000000+00:00</time></trkpt><trkpt lat="39.56247292" lon="-0.33201976"><ele>6.6</ele><time>2022-11-09T17:04:39.0000000+00:00</time></trkpt><trkpt lat="39.56247007" lon="-0.33201959"><ele>6.6</ele><time>2022-11-09T17:04:40.0000000+00:00</time></trkpt><trkpt lat="39.56246453" lon="-0.33202378"><ele>6.6</ele><time>2022-11-09T17:04:41.0000000+00:00</time></trkpt><trkpt lat="39.56245967" lon="-0.33202537"><ele>6.6</ele><time>2022-11-09T17:04:42.0000000+00:00</time></trkpt><trkpt lat="39.56245967" lon="-0.33202537"><ele>6.6</ele><time>2022-11-09T17:04:43.0000000+00:00</time></trkpt><trkpt lat="39.56247451" lon="-0.3320221"><ele>6.6</ele><time>2022-11-09T17:04:44.0000000+00:00</time></trkpt><trkpt lat="39.56247476" lon="-0.33202445"><ele>6.6</ele><time>2022-11-09T17:04:45.0000000+00:00</time></trkpt><trkpt lat="39.56247476" lon="-0.33202445"><ele>6.6</ele><time>2022-11-09T17:04:46.0000000+00:00</time></trkpt><trkpt lat="39.56247476" lon="-0.33202445"><ele>6.6</ele><time>2022-11-09T17:04:47.0000000+00:00</time></trkpt><trkpt lat="39.56248532" lon="-0.33202286"><ele>6.6</ele><time>2022-11-09T17:04:48.0000000+00:00</time></trkpt><trkpt lat="39.56248775" lon="-0.33201984"><ele>6.6</ele><time>2022-11-09T17:04:49.0000000+00:00</time></trkpt><trkpt lat="39.5624906" lon="-0.33201833"><ele>6.6</ele><time>2022-11-09T17:04:50.0000000+00:00</time></trkpt><trkpt lat="39.56249211" lon="-0.33201783"><ele>6.6</ele><time>2022-11-09T17:04:51.0000000+00:00</time></trkpt><trkpt lat="39.56249211" lon="-0.33201783"><ele>6.6</ele><time>2022-11-09T17:04:52.0000000+00:00</time></trkpt><trkpt lat="39.56249211" lon="-0.33201783"><ele>6.6</ele><time>2022-11-09T17:04:53.0000000+00:00</time></trkpt><trkpt lat="39.56249211" lon="-0.33201783"><ele>6.6</ele><time>2022-11-09T17:04:54.0000000+00:00</time></trkpt><trkpt lat="39.56249211" lon="-0.33201783"><ele>6.6</ele><time>2022-11-09T17:04:55.0000000+00:00</time></trkpt><trkpt lat="39.56249429" lon="-0.33201758"><ele>6.6</ele><time>2022-11-09T17:04:56.0000000+00:00</time></trkpt><trkpt lat="39.56249136" lon="-0.33201733"><ele>6.6</ele><time>2022-11-09T17:04:57.0000000+00:00</time></trkpt><trkpt lat="39.56249136" lon="-0.33201733"><ele>6.6</ele><time>2022-11-09T17:04:58.0000000+00:00</time></trkpt><trkpt lat="39.56249412" lon="-0.33200869"><ele>6.6</ele><time>2022-11-09T17:04:59.0000000+00:00</time></trkpt><trkpt lat="39.56249219" lon="-0.33200492"><ele>6.6</ele><time>2022-11-09T17:05:00.0000000+00:00</time></trkpt><trkpt lat="39.56249219" lon="-0.33200492"><ele>6.6</ele><time>2022-11-09T17:05:01.0000000+00:00</time></trkpt><trkpt lat="39.56249219" lon="-0.33200492"><ele>6.6</ele><time>2022-11-09T17:05:02.0000000+00:00</time></trkpt><trkpt lat="39.56249219" lon="-0.33200492"><ele>6.6</ele><time>2022-11-09T17:05:03.0000000+00:00</time></trkpt><trkpt lat="39.56249219" lon="-0.33200492"><ele>6.6</ele><time>2022-11-09T17:05:04.0000000+00:00</time></trkpt><trkpt lat="39.56248549" lon="-0.33200576"><ele>6.6</ele><time>2022-11-09T17:05:05.0000000+00:00</time></trkpt><trkpt lat="39.56248809" lon="-0.33200459"><ele>6.6</ele><time>2022-11-09T17:05:06.0000000+00:00</time></trkpt><trkpt lat="39.56248893" lon="-0.33200853"><ele>6.6</ele><time>2022-11-09T17:05:07.0000000+00:00</time></trkpt><trkpt lat="39.56248725" lon="-0.33200777"><ele>6.6</ele><time>2022-11-09T17:05:08.0000000+00:00</time></trkpt><trkpt lat="39.56248725" lon="-0.33200777"><ele>6.6</ele><time>2022-11-09T17:05:09.0000000+00:00</time></trkpt><trkpt lat="39.56248867" lon="-0.33201054"><ele>6.6</ele><time>2022-11-09T17:05:10.0000000+00:00</time></trkpt><trkpt lat="39.56248825" lon="-0.33201037"><ele>6.6</ele><time>2022-11-09T17:05:11.0000000+00:00</time></trkpt><trkpt lat="39.56248842" lon="-0.33201037"><ele>6.6</ele><time>2022-11-09T17:05:12.0000000+00:00</time></trkpt><trkpt lat="39.56248817" lon="-0.33200886"><ele>6.6</ele><time>2022-11-09T17:05:13.0000000+00:00</time></trkpt><trkpt lat="39.56248817" lon="-0.33200886"><ele>6.6</ele><time>2022-11-09T17:05:14.0000000+00:00</time></trkpt><trkpt lat="39.56248817" lon="-0.33200886"><ele>6.6</ele><time>2022-11-09T17:05:15.0000000+00:00</time></trkpt><trkpt lat="39.56248817" lon="-0.33200886"><ele>6.6</ele><time>2022-11-09T17:05:16.0000000+00:00</time></trkpt><trkpt lat="39.56248817" lon="-0.33200886"><ele>6.6</ele><time>2022-11-09T17:05:17.0000000+00:00</time></trkpt><trkpt lat="39.56248817" lon="-0.33200886"><ele>6.6</ele><time>2022-11-09T17:05:18.0000000+00:00</time></trkpt><trkpt lat="39.56248817" lon="-0.33200886"><ele>6.6</ele><time>2022-11-09T17:05:19.0000000+00:00</time></trkpt><trkpt lat="39.56248289" lon="-0.33200886"><ele>6.6</ele><time>2022-11-09T17:05:20.0000000+00:00</time></trkpt><trkpt lat="39.56248281" lon="-0.33200895"><ele>6.6</ele><time>2022-11-09T17:05:21.0000000+00:00</time></trkpt><trkpt lat="39.56247593" lon="-0.33200936"><ele>6.6</ele><time>2022-11-09T17:05:22.0000000+00:00</time></trkpt><trkpt lat="39.56247342" lon="-0.33201129"><ele>6.6</ele><time>2022-11-09T17:05:23.0000000+00:00</time></trkpt><trkpt lat="39.56247342" lon="-0.33201129"><ele>6.6</ele><time>2022-11-09T17:05:24.0000000+00:00</time></trkpt><trkpt lat="39.56247342" lon="-0.33201129"><ele>6.6</ele><time>2022-11-09T17:05:25.0000000+00:00</time></trkpt><trkpt lat="39.56247342" lon="-0.33201129"><ele>6.6</ele><time>2022-11-09T17:05:26.0000000+00:00</time></trkpt><trkpt lat="39.56247342" lon="-0.33201129"><ele>6.6</ele><time>2022-11-09T17:05:27.0000000+00:00</time></trkpt><trkpt lat="39.56247342" lon="-0.33201129"><ele>6.6</ele><time>2022-11-09T17:05:28.0000000+00:00</time></trkpt><trkpt lat="39.56247359" lon="-0.3320118"><ele>6.6</ele><time>2022-11-09T17:05:29.0000000+00:00</time></trkpt><trkpt lat="39.56247107" lon="-0.33201154"><ele>6.8</ele><time>2022-11-09T17:05:30.0000000+00:00</time></trkpt><trkpt lat="39.56246705" lon="-0.33201071"><ele>6.8</ele><time>2022-11-09T17:05:31.0000000+00:00</time></trkpt><trkpt lat="39.56246705" lon="-0.33201071"><ele>6.8</ele><time>2022-11-09T17:05:32.0000000+00:00</time></trkpt><trkpt lat="39.56246705" lon="-0.33201071"><ele>6.8</ele><time>2022-11-09T17:05:33.0000000+00:00</time></trkpt><trkpt lat="39.56246705" lon="-0.33201071"><ele>6.8</ele><time>2022-11-09T17:05:34.0000000+00:00</time></trkpt><trkpt lat="39.56246705" lon="-0.33201071"><ele>6.8</ele><time>2022-11-09T17:05:35.0000000+00:00</time></trkpt><trkpt lat="39.56246705" lon="-0.33201071"><ele>6.8</ele><time>2022-11-09T17:05:36.0000000+00:00</time></trkpt><trkpt lat="39.56246462" lon="-0.33200936"><ele>6.6</ele><time>2022-11-09T17:05:37.0000000+00:00</time></trkpt><trkpt lat="39.56246462" lon="-0.33200853"><ele>6.6</ele><time>2022-11-09T17:05:38.0000000+00:00</time></trkpt><trkpt lat="39.56245867" lon="-0.33200895"><ele>6.6</ele><time>2022-11-09T17:05:39.0000000+00:00</time></trkpt><trkpt lat="39.56245733" lon="-0.33200886"><ele>6.6</ele><time>2022-11-09T17:05:40.0000000+00:00</time></trkpt><trkpt lat="39.56245733" lon="-0.33200886"><ele>6.4</ele><time>2022-11-09T17:05:41.0000000+00:00</time></trkpt><trkpt lat="39.56245733" lon="-0.33200886"><ele>6.4</ele><time>2022-11-09T17:05:42.0000000+00:00</time></trkpt><trkpt lat="39.5624652" lon="-0.33200467"><ele>6.4</ele><time>2022-11-09T17:05:43.0000000+00:00</time></trkpt><trkpt lat="39.56246554" lon="-0.33200475"><ele>6.4</ele><time>2022-11-09T17:05:44.0000000+00:00</time></trkpt><trkpt lat="39.56246554" lon="-0.33200475"><ele>6.6</ele><time>2022-11-09T17:05:45.0000000+00:00</time></trkpt><trkpt lat="39.56246554" lon="-0.33200475"><ele>6.6</ele><time>2022-11-09T17:05:46.0000000+00:00</time></trkpt><trkpt lat="39.56246554" lon="-0.33200475"><ele>6.6</ele><time>2022-11-09T17:05:47.0000000+00:00</time></trkpt><trkpt lat="39.56246554" lon="-0.33200475"><ele>6.6</ele><time>2022-11-09T17:05:48.0000000+00:00</time></trkpt><trkpt lat="39.56246587" lon="-0.33200635"><ele>6.6</ele><time>2022-11-09T17:05:49.0000000+00:00</time></trkpt><trkpt lat="39.56246646" lon="-0.33200811"><ele>6.6</ele><time>2022-11-09T17:05:50.0000000+00:00</time></trkpt><trkpt lat="39.56246185" lon="-0.33201003"><ele>6.6</ele><time>2022-11-09T17:05:51.0000000+00:00</time></trkpt><trkpt lat="39.56246168" lon="-0.33201247"><ele>6.6</ele><time>2022-11-09T17:05:52.0000000+00:00</time></trkpt><trkpt lat="39.56246462" lon="-0.3320128"><ele>6.6</ele><time>2022-11-09T17:05:53.0000000+00:00</time></trkpt><trkpt lat="39.56246462" lon="-0.3320128"><ele>6.6</ele><time>2022-11-09T17:05:54.0000000+00:00</time></trkpt><trkpt lat="39.56246462" lon="-0.3320128"><ele>6.6</ele><time>2022-11-09T17:05:55.0000000+00:00</time></trkpt><trkpt lat="39.56246462" lon="-0.3320128"><ele>6.6</ele><time>2022-11-09T17:05:56.0000000+00:00</time></trkpt><trkpt lat="39.56246462" lon="-0.3320128"><ele>6.6</ele><time>2022-11-09T17:05:57.0000000+00:00</time></trkpt><trkpt lat="39.56246462" lon="-0.3320128"><ele>6.6</ele><time>2022-11-09T17:05:58.0000000+00:00</time></trkpt><trkpt lat="39.56246462" lon="-0.3320128"><ele>6.6</ele><time>2022-11-09T17:05:59.0000000+00:00</time></trkpt><trkpt lat="39.56246462" lon="-0.3320128"><ele>6.4</ele><time>2022-11-09T17:06:00.0000000+00:00</time></trkpt><trkpt lat="39.56246227" lon="-0.3320118"><ele>6.4</ele><time>2022-11-09T17:06:01.0000000+00:00</time></trkpt><trkpt lat="39.56246043" lon="-0.33200869"><ele>6.4</ele><time>2022-11-09T17:06:02.0000000+00:00</time></trkpt><trkpt lat="39.56246043" lon="-0.33200869"><ele>6.2</ele><time>2022-11-09T17:06:03.0000000+00:00</time></trkpt><trkpt lat="39.56246026" lon="-0.33200199"><ele>6.2</ele><time>2022-11-09T17:06:04.0000000+00:00</time></trkpt><trkpt lat="39.56245867" lon="-0.33199755"><ele>6.4</ele><time>2022-11-09T17:06:05.0000000+00:00</time></trkpt><trkpt lat="39.56245766" lon="-0.33199344"><ele>6.4</ele><time>2022-11-09T17:06:06.0000000+00:00</time></trkpt><trkpt lat="39.56245766" lon="-0.33199344"><ele>7.4</ele><time>2022-11-09T17:06:07.0000000+00:00</time></trkpt><trkpt lat="39.56245766" lon="-0.33199344"><ele>7.4</ele><time>2022-11-09T17:06:08.0000000+00:00</time></trkpt><trkpt lat="39.56245766" lon="-0.33199344"><ele>7.4</ele><time>2022-11-09T17:06:09.0000000+00:00</time></trkpt><trkpt lat="39.56245766" lon="-0.33199344"><ele>7.4</ele><time>2022-11-09T17:06:10.0000000+00:00</time></trkpt><trkpt lat="39.56245766" lon="-0.33199344"><ele>7.4</ele><time>2022-11-09T17:06:11.0000000+00:00</time></trkpt><trkpt lat="39.56245766" lon="-0.33199344"><ele>7.4</ele><time>2022-11-09T17:06:12.0000000+00:00</time></trkpt><trkpt lat="39.56245766" lon="-0.33199344"><ele>7.4</ele><time>2022-11-09T17:06:13.0000000+00:00</time></trkpt><trkpt lat="39.56245381" lon="-0.33199159"><ele>7.2</ele><time>2022-11-09T17:06:14.0000000+00:00</time></trkpt><trkpt lat="39.56245565" lon="-0.33198531"><ele>7.2</ele><time>2022-11-09T17:06:15.0000000+00:00</time></trkpt><trkpt lat="39.56245355" lon="-0.33197458"><ele>7.2</ele><time>2022-11-09T17:06:16.0000000+00:00</time></trkpt><trkpt lat="39.56245347" lon="-0.33195874"><ele>7.2</ele><time>2022-11-09T17:06:17.0000000+00:00</time></trkpt><trkpt lat="39.56244869" lon="-0.33193854"><ele>7.2</ele><time>2022-11-09T17:06:18.0000000+00:00</time></trkpt><trkpt lat="39.56243796" lon="-0.33191901"><ele>7.2</ele><time>2022-11-09T17:06:19.0000000+00:00</time></trkpt><trkpt lat="39.56242723" lon="-0.33189856"><ele>7.2</ele><time>2022-11-09T17:06:20.0000000+00:00</time></trkpt><trkpt lat="39.5624129" lon="-0.33187844"><ele>7.0</ele><time>2022-11-09T17:06:21.0000000+00:00</time></trkpt><trkpt lat="39.56240821" lon="-0.33185321"><ele>7.0</ele><time>2022-11-09T17:06:22.0000000+00:00</time></trkpt><trkpt lat="39.56241139" lon="-0.3318222"><ele>7.0</ele><time>2022-11-09T17:06:23.0000000+00:00</time></trkpt><trkpt lat="39.56240938" lon="-0.3317916"><ele>7.0</ele><time>2022-11-09T17:06:24.0000000+00:00</time></trkpt><trkpt lat="39.56240511" lon="-0.33176227"><ele>7.0</ele><time>2022-11-09T17:06:25.0000000+00:00</time></trkpt><trkpt lat="39.56239957" lon="-0.33173486"><ele>7.0</ele><time>2022-11-09T17:06:26.0000000+00:00</time></trkpt><trkpt lat="39.56239111" lon="-0.3317108"><ele>7.0</ele><time>2022-11-09T17:06:27.0000000+00:00</time></trkpt><trkpt lat="39.56238155" lon="-0.33169144"><ele>7.2</ele><time>2022-11-09T17:06:28.0000000+00:00</time></trkpt><trkpt lat="39.56237091" lon="-0.33167426"><ele>7.2</ele><time>2022-11-09T17:06:29.0000000+00:00</time></trkpt><trkpt lat="39.56236202" lon="-0.33165632"><ele>7.2</ele><time>2022-11-09T17:06:30.0000000+00:00</time></trkpt><trkpt lat="39.56235624" lon="-0.33163444"><ele>7.2</ele><time>2022-11-09T17:06:31.0000000+00:00</time></trkpt><trkpt lat="39.56235222" lon="-0.33160946"><ele>7.2</ele><time>2022-11-09T17:06:32.0000000+00:00</time></trkpt><trkpt lat="39.56234836" lon="-0.33158675"><ele>7.2</ele><time>2022-11-09T17:06:33.0000000+00:00</time></trkpt><trkpt lat="39.56234979" lon="-0.33156739"><ele>7.2</ele><time>2022-11-09T17:06:34.0000000+00:00</time></trkpt><trkpt lat="39.56235649" lon="-0.33154937"><ele>7.2</ele><time>2022-11-09T17:06:35.0000000+00:00</time></trkpt><trkpt lat="39.56237652" lon="-0.33153436"><ele>7.2</ele><time>2022-11-09T17:06:36.0000000+00:00</time></trkpt><trkpt lat="39.56240259" lon="-0.3315186"><ele>7.0</ele><time>2022-11-09T17:06:37.0000000+00:00</time></trkpt><trkpt lat="39.56243126" lon="-0.33150402"><ele>7.0</ele><time>2022-11-09T17:06:38.0000000+00:00</time></trkpt><trkpt lat="39.56246059" lon="-0.33148943"><ele>7.0</ele><time>2022-11-09T17:06:39.0000000+00:00</time></trkpt><trkpt lat="39.56249689" lon="-0.33146504"><ele>7.0</ele><time>2022-11-09T17:06:40.0000000+00:00</time></trkpt><trkpt lat="39.5625341" lon="-0.3314394"><ele>7.0</ele><time>2022-11-09T17:06:41.0000000+00:00</time></trkpt><trkpt lat="39.5625704" lon="-0.33141618"><ele>7.0</ele><time>2022-11-09T17:06:42.0000000+00:00</time></trkpt><trkpt lat="39.56260677" lon="-0.33139304"><ele>7.0</ele><time>2022-11-09T17:06:43.0000000+00:00</time></trkpt><trkpt lat="39.56263871" lon="-0.33136798"><ele>7.0</ele><time>2022-11-09T17:06:44.0000000+00:00</time></trkpt><trkpt lat="39.56267224" lon="-0.3313451"><ele>7.0</ele><time>2022-11-09T17:06:45.0000000+00:00</time></trkpt><trkpt lat="39.5626978" lon="-0.33131727"><ele>7.0</ele><time>2022-11-09T17:06:46.0000000+00:00</time></trkpt><trkpt lat="39.56270602" lon="-0.33128182"><ele>7.0</ele><time>2022-11-09T17:06:47.0000000+00:00</time></trkpt><trkpt lat="39.56269688" lon="-0.33124686"><ele>7.0</ele><time>2022-11-09T17:06:48.0000000+00:00</time></trkpt><trkpt lat="39.56267458" lon="-0.33122121"><ele>7.0</ele><time>2022-11-09T17:06:49.0000000+00:00</time></trkpt><trkpt lat="39.562646" lon="-0.33121233"><ele>7.0</ele><time>2022-11-09T17:06:50.0000000+00:00</time></trkpt><trkpt lat="39.56261348" lon="-0.33121409"><ele>7.0</ele><time>2022-11-09T17:06:51.0000000+00:00</time></trkpt><trkpt lat="39.56258138" lon="-0.33122331"><ele>7.0</ele><time>2022-11-09T17:06:52.0000000+00:00</time></trkpt><trkpt lat="39.56254902" lon="-0.33123697"><ele>7.0</ele><time>2022-11-09T17:06:53.0000000+00:00</time></trkpt><trkpt lat="39.56252849" lon="-0.33123563"><ele>7.0</ele><time>2022-11-09T17:06:54.0000000+00:00</time></trkpt><trkpt lat="39.56251717" lon="-0.33121627"><ele>6.8</ele><time>2022-11-09T17:06:55.0000000+00:00</time></trkpt><trkpt lat="39.56251742" lon="-0.331185"><ele>6.8</ele><time>2022-11-09T17:06:56.0000000+00:00</time></trkpt><trkpt lat="39.56253025" lon="-0.33115164"><ele>6.8</ele><time>2022-11-09T17:06:57.0000000+00:00</time></trkpt><trkpt lat="39.56254969" lon="-0.3311244"><ele>6.6</ele><time>2022-11-09T17:06:58.0000000+00:00</time></trkpt><trkpt lat="39.5625771" lon="-0.33110538"><ele>6.6</ele><time>2022-11-09T17:06:59.0000000+00:00</time></trkpt><trkpt lat="39.56261189" lon="-0.33109129"><ele>6.6</ele><time>2022-11-09T17:07:00.0000000+00:00</time></trkpt><trkpt lat="39.5626486" lon="-0.33107746"><ele>6.6</ele><time>2022-11-09T17:07:01.0000000+00:00</time></trkpt><trkpt lat="39.56268598" lon="-0.33106347"><ele>6.8</ele><time>2022-11-09T17:07:02.0000000+00:00</time></trkpt><trkpt lat="39.56272077" lon="-0.33105031"><ele>6.8</ele><time>2022-11-09T17:07:03.0000000+00:00</time></trkpt><trkpt lat="39.56275153" lon="-0.33103991"><ele>6.8</ele><time>2022-11-09T17:07:04.0000000+00:00</time></trkpt><trkpt lat="39.56277936" lon="-0.33103732"><ele>6.8</ele><time>2022-11-09T17:07:05.0000000+00:00</time></trkpt><trkpt lat="39.56281096" lon="-0.33104863"><ele>6.8</ele><time>2022-11-09T17:07:06.0000000+00:00</time></trkpt><trkpt lat="39.56284759" lon="-0.33107076"><ele>7.0</ele><time>2022-11-09T17:07:07.0000000+00:00</time></trkpt><trkpt lat="39.56288438" lon="-0.33109431"><ele>7.0</ele><time>2022-11-09T17:07:08.0000000+00:00</time></trkpt><trkpt lat="39.56292453" lon="-0.33111518"><ele>7.0</ele><time>2022-11-09T17:07:09.0000000+00:00</time></trkpt><trkpt lat="39.56296787" lon="-0.33113304"><ele>7.2</ele><time>2022-11-09T17:07:10.0000000+00:00</time></trkpt><trkpt lat="39.56300978" lon="-0.33114553"><ele>7.2</ele><time>2022-11-09T17:07:11.0000000+00:00</time></trkpt><trkpt lat="39.56305068" lon="-0.33115625"><ele>7.2</ele><time>2022-11-09T17:07:12.0000000+00:00</time></trkpt><trkpt lat="39.56309225" lon="-0.33117218"><ele>7.2</ele><time>2022-11-09T17:07:13.0000000+00:00</time></trkpt><trkpt lat="39.56313626" lon="-0.33118769"><ele>7.0</ele><time>2022-11-09T17:07:14.0000000+00:00</time></trkpt><trkpt lat="39.56318387" lon="-0.33120495"><ele>7.0</ele><time>2022-11-09T17:07:15.0000000+00:00</time></trkpt><trkpt lat="39.56323014" lon="-0.33121736"><ele>7.0</ele><time>2022-11-09T17:07:16.0000000+00:00</time></trkpt><trkpt lat="39.56327649" lon="-0.33122633"><ele>7.0</ele><time>2022-11-09T17:07:17.0000000+00:00</time></trkpt><trkpt lat="39.56332192" lon="-0.331227"><ele>7.0</ele><time>2022-11-09T17:07:18.0000000+00:00</time></trkpt><trkpt lat="39.56336098" lon="-0.33121585"><ele>7.0</ele><time>2022-11-09T17:07:19.0000000+00:00</time></trkpt><trkpt lat="39.56339501" lon="-0.33119666"><ele>7.0</ele><time>2022-11-09T17:07:20.0000000+00:00</time></trkpt><trkpt lat="39.56342694" lon="-0.33117327"><ele>6.8</ele><time>2022-11-09T17:07:21.0000000+00:00</time></trkpt><trkpt lat="39.56345377" lon="-0.33115106"><ele>6.8</ele><time>2022-11-09T17:07:22.0000000+00:00</time></trkpt><trkpt lat="39.56347321" lon="-0.33113362"><ele>6.8</ele><time>2022-11-09T17:07:23.0000000+00:00</time></trkpt><trkpt lat="39.56349165" lon="-0.33111393"><ele>6.8</ele><time>2022-11-09T17:07:24.0000000+00:00</time></trkpt><trkpt lat="39.56351521" lon="-0.33109155"><ele>6.8</ele><time>2022-11-09T17:07:25.0000000+00:00</time></trkpt><trkpt lat="39.56354236" lon="-0.33106095"><ele>6.8</ele><time>2022-11-09T17:07:26.0000000+00:00</time></trkpt><trkpt lat="39.56356818" lon="-0.33102323"><ele>6.8</ele><time>2022-11-09T17:07:27.0000000+00:00</time></trkpt><trkpt lat="39.56358771" lon="-0.33097537"><ele>6.8</ele><time>2022-11-09T17:07:28.0000000+00:00</time></trkpt><trkpt lat="39.56360833" lon="-0.33091921"><ele>6.6</ele><time>2022-11-09T17:07:29.0000000+00:00</time></trkpt><trkpt lat="39.5636323" lon="-0.33086146"><ele>6.6</ele><time>2022-11-09T17:07:30.0000000+00:00</time></trkpt><trkpt lat="39.56365124" lon="-0.33079541"><ele>6.6</ele><time>2022-11-09T17:07:31.0000000+00:00</time></trkpt><trkpt lat="39.56367044" lon="-0.33073138"><ele>6.4</ele><time>2022-11-09T17:07:32.0000000+00:00</time></trkpt><trkpt lat="39.56368913" lon="-0.33067966"><ele>6.4</ele><time>2022-11-09T17:07:33.0000000+00:00</time></trkpt><trkpt lat="39.56370128" lon="-0.33065041"><ele>6.4</ele><time>2022-11-09T17:07:34.0000000+00:00</time></trkpt><trkpt lat="39.56370589" lon="-0.3306411"><ele>6.4</ele><time>2022-11-09T17:07:35.0000000+00:00</time></trkpt><trkpt lat="39.56370774" lon="-0.33064479"><ele>6.4</ele><time>2022-11-09T17:07:36.0000000+00:00</time></trkpt><trkpt lat="39.56371025" lon="-0.33065644"><ele>6.4</ele><time>2022-11-09T17:07:37.0000000+00:00</time></trkpt><trkpt lat="39.56371252" lon="-0.33067161"><ele>6.4</ele><time>2022-11-09T17:07:38.0000000+00:00</time></trkpt><trkpt lat="39.56371721" lon="-0.33068896"><ele>6.4</ele><time>2022-11-09T17:07:39.0000000+00:00</time></trkpt><trkpt lat="39.56372048" lon="-0.33071126"><ele>6.4</ele><time>2022-11-09T17:07:40.0000000+00:00</time></trkpt><trkpt lat="39.5637292" lon="-0.33073523"><ele>6.6</ele><time>2022-11-09T17:07:41.0000000+00:00</time></trkpt><trkpt lat="39.56374705" lon="-0.33076155"><ele>6.6</ele><time>2022-11-09T17:07:42.0000000+00:00</time></trkpt><trkpt lat="39.56377219" lon="-0.33077412"><ele>6.6</ele><time>2022-11-09T17:07:43.0000000+00:00</time></trkpt><trkpt lat="39.56379969" lon="-0.33076515"><ele>6.4</ele><time>2022-11-09T17:07:44.0000000+00:00</time></trkpt><trkpt lat="39.56382525" lon="-0.33073632"><ele>6.2</ele><time>2022-11-09T17:07:45.0000000+00:00</time></trkpt><trkpt lat="39.5638478" lon="-0.33069626"><ele>6.2</ele><time>2022-11-09T17:07:46.0000000+00:00</time></trkpt><trkpt lat="39.5638711" lon="-0.33065887"><ele>6.2</ele><time>2022-11-09T17:07:47.0000000+00:00</time></trkpt><trkpt lat="39.56389566" lon="-0.33062015"><ele>6.2</ele><time>2022-11-09T17:07:48.0000000+00:00</time></trkpt><trkpt lat="39.5639224" lon="-0.33058545"><ele>6.2</ele><time>2022-11-09T17:07:49.0000000+00:00</time></trkpt><trkpt lat="39.56395903" lon="-0.33055376"><ele>6.2</ele><time>2022-11-09T17:07:50.0000000+00:00</time></trkpt><trkpt lat="39.56400253" lon="-0.33052191"><ele>6.2</ele><time>2022-11-09T17:07:51.0000000+00:00</time></trkpt><trkpt lat="39.56404796" lon="-0.3304914"><ele>6.4</ele><time>2022-11-09T17:07:52.0000000+00:00</time></trkpt><trkpt lat="39.56409238" lon="-0.33046223"><ele>6.4</ele><time>2022-11-09T17:07:53.0000000+00:00</time></trkpt><trkpt lat="39.56413681" lon="-0.33043348"><ele>6.4</ele><time>2022-11-09T17:07:54.0000000+00:00</time></trkpt><trkpt lat="39.56418115" lon="-0.33040524"><ele>6.4</ele><time>2022-11-09T17:07:55.0000000+00:00</time></trkpt><trkpt lat="39.56422675" lon="-0.33037992"><ele>6.4</ele><time>2022-11-09T17:07:56.0000000+00:00</time></trkpt><trkpt lat="39.56427243" lon="-0.33035629"><ele>6.4</ele><time>2022-11-09T17:07:57.0000000+00:00</time></trkpt><trkpt lat="39.5643192" lon="-0.33033692"><ele>6.4</ele><time>2022-11-09T17:07:58.0000000+00:00</time></trkpt><trkpt lat="39.56436647" lon="-0.33031245"><ele>6.6</ele><time>2022-11-09T17:07:59.0000000+00:00</time></trkpt><trkpt lat="39.56441467" lon="-0.33028521"><ele>6.8</ele><time>2022-11-09T17:08:00.0000000+00:00</time></trkpt><trkpt lat="39.56446488" lon="-0.33025797"><ele>6.8</ele><time>2022-11-09T17:08:01.0000000+00:00</time></trkpt><trkpt lat="39.56451651" lon="-0.33023282"><ele>6.8</ele><time>2022-11-09T17:08:02.0000000+00:00</time></trkpt><trkpt lat="39.56456873" lon="-0.33020759"><ele>6.8</ele><time>2022-11-09T17:08:03.0000000+00:00</time></trkpt><trkpt lat="39.56462262" lon="-0.33018094"><ele>7.0</ele><time>2022-11-09T17:08:04.0000000+00:00</time></trkpt><trkpt lat="39.56467702" lon="-0.33015587"><ele>7.0</ele><time>2022-11-09T17:08:05.0000000+00:00</time></trkpt><trkpt lat="39.56473159" lon="-0.33013199"><ele>7.2</ele><time>2022-11-09T17:08:06.0000000+00:00</time></trkpt><trkpt lat="39.56478381" lon="-0.33010567"><ele>7.2</ele><time>2022-11-09T17:08:07.0000000+00:00</time></trkpt><trkpt lat="39.56483393" lon="-0.33007926"><ele>7.2</ele><time>2022-11-09T17:08:08.0000000+00:00</time></trkpt><trkpt lat="39.56488623" lon="-0.33005303"><ele>7.2</ele><time>2022-11-09T17:08:09.0000000+00:00</time></trkpt><trkpt lat="39.56494097" lon="-0.33002621"><ele>7.2</ele><time>2022-11-09T17:08:10.0000000+00:00</time></trkpt><trkpt lat="39.56499511" lon="-0.33000249"><ele>7.2</ele><time>2022-11-09T17:08:11.0000000+00:00</time></trkpt><trkpt lat="39.56505119" lon="-0.32997801"><ele>7.2</ele><time>2022-11-09T17:08:12.0000000+00:00</time></trkpt><trkpt lat="39.56510886" lon="-0.32995739"><ele>7.2</ele><time>2022-11-09T17:08:13.0000000+00:00</time></trkpt><trkpt lat="39.56516527" lon="-0.32993794"><ele>7.2</ele><time>2022-11-09T17:08:14.0000000+00:00</time></trkpt><trkpt lat="39.56521598" lon="-0.32991548"><ele>7.2</ele><time>2022-11-09T17:08:15.0000000+00:00</time></trkpt><trkpt lat="39.56526727" lon="-0.32989143"><ele>7.4</ele><time>2022-11-09T17:08:16.0000000+00:00</time></trkpt><trkpt lat="39.56532109" lon="-0.32986905"><ele>7.4</ele><time>2022-11-09T17:08:17.0000000+00:00</time></trkpt><trkpt lat="39.56537657" lon="-0.32984541"><ele>7.4</ele><time>2022-11-09T17:08:18.0000000+00:00</time></trkpt><trkpt lat="39.56544413" lon="-0.32982697"><ele>7.4</ele><time>2022-11-09T17:08:19.0000000+00:00</time></trkpt><trkpt lat="39.56550666" lon="-0.32981305"><ele>7.4</ele><time>2022-11-09T17:08:20.0000000+00:00</time></trkpt><trkpt lat="39.56556265" lon="-0.32979185"><ele>7.6</ele><time>2022-11-09T17:08:21.0000000+00:00</time></trkpt><trkpt lat="39.56561957" lon="-0.3297657"><ele>7.4</ele><time>2022-11-09T17:08:22.0000000+00:00</time></trkpt><trkpt lat="39.56567908" lon="-0.32973946"><ele>7.4</ele><time>2022-11-09T17:08:23.0000000+00:00</time></trkpt><trkpt lat="39.56573507" lon="-0.32971691"><ele>7.4</ele><time>2022-11-09T17:08:24.0000000+00:00</time></trkpt><trkpt lat="39.56579257" lon="-0.32969579"><ele>7.4</ele><time>2022-11-09T17:08:25.0000000+00:00</time></trkpt><trkpt lat="39.56584856" lon="-0.32967081"><ele>7.4</ele><time>2022-11-09T17:08:26.0000000+00:00</time></trkpt><trkpt lat="39.56590162" lon="-0.32964089"><ele>7.4</ele><time>2022-11-09T17:08:27.0000000+00:00</time></trkpt><trkpt lat="39.56595618" lon="-0.32961222"><ele>7.6</ele><time>2022-11-09T17:08:28.0000000+00:00</time></trkpt><trkpt lat="39.56601419" lon="-0.32959102"><ele>7.6</ele><time>2022-11-09T17:08:29.0000000+00:00</time></trkpt><trkpt lat="39.56607261" lon="-0.32956814"><ele>7.6</ele><time>2022-11-09T17:08:30.0000000+00:00</time></trkpt><trkpt lat="39.56613128" lon="-0.32954383"><ele>7.6</ele><time>2022-11-09T17:08:31.0000000+00:00</time></trkpt><trkpt lat="39.56619012" lon="-0.32952078"><ele>7.6</ele><time>2022-11-09T17:08:32.0000000+00:00</time></trkpt><trkpt lat="39.56624544" lon="-0.32949597"><ele>7.6</ele><time>2022-11-09T17:08:33.0000000+00:00</time></trkpt><trkpt lat="39.56629925" lon="-0.32946814"><ele>7.6</ele><time>2022-11-09T17:08:34.0000000+00:00</time></trkpt><trkpt lat="39.56635516" lon="-0.32944031"><ele>7.6</ele><time>2022-11-09T17:08:35.0000000+00:00</time></trkpt><trkpt lat="39.56641233" lon="-0.32941776"><ele>7.6</ele><time>2022-11-09T17:08:36.0000000+00:00</time></trkpt><trkpt lat="39.56646924" lon="-0.32939723"><ele>7.6</ele><time>2022-11-09T17:08:37.0000000+00:00</time></trkpt><trkpt lat="39.56652892" lon="-0.32937669"><ele>7.4</ele><time>2022-11-09T17:08:38.0000000+00:00</time></trkpt><trkpt lat="39.56658684" lon="-0.32935423"><ele>7.2</ele><time>2022-11-09T17:08:39.0000000+00:00</time></trkpt><trkpt lat="39.56664442" lon="-0.32933378"><ele>7.2</ele><time>2022-11-09T17:08:40.0000000+00:00</time></trkpt><trkpt lat="39.56670368" lon="-0.32930947"><ele>7.0</ele><time>2022-11-09T17:08:41.0000000+00:00</time></trkpt><trkpt lat="39.5667616" lon="-0.32928449"><ele>7.0</ele><time>2022-11-09T17:08:42.0000000+00:00</time></trkpt><trkpt lat="39.56681985" lon="-0.3292637"><ele>7.0</ele><time>2022-11-09T17:08:43.0000000+00:00</time></trkpt><trkpt lat="39.5668761" lon="-0.32923948"><ele>7.0</ele><time>2022-11-09T17:08:44.0000000+00:00</time></trkpt><trkpt lat="39.56693444" lon="-0.32921651"><ele>7.0</ele><time>2022-11-09T17:08:45.0000000+00:00</time></trkpt><trkpt lat="39.56699219" lon="-0.32919355"><ele>6.8</ele><time>2022-11-09T17:08:46.0000000+00:00</time></trkpt><trkpt lat="39.56704575" lon="-0.3291627"><ele>6.8</ele><time>2022-11-09T17:08:47.0000000+00:00</time></trkpt><trkpt lat="39.56710325" lon="-0.32913839"><ele>6.6</ele><time>2022-11-09T17:08:48.0000000+00:00</time></trkpt><trkpt lat="39.56716276" lon="-0.32911593"><ele>6.6</ele><time>2022-11-09T17:08:49.0000000+00:00</time></trkpt><trkpt lat="39.56722277" lon="-0.32909012"><ele>6.6</ele><time>2022-11-09T17:08:50.0000000+00:00</time></trkpt><trkpt lat="39.5672801" lon="-0.32906245"><ele>6.6</ele><time>2022-11-09T17:08:51.0000000+00:00</time></trkpt><trkpt lat="39.5673402" lon="-0.32903429"><ele>6.6</ele><time>2022-11-09T17:08:52.0000000+00:00</time></trkpt><trkpt lat="39.56740265" lon="-0.32900831"><ele>6.6</ele><time>2022-11-09T17:08:53.0000000+00:00</time></trkpt><trkpt lat="39.56746484" lon="-0.32898526"><ele>6.6</ele><time>2022-11-09T17:08:54.0000000+00:00</time></trkpt><trkpt lat="39.56752704" lon="-0.3289617"><ele>6.6</ele><time>2022-11-09T17:08:55.0000000+00:00</time></trkpt><trkpt lat="39.56758671" lon="-0.3289358"><ele>6.4</ele><time>2022-11-09T17:08:56.0000000+00:00</time></trkpt><trkpt lat="39.56764287" lon="-0.32890605"><ele>6.4</ele><time>2022-11-09T17:08:57.0000000+00:00</time></trkpt><trkpt lat="39.56769744" lon="-0.32887747"><ele>6.4</ele><time>2022-11-09T17:08:58.0000000+00:00</time></trkpt><trkpt lat="39.56775301" lon="-0.32885157"><ele>6.4</ele><time>2022-11-09T17:08:59.0000000+00:00</time></trkpt><trkpt lat="39.56781454" lon="-0.32882449"><ele>6.4</ele><time>2022-11-09T17:09:00.0000000+00:00</time></trkpt><trkpt lat="39.56787648" lon="-0.32879817"><ele>6.4</ele><time>2022-11-09T17:09:01.0000000+00:00</time></trkpt><trkpt lat="39.56793817" lon="-0.32877294"><ele>6.4</ele><time>2022-11-09T17:09:02.0000000+00:00</time></trkpt><trkpt lat="39.56800045" lon="-0.32874847"><ele>6.4</ele><time>2022-11-09T17:09:03.0000000+00:00</time></trkpt><trkpt lat="39.56806272" lon="-0.32872508"><ele>6.2</ele><time>2022-11-09T17:09:04.0000000+00:00</time></trkpt><trkpt lat="39.56812307" lon="-0.32869952"><ele>6.2</ele><time>2022-11-09T17:09:05.0000000+00:00</time></trkpt><trkpt lat="39.5681773" lon="-0.32866859"><ele>6.2</ele><time>2022-11-09T17:09:06.0000000+00:00</time></trkpt><trkpt lat="39.56822936" lon="-0.32863875"><ele>6.2</ele><time>2022-11-09T17:09:07.0000000+00:00</time></trkpt><trkpt lat="39.56828945" lon="-0.3286131"><ele>6.2</ele><time>2022-11-09T17:09:08.0000000+00:00</time></trkpt><trkpt lat="39.56835441" lon="-0.32859374"><ele>6.2</ele><time>2022-11-09T17:09:09.0000000+00:00</time></trkpt><trkpt lat="39.56841929" lon="-0.32858678"><ele>6.2</ele><time>2022-11-09T17:09:10.0000000+00:00</time></trkpt><trkpt lat="39.5684778" lon="-0.32859625"><ele>6.2</ele><time>2022-11-09T17:09:11.0000000+00:00</time></trkpt><trkpt lat="39.56853068" lon="-0.32862157"><ele>6.2</ele><time>2022-11-09T17:09:12.0000000+00:00</time></trkpt><trkpt lat="39.56857855" lon="-0.32865308"><ele>6.4</ele><time>2022-11-09T17:09:13.0000000+00:00</time></trkpt><trkpt lat="39.56862272" lon="-0.32867957"><ele>6.4</ele><time>2022-11-09T17:09:14.0000000+00:00</time></trkpt><trkpt lat="39.56866086" lon="-0.32869424"><ele>6.4</ele><time>2022-11-09T17:09:15.0000000+00:00</time></trkpt><trkpt lat="39.56869564" lon="-0.32869742"><ele>6.4</ele><time>2022-11-09T17:09:16.0000000+00:00</time></trkpt><trkpt lat="39.56872959" lon="-0.3286939"><ele>6.2</ele><time>2022-11-09T17:09:17.0000000+00:00</time></trkpt><trkpt lat="39.56875968" lon="-0.32868636"><ele>6.0</ele><time>2022-11-09T17:09:18.0000000+00:00</time></trkpt><trkpt lat="39.56878868" lon="-0.32867731"><ele>5.8</ele><time>2022-11-09T17:09:19.0000000+00:00</time></trkpt><trkpt lat="39.56882036" lon="-0.32866457"><ele>5.8</ele><time>2022-11-09T17:09:20.0000000+00:00</time></trkpt><trkpt lat="39.56885733" lon="-0.32864428"><ele>5.8</ele><time>2022-11-09T17:09:21.0000000+00:00</time></trkpt><trkpt lat="39.56889421" lon="-0.32860992"><ele>5.8</ele><time>2022-11-09T17:09:22.0000000+00:00</time></trkpt><trkpt lat="39.56892941" lon="-0.32856658"><ele>5.8</ele><time>2022-11-09T17:09:23.0000000+00:00</time></trkpt><trkpt lat="39.56896068" lon="-0.3285147"><ele>5.8</ele><time>2022-11-09T17:09:24.0000000+00:00</time></trkpt><trkpt lat="39.56898473" lon="-0.32845737"><ele>6.0</ele><time>2022-11-09T17:09:25.0000000+00:00</time></trkpt><trkpt lat="39.56900837" lon="-0.32839676"><ele>6.0</ele><time>2022-11-09T17:09:26.0000000+00:00</time></trkpt><trkpt lat="39.56903569" lon="-0.32833977"><ele>6.0</ele><time>2022-11-09T17:09:27.0000000+00:00</time></trkpt><trkpt lat="39.56906872" lon="-0.32828813"><ele>6.2</ele><time>2022-11-09T17:09:28.0000000+00:00</time></trkpt><trkpt lat="39.56910761" lon="-0.32824338"><ele>6.2</ele><time>2022-11-09T17:09:29.0000000+00:00</time></trkpt><trkpt lat="39.56915028" lon="-0.32820784"><ele>6.6</ele><time>2022-11-09T17:09:30.0000000+00:00</time></trkpt><trkpt lat="39.56919914" lon="-0.32818059"><ele>6.6</ele><time>2022-11-09T17:09:31.0000000+00:00</time></trkpt><trkpt lat="39.56925287" lon="-0.32815729"><ele>6.8</ele><time>2022-11-09T17:09:32.0000000+00:00</time></trkpt><trkpt lat="39.56930727" lon="-0.32813709"><ele>6.8</ele><time>2022-11-09T17:09:33.0000000+00:00</time></trkpt><trkpt lat="39.56936058" lon="-0.3281153"><ele>6.8</ele><time>2022-11-09T17:09:34.0000000+00:00</time></trkpt><trkpt lat="39.56941296" lon="-0.32809233"><ele>6.8</ele><time>2022-11-09T17:09:35.0000000+00:00</time></trkpt><trkpt lat="39.56946937" lon="-0.32807079"><ele>7.0</ele><time>2022-11-09T17:09:36.0000000+00:00</time></trkpt><trkpt lat="39.56952612" lon="-0.32804942"><ele>7.0</ele><time>2022-11-09T17:09:37.0000000+00:00</time></trkpt><trkpt lat="39.56958203" lon="-0.32802394"><ele>7.0</ele><time>2022-11-09T17:09:38.0000000+00:00</time></trkpt><trkpt lat="39.56963567" lon="-0.32799804"><ele>7.0</ele><time>2022-11-09T17:09:39.0000000+00:00</time></trkpt><trkpt lat="39.56969091" lon="-0.32797759"><ele>7.0</ele><time>2022-11-09T17:09:40.0000000+00:00</time></trkpt><trkpt lat="39.5697438" lon="-0.32795521"><ele>7.0</ele><time>2022-11-09T17:09:41.0000000+00:00</time></trkpt><trkpt lat="39.56979342" lon="-0.32792729"><ele>7.0</ele><time>2022-11-09T17:09:42.0000000+00:00</time></trkpt><trkpt lat="39.56984413" lon="-0.32790198"><ele>7.0</ele><time>2022-11-09T17:09:43.0000000+00:00</time></trkpt><trkpt lat="39.56989895" lon="-0.32787776"><ele>7.0</ele><time>2022-11-09T17:09:44.0000000+00:00</time></trkpt><trkpt lat="39.56995586" lon="-0.32785873"><ele>7.2</ele><time>2022-11-09T17:09:45.0000000+00:00</time></trkpt><trkpt lat="39.57001319" lon="-0.32783493"><ele>7.4</ele><time>2022-11-09T17:09:46.0000000+00:00</time></trkpt><trkpt lat="39.57007161" lon="-0.32781187"><ele>7.4</ele><time>2022-11-09T17:09:47.0000000+00:00</time></trkpt><trkpt lat="39.57013138" lon="-0.32778958"><ele>7.4</ele><time>2022-11-09T17:09:48.0000000+00:00</time></trkpt><trkpt lat="39.57019248" lon="-0.32776183"><ele>7.4</ele><time>2022-11-09T17:09:49.0000000+00:00</time></trkpt><trkpt lat="39.57026104" lon="-0.3277527"><ele>7.4</ele><time>2022-11-09T17:09:50.0000000+00:00</time></trkpt><trkpt lat="39.57031754" lon="-0.32772789"><ele>7.4</ele><time>2022-11-09T17:09:51.0000000+00:00</time></trkpt><trkpt lat="39.57037579" lon="-0.32770643"><ele>7.4</ele><time>2022-11-09T17:09:52.0000000+00:00</time></trkpt><trkpt lat="39.57043338" lon="-0.32768715"><ele>7.2</ele><time>2022-11-09T17:09:53.0000000+00:00</time></trkpt><trkpt lat="39.57048828" lon="-0.32766444"><ele>7.2</ele><time>2022-11-09T17:09:54.0000000+00:00</time></trkpt><trkpt lat="39.57053765" lon="-0.32764197"><ele>7.2</ele><time>2022-11-09T17:09:55.0000000+00:00</time></trkpt><trkpt lat="39.57058392" lon="-0.32761926"><ele>7.2</ele><time>2022-11-09T17:09:56.0000000+00:00</time></trkpt><trkpt lat="39.57063362" lon="-0.32760065"><ele>7.2</ele><time>2022-11-09T17:09:57.0000000+00:00</time></trkpt><trkpt lat="39.57068567" lon="-0.32758313"><ele>7.2</ele><time>2022-11-09T17:09:58.0000000+00:00</time></trkpt><trkpt lat="39.57073781" lon="-0.3275636"><ele>7.2</ele><time>2022-11-09T17:09:59.0000000+00:00</time></trkpt><trkpt lat="39.57078869" lon="-0.32754483"><ele>7.0</ele><time>2022-11-09T17:10:00.0000000+00:00</time></trkpt><trkpt lat="39.57082909" lon="-0.32752505"><ele>7.0</ele><time>2022-11-09T17:10:01.0000000+00:00</time></trkpt><trkpt lat="39.57086689" lon="-0.32750191"><ele>7.0</ele><time>2022-11-09T17:10:02.0000000+00:00</time></trkpt><trkpt lat="39.57090796" lon="-0.32748004"><ele>7.0</ele><time>2022-11-09T17:10:03.0000000+00:00</time></trkpt><trkpt lat="39.57095557" lon="-0.32746042"><ele>7.0</ele><time>2022-11-09T17:10:04.0000000+00:00</time></trkpt><trkpt lat="39.57100343" lon="-0.32744106"><ele>7.0</ele><time>2022-11-09T17:10:05.0000000+00:00</time></trkpt><trkpt lat="39.57105682" lon="-0.32742547"><ele>7.0</ele><time>2022-11-09T17:10:06.0000000+00:00</time></trkpt><trkpt lat="39.57110695" lon="-0.32740619"><ele>7.0</ele><time>2022-11-09T17:10:07.0000000+00:00</time></trkpt><trkpt lat="39.57114718" lon="-0.32739077"><ele>7.0</ele><time>2022-11-09T17:10:08.0000000+00:00</time></trkpt><trkpt lat="39.57120636" lon="-0.32736235"><ele>7.0</ele><time>2022-11-09T17:10:09.0000000+00:00</time></trkpt><trkpt lat="39.57125866" lon="-0.32733746"><ele>7.0</ele><time>2022-11-09T17:10:10.0000000+00:00</time></trkpt><trkpt lat="39.57131339" lon="-0.32731139"><ele>7.0</ele><time>2022-11-09T17:10:11.0000000+00:00</time></trkpt><trkpt lat="39.57136754" lon="-0.327287"><ele>7.0</ele><time>2022-11-09T17:10:12.0000000+00:00</time></trkpt><trkpt lat="39.57142244" lon="-0.32726487"><ele>7.0</ele><time>2022-11-09T17:10:13.0000000+00:00</time></trkpt><trkpt lat="39.57147634" lon="-0.32723503"><ele>7.2</ele><time>2022-11-09T17:10:14.0000000+00:00</time></trkpt><trkpt lat="39.57153082" lon="-0.32721257"><ele>7.2</ele><time>2022-11-09T17:10:15.0000000+00:00</time></trkpt><trkpt lat="39.57158731" lon="-0.32719664"><ele>7.2</ele><time>2022-11-09T17:10:16.0000000+00:00</time></trkpt><trkpt lat="39.57164372" lon="-0.32717577"><ele>7.2</ele><time>2022-11-09T17:10:17.0000000+00:00</time></trkpt><trkpt lat="39.57170265" lon="-0.32715272"><ele>7.2</ele><time>2022-11-09T17:10:18.0000000+00:00</time></trkpt><trkpt lat="39.57176099" lon="-0.32712858"><ele>7.2</ele><time>2022-11-09T17:10:19.0000000+00:00</time></trkpt><trkpt lat="39.57181782" lon="-0.32710444"><ele>7.2</ele><time>2022-11-09T17:10:20.0000000+00:00</time></trkpt><trkpt lat="39.57187431" lon="-0.32707997"><ele>7.0</ele><time>2022-11-09T17:10:21.0000000+00:00</time></trkpt><trkpt lat="39.57193508" lon="-0.32705725"><ele>7.0</ele><time>2022-11-09T17:10:22.0000000+00:00</time></trkpt><trkpt lat="39.57199375" lon="-0.3270342"><ele>7.0</ele><time>2022-11-09T17:10:23.0000000+00:00</time></trkpt><trkpt lat="39.57205712" lon="-0.32700964"><ele>7.0</ele><time>2022-11-09T17:10:24.0000000+00:00</time></trkpt><trkpt lat="39.57211521" lon="-0.32697218"><ele>7.0</ele><time>2022-11-09T17:10:25.0000000+00:00</time></trkpt><trkpt lat="39.57217086" lon="-0.32694074"><ele>7.0</ele><time>2022-11-09T17:10:26.0000000+00:00</time></trkpt><trkpt lat="39.57222995" lon="-0.32691727"><ele>7.0</ele><time>2022-11-09T17:10:27.0000000+00:00</time></trkpt><trkpt lat="39.57228854" lon="-0.32689774"><ele>7.0</ele><time>2022-11-09T17:10:28.0000000+00:00</time></trkpt><trkpt lat="39.57234546" lon="-0.32687159"><ele>7.0</ele><time>2022-11-09T17:10:29.0000000+00:00</time></trkpt><trkpt lat="39.57240153" lon="-0.32684494"><ele>7.0</ele><time>2022-11-09T17:10:30.0000000+00:00</time></trkpt><trkpt lat="39.5724618" lon="-0.32680823"><ele>7.0</ele><time>2022-11-09T17:10:31.0000000+00:00</time></trkpt><trkpt lat="39.57250631" lon="-0.32678375"><ele>7.0</ele><time>2022-11-09T17:10:32.0000000+00:00</time></trkpt><trkpt lat="39.57257235" lon="-0.32674486"><ele>7.0</ele><time>2022-11-09T17:10:33.0000000+00:00</time></trkpt><trkpt lat="39.57262558" lon="-0.32671519"><ele>7.0</ele><time>2022-11-09T17:10:34.0000000+00:00</time></trkpt><trkpt lat="39.57267914" lon="-0.32668493"><ele>7.0</ele><time>2022-11-09T17:10:35.0000000+00:00</time></trkpt><trkpt lat="39.57273337" lon="-0.32666431"><ele>7.0</ele><time>2022-11-09T17:10:36.0000000+00:00</time></trkpt><trkpt lat="39.57278886" lon="-0.3266462"><ele>7.0</ele><time>2022-11-09T17:10:37.0000000+00:00</time></trkpt><trkpt lat="39.57284393" lon="-0.32662424"><ele>7.2</ele><time>2022-11-09T17:10:38.0000000+00:00</time></trkpt><trkpt lat="39.57289799" lon="-0.32660111"><ele>7.2</ele><time>2022-11-09T17:10:39.0000000+00:00</time></trkpt><trkpt lat="39.57295205" lon="-0.32657496"><ele>7.4</ele><time>2022-11-09T17:10:40.0000000+00:00</time></trkpt><trkpt lat="39.57300712" lon="-0.32655283"><ele>7.2</ele><time>2022-11-09T17:10:41.0000000+00:00</time></trkpt><trkpt lat="39.57306286" lon="-0.32653112"><ele>7.0</ele><time>2022-11-09T17:10:42.0000000+00:00</time></trkpt><trkpt lat="39.57312313" lon="-0.32651193"><ele>6.8</ele><time>2022-11-09T17:10:43.0000000+00:00</time></trkpt><trkpt lat="39.57318029" lon="-0.32648921"><ele>6.6</ele><time>2022-11-09T17:10:44.0000000+00:00</time></trkpt><trkpt lat="39.57323679" lon="-0.32646373"><ele>6.6</ele><time>2022-11-09T17:10:45.0000000+00:00</time></trkpt><trkpt lat="39.57329387" lon="-0.32643951"><ele>6.4</ele><time>2022-11-09T17:10:46.0000000+00:00</time></trkpt><trkpt lat="39.57335162" lon="-0.32641528"><ele>6.6</ele><time>2022-11-09T17:10:47.0000000+00:00</time></trkpt><trkpt lat="39.57340786" lon="-0.32638888"><ele>6.6</ele><time>2022-11-09T17:10:48.0000000+00:00</time></trkpt><trkpt lat="39.5734636" lon="-0.326367"><ele>6.6</ele><time>2022-11-09T17:10:49.0000000+00:00</time></trkpt><trkpt lat="39.57352211" lon="-0.32634731"><ele>6.6</ele><time>2022-11-09T17:10:50.0000000+00:00</time></trkpt><trkpt lat="39.5735807" lon="-0.32632945"><ele>6.6</ele><time>2022-11-09T17:10:51.0000000+00:00</time></trkpt><trkpt lat="39.57363987" lon="-0.32630816"><ele>6.6</ele><time>2022-11-09T17:10:52.0000000+00:00</time></trkpt><trkpt lat="39.57369654" lon="-0.32628302"><ele>6.6</ele><time>2022-11-09T17:10:53.0000000+00:00</time></trkpt><trkpt lat="39.57375219" lon="-0.3262567"><ele>6.6</ele><time>2022-11-09T17:10:54.0000000+00:00</time></trkpt><trkpt lat="39.57381112" lon="-0.32623465"><ele>6.4</ele><time>2022-11-09T17:10:55.0000000+00:00</time></trkpt><trkpt lat="39.57387172" lon="-0.32622577"><ele>6.4</ele><time>2022-11-09T17:10:56.0000000+00:00</time></trkpt><trkpt lat="39.57393014" lon="-0.32623306"><ele>6.4</ele><time>2022-11-09T17:10:57.0000000+00:00</time></trkpt><trkpt lat="39.57398521" lon="-0.32625058"><ele>6.4</ele><time>2022-11-09T17:10:58.0000000+00:00</time></trkpt><trkpt lat="39.57403936" lon="-0.32628746"><ele>6.6</ele><time>2022-11-09T17:10:59.0000000+00:00</time></trkpt><trkpt lat="39.57409157" lon="-0.32633004"><ele>6.6</ele><time>2022-11-09T17:11:00.0000000+00:00</time></trkpt><trkpt lat="39.57413265" lon="-0.32637589"><ele>6.8</ele><time>2022-11-09T17:11:01.0000000+00:00</time></trkpt><trkpt lat="39.57416399" lon="-0.32643506"><ele>6.8</ele><time>2022-11-09T17:11:02.0000000+00:00</time></trkpt><trkpt lat="39.57418093" lon="-0.32649935"><ele>6.8</ele><time>2022-11-09T17:11:03.0000000+00:00</time></trkpt><trkpt lat="39.57419157" lon="-0.3265514"><ele>6.6</ele><time>2022-11-09T17:11:04.0000000+00:00</time></trkpt><trkpt lat="39.57420532" lon="-0.32658946"><ele>6.2</ele><time>2022-11-09T17:11:05.0000000+00:00</time></trkpt><trkpt lat="39.57422309" lon="-0.32660815"><ele>5.8</ele><time>2022-11-09T17:11:06.0000000+00:00</time></trkpt><trkpt lat="39.57424547" lon="-0.32660128"><ele>5.4</ele><time>2022-11-09T17:11:07.0000000+00:00</time></trkpt><trkpt lat="39.5742774" lon="-0.32659164"><ele>5.0</ele><time>2022-11-09T17:11:08.0000000+00:00</time></trkpt><trkpt lat="39.57430716" lon="-0.32656943"><ele>4.8</ele><time>2022-11-09T17:11:09.0000000+00:00</time></trkpt><trkpt lat="39.57432342" lon="-0.32652944"><ele>4.8</ele><time>2022-11-09T17:11:10.0000000+00:00</time></trkpt><trkpt lat="39.57432811" lon="-0.32648636"><ele>4.8</ele><time>2022-11-09T17:11:11.0000000+00:00</time></trkpt><trkpt lat="39.57432509" lon="-0.32643875"><ele>4.8</ele><time>2022-11-09T17:11:12.0000000+00:00</time></trkpt><trkpt lat="39.57432551" lon="-0.32638435"><ele>4.8</ele><time>2022-11-09T17:11:13.0000000+00:00</time></trkpt><trkpt lat="39.57433666" lon="-0.32633515"><ele>5.0</ele><time>2022-11-09T17:11:14.0000000+00:00</time></trkpt><trkpt lat="39.57435552" lon="-0.32629022"><ele>5.2</ele><time>2022-11-09T17:11:15.0000000+00:00</time></trkpt><trkpt lat="39.57437991" lon="-0.32624974"><ele>5.4</ele><time>2022-11-09T17:11:16.0000000+00:00</time></trkpt><trkpt lat="39.57440791" lon="-0.32620766"><ele>5.4</ele><time>2022-11-09T17:11:17.0000000+00:00</time></trkpt><trkpt lat="39.57443699" lon="-0.3261629"><ele>5.4</ele><time>2022-11-09T17:11:18.0000000+00:00</time></trkpt><trkpt lat="39.57446549" lon="-0.32611772"><ele>5.4</ele><time>2022-11-09T17:11:19.0000000+00:00</time></trkpt><trkpt lat="39.57448645" lon="-0.32606995"><ele>5.6</ele><time>2022-11-09T17:11:20.0000000+00:00</time></trkpt><trkpt lat="39.57450363" lon="-0.3260241"><ele>5.6</ele><time>2022-11-09T17:11:21.0000000+00:00</time></trkpt><trkpt lat="39.57452115" lon="-0.32599183"><ele>5.6</ele><time>2022-11-09T17:11:22.0000000+00:00</time></trkpt><trkpt lat="39.57453154" lon="-0.32597297"><ele>5.4</ele><time>2022-11-09T17:11:23.0000000+00:00</time></trkpt><trkpt lat="39.57453548" lon="-0.32596174"><ele>5.4</ele><time>2022-11-09T17:11:24.0000000+00:00</time></trkpt><trkpt lat="39.57453531" lon="-0.3259521"><ele>5.4</ele><time>2022-11-09T17:11:25.0000000+00:00</time></trkpt><trkpt lat="39.5745359" lon="-0.32593441"><ele>5.2</ele><time>2022-11-09T17:11:26.0000000+00:00</time></trkpt><trkpt lat="39.57453288" lon="-0.32590985"><ele>5.2</ele><time>2022-11-09T17:11:27.0000000+00:00</time></trkpt><trkpt lat="39.57452492" lon="-0.32587457"><ele>5.2</ele><time>2022-11-09T17:11:28.0000000+00:00</time></trkpt><trkpt lat="39.57451427" lon="-0.32583852"><ele>5.2</ele><time>2022-11-09T17:11:29.0000000+00:00</time></trkpt><trkpt lat="39.57450698" lon="-0.32580349"><ele>5.2</ele><time>2022-11-09T17:11:30.0000000+00:00</time></trkpt><trkpt lat="39.57449206" lon="-0.32576652"><ele>5.2</ele><time>2022-11-09T17:11:31.0000000+00:00</time></trkpt><trkpt lat="39.57448309" lon="-0.32572713"><ele>5.2</ele><time>2022-11-09T17:11:32.0000000+00:00</time></trkpt><trkpt lat="39.57448058" lon="-0.32567726"><ele>5.4</ele><time>2022-11-09T17:11:33.0000000+00:00</time></trkpt><trkpt lat="39.57449483" lon="-0.32563266"><ele>5.4</ele><time>2022-11-09T17:11:34.0000000+00:00</time></trkpt><trkpt lat="39.57452224" lon="-0.32559964"><ele>5.4</ele><time>2022-11-09T17:11:35.0000000+00:00</time></trkpt><trkpt lat="39.57456264" lon="-0.32557894"><ele>5.6</ele><time>2022-11-09T17:11:36.0000000+00:00</time></trkpt><trkpt lat="39.57461025" lon="-0.3255615"><ele>5.6</ele><time>2022-11-09T17:11:37.0000000+00:00</time></trkpt><trkpt lat="39.57466104" lon="-0.32554382"><ele>5.6</ele><time>2022-11-09T17:11:38.0000000+00:00</time></trkpt><trkpt lat="39.57471167" lon="-0.32552588"><ele>5.6</ele><time>2022-11-09T17:11:39.0000000+00:00</time></trkpt><trkpt lat="39.5747612" lon="-0.32550786"><ele>5.6</ele><time>2022-11-09T17:11:40.0000000+00:00</time></trkpt><trkpt lat="39.57481233" lon="-0.32548833"><ele>5.6</ele><time>2022-11-09T17:11:41.0000000+00:00</time></trkpt><trkpt lat="39.57486724" lon="-0.32546922"><ele>5.6</ele><time>2022-11-09T17:11:42.0000000+00:00</time></trkpt><trkpt lat="39.57492306" lon="-0.32545027"><ele>5.4</ele><time>2022-11-09T17:11:43.0000000+00:00</time></trkpt><trkpt lat="39.57498048" lon="-0.32543209"><ele>5.4</ele><time>2022-11-09T17:11:44.0000000+00:00</time></trkpt><trkpt lat="39.57503554" lon="-0.32541339"><ele>5.4</ele><time>2022-11-09T17:11:45.0000000+00:00</time></trkpt><trkpt lat="39.57508676" lon="-0.3253916"><ele>5.4</ele><time>2022-11-09T17:11:46.0000000+00:00</time></trkpt><trkpt lat="39.57514091" lon="-0.32537165"><ele>5.4</ele><time>2022-11-09T17:11:47.0000000+00:00</time></trkpt><trkpt lat="39.57519438" lon="-0.32535606"><ele>5.4</ele><time>2022-11-09T17:11:48.0000000+00:00</time></trkpt><trkpt lat="39.57524627" lon="-0.3253362"><ele>5.4</ele><time>2022-11-09T17:11:49.0000000+00:00</time></trkpt><trkpt lat="39.57530284" lon="-0.32531189"><ele>5.4</ele><time>2022-11-09T17:11:50.0000000+00:00</time></trkpt><trkpt lat="39.57536127" lon="-0.32528616"><ele>5.4</ele><time>2022-11-09T17:11:51.0000000+00:00</time></trkpt><trkpt lat="39.57541944" lon="-0.32525556"><ele>5.6</ele><time>2022-11-09T17:11:52.0000000+00:00</time></trkpt><trkpt lat="39.57547987" lon="-0.32522505"><ele>5.4</ele><time>2022-11-09T17:11:53.0000000+00:00</time></trkpt><trkpt lat="39.57553955" lon="-0.32519806"><ele>5.4</ele><time>2022-11-09T17:11:54.0000000+00:00</time></trkpt><trkpt lat="39.5755978" lon="-0.32517225"><ele>5.4</ele><time>2022-11-09T17:11:55.0000000+00:00</time></trkpt><trkpt lat="39.57565363" lon="-0.32514945"><ele>5.4</ele><time>2022-11-09T17:11:56.0000000+00:00</time></trkpt><trkpt lat="39.5757102" lon="-0.32512925"><ele>5.4</ele><time>2022-11-09T17:11:57.0000000+00:00</time></trkpt><trkpt lat="39.57576586" lon="-0.32510687"><ele>5.4</ele><time>2022-11-09T17:11:58.0000000+00:00</time></trkpt><trkpt lat="39.57582344" lon="-0.32508348"><ele>5.4</ele><time>2022-11-09T17:11:59.0000000+00:00</time></trkpt><trkpt lat="39.57588111" lon="-0.3250585"><ele>5.4</ele><time>2022-11-09T17:12:00.0000000+00:00</time></trkpt><trkpt lat="39.57594272" lon="-0.32503353"><ele>5.4</ele><time>2022-11-09T17:12:01.0000000+00:00</time></trkpt><trkpt lat="39.5760024" lon="-0.32500327"><ele>5.4</ele><time>2022-11-09T17:12:02.0000000+00:00</time></trkpt><trkpt lat="39.57605948" lon="-0.32497594"><ele>5.4</ele><time>2022-11-09T17:12:03.0000000+00:00</time></trkpt><trkpt lat="39.57611279" lon="-0.32495038"><ele>5.4</ele><time>2022-11-09T17:12:04.0000000+00:00</time></trkpt><trkpt lat="39.57616249" lon="-0.32492724"><ele>5.4</ele><time>2022-11-09T17:12:05.0000000+00:00</time></trkpt><trkpt lat="39.57620708" lon="-0.32490679"><ele>5.2</ele><time>2022-11-09T17:12:06.0000000+00:00</time></trkpt><trkpt lat="39.57625913" lon="-0.3248912"><ele>5.2</ele><time>2022-11-09T17:12:07.0000000+00:00</time></trkpt><trkpt lat="39.57631077" lon="-0.32487938"><ele>5.0</ele><time>2022-11-09T17:12:08.0000000+00:00</time></trkpt><trkpt lat="39.57636466" lon="-0.32486145"><ele>5.0</ele><time>2022-11-09T17:12:09.0000000+00:00</time></trkpt><trkpt lat="39.57642233" lon="-0.32483622"><ele>5.0</ele><time>2022-11-09T17:12:10.0000000+00:00</time></trkpt><trkpt lat="39.57648251" lon="-0.3248109"><ele>5.0</ele><time>2022-11-09T17:12:11.0000000+00:00</time></trkpt><trkpt lat="39.57654278" lon="-0.32478794"><ele>4.8</ele><time>2022-11-09T17:12:12.0000000+00:00</time></trkpt><trkpt lat="39.57660413" lon="-0.32476371"><ele>4.8</ele><time>2022-11-09T17:12:13.0000000+00:00</time></trkpt><trkpt lat="39.57666339" lon="-0.32473521"><ele>4.8</ele><time>2022-11-09T17:12:14.0000000+00:00</time></trkpt><trkpt lat="39.57672106" lon="-0.32470806"><ele>4.8</ele><time>2022-11-09T17:12:15.0000000+00:00</time></trkpt><trkpt lat="39.57677957" lon="-0.32468526"><ele>4.8</ele><time>2022-11-09T17:12:16.0000000+00:00</time></trkpt><trkpt lat="39.57683958" lon="-0.32466397"><ele>4.8</ele><time>2022-11-09T17:12:17.0000000+00:00</time></trkpt><trkpt lat="39.57690144" lon="-0.32463949"><ele>4.8</ele><time>2022-11-09T17:12:18.0000000+00:00</time></trkpt><trkpt lat="39.57696003" lon="-0.32461192"><ele>4.8</ele><time>2022-11-09T17:12:19.0000000+00:00</time></trkpt><trkpt lat="39.57702449" lon="-0.32458434"><ele>4.6</ele><time>2022-11-09T17:12:20.0000000+00:00</time></trkpt><trkpt lat="39.57709464" lon="-0.3245602"><ele>4.6</ele><time>2022-11-09T17:12:21.0000000+00:00</time></trkpt><trkpt lat="39.57715591" lon="-0.32453422"><ele>4.6</ele><time>2022-11-09T17:12:22.0000000+00:00</time></trkpt><trkpt lat="39.57721551" lon="-0.32450538"><ele>4.6</ele><time>2022-11-09T17:12:23.0000000+00:00</time></trkpt><trkpt lat="39.57727267" lon="-0.32447588"><ele>4.6</ele><time>2022-11-09T17:12:24.0000000+00:00</time></trkpt><trkpt lat="39.57733219" lon="-0.32444361"><ele>4.6</ele><time>2022-11-09T17:12:25.0000000+00:00</time></trkpt><trkpt lat="39.57739631" lon="-0.32441092"><ele>4.6</ele><time>2022-11-09T17:12:26.0000000+00:00</time></trkpt><trkpt lat="39.57745724" lon="-0.3243825"><ele>4.6</ele><time>2022-11-09T17:12:27.0000000+00:00</time></trkpt><trkpt lat="39.57752254" lon="-0.32435359"><ele>4.6</ele><time>2022-11-09T17:12:28.0000000+00:00</time></trkpt><trkpt lat="39.57758783" lon="-0.32432752"><ele>4.6</ele><time>2022-11-09T17:12:29.0000000+00:00</time></trkpt><trkpt lat="39.57765246" lon="-0.32430422"><ele>4.6</ele><time>2022-11-09T17:12:30.0000000+00:00</time></trkpt><trkpt lat="39.57771448" lon="-0.32427966"><ele>4.6</ele><time>2022-11-09T17:12:31.0000000+00:00</time></trkpt><trkpt lat="39.57777609" lon="-0.32425334"><ele>4.6</ele><time>2022-11-09T17:12:32.0000000+00:00</time></trkpt><trkpt lat="39.5778372" lon="-0.32422911"><ele>4.6</ele><time>2022-11-09T17:12:33.0000000+00:00</time></trkpt><trkpt lat="39.57789947" lon="-0.3242038"><ele>4.6</ele><time>2022-11-09T17:12:34.0000000+00:00</time></trkpt><trkpt lat="39.57795655" lon="-0.3241784"><ele>4.4</ele><time>2022-11-09T17:12:35.0000000+00:00</time></trkpt><trkpt lat="39.5780128" lon="-0.32415309"><ele>4.4</ele><time>2022-11-09T17:12:36.0000000+00:00</time></trkpt><trkpt lat="39.57806661" lon="-0.3241235"><ele>4.4</ele><time>2022-11-09T17:12:37.0000000+00:00</time></trkpt><trkpt lat="39.578119" lon="-0.32409199"><ele>4.4</ele><time>2022-11-09T17:12:38.0000000+00:00</time></trkpt><trkpt lat="39.57816686" lon="-0.32406223"><ele>4.4</ele><time>2022-11-09T17:12:39.0000000+00:00</time></trkpt><trkpt lat="39.57820592" lon="-0.32402149"><ele>4.4</ele><time>2022-11-09T17:12:40.0000000+00:00</time></trkpt><trkpt lat="39.5782324" lon="-0.32397221"><ele>4.4</ele><time>2022-11-09T17:12:41.0000000+00:00</time></trkpt><trkpt lat="39.57824104" lon="-0.32390809"><ele>4.4</ele><time>2022-11-09T17:12:42.0000000+00:00</time></trkpt><trkpt lat="39.5782464" lon="-0.32386358"><ele>4.2</ele><time>2022-11-09T17:12:43.0000000+00:00</time></trkpt><trkpt lat="39.57825227" lon="-0.32383181"><ele>4.0</ele><time>2022-11-09T17:12:44.0000000+00:00</time></trkpt><trkpt lat="39.57826207" lon="-0.32380281"><ele>3.8</ele><time>2022-11-09T17:12:45.0000000+00:00</time></trkpt><trkpt lat="39.57827884" lon="-0.32377431"><ele>3.8</ele><time>2022-11-09T17:12:46.0000000+00:00</time></trkpt><trkpt lat="39.57829971" lon="-0.32374908"><ele>3.6</ele><time>2022-11-09T17:12:47.0000000+00:00</time></trkpt><trkpt lat="39.5783246" lon="-0.3237231"><ele>3.6</ele><time>2022-11-09T17:12:48.0000000+00:00</time></trkpt><trkpt lat="39.57835327" lon="-0.32369292"><ele>3.6</ele><time>2022-11-09T17:12:49.0000000+00:00</time></trkpt><trkpt lat="39.57838638" lon="-0.32366786"><ele>3.6</ele><time>2022-11-09T17:12:50.0000000+00:00</time></trkpt><trkpt lat="39.57842309" lon="-0.32365361"><ele>3.6</ele><time>2022-11-09T17:12:51.0000000+00:00</time></trkpt><trkpt lat="39.5784598" lon="-0.32364414"><ele>3.6</ele><time>2022-11-09T17:12:52.0000000+00:00</time></trkpt><trkpt lat="39.57849761" lon="-0.3236392"><ele>3.8</ele><time>2022-11-09T17:12:53.0000000+00:00</time></trkpt><trkpt lat="39.57854002" lon="-0.32363668"><ele>3.8</ele><time>2022-11-09T17:12:54.0000000+00:00</time></trkpt><trkpt lat="39.57858503" lon="-0.32363945"><ele>3.8</ele><time>2022-11-09T17:12:55.0000000+00:00</time></trkpt><trkpt lat="39.57863239" lon="-0.32364976"><ele>3.8</ele><time>2022-11-09T17:12:56.0000000+00:00</time></trkpt><trkpt lat="39.57867673" lon="-0.3236692"><ele>3.8</ele><time>2022-11-09T17:12:57.0000000+00:00</time></trkpt><trkpt lat="39.57871939" lon="-0.32369427"><ele>3.8</ele><time>2022-11-09T17:12:58.0000000+00:00</time></trkpt><trkpt lat="39.57875795" lon="-0.32372058"><ele>3.8</ele><time>2022-11-09T17:12:59.0000000+00:00</time></trkpt><trkpt lat="39.57879927" lon="-0.3237428"><ele>4.0</ele><time>2022-11-09T17:13:00.0000000+00:00</time></trkpt><trkpt lat="39.57884294" lon="-0.32375646"><ele>4.2</ele><time>2022-11-09T17:13:01.0000000+00:00</time></trkpt><trkpt lat="39.57888963" lon="-0.32375998"><ele>4.2</ele><time>2022-11-09T17:13:02.0000000+00:00</time></trkpt><trkpt lat="39.5789369" lon="-0.32375327"><ele>4.4</ele><time>2022-11-09T17:13:03.0000000+00:00</time></trkpt><trkpt lat="39.57898158" lon="-0.32373567"><ele>4.4</ele><time>2022-11-09T17:13:04.0000000+00:00</time></trkpt><trkpt lat="39.57902365" lon="-0.32371195"><ele>4.4</ele><time>2022-11-09T17:13:05.0000000+00:00</time></trkpt><trkpt lat="39.5790659" lon="-0.32369443"><ele>4.6</ele><time>2022-11-09T17:13:06.0000000+00:00</time></trkpt><trkpt lat="39.57910898" lon="-0.32367717"><ele>4.6</ele><time>2022-11-09T17:13:07.0000000+00:00</time></trkpt><trkpt lat="39.57915148" lon="-0.32365797"><ele>4.6</ele><time>2022-11-09T17:13:08.0000000+00:00</time></trkpt><trkpt lat="39.57919414" lon="-0.32363777"><ele>4.8</ele><time>2022-11-09T17:13:09.0000000+00:00</time></trkpt><trkpt lat="39.57923957" lon="-0.32361539"><ele>4.8</ele><time>2022-11-09T17:13:10.0000000+00:00</time></trkpt><trkpt lat="39.57928726" lon="-0.32359066"><ele>4.8</ele><time>2022-11-09T17:13:11.0000000+00:00</time></trkpt><trkpt lat="39.5793358" lon="-0.32356728"><ele>4.8</ele><time>2022-11-09T17:13:12.0000000+00:00</time></trkpt><trkpt lat="39.57938206" lon="-0.32354943"><ele>4.8</ele><time>2022-11-09T17:13:13.0000000+00:00</time></trkpt><trkpt lat="39.57943076" lon="-0.32352587"><ele>4.8</ele><time>2022-11-09T17:13:14.0000000+00:00</time></trkpt><trkpt lat="39.57948365" lon="-0.32349662"><ele>4.8</ele><time>2022-11-09T17:13:15.0000000+00:00</time></trkpt><trkpt lat="39.57953797" lon="-0.3234636"><ele>4.8</ele><time>2022-11-09T17:13:16.0000000+00:00</time></trkpt><trkpt lat="39.57958658" lon="-0.32343283"><ele>4.8</ele><time>2022-11-09T17:13:17.0000000+00:00</time></trkpt><trkpt lat="39.57963109" lon="-0.3234019"><ele>4.8</ele><time>2022-11-09T17:13:18.0000000+00:00</time></trkpt><trkpt lat="39.57967627" lon="-0.32337248"><ele>4.8</ele><time>2022-11-09T17:13:19.0000000+00:00</time></trkpt><trkpt lat="39.57972589" lon="-0.32334616"><ele>4.8</ele><time>2022-11-09T17:13:20.0000000+00:00</time></trkpt><trkpt lat="39.57978121" lon="-0.3233237"><ele>5.0</ele><time>2022-11-09T17:13:21.0000000+00:00</time></trkpt><trkpt lat="39.57983402" lon="-0.32329914"><ele>5.2</ele><time>2022-11-09T17:13:22.0000000+00:00</time></trkpt><trkpt lat="39.57988548" lon="-0.32326955"><ele>5.2</ele><time>2022-11-09T17:13:23.0000000+00:00</time></trkpt><trkpt lat="39.57993141" lon="-0.32324692"><ele>5.2</ele><time>2022-11-09T17:13:24.0000000+00:00</time></trkpt><trkpt lat="39.57998229" lon="-0.32322655"><ele>5.4</ele><time>2022-11-09T17:13:25.0000000+00:00</time></trkpt><trkpt lat="39.58003334" lon="-0.32319948"><ele>5.4</ele><time>2022-11-09T17:13:26.0000000+00:00</time></trkpt><trkpt lat="39.58008656" lon="-0.32317316"><ele>5.4</ele><time>2022-11-09T17:13:27.0000000+00:00</time></trkpt><trkpt lat="39.58013979" lon="-0.32314492"><ele>5.4</ele><time>2022-11-09T17:13:28.0000000+00:00</time></trkpt><trkpt lat="39.58019536" lon="-0.32311885"><ele>5.4</ele><time>2022-11-09T17:13:29.0000000+00:00</time></trkpt><trkpt lat="39.58025445" lon="-0.32309119"><ele>5.4</ele><time>2022-11-09T17:13:30.0000000+00:00</time></trkpt><trkpt lat="39.58031204" lon="-0.32306076"><ele>5.4</ele><time>2022-11-09T17:13:31.0000000+00:00</time></trkpt><trkpt lat="39.58037205" lon="-0.32303612"><ele>5.4</ele><time>2022-11-09T17:13:32.0000000+00:00</time></trkpt><trkpt lat="39.58042787" lon="-0.32301055"><ele>5.4</ele><time>2022-11-09T17:13:33.0000000+00:00</time></trkpt><trkpt lat="39.58047825" lon="-0.32298591"><ele>5.6</ele><time>2022-11-09T17:13:34.0000000+00:00</time></trkpt><trkpt lat="39.58052653" lon="-0.32296328"><ele>5.4</ele><time>2022-11-09T17:13:35.0000000+00:00</time></trkpt><trkpt lat="39.58057263" lon="-0.32294073"><ele>5.4</ele><time>2022-11-09T17:13:36.0000000+00:00</time></trkpt><trkpt lat="39.5806142" lon="-0.32291735"><ele>5.4</ele><time>2022-11-09T17:13:37.0000000+00:00</time></trkpt><trkpt lat="39.58065184" lon="-0.32289681"><ele>5.4</ele><time>2022-11-09T17:13:38.0000000+00:00</time></trkpt><trkpt lat="39.58068528" lon="-0.32287879"><ele>5.2</ele><time>2022-11-09T17:13:39.0000000+00:00</time></trkpt><trkpt lat="39.58071378" lon="-0.32286513"><ele>5.2</ele><time>2022-11-09T17:13:40.0000000+00:00</time></trkpt><trkpt lat="39.58073725" lon="-0.32285146"><ele>5.2</ele><time>2022-11-09T17:13:41.0000000+00:00</time></trkpt><trkpt lat="39.58075108" lon="-0.32283755"><ele>5.2</ele><time>2022-11-09T17:13:42.0000000+00:00</time></trkpt><trkpt lat="39.58075921" lon="-0.32282565"><ele>5.2</ele><time>2022-11-09T17:13:43.0000000+00:00</time></trkpt><trkpt lat="39.58076642" lon="-0.32281827"><ele>5.0</ele><time>2022-11-09T17:13:44.0000000+00:00</time></trkpt><trkpt lat="39.58077882" lon="-0.32281886"><ele>5.0</ele><time>2022-11-09T17:13:45.0000000+00:00</time></trkpt><trkpt lat="39.58078628" lon="-0.32282883"><ele>5.0</ele><time>2022-11-09T17:13:46.0000000+00:00</time></trkpt><trkpt lat="39.58079089" lon="-0.32284929"><ele>5.0</ele><time>2022-11-09T17:13:47.0000000+00:00</time></trkpt><trkpt lat="39.58079735" lon="-0.32287225"><ele>5.2</ele><time>2022-11-09T17:13:48.0000000+00:00</time></trkpt><trkpt lat="39.58080648" lon="-0.32290117"><ele>5.2</ele><time>2022-11-09T17:13:49.0000000+00:00</time></trkpt><trkpt lat="39.58081797" lon="-0.32293629"><ele>5.2</ele><time>2022-11-09T17:13:50.0000000+00:00</time></trkpt><trkpt lat="39.58083004" lon="-0.32297116"><ele>5.2</ele><time>2022-11-09T17:13:51.0000000+00:00</time></trkpt><trkpt lat="39.58083632" lon="-0.32300091"><ele>5.2</ele><time>2022-11-09T17:13:52.0000000+00:00</time></trkpt><trkpt lat="39.5808432" lon="-0.32302011"><ele>5.2</ele><time>2022-11-09T17:13:53.0000000+00:00</time></trkpt><trkpt lat="39.58084739" lon="-0.32303972"><ele>5.2</ele><time>2022-11-09T17:13:54.0000000+00:00</time></trkpt><trkpt lat="39.5808525" lon="-0.32307426"><ele>5.4</ele><time>2022-11-09T17:13:55.0000000+00:00</time></trkpt><trkpt lat="39.5808582" lon="-0.32311642"><ele>5.4</ele><time>2022-11-09T17:13:56.0000000+00:00</time></trkpt><trkpt lat="39.58086449" lon="-0.32316168"><ele>5.4</ele><time>2022-11-09T17:13:57.0000000+00:00</time></trkpt><trkpt lat="39.58087245" lon="-0.32319915"><ele>5.4</ele><time>2022-11-09T17:13:58.0000000+00:00</time></trkpt><trkpt lat="39.58088695" lon="-0.32323963"><ele>5.4</ele><time>2022-11-09T17:13:59.0000000+00:00</time></trkpt><trkpt lat="39.58090405" lon="-0.32325824"><ele>5.4</ele><time>2022-11-09T17:14:00.0000000+00:00</time></trkpt><trkpt lat="39.58092358" lon="-0.32327157"><ele>5.4</ele><time>2022-11-09T17:14:01.0000000+00:00</time></trkpt><trkpt lat="39.58094554" lon="-0.3232771"><ele>5.4</ele><time>2022-11-09T17:14:02.0000000+00:00</time></trkpt><trkpt lat="39.58096968" lon="-0.32327618"><ele>5.4</ele><time>2022-11-09T17:14:03.0000000+00:00</time></trkpt><trkpt lat="39.58099407" lon="-0.32327903"><ele>5.4</ele><time>2022-11-09T17:14:04.0000000+00:00</time></trkpt><trkpt lat="39.58102852" lon="-0.32329009"><ele>5.4</ele><time>2022-11-09T17:14:05.0000000+00:00</time></trkpt><trkpt lat="39.58106632" lon="-0.32330283"><ele>5.4</ele><time>2022-11-09T17:14:06.0000000+00:00</time></trkpt><trkpt lat="39.58110723" lon="-0.32331339"><ele>5.4</ele><time>2022-11-09T17:14:07.0000000+00:00</time></trkpt><trkpt lat="39.58115333" lon="-0.32332085"><ele>5.4</ele><time>2022-11-09T17:14:08.0000000+00:00</time></trkpt><trkpt lat="39.58119499" lon="-0.32332094"><ele>5.4</ele><time>2022-11-09T17:14:09.0000000+00:00</time></trkpt><trkpt lat="39.58123379" lon="-0.32332345"><ele>5.4</ele><time>2022-11-09T17:14:10.0000000+00:00</time></trkpt><trkpt lat="39.58127135" lon="-0.3233294"><ele>5.4</ele><time>2022-11-09T17:14:11.0000000+00:00</time></trkpt><trkpt lat="39.58130873" lon="-0.32333535"><ele>5.4</ele><time>2022-11-09T17:14:12.0000000+00:00</time></trkpt><trkpt lat="39.58134561" lon="-0.32333837"><ele>5.4</ele><time>2022-11-09T17:14:13.0000000+00:00</time></trkpt><trkpt lat="39.58137947" lon="-0.32331884"><ele>5.4</ele><time>2022-11-09T17:14:14.0000000+00:00</time></trkpt><trkpt lat="39.58141065" lon="-0.32329059"><ele>5.4</ele><time>2022-11-09T17:14:15.0000000+00:00</time></trkpt><trkpt lat="39.58143597" lon="-0.32323837"><ele>5.4</ele><time>2022-11-09T17:14:16.0000000+00:00</time></trkpt><trkpt lat="39.58145239" lon="-0.32319437"><ele>5.4</ele><time>2022-11-09T17:14:17.0000000+00:00</time></trkpt><trkpt lat="39.58146731" lon="-0.32315145"><ele>5.4</ele><time>2022-11-09T17:14:18.0000000+00:00</time></trkpt><trkpt lat="39.58148751" lon="-0.32310368"><ele>5.4</ele><time>2022-11-09T17:14:19.0000000+00:00</time></trkpt><trkpt lat="39.58151073" lon="-0.32305615"><ele>5.4</ele><time>2022-11-09T17:14:20.0000000+00:00</time></trkpt><trkpt lat="39.58153973" lon="-0.32301332"><ele>5.4</ele><time>2022-11-09T17:14:21.0000000+00:00</time></trkpt><trkpt lat="39.58157687" lon="-0.32297962"><ele>5.4</ele><time>2022-11-09T17:14:22.0000000+00:00</time></trkpt><trkpt lat="39.58161928" lon="-0.32294467"><ele>5.4</ele><time>2022-11-09T17:14:23.0000000+00:00</time></trkpt><trkpt lat="39.58165867" lon="-0.3229031"><ele>5.4</ele><time>2022-11-09T17:14:24.0000000+00:00</time></trkpt><trkpt lat="39.58169849" lon="-0.32286462"><ele>5.6</ele><time>2022-11-09T17:14:25.0000000+00:00</time></trkpt><trkpt lat="39.58174216" lon="-0.32283437"><ele>5.6</ele><time>2022-11-09T17:14:26.0000000+00:00</time></trkpt><trkpt lat="39.58178331" lon="-0.32280863"><ele>5.6</ele><time>2022-11-09T17:14:27.0000000+00:00</time></trkpt><trkpt lat="39.58182707" lon="-0.32278131"><ele>5.6</ele><time>2022-11-09T17:14:28.0000000+00:00</time></trkpt><trkpt lat="39.5818756" lon="-0.32275625"><ele>5.6</ele><time>2022-11-09T17:14:29.0000000+00:00</time></trkpt><trkpt lat="39.58192539" lon="-0.32273244"><ele>5.6</ele><time>2022-11-09T17:14:30.0000000+00:00</time></trkpt><trkpt lat="39.58197685" lon="-0.32270956"><ele>5.6</ele><time>2022-11-09T17:14:31.0000000+00:00</time></trkpt><trkpt lat="39.58202966" lon="-0.32268626"><ele>5.6</ele><time>2022-11-09T17:14:32.0000000+00:00</time></trkpt><trkpt lat="39.58207299" lon="-0.32266824"><ele>5.6</ele><time>2022-11-09T17:14:33.0000000+00:00</time></trkpt><trkpt lat="39.58212731" lon="-0.32264778"><ele>5.6</ele><time>2022-11-09T17:14:34.0000000+00:00</time></trkpt><trkpt lat="39.58218975" lon="-0.32261862"><ele>5.6</ele><time>2022-11-09T17:14:35.0000000+00:00</time></trkpt><trkpt lat="39.5822304" lon="-0.32259808"><ele>5.6</ele><time>2022-11-09T17:14:36.0000000+00:00</time></trkpt><trkpt lat="39.58229159" lon="-0.32256832"><ele>5.6</ele><time>2022-11-09T17:14:37.0000000+00:00</time></trkpt><trkpt lat="39.58234415" lon="-0.32254712"><ele>5.6</ele><time>2022-11-09T17:14:38.0000000+00:00</time></trkpt><trkpt lat="39.58239821" lon="-0.32252667"><ele>5.8</ele><time>2022-11-09T17:14:39.0000000+00:00</time></trkpt><trkpt lat="39.58245043" lon="-0.3225016"><ele>5.8</ele><time>2022-11-09T17:14:40.0000000+00:00</time></trkpt><trkpt lat="39.58250097" lon="-0.32247461"><ele>5.8</ele><time>2022-11-09T17:14:41.0000000+00:00</time></trkpt><trkpt lat="39.58255294" lon="-0.32244754"><ele>6.0</ele><time>2022-11-09T17:14:42.0000000+00:00</time></trkpt><trkpt lat="39.58260348" lon="-0.32244084"><ele>6.0</ele><time>2022-11-09T17:14:43.0000000+00:00</time></trkpt><trkpt lat="39.58265143" lon="-0.32242323"><ele>6.0</ele><time>2022-11-09T17:14:44.0000000+00:00</time></trkpt><trkpt lat="39.5826966" lon="-0.32242055"><ele>5.8</ele><time>2022-11-09T17:14:45.0000000+00:00</time></trkpt><trkpt lat="39.58273131" lon="-0.32241695"><ele>5.6</ele><time>2022-11-09T17:14:46.0000000+00:00</time></trkpt><trkpt lat="39.58275712" lon="-0.32240965"><ele>5.2</ele><time>2022-11-09T17:14:47.0000000+00:00</time></trkpt><trkpt lat="39.58277372" lon="-0.32238652"><ele>5.2</ele><time>2022-11-09T17:14:48.0000000+00:00</time></trkpt><trkpt lat="39.58277925" lon="-0.322355"><ele>5.0</ele><time>2022-11-09T17:14:49.0000000+00:00</time></trkpt><trkpt lat="39.58279342" lon="-0.32232952"><ele>4.8</ele><time>2022-11-09T17:14:50.0000000+00:00</time></trkpt><trkpt lat="39.58281026" lon="-0.32231184"><ele>4.8</ele><time>2022-11-09T17:14:51.0000000+00:00</time></trkpt><trkpt lat="39.58282937" lon="-0.32229474"><ele>4.6</ele><time>2022-11-09T17:14:52.0000000+00:00</time></trkpt><trkpt lat="39.58285427" lon="-0.32227563"><ele>4.6</ele><time>2022-11-09T17:14:53.0000000+00:00</time></trkpt><trkpt lat="39.58288075" lon="-0.32225853"><ele>4.6</ele><time>2022-11-09T17:14:54.0000000+00:00</time></trkpt><trkpt lat="39.58291244" lon="-0.32224319"><ele>4.6</ele><time>2022-11-09T17:14:55.0000000+00:00</time></trkpt><trkpt lat="39.58295108" lon="-0.32222735"><ele>4.6</ele><time>2022-11-09T17:14:56.0000000+00:00</time></trkpt><trkpt lat="39.58299341" lon="-0.32221067"><ele>4.6</ele><time>2022-11-09T17:14:57.0000000+00:00</time></trkpt><trkpt lat="39.5830297" lon="-0.32219634"><ele>4.8</ele><time>2022-11-09T17:14:58.0000000+00:00</time></trkpt><trkpt lat="39.58306935" lon="-0.32217756"><ele>4.8</ele><time>2022-11-09T17:14:59.0000000+00:00</time></trkpt><trkpt lat="39.58310656" lon="-0.32215526"><ele>4.8</ele><time>2022-11-09T17:15:00.0000000+00:00</time></trkpt><trkpt lat="39.58314261" lon="-0.32213003"><ele>5.0</ele><time>2022-11-09T17:15:01.0000000+00:00</time></trkpt><trkpt lat="39.58317982" lon="-0.32210237"><ele>5.2</ele><time>2022-11-09T17:15:02.0000000+00:00</time></trkpt><trkpt lat="39.58321896" lon="-0.3220779"><ele>5.2</ele><time>2022-11-09T17:15:03.0000000+00:00</time></trkpt><trkpt lat="39.58326004" lon="-0.32204898"><ele>5.2</ele><time>2022-11-09T17:15:04.0000000+00:00</time></trkpt><trkpt lat="39.58330697" lon="-0.32201881"><ele>5.2</ele><time>2022-11-09T17:15:05.0000000+00:00</time></trkpt><trkpt lat="39.58335936" lon="-0.32199299"><ele>5.2</ele><time>2022-11-09T17:15:06.0000000+00:00</time></trkpt><trkpt lat="39.58340705" lon="-0.32196558"><ele>5.6</ele><time>2022-11-09T17:15:07.0000000+00:00</time></trkpt><trkpt lat="39.58345709" lon="-0.32193951"><ele>5.6</ele><time>2022-11-09T17:15:08.0000000+00:00</time></trkpt><trkpt lat="39.58353169" lon="-0.32192024"><ele>5.6</ele><time>2022-11-09T17:15:09.0000000+00:00</time></trkpt><trkpt lat="39.5835938" lon="-0.32190431"><ele>5.6</ele><time>2022-11-09T17:15:10.0000000+00:00</time></trkpt><trkpt lat="39.58365147" lon="-0.32188612"><ele>5.8</ele><time>2022-11-09T17:15:11.0000000+00:00</time></trkpt><trkpt lat="39.58370201" lon="-0.32186525"><ele>5.8</ele><time>2022-11-09T17:15:12.0000000+00:00</time></trkpt><trkpt lat="39.58374803" lon="-0.32184111"><ele>5.8</ele><time>2022-11-09T17:15:13.0000000+00:00</time></trkpt><trkpt lat="39.58380285" lon="-0.32182259"><ele>5.8</ele><time>2022-11-09T17:15:14.0000000+00:00</time></trkpt><trkpt lat="39.58384492" lon="-0.32180348"><ele>5.8</ele><time>2022-11-09T17:15:15.0000000+00:00</time></trkpt><trkpt lat="39.58388943" lon="-0.32177607"><ele>5.8</ele><time>2022-11-09T17:15:16.0000000+00:00</time></trkpt><trkpt lat="39.58395389" lon="-0.32176182"><ele>5.8</ele><time>2022-11-09T17:15:17.0000000+00:00</time></trkpt><trkpt lat="39.58401089" lon="-0.32175033"><ele>5.8</ele><time>2022-11-09T17:15:18.0000000+00:00</time></trkpt><trkpt lat="39.58405531" lon="-0.32173902"><ele>5.6</ele><time>2022-11-09T17:15:19.0000000+00:00</time></trkpt><trkpt lat="39.58408775" lon="-0.32172133"><ele>5.6</ele><time>2022-11-09T17:15:20.0000000+00:00</time></trkpt><trkpt lat="39.58412748" lon="-0.32170583"><ele>5.6</ele><time>2022-11-09T17:15:21.0000000+00:00</time></trkpt><trkpt lat="39.58419655" lon="-0.32169694"><ele>5.6</ele><time>2022-11-09T17:15:22.0000000+00:00</time></trkpt><trkpt lat="39.58424759" lon="-0.32168068"><ele>5.6</ele><time>2022-11-09T17:15:23.0000000+00:00</time></trkpt><trkpt lat="39.58429252" lon="-0.32165587"><ele>5.6</ele><time>2022-11-09T17:15:24.0000000+00:00</time></trkpt><trkpt lat="39.58433694" lon="-0.32163768"><ele>5.6</ele><time>2022-11-09T17:15:25.0000000+00:00</time></trkpt><trkpt lat="39.58438522" lon="-0.3216122"><ele>5.6</ele><time>2022-11-09T17:15:26.0000000+00:00</time></trkpt><trkpt lat="39.58445672" lon="-0.32159376"><ele>5.6</ele><time>2022-11-09T17:15:27.0000000+00:00</time></trkpt><trkpt lat="39.58451824" lon="-0.32157222"><ele>5.8</ele><time>2022-11-09T17:15:28.0000000+00:00</time></trkpt><trkpt lat="39.58457884" lon="-0.32155244"><ele>6.0</ele><time>2022-11-09T17:15:29.0000000+00:00</time></trkpt><trkpt lat="39.58463601" lon="-0.32153618"><ele>6.0</ele><time>2022-11-09T17:15:30.0000000+00:00</time></trkpt><trkpt lat="39.58469996" lon="-0.32151296"><ele>6.0</ele><time>2022-11-09T17:15:31.0000000+00:00</time></trkpt><trkpt lat="39.58479166" lon="-0.321492"><ele>6.0</ele><time>2022-11-09T17:15:32.0000000+00:00</time></trkpt><trkpt lat="39.58485545" lon="-0.32146837"><ele>6.0</ele><time>2022-11-09T17:15:33.0000000+00:00</time></trkpt><trkpt lat="39.58490985" lon="-0.32143953"><ele>6.0</ele><time>2022-11-09T17:15:34.0000000+00:00</time></trkpt><trkpt lat="39.58495804" lon="-0.32141749"><ele>6.0</ele><time>2022-11-09T17:15:35.0000000+00:00</time></trkpt><trkpt lat="39.58500439" lon="-0.32140223"><ele>6.0</ele><time>2022-11-09T17:15:36.0000000+00:00</time></trkpt><trkpt lat="39.58506173" lon="-0.32138497"><ele>6.0</ele><time>2022-11-09T17:15:37.0000000+00:00</time></trkpt><trkpt lat="39.58511487" lon="-0.32136871"><ele>5.8</ele><time>2022-11-09T17:15:38.0000000+00:00</time></trkpt><trkpt lat="39.58516918" lon="-0.32134758"><ele>5.8</ele><time>2022-11-09T17:15:39.0000000+00:00</time></trkpt><trkpt lat="39.58522174" lon="-0.32131992"><ele>5.8</ele><time>2022-11-09T17:15:40.0000000+00:00</time></trkpt><trkpt lat="39.58527178" lon="-0.32129176"><ele>5.6</ele><time>2022-11-09T17:15:41.0000000+00:00</time></trkpt><trkpt lat="39.5853141" lon="-0.32126569"><ele>5.6</ele><time>2022-11-09T17:15:42.0000000+00:00</time></trkpt><trkpt lat="39.58533908" lon="-0.32124164"><ele>5.6</ele><time>2022-11-09T17:15:43.0000000+00:00</time></trkpt><trkpt lat="39.58536632" lon="-0.32123141"><ele>5.6</ele><time>2022-11-09T17:15:44.0000000+00:00</time></trkpt><trkpt lat="39.58539952" lon="-0.32123149"><ele>5.6</ele><time>2022-11-09T17:15:45.0000000+00:00</time></trkpt><trkpt lat="39.58543673" lon="-0.32123552"><ele>5.4</ele><time>2022-11-09T17:15:46.0000000+00:00</time></trkpt><trkpt lat="39.58547562" lon="-0.32123325"><ele>5.4</ele><time>2022-11-09T17:15:47.0000000+00:00</time></trkpt><trkpt lat="39.58551083" lon="-0.32122378"><ele>5.4</ele><time>2022-11-09T17:15:48.0000000+00:00</time></trkpt><trkpt lat="39.5855431" lon="-0.32121163"><ele>5.2</ele><time>2022-11-09T17:15:49.0000000+00:00</time></trkpt><trkpt lat="39.58557445" lon="-0.32120082"><ele>5.2</ele><time>2022-11-09T17:15:50.0000000+00:00</time></trkpt><trkpt lat="39.58560831" lon="-0.32118942"><ele>5.2</ele><time>2022-11-09T17:15:51.0000000+00:00</time></trkpt><trkpt lat="39.58564586" lon="-0.32117525"><ele>5.2</ele><time>2022-11-09T17:15:52.0000000+00:00</time></trkpt><trkpt lat="39.5856866" lon="-0.32115723"><ele>5.2</ele><time>2022-11-09T17:15:53.0000000+00:00</time></trkpt><trkpt lat="39.58572666" lon="-0.32113686"><ele>5.2</ele><time>2022-11-09T17:15:54.0000000+00:00</time></trkpt><trkpt lat="39.58576606" lon="-0.32111599"><ele>5.2</ele><time>2022-11-09T17:15:55.0000000+00:00</time></trkpt><trkpt lat="39.58580931" lon="-0.32109328"><ele>5.4</ele><time>2022-11-09T17:15:56.0000000+00:00</time></trkpt><trkpt lat="39.58585583" lon="-0.32107257"><ele>5.2</ele><time>2022-11-09T17:15:57.0000000+00:00</time></trkpt><trkpt lat="39.58590176" lon="-0.32105388"><ele>5.4</ele><time>2022-11-09T17:15:58.0000000+00:00</time></trkpt><trkpt lat="39.58594459" lon="-0.32103485"><ele>5.4</ele><time>2022-11-09T17:15:59.0000000+00:00</time></trkpt><trkpt lat="39.58598566" lon="-0.32102002"><ele>5.4</ele><time>2022-11-09T17:16:00.0000000+00:00</time></trkpt><trkpt lat="39.58602833" lon="-0.32101055"><ele>5.4</ele><time>2022-11-09T17:16:01.0000000+00:00</time></trkpt><trkpt lat="39.586073" lon="-0.32101206"><ele>5.4</ele><time>2022-11-09T17:16:02.0000000+00:00</time></trkpt><trkpt lat="39.58611642" lon="-0.32102614"><ele>5.4</ele><time>2022-11-09T17:16:03.0000000+00:00</time></trkpt><trkpt lat="39.5861585" lon="-0.32105053"><ele>5.4</ele><time>2022-11-09T17:16:04.0000000+00:00</time></trkpt><trkpt lat="39.58619814" lon="-0.32108221"><ele>5.6</ele><time>2022-11-09T17:16:05.0000000+00:00</time></trkpt><trkpt lat="39.58624148" lon="-0.3211154"><ele>5.6</ele><time>2022-11-09T17:16:06.0000000+00:00</time></trkpt><trkpt lat="39.58628381" lon="-0.32113619"><ele>5.6</ele><time>2022-11-09T17:16:07.0000000+00:00</time></trkpt><trkpt lat="39.58632463" lon="-0.32114072"><ele>5.6</ele><time>2022-11-09T17:16:08.0000000+00:00</time></trkpt><trkpt lat="39.58636109" lon="-0.32113376"><ele>5.6</ele><time>2022-11-09T17:16:09.0000000+00:00</time></trkpt><trkpt lat="39.58639269" lon="-0.32112412"><ele>5.6</ele><time>2022-11-09T17:16:10.0000000+00:00</time></trkpt><trkpt lat="39.58641968" lon="-0.32111465"><ele>5.6</ele><time>2022-11-09T17:16:11.0000000+00:00</time></trkpt><trkpt lat="39.58645061" lon="-0.32109713"><ele>5.6</ele><time>2022-11-09T17:16:12.0000000+00:00</time></trkpt><trkpt lat="39.58647902" lon="-0.32106939"><ele>5.6</ele><time>2022-11-09T17:16:13.0000000+00:00</time></trkpt><trkpt lat="39.58649939" lon="-0.32102563"><ele>5.6</ele><time>2022-11-09T17:16:14.0000000+00:00</time></trkpt><trkpt lat="39.5865149" lon="-0.3209844"><ele>5.6</ele><time>2022-11-09T17:16:15.0000000+00:00</time></trkpt><trkpt lat="39.58653124" lon="-0.32093855"><ele>5.6</ele><time>2022-11-09T17:16:16.0000000+00:00</time></trkpt><trkpt lat="39.5865444" lon="-0.32088876"><ele>5.6</ele><time>2022-11-09T17:16:17.0000000+00:00</time></trkpt><trkpt lat="39.58655907" lon="-0.3208352"><ele>5.6</ele><time>2022-11-09T17:16:18.0000000+00:00</time></trkpt><trkpt lat="39.58657801" lon="-0.32078214"><ele>5.6</ele><time>2022-11-09T17:16:19.0000000+00:00</time></trkpt><trkpt lat="39.58660408" lon="-0.32073143"><ele>5.6</ele><time>2022-11-09T17:16:20.0000000+00:00</time></trkpt><trkpt lat="39.58663752" lon="-0.32068466"><ele>5.6</ele><time>2022-11-09T17:16:21.0000000+00:00</time></trkpt><trkpt lat="39.58667893" lon="-0.32065046"><ele>5.6</ele><time>2022-11-09T17:16:22.0000000+00:00</time></trkpt><trkpt lat="39.58672344" lon="-0.32062674"><ele>5.6</ele><time>2022-11-09T17:16:23.0000000+00:00</time></trkpt><trkpt lat="39.58676711" lon="-0.32060729"><ele>5.6</ele><time>2022-11-09T17:16:24.0000000+00:00</time></trkpt><trkpt lat="39.58681195" lon="-0.32058785"><ele>5.6</ele><time>2022-11-09T17:16:25.0000000+00:00</time></trkpt><trkpt lat="39.58685436" lon="-0.32056874"><ele>5.6</ele><time>2022-11-09T17:16:26.0000000+00:00</time></trkpt><trkpt lat="39.58689937" lon="-0.32054971"><ele>5.6</ele><time>2022-11-09T17:16:27.0000000+00:00</time></trkpt><trkpt lat="39.58694137" lon="-0.32053303"><ele>5.6</ele><time>2022-11-09T17:16:28.0000000+00:00</time></trkpt><trkpt lat="39.58698101" lon="-0.32051769"><ele>5.6</ele><time>2022-11-09T17:16:29.0000000+00:00</time></trkpt><trkpt lat="39.58701974" lon="-0.32050118"><ele>5.4</ele><time>2022-11-09T17:16:30.0000000+00:00</time></trkpt><trkpt lat="39.58706173" lon="-0.320484"><ele>5.4</ele><time>2022-11-09T17:16:31.0000000+00:00</time></trkpt><trkpt lat="39.58709803" lon="-0.3204674"><ele>5.6</ele><time>2022-11-09T17:16:32.0000000+00:00</time></trkpt><trkpt lat="39.58713247" lon="-0.32045139"><ele>5.6</ele><time>2022-11-09T17:16:33.0000000+00:00</time></trkpt><trkpt lat="39.58716751" lon="-0.32043798"><ele>5.6</ele><time>2022-11-09T17:16:34.0000000+00:00</time></trkpt><trkpt lat="39.58720137" lon="-0.32042557"><ele>5.6</ele><time>2022-11-09T17:16:35.0000000+00:00</time></trkpt><trkpt lat="39.58723473" lon="-0.32041443"><ele>5.6</ele><time>2022-11-09T17:16:36.0000000+00:00</time></trkpt><trkpt lat="39.58726692" lon="-0.32040068"><ele>5.6</ele><time>2022-11-09T17:16:37.0000000+00:00</time></trkpt><trkpt lat="39.58729668" lon="-0.32038643"><ele>5.6</ele><time>2022-11-09T17:16:38.0000000+00:00</time></trkpt><trkpt lat="39.58732476" lon="-0.32037092"><ele>5.6</ele><time>2022-11-09T17:16:39.0000000+00:00</time></trkpt><trkpt lat="39.58735267" lon="-0.32035902"><ele>5.6</ele><time>2022-11-09T17:16:40.0000000+00:00</time></trkpt><trkpt lat="39.58738175" lon="-0.32034628"><ele>5.6</ele><time>2022-11-09T17:16:41.0000000+00:00</time></trkpt><trkpt lat="39.58740992" lon="-0.32033698"><ele>5.6</ele><time>2022-11-09T17:16:42.0000000+00:00</time></trkpt><trkpt lat="39.58743447" lon="-0.32032734"><ele>5.6</ele><time>2022-11-09T17:16:43.0000000+00:00</time></trkpt><trkpt lat="39.58746021" lon="-0.32031762"><ele>5.6</ele><time>2022-11-09T17:16:44.0000000+00:00</time></trkpt><trkpt lat="39.58748326" lon="-0.32030781"><ele>5.6</ele><time>2022-11-09T17:16:45.0000000+00:00</time></trkpt><trkpt lat="39.58750597" lon="-0.32029909"><ele>5.6</ele><time>2022-11-09T17:16:46.0000000+00:00</time></trkpt><trkpt lat="39.5875286" lon="-0.32029088"><ele>5.8</ele><time>2022-11-09T17:16:47.0000000+00:00</time></trkpt><trkpt lat="39.58755249" lon="-0.32028467"><ele>5.8</ele><time>2022-11-09T17:16:48.0000000+00:00</time></trkpt><trkpt lat="39.58757739" lon="-0.32028048"><ele>5.8</ele><time>2022-11-09T17:16:49.0000000+00:00</time></trkpt><trkpt lat="39.5875996" lon="-0.3202747"><ele>5.8</ele><time>2022-11-09T17:16:50.0000000+00:00</time></trkpt><trkpt lat="39.58761795" lon="-0.32026598"><ele>5.8</ele><time>2022-11-09T17:16:51.0000000+00:00</time></trkpt><trkpt lat="39.58763899" lon="-0.32025534"><ele>5.8</ele><time>2022-11-09T17:16:52.0000000+00:00</time></trkpt><trkpt lat="39.58766288" lon="-0.32024637"><ele>5.8</ele><time>2022-11-09T17:16:53.0000000+00:00</time></trkpt><trkpt lat="39.58768845" lon="-0.32023648"><ele>5.6</ele><time>2022-11-09T17:16:54.0000000+00:00</time></trkpt><trkpt lat="39.58771569" lon="-0.32022952"><ele>5.6</ele><time>2022-11-09T17:16:55.0000000+00:00</time></trkpt><trkpt lat="39.58774184" lon="-0.3202193"><ele>5.6</ele><time>2022-11-09T17:16:56.0000000+00:00</time></trkpt><trkpt lat="39.5877659" lon="-0.3202089"><ele>5.6</ele><time>2022-11-09T17:16:57.0000000+00:00</time></trkpt><trkpt lat="39.58778786" lon="-0.32019935"><ele>5.6</ele><time>2022-11-09T17:16:58.0000000+00:00</time></trkpt><trkpt lat="39.58780588" lon="-0.32018904"><ele>5.8</ele><time>2022-11-09T17:16:59.0000000+00:00</time></trkpt><trkpt lat="39.58782214" lon="-0.32018057"><ele>5.8</ele><time>2022-11-09T17:17:00.0000000+00:00</time></trkpt><trkpt lat="39.58783689" lon="-0.32017219"><ele>5.8</ele><time>2022-11-09T17:17:01.0000000+00:00</time></trkpt><trkpt lat="39.5878534" lon="-0.32016506"><ele>5.8</ele><time>2022-11-09T17:17:02.0000000+00:00</time></trkpt><trkpt lat="39.58786782" lon="-0.32015945"><ele>5.8</ele><time>2022-11-09T17:17:03.0000000+00:00</time></trkpt><trkpt lat="39.58788048" lon="-0.32015199"><ele>5.8</ele><time>2022-11-09T17:17:04.0000000+00:00</time></trkpt><trkpt lat="39.58789179" lon="-0.32014579"><ele>5.8</ele><time>2022-11-09T17:17:05.0000000+00:00</time></trkpt><trkpt lat="39.58790478" lon="-0.32014168"><ele>5.8</ele><time>2022-11-09T17:17:06.0000000+00:00</time></trkpt><trkpt lat="39.58792289" lon="-0.32013925"><ele>5.8</ele><time>2022-11-09T17:17:07.0000000+00:00</time></trkpt><trkpt lat="39.58794334" lon="-0.32013145"><ele>5.8</ele><time>2022-11-09T17:17:08.0000000+00:00</time></trkpt><trkpt lat="39.58796572" lon="-0.32012282"><ele>5.8</ele><time>2022-11-09T17:17:09.0000000+00:00</time></trkpt><trkpt lat="39.5879855" lon="-0.32011318"><ele>5.8</ele><time>2022-11-09T17:17:10.0000000+00:00</time></trkpt><trkpt lat="39.58800126" lon="-0.32010212"><ele>5.8</ele><time>2022-11-09T17:17:11.0000000+00:00</time></trkpt><trkpt lat="39.58803101" lon="-0.32008544"><ele>6.0</ele><time>2022-11-09T17:17:12.0000000+00:00</time></trkpt><trkpt lat="39.58805943" lon="-0.32007362"><ele>6.0</ele><time>2022-11-09T17:17:13.0000000+00:00</time></trkpt><trkpt lat="39.58809312" lon="-0.32005945"><ele>6.0</ele><time>2022-11-09T17:17:14.0000000+00:00</time></trkpt><trkpt lat="39.5881295" lon="-0.32004378"><ele>6.0</ele><time>2022-11-09T17:17:15.0000000+00:00</time></trkpt><trkpt lat="39.58816596" lon="-0.32002945"><ele>6.2</ele><time>2022-11-09T17:17:16.0000000+00:00</time></trkpt><trkpt lat="39.58820452" lon="-0.32001528"><ele>6.2</ele><time>2022-11-09T17:17:17.0000000+00:00</time></trkpt><trkpt lat="39.5882445" lon="-0.32000086"><ele>6.2</ele><time>2022-11-09T17:17:18.0000000+00:00</time></trkpt><trkpt lat="39.58828524" lon="-0.31998335"><ele>6.2</ele><time>2022-11-09T17:17:19.0000000+00:00</time></trkpt><trkpt lat="39.58832673" lon="-0.31996205"><ele>6.2</ele><time>2022-11-09T17:17:20.0000000+00:00</time></trkpt><trkpt lat="39.58837316" lon="-0.31993792"><ele>6.2</ele><time>2022-11-09T17:17:21.0000000+00:00</time></trkpt><trkpt lat="39.58841683" lon="-0.31992056"><ele>6.2</ele><time>2022-11-09T17:17:22.0000000+00:00</time></trkpt><trkpt lat="39.58845003" lon="-0.31990514"><ele>6.2</ele><time>2022-11-09T17:17:23.0000000+00:00</time></trkpt><trkpt lat="39.58847048" lon="-0.31989684"><ele>6.2</ele><time>2022-11-09T17:17:24.0000000+00:00</time></trkpt><trkpt lat="39.58847702" lon="-0.31989508"><ele>6.2</ele><time>2022-11-09T17:17:25.0000000+00:00</time></trkpt><trkpt lat="39.5884802" lon="-0.31989433"><ele>6.0</ele><time>2022-11-09T17:17:26.0000000+00:00</time></trkpt><trkpt lat="39.58848087" lon="-0.31989777"><ele>6.0</ele><time>2022-11-09T17:17:27.0000000+00:00</time></trkpt><trkpt lat="39.58848087" lon="-0.31989777"><ele>5.8</ele><time>2022-11-09T17:17:28.0000000+00:00</time></trkpt><trkpt lat="39.58848087" lon="-0.31989777"><ele>5.8</ele><time>2022-11-09T17:17:29.0000000+00:00</time></trkpt><trkpt lat="39.58848087" lon="-0.31989777"><ele>5.8</ele><time>2022-11-09T17:17:30.0000000+00:00</time></trkpt><trkpt lat="39.58848087" lon="-0.31989777"><ele>6.6</ele><time>2022-11-09T17:17:31.0000000+00:00</time></trkpt><trkpt lat="39.58848087" lon="-0.31989777"><ele>6.6</ele><time>2022-11-09T17:17:32.0000000+00:00</time></trkpt><trkpt lat="39.58848087" lon="-0.31989777"><ele>6.6</ele><time>2022-11-09T17:17:33.0000000+00:00</time></trkpt><trkpt lat="39.58848087" lon="-0.31989777"><ele>6.6</ele><time>2022-11-09T17:17:34.0000000+00:00</time></trkpt><trkpt lat="39.58848087" lon="-0.31989777"><ele>6.6</ele><time>2022-11-09T17:17:35.0000000+00:00</time></trkpt><trkpt lat="39.58848087" lon="-0.31989777"><ele>6.6</ele><time>2022-11-09T17:17:36.0000000+00:00</time></trkpt><trkpt lat="39.58848087" lon="-0.31989777"><ele>6.6</ele><time>2022-11-09T17:17:37.0000000+00:00</time></trkpt><trkpt lat="39.58848087" lon="-0.31989777"><ele>6.6</ele><time>2022-11-09T17:17:38.0000000+00:00</time></trkpt><trkpt lat="39.58848087" lon="-0.31989777"><ele>6.6</ele><time>2022-11-09T17:17:39.0000000+00:00</time></trkpt><trkpt lat="39.58848087" lon="-0.31989777"><ele>6.6</ele><time>2022-11-09T17:17:40.0000000+00:00</time></trkpt><trkpt lat="39.58848087" lon="-0.31989777"><ele>6.6</ele><time>2022-11-09T17:17:41.0000000+00:00</time></trkpt><trkpt lat="39.58848087" lon="-0.31989777"><ele>6.6</ele><time>2022-11-09T17:17:42.0000000+00:00</time></trkpt><trkpt lat="39.58848087" lon="-0.31989777"><ele>6.6</ele><time>2022-11-09T17:17:43.0000000+00:00</time></trkpt><trkpt lat="39.58848087" lon="-0.31989777"><ele>6.6</ele><time>2022-11-09T17:17:44.0000000+00:00</time></trkpt><trkpt lat="39.58848087" lon="-0.31989777"><ele>6.6</ele><time>2022-11-09T17:17:45.0000000+00:00</time></trkpt><trkpt lat="39.58848414" lon="-0.31989559"><ele>6.6</ele><time>2022-11-09T17:17:46.0000000+00:00</time></trkpt><trkpt lat="39.58849202" lon="-0.31989081"><ele>6.6</ele><time>2022-11-09T17:17:47.0000000+00:00</time></trkpt><trkpt lat="39.58850493" lon="-0.31988268"><ele>6.6</ele><time>2022-11-09T17:17:48.0000000+00:00</time></trkpt><trkpt lat="39.58852228" lon="-0.3198753"><ele>6.6</ele><time>2022-11-09T17:17:49.0000000+00:00</time></trkpt><trkpt lat="39.58854499" lon="-0.3198717"><ele>6.6</ele><time>2022-11-09T17:17:50.0000000+00:00</time></trkpt><trkpt lat="39.58856662" lon="-0.31986491"><ele>6.6</ele><time>2022-11-09T17:17:51.0000000+00:00</time></trkpt><trkpt lat="39.58859143" lon="-0.31985477"><ele>6.4</ele><time>2022-11-09T17:17:52.0000000+00:00</time></trkpt><trkpt lat="39.58861339" lon="-0.31984437"><ele>6.2</ele><time>2022-11-09T17:17:53.0000000+00:00</time></trkpt><trkpt lat="39.58864667" lon="-0.31982778"><ele>6.2</ele><time>2022-11-09T17:17:54.0000000+00:00</time></trkpt><trkpt lat="39.58867835" lon="-0.31981495"><ele>6.2</ele><time>2022-11-09T17:17:55.0000000+00:00</time></trkpt><trkpt lat="39.58871615" lon="-0.31980347"><ele>6.2</ele><time>2022-11-09T17:17:56.0000000+00:00</time></trkpt><trkpt lat="39.58875806" lon="-0.31978838"><ele>6.2</ele><time>2022-11-09T17:17:57.0000000+00:00</time></trkpt><trkpt lat="39.58879871" lon="-0.31977162"><ele>6.2</ele><time>2022-11-09T17:17:58.0000000+00:00</time></trkpt><trkpt lat="39.5888392" lon="-0.31975502"><ele>6.2</ele><time>2022-11-09T17:17:59.0000000+00:00</time></trkpt><trkpt lat="39.58887734" lon="-0.31973952"><ele>6.4</ele><time>2022-11-09T17:18:00.0000000+00:00</time></trkpt><trkpt lat="39.58891606" lon="-0.31972719"><ele>6.4</ele><time>2022-11-09T17:18:01.0000000+00:00</time></trkpt><trkpt lat="39.58895453" lon="-0.31971504"><ele>6.4</ele><time>2022-11-09T17:18:02.0000000+00:00</time></trkpt><trkpt lat="39.58900332" lon="-0.31970616"><ele>6.6</ele><time>2022-11-09T17:18:03.0000000+00:00</time></trkpt><trkpt lat="39.58904782" lon="-0.31969551"><ele>6.6</ele><time>2022-11-09T17:18:04.0000000+00:00</time></trkpt><trkpt lat="39.58909342" lon="-0.31968545"><ele>6.8</ele><time>2022-11-09T17:18:05.0000000+00:00</time></trkpt><trkpt lat="39.58914086" lon="-0.31967581"><ele>6.8</ele><time>2022-11-09T17:18:06.0000000+00:00</time></trkpt><trkpt lat="39.58918814" lon="-0.31966592"><ele>6.8</ele><time>2022-11-09T17:18:07.0000000+00:00</time></trkpt><trkpt lat="39.58923566" lon="-0.31965461"><ele>7.0</ele><time>2022-11-09T17:18:08.0000000+00:00</time></trkpt><trkpt lat="39.58928545" lon="-0.31964597"><ele>7.0</ele><time>2022-11-09T17:18:09.0000000+00:00</time></trkpt><trkpt lat="39.58933373" lon="-0.31963659"><ele>7.0</ele><time>2022-11-09T17:18:10.0000000+00:00</time></trkpt><trkpt lat="39.58937715" lon="-0.31962426"><ele>7.0</ele><time>2022-11-09T17:18:11.0000000+00:00</time></trkpt><trkpt lat="39.58942048" lon="-0.31961873"><ele>7.2</ele><time>2022-11-09T17:18:12.0000000+00:00</time></trkpt><trkpt lat="39.58946373" lon="-0.31961789"><ele>7.2</ele><time>2022-11-09T17:18:13.0000000+00:00</time></trkpt><trkpt lat="39.58950405" lon="-0.31961379"><ele>7.2</ele><time>2022-11-09T17:18:14.0000000+00:00</time></trkpt><trkpt lat="39.58954403" lon="-0.31961203"><ele>7.2</ele><time>2022-11-09T17:18:15.0000000+00:00</time></trkpt><trkpt lat="39.58958242" lon="-0.31960708"><ele>7.2</ele><time>2022-11-09T17:18:16.0000000+00:00</time></trkpt><trkpt lat="39.58962115" lon="-0.31961152"><ele>7.2</ele><time>2022-11-09T17:18:17.0000000+00:00</time></trkpt><trkpt lat="39.58966339" lon="-0.31962141"><ele>7.2</ele><time>2022-11-09T17:18:18.0000000+00:00</time></trkpt><trkpt lat="39.58971402" lon="-0.31963977"><ele>7.2</ele><time>2022-11-09T17:18:19.0000000+00:00</time></trkpt><trkpt lat="39.58976599" lon="-0.3196567"><ele>7.0</ele><time>2022-11-09T17:18:20.0000000+00:00</time></trkpt><trkpt lat="39.58981594" lon="-0.3196686"><ele>6.8</ele><time>2022-11-09T17:18:21.0000000+00:00</time></trkpt><trkpt lat="39.58985911" lon="-0.3196759"><ele>6.4</ele><time>2022-11-09T17:18:22.0000000+00:00</time></trkpt><trkpt lat="39.58989197" lon="-0.31967003"><ele>6.0</ele><time>2022-11-09T17:18:23.0000000+00:00</time></trkpt><trkpt lat="39.58991669" lon="-0.31964354"><ele>5.6</ele><time>2022-11-09T17:18:24.0000000+00:00</time></trkpt><trkpt lat="39.58992918" lon="-0.31961236"><ele>5.2</ele><time>2022-11-09T17:18:25.0000000+00:00</time></trkpt><trkpt lat="39.59002381" lon="-0.31944338"><ele>4.8</ele><time>2022-11-09T17:18:30.0000000+00:00</time></trkpt><trkpt lat="39.59004158" lon="-0.31941639"><ele>4.8</ele><time>2022-11-09T17:18:31.0000000+00:00</time></trkpt><trkpt lat="39.59007335" lon="-0.31938429"><ele>4.8</ele><time>2022-11-09T17:18:32.0000000+00:00</time></trkpt><trkpt lat="39.59009539" lon="-0.31937918"><ele>5.0</ele><time>2022-11-09T17:18:33.0000000+00:00</time></trkpt><trkpt lat="39.5901187" lon="-0.31939686"><ele>5.2</ele><time>2022-11-09T17:18:34.0000000+00:00</time></trkpt><trkpt lat="39.59015004" lon="-0.31942863"><ele>5.2</ele><time>2022-11-09T17:18:35.0000000+00:00</time></trkpt><trkpt lat="39.59018223" lon="-0.31945294"><ele>5.4</ele><time>2022-11-09T17:18:36.0000000+00:00</time></trkpt><trkpt lat="39.59021618" lon="-0.31946995"><ele>5.6</ele><time>2022-11-09T17:18:37.0000000+00:00</time></trkpt><trkpt lat="39.59025088" lon="-0.31948227"><ele>5.8</ele><time>2022-11-09T17:18:38.0000000+00:00</time></trkpt><trkpt lat="39.59029044" lon="-0.31949418"><ele>5.8</ele><time>2022-11-09T17:18:39.0000000+00:00</time></trkpt><trkpt lat="39.59033151" lon="-0.31950901"><ele>6.0</ele><time>2022-11-09T17:18:40.0000000+00:00</time></trkpt><trkpt lat="39.59037778" lon="-0.3195303"><ele>6.0</ele><time>2022-11-09T17:18:41.0000000+00:00</time></trkpt><trkpt lat="39.59042614" lon="-0.31955025"><ele>6.2</ele><time>2022-11-09T17:18:42.0000000+00:00</time></trkpt><trkpt lat="39.59047375" lon="-0.31956894"><ele>6.2</ele><time>2022-11-09T17:18:43.0000000+00:00</time></trkpt><trkpt lat="39.59052061" lon="-0.31958655"><ele>6.2</ele><time>2022-11-09T17:18:44.0000000+00:00</time></trkpt><trkpt lat="39.59056612" lon="-0.31960515"><ele>6.2</ele><time>2022-11-09T17:18:45.0000000+00:00</time></trkpt><trkpt lat="39.59060912" lon="-0.31962359"><ele>6.2</ele><time>2022-11-09T17:18:46.0000000+00:00</time></trkpt><trkpt lat="39.59065463" lon="-0.31964681"><ele>6.4</ele><time>2022-11-09T17:18:47.0000000+00:00</time></trkpt><trkpt lat="39.59070208" lon="-0.319679"><ele>6.4</ele><time>2022-11-09T17:18:48.0000000+00:00</time></trkpt><trkpt lat="39.5907517" lon="-0.31971278"><ele>6.4</ele><time>2022-11-09T17:18:49.0000000+00:00</time></trkpt><trkpt lat="39.59079939" lon="-0.31974295"><ele>6.4</ele><time>2022-11-09T17:18:50.0000000+00:00</time></trkpt><trkpt lat="39.59084742" lon="-0.31977413"><ele>6.6</ele><time>2022-11-09T17:18:51.0000000+00:00</time></trkpt><trkpt lat="39.59089696" lon="-0.31980498"><ele>6.6</ele><time>2022-11-09T17:18:52.0000000+00:00</time></trkpt><trkpt lat="39.59094582" lon="-0.3198349"><ele>6.6</ele><time>2022-11-09T17:18:53.0000000+00:00</time></trkpt><trkpt lat="39.59098966" lon="-0.31986508"><ele>6.6</ele><time>2022-11-09T17:18:54.0000000+00:00</time></trkpt><trkpt lat="39.59103459" lon="-0.3199033"><ele>6.6</ele><time>2022-11-09T17:18:55.0000000+00:00</time></trkpt><trkpt lat="39.59107859" lon="-0.31994479"><ele>6.8</ele><time>2022-11-09T17:18:56.0000000+00:00</time></trkpt><trkpt lat="39.59112285" lon="-0.3199805"><ele>6.8</ele><time>2022-11-09T17:18:57.0000000+00:00</time></trkpt><trkpt lat="39.5911671" lon="-0.32000329"><ele>6.8</ele><time>2022-11-09T17:18:58.0000000+00:00</time></trkpt><trkpt lat="39.59121144" lon="-0.32001855"><ele>6.8</ele><time>2022-11-09T17:18:59.0000000+00:00</time></trkpt><trkpt lat="39.59125444" lon="-0.32002333"><ele>6.8</ele><time>2022-11-09T17:19:00.0000000+00:00</time></trkpt><trkpt lat="39.59129727" lon="-0.32001746"><ele>7.0</ele><time>2022-11-09T17:19:01.0000000+00:00</time></trkpt><trkpt lat="39.59133332" lon="-0.32000933"><ele>7.0</ele><time>2022-11-09T17:19:02.0000000+00:00</time></trkpt><trkpt lat="39.59137254" lon="-0.32000237"><ele>6.8</ele><time>2022-11-09T17:19:03.0000000+00:00</time></trkpt><trkpt lat="39.59141085" lon="-0.31999575"><ele>7.0</ele><time>2022-11-09T17:19:04.0000000+00:00</time></trkpt><trkpt lat="39.59144312" lon="-0.31998636"><ele>6.8</ele><time>2022-11-09T17:19:05.0000000+00:00</time></trkpt><trkpt lat="39.591465" lon="-0.31997689"><ele>6.8</ele><time>2022-11-09T17:19:06.0000000+00:00</time></trkpt><trkpt lat="39.59147841" lon="-0.31996708"><ele>6.8</ele><time>2022-11-09T17:19:07.0000000+00:00</time></trkpt><trkpt lat="39.59148738" lon="-0.31996474"><ele>6.8</ele><time>2022-11-09T17:19:08.0000000+00:00</time></trkpt><trkpt lat="39.59149534" lon="-0.31996935"><ele>6.8</ele><time>2022-11-09T17:19:09.0000000+00:00</time></trkpt><trkpt lat="39.59150188" lon="-0.31997714"><ele>6.8</ele><time>2022-11-09T17:19:10.0000000+00:00</time></trkpt><trkpt lat="39.5915152" lon="-0.31998586"><ele>6.8</ele><time>2022-11-09T17:19:11.0000000+00:00</time></trkpt><trkpt lat="39.5915287" lon="-0.31999139"><ele>6.8</ele><time>2022-11-09T17:19:12.0000000+00:00</time></trkpt><trkpt lat="39.59154882" lon="-0.31999315"><ele>6.8</ele><time>2022-11-09T17:19:13.0000000+00:00</time></trkpt><trkpt lat="39.59157078" lon="-0.31999525"><ele>6.8</ele><time>2022-11-09T17:19:14.0000000+00:00</time></trkpt><trkpt lat="39.59159383" lon="-0.31999743"><ele>7.0</ele><time>2022-11-09T17:19:15.0000000+00:00</time></trkpt><trkpt lat="39.59161419" lon="-0.3200022"><ele>7.0</ele><time>2022-11-09T17:19:16.0000000+00:00</time></trkpt><trkpt lat="39.59163071" lon="-0.32000707"><ele>7.0</ele><time>2022-11-09T17:19:17.0000000+00:00</time></trkpt><trkpt lat="39.59164621" lon="-0.32000824"><ele>7.0</ele><time>2022-11-09T17:19:18.0000000+00:00</time></trkpt><trkpt lat="39.59165786" lon="-0.32000824"><ele>7.0</ele><time>2022-11-09T17:19:19.0000000+00:00</time></trkpt><trkpt lat="39.59167153" lon="-0.32000908"><ele>7.0</ele><time>2022-11-09T17:19:20.0000000+00:00</time></trkpt><trkpt lat="39.59168628" lon="-0.32001033"><ele>7.0</ele><time>2022-11-09T17:19:21.0000000+00:00</time></trkpt><trkpt lat="39.59170095" lon="-0.32001151"><ele>7.0</ele><time>2022-11-09T17:19:22.0000000+00:00</time></trkpt><trkpt lat="39.59171344" lon="-0.32001402"><ele>7.0</ele><time>2022-11-09T17:19:23.0000000+00:00</time></trkpt><trkpt lat="39.59172794" lon="-0.32001629"><ele>7.0</ele><time>2022-11-09T17:19:24.0000000+00:00</time></trkpt><trkpt lat="39.59174185" lon="-0.32001888"><ele>7.0</ele><time>2022-11-09T17:19:25.0000000+00:00</time></trkpt><trkpt lat="39.5917525" lon="-0.32001754"><ele>7.0</ele><time>2022-11-09T17:19:26.0000000+00:00</time></trkpt><trkpt lat="39.59175644" lon="-0.3200157"><ele>7.0</ele><time>2022-11-09T17:19:27.0000000+00:00</time></trkpt><trkpt lat="39.59175644" lon="-0.3200157"><ele>7.0</ele><time>2022-11-09T17:19:28.0000000+00:00</time></trkpt><trkpt lat="39.59175484" lon="-0.32001335"><ele>7.0</ele><time>2022-11-09T17:19:29.0000000+00:00</time></trkpt><trkpt lat="39.59175292" lon="-0.32001101"><ele>7.0</ele><time>2022-11-09T17:19:30.0000000+00:00</time></trkpt><trkpt lat="39.59175292" lon="-0.32001101"><ele>7.2</ele><time>2022-11-09T17:19:31.0000000+00:00</time></trkpt><trkpt lat="39.59175292" lon="-0.32001101"><ele>7.2</ele><time>2022-11-09T17:19:32.0000000+00:00</time></trkpt><trkpt lat="39.59175292" lon="-0.32001101"><ele>7.2</ele><time>2022-11-09T17:19:33.0000000+00:00</time></trkpt><trkpt lat="39.59175292" lon="-0.32001101"><ele>7.2</ele><time>2022-11-09T17:19:34.0000000+00:00</time></trkpt><trkpt lat="39.59175292" lon="-0.32001101"><ele>7.2</ele><time>2022-11-09T17:19:35.0000000+00:00</time></trkpt><trkpt lat="39.59175292" lon="-0.32001101"><ele>7.2</ele><time>2022-11-09T17:19:36.0000000+00:00</time></trkpt><trkpt lat="39.59175292" lon="-0.32001101"><ele>7.2</ele><time>2022-11-09T17:19:37.0000000+00:00</time></trkpt><trkpt lat="39.59175292" lon="-0.32001101"><ele>7.0</ele><time>2022-11-09T17:19:38.0000000+00:00</time></trkpt><trkpt lat="39.59175292" lon="-0.32001101"><ele>7.0</ele><time>2022-11-09T17:19:39.0000000+00:00</time></trkpt><trkpt lat="39.59175292" lon="-0.32001101"><ele>7.0</ele><time>2022-11-09T17:19:40.0000000+00:00</time></trkpt><trkpt lat="39.59175292" lon="-0.32001101"><ele>7.0</ele><time>2022-11-09T17:19:41.0000000+00:00</time></trkpt><trkpt lat="39.59175292" lon="-0.32001101"><ele>7.0</ele><time>2022-11-09T17:19:42.0000000+00:00</time></trkpt><trkpt lat="39.59175292" lon="-0.32001101"><ele>7.0</ele><time>2022-11-09T17:19:43.0000000+00:00</time></trkpt><trkpt lat="39.59175292" lon="-0.32001101"><ele>7.0</ele><time>2022-11-09T17:19:44.0000000+00:00</time></trkpt><trkpt lat="39.59175292" lon="-0.32001101"><ele>7.0</ele><time>2022-11-09T17:19:45.0000000+00:00</time></trkpt><trkpt lat="39.59175292" lon="-0.32001101"><ele>7.0</ele><time>2022-11-09T17:19:46.0000000+00:00</time></trkpt><trkpt lat="39.59175292" lon="-0.32001101"><ele>7.0</ele><time>2022-11-09T17:19:47.0000000+00:00</time></trkpt><trkpt lat="39.59175292" lon="-0.32001101"><ele>7.0</ele><time>2022-11-09T17:19:48.0000000+00:00</time></trkpt><trkpt lat="39.59175292" lon="-0.32001101"><ele>7.0</ele><time>2022-11-09T17:19:49.0000000+00:00</time></trkpt><trkpt lat="39.59175292" lon="-0.32001101"><ele>7.0</ele><time>2022-11-09T17:19:50.0000000+00:00</time></trkpt><trkpt lat="39.59175292" lon="-0.32001101"><ele>7.0</ele><time>2022-11-09T17:19:51.0000000+00:00</time></trkpt><trkpt lat="39.59175292" lon="-0.32001101"><ele>7.0</ele><time>2022-11-09T17:19:52.0000000+00:00</time></trkpt><trkpt lat="39.59175292" lon="-0.32001101"><ele>7.0</ele><time>2022-11-09T17:19:53.0000000+00:00</time></trkpt><trkpt lat="39.59175292" lon="-0.32001101"><ele>7.0</ele><time>2022-11-09T17:19:54.0000000+00:00</time></trkpt><trkpt lat="39.59175292" lon="-0.32001101"><ele>7.0</ele><time>2022-11-09T17:19:55.0000000+00:00</time></trkpt><trkpt lat="39.59175292" lon="-0.32001101"><ele>7.0</ele><time>2022-11-09T17:19:56.0000000+00:00</time></trkpt><trkpt lat="39.59175409" lon="-0.32001193"><ele>7.0</ele><time>2022-11-09T17:19:57.0000000+00:00</time></trkpt><trkpt lat="39.59175627" lon="-0.32001386"><ele>7.0</ele><time>2022-11-09T17:19:58.0000000+00:00</time></trkpt><trkpt lat="39.59175417" lon="-0.3200162"><ele>7.0</ele><time>2022-11-09T17:19:59.0000000+00:00</time></trkpt><trkpt lat="39.59174856" lon="-0.32002391"><ele>7.0</ele><time>2022-11-09T17:20:00.0000000+00:00</time></trkpt><trkpt lat="39.59174126" lon="-0.32003397"><ele>7.0</ele><time>2022-11-09T17:20:01.0000000+00:00</time></trkpt><trkpt lat="39.59173204" lon="-0.3200359"><ele>6.8</ele><time>2022-11-09T17:20:02.0000000+00:00</time></trkpt><trkpt lat="39.59171637" lon="-0.32003196"><ele>6.8</ele><time>2022-11-09T17:20:03.0000000+00:00</time></trkpt><trkpt lat="39.59169793" lon="-0.32002232"><ele>7.0</ele><time>2022-11-09T17:20:04.0000000+00:00</time></trkpt><trkpt lat="39.59167161" lon="-0.32001277"><ele>7.0</ele><time>2022-11-09T17:20:05.0000000+00:00</time></trkpt><trkpt lat="39.59164454" lon="-0.3200038"><ele>7.0</ele><time>2022-11-09T17:20:06.0000000+00:00</time></trkpt><trkpt lat="39.59161528" lon="-0.31999516"><ele>7.0</ele><time>2022-11-09T17:20:07.0000000+00:00</time></trkpt><trkpt lat="39.59158461" lon="-0.31998645"><ele>7.0</ele><time>2022-11-09T17:20:08.0000000+00:00</time></trkpt><trkpt lat="39.59155393" lon="-0.31998267"><ele>7.0</ele><time>2022-11-09T17:20:09.0000000+00:00</time></trkpt><trkpt lat="39.59152023" lon="-0.31997857"><ele>7.0</ele><time>2022-11-09T17:20:10.0000000+00:00</time></trkpt><trkpt lat="39.59149065" lon="-0.31997605"><ele>6.8</ele><time>2022-11-09T17:20:11.0000000+00:00</time></trkpt><trkpt lat="39.59146726" lon="-0.31996876"><ele>6.8</ele><time>2022-11-09T17:20:12.0000000+00:00</time></trkpt><trkpt lat="39.59145385" lon="-0.31994814"><ele>6.8</ele><time>2022-11-09T17:20:13.0000000+00:00</time></trkpt><trkpt lat="39.59144404" lon="-0.31991235"><ele>6.6</ele><time>2022-11-09T17:20:14.0000000+00:00</time></trkpt><trkpt lat="39.59143742" lon="-0.31986893"><ele>6.6</ele><time>2022-11-09T17:20:15.0000000+00:00</time></trkpt><trkpt lat="39.59142996" lon="-0.31983079"><ele>6.4</ele><time>2022-11-09T17:20:16.0000000+00:00</time></trkpt><trkpt lat="39.59141864" lon="-0.3197738"><ele>6.4</ele><time>2022-11-09T17:20:17.0000000+00:00</time></trkpt><trkpt lat="39.59141043" lon="-0.31972912"><ele>6.2</ele><time>2022-11-09T17:20:18.0000000+00:00</time></trkpt><trkpt lat="39.59139945" lon="-0.31968445"><ele>6.0</ele><time>2022-11-09T17:20:19.0000000+00:00</time></trkpt><trkpt lat="39.59138579" lon="-0.31963843"><ele>5.8</ele><time>2022-11-09T17:20:20.0000000+00:00</time></trkpt><trkpt lat="39.59137389" lon="-0.31958814"><ele>5.6</ele><time>2022-11-09T17:20:21.0000000+00:00</time></trkpt><trkpt lat="39.59135955" lon="-0.31953961"><ele>5.6</ele><time>2022-11-09T17:20:22.0000000+00:00</time></trkpt><trkpt lat="39.59134497" lon="-0.31948999"><ele>5.6</ele><time>2022-11-09T17:20:23.0000000+00:00</time></trkpt><trkpt lat="39.59132955" lon="-0.31943676"><ele>5.4</ele><time>2022-11-09T17:20:24.0000000+00:00</time></trkpt><trkpt lat="39.59131161" lon="-0.31938362"><ele>5.6</ele><time>2022-11-09T17:20:25.0000000+00:00</time></trkpt><trkpt lat="39.59129258" lon="-0.31932931"><ele>5.6</ele><time>2022-11-09T17:20:26.0000000+00:00</time></trkpt><trkpt lat="39.59127372" lon="-0.31927415"><ele>5.6</ele><time>2022-11-09T17:20:27.0000000+00:00</time></trkpt><trkpt lat="39.59125578" lon="-0.31921682"><ele>5.6</ele><time>2022-11-09T17:20:28.0000000+00:00</time></trkpt><trkpt lat="39.59123533" lon="-0.31916083"><ele>5.6</ele><time>2022-11-09T17:20:29.0000000+00:00</time></trkpt><trkpt lat="39.5912122" lon="-0.31910559"><ele>5.4</ele><time>2022-11-09T17:20:30.0000000+00:00</time></trkpt><trkpt lat="39.59118823" lon="-0.31905153"><ele>5.4</ele><time>2022-11-09T17:20:31.0000000+00:00</time></trkpt><trkpt lat="39.59116534" lon="-0.31900266"><ele>5.4</ele><time>2022-11-09T17:20:32.0000000+00:00</time></trkpt><trkpt lat="39.59114724" lon="-0.31895648"><ele>5.4</ele><time>2022-11-09T17:20:33.0000000+00:00</time></trkpt><trkpt lat="39.59113777" lon="-0.31890694"><ele>5.4</ele><time>2022-11-09T17:20:34.0000000+00:00</time></trkpt><trkpt lat="39.59113567" lon="-0.31886352"><ele>5.4</ele><time>2022-11-09T17:20:35.0000000+00:00</time></trkpt><trkpt lat="39.59113668" lon="-0.31883033"><ele>5.4</ele><time>2022-11-09T17:20:36.0000000+00:00</time></trkpt><trkpt lat="39.59114213" lon="-0.3188077"><ele>5.4</ele><time>2022-11-09T17:20:37.0000000+00:00</time></trkpt><trkpt lat="39.59115445" lon="-0.31879043"><ele>5.4</ele><time>2022-11-09T17:20:38.0000000+00:00</time></trkpt><trkpt lat="39.59116861" lon="-0.31878331"><ele>5.2</ele><time>2022-11-09T17:20:39.0000000+00:00</time></trkpt><trkpt lat="39.59118957" lon="-0.31877819"><ele>5.2</ele><time>2022-11-09T17:20:40.0000000+00:00</time></trkpt><trkpt lat="39.59121647" lon="-0.31877459"><ele>5.2</ele><time>2022-11-09T17:20:41.0000000+00:00</time></trkpt><trkpt lat="39.59124958" lon="-0.31876881"><ele>5.2</ele><time>2022-11-09T17:20:42.0000000+00:00</time></trkpt><trkpt lat="39.59128236" lon="-0.31875774"><ele>5.2</ele><time>2022-11-09T17:20:43.0000000+00:00</time></trkpt><trkpt lat="39.59131731" lon="-0.31874567"><ele>5.4</ele><time>2022-11-09T17:20:44.0000000+00:00</time></trkpt><trkpt lat="39.59135335" lon="-0.31873268"><ele>5.4</ele><time>2022-11-09T17:20:45.0000000+00:00</time></trkpt><trkpt lat="39.59139207" lon="-0.3187181"><ele>5.6</ele><time>2022-11-09T17:20:46.0000000+00:00</time></trkpt><trkpt lat="39.59143315" lon="-0.31869882"><ele>5.6</ele><time>2022-11-09T17:20:47.0000000+00:00</time></trkpt><trkpt lat="39.5914795" lon="-0.31867778"><ele>5.6</ele><time>2022-11-09T17:20:48.0000000+00:00</time></trkpt><trkpt lat="39.59152333" lon="-0.3186575"><ele>5.8</ele><time>2022-11-09T17:20:49.0000000+00:00</time></trkpt><trkpt lat="39.59156927" lon="-0.31863838"><ele>5.8</ele><time>2022-11-09T17:20:50.0000000+00:00</time></trkpt><trkpt lat="39.59161755" lon="-0.31862028"><ele>5.8</ele><time>2022-11-09T17:20:51.0000000+00:00</time></trkpt><trkpt lat="39.59166482" lon="-0.31860276"><ele>5.8</ele><time>2022-11-09T17:20:52.0000000+00:00</time></trkpt><trkpt lat="39.59170975" lon="-0.31858197"><ele>5.8</ele><time>2022-11-09T17:20:53.0000000+00:00</time></trkpt><trkpt lat="39.59175367" lon="-0.31855255"><ele>5.8</ele><time>2022-11-09T17:20:54.0000000+00:00</time></trkpt><trkpt lat="39.59180321" lon="-0.31852112"><ele>5.8</ele><time>2022-11-09T17:20:55.0000000+00:00</time></trkpt><trkpt lat="39.59185258" lon="-0.31849145"><ele>5.8</ele><time>2022-11-09T17:20:56.0000000+00:00</time></trkpt><trkpt lat="39.59190396" lon="-0.31846589"><ele>5.8</ele><time>2022-11-09T17:20:57.0000000+00:00</time></trkpt><trkpt lat="39.59195903" lon="-0.31844284"><ele>5.8</ele><time>2022-11-09T17:20:58.0000000+00:00</time></trkpt><trkpt lat="39.59201234" lon="-0.31841643"><ele>5.8</ele><time>2022-11-09T17:20:59.0000000+00:00</time></trkpt><trkpt lat="39.5920638" lon="-0.31839422"><ele>5.8</ele><time>2022-11-09T17:21:00.0000000+00:00</time></trkpt><trkpt lat="39.59211426" lon="-0.31837125"><ele>6.0</ele><time>2022-11-09T17:21:01.0000000+00:00</time></trkpt><trkpt lat="39.5921674" lon="-0.31834737"><ele>6.0</ele><time>2022-11-09T17:21:02.0000000+00:00</time></trkpt><trkpt lat="39.59222138" lon="-0.31832608"><ele>6.0</ele><time>2022-11-09T17:21:03.0000000+00:00</time></trkpt><trkpt lat="39.59227645" lon="-0.31830319"><ele>6.0</ele><time>2022-11-09T17:21:04.0000000+00:00</time></trkpt><trkpt lat="39.5923316" lon="-0.31827746"><ele>6.2</ele><time>2022-11-09T17:21:05.0000000+00:00</time></trkpt><trkpt lat="39.59238659" lon="-0.31825366"><ele>6.2</ele><time>2022-11-09T17:21:06.0000000+00:00</time></trkpt><trkpt lat="39.59244124" lon="-0.31823161"><ele>6.2</ele><time>2022-11-09T17:21:07.0000000+00:00</time></trkpt><trkpt lat="39.59249564" lon="-0.31821292"><ele>6.2</ele><time>2022-11-09T17:21:08.0000000+00:00</time></trkpt><trkpt lat="39.59254878" lon="-0.3181949"><ele>6.2</ele><time>2022-11-09T17:21:09.0000000+00:00</time></trkpt><trkpt lat="39.59260628" lon="-0.31817101"><ele>6.2</ele><time>2022-11-09T17:21:10.0000000+00:00</time></trkpt><trkpt lat="39.59266503" lon="-0.31814729"><ele>6.4</ele><time>2022-11-09T17:21:11.0000000+00:00</time></trkpt><trkpt lat="39.59272337" lon="-0.31812382"><ele>6.4</ele><time>2022-11-09T17:21:12.0000000+00:00</time></trkpt><trkpt lat="39.59277987" lon="-0.3181001"><ele>6.4</ele><time>2022-11-09T17:21:13.0000000+00:00</time></trkpt><trkpt lat="39.59283426" lon="-0.31807412"><ele>6.4</ele><time>2022-11-09T17:21:14.0000000+00:00</time></trkpt><trkpt lat="39.59288682" lon="-0.31804679"><ele>6.4</ele><time>2022-11-09T17:21:15.0000000+00:00</time></trkpt><trkpt lat="39.59294097" lon="-0.31802215"><ele>6.4</ele><time>2022-11-09T17:21:16.0000000+00:00</time></trkpt><trkpt lat="39.5929957" lon="-0.3179996"><ele>6.4</ele><time>2022-11-09T17:21:17.0000000+00:00</time></trkpt><trkpt lat="39.59305236" lon="-0.31797948"><ele>6.4</ele><time>2022-11-09T17:21:18.0000000+00:00</time></trkpt><trkpt lat="39.59310894" lon="-0.31795593"><ele>6.4</ele><time>2022-11-09T17:21:19.0000000+00:00</time></trkpt><trkpt lat="39.59316392" lon="-0.31793162"><ele>6.4</ele><time>2022-11-09T17:21:20.0000000+00:00</time></trkpt><trkpt lat="39.59321849" lon="-0.31790732"><ele>6.4</ele><time>2022-11-09T17:21:21.0000000+00:00</time></trkpt><trkpt lat="39.59327314" lon="-0.31788443"><ele>6.4</ele><time>2022-11-09T17:21:22.0000000+00:00</time></trkpt><trkpt lat="39.59332595" lon="-0.31785987"><ele>6.4</ele><time>2022-11-09T17:21:23.0000000+00:00</time></trkpt><trkpt lat="39.59337909" lon="-0.31783599"><ele>6.4</ele><time>2022-11-09T17:21:24.0000000+00:00</time></trkpt><trkpt lat="39.59343407" lon="-0.31780967"><ele>6.4</ele><time>2022-11-09T17:21:25.0000000+00:00</time></trkpt><trkpt lat="39.59348889" lon="-0.31778368"><ele>6.4</ele><time>2022-11-09T17:21:26.0000000+00:00</time></trkpt><trkpt lat="39.59354421" lon="-0.31775854"><ele>6.6</ele><time>2022-11-09T17:21:27.0000000+00:00</time></trkpt><trkpt lat="39.59359719" lon="-0.31773431"><ele>6.6</ele><time>2022-11-09T17:21:28.0000000+00:00</time></trkpt><trkpt lat="39.5936515" lon="-0.31771302"><ele>6.6</ele><time>2022-11-09T17:21:29.0000000+00:00</time></trkpt><trkpt lat="39.59371026" lon="-0.31769425"><ele>6.6</ele><time>2022-11-09T17:21:30.0000000+00:00</time></trkpt><trkpt lat="39.59376751" lon="-0.31767178"><ele>6.6</ele><time>2022-11-09T17:21:31.0000000+00:00</time></trkpt><trkpt lat="39.59382392" lon="-0.31765075"><ele>6.6</ele><time>2022-11-09T17:21:32.0000000+00:00</time></trkpt><trkpt lat="39.59387815" lon="-0.31762837"><ele>6.8</ele><time>2022-11-09T17:21:33.0000000+00:00</time></trkpt><trkpt lat="39.5939297" lon="-0.31760347"><ele>6.8</ele><time>2022-11-09T17:21:34.0000000+00:00</time></trkpt><trkpt lat="39.59397865" lon="-0.3175805"><ele>6.8</ele><time>2022-11-09T17:21:35.0000000+00:00</time></trkpt><trkpt lat="39.59402667" lon="-0.3175598"><ele>6.8</ele><time>2022-11-09T17:21:36.0000000+00:00</time></trkpt><trkpt lat="39.59407588" lon="-0.31753935"><ele>6.6</ele><time>2022-11-09T17:21:37.0000000+00:00</time></trkpt><trkpt lat="39.59412298" lon="-0.31752225"><ele>6.6</ele><time>2022-11-09T17:21:38.0000000+00:00</time></trkpt><trkpt lat="39.59416648" lon="-0.31750389"><ele>6.4</ele><time>2022-11-09T17:21:39.0000000+00:00</time></trkpt><trkpt lat="39.59420605" lon="-0.3174852"><ele>6.4</ele><time>2022-11-09T17:21:40.0000000+00:00</time></trkpt><trkpt lat="39.59424066" lon="-0.31746944"><ele>6.4</ele><time>2022-11-09T17:21:41.0000000+00:00</time></trkpt><trkpt lat="39.59427268" lon="-0.31745452"><ele>6.4</ele><time>2022-11-09T17:21:42.0000000+00:00</time></trkpt><trkpt lat="39.59430361" lon="-0.31744313"><ele>6.4</ele><time>2022-11-09T17:21:43.0000000+00:00</time></trkpt><trkpt lat="39.59433161" lon="-0.31743667"><ele>6.4</ele><time>2022-11-09T17:21:44.0000000+00:00</time></trkpt><trkpt lat="39.59436069" lon="-0.31743407"><ele>6.4</ele><time>2022-11-09T17:21:45.0000000+00:00</time></trkpt><trkpt lat="39.59439313" lon="-0.31742988"><ele>6.4</ele><time>2022-11-09T17:21:46.0000000+00:00</time></trkpt><trkpt lat="39.5944301" lon="-0.31742175"><ele>6.6</ele><time>2022-11-09T17:21:47.0000000+00:00</time></trkpt><trkpt lat="39.59447058" lon="-0.31740876"><ele>6.6</ele><time>2022-11-09T17:21:48.0000000+00:00</time></trkpt><trkpt lat="39.59451341" lon="-0.31739124"><ele>6.6</ele><time>2022-11-09T17:21:49.0000000+00:00</time></trkpt><trkpt lat="39.59455658" lon="-0.31737263"><ele>6.6</ele><time>2022-11-09T17:21:50.0000000+00:00</time></trkpt><trkpt lat="39.5946" lon="-0.31735478"><ele>6.6</ele><time>2022-11-09T17:21:51.0000000+00:00</time></trkpt><trkpt lat="39.59464191" lon="-0.31733978"><ele>6.6</ele><time>2022-11-09T17:21:52.0000000+00:00</time></trkpt><trkpt lat="39.59468164" lon="-0.31732502"><ele>6.6</ele><time>2022-11-09T17:21:53.0000000+00:00</time></trkpt><trkpt lat="39.59472447" lon="-0.31731228"><ele>6.6</ele><time>2022-11-09T17:21:54.0000000+00:00</time></trkpt><trkpt lat="39.59476571" lon="-0.31729753"><ele>6.4</ele><time>2022-11-09T17:21:55.0000000+00:00</time></trkpt><trkpt lat="39.5948056" lon="-0.31727943"><ele>6.4</ele><time>2022-11-09T17:21:56.0000000+00:00</time></trkpt><trkpt lat="39.59484542" lon="-0.3172625"><ele>6.4</ele><time>2022-11-09T17:21:57.0000000+00:00</time></trkpt><trkpt lat="39.59488414" lon="-0.31724657"><ele>6.4</ele><time>2022-11-09T17:21:58.0000000+00:00</time></trkpt><trkpt lat="39.59492069" lon="-0.31723207"><ele>6.4</ele><time>2022-11-09T17:21:59.0000000+00:00</time></trkpt><trkpt lat="39.59495631" lon="-0.31721908"><ele>6.4</ele><time>2022-11-09T17:22:00.0000000+00:00</time></trkpt><trkpt lat="39.59499101" lon="-0.31720424"><ele>6.4</ele><time>2022-11-09T17:22:01.0000000+00:00</time></trkpt><trkpt lat="39.59502462" lon="-0.31718832"><ele>6.4</ele><time>2022-11-09T17:22:02.0000000+00:00</time></trkpt><trkpt lat="39.59505522" lon="-0.31717499"><ele>6.6</ele><time>2022-11-09T17:22:03.0000000+00:00</time></trkpt><trkpt lat="39.59508346" lon="-0.31716418"><ele>6.6</ele><time>2022-11-09T17:22:04.0000000+00:00</time></trkpt><trkpt lat="39.59511012" lon="-0.31715286"><ele>6.6</ele><time>2022-11-09T17:22:05.0000000+00:00</time></trkpt><trkpt lat="39.59513585" lon="-0.3171418"><ele>6.6</ele><time>2022-11-09T17:22:06.0000000+00:00</time></trkpt><trkpt lat="39.59515899" lon="-0.3171247"><ele>6.6</ele><time>2022-11-09T17:22:07.0000000+00:00</time></trkpt><trkpt lat="39.59518128" lon="-0.3171133"><ele>6.4</ele><time>2022-11-09T17:22:08.0000000+00:00</time></trkpt><trkpt lat="39.5952055" lon="-0.31710492"><ele>6.4</ele><time>2022-11-09T17:22:09.0000000+00:00</time></trkpt><trkpt lat="39.59522973" lon="-0.3170957"><ele>6.4</ele><time>2022-11-09T17:22:10.0000000+00:00</time></trkpt><trkpt lat="39.59525035" lon="-0.31708421"><ele>6.4</ele><time>2022-11-09T17:22:11.0000000+00:00</time></trkpt><trkpt lat="39.59527038" lon="-0.31707441"><ele>6.4</ele><time>2022-11-09T17:22:12.0000000+00:00</time></trkpt><trkpt lat="39.59528932" lon="-0.31706108"><ele>6.4</ele><time>2022-11-09T17:22:13.0000000+00:00</time></trkpt><trkpt lat="39.59531346" lon="-0.31704926"><ele>6.4</ele><time>2022-11-09T17:22:14.0000000+00:00</time></trkpt><trkpt lat="39.59534213" lon="-0.31703828"><ele>6.4</ele><time>2022-11-09T17:22:15.0000000+00:00</time></trkpt><trkpt lat="39.59537172" lon="-0.31702671"><ele>6.4</ele><time>2022-11-09T17:22:16.0000000+00:00</time></trkpt><trkpt lat="39.59540089" lon="-0.31701598"><ele>6.4</ele><time>2022-11-09T17:22:17.0000000+00:00</time></trkpt><trkpt lat="39.59543056" lon="-0.31700685"><ele>6.4</ele><time>2022-11-09T17:22:18.0000000+00:00</time></trkpt><trkpt lat="39.59546115" lon="-0.31699553"><ele>6.4</ele><time>2022-11-09T17:22:19.0000000+00:00</time></trkpt><trkpt lat="39.59548923" lon="-0.31698288"><ele>6.4</ele><time>2022-11-09T17:22:20.0000000+00:00</time></trkpt><trkpt lat="39.59551857" lon="-0.31696921"><ele>6.4</ele><time>2022-11-09T17:22:21.0000000+00:00</time></trkpt><trkpt lat="39.59555277" lon="-0.3169506"><ele>6.4</ele><time>2022-11-09T17:22:22.0000000+00:00</time></trkpt><trkpt lat="39.59558881" lon="-0.31693292"><ele>6.4</ele><time>2022-11-09T17:22:23.0000000+00:00</time></trkpt><trkpt lat="39.59562988" lon="-0.31691557"><ele>6.4</ele><time>2022-11-09T17:22:24.0000000+00:00</time></trkpt><trkpt lat="39.59567657" lon="-0.31689914"><ele>6.4</ele><time>2022-11-09T17:22:25.0000000+00:00</time></trkpt><trkpt lat="39.59572535" lon="-0.31687735"><ele>6.4</ele><time>2022-11-09T17:22:26.0000000+00:00</time></trkpt><trkpt lat="39.5957743" lon="-0.31685891"><ele>6.6</ele><time>2022-11-09T17:22:27.0000000+00:00</time></trkpt><trkpt lat="39.59582367" lon="-0.31684013"><ele>6.6</ele><time>2022-11-09T17:22:28.0000000+00:00</time></trkpt><trkpt lat="39.59587237" lon="-0.3168211"><ele>6.6</ele><time>2022-11-09T17:22:29.0000000+00:00</time></trkpt><trkpt lat="39.59592073" lon="-0.31680124"><ele>6.6</ele><time>2022-11-09T17:22:30.0000000+00:00</time></trkpt><trkpt lat="39.59596918" lon="-0.31677928"><ele>6.8</ele><time>2022-11-09T17:22:31.0000000+00:00</time></trkpt><trkpt lat="39.59601679" lon="-0.3167569"><ele>6.8</ele><time>2022-11-09T17:22:32.0000000+00:00</time></trkpt><trkpt lat="39.59605652" lon="-0.3167398"><ele>6.8</ele><time>2022-11-09T17:22:33.0000000+00:00</time></trkpt><trkpt lat="39.59611821" lon="-0.31671172"><ele>6.8</ele><time>2022-11-09T17:22:34.0000000+00:00</time></trkpt><trkpt lat="39.59616691" lon="-0.3166906"><ele>6.8</ele><time>2022-11-09T17:22:35.0000000+00:00</time></trkpt><trkpt lat="39.59621737" lon="-0.31666881"><ele>6.8</ele><time>2022-11-09T17:22:36.0000000+00:00</time></trkpt><trkpt lat="39.59626917" lon="-0.31664651"><ele>6.8</ele><time>2022-11-09T17:22:37.0000000+00:00</time></trkpt><trkpt lat="39.5963203" lon="-0.31661985"><ele>6.8</ele><time>2022-11-09T17:22:38.0000000+00:00</time></trkpt><trkpt lat="39.59637319" lon="-0.31659337"><ele>7.0</ele><time>2022-11-09T17:22:39.0000000+00:00</time></trkpt><trkpt lat="39.59642407" lon="-0.31657543"><ele>7.0</ele><time>2022-11-09T17:22:40.0000000+00:00</time></trkpt><trkpt lat="39.59647813" lon="-0.31655883"><ele>7.2</ele><time>2022-11-09T17:22:41.0000000+00:00</time></trkpt><trkpt lat="39.59653018" lon="-0.31653939"><ele>7.2</ele><time>2022-11-09T17:22:42.0000000+00:00</time></trkpt><trkpt lat="39.59658441" lon="-0.31652045"><ele>7.4</ele><time>2022-11-09T17:22:43.0000000+00:00</time></trkpt><trkpt lat="39.59663755" lon="-0.31649614"><ele>7.4</ele><time>2022-11-09T17:22:44.0000000+00:00</time></trkpt><trkpt lat="39.59668852" lon="-0.31647225"><ele>7.2</ele><time>2022-11-09T17:22:45.0000000+00:00</time></trkpt><trkpt lat="39.59674182" lon="-0.3164461"><ele>7.2</ele><time>2022-11-09T17:22:46.0000000+00:00</time></trkpt><trkpt lat="39.59679639" lon="-0.31641861"><ele>7.4</ele><time>2022-11-09T17:22:47.0000000+00:00</time></trkpt><trkpt lat="39.59685045" lon="-0.3163943"><ele>7.4</ele><time>2022-11-09T17:22:48.0000000+00:00</time></trkpt><trkpt lat="39.59690879" lon="-0.31637435"><ele>7.4</ele><time>2022-11-09T17:22:49.0000000+00:00</time></trkpt><trkpt lat="39.59696998" lon="-0.31635549"><ele>7.2</ele><time>2022-11-09T17:22:50.0000000+00:00</time></trkpt><trkpt lat="39.59702865" lon="-0.31633169"><ele>7.2</ele><time>2022-11-09T17:22:51.0000000+00:00</time></trkpt><trkpt lat="39.5970849" lon="-0.31630587"><ele>7.2</ele><time>2022-11-09T17:22:52.0000000+00:00</time></trkpt><trkpt lat="39.59714055" lon="-0.31628005"><ele>7.2</ele><time>2022-11-09T17:22:53.0000000+00:00</time></trkpt><trkpt lat="39.59719805" lon="-0.31625541"><ele>7.2</ele><time>2022-11-09T17:22:54.0000000+00:00</time></trkpt><trkpt lat="39.59725589" lon="-0.31622725"><ele>7.2</ele><time>2022-11-09T17:22:55.0000000+00:00</time></trkpt><trkpt lat="39.59731406" lon="-0.31620252"><ele>7.2</ele><time>2022-11-09T17:22:56.0000000+00:00</time></trkpt><trkpt lat="39.59737248" lon="-0.31617637"><ele>7.2</ele><time>2022-11-09T17:22:57.0000000+00:00</time></trkpt><trkpt lat="39.59741841" lon="-0.31615743"><ele>7.2</ele><time>2022-11-09T17:22:58.0000000+00:00</time></trkpt><trkpt lat="39.59748664" lon="-0.3161301"><ele>7.4</ele><time>2022-11-09T17:22:59.0000000+00:00</time></trkpt><trkpt lat="39.59753995" lon="-0.3161078"><ele>7.4</ele><time>2022-11-09T17:23:00.0000000+00:00</time></trkpt><trkpt lat="39.59759368" lon="-0.31608643"><ele>7.6</ele><time>2022-11-09T17:23:01.0000000+00:00</time></trkpt><trkpt lat="39.59765059" lon="-0.31606405"><ele>7.8</ele><time>2022-11-09T17:23:02.0000000+00:00</time></trkpt><trkpt lat="39.59770549" lon="-0.31603865"><ele>7.8</ele><time>2022-11-09T17:23:03.0000000+00:00</time></trkpt><trkpt lat="39.59776182" lon="-0.31601158"><ele>8.0</ele><time>2022-11-09T17:23:04.0000000+00:00</time></trkpt><trkpt lat="39.59781881" lon="-0.31598643"><ele>8.0</ele><time>2022-11-09T17:23:05.0000000+00:00</time></trkpt><trkpt lat="39.59787447" lon="-0.31596028"><ele>8.0</ele><time>2022-11-09T17:23:06.0000000+00:00</time></trkpt><trkpt lat="39.59793013" lon="-0.31593346"><ele>8.0</ele><time>2022-11-09T17:23:07.0000000+00:00</time></trkpt><trkpt lat="39.59798696" lon="-0.31590764"><ele>8.0</ele><time>2022-11-09T17:23:08.0000000+00:00</time></trkpt><trkpt lat="39.59804647" lon="-0.31587982"><ele>8.0</ele><time>2022-11-09T17:23:09.0000000+00:00</time></trkpt><trkpt lat="39.59810254" lon="-0.31585006"><ele>8.0</ele><time>2022-11-09T17:23:10.0000000+00:00</time></trkpt><trkpt lat="39.5981587" lon="-0.31582198"><ele>8.0</ele><time>2022-11-09T17:23:11.0000000+00:00</time></trkpt><trkpt lat="39.59821721" lon="-0.31579893"><ele>8.0</ele><time>2022-11-09T17:23:12.0000000+00:00</time></trkpt><trkpt lat="39.59827814" lon="-0.31577756"><ele>8.0</ele><time>2022-11-09T17:23:13.0000000+00:00</time></trkpt><trkpt lat="39.59833472" lon="-0.31575962"><ele>8.0</ele><time>2022-11-09T17:23:14.0000000+00:00</time></trkpt><trkpt lat="39.59838635" lon="-0.31574202"><ele>7.8</ele><time>2022-11-09T17:23:15.0000000+00:00</time></trkpt><trkpt lat="39.59843237" lon="-0.31572458"><ele>7.8</ele><time>2022-11-09T17:23:16.0000000+00:00</time></trkpt><trkpt lat="39.59847411" lon="-0.3157048"><ele>7.6</ele><time>2022-11-09T17:23:17.0000000+00:00</time></trkpt><trkpt lat="39.59851334" lon="-0.31568552"><ele>7.6</ele><time>2022-11-09T17:23:18.0000000+00:00</time></trkpt><trkpt lat="39.59855483" lon="-0.31567345"><ele>7.6</ele><time>2022-11-09T17:23:19.0000000+00:00</time></trkpt><trkpt lat="39.59859934" lon="-0.31565996"><ele>7.4</ele><time>2022-11-09T17:23:20.0000000+00:00</time></trkpt><trkpt lat="39.59864016" lon="-0.31564814"><ele>7.6</ele><time>2022-11-09T17:23:21.0000000+00:00</time></trkpt><trkpt lat="39.5986819" lon="-0.31563356"><ele>7.6</ele><time>2022-11-09T17:23:22.0000000+00:00</time></trkpt><trkpt lat="39.59872507" lon="-0.31561637"><ele>7.6</ele><time>2022-11-09T17:23:23.0000000+00:00</time></trkpt><trkpt lat="39.59876689" lon="-0.31559609"><ele>7.6</ele><time>2022-11-09T17:23:24.0000000+00:00</time></trkpt><trkpt lat="39.59880897" lon="-0.31557673"><ele>7.6</ele><time>2022-11-09T17:23:25.0000000+00:00</time></trkpt><trkpt lat="39.5988544" lon="-0.31555963"><ele>7.6</ele><time>2022-11-09T17:23:26.0000000+00:00</time></trkpt><trkpt lat="39.59890276" lon="-0.31554555"><ele>7.8</ele><time>2022-11-09T17:23:27.0000000+00:00</time></trkpt><trkpt lat="39.5989518" lon="-0.31552853"><ele>7.8</ele><time>2022-11-09T17:23:28.0000000+00:00</time></trkpt><trkpt lat="39.59900159" lon="-0.31550783"><ele>7.8</ele><time>2022-11-09T17:23:29.0000000+00:00</time></trkpt><trkpt lat="39.59905322" lon="-0.31548738"><ele>7.8</ele><time>2022-11-09T17:23:30.0000000+00:00</time></trkpt><trkpt lat="39.59910493" lon="-0.31546625"><ele>7.8</ele><time>2022-11-09T17:23:31.0000000+00:00</time></trkpt><trkpt lat="39.59915573" lon="-0.31544832"><ele>8.0</ele><time>2022-11-09T17:23:32.0000000+00:00</time></trkpt><trkpt lat="39.59920577" lon="-0.31542778"><ele>8.0</ele><time>2022-11-09T17:23:33.0000000+00:00</time></trkpt><trkpt lat="39.59925824" lon="-0.31540959"><ele>8.0</ele><time>2022-11-09T17:23:34.0000000+00:00</time></trkpt><trkpt lat="39.59931046" lon="-0.31538906"><ele>8.0</ele><time>2022-11-09T17:23:35.0000000+00:00</time></trkpt><trkpt lat="39.59936025" lon="-0.31536877"><ele>8.0</ele><time>2022-11-09T17:23:36.0000000+00:00</time></trkpt><trkpt lat="39.5994092" lon="-0.31534606"><ele>8.2</ele><time>2022-11-09T17:23:37.0000000+00:00</time></trkpt><trkpt lat="39.59946142" lon="-0.3153251"><ele>8.2</ele><time>2022-11-09T17:23:38.0000000+00:00</time></trkpt><trkpt lat="39.59951204" lon="-0.3153013"><ele>8.4</ele><time>2022-11-09T17:23:39.0000000+00:00</time></trkpt><trkpt lat="39.59956267" lon="-0.31527984"><ele>8.4</ele><time>2022-11-09T17:23:40.0000000+00:00</time></trkpt><trkpt lat="39.59961405" lon="-0.31525394"><ele>8.4</ele><time>2022-11-09T17:23:41.0000000+00:00</time></trkpt><trkpt lat="39.59966552" lon="-0.31523156"><ele>8.6</ele><time>2022-11-09T17:23:42.0000000+00:00</time></trkpt><trkpt lat="39.59971983" lon="-0.31520901"><ele>8.4</ele><time>2022-11-09T17:23:43.0000000+00:00</time></trkpt><trkpt lat="39.59977498" lon="-0.31518663"><ele>8.4</ele><time>2022-11-09T17:23:44.0000000+00:00</time></trkpt><trkpt lat="39.5998303" lon="-0.31516618"><ele>8.4</ele><time>2022-11-09T17:23:45.0000000+00:00</time></trkpt><trkpt lat="39.59988462" lon="-0.3151443"><ele>8.4</ele><time>2022-11-09T17:23:46.0000000+00:00</time></trkpt><trkpt lat="39.59994011" lon="-0.31512176"><ele>8.4</ele><time>2022-11-09T17:23:47.0000000+00:00</time></trkpt><trkpt lat="39.59999501" lon="-0.31509862"><ele>8.4</ele><time>2022-11-09T17:23:48.0000000+00:00</time></trkpt><trkpt lat="39.60004966" lon="-0.31507591"><ele>8.4</ele><time>2022-11-09T17:23:49.0000000+00:00</time></trkpt><trkpt lat="39.60010456" lon="-0.31505344"><ele>8.4</ele><time>2022-11-09T17:23:50.0000000+00:00</time></trkpt><trkpt lat="39.60015737" lon="-0.31502964"><ele>8.4</ele><time>2022-11-09T17:23:51.0000000+00:00</time></trkpt><trkpt lat="39.60021109" lon="-0.31500357"><ele>8.4</ele><time>2022-11-09T17:23:52.0000000+00:00</time></trkpt><trkpt lat="39.60026516" lon="-0.31497784"><ele>8.6</ele><time>2022-11-09T17:23:53.0000000+00:00</time></trkpt><trkpt lat="39.60032224" lon="-0.31494817"><ele>8.6</ele><time>2022-11-09T17:23:54.0000000+00:00</time></trkpt><trkpt lat="39.60037747" lon="-0.31491573"><ele>8.8</ele><time>2022-11-09T17:23:55.0000000+00:00</time></trkpt><trkpt lat="39.60042953" lon="-0.31488623"><ele>8.8</ele><time>2022-11-09T17:23:56.0000000+00:00</time></trkpt><trkpt lat="39.60048292" lon="-0.31485957"><ele>8.8</ele><time>2022-11-09T17:23:57.0000000+00:00</time></trkpt><trkpt lat="39.60053992" lon="-0.31483451"><ele>9.0</ele><time>2022-11-09T17:23:58.0000000+00:00</time></trkpt><trkpt lat="39.60059515" lon="-0.31480978"><ele>9.0</ele><time>2022-11-09T17:23:59.0000000+00:00</time></trkpt><trkpt lat="39.60065483" lon="-0.31478983"><ele>9.0</ele><time>2022-11-09T17:24:00.0000000+00:00</time></trkpt><trkpt lat="39.60071216" lon="-0.31476695"><ele>9.0</ele><time>2022-11-09T17:24:01.0000000+00:00</time></trkpt><trkpt lat="39.60076815" lon="-0.31474457"><ele>9.0</ele><time>2022-11-09T17:24:02.0000000+00:00</time></trkpt><trkpt lat="39.60082373" lon="-0.31471926"><ele>9.0</ele><time>2022-11-09T17:24:03.0000000+00:00</time></trkpt><trkpt lat="39.60088349" lon="-0.31469453"><ele>9.0</ele><time>2022-11-09T17:24:04.0000000+00:00</time></trkpt><trkpt lat="39.60093244" lon="-0.31467727"><ele>9.2</ele><time>2022-11-09T17:24:05.0000000+00:00</time></trkpt><trkpt lat="39.60100126" lon="-0.31464843"><ele>9.2</ele><time>2022-11-09T17:24:06.0000000+00:00</time></trkpt><trkpt lat="39.60105901" lon="-0.31461943"><ele>9.2</ele><time>2022-11-09T17:24:07.0000000+00:00</time></trkpt><trkpt lat="39.60111936" lon="-0.31459127"><ele>9.4</ele><time>2022-11-09T17:24:08.0000000+00:00</time></trkpt><trkpt lat="39.60117761" lon="-0.31456763"><ele>9.4</ele><time>2022-11-09T17:24:09.0000000+00:00</time></trkpt><trkpt lat="39.60123645" lon="-0.31454315"><ele>9.4</ele><time>2022-11-09T17:24:10.0000000+00:00</time></trkpt><trkpt lat="39.60129269" lon="-0.31451717"><ele>9.4</ele><time>2022-11-09T17:24:11.0000000+00:00</time></trkpt><trkpt lat="39.60135095" lon="-0.31449169"><ele>9.4</ele><time>2022-11-09T17:24:12.0000000+00:00</time></trkpt><trkpt lat="39.6014082" lon="-0.31446604"><ele>9.6</ele><time>2022-11-09T17:24:13.0000000+00:00</time></trkpt><trkpt lat="39.60146251" lon="-0.3144409"><ele>9.6</ele><time>2022-11-09T17:24:14.0000000+00:00</time></trkpt><trkpt lat="39.60151582" lon="-0.31441852"><ele>9.8</ele><time>2022-11-09T17:24:15.0000000+00:00</time></trkpt><trkpt lat="39.60156796" lon="-0.31439848"><ele>9.8</ele><time>2022-11-09T17:24:16.0000000+00:00</time></trkpt><trkpt lat="39.60161984" lon="-0.31437325"><ele>9.8</ele><time>2022-11-09T17:24:17.0000000+00:00</time></trkpt><trkpt lat="39.60167181" lon="-0.31434836"><ele>9.8</ele><time>2022-11-09T17:24:18.0000000+00:00</time></trkpt><trkpt lat="39.60172696" lon="-0.31432346"><ele>9.8</ele><time>2022-11-09T17:24:19.0000000+00:00</time></trkpt><trkpt lat="39.60178136" lon="-0.31429882"><ele>9.6</ele><time>2022-11-09T17:24:20.0000000+00:00</time></trkpt><trkpt lat="39.60183618" lon="-0.31427451"><ele>9.6</ele><time>2022-11-09T17:24:21.0000000+00:00</time></trkpt><trkpt lat="39.60189301" lon="-0.31425096"><ele>9.6</ele><time>2022-11-09T17:24:22.0000000+00:00</time></trkpt><trkpt lat="39.60195151" lon="-0.31422808"><ele>9.6</ele><time>2022-11-09T17:24:23.0000000+00:00</time></trkpt><trkpt lat="39.60201019" lon="-0.31420612"><ele>9.6</ele><time>2022-11-09T17:24:24.0000000+00:00</time></trkpt><trkpt lat="39.60205872" lon="-0.31418935"><ele>9.6</ele><time>2022-11-09T17:24:25.0000000+00:00</time></trkpt><trkpt lat="39.60212837" lon="-0.31416136"><ele>9.6</ele><time>2022-11-09T17:24:26.0000000+00:00</time></trkpt><trkpt lat="39.60218403" lon="-0.31413714"><ele>9.6</ele><time>2022-11-09T17:24:27.0000000+00:00</time></trkpt><trkpt lat="39.60224027" lon="-0.31411291"><ele>9.8</ele><time>2022-11-09T17:24:28.0000000+00:00</time></trkpt><trkpt lat="39.60229718" lon="-0.31409045"><ele>9.8</ele><time>2022-11-09T17:24:29.0000000+00:00</time></trkpt><trkpt lat="39.60235284" lon="-0.3140653"><ele>9.8</ele><time>2022-11-09T17:24:30.0000000+00:00</time></trkpt><trkpt lat="39.60241034" lon="-0.31404292"><ele>9.8</ele><time>2022-11-09T17:24:31.0000000+00:00</time></trkpt><trkpt lat="39.60246926" lon="-0.31401996"><ele>10.0</ele><time>2022-11-09T17:24:32.0000000+00:00</time></trkpt><trkpt lat="39.60252903" lon="-0.31399674"><ele>10.0</ele><time>2022-11-09T17:24:33.0000000+00:00</time></trkpt><trkpt lat="39.60258845" lon="-0.31397402"><ele>10.0</ele><time>2022-11-09T17:24:34.0000000+00:00</time></trkpt><trkpt lat="39.6026488" lon="-0.31394477"><ele>10.0</ele><time>2022-11-09T17:24:35.0000000+00:00</time></trkpt><trkpt lat="39.60270907" lon="-0.3139161"><ele>10.0</ele><time>2022-11-09T17:24:36.0000000+00:00</time></trkpt><trkpt lat="39.60276883" lon="-0.31389121"><ele>10.0</ele><time>2022-11-09T17:24:37.0000000+00:00</time></trkpt><trkpt lat="39.60282709" lon="-0.31386858"><ele>10.0</ele><time>2022-11-09T17:24:38.0000000+00:00</time></trkpt><trkpt lat="39.60287419" lon="-0.31385265"><ele>9.8</ele><time>2022-11-09T17:24:39.0000000+00:00</time></trkpt><trkpt lat="39.60294083" lon="-0.31382717"><ele>9.8</ele><time>2022-11-09T17:24:40.0000000+00:00</time></trkpt><trkpt lat="39.60299506" lon="-0.31380697"><ele>9.8</ele><time>2022-11-09T17:24:41.0000000+00:00</time></trkpt><trkpt lat="39.60304594" lon="-0.31378736"><ele>9.8</ele><time>2022-11-09T17:24:42.0000000+00:00</time></trkpt><trkpt lat="39.6030948" lon="-0.31376749"><ele>9.8</ele><time>2022-11-09T17:24:43.0000000+00:00</time></trkpt><trkpt lat="39.60314166" lon="-0.31374981"><ele>9.8</ele><time>2022-11-09T17:24:44.0000000+00:00</time></trkpt><trkpt lat="39.60318608" lon="-0.31373145"><ele>9.8</ele><time>2022-11-09T17:24:45.0000000+00:00</time></trkpt><trkpt lat="39.60322724" lon="-0.31371217"><ele>9.8</ele><time>2022-11-09T17:24:46.0000000+00:00</time></trkpt><trkpt lat="39.60326864" lon="-0.31369491"><ele>9.8</ele><time>2022-11-09T17:24:47.0000000+00:00</time></trkpt><trkpt lat="39.60331148" lon="-0.31368082"><ele>10.0</ele><time>2022-11-09T17:24:48.0000000+00:00</time></trkpt><trkpt lat="39.60335313" lon="-0.31366649"><ele>10.0</ele><time>2022-11-09T17:24:49.0000000+00:00</time></trkpt><trkpt lat="39.6033984" lon="-0.31364604"><ele>10.0</ele><time>2022-11-09T17:24:50.0000000+00:00</time></trkpt><trkpt lat="39.60344466" lon="-0.31362307"><ele>10.0</ele><time>2022-11-09T17:24:51.0000000+00:00</time></trkpt><trkpt lat="39.60349085" lon="-0.31360044"><ele>10.0</ele><time>2022-11-09T17:24:52.0000000+00:00</time></trkpt><trkpt lat="39.60354089" lon="-0.31357806"><ele>10.0</ele><time>2022-11-09T17:24:53.0000000+00:00</time></trkpt><trkpt lat="39.60359294" lon="-0.31355627"><ele>10.0</ele><time>2022-11-09T17:24:54.0000000+00:00</time></trkpt><trkpt lat="39.60364533" lon="-0.31353506"><ele>10.0</ele><time>2022-11-09T17:24:55.0000000+00:00</time></trkpt><trkpt lat="39.60369964" lon="-0.31351587"><ele>10.0</ele><time>2022-11-09T17:24:56.0000000+00:00</time></trkpt><trkpt lat="39.60375228" lon="-0.31349667"><ele>10.0</ele><time>2022-11-09T17:24:57.0000000+00:00</time></trkpt><trkpt lat="39.60380735" lon="-0.31347622"><ele>10.0</ele><time>2022-11-09T17:24:58.0000000+00:00</time></trkpt><trkpt lat="39.60386359" lon="-0.31345426"><ele>10.2</ele><time>2022-11-09T17:24:59.0000000+00:00</time></trkpt><trkpt lat="39.60391749" lon="-0.31343171"><ele>10.2</ele><time>2022-11-09T17:25:00.0000000+00:00</time></trkpt><trkpt lat="39.60397063" lon="-0.31340975"><ele>10.2</ele><time>2022-11-09T17:25:01.0000000+00:00</time></trkpt><trkpt lat="39.60402427" lon="-0.31338763"><ele>10.2</ele><time>2022-11-09T17:25:02.0000000+00:00</time></trkpt><trkpt lat="39.60407808" lon="-0.31336583"><ele>10.2</ele><time>2022-11-09T17:25:03.0000000+00:00</time></trkpt><trkpt lat="39.6041324" lon="-0.31334178"><ele>10.2</ele><time>2022-11-09T17:25:04.0000000+00:00</time></trkpt><trkpt lat="39.6041873" lon="-0.31331873"><ele>10.2</ele><time>2022-11-09T17:25:05.0000000+00:00</time></trkpt><trkpt lat="39.6042422" lon="-0.31329224"><ele>10.2</ele><time>2022-11-09T17:25:06.0000000+00:00</time></trkpt><trkpt lat="39.60429836" lon="-0.31327011"><ele>10.2</ele><time>2022-11-09T17:25:07.0000000+00:00</time></trkpt><trkpt lat="39.60434086" lon="-0.3132386"><ele>10.2</ele><time>2022-11-09T17:25:08.0000000+00:00</time></trkpt><trkpt lat="39.60439165" lon="-0.31320976"><ele>10.2</ele><time>2022-11-09T17:25:09.0000000+00:00</time></trkpt><trkpt lat="39.60444362" lon="-0.31318403"><ele>10.2</ele><time>2022-11-09T17:25:10.0000000+00:00</time></trkpt><trkpt lat="39.60449475" lon="-0.31316249"><ele>10.0</ele><time>2022-11-09T17:25:11.0000000+00:00</time></trkpt><trkpt lat="39.60454429" lon="-0.31314195"><ele>10.0</ele><time>2022-11-09T17:25:12.0000000+00:00</time></trkpt><trkpt lat="39.604595" lon="-0.31312485"><ele>9.8</ele><time>2022-11-09T17:25:13.0000000+00:00</time></trkpt><trkpt lat="39.60464805" lon="-0.31311077"><ele>9.8</ele><time>2022-11-09T17:25:14.0000000+00:00</time></trkpt><trkpt lat="39.6046965" lon="-0.31309233"><ele>9.8</ele><time>2022-11-09T17:25:15.0000000+00:00</time></trkpt><trkpt lat="39.60474336" lon="-0.31307171"><ele>10.0</ele><time>2022-11-09T17:25:16.0000000+00:00</time></trkpt><trkpt lat="39.60479306" lon="-0.31304606"><ele>10.0</ele><time>2022-11-09T17:25:17.0000000+00:00</time></trkpt><trkpt lat="39.60484235" lon="-0.31302226"><ele>10.0</ele><time>2022-11-09T17:25:18.0000000+00:00</time></trkpt><trkpt lat="39.6048897" lon="-0.31300114"><ele>10.2</ele><time>2022-11-09T17:25:19.0000000+00:00</time></trkpt><trkpt lat="39.60494" lon="-0.31298102"><ele>10.2</ele><time>2022-11-09T17:25:20.0000000+00:00</time></trkpt><trkpt lat="39.60499138" lon="-0.31296174"><ele>10.2</ele><time>2022-11-09T17:25:21.0000000+00:00</time></trkpt><trkpt lat="39.60504192" lon="-0.31294095"><ele>10.4</ele><time>2022-11-09T17:25:22.0000000+00:00</time></trkpt><trkpt lat="39.60509573" lon="-0.31291849"><ele>10.4</ele><time>2022-11-09T17:25:23.0000000+00:00</time></trkpt><trkpt lat="39.60515063" lon="-0.31289678"><ele>10.4</ele><time>2022-11-09T17:25:24.0000000+00:00</time></trkpt><trkpt lat="39.60520486" lon="-0.31287524"><ele>10.6</ele><time>2022-11-09T17:25:25.0000000+00:00</time></trkpt><trkpt lat="39.60525725" lon="-0.31285269"><ele>10.6</ele><time>2022-11-09T17:25:26.0000000+00:00</time></trkpt><trkpt lat="39.60530972" lon="-0.31282771"><ele>10.6</ele><time>2022-11-09T17:25:27.0000000+00:00</time></trkpt><trkpt lat="39.60536194" lon="-0.31280106"><ele>10.6</ele><time>2022-11-09T17:25:28.0000000+00:00</time></trkpt><trkpt lat="39.60541978" lon="-0.31277424"><ele>10.6</ele><time>2022-11-09T17:25:29.0000000+00:00</time></trkpt><trkpt lat="39.60547652" lon="-0.31274708"><ele>10.6</ele><time>2022-11-09T17:25:30.0000000+00:00</time></trkpt><trkpt lat="39.60553318" lon="-0.31272462"><ele>10.8</ele><time>2022-11-09T17:25:31.0000000+00:00</time></trkpt><trkpt lat="39.60559026" lon="-0.31270375"><ele>10.8</ele><time>2022-11-09T17:25:32.0000000+00:00</time></trkpt><trkpt lat="39.60564332" lon="-0.31268036"><ele>11.0</ele><time>2022-11-09T17:25:33.0000000+00:00</time></trkpt><trkpt lat="39.60569738" lon="-0.31265723"><ele>11.0</ele><time>2022-11-09T17:25:34.0000000+00:00</time></trkpt><trkpt lat="39.60575011" lon="-0.31263636"><ele>11.0</ele><time>2022-11-09T17:25:35.0000000+00:00</time></trkpt><trkpt lat="39.60580451" lon="-0.31261649"><ele>10.6</ele><time>2022-11-09T17:25:36.0000000+00:00</time></trkpt><trkpt lat="39.60585706" lon="-0.31259813"><ele>10.4</ele><time>2022-11-09T17:25:37.0000000+00:00</time></trkpt><trkpt lat="39.60590777" lon="-0.31258011"><ele>10.4</ele><time>2022-11-09T17:25:38.0000000+00:00</time></trkpt><trkpt lat="39.60596242" lon="-0.3125574"><ele>10.2</ele><time>2022-11-09T17:25:39.0000000+00:00</time></trkpt><trkpt lat="39.60601782" lon="-0.31253594"><ele>10.2</ele><time>2022-11-09T17:25:40.0000000+00:00</time></trkpt><trkpt lat="39.60606912" lon="-0.31251457"><ele>10.2</ele><time>2022-11-09T17:25:41.0000000+00:00</time></trkpt><trkpt lat="39.60612042" lon="-0.3124916"><ele>10.2</ele><time>2022-11-09T17:25:42.0000000+00:00</time></trkpt><trkpt lat="39.60617079" lon="-0.31246821"><ele>10.4</ele><time>2022-11-09T17:25:43.0000000+00:00</time></trkpt><trkpt lat="39.60622335" lon="-0.31244424"><ele>10.4</ele><time>2022-11-09T17:25:44.0000000+00:00</time></trkpt><trkpt lat="39.60627934" lon="-0.31241851"><ele>10.4</ele><time>2022-11-09T17:25:45.0000000+00:00</time></trkpt><trkpt lat="39.60633801" lon="-0.31239647"><ele>10.6</ele><time>2022-11-09T17:25:46.0000000+00:00</time></trkpt><trkpt lat="39.60639082" lon="-0.31237568"><ele>10.6</ele><time>2022-11-09T17:25:47.0000000+00:00</time></trkpt><trkpt lat="39.60644664" lon="-0.31235782"><ele>10.6</ele><time>2022-11-09T17:25:48.0000000+00:00</time></trkpt><trkpt lat="39.60650574" lon="-0.3123393"><ele>10.4</ele><time>2022-11-09T17:25:49.0000000+00:00</time></trkpt><trkpt lat="39.6065598" lon="-0.31231969"><ele>10.4</ele><time>2022-11-09T17:25:50.0000000+00:00</time></trkpt><trkpt lat="39.60661126" lon="-0.31230041"><ele>10.4</ele><time>2022-11-09T17:25:51.0000000+00:00</time></trkpt><trkpt lat="39.60665938" lon="-0.3122782"><ele>10.4</ele><time>2022-11-09T17:25:52.0000000+00:00</time></trkpt><trkpt lat="39.60670338" lon="-0.31225313"><ele>10.4</ele><time>2022-11-09T17:25:53.0000000+00:00</time></trkpt><trkpt lat="39.60675267" lon="-0.31223377"><ele>10.2</ele><time>2022-11-09T17:25:54.0000000+00:00</time></trkpt><trkpt lat="39.60680245" lon="-0.3122191"><ele>10.2</ele><time>2022-11-09T17:25:55.0000000+00:00</time></trkpt><trkpt lat="39.60685141" lon="-0.31220544"><ele>10.2</ele><time>2022-11-09T17:25:56.0000000+00:00</time></trkpt><trkpt lat="39.60689667" lon="-0.31218994"><ele>10.0</ele><time>2022-11-09T17:25:57.0000000+00:00</time></trkpt><trkpt lat="39.60694118" lon="-0.31217175"><ele>10.0</ele><time>2022-11-09T17:25:58.0000000+00:00</time></trkpt><trkpt lat="39.60698644" lon="-0.3121549"><ele>10.0</ele><time>2022-11-09T17:25:59.0000000+00:00</time></trkpt><trkpt lat="39.6070312" lon="-0.31213654"><ele>10.0</ele><time>2022-11-09T17:26:00.0000000+00:00</time></trkpt><trkpt lat="39.60707596" lon="-0.31211617"><ele>10.2</ele><time>2022-11-09T17:26:01.0000000+00:00</time></trkpt><trkpt lat="39.60711837" lon="-0.31209195"><ele>10.2</ele><time>2022-11-09T17:26:02.0000000+00:00</time></trkpt><trkpt lat="39.60716514" lon="-0.31207125"><ele>10.2</ele><time>2022-11-09T17:26:03.0000000+00:00</time></trkpt><trkpt lat="39.60721426" lon="-0.31205214"><ele>10.2</ele><time>2022-11-09T17:26:04.0000000+00:00</time></trkpt><trkpt lat="39.60726656" lon="-0.31203294"><ele>10.0</ele><time>2022-11-09T17:26:05.0000000+00:00</time></trkpt><trkpt lat="39.60732096" lon="-0.31201333"><ele>10.0</ele><time>2022-11-09T17:26:06.0000000+00:00</time></trkpt><trkpt lat="39.60737553" lon="-0.31199371"><ele>10.0</ele><time>2022-11-09T17:26:07.0000000+00:00</time></trkpt><trkpt lat="39.60743336" lon="-0.31197242"><ele>10.0</ele><time>2022-11-09T17:26:08.0000000+00:00</time></trkpt><trkpt lat="39.6074896" lon="-0.31195189"><ele>10.0</ele><time>2022-11-09T17:26:09.0000000+00:00</time></trkpt><trkpt lat="39.60754694" lon="-0.31193093"><ele>10.0</ele><time>2022-11-09T17:26:10.0000000+00:00</time></trkpt><trkpt lat="39.60760159" lon="-0.31190705"><ele>10.0</ele><time>2022-11-09T17:26:11.0000000+00:00</time></trkpt><trkpt lat="39.60765632" lon="-0.31188056"><ele>10.0</ele><time>2022-11-09T17:26:12.0000000+00:00</time></trkpt><trkpt lat="39.60771306" lon="-0.31185701"><ele>10.0</ele><time>2022-11-09T17:26:13.0000000+00:00</time></trkpt><trkpt lat="39.60777023" lon="-0.31183102"><ele>10.0</ele><time>2022-11-09T17:26:14.0000000+00:00</time></trkpt><trkpt lat="39.60782622" lon="-0.31180864"><ele>9.8</ele><time>2022-11-09T17:26:15.0000000+00:00</time></trkpt><trkpt lat="39.60788087" lon="-0.31178635"><ele>9.6</ele><time>2022-11-09T17:26:16.0000000+00:00</time></trkpt><trkpt lat="39.60793519" lon="-0.31176497"><ele>9.8</ele><time>2022-11-09T17:26:17.0000000+00:00</time></trkpt><trkpt lat="39.60798766" lon="-0.31174142"><ele>9.6</ele><time>2022-11-09T17:26:18.0000000+00:00</time></trkpt><trkpt lat="39.60803661" lon="-0.31171904"><ele>9.6</ele><time>2022-11-09T17:26:19.0000000+00:00</time></trkpt><trkpt lat="39.60807583" lon="-0.31170513"><ele>9.6</ele><time>2022-11-09T17:26:20.0000000+00:00</time></trkpt><trkpt lat="39.60812663" lon="-0.31169054"><ele>9.6</ele><time>2022-11-09T17:26:21.0000000+00:00</time></trkpt><trkpt lat="39.60818673" lon="-0.3116659"><ele>9.6</ele><time>2022-11-09T17:26:22.0000000+00:00</time></trkpt><trkpt lat="39.60823283" lon="-0.3116462"><ele>9.6</ele><time>2022-11-09T17:26:23.0000000+00:00</time></trkpt><trkpt lat="39.60827474" lon="-0.3116265"><ele>9.6</ele><time>2022-11-09T17:26:24.0000000+00:00</time></trkpt><trkpt lat="39.60831028" lon="-0.31160723"><ele>9.6</ele><time>2022-11-09T17:26:25.0000000+00:00</time></trkpt><trkpt lat="39.60834917" lon="-0.31158635"><ele>9.6</ele><time>2022-11-09T17:26:26.0000000+00:00</time></trkpt><trkpt lat="39.60839326" lon="-0.31156037"><ele>9.6</ele><time>2022-11-09T17:26:27.0000000+00:00</time></trkpt><trkpt lat="39.60844321" lon="-0.31153699"><ele>9.4</ele><time>2022-11-09T17:26:28.0000000+00:00</time></trkpt><trkpt lat="39.60849602" lon="-0.3115162"><ele>9.4</ele><time>2022-11-09T17:26:29.0000000+00:00</time></trkpt><trkpt lat="39.60854991" lon="-0.31148979"><ele>9.4</ele><time>2022-11-09T17:26:30.0000000+00:00</time></trkpt><trkpt lat="39.60860331" lon="-0.31146389"><ele>9.4</ele><time>2022-11-09T17:26:31.0000000+00:00</time></trkpt><trkpt lat="39.60865745" lon="-0.31144537"><ele>9.2</ele><time>2022-11-09T17:26:32.0000000+00:00</time></trkpt><trkpt lat="39.60871219" lon="-0.31142769"><ele>9.2</ele><time>2022-11-09T17:26:33.0000000+00:00</time></trkpt><trkpt lat="39.60876307" lon="-0.31140874"><ele>9.2</ele><time>2022-11-09T17:26:34.0000000+00:00</time></trkpt><trkpt lat="39.60881227" lon="-0.31138997"><ele>9.0</ele><time>2022-11-09T17:26:35.0000000+00:00</time></trkpt><trkpt lat="39.60886197" lon="-0.31137119"><ele>9.0</ele><time>2022-11-09T17:26:36.0000000+00:00</time></trkpt><trkpt lat="39.60890883" lon="-0.31134957"><ele>9.0</ele><time>2022-11-09T17:26:37.0000000+00:00</time></trkpt><trkpt lat="39.60895426" lon="-0.31132945"><ele>9.0</ele><time>2022-11-09T17:26:38.0000000+00:00</time></trkpt><trkpt lat="39.60899793" lon="-0.31130875"><ele>9.0</ele><time>2022-11-09T17:26:39.0000000+00:00</time></trkpt><trkpt lat="39.60904311" lon="-0.31128737"><ele>9.0</ele><time>2022-11-09T17:26:40.0000000+00:00</time></trkpt><trkpt lat="39.60909122" lon="-0.31126566"><ele>9.0</ele><time>2022-11-09T17:26:41.0000000+00:00</time></trkpt><trkpt lat="39.60913925" lon="-0.31124672"><ele>9.0</ele><time>2022-11-09T17:26:42.0000000+00:00</time></trkpt><trkpt lat="39.6091892" lon="-0.31122702"><ele>9.0</ele><time>2022-11-09T17:26:43.0000000+00:00</time></trkpt><trkpt lat="39.60924109" lon="-0.31120624"><ele>9.0</ele><time>2022-11-09T17:26:44.0000000+00:00</time></trkpt><trkpt lat="39.6092949" lon="-0.31118251"><ele>9.0</ele><time>2022-11-09T17:26:45.0000000+00:00</time></trkpt><trkpt lat="39.60934863" lon="-0.31115963"><ele>9.0</ele><time>2022-11-09T17:26:46.0000000+00:00</time></trkpt><trkpt lat="39.60940571" lon="-0.31113583"><ele>9.0</ele><time>2022-11-09T17:26:47.0000000+00:00</time></trkpt><trkpt lat="39.60946111" lon="-0.31111185"><ele>8.8</ele><time>2022-11-09T17:26:48.0000000+00:00</time></trkpt><trkpt lat="39.60951794" lon="-0.31108847"><ele>8.8</ele><time>2022-11-09T17:26:49.0000000+00:00</time></trkpt><trkpt lat="39.60957536" lon="-0.31106668"><ele>9.0</ele><time>2022-11-09T17:26:50.0000000+00:00</time></trkpt><trkpt lat="39.6096321" lon="-0.31104463"><ele>9.0</ele><time>2022-11-09T17:26:51.0000000+00:00</time></trkpt><trkpt lat="39.60969052" lon="-0.31102351"><ele>9.0</ele><time>2022-11-09T17:26:52.0000000+00:00</time></trkpt><trkpt lat="39.6097528" lon="-0.31099468"><ele>9.0</ele><time>2022-11-09T17:26:53.0000000+00:00</time></trkpt><trkpt lat="39.60981265" lon="-0.31096894"><ele>9.0</ele><time>2022-11-09T17:26:54.0000000+00:00</time></trkpt><trkpt lat="39.60986956" lon="-0.31094363"><ele>9.0</ele><time>2022-11-09T17:26:55.0000000+00:00</time></trkpt><trkpt lat="39.60992463" lon="-0.31092159"><ele>9.0</ele><time>2022-11-09T17:26:56.0000000+00:00</time></trkpt><trkpt lat="39.60997894" lon="-0.31089837"><ele>9.0</ele><time>2022-11-09T17:26:57.0000000+00:00</time></trkpt><trkpt lat="39.61002882" lon="-0.31087398"><ele>9.0</ele><time>2022-11-09T17:26:58.0000000+00:00</time></trkpt><trkpt lat="39.61007324" lon="-0.31084766"><ele>9.0</ele><time>2022-11-09T17:26:59.0000000+00:00</time></trkpt><trkpt lat="39.61011674" lon="-0.31082494"><ele>8.8</ele><time>2022-11-09T17:27:00.0000000+00:00</time></trkpt><trkpt lat="39.61016209" lon="-0.31080248"><ele>8.8</ele><time>2022-11-09T17:27:01.0000000+00:00</time></trkpt><trkpt lat="39.61021062" lon="-0.31078127"><ele>8.6</ele><time>2022-11-09T17:27:02.0000000+00:00</time></trkpt><trkpt lat="39.61025982" lon="-0.31075965"><ele>8.4</ele><time>2022-11-09T17:27:03.0000000+00:00</time></trkpt><trkpt lat="39.61030802" lon="-0.31073886"><ele>8.4</ele><time>2022-11-09T17:27:04.0000000+00:00</time></trkpt><trkpt lat="39.61035554" lon="-0.31071883"><ele>8.4</ele><time>2022-11-09T17:27:05.0000000+00:00</time></trkpt><trkpt lat="39.6104029" lon="-0.31070072"><ele>8.4</ele><time>2022-11-09T17:27:06.0000000+00:00</time></trkpt><trkpt lat="39.6104516" lon="-0.31068547"><ele>8.2</ele><time>2022-11-09T17:27:07.0000000+00:00</time></trkpt><trkpt lat="39.61049887" lon="-0.31066946"><ele>8.4</ele><time>2022-11-09T17:27:08.0000000+00:00</time></trkpt><trkpt lat="39.61054414" lon="-0.31065286"><ele>8.4</ele><time>2022-11-09T17:27:09.0000000+00:00</time></trkpt><trkpt lat="39.61058722" lon="-0.31063409"><ele>8.4</ele><time>2022-11-09T17:27:10.0000000+00:00</time></trkpt><trkpt lat="39.61062904" lon="-0.31061363"><ele>8.4</ele><time>2022-11-09T17:27:11.0000000+00:00</time></trkpt><trkpt lat="39.61067137" lon="-0.31059444"><ele>8.4</ele><time>2022-11-09T17:27:12.0000000+00:00</time></trkpt><trkpt lat="39.61071705" lon="-0.31057541"><ele>8.2</ele><time>2022-11-09T17:27:13.0000000+00:00</time></trkpt><trkpt lat="39.61076592" lon="-0.31055831"><ele>8.2</ele><time>2022-11-09T17:27:14.0000000+00:00</time></trkpt><trkpt lat="39.61081579" lon="-0.31054113"><ele>8.2</ele><time>2022-11-09T17:27:15.0000000+00:00</time></trkpt><trkpt lat="39.61086734" lon="-0.31052227"><ele>8.2</ele><time>2022-11-09T17:27:16.0000000+00:00</time></trkpt><trkpt lat="39.61092057" lon="-0.31049989"><ele>8.2</ele><time>2022-11-09T17:27:17.0000000+00:00</time></trkpt><trkpt lat="39.6109727" lon="-0.31047978"><ele>8.4</ele><time>2022-11-09T17:27:18.0000000+00:00</time></trkpt><trkpt lat="39.61102258" lon="-0.31045991"><ele>8.4</ele><time>2022-11-09T17:27:19.0000000+00:00</time></trkpt><trkpt lat="39.61107178" lon="-0.31043845"><ele>8.4</ele><time>2022-11-09T17:27:20.0000000+00:00</time></trkpt><trkpt lat="39.61112291" lon="-0.310417"><ele>8.4</ele><time>2022-11-09T17:27:21.0000000+00:00</time></trkpt><trkpt lat="39.61117471" lon="-0.31039428"><ele>8.4</ele><time>2022-11-09T17:27:22.0000000+00:00</time></trkpt><trkpt lat="39.611225" lon="-0.31037182"><ele>8.4</ele><time>2022-11-09T17:27:23.0000000+00:00</time></trkpt><trkpt lat="39.61127336" lon="-0.3103481"><ele>8.4</ele><time>2022-11-09T17:27:24.0000000+00:00</time></trkpt><trkpt lat="39.61132416" lon="-0.31032387"><ele>8.4</ele><time>2022-11-09T17:27:25.0000000+00:00</time></trkpt><trkpt lat="39.61138057" lon="-0.31030107"><ele>8.4</ele><time>2022-11-09T17:27:26.0000000+00:00</time></trkpt><trkpt lat="39.61143748" lon="-0.31027953"><ele>8.4</ele><time>2022-11-09T17:27:27.0000000+00:00</time></trkpt><trkpt lat="39.61149263" lon="-0.31025933"><ele>8.4</ele><time>2022-11-09T17:27:28.0000000+00:00</time></trkpt><trkpt lat="39.61154586" lon="-0.31023653"><ele>8.4</ele><time>2022-11-09T17:27:29.0000000+00:00</time></trkpt><trkpt lat="39.61159841" lon="-0.31021642"><ele>8.2</ele><time>2022-11-09T17:27:30.0000000+00:00</time></trkpt><trkpt lat="39.61165256" lon="-0.31019655"><ele>8.2</ele><time>2022-11-09T17:27:31.0000000+00:00</time></trkpt><trkpt lat="39.61170671" lon="-0.31017526"><ele>8.2</ele><time>2022-11-09T17:27:32.0000000+00:00</time></trkpt><trkpt lat="39.61175666" lon="-0.31015112"><ele>8.2</ele><time>2022-11-09T17:27:33.0000000+00:00</time></trkpt><trkpt lat="39.61180612" lon="-0.31013075"><ele>8.2</ele><time>2022-11-09T17:27:34.0000000+00:00</time></trkpt><trkpt lat="39.61185582" lon="-0.3101165"><ele>8.2</ele><time>2022-11-09T17:27:35.0000000+00:00</time></trkpt><trkpt lat="39.61190284" lon="-0.31010108"><ele>8.0</ele><time>2022-11-09T17:27:36.0000000+00:00</time></trkpt><trkpt lat="39.61194869" lon="-0.31008147"><ele>7.8</ele><time>2022-11-09T17:27:37.0000000+00:00</time></trkpt><trkpt lat="39.61199127" lon="-0.31006051"><ele>7.6</ele><time>2022-11-09T17:27:38.0000000+00:00</time></trkpt><trkpt lat="39.61203553" lon="-0.31004232"><ele>7.6</ele><time>2022-11-09T17:27:39.0000000+00:00</time></trkpt><trkpt lat="39.61208381" lon="-0.3100217"><ele>7.8</ele><time>2022-11-09T17:27:40.0000000+00:00</time></trkpt><trkpt lat="39.6121341" lon="-0.30999924"><ele>7.8</ele><time>2022-11-09T17:27:41.0000000+00:00</time></trkpt><trkpt lat="39.6121833" lon="-0.30997762"><ele>7.8</ele><time>2022-11-09T17:27:42.0000000+00:00</time></trkpt><trkpt lat="39.61223326" lon="-0.30995515"><ele>8.0</ele><time>2022-11-09T17:27:43.0000000+00:00</time></trkpt><trkpt lat="39.61228053" lon="-0.30993638"><ele>8.0</ele><time>2022-11-09T17:27:44.0000000+00:00</time></trkpt><trkpt lat="39.61232889" lon="-0.30992003"><ele>8.0</ele><time>2022-11-09T17:27:45.0000000+00:00</time></trkpt><trkpt lat="39.61237432" lon="-0.30990796"><ele>8.0</ele><time>2022-11-09T17:27:46.0000000+00:00</time></trkpt><trkpt lat="39.6124169" lon="-0.30989422"><ele>8.0</ele><time>2022-11-09T17:27:47.0000000+00:00</time></trkpt><trkpt lat="39.61245999" lon="-0.30987963"><ele>8.0</ele><time>2022-11-09T17:27:48.0000000+00:00</time></trkpt><trkpt lat="39.61250257" lon="-0.30986379"><ele>8.0</ele><time>2022-11-09T17:27:49.0000000+00:00</time></trkpt><trkpt lat="39.61254347" lon="-0.30984627"><ele>8.0</ele><time>2022-11-09T17:27:50.0000000+00:00</time></trkpt><trkpt lat="39.61258295" lon="-0.30982934"><ele>7.8</ele><time>2022-11-09T17:27:51.0000000+00:00</time></trkpt><trkpt lat="39.6126231" lon="-0.30981735"><ele>7.6</ele><time>2022-11-09T17:27:52.0000000+00:00</time></trkpt><trkpt lat="39.61266182" lon="-0.30980662"><ele>7.6</ele><time>2022-11-09T17:27:53.0000000+00:00</time></trkpt><trkpt lat="39.61269887" lon="-0.30979271"><ele>7.6</ele><time>2022-11-09T17:27:54.0000000+00:00</time></trkpt><trkpt lat="39.61273676" lon="-0.3097762"><ele>7.4</ele><time>2022-11-09T17:27:55.0000000+00:00</time></trkpt><trkpt lat="39.61277439" lon="-0.30975927"><ele>7.4</ele><time>2022-11-09T17:27:56.0000000+00:00</time></trkpt><trkpt lat="39.61281236" lon="-0.30974259"><ele>7.4</ele><time>2022-11-09T17:27:57.0000000+00:00</time></trkpt><trkpt lat="39.61285385" lon="-0.30972499"><ele>7.4</ele><time>2022-11-09T17:27:58.0000000+00:00</time></trkpt><trkpt lat="39.61289912" lon="-0.30970587"><ele>7.4</ele><time>2022-11-09T17:27:59.0000000+00:00</time></trkpt><trkpt lat="39.61294513" lon="-0.30968567"><ele>7.2</ele><time>2022-11-09T17:28:00.0000000+00:00</time></trkpt><trkpt lat="39.61299207" lon="-0.3096643"><ele>7.2</ele><time>2022-11-09T17:28:01.0000000+00:00</time></trkpt><trkpt lat="39.61304002" lon="-0.30964477"><ele>7.2</ele><time>2022-11-09T17:28:02.0000000+00:00</time></trkpt><trkpt lat="39.61308964" lon="-0.30962331"><ele>7.2</ele><time>2022-11-09T17:28:03.0000000+00:00</time></trkpt><trkpt lat="39.61313741" lon="-0.30959926"><ele>7.2</ele><time>2022-11-09T17:28:04.0000000+00:00</time></trkpt><trkpt lat="39.61317974" lon="-0.30957704"><ele>7.0</ele><time>2022-11-09T17:28:05.0000000+00:00</time></trkpt><trkpt lat="39.61321268" lon="-0.30955919"><ele>7.0</ele><time>2022-11-09T17:28:06.0000000+00:00</time></trkpt><trkpt lat="39.61323791" lon="-0.30954695"><ele>6.8</ele><time>2022-11-09T17:28:07.0000000+00:00</time></trkpt><trkpt lat="39.61325945" lon="-0.30953648"><ele>6.8</ele><time>2022-11-09T17:28:08.0000000+00:00</time></trkpt><trkpt lat="39.61328125" lon="-0.30952818"><ele>6.8</ele><time>2022-11-09T17:28:09.0000000+00:00</time></trkpt><trkpt lat="39.61330203" lon="-0.30952432"><ele>6.8</ele><time>2022-11-09T17:28:10.0000000+00:00</time></trkpt><trkpt lat="39.61332584" lon="-0.3095208"><ele>6.8</ele><time>2022-11-09T17:28:11.0000000+00:00</time></trkpt><trkpt lat="39.61334914" lon="-0.30951468"><ele>6.8</ele><time>2022-11-09T17:28:12.0000000+00:00</time></trkpt><trkpt lat="39.61336381" lon="-0.30950521"><ele>6.8</ele><time>2022-11-09T17:28:13.0000000+00:00</time></trkpt><trkpt lat="39.61337755" lon="-0.30949574"><ele>6.8</ele><time>2022-11-09T17:28:14.0000000+00:00</time></trkpt><trkpt lat="39.61339231" lon="-0.30948493"><ele>6.8</ele><time>2022-11-09T17:28:15.0000000+00:00</time></trkpt><trkpt lat="39.6134032" lon="-0.30946774"><ele>6.8</ele><time>2022-11-09T17:28:16.0000000+00:00</time></trkpt><trkpt lat="39.6134115" lon="-0.3094488"><ele>6.8</ele><time>2022-11-09T17:28:17.0000000+00:00</time></trkpt><trkpt lat="39.61341729" lon="-0.30943849"><ele>6.8</ele><time>2022-11-09T17:28:18.0000000+00:00</time></trkpt><trkpt lat="39.61342198" lon="-0.30942692"><ele>6.6</ele><time>2022-11-09T17:28:19.0000000+00:00</time></trkpt><trkpt lat="39.6134234" lon="-0.30941242"><ele>6.6</ele><time>2022-11-09T17:28:20.0000000+00:00</time></trkpt><trkpt lat="39.613426" lon="-0.30940186"><ele>6.6</ele><time>2022-11-09T17:28:21.0000000+00:00</time></trkpt><trkpt lat="39.61343128" lon="-0.30938041"><ele>6.6</ele><time>2022-11-09T17:28:22.0000000+00:00</time></trkpt><trkpt lat="39.61343908" lon="-0.30936012"><ele>6.6</ele><time>2022-11-09T17:28:23.0000000+00:00</time></trkpt><trkpt lat="39.61344838" lon="-0.30933724"><ele>6.6</ele><time>2022-11-09T17:28:24.0000000+00:00</time></trkpt><trkpt lat="39.61346791" lon="-0.30931561"><ele>6.6</ele><time>2022-11-09T17:28:25.0000000+00:00</time></trkpt><trkpt lat="39.61349641" lon="-0.30929273"><ele>6.6</ele><time>2022-11-09T17:28:26.0000000+00:00</time></trkpt><trkpt lat="39.61352784" lon="-0.30927102"><ele>6.6</ele><time>2022-11-09T17:28:27.0000000+00:00</time></trkpt><trkpt lat="39.61355802" lon="-0.30925049"><ele>6.6</ele><time>2022-11-09T17:28:28.0000000+00:00</time></trkpt><trkpt lat="39.6135949" lon="-0.30923096"><ele>6.8</ele><time>2022-11-09T17:28:29.0000000+00:00</time></trkpt><trkpt lat="39.61363253" lon="-0.30921042"><ele>6.8</ele><time>2022-11-09T17:28:30.0000000+00:00</time></trkpt><trkpt lat="39.61367193" lon="-0.30918947"><ele>7.0</ele><time>2022-11-09T17:28:31.0000000+00:00</time></trkpt><trkpt lat="39.61371685" lon="-0.30916885"><ele>7.0</ele><time>2022-11-09T17:28:32.0000000+00:00</time></trkpt><trkpt lat="39.61376404" lon="-0.30914613"><ele>7.0</ele><time>2022-11-09T17:28:33.0000000+00:00</time></trkpt><trkpt lat="39.6138052" lon="-0.30912618"><ele>7.0</ele><time>2022-11-09T17:28:34.0000000+00:00</time></trkpt><trkpt lat="39.61385004" lon="-0.30910741"><ele>7.0</ele><time>2022-11-09T17:28:35.0000000+00:00</time></trkpt><trkpt lat="39.61389832" lon="-0.30908561"><ele>7.0</ele><time>2022-11-09T17:28:36.0000000+00:00</time></trkpt><trkpt lat="39.61395951" lon="-0.30906365"><ele>7.0</ele><time>2022-11-09T17:28:37.0000000+00:00</time></trkpt><trkpt lat="39.61401399" lon="-0.30904278"><ele>7.0</ele><time>2022-11-09T17:28:38.0000000+00:00</time></trkpt><trkpt lat="39.614058" lon="-0.30902032"><ele>7.0</ele><time>2022-11-09T17:28:39.0000000+00:00</time></trkpt><trkpt lat="39.61409915" lon="-0.30899844"><ele>6.8</ele><time>2022-11-09T17:28:40.0000000+00:00</time></trkpt><trkpt lat="39.61414014" lon="-0.30897807"><ele>6.8</ele><time>2022-11-09T17:28:41.0000000+00:00</time></trkpt><trkpt lat="39.6141854" lon="-0.30896014"><ele>6.8</ele><time>2022-11-09T17:28:42.0000000+00:00</time></trkpt><trkpt lat="39.61422614" lon="-0.30894597"><ele>6.6</ele><time>2022-11-09T17:28:43.0000000+00:00</time></trkpt><trkpt lat="39.6142771" lon="-0.30893273"><ele>6.4</ele><time>2022-11-09T17:28:44.0000000+00:00</time></trkpt><trkpt lat="39.61432429" lon="-0.30892678"><ele>6.4</ele><time>2022-11-09T17:28:45.0000000+00:00</time></trkpt><trkpt lat="39.61436125" lon="-0.30891135"><ele>6.2</ele><time>2022-11-09T17:28:46.0000000+00:00</time></trkpt><trkpt lat="39.61438598" lon="-0.30888964"><ele>6.2</ele><time>2022-11-09T17:28:47.0000000+00:00</time></trkpt><trkpt lat="39.61440945" lon="-0.30887808"><ele>6.2</ele><time>2022-11-09T17:28:48.0000000+00:00</time></trkpt><trkpt lat="39.6144527" lon="-0.30885419"><ele>6.2</ele><time>2022-11-09T17:28:49.0000000+00:00</time></trkpt><trkpt lat="39.61449377" lon="-0.30883558"><ele>6.2</ele><time>2022-11-09T17:28:50.0000000+00:00</time></trkpt><trkpt lat="39.61452789" lon="-0.30880926"><ele>6.0</ele><time>2022-11-09T17:28:51.0000000+00:00</time></trkpt><trkpt lat="39.61456602" lon="-0.30878931"><ele>6.0</ele><time>2022-11-09T17:28:52.0000000+00:00</time></trkpt><trkpt lat="39.61460475" lon="-0.30877205"><ele>6.0</ele><time>2022-11-09T17:28:53.0000000+00:00</time></trkpt><trkpt lat="39.61464196" lon="-0.30874807"><ele>6.0</ele><time>2022-11-09T17:28:54.0000000+00:00</time></trkpt><trkpt lat="39.6146817" lon="-0.30872804"><ele>6.0</ele><time>2022-11-09T17:28:55.0000000+00:00</time></trkpt><trkpt lat="39.61471749" lon="-0.30870776"><ele>6.0</ele><time>2022-11-09T17:28:56.0000000+00:00</time></trkpt><trkpt lat="39.61474783" lon="-0.30868596"><ele>6.0</ele><time>2022-11-09T17:28:57.0000000+00:00</time></trkpt><trkpt lat="39.61477817" lon="-0.30866342"><ele>6.2</ele><time>2022-11-09T17:28:58.0000000+00:00</time></trkpt><trkpt lat="39.61481371" lon="-0.30864582"><ele>6.2</ele><time>2022-11-09T17:28:59.0000000+00:00</time></trkpt><trkpt lat="39.61484548" lon="-0.30862805"><ele>6.2</ele><time>2022-11-09T17:29:00.0000000+00:00</time></trkpt><trkpt lat="39.61488244" lon="-0.30860558"><ele>6.2</ele><time>2022-11-09T17:29:01.0000000+00:00</time></trkpt><trkpt lat="39.61493106" lon="-0.30858748"><ele>6.2</ele><time>2022-11-09T17:29:02.0000000+00:00</time></trkpt><trkpt lat="39.61497825" lon="-0.30857105"><ele>6.2</ele><time>2022-11-09T17:29:03.0000000+00:00</time></trkpt><trkpt lat="39.6150277" lon="-0.30856015"><ele>6.0</ele><time>2022-11-09T17:29:04.0000000+00:00</time></trkpt><trkpt lat="39.61507447" lon="-0.30854842"><ele>5.8</ele><time>2022-11-09T17:29:05.0000000+00:00</time></trkpt><trkpt lat="39.61511848" lon="-0.30853182"><ele>5.2</ele><time>2022-11-09T17:29:06.0000000+00:00</time></trkpt><trkpt lat="39.6151577" lon="-0.3085086"><ele>5.0</ele><time>2022-11-09T17:29:07.0000000+00:00</time></trkpt><trkpt lat="39.61519894" lon="-0.30849452"><ele>4.8</ele><time>2022-11-09T17:29:08.0000000+00:00</time></trkpt><trkpt lat="39.61523867" lon="-0.30848371"><ele>4.8</ele><time>2022-11-09T17:29:09.0000000+00:00</time></trkpt><trkpt lat="39.6152774" lon="-0.30846745"><ele>4.6</ele><time>2022-11-09T17:29:10.0000000+00:00</time></trkpt><trkpt lat="39.61531922" lon="-0.30845563"><ele>4.6</ele><time>2022-11-09T17:29:11.0000000+00:00</time></trkpt><trkpt lat="39.61536717" lon="-0.30844222"><ele>4.6</ele><time>2022-11-09T17:29:12.0000000+00:00</time></trkpt><trkpt lat="39.61544713" lon="-0.308434"><ele>4.6</ele><time>2022-11-09T17:29:13.0000000+00:00</time></trkpt><trkpt lat="39.61551167" lon="-0.30842797"><ele>5.0</ele><time>2022-11-09T17:29:14.0000000+00:00</time></trkpt><trkpt lat="39.61554537" lon="-0.30840442"><ele>5.2</ele><time>2022-11-09T17:29:15.0000000+00:00</time></trkpt><trkpt lat="39.61557437" lon="-0.30838137"><ele>5.4</ele><time>2022-11-09T17:29:16.0000000+00:00</time></trkpt><trkpt lat="39.61561242" lon="-0.30836594"><ele>5.4</ele><time>2022-11-09T17:29:17.0000000+00:00</time></trkpt><trkpt lat="39.61564545" lon="-0.30834499"><ele>5.6</ele><time>2022-11-09T17:29:18.0000000+00:00</time></trkpt><trkpt lat="39.61568534" lon="-0.30832211"><ele>5.6</ele><time>2022-11-09T17:29:19.0000000+00:00</time></trkpt><trkpt lat="39.61573999" lon="-0.30830291"><ele>5.6</ele><time>2022-11-09T17:29:20.0000000+00:00</time></trkpt><trkpt lat="39.61578651" lon="-0.30828673"><ele>5.6</ele><time>2022-11-09T17:29:21.0000000+00:00</time></trkpt><trkpt lat="39.61581987" lon="-0.30826888"><ele>5.4</ele><time>2022-11-09T17:29:22.0000000+00:00</time></trkpt><trkpt lat="39.61585407" lon="-0.3082579"><ele>5.4</ele><time>2022-11-09T17:29:23.0000000+00:00</time></trkpt><trkpt lat="39.61589179" lon="-0.30824583"><ele>5.4</ele><time>2022-11-09T17:29:24.0000000+00:00</time></trkpt><trkpt lat="39.61594652" lon="-0.30824994"><ele>5.4</ele><time>2022-11-09T17:29:25.0000000+00:00</time></trkpt><trkpt lat="39.61601526" lon="-0.30825069"><ele>5.2</ele><time>2022-11-09T17:29:26.0000000+00:00</time></trkpt><trkpt lat="39.61604853" lon="-0.30822295"><ele>5.2</ele><time>2022-11-09T17:29:27.0000000+00:00</time></trkpt><trkpt lat="39.61607787" lon="-0.30820895"><ele>5.2</ele><time>2022-11-09T17:29:28.0000000+00:00</time></trkpt><trkpt lat="39.61615339" lon="-0.30820258"><ele>5.2</ele><time>2022-11-09T17:29:29.0000000+00:00</time></trkpt><trkpt lat="39.61619848" lon="-0.3081937"><ele>5.2</ele><time>2022-11-09T17:29:30.0000000+00:00</time></trkpt><trkpt lat="39.616245" lon="-0.30817358"><ele>5.0</ele><time>2022-11-09T17:29:31.0000000+00:00</time></trkpt><trkpt lat="39.61631541" lon="-0.3081341"><ele>5.0</ele><time>2022-11-09T17:29:32.0000000+00:00</time></trkpt><trkpt lat="39.61638951" lon="-0.30809269"><ele>5.0</ele><time>2022-11-09T17:29:33.0000000+00:00</time></trkpt><trkpt lat="39.6164367" lon="-0.30805556"><ele>5.0</ele><time>2022-11-09T17:29:34.0000000+00:00</time></trkpt><trkpt lat="39.61647643" lon="-0.30802983"><ele>5.0</ele><time>2022-11-09T17:29:35.0000000+00:00</time></trkpt><trkpt lat="39.6165206" lon="-0.30800711"><ele>5.0</ele><time>2022-11-09T17:29:36.0000000+00:00</time></trkpt><trkpt lat="39.61656829" lon="-0.30798549"><ele>5.2</ele><time>2022-11-09T17:29:37.0000000+00:00</time></trkpt><trkpt lat="39.61660819" lon="-0.3079621"><ele>5.0</ele><time>2022-11-09T17:29:38.0000000+00:00</time></trkpt><trkpt lat="39.61663426" lon="-0.30792397"><ele>5.0</ele><time>2022-11-09T17:29:39.0000000+00:00</time></trkpt><trkpt lat="39.61665706" lon="-0.30788424"><ele>5.0</ele><time>2022-11-09T17:29:40.0000000+00:00</time></trkpt><trkpt lat="39.61669855" lon="-0.30784836"><ele>5.0</ele><time>2022-11-09T17:29:41.0000000+00:00</time></trkpt><trkpt lat="39.61673568" lon="-0.30780964"><ele>5.0</ele><time>2022-11-09T17:29:42.0000000+00:00</time></trkpt><trkpt lat="39.6167817" lon="-0.30777494"><ele>5.0</ele><time>2022-11-09T17:29:43.0000000+00:00</time></trkpt><trkpt lat="39.61682478" lon="-0.30774551"><ele>5.2</ele><time>2022-11-09T17:29:44.0000000+00:00</time></trkpt><trkpt lat="39.61687314" lon="-0.30772758"><ele>5.2</ele><time>2022-11-09T17:29:45.0000000+00:00</time></trkpt><trkpt lat="39.61692427" lon="-0.30770922"><ele>5.2</ele><time>2022-11-09T17:29:46.0000000+00:00</time></trkpt><trkpt lat="39.6169806" lon="-0.30767871"><ele>5.2</ele><time>2022-11-09T17:29:47.0000000+00:00</time></trkpt><trkpt lat="39.6170324" lon="-0.30763798"><ele>5.4</ele><time>2022-11-09T17:29:48.0000000+00:00</time></trkpt><trkpt lat="39.61709786" lon="-0.30756312"><ele>5.4</ele><time>2022-11-09T17:29:49.0000000+00:00</time></trkpt><trkpt lat="39.61715444" lon="-0.30753748"><ele>5.4</ele><time>2022-11-09T17:29:50.0000000+00:00</time></trkpt><trkpt lat="39.61721345" lon="-0.30752507"><ele>5.4</ele><time>2022-11-09T17:29:51.0000000+00:00</time></trkpt><trkpt lat="39.6172572" lon="-0.30749892"><ele>5.4</ele><time>2022-11-09T17:29:52.0000000+00:00</time></trkpt><trkpt lat="39.61729048" lon="-0.30747713"><ele>5.6</ele><time>2022-11-09T17:29:53.0000000+00:00</time></trkpt><trkpt lat="39.61731018" lon="-0.30745659"><ele>5.6</ele><time>2022-11-09T17:29:54.0000000+00:00</time></trkpt><trkpt lat="39.617337" lon="-0.30745106"><ele>5.6</ele><time>2022-11-09T17:29:55.0000000+00:00</time></trkpt><trkpt lat="39.61739659" lon="-0.30745324"><ele>5.6</ele><time>2022-11-09T17:29:56.0000000+00:00</time></trkpt><trkpt lat="39.61742383" lon="-0.30745156"><ele>5.6</ele><time>2022-11-09T17:29:57.0000000+00:00</time></trkpt><trkpt lat="39.61744404" lon="-0.30744419"><ele>5.6</ele><time>2022-11-09T17:29:58.0000000+00:00</time></trkpt><trkpt lat="39.6174556" lon="-0.30744025"><ele>5.6</ele><time>2022-11-09T17:29:59.0000000+00:00</time></trkpt><trkpt lat="39.61745845" lon="-0.30743698"><ele>5.6</ele><time>2022-11-09T17:30:00.0000000+00:00</time></trkpt><trkpt lat="39.61746331" lon="-0.30744175"><ele>5.6</ele><time>2022-11-09T17:30:01.0000000+00:00</time></trkpt><trkpt lat="39.61746533" lon="-0.30744058"><ele>5.6</ele><time>2022-11-09T17:30:02.0000000+00:00</time></trkpt><trkpt lat="39.61746533" lon="-0.30744058"><ele>5.6</ele><time>2022-11-09T17:30:03.0000000+00:00</time></trkpt><trkpt lat="39.61746533" lon="-0.30744058"><ele>5.6</ele><time>2022-11-09T17:30:04.0000000+00:00</time></trkpt><trkpt lat="39.61746533" lon="-0.30744058"><ele>5.8</ele><time>2022-11-09T17:30:05.0000000+00:00</time></trkpt><trkpt lat="39.61746533" lon="-0.30744058"><ele>5.8</ele><time>2022-11-09T17:30:06.0000000+00:00</time></trkpt><trkpt lat="39.61746533" lon="-0.30744058"><ele>5.8</ele><time>2022-11-09T17:30:07.0000000+00:00</time></trkpt><trkpt lat="39.61746533" lon="-0.30744058"><ele>5.8</ele><time>2022-11-09T17:30:08.0000000+00:00</time></trkpt><trkpt lat="39.61746533" lon="-0.30744058"><ele>5.8</ele><time>2022-11-09T17:30:09.0000000+00:00</time></trkpt><trkpt lat="39.61747186" lon="-0.307441"><ele>5.8</ele><time>2022-11-09T17:30:10.0000000+00:00</time></trkpt><trkpt lat="39.61747605" lon="-0.3074405"><ele>5.8</ele><time>2022-11-09T17:30:11.0000000+00:00</time></trkpt><trkpt lat="39.61747605" lon="-0.3074405"><ele>5.8</ele><time>2022-11-09T17:30:12.0000000+00:00</time></trkpt><trkpt lat="39.61747605" lon="-0.3074405"><ele>5.8</ele><time>2022-11-09T17:30:13.0000000+00:00</time></trkpt><trkpt lat="39.61747605" lon="-0.3074405"><ele>5.8</ele><time>2022-11-09T17:30:14.0000000+00:00</time></trkpt><trkpt lat="39.61747605" lon="-0.3074405"><ele>5.8</ele><time>2022-11-09T17:30:15.0000000+00:00</time></trkpt><trkpt lat="39.61748092" lon="-0.30744351"><ele>5.8</ele><time>2022-11-09T17:30:16.0000000+00:00</time></trkpt><trkpt lat="39.61749089" lon="-0.3074446"><ele>5.8</ele><time>2022-11-09T17:30:17.0000000+00:00</time></trkpt><trkpt lat="39.61750061" lon="-0.30743681"><ele>5.8</ele><time>2022-11-09T17:30:18.0000000+00:00</time></trkpt><trkpt lat="39.61750472" lon="-0.3074234"><ele>5.8</ele><time>2022-11-09T17:30:19.0000000+00:00</time></trkpt><trkpt lat="39.61751201" lon="-0.30741518"><ele>5.8</ele><time>2022-11-09T17:30:20.0000000+00:00</time></trkpt><trkpt lat="39.6175183" lon="-0.30741032"><ele>5.8</ele><time>2022-11-09T17:30:21.0000000+00:00</time></trkpt><trkpt lat="39.61752718" lon="-0.30740144"><ele>5.6</ele><time>2022-11-09T17:30:22.0000000+00:00</time></trkpt><trkpt lat="39.61752911" lon="-0.30738115"><ele>5.6</ele><time>2022-11-09T17:30:23.0000000+00:00</time></trkpt><trkpt lat="39.61753473" lon="-0.30735467"><ele>5.4</ele><time>2022-11-09T17:30:24.0000000+00:00</time></trkpt><trkpt lat="39.61754554" lon="-0.30733153"><ele>5.4</ele><time>2022-11-09T17:30:25.0000000+00:00</time></trkpt><trkpt lat="39.6175566" lon="-0.30731008"><ele>5.4</ele><time>2022-11-09T17:30:26.0000000+00:00</time></trkpt><trkpt lat="39.61755426" lon="-0.30730287"><ele>5.4</ele><time>2022-11-09T17:30:27.0000000+00:00</time></trkpt><trkpt lat="39.61754219" lon="-0.30730027"><ele>5.4</ele><time>2022-11-09T17:30:28.0000000+00:00</time></trkpt><trkpt lat="39.61753565" lon="-0.30729767"><ele>5.4</ele><time>2022-11-09T17:30:29.0000000+00:00</time></trkpt><trkpt lat="39.61754562" lon="-0.30729314"><ele>5.4</ele><time>2022-11-09T17:30:30.0000000+00:00</time></trkpt><trkpt lat="39.61756222" lon="-0.30728652"><ele>5.4</ele><time>2022-11-09T17:30:31.0000000+00:00</time></trkpt><trkpt lat="39.61758728" lon="-0.30727881"><ele>5.4</ele><time>2022-11-09T17:30:32.0000000+00:00</time></trkpt><trkpt lat="39.61761947" lon="-0.3072633"><ele>5.4</ele><time>2022-11-09T17:30:33.0000000+00:00</time></trkpt><trkpt lat="39.61764973" lon="-0.30723003"><ele>5.4</ele><time>2022-11-09T17:30:34.0000000+00:00</time></trkpt><trkpt lat="39.61768292" lon="-0.30718678"><ele>5.4</ele><time>2022-11-09T17:30:35.0000000+00:00</time></trkpt><trkpt lat="39.61771963" lon="-0.30715308"><ele>5.4</ele><time>2022-11-09T17:30:36.0000000+00:00</time></trkpt><trkpt lat="39.61775593" lon="-0.30712056"><ele>5.4</ele><time>2022-11-09T17:30:37.0000000+00:00</time></trkpt><trkpt lat="39.61779465" lon="-0.3070877"><ele>5.4</ele><time>2022-11-09T17:30:38.0000000+00:00</time></trkpt><trkpt lat="39.61784008" lon="-0.30705292"><ele>5.4</ele><time>2022-11-09T17:30:39.0000000+00:00</time></trkpt><trkpt lat="39.61788375" lon="-0.30701453"><ele>5.4</ele><time>2022-11-09T17:30:40.0000000+00:00</time></trkpt><trkpt lat="39.61793044" lon="-0.30697304"><ele>5.4</ele><time>2022-11-09T17:30:41.0000000+00:00</time></trkpt><trkpt lat="39.61797738" lon="-0.3069318"><ele>5.2</ele><time>2022-11-09T17:30:42.0000000+00:00</time></trkpt><trkpt lat="39.61802783" lon="-0.30688821"><ele>5.0</ele><time>2022-11-09T17:30:43.0000000+00:00</time></trkpt><trkpt lat="39.6180741" lon="-0.30683968"><ele>4.8</ele><time>2022-11-09T17:30:44.0000000+00:00</time></trkpt><trkpt lat="39.61811702" lon="-0.30678922"><ele>4.8</ele><time>2022-11-09T17:30:45.0000000+00:00</time></trkpt><trkpt lat="39.61818508" lon="-0.30674849"><ele>4.8</ele><time>2022-11-09T17:30:46.0000000+00:00</time></trkpt><trkpt lat="39.61824099" lon="-0.30670465"><ele>4.6</ele><time>2022-11-09T17:30:47.0000000+00:00</time></trkpt><trkpt lat="39.61829497" lon="-0.30665997"><ele>4.6</ele><time>2022-11-09T17:30:48.0000000+00:00</time></trkpt><trkpt lat="39.61836009" lon="-0.30660541"><ele>4.6</ele><time>2022-11-09T17:30:49.0000000+00:00</time></trkpt><trkpt lat="39.61840385" lon="-0.30656224"><ele>4.6</ele><time>2022-11-09T17:30:50.0000000+00:00</time></trkpt><trkpt lat="39.61844752" lon="-0.30650055"><ele>4.6</ele><time>2022-11-09T17:30:51.0000000+00:00</time></trkpt><trkpt lat="39.61849253" lon="-0.30644171"><ele>4.6</ele><time>2022-11-09T17:30:52.0000000+00:00</time></trkpt><trkpt lat="39.61853528" lon="-0.30637147"><ele>4.6</ele><time>2022-11-09T17:30:53.0000000+00:00</time></trkpt><trkpt lat="39.618588" lon="-0.30630215"><ele>4.6</ele><time>2022-11-09T17:30:54.0000000+00:00</time></trkpt><trkpt lat="39.61864139" lon="-0.30623342"><ele>4.4</ele><time>2022-11-09T17:30:55.0000000+00:00</time></trkpt><trkpt lat="39.61870233" lon="-0.30615522"><ele>4.4</ele><time>2022-11-09T17:30:56.0000000+00:00</time></trkpt><trkpt lat="39.6187522" lon="-0.30609671"><ele>4.4</ele><time>2022-11-09T17:30:57.0000000+00:00</time></trkpt><trkpt lat="39.61880274" lon="-0.30603955"><ele>4.2</ele><time>2022-11-09T17:30:58.0000000+00:00</time></trkpt><trkpt lat="39.61885613" lon="-0.30598791"><ele>4.0</ele><time>2022-11-09T17:30:59.0000000+00:00</time></trkpt><trkpt lat="39.618904" lon="-0.30593821"><ele>4.0</ele><time>2022-11-09T17:31:00.0000000+00:00</time></trkpt><trkpt lat="39.61894624" lon="-0.30588012"><ele>3.8</ele><time>2022-11-09T17:31:01.0000000+00:00</time></trkpt><trkpt lat="39.61898781" lon="-0.30582187"><ele>3.8</ele><time>2022-11-09T17:31:02.0000000+00:00</time></trkpt><trkpt lat="39.61903207" lon="-0.30576043"><ele>4.0</ele><time>2022-11-09T17:31:03.0000000+00:00</time></trkpt><trkpt lat="39.61907591" lon="-0.30570083"><ele>4.0</ele><time>2022-11-09T17:31:04.0000000+00:00</time></trkpt><trkpt lat="39.619121" lon="-0.30564266"><ele>4.0</ele><time>2022-11-09T17:31:05.0000000+00:00</time></trkpt><trkpt lat="39.61916694" lon="-0.30558659"><ele>4.0</ele><time>2022-11-09T17:31:06.0000000+00:00</time></trkpt><trkpt lat="39.61921278" lon="-0.30553093"><ele>4.0</ele><time>2022-11-09T17:31:07.0000000+00:00</time></trkpt><trkpt lat="39.61925671" lon="-0.30547477"><ele>4.0</ele><time>2022-11-09T17:31:08.0000000+00:00</time></trkpt><trkpt lat="39.61930029" lon="-0.30542071"><ele>4.0</ele><time>2022-11-09T17:31:09.0000000+00:00</time></trkpt><trkpt lat="39.61934379" lon="-0.30537344"><ele>3.8</ele><time>2022-11-09T17:31:10.0000000+00:00</time></trkpt><trkpt lat="39.61938336" lon="-0.305327"><ele>3.6</ele><time>2022-11-09T17:31:11.0000000+00:00</time></trkpt><trkpt lat="39.61941789" lon="-0.30528191"><ele>3.6</ele><time>2022-11-09T17:31:12.0000000+00:00</time></trkpt><trkpt lat="39.61945008" lon="-0.30524343"><ele>3.4</ele><time>2022-11-09T17:31:13.0000000+00:00</time></trkpt><trkpt lat="39.6194826" lon="-0.30520815"><ele>3.4</ele><time>2022-11-09T17:31:14.0000000+00:00</time></trkpt><trkpt lat="39.61951696" lon="-0.30516573"><ele>3.4</ele><time>2022-11-09T17:31:15.0000000+00:00</time></trkpt><trkpt lat="39.61955166" lon="-0.30511988"><ele>3.4</ele><time>2022-11-09T17:31:16.0000000+00:00</time></trkpt><trkpt lat="39.61958762" lon="-0.30508401"><ele>3.4</ele><time>2022-11-09T17:31:17.0000000+00:00</time></trkpt><trkpt lat="39.6196245" lon="-0.30504847"><ele>3.4</ele><time>2022-11-09T17:31:18.0000000+00:00</time></trkpt><trkpt lat="39.61965937" lon="-0.3049996"><ele>3.4</ele><time>2022-11-09T17:31:19.0000000+00:00</time></trkpt><trkpt lat="39.61969667" lon="-0.30494898"><ele>3.4</ele><time>2022-11-09T17:31:20.0000000+00:00</time></trkpt><trkpt lat="39.61973003" lon="-0.30489491"><ele>3.4</ele><time>2022-11-09T17:31:21.0000000+00:00</time></trkpt><trkpt lat="39.6197618" lon="-0.30484772"><ele>3.4</ele><time>2022-11-09T17:31:22.0000000+00:00</time></trkpt><trkpt lat="39.61979725" lon="-0.30480573"><ele>3.4</ele><time>2022-11-09T17:31:23.0000000+00:00</time></trkpt><trkpt lat="39.61982827" lon="-0.3047546"><ele>3.2</ele><time>2022-11-09T17:31:24.0000000+00:00</time></trkpt><trkpt lat="39.61985258" lon="-0.30470029"><ele>3.2</ele><time>2022-11-09T17:31:25.0000000+00:00</time></trkpt><trkpt lat="39.61986842" lon="-0.30464153"><ele>3.2</ele><time>2022-11-09T17:31:26.0000000+00:00</time></trkpt><trkpt lat="39.61989608" lon="-0.30459484"><ele>3.2</ele><time>2022-11-09T17:31:27.0000000+00:00</time></trkpt><trkpt lat="39.61993095" lon="-0.30455662"><ele>3.0</ele><time>2022-11-09T17:31:28.0000000+00:00</time></trkpt><trkpt lat="39.61996933" lon="-0.30451848"><ele>3.0</ele><time>2022-11-09T17:31:29.0000000+00:00</time></trkpt><trkpt lat="39.62000345" lon="-0.30448068"><ele>3.0</ele><time>2022-11-09T17:31:30.0000000+00:00</time></trkpt><trkpt lat="39.62003999" lon="-0.3044438"><ele>2.8</ele><time>2022-11-09T17:31:31.0000000+00:00</time></trkpt><trkpt lat="39.62007411" lon="-0.30440373"><ele>2.8</ele><time>2022-11-09T17:31:32.0000000+00:00</time></trkpt><trkpt lat="39.62011158" lon="-0.30436627"><ele>2.6</ele><time>2022-11-09T17:31:33.0000000+00:00</time></trkpt><trkpt lat="39.62014988" lon="-0.3043252"><ele>2.6</ele><time>2022-11-09T17:31:34.0000000+00:00</time></trkpt><trkpt lat="39.62018718" lon="-0.30428228"><ele>2.4</ele><time>2022-11-09T17:31:35.0000000+00:00</time></trkpt><trkpt lat="39.62022557" lon="-0.30423651"><ele>2.2</ele><time>2022-11-09T17:31:36.0000000+00:00</time></trkpt><trkpt lat="39.62026262" lon="-0.30419201"><ele>2.0</ele><time>2022-11-09T17:31:37.0000000+00:00</time></trkpt><trkpt lat="39.62029464" lon="-0.30413945"><ele>1.8</ele><time>2022-11-09T17:31:38.0000000+00:00</time></trkpt><trkpt lat="39.62031794" lon="-0.30408707"><ele>1.8</ele><time>2022-11-09T17:31:39.0000000+00:00</time></trkpt><trkpt lat="39.62033143" lon="-0.30403091"><ele>1.8</ele><time>2022-11-09T17:31:40.0000000+00:00</time></trkpt><trkpt lat="39.62033655" lon="-0.30397617"><ele>1.6</ele><time>2022-11-09T17:31:41.0000000+00:00</time></trkpt><trkpt lat="39.62033655" lon="-0.30393376"><ele>1.6</ele><time>2022-11-09T17:31:42.0000000+00:00</time></trkpt><trkpt lat="39.62033412" lon="-0.30391188"><ele>1.6</ele><time>2022-11-09T17:31:43.0000000+00:00</time></trkpt><trkpt lat="39.62033043" lon="-0.30390015"><ele>1.4</ele><time>2022-11-09T17:31:44.0000000+00:00</time></trkpt><trkpt lat="39.62033043" lon="-0.30389763"><ele>1.4</ele><time>2022-11-09T17:31:45.0000000+00:00</time></trkpt><trkpt lat="39.62033001" lon="-0.3038999"><ele>1.4</ele><time>2022-11-09T17:31:46.0000000+00:00</time></trkpt><trkpt lat="39.62033001" lon="-0.3038999"><ele>1.4</ele><time>2022-11-09T17:31:47.0000000+00:00</time></trkpt><trkpt lat="39.62033001" lon="-0.3038999"><ele>1.4</ele><time>2022-11-09T17:31:48.0000000+00:00</time></trkpt><trkpt lat="39.62033001" lon="-0.3038999"><ele>1.4</ele><time>2022-11-09T17:31:49.0000000+00:00</time></trkpt><trkpt lat="39.62033001" lon="-0.3038999"><ele>1.4</ele><time>2022-11-09T17:31:50.0000000+00:00</time></trkpt><trkpt lat="39.62033001" lon="-0.3038999"><ele>1.4</ele><time>2022-11-09T17:31:51.0000000+00:00</time></trkpt><trkpt lat="39.62032892" lon="-0.30389864"><ele>1.4</ele><time>2022-11-09T17:31:52.0000000+00:00</time></trkpt><trkpt lat="39.62033269" lon="-0.30388984"><ele>1.4</ele><time>2022-11-09T17:31:53.0000000+00:00</time></trkpt><trkpt lat="39.62033504" lon="-0.30387349"><ele>1.4</ele><time>2022-11-09T17:31:54.0000000+00:00</time></trkpt><trkpt lat="39.62033319" lon="-0.30385003"><ele>1.4</ele><time>2022-11-09T17:31:55.0000000+00:00</time></trkpt><trkpt lat="39.62032875" lon="-0.30382086"><ele>1.4</ele><time>2022-11-09T17:31:56.0000000+00:00</time></trkpt><trkpt lat="39.62031878" lon="-0.30379135"><ele>1.4</ele><time>2022-11-09T17:31:57.0000000+00:00</time></trkpt><trkpt lat="39.62031048" lon="-0.30376411"><ele>1.4</ele><time>2022-11-09T17:31:58.0000000+00:00</time></trkpt><trkpt lat="39.62030998" lon="-0.3037362"><ele>1.6</ele><time>2022-11-09T17:31:59.0000000+00:00</time></trkpt><trkpt lat="39.62031668" lon="-0.30370669"><ele>1.6</ele><time>2022-11-09T17:32:00.0000000+00:00</time></trkpt><trkpt lat="39.62032867" lon="-0.30367677"><ele>1.6</ele><time>2022-11-09T17:32:01.0000000+00:00</time></trkpt><trkpt lat="39.6203394" lon="-0.30364626"><ele>1.6</ele><time>2022-11-09T17:32:02.0000000+00:00</time></trkpt><trkpt lat="39.62034786" lon="-0.30361097"><ele>1.6</ele><time>2022-11-09T17:32:03.0000000+00:00</time></trkpt><trkpt lat="39.62034526" lon="-0.30357015"><ele>1.6</ele><time>2022-11-09T17:32:04.0000000+00:00</time></trkpt><trkpt lat="39.62034107" lon="-0.30353118"><ele>1.6</ele><time>2022-11-09T17:32:05.0000000+00:00</time></trkpt><trkpt lat="39.62033965" lon="-0.30348751"><ele>1.4</ele><time>2022-11-09T17:32:06.0000000+00:00</time></trkpt><trkpt lat="39.62034292" lon="-0.30344677"><ele>1.4</ele><time>2022-11-09T17:32:07.0000000+00:00</time></trkpt><trkpt lat="39.62034853" lon="-0.30340444"><ele>1.4</ele><time>2022-11-09T17:32:08.0000000+00:00</time></trkpt><trkpt lat="39.62034878" lon="-0.30336178"><ele>1.4</ele><time>2022-11-09T17:32:09.0000000+00:00</time></trkpt><trkpt lat="39.6203466" lon="-0.30332121"><ele>1.4</ele><time>2022-11-09T17:32:10.0000000+00:00</time></trkpt><trkpt lat="39.62034334" lon="-0.30329095"><ele>1.2</ele><time>2022-11-09T17:32:11.0000000+00:00</time></trkpt><trkpt lat="39.62034166" lon="-0.30327126"><ele>1.2</ele><time>2022-11-09T17:32:12.0000000+00:00</time></trkpt><trkpt lat="39.62034392" lon="-0.30326413"><ele>1.2</ele><time>2022-11-09T17:32:13.0000000+00:00</time></trkpt><trkpt lat="39.62035482" lon="-0.30327369"><ele>1.2</ele><time>2022-11-09T17:32:14.0000000+00:00</time></trkpt><trkpt lat="39.62037351" lon="-0.30328559"><ele>1.2</ele><time>2022-11-09T17:32:15.0000000+00:00</time></trkpt><trkpt lat="39.62039564" lon="-0.30329213"><ele>1.2</ele><time>2022-11-09T17:32:16.0000000+00:00</time></trkpt><trkpt lat="39.62041265" lon="-0.30328291"><ele>1.2</ele><time>2022-11-09T17:32:17.0000000+00:00</time></trkpt><trkpt lat="39.62042833" lon="-0.30326857"><ele>1.4</ele><time>2022-11-09T17:32:18.0000000+00:00</time></trkpt><trkpt lat="39.62044467" lon="-0.30325173"><ele>1.4</ele><time>2022-11-09T17:32:19.0000000+00:00</time></trkpt><trkpt lat="39.62046881" lon="-0.303227"><ele>1.4</ele><time>2022-11-09T17:32:20.0000000+00:00</time></trkpt><trkpt lat="39.62049362" lon="-0.30321602"><ele>1.4</ele><time>2022-11-09T17:32:21.0000000+00:00</time></trkpt><trkpt lat="39.62051391" lon="-0.3032078"><ele>1.4</ele><time>2022-11-09T17:32:22.0000000+00:00</time></trkpt><trkpt lat="39.62052623" lon="-0.30319213"><ele>1.4</ele><time>2022-11-09T17:32:23.0000000+00:00</time></trkpt><trkpt lat="39.6205388" lon="-0.30316816"><ele>1.4</ele><time>2022-11-09T17:32:24.0000000+00:00</time></trkpt><trkpt lat="39.62054618" lon="-0.30314963"><ele>1.6</ele><time>2022-11-09T17:32:25.0000000+00:00</time></trkpt><trkpt lat="39.62055171" lon="-0.30314276"><ele>1.6</ele><time>2022-11-09T17:32:26.0000000+00:00</time></trkpt><trkpt lat="39.62055984" lon="-0.3031358"><ele>1.6</ele><time>2022-11-09T17:32:27.0000000+00:00</time></trkpt><trkpt lat="39.62057082" lon="-0.30312683"><ele>1.6</ele><time>2022-11-09T17:32:28.0000000+00:00</time></trkpt><trkpt lat="39.62057426" lon="-0.3031234"><ele>1.6</ele><time>2022-11-09T17:32:29.0000000+00:00</time></trkpt><trkpt lat="39.62057426" lon="-0.3031234"><ele>1.6</ele><time>2022-11-09T17:32:30.0000000+00:00</time></trkpt><trkpt lat="39.62057426" lon="-0.3031234"><ele>1.4</ele><time>2022-11-09T17:32:31.0000000+00:00</time></trkpt><trkpt lat="39.62057426" lon="-0.3031234"><ele>1.4</ele><time>2022-11-09T17:32:32.0000000+00:00</time></trkpt><trkpt lat="39.62057426" lon="-0.3031234"><ele>1.4</ele><time>2022-11-09T17:32:33.0000000+00:00</time></trkpt><trkpt lat="39.62057426" lon="-0.3031234"><ele>1.4</ele><time>2022-11-09T17:32:34.0000000+00:00</time></trkpt><trkpt lat="39.62057426" lon="-0.3031234"><ele>1.4</ele><time>2022-11-09T17:32:35.0000000+00:00</time></trkpt><trkpt lat="39.62057426" lon="-0.3031234"><ele>1.4</ele><time>2022-11-09T17:32:36.0000000+00:00</time></trkpt><trkpt lat="39.62057082" lon="-0.30312315"><ele>1.4</ele><time>2022-11-09T17:32:37.0000000+00:00</time></trkpt><trkpt lat="39.62057023" lon="-0.30312348"><ele>1.4</ele><time>2022-11-09T17:32:38.0000000+00:00</time></trkpt><trkpt lat="39.62057392" lon="-0.30311552"><ele>1.4</ele><time>2022-11-09T17:32:39.0000000+00:00</time></trkpt><trkpt lat="39.62057744" lon="-0.30311401"><ele>1.4</ele><time>2022-11-09T17:32:40.0000000+00:00</time></trkpt><trkpt lat="39.62057116" lon="-0.3031187"><ele>1.4</ele><time>2022-11-09T17:32:41.0000000+00:00</time></trkpt><trkpt lat="39.62056621" lon="-0.30312449"><ele>1.4</ele><time>2022-11-09T17:32:42.0000000+00:00</time></trkpt><trkpt lat="39.62056244" lon="-0.30312348"><ele>1.4</ele><time>2022-11-09T17:32:43.0000000+00:00</time></trkpt><trkpt lat="39.62055624" lon="-0.30312055"><ele>1.6</ele><time>2022-11-09T17:32:44.0000000+00:00</time></trkpt><trkpt lat="39.62055464" lon="-0.30311686"><ele>1.6</ele><time>2022-11-09T17:32:45.0000000+00:00</time></trkpt><trkpt lat="39.62055339" lon="-0.30311468"><ele>1.6</ele><time>2022-11-09T17:32:46.0000000+00:00</time></trkpt><trkpt lat="39.62055414" lon="-0.30311711"><ele>1.6</ele><time>2022-11-09T17:32:47.0000000+00:00</time></trkpt><trkpt lat="39.620544" lon="-0.30311644"><ele>1.6</ele><time>2022-11-09T17:32:48.0000000+00:00</time></trkpt><trkpt lat="39.62053168" lon="-0.30311192"><ele>1.6</ele><time>2022-11-09T17:32:49.0000000+00:00</time></trkpt><trkpt lat="39.62052145" lon="-0.30312105"><ele>1.6</ele><time>2022-11-09T17:32:50.0000000+00:00</time></trkpt><trkpt lat="39.62051366" lon="-0.30313153"><ele>1.6</ele><time>2022-11-09T17:32:51.0000000+00:00</time></trkpt></trkseg><trkseg><trkpt lat="39.48339921" lon="-0.38542849"><ele>19.8</ele><time>2022-11-10T14:57:51.0000000+00:00</time></trkpt><trkpt lat="39.48343568" lon="-0.38537837"><ele>19.8</ele><time>2022-11-10T14:57:52.0000000+00:00</time></trkpt><trkpt lat="39.4834511" lon="-0.38532883"><ele>19.8</ele><time>2022-11-10T14:57:53.0000000+00:00</time></trkpt><trkpt lat="39.48345562" lon="-0.38528508"><ele>19.8</ele><time>2022-11-10T14:57:54.0000000+00:00</time></trkpt><trkpt lat="39.4834485" lon="-0.38525633"><ele>19.8</ele><time>2022-11-10T14:57:55.0000000+00:00</time></trkpt><trkpt lat="39.48344875" lon="-0.38522942"><ele>19.8</ele><time>2022-11-10T14:57:56.0000000+00:00</time></trkpt><trkpt lat="39.48344037" lon="-0.38520344"><ele>20.0</ele><time>2022-11-10T14:57:57.0000000+00:00</time></trkpt><trkpt lat="39.48341623" lon="-0.38518592"><ele>20.0</ele><time>2022-11-10T14:57:58.0000000+00:00</time></trkpt><trkpt lat="39.4833936" lon="-0.38517368"><ele>20.0</ele><time>2022-11-10T14:57:59.0000000+00:00</time></trkpt><trkpt lat="39.48337541" lon="-0.38516035"><ele>20.0</ele><time>2022-11-10T14:58:00.0000000+00:00</time></trkpt><trkpt lat="39.48335932" lon="-0.38514636"><ele>20.0</ele><time>2022-11-10T14:58:01.0000000+00:00</time></trkpt><trkpt lat="39.48336233" lon="-0.38514074"><ele>20.0</ele><time>2022-11-10T14:58:02.0000000+00:00</time></trkpt><trkpt lat="39.48336862" lon="-0.3851249"><ele>20.0</ele><time>2022-11-10T14:58:03.0000000+00:00</time></trkpt><trkpt lat="39.48336887" lon="-0.38511274"><ele>20.0</ele><time>2022-11-10T14:58:04.0000000+00:00</time></trkpt><trkpt lat="39.48333518" lon="-0.38510646"><ele>20.0</ele><time>2022-11-10T14:58:05.0000000+00:00</time></trkpt><trkpt lat="39.48332453" lon="-0.38510134"><ele>20.0</ele><time>2022-11-10T14:58:06.0000000+00:00</time></trkpt><trkpt lat="39.4833081" lon="-0.3850964"><ele>20.0</ele><time>2022-11-10T14:58:07.0000000+00:00</time></trkpt><trkpt lat="39.48328941" lon="-0.38509506"><ele>20.0</ele><time>2022-11-10T14:58:08.0000000+00:00</time></trkpt><trkpt lat="39.48326854" lon="-0.38509757"><ele>20.0</ele><time>2022-11-10T14:58:09.0000000+00:00</time></trkpt><trkpt lat="39.48325547" lon="-0.38506086"><ele>20.0</ele><time>2022-11-10T14:58:10.0000000+00:00</time></trkpt><trkpt lat="39.48322755" lon="-0.38500495"><ele>20.0</ele><time>2022-11-10T14:58:11.0000000+00:00</time></trkpt><trkpt lat="39.48318087" lon="-0.38492709"><ele>20.0</ele><time>2022-11-10T14:58:12.0000000+00:00</time></trkpt><trkpt lat="39.48314315" lon="-0.38489448"><ele>20.0</ele><time>2022-11-10T14:58:13.0000000+00:00</time></trkpt><trkpt lat="39.48310442" lon="-0.38487302"><ele>20.0</ele><time>2022-11-10T14:58:14.0000000+00:00</time></trkpt><trkpt lat="39.48306008" lon="-0.38484293"><ele>20.0</ele><time>2022-11-10T14:58:15.0000000+00:00</time></trkpt><trkpt lat="39.48302974" lon="-0.38478719"><ele>20.0</ele><time>2022-11-10T14:58:16.0000000+00:00</time></trkpt><trkpt lat="39.48299487" lon="-0.38475819"><ele>20.0</ele><time>2022-11-10T14:58:17.0000000+00:00</time></trkpt><trkpt lat="39.48294039" lon="-0.3847058"><ele>20.0</ele><time>2022-11-10T14:58:18.0000000+00:00</time></trkpt><trkpt lat="39.48289831" lon="-0.38467102"><ele>20.0</ele><time>2022-11-10T14:58:19.0000000+00:00</time></trkpt><trkpt lat="39.4828466" lon="-0.38462232"><ele>20.0</ele><time>2022-11-10T14:58:20.0000000+00:00</time></trkpt><trkpt lat="39.4828077" lon="-0.38456566"><ele>19.8</ele><time>2022-11-10T14:58:21.0000000+00:00</time></trkpt><trkpt lat="39.48277225" lon="-0.38453012"><ele>19.6</ele><time>2022-11-10T14:58:22.0000000+00:00</time></trkpt><trkpt lat="39.48273704" lon="-0.38450447"><ele>19.4</ele><time>2022-11-10T14:58:23.0000000+00:00</time></trkpt><trkpt lat="39.48267309" lon="-0.38447497"><ele>19.2</ele><time>2022-11-10T14:58:24.0000000+00:00</time></trkpt><trkpt lat="39.48257997" lon="-0.38444119"><ele>19.2</ele><time>2022-11-10T14:58:25.0000000+00:00</time></trkpt><trkpt lat="39.48254644" lon="-0.38441151"><ele>19.2</ele><time>2022-11-10T14:58:26.0000000+00:00</time></trkpt><trkpt lat="39.48252314" lon="-0.38440481"><ele>19.2</ele><time>2022-11-10T14:58:27.0000000+00:00</time></trkpt><trkpt lat="39.48246866" lon="-0.38433583"><ele>19.2</ele><time>2022-11-10T14:58:28.0000000+00:00</time></trkpt><trkpt lat="39.48244125" lon="-0.3843199"><ele>19.2</ele><time>2022-11-10T14:58:29.0000000+00:00</time></trkpt><trkpt lat="39.48240177" lon="-0.38430599"><ele>19.2</ele><time>2022-11-10T14:58:30.0000000+00:00</time></trkpt><trkpt lat="39.48233731" lon="-0.38429819"><ele>19.2</ele><time>2022-11-10T14:58:31.0000000+00:00</time></trkpt><trkpt lat="39.48228794" lon="-0.38430096"><ele>19.2</ele><time>2022-11-10T14:58:32.0000000+00:00</time></trkpt><trkpt lat="39.48225316" lon="-0.38428595"><ele>19.2</ele><time>2022-11-10T14:58:33.0000000+00:00</time></trkpt><trkpt lat="39.48222424" lon="-0.3843204"><ele>19.2</ele><time>2022-11-10T14:58:34.0000000+00:00</time></trkpt><trkpt lat="39.48206943" lon="-0.38423072"><ele>19.2</ele><time>2022-11-10T14:58:35.0000000+00:00</time></trkpt><trkpt lat="39.48201754" lon="-0.38416224"><ele>19.4</ele><time>2022-11-10T14:58:36.0000000+00:00</time></trkpt><trkpt lat="39.48197672" lon="-0.38413868"><ele>19.4</ele><time>2022-11-10T14:58:37.0000000+00:00</time></trkpt><trkpt lat="39.48194889" lon="-0.38413273"><ele>19.4</ele><time>2022-11-10T14:58:38.0000000+00:00</time></trkpt><trkpt lat="39.48193171" lon="-0.38412066"><ele>19.4</ele><time>2022-11-10T14:58:39.0000000+00:00</time></trkpt><trkpt lat="39.4819162" lon="-0.38411622"><ele>19.4</ele><time>2022-11-10T14:58:40.0000000+00:00</time></trkpt><trkpt lat="39.48189693" lon="-0.38410993"><ele>19.4</ele><time>2022-11-10T14:58:41.0000000+00:00</time></trkpt><trkpt lat="39.4818898" lon="-0.38411077"><ele>19.4</ele><time>2022-11-10T14:58:42.0000000+00:00</time></trkpt><trkpt lat="39.48187941" lon="-0.38411253"><ele>19.4</ele><time>2022-11-10T14:58:43.0000000+00:00</time></trkpt><trkpt lat="39.48186818" lon="-0.38409837"><ele>19.6</ele><time>2022-11-10T14:58:44.0000000+00:00</time></trkpt><trkpt lat="39.48186331" lon="-0.38408688"><ele>19.6</ele><time>2022-11-10T14:58:45.0000000+00:00</time></trkpt><trkpt lat="39.48186072" lon="-0.38406509"><ele>19.6</ele><time>2022-11-10T14:58:46.0000000+00:00</time></trkpt><trkpt lat="39.48185803" lon="-0.38406652"><ele>19.6</ele><time>2022-11-10T14:58:47.0000000+00:00</time></trkpt><trkpt lat="39.48185728" lon="-0.38406702"><ele>19.6</ele><time>2022-11-10T14:58:48.0000000+00:00</time></trkpt><trkpt lat="39.48185644" lon="-0.38406693"><ele>19.4</ele><time>2022-11-10T14:58:49.0000000+00:00</time></trkpt><trkpt lat="39.48185535" lon="-0.38406584"><ele>19.4</ele><time>2022-11-10T14:58:50.0000000+00:00</time></trkpt><trkpt lat="39.48185376" lon="-0.38406417"><ele>19.4</ele><time>2022-11-10T14:58:51.0000000+00:00</time></trkpt><trkpt lat="39.48185284" lon="-0.3840635"><ele>19.4</ele><time>2022-11-10T14:58:52.0000000+00:00</time></trkpt><trkpt lat="39.48185225" lon="-0.38406258"><ele>19.4</ele><time>2022-11-10T14:58:53.0000000+00:00</time></trkpt><trkpt lat="39.48185141" lon="-0.38406174"><ele>19.6</ele><time>2022-11-10T14:58:54.0000000+00:00</time></trkpt><trkpt lat="39.48185083" lon="-0.38406165"><ele>19.6</ele><time>2022-11-10T14:58:55.0000000+00:00</time></trkpt><trkpt lat="39.48185024" lon="-0.38406107"><ele>19.6</ele><time>2022-11-10T14:58:56.0000000+00:00</time></trkpt><trkpt lat="39.48185024" lon="-0.3840604"><ele>19.6</ele><time>2022-11-10T14:58:57.0000000+00:00</time></trkpt><trkpt lat="39.48185108" lon="-0.38406048"><ele>19.6</ele><time>2022-11-10T14:58:58.0000000+00:00</time></trkpt><trkpt lat="39.48185108" lon="-0.38406048"><ele>19.6</ele><time>2022-11-10T14:58:59.0000000+00:00</time></trkpt><trkpt lat="39.48185108" lon="-0.38406048"><ele>19.6</ele><time>2022-11-10T14:59:00.0000000+00:00</time></trkpt><trkpt lat="39.48185108" lon="-0.38406048"><ele>19.6</ele><time>2022-11-10T14:59:01.0000000+00:00</time></trkpt><trkpt lat="39.48185108" lon="-0.38406048"><ele>19.6</ele><time>2022-11-10T14:59:02.0000000+00:00</time></trkpt><trkpt lat="39.48185108" lon="-0.38406048"><ele>19.6</ele><time>2022-11-10T14:59:03.0000000+00:00</time></trkpt><trkpt lat="39.48185108" lon="-0.38406048"><ele>19.6</ele><time>2022-11-10T14:59:04.0000000+00:00</time></trkpt><trkpt lat="39.48185108" lon="-0.38406048"><ele>19.6</ele><time>2022-11-10T14:59:05.0000000+00:00</time></trkpt><trkpt lat="39.48185108" lon="-0.38406048"><ele>19.6</ele><time>2022-11-10T14:59:06.0000000+00:00</time></trkpt><trkpt lat="39.48185108" lon="-0.38406048"><ele>19.6</ele><time>2022-11-10T14:59:07.0000000+00:00</time></trkpt><trkpt lat="39.48185108" lon="-0.38406048"><ele>19.6</ele><time>2022-11-10T14:59:08.0000000+00:00</time></trkpt><trkpt lat="39.48185108" lon="-0.38406048"><ele>19.6</ele><time>2022-11-10T14:59:09.0000000+00:00</time></trkpt><trkpt lat="39.48185108" lon="-0.38406048"><ele>19.6</ele><time>2022-11-10T14:59:10.0000000+00:00</time></trkpt><trkpt lat="39.48185108" lon="-0.38406048"><ele>19.6</ele><time>2022-11-10T14:59:11.0000000+00:00</time></trkpt><trkpt lat="39.48185083" lon="-0.38406048"><ele>19.6</ele><time>2022-11-10T14:59:12.0000000+00:00</time></trkpt><trkpt lat="39.48185032" lon="-0.3840604"><ele>19.6</ele><time>2022-11-10T14:59:13.0000000+00:00</time></trkpt><trkpt lat="39.48184764" lon="-0.38406006"><ele>19.6</ele><time>2022-11-10T14:59:14.0000000+00:00</time></trkpt><trkpt lat="39.48181881" lon="-0.3840583"><ele>19.6</ele><time>2022-11-10T14:59:15.0000000+00:00</time></trkpt><trkpt lat="39.48178989" lon="-0.38405168"><ele>19.6</ele><time>2022-11-10T14:59:16.0000000+00:00</time></trkpt><trkpt lat="39.48174697" lon="-0.38404472"><ele>19.6</ele><time>2022-11-10T14:59:17.0000000+00:00</time></trkpt><trkpt lat="39.48171194" lon="-0.38403232"><ele>19.6</ele><time>2022-11-10T14:59:18.0000000+00:00</time></trkpt><trkpt lat="39.48168361" lon="-0.38402016"><ele>19.6</ele><time>2022-11-10T14:59:19.0000000+00:00</time></trkpt><trkpt lat="39.48164824" lon="-0.38399837"><ele>19.6</ele><time>2022-11-10T14:59:20.0000000+00:00</time></trkpt><trkpt lat="39.48161806" lon="-0.38396057"><ele>19.6</ele><time>2022-11-10T14:59:21.0000000+00:00</time></trkpt><trkpt lat="39.4815935" lon="-0.38391153"><ele>19.6</ele><time>2022-11-10T14:59:22.0000000+00:00</time></trkpt><trkpt lat="39.48157003" lon="-0.38387055"><ele>19.6</ele><time>2022-11-10T14:59:23.0000000+00:00</time></trkpt><trkpt lat="39.4815407" lon="-0.38384339"><ele>19.6</ele><time>2022-11-10T14:59:24.0000000+00:00</time></trkpt><trkpt lat="39.48150273" lon="-0.38381632"><ele>19.6</ele><time>2022-11-10T14:59:25.0000000+00:00</time></trkpt><trkpt lat="39.48147733" lon="-0.38379762"><ele>19.6</ele><time>2022-11-10T14:59:26.0000000+00:00</time></trkpt><trkpt lat="39.48143383" lon="-0.38376586"><ele>19.8</ele><time>2022-11-10T14:59:27.0000000+00:00</time></trkpt><trkpt lat="39.48139326" lon="-0.38374088"><ele>19.6</ele><time>2022-11-10T14:59:28.0000000+00:00</time></trkpt><trkpt lat="39.48135411" lon="-0.38371774"><ele>19.8</ele><time>2022-11-10T14:59:29.0000000+00:00</time></trkpt><trkpt lat="39.48131564" lon="-0.38369536"><ele>19.8</ele><time>2022-11-10T14:59:30.0000000+00:00</time></trkpt><trkpt lat="39.48128605" lon="-0.38368153"><ele>19.6</ele><time>2022-11-10T14:59:31.0000000+00:00</time></trkpt><trkpt lat="39.48125135" lon="-0.3836615"><ele>19.8</ele><time>2022-11-10T14:59:32.0000000+00:00</time></trkpt><trkpt lat="39.48120098" lon="-0.38363108"><ele>20.0</ele><time>2022-11-10T14:59:33.0000000+00:00</time></trkpt><trkpt lat="39.48116225" lon="-0.38361046"><ele>20.2</ele><time>2022-11-10T14:59:34.0000000+00:00</time></trkpt><trkpt lat="39.48111305" lon="-0.38357383"><ele>20.4</ele><time>2022-11-10T14:59:35.0000000+00:00</time></trkpt><trkpt lat="39.48107919" lon="-0.38355094"><ele>20.4</ele><time>2022-11-10T14:59:36.0000000+00:00</time></trkpt><trkpt lat="39.48103636" lon="-0.38352337"><ele>20.4</ele><time>2022-11-10T14:59:37.0000000+00:00</time></trkpt><trkpt lat="39.48099076" lon="-0.38349453"><ele>20.4</ele><time>2022-11-10T14:59:38.0000000+00:00</time></trkpt><trkpt lat="39.48093628" lon="-0.3834595"><ele>20.4</ele><time>2022-11-10T14:59:39.0000000+00:00</time></trkpt><trkpt lat="39.48089973" lon="-0.38343754"><ele>20.4</ele><time>2022-11-10T14:59:40.0000000+00:00</time></trkpt><trkpt lat="39.48085212" lon="-0.38340334"><ele>20.4</ele><time>2022-11-10T14:59:41.0000000+00:00</time></trkpt><trkpt lat="39.48079043" lon="-0.38336352"><ele>20.6</ele><time>2022-11-10T14:59:42.0000000+00:00</time></trkpt><trkpt lat="39.4807341" lon="-0.38333436"><ele>20.8</ele><time>2022-11-10T14:59:43.0000000+00:00</time></trkpt><trkpt lat="39.48068775" lon="-0.38331432"><ele>21.0</ele><time>2022-11-10T14:59:44.0000000+00:00</time></trkpt><trkpt lat="39.48062422" lon="-0.38327468"><ele>21.0</ele><time>2022-11-10T14:59:45.0000000+00:00</time></trkpt><trkpt lat="39.48057208" lon="-0.38323964"><ele>21.0</ele><time>2022-11-10T14:59:46.0000000+00:00</time></trkpt><trkpt lat="39.48052255" lon="-0.38320561"><ele>21.0</ele><time>2022-11-10T14:59:47.0000000+00:00</time></trkpt><trkpt lat="39.48047703" lon="-0.38317401"><ele>21.0</ele><time>2022-11-10T14:59:48.0000000+00:00</time></trkpt><trkpt lat="39.48043378" lon="-0.3831435"><ele>21.0</ele><time>2022-11-10T14:59:49.0000000+00:00</time></trkpt><trkpt lat="39.48039372" lon="-0.38311835"><ele>21.0</ele><time>2022-11-10T14:59:50.0000000+00:00</time></trkpt><trkpt lat="39.48036337" lon="-0.38309321"><ele>21.0</ele><time>2022-11-10T14:59:51.0000000+00:00</time></trkpt><trkpt lat="39.48032783" lon="-0.3830653"><ele>21.0</ele><time>2022-11-10T14:59:52.0000000+00:00</time></trkpt><trkpt lat="39.48029037" lon="-0.38303864"><ele>21.0</ele><time>2022-11-10T14:59:53.0000000+00:00</time></trkpt><trkpt lat="39.48026128" lon="-0.38302632"><ele>21.0</ele><time>2022-11-10T14:59:54.0000000+00:00</time></trkpt><trkpt lat="39.48023588" lon="-0.38302607"><ele>21.0</ele><time>2022-11-10T14:59:55.0000000+00:00</time></trkpt><trkpt lat="39.48022298" lon="-0.38303562"><ele>21.0</ele><time>2022-11-10T14:59:56.0000000+00:00</time></trkpt><trkpt lat="39.48020747" lon="-0.38304887"><ele>21.0</ele><time>2022-11-10T14:59:57.0000000+00:00</time></trkpt><trkpt lat="39.48017956" lon="-0.38306169"><ele>21.0</ele><time>2022-11-10T14:59:58.0000000+00:00</time></trkpt><trkpt lat="39.48014746" lon="-0.38307393"><ele>21.0</ele><time>2022-11-10T14:59:59.0000000+00:00</time></trkpt><trkpt lat="39.48011091" lon="-0.38308273"><ele>21.2</ele><time>2022-11-10T15:00:00.0000000+00:00</time></trkpt><trkpt lat="39.48007269" lon="-0.38309111"><ele>21.2</ele><time>2022-11-10T15:00:01.0000000+00:00</time></trkpt><trkpt lat="39.4800307" lon="-0.38311098"><ele>21.2</ele><time>2022-11-10T15:00:02.0000000+00:00</time></trkpt><trkpt lat="39.48000538" lon="-0.3831295"><ele>21.0</ele><time>2022-11-10T15:00:03.0000000+00:00</time></trkpt><trkpt lat="39.47996163" lon="-0.38314828"><ele>21.0</ele><time>2022-11-10T15:00:04.0000000+00:00</time></trkpt><trkpt lat="39.47992777" lon="-0.38316244"><ele>21.0</ele><time>2022-11-10T15:00:05.0000000+00:00</time></trkpt><trkpt lat="39.47988024" lon="-0.38317024"><ele>21.0</ele><time>2022-11-10T15:00:06.0000000+00:00</time></trkpt><trkpt lat="39.47982961" lon="-0.38317937"><ele>21.0</ele><time>2022-11-10T15:00:07.0000000+00:00</time></trkpt><trkpt lat="39.47978536" lon="-0.38319287"><ele>20.8</ele><time>2022-11-10T15:00:08.0000000+00:00</time></trkpt><trkpt lat="39.47974739" lon="-0.38320947"><ele>20.8</ele><time>2022-11-10T15:00:09.0000000+00:00</time></trkpt><trkpt lat="39.47970506" lon="-0.38322925"><ele>20.8</ele><time>2022-11-10T15:00:10.0000000+00:00</time></trkpt><trkpt lat="39.47964764" lon="-0.38325188"><ele>21.0</ele><time>2022-11-10T15:00:11.0000000+00:00</time></trkpt><trkpt lat="39.47958821" lon="-0.38327795"><ele>21.0</ele><time>2022-11-10T15:00:12.0000000+00:00</time></trkpt><trkpt lat="39.47952745" lon="-0.38329613"><ele>21.2</ele><time>2022-11-10T15:00:13.0000000+00:00</time></trkpt><trkpt lat="39.4794676" lon="-0.38331273"><ele>21.2</ele><time>2022-11-10T15:00:14.0000000+00:00</time></trkpt><trkpt lat="39.47942452" lon="-0.38332715"><ele>21.4</ele><time>2022-11-10T15:00:15.0000000+00:00</time></trkpt><trkpt lat="39.47936542" lon="-0.3833481"><ele>21.4</ele><time>2022-11-10T15:00:16.0000000+00:00</time></trkpt><trkpt lat="39.4793189" lon="-0.38336327"><ele>21.4</ele><time>2022-11-10T15:00:17.0000000+00:00</time></trkpt><trkpt lat="39.47926878" lon="-0.38337945"><ele>21.6</ele><time>2022-11-10T15:00:18.0000000+00:00</time></trkpt><trkpt lat="39.4792169" lon="-0.38339722"><ele>21.6</ele><time>2022-11-10T15:00:19.0000000+00:00</time></trkpt><trkpt lat="39.47915722" lon="-0.38341541"><ele>21.6</ele><time>2022-11-10T15:00:20.0000000+00:00</time></trkpt><trkpt lat="39.47909377" lon="-0.38343821"><ele>21.4</ele><time>2022-11-10T15:00:21.0000000+00:00</time></trkpt><trkpt lat="39.47903451" lon="-0.3834595"><ele>21.6</ele><time>2022-11-10T15:00:22.0000000+00:00</time></trkpt><trkpt lat="39.47896862" lon="-0.38347744"><ele>21.8</ele><time>2022-11-10T15:00:23.0000000+00:00</time></trkpt><trkpt lat="39.47889981" lon="-0.38349629"><ele>21.6</ele><time>2022-11-10T15:00:24.0000000+00:00</time></trkpt><trkpt lat="39.47883787" lon="-0.3835149"><ele>21.6</ele><time>2022-11-10T15:00:25.0000000+00:00</time></trkpt><trkpt lat="39.47878271" lon="-0.38353209"><ele>21.8</ele><time>2022-11-10T15:00:26.0000000+00:00</time></trkpt><trkpt lat="39.47873091" lon="-0.38354793"><ele>21.8</ele><time>2022-11-10T15:00:27.0000000+00:00</time></trkpt><trkpt lat="39.47867744" lon="-0.38356377"><ele>21.8</ele><time>2022-11-10T15:00:28.0000000+00:00</time></trkpt><trkpt lat="39.4786315" lon="-0.38358003"><ele>21.8</ele><time>2022-11-10T15:00:29.0000000+00:00</time></trkpt><trkpt lat="39.47858616" lon="-0.38359964"><ele>21.8</ele><time>2022-11-10T15:00:30.0000000+00:00</time></trkpt><trkpt lat="39.47854651" lon="-0.38362512"><ele>21.8</ele><time>2022-11-10T15:00:31.0000000+00:00</time></trkpt><trkpt lat="39.47851164" lon="-0.38365019"><ele>21.8</ele><time>2022-11-10T15:00:32.0000000+00:00</time></trkpt><trkpt lat="39.47847191" lon="-0.38366653"><ele>21.8</ele><time>2022-11-10T15:00:33.0000000+00:00</time></trkpt><trkpt lat="39.47842984" lon="-0.38367877"><ele>21.6</ele><time>2022-11-10T15:00:34.0000000+00:00</time></trkpt><trkpt lat="39.47841349" lon="-0.38368346"><ele>21.6</ele><time>2022-11-10T15:00:35.0000000+00:00</time></trkpt><trkpt lat="39.47841684" lon="-0.38367684"><ele>21.4</ele><time>2022-11-10T15:00:36.0000000+00:00</time></trkpt><trkpt lat="39.4784264" lon="-0.38369117"><ele>21.2</ele><time>2022-11-10T15:00:37.0000000+00:00</time></trkpt><trkpt lat="39.47842908" lon="-0.38369587"><ele>21.2</ele><time>2022-11-10T15:00:38.0000000+00:00</time></trkpt><trkpt lat="39.47843269" lon="-0.38370173"><ele>21.2</ele><time>2022-11-10T15:00:39.0000000+00:00</time></trkpt><trkpt lat="39.47843646" lon="-0.38370383"><ele>21.0</ele><time>2022-11-10T15:00:40.0000000+00:00</time></trkpt><trkpt lat="39.4784326" lon="-0.38370676"><ele>21.0</ele><time>2022-11-10T15:00:41.0000000+00:00</time></trkpt><trkpt lat="39.47840997" lon="-0.38371364"><ele>21.0</ele><time>2022-11-10T15:00:42.0000000+00:00</time></trkpt><trkpt lat="39.47837628" lon="-0.38372638"><ele>21.2</ele><time>2022-11-10T15:00:43.0000000+00:00</time></trkpt><trkpt lat="39.47833629" lon="-0.38374096"><ele>21.2</ele><time>2022-11-10T15:00:44.0000000+00:00</time></trkpt><trkpt lat="39.47828902" lon="-0.3837501"><ele>21.2</ele><time>2022-11-10T15:00:45.0000000+00:00</time></trkpt><trkpt lat="39.4782482" lon="-0.38375597"><ele>21.4</ele><time>2022-11-10T15:00:46.0000000+00:00</time></trkpt><trkpt lat="39.47820973" lon="-0.383762"><ele>21.4</ele><time>2022-11-10T15:00:47.0000000+00:00</time></trkpt><trkpt lat="39.47817729" lon="-0.38376502"><ele>21.6</ele><time>2022-11-10T15:00:48.0000000+00:00</time></trkpt><trkpt lat="39.4781125" lon="-0.3837682"><ele>21.6</ele><time>2022-11-10T15:00:49.0000000+00:00</time></trkpt><trkpt lat="39.47806598" lon="-0.38377499"><ele>21.8</ele><time>2022-11-10T15:00:50.0000000+00:00</time></trkpt><trkpt lat="39.47802709" lon="-0.38378698"><ele>21.8</ele><time>2022-11-10T15:00:51.0000000+00:00</time></trkpt><trkpt lat="39.47798568" lon="-0.38380634"><ele>21.8</ele><time>2022-11-10T15:00:52.0000000+00:00</time></trkpt><trkpt lat="39.4779514" lon="-0.38382101"><ele>21.8</ele><time>2022-11-10T15:00:53.0000000+00:00</time></trkpt><trkpt lat="39.47788267" lon="-0.3838345"><ele>22.0</ele><time>2022-11-10T15:00:54.0000000+00:00</time></trkpt><trkpt lat="39.4778276" lon="-0.38384305"><ele>22.0</ele><time>2022-11-10T15:00:55.0000000+00:00</time></trkpt><trkpt lat="39.47777194" lon="-0.38385118"><ele>22.0</ele><time>2022-11-10T15:00:56.0000000+00:00</time></trkpt><trkpt lat="39.47771863" lon="-0.38385923"><ele>22.0</ele><time>2022-11-10T15:00:57.0000000+00:00</time></trkpt><trkpt lat="39.47765711" lon="-0.38386971"><ele>22.0</ele><time>2022-11-10T15:00:58.0000000+00:00</time></trkpt><trkpt lat="39.47759341" lon="-0.38387968"><ele>22.0</ele><time>2022-11-10T15:00:59.0000000+00:00</time></trkpt><trkpt lat="39.47754948" lon="-0.38389167"><ele>22.0</ele><time>2022-11-10T15:01:00.0000000+00:00</time></trkpt><trkpt lat="39.47749123" lon="-0.38390609"><ele>22.0</ele><time>2022-11-10T15:01:01.0000000+00:00</time></trkpt><trkpt lat="39.47743549" lon="-0.38392813"><ele>22.2</ele><time>2022-11-10T15:01:02.0000000+00:00</time></trkpt><trkpt lat="39.47740599" lon="-0.3839459"><ele>22.2</ele><time>2022-11-10T15:01:03.0000000+00:00</time></trkpt><trkpt lat="39.47736936" lon="-0.3839609"><ele>22.4</ele><time>2022-11-10T15:01:04.0000000+00:00</time></trkpt><trkpt lat="39.47732938" lon="-0.38397834"><ele>22.4</ele><time>2022-11-10T15:01:05.0000000+00:00</time></trkpt><trkpt lat="39.47728604" lon="-0.38399401"><ele>22.4</ele><time>2022-11-10T15:01:06.0000000+00:00</time></trkpt><trkpt lat="39.47723952" lon="-0.38399963"><ele>22.4</ele><time>2022-11-10T15:01:07.0000000+00:00</time></trkpt><trkpt lat="39.47723952" lon="-0.38399963"><ele>22.4</ele><time>2022-11-10T15:01:08.0000000+00:00</time></trkpt><trkpt lat="39.47712243" lon="-0.38401128"><ele>22.4</ele><time>2022-11-10T15:01:09.0000000+00:00</time></trkpt><trkpt lat="39.47705939" lon="-0.38402184"><ele>22.4</ele><time>2022-11-10T15:01:10.0000000+00:00</time></trkpt><trkpt lat="39.47700022" lon="-0.38403232"><ele>22.4</ele><time>2022-11-10T15:01:11.0000000+00:00</time></trkpt><trkpt lat="39.47694683" lon="-0.3840443"><ele>22.4</ele><time>2022-11-10T15:01:12.0000000+00:00</time></trkpt><trkpt lat="39.47688522" lon="-0.38405478"><ele>22.4</ele><time>2022-11-10T15:01:13.0000000+00:00</time></trkpt><trkpt lat="39.47681464" lon="-0.38406241"><ele>22.4</ele><time>2022-11-10T15:01:14.0000000+00:00</time></trkpt><trkpt lat="39.47674625" lon="-0.38406593"><ele>22.4</ele><time>2022-11-10T15:01:15.0000000+00:00</time></trkpt><trkpt lat="39.47666042" lon="-0.3840666"><ele>22.4</ele><time>2022-11-10T15:01:16.0000000+00:00</time></trkpt><trkpt lat="39.47659219" lon="-0.38407163"><ele>22.4</ele><time>2022-11-10T15:01:17.0000000+00:00</time></trkpt><trkpt lat="39.47653125" lon="-0.38408504"><ele>22.4</ele><time>2022-11-10T15:01:18.0000000+00:00</time></trkpt><trkpt lat="39.47648456" lon="-0.38409937"><ele>22.4</ele><time>2022-11-10T15:01:19.0000000+00:00</time></trkpt><trkpt lat="39.47641365" lon="-0.38411882"><ele>22.4</ele><time>2022-11-10T15:01:20.0000000+00:00</time></trkpt><trkpt lat="39.47635448" lon="-0.38413248"><ele>22.4</ele><time>2022-11-10T15:01:21.0000000+00:00</time></trkpt><trkpt lat="39.47629186" lon="-0.3841443"><ele>22.4</ele><time>2022-11-10T15:01:22.0000000+00:00</time></trkpt><trkpt lat="39.47622665" lon="-0.3841495"><ele>22.2</ele><time>2022-11-10T15:01:23.0000000+00:00</time></trkpt><trkpt lat="39.47617644" lon="-0.38415654"><ele>22.0</ele><time>2022-11-10T15:01:24.0000000+00:00</time></trkpt><trkpt lat="39.476099" lon="-0.38415176"><ele>22.0</ele><time>2022-11-10T15:01:25.0000000+00:00</time></trkpt><trkpt lat="39.4760306" lon="-0.38413416"><ele>22.0</ele><time>2022-11-10T15:01:26.0000000+00:00</time></trkpt><trkpt lat="39.47598333" lon="-0.38412368"><ele>21.8</ele><time>2022-11-10T15:01:27.0000000+00:00</time></trkpt><trkpt lat="39.47595684" lon="-0.38411798"><ele>21.8</ele><time>2022-11-10T15:01:28.0000000+00:00</time></trkpt><trkpt lat="39.47593781" lon="-0.38410591"><ele>21.8</ele><time>2022-11-10T15:01:29.0000000+00:00</time></trkpt><trkpt lat="39.47590822" lon="-0.38411253"><ele>21.8</ele><time>2022-11-10T15:01:30.0000000+00:00</time></trkpt><trkpt lat="39.4759104" lon="-0.38411438"><ele>21.6</ele><time>2022-11-10T15:01:31.0000000+00:00</time></trkpt><trkpt lat="39.47589347" lon="-0.38409962"><ele>21.6</ele><time>2022-11-10T15:01:32.0000000+00:00</time></trkpt><trkpt lat="39.47589154" lon="-0.38409879"><ele>21.6</ele><time>2022-11-10T15:01:33.0000000+00:00</time></trkpt><trkpt lat="39.47586933" lon="-0.38409744"><ele>21.6</ele><time>2022-11-10T15:01:34.0000000+00:00</time></trkpt><trkpt lat="39.47582751" lon="-0.38409677"><ele>21.6</ele><time>2022-11-10T15:01:35.0000000+00:00</time></trkpt><trkpt lat="39.47575727" lon="-0.38409392"><ele>21.6</ele><time>2022-11-10T15:01:36.0000000+00:00</time></trkpt><trkpt lat="39.47576414" lon="-0.38406869"><ele>21.6</ele><time>2022-11-10T15:01:37.0000000+00:00</time></trkpt><trkpt lat="39.47570806" lon="-0.38400332"><ele>21.8</ele><time>2022-11-10T15:01:40.0000000+00:00</time></trkpt><trkpt lat="39.47569675" lon="-0.38398312"><ele>21.8</ele><time>2022-11-10T15:01:41.0000000+00:00</time></trkpt><trkpt lat="39.47568292" lon="-0.38397624"><ele>21.8</ele><time>2022-11-10T15:01:42.0000000+00:00</time></trkpt><trkpt lat="39.47565861" lon="-0.38395026"><ele>21.8</ele><time>2022-11-10T15:01:43.0000000+00:00</time></trkpt><trkpt lat="39.47564688" lon="-0.38393995"><ele>21.8</ele><time>2022-11-10T15:01:44.0000000+00:00</time></trkpt><trkpt lat="39.47563497" lon="-0.3839485"><ele>21.8</ele><time>2022-11-10T15:01:45.0000000+00:00</time></trkpt><trkpt lat="39.47563229" lon="-0.3839366"><ele>21.8</ele><time>2022-11-10T15:01:46.0000000+00:00</time></trkpt><trkpt lat="39.47562391" lon="-0.38392528"><ele>21.8</ele><time>2022-11-10T15:01:47.0000000+00:00</time></trkpt><trkpt lat="39.47558368" lon="-0.38392738"><ele>21.8</ele><time>2022-11-10T15:01:48.0000000+00:00</time></trkpt><trkpt lat="39.47556398" lon="-0.38390826"><ele>21.8</ele><time>2022-11-10T15:01:49.0000000+00:00</time></trkpt><trkpt lat="39.47557731" lon="-0.38391388"><ele>21.8</ele><time>2022-11-10T15:01:50.0000000+00:00</time></trkpt><trkpt lat="39.47558628" lon="-0.38392293"><ele>21.8</ele><time>2022-11-10T15:01:51.0000000+00:00</time></trkpt><trkpt lat="39.47558703" lon="-0.3839324"><ele>21.8</ele><time>2022-11-10T15:01:52.0000000+00:00</time></trkpt><trkpt lat="39.47557387" lon="-0.38394028"><ele>21.8</ele><time>2022-11-10T15:01:53.0000000+00:00</time></trkpt><trkpt lat="39.47555317" lon="-0.38394045"><ele>21.8</ele><time>2022-11-10T15:01:54.0000000+00:00</time></trkpt><trkpt lat="39.47553674" lon="-0.38393584"><ele>21.8</ele><time>2022-11-10T15:01:55.0000000+00:00</time></trkpt><trkpt lat="39.47553833" lon="-0.38393425"><ele>21.8</ele><time>2022-11-10T15:01:56.0000000+00:00</time></trkpt><trkpt lat="39.47553598" lon="-0.38391958"><ele>21.8</ele><time>2022-11-10T15:01:57.0000000+00:00</time></trkpt><trkpt lat="39.47552257" lon="-0.38389544"><ele>21.8</ele><time>2022-11-10T15:01:58.0000000+00:00</time></trkpt><trkpt lat="39.47550044" lon="-0.3838687"><ele>21.8</ele><time>2022-11-10T15:01:59.0000000+00:00</time></trkpt><trkpt lat="39.47548167" lon="-0.38384942"><ele>21.8</ele><time>2022-11-10T15:02:00.0000000+00:00</time></trkpt><trkpt lat="39.47547589" lon="-0.38384372"><ele>21.8</ele><time>2022-11-10T15:02:01.0000000+00:00</time></trkpt><trkpt lat="39.47548603" lon="-0.38387407"><ele>21.8</ele><time>2022-11-10T15:02:02.0000000+00:00</time></trkpt><trkpt lat="39.4754955" lon="-0.38391145"><ele>21.8</ele><time>2022-11-10T15:02:03.0000000+00:00</time></trkpt><trkpt lat="39.47551318" lon="-0.38395646"><ele>21.8</ele><time>2022-11-10T15:02:04.0000000+00:00</time></trkpt><trkpt lat="39.47551117" lon="-0.38396224"><ele>21.8</ele><time>2022-11-10T15:02:05.0000000+00:00</time></trkpt><trkpt lat="39.47551821" lon="-0.3839832"><ele>21.8</ele><time>2022-11-10T15:02:06.0000000+00:00</time></trkpt><trkpt lat="39.47552442" lon="-0.38399083"><ele>21.8</ele><time>2022-11-10T15:02:07.0000000+00:00</time></trkpt><trkpt lat="39.47552123" lon="-0.38399753"><ele>21.8</ele><time>2022-11-10T15:02:10.0000000+00:00</time></trkpt><trkpt lat="39.47551436" lon="-0.38400038"><ele>21.8</ele><time>2022-11-10T15:02:11.0000000+00:00</time></trkpt><trkpt lat="39.47551553" lon="-0.38399284"><ele>22.0</ele><time>2022-11-10T15:02:12.0000000+00:00</time></trkpt><trkpt lat="39.47551302" lon="-0.38398664"><ele>22.0</ele><time>2022-11-10T15:02:13.0000000+00:00</time></trkpt><trkpt lat="39.47546348" lon="-0.38399074"><ele>22.0</ele><time>2022-11-10T15:02:14.0000000+00:00</time></trkpt><trkpt lat="39.4754126" lon="-0.3840153"><ele>22.0</ele><time>2022-11-10T15:02:15.0000000+00:00</time></trkpt><trkpt lat="39.47537178" lon="-0.38402947"><ele>22.0</ele><time>2022-11-10T15:02:16.0000000+00:00</time></trkpt><trkpt lat="39.47531126" lon="-0.38406635"><ele>22.0</ele><time>2022-11-10T15:02:17.0000000+00:00</time></trkpt><trkpt lat="39.475252" lon="-0.38409258"><ele>22.0</ele><time>2022-11-10T15:02:18.0000000+00:00</time></trkpt><trkpt lat="39.475208" lon="-0.38411991"><ele>21.8</ele><time>2022-11-10T15:02:19.0000000+00:00</time></trkpt><trkpt lat="39.47516919" lon="-0.38414438"><ele>21.6</ele><time>2022-11-10T15:02:20.0000000+00:00</time></trkpt><trkpt lat="39.47511798" lon="-0.38416391"><ele>21.6</ele><time>2022-11-10T15:02:21.0000000+00:00</time></trkpt><trkpt lat="39.47509191" lon="-0.38418269"><ele>21.4</ele><time>2022-11-10T15:02:22.0000000+00:00</time></trkpt><trkpt lat="39.47505687" lon="-0.3841868"><ele>21.4</ele><time>2022-11-10T15:02:23.0000000+00:00</time></trkpt><trkpt lat="39.47499904" lon="-0.38418286"><ele>21.4</ele><time>2022-11-10T15:02:24.0000000+00:00</time></trkpt><trkpt lat="39.47495068" lon="-0.38419283"><ele>21.4</ele><time>2022-11-10T15:02:25.0000000+00:00</time></trkpt><trkpt lat="39.47487038" lon="-0.38420767"><ele>21.2</ele><time>2022-11-10T15:02:26.0000000+00:00</time></trkpt><trkpt lat="39.47478094" lon="-0.38420976"><ele>21.2</ele><time>2022-11-10T15:02:27.0000000+00:00</time></trkpt><trkpt lat="39.47470735" lon="-0.38419409"><ele>21.2</ele><time>2022-11-10T15:02:28.0000000+00:00</time></trkpt><trkpt lat="39.47463593" lon="-0.38417883"><ele>21.2</ele><time>2022-11-10T15:02:29.0000000+00:00</time></trkpt><trkpt lat="39.47456645" lon="-0.38416433"><ele>21.4</ele><time>2022-11-10T15:02:30.0000000+00:00</time></trkpt><trkpt lat="39.47449545" lon="-0.38414924"><ele>21.4</ele><time>2022-11-10T15:02:31.0000000+00:00</time></trkpt><trkpt lat="39.47442194" lon="-0.38412888"><ele>21.4</ele><time>2022-11-10T15:02:32.0000000+00:00</time></trkpt><trkpt lat="39.47434626" lon="-0.38407833"><ele>21.4</ele><time>2022-11-10T15:02:33.0000000+00:00</time></trkpt><trkpt lat="39.47427576" lon="-0.3840474"><ele>21.4</ele><time>2022-11-10T15:02:34.0000000+00:00</time></trkpt><trkpt lat="39.4742222" lon="-0.38403659"><ele>21.4</ele><time>2022-11-10T15:02:35.0000000+00:00</time></trkpt><trkpt lat="39.47415741" lon="-0.38401187"><ele>21.4</ele><time>2022-11-10T15:02:36.0000000+00:00</time></trkpt><trkpt lat="39.47410829" lon="-0.38399804"><ele>21.4</ele><time>2022-11-10T15:02:37.0000000+00:00</time></trkpt><trkpt lat="39.47405314" lon="-0.38397683"><ele>21.4</ele><time>2022-11-10T15:02:38.0000000+00:00</time></trkpt><trkpt lat="39.47399749" lon="-0.38396099"><ele>21.2</ele><time>2022-11-10T15:02:39.0000000+00:00</time></trkpt><trkpt lat="39.47394728" lon="-0.38395772"><ele>21.2</ele><time>2022-11-10T15:02:40.0000000+00:00</time></trkpt><trkpt lat="39.47389321" lon="-0.38395872"><ele>21.0</ele><time>2022-11-10T15:02:41.0000000+00:00</time></trkpt><trkpt lat="39.47382482" lon="-0.38394422"><ele>21.0</ele><time>2022-11-10T15:02:42.0000000+00:00</time></trkpt><trkpt lat="39.47375282" lon="-0.38397197"><ele>21.0</ele><time>2022-11-10T15:02:43.0000000+00:00</time></trkpt><trkpt lat="39.47368367" lon="-0.38398613"><ele>21.0</ele><time>2022-11-10T15:02:44.0000000+00:00</time></trkpt><trkpt lat="39.47364938" lon="-0.38400508"><ele>20.8</ele><time>2022-11-10T15:02:45.0000000+00:00</time></trkpt><trkpt lat="39.47358811" lon="-0.3840029"><ele>20.6</ele><time>2022-11-10T15:02:46.0000000+00:00</time></trkpt><trkpt lat="39.47352986" lon="-0.3839915"><ele>20.6</ele><time>2022-11-10T15:02:47.0000000+00:00</time></trkpt><trkpt lat="39.47347345" lon="-0.38398152"><ele>20.4</ele><time>2022-11-10T15:02:48.0000000+00:00</time></trkpt><trkpt lat="39.47343112" lon="-0.3839858"><ele>20.4</ele><time>2022-11-10T15:02:49.0000000+00:00</time></trkpt><trkpt lat="39.47339231" lon="-0.38399259"><ele>20.4</ele><time>2022-11-10T15:02:50.0000000+00:00</time></trkpt><trkpt lat="39.47334923" lon="-0.3839956"><ele>20.4</ele><time>2022-11-10T15:02:51.0000000+00:00</time></trkpt><trkpt lat="39.4733012" lon="-0.38399929"><ele>20.4</ele><time>2022-11-10T15:02:52.0000000+00:00</time></trkpt><trkpt lat="39.47325368" lon="-0.38399686"><ele>20.4</ele><time>2022-11-10T15:02:53.0000000+00:00</time></trkpt><trkpt lat="39.47319534" lon="-0.3839884"><ele>20.2</ele><time>2022-11-10T15:02:54.0000000+00:00</time></trkpt><trkpt lat="39.4731427" lon="-0.38398353"><ele>20.4</ele><time>2022-11-10T15:02:55.0000000+00:00</time></trkpt><trkpt lat="39.47309207" lon="-0.38398035"><ele>20.4</ele><time>2022-11-10T15:02:56.0000000+00:00</time></trkpt><trkpt lat="39.47302778" lon="-0.38396183"><ele>20.4</ele><time>2022-11-10T15:02:57.0000000+00:00</time></trkpt><trkpt lat="39.47297347" lon="-0.38395009"><ele>20.4</ele><time>2022-11-10T15:02:58.0000000+00:00</time></trkpt><trkpt lat="39.47296492" lon="-0.38394942"><ele>20.4</ele><time>2022-11-10T15:02:59.0000000+00:00</time></trkpt><trkpt lat="39.47296844" lon="-0.38394791"><ele>20.6</ele><time>2022-11-10T15:03:00.0000000+00:00</time></trkpt><trkpt lat="39.47297481" lon="-0.3839319"><ele>20.6</ele><time>2022-11-10T15:03:01.0000000+00:00</time></trkpt><trkpt lat="39.47296609" lon="-0.38392721"><ele>20.6</ele><time>2022-11-10T15:03:02.0000000+00:00</time></trkpt><trkpt lat="39.47293994" lon="-0.38392947"><ele>20.6</ele><time>2022-11-10T15:03:03.0000000+00:00</time></trkpt><trkpt lat="39.47297447" lon="-0.38392436"><ele>20.6</ele><time>2022-11-10T15:03:04.0000000+00:00</time></trkpt><trkpt lat="39.47298244" lon="-0.38391179"><ele>20.6</ele><time>2022-11-10T15:03:05.0000000+00:00</time></trkpt><trkpt lat="39.47297012" lon="-0.3839065"><ele>20.6</ele><time>2022-11-10T15:03:06.0000000+00:00</time></trkpt><trkpt lat="39.47295461" lon="-0.38390843"><ele>20.6</ele><time>2022-11-10T15:03:07.0000000+00:00</time></trkpt><trkpt lat="39.47293868" lon="-0.38391153"><ele>20.6</ele><time>2022-11-10T15:03:08.0000000+00:00</time></trkpt><trkpt lat="39.47292217" lon="-0.38390148"><ele>20.6</ele><time>2022-11-10T15:03:09.0000000+00:00</time></trkpt><trkpt lat="39.47291446" lon="-0.38388957"><ele>20.4</ele><time>2022-11-10T15:03:10.0000000+00:00</time></trkpt><trkpt lat="39.47287557" lon="-0.383905"><ele>20.4</ele><time>2022-11-10T15:03:11.0000000+00:00</time></trkpt><trkpt lat="39.47281865" lon="-0.38392562"><ele>20.4</ele><time>2022-11-10T15:03:12.0000000+00:00</time></trkpt><trkpt lat="39.4727552" lon="-0.38393023"><ele>20.4</ele><time>2022-11-10T15:03:13.0000000+00:00</time></trkpt><trkpt lat="39.47268161" lon="-0.38393391"><ele>20.4</ele><time>2022-11-10T15:03:14.0000000+00:00</time></trkpt><trkpt lat="39.47259612" lon="-0.38393106"><ele>20.4</ele><time>2022-11-10T15:03:15.0000000+00:00</time></trkpt><trkpt lat="39.47251615" lon="-0.38392754"><ele>20.4</ele><time>2022-11-10T15:03:16.0000000+00:00</time></trkpt><trkpt lat="39.47246745" lon="-0.38393173"><ele>20.4</ele><time>2022-11-10T15:03:17.0000000+00:00</time></trkpt><trkpt lat="39.47242739" lon="-0.38394087"><ele>20.4</ele><time>2022-11-10T15:03:18.0000000+00:00</time></trkpt><trkpt lat="39.47238715" lon="-0.38393199"><ele>20.4</ele><time>2022-11-10T15:03:19.0000000+00:00</time></trkpt><trkpt lat="39.47235153" lon="-0.38391656"><ele>20.4</ele><time>2022-11-10T15:03:20.0000000+00:00</time></trkpt><trkpt lat="39.4723149" lon="-0.38390156"><ele>20.4</ele><time>2022-11-10T15:03:21.0000000+00:00</time></trkpt><trkpt lat="39.4722652" lon="-0.3838972"><ele>20.4</ele><time>2022-11-10T15:03:22.0000000+00:00</time></trkpt><trkpt lat="39.47222756" lon="-0.3838889"><ele>20.4</ele><time>2022-11-10T15:03:23.0000000+00:00</time></trkpt><trkpt lat="39.47184141" lon="-0.3838014"><ele>20.4</ele><time>2022-11-10T15:03:30.0000000+00:00</time></trkpt><trkpt lat="39.47179481" lon="-0.38378513"><ele>20.4</ele><time>2022-11-10T15:03:31.0000000+00:00</time></trkpt><trkpt lat="39.47172985" lon="-0.38376301"><ele>20.4</ele><time>2022-11-10T15:03:32.0000000+00:00</time></trkpt><trkpt lat="39.47169095" lon="-0.38373945"><ele>20.2</ele><time>2022-11-10T15:03:33.0000000+00:00</time></trkpt><trkpt lat="39.47073944" lon="-0.38349722"><ele>19.6</ele><time>2022-11-10T15:03:46.0000000+00:00</time></trkpt><trkpt lat="39.47071279" lon="-0.38349998"><ele>19.4</ele><time>2022-11-10T15:03:47.0000000+00:00</time></trkpt><trkpt lat="39.47068119" lon="-0.3835056"><ele>19.2</ele><time>2022-11-10T15:03:48.0000000+00:00</time></trkpt><trkpt lat="39.47065093" lon="-0.3835149"><ele>19.2</ele><time>2022-11-10T15:03:49.0000000+00:00</time></trkpt><trkpt lat="39.47061606" lon="-0.3835139"><ele>19.2</ele><time>2022-11-10T15:03:50.0000000+00:00</time></trkpt><trkpt lat="39.47058815" lon="-0.38350702"><ele>19.2</ele><time>2022-11-10T15:03:51.0000000+00:00</time></trkpt><trkpt lat="39.47056937" lon="-0.38349998"><ele>19.0</ele><time>2022-11-10T15:03:52.0000000+00:00</time></trkpt><trkpt lat="39.47056468" lon="-0.38349646"><ele>19.2</ele><time>2022-11-10T15:03:53.0000000+00:00</time></trkpt><trkpt lat="39.47056468" lon="-0.38349646"><ele>19.2</ele><time>2022-11-10T15:03:54.0000000+00:00</time></trkpt><trkpt lat="39.47056468" lon="-0.38349646"><ele>19.2</ele><time>2022-11-10T15:03:55.0000000+00:00</time></trkpt><trkpt lat="39.47056468" lon="-0.38349655"><ele>19.4</ele><time>2022-11-10T15:03:56.0000000+00:00</time></trkpt><trkpt lat="39.47056468" lon="-0.38349696"><ele>19.4</ele><time>2022-11-10T15:03:57.0000000+00:00</time></trkpt><trkpt lat="39.47056468" lon="-0.38349688"><ele>19.4</ele><time>2022-11-10T15:03:58.0000000+00:00</time></trkpt><trkpt lat="39.47056468" lon="-0.38349688"><ele>19.4</ele><time>2022-11-10T15:03:59.0000000+00:00</time></trkpt><trkpt lat="39.47056468" lon="-0.38349688"><ele>19.4</ele><time>2022-11-10T15:04:00.0000000+00:00</time></trkpt><trkpt lat="39.47056468" lon="-0.38349688"><ele>19.6</ele><time>2022-11-10T15:04:01.0000000+00:00</time></trkpt><trkpt lat="39.47056468" lon="-0.38349688"><ele>19.6</ele><time>2022-11-10T15:04:02.0000000+00:00</time></trkpt><trkpt lat="39.47056468" lon="-0.38349688"><ele>19.6</ele><time>2022-11-10T15:04:03.0000000+00:00</time></trkpt><trkpt lat="39.47056468" lon="-0.38349688"><ele>19.6</ele><time>2022-11-10T15:04:04.0000000+00:00</time></trkpt><trkpt lat="39.47056468" lon="-0.38349688"><ele>19.6</ele><time>2022-11-10T15:04:05.0000000+00:00</time></trkpt><trkpt lat="39.47056468" lon="-0.38349688"><ele>19.4</ele><time>2022-11-10T15:04:06.0000000+00:00</time></trkpt><trkpt lat="39.47056468" lon="-0.38349688"><ele>19.4</ele><time>2022-11-10T15:04:07.0000000+00:00</time></trkpt><trkpt lat="39.47056468" lon="-0.38349688"><ele>19.4</ele><time>2022-11-10T15:04:08.0000000+00:00</time></trkpt><trkpt lat="39.47056468" lon="-0.38349688"><ele>19.4</ele><time>2022-11-10T15:04:09.0000000+00:00</time></trkpt><trkpt lat="39.47056468" lon="-0.38349688"><ele>19.4</ele><time>2022-11-10T15:04:10.0000000+00:00</time></trkpt><trkpt lat="39.47056468" lon="-0.38349688"><ele>19.4</ele><time>2022-11-10T15:04:11.0000000+00:00</time></trkpt><trkpt lat="39.47056468" lon="-0.38349688"><ele>19.4</ele><time>2022-11-10T15:04:12.0000000+00:00</time></trkpt><trkpt lat="39.47056468" lon="-0.38349688"><ele>19.6</ele><time>2022-11-10T15:04:13.0000000+00:00</time></trkpt><trkpt lat="39.47056468" lon="-0.38349688"><ele>19.6</ele><time>2022-11-10T15:04:14.0000000+00:00</time></trkpt><trkpt lat="39.47056468" lon="-0.38349688"><ele>19.6</ele><time>2022-11-10T15:04:15.0000000+00:00</time></trkpt><trkpt lat="39.47048497" lon="-0.38353292"><ele>19.6</ele><time>2022-11-10T15:04:16.0000000+00:00</time></trkpt><trkpt lat="39.47047549" lon="-0.38354063"><ele>19.6</ele><time>2022-11-10T15:04:17.0000000+00:00</time></trkpt><trkpt lat="39.47048077" lon="-0.38354315"><ele>19.6</ele><time>2022-11-10T15:04:18.0000000+00:00</time></trkpt><trkpt lat="39.47048438" lon="-0.38353963"><ele>19.6</ele><time>2022-11-10T15:04:19.0000000+00:00</time></trkpt><trkpt lat="39.47048438" lon="-0.38353963"><ele>19.4</ele><time>2022-11-10T15:04:20.0000000+00:00</time></trkpt><trkpt lat="39.47047633" lon="-0.38353426"><ele>19.4</ele><time>2022-11-10T15:04:21.0000000+00:00</time></trkpt><trkpt lat="39.47045387" lon="-0.38353234"><ele>19.6</ele><time>2022-11-10T15:04:22.0000000+00:00</time></trkpt><trkpt lat="39.47042336" lon="-0.38353804"><ele>19.6</ele><time>2022-11-10T15:04:23.0000000+00:00</time></trkpt><trkpt lat="39.47039813" lon="-0.38355849"><ele>19.6</ele><time>2022-11-10T15:04:24.0000000+00:00</time></trkpt><trkpt lat="39.47037868" lon="-0.38358648"><ele>19.8</ele><time>2022-11-10T15:04:25.0000000+00:00</time></trkpt><trkpt lat="39.47035974" lon="-0.3836045"><ele>19.8</ele><time>2022-11-10T15:04:26.0000000+00:00</time></trkpt><trkpt lat="39.47032764" lon="-0.38362856"><ele>19.8</ele><time>2022-11-10T15:04:27.0000000+00:00</time></trkpt><trkpt lat="39.47030593" lon="-0.38364859"><ele>19.8</ele><time>2022-11-10T15:04:28.0000000+00:00</time></trkpt><trkpt lat="39.47028598" lon="-0.38367064"><ele>19.8</ele><time>2022-11-10T15:04:29.0000000+00:00</time></trkpt><trkpt lat="39.47024348" lon="-0.38367592"><ele>19.8</ele><time>2022-11-10T15:04:30.0000000+00:00</time></trkpt><trkpt lat="39.4701926" lon="-0.38368321"><ele>19.8</ele><time>2022-11-10T15:04:31.0000000+00:00</time></trkpt><trkpt lat="39.47013762" lon="-0.38372487"><ele>19.6</ele><time>2022-11-10T15:04:32.0000000+00:00</time></trkpt><trkpt lat="39.4701056" lon="-0.38374926"><ele>19.6</ele><time>2022-11-10T15:04:33.0000000+00:00</time></trkpt><trkpt lat="39.47003285" lon="-0.38378363"><ele>19.6</ele><time>2022-11-10T15:04:34.0000000+00:00</time></trkpt><trkpt lat="39.4699994" lon="-0.38380014"><ele>19.6</ele><time>2022-11-10T15:04:35.0000000+00:00</time></trkpt><trkpt lat="39.46995674" lon="-0.38378363"><ele>19.6</ele><time>2022-11-10T15:04:36.0000000+00:00</time></trkpt><trkpt lat="39.469902" lon="-0.38375496"><ele>19.8</ele><time>2022-11-10T15:04:37.0000000+00:00</time></trkpt><trkpt lat="39.46986068" lon="-0.38376125"><ele>19.8</ele><time>2022-11-10T15:04:38.0000000+00:00</time></trkpt><trkpt lat="39.46981131" lon="-0.38377508"><ele>19.8</ele><time>2022-11-10T15:04:39.0000000+00:00</time></trkpt><trkpt lat="39.46975901" lon="-0.38379"><ele>19.6</ele><time>2022-11-10T15:04:40.0000000+00:00</time></trkpt><trkpt lat="39.46970218" lon="-0.38381347"><ele>19.8</ele><time>2022-11-10T15:04:41.0000000+00:00</time></trkpt><trkpt lat="39.46964552" lon="-0.38384808"><ele>19.8</ele><time>2022-11-10T15:04:42.0000000+00:00</time></trkpt><trkpt lat="39.46958282" lon="-0.38389117"><ele>19.8</ele><time>2022-11-10T15:04:43.0000000+00:00</time></trkpt><trkpt lat="39.46953546" lon="-0.38393358"><ele>20.2</ele><time>2022-11-10T15:04:44.0000000+00:00</time></trkpt><trkpt lat="39.46948869" lon="-0.38396719"><ele>20.4</ele><time>2022-11-10T15:04:45.0000000+00:00</time></trkpt><trkpt lat="39.46944536" lon="-0.38399049"><ele>20.4</ele><time>2022-11-10T15:04:46.0000000+00:00</time></trkpt><trkpt lat="39.46940236" lon="-0.38400164"><ele>20.6</ele><time>2022-11-10T15:04:47.0000000+00:00</time></trkpt><trkpt lat="39.46936858" lon="-0.38400826"><ele>20.6</ele><time>2022-11-10T15:04:48.0000000+00:00</time></trkpt><trkpt lat="39.46934528" lon="-0.3840127"><ele>20.6</ele><time>2022-11-10T15:04:49.0000000+00:00</time></trkpt><trkpt lat="39.46932985" lon="-0.38402888"><ele>20.8</ele><time>2022-11-10T15:04:50.0000000+00:00</time></trkpt><trkpt lat="39.46931359" lon="-0.38404581"><ele>20.8</ele><time>2022-11-10T15:04:51.0000000+00:00</time></trkpt><trkpt lat="39.46928971" lon="-0.38407339"><ele>21.0</ele><time>2022-11-10T15:04:52.0000000+00:00</time></trkpt><trkpt lat="39.46925257" lon="-0.38410407"><ele>21.0</ele><time>2022-11-10T15:04:53.0000000+00:00</time></trkpt><trkpt lat="39.46920807" lon="-0.38413416"><ele>21.0</ele><time>2022-11-10T15:04:54.0000000+00:00</time></trkpt><trkpt lat="39.46917102" lon="-0.38416056"><ele>21.0</ele><time>2022-11-10T15:04:55.0000000+00:00</time></trkpt><trkpt lat="39.46913942" lon="-0.38417422"><ele>21.0</ele><time>2022-11-10T15:04:56.0000000+00:00</time></trkpt><trkpt lat="39.46911042" lon="-0.38418621"><ele>21.0</ele><time>2022-11-10T15:04:57.0000000+00:00</time></trkpt><trkpt lat="39.46907982" lon="-0.384194"><ele>20.8</ele><time>2022-11-10T15:04:58.0000000+00:00</time></trkpt><trkpt lat="39.46905359" lon="-0.38421194"><ele>20.6</ele><time>2022-11-10T15:04:59.0000000+00:00</time></trkpt><trkpt lat="39.46902962" lon="-0.38423332"><ele>20.4</ele><time>2022-11-10T15:05:00.0000000+00:00</time></trkpt><trkpt lat="39.46901822" lon="-0.38427095"><ele>20.4</ele><time>2022-11-10T15:05:01.0000000+00:00</time></trkpt><trkpt lat="39.46898871" lon="-0.3843033"><ele>20.4</ele><time>2022-11-10T15:05:02.0000000+00:00</time></trkpt><trkpt lat="39.46894353" lon="-0.38432946"><ele>20.4</ele><time>2022-11-10T15:05:03.0000000+00:00</time></trkpt><trkpt lat="39.46889123" lon="-0.38435712"><ele>20.6</ele><time>2022-11-10T15:05:04.0000000+00:00</time></trkpt><trkpt lat="39.46881898" lon="-0.38438452"><ele>20.8</ele><time>2022-11-10T15:05:05.0000000+00:00</time></trkpt><trkpt lat="39.46875083" lon="-0.38440598"><ele>20.8</ele><time>2022-11-10T15:05:06.0000000+00:00</time></trkpt><trkpt lat="39.4687013" lon="-0.3844385"><ele>21.0</ele><time>2022-11-10T15:05:07.0000000+00:00</time></trkpt><trkpt lat="39.46863525" lon="-0.38444529"><ele>21.2</ele><time>2022-11-10T15:05:08.0000000+00:00</time></trkpt><trkpt lat="39.46850047" lon="-0.38445996"><ele>21.2</ele><time>2022-11-10T15:05:09.0000000+00:00</time></trkpt><trkpt lat="39.46843618" lon="-0.38443565"><ele>21.2</ele><time>2022-11-10T15:05:10.0000000+00:00</time></trkpt><trkpt lat="39.46837591" lon="-0.38444471"><ele>21.2</ele><time>2022-11-10T15:05:11.0000000+00:00</time></trkpt><trkpt lat="39.4683164" lon="-0.38447337"><ele>21.2</ele><time>2022-11-10T15:05:12.0000000+00:00</time></trkpt><trkpt lat="39.46825865" lon="-0.38453515"><ele>21.2</ele><time>2022-11-10T15:05:13.0000000+00:00</time></trkpt><trkpt lat="39.46824423" lon="-0.38461503"><ele>21.2</ele><time>2022-11-10T15:05:14.0000000+00:00</time></trkpt><trkpt lat="39.46824524" lon="-0.38467437"><ele>21.2</ele><time>2022-11-10T15:05:15.0000000+00:00</time></trkpt><trkpt lat="39.46824306" lon="-0.38469574"><ele>21.2</ele><time>2022-11-10T15:05:16.0000000+00:00</time></trkpt><trkpt lat="39.46820492" lon="-0.38473631"><ele>21.2</ele><time>2022-11-10T15:05:17.0000000+00:00</time></trkpt><trkpt lat="39.46801834" lon="-0.38481711"><ele>21.2</ele><time>2022-11-10T15:05:18.0000000+00:00</time></trkpt><trkpt lat="39.46790225" lon="-0.38492532"><ele>21.2</ele><time>2022-11-10T15:05:19.0000000+00:00</time></trkpt><trkpt lat="39.46787367" lon="-0.38502432"><ele>21.2</ele><time>2022-11-10T15:05:20.0000000+00:00</time></trkpt><trkpt lat="39.46786663" lon="-0.38516169"><ele>21.2</ele><time>2022-11-10T15:05:21.0000000+00:00</time></trkpt><trkpt lat="39.46785942" lon="-0.38519916"><ele>21.2</ele><time>2022-11-10T15:05:22.0000000+00:00</time></trkpt><trkpt lat="39.46785078" lon="-0.38523613"><ele>21.2</ele><time>2022-11-10T15:05:23.0000000+00:00</time></trkpt><trkpt lat="39.46783687" lon="-0.38526043"><ele>21.2</ele><time>2022-11-10T15:05:24.0000000+00:00</time></trkpt><trkpt lat="39.46782304" lon="-0.38528759"><ele>21.2</ele><time>2022-11-10T15:05:25.0000000+00:00</time></trkpt><trkpt lat="39.46780804" lon="-0.38533277"><ele>21.2</ele><time>2022-11-10T15:05:26.0000000+00:00</time></trkpt><trkpt lat="39.46779253" lon="-0.3853549"><ele>21.2</ele><time>2022-11-10T15:05:27.0000000+00:00</time></trkpt><trkpt lat="39.46776252" lon="-0.38538055"><ele>21.4</ele><time>2022-11-10T15:05:28.0000000+00:00</time></trkpt><trkpt lat="39.46773377" lon="-0.38540603"><ele>21.4</ele><time>2022-11-10T15:05:29.0000000+00:00</time></trkpt><trkpt lat="39.46768105" lon="-0.38544467"><ele>21.6</ele><time>2022-11-10T15:05:30.0000000+00:00</time></trkpt><trkpt lat="39.46760469" lon="-0.38548616"><ele>21.6</ele><time>2022-11-10T15:05:31.0000000+00:00</time></trkpt><trkpt lat="39.46756052" lon="-0.3855134"><ele>21.6</ele><time>2022-11-10T15:05:32.0000000+00:00</time></trkpt><trkpt lat="39.46755054" lon="-0.38555455"><ele>21.4</ele><time>2022-11-10T15:05:33.0000000+00:00</time></trkpt><trkpt lat="39.46749321" lon="-0.38560661"><ele>21.4</ele><time>2022-11-10T15:05:34.0000000+00:00</time></trkpt><trkpt lat="39.46744426" lon="-0.38565924"><ele>21.4</ele><time>2022-11-10T15:05:35.0000000+00:00</time></trkpt><trkpt lat="39.46739816" lon="-0.38568799"><ele>21.4</ele><time>2022-11-10T15:05:36.0000000+00:00</time></trkpt><trkpt lat="39.4673674" lon="-0.38572429"><ele>21.4</ele><time>2022-11-10T15:05:37.0000000+00:00</time></trkpt><trkpt lat="39.46732155" lon="-0.38575924"><ele>21.2</ele><time>2022-11-10T15:05:38.0000000+00:00</time></trkpt><trkpt lat="39.46728073" lon="-0.38579956"><ele>21.4</ele><time>2022-11-10T15:05:39.0000000+00:00</time></trkpt><trkpt lat="39.46723413" lon="-0.38584784"><ele>21.4</ele><time>2022-11-10T15:05:40.0000000+00:00</time></trkpt><trkpt lat="39.46718736" lon="-0.38590048"><ele>21.6</ele><time>2022-11-10T15:05:41.0000000+00:00</time></trkpt><trkpt lat="39.46718702" lon="-0.38597952"><ele>21.6</ele><time>2022-11-10T15:05:42.0000000+00:00</time></trkpt><trkpt lat="39.46717663" lon="-0.38603995"><ele>21.4</ele><time>2022-11-10T15:05:43.0000000+00:00</time></trkpt><trkpt lat="39.46715358" lon="-0.38609996"><ele>21.4</ele><time>2022-11-10T15:05:44.0000000+00:00</time></trkpt><trkpt lat="39.4670918" lon="-0.38615621"><ele>21.4</ele><time>2022-11-10T15:05:45.0000000+00:00</time></trkpt><trkpt lat="39.46697513" lon="-0.38620013"><ele>21.2</ele><time>2022-11-10T15:05:46.0000000+00:00</time></trkpt><trkpt lat="39.46683649" lon="-0.38629426"><ele>21.2</ele><time>2022-11-10T15:05:47.0000000+00:00</time></trkpt><trkpt lat="39.46680774" lon="-0.38633206"><ele>21.2</ele><time>2022-11-10T15:05:48.0000000+00:00</time></trkpt><trkpt lat="39.46676156" lon="-0.38632007"><ele>21.0</ele><time>2022-11-10T15:05:49.0000000+00:00</time></trkpt><trkpt lat="39.4667256" lon="-0.38629158"><ele>21.0</ele><time>2022-11-10T15:05:50.0000000+00:00</time></trkpt><trkpt lat="39.46668503" lon="-0.38627992"><ele>21.0</ele><time>2022-11-10T15:05:51.0000000+00:00</time></trkpt><trkpt lat="39.46665511" lon="-0.38627892"><ele>21.0</ele><time>2022-11-10T15:05:52.0000000+00:00</time></trkpt><trkpt lat="39.46662434" lon="-0.38621916"><ele>21.0</ele><time>2022-11-10T15:05:53.0000000+00:00</time></trkpt><trkpt lat="39.46659895" lon="-0.38619007"><ele>21.0</ele><time>2022-11-10T15:05:54.0000000+00:00</time></trkpt><trkpt lat="39.46657389" lon="-0.38618068"><ele>21.2</ele><time>2022-11-10T15:05:55.0000000+00:00</time></trkpt><trkpt lat="39.46653541" lon="-0.38617021"><ele>21.2</ele><time>2022-11-10T15:05:56.0000000+00:00</time></trkpt><trkpt lat="39.46649652" lon="-0.38616819"><ele>21.2</ele><time>2022-11-10T15:05:57.0000000+00:00</time></trkpt><trkpt lat="39.46646811" lon="-0.38616166"><ele>21.2</ele><time>2022-11-10T15:05:58.0000000+00:00</time></trkpt><trkpt lat="39.46643609" lon="-0.38615"><ele>21.2</ele><time>2022-11-10T15:05:59.0000000+00:00</time></trkpt><trkpt lat="39.46643089" lon="-0.38614431"><ele>21.2</ele><time>2022-11-10T15:06:00.0000000+00:00</time></trkpt><trkpt lat="39.46643089" lon="-0.38614431"><ele>21.2</ele><time>2022-11-10T15:06:01.0000000+00:00</time></trkpt><trkpt lat="39.46642645" lon="-0.38611187"><ele>21.2</ele><time>2022-11-10T15:06:02.0000000+00:00</time></trkpt><trkpt lat="39.46642636" lon="-0.38611321"><ele>21.2</ele><time>2022-11-10T15:06:03.0000000+00:00</time></trkpt><trkpt lat="39.46642636" lon="-0.38611321"><ele>21.2</ele><time>2022-11-10T15:06:04.0000000+00:00</time></trkpt><trkpt lat="39.46642636" lon="-0.38611321"><ele>21.2</ele><time>2022-11-10T15:06:05.0000000+00:00</time></trkpt><trkpt lat="39.46642636" lon="-0.38611321"><ele>21.2</ele><time>2022-11-10T15:06:06.0000000+00:00</time></trkpt><trkpt lat="39.4664262" lon="-0.38611329"><ele>21.2</ele><time>2022-11-10T15:06:07.0000000+00:00</time></trkpt><trkpt lat="39.46642251" lon="-0.38609427"><ele>21.0</ele><time>2022-11-10T15:06:08.0000000+00:00</time></trkpt><trkpt lat="39.46642335" lon="-0.38609435"><ele>21.0</ele><time>2022-11-10T15:06:09.0000000+00:00</time></trkpt><trkpt lat="39.46642427" lon="-0.38609418"><ele>21.0</ele><time>2022-11-10T15:06:10.0000000+00:00</time></trkpt><trkpt lat="39.46642427" lon="-0.38609418"><ele>21.0</ele><time>2022-11-10T15:06:11.0000000+00:00</time></trkpt><trkpt lat="39.46642427" lon="-0.38609418"><ele>21.0</ele><time>2022-11-10T15:06:12.0000000+00:00</time></trkpt><trkpt lat="39.46642427" lon="-0.38609418"><ele>21.0</ele><time>2022-11-10T15:06:13.0000000+00:00</time></trkpt><trkpt lat="39.46642427" lon="-0.38609418"><ele>21.0</ele><time>2022-11-10T15:06:14.0000000+00:00</time></trkpt><trkpt lat="39.46642427" lon="-0.38609418"><ele>21.0</ele><time>2022-11-10T15:06:15.0000000+00:00</time></trkpt><trkpt lat="39.46642427" lon="-0.38609418"><ele>21.0</ele><time>2022-11-10T15:06:16.0000000+00:00</time></trkpt><trkpt lat="39.46642469" lon="-0.38609091"><ele>21.0</ele><time>2022-11-10T15:06:17.0000000+00:00</time></trkpt><trkpt lat="39.46642418" lon="-0.38609192"><ele>21.0</ele><time>2022-11-10T15:06:18.0000000+00:00</time></trkpt><trkpt lat="39.46642242" lon="-0.38606166"><ele>21.0</ele><time>2022-11-10T15:06:19.0000000+00:00</time></trkpt><trkpt lat="39.46642167" lon="-0.38606317"><ele>21.0</ele><time>2022-11-10T15:06:20.0000000+00:00</time></trkpt><trkpt lat="39.46642326" lon="-0.38606124"><ele>21.0</ele><time>2022-11-10T15:06:21.0000000+00:00</time></trkpt><trkpt lat="39.46642133" lon="-0.38606585"><ele>21.0</ele><time>2022-11-10T15:06:22.0000000+00:00</time></trkpt><trkpt lat="39.46640759" lon="-0.38606904"><ele>21.0</ele><time>2022-11-10T15:06:23.0000000+00:00</time></trkpt><trkpt lat="39.4664091" lon="-0.38607155"><ele>21.0</ele><time>2022-11-10T15:06:24.0000000+00:00</time></trkpt><trkpt lat="39.46641019" lon="-0.38607365"><ele>21.0</ele><time>2022-11-10T15:06:25.0000000+00:00</time></trkpt><trkpt lat="39.46641396" lon="-0.3860925"><ele>21.0</ele><time>2022-11-10T15:06:26.0000000+00:00</time></trkpt><trkpt lat="39.46642578" lon="-0.38612218"><ele>21.0</ele><time>2022-11-10T15:06:27.0000000+00:00</time></trkpt><trkpt lat="39.46644195" lon="-0.3861578"><ele>21.2</ele><time>2022-11-10T15:06:28.0000000+00:00</time></trkpt><trkpt lat="39.46645319" lon="-0.38620021"><ele>21.2</ele><time>2022-11-10T15:06:29.0000000+00:00</time></trkpt><trkpt lat="39.46645855" lon="-0.38624078"><ele>21.2</ele><time>2022-11-10T15:06:30.0000000+00:00</time></trkpt><trkpt lat="39.46646685" lon="-0.38627364"><ele>21.0</ele><time>2022-11-10T15:06:31.0000000+00:00</time></trkpt><trkpt lat="39.46647607" lon="-0.38631362"><ele>20.8</ele><time>2022-11-10T15:06:32.0000000+00:00</time></trkpt><trkpt lat="39.46649367" lon="-0.38635436"><ele>20.6</ele><time>2022-11-10T15:06:33.0000000+00:00</time></trkpt><trkpt lat="39.46651127" lon="-0.38639182"><ele>20.6</ele><time>2022-11-10T15:06:34.0000000+00:00</time></trkpt><trkpt lat="39.4665184" lon="-0.38642971"><ele>20.6</ele><time>2022-11-10T15:06:35.0000000+00:00</time></trkpt><trkpt lat="39.46651924" lon="-0.38645553"><ele>20.8</ele><time>2022-11-10T15:06:36.0000000+00:00</time></trkpt><trkpt lat="39.46651412" lon="-0.38647581"><ele>20.8</ele><time>2022-11-10T15:06:37.0000000+00:00</time></trkpt><trkpt lat="39.46651186" lon="-0.38648285"><ele>20.8</ele><time>2022-11-10T15:06:38.0000000+00:00</time></trkpt><trkpt lat="39.46651186" lon="-0.38648285"><ele>21.0</ele><time>2022-11-10T15:06:39.0000000+00:00</time></trkpt><trkpt lat="39.46651186" lon="-0.38648285"><ele>21.0</ele><time>2022-11-10T15:06:40.0000000+00:00</time></trkpt><trkpt lat="39.46651186" lon="-0.38648285"><ele>21.0</ele><time>2022-11-10T15:06:41.0000000+00:00</time></trkpt><trkpt lat="39.46651186" lon="-0.38648285"><ele>21.0</ele><time>2022-11-10T15:06:42.0000000+00:00</time></trkpt><trkpt lat="39.46651186" lon="-0.38648285"><ele>21.0</ele><time>2022-11-10T15:06:43.0000000+00:00</time></trkpt><trkpt lat="39.46651186" lon="-0.38648285"><ele>21.0</ele><time>2022-11-10T15:06:44.0000000+00:00</time></trkpt><trkpt lat="39.46651186" lon="-0.38648285"><ele>21.0</ele><time>2022-11-10T15:06:45.0000000+00:00</time></trkpt><trkpt lat="39.46651186" lon="-0.38648285"><ele>21.0</ele><time>2022-11-10T15:06:46.0000000+00:00</time></trkpt><trkpt lat="39.46651186" lon="-0.38648285"><ele>21.0</ele><time>2022-11-10T15:06:47.0000000+00:00</time></trkpt><trkpt lat="39.46651186" lon="-0.38648285"><ele>21.0</ele><time>2022-11-10T15:06:48.0000000+00:00</time></trkpt><trkpt lat="39.46651186" lon="-0.38648285"><ele>21.2</ele><time>2022-11-10T15:06:49.0000000+00:00</time></trkpt><trkpt lat="39.46651186" lon="-0.38648285"><ele>21.2</ele><time>2022-11-10T15:06:50.0000000+00:00</time></trkpt><trkpt lat="39.46651706" lon="-0.38647464"><ele>21.2</ele><time>2022-11-10T15:06:51.0000000+00:00</time></trkpt><trkpt lat="39.46652032" lon="-0.38646969"><ele>21.2</ele><time>2022-11-10T15:06:52.0000000+00:00</time></trkpt><trkpt lat="39.46652032" lon="-0.38646969"><ele>21.2</ele><time>2022-11-10T15:06:53.0000000+00:00</time></trkpt><trkpt lat="39.46652032" lon="-0.38646969"><ele>21.2</ele><time>2022-11-10T15:06:54.0000000+00:00</time></trkpt><trkpt lat="39.46652032" lon="-0.38646969"><ele>21.2</ele><time>2022-11-10T15:06:55.0000000+00:00</time></trkpt><trkpt lat="39.46651848" lon="-0.38647028"><ele>21.2</ele><time>2022-11-10T15:06:56.0000000+00:00</time></trkpt><trkpt lat="39.46651496" lon="-0.38646801"><ele>21.2</ele><time>2022-11-10T15:06:57.0000000+00:00</time></trkpt><trkpt lat="39.46651496" lon="-0.38646801"><ele>21.2</ele><time>2022-11-10T15:06:58.0000000+00:00</time></trkpt><trkpt lat="39.46651496" lon="-0.38646801"><ele>21.2</ele><time>2022-11-10T15:06:59.0000000+00:00</time></trkpt><trkpt lat="39.46651496" lon="-0.38646801"><ele>21.2</ele><time>2022-11-10T15:07:00.0000000+00:00</time></trkpt><trkpt lat="39.46651496" lon="-0.38646801"><ele>21.2</ele><time>2022-11-10T15:07:01.0000000+00:00</time></trkpt><trkpt lat="39.46651496" lon="-0.38646801"><ele>21.2</ele><time>2022-11-10T15:07:02.0000000+00:00</time></trkpt><trkpt lat="39.46651496" lon="-0.38646801"><ele>21.2</ele><time>2022-11-10T15:07:03.0000000+00:00</time></trkpt><trkpt lat="39.46651605" lon="-0.38647556"><ele>21.2</ele><time>2022-11-10T15:07:04.0000000+00:00</time></trkpt><trkpt lat="39.4665334" lon="-0.38649081"><ele>21.2</ele><time>2022-11-10T15:07:05.0000000+00:00</time></trkpt><trkpt lat="39.46654338" lon="-0.38651227"><ele>21.2</ele><time>2022-11-10T15:07:06.0000000+00:00</time></trkpt><trkpt lat="39.46654799" lon="-0.3865292"><ele>21.2</ele><time>2022-11-10T15:07:07.0000000+00:00</time></trkpt><trkpt lat="39.46653985" lon="-0.38653666"><ele>21.0</ele><time>2022-11-10T15:07:08.0000000+00:00</time></trkpt><trkpt lat="39.46652468" lon="-0.38656114"><ele>21.0</ele><time>2022-11-10T15:07:09.0000000+00:00</time></trkpt><trkpt lat="39.4665282" lon="-0.38657254"><ele>21.0</ele><time>2022-11-10T15:07:10.0000000+00:00</time></trkpt><trkpt lat="39.4665282" lon="-0.38657254"><ele>20.8</ele><time>2022-11-10T15:07:11.0000000+00:00</time></trkpt><trkpt lat="39.46651303" lon="-0.38657455"><ele>20.6</ele><time>2022-11-10T15:07:12.0000000+00:00</time></trkpt><trkpt lat="39.46649149" lon="-0.38657991"><ele>20.6</ele><time>2022-11-10T15:07:13.0000000+00:00</time></trkpt><trkpt lat="39.4664759" lon="-0.38658846"><ele>20.6</ele><time>2022-11-10T15:07:14.0000000+00:00</time></trkpt><trkpt lat="39.46646391" lon="-0.38659936"><ele>20.6</ele><time>2022-11-10T15:07:15.0000000+00:00</time></trkpt><trkpt lat="39.4664562" lon="-0.38661327"><ele>20.6</ele><time>2022-11-10T15:07:16.0000000+00:00</time></trkpt><trkpt lat="39.46645847" lon="-0.38662769"><ele>20.6</ele><time>2022-11-10T15:07:17.0000000+00:00</time></trkpt><trkpt lat="39.46646257" lon="-0.38663398"><ele>20.6</ele><time>2022-11-10T15:07:18.0000000+00:00</time></trkpt><trkpt lat="39.46646039" lon="-0.38663196"><ele>20.6</ele><time>2022-11-10T15:07:19.0000000+00:00</time></trkpt><trkpt lat="39.4664593" lon="-0.38663775"><ele>20.4</ele><time>2022-11-10T15:07:20.0000000+00:00</time></trkpt><trkpt lat="39.46645889" lon="-0.38664001"><ele>20.4</ele><time>2022-11-10T15:07:21.0000000+00:00</time></trkpt><trkpt lat="39.46645889" lon="-0.38664001"><ele>20.4</ele><time>2022-11-10T15:07:22.0000000+00:00</time></trkpt><trkpt lat="39.46645889" lon="-0.38664001"><ele>20.4</ele><time>2022-11-10T15:07:23.0000000+00:00</time></trkpt><trkpt lat="39.46645889" lon="-0.38664001"><ele>20.4</ele><time>2022-11-10T15:07:24.0000000+00:00</time></trkpt><trkpt lat="39.46645889" lon="-0.38664001"><ele>20.4</ele><time>2022-11-10T15:07:25.0000000+00:00</time></trkpt><trkpt lat="39.46645889" lon="-0.38664001"><ele>20.4</ele><time>2022-11-10T15:07:26.0000000+00:00</time></trkpt><trkpt lat="39.46645889" lon="-0.38664001"><ele>20.4</ele><time>2022-11-10T15:07:27.0000000+00:00</time></trkpt><trkpt lat="39.46646408" lon="-0.38665233"><ele>20.4</ele><time>2022-11-10T15:07:28.0000000+00:00</time></trkpt><trkpt lat="39.46646685" lon="-0.38665116"><ele>20.4</ele><time>2022-11-10T15:07:29.0000000+00:00</time></trkpt><trkpt lat="39.46646685" lon="-0.38665116"><ele>20.4</ele><time>2022-11-10T15:07:30.0000000+00:00</time></trkpt><trkpt lat="39.46646685" lon="-0.38665116"><ele>20.2</ele><time>2022-11-10T15:07:31.0000000+00:00</time></trkpt><trkpt lat="39.46646685" lon="-0.38665116"><ele>20.2</ele><time>2022-11-10T15:07:32.0000000+00:00</time></trkpt><trkpt lat="39.46646685" lon="-0.38665116"><ele>20.4</ele><time>2022-11-10T15:07:33.0000000+00:00</time></trkpt><trkpt lat="39.46646685" lon="-0.38665116"><ele>20.4</ele><time>2022-11-10T15:07:34.0000000+00:00</time></trkpt><trkpt lat="39.46646685" lon="-0.38665116"><ele>20.4</ele><time>2022-11-10T15:07:35.0000000+00:00</time></trkpt><trkpt lat="39.46646685" lon="-0.38665116"><ele>20.6</ele><time>2022-11-10T15:07:36.0000000+00:00</time></trkpt><trkpt lat="39.46646685" lon="-0.38665116"><ele>20.6</ele><time>2022-11-10T15:07:37.0000000+00:00</time></trkpt><trkpt lat="39.46646685" lon="-0.38665116"><ele>20.6</ele><time>2022-11-10T15:07:38.0000000+00:00</time></trkpt><trkpt lat="39.46646685" lon="-0.38665116"><ele>20.6</ele><time>2022-11-10T15:07:39.0000000+00:00</time></trkpt><trkpt lat="39.46646685" lon="-0.38665116"><ele>20.6</ele><time>2022-11-10T15:07:40.0000000+00:00</time></trkpt><trkpt lat="39.46646685" lon="-0.38665116"><ele>20.6</ele><time>2022-11-10T15:07:41.0000000+00:00</time></trkpt><trkpt lat="39.46646685" lon="-0.38665116"><ele>20.6</ele><time>2022-11-10T15:07:42.0000000+00:00</time></trkpt><trkpt lat="39.46646685" lon="-0.38665116"><ele>20.6</ele><time>2022-11-10T15:07:43.0000000+00:00</time></trkpt><trkpt lat="39.46646685" lon="-0.38665116"><ele>20.6</ele><time>2022-11-10T15:07:44.0000000+00:00</time></trkpt><trkpt lat="39.46646685" lon="-0.38665116"><ele>20.6</ele><time>2022-11-10T15:07:45.0000000+00:00</time></trkpt><trkpt lat="39.46646685" lon="-0.38665116"><ele>20.6</ele><time>2022-11-10T15:07:46.0000000+00:00</time></trkpt><trkpt lat="39.46646685" lon="-0.38665116"><ele>20.6</ele><time>2022-11-10T15:07:47.0000000+00:00</time></trkpt><trkpt lat="39.46646685" lon="-0.38665116"><ele>20.6</ele><time>2022-11-10T15:07:48.0000000+00:00</time></trkpt><trkpt lat="39.46647163" lon="-0.38666708"><ele>20.4</ele><time>2022-11-10T15:07:49.0000000+00:00</time></trkpt><trkpt lat="39.46647431" lon="-0.38668745"><ele>20.4</ele><time>2022-11-10T15:07:50.0000000+00:00</time></trkpt><trkpt lat="39.46647498" lon="-0.3866867"><ele>20.4</ele><time>2022-11-10T15:07:51.0000000+00:00</time></trkpt><trkpt lat="39.46647498" lon="-0.3866867"><ele>20.4</ele><time>2022-11-10T15:07:52.0000000+00:00</time></trkpt><trkpt lat="39.46647498" lon="-0.3866867"><ele>20.2</ele><time>2022-11-10T15:07:53.0000000+00:00</time></trkpt><trkpt lat="39.46647473" lon="-0.38668301"><ele>20.2</ele><time>2022-11-10T15:07:54.0000000+00:00</time></trkpt><trkpt lat="39.46647246" lon="-0.38668485"><ele>20.2</ele><time>2022-11-10T15:07:55.0000000+00:00</time></trkpt><trkpt lat="39.46647054" lon="-0.38668544"><ele>20.4</ele><time>2022-11-10T15:07:56.0000000+00:00</time></trkpt><trkpt lat="39.46646215" lon="-0.38669039"><ele>20.4</ele><time>2022-11-10T15:07:57.0000000+00:00</time></trkpt><trkpt lat="39.46645721" lon="-0.3866903"><ele>20.4</ele><time>2022-11-10T15:07:58.0000000+00:00</time></trkpt><trkpt lat="39.46646157" lon="-0.38668871"><ele>20.6</ele><time>2022-11-10T15:07:59.0000000+00:00</time></trkpt><trkpt lat="39.4664707" lon="-0.38668293"><ele>20.6</ele><time>2022-11-10T15:08:00.0000000+00:00</time></trkpt><trkpt lat="39.46648076" lon="-0.38667438"><ele>20.6</ele><time>2022-11-10T15:08:01.0000000+00:00</time></trkpt><trkpt lat="39.46647791" lon="-0.38666013"><ele>20.6</ele><time>2022-11-10T15:08:02.0000000+00:00</time></trkpt><trkpt lat="39.4664583" lon="-0.38664093"><ele>20.4</ele><time>2022-11-10T15:08:03.0000000+00:00</time></trkpt><trkpt lat="39.46643927" lon="-0.3866302"><ele>20.4</ele><time>2022-11-10T15:08:04.0000000+00:00</time></trkpt><trkpt lat="39.46642125" lon="-0.38662274"><ele>20.4</ele><time>2022-11-10T15:08:05.0000000+00:00</time></trkpt><trkpt lat="39.46641823" lon="-0.38662031"><ele>20.4</ele><time>2022-11-10T15:08:06.0000000+00:00</time></trkpt><trkpt lat="39.46641823" lon="-0.38662031"><ele>20.6</ele><time>2022-11-10T15:08:07.0000000+00:00</time></trkpt><trkpt lat="39.46641823" lon="-0.38662031"><ele>20.6</ele><time>2022-11-10T15:08:08.0000000+00:00</time></trkpt><trkpt lat="39.46641061" lon="-0.38661478"><ele>20.6</ele><time>2022-11-10T15:08:09.0000000+00:00</time></trkpt><trkpt lat="39.46639577" lon="-0.38661369"><ele>20.6</ele><time>2022-11-10T15:08:10.0000000+00:00</time></trkpt><trkpt lat="39.46637582" lon="-0.38661889"><ele>20.6</ele><time>2022-11-10T15:08:11.0000000+00:00</time></trkpt><trkpt lat="39.46636023" lon="-0.38662853"><ele>20.6</ele><time>2022-11-10T15:08:12.0000000+00:00</time></trkpt><trkpt lat="39.46633953" lon="-0.38663942"><ele>20.4</ele><time>2022-11-10T15:08:13.0000000+00:00</time></trkpt><trkpt lat="39.46631195" lon="-0.38665535"><ele>20.4</ele><time>2022-11-10T15:08:14.0000000+00:00</time></trkpt><trkpt lat="39.46628161" lon="-0.38667907"><ele>20.4</ele><time>2022-11-10T15:08:15.0000000+00:00</time></trkpt><trkpt lat="39.46624825" lon="-0.38670723"><ele>20.4</ele><time>2022-11-10T15:08:16.0000000+00:00</time></trkpt><trkpt lat="39.4661936" lon="-0.38673288"><ele>20.4</ele><time>2022-11-10T15:08:17.0000000+00:00</time></trkpt><trkpt lat="39.46614825" lon="-0.38675719"><ele>20.4</ele><time>2022-11-10T15:08:18.0000000+00:00</time></trkpt><trkpt lat="39.46609587" lon="-0.38678887"><ele>20.6</ele><time>2022-11-10T15:08:19.0000000+00:00</time></trkpt><trkpt lat="39.46604264" lon="-0.38681469"><ele>20.6</ele><time>2022-11-10T15:08:20.0000000+00:00</time></trkpt><trkpt lat="39.46598958" lon="-0.38683581"><ele>20.6</ele><time>2022-11-10T15:08:21.0000000+00:00</time></trkpt><trkpt lat="39.46593409" lon="-0.38686263"><ele>20.6</ele><time>2022-11-10T15:08:22.0000000+00:00</time></trkpt><trkpt lat="39.46589654" lon="-0.38688459"><ele>20.6</ele><time>2022-11-10T15:08:23.0000000+00:00</time></trkpt><trkpt lat="39.46584642" lon="-0.38691904"><ele>20.6</ele><time>2022-11-10T15:08:24.0000000+00:00</time></trkpt><trkpt lat="39.46580116" lon="-0.38694888"><ele>20.6</ele><time>2022-11-10T15:08:25.0000000+00:00</time></trkpt><trkpt lat="39.46575003" lon="-0.38696741"><ele>20.8</ele><time>2022-11-10T15:08:26.0000000+00:00</time></trkpt><trkpt lat="39.46570099" lon="-0.38698928"><ele>20.8</ele><time>2022-11-10T15:08:27.0000000+00:00</time></trkpt><trkpt lat="39.46566084" lon="-0.38700672"><ele>20.8</ele><time>2022-11-10T15:08:28.0000000+00:00</time></trkpt><trkpt lat="39.46563469" lon="-0.38702365"><ele>20.8</ele><time>2022-11-10T15:08:29.0000000+00:00</time></trkpt><trkpt lat="39.46561273" lon="-0.38703254"><ele>20.8</ele><time>2022-11-10T15:08:30.0000000+00:00</time></trkpt><trkpt lat="39.46560443" lon="-0.38703606"><ele>20.6</ele><time>2022-11-10T15:08:31.0000000+00:00</time></trkpt><trkpt lat="39.46560443" lon="-0.38703606"><ele>20.6</ele><time>2022-11-10T15:08:32.0000000+00:00</time></trkpt><trkpt lat="39.46560443" lon="-0.38703606"><ele>20.6</ele><time>2022-11-10T15:08:33.0000000+00:00</time></trkpt><trkpt lat="39.46560393" lon="-0.38703647"><ele>20.6</ele><time>2022-11-10T15:08:34.0000000+00:00</time></trkpt><trkpt lat="39.46559966" lon="-0.38704561"><ele>20.4</ele><time>2022-11-10T15:08:35.0000000+00:00</time></trkpt><trkpt lat="39.46559278" lon="-0.38704578"><ele>20.4</ele><time>2022-11-10T15:08:36.0000000+00:00</time></trkpt><trkpt lat="39.46558507" lon="-0.38704159"><ele>20.4</ele><time>2022-11-10T15:08:37.0000000+00:00</time></trkpt><trkpt lat="39.46557862" lon="-0.38704192"><ele>20.4</ele><time>2022-11-10T15:08:38.0000000+00:00</time></trkpt><trkpt lat="39.46558767" lon="-0.38704771"><ele>20.4</ele><time>2022-11-10T15:08:39.0000000+00:00</time></trkpt><trkpt lat="39.46558558" lon="-0.38705274"><ele>20.4</ele><time>2022-11-10T15:08:40.0000000+00:00</time></trkpt><trkpt lat="39.46556579" lon="-0.38705919"><ele>20.2</ele><time>2022-11-10T15:08:41.0000000+00:00</time></trkpt><trkpt lat="39.46554241" lon="-0.38706279"><ele>20.2</ele><time>2022-11-10T15:08:42.0000000+00:00</time></trkpt><trkpt lat="39.46551709" lon="-0.38707285"><ele>20.2</ele><time>2022-11-10T15:08:43.0000000+00:00</time></trkpt><trkpt lat="39.46550427" lon="-0.38708417"><ele>20.2</ele><time>2022-11-10T15:08:44.0000000+00:00</time></trkpt><trkpt lat="39.46549346" lon="-0.38708752"><ele>20.2</ele><time>2022-11-10T15:08:45.0000000+00:00</time></trkpt><trkpt lat="39.4654922" lon="-0.38708618"><ele>20.2</ele><time>2022-11-10T15:08:46.0000000+00:00</time></trkpt><trkpt lat="39.4654922" lon="-0.38708618"><ele>20.0</ele><time>2022-11-10T15:08:47.0000000+00:00</time></trkpt><trkpt lat="39.4654922" lon="-0.38708618"><ele>20.0</ele><time>2022-11-10T15:08:48.0000000+00:00</time></trkpt><trkpt lat="39.4654922" lon="-0.38708618"><ele>19.8</ele><time>2022-11-10T15:08:49.0000000+00:00</time></trkpt><trkpt lat="39.4654922" lon="-0.38708618"><ele>19.8</ele><time>2022-11-10T15:08:50.0000000+00:00</time></trkpt><trkpt lat="39.4654922" lon="-0.38708618"><ele>19.8</ele><time>2022-11-10T15:08:51.0000000+00:00</time></trkpt><trkpt lat="39.4654922" lon="-0.38708618"><ele>19.6</ele><time>2022-11-10T15:08:52.0000000+00:00</time></trkpt><trkpt lat="39.4654922" lon="-0.38708618"><ele>19.6</ele><time>2022-11-10T15:08:53.0000000+00:00</time></trkpt><trkpt lat="39.46548591" lon="-0.38708132"><ele>19.6</ele><time>2022-11-10T15:08:54.0000000+00:00</time></trkpt><trkpt lat="39.46546387" lon="-0.38708274"><ele>19.6</ele><time>2022-11-10T15:08:55.0000000+00:00</time></trkpt><trkpt lat="39.46542841" lon="-0.38709372"><ele>19.6</ele><time>2022-11-10T15:08:56.0000000+00:00</time></trkpt><trkpt lat="39.46538122" lon="-0.3871078"><ele>19.8</ele><time>2022-11-10T15:08:57.0000000+00:00</time></trkpt><trkpt lat="39.46530118" lon="-0.38714619"><ele>19.8</ele><time>2022-11-10T15:08:58.0000000+00:00</time></trkpt><trkpt lat="39.46525784" lon="-0.38718936"><ele>19.8</ele><time>2022-11-10T15:08:59.0000000+00:00</time></trkpt><trkpt lat="39.46521551" lon="-0.38722959"><ele>19.8</ele><time>2022-11-10T15:09:00.0000000+00:00</time></trkpt><trkpt lat="39.46515709" lon="-0.38726002"><ele>19.8</ele><time>2022-11-10T15:09:01.0000000+00:00</time></trkpt><trkpt lat="39.46511217" lon="-0.38729061"><ele>19.8</ele><time>2022-11-10T15:09:02.0000000+00:00</time></trkpt><trkpt lat="39.4650664" lon="-0.38732397"><ele>19.8</ele><time>2022-11-10T15:09:03.0000000+00:00</time></trkpt><trkpt lat="39.4650327" lon="-0.38735272"><ele>20.0</ele><time>2022-11-10T15:09:04.0000000+00:00</time></trkpt><trkpt lat="39.46499331" lon="-0.38739111"><ele>20.0</ele><time>2022-11-10T15:09:05.0000000+00:00</time></trkpt><trkpt lat="39.4649535" lon="-0.38742556"><ele>20.2</ele><time>2022-11-10T15:09:06.0000000+00:00</time></trkpt><trkpt lat="39.46490505" lon="-0.38746655"><ele>20.2</ele><time>2022-11-10T15:09:07.0000000+00:00</time></trkpt><trkpt lat="39.46487546" lon="-0.38749874"><ele>20.4</ele><time>2022-11-10T15:09:08.0000000+00:00</time></trkpt><trkpt lat="39.46483824" lon="-0.38753654"><ele>20.4</ele><time>2022-11-10T15:09:09.0000000+00:00</time></trkpt><trkpt lat="39.46479667" lon="-0.38758029"><ele>20.4</ele><time>2022-11-10T15:09:10.0000000+00:00</time></trkpt><trkpt lat="39.46477261" lon="-0.38762581"><ele>20.6</ele><time>2022-11-10T15:09:11.0000000+00:00</time></trkpt><trkpt lat="39.464738" lon="-0.38766654"><ele>20.6</ele><time>2022-11-10T15:09:12.0000000+00:00</time></trkpt><trkpt lat="39.46470112" lon="-0.38770451"><ele>20.6</ele><time>2022-11-10T15:09:13.0000000+00:00</time></trkpt><trkpt lat="39.4646872" lon="-0.38772404"><ele>20.6</ele><time>2022-11-10T15:09:14.0000000+00:00</time></trkpt><trkpt lat="39.46467279" lon="-0.38773988"><ele>20.6</ele><time>2022-11-10T15:09:15.0000000+00:00</time></trkpt><trkpt lat="39.46465703" lon="-0.38775832"><ele>20.4</ele><time>2022-11-10T15:09:16.0000000+00:00</time></trkpt><trkpt lat="39.46464965" lon="-0.38778883"><ele>20.4</ele><time>2022-11-10T15:09:17.0000000+00:00</time></trkpt><trkpt lat="39.46464571" lon="-0.38782077"><ele>20.4</ele><time>2022-11-10T15:09:18.0000000+00:00</time></trkpt><trkpt lat="39.46464228" lon="-0.38786444"><ele>20.4</ele><time>2022-11-10T15:09:19.0000000+00:00</time></trkpt><trkpt lat="39.4646354" lon="-0.38791054"><ele>20.4</ele><time>2022-11-10T15:09:20.0000000+00:00</time></trkpt><trkpt lat="39.46463138" lon="-0.38794231"><ele>20.4</ele><time>2022-11-10T15:09:21.0000000+00:00</time></trkpt><trkpt lat="39.46462241" lon="-0.38799176"><ele>20.4</ele><time>2022-11-10T15:09:22.0000000+00:00</time></trkpt><trkpt lat="39.46462157" lon="-0.38805865"><ele>20.4</ele><time>2022-11-10T15:09:23.0000000+00:00</time></trkpt><trkpt lat="39.46462836" lon="-0.38810844"><ele>20.4</ele><time>2022-11-10T15:09:24.0000000+00:00</time></trkpt><trkpt lat="39.46463104" lon="-0.38812897"><ele>20.4</ele><time>2022-11-10T15:09:25.0000000+00:00</time></trkpt><trkpt lat="39.46463046" lon="-0.38814439"><ele>20.4</ele><time>2022-11-10T15:09:26.0000000+00:00</time></trkpt><trkpt lat="39.46463222" lon="-0.38816476"><ele>20.4</ele><time>2022-11-10T15:09:27.0000000+00:00</time></trkpt><trkpt lat="39.46463599" lon="-0.3881822"><ele>20.4</ele><time>2022-11-10T15:09:28.0000000+00:00</time></trkpt><trkpt lat="39.4646442" lon="-0.38819829"><ele>20.4</ele><time>2022-11-10T15:09:29.0000000+00:00</time></trkpt><trkpt lat="39.46463381" lon="-0.3881993"><ele>20.6</ele><time>2022-11-10T15:09:30.0000000+00:00</time></trkpt><trkpt lat="39.46460682" lon="-0.38817943"><ele>20.6</ele><time>2022-11-10T15:09:31.0000000+00:00</time></trkpt><trkpt lat="39.46457346" lon="-0.38812487"><ele>20.8</ele><time>2022-11-10T15:09:32.0000000+00:00</time></trkpt><trkpt lat="39.46453884" lon="-0.38806871"><ele>20.8</ele><time>2022-11-10T15:09:33.0000000+00:00</time></trkpt><trkpt lat="39.46449291" lon="-0.38802663"><ele>21.0</ele><time>2022-11-10T15:09:34.0000000+00:00</time></trkpt><trkpt lat="39.46445343" lon="-0.38799268"><ele>21.0</ele><time>2022-11-10T15:09:35.0000000+00:00</time></trkpt><trkpt lat="39.46441555" lon="-0.38796343"><ele>21.0</ele><time>2022-11-10T15:09:36.0000000+00:00</time></trkpt><trkpt lat="39.46437799" lon="-0.3879377"><ele>21.0</ele><time>2022-11-10T15:09:37.0000000+00:00</time></trkpt><trkpt lat="39.46432712" lon="-0.38790979"><ele>21.0</ele><time>2022-11-10T15:09:38.0000000+00:00</time></trkpt><trkpt lat="39.46428856" lon="-0.38788682"><ele>20.8</ele><time>2022-11-10T15:09:39.0000000+00:00</time></trkpt><trkpt lat="39.46425855" lon="-0.38786444"><ele>20.6</ele><time>2022-11-10T15:09:40.0000000+00:00</time></trkpt><trkpt lat="39.46421622" lon="-0.38783183"><ele>20.6</ele><time>2022-11-10T15:09:41.0000000+00:00</time></trkpt><trkpt lat="39.46418596" lon="-0.38781172"><ele>20.4</ele><time>2022-11-10T15:09:42.0000000+00:00</time></trkpt><trkpt lat="39.46414741" lon="-0.38778833"><ele>20.4</ele><time>2022-11-10T15:09:43.0000000+00:00</time></trkpt><trkpt lat="39.46413006" lon="-0.38777174"><ele>20.4</ele><time>2022-11-10T15:09:44.0000000+00:00</time></trkpt><trkpt lat="39.46412587" lon="-0.38776654"><ele>20.4</ele><time>2022-11-10T15:09:45.0000000+00:00</time></trkpt><trkpt lat="39.46412587" lon="-0.38776654"><ele>20.2</ele><time>2022-11-10T15:09:46.0000000+00:00</time></trkpt><trkpt lat="39.46412587" lon="-0.38776654"><ele>20.0</ele><time>2022-11-10T15:09:47.0000000+00:00</time></trkpt><trkpt lat="39.46412587" lon="-0.38776654"><ele>20.0</ele><time>2022-11-10T15:09:48.0000000+00:00</time></trkpt><trkpt lat="39.46412587" lon="-0.38776654"><ele>19.6</ele><time>2022-11-10T15:09:49.0000000+00:00</time></trkpt><trkpt lat="39.46412587" lon="-0.38776654"><ele>19.6</ele><time>2022-11-10T15:09:50.0000000+00:00</time></trkpt><trkpt lat="39.46412587" lon="-0.38776654"><ele>19.6</ele><time>2022-11-10T15:09:51.0000000+00:00</time></trkpt><trkpt lat="39.46412587" lon="-0.38776654"><ele>19.6</ele><time>2022-11-10T15:09:52.0000000+00:00</time></trkpt><trkpt lat="39.46412587" lon="-0.38776654"><ele>19.6</ele><time>2022-11-10T15:09:53.0000000+00:00</time></trkpt><trkpt lat="39.46412587" lon="-0.38776654"><ele>19.6</ele><time>2022-11-10T15:09:54.0000000+00:00</time></trkpt><trkpt lat="39.46412587" lon="-0.38776654"><ele>19.6</ele><time>2022-11-10T15:09:55.0000000+00:00</time></trkpt><trkpt lat="39.46412587" lon="-0.38776654"><ele>19.6</ele><time>2022-11-10T15:09:56.0000000+00:00</time></trkpt><trkpt lat="39.46412587" lon="-0.38776654"><ele>19.6</ele><time>2022-11-10T15:09:57.0000000+00:00</time></trkpt><trkpt lat="39.46412587" lon="-0.38776654"><ele>19.6</ele><time>2022-11-10T15:09:58.0000000+00:00</time></trkpt><trkpt lat="39.46412587" lon="-0.38776654"><ele>19.6</ele><time>2022-11-10T15:09:59.0000000+00:00</time></trkpt><trkpt lat="39.46412587" lon="-0.38776654"><ele>19.6</ele><time>2022-11-10T15:10:00.0000000+00:00</time></trkpt><trkpt lat="39.46412587" lon="-0.38776654"><ele>19.6</ele><time>2022-11-10T15:10:01.0000000+00:00</time></trkpt><trkpt lat="39.46412696" lon="-0.38776428"><ele>19.6</ele><time>2022-11-10T15:10:02.0000000+00:00</time></trkpt><trkpt lat="39.4641138" lon="-0.38775975"><ele>19.6</ele><time>2022-11-10T15:10:03.0000000+00:00</time></trkpt><trkpt lat="39.46409762" lon="-0.38775816"><ele>19.6</ele><time>2022-11-10T15:10:04.0000000+00:00</time></trkpt><trkpt lat="39.4640744" lon="-0.38774718"><ele>19.6</ele><time>2022-11-10T15:10:05.0000000+00:00</time></trkpt><trkpt lat="39.46405403" lon="-0.38775715"><ele>19.6</ele><time>2022-11-10T15:10:06.0000000+00:00</time></trkpt><trkpt lat="39.46403618" lon="-0.38773997"><ele>19.6</ele><time>2022-11-10T15:10:07.0000000+00:00</time></trkpt><trkpt lat="39.46401539" lon="-0.38772848"><ele>19.6</ele><time>2022-11-10T15:10:08.0000000+00:00</time></trkpt><trkpt lat="39.46398773" lon="-0.38773452"><ele>19.6</ele><time>2022-11-10T15:10:09.0000000+00:00</time></trkpt><trkpt lat="39.46397575" lon="-0.38774039"><ele>19.6</ele><time>2022-11-10T15:10:10.0000000+00:00</time></trkpt><trkpt lat="39.4639599" lon="-0.38774198"><ele>19.6</ele><time>2022-11-10T15:10:11.0000000+00:00</time></trkpt><trkpt lat="39.4639599" lon="-0.38773863"><ele>19.6</ele><time>2022-11-10T15:10:12.0000000+00:00</time></trkpt><trkpt lat="39.4639599" lon="-0.38773863"><ele>19.6</ele><time>2022-11-10T15:10:13.0000000+00:00</time></trkpt><trkpt lat="39.4639599" lon="-0.38773863"><ele>19.6</ele><time>2022-11-10T15:10:14.0000000+00:00</time></trkpt><trkpt lat="39.4639599" lon="-0.38773863"><ele>19.6</ele><time>2022-11-10T15:10:15.0000000+00:00</time></trkpt><trkpt lat="39.46394574" lon="-0.38774173"><ele>19.6</ele><time>2022-11-10T15:10:16.0000000+00:00</time></trkpt><trkpt lat="39.46393811" lon="-0.38774265"><ele>19.6</ele><time>2022-11-10T15:10:17.0000000+00:00</time></trkpt><trkpt lat="39.46393794" lon="-0.38774525"><ele>19.4</ele><time>2022-11-10T15:10:18.0000000+00:00</time></trkpt><trkpt lat="39.46394339" lon="-0.38774508"><ele>19.4</ele><time>2022-11-10T15:10:19.0000000+00:00</time></trkpt><trkpt lat="39.46394339" lon="-0.38774508"><ele>19.4</ele><time>2022-11-10T15:10:20.0000000+00:00</time></trkpt><trkpt lat="39.46394339" lon="-0.38774508"><ele>19.4</ele><time>2022-11-10T15:10:21.0000000+00:00</time></trkpt><trkpt lat="39.46394339" lon="-0.38774508"><ele>19.4</ele><time>2022-11-10T15:10:22.0000000+00:00</time></trkpt><trkpt lat="39.46393803" lon="-0.38775019"><ele>19.4</ele><time>2022-11-10T15:10:23.0000000+00:00</time></trkpt><trkpt lat="39.4639356" lon="-0.38775221"><ele>19.4</ele><time>2022-11-10T15:10:24.0000000+00:00</time></trkpt><trkpt lat="39.4639356" lon="-0.38775221"><ele>19.4</ele><time>2022-11-10T15:10:25.0000000+00:00</time></trkpt><trkpt lat="39.4639356" lon="-0.38775221"><ele>19.4</ele><time>2022-11-10T15:10:26.0000000+00:00</time></trkpt><trkpt lat="39.46393769" lon="-0.38775749"><ele>19.4</ele><time>2022-11-10T15:10:27.0000000+00:00</time></trkpt><trkpt lat="39.46392881" lon="-0.38778867"><ele>19.4</ele><time>2022-11-10T15:10:28.0000000+00:00</time></trkpt><trkpt lat="39.46390341" lon="-0.38784063"><ele>19.6</ele><time>2022-11-10T15:10:29.0000000+00:00</time></trkpt><trkpt lat="39.46386871" lon="-0.38787299"><ele>19.6</ele><time>2022-11-10T15:10:30.0000000+00:00</time></trkpt><trkpt lat="39.46383988" lon="-0.3878776"><ele>19.6</ele><time>2022-11-10T15:10:31.0000000+00:00</time></trkpt><trkpt lat="39.46382663" lon="-0.38789026"><ele>19.6</ele><time>2022-11-10T15:10:32.0000000+00:00</time></trkpt><trkpt lat="39.46382336" lon="-0.38788087"><ele>19.8</ele><time>2022-11-10T15:10:33.0000000+00:00</time></trkpt><trkpt lat="39.46382487" lon="-0.38787399"><ele>20.0</ele><time>2022-11-10T15:10:34.0000000+00:00</time></trkpt><trkpt lat="39.46382739" lon="-0.3878693"><ele>20.0</ele><time>2022-11-10T15:10:35.0000000+00:00</time></trkpt><trkpt lat="39.46382663" lon="-0.38785807"><ele>20.0</ele><time>2022-11-10T15:10:36.0000000+00:00</time></trkpt><trkpt lat="39.46381255" lon="-0.38783661"><ele>20.0</ele><time>2022-11-10T15:10:37.0000000+00:00</time></trkpt><trkpt lat="39.46379654" lon="-0.3878201"><ele>20.0</ele><time>2022-11-10T15:10:38.0000000+00:00</time></trkpt><trkpt lat="39.46377969" lon="-0.38780577"><ele>20.0</ele><time>2022-11-10T15:10:39.0000000+00:00</time></trkpt><trkpt lat="39.46376176" lon="-0.38778188"><ele>20.0</ele><time>2022-11-10T15:10:40.0000000+00:00</time></trkpt><trkpt lat="39.46374365" lon="-0.38776889"><ele>20.0</ele><time>2022-11-10T15:10:41.0000000+00:00</time></trkpt><trkpt lat="39.46371943" lon="-0.38775304"><ele>20.0</ele><time>2022-11-10T15:10:42.0000000+00:00</time></trkpt><trkpt lat="39.46368624" lon="-0.38772279"><ele>20.0</ele><time>2022-11-10T15:10:43.0000000+00:00</time></trkpt><trkpt lat="39.46364801" lon="-0.38769152"><ele>20.0</ele><time>2022-11-10T15:10:44.0000000+00:00</time></trkpt><trkpt lat="39.4636144" lon="-0.38765363"><ele>20.0</ele><time>2022-11-10T15:10:45.0000000+00:00</time></trkpt><trkpt lat="39.46357853" lon="-0.38761986"><ele>20.2</ele><time>2022-11-10T15:10:46.0000000+00:00</time></trkpt><trkpt lat="39.46353796" lon="-0.38759396"><ele>20.2</ele><time>2022-11-10T15:10:47.0000000+00:00</time></trkpt><trkpt lat="39.4635072" lon="-0.38756571"><ele>20.4</ele><time>2022-11-10T15:10:48.0000000+00:00</time></trkpt><trkpt lat="39.4634756" lon="-0.38753436"><ele>20.4</ele><time>2022-11-10T15:10:49.0000000+00:00</time></trkpt><trkpt lat="39.46344274" lon="-0.38750511"><ele>20.4</ele><time>2022-11-10T15:10:50.0000000+00:00</time></trkpt><trkpt lat="39.46341877" lon="-0.38746906"><ele>20.6</ele><time>2022-11-10T15:10:51.0000000+00:00</time></trkpt><trkpt lat="39.46340276" lon="-0.38743009"><ele>20.6</ele><time>2022-11-10T15:10:52.0000000+00:00</time></trkpt><trkpt lat="39.46339337" lon="-0.38738868"><ele>20.6</ele><time>2022-11-10T15:10:53.0000000+00:00</time></trkpt><trkpt lat="39.46338985" lon="-0.38733915"><ele>20.6</ele><time>2022-11-10T15:10:54.0000000+00:00</time></trkpt><trkpt lat="39.4633922" lon="-0.38733085"><ele>20.6</ele><time>2022-11-10T15:10:55.0000000+00:00</time></trkpt><trkpt lat="39.4633922" lon="-0.38733085"><ele>20.6</ele><time>2022-11-10T15:10:56.0000000+00:00</time></trkpt><trkpt lat="39.46339044" lon="-0.3873135"><ele>20.8</ele><time>2022-11-10T15:10:57.0000000+00:00</time></trkpt><trkpt lat="39.4633844" lon="-0.38728869"><ele>20.8</ele><time>2022-11-10T15:10:58.0000000+00:00</time></trkpt><trkpt lat="39.46337845" lon="-0.38726865"><ele>20.8</ele><time>2022-11-10T15:10:59.0000000+00:00</time></trkpt><trkpt lat="39.46335565" lon="-0.38724108"><ele>20.8</ele><time>2022-11-10T15:11:00.0000000+00:00</time></trkpt><trkpt lat="39.46332766" lon="-0.38721216"><ele>20.8</ele><time>2022-11-10T15:11:01.0000000+00:00</time></trkpt><trkpt lat="39.46329497" lon="-0.38716891"><ele>20.8</ele><time>2022-11-10T15:11:02.0000000+00:00</time></trkpt><trkpt lat="39.46326806" lon="-0.38712842"><ele>20.8</ele><time>2022-11-10T15:11:03.0000000+00:00</time></trkpt><trkpt lat="39.46324376" lon="-0.38708341"><ele>20.6</ele><time>2022-11-10T15:11:04.0000000+00:00</time></trkpt><trkpt lat="39.46321249" lon="-0.38703245"><ele>20.6</ele><time>2022-11-10T15:11:05.0000000+00:00</time></trkpt><trkpt lat="39.46317821" lon="-0.3869892"><ele>20.6</ele><time>2022-11-10T15:11:06.0000000+00:00</time></trkpt><trkpt lat="39.46314443" lon="-0.38695039"><ele>20.4</ele><time>2022-11-10T15:11:07.0000000+00:00</time></trkpt><trkpt lat="39.46312951" lon="-0.38692751"><ele>20.4</ele><time>2022-11-10T15:11:08.0000000+00:00</time></trkpt><trkpt lat="39.46312825" lon="-0.38692692"><ele>20.4</ele><time>2022-11-10T15:11:09.0000000+00:00</time></trkpt><trkpt lat="39.46313278" lon="-0.38692944"><ele>20.4</ele><time>2022-11-10T15:11:10.0000000+00:00</time></trkpt><trkpt lat="39.46313261" lon="-0.38693623"><ele>20.6</ele><time>2022-11-10T15:11:11.0000000+00:00</time></trkpt><trkpt lat="39.46312364" lon="-0.38692416"><ele>20.6</ele><time>2022-11-10T15:11:12.0000000+00:00</time></trkpt><trkpt lat="39.46311467" lon="-0.38691184"><ele>20.6</ele><time>2022-11-10T15:11:13.0000000+00:00</time></trkpt><trkpt lat="39.4630969" lon="-0.38686565"><ele>20.6</ele><time>2022-11-10T15:11:14.0000000+00:00</time></trkpt><trkpt lat="39.4630705" lon="-0.38681335"><ele>20.8</ele><time>2022-11-10T15:11:15.0000000+00:00</time></trkpt><trkpt lat="39.46304728" lon="-0.38677345"><ele>20.8</ele><time>2022-11-10T15:11:16.0000000+00:00</time></trkpt><trkpt lat="39.46301912" lon="-0.38672433"><ele>20.8</ele><time>2022-11-10T15:11:17.0000000+00:00</time></trkpt><trkpt lat="39.46296958" lon="-0.38668561"><ele>20.6</ele><time>2022-11-10T15:11:18.0000000+00:00</time></trkpt><trkpt lat="39.46290471" lon="-0.38666667"><ele>20.4</ele><time>2022-11-10T15:11:19.0000000+00:00</time></trkpt><trkpt lat="39.46285442" lon="-0.38666314"><ele>20.2</ele><time>2022-11-10T15:11:20.0000000+00:00</time></trkpt><trkpt lat="39.46281737" lon="-0.38666583"><ele>20.0</ele><time>2022-11-10T15:11:21.0000000+00:00</time></trkpt><trkpt lat="39.46281469" lon="-0.38666382"><ele>20.0</ele><time>2022-11-10T15:11:22.0000000+00:00</time></trkpt><trkpt lat="39.46281469" lon="-0.38666382"><ele>20.0</ele><time>2022-11-10T15:11:23.0000000+00:00</time></trkpt><trkpt lat="39.46278887" lon="-0.38666708"><ele>20.0</ele><time>2022-11-10T15:11:24.0000000+00:00</time></trkpt><trkpt lat="39.46278627" lon="-0.3866634"><ele>20.0</ele><time>2022-11-10T15:11:25.0000000+00:00</time></trkpt><trkpt lat="39.46278627" lon="-0.3866634"><ele>19.8</ele><time>2022-11-10T15:11:26.0000000+00:00</time></trkpt><trkpt lat="39.46278627" lon="-0.3866634"><ele>19.8</ele><time>2022-11-10T15:11:27.0000000+00:00</time></trkpt><trkpt lat="39.46278627" lon="-0.3866634"><ele>19.6</ele><time>2022-11-10T15:11:28.0000000+00:00</time></trkpt><trkpt lat="39.46278627" lon="-0.3866634"><ele>19.6</ele><time>2022-11-10T15:11:29.0000000+00:00</time></trkpt><trkpt lat="39.46278627" lon="-0.3866634"><ele>19.6</ele><time>2022-11-10T15:11:30.0000000+00:00</time></trkpt><trkpt lat="39.46275752" lon="-0.38669248"><ele>19.6</ele><time>2022-11-10T15:11:31.0000000+00:00</time></trkpt><trkpt lat="39.46272399" lon="-0.38670095"><ele>19.6</ele><time>2022-11-10T15:11:32.0000000+00:00</time></trkpt><trkpt lat="39.46269323" lon="-0.38670036"><ele>19.6</ele><time>2022-11-10T15:11:33.0000000+00:00</time></trkpt><trkpt lat="39.46266121" lon="-0.38668762"><ele>19.6</ele><time>2022-11-10T15:11:34.0000000+00:00</time></trkpt><trkpt lat="39.46261067" lon="-0.38666348"><ele>19.6</ele><time>2022-11-10T15:11:35.0000000+00:00</time></trkpt><trkpt lat="39.46256809" lon="-0.38664001"><ele>19.6</ele><time>2022-11-10T15:11:36.0000000+00:00</time></trkpt><trkpt lat="39.46252459" lon="-0.38661344"><ele>19.6</ele><time>2022-11-10T15:11:37.0000000+00:00</time></trkpt><trkpt lat="39.46248427" lon="-0.38658989"><ele>19.6</ele><time>2022-11-10T15:11:38.0000000+00:00</time></trkpt><trkpt lat="39.46244697" lon="-0.38658796"><ele>19.8</ele><time>2022-11-10T15:11:39.0000000+00:00</time></trkpt><trkpt lat="39.46240657" lon="-0.38658821"><ele>19.8</ele><time>2022-11-10T15:11:40.0000000+00:00</time></trkpt><trkpt lat="39.46236701" lon="-0.38658075"><ele>19.8</ele><time>2022-11-10T15:11:41.0000000+00:00</time></trkpt><trkpt lat="39.46232468" lon="-0.38657555"><ele>20.0</ele><time>2022-11-10T15:11:42.0000000+00:00</time></trkpt><trkpt lat="39.46228428" lon="-0.38654094"><ele>20.0</ele><time>2022-11-10T15:11:43.0000000+00:00</time></trkpt><trkpt lat="39.4622448" lon="-0.38651328"><ele>20.2</ele><time>2022-11-10T15:11:44.0000000+00:00</time></trkpt><trkpt lat="39.46219635" lon="-0.3864795"><ele>20.0</ele><time>2022-11-10T15:11:45.0000000+00:00</time></trkpt><trkpt lat="39.46214229" lon="-0.38643499"><ele>20.0</ele><time>2022-11-10T15:11:46.0000000+00:00</time></trkpt><trkpt lat="39.46209367" lon="-0.38639065"><ele>20.0</ele><time>2022-11-10T15:11:47.0000000+00:00</time></trkpt><trkpt lat="39.46204112" lon="-0.38633223"><ele>20.0</ele><time>2022-11-10T15:11:48.0000000+00:00</time></trkpt><trkpt lat="39.46199468" lon="-0.38629434"><ele>20.0</ele><time>2022-11-10T15:11:49.0000000+00:00</time></trkpt><trkpt lat="39.46194657" lon="-0.38625956"><ele>20.0</ele><time>2022-11-10T15:11:50.0000000+00:00</time></trkpt><trkpt lat="39.46190458" lon="-0.3862303"><ele>20.2</ele><time>2022-11-10T15:11:51.0000000+00:00</time></trkpt><trkpt lat="39.46185052" lon="-0.38619669"><ele>20.2</ele><time>2022-11-10T15:11:52.0000000+00:00</time></trkpt><trkpt lat="39.46181129" lon="-0.38617021"><ele>20.2</ele><time>2022-11-10T15:11:53.0000000+00:00</time></trkpt><trkpt lat="39.4617765" lon="-0.38612494"><ele>20.2</ele><time>2022-11-10T15:11:54.0000000+00:00</time></trkpt><trkpt lat="39.46174432" lon="-0.38608681"><ele>20.2</ele><time>2022-11-10T15:11:55.0000000+00:00</time></trkpt><trkpt lat="39.46174608" lon="-0.38604523"><ele>20.2</ele><time>2022-11-10T15:11:56.0000000+00:00</time></trkpt><trkpt lat="39.46174717" lon="-0.38601154"><ele>20.2</ele><time>2022-11-10T15:11:57.0000000+00:00</time></trkpt><trkpt lat="39.4617361" lon="-0.38597918"><ele>20.2</ele><time>2022-11-10T15:11:58.0000000+00:00</time></trkpt><trkpt lat="39.46173409" lon="-0.38596544"><ele>20.0</ele><time>2022-11-10T15:11:59.0000000+00:00</time></trkpt><trkpt lat="39.46171682" lon="-0.38596443"><ele>20.0</ele><time>2022-11-10T15:12:00.0000000+00:00</time></trkpt><trkpt lat="39.46159847" lon="-0.38595898"><ele>20.0</ele><time>2022-11-10T15:12:01.0000000+00:00</time></trkpt><trkpt lat="39.46148087" lon="-0.38594255"><ele>19.8</ele><time>2022-11-10T15:12:02.0000000+00:00</time></trkpt><trkpt lat="39.46136705" lon="-0.38592612"><ele>19.6</ele><time>2022-11-10T15:12:03.0000000+00:00</time></trkpt><trkpt lat="39.46126697" lon="-0.38592068"><ele>19.6</ele><time>2022-11-10T15:12:04.0000000+00:00</time></trkpt><trkpt lat="39.46120243" lon="-0.38592135"><ele>19.4</ele><time>2022-11-10T15:12:05.0000000+00:00</time></trkpt><trkpt lat="39.46112238" lon="-0.38591799"><ele>19.4</ele><time>2022-11-10T15:12:06.0000000+00:00</time></trkpt><trkpt lat="39.46105541" lon="-0.38590936"><ele>19.2</ele><time>2022-11-10T15:12:07.0000000+00:00</time></trkpt><trkpt lat="39.46098575" lon="-0.38588522"><ele>19.2</ele><time>2022-11-10T15:12:08.0000000+00:00</time></trkpt><trkpt lat="39.46093655" lon="-0.38587323"><ele>19.2</ele><time>2022-11-10T15:12:09.0000000+00:00</time></trkpt><trkpt lat="39.46088249" lon="-0.38586485"><ele>19.2</ele><time>2022-11-10T15:12:10.0000000+00:00</time></trkpt><trkpt lat="39.46083362" lon="-0.38586401"><ele>19.2</ele><time>2022-11-10T15:12:11.0000000+00:00</time></trkpt><trkpt lat="39.46077554" lon="-0.38585949"><ele>19.0</ele><time>2022-11-10T15:12:12.0000000+00:00</time></trkpt><trkpt lat="39.46071359" lon="-0.38584507"><ele>19.0</ele><time>2022-11-10T15:12:13.0000000+00:00</time></trkpt><trkpt lat="39.46064821" lon="-0.38582445"><ele>19.0</ele><time>2022-11-10T15:12:14.0000000+00:00</time></trkpt><trkpt lat="39.46059256" lon="-0.38579989"><ele>19.0</ele><time>2022-11-10T15:12:15.0000000+00:00</time></trkpt><trkpt lat="39.46055124" lon="-0.38576519"><ele>19.0</ele><time>2022-11-10T15:12:16.0000000+00:00</time></trkpt><trkpt lat="39.46052282" lon="-0.38572798"><ele>18.8</ele><time>2022-11-10T15:12:17.0000000+00:00</time></trkpt><trkpt lat="39.46050421" lon="-0.38568405"><ele>18.8</ele><time>2022-11-10T15:12:18.0000000+00:00</time></trkpt><trkpt lat="39.46048318" lon="-0.38565824"><ele>18.8</ele><time>2022-11-10T15:12:19.0000000+00:00</time></trkpt><trkpt lat="39.46046842" lon="-0.3856351"><ele>18.8</ele><time>2022-11-10T15:12:20.0000000+00:00</time></trkpt><trkpt lat="39.460467" lon="-0.3856294"><ele>18.8</ele><time>2022-11-10T15:12:21.0000000+00:00</time></trkpt><trkpt lat="39.460467" lon="-0.3856294"><ele>18.6</ele><time>2022-11-10T15:12:22.0000000+00:00</time></trkpt><trkpt lat="39.460467" lon="-0.3856294"><ele>18.6</ele><time>2022-11-10T15:12:23.0000000+00:00</time></trkpt><trkpt lat="39.460467" lon="-0.3856294"><ele>18.4</ele><time>2022-11-10T15:12:24.0000000+00:00</time></trkpt><trkpt lat="39.46047203" lon="-0.38561499"><ele>18.4</ele><time>2022-11-10T15:12:25.0000000+00:00</time></trkpt><trkpt lat="39.46046817" lon="-0.38561608"><ele>18.2</ele><time>2022-11-10T15:12:26.0000000+00:00</time></trkpt><trkpt lat="39.4604644" lon="-0.38561524"><ele>18.2</ele><time>2022-11-10T15:12:27.0000000+00:00</time></trkpt><trkpt lat="39.4604644" lon="-0.38561524"><ele>18.2</ele><time>2022-11-10T15:12:28.0000000+00:00</time></trkpt><trkpt lat="39.46046448" lon="-0.38561289"><ele>18.2</ele><time>2022-11-10T15:12:29.0000000+00:00</time></trkpt><trkpt lat="39.46046239" lon="-0.3856077"><ele>18.2</ele><time>2022-11-10T15:12:30.0000000+00:00</time></trkpt><trkpt lat="39.46046365" lon="-0.38560107"><ele>18.2</ele><time>2022-11-10T15:12:31.0000000+00:00</time></trkpt><trkpt lat="39.46045971" lon="-0.38560158"><ele>18.2</ele><time>2022-11-10T15:12:32.0000000+00:00</time></trkpt><trkpt lat="39.46045971" lon="-0.38560158"><ele>18.2</ele><time>2022-11-10T15:12:33.0000000+00:00</time></trkpt><trkpt lat="39.46045971" lon="-0.38560158"><ele>18.2</ele><time>2022-11-10T15:12:34.0000000+00:00</time></trkpt><trkpt lat="39.46045971" lon="-0.38560158"><ele>18.2</ele><time>2022-11-10T15:12:35.0000000+00:00</time></trkpt><trkpt lat="39.46045971" lon="-0.38560158"><ele>18.2</ele><time>2022-11-10T15:12:36.0000000+00:00</time></trkpt><trkpt lat="39.46045971" lon="-0.38560158"><ele>18.4</ele><time>2022-11-10T15:12:37.0000000+00:00</time></trkpt><trkpt lat="39.46045971" lon="-0.38560158"><ele>18.4</ele><time>2022-11-10T15:12:38.0000000+00:00</time></trkpt><trkpt lat="39.46045971" lon="-0.38560158"><ele>18.4</ele><time>2022-11-10T15:12:39.0000000+00:00</time></trkpt><trkpt lat="39.46045971" lon="-0.38560158"><ele>18.4</ele><time>2022-11-10T15:12:40.0000000+00:00</time></trkpt><trkpt lat="39.46045971" lon="-0.38560158"><ele>18.4</ele><time>2022-11-10T15:12:41.0000000+00:00</time></trkpt><trkpt lat="39.46045971" lon="-0.38560158"><ele>18.2</ele><time>2022-11-10T15:12:42.0000000+00:00</time></trkpt><trkpt lat="39.46045971" lon="-0.38560158"><ele>18.2</ele><time>2022-11-10T15:12:43.0000000+00:00</time></trkpt><trkpt lat="39.46046013" lon="-0.3855906"><ele>18.2</ele><time>2022-11-10T15:12:44.0000000+00:00</time></trkpt><trkpt lat="39.46045233" lon="-0.38558054"><ele>18.2</ele><time>2022-11-10T15:12:45.0000000+00:00</time></trkpt><trkpt lat="39.46044043" lon="-0.38556243"><ele>18.2</ele><time>2022-11-10T15:12:46.0000000+00:00</time></trkpt><trkpt lat="39.46042702" lon="-0.38554131"><ele>18.2</ele><time>2022-11-10T15:12:47.0000000+00:00</time></trkpt><trkpt lat="39.46041436" lon="-0.38551457"><ele>18.4</ele><time>2022-11-10T15:12:48.0000000+00:00</time></trkpt><trkpt lat="39.46040891" lon="-0.38547224"><ele>18.4</ele><time>2022-11-10T15:12:49.0000000+00:00</time></trkpt><trkpt lat="39.46041327" lon="-0.38541508"><ele>18.4</ele><time>2022-11-10T15:12:50.0000000+00:00</time></trkpt><trkpt lat="39.46040883" lon="-0.38536336"><ele>18.6</ele><time>2022-11-10T15:12:51.0000000+00:00</time></trkpt><trkpt lat="39.46037882" lon="-0.38533118"><ele>18.6</ele><time>2022-11-10T15:12:52.0000000+00:00</time></trkpt><trkpt lat="39.46033943" lon="-0.38530788"><ele>18.8</ele><time>2022-11-10T15:12:53.0000000+00:00</time></trkpt><trkpt lat="39.46029718" lon="-0.38527125"><ele>18.8</ele><time>2022-11-10T15:12:54.0000000+00:00</time></trkpt><trkpt lat="39.46025628" lon="-0.38522808"><ele>18.8</ele><time>2022-11-10T15:12:55.0000000+00:00</time></trkpt><trkpt lat="39.46021764" lon="-0.38517544"><ele>18.8</ele><time>2022-11-10T15:12:56.0000000+00:00</time></trkpt><trkpt lat="39.46018092" lon="-0.38512523"><ele>18.8</ele><time>2022-11-10T15:12:57.0000000+00:00</time></trkpt><trkpt lat="39.46014253" lon="-0.38508978"><ele>19.0</ele><time>2022-11-10T15:12:58.0000000+00:00</time></trkpt><trkpt lat="39.46010423" lon="-0.38503815"><ele>19.0</ele><time>2022-11-10T15:12:59.0000000+00:00</time></trkpt><trkpt lat="39.46007975" lon="-0.38499464"><ele>19.0</ele><time>2022-11-10T15:13:00.0000000+00:00</time></trkpt><trkpt lat="39.46004899" lon="-0.38493471"><ele>19.0</ele><time>2022-11-10T15:13:01.0000000+00:00</time></trkpt><trkpt lat="39.46001731" lon="-0.38488325"><ele>19.0</ele><time>2022-11-10T15:13:02.0000000+00:00</time></trkpt><trkpt lat="39.45996635" lon="-0.38484176"><ele>19.0</ele><time>2022-11-10T15:13:03.0000000+00:00</time></trkpt><trkpt lat="39.45990617" lon="-0.38480421"><ele>18.8</ele><time>2022-11-10T15:13:04.0000000+00:00</time></trkpt><trkpt lat="39.45985755" lon="-0.38477588"><ele>18.8</ele><time>2022-11-10T15:13:05.0000000+00:00</time></trkpt><trkpt lat="39.45980206" lon="-0.38475123"><ele>18.8</ele><time>2022-11-10T15:13:06.0000000+00:00</time></trkpt><trkpt lat="39.45974473" lon="-0.38472952"><ele>18.8</ele><time>2022-11-10T15:13:07.0000000+00:00</time></trkpt><trkpt lat="39.45969176" lon="-0.38467764"><ele>18.6</ele><time>2022-11-10T15:13:08.0000000+00:00</time></trkpt><trkpt lat="39.45965697" lon="-0.38462676"><ele>18.6</ele><time>2022-11-10T15:13:09.0000000+00:00</time></trkpt><trkpt lat="39.45962554" lon="-0.38458871"><ele>18.8</ele><time>2022-11-10T15:13:10.0000000+00:00</time></trkpt><trkpt lat="39.45957793" lon="-0.38456909"><ele>18.8</ele><time>2022-11-10T15:13:11.0000000+00:00</time></trkpt><trkpt lat="39.45953485" lon="-0.38456113"><ele>18.8</ele><time>2022-11-10T15:13:12.0000000+00:00</time></trkpt><trkpt lat="39.45950895" lon="-0.38455552"><ele>18.8</ele><time>2022-11-10T15:13:13.0000000+00:00</time></trkpt><trkpt lat="39.45949973" lon="-0.38457203"><ele>18.8</ele><time>2022-11-10T15:13:14.0000000+00:00</time></trkpt><trkpt lat="39.45949805" lon="-0.38454998"><ele>18.6</ele><time>2022-11-10T15:13:15.0000000+00:00</time></trkpt><trkpt lat="39.45947835" lon="-0.38450531"><ele>18.4</ele><time>2022-11-10T15:13:16.0000000+00:00</time></trkpt><trkpt lat="39.45945161" lon="-0.3844608"><ele>18.4</ele><time>2022-11-10T15:13:17.0000000+00:00</time></trkpt><trkpt lat="39.45942789" lon="-0.38443373"><ele>18.4</ele><time>2022-11-10T15:13:18.0000000+00:00</time></trkpt><trkpt lat="39.45942379" lon="-0.38440053"><ele>18.4</ele><time>2022-11-10T15:13:19.0000000+00:00</time></trkpt><trkpt lat="39.45938892" lon="-0.38435997"><ele>18.4</ele><time>2022-11-10T15:13:20.0000000+00:00</time></trkpt><trkpt lat="39.45934575" lon="-0.38434354"><ele>18.4</ele><time>2022-11-10T15:13:21.0000000+00:00</time></trkpt><trkpt lat="39.45928875" lon="-0.38433339"><ele>18.4</ele><time>2022-11-10T15:13:22.0000000+00:00</time></trkpt><trkpt lat="39.45923327" lon="-0.38432241"><ele>18.6</ele><time>2022-11-10T15:13:23.0000000+00:00</time></trkpt><trkpt lat="39.45920829" lon="-0.38431403"><ele>18.8</ele><time>2022-11-10T15:13:24.0000000+00:00</time></trkpt><trkpt lat="39.45918155" lon="-0.38429769"><ele>18.6</ele><time>2022-11-10T15:13:25.0000000+00:00</time></trkpt><trkpt lat="39.45915691" lon="-0.38428042"><ele>18.4</ele><time>2022-11-10T15:13:26.0000000+00:00</time></trkpt><trkpt lat="39.45911927" lon="-0.38425838"><ele>18.4</ele><time>2022-11-10T15:13:27.0000000+00:00</time></trkpt><trkpt lat="39.45908465" lon="-0.38424136"><ele>18.2</ele><time>2022-11-10T15:13:28.0000000+00:00</time></trkpt><trkpt lat="39.45905892" lon="-0.38421948"><ele>18.2</ele><time>2022-11-10T15:13:29.0000000+00:00</time></trkpt><trkpt lat="39.45903093" lon="-0.38419962"><ele>18.2</ele><time>2022-11-10T15:13:30.0000000+00:00</time></trkpt><trkpt lat="39.45899924" lon="-0.38417565"><ele>18.2</ele><time>2022-11-10T15:13:31.0000000+00:00</time></trkpt><trkpt lat="39.45897016" lon="-0.38414899"><ele>18.2</ele><time>2022-11-10T15:13:32.0000000+00:00</time></trkpt><trkpt lat="39.45894233" lon="-0.38411815"><ele>18.0</ele><time>2022-11-10T15:13:33.0000000+00:00</time></trkpt><trkpt lat="39.45891241" lon="-0.38409283"><ele>18.0</ele><time>2022-11-10T15:13:34.0000000+00:00</time></trkpt><trkpt lat="39.45888374" lon="-0.38407196"><ele>17.8</ele><time>2022-11-10T15:13:35.0000000+00:00</time></trkpt><trkpt lat="39.45885591" lon="-0.38405411"><ele>17.6</ele><time>2022-11-10T15:13:36.0000000+00:00</time></trkpt><trkpt lat="39.45884862" lon="-0.38404967"><ele>17.6</ele><time>2022-11-10T15:13:37.0000000+00:00</time></trkpt><trkpt lat="39.45884862" lon="-0.38404967"><ele>17.4</ele><time>2022-11-10T15:13:38.0000000+00:00</time></trkpt><trkpt lat="39.45883613" lon="-0.38405143"><ele>17.4</ele><time>2022-11-10T15:13:39.0000000+00:00</time></trkpt><trkpt lat="39.45881744" lon="-0.3840469"><ele>17.4</ele><time>2022-11-10T15:13:40.0000000+00:00</time></trkpt><trkpt lat="39.45880185" lon="-0.3840604"><ele>17.4</ele><time>2022-11-10T15:13:41.0000000+00:00</time></trkpt><trkpt lat="39.45879288" lon="-0.38408537"><ele>17.2</ele><time>2022-11-10T15:13:42.0000000+00:00</time></trkpt><trkpt lat="39.45876296" lon="-0.38410842"><ele>17.2</ele><time>2022-11-10T15:13:43.0000000+00:00</time></trkpt><trkpt lat="39.45876011" lon="-0.38410331"><ele>17.2</ele><time>2022-11-10T15:13:44.0000000+00:00</time></trkpt><trkpt lat="39.45875977" lon="-0.38414614"><ele>17.2</ele><time>2022-11-10T15:13:45.0000000+00:00</time></trkpt><trkpt lat="39.45876388" lon="-0.38414891"><ele>17.2</ele><time>2022-11-10T15:13:46.0000000+00:00</time></trkpt><trkpt lat="39.45876388" lon="-0.38414891"><ele>17.2</ele><time>2022-11-10T15:13:47.0000000+00:00</time></trkpt><trkpt lat="39.45876396" lon="-0.3841557"><ele>17.2</ele><time>2022-11-10T15:13:48.0000000+00:00</time></trkpt><trkpt lat="39.45876514" lon="-0.3841728"><ele>17.2</ele><time>2022-11-10T15:13:49.0000000+00:00</time></trkpt><trkpt lat="39.45877201" lon="-0.38419828"><ele>17.0</ele><time>2022-11-10T15:13:50.0000000+00:00</time></trkpt><trkpt lat="39.45877696" lon="-0.38423432"><ele>17.0</ele><time>2022-11-10T15:13:51.0000000+00:00</time></trkpt><trkpt lat="39.45878131" lon="-0.38427799"><ele>17.0</ele><time>2022-11-10T15:13:52.0000000+00:00</time></trkpt><trkpt lat="39.45878643" lon="-0.38432853"><ele>17.2</ele><time>2022-11-10T15:13:53.0000000+00:00</time></trkpt><trkpt lat="39.45879699" lon="-0.38438126"><ele>17.2</ele><time>2022-11-10T15:13:54.0000000+00:00</time></trkpt><trkpt lat="39.45880981" lon="-0.38443247"><ele>17.2</ele><time>2022-11-10T15:13:55.0000000+00:00</time></trkpt><trkpt lat="39.45882155" lon="-0.38448259"><ele>17.2</ele><time>2022-11-10T15:13:56.0000000+00:00</time></trkpt><trkpt lat="39.4588223" lon="-0.38453154"><ele>17.2</ele><time>2022-11-10T15:13:57.0000000+00:00</time></trkpt><trkpt lat="39.45881995" lon="-0.38457387"><ele>17.2</ele><time>2022-11-10T15:13:58.0000000+00:00</time></trkpt><trkpt lat="39.45881727" lon="-0.38462743"><ele>17.2</ele><time>2022-11-10T15:13:59.0000000+00:00</time></trkpt><trkpt lat="39.4588166" lon="-0.38468032"><ele>17.2</ele><time>2022-11-10T15:14:00.0000000+00:00</time></trkpt><trkpt lat="39.45881836" lon="-0.38473263"><ele>17.2</ele><time>2022-11-10T15:14:01.0000000+00:00</time></trkpt><trkpt lat="39.45882415" lon="-0.3847825"><ele>17.4</ele><time>2022-11-10T15:14:02.0000000+00:00</time></trkpt><trkpt lat="39.45880646" lon="-0.38485022"><ele>17.4</ele><time>2022-11-10T15:14:03.0000000+00:00</time></trkpt><trkpt lat="39.45878006" lon="-0.38490479"><ele>17.4</ele><time>2022-11-10T15:14:04.0000000+00:00</time></trkpt><trkpt lat="39.45872013" lon="-0.38496992"><ele>17.4</ele><time>2022-11-10T15:14:05.0000000+00:00</time></trkpt><trkpt lat="39.4586286" lon="-0.38505399"><ele>17.4</ele><time>2022-11-10T15:14:06.0000000+00:00</time></trkpt><trkpt lat="39.45860521" lon="-0.38511576"><ele>17.6</ele><time>2022-11-10T15:14:07.0000000+00:00</time></trkpt><trkpt lat="39.45861686" lon="-0.38517242"><ele>17.6</ele><time>2022-11-10T15:14:08.0000000+00:00</time></trkpt><trkpt lat="39.45864033" lon="-0.38522624"><ele>17.6</ele><time>2022-11-10T15:14:09.0000000+00:00</time></trkpt><trkpt lat="39.45866154" lon="-0.38527996"><ele>17.8</ele><time>2022-11-10T15:14:10.0000000+00:00</time></trkpt><trkpt lat="39.45867185" lon="-0.38532187"><ele>17.8</ele><time>2022-11-10T15:14:11.0000000+00:00</time></trkpt><trkpt lat="39.45868475" lon="-0.38534844"><ele>17.8</ele><time>2022-11-10T15:14:12.0000000+00:00</time></trkpt><trkpt lat="39.4586804" lon="-0.38537828"><ele>17.8</ele><time>2022-11-10T15:14:13.0000000+00:00</time></trkpt><trkpt lat="39.45868668" lon="-0.38541718"><ele>17.8</ele><time>2022-11-10T15:14:14.0000000+00:00</time></trkpt><trkpt lat="39.4586949" lon="-0.38544383"><ele>17.8</ele><time>2022-11-10T15:14:15.0000000+00:00</time></trkpt><trkpt lat="39.45871878" lon="-0.38545758"><ele>18.0</ele><time>2022-11-10T15:14:16.0000000+00:00</time></trkpt><trkpt lat="39.45872197" lon="-0.38546227"><ele>18.0</ele><time>2022-11-10T15:14:17.0000000+00:00</time></trkpt><trkpt lat="39.45873546" lon="-0.3854642"><ele>18.2</ele><time>2022-11-10T15:14:18.0000000+00:00</time></trkpt><trkpt lat="39.45873773" lon="-0.38547115"><ele>18.2</ele><time>2022-11-10T15:14:19.0000000+00:00</time></trkpt><trkpt lat="39.45873773" lon="-0.38547115"><ele>18.4</ele><time>2022-11-10T15:14:20.0000000+00:00</time></trkpt><trkpt lat="39.45871308" lon="-0.38547794"><ele>18.6</ele><time>2022-11-10T15:14:21.0000000+00:00</time></trkpt><trkpt lat="39.45866313" lon="-0.38549647"><ele>18.6</ele><time>2022-11-10T15:14:22.0000000+00:00</time></trkpt><trkpt lat="39.4586006" lon="-0.38552128"><ele>18.8</ele><time>2022-11-10T15:14:23.0000000+00:00</time></trkpt><trkpt lat="39.45852868" lon="-0.38555129"><ele>18.8</ele><time>2022-11-10T15:14:24.0000000+00:00</time></trkpt><trkpt lat="39.45848853" lon="-0.3855704"><ele>18.8</ele><time>2022-11-10T15:14:25.0000000+00:00</time></trkpt><trkpt lat="39.45844268" lon="-0.38560174"><ele>18.8</ele><time>2022-11-10T15:14:26.0000000+00:00</time></trkpt><trkpt lat="39.45840471" lon="-0.38563343"><ele>18.8</ele><time>2022-11-10T15:14:27.0000000+00:00</time></trkpt><trkpt lat="39.45838057" lon="-0.38566067"><ele>18.8</ele><time>2022-11-10T15:14:28.0000000+00:00</time></trkpt><trkpt lat="39.45834051" lon="-0.38568632"><ele>18.8</ele><time>2022-11-10T15:14:29.0000000+00:00</time></trkpt><trkpt lat="39.45828427" lon="-0.38570937"><ele>18.8</ele><time>2022-11-10T15:14:30.0000000+00:00</time></trkpt><trkpt lat="39.4582587" lon="-0.38573242"><ele>18.8</ele><time>2022-11-10T15:14:31.0000000+00:00</time></trkpt><trkpt lat="39.45822107" lon="-0.38575111"><ele>18.8</ele><time>2022-11-10T15:14:32.0000000+00:00</time></trkpt><trkpt lat="39.45819223" lon="-0.38577324"><ele>18.8</ele><time>2022-11-10T15:14:33.0000000+00:00</time></trkpt><trkpt lat="39.45816927" lon="-0.38579847"><ele>18.8</ele><time>2022-11-10T15:14:34.0000000+00:00</time></trkpt><trkpt lat="39.45814764" lon="-0.38582135"><ele>18.6</ele><time>2022-11-10T15:14:35.0000000+00:00</time></trkpt><trkpt lat="39.4581323" lon="-0.38583971"><ele>18.4</ele><time>2022-11-10T15:14:36.0000000+00:00</time></trkpt><trkpt lat="39.45812912" lon="-0.38584314"><ele>18.4</ele><time>2022-11-10T15:14:37.0000000+00:00</time></trkpt><trkpt lat="39.45812912" lon="-0.38584314"><ele>18.2</ele><time>2022-11-10T15:14:38.0000000+00:00</time></trkpt><trkpt lat="39.4581282" lon="-0.38585178"><ele>18.2</ele><time>2022-11-10T15:14:39.0000000+00:00</time></trkpt><trkpt lat="39.45811353" lon="-0.38587147"><ele>18.2</ele><time>2022-11-10T15:14:40.0000000+00:00</time></trkpt><trkpt lat="39.45810716" lon="-0.38587743"><ele>18.2</ele><time>2022-11-10T15:14:41.0000000+00:00</time></trkpt><trkpt lat="39.45810255" lon="-0.38586477"><ele>18.2</ele><time>2022-11-10T15:14:42.0000000+00:00</time></trkpt><trkpt lat="39.45810104" lon="-0.38586049"><ele>18.2</ele><time>2022-11-10T15:14:43.0000000+00:00</time></trkpt><trkpt lat="39.45810095" lon="-0.38585111"><ele>18.2</ele><time>2022-11-10T15:14:44.0000000+00:00</time></trkpt><trkpt lat="39.45809702" lon="-0.38583837"><ele>18.2</ele><time>2022-11-10T15:14:45.0000000+00:00</time></trkpt><trkpt lat="39.45808897" lon="-0.38583015"><ele>18.2</ele><time>2022-11-10T15:14:46.0000000+00:00</time></trkpt><trkpt lat="39.45808989" lon="-0.38581682"><ele>18.2</ele><time>2022-11-10T15:14:47.0000000+00:00</time></trkpt><trkpt lat="39.45809634" lon="-0.38581087"><ele>18.0</ele><time>2022-11-10T15:14:48.0000000+00:00</time></trkpt><trkpt lat="39.45809919" lon="-0.38580987"><ele>18.0</ele><time>2022-11-10T15:14:49.0000000+00:00</time></trkpt><trkpt lat="39.45809919" lon="-0.38580987"><ele>18.0</ele><time>2022-11-10T15:14:50.0000000+00:00</time></trkpt><trkpt lat="39.45809919" lon="-0.38580987"><ele>18.0</ele><time>2022-11-10T15:14:51.0000000+00:00</time></trkpt><trkpt lat="39.45809919" lon="-0.38580987"><ele>17.4</ele><time>2022-11-10T15:14:52.0000000+00:00</time></trkpt><trkpt lat="39.45809919" lon="-0.38580987"><ele>17.4</ele><time>2022-11-10T15:14:53.0000000+00:00</time></trkpt><trkpt lat="39.45809919" lon="-0.38580987"><ele>17.4</ele><time>2022-11-10T15:14:54.0000000+00:00</time></trkpt><trkpt lat="39.45809919" lon="-0.38580987"><ele>17.4</ele><time>2022-11-10T15:14:55.0000000+00:00</time></trkpt><trkpt lat="39.45809836" lon="-0.38580584"><ele>17.4</ele><time>2022-11-10T15:14:56.0000000+00:00</time></trkpt><trkpt lat="39.45810037" lon="-0.38580903"><ele>17.4</ele><time>2022-11-10T15:14:57.0000000+00:00</time></trkpt><trkpt lat="39.45810037" lon="-0.38580903"><ele>17.4</ele><time>2022-11-10T15:14:58.0000000+00:00</time></trkpt><trkpt lat="39.45810447" lon="-0.3858092"><ele>17.4</ele><time>2022-11-10T15:14:59.0000000+00:00</time></trkpt><trkpt lat="39.45811135" lon="-0.38579964"><ele>17.4</ele><time>2022-11-10T15:15:00.0000000+00:00</time></trkpt><trkpt lat="39.45811856" lon="-0.38577265"><ele>17.4</ele><time>2022-11-10T15:15:01.0000000+00:00</time></trkpt><trkpt lat="39.45812216" lon="-0.38572848"><ele>17.4</ele><time>2022-11-10T15:15:02.0000000+00:00</time></trkpt><trkpt lat="39.45812417" lon="-0.38567944"><ele>17.4</ele><time>2022-11-10T15:15:03.0000000+00:00</time></trkpt><trkpt lat="39.45811914" lon="-0.38562857"><ele>17.4</ele><time>2022-11-10T15:15:04.0000000+00:00</time></trkpt><trkpt lat="39.45811931" lon="-0.38557199"><ele>17.4</ele><time>2022-11-10T15:15:05.0000000+00:00</time></trkpt><trkpt lat="39.458123" lon="-0.3855072"><ele>17.4</ele><time>2022-11-10T15:15:06.0000000+00:00</time></trkpt><trkpt lat="39.45812325" lon="-0.38544743"><ele>17.6</ele><time>2022-11-10T15:15:07.0000000+00:00</time></trkpt><trkpt lat="39.45811889" lon="-0.38540569"><ele>17.6</ele><time>2022-11-10T15:15:08.0000000+00:00</time></trkpt><trkpt lat="39.45810833" lon="-0.38538583"><ele>17.6</ele><time>2022-11-10T15:15:09.0000000+00:00</time></trkpt><trkpt lat="39.45809098" lon="-0.38535867"><ele>17.6</ele><time>2022-11-10T15:15:10.0000000+00:00</time></trkpt><trkpt lat="39.45806382" lon="-0.38534752"><ele>17.6</ele><time>2022-11-10T15:15:11.0000000+00:00</time></trkpt><trkpt lat="39.45802367" lon="-0.38536219"><ele>17.6</ele><time>2022-11-10T15:15:12.0000000+00:00</time></trkpt><trkpt lat="39.4579878" lon="-0.38536529"><ele>17.6</ele><time>2022-11-10T15:15:13.0000000+00:00</time></trkpt><trkpt lat="39.45799132" lon="-0.38536311"><ele>17.8</ele><time>2022-11-10T15:15:14.0000000+00:00</time></trkpt><trkpt lat="39.4579852" lon="-0.38535188"><ele>17.8</ele><time>2022-11-10T15:15:15.0000000+00:00</time></trkpt><trkpt lat="39.45799191" lon="-0.38528684"><ele>17.8</ele><time>2022-11-10T15:15:16.0000000+00:00</time></trkpt><trkpt lat="39.45799425" lon="-0.38521148"><ele>17.8</ele><time>2022-11-10T15:15:17.0000000+00:00</time></trkpt><trkpt lat="39.45799635" lon="-0.38515742"><ele>17.8</ele><time>2022-11-10T15:15:18.0000000+00:00</time></trkpt><trkpt lat="39.45799643" lon="-0.3850933"><ele>18.0</ele><time>2022-11-10T15:15:19.0000000+00:00</time></trkpt><trkpt lat="39.45799409" lon="-0.3850384"><ele>18.0</ele><time>2022-11-10T15:15:20.0000000+00:00</time></trkpt><trkpt lat="39.45800171" lon="-0.38498098"><ele>18.0</ele><time>2022-11-10T15:15:21.0000000+00:00</time></trkpt><trkpt lat="39.45800741" lon="-0.38493748"><ele>17.8</ele><time>2022-11-10T15:15:22.0000000+00:00</time></trkpt><trkpt lat="39.4580044" lon="-0.38490085"><ele>17.8</ele><time>2022-11-10T15:15:23.0000000+00:00</time></trkpt><trkpt lat="39.45799601" lon="-0.38487076"><ele>17.8</ele><time>2022-11-10T15:15:24.0000000+00:00</time></trkpt><trkpt lat="39.45799802" lon="-0.384841"><ele>17.8</ele><time>2022-11-10T15:15:25.0000000+00:00</time></trkpt><trkpt lat="39.45799761" lon="-0.38481267"><ele>17.8</ele><time>2022-11-10T15:15:26.0000000+00:00</time></trkpt><trkpt lat="39.45799233" lon="-0.38478266"><ele>17.8</ele><time>2022-11-10T15:15:27.0000000+00:00</time></trkpt><trkpt lat="39.45798654" lon="-0.38474235"><ele>17.8</ele><time>2022-11-10T15:15:28.0000000+00:00</time></trkpt><trkpt lat="39.4579852" lon="-0.38469315"><ele>17.8</ele><time>2022-11-10T15:15:29.0000000+00:00</time></trkpt><trkpt lat="39.45798076" lon="-0.38463305"><ele>17.8</ele><time>2022-11-10T15:15:30.0000000+00:00</time></trkpt><trkpt lat="39.45797623" lon="-0.38457697"><ele>17.8</ele><time>2022-11-10T15:15:31.0000000+00:00</time></trkpt><trkpt lat="39.457979" lon="-0.38452802"><ele>18.0</ele><time>2022-11-10T15:15:32.0000000+00:00</time></trkpt><trkpt lat="39.45798269" lon="-0.38448276"><ele>18.0</ele><time>2022-11-10T15:15:33.0000000+00:00</time></trkpt><trkpt lat="39.45797791" lon="-0.38444446"><ele>18.2</ele><time>2022-11-10T15:15:34.0000000+00:00</time></trkpt><trkpt lat="39.45797355" lon="-0.38439089"><ele>18.2</ele><time>2022-11-10T15:15:35.0000000+00:00</time></trkpt><trkpt lat="39.45799836" lon="-0.38433465"><ele>18.2</ele><time>2022-11-10T15:15:36.0000000+00:00</time></trkpt><trkpt lat="39.45800942" lon="-0.38429869"><ele>18.2</ele><time>2022-11-10T15:15:37.0000000+00:00</time></trkpt><trkpt lat="39.45801403" lon="-0.38426575"><ele>17.8</ele><time>2022-11-10T15:15:38.0000000+00:00</time></trkpt><trkpt lat="39.45801412" lon="-0.3842453"><ele>17.8</ele><time>2022-11-10T15:15:39.0000000+00:00</time></trkpt><trkpt lat="39.45801512" lon="-0.38421772"><ele>17.6</ele><time>2022-11-10T15:15:40.0000000+00:00</time></trkpt><trkpt lat="39.45798931" lon="-0.38417858"><ele>17.6</ele><time>2022-11-10T15:15:41.0000000+00:00</time></trkpt><trkpt lat="39.45794673" lon="-0.38414782"><ele>17.6</ele><time>2022-11-10T15:15:42.0000000+00:00</time></trkpt><trkpt lat="39.45789099" lon="-0.38410926"><ele>17.6</ele><time>2022-11-10T15:15:43.0000000+00:00</time></trkpt><trkpt lat="39.45784807" lon="-0.38404875"><ele>17.6</ele><time>2022-11-10T15:15:44.0000000+00:00</time></trkpt><trkpt lat="39.45782326" lon="-0.38399745"><ele>17.6</ele><time>2022-11-10T15:15:45.0000000+00:00</time></trkpt><trkpt lat="39.45780725" lon="-0.38394623"><ele>17.6</ele><time>2022-11-10T15:15:46.0000000+00:00</time></trkpt><trkpt lat="39.45783659" lon="-0.38389469"><ele>17.6</ele><time>2022-11-10T15:15:47.0000000+00:00</time></trkpt><trkpt lat="39.45785889" lon="-0.38385454"><ele>17.6</ele><time>2022-11-10T15:15:48.0000000+00:00</time></trkpt><trkpt lat="39.45784849" lon="-0.38382076"><ele>17.4</ele><time>2022-11-10T15:15:49.0000000+00:00</time></trkpt><trkpt lat="39.45782293" lon="-0.38378136"><ele>17.4</ele><time>2022-11-10T15:15:50.0000000+00:00</time></trkpt><trkpt lat="39.45780315" lon="-0.38375203"><ele>17.4</ele><time>2022-11-10T15:15:51.0000000+00:00</time></trkpt><trkpt lat="39.45777113" lon="-0.38372378"><ele>17.2</ele><time>2022-11-10T15:15:52.0000000+00:00</time></trkpt><trkpt lat="39.45773785" lon="-0.38370676"><ele>17.2</ele><time>2022-11-10T15:15:53.0000000+00:00</time></trkpt><trkpt lat="39.4577117" lon="-0.38368824"><ele>17.2</ele><time>2022-11-10T15:15:54.0000000+00:00</time></trkpt><trkpt lat="39.45768102" lon="-0.38367173"><ele>17.0</ele><time>2022-11-10T15:15:55.0000000+00:00</time></trkpt><trkpt lat="39.45764942" lon="-0.38366737"><ele>17.0</ele><time>2022-11-10T15:15:56.0000000+00:00</time></trkpt><trkpt lat="39.45762704" lon="-0.38366351"><ele>16.8</ele><time>2022-11-10T15:15:57.0000000+00:00</time></trkpt><trkpt lat="39.45760366" lon="-0.38366636"><ele>16.8</ele><time>2022-11-10T15:15:58.0000000+00:00</time></trkpt><trkpt lat="39.45758765" lon="-0.38366729"><ele>16.8</ele><time>2022-11-10T15:15:59.0000000+00:00</time></trkpt><trkpt lat="39.45758362" lon="-0.38366653"><ele>16.6</ele><time>2022-11-10T15:16:00.0000000+00:00</time></trkpt><trkpt lat="39.45758362" lon="-0.38366653"><ele>16.6</ele><time>2022-11-10T15:16:01.0000000+00:00</time></trkpt><trkpt lat="39.45758362" lon="-0.38366653"><ele>16.6</ele><time>2022-11-10T15:16:02.0000000+00:00</time></trkpt><trkpt lat="39.45758362" lon="-0.38366653"><ele>16.4</ele><time>2022-11-10T15:16:03.0000000+00:00</time></trkpt><trkpt lat="39.45758362" lon="-0.38366653"><ele>16.4</ele><time>2022-11-10T15:16:04.0000000+00:00</time></trkpt><trkpt lat="39.45758362" lon="-0.38366653"><ele>16.4</ele><time>2022-11-10T15:16:05.0000000+00:00</time></trkpt><trkpt lat="39.45758991" lon="-0.38366184"><ele>16.4</ele><time>2022-11-10T15:16:06.0000000+00:00</time></trkpt><trkpt lat="39.45759041" lon="-0.38366024"><ele>16.2</ele><time>2022-11-10T15:16:07.0000000+00:00</time></trkpt><trkpt lat="39.45759041" lon="-0.38366024"><ele>16.2</ele><time>2022-11-10T15:16:08.0000000+00:00</time></trkpt><trkpt lat="39.45759041" lon="-0.38366024"><ele>16.2</ele><time>2022-11-10T15:16:09.0000000+00:00</time></trkpt><trkpt lat="39.45759452" lon="-0.38365052"><ele>16.2</ele><time>2022-11-10T15:16:10.0000000+00:00</time></trkpt><trkpt lat="39.45759678" lon="-0.38364952"><ele>16.4</ele><time>2022-11-10T15:16:11.0000000+00:00</time></trkpt><trkpt lat="39.45759678" lon="-0.38364952"><ele>16.4</ele><time>2022-11-10T15:16:12.0000000+00:00</time></trkpt><trkpt lat="39.45759678" lon="-0.38364952"><ele>16.4</ele><time>2022-11-10T15:16:13.0000000+00:00</time></trkpt><trkpt lat="39.45759678" lon="-0.38364952"><ele>16.4</ele><time>2022-11-10T15:16:14.0000000+00:00</time></trkpt><trkpt lat="39.45759678" lon="-0.38364952"><ele>16.4</ele><time>2022-11-10T15:16:15.0000000+00:00</time></trkpt><trkpt lat="39.45759678" lon="-0.38364952"><ele>16.4</ele><time>2022-11-10T15:16:16.0000000+00:00</time></trkpt><trkpt lat="39.4575993" lon="-0.38364231"><ele>16.4</ele><time>2022-11-10T15:16:17.0000000+00:00</time></trkpt><trkpt lat="39.45760206" lon="-0.3836294"><ele>16.4</ele><time>2022-11-10T15:16:18.0000000+00:00</time></trkpt><trkpt lat="39.45760307" lon="-0.38362554"><ele>16.2</ele><time>2022-11-10T15:16:19.0000000+00:00</time></trkpt><trkpt lat="39.45760307" lon="-0.38362554"><ele>16.2</ele><time>2022-11-10T15:16:20.0000000+00:00</time></trkpt><trkpt lat="39.45760307" lon="-0.38362554"><ele>16.2</ele><time>2022-11-10T15:16:21.0000000+00:00</time></trkpt><trkpt lat="39.45760307" lon="-0.38362554"><ele>16.0</ele><time>2022-11-10T15:16:22.0000000+00:00</time></trkpt><trkpt lat="39.45760307" lon="-0.38362554"><ele>16.0</ele><time>2022-11-10T15:16:23.0000000+00:00</time></trkpt><trkpt lat="39.45760307" lon="-0.38362554"><ele>16.0</ele><time>2022-11-10T15:16:24.0000000+00:00</time></trkpt><trkpt lat="39.45760307" lon="-0.38362554"><ele>15.8</ele><time>2022-11-10T15:16:25.0000000+00:00</time></trkpt><trkpt lat="39.45760307" lon="-0.38362554"><ele>15.8</ele><time>2022-11-10T15:16:26.0000000+00:00</time></trkpt><trkpt lat="39.45760307" lon="-0.38362554"><ele>15.8</ele><time>2022-11-10T15:16:27.0000000+00:00</time></trkpt><trkpt lat="39.45760307" lon="-0.38362554"><ele>15.8</ele><time>2022-11-10T15:16:28.0000000+00:00</time></trkpt><trkpt lat="39.45760307" lon="-0.38362554"><ele>15.8</ele><time>2022-11-10T15:16:29.0000000+00:00</time></trkpt><trkpt lat="39.45760307" lon="-0.38362554"><ele>15.6</ele><time>2022-11-10T15:16:30.0000000+00:00</time></trkpt><trkpt lat="39.45760307" lon="-0.38362554"><ele>15.6</ele><time>2022-11-10T15:16:31.0000000+00:00</time></trkpt><trkpt lat="39.45760433" lon="-0.38361766"><ele>15.6</ele><time>2022-11-10T15:16:32.0000000+00:00</time></trkpt><trkpt lat="39.45760625" lon="-0.38361364"><ele>15.6</ele><time>2022-11-10T15:16:33.0000000+00:00</time></trkpt><trkpt lat="39.45760625" lon="-0.38361364"><ele>15.6</ele><time>2022-11-10T15:16:34.0000000+00:00</time></trkpt><trkpt lat="39.45760625" lon="-0.38361364"><ele>15.6</ele><time>2022-11-10T15:16:35.0000000+00:00</time></trkpt><trkpt lat="39.45760625" lon="-0.38361364"><ele>15.6</ele><time>2022-11-10T15:16:36.0000000+00:00</time></trkpt><trkpt lat="39.45760625" lon="-0.38361364"><ele>15.6</ele><time>2022-11-10T15:16:37.0000000+00:00</time></trkpt><trkpt lat="39.45760659" lon="-0.38359981"><ele>15.6</ele><time>2022-11-10T15:16:38.0000000+00:00</time></trkpt><trkpt lat="39.45760718" lon="-0.38359445"><ele>15.6</ele><time>2022-11-10T15:16:39.0000000+00:00</time></trkpt><trkpt lat="39.45760718" lon="-0.38359445"><ele>15.6</ele><time>2022-11-10T15:16:40.0000000+00:00</time></trkpt><trkpt lat="39.45760718" lon="-0.38359445"><ele>15.6</ele><time>2022-11-10T15:16:41.0000000+00:00</time></trkpt><trkpt lat="39.45760718" lon="-0.38359445"><ele>15.6</ele><time>2022-11-10T15:16:42.0000000+00:00</time></trkpt><trkpt lat="39.45760718" lon="-0.38359445"><ele>15.6</ele><time>2022-11-10T15:16:43.0000000+00:00</time></trkpt><trkpt lat="39.4576091" lon="-0.38360325"><ele>15.6</ele><time>2022-11-10T15:16:44.0000000+00:00</time></trkpt><trkpt lat="39.45761019" lon="-0.38360057"><ele>15.6</ele><time>2022-11-10T15:16:45.0000000+00:00</time></trkpt><trkpt lat="39.45761019" lon="-0.38360057"><ele>15.6</ele><time>2022-11-10T15:16:46.0000000+00:00</time></trkpt><trkpt lat="39.45761019" lon="-0.38360057"><ele>15.4</ele><time>2022-11-10T15:16:47.0000000+00:00</time></trkpt><trkpt lat="39.45761019" lon="-0.38360057"><ele>15.6</ele><time>2022-11-10T15:16:48.0000000+00:00</time></trkpt><trkpt lat="39.45761019" lon="-0.38360057"><ele>15.4</ele><time>2022-11-10T15:16:49.0000000+00:00</time></trkpt><trkpt lat="39.45761086" lon="-0.38360861"><ele>15.4</ele><time>2022-11-10T15:16:50.0000000+00:00</time></trkpt><trkpt lat="39.45760994" lon="-0.38361238"><ele>15.4</ele><time>2022-11-10T15:16:51.0000000+00:00</time></trkpt><trkpt lat="39.45760994" lon="-0.38361238"><ele>15.4</ele><time>2022-11-10T15:16:52.0000000+00:00</time></trkpt><trkpt lat="39.45760994" lon="-0.38361238"><ele>15.4</ele><time>2022-11-10T15:16:53.0000000+00:00</time></trkpt><trkpt lat="39.45760994" lon="-0.38361238"><ele>15.4</ele><time>2022-11-10T15:16:54.0000000+00:00</time></trkpt><trkpt lat="39.45760994" lon="-0.38361238"><ele>15.4</ele><time>2022-11-10T15:16:55.0000000+00:00</time></trkpt><trkpt lat="39.45760994" lon="-0.38361238"><ele>15.4</ele><time>2022-11-10T15:16:56.0000000+00:00</time></trkpt><trkpt lat="39.45760994" lon="-0.38361322"><ele>15.6</ele><time>2022-11-10T15:16:57.0000000+00:00</time></trkpt><trkpt lat="39.45761011" lon="-0.38361515"><ele>15.6</ele><time>2022-11-10T15:16:58.0000000+00:00</time></trkpt><trkpt lat="39.45761011" lon="-0.38361515"><ele>15.6</ele><time>2022-11-10T15:16:59.0000000+00:00</time></trkpt><trkpt lat="39.4576133" lon="-0.38360853"><ele>15.6</ele><time>2022-11-10T15:17:00.0000000+00:00</time></trkpt><trkpt lat="39.45761455" lon="-0.38360836"><ele>15.6</ele><time>2022-11-10T15:17:01.0000000+00:00</time></trkpt><trkpt lat="39.45761589" lon="-0.38360761"><ele>15.6</ele><time>2022-11-10T15:17:02.0000000+00:00</time></trkpt><trkpt lat="39.45761589" lon="-0.38360761"><ele>15.6</ele><time>2022-11-10T15:17:03.0000000+00:00</time></trkpt><trkpt lat="39.45761589" lon="-0.38360761"><ele>15.6</ele><time>2022-11-10T15:17:04.0000000+00:00</time></trkpt><trkpt lat="39.45761179" lon="-0.3836102"><ele>15.6</ele><time>2022-11-10T15:17:05.0000000+00:00</time></trkpt><trkpt lat="39.45760458" lon="-0.38361532"><ele>15.6</ele><time>2022-11-10T15:17:06.0000000+00:00</time></trkpt><trkpt lat="39.45760139" lon="-0.38361884"><ele>15.6</ele><time>2022-11-10T15:17:07.0000000+00:00</time></trkpt><trkpt lat="39.45760139" lon="-0.38361884"><ele>15.8</ele><time>2022-11-10T15:17:08.0000000+00:00</time></trkpt><trkpt lat="39.45760139" lon="-0.38361884"><ele>15.8</ele><time>2022-11-10T15:17:09.0000000+00:00</time></trkpt><trkpt lat="39.45760139" lon="-0.38361884"><ele>15.8</ele><time>2022-11-10T15:17:10.0000000+00:00</time></trkpt><trkpt lat="39.45760215" lon="-0.38362236"><ele>16.0</ele><time>2022-11-10T15:17:11.0000000+00:00</time></trkpt><trkpt lat="39.45760148" lon="-0.38362563"><ele>16.4</ele><time>2022-11-10T15:17:12.0000000+00:00</time></trkpt><trkpt lat="39.45760148" lon="-0.38362563"><ele>16.4</ele><time>2022-11-10T15:17:13.0000000+00:00</time></trkpt><trkpt lat="39.45760148" lon="-0.38362563"><ele>16.4</ele><time>2022-11-10T15:17:14.0000000+00:00</time></trkpt><trkpt lat="39.45760148" lon="-0.38362563"><ele>16.4</ele><time>2022-11-10T15:17:15.0000000+00:00</time></trkpt><trkpt lat="39.45760148" lon="-0.38362563"><ele>16.4</ele><time>2022-11-10T15:17:16.0000000+00:00</time></trkpt><trkpt lat="39.45760181" lon="-0.38362571"><ele>16.4</ele><time>2022-11-10T15:17:17.0000000+00:00</time></trkpt><trkpt lat="39.45760257" lon="-0.3836294"><ele>16.4</ele><time>2022-11-10T15:17:18.0000000+00:00</time></trkpt><trkpt lat="39.45760257" lon="-0.3836294"><ele>16.4</ele><time>2022-11-10T15:17:19.0000000+00:00</time></trkpt><trkpt lat="39.45760257" lon="-0.3836294"><ele>16.4</ele><time>2022-11-10T15:17:20.0000000+00:00</time></trkpt><trkpt lat="39.45760257" lon="-0.3836294"><ele>16.4</ele><time>2022-11-10T15:17:21.0000000+00:00</time></trkpt><trkpt lat="39.45760257" lon="-0.3836294"><ele>16.4</ele><time>2022-11-10T15:17:22.0000000+00:00</time></trkpt><trkpt lat="39.45760257" lon="-0.3836294"><ele>16.4</ele><time>2022-11-10T15:17:23.0000000+00:00</time></trkpt><trkpt lat="39.45760625" lon="-0.38362127"><ele>16.4</ele><time>2022-11-10T15:17:24.0000000+00:00</time></trkpt><trkpt lat="39.45760609" lon="-0.38361808"><ele>16.4</ele><time>2022-11-10T15:17:25.0000000+00:00</time></trkpt><trkpt lat="39.45760609" lon="-0.38361808"><ele>16.2</ele><time>2022-11-10T15:17:26.0000000+00:00</time></trkpt><trkpt lat="39.45760609" lon="-0.38361808"><ele>16.2</ele><time>2022-11-10T15:17:27.0000000+00:00</time></trkpt><trkpt lat="39.45760609" lon="-0.38361808"><ele>16.2</ele><time>2022-11-10T15:17:28.0000000+00:00</time></trkpt><trkpt lat="39.45760609" lon="-0.38361808"><ele>16.2</ele><time>2022-11-10T15:17:29.0000000+00:00</time></trkpt><trkpt lat="39.45760609" lon="-0.38361808"><ele>16.2</ele><time>2022-11-10T15:17:30.0000000+00:00</time></trkpt><trkpt lat="39.45760609" lon="-0.38361808"><ele>16.2</ele><time>2022-11-10T15:17:31.0000000+00:00</time></trkpt><trkpt lat="39.45760885" lon="-0.38362018"><ele>16.2</ele><time>2022-11-10T15:17:32.0000000+00:00</time></trkpt><trkpt lat="39.45760902" lon="-0.38362219"><ele>16.2</ele><time>2022-11-10T15:17:33.0000000+00:00</time></trkpt><trkpt lat="39.45760902" lon="-0.38362219"><ele>16.2</ele><time>2022-11-10T15:17:34.0000000+00:00</time></trkpt><trkpt lat="39.45760902" lon="-0.38362219"><ele>16.2</ele><time>2022-11-10T15:17:35.0000000+00:00</time></trkpt><trkpt lat="39.45760902" lon="-0.38362219"><ele>16.2</ele><time>2022-11-10T15:17:36.0000000+00:00</time></trkpt><trkpt lat="39.45760902" lon="-0.38362219"><ele>16.2</ele><time>2022-11-10T15:17:37.0000000+00:00</time></trkpt><trkpt lat="39.45760902" lon="-0.38362219"><ele>16.2</ele><time>2022-11-10T15:17:38.0000000+00:00</time></trkpt><trkpt lat="39.45760902" lon="-0.38362219"><ele>16.2</ele><time>2022-11-10T15:17:39.0000000+00:00</time></trkpt><trkpt lat="39.45760902" lon="-0.38362219"><ele>16.0</ele><time>2022-11-10T15:17:40.0000000+00:00</time></trkpt><trkpt lat="39.45760902" lon="-0.38362219"><ele>16.0</ele><time>2022-11-10T15:17:41.0000000+00:00</time></trkpt><trkpt lat="39.45760869" lon="-0.38361926"><ele>16.0</ele><time>2022-11-10T15:17:42.0000000+00:00</time></trkpt><trkpt lat="39.45760693" lon="-0.38361624"><ele>16.0</ele><time>2022-11-10T15:17:43.0000000+00:00</time></trkpt><trkpt lat="39.45760693" lon="-0.38361624"><ele>16.0</ele><time>2022-11-10T15:17:44.0000000+00:00</time></trkpt><trkpt lat="39.45760776" lon="-0.38361817"><ele>16.0</ele><time>2022-11-10T15:17:45.0000000+00:00</time></trkpt><trkpt lat="39.45760952" lon="-0.38362253"><ele>16.0</ele><time>2022-11-10T15:17:46.0000000+00:00</time></trkpt><trkpt lat="39.45760952" lon="-0.38362253"><ele>16.2</ele><time>2022-11-10T15:17:47.0000000+00:00</time></trkpt><trkpt lat="39.45761095" lon="-0.38361666"><ele>16.2</ele><time>2022-11-10T15:17:48.0000000+00:00</time></trkpt><trkpt lat="39.45761003" lon="-0.38361087"><ele>16.4</ele><time>2022-11-10T15:17:49.0000000+00:00</time></trkpt><trkpt lat="39.45761003" lon="-0.38361087"><ele>16.4</ele><time>2022-11-10T15:17:50.0000000+00:00</time></trkpt><trkpt lat="39.45761003" lon="-0.38361087"><ele>16.4</ele><time>2022-11-10T15:17:51.0000000+00:00</time></trkpt><trkpt lat="39.45760944" lon="-0.38360174"><ele>16.4</ele><time>2022-11-10T15:17:52.0000000+00:00</time></trkpt><trkpt lat="39.45760785" lon="-0.38359009"><ele>15.4</ele><time>2022-11-10T15:17:53.0000000+00:00</time></trkpt><trkpt lat="39.45760785" lon="-0.38359009"><ele>15.4</ele><time>2022-11-10T15:17:54.0000000+00:00</time></trkpt><trkpt lat="39.45760785" lon="-0.38359009"><ele>15.4</ele><time>2022-11-10T15:17:55.0000000+00:00</time></trkpt><trkpt lat="39.45760785" lon="-0.38359009"><ele>15.6</ele><time>2022-11-10T15:17:56.0000000+00:00</time></trkpt><trkpt lat="39.45760785" lon="-0.38359009"><ele>15.8</ele><time>2022-11-10T15:17:57.0000000+00:00</time></trkpt><trkpt lat="39.45760785" lon="-0.38359009"><ele>15.8</ele><time>2022-11-10T15:17:58.0000000+00:00</time></trkpt><trkpt lat="39.45760449" lon="-0.38358908"><ele>15.8</ele><time>2022-11-10T15:17:59.0000000+00:00</time></trkpt><trkpt lat="39.45759771" lon="-0.38359294"><ele>15.8</ele><time>2022-11-10T15:18:00.0000000+00:00</time></trkpt><trkpt lat="39.45759519" lon="-0.38359596"><ele>15.8</ele><time>2022-11-10T15:18:01.0000000+00:00</time></trkpt><trkpt lat="39.45759519" lon="-0.38359596"><ele>15.8</ele><time>2022-11-10T15:18:02.0000000+00:00</time></trkpt><trkpt lat="39.45759519" lon="-0.38359596"><ele>15.8</ele><time>2022-11-10T15:18:03.0000000+00:00</time></trkpt><trkpt lat="39.45760148" lon="-0.38359621"><ele>16.0</ele><time>2022-11-10T15:18:04.0000000+00:00</time></trkpt><trkpt lat="39.45760307" lon="-0.38359989"><ele>16.0</ele><time>2022-11-10T15:18:05.0000000+00:00</time></trkpt><trkpt lat="39.45760902" lon="-0.38359671"><ele>16.0</ele><time>2022-11-10T15:18:06.0000000+00:00</time></trkpt><trkpt lat="39.45760827" lon="-0.38359176"><ele>16.0</ele><time>2022-11-10T15:18:07.0000000+00:00</time></trkpt><trkpt lat="39.45760827" lon="-0.38359176"><ele>16.0</ele><time>2022-11-10T15:18:08.0000000+00:00</time></trkpt><trkpt lat="39.45760827" lon="-0.38359176"><ele>16.2</ele><time>2022-11-10T15:18:09.0000000+00:00</time></trkpt><trkpt lat="39.45760793" lon="-0.38358808"><ele>16.2</ele><time>2022-11-10T15:18:10.0000000+00:00</time></trkpt><trkpt lat="39.45760248" lon="-0.38358766"><ele>16.2</ele><time>2022-11-10T15:18:11.0000000+00:00</time></trkpt><trkpt lat="39.45759871" lon="-0.38358774"><ele>16.2</ele><time>2022-11-10T15:18:12.0000000+00:00</time></trkpt><trkpt lat="39.4576019" lon="-0.38358674"><ele>16.2</ele><time>2022-11-10T15:18:13.0000000+00:00</time></trkpt><trkpt lat="39.45761472" lon="-0.38357869"><ele>16.2</ele><time>2022-11-10T15:18:14.0000000+00:00</time></trkpt><trkpt lat="39.45762067" lon="-0.3835698"><ele>16.2</ele><time>2022-11-10T15:18:15.0000000+00:00</time></trkpt><trkpt lat="39.45762335" lon="-0.3835693"><ele>16.2</ele><time>2022-11-10T15:18:16.0000000+00:00</time></trkpt><trkpt lat="39.45762335" lon="-0.3835693"><ele>16.2</ele><time>2022-11-10T15:18:17.0000000+00:00</time></trkpt><trkpt lat="39.45762335" lon="-0.3835693"><ele>16.2</ele><time>2022-11-10T15:18:18.0000000+00:00</time></trkpt><trkpt lat="39.45762335" lon="-0.3835693"><ele>16.2</ele><time>2022-11-10T15:18:19.0000000+00:00</time></trkpt><trkpt lat="39.45762335" lon="-0.3835693"><ele>16.2</ele><time>2022-11-10T15:18:20.0000000+00:00</time></trkpt><trkpt lat="39.45762335" lon="-0.3835693"><ele>16.2</ele><time>2022-11-10T15:18:21.0000000+00:00</time></trkpt><trkpt lat="39.45762335" lon="-0.3835693"><ele>16.2</ele><time>2022-11-10T15:18:22.0000000+00:00</time></trkpt><trkpt lat="39.45762335" lon="-0.3835693"><ele>16.0</ele><time>2022-11-10T15:18:23.0000000+00:00</time></trkpt><trkpt lat="39.45762335" lon="-0.3835693"><ele>16.0</ele><time>2022-11-10T15:18:24.0000000+00:00</time></trkpt><trkpt lat="39.45762335" lon="-0.3835693"><ele>16.0</ele><time>2022-11-10T15:18:25.0000000+00:00</time></trkpt><trkpt lat="39.45762335" lon="-0.3835693"><ele>16.0</ele><time>2022-11-10T15:18:26.0000000+00:00</time></trkpt><trkpt lat="39.45762335" lon="-0.3835693"><ele>16.0</ele><time>2022-11-10T15:18:27.0000000+00:00</time></trkpt><trkpt lat="39.45762335" lon="-0.3835693"><ele>16.0</ele><time>2022-11-10T15:18:28.0000000+00:00</time></trkpt><trkpt lat="39.45762335" lon="-0.3835693"><ele>16.0</ele><time>2022-11-10T15:18:29.0000000+00:00</time></trkpt><trkpt lat="39.45762335" lon="-0.3835693"><ele>16.0</ele><time>2022-11-10T15:18:30.0000000+00:00</time></trkpt><trkpt lat="39.45762335" lon="-0.3835693"><ele>16.0</ele><time>2022-11-10T15:18:31.0000000+00:00</time></trkpt><trkpt lat="39.45762335" lon="-0.3835693"><ele>16.0</ele><time>2022-11-10T15:18:32.0000000+00:00</time></trkpt><trkpt lat="39.45762335" lon="-0.3835693"><ele>16.0</ele><time>2022-11-10T15:18:33.0000000+00:00</time></trkpt><trkpt lat="39.45762335" lon="-0.3835693"><ele>16.0</ele><time>2022-11-10T15:18:34.0000000+00:00</time></trkpt><trkpt lat="39.45762335" lon="-0.3835693"><ele>16.0</ele><time>2022-11-10T15:18:35.0000000+00:00</time></trkpt><trkpt lat="39.45762335" lon="-0.3835693"><ele>16.0</ele><time>2022-11-10T15:18:36.0000000+00:00</time></trkpt><trkpt lat="39.45762335" lon="-0.3835693"><ele>16.0</ele><time>2022-11-10T15:18:37.0000000+00:00</time></trkpt><trkpt lat="39.45762335" lon="-0.3835693"><ele>16.0</ele><time>2022-11-10T15:18:38.0000000+00:00</time></trkpt><trkpt lat="39.45762335" lon="-0.3835693"><ele>16.0</ele><time>2022-11-10T15:18:39.0000000+00:00</time></trkpt><trkpt lat="39.45762335" lon="-0.3835693"><ele>16.0</ele><time>2022-11-10T15:18:40.0000000+00:00</time></trkpt><trkpt lat="39.45762335" lon="-0.3835693"><ele>16.0</ele><time>2022-11-10T15:18:41.0000000+00:00</time></trkpt><trkpt lat="39.45761841" lon="-0.38356645"><ele>16.0</ele><time>2022-11-10T15:18:42.0000000+00:00</time></trkpt><trkpt lat="39.45761598" lon="-0.38356687"><ele>16.0</ele><time>2022-11-10T15:18:43.0000000+00:00</time></trkpt><trkpt lat="39.45761598" lon="-0.38356687"><ele>16.0</ele><time>2022-11-10T15:18:44.0000000+00:00</time></trkpt><trkpt lat="39.45761598" lon="-0.38356687"><ele>16.0</ele><time>2022-11-10T15:18:45.0000000+00:00</time></trkpt><trkpt lat="39.45761598" lon="-0.38356687"><ele>16.0</ele><time>2022-11-10T15:18:46.0000000+00:00</time></trkpt><trkpt lat="39.45761598" lon="-0.38356687"><ele>16.0</ele><time>2022-11-10T15:18:47.0000000+00:00</time></trkpt><trkpt lat="39.45761598" lon="-0.38356687"><ele>16.0</ele><time>2022-11-10T15:18:48.0000000+00:00</time></trkpt><trkpt lat="39.457606" lon="-0.38355765"><ele>16.2</ele><time>2022-11-10T15:18:49.0000000+00:00</time></trkpt><trkpt lat="39.45758798" lon="-0.38354575"><ele>16.2</ele><time>2022-11-10T15:18:50.0000000+00:00</time></trkpt><trkpt lat="39.45758522" lon="-0.38354466"><ele>16.4</ele><time>2022-11-10T15:18:51.0000000+00:00</time></trkpt><trkpt lat="39.45755873" lon="-0.38353695"><ele>16.4</ele><time>2022-11-10T15:18:52.0000000+00:00</time></trkpt><trkpt lat="39.45755638" lon="-0.38353519"><ele>16.4</ele><time>2022-11-10T15:18:53.0000000+00:00</time></trkpt><trkpt lat="39.45755638" lon="-0.38353519"><ele>16.4</ele><time>2022-11-10T15:18:54.0000000+00:00</time></trkpt><trkpt lat="39.45755638" lon="-0.38353519"><ele>16.6</ele><time>2022-11-10T15:18:55.0000000+00:00</time></trkpt><trkpt lat="39.45755638" lon="-0.38353519"><ele>16.4</ele><time>2022-11-10T15:18:56.0000000+00:00</time></trkpt><trkpt lat="39.45755638" lon="-0.38353519"><ele>16.4</ele><time>2022-11-10T15:18:57.0000000+00:00</time></trkpt><trkpt lat="39.45755638" lon="-0.38353519"><ele>16.4</ele><time>2022-11-10T15:18:58.0000000+00:00</time></trkpt><trkpt lat="39.45755638" lon="-0.38353519"><ele>16.2</ele><time>2022-11-10T15:18:59.0000000+00:00</time></trkpt><trkpt lat="39.45755638" lon="-0.38353519"><ele>16.2</ele><time>2022-11-10T15:19:00.0000000+00:00</time></trkpt><trkpt lat="39.45755638" lon="-0.38353519"><ele>16.0</ele><time>2022-11-10T15:19:01.0000000+00:00</time></trkpt><trkpt lat="39.45755638" lon="-0.38353519"><ele>16.0</ele><time>2022-11-10T15:19:02.0000000+00:00</time></trkpt><trkpt lat="39.45755638" lon="-0.38353519"><ele>16.0</ele><time>2022-11-10T15:19:03.0000000+00:00</time></trkpt><trkpt lat="39.45755638" lon="-0.38353519"><ele>16.0</ele><time>2022-11-10T15:19:04.0000000+00:00</time></trkpt><trkpt lat="39.45755638" lon="-0.38353519"><ele>16.0</ele><time>2022-11-10T15:19:05.0000000+00:00</time></trkpt><trkpt lat="39.45755638" lon="-0.38353519"><ele>16.0</ele><time>2022-11-10T15:19:06.0000000+00:00</time></trkpt><trkpt lat="39.45755638" lon="-0.38353519"><ele>16.0</ele><time>2022-11-10T15:19:07.0000000+00:00</time></trkpt><trkpt lat="39.45755638" lon="-0.38353519"><ele>16.0</ele><time>2022-11-10T15:19:08.0000000+00:00</time></trkpt><trkpt lat="39.45755638" lon="-0.38353519"><ele>16.0</ele><time>2022-11-10T15:19:09.0000000+00:00</time></trkpt><trkpt lat="39.45755638" lon="-0.38353519"><ele>16.0</ele><time>2022-11-10T15:19:10.0000000+00:00</time></trkpt><trkpt lat="39.45755638" lon="-0.38353519"><ele>16.0</ele><time>2022-11-10T15:19:11.0000000+00:00</time></trkpt><trkpt lat="39.45755638" lon="-0.38353519"><ele>16.0</ele><time>2022-11-10T15:19:12.0000000+00:00</time></trkpt><trkpt lat="39.45755638" lon="-0.38353519"><ele>16.0</ele><time>2022-11-10T15:19:13.0000000+00:00</time></trkpt><trkpt lat="39.45755638" lon="-0.38353519"><ele>15.8</ele><time>2022-11-10T15:19:14.0000000+00:00</time></trkpt><trkpt lat="39.45755638" lon="-0.38353519"><ele>15.8</ele><time>2022-11-10T15:19:15.0000000+00:00</time></trkpt><trkpt lat="39.45755638" lon="-0.38353519"><ele>15.8</ele><time>2022-11-10T15:19:16.0000000+00:00</time></trkpt><trkpt lat="39.45755638" lon="-0.38353519"><ele>15.8</ele><time>2022-11-10T15:19:17.0000000+00:00</time></trkpt><trkpt lat="39.45755638" lon="-0.38353519"><ele>15.8</ele><time>2022-11-10T15:19:18.0000000+00:00</time></trkpt><trkpt lat="39.45755638" lon="-0.38353519"><ele>15.6</ele><time>2022-11-10T15:19:19.0000000+00:00</time></trkpt><trkpt lat="39.45755638" lon="-0.38353519"><ele>15.6</ele><time>2022-11-10T15:19:20.0000000+00:00</time></trkpt><trkpt lat="39.45755638" lon="-0.38353519"><ele>15.6</ele><time>2022-11-10T15:19:21.0000000+00:00</time></trkpt><trkpt lat="39.45755638" lon="-0.38353519"><ele>15.6</ele><time>2022-11-10T15:19:22.0000000+00:00</time></trkpt><trkpt lat="39.45755638" lon="-0.38353519"><ele>15.6</ele><time>2022-11-10T15:19:23.0000000+00:00</time></trkpt><trkpt lat="39.45755638" lon="-0.38353519"><ele>15.6</ele><time>2022-11-10T15:19:24.0000000+00:00</time></trkpt><trkpt lat="39.45755638" lon="-0.38353519"><ele>15.6</ele><time>2022-11-10T15:19:25.0000000+00:00</time></trkpt><trkpt lat="39.45755638" lon="-0.38353519"><ele>15.6</ele><time>2022-11-10T15:19:26.0000000+00:00</time></trkpt><trkpt lat="39.45755638" lon="-0.38353519"><ele>15.8</ele><time>2022-11-10T15:19:27.0000000+00:00</time></trkpt><trkpt lat="39.45755202" lon="-0.38352907"><ele>15.8</ele><time>2022-11-10T15:19:28.0000000+00:00</time></trkpt><trkpt lat="39.45754683" lon="-0.38351549"><ele>15.8</ele><time>2022-11-10T15:19:29.0000000+00:00</time></trkpt><trkpt lat="39.4575371" lon="-0.3834937"><ele>15.8</ele><time>2022-11-10T15:19:30.0000000+00:00</time></trkpt><trkpt lat="39.45752763" lon="-0.38346453"><ele>15.8</ele><time>2022-11-10T15:19:31.0000000+00:00</time></trkpt><trkpt lat="39.45751405" lon="-0.38342823"><ele>15.8</ele><time>2022-11-10T15:19:32.0000000+00:00</time></trkpt><trkpt lat="39.45748874" lon="-0.38339093"><ele>15.8</ele><time>2022-11-10T15:19:33.0000000+00:00</time></trkpt><trkpt lat="39.45746276" lon="-0.38336068"><ele>16.0</ele><time>2022-11-10T15:19:34.0000000+00:00</time></trkpt><trkpt lat="39.45743929" lon="-0.38333419"><ele>16.0</ele><time>2022-11-10T15:19:35.0000000+00:00</time></trkpt><trkpt lat="39.45741758" lon="-0.38331516"><ele>16.0</ele><time>2022-11-10T15:19:36.0000000+00:00</time></trkpt><trkpt lat="39.4574004" lon="-0.38330368"><ele>16.0</ele><time>2022-11-10T15:19:37.0000000+00:00</time></trkpt><trkpt lat="39.45738665" lon="-0.38329203"><ele>16.0</ele><time>2022-11-10T15:19:38.0000000+00:00</time></trkpt><trkpt lat="39.457375" lon="-0.38328507"><ele>16.0</ele><time>2022-11-10T15:19:39.0000000+00:00</time></trkpt><trkpt lat="39.45736519" lon="-0.38329203"><ele>16.0</ele><time>2022-11-10T15:19:40.0000000+00:00</time></trkpt><trkpt lat="39.45735798" lon="-0.38330552"><ele>16.0</ele><time>2022-11-10T15:19:41.0000000+00:00</time></trkpt><trkpt lat="39.45734851" lon="-0.38331759"><ele>16.0</ele><time>2022-11-10T15:19:42.0000000+00:00</time></trkpt><trkpt lat="39.45732672" lon="-0.38332581"><ele>16.0</ele><time>2022-11-10T15:19:43.0000000+00:00</time></trkpt><trkpt lat="39.4572983" lon="-0.3833383"><ele>16.2</ele><time>2022-11-10T15:19:44.0000000+00:00</time></trkpt><trkpt lat="39.45727618" lon="-0.38336185"><ele>16.2</ele><time>2022-11-10T15:19:45.0000000+00:00</time></trkpt><trkpt lat="39.45725497" lon="-0.38339253"><ele>16.2</ele><time>2022-11-10T15:19:46.0000000+00:00</time></trkpt><trkpt lat="39.45723653" lon="-0.38342605"><ele>16.4</ele><time>2022-11-10T15:19:47.0000000+00:00</time></trkpt><trkpt lat="39.45720585" lon="-0.38345992"><ele>16.4</ele><time>2022-11-10T15:19:48.0000000+00:00</time></trkpt><trkpt lat="39.45716788" lon="-0.38348867"><ele>16.4</ele><time>2022-11-10T15:19:49.0000000+00:00</time></trkpt><trkpt lat="39.45713419" lon="-0.38349118"><ele>16.4</ele><time>2022-11-10T15:19:50.0000000+00:00</time></trkpt><trkpt lat="39.45709395" lon="-0.38349495"><ele>16.4</ele><time>2022-11-10T15:19:51.0000000+00:00</time></trkpt><trkpt lat="39.457059" lon="-0.3834947"><ele>16.4</ele><time>2022-11-10T15:19:52.0000000+00:00</time></trkpt><trkpt lat="39.45701919" lon="-0.38349981"><ele>16.4</ele><time>2022-11-10T15:19:53.0000000+00:00</time></trkpt><trkpt lat="39.45696923" lon="-0.38351381"><ele>16.4</ele><time>2022-11-10T15:19:54.0000000+00:00</time></trkpt><trkpt lat="39.4569062" lon="-0.38353946"><ele>16.4</ele><time>2022-11-10T15:19:55.0000000+00:00</time></trkpt><trkpt lat="39.45685222" lon="-0.38355949"><ele>16.4</ele><time>2022-11-10T15:19:56.0000000+00:00</time></trkpt><trkpt lat="39.4567979" lon="-0.38358078"><ele>16.6</ele><time>2022-11-10T15:19:57.0000000+00:00</time></trkpt><trkpt lat="39.45676228" lon="-0.3835983"><ele>16.6</ele><time>2022-11-10T15:19:58.0000000+00:00</time></trkpt><trkpt lat="39.45674476" lon="-0.38360777"><ele>16.6</ele><time>2022-11-10T15:19:59.0000000+00:00</time></trkpt><trkpt lat="39.45672976" lon="-0.38363443"><ele>16.6</ele><time>2022-11-10T15:20:00.0000000+00:00</time></trkpt><trkpt lat="39.45671266" lon="-0.38369025"><ele>16.6</ele><time>2022-11-10T15:20:01.0000000+00:00</time></trkpt><trkpt lat="39.45669321" lon="-0.3837154"><ele>16.6</ele><time>2022-11-10T15:20:02.0000000+00:00</time></trkpt><trkpt lat="39.45666069" lon="-0.38376493"><ele>16.6</ele><time>2022-11-10T15:20:03.0000000+00:00</time></trkpt><trkpt lat="39.45663035" lon="-0.38377893"><ele>16.6</ele><time>2022-11-10T15:20:04.0000000+00:00</time></trkpt><trkpt lat="39.45660277" lon="-0.38378279"><ele>16.6</ele><time>2022-11-10T15:20:05.0000000+00:00</time></trkpt><trkpt lat="39.4565705" lon="-0.38382243"><ele>16.4</ele><time>2022-11-10T15:20:06.0000000+00:00</time></trkpt><trkpt lat="39.45653999" lon="-0.38383836"><ele>16.6</ele><time>2022-11-10T15:20:07.0000000+00:00</time></trkpt><trkpt lat="39.45650864" lon="-0.38384523"><ele>16.4</ele><time>2022-11-10T15:20:08.0000000+00:00</time></trkpt><trkpt lat="39.45648115" lon="-0.38386736"><ele>16.4</ele><time>2022-11-10T15:20:09.0000000+00:00</time></trkpt><trkpt lat="39.45645207" lon="-0.38386233"><ele>16.4</ele><time>2022-11-10T15:20:10.0000000+00:00</time></trkpt><trkpt lat="39.45642684" lon="-0.38383031"><ele>16.4</ele><time>2022-11-10T15:20:11.0000000+00:00</time></trkpt><trkpt lat="39.45640127" lon="-0.38378606"><ele>16.4</ele><time>2022-11-10T15:20:12.0000000+00:00</time></trkpt><trkpt lat="39.45637127" lon="-0.38377055"><ele>16.2</ele><time>2022-11-10T15:20:13.0000000+00:00</time></trkpt><trkpt lat="39.45633723" lon="-0.38377793"><ele>16.2</ele><time>2022-11-10T15:20:14.0000000+00:00</time></trkpt><trkpt lat="39.45631754" lon="-0.38378379"><ele>16.2</ele><time>2022-11-10T15:20:15.0000000+00:00</time></trkpt><trkpt lat="39.45629499" lon="-0.38378941"><ele>16.2</ele><time>2022-11-10T15:20:16.0000000+00:00</time></trkpt><trkpt lat="39.45626859" lon="-0.38379327"><ele>16.2</ele><time>2022-11-10T15:20:17.0000000+00:00</time></trkpt><trkpt lat="39.4562385" lon="-0.38379628"><ele>16.2</ele><time>2022-11-10T15:20:18.0000000+00:00</time></trkpt><trkpt lat="39.45622006" lon="-0.38381305"><ele>16.2</ele><time>2022-11-10T15:20:19.0000000+00:00</time></trkpt><trkpt lat="39.45621134" lon="-0.38382554"><ele>16.2</ele><time>2022-11-10T15:20:20.0000000+00:00</time></trkpt><trkpt lat="39.45621301" lon="-0.38383115"><ele>16.4</ele><time>2022-11-10T15:20:21.0000000+00:00</time></trkpt><trkpt lat="39.45622307" lon="-0.38383392"><ele>16.4</ele><time>2022-11-10T15:20:22.0000000+00:00</time></trkpt><trkpt lat="39.45622626" lon="-0.38383735"><ele>16.4</ele><time>2022-11-10T15:20:23.0000000+00:00</time></trkpt><trkpt lat="39.45622626" lon="-0.38383735"><ele>16.4</ele><time>2022-11-10T15:20:24.0000000+00:00</time></trkpt><trkpt lat="39.45622198" lon="-0.38383744"><ele>16.4</ele><time>2022-11-10T15:20:25.0000000+00:00</time></trkpt><trkpt lat="39.45621377" lon="-0.38383434"><ele>15.8</ele><time>2022-11-10T15:20:26.0000000+00:00</time></trkpt><trkpt lat="39.45620329" lon="-0.38384305"><ele>15.8</ele><time>2022-11-10T15:20:27.0000000+00:00</time></trkpt><trkpt lat="39.45619525" lon="-0.38385948"><ele>15.8</ele><time>2022-11-10T15:20:28.0000000+00:00</time></trkpt><trkpt lat="39.45619516" lon="-0.38385806"><ele>15.8</ele><time>2022-11-10T15:20:29.0000000+00:00</time></trkpt><trkpt lat="39.45619558" lon="-0.38387851"><ele>16.0</ele><time>2022-11-10T15:20:30.0000000+00:00</time></trkpt><trkpt lat="39.45620899" lon="-0.38392553"><ele>16.0</ele><time>2022-11-10T15:20:31.0000000+00:00</time></trkpt><trkpt lat="39.45623531" lon="-0.38397708"><ele>16.0</ele><time>2022-11-10T15:20:32.0000000+00:00</time></trkpt><trkpt lat="39.4562649" lon="-0.38401891"><ele>16.0</ele><time>2022-11-10T15:20:33.0000000+00:00</time></trkpt><trkpt lat="39.45628678" lon="-0.38405118"><ele>16.0</ele><time>2022-11-10T15:20:34.0000000+00:00</time></trkpt><trkpt lat="39.45630019" lon="-0.38408211"><ele>16.0</ele><time>2022-11-10T15:20:35.0000000+00:00</time></trkpt><trkpt lat="39.45631502" lon="-0.38411966"><ele>16.0</ele><time>2022-11-10T15:20:36.0000000+00:00</time></trkpt><trkpt lat="39.45634092" lon="-0.38416173"><ele>16.0</ele><time>2022-11-10T15:20:37.0000000+00:00</time></trkpt><trkpt lat="39.45635333" lon="-0.38419493"><ele>16.0</ele><time>2022-11-10T15:20:38.0000000+00:00</time></trkpt><trkpt lat="39.4563623" lon="-0.38425284"><ele>16.2</ele><time>2022-11-10T15:20:39.0000000+00:00</time></trkpt><trkpt lat="39.45636959" lon="-0.38430087"><ele>16.2</ele><time>2022-11-10T15:20:40.0000000+00:00</time></trkpt><trkpt lat="39.45637856" lon="-0.38433951"><ele>16.4</ele><time>2022-11-10T15:20:41.0000000+00:00</time></trkpt><trkpt lat="39.45639071" lon="-0.38439894"><ele>16.4</ele><time>2022-11-10T15:20:42.0000000+00:00</time></trkpt><trkpt lat="39.45640379" lon="-0.38444839"><ele>16.6</ele><time>2022-11-10T15:20:43.0000000+00:00</time></trkpt><trkpt lat="39.45641954" lon="-0.38449709"><ele>16.6</ele><time>2022-11-10T15:20:44.0000000+00:00</time></trkpt><trkpt lat="39.45643254" lon="-0.38453993"><ele>16.6</ele><time>2022-11-10T15:20:45.0000000+00:00</time></trkpt><trkpt lat="39.45643782" lon="-0.38458695"><ele>16.6</ele><time>2022-11-10T15:20:46.0000000+00:00</time></trkpt><trkpt lat="39.45644318" lon="-0.3846338"><ele>16.6</ele><time>2022-11-10T15:20:47.0000000+00:00</time></trkpt><trkpt lat="39.45644385" lon="-0.38468342"><ele>16.6</ele><time>2022-11-10T15:20:48.0000000+00:00</time></trkpt><trkpt lat="39.45645358" lon="-0.38473606"><ele>16.6</ele><time>2022-11-10T15:20:49.0000000+00:00</time></trkpt><trkpt lat="39.45646389" lon="-0.38479012"><ele>16.8</ele><time>2022-11-10T15:20:50.0000000+00:00</time></trkpt><trkpt lat="39.45647428" lon="-0.38484033"><ele>16.8</ele><time>2022-11-10T15:20:51.0000000+00:00</time></trkpt><trkpt lat="39.45648341" lon="-0.38488702"><ele>16.8</ele><time>2022-11-10T15:20:52.0000000+00:00</time></trkpt><trkpt lat="39.45648685" lon="-0.38493102"><ele>16.8</ele><time>2022-11-10T15:20:53.0000000+00:00</time></trkpt><trkpt lat="39.45649783" lon="-0.38496195"><ele>16.8</ele><time>2022-11-10T15:20:54.0000000+00:00</time></trkpt><trkpt lat="39.45650186" lon="-0.38498844"><ele>16.8</ele><time>2022-11-10T15:20:55.0000000+00:00</time></trkpt><trkpt lat="39.45649305" lon="-0.38503354"><ele>16.8</ele><time>2022-11-10T15:20:56.0000000+00:00</time></trkpt><trkpt lat="39.45648794" lon="-0.38507712"><ele>16.8</ele><time>2022-11-10T15:20:57.0000000+00:00</time></trkpt><trkpt lat="39.45648559" lon="-0.38512959"><ele>16.8</ele><time>2022-11-10T15:20:58.0000000+00:00</time></trkpt><trkpt lat="39.45649188" lon="-0.38518374"><ele>16.8</ele><time>2022-11-10T15:20:59.0000000+00:00</time></trkpt><trkpt lat="39.45649909" lon="-0.38523898"><ele>17.0</ele><time>2022-11-10T15:21:00.0000000+00:00</time></trkpt><trkpt lat="39.45650504" lon="-0.38529287"><ele>17.0</ele><time>2022-11-10T15:21:01.0000000+00:00</time></trkpt><trkpt lat="39.45651594" lon="-0.38533947"><ele>17.0</ele><time>2022-11-10T15:21:02.0000000+00:00</time></trkpt><trkpt lat="39.45652172" lon="-0.38539337"><ele>17.0</ele><time>2022-11-10T15:21:03.0000000+00:00</time></trkpt><trkpt lat="39.45652893" lon="-0.38544861"><ele>17.0</ele><time>2022-11-10T15:21:04.0000000+00:00</time></trkpt><trkpt lat="39.45654267" lon="-0.38550762"><ele>17.0</ele><time>2022-11-10T15:21:05.0000000+00:00</time></trkpt><trkpt lat="39.45655885" lon="-0.38556553"><ele>17.0</ele><time>2022-11-10T15:21:06.0000000+00:00</time></trkpt><trkpt lat="39.45657092" lon="-0.38562429"><ele>17.2</ele><time>2022-11-10T15:21:07.0000000+00:00</time></trkpt><trkpt lat="39.45656573" lon="-0.385674"><ele>17.2</ele><time>2022-11-10T15:21:08.0000000+00:00</time></trkpt><trkpt lat="39.45656732" lon="-0.38575027"><ele>17.2</ele><time>2022-11-10T15:21:09.0000000+00:00</time></trkpt><trkpt lat="39.45657453" lon="-0.38580735"><ele>17.2</ele><time>2022-11-10T15:21:10.0000000+00:00</time></trkpt><trkpt lat="39.45659163" lon="-0.38585211"><ele>17.2</ele><time>2022-11-10T15:21:11.0000000+00:00</time></trkpt><trkpt lat="39.45660512" lon="-0.38590542"><ele>17.2</ele><time>2022-11-10T15:21:12.0000000+00:00</time></trkpt><trkpt lat="39.45661359" lon="-0.38596376"><ele>17.4</ele><time>2022-11-10T15:21:13.0000000+00:00</time></trkpt><trkpt lat="39.45662482" lon="-0.38601933"><ele>17.2</ele><time>2022-11-10T15:21:14.0000000+00:00</time></trkpt><trkpt lat="39.45663563" lon="-0.38607029"><ele>17.2</ele><time>2022-11-10T15:21:15.0000000+00:00</time></trkpt><trkpt lat="39.45662884" lon="-0.38611036"><ele>17.2</ele><time>2022-11-10T15:21:16.0000000+00:00</time></trkpt><trkpt lat="39.45662423" lon="-0.38614305"><ele>17.2</ele><time>2022-11-10T15:21:17.0000000+00:00</time></trkpt><trkpt lat="39.45661585" lon="-0.38615369"><ele>17.2</ele><time>2022-11-10T15:21:18.0000000+00:00</time></trkpt><trkpt lat="39.45661132" lon="-0.38615763"><ele>17.2</ele><time>2022-11-10T15:21:19.0000000+00:00</time></trkpt><trkpt lat="39.45659749" lon="-0.38617356"><ele>17.2</ele><time>2022-11-10T15:21:20.0000000+00:00</time></trkpt><trkpt lat="39.45660981" lon="-0.38620424"><ele>17.2</ele><time>2022-11-10T15:21:21.0000000+00:00</time></trkpt><trkpt lat="39.45661677" lon="-0.3862376"><ele>17.2</ele><time>2022-11-10T15:21:22.0000000+00:00</time></trkpt><trkpt lat="39.45662666" lon="-0.38627003"><ele>17.2</ele><time>2022-11-10T15:21:23.0000000+00:00</time></trkpt><trkpt lat="39.4566363" lon="-0.38631362"><ele>17.2</ele><time>2022-11-10T15:21:24.0000000+00:00</time></trkpt><trkpt lat="39.4566513" lon="-0.38636332"><ele>17.2</ele><time>2022-11-10T15:21:25.0000000+00:00</time></trkpt><trkpt lat="39.45666396" lon="-0.38641278"><ele>17.2</ele><time>2022-11-10T15:21:26.0000000+00:00</time></trkpt><trkpt lat="39.45667402" lon="-0.38645729"><ele>17.2</ele><time>2022-11-10T15:21:27.0000000+00:00</time></trkpt><trkpt lat="39.45669397" lon="-0.38651889"><ele>17.0</ele><time>2022-11-10T15:21:28.0000000+00:00</time></trkpt><trkpt lat="39.45670671" lon="-0.3865639"><ele>17.2</ele><time>2022-11-10T15:21:29.0000000+00:00</time></trkpt><trkpt lat="39.45672884" lon="-0.38661721"><ele>17.2</ele><time>2022-11-10T15:21:30.0000000+00:00</time></trkpt><trkpt lat="39.45674107" lon="-0.38667262"><ele>17.2</ele><time>2022-11-10T15:21:31.0000000+00:00</time></trkpt><trkpt lat="39.45674183" lon="-0.38674101"><ele>17.4</ele><time>2022-11-10T15:21:32.0000000+00:00</time></trkpt><trkpt lat="39.45674552" lon="-0.38678225"><ele>17.4</ele><time>2022-11-10T15:21:33.0000000+00:00</time></trkpt><trkpt lat="39.45672859" lon="-0.3868053"><ele>17.4</ele><time>2022-11-10T15:21:34.0000000+00:00</time></trkpt><trkpt lat="39.45669715" lon="-0.38682433"><ele>17.4</ele><time>2022-11-10T15:21:35.0000000+00:00</time></trkpt><trkpt lat="39.45666103" lon="-0.38683321"><ele>17.4</ele><time>2022-11-10T15:21:36.0000000+00:00</time></trkpt><trkpt lat="39.45663136" lon="-0.3868364"><ele>17.4</ele><time>2022-11-10T15:21:37.0000000+00:00</time></trkpt><trkpt lat="39.45660403" lon="-0.38682969"><ele>17.4</ele><time>2022-11-10T15:21:38.0000000+00:00</time></trkpt><trkpt lat="39.45657142" lon="-0.3868167"><ele>17.4</ele><time>2022-11-10T15:21:39.0000000+00:00</time></trkpt><trkpt lat="39.4565265" lon="-0.38681779"><ele>17.4</ele><time>2022-11-10T15:21:40.0000000+00:00</time></trkpt><trkpt lat="39.45646598" lon="-0.38682978"><ele>17.4</ele><time>2022-11-10T15:21:41.0000000+00:00</time></trkpt><trkpt lat="39.45640379" lon="-0.38682852"><ele>17.4</ele><time>2022-11-10T15:21:42.0000000+00:00</time></trkpt><trkpt lat="39.45634511" lon="-0.38681595"><ele>17.4</ele><time>2022-11-10T15:21:43.0000000+00:00</time></trkpt><trkpt lat="39.45629356" lon="-0.3868053"><ele>17.6</ele><time>2022-11-10T15:21:44.0000000+00:00</time></trkpt><trkpt lat="39.45624839" lon="-0.38680639"><ele>17.6</ele><time>2022-11-10T15:21:45.0000000+00:00</time></trkpt><trkpt lat="39.45619986" lon="-0.38679843"><ele>17.6</ele><time>2022-11-10T15:21:46.0000000+00:00</time></trkpt><trkpt lat="39.45614982" lon="-0.38678125"><ele>17.6</ele><time>2022-11-10T15:21:47.0000000+00:00</time></trkpt><trkpt lat="39.45610673" lon="-0.38677085"><ele>17.6</ele><time>2022-11-10T15:21:48.0000000+00:00</time></trkpt><trkpt lat="39.45605929" lon="-0.38677563"><ele>17.6</ele><time>2022-11-10T15:21:49.0000000+00:00</time></trkpt><trkpt lat="39.45601529" lon="-0.38678527"><ele>17.6</ele><time>2022-11-10T15:21:50.0000000+00:00</time></trkpt><trkpt lat="39.45597363" lon="-0.38679164"><ele>17.8</ele><time>2022-11-10T15:21:51.0000000+00:00</time></trkpt><trkpt lat="39.45592065" lon="-0.38680706"><ele>17.8</ele><time>2022-11-10T15:21:52.0000000+00:00</time></trkpt><trkpt lat="39.45586483" lon="-0.38680119"><ele>17.8</ele><time>2022-11-10T15:21:53.0000000+00:00</time></trkpt><trkpt lat="39.45581429" lon="-0.38677638"><ele>17.8</ele><time>2022-11-10T15:21:54.0000000+00:00</time></trkpt><trkpt lat="39.45576182" lon="-0.38675887"><ele>17.8</ele><time>2022-11-10T15:21:55.0000000+00:00</time></trkpt><trkpt lat="39.4557137" lon="-0.38674504"><ele>18.0</ele><time>2022-11-10T15:21:56.0000000+00:00</time></trkpt><trkpt lat="39.45566752" lon="-0.38673649"><ele>18.0</ele><time>2022-11-10T15:21:57.0000000+00:00</time></trkpt><trkpt lat="39.4556236" lon="-0.3867193"><ele>18.2</ele><time>2022-11-10T15:21:58.0000000+00:00</time></trkpt><trkpt lat="39.45560348" lon="-0.38670464"><ele>18.2</ele><time>2022-11-10T15:21:59.0000000+00:00</time></trkpt><trkpt lat="39.45557976" lon="-0.38670288"><ele>18.2</ele><time>2022-11-10T15:22:00.0000000+00:00</time></trkpt><trkpt lat="39.45557348" lon="-0.38670941"><ele>18.2</ele><time>2022-11-10T15:22:01.0000000+00:00</time></trkpt><trkpt lat="39.45557565" lon="-0.38670698"><ele>18.2</ele><time>2022-11-10T15:22:02.0000000+00:00</time></trkpt><trkpt lat="39.45556752" lon="-0.38670254"><ele>18.0</ele><time>2022-11-10T15:22:03.0000000+00:00</time></trkpt><trkpt lat="39.45554942" lon="-0.38671914"><ele>18.0</ele><time>2022-11-10T15:22:04.0000000+00:00</time></trkpt><trkpt lat="39.45552209" lon="-0.38674772"><ele>18.0</ele><time>2022-11-10T15:22:05.0000000+00:00</time></trkpt><trkpt lat="39.45549913" lon="-0.38678368"><ele>17.8</ele><time>2022-11-10T15:22:06.0000000+00:00</time></trkpt><trkpt lat="39.45547046" lon="-0.38681737"><ele>17.8</ele><time>2022-11-10T15:22:07.0000000+00:00</time></trkpt><trkpt lat="39.45543224" lon="-0.38685517"><ele>17.8</ele><time>2022-11-10T15:22:08.0000000+00:00</time></trkpt><trkpt lat="39.45538974" lon="-0.38687412"><ele>17.8</ele><time>2022-11-10T15:22:09.0000000+00:00</time></trkpt><trkpt lat="39.45534113" lon="-0.38688971"><ele>17.8</ele><time>2022-11-10T15:22:10.0000000+00:00</time></trkpt><trkpt lat="39.45528321" lon="-0.3869084"><ele>17.8</ele><time>2022-11-10T15:22:11.0000000+00:00</time></trkpt><trkpt lat="39.45521029" lon="-0.38692877"><ele>17.8</ele><time>2022-11-10T15:22:12.0000000+00:00</time></trkpt><trkpt lat="39.45514374" lon="-0.386969"><ele>17.8</ele><time>2022-11-10T15:22:13.0000000+00:00</time></trkpt><trkpt lat="39.45509587" lon="-0.38699415"><ele>17.8</ele><time>2022-11-10T15:22:14.0000000+00:00</time></trkpt><trkpt lat="39.45504751" lon="-0.38701871"><ele>17.6</ele><time>2022-11-10T15:22:15.0000000+00:00</time></trkpt><trkpt lat="39.45500577" lon="-0.38704067"><ele>17.6</ele><time>2022-11-10T15:22:16.0000000+00:00</time></trkpt><trkpt lat="39.45498071" lon="-0.38705274"><ele>17.6</ele><time>2022-11-10T15:22:17.0000000+00:00</time></trkpt><trkpt lat="39.4549533" lon="-0.38707973"><ele>17.6</ele><time>2022-11-10T15:22:18.0000000+00:00</time></trkpt><trkpt lat="39.45493645" lon="-0.38711116"><ele>17.4</ele><time>2022-11-10T15:22:19.0000000+00:00</time></trkpt><trkpt lat="39.45492229" lon="-0.38713136"><ele>17.4</ele><time>2022-11-10T15:22:20.0000000+00:00</time></trkpt><trkpt lat="39.454916" lon="-0.38716061"><ele>17.2</ele><time>2022-11-10T15:22:21.0000000+00:00</time></trkpt><trkpt lat="39.45491793" lon="-0.38718727"><ele>17.2</ele><time>2022-11-10T15:22:22.0000000+00:00</time></trkpt><trkpt lat="39.45491499" lon="-0.38718274"><ele>17.2</ele><time>2022-11-10T15:22:23.0000000+00:00</time></trkpt><trkpt lat="39.45490158" lon="-0.38717545"><ele>17.2</ele><time>2022-11-10T15:22:24.0000000+00:00</time></trkpt><trkpt lat="39.4548937" lon="-0.38717067"><ele>17.2</ele><time>2022-11-10T15:22:25.0000000+00:00</time></trkpt><trkpt lat="39.45489052" lon="-0.38717511"><ele>17.0</ele><time>2022-11-10T15:22:26.0000000+00:00</time></trkpt><trkpt lat="39.45487107" lon="-0.38717385"><ele>17.0</ele><time>2022-11-10T15:22:27.0000000+00:00</time></trkpt><trkpt lat="39.45483989" lon="-0.38718358"><ele>17.0</ele><time>2022-11-10T15:22:28.0000000+00:00</time></trkpt><trkpt lat="39.45480779" lon="-0.38720839"><ele>17.0</ele><time>2022-11-10T15:22:29.0000000+00:00</time></trkpt><trkpt lat="39.4547756" lon="-0.38725868"><ele>17.0</ele><time>2022-11-10T15:22:30.0000000+00:00</time></trkpt><trkpt lat="39.45474191" lon="-0.38729673"><ele>17.0</ele><time>2022-11-10T15:22:31.0000000+00:00</time></trkpt><trkpt lat="39.45469832" lon="-0.38733353"><ele>17.0</ele><time>2022-11-10T15:22:32.0000000+00:00</time></trkpt><trkpt lat="39.45466437" lon="-0.38736102"><ele>17.0</ele><time>2022-11-10T15:22:33.0000000+00:00</time></trkpt><trkpt lat="39.45462121" lon="-0.38740436"><ele>17.0</ele><time>2022-11-10T15:22:34.0000000+00:00</time></trkpt><trkpt lat="39.45457402" lon="-0.38744903"><ele>17.2</ele><time>2022-11-10T15:22:35.0000000+00:00</time></trkpt><trkpt lat="39.45452984" lon="-0.38749119"><ele>17.2</ele><time>2022-11-10T15:22:36.0000000+00:00</time></trkpt><trkpt lat="39.45448425" lon="-0.38753025"><ele>17.2</ele><time>2022-11-10T15:22:37.0000000+00:00</time></trkpt><trkpt lat="39.454441" lon="-0.38756688"><ele>17.2</ele><time>2022-11-10T15:22:38.0000000+00:00</time></trkpt><trkpt lat="39.45440319" lon="-0.38761432"><ele>17.2</ele><time>2022-11-10T15:22:39.0000000+00:00</time></trkpt><trkpt lat="39.45436858" lon="-0.38765104"><ele>17.0</ele><time>2022-11-10T15:22:40.0000000+00:00</time></trkpt><trkpt lat="39.45432751" lon="-0.38768976"><ele>17.0</ele><time>2022-11-10T15:22:41.0000000+00:00</time></trkpt><trkpt lat="39.45428333" lon="-0.3877305"><ele>17.0</ele><time>2022-11-10T15:22:42.0000000+00:00</time></trkpt><trkpt lat="39.4542348" lon="-0.38777777"><ele>17.0</ele><time>2022-11-10T15:22:43.0000000+00:00</time></trkpt><trkpt lat="39.4541934" lon="-0.3878092"><ele>17.0</ele><time>2022-11-10T15:22:44.0000000+00:00</time></trkpt><trkpt lat="39.45415434" lon="-0.3878408"><ele>17.0</ele><time>2022-11-10T15:22:45.0000000+00:00</time></trkpt><trkpt lat="39.45412299" lon="-0.38786368"><ele>17.0</ele><time>2022-11-10T15:22:46.0000000+00:00</time></trkpt><trkpt lat="39.45408586" lon="-0.38789369"><ele>17.2</ele><time>2022-11-10T15:22:47.0000000+00:00</time></trkpt><trkpt lat="39.4540566" lon="-0.38790995"><ele>17.2</ele><time>2022-11-10T15:22:48.0000000+00:00</time></trkpt><trkpt lat="39.45403598" lon="-0.38792194"><ele>17.2</ele><time>2022-11-10T15:22:49.0000000+00:00</time></trkpt><trkpt lat="39.45400681" lon="-0.38792672"><ele>17.0</ele><time>2022-11-10T15:22:50.0000000+00:00</time></trkpt><trkpt lat="39.45399667" lon="-0.38792571"><ele>17.0</ele><time>2022-11-10T15:22:51.0000000+00:00</time></trkpt><trkpt lat="39.45399768" lon="-0.38792831"><ele>17.0</ele><time>2022-11-10T15:22:52.0000000+00:00</time></trkpt><trkpt lat="39.45399458" lon="-0.38793904"><ele>17.0</ele><time>2022-11-10T15:22:53.0000000+00:00</time></trkpt><trkpt lat="39.45397823" lon="-0.38794742"><ele>17.0</ele><time>2022-11-10T15:22:54.0000000+00:00</time></trkpt><trkpt lat="39.45395485" lon="-0.38796309"><ele>17.0</ele><time>2022-11-10T15:22:55.0000000+00:00</time></trkpt><trkpt lat="39.45392559" lon="-0.38798237"><ele>17.0</ele><time>2022-11-10T15:22:56.0000000+00:00</time></trkpt><trkpt lat="39.45388779" lon="-0.3880071"><ele>17.0</ele><time>2022-11-10T15:22:57.0000000+00:00</time></trkpt><trkpt lat="39.45385485" lon="-0.38802604"><ele>17.0</ele><time>2022-11-10T15:22:58.0000000+00:00</time></trkpt><trkpt lat="39.45380179" lon="-0.38806091"><ele>17.0</ele><time>2022-11-10T15:22:59.0000000+00:00</time></trkpt><trkpt lat="39.45376089" lon="-0.38810022"><ele>17.0</ele><time>2022-11-10T15:23:00.0000000+00:00</time></trkpt><trkpt lat="39.45371848" lon="-0.38813333"><ele>17.0</ele><time>2022-11-10T15:23:01.0000000+00:00</time></trkpt><trkpt lat="39.45367724" lon="-0.38815915"><ele>17.0</ele><time>2022-11-10T15:23:02.0000000+00:00</time></trkpt><trkpt lat="39.45363365" lon="-0.38817968"><ele>17.0</ele><time>2022-11-10T15:23:03.0000000+00:00</time></trkpt><trkpt lat="39.45358763" lon="-0.38820223"><ele>17.0</ele><time>2022-11-10T15:23:04.0000000+00:00</time></trkpt><trkpt lat="39.4535391" lon="-0.38822863"><ele>17.0</ele><time>2022-11-10T15:23:05.0000000+00:00</time></trkpt><trkpt lat="39.45349141" lon="-0.38826074"><ele>17.0</ele><time>2022-11-10T15:23:06.0000000+00:00</time></trkpt><trkpt lat="39.45345746" lon="-0.38829292"><ele>17.0</ele><time>2022-11-10T15:23:07.0000000+00:00</time></trkpt><trkpt lat="39.45342922" lon="-0.38832041"><ele>17.0</ele><time>2022-11-10T15:23:08.0000000+00:00</time></trkpt><trkpt lat="39.45340516" lon="-0.38834984"><ele>17.0</ele><time>2022-11-10T15:23:09.0000000+00:00</time></trkpt><trkpt lat="39.45337792" lon="-0.38836886"><ele>17.0</ele><time>2022-11-10T15:23:10.0000000+00:00</time></trkpt><trkpt lat="39.45335068" lon="-0.3883847"><ele>17.0</ele><time>2022-11-10T15:23:11.0000000+00:00</time></trkpt><trkpt lat="39.45332671" lon="-0.38839971"><ele>16.8</ele><time>2022-11-10T15:23:12.0000000+00:00</time></trkpt><trkpt lat="39.45329905" lon="-0.38840281"><ele>16.8</ele><time>2022-11-10T15:23:13.0000000+00:00</time></trkpt><trkpt lat="39.45327407" lon="-0.38840566"><ele>16.8</ele><time>2022-11-10T15:23:14.0000000+00:00</time></trkpt><trkpt lat="39.45324934" lon="-0.38841002"><ele>16.8</ele><time>2022-11-10T15:23:15.0000000+00:00</time></trkpt><trkpt lat="39.45323124" lon="-0.38842234"><ele>16.8</ele><time>2022-11-10T15:23:16.0000000+00:00</time></trkpt><trkpt lat="39.45322738" lon="-0.38844857"><ele>16.8</ele><time>2022-11-10T15:23:17.0000000+00:00</time></trkpt><trkpt lat="39.45322881" lon="-0.38848026"><ele>16.8</ele><time>2022-11-10T15:23:18.0000000+00:00</time></trkpt><trkpt lat="39.45323166" lon="-0.38850448"><ele>16.8</ele><time>2022-11-10T15:23:19.0000000+00:00</time></trkpt><trkpt lat="39.45323191" lon="-0.38851043"><ele>16.8</ele><time>2022-11-10T15:23:20.0000000+00:00</time></trkpt><trkpt lat="39.4532304" lon="-0.38851479"><ele>16.8</ele><time>2022-11-10T15:23:21.0000000+00:00</time></trkpt><trkpt lat="39.45322378" lon="-0.38852041"><ele>16.8</ele><time>2022-11-10T15:23:22.0000000+00:00</time></trkpt><trkpt lat="39.45321959" lon="-0.38852183"><ele>16.8</ele><time>2022-11-10T15:23:23.0000000+00:00</time></trkpt><trkpt lat="39.45321959" lon="-0.38852183"><ele>16.8</ele><time>2022-11-10T15:23:24.0000000+00:00</time></trkpt><trkpt lat="39.45321531" lon="-0.38852418"><ele>16.8</ele><time>2022-11-10T15:23:25.0000000+00:00</time></trkpt><trkpt lat="39.4531988" lon="-0.38853793"><ele>16.8</ele><time>2022-11-10T15:23:26.0000000+00:00</time></trkpt><trkpt lat="39.45316971" lon="-0.3885344"><ele>16.8</ele><time>2022-11-10T15:23:27.0000000+00:00</time></trkpt><trkpt lat="39.45314482" lon="-0.38852921"><ele>16.8</ele><time>2022-11-10T15:23:28.0000000+00:00</time></trkpt><trkpt lat="39.45312831" lon="-0.3885241"><ele>16.8</ele><time>2022-11-10T15:23:29.0000000+00:00</time></trkpt><trkpt lat="39.45312638" lon="-0.38852342"><ele>16.6</ele><time>2022-11-10T15:23:30.0000000+00:00</time></trkpt><trkpt lat="39.45312269" lon="-0.38852225"><ele>16.6</ele><time>2022-11-10T15:23:31.0000000+00:00</time></trkpt><trkpt lat="39.45312269" lon="-0.38852225"><ele>16.6</ele><time>2022-11-10T15:23:32.0000000+00:00</time></trkpt><trkpt lat="39.45312269" lon="-0.38852225"><ele>16.4</ele><time>2022-11-10T15:23:33.0000000+00:00</time></trkpt><trkpt lat="39.45312269" lon="-0.38852225"><ele>16.4</ele><time>2022-11-10T15:23:34.0000000+00:00</time></trkpt><trkpt lat="39.45312269" lon="-0.38852225"><ele>16.4</ele><time>2022-11-10T15:23:35.0000000+00:00</time></trkpt><trkpt lat="39.4531237" lon="-0.38852125"><ele>16.4</ele><time>2022-11-10T15:23:36.0000000+00:00</time></trkpt><trkpt lat="39.45312571" lon="-0.38851932"><ele>16.4</ele><time>2022-11-10T15:23:37.0000000+00:00</time></trkpt><trkpt lat="39.45312571" lon="-0.38851932"><ele>16.4</ele><time>2022-11-10T15:23:38.0000000+00:00</time></trkpt><trkpt lat="39.45312571" lon="-0.38851932"><ele>16.2</ele><time>2022-11-10T15:23:39.0000000+00:00</time></trkpt><trkpt lat="39.45312571" lon="-0.38851932"><ele>16.2</ele><time>2022-11-10T15:23:40.0000000+00:00</time></trkpt><trkpt lat="39.45312571" lon="-0.38851932"><ele>16.2</ele><time>2022-11-10T15:23:41.0000000+00:00</time></trkpt><trkpt lat="39.45312571" lon="-0.38851932"><ele>16.2</ele><time>2022-11-10T15:23:42.0000000+00:00</time></trkpt><trkpt lat="39.45312571" lon="-0.38851932"><ele>16.2</ele><time>2022-11-10T15:23:43.0000000+00:00</time></trkpt><trkpt lat="39.45312571" lon="-0.38851932"><ele>16.2</ele><time>2022-11-10T15:23:44.0000000+00:00</time></trkpt><trkpt lat="39.45312571" lon="-0.38851932"><ele>16.2</ele><time>2022-11-10T15:23:45.0000000+00:00</time></trkpt><trkpt lat="39.45312571" lon="-0.38851932"><ele>16.2</ele><time>2022-11-10T15:23:46.0000000+00:00</time></trkpt><trkpt lat="39.45312571" lon="-0.38851932"><ele>16.2</ele><time>2022-11-10T15:23:47.0000000+00:00</time></trkpt><trkpt lat="39.45312571" lon="-0.38851932"><ele>16.0</ele><time>2022-11-10T15:23:48.0000000+00:00</time></trkpt><trkpt lat="39.45312571" lon="-0.38851932"><ele>16.2</ele><time>2022-11-10T15:23:49.0000000+00:00</time></trkpt><trkpt lat="39.45312571" lon="-0.38851932"><ele>16.2</ele><time>2022-11-10T15:23:50.0000000+00:00</time></trkpt><trkpt lat="39.45312571" lon="-0.38851932"><ele>16.2</ele><time>2022-11-10T15:23:51.0000000+00:00</time></trkpt><trkpt lat="39.45312571" lon="-0.38851932"><ele>16.4</ele><time>2022-11-10T15:23:52.0000000+00:00</time></trkpt><trkpt lat="39.45312571" lon="-0.38851932"><ele>16.4</ele><time>2022-11-10T15:23:53.0000000+00:00</time></trkpt><trkpt lat="39.45312571" lon="-0.38851932"><ele>16.4</ele><time>2022-11-10T15:23:54.0000000+00:00</time></trkpt><trkpt lat="39.45312571" lon="-0.38851932"><ele>16.6</ele><time>2022-11-10T15:23:55.0000000+00:00</time></trkpt><trkpt lat="39.45312571" lon="-0.38851932"><ele>16.4</ele><time>2022-11-10T15:23:56.0000000+00:00</time></trkpt><trkpt lat="39.45312571" lon="-0.38851932"><ele>16.4</ele><time>2022-11-10T15:23:57.0000000+00:00</time></trkpt><trkpt lat="39.45312571" lon="-0.38851932"><ele>16.2</ele><time>2022-11-10T15:23:58.0000000+00:00</time></trkpt><trkpt lat="39.45312571" lon="-0.38851932"><ele>16.2</ele><time>2022-11-10T15:23:59.0000000+00:00</time></trkpt><trkpt lat="39.45313107" lon="-0.38852477"><ele>16.2</ele><time>2022-11-10T15:24:00.0000000+00:00</time></trkpt><trkpt lat="39.45313308" lon="-0.38852233"><ele>16.2</ele><time>2022-11-10T15:24:01.0000000+00:00</time></trkpt><trkpt lat="39.45313308" lon="-0.38852233"><ele>16.2</ele><time>2022-11-10T15:24:02.0000000+00:00</time></trkpt><trkpt lat="39.45313308" lon="-0.38852233"><ele>16.0</ele><time>2022-11-10T15:24:03.0000000+00:00</time></trkpt><trkpt lat="39.45313308" lon="-0.38852233"><ele>16.0</ele><time>2022-11-10T15:24:04.0000000+00:00</time></trkpt><trkpt lat="39.45313308" lon="-0.38852233"><ele>16.0</ele><time>2022-11-10T15:24:05.0000000+00:00</time></trkpt><trkpt lat="39.45313308" lon="-0.38852233"><ele>16.0</ele><time>2022-11-10T15:24:06.0000000+00:00</time></trkpt><trkpt lat="39.45313308" lon="-0.38852233"><ele>16.0</ele><time>2022-11-10T15:24:07.0000000+00:00</time></trkpt><trkpt lat="39.45313308" lon="-0.38852233"><ele>16.0</ele><time>2022-11-10T15:24:08.0000000+00:00</time></trkpt><trkpt lat="39.45313308" lon="-0.38852233"><ele>16.2</ele><time>2022-11-10T15:24:09.0000000+00:00</time></trkpt><trkpt lat="39.45313308" lon="-0.38852233"><ele>16.2</ele><time>2022-11-10T15:24:10.0000000+00:00</time></trkpt><trkpt lat="39.45313308" lon="-0.38852233"><ele>16.2</ele><time>2022-11-10T15:24:11.0000000+00:00</time></trkpt><trkpt lat="39.45313308" lon="-0.38852233"><ele>16.2</ele><time>2022-11-10T15:24:12.0000000+00:00</time></trkpt><trkpt lat="39.45313308" lon="-0.38852233"><ele>16.2</ele><time>2022-11-10T15:24:13.0000000+00:00</time></trkpt><trkpt lat="39.45313308" lon="-0.38852233"><ele>16.4</ele><time>2022-11-10T15:24:14.0000000+00:00</time></trkpt><trkpt lat="39.45313308" lon="-0.38852233"><ele>16.4</ele><time>2022-11-10T15:24:15.0000000+00:00</time></trkpt><trkpt lat="39.45313308" lon="-0.38852233"><ele>16.4</ele><time>2022-11-10T15:24:16.0000000+00:00</time></trkpt><trkpt lat="39.45313308" lon="-0.38852233"><ele>16.6</ele><time>2022-11-10T15:24:17.0000000+00:00</time></trkpt><trkpt lat="39.45313308" lon="-0.38852233"><ele>16.6</ele><time>2022-11-10T15:24:18.0000000+00:00</time></trkpt><trkpt lat="39.45312898" lon="-0.38851546"><ele>16.6</ele><time>2022-11-10T15:24:19.0000000+00:00</time></trkpt><trkpt lat="39.45312034" lon="-0.38850482"><ele>16.6</ele><time>2022-11-10T15:24:20.0000000+00:00</time></trkpt><trkpt lat="39.45311096" lon="-0.38849258"><ele>16.6</ele><time>2022-11-10T15:24:21.0000000+00:00</time></trkpt><trkpt lat="39.45309805" lon="-0.38847255"><ele>16.6</ele><time>2022-11-10T15:24:22.0000000+00:00</time></trkpt><trkpt lat="39.45308732" lon="-0.38844497"><ele>16.4</ele><time>2022-11-10T15:24:23.0000000+00:00</time></trkpt><trkpt lat="39.45307718" lon="-0.38841605"><ele>16.4</ele><time>2022-11-10T15:24:24.0000000+00:00</time></trkpt><trkpt lat="39.45306821" lon="-0.38839124"><ele>16.4</ele><time>2022-11-10T15:24:25.0000000+00:00</time></trkpt><trkpt lat="39.45305136" lon="-0.38837289"><ele>16.2</ele><time>2022-11-10T15:24:26.0000000+00:00</time></trkpt><trkpt lat="39.45303485" lon="-0.38837347"><ele>16.2</ele><time>2022-11-10T15:24:27.0000000+00:00</time></trkpt><trkpt lat="39.45300761" lon="-0.3883837"><ele>16.2</ele><time>2022-11-10T15:24:28.0000000+00:00</time></trkpt><trkpt lat="39.45298129" lon="-0.3883982"><ele>16.2</ele><time>2022-11-10T15:24:29.0000000+00:00</time></trkpt><trkpt lat="39.45295581" lon="-0.38841538"><ele>16.2</ele><time>2022-11-10T15:24:30.0000000+00:00</time></trkpt><trkpt lat="39.45292337" lon="-0.3884329"><ele>16.2</ele><time>2022-11-10T15:24:31.0000000+00:00</time></trkpt><trkpt lat="39.45288607" lon="-0.38844296"><ele>16.2</ele><time>2022-11-10T15:24:32.0000000+00:00</time></trkpt><trkpt lat="39.45285003" lon="-0.38844606"><ele>16.2</ele><time>2022-11-10T15:24:33.0000000+00:00</time></trkpt><trkpt lat="39.45280812" lon="-0.38845511"><ele>16.4</ele><time>2022-11-10T15:24:34.0000000+00:00</time></trkpt><trkpt lat="39.45276881" lon="-0.38846609"><ele>16.4</ele><time>2022-11-10T15:24:35.0000000+00:00</time></trkpt><trkpt lat="39.45272866" lon="-0.38847489"><ele>16.4</ele><time>2022-11-10T15:24:36.0000000+00:00</time></trkpt><trkpt lat="39.45268541" lon="-0.38848881"><ele>16.4</ele><time>2022-11-10T15:24:37.0000000+00:00</time></trkpt><trkpt lat="39.45264341" lon="-0.38850197"><ele>16.4</ele><time>2022-11-10T15:24:38.0000000+00:00</time></trkpt><trkpt lat="39.45260293" lon="-0.3885194"><ele>16.4</ele><time>2022-11-10T15:24:39.0000000+00:00</time></trkpt><trkpt lat="39.45256303" lon="-0.38853851"><ele>16.6</ele><time>2022-11-10T15:24:40.0000000+00:00</time></trkpt><trkpt lat="39.45251877" lon="-0.38855712"><ele>16.6</ele><time>2022-11-10T15:24:41.0000000+00:00</time></trkpt><trkpt lat="39.4524606" lon="-0.38857221"><ele>16.6</ele><time>2022-11-10T15:24:42.0000000+00:00</time></trkpt><trkpt lat="39.4524197" lon="-0.38858201"><ele>16.6</ele><time>2022-11-10T15:24:43.0000000+00:00</time></trkpt><trkpt lat="39.45236346" lon="-0.38857925"><ele>16.8</ele><time>2022-11-10T15:24:44.0000000+00:00</time></trkpt><trkpt lat="39.45231183" lon="-0.38858629"><ele>16.8</ele><time>2022-11-10T15:24:45.0000000+00:00</time></trkpt><trkpt lat="39.45226187" lon="-0.38859291"><ele>16.8</ele><time>2022-11-10T15:24:46.0000000+00:00</time></trkpt><trkpt lat="39.45220898" lon="-0.38859643"><ele>16.8</ele><time>2022-11-10T15:24:47.0000000+00:00</time></trkpt><trkpt lat="39.45215886" lon="-0.38860506"><ele>16.8</ele><time>2022-11-10T15:24:48.0000000+00:00</time></trkpt><trkpt lat="39.45211561" lon="-0.38862392"><ele>16.8</ele><time>2022-11-10T15:24:49.0000000+00:00</time></trkpt><trkpt lat="39.45204419" lon="-0.3886225"><ele>16.8</ele><time>2022-11-10T15:24:50.0000000+00:00</time></trkpt><trkpt lat="39.45198862" lon="-0.38861764"><ele>16.8</ele><time>2022-11-10T15:24:51.0000000+00:00</time></trkpt><trkpt lat="39.45193053" lon="-0.38863298"><ele>16.8</ele><time>2022-11-10T15:24:52.0000000+00:00</time></trkpt><trkpt lat="39.45188678" lon="-0.3886515"><ele>16.8</ele><time>2022-11-10T15:24:53.0000000+00:00</time></trkpt><trkpt lat="39.45183422" lon="-0.38867463"><ele>16.8</ele><time>2022-11-10T15:24:54.0000000+00:00</time></trkpt><trkpt lat="39.45179139" lon="-0.38870171"><ele>16.8</ele><time>2022-11-10T15:24:55.0000000+00:00</time></trkpt><trkpt lat="39.45175988" lon="-0.38871646"><ele>16.8</ele><time>2022-11-10T15:24:56.0000000+00:00</time></trkpt><trkpt lat="39.4517059" lon="-0.38873104"><ele>16.8</ele><time>2022-11-10T15:24:57.0000000+00:00</time></trkpt><trkpt lat="39.45165158" lon="-0.38872375"><ele>16.8</ele><time>2022-11-10T15:24:58.0000000+00:00</time></trkpt><trkpt lat="39.45157724" lon="-0.38871093"><ele>16.8</ele><time>2022-11-10T15:24:59.0000000+00:00</time></trkpt><trkpt lat="39.45152518" lon="-0.3887411"><ele>16.8</ele><time>2022-11-10T15:25:00.0000000+00:00</time></trkpt><trkpt lat="39.45147213" lon="-0.38877698"><ele>16.8</ele><time>2022-11-10T15:25:01.0000000+00:00</time></trkpt><trkpt lat="39.45141974" lon="-0.38879517"><ele>16.8</ele><time>2022-11-10T15:25:02.0000000+00:00</time></trkpt><trkpt lat="39.45136333" lon="-0.38881679"><ele>16.8</ele><time>2022-11-10T15:25:03.0000000+00:00</time></trkpt><trkpt lat="39.45130147" lon="-0.38881595"><ele>16.8</ele><time>2022-11-10T15:25:04.0000000+00:00</time></trkpt><trkpt lat="39.45123492" lon="-0.38880975"><ele>17.0</ele><time>2022-11-10T15:25:05.0000000+00:00</time></trkpt><trkpt lat="39.45118136" lon="-0.38881159"><ele>17.0</ele><time>2022-11-10T15:25:06.0000000+00:00</time></trkpt><trkpt lat="39.45112688" lon="-0.38881168"><ele>17.0</ele><time>2022-11-10T15:25:07.0000000+00:00</time></trkpt><trkpt lat="39.45108019" lon="-0.38882224"><ele>17.2</ele><time>2022-11-10T15:25:08.0000000+00:00</time></trkpt><trkpt lat="39.45103065" lon="-0.38882182"><ele>17.2</ele><time>2022-11-10T15:25:09.0000000+00:00</time></trkpt><trkpt lat="39.45098589" lon="-0.38882467"><ele>17.2</ele><time>2022-11-10T15:25:10.0000000+00:00</time></trkpt><trkpt lat="39.45093753" lon="-0.38882232"><ele>17.2</ele><time>2022-11-10T15:25:11.0000000+00:00</time></trkpt><trkpt lat="39.45088917" lon="-0.38883976"><ele>17.2</ele><time>2022-11-10T15:25:12.0000000+00:00</time></trkpt><trkpt lat="39.45083929" lon="-0.38885904"><ele>17.2</ele><time>2022-11-10T15:25:13.0000000+00:00</time></trkpt><trkpt lat="39.45079973" lon="-0.38887018"><ele>17.2</ele><time>2022-11-10T15:25:14.0000000+00:00</time></trkpt><trkpt lat="39.45074005" lon="-0.38887957"><ele>17.4</ele><time>2022-11-10T15:25:15.0000000+00:00</time></trkpt><trkpt lat="39.45069077" lon="-0.38888862"><ele>17.4</ele><time>2022-11-10T15:25:16.0000000+00:00</time></trkpt><trkpt lat="39.45064064" lon="-0.38890178"><ele>17.4</ele><time>2022-11-10T15:25:17.0000000+00:00</time></trkpt><trkpt lat="39.4505932" lon="-0.38891578"><ele>17.4</ele><time>2022-11-10T15:25:18.0000000+00:00</time></trkpt><trkpt lat="39.45054123" lon="-0.38893037"><ele>17.4</ele><time>2022-11-10T15:25:19.0000000+00:00</time></trkpt><trkpt lat="39.45049781" lon="-0.38894311"><ele>17.4</ele><time>2022-11-10T15:25:20.0000000+00:00</time></trkpt><trkpt lat="39.45043009" lon="-0.38895618"><ele>17.4</ele><time>2022-11-10T15:25:21.0000000+00:00</time></trkpt><trkpt lat="39.45037485" lon="-0.3889685"><ele>17.6</ele><time>2022-11-10T15:25:22.0000000+00:00</time></trkpt><trkpt lat="39.45031936" lon="-0.38897764"><ele>17.6</ele><time>2022-11-10T15:25:23.0000000+00:00</time></trkpt><trkpt lat="39.45026203" lon="-0.38898518"><ele>17.4</ele><time>2022-11-10T15:25:24.0000000+00:00</time></trkpt><trkpt lat="39.45020462" lon="-0.38899021"><ele>17.4</ele><time>2022-11-10T15:25:25.0000000+00:00</time></trkpt><trkpt lat="39.45014929" lon="-0.3889975"><ele>17.4</ele><time>2022-11-10T15:25:26.0000000+00:00</time></trkpt><trkpt lat="39.45009657" lon="-0.38900622"><ele>17.4</ele><time>2022-11-10T15:25:27.0000000+00:00</time></trkpt><trkpt lat="39.45005533" lon="-0.38901092"><ele>17.4</ele><time>2022-11-10T15:25:28.0000000+00:00</time></trkpt><trkpt lat="39.44999725" lon="-0.38902592"><ele>17.4</ele><time>2022-11-10T15:25:29.0000000+00:00</time></trkpt><trkpt lat="39.44994863" lon="-0.3890452"><ele>17.4</ele><time>2022-11-10T15:25:30.0000000+00:00</time></trkpt><trkpt lat="39.44990312" lon="-0.38906205"><ele>17.4</ele><time>2022-11-10T15:25:31.0000000+00:00</time></trkpt><trkpt lat="39.44983372" lon="-0.38908149"><ele>17.4</ele><time>2022-11-10T15:25:32.0000000+00:00</time></trkpt><trkpt lat="39.4497742" lon="-0.38910932"><ele>17.4</ele><time>2022-11-10T15:25:33.0000000+00:00</time></trkpt><trkpt lat="39.44971645" lon="-0.38913296"><ele>17.4</ele><time>2022-11-10T15:25:34.0000000+00:00</time></trkpt><trkpt lat="39.4496535" lon="-0.38913807"><ele>17.4</ele><time>2022-11-10T15:25:35.0000000+00:00</time></trkpt><trkpt lat="39.44958863" lon="-0.38913807"><ele>17.4</ele><time>2022-11-10T15:25:36.0000000+00:00</time></trkpt><trkpt lat="39.44954027" lon="-0.38914603"><ele>17.2</ele><time>2022-11-10T15:25:37.0000000+00:00</time></trkpt><trkpt lat="39.44947321" lon="-0.38918149"><ele>17.2</ele><time>2022-11-10T15:25:38.0000000+00:00</time></trkpt><trkpt lat="39.4494163" lon="-0.38920756"><ele>17.2</ele><time>2022-11-10T15:25:39.0000000+00:00</time></trkpt><trkpt lat="39.44936483" lon="-0.38921887"><ele>17.2</ele><time>2022-11-10T15:25:40.0000000+00:00</time></trkpt><trkpt lat="39.44930943" lon="-0.38921686"><ele>17.2</ele><time>2022-11-10T15:25:41.0000000+00:00</time></trkpt><trkpt lat="39.44926827" lon="-0.38922994"><ele>17.2</ele><time>2022-11-10T15:25:42.0000000+00:00</time></trkpt><trkpt lat="39.4492065" lon="-0.3892503"><ele>17.4</ele><time>2022-11-10T15:25:43.0000000+00:00</time></trkpt><trkpt lat="39.44916409" lon="-0.38925642"><ele>17.4</ele><time>2022-11-10T15:25:44.0000000+00:00</time></trkpt><trkpt lat="39.44910508" lon="-0.38926011"><ele>17.4</ele><time>2022-11-10T15:25:45.0000000+00:00</time></trkpt><trkpt lat="39.44905378" lon="-0.38926162"><ele>17.4</ele><time>2022-11-10T15:25:46.0000000+00:00</time></trkpt><trkpt lat="39.44900139" lon="-0.38927327"><ele>17.4</ele><time>2022-11-10T15:25:47.0000000+00:00</time></trkpt><trkpt lat="39.44894691" lon="-0.38929028"><ele>17.6</ele><time>2022-11-10T15:25:48.0000000+00:00</time></trkpt><trkpt lat="39.44889167" lon="-0.38930755"><ele>17.6</ele><time>2022-11-10T15:25:49.0000000+00:00</time></trkpt><trkpt lat="39.44883602" lon="-0.38932021"><ele>17.8</ele><time>2022-11-10T15:25:50.0000000+00:00</time></trkpt><trkpt lat="39.44877952" lon="-0.38933739"><ele>17.8</ele><time>2022-11-10T15:25:51.0000000+00:00</time></trkpt><trkpt lat="39.44872613" lon="-0.38934929"><ele>17.8</ele><time>2022-11-10T15:25:52.0000000+00:00</time></trkpt><trkpt lat="39.44867098" lon="-0.38936564"><ele>17.8</ele><time>2022-11-10T15:25:53.0000000+00:00</time></trkpt><trkpt lat="39.44861432" lon="-0.38939447"><ele>17.8</ele><time>2022-11-10T15:25:54.0000000+00:00</time></trkpt><trkpt lat="39.44855925" lon="-0.38941241"><ele>17.8</ele><time>2022-11-10T15:25:55.0000000+00:00</time></trkpt><trkpt lat="39.4485087" lon="-0.38941367"><ele>17.8</ele><time>2022-11-10T15:25:56.0000000+00:00</time></trkpt><trkpt lat="39.44845489" lon="-0.38940847"><ele>17.8</ele><time>2022-11-10T15:25:57.0000000+00:00</time></trkpt><trkpt lat="39.44839999" lon="-0.38941962"><ele>17.8</ele><time>2022-11-10T15:25:58.0000000+00:00</time></trkpt><trkpt lat="39.44833771" lon="-0.38944527"><ele>18.0</ele><time>2022-11-10T15:25:59.0000000+00:00</time></trkpt><trkpt lat="39.44826873" lon="-0.3894741"><ele>18.0</ele><time>2022-11-10T15:26:00.0000000+00:00</time></trkpt><trkpt lat="39.44820184" lon="-0.38950285"><ele>18.0</ele><time>2022-11-10T15:26:01.0000000+00:00</time></trkpt><trkpt lat="39.44813118" lon="-0.3895285"><ele>18.0</ele><time>2022-11-10T15:26:02.0000000+00:00</time></trkpt><trkpt lat="39.44807008" lon="-0.38953772"><ele>17.8</ele><time>2022-11-10T15:26:03.0000000+00:00</time></trkpt><trkpt lat="39.4480213" lon="-0.38955557"><ele>17.8</ele><time>2022-11-10T15:26:04.0000000+00:00</time></trkpt><trkpt lat="39.44797486" lon="-0.38956731"><ele>17.8</ele><time>2022-11-10T15:26:05.0000000+00:00</time></trkpt><trkpt lat="39.44792876" lon="-0.38956446"><ele>17.8</ele><time>2022-11-10T15:26:06.0000000+00:00</time></trkpt><trkpt lat="39.44788719" lon="-0.3895575"><ele>17.8</ele><time>2022-11-10T15:26:07.0000000+00:00</time></trkpt><trkpt lat="39.44786078" lon="-0.38954023"><ele>17.6</ele><time>2022-11-10T15:26:08.0000000+00:00</time></trkpt><trkpt lat="39.44784218" lon="-0.38954258"><ele>17.6</ele><time>2022-11-10T15:26:09.0000000+00:00</time></trkpt><trkpt lat="39.44782449" lon="-0.38951987"><ele>17.6</ele><time>2022-11-10T15:26:10.0000000+00:00</time></trkpt><trkpt lat="39.44781158" lon="-0.38947854"><ele>17.6</ele><time>2022-11-10T15:26:11.0000000+00:00</time></trkpt><trkpt lat="39.44780035" lon="-0.38944191"><ele>17.6</ele><time>2022-11-10T15:26:12.0000000+00:00</time></trkpt><trkpt lat="39.44778392" lon="-0.38941233"><ele>17.6</ele><time>2022-11-10T15:26:13.0000000+00:00</time></trkpt><trkpt lat="39.44775827" lon="-0.38935231"><ele>17.4</ele><time>2022-11-10T15:26:14.0000000+00:00</time></trkpt><trkpt lat="39.44773975" lon="-0.38934778"><ele>17.2</ele><time>2022-11-10T15:26:15.0000000+00:00</time></trkpt><trkpt lat="39.44772994" lon="-0.38935985"><ele>17.2</ele><time>2022-11-10T15:26:16.0000000+00:00</time></trkpt><trkpt lat="39.44772483" lon="-0.38938701"><ele>17.0</ele><time>2022-11-10T15:26:17.0000000+00:00</time></trkpt><trkpt lat="39.44771326" lon="-0.38940302"><ele>17.0</ele><time>2022-11-10T15:26:18.0000000+00:00</time></trkpt><trkpt lat="39.44768711" lon="-0.38940076"><ele>17.0</ele><time>2022-11-10T15:26:19.0000000+00:00</time></trkpt><trkpt lat="39.44766825" lon="-0.38938215"><ele>17.0</ele><time>2022-11-10T15:26:20.0000000+00:00</time></trkpt><trkpt lat="39.44765425" lon="-0.3893534"><ele>17.0</ele><time>2022-11-10T15:26:21.0000000+00:00</time></trkpt><trkpt lat="39.44763036" lon="-0.38931409"><ele>17.0</ele><time>2022-11-10T15:26:22.0000000+00:00</time></trkpt><trkpt lat="39.44760438" lon="-0.38927553"><ele>17.0</ele><time>2022-11-10T15:26:23.0000000+00:00</time></trkpt><trkpt lat="39.44757597" lon="-0.38924519"><ele>17.0</ele><time>2022-11-10T15:26:24.0000000+00:00</time></trkpt><trkpt lat="39.44754537" lon="-0.38922222"><ele>17.0</ele><time>2022-11-10T15:26:25.0000000+00:00</time></trkpt><trkpt lat="39.44751184" lon="-0.38921535"><ele>17.0</ele><time>2022-11-10T15:26:26.0000000+00:00</time></trkpt><trkpt lat="39.44749148" lon="-0.38921502"><ele>16.8</ele><time>2022-11-10T15:26:27.0000000+00:00</time></trkpt><trkpt lat="39.44746977" lon="-0.38920831"><ele>16.8</ele><time>2022-11-10T15:26:28.0000000+00:00</time></trkpt><trkpt lat="39.44745418" lon="-0.38920001"><ele>16.8</ele><time>2022-11-10T15:26:29.0000000+00:00</time></trkpt><trkpt lat="39.44744454" lon="-0.38919037"><ele>16.8</ele><time>2022-11-10T15:26:30.0000000+00:00</time></trkpt><trkpt lat="39.44744211" lon="-0.38917319"><ele>17.0</ele><time>2022-11-10T15:26:31.0000000+00:00</time></trkpt><trkpt lat="39.44744521" lon="-0.3891581"><ele>17.0</ele><time>2022-11-10T15:26:32.0000000+00:00</time></trkpt><trkpt lat="39.44745292" lon="-0.38913262"><ele>17.0</ele><time>2022-11-10T15:26:33.0000000+00:00</time></trkpt><trkpt lat="39.44745393" lon="-0.38909457"><ele>17.0</ele><time>2022-11-10T15:26:34.0000000+00:00</time></trkpt><trkpt lat="39.44744932" lon="-0.38904981"><ele>17.2</ele><time>2022-11-10T15:26:35.0000000+00:00</time></trkpt><trkpt lat="39.4474416" lon="-0.38899801"><ele>17.2</ele><time>2022-11-10T15:26:36.0000000+00:00</time></trkpt><trkpt lat="39.4474157" lon="-0.38894671"><ele>17.4</ele><time>2022-11-10T15:26:37.0000000+00:00</time></trkpt><trkpt lat="39.44739676" lon="-0.38889282"><ele>17.4</ele><time>2022-11-10T15:26:38.0000000+00:00</time></trkpt><trkpt lat="39.44738293" lon="-0.38884026"><ele>17.4</ele><time>2022-11-10T15:26:39.0000000+00:00</time></trkpt><trkpt lat="39.44736717" lon="-0.38877966"><ele>17.4</ele><time>2022-11-10T15:26:40.0000000+00:00</time></trkpt><trkpt lat="39.44735066" lon="-0.38871512"><ele>17.6</ele><time>2022-11-10T15:26:41.0000000+00:00</time></trkpt><trkpt lat="39.44733281" lon="-0.38867522"><ele>17.6</ele><time>2022-11-10T15:26:42.0000000+00:00</time></trkpt><trkpt lat="39.44731361" lon="-0.38862711"><ele>17.6</ele><time>2022-11-10T15:26:43.0000000+00:00</time></trkpt><trkpt lat="39.44729685" lon="-0.38856885"><ele>17.6</ele><time>2022-11-10T15:26:44.0000000+00:00</time></trkpt><trkpt lat="39.44728151" lon="-0.38851672"><ele>17.6</ele><time>2022-11-10T15:26:45.0000000+00:00</time></trkpt><trkpt lat="39.44726986" lon="-0.38844522"><ele>17.6</ele><time>2022-11-10T15:26:46.0000000+00:00</time></trkpt><trkpt lat="39.44725821" lon="-0.38836517"><ele>17.6</ele><time>2022-11-10T15:26:47.0000000+00:00</time></trkpt><trkpt lat="39.44724698" lon="-0.38828462"><ele>17.6</ele><time>2022-11-10T15:26:48.0000000+00:00</time></trkpt><trkpt lat="39.44723415" lon="-0.38821111"><ele>17.4</ele><time>2022-11-10T15:26:49.0000000+00:00</time></trkpt><trkpt lat="39.44722326" lon="-0.38813978"><ele>17.4</ele><time>2022-11-10T15:26:50.0000000+00:00</time></trkpt><trkpt lat="39.44721135" lon="-0.38807474"><ele>17.2</ele><time>2022-11-10T15:26:51.0000000+00:00</time></trkpt><trkpt lat="39.44719995" lon="-0.3880097"><ele>17.2</ele><time>2022-11-10T15:26:52.0000000+00:00</time></trkpt><trkpt lat="39.44718218" lon="-0.38794465"><ele>17.2</ele><time>2022-11-10T15:26:53.0000000+00:00</time></trkpt><trkpt lat="39.44716316" lon="-0.38786343"><ele>17.2</ele><time>2022-11-10T15:26:54.0000000+00:00</time></trkpt><trkpt lat="39.44714933" lon="-0.38778691"><ele>17.2</ele><time>2022-11-10T15:26:55.0000000+00:00</time></trkpt><trkpt lat="39.44713701" lon="-0.38771776"><ele>17.2</ele><time>2022-11-10T15:26:56.0000000+00:00</time></trkpt><trkpt lat="39.44712552" lon="-0.3876476"><ele>17.0</ele><time>2022-11-10T15:26:57.0000000+00:00</time></trkpt><trkpt lat="39.44711781" lon="-0.3875937"><ele>17.0</ele><time>2022-11-10T15:26:58.0000000+00:00</time></trkpt><trkpt lat="39.44710968" lon="-0.38751433"><ele>17.0</ele><time>2022-11-10T15:26:59.0000000+00:00</time></trkpt><trkpt lat="39.44709325" lon="-0.38745339"><ele>17.0</ele><time>2022-11-10T15:27:00.0000000+00:00</time></trkpt><trkpt lat="39.44707733" lon="-0.38738851"><ele>16.8</ele><time>2022-11-10T15:27:01.0000000+00:00</time></trkpt><trkpt lat="39.44706869" lon="-0.38731752"><ele>16.8</ele><time>2022-11-10T15:27:02.0000000+00:00</time></trkpt><trkpt lat="39.4470588" lon="-0.38724636"><ele>16.8</ele><time>2022-11-10T15:27:03.0000000+00:00</time></trkpt><trkpt lat="39.44704908" lon="-0.38717805"><ele>17.0</ele><time>2022-11-10T15:27:04.0000000+00:00</time></trkpt><trkpt lat="39.44704087" lon="-0.38710303"><ele>17.0</ele><time>2022-11-10T15:27:05.0000000+00:00</time></trkpt><trkpt lat="39.44704916" lon="-0.3870286"><ele>17.0</ele><time>2022-11-10T15:27:06.0000000+00:00</time></trkpt><trkpt lat="39.44705118" lon="-0.38696364"><ele>17.0</ele><time>2022-11-10T15:27:07.0000000+00:00</time></trkpt><trkpt lat="39.44705067" lon="-0.38690396"><ele>16.8</ele><time>2022-11-10T15:27:08.0000000+00:00</time></trkpt><trkpt lat="39.4470438" lon="-0.38683883"><ele>16.8</ele><time>2022-11-10T15:27:09.0000000+00:00</time></trkpt><trkpt lat="39.44703584" lon="-0.38677597"><ele>16.8</ele><time>2022-11-10T15:27:10.0000000+00:00</time></trkpt><trkpt lat="39.44701807" lon="-0.38670321"><ele>16.8</ele><time>2022-11-10T15:27:11.0000000+00:00</time></trkpt><trkpt lat="39.44699745" lon="-0.38665409"><ele>16.6</ele><time>2022-11-10T15:27:12.0000000+00:00</time></trkpt><trkpt lat="39.44697792" lon="-0.38662266"><ele>16.4</ele><time>2022-11-10T15:27:13.0000000+00:00</time></trkpt><trkpt lat="39.44695621" lon="-0.38658989"><ele>16.2</ele><time>2022-11-10T15:27:14.0000000+00:00</time></trkpt><trkpt lat="39.44693928" lon="-0.38655024"><ele>16.2</ele><time>2022-11-10T15:27:15.0000000+00:00</time></trkpt><trkpt lat="39.44692779" lon="-0.38650691"><ele>16.2</ele><time>2022-11-10T15:27:16.0000000+00:00</time></trkpt><trkpt lat="39.44692075" lon="-0.38646852"><ele>16.2</ele><time>2022-11-10T15:27:17.0000000+00:00</time></trkpt><trkpt lat="39.44691455" lon="-0.3864344"><ele>16.2</ele><time>2022-11-10T15:27:18.0000000+00:00</time></trkpt><trkpt lat="39.44690617" lon="-0.38638327"><ele>16.2</ele><time>2022-11-10T15:27:19.0000000+00:00</time></trkpt><trkpt lat="39.44689854" lon="-0.38633709"><ele>16.2</ele><time>2022-11-10T15:27:20.0000000+00:00</time></trkpt><trkpt lat="39.446891" lon="-0.38629225"><ele>16.2</ele><time>2022-11-10T15:27:21.0000000+00:00</time></trkpt><trkpt lat="39.44688278" lon="-0.38624824"><ele>16.2</ele><time>2022-11-10T15:27:22.0000000+00:00</time></trkpt><trkpt lat="39.4468708" lon="-0.38620834"><ele>16.2</ele><time>2022-11-10T15:27:23.0000000+00:00</time></trkpt><trkpt lat="39.44686124" lon="-0.38617155"><ele>16.2</ele><time>2022-11-10T15:27:24.0000000+00:00</time></trkpt><trkpt lat="39.44685328" lon="-0.38613978"><ele>16.2</ele><time>2022-11-10T15:27:25.0000000+00:00</time></trkpt><trkpt lat="39.44684733" lon="-0.38610994"><ele>16.2</ele><time>2022-11-10T15:27:26.0000000+00:00</time></trkpt><trkpt lat="39.44683953" lon="-0.38608261"><ele>16.2</ele><time>2022-11-10T15:27:27.0000000+00:00</time></trkpt><trkpt lat="39.44683065" lon="-0.38606568"><ele>16.4</ele><time>2022-11-10T15:27:28.0000000+00:00</time></trkpt><trkpt lat="39.44682671" lon="-0.38606191"><ele>16.4</ele><time>2022-11-10T15:27:29.0000000+00:00</time></trkpt><trkpt lat="39.44682671" lon="-0.38606191"><ele>16.4</ele><time>2022-11-10T15:27:30.0000000+00:00</time></trkpt><trkpt lat="39.44682671" lon="-0.38606191"><ele>16.4</ele><time>2022-11-10T15:27:31.0000000+00:00</time></trkpt><trkpt lat="39.44682671" lon="-0.38606191"><ele>16.0</ele><time>2022-11-10T15:27:32.0000000+00:00</time></trkpt><trkpt lat="39.44682671" lon="-0.38606191"><ele>16.0</ele><time>2022-11-10T15:27:33.0000000+00:00</time></trkpt><trkpt lat="39.44682671" lon="-0.38606191"><ele>16.0</ele><time>2022-11-10T15:27:34.0000000+00:00</time></trkpt><trkpt lat="39.44682671" lon="-0.38606191"><ele>16.0</ele><time>2022-11-10T15:27:35.0000000+00:00</time></trkpt><trkpt lat="39.44682671" lon="-0.38606191"><ele>16.0</ele><time>2022-11-10T15:27:36.0000000+00:00</time></trkpt><trkpt lat="39.44682671" lon="-0.38606191"><ele>16.0</ele><time>2022-11-10T15:27:37.0000000+00:00</time></trkpt><trkpt lat="39.44682671" lon="-0.38606191"><ele>16.0</ele><time>2022-11-10T15:27:38.0000000+00:00</time></trkpt><trkpt lat="39.44682671" lon="-0.38606191"><ele>16.0</ele><time>2022-11-10T15:27:39.0000000+00:00</time></trkpt><trkpt lat="39.44682671" lon="-0.38606191"><ele>16.0</ele><time>2022-11-10T15:27:40.0000000+00:00</time></trkpt><trkpt lat="39.44682671" lon="-0.38606191"><ele>16.0</ele><time>2022-11-10T15:27:41.0000000+00:00</time></trkpt><trkpt lat="39.44682671" lon="-0.38606191"><ele>16.0</ele><time>2022-11-10T15:27:42.0000000+00:00</time></trkpt><trkpt lat="39.44682671" lon="-0.38606191"><ele>16.0</ele><time>2022-11-10T15:27:43.0000000+00:00</time></trkpt><trkpt lat="39.44682671" lon="-0.38606191"><ele>16.0</ele><time>2022-11-10T15:27:44.0000000+00:00</time></trkpt><trkpt lat="39.44682671" lon="-0.38606191"><ele>16.0</ele><time>2022-11-10T15:27:45.0000000+00:00</time></trkpt><trkpt lat="39.44682671" lon="-0.38606191"><ele>16.0</ele><time>2022-11-10T15:27:46.0000000+00:00</time></trkpt><trkpt lat="39.44682671" lon="-0.38606191"><ele>16.0</ele><time>2022-11-10T15:27:47.0000000+00:00</time></trkpt><trkpt lat="39.44682671" lon="-0.38606191"><ele>16.0</ele><time>2022-11-10T15:27:48.0000000+00:00</time></trkpt><trkpt lat="39.44682671" lon="-0.38606191"><ele>16.0</ele><time>2022-11-10T15:27:49.0000000+00:00</time></trkpt><trkpt lat="39.44682671" lon="-0.38606191"><ele>16.0</ele><time>2022-11-10T15:27:50.0000000+00:00</time></trkpt><trkpt lat="39.44682671" lon="-0.38606191"><ele>16.0</ele><time>2022-11-10T15:27:51.0000000+00:00</time></trkpt><trkpt lat="39.44682671" lon="-0.38606191"><ele>16.0</ele><time>2022-11-10T15:27:52.0000000+00:00</time></trkpt><trkpt lat="39.44682671" lon="-0.38606191"><ele>16.0</ele><time>2022-11-10T15:27:53.0000000+00:00</time></trkpt><trkpt lat="39.44682671" lon="-0.38606191"><ele>16.0</ele><time>2022-11-10T15:27:54.0000000+00:00</time></trkpt><trkpt lat="39.44682671" lon="-0.38606191"><ele>16.0</ele><time>2022-11-10T15:27:55.0000000+00:00</time></trkpt><trkpt lat="39.44682671" lon="-0.38606191"><ele>16.0</ele><time>2022-11-10T15:27:56.0000000+00:00</time></trkpt><trkpt lat="39.44682671" lon="-0.38606191"><ele>16.0</ele><time>2022-11-10T15:27:57.0000000+00:00</time></trkpt><trkpt lat="39.44682671" lon="-0.38606191"><ele>16.0</ele><time>2022-11-10T15:27:58.0000000+00:00</time></trkpt><trkpt lat="39.44682671" lon="-0.38606191"><ele>16.0</ele><time>2022-11-10T15:27:59.0000000+00:00</time></trkpt><trkpt lat="39.44682671" lon="-0.38606191"><ele>16.0</ele><time>2022-11-10T15:28:00.0000000+00:00</time></trkpt><trkpt lat="39.44682671" lon="-0.38606191"><ele>16.0</ele><time>2022-11-10T15:28:01.0000000+00:00</time></trkpt><trkpt lat="39.44682671" lon="-0.38606191"><ele>16.0</ele><time>2022-11-10T15:28:02.0000000+00:00</time></trkpt><trkpt lat="39.44682671" lon="-0.38606191"><ele>16.0</ele><time>2022-11-10T15:28:03.0000000+00:00</time></trkpt><trkpt lat="39.44682671" lon="-0.38606191"><ele>16.0</ele><time>2022-11-10T15:28:04.0000000+00:00</time></trkpt><trkpt lat="39.44682671" lon="-0.38606191"><ele>16.0</ele><time>2022-11-10T15:28:05.0000000+00:00</time></trkpt><trkpt lat="39.44682671" lon="-0.38606191"><ele>16.0</ele><time>2022-11-10T15:28:06.0000000+00:00</time></trkpt><trkpt lat="39.44682671" lon="-0.38606191"><ele>16.0</ele><time>2022-11-10T15:28:07.0000000+00:00</time></trkpt><trkpt lat="39.44682671" lon="-0.38606191"><ele>16.0</ele><time>2022-11-10T15:28:08.0000000+00:00</time></trkpt><trkpt lat="39.44682671" lon="-0.38606191"><ele>16.0</ele><time>2022-11-10T15:28:09.0000000+00:00</time></trkpt><trkpt lat="39.44682671" lon="-0.38606191"><ele>16.0</ele><time>2022-11-10T15:28:10.0000000+00:00</time></trkpt><trkpt lat="39.44682562" lon="-0.38606325"><ele>16.0</ele><time>2022-11-10T15:28:11.0000000+00:00</time></trkpt><trkpt lat="39.44682679" lon="-0.38606686"><ele>16.0</ele><time>2022-11-10T15:28:12.0000000+00:00</time></trkpt><trkpt lat="39.44682679" lon="-0.38606686"><ele>16.0</ele><time>2022-11-10T15:28:13.0000000+00:00</time></trkpt><trkpt lat="39.44682679" lon="-0.38606686"><ele>16.0</ele><time>2022-11-10T15:28:14.0000000+00:00</time></trkpt><trkpt lat="39.44682679" lon="-0.38606686"><ele>16.0</ele><time>2022-11-10T15:28:15.0000000+00:00</time></trkpt><trkpt lat="39.44682679" lon="-0.38606686"><ele>16.0</ele><time>2022-11-10T15:28:16.0000000+00:00</time></trkpt><trkpt lat="39.44682679" lon="-0.38606686"><ele>16.0</ele><time>2022-11-10T15:28:17.0000000+00:00</time></trkpt><trkpt lat="39.44682679" lon="-0.38606686"><ele>16.0</ele><time>2022-11-10T15:28:18.0000000+00:00</time></trkpt><trkpt lat="39.44682679" lon="-0.38606686"><ele>16.0</ele><time>2022-11-10T15:28:19.0000000+00:00</time></trkpt><trkpt lat="39.44682679" lon="-0.38606686"><ele>16.0</ele><time>2022-11-10T15:28:20.0000000+00:00</time></trkpt><trkpt lat="39.44682679" lon="-0.38606686"><ele>16.0</ele><time>2022-11-10T15:28:21.0000000+00:00</time></trkpt><trkpt lat="39.44682679" lon="-0.38606686"><ele>16.0</ele><time>2022-11-10T15:28:22.0000000+00:00</time></trkpt><trkpt lat="39.44682679" lon="-0.38606686"><ele>16.0</ele><time>2022-11-10T15:28:23.0000000+00:00</time></trkpt><trkpt lat="39.44682679" lon="-0.38606686"><ele>16.0</ele><time>2022-11-10T15:28:24.0000000+00:00</time></trkpt><trkpt lat="39.44682679" lon="-0.38606686"><ele>16.0</ele><time>2022-11-10T15:28:25.0000000+00:00</time></trkpt><trkpt lat="39.44682679" lon="-0.38606686"><ele>16.0</ele><time>2022-11-10T15:28:26.0000000+00:00</time></trkpt><trkpt lat="39.44682679" lon="-0.38606686"><ele>16.0</ele><time>2022-11-10T15:28:27.0000000+00:00</time></trkpt><trkpt lat="39.44682679" lon="-0.38606686"><ele>16.0</ele><time>2022-11-10T15:28:28.0000000+00:00</time></trkpt><trkpt lat="39.44682679" lon="-0.38606686"><ele>16.0</ele><time>2022-11-10T15:28:29.0000000+00:00</time></trkpt><trkpt lat="39.44682679" lon="-0.38606686"><ele>16.0</ele><time>2022-11-10T15:28:30.0000000+00:00</time></trkpt><trkpt lat="39.44682679" lon="-0.38606686"><ele>16.0</ele><time>2022-11-10T15:28:31.0000000+00:00</time></trkpt><trkpt lat="39.44682679" lon="-0.38606686"><ele>16.0</ele><time>2022-11-10T15:28:32.0000000+00:00</time></trkpt><trkpt lat="39.44682679" lon="-0.38606686"><ele>16.0</ele><time>2022-11-10T15:28:33.0000000+00:00</time></trkpt><trkpt lat="39.44682679" lon="-0.38606686"><ele>16.0</ele><time>2022-11-10T15:28:34.0000000+00:00</time></trkpt><trkpt lat="39.44682679" lon="-0.38606686"><ele>16.0</ele><time>2022-11-10T15:28:35.0000000+00:00</time></trkpt><trkpt lat="39.44682679" lon="-0.38606686"><ele>16.0</ele><time>2022-11-10T15:28:36.0000000+00:00</time></trkpt><trkpt lat="39.44682679" lon="-0.38606686"><ele>16.0</ele><time>2022-11-10T15:28:37.0000000+00:00</time></trkpt><trkpt lat="39.44682679" lon="-0.38606686"><ele>16.0</ele><time>2022-11-10T15:28:38.0000000+00:00</time></trkpt><trkpt lat="39.44682528" lon="-0.38606493"><ele>16.0</ele><time>2022-11-10T15:28:39.0000000+00:00</time></trkpt><trkpt lat="39.44682302" lon="-0.38606267"><ele>16.0</ele><time>2022-11-10T15:28:40.0000000+00:00</time></trkpt><trkpt lat="39.44682302" lon="-0.38606267"><ele>16.0</ele><time>2022-11-10T15:28:41.0000000+00:00</time></trkpt><trkpt lat="39.44682302" lon="-0.38606267"><ele>16.0</ele><time>2022-11-10T15:28:42.0000000+00:00</time></trkpt><trkpt lat="39.44682302" lon="-0.38606267"><ele>16.0</ele><time>2022-11-10T15:28:43.0000000+00:00</time></trkpt><trkpt lat="39.44682302" lon="-0.38606267"><ele>16.0</ele><time>2022-11-10T15:28:44.0000000+00:00</time></trkpt><trkpt lat="39.44682302" lon="-0.38606267"><ele>16.0</ele><time>2022-11-10T15:28:45.0000000+00:00</time></trkpt><trkpt lat="39.44682302" lon="-0.38606267"><ele>16.0</ele><time>2022-11-10T15:28:46.0000000+00:00</time></trkpt><trkpt lat="39.44682302" lon="-0.38606267"><ele>16.0</ele><time>2022-11-10T15:28:47.0000000+00:00</time></trkpt><trkpt lat="39.44682201" lon="-0.38606258"><ele>16.0</ele><time>2022-11-10T15:28:48.0000000+00:00</time></trkpt><trkpt lat="39.44681707" lon="-0.38604925"><ele>16.0</ele><time>2022-11-10T15:28:49.0000000+00:00</time></trkpt><trkpt lat="39.44681296" lon="-0.38602629"><ele>16.0</ele><time>2022-11-10T15:28:50.0000000+00:00</time></trkpt><trkpt lat="39.44680525" lon="-0.38599519"><ele>16.0</ele><time>2022-11-10T15:28:51.0000000+00:00</time></trkpt><trkpt lat="39.44679645" lon="-0.38595789"><ele>16.0</ele><time>2022-11-10T15:28:52.0000000+00:00</time></trkpt><trkpt lat="39.44679058" lon="-0.38591649"><ele>16.0</ele><time>2022-11-10T15:28:53.0000000+00:00</time></trkpt><trkpt lat="39.4467848" lon="-0.38587432"><ele>16.0</ele><time>2022-11-10T15:28:54.0000000+00:00</time></trkpt><trkpt lat="39.44677927" lon="-0.38583334"><ele>15.8</ele><time>2022-11-10T15:28:55.0000000+00:00</time></trkpt><trkpt lat="39.44677223" lon="-0.38579436"><ele>15.8</ele><time>2022-11-10T15:28:56.0000000+00:00</time></trkpt><trkpt lat="39.44676602" lon="-0.38575849"><ele>15.8</ele><time>2022-11-10T15:28:57.0000000+00:00</time></trkpt><trkpt lat="39.44675655" lon="-0.38572722"><ele>16.0</ele><time>2022-11-10T15:28:58.0000000+00:00</time></trkpt><trkpt lat="39.446747" lon="-0.38569663"><ele>16.0</ele><time>2022-11-10T15:28:59.0000000+00:00</time></trkpt><trkpt lat="39.44673878" lon="-0.38566419"><ele>16.2</ele><time>2022-11-10T15:29:00.0000000+00:00</time></trkpt><trkpt lat="39.4467299" lon="-0.38562949"><ele>16.2</ele><time>2022-11-10T15:29:01.0000000+00:00</time></trkpt><trkpt lat="39.44671808" lon="-0.38559638"><ele>16.4</ele><time>2022-11-10T15:29:02.0000000+00:00</time></trkpt><trkpt lat="39.44670081" lon="-0.38556268"><ele>16.6</ele><time>2022-11-10T15:29:03.0000000+00:00</time></trkpt><trkpt lat="39.44668623" lon="-0.38552706"><ele>16.8</ele><time>2022-11-10T15:29:04.0000000+00:00</time></trkpt><trkpt lat="39.44667625" lon="-0.38549244"><ele>17.0</ele><time>2022-11-10T15:29:05.0000000+00:00</time></trkpt><trkpt lat="39.4466698" lon="-0.38546001"><ele>17.0</ele><time>2022-11-10T15:29:06.0000000+00:00</time></trkpt><trkpt lat="39.44666385" lon="-0.38542857"><ele>17.0</ele><time>2022-11-10T15:29:07.0000000+00:00</time></trkpt><trkpt lat="39.44666435" lon="-0.38539639"><ele>17.2</ele><time>2022-11-10T15:29:08.0000000+00:00</time></trkpt><trkpt lat="39.44665597" lon="-0.38536646"><ele>17.2</ele><time>2022-11-10T15:29:09.0000000+00:00</time></trkpt><trkpt lat="39.44664407" lon="-0.38533688"><ele>17.2</ele><time>2022-11-10T15:29:10.0000000+00:00</time></trkpt><trkpt lat="39.44663686" lon="-0.38530662"><ele>17.4</ele><time>2022-11-10T15:29:11.0000000+00:00</time></trkpt><trkpt lat="39.4466351" lon="-0.3852777"><ele>17.6</ele><time>2022-11-10T15:29:12.0000000+00:00</time></trkpt><trkpt lat="39.44662957" lon="-0.38524744"><ele>17.8</ele><time>2022-11-10T15:29:13.0000000+00:00</time></trkpt><trkpt lat="39.44662169" lon="-0.38521593"><ele>18.0</ele><time>2022-11-10T15:29:14.0000000+00:00</time></trkpt><trkpt lat="39.44661624" lon="-0.38518525"><ele>18.2</ele><time>2022-11-10T15:29:15.0000000+00:00</time></trkpt><trkpt lat="39.44661104" lon="-0.38514753"><ele>18.4</ele><time>2022-11-10T15:29:16.0000000+00:00</time></trkpt><trkpt lat="39.44660526" lon="-0.38511291"><ele>18.6</ele><time>2022-11-10T15:29:17.0000000+00:00</time></trkpt><trkpt lat="39.44660015" lon="-0.38508542"><ele>18.6</ele><time>2022-11-10T15:29:18.0000000+00:00</time></trkpt><trkpt lat="39.44658875" lon="-0.38504946"><ele>18.8</ele><time>2022-11-10T15:29:19.0000000+00:00</time></trkpt><trkpt lat="39.44657827" lon="-0.38501577"><ele>19.0</ele><time>2022-11-10T15:29:20.0000000+00:00</time></trkpt><trkpt lat="39.44657089" lon="-0.38498559"><ele>19.2</ele><time>2022-11-10T15:29:21.0000000+00:00</time></trkpt><trkpt lat="39.4465672" lon="-0.38495433"><ele>19.4</ele><time>2022-11-10T15:29:22.0000000+00:00</time></trkpt><trkpt lat="39.44656813" lon="-0.38492742"><ele>19.6</ele><time>2022-11-10T15:29:23.0000000+00:00</time></trkpt><trkpt lat="39.44656779" lon="-0.38489716"><ele>19.8</ele><time>2022-11-10T15:29:24.0000000+00:00</time></trkpt><trkpt lat="39.44656083" lon="-0.38486565"><ele>20.0</ele><time>2022-11-10T15:29:25.0000000+00:00</time></trkpt><trkpt lat="39.44655069" lon="-0.38483631"><ele>20.0</ele><time>2022-11-10T15:29:26.0000000+00:00</time></trkpt><trkpt lat="39.44654256" lon="-0.38480957"><ele>20.2</ele><time>2022-11-10T15:29:27.0000000+00:00</time></trkpt><trkpt lat="39.44653309" lon="-0.38477336"><ele>20.2</ele><time>2022-11-10T15:29:28.0000000+00:00</time></trkpt><trkpt lat="39.44652286" lon="-0.38473698"><ele>20.4</ele><time>2022-11-10T15:29:29.0000000+00:00</time></trkpt><trkpt lat="39.4465144" lon="-0.38470262"><ele>20.4</ele><time>2022-11-10T15:29:30.0000000+00:00</time></trkpt><trkpt lat="39.44650585" lon="-0.38466926"><ele>20.8</ele><time>2022-11-10T15:29:31.0000000+00:00</time></trkpt><trkpt lat="39.44649613" lon="-0.3846359"><ele>20.8</ele><time>2022-11-10T15:29:32.0000000+00:00</time></trkpt><trkpt lat="39.44648892" lon="-0.38460195"><ele>21.0</ele><time>2022-11-10T15:29:33.0000000+00:00</time></trkpt><trkpt lat="39.44648464" lon="-0.38456851"><ele>21.0</ele><time>2022-11-10T15:29:34.0000000+00:00</time></trkpt><trkpt lat="39.44647819" lon="-0.38453339"><ele>21.2</ele><time>2022-11-10T15:29:35.0000000+00:00</time></trkpt><trkpt lat="39.44647081" lon="-0.38449978"><ele>21.2</ele><time>2022-11-10T15:29:36.0000000+00:00</time></trkpt><trkpt lat="39.44646427" lon="-0.38446818"><ele>21.4</ele><time>2022-11-10T15:29:37.0000000+00:00</time></trkpt><trkpt lat="39.44645698" lon="-0.38443767"><ele>21.8</ele><time>2022-11-10T15:29:38.0000000+00:00</time></trkpt><trkpt lat="39.44644994" lon="-0.38440699"><ele>22.2</ele><time>2022-11-10T15:29:39.0000000+00:00</time></trkpt><trkpt lat="39.44644458" lon="-0.38437757"><ele>22.4</ele><time>2022-11-10T15:29:40.0000000+00:00</time></trkpt><trkpt lat="39.44644139" lon="-0.38434999"><ele>22.6</ele><time>2022-11-10T15:29:41.0000000+00:00</time></trkpt><trkpt lat="39.44643536" lon="-0.38432443"><ele>22.6</ele><time>2022-11-10T15:29:42.0000000+00:00</time></trkpt><trkpt lat="39.44642966" lon="-0.38429383"><ele>22.8</ele><time>2022-11-10T15:29:43.0000000+00:00</time></trkpt><trkpt lat="39.4464222" lon="-0.38426131"><ele>22.8</ele><time>2022-11-10T15:29:44.0000000+00:00</time></trkpt><trkpt lat="39.44641474" lon="-0.3842277"><ele>22.8</ele><time>2022-11-10T15:29:45.0000000+00:00</time></trkpt><trkpt lat="39.44640594" lon="-0.38419199"><ele>23.0</ele><time>2022-11-10T15:29:46.0000000+00:00</time></trkpt><trkpt lat="39.44639772" lon="-0.38415754"><ele>23.0</ele><time>2022-11-10T15:29:47.0000000+00:00</time></trkpt><trkpt lat="39.44638951" lon="-0.38412368"><ele>23.0</ele><time>2022-11-10T15:29:48.0000000+00:00</time></trkpt><trkpt lat="39.44638079" lon="-0.38408931"><ele>23.2</ele><time>2022-11-10T15:29:49.0000000+00:00</time></trkpt><trkpt lat="39.44637157" lon="-0.38405587"><ele>23.4</ele><time>2022-11-10T15:29:50.0000000+00:00</time></trkpt><trkpt lat="39.44636403" lon="-0.38401933"><ele>23.6</ele><time>2022-11-10T15:29:51.0000000+00:00</time></trkpt><trkpt lat="39.44635439" lon="-0.38398328"><ele>23.6</ele><time>2022-11-10T15:29:52.0000000+00:00</time></trkpt><trkpt lat="39.44634517" lon="-0.38394464"><ele>23.8</ele><time>2022-11-10T15:29:53.0000000+00:00</time></trkpt><trkpt lat="39.44633804" lon="-0.38390835"><ele>24.0</ele><time>2022-11-10T15:29:54.0000000+00:00</time></trkpt><trkpt lat="39.44633016" lon="-0.38387038"><ele>24.0</ele><time>2022-11-10T15:29:55.0000000+00:00</time></trkpt><trkpt lat="39.44632354" lon="-0.38382805"><ele>24.2</ele><time>2022-11-10T15:29:56.0000000+00:00</time></trkpt><trkpt lat="39.44631466" lon="-0.38378388"><ele>24.2</ele><time>2022-11-10T15:29:57.0000000+00:00</time></trkpt><trkpt lat="39.44630242" lon="-0.38373937"><ele>24.4</ele><time>2022-11-10T15:29:58.0000000+00:00</time></trkpt><trkpt lat="39.44628976" lon="-0.38369595"><ele>24.4</ele><time>2022-11-10T15:29:59.0000000+00:00</time></trkpt><trkpt lat="39.44627996" lon="-0.38365153"><ele>24.4</ele><time>2022-11-10T15:30:00.0000000+00:00</time></trkpt><trkpt lat="39.44627107" lon="-0.38360568"><ele>24.4</ele><time>2022-11-10T15:30:01.0000000+00:00</time></trkpt><trkpt lat="39.44626252" lon="-0.38356134"><ele>24.6</ele><time>2022-11-10T15:30:02.0000000+00:00</time></trkpt><trkpt lat="39.44625389" lon="-0.3835206"><ele>24.6</ele><time>2022-11-10T15:30:03.0000000+00:00</time></trkpt><trkpt lat="39.44624635" lon="-0.38347886"><ele>24.6</ele><time>2022-11-10T15:30:04.0000000+00:00</time></trkpt><trkpt lat="39.44624065" lon="-0.38343318"><ele>24.6</ele><time>2022-11-10T15:30:05.0000000+00:00</time></trkpt><trkpt lat="39.44623293" lon="-0.38338666"><ele>24.6</ele><time>2022-11-10T15:30:06.0000000+00:00</time></trkpt><trkpt lat="39.44623293" lon="-0.38338666"><ele>24.6</ele><time>2022-11-10T15:30:07.0000000+00:00</time></trkpt><trkpt lat="39.44621248" lon="-0.38327862"><ele>24.6</ele><time>2022-11-10T15:30:08.0000000+00:00</time></trkpt><trkpt lat="39.44620519" lon="-0.38321776"><ele>24.6</ele><time>2022-11-10T15:30:09.0000000+00:00</time></trkpt><trkpt lat="39.44619798" lon="-0.38315607"><ele>24.6</ele><time>2022-11-10T15:30:10.0000000+00:00</time></trkpt><trkpt lat="39.44619044" lon="-0.38309212"><ele>24.6</ele><time>2022-11-10T15:30:11.0000000+00:00</time></trkpt><trkpt lat="39.44618323" lon="-0.38302548"><ele>24.4</ele><time>2022-11-10T15:30:12.0000000+00:00</time></trkpt><trkpt lat="39.44617619" lon="-0.38295633"><ele>24.2</ele><time>2022-11-10T15:30:13.0000000+00:00</time></trkpt><trkpt lat="39.44616647" lon="-0.38288148"><ele>24.0</ele><time>2022-11-10T15:30:14.0000000+00:00</time></trkpt><trkpt lat="39.44615708" lon="-0.38280043"><ele>23.6</ele><time>2022-11-10T15:30:15.0000000+00:00</time></trkpt><trkpt lat="39.4461502" lon="-0.38271611"><ele>23.6</ele><time>2022-11-10T15:30:16.0000000+00:00</time></trkpt><trkpt lat="39.44614576" lon="-0.38263019"><ele>23.2</ele><time>2022-11-10T15:30:17.0000000+00:00</time></trkpt><trkpt lat="39.44613939" lon="-0.38254394"><ele>22.8</ele><time>2022-11-10T15:30:18.0000000+00:00</time></trkpt><trkpt lat="39.44613361" lon="-0.38244973"><ele>22.0</ele><time>2022-11-10T15:30:19.0000000+00:00</time></trkpt><trkpt lat="39.44612707" lon="-0.38235124"><ele>21.8</ele><time>2022-11-10T15:30:20.0000000+00:00</time></trkpt><trkpt lat="39.44612045" lon="-0.38225024"><ele>21.2</ele><time>2022-11-10T15:30:21.0000000+00:00</time></trkpt><trkpt lat="39.44610997" lon="-0.38214538"><ele>21.0</ele><time>2022-11-10T15:30:22.0000000+00:00</time></trkpt><trkpt lat="39.44609673" lon="-0.38203592"><ele>20.6</ele><time>2022-11-10T15:30:23.0000000+00:00</time></trkpt><trkpt lat="39.44608131" lon="-0.38192553"><ele>20.4</ele><time>2022-11-10T15:30:24.0000000+00:00</time></trkpt><trkpt lat="39.44606437" lon="-0.38181069"><ele>20.0</ele><time>2022-11-10T15:30:25.0000000+00:00</time></trkpt><trkpt lat="39.44604811" lon="-0.38169192"><ele>20.0</ele><time>2022-11-10T15:30:26.0000000+00:00</time></trkpt><trkpt lat="39.44603747" lon="-0.38157751"><ele>19.2</ele><time>2022-11-10T15:30:27.0000000+00:00</time></trkpt><trkpt lat="39.44602758" lon="-0.38146813"><ele>18.8</ele><time>2022-11-10T15:30:28.0000000+00:00</time></trkpt><trkpt lat="39.44601735" lon="-0.38136084"><ele>18.4</ele><time>2022-11-10T15:30:29.0000000+00:00</time></trkpt><trkpt lat="39.44601576" lon="-0.38125782"><ele>18.2</ele><time>2022-11-10T15:30:30.0000000+00:00</time></trkpt><trkpt lat="39.4460254" lon="-0.38115615"><ele>18.2</ele><time>2022-11-10T15:30:31.0000000+00:00</time></trkpt><trkpt lat="39.44604727" lon="-0.38105456"><ele>18.0</ele><time>2022-11-10T15:30:32.0000000+00:00</time></trkpt><trkpt lat="39.44606513" lon="-0.38096068"><ele>17.8</ele><time>2022-11-10T15:30:33.0000000+00:00</time></trkpt><trkpt lat="39.44609078" lon="-0.38085943"><ele>17.6</ele><time>2022-11-10T15:30:34.0000000+00:00</time></trkpt><trkpt lat="39.44611156" lon="-0.38079129"><ele>17.6</ele><time>2022-11-10T15:30:35.0000000+00:00</time></trkpt><trkpt lat="39.44612556" lon="-0.38070814"><ele>17.4</ele><time>2022-11-10T15:30:36.0000000+00:00</time></trkpt><trkpt lat="39.44613344" lon="-0.38062633"><ele>17.4</ele><time>2022-11-10T15:30:37.0000000+00:00</time></trkpt><trkpt lat="39.44613788" lon="-0.3805462"><ele>17.2</ele><time>2022-11-10T15:30:38.0000000+00:00</time></trkpt><trkpt lat="39.44613939" lon="-0.380469"><ele>17.2</ele><time>2022-11-10T15:30:39.0000000+00:00</time></trkpt><trkpt lat="39.44613788" lon="-0.38039608"><ele>17.2</ele><time>2022-11-10T15:30:40.0000000+00:00</time></trkpt><trkpt lat="39.44613797" lon="-0.38033045"><ele>17.0</ele><time>2022-11-10T15:30:41.0000000+00:00</time></trkpt><trkpt lat="39.44614048" lon="-0.38027546"><ele>16.8</ele><time>2022-11-10T15:30:42.0000000+00:00</time></trkpt><trkpt lat="39.4461487" lon="-0.38023758"><ele>16.6</ele><time>2022-11-10T15:30:43.0000000+00:00</time></trkpt><trkpt lat="39.44615808" lon="-0.38021696"><ele>16.2</ele><time>2022-11-10T15:30:44.0000000+00:00</time></trkpt><trkpt lat="39.44615817" lon="-0.38021009"><ele>16.0</ele><time>2022-11-10T15:30:45.0000000+00:00</time></trkpt><trkpt lat="39.44615817" lon="-0.38021009"><ele>15.8</ele><time>2022-11-10T15:30:46.0000000+00:00</time></trkpt><trkpt lat="39.44615817" lon="-0.38021009"><ele>15.6</ele><time>2022-11-10T15:30:47.0000000+00:00</time></trkpt><trkpt lat="39.44615817" lon="-0.38021009"><ele>15.6</ele><time>2022-11-10T15:30:48.0000000+00:00</time></trkpt><trkpt lat="39.44615817" lon="-0.38021009"><ele>15.4</ele><time>2022-11-10T15:30:49.0000000+00:00</time></trkpt><trkpt lat="39.44615817" lon="-0.38021009"><ele>15.2</ele><time>2022-11-10T15:30:50.0000000+00:00</time></trkpt><trkpt lat="39.44615817" lon="-0.38021009"><ele>15.2</ele><time>2022-11-10T15:30:51.0000000+00:00</time></trkpt><trkpt lat="39.44615976" lon="-0.38020338"><ele>15.2</ele><time>2022-11-10T15:30:52.0000000+00:00</time></trkpt><trkpt lat="39.44615968" lon="-0.38018905"><ele>15.2</ele><time>2022-11-10T15:30:53.0000000+00:00</time></trkpt><trkpt lat="39.44615423" lon="-0.38016432"><ele>15.0</ele><time>2022-11-10T15:30:54.0000000+00:00</time></trkpt><trkpt lat="39.44613864" lon="-0.38013498"><ele>15.0</ele><time>2022-11-10T15:30:55.0000000+00:00</time></trkpt><trkpt lat="39.44611726" lon="-0.38010221"><ele>15.0</ele><time>2022-11-10T15:30:56.0000000+00:00</time></trkpt><trkpt lat="39.44610075" lon="-0.38006642"><ele>15.0</ele><time>2022-11-10T15:30:57.0000000+00:00</time></trkpt><trkpt lat="39.4460943" lon="-0.38002376"><ele>15.0</ele><time>2022-11-10T15:30:58.0000000+00:00</time></trkpt><trkpt lat="39.44608801" lon="-0.37997916"><ele>15.0</ele><time>2022-11-10T15:30:59.0000000+00:00</time></trkpt><trkpt lat="39.44608223" lon="-0.3799303"><ele>15.2</ele><time>2022-11-10T15:31:00.0000000+00:00</time></trkpt><trkpt lat="39.44607804" lon="-0.37987582"><ele>15.2</ele><time>2022-11-10T15:31:01.0000000+00:00</time></trkpt><trkpt lat="39.44607837" lon="-0.37981412"><ele>15.2</ele><time>2022-11-10T15:31:02.0000000+00:00</time></trkpt><trkpt lat="39.44608533" lon="-0.37974271"><ele>15.2</ele><time>2022-11-10T15:31:03.0000000+00:00</time></trkpt><trkpt lat="39.44608726" lon="-0.37967909"><ele>15.2</ele><time>2022-11-10T15:31:04.0000000+00:00</time></trkpt><trkpt lat="39.44608407" lon="-0.37961933"><ele>15.2</ele><time>2022-11-10T15:31:05.0000000+00:00</time></trkpt><trkpt lat="39.4460855" lon="-0.37955906"><ele>15.2</ele><time>2022-11-10T15:31:06.0000000+00:00</time></trkpt><trkpt lat="39.44608424" lon="-0.37949846"><ele>15.2</ele><time>2022-11-10T15:31:07.0000000+00:00</time></trkpt><trkpt lat="39.44608449" lon="-0.37943727"><ele>15.2</ele><time>2022-11-10T15:31:08.0000000+00:00</time></trkpt><trkpt lat="39.44608835" lon="-0.37937374"><ele>15.2</ele><time>2022-11-10T15:31:09.0000000+00:00</time></trkpt><trkpt lat="39.44608709" lon="-0.37930626"><ele>15.2</ele><time>2022-11-10T15:31:10.0000000+00:00</time></trkpt><trkpt lat="39.4460808" lon="-0.37922571"><ele>15.2</ele><time>2022-11-10T15:31:11.0000000+00:00</time></trkpt><trkpt lat="39.44607292" lon="-0.37916017"><ele>15.2</ele><time>2022-11-10T15:31:12.0000000+00:00</time></trkpt><trkpt lat="39.44606144" lon="-0.37910393"><ele>15.2</ele><time>2022-11-10T15:31:13.0000000+00:00</time></trkpt><trkpt lat="39.44604325" lon="-0.37903394"><ele>15.2</ele><time>2022-11-10T15:31:14.0000000+00:00</time></trkpt><trkpt lat="39.44602607" lon="-0.37896353"><ele>15.2</ele><time>2022-11-10T15:31:15.0000000+00:00</time></trkpt><trkpt lat="39.44601668" lon="-0.37889438"><ele>15.0</ele><time>2022-11-10T15:31:16.0000000+00:00</time></trkpt><trkpt lat="39.44600486" lon="-0.37882389"><ele>15.0</ele><time>2022-11-10T15:31:17.0000000+00:00</time></trkpt><trkpt lat="39.44599388" lon="-0.37875415"><ele>15.0</ele><time>2022-11-10T15:31:18.0000000+00:00</time></trkpt><trkpt lat="39.44598458" lon="-0.37868273"><ele>15.0</ele><time>2022-11-10T15:31:19.0000000+00:00</time></trkpt><trkpt lat="39.44597486" lon="-0.37860529"><ele>15.0</ele><time>2022-11-10T15:31:20.0000000+00:00</time></trkpt><trkpt lat="39.44596865" lon="-0.37851091"><ele>15.0</ele><time>2022-11-10T15:31:21.0000000+00:00</time></trkpt><trkpt lat="39.44596496" lon="-0.37845098"><ele>15.0</ele><time>2022-11-10T15:31:22.0000000+00:00</time></trkpt><trkpt lat="39.4459539" lon="-0.37837688"><ele>15.0</ele><time>2022-11-10T15:31:23.0000000+00:00</time></trkpt><trkpt lat="39.4459363" lon="-0.37829901"><ele>15.0</ele><time>2022-11-10T15:31:24.0000000+00:00</time></trkpt><trkpt lat="39.44592414" lon="-0.37821997"><ele>15.0</ele><time>2022-11-10T15:31:25.0000000+00:00</time></trkpt><trkpt lat="39.44591568" lon="-0.37812869"><ele>15.0</ele><time>2022-11-10T15:31:26.0000000+00:00</time></trkpt><trkpt lat="39.44591258" lon="-0.37805292"><ele>14.8</ele><time>2022-11-10T15:31:27.0000000+00:00</time></trkpt><trkpt lat="39.44591023" lon="-0.37799257"><ele>14.8</ele><time>2022-11-10T15:31:28.0000000+00:00</time></trkpt><trkpt lat="39.44589305" lon="-0.3779282"><ele>14.6</ele><time>2022-11-10T15:31:29.0000000+00:00</time></trkpt><trkpt lat="39.44588173" lon="-0.37785326"><ele>14.6</ele><time>2022-11-10T15:31:30.0000000+00:00</time></trkpt><trkpt lat="39.44587394" lon="-0.37776047"><ele>14.4</ele><time>2022-11-10T15:31:31.0000000+00:00</time></trkpt><trkpt lat="39.44586606" lon="-0.37767615"><ele>14.4</ele><time>2022-11-10T15:31:32.0000000+00:00</time></trkpt><trkpt lat="39.44586061" lon="-0.37759242"><ele>14.4</ele><time>2022-11-10T15:31:33.0000000+00:00</time></trkpt><trkpt lat="39.44585835" lon="-0.37751941"><ele>14.4</ele><time>2022-11-10T15:31:34.0000000+00:00</time></trkpt><trkpt lat="39.44585298" lon="-0.37743928"><ele>14.6</ele><time>2022-11-10T15:31:35.0000000+00:00</time></trkpt><trkpt lat="39.4458508" lon="-0.37735337"><ele>14.6</ele><time>2022-11-10T15:31:36.0000000+00:00</time></trkpt><trkpt lat="39.44584904" lon="-0.3772589"><ele>14.6</ele><time>2022-11-10T15:31:37.0000000+00:00</time></trkpt><trkpt lat="39.44584343" lon="-0.37717056"><ele>14.6</ele><time>2022-11-10T15:31:38.0000000+00:00</time></trkpt><trkpt lat="39.44583748" lon="-0.3770828"><ele>14.6</ele><time>2022-11-10T15:31:39.0000000+00:00</time></trkpt><trkpt lat="39.44582624" lon="-0.37698188"><ele>14.4</ele><time>2022-11-10T15:31:40.0000000+00:00</time></trkpt><trkpt lat="39.44581962" lon="-0.37691373"><ele>14.4</ele><time>2022-11-10T15:31:41.0000000+00:00</time></trkpt><trkpt lat="39.44580948" lon="-0.37680955"><ele>14.4</ele><time>2022-11-10T15:31:42.0000000+00:00</time></trkpt><trkpt lat="39.44580479" lon="-0.37673922"><ele>14.4</ele><time>2022-11-10T15:31:43.0000000+00:00</time></trkpt><trkpt lat="39.44579632" lon="-0.37665549"><ele>14.2</ele><time>2022-11-10T15:31:44.0000000+00:00</time></trkpt><trkpt lat="39.44579297" lon="-0.37656748"><ele>14.2</ele><time>2022-11-10T15:31:45.0000000+00:00</time></trkpt><trkpt lat="39.4457907" lon="-0.37647016"><ele>14.0</ele><time>2022-11-10T15:31:46.0000000+00:00</time></trkpt><trkpt lat="39.44579473" lon="-0.37635944"><ele>14.0</ele><time>2022-11-10T15:31:47.0000000+00:00</time></trkpt><trkpt lat="39.44580118" lon="-0.37629004"><ele>14.0</ele><time>2022-11-10T15:31:48.0000000+00:00</time></trkpt><trkpt lat="39.44580353" lon="-0.37620957"><ele>14.0</ele><time>2022-11-10T15:31:49.0000000+00:00</time></trkpt><trkpt lat="39.44579875" lon="-0.37611687"><ele>14.0</ele><time>2022-11-10T15:31:50.0000000+00:00</time></trkpt><trkpt lat="39.44580068" lon="-0.3760338"><ele>14.0</ele><time>2022-11-10T15:31:51.0000000+00:00</time></trkpt><trkpt lat="39.44579355" lon="-0.37597052"><ele>14.0</ele><time>2022-11-10T15:31:52.0000000+00:00</time></trkpt><trkpt lat="39.44578266" lon="-0.37589366"><ele>14.0</ele><time>2022-11-10T15:31:53.0000000+00:00</time></trkpt><trkpt lat="39.44575173" lon="-0.37578754"><ele>13.8</ele><time>2022-11-10T15:31:54.0000000+00:00</time></trkpt><trkpt lat="39.44573991" lon="-0.37568201"><ele>13.6</ele><time>2022-11-10T15:31:55.0000000+00:00</time></trkpt><trkpt lat="39.44573907" lon="-0.37558889"><ele>13.4</ele><time>2022-11-10T15:31:56.0000000+00:00</time></trkpt><trkpt lat="39.44572784" lon="-0.37552209"><ele>13.4</ele><time>2022-11-10T15:31:57.0000000+00:00</time></trkpt><trkpt lat="39.44572273" lon="-0.37543441"><ele>13.2</ele><time>2022-11-10T15:31:58.0000000+00:00</time></trkpt><trkpt lat="39.44571502" lon="-0.37534514"><ele>13.2</ele><time>2022-11-10T15:31:59.0000000+00:00</time></trkpt><trkpt lat="39.44570286" lon="-0.37525496"><ele>13.2</ele><time>2022-11-10T15:32:00.0000000+00:00</time></trkpt><trkpt lat="39.4456918" lon="-0.37517063"><ele>13.2</ele><time>2022-11-10T15:32:01.0000000+00:00</time></trkpt><trkpt lat="39.44568249" lon="-0.37509034"><ele>13.2</ele><time>2022-11-10T15:32:02.0000000+00:00</time></trkpt><trkpt lat="39.44567512" lon="-0.37500668"><ele>13.2</ele><time>2022-11-10T15:32:03.0000000+00:00</time></trkpt><trkpt lat="39.44566959" lon="-0.37492236"><ele>13.4</ele><time>2022-11-10T15:32:04.0000000+00:00</time></trkpt><trkpt lat="39.44566137" lon="-0.37482664"><ele>13.4</ele><time>2022-11-10T15:32:05.0000000+00:00</time></trkpt><trkpt lat="39.44565517" lon="-0.37476503"><ele>13.4</ele><time>2022-11-10T15:32:06.0000000+00:00</time></trkpt><trkpt lat="39.4456493" lon="-0.37468893"><ele>13.4</ele><time>2022-11-10T15:32:07.0000000+00:00</time></trkpt><trkpt lat="39.44564469" lon="-0.37460594"><ele>13.4</ele><time>2022-11-10T15:32:08.0000000+00:00</time></trkpt><trkpt lat="39.44564058" lon="-0.37452053"><ele>13.2</ele><time>2022-11-10T15:32:09.0000000+00:00</time></trkpt><trkpt lat="39.44563782" lon="-0.37441601"><ele>13.2</ele><time>2022-11-10T15:32:10.0000000+00:00</time></trkpt><trkpt lat="39.44564402" lon="-0.37433211"><ele>13.0</ele><time>2022-11-10T15:32:11.0000000+00:00</time></trkpt><trkpt lat="39.44562994" lon="-0.37424619"><ele>13.0</ele><time>2022-11-10T15:32:12.0000000+00:00</time></trkpt><trkpt lat="39.44557445" lon="-0.37418174"><ele>12.6</ele><time>2022-11-10T15:32:13.0000000+00:00</time></trkpt><trkpt lat="39.44550874" lon="-0.37411007"><ele>12.6</ele><time>2022-11-10T15:32:14.0000000+00:00</time></trkpt><trkpt lat="39.44546834" lon="-0.3740638"><ele>12.4</ele><time>2022-11-10T15:32:15.0000000+00:00</time></trkpt><trkpt lat="39.44544084" lon="-0.37400295"><ele>12.4</ele><time>2022-11-10T15:32:16.0000000+00:00</time></trkpt><trkpt lat="39.44542701" lon="-0.37392022"><ele>12.4</ele><time>2022-11-10T15:32:17.0000000+00:00</time></trkpt><trkpt lat="39.44542064" lon="-0.37386297"><ele>12.4</ele><time>2022-11-10T15:32:18.0000000+00:00</time></trkpt><trkpt lat="39.44541226" lon="-0.37378921"><ele>12.4</ele><time>2022-11-10T15:32:19.0000000+00:00</time></trkpt><trkpt lat="39.44540103" lon="-0.37367857"><ele>12.6</ele><time>2022-11-10T15:32:20.0000000+00:00</time></trkpt><trkpt lat="39.44539382" lon="-0.37361286"><ele>12.6</ele><time>2022-11-10T15:32:21.0000000+00:00</time></trkpt><trkpt lat="39.44538536" lon="-0.37354086"><ele>12.4</ele><time>2022-11-10T15:32:22.0000000+00:00</time></trkpt><trkpt lat="39.445382" lon="-0.37346416"><ele>12.4</ele><time>2022-11-10T15:32:23.0000000+00:00</time></trkpt><trkpt lat="39.44537857" lon="-0.37339476"><ele>12.4</ele><time>2022-11-10T15:32:24.0000000+00:00</time></trkpt><trkpt lat="39.44537077" lon="-0.37333148"><ele>12.2</ele><time>2022-11-10T15:32:25.0000000+00:00</time></trkpt><trkpt lat="39.44536113" lon="-0.37328353"><ele>12.2</ele><time>2022-11-10T15:32:26.0000000+00:00</time></trkpt><trkpt lat="39.44535418" lon="-0.37323492"><ele>12.2</ele><time>2022-11-10T15:32:27.0000000+00:00</time></trkpt><trkpt lat="39.44535426" lon="-0.3731837"><ele>12.0</ele><time>2022-11-10T15:32:28.0000000+00:00</time></trkpt><trkpt lat="39.44535853" lon="-0.37311547"><ele>12.0</ele><time>2022-11-10T15:32:29.0000000+00:00</time></trkpt><trkpt lat="39.44536608" lon="-0.37302654"><ele>12.0</ele><time>2022-11-10T15:32:30.0000000+00:00</time></trkpt><trkpt lat="39.4453841" lon="-0.37294851"><ele>12.0</ele><time>2022-11-10T15:32:31.0000000+00:00</time></trkpt><trkpt lat="39.44542576" lon="-0.37284625"><ele>11.8</ele><time>2022-11-10T15:32:32.0000000+00:00</time></trkpt><trkpt lat="39.44544252" lon="-0.37277559"><ele>11.8</ele><time>2022-11-10T15:32:33.0000000+00:00</time></trkpt><trkpt lat="39.44544814" lon="-0.37272438"><ele>11.8</ele><time>2022-11-10T15:32:34.0000000+00:00</time></trkpt><trkpt lat="39.44545677" lon="-0.37268473"><ele>11.8</ele><time>2022-11-10T15:32:35.0000000+00:00</time></trkpt><trkpt lat="39.44546247" lon="-0.3726445"><ele>11.6</ele><time>2022-11-10T15:32:36.0000000+00:00</time></trkpt><trkpt lat="39.44546716" lon="-0.37261306"><ele>11.6</ele><time>2022-11-10T15:32:37.0000000+00:00</time></trkpt><trkpt lat="39.44547077" lon="-0.37256395"><ele>11.4</ele><time>2022-11-10T15:32:38.0000000+00:00</time></trkpt><trkpt lat="39.44544478" lon="-0.37252908"><ele>11.4</ele><time>2022-11-10T15:32:39.0000000+00:00</time></trkpt><trkpt lat="39.44538117" lon="-0.37251893"><ele>11.2</ele><time>2022-11-10T15:32:40.0000000+00:00</time></trkpt><trkpt lat="39.445353" lon="-0.3724901"><ele>11.2</ele><time>2022-11-10T15:32:41.0000000+00:00</time></trkpt><trkpt lat="39.44537295" lon="-0.37241735"><ele>11.4</ele><time>2022-11-10T15:32:42.0000000+00:00</time></trkpt><trkpt lat="39.44541737" lon="-0.37234778"><ele>11.4</ele><time>2022-11-10T15:32:43.0000000+00:00</time></trkpt><trkpt lat="39.4454354" lon="-0.37229656"><ele>11.4</ele><time>2022-11-10T15:32:44.0000000+00:00</time></trkpt><trkpt lat="39.44544487" lon="-0.37224895"><ele>11.4</ele><time>2022-11-10T15:32:45.0000000+00:00</time></trkpt><trkpt lat="39.4454566" lon="-0.37219497"><ele>11.4</ele><time>2022-11-10T15:32:46.0000000+00:00</time></trkpt><trkpt lat="39.44546775" lon="-0.37215591"><ele>11.4</ele><time>2022-11-10T15:32:47.0000000+00:00</time></trkpt><trkpt lat="39.44549097" lon="-0.37210219"><ele>11.4</ele><time>2022-11-10T15:32:48.0000000+00:00</time></trkpt><trkpt lat="39.44551008" lon="-0.37204871"><ele>11.4</ele><time>2022-11-10T15:32:49.0000000+00:00</time></trkpt><trkpt lat="39.44551955" lon="-0.37199372"><ele>11.4</ele><time>2022-11-10T15:32:50.0000000+00:00</time></trkpt><trkpt lat="39.44553179" lon="-0.37192809"><ele>11.2</ele><time>2022-11-10T15:32:51.0000000+00:00</time></trkpt><trkpt lat="39.44554428" lon="-0.37189348"><ele>11.2</ele><time>2022-11-10T15:32:52.0000000+00:00</time></trkpt><trkpt lat="39.44557512" lon="-0.37185266"><ele>11.2</ele><time>2022-11-10T15:32:53.0000000+00:00</time></trkpt><trkpt lat="39.44558543" lon="-0.37179792"><ele>11.2</ele><time>2022-11-10T15:32:54.0000000+00:00</time></trkpt><trkpt lat="39.4455908" lon="-0.37173959"><ele>11.2</ele><time>2022-11-10T15:32:55.0000000+00:00</time></trkpt><trkpt lat="39.44554453" lon="-0.37166197"><ele>11.2</ele><time>2022-11-10T15:32:56.0000000+00:00</time></trkpt><trkpt lat="39.44552215" lon="-0.37156893"><ele>11.2</ele><time>2022-11-10T15:32:57.0000000+00:00</time></trkpt><trkpt lat="39.44551159" lon="-0.37149802"><ele>11.0</ele><time>2022-11-10T15:32:58.0000000+00:00</time></trkpt><trkpt lat="39.44551905" lon="-0.37144655"><ele>11.0</ele><time>2022-11-10T15:32:59.0000000+00:00</time></trkpt><trkpt lat="39.44553849" lon="-0.37138042"><ele>11.0</ele><time>2022-11-10T15:33:00.0000000+00:00</time></trkpt><trkpt lat="39.44557261" lon="-0.37132217"><ele>11.0</ele><time>2022-11-10T15:33:01.0000000+00:00</time></trkpt><trkpt lat="39.44559608" lon="-0.37126433"><ele>11.0</ele><time>2022-11-10T15:33:02.0000000+00:00</time></trkpt><trkpt lat="39.44561502" lon="-0.37120876"><ele>11.0</ele><time>2022-11-10T15:33:03.0000000+00:00</time></trkpt><trkpt lat="39.44563472" lon="-0.3711552"><ele>11.0</ele><time>2022-11-10T15:33:04.0000000+00:00</time></trkpt><trkpt lat="39.4456576" lon="-0.37110457"><ele>11.2</ele><time>2022-11-10T15:33:05.0000000+00:00</time></trkpt><trkpt lat="39.44568258" lon="-0.37105554"><ele>11.2</ele><time>2022-11-10T15:33:06.0000000+00:00</time></trkpt><trkpt lat="39.44570672" lon="-0.371005"><ele>11.2</ele><time>2022-11-10T15:33:07.0000000+00:00</time></trkpt><trkpt lat="39.44573178" lon="-0.37095211"><ele>11.2</ele><time>2022-11-10T15:33:08.0000000+00:00</time></trkpt><trkpt lat="39.4457545" lon="-0.37089804"><ele>11.2</ele><time>2022-11-10T15:33:09.0000000+00:00</time></trkpt><trkpt lat="39.44576933" lon="-0.37085068"><ele>11.2</ele><time>2022-11-10T15:33:10.0000000+00:00</time></trkpt><trkpt lat="39.44577788" lon="-0.37081221"><ele>11.0</ele><time>2022-11-10T15:33:11.0000000+00:00</time></trkpt><trkpt lat="39.44577679" lon="-0.37077533"><ele>11.0</ele><time>2022-11-10T15:33:12.0000000+00:00</time></trkpt><trkpt lat="39.44577838" lon="-0.37073971"><ele>11.0</ele><time>2022-11-10T15:33:13.0000000+00:00</time></trkpt><trkpt lat="39.44578777" lon="-0.37070065"><ele>11.0</ele><time>2022-11-10T15:33:14.0000000+00:00</time></trkpt><trkpt lat="39.44580261" lon="-0.37065899"><ele>11.0</ele><time>2022-11-10T15:33:15.0000000+00:00</time></trkpt><trkpt lat="39.44582004" lon="-0.3706149"><ele>11.0</ele><time>2022-11-10T15:33:16.0000000+00:00</time></trkpt><trkpt lat="39.44584267" lon="-0.37056788"><ele>11.0</ele><time>2022-11-10T15:33:17.0000000+00:00</time></trkpt><trkpt lat="39.44586807" lon="-0.37051608"><ele>11.0</ele><time>2022-11-10T15:33:18.0000000+00:00</time></trkpt><trkpt lat="39.44589472" lon="-0.37045816"><ele>11.0</ele><time>2022-11-10T15:33:19.0000000+00:00</time></trkpt><trkpt lat="39.44591425" lon="-0.3704015"><ele>11.0</ele><time>2022-11-10T15:33:20.0000000+00:00</time></trkpt><trkpt lat="39.44593479" lon="-0.37034961"><ele>11.2</ele><time>2022-11-10T15:33:21.0000000+00:00</time></trkpt><trkpt lat="39.44595943" lon="-0.37029815"><ele>11.2</ele><time>2022-11-10T15:33:22.0000000+00:00</time></trkpt><trkpt lat="39.44598366" lon="-0.37024551"><ele>11.4</ele><time>2022-11-10T15:33:23.0000000+00:00</time></trkpt><trkpt lat="39.44600453" lon="-0.37019421"><ele>11.4</ele><time>2022-11-10T15:33:24.0000000+00:00</time></trkpt><trkpt lat="39.4460264" lon="-0.37014199"><ele>11.4</ele><time>2022-11-10T15:33:25.0000000+00:00</time></trkpt><trkpt lat="39.44604971" lon="-0.37008919"><ele>11.6</ele><time>2022-11-10T15:33:26.0000000+00:00</time></trkpt><trkpt lat="39.44607141" lon="-0.37003772"><ele>11.6</ele><time>2022-11-10T15:33:27.0000000+00:00</time></trkpt><trkpt lat="39.44609304" lon="-0.36998534"><ele>11.8</ele><time>2022-11-10T15:33:28.0000000+00:00</time></trkpt><trkpt lat="39.44611953" lon="-0.36993094"><ele>11.8</ele><time>2022-11-10T15:33:29.0000000+00:00</time></trkpt><trkpt lat="39.44614325" lon="-0.36987688"><ele>11.8</ele><time>2022-11-10T15:33:30.0000000+00:00</time></trkpt><trkpt lat="39.44616412" lon="-0.36982533"><ele>11.6</ele><time>2022-11-10T15:33:31.0000000+00:00</time></trkpt><trkpt lat="39.4461818" lon="-0.36977897"><ele>11.6</ele><time>2022-11-10T15:33:32.0000000+00:00</time></trkpt><trkpt lat="39.44619329" lon="-0.36974218"><ele>11.4</ele><time>2022-11-10T15:33:33.0000000+00:00</time></trkpt><trkpt lat="39.4461948" lon="-0.36972315"><ele>11.4</ele><time>2022-11-10T15:33:34.0000000+00:00</time></trkpt><trkpt lat="39.44618633" lon="-0.36971552"><ele>11.4</ele><time>2022-11-10T15:33:35.0000000+00:00</time></trkpt><trkpt lat="39.44618306" lon="-0.3697115"><ele>11.2</ele><time>2022-11-10T15:33:36.0000000+00:00</time></trkpt><trkpt lat="39.44618306" lon="-0.3697115"><ele>11.2</ele><time>2022-11-10T15:33:37.0000000+00:00</time></trkpt><trkpt lat="39.44618306" lon="-0.3697115"><ele>11.0</ele><time>2022-11-10T15:33:38.0000000+00:00</time></trkpt><trkpt lat="39.44618306" lon="-0.3697115"><ele>11.0</ele><time>2022-11-10T15:33:39.0000000+00:00</time></trkpt><trkpt lat="39.44618306" lon="-0.3697115"><ele>10.8</ele><time>2022-11-10T15:33:40.0000000+00:00</time></trkpt><trkpt lat="39.44618306" lon="-0.3697115"><ele>10.8</ele><time>2022-11-10T15:33:41.0000000+00:00</time></trkpt><trkpt lat="39.44618306" lon="-0.3697115"><ele>10.8</ele><time>2022-11-10T15:33:42.0000000+00:00</time></trkpt><trkpt lat="39.44618306" lon="-0.3697115"><ele>10.8</ele><time>2022-11-10T15:33:43.0000000+00:00</time></trkpt><trkpt lat="39.44618306" lon="-0.3697115"><ele>10.8</ele><time>2022-11-10T15:33:44.0000000+00:00</time></trkpt><trkpt lat="39.44618306" lon="-0.3697115"><ele>10.8</ele><time>2022-11-10T15:33:45.0000000+00:00</time></trkpt><trkpt lat="39.44618306" lon="-0.3697115"><ele>11.0</ele><time>2022-11-10T15:33:46.0000000+00:00</time></trkpt><trkpt lat="39.44618306" lon="-0.3697115"><ele>11.0</ele><time>2022-11-10T15:33:47.0000000+00:00</time></trkpt><trkpt lat="39.44618306" lon="-0.3697115"><ele>11.0</ele><time>2022-11-10T15:33:48.0000000+00:00</time></trkpt><trkpt lat="39.44618306" lon="-0.3697115"><ele>11.0</ele><time>2022-11-10T15:33:49.0000000+00:00</time></trkpt><trkpt lat="39.44618306" lon="-0.3697115"><ele>11.0</ele><time>2022-11-10T15:33:50.0000000+00:00</time></trkpt><trkpt lat="39.44618306" lon="-0.3697115"><ele>11.0</ele><time>2022-11-10T15:33:51.0000000+00:00</time></trkpt><trkpt lat="39.44618306" lon="-0.3697115"><ele>11.0</ele><time>2022-11-10T15:33:52.0000000+00:00</time></trkpt><trkpt lat="39.44618306" lon="-0.3697115"><ele>11.0</ele><time>2022-11-10T15:33:53.0000000+00:00</time></trkpt><trkpt lat="39.44618306" lon="-0.3697115"><ele>11.0</ele><time>2022-11-10T15:33:54.0000000+00:00</time></trkpt><trkpt lat="39.44618306" lon="-0.3697115"><ele>11.0</ele><time>2022-11-10T15:33:55.0000000+00:00</time></trkpt><trkpt lat="39.44618306" lon="-0.3697115"><ele>11.0</ele><time>2022-11-10T15:33:56.0000000+00:00</time></trkpt><trkpt lat="39.44618306" lon="-0.3697115"><ele>11.0</ele><time>2022-11-10T15:33:57.0000000+00:00</time></trkpt><trkpt lat="39.44618306" lon="-0.3697115"><ele>11.0</ele><time>2022-11-10T15:33:58.0000000+00:00</time></trkpt><trkpt lat="39.44618306" lon="-0.3697115"><ele>10.8</ele><time>2022-11-10T15:33:59.0000000+00:00</time></trkpt><trkpt lat="39.44617502" lon="-0.36970932"><ele>10.8</ele><time>2022-11-10T15:34:00.0000000+00:00</time></trkpt><trkpt lat="39.44615842" lon="-0.36969566"><ele>10.8</ele><time>2022-11-10T15:34:01.0000000+00:00</time></trkpt><trkpt lat="39.44613403" lon="-0.36967621"><ele>10.8</ele><time>2022-11-10T15:34:02.0000000+00:00</time></trkpt><trkpt lat="39.44610226" lon="-0.36965626"><ele>10.8</ele><time>2022-11-10T15:34:03.0000000+00:00</time></trkpt><trkpt lat="39.4460663" lon="-0.36963481"><ele>10.8</ele><time>2022-11-10T15:34:04.0000000+00:00</time></trkpt><trkpt lat="39.44602598" lon="-0.36961477"><ele>10.6</ele><time>2022-11-10T15:34:05.0000000+00:00</time></trkpt><trkpt lat="39.44598852" lon="-0.36959399"><ele>10.8</ele><time>2022-11-10T15:34:06.0000000+00:00</time></trkpt><trkpt lat="39.44595113" lon="-0.36956985"><ele>10.8</ele><time>2022-11-10T15:34:07.0000000+00:00</time></trkpt><trkpt lat="39.44591031" lon="-0.36954554"><ele>10.8</ele><time>2022-11-10T15:34:08.0000000+00:00</time></trkpt><trkpt lat="39.44587234" lon="-0.36951888"><ele>10.8</ele><time>2022-11-10T15:34:09.0000000+00:00</time></trkpt><trkpt lat="39.44583287" lon="-0.36948997"><ele>10.6</ele><time>2022-11-10T15:34:10.0000000+00:00</time></trkpt><trkpt lat="39.44579263" lon="-0.36945971"><ele>10.6</ele><time>2022-11-10T15:34:11.0000000+00:00</time></trkpt><trkpt lat="39.44575416" lon="-0.36943314"><ele>10.6</ele><time>2022-11-10T15:34:12.0000000+00:00</time></trkpt><trkpt lat="39.44571326" lon="-0.36941042"><ele>10.6</ele><time>2022-11-10T15:34:13.0000000+00:00</time></trkpt><trkpt lat="39.44567747" lon="-0.36939533"><ele>10.6</ele><time>2022-11-10T15:34:14.0000000+00:00</time></trkpt><trkpt lat="39.44565182" lon="-0.36938804"><ele>10.4</ele><time>2022-11-10T15:34:15.0000000+00:00</time></trkpt><trkpt lat="39.44563832" lon="-0.36939005"><ele>10.4</ele><time>2022-11-10T15:34:16.0000000+00:00</time></trkpt><trkpt lat="39.44562407" lon="-0.36939148"><ele>10.4</ele><time>2022-11-10T15:34:17.0000000+00:00</time></trkpt><trkpt lat="39.44560572" lon="-0.36939366"><ele>10.4</ele><time>2022-11-10T15:34:18.0000000+00:00</time></trkpt><trkpt lat="39.44559021" lon="-0.36939701"><ele>10.4</ele><time>2022-11-10T15:34:19.0000000+00:00</time></trkpt><trkpt lat="39.44558401" lon="-0.36941914"><ele>10.2</ele><time>2022-11-10T15:34:20.0000000+00:00</time></trkpt><trkpt lat="39.44557739" lon="-0.36944336"><ele>10.2</ele><time>2022-11-10T15:34:21.0000000+00:00</time></trkpt><trkpt lat="39.44556691" lon="-0.36946449"><ele>10.2</ele><time>2022-11-10T15:34:22.0000000+00:00</time></trkpt><trkpt lat="39.44555685" lon="-0.3694955"><ele>10.2</ele><time>2022-11-10T15:34:23.0000000+00:00</time></trkpt><trkpt lat="39.44554176" lon="-0.36953514"><ele>10.2</ele><time>2022-11-10T15:34:24.0000000+00:00</time></trkpt><trkpt lat="39.44550664" lon="-0.36958904"><ele>10.2</ele><time>2022-11-10T15:34:25.0000000+00:00</time></trkpt><trkpt lat="39.44547337" lon="-0.3696545"><ele>10.2</ele><time>2022-11-10T15:34:26.0000000+00:00</time></trkpt><trkpt lat="39.44545157" lon="-0.3697208"><ele>10.2</ele><time>2022-11-10T15:34:27.0000000+00:00</time></trkpt><trkpt lat="39.44543531" lon="-0.3697861"><ele>10.2</ele><time>2022-11-10T15:34:28.0000000+00:00</time></trkpt><trkpt lat="39.44540866" lon="-0.36984435"><ele>10.2</ele><time>2022-11-10T15:34:29.0000000+00:00</time></trkpt><trkpt lat="39.4453753" lon="-0.36990462"><ele>10.2</ele><time>2022-11-10T15:34:30.0000000+00:00</time></trkpt><trkpt lat="39.44535166" lon="-0.36998224"><ele>10.2</ele><time>2022-11-10T15:34:31.0000000+00:00</time></trkpt><trkpt lat="39.4453447" lon="-0.37005826"><ele>10.2</ele><time>2022-11-10T15:34:32.0000000+00:00</time></trkpt><trkpt lat="39.44533372" lon="-0.37013101"><ele>10.2</ele><time>2022-11-10T15:34:33.0000000+00:00</time></trkpt><trkpt lat="39.44531252" lon="-0.3702036"><ele>10.2</ele><time>2022-11-10T15:34:34.0000000+00:00</time></trkpt><trkpt lat="39.44528855" lon="-0.37027686"><ele>10.2</ele><time>2022-11-10T15:34:35.0000000+00:00</time></trkpt><trkpt lat="39.44525929" lon="-0.37034442"><ele>10.2</ele><time>2022-11-10T15:34:36.0000000+00:00</time></trkpt><trkpt lat="39.44521956" lon="-0.37041432"><ele>10.2</ele><time>2022-11-10T15:34:37.0000000+00:00</time></trkpt><trkpt lat="39.44518277" lon="-0.37048054"><ele>10.2</ele><time>2022-11-10T15:34:38.0000000+00:00</time></trkpt><trkpt lat="39.44514999" lon="-0.37054684"><ele>10.2</ele><time>2022-11-10T15:34:39.0000000+00:00</time></trkpt><trkpt lat="39.44512191" lon="-0.37061004"><ele>10.2</ele><time>2022-11-10T15:34:40.0000000+00:00</time></trkpt><trkpt lat="39.44509274" lon="-0.3706729"><ele>10.2</ele><time>2022-11-10T15:34:41.0000000+00:00</time></trkpt><trkpt lat="39.44506433" lon="-0.37073451"><ele>10.2</ele><time>2022-11-10T15:34:42.0000000+00:00</time></trkpt><trkpt lat="39.44503617" lon="-0.37079629"><ele>10.2</ele><time>2022-11-10T15:34:43.0000000+00:00</time></trkpt><trkpt lat="39.44501052" lon="-0.37085655"><ele>10.2</ele><time>2022-11-10T15:34:44.0000000+00:00</time></trkpt><trkpt lat="39.44498428" lon="-0.37091422"><ele>10.2</ele><time>2022-11-10T15:34:45.0000000+00:00</time></trkpt><trkpt lat="39.44496601" lon="-0.37096644"><ele>10.2</ele><time>2022-11-10T15:34:46.0000000+00:00</time></trkpt><trkpt lat="39.44495042" lon="-0.3710107"><ele>10.2</ele><time>2022-11-10T15:34:47.0000000+00:00</time></trkpt><trkpt lat="39.44493894" lon="-0.37103701"><ele>10.2</ele><time>2022-11-10T15:34:48.0000000+00:00</time></trkpt><trkpt lat="39.44493366" lon="-0.3710521"><ele>10.2</ele><time>2022-11-10T15:34:49.0000000+00:00</time></trkpt><trkpt lat="39.4449293" lon="-0.37106141"><ele>10.0</ele><time>2022-11-10T15:34:50.0000000+00:00</time></trkpt><trkpt lat="39.44492326" lon="-0.37107415"><ele>10.0</ele><time>2022-11-10T15:34:51.0000000+00:00</time></trkpt><trkpt lat="39.44491647" lon="-0.3710915"><ele>10.0</ele><time>2022-11-10T15:34:52.0000000+00:00</time></trkpt><trkpt lat="39.44491178" lon="-0.371106"><ele>9.8</ele><time>2022-11-10T15:34:53.0000000+00:00</time></trkpt><trkpt lat="39.44490432" lon="-0.3711179"><ele>9.8</ele><time>2022-11-10T15:34:54.0000000+00:00</time></trkpt><trkpt lat="39.44489619" lon="-0.37112804"><ele>9.8</ele><time>2022-11-10T15:34:55.0000000+00:00</time></trkpt><trkpt lat="39.44488948" lon="-0.37114338"><ele>9.8</ele><time>2022-11-10T15:34:56.0000000+00:00</time></trkpt><trkpt lat="39.44488035" lon="-0.3711635"><ele>9.6</ele><time>2022-11-10T15:34:57.0000000+00:00</time></trkpt><trkpt lat="39.44486886" lon="-0.37118923"><ele>9.6</ele><time>2022-11-10T15:34:58.0000000+00:00</time></trkpt><trkpt lat="39.44485637" lon="-0.37121446"><ele>9.6</ele><time>2022-11-10T15:34:59.0000000+00:00</time></trkpt><trkpt lat="39.44483894" lon="-0.37123608"><ele>9.6</ele><time>2022-11-10T15:35:00.0000000+00:00</time></trkpt><trkpt lat="39.44481379" lon="-0.37124639"><ele>9.6</ele><time>2022-11-10T15:35:01.0000000+00:00</time></trkpt><trkpt lat="39.44478236" lon="-0.37124656"><ele>9.6</ele><time>2022-11-10T15:35:02.0000000+00:00</time></trkpt><trkpt lat="39.44474347" lon="-0.37124723"><ele>9.6</ele><time>2022-11-10T15:35:03.0000000+00:00</time></trkpt><trkpt lat="39.44470215" lon="-0.37124916"><ele>9.4</ele><time>2022-11-10T15:35:04.0000000+00:00</time></trkpt><trkpt lat="39.44465848" lon="-0.37125503"><ele>9.4</ele><time>2022-11-10T15:35:05.0000000+00:00</time></trkpt><trkpt lat="39.44460332" lon="-0.37126542"><ele>9.6</ele><time>2022-11-10T15:35:06.0000000+00:00</time></trkpt><trkpt lat="39.44456779" lon="-0.37126936"><ele>9.6</ele><time>2022-11-10T15:35:07.0000000+00:00</time></trkpt><trkpt lat="39.44452219" lon="-0.37127514"><ele>9.6</ele><time>2022-11-10T15:35:08.0000000+00:00</time></trkpt><trkpt lat="39.44447575" lon="-0.3712816"><ele>9.8</ele><time>2022-11-10T15:35:09.0000000+00:00</time></trkpt><trkpt lat="39.44442856" lon="-0.37128797"><ele>10.0</ele><time>2022-11-10T15:35:10.0000000+00:00</time></trkpt><trkpt lat="39.44437576" lon="-0.37130348"><ele>10.0</ele><time>2022-11-10T15:35:11.0000000+00:00</time></trkpt><trkpt lat="39.44434608" lon="-0.37132535"><ele>10.2</ele><time>2022-11-10T15:35:12.0000000+00:00</time></trkpt><trkpt lat="39.44431868" lon="-0.37135921"><ele>10.2</ele><time>2022-11-10T15:35:13.0000000+00:00</time></trkpt><trkpt lat="39.44430728" lon="-0.37140121"><ele>10.2</ele><time>2022-11-10T15:35:14.0000000+00:00</time></trkpt><trkpt lat="39.44431465" lon="-0.37144982"><ele>10.2</ele><time>2022-11-10T15:35:15.0000000+00:00</time></trkpt><trkpt lat="39.44432706" lon="-0.37150095"><ele>10.2</ele><time>2022-11-10T15:35:16.0000000+00:00</time></trkpt><trkpt lat="39.44433678" lon="-0.37155015"><ele>10.4</ele><time>2022-11-10T15:35:17.0000000+00:00</time></trkpt><trkpt lat="39.44434742" lon="-0.37160413"><ele>10.6</ele><time>2022-11-10T15:35:18.0000000+00:00</time></trkpt><trkpt lat="39.4443553" lon="-0.37166105"><ele>10.6</ele><time>2022-11-10T15:35:19.0000000+00:00</time></trkpt><trkpt lat="39.44436302" lon="-0.3717271"><ele>10.8</ele><time>2022-11-10T15:35:20.0000000+00:00</time></trkpt><trkpt lat="39.44436612" lon="-0.37177244"><ele>10.8</ele><time>2022-11-10T15:35:21.0000000+00:00</time></trkpt><trkpt lat="39.44437006" lon="-0.37183095"><ele>10.8</ele><time>2022-11-10T15:35:22.0000000+00:00</time></trkpt><trkpt lat="39.44437249" lon="-0.3718892"><ele>10.8</ele><time>2022-11-10T15:35:23.0000000+00:00</time></trkpt><trkpt lat="39.44438037" lon="-0.3719436"><ele>11.0</ele><time>2022-11-10T15:35:24.0000000+00:00</time></trkpt><trkpt lat="39.44438749" lon="-0.37199607"><ele>11.0</ele><time>2022-11-10T15:35:25.0000000+00:00</time></trkpt><trkpt lat="39.44439235" lon="-0.37205122"><ele>11.2</ele><time>2022-11-10T15:35:26.0000000+00:00</time></trkpt><trkpt lat="39.44439797" lon="-0.37210738"><ele>11.2</ele><time>2022-11-10T15:35:27.0000000+00:00</time></trkpt><trkpt lat="39.44440333" lon="-0.37216438"><ele>11.4</ele><time>2022-11-10T15:35:28.0000000+00:00</time></trkpt><trkpt lat="39.44440736" lon="-0.37222146"><ele>11.4</ele><time>2022-11-10T15:35:29.0000000+00:00</time></trkpt><trkpt lat="39.4444113" lon="-0.37227955"><ele>11.4</ele><time>2022-11-10T15:35:30.0000000+00:00</time></trkpt><trkpt lat="39.4444144" lon="-0.37233772"><ele>11.6</ele><time>2022-11-10T15:35:31.0000000+00:00</time></trkpt><trkpt lat="39.44442001" lon="-0.37239689"><ele>11.8</ele><time>2022-11-10T15:35:32.0000000+00:00</time></trkpt><trkpt lat="39.44442923" lon="-0.37245565"><ele>11.8</ele><time>2022-11-10T15:35:33.0000000+00:00</time></trkpt><trkpt lat="39.44443845" lon="-0.37251324"><ele>12.0</ele><time>2022-11-10T15:35:34.0000000+00:00</time></trkpt><trkpt lat="39.44444667" lon="-0.37257275"><ele>12.2</ele><time>2022-11-10T15:35:35.0000000+00:00</time></trkpt><trkpt lat="39.44445471" lon="-0.37263586"><ele>12.2</ele><time>2022-11-10T15:35:36.0000000+00:00</time></trkpt><trkpt lat="39.44446259" lon="-0.37270015"><ele>12.4</ele><time>2022-11-10T15:35:37.0000000+00:00</time></trkpt><trkpt lat="39.44447039" lon="-0.3727652"><ele>12.4</ele><time>2022-11-10T15:35:38.0000000+00:00</time></trkpt><trkpt lat="39.44447852" lon="-0.37282957"><ele>12.4</ele><time>2022-11-10T15:35:39.0000000+00:00</time></trkpt><trkpt lat="39.44448338" lon="-0.37289822"><ele>12.4</ele><time>2022-11-10T15:35:40.0000000+00:00</time></trkpt><trkpt lat="39.44449226" lon="-0.37296318"><ele>12.6</ele><time>2022-11-10T15:35:41.0000000+00:00</time></trkpt><trkpt lat="39.4444988" lon="-0.37302864"><ele>12.6</ele><time>2022-11-10T15:35:42.0000000+00:00</time></trkpt><trkpt lat="39.44450492" lon="-0.37309519"><ele>12.8</ele><time>2022-11-10T15:35:43.0000000+00:00</time></trkpt><trkpt lat="39.44451096" lon="-0.37316124"><ele>12.8</ele><time>2022-11-10T15:35:44.0000000+00:00</time></trkpt><trkpt lat="39.44451867" lon="-0.37322595"><ele>13.0</ele><time>2022-11-10T15:35:45.0000000+00:00</time></trkpt><trkpt lat="39.44452629" lon="-0.37328999"><ele>13.2</ele><time>2022-11-10T15:35:46.0000000+00:00</time></trkpt><trkpt lat="39.44453501" lon="-0.37335528"><ele>13.2</ele><time>2022-11-10T15:35:47.0000000+00:00</time></trkpt><trkpt lat="39.44454549" lon="-0.37341655"><ele>13.4</ele><time>2022-11-10T15:35:48.0000000+00:00</time></trkpt><trkpt lat="39.44455722" lon="-0.37347975"><ele>13.4</ele><time>2022-11-10T15:35:49.0000000+00:00</time></trkpt><trkpt lat="39.44456225" lon="-0.37354874"><ele>13.6</ele><time>2022-11-10T15:35:50.0000000+00:00</time></trkpt><trkpt lat="39.44456971" lon="-0.3736168"><ele>13.6</ele><time>2022-11-10T15:35:51.0000000+00:00</time></trkpt><trkpt lat="39.44457759" lon="-0.37368226"><ele>13.8</ele><time>2022-11-10T15:35:52.0000000+00:00</time></trkpt><trkpt lat="39.44458539" lon="-0.37374898"><ele>13.8</ele><time>2022-11-10T15:35:53.0000000+00:00</time></trkpt><trkpt lat="39.44459402" lon="-0.37381712"><ele>13.8</ele><time>2022-11-10T15:35:54.0000000+00:00</time></trkpt><trkpt lat="39.4446019" lon="-0.37388393"><ele>13.8</ele><time>2022-11-10T15:35:55.0000000+00:00</time></trkpt><trkpt lat="39.44461397" lon="-0.37394788"><ele>14.0</ele><time>2022-11-10T15:35:56.0000000+00:00</time></trkpt><trkpt lat="39.44462369" lon="-0.37401158"><ele>14.0</ele><time>2022-11-10T15:35:57.0000000+00:00</time></trkpt><trkpt lat="39.44463006" lon="-0.37407763"><ele>14.0</ele><time>2022-11-10T15:35:58.0000000+00:00</time></trkpt><trkpt lat="39.44463777" lon="-0.37414368"><ele>14.0</ele><time>2022-11-10T15:35:59.0000000+00:00</time></trkpt><trkpt lat="39.44463928" lon="-0.37421376"><ele>13.8</ele><time>2022-11-10T15:36:00.0000000+00:00</time></trkpt><trkpt lat="39.44464305" lon="-0.37428643"><ele>13.8</ele><time>2022-11-10T15:36:01.0000000+00:00</time></trkpt><trkpt lat="39.44465177" lon="-0.37435801"><ele>13.6</ele><time>2022-11-10T15:36:02.0000000+00:00</time></trkpt><trkpt lat="39.44467046" lon="-0.37442565"><ele>13.6</ele><time>2022-11-10T15:36:03.0000000+00:00</time></trkpt><trkpt lat="39.44469544" lon="-0.37449095"><ele>13.6</ele><time>2022-11-10T15:36:04.0000000+00:00</time></trkpt><trkpt lat="39.44470173" lon="-0.37456605"><ele>13.6</ele><time>2022-11-10T15:36:05.0000000+00:00</time></trkpt><trkpt lat="39.44468312" lon="-0.37464827"><ele>13.6</ele><time>2022-11-10T15:36:06.0000000+00:00</time></trkpt><trkpt lat="39.44467432" lon="-0.37473084"><ele>13.8</ele><time>2022-11-10T15:36:07.0000000+00:00</time></trkpt><trkpt lat="39.44465521" lon="-0.37481641"><ele>13.8</ele><time>2022-11-10T15:36:08.0000000+00:00</time></trkpt><trkpt lat="39.44466233" lon="-0.37489797"><ele>14.0</ele><time>2022-11-10T15:36:09.0000000+00:00</time></trkpt><trkpt lat="39.44467507" lon="-0.37497777"><ele>14.2</ele><time>2022-11-10T15:36:10.0000000+00:00</time></trkpt><trkpt lat="39.44468337" lon="-0.37505622"><ele>14.2</ele><time>2022-11-10T15:36:11.0000000+00:00</time></trkpt><trkpt lat="39.44468723" lon="-0.37513451"><ele>14.2</ele><time>2022-11-10T15:36:12.0000000+00:00</time></trkpt><trkpt lat="39.44468714" lon="-0.37521095"><ele>14.2</ele><time>2022-11-10T15:36:13.0000000+00:00</time></trkpt><trkpt lat="39.44468714" lon="-0.37528656"><ele>14.2</ele><time>2022-11-10T15:36:14.0000000+00:00</time></trkpt><trkpt lat="39.44468228" lon="-0.37535956"><ele>14.2</ele><time>2022-11-10T15:36:15.0000000+00:00</time></trkpt><trkpt lat="39.44468027" lon="-0.3754324"><ele>14.0</ele><time>2022-11-10T15:36:16.0000000+00:00</time></trkpt><trkpt lat="39.44468362" lon="-0.37550591"><ele>14.0</ele><time>2022-11-10T15:36:17.0000000+00:00</time></trkpt><trkpt lat="39.44468522" lon="-0.37558118"><ele>14.0</ele><time>2022-11-10T15:36:18.0000000+00:00</time></trkpt><trkpt lat="39.4446889" lon="-0.37565444"><ele>14.0</ele><time>2022-11-10T15:36:19.0000000+00:00</time></trkpt><trkpt lat="39.44469963" lon="-0.37572426"><ele>14.2</ele><time>2022-11-10T15:36:20.0000000+00:00</time></trkpt><trkpt lat="39.44471262" lon="-0.37579165"><ele>14.2</ele><time>2022-11-10T15:36:21.0000000+00:00</time></trkpt><trkpt lat="39.44471908" lon="-0.37585904"><ele>14.2</ele><time>2022-11-10T15:36:22.0000000+00:00</time></trkpt><trkpt lat="39.44472184" lon="-0.37592266"><ele>14.2</ele><time>2022-11-10T15:36:23.0000000+00:00</time></trkpt><trkpt lat="39.44472721" lon="-0.37599164"><ele>14.2</ele><time>2022-11-10T15:36:24.0000000+00:00</time></trkpt><trkpt lat="39.44473132" lon="-0.37606649"><ele>14.2</ele><time>2022-11-10T15:36:25.0000000+00:00</time></trkpt><trkpt lat="39.44473626" lon="-0.37614763"><ele>14.2</ele><time>2022-11-10T15:36:26.0000000+00:00</time></trkpt><trkpt lat="39.44474707" lon="-0.37622416"><ele>14.2</ele><time>2022-11-10T15:36:27.0000000+00:00</time></trkpt><trkpt lat="39.44475487" lon="-0.37629884"><ele>14.2</ele><time>2022-11-10T15:36:28.0000000+00:00</time></trkpt><trkpt lat="39.44476208" lon="-0.37637813"><ele>14.2</ele><time>2022-11-10T15:36:29.0000000+00:00</time></trkpt><trkpt lat="39.44477071" lon="-0.37645399"><ele>14.2</ele><time>2022-11-10T15:36:30.0000000+00:00</time></trkpt><trkpt lat="39.44477926" lon="-0.37653202"><ele>14.2</ele><time>2022-11-10T15:36:31.0000000+00:00</time></trkpt><trkpt lat="39.44478949" lon="-0.37661023"><ele>14.2</ele><time>2022-11-10T15:36:32.0000000+00:00</time></trkpt><trkpt lat="39.44480013" lon="-0.37668751"><ele>14.2</ele><time>2022-11-10T15:36:33.0000000+00:00</time></trkpt><trkpt lat="39.44481111" lon="-0.37676479"><ele>14.2</ele><time>2022-11-10T15:36:34.0000000+00:00</time></trkpt><trkpt lat="39.4448231" lon="-0.37684173"><ele>14.2</ele><time>2022-11-10T15:36:35.0000000+00:00</time></trkpt><trkpt lat="39.44483634" lon="-0.37691633"><ele>14.2</ele><time>2022-11-10T15:36:36.0000000+00:00</time></trkpt><trkpt lat="39.44485067" lon="-0.37699303"><ele>14.2</ele><time>2022-11-10T15:36:37.0000000+00:00</time></trkpt><trkpt lat="39.44486526" lon="-0.3770662"><ele>14.2</ele><time>2022-11-10T15:36:38.0000000+00:00</time></trkpt><trkpt lat="39.44487657" lon="-0.37714331"><ele>14.2</ele><time>2022-11-10T15:36:39.0000000+00:00</time></trkpt><trkpt lat="39.44488227" lon="-0.37722638"><ele>14.2</ele><time>2022-11-10T15:36:40.0000000+00:00</time></trkpt><trkpt lat="39.4448899" lon="-0.37730852"><ele>14.2</ele><time>2022-11-10T15:36:41.0000000+00:00</time></trkpt><trkpt lat="39.44489786" lon="-0.37739092"><ele>14.2</ele><time>2022-11-10T15:36:42.0000000+00:00</time></trkpt><trkpt lat="39.44490264" lon="-0.3774744"><ele>14.2</ele><time>2022-11-10T15:36:43.0000000+00:00</time></trkpt><trkpt lat="39.44491061" lon="-0.3775599"><ele>14.2</ele><time>2022-11-10T15:36:44.0000000+00:00</time></trkpt><trkpt lat="39.44491865" lon="-0.37764631"><ele>14.2</ele><time>2022-11-10T15:36:45.0000000+00:00</time></trkpt><trkpt lat="39.44492712" lon="-0.37773223"><ele>14.0</ele><time>2022-11-10T15:36:46.0000000+00:00</time></trkpt><trkpt lat="39.44493776" lon="-0.37781823"><ele>13.8</ele><time>2022-11-10T15:36:47.0000000+00:00</time></trkpt><trkpt lat="39.4449505" lon="-0.37790506"><ele>13.8</ele><time>2022-11-10T15:36:48.0000000+00:00</time></trkpt><trkpt lat="39.44496467" lon="-0.37799198"><ele>13.6</ele><time>2022-11-10T15:36:49.0000000+00:00</time></trkpt><trkpt lat="39.444979" lon="-0.3780779"><ele>13.6</ele><time>2022-11-10T15:36:50.0000000+00:00</time></trkpt><trkpt lat="39.44499065" lon="-0.37816088"><ele>13.6</ele><time>2022-11-10T15:36:51.0000000+00:00</time></trkpt><trkpt lat="39.44500205" lon="-0.37824227"><ele>13.6</ele><time>2022-11-10T15:36:52.0000000+00:00</time></trkpt><trkpt lat="39.44501119" lon="-0.3783167"><ele>13.6</ele><time>2022-11-10T15:36:53.0000000+00:00</time></trkpt><trkpt lat="39.4450184" lon="-0.37837369"><ele>13.6</ele><time>2022-11-10T15:36:54.0000000+00:00</time></trkpt><trkpt lat="39.44502376" lon="-0.37841703"><ele>13.6</ele><time>2022-11-10T15:36:55.0000000+00:00</time></trkpt><trkpt lat="39.44502896" lon="-0.37844511"><ele>13.6</ele><time>2022-11-10T15:36:56.0000000+00:00</time></trkpt><trkpt lat="39.44503256" lon="-0.37845952"><ele>13.4</ele><time>2022-11-10T15:36:57.0000000+00:00</time></trkpt><trkpt lat="39.44503449" lon="-0.37846296"><ele>13.4</ele><time>2022-11-10T15:36:58.0000000+00:00</time></trkpt><trkpt lat="39.44503449" lon="-0.37846296"><ele>13.2</ele><time>2022-11-10T15:36:59.0000000+00:00</time></trkpt><trkpt lat="39.44503449" lon="-0.37846296"><ele>13.2</ele><time>2022-11-10T15:37:00.0000000+00:00</time></trkpt><trkpt lat="39.44503449" lon="-0.37846296"><ele>13.2</ele><time>2022-11-10T15:37:01.0000000+00:00</time></trkpt><trkpt lat="39.44503533" lon="-0.37846573"><ele>13.2</ele><time>2022-11-10T15:37:02.0000000+00:00</time></trkpt><trkpt lat="39.44503776" lon="-0.37847864"><ele>13.0</ele><time>2022-11-10T15:37:03.0000000+00:00</time></trkpt><trkpt lat="39.44504128" lon="-0.378499"><ele>13.0</ele><time>2022-11-10T15:37:04.0000000+00:00</time></trkpt><trkpt lat="39.44503977" lon="-0.37852457"><ele>13.0</ele><time>2022-11-10T15:37:05.0000000+00:00</time></trkpt><trkpt lat="39.44503985" lon="-0.37855483"><ele>13.0</ele><time>2022-11-10T15:37:06.0000000+00:00</time></trkpt><trkpt lat="39.44504539" lon="-0.37858626"><ele>13.0</ele><time>2022-11-10T15:37:07.0000000+00:00</time></trkpt><trkpt lat="39.44505109" lon="-0.3786171"><ele>13.0</ele><time>2022-11-10T15:37:08.0000000+00:00</time></trkpt><trkpt lat="39.44505528" lon="-0.37864946"><ele>13.0</ele><time>2022-11-10T15:37:09.0000000+00:00</time></trkpt><trkpt lat="39.44505838" lon="-0.37868483"><ele>13.0</ele><time>2022-11-10T15:37:10.0000000+00:00</time></trkpt><trkpt lat="39.44506148" lon="-0.37872263"><ele>13.0</ele><time>2022-11-10T15:37:11.0000000+00:00</time></trkpt><trkpt lat="39.44506475" lon="-0.37876412"><ele>13.0</ele><time>2022-11-10T15:37:12.0000000+00:00</time></trkpt><trkpt lat="39.44506911" lon="-0.37881031"><ele>13.0</ele><time>2022-11-10T15:37:13.0000000+00:00</time></trkpt><trkpt lat="39.44507305" lon="-0.37885892"><ele>13.2</ele><time>2022-11-10T15:37:14.0000000+00:00</time></trkpt><trkpt lat="39.44508093" lon="-0.3789093"><ele>13.2</ele><time>2022-11-10T15:37:15.0000000+00:00</time></trkpt><trkpt lat="39.44508897" lon="-0.37896378"><ele>13.2</ele><time>2022-11-10T15:37:16.0000000+00:00</time></trkpt><trkpt lat="39.44509367" lon="-0.37902203"><ele>13.2</ele><time>2022-11-10T15:37:17.0000000+00:00</time></trkpt><trkpt lat="39.44509886" lon="-0.3790797"><ele>13.2</ele><time>2022-11-10T15:37:18.0000000+00:00</time></trkpt><trkpt lat="39.44510087" lon="-0.37913628"><ele>13.4</ele><time>2022-11-10T15:37:19.0000000+00:00</time></trkpt><trkpt lat="39.44511051" lon="-0.37919378"><ele>13.4</ele><time>2022-11-10T15:37:20.0000000+00:00</time></trkpt><trkpt lat="39.44511973" lon="-0.37925438"><ele>13.4</ele><time>2022-11-10T15:37:21.0000000+00:00</time></trkpt><trkpt lat="39.44512661" lon="-0.3793159"><ele>13.4</ele><time>2022-11-10T15:37:22.0000000+00:00</time></trkpt><trkpt lat="39.44513415" lon="-0.37937701"><ele>13.4</ele><time>2022-11-10T15:37:23.0000000+00:00</time></trkpt><trkpt lat="39.44514169" lon="-0.37943543"><ele>13.4</ele><time>2022-11-10T15:37:24.0000000+00:00</time></trkpt><trkpt lat="39.44514169" lon="-0.37943543"><ele>13.4</ele><time>2022-11-10T15:37:25.0000000+00:00</time></trkpt><trkpt lat="39.44514806" lon="-0.37953777"><ele>13.2</ele><time>2022-11-10T15:37:26.0000000+00:00</time></trkpt><trkpt lat="39.44513817" lon="-0.37957097"><ele>13.2</ele><time>2022-11-10T15:37:27.0000000+00:00</time></trkpt><trkpt lat="39.44511546" lon="-0.3795905"><ele>13.2</ele><time>2022-11-10T15:37:28.0000000+00:00</time></trkpt><trkpt lat="39.44508277" lon="-0.37959829"><ele>13.2</ele><time>2022-11-10T15:37:29.0000000+00:00</time></trkpt><trkpt lat="39.44504941" lon="-0.37960583"><ele>13.2</ele><time>2022-11-10T15:37:30.0000000+00:00</time></trkpt><trkpt lat="39.44502217" lon="-0.37962101"><ele>13.2</ele><time>2022-11-10T15:37:31.0000000+00:00</time></trkpt><trkpt lat="39.44501119" lon="-0.37964967"><ele>13.2</ele><time>2022-11-10T15:37:32.0000000+00:00</time></trkpt><trkpt lat="39.44501119" lon="-0.3796863"><ele>13.2</ele><time>2022-11-10T15:37:33.0000000+00:00</time></trkpt><trkpt lat="39.44501068" lon="-0.37972662"><ele>13.2</ele><time>2022-11-10T15:37:34.0000000+00:00</time></trkpt><trkpt lat="39.44500649" lon="-0.37976199"><ele>13.2</ele><time>2022-11-10T15:37:35.0000000+00:00</time></trkpt><trkpt lat="39.44499157" lon="-0.37979208"><ele>13.2</ele><time>2022-11-10T15:37:36.0000000+00:00</time></trkpt><trkpt lat="39.44496224" lon="-0.37981345"><ele>13.2</ele><time>2022-11-10T15:37:37.0000000+00:00</time></trkpt><trkpt lat="39.44492276" lon="-0.37982418"><ele>13.2</ele><time>2022-11-10T15:37:38.0000000+00:00</time></trkpt><trkpt lat="39.44487674" lon="-0.37982829"><ele>13.0</ele><time>2022-11-10T15:37:39.0000000+00:00</time></trkpt><trkpt lat="39.4448298" lon="-0.37983013"><ele>13.0</ele><time>2022-11-10T15:37:40.0000000+00:00</time></trkpt><trkpt lat="39.44478211" lon="-0.37983575"><ele>13.0</ele><time>2022-11-10T15:37:41.0000000+00:00</time></trkpt><trkpt lat="39.44473467" lon="-0.37983835"><ele>12.8</ele><time>2022-11-10T15:37:42.0000000+00:00</time></trkpt><trkpt lat="39.4446858" lon="-0.37983483"><ele>12.8</ele><time>2022-11-10T15:37:43.0000000+00:00</time></trkpt><trkpt lat="39.44463207" lon="-0.37982854"><ele>12.8</ele><time>2022-11-10T15:37:44.0000000+00:00</time></trkpt><trkpt lat="39.44458002" lon="-0.37981857"><ele>12.8</ele><time>2022-11-10T15:37:45.0000000+00:00</time></trkpt><trkpt lat="39.44452889" lon="-0.37980583"><ele>12.8</ele><time>2022-11-10T15:37:46.0000000+00:00</time></trkpt><trkpt lat="39.44447785" lon="-0.3797935"><ele>12.8</ele><time>2022-11-10T15:37:47.0000000+00:00</time></trkpt><trkpt lat="39.44443024" lon="-0.37978194"><ele>13.0</ele><time>2022-11-10T15:37:48.0000000+00:00</time></trkpt><trkpt lat="39.44438238" lon="-0.37976601"><ele>13.2</ele><time>2022-11-10T15:37:49.0000000+00:00</time></trkpt><trkpt lat="39.44433016" lon="-0.37973785"><ele>13.4</ele><time>2022-11-10T15:37:50.0000000+00:00</time></trkpt><trkpt lat="39.44427333" lon="-0.37972285"><ele>13.4</ele><time>2022-11-10T15:37:51.0000000+00:00</time></trkpt><trkpt lat="39.44422446" lon="-0.37971036"><ele>13.4</ele><time>2022-11-10T15:37:52.0000000+00:00</time></trkpt><trkpt lat="39.44418113" lon="-0.37970365"><ele>13.4</ele><time>2022-11-10T15:37:53.0000000+00:00</time></trkpt><trkpt lat="39.44414743" lon="-0.37969644"><ele>13.4</ele><time>2022-11-10T15:37:54.0000000+00:00</time></trkpt><trkpt lat="39.44411424" lon="-0.37968689"><ele>13.2</ele><time>2022-11-10T15:37:55.0000000+00:00</time></trkpt><trkpt lat="39.44407878" lon="-0.37967566"><ele>13.2</ele><time>2022-11-10T15:37:56.0000000+00:00</time></trkpt><trkpt lat="39.44404165" lon="-0.37965856"><ele>13.2</ele><time>2022-11-10T15:37:57.0000000+00:00</time></trkpt><trkpt lat="39.44400251" lon="-0.37964154"><ele>13.0</ele><time>2022-11-10T15:37:58.0000000+00:00</time></trkpt><trkpt lat="39.44396077" lon="-0.37962637"><ele>13.2</ele><time>2022-11-10T15:37:59.0000000+00:00</time></trkpt><trkpt lat="39.44391743" lon="-0.37961665"><ele>13.4</ele><time>2022-11-10T15:38:00.0000000+00:00</time></trkpt><trkpt lat="39.44387259" lon="-0.3796065"><ele>13.8</ele><time>2022-11-10T15:38:01.0000000+00:00</time></trkpt><trkpt lat="39.44382448" lon="-0.37958815"><ele>14.0</ele><time>2022-11-10T15:38:02.0000000+00:00</time></trkpt><trkpt lat="39.44378265" lon="-0.37956124"><ele>14.0</ele><time>2022-11-10T15:38:03.0000000+00:00</time></trkpt><trkpt lat="39.44373379" lon="-0.37954113"><ele>14.0</ele><time>2022-11-10T15:38:04.0000000+00:00</time></trkpt><trkpt lat="39.4436897" lon="-0.37953987"><ele>14.2</ele><time>2022-11-10T15:38:05.0000000+00:00</time></trkpt><trkpt lat="39.44364393" lon="-0.37955521"><ele>14.4</ele><time>2022-11-10T15:38:06.0000000+00:00</time></trkpt><trkpt lat="39.44360521" lon="-0.37957893"><ele>14.6</ele><time>2022-11-10T15:38:07.0000000+00:00</time></trkpt><trkpt lat="39.44357076" lon="-0.37959276"><ele>14.8</ele><time>2022-11-10T15:38:08.0000000+00:00</time></trkpt><trkpt lat="39.44353396" lon="-0.37960315"><ele>15.0</ele><time>2022-11-10T15:38:09.0000000+00:00</time></trkpt><trkpt lat="39.44350035" lon="-0.37961355"><ele>15.0</ele><time>2022-11-10T15:38:10.0000000+00:00</time></trkpt><trkpt lat="39.44347202" lon="-0.37962302"><ele>15.2</ele><time>2022-11-10T15:38:11.0000000+00:00</time></trkpt><trkpt lat="39.44344495" lon="-0.37963098"><ele>15.2</ele><time>2022-11-10T15:38:12.0000000+00:00</time></trkpt><trkpt lat="39.4434219" lon="-0.37963769"><ele>15.4</ele><time>2022-11-10T15:38:13.0000000+00:00</time></trkpt><trkpt lat="39.44339641" lon="-0.37964179"><ele>15.6</ele><time>2022-11-10T15:38:14.0000000+00:00</time></trkpt><trkpt lat="39.44337035" lon="-0.37965152"><ele>15.6</ele><time>2022-11-10T15:38:15.0000000+00:00</time></trkpt><trkpt lat="39.44334386" lon="-0.37966291"><ele>15.6</ele><time>2022-11-10T15:38:16.0000000+00:00</time></trkpt><trkpt lat="39.4433188" lon="-0.37967239"><ele>15.8</ele><time>2022-11-10T15:38:17.0000000+00:00</time></trkpt><trkpt lat="39.44329759" lon="-0.37968035"><ele>15.8</ele><time>2022-11-10T15:38:18.0000000+00:00</time></trkpt><trkpt lat="39.44327043" lon="-0.37968622"><ele>16.0</ele><time>2022-11-10T15:38:19.0000000+00:00</time></trkpt><trkpt lat="39.44324328" lon="-0.379692"><ele>16.0</ele><time>2022-11-10T15:38:20.0000000+00:00</time></trkpt><trkpt lat="39.44321444" lon="-0.37969845"><ele>16.0</ele><time>2022-11-10T15:38:21.0000000+00:00</time></trkpt><trkpt lat="39.44318662" lon="-0.37970575"><ele>16.4</ele><time>2022-11-10T15:38:22.0000000+00:00</time></trkpt><trkpt lat="39.44315787" lon="-0.37971396"><ele>16.6</ele><time>2022-11-10T15:38:23.0000000+00:00</time></trkpt><trkpt lat="39.44313046" lon="-0.37972318"><ele>16.8</ele><time>2022-11-10T15:38:24.0000000+00:00</time></trkpt><trkpt lat="39.44310322" lon="-0.37973265"><ele>17.0</ele><time>2022-11-10T15:38:25.0000000+00:00</time></trkpt><trkpt lat="39.44307664" lon="-0.37973969"><ele>17.4</ele><time>2022-11-10T15:38:26.0000000+00:00</time></trkpt><trkpt lat="39.44304974" lon="-0.37974657"><ele>17.6</ele><time>2022-11-10T15:38:27.0000000+00:00</time></trkpt><trkpt lat="39.44302116" lon="-0.37975445"><ele>17.8</ele><time>2022-11-10T15:38:28.0000000+00:00</time></trkpt><trkpt lat="39.44299408" lon="-0.37976358"><ele>17.8</ele><time>2022-11-10T15:38:29.0000000+00:00</time></trkpt><trkpt lat="39.44296676" lon="-0.37977255"><ele>18.0</ele><time>2022-11-10T15:38:30.0000000+00:00</time></trkpt><trkpt lat="39.44293918" lon="-0.37978219"><ele>18.2</ele><time>2022-11-10T15:38:31.0000000+00:00</time></trkpt><trkpt lat="39.44291077" lon="-0.37979065"><ele>18.4</ele><time>2022-11-10T15:38:32.0000000+00:00</time></trkpt><trkpt lat="39.44288084" lon="-0.37979904"><ele>18.6</ele><time>2022-11-10T15:38:33.0000000+00:00</time></trkpt><trkpt lat="39.44285184" lon="-0.37980792"><ele>18.8</ele><time>2022-11-10T15:38:34.0000000+00:00</time></trkpt><trkpt lat="39.44282351" lon="-0.37981605"><ele>19.0</ele><time>2022-11-10T15:38:35.0000000+00:00</time></trkpt><trkpt lat="39.44279602" lon="-0.37982318"><ele>19.2</ele><time>2022-11-10T15:38:36.0000000+00:00</time></trkpt><trkpt lat="39.44276568" lon="-0.37983147"><ele>19.6</ele><time>2022-11-10T15:38:37.0000000+00:00</time></trkpt><trkpt lat="39.44273642" lon="-0.37984002"><ele>19.6</ele><time>2022-11-10T15:38:38.0000000+00:00</time></trkpt><trkpt lat="39.44270667" lon="-0.37984841"><ele>19.8</ele><time>2022-11-10T15:38:39.0000000+00:00</time></trkpt><trkpt lat="39.44267616" lon="-0.37986022"><ele>19.8</ele><time>2022-11-10T15:38:40.0000000+00:00</time></trkpt><trkpt lat="39.4426459" lon="-0.37986777"><ele>20.0</ele><time>2022-11-10T15:38:41.0000000+00:00</time></trkpt><trkpt lat="39.44261631" lon="-0.37987305"><ele>20.0</ele><time>2022-11-10T15:38:42.0000000+00:00</time></trkpt><trkpt lat="39.44258731" lon="-0.37988076"><ele>20.2</ele><time>2022-11-10T15:38:43.0000000+00:00</time></trkpt><trkpt lat="39.44255806" lon="-0.37988931"><ele>20.4</ele><time>2022-11-10T15:38:44.0000000+00:00</time></trkpt><trkpt lat="39.44252922" lon="-0.37989979"><ele>20.4</ele><time>2022-11-10T15:38:45.0000000+00:00</time></trkpt><trkpt lat="39.44250173" lon="-0.37991043"><ele>20.6</ele><time>2022-11-10T15:38:46.0000000+00:00</time></trkpt><trkpt lat="39.4424729" lon="-0.37991873"><ele>21.0</ele><time>2022-11-10T15:38:47.0000000+00:00</time></trkpt><trkpt lat="39.44244356" lon="-0.37992812"><ele>21.4</ele><time>2022-11-10T15:38:48.0000000+00:00</time></trkpt><trkpt lat="39.44241414" lon="-0.37993851"><ele>21.6</ele><time>2022-11-10T15:38:49.0000000+00:00</time></trkpt><trkpt lat="39.44238405" lon="-0.37994999"><ele>21.8</ele><time>2022-11-10T15:38:50.0000000+00:00</time></trkpt><trkpt lat="39.44235521" lon="-0.37996106"><ele>22.0</ele><time>2022-11-10T15:38:51.0000000+00:00</time></trkpt><trkpt lat="39.44232554" lon="-0.37997439"><ele>22.2</ele><time>2022-11-10T15:38:52.0000000+00:00</time></trkpt><trkpt lat="39.44229621" lon="-0.37999014"><ele>22.2</ele><time>2022-11-10T15:38:53.0000000+00:00</time></trkpt><trkpt lat="39.44226536" lon="-0.38000448"><ele>22.4</ele><time>2022-11-10T15:38:54.0000000+00:00</time></trkpt><trkpt lat="39.44223686" lon="-0.38001219"><ele>22.4</ele><time>2022-11-10T15:38:55.0000000+00:00</time></trkpt><trkpt lat="39.44220468" lon="-0.38002191"><ele>22.6</ele><time>2022-11-10T15:38:56.0000000+00:00</time></trkpt><trkpt lat="39.44217358" lon="-0.38003331"><ele>22.8</ele><time>2022-11-10T15:38:57.0000000+00:00</time></trkpt><trkpt lat="39.44214055" lon="-0.38004555"><ele>23.2</ele><time>2022-11-10T15:38:58.0000000+00:00</time></trkpt><trkpt lat="39.44210837" lon="-0.38005418"><ele>23.4</ele><time>2022-11-10T15:38:59.0000000+00:00</time></trkpt><trkpt lat="39.44207886" lon="-0.3800603"><ele>23.4</ele><time>2022-11-10T15:39:00.0000000+00:00</time></trkpt><trkpt lat="39.44204642" lon="-0.38007002"><ele>23.6</ele><time>2022-11-10T15:39:01.0000000+00:00</time></trkpt><trkpt lat="39.4420139" lon="-0.38008017"><ele>23.6</ele><time>2022-11-10T15:39:02.0000000+00:00</time></trkpt><trkpt lat="39.44198138" lon="-0.38009089"><ele>23.6</ele><time>2022-11-10T15:39:03.0000000+00:00</time></trkpt><trkpt lat="39.44194911" lon="-0.38010322"><ele>23.8</ele><time>2022-11-10T15:39:04.0000000+00:00</time></trkpt><trkpt lat="39.44191676" lon="-0.38011487"><ele>23.8</ele><time>2022-11-10T15:39:05.0000000+00:00</time></trkpt><trkpt lat="39.44188239" lon="-0.3801261"><ele>23.8</ele><time>2022-11-10T15:39:06.0000000+00:00</time></trkpt><trkpt lat="39.44184761" lon="-0.38013834"><ele>23.8</ele><time>2022-11-10T15:39:07.0000000+00:00</time></trkpt><trkpt lat="39.44181014" lon="-0.38014923"><ele>23.8</ele><time>2022-11-10T15:39:08.0000000+00:00</time></trkpt><trkpt lat="39.44177041" lon="-0.38016172"><ele>23.8</ele><time>2022-11-10T15:39:09.0000000+00:00</time></trkpt><trkpt lat="39.44172791" lon="-0.38017446"><ele>23.8</ele><time>2022-11-10T15:39:10.0000000+00:00</time></trkpt><trkpt lat="39.44168282" lon="-0.3801867"><ele>23.6</ele><time>2022-11-10T15:39:11.0000000+00:00</time></trkpt><trkpt lat="39.44163454" lon="-0.38020087"><ele>23.4</ele><time>2022-11-10T15:39:12.0000000+00:00</time></trkpt><trkpt lat="39.44158291" lon="-0.38021637"><ele>23.4</ele><time>2022-11-10T15:39:13.0000000+00:00</time></trkpt><trkpt lat="39.44153035" lon="-0.3802323"><ele>23.2</ele><time>2022-11-10T15:39:14.0000000+00:00</time></trkpt><trkpt lat="39.4414819" lon="-0.38024873"><ele>23.0</ele><time>2022-11-10T15:39:15.0000000+00:00</time></trkpt><trkpt lat="39.44143513" lon="-0.38026474"><ele>23.0</ele><time>2022-11-10T15:39:16.0000000+00:00</time></trkpt><trkpt lat="39.4413913" lon="-0.38027882"><ele>22.8</ele><time>2022-11-10T15:39:17.0000000+00:00</time></trkpt><trkpt lat="39.44135123" lon="-0.38029147"><ele>22.6</ele><time>2022-11-10T15:39:18.0000000+00:00</time></trkpt><trkpt lat="39.44131385" lon="-0.3803069"><ele>22.2</ele><time>2022-11-10T15:39:19.0000000+00:00</time></trkpt><trkpt lat="39.44127403" lon="-0.38032341"><ele>21.8</ele><time>2022-11-10T15:39:20.0000000+00:00</time></trkpt><trkpt lat="39.4412317" lon="-0.38033581"><ele>21.4</ele><time>2022-11-10T15:39:21.0000000+00:00</time></trkpt><trkpt lat="39.44119005" lon="-0.38035015"><ele>21.0</ele><time>2022-11-10T15:39:22.0000000+00:00</time></trkpt><trkpt lat="39.44114545" lon="-0.38036943"><ele>20.6</ele><time>2022-11-10T15:39:23.0000000+00:00</time></trkpt><trkpt lat="39.44109818" lon="-0.38038879"><ele>20.4</ele><time>2022-11-10T15:39:24.0000000+00:00</time></trkpt><trkpt lat="39.44104898" lon="-0.38040832"><ele>20.4</ele><time>2022-11-10T15:39:25.0000000+00:00</time></trkpt><trkpt lat="39.44099751" lon="-0.38042734"><ele>20.0</ele><time>2022-11-10T15:39:26.0000000+00:00</time></trkpt><trkpt lat="39.44094027" lon="-0.38044746"><ele>19.6</ele><time>2022-11-10T15:39:27.0000000+00:00</time></trkpt><trkpt lat="39.44087774" lon="-0.38046666"><ele>19.6</ele><time>2022-11-10T15:39:28.0000000+00:00</time></trkpt><trkpt lat="39.44081286" lon="-0.38048602"><ele>19.0</ele><time>2022-11-10T15:39:29.0000000+00:00</time></trkpt><trkpt lat="39.44074329" lon="-0.38050555"><ele>18.6</ele><time>2022-11-10T15:39:30.0000000+00:00</time></trkpt><trkpt lat="39.44067112" lon="-0.38052835"><ele>18.2</ele><time>2022-11-10T15:39:31.0000000+00:00</time></trkpt><trkpt lat="39.44059602" lon="-0.38055358"><ele>18.0</ele><time>2022-11-10T15:39:32.0000000+00:00</time></trkpt><trkpt lat="39.44052" lon="-0.3805809"><ele>17.8</ele><time>2022-11-10T15:39:33.0000000+00:00</time></trkpt><trkpt lat="39.44044045" lon="-0.38061267"><ele>17.4</ele><time>2022-11-10T15:39:34.0000000+00:00</time></trkpt><trkpt lat="39.44035965" lon="-0.38064418"><ele>16.6</ele><time>2022-11-10T15:39:35.0000000+00:00</time></trkpt><trkpt lat="39.44026636" lon="-0.38067319"><ele>16.2</ele><time>2022-11-10T15:39:36.0000000+00:00</time></trkpt><trkpt lat="39.44020718" lon="-0.38069339"><ele>15.8</ele><time>2022-11-10T15:39:37.0000000+00:00</time></trkpt><trkpt lat="39.44013585" lon="-0.38071862"><ele>15.4</ele><time>2022-11-10T15:39:38.0000000+00:00</time></trkpt><trkpt lat="39.44006645" lon="-0.38074116"><ele>15.0</ele><time>2022-11-10T15:39:39.0000000+00:00</time></trkpt><trkpt lat="39.44000275" lon="-0.38076195"><ele>14.4</ele><time>2022-11-10T15:39:40.0000000+00:00</time></trkpt><trkpt lat="39.43994734" lon="-0.38077871"><ele>13.8</ele><time>2022-11-10T15:39:41.0000000+00:00</time></trkpt><trkpt lat="39.43990326" lon="-0.38078643"><ele>13.2</ele><time>2022-11-10T15:39:42.0000000+00:00</time></trkpt><trkpt lat="39.43987124" lon="-0.38076958"><ele>12.2</ele><time>2022-11-10T15:39:43.0000000+00:00</time></trkpt><trkpt lat="39.43984173" lon="-0.38073504"><ele>11.6</ele><time>2022-11-10T15:39:44.0000000+00:00</time></trkpt><trkpt lat="39.43981902" lon="-0.38069137"><ele>11.4</ele><time>2022-11-10T15:39:45.0000000+00:00</time></trkpt><trkpt lat="39.43980276" lon="-0.3806493"><ele>11.2</ele><time>2022-11-10T15:39:46.0000000+00:00</time></trkpt><trkpt lat="39.439788" lon="-0.38062038"><ele>11.2</ele><time>2022-11-10T15:39:47.0000000+00:00</time></trkpt><trkpt lat="39.4397735" lon="-0.38060445"><ele>11.2</ele><time>2022-11-10T15:39:48.0000000+00:00</time></trkpt><trkpt lat="39.43976646" lon="-0.38060001"><ele>11.4</ele><time>2022-11-10T15:39:49.0000000+00:00</time></trkpt><trkpt lat="39.43976646" lon="-0.38060001"><ele>11.4</ele><time>2022-11-10T15:39:50.0000000+00:00</time></trkpt><trkpt lat="39.43976646" lon="-0.38060001"><ele>11.6</ele><time>2022-11-10T15:39:51.0000000+00:00</time></trkpt><trkpt lat="39.43976646" lon="-0.38060001"><ele>11.8</ele><time>2022-11-10T15:39:52.0000000+00:00</time></trkpt><trkpt lat="39.43976646" lon="-0.38060001"><ele>11.8</ele><time>2022-11-10T15:39:53.0000000+00:00</time></trkpt><trkpt lat="39.43976387" lon="-0.38059523"><ele>11.8</ele><time>2022-11-10T15:39:54.0000000+00:00</time></trkpt><trkpt lat="39.43975339" lon="-0.38058786"><ele>11.8</ele><time>2022-11-10T15:39:55.0000000+00:00</time></trkpt><trkpt lat="39.43973235" lon="-0.38058048"><ele>11.8</ele><time>2022-11-10T15:39:56.0000000+00:00</time></trkpt><trkpt lat="39.43970989" lon="-0.38057897"><ele>11.8</ele><time>2022-11-10T15:39:57.0000000+00:00</time></trkpt><trkpt lat="39.43968449" lon="-0.38057663"><ele>11.8</ele><time>2022-11-10T15:39:58.0000000+00:00</time></trkpt><trkpt lat="39.43965456" lon="-0.38056799"><ele>11.8</ele><time>2022-11-10T15:39:59.0000000+00:00</time></trkpt><trkpt lat="39.43962246" lon="-0.38055902"><ele>11.4</ele><time>2022-11-10T15:40:00.0000000+00:00</time></trkpt><trkpt lat="39.43958902" lon="-0.38054913"><ele>11.2</ele><time>2022-11-10T15:40:01.0000000+00:00</time></trkpt><trkpt lat="39.43954853" lon="-0.38053187"><ele>11.0</ele><time>2022-11-10T15:40:02.0000000+00:00</time></trkpt><trkpt lat="39.43951844" lon="-0.38052323"><ele>10.8</ele><time>2022-11-10T15:40:03.0000000+00:00</time></trkpt><trkpt lat="39.43948307" lon="-0.38052114"><ele>10.8</ele><time>2022-11-10T15:40:04.0000000+00:00</time></trkpt><trkpt lat="39.43944535" lon="-0.38053773"><ele>10.8</ele><time>2022-11-10T15:40:05.0000000+00:00</time></trkpt><trkpt lat="39.43940814" lon="-0.38056665"><ele>11.0</ele><time>2022-11-10T15:40:06.0000000+00:00</time></trkpt><trkpt lat="39.43937025" lon="-0.380598"><ele>11.0</ele><time>2022-11-10T15:40:07.0000000+00:00</time></trkpt><trkpt lat="39.43932775" lon="-0.38062952"><ele>11.0</ele><time>2022-11-10T15:40:08.0000000+00:00</time></trkpt><trkpt lat="39.43928727" lon="-0.38065986"><ele>11.0</ele><time>2022-11-10T15:40:09.0000000+00:00</time></trkpt><trkpt lat="39.43924653" lon="-0.38068819"><ele>11.0</ele><time>2022-11-10T15:40:10.0000000+00:00</time></trkpt><trkpt lat="39.43921032" lon="-0.38071392"><ele>11.0</ele><time>2022-11-10T15:40:11.0000000+00:00</time></trkpt><trkpt lat="39.43918727" lon="-0.38074074"><ele>11.0</ele><time>2022-11-10T15:40:12.0000000+00:00</time></trkpt><trkpt lat="39.43916741" lon="-0.38077528"><ele>11.0</ele><time>2022-11-10T15:40:13.0000000+00:00</time></trkpt><trkpt lat="39.43916104" lon="-0.38080403"><ele>11.0</ele><time>2022-11-10T15:40:14.0000000+00:00</time></trkpt><trkpt lat="39.43915417" lon="-0.38083789"><ele>10.8</ele><time>2022-11-10T15:40:15.0000000+00:00</time></trkpt><trkpt lat="39.43915073" lon="-0.38086505"><ele>10.8</ele><time>2022-11-10T15:40:16.0000000+00:00</time></trkpt><trkpt lat="39.43915064" lon="-0.38088743"><ele>10.8</ele><time>2022-11-10T15:40:17.0000000+00:00</time></trkpt><trkpt lat="39.43915064" lon="-0.38091232"><ele>10.8</ele><time>2022-11-10T15:40:18.0000000+00:00</time></trkpt><trkpt lat="39.43915199" lon="-0.38093906"><ele>10.8</ele><time>2022-11-10T15:40:19.0000000+00:00</time></trkpt><trkpt lat="39.43915484" lon="-0.38096789"><ele>10.6</ele><time>2022-11-10T15:40:20.0000000+00:00</time></trkpt><trkpt lat="39.4391566" lon="-0.38100913"><ele>10.6</ele><time>2022-11-10T15:40:21.0000000+00:00</time></trkpt><trkpt lat="39.4391576" lon="-0.38103897"><ele>10.6</ele><time>2022-11-10T15:40:22.0000000+00:00</time></trkpt><trkpt lat="39.43916406" lon="-0.38108273"><ele>10.6</ele><time>2022-11-10T15:40:23.0000000+00:00</time></trkpt><trkpt lat="39.43917261" lon="-0.38112707"><ele>10.6</ele><time>2022-11-10T15:40:24.0000000+00:00</time></trkpt><trkpt lat="39.43918375" lon="-0.38117493"><ele>10.6</ele><time>2022-11-10T15:40:25.0000000+00:00</time></trkpt><trkpt lat="39.43920102" lon="-0.38122354"><ele>10.6</ele><time>2022-11-10T15:40:26.0000000+00:00</time></trkpt><trkpt lat="39.43921569" lon="-0.38126947"><ele>10.6</ele><time>2022-11-10T15:40:27.0000000+00:00</time></trkpt><trkpt lat="39.43922943" lon="-0.38131365"><ele>10.6</ele><time>2022-11-10T15:40:28.0000000+00:00</time></trkpt><trkpt lat="39.43923941" lon="-0.38135757"><ele>10.6</ele><time>2022-11-10T15:40:29.0000000+00:00</time></trkpt><trkpt lat="39.4392405" lon="-0.38139939"><ele>10.6</ele><time>2022-11-10T15:40:30.0000000+00:00</time></trkpt><trkpt lat="39.4392467" lon="-0.38143242"><ele>10.6</ele><time>2022-11-10T15:40:31.0000000+00:00</time></trkpt><trkpt lat="39.43925207" lon="-0.38145773"><ele>10.6</ele><time>2022-11-10T15:40:32.0000000+00:00</time></trkpt><trkpt lat="39.43925391" lon="-0.38147776"><ele>10.6</ele><time>2022-11-10T15:40:33.0000000+00:00</time></trkpt><trkpt lat="39.43926171" lon="-0.38149595"><ele>10.6</ele><time>2022-11-10T15:40:34.0000000+00:00</time></trkpt><trkpt lat="39.43928056" lon="-0.38151632"><ele>10.8</ele><time>2022-11-10T15:40:35.0000000+00:00</time></trkpt><trkpt lat="39.43930998" lon="-0.38153376"><ele>10.8</ele><time>2022-11-10T15:40:36.0000000+00:00</time></trkpt><trkpt lat="39.43933815" lon="-0.38155002"><ele>11.2</ele><time>2022-11-10T15:40:37.0000000+00:00</time></trkpt><trkpt lat="39.43936832" lon="-0.38156049"><ele>11.4</ele><time>2022-11-10T15:40:38.0000000+00:00</time></trkpt><trkpt lat="39.43940068" lon="-0.38155966"><ele>11.4</ele><time>2022-11-10T15:40:39.0000000+00:00</time></trkpt><trkpt lat="39.43943345" lon="-0.38155463"><ele>11.4</ele><time>2022-11-10T15:40:40.0000000+00:00</time></trkpt><trkpt lat="39.43946857" lon="-0.38155261"><ele>11.6</ele><time>2022-11-10T15:40:41.0000000+00:00</time></trkpt><trkpt lat="39.43950512" lon="-0.38155446"><ele>11.6</ele><time>2022-11-10T15:40:42.0000000+00:00</time></trkpt><trkpt lat="39.43954216" lon="-0.38155806"><ele>11.6</ele><time>2022-11-10T15:40:43.0000000+00:00</time></trkpt><trkpt lat="39.43958131" lon="-0.38156536"><ele>11.6</ele><time>2022-11-10T15:40:44.0000000+00:00</time></trkpt><trkpt lat="39.43961752" lon="-0.38157139"><ele>11.8</ele><time>2022-11-10T15:40:45.0000000+00:00</time></trkpt><trkpt lat="39.43965088" lon="-0.38157851"><ele>11.8</ele><time>2022-11-10T15:40:46.0000000+00:00</time></trkpt><trkpt lat="39.43968189" lon="-0.38159385"><ele>12.0</ele><time>2022-11-10T15:40:47.0000000+00:00</time></trkpt><trkpt lat="39.43970771" lon="-0.3816164"><ele>12.0</ele><time>2022-11-10T15:40:48.0000000+00:00</time></trkpt><trkpt lat="39.43972673" lon="-0.38163777"><ele>12.0</ele><time>2022-11-10T15:40:49.0000000+00:00</time></trkpt><trkpt lat="39.43973537" lon="-0.38165077"><ele>12.0</ele><time>2022-11-10T15:40:50.0000000+00:00</time></trkpt><trkpt lat="39.43974048" lon="-0.38166476"><ele>12.0</ele><time>2022-11-10T15:40:51.0000000+00:00</time></trkpt><trkpt lat="39.43974811" lon="-0.38169025"><ele>11.6</ele><time>2022-11-10T15:40:52.0000000+00:00</time></trkpt><trkpt lat="39.43975188" lon="-0.38172646"><ele>11.6</ele><time>2022-11-10T15:40:53.0000000+00:00</time></trkpt><trkpt lat="39.43975674" lon="-0.38176945"><ele>11.4</ele><time>2022-11-10T15:40:54.0000000+00:00</time></trkpt><trkpt lat="39.43976848" lon="-0.38181631"><ele>11.4</ele><time>2022-11-10T15:40:55.0000000+00:00</time></trkpt><trkpt lat="39.43977837" lon="-0.38186744"><ele>11.2</ele><time>2022-11-10T15:40:56.0000000+00:00</time></trkpt><trkpt lat="39.43978943" lon="-0.38192435"><ele>11.2</ele><time>2022-11-10T15:40:57.0000000+00:00</time></trkpt><trkpt lat="39.43979974" lon="-0.38198546"><ele>11.2</ele><time>2022-11-10T15:40:58.0000000+00:00</time></trkpt><trkpt lat="39.43981231" lon="-0.38204589"><ele>11.2</ele><time>2022-11-10T15:40:59.0000000+00:00</time></trkpt><trkpt lat="39.43982229" lon="-0.38210674"><ele>11.2</ele><time>2022-11-10T15:41:00.0000000+00:00</time></trkpt><trkpt lat="39.4398191" lon="-0.38217304"><ele>11.0</ele><time>2022-11-10T15:41:01.0000000+00:00</time></trkpt><trkpt lat="39.43982061" lon="-0.38224069"><ele>11.0</ele><time>2022-11-10T15:41:02.0000000+00:00</time></trkpt><trkpt lat="39.43982849" lon="-0.38230757"><ele>11.0</ele><time>2022-11-10T15:41:03.0000000+00:00</time></trkpt><trkpt lat="39.43983863" lon="-0.38237228"><ele>10.8</ele><time>2022-11-10T15:41:04.0000000+00:00</time></trkpt><trkpt lat="39.43984794" lon="-0.38243422"><ele>10.8</ele><time>2022-11-10T15:41:05.0000000+00:00</time></trkpt><trkpt lat="39.43985841" lon="-0.38249508"><ele>10.8</ele><time>2022-11-10T15:41:06.0000000+00:00</time></trkpt><trkpt lat="39.43986755" lon="-0.38255408"><ele>10.8</ele><time>2022-11-10T15:41:07.0000000+00:00</time></trkpt><trkpt lat="39.43988163" lon="-0.38261544"><ele>10.8</ele><time>2022-11-10T15:41:08.0000000+00:00</time></trkpt><trkpt lat="39.43989689" lon="-0.3826892"><ele>11.0</ele><time>2022-11-10T15:41:09.0000000+00:00</time></trkpt><trkpt lat="39.43990602" lon="-0.38275106"><ele>11.0</ele><time>2022-11-10T15:41:10.0000000+00:00</time></trkpt><trkpt lat="39.43991692" lon="-0.38281133"><ele>11.2</ele><time>2022-11-10T15:41:11.0000000+00:00</time></trkpt><trkpt lat="39.4399253" lon="-0.38287276"><ele>11.2</ele><time>2022-11-10T15:41:12.0000000+00:00</time></trkpt><trkpt lat="39.43993469" lon="-0.3829218"><ele>11.2</ele><time>2022-11-10T15:41:13.0000000+00:00</time></trkpt><trkpt lat="39.43994911" lon="-0.38299531"><ele>11.2</ele><time>2022-11-10T15:41:14.0000000+00:00</time></trkpt><trkpt lat="39.43996352" lon="-0.38304233"><ele>11.2</ele><time>2022-11-10T15:41:15.0000000+00:00</time></trkpt><trkpt lat="39.43997467" lon="-0.38311617"><ele>11.2</ele><time>2022-11-10T15:41:16.0000000+00:00</time></trkpt><trkpt lat="39.43997987" lon="-0.3831658"><ele>11.2</ele><time>2022-11-10T15:41:17.0000000+00:00</time></trkpt><trkpt lat="39.43998599" lon="-0.38322548"><ele>11.2</ele><time>2022-11-10T15:41:18.0000000+00:00</time></trkpt><trkpt lat="39.43999294" lon="-0.38328817"><ele>11.2</ele><time>2022-11-10T15:41:19.0000000+00:00</time></trkpt><trkpt lat="39.43999185" lon="-0.38336788"><ele>11.2</ele><time>2022-11-10T15:41:20.0000000+00:00</time></trkpt><trkpt lat="39.43999244" lon="-0.38342555"><ele>11.0</ele><time>2022-11-10T15:41:21.0000000+00:00</time></trkpt><trkpt lat="39.43999386" lon="-0.38349588"><ele>11.0</ele><time>2022-11-10T15:41:22.0000000+00:00</time></trkpt><trkpt lat="39.43999873" lon="-0.38356276"><ele>11.0</ele><time>2022-11-10T15:41:23.0000000+00:00</time></trkpt><trkpt lat="39.44000401" lon="-0.38362797"><ele>11.0</ele><time>2022-11-10T15:41:24.0000000+00:00</time></trkpt><trkpt lat="39.44001155" lon="-0.38369084"><ele>11.0</ele><time>2022-11-10T15:41:25.0000000+00:00</time></trkpt><trkpt lat="39.44001499" lon="-0.38375538"><ele>11.0</ele><time>2022-11-10T15:41:26.0000000+00:00</time></trkpt><trkpt lat="39.44002094" lon="-0.38382202"><ele>11.2</ele><time>2022-11-10T15:41:27.0000000+00:00</time></trkpt><trkpt lat="39.44002714" lon="-0.38388974"><ele>11.2</ele><time>2022-11-10T15:41:28.0000000+00:00</time></trkpt><trkpt lat="39.44003276" lon="-0.38396048"><ele>11.4</ele><time>2022-11-10T15:41:29.0000000+00:00</time></trkpt><trkpt lat="39.44003552" lon="-0.38403181"><ele>11.4</ele><time>2022-11-10T15:41:30.0000000+00:00</time></trkpt><trkpt lat="39.44003795" lon="-0.38410557"><ele>11.6</ele><time>2022-11-10T15:41:31.0000000+00:00</time></trkpt><trkpt lat="39.44004533" lon="-0.38417623"><ele>11.6</ele><time>2022-11-10T15:41:32.0000000+00:00</time></trkpt><trkpt lat="39.44005539" lon="-0.38424329"><ele>11.6</ele><time>2022-11-10T15:41:33.0000000+00:00</time></trkpt><trkpt lat="39.4400636" lon="-0.38430833"><ele>11.8</ele><time>2022-11-10T15:41:34.0000000+00:00</time></trkpt><trkpt lat="39.44006746" lon="-0.38437698"><ele>12.0</ele><time>2022-11-10T15:41:35.0000000+00:00</time></trkpt><trkpt lat="39.44007517" lon="-0.38443892"><ele>12.0</ele><time>2022-11-10T15:41:36.0000000+00:00</time></trkpt><trkpt lat="39.4400828" lon="-0.38450095"><ele>12.0</ele><time>2022-11-10T15:41:37.0000000+00:00</time></trkpt><trkpt lat="39.44008724" lon="-0.38457396"><ele>12.0</ele><time>2022-11-10T15:41:38.0000000+00:00</time></trkpt><trkpt lat="39.44009654" lon="-0.38465568"><ele>12.2</ele><time>2022-11-10T15:41:39.0000000+00:00</time></trkpt><trkpt lat="39.44010057" lon="-0.38470899"><ele>12.2</ele><time>2022-11-10T15:41:40.0000000+00:00</time></trkpt><trkpt lat="39.440104" lon="-0.3847747"><ele>12.2</ele><time>2022-11-10T15:41:41.0000000+00:00</time></trkpt><trkpt lat="39.44010216" lon="-0.38484343"><ele>12.2</ele><time>2022-11-10T15:41:42.0000000+00:00</time></trkpt><trkpt lat="39.4401066" lon="-0.38491041"><ele>12.4</ele><time>2022-11-10T15:41:43.0000000+00:00</time></trkpt><trkpt lat="39.44010811" lon="-0.38497662"><ele>12.4</ele><time>2022-11-10T15:41:44.0000000+00:00</time></trkpt><trkpt lat="39.44010794" lon="-0.3850415"><ele>12.6</ele><time>2022-11-10T15:41:45.0000000+00:00</time></trkpt><trkpt lat="39.44010476" lon="-0.38509606"><ele>12.6</ele><time>2022-11-10T15:41:46.0000000+00:00</time></trkpt><trkpt lat="39.44009068" lon="-0.38514216"><ele>12.6</ele><time>2022-11-10T15:41:47.0000000+00:00</time></trkpt><trkpt lat="39.44007358" lon="-0.38518391"><ele>12.6</ele><time>2022-11-10T15:41:48.0000000+00:00</time></trkpt><trkpt lat="39.44005799" lon="-0.38522372"><ele>12.6</ele><time>2022-11-10T15:41:49.0000000+00:00</time></trkpt><trkpt lat="39.44004223" lon="-0.38526353"><ele>12.4</ele><time>2022-11-10T15:41:50.0000000+00:00</time></trkpt><trkpt lat="39.44003996" lon="-0.38529824"><ele>12.4</ele><time>2022-11-10T15:41:51.0000000+00:00</time></trkpt><trkpt lat="39.44004516" lon="-0.38532556"><ele>12.4</ele><time>2022-11-10T15:41:52.0000000+00:00</time></trkpt><trkpt lat="39.44004575" lon="-0.38534978"><ele>12.4</ele><time>2022-11-10T15:41:53.0000000+00:00</time></trkpt><trkpt lat="39.44004147" lon="-0.38537267"><ele>12.2</ele><time>2022-11-10T15:41:54.0000000+00:00</time></trkpt><trkpt lat="39.44003116" lon="-0.38539304"><ele>12.2</ele><time>2022-11-10T15:41:55.0000000+00:00</time></trkpt><trkpt lat="39.44000686" lon="-0.38540846"><ele>12.0</ele><time>2022-11-10T15:41:56.0000000+00:00</time></trkpt><trkpt lat="39.43997936" lon="-0.38542522"><ele>12.0</ele><time>2022-11-10T15:41:57.0000000+00:00</time></trkpt><trkpt lat="39.43994466" lon="-0.38544308"><ele>11.8</ele><time>2022-11-10T15:41:58.0000000+00:00</time></trkpt><trkpt lat="39.43991088" lon="-0.38546353"><ele>11.6</ele><time>2022-11-10T15:41:59.0000000+00:00</time></trkpt><trkpt lat="39.43987174" lon="-0.38548364"><ele>11.6</ele><time>2022-11-10T15:42:00.0000000+00:00</time></trkpt><trkpt lat="39.43983268" lon="-0.3855046"><ele>11.4</ele><time>2022-11-10T15:42:01.0000000+00:00</time></trkpt><trkpt lat="39.43979052" lon="-0.38552337"><ele>11.4</ele><time>2022-11-10T15:42:02.0000000+00:00</time></trkpt><trkpt lat="39.43974668" lon="-0.38554072"><ele>11.4</ele><time>2022-11-10T15:42:03.0000000+00:00</time></trkpt><trkpt lat="39.4397036" lon="-0.38555774"><ele>11.6</ele><time>2022-11-10T15:42:04.0000000+00:00</time></trkpt><trkpt lat="39.43966144" lon="-0.38556813"><ele>11.8</ele><time>2022-11-10T15:42:05.0000000+00:00</time></trkpt><trkpt lat="39.4396228" lon="-0.38556553"><ele>12.0</ele><time>2022-11-10T15:42:06.0000000+00:00</time></trkpt><trkpt lat="39.43958114" lon="-0.38556109"><ele>12.0</ele><time>2022-11-10T15:42:07.0000000+00:00</time></trkpt><trkpt lat="39.43954057" lon="-0.38556268"><ele>12.0</ele><time>2022-11-10T15:42:08.0000000+00:00</time></trkpt><trkpt lat="39.4395" lon="-0.38556327"><ele>12.2</ele><time>2022-11-10T15:42:09.0000000+00:00</time></trkpt><trkpt lat="39.43945684" lon="-0.38555925"><ele>12.0</ele><time>2022-11-10T15:42:10.0000000+00:00</time></trkpt><trkpt lat="39.43941333" lon="-0.38556034"><ele>11.8</ele><time>2022-11-10T15:42:11.0000000+00:00</time></trkpt><trkpt lat="39.43937084" lon="-0.38556838"><ele>11.8</ele><time>2022-11-10T15:42:12.0000000+00:00</time></trkpt><trkpt lat="39.43932767" lon="-0.3855761"><ele>12.0</ele><time>2022-11-10T15:42:13.0000000+00:00</time></trkpt><trkpt lat="39.43928157" lon="-0.38558406"><ele>12.0</ele><time>2022-11-10T15:42:14.0000000+00:00</time></trkpt><trkpt lat="39.43923606" lon="-0.38559403"><ele>12.2</ele><time>2022-11-10T15:42:15.0000000+00:00</time></trkpt><trkpt lat="39.43919012" lon="-0.38560585"><ele>12.2</ele><time>2022-11-10T15:42:16.0000000+00:00</time></trkpt><trkpt lat="39.4391457" lon="-0.38562588"><ele>12.2</ele><time>2022-11-10T15:42:17.0000000+00:00</time></trkpt><trkpt lat="39.43910949" lon="-0.38565874"><ele>12.0</ele><time>2022-11-10T15:42:18.0000000+00:00</time></trkpt><trkpt lat="39.43908124" lon="-0.38570543"><ele>11.8</ele><time>2022-11-10T15:42:19.0000000+00:00</time></trkpt><trkpt lat="39.43905409" lon="-0.38574834"><ele>11.6</ele><time>2022-11-10T15:42:20.0000000+00:00</time></trkpt><trkpt lat="39.43901913" lon="-0.38577994"><ele>11.6</ele><time>2022-11-10T15:42:21.0000000+00:00</time></trkpt><trkpt lat="39.43897798" lon="-0.3858004"><ele>11.6</ele><time>2022-11-10T15:42:22.0000000+00:00</time></trkpt><trkpt lat="39.43893716" lon="-0.38581255"><ele>11.6</ele><time>2022-11-10T15:42:23.0000000+00:00</time></trkpt><trkpt lat="39.43889508" lon="-0.38582034"><ele>11.6</ele><time>2022-11-10T15:42:24.0000000+00:00</time></trkpt><trkpt lat="39.43885225" lon="-0.38582521"><ele>11.6</ele><time>2022-11-10T15:42:25.0000000+00:00</time></trkpt><trkpt lat="39.43880665" lon="-0.38583107"><ele>11.4</ele><time>2022-11-10T15:42:26.0000000+00:00</time></trkpt><trkpt lat="39.43876181" lon="-0.38583015"><ele>11.6</ele><time>2022-11-10T15:42:27.0000000+00:00</time></trkpt><trkpt lat="39.43871982" lon="-0.38582185"><ele>11.6</ele><time>2022-11-10T15:42:28.0000000+00:00</time></trkpt><trkpt lat="39.43868268" lon="-0.38580685"><ele>11.6</ele><time>2022-11-10T15:42:29.0000000+00:00</time></trkpt><trkpt lat="39.43865108" lon="-0.38579159"><ele>11.6</ele><time>2022-11-10T15:42:30.0000000+00:00</time></trkpt><trkpt lat="39.43862183" lon="-0.38578321"><ele>11.6</ele><time>2022-11-10T15:42:31.0000000+00:00</time></trkpt><trkpt lat="39.43859794" lon="-0.38578581"><ele>11.8</ele><time>2022-11-10T15:42:32.0000000+00:00</time></trkpt><trkpt lat="39.43858227" lon="-0.38579973"><ele>11.8</ele><time>2022-11-10T15:42:33.0000000+00:00</time></trkpt><trkpt lat="39.43857405" lon="-0.38582537"><ele>12.0</ele><time>2022-11-10T15:42:34.0000000+00:00</time></trkpt><trkpt lat="39.43857766" lon="-0.38585999"><ele>12.0</ele><time>2022-11-10T15:42:35.0000000+00:00</time></trkpt><trkpt lat="39.43859585" lon="-0.38589855"><ele>12.0</ele><time>2022-11-10T15:42:36.0000000+00:00</time></trkpt><trkpt lat="39.43862342" lon="-0.38593425"><ele>12.2</ele><time>2022-11-10T15:42:37.0000000+00:00</time></trkpt><trkpt lat="39.43865771" lon="-0.3859568"><ele>12.2</ele><time>2022-11-10T15:42:38.0000000+00:00</time></trkpt><trkpt lat="39.43869593" lon="-0.38596552"><ele>12.2</ele><time>2022-11-10T15:42:39.0000000+00:00</time></trkpt><trkpt lat="39.43873423" lon="-0.3859656"><ele>12.2</ele><time>2022-11-10T15:42:40.0000000+00:00</time></trkpt><trkpt lat="39.43877346" lon="-0.38596083"><ele>12.2</ele><time>2022-11-10T15:42:41.0000000+00:00</time></trkpt><trkpt lat="39.43881445" lon="-0.38595026"><ele>12.2</ele><time>2022-11-10T15:42:42.0000000+00:00</time></trkpt><trkpt lat="39.43885267" lon="-0.38593878"><ele>12.2</ele><time>2022-11-10T15:42:43.0000000+00:00</time></trkpt><trkpt lat="39.43889131" lon="-0.38591858"><ele>12.2</ele><time>2022-11-10T15:42:44.0000000+00:00</time></trkpt><trkpt lat="39.43893523" lon="-0.38589821"><ele>12.2</ele><time>2022-11-10T15:42:45.0000000+00:00</time></trkpt><trkpt lat="39.43898385" lon="-0.38587877"><ele>12.4</ele><time>2022-11-10T15:42:46.0000000+00:00</time></trkpt><trkpt lat="39.43903053" lon="-0.38586267"><ele>12.4</ele><time>2022-11-10T15:42:47.0000000+00:00</time></trkpt><trkpt lat="39.43907378" lon="-0.38584633"><ele>12.4</ele><time>2022-11-10T15:42:48.0000000+00:00</time></trkpt><trkpt lat="39.43911117" lon="-0.38582143"><ele>12.4</ele><time>2022-11-10T15:42:49.0000000+00:00</time></trkpt><trkpt lat="39.43914042" lon="-0.38580366"><ele>12.4</ele><time>2022-11-10T15:42:50.0000000+00:00</time></trkpt><trkpt lat="39.43916858" lon="-0.38579268"><ele>12.6</ele><time>2022-11-10T15:42:51.0000000+00:00</time></trkpt><trkpt lat="39.4391939" lon="-0.38577424"><ele>12.6</ele><time>2022-11-10T15:42:52.0000000+00:00</time></trkpt><trkpt lat="39.43921477" lon="-0.38575019"><ele>12.8</ele><time>2022-11-10T15:42:53.0000000+00:00</time></trkpt><trkpt lat="39.43923689" lon="-0.38572672"><ele>12.8</ele><time>2022-11-10T15:42:54.0000000+00:00</time></trkpt><trkpt lat="39.43926799" lon="-0.38570685"><ele>12.8</ele><time>2022-11-10T15:42:55.0000000+00:00</time></trkpt><trkpt lat="39.4393047" lon="-0.38569336"><ele>13.0</ele><time>2022-11-10T15:42:56.0000000+00:00</time></trkpt><trkpt lat="39.4393441" lon="-0.38568238"><ele>13.0</ele><time>2022-11-10T15:42:57.0000000+00:00</time></trkpt><trkpt lat="39.43938559" lon="-0.38567408"><ele>13.0</ele><time>2022-11-10T15:42:58.0000000+00:00</time></trkpt><trkpt lat="39.43942674" lon="-0.38566276"><ele>13.0</ele><time>2022-11-10T15:42:59.0000000+00:00</time></trkpt><trkpt lat="39.43946622" lon="-0.38564843"><ele>13.0</ele><time>2022-11-10T15:43:00.0000000+00:00</time></trkpt><trkpt lat="39.4395088" lon="-0.38563443"><ele>13.2</ele><time>2022-11-10T15:43:01.0000000+00:00</time></trkpt><trkpt lat="39.43955365" lon="-0.3856227"><ele>13.2</ele><time>2022-11-10T15:43:02.0000000+00:00</time></trkpt><trkpt lat="39.43959941" lon="-0.38561013"><ele>13.0</ele><time>2022-11-10T15:43:03.0000000+00:00</time></trkpt><trkpt lat="39.43964392" lon="-0.38559462"><ele>13.0</ele><time>2022-11-10T15:43:04.0000000+00:00</time></trkpt><trkpt lat="39.43968843" lon="-0.38557811"><ele>13.0</ele><time>2022-11-10T15:43:05.0000000+00:00</time></trkpt><trkpt lat="39.43973428" lon="-0.38556025"><ele>13.2</ele><time>2022-11-10T15:43:06.0000000+00:00</time></trkpt><trkpt lat="39.43977753" lon="-0.38554072"><ele>13.2</ele><time>2022-11-10T15:43:07.0000000+00:00</time></trkpt><trkpt lat="39.43982212" lon="-0.38551902"><ele>13.2</ele><time>2022-11-10T15:43:08.0000000+00:00</time></trkpt><trkpt lat="39.43986855" lon="-0.38549496"><ele>13.2</ele><time>2022-11-10T15:43:09.0000000+00:00</time></trkpt><trkpt lat="39.43991114" lon="-0.38547141"><ele>13.2</ele><time>2022-11-10T15:43:10.0000000+00:00</time></trkpt><trkpt lat="39.43995698" lon="-0.38544551"><ele>13.4</ele><time>2022-11-10T15:43:11.0000000+00:00</time></trkpt><trkpt lat="39.4399999" lon="-0.38541701"><ele>13.4</ele><time>2022-11-10T15:43:12.0000000+00:00</time></trkpt><trkpt lat="39.4400434" lon="-0.3853927"><ele>13.4</ele><time>2022-11-10T15:43:13.0000000+00:00</time></trkpt><trkpt lat="39.4400864" lon="-0.38537619"><ele>13.4</ele><time>2022-11-10T15:43:14.0000000+00:00</time></trkpt><trkpt lat="39.44013091" lon="-0.38536864"><ele>13.4</ele><time>2022-11-10T15:43:15.0000000+00:00</time></trkpt><trkpt lat="39.44017299" lon="-0.38536655"><ele>13.4</ele><time>2022-11-10T15:43:16.0000000+00:00</time></trkpt><trkpt lat="39.44020953" lon="-0.38536881"><ele>13.4</ele><time>2022-11-10T15:43:17.0000000+00:00</time></trkpt><trkpt lat="39.44023711" lon="-0.38537527"><ele>13.4</ele><time>2022-11-10T15:43:18.0000000+00:00</time></trkpt><trkpt lat="39.44025756" lon="-0.38537703"><ele>13.4</ele><time>2022-11-10T15:43:19.0000000+00:00</time></trkpt><trkpt lat="39.44027323" lon="-0.38537116"><ele>13.2</ele><time>2022-11-10T15:43:20.0000000+00:00</time></trkpt><trkpt lat="39.44028472" lon="-0.38536529"><ele>13.0</ele><time>2022-11-10T15:43:21.0000000+00:00</time></trkpt><trkpt lat="39.44029486" lon="-0.3853616"><ele>12.8</ele><time>2022-11-10T15:43:22.0000000+00:00</time></trkpt><trkpt lat="39.44030643" lon="-0.38536253"><ele>12.8</ele><time>2022-11-10T15:43:23.0000000+00:00</time></trkpt><trkpt lat="39.44032084" lon="-0.38537166"><ele>12.6</ele><time>2022-11-10T15:43:24.0000000+00:00</time></trkpt><trkpt lat="39.44034088" lon="-0.38538641"><ele>12.6</ele><time>2022-11-10T15:43:25.0000000+00:00</time></trkpt><trkpt lat="39.44036678" lon="-0.38539354"><ele>12.6</ele><time>2022-11-10T15:43:26.0000000+00:00</time></trkpt><trkpt lat="39.44039737" lon="-0.38538155"><ele>12.6</ele><time>2022-11-10T15:43:27.0000000+00:00</time></trkpt><trkpt lat="39.44042922" lon="-0.38535121"><ele>12.6</ele><time>2022-11-10T15:43:28.0000000+00:00</time></trkpt><trkpt lat="39.44046442" lon="-0.38531366"><ele>12.6</ele><time>2022-11-10T15:43:29.0000000+00:00</time></trkpt><trkpt lat="39.44049946" lon="-0.38527208"><ele>12.6</ele><time>2022-11-10T15:43:30.0000000+00:00</time></trkpt><trkpt lat="39.44053441" lon="-0.38523478"><ele>12.6</ele><time>2022-11-10T15:43:31.0000000+00:00</time></trkpt><trkpt lat="39.44056702" lon="-0.38519975"><ele>12.4</ele><time>2022-11-10T15:43:32.0000000+00:00</time></trkpt><trkpt lat="39.44059501" lon="-0.38517175"><ele>12.4</ele><time>2022-11-10T15:43:33.0000000+00:00</time></trkpt><trkpt lat="39.44061865" lon="-0.38514988"><ele>12.2</ele><time>2022-11-10T15:43:34.0000000+00:00</time></trkpt><trkpt lat="39.44063558" lon="-0.38513077"><ele>12.0</ele><time>2022-11-10T15:43:35.0000000+00:00</time></trkpt><trkpt lat="39.44065226" lon="-0.38511274"><ele>12.0</ele><time>2022-11-10T15:43:36.0000000+00:00</time></trkpt><trkpt lat="39.44066685" lon="-0.38509363"><ele>11.8</ele><time>2022-11-10T15:43:37.0000000+00:00</time></trkpt><trkpt lat="39.44068026" lon="-0.38507855"><ele>11.8</ele><time>2022-11-10T15:43:38.0000000+00:00</time></trkpt><trkpt lat="39.4406992" lon="-0.38507226"><ele>11.8</ele><time>2022-11-10T15:43:39.0000000+00:00</time></trkpt><trkpt lat="39.4407246" lon="-0.38507578"><ele>11.6</ele><time>2022-11-10T15:43:40.0000000+00:00</time></trkpt><trkpt lat="39.44075109" lon="-0.38509741"><ele>11.4</ele><time>2022-11-10T15:43:41.0000000+00:00</time></trkpt><trkpt lat="39.44077598" lon="-0.38513202"><ele>11.4</ele><time>2022-11-10T15:43:42.0000000+00:00</time></trkpt><trkpt lat="39.44080582" lon="-0.38517988"><ele>11.4</ele><time>2022-11-10T15:43:43.0000000+00:00</time></trkpt><trkpt lat="39.44090313" lon="-0.38535272"><ele>11.0</ele><time>2022-11-10T15:43:47.0000000+00:00</time></trkpt><trkpt lat="39.44087262" lon="-0.3853927"><ele>11.0</ele><time>2022-11-10T15:43:48.0000000+00:00</time></trkpt><trkpt lat="39.44085293" lon="-0.38543637"><ele>11.0</ele><time>2022-11-10T15:43:49.0000000+00:00</time></trkpt><trkpt lat="39.44085997" lon="-0.38547685"><ele>11.2</ele><time>2022-11-10T15:43:50.0000000+00:00</time></trkpt><trkpt lat="39.44086617" lon="-0.38551658"><ele>11.2</ele><time>2022-11-10T15:43:51.0000000+00:00</time></trkpt><trkpt lat="39.44086927" lon="-0.38556361"><ele>11.2</ele><time>2022-11-10T15:43:52.0000000+00:00</time></trkpt><trkpt lat="39.44087732" lon="-0.38561105"><ele>11.4</ele><time>2022-11-10T15:43:53.0000000+00:00</time></trkpt><trkpt lat="39.44088545" lon="-0.38565631"><ele>11.4</ele><time>2022-11-10T15:43:54.0000000+00:00</time></trkpt><trkpt lat="39.44087531" lon="-0.38571549"><ele>11.4</ele><time>2022-11-10T15:43:55.0000000+00:00</time></trkpt><trkpt lat="39.44087849" lon="-0.38579327"><ele>11.4</ele><time>2022-11-10T15:43:56.0000000+00:00</time></trkpt><trkpt lat="39.44088419" lon="-0.38584314"><ele>11.4</ele><time>2022-11-10T15:43:57.0000000+00:00</time></trkpt><trkpt lat="39.44087572" lon="-0.38589771"><ele>11.4</ele><time>2022-11-10T15:43:58.0000000+00:00</time></trkpt><trkpt lat="39.44085024" lon="-0.38593794"><ele>11.6</ele><time>2022-11-10T15:43:59.0000000+00:00</time></trkpt><trkpt lat="39.44081621" lon="-0.38596409"><ele>11.6</ele><time>2022-11-10T15:44:00.0000000+00:00</time></trkpt><trkpt lat="39.44077774" lon="-0.38598304"><ele>11.8</ele><time>2022-11-10T15:44:01.0000000+00:00</time></trkpt><trkpt lat="39.44073684" lon="-0.38600165"><ele>11.8</ele><time>2022-11-10T15:44:02.0000000+00:00</time></trkpt><trkpt lat="39.44069484" lon="-0.3860195"><ele>12.0</ele><time>2022-11-10T15:44:03.0000000+00:00</time></trkpt><trkpt lat="39.44064883" lon="-0.38603819"><ele>12.0</ele><time>2022-11-10T15:44:04.0000000+00:00</time></trkpt><trkpt lat="39.44060524" lon="-0.38605738"><ele>12.2</ele><time>2022-11-10T15:44:05.0000000+00:00</time></trkpt><trkpt lat="39.44056073" lon="-0.38607549"><ele>12.2</ele><time>2022-11-10T15:44:06.0000000+00:00</time></trkpt><trkpt lat="39.44051354" lon="-0.38609284"><ele>12.4</ele><time>2022-11-10T15:44:07.0000000+00:00</time></trkpt><trkpt lat="39.44046702" lon="-0.38611212"><ele>12.4</ele><time>2022-11-10T15:44:08.0000000+00:00</time></trkpt><trkpt lat="39.44042092" lon="-0.38613148"><ele>12.4</ele><time>2022-11-10T15:44:09.0000000+00:00</time></trkpt><trkpt lat="39.44037843" lon="-0.38615461"><ele>12.6</ele><time>2022-11-10T15:44:10.0000000+00:00</time></trkpt><trkpt lat="39.44033593" lon="-0.38617783"><ele>12.6</ele><time>2022-11-10T15:44:11.0000000+00:00</time></trkpt><trkpt lat="39.44029486" lon="-0.38619845"><ele>12.6</ele><time>2022-11-10T15:44:12.0000000+00:00</time></trkpt><trkpt lat="39.4402532" lon="-0.38621589"><ele>12.6</ele><time>2022-11-10T15:44:13.0000000+00:00</time></trkpt><trkpt lat="39.4402076" lon="-0.38623022"><ele>12.6</ele><time>2022-11-10T15:44:14.0000000+00:00</time></trkpt><trkpt lat="39.440161" lon="-0.38624514"><ele>12.6</ele><time>2022-11-10T15:44:15.0000000+00:00</time></trkpt><trkpt lat="39.44011465" lon="-0.38625989"><ele>12.6</ele><time>2022-11-10T15:44:16.0000000+00:00</time></trkpt><trkpt lat="39.44006964" lon="-0.38627406"><ele>12.6</ele><time>2022-11-10T15:44:17.0000000+00:00</time></trkpt><trkpt lat="39.44002295" lon="-0.38628671"><ele>12.6</ele><time>2022-11-10T15:44:18.0000000+00:00</time></trkpt><trkpt lat="39.43997459" lon="-0.38630071"><ele>12.6</ele><time>2022-11-10T15:44:19.0000000+00:00</time></trkpt><trkpt lat="39.43992605" lon="-0.38631211"><ele>12.8</ele><time>2022-11-10T15:44:20.0000000+00:00</time></trkpt><trkpt lat="39.43987719" lon="-0.38632049"><ele>12.8</ele><time>2022-11-10T15:44:21.0000000+00:00</time></trkpt><trkpt lat="39.43982891" lon="-0.38633055"><ele>13.0</ele><time>2022-11-10T15:44:22.0000000+00:00</time></trkpt><trkpt lat="39.43978029" lon="-0.38634631"><ele>13.0</ele><time>2022-11-10T15:44:23.0000000+00:00</time></trkpt><trkpt lat="39.43973294" lon="-0.38636567"><ele>13.0</ele><time>2022-11-10T15:44:24.0000000+00:00</time></trkpt><trkpt lat="39.43968172" lon="-0.38638252"><ele>13.2</ele><time>2022-11-10T15:44:25.0000000+00:00</time></trkpt><trkpt lat="39.43963043" lon="-0.38639727"><ele>13.2</ele><time>2022-11-10T15:44:26.0000000+00:00</time></trkpt><trkpt lat="39.43958156" lon="-0.38641286"><ele>13.4</ele><time>2022-11-10T15:44:27.0000000+00:00</time></trkpt><trkpt lat="39.43952926" lon="-0.38642543"><ele>13.4</ele><time>2022-11-10T15:44:28.0000000+00:00</time></trkpt><trkpt lat="39.43947595" lon="-0.38643843"><ele>13.4</ele><time>2022-11-10T15:44:29.0000000+00:00</time></trkpt><trkpt lat="39.43942331" lon="-0.38645435"><ele>13.6</ele><time>2022-11-10T15:44:30.0000000+00:00</time></trkpt><trkpt lat="39.43937335" lon="-0.3864748"><ele>14.0</ele><time>2022-11-10T15:44:31.0000000+00:00</time></trkpt><trkpt lat="39.43932373" lon="-0.38649366"><ele>14.2</ele><time>2022-11-10T15:44:32.0000000+00:00</time></trkpt><trkpt lat="39.43927436" lon="-0.38650959"><ele>14.4</ele><time>2022-11-10T15:44:33.0000000+00:00</time></trkpt><trkpt lat="39.43922608" lon="-0.38652635"><ele>14.6</ele><time>2022-11-10T15:44:34.0000000+00:00</time></trkpt><trkpt lat="39.43918116" lon="-0.38653976"><ele>14.8</ele><time>2022-11-10T15:44:35.0000000+00:00</time></trkpt><trkpt lat="39.43913472" lon="-0.38654831"><ele>15.0</ele><time>2022-11-10T15:44:36.0000000+00:00</time></trkpt><trkpt lat="39.43908669" lon="-0.38655996"><ele>15.0</ele><time>2022-11-10T15:44:37.0000000+00:00</time></trkpt><trkpt lat="39.43903673" lon="-0.38657329"><ele>14.8</ele><time>2022-11-10T15:44:38.0000000+00:00</time></trkpt><trkpt lat="39.43898879" lon="-0.38659198"><ele>14.6</ele><time>2022-11-10T15:44:39.0000000+00:00</time></trkpt><trkpt lat="39.43894152" lon="-0.38661428"><ele>14.4</ele><time>2022-11-10T15:44:40.0000000+00:00</time></trkpt><trkpt lat="39.43889164" lon="-0.38663624"><ele>14.4</ele><time>2022-11-10T15:44:41.0000000+00:00</time></trkpt><trkpt lat="39.43883942" lon="-0.38665485"><ele>14.4</ele><time>2022-11-10T15:44:42.0000000+00:00</time></trkpt><trkpt lat="39.43878142" lon="-0.3866779"><ele>14.4</ele><time>2022-11-10T15:44:43.0000000+00:00</time></trkpt><trkpt lat="39.4387437" lon="-0.38669366"><ele>14.4</ele><time>2022-11-10T15:44:44.0000000+00:00</time></trkpt><trkpt lat="39.43869794" lon="-0.38671662"><ele>14.4</ele><time>2022-11-10T15:44:45.0000000+00:00</time></trkpt><trkpt lat="39.43866542" lon="-0.38675518"><ele>14.6</ele><time>2022-11-10T15:44:46.0000000+00:00</time></trkpt><trkpt lat="39.43864924" lon="-0.38679994"><ele>14.4</ele><time>2022-11-10T15:44:47.0000000+00:00</time></trkpt><trkpt lat="39.43864371" lon="-0.38685584"><ele>14.4</ele><time>2022-11-10T15:44:48.0000000+00:00</time></trkpt><trkpt lat="39.43864295" lon="-0.3868975"><ele>14.6</ele><time>2022-11-10T15:44:49.0000000+00:00</time></trkpt><trkpt lat="39.43865041" lon="-0.38695383"><ele>14.4</ele><time>2022-11-10T15:44:50.0000000+00:00</time></trkpt><trkpt lat="39.43866441" lon="-0.38702399"><ele>14.4</ele><time>2022-11-10T15:44:51.0000000+00:00</time></trkpt><trkpt lat="39.43868193" lon="-0.38710881"><ele>14.4</ele><time>2022-11-10T15:44:52.0000000+00:00</time></trkpt><trkpt lat="39.43869526" lon="-0.38717721"><ele>14.4</ele><time>2022-11-10T15:44:53.0000000+00:00</time></trkpt><trkpt lat="39.43870548" lon="-0.3872342"><ele>14.4</ele><time>2022-11-10T15:44:54.0000000+00:00</time></trkpt><trkpt lat="39.43871168" lon="-0.3873083"><ele>14.6</ele><time>2022-11-10T15:44:55.0000000+00:00</time></trkpt><trkpt lat="39.43872501" lon="-0.38737997"><ele>14.6</ele><time>2022-11-10T15:44:56.0000000+00:00</time></trkpt><trkpt lat="39.43873926" lon="-0.3874601"><ele>14.6</ele><time>2022-11-10T15:44:57.0000000+00:00</time></trkpt><trkpt lat="39.43875301" lon="-0.38752363"><ele>14.6</ele><time>2022-11-10T15:44:58.0000000+00:00</time></trkpt><trkpt lat="39.43876248" lon="-0.38757526"><ele>14.6</ele><time>2022-11-10T15:44:59.0000000+00:00</time></trkpt><trkpt lat="39.43877379" lon="-0.38765791"><ele>14.6</ele><time>2022-11-10T15:45:00.0000000+00:00</time></trkpt><trkpt lat="39.43877983" lon="-0.38773133"><ele>14.6</ele><time>2022-11-10T15:45:01.0000000+00:00</time></trkpt><trkpt lat="39.43878813" lon="-0.38780468"><ele>14.4</ele><time>2022-11-10T15:45:02.0000000+00:00</time></trkpt><trkpt lat="39.43879676" lon="-0.38786209"><ele>14.4</ele><time>2022-11-10T15:45:03.0000000+00:00</time></trkpt><trkpt lat="39.43880783" lon="-0.38793082"><ele>14.4</ele><time>2022-11-10T15:45:04.0000000+00:00</time></trkpt><trkpt lat="39.43881529" lon="-0.38800098"><ele>14.4</ele><time>2022-11-10T15:45:05.0000000+00:00</time></trkpt><trkpt lat="39.43882618" lon="-0.38806913"><ele>14.4</ele><time>2022-11-10T15:45:06.0000000+00:00</time></trkpt><trkpt lat="39.43884521" lon="-0.38815403"><ele>14.4</ele><time>2022-11-10T15:45:07.0000000+00:00</time></trkpt><trkpt lat="39.43885485" lon="-0.38821464"><ele>14.6</ele><time>2022-11-10T15:45:08.0000000+00:00</time></trkpt><trkpt lat="39.43886717" lon="-0.38829192"><ele>14.6</ele><time>2022-11-10T15:45:09.0000000+00:00</time></trkpt><trkpt lat="39.43888142" lon="-0.388364"><ele>14.6</ele><time>2022-11-10T15:45:10.0000000+00:00</time></trkpt><trkpt lat="39.43889684" lon="-0.38844681"><ele>14.4</ele><time>2022-11-10T15:45:11.0000000+00:00</time></trkpt><trkpt lat="39.43890531" lon="-0.38850674"><ele>14.4</ele><time>2022-11-10T15:45:12.0000000+00:00</time></trkpt><trkpt lat="39.43891386" lon="-0.38857414"><ele>14.4</ele><time>2022-11-10T15:45:13.0000000+00:00</time></trkpt><trkpt lat="39.4389214" lon="-0.38864027"><ele>14.4</ele><time>2022-11-10T15:45:14.0000000+00:00</time></trkpt><trkpt lat="39.43893163" lon="-0.3887116"><ele>14.2</ele><time>2022-11-10T15:45:15.0000000+00:00</time></trkpt><trkpt lat="39.43892685" lon="-0.38875066"><ele>14.2</ele><time>2022-11-10T15:45:16.0000000+00:00</time></trkpt><trkpt lat="39.43889131" lon="-0.38880816"><ele>14.0</ele><time>2022-11-10T15:45:17.0000000+00:00</time></trkpt><trkpt lat="39.43884906" lon="-0.38883557"><ele>14.0</ele><time>2022-11-10T15:45:18.0000000+00:00</time></trkpt><trkpt lat="39.43881705" lon="-0.38884135"><ele>14.0</ele><time>2022-11-10T15:45:19.0000000+00:00</time></trkpt><trkpt lat="39.43879643" lon="-0.38883305"><ele>14.0</ele><time>2022-11-10T15:45:20.0000000+00:00</time></trkpt><trkpt lat="39.43878243" lon="-0.38881905"><ele>13.8</ele><time>2022-11-10T15:45:21.0000000+00:00</time></trkpt><trkpt lat="39.43877908" lon="-0.38879458"><ele>13.8</ele><time>2022-11-10T15:45:22.0000000+00:00</time></trkpt><trkpt lat="39.43877681" lon="-0.38876575"><ele>13.8</ele><time>2022-11-10T15:45:23.0000000+00:00</time></trkpt><trkpt lat="39.4387727" lon="-0.38872853"><ele>14.0</ele><time>2022-11-10T15:45:24.0000000+00:00</time></trkpt><trkpt lat="39.43876592" lon="-0.38870296"><ele>14.2</ele><time>2022-11-10T15:45:25.0000000+00:00</time></trkpt><trkpt lat="39.43875955" lon="-0.38867681"><ele>14.4</ele><time>2022-11-10T15:45:26.0000000+00:00</time></trkpt><trkpt lat="39.4387567" lon="-0.38866659"><ele>14.4</ele><time>2022-11-10T15:45:27.0000000+00:00</time></trkpt><trkpt lat="39.43875728" lon="-0.38867028"><ele>14.4</ele><time>2022-11-10T15:45:28.0000000+00:00</time></trkpt><trkpt lat="39.43876273" lon="-0.38868922"><ele>14.4</ele><time>2022-11-10T15:45:29.0000000+00:00</time></trkpt><trkpt lat="39.43877488" lon="-0.38872258"><ele>14.2</ele><time>2022-11-10T15:45:30.0000000+00:00</time></trkpt><trkpt lat="39.43879483" lon="-0.38876281"><ele>14.2</ele><time>2022-11-10T15:45:31.0000000+00:00</time></trkpt><trkpt lat="39.43880757" lon="-0.38878486"><ele>14.2</ele><time>2022-11-10T15:45:32.0000000+00:00</time></trkpt><trkpt lat="39.43880338" lon="-0.38880673"><ele>14.0</ele><time>2022-11-10T15:45:33.0000000+00:00</time></trkpt><trkpt lat="39.43879894" lon="-0.38883263"><ele>14.0</ele><time>2022-11-10T15:45:34.0000000+00:00</time></trkpt><trkpt lat="39.43879995" lon="-0.38885359"><ele>14.0</ele><time>2022-11-10T15:45:35.0000000+00:00</time></trkpt><trkpt lat="39.43880623" lon="-0.38887287"><ele>14.0</ele><time>2022-11-10T15:45:36.0000000+00:00</time></trkpt><trkpt lat="39.43881881" lon="-0.3888903"><ele>14.0</ele><time>2022-11-10T15:45:37.0000000+00:00</time></trkpt><trkpt lat="39.43883213" lon="-0.38889592"><ele>14.0</ele><time>2022-11-10T15:45:38.0000000+00:00</time></trkpt><trkpt lat="39.43883641" lon="-0.38889793"><ele>14.0</ele><time>2022-11-10T15:45:39.0000000+00:00</time></trkpt><trkpt lat="39.43883808" lon="-0.38889793"><ele>14.2</ele><time>2022-11-10T15:45:40.0000000+00:00</time></trkpt><trkpt lat="39.43883549" lon="-0.38890078"><ele>14.2</ele><time>2022-11-10T15:45:41.0000000+00:00</time></trkpt><trkpt lat="39.43884152" lon="-0.38890212"><ele>14.2</ele><time>2022-11-10T15:45:42.0000000+00:00</time></trkpt><trkpt lat="39.43885602" lon="-0.38892098"><ele>14.2</ele><time>2022-11-10T15:45:43.0000000+00:00</time></trkpt><trkpt lat="39.43886834" lon="-0.38895291"><ele>14.2</ele><time>2022-11-10T15:45:44.0000000+00:00</time></trkpt><trkpt lat="39.43887195" lon="-0.38898007"><ele>14.2</ele><time>2022-11-10T15:45:45.0000000+00:00</time></trkpt><trkpt lat="39.43887278" lon="-0.3890058"><ele>14.2</ele><time>2022-11-10T15:45:46.0000000+00:00</time></trkpt><trkpt lat="39.43887396" lon="-0.38903212"><ele>14.2</ele><time>2022-11-10T15:45:47.0000000+00:00</time></trkpt><trkpt lat="39.43887295" lon="-0.38906045"><ele>14.2</ele><time>2022-11-10T15:45:48.0000000+00:00</time></trkpt><trkpt lat="39.43888418" lon="-0.38907747"><ele>14.2</ele><time>2022-11-10T15:45:49.0000000+00:00</time></trkpt><trkpt lat="39.43890573" lon="-0.38908551"><ele>14.2</ele><time>2022-11-10T15:45:50.0000000+00:00</time></trkpt><trkpt lat="39.4389245" lon="-0.38908694"><ele>14.2</ele><time>2022-11-10T15:45:51.0000000+00:00</time></trkpt><trkpt lat="39.43892769" lon="-0.38910144"><ele>14.2</ele><time>2022-11-10T15:45:52.0000000+00:00</time></trkpt><trkpt lat="39.43893598" lon="-0.3891058"><ele>14.2</ele><time>2022-11-10T15:45:53.0000000+00:00</time></trkpt><trkpt lat="39.43895308" lon="-0.38910161"><ele>14.2</ele><time>2022-11-10T15:45:54.0000000+00:00</time></trkpt><trkpt lat="39.43898535" lon="-0.389112"><ele>14.2</ele><time>2022-11-10T15:45:55.0000000+00:00</time></trkpt><trkpt lat="39.4390157" lon="-0.38913832"><ele>14.2</ele><time>2022-11-10T15:45:56.0000000+00:00</time></trkpt><trkpt lat="39.43905568" lon="-0.38914989"><ele>14.4</ele><time>2022-11-10T15:45:57.0000000+00:00</time></trkpt><trkpt lat="39.4390887" lon="-0.3891607"><ele>14.4</ele><time>2022-11-10T15:45:58.0000000+00:00</time></trkpt><trkpt lat="39.43913153" lon="-0.38916732"><ele>14.4</ele><time>2022-11-10T15:45:59.0000000+00:00</time></trkpt><trkpt lat="39.43916665" lon="-0.38917453"><ele>14.4</ele><time>2022-11-10T15:46:00.0000000+00:00</time></trkpt><trkpt lat="39.43919901" lon="-0.38917336"><ele>14.4</ele><time>2022-11-10T15:46:01.0000000+00:00</time></trkpt><trkpt lat="39.43923949" lon="-0.38916632"><ele>14.4</ele><time>2022-11-10T15:46:02.0000000+00:00</time></trkpt><trkpt lat="39.43929104" lon="-0.38920923"><ele>14.4</ele><time>2022-11-10T15:46:03.0000000+00:00</time></trkpt><trkpt lat="39.4393363" lon="-0.38922449"><ele>14.4</ele><time>2022-11-10T15:46:04.0000000+00:00</time></trkpt><trkpt lat="39.43937352" lon="-0.38922323"><ele>14.4</ele><time>2022-11-10T15:46:05.0000000+00:00</time></trkpt><trkpt lat="39.43941828" lon="-0.38921091"><ele>14.4</ele><time>2022-11-10T15:46:06.0000000+00:00</time></trkpt><trkpt lat="39.43946304" lon="-0.38919414"><ele>14.4</ele><time>2022-11-10T15:46:07.0000000+00:00</time></trkpt><trkpt lat="39.43949472" lon="-0.38919113"><ele>14.4</ele><time>2022-11-10T15:46:08.0000000+00:00</time></trkpt><trkpt lat="39.43951903" lon="-0.38918861"><ele>14.4</ele><time>2022-11-10T15:46:09.0000000+00:00</time></trkpt><trkpt lat="39.43954526" lon="-0.38917637"><ele>14.2</ele><time>2022-11-10T15:46:10.0000000+00:00</time></trkpt><trkpt lat="39.43955046" lon="-0.38917512"><ele>14.2</ele><time>2022-11-10T15:46:11.0000000+00:00</time></trkpt><trkpt lat="39.43955046" lon="-0.38917512"><ele>14.0</ele><time>2022-11-10T15:46:12.0000000+00:00</time></trkpt><trkpt lat="39.43955046" lon="-0.38917512"><ele>14.0</ele><time>2022-11-10T15:46:13.0000000+00:00</time></trkpt><trkpt lat="39.43955046" lon="-0.38917512"><ele>14.0</ele><time>2022-11-10T15:46:14.0000000+00:00</time></trkpt><trkpt lat="39.43955046" lon="-0.38917512"><ele>14.0</ele><time>2022-11-10T15:46:15.0000000+00:00</time></trkpt><trkpt lat="39.43955046" lon="-0.38917512"><ele>14.0</ele><time>2022-11-10T15:46:16.0000000+00:00</time></trkpt><trkpt lat="39.43955046" lon="-0.38917512"><ele>14.0</ele><time>2022-11-10T15:46:17.0000000+00:00</time></trkpt><trkpt lat="39.43955046" lon="-0.38917512"><ele>13.8</ele><time>2022-11-10T15:46:18.0000000+00:00</time></trkpt><trkpt lat="39.43955046" lon="-0.38917512"><ele>13.8</ele><time>2022-11-10T15:46:19.0000000+00:00</time></trkpt><trkpt lat="39.43955046" lon="-0.38917512"><ele>13.8</ele><time>2022-11-10T15:46:20.0000000+00:00</time></trkpt><trkpt lat="39.43955046" lon="-0.38917512"><ele>13.8</ele><time>2022-11-10T15:46:21.0000000+00:00</time></trkpt><trkpt lat="39.43955046" lon="-0.38917512"><ele>13.8</ele><time>2022-11-10T15:46:22.0000000+00:00</time></trkpt><trkpt lat="39.43955046" lon="-0.38917512"><ele>13.6</ele><time>2022-11-10T15:46:23.0000000+00:00</time></trkpt><trkpt lat="39.43955046" lon="-0.38917512"><ele>13.6</ele><time>2022-11-10T15:46:24.0000000+00:00</time></trkpt><trkpt lat="39.43955046" lon="-0.38917512"><ele>13.6</ele><time>2022-11-10T15:46:25.0000000+00:00</time></trkpt><trkpt lat="39.43955046" lon="-0.38917512"><ele>13.6</ele><time>2022-11-10T15:46:26.0000000+00:00</time></trkpt><trkpt lat="39.43955046" lon="-0.38917512"><ele>13.6</ele><time>2022-11-10T15:46:27.0000000+00:00</time></trkpt><trkpt lat="39.43955046" lon="-0.38917512"><ele>13.6</ele><time>2022-11-10T15:46:28.0000000+00:00</time></trkpt><trkpt lat="39.43955046" lon="-0.38917512"><ele>13.8</ele><time>2022-11-10T15:46:29.0000000+00:00</time></trkpt><trkpt lat="39.43955046" lon="-0.38917512"><ele>13.8</ele><time>2022-11-10T15:46:30.0000000+00:00</time></trkpt><trkpt lat="39.43955046" lon="-0.38917512"><ele>13.8</ele><time>2022-11-10T15:46:31.0000000+00:00</time></trkpt><trkpt lat="39.43955046" lon="-0.38917512"><ele>13.8</ele><time>2022-11-10T15:46:32.0000000+00:00</time></trkpt><trkpt lat="39.43955046" lon="-0.38917512"><ele>13.8</ele><time>2022-11-10T15:46:33.0000000+00:00</time></trkpt><trkpt lat="39.43955046" lon="-0.38917512"><ele>13.8</ele><time>2022-11-10T15:46:34.0000000+00:00</time></trkpt><trkpt lat="39.43955046" lon="-0.38917512"><ele>13.8</ele><time>2022-11-10T15:46:35.0000000+00:00</time></trkpt><trkpt lat="39.43955046" lon="-0.38917512"><ele>13.8</ele><time>2022-11-10T15:46:36.0000000+00:00</time></trkpt><trkpt lat="39.43955046" lon="-0.38917512"><ele>13.8</ele><time>2022-11-10T15:46:37.0000000+00:00</time></trkpt><trkpt lat="39.43955046" lon="-0.38917512"><ele>13.8</ele><time>2022-11-10T15:46:38.0000000+00:00</time></trkpt><trkpt lat="39.43955046" lon="-0.38917512"><ele>13.8</ele><time>2022-11-10T15:46:39.0000000+00:00</time></trkpt><trkpt lat="39.43955046" lon="-0.38917512"><ele>13.8</ele><time>2022-11-10T15:46:40.0000000+00:00</time></trkpt><trkpt lat="39.43955046" lon="-0.38917512"><ele>13.8</ele><time>2022-11-10T15:46:41.0000000+00:00</time></trkpt><trkpt lat="39.43955046" lon="-0.38917512"><ele>13.8</ele><time>2022-11-10T15:46:42.0000000+00:00</time></trkpt><trkpt lat="39.43955046" lon="-0.38917512"><ele>13.8</ele><time>2022-11-10T15:46:43.0000000+00:00</time></trkpt><trkpt lat="39.43955046" lon="-0.38917512"><ele>13.8</ele><time>2022-11-10T15:46:44.0000000+00:00</time></trkpt><trkpt lat="39.43955507" lon="-0.38917461"><ele>13.8</ele><time>2022-11-10T15:46:45.0000000+00:00</time></trkpt><trkpt lat="39.43956555" lon="-0.38916992"><ele>13.8</ele><time>2022-11-10T15:46:46.0000000+00:00</time></trkpt><trkpt lat="39.43957611" lon="-0.38916699"><ele>13.8</ele><time>2022-11-10T15:46:47.0000000+00:00</time></trkpt><trkpt lat="39.43958206" lon="-0.38916581"><ele>13.8</ele><time>2022-11-10T15:46:48.0000000+00:00</time></trkpt><trkpt lat="39.43958265" lon="-0.38916556"><ele>13.8</ele><time>2022-11-10T15:46:49.0000000+00:00</time></trkpt><trkpt lat="39.4395829" lon="-0.38916539"><ele>13.8</ele><time>2022-11-10T15:46:50.0000000+00:00</time></trkpt><trkpt lat="39.4395829" lon="-0.38916539"><ele>13.8</ele><time>2022-11-10T15:46:51.0000000+00:00</time></trkpt><trkpt lat="39.4395829" lon="-0.38916539"><ele>14.0</ele><time>2022-11-10T15:46:52.0000000+00:00</time></trkpt><trkpt lat="39.4395829" lon="-0.38916539"><ele>14.0</ele><time>2022-11-10T15:46:53.0000000+00:00</time></trkpt><trkpt lat="39.4395829" lon="-0.38916539"><ele>14.0</ele><time>2022-11-10T15:46:54.0000000+00:00</time></trkpt><trkpt lat="39.4395829" lon="-0.38916539"><ele>14.0</ele><time>2022-11-10T15:46:55.0000000+00:00</time></trkpt><trkpt lat="39.4395829" lon="-0.38916539"><ele>14.0</ele><time>2022-11-10T15:46:56.0000000+00:00</time></trkpt><trkpt lat="39.4395829" lon="-0.38916539"><ele>14.0</ele><time>2022-11-10T15:46:57.0000000+00:00</time></trkpt><trkpt lat="39.4395829" lon="-0.38916539"><ele>14.0</ele><time>2022-11-10T15:46:58.0000000+00:00</time></trkpt><trkpt lat="39.4395829" lon="-0.38916539"><ele>14.0</ele><time>2022-11-10T15:46:59.0000000+00:00</time></trkpt><trkpt lat="39.4395829" lon="-0.38916539"><ele>14.0</ele><time>2022-11-10T15:47:00.0000000+00:00</time></trkpt><trkpt lat="39.4395829" lon="-0.38916539"><ele>14.0</ele><time>2022-11-10T15:47:01.0000000+00:00</time></trkpt><trkpt lat="39.4395829" lon="-0.38916539"><ele>14.0</ele><time>2022-11-10T15:47:02.0000000+00:00</time></trkpt><trkpt lat="39.4395829" lon="-0.38916539"><ele>14.0</ele><time>2022-11-10T15:47:03.0000000+00:00</time></trkpt><trkpt lat="39.4395829" lon="-0.38916539"><ele>14.2</ele><time>2022-11-10T15:47:04.0000000+00:00</time></trkpt><trkpt lat="39.43959178" lon="-0.38916129"><ele>14.2</ele><time>2022-11-10T15:47:05.0000000+00:00</time></trkpt><trkpt lat="39.4395948" lon="-0.38915928"><ele>14.2</ele><time>2022-11-10T15:47:06.0000000+00:00</time></trkpt><trkpt lat="39.4395948" lon="-0.38915928"><ele>14.2</ele><time>2022-11-10T15:47:07.0000000+00:00</time></trkpt><trkpt lat="39.43960603" lon="-0.38914125"><ele>14.2</ele><time>2022-11-10T15:47:08.0000000+00:00</time></trkpt><trkpt lat="39.43960503" lon="-0.3891291"><ele>14.2</ele><time>2022-11-10T15:47:09.0000000+00:00</time></trkpt><trkpt lat="39.43960503" lon="-0.38912902"><ele>14.2</ele><time>2022-11-10T15:47:10.0000000+00:00</time></trkpt><trkpt lat="39.43960503" lon="-0.38912902"><ele>14.2</ele><time>2022-11-10T15:47:11.0000000+00:00</time></trkpt><trkpt lat="39.43960385" lon="-0.38913262"><ele>14.2</ele><time>2022-11-10T15:47:12.0000000+00:00</time></trkpt><trkpt lat="39.43960469" lon="-0.38913061"><ele>14.2</ele><time>2022-11-10T15:47:13.0000000+00:00</time></trkpt><trkpt lat="39.43960469" lon="-0.38913061"><ele>14.4</ele><time>2022-11-10T15:47:14.0000000+00:00</time></trkpt><trkpt lat="39.43960478" lon="-0.38912298"><ele>14.4</ele><time>2022-11-10T15:47:15.0000000+00:00</time></trkpt><trkpt lat="39.43960268" lon="-0.3891032"><ele>14.0</ele><time>2022-11-10T15:47:16.0000000+00:00</time></trkpt><trkpt lat="39.43960721" lon="-0.38908417"><ele>14.0</ele><time>2022-11-10T15:47:17.0000000+00:00</time></trkpt><trkpt lat="39.43961634" lon="-0.38906339"><ele>14.0</ele><time>2022-11-10T15:47:18.0000000+00:00</time></trkpt><trkpt lat="39.43961844" lon="-0.38905559"><ele>14.0</ele><time>2022-11-10T15:47:19.0000000+00:00</time></trkpt><trkpt lat="39.4396233" lon="-0.38903003"><ele>14.0</ele><time>2022-11-10T15:47:20.0000000+00:00</time></trkpt><trkpt lat="39.43962003" lon="-0.38902416"><ele>14.0</ele><time>2022-11-10T15:47:21.0000000+00:00</time></trkpt><trkpt lat="39.43961483" lon="-0.38903011"><ele>14.0</ele><time>2022-11-10T15:47:22.0000000+00:00</time></trkpt><trkpt lat="39.43961852" lon="-0.3890198"><ele>14.0</ele><time>2022-11-10T15:47:23.0000000+00:00</time></trkpt><trkpt lat="39.43962347" lon="-0.38901871"><ele>14.0</ele><time>2022-11-10T15:47:24.0000000+00:00</time></trkpt><trkpt lat="39.43963327" lon="-0.38902064"><ele>14.0</ele><time>2022-11-10T15:47:25.0000000+00:00</time></trkpt><trkpt lat="39.43963646" lon="-0.38902667"><ele>14.0</ele><time>2022-11-10T15:47:26.0000000+00:00</time></trkpt><trkpt lat="39.43963646" lon="-0.38902667"><ele>14.0</ele><time>2022-11-10T15:47:27.0000000+00:00</time></trkpt><trkpt lat="39.43963646" lon="-0.38902667"><ele>14.0</ele><time>2022-11-10T15:47:28.0000000+00:00</time></trkpt><trkpt lat="39.43964534" lon="-0.38901486"><ele>14.0</ele><time>2022-11-10T15:47:29.0000000+00:00</time></trkpt><trkpt lat="39.43964744" lon="-0.38901745"><ele>13.8</ele><time>2022-11-10T15:47:30.0000000+00:00</time></trkpt><trkpt lat="39.43964744" lon="-0.38901745"><ele>13.8</ele><time>2022-11-10T15:47:31.0000000+00:00</time></trkpt><trkpt lat="39.43964744" lon="-0.38901745"><ele>13.8</ele><time>2022-11-10T15:47:32.0000000+00:00</time></trkpt><trkpt lat="39.43965624" lon="-0.38900832"><ele>13.8</ele><time>2022-11-10T15:47:33.0000000+00:00</time></trkpt><trkpt lat="39.43966655" lon="-0.38900421"><ele>13.8</ele><time>2022-11-10T15:47:34.0000000+00:00</time></trkpt><trkpt lat="39.43967192" lon="-0.38901092"><ele>13.6</ele><time>2022-11-10T15:47:35.0000000+00:00</time></trkpt><trkpt lat="39.43967192" lon="-0.38901092"><ele>13.6</ele><time>2022-11-10T15:47:36.0000000+00:00</time></trkpt><trkpt lat="39.43967192" lon="-0.38901092"><ele>13.6</ele><time>2022-11-10T15:47:37.0000000+00:00</time></trkpt><trkpt lat="39.43967192" lon="-0.38901092"><ele>13.6</ele><time>2022-11-10T15:47:38.0000000+00:00</time></trkpt><trkpt lat="39.43967192" lon="-0.38901092"><ele>13.6</ele><time>2022-11-10T15:47:39.0000000+00:00</time></trkpt><trkpt lat="39.43967393" lon="-0.38900656"><ele>13.4</ele><time>2022-11-10T15:47:40.0000000+00:00</time></trkpt><trkpt lat="39.43967326" lon="-0.3890027"><ele>13.6</ele><time>2022-11-10T15:47:41.0000000+00:00</time></trkpt><trkpt lat="39.43967451" lon="-0.38898954"><ele>13.6</ele><time>2022-11-10T15:47:42.0000000+00:00</time></trkpt><trkpt lat="39.439672" lon="-0.38898636"><ele>13.6</ele><time>2022-11-10T15:47:43.0000000+00:00</time></trkpt><trkpt lat="39.4396886" lon="-0.38898694"><ele>13.6</ele><time>2022-11-10T15:47:44.0000000+00:00</time></trkpt><trkpt lat="39.43969513" lon="-0.38897395"><ele>13.6</ele><time>2022-11-10T15:47:45.0000000+00:00</time></trkpt><trkpt lat="39.43970167" lon="-0.38896021"><ele>13.6</ele><time>2022-11-10T15:47:46.0000000+00:00</time></trkpt><trkpt lat="39.43970888" lon="-0.38895065"><ele>13.4</ele><time>2022-11-10T15:47:47.0000000+00:00</time></trkpt><trkpt lat="39.43971877" lon="-0.38894093"><ele>13.4</ele><time>2022-11-10T15:47:48.0000000+00:00</time></trkpt><trkpt lat="39.43973118" lon="-0.38892777"><ele>13.4</ele><time>2022-11-10T15:47:49.0000000+00:00</time></trkpt><trkpt lat="39.43974467" lon="-0.38891486"><ele>13.4</ele><time>2022-11-10T15:47:50.0000000+00:00</time></trkpt><trkpt lat="39.43975984" lon="-0.3889048"><ele>13.4</ele><time>2022-11-10T15:47:51.0000000+00:00</time></trkpt><trkpt lat="39.43978088" lon="-0.38890044"><ele>13.4</ele><time>2022-11-10T15:47:52.0000000+00:00</time></trkpt><trkpt lat="39.43979077" lon="-0.38889323"><ele>13.4</ele><time>2022-11-10T15:47:53.0000000+00:00</time></trkpt><trkpt lat="39.4398015" lon="-0.38888619"><ele>13.4</ele><time>2022-11-10T15:47:54.0000000+00:00</time></trkpt><trkpt lat="39.43980795" lon="-0.38888225"><ele>13.4</ele><time>2022-11-10T15:47:55.0000000+00:00</time></trkpt><trkpt lat="39.43981038" lon="-0.38887756"><ele>13.4</ele><time>2022-11-10T15:47:56.0000000+00:00</time></trkpt><trkpt lat="39.43981038" lon="-0.38887756"><ele>13.4</ele><time>2022-11-10T15:47:57.0000000+00:00</time></trkpt><trkpt lat="39.43981432" lon="-0.38888477"><ele>13.4</ele><time>2022-11-10T15:47:58.0000000+00:00</time></trkpt><trkpt lat="39.43982178" lon="-0.38888879"><ele>13.4</ele><time>2022-11-10T15:47:59.0000000+00:00</time></trkpt><trkpt lat="39.43982455" lon="-0.3888877"><ele>13.4</ele><time>2022-11-10T15:48:00.0000000+00:00</time></trkpt><trkpt lat="39.4398274" lon="-0.38888837"><ele>13.4</ele><time>2022-11-10T15:48:01.0000000+00:00</time></trkpt><trkpt lat="39.43982966" lon="-0.38887764"><ele>13.4</ele><time>2022-11-10T15:48:02.0000000+00:00</time></trkpt><trkpt lat="39.43982547" lon="-0.38885702"><ele>13.4</ele><time>2022-11-10T15:48:03.0000000+00:00</time></trkpt><trkpt lat="39.4398129" lon="-0.38885895"><ele>13.4</ele><time>2022-11-10T15:48:04.0000000+00:00</time></trkpt><trkpt lat="39.43980619" lon="-0.38885987"><ele>13.4</ele><time>2022-11-10T15:48:05.0000000+00:00</time></trkpt><trkpt lat="39.43980619" lon="-0.38885987"><ele>13.4</ele><time>2022-11-10T15:48:06.0000000+00:00</time></trkpt><trkpt lat="39.43980753" lon="-0.38886968"><ele>13.4</ele><time>2022-11-10T15:48:07.0000000+00:00</time></trkpt><trkpt lat="39.43980779" lon="-0.38887555"><ele>13.4</ele><time>2022-11-10T15:48:08.0000000+00:00</time></trkpt><trkpt lat="39.43980779" lon="-0.38887555"><ele>13.4</ele><time>2022-11-10T15:48:09.0000000+00:00</time></trkpt><trkpt lat="39.43980896" lon="-0.3888784"><ele>13.4</ele><time>2022-11-10T15:48:10.0000000+00:00</time></trkpt><trkpt lat="39.43981089" lon="-0.38887622"><ele>13.4</ele><time>2022-11-10T15:48:11.0000000+00:00</time></trkpt><trkpt lat="39.43981131" lon="-0.38888091"><ele>13.4</ele><time>2022-11-10T15:48:12.0000000+00:00</time></trkpt><trkpt lat="39.43981256" lon="-0.38887731"><ele>13.4</ele><time>2022-11-10T15:48:13.0000000+00:00</time></trkpt><trkpt lat="39.43981256" lon="-0.38887731"><ele>13.4</ele><time>2022-11-10T15:48:14.0000000+00:00</time></trkpt><trkpt lat="39.43981256" lon="-0.38887731"><ele>13.4</ele><time>2022-11-10T15:48:15.0000000+00:00</time></trkpt><trkpt lat="39.43981256" lon="-0.38887731"><ele>13.4</ele><time>2022-11-10T15:48:16.0000000+00:00</time></trkpt><trkpt lat="39.43981256" lon="-0.38887731"><ele>13.4</ele><time>2022-11-10T15:48:17.0000000+00:00</time></trkpt><trkpt lat="39.43981256" lon="-0.38887731"><ele>13.4</ele><time>2022-11-10T15:48:18.0000000+00:00</time></trkpt><trkpt lat="39.43981256" lon="-0.38887731"><ele>13.2</ele><time>2022-11-10T15:48:19.0000000+00:00</time></trkpt><trkpt lat="39.43981256" lon="-0.38887731"><ele>13.2</ele><time>2022-11-10T15:48:20.0000000+00:00</time></trkpt><trkpt lat="39.43981256" lon="-0.38887731"><ele>13.2</ele><time>2022-11-10T15:48:21.0000000+00:00</time></trkpt><trkpt lat="39.43981256" lon="-0.38887731"><ele>13.2</ele><time>2022-11-10T15:48:22.0000000+00:00</time></trkpt><trkpt lat="39.43981256" lon="-0.38887731"><ele>13.2</ele><time>2022-11-10T15:48:23.0000000+00:00</time></trkpt><trkpt lat="39.43981256" lon="-0.38887731"><ele>13.2</ele><time>2022-11-10T15:48:24.0000000+00:00</time></trkpt><trkpt lat="39.43981256" lon="-0.38887731"><ele>13.2</ele><time>2022-11-10T15:48:25.0000000+00:00</time></trkpt><trkpt lat="39.43981256" lon="-0.38887731"><ele>13.2</ele><time>2022-11-10T15:48:26.0000000+00:00</time></trkpt><trkpt lat="39.43981256" lon="-0.38887731"><ele>13.2</ele><time>2022-11-10T15:48:27.0000000+00:00</time></trkpt><trkpt lat="39.43981022" lon="-0.38888527"><ele>13.4</ele><time>2022-11-10T15:48:28.0000000+00:00</time></trkpt><trkpt lat="39.43980753" lon="-0.38888703"><ele>13.4</ele><time>2022-11-10T15:48:29.0000000+00:00</time></trkpt><trkpt lat="39.43980753" lon="-0.38888703"><ele>13.4</ele><time>2022-11-10T15:48:30.0000000+00:00</time></trkpt><trkpt lat="39.43980753" lon="-0.38888703"><ele>13.4</ele><time>2022-11-10T15:48:31.0000000+00:00</time></trkpt><trkpt lat="39.43980753" lon="-0.38888703"><ele>13.4</ele><time>2022-11-10T15:48:32.0000000+00:00</time></trkpt><trkpt lat="39.43980753" lon="-0.38888703"><ele>13.4</ele><time>2022-11-10T15:48:33.0000000+00:00</time></trkpt><trkpt lat="39.43980753" lon="-0.38888703"><ele>13.4</ele><time>2022-11-10T15:48:34.0000000+00:00</time></trkpt><trkpt lat="39.43980753" lon="-0.38888703"><ele>13.4</ele><time>2022-11-10T15:48:35.0000000+00:00</time></trkpt><trkpt lat="39.43980753" lon="-0.38888703"><ele>13.4</ele><time>2022-11-10T15:48:36.0000000+00:00</time></trkpt><trkpt lat="39.43980753" lon="-0.38888703"><ele>13.4</ele><time>2022-11-10T15:48:37.0000000+00:00</time></trkpt><trkpt lat="39.43980753" lon="-0.38888703"><ele>13.4</ele><time>2022-11-10T15:48:38.0000000+00:00</time></trkpt><trkpt lat="39.43980753" lon="-0.38888703"><ele>13.4</ele><time>2022-11-10T15:48:39.0000000+00:00</time></trkpt><trkpt lat="39.43980753" lon="-0.38888703"><ele>13.4</ele><time>2022-11-10T15:48:40.0000000+00:00</time></trkpt><trkpt lat="39.43980753" lon="-0.38888703"><ele>13.4</ele><time>2022-11-10T15:48:41.0000000+00:00</time></trkpt><trkpt lat="39.43980753" lon="-0.38888703"><ele>13.2</ele><time>2022-11-10T15:48:42.0000000+00:00</time></trkpt><trkpt lat="39.43980753" lon="-0.38888703"><ele>13.2</ele><time>2022-11-10T15:48:43.0000000+00:00</time></trkpt><trkpt lat="39.43980753" lon="-0.38888703"><ele>13.4</ele><time>2022-11-10T15:48:44.0000000+00:00</time></trkpt><trkpt lat="39.43980753" lon="-0.38888703"><ele>13.4</ele><time>2022-11-10T15:48:45.0000000+00:00</time></trkpt><trkpt lat="39.43981449" lon="-0.38889634"><ele>13.4</ele><time>2022-11-10T15:48:46.0000000+00:00</time></trkpt><trkpt lat="39.43981474" lon="-0.38890178"><ele>13.4</ele><time>2022-11-10T15:48:47.0000000+00:00</time></trkpt><trkpt lat="39.43981793" lon="-0.3888965"><ele>13.4</ele><time>2022-11-10T15:48:48.0000000+00:00</time></trkpt><trkpt lat="39.43981567" lon="-0.3889038"><ele>13.6</ele><time>2022-11-10T15:48:49.0000000+00:00</time></trkpt><trkpt lat="39.43979974" lon="-0.38889977"><ele>13.6</ele><time>2022-11-10T15:48:50.0000000+00:00</time></trkpt><trkpt lat="39.43977694" lon="-0.38889323"><ele>13.6</ele><time>2022-11-10T15:48:51.0000000+00:00</time></trkpt><trkpt lat="39.43976152" lon="-0.38889365"><ele>13.6</ele><time>2022-11-10T15:48:52.0000000+00:00</time></trkpt><trkpt lat="39.43973394" lon="-0.38889751"><ele>13.6</ele><time>2022-11-10T15:48:53.0000000+00:00</time></trkpt><trkpt lat="39.43970519" lon="-0.38891"><ele>13.6</ele><time>2022-11-10T15:48:54.0000000+00:00</time></trkpt><trkpt lat="39.43967418" lon="-0.38893431"><ele>13.6</ele><time>2022-11-10T15:48:55.0000000+00:00</time></trkpt><trkpt lat="39.43964627" lon="-0.38893741"><ele>13.6</ele><time>2022-11-10T15:48:56.0000000+00:00</time></trkpt><trkpt lat="39.43961777" lon="-0.38893883"><ele>13.6</ele><time>2022-11-10T15:48:57.0000000+00:00</time></trkpt><trkpt lat="39.43959229" lon="-0.38894151"><ele>13.6</ele><time>2022-11-10T15:48:58.0000000+00:00</time></trkpt><trkpt lat="39.43957284" lon="-0.38895669"><ele>13.6</ele><time>2022-11-10T15:48:59.0000000+00:00</time></trkpt><trkpt lat="39.43953219" lon="-0.38896289"><ele>13.6</ele><time>2022-11-10T15:49:00.0000000+00:00</time></trkpt><trkpt lat="39.43949229" lon="-0.38898217"><ele>13.6</ele><time>2022-11-10T15:49:01.0000000+00:00</time></trkpt><trkpt lat="39.43944166" lon="-0.38900329"><ele>13.8</ele><time>2022-11-10T15:49:02.0000000+00:00</time></trkpt><trkpt lat="39.4393897" lon="-0.38902349"><ele>14.0</ele><time>2022-11-10T15:49:03.0000000+00:00</time></trkpt><trkpt lat="39.43933136" lon="-0.38904629"><ele>14.2</ele><time>2022-11-10T15:49:04.0000000+00:00</time></trkpt><trkpt lat="39.43926682" lon="-0.38907311"><ele>14.2</ele><time>2022-11-10T15:49:05.0000000+00:00</time></trkpt><trkpt lat="39.43919809" lon="-0.38910915"><ele>14.4</ele><time>2022-11-10T15:49:06.0000000+00:00</time></trkpt><trkpt lat="39.43913061" lon="-0.38915802"><ele>14.6</ele><time>2022-11-10T15:49:07.0000000+00:00</time></trkpt><trkpt lat="39.43907688" lon="-0.38919155"><ele>14.8</ele><time>2022-11-10T15:49:08.0000000+00:00</time></trkpt><trkpt lat="39.43902165" lon="-0.38922004"><ele>15.2</ele><time>2022-11-10T15:49:09.0000000+00:00</time></trkpt><trkpt lat="39.43896289" lon="-0.38924787"><ele>15.4</ele><time>2022-11-10T15:49:10.0000000+00:00</time></trkpt><trkpt lat="39.43889827" lon="-0.38928375"><ele>15.4</ele><time>2022-11-10T15:49:11.0000000+00:00</time></trkpt><trkpt lat="39.4388468" lon="-0.38931702"><ele>15.8</ele><time>2022-11-10T15:49:12.0000000+00:00</time></trkpt><trkpt lat="39.43878385" lon="-0.38934284"><ele>15.8</ele><time>2022-11-10T15:49:13.0000000+00:00</time></trkpt><trkpt lat="39.43874479" lon="-0.38935198"><ele>16.0</ele><time>2022-11-10T15:49:14.0000000+00:00</time></trkpt><trkpt lat="39.43869132" lon="-0.38936589"><ele>16.4</ele><time>2022-11-10T15:49:15.0000000+00:00</time></trkpt><trkpt lat="39.43864706" lon="-0.38938366"><ele>17.0</ele><time>2022-11-10T15:49:16.0000000+00:00</time></trkpt><trkpt lat="39.43861697" lon="-0.38939363"><ele>17.2</ele><time>2022-11-10T15:49:17.0000000+00:00</time></trkpt><trkpt lat="39.43858755" lon="-0.38941836"><ele>17.4</ele><time>2022-11-10T15:49:18.0000000+00:00</time></trkpt><trkpt lat="39.43854145" lon="-0.38943764"><ele>17.6</ele><time>2022-11-10T15:49:19.0000000+00:00</time></trkpt><trkpt lat="39.43849736" lon="-0.38945759"><ele>18.0</ele><time>2022-11-10T15:49:20.0000000+00:00</time></trkpt><trkpt lat="39.43845486" lon="-0.38947477"><ele>18.2</ele><time>2022-11-10T15:49:21.0000000+00:00</time></trkpt><trkpt lat="39.4384039" lon="-0.38949824"><ele>18.4</ele><time>2022-11-10T15:49:22.0000000+00:00</time></trkpt><trkpt lat="39.43837591" lon="-0.38951408"><ele>18.4</ele><time>2022-11-10T15:49:23.0000000+00:00</time></trkpt><trkpt lat="39.43833442" lon="-0.38953504"><ele>18.4</ele><time>2022-11-10T15:49:24.0000000+00:00</time></trkpt><trkpt lat="39.43829007" lon="-0.38954979"><ele>18.4</ele><time>2022-11-10T15:49:25.0000000+00:00</time></trkpt><trkpt lat="39.43824498" lon="-0.3895668"><ele>18.6</ele><time>2022-11-10T15:49:26.0000000+00:00</time></trkpt><trkpt lat="39.43819662" lon="-0.38958382"><ele>18.6</ele><time>2022-11-10T15:49:27.0000000+00:00</time></trkpt><trkpt lat="39.43815144" lon="-0.38960201"><ele>18.8</ele><time>2022-11-10T15:49:28.0000000+00:00</time></trkpt><trkpt lat="39.43810836" lon="-0.38961919"><ele>18.8</ele><time>2022-11-10T15:49:29.0000000+00:00</time></trkpt><trkpt lat="39.43806636" lon="-0.38963562"><ele>18.8</ele><time>2022-11-10T15:49:30.0000000+00:00</time></trkpt><trkpt lat="39.4380149" lon="-0.389658"><ele>18.8</ele><time>2022-11-10T15:49:31.0000000+00:00</time></trkpt><trkpt lat="39.43798279" lon="-0.38967485"><ele>18.8</ele><time>2022-11-10T15:49:32.0000000+00:00</time></trkpt><trkpt lat="39.43792714" lon="-0.38970142"><ele>19.0</ele><time>2022-11-10T15:49:33.0000000+00:00</time></trkpt><trkpt lat="39.43788934" lon="-0.3897191"><ele>19.0</ele><time>2022-11-10T15:49:34.0000000+00:00</time></trkpt><trkpt lat="39.43784047" lon="-0.38973746"><ele>19.2</ele><time>2022-11-10T15:49:35.0000000+00:00</time></trkpt><trkpt lat="39.43779286" lon="-0.38975573"><ele>19.4</ele><time>2022-11-10T15:49:36.0000000+00:00</time></trkpt><trkpt lat="39.43774265" lon="-0.38977786"><ele>19.6</ele><time>2022-11-10T15:49:37.0000000+00:00</time></trkpt><trkpt lat="39.43769404" lon="-0.38980007"><ele>19.6</ele><time>2022-11-10T15:49:38.0000000+00:00</time></trkpt><trkpt lat="39.43764509" lon="-0.38982304"><ele>19.6</ele><time>2022-11-10T15:49:39.0000000+00:00</time></trkpt><trkpt lat="39.43759681" lon="-0.38984131"><ele>19.8</ele><time>2022-11-10T15:49:40.0000000+00:00</time></trkpt><trkpt lat="39.43754752" lon="-0.38986025"><ele>20.0</ele><time>2022-11-10T15:49:41.0000000+00:00</time></trkpt><trkpt lat="39.4374974" lon="-0.38987685"><ele>20.0</ele><time>2022-11-10T15:49:42.0000000+00:00</time></trkpt><trkpt lat="39.43745029" lon="-0.38989848"><ele>20.2</ele><time>2022-11-10T15:49:43.0000000+00:00</time></trkpt><trkpt lat="39.43739933" lon="-0.38992102"><ele>20.2</ele><time>2022-11-10T15:49:44.0000000+00:00</time></trkpt><trkpt lat="39.43734812" lon="-0.38994416"><ele>20.2</ele><time>2022-11-10T15:49:45.0000000+00:00</time></trkpt><trkpt lat="39.43729204" lon="-0.38996888"><ele>20.2</ele><time>2022-11-10T15:49:46.0000000+00:00</time></trkpt><trkpt lat="39.43723412" lon="-0.38999302"><ele>20.2</ele><time>2022-11-10T15:49:47.0000000+00:00</time></trkpt><trkpt lat="39.43718031" lon="-0.39001549"><ele>19.8</ele><time>2022-11-10T15:49:48.0000000+00:00</time></trkpt><trkpt lat="39.43713052" lon="-0.39003342"><ele>19.6</ele><time>2022-11-10T15:49:49.0000000+00:00</time></trkpt><trkpt lat="39.43707847" lon="-0.39005027"><ele>19.4</ele><time>2022-11-10T15:49:50.0000000+00:00</time></trkpt><trkpt lat="39.4370229" lon="-0.39007366"><ele>19.4</ele><time>2022-11-10T15:49:51.0000000+00:00</time></trkpt><trkpt lat="39.43696548" lon="-0.39009696"><ele>19.2</ele><time>2022-11-10T15:49:52.0000000+00:00</time></trkpt><trkpt lat="39.43690966" lon="-0.39011934"><ele>19.2</ele><time>2022-11-10T15:49:53.0000000+00:00</time></trkpt><trkpt lat="39.43685308" lon="-0.39014138"><ele>19.0</ele><time>2022-11-10T15:49:54.0000000+00:00</time></trkpt><trkpt lat="39.43679432" lon="-0.39016276"><ele>19.0</ele><time>2022-11-10T15:49:55.0000000+00:00</time></trkpt><trkpt lat="39.43673272" lon="-0.39018162"><ele>18.8</ele><time>2022-11-10T15:49:56.0000000+00:00</time></trkpt><trkpt lat="39.43665192" lon="-0.39021204"><ele>18.6</ele><time>2022-11-10T15:49:57.0000000+00:00</time></trkpt><trkpt lat="39.43658654" lon="-0.39023954"><ele>18.2</ele><time>2022-11-10T15:49:58.0000000+00:00</time></trkpt><trkpt lat="39.43653298" lon="-0.39026024"><ele>18.0</ele><time>2022-11-10T15:49:59.0000000+00:00</time></trkpt><trkpt lat="39.43646533" lon="-0.39028538"><ele>17.8</ele><time>2022-11-10T15:50:00.0000000+00:00</time></trkpt><trkpt lat="39.43639828" lon="-0.39031237"><ele>17.6</ele><time>2022-11-10T15:50:01.0000000+00:00</time></trkpt><trkpt lat="39.43632963" lon="-0.39033853"><ele>17.2</ele><time>2022-11-10T15:50:02.0000000+00:00</time></trkpt><trkpt lat="39.4362588" lon="-0.39036753"><ele>17.2</ele><time>2022-11-10T15:50:03.0000000+00:00</time></trkpt><trkpt lat="39.43618404" lon="-0.39039795"><ele>17.0</ele><time>2022-11-10T15:50:04.0000000+00:00</time></trkpt><trkpt lat="39.43611011" lon="-0.39042603"><ele>17.0</ele><time>2022-11-10T15:50:05.0000000+00:00</time></trkpt><trkpt lat="39.43603744" lon="-0.39045495"><ele>16.8</ele><time>2022-11-10T15:50:06.0000000+00:00</time></trkpt><trkpt lat="39.435962" lon="-0.39048412"><ele>16.4</ele><time>2022-11-10T15:50:07.0000000+00:00</time></trkpt><trkpt lat="39.43588782" lon="-0.39051304"><ele>16.2</ele><time>2022-11-10T15:50:08.0000000+00:00</time></trkpt><trkpt lat="39.43581549" lon="-0.39054371"><ele>15.8</ele><time>2022-11-10T15:50:09.0000000+00:00</time></trkpt><trkpt lat="39.43573217" lon="-0.39057707"><ele>15.6</ele><time>2022-11-10T15:50:10.0000000+00:00</time></trkpt><trkpt lat="39.43567869" lon="-0.39059443"><ele>15.2</ele><time>2022-11-10T15:50:11.0000000+00:00</time></trkpt><trkpt lat="39.43560133" lon="-0.39062183"><ele>15.0</ele><time>2022-11-10T15:50:12.0000000+00:00</time></trkpt><trkpt lat="39.43553536" lon="-0.39064916"><ele>14.8</ele><time>2022-11-10T15:50:13.0000000+00:00</time></trkpt><trkpt lat="39.43546613" lon="-0.39068009"><ele>14.8</ele><time>2022-11-10T15:50:14.0000000+00:00</time></trkpt><trkpt lat="39.43541047" lon="-0.39069828"><ele>14.6</ele><time>2022-11-10T15:50:15.0000000+00:00</time></trkpt><trkpt lat="39.43534367" lon="-0.39071546"><ele>14.6</ele><time>2022-11-10T15:50:16.0000000+00:00</time></trkpt><trkpt lat="39.43528097" lon="-0.39073558"><ele>14.6</ele><time>2022-11-10T15:50:17.0000000+00:00</time></trkpt><trkpt lat="39.43520905" lon="-0.390765"><ele>14.6</ele><time>2022-11-10T15:50:18.0000000+00:00</time></trkpt><trkpt lat="39.43515256" lon="-0.39078662"><ele>14.6</ele><time>2022-11-10T15:50:19.0000000+00:00</time></trkpt><trkpt lat="39.43511082" lon="-0.39080381"><ele>14.4</ele><time>2022-11-10T15:50:20.0000000+00:00</time></trkpt><trkpt lat="39.43506338" lon="-0.39082618"><ele>14.4</ele><time>2022-11-10T15:50:21.0000000+00:00</time></trkpt><trkpt lat="39.43503144" lon="-0.39084102"><ele>14.4</ele><time>2022-11-10T15:50:22.0000000+00:00</time></trkpt><trkpt lat="39.4349959" lon="-0.39085259"><ele>14.4</ele><time>2022-11-10T15:50:23.0000000+00:00</time></trkpt><trkpt lat="39.43496724" lon="-0.39085686"><ele>14.2</ele><time>2022-11-10T15:50:24.0000000+00:00</time></trkpt><trkpt lat="39.43494142" lon="-0.39085829"><ele>14.2</ele><time>2022-11-10T15:50:25.0000000+00:00</time></trkpt><trkpt lat="39.43491879" lon="-0.39086726"><ele>14.2</ele><time>2022-11-10T15:50:26.0000000+00:00</time></trkpt><trkpt lat="39.43490379" lon="-0.39087044"><ele>14.0</ele><time>2022-11-10T15:50:27.0000000+00:00</time></trkpt><trkpt lat="39.43489205" lon="-0.39087312"><ele>14.0</ele><time>2022-11-10T15:50:28.0000000+00:00</time></trkpt><trkpt lat="39.43488258" lon="-0.39087036"><ele>14.0</ele><time>2022-11-10T15:50:29.0000000+00:00</time></trkpt><trkpt lat="39.43486137" lon="-0.39087405"><ele>13.8</ele><time>2022-11-10T15:50:30.0000000+00:00</time></trkpt><trkpt lat="39.43484939" lon="-0.3908743"><ele>13.8</ele><time>2022-11-10T15:50:31.0000000+00:00</time></trkpt><trkpt lat="39.43483011" lon="-0.39088511"><ele>13.8</ele><time>2022-11-10T15:50:32.0000000+00:00</time></trkpt><trkpt lat="39.43482148" lon="-0.39089416"><ele>13.6</ele><time>2022-11-10T15:50:33.0000000+00:00</time></trkpt><trkpt lat="39.43479683" lon="-0.39090774"><ele>13.6</ele><time>2022-11-10T15:50:34.0000000+00:00</time></trkpt><trkpt lat="39.43477412" lon="-0.39092283"><ele>13.6</ele><time>2022-11-10T15:50:35.0000000+00:00</time></trkpt><trkpt lat="39.43474922" lon="-0.39093381"><ele>13.4</ele><time>2022-11-10T15:50:36.0000000+00:00</time></trkpt><trkpt lat="39.4346882" lon="-0.39095711"><ele>13.4</ele><time>2022-11-10T15:50:37.0000000+00:00</time></trkpt><trkpt lat="39.43463917" lon="-0.39097865"><ele>13.4</ele><time>2022-11-10T15:50:38.0000000+00:00</time></trkpt><trkpt lat="39.43456784" lon="-0.39100975"><ele>13.6</ele><time>2022-11-10T15:50:39.0000000+00:00</time></trkpt><trkpt lat="39.43450824" lon="-0.39103313"><ele>13.6</ele><time>2022-11-10T15:50:40.0000000+00:00</time></trkpt><trkpt lat="39.43446089" lon="-0.39105023"><ele>13.8</ele><time>2022-11-10T15:50:41.0000000+00:00</time></trkpt><trkpt lat="39.43439123" lon="-0.39107404"><ele>13.8</ele><time>2022-11-10T15:50:42.0000000+00:00</time></trkpt><trkpt lat="39.43434647" lon="-0.39108988"><ele>14.0</ele><time>2022-11-10T15:50:43.0000000+00:00</time></trkpt><trkpt lat="39.43428797" lon="-0.39111"><ele>14.0</ele><time>2022-11-10T15:50:44.0000000+00:00</time></trkpt><trkpt lat="39.43421731" lon="-0.39113673"><ele>14.0</ele><time>2022-11-10T15:50:45.0000000+00:00</time></trkpt><trkpt lat="39.43417381" lon="-0.39114528"><ele>14.0</ele><time>2022-11-10T15:50:46.0000000+00:00</time></trkpt><trkpt lat="39.43411916" lon="-0.39116498"><ele>14.2</ele><time>2022-11-10T15:50:47.0000000+00:00</time></trkpt><trkpt lat="39.4340671" lon="-0.39118862"><ele>14.2</ele><time>2022-11-10T15:50:48.0000000+00:00</time></trkpt><trkpt lat="39.43401162" lon="-0.39121368"><ele>14.4</ele><time>2022-11-10T15:50:49.0000000+00:00</time></trkpt><trkpt lat="39.43394045" lon="-0.39124411"><ele>14.4</ele><time>2022-11-10T15:50:50.0000000+00:00</time></trkpt><trkpt lat="39.43388044" lon="-0.39127118"><ele>14.4</ele><time>2022-11-10T15:50:51.0000000+00:00</time></trkpt><trkpt lat="39.43383342" lon="-0.39129331"><ele>14.2</ele><time>2022-11-10T15:50:52.0000000+00:00</time></trkpt><trkpt lat="39.43377927" lon="-0.39132273"><ele>14.2</ele><time>2022-11-10T15:50:53.0000000+00:00</time></trkpt><trkpt lat="39.43374189" lon="-0.39134209"><ele>14.0</ele><time>2022-11-10T15:50:54.0000000+00:00</time></trkpt><trkpt lat="39.43373208" lon="-0.39134955"><ele>13.8</ele><time>2022-11-10T15:50:55.0000000+00:00</time></trkpt><trkpt lat="39.433719" lon="-0.39135953"><ele>13.6</ele><time>2022-11-10T15:50:56.0000000+00:00</time></trkpt><trkpt lat="39.43371381" lon="-0.39136254"><ele>13.6</ele><time>2022-11-10T15:50:57.0000000+00:00</time></trkpt><trkpt lat="39.4337128" lon="-0.39136388"><ele>13.6</ele><time>2022-11-10T15:50:58.0000000+00:00</time></trkpt><trkpt lat="39.43371129" lon="-0.39136497"><ele>13.4</ele><time>2022-11-10T15:50:59.0000000+00:00</time></trkpt><trkpt lat="39.43371129" lon="-0.39136497"><ele>13.4</ele><time>2022-11-10T15:51:00.0000000+00:00</time></trkpt><trkpt lat="39.43370928" lon="-0.3913607"><ele>13.4</ele><time>2022-11-10T15:51:01.0000000+00:00</time></trkpt><trkpt lat="39.43369436" lon="-0.39135626"><ele>13.4</ele><time>2022-11-10T15:51:02.0000000+00:00</time></trkpt><trkpt lat="39.43367718" lon="-0.39135408"><ele>13.4</ele><time>2022-11-10T15:51:03.0000000+00:00</time></trkpt><trkpt lat="39.43365715" lon="-0.39135961"><ele>13.4</ele><time>2022-11-10T15:51:04.0000000+00:00</time></trkpt><trkpt lat="39.43363879" lon="-0.39137227"><ele>13.2</ele><time>2022-11-10T15:51:05.0000000+00:00</time></trkpt><trkpt lat="39.43361716" lon="-0.39138534"><ele>13.2</ele><time>2022-11-10T15:51:06.0000000+00:00</time></trkpt><trkpt lat="39.43358783" lon="-0.39139733"><ele>13.2</ele><time>2022-11-10T15:51:07.0000000+00:00</time></trkpt><trkpt lat="39.43356084" lon="-0.39141225"><ele>13.2</ele><time>2022-11-10T15:51:08.0000000+00:00</time></trkpt><trkpt lat="39.43353125" lon="-0.39142457"><ele>13.2</ele><time>2022-11-10T15:51:09.0000000+00:00</time></trkpt><trkpt lat="39.43351214" lon="-0.39143563"><ele>13.2</ele><time>2022-11-10T15:51:10.0000000+00:00</time></trkpt><trkpt lat="39.433488" lon="-0.39145106"><ele>13.2</ele><time>2022-11-10T15:51:11.0000000+00:00</time></trkpt><trkpt lat="39.43346679" lon="-0.39146371"><ele>13.2</ele><time>2022-11-10T15:51:12.0000000+00:00</time></trkpt><trkpt lat="39.43344584" lon="-0.39147385"><ele>13.2</ele><time>2022-11-10T15:51:13.0000000+00:00</time></trkpt><trkpt lat="39.43342748" lon="-0.3914783"><ele>13.2</ele><time>2022-11-10T15:51:14.0000000+00:00</time></trkpt><trkpt lat="39.43340452" lon="-0.39149137"><ele>13.2</ele><time>2022-11-10T15:51:15.0000000+00:00</time></trkpt><trkpt lat="39.43339018" lon="-0.39150629"><ele>13.2</ele><time>2022-11-10T15:51:16.0000000+00:00</time></trkpt><trkpt lat="39.43337962" lon="-0.39151845"><ele>13.2</ele><time>2022-11-10T15:51:17.0000000+00:00</time></trkpt><trkpt lat="39.43335883" lon="-0.39153152"><ele>13.0</ele><time>2022-11-10T15:51:18.0000000+00:00</time></trkpt><trkpt lat="39.43333712" lon="-0.39155072"><ele>13.0</ele><time>2022-11-10T15:51:19.0000000+00:00</time></trkpt><trkpt lat="39.43330728" lon="-0.39157025"><ele>13.0</ele><time>2022-11-10T15:51:20.0000000+00:00</time></trkpt><trkpt lat="39.43326957" lon="-0.391586"><ele>13.0</ele><time>2022-11-10T15:51:21.0000000+00:00</time></trkpt><trkpt lat="39.43323855" lon="-0.39159363"><ele>13.0</ele><time>2022-11-10T15:51:22.0000000+00:00</time></trkpt><trkpt lat="39.43320151" lon="-0.39160319"><ele>13.0</ele><time>2022-11-10T15:51:23.0000000+00:00</time></trkpt><trkpt lat="39.43316194" lon="-0.39161333"><ele>13.0</ele><time>2022-11-10T15:51:24.0000000+00:00</time></trkpt><trkpt lat="39.43310587" lon="-0.39162096"><ele>13.2</ele><time>2022-11-10T15:51:25.0000000+00:00</time></trkpt><trkpt lat="39.43305071" lon="-0.39161668"><ele>13.2</ele><time>2022-11-10T15:51:26.0000000+00:00</time></trkpt><trkpt lat="39.43297469" lon="-0.39162649"><ele>13.2</ele><time>2022-11-10T15:51:27.0000000+00:00</time></trkpt><trkpt lat="39.43288425" lon="-0.39164593"><ele>13.2</ele><time>2022-11-10T15:51:28.0000000+00:00</time></trkpt><trkpt lat="39.43281896" lon="-0.3916689"><ele>13.4</ele><time>2022-11-10T15:51:29.0000000+00:00</time></trkpt><trkpt lat="39.43273421" lon="-0.39170637"><ele>13.4</ele><time>2022-11-10T15:51:30.0000000+00:00</time></trkpt><trkpt lat="39.4326452" lon="-0.39175649"><ele>13.4</ele><time>2022-11-10T15:51:31.0000000+00:00</time></trkpt><trkpt lat="39.43254654" lon="-0.39180947"><ele>13.4</ele><time>2022-11-10T15:51:32.0000000+00:00</time></trkpt><trkpt lat="39.43247773" lon="-0.39184207"><ele>13.6</ele><time>2022-11-10T15:51:33.0000000+00:00</time></trkpt><trkpt lat="39.43237446" lon="-0.39188968"><ele>13.6</ele><time>2022-11-10T15:51:34.0000000+00:00</time></trkpt><trkpt lat="39.43230313" lon="-0.39192027"><ele>13.6</ele><time>2022-11-10T15:51:35.0000000+00:00</time></trkpt><trkpt lat="39.43221848" lon="-0.3919647"><ele>13.6</ele><time>2022-11-10T15:51:36.0000000+00:00</time></trkpt><trkpt lat="39.43213298" lon="-0.39201767"><ele>13.8</ele><time>2022-11-10T15:51:37.0000000+00:00</time></trkpt><trkpt lat="39.4320417" lon="-0.39207509"><ele>13.8</ele><time>2022-11-10T15:51:38.0000000+00:00</time></trkpt><trkpt lat="39.43196065" lon="-0.39212488"><ele>13.8</ele><time>2022-11-10T15:51:39.0000000+00:00</time></trkpt><trkpt lat="39.4318806" lon="-0.39217324"><ele>13.8</ele><time>2022-11-10T15:51:40.0000000+00:00</time></trkpt><trkpt lat="39.43180307" lon="-0.39221917"><ele>13.8</ele><time>2022-11-10T15:51:41.0000000+00:00</time></trkpt><trkpt lat="39.43171439" lon="-0.39227114"><ele>13.6</ele><time>2022-11-10T15:51:42.0000000+00:00</time></trkpt><trkpt lat="39.43165789" lon="-0.39227676"><ele>13.6</ele><time>2022-11-10T15:51:43.0000000+00:00</time></trkpt><trkpt lat="39.43156762" lon="-0.39229612"><ele>13.6</ele><time>2022-11-10T15:51:44.0000000+00:00</time></trkpt><trkpt lat="39.4315066" lon="-0.39231909"><ele>13.8</ele><time>2022-11-10T15:51:45.0000000+00:00</time></trkpt><trkpt lat="39.43142991" lon="-0.39234549"><ele>13.8</ele><time>2022-11-10T15:51:46.0000000+00:00</time></trkpt><trkpt lat="39.43135774" lon="-0.39235303"><ele>13.8</ele><time>2022-11-10T15:51:47.0000000+00:00</time></trkpt><trkpt lat="39.43128817" lon="-0.39236418"><ele>13.8</ele><time>2022-11-10T15:51:48.0000000+00:00</time></trkpt><trkpt lat="39.43121558" lon="-0.3923817"><ele>13.8</ele><time>2022-11-10T15:51:49.0000000+00:00</time></trkpt><trkpt lat="39.43112816" lon="-0.39241246"><ele>13.8</ele><time>2022-11-10T15:51:50.0000000+00:00</time></trkpt><trkpt lat="39.43106839" lon="-0.39243442"><ele>13.8</ele><time>2022-11-10T15:51:51.0000000+00:00</time></trkpt><trkpt lat="39.43099338" lon="-0.39245999"><ele>13.8</ele><time>2022-11-10T15:51:52.0000000+00:00</time></trkpt><trkpt lat="39.4309197" lon="-0.39248932"><ele>13.8</ele><time>2022-11-10T15:51:53.0000000+00:00</time></trkpt><trkpt lat="39.43084594" lon="-0.39251681"><ele>13.8</ele><time>2022-11-10T15:51:54.0000000+00:00</time></trkpt><trkpt lat="39.43077419" lon="-0.3925438"><ele>13.8</ele><time>2022-11-10T15:51:55.0000000+00:00</time></trkpt><trkpt lat="39.4307047" lon="-0.39256987"><ele>13.8</ele><time>2022-11-10T15:51:56.0000000+00:00</time></trkpt><trkpt lat="39.4306405" lon="-0.392592"><ele>13.8</ele><time>2022-11-10T15:51:57.0000000+00:00</time></trkpt><trkpt lat="39.43056892" lon="-0.39262218"><ele>13.8</ele><time>2022-11-10T15:51:58.0000000+00:00</time></trkpt><trkpt lat="39.43049843" lon="-0.39265"><ele>13.6</ele><time>2022-11-10T15:51:59.0000000+00:00</time></trkpt><trkpt lat="39.43042651" lon="-0.39267481"><ele>13.6</ele><time>2022-11-10T15:52:00.0000000+00:00</time></trkpt><trkpt lat="39.43035468" lon="-0.39270113"><ele>13.6</ele><time>2022-11-10T15:52:01.0000000+00:00</time></trkpt><trkpt lat="39.43028108" lon="-0.3927272"><ele>13.6</ele><time>2022-11-10T15:52:02.0000000+00:00</time></trkpt><trkpt lat="39.43019559" lon="-0.39276056"><ele>13.6</ele><time>2022-11-10T15:52:03.0000000+00:00</time></trkpt><trkpt lat="39.43013918" lon="-0.39278571"><ele>13.6</ele><time>2022-11-10T15:52:04.0000000+00:00</time></trkpt><trkpt lat="39.43007179" lon="-0.39281345"><ele>13.4</ele><time>2022-11-10T15:52:05.0000000+00:00</time></trkpt><trkpt lat="39.43000649" lon="-0.39284119"><ele>13.4</ele><time>2022-11-10T15:52:06.0000000+00:00</time></trkpt><trkpt lat="39.42994732" lon="-0.39286634"><ele>13.4</ele><time>2022-11-10T15:52:07.0000000+00:00</time></trkpt><trkpt lat="39.42989074" lon="-0.39289065"><ele>13.4</ele><time>2022-11-10T15:52:08.0000000+00:00</time></trkpt><trkpt lat="39.42983567" lon="-0.39291102"><ele>13.4</ele><time>2022-11-10T15:52:09.0000000+00:00</time></trkpt><trkpt lat="39.42979225" lon="-0.39293767"><ele>13.4</ele><time>2022-11-10T15:52:10.0000000+00:00</time></trkpt><trkpt lat="39.42976501" lon="-0.39298193"><ele>13.4</ele><time>2022-11-10T15:52:11.0000000+00:00</time></trkpt><trkpt lat="39.42975118" lon="-0.39303255"><ele>13.4</ele><time>2022-11-10T15:52:12.0000000+00:00</time></trkpt><trkpt lat="39.42974498" lon="-0.39308737"><ele>13.4</ele><time>2022-11-10T15:52:13.0000000+00:00</time></trkpt><trkpt lat="39.42974472" lon="-0.39312408"><ele>13.6</ele><time>2022-11-10T15:52:14.0000000+00:00</time></trkpt><trkpt lat="39.42974313" lon="-0.39316004"><ele>13.6</ele><time>2022-11-10T15:52:15.0000000+00:00</time></trkpt><trkpt lat="39.42974573" lon="-0.39319701"><ele>13.6</ele><time>2022-11-10T15:52:16.0000000+00:00</time></trkpt><trkpt lat="39.42975629" lon="-0.39321804"><ele>13.6</ele><time>2022-11-10T15:52:17.0000000+00:00</time></trkpt><trkpt lat="39.42977331" lon="-0.39324931"><ele>13.6</ele><time>2022-11-10T15:52:18.0000000+00:00</time></trkpt><trkpt lat="39.42979652" lon="-0.39327831"><ele>13.6</ele><time>2022-11-10T15:52:19.0000000+00:00</time></trkpt><trkpt lat="39.42981354" lon="-0.39331117"><ele>13.6</ele><time>2022-11-10T15:52:20.0000000+00:00</time></trkpt><trkpt lat="39.42983047" lon="-0.39334176"><ele>13.4</ele><time>2022-11-10T15:52:21.0000000+00:00</time></trkpt><trkpt lat="39.42984321" lon="-0.39336833"><ele>13.4</ele><time>2022-11-10T15:52:22.0000000+00:00</time></trkpt><trkpt lat="39.42985159" lon="-0.3933851"><ele>13.4</ele><time>2022-11-10T15:52:23.0000000+00:00</time></trkpt><trkpt lat="39.42985436" lon="-0.39339725"><ele>13.2</ele><time>2022-11-10T15:52:24.0000000+00:00</time></trkpt><trkpt lat="39.42985537" lon="-0.39341217"><ele>13.2</ele><time>2022-11-10T15:52:25.0000000+00:00</time></trkpt><trkpt lat="39.42986308" lon="-0.39342851"><ele>13.2</ele><time>2022-11-10T15:52:26.0000000+00:00</time></trkpt><trkpt lat="39.42987842" lon="-0.393441"><ele>13.2</ele><time>2022-11-10T15:52:27.0000000+00:00</time></trkpt><trkpt lat="39.42989199" lon="-0.39344117"><ele>13.2</ele><time>2022-11-10T15:52:28.0000000+00:00</time></trkpt><trkpt lat="39.4298982" lon="-0.39342927"><ele>13.4</ele><time>2022-11-10T15:52:29.0000000+00:00</time></trkpt><trkpt lat="39.42989459" lon="-0.39341033"><ele>13.4</ele><time>2022-11-10T15:52:30.0000000+00:00</time></trkpt><trkpt lat="39.42988713" lon="-0.39340479"><ele>13.4</ele><time>2022-11-10T15:52:31.0000000+00:00</time></trkpt><trkpt lat="39.42988185" lon="-0.3934182"><ele>13.4</ele><time>2022-11-10T15:52:32.0000000+00:00</time></trkpt><trkpt lat="39.42987707" lon="-0.39344628"><ele>13.4</ele><time>2022-11-10T15:52:33.0000000+00:00</time></trkpt><trkpt lat="39.42986853" lon="-0.39348048"><ele>13.4</ele><time>2022-11-10T15:52:34.0000000+00:00</time></trkpt><trkpt lat="39.42983349" lon="-0.39351393"><ele>13.2</ele><time>2022-11-10T15:52:35.0000000+00:00</time></trkpt><trkpt lat="39.42980927" lon="-0.3935239"><ele>13.0</ele><time>2022-11-10T15:52:36.0000000+00:00</time></trkpt><trkpt lat="39.42979267" lon="-0.39352692"><ele>13.0</ele><time>2022-11-10T15:52:37.0000000+00:00</time></trkpt><trkpt lat="39.42977741" lon="-0.39351585"><ele>13.0</ele><time>2022-11-10T15:52:38.0000000+00:00</time></trkpt><trkpt lat="39.42975193" lon="-0.39351124"><ele>12.8</ele><time>2022-11-10T15:52:39.0000000+00:00</time></trkpt><trkpt lat="39.42972025" lon="-0.39351527"><ele>12.8</ele><time>2022-11-10T15:52:40.0000000+00:00</time></trkpt><trkpt lat="39.42968572" lon="-0.39352633"><ele>12.8</ele><time>2022-11-10T15:52:41.0000000+00:00</time></trkpt><trkpt lat="39.42964498" lon="-0.39353723"><ele>12.8</ele><time>2022-11-10T15:52:42.0000000+00:00</time></trkpt><trkpt lat="39.42959217" lon="-0.39353924"><ele>12.8</ele><time>2022-11-10T15:52:43.0000000+00:00</time></trkpt><trkpt lat="39.42955496" lon="-0.39353027"><ele>12.8</ele><time>2022-11-10T15:52:44.0000000+00:00</time></trkpt><trkpt lat="39.42950861" lon="-0.3935099"><ele>12.8</ele><time>2022-11-10T15:52:45.0000000+00:00</time></trkpt><trkpt lat="39.42946116" lon="-0.39348166"><ele>12.8</ele><time>2022-11-10T15:52:46.0000000+00:00</time></trkpt><trkpt lat="39.42941666" lon="-0.39344687"><ele>12.8</ele><time>2022-11-10T15:52:47.0000000+00:00</time></trkpt><trkpt lat="39.42937089" lon="-0.39340588"><ele>12.8</ele><time>2022-11-10T15:52:48.0000000+00:00</time></trkpt><trkpt lat="39.42933016" lon="-0.39336548"><ele>12.8</ele><time>2022-11-10T15:52:49.0000000+00:00</time></trkpt><trkpt lat="39.42929814" lon="-0.39333145"><ele>12.6</ele><time>2022-11-10T15:52:50.0000000+00:00</time></trkpt><trkpt lat="39.42927601" lon="-0.39330547"><ele>12.8</ele><time>2022-11-10T15:52:51.0000000+00:00</time></trkpt><trkpt lat="39.42925405" lon="-0.39328644"><ele>12.8</ele><time>2022-11-10T15:52:52.0000000+00:00</time></trkpt><trkpt lat="39.42924273" lon="-0.39325761"><ele>12.8</ele><time>2022-11-10T15:52:53.0000000+00:00</time></trkpt><trkpt lat="39.42923276" lon="-0.39321897"><ele>12.8</ele><time>2022-11-10T15:52:54.0000000+00:00</time></trkpt><trkpt lat="39.42922597" lon="-0.3931784"><ele>13.0</ele><time>2022-11-10T15:52:55.0000000+00:00</time></trkpt><trkpt lat="39.42922094" lon="-0.39313481"><ele>13.2</ele><time>2022-11-10T15:52:56.0000000+00:00</time></trkpt><trkpt lat="39.42921767" lon="-0.39309072"><ele>13.2</ele><time>2022-11-10T15:52:57.0000000+00:00</time></trkpt><trkpt lat="39.42921507" lon="-0.39304856"><ele>13.4</ele><time>2022-11-10T15:52:58.0000000+00:00</time></trkpt><trkpt lat="39.42921725" lon="-0.39301143"><ele>13.6</ele><time>2022-11-10T15:52:59.0000000+00:00</time></trkpt><trkpt lat="39.42922538" lon="-0.39297832"><ele>13.6</ele><time>2022-11-10T15:53:00.0000000+00:00</time></trkpt><trkpt lat="39.42924583" lon="-0.3929401"><ele>13.8</ele><time>2022-11-10T15:53:01.0000000+00:00</time></trkpt><trkpt lat="39.42927023" lon="-0.39289886"><ele>13.8</ele><time>2022-11-10T15:53:02.0000000+00:00</time></trkpt><trkpt lat="39.42929235" lon="-0.39285737"><ele>13.8</ele><time>2022-11-10T15:53:03.0000000+00:00</time></trkpt><trkpt lat="39.42931582" lon="-0.39281529"><ele>13.8</ele><time>2022-11-10T15:53:04.0000000+00:00</time></trkpt><trkpt lat="39.42934013" lon="-0.39277188"><ele>13.8</ele><time>2022-11-10T15:53:05.0000000+00:00</time></trkpt><trkpt lat="39.42936544" lon="-0.39272343"><ele>13.8</ele><time>2022-11-10T15:53:06.0000000+00:00</time></trkpt><trkpt lat="39.42938481" lon="-0.39267926"><ele>13.6</ele><time>2022-11-10T15:53:07.0000000+00:00</time></trkpt><trkpt lat="39.4293957" lon="-0.39265176"><ele>13.4</ele><time>2022-11-10T15:53:08.0000000+00:00</time></trkpt><trkpt lat="39.42940668" lon="-0.39262435"><ele>13.4</ele><time>2022-11-10T15:53:09.0000000+00:00</time></trkpt><trkpt lat="39.42941582" lon="-0.39260214"><ele>13.4</ele><time>2022-11-10T15:53:10.0000000+00:00</time></trkpt><trkpt lat="39.42942278" lon="-0.39256677"><ele>13.2</ele><time>2022-11-10T15:53:11.0000000+00:00</time></trkpt><trkpt lat="39.42942512" lon="-0.39252981"><ele>13.2</ele><time>2022-11-10T15:53:12.0000000+00:00</time></trkpt><trkpt lat="39.42942211" lon="-0.39249745"><ele>13.2</ele><time>2022-11-10T15:53:13.0000000+00:00</time></trkpt><trkpt lat="39.42941498" lon="-0.39247273"><ele>13.2</ele><time>2022-11-10T15:53:14.0000000+00:00</time></trkpt><trkpt lat="39.42940207" lon="-0.39245244"><ele>13.0</ele><time>2022-11-10T15:53:15.0000000+00:00</time></trkpt><trkpt lat="39.42939017" lon="-0.39243132"><ele>13.0</ele><time>2022-11-10T15:53:16.0000000+00:00</time></trkpt><trkpt lat="39.42938137" lon="-0.39240559"><ele>13.0</ele><time>2022-11-10T15:53:17.0000000+00:00</time></trkpt><trkpt lat="39.42937693" lon="-0.39237139"><ele>13.0</ele><time>2022-11-10T15:53:18.0000000+00:00</time></trkpt><trkpt lat="39.42937257" lon="-0.39233157"><ele>13.0</ele><time>2022-11-10T15:53:19.0000000+00:00</time></trkpt><trkpt lat="39.42937014" lon="-0.39228816"><ele>13.0</ele><time>2022-11-10T15:53:20.0000000+00:00</time></trkpt><trkpt lat="39.42937492" lon="-0.39223719"><ele>13.0</ele><time>2022-11-10T15:53:21.0000000+00:00</time></trkpt><trkpt lat="39.42938414" lon="-0.39217592"><ele>12.8</ele><time>2022-11-10T15:53:22.0000000+00:00</time></trkpt><trkpt lat="39.42939361" lon="-0.39211406"><ele>12.6</ele><time>2022-11-10T15:53:23.0000000+00:00</time></trkpt><trkpt lat="39.42939822" lon="-0.39205313"><ele>12.6</ele><time>2022-11-10T15:53:24.0000000+00:00</time></trkpt><trkpt lat="39.4294035" lon="-0.39199244"><ele>12.6</ele><time>2022-11-10T15:53:25.0000000+00:00</time></trkpt><trkpt lat="39.42941079" lon="-0.39193394"><ele>12.4</ele><time>2022-11-10T15:53:26.0000000+00:00</time></trkpt><trkpt lat="39.42942152" lon="-0.39187468"><ele>12.4</ele><time>2022-11-10T15:53:27.0000000+00:00</time></trkpt><trkpt lat="39.42942797" lon="-0.39181818"><ele>12.4</ele><time>2022-11-10T15:53:28.0000000+00:00</time></trkpt><trkpt lat="39.42943325" lon="-0.39176144"><ele>12.4</ele><time>2022-11-10T15:53:29.0000000+00:00</time></trkpt><trkpt lat="39.42943837" lon="-0.39170243"><ele>12.6</ele><time>2022-11-10T15:53:30.0000000+00:00</time></trkpt><trkpt lat="39.42944549" lon="-0.391642"><ele>12.6</ele><time>2022-11-10T15:53:31.0000000+00:00</time></trkpt><trkpt lat="39.42945086" lon="-0.39158131"><ele>12.6</ele><time>2022-11-10T15:53:32.0000000+00:00</time></trkpt><trkpt lat="39.42945479" lon="-0.39151979"><ele>12.6</ele><time>2022-11-10T15:53:33.0000000+00:00</time></trkpt><trkpt lat="39.42945588" lon="-0.39145625"><ele>12.6</ele><time>2022-11-10T15:53:34.0000000+00:00</time></trkpt><trkpt lat="39.42945496" lon="-0.39139113"><ele>12.8</ele><time>2022-11-10T15:53:35.0000000+00:00</time></trkpt><trkpt lat="39.42945329" lon="-0.39132298"><ele>12.8</ele><time>2022-11-10T15:53:36.0000000+00:00</time></trkpt><trkpt lat="39.42944599" lon="-0.39125106"><ele>12.8</ele><time>2022-11-10T15:53:37.0000000+00:00</time></trkpt><trkpt lat="39.42943468" lon="-0.39117948"><ele>12.8</ele><time>2022-11-10T15:53:38.0000000+00:00</time></trkpt><trkpt lat="39.42942035" lon="-0.39110949"><ele>12.8</ele><time>2022-11-10T15:53:39.0000000+00:00</time></trkpt><trkpt lat="39.42940576" lon="-0.39104101"><ele>12.8</ele><time>2022-11-10T15:53:40.0000000+00:00</time></trkpt><trkpt lat="39.42939185" lon="-0.39097211"><ele>12.8</ele><time>2022-11-10T15:53:41.0000000+00:00</time></trkpt><trkpt lat="39.42937374" lon="-0.39090439"><ele>12.8</ele><time>2022-11-10T15:53:42.0000000+00:00</time></trkpt><trkpt lat="39.42935807" lon="-0.39083683"><ele>12.8</ele><time>2022-11-10T15:53:43.0000000+00:00</time></trkpt><trkpt lat="39.42934097" lon="-0.39077045"><ele>12.8</ele><time>2022-11-10T15:53:44.0000000+00:00</time></trkpt><trkpt lat="39.42933234" lon="-0.39070607"><ele>12.8</ele><time>2022-11-10T15:53:45.0000000+00:00</time></trkpt><trkpt lat="39.4293294" lon="-0.39064296"><ele>12.6</ele><time>2022-11-10T15:53:46.0000000+00:00</time></trkpt><trkpt lat="39.42933192" lon="-0.39058168"><ele>12.6</ele><time>2022-11-10T15:53:47.0000000+00:00</time></trkpt><trkpt lat="39.42934063" lon="-0.39052536"><ele>12.6</ele><time>2022-11-10T15:53:48.0000000+00:00</time></trkpt><trkpt lat="39.42935371" lon="-0.39048253"><ele>12.6</ele><time>2022-11-10T15:53:49.0000000+00:00</time></trkpt><trkpt lat="39.42936838" lon="-0.39045344"><ele>12.6</ele><time>2022-11-10T15:53:50.0000000+00:00</time></trkpt><trkpt lat="39.42939067" lon="-0.39043374"><ele>12.4</ele><time>2022-11-10T15:53:51.0000000+00:00</time></trkpt><trkpt lat="39.42941783" lon="-0.39042402"><ele>12.4</ele><time>2022-11-10T15:53:52.0000000+00:00</time></trkpt><trkpt lat="39.42954498" lon="-0.39039485"><ele>12.4</ele><time>2022-11-10T15:53:56.0000000+00:00</time></trkpt><trkpt lat="39.4295946" lon="-0.3903972"><ele>12.2</ele><time>2022-11-10T15:53:57.0000000+00:00</time></trkpt><trkpt lat="39.42965001" lon="-0.3904226"><ele>12.2</ele><time>2022-11-10T15:53:58.0000000+00:00</time></trkpt><trkpt lat="39.42967541" lon="-0.39044598"><ele>12.2</ele><time>2022-11-10T15:53:59.0000000+00:00</time></trkpt><trkpt lat="39.42970315" lon="-0.39047096"><ele>12.0</ele><time>2022-11-10T15:54:00.0000000+00:00</time></trkpt><trkpt lat="39.42972872" lon="-0.39049393"><ele>12.0</ele><time>2022-11-10T15:54:01.0000000+00:00</time></trkpt><trkpt lat="39.42974523" lon="-0.39051664"><ele>12.0</ele><time>2022-11-10T15:54:02.0000000+00:00</time></trkpt><trkpt lat="39.42976124" lon="-0.39054514"><ele>12.0</ele><time>2022-11-10T15:54:03.0000000+00:00</time></trkpt><trkpt lat="39.429777" lon="-0.39057707"><ele>11.8</ele><time>2022-11-10T15:54:04.0000000+00:00</time></trkpt><trkpt lat="39.4297868" lon="-0.39061077"><ele>11.8</ele><time>2022-11-10T15:54:05.0000000+00:00</time></trkpt><trkpt lat="39.42979217" lon="-0.39064237"><ele>11.8</ele><time>2022-11-10T15:54:06.0000000+00:00</time></trkpt><trkpt lat="39.42978437" lon="-0.39067372"><ele>11.6</ele><time>2022-11-10T15:54:07.0000000+00:00</time></trkpt><trkpt lat="39.42977557" lon="-0.39070138"><ele>11.6</ele><time>2022-11-10T15:54:08.0000000+00:00</time></trkpt><trkpt lat="39.42976987" lon="-0.39071747"><ele>11.4</ele><time>2022-11-10T15:54:09.0000000+00:00</time></trkpt><trkpt lat="39.4297609" lon="-0.39072116"><ele>11.4</ele><time>2022-11-10T15:54:10.0000000+00:00</time></trkpt><trkpt lat="39.42975227" lon="-0.39070716"><ele>11.4</ele><time>2022-11-10T15:54:11.0000000+00:00</time></trkpt><trkpt lat="39.42974498" lon="-0.39068084"><ele>11.4</ele><time>2022-11-10T15:54:12.0000000+00:00</time></trkpt><trkpt lat="39.42973651" lon="-0.39064472"><ele>11.6</ele><time>2022-11-10T15:54:13.0000000+00:00</time></trkpt><trkpt lat="39.42972335" lon="-0.39059853"><ele>11.6</ele><time>2022-11-10T15:54:14.0000000+00:00</time></trkpt><trkpt lat="39.42970952" lon="-0.39055662"><ele>11.6</ele><time>2022-11-10T15:54:15.0000000+00:00</time></trkpt><trkpt lat="39.42969116" lon="-0.3905205"><ele>11.6</ele><time>2022-11-10T15:54:16.0000000+00:00</time></trkpt><trkpt lat="39.42966552" lon="-0.39049393"><ele>11.8</ele><time>2022-11-10T15:54:17.0000000+00:00</time></trkpt><trkpt lat="39.42963568" lon="-0.39047632"><ele>11.8</ele><time>2022-11-10T15:54:18.0000000+00:00</time></trkpt><trkpt lat="39.42960156" lon="-0.39046962"><ele>11.8</ele><time>2022-11-10T15:54:19.0000000+00:00</time></trkpt><trkpt lat="39.42956443" lon="-0.39046786"><ele>11.8</ele><time>2022-11-10T15:54:20.0000000+00:00</time></trkpt><trkpt lat="39.42952353" lon="-0.39046811"><ele>11.6</ele><time>2022-11-10T15:54:21.0000000+00:00</time></trkpt><trkpt lat="39.42935228" lon="-0.3905376"><ele>11.6</ele><time>2022-11-10T15:54:25.0000000+00:00</time></trkpt><trkpt lat="39.42932538" lon="-0.39058805"><ele>11.6</ele><time>2022-11-10T15:54:26.0000000+00:00</time></trkpt><trkpt lat="39.42930954" lon="-0.39064757"><ele>11.6</ele><time>2022-11-10T15:54:27.0000000+00:00</time></trkpt><trkpt lat="39.42931037" lon="-0.39072032"><ele>11.8</ele><time>2022-11-10T15:54:28.0000000+00:00</time></trkpt><trkpt lat="39.42932119" lon="-0.39077673"><ele>11.8</ele><time>2022-11-10T15:54:29.0000000+00:00</time></trkpt><trkpt lat="39.42933787" lon="-0.39083943"><ele>11.8</ele><time>2022-11-10T15:54:30.0000000+00:00</time></trkpt><trkpt lat="39.4293486" lon="-0.39090296"><ele>11.8</ele><time>2022-11-10T15:54:31.0000000+00:00</time></trkpt><trkpt lat="39.42936285" lon="-0.39096725"><ele>11.8</ele><time>2022-11-10T15:54:32.0000000+00:00</time></trkpt><trkpt lat="39.42937835" lon="-0.39103045"><ele>11.8</ele><time>2022-11-10T15:54:33.0000000+00:00</time></trkpt><trkpt lat="39.42939067" lon="-0.39109658"><ele>11.8</ele><time>2022-11-10T15:54:34.0000000+00:00</time></trkpt><trkpt lat="39.42940618" lon="-0.39116104"><ele>11.8</ele><time>2022-11-10T15:54:35.0000000+00:00</time></trkpt><trkpt lat="39.42942051" lon="-0.39122055"><ele>11.6</ele><time>2022-11-10T15:54:36.0000000+00:00</time></trkpt><trkpt lat="39.42943216" lon="-0.39128115"><ele>11.6</ele><time>2022-11-10T15:54:37.0000000+00:00</time></trkpt><trkpt lat="39.42944205" lon="-0.39134595"><ele>11.4</ele><time>2022-11-10T15:54:38.0000000+00:00</time></trkpt><trkpt lat="39.42944876" lon="-0.391413"><ele>11.4</ele><time>2022-11-10T15:54:39.0000000+00:00</time></trkpt><trkpt lat="39.42945354" lon="-0.39148249"><ele>11.4</ele><time>2022-11-10T15:54:40.0000000+00:00</time></trkpt><trkpt lat="39.42945505" lon="-0.39155172"><ele>11.4</ele><time>2022-11-10T15:54:41.0000000+00:00</time></trkpt><trkpt lat="39.42945312" lon="-0.39162071"><ele>11.6</ele><time>2022-11-10T15:54:42.0000000+00:00</time></trkpt><trkpt lat="39.42945178" lon="-0.39169145"><ele>11.6</ele><time>2022-11-10T15:54:43.0000000+00:00</time></trkpt><trkpt lat="39.4294465" lon="-0.39176513"><ele>11.6</ele><time>2022-11-10T15:54:44.0000000+00:00</time></trkpt><trkpt lat="39.4294377" lon="-0.39183989"><ele>11.6</ele><time>2022-11-10T15:54:45.0000000+00:00</time></trkpt><trkpt lat="39.4294242" lon="-0.39191659"><ele>11.6</ele><time>2022-11-10T15:54:46.0000000+00:00</time></trkpt><trkpt lat="39.42941087" lon="-0.39198875"><ele>11.6</ele><time>2022-11-10T15:54:47.0000000+00:00</time></trkpt><trkpt lat="39.42939805" lon="-0.39205933"><ele>11.6</ele><time>2022-11-10T15:54:48.0000000+00:00</time></trkpt><trkpt lat="39.42938875" lon="-0.39212714"><ele>11.6</ele><time>2022-11-10T15:54:49.0000000+00:00</time></trkpt><trkpt lat="39.42938288" lon="-0.39219805"><ele>11.6</ele><time>2022-11-10T15:54:50.0000000+00:00</time></trkpt><trkpt lat="39.42938129" lon="-0.39226259"><ele>11.6</ele><time>2022-11-10T15:54:51.0000000+00:00</time></trkpt><trkpt lat="39.42938598" lon="-0.39231816"><ele>11.8</ele><time>2022-11-10T15:54:52.0000000+00:00</time></trkpt><trkpt lat="39.42939076" lon="-0.39236996"><ele>12.0</ele><time>2022-11-10T15:54:53.0000000+00:00</time></trkpt><trkpt lat="39.42939746" lon="-0.39241715"><ele>12.0</ele><time>2022-11-10T15:54:54.0000000+00:00</time></trkpt><trkpt lat="39.42940274" lon="-0.39246066"><ele>12.0</ele><time>2022-11-10T15:54:55.0000000+00:00</time></trkpt><trkpt lat="39.42940861" lon="-0.39249812"><ele>12.2</ele><time>2022-11-10T15:54:56.0000000+00:00</time></trkpt><trkpt lat="39.42941993" lon="-0.39252469"><ele>12.2</ele><time>2022-11-10T15:54:57.0000000+00:00</time></trkpt><trkpt lat="39.42943526" lon="-0.39253366"><ele>12.2</ele><time>2022-11-10T15:54:58.0000000+00:00</time></trkpt><trkpt lat="39.42944926" lon="-0.39251874"><ele>12.2</ele><time>2022-11-10T15:54:59.0000000+00:00</time></trkpt><trkpt lat="39.42945957" lon="-0.39248329"><ele>12.4</ele><time>2022-11-10T15:55:00.0000000+00:00</time></trkpt><trkpt lat="39.42946661" lon="-0.39243802"><ele>12.6</ele><time>2022-11-10T15:55:01.0000000+00:00</time></trkpt><trkpt lat="39.42947231" lon="-0.39238698"><ele>12.6</ele><time>2022-11-10T15:55:02.0000000+00:00</time></trkpt><trkpt lat="39.42947483" lon="-0.3923325"><ele>12.6</ele><time>2022-11-10T15:55:03.0000000+00:00</time></trkpt><trkpt lat="39.42947843" lon="-0.39227399"><ele>12.6</ele><time>2022-11-10T15:55:04.0000000+00:00</time></trkpt><trkpt lat="39.42948338" lon="-0.39221079"><ele>12.8</ele><time>2022-11-10T15:55:05.0000000+00:00</time></trkpt><trkpt lat="39.42948841" lon="-0.39214382"><ele>12.8</ele><time>2022-11-10T15:55:06.0000000+00:00</time></trkpt><trkpt lat="39.42949394" lon="-0.39207643"><ele>12.8</ele><time>2022-11-10T15:55:07.0000000+00:00</time></trkpt><trkpt lat="39.42950131" lon="-0.39201004"><ele>12.8</ele><time>2022-11-10T15:55:08.0000000+00:00</time></trkpt><trkpt lat="39.42950944" lon="-0.39194408"><ele>12.8</ele><time>2022-11-10T15:55:09.0000000+00:00</time></trkpt><trkpt lat="39.42951841" lon="-0.39187837"><ele>13.0</ele><time>2022-11-10T15:55:10.0000000+00:00</time></trkpt><trkpt lat="39.42952462" lon="-0.39181332"><ele>13.0</ele><time>2022-11-10T15:55:11.0000000+00:00</time></trkpt><trkpt lat="39.42953208" lon="-0.39174928"><ele>13.2</ele><time>2022-11-10T15:55:12.0000000+00:00</time></trkpt><trkpt lat="39.42954146" lon="-0.39168642"><ele>13.2</ele><time>2022-11-10T15:55:13.0000000+00:00</time></trkpt><trkpt lat="39.42954809" lon="-0.39162649"><ele>13.6</ele><time>2022-11-10T15:55:14.0000000+00:00</time></trkpt><trkpt lat="39.42955286" lon="-0.39156991"><ele>13.6</ele><time>2022-11-10T15:55:15.0000000+00:00</time></trkpt><trkpt lat="39.4295563" lon="-0.3915197"><ele>13.8</ele><time>2022-11-10T15:55:16.0000000+00:00</time></trkpt><trkpt lat="39.42956141" lon="-0.39146078"><ele>13.8</ele><time>2022-11-10T15:55:17.0000000+00:00</time></trkpt><trkpt lat="39.42956175" lon="-0.39142164"><ele>14.0</ele><time>2022-11-10T15:55:18.0000000+00:00</time></trkpt><trkpt lat="39.42956342" lon="-0.39137428"><ele>14.4</ele><time>2022-11-10T15:55:19.0000000+00:00</time></trkpt><trkpt lat="39.42956451" lon="-0.39132893"><ele>14.6</ele><time>2022-11-10T15:55:20.0000000+00:00</time></trkpt><trkpt lat="39.42956996" lon="-0.3912825"><ele>14.8</ele><time>2022-11-10T15:55:21.0000000+00:00</time></trkpt><trkpt lat="39.42957315" lon="-0.39123455"><ele>14.8</ele><time>2022-11-10T15:55:22.0000000+00:00</time></trkpt><trkpt lat="39.42957742" lon="-0.39118652"><ele>15.0</ele><time>2022-11-10T15:55:23.0000000+00:00</time></trkpt><trkpt lat="39.42957851" lon="-0.39114352"><ele>15.4</ele><time>2022-11-10T15:55:24.0000000+00:00</time></trkpt><trkpt lat="39.4295801" lon="-0.39110329"><ele>15.8</ele><time>2022-11-10T15:55:25.0000000+00:00</time></trkpt><trkpt lat="39.42957709" lon="-0.3910639"><ele>15.8</ele><time>2022-11-10T15:55:26.0000000+00:00</time></trkpt><trkpt lat="39.42957323" lon="-0.39102769"><ele>16.0</ele><time>2022-11-10T15:55:27.0000000+00:00</time></trkpt><trkpt lat="39.42957114" lon="-0.39099282"><ele>16.2</ele><time>2022-11-10T15:55:28.0000000+00:00</time></trkpt><trkpt lat="39.42956854" lon="-0.39095661"><ele>16.4</ele><time>2022-11-10T15:55:29.0000000+00:00</time></trkpt><trkpt lat="39.42956518" lon="-0.39092073"><ele>16.6</ele><time>2022-11-10T15:55:30.0000000+00:00</time></trkpt><trkpt lat="39.42956091" lon="-0.39088327"><ele>16.8</ele><time>2022-11-10T15:55:31.0000000+00:00</time></trkpt><trkpt lat="39.42955529" lon="-0.39084689"><ele>17.0</ele><time>2022-11-10T15:55:32.0000000+00:00</time></trkpt><trkpt lat="39.42954775" lon="-0.39081127"><ele>17.2</ele><time>2022-11-10T15:55:33.0000000+00:00</time></trkpt><trkpt lat="39.42954431" lon="-0.3907717"><ele>17.4</ele><time>2022-11-10T15:55:34.0000000+00:00</time></trkpt><trkpt lat="39.42954012" lon="-0.39073507"><ele>17.6</ele><time>2022-11-10T15:55:35.0000000+00:00</time></trkpt><trkpt lat="39.42953434" lon="-0.39070062"><ele>18.0</ele><time>2022-11-10T15:55:36.0000000+00:00</time></trkpt><trkpt lat="39.42952244" lon="-0.39066684"><ele>18.0</ele><time>2022-11-10T15:55:37.0000000+00:00</time></trkpt><trkpt lat="39.42951313" lon="-0.39063189"><ele>18.2</ele><time>2022-11-10T15:55:38.0000000+00:00</time></trkpt><trkpt lat="39.42950559" lon="-0.39059526"><ele>18.6</ele><time>2022-11-10T15:55:39.0000000+00:00</time></trkpt><trkpt lat="39.42949318" lon="-0.39055847"><ele>18.6</ele><time>2022-11-10T15:55:40.0000000+00:00</time></trkpt><trkpt lat="39.42948371" lon="-0.3905231"><ele>18.8</ele><time>2022-11-10T15:55:41.0000000+00:00</time></trkpt><trkpt lat="39.42947416" lon="-0.39048705"><ele>19.0</ele><time>2022-11-10T15:55:42.0000000+00:00</time></trkpt><trkpt lat="39.42946569" lon="-0.39045059"><ele>19.2</ele><time>2022-11-10T15:55:43.0000000+00:00</time></trkpt><trkpt lat="39.4294558" lon="-0.39041463"><ele>19.4</ele><time>2022-11-10T15:55:44.0000000+00:00</time></trkpt><trkpt lat="39.4294449" lon="-0.3903806"><ele>19.6</ele><time>2022-11-10T15:55:45.0000000+00:00</time></trkpt><trkpt lat="39.42943334" lon="-0.39034389"><ele>19.8</ele><time>2022-11-10T15:55:46.0000000+00:00</time></trkpt><trkpt lat="39.4294216" lon="-0.3903055"><ele>20.0</ele><time>2022-11-10T15:55:47.0000000+00:00</time></trkpt><trkpt lat="39.42941071" lon="-0.39026745"><ele>20.2</ele><time>2022-11-10T15:55:48.0000000+00:00</time></trkpt><trkpt lat="39.4293978" lon="-0.3902278"><ele>20.4</ele><time>2022-11-10T15:55:49.0000000+00:00</time></trkpt><trkpt lat="39.42938648" lon="-0.39019008"><ele>20.4</ele><time>2022-11-10T15:55:50.0000000+00:00</time></trkpt><trkpt lat="39.42936972" lon="-0.39015488"><ele>20.4</ele><time>2022-11-10T15:55:51.0000000+00:00</time></trkpt><trkpt lat="39.42935798" lon="-0.39011875"><ele>20.6</ele><time>2022-11-10T15:55:52.0000000+00:00</time></trkpt><trkpt lat="39.42934851" lon="-0.39008011"><ele>20.6</ele><time>2022-11-10T15:55:53.0000000+00:00</time></trkpt><trkpt lat="39.42933862" lon="-0.39004038"><ele>20.6</ele><time>2022-11-10T15:55:54.0000000+00:00</time></trkpt><trkpt lat="39.42932546" lon="-0.39000124"><ele>21.0</ele><time>2022-11-10T15:55:55.0000000+00:00</time></trkpt><trkpt lat="39.42931289" lon="-0.38995707"><ele>21.0</ele><time>2022-11-10T15:55:56.0000000+00:00</time></trkpt><trkpt lat="39.42929965" lon="-0.38990988"><ele>21.2</ele><time>2022-11-10T15:55:57.0000000+00:00</time></trkpt><trkpt lat="39.42928841" lon="-0.38986319"><ele>21.2</ele><time>2022-11-10T15:55:58.0000000+00:00</time></trkpt><trkpt lat="39.42927945" lon="-0.38981063"><ele>21.4</ele><time>2022-11-10T15:55:59.0000000+00:00</time></trkpt><trkpt lat="39.42926872" lon="-0.38975959"><ele>21.4</ele><time>2022-11-10T15:56:00.0000000+00:00</time></trkpt><trkpt lat="39.42925757" lon="-0.38970762"><ele>21.4</ele><time>2022-11-10T15:56:01.0000000+00:00</time></trkpt><trkpt lat="39.42924751" lon="-0.38965381"><ele>21.6</ele><time>2022-11-10T15:56:02.0000000+00:00</time></trkpt><trkpt lat="39.42923578" lon="-0.38960536"><ele>21.6</ele><time>2022-11-10T15:56:03.0000000+00:00</time></trkpt><trkpt lat="39.42922387" lon="-0.38955851"><ele>21.4</ele><time>2022-11-10T15:56:04.0000000+00:00</time></trkpt><trkpt lat="39.42921063" lon="-0.38951827"><ele>21.4</ele><time>2022-11-10T15:56:05.0000000+00:00</time></trkpt><trkpt lat="39.42919605" lon="-0.38947594"><ele>21.4</ele><time>2022-11-10T15:56:06.0000000+00:00</time></trkpt><trkpt lat="39.42918087" lon="-0.3894306"><ele>21.4</ele><time>2022-11-10T15:56:07.0000000+00:00</time></trkpt><trkpt lat="39.42916696" lon="-0.38938341"><ele>21.4</ele><time>2022-11-10T15:56:08.0000000+00:00</time></trkpt><trkpt lat="39.42915447" lon="-0.38933546"><ele>21.2</ele><time>2022-11-10T15:56:09.0000000+00:00</time></trkpt><trkpt lat="39.42914123" lon="-0.38928635"><ele>20.8</ele><time>2022-11-10T15:56:10.0000000+00:00</time></trkpt><trkpt lat="39.4291284" lon="-0.38923622"><ele>20.6</ele><time>2022-11-10T15:56:11.0000000+00:00</time></trkpt><trkpt lat="39.42911499" lon="-0.38918383"><ele>20.4</ele><time>2022-11-10T15:56:12.0000000+00:00</time></trkpt><trkpt lat="39.42910242" lon="-0.38913203"><ele>20.4</ele><time>2022-11-10T15:56:13.0000000+00:00</time></trkpt><trkpt lat="39.42908666" lon="-0.38907713"><ele>20.2</ele><time>2022-11-10T15:56:14.0000000+00:00</time></trkpt><trkpt lat="39.42907367" lon="-0.38901418"><ele>20.2</ele><time>2022-11-10T15:56:15.0000000+00:00</time></trkpt><trkpt lat="39.42905582" lon="-0.38894855"><ele>20.0</ele><time>2022-11-10T15:56:16.0000000+00:00</time></trkpt><trkpt lat="39.42903905" lon="-0.38888133"><ele>19.8</ele><time>2022-11-10T15:56:17.0000000+00:00</time></trkpt><trkpt lat="39.42902036" lon="-0.38880983"><ele>19.6</ele><time>2022-11-10T15:56:18.0000000+00:00</time></trkpt><trkpt lat="39.42900117" lon="-0.38873348"><ele>19.4</ele><time>2022-11-10T15:56:19.0000000+00:00</time></trkpt><trkpt lat="39.42898247" lon="-0.38865376"><ele>19.2</ele><time>2022-11-10T15:56:20.0000000+00:00</time></trkpt><trkpt lat="39.42896236" lon="-0.38857397"><ele>18.4</ele><time>2022-11-10T15:56:21.0000000+00:00</time></trkpt><trkpt lat="39.4289409" lon="-0.3884899"><ele>17.8</ele><time>2022-11-10T15:56:22.0000000+00:00</time></trkpt><trkpt lat="39.42891626" lon="-0.38840306"><ele>17.4</ele><time>2022-11-10T15:56:23.0000000+00:00</time></trkpt><trkpt lat="39.42888935" lon="-0.38831346"><ele>17.2</ele><time>2022-11-10T15:56:24.0000000+00:00</time></trkpt><trkpt lat="39.42886236" lon="-0.38822142"><ele>16.6</ele><time>2022-11-10T15:56:25.0000000+00:00</time></trkpt><trkpt lat="39.42883688" lon="-0.38812503"><ele>16.0</ele><time>2022-11-10T15:56:26.0000000+00:00</time></trkpt><trkpt lat="39.42881056" lon="-0.38802772"><ele>15.2</ele><time>2022-11-10T15:56:27.0000000+00:00</time></trkpt><trkpt lat="39.42878357" lon="-0.38792546"><ele>14.6</ele><time>2022-11-10T15:56:28.0000000+00:00</time></trkpt><trkpt lat="39.42875683" lon="-0.38782571"><ele>14.2</ele><time>2022-11-10T15:56:29.0000000+00:00</time></trkpt><trkpt lat="39.42872859" lon="-0.38773092"><ele>13.8</ele><time>2022-11-10T15:56:30.0000000+00:00</time></trkpt><trkpt lat="39.42870051" lon="-0.38763897"><ele>13.6</ele><time>2022-11-10T15:56:31.0000000+00:00</time></trkpt><trkpt lat="39.42867" lon="-0.38755364"><ele>13.2</ele><time>2022-11-10T15:56:32.0000000+00:00</time></trkpt><trkpt lat="39.42863915" lon="-0.38747535"><ele>12.8</ele><time>2022-11-10T15:56:33.0000000+00:00</time></trkpt><trkpt lat="39.42861543" lon="-0.38739648"><ele>12.6</ele><time>2022-11-10T15:56:34.0000000+00:00</time></trkpt><trkpt lat="39.42859221" lon="-0.38732112"><ele>12.0</ele><time>2022-11-10T15:56:35.0000000+00:00</time></trkpt><trkpt lat="39.42857319" lon="-0.38725583"><ele>11.8</ele><time>2022-11-10T15:56:36.0000000+00:00</time></trkpt><trkpt lat="39.428555" lon="-0.38719942"><ele>11.4</ele><time>2022-11-10T15:56:37.0000000+00:00</time></trkpt><trkpt lat="39.42853983" lon="-0.38715516"><ele>11.2</ele><time>2022-11-10T15:56:38.0000000+00:00</time></trkpt><trkpt lat="39.42852667" lon="-0.38711795"><ele>10.8</ele><time>2022-11-10T15:56:39.0000000+00:00</time></trkpt><trkpt lat="39.42851284" lon="-0.38708274"><ele>10.6</ele><time>2022-11-10T15:56:40.0000000+00:00</time></trkpt><trkpt lat="39.42849347" lon="-0.38704938"><ele>10.6</ele><time>2022-11-10T15:56:41.0000000+00:00</time></trkpt><trkpt lat="39.42847436" lon="-0.38701284"><ele>10.4</ele><time>2022-11-10T15:56:42.0000000+00:00</time></trkpt><trkpt lat="39.42845483" lon="-0.38697311"><ele>10.4</ele><time>2022-11-10T15:56:43.0000000+00:00</time></trkpt><trkpt lat="39.42843631" lon="-0.38693665"><ele>10.4</ele><time>2022-11-10T15:56:44.0000000+00:00</time></trkpt><trkpt lat="39.42842189" lon="-0.38690915"><ele>10.4</ele><time>2022-11-10T15:56:45.0000000+00:00</time></trkpt><trkpt lat="39.42841183" lon="-0.38688325"><ele>10.4</ele><time>2022-11-10T15:56:46.0000000+00:00</time></trkpt><trkpt lat="39.4284058" lon="-0.38686171"><ele>10.4</ele><time>2022-11-10T15:56:47.0000000+00:00</time></trkpt><trkpt lat="39.42840052" lon="-0.38684461"><ele>10.6</ele><time>2022-11-10T15:56:48.0000000+00:00</time></trkpt><trkpt lat="39.4283939" lon="-0.38683011"><ele>10.6</ele><time>2022-11-10T15:56:49.0000000+00:00</time></trkpt><trkpt lat="39.42838895" lon="-0.38681787"><ele>10.8</ele><time>2022-11-10T15:56:50.0000000+00:00</time></trkpt><trkpt lat="39.42838677" lon="-0.38681276"><ele>10.8</ele><time>2022-11-10T15:56:51.0000000+00:00</time></trkpt><trkpt lat="39.42838392" lon="-0.38681419"><ele>10.8</ele><time>2022-11-10T15:56:52.0000000+00:00</time></trkpt><trkpt lat="39.4283825" lon="-0.38681427"><ele>10.8</ele><time>2022-11-10T15:56:53.0000000+00:00</time></trkpt><trkpt lat="39.4283825" lon="-0.38681427"><ele>10.8</ele><time>2022-11-10T15:56:54.0000000+00:00</time></trkpt><trkpt lat="39.4283825" lon="-0.38681427"><ele>10.6</ele><time>2022-11-10T15:56:55.0000000+00:00</time></trkpt><trkpt lat="39.42838049" lon="-0.38681326"><ele>10.6</ele><time>2022-11-10T15:56:56.0000000+00:00</time></trkpt><trkpt lat="39.42837764" lon="-0.38681486"><ele>10.6</ele><time>2022-11-10T15:56:57.0000000+00:00</time></trkpt><trkpt lat="39.42837764" lon="-0.38681486"><ele>10.6</ele><time>2022-11-10T15:56:58.0000000+00:00</time></trkpt><trkpt lat="39.42837764" lon="-0.38681486"><ele>10.6</ele><time>2022-11-10T15:56:59.0000000+00:00</time></trkpt><trkpt lat="39.42837764" lon="-0.38681486"><ele>10.6</ele><time>2022-11-10T15:57:00.0000000+00:00</time></trkpt><trkpt lat="39.42837764" lon="-0.38681486"><ele>10.6</ele><time>2022-11-10T15:57:01.0000000+00:00</time></trkpt><trkpt lat="39.42837764" lon="-0.38681486"><ele>10.6</ele><time>2022-11-10T15:57:02.0000000+00:00</time></trkpt><trkpt lat="39.42837764" lon="-0.38681486"><ele>10.6</ele><time>2022-11-10T15:57:03.0000000+00:00</time></trkpt><trkpt lat="39.42837764" lon="-0.38681486"><ele>10.6</ele><time>2022-11-10T15:57:04.0000000+00:00</time></trkpt><trkpt lat="39.42837764" lon="-0.38681486"><ele>10.6</ele><time>2022-11-10T15:57:05.0000000+00:00</time></trkpt><trkpt lat="39.42837764" lon="-0.38681486"><ele>10.6</ele><time>2022-11-10T15:57:06.0000000+00:00</time></trkpt><trkpt lat="39.42837764" lon="-0.38681486"><ele>10.6</ele><time>2022-11-10T15:57:07.0000000+00:00</time></trkpt><trkpt lat="39.42837764" lon="-0.38681486"><ele>10.6</ele><time>2022-11-10T15:57:08.0000000+00:00</time></trkpt><trkpt lat="39.42837764" lon="-0.38681486"><ele>10.6</ele><time>2022-11-10T15:57:09.0000000+00:00</time></trkpt><trkpt lat="39.42837764" lon="-0.38681486"><ele>10.6</ele><time>2022-11-10T15:57:10.0000000+00:00</time></trkpt><trkpt lat="39.42837764" lon="-0.38681486"><ele>10.6</ele><time>2022-11-10T15:57:11.0000000+00:00</time></trkpt><trkpt lat="39.42837764" lon="-0.38681486"><ele>10.6</ele><time>2022-11-10T15:57:12.0000000+00:00</time></trkpt><trkpt lat="39.42837764" lon="-0.38681486"><ele>10.6</ele><time>2022-11-10T15:57:13.0000000+00:00</time></trkpt><trkpt lat="39.42837764" lon="-0.38681486"><ele>10.6</ele><time>2022-11-10T15:57:14.0000000+00:00</time></trkpt><trkpt lat="39.42837764" lon="-0.38681486"><ele>10.6</ele><time>2022-11-10T15:57:15.0000000+00:00</time></trkpt><trkpt lat="39.42837764" lon="-0.38681486"><ele>10.6</ele><time>2022-11-10T15:57:16.0000000+00:00</time></trkpt><trkpt lat="39.42837764" lon="-0.38681486"><ele>10.6</ele><time>2022-11-10T15:57:17.0000000+00:00</time></trkpt><trkpt lat="39.42837764" lon="-0.38681486"><ele>10.6</ele><time>2022-11-10T15:57:18.0000000+00:00</time></trkpt><trkpt lat="39.42837764" lon="-0.38681486"><ele>10.6</ele><time>2022-11-10T15:57:19.0000000+00:00</time></trkpt><trkpt lat="39.42837764" lon="-0.38681486"><ele>10.6</ele><time>2022-11-10T15:57:20.0000000+00:00</time></trkpt><trkpt lat="39.42837764" lon="-0.38681486"><ele>10.6</ele><time>2022-11-10T15:57:21.0000000+00:00</time></trkpt><trkpt lat="39.42837764" lon="-0.38681486"><ele>10.6</ele><time>2022-11-10T15:57:22.0000000+00:00</time></trkpt><trkpt lat="39.42837764" lon="-0.38681486"><ele>10.6</ele><time>2022-11-10T15:57:23.0000000+00:00</time></trkpt><trkpt lat="39.42837764" lon="-0.38681486"><ele>10.6</ele><time>2022-11-10T15:57:24.0000000+00:00</time></trkpt><trkpt lat="39.42837764" lon="-0.38681486"><ele>10.6</ele><time>2022-11-10T15:57:25.0000000+00:00</time></trkpt><trkpt lat="39.42837764" lon="-0.38681486"><ele>10.6</ele><time>2022-11-10T15:57:26.0000000+00:00</time></trkpt><trkpt lat="39.42837764" lon="-0.38681486"><ele>10.6</ele><time>2022-11-10T15:57:27.0000000+00:00</time></trkpt><trkpt lat="39.42837764" lon="-0.38681486"><ele>10.6</ele><time>2022-11-10T15:57:28.0000000+00:00</time></trkpt><trkpt lat="39.42837764" lon="-0.38681486"><ele>10.6</ele><time>2022-11-10T15:57:29.0000000+00:00</time></trkpt><trkpt lat="39.42837764" lon="-0.38681486"><ele>10.6</ele><time>2022-11-10T15:57:30.0000000+00:00</time></trkpt><trkpt lat="39.42837764" lon="-0.38681486"><ele>10.6</ele><time>2022-11-10T15:57:31.0000000+00:00</time></trkpt><trkpt lat="39.42837764" lon="-0.38681486"><ele>10.6</ele><time>2022-11-10T15:57:32.0000000+00:00</time></trkpt><trkpt lat="39.42837764" lon="-0.38681486"><ele>10.6</ele><time>2022-11-10T15:57:33.0000000+00:00</time></trkpt><trkpt lat="39.42837764" lon="-0.38681486"><ele>10.6</ele><time>2022-11-10T15:57:34.0000000+00:00</time></trkpt><trkpt lat="39.42837956" lon="-0.38681226"><ele>10.6</ele><time>2022-11-10T15:57:35.0000000+00:00</time></trkpt><trkpt lat="39.4283861" lon="-0.38680547"><ele>10.6</ele><time>2022-11-10T15:57:36.0000000+00:00</time></trkpt><trkpt lat="39.42839599" lon="-0.38679541"><ele>10.6</ele><time>2022-11-10T15:57:37.0000000+00:00</time></trkpt><trkpt lat="39.42841116" lon="-0.38678753"><ele>10.6</ele><time>2022-11-10T15:57:38.0000000+00:00</time></trkpt><trkpt lat="39.42842986" lon="-0.38678032"><ele>10.6</ele><time>2022-11-10T15:57:39.0000000+00:00</time></trkpt><trkpt lat="39.42845341" lon="-0.38676825"><ele>10.6</ele><time>2022-11-10T15:57:40.0000000+00:00</time></trkpt><trkpt lat="39.42847629" lon="-0.38675342"><ele>10.6</ele><time>2022-11-10T15:57:41.0000000+00:00</time></trkpt><trkpt lat="39.42849389" lon="-0.38674202"><ele>10.4</ele><time>2022-11-10T15:57:42.0000000+00:00</time></trkpt><trkpt lat="39.42851594" lon="-0.38672643"><ele>10.4</ele><time>2022-11-10T15:57:43.0000000+00:00</time></trkpt><trkpt lat="39.42853832" lon="-0.38669843"><ele>10.2</ele><time>2022-11-10T15:57:44.0000000+00:00</time></trkpt><trkpt lat="39.42854762" lon="-0.38667572"><ele>10.2</ele><time>2022-11-10T15:57:45.0000000+00:00</time></trkpt><trkpt lat="39.42855257" lon="-0.38664236"><ele>10.2</ele><time>2022-11-10T15:57:46.0000000+00:00</time></trkpt><trkpt lat="39.42855215" lon="-0.38659718"><ele>10.0</ele><time>2022-11-10T15:57:47.0000000+00:00</time></trkpt><trkpt lat="39.42854888" lon="-0.38656734"><ele>10.0</ele><time>2022-11-10T15:57:48.0000000+00:00</time></trkpt><trkpt lat="39.42854008" lon="-0.38652375"><ele>10.0</ele><time>2022-11-10T15:57:49.0000000+00:00</time></trkpt><trkpt lat="39.4285301" lon="-0.38647782"><ele>10.0</ele><time>2022-11-10T15:57:50.0000000+00:00</time></trkpt><trkpt lat="39.42851451" lon="-0.38642024"><ele>10.0</ele><time>2022-11-10T15:57:51.0000000+00:00</time></trkpt><trkpt lat="39.4285032" lon="-0.38637816"><ele>10.0</ele><time>2022-11-10T15:57:52.0000000+00:00</time></trkpt><trkpt lat="39.42848668" lon="-0.38632527"><ele>9.8</ele><time>2022-11-10T15:57:53.0000000+00:00</time></trkpt><trkpt lat="39.42847109" lon="-0.38627381"><ele>9.8</ele><time>2022-11-10T15:57:54.0000000+00:00</time></trkpt><trkpt lat="39.42845064" lon="-0.38622343"><ele>9.8</ele><time>2022-11-10T15:57:55.0000000+00:00</time></trkpt><trkpt lat="39.42843187" lon="-0.38617062"><ele>9.8</ele><time>2022-11-10T15:57:56.0000000+00:00</time></trkpt><trkpt lat="39.42841343" lon="-0.38611664"><ele>9.8</ele><time>2022-11-10T15:57:57.0000000+00:00</time></trkpt><trkpt lat="39.4283965" lon="-0.38606057"><ele>9.8</ele><time>2022-11-10T15:57:58.0000000+00:00</time></trkpt><trkpt lat="39.4283768" lon="-0.38600282"><ele>9.8</ele><time>2022-11-10T15:57:59.0000000+00:00</time></trkpt><trkpt lat="39.42836121" lon="-0.38594415"><ele>9.6</ele><time>2022-11-10T15:58:00.0000000+00:00</time></trkpt><trkpt lat="39.42834587" lon="-0.38587944"><ele>9.6</ele><time>2022-11-10T15:58:01.0000000+00:00</time></trkpt><trkpt lat="39.42833103" lon="-0.38581925"><ele>9.6</ele><time>2022-11-10T15:58:02.0000000+00:00</time></trkpt><trkpt lat="39.42831175" lon="-0.38576209"><ele>9.6</ele><time>2022-11-10T15:58:03.0000000+00:00</time></trkpt><trkpt lat="39.42829365" lon="-0.38570476"><ele>9.6</ele><time>2022-11-10T15:58:04.0000000+00:00</time></trkpt><trkpt lat="39.42827705" lon="-0.38565078"><ele>9.6</ele><time>2022-11-10T15:58:05.0000000+00:00</time></trkpt><trkpt lat="39.42826515" lon="-0.38559722"><ele>9.6</ele><time>2022-11-10T15:58:06.0000000+00:00</time></trkpt><trkpt lat="39.4282535" lon="-0.38554215"><ele>9.6</ele><time>2022-11-10T15:58:07.0000000+00:00</time></trkpt><trkpt lat="39.42824151" lon="-0.38548817"><ele>9.6</ele><time>2022-11-10T15:58:08.0000000+00:00</time></trkpt><trkpt lat="39.42822307" lon="-0.38542472"><ele>9.6</ele><time>2022-11-10T15:58:09.0000000+00:00</time></trkpt><trkpt lat="39.42821159" lon="-0.38538398"><ele>9.6</ele><time>2022-11-10T15:58:10.0000000+00:00</time></trkpt><trkpt lat="39.42820313" lon="-0.38533939"><ele>9.6</ele><time>2022-11-10T15:58:11.0000000+00:00</time></trkpt><trkpt lat="39.42818904" lon="-0.38529279"><ele>9.6</ele><time>2022-11-10T15:58:12.0000000+00:00</time></trkpt><trkpt lat="39.4281753" lon="-0.38524535"><ele>9.6</ele><time>2022-11-10T15:58:13.0000000+00:00</time></trkpt><trkpt lat="39.42816298" lon="-0.38519774"><ele>9.4</ele><time>2022-11-10T15:58:14.0000000+00:00</time></trkpt><trkpt lat="39.42815149" lon="-0.38515247"><ele>9.4</ele><time>2022-11-10T15:58:15.0000000+00:00</time></trkpt><trkpt lat="39.428139" lon="-0.38510713"><ele>9.4</ele><time>2022-11-10T15:58:16.0000000+00:00</time></trkpt><trkpt lat="39.42812786" lon="-0.38505985"><ele>9.4</ele><time>2022-11-10T15:58:17.0000000+00:00</time></trkpt><trkpt lat="39.42811352" lon="-0.38500764"><ele>9.4</ele><time>2022-11-10T15:58:18.0000000+00:00</time></trkpt><trkpt lat="39.42809961" lon="-0.38495324"><ele>9.4</ele><time>2022-11-10T15:58:19.0000000+00:00</time></trkpt><trkpt lat="39.42808217" lon="-0.38489699"><ele>9.4</ele><time>2022-11-10T15:58:20.0000000+00:00</time></trkpt><trkpt lat="39.42806382" lon="-0.38484033"><ele>9.4</ele><time>2022-11-10T15:58:21.0000000+00:00</time></trkpt><trkpt lat="39.42804362" lon="-0.38478199"><ele>9.2</ele><time>2022-11-10T15:58:22.0000000+00:00</time></trkpt><trkpt lat="39.42802266" lon="-0.38471125"><ele>9.2</ele><time>2022-11-10T15:58:23.0000000+00:00</time></trkpt><trkpt lat="39.42800657" lon="-0.38466532"><ele>9.0</ele><time>2022-11-10T15:58:24.0000000+00:00</time></trkpt><trkpt lat="39.42798193" lon="-0.38459558"><ele>9.0</ele><time>2022-11-10T15:58:25.0000000+00:00</time></trkpt><trkpt lat="39.42796525" lon="-0.38454839"><ele>9.0</ele><time>2022-11-10T15:58:26.0000000+00:00</time></trkpt><trkpt lat="39.42794228" lon="-0.38448863"><ele>9.0</ele><time>2022-11-10T15:58:27.0000000+00:00</time></trkpt><trkpt lat="39.42791814" lon="-0.38442643"><ele>9.0</ele><time>2022-11-10T15:58:28.0000000+00:00</time></trkpt><trkpt lat="39.4278904" lon="-0.38434999"><ele>9.2</ele><time>2022-11-10T15:58:29.0000000+00:00</time></trkpt><trkpt lat="39.42787372" lon="-0.38430288"><ele>9.2</ele><time>2022-11-10T15:58:30.0000000+00:00</time></trkpt><trkpt lat="39.42785184" lon="-0.38425427"><ele>9.4</ele><time>2022-11-10T15:58:31.0000000+00:00</time></trkpt><trkpt lat="39.4278313" lon="-0.38420951"><ele>9.4</ele><time>2022-11-10T15:58:32.0000000+00:00</time></trkpt><trkpt lat="39.4278106" lon="-0.38416274"><ele>9.6</ele><time>2022-11-10T15:58:33.0000000+00:00</time></trkpt><trkpt lat="39.42779266" lon="-0.38411614"><ele>9.6</ele><time>2022-11-10T15:58:34.0000000+00:00</time></trkpt><trkpt lat="39.42776559" lon="-0.38407129"><ele>9.6</ele><time>2022-11-10T15:58:35.0000000+00:00</time></trkpt><trkpt lat="39.42774128" lon="-0.38402184"><ele>9.6</ele><time>2022-11-10T15:58:36.0000000+00:00</time></trkpt><trkpt lat="39.4277179" lon="-0.38397188"><ele>9.6</ele><time>2022-11-10T15:58:37.0000000+00:00</time></trkpt><trkpt lat="39.42769099" lon="-0.38391673"><ele>9.6</ele><time>2022-11-10T15:58:38.0000000+00:00</time></trkpt><trkpt lat="39.42766886" lon="-0.38385881"><ele>9.6</ele><time>2022-11-10T15:58:39.0000000+00:00</time></trkpt><trkpt lat="39.42764464" lon="-0.38379896"><ele>9.4</ele><time>2022-11-10T15:58:40.0000000+00:00</time></trkpt><trkpt lat="39.42761941" lon="-0.38374113"><ele>9.4</ele><time>2022-11-10T15:58:41.0000000+00:00</time></trkpt><trkpt lat="39.42759468" lon="-0.38368145"><ele>9.2</ele><time>2022-11-10T15:58:42.0000000+00:00</time></trkpt><trkpt lat="39.42756945" lon="-0.38362177"><ele>9.2</ele><time>2022-11-10T15:58:43.0000000+00:00</time></trkpt><trkpt lat="39.42755051" lon="-0.38355765"><ele>9.2</ele><time>2022-11-10T15:58:44.0000000+00:00</time></trkpt><trkpt lat="39.42753207" lon="-0.3834916"><ele>9.2</ele><time>2022-11-10T15:58:45.0000000+00:00</time></trkpt><trkpt lat="39.42750868" lon="-0.38342731"><ele>9.2</ele><time>2022-11-10T15:58:46.0000000+00:00</time></trkpt><trkpt lat="39.4274806" lon="-0.38335179"><ele>9.2</ele><time>2022-11-10T15:58:47.0000000+00:00</time></trkpt><trkpt lat="39.42746149" lon="-0.38330468"><ele>9.2</ele><time>2022-11-10T15:58:48.0000000+00:00</time></trkpt><trkpt lat="39.42743467" lon="-0.38324316"><ele>9.2</ele><time>2022-11-10T15:58:49.0000000+00:00</time></trkpt><trkpt lat="39.42741028" lon="-0.38317845"><ele>9.2</ele><time>2022-11-10T15:58:50.0000000+00:00</time></trkpt><trkpt lat="39.42737935" lon="-0.38310436"><ele>9.2</ele><time>2022-11-10T15:58:51.0000000+00:00</time></trkpt><trkpt lat="39.42735337" lon="-0.38304325"><ele>9.2</ele><time>2022-11-10T15:58:52.0000000+00:00</time></trkpt><trkpt lat="39.42732646" lon="-0.38298248"><ele>9.2</ele><time>2022-11-10T15:58:53.0000000+00:00</time></trkpt><trkpt lat="39.42729997" lon="-0.3829228"><ele>9.2</ele><time>2022-11-10T15:58:54.0000000+00:00</time></trkpt><trkpt lat="39.42727483" lon="-0.38286128"><ele>9.0</ele><time>2022-11-10T15:58:55.0000000+00:00</time></trkpt><trkpt lat="39.42725513" lon="-0.38281166"><ele>9.0</ele><time>2022-11-10T15:58:56.0000000+00:00</time></trkpt><trkpt lat="39.42723376" lon="-0.38274938"><ele>9.0</ele><time>2022-11-10T15:58:57.0000000+00:00</time></trkpt><trkpt lat="39.42721096" lon="-0.3826882"><ele>8.8</ele><time>2022-11-10T15:58:58.0000000+00:00</time></trkpt><trkpt lat="39.42718531" lon="-0.38263237"><ele>8.8</ele><time>2022-11-10T15:58:59.0000000+00:00</time></trkpt><trkpt lat="39.42716243" lon="-0.38257688"><ele>8.6</ele><time>2022-11-10T15:59:00.0000000+00:00</time></trkpt><trkpt lat="39.42713887" lon="-0.38252131"><ele>8.8</ele><time>2022-11-10T15:59:01.0000000+00:00</time></trkpt><trkpt lat="39.42711591" lon="-0.38246431"><ele>8.8</ele><time>2022-11-10T15:59:02.0000000+00:00</time></trkpt><trkpt lat="39.4270942" lon="-0.38241788"><ele>8.6</ele><time>2022-11-10T15:59:03.0000000+00:00</time></trkpt><trkpt lat="39.4270735" lon="-0.38238309"><ele>8.6</ele><time>2022-11-10T15:59:04.0000000+00:00</time></trkpt><trkpt lat="39.42705187" lon="-0.38236138"><ele>8.6</ele><time>2022-11-10T15:59:05.0000000+00:00</time></trkpt><trkpt lat="39.42703871" lon="-0.38234697"><ele>8.6</ele><time>2022-11-10T15:59:06.0000000+00:00</time></trkpt><trkpt lat="39.42702941" lon="-0.38233481"><ele>8.4</ele><time>2022-11-10T15:59:07.0000000+00:00</time></trkpt><trkpt lat="39.42701558" lon="-0.38231805"><ele>8.4</ele><time>2022-11-10T15:59:08.0000000+00:00</time></trkpt><trkpt lat="39.4269973" lon="-0.38230087"><ele>8.4</ele><time>2022-11-10T15:59:09.0000000+00:00</time></trkpt><trkpt lat="39.42697668" lon="-0.38228779"><ele>8.4</ele><time>2022-11-10T15:59:10.0000000+00:00</time></trkpt><trkpt lat="39.42695539" lon="-0.3822867"><ele>8.2</ele><time>2022-11-10T15:59:11.0000000+00:00</time></trkpt><trkpt lat="39.42693511" lon="-0.38229466"><ele>8.2</ele><time>2022-11-10T15:59:12.0000000+00:00</time></trkpt><trkpt lat="39.42691634" lon="-0.3823069"><ele>8.2</ele><time>2022-11-10T15:59:13.0000000+00:00</time></trkpt><trkpt lat="39.42691131" lon="-0.38231143"><ele>8.0</ele><time>2022-11-10T15:59:14.0000000+00:00</time></trkpt><trkpt lat="39.42691131" lon="-0.38231143"><ele>7.8</ele><time>2022-11-10T15:59:15.0000000+00:00</time></trkpt><trkpt lat="39.42690929" lon="-0.38231487"><ele>7.8</ele><time>2022-11-10T15:59:16.0000000+00:00</time></trkpt><trkpt lat="39.42690167" lon="-0.38230908"><ele>7.8</ele><time>2022-11-10T15:59:17.0000000+00:00</time></trkpt><trkpt lat="39.42688205" lon="-0.38228352"><ele>8.0</ele><time>2022-11-10T15:59:18.0000000+00:00</time></trkpt><trkpt lat="39.4268611" lon="-0.38225234"><ele>8.2</ele><time>2022-11-10T15:59:19.0000000+00:00</time></trkpt><trkpt lat="39.42684869" lon="-0.38221906"><ele>8.2</ele><time>2022-11-10T15:59:20.0000000+00:00</time></trkpt><trkpt lat="39.42683327" lon="-0.38217539"><ele>8.4</ele><time>2022-11-10T15:59:21.0000000+00:00</time></trkpt><trkpt lat="39.42681315" lon="-0.38213247"><ele>8.4</ele><time>2022-11-10T15:59:22.0000000+00:00</time></trkpt><trkpt lat="39.42679471" lon="-0.38209283"><ele>8.4</ele><time>2022-11-10T15:59:23.0000000+00:00</time></trkpt><trkpt lat="39.42677569" lon="-0.38205268"><ele>8.4</ele><time>2022-11-10T15:59:24.0000000+00:00</time></trkpt><trkpt lat="39.42675725" lon="-0.38200624"><ele>8.4</ele><time>2022-11-10T15:59:25.0000000+00:00</time></trkpt><trkpt lat="39.4267518" lon="-0.38198059"><ele>8.4</ele><time>2022-11-10T15:59:26.0000000+00:00</time></trkpt><trkpt lat="39.42674342" lon="-0.38195461"><ele>8.4</ele><time>2022-11-10T15:59:27.0000000+00:00</time></trkpt><trkpt lat="39.42673529" lon="-0.381936"><ele>8.4</ele><time>2022-11-10T15:59:28.0000000+00:00</time></trkpt><trkpt lat="39.42672682" lon="-0.38191882"><ele>8.2</ele><time>2022-11-10T15:59:29.0000000+00:00</time></trkpt><trkpt lat="39.42671081" lon="-0.38189678"><ele>8.0</ele><time>2022-11-10T15:59:30.0000000+00:00</time></trkpt><trkpt lat="39.42669505" lon="-0.38188068"><ele>8.0</ele><time>2022-11-10T15:59:31.0000000+00:00</time></trkpt><trkpt lat="39.4266694" lon="-0.38187733"><ele>8.0</ele><time>2022-11-10T15:59:32.0000000+00:00</time></trkpt><trkpt lat="39.42664451" lon="-0.3818614"><ele>8.0</ele><time>2022-11-10T15:59:33.0000000+00:00</time></trkpt><trkpt lat="39.42663202" lon="-0.38183802"><ele>8.0</ele><time>2022-11-10T15:59:34.0000000+00:00</time></trkpt><trkpt lat="39.42662121" lon="-0.38181966"><ele>8.0</ele><time>2022-11-10T15:59:35.0000000+00:00</time></trkpt><trkpt lat="39.42661358" lon="-0.381791"><ele>8.2</ele><time>2022-11-10T15:59:36.0000000+00:00</time></trkpt><trkpt lat="39.42661358" lon="-0.381791"><ele>8.2</ele><time>2022-11-10T15:59:37.0000000+00:00</time></trkpt><trkpt lat="39.42660964" lon="-0.38173727"><ele>8.2</ele><time>2022-11-10T15:59:38.0000000+00:00</time></trkpt><trkpt lat="39.42660168" lon="-0.38171732"><ele>8.2</ele><time>2022-11-10T15:59:39.0000000+00:00</time></trkpt><trkpt lat="39.42658542" lon="-0.3816889"><ele>8.2</ele><time>2022-11-10T15:59:40.0000000+00:00</time></trkpt><trkpt lat="39.42657461" lon="-0.38164984"><ele>8.2</ele><time>2022-11-10T15:59:41.0000000+00:00</time></trkpt><trkpt lat="39.42656664" lon="-0.38160777"><ele>8.2</ele><time>2022-11-10T15:59:42.0000000+00:00</time></trkpt><trkpt lat="39.42655491" lon="-0.38156762"><ele>8.2</ele><time>2022-11-10T15:59:43.0000000+00:00</time></trkpt><trkpt lat="39.42653697" lon="-0.38151959"><ele>8.2</ele><time>2022-11-10T15:59:44.0000000+00:00</time></trkpt><trkpt lat="39.42652415" lon="-0.38147382"><ele>8.2</ele><time>2022-11-10T15:59:45.0000000+00:00</time></trkpt><trkpt lat="39.42651887" lon="-0.3814242"><ele>8.0</ele><time>2022-11-10T15:59:46.0000000+00:00</time></trkpt><trkpt lat="39.42649179" lon="-0.38138338"><ele>8.0</ele><time>2022-11-10T15:59:47.0000000+00:00</time></trkpt><trkpt lat="39.42647503" lon="-0.38134441"><ele>8.0</ele><time>2022-11-10T15:59:48.0000000+00:00</time></trkpt><trkpt lat="39.42644485" lon="-0.38131541"><ele>8.0</ele><time>2022-11-10T15:59:49.0000000+00:00</time></trkpt><trkpt lat="39.42640965" lon="-0.38128573"><ele>7.8</ele><time>2022-11-10T15:59:50.0000000+00:00</time></trkpt><trkpt lat="39.42637377" lon="-0.38125657"><ele>7.8</ele><time>2022-11-10T15:59:51.0000000+00:00</time></trkpt><trkpt lat="39.42634536" lon="-0.38122706"><ele>7.8</ele><time>2022-11-10T15:59:52.0000000+00:00</time></trkpt><trkpt lat="39.42631695" lon="-0.38119898"><ele>7.6</ele><time>2022-11-10T15:59:53.0000000+00:00</time></trkpt><trkpt lat="39.42629448" lon="-0.38117602"><ele>7.6</ele><time>2022-11-10T15:59:54.0000000+00:00</time></trkpt><trkpt lat="39.42627344" lon="-0.38117233"><ele>7.6</ele><time>2022-11-10T15:59:55.0000000+00:00</time></trkpt><trkpt lat="39.4262566" lon="-0.38117962"><ele>7.4</ele><time>2022-11-10T15:59:56.0000000+00:00</time></trkpt><trkpt lat="39.42625056" lon="-0.38118524"><ele>7.4</ele><time>2022-11-10T15:59:57.0000000+00:00</time></trkpt><trkpt lat="39.42625056" lon="-0.38118524"><ele>7.4</ele><time>2022-11-10T15:59:58.0000000+00:00</time></trkpt><trkpt lat="39.42625056" lon="-0.38118524"><ele>7.4</ele><time>2022-11-10T15:59:59.0000000+00:00</time></trkpt><trkpt lat="39.42624503" lon="-0.38117174"><ele>7.4</ele><time>2022-11-10T16:00:00.0000000+00:00</time></trkpt><trkpt lat="39.42623874" lon="-0.38113712"><ele>7.2</ele><time>2022-11-10T16:00:01.0000000+00:00</time></trkpt><trkpt lat="39.42622525" lon="-0.38109848"><ele>7.2</ele><time>2022-11-10T16:00:02.0000000+00:00</time></trkpt><trkpt lat="39.42620832" lon="-0.38106529"><ele>7.2</ele><time>2022-11-10T16:00:03.0000000+00:00</time></trkpt><trkpt lat="39.42619574" lon="-0.38103436"><ele>7.2</ele><time>2022-11-10T16:00:04.0000000+00:00</time></trkpt><trkpt lat="39.42617789" lon="-0.38100905"><ele>7.2</ele><time>2022-11-10T16:00:05.0000000+00:00</time></trkpt><trkpt lat="39.42615802" lon="-0.38096915"><ele>7.4</ele><time>2022-11-10T16:00:06.0000000+00:00</time></trkpt><trkpt lat="39.42613372" lon="-0.38093126"><ele>7.4</ele><time>2022-11-10T16:00:07.0000000+00:00</time></trkpt><trkpt lat="39.42610564" lon="-0.38089003"><ele>7.4</ele><time>2022-11-10T16:00:08.0000000+00:00</time></trkpt><trkpt lat="39.42607027" lon="-0.38083688"><ele>7.4</ele><time>2022-11-10T16:00:09.0000000+00:00</time></trkpt><trkpt lat="39.42604562" lon="-0.3807886"><ele>7.4</ele><time>2022-11-10T16:00:10.0000000+00:00</time></trkpt><trkpt lat="39.42600455" lon="-0.38074083"><ele>7.4</ele><time>2022-11-10T16:00:11.0000000+00:00</time></trkpt><trkpt lat="39.42596465" lon="-0.3806933"><ele>7.4</ele><time>2022-11-10T16:00:12.0000000+00:00</time></trkpt><trkpt lat="39.42591973" lon="-0.38065114"><ele>7.2</ele><time>2022-11-10T16:00:13.0000000+00:00</time></trkpt><trkpt lat="39.42588679" lon="-0.38059884"><ele>7.2</ele><time>2022-11-10T16:00:14.0000000+00:00</time></trkpt><trkpt lat="39.42585175" lon="-0.38055056"><ele>7.2</ele><time>2022-11-10T16:00:15.0000000+00:00</time></trkpt><trkpt lat="39.42578218" lon="-0.38047998"><ele>7.2</ele><time>2022-11-10T16:00:16.0000000+00:00</time></trkpt><trkpt lat="39.42572694" lon="-0.38041645"><ele>7.2</ele><time>2022-11-10T16:00:17.0000000+00:00</time></trkpt><trkpt lat="39.42568185" lon="-0.38039264"><ele>7.0</ele><time>2022-11-10T16:00:18.0000000+00:00</time></trkpt><trkpt lat="39.42563139" lon="-0.38035635"><ele>7.0</ele><time>2022-11-10T16:00:19.0000000+00:00</time></trkpt><trkpt lat="39.42559761" lon="-0.38032953"><ele>7.0</ele><time>2022-11-10T16:00:20.0000000+00:00</time></trkpt><trkpt lat="39.42557682" lon="-0.3803017"><ele>7.0</ele><time>2022-11-10T16:00:21.0000000+00:00</time></trkpt><trkpt lat="39.42555972" lon="-0.38026004"><ele>7.2</ele><time>2022-11-10T16:00:22.0000000+00:00</time></trkpt><trkpt lat="39.42556123" lon="-0.38023154"><ele>7.2</ele><time>2022-11-10T16:00:23.0000000+00:00</time></trkpt><trkpt lat="39.42556718" lon="-0.38017999"><ele>7.4</ele><time>2022-11-10T16:00:24.0000000+00:00</time></trkpt><trkpt lat="39.42555763" lon="-0.38012358"><ele>7.4</ele><time>2022-11-10T16:00:25.0000000+00:00</time></trkpt><trkpt lat="39.42554581" lon="-0.38008126"><ele>7.4</ele><time>2022-11-10T16:00:26.0000000+00:00</time></trkpt><trkpt lat="39.4255319" lon="-0.38004597"><ele>7.4</ele><time>2022-11-10T16:00:27.0000000+00:00</time></trkpt><trkpt lat="39.42551371" lon="-0.38000532"><ele>7.4</ele><time>2022-11-10T16:00:28.0000000+00:00</time></trkpt><trkpt lat="39.42549225" lon="-0.37996466"><ele>7.4</ele><time>2022-11-10T16:00:29.0000000+00:00</time></trkpt><trkpt lat="39.42546945" lon="-0.37991948"><ele>7.4</ele><time>2022-11-10T16:00:30.0000000+00:00</time></trkpt><trkpt lat="39.42544531" lon="-0.3798733"><ele>7.2</ele><time>2022-11-10T16:00:31.0000000+00:00</time></trkpt><trkpt lat="39.42542318" lon="-0.37982401"><ele>7.2</ele><time>2022-11-10T16:00:32.0000000+00:00</time></trkpt><trkpt lat="39.42539888" lon="-0.37977657"><ele>7.2</ele><time>2022-11-10T16:00:33.0000000+00:00</time></trkpt><trkpt lat="39.42536837" lon="-0.37973441"><ele>7.4</ele><time>2022-11-10T16:00:34.0000000+00:00</time></trkpt><trkpt lat="39.42533559" lon="-0.37969451"><ele>7.4</ele><time>2022-11-10T16:00:35.0000000+00:00</time></trkpt><trkpt lat="39.42530315" lon="-0.37965487"><ele>7.4</ele><time>2022-11-10T16:00:36.0000000+00:00</time></trkpt><trkpt lat="39.42527046" lon="-0.37961983"><ele>7.4</ele><time>2022-11-10T16:00:37.0000000+00:00</time></trkpt><trkpt lat="39.42524557" lon="-0.37959385"><ele>7.4</ele><time>2022-11-10T16:00:38.0000000+00:00</time></trkpt><trkpt lat="39.42522872" lon="-0.37958019"><ele>7.4</ele><time>2022-11-10T16:00:39.0000000+00:00</time></trkpt><trkpt lat="39.42522168" lon="-0.37957097"><ele>7.4</ele><time>2022-11-10T16:00:40.0000000+00:00</time></trkpt><trkpt lat="39.42522151" lon="-0.3795651"><ele>7.4</ele><time>2022-11-10T16:00:41.0000000+00:00</time></trkpt><trkpt lat="39.42522151" lon="-0.3795651"><ele>7.2</ele><time>2022-11-10T16:00:42.0000000+00:00</time></trkpt><trkpt lat="39.42522151" lon="-0.3795651"><ele>7.2</ele><time>2022-11-10T16:00:43.0000000+00:00</time></trkpt><trkpt lat="39.42522151" lon="-0.3795651"><ele>7.2</ele><time>2022-11-10T16:00:44.0000000+00:00</time></trkpt><trkpt lat="39.42522151" lon="-0.3795651"><ele>7.2</ele><time>2022-11-10T16:00:45.0000000+00:00</time></trkpt><trkpt lat="39.42522151" lon="-0.3795651"><ele>7.2</ele><time>2022-11-10T16:00:46.0000000+00:00</time></trkpt><trkpt lat="39.42522353" lon="-0.37956325"><ele>7.0</ele><time>2022-11-10T16:00:47.0000000+00:00</time></trkpt><trkpt lat="39.42522638" lon="-0.37956141"><ele>7.0</ele><time>2022-11-10T16:00:48.0000000+00:00</time></trkpt><trkpt lat="39.42522638" lon="-0.37956141"><ele>7.0</ele><time>2022-11-10T16:00:49.0000000+00:00</time></trkpt><trkpt lat="39.42522638" lon="-0.37956141"><ele>7.0</ele><time>2022-11-10T16:00:50.0000000+00:00</time></trkpt><trkpt lat="39.42522638" lon="-0.37956141"><ele>6.8</ele><time>2022-11-10T16:00:51.0000000+00:00</time></trkpt><trkpt lat="39.42522638" lon="-0.37956141"><ele>6.8</ele><time>2022-11-10T16:00:52.0000000+00:00</time></trkpt><trkpt lat="39.42522638" lon="-0.37956141"><ele>6.8</ele><time>2022-11-10T16:00:53.0000000+00:00</time></trkpt><trkpt lat="39.42522638" lon="-0.37956141"><ele>6.8</ele><time>2022-11-10T16:00:54.0000000+00:00</time></trkpt><trkpt lat="39.42522638" lon="-0.37956141"><ele>6.8</ele><time>2022-11-10T16:00:55.0000000+00:00</time></trkpt><trkpt lat="39.42522638" lon="-0.37956141"><ele>6.8</ele><time>2022-11-10T16:00:56.0000000+00:00</time></trkpt><trkpt lat="39.42522638" lon="-0.37956141"><ele>6.8</ele><time>2022-11-10T16:00:57.0000000+00:00</time></trkpt><trkpt lat="39.42522638" lon="-0.37956141"><ele>6.8</ele><time>2022-11-10T16:00:58.0000000+00:00</time></trkpt><trkpt lat="39.42522638" lon="-0.37956141"><ele>6.6</ele><time>2022-11-10T16:00:59.0000000+00:00</time></trkpt><trkpt lat="39.42522638" lon="-0.37956141"><ele>6.6</ele><time>2022-11-10T16:01:00.0000000+00:00</time></trkpt><trkpt lat="39.42522638" lon="-0.37956141"><ele>6.6</ele><time>2022-11-10T16:01:01.0000000+00:00</time></trkpt><trkpt lat="39.42522638" lon="-0.37956141"><ele>6.6</ele><time>2022-11-10T16:01:02.0000000+00:00</time></trkpt><trkpt lat="39.42522638" lon="-0.37956141"><ele>6.6</ele><time>2022-11-10T16:01:03.0000000+00:00</time></trkpt><trkpt lat="39.42522638" lon="-0.37956141"><ele>6.6</ele><time>2022-11-10T16:01:04.0000000+00:00</time></trkpt><trkpt lat="39.42522638" lon="-0.37956141"><ele>6.6</ele><time>2022-11-10T16:01:05.0000000+00:00</time></trkpt><trkpt lat="39.42522638" lon="-0.37956141"><ele>6.6</ele><time>2022-11-10T16:01:06.0000000+00:00</time></trkpt><trkpt lat="39.42522638" lon="-0.37956141"><ele>6.6</ele><time>2022-11-10T16:01:07.0000000+00:00</time></trkpt><trkpt lat="39.42522638" lon="-0.37956141"><ele>6.6</ele><time>2022-11-10T16:01:08.0000000+00:00</time></trkpt><trkpt lat="39.42522638" lon="-0.37956141"><ele>6.6</ele><time>2022-11-10T16:01:09.0000000+00:00</time></trkpt><trkpt lat="39.42522638" lon="-0.37956141"><ele>6.6</ele><time>2022-11-10T16:01:10.0000000+00:00</time></trkpt><trkpt lat="39.42522638" lon="-0.37956141"><ele>6.6</ele><time>2022-11-10T16:01:11.0000000+00:00</time></trkpt><trkpt lat="39.42522638" lon="-0.37956141"><ele>6.6</ele><time>2022-11-10T16:01:12.0000000+00:00</time></trkpt><trkpt lat="39.42522638" lon="-0.37956141"><ele>6.6</ele><time>2022-11-10T16:01:13.0000000+00:00</time></trkpt><trkpt lat="39.42522638" lon="-0.37956141"><ele>6.6</ele><time>2022-11-10T16:01:14.0000000+00:00</time></trkpt><trkpt lat="39.42522638" lon="-0.37956141"><ele>6.6</ele><time>2022-11-10T16:01:15.0000000+00:00</time></trkpt><trkpt lat="39.42522638" lon="-0.37956141"><ele>6.6</ele><time>2022-11-10T16:01:16.0000000+00:00</time></trkpt><trkpt lat="39.42522864" lon="-0.37956191"><ele>6.6</ele><time>2022-11-10T16:01:17.0000000+00:00</time></trkpt><trkpt lat="39.42523099" lon="-0.37956158"><ele>6.6</ele><time>2022-11-10T16:01:18.0000000+00:00</time></trkpt><trkpt lat="39.42523099" lon="-0.37956158"><ele>6.6</ele><time>2022-11-10T16:01:19.0000000+00:00</time></trkpt><trkpt lat="39.42522881" lon="-0.37956007"><ele>6.6</ele><time>2022-11-10T16:01:20.0000000+00:00</time></trkpt><trkpt lat="39.42522822" lon="-0.3795475"><ele>6.6</ele><time>2022-11-10T16:01:21.0000000+00:00</time></trkpt><trkpt lat="39.42522663" lon="-0.37953182"><ele>6.6</ele><time>2022-11-10T16:01:22.0000000+00:00</time></trkpt><trkpt lat="39.42522294" lon="-0.37950408"><ele>6.8</ele><time>2022-11-10T16:01:23.0000000+00:00</time></trkpt><trkpt lat="39.42521431" lon="-0.379476"><ele>6.8</ele><time>2022-11-10T16:01:24.0000000+00:00</time></trkpt><trkpt lat="39.42520282" lon="-0.37944079"><ele>6.8</ele><time>2022-11-10T16:01:25.0000000+00:00</time></trkpt><trkpt lat="39.42519427" lon="-0.3794071"><ele>6.8</ele><time>2022-11-10T16:01:26.0000000+00:00</time></trkpt><trkpt lat="39.42517667" lon="-0.37935572"><ele>6.8</ele><time>2022-11-10T16:01:27.0000000+00:00</time></trkpt><trkpt lat="39.42516318" lon="-0.37932093"><ele>6.8</ele><time>2022-11-10T16:01:28.0000000+00:00</time></trkpt><trkpt lat="39.42513795" lon="-0.37927802"><ele>6.8</ele><time>2022-11-10T16:01:29.0000000+00:00</time></trkpt><trkpt lat="39.42511909" lon="-0.37923175"><ele>6.8</ele><time>2022-11-10T16:01:30.0000000+00:00</time></trkpt><trkpt lat="39.42510341" lon="-0.37918263"><ele>6.8</ele><time>2022-11-10T16:01:31.0000000+00:00</time></trkpt><trkpt lat="39.42508791" lon="-0.3791341"><ele>6.8</ele><time>2022-11-10T16:01:32.0000000+00:00</time></trkpt><trkpt lat="39.42507207" lon="-0.3790875"><ele>6.8</ele><time>2022-11-10T16:01:33.0000000+00:00</time></trkpt><trkpt lat="39.42505396" lon="-0.3790398"><ele>6.6</ele><time>2022-11-10T16:01:34.0000000+00:00</time></trkpt><trkpt lat="39.42503108" lon="-0.37899152"><ele>6.6</ele><time>2022-11-10T16:01:35.0000000+00:00</time></trkpt><trkpt lat="39.42500736" lon="-0.37894433"><ele>6.6</ele><time>2022-11-10T16:01:36.0000000+00:00</time></trkpt><trkpt lat="39.42498883" lon="-0.37889312"><ele>6.6</ele><time>2022-11-10T16:01:37.0000000+00:00</time></trkpt><trkpt lat="39.42496939" lon="-0.37884157"><ele>6.6</ele><time>2022-11-10T16:01:38.0000000+00:00</time></trkpt><trkpt lat="39.42494382" lon="-0.37878994"><ele>6.6</ele><time>2022-11-10T16:01:39.0000000+00:00</time></trkpt><trkpt lat="39.42491256" lon="-0.37872506"><ele>6.6</ele><time>2022-11-10T16:01:40.0000000+00:00</time></trkpt><trkpt lat="39.42489487" lon="-0.37867737"><ele>6.6</ele><time>2022-11-10T16:01:41.0000000+00:00</time></trkpt><trkpt lat="39.42486838" lon="-0.37861895"><ele>6.6</ele><time>2022-11-10T16:01:42.0000000+00:00</time></trkpt><trkpt lat="39.42484123" lon="-0.37856162"><ele>6.6</ele><time>2022-11-10T16:01:43.0000000+00:00</time></trkpt><trkpt lat="39.42481868" lon="-0.37850378"><ele>6.6</ele><time>2022-11-10T16:01:44.0000000+00:00</time></trkpt><trkpt lat="39.42480083" lon="-0.37844838"><ele>6.6</ele><time>2022-11-10T16:01:45.0000000+00:00</time></trkpt><trkpt lat="39.42477937" lon="-0.37839306"><ele>6.8</ele><time>2022-11-10T16:01:46.0000000+00:00</time></trkpt><trkpt lat="39.42475372" lon="-0.37833992"><ele>6.8</ele><time>2022-11-10T16:01:47.0000000+00:00</time></trkpt><trkpt lat="39.42472975" lon="-0.37828669"><ele>6.8</ele><time>2022-11-10T16:01:48.0000000+00:00</time></trkpt><trkpt lat="39.42470276" lon="-0.37822399"><ele>6.6</ele><time>2022-11-10T16:01:49.0000000+00:00</time></trkpt><trkpt lat="39.42468658" lon="-0.37818158"><ele>6.2</ele><time>2022-11-10T16:01:50.0000000+00:00</time></trkpt><trkpt lat="39.42466655" lon="-0.37812936"><ele>5.8</ele><time>2022-11-10T16:01:51.0000000+00:00</time></trkpt><trkpt lat="39.42464216" lon="-0.37808234"><ele>5.8</ele><time>2022-11-10T16:01:52.0000000+00:00</time></trkpt><trkpt lat="39.42461894" lon="-0.37803758"><ele>5.8</ele><time>2022-11-10T16:01:53.0000000+00:00</time></trkpt><trkpt lat="39.42459354" lon="-0.37799684"><ele>6.2</ele><time>2022-11-10T16:01:54.0000000+00:00</time></trkpt><trkpt lat="39.42456965" lon="-0.37795301"><ele>6.4</ele><time>2022-11-10T16:01:55.0000000+00:00</time></trkpt><trkpt lat="39.42454828" lon="-0.37790607"><ele>6.6</ele><time>2022-11-10T16:01:56.0000000+00:00</time></trkpt><trkpt lat="39.42452632" lon="-0.37785821"><ele>6.6</ele><time>2022-11-10T16:01:57.0000000+00:00</time></trkpt><trkpt lat="39.42450503" lon="-0.37780649"><ele>6.8</ele><time>2022-11-10T16:01:58.0000000+00:00</time></trkpt><trkpt lat="39.42447997" lon="-0.37775754"><ele>6.8</ele><time>2022-11-10T16:01:59.0000000+00:00</time></trkpt><trkpt lat="39.42445306" lon="-0.37770884"><ele>6.8</ele><time>2022-11-10T16:02:00.0000000+00:00</time></trkpt><trkpt lat="39.42442758" lon="-0.37765897"><ele>6.8</ele><time>2022-11-10T16:02:01.0000000+00:00</time></trkpt><trkpt lat="39.42440151" lon="-0.37760407"><ele>6.8</ele><time>2022-11-10T16:02:02.0000000+00:00</time></trkpt><trkpt lat="39.42437268" lon="-0.37754481"><ele>6.8</ele><time>2022-11-10T16:02:03.0000000+00:00</time></trkpt><trkpt lat="39.42435089" lon="-0.37748328"><ele>7.0</ele><time>2022-11-10T16:02:04.0000000+00:00</time></trkpt><trkpt lat="39.42433865" lon="-0.37741086"><ele>7.0</ele><time>2022-11-10T16:02:05.0000000+00:00</time></trkpt><trkpt lat="39.42431426" lon="-0.37734423"><ele>7.0</ele><time>2022-11-10T16:02:06.0000000+00:00</time></trkpt><trkpt lat="39.42428928" lon="-0.37727977"><ele>7.0</ele><time>2022-11-10T16:02:07.0000000+00:00</time></trkpt><trkpt lat="39.42426388" lon="-0.37721766"><ele>7.0</ele><time>2022-11-10T16:02:08.0000000+00:00</time></trkpt><trkpt lat="39.42423916" lon="-0.37715287"><ele>7.0</ele><time>2022-11-10T16:02:09.0000000+00:00</time></trkpt><trkpt lat="39.42421393" lon="-0.37708581"><ele>7.0</ele><time>2022-11-10T16:02:10.0000000+00:00</time></trkpt><trkpt lat="39.42419163" lon="-0.37701633"><ele>7.0</ele><time>2022-11-10T16:02:11.0000000+00:00</time></trkpt><trkpt lat="39.42417084" lon="-0.37694735"><ele>7.0</ele><time>2022-11-10T16:02:12.0000000+00:00</time></trkpt><trkpt lat="39.42415374" lon="-0.37688691"><ele>7.0</ele><time>2022-11-10T16:02:13.0000000+00:00</time></trkpt><trkpt lat="39.42413421" lon="-0.37683134"><ele>7.0</ele><time>2022-11-10T16:02:14.0000000+00:00</time></trkpt><trkpt lat="39.4241115" lon="-0.37677325"><ele>7.2</ele><time>2022-11-10T16:02:15.0000000+00:00</time></trkpt><trkpt lat="39.42409742" lon="-0.37671357"><ele>7.4</ele><time>2022-11-10T16:02:16.0000000+00:00</time></trkpt><trkpt lat="39.42408409" lon="-0.37665884"><ele>7.4</ele><time>2022-11-10T16:02:17.0000000+00:00</time></trkpt><trkpt lat="39.4240664" lon="-0.37661266"><ele>7.6</ele><time>2022-11-10T16:02:18.0000000+00:00</time></trkpt><trkpt lat="39.42405081" lon="-0.37656555"><ele>7.6</ele><time>2022-11-10T16:02:19.0000000+00:00</time></trkpt><trkpt lat="39.42403615" lon="-0.37652599"><ele>7.4</ele><time>2022-11-10T16:02:20.0000000+00:00</time></trkpt><trkpt lat="39.42402802" lon="-0.37649154"><ele>7.2</ele><time>2022-11-10T16:02:21.0000000+00:00</time></trkpt><trkpt lat="39.42401829" lon="-0.3764586"><ele>7.0</ele><time>2022-11-10T16:02:22.0000000+00:00</time></trkpt><trkpt lat="39.42401117" lon="-0.37642708"><ele>6.6</ele><time>2022-11-10T16:02:23.0000000+00:00</time></trkpt><trkpt lat="39.42399977" lon="-0.37639557"><ele>6.4</ele><time>2022-11-10T16:02:24.0000000+00:00</time></trkpt><trkpt lat="39.42398242" lon="-0.37635852"><ele>6.4</ele><time>2022-11-10T16:02:25.0000000+00:00</time></trkpt><trkpt lat="39.42396817" lon="-0.37632306"><ele>6.2</ele><time>2022-11-10T16:02:26.0000000+00:00</time></trkpt><trkpt lat="39.42395845" lon="-0.37628459"><ele>6.2</ele><time>2022-11-10T16:02:27.0000000+00:00</time></trkpt><trkpt lat="39.42395476" lon="-0.3762177"><ele>6.2</ele><time>2022-11-10T16:02:28.0000000+00:00</time></trkpt><trkpt lat="39.42395208" lon="-0.37616858"><ele>6.2</ele><time>2022-11-10T16:02:29.0000000+00:00</time></trkpt><trkpt lat="39.42394537" lon="-0.37611326"><ele>6.2</ele><time>2022-11-10T16:02:30.0000000+00:00</time></trkpt><trkpt lat="39.42391184" lon="-0.37608158"><ele>6.4</ele><time>2022-11-10T16:02:31.0000000+00:00</time></trkpt><trkpt lat="39.42389893" lon="-0.37603808"><ele>6.4</ele><time>2022-11-10T16:02:32.0000000+00:00</time></trkpt><trkpt lat="39.42388536" lon="-0.37599893"><ele>6.4</ele><time>2022-11-10T16:02:33.0000000+00:00</time></trkpt><trkpt lat="39.42386993" lon="-0.37595694"><ele>6.6</ele><time>2022-11-10T16:02:34.0000000+00:00</time></trkpt><trkpt lat="39.42385652" lon="-0.37590983"><ele>6.6</ele><time>2022-11-10T16:02:35.0000000+00:00</time></trkpt><trkpt lat="39.42384252" lon="-0.37586683"><ele>6.6</ele><time>2022-11-10T16:02:36.0000000+00:00</time></trkpt><trkpt lat="39.42382836" lon="-0.37580917"><ele>6.6</ele><time>2022-11-10T16:02:37.0000000+00:00</time></trkpt><trkpt lat="39.42380464" lon="-0.37576986"><ele>6.6</ele><time>2022-11-10T16:02:38.0000000+00:00</time></trkpt><trkpt lat="39.42377782" lon="-0.37575569"><ele>6.4</ele><time>2022-11-10T16:02:39.0000000+00:00</time></trkpt><trkpt lat="39.4237556" lon="-0.37574647"><ele>6.4</ele><time>2022-11-10T16:02:40.0000000+00:00</time></trkpt><trkpt lat="39.42372576" lon="-0.37573683"><ele>6.4</ele><time>2022-11-10T16:02:41.0000000+00:00</time></trkpt><trkpt lat="39.42369215" lon="-0.375737"><ele>6.4</ele><time>2022-11-10T16:02:42.0000000+00:00</time></trkpt><trkpt lat="39.42366349" lon="-0.37574429"><ele>6.2</ele><time>2022-11-10T16:02:43.0000000+00:00</time></trkpt><trkpt lat="39.42362979" lon="-0.37575083"><ele>6.2</ele><time>2022-11-10T16:02:44.0000000+00:00</time></trkpt><trkpt lat="39.42359023" lon="-0.37575812"><ele>6.2</ele><time>2022-11-10T16:02:45.0000000+00:00</time></trkpt><trkpt lat="39.42355494" lon="-0.37577489"><ele>6.2</ele><time>2022-11-10T16:02:46.0000000+00:00</time></trkpt><trkpt lat="39.4235246" lon="-0.37579794"><ele>6.2</ele><time>2022-11-10T16:02:47.0000000+00:00</time></trkpt><trkpt lat="39.42349283" lon="-0.37582367"><ele>6.2</ele><time>2022-11-10T16:02:48.0000000+00:00</time></trkpt><trkpt lat="39.42345964" lon="-0.37585166"><ele>6.2</ele><time>2022-11-10T16:02:49.0000000+00:00</time></trkpt><trkpt lat="39.42342259" lon="-0.37588117"><ele>6.2</ele><time>2022-11-10T16:02:50.0000000+00:00</time></trkpt><trkpt lat="39.42339116" lon="-0.37590263"><ele>6.2</ele><time>2022-11-10T16:02:51.0000000+00:00</time></trkpt><trkpt lat="39.42335269" lon="-0.37589575"><ele>6.2</ele><time>2022-11-10T16:02:52.0000000+00:00</time></trkpt><trkpt lat="39.42330876" lon="-0.37588729"><ele>6.0</ele><time>2022-11-10T16:02:53.0000000+00:00</time></trkpt><trkpt lat="39.42326912" lon="-0.37588854"><ele>6.0</ele><time>2022-11-10T16:02:54.0000000+00:00</time></trkpt><trkpt lat="39.42322042" lon="-0.37588653"><ele>6.0</ele><time>2022-11-10T16:02:55.0000000+00:00</time></trkpt><trkpt lat="39.42317314" lon="-0.37588561"><ele>6.0</ele><time>2022-11-10T16:02:56.0000000+00:00</time></trkpt><trkpt lat="39.42311456" lon="-0.37588385"><ele>6.0</ele><time>2022-11-10T16:02:57.0000000+00:00</time></trkpt><trkpt lat="39.42306845" lon="-0.37589005"><ele>6.0</ele><time>2022-11-10T16:02:58.0000000+00:00</time></trkpt><trkpt lat="39.42303434" lon="-0.37587815"><ele>6.0</ele><time>2022-11-10T16:02:59.0000000+00:00</time></trkpt><trkpt lat="39.42299034" lon="-0.37586021"><ele>6.2</ele><time>2022-11-10T16:03:00.0000000+00:00</time></trkpt><trkpt lat="39.42296921" lon="-0.37583959"><ele>6.2</ele><time>2022-11-10T16:03:01.0000000+00:00</time></trkpt><trkpt lat="39.42294398" lon="-0.37583062"><ele>6.2</ele><time>2022-11-10T16:03:02.0000000+00:00</time></trkpt><trkpt lat="39.42291859" lon="-0.37584211"><ele>6.2</ele><time>2022-11-10T16:03:03.0000000+00:00</time></trkpt><trkpt lat="39.42288933" lon="-0.37586466"><ele>6.2</ele><time>2022-11-10T16:03:04.0000000+00:00</time></trkpt><trkpt lat="39.42286511" lon="-0.37588108"><ele>6.2</ele><time>2022-11-10T16:03:05.0000000+00:00</time></trkpt><trkpt lat="39.42283854" lon="-0.37590221"><ele>6.2</ele><time>2022-11-10T16:03:06.0000000+00:00</time></trkpt><trkpt lat="39.42282102" lon="-0.37592752"><ele>6.2</ele><time>2022-11-10T16:03:07.0000000+00:00</time></trkpt><trkpt lat="39.42281591" lon="-0.37593464"><ele>6.0</ele><time>2022-11-10T16:03:08.0000000+00:00</time></trkpt><trkpt lat="39.42281063" lon="-0.37593464"><ele>6.0</ele><time>2022-11-10T16:03:09.0000000+00:00</time></trkpt><trkpt lat="39.42279504" lon="-0.37592232"><ele>5.6</ele><time>2022-11-10T16:03:10.0000000+00:00</time></trkpt><trkpt lat="39.42277148" lon="-0.37590003"><ele>5.4</ele><time>2022-11-10T16:03:11.0000000+00:00</time></trkpt><trkpt lat="39.42274902" lon="-0.3758691"><ele>5.4</ele><time>2022-11-10T16:03:12.0000000+00:00</time></trkpt><trkpt lat="39.42273008" lon="-0.3758406"><ele>5.4</ele><time>2022-11-10T16:03:13.0000000+00:00</time></trkpt><trkpt lat="39.42270451" lon="-0.37581638"><ele>5.4</ele><time>2022-11-10T16:03:14.0000000+00:00</time></trkpt><trkpt lat="39.42268155" lon="-0.37578503"><ele>5.2</ele><time>2022-11-10T16:03:15.0000000+00:00</time></trkpt><trkpt lat="39.42265992" lon="-0.37575871"><ele>5.2</ele><time>2022-11-10T16:03:16.0000000+00:00</time></trkpt><trkpt lat="39.42264374" lon="-0.37572786"><ele>5.4</ele><time>2022-11-10T16:03:17.0000000+00:00</time></trkpt><trkpt lat="39.42263385" lon="-0.37569777"><ele>5.4</ele><time>2022-11-10T16:03:18.0000000+00:00</time></trkpt><trkpt lat="39.42262203" lon="-0.37566466"><ele>5.4</ele><time>2022-11-10T16:03:19.0000000+00:00</time></trkpt><trkpt lat="39.42260653" lon="-0.37562627"><ele>5.4</ele><time>2022-11-10T16:03:20.0000000+00:00</time></trkpt><trkpt lat="39.42259261" lon="-0.37558327"><ele>5.4</ele><time>2022-11-10T16:03:21.0000000+00:00</time></trkpt><trkpt lat="39.42258272" lon="-0.37553776"><ele>5.4</ele><time>2022-11-10T16:03:22.0000000+00:00</time></trkpt><trkpt lat="39.42256621" lon="-0.3754956"><ele>5.4</ele><time>2022-11-10T16:03:23.0000000+00:00</time></trkpt><trkpt lat="39.42253981" lon="-0.37545495"><ele>5.4</ele><time>2022-11-10T16:03:24.0000000+00:00</time></trkpt><trkpt lat="39.42251399" lon="-0.37541254"><ele>5.4</ele><time>2022-11-10T16:03:25.0000000+00:00</time></trkpt><trkpt lat="39.42249044" lon="-0.37537088"><ele>5.4</ele><time>2022-11-10T16:03:26.0000000+00:00</time></trkpt><trkpt lat="39.42246747" lon="-0.37532888"><ele>5.4</ele><time>2022-11-10T16:03:27.0000000+00:00</time></trkpt><trkpt lat="39.42244451" lon="-0.3752884"><ele>5.4</ele><time>2022-11-10T16:03:28.0000000+00:00</time></trkpt><trkpt lat="39.42242053" lon="-0.37524783"><ele>5.4</ele><time>2022-11-10T16:03:29.0000000+00:00</time></trkpt><trkpt lat="39.42239304" lon="-0.37520961"><ele>5.6</ele><time>2022-11-10T16:03:30.0000000+00:00</time></trkpt><trkpt lat="39.42236689" lon="-0.37517097"><ele>5.6</ele><time>2022-11-10T16:03:31.0000000+00:00</time></trkpt><trkpt lat="39.42234459" lon="-0.3751309"><ele>5.6</ele><time>2022-11-10T16:03:32.0000000+00:00</time></trkpt><trkpt lat="39.4223254" lon="-0.37509084"><ele>5.6</ele><time>2022-11-10T16:03:33.0000000+00:00</time></trkpt><trkpt lat="39.42230696" lon="-0.3750584"><ele>5.6</ele><time>2022-11-10T16:03:34.0000000+00:00</time></trkpt><trkpt lat="39.42228835" lon="-0.37503652"><ele>5.4</ele><time>2022-11-10T16:03:35.0000000+00:00</time></trkpt><trkpt lat="39.42226849" lon="-0.37501842"><ele>5.4</ele><time>2022-11-10T16:03:36.0000000+00:00</time></trkpt><trkpt lat="39.42224879" lon="-0.37500375"><ele>5.4</ele><time>2022-11-10T16:03:37.0000000+00:00</time></trkpt><trkpt lat="39.42223613" lon="-0.37499419"><ele>5.4</ele><time>2022-11-10T16:03:38.0000000+00:00</time></trkpt><trkpt lat="39.42223261" lon="-0.37499176"><ele>5.4</ele><time>2022-11-10T16:03:39.0000000+00:00</time></trkpt><trkpt lat="39.42223261" lon="-0.37499176"><ele>5.4</ele><time>2022-11-10T16:03:40.0000000+00:00</time></trkpt><trkpt lat="39.42223261" lon="-0.37499176"><ele>5.4</ele><time>2022-11-10T16:03:41.0000000+00:00</time></trkpt><trkpt lat="39.42223261" lon="-0.37499176"><ele>5.4</ele><time>2022-11-10T16:03:42.0000000+00:00</time></trkpt><trkpt lat="39.42223261" lon="-0.37499176"><ele>5.4</ele><time>2022-11-10T16:03:43.0000000+00:00</time></trkpt><trkpt lat="39.42223261" lon="-0.37499176"><ele>5.4</ele><time>2022-11-10T16:03:44.0000000+00:00</time></trkpt><trkpt lat="39.42223261" lon="-0.37499176"><ele>5.4</ele><time>2022-11-10T16:03:45.0000000+00:00</time></trkpt><trkpt lat="39.42223261" lon="-0.37499176"><ele>5.4</ele><time>2022-11-10T16:03:46.0000000+00:00</time></trkpt><trkpt lat="39.42223261" lon="-0.37499176"><ele>5.4</ele><time>2022-11-10T16:03:47.0000000+00:00</time></trkpt><trkpt lat="39.42223261" lon="-0.37499176"><ele>5.4</ele><time>2022-11-10T16:03:48.0000000+00:00</time></trkpt><trkpt lat="39.42223261" lon="-0.37499176"><ele>5.4</ele><time>2022-11-10T16:03:49.0000000+00:00</time></trkpt><trkpt lat="39.42223261" lon="-0.37499176"><ele>5.4</ele><time>2022-11-10T16:03:50.0000000+00:00</time></trkpt><trkpt lat="39.42223261" lon="-0.37499176"><ele>5.2</ele><time>2022-11-10T16:03:51.0000000+00:00</time></trkpt><trkpt lat="39.42223261" lon="-0.37499176"><ele>5.2</ele><time>2022-11-10T16:03:52.0000000+00:00</time></trkpt><trkpt lat="39.42223261" lon="-0.37499176"><ele>5.2</ele><time>2022-11-10T16:03:53.0000000+00:00</time></trkpt><trkpt lat="39.42223261" lon="-0.37499176"><ele>5.2</ele><time>2022-11-10T16:03:54.0000000+00:00</time></trkpt><trkpt lat="39.42223261" lon="-0.37499176"><ele>5.2</ele><time>2022-11-10T16:03:55.0000000+00:00</time></trkpt><trkpt lat="39.42223261" lon="-0.37499176"><ele>5.2</ele><time>2022-11-10T16:03:56.0000000+00:00</time></trkpt><trkpt lat="39.42223261" lon="-0.37499176"><ele>5.2</ele><time>2022-11-10T16:03:57.0000000+00:00</time></trkpt><trkpt lat="39.42223328" lon="-0.37498908"><ele>5.2</ele><time>2022-11-10T16:03:58.0000000+00:00</time></trkpt><trkpt lat="39.42223043" lon="-0.37498858"><ele>5.0</ele><time>2022-11-10T16:03:59.0000000+00:00</time></trkpt><trkpt lat="39.42223043" lon="-0.37498858"><ele>5.0</ele><time>2022-11-10T16:04:00.0000000+00:00</time></trkpt><trkpt lat="39.42223043" lon="-0.37498858"><ele>5.0</ele><time>2022-11-10T16:04:01.0000000+00:00</time></trkpt><trkpt lat="39.42223043" lon="-0.37498858"><ele>5.0</ele><time>2022-11-10T16:04:02.0000000+00:00</time></trkpt><trkpt lat="39.42223052" lon="-0.37498481"><ele>5.0</ele><time>2022-11-10T16:04:03.0000000+00:00</time></trkpt><trkpt lat="39.42222524" lon="-0.37497735"><ele>5.0</ele><time>2022-11-10T16:04:04.0000000+00:00</time></trkpt><trkpt lat="39.42222063" lon="-0.37497114"><ele>5.0</ele><time>2022-11-10T16:04:05.0000000+00:00</time></trkpt><trkpt lat="39.42221593" lon="-0.37496528"><ele>5.2</ele><time>2022-11-10T16:04:06.0000000+00:00</time></trkpt><trkpt lat="39.42221032" lon="-0.37496293"><ele>5.2</ele><time>2022-11-10T16:04:07.0000000+00:00</time></trkpt><trkpt lat="39.42220629" lon="-0.37496419"><ele>5.2</ele><time>2022-11-10T16:04:08.0000000+00:00</time></trkpt><trkpt lat="39.42221032" lon="-0.37496653"><ele>5.2</ele><time>2022-11-10T16:04:09.0000000+00:00</time></trkpt><trkpt lat="39.42222063" lon="-0.37498078"><ele>5.4</ele><time>2022-11-10T16:04:10.0000000+00:00</time></trkpt><trkpt lat="39.42224451" lon="-0.375003"><ele>5.4</ele><time>2022-11-10T16:04:11.0000000+00:00</time></trkpt><trkpt lat="39.42226555" lon="-0.37503376"><ele>5.6</ele><time>2022-11-10T16:04:12.0000000+00:00</time></trkpt><trkpt lat="39.42228458" lon="-0.37507173"><ele>5.6</ele><time>2022-11-10T16:04:13.0000000+00:00</time></trkpt><trkpt lat="39.42229858" lon="-0.37511489"><ele>5.6</ele><time>2022-11-10T16:04:14.0000000+00:00</time></trkpt><trkpt lat="39.42231618" lon="-0.37515915"><ele>5.6</ele><time>2022-11-10T16:04:15.0000000+00:00</time></trkpt><trkpt lat="39.4223435" lon="-0.37519997"><ele>5.6</ele><time>2022-11-10T16:04:16.0000000+00:00</time></trkpt><trkpt lat="39.42236329" lon="-0.37524356"><ele>5.6</ele><time>2022-11-10T16:04:17.0000000+00:00</time></trkpt><trkpt lat="39.42238206" lon="-0.37528463"><ele>5.6</ele><time>2022-11-10T16:04:18.0000000+00:00</time></trkpt><trkpt lat="39.42239271" lon="-0.37532813"><ele>5.6</ele><time>2022-11-10T16:04:19.0000000+00:00</time></trkpt><trkpt lat="39.42240343" lon="-0.37536283"><ele>5.6</ele><time>2022-11-10T16:04:20.0000000+00:00</time></trkpt><trkpt lat="39.42240729" lon="-0.37539368"><ele>5.6</ele><time>2022-11-10T16:04:21.0000000+00:00</time></trkpt><trkpt lat="39.42240645" lon="-0.37542251"><ele>5.4</ele><time>2022-11-10T16:04:22.0000000+00:00</time></trkpt><trkpt lat="39.42240763" lon="-0.37544975"><ele>5.4</ele><time>2022-11-10T16:04:23.0000000+00:00</time></trkpt><trkpt lat="39.42241232" lon="-0.3754754"><ele>5.4</ele><time>2022-11-10T16:04:24.0000000+00:00</time></trkpt><trkpt lat="39.42241576" lon="-0.37549401"><ele>5.4</ele><time>2022-11-10T16:04:25.0000000+00:00</time></trkpt><trkpt lat="39.42242925" lon="-0.37551899"><ele>5.2</ele><time>2022-11-10T16:04:26.0000000+00:00</time></trkpt><trkpt lat="39.42244685" lon="-0.37554774"><ele>5.2</ele><time>2022-11-10T16:04:27.0000000+00:00</time></trkpt><trkpt lat="39.42246898" lon="-0.37558788"><ele>5.2</ele><time>2022-11-10T16:04:28.0000000+00:00</time></trkpt><trkpt lat="39.422487" lon="-0.37563147"><ele>5.2</ele><time>2022-11-10T16:04:29.0000000+00:00</time></trkpt><trkpt lat="39.42250771" lon="-0.37567581"><ele>5.2</ele><time>2022-11-10T16:04:30.0000000+00:00</time></trkpt><trkpt lat="39.42253687" lon="-0.37572443"><ele>5.2</ele><time>2022-11-10T16:04:31.0000000+00:00</time></trkpt><trkpt lat="39.42256965" lon="-0.37577245"><ele>5.2</ele><time>2022-11-10T16:04:32.0000000+00:00</time></trkpt><trkpt lat="39.42259672" lon="-0.3758178"><ele>5.4</ele><time>2022-11-10T16:04:33.0000000+00:00</time></trkpt><trkpt lat="39.4226165" lon="-0.37586533"><ele>5.6</ele><time>2022-11-10T16:04:34.0000000+00:00</time></trkpt><trkpt lat="39.42262447" lon="-0.37591352"><ele>5.6</ele><time>2022-11-10T16:04:35.0000000+00:00</time></trkpt><trkpt lat="39.4226455" lon="-0.37594219"><ele>5.8</ele><time>2022-11-10T16:04:36.0000000+00:00</time></trkpt><trkpt lat="39.42267492" lon="-0.37593557"><ele>5.8</ele><time>2022-11-10T16:04:37.0000000+00:00</time></trkpt><trkpt lat="39.42270233" lon="-0.37591989"><ele>5.8</ele><time>2022-11-10T16:04:38.0000000+00:00</time></trkpt><trkpt lat="39.42272304" lon="-0.37590279"><ele>5.8</ele><time>2022-11-10T16:04:39.0000000+00:00</time></trkpt><trkpt lat="39.4227367" lon="-0.37588435"><ele>5.8</ele><time>2022-11-10T16:04:40.0000000+00:00</time></trkpt><trkpt lat="39.42276319" lon="-0.37586675"><ele>5.6</ele><time>2022-11-10T16:04:41.0000000+00:00</time></trkpt><trkpt lat="39.42281188" lon="-0.37585435"><ele>5.6</ele><time>2022-11-10T16:04:42.0000000+00:00</time></trkpt><trkpt lat="39.42286712" lon="-0.37585761"><ele>5.6</ele><time>2022-11-10T16:04:43.0000000+00:00</time></trkpt><trkpt lat="39.42290258" lon="-0.37587505"><ele>5.6</ele><time>2022-11-10T16:04:44.0000000+00:00</time></trkpt><trkpt lat="39.42292186" lon="-0.37589332"><ele>5.4</ele><time>2022-11-10T16:04:45.0000000+00:00</time></trkpt><trkpt lat="39.42292311" lon="-0.37589357"><ele>5.4</ele><time>2022-11-10T16:04:46.0000000+00:00</time></trkpt><trkpt lat="39.42295605" lon="-0.37590514"><ele>5.4</ele><time>2022-11-10T16:04:47.0000000+00:00</time></trkpt><trkpt lat="39.42299905" lon="-0.37589693"><ele>5.4</ele><time>2022-11-10T16:04:48.0000000+00:00</time></trkpt><trkpt lat="39.42305831" lon="-0.37589642"><ele>5.6</ele><time>2022-11-10T16:04:49.0000000+00:00</time></trkpt><trkpt lat="39.423119" lon="-0.37590103"><ele>5.6</ele><time>2022-11-10T16:04:50.0000000+00:00</time></trkpt><trkpt lat="39.42318178" lon="-0.37589374"><ele>5.8</ele><time>2022-11-10T16:04:51.0000000+00:00</time></trkpt><trkpt lat="39.42323551" lon="-0.3758732"><ele>5.8</ele><time>2022-11-10T16:04:52.0000000+00:00</time></trkpt><trkpt lat="39.42328404" lon="-0.37586474"><ele>5.8</ele><time>2022-11-10T16:04:53.0000000+00:00</time></trkpt><trkpt lat="39.42332913" lon="-0.37586172"><ele>6.0</ele><time>2022-11-10T16:04:54.0000000+00:00</time></trkpt><trkpt lat="39.42337859" lon="-0.37586189"><ele>6.0</ele><time>2022-11-10T16:04:55.0000000+00:00</time></trkpt><trkpt lat="39.42340801" lon="-0.37585703"><ele>6.0</ele><time>2022-11-10T16:04:56.0000000+00:00</time></trkpt><trkpt lat="39.42343391" lon="-0.37584261"><ele>6.0</ele><time>2022-11-10T16:04:57.0000000+00:00</time></trkpt><trkpt lat="39.42346039" lon="-0.37582995"><ele>6.2</ele><time>2022-11-10T16:04:58.0000000+00:00</time></trkpt><trkpt lat="39.42349032" lon="-0.375823"><ele>6.2</ele><time>2022-11-10T16:04:59.0000000+00:00</time></trkpt><trkpt lat="39.42352451" lon="-0.37582283"><ele>6.2</ele><time>2022-11-10T16:05:00.0000000+00:00</time></trkpt><trkpt lat="39.42356357" lon="-0.37582761"><ele>6.2</ele><time>2022-11-10T16:05:01.0000000+00:00</time></trkpt><trkpt lat="39.42359392" lon="-0.3758318"><ele>6.0</ele><time>2022-11-10T16:05:02.0000000+00:00</time></trkpt><trkpt lat="39.42361931" lon="-0.37583046"><ele>6.0</ele><time>2022-11-10T16:05:03.0000000+00:00</time></trkpt><trkpt lat="39.42361931" lon="-0.37583046"><ele>5.8</ele><time>2022-11-10T16:05:04.0000000+00:00</time></trkpt><trkpt lat="39.42366625" lon="-0.37584119"><ele>5.8</ele><time>2022-11-10T16:05:05.0000000+00:00</time></trkpt><trkpt lat="39.42369123" lon="-0.37587639"><ele>5.8</ele><time>2022-11-10T16:05:06.0000000+00:00</time></trkpt><trkpt lat="39.42371428" lon="-0.37590087"><ele>6.0</ele><time>2022-11-10T16:05:07.0000000+00:00</time></trkpt><trkpt lat="39.42371814" lon="-0.3759043"><ele>6.0</ele><time>2022-11-10T16:05:08.0000000+00:00</time></trkpt><trkpt lat="39.42371814" lon="-0.3759043"><ele>6.0</ele><time>2022-11-10T16:05:09.0000000+00:00</time></trkpt><trkpt lat="39.42371814" lon="-0.3759043"><ele>6.0</ele><time>2022-11-10T16:05:10.0000000+00:00</time></trkpt><trkpt lat="39.42371814" lon="-0.3759043"><ele>6.0</ele><time>2022-11-10T16:05:11.0000000+00:00</time></trkpt><trkpt lat="39.42371814" lon="-0.3759043"><ele>6.0</ele><time>2022-11-10T16:05:12.0000000+00:00</time></trkpt><trkpt lat="39.42371814" lon="-0.3759043"><ele>6.0</ele><time>2022-11-10T16:05:13.0000000+00:00</time></trkpt><trkpt lat="39.42371814" lon="-0.3759043"><ele>6.0</ele><time>2022-11-10T16:05:14.0000000+00:00</time></trkpt><trkpt lat="39.42371814" lon="-0.3759043"><ele>6.0</ele><time>2022-11-10T16:05:15.0000000+00:00</time></trkpt><trkpt lat="39.42371814" lon="-0.3759043"><ele>6.0</ele><time>2022-11-10T16:05:16.0000000+00:00</time></trkpt><trkpt lat="39.4237323" lon="-0.37589751"><ele>6.0</ele><time>2022-11-10T16:05:17.0000000+00:00</time></trkpt><trkpt lat="39.42373465" lon="-0.37589651"><ele>6.0</ele><time>2022-11-10T16:05:18.0000000+00:00</time></trkpt><trkpt lat="39.42373465" lon="-0.37589651"><ele>6.0</ele><time>2022-11-10T16:05:19.0000000+00:00</time></trkpt><trkpt lat="39.42373465" lon="-0.37589651"><ele>6.0</ele><time>2022-11-10T16:05:20.0000000+00:00</time></trkpt><trkpt lat="39.42373465" lon="-0.37589651"><ele>6.0</ele><time>2022-11-10T16:05:21.0000000+00:00</time></trkpt><trkpt lat="39.42373465" lon="-0.37589651"><ele>6.0</ele><time>2022-11-10T16:05:22.0000000+00:00</time></trkpt><trkpt lat="39.42374663" lon="-0.37588645"><ele>6.0</ele><time>2022-11-10T16:05:23.0000000+00:00</time></trkpt><trkpt lat="39.42376063" lon="-0.37586373"><ele>6.0</ele><time>2022-11-10T16:05:24.0000000+00:00</time></trkpt><trkpt lat="39.42377027" lon="-0.37583373"><ele>6.0</ele><time>2022-11-10T16:05:25.0000000+00:00</time></trkpt><trkpt lat="39.42377446" lon="-0.37579383"><ele>6.0</ele><time>2022-11-10T16:05:26.0000000+00:00</time></trkpt><trkpt lat="39.42377438" lon="-0.37574764"><ele>6.0</ele><time>2022-11-10T16:05:27.0000000+00:00</time></trkpt><trkpt lat="39.42376139" lon="-0.37570087"><ele>6.0</ele><time>2022-11-10T16:05:28.0000000+00:00</time></trkpt><trkpt lat="39.42373834" lon="-0.37564673"><ele>6.0</ele><time>2022-11-10T16:05:29.0000000+00:00</time></trkpt><trkpt lat="39.42371453" lon="-0.37559015"><ele>5.6</ele><time>2022-11-10T16:05:30.0000000+00:00</time></trkpt><trkpt lat="39.4236919" lon="-0.37553122"><ele>5.6</ele><time>2022-11-10T16:05:31.0000000+00:00</time></trkpt><trkpt lat="39.42366567" lon="-0.37546727"><ele>5.4</ele><time>2022-11-10T16:05:32.0000000+00:00</time></trkpt><trkpt lat="39.42363666" lon="-0.37540097"><ele>5.8</ele><time>2022-11-10T16:05:33.0000000+00:00</time></trkpt><trkpt lat="39.42361336" lon="-0.37533844"><ele>6.0</ele><time>2022-11-10T16:05:34.0000000+00:00</time></trkpt><trkpt lat="39.42359358" lon="-0.37527013"><ele>6.4</ele><time>2022-11-10T16:05:35.0000000+00:00</time></trkpt><trkpt lat="39.42356533" lon="-0.37520542"><ele>6.8</ele><time>2022-11-10T16:05:36.0000000+00:00</time></trkpt><trkpt lat="39.42353625" lon="-0.37514423"><ele>7.0</ele><time>2022-11-10T16:05:37.0000000+00:00</time></trkpt><trkpt lat="39.42350482" lon="-0.37508019"><ele>7.2</ele><time>2022-11-10T16:05:38.0000000+00:00</time></trkpt><trkpt lat="39.42347825" lon="-0.37501607"><ele>7.2</ele><time>2022-11-10T16:05:39.0000000+00:00</time></trkpt><trkpt lat="39.42345603" lon="-0.37495262"><ele>7.6</ele><time>2022-11-10T16:05:40.0000000+00:00</time></trkpt><trkpt lat="39.42343558" lon="-0.37489277"><ele>7.8</ele><time>2022-11-10T16:05:41.0000000+00:00</time></trkpt><trkpt lat="39.42341639" lon="-0.37483661"><ele>8.0</ele><time>2022-11-10T16:05:42.0000000+00:00</time></trkpt><trkpt lat="39.42340088" lon="-0.37478222"><ele>8.4</ele><time>2022-11-10T16:05:43.0000000+00:00</time></trkpt><trkpt lat="39.4233842" lon="-0.37473176"><ele>9.0</ele><time>2022-11-10T16:05:44.0000000+00:00</time></trkpt><trkpt lat="39.42336853" lon="-0.37468725"><ele>9.6</ele><time>2022-11-10T16:05:45.0000000+00:00</time></trkpt><trkpt lat="39.42335134" lon="-0.3746466"><ele>10.0</ele><time>2022-11-10T16:05:46.0000000+00:00</time></trkpt><trkpt lat="39.42333642" lon="-0.37460553"><ele>10.4</ele><time>2022-11-10T16:05:47.0000000+00:00</time></trkpt><trkpt lat="39.42331698" lon="-0.37456655"><ele>10.6</ele><time>2022-11-10T16:05:48.0000000+00:00</time></trkpt><trkpt lat="39.4233003" lon="-0.37452799"><ele>10.8</ele><time>2022-11-10T16:05:49.0000000+00:00</time></trkpt><trkpt lat="39.42328412" lon="-0.37448952"><ele>11.0</ele><time>2022-11-10T16:05:50.0000000+00:00</time></trkpt><trkpt lat="39.42326568" lon="-0.37444979"><ele>11.2</ele><time>2022-11-10T16:05:51.0000000+00:00</time></trkpt><trkpt lat="39.42324808" lon="-0.37441249"><ele>11.2</ele><time>2022-11-10T16:05:52.0000000+00:00</time></trkpt><trkpt lat="39.42323023" lon="-0.3743746"><ele>11.4</ele><time>2022-11-10T16:05:53.0000000+00:00</time></trkpt><trkpt lat="39.42321514" lon="-0.37433596"><ele>11.4</ele><time>2022-11-10T16:05:54.0000000+00:00</time></trkpt><trkpt lat="39.42320072" lon="-0.37429665"><ele>11.4</ele><time>2022-11-10T16:05:55.0000000+00:00</time></trkpt><trkpt lat="39.42318438" lon="-0.37425743"><ele>11.6</ele><time>2022-11-10T16:05:56.0000000+00:00</time></trkpt><trkpt lat="39.42316954" lon="-0.37421677"><ele>11.8</ele><time>2022-11-10T16:05:57.0000000+00:00</time></trkpt><trkpt lat="39.42315311" lon="-0.37417905"><ele>11.8</ele><time>2022-11-10T16:05:58.0000000+00:00</time></trkpt><trkpt lat="39.42313618" lon="-0.37413849"><ele>12.0</ele><time>2022-11-10T16:05:59.0000000+00:00</time></trkpt><trkpt lat="39.42311858" lon="-0.37409674"><ele>12.0</ele><time>2022-11-10T16:06:00.0000000+00:00</time></trkpt><trkpt lat="39.4231014" lon="-0.374054"><ele>12.0</ele><time>2022-11-10T16:06:01.0000000+00:00</time></trkpt><trkpt lat="39.42308488" lon="-0.37401049"><ele>12.2</ele><time>2022-11-10T16:06:02.0000000+00:00</time></trkpt><trkpt lat="39.42306636" lon="-0.37396657"><ele>12.2</ele><time>2022-11-10T16:06:03.0000000+00:00</time></trkpt><trkpt lat="39.42304859" lon="-0.3739193"><ele>12.2</ele><time>2022-11-10T16:06:04.0000000+00:00</time></trkpt><trkpt lat="39.42302831" lon="-0.37386943"><ele>12.2</ele><time>2022-11-10T16:06:05.0000000+00:00</time></trkpt><trkpt lat="39.42300811" lon="-0.37382023"><ele>12.2</ele><time>2022-11-10T16:06:06.0000000+00:00</time></trkpt><trkpt lat="39.42298648" lon="-0.37376926"><ele>12.4</ele><time>2022-11-10T16:06:07.0000000+00:00</time></trkpt><trkpt lat="39.42296502" lon="-0.37371646"><ele>12.4</ele><time>2022-11-10T16:06:08.0000000+00:00</time></trkpt><trkpt lat="39.42294264" lon="-0.37366415"><ele>12.4</ele><time>2022-11-10T16:06:09.0000000+00:00</time></trkpt><trkpt lat="39.42291875" lon="-0.37361143"><ele>12.4</ele><time>2022-11-10T16:06:10.0000000+00:00</time></trkpt><trkpt lat="39.42289738" lon="-0.37355745"><ele>12.4</ele><time>2022-11-10T16:06:11.0000000+00:00</time></trkpt><trkpt lat="39.42287525" lon="-0.37349903"><ele>12.2</ele><time>2022-11-10T16:06:12.0000000+00:00</time></trkpt><trkpt lat="39.42285438" lon="-0.37343826"><ele>12.2</ele><time>2022-11-10T16:06:13.0000000+00:00</time></trkpt><trkpt lat="39.42283066" lon="-0.37337347"><ele>12.0</ele><time>2022-11-10T16:06:14.0000000+00:00</time></trkpt><trkpt lat="39.4228056" lon="-0.37330549"><ele>11.8</ele><time>2022-11-10T16:06:15.0000000+00:00</time></trkpt><trkpt lat="39.42277861" lon="-0.37323584"><ele>11.4</ele><time>2022-11-10T16:06:16.0000000+00:00</time></trkpt><trkpt lat="39.42274952" lon="-0.37316099"><ele>11.2</ele><time>2022-11-10T16:06:17.0000000+00:00</time></trkpt><trkpt lat="39.42271851" lon="-0.37308027"><ele>11.0</ele><time>2022-11-10T16:06:18.0000000+00:00</time></trkpt><trkpt lat="39.42268658" lon="-0.37299385"><ele>10.2</ele><time>2022-11-10T16:06:19.0000000+00:00</time></trkpt><trkpt lat="39.4226497" lon="-0.37290551"><ele>9.8</ele><time>2022-11-10T16:06:20.0000000+00:00</time></trkpt><trkpt lat="39.42261055" lon="-0.37281239"><ele>9.4</ele><time>2022-11-10T16:06:21.0000000+00:00</time></trkpt><trkpt lat="39.42257384" lon="-0.372717"><ele>9.0</ele><time>2022-11-10T16:06:22.0000000+00:00</time></trkpt><trkpt lat="39.42253947" lon="-0.37262228"><ele>9.0</ele><time>2022-11-10T16:06:23.0000000+00:00</time></trkpt><trkpt lat="39.42250779" lon="-0.37253168"><ele>8.6</ele><time>2022-11-10T16:06:24.0000000+00:00</time></trkpt><trkpt lat="39.4224787" lon="-0.37244794"><ele>8.6</ele><time>2022-11-10T16:06:25.0000000+00:00</time></trkpt><trkpt lat="39.42245389" lon="-0.37236789"><ele>8.0</ele><time>2022-11-10T16:06:26.0000000+00:00</time></trkpt><trkpt lat="39.42243051" lon="-0.3722891"><ele>7.2</ele><time>2022-11-10T16:06:27.0000000+00:00</time></trkpt><trkpt lat="39.42240897" lon="-0.3722202"><ele>7.0</ele><time>2022-11-10T16:06:28.0000000+00:00</time></trkpt><trkpt lat="39.42238248" lon="-0.37216866"><ele>6.6</ele><time>2022-11-10T16:06:29.0000000+00:00</time></trkpt><trkpt lat="39.42233613" lon="-0.37212934"><ele>6.2</ele><time>2022-11-10T16:06:30.0000000+00:00</time></trkpt><trkpt lat="39.42229732" lon="-0.37208827"><ele>6.0</ele><time>2022-11-10T16:06:31.0000000+00:00</time></trkpt><trkpt lat="39.42226295" lon="-0.37204058"><ele>5.8</ele><time>2022-11-10T16:06:32.0000000+00:00</time></trkpt><trkpt lat="39.42223814" lon="-0.37198752"><ele>5.6</ele><time>2022-11-10T16:06:33.0000000+00:00</time></trkpt><trkpt lat="39.42222549" lon="-0.37193178"><ele>5.6</ele><time>2022-11-10T16:06:34.0000000+00:00</time></trkpt><trkpt lat="39.42222599" lon="-0.37187831"><ele>5.6</ele><time>2022-11-10T16:06:35.0000000+00:00</time></trkpt><trkpt lat="39.42224426" lon="-0.37182718"><ele>5.4</ele><time>2022-11-10T16:06:36.0000000+00:00</time></trkpt><trkpt lat="39.42227377" lon="-0.37178904"><ele>5.6</ele><time>2022-11-10T16:06:37.0000000+00:00</time></trkpt><trkpt lat="39.42231115" lon="-0.37174889"><ele>5.8</ele><time>2022-11-10T16:06:38.0000000+00:00</time></trkpt><trkpt lat="39.42235105" lon="-0.37170933"><ele>6.0</ele><time>2022-11-10T16:06:39.0000000+00:00</time></trkpt><trkpt lat="39.42239044" lon="-0.37167119"><ele>6.2</ele><time>2022-11-10T16:06:40.0000000+00:00</time></trkpt><trkpt lat="39.42242875" lon="-0.3716333"><ele>6.4</ele><time>2022-11-10T16:06:41.0000000+00:00</time></trkpt><trkpt lat="39.42246228" lon="-0.37159852"><ele>6.6</ele><time>2022-11-10T16:06:42.0000000+00:00</time></trkpt><trkpt lat="39.42249488" lon="-0.37156482"><ele>6.6</ele><time>2022-11-10T16:06:43.0000000+00:00</time></trkpt><trkpt lat="39.42252623" lon="-0.37153213"><ele>6.4</ele><time>2022-11-10T16:06:44.0000000+00:00</time></trkpt><trkpt lat="39.42255515" lon="-0.37150296"><ele>6.4</ele><time>2022-11-10T16:06:45.0000000+00:00</time></trkpt><trkpt lat="39.42257962" lon="-0.37147656"><ele>6.4</ele><time>2022-11-10T16:06:46.0000000+00:00</time></trkpt><trkpt lat="39.42260737" lon="-0.371452"><ele>6.4</ele><time>2022-11-10T16:06:47.0000000+00:00</time></trkpt><trkpt lat="39.42263595" lon="-0.37142644"><ele>6.4</ele><time>2022-11-10T16:06:48.0000000+00:00</time></trkpt><trkpt lat="39.42266369" lon="-0.37140121"><ele>6.2</ele><time>2022-11-10T16:06:49.0000000+00:00</time></trkpt><trkpt lat="39.42269437" lon="-0.37137556"><ele>6.2</ele><time>2022-11-10T16:06:50.0000000+00:00</time></trkpt><trkpt lat="39.42272052" lon="-0.37135427"><ele>6.2</ele><time>2022-11-10T16:06:51.0000000+00:00</time></trkpt><trkpt lat="39.42274433" lon="-0.37133499"><ele>6.0</ele><time>2022-11-10T16:06:52.0000000+00:00</time></trkpt><trkpt lat="39.42276721" lon="-0.37131764"><ele>6.0</ele><time>2022-11-10T16:06:53.0000000+00:00</time></trkpt><trkpt lat="39.42279311" lon="-0.37130188"><ele>6.0</ele><time>2022-11-10T16:06:54.0000000+00:00</time></trkpt><trkpt lat="39.42281834" lon="-0.37128797"><ele>5.8</ele><time>2022-11-10T16:06:55.0000000+00:00</time></trkpt><trkpt lat="39.42284063" lon="-0.37127548"><ele>5.8</ele><time>2022-11-10T16:06:56.0000000+00:00</time></trkpt><trkpt lat="39.42285698" lon="-0.37126509"><ele>5.8</ele><time>2022-11-10T16:06:57.0000000+00:00</time></trkpt><trkpt lat="39.42287467" lon="-0.37125226"><ele>5.8</ele><time>2022-11-10T16:06:58.0000000+00:00</time></trkpt><trkpt lat="39.42289185" lon="-0.37123743"><ele>5.8</ele><time>2022-11-10T16:06:59.0000000+00:00</time></trkpt><trkpt lat="39.42291104" lon="-0.37122385"><ele>5.6</ele><time>2022-11-10T16:07:00.0000000+00:00</time></trkpt><trkpt lat="39.42292789" lon="-0.37121069"><ele>5.6</ele><time>2022-11-10T16:07:01.0000000+00:00</time></trkpt><trkpt lat="39.4229439" lon="-0.37119602"><ele>5.4</ele><time>2022-11-10T16:07:02.0000000+00:00</time></trkpt><trkpt lat="39.42295949" lon="-0.37118085"><ele>5.4</ele><time>2022-11-10T16:07:03.0000000+00:00</time></trkpt><trkpt lat="39.42297558" lon="-0.37116853"><ele>5.4</ele><time>2022-11-10T16:07:04.0000000+00:00</time></trkpt><trkpt lat="39.42298983" lon="-0.37115864"><ele>5.4</ele><time>2022-11-10T16:07:05.0000000+00:00</time></trkpt><trkpt lat="39.42300274" lon="-0.37114933"><ele>5.2</ele><time>2022-11-10T16:07:06.0000000+00:00</time></trkpt><trkpt lat="39.4230159" lon="-0.37114196"><ele>5.2</ele><time>2022-11-10T16:07:07.0000000+00:00</time></trkpt><trkpt lat="39.42302814" lon="-0.37112947"><ele>5.2</ele><time>2022-11-10T16:07:08.0000000+00:00</time></trkpt><trkpt lat="39.4230387" lon="-0.37111782"><ele>5.2</ele><time>2022-11-10T16:07:09.0000000+00:00</time></trkpt><trkpt lat="39.42304733" lon="-0.37111027"><ele>5.2</ele><time>2022-11-10T16:07:10.0000000+00:00</time></trkpt><trkpt lat="39.42305697" lon="-0.37110139"><ele>5.2</ele><time>2022-11-10T16:07:11.0000000+00:00</time></trkpt><trkpt lat="39.42306753" lon="-0.37109183"><ele>5.0</ele><time>2022-11-10T16:07:12.0000000+00:00</time></trkpt><trkpt lat="39.4230765" lon="-0.37107599"><ele>5.0</ele><time>2022-11-10T16:07:13.0000000+00:00</time></trkpt><trkpt lat="39.42308706" lon="-0.37106023"><ele>5.0</ele><time>2022-11-10T16:07:14.0000000+00:00</time></trkpt><trkpt lat="39.42309469" lon="-0.37104791"><ele>5.0</ele><time>2022-11-10T16:07:15.0000000+00:00</time></trkpt><trkpt lat="39.42310676" lon="-0.37103542"><ele>5.0</ele><time>2022-11-10T16:07:16.0000000+00:00</time></trkpt><trkpt lat="39.42311799" lon="-0.37102176"><ele>4.8</ele><time>2022-11-10T16:07:17.0000000+00:00</time></trkpt><trkpt lat="39.42312805" lon="-0.37101229"><ele>4.8</ele><time>2022-11-10T16:07:18.0000000+00:00</time></trkpt><trkpt lat="39.42313409" lon="-0.37101237"><ele>4.8</ele><time>2022-11-10T16:07:19.0000000+00:00</time></trkpt><trkpt lat="39.42313409" lon="-0.37101237"><ele>4.8</ele><time>2022-11-10T16:07:20.0000000+00:00</time></trkpt><trkpt lat="39.42313409" lon="-0.37101237"><ele>4.6</ele><time>2022-11-10T16:07:21.0000000+00:00</time></trkpt><trkpt lat="39.42313409" lon="-0.37101237"><ele>4.6</ele><time>2022-11-10T16:07:22.0000000+00:00</time></trkpt><trkpt lat="39.42313409" lon="-0.37101237"><ele>4.6</ele><time>2022-11-10T16:07:23.0000000+00:00</time></trkpt><trkpt lat="39.42313409" lon="-0.37101237"><ele>4.4</ele><time>2022-11-10T16:07:24.0000000+00:00</time></trkpt><trkpt lat="39.42313409" lon="-0.37101237"><ele>4.4</ele><time>2022-11-10T16:07:25.0000000+00:00</time></trkpt><trkpt lat="39.42313409" lon="-0.37101237"><ele>4.4</ele><time>2022-11-10T16:07:26.0000000+00:00</time></trkpt><trkpt lat="39.42313409" lon="-0.37101237"><ele>4.4</ele><time>2022-11-10T16:07:27.0000000+00:00</time></trkpt><trkpt lat="39.42313409" lon="-0.37101237"><ele>4.2</ele><time>2022-11-10T16:07:28.0000000+00:00</time></trkpt><trkpt lat="39.42313409" lon="-0.37101237"><ele>4.2</ele><time>2022-11-10T16:07:29.0000000+00:00</time></trkpt><trkpt lat="39.42313409" lon="-0.37101237"><ele>4.2</ele><time>2022-11-10T16:07:30.0000000+00:00</time></trkpt><trkpt lat="39.42313409" lon="-0.37101237"><ele>4.2</ele><time>2022-11-10T16:07:31.0000000+00:00</time></trkpt><trkpt lat="39.42313409" lon="-0.37101237"><ele>4.2</ele><time>2022-11-10T16:07:32.0000000+00:00</time></trkpt><trkpt lat="39.42313409" lon="-0.37101237"><ele>4.2</ele><time>2022-11-10T16:07:33.0000000+00:00</time></trkpt><trkpt lat="39.42313409" lon="-0.37101237"><ele>4.2</ele><time>2022-11-10T16:07:34.0000000+00:00</time></trkpt><trkpt lat="39.42313409" lon="-0.37101237"><ele>4.2</ele><time>2022-11-10T16:07:35.0000000+00:00</time></trkpt><trkpt lat="39.42313409" lon="-0.37101237"><ele>4.2</ele><time>2022-11-10T16:07:36.0000000+00:00</time></trkpt><trkpt lat="39.42313409" lon="-0.37101237"><ele>4.2</ele><time>2022-11-10T16:07:37.0000000+00:00</time></trkpt><trkpt lat="39.42313409" lon="-0.37101237"><ele>4.2</ele><time>2022-11-10T16:07:38.0000000+00:00</time></trkpt><trkpt lat="39.42313501" lon="-0.37101665"><ele>4.2</ele><time>2022-11-10T16:07:39.0000000+00:00</time></trkpt><trkpt lat="39.42313878" lon="-0.37101941"><ele>4.2</ele><time>2022-11-10T16:07:40.0000000+00:00</time></trkpt><trkpt lat="39.42314708" lon="-0.37101723"><ele>4.2</ele><time>2022-11-10T16:07:41.0000000+00:00</time></trkpt><trkpt lat="39.4231604" lon="-0.37101153"><ele>4.4</ele><time>2022-11-10T16:07:42.0000000+00:00</time></trkpt><trkpt lat="39.42318035" lon="-0.37100097"><ele>4.6</ele><time>2022-11-10T16:07:43.0000000+00:00</time></trkpt><trkpt lat="39.42320751" lon="-0.37099158"><ele>4.6</ele><time>2022-11-10T16:07:44.0000000+00:00</time></trkpt><trkpt lat="39.42323651" lon="-0.37097239"><ele>4.8</ele><time>2022-11-10T16:07:45.0000000+00:00</time></trkpt><trkpt lat="39.42327155" lon="-0.37094565"><ele>5.0</ele><time>2022-11-10T16:07:46.0000000+00:00</time></trkpt><trkpt lat="39.4233055" lon="-0.37091908"><ele>5.2</ele><time>2022-11-10T16:07:47.0000000+00:00</time></trkpt><trkpt lat="39.42333793" lon="-0.37089092"><ele>5.2</ele><time>2022-11-10T16:07:48.0000000+00:00</time></trkpt><trkpt lat="39.42337096" lon="-0.37085764"><ele>5.4</ele><time>2022-11-10T16:07:49.0000000+00:00</time></trkpt><trkpt lat="39.42340247" lon="-0.37081758"><ele>5.4</ele><time>2022-11-10T16:07:50.0000000+00:00</time></trkpt><trkpt lat="39.42342955" lon="-0.37077072"><ele>5.4</ele><time>2022-11-10T16:07:51.0000000+00:00</time></trkpt><trkpt lat="39.42345863" lon="-0.37072412"><ele>5.6</ele><time>2022-11-10T16:07:52.0000000+00:00</time></trkpt><trkpt lat="39.42349149" lon="-0.37067793"><ele>5.6</ele><time>2022-11-10T16:07:53.0000000+00:00</time></trkpt><trkpt lat="39.42353122" lon="-0.3706408"><ele>5.6</ele><time>2022-11-10T16:07:54.0000000+00:00</time></trkpt><trkpt lat="39.4235769" lon="-0.37061842"><ele>5.6</ele><time>2022-11-10T16:07:55.0000000+00:00</time></trkpt><trkpt lat="39.42362241" lon="-0.37061272"><ele>5.6</ele><time>2022-11-10T16:07:56.0000000+00:00</time></trkpt><trkpt lat="39.42366885" lon="-0.37062362"><ele>5.6</ele><time>2022-11-10T16:07:57.0000000+00:00</time></trkpt><trkpt lat="39.42371001" lon="-0.3706548"><ele>5.6</ele><time>2022-11-10T16:07:58.0000000+00:00</time></trkpt><trkpt lat="39.42374094" lon="-0.37070794"><ele>5.4</ele><time>2022-11-10T16:07:59.0000000+00:00</time></trkpt><trkpt lat="39.42376692" lon="-0.3707667"><ele>5.4</ele><time>2022-11-10T16:08:00.0000000+00:00</time></trkpt><trkpt lat="39.42377907" lon="-0.37082663"><ele>5.4</ele><time>2022-11-10T16:08:01.0000000+00:00</time></trkpt><trkpt lat="39.42378159" lon="-0.37088656"><ele>5.4</ele><time>2022-11-10T16:08:02.0000000+00:00</time></trkpt><trkpt lat="39.42377119" lon="-0.37094138"><ele>5.4</ele><time>2022-11-10T16:08:03.0000000+00:00</time></trkpt><trkpt lat="39.42374521" lon="-0.37098781"><ele>5.4</ele><time>2022-11-10T16:08:04.0000000+00:00</time></trkpt><trkpt lat="39.42370682" lon="-0.37102771"><ele>5.4</ele><time>2022-11-10T16:08:05.0000000+00:00</time></trkpt><trkpt lat="39.42366097" lon="-0.3710568"><ele>5.2</ele><time>2022-11-10T16:08:06.0000000+00:00</time></trkpt><trkpt lat="39.42360875" lon="-0.37107021"><ele>5.2</ele><time>2022-11-10T16:08:07.0000000+00:00</time></trkpt><trkpt lat="39.42355268" lon="-0.37108035"><ele>5.0</ele><time>2022-11-10T16:08:08.0000000+00:00</time></trkpt><trkpt lat="39.42349459" lon="-0.37109074"><ele>5.0</ele><time>2022-11-10T16:08:09.0000000+00:00</time></trkpt><trkpt lat="39.42343843" lon="-0.37110734"><ele>4.8</ele><time>2022-11-10T16:08:10.0000000+00:00</time></trkpt><trkpt lat="39.42338546" lon="-0.37113927"><ele>4.8</ele><time>2022-11-10T16:08:11.0000000+00:00</time></trkpt><trkpt lat="39.42333617" lon="-0.37117666"><ele>4.8</ele><time>2022-11-10T16:08:12.0000000+00:00</time></trkpt><trkpt lat="39.42328789" lon="-0.37121379"><ele>4.8</ele><time>2022-11-10T16:08:13.0000000+00:00</time></trkpt><trkpt lat="39.42323802" lon="-0.37125167"><ele>4.8</ele><time>2022-11-10T16:08:14.0000000+00:00</time></trkpt><trkpt lat="39.42319678" lon="-0.3712816"><ele>4.8</ele><time>2022-11-10T16:08:15.0000000+00:00</time></trkpt><trkpt lat="39.42314205" lon="-0.37132393"><ele>4.8</ele><time>2022-11-10T16:08:16.0000000+00:00</time></trkpt><trkpt lat="39.42307851" lon="-0.37137204"><ele>5.0</ele><time>2022-11-10T16:08:17.0000000+00:00</time></trkpt><trkpt lat="39.42302495" lon="-0.37141495"><ele>5.0</ele><time>2022-11-10T16:08:18.0000000+00:00</time></trkpt><trkpt lat="39.42297357" lon="-0.37145435"><ele>5.0</ele><time>2022-11-10T16:08:19.0000000+00:00</time></trkpt><trkpt lat="39.42292311" lon="-0.37149802"><ele>5.2</ele><time>2022-11-10T16:08:20.0000000+00:00</time></trkpt><trkpt lat="39.42287441" lon="-0.3715442"><ele>5.2</ele><time>2022-11-10T16:08:21.0000000+00:00</time></trkpt><trkpt lat="39.42282437" lon="-0.37158603"><ele>5.2</ele><time>2022-11-10T16:08:22.0000000+00:00</time></trkpt><trkpt lat="39.42277475" lon="-0.37162718"><ele>5.2</ele><time>2022-11-10T16:08:23.0000000+00:00</time></trkpt><trkpt lat="39.42272387" lon="-0.37166515"><ele>5.2</ele><time>2022-11-10T16:08:24.0000000+00:00</time></trkpt><trkpt lat="39.42267207" lon="-0.37170187"><ele>5.2</ele><time>2022-11-10T16:08:25.0000000+00:00</time></trkpt><trkpt lat="39.42262597" lon="-0.3717473"><ele>5.2</ele><time>2022-11-10T16:08:26.0000000+00:00</time></trkpt><trkpt lat="39.42259035" lon="-0.37180044"><ele>5.2</ele><time>2022-11-10T16:08:27.0000000+00:00</time></trkpt><trkpt lat="39.422573" lon="-0.37184914"><ele>5.2</ele><time>2022-11-10T16:08:28.0000000+00:00</time></trkpt><trkpt lat="39.42255557" lon="-0.3719327"><ele>5.2</ele><time>2022-11-10T16:08:29.0000000+00:00</time></trkpt><trkpt lat="39.42254081" lon="-0.37200848"><ele>5.2</ele><time>2022-11-10T16:08:30.0000000+00:00</time></trkpt><trkpt lat="39.42252195" lon="-0.37207612"><ele>5.2</ele><time>2022-11-10T16:08:31.0000000+00:00</time></trkpt><trkpt lat="39.42249295" lon="-0.37213127"><ele>5.2</ele><time>2022-11-10T16:08:32.0000000+00:00</time></trkpt><trkpt lat="39.42245146" lon="-0.37216933"><ele>5.2</ele><time>2022-11-10T16:08:33.0000000+00:00</time></trkpt><trkpt lat="39.42239908" lon="-0.37218089"><ele>5.2</ele><time>2022-11-10T16:08:34.0000000+00:00</time></trkpt><trkpt lat="39.42234099" lon="-0.37216715"><ele>5.2</ele><time>2022-11-10T16:08:35.0000000+00:00</time></trkpt><trkpt lat="39.42228005" lon="-0.37214359"><ele>5.2</ele><time>2022-11-10T16:08:36.0000000+00:00</time></trkpt><trkpt lat="39.4222166" lon="-0.37212457"><ele>5.2</ele><time>2022-11-10T16:08:37.0000000+00:00</time></trkpt><trkpt lat="39.42215122" lon="-0.37212323"><ele>5.2</ele><time>2022-11-10T16:08:38.0000000+00:00</time></trkpt><trkpt lat="39.42208886" lon="-0.37214544"><ele>5.2</ele><time>2022-11-10T16:08:39.0000000+00:00</time></trkpt><trkpt lat="39.42202826" lon="-0.37217905"><ele>5.2</ele><time>2022-11-10T16:08:40.0000000+00:00</time></trkpt><trkpt lat="39.42196691" lon="-0.37221568"><ele>5.2</ele><time>2022-11-10T16:08:41.0000000+00:00</time></trkpt><trkpt lat="39.42190597" lon="-0.37225407"><ele>5.0</ele><time>2022-11-10T16:08:42.0000000+00:00</time></trkpt><trkpt lat="39.42184696" lon="-0.37229539"><ele>5.2</ele><time>2022-11-10T16:08:43.0000000+00:00</time></trkpt><trkpt lat="39.42178996" lon="-0.37233688"><ele>5.2</ele><time>2022-11-10T16:08:44.0000000+00:00</time></trkpt><trkpt lat="39.4217323" lon="-0.37237745"><ele>5.2</ele><time>2022-11-10T16:08:45.0000000+00:00</time></trkpt><trkpt lat="39.42167312" lon="-0.37241693"><ele>5.2</ele><time>2022-11-10T16:08:46.0000000+00:00</time></trkpt><trkpt lat="39.42161243" lon="-0.3724549"><ele>5.0</ele><time>2022-11-10T16:08:47.0000000+00:00</time></trkpt><trkpt lat="39.42155301" lon="-0.37248985"><ele>5.0</ele><time>2022-11-10T16:08:48.0000000+00:00</time></trkpt><trkpt lat="39.42149165" lon="-0.37252547"><ele>4.8</ele><time>2022-11-10T16:08:49.0000000+00:00</time></trkpt><trkpt lat="39.42143172" lon="-0.37256462"><ele>4.8</ele><time>2022-11-10T16:08:50.0000000+00:00</time></trkpt><trkpt lat="39.42137481" lon="-0.37260636"><ele>4.8</ele><time>2022-11-10T16:08:51.0000000+00:00</time></trkpt><trkpt lat="39.42132829" lon="-0.37264072"><ele>4.8</ele><time>2022-11-10T16:08:52.0000000+00:00</time></trkpt><trkpt lat="39.42126014" lon="-0.37269336"><ele>5.2</ele><time>2022-11-10T16:08:53.0000000+00:00</time></trkpt><trkpt lat="39.42120348" lon="-0.37273728"><ele>5.4</ele><time>2022-11-10T16:08:54.0000000+00:00</time></trkpt><trkpt lat="39.42114615" lon="-0.37278104"><ele>5.4</ele><time>2022-11-10T16:08:55.0000000+00:00</time></trkpt><trkpt lat="39.4210894" lon="-0.37282898"><ele>5.6</ele><time>2022-11-10T16:08:56.0000000+00:00</time></trkpt><trkpt lat="39.42103299" lon="-0.37287827"><ele>5.6</ele><time>2022-11-10T16:08:57.0000000+00:00</time></trkpt><trkpt lat="39.42097231" lon="-0.37293091"><ele>5.6</ele><time>2022-11-10T16:08:58.0000000+00:00</time></trkpt><trkpt lat="39.42092009" lon="-0.37298145"><ele>5.6</ele><time>2022-11-10T16:08:59.0000000+00:00</time></trkpt><trkpt lat="39.42086586" lon="-0.37303266"><ele>5.6</ele><time>2022-11-10T16:09:00.0000000+00:00</time></trkpt><trkpt lat="39.42081255" lon="-0.37308605"><ele>5.4</ele><time>2022-11-10T16:09:01.0000000+00:00</time></trkpt><trkpt lat="39.4207605" lon="-0.37314096"><ele>5.2</ele><time>2022-11-10T16:09:02.0000000+00:00</time></trkpt><trkpt lat="39.42071012" lon="-0.37319468"><ele>5.0</ele><time>2022-11-10T16:09:03.0000000+00:00</time></trkpt><trkpt lat="39.42066067" lon="-0.37324992"><ele>4.8</ele><time>2022-11-10T16:09:04.0000000+00:00</time></trkpt><trkpt lat="39.42061138" lon="-0.373306"><ele>4.8</ele><time>2022-11-10T16:09:05.0000000+00:00</time></trkpt><trkpt lat="39.42056009" lon="-0.37336324"><ele>4.8</ele><time>2022-11-10T16:09:06.0000000+00:00</time></trkpt><trkpt lat="39.42050837" lon="-0.37342074"><ele>4.8</ele><time>2022-11-10T16:09:07.0000000+00:00</time></trkpt><trkpt lat="39.42050837" lon="-0.37342074"><ele>4.8</ele><time>2022-11-10T16:09:08.0000000+00:00</time></trkpt><trkpt lat="39.42040402" lon="-0.37352736"><ele>4.8</ele><time>2022-11-10T16:09:09.0000000+00:00</time></trkpt><trkpt lat="39.4203487" lon="-0.37357422"><ele>4.8</ele><time>2022-11-10T16:09:10.0000000+00:00</time></trkpt><trkpt lat="39.42029187" lon="-0.37362199"><ele>4.8</ele><time>2022-11-10T16:09:11.0000000+00:00</time></trkpt><trkpt lat="39.42023546" lon="-0.37366508"><ele>4.8</ele><time>2022-11-10T16:09:12.0000000+00:00</time></trkpt><trkpt lat="39.4201777" lon="-0.3737074"><ele>4.8</ele><time>2022-11-10T16:09:13.0000000+00:00</time></trkpt><trkpt lat="39.42012087" lon="-0.37374973"><ele>4.8</ele><time>2022-11-10T16:09:14.0000000+00:00</time></trkpt><trkpt lat="39.42006539" lon="-0.37379726"><ele>4.8</ele><time>2022-11-10T16:09:15.0000000+00:00</time></trkpt><trkpt lat="39.42000755" lon="-0.37384445"><ele>4.6</ele><time>2022-11-10T16:09:16.0000000+00:00</time></trkpt><trkpt lat="39.41994997" lon="-0.3738908"><ele>4.6</ele><time>2022-11-10T16:09:17.0000000+00:00</time></trkpt><trkpt lat="39.41989255" lon="-0.37393925"><ele>4.4</ele><time>2022-11-10T16:09:18.0000000+00:00</time></trkpt><trkpt lat="39.41983379" lon="-0.37398443"><ele>4.4</ele><time>2022-11-10T16:09:19.0000000+00:00</time></trkpt><trkpt lat="39.41977361" lon="-0.37402935"><ele>4.4</ele><time>2022-11-10T16:09:20.0000000+00:00</time></trkpt><trkpt lat="39.41971192" lon="-0.37407872"><ele>4.4</ele><time>2022-11-10T16:09:21.0000000+00:00</time></trkpt><trkpt lat="39.41965048" lon="-0.37412767"><ele>4.4</ele><time>2022-11-10T16:09:22.0000000+00:00</time></trkpt><trkpt lat="39.41959089" lon="-0.37417587"><ele>4.4</ele><time>2022-11-10T16:09:23.0000000+00:00</time></trkpt><trkpt lat="39.41953062" lon="-0.37422147"><ele>4.4</ele><time>2022-11-10T16:09:24.0000000+00:00</time></trkpt><trkpt lat="39.41947019" lon="-0.37427008"><ele>4.4</ele><time>2022-11-10T16:09:25.0000000+00:00</time></trkpt><trkpt lat="39.41941135" lon="-0.37431895"><ele>4.4</ele><time>2022-11-10T16:09:26.0000000+00:00</time></trkpt><trkpt lat="39.41935158" lon="-0.37436689"><ele>4.4</ele><time>2022-11-10T16:09:27.0000000+00:00</time></trkpt><trkpt lat="39.41929358" lon="-0.37441576"><ele>4.4</ele><time>2022-11-10T16:09:28.0000000+00:00</time></trkpt><trkpt lat="39.4192365" lon="-0.37446236"><ele>4.2</ele><time>2022-11-10T16:09:29.0000000+00:00</time></trkpt><trkpt lat="39.41917934" lon="-0.37450595"><ele>4.2</ele><time>2022-11-10T16:09:30.0000000+00:00</time></trkpt><trkpt lat="39.41912351" lon="-0.37454719"><ele>4.2</ele><time>2022-11-10T16:09:31.0000000+00:00</time></trkpt><trkpt lat="39.41907054" lon="-0.37458197"><ele>4.2</ele><time>2022-11-10T16:09:32.0000000+00:00</time></trkpt><trkpt lat="39.41902536" lon="-0.37461114"><ele>4.2</ele><time>2022-11-10T16:09:33.0000000+00:00</time></trkpt><trkpt lat="39.41898865" lon="-0.37463796"><ele>4.2</ele><time>2022-11-10T16:09:34.0000000+00:00</time></trkpt><trkpt lat="39.41896082" lon="-0.37465867"><ele>4.2</ele><time>2022-11-10T16:09:35.0000000+00:00</time></trkpt><trkpt lat="39.41894196" lon="-0.37467577"><ele>4.2</ele><time>2022-11-10T16:09:36.0000000+00:00</time></trkpt><trkpt lat="39.41892671" lon="-0.37469253"><ele>4.2</ele><time>2022-11-10T16:09:37.0000000+00:00</time></trkpt><trkpt lat="39.41890525" lon="-0.37471315"><ele>4.2</ele><time>2022-11-10T16:09:38.0000000+00:00</time></trkpt><trkpt lat="39.41887432" lon="-0.37474156"><ele>4.2</ele><time>2022-11-10T16:09:39.0000000+00:00</time></trkpt><trkpt lat="39.41884087" lon="-0.37476897"><ele>4.2</ele><time>2022-11-10T16:09:40.0000000+00:00</time></trkpt><trkpt lat="39.418805" lon="-0.37479362"><ele>4.2</ele><time>2022-11-10T16:09:41.0000000+00:00</time></trkpt><trkpt lat="39.41876452" lon="-0.37481457"><ele>4.2</ele><time>2022-11-10T16:09:42.0000000+00:00</time></trkpt><trkpt lat="39.41871665" lon="-0.374832"><ele>4.4</ele><time>2022-11-10T16:09:43.0000000+00:00</time></trkpt><trkpt lat="39.41866628" lon="-0.37484533"><ele>4.4</ele><time>2022-11-10T16:09:44.0000000+00:00</time></trkpt><trkpt lat="39.41861423" lon="-0.37486084"><ele>4.4</ele><time>2022-11-10T16:09:45.0000000+00:00</time></trkpt><trkpt lat="39.41855866" lon="-0.37487836"><ele>4.4</ele><time>2022-11-10T16:09:46.0000000+00:00</time></trkpt><trkpt lat="39.41850258" lon="-0.37489831"><ele>4.2</ele><time>2022-11-10T16:09:47.0000000+00:00</time></trkpt><trkpt lat="39.41844852" lon="-0.37491976"><ele>4.2</ele><time>2022-11-10T16:09:48.0000000+00:00</time></trkpt><trkpt lat="39.41839546" lon="-0.37493971"><ele>4.2</ele><time>2022-11-10T16:09:49.0000000+00:00</time></trkpt><trkpt lat="39.41833905" lon="-0.37496327"><ele>4.0</ele><time>2022-11-10T16:09:50.0000000+00:00</time></trkpt><trkpt lat="39.41828038" lon="-0.37498766"><ele>4.2</ele><time>2022-11-10T16:09:51.0000000+00:00</time></trkpt><trkpt lat="39.41822212" lon="-0.37501289"><ele>4.2</ele><time>2022-11-10T16:09:52.0000000+00:00</time></trkpt><trkpt lat="39.41816144" lon="-0.37503476"><ele>4.2</ele><time>2022-11-10T16:09:53.0000000+00:00</time></trkpt><trkpt lat="39.41809966" lon="-0.37506041"><ele>4.2</ele><time>2022-11-10T16:09:54.0000000+00:00</time></trkpt><trkpt lat="39.41803881" lon="-0.37508573"><ele>4.2</ele><time>2022-11-10T16:09:55.0000000+00:00</time></trkpt><trkpt lat="39.41797804" lon="-0.37511095"><ele>4.2</ele><time>2022-11-10T16:09:56.0000000+00:00</time></trkpt><trkpt lat="39.41791568" lon="-0.37513459"><ele>4.2</ele><time>2022-11-10T16:09:57.0000000+00:00</time></trkpt><trkpt lat="39.41785122" lon="-0.37515865"><ele>4.2</ele><time>2022-11-10T16:09:58.0000000+00:00</time></trkpt><trkpt lat="39.41778417" lon="-0.3751822"><ele>4.2</ele><time>2022-11-10T16:09:59.0000000+00:00</time></trkpt><trkpt lat="39.41771577" lon="-0.37520601"><ele>4.2</ele><time>2022-11-10T16:10:00.0000000+00:00</time></trkpt><trkpt lat="39.41764947" lon="-0.37523098"><ele>4.0</ele><time>2022-11-10T16:10:01.0000000+00:00</time></trkpt><trkpt lat="39.41758392" lon="-0.37525512"><ele>4.0</ele><time>2022-11-10T16:10:02.0000000+00:00</time></trkpt><trkpt lat="39.41751947" lon="-0.37528086"><ele>4.0</ele><time>2022-11-10T16:10:03.0000000+00:00</time></trkpt><trkpt lat="39.41745635" lon="-0.37530717"><ele>4.0</ele><time>2022-11-10T16:10:04.0000000+00:00</time></trkpt><trkpt lat="39.417396" lon="-0.37533316"><ele>3.8</ele><time>2022-11-10T16:10:05.0000000+00:00</time></trkpt><trkpt lat="39.41733523" lon="-0.37535705"><ele>3.6</ele><time>2022-11-10T16:10:06.0000000+00:00</time></trkpt><trkpt lat="39.41727731" lon="-0.37538244"><ele>3.6</ele><time>2022-11-10T16:10:07.0000000+00:00</time></trkpt><trkpt lat="39.41722359" lon="-0.37540776"><ele>3.4</ele><time>2022-11-10T16:10:08.0000000+00:00</time></trkpt><trkpt lat="39.41718017" lon="-0.37543248"><ele>3.4</ele><time>2022-11-10T16:10:09.0000000+00:00</time></trkpt><trkpt lat="39.417152" lon="-0.37546014"><ele>3.4</ele><time>2022-11-10T16:10:10.0000000+00:00</time></trkpt><trkpt lat="39.4171308" lon="-0.3754873"><ele>3.4</ele><time>2022-11-10T16:10:11.0000000+00:00</time></trkpt><trkpt lat="39.41711269" lon="-0.37551421"><ele>3.4</ele><time>2022-11-10T16:10:12.0000000+00:00</time></trkpt><trkpt lat="39.41709551" lon="-0.37553751"><ele>3.4</ele><time>2022-11-10T16:10:13.0000000+00:00</time></trkpt><trkpt lat="39.41708269" lon="-0.37556098"><ele>3.4</ele><time>2022-11-10T16:10:14.0000000+00:00</time></trkpt><trkpt lat="39.4170707" lon="-0.37558252"><ele>3.4</ele><time>2022-11-10T16:10:15.0000000+00:00</time></trkpt><trkpt lat="39.41706006" lon="-0.37559945"><ele>3.4</ele><time>2022-11-10T16:10:16.0000000+00:00</time></trkpt><trkpt lat="39.4170536" lon="-0.37561278"><ele>3.4</ele><time>2022-11-10T16:10:17.0000000+00:00</time></trkpt><trkpt lat="39.41705109" lon="-0.37562762"><ele>3.4</ele><time>2022-11-10T16:10:18.0000000+00:00</time></trkpt><trkpt lat="39.41704933" lon="-0.37564245"><ele>3.4</ele><time>2022-11-10T16:10:19.0000000+00:00</time></trkpt><trkpt lat="39.41704446" lon="-0.37565041"><ele>3.4</ele><time>2022-11-10T16:10:20.0000000+00:00</time></trkpt><trkpt lat="39.41703214" lon="-0.3756567"><ele>3.4</ele><time>2022-11-10T16:10:21.0000000+00:00</time></trkpt><trkpt lat="39.41701613" lon="-0.3756588"><ele>3.2</ele><time>2022-11-10T16:10:22.0000000+00:00</time></trkpt><trkpt lat="39.41699585" lon="-0.37565544"><ele>3.2</ele><time>2022-11-10T16:10:23.0000000+00:00</time></trkpt><trkpt lat="39.4169728" lon="-0.37564212"><ele>3.0</ele><time>2022-11-10T16:10:24.0000000+00:00</time></trkpt><trkpt lat="39.41694967" lon="-0.37562359"><ele>3.0</ele><time>2022-11-10T16:10:25.0000000+00:00</time></trkpt><trkpt lat="39.41692469" lon="-0.37560004"><ele>3.0</ele><time>2022-11-10T16:10:26.0000000+00:00</time></trkpt><trkpt lat="39.41689351" lon="-0.37557724"><ele>3.0</ele><time>2022-11-10T16:10:27.0000000+00:00</time></trkpt><trkpt lat="39.41685537" lon="-0.375564"><ele>3.2</ele><time>2022-11-10T16:10:28.0000000+00:00</time></trkpt><trkpt lat="39.41680902" lon="-0.37556819"><ele>3.2</ele><time>2022-11-10T16:10:29.0000000+00:00</time></trkpt><trkpt lat="39.41675931" lon="-0.37557783"><ele>3.2</ele><time>2022-11-10T16:10:30.0000000+00:00</time></trkpt><trkpt lat="39.41671112" lon="-0.37558763"><ele>3.2</ele><time>2022-11-10T16:10:31.0000000+00:00</time></trkpt><trkpt lat="39.41665496" lon="-0.37560063"><ele>3.2</ele><time>2022-11-10T16:10:32.0000000+00:00</time></trkpt><trkpt lat="39.41660391" lon="-0.37561714"><ele>3.2</ele><time>2022-11-10T16:10:33.0000000+00:00</time></trkpt><trkpt lat="39.41655278" lon="-0.3756344"><ele>3.2</ele><time>2022-11-10T16:10:34.0000000+00:00</time></trkpt><trkpt lat="39.41650417" lon="-0.37565754"><ele>3.2</ele><time>2022-11-10T16:10:35.0000000+00:00</time></trkpt><trkpt lat="39.41645564" lon="-0.37568478"><ele>3.2</ele><time>2022-11-10T16:10:36.0000000+00:00</time></trkpt><trkpt lat="39.41640937" lon="-0.37571143"><ele>3.2</ele><time>2022-11-10T16:10:37.0000000+00:00</time></trkpt><trkpt lat="39.41636235" lon="-0.37573532"><ele>3.0</ele><time>2022-11-10T16:10:38.0000000+00:00</time></trkpt><trkpt lat="39.41631708" lon="-0.37575888"><ele>3.0</ele><time>2022-11-10T16:10:39.0000000+00:00</time></trkpt><trkpt lat="39.41627316" lon="-0.37578293"><ele>2.8</ele><time>2022-11-10T16:10:40.0000000+00:00</time></trkpt><trkpt lat="39.41623075" lon="-0.37580799"><ele>2.8</ele><time>2022-11-10T16:10:41.0000000+00:00</time></trkpt><trkpt lat="39.41618834" lon="-0.37583465"><ele>2.8</ele><time>2022-11-10T16:10:42.0000000+00:00</time></trkpt><trkpt lat="39.41614358" lon="-0.37586072"><ele>3.0</ele><time>2022-11-10T16:10:43.0000000+00:00</time></trkpt><trkpt lat="39.41609044" lon="-0.37588033"><ele>3.0</ele><time>2022-11-10T16:10:44.0000000+00:00</time></trkpt><trkpt lat="39.41603554" lon="-0.37589776"><ele>3.2</ele><time>2022-11-10T16:10:45.0000000+00:00</time></trkpt><trkpt lat="39.4159798" lon="-0.37591629"><ele>3.2</ele><time>2022-11-10T16:10:46.0000000+00:00</time></trkpt><trkpt lat="39.41592372" lon="-0.37593439"><ele>3.2</ele><time>2022-11-10T16:10:47.0000000+00:00</time></trkpt><trkpt lat="39.41586874" lon="-0.3759494"><ele>3.4</ele><time>2022-11-10T16:10:48.0000000+00:00</time></trkpt><trkpt lat="39.4158135" lon="-0.37596582"><ele>3.4</ele><time>2022-11-10T16:10:49.0000000+00:00</time></trkpt><trkpt lat="39.41575508" lon="-0.37597882"><ele>3.2</ele><time>2022-11-10T16:10:50.0000000+00:00</time></trkpt><trkpt lat="39.41569842" lon="-0.37599097"><ele>3.2</ele><time>2022-11-10T16:10:51.0000000+00:00</time></trkpt><trkpt lat="39.41564377" lon="-0.37600111"><ele>3.2</ele><time>2022-11-10T16:10:52.0000000+00:00</time></trkpt><trkpt lat="39.41559012" lon="-0.37601025"><ele>3.2</ele><time>2022-11-10T16:10:53.0000000+00:00</time></trkpt><trkpt lat="39.41553312" lon="-0.37601662"><ele>3.2</ele><time>2022-11-10T16:10:54.0000000+00:00</time></trkpt><trkpt lat="39.41547219" lon="-0.3760281"><ele>3.2</ele><time>2022-11-10T16:10:55.0000000+00:00</time></trkpt><trkpt lat="39.41541628" lon="-0.37604051"><ele>3.2</ele><time>2022-11-10T16:10:56.0000000+00:00</time></trkpt><trkpt lat="39.41536205" lon="-0.37605342"><ele>3.2</ele><time>2022-11-10T16:10:57.0000000+00:00</time></trkpt><trkpt lat="39.41530463" lon="-0.37606238"><ele>3.2</ele><time>2022-11-10T16:10:58.0000000+00:00</time></trkpt><trkpt lat="39.41524663" lon="-0.37607228"><ele>3.2</ele><time>2022-11-10T16:10:59.0000000+00:00</time></trkpt><trkpt lat="39.41518871" lon="-0.37608342"><ele>3.2</ele><time>2022-11-10T16:11:00.0000000+00:00</time></trkpt><trkpt lat="39.41513037" lon="-0.37609574"><ele>3.2</ele><time>2022-11-10T16:11:01.0000000+00:00</time></trkpt><trkpt lat="39.41506977" lon="-0.37610396"><ele>3.2</ele><time>2022-11-10T16:11:02.0000000+00:00</time></trkpt><trkpt lat="39.41501185" lon="-0.37611234"><ele>3.2</ele><time>2022-11-10T16:11:03.0000000+00:00</time></trkpt><trkpt lat="39.41495419" lon="-0.37611955"><ele>3.4</ele><time>2022-11-10T16:11:04.0000000+00:00</time></trkpt><trkpt lat="39.41489493" lon="-0.37612416"><ele>3.6</ele><time>2022-11-10T16:11:05.0000000+00:00</time></trkpt><trkpt lat="39.41483583" lon="-0.37612986"><ele>3.8</ele><time>2022-11-10T16:11:06.0000000+00:00</time></trkpt><trkpt lat="39.41477884" lon="-0.37613891"><ele>4.0</ele><time>2022-11-10T16:11:07.0000000+00:00</time></trkpt><trkpt lat="39.41471882" lon="-0.37614679"><ele>4.0</ele><time>2022-11-10T16:11:08.0000000+00:00</time></trkpt><trkpt lat="39.41465185" lon="-0.37615383"><ele>4.0</ele><time>2022-11-10T16:11:09.0000000+00:00</time></trkpt><trkpt lat="39.41458555" lon="-0.37615978"><ele>4.0</ele><time>2022-11-10T16:11:10.0000000+00:00</time></trkpt><trkpt lat="39.41452411" lon="-0.37616707"><ele>4.2</ele><time>2022-11-10T16:11:11.0000000+00:00</time></trkpt><trkpt lat="39.41445655" lon="-0.37617965"><ele>4.0</ele><time>2022-11-10T16:11:12.0000000+00:00</time></trkpt><trkpt lat="39.41438505" lon="-0.37618543"><ele>4.0</ele><time>2022-11-10T16:11:13.0000000+00:00</time></trkpt><trkpt lat="39.41431666" lon="-0.3761882"><ele>4.0</ele><time>2022-11-10T16:11:14.0000000+00:00</time></trkpt><trkpt lat="39.4142491" lon="-0.37619063"><ele>4.0</ele><time>2022-11-10T16:11:15.0000000+00:00</time></trkpt><trkpt lat="39.41418146" lon="-0.37619415"><ele>4.0</ele><time>2022-11-10T16:11:16.0000000+00:00</time></trkpt><trkpt lat="39.41411373" lon="-0.37619717"><ele>4.0</ele><time>2022-11-10T16:11:17.0000000+00:00</time></trkpt><trkpt lat="39.41404793" lon="-0.37619507"><ele>4.2</ele><time>2022-11-10T16:11:18.0000000+00:00</time></trkpt><trkpt lat="39.41398281" lon="-0.37619038"><ele>4.2</ele><time>2022-11-10T16:11:19.0000000+00:00</time></trkpt><trkpt lat="39.41392036" lon="-0.37618401"><ele>4.2</ele><time>2022-11-10T16:11:20.0000000+00:00</time></trkpt><trkpt lat="39.41386186" lon="-0.37617973"><ele>4.2</ele><time>2022-11-10T16:11:21.0000000+00:00</time></trkpt><trkpt lat="39.41380587" lon="-0.37617772"><ele>4.0</ele><time>2022-11-10T16:11:22.0000000+00:00</time></trkpt><trkpt lat="39.41374761" lon="-0.37617495"><ele>3.8</ele><time>2022-11-10T16:11:23.0000000+00:00</time></trkpt><trkpt lat="39.41368869" lon="-0.37617361"><ele>3.6</ele><time>2022-11-10T16:11:24.0000000+00:00</time></trkpt><trkpt lat="39.41362993" lon="-0.37617965"><ele>3.6</ele><time>2022-11-10T16:11:25.0000000+00:00</time></trkpt><trkpt lat="39.41356975" lon="-0.37618711"><ele>3.6</ele><time>2022-11-10T16:11:26.0000000+00:00</time></trkpt><trkpt lat="39.41351158" lon="-0.3761918"><ele>3.6</ele><time>2022-11-10T16:11:27.0000000+00:00</time></trkpt><trkpt lat="39.41345458" lon="-0.37619784"><ele>3.6</ele><time>2022-11-10T16:11:28.0000000+00:00</time></trkpt><trkpt lat="39.41339565" lon="-0.37620354"><ele>3.6</ele><time>2022-11-10T16:11:29.0000000+00:00</time></trkpt><trkpt lat="39.41333606" lon="-0.37620898"><ele>3.6</ele><time>2022-11-10T16:11:30.0000000+00:00</time></trkpt><trkpt lat="39.41327739" lon="-0.37621192"><ele>3.6</ele><time>2022-11-10T16:11:31.0000000+00:00</time></trkpt><trkpt lat="39.41321519" lon="-0.37621234"><ele>3.6</ele><time>2022-11-10T16:11:32.0000000+00:00</time></trkpt><trkpt lat="39.41315585" lon="-0.37621535"><ele>3.6</ele><time>2022-11-10T16:11:33.0000000+00:00</time></trkpt><trkpt lat="39.41309508" lon="-0.37622038"><ele>3.8</ele><time>2022-11-10T16:11:34.0000000+00:00</time></trkpt><trkpt lat="39.41303724" lon="-0.37623187"><ele>3.8</ele><time>2022-11-10T16:11:35.0000000+00:00</time></trkpt><trkpt lat="39.41297941" lon="-0.37624746"><ele>3.8</ele><time>2022-11-10T16:11:36.0000000+00:00</time></trkpt><trkpt lat="39.41292367" lon="-0.37626632"><ele>3.8</ele><time>2022-11-10T16:11:37.0000000+00:00</time></trkpt><trkpt lat="39.41286567" lon="-0.37628761"><ele>4.0</ele><time>2022-11-10T16:11:38.0000000+00:00</time></trkpt><trkpt lat="39.41280926" lon="-0.37631015"><ele>4.0</ele><time>2022-11-10T16:11:39.0000000+00:00</time></trkpt><trkpt lat="39.41275368" lon="-0.37633362"><ele>4.0</ele><time>2022-11-10T16:11:40.0000000+00:00</time></trkpt><trkpt lat="39.41269677" lon="-0.37635659"><ele>4.0</ele><time>2022-11-10T16:11:41.0000000+00:00</time></trkpt><trkpt lat="39.41264095" lon="-0.37638014"><ele>4.0</ele><time>2022-11-10T16:11:42.0000000+00:00</time></trkpt><trkpt lat="39.41258437" lon="-0.37640328"><ele>4.0</ele><time>2022-11-10T16:11:43.0000000+00:00</time></trkpt><trkpt lat="39.4125283" lon="-0.37642842"><ele>4.0</ele><time>2022-11-10T16:11:44.0000000+00:00</time></trkpt><trkpt lat="39.41247239" lon="-0.37645399"><ele>4.0</ele><time>2022-11-10T16:11:45.0000000+00:00</time></trkpt><trkpt lat="39.41241975" lon="-0.37648148"><ele>4.0</ele><time>2022-11-10T16:11:46.0000000+00:00</time></trkpt><trkpt lat="39.4123703" lon="-0.37650939"><ele>3.8</ele><time>2022-11-10T16:11:47.0000000+00:00</time></trkpt><trkpt lat="39.41231892" lon="-0.37653697"><ele>3.8</ele><time>2022-11-10T16:11:48.0000000+00:00</time></trkpt><trkpt lat="39.41226628" lon="-0.37656345"><ele>3.8</ele><time>2022-11-10T16:11:49.0000000+00:00</time></trkpt><trkpt lat="39.41220995" lon="-0.3765917"><ele>3.8</ele><time>2022-11-10T16:11:50.0000000+00:00</time></trkpt><trkpt lat="39.41215237" lon="-0.37662121"><ele>3.6</ele><time>2022-11-10T16:11:51.0000000+00:00</time></trkpt><trkpt lat="39.41209311" lon="-0.37664979"><ele>3.6</ele><time>2022-11-10T16:11:52.0000000+00:00</time></trkpt><trkpt lat="39.41203418" lon="-0.37668047"><ele>3.6</ele><time>2022-11-10T16:11:53.0000000+00:00</time></trkpt><trkpt lat="39.41197903" lon="-0.37671223"><ele>3.4</ele><time>2022-11-10T16:11:54.0000000+00:00</time></trkpt><trkpt lat="39.41192388" lon="-0.37674543"><ele>3.4</ele><time>2022-11-10T16:11:55.0000000+00:00</time></trkpt><trkpt lat="39.41192388" lon="-0.37674543"><ele>3.4</ele><time>2022-11-10T16:11:56.0000000+00:00</time></trkpt><trkpt lat="39.41181583" lon="-0.37680376"><ele>3.6</ele><time>2022-11-10T16:11:57.0000000+00:00</time></trkpt><trkpt lat="39.41176035" lon="-0.37683352"><ele>3.6</ele><time>2022-11-10T16:11:58.0000000+00:00</time></trkpt><trkpt lat="39.41170427" lon="-0.37686579"><ele>3.6</ele><time>2022-11-10T16:11:59.0000000+00:00</time></trkpt><trkpt lat="39.41164543" lon="-0.37689814"><ele>3.6</ele><time>2022-11-10T16:12:00.0000000+00:00</time></trkpt><trkpt lat="39.411586" lon="-0.3769279"><ele>3.6</ele><time>2022-11-10T16:12:01.0000000+00:00</time></trkpt><trkpt lat="39.41152632" lon="-0.37695791"><ele>3.6</ele><time>2022-11-10T16:12:02.0000000+00:00</time></trkpt><trkpt lat="39.41146664" lon="-0.37698708"><ele>3.6</ele><time>2022-11-10T16:12:03.0000000+00:00</time></trkpt><trkpt lat="39.41140646" lon="-0.37701717"><ele>3.6</ele><time>2022-11-10T16:12:04.0000000+00:00</time></trkpt><trkpt lat="39.41134578" lon="-0.37704743"><ele>3.6</ele><time>2022-11-10T16:12:05.0000000+00:00</time></trkpt><trkpt lat="39.41128844" lon="-0.3770812"><ele>3.6</ele><time>2022-11-10T16:12:06.0000000+00:00</time></trkpt><trkpt lat="39.41123304" lon="-0.37711549"><ele>3.6</ele><time>2022-11-10T16:12:07.0000000+00:00</time></trkpt><trkpt lat="39.41117554" lon="-0.37715069"><ele>3.4</ele><time>2022-11-10T16:12:08.0000000+00:00</time></trkpt><trkpt lat="39.41111838" lon="-0.37718472"><ele>3.4</ele><time>2022-11-10T16:12:09.0000000+00:00</time></trkpt><trkpt lat="39.41105962" lon="-0.37721884"><ele>3.4</ele><time>2022-11-10T16:12:10.0000000+00:00</time></trkpt><trkpt lat="39.41100145" lon="-0.37725429"><ele>3.4</ele><time>2022-11-10T16:12:11.0000000+00:00</time></trkpt><trkpt lat="39.41094646" lon="-0.37729201"><ele>3.2</ele><time>2022-11-10T16:12:12.0000000+00:00</time></trkpt><trkpt lat="39.4108924" lon="-0.37733073"><ele>3.2</ele><time>2022-11-10T16:12:13.0000000+00:00</time></trkpt><trkpt lat="39.41084018" lon="-0.37737742"><ele>3.4</ele><time>2022-11-10T16:12:14.0000000+00:00</time></trkpt><trkpt lat="39.41078427" lon="-0.37742528"><ele>3.4</ele><time>2022-11-10T16:12:15.0000000+00:00</time></trkpt><trkpt lat="39.41073088" lon="-0.37747432"><ele>3.4</ele><time>2022-11-10T16:12:16.0000000+00:00</time></trkpt><trkpt lat="39.41067606" lon="-0.377521"><ele>3.6</ele><time>2022-11-10T16:12:17.0000000+00:00</time></trkpt><trkpt lat="39.41062217" lon="-0.37756668"><ele>3.6</ele><time>2022-11-10T16:12:18.0000000+00:00</time></trkpt><trkpt lat="39.4105712" lon="-0.37761262"><ele>3.6</ele><time>2022-11-10T16:12:19.0000000+00:00</time></trkpt><trkpt lat="39.41052351" lon="-0.37766232"><ele>3.6</ele><time>2022-11-10T16:12:20.0000000+00:00</time></trkpt><trkpt lat="39.41047397" lon="-0.37771144"><ele>3.6</ele><time>2022-11-10T16:12:21.0000000+00:00</time></trkpt><trkpt lat="39.41042603" lon="-0.37775863"><ele>3.6</ele><time>2022-11-10T16:12:22.0000000+00:00</time></trkpt><trkpt lat="39.41037691" lon="-0.37780448"><ele>3.4</ele><time>2022-11-10T16:12:23.0000000+00:00</time></trkpt><trkpt lat="39.41033542" lon="-0.37785167"><ele>3.4</ele><time>2022-11-10T16:12:24.0000000+00:00</time></trkpt><trkpt lat="39.4103003" lon="-0.37790372"><ele>3.4</ele><time>2022-11-10T16:12:25.0000000+00:00</time></trkpt><trkpt lat="39.41027273" lon="-0.37795854"><ele>3.4</ele><time>2022-11-10T16:12:26.0000000+00:00</time></trkpt><trkpt lat="39.41024775" lon="-0.37801679"><ele>3.4</ele><time>2022-11-10T16:12:27.0000000+00:00</time></trkpt><trkpt lat="39.41022813" lon="-0.37807404"><ele>3.4</ele><time>2022-11-10T16:12:28.0000000+00:00</time></trkpt><trkpt lat="39.41020617" lon="-0.37812877"><ele>3.4</ele><time>2022-11-10T16:12:29.0000000+00:00</time></trkpt><trkpt lat="39.41018421" lon="-0.37818074"><ele>3.4</ele><time>2022-11-10T16:12:30.0000000+00:00</time></trkpt><trkpt lat="39.41015873" lon="-0.37823489"><ele>3.4</ele><time>2022-11-10T16:12:31.0000000+00:00</time></trkpt><trkpt lat="39.41013392" lon="-0.37828971"><ele>3.4</ele><time>2022-11-10T16:12:32.0000000+00:00</time></trkpt><trkpt lat="39.41010618" lon="-0.37834226"><ele>3.6</ele><time>2022-11-10T16:12:33.0000000+00:00</time></trkpt><trkpt lat="39.41007785" lon="-0.37839255"><ele>3.6</ele><time>2022-11-10T16:12:34.0000000+00:00</time></trkpt><trkpt lat="39.41004843" lon="-0.37844352"><ele>3.6</ele><time>2022-11-10T16:12:35.0000000+00:00</time></trkpt><trkpt lat="39.41001959" lon="-0.37849247"><ele>3.6</ele><time>2022-11-10T16:12:36.0000000+00:00</time></trkpt><trkpt lat="39.40999076" lon="-0.37854175"><ele>3.6</ele><time>2022-11-10T16:12:37.0000000+00:00</time></trkpt><trkpt lat="39.4099688" lon="-0.37858995"><ele>3.6</ele><time>2022-11-10T16:12:38.0000000+00:00</time></trkpt><trkpt lat="39.40994432" lon="-0.37863437"><ele>3.6</ele><time>2022-11-10T16:12:39.0000000+00:00</time></trkpt><trkpt lat="39.40992052" lon="-0.37868299"><ele>3.6</ele><time>2022-11-10T16:12:40.0000000+00:00</time></trkpt><trkpt lat="39.40989889" lon="-0.3787321"><ele>3.4</ele><time>2022-11-10T16:12:41.0000000+00:00</time></trkpt><trkpt lat="39.40987794" lon="-0.3787741"><ele>3.4</ele><time>2022-11-10T16:12:42.0000000+00:00</time></trkpt><trkpt lat="39.40986402" lon="-0.37881274"><ele>3.4</ele><time>2022-11-10T16:12:43.0000000+00:00</time></trkpt><trkpt lat="39.40985346" lon="-0.37885012"><ele>3.4</ele><time>2022-11-10T16:12:44.0000000+00:00</time></trkpt><trkpt lat="39.40984315" lon="-0.37889119"><ele>3.4</ele><time>2022-11-10T16:12:45.0000000+00:00</time></trkpt><trkpt lat="39.40983192" lon="-0.37893025"><ele>3.2</ele><time>2022-11-10T16:12:46.0000000+00:00</time></trkpt><trkpt lat="39.40982027" lon="-0.3789673"><ele>3.2</ele><time>2022-11-10T16:12:47.0000000+00:00</time></trkpt><trkpt lat="39.40980854" lon="-0.37900318"><ele>3.0</ele><time>2022-11-10T16:12:48.0000000+00:00</time></trkpt><trkpt lat="39.40979236" lon="-0.37903729"><ele>3.0</ele><time>2022-11-10T16:12:49.0000000+00:00</time></trkpt><trkpt lat="39.40977006" lon="-0.37906839"><ele>3.0</ele><time>2022-11-10T16:12:50.0000000+00:00</time></trkpt><trkpt lat="39.40977006" lon="-0.37906839"><ele>3.0</ele><time>2022-11-10T16:12:51.0000000+00:00</time></trkpt><trkpt lat="39.40971357" lon="-0.37913494"><ele>2.8</ele><time>2022-11-10T16:12:52.0000000+00:00</time></trkpt><trkpt lat="39.4096782" lon="-0.37917006"><ele>2.8</ele><time>2022-11-10T16:12:53.0000000+00:00</time></trkpt><trkpt lat="39.40963998" lon="-0.37919713"><ele>2.8</ele><time>2022-11-10T16:12:54.0000000+00:00</time></trkpt><trkpt lat="39.40959865" lon="-0.37921876"><ele>2.6</ele><time>2022-11-10T16:12:55.0000000+00:00</time></trkpt><trkpt lat="39.40955582" lon="-0.37923552"><ele>2.6</ele><time>2022-11-10T16:12:56.0000000+00:00</time></trkpt><trkpt lat="39.40951048" lon="-0.37924717"><ele>2.6</ele><time>2022-11-10T16:12:57.0000000+00:00</time></trkpt><trkpt lat="39.40946211" lon="-0.37925882"><ele>2.6</ele><time>2022-11-10T16:12:58.0000000+00:00</time></trkpt><trkpt lat="39.409414" lon="-0.37927081"><ele>2.8</ele><time>2022-11-10T16:12:59.0000000+00:00</time></trkpt><trkpt lat="39.40936446" lon="-0.37928179"><ele>2.8</ele><time>2022-11-10T16:13:00.0000000+00:00</time></trkpt><trkpt lat="39.40931283" lon="-0.37929285"><ele>2.8</ele><time>2022-11-10T16:13:01.0000000+00:00</time></trkpt><trkpt lat="39.40925801" lon="-0.37930501"><ele>3.0</ele><time>2022-11-10T16:13:02.0000000+00:00</time></trkpt><trkpt lat="39.40920169" lon="-0.37931775"><ele>3.0</ele><time>2022-11-10T16:13:03.0000000+00:00</time></trkpt><trkpt lat="39.40914486" lon="-0.37933049"><ele>2.8</ele><time>2022-11-10T16:13:04.0000000+00:00</time></trkpt><trkpt lat="39.40908744" lon="-0.37934382"><ele>2.8</ele><time>2022-11-10T16:13:05.0000000+00:00</time></trkpt><trkpt lat="39.40903078" lon="-0.3793589"><ele>2.8</ele><time>2022-11-10T16:13:06.0000000+00:00</time></trkpt><trkpt lat="39.40896993" lon="-0.37937399"><ele>2.8</ele><time>2022-11-10T16:13:07.0000000+00:00</time></trkpt><trkpt lat="39.40891234" lon="-0.37939268"><ele>2.8</ele><time>2022-11-10T16:13:08.0000000+00:00</time></trkpt><trkpt lat="39.40885744" lon="-0.37940861"><ele>3.0</ele><time>2022-11-10T16:13:09.0000000+00:00</time></trkpt><trkpt lat="39.40880623" lon="-0.37942378"><ele>3.0</ele><time>2022-11-10T16:13:10.0000000+00:00</time></trkpt><trkpt lat="39.40875753" lon="-0.37943501"><ele>3.2</ele><time>2022-11-10T16:13:11.0000000+00:00</time></trkpt><trkpt lat="39.40870866" lon="-0.37944842"><ele>3.2</ele><time>2022-11-10T16:13:12.0000000+00:00</time></trkpt><trkpt lat="39.40866063" lon="-0.37946301"><ele>3.2</ele><time>2022-11-10T16:13:13.0000000+00:00</time></trkpt><trkpt lat="39.40861085" lon="-0.37947633"><ele>3.2</ele><time>2022-11-10T16:13:14.0000000+00:00</time></trkpt><trkpt lat="39.40855905" lon="-0.37949109"><ele>3.2</ele><time>2022-11-10T16:13:15.0000000+00:00</time></trkpt><trkpt lat="39.40850733" lon="-0.37951062"><ele>3.2</ele><time>2022-11-10T16:13:16.0000000+00:00</time></trkpt><trkpt lat="39.40845503" lon="-0.37953065"><ele>3.4</ele><time>2022-11-10T16:13:17.0000000+00:00</time></trkpt><trkpt lat="39.40840088" lon="-0.379549"><ele>3.4</ele><time>2022-11-10T16:13:18.0000000+00:00</time></trkpt><trkpt lat="39.40834715" lon="-0.37956644"><ele>3.4</ele><time>2022-11-10T16:13:19.0000000+00:00</time></trkpt><trkpt lat="39.40829141" lon="-0.37958136"><ele>3.6</ele><time>2022-11-10T16:13:20.0000000+00:00</time></trkpt><trkpt lat="39.40823223" lon="-0.37959578"><ele>3.6</ele><time>2022-11-10T16:13:21.0000000+00:00</time></trkpt><trkpt lat="39.40817641" lon="-0.37961237"><ele>3.6</ele><time>2022-11-10T16:13:22.0000000+00:00</time></trkpt><trkpt lat="39.40812545" lon="-0.37963601"><ele>3.8</ele><time>2022-11-10T16:13:23.0000000+00:00</time></trkpt><trkpt lat="39.40807398" lon="-0.37965805"><ele>3.8</ele><time>2022-11-10T16:13:24.0000000+00:00</time></trkpt><trkpt lat="39.40803241" lon="-0.37967758"><ele>3.8</ele><time>2022-11-10T16:13:25.0000000+00:00</time></trkpt><trkpt lat="39.4079926" lon="-0.37969611"><ele>3.8</ele><time>2022-11-10T16:13:26.0000000+00:00</time></trkpt><trkpt lat="39.40795211" lon="-0.37970994"><ele>3.6</ele><time>2022-11-10T16:13:27.0000000+00:00</time></trkpt><trkpt lat="39.40791247" lon="-0.37972293"><ele>3.4</ele><time>2022-11-10T16:13:28.0000000+00:00</time></trkpt><trkpt lat="39.40787567" lon="-0.3797329"><ele>3.4</ele><time>2022-11-10T16:13:29.0000000+00:00</time></trkpt><trkpt lat="39.40784373" lon="-0.37973735"><ele>3.4</ele><time>2022-11-10T16:13:30.0000000+00:00</time></trkpt><trkpt lat="39.40781322" lon="-0.37973215"><ele>3.4</ele><time>2022-11-10T16:13:31.0000000+00:00</time></trkpt><trkpt lat="39.40778062" lon="-0.37971874"><ele>3.2</ele><time>2022-11-10T16:13:32.0000000+00:00</time></trkpt><trkpt lat="39.40774583" lon="-0.37970482"><ele>3.2</ele><time>2022-11-10T16:13:33.0000000+00:00</time></trkpt><trkpt lat="39.40770937" lon="-0.37969192"><ele>3.2</ele><time>2022-11-10T16:13:34.0000000+00:00</time></trkpt><trkpt lat="39.4076745" lon="-0.37968429"><ele>3.0</ele><time>2022-11-10T16:13:35.0000000+00:00</time></trkpt><trkpt lat="39.4076393" lon="-0.37968379"><ele>2.8</ele><time>2022-11-10T16:13:36.0000000+00:00</time></trkpt><trkpt lat="39.40760443" lon="-0.37969007"><ele>2.8</ele><time>2022-11-10T16:13:37.0000000+00:00</time></trkpt><trkpt lat="39.40756897" lon="-0.37970156"><ele>2.6</ele><time>2022-11-10T16:13:38.0000000+00:00</time></trkpt><trkpt lat="39.4075336" lon="-0.37971413"><ele>2.6</ele><time>2022-11-10T16:13:39.0000000+00:00</time></trkpt><trkpt lat="39.40749857" lon="-0.37972813"><ele>2.6</ele><time>2022-11-10T16:13:40.0000000+00:00</time></trkpt><trkpt lat="39.40746001" lon="-0.37974078"><ele>2.6</ele><time>2022-11-10T16:13:41.0000000+00:00</time></trkpt><trkpt lat="39.40741701" lon="-0.37975034"><ele>2.6</ele><time>2022-11-10T16:13:42.0000000+00:00</time></trkpt><trkpt lat="39.40737066" lon="-0.37976291"><ele>2.8</ele><time>2022-11-10T16:13:43.0000000+00:00</time></trkpt><trkpt lat="39.40732003" lon="-0.37977523"><ele>2.8</ele><time>2022-11-10T16:13:44.0000000+00:00</time></trkpt><trkpt lat="39.40726957" lon="-0.37978655"><ele>2.8</ele><time>2022-11-10T16:13:45.0000000+00:00</time></trkpt><trkpt lat="39.40721937" lon="-0.37979753"><ele>2.8</ele><time>2022-11-10T16:13:46.0000000+00:00</time></trkpt><trkpt lat="39.4071684" lon="-0.37981153"><ele>2.8</ele><time>2022-11-10T16:13:47.0000000+00:00</time></trkpt><trkpt lat="39.4071166" lon="-0.37982552"><ele>2.8</ele><time>2022-11-10T16:13:48.0000000+00:00</time></trkpt><trkpt lat="39.4070643" lon="-0.37983952"><ele>2.6</ele><time>2022-11-10T16:13:49.0000000+00:00</time></trkpt><trkpt lat="39.40701183" lon="-0.37985251"><ele>2.6</ele><time>2022-11-10T16:13:50.0000000+00:00</time></trkpt><trkpt lat="39.40695961" lon="-0.37986777"><ele>2.4</ele><time>2022-11-10T16:13:51.0000000+00:00</time></trkpt><trkpt lat="39.4069037" lon="-0.37988696"><ele>2.4</ele><time>2022-11-10T16:13:52.0000000+00:00</time></trkpt><trkpt lat="39.40684838" lon="-0.37990381"><ele>2.4</ele><time>2022-11-10T16:13:53.0000000+00:00</time></trkpt><trkpt lat="39.40679574" lon="-0.37992166"><ele>2.2</ele><time>2022-11-10T16:13:54.0000000+00:00</time></trkpt><trkpt lat="39.40674109" lon="-0.37993893"><ele>2.2</ele><time>2022-11-10T16:13:55.0000000+00:00</time></trkpt><trkpt lat="39.40668586" lon="-0.37995083"><ele>2.2</ele><time>2022-11-10T16:13:56.0000000+00:00</time></trkpt><trkpt lat="39.40663188" lon="-0.37996274"><ele>2.2</ele><time>2022-11-10T16:13:57.0000000+00:00</time></trkpt><trkpt lat="39.40657513" lon="-0.37997623"><ele>2.2</ele><time>2022-11-10T16:13:58.0000000+00:00</time></trkpt><trkpt lat="39.4065178" lon="-0.37999107"><ele>2.4</ele><time>2022-11-10T16:13:59.0000000+00:00</time></trkpt><trkpt lat="39.40646181" lon="-0.38000758"><ele>2.4</ele><time>2022-11-10T16:14:00.0000000+00:00</time></trkpt><trkpt lat="39.40640666" lon="-0.38002443"><ele>2.4</ele><time>2022-11-10T16:14:01.0000000+00:00</time></trkpt><trkpt lat="39.40635016" lon="-0.38003993"><ele>2.4</ele><time>2022-11-10T16:14:02.0000000+00:00</time></trkpt><trkpt lat="39.40629518" lon="-0.38005611"><ele>2.4</ele><time>2022-11-10T16:14:03.0000000+00:00</time></trkpt><trkpt lat="39.40624371" lon="-0.38006835"><ele>2.4</ele><time>2022-11-10T16:14:04.0000000+00:00</time></trkpt><trkpt lat="39.40619107" lon="-0.38008142"><ele>2.4</ele><time>2022-11-10T16:14:05.0000000+00:00</time></trkpt><trkpt lat="39.40613374" lon="-0.38009928"><ele>2.4</ele><time>2022-11-10T16:14:06.0000000+00:00</time></trkpt><trkpt lat="39.40607842" lon="-0.38011579"><ele>2.6</ele><time>2022-11-10T16:14:07.0000000+00:00</time></trkpt><trkpt lat="39.40602184" lon="-0.38013163"><ele>2.6</ele><time>2022-11-10T16:14:08.0000000+00:00</time></trkpt><trkpt lat="39.40596677" lon="-0.38014865"><ele>2.8</ele><time>2022-11-10T16:14:09.0000000+00:00</time></trkpt><trkpt lat="39.40591347" lon="-0.38016751"><ele>2.8</ele><time>2022-11-10T16:14:10.0000000+00:00</time></trkpt><trkpt lat="39.40586141" lon="-0.38018653"><ele>2.8</ele><time>2022-11-10T16:14:11.0000000+00:00</time></trkpt><trkpt lat="39.40580911" lon="-0.38020967"><ele>2.8</ele><time>2022-11-10T16:14:12.0000000+00:00</time></trkpt><trkpt lat="39.40575538" lon="-0.38023515"><ele>2.8</ele><time>2022-11-10T16:14:13.0000000+00:00</time></trkpt><trkpt lat="39.4057004" lon="-0.38025552"><ele>2.8</ele><time>2022-11-10T16:14:14.0000000+00:00</time></trkpt><trkpt lat="39.40564357" lon="-0.38027857"><ele>2.8</ele><time>2022-11-10T16:14:15.0000000+00:00</time></trkpt><trkpt lat="39.40558699" lon="-0.38030195"><ele>2.8</ele><time>2022-11-10T16:14:16.0000000+00:00</time></trkpt><trkpt lat="39.40553058" lon="-0.38032156"><ele>2.8</ele><time>2022-11-10T16:14:17.0000000+00:00</time></trkpt><trkpt lat="39.40547777" lon="-0.38033933"><ele>2.8</ele><time>2022-11-10T16:14:18.0000000+00:00</time></trkpt><trkpt lat="39.40542673" lon="-0.38036129"><ele>2.8</ele><time>2022-11-10T16:14:19.0000000+00:00</time></trkpt><trkpt lat="39.40537493" lon="-0.3803799"><ele>2.8</ele><time>2022-11-10T16:14:20.0000000+00:00</time></trkpt><trkpt lat="39.40532204" lon="-0.38039457"><ele>2.8</ele><time>2022-11-10T16:14:21.0000000+00:00</time></trkpt><trkpt lat="39.40526546" lon="-0.38041016"><ele>2.8</ele><time>2022-11-10T16:14:22.0000000+00:00</time></trkpt><trkpt lat="39.40521131" lon="-0.3804255"><ele>2.8</ele><time>2022-11-10T16:14:23.0000000+00:00</time></trkpt><trkpt lat="39.40515675" lon="-0.38044402"><ele>2.8</ele><time>2022-11-10T16:14:24.0000000+00:00</time></trkpt><trkpt lat="39.4051047" lon="-0.38046213"><ele>2.8</ele><time>2022-11-10T16:14:25.0000000+00:00</time></trkpt><trkpt lat="39.40505222" lon="-0.3804825"><ele>2.8</ele><time>2022-11-10T16:14:26.0000000+00:00</time></trkpt><trkpt lat="39.40499942" lon="-0.3805068"><ele>2.8</ele><time>2022-11-10T16:14:27.0000000+00:00</time></trkpt><trkpt lat="39.40494611" lon="-0.3805348"><ele>2.8</ele><time>2022-11-10T16:14:28.0000000+00:00</time></trkpt><trkpt lat="39.4048933" lon="-0.38056204"><ele>2.8</ele><time>2022-11-10T16:14:29.0000000+00:00</time></trkpt><trkpt lat="39.40484025" lon="-0.38058668"><ele>2.8</ele><time>2022-11-10T16:14:30.0000000+00:00</time></trkpt><trkpt lat="39.40478543" lon="-0.38061275"><ele>2.8</ele><time>2022-11-10T16:14:31.0000000+00:00</time></trkpt><trkpt lat="39.40472944" lon="-0.38063572"><ele>2.8</ele><time>2022-11-10T16:14:32.0000000+00:00</time></trkpt><trkpt lat="39.40467361" lon="-0.3806591"><ele>2.8</ele><time>2022-11-10T16:14:33.0000000+00:00</time></trkpt><trkpt lat="39.40461695" lon="-0.38068224"><ele>2.8</ele><time>2022-11-10T16:14:34.0000000+00:00</time></trkpt><trkpt lat="39.40456063" lon="-0.38070537"><ele>2.8</ele><time>2022-11-10T16:14:35.0000000+00:00</time></trkpt><trkpt lat="39.40450472" lon="-0.38072926"><ele>2.8</ele><time>2022-11-10T16:14:36.0000000+00:00</time></trkpt><trkpt lat="39.40444596" lon="-0.38075005"><ele>2.8</ele><time>2022-11-10T16:14:37.0000000+00:00</time></trkpt><trkpt lat="39.40438687" lon="-0.38077234"><ele>2.8</ele><time>2022-11-10T16:14:38.0000000+00:00</time></trkpt><trkpt lat="39.40432996" lon="-0.38079506"><ele>2.6</ele><time>2022-11-10T16:14:39.0000000+00:00</time></trkpt><trkpt lat="39.40427137" lon="-0.38081375"><ele>2.8</ele><time>2022-11-10T16:14:40.0000000+00:00</time></trkpt><trkpt lat="39.40421496" lon="-0.38083144"><ele>2.8</ele><time>2022-11-10T16:14:41.0000000+00:00</time></trkpt><trkpt lat="39.40415947" lon="-0.38084862"><ele>2.8</ele><time>2022-11-10T16:14:42.0000000+00:00</time></trkpt><trkpt lat="39.40410155" lon="-0.38086698"><ele>3.0</ele><time>2022-11-10T16:14:43.0000000+00:00</time></trkpt><trkpt lat="39.40404522" lon="-0.38088441"><ele>2.8</ele><time>2022-11-10T16:14:44.0000000+00:00</time></trkpt><trkpt lat="39.4039899" lon="-0.38090218"><ele>2.8</ele><time>2022-11-10T16:14:45.0000000+00:00</time></trkpt><trkpt lat="39.4039381" lon="-0.38091936"><ele>2.8</ele><time>2022-11-10T16:14:46.0000000+00:00</time></trkpt><trkpt lat="39.40388664" lon="-0.38093898"><ele>2.8</ele><time>2022-11-10T16:14:47.0000000+00:00</time></trkpt><trkpt lat="39.4038376" lon="-0.38095951"><ele>2.8</ele><time>2022-11-10T16:14:48.0000000+00:00</time></trkpt><trkpt lat="39.40378857" lon="-0.38097829"><ele>2.8</ele><time>2022-11-10T16:14:49.0000000+00:00</time></trkpt><trkpt lat="39.40373937" lon="-0.3809984"><ele>2.8</ele><time>2022-11-10T16:14:50.0000000+00:00</time></trkpt><trkpt lat="39.40368908" lon="-0.38101701"><ele>2.8</ele><time>2022-11-10T16:14:51.0000000+00:00</time></trkpt><trkpt lat="39.40363635" lon="-0.3810352"><ele>2.8</ele><time>2022-11-10T16:14:52.0000000+00:00</time></trkpt><trkpt lat="39.40358321" lon="-0.3810497"><ele>2.8</ele><time>2022-11-10T16:14:53.0000000+00:00</time></trkpt><trkpt lat="39.40352915" lon="-0.38106806"><ele>2.8</ele><time>2022-11-10T16:14:54.0000000+00:00</time></trkpt><trkpt lat="39.40347626" lon="-0.38109002"><ele>3.0</ele><time>2022-11-10T16:14:55.0000000+00:00</time></trkpt><trkpt lat="39.40342438" lon="-0.38111164"><ele>3.0</ele><time>2022-11-10T16:14:56.0000000+00:00</time></trkpt><trkpt lat="39.40337098" lon="-0.38113369"><ele>3.0</ele><time>2022-11-10T16:14:57.0000000+00:00</time></trkpt><trkpt lat="39.40331524" lon="-0.38115355"><ele>3.2</ele><time>2022-11-10T16:14:58.0000000+00:00</time></trkpt><trkpt lat="39.40326084" lon="-0.38117124"><ele>3.4</ele><time>2022-11-10T16:14:59.0000000+00:00</time></trkpt><trkpt lat="39.4032077" lon="-0.3811906"><ele>3.4</ele><time>2022-11-10T16:15:00.0000000+00:00</time></trkpt><trkpt lat="39.40315506" lon="-0.38120728"><ele>3.4</ele><time>2022-11-10T16:15:01.0000000+00:00</time></trkpt><trkpt lat="39.40310385" lon="-0.38122354"><ele>3.4</ele><time>2022-11-10T16:15:02.0000000+00:00</time></trkpt><trkpt lat="39.40305566" lon="-0.38124022"><ele>3.6</ele><time>2022-11-10T16:15:03.0000000+00:00</time></trkpt><trkpt lat="39.40301266" lon="-0.38125481"><ele>3.6</ele><time>2022-11-10T16:15:04.0000000+00:00</time></trkpt><trkpt lat="39.40297712" lon="-0.38126964"><ele>3.4</ele><time>2022-11-10T16:15:05.0000000+00:00</time></trkpt><trkpt lat="39.40294988" lon="-0.38128506"><ele>3.4</ele><time>2022-11-10T16:15:06.0000000+00:00</time></trkpt><trkpt lat="39.40292758" lon="-0.38130359"><ele>3.4</ele><time>2022-11-10T16:15:07.0000000+00:00</time></trkpt><trkpt lat="39.40290805" lon="-0.3813222"><ele>3.4</ele><time>2022-11-10T16:15:08.0000000+00:00</time></trkpt><trkpt lat="39.40289011" lon="-0.38133443"><ele>3.4</ele><time>2022-11-10T16:15:09.0000000+00:00</time></trkpt><trkpt lat="39.40287176" lon="-0.38133611"><ele>3.2</ele><time>2022-11-10T16:15:10.0000000+00:00</time></trkpt><trkpt lat="39.40285424" lon="-0.38132396"><ele>3.2</ele><time>2022-11-10T16:15:11.0000000+00:00</time></trkpt><trkpt lat="39.40284083" lon="-0.38130057"><ele>3.2</ele><time>2022-11-10T16:15:12.0000000+00:00</time></trkpt><trkpt lat="39.40282842" lon="-0.38127149"><ele>3.0</ele><time>2022-11-10T16:15:13.0000000+00:00</time></trkpt><trkpt lat="39.40281987" lon="-0.38123343"><ele>3.0</ele><time>2022-11-10T16:15:14.0000000+00:00</time></trkpt><trkpt lat="39.40281082" lon="-0.38119278"><ele>3.0</ele><time>2022-11-10T16:15:15.0000000+00:00</time></trkpt><trkpt lat="39.40280219" lon="-0.3811476"><ele>3.2</ele><time>2022-11-10T16:15:16.0000000+00:00</time></trkpt><trkpt lat="39.40278928" lon="-0.38108901"><ele>3.2</ele><time>2022-11-10T16:15:17.0000000+00:00</time></trkpt><trkpt lat="39.40278207" lon="-0.38105079"><ele>3.2</ele><time>2022-11-10T16:15:18.0000000+00:00</time></trkpt><trkpt lat="39.40277595" lon="-0.381001"><ele>3.2</ele><time>2022-11-10T16:15:19.0000000+00:00</time></trkpt><trkpt lat="39.4027695" lon="-0.38094644"><ele>3.2</ele><time>2022-11-10T16:15:20.0000000+00:00</time></trkpt><trkpt lat="39.40275852" lon="-0.38089673"><ele>3.2</ele><time>2022-11-10T16:15:21.0000000+00:00</time></trkpt><trkpt lat="39.40274594" lon="-0.38084602"><ele>3.2</ele><time>2022-11-10T16:15:22.0000000+00:00</time></trkpt><trkpt lat="39.40272926" lon="-0.38079338"><ele>3.2</ele><time>2022-11-10T16:15:23.0000000+00:00</time></trkpt><trkpt lat="39.40271728" lon="-0.38073664"><ele>3.4</ele><time>2022-11-10T16:15:24.0000000+00:00</time></trkpt><trkpt lat="39.40271032" lon="-0.38068006"><ele>3.4</ele><time>2022-11-10T16:15:25.0000000+00:00</time></trkpt><trkpt lat="39.40270219" lon="-0.38062885"><ele>3.2</ele><time>2022-11-10T16:15:26.0000000+00:00</time></trkpt><trkpt lat="39.40269096" lon="-0.38057948"><ele>3.2</ele><time>2022-11-10T16:15:27.0000000+00:00</time></trkpt><trkpt lat="39.40267721" lon="-0.38052902"><ele>3.2</ele><time>2022-11-10T16:15:28.0000000+00:00</time></trkpt><trkpt lat="39.4026628" lon="-0.38047705"><ele>3.2</ele><time>2022-11-10T16:15:29.0000000+00:00</time></trkpt><trkpt lat="39.40265441" lon="-0.38042097"><ele>3.0</ele><time>2022-11-10T16:15:30.0000000+00:00</time></trkpt><trkpt lat="39.40264989" lon="-0.38036641"><ele>3.0</ele><time>2022-11-10T16:15:31.0000000+00:00</time></trkpt><trkpt lat="39.40264016" lon="-0.38031704"><ele>3.0</ele><time>2022-11-10T16:15:32.0000000+00:00</time></trkpt><trkpt lat="39.40262348" lon="-0.38026951"><ele>3.0</ele><time>2022-11-10T16:15:33.0000000+00:00</time></trkpt><trkpt lat="39.40261066" lon="-0.3802266"><ele>3.0</ele><time>2022-11-10T16:15:34.0000000+00:00</time></trkpt><trkpt lat="39.40259968" lon="-0.38018201"><ele>3.0</ele><time>2022-11-10T16:15:35.0000000+00:00</time></trkpt><trkpt lat="39.40259733" lon="-0.38013415"><ele>3.0</ele><time>2022-11-10T16:15:36.0000000+00:00</time></trkpt><trkpt lat="39.40259121" lon="-0.38008519"><ele>3.0</ele><time>2022-11-10T16:15:37.0000000+00:00</time></trkpt><trkpt lat="39.40258023" lon="-0.38004119"><ele>3.0</ele><time>2022-11-10T16:15:38.0000000+00:00</time></trkpt><trkpt lat="39.40257068" lon="-0.37999886"><ele>3.0</ele><time>2022-11-10T16:15:39.0000000+00:00</time></trkpt><trkpt lat="39.4025633" lon="-0.37995729"><ele>3.0</ele><time>2022-11-10T16:15:40.0000000+00:00</time></trkpt><trkpt lat="39.40255777" lon="-0.37991337"><ele>3.0</ele><time>2022-11-10T16:15:41.0000000+00:00</time></trkpt><trkpt lat="39.40255081" lon="-0.37987322"><ele>3.0</ele><time>2022-11-10T16:15:42.0000000+00:00</time></trkpt><trkpt lat="39.40253908" lon="-0.37983961"><ele>3.0</ele><time>2022-11-10T16:15:43.0000000+00:00</time></trkpt><trkpt lat="39.40252852" lon="-0.37980725"><ele>3.0</ele><time>2022-11-10T16:15:44.0000000+00:00</time></trkpt><trkpt lat="39.40252148" lon="-0.37977582"><ele>3.0</ele><time>2022-11-10T16:15:45.0000000+00:00</time></trkpt><trkpt lat="39.40251318" lon="-0.37974154"><ele>3.0</ele><time>2022-11-10T16:15:46.0000000+00:00</time></trkpt><trkpt lat="39.40250371" lon="-0.37970717"><ele>3.0</ele><time>2022-11-10T16:15:47.0000000+00:00</time></trkpt><trkpt lat="39.40249692" lon="-0.37967373"><ele>3.0</ele><time>2022-11-10T16:15:48.0000000+00:00</time></trkpt><trkpt lat="39.4024882" lon="-0.37964263"><ele>3.0</ele><time>2022-11-10T16:15:49.0000000+00:00</time></trkpt><trkpt lat="39.40248258" lon="-0.37961229"><ele>3.0</ele><time>2022-11-10T16:15:50.0000000+00:00</time></trkpt><trkpt lat="39.40247697" lon="-0.37958169"><ele>3.0</ele><time>2022-11-10T16:15:51.0000000+00:00</time></trkpt><trkpt lat="39.40247085" lon="-0.37955227"><ele>2.8</ele><time>2022-11-10T16:15:52.0000000+00:00</time></trkpt><trkpt lat="39.4024659" lon="-0.37952964"><ele>2.8</ele><time>2022-11-10T16:15:53.0000000+00:00</time></trkpt><trkpt lat="39.40246624" lon="-0.37951598"><ele>2.8</ele><time>2022-11-10T16:15:54.0000000+00:00</time></trkpt><trkpt lat="39.4024685" lon="-0.37951062"><ele>2.6</ele><time>2022-11-10T16:15:55.0000000+00:00</time></trkpt><trkpt lat="39.4024685" lon="-0.37951062"><ele>2.6</ele><time>2022-11-10T16:15:56.0000000+00:00</time></trkpt><trkpt lat="39.4024701" lon="-0.37950944"><ele>2.6</ele><time>2022-11-10T16:15:57.0000000+00:00</time></trkpt><trkpt lat="39.40247764" lon="-0.37951129"><ele>2.6</ele><time>2022-11-10T16:15:58.0000000+00:00</time></trkpt><trkpt lat="39.4024846" lon="-0.3795195"><ele>2.6</ele><time>2022-11-10T16:15:59.0000000+00:00</time></trkpt><trkpt lat="39.40248728" lon="-0.37953492"><ele>2.6</ele><time>2022-11-10T16:16:00.0000000+00:00</time></trkpt><trkpt lat="39.40248979" lon="-0.37955487"><ele>2.6</ele><time>2022-11-10T16:16:01.0000000+00:00</time></trkpt><trkpt lat="39.40249424" lon="-0.37958119"><ele>2.8</ele><time>2022-11-10T16:16:02.0000000+00:00</time></trkpt><trkpt lat="39.40250203" lon="-0.37961598"><ele>2.8</ele><time>2022-11-10T16:16:03.0000000+00:00</time></trkpt><trkpt lat="39.40250991" lon="-0.37965713"><ele>2.8</ele><time>2022-11-10T16:16:04.0000000+00:00</time></trkpt><trkpt lat="39.4025203" lon="-0.37970147"><ele>2.8</ele><time>2022-11-10T16:16:05.0000000+00:00</time></trkpt><trkpt lat="39.4025317" lon="-0.37974615"><ele>2.8</ele><time>2022-11-10T16:16:06.0000000+00:00</time></trkpt><trkpt lat="39.40253799" lon="-0.37979644"><ele>2.8</ele><time>2022-11-10T16:16:07.0000000+00:00</time></trkpt><trkpt lat="39.40254964" lon="-0.3798474"><ele>2.8</ele><time>2022-11-10T16:16:08.0000000+00:00</time></trkpt><trkpt lat="39.4025597" lon="-0.37990213"><ele>2.8</ele><time>2022-11-10T16:16:09.0000000+00:00</time></trkpt><trkpt lat="39.40256883" lon="-0.37996064"><ele>3.0</ele><time>2022-11-10T16:16:10.0000000+00:00</time></trkpt><trkpt lat="39.40257856" lon="-0.38001965"><ele>3.0</ele><time>2022-11-10T16:16:11.0000000+00:00</time></trkpt><trkpt lat="39.40258979" lon="-0.38007857"><ele>3.0</ele><time>2022-11-10T16:16:12.0000000+00:00</time></trkpt><trkpt lat="39.4026032" lon="-0.38014018"><ele>3.0</ele><time>2022-11-10T16:16:13.0000000+00:00</time></trkpt><trkpt lat="39.40261602" lon="-0.38020254"><ele>3.0</ele><time>2022-11-10T16:16:14.0000000+00:00</time></trkpt><trkpt lat="39.40262675" lon="-0.38026599"><ele>3.0</ele><time>2022-11-10T16:16:15.0000000+00:00</time></trkpt><trkpt lat="39.40263505" lon="-0.3803297"><ele>3.0</ele><time>2022-11-10T16:16:16.0000000+00:00</time></trkpt><trkpt lat="39.40264721" lon="-0.38039206"><ele>3.0</ele><time>2022-11-10T16:16:17.0000000+00:00</time></trkpt><trkpt lat="39.40266422" lon="-0.38046464"><ele>3.0</ele><time>2022-11-10T16:16:18.0000000+00:00</time></trkpt><trkpt lat="39.40267738" lon="-0.38051452"><ele>3.0</ele><time>2022-11-10T16:16:19.0000000+00:00</time></trkpt><trkpt lat="39.40269037" lon="-0.38057897"><ele>3.0</ele><time>2022-11-10T16:16:20.0000000+00:00</time></trkpt><trkpt lat="39.40270144" lon="-0.3806472"><ele>3.0</ele><time>2022-11-10T16:16:21.0000000+00:00</time></trkpt><trkpt lat="39.40271636" lon="-0.38071518"><ele>3.0</ele><time>2022-11-10T16:16:22.0000000+00:00</time></trkpt><trkpt lat="39.40273538" lon="-0.38077888"><ele>3.0</ele><time>2022-11-10T16:16:23.0000000+00:00</time></trkpt><trkpt lat="39.40275366" lon="-0.38084543"><ele>3.0</ele><time>2022-11-10T16:16:24.0000000+00:00</time></trkpt><trkpt lat="39.402785" lon="-0.38091601"><ele>3.0</ele><time>2022-11-10T16:16:25.0000000+00:00</time></trkpt><trkpt lat="39.4028042" lon="-0.38098726"><ele>3.2</ele><time>2022-11-10T16:16:26.0000000+00:00</time></trkpt><trkpt lat="39.40282323" lon="-0.38105817"><ele>3.2</ele><time>2022-11-10T16:16:27.0000000+00:00</time></trkpt><trkpt lat="39.40283747" lon="-0.38112908"><ele>3.2</ele><time>2022-11-10T16:16:28.0000000+00:00</time></trkpt><trkpt lat="39.40284695" lon="-0.38119446"><ele>3.4</ele><time>2022-11-10T16:16:29.0000000+00:00</time></trkpt><trkpt lat="39.40286178" lon="-0.38126134"><ele>3.4</ele><time>2022-11-10T16:16:30.0000000+00:00</time></trkpt><trkpt lat="39.40287989" lon="-0.38133443"><ele>3.4</ele><time>2022-11-10T16:16:31.0000000+00:00</time></trkpt><trkpt lat="39.40290126" lon="-0.38140568"><ele>3.4</ele><time>2022-11-10T16:16:32.0000000+00:00</time></trkpt><trkpt lat="39.4029249" lon="-0.38147274"><ele>3.4</ele><time>2022-11-10T16:16:33.0000000+00:00</time></trkpt><trkpt lat="39.40294661" lon="-0.3815392"><ele>3.4</ele><time>2022-11-10T16:16:34.0000000+00:00</time></trkpt><trkpt lat="39.40296697" lon="-0.38160827"><ele>3.4</ele><time>2022-11-10T16:16:35.0000000+00:00</time></trkpt><trkpt lat="39.40298592" lon="-0.38167994"><ele>3.4</ele><time>2022-11-10T16:16:36.0000000+00:00</time></trkpt><trkpt lat="39.4030057" lon="-0.38175018"><ele>3.4</ele><time>2022-11-10T16:16:37.0000000+00:00</time></trkpt><trkpt lat="39.40302397" lon="-0.3818184"><ele>3.4</ele><time>2022-11-10T16:16:38.0000000+00:00</time></trkpt><trkpt lat="39.40304132" lon="-0.38189015"><ele>3.4</ele><time>2022-11-10T16:16:39.0000000+00:00</time></trkpt><trkpt lat="39.40305641" lon="-0.38196391"><ele>3.6</ele><time>2022-11-10T16:16:40.0000000+00:00</time></trkpt><trkpt lat="39.403072" lon="-0.38203558"><ele>3.6</ele><time>2022-11-10T16:16:41.0000000+00:00</time></trkpt><trkpt lat="39.40309337" lon="-0.38210423"><ele>3.6</ele><time>2022-11-10T16:16:42.0000000+00:00</time></trkpt><trkpt lat="39.40311642" lon="-0.38217003"><ele>3.6</ele><time>2022-11-10T16:16:43.0000000+00:00</time></trkpt><trkpt lat="39.40313612" lon="-0.38223876"><ele>3.6</ele><time>2022-11-10T16:16:44.0000000+00:00</time></trkpt><trkpt lat="39.40315414" lon="-0.38231042"><ele>3.8</ele><time>2022-11-10T16:16:45.0000000+00:00</time></trkpt><trkpt lat="39.40317233" lon="-0.38238041"><ele>3.8</ele><time>2022-11-10T16:16:46.0000000+00:00</time></trkpt><trkpt lat="39.4031896" lon="-0.38245023"><ele>3.8</ele><time>2022-11-10T16:16:47.0000000+00:00</time></trkpt><trkpt lat="39.40320678" lon="-0.3825193"><ele>3.8</ele><time>2022-11-10T16:16:48.0000000+00:00</time></trkpt><trkpt lat="39.40322547" lon="-0.38258929"><ele>3.8</ele><time>2022-11-10T16:16:49.0000000+00:00</time></trkpt><trkpt lat="39.40325162" lon="-0.38267562"><ele>3.8</ele><time>2022-11-10T16:16:50.0000000+00:00</time></trkpt><trkpt lat="39.40326839" lon="-0.38273622"><ele>3.8</ele><time>2022-11-10T16:16:51.0000000+00:00</time></trkpt><trkpt lat="39.40328767" lon="-0.38281183"><ele>3.8</ele><time>2022-11-10T16:16:52.0000000+00:00</time></trkpt><trkpt lat="39.4033077" lon="-0.38288442"><ele>4.0</ele><time>2022-11-10T16:16:53.0000000+00:00</time></trkpt><trkpt lat="39.40332647" lon="-0.38295214"><ele>4.0</ele><time>2022-11-10T16:16:54.0000000+00:00</time></trkpt><trkpt lat="39.40334341" lon="-0.38302054"><ele>4.0</ele><time>2022-11-10T16:16:55.0000000+00:00</time></trkpt><trkpt lat="39.40335849" lon="-0.38309338"><ele>4.2</ele><time>2022-11-10T16:16:56.0000000+00:00</time></trkpt><trkpt lat="39.40337341" lon="-0.38316739"><ele>4.2</ele><time>2022-11-10T16:16:57.0000000+00:00</time></trkpt><trkpt lat="39.40338724" lon="-0.38323914"><ele>4.2</ele><time>2022-11-10T16:16:58.0000000+00:00</time></trkpt><trkpt lat="39.40340334" lon="-0.38331055"><ele>4.2</ele><time>2022-11-10T16:16:59.0000000+00:00</time></trkpt><trkpt lat="39.40342085" lon="-0.38338171"><ele>4.2</ele><time>2022-11-10T16:17:00.0000000+00:00</time></trkpt><trkpt lat="39.40343611" lon="-0.38345539"><ele>4.2</ele><time>2022-11-10T16:17:01.0000000+00:00</time></trkpt><trkpt lat="39.40344893" lon="-0.38352898"><ele>4.2</ele><time>2022-11-10T16:17:02.0000000+00:00</time></trkpt><trkpt lat="39.40345882" lon="-0.38360509"><ele>4.2</ele><time>2022-11-10T16:17:03.0000000+00:00</time></trkpt><trkpt lat="39.4034657" lon="-0.38368145"><ele>4.2</ele><time>2022-11-10T16:17:04.0000000+00:00</time></trkpt><trkpt lat="39.40347416" lon="-0.38375672"><ele>4.2</ele><time>2022-11-10T16:17:05.0000000+00:00</time></trkpt><trkpt lat="39.4034854" lon="-0.38384574"><ele>4.2</ele><time>2022-11-10T16:17:06.0000000+00:00</time></trkpt><trkpt lat="39.40349143" lon="-0.38390483"><ele>4.2</ele><time>2022-11-10T16:17:07.0000000+00:00</time></trkpt><trkpt lat="39.40350023" lon="-0.38399602"><ele>4.2</ele><time>2022-11-10T16:17:08.0000000+00:00</time></trkpt><trkpt lat="39.40350694" lon="-0.3840573"><ele>4.4</ele><time>2022-11-10T16:17:09.0000000+00:00</time></trkpt><trkpt lat="39.40351431" lon="-0.38413449"><ele>4.4</ele><time>2022-11-10T16:17:10.0000000+00:00</time></trkpt><trkpt lat="39.40352068" lon="-0.38420842"><ele>4.4</ele><time>2022-11-10T16:17:11.0000000+00:00</time></trkpt><trkpt lat="39.40352412" lon="-0.38428092"><ele>4.4</ele><time>2022-11-10T16:17:12.0000000+00:00</time></trkpt><trkpt lat="39.40352093" lon="-0.38434798"><ele>4.4</ele><time>2022-11-10T16:17:13.0000000+00:00</time></trkpt><trkpt lat="39.40351121" lon="-0.38441436"><ele>4.4</ele><time>2022-11-10T16:17:14.0000000+00:00</time></trkpt><trkpt lat="39.40350878" lon="-0.38447622"><ele>4.4</ele><time>2022-11-10T16:17:15.0000000+00:00</time></trkpt><trkpt lat="39.40350736" lon="-0.38453054"><ele>4.4</ele><time>2022-11-10T16:17:16.0000000+00:00</time></trkpt><trkpt lat="39.40350417" lon="-0.3845867"><ele>4.4</ele><time>2022-11-10T16:17:17.0000000+00:00</time></trkpt><trkpt lat="39.40349529" lon="-0.3846447"><ele>4.4</ele><time>2022-11-10T16:17:18.0000000+00:00</time></trkpt><trkpt lat="39.40347911" lon="-0.38470052"><ele>4.4</ele><time>2022-11-10T16:17:19.0000000+00:00</time></trkpt><trkpt lat="39.40345044" lon="-0.38474746"><ele>4.4</ele><time>2022-11-10T16:17:20.0000000+00:00</time></trkpt><trkpt lat="39.40341549" lon="-0.3847856"><ele>4.6</ele><time>2022-11-10T16:17:21.0000000+00:00</time></trkpt><trkpt lat="39.40337534" lon="-0.38481963"><ele>4.8</ele><time>2022-11-10T16:17:22.0000000+00:00</time></trkpt><trkpt lat="39.40333067" lon="-0.3848519"><ele>5.2</ele><time>2022-11-10T16:17:23.0000000+00:00</time></trkpt><trkpt lat="39.40328197" lon="-0.38488065"><ele>5.4</ele><time>2022-11-10T16:17:24.0000000+00:00</time></trkpt><trkpt lat="39.40323385" lon="-0.38490588"><ele>5.6</ele><time>2022-11-10T16:17:25.0000000+00:00</time></trkpt><trkpt lat="39.40318557" lon="-0.38493161"><ele>5.8</ele><time>2022-11-10T16:17:26.0000000+00:00</time></trkpt><trkpt lat="39.40313512" lon="-0.38495642"><ele>6.0</ele><time>2022-11-10T16:17:27.0000000+00:00</time></trkpt><trkpt lat="39.40308382" lon="-0.38497989"><ele>6.0</ele><time>2022-11-10T16:17:28.0000000+00:00</time></trkpt><trkpt lat="39.40303763" lon="-0.38500118"><ele>6.0</ele><time>2022-11-10T16:17:29.0000000+00:00</time></trkpt><trkpt lat="39.40299623" lon="-0.38502188"><ele>6.0</ele><time>2022-11-10T16:17:30.0000000+00:00</time></trkpt><trkpt lat="39.40296027" lon="-0.38504301"><ele>6.2</ele><time>2022-11-10T16:17:31.0000000+00:00</time></trkpt><trkpt lat="39.40292565" lon="-0.38506237"><ele>6.2</ele><time>2022-11-10T16:17:32.0000000+00:00</time></trkpt><trkpt lat="39.40289397" lon="-0.38508056"><ele>6.2</ele><time>2022-11-10T16:17:33.0000000+00:00</time></trkpt><trkpt lat="39.40286354" lon="-0.38510311"><ele>6.2</ele><time>2022-11-10T16:17:34.0000000+00:00</time></trkpt><trkpt lat="39.40283194" lon="-0.38512909"><ele>6.2</ele><time>2022-11-10T16:17:35.0000000+00:00</time></trkpt><trkpt lat="39.40279825" lon="-0.38515365"><ele>6.2</ele><time>2022-11-10T16:17:36.0000000+00:00</time></trkpt><trkpt lat="39.40276112" lon="-0.38517636"><ele>6.2</ele><time>2022-11-10T16:17:37.0000000+00:00</time></trkpt><trkpt lat="39.40272088" lon="-0.38520017"><ele>6.2</ele><time>2022-11-10T16:17:38.0000000+00:00</time></trkpt><trkpt lat="39.40267872" lon="-0.38522489"><ele>6.2</ele><time>2022-11-10T16:17:39.0000000+00:00</time></trkpt><trkpt lat="39.40263497" lon="-0.3852497"><ele>6.2</ele><time>2022-11-10T16:17:40.0000000+00:00</time></trkpt><trkpt lat="39.40258836" lon="-0.38527376"><ele>6.2</ele><time>2022-11-10T16:17:41.0000000+00:00</time></trkpt><trkpt lat="39.40254352" lon="-0.3852974"><ele>6.2</ele><time>2022-11-10T16:17:42.0000000+00:00</time></trkpt><trkpt lat="39.40250128" lon="-0.38532456"><ele>6.2</ele><time>2022-11-10T16:17:43.0000000+00:00</time></trkpt><trkpt lat="39.40245769" lon="-0.38535079"><ele>6.2</ele><time>2022-11-10T16:17:44.0000000+00:00</time></trkpt><trkpt lat="39.40241268" lon="-0.38537694"><ele>6.4</ele><time>2022-11-10T16:17:45.0000000+00:00</time></trkpt><trkpt lat="39.40237085" lon="-0.3854041"><ele>6.6</ele><time>2022-11-10T16:17:46.0000000+00:00</time></trkpt><trkpt lat="39.40233054" lon="-0.38542933"><ele>6.6</ele><time>2022-11-10T16:17:47.0000000+00:00</time></trkpt><trkpt lat="39.40229248" lon="-0.38544903"><ele>6.8</ele><time>2022-11-10T16:17:48.0000000+00:00</time></trkpt><trkpt lat="39.4022546" lon="-0.38545364"><ele>6.8</ele><time>2022-11-10T16:17:49.0000000+00:00</time></trkpt><trkpt lat="39.40221864" lon="-0.38543687"><ele>7.0</ele><time>2022-11-10T16:17:50.0000000+00:00</time></trkpt><trkpt lat="39.4021883" lon="-0.38541474"><ele>7.2</ele><time>2022-11-10T16:17:51.0000000+00:00</time></trkpt><trkpt lat="39.40216634" lon="-0.38539069"><ele>7.4</ele><time>2022-11-10T16:17:52.0000000+00:00</time></trkpt><trkpt lat="39.40215209" lon="-0.38536496"><ele>7.6</ele><time>2022-11-10T16:17:53.0000000+00:00</time></trkpt><trkpt lat="39.40214488" lon="-0.38533562"><ele>7.6</ele><time>2022-11-10T16:17:54.0000000+00:00</time></trkpt><trkpt lat="39.40214094" lon="-0.38530134"><ele>7.6</ele><time>2022-11-10T16:17:55.0000000+00:00</time></trkpt><trkpt lat="39.40213935" lon="-0.38526253"><ele>7.6</ele><time>2022-11-10T16:17:56.0000000+00:00</time></trkpt><trkpt lat="39.40213507" lon="-0.38522573"><ele>7.8</ele><time>2022-11-10T16:17:57.0000000+00:00</time></trkpt><trkpt lat="39.40212937" lon="-0.38519204"><ele>7.8</ele><time>2022-11-10T16:17:58.0000000+00:00</time></trkpt><trkpt lat="39.40212501" lon="-0.38516128"><ele>7.8</ele><time>2022-11-10T16:17:59.0000000+00:00</time></trkpt><trkpt lat="39.40212141" lon="-0.38513261"><ele>7.8</ele><time>2022-11-10T16:18:00.0000000+00:00</time></trkpt><trkpt lat="39.40212241" lon="-0.3851057"><ele>7.6</ele><time>2022-11-10T16:18:01.0000000+00:00</time></trkpt><trkpt lat="39.40212686" lon="-0.38507603"><ele>7.6</ele><time>2022-11-10T16:18:02.0000000+00:00</time></trkpt><trkpt lat="39.40213373" lon="-0.38504737"><ele>7.6</ele><time>2022-11-10T16:18:03.0000000+00:00</time></trkpt><trkpt lat="39.40213507" lon="-0.38501987"><ele>7.6</ele><time>2022-11-10T16:18:04.0000000+00:00</time></trkpt><trkpt lat="39.40213465" lon="-0.38499448"><ele>7.6</ele><time>2022-11-10T16:18:05.0000000+00:00</time></trkpt><trkpt lat="39.40213708" lon="-0.38496958"><ele>7.6</ele><time>2022-11-10T16:18:06.0000000+00:00</time></trkpt><trkpt lat="39.40213884" lon="-0.38494251"><ele>7.4</ele><time>2022-11-10T16:18:07.0000000+00:00</time></trkpt><trkpt lat="39.40213792" lon="-0.38491602"><ele>7.4</ele><time>2022-11-10T16:18:08.0000000+00:00</time></trkpt><trkpt lat="39.40213415" lon="-0.38489716"><ele>7.4</ele><time>2022-11-10T16:18:09.0000000+00:00</time></trkpt><trkpt lat="39.40212216" lon="-0.38488962"><ele>7.4</ele><time>2022-11-10T16:18:10.0000000+00:00</time></trkpt><trkpt lat="39.40211646" lon="-0.3848861"><ele>7.4</ele><time>2022-11-10T16:18:11.0000000+00:00</time></trkpt><trkpt lat="39.40211646" lon="-0.3848861"><ele>7.4</ele><time>2022-11-10T16:18:12.0000000+00:00</time></trkpt><trkpt lat="39.40211395" lon="-0.38488618"><ele>7.4</ele><time>2022-11-10T16:18:13.0000000+00:00</time></trkpt><trkpt lat="39.40210967" lon="-0.38488316"><ele>7.2</ele><time>2022-11-10T16:18:14.0000000+00:00</time></trkpt><trkpt lat="39.40210825" lon="-0.38487998"><ele>7.2</ele><time>2022-11-10T16:18:15.0000000+00:00</time></trkpt><trkpt lat="39.40210825" lon="-0.38487998"><ele>7.2</ele><time>2022-11-10T16:18:16.0000000+00:00</time></trkpt><trkpt lat="39.40210825" lon="-0.38487998"><ele>7.2</ele><time>2022-11-10T16:18:17.0000000+00:00</time></trkpt><trkpt lat="39.40210825" lon="-0.38487998"><ele>7.2</ele><time>2022-11-10T16:18:18.0000000+00:00</time></trkpt><trkpt lat="39.40210825" lon="-0.38487998"><ele>7.2</ele><time>2022-11-10T16:18:19.0000000+00:00</time></trkpt><trkpt lat="39.40210708" lon="-0.3848783"><ele>7.2</ele><time>2022-11-10T16:18:20.0000000+00:00</time></trkpt><trkpt lat="39.40210649" lon="-0.3848752"><ele>7.2</ele><time>2022-11-10T16:18:21.0000000+00:00</time></trkpt><trkpt lat="39.40210649" lon="-0.3848752"><ele>7.2</ele><time>2022-11-10T16:18:22.0000000+00:00</time></trkpt><trkpt lat="39.40210649" lon="-0.3848752"><ele>7.2</ele><time>2022-11-10T16:18:23.0000000+00:00</time></trkpt><trkpt lat="39.40210649" lon="-0.3848752"><ele>7.2</ele><time>2022-11-10T16:18:24.0000000+00:00</time></trkpt><trkpt lat="39.40210532" lon="-0.38487721"><ele>7.2</ele><time>2022-11-10T16:18:25.0000000+00:00</time></trkpt><trkpt lat="39.40210314" lon="-0.38488006"><ele>7.2</ele><time>2022-11-10T16:18:26.0000000+00:00</time></trkpt><trkpt lat="39.40210314" lon="-0.38488006"><ele>7.2</ele><time>2022-11-10T16:18:27.0000000+00:00</time></trkpt><trkpt lat="39.40210045" lon="-0.38487805"><ele>7.2</ele><time>2022-11-10T16:18:28.0000000+00:00</time></trkpt><trkpt lat="39.40209819" lon="-0.38487671"><ele>7.2</ele><time>2022-11-10T16:18:29.0000000+00:00</time></trkpt><trkpt lat="39.40209819" lon="-0.38487671"><ele>7.2</ele><time>2022-11-10T16:18:30.0000000+00:00</time></trkpt><trkpt lat="39.40209727" lon="-0.38487889"><ele>7.2</ele><time>2022-11-10T16:18:31.0000000+00:00</time></trkpt><trkpt lat="39.4020997" lon="-0.3848778"><ele>7.2</ele><time>2022-11-10T16:18:32.0000000+00:00</time></trkpt><trkpt lat="39.4020997" lon="-0.3848778"><ele>7.2</ele><time>2022-11-10T16:18:33.0000000+00:00</time></trkpt><trkpt lat="39.4020997" lon="-0.3848778"><ele>7.2</ele><time>2022-11-10T16:18:34.0000000+00:00</time></trkpt><trkpt lat="39.40210263" lon="-0.38488098"><ele>7.2</ele><time>2022-11-10T16:18:35.0000000+00:00</time></trkpt><trkpt lat="39.40210506" lon="-0.38488048"><ele>7.2</ele><time>2022-11-10T16:18:36.0000000+00:00</time></trkpt><trkpt lat="39.40210967" lon="-0.38487839"><ele>7.2</ele><time>2022-11-10T16:18:37.0000000+00:00</time></trkpt><trkpt lat="39.40211445" lon="-0.38486581"><ele>7.2</ele><time>2022-11-10T16:18:38.0000000+00:00</time></trkpt><trkpt lat="39.40211537" lon="-0.38485928"><ele>7.2</ele><time>2022-11-10T16:18:39.0000000+00:00</time></trkpt><trkpt lat="39.40211537" lon="-0.38485928"><ele>7.2</ele><time>2022-11-10T16:18:40.0000000+00:00</time></trkpt><trkpt lat="39.40211537" lon="-0.38485928"><ele>7.2</ele><time>2022-11-10T16:18:41.0000000+00:00</time></trkpt><trkpt lat="39.40211537" lon="-0.38485928"><ele>7.2</ele><time>2022-11-10T16:18:42.0000000+00:00</time></trkpt><trkpt lat="39.40211537" lon="-0.38485928"><ele>7.2</ele><time>2022-11-10T16:18:43.0000000+00:00</time></trkpt><trkpt lat="39.40211537" lon="-0.38485928"><ele>7.2</ele><time>2022-11-10T16:18:44.0000000+00:00</time></trkpt><trkpt lat="39.40211537" lon="-0.38485928"><ele>7.2</ele><time>2022-11-10T16:18:45.0000000+00:00</time></trkpt><trkpt lat="39.40211537" lon="-0.38485928"><ele>7.2</ele><time>2022-11-10T16:18:46.0000000+00:00</time></trkpt><trkpt lat="39.40211537" lon="-0.38485928"><ele>7.2</ele><time>2022-11-10T16:18:47.0000000+00:00</time></trkpt><trkpt lat="39.40211537" lon="-0.38485928"><ele>7.2</ele><time>2022-11-10T16:18:48.0000000+00:00</time></trkpt><trkpt lat="39.40211537" lon="-0.38485928"><ele>7.2</ele><time>2022-11-10T16:18:49.0000000+00:00</time></trkpt><trkpt lat="39.40211537" lon="-0.38485928"><ele>7.2</ele><time>2022-11-10T16:18:50.0000000+00:00</time></trkpt><trkpt lat="39.40211537" lon="-0.38485928"><ele>7.2</ele><time>2022-11-10T16:18:51.0000000+00:00</time></trkpt><trkpt lat="39.40211537" lon="-0.38485928"><ele>7.2</ele><time>2022-11-10T16:18:52.0000000+00:00</time></trkpt><trkpt lat="39.40211537" lon="-0.38485928"><ele>7.2</ele><time>2022-11-10T16:18:53.0000000+00:00</time></trkpt><trkpt lat="39.40211537" lon="-0.38485928"><ele>7.2</ele><time>2022-11-10T16:18:54.0000000+00:00</time></trkpt><trkpt lat="39.40211537" lon="-0.38485928"><ele>7.2</ele><time>2022-11-10T16:18:55.0000000+00:00</time></trkpt><trkpt lat="39.40211537" lon="-0.38485928"><ele>7.2</ele><time>2022-11-10T16:18:56.0000000+00:00</time></trkpt><trkpt lat="39.40211537" lon="-0.38485928"><ele>7.2</ele><time>2022-11-10T16:18:57.0000000+00:00</time></trkpt><trkpt lat="39.40211537" lon="-0.38485928"><ele>7.2</ele><time>2022-11-10T16:18:58.0000000+00:00</time></trkpt><trkpt lat="39.40211537" lon="-0.38485928"><ele>7.2</ele><time>2022-11-10T16:18:59.0000000+00:00</time></trkpt><trkpt lat="39.40211537" lon="-0.38485928"><ele>7.2</ele><time>2022-11-10T16:19:00.0000000+00:00</time></trkpt><trkpt lat="39.40211537" lon="-0.38485928"><ele>7.2</ele><time>2022-11-10T16:19:01.0000000+00:00</time></trkpt><trkpt lat="39.40211537" lon="-0.38485928"><ele>7.2</ele><time>2022-11-10T16:19:02.0000000+00:00</time></trkpt><trkpt lat="39.40211537" lon="-0.38485928"><ele>7.2</ele><time>2022-11-10T16:19:03.0000000+00:00</time></trkpt><trkpt lat="39.40211537" lon="-0.38485928"><ele>7.2</ele><time>2022-11-10T16:19:04.0000000+00:00</time></trkpt><trkpt lat="39.40211537" lon="-0.38485928"><ele>7.2</ele><time>2022-11-10T16:19:05.0000000+00:00</time></trkpt><trkpt lat="39.40211319" lon="-0.38485559"><ele>7.2</ele><time>2022-11-10T16:19:06.0000000+00:00</time></trkpt><trkpt lat="39.40211135" lon="-0.38485324"><ele>7.2</ele><time>2022-11-10T16:19:07.0000000+00:00</time></trkpt><trkpt lat="39.40211135" lon="-0.38485324"><ele>7.2</ele><time>2022-11-10T16:19:08.0000000+00:00</time></trkpt><trkpt lat="39.40211135" lon="-0.38485324"><ele>7.2</ele><time>2022-11-10T16:19:09.0000000+00:00</time></trkpt><trkpt lat="39.40210674" lon="-0.38485089"><ele>7.2</ele><time>2022-11-10T16:19:10.0000000+00:00</time></trkpt><trkpt lat="39.40209903" lon="-0.38484846"><ele>7.2</ele><time>2022-11-10T16:19:11.0000000+00:00</time></trkpt><trkpt lat="39.40209559" lon="-0.38484888"><ele>7.2</ele><time>2022-11-10T16:19:12.0000000+00:00</time></trkpt><trkpt lat="39.40209559" lon="-0.38484888"><ele>7.2</ele><time>2022-11-10T16:19:13.0000000+00:00</time></trkpt><trkpt lat="39.40209559" lon="-0.38484888"><ele>7.2</ele><time>2022-11-10T16:19:14.0000000+00:00</time></trkpt><trkpt lat="39.40209559" lon="-0.38484888"><ele>4.4</ele><time>2022-11-10T16:19:15.0000000+00:00</time></trkpt><trkpt lat="39.40209559" lon="-0.38484888"><ele>4.4</ele><time>2022-11-10T16:19:16.0000000+00:00</time></trkpt><trkpt lat="39.40209559" lon="-0.38484888"><ele>4.4</ele><time>2022-11-10T16:19:17.0000000+00:00</time></trkpt><trkpt lat="39.40209559" lon="-0.38484888"><ele>4.4</ele><time>2022-11-10T16:19:18.0000000+00:00</time></trkpt><trkpt lat="39.40209542" lon="-0.38485374"><ele>4.4</ele><time>2022-11-10T16:19:19.0000000+00:00</time></trkpt><trkpt lat="39.40209576" lon="-0.38485852"><ele>4.8</ele><time>2022-11-10T16:19:20.0000000+00:00</time></trkpt><trkpt lat="39.40209576" lon="-0.38485852"><ele>5.2</ele><time>2022-11-10T16:19:21.0000000+00:00</time></trkpt><trkpt lat="39.40209576" lon="-0.38485852"><ele>5.8</ele><time>2022-11-10T16:19:22.0000000+00:00</time></trkpt><trkpt lat="39.40209618" lon="-0.38486271"><ele>6.0</ele><time>2022-11-10T16:19:23.0000000+00:00</time></trkpt><trkpt lat="39.40209459" lon="-0.38486925"><ele>6.2</ele><time>2022-11-10T16:19:24.0000000+00:00</time></trkpt><trkpt lat="39.4020945" lon="-0.38487269"><ele>6.2</ele><time>2022-11-10T16:19:25.0000000+00:00</time></trkpt><trkpt lat="39.4020945" lon="-0.38487269"><ele>6.4</ele><time>2022-11-10T16:19:26.0000000+00:00</time></trkpt><trkpt lat="39.4020945" lon="-0.38487269"><ele>6.4</ele><time>2022-11-10T16:19:27.0000000+00:00</time></trkpt><trkpt lat="39.40209777" lon="-0.38486942"><ele>6.4</ele><time>2022-11-10T16:19:28.0000000+00:00</time></trkpt><trkpt lat="39.40210138" lon="-0.38486992"><ele>6.4</ele><time>2022-11-10T16:19:29.0000000+00:00</time></trkpt><trkpt lat="39.40210138" lon="-0.38486992"><ele>6.2</ele><time>2022-11-10T16:19:30.0000000+00:00</time></trkpt><trkpt lat="39.40210138" lon="-0.38486992"><ele>6.2</ele><time>2022-11-10T16:19:31.0000000+00:00</time></trkpt><trkpt lat="39.40210138" lon="-0.38486992"><ele>6.4</ele><time>2022-11-10T16:19:32.0000000+00:00</time></trkpt><trkpt lat="39.40210138" lon="-0.38486992"><ele>6.4</ele><time>2022-11-10T16:19:33.0000000+00:00</time></trkpt><trkpt lat="39.40210138" lon="-0.38486992"><ele>6.4</ele><time>2022-11-10T16:19:34.0000000+00:00</time></trkpt><trkpt lat="39.40210138" lon="-0.38486992"><ele>6.4</ele><time>2022-11-10T16:19:35.0000000+00:00</time></trkpt><trkpt lat="39.40210138" lon="-0.38486992"><ele>6.4</ele><time>2022-11-10T16:19:36.0000000+00:00</time></trkpt><trkpt lat="39.40210138" lon="-0.38486992"><ele>6.4</ele><time>2022-11-10T16:19:37.0000000+00:00</time></trkpt><trkpt lat="39.40210138" lon="-0.38486992"><ele>6.4</ele><time>2022-11-10T16:19:38.0000000+00:00</time></trkpt><trkpt lat="39.40210138" lon="-0.38486992"><ele>6.4</ele><time>2022-11-10T16:19:39.0000000+00:00</time></trkpt><trkpt lat="39.40210138" lon="-0.38486992"><ele>6.4</ele><time>2022-11-10T16:19:40.0000000+00:00</time></trkpt><trkpt lat="39.40210138" lon="-0.38486992"><ele>6.4</ele><time>2022-11-10T16:19:41.0000000+00:00</time></trkpt><trkpt lat="39.40210138" lon="-0.38486992"><ele>6.4</ele><time>2022-11-10T16:19:42.0000000+00:00</time></trkpt><trkpt lat="39.40210138" lon="-0.38486992"><ele>6.4</ele><time>2022-11-10T16:19:43.0000000+00:00</time></trkpt><trkpt lat="39.40210138" lon="-0.38486992"><ele>6.2</ele><time>2022-11-10T16:19:44.0000000+00:00</time></trkpt><trkpt lat="39.40210138" lon="-0.38486992"><ele>6.2</ele><time>2022-11-10T16:19:45.0000000+00:00</time></trkpt><trkpt lat="39.40210138" lon="-0.38486992"><ele>6.2</ele><time>2022-11-10T16:19:46.0000000+00:00</time></trkpt><trkpt lat="39.40210138" lon="-0.38486992"><ele>6.2</ele><time>2022-11-10T16:19:47.0000000+00:00</time></trkpt><trkpt lat="39.40210138" lon="-0.38486992"><ele>6.2</ele><time>2022-11-10T16:19:48.0000000+00:00</time></trkpt><trkpt lat="39.40210138" lon="-0.38486992"><ele>6.2</ele><time>2022-11-10T16:19:49.0000000+00:00</time></trkpt><trkpt lat="39.40210138" lon="-0.38486992"><ele>6.2</ele><time>2022-11-10T16:19:50.0000000+00:00</time></trkpt><trkpt lat="39.40210138" lon="-0.38486992"><ele>6.2</ele><time>2022-11-10T16:19:51.0000000+00:00</time></trkpt><trkpt lat="39.40210138" lon="-0.38486992"><ele>6.4</ele><time>2022-11-10T16:19:52.0000000+00:00</time></trkpt><trkpt lat="39.40210138" lon="-0.38486992"><ele>6.4</ele><time>2022-11-10T16:19:53.0000000+00:00</time></trkpt><trkpt lat="39.40210138" lon="-0.38486992"><ele>6.4</ele><time>2022-11-10T16:19:54.0000000+00:00</time></trkpt><trkpt lat="39.40210138" lon="-0.38486992"><ele>6.4</ele><time>2022-11-10T16:19:55.0000000+00:00</time></trkpt><trkpt lat="39.40210247" lon="-0.38487344"><ele>6.2</ele><time>2022-11-10T16:19:56.0000000+00:00</time></trkpt><trkpt lat="39.40210255" lon="-0.38488107"><ele>6.2</ele><time>2022-11-10T16:19:57.0000000+00:00</time></trkpt><trkpt lat="39.40210297" lon="-0.38488853"><ele>6.2</ele><time>2022-11-10T16:19:58.0000000+00:00</time></trkpt><trkpt lat="39.40210305" lon="-0.38489347"><ele>6.0</ele><time>2022-11-10T16:19:59.0000000+00:00</time></trkpt><trkpt lat="39.40210305" lon="-0.38489347"><ele>6.0</ele><time>2022-11-10T16:20:00.0000000+00:00</time></trkpt><trkpt lat="39.40210305" lon="-0.38489347"><ele>6.0</ele><time>2022-11-10T16:20:01.0000000+00:00</time></trkpt><trkpt lat="39.40210473" lon="-0.38489481"><ele>6.0</ele><time>2022-11-10T16:20:02.0000000+00:00</time></trkpt><trkpt lat="39.40210314" lon="-0.38490538"><ele>6.2</ele><time>2022-11-10T16:20:03.0000000+00:00</time></trkpt><trkpt lat="39.40210112" lon="-0.38492046"><ele>6.2</ele><time>2022-11-10T16:20:04.0000000+00:00</time></trkpt><trkpt lat="39.40209886" lon="-0.38494301"><ele>6.0</ele><time>2022-11-10T16:20:05.0000000+00:00</time></trkpt><trkpt lat="39.40209358" lon="-0.38497897"><ele>6.0</ele><time>2022-11-10T16:20:06.0000000+00:00</time></trkpt><trkpt lat="39.40208905" lon="-0.38502683"><ele>6.0</ele><time>2022-11-10T16:20:07.0000000+00:00</time></trkpt><trkpt lat="39.40208168" lon="-0.38509405"><ele>5.8</ele><time>2022-11-10T16:20:08.0000000+00:00</time></trkpt><trkpt lat="39.40207698" lon="-0.385142"><ele>5.0</ele><time>2022-11-10T16:20:09.0000000+00:00</time></trkpt><trkpt lat="39.40206894" lon="-0.38519413"><ele>4.2</ele><time>2022-11-10T16:20:10.0000000+00:00</time></trkpt><trkpt lat="39.40206416" lon="-0.38523822"><ele>3.8</ele><time>2022-11-10T16:20:11.0000000+00:00</time></trkpt><trkpt lat="39.40206089" lon="-0.38527753"><ele>3.0</ele><time>2022-11-10T16:20:12.0000000+00:00</time></trkpt><trkpt lat="39.40205737" lon="-0.3853088"><ele>2.4</ele><time>2022-11-10T16:20:13.0000000+00:00</time></trkpt><trkpt lat="39.40205486" lon="-0.38533704"><ele>1.8</ele><time>2022-11-10T16:20:14.0000000+00:00</time></trkpt><trkpt lat="39.40203784" lon="-0.38536303"><ele>1.2</ele><time>2022-11-10T16:20:15.0000000+00:00</time></trkpt><trkpt lat="39.40201462" lon="-0.38538004"><ele>0.6</ele><time>2022-11-10T16:20:16.0000000+00:00</time></trkpt><trkpt lat="39.40199216" lon="-0.38538868"><ele>0.2</ele><time>2022-11-10T16:20:17.0000000+00:00</time></trkpt><trkpt lat="39.40196165" lon="-0.38539597"><ele>0.0</ele><time>2022-11-10T16:20:18.0000000+00:00</time></trkpt><trkpt lat="39.40194757" lon="-0.38540309"><ele>0.0</ele><time>2022-11-10T16:20:19.0000000+00:00</time></trkpt><trkpt lat="39.40193005" lon="-0.38541625"><ele>0.0</ele><time>2022-11-10T16:20:20.0000000+00:00</time></trkpt><trkpt lat="39.40191387" lon="-0.38542606"><ele>0.0</ele><time>2022-11-10T16:20:21.0000000+00:00</time></trkpt><trkpt lat="39.40189728" lon="-0.38543184"><ele>0.0</ele><time>2022-11-10T16:20:22.0000000+00:00</time></trkpt><trkpt lat="39.40187506" lon="-0.38543821"><ele>0.0</ele><time>2022-11-10T16:20:23.0000000+00:00</time></trkpt><trkpt lat="39.40184983" lon="-0.38544215"><ele>0.0</ele><time>2022-11-10T16:20:24.0000000+00:00</time></trkpt><trkpt lat="39.40182234" lon="-0.38544601"><ele>-0.2</ele><time>2022-11-10T16:20:25.0000000+00:00</time></trkpt><trkpt lat="39.40179326" lon="-0.38544861"><ele>-0.2</ele><time>2022-11-10T16:20:26.0000000+00:00</time></trkpt><trkpt lat="39.4017682" lon="-0.38545146"><ele>-0.2</ele><time>2022-11-10T16:20:27.0000000+00:00</time></trkpt><trkpt lat="39.40174364" lon="-0.38545146"><ele>-0.2</ele><time>2022-11-10T16:20:28.0000000+00:00</time></trkpt><trkpt lat="39.40172184" lon="-0.38544442"><ele>-0.2</ele><time>2022-11-10T16:20:29.0000000+00:00</time></trkpt><trkpt lat="39.40170692" lon="-0.38543033"><ele>-0.2</ele><time>2022-11-10T16:20:30.0000000+00:00</time></trkpt><trkpt lat="39.40170357" lon="-0.38542204"><ele>-0.2</ele><time>2022-11-10T16:20:31.0000000+00:00</time></trkpt><trkpt lat="39.40170106" lon="-0.38541852"><ele>-0.2</ele><time>2022-11-10T16:20:32.0000000+00:00</time></trkpt><trkpt lat="39.40170072" lon="-0.38541516"><ele>0.0</ele><time>2022-11-10T16:20:33.0000000+00:00</time></trkpt><trkpt lat="39.40169619" lon="-0.38540242"><ele>0.2</ele><time>2022-11-10T16:20:34.0000000+00:00</time></trkpt><trkpt lat="39.40168924" lon="-0.38538625"><ele>0.4</ele><time>2022-11-10T16:20:35.0000000+00:00</time></trkpt><trkpt lat="39.40168723" lon="-0.38536965"><ele>0.6</ele><time>2022-11-10T16:20:36.0000000+00:00</time></trkpt><trkpt lat="39.40168387" lon="-0.38535096"><ele>0.8</ele><time>2022-11-10T16:20:37.0000000+00:00</time></trkpt><trkpt lat="39.4016822" lon="-0.38533419"><ele>1.0</ele><time>2022-11-10T16:20:38.0000000+00:00</time></trkpt><trkpt lat="39.40168245" lon="-0.38531902"><ele>1.0</ele><time>2022-11-10T16:20:39.0000000+00:00</time></trkpt><trkpt lat="39.40168362" lon="-0.38530092"><ele>1.2</ele><time>2022-11-10T16:20:40.0000000+00:00</time></trkpt><trkpt lat="39.40168354" lon="-0.38528575"><ele>1.4</ele><time>2022-11-10T16:20:41.0000000+00:00</time></trkpt><trkpt lat="39.40168094" lon="-0.38527108"><ele>1.6</ele><time>2022-11-10T16:20:42.0000000+00:00</time></trkpt><trkpt lat="39.40167792" lon="-0.3852606"><ele>1.8</ele><time>2022-11-10T16:20:43.0000000+00:00</time></trkpt><trkpt lat="39.40167356" lon="-0.38524895"><ele>2.0</ele><time>2022-11-10T16:20:44.0000000+00:00</time></trkpt><trkpt lat="39.40166627" lon="-0.3852347"><ele>2.0</ele><time>2022-11-10T16:20:45.0000000+00:00</time></trkpt><trkpt lat="39.40165672" lon="-0.38521936"><ele>2.2</ele><time>2022-11-10T16:20:46.0000000+00:00</time></trkpt><trkpt lat="39.40165269" lon="-0.38520637"><ele>2.4</ele><time>2022-11-10T16:20:47.0000000+00:00</time></trkpt><trkpt lat="39.40165185" lon="-0.38519413"><ele>2.6</ele><time>2022-11-10T16:20:48.0000000+00:00</time></trkpt><trkpt lat="39.40164892" lon="-0.38518106"><ele>2.8</ele><time>2022-11-10T16:20:49.0000000+00:00</time></trkpt><trkpt lat="39.4016449" lon="-0.38516932"><ele>2.8</ele><time>2022-11-10T16:20:50.0000000+00:00</time></trkpt><trkpt lat="39.40164079" lon="-0.38515549"><ele>3.0</ele><time>2022-11-10T16:20:51.0000000+00:00</time></trkpt><trkpt lat="39.40163727" lon="-0.38514233"><ele>3.2</ele><time>2022-11-10T16:20:52.0000000+00:00</time></trkpt><trkpt lat="39.40163442" lon="-0.38512959"><ele>3.2</ele><time>2022-11-10T16:20:53.0000000+00:00</time></trkpt><trkpt lat="39.40163232" lon="-0.38511744"><ele>3.4</ele><time>2022-11-10T16:20:54.0000000+00:00</time></trkpt><trkpt lat="39.40162763" lon="-0.38510495"><ele>3.6</ele><time>2022-11-10T16:20:55.0000000+00:00</time></trkpt><trkpt lat="39.40161967" lon="-0.38509288"><ele>4.0</ele><time>2022-11-10T16:20:56.0000000+00:00</time></trkpt><trkpt lat="39.40161523" lon="-0.38508341"><ele>4.2</ele><time>2022-11-10T16:20:57.0000000+00:00</time></trkpt><trkpt lat="39.40161212" lon="-0.38507368"><ele>4.4</ele><time>2022-11-10T16:20:58.0000000+00:00</time></trkpt><trkpt lat="39.40161129" lon="-0.38505994"><ele>4.6</ele><time>2022-11-10T16:20:59.0000000+00:00</time></trkpt><trkpt lat="39.40160877" lon="-0.38504393"><ele>4.8</ele><time>2022-11-10T16:21:00.0000000+00:00</time></trkpt><trkpt lat="39.40160089" lon="-0.38503345"><ele>5.0</ele><time>2022-11-10T16:21:01.0000000+00:00</time></trkpt><trkpt lat="39.40159368" lon="-0.38502591"><ele>5.2</ele><time>2022-11-10T16:21:02.0000000+00:00</time></trkpt><trkpt lat="39.40158589" lon="-0.38501945"><ele>5.4</ele><time>2022-11-10T16:21:03.0000000+00:00</time></trkpt><trkpt lat="39.40158363" lon="-0.38500814"><ele>5.6</ele><time>2022-11-10T16:21:04.0000000+00:00</time></trkpt><trkpt lat="39.40158069" lon="-0.38499489"><ele>5.6</ele><time>2022-11-10T16:21:05.0000000+00:00</time></trkpt><trkpt lat="39.40157809" lon="-0.38498081"><ele>5.8</ele><time>2022-11-10T16:21:06.0000000+00:00</time></trkpt><trkpt lat="39.40157558" lon="-0.38496497"><ele>5.8</ele><time>2022-11-10T16:21:07.0000000+00:00</time></trkpt><trkpt lat="39.40157382" lon="-0.38494846"><ele>5.8</ele><time>2022-11-10T16:21:08.0000000+00:00</time></trkpt><trkpt lat="39.40157122" lon="-0.38493346"><ele>6.0</ele><time>2022-11-10T16:21:09.0000000+00:00</time></trkpt><trkpt lat="39.40156426" lon="-0.38492373"><ele>6.0</ele><time>2022-11-10T16:21:10.0000000+00:00</time></trkpt><trkpt lat="39.40156074" lon="-0.38491434"><ele>6.0</ele><time>2022-11-10T16:21:11.0000000+00:00</time></trkpt><trkpt lat="39.40155622" lon="-0.38490236"><ele>6.0</ele><time>2022-11-10T16:21:12.0000000+00:00</time></trkpt><trkpt lat="39.40155353" lon="-0.38488928"><ele>6.2</ele><time>2022-11-10T16:21:13.0000000+00:00</time></trkpt><trkpt lat="39.40155236" lon="-0.38487679"><ele>6.2</ele><time>2022-11-10T16:21:14.0000000+00:00</time></trkpt><trkpt lat="39.40154951" lon="-0.38486062"><ele>6.2</ele><time>2022-11-10T16:21:15.0000000+00:00</time></trkpt><trkpt lat="39.40154607" lon="-0.38484343"><ele>6.2</ele><time>2022-11-10T16:21:16.0000000+00:00</time></trkpt><trkpt lat="39.40154549" lon="-0.38482063"><ele>6.2</ele><time>2022-11-10T16:21:17.0000000+00:00</time></trkpt><trkpt lat="39.40154993" lon="-0.38479339"><ele>6.4</ele><time>2022-11-10T16:21:18.0000000+00:00</time></trkpt><trkpt lat="39.40155278" lon="-0.38476339"><ele>6.4</ele><time>2022-11-10T16:21:19.0000000+00:00</time></trkpt><trkpt lat="39.40155102" lon="-0.38473086"><ele>6.4</ele><time>2022-11-10T16:21:20.0000000+00:00</time></trkpt><trkpt lat="39.40154809" lon="-0.38469642"><ele>6.6</ele><time>2022-11-10T16:21:21.0000000+00:00</time></trkpt><trkpt lat="39.40154457" lon="-0.3846613"><ele>6.6</ele><time>2022-11-10T16:21:22.0000000+00:00</time></trkpt><trkpt lat="39.40154172" lon="-0.38462215"><ele>6.6</ele><time>2022-11-10T16:21:23.0000000+00:00</time></trkpt><trkpt lat="39.40153912" lon="-0.38458016"><ele>6.6</ele><time>2022-11-10T16:21:24.0000000+00:00</time></trkpt><trkpt lat="39.40153375" lon="-0.38453925"><ele>6.6</ele><time>2022-11-10T16:21:25.0000000+00:00</time></trkpt><trkpt lat="39.40153065" lon="-0.38449802"><ele>6.6</ele><time>2022-11-10T16:21:26.0000000+00:00</time></trkpt><trkpt lat="39.40152596" lon="-0.38445351"><ele>6.6</ele><time>2022-11-10T16:21:27.0000000+00:00</time></trkpt><trkpt lat="39.40152076" lon="-0.38441059"><ele>6.6</ele><time>2022-11-10T16:21:28.0000000+00:00</time></trkpt><trkpt lat="39.40151288" lon="-0.38436458"><ele>6.6</ele><time>2022-11-10T16:21:29.0000000+00:00</time></trkpt><trkpt lat="39.40150643" lon="-0.38431856"><ele>6.6</ele><time>2022-11-10T16:21:30.0000000+00:00</time></trkpt><trkpt lat="39.40150081" lon="-0.38426902"><ele>6.6</ele><time>2022-11-10T16:21:31.0000000+00:00</time></trkpt><trkpt lat="39.40149872" lon="-0.38421739"><ele>6.8</ele><time>2022-11-10T16:21:32.0000000+00:00</time></trkpt><trkpt lat="39.40149344" lon="-0.38416073"><ele>6.8</ele><time>2022-11-10T16:21:33.0000000+00:00</time></trkpt><trkpt lat="39.40148665" lon="-0.3841034"><ele>6.8</ele><time>2022-11-10T16:21:34.0000000+00:00</time></trkpt><trkpt lat="39.40147508" lon="-0.38404732"><ele>6.8</ele><time>2022-11-10T16:21:35.0000000+00:00</time></trkpt><trkpt lat="39.40146343" lon="-0.38399586"><ele>6.8</ele><time>2022-11-10T16:21:36.0000000+00:00</time></trkpt><trkpt lat="39.40145639" lon="-0.38393936"><ele>6.6</ele><time>2022-11-10T16:21:37.0000000+00:00</time></trkpt><trkpt lat="39.40145136" lon="-0.38387843"><ele>6.6</ele><time>2022-11-10T16:21:38.0000000+00:00</time></trkpt><trkpt lat="39.40144398" lon="-0.38381673"><ele>6.6</ele><time>2022-11-10T16:21:39.0000000+00:00</time></trkpt><trkpt lat="39.40143342" lon="-0.3837563"><ele>6.6</ele><time>2022-11-10T16:21:40.0000000+00:00</time></trkpt><trkpt lat="39.40142185" lon="-0.38369469"><ele>6.6</ele><time>2022-11-10T16:21:41.0000000+00:00</time></trkpt><trkpt lat="39.40141691" lon="-0.38363753"><ele>6.6</ele><time>2022-11-10T16:21:42.0000000+00:00</time></trkpt><trkpt lat="39.40141205" lon="-0.38357684"><ele>6.6</ele><time>2022-11-10T16:21:43.0000000+00:00</time></trkpt><trkpt lat="39.40141004" lon="-0.38351566"><ele>6.6</ele><time>2022-11-10T16:21:44.0000000+00:00</time></trkpt><trkpt lat="39.40140685" lon="-0.3834538"><ele>6.6</ele><time>2022-11-10T16:21:45.0000000+00:00</time></trkpt><trkpt lat="39.40140786" lon="-0.38339471"><ele>6.6</ele><time>2022-11-10T16:21:46.0000000+00:00</time></trkpt><trkpt lat="39.40140987" lon="-0.38333234"><ele>6.6</ele><time>2022-11-10T16:21:47.0000000+00:00</time></trkpt><trkpt lat="39.40140769" lon="-0.38326747"><ele>6.6</ele><time>2022-11-10T16:21:48.0000000+00:00</time></trkpt><trkpt lat="39.40140367" lon="-0.38320452"><ele>6.6</ele><time>2022-11-10T16:21:49.0000000+00:00</time></trkpt><trkpt lat="39.40139738" lon="-0.38314157"><ele>6.6</ele><time>2022-11-10T16:21:50.0000000+00:00</time></trkpt><trkpt lat="39.40139277" lon="-0.38307804"><ele>6.6</ele><time>2022-11-10T16:21:51.0000000+00:00</time></trkpt><trkpt lat="39.40138942" lon="-0.38301316"><ele>6.6</ele><time>2022-11-10T16:21:52.0000000+00:00</time></trkpt><trkpt lat="39.4013843" lon="-0.38294912"><ele>6.6</ele><time>2022-11-10T16:21:53.0000000+00:00</time></trkpt><trkpt lat="39.40137751" lon="-0.38288752"><ele>6.6</ele><time>2022-11-10T16:21:54.0000000+00:00</time></trkpt><trkpt lat="39.40137014" lon="-0.38282474"><ele>6.6</ele><time>2022-11-10T16:21:55.0000000+00:00</time></trkpt><trkpt lat="39.40136603" lon="-0.38275609"><ele>6.6</ele><time>2022-11-10T16:21:56.0000000+00:00</time></trkpt><trkpt lat="39.40136352" lon="-0.38268317"><ele>6.6</ele><time>2022-11-10T16:21:57.0000000+00:00</time></trkpt><trkpt lat="39.401361" lon="-0.38261091"><ele>6.6</ele><time>2022-11-10T16:21:58.0000000+00:00</time></trkpt><trkpt lat="39.40135413" lon="-0.38253833"><ele>6.6</ele><time>2022-11-10T16:21:59.0000000+00:00</time></trkpt><trkpt lat="39.40134374" lon="-0.3824675"><ele>6.6</ele><time>2022-11-10T16:22:00.0000000+00:00</time></trkpt><trkpt lat="39.40133192" lon="-0.38239944"><ele>6.6</ele><time>2022-11-10T16:22:01.0000000+00:00</time></trkpt><trkpt lat="39.40132152" lon="-0.38233079"><ele>6.6</ele><time>2022-11-10T16:22:02.0000000+00:00</time></trkpt><trkpt lat="39.40131239" lon="-0.38226265"><ele>6.6</ele><time>2022-11-10T16:22:03.0000000+00:00</time></trkpt><trkpt lat="39.40130484" lon="-0.3821935"><ele>6.6</ele><time>2022-11-10T16:22:04.0000000+00:00</time></trkpt><trkpt lat="39.40129839" lon="-0.38212217"><ele>6.6</ele><time>2022-11-10T16:22:05.0000000+00:00</time></trkpt><trkpt lat="39.40129152" lon="-0.38204907"><ele>6.6</ele><time>2022-11-10T16:22:06.0000000+00:00</time></trkpt><trkpt lat="39.40128087" lon="-0.381978"><ele>6.8</ele><time>2022-11-10T16:22:07.0000000+00:00</time></trkpt><trkpt lat="39.40126939" lon="-0.381906"><ele>6.8</ele><time>2022-11-10T16:22:08.0000000+00:00</time></trkpt><trkpt lat="39.40125547" lon="-0.38183182"><ele>6.8</ele><time>2022-11-10T16:22:09.0000000+00:00</time></trkpt><trkpt lat="39.40123695" lon="-0.38175747"><ele>6.8</ele><time>2022-11-10T16:22:10.0000000+00:00</time></trkpt><trkpt lat="39.40121918" lon="-0.38168279"><ele>6.8</ele><time>2022-11-10T16:22:11.0000000+00:00</time></trkpt><trkpt lat="39.40120284" lon="-0.38160995"><ele>6.8</ele><time>2022-11-10T16:22:12.0000000+00:00</time></trkpt><trkpt lat="39.40118817" lon="-0.38153552"><ele>6.8</ele><time>2022-11-10T16:22:13.0000000+00:00</time></trkpt><trkpt lat="39.40117132" lon="-0.3814584"><ele>6.8</ele><time>2022-11-10T16:22:14.0000000+00:00</time></trkpt><trkpt lat="39.40115221" lon="-0.3813812"><ele>6.6</ele><time>2022-11-10T16:22:15.0000000+00:00</time></trkpt><trkpt lat="39.4011326" lon="-0.3813082"><ele>6.6</ele><time>2022-11-10T16:22:16.0000000+00:00</time></trkpt><trkpt lat="39.40111642" lon="-0.38123678"><ele>6.6</ele><time>2022-11-10T16:22:17.0000000+00:00</time></trkpt><trkpt lat="39.4011015" lon="-0.38116428"><ele>6.4</ele><time>2022-11-10T16:22:18.0000000+00:00</time></trkpt><trkpt lat="39.4010875" lon="-0.38109102"><ele>6.4</ele><time>2022-11-10T16:22:19.0000000+00:00</time></trkpt><trkpt lat="39.40106965" lon="-0.3810176"><ele>6.6</ele><time>2022-11-10T16:22:20.0000000+00:00</time></trkpt><trkpt lat="39.40104702" lon="-0.38094409"><ele>6.6</ele><time>2022-11-10T16:22:21.0000000+00:00</time></trkpt><trkpt lat="39.40102841" lon="-0.38086806"><ele>6.6</ele><time>2022-11-10T16:22:22.0000000+00:00</time></trkpt><trkpt lat="39.40100863" lon="-0.38078986"><ele>6.6</ele><time>2022-11-10T16:22:23.0000000+00:00</time></trkpt><trkpt lat="39.40099312" lon="-0.38071225"><ele>6.6</ele><time>2022-11-10T16:22:24.0000000+00:00</time></trkpt><trkpt lat="39.40097577" lon="-0.38063647"><ele>6.6</ele><time>2022-11-10T16:22:25.0000000+00:00</time></trkpt><trkpt lat="39.40095423" lon="-0.38056254"><ele>6.6</ele><time>2022-11-10T16:22:26.0000000+00:00</time></trkpt><trkpt lat="39.40093277" lon="-0.38048887"><ele>6.6</ele><time>2022-11-10T16:22:27.0000000+00:00</time></trkpt><trkpt lat="39.40091659" lon="-0.38041351"><ele>6.6</ele><time>2022-11-10T16:22:28.0000000+00:00</time></trkpt><trkpt lat="39.4009" lon="-0.38033942"><ele>6.6</ele><time>2022-11-10T16:22:29.0000000+00:00</time></trkpt><trkpt lat="39.40087686" lon="-0.3802696"><ele>6.6</ele><time>2022-11-10T16:22:30.0000000+00:00</time></trkpt><trkpt lat="39.40085172" lon="-0.3802012"><ele>6.6</ele><time>2022-11-10T16:22:31.0000000+00:00</time></trkpt><trkpt lat="39.40082758" lon="-0.38013347"><ele>6.6</ele><time>2022-11-10T16:22:32.0000000+00:00</time></trkpt><trkpt lat="39.40080989" lon="-0.3800634"><ele>6.6</ele><time>2022-11-10T16:22:33.0000000+00:00</time></trkpt><trkpt lat="39.40079556" lon="-0.37999006"><ele>6.6</ele><time>2022-11-10T16:22:34.0000000+00:00</time></trkpt><trkpt lat="39.40078248" lon="-0.37991362"><ele>6.6</ele><time>2022-11-10T16:22:35.0000000+00:00</time></trkpt><trkpt lat="39.40076522" lon="-0.37983525"><ele>6.6</ele><time>2022-11-10T16:22:36.0000000+00:00</time></trkpt><trkpt lat="39.4007425" lon="-0.3797578"><ele>6.6</ele><time>2022-11-10T16:22:37.0000000+00:00</time></trkpt><trkpt lat="39.40071786" lon="-0.37968303"><ele>6.6</ele><time>2022-11-10T16:22:38.0000000+00:00</time></trkpt><trkpt lat="39.4006912" lon="-0.37961153"><ele>6.8</ele><time>2022-11-10T16:22:39.0000000+00:00</time></trkpt><trkpt lat="39.40066514" lon="-0.37953978"><ele>6.6</ele><time>2022-11-10T16:22:40.0000000+00:00</time></trkpt><trkpt lat="39.40064418" lon="-0.37946544"><ele>6.4</ele><time>2022-11-10T16:22:41.0000000+00:00</time></trkpt><trkpt lat="39.40062733" lon="-0.37938757"><ele>6.4</ele><time>2022-11-10T16:22:42.0000000+00:00</time></trkpt><trkpt lat="39.40060931" lon="-0.37931356"><ele>6.4</ele><time>2022-11-10T16:22:43.0000000+00:00</time></trkpt><trkpt lat="39.40059372" lon="-0.37923804"><ele>6.4</ele><time>2022-11-10T16:22:44.0000000+00:00</time></trkpt><trkpt lat="39.40057738" lon="-0.37916067"><ele>6.4</ele><time>2022-11-10T16:22:45.0000000+00:00</time></trkpt><trkpt lat="39.40056162" lon="-0.37908456"><ele>6.4</ele><time>2022-11-10T16:22:46.0000000+00:00</time></trkpt><trkpt lat="39.40054846" lon="-0.37901281"><ele>6.4</ele><time>2022-11-10T16:22:47.0000000+00:00</time></trkpt><trkpt lat="39.40053538" lon="-0.37894266"><ele>6.4</ele><time>2022-11-10T16:22:48.0000000+00:00</time></trkpt><trkpt lat="39.40052449" lon="-0.37887217"><ele>6.6</ele><time>2022-11-10T16:22:49.0000000+00:00</time></trkpt><trkpt lat="39.40051418" lon="-0.37879966"><ele>6.6</ele><time>2022-11-10T16:22:50.0000000+00:00</time></trkpt><trkpt lat="39.40049917" lon="-0.378728"><ele>6.6</ele><time>2022-11-10T16:22:51.0000000+00:00</time></trkpt><trkpt lat="39.400484" lon="-0.37865533"><ele>6.6</ele><time>2022-11-10T16:22:52.0000000+00:00</time></trkpt><trkpt lat="39.40046992" lon="-0.37858207"><ele>6.4</ele><time>2022-11-10T16:22:53.0000000+00:00</time></trkpt><trkpt lat="39.4004571" lon="-0.378512"><ele>6.6</ele><time>2022-11-10T16:22:54.0000000+00:00</time></trkpt><trkpt lat="39.40043991" lon="-0.37844779"><ele>6.6</ele><time>2022-11-10T16:22:55.0000000+00:00</time></trkpt><trkpt lat="39.40042181" lon="-0.37838727"><ele>6.6</ele><time>2022-11-10T16:22:56.0000000+00:00</time></trkpt><trkpt lat="39.40040186" lon="-0.37833296"><ele>6.6</ele><time>2022-11-10T16:22:57.0000000+00:00</time></trkpt><trkpt lat="39.40038392" lon="-0.37828493"><ele>6.4</ele><time>2022-11-10T16:22:58.0000000+00:00</time></trkpt><trkpt lat="39.40037035" lon="-0.37823472"><ele>6.4</ele><time>2022-11-10T16:22:59.0000000+00:00</time></trkpt><trkpt lat="39.40036012" lon="-0.37818016"><ele>6.2</ele><time>2022-11-10T16:23:00.0000000+00:00</time></trkpt><trkpt lat="39.4003514" lon="-0.37812199"><ele>6.2</ele><time>2022-11-10T16:23:01.0000000+00:00</time></trkpt><trkpt lat="39.40034411" lon="-0.37806541"><ele>6.2</ele><time>2022-11-10T16:23:02.0000000+00:00</time></trkpt><trkpt lat="39.40033279" lon="-0.37801704"><ele>6.2</ele><time>2022-11-10T16:23:03.0000000+00:00</time></trkpt><trkpt lat="39.40031913" lon="-0.37797187"><ele>6.2</ele><time>2022-11-10T16:23:04.0000000+00:00</time></trkpt><trkpt lat="39.40030572" lon="-0.37792509"><ele>6.2</ele><time>2022-11-10T16:23:05.0000000+00:00</time></trkpt><trkpt lat="39.40029298" lon="-0.37787807"><ele>6.2</ele><time>2022-11-10T16:23:06.0000000+00:00</time></trkpt><trkpt lat="39.40028234" lon="-0.37783306"><ele>6.2</ele><time>2022-11-10T16:23:07.0000000+00:00</time></trkpt><trkpt lat="39.40027496" lon="-0.37778495"><ele>6.2</ele><time>2022-11-10T16:23:08.0000000+00:00</time></trkpt><trkpt lat="39.40026758" lon="-0.37773457"><ele>6.2</ele><time>2022-11-10T16:23:09.0000000+00:00</time></trkpt><trkpt lat="39.40025769" lon="-0.37768378"><ele>6.2</ele><time>2022-11-10T16:23:10.0000000+00:00</time></trkpt><trkpt lat="39.40024403" lon="-0.37763097"><ele>6.2</ele><time>2022-11-10T16:23:11.0000000+00:00</time></trkpt><trkpt lat="39.40022961" lon="-0.37757616"><ele>6.2</ele><time>2022-11-10T16:23:12.0000000+00:00</time></trkpt><trkpt lat="39.40021268" lon="-0.37752176"><ele>6.2</ele><time>2022-11-10T16:23:13.0000000+00:00</time></trkpt><trkpt lat="39.40019458" lon="-0.37746778"><ele>6.2</ele><time>2022-11-10T16:23:14.0000000+00:00</time></trkpt><trkpt lat="39.40018041" lon="-0.37741271"><ele>6.2</ele><time>2022-11-10T16:23:15.0000000+00:00</time></trkpt><trkpt lat="39.40016231" lon="-0.37735504"><ele>6.2</ele><time>2022-11-10T16:23:16.0000000+00:00</time></trkpt><trkpt lat="39.40015233" lon="-0.37729293"><ele>6.2</ele><time>2022-11-10T16:23:17.0000000+00:00</time></trkpt><trkpt lat="39.40014076" lon="-0.3772304"><ele>6.2</ele><time>2022-11-10T16:23:18.0000000+00:00</time></trkpt><trkpt lat="39.40012828" lon="-0.37716846"><ele>6.2</ele><time>2022-11-10T16:23:19.0000000+00:00</time></trkpt><trkpt lat="39.4001121" lon="-0.37710593"><ele>6.2</ele><time>2022-11-10T16:23:20.0000000+00:00</time></trkpt><trkpt lat="39.40009584" lon="-0.37704332"><ele>6.2</ele><time>2022-11-10T16:23:21.0000000+00:00</time></trkpt><trkpt lat="39.40008184" lon="-0.37697962"><ele>6.2</ele><time>2022-11-10T16:23:22.0000000+00:00</time></trkpt><trkpt lat="39.40006684" lon="-0.37691499"><ele>6.2</ele><time>2022-11-10T16:23:23.0000000+00:00</time></trkpt><trkpt lat="39.40005292" lon="-0.37685162"><ele>6.2</ele><time>2022-11-10T16:23:24.0000000+00:00</time></trkpt><trkpt lat="39.40003599" lon="-0.37678809"><ele>6.2</ele><time>2022-11-10T16:23:25.0000000+00:00</time></trkpt><trkpt lat="39.40001822" lon="-0.37672405"><ele>6.2</ele><time>2022-11-10T16:23:26.0000000+00:00</time></trkpt><trkpt lat="39.39999928" lon="-0.37665993"><ele>6.2</ele><time>2022-11-10T16:23:27.0000000+00:00</time></trkpt><trkpt lat="39.3999795" lon="-0.3765974"><ele>6.2</ele><time>2022-11-10T16:23:28.0000000+00:00</time></trkpt><trkpt lat="39.39996106" lon="-0.37653538"><ele>6.2</ele><time>2022-11-10T16:23:29.0000000+00:00</time></trkpt><trkpt lat="39.39993968" lon="-0.37647276"><ele>6.2</ele><time>2022-11-10T16:23:30.0000000+00:00</time></trkpt><trkpt lat="39.39991747" lon="-0.37641484"><ele>6.2</ele><time>2022-11-10T16:23:31.0000000+00:00</time></trkpt><trkpt lat="39.39989543" lon="-0.37635651"><ele>6.2</ele><time>2022-11-10T16:23:32.0000000+00:00</time></trkpt><trkpt lat="39.39987606" lon="-0.3762954"><ele>6.2</ele><time>2022-11-10T16:23:33.0000000+00:00</time></trkpt><trkpt lat="39.39986131" lon="-0.37623405"><ele>6.2</ele><time>2022-11-10T16:23:34.0000000+00:00</time></trkpt><trkpt lat="39.39984103" lon="-0.37617428"><ele>6.4</ele><time>2022-11-10T16:23:35.0000000+00:00</time></trkpt><trkpt lat="39.39981546" lon="-0.37611947"><ele>6.4</ele><time>2022-11-10T16:23:36.0000000+00:00</time></trkpt><trkpt lat="39.39979585" lon="-0.37605593"><ele>6.4</ele><time>2022-11-10T16:23:37.0000000+00:00</time></trkpt><trkpt lat="39.39978043" lon="-0.37599038"><ele>6.4</ele><time>2022-11-10T16:23:38.0000000+00:00</time></trkpt><trkpt lat="39.39976752" lon="-0.37592559"><ele>6.4</ele><time>2022-11-10T16:23:39.0000000+00:00</time></trkpt><trkpt lat="39.39975553" lon="-0.37585929"><ele>6.4</ele><time>2022-11-10T16:23:40.0000000+00:00</time></trkpt><trkpt lat="39.39974514" lon="-0.37578746"><ele>6.4</ele><time>2022-11-10T16:23:41.0000000+00:00</time></trkpt><trkpt lat="39.39973466" lon="-0.37571118"><ele>6.4</ele><time>2022-11-10T16:23:42.0000000+00:00</time></trkpt><trkpt lat="39.39972402" lon="-0.37563449"><ele>6.4</ele><time>2022-11-10T16:23:43.0000000+00:00</time></trkpt><trkpt lat="39.39971027" lon="-0.37556165"><ele>6.4</ele><time>2022-11-10T16:23:44.0000000+00:00</time></trkpt><trkpt lat="39.39969233" lon="-0.37549367"><ele>6.4</ele><time>2022-11-10T16:23:45.0000000+00:00</time></trkpt><trkpt lat="39.39967339" lon="-0.37542444"><ele>6.4</ele><time>2022-11-10T16:23:46.0000000+00:00</time></trkpt><trkpt lat="39.39965646" lon="-0.37535478"><ele>6.4</ele><time>2022-11-10T16:23:47.0000000+00:00</time></trkpt><trkpt lat="39.39964523" lon="-0.37528278"><ele>6.4</ele><time>2022-11-10T16:23:48.0000000+00:00</time></trkpt><trkpt lat="39.3996319" lon="-0.37520642"><ele>6.4</ele><time>2022-11-10T16:23:49.0000000+00:00</time></trkpt><trkpt lat="39.39961413" lon="-0.3751356"><ele>6.6</ele><time>2022-11-10T16:23:50.0000000+00:00</time></trkpt><trkpt lat="39.39959158" lon="-0.37506636"><ele>6.6</ele><time>2022-11-10T16:23:51.0000000+00:00</time></trkpt><trkpt lat="39.39956669" lon="-0.37499897"><ele>6.6</ele><time>2022-11-10T16:23:52.0000000+00:00</time></trkpt><trkpt lat="39.39954137" lon="-0.37493049"><ele>6.4</ele><time>2022-11-10T16:23:53.0000000+00:00</time></trkpt><trkpt lat="39.39951698" lon="-0.37485698"><ele>6.6</ele><time>2022-11-10T16:23:54.0000000+00:00</time></trkpt><trkpt lat="39.39949486" lon="-0.37478062"><ele>6.6</ele><time>2022-11-10T16:23:55.0000000+00:00</time></trkpt><trkpt lat="39.39947801" lon="-0.37470636"><ele>6.6</ele><time>2022-11-10T16:23:56.0000000+00:00</time></trkpt><trkpt lat="39.3994589" lon="-0.37463285"><ele>6.6</ele><time>2022-11-10T16:23:57.0000000+00:00</time></trkpt><trkpt lat="39.39943895" lon="-0.37455792"><ele>6.6</ele><time>2022-11-10T16:23:58.0000000+00:00</time></trkpt><trkpt lat="39.399419" lon="-0.37448248"><ele>6.6</ele><time>2022-11-10T16:23:59.0000000+00:00</time></trkpt><trkpt lat="39.39939679" lon="-0.37440863"><ele>6.6</ele><time>2022-11-10T16:24:00.0000000+00:00</time></trkpt><trkpt lat="39.39937181" lon="-0.37433269"><ele>6.6</ele><time>2022-11-10T16:24:01.0000000+00:00</time></trkpt><trkpt lat="39.3993527" lon="-0.37425592"><ele>6.6</ele><time>2022-11-10T16:24:02.0000000+00:00</time></trkpt><trkpt lat="39.39933443" lon="-0.37418149"><ele>6.6</ele><time>2022-11-10T16:24:03.0000000+00:00</time></trkpt><trkpt lat="39.39931833" lon="-0.37410898"><ele>6.6</ele><time>2022-11-10T16:24:04.0000000+00:00</time></trkpt><trkpt lat="39.3992983" lon="-0.37403891"><ele>6.6</ele><time>2022-11-10T16:24:05.0000000+00:00</time></trkpt><trkpt lat="39.39927408" lon="-0.3739716"><ele>6.6</ele><time>2022-11-10T16:24:06.0000000+00:00</time></trkpt><trkpt lat="39.39925002" lon="-0.3739058"><ele>6.6</ele><time>2022-11-10T16:24:07.0000000+00:00</time></trkpt><trkpt lat="39.39922672" lon="-0.37384001"><ele>6.6</ele><time>2022-11-10T16:24:08.0000000+00:00</time></trkpt><trkpt lat="39.39920417" lon="-0.37377278"><ele>6.6</ele><time>2022-11-10T16:24:09.0000000+00:00</time></trkpt><trkpt lat="39.39918389" lon="-0.37370296"><ele>6.6</ele><time>2022-11-10T16:24:10.0000000+00:00</time></trkpt><trkpt lat="39.39916595" lon="-0.3736282"><ele>6.6</ele><time>2022-11-10T16:24:11.0000000+00:00</time></trkpt><trkpt lat="39.39914608" lon="-0.37355251"><ele>6.8</ele><time>2022-11-10T16:24:12.0000000+00:00</time></trkpt><trkpt lat="39.39912764" lon="-0.37347699"><ele>6.8</ele><time>2022-11-10T16:24:13.0000000+00:00</time></trkpt><trkpt lat="39.39910887" lon="-0.37340499"><ele>6.8</ele><time>2022-11-10T16:24:14.0000000+00:00</time></trkpt><trkpt lat="39.39908976" lon="-0.37333215"><ele>6.8</ele><time>2022-11-10T16:24:15.0000000+00:00</time></trkpt><trkpt lat="39.39907023" lon="-0.37325948"><ele>6.8</ele><time>2022-11-10T16:24:16.0000000+00:00</time></trkpt><trkpt lat="39.3990481" lon="-0.37318932"><ele>6.8</ele><time>2022-11-10T16:24:17.0000000+00:00</time></trkpt><trkpt lat="39.39902807" lon="-0.37312017"><ele>6.8</ele><time>2022-11-10T16:24:18.0000000+00:00</time></trkpt><trkpt lat="39.39900778" lon="-0.37305043"><ele>6.8</ele><time>2022-11-10T16:24:19.0000000+00:00</time></trkpt><trkpt lat="39.39898649" lon="-0.37298078"><ele>6.8</ele><time>2022-11-10T16:24:20.0000000+00:00</time></trkpt><trkpt lat="39.39896143" lon="-0.37291221"><ele>6.8</ele><time>2022-11-10T16:24:21.0000000+00:00</time></trkpt><trkpt lat="39.39893922" lon="-0.37284172"><ele>6.8</ele><time>2022-11-10T16:24:22.0000000+00:00</time></trkpt><trkpt lat="39.39891634" lon="-0.37277031"><ele>6.8</ele><time>2022-11-10T16:24:23.0000000+00:00</time></trkpt><trkpt lat="39.39889588" lon="-0.37269898"><ele>6.8</ele><time>2022-11-10T16:24:24.0000000+00:00</time></trkpt><trkpt lat="39.39887384" lon="-0.37262597"><ele>6.8</ele><time>2022-11-10T16:24:25.0000000+00:00</time></trkpt><trkpt lat="39.39885188" lon="-0.37255724"><ele>6.6</ele><time>2022-11-10T16:24:26.0000000+00:00</time></trkpt><trkpt lat="39.39882908" lon="-0.37249681"><ele>6.6</ele><time>2022-11-10T16:24:27.0000000+00:00</time></trkpt><trkpt lat="39.39880352" lon="-0.37243553"><ele>6.4</ele><time>2022-11-10T16:24:28.0000000+00:00</time></trkpt><trkpt lat="39.39878038" lon="-0.37237544"><ele>6.4</ele><time>2022-11-10T16:24:29.0000000+00:00</time></trkpt><trkpt lat="39.3987601" lon="-0.37231727"><ele>6.4</ele><time>2022-11-10T16:24:30.0000000+00:00</time></trkpt><trkpt lat="39.39874124" lon="-0.37225734"><ele>6.4</ele><time>2022-11-10T16:24:31.0000000+00:00</time></trkpt><trkpt lat="39.39872841" lon="-0.3721943"><ele>6.4</ele><time>2022-11-10T16:24:32.0000000+00:00</time></trkpt><trkpt lat="39.3987176" lon="-0.37213664"><ele>6.2</ele><time>2022-11-10T16:24:33.0000000+00:00</time></trkpt><trkpt lat="39.3986974" lon="-0.3721011"><ele>6.2</ele><time>2022-11-10T16:24:34.0000000+00:00</time></trkpt><trkpt lat="39.39867854" lon="-0.37207511"><ele>6.2</ele><time>2022-11-10T16:24:35.0000000+00:00</time></trkpt><trkpt lat="39.3986715" lon="-0.37206413"><ele>6.0</ele><time>2022-11-10T16:24:36.0000000+00:00</time></trkpt><trkpt lat="39.39867251" lon="-0.37206204"><ele>6.0</ele><time>2022-11-10T16:24:37.0000000+00:00</time></trkpt><trkpt lat="39.3986705" lon="-0.37205709"><ele>5.8</ele><time>2022-11-10T16:24:38.0000000+00:00</time></trkpt><trkpt lat="39.3986705" lon="-0.37205709"><ele>5.8</ele><time>2022-11-10T16:24:39.0000000+00:00</time></trkpt><trkpt lat="39.3986705" lon="-0.37205709"><ele>5.6</ele><time>2022-11-10T16:24:40.0000000+00:00</time></trkpt><trkpt lat="39.3986705" lon="-0.37205709"><ele>5.6</ele><time>2022-11-10T16:24:41.0000000+00:00</time></trkpt><trkpt lat="39.3986705" lon="-0.37205709"><ele>5.6</ele><time>2022-11-10T16:24:42.0000000+00:00</time></trkpt><trkpt lat="39.3986705" lon="-0.37205709"><ele>5.6</ele><time>2022-11-10T16:24:43.0000000+00:00</time></trkpt><trkpt lat="39.3986705" lon="-0.37205709"><ele>5.6</ele><time>2022-11-10T16:24:44.0000000+00:00</time></trkpt><trkpt lat="39.3986663" lon="-0.37205466"><ele>5.6</ele><time>2022-11-10T16:24:45.0000000+00:00</time></trkpt><trkpt lat="39.39865591" lon="-0.37204896"><ele>5.6</ele><time>2022-11-10T16:24:46.0000000+00:00</time></trkpt><trkpt lat="39.39864527" lon="-0.37203924"><ele>5.6</ele><time>2022-11-10T16:24:47.0000000+00:00</time></trkpt><trkpt lat="39.39863219" lon="-0.37201745"><ele>5.6</ele><time>2022-11-10T16:24:48.0000000+00:00</time></trkpt><trkpt lat="39.39861668" lon="-0.37198953"><ele>5.6</ele><time>2022-11-10T16:24:49.0000000+00:00</time></trkpt><trkpt lat="39.39860009" lon="-0.37195944"><ele>5.6</ele><time>2022-11-10T16:24:50.0000000+00:00</time></trkpt><trkpt lat="39.39858601" lon="-0.37192985"><ele>5.4</ele><time>2022-11-10T16:24:51.0000000+00:00</time></trkpt><trkpt lat="39.39857276" lon="-0.37189918"><ele>4.8</ele><time>2022-11-10T16:24:52.0000000+00:00</time></trkpt><trkpt lat="39.3985539" lon="-0.37187588"><ele>4.2</ele><time>2022-11-10T16:24:53.0000000+00:00</time></trkpt><trkpt lat="39.39852792" lon="-0.37186582"><ele>3.8</ele><time>2022-11-10T16:24:54.0000000+00:00</time></trkpt><trkpt lat="39.39849313" lon="-0.37187588"><ele>3.2</ele><time>2022-11-10T16:24:55.0000000+00:00</time></trkpt><trkpt lat="39.3984555" lon="-0.37190178"><ele>2.8</ele><time>2022-11-10T16:24:56.0000000+00:00</time></trkpt><trkpt lat="39.39841937" lon="-0.37193187"><ele>2.4</ele><time>2022-11-10T16:24:57.0000000+00:00</time></trkpt><trkpt lat="39.39838258" lon="-0.37196254"><ele>2.2</ele><time>2022-11-10T16:24:58.0000000+00:00</time></trkpt><trkpt lat="39.39834788" lon="-0.37198953"><ele>2.0</ele><time>2022-11-10T16:24:59.0000000+00:00</time></trkpt><trkpt lat="39.3983125" lon="-0.3720161"><ele>1.8</ele><time>2022-11-10T16:25:00.0000000+00:00</time></trkpt><trkpt lat="39.39827847" lon="-0.37204167"><ele>1.8</ele><time>2022-11-10T16:25:01.0000000+00:00</time></trkpt><trkpt lat="39.3982483" lon="-0.37206598"><ele>1.8</ele><time>2022-11-10T16:25:02.0000000+00:00</time></trkpt><trkpt lat="39.39821703" lon="-0.37208702"><ele>1.6</ele><time>2022-11-10T16:25:03.0000000+00:00</time></trkpt><trkpt lat="39.39819046" lon="-0.37210805"><ele>1.8</ele><time>2022-11-10T16:25:04.0000000+00:00</time></trkpt><trkpt lat="39.39816305" lon="-0.37212892"><ele>1.6</ele><time>2022-11-10T16:25:05.0000000+00:00</time></trkpt><trkpt lat="39.39813799" lon="-0.37215332"><ele>1.6</ele><time>2022-11-10T16:25:06.0000000+00:00</time></trkpt><trkpt lat="39.39811813" lon="-0.37218056"><ele>1.6</ele><time>2022-11-10T16:25:07.0000000+00:00</time></trkpt><trkpt lat="39.3980965" lon="-0.3722073"><ele>1.6</ele><time>2022-11-10T16:25:08.0000000+00:00</time></trkpt><trkpt lat="39.3980732" lon="-0.37223068"><ele>1.6</ele><time>2022-11-10T16:25:09.0000000+00:00</time></trkpt><trkpt lat="39.39804856" lon="-0.37225457"><ele>1.6</ele><time>2022-11-10T16:25:10.0000000+00:00</time></trkpt><trkpt lat="39.3980188" lon="-0.37228181"><ele>1.6</ele><time>2022-11-10T16:25:11.0000000+00:00</time></trkpt><trkpt lat="39.39798435" lon="-0.3723124"><ele>1.6</ele><time>2022-11-10T16:25:12.0000000+00:00</time></trkpt><trkpt lat="39.39794806" lon="-0.37234392"><ele>1.6</ele><time>2022-11-10T16:25:13.0000000+00:00</time></trkpt><trkpt lat="39.39791235" lon="-0.37237544"><ele>1.6</ele><time>2022-11-10T16:25:14.0000000+00:00</time></trkpt><trkpt lat="39.39787296" lon="-0.37240402"><ele>1.6</ele><time>2022-11-10T16:25:15.0000000+00:00</time></trkpt><trkpt lat="39.39783189" lon="-0.37242833"><ele>1.8</ele><time>2022-11-10T16:25:16.0000000+00:00</time></trkpt><trkpt lat="39.39779626" lon="-0.37245364"><ele>1.8</ele><time>2022-11-10T16:25:17.0000000+00:00</time></trkpt><trkpt lat="39.39776047" lon="-0.37248147"><ele>1.8</ele><time>2022-11-10T16:25:18.0000000+00:00</time></trkpt><trkpt lat="39.39772879" lon="-0.37250779"><ele>1.6</ele><time>2022-11-10T16:25:19.0000000+00:00</time></trkpt><trkpt lat="39.3977049" lon="-0.37252673"><ele>1.6</ele><time>2022-11-10T16:25:20.0000000+00:00</time></trkpt><trkpt lat="39.39768671" lon="-0.37254022"><ele>1.6</ele><time>2022-11-10T16:25:21.0000000+00:00</time></trkpt><trkpt lat="39.3976738" lon="-0.37255582"><ele>1.6</ele><time>2022-11-10T16:25:22.0000000+00:00</time></trkpt><trkpt lat="39.39766894" lon="-0.37257526"><ele>1.4</ele><time>2022-11-10T16:25:23.0000000+00:00</time></trkpt><trkpt lat="39.39767271" lon="-0.37259521"><ele>1.4</ele><time>2022-11-10T16:25:24.0000000+00:00</time></trkpt><trkpt lat="39.39768051" lon="-0.37261658"><ele>1.4</ele><time>2022-11-10T16:25:25.0000000+00:00</time></trkpt><trkpt lat="39.3976904" lon="-0.37263704"><ele>1.4</ele><time>2022-11-10T16:25:26.0000000+00:00</time></trkpt><trkpt lat="39.39769954" lon="-0.37266017"><ele>1.4</ele><time>2022-11-10T16:25:27.0000000+00:00</time></trkpt><trkpt lat="39.39771052" lon="-0.37268389"><ele>1.4</ele><time>2022-11-10T16:25:28.0000000+00:00</time></trkpt><trkpt lat="39.39772351" lon="-0.37271373"><ele>1.4</ele><time>2022-11-10T16:25:29.0000000+00:00</time></trkpt><trkpt lat="39.39773633" lon="-0.37274642"><ele>1.4</ele><time>2022-11-10T16:25:30.0000000+00:00</time></trkpt><trkpt lat="39.39775217" lon="-0.37278028"><ele>1.4</ele><time>2022-11-10T16:25:31.0000000+00:00</time></trkpt><trkpt lat="39.39776802" lon="-0.37281473"><ele>1.4</ele><time>2022-11-10T16:25:32.0000000+00:00</time></trkpt><trkpt lat="39.39777983" lon="-0.37285136"><ele>1.6</ele><time>2022-11-10T16:25:33.0000000+00:00</time></trkpt><trkpt lat="39.39777941" lon="-0.37288858"><ele>1.6</ele><time>2022-11-10T16:25:34.0000000+00:00</time></trkpt><trkpt lat="39.39776584" lon="-0.37291842"><ele>1.6</ele><time>2022-11-10T16:25:35.0000000+00:00</time></trkpt><trkpt lat="39.39774287" lon="-0.37294004"><ele>1.6</ele><time>2022-11-10T16:25:36.0000000+00:00</time></trkpt><trkpt lat="39.39771404" lon="-0.37295781"><ele>1.8</ele><time>2022-11-10T16:25:37.0000000+00:00</time></trkpt><trkpt lat="39.39769778" lon="-0.37297374"><ele>1.8</ele><time>2022-11-10T16:25:38.0000000+00:00</time></trkpt><trkpt lat="39.39767908" lon="-0.37298597"><ele>1.8</ele><time>2022-11-10T16:25:39.0000000+00:00</time></trkpt><trkpt lat="39.3976505" lon="-0.37299888"><ele>1.8</ele><time>2022-11-10T16:25:40.0000000+00:00</time></trkpt><trkpt lat="39.39762594" lon="-0.3730159"><ele>1.8</ele><time>2022-11-10T16:25:41.0000000+00:00</time></trkpt><trkpt lat="39.39759853" lon="-0.37303501"><ele>1.8</ele><time>2022-11-10T16:25:42.0000000+00:00</time></trkpt><trkpt lat="39.39756526" lon="-0.37304901"><ele>1.8</ele><time>2022-11-10T16:25:43.0000000+00:00</time></trkpt><trkpt lat="39.3975288" lon="-0.37306736"><ele>1.8</ele><time>2022-11-10T16:25:44.0000000+00:00</time></trkpt><trkpt lat="39.39749133" lon="-0.37308865"><ele>1.8</ele><time>2022-11-10T16:25:45.0000000+00:00</time></trkpt><trkpt lat="39.39745143" lon="-0.3731091"><ele>1.8</ele><time>2022-11-10T16:25:46.0000000+00:00</time></trkpt><trkpt lat="39.39741137" lon="-0.37312922"><ele>1.8</ele><time>2022-11-10T16:25:47.0000000+00:00</time></trkpt><trkpt lat="39.39737046" lon="-0.37315437"><ele>1.8</ele><time>2022-11-10T16:25:48.0000000+00:00</time></trkpt><trkpt lat="39.39732914" lon="-0.37317951"><ele>1.8</ele><time>2022-11-10T16:25:49.0000000+00:00</time></trkpt><trkpt lat="39.39728765" lon="-0.37320709"><ele>1.8</ele><time>2022-11-10T16:25:50.0000000+00:00</time></trkpt><trkpt lat="39.3972439" lon="-0.37323835"><ele>1.8</ele><time>2022-11-10T16:25:51.0000000+00:00</time></trkpt><trkpt lat="39.3971988" lon="-0.37326903"><ele>1.8</ele><time>2022-11-10T16:25:52.0000000+00:00</time></trkpt><trkpt lat="39.39715471" lon="-0.37330021"><ele>1.6</ele><time>2022-11-10T16:25:53.0000000+00:00</time></trkpt><trkpt lat="39.39710962" lon="-0.37333206"><ele>1.6</ele><time>2022-11-10T16:25:54.0000000+00:00</time></trkpt><trkpt lat="39.39706209" lon="-0.37336224"><ele>1.8</ele><time>2022-11-10T16:25:55.0000000+00:00</time></trkpt><trkpt lat="39.39701398" lon="-0.3733956"><ele>1.6</ele><time>2022-11-10T16:25:56.0000000+00:00</time></trkpt><trkpt lat="39.39696411" lon="-0.3734272"><ele>1.6</ele><time>2022-11-10T16:25:57.0000000+00:00</time></trkpt><trkpt lat="39.39691583" lon="-0.37345494"><ele>1.6</ele><time>2022-11-10T16:25:58.0000000+00:00</time></trkpt><trkpt lat="39.39686788" lon="-0.3734816"><ele>1.6</ele><time>2022-11-10T16:25:59.0000000+00:00</time></trkpt><trkpt lat="39.39682111" lon="-0.37351211"><ele>1.6</ele><time>2022-11-10T16:26:00.0000000+00:00</time></trkpt><trkpt lat="39.39677635" lon="-0.37354312"><ele>1.6</ele><time>2022-11-10T16:26:01.0000000+00:00</time></trkpt><trkpt lat="39.39673184" lon="-0.37357497"><ele>1.6</ele><time>2022-11-10T16:26:02.0000000+00:00</time></trkpt><trkpt lat="39.39668398" lon="-0.37360607"><ele>1.6</ele><time>2022-11-10T16:26:03.0000000+00:00</time></trkpt><trkpt lat="39.39663487" lon="-0.373638"><ele>1.6</ele><time>2022-11-10T16:26:04.0000000+00:00</time></trkpt><trkpt lat="39.39658642" lon="-0.37366809"><ele>1.6</ele><time>2022-11-10T16:26:05.0000000+00:00</time></trkpt><trkpt lat="39.39653361" lon="-0.3736971"><ele>1.6</ele><time>2022-11-10T16:26:06.0000000+00:00</time></trkpt><trkpt lat="39.39648198" lon="-0.37372794"><ele>1.6</ele><time>2022-11-10T16:26:07.0000000+00:00</time></trkpt><trkpt lat="39.39642984" lon="-0.37375786"><ele>1.6</ele><time>2022-11-10T16:26:08.0000000+00:00</time></trkpt><trkpt lat="39.39637888" lon="-0.37378653"><ele>1.6</ele><time>2022-11-10T16:26:09.0000000+00:00</time></trkpt><trkpt lat="39.39632767" lon="-0.37382048"><ele>1.6</ele><time>2022-11-10T16:26:10.0000000+00:00</time></trkpt><trkpt lat="39.3962778" lon="-0.37385233"><ele>1.6</ele><time>2022-11-10T16:26:11.0000000+00:00</time></trkpt><trkpt lat="39.39622616" lon="-0.37388175"><ele>1.6</ele><time>2022-11-10T16:26:12.0000000+00:00</time></trkpt><trkpt lat="39.39617193" lon="-0.37391134"><ele>1.6</ele><time>2022-11-10T16:26:13.0000000+00:00</time></trkpt><trkpt lat="39.39612231" lon="-0.37394956"><ele>1.6</ele><time>2022-11-10T16:26:14.0000000+00:00</time></trkpt><trkpt lat="39.39607177" lon="-0.37398661"><ele>1.6</ele><time>2022-11-10T16:26:15.0000000+00:00</time></trkpt><trkpt lat="39.39602198" lon="-0.37402449"><ele>1.6</ele><time>2022-11-10T16:26:16.0000000+00:00</time></trkpt><trkpt lat="39.39597026" lon="-0.3740612"><ele>1.6</ele><time>2022-11-10T16:26:17.0000000+00:00</time></trkpt><trkpt lat="39.39591838" lon="-0.37409901"><ele>1.6</ele><time>2022-11-10T16:26:18.0000000+00:00</time></trkpt><trkpt lat="39.39586423" lon="-0.37413488"><ele>1.6</ele><time>2022-11-10T16:26:19.0000000+00:00</time></trkpt><trkpt lat="39.39580891" lon="-0.37417034"><ele>1.6</ele><time>2022-11-10T16:26:20.0000000+00:00</time></trkpt><trkpt lat="39.39575334" lon="-0.3742068"><ele>1.6</ele><time>2022-11-10T16:26:21.0000000+00:00</time></trkpt><trkpt lat="39.3956981" lon="-0.37424645"><ele>1.6</ele><time>2022-11-10T16:26:22.0000000+00:00</time></trkpt><trkpt lat="39.39564413" lon="-0.3742876"><ele>1.6</ele><time>2022-11-10T16:26:23.0000000+00:00</time></trkpt><trkpt lat="39.39559006" lon="-0.37432691"><ele>1.6</ele><time>2022-11-10T16:26:24.0000000+00:00</time></trkpt><trkpt lat="39.39553374" lon="-0.37436362"><ele>1.6</ele><time>2022-11-10T16:26:25.0000000+00:00</time></trkpt><trkpt lat="39.39547582" lon="-0.3744005"><ele>1.8</ele><time>2022-11-10T16:26:26.0000000+00:00</time></trkpt><trkpt lat="39.39541731" lon="-0.37443889"><ele>1.8</ele><time>2022-11-10T16:26:27.0000000+00:00</time></trkpt><trkpt lat="39.39536065" lon="-0.37447586"><ele>1.6</ele><time>2022-11-10T16:26:28.0000000+00:00</time></trkpt><trkpt lat="39.39530483" lon="-0.37450905"><ele>1.6</ele><time>2022-11-10T16:26:29.0000000+00:00</time></trkpt><trkpt lat="39.39524917" lon="-0.3745461"><ele>1.4</ele><time>2022-11-10T16:26:30.0000000+00:00</time></trkpt><trkpt lat="39.39519133" lon="-0.37458382"><ele>1.2</ele><time>2022-11-10T16:26:31.0000000+00:00</time></trkpt><trkpt lat="39.39513685" lon="-0.37462522"><ele>1.2</ele><time>2022-11-10T16:26:32.0000000+00:00</time></trkpt><trkpt lat="39.3950817" lon="-0.37466261"><ele>1.2</ele><time>2022-11-10T16:26:33.0000000+00:00</time></trkpt><trkpt lat="39.39502462" lon="-0.37470158"><ele>1.2</ele><time>2022-11-10T16:26:34.0000000+00:00</time></trkpt><trkpt lat="39.39496703" lon="-0.37473729"><ele>1.2</ele><time>2022-11-10T16:26:35.0000000+00:00</time></trkpt><trkpt lat="39.3949087" lon="-0.37477191"><ele>1.2</ele><time>2022-11-10T16:26:36.0000000+00:00</time></trkpt><trkpt lat="39.39485028" lon="-0.37480451"><ele>1.2</ele><time>2022-11-10T16:26:37.0000000+00:00</time></trkpt><trkpt lat="39.39479261" lon="-0.37483393"><ele>1.2</ele><time>2022-11-10T16:26:38.0000000+00:00</time></trkpt><trkpt lat="39.39473352" lon="-0.37486729"><ele>1.2</ele><time>2022-11-10T16:26:39.0000000+00:00</time></trkpt><trkpt lat="39.39467543" lon="-0.37490476"><ele>1.4</ele><time>2022-11-10T16:26:40.0000000+00:00</time></trkpt><trkpt lat="39.39461634" lon="-0.37494206"><ele>1.4</ele><time>2022-11-10T16:26:41.0000000+00:00</time></trkpt><trkpt lat="39.39456102" lon="-0.37498179"><ele>1.4</ele><time>2022-11-10T16:26:42.0000000+00:00</time></trkpt><trkpt lat="39.39450528" lon="-0.37502009"><ele>1.4</ele><time>2022-11-10T16:26:43.0000000+00:00</time></trkpt><trkpt lat="39.39444778" lon="-0.37505672"><ele>1.4</ele><time>2022-11-10T16:26:44.0000000+00:00</time></trkpt><trkpt lat="39.39438969" lon="-0.37509369"><ele>1.4</ele><time>2022-11-10T16:26:45.0000000+00:00</time></trkpt><trkpt lat="39.39433076" lon="-0.3751299"><ele>1.2</ele><time>2022-11-10T16:26:46.0000000+00:00</time></trkpt><trkpt lat="39.39427343" lon="-0.37516519"><ele>1.2</ele><time>2022-11-10T16:26:47.0000000+00:00</time></trkpt><trkpt lat="39.39421711" lon="-0.37520005"><ele>1.2</ele><time>2022-11-10T16:26:48.0000000+00:00</time></trkpt><trkpt lat="39.39415927" lon="-0.37523593"><ele>1.2</ele><time>2022-11-10T16:26:49.0000000+00:00</time></trkpt><trkpt lat="39.39410127" lon="-0.37527348"><ele>1.0</ele><time>2022-11-10T16:26:50.0000000+00:00</time></trkpt><trkpt lat="39.39404503" lon="-0.37530944"><ele>1.0</ele><time>2022-11-10T16:26:51.0000000+00:00</time></trkpt><trkpt lat="39.39398744" lon="-0.37534456"><ele>1.0</ele><time>2022-11-10T16:26:52.0000000+00:00</time></trkpt><trkpt lat="39.39392944" lon="-0.3753801"><ele>1.0</ele><time>2022-11-10T16:26:53.0000000+00:00</time></trkpt><trkpt lat="39.39387169" lon="-0.37541765"><ele>1.0</ele><time>2022-11-10T16:26:54.0000000+00:00</time></trkpt><trkpt lat="39.39381268" lon="-0.37545419"><ele>1.0</ele><time>2022-11-10T16:26:55.0000000+00:00</time></trkpt><trkpt lat="39.39375308" lon="-0.37549225"><ele>0.8</ele><time>2022-11-10T16:26:56.0000000+00:00</time></trkpt><trkpt lat="39.3936929" lon="-0.37553181"><ele>0.8</ele><time>2022-11-10T16:26:57.0000000+00:00</time></trkpt><trkpt lat="39.39364018" lon="-0.37557204"><ele>0.8</ele><time>2022-11-10T16:26:58.0000000+00:00</time></trkpt><trkpt lat="39.39358846" lon="-0.3756111"><ele>0.6</ele><time>2022-11-10T16:26:59.0000000+00:00</time></trkpt><trkpt lat="39.39354211" lon="-0.37565125"><ele>0.6</ele><time>2022-11-10T16:27:00.0000000+00:00</time></trkpt><trkpt lat="39.39349626" lon="-0.37569224"><ele>0.4</ele><time>2022-11-10T16:27:01.0000000+00:00</time></trkpt><trkpt lat="39.39345125" lon="-0.37573029"><ele>0.4</ele><time>2022-11-10T16:27:02.0000000+00:00</time></trkpt><trkpt lat="39.39340624" lon="-0.37576717"><ele>0.4</ele><time>2022-11-10T16:27:03.0000000+00:00</time></trkpt><trkpt lat="39.39335679" lon="-0.3758007"><ele>0.4</ele><time>2022-11-10T16:27:04.0000000+00:00</time></trkpt><trkpt lat="39.39330465" lon="-0.37583306"><ele>0.6</ele><time>2022-11-10T16:27:05.0000000+00:00</time></trkpt><trkpt lat="39.39325176" lon="-0.3758603"><ele>0.8</ele><time>2022-11-10T16:27:06.0000000+00:00</time></trkpt><trkpt lat="39.39319963" lon="-0.37589198"><ele>0.8</ele><time>2022-11-10T16:27:07.0000000+00:00</time></trkpt><trkpt lat="39.39314372" lon="-0.37592148"><ele>1.0</ele><time>2022-11-10T16:27:08.0000000+00:00</time></trkpt><trkpt lat="39.39308764" lon="-0.37595292"><ele>1.0</ele><time>2022-11-10T16:27:09.0000000+00:00</time></trkpt><trkpt lat="39.39303182" lon="-0.37598259"><ele>1.0</ele><time>2022-11-10T16:27:10.0000000+00:00</time></trkpt><trkpt lat="39.39298044" lon="-0.37601176"><ele>1.0</ele><time>2022-11-10T16:27:11.0000000+00:00</time></trkpt><trkpt lat="39.39293183" lon="-0.37603942"><ele>1.2</ele><time>2022-11-10T16:27:12.0000000+00:00</time></trkpt><trkpt lat="39.39287969" lon="-0.37606549"><ele>1.2</ele><time>2022-11-10T16:27:13.0000000+00:00</time></trkpt><trkpt lat="39.3928273" lon="-0.37608988"><ele>1.2</ele><time>2022-11-10T16:27:14.0000000+00:00</time></trkpt><trkpt lat="39.3927786" lon="-0.37611854"><ele>1.2</ele><time>2022-11-10T16:27:15.0000000+00:00</time></trkpt><trkpt lat="39.39273041" lon="-0.37614654"><ele>1.2</ele><time>2022-11-10T16:27:16.0000000+00:00</time></trkpt><trkpt lat="39.39267995" lon="-0.37617831"><ele>1.2</ele><time>2022-11-10T16:27:17.0000000+00:00</time></trkpt><trkpt lat="39.39262748" lon="-0.37621276"><ele>1.2</ele><time>2022-11-10T16:27:18.0000000+00:00</time></trkpt><trkpt lat="39.39257367" lon="-0.37624813"><ele>1.2</ele><time>2022-11-10T16:27:19.0000000+00:00</time></trkpt><trkpt lat="39.39252002" lon="-0.37628224"><ele>1.2</ele><time>2022-11-10T16:27:20.0000000+00:00</time></trkpt><trkpt lat="39.39246504" lon="-0.37631334"><ele>1.0</ele><time>2022-11-10T16:27:21.0000000+00:00</time></trkpt><trkpt lat="39.39240988" lon="-0.37634661"><ele>1.0</ele><time>2022-11-10T16:27:22.0000000+00:00</time></trkpt><trkpt lat="39.3923544" lon="-0.37637863"><ele>1.0</ele><time>2022-11-10T16:27:23.0000000+00:00</time></trkpt><trkpt lat="39.3922953" lon="-0.3764099"><ele>1.0</ele><time>2022-11-10T16:27:24.0000000+00:00</time></trkpt><trkpt lat="39.39223546" lon="-0.37644183"><ele>1.0</ele><time>2022-11-10T16:27:25.0000000+00:00</time></trkpt><trkpt lat="39.39217636" lon="-0.37647762"><ele>1.0</ele><time>2022-11-10T16:27:26.0000000+00:00</time></trkpt><trkpt lat="39.39212205" lon="-0.37651434"><ele>1.0</ele><time>2022-11-10T16:27:27.0000000+00:00</time></trkpt><trkpt lat="39.3920679" lon="-0.37655147"><ele>1.0</ele><time>2022-11-10T16:27:28.0000000+00:00</time></trkpt><trkpt lat="39.3920099" lon="-0.37658927"><ele>1.0</ele><time>2022-11-10T16:27:29.0000000+00:00</time></trkpt><trkpt lat="39.39194997" lon="-0.37662506"><ele>1.0</ele><time>2022-11-10T16:27:30.0000000+00:00</time></trkpt><trkpt lat="39.39189297" lon="-0.37665599"><ele>1.0</ele><time>2022-11-10T16:27:31.0000000+00:00</time></trkpt><trkpt lat="39.39183128" lon="-0.3766855"><ele>1.0</ele><time>2022-11-10T16:27:32.0000000+00:00</time></trkpt><trkpt lat="39.39177387" lon="-0.37671726"><ele>1.0</ele><time>2022-11-10T16:27:33.0000000+00:00</time></trkpt><trkpt lat="39.39172098" lon="-0.37675297"><ele>1.0</ele><time>2022-11-10T16:27:34.0000000+00:00</time></trkpt><trkpt lat="39.39166825" lon="-0.37678935"><ele>1.0</ele><time>2022-11-10T16:27:35.0000000+00:00</time></trkpt><trkpt lat="39.39161469" lon="-0.37682505"><ele>1.0</ele><time>2022-11-10T16:27:36.0000000+00:00</time></trkpt><trkpt lat="39.39156038" lon="-0.37685917"><ele>0.8</ele><time>2022-11-10T16:27:37.0000000+00:00</time></trkpt><trkpt lat="39.39150531" lon="-0.37689203"><ele>0.8</ele><time>2022-11-10T16:27:38.0000000+00:00</time></trkpt><trkpt lat="39.39145208" lon="-0.3769248"><ele>0.8</ele><time>2022-11-10T16:27:39.0000000+00:00</time></trkpt><trkpt lat="39.39139844" lon="-0.37696193"><ele>1.0</ele><time>2022-11-10T16:27:40.0000000+00:00</time></trkpt><trkpt lat="39.39134153" lon="-0.37699898"><ele>1.0</ele><time>2022-11-10T16:27:41.0000000+00:00</time></trkpt><trkpt lat="39.39128646" lon="-0.37703611"><ele>1.0</ele><time>2022-11-10T16:27:42.0000000+00:00</time></trkpt><trkpt lat="39.39122954" lon="-0.37706855"><ele>1.0</ele><time>2022-11-10T16:27:43.0000000+00:00</time></trkpt><trkpt lat="39.39117054" lon="-0.37709646"><ele>1.0</ele><time>2022-11-10T16:27:44.0000000+00:00</time></trkpt><trkpt lat="39.39111144" lon="-0.3771289"><ele>1.0</ele><time>2022-11-10T16:27:45.0000000+00:00</time></trkpt><trkpt lat="39.39105118" lon="-0.37716779"><ele>1.0</ele><time>2022-11-10T16:27:46.0000000+00:00</time></trkpt><trkpt lat="39.39099351" lon="-0.37720475"><ele>1.0</ele><time>2022-11-10T16:27:47.0000000+00:00</time></trkpt><trkpt lat="39.3909376" lon="-0.37724214"><ele>1.0</ele><time>2022-11-10T16:27:48.0000000+00:00</time></trkpt><trkpt lat="39.39088086" lon="-0.37727952"><ele>1.0</ele><time>2022-11-10T16:27:49.0000000+00:00</time></trkpt><trkpt lat="39.3908242" lon="-0.37731615"><ele>1.0</ele><time>2022-11-10T16:27:50.0000000+00:00</time></trkpt><trkpt lat="39.39076946" lon="-0.3773532"><ele>1.0</ele><time>2022-11-10T16:27:51.0000000+00:00</time></trkpt><trkpt lat="39.39071473" lon="-0.37738781"><ele>1.0</ele><time>2022-11-10T16:27:52.0000000+00:00</time></trkpt><trkpt lat="39.3906589" lon="-0.37742268"><ele>1.0</ele><time>2022-11-10T16:27:53.0000000+00:00</time></trkpt><trkpt lat="39.39060258" lon="-0.37745797"><ele>1.0</ele><time>2022-11-10T16:27:54.0000000+00:00</time></trkpt><trkpt lat="39.39054374" lon="-0.37749418"><ele>0.8</ele><time>2022-11-10T16:27:55.0000000+00:00</time></trkpt><trkpt lat="39.39048423" lon="-0.37753358"><ele>0.8</ele><time>2022-11-10T16:27:56.0000000+00:00</time></trkpt><trkpt lat="39.3904258" lon="-0.37757423"><ele>0.8</ele><time>2022-11-10T16:27:57.0000000+00:00</time></trkpt><trkpt lat="39.39037065" lon="-0.37761605"><ele>0.8</ele><time>2022-11-10T16:27:58.0000000+00:00</time></trkpt><trkpt lat="39.39031692" lon="-0.37765813"><ele>0.8</ele><time>2022-11-10T16:27:59.0000000+00:00</time></trkpt><trkpt lat="39.39026026" lon="-0.37769711"><ele>1.0</ele><time>2022-11-10T16:28:00.0000000+00:00</time></trkpt><trkpt lat="39.39020176" lon="-0.37773281"><ele>1.0</ele><time>2022-11-10T16:28:01.0000000+00:00</time></trkpt><trkpt lat="39.3901425" lon="-0.37776668"><ele>1.0</ele><time>2022-11-10T16:28:02.0000000+00:00</time></trkpt><trkpt lat="39.39008265" lon="-0.37780029"><ele>1.0</ele><time>2022-11-10T16:28:03.0000000+00:00</time></trkpt><trkpt lat="39.39002196" lon="-0.37783398"><ele>1.0</ele><time>2022-11-10T16:28:04.0000000+00:00</time></trkpt><trkpt lat="39.3899622" lon="-0.37786986"><ele>1.0</ele><time>2022-11-10T16:28:05.0000000+00:00</time></trkpt><trkpt lat="39.38990328" lon="-0.37790607"><ele>1.0</ele><time>2022-11-10T16:28:06.0000000+00:00</time></trkpt><trkpt lat="39.3898446" lon="-0.37794647"><ele>1.0</ele><time>2022-11-10T16:28:07.0000000+00:00</time></trkpt><trkpt lat="39.38978467" lon="-0.3779841"><ele>1.0</ele><time>2022-11-10T16:28:08.0000000+00:00</time></trkpt><trkpt lat="39.38972474" lon="-0.37802266"><ele>0.8</ele><time>2022-11-10T16:28:09.0000000+00:00</time></trkpt><trkpt lat="39.38966481" lon="-0.37806038"><ele>0.8</ele><time>2022-11-10T16:28:10.0000000+00:00</time></trkpt><trkpt lat="39.38960136" lon="-0.3780991"><ele>0.8</ele><time>2022-11-10T16:28:11.0000000+00:00</time></trkpt><trkpt lat="39.38953774" lon="-0.37813875"><ele>0.8</ele><time>2022-11-10T16:28:12.0000000+00:00</time></trkpt><trkpt lat="39.38947379" lon="-0.37818141"><ele>0.8</ele><time>2022-11-10T16:28:13.0000000+00:00</time></trkpt><trkpt lat="39.38941092" lon="-0.37822341"><ele>0.8</ele><time>2022-11-10T16:28:14.0000000+00:00</time></trkpt><trkpt lat="39.38934881" lon="-0.37826364"><ele>0.8</ele><time>2022-11-10T16:28:15.0000000+00:00</time></trkpt><trkpt lat="39.38928855" lon="-0.37830086"><ele>0.8</ele><time>2022-11-10T16:28:16.0000000+00:00</time></trkpt><trkpt lat="39.38922811" lon="-0.37833933"><ele>0.8</ele><time>2022-11-10T16:28:17.0000000+00:00</time></trkpt><trkpt lat="39.38916852" lon="-0.37837889"><ele>0.8</ele><time>2022-11-10T16:28:18.0000000+00:00</time></trkpt><trkpt lat="39.38911219" lon="-0.37841477"><ele>0.8</ele><time>2022-11-10T16:28:19.0000000+00:00</time></trkpt><trkpt lat="39.38905905" lon="-0.37844963"><ele>0.8</ele><time>2022-11-10T16:28:20.0000000+00:00</time></trkpt><trkpt lat="39.38900675" lon="-0.37848459"><ele>0.8</ele><time>2022-11-10T16:28:21.0000000+00:00</time></trkpt><trkpt lat="39.3889552" lon="-0.37851577"><ele>0.6</ele><time>2022-11-10T16:28:22.0000000+00:00</time></trkpt><trkpt lat="39.38890373" lon="-0.37854988"><ele>0.6</ele><time>2022-11-10T16:28:23.0000000+00:00</time></trkpt><trkpt lat="39.38885571" lon="-0.37858081"><ele>0.6</ele><time>2022-11-10T16:28:24.0000000+00:00</time></trkpt><trkpt lat="39.38880751" lon="-0.37860956"><ele>0.6</ele><time>2022-11-10T16:28:25.0000000+00:00</time></trkpt><trkpt lat="39.38876015" lon="-0.3786368"><ele>0.6</ele><time>2022-11-10T16:28:26.0000000+00:00</time></trkpt><trkpt lat="39.38871305" lon="-0.37866245"><ele>0.6</ele><time>2022-11-10T16:28:27.0000000+00:00</time></trkpt><trkpt lat="39.38866946" lon="-0.37868156"><ele>0.6</ele><time>2022-11-10T16:28:28.0000000+00:00</time></trkpt><trkpt lat="39.38862889" lon="-0.3786829"><ele>0.6</ele><time>2022-11-10T16:28:29.0000000+00:00</time></trkpt><trkpt lat="39.38859277" lon="-0.37867293"><ele>0.6</ele><time>2022-11-10T16:28:30.0000000+00:00</time></trkpt><trkpt lat="39.38856209" lon="-0.3786689"><ele>0.6</ele><time>2022-11-10T16:28:31.0000000+00:00</time></trkpt><trkpt lat="39.38853677" lon="-0.37867393"><ele>0.6</ele><time>2022-11-10T16:28:32.0000000+00:00</time></trkpt><trkpt lat="39.38851565" lon="-0.37868089"><ele>0.6</ele><time>2022-11-10T16:28:33.0000000+00:00</time></trkpt><trkpt lat="39.38849889" lon="-0.37869003"><ele>0.4</ele><time>2022-11-10T16:28:34.0000000+00:00</time></trkpt><trkpt lat="39.38848648" lon="-0.37869933"><ele>0.4</ele><time>2022-11-10T16:28:35.0000000+00:00</time></trkpt><trkpt lat="39.38847425" lon="-0.37871207"><ele>0.4</ele><time>2022-11-10T16:28:36.0000000+00:00</time></trkpt><trkpt lat="39.38846209" lon="-0.37873101"><ele>0.6</ele><time>2022-11-10T16:28:37.0000000+00:00</time></trkpt><trkpt lat="39.38845446" lon="-0.37875046"><ele>0.6</ele><time>2022-11-10T16:28:38.0000000+00:00</time></trkpt><trkpt lat="39.38844893" lon="-0.37876655"><ele>0.6</ele><time>2022-11-10T16:28:39.0000000+00:00</time></trkpt><trkpt lat="39.38844466" lon="-0.37877997"><ele>0.6</ele><time>2022-11-10T16:28:40.0000000+00:00</time></trkpt><trkpt lat="39.38844273" lon="-0.37879413"><ele>0.6</ele><time>2022-11-10T16:28:41.0000000+00:00</time></trkpt><trkpt lat="39.38845069" lon="-0.37880268"><ele>0.6</ele><time>2022-11-10T16:28:42.0000000+00:00</time></trkpt><trkpt lat="39.38846427" lon="-0.37880184"><ele>0.6</ele><time>2022-11-10T16:28:43.0000000+00:00</time></trkpt><trkpt lat="39.38848137" lon="-0.37878449"><ele>0.8</ele><time>2022-11-10T16:28:44.0000000+00:00</time></trkpt><trkpt lat="39.38848833" lon="-0.37876412"><ele>0.8</ele><time>2022-11-10T16:28:45.0000000+00:00</time></trkpt><trkpt lat="39.38849009" lon="-0.37874359"><ele>0.8</ele><time>2022-11-10T16:28:46.0000000+00:00</time></trkpt><trkpt lat="39.38848707" lon="-0.37872632"><ele>0.6</ele><time>2022-11-10T16:28:47.0000000+00:00</time></trkpt><trkpt lat="39.38848162" lon="-0.37871467"><ele>0.6</ele><time>2022-11-10T16:28:48.0000000+00:00</time></trkpt><trkpt lat="39.3884786" lon="-0.37870914"><ele>0.4</ele><time>2022-11-10T16:28:49.0000000+00:00</time></trkpt><trkpt lat="39.3884786" lon="-0.37870914"><ele>0.4</ele><time>2022-11-10T16:28:50.0000000+00:00</time></trkpt><trkpt lat="39.3884786" lon="-0.37870914"><ele>0.2</ele><time>2022-11-10T16:28:51.0000000+00:00</time></trkpt><trkpt lat="39.3884786" lon="-0.37870914"><ele>0.2</ele><time>2022-11-10T16:28:52.0000000+00:00</time></trkpt><trkpt lat="39.3884786" lon="-0.37870914"><ele>0.2</ele><time>2022-11-10T16:28:53.0000000+00:00</time></trkpt><trkpt lat="39.38847953" lon="-0.37870545"><ele>0.2</ele><time>2022-11-10T16:28:54.0000000+00:00</time></trkpt><trkpt lat="39.38847902" lon="-0.37870201"><ele>0.2</ele><time>2022-11-10T16:28:55.0000000+00:00</time></trkpt><trkpt lat="39.38847902" lon="-0.37870201"><ele>0.2</ele><time>2022-11-10T16:28:56.0000000+00:00</time></trkpt><trkpt lat="39.38847902" lon="-0.37870201"><ele>0.2</ele><time>2022-11-10T16:28:57.0000000+00:00</time></trkpt><trkpt lat="39.38848665" lon="-0.37870344"><ele>0.2</ele><time>2022-11-10T16:28:58.0000000+00:00</time></trkpt><trkpt lat="39.38848958" lon="-0.37870545"><ele>0.2</ele><time>2022-11-10T16:28:59.0000000+00:00</time></trkpt><trkpt lat="39.38848916" lon="-0.37869849"><ele>0.2</ele><time>2022-11-10T16:29:00.0000000+00:00</time></trkpt><trkpt lat="39.38848564" lon="-0.37868961"><ele>0.2</ele><time>2022-11-10T16:29:01.0000000+00:00</time></trkpt><trkpt lat="39.38848053" lon="-0.37868634"><ele>0.2</ele><time>2022-11-10T16:29:02.0000000+00:00</time></trkpt><trkpt lat="39.38848053" lon="-0.37868634"><ele>0.2</ele><time>2022-11-10T16:29:03.0000000+00:00</time></trkpt><trkpt lat="39.38848053" lon="-0.37868634"><ele>0.0</ele><time>2022-11-10T16:29:04.0000000+00:00</time></trkpt><trkpt lat="39.38848053" lon="-0.37868634"><ele>-0.2</ele><time>2022-11-10T16:29:05.0000000+00:00</time></trkpt><trkpt lat="39.38848866" lon="-0.378685"><ele>-0.2</ele><time>2022-11-10T16:29:06.0000000+00:00</time></trkpt><trkpt lat="39.38849042" lon="-0.37867695"><ele>-0.4</ele><time>2022-11-10T16:29:07.0000000+00:00</time></trkpt><trkpt lat="39.38848866" lon="-0.37867284"><ele>-0.4</ele><time>2022-11-10T16:29:08.0000000+00:00</time></trkpt><trkpt lat="39.38848866" lon="-0.37867284"><ele>-0.4</ele><time>2022-11-10T16:29:09.0000000+00:00</time></trkpt><trkpt lat="39.38848866" lon="-0.37867284"><ele>-0.4</ele><time>2022-11-10T16:29:10.0000000+00:00</time></trkpt><trkpt lat="39.38848866" lon="-0.37867284"><ele>-0.4</ele><time>2022-11-10T16:29:11.0000000+00:00</time></trkpt><trkpt lat="39.38848866" lon="-0.37867284"><ele>-0.4</ele><time>2022-11-10T16:29:12.0000000+00:00</time></trkpt><trkpt lat="39.38848866" lon="-0.37867284"><ele>-0.4</ele><time>2022-11-10T16:29:13.0000000+00:00</time></trkpt><trkpt lat="39.38848866" lon="-0.37867284"><ele>-0.6</ele><time>2022-11-10T16:29:14.0000000+00:00</time></trkpt><trkpt lat="39.38848866" lon="-0.37867284"><ele>-0.6</ele><time>2022-11-10T16:29:15.0000000+00:00</time></trkpt><trkpt lat="39.38848866" lon="-0.37867284"><ele>-0.6</ele><time>2022-11-10T16:29:16.0000000+00:00</time></trkpt><trkpt lat="39.38848866" lon="-0.37867284"><ele>-0.6</ele><time>2022-11-10T16:29:17.0000000+00:00</time></trkpt><trkpt lat="39.38848866" lon="-0.37867284"><ele>-0.6</ele><time>2022-11-10T16:29:18.0000000+00:00</time></trkpt><trkpt lat="39.38848866" lon="-0.37867284"><ele>-0.6</ele><time>2022-11-10T16:29:19.0000000+00:00</time></trkpt><trkpt lat="39.38848866" lon="-0.37867284"><ele>-0.6</ele><time>2022-11-10T16:29:20.0000000+00:00</time></trkpt><trkpt lat="39.38849042" lon="-0.37867016"><ele>-0.8</ele><time>2022-11-10T16:29:21.0000000+00:00</time></trkpt><trkpt lat="39.38849176" lon="-0.37866706"><ele>-0.6</ele><time>2022-11-10T16:29:22.0000000+00:00</time></trkpt><trkpt lat="39.38849176" lon="-0.37866706"><ele>-0.8</ele><time>2022-11-10T16:29:23.0000000+00:00</time></trkpt><trkpt lat="39.38849176" lon="-0.37866706"><ele>-0.6</ele><time>2022-11-10T16:29:24.0000000+00:00</time></trkpt><trkpt lat="39.38849176" lon="-0.37866706"><ele>-0.6</ele><time>2022-11-10T16:29:25.0000000+00:00</time></trkpt><trkpt lat="39.38849176" lon="-0.37866706"><ele>-0.6</ele><time>2022-11-10T16:29:26.0000000+00:00</time></trkpt><trkpt lat="39.38849176" lon="-0.37866706"><ele>-0.2</ele><time>2022-11-10T16:29:27.0000000+00:00</time></trkpt><trkpt lat="39.38849176" lon="-0.37866706"><ele>-0.2</ele><time>2022-11-10T16:29:28.0000000+00:00</time></trkpt><trkpt lat="39.38849176" lon="-0.37866706"><ele>0.0</ele><time>2022-11-10T16:29:29.0000000+00:00</time></trkpt><trkpt lat="39.38849176" lon="-0.37866706"><ele>0.0</ele><time>2022-11-10T16:29:30.0000000+00:00</time></trkpt><trkpt lat="39.38849176" lon="-0.37866706"><ele>0.0</ele><time>2022-11-10T16:29:31.0000000+00:00</time></trkpt><trkpt lat="39.38849176" lon="-0.37866706"><ele>0.0</ele><time>2022-11-10T16:29:32.0000000+00:00</time></trkpt><trkpt lat="39.38849176" lon="-0.37866706"><ele>-0.2</ele><time>2022-11-10T16:29:33.0000000+00:00</time></trkpt><trkpt lat="39.38849503" lon="-0.37866513"><ele>-0.2</ele><time>2022-11-10T16:29:34.0000000+00:00</time></trkpt><trkpt lat="39.38849646" lon="-0.37866195"><ele>-0.2</ele><time>2022-11-10T16:29:35.0000000+00:00</time></trkpt><trkpt lat="39.38849646" lon="-0.37866195"><ele>-0.4</ele><time>2022-11-10T16:29:36.0000000+00:00</time></trkpt><trkpt lat="39.38849906" lon="-0.37866488"><ele>-0.6</ele><time>2022-11-10T16:29:37.0000000+00:00</time></trkpt><trkpt lat="39.38850182" lon="-0.37866597"><ele>-0.6</ele><time>2022-11-10T16:29:38.0000000+00:00</time></trkpt><trkpt lat="39.38850182" lon="-0.37866597"><ele>-0.6</ele><time>2022-11-10T16:29:39.0000000+00:00</time></trkpt><trkpt lat="39.38850115" lon="-0.3786627"><ele>-0.6</ele><time>2022-11-10T16:29:40.0000000+00:00</time></trkpt><trkpt lat="39.38850174" lon="-0.37865943"><ele>-0.6</ele><time>2022-11-10T16:29:41.0000000+00:00</time></trkpt><trkpt lat="39.38850174" lon="-0.37865943"><ele>-0.6</ele><time>2022-11-10T16:29:42.0000000+00:00</time></trkpt><trkpt lat="39.38850174" lon="-0.37865943"><ele>-0.6</ele><time>2022-11-10T16:29:43.0000000+00:00</time></trkpt><trkpt lat="39.38850174" lon="-0.37865943"><ele>-0.6</ele><time>2022-11-10T16:29:44.0000000+00:00</time></trkpt><trkpt lat="39.38850174" lon="-0.37865943"><ele>-0.6</ele><time>2022-11-10T16:29:45.0000000+00:00</time></trkpt><trkpt lat="39.38850174" lon="-0.37865943"><ele>-0.6</ele><time>2022-11-10T16:29:46.0000000+00:00</time></trkpt><trkpt lat="39.38850174" lon="-0.37865943"><ele>-0.6</ele><time>2022-11-10T16:29:47.0000000+00:00</time></trkpt><trkpt lat="39.38850174" lon="-0.37865943"><ele>-0.6</ele><time>2022-11-10T16:29:48.0000000+00:00</time></trkpt><trkpt lat="39.38850174" lon="-0.37865943"><ele>-0.8</ele><time>2022-11-10T16:29:49.0000000+00:00</time></trkpt><trkpt lat="39.38850174" lon="-0.37865943"><ele>-0.8</ele><time>2022-11-10T16:29:50.0000000+00:00</time></trkpt><trkpt lat="39.38850174" lon="-0.37865943"><ele>-0.8</ele><time>2022-11-10T16:29:51.0000000+00:00</time></trkpt><trkpt lat="39.38850174" lon="-0.37865943"><ele>-0.8</ele><time>2022-11-10T16:29:52.0000000+00:00</time></trkpt><trkpt lat="39.38850174" lon="-0.37865943"><ele>-0.8</ele><time>2022-11-10T16:29:53.0000000+00:00</time></trkpt><trkpt lat="39.38850174" lon="-0.37865943"><ele>-0.8</ele><time>2022-11-10T16:29:54.0000000+00:00</time></trkpt><trkpt lat="39.38850174" lon="-0.37865943"><ele>-0.8</ele><time>2022-11-10T16:29:55.0000000+00:00</time></trkpt><trkpt lat="39.38850174" lon="-0.37865943"><ele>-0.8</ele><time>2022-11-10T16:29:56.0000000+00:00</time></trkpt><trkpt lat="39.38850174" lon="-0.37865943"><ele>-0.8</ele><time>2022-11-10T16:29:57.0000000+00:00</time></trkpt><trkpt lat="39.38850174" lon="-0.37865943"><ele>-0.8</ele><time>2022-11-10T16:29:58.0000000+00:00</time></trkpt><trkpt lat="39.38850174" lon="-0.37865943"><ele>-0.6</ele><time>2022-11-10T16:29:59.0000000+00:00</time></trkpt><trkpt lat="39.38850174" lon="-0.37865943"><ele>-0.6</ele><time>2022-11-10T16:30:00.0000000+00:00</time></trkpt><trkpt lat="39.38850174" lon="-0.37865943"><ele>-0.6</ele><time>2022-11-10T16:30:01.0000000+00:00</time></trkpt><trkpt lat="39.38850174" lon="-0.37865943"><ele>-0.6</ele><time>2022-11-10T16:30:02.0000000+00:00</time></trkpt><trkpt lat="39.38850174" lon="-0.37865943"><ele>-0.8</ele><time>2022-11-10T16:30:03.0000000+00:00</time></trkpt><trkpt lat="39.38850174" lon="-0.37865943"><ele>-0.8</ele><time>2022-11-10T16:30:04.0000000+00:00</time></trkpt><trkpt lat="39.38850174" lon="-0.37865943"><ele>-0.8</ele><time>2022-11-10T16:30:05.0000000+00:00</time></trkpt><trkpt lat="39.38850174" lon="-0.37865943"><ele>-0.8</ele><time>2022-11-10T16:30:06.0000000+00:00</time></trkpt><trkpt lat="39.38850174" lon="-0.37865943"><ele>-0.8</ele><time>2022-11-10T16:30:07.0000000+00:00</time></trkpt><trkpt lat="39.38850174" lon="-0.37865943"><ele>-0.8</ele><time>2022-11-10T16:30:08.0000000+00:00</time></trkpt><trkpt lat="39.38850174" lon="-0.37865943"><ele>-0.8</ele><time>2022-11-10T16:30:09.0000000+00:00</time></trkpt><trkpt lat="39.38850174" lon="-0.37865943"><ele>-0.8</ele><time>2022-11-10T16:30:10.0000000+00:00</time></trkpt><trkpt lat="39.38850174" lon="-0.37865943"><ele>-0.8</ele><time>2022-11-10T16:30:11.0000000+00:00</time></trkpt><trkpt lat="39.38850174" lon="-0.37865943"><ele>-0.8</ele><time>2022-11-10T16:30:12.0000000+00:00</time></trkpt><trkpt lat="39.38850174" lon="-0.37865943"><ele>-0.8</ele><time>2022-11-10T16:30:13.0000000+00:00</time></trkpt><trkpt lat="39.38850174" lon="-0.37865943"><ele>-0.8</ele><time>2022-11-10T16:30:14.0000000+00:00</time></trkpt><trkpt lat="39.38850174" lon="-0.37865943"><ele>-0.8</ele><time>2022-11-10T16:30:15.0000000+00:00</time></trkpt><trkpt lat="39.38850174" lon="-0.37865943"><ele>-0.8</ele><time>2022-11-10T16:30:16.0000000+00:00</time></trkpt><trkpt lat="39.38850174" lon="-0.37865943"><ele>-0.8</ele><time>2022-11-10T16:30:17.0000000+00:00</time></trkpt><trkpt lat="39.38850174" lon="-0.37865943"><ele>-0.8</ele><time>2022-11-10T16:30:18.0000000+00:00</time></trkpt><trkpt lat="39.38850174" lon="-0.37865943"><ele>-0.8</ele><time>2022-11-10T16:30:19.0000000+00:00</time></trkpt><trkpt lat="39.38850174" lon="-0.37865943"><ele>-0.8</ele><time>2022-11-10T16:30:20.0000000+00:00</time></trkpt><trkpt lat="39.38850174" lon="-0.37865943"><ele>-0.8</ele><time>2022-11-10T16:30:21.0000000+00:00</time></trkpt><trkpt lat="39.38850174" lon="-0.37865943"><ele>-0.8</ele><time>2022-11-10T16:30:22.0000000+00:00</time></trkpt><trkpt lat="39.38850174" lon="-0.37865943"><ele>-0.8</ele><time>2022-11-10T16:30:23.0000000+00:00</time></trkpt><trkpt lat="39.38850174" lon="-0.37865943"><ele>-0.8</ele><time>2022-11-10T16:30:24.0000000+00:00</time></trkpt><trkpt lat="39.38850174" lon="-0.37865943"><ele>-0.8</ele><time>2022-11-10T16:30:25.0000000+00:00</time></trkpt><trkpt lat="39.38850174" lon="-0.37865943"><ele>-1.0</ele><time>2022-11-10T16:30:26.0000000+00:00</time></trkpt><trkpt lat="39.38850174" lon="-0.37865943"><ele>-1.0</ele><time>2022-11-10T16:30:27.0000000+00:00</time></trkpt><trkpt lat="39.38850174" lon="-0.37865943"><ele>-1.0</ele><time>2022-11-10T16:30:28.0000000+00:00</time></trkpt><trkpt lat="39.38850174" lon="-0.37865943"><ele>-1.0</ele><time>2022-11-10T16:30:29.0000000+00:00</time></trkpt><trkpt lat="39.38850174" lon="-0.37865943"><ele>-1.0</ele><time>2022-11-10T16:30:30.0000000+00:00</time></trkpt><trkpt lat="39.38850174" lon="-0.37865943"><ele>-1.0</ele><time>2022-11-10T16:30:31.0000000+00:00</time></trkpt><trkpt lat="39.38850174" lon="-0.37865943"><ele>-1.0</ele><time>2022-11-10T16:30:32.0000000+00:00</time></trkpt><trkpt lat="39.38850174" lon="-0.37865943"><ele>-1.0</ele><time>2022-11-10T16:30:33.0000000+00:00</time></trkpt><trkpt lat="39.38850174" lon="-0.37865943"><ele>-1.0</ele><time>2022-11-10T16:30:34.0000000+00:00</time></trkpt><trkpt lat="39.38850174" lon="-0.37865943"><ele>-1.0</ele><time>2022-11-10T16:30:35.0000000+00:00</time></trkpt><trkpt lat="39.38850174" lon="-0.37865943"><ele>-1.0</ele><time>2022-11-10T16:30:36.0000000+00:00</time></trkpt><trkpt lat="39.38850174" lon="-0.37865943"><ele>-1.0</ele><time>2022-11-10T16:30:37.0000000+00:00</time></trkpt><trkpt lat="39.38850174" lon="-0.37865943"><ele>-1.0</ele><time>2022-11-10T16:30:38.0000000+00:00</time></trkpt><trkpt lat="39.38850174" lon="-0.37865943"><ele>-1.0</ele><time>2022-11-10T16:30:39.0000000+00:00</time></trkpt><trkpt lat="39.38850174" lon="-0.37865943"><ele>-1.0</ele><time>2022-11-10T16:30:40.0000000+00:00</time></trkpt><trkpt lat="39.38850174" lon="-0.37865943"><ele>-1.0</ele><time>2022-11-10T16:30:41.0000000+00:00</time></trkpt><trkpt lat="39.38850174" lon="-0.37865943"><ele>-1.0</ele><time>2022-11-10T16:30:42.0000000+00:00</time></trkpt><trkpt lat="39.38850174" lon="-0.37865943"><ele>-1.0</ele><time>2022-11-10T16:30:43.0000000+00:00</time></trkpt><trkpt lat="39.38850174" lon="-0.37865943"><ele>-1.0</ele><time>2022-11-10T16:30:44.0000000+00:00</time></trkpt><trkpt lat="39.38850174" lon="-0.37865943"><ele>-1.0</ele><time>2022-11-10T16:30:45.0000000+00:00</time></trkpt><trkpt lat="39.38850174" lon="-0.37865943"><ele>-1.0</ele><time>2022-11-10T16:30:46.0000000+00:00</time></trkpt><trkpt lat="39.38850174" lon="-0.37865943"><ele>-1.0</ele><time>2022-11-10T16:30:47.0000000+00:00</time></trkpt><trkpt lat="39.38850174" lon="-0.37865943"><ele>-1.2</ele><time>2022-11-10T16:30:48.0000000+00:00</time></trkpt><trkpt lat="39.38850174" lon="-0.37865943"><ele>-1.2</ele><time>2022-11-10T16:30:49.0000000+00:00</time></trkpt><trkpt lat="39.38850174" lon="-0.37865943"><ele>-1.2</ele><time>2022-11-10T16:30:50.0000000+00:00</time></trkpt><trkpt lat="39.38850174" lon="-0.37865943"><ele>-1.2</ele><time>2022-11-10T16:30:51.0000000+00:00</time></trkpt><trkpt lat="39.38850174" lon="-0.37865943"><ele>-1.2</ele><time>2022-11-10T16:30:52.0000000+00:00</time></trkpt><trkpt lat="39.38850174" lon="-0.37865943"><ele>-1.2</ele><time>2022-11-10T16:30:53.0000000+00:00</time></trkpt><trkpt lat="39.38850174" lon="-0.37865943"><ele>-1.2</ele><time>2022-11-10T16:30:54.0000000+00:00</time></trkpt><trkpt lat="39.38850174" lon="-0.37865943"><ele>-1.2</ele><time>2022-11-10T16:30:55.0000000+00:00</time></trkpt><trkpt lat="39.38850174" lon="-0.37865943"><ele>-1.2</ele><time>2022-11-10T16:30:56.0000000+00:00</time></trkpt><trkpt lat="39.38850174" lon="-0.37865943"><ele>-1.2</ele><time>2022-11-10T16:30:57.0000000+00:00</time></trkpt><trkpt lat="39.38850174" lon="-0.37865943"><ele>-1.2</ele><time>2022-11-10T16:30:58.0000000+00:00</time></trkpt><trkpt lat="39.38850174" lon="-0.37865943"><ele>-1.2</ele><time>2022-11-10T16:30:59.0000000+00:00</time></trkpt><trkpt lat="39.38850174" lon="-0.37865943"><ele>-1.2</ele><time>2022-11-10T16:31:00.0000000+00:00</time></trkpt><trkpt lat="39.38850174" lon="-0.37865943"><ele>-1.2</ele><time>2022-11-10T16:31:01.0000000+00:00</time></trkpt><trkpt lat="39.38850174" lon="-0.37865943"><ele>-1.2</ele><time>2022-11-10T16:31:02.0000000+00:00</time></trkpt><trkpt lat="39.38850174" lon="-0.37865943"><ele>-1.2</ele><time>2022-11-10T16:31:03.0000000+00:00</time></trkpt><trkpt lat="39.38850174" lon="-0.37865943"><ele>-1.4</ele><time>2022-11-10T16:31:04.0000000+00:00</time></trkpt><trkpt lat="39.38850174" lon="-0.37865943"><ele>-1.4</ele><time>2022-11-10T16:31:05.0000000+00:00</time></trkpt><trkpt lat="39.38850174" lon="-0.37865943"><ele>-1.4</ele><time>2022-11-10T16:31:06.0000000+00:00</time></trkpt><trkpt lat="39.38850174" lon="-0.37865943"><ele>-1.4</ele><time>2022-11-10T16:31:07.0000000+00:00</time></trkpt><trkpt lat="39.38850174" lon="-0.37865943"><ele>-1.4</ele><time>2022-11-10T16:31:08.0000000+00:00</time></trkpt><trkpt lat="39.38850174" lon="-0.37865943"><ele>-1.4</ele><time>2022-11-10T16:31:09.0000000+00:00</time></trkpt><trkpt lat="39.38850174" lon="-0.37865943"><ele>-1.4</ele><time>2022-11-10T16:31:10.0000000+00:00</time></trkpt><trkpt lat="39.38850174" lon="-0.37865943"><ele>-1.4</ele><time>2022-11-10T16:31:11.0000000+00:00</time></trkpt><trkpt lat="39.38850174" lon="-0.37865943"><ele>-1.4</ele><time>2022-11-10T16:31:12.0000000+00:00</time></trkpt><trkpt lat="39.38850174" lon="-0.37865943"><ele>-1.4</ele><time>2022-11-10T16:31:13.0000000+00:00</time></trkpt><trkpt lat="39.38850174" lon="-0.37865943"><ele>-1.4</ele><time>2022-11-10T16:31:14.0000000+00:00</time></trkpt><trkpt lat="39.38850174" lon="-0.37865943"><ele>-1.4</ele><time>2022-11-10T16:31:15.0000000+00:00</time></trkpt><trkpt lat="39.38850174" lon="-0.37865943"><ele>-1.4</ele><time>2022-11-10T16:31:16.0000000+00:00</time></trkpt><trkpt lat="39.38850174" lon="-0.37865943"><ele>-1.4</ele><time>2022-11-10T16:31:17.0000000+00:00</time></trkpt><trkpt lat="39.38850174" lon="-0.37865943"><ele>-1.4</ele><time>2022-11-10T16:31:18.0000000+00:00</time></trkpt><trkpt lat="39.38850174" lon="-0.37865943"><ele>-1.4</ele><time>2022-11-10T16:31:19.0000000+00:00</time></trkpt><trkpt lat="39.38850174" lon="-0.37865943"><ele>-1.6</ele><time>2022-11-10T16:31:20.0000000+00:00</time></trkpt><trkpt lat="39.38850174" lon="-0.37865943"><ele>-1.6</ele><time>2022-11-10T16:31:21.0000000+00:00</time></trkpt><trkpt lat="39.38850174" lon="-0.37865943"><ele>-1.6</ele><time>2022-11-10T16:31:22.0000000+00:00</time></trkpt><trkpt lat="39.38850174" lon="-0.37865943"><ele>-1.8</ele><time>2022-11-10T16:31:23.0000000+00:00</time></trkpt><trkpt lat="39.38850174" lon="-0.37865943"><ele>-1.8</ele><time>2022-11-10T16:31:24.0000000+00:00</time></trkpt><trkpt lat="39.38850174" lon="-0.37865943"><ele>-1.8</ele><time>2022-11-10T16:31:25.0000000+00:00</time></trkpt><trkpt lat="39.38850174" lon="-0.37865943"><ele>-1.8</ele><time>2022-11-10T16:31:26.0000000+00:00</time></trkpt><trkpt lat="39.38850174" lon="-0.37865943"><ele>-1.8</ele><time>2022-11-10T16:31:27.0000000+00:00</time></trkpt><trkpt lat="39.38850174" lon="-0.37865943"><ele>-1.8</ele><time>2022-11-10T16:31:28.0000000+00:00</time></trkpt><trkpt lat="39.38850174" lon="-0.37865943"><ele>-1.8</ele><time>2022-11-10T16:31:29.0000000+00:00</time></trkpt><trkpt lat="39.38850174" lon="-0.37865943"><ele>-1.8</ele><time>2022-11-10T16:31:30.0000000+00:00</time></trkpt><trkpt lat="39.38850174" lon="-0.37865943"><ele>-1.8</ele><time>2022-11-10T16:31:31.0000000+00:00</time></trkpt><trkpt lat="39.38850174" lon="-0.37865943"><ele>-1.8</ele><time>2022-11-10T16:31:32.0000000+00:00</time></trkpt><trkpt lat="39.38850174" lon="-0.37865943"><ele>-1.8</ele><time>2022-11-10T16:31:33.0000000+00:00</time></trkpt><trkpt lat="39.38850174" lon="-0.37865943"><ele>-1.8</ele><time>2022-11-10T16:31:34.0000000+00:00</time></trkpt><trkpt lat="39.38850174" lon="-0.37865943"><ele>-1.8</ele><time>2022-11-10T16:31:35.0000000+00:00</time></trkpt><trkpt lat="39.38850174" lon="-0.37865943"><ele>-1.8</ele><time>2022-11-10T16:31:36.0000000+00:00</time></trkpt><trkpt lat="39.38850174" lon="-0.37865943"><ele>-1.8</ele><time>2022-11-10T16:31:37.0000000+00:00</time></trkpt><trkpt lat="39.38850174" lon="-0.37865943"><ele>-1.8</ele><time>2022-11-10T16:31:38.0000000+00:00</time></trkpt><trkpt lat="39.38850174" lon="-0.37865943"><ele>-1.6</ele><time>2022-11-10T16:31:39.0000000+00:00</time></trkpt><trkpt lat="39.38850174" lon="-0.37865943"><ele>-1.6</ele><time>2022-11-10T16:31:40.0000000+00:00</time></trkpt><trkpt lat="39.38850174" lon="-0.37865943"><ele>-1.6</ele><time>2022-11-10T16:31:41.0000000+00:00</time></trkpt><trkpt lat="39.38850174" lon="-0.37865943"><ele>-1.6</ele><time>2022-11-10T16:31:42.0000000+00:00</time></trkpt><trkpt lat="39.38850174" lon="-0.37865943"><ele>-1.6</ele><time>2022-11-10T16:31:43.0000000+00:00</time></trkpt><trkpt lat="39.38850174" lon="-0.37865943"><ele>-1.6</ele><time>2022-11-10T16:31:44.0000000+00:00</time></trkpt><trkpt lat="39.38850174" lon="-0.37865943"><ele>-1.6</ele><time>2022-11-10T16:31:45.0000000+00:00</time></trkpt><trkpt lat="39.38850174" lon="-0.37865943"><ele>-1.6</ele><time>2022-11-10T16:31:46.0000000+00:00</time></trkpt><trkpt lat="39.38850174" lon="-0.37865943"><ele>-1.6</ele><time>2022-11-10T16:31:47.0000000+00:00</time></trkpt><trkpt lat="39.38850174" lon="-0.37865943"><ele>-1.6</ele><time>2022-11-10T16:31:48.0000000+00:00</time></trkpt><trkpt lat="39.38850174" lon="-0.37865943"><ele>-1.6</ele><time>2022-11-10T16:31:49.0000000+00:00</time></trkpt><trkpt lat="39.38850174" lon="-0.37865943"><ele>-1.6</ele><time>2022-11-10T16:31:50.0000000+00:00</time></trkpt><trkpt lat="39.38850174" lon="-0.37865943"><ele>-1.6</ele><time>2022-11-10T16:31:51.0000000+00:00</time></trkpt><trkpt lat="39.38850174" lon="-0.37865943"><ele>-1.6</ele><time>2022-11-10T16:31:52.0000000+00:00</time></trkpt><trkpt lat="39.38850174" lon="-0.37865943"><ele>-1.8</ele><time>2022-11-10T16:31:53.0000000+00:00</time></trkpt><trkpt lat="39.38850174" lon="-0.37865943"><ele>-1.8</ele><time>2022-11-10T16:31:54.0000000+00:00</time></trkpt><trkpt lat="39.38850174" lon="-0.37865943"><ele>-1.6</ele><time>2022-11-10T16:31:55.0000000+00:00</time></trkpt><trkpt lat="39.38850174" lon="-0.37865943"><ele>-1.6</ele><time>2022-11-10T16:31:56.0000000+00:00</time></trkpt><trkpt lat="39.38850174" lon="-0.37865943"><ele>-1.6</ele><time>2022-11-10T16:31:57.0000000+00:00</time></trkpt><trkpt lat="39.38850174" lon="-0.37865943"><ele>-1.6</ele><time>2022-11-10T16:31:58.0000000+00:00</time></trkpt><trkpt lat="39.38850174" lon="-0.37865943"><ele>-1.6</ele><time>2022-11-10T16:31:59.0000000+00:00</time></trkpt><trkpt lat="39.38850174" lon="-0.37865943"><ele>-1.6</ele><time>2022-11-10T16:32:00.0000000+00:00</time></trkpt><trkpt lat="39.38850174" lon="-0.37865943"><ele>-1.6</ele><time>2022-11-10T16:32:01.0000000+00:00</time></trkpt><trkpt lat="39.38850174" lon="-0.37865943"><ele>-1.6</ele><time>2022-11-10T16:32:02.0000000+00:00</time></trkpt><trkpt lat="39.38850174" lon="-0.37865943"><ele>-1.6</ele><time>2022-11-10T16:32:03.0000000+00:00</time></trkpt><trkpt lat="39.38850174" lon="-0.37865943"><ele>-1.6</ele><time>2022-11-10T16:32:04.0000000+00:00</time></trkpt><trkpt lat="39.38850174" lon="-0.37865943"><ele>-1.6</ele><time>2022-11-10T16:32:05.0000000+00:00</time></trkpt><trkpt lat="39.38850174" lon="-0.37865943"><ele>-1.6</ele><time>2022-11-10T16:32:06.0000000+00:00</time></trkpt><trkpt lat="39.38850174" lon="-0.37865943"><ele>-1.6</ele><time>2022-11-10T16:32:07.0000000+00:00</time></trkpt><trkpt lat="39.38850174" lon="-0.37865943"><ele>-1.6</ele><time>2022-11-10T16:32:08.0000000+00:00</time></trkpt><trkpt lat="39.38850174" lon="-0.37865943"><ele>-1.6</ele><time>2022-11-10T16:32:09.0000000+00:00</time></trkpt><trkpt lat="39.38850174" lon="-0.37865943"><ele>-1.6</ele><time>2022-11-10T16:32:10.0000000+00:00</time></trkpt><trkpt lat="39.38850174" lon="-0.37865943"><ele>-1.6</ele><time>2022-11-10T16:32:11.0000000+00:00</time></trkpt><trkpt lat="39.38850174" lon="-0.37865943"><ele>-1.6</ele><time>2022-11-10T16:32:12.0000000+00:00</time></trkpt><trkpt lat="39.38850174" lon="-0.37865943"><ele>-1.6</ele><time>2022-11-10T16:32:13.0000000+00:00</time></trkpt><trkpt lat="39.38850174" lon="-0.37865943"><ele>-1.6</ele><time>2022-11-10T16:32:14.0000000+00:00</time></trkpt><trkpt lat="39.38850174" lon="-0.37865943"><ele>-1.6</ele><time>2022-11-10T16:32:15.0000000+00:00</time></trkpt><trkpt lat="39.38850174" lon="-0.37865943"><ele>-1.6</ele><time>2022-11-10T16:32:16.0000000+00:00</time></trkpt><trkpt lat="39.38850174" lon="-0.37865943"><ele>-1.6</ele><time>2022-11-10T16:32:17.0000000+00:00</time></trkpt><trkpt lat="39.38850174" lon="-0.37865943"><ele>-1.6</ele><time>2022-11-10T16:32:18.0000000+00:00</time></trkpt><trkpt lat="39.38850174" lon="-0.37865943"><ele>-1.6</ele><time>2022-11-10T16:32:19.0000000+00:00</time></trkpt><trkpt lat="39.38850174" lon="-0.37865943"><ele>-1.6</ele><time>2022-11-10T16:32:20.0000000+00:00</time></trkpt><trkpt lat="39.38850174" lon="-0.37865943"><ele>-1.6</ele><time>2022-11-10T16:32:21.0000000+00:00</time></trkpt><trkpt lat="39.38850174" lon="-0.37865943"><ele>-1.6</ele><time>2022-11-10T16:32:22.0000000+00:00</time></trkpt><trkpt lat="39.38850174" lon="-0.37865943"><ele>-1.6</ele><time>2022-11-10T16:32:23.0000000+00:00</time></trkpt><trkpt lat="39.38850174" lon="-0.37865943"><ele>-1.6</ele><time>2022-11-10T16:32:24.0000000+00:00</time></trkpt><trkpt lat="39.38850174" lon="-0.37865943"><ele>-1.6</ele><time>2022-11-10T16:32:25.0000000+00:00</time></trkpt><trkpt lat="39.38850174" lon="-0.37865943"><ele>-1.6</ele><time>2022-11-10T16:32:26.0000000+00:00</time></trkpt><trkpt lat="39.38850174" lon="-0.37865943"><ele>-1.6</ele><time>2022-11-10T16:32:27.0000000+00:00</time></trkpt><trkpt lat="39.38850174" lon="-0.37865943"><ele>-1.6</ele><time>2022-11-10T16:32:28.0000000+00:00</time></trkpt><trkpt lat="39.38850174" lon="-0.37865943"><ele>-1.6</ele><time>2022-11-10T16:32:29.0000000+00:00</time></trkpt><trkpt lat="39.38850174" lon="-0.37865943"><ele>-1.6</ele><time>2022-11-10T16:32:30.0000000+00:00</time></trkpt><trkpt lat="39.38850174" lon="-0.37865943"><ele>-1.6</ele><time>2022-11-10T16:32:31.0000000+00:00</time></trkpt><trkpt lat="39.38850174" lon="-0.37865943"><ele>-1.6</ele><time>2022-11-10T16:32:32.0000000+00:00</time></trkpt><trkpt lat="39.38850174" lon="-0.37865943"><ele>-1.6</ele><time>2022-11-10T16:32:33.0000000+00:00</time></trkpt><trkpt lat="39.38850174" lon="-0.37865943"><ele>-1.6</ele><time>2022-11-10T16:32:34.0000000+00:00</time></trkpt><trkpt lat="39.38850174" lon="-0.37865943"><ele>-1.6</ele><time>2022-11-10T16:32:35.0000000+00:00</time></trkpt><trkpt lat="39.38850174" lon="-0.37865943"><ele>-1.6</ele><time>2022-11-10T16:32:36.0000000+00:00</time></trkpt><trkpt lat="39.38850174" lon="-0.37865943"><ele>-1.6</ele><time>2022-11-10T16:32:37.0000000+00:00</time></trkpt><trkpt lat="39.38850174" lon="-0.37865943"><ele>-1.6</ele><time>2022-11-10T16:32:38.0000000+00:00</time></trkpt><trkpt lat="39.38850174" lon="-0.37865943"><ele>-1.6</ele><time>2022-11-10T16:32:39.0000000+00:00</time></trkpt><trkpt lat="39.38850174" lon="-0.37865943"><ele>-1.6</ele><time>2022-11-10T16:32:40.0000000+00:00</time></trkpt><trkpt lat="39.38850174" lon="-0.37865943"><ele>-1.6</ele><time>2022-11-10T16:32:41.0000000+00:00</time></trkpt><trkpt lat="39.38850174" lon="-0.37865943"><ele>-1.6</ele><time>2022-11-10T16:32:42.0000000+00:00</time></trkpt><trkpt lat="39.38850174" lon="-0.37865943"><ele>-1.6</ele><time>2022-11-10T16:32:43.0000000+00:00</time></trkpt><trkpt lat="39.38850174" lon="-0.37865943"><ele>-1.6</ele><time>2022-11-10T16:32:44.0000000+00:00</time></trkpt><trkpt lat="39.38850174" lon="-0.37865943"><ele>-1.6</ele><time>2022-11-10T16:32:45.0000000+00:00</time></trkpt><trkpt lat="39.38850174" lon="-0.37865943"><ele>-1.6</ele><time>2022-11-10T16:32:46.0000000+00:00</time></trkpt><trkpt lat="39.38850174" lon="-0.37865943"><ele>-1.6</ele><time>2022-11-10T16:32:47.0000000+00:00</time></trkpt><trkpt lat="39.38850174" lon="-0.37865943"><ele>-1.6</ele><time>2022-11-10T16:32:48.0000000+00:00</time></trkpt><trkpt lat="39.38850174" lon="-0.37865943"><ele>-1.6</ele><time>2022-11-10T16:32:49.0000000+00:00</time></trkpt><trkpt lat="39.38850174" lon="-0.37865943"><ele>-1.6</ele><time>2022-11-10T16:32:50.0000000+00:00</time></trkpt><trkpt lat="39.38850174" lon="-0.37865943"><ele>-1.6</ele><time>2022-11-10T16:32:51.0000000+00:00</time></trkpt><trkpt lat="39.38850174" lon="-0.37865943"><ele>-1.6</ele><time>2022-11-10T16:32:52.0000000+00:00</time></trkpt><trkpt lat="39.38850174" lon="-0.37865943"><ele>-1.6</ele><time>2022-11-10T16:32:53.0000000+00:00</time></trkpt><trkpt lat="39.38850174" lon="-0.37865943"><ele>-1.6</ele><time>2022-11-10T16:32:54.0000000+00:00</time></trkpt><trkpt lat="39.38850174" lon="-0.37865943"><ele>-1.6</ele><time>2022-11-10T16:32:55.0000000+00:00</time></trkpt><trkpt lat="39.38850174" lon="-0.37865943"><ele>-1.6</ele><time>2022-11-10T16:32:56.0000000+00:00</time></trkpt><trkpt lat="39.38850174" lon="-0.37865943"><ele>-1.6</ele><time>2022-11-10T16:32:57.0000000+00:00</time></trkpt><trkpt lat="39.38850174" lon="-0.37865943"><ele>-1.6</ele><time>2022-11-10T16:32:58.0000000+00:00</time></trkpt><trkpt lat="39.38850174" lon="-0.37865943"><ele>-1.6</ele><time>2022-11-10T16:32:59.0000000+00:00</time></trkpt><trkpt lat="39.38850174" lon="-0.37865943"><ele>-1.6</ele><time>2022-11-10T16:33:00.0000000+00:00</time></trkpt><trkpt lat="39.38850325" lon="-0.37865725"><ele>-1.6</ele><time>2022-11-10T16:33:01.0000000+00:00</time></trkpt><trkpt lat="39.38850392" lon="-0.37865373"><ele>-1.6</ele><time>2022-11-10T16:33:02.0000000+00:00</time></trkpt><trkpt lat="39.38850392" lon="-0.37865373"><ele>-1.6</ele><time>2022-11-10T16:33:03.0000000+00:00</time></trkpt><trkpt lat="39.38850392" lon="-0.37865373"><ele>-1.6</ele><time>2022-11-10T16:33:04.0000000+00:00</time></trkpt><trkpt lat="39.38850392" lon="-0.37865373"><ele>-1.6</ele><time>2022-11-10T16:33:05.0000000+00:00</time></trkpt><trkpt lat="39.38850392" lon="-0.37865373"><ele>-1.6</ele><time>2022-11-10T16:33:06.0000000+00:00</time></trkpt><trkpt lat="39.38850392" lon="-0.37865373"><ele>-1.6</ele><time>2022-11-10T16:33:07.0000000+00:00</time></trkpt><trkpt lat="39.38850392" lon="-0.37865373"><ele>-1.6</ele><time>2022-11-10T16:33:08.0000000+00:00</time></trkpt><trkpt lat="39.38850392" lon="-0.37865373"><ele>-1.6</ele><time>2022-11-10T16:33:09.0000000+00:00</time></trkpt><trkpt lat="39.38850392" lon="-0.37865373"><ele>-1.6</ele><time>2022-11-10T16:33:10.0000000+00:00</time></trkpt><trkpt lat="39.38850392" lon="-0.37865373"><ele>-1.6</ele><time>2022-11-10T16:33:11.0000000+00:00</time></trkpt><trkpt lat="39.38850392" lon="-0.37865373"><ele>-1.6</ele><time>2022-11-10T16:33:12.0000000+00:00</time></trkpt><trkpt lat="39.38850392" lon="-0.37865373"><ele>-1.6</ele><time>2022-11-10T16:33:13.0000000+00:00</time></trkpt><trkpt lat="39.38850392" lon="-0.37865373"><ele>-1.6</ele><time>2022-11-10T16:33:14.0000000+00:00</time></trkpt><trkpt lat="39.38850392" lon="-0.37865373"><ele>-1.6</ele><time>2022-11-10T16:33:15.0000000+00:00</time></trkpt><trkpt lat="39.38850392" lon="-0.37865373"><ele>-1.6</ele><time>2022-11-10T16:33:16.0000000+00:00</time></trkpt><trkpt lat="39.38850392" lon="-0.37865373"><ele>-1.6</ele><time>2022-11-10T16:33:17.0000000+00:00</time></trkpt><trkpt lat="39.38850392" lon="-0.37865373"><ele>-1.6</ele><time>2022-11-10T16:33:18.0000000+00:00</time></trkpt><trkpt lat="39.38850392" lon="-0.37865373"><ele>-1.6</ele><time>2022-11-10T16:33:19.0000000+00:00</time></trkpt><trkpt lat="39.38850392" lon="-0.37865373"><ele>-1.6</ele><time>2022-11-10T16:33:20.0000000+00:00</time></trkpt><trkpt lat="39.38850392" lon="-0.37865373"><ele>-1.6</ele><time>2022-11-10T16:33:21.0000000+00:00</time></trkpt><trkpt lat="39.38850392" lon="-0.37865373"><ele>-1.6</ele><time>2022-11-10T16:33:22.0000000+00:00</time></trkpt><trkpt lat="39.38850392" lon="-0.37865373"><ele>-1.6</ele><time>2022-11-10T16:33:23.0000000+00:00</time></trkpt><trkpt lat="39.38850392" lon="-0.37865373"><ele>-1.6</ele><time>2022-11-10T16:33:24.0000000+00:00</time></trkpt><trkpt lat="39.38850392" lon="-0.37865373"><ele>-1.6</ele><time>2022-11-10T16:33:25.0000000+00:00</time></trkpt><trkpt lat="39.38850392" lon="-0.37865373"><ele>-1.6</ele><time>2022-11-10T16:33:26.0000000+00:00</time></trkpt><trkpt lat="39.38850392" lon="-0.37865373"><ele>-1.6</ele><time>2022-11-10T16:33:27.0000000+00:00</time></trkpt><trkpt lat="39.38850392" lon="-0.37865373"><ele>-1.6</ele><time>2022-11-10T16:33:28.0000000+00:00</time></trkpt><trkpt lat="39.38850392" lon="-0.37865373"><ele>-1.6</ele><time>2022-11-10T16:33:29.0000000+00:00</time></trkpt><trkpt lat="39.38850392" lon="-0.37865373"><ele>-1.6</ele><time>2022-11-10T16:33:30.0000000+00:00</time></trkpt><trkpt lat="39.38850392" lon="-0.37865373"><ele>-1.6</ele><time>2022-11-10T16:33:31.0000000+00:00</time></trkpt><trkpt lat="39.38850392" lon="-0.37865373"><ele>-1.6</ele><time>2022-11-10T16:33:32.0000000+00:00</time></trkpt><trkpt lat="39.38850392" lon="-0.37865373"><ele>-1.6</ele><time>2022-11-10T16:33:33.0000000+00:00</time></trkpt><trkpt lat="39.38850392" lon="-0.37865373"><ele>-1.6</ele><time>2022-11-10T16:33:34.0000000+00:00</time></trkpt><trkpt lat="39.38850392" lon="-0.37865373"><ele>-1.6</ele><time>2022-11-10T16:33:35.0000000+00:00</time></trkpt><trkpt lat="39.38850358" lon="-0.37865507"><ele>-1.6</ele><time>2022-11-10T16:33:36.0000000+00:00</time></trkpt><trkpt lat="39.38850274" lon="-0.37865868"><ele>-1.6</ele><time>2022-11-10T16:33:37.0000000+00:00</time></trkpt><trkpt lat="39.38850274" lon="-0.37865868"><ele>-1.6</ele><time>2022-11-10T16:33:38.0000000+00:00</time></trkpt><trkpt lat="39.38850274" lon="-0.37865868"><ele>-1.6</ele><time>2022-11-10T16:33:39.0000000+00:00</time></trkpt><trkpt lat="39.38850274" lon="-0.37865868"><ele>-1.6</ele><time>2022-11-10T16:33:40.0000000+00:00</time></trkpt><trkpt lat="39.38850274" lon="-0.37865868"><ele>-1.6</ele><time>2022-11-10T16:33:41.0000000+00:00</time></trkpt><trkpt lat="39.38850274" lon="-0.37865868"><ele>-1.6</ele><time>2022-11-10T16:33:42.0000000+00:00</time></trkpt><trkpt lat="39.38850274" lon="-0.37865868"><ele>-1.6</ele><time>2022-11-10T16:33:43.0000000+00:00</time></trkpt><trkpt lat="39.38850274" lon="-0.37865868"><ele>-1.6</ele><time>2022-11-10T16:33:44.0000000+00:00</time></trkpt><trkpt lat="39.38850274" lon="-0.37865868"><ele>-1.6</ele><time>2022-11-10T16:33:45.0000000+00:00</time></trkpt><trkpt lat="39.38850274" lon="-0.37865868"><ele>-1.6</ele><time>2022-11-10T16:33:46.0000000+00:00</time></trkpt><trkpt lat="39.38850274" lon="-0.37865868"><ele>-1.6</ele><time>2022-11-10T16:33:47.0000000+00:00</time></trkpt><trkpt lat="39.38850274" lon="-0.37865868"><ele>-1.6</ele><time>2022-11-10T16:33:48.0000000+00:00</time></trkpt><trkpt lat="39.38850274" lon="-0.37865868"><ele>-1.6</ele><time>2022-11-10T16:33:49.0000000+00:00</time></trkpt><trkpt lat="39.38850274" lon="-0.37865868"><ele>-1.6</ele><time>2022-11-10T16:33:50.0000000+00:00</time></trkpt><trkpt lat="39.38850274" lon="-0.37865868"><ele>-1.6</ele><time>2022-11-10T16:33:51.0000000+00:00</time></trkpt><trkpt lat="39.38850274" lon="-0.37865868"><ele>-1.6</ele><time>2022-11-10T16:33:52.0000000+00:00</time></trkpt><trkpt lat="39.38850274" lon="-0.37865868"><ele>-1.6</ele><time>2022-11-10T16:33:53.0000000+00:00</time></trkpt><trkpt lat="39.38850274" lon="-0.37865868"><ele>-1.6</ele><time>2022-11-10T16:33:54.0000000+00:00</time></trkpt><trkpt lat="39.38850274" lon="-0.37865868"><ele>-1.6</ele><time>2022-11-10T16:33:55.0000000+00:00</time></trkpt><trkpt lat="39.38850274" lon="-0.37865868"><ele>-1.6</ele><time>2022-11-10T16:33:56.0000000+00:00</time></trkpt><trkpt lat="39.38850274" lon="-0.37865868"><ele>-1.6</ele><time>2022-11-10T16:33:57.0000000+00:00</time></trkpt><trkpt lat="39.38850274" lon="-0.37865868"><ele>-1.6</ele><time>2022-11-10T16:33:58.0000000+00:00</time></trkpt><trkpt lat="39.38850274" lon="-0.37865868"><ele>-1.6</ele><time>2022-11-10T16:33:59.0000000+00:00</time></trkpt><trkpt lat="39.38850274" lon="-0.37865868"><ele>-1.6</ele><time>2022-11-10T16:34:00.0000000+00:00</time></trkpt><trkpt lat="39.38850274" lon="-0.37865868"><ele>-1.6</ele><time>2022-11-10T16:34:01.0000000+00:00</time></trkpt><trkpt lat="39.38850274" lon="-0.37865868"><ele>-1.6</ele><time>2022-11-10T16:34:02.0000000+00:00</time></trkpt><trkpt lat="39.38850274" lon="-0.37865868"><ele>-1.6</ele><time>2022-11-10T16:34:03.0000000+00:00</time></trkpt><trkpt lat="39.38850291" lon="-0.37866103"><ele>-1.6</ele><time>2022-11-10T16:34:04.0000000+00:00</time></trkpt><trkpt lat="39.38850274" lon="-0.37865792"><ele>-1.6</ele><time>2022-11-10T16:34:05.0000000+00:00</time></trkpt><trkpt lat="39.38850274" lon="-0.37865792"><ele>-1.6</ele><time>2022-11-10T16:34:06.0000000+00:00</time></trkpt><trkpt lat="39.38850274" lon="-0.37865792"><ele>-1.6</ele><time>2022-11-10T16:34:07.0000000+00:00</time></trkpt><trkpt lat="39.38850274" lon="-0.37865792"><ele>-1.6</ele><time>2022-11-10T16:34:08.0000000+00:00</time></trkpt><trkpt lat="39.38850274" lon="-0.37865792"><ele>-1.6</ele><time>2022-11-10T16:34:09.0000000+00:00</time></trkpt><trkpt lat="39.38850274" lon="-0.37865792"><ele>-1.6</ele><time>2022-11-10T16:34:10.0000000+00:00</time></trkpt><trkpt lat="39.38850274" lon="-0.37865792"><ele>-1.6</ele><time>2022-11-10T16:34:11.0000000+00:00</time></trkpt><trkpt lat="39.38850274" lon="-0.37865792"><ele>-1.6</ele><time>2022-11-10T16:34:12.0000000+00:00</time></trkpt><trkpt lat="39.38850274" lon="-0.37865792"><ele>-1.6</ele><time>2022-11-10T16:34:13.0000000+00:00</time></trkpt><trkpt lat="39.38850316" lon="-0.37865683"><ele>-1.6</ele><time>2022-11-10T16:34:14.0000000+00:00</time></trkpt><trkpt lat="39.38850392" lon="-0.37865206"><ele>-1.6</ele><time>2022-11-10T16:34:15.0000000+00:00</time></trkpt><trkpt lat="39.38850392" lon="-0.37865206"><ele>-1.6</ele><time>2022-11-10T16:34:16.0000000+00:00</time></trkpt><trkpt lat="39.38850392" lon="-0.37865206"><ele>-1.6</ele><time>2022-11-10T16:34:17.0000000+00:00</time></trkpt><trkpt lat="39.38850392" lon="-0.37865206"><ele>-1.6</ele><time>2022-11-10T16:34:18.0000000+00:00</time></trkpt><trkpt lat="39.38850392" lon="-0.37865206"><ele>-1.6</ele><time>2022-11-10T16:34:19.0000000+00:00</time></trkpt><trkpt lat="39.38850392" lon="-0.37865206"><ele>-1.6</ele><time>2022-11-10T16:34:20.0000000+00:00</time></trkpt><trkpt lat="39.38850392" lon="-0.37865206"><ele>-1.6</ele><time>2022-11-10T16:34:21.0000000+00:00</time></trkpt><trkpt lat="39.38850392" lon="-0.37865206"><ele>-1.6</ele><time>2022-11-10T16:34:22.0000000+00:00</time></trkpt><trkpt lat="39.38850392" lon="-0.37865206"><ele>-1.6</ele><time>2022-11-10T16:34:23.0000000+00:00</time></trkpt><trkpt lat="39.38850392" lon="-0.37865206"><ele>-1.6</ele><time>2022-11-10T16:34:24.0000000+00:00</time></trkpt><trkpt lat="39.38850392" lon="-0.37865206"><ele>-1.6</ele><time>2022-11-10T16:34:25.0000000+00:00</time></trkpt><trkpt lat="39.38850392" lon="-0.37865206"><ele>-1.6</ele><time>2022-11-10T16:34:26.0000000+00:00</time></trkpt><trkpt lat="39.38850392" lon="-0.37865206"><ele>-1.6</ele><time>2022-11-10T16:34:27.0000000+00:00</time></trkpt><trkpt lat="39.38850392" lon="-0.37865206"><ele>-1.6</ele><time>2022-11-10T16:34:28.0000000+00:00</time></trkpt><trkpt lat="39.38850392" lon="-0.37865206"><ele>-1.6</ele><time>2022-11-10T16:34:29.0000000+00:00</time></trkpt><trkpt lat="39.38850392" lon="-0.37865206"><ele>-1.6</ele><time>2022-11-10T16:34:30.0000000+00:00</time></trkpt><trkpt lat="39.38850392" lon="-0.37865206"><ele>-1.6</ele><time>2022-11-10T16:34:31.0000000+00:00</time></trkpt><trkpt lat="39.38850392" lon="-0.37865206"><ele>-1.6</ele><time>2022-11-10T16:34:32.0000000+00:00</time></trkpt><trkpt lat="39.38850392" lon="-0.37865206"><ele>-1.6</ele><time>2022-11-10T16:34:33.0000000+00:00</time></trkpt><trkpt lat="39.38850392" lon="-0.37865206"><ele>-1.6</ele><time>2022-11-10T16:34:34.0000000+00:00</time></trkpt><trkpt lat="39.38850392" lon="-0.37865206"><ele>-1.6</ele><time>2022-11-10T16:34:35.0000000+00:00</time></trkpt><trkpt lat="39.38850392" lon="-0.37865206"><ele>-1.6</ele><time>2022-11-10T16:34:36.0000000+00:00</time></trkpt><trkpt lat="39.38850392" lon="-0.37865206"><ele>-1.6</ele><time>2022-11-10T16:34:37.0000000+00:00</time></trkpt><trkpt lat="39.38850392" lon="-0.37865206"><ele>-1.6</ele><time>2022-11-10T16:34:38.0000000+00:00</time></trkpt><trkpt lat="39.38850392" lon="-0.37865206"><ele>-1.6</ele><time>2022-11-10T16:34:39.0000000+00:00</time></trkpt><trkpt lat="39.38850392" lon="-0.37865206"><ele>-1.6</ele><time>2022-11-10T16:34:40.0000000+00:00</time></trkpt><trkpt lat="39.38850392" lon="-0.37865206"><ele>-1.6</ele><time>2022-11-10T16:34:41.0000000+00:00</time></trkpt><trkpt lat="39.38850392" lon="-0.37865206"><ele>-1.6</ele><time>2022-11-10T16:34:42.0000000+00:00</time></trkpt><trkpt lat="39.38850392" lon="-0.37865206"><ele>-1.6</ele><time>2022-11-10T16:34:43.0000000+00:00</time></trkpt><trkpt lat="39.38850392" lon="-0.37865206"><ele>-1.6</ele><time>2022-11-10T16:34:44.0000000+00:00</time></trkpt><trkpt lat="39.38850392" lon="-0.37865206"><ele>-1.6</ele><time>2022-11-10T16:34:45.0000000+00:00</time></trkpt><trkpt lat="39.38850392" lon="-0.37865206"><ele>-1.6</ele><time>2022-11-10T16:34:46.0000000+00:00</time></trkpt><trkpt lat="39.38850392" lon="-0.37865206"><ele>-1.6</ele><time>2022-11-10T16:34:47.0000000+00:00</time></trkpt><trkpt lat="39.38850392" lon="-0.37865206"><ele>-1.6</ele><time>2022-11-10T16:34:48.0000000+00:00</time></trkpt><trkpt lat="39.38850392" lon="-0.37865206"><ele>-1.6</ele><time>2022-11-10T16:34:49.0000000+00:00</time></trkpt><trkpt lat="39.38850392" lon="-0.37865206"><ele>-1.6</ele><time>2022-11-10T16:34:50.0000000+00:00</time></trkpt><trkpt lat="39.38850392" lon="-0.37865206"><ele>-1.6</ele><time>2022-11-10T16:34:51.0000000+00:00</time></trkpt><trkpt lat="39.38850392" lon="-0.37865206"><ele>-1.6</ele><time>2022-11-10T16:34:52.0000000+00:00</time></trkpt><trkpt lat="39.38850392" lon="-0.37865206"><ele>-1.6</ele><time>2022-11-10T16:34:53.0000000+00:00</time></trkpt><trkpt lat="39.38850392" lon="-0.37865206"><ele>-1.6</ele><time>2022-11-10T16:34:54.0000000+00:00</time></trkpt><trkpt lat="39.38850392" lon="-0.37865206"><ele>-1.6</ele><time>2022-11-10T16:34:55.0000000+00:00</time></trkpt><trkpt lat="39.38850392" lon="-0.37865206"><ele>-1.6</ele><time>2022-11-10T16:34:56.0000000+00:00</time></trkpt><trkpt lat="39.38850392" lon="-0.37865206"><ele>-1.6</ele><time>2022-11-10T16:34:57.0000000+00:00</time></trkpt><trkpt lat="39.38850392" lon="-0.37865206"><ele>-1.6</ele><time>2022-11-10T16:34:58.0000000+00:00</time></trkpt><trkpt lat="39.38850392" lon="-0.37865206"><ele>-1.6</ele><time>2022-11-10T16:34:59.0000000+00:00</time></trkpt><trkpt lat="39.38850392" lon="-0.37865206"><ele>-1.6</ele><time>2022-11-10T16:35:00.0000000+00:00</time></trkpt><trkpt lat="39.38850392" lon="-0.37865206"><ele>-1.6</ele><time>2022-11-10T16:35:01.0000000+00:00</time></trkpt><trkpt lat="39.38850392" lon="-0.37865206"><ele>-1.6</ele><time>2022-11-10T16:35:02.0000000+00:00</time></trkpt><trkpt lat="39.38850392" lon="-0.37865206"><ele>-1.6</ele><time>2022-11-10T16:35:03.0000000+00:00</time></trkpt><trkpt lat="39.38850392" lon="-0.37865206"><ele>-1.6</ele><time>2022-11-10T16:35:04.0000000+00:00</time></trkpt><trkpt lat="39.38850392" lon="-0.37865206"><ele>-1.6</ele><time>2022-11-10T16:35:05.0000000+00:00</time></trkpt><trkpt lat="39.38850392" lon="-0.37865206"><ele>-1.6</ele><time>2022-11-10T16:35:06.0000000+00:00</time></trkpt><trkpt lat="39.38850392" lon="-0.37865206"><ele>-1.6</ele><time>2022-11-10T16:35:07.0000000+00:00</time></trkpt><trkpt lat="39.38850392" lon="-0.37865206"><ele>-1.6</ele><time>2022-11-10T16:35:08.0000000+00:00</time></trkpt><trkpt lat="39.38850392" lon="-0.37865206"><ele>-1.6</ele><time>2022-11-10T16:35:09.0000000+00:00</time></trkpt><trkpt lat="39.38850392" lon="-0.37865206"><ele>-1.6</ele><time>2022-11-10T16:35:10.0000000+00:00</time></trkpt><trkpt lat="39.38850392" lon="-0.37865206"><ele>-1.6</ele><time>2022-11-10T16:35:11.0000000+00:00</time></trkpt><trkpt lat="39.38850392" lon="-0.37865206"><ele>-1.6</ele><time>2022-11-10T16:35:12.0000000+00:00</time></trkpt><trkpt lat="39.38850392" lon="-0.37865206"><ele>-1.6</ele><time>2022-11-10T16:35:13.0000000+00:00</time></trkpt><trkpt lat="39.38850601" lon="-0.37865683"><ele>-1.6</ele><time>2022-11-10T16:35:14.0000000+00:00</time></trkpt><trkpt lat="39.38850761" lon="-0.37866036"><ele>-1.6</ele><time>2022-11-10T16:35:15.0000000+00:00</time></trkpt><trkpt lat="39.38850761" lon="-0.37866036"><ele>-1.6</ele><time>2022-11-10T16:35:16.0000000+00:00</time></trkpt><trkpt lat="39.38850761" lon="-0.37866036"><ele>-1.6</ele><time>2022-11-10T16:35:17.0000000+00:00</time></trkpt><trkpt lat="39.38850761" lon="-0.37866036"><ele>-1.6</ele><time>2022-11-10T16:35:18.0000000+00:00</time></trkpt><trkpt lat="39.38850761" lon="-0.37866036"><ele>-1.6</ele><time>2022-11-10T16:35:19.0000000+00:00</time></trkpt><trkpt lat="39.38850761" lon="-0.37866036"><ele>-1.6</ele><time>2022-11-10T16:35:20.0000000+00:00</time></trkpt><trkpt lat="39.38850761" lon="-0.37866036"><ele>-1.6</ele><time>2022-11-10T16:35:21.0000000+00:00</time></trkpt><trkpt lat="39.38850761" lon="-0.37866036"><ele>-1.6</ele><time>2022-11-10T16:35:22.0000000+00:00</time></trkpt><trkpt lat="39.38850761" lon="-0.37866036"><ele>-1.6</ele><time>2022-11-10T16:35:23.0000000+00:00</time></trkpt><trkpt lat="39.38850761" lon="-0.37866036"><ele>-1.6</ele><time>2022-11-10T16:35:24.0000000+00:00</time></trkpt><trkpt lat="39.38850761" lon="-0.37866036"><ele>-1.6</ele><time>2022-11-10T16:35:25.0000000+00:00</time></trkpt><trkpt lat="39.38850761" lon="-0.37866036"><ele>-1.6</ele><time>2022-11-10T16:35:26.0000000+00:00</time></trkpt><trkpt lat="39.38850761" lon="-0.37866036"><ele>-1.6</ele><time>2022-11-10T16:35:27.0000000+00:00</time></trkpt><trkpt lat="39.38850761" lon="-0.37866036"><ele>-1.6</ele><time>2022-11-10T16:35:28.0000000+00:00</time></trkpt><trkpt lat="39.38850761" lon="-0.37866036"><ele>-1.6</ele><time>2022-11-10T16:35:29.0000000+00:00</time></trkpt><trkpt lat="39.38850761" lon="-0.37866036"><ele>-1.6</ele><time>2022-11-10T16:35:30.0000000+00:00</time></trkpt><trkpt lat="39.38850761" lon="-0.37866036"><ele>-1.6</ele><time>2022-11-10T16:35:31.0000000+00:00</time></trkpt><trkpt lat="39.38850761" lon="-0.37866036"><ele>-1.6</ele><time>2022-11-10T16:35:32.0000000+00:00</time></trkpt><trkpt lat="39.38850761" lon="-0.37866036"><ele>-1.6</ele><time>2022-11-10T16:35:33.0000000+00:00</time></trkpt><trkpt lat="39.38850761" lon="-0.37866036"><ele>-1.6</ele><time>2022-11-10T16:35:34.0000000+00:00</time></trkpt><trkpt lat="39.38850761" lon="-0.37866036"><ele>-1.6</ele><time>2022-11-10T16:35:35.0000000+00:00</time></trkpt><trkpt lat="39.38850761" lon="-0.37866036"><ele>-1.6</ele><time>2022-11-10T16:35:36.0000000+00:00</time></trkpt><trkpt lat="39.38850761" lon="-0.37866036"><ele>-1.6</ele><time>2022-11-10T16:35:37.0000000+00:00</time></trkpt><trkpt lat="39.38850761" lon="-0.37866036"><ele>-1.6</ele><time>2022-11-10T16:35:38.0000000+00:00</time></trkpt><trkpt lat="39.38850761" lon="-0.37866036"><ele>-1.6</ele><time>2022-11-10T16:35:39.0000000+00:00</time></trkpt><trkpt lat="39.38850308" lon="-0.37866488"><ele>-1.6</ele><time>2022-11-10T16:35:40.0000000+00:00</time></trkpt><trkpt lat="39.38850325" lon="-0.37866865"><ele>-1.6</ele><time>2022-11-10T16:35:41.0000000+00:00</time></trkpt><trkpt lat="39.388503" lon="-0.37867259"><ele>-1.6</ele><time>2022-11-10T16:35:42.0000000+00:00</time></trkpt><trkpt lat="39.38850224" lon="-0.37867645"><ele>-1.6</ele><time>2022-11-10T16:35:43.0000000+00:00</time></trkpt><trkpt lat="39.38850224" lon="-0.37867645"><ele>-1.6</ele><time>2022-11-10T16:35:44.0000000+00:00</time></trkpt><trkpt lat="39.38850224" lon="-0.37867645"><ele>-1.6</ele><time>2022-11-10T16:35:45.0000000+00:00</time></trkpt><trkpt lat="39.38850224" lon="-0.37867645"><ele>-1.6</ele><time>2022-11-10T16:35:46.0000000+00:00</time></trkpt><trkpt lat="39.38850224" lon="-0.37867645"><ele>-1.6</ele><time>2022-11-10T16:35:47.0000000+00:00</time></trkpt><trkpt lat="39.38850224" lon="-0.37867645"><ele>-1.6</ele><time>2022-11-10T16:35:48.0000000+00:00</time></trkpt><trkpt lat="39.38850224" lon="-0.37867645"><ele>-1.6</ele><time>2022-11-10T16:35:49.0000000+00:00</time></trkpt><trkpt lat="39.38850224" lon="-0.37867645"><ele>-1.6</ele><time>2022-11-10T16:35:50.0000000+00:00</time></trkpt><trkpt lat="39.38850224" lon="-0.37867645"><ele>-1.6</ele><time>2022-11-10T16:35:51.0000000+00:00</time></trkpt><trkpt lat="39.38850224" lon="-0.37867645"><ele>-1.6</ele><time>2022-11-10T16:35:52.0000000+00:00</time></trkpt><trkpt lat="39.38850224" lon="-0.37867645"><ele>-1.6</ele><time>2022-11-10T16:35:53.0000000+00:00</time></trkpt><trkpt lat="39.38850224" lon="-0.37867645"><ele>-1.6</ele><time>2022-11-10T16:35:54.0000000+00:00</time></trkpt><trkpt lat="39.38850224" lon="-0.37867645"><ele>-1.6</ele><time>2022-11-10T16:35:55.0000000+00:00</time></trkpt><trkpt lat="39.38850207" lon="-0.37868416"><ele>-1.6</ele><time>2022-11-10T16:35:56.0000000+00:00</time></trkpt><trkpt lat="39.38850224" lon="-0.37868768"><ele>-1.6</ele><time>2022-11-10T16:35:57.0000000+00:00</time></trkpt><trkpt lat="39.38850224" lon="-0.37868768"><ele>-1.6</ele><time>2022-11-10T16:35:58.0000000+00:00</time></trkpt><trkpt lat="39.38850224" lon="-0.37868768"><ele>-1.6</ele><time>2022-11-10T16:35:59.0000000+00:00</time></trkpt><trkpt lat="39.38850224" lon="-0.37868768"><ele>-1.6</ele><time>2022-11-10T16:36:00.0000000+00:00</time></trkpt><trkpt lat="39.38850224" lon="-0.37868768"><ele>-1.6</ele><time>2022-11-10T16:36:01.0000000+00:00</time></trkpt><trkpt lat="39.38850224" lon="-0.37868768"><ele>-1.6</ele><time>2022-11-10T16:36:02.0000000+00:00</time></trkpt><trkpt lat="39.38850224" lon="-0.37868768"><ele>-1.6</ele><time>2022-11-10T16:36:03.0000000+00:00</time></trkpt><trkpt lat="39.38850224" lon="-0.37868768"><ele>-1.6</ele><time>2022-11-10T16:36:04.0000000+00:00</time></trkpt><trkpt lat="39.38850224" lon="-0.37868768"><ele>-1.6</ele><time>2022-11-10T16:36:05.0000000+00:00</time></trkpt><trkpt lat="39.38850224" lon="-0.37868768"><ele>-1.6</ele><time>2022-11-10T16:36:06.0000000+00:00</time></trkpt><trkpt lat="39.38850224" lon="-0.37868768"><ele>-1.6</ele><time>2022-11-10T16:36:07.0000000+00:00</time></trkpt><trkpt lat="39.38850123" lon="-0.37868869"><ele>-1.6</ele><time>2022-11-10T16:36:08.0000000+00:00</time></trkpt><trkpt lat="39.38850157" lon="-0.37869271"><ele>-1.6</ele><time>2022-11-10T16:36:09.0000000+00:00</time></trkpt><trkpt lat="39.38850157" lon="-0.37869271"><ele>-1.6</ele><time>2022-11-10T16:36:10.0000000+00:00</time></trkpt><trkpt lat="39.38850157" lon="-0.37869271"><ele>-1.6</ele><time>2022-11-10T16:36:11.0000000+00:00</time></trkpt><trkpt lat="39.38850157" lon="-0.37869271"><ele>-1.6</ele><time>2022-11-10T16:36:12.0000000+00:00</time></trkpt><trkpt lat="39.38850157" lon="-0.37869271"><ele>-1.6</ele><time>2022-11-10T16:36:13.0000000+00:00</time></trkpt><trkpt lat="39.38850157" lon="-0.37869271"><ele>-1.6</ele><time>2022-11-10T16:36:14.0000000+00:00</time></trkpt><trkpt lat="39.38850157" lon="-0.37869271"><ele>-1.6</ele><time>2022-11-10T16:36:15.0000000+00:00</time></trkpt><trkpt lat="39.38850157" lon="-0.37869271"><ele>-1.6</ele><time>2022-11-10T16:36:16.0000000+00:00</time></trkpt><trkpt lat="39.38850157" lon="-0.37869271"><ele>-1.6</ele><time>2022-11-10T16:36:17.0000000+00:00</time></trkpt><trkpt lat="39.38850157" lon="-0.37869271"><ele>-1.6</ele><time>2022-11-10T16:36:18.0000000+00:00</time></trkpt><trkpt lat="39.38850157" lon="-0.37869271"><ele>-1.6</ele><time>2022-11-10T16:36:19.0000000+00:00</time></trkpt><trkpt lat="39.38850157" lon="-0.37869271"><ele>-1.6</ele><time>2022-11-10T16:36:20.0000000+00:00</time></trkpt><trkpt lat="39.38850157" lon="-0.37869271"><ele>-1.6</ele><time>2022-11-10T16:36:21.0000000+00:00</time></trkpt><trkpt lat="39.38850157" lon="-0.37869271"><ele>-1.6</ele><time>2022-11-10T16:36:22.0000000+00:00</time></trkpt><trkpt lat="39.38850157" lon="-0.37869271"><ele>-1.6</ele><time>2022-11-10T16:36:23.0000000+00:00</time></trkpt><trkpt lat="39.38850157" lon="-0.37869271"><ele>-1.6</ele><time>2022-11-10T16:36:24.0000000+00:00</time></trkpt><trkpt lat="39.38850157" lon="-0.37869271"><ele>-1.6</ele><time>2022-11-10T16:36:25.0000000+00:00</time></trkpt><trkpt lat="39.38850157" lon="-0.37869271"><ele>-1.6</ele><time>2022-11-10T16:36:26.0000000+00:00</time></trkpt><trkpt lat="39.38850157" lon="-0.37869271"><ele>-1.6</ele><time>2022-11-10T16:36:27.0000000+00:00</time></trkpt><trkpt lat="39.38850157" lon="-0.37869271"><ele>-1.6</ele><time>2022-11-10T16:36:28.0000000+00:00</time></trkpt><trkpt lat="39.38850157" lon="-0.37869271"><ele>-1.6</ele><time>2022-11-10T16:36:29.0000000+00:00</time></trkpt><trkpt lat="39.38850157" lon="-0.37869271"><ele>-1.6</ele><time>2022-11-10T16:36:30.0000000+00:00</time></trkpt><trkpt lat="39.38850157" lon="-0.37869271"><ele>-1.6</ele><time>2022-11-10T16:36:31.0000000+00:00</time></trkpt><trkpt lat="39.38850157" lon="-0.37869271"><ele>-1.6</ele><time>2022-11-10T16:36:32.0000000+00:00</time></trkpt><trkpt lat="39.38850157" lon="-0.37869271"><ele>-1.6</ele><time>2022-11-10T16:36:33.0000000+00:00</time></trkpt><trkpt lat="39.38850157" lon="-0.37869271"><ele>-1.6</ele><time>2022-11-10T16:36:34.0000000+00:00</time></trkpt><trkpt lat="39.38850157" lon="-0.37869271"><ele>-1.6</ele><time>2022-11-10T16:36:35.0000000+00:00</time></trkpt><trkpt lat="39.38850157" lon="-0.37869271"><ele>-1.6</ele><time>2022-11-10T16:36:36.0000000+00:00</time></trkpt><trkpt lat="39.38850157" lon="-0.37869271"><ele>-1.6</ele><time>2022-11-10T16:36:37.0000000+00:00</time></trkpt><trkpt lat="39.38850157" lon="-0.37869271"><ele>-1.6</ele><time>2022-11-10T16:36:38.0000000+00:00</time></trkpt><trkpt lat="39.38850157" lon="-0.37869271"><ele>-1.6</ele><time>2022-11-10T16:36:39.0000000+00:00</time></trkpt><trkpt lat="39.38850157" lon="-0.37869271"><ele>-1.6</ele><time>2022-11-10T16:36:40.0000000+00:00</time></trkpt><trkpt lat="39.38850157" lon="-0.37869271"><ele>-1.6</ele><time>2022-11-10T16:36:41.0000000+00:00</time></trkpt><trkpt lat="39.38850157" lon="-0.37869271"><ele>-1.6</ele><time>2022-11-10T16:36:42.0000000+00:00</time></trkpt><trkpt lat="39.38850157" lon="-0.37869271"><ele>-1.6</ele><time>2022-11-10T16:36:43.0000000+00:00</time></trkpt><trkpt lat="39.38850157" lon="-0.37869271"><ele>-1.6</ele><time>2022-11-10T16:36:44.0000000+00:00</time></trkpt><trkpt lat="39.38850157" lon="-0.37869271"><ele>-1.6</ele><time>2022-11-10T16:36:45.0000000+00:00</time></trkpt><trkpt lat="39.38850157" lon="-0.37869271"><ele>-1.6</ele><time>2022-11-10T16:36:46.0000000+00:00</time></trkpt><trkpt lat="39.38850157" lon="-0.37869271"><ele>-1.6</ele><time>2022-11-10T16:36:47.0000000+00:00</time></trkpt><trkpt lat="39.38850157" lon="-0.37869271"><ele>-1.6</ele><time>2022-11-10T16:36:48.0000000+00:00</time></trkpt><trkpt lat="39.38850157" lon="-0.37869271"><ele>-1.6</ele><time>2022-11-10T16:36:49.0000000+00:00</time></trkpt><trkpt lat="39.38850157" lon="-0.37869271"><ele>-1.6</ele><time>2022-11-10T16:36:50.0000000+00:00</time></trkpt><trkpt lat="39.38850157" lon="-0.37869271"><ele>-1.6</ele><time>2022-11-10T16:36:51.0000000+00:00</time></trkpt><trkpt lat="39.38850157" lon="-0.37869271"><ele>-1.6</ele><time>2022-11-10T16:36:52.0000000+00:00</time></trkpt><trkpt lat="39.38850157" lon="-0.37869271"><ele>-1.6</ele><time>2022-11-10T16:36:53.0000000+00:00</time></trkpt><trkpt lat="39.38850157" lon="-0.37869271"><ele>-1.6</ele><time>2022-11-10T16:36:54.0000000+00:00</time></trkpt><trkpt lat="39.38850157" lon="-0.37869271"><ele>-1.6</ele><time>2022-11-10T16:36:55.0000000+00:00</time></trkpt><trkpt lat="39.38850157" lon="-0.37869271"><ele>-1.6</ele><time>2022-11-10T16:36:56.0000000+00:00</time></trkpt><trkpt lat="39.38850157" lon="-0.37869271"><ele>-1.6</ele><time>2022-11-10T16:36:57.0000000+00:00</time></trkpt><trkpt lat="39.38850157" lon="-0.37869271"><ele>-1.6</ele><time>2022-11-10T16:36:58.0000000+00:00</time></trkpt><trkpt lat="39.38850157" lon="-0.37869271"><ele>-1.6</ele><time>2022-11-10T16:36:59.0000000+00:00</time></trkpt><trkpt lat="39.38850157" lon="-0.37869271"><ele>-1.6</ele><time>2022-11-10T16:37:00.0000000+00:00</time></trkpt><trkpt lat="39.38850157" lon="-0.37869271"><ele>-1.6</ele><time>2022-11-10T16:37:01.0000000+00:00</time></trkpt><trkpt lat="39.3885009" lon="-0.37869439"><ele>-1.6</ele><time>2022-11-10T16:37:02.0000000+00:00</time></trkpt><trkpt lat="39.38850048" lon="-0.37869967"><ele>-1.6</ele><time>2022-11-10T16:37:03.0000000+00:00</time></trkpt><trkpt lat="39.38850015" lon="-0.3787005"><ele>-1.6</ele><time>2022-11-10T16:37:04.0000000+00:00</time></trkpt><trkpt lat="39.38850015" lon="-0.3787005"><ele>-1.6</ele><time>2022-11-10T16:37:05.0000000+00:00</time></trkpt><trkpt lat="39.38850434" lon="-0.37871417"><ele>-1.6</ele><time>2022-11-10T16:37:06.0000000+00:00</time></trkpt><trkpt lat="39.38851146" lon="-0.37872213"><ele>-1.6</ele><time>2022-11-10T16:37:07.0000000+00:00</time></trkpt><trkpt lat="39.38851632" lon="-0.37872498"><ele>-1.6</ele><time>2022-11-10T16:37:08.0000000+00:00</time></trkpt><trkpt lat="39.38851766" lon="-0.37873043"><ele>-1.6</ele><time>2022-11-10T16:37:09.0000000+00:00</time></trkpt><trkpt lat="39.38852026" lon="-0.3787347"><ele>-1.6</ele><time>2022-11-10T16:37:10.0000000+00:00</time></trkpt><trkpt lat="39.38852462" lon="-0.37874074"><ele>-1.6</ele><time>2022-11-10T16:37:11.0000000+00:00</time></trkpt><trkpt lat="39.38852529" lon="-0.37874644"><ele>-1.6</ele><time>2022-11-10T16:37:12.0000000+00:00</time></trkpt><trkpt lat="39.38852529" lon="-0.37874644"><ele>-1.6</ele><time>2022-11-10T16:37:13.0000000+00:00</time></trkpt><trkpt lat="39.38852529" lon="-0.37874644"><ele>-1.6</ele><time>2022-11-10T16:37:14.0000000+00:00</time></trkpt><trkpt lat="39.38852529" lon="-0.37874644"><ele>-1.6</ele><time>2022-11-10T16:37:15.0000000+00:00</time></trkpt><trkpt lat="39.38852529" lon="-0.37874644"><ele>-1.6</ele><time>2022-11-10T16:37:16.0000000+00:00</time></trkpt><trkpt lat="39.38852529" lon="-0.37874644"><ele>-1.6</ele><time>2022-11-10T16:37:17.0000000+00:00</time></trkpt><trkpt lat="39.38852529" lon="-0.37874644"><ele>-1.6</ele><time>2022-11-10T16:37:18.0000000+00:00</time></trkpt><trkpt lat="39.38852529" lon="-0.37874644"><ele>-1.6</ele><time>2022-11-10T16:37:19.0000000+00:00</time></trkpt><trkpt lat="39.38852529" lon="-0.37874644"><ele>-1.6</ele><time>2022-11-10T16:37:20.0000000+00:00</time></trkpt><trkpt lat="39.38852529" lon="-0.37874644"><ele>-1.6</ele><time>2022-11-10T16:37:21.0000000+00:00</time></trkpt><trkpt lat="39.38852529" lon="-0.37874644"><ele>-1.6</ele><time>2022-11-10T16:37:22.0000000+00:00</time></trkpt><trkpt lat="39.38852764" lon="-0.37874367"><ele>-1.6</ele><time>2022-11-10T16:37:23.0000000+00:00</time></trkpt><trkpt lat="39.38852806" lon="-0.37873412"><ele>-1.6</ele><time>2022-11-10T16:37:24.0000000+00:00</time></trkpt><trkpt lat="39.38852487" lon="-0.37871995"><ele>-1.6</ele><time>2022-11-10T16:37:25.0000000+00:00</time></trkpt><trkpt lat="39.38851968" lon="-0.37870771"><ele>-1.6</ele><time>2022-11-10T16:37:26.0000000+00:00</time></trkpt><trkpt lat="39.38851188" lon="-0.37870025"><ele>-1.6</ele><time>2022-11-10T16:37:27.0000000+00:00</time></trkpt><trkpt lat="39.38850677" lon="-0.37868885"><ele>-1.6</ele><time>2022-11-10T16:37:28.0000000+00:00</time></trkpt><trkpt lat="39.38850434" lon="-0.37867938"><ele>-1.6</ele><time>2022-11-10T16:37:29.0000000+00:00</time></trkpt><trkpt lat="39.38850358" lon="-0.3786715"><ele>-1.0</ele><time>2022-11-10T16:37:30.0000000+00:00</time></trkpt><trkpt lat="39.38850232" lon="-0.37866706"><ele>-1.0</ele><time>2022-11-10T16:37:31.0000000+00:00</time></trkpt><trkpt lat="39.38850232" lon="-0.37866706"><ele>-1.0</ele><time>2022-11-10T16:37:32.0000000+00:00</time></trkpt><trkpt lat="39.38850232" lon="-0.37866706"><ele>-1.0</ele><time>2022-11-10T16:37:33.0000000+00:00</time></trkpt><trkpt lat="39.38850232" lon="-0.37866706"><ele>-1.0</ele><time>2022-11-10T16:37:34.0000000+00:00</time></trkpt><trkpt lat="39.38850232" lon="-0.37866706"><ele>-1.2</ele><time>2022-11-10T16:37:35.0000000+00:00</time></trkpt><trkpt lat="39.38850232" lon="-0.37866706"><ele>-1.2</ele><time>2022-11-10T16:37:36.0000000+00:00</time></trkpt><trkpt lat="39.38850232" lon="-0.37866706"><ele>-1.6</ele><time>2022-11-10T16:37:37.0000000+00:00</time></trkpt><trkpt lat="39.38850232" lon="-0.37866706"><ele>-1.6</ele><time>2022-11-10T16:37:38.0000000+00:00</time></trkpt><trkpt lat="39.38850417" lon="-0.37866698"><ele>-1.8</ele><time>2022-11-10T16:37:39.0000000+00:00</time></trkpt><trkpt lat="39.38850249" lon="-0.37866471"><ele>-1.8</ele><time>2022-11-10T16:37:40.0000000+00:00</time></trkpt><trkpt lat="39.38850249" lon="-0.37866471"><ele>-1.8</ele><time>2022-11-10T16:37:41.0000000+00:00</time></trkpt><trkpt lat="39.38850249" lon="-0.37866471"><ele>-1.8</ele><time>2022-11-10T16:37:42.0000000+00:00</time></trkpt><trkpt lat="39.38850056" lon="-0.37866354"><ele>-1.8</ele><time>2022-11-10T16:37:43.0000000+00:00</time></trkpt><trkpt lat="39.38849621" lon="-0.37866237"><ele>-1.8</ele><time>2022-11-10T16:37:44.0000000+00:00</time></trkpt><trkpt lat="39.38849319" lon="-0.37866253"><ele>-1.6</ele><time>2022-11-10T16:37:45.0000000+00:00</time></trkpt><trkpt lat="39.38849319" lon="-0.37866438"><ele>-1.4</ele><time>2022-11-10T16:37:46.0000000+00:00</time></trkpt><trkpt lat="39.38849059" lon="-0.37866605"><ele>-1.4</ele><time>2022-11-10T16:37:47.0000000+00:00</time></trkpt><trkpt lat="39.38849059" lon="-0.37866605"><ele>-1.2</ele><time>2022-11-10T16:37:48.0000000+00:00</time></trkpt><trkpt lat="39.38849059" lon="-0.37866605"><ele>-1.2</ele><time>2022-11-10T16:37:49.0000000+00:00</time></trkpt><trkpt lat="39.38849059" lon="-0.37866605"><ele>-1.0</ele><time>2022-11-10T16:37:50.0000000+00:00</time></trkpt><trkpt lat="39.38849059" lon="-0.37866605"><ele>-1.0</ele><time>2022-11-10T16:37:51.0000000+00:00</time></trkpt><trkpt lat="39.38849059" lon="-0.37866605"><ele>-1.0</ele><time>2022-11-10T16:37:52.0000000+00:00</time></trkpt><trkpt lat="39.38849059" lon="-0.37866605"><ele>-1.0</ele><time>2022-11-10T16:37:53.0000000+00:00</time></trkpt><trkpt lat="39.38849059" lon="-0.37866605"><ele>-1.0</ele><time>2022-11-10T16:37:54.0000000+00:00</time></trkpt><trkpt lat="39.38849059" lon="-0.37866605"><ele>-1.0</ele><time>2022-11-10T16:37:55.0000000+00:00</time></trkpt><trkpt lat="39.38849059" lon="-0.37866605"><ele>-1.0</ele><time>2022-11-10T16:37:56.0000000+00:00</time></trkpt><trkpt lat="39.38849059" lon="-0.37866605"><ele>-1.0</ele><time>2022-11-10T16:37:57.0000000+00:00</time></trkpt><trkpt lat="39.38849059" lon="-0.37866605"><ele>-1.0</ele><time>2022-11-10T16:37:58.0000000+00:00</time></trkpt><trkpt lat="39.38849059" lon="-0.37866605"><ele>-1.0</ele><time>2022-11-10T16:37:59.0000000+00:00</time></trkpt><trkpt lat="39.38849059" lon="-0.37866605"><ele>-1.0</ele><time>2022-11-10T16:38:00.0000000+00:00</time></trkpt><trkpt lat="39.38849059" lon="-0.37866605"><ele>-1.0</ele><time>2022-11-10T16:38:01.0000000+00:00</time></trkpt><trkpt lat="39.38849059" lon="-0.37866605"><ele>-1.0</ele><time>2022-11-10T16:38:02.0000000+00:00</time></trkpt><trkpt lat="39.38849252" lon="-0.37867134"><ele>-1.0</ele><time>2022-11-10T16:38:03.0000000+00:00</time></trkpt><trkpt lat="39.38849503" lon="-0.37867528"><ele>-1.0</ele><time>2022-11-10T16:38:04.0000000+00:00</time></trkpt><trkpt lat="39.38849503" lon="-0.37867528"><ele>-1.0</ele><time>2022-11-10T16:38:05.0000000+00:00</time></trkpt><trkpt lat="39.38849503" lon="-0.37867528"><ele>-1.0</ele><time>2022-11-10T16:38:06.0000000+00:00</time></trkpt><trkpt lat="39.38849503" lon="-0.37867528"><ele>-1.0</ele><time>2022-11-10T16:38:07.0000000+00:00</time></trkpt><trkpt lat="39.38849503" lon="-0.37867528"><ele>-1.0</ele><time>2022-11-10T16:38:08.0000000+00:00</time></trkpt><trkpt lat="39.38849503" lon="-0.37867528"><ele>-1.0</ele><time>2022-11-10T16:38:09.0000000+00:00</time></trkpt><trkpt lat="39.38849503" lon="-0.37867528"><ele>-0.8</ele><time>2022-11-10T16:38:10.0000000+00:00</time></trkpt><trkpt lat="39.38849503" lon="-0.37867528"><ele>-0.8</ele><time>2022-11-10T16:38:11.0000000+00:00</time></trkpt><trkpt lat="39.38849503" lon="-0.37867528"><ele>-1.0</ele><time>2022-11-10T16:38:12.0000000+00:00</time></trkpt><trkpt lat="39.38849503" lon="-0.37867528"><ele>-1.0</ele><time>2022-11-10T16:38:13.0000000+00:00</time></trkpt><trkpt lat="39.38849503" lon="-0.37867528"><ele>-0.8</ele><time>2022-11-10T16:38:14.0000000+00:00</time></trkpt><trkpt lat="39.38849503" lon="-0.37867528"><ele>-1.0</ele><time>2022-11-10T16:38:15.0000000+00:00</time></trkpt><trkpt lat="39.38849503" lon="-0.37867528"><ele>-1.0</ele><time>2022-11-10T16:38:16.0000000+00:00</time></trkpt><trkpt lat="39.38849503" lon="-0.37867528"><ele>-1.0</ele><time>2022-11-10T16:38:17.0000000+00:00</time></trkpt><trkpt lat="39.38849503" lon="-0.37867528"><ele>-1.0</ele><time>2022-11-10T16:38:18.0000000+00:00</time></trkpt><trkpt lat="39.38849503" lon="-0.37867528"><ele>-0.8</ele><time>2022-11-10T16:38:19.0000000+00:00</time></trkpt><trkpt lat="39.38849503" lon="-0.37867528"><ele>-0.8</ele><time>2022-11-10T16:38:20.0000000+00:00</time></trkpt><trkpt lat="39.38849503" lon="-0.37867528"><ele>-0.8</ele><time>2022-11-10T16:38:21.0000000+00:00</time></trkpt><trkpt lat="39.38849503" lon="-0.37867528"><ele>-0.8</ele><time>2022-11-10T16:38:22.0000000+00:00</time></trkpt><trkpt lat="39.38849503" lon="-0.37867528"><ele>-0.8</ele><time>2022-11-10T16:38:23.0000000+00:00</time></trkpt><trkpt lat="39.38849503" lon="-0.37867528"><ele>-0.8</ele><time>2022-11-10T16:38:24.0000000+00:00</time></trkpt><trkpt lat="39.38849503" lon="-0.37867528"><ele>-0.8</ele><time>2022-11-10T16:38:25.0000000+00:00</time></trkpt><trkpt lat="39.38849503" lon="-0.37867528"><ele>-0.8</ele><time>2022-11-10T16:38:26.0000000+00:00</time></trkpt><trkpt lat="39.38849503" lon="-0.37867528"><ele>-0.8</ele><time>2022-11-10T16:38:27.0000000+00:00</time></trkpt><trkpt lat="39.38849503" lon="-0.37867528"><ele>-0.8</ele><time>2022-11-10T16:38:28.0000000+00:00</time></trkpt><trkpt lat="39.38849503" lon="-0.37867528"><ele>-0.8</ele><time>2022-11-10T16:38:29.0000000+00:00</time></trkpt><trkpt lat="39.38849503" lon="-0.37867528"><ele>-0.8</ele><time>2022-11-10T16:38:30.0000000+00:00</time></trkpt><trkpt lat="39.38849503" lon="-0.37867528"><ele>-0.8</ele><time>2022-11-10T16:38:31.0000000+00:00</time></trkpt><trkpt lat="39.38849503" lon="-0.37867528"><ele>-0.8</ele><time>2022-11-10T16:38:32.0000000+00:00</time></trkpt><trkpt lat="39.38849503" lon="-0.37867528"><ele>-0.6</ele><time>2022-11-10T16:38:33.0000000+00:00</time></trkpt><trkpt lat="39.38849503" lon="-0.37867528"><ele>-0.6</ele><time>2022-11-10T16:38:34.0000000+00:00</time></trkpt><trkpt lat="39.38849503" lon="-0.37867528"><ele>-0.8</ele><time>2022-11-10T16:38:35.0000000+00:00</time></trkpt><trkpt lat="39.38849503" lon="-0.37867528"><ele>-0.8</ele><time>2022-11-10T16:38:36.0000000+00:00</time></trkpt><trkpt lat="39.38849503" lon="-0.37867528"><ele>-0.8</ele><time>2022-11-10T16:38:37.0000000+00:00</time></trkpt><trkpt lat="39.38849503" lon="-0.37867528"><ele>-0.8</ele><time>2022-11-10T16:38:38.0000000+00:00</time></trkpt><trkpt lat="39.38849503" lon="-0.37867528"><ele>-0.8</ele><time>2022-11-10T16:38:39.0000000+00:00</time></trkpt><trkpt lat="39.38849503" lon="-0.37867528"><ele>-0.8</ele><time>2022-11-10T16:38:40.0000000+00:00</time></trkpt><trkpt lat="39.38849503" lon="-0.37867528"><ele>-0.8</ele><time>2022-11-10T16:38:41.0000000+00:00</time></trkpt><trkpt lat="39.38849947" lon="-0.37867544"><ele>-0.8</ele><time>2022-11-10T16:38:42.0000000+00:00</time></trkpt><trkpt lat="39.38850191" lon="-0.37867511"><ele>-0.8</ele><time>2022-11-10T16:38:43.0000000+00:00</time></trkpt><trkpt lat="39.38850191" lon="-0.37867511"><ele>-0.8</ele><time>2022-11-10T16:38:44.0000000+00:00</time></trkpt><trkpt lat="39.38850191" lon="-0.37867511"><ele>-0.8</ele><time>2022-11-10T16:38:45.0000000+00:00</time></trkpt><trkpt lat="39.38850191" lon="-0.37867511"><ele>-1.0</ele><time>2022-11-10T16:38:46.0000000+00:00</time></trkpt><trkpt lat="39.38850191" lon="-0.37867511"><ele>-1.2</ele><time>2022-11-10T16:38:47.0000000+00:00</time></trkpt><trkpt lat="39.38850191" lon="-0.37867511"><ele>-1.2</ele><time>2022-11-10T16:38:48.0000000+00:00</time></trkpt><trkpt lat="39.38850191" lon="-0.37867511"><ele>-1.2</ele><time>2022-11-10T16:38:49.0000000+00:00</time></trkpt><trkpt lat="39.38850191" lon="-0.37867511"><ele>-1.4</ele><time>2022-11-10T16:38:50.0000000+00:00</time></trkpt><trkpt lat="39.38850191" lon="-0.37867511"><ele>-1.4</ele><time>2022-11-10T16:38:51.0000000+00:00</time></trkpt><trkpt lat="39.38850191" lon="-0.37867511"><ele>-1.2</ele><time>2022-11-10T16:38:52.0000000+00:00</time></trkpt><trkpt lat="39.38850191" lon="-0.37867511"><ele>-1.2</ele><time>2022-11-10T16:38:53.0000000+00:00</time></trkpt><trkpt lat="39.38850191" lon="-0.37867511"><ele>-1.2</ele><time>2022-11-10T16:38:54.0000000+00:00</time></trkpt><trkpt lat="39.38850191" lon="-0.37867511"><ele>-1.2</ele><time>2022-11-10T16:38:55.0000000+00:00</time></trkpt><trkpt lat="39.38850191" lon="-0.37867511"><ele>-1.2</ele><time>2022-11-10T16:38:56.0000000+00:00</time></trkpt><trkpt lat="39.38850191" lon="-0.37867511"><ele>-1.2</ele><time>2022-11-10T16:38:57.0000000+00:00</time></trkpt><trkpt lat="39.38850191" lon="-0.37867511"><ele>-1.2</ele><time>2022-11-10T16:38:58.0000000+00:00</time></trkpt><trkpt lat="39.38850191" lon="-0.37867511"><ele>-1.0</ele><time>2022-11-10T16:38:59.0000000+00:00</time></trkpt><trkpt lat="39.38850191" lon="-0.37867511"><ele>-1.0</ele><time>2022-11-10T16:39:00.0000000+00:00</time></trkpt><trkpt lat="39.38850073" lon="-0.37867603"><ele>-1.0</ele><time>2022-11-10T16:39:01.0000000+00:00</time></trkpt><trkpt lat="39.38849947" lon="-0.3786798"><ele>-1.0</ele><time>2022-11-10T16:39:02.0000000+00:00</time></trkpt><trkpt lat="39.38850165" lon="-0.3786829"><ele>-1.6</ele><time>2022-11-10T16:39:03.0000000+00:00</time></trkpt><trkpt lat="39.38850408" lon="-0.37868433"><ele>-1.6</ele><time>2022-11-10T16:39:04.0000000+00:00</time></trkpt><trkpt lat="39.38851381" lon="-0.37869221"><ele>-1.6</ele><time>2022-11-10T16:39:05.0000000+00:00</time></trkpt><trkpt lat="39.38852185" lon="-0.37870436"><ele>-1.8</ele><time>2022-11-10T16:39:06.0000000+00:00</time></trkpt><trkpt lat="39.38852269" lon="-0.37871978"><ele>-1.8</ele><time>2022-11-10T16:39:07.0000000+00:00</time></trkpt><trkpt lat="39.38851599" lon="-0.37873596"><ele>-1.8</ele><time>2022-11-10T16:39:08.0000000+00:00</time></trkpt><trkpt lat="39.38850199" lon="-0.3787518"><ele>-1.8</ele><time>2022-11-10T16:39:09.0000000+00:00</time></trkpt><trkpt lat="39.3884838" lon="-0.37876538"><ele>-2.0</ele><time>2022-11-10T16:39:10.0000000+00:00</time></trkpt><trkpt lat="39.38846293" lon="-0.37878189"><ele>-2.0</ele><time>2022-11-10T16:39:11.0000000+00:00</time></trkpt><trkpt lat="39.38844466" lon="-0.37880109"><ele>-2.0</ele><time>2022-11-10T16:39:12.0000000+00:00</time></trkpt><trkpt lat="39.38842555" lon="-0.37881953"><ele>-2.0</ele><time>2022-11-10T16:39:13.0000000+00:00</time></trkpt><trkpt lat="39.38840845" lon="-0.37883805"><ele>-2.0</ele><time>2022-11-10T16:39:14.0000000+00:00</time></trkpt><trkpt lat="39.38839101" lon="-0.37885255"><ele>-2.0</ele><time>2022-11-10T16:39:15.0000000+00:00</time></trkpt><trkpt lat="39.38837559" lon="-0.37886554"><ele>-1.8</ele><time>2022-11-10T16:39:16.0000000+00:00</time></trkpt><trkpt lat="39.38835941" lon="-0.37887585"><ele>-1.8</ele><time>2022-11-10T16:39:17.0000000+00:00</time></trkpt><trkpt lat="39.38834357" lon="-0.37888642"><ele>-1.8</ele><time>2022-11-10T16:39:18.0000000+00:00</time></trkpt><trkpt lat="39.38832513" lon="-0.37889304"><ele>-1.8</ele><time>2022-11-10T16:39:19.0000000+00:00</time></trkpt><trkpt lat="39.3883046" lon="-0.37890066"><ele>-1.6</ele><time>2022-11-10T16:39:20.0000000+00:00</time></trkpt><trkpt lat="39.38828507" lon="-0.37891206"><ele>-1.6</ele><time>2022-11-10T16:39:21.0000000+00:00</time></trkpt><trkpt lat="39.38826847" lon="-0.37892296"><ele>-1.4</ele><time>2022-11-10T16:39:22.0000000+00:00</time></trkpt><trkpt lat="39.38825104" lon="-0.37893604"><ele>-1.4</ele><time>2022-11-10T16:39:23.0000000+00:00</time></trkpt><trkpt lat="39.38822991" lon="-0.37895205"><ele>-1.2</ele><time>2022-11-10T16:39:24.0000000+00:00</time></trkpt><trkpt lat="39.38820326" lon="-0.37897233"><ele>-1.2</ele><time>2022-11-10T16:39:25.0000000+00:00</time></trkpt><trkpt lat="39.38817124" lon="-0.37899429"><ele>-1.2</ele><time>2022-11-10T16:39:26.0000000+00:00</time></trkpt><trkpt lat="39.38813402" lon="-0.37901717"><ele>-1.2</ele><time>2022-11-10T16:39:27.0000000+00:00</time></trkpt><trkpt lat="39.38809563" lon="-0.37903989"><ele>-1.2</ele><time>2022-11-10T16:39:28.0000000+00:00</time></trkpt><trkpt lat="39.38805901" lon="-0.37906361"><ele>-1.4</ele><time>2022-11-10T16:39:29.0000000+00:00</time></trkpt><trkpt lat="39.38802104" lon="-0.37908674"><ele>-1.4</ele><time>2022-11-10T16:39:30.0000000+00:00</time></trkpt><trkpt lat="39.38797913" lon="-0.37911289"><ele>-1.4</ele><time>2022-11-10T16:39:31.0000000+00:00</time></trkpt><trkpt lat="39.38793127" lon="-0.37914206"><ele>-1.4</ele><time>2022-11-10T16:39:32.0000000+00:00</time></trkpt><trkpt lat="39.38788625" lon="-0.37917039"><ele>-1.4</ele><time>2022-11-10T16:39:33.0000000+00:00</time></trkpt><trkpt lat="39.38784225" lon="-0.37919705"><ele>-1.6</ele><time>2022-11-10T16:39:34.0000000+00:00</time></trkpt><trkpt lat="39.38779615" lon="-0.37922504"><ele>-1.6</ele><time>2022-11-10T16:39:35.0000000+00:00</time></trkpt><trkpt lat="39.38774963" lon="-0.37925589"><ele>-1.6</ele><time>2022-11-10T16:39:36.0000000+00:00</time></trkpt><trkpt lat="39.38770428" lon="-0.37928598"><ele>-1.6</ele><time>2022-11-10T16:39:37.0000000+00:00</time></trkpt><trkpt lat="39.38766095" lon="-0.37931515"><ele>-1.8</ele><time>2022-11-10T16:39:38.0000000+00:00</time></trkpt><trkpt lat="39.38762122" lon="-0.37934298"><ele>-1.8</ele><time>2022-11-10T16:39:39.0000000+00:00</time></trkpt><trkpt lat="39.38757914" lon="-0.3793636"><ele>-1.6</ele><time>2022-11-10T16:39:40.0000000+00:00</time></trkpt><trkpt lat="39.38753463" lon="-0.37938128"><ele>-1.6</ele><time>2022-11-10T16:39:41.0000000+00:00</time></trkpt><trkpt lat="39.38749163" lon="-0.37940576"><ele>-1.4</ele><time>2022-11-10T16:39:42.0000000+00:00</time></trkpt><trkpt lat="39.3874504" lon="-0.37943325"><ele>-1.4</ele><time>2022-11-10T16:39:43.0000000+00:00</time></trkpt><trkpt lat="39.38740991" lon="-0.37945991"><ele>-1.4</ele><time>2022-11-10T16:39:44.0000000+00:00</time></trkpt><trkpt lat="39.38736775" lon="-0.37948581"><ele>-1.4</ele><time>2022-11-10T16:39:45.0000000+00:00</time></trkpt><trkpt lat="39.38732274" lon="-0.37951321"><ele>-1.4</ele><time>2022-11-10T16:39:46.0000000+00:00</time></trkpt><trkpt lat="39.38727873" lon="-0.37954054"><ele>-1.4</ele><time>2022-11-10T16:39:47.0000000+00:00</time></trkpt><trkpt lat="39.38723473" lon="-0.37956828"><ele>-1.4</ele><time>2022-11-10T16:39:48.0000000+00:00</time></trkpt><trkpt lat="39.38718854" lon="-0.37959921"><ele>-1.4</ele><time>2022-11-10T16:39:49.0000000+00:00</time></trkpt><trkpt lat="39.38714135" lon="-0.37962981"><ele>-1.4</ele><time>2022-11-10T16:39:50.0000000+00:00</time></trkpt><trkpt lat="39.38709425" lon="-0.37965445"><ele>-1.6</ele><time>2022-11-10T16:39:51.0000000+00:00</time></trkpt><trkpt lat="39.38705284" lon="-0.37968253"><ele>-1.6</ele><time>2022-11-10T16:39:52.0000000+00:00</time></trkpt><trkpt lat="39.38700934" lon="-0.37971304"><ele>-1.4</ele><time>2022-11-10T16:39:53.0000000+00:00</time></trkpt><trkpt lat="39.38696223" lon="-0.37974715"><ele>-1.4</ele><time>2022-11-10T16:39:54.0000000+00:00</time></trkpt><trkpt lat="39.38691764" lon="-0.37978076"><ele>-1.4</ele><time>2022-11-10T16:39:55.0000000+00:00</time></trkpt><trkpt lat="39.38687188" lon="-0.37981421"><ele>-1.4</ele><time>2022-11-10T16:39:56.0000000+00:00</time></trkpt><trkpt lat="39.38682393" lon="-0.37984447"><ele>-1.4</ele><time>2022-11-10T16:39:57.0000000+00:00</time></trkpt><trkpt lat="39.38677691" lon="-0.37987439"><ele>-1.4</ele><time>2022-11-10T16:39:58.0000000+00:00</time></trkpt><trkpt lat="39.38673307" lon="-0.379908"><ele>-1.6</ele><time>2022-11-10T16:39:59.0000000+00:00</time></trkpt><trkpt lat="39.38668496" lon="-0.37994111"><ele>-1.6</ele><time>2022-11-10T16:40:00.0000000+00:00</time></trkpt><trkpt lat="39.38663626" lon="-0.37997045"><ele>-1.6</ele><time>2022-11-10T16:40:01.0000000+00:00</time></trkpt><trkpt lat="39.38658857" lon="-0.38000029"><ele>-1.6</ele><time>2022-11-10T16:40:02.0000000+00:00</time></trkpt><trkpt lat="39.38654289" lon="-0.3800313"><ele>-1.6</ele><time>2022-11-10T16:40:03.0000000+00:00</time></trkpt><trkpt lat="39.38649997" lon="-0.38006223"><ele>-1.6</ele><time>2022-11-10T16:40:04.0000000+00:00</time></trkpt><trkpt lat="39.38645597" lon="-0.38008838"><ele>-1.6</ele><time>2022-11-10T16:40:05.0000000+00:00</time></trkpt><trkpt lat="39.38641364" lon="-0.38011294"><ele>-1.6</ele><time>2022-11-10T16:40:06.0000000+00:00</time></trkpt><trkpt lat="39.38637215" lon="-0.38013624"><ele>-1.6</ele><time>2022-11-10T16:40:07.0000000+00:00</time></trkpt><trkpt lat="39.38633074" lon="-0.38015921"><ele>-1.6</ele><time>2022-11-10T16:40:08.0000000+00:00</time></trkpt><trkpt lat="39.38629068" lon="-0.38018217"><ele>-1.6</ele><time>2022-11-10T16:40:09.0000000+00:00</time></trkpt><trkpt lat="39.38625162" lon="-0.3802048"><ele>-1.8</ele><time>2022-11-10T16:40:10.0000000+00:00</time></trkpt><trkpt lat="39.38621272" lon="-0.38022945"><ele>-1.8</ele><time>2022-11-10T16:40:11.0000000+00:00</time></trkpt><trkpt lat="39.38617484" lon="-0.38025451"><ele>-1.8</ele><time>2022-11-10T16:40:12.0000000+00:00</time></trkpt><trkpt lat="39.38613896" lon="-0.38027865"><ele>-1.8</ele><time>2022-11-10T16:40:13.0000000+00:00</time></trkpt><trkpt lat="39.38610342" lon="-0.38030312"><ele>-1.8</ele><time>2022-11-10T16:40:14.0000000+00:00</time></trkpt><trkpt lat="39.38606923" lon="-0.38032785"><ele>-1.8</ele><time>2022-11-10T16:40:15.0000000+00:00</time></trkpt><trkpt lat="39.38603377" lon="-0.38035149"><ele>-1.8</ele><time>2022-11-10T16:40:16.0000000+00:00</time></trkpt><trkpt lat="39.38599739" lon="-0.38037345"><ele>-1.8</ele><time>2022-11-10T16:40:17.0000000+00:00</time></trkpt><trkpt lat="39.38596244" lon="-0.38039859"><ele>-1.6</ele><time>2022-11-10T16:40:18.0000000+00:00</time></trkpt><trkpt lat="39.38592548" lon="-0.3804229"><ele>-1.6</ele><time>2022-11-10T16:40:19.0000000+00:00</time></trkpt><trkpt lat="39.38588591" lon="-0.38044897"><ele>-1.6</ele><time>2022-11-10T16:40:20.0000000+00:00</time></trkpt><trkpt lat="39.38584392" lon="-0.38047596"><ele>-1.6</ele><time>2022-11-10T16:40:21.0000000+00:00</time></trkpt><trkpt lat="39.38580059" lon="-0.38050303"><ele>-1.6</ele><time>2022-11-10T16:40:22.0000000+00:00</time></trkpt><trkpt lat="39.38575692" lon="-0.38052809"><ele>-1.6</ele><time>2022-11-10T16:40:23.0000000+00:00</time></trkpt><trkpt lat="39.38571115" lon="-0.38055441"><ele>-1.6</ele><time>2022-11-10T16:40:24.0000000+00:00</time></trkpt><trkpt lat="39.38566178" lon="-0.38058132"><ele>-1.6</ele><time>2022-11-10T16:40:25.0000000+00:00</time></trkpt><trkpt lat="39.38561434" lon="-0.38061284"><ele>-1.6</ele><time>2022-11-10T16:40:26.0000000+00:00</time></trkpt><trkpt lat="39.38556707" lon="-0.38064511"><ele>-1.6</ele><time>2022-11-10T16:40:27.0000000+00:00</time></trkpt><trkpt lat="39.38551988" lon="-0.38067595"><ele>-1.6</ele><time>2022-11-10T16:40:28.0000000+00:00</time></trkpt><trkpt lat="39.38547386" lon="-0.3807068"><ele>-1.6</ele><time>2022-11-10T16:40:29.0000000+00:00</time></trkpt><trkpt lat="39.38542617" lon="-0.38073781"><ele>-1.6</ele><time>2022-11-10T16:40:30.0000000+00:00</time></trkpt><trkpt lat="39.3853778" lon="-0.38076832"><ele>-1.6</ele><time>2022-11-10T16:40:31.0000000+00:00</time></trkpt><trkpt lat="39.38533036" lon="-0.38080017"><ele>-1.6</ele><time>2022-11-10T16:40:32.0000000+00:00</time></trkpt><trkpt lat="39.385283" lon="-0.38082926"><ele>-1.6</ele><time>2022-11-10T16:40:33.0000000+00:00</time></trkpt><trkpt lat="39.3852359" lon="-0.38085893"><ele>-1.6</ele><time>2022-11-10T16:40:34.0000000+00:00</time></trkpt><trkpt lat="39.38518971" lon="-0.3808881"><ele>-1.6</ele><time>2022-11-10T16:40:35.0000000+00:00</time></trkpt><trkpt lat="39.3851437" lon="-0.38091475"><ele>-1.6</ele><time>2022-11-10T16:40:36.0000000+00:00</time></trkpt><trkpt lat="39.38509625" lon="-0.38093831"><ele>-1.6</ele><time>2022-11-10T16:40:37.0000000+00:00</time></trkpt><trkpt lat="39.38505057" lon="-0.38096739"><ele>-1.6</ele><time>2022-11-10T16:40:38.0000000+00:00</time></trkpt><trkpt lat="39.38500254" lon="-0.38099505"><ele>-1.6</ele><time>2022-11-10T16:40:39.0000000+00:00</time></trkpt><trkpt lat="39.38495544" lon="-0.38102506"><ele>-1.6</ele><time>2022-11-10T16:40:40.0000000+00:00</time></trkpt><trkpt lat="39.38490883" lon="-0.38105481"><ele>-1.6</ele><time>2022-11-10T16:40:41.0000000+00:00</time></trkpt><trkpt lat="39.38486131" lon="-0.38108633"><ele>-1.6</ele><time>2022-11-10T16:40:42.0000000+00:00</time></trkpt><trkpt lat="39.38481471" lon="-0.38111835"><ele>-1.8</ele><time>2022-11-10T16:40:43.0000000+00:00</time></trkpt><trkpt lat="39.38477741" lon="-0.38114341"><ele>-1.8</ele><time>2022-11-10T16:40:44.0000000+00:00</time></trkpt><trkpt lat="39.38472091" lon="-0.38118029"><ele>-1.6</ele><time>2022-11-10T16:40:45.0000000+00:00</time></trkpt><trkpt lat="39.38467188" lon="-0.3812103"><ele>-1.6</ele><time>2022-11-10T16:40:46.0000000+00:00</time></trkpt><trkpt lat="39.38462368" lon="-0.38123821"><ele>-1.6</ele><time>2022-11-10T16:40:47.0000000+00:00</time></trkpt><trkpt lat="39.38457448" lon="-0.38126788"><ele>-1.6</ele><time>2022-11-10T16:40:48.0000000+00:00</time></trkpt><trkpt lat="39.38452587" lon="-0.38129713"><ele>-1.6</ele><time>2022-11-10T16:40:49.0000000+00:00</time></trkpt><trkpt lat="39.3844775" lon="-0.38132605"><ele>-1.4</ele><time>2022-11-10T16:40:50.0000000+00:00</time></trkpt><trkpt lat="39.38443115" lon="-0.38135489"><ele>-1.4</ele><time>2022-11-10T16:40:51.0000000+00:00</time></trkpt><trkpt lat="39.38438379" lon="-0.38138355"><ele>-1.4</ele><time>2022-11-10T16:40:52.0000000+00:00</time></trkpt><trkpt lat="39.38433618" lon="-0.3814092"><ele>-1.6</ele><time>2022-11-10T16:40:53.0000000+00:00</time></trkpt><trkpt lat="39.38428623" lon="-0.38143192"><ele>-1.6</ele><time>2022-11-10T16:40:54.0000000+00:00</time></trkpt><trkpt lat="39.38423937" lon="-0.38145304"><ele>-1.6</ele><time>2022-11-10T16:40:55.0000000+00:00</time></trkpt><trkpt lat="39.38419109" lon="-0.38147508"><ele>-1.4</ele><time>2022-11-10T16:40:56.0000000+00:00</time></trkpt><trkpt lat="39.38414441" lon="-0.38149688"><ele>-1.4</ele><time>2022-11-10T16:40:57.0000000+00:00</time></trkpt><trkpt lat="39.38409369" lon="-0.38152009"><ele>-1.2</ele><time>2022-11-10T16:40:58.0000000+00:00</time></trkpt><trkpt lat="39.38404265" lon="-0.38154138"><ele>-1.2</ele><time>2022-11-10T16:40:59.0000000+00:00</time></trkpt><trkpt lat="39.38399043" lon="-0.38156569"><ele>-1.2</ele><time>2022-11-10T16:41:00.0000000+00:00</time></trkpt><trkpt lat="39.38393955" lon="-0.38158807"><ele>-1.4</ele><time>2022-11-10T16:41:01.0000000+00:00</time></trkpt><trkpt lat="39.38388817" lon="-0.38160995"><ele>-1.4</ele><time>2022-11-10T16:41:02.0000000+00:00</time></trkpt><trkpt lat="39.38383679" lon="-0.38163182"><ele>-1.4</ele><time>2022-11-10T16:41:03.0000000+00:00</time></trkpt><trkpt lat="39.38378424" lon="-0.38165596"><ele>-1.4</ele><time>2022-11-10T16:41:04.0000000+00:00</time></trkpt><trkpt lat="39.38373285" lon="-0.38168086"><ele>-1.4</ele><time>2022-11-10T16:41:05.0000000+00:00</time></trkpt><trkpt lat="39.38368248" lon="-0.38170575"><ele>-1.4</ele><time>2022-11-10T16:41:06.0000000+00:00</time></trkpt><trkpt lat="39.38363244" lon="-0.38173081"><ele>-1.4</ele><time>2022-11-10T16:41:07.0000000+00:00</time></trkpt><trkpt lat="39.38359221" lon="-0.38174917"><ele>-1.6</ele><time>2022-11-10T16:41:08.0000000+00:00</time></trkpt><trkpt lat="39.383528" lon="-0.38177851"><ele>-1.6</ele><time>2022-11-10T16:41:09.0000000+00:00</time></trkpt><trkpt lat="39.38347343" lon="-0.38180206"><ele>-1.6</ele><time>2022-11-10T16:41:10.0000000+00:00</time></trkpt><trkpt lat="39.38341652" lon="-0.38182712"><ele>-1.6</ele><time>2022-11-10T16:41:11.0000000+00:00</time></trkpt><trkpt lat="39.38335994" lon="-0.38185126"><ele>-1.6</ele><time>2022-11-10T16:41:12.0000000+00:00</time></trkpt><trkpt lat="39.38330655" lon="-0.38187599"><ele>-1.6</ele><time>2022-11-10T16:41:13.0000000+00:00</time></trkpt><trkpt lat="39.38325576" lon="-0.38190105"><ele>-1.6</ele><time>2022-11-10T16:41:14.0000000+00:00</time></trkpt><trkpt lat="39.38320505" lon="-0.38192636"><ele>-1.4</ele><time>2022-11-10T16:41:15.0000000+00:00</time></trkpt><trkpt lat="39.38315115" lon="-0.38195109"><ele>-1.4</ele><time>2022-11-10T16:41:16.0000000+00:00</time></trkpt><trkpt lat="39.38309952" lon="-0.38197523"><ele>-1.4</ele><time>2022-11-10T16:41:17.0000000+00:00</time></trkpt><trkpt lat="39.38304814" lon="-0.38199937"><ele>-1.4</ele><time>2022-11-10T16:41:18.0000000+00:00</time></trkpt><trkpt lat="39.38299835" lon="-0.38202443"><ele>-1.4</ele><time>2022-11-10T16:41:19.0000000+00:00</time></trkpt><trkpt lat="39.38295459" lon="-0.38204321"><ele>-1.4</ele><time>2022-11-10T16:41:20.0000000+00:00</time></trkpt><trkpt lat="39.38291444" lon="-0.38204899"><ele>-1.4</ele><time>2022-11-10T16:41:21.0000000+00:00</time></trkpt><trkpt lat="39.38288318" lon="-0.38204279"><ele>-1.4</ele><time>2022-11-10T16:41:22.0000000+00:00</time></trkpt><trkpt lat="39.3828484" lon="-0.3820267"><ele>-1.4</ele><time>2022-11-10T16:41:23.0000000+00:00</time></trkpt><trkpt lat="39.38280825" lon="-0.38200465"><ele>-1.4</ele><time>2022-11-10T16:41:24.0000000+00:00</time></trkpt><trkpt lat="39.38276575" lon="-0.38198076"><ele>-1.4</ele><time>2022-11-10T16:41:25.0000000+00:00</time></trkpt><trkpt lat="39.38272015" lon="-0.38195922"><ele>-1.4</ele><time>2022-11-10T16:41:26.0000000+00:00</time></trkpt><trkpt lat="39.3826743" lon="-0.38193751"><ele>-1.4</ele><time>2022-11-10T16:41:27.0000000+00:00</time></trkpt><trkpt lat="39.38262401" lon="-0.38191429"><ele>-1.4</ele><time>2022-11-10T16:41:28.0000000+00:00</time></trkpt><trkpt lat="39.38257397" lon="-0.38188781"><ele>-1.4</ele><time>2022-11-10T16:41:29.0000000+00:00</time></trkpt><trkpt lat="39.38252435" lon="-0.38185579"><ele>-1.4</ele><time>2022-11-10T16:41:30.0000000+00:00</time></trkpt><trkpt lat="39.38247683" lon="-0.38181958"><ele>-1.4</ele><time>2022-11-10T16:41:31.0000000+00:00</time></trkpt><trkpt lat="39.3824298" lon="-0.38178278"><ele>-1.4</ele><time>2022-11-10T16:41:32.0000000+00:00</time></trkpt><trkpt lat="39.38238085" lon="-0.3817511"><ele>-1.4</ele><time>2022-11-10T16:41:33.0000000+00:00</time></trkpt><trkpt lat="39.38232989" lon="-0.38172822"><ele>-1.4</ele><time>2022-11-10T16:41:34.0000000+00:00</time></trkpt><trkpt lat="39.38227868" lon="-0.38172201"><ele>-1.4</ele><time>2022-11-10T16:41:35.0000000+00:00</time></trkpt><trkpt lat="39.38222797" lon="-0.38173056"><ele>-1.4</ele><time>2022-11-10T16:41:36.0000000+00:00</time></trkpt><trkpt lat="39.38217566" lon="-0.38174179"><ele>-1.4</ele><time>2022-11-10T16:41:37.0000000+00:00</time></trkpt><trkpt lat="39.38212227" lon="-0.38175546"><ele>-1.4</ele><time>2022-11-10T16:41:38.0000000+00:00</time></trkpt><trkpt lat="39.38206636" lon="-0.3817718"><ele>-1.6</ele><time>2022-11-10T16:41:39.0000000+00:00</time></trkpt><trkpt lat="39.3820128" lon="-0.38178965"><ele>-1.6</ele><time>2022-11-10T16:41:40.0000000+00:00</time></trkpt><trkpt lat="39.38195413" lon="-0.38181187"><ele>-1.6</ele><time>2022-11-10T16:41:41.0000000+00:00</time></trkpt><trkpt lat="39.38189881" lon="-0.38183089"><ele>-1.8</ele><time>2022-11-10T16:41:42.0000000+00:00</time></trkpt><trkpt lat="39.38184315" lon="-0.38184632"><ele>-1.8</ele><time>2022-11-10T16:41:43.0000000+00:00</time></trkpt><trkpt lat="39.38178607" lon="-0.38186031"><ele>-1.8</ele><time>2022-11-10T16:41:44.0000000+00:00</time></trkpt><trkpt lat="39.38172891" lon="-0.38187406"><ele>-1.8</ele><time>2022-11-10T16:41:45.0000000+00:00</time></trkpt><trkpt lat="39.38167359" lon="-0.38188789"><ele>-1.6</ele><time>2022-11-10T16:41:46.0000000+00:00</time></trkpt><trkpt lat="39.38161844" lon="-0.38190105"><ele>-1.8</ele><time>2022-11-10T16:41:47.0000000+00:00</time></trkpt><trkpt lat="39.38156328" lon="-0.38191429"><ele>-1.6</ele><time>2022-11-10T16:41:48.0000000+00:00</time></trkpt><trkpt lat="39.38150763" lon="-0.38193282"><ele>-1.4</ele><time>2022-11-10T16:41:49.0000000+00:00</time></trkpt><trkpt lat="39.38145247" lon="-0.38194866"><ele>-1.4</ele><time>2022-11-10T16:41:50.0000000+00:00</time></trkpt><trkpt lat="39.38140947" lon="-0.38196182"><ele>-1.4</ele><time>2022-11-10T16:41:51.0000000+00:00</time></trkpt><trkpt lat="39.38134418" lon="-0.38198059"><ele>-1.4</ele><time>2022-11-10T16:41:52.0000000+00:00</time></trkpt><trkpt lat="39.38129045" lon="-0.38199652"><ele>-1.6</ele><time>2022-11-10T16:41:53.0000000+00:00</time></trkpt><trkpt lat="39.38123748" lon="-0.38201706"><ele>-1.6</ele><time>2022-11-10T16:41:54.0000000+00:00</time></trkpt><trkpt lat="39.38118492" lon="-0.38203885"><ele>-1.6</ele><time>2022-11-10T16:41:55.0000000+00:00</time></trkpt><trkpt lat="39.38113296" lon="-0.38205905"><ele>-1.6</ele><time>2022-11-10T16:41:56.0000000+00:00</time></trkpt><trkpt lat="39.38108074" lon="-0.38207975"><ele>-1.6</ele><time>2022-11-10T16:41:57.0000000+00:00</time></trkpt><trkpt lat="39.38102642" lon="-0.38210004"><ele>-1.6</ele><time>2022-11-10T16:41:58.0000000+00:00</time></trkpt><trkpt lat="39.38097328" lon="-0.38212049"><ele>-1.6</ele><time>2022-11-10T16:41:59.0000000+00:00</time></trkpt><trkpt lat="39.38091938" lon="-0.38214102"><ele>-1.6</ele><time>2022-11-10T16:42:00.0000000+00:00</time></trkpt><trkpt lat="39.38086859" lon="-0.38216022"><ele>-1.6</ele><time>2022-11-10T16:42:01.0000000+00:00</time></trkpt><trkpt lat="39.38081713" lon="-0.38217765"><ele>-1.6</ele><time>2022-11-10T16:42:02.0000000+00:00</time></trkpt><trkpt lat="39.38076373" lon="-0.38219316"><ele>-1.6</ele><time>2022-11-10T16:42:03.0000000+00:00</time></trkpt><trkpt lat="39.38070883" lon="-0.38221034"><ele>-1.6</ele><time>2022-11-10T16:42:04.0000000+00:00</time></trkpt><trkpt lat="39.38065452" lon="-0.3822282"><ele>-1.6</ele><time>2022-11-10T16:42:05.0000000+00:00</time></trkpt><trkpt lat="39.38060297" lon="-0.38224194"><ele>-1.6</ele><time>2022-11-10T16:42:06.0000000+00:00</time></trkpt><trkpt lat="39.38055201" lon="-0.38225737"><ele>-1.6</ele><time>2022-11-10T16:42:07.0000000+00:00</time></trkpt><trkpt lat="39.38049928" lon="-0.38227329"><ele>-1.6</ele><time>2022-11-10T16:42:08.0000000+00:00</time></trkpt><trkpt lat="39.38044472" lon="-0.38228913"><ele>-1.6</ele><time>2022-11-10T16:42:09.0000000+00:00</time></trkpt><trkpt lat="39.38038864" lon="-0.38230564"><ele>-1.4</ele><time>2022-11-10T16:42:10.0000000+00:00</time></trkpt><trkpt lat="39.38033273" lon="-0.38232392"><ele>-1.4</ele><time>2022-11-10T16:42:11.0000000+00:00</time></trkpt><trkpt lat="39.38027758" lon="-0.38233934"><ele>-1.4</ele><time>2022-11-10T16:42:12.0000000+00:00</time></trkpt><trkpt lat="39.38022436" lon="-0.38235418"><ele>-1.4</ele><time>2022-11-10T16:42:13.0000000+00:00</time></trkpt><trkpt lat="39.38017306" lon="-0.38236926"><ele>-1.4</ele><time>2022-11-10T16:42:14.0000000+00:00</time></trkpt><trkpt lat="39.38012285" lon="-0.38238653"><ele>-1.2</ele><time>2022-11-10T16:42:15.0000000+00:00</time></trkpt><trkpt lat="39.38006988" lon="-0.38240321"><ele>-1.4</ele><time>2022-11-10T16:42:16.0000000+00:00</time></trkpt><trkpt lat="39.38001422" lon="-0.38241788"><ele>-1.4</ele><time>2022-11-10T16:42:17.0000000+00:00</time></trkpt><trkpt lat="39.3799579" lon="-0.38243339"><ele>-1.6</ele><time>2022-11-10T16:42:18.0000000+00:00</time></trkpt><trkpt lat="39.37990325" lon="-0.38245074"><ele>-1.8</ele><time>2022-11-10T16:42:19.0000000+00:00</time></trkpt><trkpt lat="39.37984692" lon="-0.38246809"><ele>-1.8</ele><time>2022-11-10T16:42:20.0000000+00:00</time></trkpt><trkpt lat="39.3797885" lon="-0.38248393"><ele>-1.8</ele><time>2022-11-10T16:42:21.0000000+00:00</time></trkpt><trkpt lat="39.37973083" lon="-0.3824991"><ele>-1.8</ele><time>2022-11-10T16:42:22.0000000+00:00</time></trkpt><trkpt lat="39.37967492" lon="-0.3825131"><ele>-1.8</ele><time>2022-11-10T16:42:23.0000000+00:00</time></trkpt><trkpt lat="39.37962052" lon="-0.38252852"><ele>-1.8</ele><time>2022-11-10T16:42:24.0000000+00:00</time></trkpt><trkpt lat="39.37956722" lon="-0.38254713"><ele>-1.8</ele><time>2022-11-10T16:42:25.0000000+00:00</time></trkpt><trkpt lat="39.37951516" lon="-0.38256255"><ele>-1.8</ele><time>2022-11-10T16:42:26.0000000+00:00</time></trkpt><trkpt lat="39.37946471" lon="-0.38257512"><ele>-1.6</ele><time>2022-11-10T16:42:27.0000000+00:00</time></trkpt><trkpt lat="39.37941374" lon="-0.38258694"><ele>-1.6</ele><time>2022-11-10T16:42:28.0000000+00:00</time></trkpt><trkpt lat="39.37936136" lon="-0.38259851"><ele>-1.6</ele><time>2022-11-10T16:42:29.0000000+00:00</time></trkpt><trkpt lat="39.37930637" lon="-0.38261485"><ele>-1.6</ele><time>2022-11-10T16:42:30.0000000+00:00</time></trkpt><trkpt lat="39.37924988" lon="-0.38263212"><ele>-1.6</ele><time>2022-11-10T16:42:31.0000000+00:00</time></trkpt><trkpt lat="39.37919514" lon="-0.38264645"><ele>-1.6</ele><time>2022-11-10T16:42:32.0000000+00:00</time></trkpt><trkpt lat="39.37914368" lon="-0.38266129"><ele>-1.6</ele><time>2022-11-10T16:42:33.0000000+00:00</time></trkpt><trkpt lat="39.37909154" lon="-0.38267805"><ele>-1.6</ele><time>2022-11-10T16:42:34.0000000+00:00</time></trkpt><trkpt lat="39.37904955" lon="-0.38269289"><ele>-1.6</ele><time>2022-11-10T16:42:35.0000000+00:00</time></trkpt><trkpt lat="39.37898484" lon="-0.38271644"><ele>-1.6</ele><time>2022-11-10T16:42:36.0000000+00:00</time></trkpt><trkpt lat="39.37893069" lon="-0.3827348"><ele>-1.6</ele><time>2022-11-10T16:42:37.0000000+00:00</time></trkpt><trkpt lat="39.37887915" lon="-0.38275408"><ele>-1.4</ele><time>2022-11-10T16:42:38.0000000+00:00</time></trkpt><trkpt lat="39.37882709" lon="-0.38277092"><ele>-1.4</ele><time>2022-11-10T16:42:39.0000000+00:00</time></trkpt><trkpt lat="39.37877772" lon="-0.38278895"><ele>-1.4</ele><time>2022-11-10T16:42:40.0000000+00:00</time></trkpt><trkpt lat="39.378725" lon="-0.38280831"><ele>-1.4</ele><time>2022-11-10T16:42:41.0000000+00:00</time></trkpt><trkpt lat="39.37867412" lon="-0.38282876"><ele>-1.4</ele><time>2022-11-10T16:42:42.0000000+00:00</time></trkpt><trkpt lat="39.37862643" lon="-0.3828493"><ele>-1.4</ele><time>2022-11-10T16:42:43.0000000+00:00</time></trkpt><trkpt lat="39.37858134" lon="-0.38286539"><ele>-1.4</ele><time>2022-11-10T16:42:44.0000000+00:00</time></trkpt><trkpt lat="39.37853742" lon="-0.38288022"><ele>-1.4</ele><time>2022-11-10T16:42:45.0000000+00:00</time></trkpt><trkpt lat="39.37849458" lon="-0.38289439"><ele>-1.4</ele><time>2022-11-10T16:42:46.0000000+00:00</time></trkpt><trkpt lat="39.37845284" lon="-0.38290772"><ele>-1.4</ele><time>2022-11-10T16:42:47.0000000+00:00</time></trkpt><trkpt lat="39.37841177" lon="-0.38292121"><ele>-1.4</ele><time>2022-11-10T16:42:48.0000000+00:00</time></trkpt><trkpt lat="39.37837179" lon="-0.38293429"><ele>-1.4</ele><time>2022-11-10T16:42:49.0000000+00:00</time></trkpt><trkpt lat="39.37833223" lon="-0.3829503"><ele>-1.4</ele><time>2022-11-10T16:42:50.0000000+00:00</time></trkpt><trkpt lat="39.37829409" lon="-0.38296639"><ele>-1.4</ele><time>2022-11-10T16:42:51.0000000+00:00</time></trkpt><trkpt lat="39.37825981" lon="-0.3829819"><ele>-1.4</ele><time>2022-11-10T16:42:52.0000000+00:00</time></trkpt><trkpt lat="39.37822854" lon="-0.38299933"><ele>-1.6</ele><time>2022-11-10T16:42:53.0000000+00:00</time></trkpt><trkpt lat="39.37819493" lon="-0.38301149"><ele>-1.6</ele><time>2022-11-10T16:42:54.0000000+00:00</time></trkpt><trkpt lat="39.3781609" lon="-0.38302121"><ele>-1.6</ele><time>2022-11-10T16:42:55.0000000+00:00</time></trkpt><trkpt lat="39.37812779" lon="-0.38303202"><ele>-1.6</ele><time>2022-11-10T16:42:56.0000000+00:00</time></trkpt><trkpt lat="39.37809879" lon="-0.38304082"><ele>-1.6</ele><time>2022-11-10T16:42:57.0000000+00:00</time></trkpt><trkpt lat="39.37807406" lon="-0.38304552"><ele>-1.4</ele><time>2022-11-10T16:42:58.0000000+00:00</time></trkpt><trkpt lat="39.37805143" lon="-0.38305239"><ele>-1.4</ele><time>2022-11-10T16:42:59.0000000+00:00</time></trkpt><trkpt lat="39.37803081" lon="-0.38306236"><ele>-1.2</ele><time>2022-11-10T16:43:00.0000000+00:00</time></trkpt><trkpt lat="39.37801229" lon="-0.38306999"><ele>-1.2</ele><time>2022-11-10T16:43:01.0000000+00:00</time></trkpt><trkpt lat="39.37798807" lon="-0.38307871"><ele>-1.2</ele><time>2022-11-10T16:43:02.0000000+00:00</time></trkpt><trkpt lat="39.37796015" lon="-0.38308776"><ele>-1.2</ele><time>2022-11-10T16:43:03.0000000+00:00</time></trkpt><trkpt lat="39.3779304" lon="-0.3830995"><ele>-1.0</ele><time>2022-11-10T16:43:04.0000000+00:00</time></trkpt><trkpt lat="39.37789561" lon="-0.38311215"><ele>-1.0</ele><time>2022-11-10T16:43:05.0000000+00:00</time></trkpt><trkpt lat="39.3778589" lon="-0.38312489"><ele>-1.0</ele><time>2022-11-10T16:43:06.0000000+00:00</time></trkpt><trkpt lat="39.37782353" lon="-0.38314048"><ele>-1.2</ele><time>2022-11-10T16:43:07.0000000+00:00</time></trkpt><trkpt lat="39.37778514" lon="-0.38315859"><ele>-1.0</ele><time>2022-11-10T16:43:08.0000000+00:00</time></trkpt><trkpt lat="39.37774549" lon="-0.38317652"><ele>-1.0</ele><time>2022-11-10T16:43:09.0000000+00:00</time></trkpt><trkpt lat="39.37770375" lon="-0.38319438"><ele>-1.2</ele><time>2022-11-10T16:43:10.0000000+00:00</time></trkpt><trkpt lat="39.37766109" lon="-0.38321223"><ele>-1.2</ele><time>2022-11-10T16:43:11.0000000+00:00</time></trkpt><trkpt lat="39.37761935" lon="-0.38322749"><ele>-1.2</ele><time>2022-11-10T16:43:12.0000000+00:00</time></trkpt><trkpt lat="39.37757651" lon="-0.3832419"><ele>-1.2</ele><time>2022-11-10T16:43:13.0000000+00:00</time></trkpt><trkpt lat="39.3775346" lon="-0.38325464"><ele>-1.2</ele><time>2022-11-10T16:43:14.0000000+00:00</time></trkpt><trkpt lat="39.3774937" lon="-0.38326705"><ele>-1.2</ele><time>2022-11-10T16:43:15.0000000+00:00</time></trkpt><trkpt lat="39.37745573" lon="-0.38328029"><ele>-1.4</ele><time>2022-11-10T16:43:16.0000000+00:00</time></trkpt><trkpt lat="39.37741659" lon="-0.38329178"><ele>-1.4</ele><time>2022-11-10T16:43:17.0000000+00:00</time></trkpt><trkpt lat="39.37737996" lon="-0.38330041"><ele>-1.4</ele><time>2022-11-10T16:43:18.0000000+00:00</time></trkpt><trkpt lat="39.37735029" lon="-0.38331064"><ele>-1.4</ele><time>2022-11-10T16:43:19.0000000+00:00</time></trkpt><trkpt lat="39.37731785" lon="-0.38332664"><ele>-1.4</ele><time>2022-11-10T16:43:20.0000000+00:00</time></trkpt><trkpt lat="39.37728432" lon="-0.38334651"><ele>-1.4</ele><time>2022-11-10T16:43:21.0000000+00:00</time></trkpt><trkpt lat="39.37724878" lon="-0.38336461"><ele>-1.4</ele><time>2022-11-10T16:43:22.0000000+00:00</time></trkpt><trkpt lat="39.37721073" lon="-0.38338004"><ele>-1.4</ele><time>2022-11-10T16:43:23.0000000+00:00</time></trkpt><trkpt lat="39.377171" lon="-0.38339227"><ele>-1.4</ele><time>2022-11-10T16:43:24.0000000+00:00</time></trkpt><trkpt lat="39.377129" lon="-0.3834082"><ele>-1.4</ele><time>2022-11-10T16:43:25.0000000+00:00</time></trkpt><trkpt lat="39.3770876" lon="-0.38342404"><ele>-1.4</ele><time>2022-11-10T16:43:26.0000000+00:00</time></trkpt><trkpt lat="39.37704736" lon="-0.38344164"><ele>-1.4</ele><time>2022-11-10T16:43:27.0000000+00:00</time></trkpt><trkpt lat="39.37700696" lon="-0.38346092"><ele>-1.4</ele><time>2022-11-10T16:43:28.0000000+00:00</time></trkpt><trkpt lat="39.37696656" lon="-0.38347869"><ele>-1.4</ele><time>2022-11-10T16:43:29.0000000+00:00</time></trkpt><trkpt lat="39.37692608" lon="-0.3834973"><ele>-1.4</ele><time>2022-11-10T16:43:30.0000000+00:00</time></trkpt><trkpt lat="39.37688559" lon="-0.38351817"><ele>-1.4</ele><time>2022-11-10T16:43:31.0000000+00:00</time></trkpt><trkpt lat="39.37684226" lon="-0.38353812"><ele>-1.2</ele><time>2022-11-10T16:43:32.0000000+00:00</time></trkpt><trkpt lat="39.37679566" lon="-0.38355824"><ele>-1.2</ele><time>2022-11-10T16:43:33.0000000+00:00</time></trkpt><trkpt lat="39.37674964" lon="-0.38357894"><ele>-1.4</ele><time>2022-11-10T16:43:34.0000000+00:00</time></trkpt><trkpt lat="39.37670572" lon="-0.38360082"><ele>-1.2</ele><time>2022-11-10T16:43:35.0000000+00:00</time></trkpt><trkpt lat="39.37666423" lon="-0.38362202"><ele>-1.4</ele><time>2022-11-10T16:43:36.0000000+00:00</time></trkpt><trkpt lat="39.3766224" lon="-0.38364315"><ele>-1.4</ele><time>2022-11-10T16:43:37.0000000+00:00</time></trkpt><trkpt lat="39.37657848" lon="-0.38366561"><ele>-1.4</ele><time>2022-11-10T16:43:38.0000000+00:00</time></trkpt><trkpt lat="39.37653716" lon="-0.38368757"><ele>-1.4</ele><time>2022-11-10T16:43:39.0000000+00:00</time></trkpt><trkpt lat="39.37649575" lon="-0.38370911"><ele>-1.4</ele><time>2022-11-10T16:43:40.0000000+00:00</time></trkpt><trkpt lat="39.37645166" lon="-0.38373099"><ele>-1.2</ele><time>2022-11-10T16:43:41.0000000+00:00</time></trkpt><trkpt lat="39.37640623" lon="-0.38375303"><ele>-1.2</ele><time>2022-11-10T16:43:42.0000000+00:00</time></trkpt><trkpt lat="39.37636038" lon="-0.38377198"><ele>-1.2</ele><time>2022-11-10T16:43:43.0000000+00:00</time></trkpt><trkpt lat="39.37631437" lon="-0.38379083"><ele>-1.2</ele><time>2022-11-10T16:43:44.0000000+00:00</time></trkpt><trkpt lat="39.37626734" lon="-0.38381196"><ele>-1.2</ele><time>2022-11-10T16:43:45.0000000+00:00</time></trkpt><trkpt lat="39.37622267" lon="-0.38383559"><ele>-1.2</ele><time>2022-11-10T16:43:46.0000000+00:00</time></trkpt><trkpt lat="39.37617581" lon="-0.3838594"><ele>-1.2</ele><time>2022-11-10T16:43:47.0000000+00:00</time></trkpt><trkpt lat="39.37612946" lon="-0.38388203"><ele>-1.2</ele><time>2022-11-10T16:43:48.0000000+00:00</time></trkpt><trkpt lat="39.37608093" lon="-0.38390609"><ele>-1.2</ele><time>2022-11-10T16:43:49.0000000+00:00</time></trkpt><trkpt lat="39.37603005" lon="-0.3839293"><ele>-1.2</ele><time>2022-11-10T16:43:50.0000000+00:00</time></trkpt><trkpt lat="39.37598261" lon="-0.38395319"><ele>-1.2</ele><time>2022-11-10T16:43:51.0000000+00:00</time></trkpt><trkpt lat="39.37593458" lon="-0.38397582"><ele>-1.2</ele><time>2022-11-10T16:43:52.0000000+00:00</time></trkpt><trkpt lat="39.37588714" lon="-0.3839982"><ele>-1.2</ele><time>2022-11-10T16:43:53.0000000+00:00</time></trkpt><trkpt lat="39.37584087" lon="-0.38402159"><ele>-1.2</ele><time>2022-11-10T16:43:54.0000000+00:00</time></trkpt><trkpt lat="39.37579678" lon="-0.38404673"><ele>-1.2</ele><time>2022-11-10T16:43:55.0000000+00:00</time></trkpt><trkpt lat="39.37575345" lon="-0.38407339"><ele>-1.4</ele><time>2022-11-10T16:43:56.0000000+00:00</time></trkpt><trkpt lat="39.37570567" lon="-0.38409619"><ele>-1.4</ele><time>2022-11-10T16:43:57.0000000+00:00</time></trkpt><trkpt lat="39.37565899" lon="-0.3841189"><ele>-1.4</ele><time>2022-11-10T16:43:58.0000000+00:00</time></trkpt><trkpt lat="39.3756133" lon="-0.38414204"><ele>-1.4</ele><time>2022-11-10T16:43:59.0000000+00:00</time></trkpt><trkpt lat="39.3755693" lon="-0.38416215"><ele>-1.4</ele><time>2022-11-10T16:44:00.0000000+00:00</time></trkpt><trkpt lat="39.37552437" lon="-0.38418436"><ele>-1.4</ele><time>2022-11-10T16:44:01.0000000+00:00</time></trkpt><trkpt lat="39.37548087" lon="-0.38420842"><ele>-1.6</ele><time>2022-11-10T16:44:02.0000000+00:00</time></trkpt><trkpt lat="39.37543552" lon="-0.38423281"><ele>-1.6</ele><time>2022-11-10T16:44:03.0000000+00:00</time></trkpt><trkpt lat="39.375388" lon="-0.38425729"><ele>-1.6</ele><time>2022-11-10T16:44:04.0000000+00:00</time></trkpt><trkpt lat="39.37534165" lon="-0.38427883"><ele>-1.6</ele><time>2022-11-10T16:44:05.0000000+00:00</time></trkpt><trkpt lat="39.37530493" lon="-0.38430104"><ele>-1.6</ele><time>2022-11-10T16:44:06.0000000+00:00</time></trkpt><trkpt lat="39.37525179" lon="-0.38433524"><ele>-1.6</ele><time>2022-11-10T16:44:07.0000000+00:00</time></trkpt><trkpt lat="39.37520628" lon="-0.38436508"><ele>-1.6</ele><time>2022-11-10T16:44:08.0000000+00:00</time></trkpt><trkpt lat="39.37515993" lon="-0.38439433"><ele>-1.6</ele><time>2022-11-10T16:44:09.0000000+00:00</time></trkpt><trkpt lat="39.37511349" lon="-0.38442451"><ele>-1.6</ele><time>2022-11-10T16:44:10.0000000+00:00</time></trkpt><trkpt lat="39.37506605" lon="-0.38445451"><ele>-1.6</ele><time>2022-11-10T16:44:11.0000000+00:00</time></trkpt><trkpt lat="39.37501794" lon="-0.38448402"><ele>-1.6</ele><time>2022-11-10T16:44:12.0000000+00:00</time></trkpt><trkpt lat="39.37497234" lon="-0.38451034"><ele>-1.6</ele><time>2022-11-10T16:44:13.0000000+00:00</time></trkpt><trkpt lat="39.37492607" lon="-0.38453783"><ele>-1.6</ele><time>2022-11-10T16:44:14.0000000+00:00</time></trkpt><trkpt lat="39.37487989" lon="-0.38456457"><ele>-1.4</ele><time>2022-11-10T16:44:15.0000000+00:00</time></trkpt><trkpt lat="39.37483823" lon="-0.38458896"><ele>-1.4</ele><time>2022-11-10T16:44:16.0000000+00:00</time></trkpt><trkpt lat="39.37479565" lon="-0.38461754"><ele>-1.4</ele><time>2022-11-10T16:44:17.0000000+00:00</time></trkpt><trkpt lat="39.37475265" lon="-0.38464311"><ele>-1.4</ele><time>2022-11-10T16:44:18.0000000+00:00</time></trkpt><trkpt lat="39.37471082" lon="-0.38466817"><ele>-1.4</ele><time>2022-11-10T16:44:19.0000000+00:00</time></trkpt><trkpt lat="39.37467143" lon="-0.38469449"><ele>-1.4</ele><time>2022-11-10T16:44:20.0000000+00:00</time></trkpt><trkpt lat="39.37463421" lon="-0.3847203"><ele>-1.6</ele><time>2022-11-10T16:44:21.0000000+00:00</time></trkpt><trkpt lat="39.37459574" lon="-0.38474428"><ele>-1.6</ele><time>2022-11-10T16:44:22.0000000+00:00</time></trkpt><trkpt lat="39.37455903" lon="-0.38476598"><ele>-1.8</ele><time>2022-11-10T16:44:23.0000000+00:00</time></trkpt><trkpt lat="39.37452257" lon="-0.38478954"><ele>-1.8</ele><time>2022-11-10T16:44:24.0000000+00:00</time></trkpt><trkpt lat="39.37448611" lon="-0.3848151"><ele>-1.8</ele><time>2022-11-10T16:44:25.0000000+00:00</time></trkpt><trkpt lat="39.37444847" lon="-0.38484159"><ele>-1.8</ele><time>2022-11-10T16:44:26.0000000+00:00</time></trkpt><trkpt lat="39.37440539" lon="-0.38486715"><ele>-1.8</ele><time>2022-11-10T16:44:27.0000000+00:00</time></trkpt><trkpt lat="39.37436222" lon="-0.38489481"><ele>-1.8</ele><time>2022-11-10T16:44:28.0000000+00:00</time></trkpt><trkpt lat="39.37431721" lon="-0.38492373"><ele>-1.8</ele><time>2022-11-10T16:44:29.0000000+00:00</time></trkpt><trkpt lat="39.37427254" lon="-0.38495533"><ele>-1.6</ele><time>2022-11-10T16:44:30.0000000+00:00</time></trkpt><trkpt lat="39.37422853" lon="-0.38498903"><ele>-1.6</ele><time>2022-11-10T16:44:31.0000000+00:00</time></trkpt><trkpt lat="39.37418209" lon="-0.38501912"><ele>-1.6</ele><time>2022-11-10T16:44:32.0000000+00:00</time></trkpt><trkpt lat="39.37413591" lon="-0.38504669"><ele>-1.6</ele><time>2022-11-10T16:44:33.0000000+00:00</time></trkpt><trkpt lat="39.37408897" lon="-0.38507209"><ele>-1.4</ele><time>2022-11-10T16:44:34.0000000+00:00</time></trkpt><trkpt lat="39.37404346" lon="-0.38509791"><ele>-1.4</ele><time>2022-11-10T16:44:35.0000000+00:00</time></trkpt><trkpt lat="39.3739992" lon="-0.38512414"><ele>-1.4</ele><time>2022-11-10T16:44:36.0000000+00:00</time></trkpt><trkpt lat="39.3739531" lon="-0.38515038"><ele>-1.2</ele><time>2022-11-10T16:44:37.0000000+00:00</time></trkpt><trkpt lat="39.37390549" lon="-0.38517921"><ele>-1.2</ele><time>2022-11-10T16:44:38.0000000+00:00</time></trkpt><trkpt lat="39.3738552" lon="-0.38520796"><ele>-1.2</ele><time>2022-11-10T16:44:39.0000000+00:00</time></trkpt><trkpt lat="39.37380474" lon="-0.38523688"><ele>-1.2</ele><time>2022-11-10T16:44:40.0000000+00:00</time></trkpt><trkpt lat="39.37375277" lon="-0.38526404"><ele>-1.2</ele><time>2022-11-10T16:44:41.0000000+00:00</time></trkpt><trkpt lat="39.37370231" lon="-0.3852927"><ele>-1.2</ele><time>2022-11-10T16:44:42.0000000+00:00</time></trkpt><trkpt lat="39.37365378" lon="-0.38532279"><ele>-1.4</ele><time>2022-11-10T16:44:43.0000000+00:00</time></trkpt><trkpt lat="39.37360718" lon="-0.38535574"><ele>-1.4</ele><time>2022-11-10T16:44:44.0000000+00:00</time></trkpt><trkpt lat="39.37356032" lon="-0.38538775"><ele>-1.4</ele><time>2022-11-10T16:44:45.0000000+00:00</time></trkpt><trkpt lat="39.37351313" lon="-0.38541676"><ele>-1.4</ele><time>2022-11-10T16:44:46.0000000+00:00</time></trkpt><trkpt lat="39.37346351" lon="-0.38544199"><ele>-1.4</ele><time>2022-11-10T16:44:47.0000000+00:00</time></trkpt><trkpt lat="39.37341549" lon="-0.38546948"><ele>-1.4</ele><time>2022-11-10T16:44:48.0000000+00:00</time></trkpt><trkpt lat="39.3733688" lon="-0.38550016"><ele>-1.4</ele><time>2022-11-10T16:44:49.0000000+00:00</time></trkpt><trkpt lat="39.37332379" lon="-0.38553502"><ele>-1.4</ele><time>2022-11-10T16:44:50.0000000+00:00</time></trkpt><trkpt lat="39.37328104" lon="-0.3855719"><ele>-1.4</ele><time>2022-11-10T16:44:51.0000000+00:00</time></trkpt><trkpt lat="39.37323745" lon="-0.38560635"><ele>-1.4</ele><time>2022-11-10T16:44:52.0000000+00:00</time></trkpt><trkpt lat="39.37319127" lon="-0.38563795"><ele>-1.4</ele><time>2022-11-10T16:44:53.0000000+00:00</time></trkpt><trkpt lat="39.37314509" lon="-0.38566771"><ele>-1.4</ele><time>2022-11-10T16:44:54.0000000+00:00</time></trkpt><trkpt lat="39.37310192" lon="-0.38569797"><ele>-1.4</ele><time>2022-11-10T16:44:55.0000000+00:00</time></trkpt><trkpt lat="39.37306034" lon="-0.38572856"><ele>-1.4</ele><time>2022-11-10T16:44:56.0000000+00:00</time></trkpt><trkpt lat="39.37301986" lon="-0.38575698"><ele>-1.4</ele><time>2022-11-10T16:44:57.0000000+00:00</time></trkpt><trkpt lat="39.37297921" lon="-0.3857864"><ele>-1.4</ele><time>2022-11-10T16:44:58.0000000+00:00</time></trkpt><trkpt lat="39.37294023" lon="-0.38581632"><ele>-1.6</ele><time>2022-11-10T16:44:59.0000000+00:00</time></trkpt><trkpt lat="39.37290335" lon="-0.38584163"><ele>-1.6</ele><time>2022-11-10T16:45:00.0000000+00:00</time></trkpt><trkpt lat="39.37286714" lon="-0.38586158"><ele>-1.6</ele><time>2022-11-10T16:45:01.0000000+00:00</time></trkpt><trkpt lat="39.37283487" lon="-0.38587533"><ele>-1.6</ele><time>2022-11-10T16:45:02.0000000+00:00</time></trkpt><trkpt lat="39.37279824" lon="-0.38589486"><ele>-1.6</ele><time>2022-11-10T16:45:03.0000000+00:00</time></trkpt><trkpt lat="39.37276262" lon="-0.38591531"><ele>-1.6</ele><time>2022-11-10T16:45:04.0000000+00:00</time></trkpt><trkpt lat="39.37273244" lon="-0.3859299"><ele>-1.6</ele><time>2022-11-10T16:45:05.0000000+00:00</time></trkpt><trkpt lat="39.37270152" lon="-0.3859428"><ele>-1.6</ele><time>2022-11-10T16:45:06.0000000+00:00</time></trkpt><trkpt lat="39.37266941" lon="-0.38595672"><ele>-1.6</ele><time>2022-11-10T16:45:07.0000000+00:00</time></trkpt><trkpt lat="39.37263656" lon="-0.38597206"><ele>-1.6</ele><time>2022-11-10T16:45:08.0000000+00:00</time></trkpt><trkpt lat="39.37260873" lon="-0.38598622"><ele>-1.6</ele><time>2022-11-10T16:45:09.0000000+00:00</time></trkpt><trkpt lat="39.3725814" lon="-0.38600424"><ele>-1.6</ele><time>2022-11-10T16:45:10.0000000+00:00</time></trkpt><trkpt lat="39.37255525" lon="-0.38601673"><ele>-1.8</ele><time>2022-11-10T16:45:11.0000000+00:00</time></trkpt><trkpt lat="39.37252642" lon="-0.3860278"><ele>-1.6</ele><time>2022-11-10T16:45:12.0000000+00:00</time></trkpt><trkpt lat="39.37249616" lon="-0.3860402"><ele>-1.6</ele><time>2022-11-10T16:45:13.0000000+00:00</time></trkpt><trkpt lat="39.37247277" lon="-0.38605537"><ele>-1.6</ele><time>2022-11-10T16:45:14.0000000+00:00</time></trkpt><trkpt lat="39.37245006" lon="-0.38606878"><ele>-1.6</ele><time>2022-11-10T16:45:15.0000000+00:00</time></trkpt><trkpt lat="39.37242692" lon="-0.38608328"><ele>-1.6</ele><time>2022-11-10T16:45:16.0000000+00:00</time></trkpt><trkpt lat="39.37240421" lon="-0.38609636"><ele>-1.6</ele><time>2022-11-10T16:45:17.0000000+00:00</time></trkpt><trkpt lat="39.37238485" lon="-0.38610608"><ele>-1.6</ele><time>2022-11-10T16:45:18.0000000+00:00</time></trkpt><trkpt lat="39.37236523" lon="-0.38611262"><ele>-1.6</ele><time>2022-11-10T16:45:19.0000000+00:00</time></trkpt><trkpt lat="39.37234671" lon="-0.38612"><ele>-1.6</ele><time>2022-11-10T16:45:20.0000000+00:00</time></trkpt><trkpt lat="39.37232777" lon="-0.38612989"><ele>-1.6</ele><time>2022-11-10T16:45:21.0000000+00:00</time></trkpt><trkpt lat="39.37230706" lon="-0.38613995"><ele>-1.8</ele><time>2022-11-10T16:45:22.0000000+00:00</time></trkpt><trkpt lat="39.37228468" lon="-0.38615177"><ele>-1.8</ele><time>2022-11-10T16:45:23.0000000+00:00</time></trkpt><trkpt lat="39.37225912" lon="-0.38616593"><ele>-1.8</ele><time>2022-11-10T16:45:24.0000000+00:00</time></trkpt><trkpt lat="39.37223364" lon="-0.38617632"><ele>-1.8</ele><time>2022-11-10T16:45:25.0000000+00:00</time></trkpt><trkpt lat="39.3721955" lon="-0.38619258"><ele>-1.8</ele><time>2022-11-10T16:45:26.0000000+00:00</time></trkpt><trkpt lat="39.37216256" lon="-0.38620926"><ele>-1.8</ele><time>2022-11-10T16:45:27.0000000+00:00</time></trkpt><trkpt lat="39.37213222" lon="-0.38622947"><ele>-1.8</ele><time>2022-11-10T16:45:28.0000000+00:00</time></trkpt><trkpt lat="39.37209617" lon="-0.38624866"><ele>-1.8</ele><time>2022-11-10T16:45:29.0000000+00:00</time></trkpt><trkpt lat="39.37205753" lon="-0.38626744"><ele>-1.6</ele><time>2022-11-10T16:45:30.0000000+00:00</time></trkpt><trkpt lat="39.37201923" lon="-0.38628127"><ele>-1.6</ele><time>2022-11-10T16:45:31.0000000+00:00</time></trkpt><trkpt lat="39.37198134" lon="-0.38629702"><ele>-1.8</ele><time>2022-11-10T16:45:32.0000000+00:00</time></trkpt><trkpt lat="39.37194438" lon="-0.38631345"><ele>-1.8</ele><time>2022-11-10T16:45:33.0000000+00:00</time></trkpt><trkpt lat="39.37190741" lon="-0.38632963"><ele>-1.8</ele><time>2022-11-10T16:45:34.0000000+00:00</time></trkpt><trkpt lat="39.37187414" lon="-0.38634606"><ele>-1.8</ele><time>2022-11-10T16:45:35.0000000+00:00</time></trkpt><trkpt lat="39.37184639" lon="-0.38636173"><ele>-1.8</ele><time>2022-11-10T16:45:36.0000000+00:00</time></trkpt><trkpt lat="39.37182762" lon="-0.38637866"><ele>-1.8</ele><time>2022-11-10T16:45:37.0000000+00:00</time></trkpt><trkpt lat="39.3718132" lon="-0.38638897"><ele>-1.6</ele><time>2022-11-10T16:45:38.0000000+00:00</time></trkpt><trkpt lat="39.37180021" lon="-0.3863992"><ele>-1.6</ele><time>2022-11-10T16:45:39.0000000+00:00</time></trkpt><trkpt lat="39.3717873" lon="-0.38641068"><ele>-1.6</ele><time>2022-11-10T16:45:40.0000000+00:00</time></trkpt><trkpt lat="39.37177917" lon="-0.38642242"><ele>-1.6</ele><time>2022-11-10T16:45:41.0000000+00:00</time></trkpt><trkpt lat="39.37177599" lon="-0.38642745"><ele>-1.6</ele><time>2022-11-10T16:45:42.0000000+00:00</time></trkpt><trkpt lat="39.37177599" lon="-0.38642745"><ele>-1.6</ele><time>2022-11-10T16:45:43.0000000+00:00</time></trkpt><trkpt lat="39.37177599" lon="-0.38642745"><ele>-1.6</ele><time>2022-11-10T16:45:44.0000000+00:00</time></trkpt><trkpt lat="39.37177599" lon="-0.38642745"><ele>-1.4</ele><time>2022-11-10T16:45:45.0000000+00:00</time></trkpt><trkpt lat="39.37177599" lon="-0.38642745"><ele>-1.4</ele><time>2022-11-10T16:45:46.0000000+00:00</time></trkpt><trkpt lat="39.37177599" lon="-0.38642745"><ele>-1.4</ele><time>2022-11-10T16:45:47.0000000+00:00</time></trkpt><trkpt lat="39.37177599" lon="-0.38642745"><ele>-1.4</ele><time>2022-11-10T16:45:48.0000000+00:00</time></trkpt><trkpt lat="39.37177599" lon="-0.38642745"><ele>-1.4</ele><time>2022-11-10T16:45:49.0000000+00:00</time></trkpt><trkpt lat="39.37177599" lon="-0.38642745"><ele>-1.4</ele><time>2022-11-10T16:45:50.0000000+00:00</time></trkpt><trkpt lat="39.37177599" lon="-0.38642745"><ele>-1.4</ele><time>2022-11-10T16:45:51.0000000+00:00</time></trkpt><trkpt lat="39.37177599" lon="-0.38642745"><ele>-1.4</ele><time>2022-11-10T16:45:52.0000000+00:00</time></trkpt><trkpt lat="39.37177599" lon="-0.38642745"><ele>-1.4</ele><time>2022-11-10T16:45:53.0000000+00:00</time></trkpt><trkpt lat="39.37177599" lon="-0.38642745"><ele>-1.4</ele><time>2022-11-10T16:45:54.0000000+00:00</time></trkpt><trkpt lat="39.37177599" lon="-0.38642745"><ele>-1.4</ele><time>2022-11-10T16:45:55.0000000+00:00</time></trkpt><trkpt lat="39.37177599" lon="-0.38642745"><ele>-1.4</ele><time>2022-11-10T16:45:56.0000000+00:00</time></trkpt><trkpt lat="39.37177599" lon="-0.38642745"><ele>-1.4</ele><time>2022-11-10T16:45:57.0000000+00:00</time></trkpt><trkpt lat="39.37177599" lon="-0.38642745"><ele>-1.4</ele><time>2022-11-10T16:45:58.0000000+00:00</time></trkpt><trkpt lat="39.37177599" lon="-0.38642745"><ele>-1.4</ele><time>2022-11-10T16:45:59.0000000+00:00</time></trkpt><trkpt lat="39.37177599" lon="-0.38642745"><ele>-1.4</ele><time>2022-11-10T16:46:00.0000000+00:00</time></trkpt><trkpt lat="39.37177599" lon="-0.38642745"><ele>-1.4</ele><time>2022-11-10T16:46:01.0000000+00:00</time></trkpt><trkpt lat="39.37177599" lon="-0.38642745"><ele>-1.4</ele><time>2022-11-10T16:46:02.0000000+00:00</time></trkpt><trkpt lat="39.37177599" lon="-0.38642745"><ele>-1.4</ele><time>2022-11-10T16:46:03.0000000+00:00</time></trkpt><trkpt lat="39.37177599" lon="-0.38642745"><ele>-1.4</ele><time>2022-11-10T16:46:04.0000000+00:00</time></trkpt><trkpt lat="39.37177599" lon="-0.38642745"><ele>-1.4</ele><time>2022-11-10T16:46:05.0000000+00:00</time></trkpt><trkpt lat="39.37177599" lon="-0.38642745"><ele>-1.4</ele><time>2022-11-10T16:46:06.0000000+00:00</time></trkpt><trkpt lat="39.37177599" lon="-0.38642745"><ele>-1.4</ele><time>2022-11-10T16:46:07.0000000+00:00</time></trkpt><trkpt lat="39.37177599" lon="-0.38642745"><ele>-1.4</ele><time>2022-11-10T16:46:08.0000000+00:00</time></trkpt><trkpt lat="39.37177599" lon="-0.38642745"><ele>-1.4</ele><time>2022-11-10T16:46:09.0000000+00:00</time></trkpt><trkpt lat="39.37177599" lon="-0.38642745"><ele>-1.4</ele><time>2022-11-10T16:46:10.0000000+00:00</time></trkpt><trkpt lat="39.37177599" lon="-0.38642745"><ele>-1.4</ele><time>2022-11-10T16:46:11.0000000+00:00</time></trkpt><trkpt lat="39.37177599" lon="-0.38642745"><ele>-1.4</ele><time>2022-11-10T16:46:12.0000000+00:00</time></trkpt><trkpt lat="39.37177599" lon="-0.38642745"><ele>-1.4</ele><time>2022-11-10T16:46:13.0000000+00:00</time></trkpt><trkpt lat="39.37177599" lon="-0.38642745"><ele>-1.4</ele><time>2022-11-10T16:46:14.0000000+00:00</time></trkpt><trkpt lat="39.37177599" lon="-0.38642745"><ele>-1.4</ele><time>2022-11-10T16:46:15.0000000+00:00</time></trkpt><trkpt lat="39.37177599" lon="-0.38642745"><ele>-1.4</ele><time>2022-11-10T16:46:16.0000000+00:00</time></trkpt><trkpt lat="39.37177599" lon="-0.38642745"><ele>-1.4</ele><time>2022-11-10T16:46:17.0000000+00:00</time></trkpt><trkpt lat="39.37177599" lon="-0.38642745"><ele>-1.4</ele><time>2022-11-10T16:46:18.0000000+00:00</time></trkpt><trkpt lat="39.37177599" lon="-0.38642745"><ele>-1.4</ele><time>2022-11-10T16:46:19.0000000+00:00</time></trkpt><trkpt lat="39.37177599" lon="-0.38642745"><ele>-1.4</ele><time>2022-11-10T16:46:20.0000000+00:00</time></trkpt><trkpt lat="39.37177599" lon="-0.38642745"><ele>-1.4</ele><time>2022-11-10T16:46:21.0000000+00:00</time></trkpt><trkpt lat="39.37177599" lon="-0.38642745"><ele>-1.4</ele><time>2022-11-10T16:46:22.0000000+00:00</time></trkpt><trkpt lat="39.37177599" lon="-0.38642745"><ele>-1.4</ele><time>2022-11-10T16:46:23.0000000+00:00</time></trkpt><trkpt lat="39.37177599" lon="-0.38642745"><ele>-1.4</ele><time>2022-11-10T16:46:24.0000000+00:00</time></trkpt><trkpt lat="39.37177599" lon="-0.38642745"><ele>-1.4</ele><time>2022-11-10T16:46:25.0000000+00:00</time></trkpt><trkpt lat="39.37177599" lon="-0.38642745"><ele>-1.4</ele><time>2022-11-10T16:46:26.0000000+00:00</time></trkpt><trkpt lat="39.37177599" lon="-0.38642745"><ele>-1.4</ele><time>2022-11-10T16:46:27.0000000+00:00</time></trkpt><trkpt lat="39.37177599" lon="-0.38642745"><ele>-1.4</ele><time>2022-11-10T16:46:28.0000000+00:00</time></trkpt><trkpt lat="39.37177599" lon="-0.38642745"><ele>-1.4</ele><time>2022-11-10T16:46:29.0000000+00:00</time></trkpt><trkpt lat="39.37177599" lon="-0.38642745"><ele>-1.4</ele><time>2022-11-10T16:46:30.0000000+00:00</time></trkpt><trkpt lat="39.37177599" lon="-0.38642745"><ele>-1.4</ele><time>2022-11-10T16:46:31.0000000+00:00</time></trkpt><trkpt lat="39.37177599" lon="-0.38642745"><ele>-1.4</ele><time>2022-11-10T16:46:32.0000000+00:00</time></trkpt><trkpt lat="39.37177599" lon="-0.38642745"><ele>-1.4</ele><time>2022-11-10T16:46:33.0000000+00:00</time></trkpt><trkpt lat="39.37177599" lon="-0.38642745"><ele>-1.4</ele><time>2022-11-10T16:46:34.0000000+00:00</time></trkpt><trkpt lat="39.37177599" lon="-0.38642745"><ele>-1.4</ele><time>2022-11-10T16:46:35.0000000+00:00</time></trkpt><trkpt lat="39.37177599" lon="-0.38642745"><ele>-1.4</ele><time>2022-11-10T16:46:36.0000000+00:00</time></trkpt><trkpt lat="39.37177599" lon="-0.38642745"><ele>-1.4</ele><time>2022-11-10T16:46:37.0000000+00:00</time></trkpt><trkpt lat="39.37177599" lon="-0.38642745"><ele>-1.4</ele><time>2022-11-10T16:46:38.0000000+00:00</time></trkpt><trkpt lat="39.37177599" lon="-0.38642745"><ele>-1.4</ele><time>2022-11-10T16:46:39.0000000+00:00</time></trkpt><trkpt lat="39.37177599" lon="-0.38642745"><ele>-1.4</ele><time>2022-11-10T16:46:40.0000000+00:00</time></trkpt><trkpt lat="39.37177599" lon="-0.38642745"><ele>-1.4</ele><time>2022-11-10T16:46:41.0000000+00:00</time></trkpt><trkpt lat="39.37177599" lon="-0.38642745"><ele>-1.4</ele><time>2022-11-10T16:46:42.0000000+00:00</time></trkpt><trkpt lat="39.37177599" lon="-0.38642745"><ele>-1.4</ele><time>2022-11-10T16:46:43.0000000+00:00</time></trkpt><trkpt lat="39.37177599" lon="-0.38642745"><ele>-1.4</ele><time>2022-11-10T16:46:44.0000000+00:00</time></trkpt><trkpt lat="39.37177599" lon="-0.38642745"><ele>-1.4</ele><time>2022-11-10T16:46:45.0000000+00:00</time></trkpt><trkpt lat="39.37177599" lon="-0.38642745"><ele>-1.4</ele><time>2022-11-10T16:46:46.0000000+00:00</time></trkpt><trkpt lat="39.37177599" lon="-0.38642745"><ele>-1.4</ele><time>2022-11-10T16:46:47.0000000+00:00</time></trkpt><trkpt lat="39.37177599" lon="-0.38642745"><ele>-1.4</ele><time>2022-11-10T16:46:48.0000000+00:00</time></trkpt><trkpt lat="39.37177599" lon="-0.38642745"><ele>-1.4</ele><time>2022-11-10T16:46:49.0000000+00:00</time></trkpt><trkpt lat="39.37177599" lon="-0.38642745"><ele>-1.4</ele><time>2022-11-10T16:46:50.0000000+00:00</time></trkpt><trkpt lat="39.37177599" lon="-0.38642745"><ele>-1.4</ele><time>2022-11-10T16:46:51.0000000+00:00</time></trkpt><trkpt lat="39.37177599" lon="-0.38642745"><ele>-1.4</ele><time>2022-11-10T16:46:52.0000000+00:00</time></trkpt><trkpt lat="39.37177599" lon="-0.38642745"><ele>-1.4</ele><time>2022-11-10T16:46:53.0000000+00:00</time></trkpt><trkpt lat="39.37177599" lon="-0.38642745"><ele>-1.4</ele><time>2022-11-10T16:46:54.0000000+00:00</time></trkpt><trkpt lat="39.37177599" lon="-0.38642745"><ele>-1.4</ele><time>2022-11-10T16:46:55.0000000+00:00</time></trkpt><trkpt lat="39.37177599" lon="-0.38642745"><ele>-1.4</ele><time>2022-11-10T16:46:56.0000000+00:00</time></trkpt><trkpt lat="39.37177599" lon="-0.38642745"><ele>-1.4</ele><time>2022-11-10T16:46:57.0000000+00:00</time></trkpt><trkpt lat="39.37177599" lon="-0.38642745"><ele>-1.4</ele><time>2022-11-10T16:46:58.0000000+00:00</time></trkpt><trkpt lat="39.37177599" lon="-0.38642745"><ele>-1.4</ele><time>2022-11-10T16:46:59.0000000+00:00</time></trkpt><trkpt lat="39.37177464" lon="-0.38642686"><ele>-1.4</ele><time>2022-11-10T16:47:00.0000000+00:00</time></trkpt><trkpt lat="39.3717728" lon="-0.38642803"><ele>-1.4</ele><time>2022-11-10T16:47:01.0000000+00:00</time></trkpt><trkpt lat="39.37177012" lon="-0.3864303"><ele>-1.4</ele><time>2022-11-10T16:47:02.0000000+00:00</time></trkpt><trkpt lat="39.37177012" lon="-0.3864303"><ele>-1.4</ele><time>2022-11-10T16:47:03.0000000+00:00</time></trkpt><trkpt lat="39.37177012" lon="-0.3864303"><ele>-1.4</ele><time>2022-11-10T16:47:04.0000000+00:00</time></trkpt><trkpt lat="39.37177012" lon="-0.3864303"><ele>-1.4</ele><time>2022-11-10T16:47:05.0000000+00:00</time></trkpt><trkpt lat="39.37177012" lon="-0.3864303"><ele>-1.4</ele><time>2022-11-10T16:47:06.0000000+00:00</time></trkpt><trkpt lat="39.37177012" lon="-0.3864303"><ele>-1.4</ele><time>2022-11-10T16:47:07.0000000+00:00</time></trkpt><trkpt lat="39.37177012" lon="-0.3864303"><ele>-1.4</ele><time>2022-11-10T16:47:08.0000000+00:00</time></trkpt><trkpt lat="39.37177012" lon="-0.3864303"><ele>-1.4</ele><time>2022-11-10T16:47:09.0000000+00:00</time></trkpt><trkpt lat="39.37177012" lon="-0.3864303"><ele>-1.4</ele><time>2022-11-10T16:47:10.0000000+00:00</time></trkpt><trkpt lat="39.37177012" lon="-0.3864303"><ele>-1.4</ele><time>2022-11-10T16:47:11.0000000+00:00</time></trkpt><trkpt lat="39.37177012" lon="-0.3864303"><ele>-1.4</ele><time>2022-11-10T16:47:12.0000000+00:00</time></trkpt><trkpt lat="39.37177012" lon="-0.3864303"><ele>-1.4</ele><time>2022-11-10T16:47:13.0000000+00:00</time></trkpt><trkpt lat="39.37177012" lon="-0.3864303"><ele>-1.4</ele><time>2022-11-10T16:47:14.0000000+00:00</time></trkpt><trkpt lat="39.37177012" lon="-0.3864303"><ele>-1.4</ele><time>2022-11-10T16:47:15.0000000+00:00</time></trkpt><trkpt lat="39.37177012" lon="-0.3864303"><ele>-1.4</ele><time>2022-11-10T16:47:16.0000000+00:00</time></trkpt><trkpt lat="39.37177012" lon="-0.3864303"><ele>-1.4</ele><time>2022-11-10T16:47:17.0000000+00:00</time></trkpt><trkpt lat="39.37177012" lon="-0.3864303"><ele>-1.4</ele><time>2022-11-10T16:47:18.0000000+00:00</time></trkpt><trkpt lat="39.37177012" lon="-0.3864303"><ele>-1.4</ele><time>2022-11-10T16:47:19.0000000+00:00</time></trkpt><trkpt lat="39.37177012" lon="-0.3864303"><ele>-1.4</ele><time>2022-11-10T16:47:20.0000000+00:00</time></trkpt><trkpt lat="39.37177012" lon="-0.3864303"><ele>-1.4</ele><time>2022-11-10T16:47:21.0000000+00:00</time></trkpt><trkpt lat="39.37177012" lon="-0.3864303"><ele>-1.4</ele><time>2022-11-10T16:47:22.0000000+00:00</time></trkpt><trkpt lat="39.37177012" lon="-0.3864303"><ele>-1.4</ele><time>2022-11-10T16:47:23.0000000+00:00</time></trkpt><trkpt lat="39.37177012" lon="-0.3864303"><ele>-1.4</ele><time>2022-11-10T16:47:24.0000000+00:00</time></trkpt><trkpt lat="39.37177012" lon="-0.3864303"><ele>-1.4</ele><time>2022-11-10T16:47:25.0000000+00:00</time></trkpt><trkpt lat="39.37177012" lon="-0.3864303"><ele>-1.4</ele><time>2022-11-10T16:47:26.0000000+00:00</time></trkpt><trkpt lat="39.37176819" lon="-0.38642879"><ele>-1.4</ele><time>2022-11-10T16:47:27.0000000+00:00</time></trkpt><trkpt lat="39.37176777" lon="-0.38642485"><ele>-1.4</ele><time>2022-11-10T16:47:28.0000000+00:00</time></trkpt><trkpt lat="39.37177255" lon="-0.3864256"><ele>-1.4</ele><time>2022-11-10T16:47:29.0000000+00:00</time></trkpt><trkpt lat="39.3717749" lon="-0.3864246"><ele>-1.4</ele><time>2022-11-10T16:47:30.0000000+00:00</time></trkpt><trkpt lat="39.3717749" lon="-0.3864246"><ele>-1.4</ele><time>2022-11-10T16:47:31.0000000+00:00</time></trkpt><trkpt lat="39.3717749" lon="-0.3864246"><ele>-1.4</ele><time>2022-11-10T16:47:32.0000000+00:00</time></trkpt><trkpt lat="39.3717749" lon="-0.3864246"><ele>-1.4</ele><time>2022-11-10T16:47:33.0000000+00:00</time></trkpt><trkpt lat="39.3717749" lon="-0.3864246"><ele>-1.4</ele><time>2022-11-10T16:47:34.0000000+00:00</time></trkpt><trkpt lat="39.3717749" lon="-0.3864246"><ele>-1.4</ele><time>2022-11-10T16:47:35.0000000+00:00</time></trkpt><trkpt lat="39.3717749" lon="-0.3864246"><ele>-1.4</ele><time>2022-11-10T16:47:36.0000000+00:00</time></trkpt><trkpt lat="39.3717749" lon="-0.3864246"><ele>-1.4</ele><time>2022-11-10T16:47:37.0000000+00:00</time></trkpt><trkpt lat="39.3717749" lon="-0.3864246"><ele>-1.4</ele><time>2022-11-10T16:47:38.0000000+00:00</time></trkpt><trkpt lat="39.3717749" lon="-0.3864246"><ele>-1.4</ele><time>2022-11-10T16:47:39.0000000+00:00</time></trkpt><trkpt lat="39.3717749" lon="-0.3864246"><ele>-1.4</ele><time>2022-11-10T16:47:40.0000000+00:00</time></trkpt><trkpt lat="39.3717749" lon="-0.3864246"><ele>-1.4</ele><time>2022-11-10T16:47:41.0000000+00:00</time></trkpt><trkpt lat="39.3717749" lon="-0.3864246"><ele>-1.4</ele><time>2022-11-10T16:47:42.0000000+00:00</time></trkpt><trkpt lat="39.3717749" lon="-0.3864246"><ele>-1.4</ele><time>2022-11-10T16:47:43.0000000+00:00</time></trkpt><trkpt lat="39.3717749" lon="-0.3864246"><ele>-1.4</ele><time>2022-11-10T16:47:44.0000000+00:00</time></trkpt><trkpt lat="39.3717749" lon="-0.3864246"><ele>-1.4</ele><time>2022-11-10T16:47:45.0000000+00:00</time></trkpt><trkpt lat="39.3717749" lon="-0.3864246"><ele>-1.4</ele><time>2022-11-10T16:47:46.0000000+00:00</time></trkpt><trkpt lat="39.3717749" lon="-0.3864246"><ele>-1.4</ele><time>2022-11-10T16:47:47.0000000+00:00</time></trkpt><trkpt lat="39.3717749" lon="-0.3864246"><ele>-1.4</ele><time>2022-11-10T16:47:48.0000000+00:00</time></trkpt><trkpt lat="39.3717749" lon="-0.3864246"><ele>-1.4</ele><time>2022-11-10T16:47:49.0000000+00:00</time></trkpt><trkpt lat="39.3717749" lon="-0.3864246"><ele>-1.4</ele><time>2022-11-10T16:47:50.0000000+00:00</time></trkpt><trkpt lat="39.3717749" lon="-0.3864246"><ele>-1.4</ele><time>2022-11-10T16:47:51.0000000+00:00</time></trkpt><trkpt lat="39.3717749" lon="-0.3864246"><ele>-1.4</ele><time>2022-11-10T16:47:52.0000000+00:00</time></trkpt><trkpt lat="39.3717749" lon="-0.3864246"><ele>-1.4</ele><time>2022-11-10T16:47:53.0000000+00:00</time></trkpt><trkpt lat="39.3717749" lon="-0.3864246"><ele>-1.4</ele><time>2022-11-10T16:47:54.0000000+00:00</time></trkpt><trkpt lat="39.3717749" lon="-0.3864246"><ele>-1.4</ele><time>2022-11-10T16:47:55.0000000+00:00</time></trkpt><trkpt lat="39.3717749" lon="-0.3864246"><ele>-1.4</ele><time>2022-11-10T16:47:56.0000000+00:00</time></trkpt><trkpt lat="39.3717749" lon="-0.3864246"><ele>-1.4</ele><time>2022-11-10T16:47:57.0000000+00:00</time></trkpt><trkpt lat="39.3717749" lon="-0.3864246"><ele>-1.4</ele><time>2022-11-10T16:47:58.0000000+00:00</time></trkpt><trkpt lat="39.3717749" lon="-0.3864246"><ele>-1.4</ele><time>2022-11-10T16:47:59.0000000+00:00</time></trkpt><trkpt lat="39.3717749" lon="-0.3864246"><ele>-1.4</ele><time>2022-11-10T16:48:00.0000000+00:00</time></trkpt><trkpt lat="39.3717749" lon="-0.3864246"><ele>-1.4</ele><time>2022-11-10T16:48:01.0000000+00:00</time></trkpt><trkpt lat="39.3717749" lon="-0.3864246"><ele>-1.4</ele><time>2022-11-10T16:48:02.0000000+00:00</time></trkpt><trkpt lat="39.3717749" lon="-0.3864246"><ele>-1.4</ele><time>2022-11-10T16:48:03.0000000+00:00</time></trkpt><trkpt lat="39.3717749" lon="-0.3864246"><ele>-1.4</ele><time>2022-11-10T16:48:04.0000000+00:00</time></trkpt><trkpt lat="39.3717749" lon="-0.3864246"><ele>-1.4</ele><time>2022-11-10T16:48:05.0000000+00:00</time></trkpt><trkpt lat="39.3717749" lon="-0.3864246"><ele>-1.4</ele><time>2022-11-10T16:48:06.0000000+00:00</time></trkpt><trkpt lat="39.3717749" lon="-0.3864246"><ele>-1.4</ele><time>2022-11-10T16:48:07.0000000+00:00</time></trkpt><trkpt lat="39.3717749" lon="-0.3864246"><ele>-1.4</ele><time>2022-11-10T16:48:08.0000000+00:00</time></trkpt><trkpt lat="39.3717749" lon="-0.3864246"><ele>-1.4</ele><time>2022-11-10T16:48:09.0000000+00:00</time></trkpt><trkpt lat="39.3717749" lon="-0.3864246"><ele>-1.4</ele><time>2022-11-10T16:48:10.0000000+00:00</time></trkpt><trkpt lat="39.3717749" lon="-0.3864246"><ele>-1.4</ele><time>2022-11-10T16:48:11.0000000+00:00</time></trkpt><trkpt lat="39.3717749" lon="-0.3864246"><ele>-1.4</ele><time>2022-11-10T16:48:12.0000000+00:00</time></trkpt><trkpt lat="39.3717749" lon="-0.3864246"><ele>-1.4</ele><time>2022-11-10T16:48:13.0000000+00:00</time></trkpt><trkpt lat="39.3717749" lon="-0.3864246"><ele>-1.4</ele><time>2022-11-10T16:48:14.0000000+00:00</time></trkpt><trkpt lat="39.3717749" lon="-0.3864246"><ele>-1.4</ele><time>2022-11-10T16:48:15.0000000+00:00</time></trkpt><trkpt lat="39.3717749" lon="-0.3864246"><ele>-1.4</ele><time>2022-11-10T16:48:16.0000000+00:00</time></trkpt><trkpt lat="39.3717749" lon="-0.3864246"><ele>-1.4</ele><time>2022-11-10T16:48:17.0000000+00:00</time></trkpt><trkpt lat="39.3717749" lon="-0.3864246"><ele>-1.4</ele><time>2022-11-10T16:48:18.0000000+00:00</time></trkpt><trkpt lat="39.3717749" lon="-0.3864246"><ele>-1.4</ele><time>2022-11-10T16:48:19.0000000+00:00</time></trkpt><trkpt lat="39.3717749" lon="-0.3864246"><ele>-1.4</ele><time>2022-11-10T16:48:20.0000000+00:00</time></trkpt><trkpt lat="39.3717749" lon="-0.3864246"><ele>-1.4</ele><time>2022-11-10T16:48:21.0000000+00:00</time></trkpt><trkpt lat="39.3717749" lon="-0.3864246"><ele>-1.4</ele><time>2022-11-10T16:48:22.0000000+00:00</time></trkpt><trkpt lat="39.3717749" lon="-0.3864246"><ele>-1.4</ele><time>2022-11-10T16:48:23.0000000+00:00</time></trkpt><trkpt lat="39.3717749" lon="-0.3864246"><ele>-1.4</ele><time>2022-11-10T16:48:24.0000000+00:00</time></trkpt><trkpt lat="39.3717749" lon="-0.3864246"><ele>-1.4</ele><time>2022-11-10T16:48:25.0000000+00:00</time></trkpt><trkpt lat="39.3717749" lon="-0.3864246"><ele>-1.4</ele><time>2022-11-10T16:48:26.0000000+00:00</time></trkpt><trkpt lat="39.3717749" lon="-0.3864246"><ele>-1.4</ele><time>2022-11-10T16:48:27.0000000+00:00</time></trkpt><trkpt lat="39.3717749" lon="-0.3864246"><ele>-1.4</ele><time>2022-11-10T16:48:28.0000000+00:00</time></trkpt><trkpt lat="39.3717749" lon="-0.3864246"><ele>-1.4</ele><time>2022-11-10T16:48:29.0000000+00:00</time></trkpt><trkpt lat="39.3717749" lon="-0.3864246"><ele>-1.4</ele><time>2022-11-10T16:48:30.0000000+00:00</time></trkpt><trkpt lat="39.3717749" lon="-0.3864246"><ele>-1.4</ele><time>2022-11-10T16:48:31.0000000+00:00</time></trkpt><trkpt lat="39.3717749" lon="-0.3864246"><ele>-1.4</ele><time>2022-11-10T16:48:32.0000000+00:00</time></trkpt><trkpt lat="39.3717749" lon="-0.3864246"><ele>-1.4</ele><time>2022-11-10T16:48:33.0000000+00:00</time></trkpt><trkpt lat="39.3717749" lon="-0.3864246"><ele>-1.4</ele><time>2022-11-10T16:48:34.0000000+00:00</time></trkpt><trkpt lat="39.3717749" lon="-0.3864246"><ele>-1.4</ele><time>2022-11-10T16:48:35.0000000+00:00</time></trkpt><trkpt lat="39.3717749" lon="-0.3864246"><ele>-1.4</ele><time>2022-11-10T16:48:36.0000000+00:00</time></trkpt><trkpt lat="39.37177666" lon="-0.38642518"><ele>-1.4</ele><time>2022-11-10T16:48:37.0000000+00:00</time></trkpt><trkpt lat="39.37177925" lon="-0.38642527"><ele>-1.4</ele><time>2022-11-10T16:48:38.0000000+00:00</time></trkpt><trkpt lat="39.37177925" lon="-0.38642527"><ele>-1.4</ele><time>2022-11-10T16:48:39.0000000+00:00</time></trkpt><trkpt lat="39.37177925" lon="-0.38642527"><ele>-1.4</ele><time>2022-11-10T16:48:40.0000000+00:00</time></trkpt><trkpt lat="39.37177925" lon="-0.38642527"><ele>-1.4</ele><time>2022-11-10T16:48:41.0000000+00:00</time></trkpt><trkpt lat="39.37177925" lon="-0.38642527"><ele>-1.4</ele><time>2022-11-10T16:48:42.0000000+00:00</time></trkpt><trkpt lat="39.37177925" lon="-0.38642527"><ele>-1.4</ele><time>2022-11-10T16:48:43.0000000+00:00</time></trkpt><trkpt lat="39.37177925" lon="-0.38642527"><ele>-1.4</ele><time>2022-11-10T16:48:44.0000000+00:00</time></trkpt><trkpt lat="39.37177925" lon="-0.38642527"><ele>-1.4</ele><time>2022-11-10T16:48:45.0000000+00:00</time></trkpt><trkpt lat="39.37177925" lon="-0.38642527"><ele>-1.4</ele><time>2022-11-10T16:48:46.0000000+00:00</time></trkpt><trkpt lat="39.37177925" lon="-0.38642527"><ele>-1.4</ele><time>2022-11-10T16:48:47.0000000+00:00</time></trkpt><trkpt lat="39.37177925" lon="-0.38642527"><ele>-1.4</ele><time>2022-11-10T16:48:48.0000000+00:00</time></trkpt><trkpt lat="39.37177925" lon="-0.38642527"><ele>-1.4</ele><time>2022-11-10T16:48:49.0000000+00:00</time></trkpt><trkpt lat="39.37177925" lon="-0.38642527"><ele>-1.4</ele><time>2022-11-10T16:48:50.0000000+00:00</time></trkpt><trkpt lat="39.37177925" lon="-0.38642527"><ele>-1.4</ele><time>2022-11-10T16:48:51.0000000+00:00</time></trkpt><trkpt lat="39.37177925" lon="-0.38642527"><ele>-1.4</ele><time>2022-11-10T16:48:52.0000000+00:00</time></trkpt><trkpt lat="39.37177925" lon="-0.38642527"><ele>-1.4</ele><time>2022-11-10T16:48:53.0000000+00:00</time></trkpt><trkpt lat="39.37177925" lon="-0.38642527"><ele>-1.4</ele><time>2022-11-10T16:48:54.0000000+00:00</time></trkpt><trkpt lat="39.37177925" lon="-0.38642527"><ele>-1.4</ele><time>2022-11-10T16:48:55.0000000+00:00</time></trkpt><trkpt lat="39.37177925" lon="-0.38642527"><ele>-1.4</ele><time>2022-11-10T16:48:56.0000000+00:00</time></trkpt><trkpt lat="39.37177925" lon="-0.38642527"><ele>-1.4</ele><time>2022-11-10T16:48:57.0000000+00:00</time></trkpt><trkpt lat="39.37177925" lon="-0.38642527"><ele>-1.4</ele><time>2022-11-10T16:48:58.0000000+00:00</time></trkpt><trkpt lat="39.37177925" lon="-0.38642527"><ele>-1.4</ele><time>2022-11-10T16:48:59.0000000+00:00</time></trkpt><trkpt lat="39.37177925" lon="-0.38642527"><ele>-1.4</ele><time>2022-11-10T16:49:00.0000000+00:00</time></trkpt><trkpt lat="39.37177925" lon="-0.38642527"><ele>-1.4</ele><time>2022-11-10T16:49:01.0000000+00:00</time></trkpt><trkpt lat="39.37177925" lon="-0.38642527"><ele>-1.4</ele><time>2022-11-10T16:49:02.0000000+00:00</time></trkpt><trkpt lat="39.37177925" lon="-0.38642527"><ele>-1.4</ele><time>2022-11-10T16:49:03.0000000+00:00</time></trkpt><trkpt lat="39.37177925" lon="-0.38642527"><ele>-1.4</ele><time>2022-11-10T16:49:04.0000000+00:00</time></trkpt><trkpt lat="39.37177925" lon="-0.38642527"><ele>-1.4</ele><time>2022-11-10T16:49:05.0000000+00:00</time></trkpt><trkpt lat="39.37177925" lon="-0.38642527"><ele>-1.4</ele><time>2022-11-10T16:49:06.0000000+00:00</time></trkpt><trkpt lat="39.37177925" lon="-0.38642527"><ele>-1.4</ele><time>2022-11-10T16:49:07.0000000+00:00</time></trkpt><trkpt lat="39.37177925" lon="-0.38642527"><ele>-1.4</ele><time>2022-11-10T16:49:08.0000000+00:00</time></trkpt><trkpt lat="39.37177925" lon="-0.38642527"><ele>-1.4</ele><time>2022-11-10T16:49:09.0000000+00:00</time></trkpt><trkpt lat="39.37177925" lon="-0.38642527"><ele>-1.4</ele><time>2022-11-10T16:49:10.0000000+00:00</time></trkpt><trkpt lat="39.37177925" lon="-0.38642527"><ele>-1.4</ele><time>2022-11-10T16:49:11.0000000+00:00</time></trkpt><trkpt lat="39.37177925" lon="-0.38642527"><ele>-1.4</ele><time>2022-11-10T16:49:12.0000000+00:00</time></trkpt><trkpt lat="39.37177925" lon="-0.38642527"><ele>-1.4</ele><time>2022-11-10T16:49:13.0000000+00:00</time></trkpt><trkpt lat="39.37177925" lon="-0.38642527"><ele>-1.4</ele><time>2022-11-10T16:49:14.0000000+00:00</time></trkpt><trkpt lat="39.37177925" lon="-0.38642527"><ele>-1.4</ele><time>2022-11-10T16:49:15.0000000+00:00</time></trkpt><trkpt lat="39.37177925" lon="-0.38642527"><ele>-1.4</ele><time>2022-11-10T16:49:16.0000000+00:00</time></trkpt><trkpt lat="39.37177925" lon="-0.38642527"><ele>-1.4</ele><time>2022-11-10T16:49:17.0000000+00:00</time></trkpt><trkpt lat="39.37177925" lon="-0.38642527"><ele>-1.4</ele><time>2022-11-10T16:49:18.0000000+00:00</time></trkpt><trkpt lat="39.37177925" lon="-0.38642527"><ele>-1.4</ele><time>2022-11-10T16:49:19.0000000+00:00</time></trkpt><trkpt lat="39.37177925" lon="-0.38642527"><ele>-1.4</ele><time>2022-11-10T16:49:20.0000000+00:00</time></trkpt><trkpt lat="39.37177925" lon="-0.38642527"><ele>-1.4</ele><time>2022-11-10T16:49:21.0000000+00:00</time></trkpt><trkpt lat="39.37177925" lon="-0.38642527"><ele>-1.4</ele><time>2022-11-10T16:49:22.0000000+00:00</time></trkpt><trkpt lat="39.37178177" lon="-0.38642359"><ele>-1.4</ele><time>2022-11-10T16:49:23.0000000+00:00</time></trkpt><trkpt lat="39.37177942" lon="-0.38642602"><ele>-1.4</ele><time>2022-11-10T16:49:24.0000000+00:00</time></trkpt><trkpt lat="39.37177423" lon="-0.38642719"><ele>-1.4</ele><time>2022-11-10T16:49:25.0000000+00:00</time></trkpt><trkpt lat="39.37177104" lon="-0.38642745"><ele>-1.4</ele><time>2022-11-10T16:49:26.0000000+00:00</time></trkpt><trkpt lat="39.37177104" lon="-0.38642745"><ele>-1.4</ele><time>2022-11-10T16:49:27.0000000+00:00</time></trkpt><trkpt lat="39.37177104" lon="-0.38642745"><ele>-1.4</ele><time>2022-11-10T16:49:28.0000000+00:00</time></trkpt><trkpt lat="39.37177104" lon="-0.38642745"><ele>-1.4</ele><time>2022-11-10T16:49:29.0000000+00:00</time></trkpt><trkpt lat="39.37177104" lon="-0.38642745"><ele>-1.4</ele><time>2022-11-10T16:49:30.0000000+00:00</time></trkpt><trkpt lat="39.37177104" lon="-0.38642745"><ele>-1.4</ele><time>2022-11-10T16:49:31.0000000+00:00</time></trkpt><trkpt lat="39.37177104" lon="-0.38642745"><ele>-1.4</ele><time>2022-11-10T16:49:32.0000000+00:00</time></trkpt><trkpt lat="39.37177104" lon="-0.38642745"><ele>-1.4</ele><time>2022-11-10T16:49:33.0000000+00:00</time></trkpt><trkpt lat="39.37177104" lon="-0.38642745"><ele>-1.4</ele><time>2022-11-10T16:49:34.0000000+00:00</time></trkpt><trkpt lat="39.37177104" lon="-0.38642745"><ele>-1.4</ele><time>2022-11-10T16:49:35.0000000+00:00</time></trkpt><trkpt lat="39.37177104" lon="-0.38642745"><ele>-1.4</ele><time>2022-11-10T16:49:36.0000000+00:00</time></trkpt><trkpt lat="39.37177104" lon="-0.38642745"><ele>-1.4</ele><time>2022-11-10T16:49:37.0000000+00:00</time></trkpt><trkpt lat="39.37177104" lon="-0.38642745"><ele>-1.4</ele><time>2022-11-10T16:49:38.0000000+00:00</time></trkpt><trkpt lat="39.37177104" lon="-0.38642745"><ele>-1.4</ele><time>2022-11-10T16:49:39.0000000+00:00</time></trkpt><trkpt lat="39.37177104" lon="-0.38642745"><ele>-1.4</ele><time>2022-11-10T16:49:40.0000000+00:00</time></trkpt><trkpt lat="39.37177104" lon="-0.38642745"><ele>-1.4</ele><time>2022-11-10T16:49:41.0000000+00:00</time></trkpt><trkpt lat="39.37177104" lon="-0.38642745"><ele>-1.4</ele><time>2022-11-10T16:49:42.0000000+00:00</time></trkpt><trkpt lat="39.37177104" lon="-0.38642745"><ele>-1.4</ele><time>2022-11-10T16:49:43.0000000+00:00</time></trkpt><trkpt lat="39.37177104" lon="-0.38642745"><ele>-1.4</ele><time>2022-11-10T16:49:44.0000000+00:00</time></trkpt><trkpt lat="39.37177104" lon="-0.38642745"><ele>-1.4</ele><time>2022-11-10T16:49:45.0000000+00:00</time></trkpt><trkpt lat="39.37177104" lon="-0.38642745"><ele>-1.4</ele><time>2022-11-10T16:49:46.0000000+00:00</time></trkpt><trkpt lat="39.37177104" lon="-0.38642745"><ele>-1.4</ele><time>2022-11-10T16:49:47.0000000+00:00</time></trkpt><trkpt lat="39.37177104" lon="-0.38642745"><ele>-1.4</ele><time>2022-11-10T16:49:48.0000000+00:00</time></trkpt><trkpt lat="39.37177104" lon="-0.38642745"><ele>-1.4</ele><time>2022-11-10T16:49:49.0000000+00:00</time></trkpt><trkpt lat="39.37177104" lon="-0.38642745"><ele>-1.4</ele><time>2022-11-10T16:49:50.0000000+00:00</time></trkpt><trkpt lat="39.37177104" lon="-0.38642745"><ele>-1.4</ele><time>2022-11-10T16:49:51.0000000+00:00</time></trkpt><trkpt lat="39.37177104" lon="-0.38642745"><ele>-1.4</ele><time>2022-11-10T16:49:52.0000000+00:00</time></trkpt><trkpt lat="39.37177104" lon="-0.38642745"><ele>-1.4</ele><time>2022-11-10T16:49:53.0000000+00:00</time></trkpt><trkpt lat="39.37177104" lon="-0.38642745"><ele>-1.4</ele><time>2022-11-10T16:49:54.0000000+00:00</time></trkpt><trkpt lat="39.37177104" lon="-0.38642745"><ele>-1.4</ele><time>2022-11-10T16:49:55.0000000+00:00</time></trkpt><trkpt lat="39.37177104" lon="-0.38642745"><ele>-1.4</ele><time>2022-11-10T16:49:56.0000000+00:00</time></trkpt><trkpt lat="39.37177104" lon="-0.38642745"><ele>-1.4</ele><time>2022-11-10T16:49:57.0000000+00:00</time></trkpt><trkpt lat="39.37177104" lon="-0.38642745"><ele>-1.4</ele><time>2022-11-10T16:49:58.0000000+00:00</time></trkpt><trkpt lat="39.37177104" lon="-0.38642745"><ele>-1.4</ele><time>2022-11-10T16:49:59.0000000+00:00</time></trkpt><trkpt lat="39.37177104" lon="-0.38642745"><ele>-1.4</ele><time>2022-11-10T16:50:00.0000000+00:00</time></trkpt><trkpt lat="39.37177104" lon="-0.38642745"><ele>-1.4</ele><time>2022-11-10T16:50:01.0000000+00:00</time></trkpt><trkpt lat="39.37177104" lon="-0.38642745"><ele>-1.4</ele><time>2022-11-10T16:50:02.0000000+00:00</time></trkpt><trkpt lat="39.37177104" lon="-0.38642745"><ele>-1.4</ele><time>2022-11-10T16:50:03.0000000+00:00</time></trkpt><trkpt lat="39.37177104" lon="-0.38642745"><ele>-1.4</ele><time>2022-11-10T16:50:04.0000000+00:00</time></trkpt><trkpt lat="39.37177104" lon="-0.38642745"><ele>-1.4</ele><time>2022-11-10T16:50:05.0000000+00:00</time></trkpt><trkpt lat="39.37177104" lon="-0.38642745"><ele>-1.4</ele><time>2022-11-10T16:50:06.0000000+00:00</time></trkpt><trkpt lat="39.37177104" lon="-0.38642745"><ele>-1.4</ele><time>2022-11-10T16:50:07.0000000+00:00</time></trkpt><trkpt lat="39.37177104" lon="-0.38642745"><ele>-1.4</ele><time>2022-11-10T16:50:08.0000000+00:00</time></trkpt><trkpt lat="39.37177104" lon="-0.38642745"><ele>-1.4</ele><time>2022-11-10T16:50:09.0000000+00:00</time></trkpt><trkpt lat="39.37177104" lon="-0.38642745"><ele>-1.4</ele><time>2022-11-10T16:50:10.0000000+00:00</time></trkpt><trkpt lat="39.37177104" lon="-0.38642745"><ele>-1.4</ele><time>2022-11-10T16:50:11.0000000+00:00</time></trkpt><trkpt lat="39.37177104" lon="-0.38642745"><ele>-1.4</ele><time>2022-11-10T16:50:12.0000000+00:00</time></trkpt><trkpt lat="39.37177104" lon="-0.38642745"><ele>-1.4</ele><time>2022-11-10T16:50:13.0000000+00:00</time></trkpt><trkpt lat="39.37177104" lon="-0.38642745"><ele>-1.4</ele><time>2022-11-10T16:50:14.0000000+00:00</time></trkpt><trkpt lat="39.37177104" lon="-0.38642745"><ele>-1.4</ele><time>2022-11-10T16:50:15.0000000+00:00</time></trkpt><trkpt lat="39.37177104" lon="-0.38642745"><ele>-1.4</ele><time>2022-11-10T16:50:16.0000000+00:00</time></trkpt><trkpt lat="39.37177104" lon="-0.38642745"><ele>-1.4</ele><time>2022-11-10T16:50:17.0000000+00:00</time></trkpt><trkpt lat="39.37177104" lon="-0.38642745"><ele>-1.4</ele><time>2022-11-10T16:50:18.0000000+00:00</time></trkpt><trkpt lat="39.37177104" lon="-0.38642745"><ele>-1.4</ele><time>2022-11-10T16:50:19.0000000+00:00</time></trkpt><trkpt lat="39.37177104" lon="-0.38642745"><ele>-1.4</ele><time>2022-11-10T16:50:20.0000000+00:00</time></trkpt><trkpt lat="39.37177104" lon="-0.38642745"><ele>-1.4</ele><time>2022-11-10T16:50:21.0000000+00:00</time></trkpt><trkpt lat="39.37177104" lon="-0.38642745"><ele>-1.4</ele><time>2022-11-10T16:50:22.0000000+00:00</time></trkpt><trkpt lat="39.37177104" lon="-0.38642745"><ele>-1.4</ele><time>2022-11-10T16:50:23.0000000+00:00</time></trkpt><trkpt lat="39.37177104" lon="-0.38642745"><ele>-1.4</ele><time>2022-11-10T16:50:24.0000000+00:00</time></trkpt><trkpt lat="39.37177104" lon="-0.38642745"><ele>-1.4</ele><time>2022-11-10T16:50:25.0000000+00:00</time></trkpt><trkpt lat="39.37177104" lon="-0.38642745"><ele>-1.4</ele><time>2022-11-10T16:50:26.0000000+00:00</time></trkpt><trkpt lat="39.37177104" lon="-0.38642745"><ele>-1.4</ele><time>2022-11-10T16:50:27.0000000+00:00</time></trkpt><trkpt lat="39.37177104" lon="-0.38642745"><ele>-1.4</ele><time>2022-11-10T16:50:28.0000000+00:00</time></trkpt><trkpt lat="39.37177104" lon="-0.38642745"><ele>-1.4</ele><time>2022-11-10T16:50:29.0000000+00:00</time></trkpt><trkpt lat="39.37177104" lon="-0.38642745"><ele>-1.4</ele><time>2022-11-10T16:50:30.0000000+00:00</time></trkpt><trkpt lat="39.37177104" lon="-0.38642745"><ele>-1.4</ele><time>2022-11-10T16:50:31.0000000+00:00</time></trkpt><trkpt lat="39.37177104" lon="-0.38642745"><ele>-1.4</ele><time>2022-11-10T16:50:32.0000000+00:00</time></trkpt><trkpt lat="39.37177104" lon="-0.38642745"><ele>-1.4</ele><time>2022-11-10T16:50:33.0000000+00:00</time></trkpt><trkpt lat="39.37177104" lon="-0.38642745"><ele>-1.4</ele><time>2022-11-10T16:50:34.0000000+00:00</time></trkpt><trkpt lat="39.37177104" lon="-0.38642745"><ele>-1.4</ele><time>2022-11-10T16:50:35.0000000+00:00</time></trkpt><trkpt lat="39.37177104" lon="-0.38642745"><ele>-1.4</ele><time>2022-11-10T16:50:36.0000000+00:00</time></trkpt><trkpt lat="39.37177104" lon="-0.38642745"><ele>-1.4</ele><time>2022-11-10T16:50:37.0000000+00:00</time></trkpt><trkpt lat="39.37177104" lon="-0.38642745"><ele>-1.4</ele><time>2022-11-10T16:50:38.0000000+00:00</time></trkpt><trkpt lat="39.37177104" lon="-0.38642745"><ele>-1.4</ele><time>2022-11-10T16:50:39.0000000+00:00</time></trkpt><trkpt lat="39.37177104" lon="-0.38642745"><ele>-1.4</ele><time>2022-11-10T16:50:40.0000000+00:00</time></trkpt><trkpt lat="39.37177104" lon="-0.38642745"><ele>-1.4</ele><time>2022-11-10T16:50:41.0000000+00:00</time></trkpt><trkpt lat="39.37177104" lon="-0.38642745"><ele>-1.4</ele><time>2022-11-10T16:50:42.0000000+00:00</time></trkpt><trkpt lat="39.37177104" lon="-0.38642745"><ele>-1.4</ele><time>2022-11-10T16:50:43.0000000+00:00</time></trkpt><trkpt lat="39.37177104" lon="-0.38642745"><ele>-1.4</ele><time>2022-11-10T16:50:44.0000000+00:00</time></trkpt><trkpt lat="39.37177104" lon="-0.38642745"><ele>-1.4</ele><time>2022-11-10T16:50:45.0000000+00:00</time></trkpt><trkpt lat="39.37177104" lon="-0.38642745"><ele>-1.4</ele><time>2022-11-10T16:50:46.0000000+00:00</time></trkpt><trkpt lat="39.37178244" lon="-0.3864225"><ele>-1.4</ele><time>2022-11-10T16:50:47.0000000+00:00</time></trkpt><trkpt lat="39.37179082" lon="-0.38643331"><ele>-1.4</ele><time>2022-11-10T16:50:48.0000000+00:00</time></trkpt><trkpt lat="39.37179904" lon="-0.38645167"><ele>-1.4</ele><time>2022-11-10T16:50:49.0000000+00:00</time></trkpt><trkpt lat="39.37180566" lon="-0.38647506"><ele>-1.4</ele><time>2022-11-10T16:50:50.0000000+00:00</time></trkpt><trkpt lat="39.37181203" lon="-0.38650121"><ele>-1.4</ele><time>2022-11-10T16:50:51.0000000+00:00</time></trkpt><trkpt lat="39.37181999" lon="-0.38653004"><ele>-1.4</ele><time>2022-11-10T16:50:52.0000000+00:00</time></trkpt><trkpt lat="39.37183407" lon="-0.38656374"><ele>-1.8</ele><time>2022-11-10T16:50:53.0000000+00:00</time></trkpt><trkpt lat="39.37184681" lon="-0.38659995"><ele>-2.2</ele><time>2022-11-10T16:50:54.0000000+00:00</time></trkpt><trkpt lat="39.37186064" lon="-0.38663498"><ele>-2.4</ele><time>2022-11-10T16:50:55.0000000+00:00</time></trkpt><trkpt lat="39.37187799" lon="-0.3866722"><ele>-2.4</ele><time>2022-11-10T16:50:56.0000000+00:00</time></trkpt><trkpt lat="39.37189383" lon="-0.38670916"><ele>-2.4</ele><time>2022-11-10T16:50:57.0000000+00:00</time></trkpt><trkpt lat="39.37190943" lon="-0.38675576"><ele>-2.4</ele><time>2022-11-10T16:50:58.0000000+00:00</time></trkpt><trkpt lat="39.37191873" lon="-0.38678996"><ele>-2.6</ele><time>2022-11-10T16:50:59.0000000+00:00</time></trkpt><trkpt lat="39.37192837" lon="-0.3868343"><ele>-2.4</ele><time>2022-11-10T16:51:00.0000000+00:00</time></trkpt><trkpt lat="39.37194002" lon="-0.38687973"><ele>-2.6</ele><time>2022-11-10T16:51:01.0000000+00:00</time></trkpt><trkpt lat="39.37195393" lon="-0.38692583"><ele>-2.6</ele><time>2022-11-10T16:51:02.0000000+00:00</time></trkpt><trkpt lat="39.3719686" lon="-0.38697302"><ele>-2.6</ele><time>2022-11-10T16:51:03.0000000+00:00</time></trkpt><trkpt lat="39.37198285" lon="-0.38703069"><ele>-2.6</ele><time>2022-11-10T16:51:04.0000000+00:00</time></trkpt><trkpt lat="39.37198972" lon="-0.38706916"><ele>-2.6</ele><time>2022-11-10T16:51:05.0000000+00:00</time></trkpt><trkpt lat="39.37199945" lon="-0.38711811"><ele>-2.6</ele><time>2022-11-10T16:51:06.0000000+00:00</time></trkpt><trkpt lat="39.37201395" lon="-0.38717763"><ele>-2.6</ele><time>2022-11-10T16:51:07.0000000+00:00</time></trkpt><trkpt lat="39.37202132" lon="-0.38721954"><ele>-2.6</ele><time>2022-11-10T16:51:08.0000000+00:00</time></trkpt><trkpt lat="39.37203205" lon="-0.38727142"><ele>-2.6</ele><time>2022-11-10T16:51:09.0000000+00:00</time></trkpt><trkpt lat="39.37204379" lon="-0.38732322"><ele>-2.6</ele><time>2022-11-10T16:51:10.0000000+00:00</time></trkpt><trkpt lat="39.37205611" lon="-0.38737385"><ele>-2.6</ele><time>2022-11-10T16:51:11.0000000+00:00</time></trkpt><trkpt lat="39.37206944" lon="-0.38742137"><ele>-2.4</ele><time>2022-11-10T16:51:12.0000000+00:00</time></trkpt><trkpt lat="39.37208234" lon="-0.38746722"><ele>-2.4</ele><time>2022-11-10T16:51:13.0000000+00:00</time></trkpt><trkpt lat="39.37209433" lon="-0.38751776"><ele>-2.4</ele><time>2022-11-10T16:51:14.0000000+00:00</time></trkpt><trkpt lat="39.37210204" lon="-0.38756914"><ele>-2.4</ele><time>2022-11-10T16:51:15.0000000+00:00</time></trkpt><trkpt lat="39.37210816" lon="-0.38762027"><ele>-2.4</ele><time>2022-11-10T16:51:16.0000000+00:00</time></trkpt><trkpt lat="39.3721183" lon="-0.38767048"><ele>-2.4</ele><time>2022-11-10T16:51:17.0000000+00:00</time></trkpt><trkpt lat="39.37212895" lon="-0.38772019"><ele>-2.4</ele><time>2022-11-10T16:51:18.0000000+00:00</time></trkpt><trkpt lat="39.37214085" lon="-0.38777936"><ele>-2.4</ele><time>2022-11-10T16:51:19.0000000+00:00</time></trkpt><trkpt lat="39.37214848" lon="-0.38782052"><ele>-2.4</ele><time>2022-11-10T16:51:20.0000000+00:00</time></trkpt><trkpt lat="39.37215661" lon="-0.38787307"><ele>-2.4</ele><time>2022-11-10T16:51:21.0000000+00:00</time></trkpt><trkpt lat="39.3721634" lon="-0.38792923"><ele>-2.4</ele><time>2022-11-10T16:51:22.0000000+00:00</time></trkpt><trkpt lat="39.37217128" lon="-0.3879864"><ele>-2.4</ele><time>2022-11-10T16:51:23.0000000+00:00</time></trkpt><trkpt lat="39.37218376" lon="-0.38804591"><ele>-2.4</ele><time>2022-11-10T16:51:24.0000000+00:00</time></trkpt><trkpt lat="39.37219642" lon="-0.38810081"><ele>-2.4</ele><time>2022-11-10T16:51:25.0000000+00:00</time></trkpt><trkpt lat="39.3722121" lon="-0.38816887"><ele>-2.4</ele><time>2022-11-10T16:51:26.0000000+00:00</time></trkpt><trkpt lat="39.37222408" lon="-0.38821321"><ele>-2.4</ele><time>2022-11-10T16:51:27.0000000+00:00</time></trkpt><trkpt lat="39.37224076" lon="-0.38826736"><ele>-2.4</ele><time>2022-11-10T16:51:28.0000000+00:00</time></trkpt><trkpt lat="39.37225543" lon="-0.38832201"><ele>-2.4</ele><time>2022-11-10T16:51:29.0000000+00:00</time></trkpt><trkpt lat="39.37226708" lon="-0.38837842"><ele>-2.2</ele><time>2022-11-10T16:51:30.0000000+00:00</time></trkpt><trkpt lat="39.37228058" lon="-0.38843701"><ele>-2.0</ele><time>2022-11-10T16:51:31.0000000+00:00</time></trkpt><trkpt lat="39.37229667" lon="-0.38849442"><ele>-2.0</ele><time>2022-11-10T16:51:32.0000000+00:00</time></trkpt><trkpt lat="39.37231243" lon="-0.38855184"><ele>-2.0</ele><time>2022-11-10T16:51:33.0000000+00:00</time></trkpt><trkpt lat="39.37233246" lon="-0.38862107"><ele>-2.0</ele><time>2022-11-10T16:51:34.0000000+00:00</time></trkpt><trkpt lat="39.37234738" lon="-0.38866701"><ele>-2.0</ele><time>2022-11-10T16:51:35.0000000+00:00</time></trkpt><trkpt lat="39.37236649" lon="-0.38872643"><ele>-2.0</ele><time>2022-11-10T16:51:36.0000000+00:00</time></trkpt><trkpt lat="39.37238401" lon="-0.38878192"><ele>-2.2</ele><time>2022-11-10T16:51:37.0000000+00:00</time></trkpt><trkpt lat="39.37240354" lon="-0.38884554"><ele>-2.2</ele><time>2022-11-10T16:51:38.0000000+00:00</time></trkpt><trkpt lat="39.37241351" lon="-0.38888753"><ele>-2.2</ele><time>2022-11-10T16:51:39.0000000+00:00</time></trkpt><trkpt lat="39.37242776" lon="-0.38893992"><ele>-2.2</ele><time>2022-11-10T16:51:40.0000000+00:00</time></trkpt><trkpt lat="39.3724436" lon="-0.38899197"><ele>-2.2</ele><time>2022-11-10T16:51:41.0000000+00:00</time></trkpt><trkpt lat="39.37245894" lon="-0.38904662"><ele>-2.2</ele><time>2022-11-10T16:51:42.0000000+00:00</time></trkpt><trkpt lat="39.37247411" lon="-0.38910479"><ele>-2.2</ele><time>2022-11-10T16:51:43.0000000+00:00</time></trkpt><trkpt lat="39.37249247" lon="-0.38916146"><ele>-2.4</ele><time>2022-11-10T16:51:44.0000000+00:00</time></trkpt><trkpt lat="39.37250974" lon="-0.38921493"><ele>-2.4</ele><time>2022-11-10T16:51:45.0000000+00:00</time></trkpt><trkpt lat="39.37252625" lon="-0.38926765"><ele>-2.4</ele><time>2022-11-10T16:51:46.0000000+00:00</time></trkpt><trkpt lat="39.37254167" lon="-0.38933404"><ele>-2.4</ele><time>2022-11-10T16:51:47.0000000+00:00</time></trkpt><trkpt lat="39.3725493" lon="-0.38937519"><ele>-2.4</ele><time>2022-11-10T16:51:48.0000000+00:00</time></trkpt><trkpt lat="39.3725612" lon="-0.38943823"><ele>-2.2</ele><time>2022-11-10T16:51:49.0000000+00:00</time></trkpt><trkpt lat="39.37257025" lon="-0.38949371"><ele>-2.2</ele><time>2022-11-10T16:51:50.0000000+00:00</time></trkpt><trkpt lat="39.37257822" lon="-0.38954224"><ele>-2.2</ele><time>2022-11-10T16:51:51.0000000+00:00</time></trkpt><trkpt lat="39.3725902" lon="-0.38959723"><ele>-2.2</ele><time>2022-11-10T16:51:52.0000000+00:00</time></trkpt><trkpt lat="39.37260211" lon="-0.38965381"><ele>-2.2</ele><time>2022-11-10T16:51:53.0000000+00:00</time></trkpt><trkpt lat="39.3726161" lon="-0.38971206"><ele>-2.2</ele><time>2022-11-10T16:51:54.0000000+00:00</time></trkpt><trkpt lat="39.37263396" lon="-0.38978398"><ele>-2.2</ele><time>2022-11-10T16:51:55.0000000+00:00</time></trkpt><trkpt lat="39.37264879" lon="-0.38984156"><ele>-2.2</ele><time>2022-11-10T16:51:56.0000000+00:00</time></trkpt><trkpt lat="39.37266137" lon="-0.38988766"><ele>-2.2</ele><time>2022-11-10T16:51:57.0000000+00:00</time></trkpt><trkpt lat="39.37267813" lon="-0.38995841"><ele>-2.2</ele><time>2022-11-10T16:51:58.0000000+00:00</time></trkpt><trkpt lat="39.37269129" lon="-0.39000543"><ele>-2.2</ele><time>2022-11-10T16:51:59.0000000+00:00</time></trkpt><trkpt lat="39.37270897" lon="-0.39006217"><ele>-2.2</ele><time>2022-11-10T16:52:00.0000000+00:00</time></trkpt><trkpt lat="39.372728" lon="-0.39013409"><ele>-2.2</ele><time>2022-11-10T16:52:01.0000000+00:00</time></trkpt><trkpt lat="39.3727394" lon="-0.3901848"><ele>-2.2</ele><time>2022-11-10T16:52:02.0000000+00:00</time></trkpt><trkpt lat="39.37275214" lon="-0.39024859"><ele>-2.2</ele><time>2022-11-10T16:52:03.0000000+00:00</time></trkpt><trkpt lat="39.37276497" lon="-0.3903117"><ele>-2.0</ele><time>2022-11-10T16:52:04.0000000+00:00</time></trkpt><trkpt lat="39.37278089" lon="-0.39037289"><ele>-2.0</ele><time>2022-11-10T16:52:05.0000000+00:00</time></trkpt><trkpt lat="39.372799" lon="-0.39043483"><ele>-2.0</ele><time>2022-11-10T16:52:06.0000000+00:00</time></trkpt><trkpt lat="39.37281492" lon="-0.39049745"><ele>-2.2</ele><time>2022-11-10T16:52:07.0000000+00:00</time></trkpt><trkpt lat="39.37282909" lon="-0.39056081"><ele>-2.2</ele><time>2022-11-10T16:52:08.0000000+00:00</time></trkpt><trkpt lat="39.37284183" lon="-0.39062594"><ele>-2.2</ele><time>2022-11-10T16:52:09.0000000+00:00</time></trkpt><trkpt lat="39.37285532" lon="-0.3906914"><ele>-2.2</ele><time>2022-11-10T16:52:10.0000000+00:00</time></trkpt><trkpt lat="39.37287083" lon="-0.39075636"><ele>-2.2</ele><time>2022-11-10T16:52:11.0000000+00:00</time></trkpt><trkpt lat="39.37288583" lon="-0.39081956"><ele>-2.2</ele><time>2022-11-10T16:52:12.0000000+00:00</time></trkpt><trkpt lat="39.3729026" lon="-0.39089634"><ele>-2.2</ele><time>2022-11-10T16:52:13.0000000+00:00</time></trkpt><trkpt lat="39.37291408" lon="-0.39095912"><ele>-2.2</ele><time>2022-11-10T16:52:14.0000000+00:00</time></trkpt><trkpt lat="39.37292112" lon="-0.39100807"><ele>-2.2</ele><time>2022-11-10T16:52:15.0000000+00:00</time></trkpt><trkpt lat="39.37292959" lon="-0.39107068"><ele>-2.2</ele><time>2022-11-10T16:52:16.0000000+00:00</time></trkpt><trkpt lat="39.37294409" lon="-0.39114813"><ele>-2.2</ele><time>2022-11-10T16:52:17.0000000+00:00</time></trkpt><trkpt lat="39.37295415" lon="-0.39120044"><ele>-2.0</ele><time>2022-11-10T16:52:18.0000000+00:00</time></trkpt><trkpt lat="39.37296714" lon="-0.3912633"><ele>-2.0</ele><time>2022-11-10T16:52:19.0000000+00:00</time></trkpt><trkpt lat="39.37298365" lon="-0.39133916"><ele>-2.0</ele><time>2022-11-10T16:52:20.0000000+00:00</time></trkpt><trkpt lat="39.37299823" lon="-0.39138861"><ele>-2.0</ele><time>2022-11-10T16:52:21.0000000+00:00</time></trkpt><trkpt lat="39.37301827" lon="-0.39146547"><ele>-2.0</ele><time>2022-11-10T16:52:22.0000000+00:00</time></trkpt><trkpt lat="39.37303646" lon="-0.39153261"><ele>-1.8</ele><time>2022-11-10T16:52:23.0000000+00:00</time></trkpt><trkpt lat="39.37305171" lon="-0.39158517"><ele>-1.8</ele><time>2022-11-10T16:52:24.0000000+00:00</time></trkpt><trkpt lat="39.37307065" lon="-0.39164694"><ele>-1.8</ele><time>2022-11-10T16:52:25.0000000+00:00</time></trkpt><trkpt lat="39.37308976" lon="-0.39170587"><ele>-1.8</ele><time>2022-11-10T16:52:26.0000000+00:00</time></trkpt><trkpt lat="39.37310837" lon="-0.39176429"><ele>-2.0</ele><time>2022-11-10T16:52:27.0000000+00:00</time></trkpt><trkpt lat="39.37312597" lon="-0.39182539"><ele>-1.8</ele><time>2022-11-10T16:52:28.0000000+00:00</time></trkpt><trkpt lat="39.37314039" lon="-0.39188474"><ele>-1.8</ele><time>2022-11-10T16:52:29.0000000+00:00</time></trkpt><trkpt lat="39.37315875" lon="-0.39195732"><ele>-1.8</ele><time>2022-11-10T16:52:30.0000000+00:00</time></trkpt><trkpt lat="39.37316998" lon="-0.39200828"><ele>-1.8</ele><time>2022-11-10T16:52:31.0000000+00:00</time></trkpt><trkpt lat="39.37318423" lon="-0.39208171"><ele>-1.8</ele><time>2022-11-10T16:52:32.0000000+00:00</time></trkpt><trkpt lat="39.37319789" lon="-0.39214281"><ele>-1.8</ele><time>2022-11-10T16:52:33.0000000+00:00</time></trkpt><trkpt lat="39.37321591" lon="-0.39220467"><ele>-1.8</ele><time>2022-11-10T16:52:34.0000000+00:00</time></trkpt><trkpt lat="39.37322932" lon="-0.39225228"><ele>-1.8</ele><time>2022-11-10T16:52:35.0000000+00:00</time></trkpt><trkpt lat="39.37324466" lon="-0.39231557"><ele>-1.8</ele><time>2022-11-10T16:52:36.0000000+00:00</time></trkpt><trkpt lat="39.3732595" lon="-0.39237768"><ele>-1.8</ele><time>2022-11-10T16:52:37.0000000+00:00</time></trkpt><trkpt lat="39.37327266" lon="-0.3924418"><ele>-1.8</ele><time>2022-11-10T16:52:38.0000000+00:00</time></trkpt><trkpt lat="39.37328372" lon="-0.39251899"><ele>-1.8</ele><time>2022-11-10T16:52:39.0000000+00:00</time></trkpt><trkpt lat="39.37328816" lon="-0.39257272"><ele>-1.6</ele><time>2022-11-10T16:52:40.0000000+00:00</time></trkpt><trkpt lat="39.3732968" lon="-0.3926376"><ele>-1.6</ele><time>2022-11-10T16:52:41.0000000+00:00</time></trkpt><trkpt lat="39.37330887" lon="-0.39271689"><ele>-1.8</ele><time>2022-11-10T16:52:42.0000000+00:00</time></trkpt><trkpt lat="39.37332186" lon="-0.3927707"><ele>-1.8</ele><time>2022-11-10T16:52:43.0000000+00:00</time></trkpt><trkpt lat="39.37333854" lon="-0.39283516"><ele>-1.8</ele><time>2022-11-10T16:52:44.0000000+00:00</time></trkpt><trkpt lat="39.37335581" lon="-0.39291194"><ele>-1.8</ele><time>2022-11-10T16:52:45.0000000+00:00</time></trkpt><trkpt lat="39.37336327" lon="-0.39297472"><ele>-1.8</ele><time>2022-11-10T16:52:46.0000000+00:00</time></trkpt><trkpt lat="39.37336427" lon="-0.39302752"><ele>-1.8</ele><time>2022-11-10T16:52:47.0000000+00:00</time></trkpt><trkpt lat="39.37336209" lon="-0.3930919"><ele>-1.8</ele><time>2022-11-10T16:52:48.0000000+00:00</time></trkpt><trkpt lat="39.3733553" lon="-0.39315216"><ele>-1.8</ele><time>2022-11-10T16:52:49.0000000+00:00</time></trkpt><trkpt lat="39.37334826" lon="-0.39322559"><ele>-1.8</ele><time>2022-11-10T16:52:50.0000000+00:00</time></trkpt><trkpt lat="39.3733486" lon="-0.39328426"><ele>-1.8</ele><time>2022-11-10T16:52:51.0000000+00:00</time></trkpt><trkpt lat="39.37335027" lon="-0.39333078"><ele>-1.6</ele><time>2022-11-10T16:52:52.0000000+00:00</time></trkpt><trkpt lat="39.37335631" lon="-0.39339172"><ele>-1.6</ele><time>2022-11-10T16:52:53.0000000+00:00</time></trkpt><trkpt lat="39.37336754" lon="-0.39344578"><ele>-1.4</ele><time>2022-11-10T16:52:54.0000000+00:00</time></trkpt><trkpt lat="39.3733916" lon="-0.39350035"><ele>-1.2</ele><time>2022-11-10T16:52:55.0000000+00:00</time></trkpt><trkpt lat="39.37341532" lon="-0.39352734"><ele>-1.2</ele><time>2022-11-10T16:52:56.0000000+00:00</time></trkpt><trkpt lat="39.37344331" lon="-0.39356531"><ele>-1.2</ele><time>2022-11-10T16:52:57.0000000+00:00</time></trkpt><trkpt lat="39.37346502" lon="-0.39361543"><ele>-1.2</ele><time>2022-11-10T16:52:58.0000000+00:00</time></trkpt><trkpt lat="39.3734812" lon="-0.39368131"><ele>-1.2</ele><time>2022-11-10T16:52:59.0000000+00:00</time></trkpt><trkpt lat="39.37348405" lon="-0.39372808"><ele>-1.2</ele><time>2022-11-10T16:53:00.0000000+00:00</time></trkpt><trkpt lat="39.37348656" lon="-0.39380042"><ele>-1.2</ele><time>2022-11-10T16:53:01.0000000+00:00</time></trkpt><trkpt lat="39.37348983" lon="-0.39386152"><ele>-1.2</ele><time>2022-11-10T16:53:02.0000000+00:00</time></trkpt><trkpt lat="39.37348933" lon="-0.39391039"><ele>-1.2</ele><time>2022-11-10T16:53:03.0000000+00:00</time></trkpt><trkpt lat="39.37348933" lon="-0.39391039"><ele>-1.2</ele><time>2022-11-10T16:53:04.0000000+00:00</time></trkpt><trkpt lat="39.37346418" lon="-0.39402606"><ele>-1.0</ele><time>2022-11-10T16:53:05.0000000+00:00</time></trkpt><trkpt lat="39.37344097" lon="-0.39408096"><ele>-1.0</ele><time>2022-11-10T16:53:06.0000000+00:00</time></trkpt><trkpt lat="39.3734097" lon="-0.39414601"><ele>-1.0</ele><time>2022-11-10T16:53:07.0000000+00:00</time></trkpt><trkpt lat="39.37339009" lon="-0.39419311"><ele>-1.2</ele><time>2022-11-10T16:53:08.0000000+00:00</time></trkpt><trkpt lat="39.37336863" lon="-0.39425178"><ele>-1.2</ele><time>2022-11-10T16:53:09.0000000+00:00</time></trkpt><trkpt lat="39.3733496" lon="-0.39430727"><ele>-1.2</ele><time>2022-11-10T16:53:10.0000000+00:00</time></trkpt><trkpt lat="39.3733325" lon="-0.39438087"><ele>-1.2</ele><time>2022-11-10T16:53:11.0000000+00:00</time></trkpt><trkpt lat="39.37332722" lon="-0.39443208"><ele>-1.2</ele><time>2022-11-10T16:53:12.0000000+00:00</time></trkpt><trkpt lat="39.37332169" lon="-0.39451389"><ele>-1.2</ele><time>2022-11-10T16:53:13.0000000+00:00</time></trkpt><trkpt lat="39.37332446" lon="-0.39458069"><ele>-1.2</ele><time>2022-11-10T16:53:14.0000000+00:00</time></trkpt><trkpt lat="39.37332898" lon="-0.39463601"><ele>-1.2</ele><time>2022-11-10T16:53:15.0000000+00:00</time></trkpt><trkpt lat="39.37333401" lon="-0.39470332"><ele>-1.2</ele><time>2022-11-10T16:53:16.0000000+00:00</time></trkpt><trkpt lat="39.37333653" lon="-0.39475638"><ele>-1.0</ele><time>2022-11-10T16:53:17.0000000+00:00</time></trkpt><trkpt lat="39.37334122" lon="-0.39483558"><ele>-1.0</ele><time>2022-11-10T16:53:18.0000000+00:00</time></trkpt><trkpt lat="39.37335187" lon="-0.39491396"><ele>-0.8</ele><time>2022-11-10T16:53:19.0000000+00:00</time></trkpt><trkpt lat="39.37336251" lon="-0.39497866"><ele>-0.8</ele><time>2022-11-10T16:53:20.0000000+00:00</time></trkpt><trkpt lat="39.37337299" lon="-0.3950318"><ele>-0.8</ele><time>2022-11-10T16:53:21.0000000+00:00</time></trkpt><trkpt lat="39.37338405" lon="-0.3951002"><ele>-0.8</ele><time>2022-11-10T16:53:22.0000000+00:00</time></trkpt><trkpt lat="39.37339428" lon="-0.39517011"><ele>-0.8</ele><time>2022-11-10T16:53:23.0000000+00:00</time></trkpt><trkpt lat="39.37340979" lon="-0.39523917"><ele>-0.8</ele><time>2022-11-10T16:53:24.0000000+00:00</time></trkpt><trkpt lat="39.37342672" lon="-0.39530933"><ele>-0.8</ele><time>2022-11-10T16:53:25.0000000+00:00</time></trkpt><trkpt lat="39.37344365" lon="-0.39539374"><ele>-0.6</ele><time>2022-11-10T16:53:26.0000000+00:00</time></trkpt><trkpt lat="39.37345295" lon="-0.39544771"><ele>-0.6</ele><time>2022-11-10T16:53:27.0000000+00:00</time></trkpt><trkpt lat="39.37346058" lon="-0.39551695"><ele>-0.8</ele><time>2022-11-10T16:53:28.0000000+00:00</time></trkpt><trkpt lat="39.37346544" lon="-0.39558861"><ele>-0.8</ele><time>2022-11-10T16:53:29.0000000+00:00</time></trkpt><trkpt lat="39.3734703" lon="-0.39565818"><ele>-0.8</ele><time>2022-11-10T16:53:30.0000000+00:00</time></trkpt><trkpt lat="39.37347542" lon="-0.39573094"><ele>-0.6</ele><time>2022-11-10T16:53:31.0000000+00:00</time></trkpt><trkpt lat="39.3734786" lon="-0.3958047"><ele>-0.6</ele><time>2022-11-10T16:53:32.0000000+00:00</time></trkpt><trkpt lat="39.37348137" lon="-0.39587771"><ele>-0.6</ele><time>2022-11-10T16:53:33.0000000+00:00</time></trkpt><trkpt lat="39.37348673" lon="-0.39595306"><ele>-0.6</ele><time>2022-11-10T16:53:34.0000000+00:00</time></trkpt><trkpt lat="39.37349377" lon="-0.39602464"><ele>-0.6</ele><time>2022-11-10T16:53:35.0000000+00:00</time></trkpt><trkpt lat="39.37350157" lon="-0.39609463"><ele>-0.6</ele><time>2022-11-10T16:53:36.0000000+00:00</time></trkpt><trkpt lat="39.37350157" lon="-0.39609463"><ele>-0.6</ele><time>2022-11-10T16:53:37.0000000+00:00</time></trkpt><trkpt lat="39.37350442" lon="-0.39623528"><ele>-0.6</ele><time>2022-11-10T16:53:38.0000000+00:00</time></trkpt><trkpt lat="39.37350852" lon="-0.39632455"><ele>-0.6</ele><time>2022-11-10T16:53:39.0000000+00:00</time></trkpt><trkpt lat="39.37350978" lon="-0.39639973"><ele>-0.6</ele><time>2022-11-10T16:53:40.0000000+00:00</time></trkpt><trkpt lat="39.37351406" lon="-0.39647198"><ele>-0.6</ele><time>2022-11-10T16:53:41.0000000+00:00</time></trkpt><trkpt lat="39.37351406" lon="-0.39647198"><ele>-0.6</ele><time>2022-11-10T16:53:42.0000000+00:00</time></trkpt><trkpt lat="39.37351791" lon="-0.39662093"><ele>-0.6</ele><time>2022-11-10T16:53:43.0000000+00:00</time></trkpt><trkpt lat="39.37351992" lon="-0.39668413"><ele>-0.8</ele><time>2022-11-10T16:53:44.0000000+00:00</time></trkpt><trkpt lat="39.37352085" lon="-0.39677507"><ele>-0.8</ele><time>2022-11-10T16:53:45.0000000+00:00</time></trkpt><trkpt lat="39.37352085" lon="-0.39677507"><ele>-0.8</ele><time>2022-11-10T16:53:46.0000000+00:00</time></trkpt><trkpt lat="39.37352596" lon="-0.39693098"><ele>-0.8</ele><time>2022-11-10T16:53:47.0000000+00:00</time></trkpt><trkpt lat="39.37352629" lon="-0.39700868"><ele>-0.8</ele><time>2022-11-10T16:53:48.0000000+00:00</time></trkpt><trkpt lat="39.37352663" lon="-0.39708462"><ele>-0.8</ele><time>2022-11-10T16:53:49.0000000+00:00</time></trkpt><trkpt lat="39.37352956" lon="-0.39716072"><ele>-0.6</ele><time>2022-11-10T16:53:50.0000000+00:00</time></trkpt><trkpt lat="39.37353711" lon="-0.39723566"><ele>-0.6</ele><time>2022-11-10T16:53:51.0000000+00:00</time></trkpt><trkpt lat="39.37354566" lon="-0.39731101"><ele>-0.6</ele><time>2022-11-10T16:53:52.0000000+00:00</time></trkpt><trkpt lat="39.37355354" lon="-0.39738519"><ele>-0.6</ele><time>2022-11-10T16:53:53.0000000+00:00</time></trkpt><trkpt lat="39.37356108" lon="-0.39746046"><ele>-0.6</ele><time>2022-11-10T16:53:54.0000000+00:00</time></trkpt><trkpt lat="39.3735651" lon="-0.3975354"><ele>-0.6</ele><time>2022-11-10T16:53:55.0000000+00:00</time></trkpt><trkpt lat="39.37356586" lon="-0.39760941"><ele>-0.6</ele><time>2022-11-10T16:53:56.0000000+00:00</time></trkpt><trkpt lat="39.37356108" lon="-0.39768367"><ele>-0.8</ele><time>2022-11-10T16:53:57.0000000+00:00</time></trkpt><trkpt lat="39.37354515" lon="-0.39775299"><ele>-0.8</ele><time>2022-11-10T16:53:58.0000000+00:00</time></trkpt><trkpt lat="39.37352177" lon="-0.39781661"><ele>-0.8</ele><time>2022-11-10T16:53:59.0000000+00:00</time></trkpt><trkpt lat="39.37348883" lon="-0.39787319"><ele>-0.8</ele><time>2022-11-10T16:54:00.0000000+00:00</time></trkpt><trkpt lat="39.37344742" lon="-0.3979223"><ele>-0.8</ele><time>2022-11-10T16:54:01.0000000+00:00</time></trkpt><trkpt lat="39.37340199" lon="-0.39796514"><ele>-0.8</ele><time>2022-11-10T16:54:02.0000000+00:00</time></trkpt><trkpt lat="39.37335405" lon="-0.39799858"><ele>-0.6</ele><time>2022-11-10T16:54:03.0000000+00:00</time></trkpt><trkpt lat="39.37331013" lon="-0.39803353"><ele>-0.6</ele><time>2022-11-10T16:54:04.0000000+00:00</time></trkpt><trkpt lat="39.37326788" lon="-0.39807435"><ele>-0.4</ele><time>2022-11-10T16:54:05.0000000+00:00</time></trkpt><trkpt lat="39.3732279" lon="-0.39812339"><ele>-0.4</ele><time>2022-11-10T16:54:06.0000000+00:00</time></trkpt><trkpt lat="39.37319278" lon="-0.39818114"><ele>-0.4</ele><time>2022-11-10T16:54:07.0000000+00:00</time></trkpt><trkpt lat="39.3731678" lon="-0.39824509"><ele>-0.2</ele><time>2022-11-10T16:54:08.0000000+00:00</time></trkpt><trkpt lat="39.37314844" lon="-0.39831366"><ele>-0.2</ele><time>2022-11-10T16:54:09.0000000+00:00</time></trkpt><trkpt lat="39.37313419" lon="-0.39838649"><ele>-0.2</ele><time>2022-11-10T16:54:10.0000000+00:00</time></trkpt><trkpt lat="39.37312245" lon="-0.39845942"><ele>-0.2</ele><time>2022-11-10T16:54:11.0000000+00:00</time></trkpt><trkpt lat="39.37311751" lon="-0.39853351"><ele>0.0</ele><time>2022-11-10T16:54:12.0000000+00:00</time></trkpt><trkpt lat="39.37311541" lon="-0.39860669"><ele>0.0</ele><time>2022-11-10T16:54:13.0000000+00:00</time></trkpt><trkpt lat="39.37311432" lon="-0.39867609"><ele>0.0</ele><time>2022-11-10T16:54:14.0000000+00:00</time></trkpt><trkpt lat="39.37311575" lon="-0.39874239"><ele>0.2</ele><time>2022-11-10T16:54:15.0000000+00:00</time></trkpt><trkpt lat="39.37311558" lon="-0.39880668"><ele>0.2</ele><time>2022-11-10T16:54:16.0000000+00:00</time></trkpt><trkpt lat="39.37311424" lon="-0.39887088"><ele>0.4</ele><time>2022-11-10T16:54:17.0000000+00:00</time></trkpt><trkpt lat="39.37311424" lon="-0.39887088"><ele>0.4</ele><time>2022-11-10T16:54:18.0000000+00:00</time></trkpt><trkpt lat="39.37310452" lon="-0.39900432"><ele>0.4</ele><time>2022-11-10T16:54:19.0000000+00:00</time></trkpt><trkpt lat="39.37309714" lon="-0.39907037"><ele>0.4</ele><time>2022-11-10T16:54:20.0000000+00:00</time></trkpt><trkpt lat="39.37309622" lon="-0.39915201"><ele>0.4</ele><time>2022-11-10T16:54:21.0000000+00:00</time></trkpt><trkpt lat="39.37310033" lon="-0.39921714"><ele>0.4</ele><time>2022-11-10T16:54:22.0000000+00:00</time></trkpt><trkpt lat="39.37310603" lon="-0.39926961"><ele>0.4</ele><time>2022-11-10T16:54:23.0000000+00:00</time></trkpt><trkpt lat="39.37311214" lon="-0.39933566"><ele>0.4</ele><time>2022-11-10T16:54:24.0000000+00:00</time></trkpt><trkpt lat="39.37310997" lon="-0.39939819"><ele>0.6</ele><time>2022-11-10T16:54:25.0000000+00:00</time></trkpt><trkpt lat="39.37310326" lon="-0.39946047"><ele>0.6</ele><time>2022-11-10T16:54:26.0000000+00:00</time></trkpt><trkpt lat="39.37309882" lon="-0.39951604"><ele>0.6</ele><time>2022-11-10T16:54:27.0000000+00:00</time></trkpt><trkpt lat="39.37309957" lon="-0.39957144"><ele>0.6</ele><time>2022-11-10T16:54:28.0000000+00:00</time></trkpt><trkpt lat="39.373102" lon="-0.3996333"><ele>0.4</ele><time>2022-11-10T16:54:29.0000000+00:00</time></trkpt><trkpt lat="39.37310519" lon="-0.39969449"><ele>0.4</ele><time>2022-11-10T16:54:30.0000000+00:00</time></trkpt><trkpt lat="39.37310728" lon="-0.39974763"><ele>0.4</ele><time>2022-11-10T16:54:31.0000000+00:00</time></trkpt><trkpt lat="39.37310938" lon="-0.39980379"><ele>0.4</ele><time>2022-11-10T16:54:32.0000000+00:00</time></trkpt><trkpt lat="39.37310779" lon="-0.39986179"><ele>0.4</ele><time>2022-11-10T16:54:33.0000000+00:00</time></trkpt><trkpt lat="39.37310569" lon="-0.39992114"><ele>0.6</ele><time>2022-11-10T16:54:34.0000000+00:00</time></trkpt><trkpt lat="39.37310343" lon="-0.39998459"><ele>0.8</ele><time>2022-11-10T16:54:35.0000000+00:00</time></trkpt><trkpt lat="39.37310066" lon="-0.40004888"><ele>0.8</ele><time>2022-11-10T16:54:36.0000000+00:00</time></trkpt><trkpt lat="39.37309479" lon="-0.40011174"><ele>0.8</ele><time>2022-11-10T16:54:37.0000000+00:00</time></trkpt><trkpt lat="39.37308918" lon="-0.40017578"><ele>0.8</ele><time>2022-11-10T16:54:38.0000000+00:00</time></trkpt><trkpt lat="39.37308708" lon="-0.40023764"><ele>0.8</ele><time>2022-11-10T16:54:39.0000000+00:00</time></trkpt><trkpt lat="39.37308717" lon="-0.40030134"><ele>0.8</ele><time>2022-11-10T16:54:40.0000000+00:00</time></trkpt><trkpt lat="39.37308415" lon="-0.40036722"><ele>1.0</ele><time>2022-11-10T16:54:41.0000000+00:00</time></trkpt><trkpt lat="39.37307015" lon="-0.40044794"><ele>0.8</ele><time>2022-11-10T16:54:42.0000000+00:00</time></trkpt><trkpt lat="39.373059" lon="-0.4005041"><ele>0.8</ele><time>2022-11-10T16:54:43.0000000+00:00</time></trkpt><trkpt lat="39.37304626" lon="-0.40057467"><ele>0.8</ele><time>2022-11-10T16:54:44.0000000+00:00</time></trkpt><trkpt lat="39.37303537" lon="-0.40064273"><ele>0.6</ele><time>2022-11-10T16:54:45.0000000+00:00</time></trkpt><trkpt lat="39.37302078" lon="-0.40072555"><ele>0.6</ele><time>2022-11-10T16:54:46.0000000+00:00</time></trkpt><trkpt lat="39.37301215" lon="-0.40077986"><ele>0.6</ele><time>2022-11-10T16:54:47.0000000+00:00</time></trkpt><trkpt lat="39.37300016" lon="-0.40085111"><ele>0.6</ele><time>2022-11-10T16:54:48.0000000+00:00</time></trkpt><trkpt lat="39.372987" lon="-0.40092219"><ele>0.6</ele><time>2022-11-10T16:54:49.0000000+00:00</time></trkpt><trkpt lat="39.37297393" lon="-0.40099067"><ele>0.6</ele><time>2022-11-10T16:54:50.0000000+00:00</time></trkpt><trkpt lat="39.37296228" lon="-0.4010604"><ele>0.8</ele><time>2022-11-10T16:54:51.0000000+00:00</time></trkpt><trkpt lat="39.37295063" lon="-0.40113039"><ele>0.8</ele><time>2022-11-10T16:54:52.0000000+00:00</time></trkpt><trkpt lat="39.37293998" lon="-0.4012029"><ele>0.8</ele><time>2022-11-10T16:54:53.0000000+00:00</time></trkpt><trkpt lat="39.37293177" lon="-0.40127565"><ele>1.0</ele><time>2022-11-10T16:54:54.0000000+00:00</time></trkpt><trkpt lat="39.37292364" lon="-0.40135017"><ele>1.0</ele><time>2022-11-10T16:54:55.0000000+00:00</time></trkpt><trkpt lat="39.37291509" lon="-0.40142359"><ele>1.0</ele><time>2022-11-10T16:54:56.0000000+00:00</time></trkpt><trkpt lat="39.37290662" lon="-0.40149375"><ele>1.0</ele><time>2022-11-10T16:54:57.0000000+00:00</time></trkpt><trkpt lat="39.37289891" lon="-0.40156466"><ele>1.0</ele><time>2022-11-10T16:54:58.0000000+00:00</time></trkpt><trkpt lat="39.37288483" lon="-0.40163859"><ele>0.8</ele><time>2022-11-10T16:54:59.0000000+00:00</time></trkpt><trkpt lat="39.37287142" lon="-0.40171235"><ele>0.8</ele><time>2022-11-10T16:55:00.0000000+00:00</time></trkpt><trkpt lat="39.37285876" lon="-0.40178586"><ele>1.0</ele><time>2022-11-10T16:55:01.0000000+00:00</time></trkpt><trkpt lat="39.37284585" lon="-0.40185794"><ele>1.0</ele><time>2022-11-10T16:55:02.0000000+00:00</time></trkpt><trkpt lat="39.37283261" lon="-0.40193095"><ele>1.0</ele><time>2022-11-10T16:55:03.0000000+00:00</time></trkpt><trkpt lat="39.37282423" lon="-0.40200387"><ele>0.8</ele><time>2022-11-10T16:55:04.0000000+00:00</time></trkpt><trkpt lat="39.37281576" lon="-0.40207671"><ele>0.8</ele><time>2022-11-10T16:55:05.0000000+00:00</time></trkpt><trkpt lat="39.37279992" lon="-0.4021648"><ele>1.0</ele><time>2022-11-10T16:55:06.0000000+00:00</time></trkpt><trkpt lat="39.37278751" lon="-0.40223873"><ele>1.0</ele><time>2022-11-10T16:55:07.0000000+00:00</time></trkpt><trkpt lat="39.37277678" lon="-0.40229866"><ele>1.0</ele><time>2022-11-10T16:55:08.0000000+00:00</time></trkpt><trkpt lat="39.37276497" lon="-0.40237192"><ele>0.8</ele><time>2022-11-10T16:55:09.0000000+00:00</time></trkpt><trkpt lat="39.37275348" lon="-0.4024425"><ele>1.0</ele><time>2022-11-10T16:55:10.0000000+00:00</time></trkpt><trkpt lat="39.37273898" lon="-0.40251425"><ele>1.0</ele><time>2022-11-10T16:55:11.0000000+00:00</time></trkpt><trkpt lat="39.37272331" lon="-0.40258734"><ele>1.0</ele><time>2022-11-10T16:55:12.0000000+00:00</time></trkpt><trkpt lat="39.37270948" lon="-0.40266193"><ele>1.0</ele><time>2022-11-10T16:55:13.0000000+00:00</time></trkpt><trkpt lat="39.37269489" lon="-0.40273704"><ele>1.0</ele><time>2022-11-10T16:55:14.0000000+00:00</time></trkpt><trkpt lat="39.37267997" lon="-0.40282664"><ele>1.0</ele><time>2022-11-10T16:55:15.0000000+00:00</time></trkpt><trkpt lat="39.37267997" lon="-0.40282664"><ele>1.0</ele><time>2022-11-10T16:55:16.0000000+00:00</time></trkpt><trkpt lat="39.37265969" lon="-0.40296553"><ele>1.0</ele><time>2022-11-10T16:55:17.0000000+00:00</time></trkpt><trkpt lat="39.37264837" lon="-0.40304666"><ele>1.0</ele><time>2022-11-10T16:55:18.0000000+00:00</time></trkpt><trkpt lat="39.37263739" lon="-0.40312093"><ele>1.0</ele><time>2022-11-10T16:55:19.0000000+00:00</time></trkpt><trkpt lat="39.37263739" lon="-0.40312093"><ele>1.0</ele><time>2022-11-10T16:55:20.0000000+00:00</time></trkpt><trkpt lat="39.3726006" lon="-0.40324984"><ele>1.0</ele><time>2022-11-10T16:55:21.0000000+00:00</time></trkpt><trkpt lat="39.3726006" lon="-0.40324984"><ele>1.0</ele><time>2022-11-10T16:55:22.0000000+00:00</time></trkpt><trkpt lat="39.37253438" lon="-0.40335394"><ele>0.8</ele><time>2022-11-10T16:55:23.0000000+00:00</time></trkpt><trkpt lat="39.37248887" lon="-0.40338269"><ele>0.8</ele><time>2022-11-10T16:55:24.0000000+00:00</time></trkpt><trkpt lat="39.37243816" lon="-0.40339904"><ele>0.8</ele><time>2022-11-10T16:55:25.0000000+00:00</time></trkpt><trkpt lat="39.37238149" lon="-0.40340683"><ele>0.8</ele><time>2022-11-10T16:55:26.0000000+00:00</time></trkpt><trkpt lat="39.37232249" lon="-0.4034132"><ele>0.8</ele><time>2022-11-10T16:55:27.0000000+00:00</time></trkpt><trkpt lat="39.37226473" lon="-0.40342167"><ele>0.8</ele><time>2022-11-10T16:55:28.0000000+00:00</time></trkpt><trkpt lat="39.37221042" lon="-0.40342653"><ele>0.8</ele><time>2022-11-10T16:55:29.0000000+00:00</time></trkpt><trkpt lat="39.37215686" lon="-0.40342947"><ele>0.8</ele><time>2022-11-10T16:55:30.0000000+00:00</time></trkpt><trkpt lat="39.37210347" lon="-0.40343123"><ele>0.8</ele><time>2022-11-10T16:55:31.0000000+00:00</time></trkpt><trkpt lat="39.37205058" lon="-0.40343399"><ele>0.8</ele><time>2022-11-10T16:55:32.0000000+00:00</time></trkpt><trkpt lat="39.3719992" lon="-0.40344145"><ele>0.8</ele><time>2022-11-10T16:55:33.0000000+00:00</time></trkpt><trkpt lat="39.37194907" lon="-0.40345034"><ele>0.8</ele><time>2022-11-10T16:55:34.0000000+00:00</time></trkpt><trkpt lat="39.37190021" lon="-0.40346065"><ele>0.8</ele><time>2022-11-10T16:55:35.0000000+00:00</time></trkpt><trkpt lat="39.37184916" lon="-0.4034692"><ele>0.8</ele><time>2022-11-10T16:55:36.0000000+00:00</time></trkpt><trkpt lat="39.37180063" lon="-0.40347615"><ele>0.8</ele><time>2022-11-10T16:55:37.0000000+00:00</time></trkpt><trkpt lat="39.37175361" lon="-0.40348303"><ele>0.8</ele><time>2022-11-10T16:55:38.0000000+00:00</time></trkpt><trkpt lat="39.37170574" lon="-0.40348814"><ele>0.8</ele><time>2022-11-10T16:55:39.0000000+00:00</time></trkpt><trkpt lat="39.37165738" lon="-0.40349023"><ele>0.8</ele><time>2022-11-10T16:55:40.0000000+00:00</time></trkpt><trkpt lat="39.37160835" lon="-0.40349283"><ele>0.8</ele><time>2022-11-10T16:55:41.0000000+00:00</time></trkpt><trkpt lat="39.37156116" lon="-0.40349744"><ele>0.8</ele><time>2022-11-10T16:55:42.0000000+00:00</time></trkpt><trkpt lat="39.37151682" lon="-0.40350113"><ele>0.8</ele><time>2022-11-10T16:55:43.0000000+00:00</time></trkpt><trkpt lat="39.37146653" lon="-0.40349996"><ele>0.8</ele><time>2022-11-10T16:55:44.0000000+00:00</time></trkpt><trkpt lat="39.37143476" lon="-0.40350138"><ele>0.8</ele><time>2022-11-10T16:55:45.0000000+00:00</time></trkpt><trkpt lat="39.37140014" lon="-0.40350323"><ele>0.8</ele><time>2022-11-10T16:55:46.0000000+00:00</time></trkpt><trkpt lat="39.37134231" lon="-0.40350759"><ele>0.8</ele><time>2022-11-10T16:55:47.0000000+00:00</time></trkpt><trkpt lat="39.37130819" lon="-0.4035075"><ele>0.8</ele><time>2022-11-10T16:55:48.0000000+00:00</time></trkpt><trkpt lat="39.37126871" lon="-0.40351169"><ele>0.8</ele><time>2022-11-10T16:55:49.0000000+00:00</time></trkpt><trkpt lat="39.37123234" lon="-0.40351991"><ele>0.6</ele><time>2022-11-10T16:55:50.0000000+00:00</time></trkpt><trkpt lat="39.3711968" lon="-0.40352703"><ele>0.6</ele><time>2022-11-10T16:55:51.0000000+00:00</time></trkpt><trkpt lat="39.37116209" lon="-0.40353256"><ele>0.6</ele><time>2022-11-10T16:55:52.0000000+00:00</time></trkpt><trkpt lat="39.37112739" lon="-0.40353566"><ele>0.6</ele><time>2022-11-10T16:55:53.0000000+00:00</time></trkpt><trkpt lat="39.37109294" lon="-0.40353843"><ele>0.6</ele><time>2022-11-10T16:55:54.0000000+00:00</time></trkpt><trkpt lat="39.37105623" lon="-0.40354371"><ele>0.6</ele><time>2022-11-10T16:55:55.0000000+00:00</time></trkpt><trkpt lat="39.37102195" lon="-0.40354799"><ele>0.6</ele><time>2022-11-10T16:55:56.0000000+00:00</time></trkpt><trkpt lat="39.37098364" lon="-0.40355704"><ele>0.6</ele><time>2022-11-10T16:55:57.0000000+00:00</time></trkpt><trkpt lat="39.37094266" lon="-0.40356408"><ele>0.6</ele><time>2022-11-10T16:55:58.0000000+00:00</time></trkpt><trkpt lat="39.37090209" lon="-0.40356768"><ele>0.8</ele><time>2022-11-10T16:55:59.0000000+00:00</time></trkpt><trkpt lat="39.37085892" lon="-0.40357271"><ele>0.8</ele><time>2022-11-10T16:56:00.0000000+00:00</time></trkpt><trkpt lat="39.37082238" lon="-0.40357648"><ele>0.8</ele><time>2022-11-10T16:56:01.0000000+00:00</time></trkpt><trkpt lat="39.37076563" lon="-0.40358009"><ele>0.8</ele><time>2022-11-10T16:56:02.0000000+00:00</time></trkpt><trkpt lat="39.37071928" lon="-0.40358537"><ele>0.8</ele><time>2022-11-10T16:56:03.0000000+00:00</time></trkpt><trkpt lat="39.37067209" lon="-0.40359291"><ele>0.8</ele><time>2022-11-10T16:56:04.0000000+00:00</time></trkpt><trkpt lat="39.37062708" lon="-0.40360113"><ele>0.8</ele><time>2022-11-10T16:56:05.0000000+00:00</time></trkpt><trkpt lat="39.37057863" lon="-0.40361018"><ele>0.8</ele><time>2022-11-10T16:56:06.0000000+00:00</time></trkpt><trkpt lat="39.37052943" lon="-0.40361621"><ele>1.0</ele><time>2022-11-10T16:56:07.0000000+00:00</time></trkpt><trkpt lat="39.37046799" lon="-0.40362359"><ele>0.8</ele><time>2022-11-10T16:56:08.0000000+00:00</time></trkpt><trkpt lat="39.37042373" lon="-0.40362828"><ele>0.8</ele><time>2022-11-10T16:56:09.0000000+00:00</time></trkpt><trkpt lat="39.37037109" lon="-0.40363675"><ele>0.8</ele><time>2022-11-10T16:56:10.0000000+00:00</time></trkpt><trkpt lat="39.37030798" lon="-0.40364505"><ele>0.8</ele><time>2022-11-10T16:56:11.0000000+00:00</time></trkpt><trkpt lat="39.37026255" lon="-0.40364547"><ele>0.8</ele><time>2022-11-10T16:56:12.0000000+00:00</time></trkpt><trkpt lat="39.37020488" lon="-0.40365117"><ele>0.8</ele><time>2022-11-10T16:56:13.0000000+00:00</time></trkpt><trkpt lat="39.37013741" lon="-0.40366332"><ele>0.8</ele><time>2022-11-10T16:56:14.0000000+00:00</time></trkpt><trkpt lat="39.37009256" lon="-0.40366902"><ele>1.0</ele><time>2022-11-10T16:56:15.0000000+00:00</time></trkpt><trkpt lat="39.37003917" lon="-0.40367363"><ele>1.0</ele><time>2022-11-10T16:56:16.0000000+00:00</time></trkpt><trkpt lat="39.37003917" lon="-0.40367363"><ele>1.0</ele><time>2022-11-10T16:56:17.0000000+00:00</time></trkpt><trkpt lat="39.36992828" lon="-0.40368008"><ele>1.0</ele><time>2022-11-10T16:56:18.0000000+00:00</time></trkpt><trkpt lat="39.36987447" lon="-0.40368763"><ele>1.0</ele><time>2022-11-10T16:56:19.0000000+00:00</time></trkpt><trkpt lat="39.36982007" lon="-0.40369509"><ele>1.0</ele><time>2022-11-10T16:56:20.0000000+00:00</time></trkpt><trkpt lat="39.36976517" lon="-0.40370481"><ele>1.0</ele><time>2022-11-10T16:56:21.0000000+00:00</time></trkpt><trkpt lat="39.36971027" lon="-0.40371428"><ele>1.0</ele><time>2022-11-10T16:56:22.0000000+00:00</time></trkpt><trkpt lat="39.36965578" lon="-0.40372417"><ele>1.0</ele><time>2022-11-10T16:56:23.0000000+00:00</time></trkpt><trkpt lat="39.36959996" lon="-0.40373188"><ele>1.0</ele><time>2022-11-10T16:56:24.0000000+00:00</time></trkpt><trkpt lat="39.36954439" lon="-0.40373683"><ele>1.0</ele><time>2022-11-10T16:56:25.0000000+00:00</time></trkpt><trkpt lat="39.36948923" lon="-0.40374119"><ele>1.0</ele><time>2022-11-10T16:56:26.0000000+00:00</time></trkpt><trkpt lat="39.36943266" lon="-0.40374672"><ele>1.0</ele><time>2022-11-10T16:56:27.0000000+00:00</time></trkpt><trkpt lat="39.36937558" lon="-0.40375125"><ele>1.2</ele><time>2022-11-10T16:56:28.0000000+00:00</time></trkpt><trkpt lat="39.36931933" lon="-0.40375921"><ele>1.2</ele><time>2022-11-10T16:56:29.0000000+00:00</time></trkpt><trkpt lat="39.36926443" lon="-0.40376625"><ele>1.2</ele><time>2022-11-10T16:56:30.0000000+00:00</time></trkpt><trkpt lat="39.36921062" lon="-0.40377396"><ele>1.2</ele><time>2022-11-10T16:56:31.0000000+00:00</time></trkpt><trkpt lat="39.36921062" lon="-0.40377396"><ele>1.2</ele><time>2022-11-10T16:56:32.0000000+00:00</time></trkpt><trkpt lat="39.36910643" lon="-0.40379701"><ele>1.2</ele><time>2022-11-10T16:56:33.0000000+00:00</time></trkpt><trkpt lat="39.36905723" lon="-0.40380623"><ele>1.2</ele><time>2022-11-10T16:56:34.0000000+00:00</time></trkpt><trkpt lat="39.36900996" lon="-0.40381403"><ele>1.2</ele><time>2022-11-10T16:56:35.0000000+00:00</time></trkpt><trkpt lat="39.36896101" lon="-0.40381922"><ele>1.2</ele><time>2022-11-10T16:56:36.0000000+00:00</time></trkpt><trkpt lat="39.36891298" lon="-0.40382149"><ele>1.2</ele><time>2022-11-10T16:56:37.0000000+00:00</time></trkpt><trkpt lat="39.36886336" lon="-0.40382149"><ele>1.2</ele><time>2022-11-10T16:56:38.0000000+00:00</time></trkpt><trkpt lat="39.36881424" lon="-0.40382601"><ele>1.2</ele><time>2022-11-10T16:56:39.0000000+00:00</time></trkpt><trkpt lat="39.36876386" lon="-0.4038292"><ele>1.2</ele><time>2022-11-10T16:56:40.0000000+00:00</time></trkpt><trkpt lat="39.3687129" lon="-0.40383431"><ele>1.2</ele><time>2022-11-10T16:56:41.0000000+00:00</time></trkpt><trkpt lat="39.36865834" lon="-0.40383875"><ele>1.2</ele><time>2022-11-10T16:56:42.0000000+00:00</time></trkpt><trkpt lat="39.36860109" lon="-0.40384512"><ele>1.2</ele><time>2022-11-10T16:56:43.0000000+00:00</time></trkpt><trkpt lat="39.36853403" lon="-0.40385409"><ele>1.4</ele><time>2022-11-10T16:56:44.0000000+00:00</time></trkpt><trkpt lat="39.36848877" lon="-0.40385971"><ele>1.4</ele><time>2022-11-10T16:56:45.0000000+00:00</time></trkpt><trkpt lat="39.36843328" lon="-0.40387002"><ele>1.4</ele><time>2022-11-10T16:56:46.0000000+00:00</time></trkpt><trkpt lat="39.36837796" lon="-0.40387974"><ele>1.4</ele><time>2022-11-10T16:56:47.0000000+00:00</time></trkpt><trkpt lat="39.36831082" lon="-0.40388938"><ele>1.4</ele><time>2022-11-10T16:56:48.0000000+00:00</time></trkpt><trkpt lat="39.36826422" lon="-0.40389458"><ele>1.4</ele><time>2022-11-10T16:56:49.0000000+00:00</time></trkpt><trkpt lat="39.36820312" lon="-0.40390614"><ele>1.4</ele><time>2022-11-10T16:56:50.0000000+00:00</time></trkpt><trkpt lat="39.36814461" lon="-0.40391687"><ele>1.4</ele><time>2022-11-10T16:56:51.0000000+00:00</time></trkpt><trkpt lat="39.36808652" lon="-0.40392601"><ele>1.4</ele><time>2022-11-10T16:56:52.0000000+00:00</time></trkpt><trkpt lat="39.36802777" lon="-0.40393179"><ele>1.4</ele><time>2022-11-10T16:56:53.0000000+00:00</time></trkpt><trkpt lat="39.3679654" lon="-0.40394051"><ele>1.4</ele><time>2022-11-10T16:56:54.0000000+00:00</time></trkpt><trkpt lat="39.3679038" lon="-0.40394839"><ele>1.4</ele><time>2022-11-10T16:56:55.0000000+00:00</time></trkpt><trkpt lat="39.36784504" lon="-0.40395853"><ele>1.4</ele><time>2022-11-10T16:56:56.0000000+00:00</time></trkpt><trkpt lat="39.36778905" lon="-0.40396549"><ele>1.4</ele><time>2022-11-10T16:56:57.0000000+00:00</time></trkpt><trkpt lat="39.36773331" lon="-0.40397303"><ele>1.4</ele><time>2022-11-10T16:56:58.0000000+00:00</time></trkpt><trkpt lat="39.36767791" lon="-0.40397949"><ele>1.4</ele><time>2022-11-10T16:56:59.0000000+00:00</time></trkpt><trkpt lat="39.36762166" lon="-0.40398376"><ele>1.4</ele><time>2022-11-10T16:57:00.0000000+00:00</time></trkpt><trkpt lat="39.36756601" lon="-0.40398896"><ele>1.4</ele><time>2022-11-10T16:57:01.0000000+00:00</time></trkpt><trkpt lat="39.36751144" lon="-0.40400103"><ele>1.4</ele><time>2022-11-10T16:57:02.0000000+00:00</time></trkpt><trkpt lat="39.36745671" lon="-0.40402207"><ele>1.4</ele><time>2022-11-10T16:57:03.0000000+00:00</time></trkpt><trkpt lat="39.36741111" lon="-0.40403347"><ele>1.4</ele><time>2022-11-10T16:57:04.0000000+00:00</time></trkpt><trkpt lat="39.36734087" lon="-0.40404294"><ele>1.4</ele><time>2022-11-10T16:57:05.0000000+00:00</time></trkpt><trkpt lat="39.36727901" lon="-0.40405308"><ele>1.4</ele><time>2022-11-10T16:57:06.0000000+00:00</time></trkpt><trkpt lat="39.36721749" lon="-0.40406297"><ele>1.2</ele><time>2022-11-10T16:57:07.0000000+00:00</time></trkpt><trkpt lat="39.36716133" lon="-0.4040711"><ele>1.0</ele><time>2022-11-10T16:57:08.0000000+00:00</time></trkpt><trkpt lat="39.3671076" lon="-0.40407973"><ele>1.0</ele><time>2022-11-10T16:57:09.0000000+00:00</time></trkpt><trkpt lat="39.36705429" lon="-0.40408887"><ele>0.8</ele><time>2022-11-10T16:57:10.0000000+00:00</time></trkpt><trkpt lat="39.36700526" lon="-0.4040944"><ele>0.8</ele><time>2022-11-10T16:57:11.0000000+00:00</time></trkpt><trkpt lat="39.3669548" lon="-0.40409507"><ele>0.8</ele><time>2022-11-10T16:57:12.0000000+00:00</time></trkpt><trkpt lat="39.3669548" lon="-0.40409507"><ele>0.8</ele><time>2022-11-10T16:57:13.0000000+00:00</time></trkpt><trkpt lat="39.36686151" lon="-0.40409373"><ele>0.8</ele><time>2022-11-10T16:57:14.0000000+00:00</time></trkpt><trkpt lat="39.36682471" lon="-0.4040939"><ele>1.0</ele><time>2022-11-10T16:57:15.0000000+00:00</time></trkpt><trkpt lat="39.36676637" lon="-0.40409692"><ele>1.0</ele><time>2022-11-10T16:57:16.0000000+00:00</time></trkpt><trkpt lat="39.36671415" lon="-0.40409759"><ele>1.2</ele><time>2022-11-10T16:57:17.0000000+00:00</time></trkpt><trkpt lat="39.36666093" lon="-0.40410002"><ele>1.2</ele><time>2022-11-10T16:57:18.0000000+00:00</time></trkpt><trkpt lat="39.36660653" lon="-0.40410295"><ele>1.4</ele><time>2022-11-10T16:57:19.0000000+00:00</time></trkpt><trkpt lat="39.36655205" lon="-0.4041058"><ele>1.4</ele><time>2022-11-10T16:57:20.0000000+00:00</time></trkpt><trkpt lat="39.36649798" lon="-0.40410781"><ele>1.6</ele><time>2022-11-10T16:57:21.0000000+00:00</time></trkpt><trkpt lat="39.36644266" lon="-0.4041115"><ele>1.8</ele><time>2022-11-10T16:57:22.0000000+00:00</time></trkpt><trkpt lat="39.36638868" lon="-0.40411578"><ele>1.8</ele><time>2022-11-10T16:57:23.0000000+00:00</time></trkpt><trkpt lat="39.36633554" lon="-0.40411955"><ele>2.0</ele><time>2022-11-10T16:57:24.0000000+00:00</time></trkpt><trkpt lat="39.36628575" lon="-0.4041193"><ele>2.0</ele><time>2022-11-10T16:57:25.0000000+00:00</time></trkpt><trkpt lat="39.3662384" lon="-0.40412005"><ele>2.0</ele><time>2022-11-10T16:57:26.0000000+00:00</time></trkpt><trkpt lat="39.36619003" lon="-0.40412164"><ele>2.0</ele><time>2022-11-10T16:57:27.0000000+00:00</time></trkpt><trkpt lat="39.36614544" lon="-0.40412206"><ele>2.0</ele><time>2022-11-10T16:57:28.0000000+00:00</time></trkpt><trkpt lat="39.36610471" lon="-0.40412298"><ele>1.8</ele><time>2022-11-10T16:57:29.0000000+00:00</time></trkpt><trkpt lat="39.36606648" lon="-0.4041255"><ele>1.8</ele><time>2022-11-10T16:57:30.0000000+00:00</time></trkpt><trkpt lat="39.3660291" lon="-0.40413028"><ele>1.8</ele><time>2022-11-10T16:57:31.0000000+00:00</time></trkpt><trkpt lat="39.36599029" lon="-0.40413371"><ele>1.8</ele><time>2022-11-10T16:57:32.0000000+00:00</time></trkpt><trkpt lat="39.36593967" lon="-0.40413707"><ele>1.8</ele><time>2022-11-10T16:57:33.0000000+00:00</time></trkpt><trkpt lat="39.36593967" lon="-0.40413707"><ele>1.8</ele><time>2022-11-10T16:57:34.0000000+00:00</time></trkpt><trkpt lat="39.36585585" lon="-0.40414662"><ele>1.8</ele><time>2022-11-10T16:57:35.0000000+00:00</time></trkpt><trkpt lat="39.36582224" lon="-0.40415148"><ele>1.8</ele><time>2022-11-10T16:57:36.0000000+00:00</time></trkpt><trkpt lat="39.36577706" lon="-0.40415777"><ele>1.8</ele><time>2022-11-10T16:57:37.0000000+00:00</time></trkpt><trkpt lat="39.36572962" lon="-0.4041633"><ele>1.8</ele><time>2022-11-10T16:57:38.0000000+00:00</time></trkpt><trkpt lat="39.36568452" lon="-0.40417135"><ele>1.8</ele><time>2022-11-10T16:57:39.0000000+00:00</time></trkpt><trkpt lat="39.36563574" lon="-0.40417554"><ele>2.0</ele><time>2022-11-10T16:57:40.0000000+00:00</time></trkpt><trkpt lat="39.36558662" lon="-0.4041804"><ele>2.0</ele><time>2022-11-10T16:57:41.0000000+00:00</time></trkpt><trkpt lat="39.36553675" lon="-0.40418635"><ele>2.0</ele><time>2022-11-10T16:57:42.0000000+00:00</time></trkpt><trkpt lat="39.36548604" lon="-0.4041913"><ele>2.0</ele><time>2022-11-10T16:57:43.0000000+00:00</time></trkpt><trkpt lat="39.36543508" lon="-0.40420261"><ele>2.0</ele><time>2022-11-10T16:57:44.0000000+00:00</time></trkpt><trkpt lat="39.36538336" lon="-0.40420471"><ele>2.2</ele><time>2022-11-10T16:57:45.0000000+00:00</time></trkpt><trkpt lat="39.36533047" lon="-0.40420689"><ele>2.2</ele><time>2022-11-10T16:57:46.0000000+00:00</time></trkpt><trkpt lat="39.36527523" lon="-0.40420831"><ele>2.2</ele><time>2022-11-10T16:57:47.0000000+00:00</time></trkpt><trkpt lat="39.36521966" lon="-0.40420848"><ele>2.2</ele><time>2022-11-10T16:57:48.0000000+00:00</time></trkpt><trkpt lat="39.36516526" lon="-0.40421267"><ele>2.2</ele><time>2022-11-10T16:57:49.0000000+00:00</time></trkpt><trkpt lat="39.36511355" lon="-0.40421778"><ele>2.4</ele><time>2022-11-10T16:57:50.0000000+00:00</time></trkpt><trkpt lat="39.36506284" lon="-0.40422667"><ele>2.4</ele><time>2022-11-10T16:57:51.0000000+00:00</time></trkpt><trkpt lat="39.36500659" lon="-0.40423438"><ele>2.4</ele><time>2022-11-10T16:57:52.0000000+00:00</time></trkpt><trkpt lat="39.36495219" lon="-0.40424109"><ele>2.4</ele><time>2022-11-10T16:57:53.0000000+00:00</time></trkpt><trkpt lat="39.36489595" lon="-0.40424662"><ele>2.4</ele><time>2022-11-10T16:57:54.0000000+00:00</time></trkpt><trkpt lat="39.3648403" lon="-0.40425299"><ele>2.4</ele><time>2022-11-10T16:57:55.0000000+00:00</time></trkpt><trkpt lat="39.36478523" lon="-0.40425818"><ele>2.4</ele><time>2022-11-10T16:57:56.0000000+00:00</time></trkpt><trkpt lat="39.36473033" lon="-0.40426523"><ele>2.4</ele><time>2022-11-10T16:57:57.0000000+00:00</time></trkpt><trkpt lat="39.36467542" lon="-0.40427269"><ele>2.6</ele><time>2022-11-10T16:57:58.0000000+00:00</time></trkpt><trkpt lat="39.36462086" lon="-0.40428098"><ele>2.6</ele><time>2022-11-10T16:57:59.0000000+00:00</time></trkpt><trkpt lat="39.3645678" lon="-0.40429045"><ele>2.6</ele><time>2022-11-10T16:58:00.0000000+00:00</time></trkpt><trkpt lat="39.36451189" lon="-0.40429968"><ele>2.6</ele><time>2022-11-10T16:58:01.0000000+00:00</time></trkpt><trkpt lat="39.3644585" lon="-0.40430906"><ele>2.6</ele><time>2022-11-10T16:58:02.0000000+00:00</time></trkpt><trkpt lat="39.36440846" lon="-0.40431644"><ele>2.6</ele><time>2022-11-10T16:58:03.0000000+00:00</time></trkpt><trkpt lat="39.36435758" lon="-0.40432331"><ele>2.6</ele><time>2022-11-10T16:58:04.0000000+00:00</time></trkpt><trkpt lat="39.36430704" lon="-0.40432792"><ele>2.6</ele><time>2022-11-10T16:58:05.0000000+00:00</time></trkpt><trkpt lat="39.36425759" lon="-0.40433337"><ele>2.6</ele><time>2022-11-10T16:58:06.0000000+00:00</time></trkpt><trkpt lat="39.36420847" lon="-0.4043379"><ele>2.6</ele><time>2022-11-10T16:58:07.0000000+00:00</time></trkpt><trkpt lat="39.36415751" lon="-0.40434284"><ele>2.6</ele><time>2022-11-10T16:58:08.0000000+00:00</time></trkpt><trkpt lat="39.36410621" lon="-0.40434795"><ele>2.8</ele><time>2022-11-10T16:58:09.0000000+00:00</time></trkpt><trkpt lat="39.36405416" lon="-0.40435215"><ele>2.8</ele><time>2022-11-10T16:58:10.0000000+00:00</time></trkpt><trkpt lat="39.3640006" lon="-0.40435625"><ele>2.8</ele><time>2022-11-10T16:58:11.0000000+00:00</time></trkpt><trkpt lat="39.36394695" lon="-0.40436246"><ele>2.8</ele><time>2022-11-10T16:58:12.0000000+00:00</time></trkpt><trkpt lat="39.36389809" lon="-0.40436748"><ele>2.8</ele><time>2022-11-10T16:58:13.0000000+00:00</time></trkpt><trkpt lat="39.36385106" lon="-0.40437226"><ele>2.8</ele><time>2022-11-10T16:58:14.0000000+00:00</time></trkpt><trkpt lat="39.36380689" lon="-0.40437562"><ele>2.8</ele><time>2022-11-10T16:58:15.0000000+00:00</time></trkpt><trkpt lat="39.36376079" lon="-0.40437872"><ele>2.8</ele><time>2022-11-10T16:58:16.0000000+00:00</time></trkpt><trkpt lat="39.36371863" lon="-0.40437846"><ele>3.0</ele><time>2022-11-10T16:58:17.0000000+00:00</time></trkpt><trkpt lat="39.36367706" lon="-0.40437981"><ele>3.0</ele><time>2022-11-10T16:58:18.0000000+00:00</time></trkpt><trkpt lat="39.36363422" lon="-0.40438442"><ele>3.2</ele><time>2022-11-10T16:58:19.0000000+00:00</time></trkpt><trkpt lat="39.36359055" lon="-0.40439456"><ele>3.2</ele><time>2022-11-10T16:58:20.0000000+00:00</time></trkpt><trkpt lat="39.36354823" lon="-0.40440076"><ele>3.2</ele><time>2022-11-10T16:58:21.0000000+00:00</time></trkpt><trkpt lat="39.36351369" lon="-0.40440395"><ele>3.2</ele><time>2022-11-10T16:58:22.0000000+00:00</time></trkpt><trkpt lat="39.3634577" lon="-0.40441023"><ele>3.2</ele><time>2022-11-10T16:58:23.0000000+00:00</time></trkpt><trkpt lat="39.36341143" lon="-0.40441669"><ele>3.2</ele><time>2022-11-10T16:58:24.0000000+00:00</time></trkpt><trkpt lat="39.36336357" lon="-0.40442566"><ele>3.0</ele><time>2022-11-10T16:58:25.0000000+00:00</time></trkpt><trkpt lat="39.36331873" lon="-0.40443605"><ele>3.0</ele><time>2022-11-10T16:58:26.0000000+00:00</time></trkpt><trkpt lat="39.36327439" lon="-0.40444896"><ele>3.0</ele><time>2022-11-10T16:58:27.0000000+00:00</time></trkpt><trkpt lat="39.3632282" lon="-0.40446153"><ele>2.8</ele><time>2022-11-10T16:58:28.0000000+00:00</time></trkpt><trkpt lat="39.36318437" lon="-0.40447687"><ele>2.8</ele><time>2022-11-10T16:58:29.0000000+00:00</time></trkpt><trkpt lat="39.36315042" lon="-0.40449841"><ele>2.8</ele><time>2022-11-10T16:58:30.0000000+00:00</time></trkpt><trkpt lat="39.36313232" lon="-0.40452858"><ele>2.8</ele><time>2022-11-10T16:58:31.0000000+00:00</time></trkpt><trkpt lat="39.36313064" lon="-0.40456421"><ele>3.0</ele><time>2022-11-10T16:58:32.0000000+00:00</time></trkpt><trkpt lat="39.36314187" lon="-0.40460126"><ele>3.0</ele><time>2022-11-10T16:58:33.0000000+00:00</time></trkpt><trkpt lat="39.36315377" lon="-0.40464333"><ele>3.0</ele><time>2022-11-10T16:58:34.0000000+00:00</time></trkpt><trkpt lat="39.36316693" lon="-0.40468918"><ele>3.0</ele><time>2022-11-10T16:58:35.0000000+00:00</time></trkpt><trkpt lat="39.36318261" lon="-0.40473713"><ele>3.0</ele><time>2022-11-10T16:58:36.0000000+00:00</time></trkpt><trkpt lat="39.36320105" lon="-0.40478817"><ele>3.0</ele><time>2022-11-10T16:58:37.0000000+00:00</time></trkpt><trkpt lat="39.36321706" lon="-0.4048393"><ele>3.0</ele><time>2022-11-10T16:58:38.0000000+00:00</time></trkpt><trkpt lat="39.36323139" lon="-0.40489144"><ele>3.0</ele><time>2022-11-10T16:58:39.0000000+00:00</time></trkpt><trkpt lat="39.36324631" lon="-0.40494701"><ele>3.0</ele><time>2022-11-10T16:58:40.0000000+00:00</time></trkpt><trkpt lat="39.36326332" lon="-0.40500543"><ele>3.0</ele><time>2022-11-10T16:58:41.0000000+00:00</time></trkpt><trkpt lat="39.36328244" lon="-0.40506444"><ele>3.0</ele><time>2022-11-10T16:58:42.0000000+00:00</time></trkpt><trkpt lat="39.36330004" lon="-0.40512638"><ele>3.0</ele><time>2022-11-10T16:58:43.0000000+00:00</time></trkpt><trkpt lat="39.36331538" lon="-0.40518816"><ele>3.0</ele><time>2022-11-10T16:58:44.0000000+00:00</time></trkpt><trkpt lat="39.36332996" lon="-0.40525169"><ele>3.0</ele><time>2022-11-10T16:58:45.0000000+00:00</time></trkpt><trkpt lat="39.36334144" lon="-0.40530265"><ele>3.2</ele><time>2022-11-10T16:58:46.0000000+00:00</time></trkpt><trkpt lat="39.36335846" lon="-0.40537097"><ele>3.2</ele><time>2022-11-10T16:58:47.0000000+00:00</time></trkpt><trkpt lat="39.36337698" lon="-0.40542796"><ele>3.2</ele><time>2022-11-10T16:58:48.0000000+00:00</time></trkpt><trkpt lat="39.3633945" lon="-0.40548496"><ele>3.2</ele><time>2022-11-10T16:58:49.0000000+00:00</time></trkpt><trkpt lat="39.36341185" lon="-0.40554422"><ele>3.2</ele><time>2022-11-10T16:58:50.0000000+00:00</time></trkpt><trkpt lat="39.36342677" lon="-0.40560331"><ele>3.2</ele><time>2022-11-10T16:58:51.0000000+00:00</time></trkpt><trkpt lat="39.3634406" lon="-0.40566408"><ele>3.2</ele><time>2022-11-10T16:58:52.0000000+00:00</time></trkpt><trkpt lat="39.36345669" lon="-0.40572963"><ele>3.2</ele><time>2022-11-10T16:58:53.0000000+00:00</time></trkpt><trkpt lat="39.36347212" lon="-0.40579241"><ele>3.4</ele><time>2022-11-10T16:58:54.0000000+00:00</time></trkpt><trkpt lat="39.36348612" lon="-0.40585485"><ele>3.4</ele><time>2022-11-10T16:58:55.0000000+00:00</time></trkpt><trkpt lat="39.36350112" lon="-0.40591755"><ele>3.4</ele><time>2022-11-10T16:58:56.0000000+00:00</time></trkpt><trkpt lat="39.36351663" lon="-0.40597874"><ele>3.6</ele><time>2022-11-10T16:58:57.0000000+00:00</time></trkpt><trkpt lat="39.36353289" lon="-0.40603641"><ele>3.6</ele><time>2022-11-10T16:58:58.0000000+00:00</time></trkpt><trkpt lat="39.36354814" lon="-0.40609432"><ele>3.6</ele><time>2022-11-10T16:58:59.0000000+00:00</time></trkpt><trkpt lat="39.36356633" lon="-0.40615191"><ele>3.8</ele><time>2022-11-10T16:59:00.0000000+00:00</time></trkpt><trkpt lat="39.36358569" lon="-0.40621067"><ele>3.8</ele><time>2022-11-10T16:59:01.0000000+00:00</time></trkpt><trkpt lat="39.36360296" lon="-0.40626959"><ele>3.8</ele><time>2022-11-10T16:59:02.0000000+00:00</time></trkpt><trkpt lat="39.36361981" lon="-0.40632726"><ele>3.8</ele><time>2022-11-10T16:59:03.0000000+00:00</time></trkpt><trkpt lat="39.36363632" lon="-0.40638627"><ele>3.8</ele><time>2022-11-10T16:59:04.0000000+00:00</time></trkpt><trkpt lat="39.36365325" lon="-0.40644762"><ele>4.0</ele><time>2022-11-10T16:59:05.0000000+00:00</time></trkpt><trkpt lat="39.36366901" lon="-0.40650906"><ele>4.0</ele><time>2022-11-10T16:59:06.0000000+00:00</time></trkpt><trkpt lat="39.36368569" lon="-0.40657226"><ele>4.0</ele><time>2022-11-10T16:59:07.0000000+00:00</time></trkpt><trkpt lat="39.36370304" lon="-0.40663848"><ele>4.0</ele><time>2022-11-10T16:59:08.0000000+00:00</time></trkpt><trkpt lat="39.36370304" lon="-0.40663848"><ele>4.2</ele><time>2022-11-10T16:59:09.0000000+00:00</time></trkpt><trkpt lat="39.36371704" lon="-0.4067057"><ele>4.2</ele><time>2022-11-10T16:59:10.0000000+00:00</time></trkpt><trkpt lat="39.36374109" lon="-0.40681047"><ele>4.2</ele><time>2022-11-10T16:59:11.0000000+00:00</time></trkpt><trkpt lat="39.36375836" lon="-0.4068782"><ele>4.2</ele><time>2022-11-10T16:59:12.0000000+00:00</time></trkpt><trkpt lat="39.3637711" lon="-0.40693377"><ele>4.2</ele><time>2022-11-10T16:59:13.0000000+00:00</time></trkpt><trkpt lat="39.36378392" lon="-0.40698708"><ele>4.2</ele><time>2022-11-10T16:59:14.0000000+00:00</time></trkpt><trkpt lat="39.36379532" lon="-0.40703611"><ele>4.2</ele><time>2022-11-10T16:59:15.0000000+00:00</time></trkpt><trkpt lat="39.36380731" lon="-0.40708104"><ele>4.2</ele><time>2022-11-10T16:59:16.0000000+00:00</time></trkpt><trkpt lat="39.36381376" lon="-0.40712111"><ele>4.4</ele><time>2022-11-10T16:59:17.0000000+00:00</time></trkpt><trkpt lat="39.36382022" lon="-0.40716142"><ele>4.4</ele><time>2022-11-10T16:59:18.0000000+00:00</time></trkpt><trkpt lat="39.36383002" lon="-0.4071983"><ele>4.6</ele><time>2022-11-10T16:59:19.0000000+00:00</time></trkpt><trkpt lat="39.36384318" lon="-0.40722932"><ele>4.6</ele><time>2022-11-10T16:59:20.0000000+00:00</time></trkpt><trkpt lat="39.36386724" lon="-0.40725279"><ele>4.6</ele><time>2022-11-10T16:59:21.0000000+00:00</time></trkpt><trkpt lat="39.36389582" lon="-0.40726662"><ele>4.6</ele><time>2022-11-10T16:59:22.0000000+00:00</time></trkpt><trkpt lat="39.36392306" lon="-0.40728305"><ele>4.6</ele><time>2022-11-10T16:59:23.0000000+00:00</time></trkpt><trkpt lat="39.3639488" lon="-0.40730836"><ele>4.6</ele><time>2022-11-10T16:59:24.0000000+00:00</time></trkpt><trkpt lat="39.36396984" lon="-0.40734113"><ele>4.6</ele><time>2022-11-10T16:59:25.0000000+00:00</time></trkpt><trkpt lat="39.36396984" lon="-0.40734113"><ele>4.6</ele><time>2022-11-10T16:59:26.0000000+00:00</time></trkpt><trkpt lat="39.36398777" lon="-0.40742579"><ele>4.6</ele><time>2022-11-10T16:59:27.0000000+00:00</time></trkpt><trkpt lat="39.36398232" lon="-0.40747038"><ele>4.6</ele><time>2022-11-10T16:59:28.0000000+00:00</time></trkpt><trkpt lat="39.36396531" lon="-0.4075107"><ele>4.6</ele><time>2022-11-10T16:59:29.0000000+00:00</time></trkpt><trkpt lat="39.36396531" lon="-0.4075107"><ele>4.4</ele><time>2022-11-10T16:59:30.0000000+00:00</time></trkpt><trkpt lat="39.36390563" lon="-0.40756627"><ele>4.4</ele><time>2022-11-10T16:59:31.0000000+00:00</time></trkpt><trkpt lat="39.36386967" lon="-0.40757264"><ele>4.4</ele><time>2022-11-10T16:59:32.0000000+00:00</time></trkpt><trkpt lat="39.3638317" lon="-0.40757029"><ele>4.4</ele><time>2022-11-10T16:59:33.0000000+00:00</time></trkpt><trkpt lat="39.36379205" lon="-0.4075682"><ele>4.2</ele><time>2022-11-10T16:59:34.0000000+00:00</time></trkpt><trkpt lat="39.36375274" lon="-0.40757591"><ele>4.2</ele><time>2022-11-10T16:59:35.0000000+00:00</time></trkpt><trkpt lat="39.3637193" lon="-0.40758756"><ele>4.2</ele><time>2022-11-10T16:59:36.0000000+00:00</time></trkpt><trkpt lat="39.36369114" lon="-0.4075936"><ele>4.2</ele><time>2022-11-10T16:59:37.0000000+00:00</time></trkpt><trkpt lat="39.36367295" lon="-0.40759946"><ele>4.2</ele><time>2022-11-10T16:59:38.0000000+00:00</time></trkpt><trkpt lat="39.3636561" lon="-0.40761103"><ele>4.2</ele><time>2022-11-10T16:59:39.0000000+00:00</time></trkpt><trkpt lat="39.36364328" lon="-0.40762687"><ele>4.2</ele><time>2022-11-10T16:59:40.0000000+00:00</time></trkpt><trkpt lat="39.36363934" lon="-0.40763794"><ele>4.2</ele><time>2022-11-10T16:59:41.0000000+00:00</time></trkpt><trkpt lat="39.36363724" lon="-0.40764699"><ele>4.2</ele><time>2022-11-10T16:59:42.0000000+00:00</time></trkpt><trkpt lat="39.36363481" lon="-0.40765503"><ele>4.2</ele><time>2022-11-10T16:59:43.0000000+00:00</time></trkpt><trkpt lat="39.36362718" lon="-0.40766392"><ele>4.0</ele><time>2022-11-10T16:59:44.0000000+00:00</time></trkpt><trkpt lat="39.36360455" lon="-0.40766836"><ele>4.0</ele><time>2022-11-10T16:59:45.0000000+00:00</time></trkpt><trkpt lat="39.36357806" lon="-0.40766602"><ele>4.0</ele><time>2022-11-10T16:59:46.0000000+00:00</time></trkpt><trkpt lat="39.36354345" lon="-0.40766903"><ele>4.0</ele><time>2022-11-10T16:59:47.0000000+00:00</time></trkpt><trkpt lat="39.3635064" lon="-0.4076754"><ele>4.2</ele><time>2022-11-10T16:59:48.0000000+00:00</time></trkpt><trkpt lat="39.36347145" lon="-0.40768731"><ele>4.2</ele><time>2022-11-10T16:59:49.0000000+00:00</time></trkpt><trkpt lat="39.36343121" lon="-0.40769929"><ele>4.2</ele><time>2022-11-10T16:59:50.0000000+00:00</time></trkpt><trkpt lat="39.36338788" lon="-0.40770281"><ele>4.2</ele><time>2022-11-10T16:59:51.0000000+00:00</time></trkpt><trkpt lat="39.36334765" lon="-0.40770834"><ele>4.2</ele><time>2022-11-10T16:59:52.0000000+00:00</time></trkpt><trkpt lat="39.36330934" lon="-0.40771765"><ele>4.2</ele><time>2022-11-10T16:59:53.0000000+00:00</time></trkpt><trkpt lat="39.36327062" lon="-0.40772536"><ele>4.2</ele><time>2022-11-10T16:59:54.0000000+00:00</time></trkpt><trkpt lat="39.36323164" lon="-0.40773517"><ele>4.2</ele><time>2022-11-10T16:59:55.0000000+00:00</time></trkpt><trkpt lat="39.36319266" lon="-0.40774975"><ele>4.2</ele><time>2022-11-10T16:59:56.0000000+00:00</time></trkpt><trkpt lat="39.3631562" lon="-0.40776459"><ele>4.2</ele><time>2022-11-10T16:59:57.0000000+00:00</time></trkpt><trkpt lat="39.36311614" lon="-0.40777708"><ele>4.0</ele><time>2022-11-10T16:59:58.0000000+00:00</time></trkpt><trkpt lat="39.36307062" lon="-0.40779518"><ele>4.0</ele><time>2022-11-10T16:59:59.0000000+00:00</time></trkpt><trkpt lat="39.36303852" lon="-0.40780859"><ele>3.8</ele><time>2022-11-10T17:00:00.0000000+00:00</time></trkpt><trkpt lat="39.36299251" lon="-0.40781907"><ele>3.8</ele><time>2022-11-10T17:00:01.0000000+00:00</time></trkpt><trkpt lat="39.36295571" lon="-0.40782502"><ele>3.8</ele><time>2022-11-10T17:00:02.0000000+00:00</time></trkpt><trkpt lat="39.36292461" lon="-0.40783416"><ele>3.8</ele><time>2022-11-10T17:00:03.0000000+00:00</time></trkpt><trkpt lat="39.36289469" lon="-0.40786978"><ele>4.0</ele><time>2022-11-10T17:00:04.0000000+00:00</time></trkpt><trkpt lat="39.36287063" lon="-0.40790574"><ele>4.0</ele><time>2022-11-10T17:00:05.0000000+00:00</time></trkpt><trkpt lat="39.36286049" lon="-0.40792611"><ele>4.0</ele><time>2022-11-10T17:00:06.0000000+00:00</time></trkpt><trkpt lat="39.36286124" lon="-0.40794865"><ele>4.2</ele><time>2022-11-10T17:00:07.0000000+00:00</time></trkpt><trkpt lat="39.36286518" lon="-0.40797355"><ele>4.2</ele><time>2022-11-10T17:00:08.0000000+00:00</time></trkpt><trkpt lat="39.3628703" lon="-0.40800515"><ele>4.0</ele><time>2022-11-10T17:00:09.0000000+00:00</time></trkpt><trkpt lat="39.36287826" lon="-0.4080432"><ele>4.0</ele><time>2022-11-10T17:00:10.0000000+00:00</time></trkpt><trkpt lat="39.36287826" lon="-0.4080432"><ele>4.0</ele><time>2022-11-10T17:00:11.0000000+00:00</time></trkpt><trkpt lat="39.36290483" lon="-0.40813926"><ele>4.0</ele><time>2022-11-10T17:00:12.0000000+00:00</time></trkpt><trkpt lat="39.36293014" lon="-0.40819542"><ele>4.0</ele><time>2022-11-10T17:00:13.0000000+00:00</time></trkpt><trkpt lat="39.36294607" lon="-0.40824076"><ele>4.0</ele><time>2022-11-10T17:00:14.0000000+00:00</time></trkpt><trkpt lat="39.36296342" lon="-0.40831159"><ele>4.0</ele><time>2022-11-10T17:00:15.0000000+00:00</time></trkpt><trkpt lat="39.36295847" lon="-0.40839356"><ele>4.0</ele><time>2022-11-10T17:00:16.0000000+00:00</time></trkpt><trkpt lat="39.36294615" lon="-0.40846196"><ele>4.0</ele><time>2022-11-10T17:00:17.0000000+00:00</time></trkpt><trkpt lat="39.36294909" lon="-0.40854947"><ele>4.0</ele><time>2022-11-10T17:00:18.0000000+00:00</time></trkpt><trkpt lat="39.3629537" lon="-0.40859372"><ele>4.0</ele><time>2022-11-10T17:00:19.0000000+00:00</time></trkpt><trkpt lat="39.36296317" lon="-0.40863262"><ele>4.0</ele><time>2022-11-10T17:00:20.0000000+00:00</time></trkpt><trkpt lat="39.36297876" lon="-0.40866095"><ele>4.0</ele><time>2022-11-10T17:00:21.0000000+00:00</time></trkpt><trkpt lat="39.36301757" lon="-0.40867318"><ele>4.2</ele><time>2022-11-10T17:00:22.0000000+00:00</time></trkpt><trkpt lat="39.36305026" lon="-0.40868618"><ele>4.0</ele><time>2022-11-10T17:00:23.0000000+00:00</time></trkpt><trkpt lat="39.36306199" lon="-0.40871711"><ele>4.0</ele><time>2022-11-10T17:00:24.0000000+00:00</time></trkpt><trkpt lat="39.36307188" lon="-0.40874703"><ele>4.0</ele><time>2022-11-10T17:00:25.0000000+00:00</time></trkpt><trkpt lat="39.36307808" lon="-0.40877678"><ele>4.0</ele><time>2022-11-10T17:00:26.0000000+00:00</time></trkpt><trkpt lat="39.36308621" lon="-0.40880369"><ele>4.0</ele><time>2022-11-10T17:00:27.0000000+00:00</time></trkpt><trkpt lat="39.36309233" lon="-0.40882733"><ele>4.0</ele><time>2022-11-10T17:00:28.0000000+00:00</time></trkpt><trkpt lat="39.36309476" lon="-0.40884518"><ele>4.0</ele><time>2022-11-10T17:00:29.0000000+00:00</time></trkpt><trkpt lat="39.36309351" lon="-0.4088606"><ele>4.0</ele><time>2022-11-10T17:00:30.0000000+00:00</time></trkpt><trkpt lat="39.36309242" lon="-0.40888064"><ele>4.0</ele><time>2022-11-10T17:00:31.0000000+00:00</time></trkpt><trkpt lat="39.36309217" lon="-0.40889103"><ele>4.0</ele><time>2022-11-10T17:00:32.0000000+00:00</time></trkpt><trkpt lat="39.36308982" lon="-0.40889078"><ele>3.8</ele><time>2022-11-10T17:00:33.0000000+00:00</time></trkpt><trkpt lat="39.36307255" lon="-0.40890419"><ele>3.8</ele><time>2022-11-10T17:00:34.0000000+00:00</time></trkpt><trkpt lat="39.36304573" lon="-0.40892565"><ele>4.0</ele><time>2022-11-10T17:00:35.0000000+00:00</time></trkpt><trkpt lat="39.36300835" lon="-0.40894962"><ele>4.0</ele><time>2022-11-10T17:00:36.0000000+00:00</time></trkpt><trkpt lat="39.36295655" lon="-0.40897468"><ele>4.0</ele><time>2022-11-10T17:00:37.0000000+00:00</time></trkpt><trkpt lat="39.36288195" lon="-0.4090015"><ele>4.0</ele><time>2022-11-10T17:00:38.0000000+00:00</time></trkpt><trkpt lat="39.36280953" lon="-0.40902774"><ele>4.2</ele><time>2022-11-10T17:00:39.0000000+00:00</time></trkpt><trkpt lat="39.3627584" lon="-0.40904677"><ele>4.2</ele><time>2022-11-10T17:00:40.0000000+00:00</time></trkpt><trkpt lat="39.36272596" lon="-0.40907024"><ele>4.2</ele><time>2022-11-10T17:00:41.0000000+00:00</time></trkpt><trkpt lat="39.36270149" lon="-0.40908742"><ele>4.2</ele><time>2022-11-10T17:00:42.0000000+00:00</time></trkpt><trkpt lat="39.3626698" lon="-0.40909966"><ele>4.2</ele><time>2022-11-10T17:00:43.0000000+00:00</time></trkpt><trkpt lat="39.36263728" lon="-0.40911726"><ele>4.0</ele><time>2022-11-10T17:00:44.0000000+00:00</time></trkpt><trkpt lat="39.3625983" lon="-0.40913587"><ele>3.8</ele><time>2022-11-10T17:00:45.0000000+00:00</time></trkpt><trkpt lat="39.36256771" lon="-0.40915875"><ele>3.6</ele><time>2022-11-10T17:00:46.0000000+00:00</time></trkpt><trkpt lat="39.36254298" lon="-0.40918993"><ele>3.6</ele><time>2022-11-10T17:00:47.0000000+00:00</time></trkpt><trkpt lat="39.36252588" lon="-0.40922974"><ele>3.4</ele><time>2022-11-10T17:00:48.0000000+00:00</time></trkpt><trkpt lat="39.36249764" lon="-0.40925162"><ele>3.4</ele><time>2022-11-10T17:00:49.0000000+00:00</time></trkpt><trkpt lat="39.36245606" lon="-0.40927551"><ele>3.4</ele><time>2022-11-10T17:00:50.0000000+00:00</time></trkpt><trkpt lat="39.36240527" lon="-0.40929152"><ele>3.4</ele><time>2022-11-10T17:00:51.0000000+00:00</time></trkpt><trkpt lat="39.36236361" lon="-0.40930526"><ele>3.2</ele><time>2022-11-10T17:00:52.0000000+00:00</time></trkpt><trkpt lat="39.36232782" lon="-0.40932354"><ele>3.2</ele><time>2022-11-10T17:00:53.0000000+00:00</time></trkpt><trkpt lat="39.36228189" lon="-0.40933033"><ele>3.2</ele><time>2022-11-10T17:00:54.0000000+00:00</time></trkpt><trkpt lat="39.36223243" lon="-0.4093294"><ele>3.2</ele><time>2022-11-10T17:00:55.0000000+00:00</time></trkpt><trkpt lat="39.36218969" lon="-0.4093258"><ele>3.2</ele><time>2022-11-10T17:00:56.0000000+00:00</time></trkpt><trkpt lat="39.36214685" lon="-0.40935388"><ele>3.2</ele><time>2022-11-10T17:00:57.0000000+00:00</time></trkpt><trkpt lat="39.36210897" lon="-0.40937307"><ele>3.2</ele><time>2022-11-10T17:00:58.0000000+00:00</time></trkpt><trkpt lat="39.36207276" lon="-0.40938506"><ele>3.2</ele><time>2022-11-10T17:00:59.0000000+00:00</time></trkpt><trkpt lat="39.36202951" lon="-0.40939604"><ele>3.2</ele><time>2022-11-10T17:01:00.0000000+00:00</time></trkpt><trkpt lat="39.36198852" lon="-0.40938682"><ele>3.2</ele><time>2022-11-10T17:01:01.0000000+00:00</time></trkpt><trkpt lat="39.36195156" lon="-0.40940777"><ele>3.2</ele><time>2022-11-10T17:01:02.0000000+00:00</time></trkpt><trkpt lat="39.36191878" lon="-0.40941976"><ele>3.2</ele><time>2022-11-10T17:01:03.0000000+00:00</time></trkpt><trkpt lat="39.36188869" lon="-0.40942269"><ele>3.2</ele><time>2022-11-10T17:01:04.0000000+00:00</time></trkpt><trkpt lat="39.36186011" lon="-0.40944289"><ele>3.2</ele><time>2022-11-10T17:01:05.0000000+00:00</time></trkpt><trkpt lat="39.36183857" lon="-0.40946695"><ele>3.2</ele><time>2022-11-10T17:01:06.0000000+00:00</time></trkpt><trkpt lat="39.361826" lon="-0.40949268"><ele>3.2</ele><time>2022-11-10T17:01:07.0000000+00:00</time></trkpt><trkpt lat="39.36181451" lon="-0.40952864"><ele>3.2</ele><time>2022-11-10T17:01:08.0000000+00:00</time></trkpt><trkpt lat="39.3618011" lon="-0.40957491"><ele>3.2</ele><time>2022-11-10T17:01:09.0000000+00:00</time></trkpt><trkpt lat="39.36178702" lon="-0.40960508"><ele>3.2</ele><time>2022-11-10T17:01:10.0000000+00:00</time></trkpt><trkpt lat="39.36177059" lon="-0.40964322"><ele>3.2</ele><time>2022-11-10T17:01:11.0000000+00:00</time></trkpt><trkpt lat="39.36176171" lon="-0.40968631"><ele>3.2</ele><time>2022-11-10T17:01:12.0000000+00:00</time></trkpt><trkpt lat="39.36175291" lon="-0.40973408"><ele>3.2</ele><time>2022-11-10T17:01:13.0000000+00:00</time></trkpt><trkpt lat="39.36173162" lon="-0.40977373"><ele>3.2</ele><time>2022-11-10T17:01:14.0000000+00:00</time></trkpt><trkpt lat="39.36171192" lon="-0.40982578"><ele>3.2</ele><time>2022-11-10T17:01:15.0000000+00:00</time></trkpt><trkpt lat="39.36169566" lon="-0.40987289"><ele>3.2</ele><time>2022-11-10T17:01:16.0000000+00:00</time></trkpt><trkpt lat="39.36167747" lon="-0.40991069"><ele>3.2</ele><time>2022-11-10T17:01:17.0000000+00:00</time></trkpt><trkpt lat="39.36166322" lon="-0.40994765"><ele>3.4</ele><time>2022-11-10T17:01:18.0000000+00:00</time></trkpt><trkpt lat="39.36164553" lon="-0.40998713"><ele>3.4</ele><time>2022-11-10T17:01:19.0000000+00:00</time></trkpt><trkpt lat="39.36161737" lon="-0.41002753"><ele>3.2</ele><time>2022-11-10T17:01:20.0000000+00:00</time></trkpt><trkpt lat="39.36159843" lon="-0.41006181"><ele>3.2</ele><time>2022-11-10T17:01:21.0000000+00:00</time></trkpt><trkpt lat="39.36157228" lon="-0.41011051"><ele>3.2</ele><time>2022-11-10T17:01:22.0000000+00:00</time></trkpt><trkpt lat="39.3615587" lon="-0.4101541"><ele>3.2</ele><time>2022-11-10T17:01:23.0000000+00:00</time></trkpt><trkpt lat="39.36154646" lon="-0.4101909"><ele>3.0</ele><time>2022-11-10T17:01:24.0000000+00:00</time></trkpt><trkpt lat="39.36152383" lon="-0.41022996"><ele>3.0</ele><time>2022-11-10T17:01:25.0000000+00:00</time></trkpt><trkpt lat="39.36149281" lon="-0.4102888"><ele>2.8</ele><time>2022-11-10T17:01:26.0000000+00:00</time></trkpt><trkpt lat="39.36146725" lon="-0.41033263"><ele>2.8</ele><time>2022-11-10T17:01:27.0000000+00:00</time></trkpt><trkpt lat="39.3614525" lon="-0.41038116"><ele>2.8</ele><time>2022-11-10T17:01:28.0000000+00:00</time></trkpt><trkpt lat="39.36144345" lon="-0.41043246"><ele>2.8</ele><time>2022-11-10T17:01:29.0000000+00:00</time></trkpt><trkpt lat="39.36142216" lon="-0.4104768"><ele>2.8</ele><time>2022-11-10T17:01:30.0000000+00:00</time></trkpt><trkpt lat="39.36139994" lon="-0.41051888"><ele>2.8</ele><time>2022-11-10T17:01:31.0000000+00:00</time></trkpt><trkpt lat="39.36137471" lon="-0.41056523"><ele>2.8</ele><time>2022-11-10T17:01:32.0000000+00:00</time></trkpt><trkpt lat="39.36135376" lon="-0.41060186"><ele>2.8</ele><time>2022-11-10T17:01:33.0000000+00:00</time></trkpt><trkpt lat="39.3613297" lon="-0.41063229"><ele>2.8</ele><time>2022-11-10T17:01:34.0000000+00:00</time></trkpt><trkpt lat="39.36130657" lon="-0.41065953"><ele>2.8</ele><time>2022-11-10T17:01:35.0000000+00:00</time></trkpt><trkpt lat="39.3612857" lon="-0.4106804"><ele>2.6</ele><time>2022-11-10T17:01:36.0000000+00:00</time></trkpt><trkpt lat="39.36126625" lon="-0.41068962"><ele>2.6</ele><time>2022-11-10T17:01:37.0000000+00:00</time></trkpt><trkpt lat="39.36124697" lon="-0.41069171"><ele>2.6</ele><time>2022-11-10T17:01:38.0000000+00:00</time></trkpt><trkpt lat="39.36124178" lon="-0.41069297"><ele>2.6</ele><time>2022-11-10T17:01:39.0000000+00:00</time></trkpt><trkpt lat="39.36123231" lon="-0.41068928"><ele>2.6</ele><time>2022-11-10T17:01:40.0000000+00:00</time></trkpt><trkpt lat="39.36122946" lon="-0.41068819"><ele>2.6</ele><time>2022-11-10T17:01:41.0000000+00:00</time></trkpt><trkpt lat="39.36122946" lon="-0.41068819"><ele>2.6</ele><time>2022-11-10T17:01:42.0000000+00:00</time></trkpt><trkpt lat="39.36122946" lon="-0.41068819"><ele>2.6</ele><time>2022-11-10T17:01:43.0000000+00:00</time></trkpt><trkpt lat="39.36122946" lon="-0.41068819"><ele>2.6</ele><time>2022-11-10T17:01:44.0000000+00:00</time></trkpt><trkpt lat="39.36122946" lon="-0.41068819"><ele>2.6</ele><time>2022-11-10T17:01:45.0000000+00:00</time></trkpt><trkpt lat="39.36122946" lon="-0.41068819"><ele>2.6</ele><time>2022-11-10T17:01:46.0000000+00:00</time></trkpt><trkpt lat="39.36122946" lon="-0.41068819"><ele>2.6</ele><time>2022-11-10T17:01:47.0000000+00:00</time></trkpt><trkpt lat="39.36122946" lon="-0.41068819"><ele>2.6</ele><time>2022-11-10T17:01:48.0000000+00:00</time></trkpt><trkpt lat="39.36122946" lon="-0.41068819"><ele>2.6</ele><time>2022-11-10T17:01:49.0000000+00:00</time></trkpt><trkpt lat="39.36123356" lon="-0.41069264"><ele>2.6</ele><time>2022-11-10T17:01:50.0000000+00:00</time></trkpt><trkpt lat="39.36123113" lon="-0.41070026"><ele>2.6</ele><time>2022-11-10T17:01:51.0000000+00:00</time></trkpt><trkpt lat="39.36121118" lon="-0.41069674"><ele>2.6</ele><time>2022-11-10T17:01:52.0000000+00:00</time></trkpt><trkpt lat="39.36118562" lon="-0.41068501"><ele>2.6</ele><time>2022-11-10T17:01:53.0000000+00:00</time></trkpt><trkpt lat="39.36116274" lon="-0.41067386"><ele>2.6</ele><time>2022-11-10T17:01:54.0000000+00:00</time></trkpt><trkpt lat="39.36113734" lon="-0.41066632"><ele>2.6</ele><time>2022-11-10T17:01:55.0000000+00:00</time></trkpt><trkpt lat="39.36111253" lon="-0.41065869"><ele>2.6</ele><time>2022-11-10T17:01:56.0000000+00:00</time></trkpt><trkpt lat="39.3610904" lon="-0.41064427"><ele>2.8</ele><time>2022-11-10T17:01:57.0000000+00:00</time></trkpt><trkpt lat="39.36106869" lon="-0.41063597"><ele>2.8</ele><time>2022-11-10T17:01:58.0000000+00:00</time></trkpt><trkpt lat="39.36104162" lon="-0.41064654"><ele>2.8</ele><time>2022-11-10T17:01:59.0000000+00:00</time></trkpt><trkpt lat="39.36101412" lon="-0.41066313"><ele>2.8</ele><time>2022-11-10T17:02:00.0000000+00:00</time></trkpt><trkpt lat="39.36100281" lon="-0.41069205"><ele>2.8</ele><time>2022-11-10T17:02:01.0000000+00:00</time></trkpt><trkpt lat="39.36096777" lon="-0.41074192"><ele>2.8</ele><time>2022-11-10T17:02:02.0000000+00:00</time></trkpt><trkpt lat="39.36094347" lon="-0.41080814"><ele>2.8</ele><time>2022-11-10T17:02:03.0000000+00:00</time></trkpt><trkpt lat="39.36091882" lon="-0.41086866"><ele>2.8</ele><time>2022-11-10T17:02:04.0000000+00:00</time></trkpt><trkpt lat="39.36088446" lon="-0.41091333"><ele>2.8</ele><time>2022-11-10T17:02:05.0000000+00:00</time></trkpt><trkpt lat="39.36086375" lon="-0.41095851"><ele>2.8</ele><time>2022-11-10T17:02:06.0000000+00:00</time></trkpt><trkpt lat="39.36084271" lon="-0.41100319"><ele>2.8</ele><time>2022-11-10T17:02:07.0000000+00:00</time></trkpt><trkpt lat="39.36081715" lon="-0.4110404"><ele>3.0</ele><time>2022-11-10T17:02:08.0000000+00:00</time></trkpt><trkpt lat="39.36081715" lon="-0.4110404"><ele>3.0</ele><time>2022-11-10T17:02:09.0000000+00:00</time></trkpt><trkpt lat="39.36079494" lon="-0.41114576"><ele>3.0</ele><time>2022-11-10T17:02:10.0000000+00:00</time></trkpt><trkpt lat="39.36079762" lon="-0.41118407"><ele>3.0</ele><time>2022-11-10T17:02:11.0000000+00:00</time></trkpt><trkpt lat="39.36078111" lon="-0.41120754"><ele>2.8</ele><time>2022-11-10T17:02:12.0000000+00:00</time></trkpt><trkpt lat="39.36076351" lon="-0.41123092"><ele>2.8</ele><time>2022-11-10T17:02:13.0000000+00:00</time></trkpt><trkpt lat="39.36074213" lon="-0.41125246"><ele>2.8</ele><time>2022-11-10T17:02:14.0000000+00:00</time></trkpt><trkpt lat="39.36071481" lon="-0.41128716"><ele>2.8</ele><time>2022-11-10T17:02:15.0000000+00:00</time></trkpt><trkpt lat="39.36068857" lon="-0.41130829"><ele>2.8</ele><time>2022-11-10T17:02:16.0000000+00:00</time></trkpt><trkpt lat="39.36065437" lon="-0.41133771"><ele>2.8</ele><time>2022-11-10T17:02:17.0000000+00:00</time></trkpt><trkpt lat="39.36061003" lon="-0.41137325"><ele>2.8</ele><time>2022-11-10T17:02:18.0000000+00:00</time></trkpt><trkpt lat="39.36056863" lon="-0.41140535"><ele>2.8</ele><time>2022-11-10T17:02:19.0000000+00:00</time></trkpt><trkpt lat="39.36052211" lon="-0.41142253"><ele>3.0</ele><time>2022-11-10T17:02:20.0000000+00:00</time></trkpt><trkpt lat="39.36047081" lon="-0.41144785"><ele>3.0</ele><time>2022-11-10T17:02:21.0000000+00:00</time></trkpt><trkpt lat="39.36044248" lon="-0.41147425"><ele>3.0</ele><time>2022-11-10T17:02:22.0000000+00:00</time></trkpt><trkpt lat="39.36041465" lon="-0.4114854"><ele>3.0</ele><time>2022-11-10T17:02:23.0000000+00:00</time></trkpt><trkpt lat="39.36038573" lon="-0.41150996"><ele>3.0</ele><time>2022-11-10T17:02:24.0000000+00:00</time></trkpt><trkpt lat="39.36036428" lon="-0.41152362"><ele>3.0</ele><time>2022-11-10T17:02:25.0000000+00:00</time></trkpt><trkpt lat="39.36034508" lon="-0.41153527"><ele>3.0</ele><time>2022-11-10T17:02:26.0000000+00:00</time></trkpt><trkpt lat="39.36032815" lon="-0.41155011"><ele>2.8</ele><time>2022-11-10T17:02:27.0000000+00:00</time></trkpt><trkpt lat="39.36030569" lon="-0.41156821"><ele>2.8</ele><time>2022-11-10T17:02:28.0000000+00:00</time></trkpt><trkpt lat="39.36027727" lon="-0.41158799"><ele>2.8</ele><time>2022-11-10T17:02:29.0000000+00:00</time></trkpt><trkpt lat="39.36025003" lon="-0.41161607"><ele>2.6</ele><time>2022-11-10T17:02:30.0000000+00:00</time></trkpt><trkpt lat="39.360244" lon="-0.41162068"><ele>2.6</ele><time>2022-11-10T17:02:31.0000000+00:00</time></trkpt><trkpt lat="39.36024433" lon="-0.41162194"><ele>2.6</ele><time>2022-11-10T17:02:32.0000000+00:00</time></trkpt><trkpt lat="39.36024802" lon="-0.4116159"><ele>2.6</ele><time>2022-11-10T17:02:33.0000000+00:00</time></trkpt><trkpt lat="39.36024802" lon="-0.4116159"><ele>2.6</ele><time>2022-11-10T17:02:34.0000000+00:00</time></trkpt><trkpt lat="39.36024374" lon="-0.4116237"><ele>2.4</ele><time>2022-11-10T17:02:35.0000000+00:00</time></trkpt><trkpt lat="39.36022975" lon="-0.41163753"><ele>2.4</ele><time>2022-11-10T17:02:36.0000000+00:00</time></trkpt><trkpt lat="39.36020569" lon="-0.41164423"><ele>2.6</ele><time>2022-11-10T17:02:37.0000000+00:00</time></trkpt><trkpt lat="39.36019211" lon="-0.41164884"><ele>2.6</ele><time>2022-11-10T17:02:38.0000000+00:00</time></trkpt><trkpt lat="39.36018172" lon="-0.41165371"><ele>2.6</ele><time>2022-11-10T17:02:39.0000000+00:00</time></trkpt><trkpt lat="39.36017216" lon="-0.41165153"><ele>2.6</ele><time>2022-11-10T17:02:40.0000000+00:00</time></trkpt><trkpt lat="39.36016345" lon="-0.41165303"><ele>2.8</ele><time>2022-11-10T17:02:41.0000000+00:00</time></trkpt><trkpt lat="39.36014744" lon="-0.4116667"><ele>2.6</ele><time>2022-11-10T17:02:42.0000000+00:00</time></trkpt><trkpt lat="39.36012422" lon="-0.41168941"><ele>2.6</ele><time>2022-11-10T17:02:43.0000000+00:00</time></trkpt><trkpt lat="39.3601036" lon="-0.41172973"><ele>2.8</ele><time>2022-11-10T17:02:44.0000000+00:00</time></trkpt><trkpt lat="39.36008122" lon="-0.41176611"><ele>2.8</ele><time>2022-11-10T17:02:45.0000000+00:00</time></trkpt><trkpt lat="39.36006135" lon="-0.41179896"><ele>2.8</ele><time>2022-11-10T17:02:46.0000000+00:00</time></trkpt><trkpt lat="39.36004023" lon="-0.41182696"><ele>3.0</ele><time>2022-11-10T17:02:47.0000000+00:00</time></trkpt><trkpt lat="39.36001752" lon="-0.41184892"><ele>3.0</ele><time>2022-11-10T17:02:48.0000000+00:00</time></trkpt><trkpt lat="39.35999505" lon="-0.41187222"><ele>3.0</ele><time>2022-11-10T17:02:49.0000000+00:00</time></trkpt><trkpt lat="39.35997519" lon="-0.41190231"><ele>3.2</ele><time>2022-11-10T17:02:50.0000000+00:00</time></trkpt><trkpt lat="39.35995515" lon="-0.41193274"><ele>3.2</ele><time>2022-11-10T17:02:51.0000000+00:00</time></trkpt><trkpt lat="39.35993328" lon="-0.41196216"><ele>3.2</ele><time>2022-11-10T17:02:52.0000000+00:00</time></trkpt><trkpt lat="39.35991006" lon="-0.41199753"><ele>3.2</ele><time>2022-11-10T17:02:53.0000000+00:00</time></trkpt><trkpt lat="39.35988617" lon="-0.41202108"><ele>3.2</ele><time>2022-11-10T17:02:54.0000000+00:00</time></trkpt><trkpt lat="39.35985885" lon="-0.41204338"><ele>3.2</ele><time>2022-11-10T17:02:55.0000000+00:00</time></trkpt><trkpt lat="39.35983052" lon="-0.41207121"><ele>3.2</ele><time>2022-11-10T17:02:56.0000000+00:00</time></trkpt><trkpt lat="39.35980478" lon="-0.41209719"><ele>3.2</ele><time>2022-11-10T17:02:57.0000000+00:00</time></trkpt><trkpt lat="39.35978131" lon="-0.41212385"><ele>3.4</ele><time>2022-11-10T17:02:58.0000000+00:00</time></trkpt><trkpt lat="39.35975726" lon="-0.41214966"><ele>3.4</ele><time>2022-11-10T17:02:59.0000000+00:00</time></trkpt><trkpt lat="39.35973438" lon="-0.41217213"><ele>3.6</ele><time>2022-11-10T17:03:00.0000000+00:00</time></trkpt><trkpt lat="39.35971418" lon="-0.4121956"><ele>3.6</ele><time>2022-11-10T17:03:01.0000000+00:00</time></trkpt><trkpt lat="39.35969146" lon="-0.41221798"><ele>3.8</ele><time>2022-11-10T17:03:02.0000000+00:00</time></trkpt><trkpt lat="39.3596674" lon="-0.41223574"><ele>3.8</ele><time>2022-11-10T17:03:03.0000000+00:00</time></trkpt><trkpt lat="39.35964117" lon="-0.41225452"><ele>3.8</ele><time>2022-11-10T17:03:04.0000000+00:00</time></trkpt><trkpt lat="39.35962248" lon="-0.41227346"><ele>3.8</ele><time>2022-11-10T17:03:05.0000000+00:00</time></trkpt><trkpt lat="39.35960731" lon="-0.41228931"><ele>4.0</ele><time>2022-11-10T17:03:06.0000000+00:00</time></trkpt><trkpt lat="39.35959498" lon="-0.41230791"><ele>4.0</ele><time>2022-11-10T17:03:07.0000000+00:00</time></trkpt><trkpt lat="39.35958711" lon="-0.41232845"><ele>4.0</ele><time>2022-11-10T17:03:08.0000000+00:00</time></trkpt><trkpt lat="39.35958937" lon="-0.41234957"><ele>4.0</ele><time>2022-11-10T17:03:09.0000000+00:00</time></trkpt><trkpt lat="39.35959792" lon="-0.41237363"><ele>4.2</ele><time>2022-11-10T17:03:10.0000000+00:00</time></trkpt><trkpt lat="39.35960705" lon="-0.41239953"><ele>4.2</ele><time>2022-11-10T17:03:11.0000000+00:00</time></trkpt><trkpt lat="39.3596042" lon="-0.41242526"><ele>4.2</ele><time>2022-11-10T17:03:12.0000000+00:00</time></trkpt><trkpt lat="39.35961862" lon="-0.41245996"><ele>4.2</ele><time>2022-11-10T17:03:13.0000000+00:00</time></trkpt><trkpt lat="39.35963052" lon="-0.41249164"><ele>4.2</ele><time>2022-11-10T17:03:14.0000000+00:00</time></trkpt><trkpt lat="39.35964678" lon="-0.4125219"><ele>4.2</ele><time>2022-11-10T17:03:15.0000000+00:00</time></trkpt><trkpt lat="39.35966187" lon="-0.41254914"><ele>4.2</ele><time>2022-11-10T17:03:16.0000000+00:00</time></trkpt><trkpt lat="39.35968375" lon="-0.41258485"><ele>4.4</ele><time>2022-11-10T17:03:17.0000000+00:00</time></trkpt><trkpt lat="39.35971133" lon="-0.4126364"><ele>4.4</ele><time>2022-11-10T17:03:18.0000000+00:00</time></trkpt><trkpt lat="39.35974293" lon="-0.4126846"><ele>4.6</ele><time>2022-11-10T17:03:19.0000000+00:00</time></trkpt><trkpt lat="39.35979649" lon="-0.41273547"><ele>4.6</ele><time>2022-11-10T17:03:20.0000000+00:00</time></trkpt><trkpt lat="39.35983202" lon="-0.41278652"><ele>4.8</ele><time>2022-11-10T17:03:21.0000000+00:00</time></trkpt><trkpt lat="39.35987301" lon="-0.41283069"><ele>4.8</ele><time>2022-11-10T17:03:22.0000000+00:00</time></trkpt><trkpt lat="39.35990042" lon="-0.41286154"><ele>5.0</ele><time>2022-11-10T17:03:23.0000000+00:00</time></trkpt><trkpt lat="39.35992682" lon="-0.4129073"><ele>5.0</ele><time>2022-11-10T17:03:24.0000000+00:00</time></trkpt><trkpt lat="39.35995189" lon="-0.41295257"><ele>5.0</ele><time>2022-11-10T17:03:25.0000000+00:00</time></trkpt><trkpt lat="39.35997175" lon="-0.41297997"><ele>5.0</ele><time>2022-11-10T17:03:26.0000000+00:00</time></trkpt><trkpt lat="39.35999841" lon="-0.41302599"><ele>5.2</ele><time>2022-11-10T17:03:27.0000000+00:00</time></trkpt><trkpt lat="39.36002883" lon="-0.4130793"><ele>5.2</ele><time>2022-11-10T17:03:28.0000000+00:00</time></trkpt><trkpt lat="39.36005792" lon="-0.41316102"><ele>5.2</ele><time>2022-11-10T17:03:29.0000000+00:00</time></trkpt><trkpt lat="39.36007745" lon="-0.41322171"><ele>5.2</ele><time>2022-11-10T17:03:30.0000000+00:00</time></trkpt><trkpt lat="39.36010955" lon="-0.4132777"><ele>5.2</ele><time>2022-11-10T17:03:31.0000000+00:00</time></trkpt><trkpt lat="39.36015246" lon="-0.41333763"><ele>5.4</ele><time>2022-11-10T17:03:32.0000000+00:00</time></trkpt><trkpt lat="39.36020108" lon="-0.41342178"><ele>5.4</ele><time>2022-11-10T17:03:33.0000000+00:00</time></trkpt><trkpt lat="39.36027023" lon="-0.41346956"><ele>5.6</ele><time>2022-11-10T17:03:34.0000000+00:00</time></trkpt><trkpt lat="39.36032547" lon="-0.41352815"><ele>5.6</ele><time>2022-11-10T17:03:35.0000000+00:00</time></trkpt><trkpt lat="39.36034961" lon="-0.41357408"><ele>5.6</ele><time>2022-11-10T17:03:36.0000000+00:00</time></trkpt><trkpt lat="39.36035757" lon="-0.41358523"><ele>5.8</ele><time>2022-11-10T17:03:37.0000000+00:00</time></trkpt><trkpt lat="39.36036453" lon="-0.41360141"><ele>5.8</ele><time>2022-11-10T17:03:38.0000000+00:00</time></trkpt><trkpt lat="39.36038682" lon="-0.4136429"><ele>5.8</ele><time>2022-11-10T17:03:39.0000000+00:00</time></trkpt><trkpt lat="39.3604092" lon="-0.41369487"><ele>5.8</ele><time>2022-11-10T17:03:40.0000000+00:00</time></trkpt><trkpt lat="39.36042789" lon="-0.41374474"><ele>6.0</ele><time>2022-11-10T17:03:41.0000000+00:00</time></trkpt><trkpt lat="39.36044633" lon="-0.4137988"><ele>6.0</ele><time>2022-11-10T17:03:42.0000000+00:00</time></trkpt><trkpt lat="39.36046754" lon="-0.41384851"><ele>6.0</ele><time>2022-11-10T17:03:43.0000000+00:00</time></trkpt><trkpt lat="39.36049" lon="-0.41388908"><ele>6.2</ele><time>2022-11-10T17:03:44.0000000+00:00</time></trkpt><trkpt lat="39.36052378" lon="-0.41391933"><ele>6.4</ele><time>2022-11-10T17:03:45.0000000+00:00</time></trkpt><trkpt lat="39.36055211" lon="-0.41394599"><ele>6.2</ele><time>2022-11-10T17:03:46.0000000+00:00</time></trkpt><trkpt lat="39.36057441" lon="-0.41397323"><ele>6.2</ele><time>2022-11-10T17:03:47.0000000+00:00</time></trkpt><trkpt lat="39.36058899" lon="-0.41399301"><ele>6.2</ele><time>2022-11-10T17:03:48.0000000+00:00</time></trkpt><trkpt lat="39.36059905" lon="-0.41400366"><ele>6.2</ele><time>2022-11-10T17:03:49.0000000+00:00</time></trkpt><trkpt lat="39.3606035" lon="-0.41400374"><ele>6.2</ele><time>2022-11-10T17:03:50.0000000+00:00</time></trkpt><trkpt lat="39.3606035" lon="-0.41400374"><ele>6.2</ele><time>2022-11-10T17:03:51.0000000+00:00</time></trkpt><trkpt lat="39.36060718" lon="-0.41401573"><ele>6.2</ele><time>2022-11-10T17:03:52.0000000+00:00</time></trkpt><trkpt lat="39.36061665" lon="-0.41403827"><ele>6.4</ele><time>2022-11-10T17:03:53.0000000+00:00</time></trkpt><trkpt lat="39.36064063" lon="-0.41406719"><ele>6.4</ele><time>2022-11-10T17:03:54.0000000+00:00</time></trkpt><trkpt lat="39.36066963" lon="-0.41410323"><ele>6.4</ele><time>2022-11-10T17:03:55.0000000+00:00</time></trkpt><trkpt lat="39.36069427" lon="-0.41414196"><ele>6.4</ele><time>2022-11-10T17:03:56.0000000+00:00</time></trkpt><trkpt lat="39.36073316" lon="-0.41417146"><ele>6.6</ele><time>2022-11-10T17:03:57.0000000+00:00</time></trkpt><trkpt lat="39.36076627" lon="-0.4142075"><ele>6.6</ele><time>2022-11-10T17:03:58.0000000+00:00</time></trkpt><trkpt lat="39.36079603" lon="-0.41424749"><ele>6.6</ele><time>2022-11-10T17:03:59.0000000+00:00</time></trkpt><trkpt lat="39.3608236" lon="-0.41429979"><ele>6.6</ele><time>2022-11-10T17:04:00.0000000+00:00</time></trkpt><trkpt lat="39.36084137" lon="-0.41434765"><ele>6.6</ele><time>2022-11-10T17:04:01.0000000+00:00</time></trkpt><trkpt lat="39.36085889" lon="-0.41439484"><ele>6.6</ele><time>2022-11-10T17:04:02.0000000+00:00</time></trkpt><trkpt lat="39.36087658" lon="-0.41444454"><ele>6.6</ele><time>2022-11-10T17:04:03.0000000+00:00</time></trkpt><trkpt lat="39.36089032" lon="-0.41449701"><ele>6.6</ele><time>2022-11-10T17:04:04.0000000+00:00</time></trkpt><trkpt lat="39.36091136" lon="-0.41454605"><ele>6.6</ele><time>2022-11-10T17:04:05.0000000+00:00</time></trkpt><trkpt lat="39.36093601" lon="-0.41459466"><ele>6.6</ele><time>2022-11-10T17:04:06.0000000+00:00</time></trkpt><trkpt lat="39.36095847" lon="-0.41463783"><ele>6.6</ele><time>2022-11-10T17:04:07.0000000+00:00</time></trkpt><trkpt lat="39.36097758" lon="-0.41468469"><ele>6.6</ele><time>2022-11-10T17:04:08.0000000+00:00</time></trkpt><trkpt lat="39.36099879" lon="-0.41473238"><ele>6.6</ele><time>2022-11-10T17:04:09.0000000+00:00</time></trkpt><trkpt lat="39.36101303" lon="-0.41477337"><ele>6.6</ele><time>2022-11-10T17:04:10.0000000+00:00</time></trkpt><trkpt lat="39.36101379" lon="-0.41482098"><ele>6.6</ele><time>2022-11-10T17:04:11.0000000+00:00</time></trkpt><trkpt lat="39.36104053" lon="-0.41486339"><ele>6.8</ele><time>2022-11-10T17:04:12.0000000+00:00</time></trkpt><trkpt lat="39.36106886" lon="-0.41490144"><ele>6.8</ele><time>2022-11-10T17:04:13.0000000+00:00</time></trkpt><trkpt lat="39.36109476" lon="-0.41494209"><ele>6.8</ele><time>2022-11-10T17:04:14.0000000+00:00</time></trkpt><trkpt lat="39.36111923" lon="-0.41498032"><ele>7.0</ele><time>2022-11-10T17:04:15.0000000+00:00</time></trkpt><trkpt lat="39.36114002" lon="-0.4150177"><ele>7.0</ele><time>2022-11-10T17:04:16.0000000+00:00</time></trkpt><trkpt lat="39.36116709" lon="-0.41506011"><ele>7.0</ele><time>2022-11-10T17:04:17.0000000+00:00</time></trkpt><trkpt lat="39.36118998" lon="-0.41509439"><ele>7.0</ele><time>2022-11-10T17:04:18.0000000+00:00</time></trkpt><trkpt lat="39.36121068" lon="-0.41512826"><ele>7.0</ele><time>2022-11-10T17:04:19.0000000+00:00</time></trkpt><trkpt lat="39.36123163" lon="-0.41515223"><ele>7.0</ele><time>2022-11-10T17:04:20.0000000+00:00</time></trkpt><trkpt lat="39.36125871" lon="-0.41515491"><ele>7.0</ele><time>2022-11-10T17:04:21.0000000+00:00</time></trkpt><trkpt lat="39.36129592" lon="-0.41514309"><ele>7.0</ele><time>2022-11-10T17:04:22.0000000+00:00</time></trkpt><trkpt lat="39.3613318" lon="-0.415128"><ele>7.0</ele><time>2022-11-10T17:04:23.0000000+00:00</time></trkpt><trkpt lat="39.36136214" lon="-0.41509657"><ele>7.0</ele><time>2022-11-10T17:04:24.0000000+00:00</time></trkpt><trkpt lat="39.36138871" lon="-0.41505827"><ele>7.0</ele><time>2022-11-10T17:04:25.0000000+00:00</time></trkpt><trkpt lat="39.36141788" lon="-0.4150317"><ele>7.0</ele><time>2022-11-10T17:04:26.0000000+00:00</time></trkpt><trkpt lat="39.36144638" lon="-0.41501091"><ele>7.0</ele><time>2022-11-10T17:04:27.0000000+00:00</time></trkpt><trkpt lat="39.36146557" lon="-0.41497042"><ele>7.0</ele><time>2022-11-10T17:04:28.0000000+00:00</time></trkpt><trkpt lat="39.36148921" lon="-0.41493187"><ele>7.0</ele><time>2022-11-10T17:04:29.0000000+00:00</time></trkpt><trkpt lat="39.36152073" lon="-0.41491058"><ele>6.8</ele><time>2022-11-10T17:04:30.0000000+00:00</time></trkpt><trkpt lat="39.36153716" lon="-0.41489775"><ele>6.8</ele><time>2022-11-10T17:04:31.0000000+00:00</time></trkpt><trkpt lat="39.36154671" lon="-0.41489666"><ele>6.8</ele><time>2022-11-10T17:04:32.0000000+00:00</time></trkpt><trkpt lat="39.36155367" lon="-0.41489893"><ele>6.8</ele><time>2022-11-10T17:04:33.0000000+00:00</time></trkpt><trkpt lat="39.36155903" lon="-0.4148944"><ele>6.8</ele><time>2022-11-10T17:04:34.0000000+00:00</time></trkpt><trkpt lat="39.36156641" lon="-0.41488166"><ele>6.8</ele><time>2022-11-10T17:04:35.0000000+00:00</time></trkpt><trkpt lat="39.36158049" lon="-0.41487135"><ele>6.8</ele><time>2022-11-10T17:04:36.0000000+00:00</time></trkpt><trkpt lat="39.3615996" lon="-0.4148597"><ele>7.0</ele><time>2022-11-10T17:04:37.0000000+00:00</time></trkpt><trkpt lat="39.3616229" lon="-0.41485517"><ele>7.2</ele><time>2022-11-10T17:04:38.0000000+00:00</time></trkpt><trkpt lat="39.3616488" lon="-0.41484813"><ele>7.2</ele><time>2022-11-10T17:04:39.0000000+00:00</time></trkpt><trkpt lat="39.36167168" lon="-0.41483724"><ele>7.4</ele><time>2022-11-10T17:04:40.0000000+00:00</time></trkpt><trkpt lat="39.36168434" lon="-0.41482885"><ele>7.4</ele><time>2022-11-10T17:04:41.0000000+00:00</time></trkpt><trkpt lat="39.36168702" lon="-0.41482642"><ele>7.2</ele><time>2022-11-10T17:04:42.0000000+00:00</time></trkpt><trkpt lat="39.36168702" lon="-0.41482642"><ele>7.2</ele><time>2022-11-10T17:04:43.0000000+00:00</time></trkpt><trkpt lat="39.36168702" lon="-0.41482642"><ele>7.2</ele><time>2022-11-10T17:04:44.0000000+00:00</time></trkpt><trkpt lat="39.36168384" lon="-0.41482307"><ele>7.2</ele><time>2022-11-10T17:04:45.0000000+00:00</time></trkpt><trkpt lat="39.36168158" lon="-0.41482098"><ele>7.0</ele><time>2022-11-10T17:04:46.0000000+00:00</time></trkpt><trkpt lat="39.36168158" lon="-0.41482098"><ele>7.0</ele><time>2022-11-10T17:04:47.0000000+00:00</time></trkpt><trkpt lat="39.36167973" lon="-0.41482366"><ele>7.0</ele><time>2022-11-10T17:04:48.0000000+00:00</time></trkpt><trkpt lat="39.36167671" lon="-0.41482248"><ele>7.0</ele><time>2022-11-10T17:04:49.0000000+00:00</time></trkpt><trkpt lat="39.36167596" lon="-0.41482315"><ele>7.0</ele><time>2022-11-10T17:04:50.0000000+00:00</time></trkpt><trkpt lat="39.3616742" lon="-0.41482542"><ele>7.0</ele><time>2022-11-10T17:04:51.0000000+00:00</time></trkpt><trkpt lat="39.36167797" lon="-0.41482575"><ele>7.0</ele><time>2022-11-10T17:04:52.0000000+00:00</time></trkpt><trkpt lat="39.3616856" lon="-0.41482642"><ele>7.0</ele><time>2022-11-10T17:04:53.0000000+00:00</time></trkpt><trkpt lat="39.36168426" lon="-0.41483087"><ele>7.0</ele><time>2022-11-10T17:04:54.0000000+00:00</time></trkpt><trkpt lat="39.36168216" lon="-0.41483229"><ele>7.0</ele><time>2022-11-10T17:04:55.0000000+00:00</time></trkpt><trkpt lat="39.36168216" lon="-0.41483229"><ele>7.2</ele><time>2022-11-10T17:04:56.0000000+00:00</time></trkpt><trkpt lat="39.36168007" lon="-0.41483372"><ele>7.2</ele><time>2022-11-10T17:04:57.0000000+00:00</time></trkpt><trkpt lat="39.36168007" lon="-0.41482416"><ele>7.2</ele><time>2022-11-10T17:04:58.0000000+00:00</time></trkpt><trkpt lat="39.36167864" lon="-0.41482986"><ele>7.0</ele><time>2022-11-10T17:04:59.0000000+00:00</time></trkpt><trkpt lat="39.36168099" lon="-0.41482994"><ele>7.0</ele><time>2022-11-10T17:05:00.0000000+00:00</time></trkpt><trkpt lat="39.36168535" lon="-0.41483439"><ele>7.0</ele><time>2022-11-10T17:05:01.0000000+00:00</time></trkpt><trkpt lat="39.36169189" lon="-0.41483992"><ele>7.0</ele><time>2022-11-10T17:05:02.0000000+00:00</time></trkpt><trkpt lat="39.36170605" lon="-0.41486599"><ele>7.0</ele><time>2022-11-10T17:05:03.0000000+00:00</time></trkpt><trkpt lat="39.36172751" lon="-0.41489289"><ele>7.0</ele><time>2022-11-10T17:05:04.0000000+00:00</time></trkpt><trkpt lat="39.36174436" lon="-0.41492198"><ele>7.0</ele><time>2022-11-10T17:05:05.0000000+00:00</time></trkpt><trkpt lat="39.36176296" lon="-0.41494519"><ele>7.0</ele><time>2022-11-10T17:05:06.0000000+00:00</time></trkpt><trkpt lat="39.36177705" lon="-0.41497193"><ele>7.0</ele><time>2022-11-10T17:05:07.0000000+00:00</time></trkpt><trkpt lat="39.36178543" lon="-0.41501116"><ele>7.0</ele><time>2022-11-10T17:05:08.0000000+00:00</time></trkpt><trkpt lat="39.3617866" lon="-0.41503077"><ele>7.0</ele><time>2022-11-10T17:05:09.0000000+00:00</time></trkpt><trkpt lat="39.3618001" lon="-0.41504066"><ele>7.2</ele><time>2022-11-10T17:05:10.0000000+00:00</time></trkpt><trkpt lat="39.36181652" lon="-0.41505491"><ele>7.2</ele><time>2022-11-10T17:05:11.0000000+00:00</time></trkpt><trkpt lat="39.36182449" lon="-0.4150752"><ele>7.2</ele><time>2022-11-10T17:05:12.0000000+00:00</time></trkpt><trkpt lat="39.36183463" lon="-0.41507671"><ele>7.2</ele><time>2022-11-10T17:05:13.0000000+00:00</time></trkpt><trkpt lat="39.36184586" lon="-0.41507201"><ele>7.2</ele><time>2022-11-10T17:05:14.0000000+00:00</time></trkpt><trkpt lat="39.36186053" lon="-0.4150648"><ele>7.2</ele><time>2022-11-10T17:05:15.0000000+00:00</time></trkpt><trkpt lat="39.36187729" lon="-0.41505257"><ele>7.0</ele><time>2022-11-10T17:05:16.0000000+00:00</time></trkpt><trkpt lat="39.36189137" lon="-0.41504662"><ele>7.0</ele><time>2022-11-10T17:05:17.0000000+00:00</time></trkpt><trkpt lat="39.36190722" lon="-0.41504134"><ele>7.0</ele><time>2022-11-10T17:05:18.0000000+00:00</time></trkpt><trkpt lat="39.36192272" lon="-0.4150389"><ele>6.8</ele><time>2022-11-10T17:05:19.0000000+00:00</time></trkpt><trkpt lat="39.36194309" lon="-0.41504159"><ele>6.8</ele><time>2022-11-10T17:05:20.0000000+00:00</time></trkpt><trkpt lat="39.3619472" lon="-0.41504083"><ele>6.8</ele><time>2022-11-10T17:05:21.0000000+00:00</time></trkpt><trkpt lat="39.3619472" lon="-0.41504083"><ele>7.0</ele><time>2022-11-10T17:05:22.0000000+00:00</time></trkpt><trkpt lat="39.36194359" lon="-0.41503647"><ele>7.0</ele><time>2022-11-10T17:05:23.0000000+00:00</time></trkpt><trkpt lat="39.36194309" lon="-0.4150348"><ele>7.0</ele><time>2022-11-10T17:05:24.0000000+00:00</time></trkpt><trkpt lat="39.36194611" lon="-0.41503471"><ele>7.0</ele><time>2022-11-10T17:05:25.0000000+00:00</time></trkpt><trkpt lat="39.36193756" lon="-0.41503379"><ele>7.0</ele><time>2022-11-10T17:05:26.0000000+00:00</time></trkpt><trkpt lat="39.36193504" lon="-0.41503245"><ele>7.0</ele><time>2022-11-10T17:05:27.0000000+00:00</time></trkpt><trkpt lat="39.36193504" lon="-0.41503245"><ele>7.0</ele><time>2022-11-10T17:05:28.0000000+00:00</time></trkpt><trkpt lat="39.36193504" lon="-0.41503245"><ele>7.0</ele><time>2022-11-10T17:05:29.0000000+00:00</time></trkpt><trkpt lat="39.36193504" lon="-0.41503245"><ele>7.0</ele><time>2022-11-10T17:05:30.0000000+00:00</time></trkpt><trkpt lat="39.36193504" lon="-0.41503245"><ele>7.0</ele><time>2022-11-10T17:05:31.0000000+00:00</time></trkpt><trkpt lat="39.36193504" lon="-0.41503245"><ele>7.0</ele><time>2022-11-10T17:05:32.0000000+00:00</time></trkpt><trkpt lat="39.36193504" lon="-0.41503245"><ele>7.0</ele><time>2022-11-10T17:05:33.0000000+00:00</time></trkpt><trkpt lat="39.36193504" lon="-0.41503245"><ele>7.0</ele><time>2022-11-10T17:05:34.0000000+00:00</time></trkpt><trkpt lat="39.36192608" lon="-0.4150317"><ele>7.0</ele><time>2022-11-10T17:05:35.0000000+00:00</time></trkpt><trkpt lat="39.3619218" lon="-0.41503036"><ele>7.0</ele><time>2022-11-10T17:05:36.0000000+00:00</time></trkpt><trkpt lat="39.3619218" lon="-0.41503036"><ele>7.0</ele><time>2022-11-10T17:05:37.0000000+00:00</time></trkpt><trkpt lat="39.36191342" lon="-0.41502482"><ele>7.0</ele><time>2022-11-10T17:05:38.0000000+00:00</time></trkpt><trkpt lat="39.36191116" lon="-0.41502323"><ele>7.2</ele><time>2022-11-10T17:05:39.0000000+00:00</time></trkpt></trkseg><trkseg><trkpt lat="38.99077775" lon="-0.52394346"><ele>112.4</ele><time>2022-11-13T12:27:06.0000000+00:00</time></trkpt><trkpt lat="38.99076442" lon="-0.52391798"><ele>112.4</ele><time>2022-11-13T12:27:07.0000000+00:00</time></trkpt><trkpt lat="38.99075068" lon="-0.52389535"><ele>112.4</ele><time>2022-11-13T12:27:08.0000000+00:00</time></trkpt><trkpt lat="38.99072855" lon="-0.52387632"><ele>112.4</ele><time>2022-11-13T12:27:09.0000000+00:00</time></trkpt><trkpt lat="38.99070877" lon="-0.52386627"><ele>112.4</ele><time>2022-11-13T12:27:10.0000000+00:00</time></trkpt><trkpt lat="38.99069184" lon="-0.52385453"><ele>112.2</ele><time>2022-11-13T12:27:11.0000000+00:00</time></trkpt><trkpt lat="38.99067423" lon="-0.52384439"><ele>112.2</ele><time>2022-11-13T12:27:12.0000000+00:00</time></trkpt><trkpt lat="38.99065822" lon="-0.52383257"><ele>112.2</ele><time>2022-11-13T12:27:13.0000000+00:00</time></trkpt><trkpt lat="38.99064104" lon="-0.52382226"><ele>112.2</ele><time>2022-11-13T12:27:14.0000000+00:00</time></trkpt><trkpt lat="38.99062981" lon="-0.52380701"><ele>112.4</ele><time>2022-11-13T12:27:15.0000000+00:00</time></trkpt><trkpt lat="38.99061766" lon="-0.52378848"><ele>112.4</ele><time>2022-11-13T12:27:16.0000000+00:00</time></trkpt><trkpt lat="38.990619" lon="-0.52375621"><ele>112.4</ele><time>2022-11-13T12:27:17.0000000+00:00</time></trkpt><trkpt lat="38.99060248" lon="-0.52374465"><ele>112.6</ele><time>2022-11-13T12:27:18.0000000+00:00</time></trkpt><trkpt lat="38.99058673" lon="-0.52373098"><ele>112.6</ele><time>2022-11-13T12:27:19.0000000+00:00</time></trkpt><trkpt lat="38.99057223" lon="-0.52372411"><ele>112.6</ele><time>2022-11-13T12:27:20.0000000+00:00</time></trkpt><trkpt lat="38.99056083" lon="-0.52371791"><ele>112.8</ele><time>2022-11-13T12:27:21.0000000+00:00</time></trkpt><trkpt lat="38.99055907" lon="-0.52371305"><ele>112.8</ele><time>2022-11-13T12:27:22.0000000+00:00</time></trkpt><trkpt lat="38.99054037" lon="-0.52374154"><ele>112.8</ele><time>2022-11-13T12:27:23.0000000+00:00</time></trkpt><trkpt lat="38.99051674" lon="-0.52375445"><ele>113.0</ele><time>2022-11-13T12:27:24.0000000+00:00</time></trkpt><trkpt lat="38.99049964" lon="-0.52375504"><ele>113.0</ele><time>2022-11-13T12:27:25.0000000+00:00</time></trkpt><trkpt lat="38.99048505" lon="-0.52375789"><ele>113.0</ele><time>2022-11-13T12:27:26.0000000+00:00</time></trkpt><trkpt lat="38.99049059" lon="-0.52375311"><ele>113.2</ele><time>2022-11-13T12:27:27.0000000+00:00</time></trkpt><trkpt lat="38.99046259" lon="-0.52379879"><ele>113.2</ele><time>2022-11-13T12:27:28.0000000+00:00</time></trkpt><trkpt lat="38.99043133" lon="-0.52381983"><ele>113.2</ele><time>2022-11-13T12:27:29.0000000+00:00</time></trkpt><trkpt lat="38.99041154" lon="-0.5238226"><ele>113.2</ele><time>2022-11-13T12:27:30.0000000+00:00</time></trkpt><trkpt lat="38.99037307" lon="-0.52386962"><ele>113.2</ele><time>2022-11-13T12:27:31.0000000+00:00</time></trkpt><trkpt lat="38.99035513" lon="-0.52388026"><ele>113.2</ele><time>2022-11-13T12:27:32.0000000+00:00</time></trkpt><trkpt lat="38.99034566" lon="-0.52388311"><ele>113.2</ele><time>2022-11-13T12:27:33.0000000+00:00</time></trkpt><trkpt lat="38.99034675" lon="-0.5238811"><ele>113.2</ele><time>2022-11-13T12:27:34.0000000+00:00</time></trkpt><trkpt lat="38.99033359" lon="-0.52388848"><ele>113.4</ele><time>2022-11-13T12:27:35.0000000+00:00</time></trkpt><trkpt lat="38.99032077" lon="-0.52389627"><ele>113.6</ele><time>2022-11-13T12:27:36.0000000+00:00</time></trkpt><trkpt lat="38.99031121" lon="-0.52390315"><ele>113.6</ele><time>2022-11-13T12:27:37.0000000+00:00</time></trkpt><trkpt lat="38.99030518" lon="-0.5238951"><ele>113.6</ele><time>2022-11-13T12:27:38.0000000+00:00</time></trkpt><trkpt lat="38.99029872" lon="-0.52388622"><ele>113.8</ele><time>2022-11-13T12:27:39.0000000+00:00</time></trkpt><trkpt lat="38.99029328" lon="-0.5238775"><ele>113.8</ele><time>2022-11-13T12:27:40.0000000+00:00</time></trkpt><trkpt lat="38.99029068" lon="-0.5238687"><ele>113.8</ele><time>2022-11-13T12:27:41.0000000+00:00</time></trkpt><trkpt lat="38.99028976" lon="-0.52386694"><ele>113.8</ele><time>2022-11-13T12:27:42.0000000+00:00</time></trkpt><trkpt lat="38.99027911" lon="-0.52387389"><ele>114.0</ele><time>2022-11-13T12:27:43.0000000+00:00</time></trkpt><trkpt lat="38.99027676" lon="-0.52387171"><ele>114.0</ele><time>2022-11-13T12:27:44.0000000+00:00</time></trkpt><trkpt lat="38.9902678" lon="-0.52386685"><ele>114.0</ele><time>2022-11-13T12:27:45.0000000+00:00</time></trkpt><trkpt lat="38.99025086" lon="-0.52385177"><ele>114.2</ele><time>2022-11-13T12:27:46.0000000+00:00</time></trkpt><trkpt lat="38.99022865" lon="-0.52384481"><ele>114.2</ele><time>2022-11-13T12:27:47.0000000+00:00</time></trkpt><trkpt lat="38.99020577" lon="-0.52384296"><ele>114.2</ele><time>2022-11-13T12:27:48.0000000+00:00</time></trkpt><trkpt lat="38.99018959" lon="-0.52384028"><ele>114.4</ele><time>2022-11-13T12:27:49.0000000+00:00</time></trkpt><trkpt lat="38.9901859" lon="-0.52381279"><ele>114.4</ele><time>2022-11-13T12:27:50.0000000+00:00</time></trkpt><trkpt lat="38.99017878" lon="-0.52380198"><ele>114.4</ele><time>2022-11-13T12:27:51.0000000+00:00</time></trkpt><trkpt lat="38.99017115" lon="-0.52379494"><ele>114.4</ele><time>2022-11-13T12:27:52.0000000+00:00</time></trkpt><trkpt lat="38.99015531" lon="-0.52380575"><ele>114.6</ele><time>2022-11-13T12:27:53.0000000+00:00</time></trkpt><trkpt lat="38.99013285" lon="-0.52381572"><ele>114.6</ele><time>2022-11-13T12:27:54.0000000+00:00</time></trkpt><trkpt lat="38.99011332" lon="-0.5238231"><ele>114.6</ele><time>2022-11-13T12:27:55.0000000+00:00</time></trkpt><trkpt lat="38.99008473" lon="-0.52382981"><ele>114.8</ele><time>2022-11-13T12:27:56.0000000+00:00</time></trkpt><trkpt lat="38.99006738" lon="-0.52382679"><ele>114.8</ele><time>2022-11-13T12:27:57.0000000+00:00</time></trkpt><trkpt lat="38.99005414" lon="-0.52382436"><ele>114.8</ele><time>2022-11-13T12:27:58.0000000+00:00</time></trkpt><trkpt lat="38.9900378" lon="-0.52381841"><ele>114.8</ele><time>2022-11-13T12:27:59.0000000+00:00</time></trkpt><trkpt lat="38.99002791" lon="-0.52380382"><ele>114.8</ele><time>2022-11-13T12:28:00.0000000+00:00</time></trkpt><trkpt lat="38.99001868" lon="-0.52379569"><ele>115.0</ele><time>2022-11-13T12:28:01.0000000+00:00</time></trkpt><trkpt lat="38.99001139" lon="-0.5237863"><ele>115.2</ele><time>2022-11-13T12:28:02.0000000+00:00</time></trkpt><trkpt lat="38.99000268" lon="-0.52378714"><ele>115.2</ele><time>2022-11-13T12:28:03.0000000+00:00</time></trkpt><trkpt lat="38.98999429" lon="-0.52378345"><ele>115.4</ele><time>2022-11-13T12:28:04.0000000+00:00</time></trkpt><trkpt lat="38.98998608" lon="-0.52378102"><ele>115.4</ele><time>2022-11-13T12:28:05.0000000+00:00</time></trkpt><trkpt lat="38.98997761" lon="-0.52378404"><ele>115.4</ele><time>2022-11-13T12:28:06.0000000+00:00</time></trkpt><trkpt lat="38.989972" lon="-0.52378236"><ele>115.6</ele><time>2022-11-13T12:28:07.0000000+00:00</time></trkpt><trkpt lat="38.98997543" lon="-0.52376644"><ele>115.6</ele><time>2022-11-13T12:28:08.0000000+00:00</time></trkpt><trkpt lat="38.98997066" lon="-0.52375848"><ele>115.6</ele><time>2022-11-13T12:28:09.0000000+00:00</time></trkpt><trkpt lat="38.98996253" lon="-0.52374766"><ele>115.6</ele><time>2022-11-13T12:28:10.0000000+00:00</time></trkpt><trkpt lat="38.98995909" lon="-0.52371799"><ele>115.8</ele><time>2022-11-13T12:28:11.0000000+00:00</time></trkpt><trkpt lat="38.98996043" lon="-0.52369402"><ele>115.8</ele><time>2022-11-13T12:28:12.0000000+00:00</time></trkpt><trkpt lat="38.98995314" lon="-0.52366225"><ele>115.8</ele><time>2022-11-13T12:28:13.0000000+00:00</time></trkpt><trkpt lat="38.98995171" lon="-0.52363903"><ele>115.8</ele><time>2022-11-13T12:28:14.0000000+00:00</time></trkpt><trkpt lat="38.98994585" lon="-0.52362076"><ele>115.8</ele><time>2022-11-13T12:28:15.0000000+00:00</time></trkpt><trkpt lat="38.98993906" lon="-0.523604"><ele>115.8</ele><time>2022-11-13T12:28:16.0000000+00:00</time></trkpt><trkpt lat="38.98994501" lon="-0.52358966"><ele>115.8</ele><time>2022-11-13T12:28:17.0000000+00:00</time></trkpt><trkpt lat="38.98994811" lon="-0.52357952"><ele>115.8</ele><time>2022-11-13T12:28:18.0000000+00:00</time></trkpt><trkpt lat="38.98993361" lon="-0.52357005"><ele>115.8</ele><time>2022-11-13T12:28:19.0000000+00:00</time></trkpt><trkpt lat="38.98991936" lon="-0.52356594"><ele>115.8</ele><time>2022-11-13T12:28:20.0000000+00:00</time></trkpt><trkpt lat="38.98992447" lon="-0.52357106"><ele>115.8</ele><time>2022-11-13T12:28:21.0000000+00:00</time></trkpt><trkpt lat="38.98992632" lon="-0.52357801"><ele>116.0</ele><time>2022-11-13T12:28:22.0000000+00:00</time></trkpt><trkpt lat="38.98991961" lon="-0.52358187"><ele>116.0</ele><time>2022-11-13T12:28:23.0000000+00:00</time></trkpt><trkpt lat="38.98991433" lon="-0.52358732"><ele>116.0</ele><time>2022-11-13T12:28:24.0000000+00:00</time></trkpt><trkpt lat="38.98990871" lon="-0.52358924"><ele>116.2</ele><time>2022-11-13T12:28:25.0000000+00:00</time></trkpt><trkpt lat="38.98990721" lon="-0.52359955"><ele>116.2</ele><time>2022-11-13T12:28:26.0000000+00:00</time></trkpt><trkpt lat="38.98990754" lon="-0.52361062"><ele>116.2</ele><time>2022-11-13T12:28:27.0000000+00:00</time></trkpt><trkpt lat="38.98989514" lon="-0.52362302"><ele>116.2</ele><time>2022-11-13T12:28:28.0000000+00:00</time></trkpt><trkpt lat="38.98988013" lon="-0.52362981"><ele>116.2</ele><time>2022-11-13T12:28:29.0000000+00:00</time></trkpt><trkpt lat="38.98986136" lon="-0.52362822"><ele>116.4</ele><time>2022-11-13T12:28:30.0000000+00:00</time></trkpt><trkpt lat="38.98984225" lon="-0.52363032"><ele>116.4</ele><time>2022-11-13T12:28:31.0000000+00:00</time></trkpt><trkpt lat="38.98981014" lon="-0.52362789"><ele>116.6</ele><time>2022-11-13T12:28:32.0000000+00:00</time></trkpt><trkpt lat="38.98978818" lon="-0.52362093"><ele>116.6</ele><time>2022-11-13T12:28:33.0000000+00:00</time></trkpt><trkpt lat="38.98978081" lon="-0.52360693"><ele>116.6</ele><time>2022-11-13T12:28:34.0000000+00:00</time></trkpt><trkpt lat="38.98977268" lon="-0.52359545"><ele>116.6</ele><time>2022-11-13T12:28:35.0000000+00:00</time></trkpt><trkpt lat="38.98977268" lon="-0.52357231"><ele>116.6</ele><time>2022-11-13T12:28:36.0000000+00:00</time></trkpt><trkpt lat="38.9897746" lon="-0.52354717"><ele>116.6</ele><time>2022-11-13T12:28:37.0000000+00:00</time></trkpt><trkpt lat="38.98976991" lon="-0.5235356"><ele>116.6</ele><time>2022-11-13T12:28:38.0000000+00:00</time></trkpt><trkpt lat="38.98976832" lon="-0.52352127"><ele>116.8</ele><time>2022-11-13T12:28:39.0000000+00:00</time></trkpt><trkpt lat="38.98975851" lon="-0.52351465"><ele>116.8</ele><time>2022-11-13T12:28:40.0000000+00:00</time></trkpt><trkpt lat="38.98971811" lon="-0.52352219"><ele>116.8</ele><time>2022-11-13T12:28:41.0000000+00:00</time></trkpt><trkpt lat="38.98971191" lon="-0.52351599"><ele>116.8</ele><time>2022-11-13T12:28:42.0000000+00:00</time></trkpt><trkpt lat="38.98971627" lon="-0.52350199"><ele>116.8</ele><time>2022-11-13T12:28:43.0000000+00:00</time></trkpt><trkpt lat="38.98971895" lon="-0.52348631"><ele>116.8</ele><time>2022-11-13T12:28:44.0000000+00:00</time></trkpt><trkpt lat="38.98972205" lon="-0.52347223"><ele>116.8</ele><time>2022-11-13T12:28:45.0000000+00:00</time></trkpt><trkpt lat="38.98972356" lon="-0.52345983"><ele>116.8</ele><time>2022-11-13T12:28:46.0000000+00:00</time></trkpt><trkpt lat="38.98971451" lon="-0.52345228"><ele>116.8</ele><time>2022-11-13T12:28:47.0000000+00:00</time></trkpt><trkpt lat="38.98970026" lon="-0.52344767"><ele>116.8</ele><time>2022-11-13T12:28:48.0000000+00:00</time></trkpt><trkpt lat="38.98968794" lon="-0.52343845"><ele>116.8</ele><time>2022-11-13T12:28:49.0000000+00:00</time></trkpt><trkpt lat="38.98967964" lon="-0.52342018"><ele>116.8</ele><time>2022-11-13T12:28:50.0000000+00:00</time></trkpt><trkpt lat="38.98967729" lon="-0.52339998"><ele>116.8</ele><time>2022-11-13T12:28:51.0000000+00:00</time></trkpt><trkpt lat="38.9896726" lon="-0.52338716"><ele>117.0</ele><time>2022-11-13T12:28:52.0000000+00:00</time></trkpt><trkpt lat="38.98966514" lon="-0.52337903"><ele>117.0</ele><time>2022-11-13T12:28:53.0000000+00:00</time></trkpt><trkpt lat="38.98965818" lon="-0.52337928"><ele>117.0</ele><time>2022-11-13T12:28:54.0000000+00:00</time></trkpt><trkpt lat="38.98965491" lon="-0.52337408"><ele>117.0</ele><time>2022-11-13T12:28:55.0000000+00:00</time></trkpt><trkpt lat="38.98965298" lon="-0.52337098"><ele>117.0</ele><time>2022-11-13T12:28:56.0000000+00:00</time></trkpt><trkpt lat="38.98965399" lon="-0.52336805"><ele>117.2</ele><time>2022-11-13T12:28:57.0000000+00:00</time></trkpt><trkpt lat="38.98964862" lon="-0.52337257"><ele>117.2</ele><time>2022-11-13T12:28:58.0000000+00:00</time></trkpt><trkpt lat="38.98964535" lon="-0.52337542"><ele>117.2</ele><time>2022-11-13T12:28:59.0000000+00:00</time></trkpt><trkpt lat="38.98965491" lon="-0.52337224"><ele>117.2</ele><time>2022-11-13T12:29:00.0000000+00:00</time></trkpt><trkpt lat="38.98966136" lon="-0.52337282"><ele>117.2</ele><time>2022-11-13T12:29:01.0000000+00:00</time></trkpt><trkpt lat="38.98965181" lon="-0.52337425"><ele>117.2</ele><time>2022-11-13T12:29:02.0000000+00:00</time></trkpt><trkpt lat="38.98964116" lon="-0.5233823"><ele>117.2</ele><time>2022-11-13T12:29:03.0000000+00:00</time></trkpt><trkpt lat="38.98963806" lon="-0.52339344"><ele>117.4</ele><time>2022-11-13T12:29:04.0000000+00:00</time></trkpt><trkpt lat="38.98962725" lon="-0.52340476"><ele>117.4</ele><time>2022-11-13T12:29:05.0000000+00:00</time></trkpt><trkpt lat="38.9896223" lon="-0.52341951"><ele>117.4</ele><time>2022-11-13T12:29:06.0000000+00:00</time></trkpt><trkpt lat="38.98961677" lon="-0.52342915"><ele>117.4</ele><time>2022-11-13T12:29:07.0000000+00:00</time></trkpt><trkpt lat="38.98960856" lon="-0.52344088"><ele>117.4</ele><time>2022-11-13T12:29:08.0000000+00:00</time></trkpt><trkpt lat="38.98959599" lon="-0.52345589"><ele>117.4</ele><time>2022-11-13T12:29:09.0000000+00:00</time></trkpt><trkpt lat="38.98958568" lon="-0.52346838"><ele>117.6</ele><time>2022-11-13T12:29:10.0000000+00:00</time></trkpt><trkpt lat="38.98957788" lon="-0.52347709"><ele>117.6</ele><time>2022-11-13T12:29:11.0000000+00:00</time></trkpt><trkpt lat="38.98956933" lon="-0.52348346"><ele>117.6</ele><time>2022-11-13T12:29:12.0000000+00:00</time></trkpt><trkpt lat="38.98956807" lon="-0.52349134"><ele>117.6</ele><time>2022-11-13T12:29:13.0000000+00:00</time></trkpt><trkpt lat="38.98955726" lon="-0.52350886"><ele>117.6</ele><time>2022-11-13T12:29:14.0000000+00:00</time></trkpt><trkpt lat="38.9895472" lon="-0.5235216"><ele>117.6</ele><time>2022-11-13T12:29:15.0000000+00:00</time></trkpt><trkpt lat="38.98954016" lon="-0.52353325"><ele>117.6</ele><time>2022-11-13T12:29:16.0000000+00:00</time></trkpt><trkpt lat="38.9895389" lon="-0.52354474"><ele>117.6</ele><time>2022-11-13T12:29:17.0000000+00:00</time></trkpt><trkpt lat="38.98954301" lon="-0.52355421"><ele>117.6</ele><time>2022-11-13T12:29:18.0000000+00:00</time></trkpt><trkpt lat="38.98955165" lon="-0.52355471"><ele>117.6</ele><time>2022-11-13T12:29:19.0000000+00:00</time></trkpt><trkpt lat="38.98955173" lon="-0.52355412"><ele>117.6</ele><time>2022-11-13T12:29:20.0000000+00:00</time></trkpt><trkpt lat="38.98955416" lon="-0.52355278"><ele>117.6</ele><time>2022-11-13T12:29:21.0000000+00:00</time></trkpt><trkpt lat="38.98955097" lon="-0.52355873"><ele>117.6</ele><time>2022-11-13T12:29:22.0000000+00:00</time></trkpt><trkpt lat="38.98954779" lon="-0.52356242"><ele>117.6</ele><time>2022-11-13T12:29:23.0000000+00:00</time></trkpt><trkpt lat="38.98955483" lon="-0.52356284"><ele>117.6</ele><time>2022-11-13T12:29:24.0000000+00:00</time></trkpt><trkpt lat="38.98956522" lon="-0.5235553"><ele>117.6</ele><time>2022-11-13T12:29:25.0000000+00:00</time></trkpt><trkpt lat="38.98957101" lon="-0.52355287"><ele>117.6</ele><time>2022-11-13T12:29:26.0000000+00:00</time></trkpt><trkpt lat="38.98957528" lon="-0.52355161"><ele>117.6</ele><time>2022-11-13T12:29:27.0000000+00:00</time></trkpt><trkpt lat="38.98957587" lon="-0.52355211"><ele>117.6</ele><time>2022-11-13T12:29:28.0000000+00:00</time></trkpt><trkpt lat="38.98957746" lon="-0.52355211"><ele>117.6</ele><time>2022-11-13T12:29:29.0000000+00:00</time></trkpt><trkpt lat="38.98950119" lon="-0.52375043"><ele>117.4</ele><time>2022-11-13T12:31:16.0000000+00:00</time></trkpt><trkpt lat="38.98854481" lon="-0.52380902"><ele>117.4</ele><time>2022-11-13T12:31:17.0000000+00:00</time></trkpt><trkpt lat="38.98941158" lon="-0.52373559"><ele>117.4</ele><time>2022-11-13T12:31:18.0000000+00:00</time></trkpt><trkpt lat="38.98947571" lon="-0.52365186"><ele>117.4</ele><time>2022-11-13T12:31:19.0000000+00:00</time></trkpt><trkpt lat="38.98953346" lon="-0.52364993"><ele>117.4</ele><time>2022-11-13T12:31:20.0000000+00:00</time></trkpt><trkpt lat="38.98952977" lon="-0.52364473"><ele>117.4</ele><time>2022-11-13T12:31:21.0000000+00:00</time></trkpt><trkpt lat="38.98955843" lon="-0.52361129"><ele>117.4</ele><time>2022-11-13T12:31:22.0000000+00:00</time></trkpt><trkpt lat="38.98956548" lon="-0.52358195"><ele>117.4</ele><time>2022-11-13T12:31:23.0000000+00:00</time></trkpt><trkpt lat="38.98957855" lon="-0.52358262"><ele>117.4</ele><time>2022-11-13T12:31:24.0000000+00:00</time></trkpt><trkpt lat="38.9895519" lon="-0.52361003"><ele>117.4</ele><time>2022-11-13T12:31:25.0000000+00:00</time></trkpt><trkpt lat="38.98952658" lon="-0.52362973"><ele>117.4</ele><time>2022-11-13T12:31:26.0000000+00:00</time></trkpt><trkpt lat="38.98949716" lon="-0.52364649"><ele>117.4</ele><time>2022-11-13T12:31:27.0000000+00:00</time></trkpt><trkpt lat="38.98949046" lon="-0.52365119"><ele>117.4</ele><time>2022-11-13T12:31:28.0000000+00:00</time></trkpt><trkpt lat="38.98949171" lon="-0.52365848"><ele>117.4</ele><time>2022-11-13T12:31:29.0000000+00:00</time></trkpt><trkpt lat="38.9895006" lon="-0.52366368"><ele>117.4</ele><time>2022-11-13T12:31:30.0000000+00:00</time></trkpt><trkpt lat="38.9895115" lon="-0.52367055"><ele>117.4</ele><time>2022-11-13T12:31:31.0000000+00:00</time></trkpt><trkpt lat="38.98951996" lon="-0.52368438"><ele>117.4</ele><time>2022-11-13T12:31:32.0000000+00:00</time></trkpt><trkpt lat="38.98952549" lon="-0.52369519"><ele>117.4</ele><time>2022-11-13T12:31:33.0000000+00:00</time></trkpt><trkpt lat="38.9895286" lon="-0.52370475"><ele>117.4</ele><time>2022-11-13T12:31:34.0000000+00:00</time></trkpt><trkpt lat="38.98953748" lon="-0.52370961"><ele>117.4</ele><time>2022-11-13T12:31:35.0000000+00:00</time></trkpt><trkpt lat="38.98955952" lon="-0.5237112"><ele>117.4</ele><time>2022-11-13T12:31:36.0000000+00:00</time></trkpt><trkpt lat="38.98957579" lon="-0.52371413"><ele>117.4</ele><time>2022-11-13T12:31:37.0000000+00:00</time></trkpt><trkpt lat="38.98959347" lon="-0.52371657"><ele>117.4</ele><time>2022-11-13T12:31:38.0000000+00:00</time></trkpt><trkpt lat="38.98960512" lon="-0.52371615"><ele>117.4</ele><time>2022-11-13T12:31:39.0000000+00:00</time></trkpt><trkpt lat="38.98961392" lon="-0.52371933"><ele>117.4</ele><time>2022-11-13T12:31:40.0000000+00:00</time></trkpt><trkpt lat="38.98961267" lon="-0.52372185"><ele>117.4</ele><time>2022-11-13T12:31:41.0000000+00:00</time></trkpt><trkpt lat="38.98962122" lon="-0.52372403"><ele>117.4</ele><time>2022-11-13T12:31:42.0000000+00:00</time></trkpt><trkpt lat="38.98961644" lon="-0.52372461"><ele>117.4</ele><time>2022-11-13T12:31:43.0000000+00:00</time></trkpt><trkpt lat="38.98961945" lon="-0.52372947"><ele>117.4</ele><time>2022-11-13T12:31:44.0000000+00:00</time></trkpt><trkpt lat="38.9896099" lon="-0.52373216"><ele>117.4</ele><time>2022-11-13T12:31:45.0000000+00:00</time></trkpt><trkpt lat="38.98960655" lon="-0.52373358"><ele>117.4</ele><time>2022-11-13T12:31:46.0000000+00:00</time></trkpt><trkpt lat="38.98960588" lon="-0.5237366"><ele>117.4</ele><time>2022-11-13T12:31:47.0000000+00:00</time></trkpt><trkpt lat="38.98960562" lon="-0.52373869"><ele>117.4</ele><time>2022-11-13T12:31:48.0000000+00:00</time></trkpt><trkpt lat="38.98960185" lon="-0.52374305"><ele>117.4</ele><time>2022-11-13T12:31:49.0000000+00:00</time></trkpt><trkpt lat="38.98960353" lon="-0.52374557"><ele>117.4</ele><time>2022-11-13T12:31:50.0000000+00:00</time></trkpt><trkpt lat="38.98960445" lon="-0.52374842"><ele>117.4</ele><time>2022-11-13T12:31:51.0000000+00:00</time></trkpt><trkpt lat="38.98960009" lon="-0.52374926"><ele>117.4</ele><time>2022-11-13T12:31:52.0000000+00:00</time></trkpt><trkpt lat="38.98960613" lon="-0.52374238"><ele>117.4</ele><time>2022-11-13T12:31:53.0000000+00:00</time></trkpt><trkpt lat="38.98961082" lon="-0.52373291"><ele>117.4</ele><time>2022-11-13T12:31:54.0000000+00:00</time></trkpt><trkpt lat="38.98961241" lon="-0.52373048"><ele>117.4</ele><time>2022-11-13T12:31:55.0000000+00:00</time></trkpt><trkpt lat="38.98961426" lon="-0.52372998"><ele>117.4</ele><time>2022-11-13T12:31:56.0000000+00:00</time></trkpt><trkpt lat="38.98961593" lon="-0.52373249"><ele>117.4</ele><time>2022-11-13T12:31:57.0000000+00:00</time></trkpt><trkpt lat="38.98960495" lon="-0.52373827"><ele>117.4</ele><time>2022-11-13T12:31:58.0000000+00:00</time></trkpt><trkpt lat="38.9895928" lon="-0.5237319"><ele>117.4</ele><time>2022-11-13T12:31:59.0000000+00:00</time></trkpt><trkpt lat="38.98956841" lon="-0.52373325"><ele>117.4</ele><time>2022-11-13T12:32:00.0000000+00:00</time></trkpt><trkpt lat="38.98956388" lon="-0.52373165"><ele>117.2</ele><time>2022-11-13T12:32:01.0000000+00:00</time></trkpt><trkpt lat="38.98956112" lon="-0.52373635"><ele>117.2</ele><time>2022-11-13T12:32:02.0000000+00:00</time></trkpt><trkpt lat="38.98955508" lon="-0.52373811"><ele>117.2</ele><time>2022-11-13T12:32:03.0000000+00:00</time></trkpt><trkpt lat="38.98955022" lon="-0.52374121"><ele>117.2</ele><time>2022-11-13T12:32:04.0000000+00:00</time></trkpt><trkpt lat="38.98954016" lon="-0.52375713"><ele>117.2</ele><time>2022-11-13T12:32:05.0000000+00:00</time></trkpt><trkpt lat="38.98953027" lon="-0.52377046"><ele>117.2</ele><time>2022-11-13T12:32:06.0000000+00:00</time></trkpt><trkpt lat="38.98952683" lon="-0.52377851"><ele>117.2</ele><time>2022-11-13T12:32:07.0000000+00:00</time></trkpt><trkpt lat="38.98952952" lon="-0.5237516"><ele>117.2</ele><time>2022-11-13T12:32:08.0000000+00:00</time></trkpt><trkpt lat="38.98953019" lon="-0.52375294"><ele>117.4</ele><time>2022-11-13T12:32:09.0000000+00:00</time></trkpt><trkpt lat="38.9895234" lon="-0.52377842"><ele>117.4</ele><time>2022-11-13T12:32:10.0000000+00:00</time></trkpt><trkpt lat="38.98952239" lon="-0.52378169"><ele>117.4</ele><time>2022-11-13T12:32:11.0000000+00:00</time></trkpt><trkpt lat="38.98953429" lon="-0.52377851"><ele>117.4</ele><time>2022-11-13T12:32:12.0000000+00:00</time></trkpt><trkpt lat="38.98954092" lon="-0.52376216"><ele>117.2</ele><time>2022-11-13T12:32:13.0000000+00:00</time></trkpt><trkpt lat="38.9895389" lon="-0.52376619"><ele>117.2</ele><time>2022-11-13T12:32:14.0000000+00:00</time></trkpt><trkpt lat="38.98954167" lon="-0.5237568"><ele>117.2</ele><time>2022-11-13T12:32:15.0000000+00:00</time></trkpt><trkpt lat="38.98953907" lon="-0.52375646"><ele>117.2</ele><time>2022-11-13T12:32:16.0000000+00:00</time></trkpt><trkpt lat="38.98953245" lon="-0.52377474"><ele>117.2</ele><time>2022-11-13T12:32:17.0000000+00:00</time></trkpt><trkpt lat="38.98953094" lon="-0.52378463"><ele>117.2</ele><time>2022-11-13T12:32:18.0000000+00:00</time></trkpt><trkpt lat="38.98953497" lon="-0.52378312"><ele>117.2</ele><time>2022-11-13T12:32:19.0000000+00:00</time></trkpt><trkpt lat="38.98954645" lon="-0.52375043"><ele>117.2</ele><time>2022-11-13T12:32:20.0000000+00:00</time></trkpt><trkpt lat="38.98955064" lon="-0.52374506"><ele>117.2</ele><time>2022-11-13T12:32:21.0000000+00:00</time></trkpt><trkpt lat="38.98954997" lon="-0.52374037"><ele>117.2</ele><time>2022-11-13T12:32:22.0000000+00:00</time></trkpt><trkpt lat="38.98955315" lon="-0.52372696"><ele>117.2</ele><time>2022-11-13T12:32:23.0000000+00:00</time></trkpt><trkpt lat="38.98955885" lon="-0.52371707"><ele>117.2</ele><time>2022-11-13T12:32:24.0000000+00:00</time></trkpt><trkpt lat="38.98954712" lon="-0.52371883"><ele>117.2</ele><time>2022-11-13T12:32:25.0000000+00:00</time></trkpt><trkpt lat="38.98952734" lon="-0.52373685"><ele>117.2</ele><time>2022-11-13T12:32:26.0000000+00:00</time></trkpt><trkpt lat="38.98951015" lon="-0.52375361"><ele>117.2</ele><time>2022-11-13T12:32:27.0000000+00:00</time></trkpt><trkpt lat="38.98951267" lon="-0.52376107"><ele>117.2</ele><time>2022-11-13T12:32:28.0000000+00:00</time></trkpt><trkpt lat="38.98951393" lon="-0.52377013"><ele>117.2</ele><time>2022-11-13T12:32:29.0000000+00:00</time></trkpt><trkpt lat="38.98952181" lon="-0.52376568"><ele>117.2</ele><time>2022-11-13T12:32:30.0000000+00:00</time></trkpt><trkpt lat="38.98952097" lon="-0.52377423"><ele>117.2</ele><time>2022-11-13T12:32:31.0000000+00:00</time></trkpt><trkpt lat="38.98952239" lon="-0.523777"><ele>117.2</ele><time>2022-11-13T12:32:32.0000000+00:00</time></trkpt><trkpt lat="38.98952398" lon="-0.52377909"><ele>117.2</ele><time>2022-11-13T12:32:33.0000000+00:00</time></trkpt><trkpt lat="38.98952801" lon="-0.52377222"><ele>117.2</ele><time>2022-11-13T12:32:34.0000000+00:00</time></trkpt><trkpt lat="38.98952717" lon="-0.52376795"><ele>117.2</ele><time>2022-11-13T12:32:35.0000000+00:00</time></trkpt><trkpt lat="38.98952683" lon="-0.5237635"><ele>117.2</ele><time>2022-11-13T12:32:36.0000000+00:00</time></trkpt><trkpt lat="38.98952826" lon="-0.52375571"><ele>117.2</ele><time>2022-11-13T12:32:37.0000000+00:00</time></trkpt><trkpt lat="38.98952927" lon="-0.52374867"><ele>117.2</ele><time>2022-11-13T12:32:38.0000000+00:00</time></trkpt><trkpt lat="38.98952801" lon="-0.52374247"><ele>117.2</ele><time>2022-11-13T12:32:39.0000000+00:00</time></trkpt><trkpt lat="38.98952633" lon="-0.52373559"><ele>117.2</ele><time>2022-11-13T12:32:40.0000000+00:00</time></trkpt><trkpt lat="38.98952357" lon="-0.52372788"><ele>117.2</ele><time>2022-11-13T12:32:41.0000000+00:00</time></trkpt><trkpt lat="38.98952114" lon="-0.52372159"><ele>117.2</ele><time>2022-11-13T12:32:42.0000000+00:00</time></trkpt><trkpt lat="38.98951954" lon="-0.52371439"><ele>117.2</ele><time>2022-11-13T12:32:43.0000000+00:00</time></trkpt><trkpt lat="38.98952147" lon="-0.52370726"><ele>117.2</ele><time>2022-11-13T12:32:44.0000000+00:00</time></trkpt><trkpt lat="38.98952767" lon="-0.523705"><ele>117.2</ele><time>2022-11-13T12:32:45.0000000+00:00</time></trkpt><trkpt lat="38.98952876" lon="-0.52370299"><ele>117.2</ele><time>2022-11-13T12:32:46.0000000+00:00</time></trkpt><trkpt lat="38.98952541" lon="-0.52370072"><ele>117.2</ele><time>2022-11-13T12:32:47.0000000+00:00</time></trkpt><trkpt lat="38.98952114" lon="-0.52369754"><ele>117.2</ele><time>2022-11-13T12:32:48.0000000+00:00</time></trkpt><trkpt lat="38.98952231" lon="-0.52369142"><ele>117.2</ele><time>2022-11-13T12:32:49.0000000+00:00</time></trkpt><trkpt lat="38.98952625" lon="-0.5236848"><ele>117.2</ele><time>2022-11-13T12:32:50.0000000+00:00</time></trkpt><trkpt lat="38.9895389" lon="-0.52367742"><ele>117.2</ele><time>2022-11-13T12:32:51.0000000+00:00</time></trkpt><trkpt lat="38.98954528" lon="-0.52367348"><ele>117.2</ele><time>2022-11-13T12:32:52.0000000+00:00</time></trkpt><trkpt lat="38.98950596" lon="-0.5236708"><ele>117.2</ele><time>2022-11-13T12:32:53.0000000+00:00</time></trkpt><trkpt lat="38.98949482" lon="-0.52366929"><ele>117.2</ele><time>2022-11-13T12:32:54.0000000+00:00</time></trkpt><trkpt lat="38.98948358" lon="-0.52366938"><ele>117.2</ele><time>2022-11-13T12:32:55.0000000+00:00</time></trkpt><trkpt lat="38.98947663" lon="-0.52367373"><ele>117.2</ele><time>2022-11-13T12:32:56.0000000+00:00</time></trkpt><trkpt lat="38.98946925" lon="-0.52367885"><ele>117.2</ele><time>2022-11-13T12:32:57.0000000+00:00</time></trkpt><trkpt lat="38.98945148" lon="-0.52367927"><ele>117.2</ele><time>2022-11-13T12:32:58.0000000+00:00</time></trkpt><trkpt lat="38.98944628" lon="-0.52368086"><ele>117.2</ele><time>2022-11-13T12:32:59.0000000+00:00</time></trkpt><trkpt lat="38.98943497" lon="-0.52367952"><ele>117.2</ele><time>2022-11-13T12:33:00.0000000+00:00</time></trkpt><trkpt lat="38.98942038" lon="-0.5236729"><ele>117.2</ele><time>2022-11-13T12:33:01.0000000+00:00</time></trkpt><trkpt lat="38.98942072" lon="-0.5236703"><ele>117.2</ele><time>2022-11-13T12:33:02.0000000+00:00</time></trkpt><trkpt lat="38.98941686" lon="-0.52366812"><ele>117.2</ele><time>2022-11-13T12:33:03.0000000+00:00</time></trkpt><trkpt lat="38.98939608" lon="-0.52366544"><ele>117.2</ele><time>2022-11-13T12:33:04.0000000+00:00</time></trkpt><trkpt lat="38.98937051" lon="-0.52365881"><ele>117.2</ele><time>2022-11-13T12:33:05.0000000+00:00</time></trkpt><trkpt lat="38.98934444" lon="-0.52365337"><ele>117.2</ele><time>2022-11-13T12:33:06.0000000+00:00</time></trkpt><trkpt lat="38.98933137" lon="-0.52365504"><ele>117.2</ele><time>2022-11-13T12:33:07.0000000+00:00</time></trkpt><trkpt lat="38.98933028" lon="-0.52365974"><ele>117.2</ele><time>2022-11-13T12:33:08.0000000+00:00</time></trkpt><trkpt lat="38.9893286" lon="-0.52366711"><ele>117.2</ele><time>2022-11-13T12:33:09.0000000+00:00</time></trkpt><trkpt lat="38.98933129" lon="-0.52367114"><ele>117.2</ele><time>2022-11-13T12:33:10.0000000+00:00</time></trkpt><trkpt lat="38.98934277" lon="-0.52367323"><ele>117.2</ele><time>2022-11-13T12:33:11.0000000+00:00</time></trkpt><trkpt lat="38.98933992" lon="-0.52367918"><ele>117.2</ele><time>2022-11-13T12:33:12.0000000+00:00</time></trkpt><trkpt lat="38.98934042" lon="-0.5236843"><ele>117.2</ele><time>2022-11-13T12:33:13.0000000+00:00</time></trkpt><trkpt lat="38.98934981" lon="-0.52368404"><ele>117.2</ele><time>2022-11-13T12:33:14.0000000+00:00</time></trkpt><trkpt lat="38.98935316" lon="-0.52368027"><ele>117.2</ele><time>2022-11-13T12:33:15.0000000+00:00</time></trkpt><trkpt lat="38.98935408" lon="-0.52368103"><ele>117.2</ele><time>2022-11-13T12:33:16.0000000+00:00</time></trkpt><trkpt lat="38.98935274" lon="-0.52368052"><ele>117.2</ele><time>2022-11-13T12:33:17.0000000+00:00</time></trkpt><trkpt lat="38.98935165" lon="-0.52366971"><ele>117.2</ele><time>2022-11-13T12:33:18.0000000+00:00</time></trkpt><trkpt lat="38.9893307" lon="-0.52365823"><ele>117.2</ele><time>2022-11-13T12:33:19.0000000+00:00</time></trkpt><trkpt lat="38.98930572" lon="-0.52365496"><ele>117.2</ele><time>2022-11-13T12:33:20.0000000+00:00</time></trkpt><trkpt lat="38.98928745" lon="-0.52365546"><ele>117.2</ele><time>2022-11-13T12:33:21.0000000+00:00</time></trkpt><trkpt lat="38.98927253" lon="-0.52366259"><ele>117.2</ele><time>2022-11-13T12:33:22.0000000+00:00</time></trkpt><trkpt lat="38.98925736" lon="-0.52366954"><ele>117.2</ele><time>2022-11-13T12:33:23.0000000+00:00</time></trkpt><trkpt lat="38.98925819" lon="-0.52367264"><ele>117.2</ele><time>2022-11-13T12:33:24.0000000+00:00</time></trkpt><trkpt lat="38.9892644" lon="-0.52367751"><ele>117.2</ele><time>2022-11-13T12:33:25.0000000+00:00</time></trkpt><trkpt lat="38.9892675" lon="-0.52368337"><ele>117.2</ele><time>2022-11-13T12:33:26.0000000+00:00</time></trkpt><trkpt lat="38.98926934" lon="-0.52368631"><ele>117.2</ele><time>2022-11-13T12:33:27.0000000+00:00</time></trkpt><trkpt lat="38.98926532" lon="-0.52369628"><ele>117.2</ele><time>2022-11-13T12:33:28.0000000+00:00</time></trkpt><trkpt lat="38.98925073" lon="-0.52371464"><ele>117.2</ele><time>2022-11-13T12:33:29.0000000+00:00</time></trkpt><trkpt lat="38.98923297" lon="-0.5237402"><ele>117.2</ele><time>2022-11-13T12:33:30.0000000+00:00</time></trkpt><trkpt lat="38.98921788" lon="-0.52376736"><ele>117.2</ele><time>2022-11-13T12:33:31.0000000+00:00</time></trkpt><trkpt lat="38.98921587" lon="-0.52378655"><ele>117.2</ele><time>2022-11-13T12:33:32.0000000+00:00</time></trkpt><trkpt lat="38.98921771" lon="-0.52380416"><ele>117.2</ele><time>2022-11-13T12:33:33.0000000+00:00</time></trkpt><trkpt lat="38.98922391" lon="-0.52382092"><ele>117.2</ele><time>2022-11-13T12:33:34.0000000+00:00</time></trkpt><trkpt lat="38.9892214" lon="-0.52383358"><ele>117.2</ele><time>2022-11-13T12:33:35.0000000+00:00</time></trkpt><trkpt lat="38.98922483" lon="-0.52384774"><ele>117.2</ele><time>2022-11-13T12:33:36.0000000+00:00</time></trkpt><trkpt lat="38.98925275" lon="-0.52382947"><ele>117.2</ele><time>2022-11-13T12:33:37.0000000+00:00</time></trkpt><trkpt lat="38.98925023" lon="-0.52384447"><ele>117.2</ele><time>2022-11-13T12:33:38.0000000+00:00</time></trkpt><trkpt lat="38.98925727" lon="-0.52385235"><ele>117.2</ele><time>2022-11-13T12:33:39.0000000+00:00</time></trkpt><trkpt lat="38.98925115" lon="-0.52386493"><ele>117.2</ele><time>2022-11-13T12:33:40.0000000+00:00</time></trkpt><trkpt lat="38.98924462" lon="-0.5238728"><ele>117.2</ele><time>2022-11-13T12:33:41.0000000+00:00</time></trkpt><trkpt lat="38.98923079" lon="-0.52388018"><ele>117.2</ele><time>2022-11-13T12:33:42.0000000+00:00</time></trkpt><trkpt lat="38.98921285" lon="-0.52389275"><ele>117.2</ele><time>2022-11-13T12:33:43.0000000+00:00</time></trkpt><trkpt lat="38.98920069" lon="-0.52390407"><ele>117.2</ele><time>2022-11-13T12:33:44.0000000+00:00</time></trkpt><trkpt lat="38.98919198" lon="-0.52390818"><ele>117.2</ele><time>2022-11-13T12:33:45.0000000+00:00</time></trkpt><trkpt lat="38.98917882" lon="-0.5239246"><ele>117.2</ele><time>2022-11-13T12:33:46.0000000+00:00</time></trkpt><trkpt lat="38.9891649" lon="-0.52394179"><ele>117.2</ele><time>2022-11-13T12:33:47.0000000+00:00</time></trkpt><trkpt lat="38.98915191" lon="-0.52395847"><ele>117.2</ele><time>2022-11-13T12:33:48.0000000+00:00</time></trkpt><trkpt lat="38.98914663" lon="-0.52396987"><ele>117.2</ele><time>2022-11-13T12:33:49.0000000+00:00</time></trkpt><trkpt lat="38.98914621" lon="-0.52396987"><ele>117.2</ele><time>2022-11-13T12:33:50.0000000+00:00</time></trkpt><trkpt lat="38.98914554" lon="-0.5239619"><ele>117.2</ele><time>2022-11-13T12:33:51.0000000+00:00</time></trkpt><trkpt lat="38.98913649" lon="-0.52397087"><ele>117.2</ele><time>2022-11-13T12:33:52.0000000+00:00</time></trkpt><trkpt lat="38.98913054" lon="-0.52398076"><ele>117.2</ele><time>2022-11-13T12:33:53.0000000+00:00</time></trkpt><trkpt lat="38.98912551" lon="-0.52399208"><ele>117.2</ele><time>2022-11-13T12:33:54.0000000+00:00</time></trkpt><trkpt lat="38.98912031" lon="-0.52400138"><ele>117.2</ele><time>2022-11-13T12:33:55.0000000+00:00</time></trkpt><trkpt lat="38.98911294" lon="-0.5240106"><ele>117.2</ele><time>2022-11-13T12:33:56.0000000+00:00</time></trkpt><trkpt lat="38.98911126" lon="-0.52401706"><ele>117.2</ele><time>2022-11-13T12:33:57.0000000+00:00</time></trkpt><trkpt lat="38.98911042" lon="-0.52402678"><ele>117.2</ele><time>2022-11-13T12:33:58.0000000+00:00</time></trkpt><trkpt lat="38.98911872" lon="-0.52402611"><ele>117.2</ele><time>2022-11-13T12:33:59.0000000+00:00</time></trkpt><trkpt lat="38.98912383" lon="-0.5240277"><ele>117.2</ele><time>2022-11-13T12:34:00.0000000+00:00</time></trkpt><trkpt lat="38.98912341" lon="-0.52401454"><ele>117.2</ele><time>2022-11-13T12:34:01.0000000+00:00</time></trkpt><trkpt lat="38.98911595" lon="-0.52398395"><ele>117.2</ele><time>2022-11-13T12:34:02.0000000+00:00</time></trkpt><trkpt lat="38.98911461" lon="-0.52395218"><ele>117.2</ele><time>2022-11-13T12:34:03.0000000+00:00</time></trkpt><trkpt lat="38.98912014" lon="-0.52392863"><ele>117.2</ele><time>2022-11-13T12:34:04.0000000+00:00</time></trkpt><trkpt lat="38.98913682" lon="-0.52391388"><ele>117.2</ele><time>2022-11-13T12:34:05.0000000+00:00</time></trkpt><trkpt lat="38.98915585" lon="-0.5239029"><ele>117.2</ele><time>2022-11-13T12:34:06.0000000+00:00</time></trkpt><trkpt lat="38.9891644" lon="-0.52389812"><ele>117.2</ele><time>2022-11-13T12:34:07.0000000+00:00</time></trkpt><trkpt lat="38.98914831" lon="-0.52388839"><ele>117.2</ele><time>2022-11-13T12:34:08.0000000+00:00</time></trkpt><trkpt lat="38.98912618" lon="-0.52387574"><ele>117.2</ele><time>2022-11-13T12:34:09.0000000+00:00</time></trkpt><trkpt lat="38.98912266" lon="-0.52386409"><ele>117.2</ele><time>2022-11-13T12:34:10.0000000+00:00</time></trkpt><trkpt lat="38.98912844" lon="-0.52385847"><ele>117.2</ele><time>2022-11-13T12:34:11.0000000+00:00</time></trkpt><trkpt lat="38.98912693" lon="-0.52385587"><ele>117.2</ele><time>2022-11-13T12:34:12.0000000+00:00</time></trkpt><trkpt lat="38.98911579" lon="-0.52387364"><ele>117.2</ele><time>2022-11-13T12:34:13.0000000+00:00</time></trkpt><trkpt lat="38.98910564" lon="-0.52388311"><ele>117.2</ele><time>2022-11-13T12:34:14.0000000+00:00</time></trkpt><trkpt lat="38.98910464" lon="-0.52388655"><ele>117.2</ele><time>2022-11-13T12:34:15.0000000+00:00</time></trkpt><trkpt lat="38.98911528" lon="-0.52387817"><ele>117.2</ele><time>2022-11-13T12:34:16.0000000+00:00</time></trkpt><trkpt lat="38.98911897" lon="-0.523878"><ele>117.2</ele><time>2022-11-13T12:34:17.0000000+00:00</time></trkpt><trkpt lat="38.98911813" lon="-0.52387289"><ele>117.2</ele><time>2022-11-13T12:34:18.0000000+00:00</time></trkpt><trkpt lat="38.98911134" lon="-0.523864"><ele>117.2</ele><time>2022-11-13T12:34:19.0000000+00:00</time></trkpt><trkpt lat="38.98911059" lon="-0.52385529"><ele>117.2</ele><time>2022-11-13T12:34:20.0000000+00:00</time></trkpt><trkpt lat="38.9891069" lon="-0.52386073"><ele>117.2</ele><time>2022-11-13T12:34:21.0000000+00:00</time></trkpt><trkpt lat="38.98910472" lon="-0.52386493"><ele>117.2</ele><time>2022-11-13T12:34:22.0000000+00:00</time></trkpt><trkpt lat="38.98910439" lon="-0.52387096"><ele>117.2</ele><time>2022-11-13T12:34:23.0000000+00:00</time></trkpt><trkpt lat="38.98910606" lon="-0.523878"><ele>117.2</ele><time>2022-11-13T12:34:24.0000000+00:00</time></trkpt><trkpt lat="38.98910556" lon="-0.52389057"><ele>117.2</ele><time>2022-11-13T12:34:25.0000000+00:00</time></trkpt><trkpt lat="38.98911964" lon="-0.52390231"><ele>117.2</ele><time>2022-11-13T12:34:26.0000000+00:00</time></trkpt><trkpt lat="38.98912744" lon="-0.5239091"><ele>117.2</ele><time>2022-11-13T12:34:27.0000000+00:00</time></trkpt><trkpt lat="38.98913154" lon="-0.52391614"><ele>117.2</ele><time>2022-11-13T12:34:28.0000000+00:00</time></trkpt><trkpt lat="38.98915594" lon="-0.52391773"><ele>117.2</ele><time>2022-11-13T12:34:29.0000000+00:00</time></trkpt><trkpt lat="38.98915459" lon="-0.52393081"><ele>117.2</ele><time>2022-11-13T12:34:30.0000000+00:00</time></trkpt><trkpt lat="38.9891634" lon="-0.52394531"><ele>117.2</ele><time>2022-11-13T12:34:31.0000000+00:00</time></trkpt><trkpt lat="38.98915485" lon="-0.52396668"><ele>117.2</ele><time>2022-11-13T12:34:32.0000000+00:00</time></trkpt><trkpt lat="38.98916189" lon="-0.5239764"><ele>117.2</ele><time>2022-11-13T12:34:33.0000000+00:00</time></trkpt><trkpt lat="38.98914856" lon="-0.52398764"><ele>117.2</ele><time>2022-11-13T12:34:34.0000000+00:00</time></trkpt><trkpt lat="38.98915099" lon="-0.52399459"><ele>117.2</ele><time>2022-11-13T12:34:35.0000000+00:00</time></trkpt><trkpt lat="38.98915493" lon="-0.52399702"><ele>117.2</ele><time>2022-11-13T12:34:36.0000000+00:00</time></trkpt><trkpt lat="38.98917253" lon="-0.52399853"><ele>117.2</ele><time>2022-11-13T12:34:37.0000000+00:00</time></trkpt><trkpt lat="38.98918821" lon="-0.52400189"><ele>117.2</ele><time>2022-11-13T12:34:38.0000000+00:00</time></trkpt><trkpt lat="38.98919676" lon="-0.52400432"><ele>118.0</ele><time>2022-11-13T12:34:39.0000000+00:00</time></trkpt><trkpt lat="38.98921193" lon="-0.52400918"><ele>118.4</ele><time>2022-11-13T12:34:40.0000000+00:00</time></trkpt><trkpt lat="38.98921805" lon="-0.52401756"><ele>118.8</ele><time>2022-11-13T12:34:41.0000000+00:00</time></trkpt><trkpt lat="38.98919541" lon="-0.52402703"><ele>118.8</ele><time>2022-11-13T12:34:42.0000000+00:00</time></trkpt><trkpt lat="38.98919215" lon="-0.52403977"><ele>119.0</ele><time>2022-11-13T12:34:43.0000000+00:00</time></trkpt><trkpt lat="38.98919759" lon="-0.52404597"><ele>119.0</ele><time>2022-11-13T12:34:44.0000000+00:00</time></trkpt><trkpt lat="38.98919399" lon="-0.52404665"><ele>119.0</ele><time>2022-11-13T12:34:45.0000000+00:00</time></trkpt><trkpt lat="38.98917982" lon="-0.52404799"><ele>119.0</ele><time>2022-11-13T12:34:46.0000000+00:00</time></trkpt><trkpt lat="38.98916323" lon="-0.52404857"><ele>119.2</ele><time>2022-11-13T12:34:47.0000000+00:00</time></trkpt><trkpt lat="38.98914261" lon="-0.52403566"><ele>119.2</ele><time>2022-11-13T12:34:48.0000000+00:00</time></trkpt><trkpt lat="38.98913607" lon="-0.52402846"><ele>119.2</ele><time>2022-11-13T12:34:49.0000000+00:00</time></trkpt><trkpt lat="38.98912786" lon="-0.524036"><ele>119.4</ele><time>2022-11-13T12:34:50.0000000+00:00</time></trkpt><trkpt lat="38.98912266" lon="-0.52404271"><ele>119.4</ele><time>2022-11-13T12:34:51.0000000+00:00</time></trkpt><trkpt lat="38.98911931" lon="-0.52404002"><ele>119.4</ele><time>2022-11-13T12:34:52.0000000+00:00</time></trkpt><trkpt lat="38.98912065" lon="-0.52404321"><ele>119.4</ele><time>2022-11-13T12:34:53.0000000+00:00</time></trkpt><trkpt lat="38.9891188" lon="-0.52404472"><ele>119.4</ele><time>2022-11-13T12:34:54.0000000+00:00</time></trkpt><trkpt lat="38.98910958" lon="-0.52404807"><ele>119.6</ele><time>2022-11-13T12:34:55.0000000+00:00</time></trkpt><trkpt lat="38.98910699" lon="-0.52404706"><ele>119.6</ele><time>2022-11-13T12:34:56.0000000+00:00</time></trkpt><trkpt lat="38.98910455" lon="-0.52404597"><ele>119.6</ele><time>2022-11-13T12:34:57.0000000+00:00</time></trkpt><trkpt lat="38.98910497" lon="-0.52404312"><ele>119.6</ele><time>2022-11-13T12:34:58.0000000+00:00</time></trkpt><trkpt lat="38.98910606" lon="-0.52404069"><ele>119.6</ele><time>2022-11-13T12:34:59.0000000+00:00</time></trkpt><trkpt lat="38.98910548" lon="-0.52402846"><ele>119.8</ele><time>2022-11-13T12:35:00.0000000+00:00</time></trkpt><trkpt lat="38.98910187" lon="-0.52401966"><ele>119.8</ele><time>2022-11-13T12:35:01.0000000+00:00</time></trkpt><trkpt lat="38.98910137" lon="-0.52401999"><ele>119.8</ele><time>2022-11-13T12:35:02.0000000+00:00</time></trkpt><trkpt lat="38.98909433" lon="-0.524022"><ele>119.8</ele><time>2022-11-13T12:35:03.0000000+00:00</time></trkpt><trkpt lat="38.98908787" lon="-0.52401915"><ele>119.8</ele><time>2022-11-13T12:35:04.0000000+00:00</time></trkpt><trkpt lat="38.98908259" lon="-0.52401521"><ele>120.0</ele><time>2022-11-13T12:35:05.0000000+00:00</time></trkpt><trkpt lat="38.98908025" lon="-0.52402116"><ele>120.0</ele><time>2022-11-13T12:35:06.0000000+00:00</time></trkpt><trkpt lat="38.98907505" lon="-0.52401639"><ele>120.0</ele><time>2022-11-13T12:35:07.0000000+00:00</time></trkpt><trkpt lat="38.98907027" lon="-0.52400331"><ele>120.2</ele><time>2022-11-13T12:35:08.0000000+00:00</time></trkpt><trkpt lat="38.98906357" lon="-0.52399292"><ele>120.2</ele><time>2022-11-13T12:35:09.0000000+00:00</time></trkpt><trkpt lat="38.98905074" lon="-0.52399015"><ele>120.2</ele><time>2022-11-13T12:35:10.0000000+00:00</time></trkpt><trkpt lat="38.98904169" lon="-0.523992"><ele>120.2</ele><time>2022-11-13T12:35:11.0000000+00:00</time></trkpt><trkpt lat="38.98902954" lon="-0.52399761"><ele>120.2</ele><time>2022-11-13T12:35:12.0000000+00:00</time></trkpt><trkpt lat="38.98901512" lon="-0.52400532"><ele>120.2</ele><time>2022-11-13T12:35:13.0000000+00:00</time></trkpt><trkpt lat="38.98899995" lon="-0.52401421"><ele>120.4</ele><time>2022-11-13T12:35:14.0000000+00:00</time></trkpt><trkpt lat="38.98898562" lon="-0.52401689"><ele>120.4</ele><time>2022-11-13T12:35:15.0000000+00:00</time></trkpt><trkpt lat="38.98898151" lon="-0.52401639"><ele>120.4</ele><time>2022-11-13T12:35:16.0000000+00:00</time></trkpt><trkpt lat="38.98897614" lon="-0.52401178"><ele>120.4</ele><time>2022-11-13T12:35:17.0000000+00:00</time></trkpt><trkpt lat="38.9889608" lon="-0.52400683"><ele>120.4</ele><time>2022-11-13T12:35:18.0000000+00:00</time></trkpt><trkpt lat="38.9889427" lon="-0.52400474"><ele>120.6</ele><time>2022-11-13T12:35:19.0000000+00:00</time></trkpt><trkpt lat="38.98892166" lon="-0.52400549"><ele>120.6</ele><time>2022-11-13T12:35:20.0000000+00:00</time></trkpt><trkpt lat="38.98891688" lon="-0.52401018"><ele>120.6</ele><time>2022-11-13T12:35:21.0000000+00:00</time></trkpt><trkpt lat="38.98890129" lon="-0.52401119"><ele>120.6</ele><time>2022-11-13T12:35:22.0000000+00:00</time></trkpt><trkpt lat="38.98888746" lon="-0.52401471"><ele>120.6</ele><time>2022-11-13T12:35:23.0000000+00:00</time></trkpt><trkpt lat="38.98887481" lon="-0.52402183"><ele>120.6</ele><time>2022-11-13T12:35:24.0000000+00:00</time></trkpt><trkpt lat="38.98886726" lon="-0.52402955"><ele>120.6</ele><time>2022-11-13T12:35:25.0000000+00:00</time></trkpt><trkpt lat="38.98886408" lon="-0.52403298"><ele>120.6</ele><time>2022-11-13T12:35:26.0000000+00:00</time></trkpt><trkpt lat="38.98886249" lon="-0.52403474"><ele>120.8</ele><time>2022-11-13T12:35:27.0000000+00:00</time></trkpt><trkpt lat="38.98886223" lon="-0.52403608"><ele>120.8</ele><time>2022-11-13T12:35:28.0000000+00:00</time></trkpt><trkpt lat="38.98886223" lon="-0.52403055"><ele>120.8</ele><time>2022-11-13T12:35:29.0000000+00:00</time></trkpt><trkpt lat="38.98885042" lon="-0.52402603"><ele>121.0</ele><time>2022-11-13T12:35:30.0000000+00:00</time></trkpt><trkpt lat="38.98884639" lon="-0.52402686"><ele>121.0</ele><time>2022-11-13T12:35:31.0000000+00:00</time></trkpt><trkpt lat="38.98884145" lon="-0.52402712"><ele>121.0</ele><time>2022-11-13T12:35:32.0000000+00:00</time></trkpt><trkpt lat="38.98883943" lon="-0.52402644"><ele>121.2</ele><time>2022-11-13T12:35:33.0000000+00:00</time></trkpt><trkpt lat="38.98882058" lon="-0.52403575"><ele>121.2</ele><time>2022-11-13T12:35:34.0000000+00:00</time></trkpt><trkpt lat="38.98880222" lon="-0.52403826"><ele>121.2</ele><time>2022-11-13T12:35:35.0000000+00:00</time></trkpt><trkpt lat="38.98879602" lon="-0.52404715"><ele>121.2</ele><time>2022-11-13T12:35:36.0000000+00:00</time></trkpt><trkpt lat="38.98878361" lon="-0.5240505"><ele>121.2</ele><time>2022-11-13T12:35:37.0000000+00:00</time></trkpt><trkpt lat="38.98876316" lon="-0.52406106"><ele>121.2</ele><time>2022-11-13T12:35:38.0000000+00:00</time></trkpt><trkpt lat="38.98874757" lon="-0.52407129"><ele>121.4</ele><time>2022-11-13T12:35:39.0000000+00:00</time></trkpt><trkpt lat="38.98872955" lon="-0.52407967"><ele>121.4</ele><time>2022-11-13T12:35:40.0000000+00:00</time></trkpt><trkpt lat="38.98871253" lon="-0.52408462"><ele>121.4</ele><time>2022-11-13T12:35:41.0000000+00:00</time></trkpt><trkpt lat="38.98869351" lon="-0.52409166"><ele>121.6</ele><time>2022-11-13T12:35:42.0000000+00:00</time></trkpt><trkpt lat="38.98867264" lon="-0.52409727"><ele>121.6</ele><time>2022-11-13T12:35:43.0000000+00:00</time></trkpt><trkpt lat="38.98865419" lon="-0.52409526"><ele>121.8</ele><time>2022-11-13T12:35:44.0000000+00:00</time></trkpt><trkpt lat="38.98863173" lon="-0.52409484"><ele>121.8</ele><time>2022-11-13T12:35:45.0000000+00:00</time></trkpt><trkpt lat="38.98861413" lon="-0.52409903"><ele>121.8</ele><time>2022-11-13T12:35:46.0000000+00:00</time></trkpt><trkpt lat="38.98860198" lon="-0.52410859"><ele>121.8</ele><time>2022-11-13T12:35:47.0000000+00:00</time></trkpt><trkpt lat="38.9885925" lon="-0.52411487"><ele>121.8</ele><time>2022-11-13T12:35:48.0000000+00:00</time></trkpt><trkpt lat="38.9885811" lon="-0.52412435"><ele>122.0</ele><time>2022-11-13T12:35:49.0000000+00:00</time></trkpt><trkpt lat="38.98856417" lon="-0.52413767"><ele>122.0</ele><time>2022-11-13T12:35:50.0000000+00:00</time></trkpt><trkpt lat="38.98854992" lon="-0.524136"><ele>122.0</ele><time>2022-11-13T12:35:51.0000000+00:00</time></trkpt><trkpt lat="38.98853584" lon="-0.52413005"><ele>122.2</ele><time>2022-11-13T12:35:52.0000000+00:00</time></trkpt><trkpt lat="38.98851849" lon="-0.52412745"><ele>122.2</ele><time>2022-11-13T12:35:53.0000000+00:00</time></trkpt><trkpt lat="38.98850391" lon="-0.52412996"><ele>122.4</ele><time>2022-11-13T12:35:54.0000000+00:00</time></trkpt><trkpt lat="38.98848773" lon="-0.52413197"><ele>122.4</ele><time>2022-11-13T12:35:55.0000000+00:00</time></trkpt><trkpt lat="38.98846887" lon="-0.5241339"><ele>122.4</ele><time>2022-11-13T12:35:56.0000000+00:00</time></trkpt><trkpt lat="38.9884475" lon="-0.52413734"><ele>122.4</ele><time>2022-11-13T12:35:57.0000000+00:00</time></trkpt><trkpt lat="38.98842813" lon="-0.52414178"><ele>122.4</ele><time>2022-11-13T12:35:58.0000000+00:00</time></trkpt><trkpt lat="38.98841472" lon="-0.52414044"><ele>122.6</ele><time>2022-11-13T12:35:59.0000000+00:00</time></trkpt><trkpt lat="38.98840173" lon="-0.52414052"><ele>122.6</ele><time>2022-11-13T12:36:00.0000000+00:00</time></trkpt><trkpt lat="38.98838656" lon="-0.52413893"><ele>122.6</ele><time>2022-11-13T12:36:01.0000000+00:00</time></trkpt><trkpt lat="38.98836837" lon="-0.52413466"><ele>122.6</ele><time>2022-11-13T12:36:02.0000000+00:00</time></trkpt><trkpt lat="38.98834867" lon="-0.52412979"><ele>122.6</ele><time>2022-11-13T12:36:03.0000000+00:00</time></trkpt><trkpt lat="38.9883413" lon="-0.52411513"><ele>122.8</ele><time>2022-11-13T12:36:04.0000000+00:00</time></trkpt><trkpt lat="38.9883361" lon="-0.52410079"><ele>122.8</ele><time>2022-11-13T12:36:05.0000000+00:00</time></trkpt><trkpt lat="38.98832655" lon="-0.52409308"><ele>122.8</ele><time>2022-11-13T12:36:06.0000000+00:00</time></trkpt><trkpt lat="38.98831096" lon="-0.52409467"><ele>123.0</ele><time>2022-11-13T12:36:07.0000000+00:00</time></trkpt><trkpt lat="38.98829738" lon="-0.52410146"><ele>123.0</ele><time>2022-11-13T12:36:08.0000000+00:00</time></trkpt><trkpt lat="38.9882755" lon="-0.52411077"><ele>123.0</ele><time>2022-11-13T12:36:09.0000000+00:00</time></trkpt><trkpt lat="38.98825815" lon="-0.52411236"><ele>123.0</ele><time>2022-11-13T12:36:10.0000000+00:00</time></trkpt><trkpt lat="38.98824491" lon="-0.52411328"><ele>123.0</ele><time>2022-11-13T12:36:11.0000000+00:00</time></trkpt><trkpt lat="38.98823527" lon="-0.52411638"><ele>123.2</ele><time>2022-11-13T12:36:12.0000000+00:00</time></trkpt><trkpt lat="38.98822177" lon="-0.52411303"><ele>123.2</ele><time>2022-11-13T12:36:13.0000000+00:00</time></trkpt><trkpt lat="38.98820685" lon="-0.52411337"><ele>123.2</ele><time>2022-11-13T12:36:14.0000000+00:00</time></trkpt><trkpt lat="38.9881957" lon="-0.52410951"><ele>123.2</ele><time>2022-11-13T12:36:15.0000000+00:00</time></trkpt><trkpt lat="38.98818355" lon="-0.52410473"><ele>123.4</ele><time>2022-11-13T12:36:16.0000000+00:00</time></trkpt><trkpt lat="38.98816645" lon="-0.52409593"><ele>123.4</ele><time>2022-11-13T12:36:17.0000000+00:00</time></trkpt><trkpt lat="38.98814164" lon="-0.52410482"><ele>123.4</ele><time>2022-11-13T12:36:18.0000000+00:00</time></trkpt><trkpt lat="38.98811893" lon="-0.52412577"><ele>123.4</ele><time>2022-11-13T12:36:19.0000000+00:00</time></trkpt><trkpt lat="38.9881092" lon="-0.52412862"><ele>123.6</ele><time>2022-11-13T12:36:20.0000000+00:00</time></trkpt><trkpt lat="38.9881056" lon="-0.52411328"><ele>123.6</ele><time>2022-11-13T12:36:21.0000000+00:00</time></trkpt><trkpt lat="38.98810878" lon="-0.52408646"><ele>123.6</ele><time>2022-11-13T12:36:22.0000000+00:00</time></trkpt><trkpt lat="38.98811239" lon="-0.52405503"><ele>123.8</ele><time>2022-11-13T12:36:23.0000000+00:00</time></trkpt><trkpt lat="38.98810476" lon="-0.52405109"><ele>123.8</ele><time>2022-11-13T12:36:24.0000000+00:00</time></trkpt><trkpt lat="38.98809956" lon="-0.52404648"><ele>124.0</ele><time>2022-11-13T12:36:25.0000000+00:00</time></trkpt><trkpt lat="38.98809772" lon="-0.52405872"><ele>124.0</ele><time>2022-11-13T12:36:26.0000000+00:00</time></trkpt><trkpt lat="38.98809504" lon="-0.52406894"><ele>124.4</ele><time>2022-11-13T12:36:27.0000000+00:00</time></trkpt><trkpt lat="38.98808372" lon="-0.52407104"><ele>124.4</ele><time>2022-11-13T12:36:28.0000000+00:00</time></trkpt><trkpt lat="38.98806805" lon="-0.52405553"><ele>124.6</ele><time>2022-11-13T12:36:29.0000000+00:00</time></trkpt><trkpt lat="38.98805791" lon="-0.52405033"><ele>124.6</ele><time>2022-11-13T12:36:30.0000000+00:00</time></trkpt><trkpt lat="38.98805078" lon="-0.52405813"><ele>125.0</ele><time>2022-11-13T12:36:31.0000000+00:00</time></trkpt><trkpt lat="38.98804072" lon="-0.52406106"><ele>125.2</ele><time>2022-11-13T12:36:32.0000000+00:00</time></trkpt><trkpt lat="38.98803125" lon="-0.5240593"><ele>125.4</ele><time>2022-11-13T12:36:33.0000000+00:00</time></trkpt><trkpt lat="38.9880186" lon="-0.52406232"><ele>125.4</ele><time>2022-11-13T12:36:34.0000000+00:00</time></trkpt><trkpt lat="38.98800795" lon="-0.52404061"><ele>125.4</ele><time>2022-11-13T12:36:35.0000000+00:00</time></trkpt><trkpt lat="38.98799605" lon="-0.52403835"><ele>125.4</ele><time>2022-11-13T12:36:36.0000000+00:00</time></trkpt><trkpt lat="38.98798146" lon="-0.52403927"><ele>125.6</ele><time>2022-11-13T12:36:37.0000000+00:00</time></trkpt><trkpt lat="38.9879668" lon="-0.52405385"><ele>125.8</ele><time>2022-11-13T12:36:38.0000000+00:00</time></trkpt><trkpt lat="38.98795112" lon="-0.5240702"><ele>125.8</ele><time>2022-11-13T12:36:39.0000000+00:00</time></trkpt><trkpt lat="38.98793746" lon="-0.52407129"><ele>126.0</ele><time>2022-11-13T12:36:40.0000000+00:00</time></trkpt><trkpt lat="38.98792606" lon="-0.52406349"><ele>126.0</ele><time>2022-11-13T12:36:41.0000000+00:00</time></trkpt><trkpt lat="38.98790862" lon="-0.52404924"><ele>126.2</ele><time>2022-11-13T12:36:42.0000000+00:00</time></trkpt><trkpt lat="38.98788884" lon="-0.52403566"><ele>126.4</ele><time>2022-11-13T12:36:43.0000000+00:00</time></trkpt><trkpt lat="38.98787803" lon="-0.52401898"><ele>126.4</ele><time>2022-11-13T12:36:44.0000000+00:00</time></trkpt><trkpt lat="38.98786102" lon="-0.52399577"><ele>126.6</ele><time>2022-11-13T12:36:45.0000000+00:00</time></trkpt><trkpt lat="38.98784333" lon="-0.52398571"><ele>126.6</ele><time>2022-11-13T12:36:46.0000000+00:00</time></trkpt><trkpt lat="38.98782489" lon="-0.52397875"><ele>126.8</ele><time>2022-11-13T12:36:47.0000000+00:00</time></trkpt><trkpt lat="38.98781257" lon="-0.52396358"><ele>126.8</ele><time>2022-11-13T12:36:48.0000000+00:00</time></trkpt><trkpt lat="38.98779413" lon="-0.52396283"><ele>126.8</ele><time>2022-11-13T12:36:49.0000000+00:00</time></trkpt><trkpt lat="38.98777661" lon="-0.52396869"><ele>127.0</ele><time>2022-11-13T12:36:50.0000000+00:00</time></trkpt><trkpt lat="38.98775926" lon="-0.52399543"><ele>127.0</ele><time>2022-11-13T12:36:51.0000000+00:00</time></trkpt><trkpt lat="38.98774216" lon="-0.5240075"><ele>127.0</ele><time>2022-11-13T12:36:52.0000000+00:00</time></trkpt><trkpt lat="38.98772758" lon="-0.52402016"><ele>127.2</ele><time>2022-11-13T12:36:53.0000000+00:00</time></trkpt><trkpt lat="38.98771307" lon="-0.52402963"><ele>127.2</ele><time>2022-11-13T12:36:54.0000000+00:00</time></trkpt><trkpt lat="38.98770117" lon="-0.52403256"><ele>127.4</ele><time>2022-11-13T12:36:55.0000000+00:00</time></trkpt><trkpt lat="38.98769497" lon="-0.52401756"><ele>127.4</ele><time>2022-11-13T12:36:56.0000000+00:00</time></trkpt><trkpt lat="38.98768441" lon="-0.52401287"><ele>127.4</ele><time>2022-11-13T12:36:57.0000000+00:00</time></trkpt><trkpt lat="38.98767234" lon="-0.52400138"><ele>127.4</ele><time>2022-11-13T12:36:58.0000000+00:00</time></trkpt><trkpt lat="38.98766169" lon="-0.52399434"><ele>127.6</ele><time>2022-11-13T12:36:59.0000000+00:00</time></trkpt><trkpt lat="38.98764703" lon="-0.52397649"><ele>127.6</ele><time>2022-11-13T12:37:00.0000000+00:00</time></trkpt><trkpt lat="38.98763454" lon="-0.52394682"><ele>127.6</ele><time>2022-11-13T12:37:01.0000000+00:00</time></trkpt><trkpt lat="38.98762087" lon="-0.52391798"><ele>127.8</ele><time>2022-11-13T12:37:02.0000000+00:00</time></trkpt><trkpt lat="38.98760386" lon="-0.52388932"><ele>127.8</ele><time>2022-11-13T12:37:03.0000000+00:00</time></trkpt><trkpt lat="38.98758693" lon="-0.52385973"><ele>128.0</ele><time>2022-11-13T12:37:04.0000000+00:00</time></trkpt><trkpt lat="38.98757301" lon="-0.52383173"><ele>128.0</ele><time>2022-11-13T12:37:05.0000000+00:00</time></trkpt><trkpt lat="38.98757092" lon="-0.52379854"><ele>128.0</ele><time>2022-11-13T12:37:06.0000000+00:00</time></trkpt><trkpt lat="38.98757117" lon="-0.52377323"><ele>128.0</ele><time>2022-11-13T12:37:07.0000000+00:00</time></trkpt><trkpt lat="38.98757067" lon="-0.52375278"><ele>128.0</ele><time>2022-11-13T12:37:08.0000000+00:00</time></trkpt><trkpt lat="38.98757067" lon="-0.52374305"><ele>128.0</ele><time>2022-11-13T12:37:09.0000000+00:00</time></trkpt><trkpt lat="38.98757016" lon="-0.52373651"><ele>128.0</ele><time>2022-11-13T12:37:10.0000000+00:00</time></trkpt><trkpt lat="38.9875658" lon="-0.52373744"><ele>128.0</ele><time>2022-11-13T12:37:11.0000000+00:00</time></trkpt><trkpt lat="38.98756153" lon="-0.52373526"><ele>128.0</ele><time>2022-11-13T12:37:12.0000000+00:00</time></trkpt><trkpt lat="38.98755365" lon="-0.52372855"><ele>128.0</ele><time>2022-11-13T12:37:13.0000000+00:00</time></trkpt><trkpt lat="38.98755432" lon="-0.52372109"><ele>128.2</ele><time>2022-11-13T12:37:14.0000000+00:00</time></trkpt><trkpt lat="38.98755927" lon="-0.52371313"><ele>128.2</ele><time>2022-11-13T12:37:15.0000000+00:00</time></trkpt><trkpt lat="38.98756354" lon="-0.52371237"><ele>128.2</ele><time>2022-11-13T12:37:16.0000000+00:00</time></trkpt><trkpt lat="38.98756555" lon="-0.52371556"><ele>128.2</ele><time>2022-11-13T12:37:17.0000000+00:00</time></trkpt><trkpt lat="38.98757695" lon="-0.52371346"><ele>128.4</ele><time>2022-11-13T12:37:18.0000000+00:00</time></trkpt><trkpt lat="38.98758961" lon="-0.52371816"><ele>128.4</ele><time>2022-11-13T12:37:19.0000000+00:00</time></trkpt><trkpt lat="38.98759112" lon="-0.52371891"><ele>128.4</ele><time>2022-11-13T12:37:20.0000000+00:00</time></trkpt><trkpt lat="38.98758173" lon="-0.52371958"><ele>128.4</ele><time>2022-11-13T12:37:21.0000000+00:00</time></trkpt><trkpt lat="38.98758005" lon="-0.52371992"><ele>128.6</ele><time>2022-11-13T12:37:22.0000000+00:00</time></trkpt><trkpt lat="38.98757712" lon="-0.52371958"><ele>128.6</ele><time>2022-11-13T12:37:23.0000000+00:00</time></trkpt><trkpt lat="38.98757142" lon="-0.52372537"><ele>128.0</ele><time>2022-11-13T12:37:24.0000000+00:00</time></trkpt><trkpt lat="38.98755742" lon="-0.52372377"><ele>128.0</ele><time>2022-11-13T12:37:25.0000000+00:00</time></trkpt><trkpt lat="38.98754519" lon="-0.52372528"><ele>128.0</ele><time>2022-11-13T12:37:26.0000000+00:00</time></trkpt><trkpt lat="38.98753597" lon="-0.52372495"><ele>128.0</ele><time>2022-11-13T12:37:27.0000000+00:00</time></trkpt><trkpt lat="38.98752934" lon="-0.52372696"><ele>128.2</ele><time>2022-11-13T12:37:28.0000000+00:00</time></trkpt><trkpt lat="38.98752591" lon="-0.52372964"><ele>128.2</ele><time>2022-11-13T12:37:29.0000000+00:00</time></trkpt><trkpt lat="38.98751216" lon="-0.52373869"><ele>128.2</ele><time>2022-11-13T12:37:30.0000000+00:00</time></trkpt><trkpt lat="38.98750193" lon="-0.52374423"><ele>128.4</ele><time>2022-11-13T12:37:31.0000000+00:00</time></trkpt><trkpt lat="38.98749271" lon="-0.52374875"><ele>128.4</ele><time>2022-11-13T12:37:32.0000000+00:00</time></trkpt><trkpt lat="38.98748366" lon="-0.52374112"><ele>128.6</ele><time>2022-11-13T12:37:33.0000000+00:00</time></trkpt><trkpt lat="38.98747335" lon="-0.52373685"><ele>128.6</ele><time>2022-11-13T12:37:34.0000000+00:00</time></trkpt><trkpt lat="38.98744402" lon="-0.52374758"><ele>128.6</ele><time>2022-11-13T12:37:35.0000000+00:00</time></trkpt><trkpt lat="38.98740169" lon="-0.52376962"><ele>128.6</ele><time>2022-11-13T12:37:36.0000000+00:00</time></trkpt><trkpt lat="38.98735886" lon="-0.52381254"><ele>128.6</ele><time>2022-11-13T12:37:37.0000000+00:00</time></trkpt><trkpt lat="38.98733069" lon="-0.52383618"><ele>128.6</ele><time>2022-11-13T12:37:38.0000000+00:00</time></trkpt><trkpt lat="38.98730915" lon="-0.52385671"><ele>128.8</ele><time>2022-11-13T12:37:39.0000000+00:00</time></trkpt><trkpt lat="38.98730395" lon="-0.52386191"><ele>128.8</ele><time>2022-11-13T12:37:40.0000000+00:00</time></trkpt><trkpt lat="38.98727353" lon="-0.52388588"><ele>128.8</ele><time>2022-11-13T12:37:41.0000000+00:00</time></trkpt><trkpt lat="38.98725132" lon="-0.52389745"><ele>128.8</ele><time>2022-11-13T12:37:42.0000000+00:00</time></trkpt><trkpt lat="38.98723221" lon="-0.52390834"><ele>129.0</ele><time>2022-11-13T12:37:43.0000000+00:00</time></trkpt><trkpt lat="38.98722894" lon="-0.52390382"><ele>129.0</ele><time>2022-11-13T12:37:44.0000000+00:00</time></trkpt><trkpt lat="38.98722701" lon="-0.5238946"><ele>129.2</ele><time>2022-11-13T12:37:45.0000000+00:00</time></trkpt><trkpt lat="38.98722575" lon="-0.52388085"><ele>129.2</ele><time>2022-11-13T12:37:46.0000000+00:00</time></trkpt><trkpt lat="38.98722039" lon="-0.52387356"><ele>129.4</ele><time>2022-11-13T12:37:47.0000000+00:00</time></trkpt><trkpt lat="38.98721351" lon="-0.52387163"><ele>129.4</ele><time>2022-11-13T12:37:48.0000000+00:00</time></trkpt><trkpt lat="38.98721368" lon="-0.52387096"><ele>129.4</ele><time>2022-11-13T12:37:49.0000000+00:00</time></trkpt><trkpt lat="38.98721159" lon="-0.52386987"><ele>129.6</ele><time>2022-11-13T12:37:50.0000000+00:00</time></trkpt><trkpt lat="38.98720706" lon="-0.52386073"><ele>129.6</ele><time>2022-11-13T12:37:51.0000000+00:00</time></trkpt><trkpt lat="38.98720035" lon="-0.52385738"><ele>129.6</ele><time>2022-11-13T12:37:52.0000000+00:00</time></trkpt><trkpt lat="38.98718778" lon="-0.52384481"><ele>129.6</ele><time>2022-11-13T12:37:53.0000000+00:00</time></trkpt><trkpt lat="38.98718225" lon="-0.52382888"><ele>129.6</ele><time>2022-11-13T12:37:54.0000000+00:00</time></trkpt><trkpt lat="38.98718066" lon="-0.52379971"><ele>129.6</ele><time>2022-11-13T12:37:55.0000000+00:00</time></trkpt><trkpt lat="38.98718552" lon="-0.52376711"><ele>129.8</ele><time>2022-11-13T12:37:56.0000000+00:00</time></trkpt><trkpt lat="38.98717739" lon="-0.5237397"><ele>129.8</ele><time>2022-11-13T12:37:57.0000000+00:00</time></trkpt><trkpt lat="38.98715794" lon="-0.52372646"><ele>130.0</ele><time>2022-11-13T12:37:58.0000000+00:00</time></trkpt><trkpt lat="38.98714696" lon="-0.5237076"><ele>130.2</ele><time>2022-11-13T12:37:59.0000000+00:00</time></trkpt><trkpt lat="38.98713506" lon="-0.52369595"><ele>130.2</ele><time>2022-11-13T12:38:00.0000000+00:00</time></trkpt><trkpt lat="38.98712425" lon="-0.52368673"><ele>130.4</ele><time>2022-11-13T12:38:01.0000000+00:00</time></trkpt><trkpt lat="38.98711637" lon="-0.52367658"><ele>130.4</ele><time>2022-11-13T12:38:02.0000000+00:00</time></trkpt><trkpt lat="38.98710413" lon="-0.52367021"><ele>130.4</ele><time>2022-11-13T12:38:03.0000000+00:00</time></trkpt><trkpt lat="38.9870908" lon="-0.52366963"><ele>130.6</ele><time>2022-11-13T12:38:04.0000000+00:00</time></trkpt><trkpt lat="38.98708862" lon="-0.52366904"><ele>130.6</ele><time>2022-11-13T12:38:05.0000000+00:00</time></trkpt><trkpt lat="38.9870815" lon="-0.52366602"><ele>130.6</ele><time>2022-11-13T12:38:06.0000000+00:00</time></trkpt><trkpt lat="38.98708032" lon="-0.52366619"><ele>130.8</ele><time>2022-11-13T12:38:07.0000000+00:00</time></trkpt><trkpt lat="38.98708032" lon="-0.52366577"><ele>130.8</ele><time>2022-11-13T12:38:08.0000000+00:00</time></trkpt><trkpt lat="38.98708016" lon="-0.52366552"><ele>130.8</ele><time>2022-11-13T12:38:09.0000000+00:00</time></trkpt><trkpt lat="38.98707949" lon="-0.52366552"><ele>130.8</ele><time>2022-11-13T12:38:10.0000000+00:00</time></trkpt><trkpt lat="38.98707865" lon="-0.52366577"><ele>130.8</ele><time>2022-11-13T12:38:11.0000000+00:00</time></trkpt><trkpt lat="38.98707815" lon="-0.52366518"><ele>130.8</ele><time>2022-11-13T12:38:12.0000000+00:00</time></trkpt><trkpt lat="38.98706582" lon="-0.52365529"><ele>130.8</ele><time>2022-11-13T12:38:13.0000000+00:00</time></trkpt><trkpt lat="38.98706239" lon="-0.52364951"><ele>130.8</ele><time>2022-11-13T12:38:14.0000000+00:00</time></trkpt><trkpt lat="38.98706364" lon="-0.52363996"><ele>130.8</ele><time>2022-11-13T12:38:15.0000000+00:00</time></trkpt><trkpt lat="38.98706918" lon="-0.52362093"><ele>130.8</ele><time>2022-11-13T12:38:16.0000000+00:00</time></trkpt><trkpt lat="38.98707781" lon="-0.52360022"><ele>131.0</ele><time>2022-11-13T12:38:17.0000000+00:00</time></trkpt><trkpt lat="38.98708963" lon="-0.52358204"><ele>131.2</ele><time>2022-11-13T12:38:18.0000000+00:00</time></trkpt><trkpt lat="38.98711109" lon="-0.52353979"><ele>131.4</ele><time>2022-11-13T12:38:19.0000000+00:00</time></trkpt><trkpt lat="38.98712349" lon="-0.52351356"><ele>131.4</ele><time>2022-11-13T12:38:20.0000000+00:00</time></trkpt><trkpt lat="38.98714042" lon="-0.52348967"><ele>131.6</ele><time>2022-11-13T12:38:21.0000000+00:00</time></trkpt><trkpt lat="38.98715652" lon="-0.52346511"><ele>131.8</ele><time>2022-11-13T12:38:22.0000000+00:00</time></trkpt><trkpt lat="38.9871623" lon="-0.52345597"><ele>131.8</ele><time>2022-11-13T12:38:23.0000000+00:00</time></trkpt><trkpt lat="38.98715911" lon="-0.52344826"><ele>131.8</ele><time>2022-11-13T12:38:24.0000000+00:00</time></trkpt><trkpt lat="38.98715392" lon="-0.52344357"><ele>132.0</ele><time>2022-11-13T12:38:25.0000000+00:00</time></trkpt><trkpt lat="38.9871602" lon="-0.52343041"><ele>132.2</ele><time>2022-11-13T12:38:26.0000000+00:00</time></trkpt><trkpt lat="38.98716129" lon="-0.52342353"><ele>132.4</ele><time>2022-11-13T12:38:27.0000000+00:00</time></trkpt><trkpt lat="38.98716037" lon="-0.52341976"><ele>132.4</ele><time>2022-11-13T12:38:28.0000000+00:00</time></trkpt><trkpt lat="38.98715937" lon="-0.52341616"><ele>132.4</ele><time>2022-11-13T12:38:29.0000000+00:00</time></trkpt><trkpt lat="38.98714864" lon="-0.52341624"><ele>132.6</ele><time>2022-11-13T12:38:30.0000000+00:00</time></trkpt><trkpt lat="38.98714897" lon="-0.52341272"><ele>132.6</ele><time>2022-11-13T12:38:31.0000000+00:00</time></trkpt><trkpt lat="38.9871473" lon="-0.5234118"><ele>132.6</ele><time>2022-11-13T12:38:32.0000000+00:00</time></trkpt><trkpt lat="38.98714663" lon="-0.52340576"><ele>132.6</ele><time>2022-11-13T12:38:33.0000000+00:00</time></trkpt><trkpt lat="38.98714621" lon="-0.52340752"><ele>132.6</ele><time>2022-11-13T12:38:34.0000000+00:00</time></trkpt><trkpt lat="38.98713355" lon="-0.52340551"><ele>132.6</ele><time>2022-11-13T12:38:35.0000000+00:00</time></trkpt><trkpt lat="38.98712978" lon="-0.52340459"><ele>132.6</ele><time>2022-11-13T12:38:36.0000000+00:00</time></trkpt><trkpt lat="38.9871271" lon="-0.52340426"><ele>132.6</ele><time>2022-11-13T12:38:37.0000000+00:00</time></trkpt><trkpt lat="38.98712936" lon="-0.5233999"><ele>132.6</ele><time>2022-11-13T12:38:38.0000000+00:00</time></trkpt><trkpt lat="38.98712894" lon="-0.52338674"><ele>132.6</ele><time>2022-11-13T12:38:39.0000000+00:00</time></trkpt><trkpt lat="38.98711804" lon="-0.5233833"><ele>132.6</ele><time>2022-11-13T12:38:40.0000000+00:00</time></trkpt><trkpt lat="38.9871224" lon="-0.52337006"><ele>132.6</ele><time>2022-11-13T12:38:41.0000000+00:00</time></trkpt><trkpt lat="38.98712374" lon="-0.52336494"><ele>132.6</ele><time>2022-11-13T12:38:42.0000000+00:00</time></trkpt><trkpt lat="38.98712391" lon="-0.52336302"><ele>132.6</ele><time>2022-11-13T12:38:43.0000000+00:00</time></trkpt><trkpt lat="38.98712785" lon="-0.52335958"><ele>132.6</ele><time>2022-11-13T12:38:44.0000000+00:00</time></trkpt><trkpt lat="38.98712902" lon="-0.52335799"><ele>132.6</ele><time>2022-11-13T12:38:45.0000000+00:00</time></trkpt><trkpt lat="38.98713011" lon="-0.52335681"><ele>132.4</ele><time>2022-11-13T12:38:46.0000000+00:00</time></trkpt><trkpt lat="38.98712978" lon="-0.52335631"><ele>132.4</ele><time>2022-11-13T12:38:47.0000000+00:00</time></trkpt><trkpt lat="38.98712902" lon="-0.52335539"><ele>132.4</ele><time>2022-11-13T12:38:48.0000000+00:00</time></trkpt><trkpt lat="38.98712752" lon="-0.52335564"><ele>132.4</ele><time>2022-11-13T12:38:49.0000000+00:00</time></trkpt><trkpt lat="38.98712701" lon="-0.52335681"><ele>132.4</ele><time>2022-11-13T12:38:50.0000000+00:00</time></trkpt><trkpt lat="38.98712643" lon="-0.52335648"><ele>132.4</ele><time>2022-11-13T12:38:51.0000000+00:00</time></trkpt><trkpt lat="38.98712517" lon="-0.52335505"><ele>132.4</ele><time>2022-11-13T12:38:52.0000000+00:00</time></trkpt><trkpt lat="38.98712316" lon="-0.52334734"><ele>132.4</ele><time>2022-11-13T12:38:53.0000000+00:00</time></trkpt><trkpt lat="38.98712257" lon="-0.52334164"><ele>132.4</ele><time>2022-11-13T12:38:54.0000000+00:00</time></trkpt><trkpt lat="38.98712567" lon="-0.52333284"><ele>132.4</ele><time>2022-11-13T12:38:55.0000000+00:00</time></trkpt><trkpt lat="38.98712676" lon="-0.52332589"><ele>132.6</ele><time>2022-11-13T12:38:56.0000000+00:00</time></trkpt><trkpt lat="38.98712919" lon="-0.52331407"><ele>132.6</ele><time>2022-11-13T12:38:57.0000000+00:00</time></trkpt><trkpt lat="38.98712232" lon="-0.52331373"><ele>132.8</ele><time>2022-11-13T12:38:58.0000000+00:00</time></trkpt><trkpt lat="38.9871157" lon="-0.52330359"><ele>132.8</ele><time>2022-11-13T12:38:59.0000000+00:00</time></trkpt><trkpt lat="38.98710547" lon="-0.52329789"><ele>133.0</ele><time>2022-11-13T12:39:00.0000000+00:00</time></trkpt><trkpt lat="38.98708946" lon="-0.52330384"><ele>133.0</ele><time>2022-11-13T12:39:01.0000000+00:00</time></trkpt><trkpt lat="38.98708116" lon="-0.52329655"><ele>133.2</ele><time>2022-11-13T12:39:02.0000000+00:00</time></trkpt><trkpt lat="38.98707622" lon="-0.52327484"><ele>133.2</ele><time>2022-11-13T12:39:03.0000000+00:00</time></trkpt><trkpt lat="38.98708016" lon="-0.52325129"><ele>133.2</ele><time>2022-11-13T12:39:04.0000000+00:00</time></trkpt><trkpt lat="38.98708619" lon="-0.52322874"><ele>133.2</ele><time>2022-11-13T12:39:05.0000000+00:00</time></trkpt><trkpt lat="38.98709768" lon="-0.52320728"><ele>133.2</ele><time>2022-11-13T12:39:06.0000000+00:00</time></trkpt><trkpt lat="38.98709877" lon="-0.52319638"><ele>133.4</ele><time>2022-11-13T12:39:07.0000000+00:00</time></trkpt><trkpt lat="38.98709315" lon="-0.52318918"><ele>133.4</ele><time>2022-11-13T12:39:08.0000000+00:00</time></trkpt><trkpt lat="38.9870872" lon="-0.52318046"><ele>133.4</ele><time>2022-11-13T12:39:09.0000000+00:00</time></trkpt><trkpt lat="38.98708175" lon="-0.52316998"><ele>133.6</ele><time>2022-11-13T12:39:10.0000000+00:00</time></trkpt><trkpt lat="38.98707856" lon="-0.5231637"><ele>133.6</ele><time>2022-11-13T12:39:11.0000000+00:00</time></trkpt><trkpt lat="38.98707764" lon="-0.5231637"><ele>133.8</ele><time>2022-11-13T12:39:12.0000000+00:00</time></trkpt><trkpt lat="38.98707555" lon="-0.52316546"><ele>133.8</ele><time>2022-11-13T12:39:13.0000000+00:00</time></trkpt><trkpt lat="38.98707278" lon="-0.52316529"><ele>133.8</ele><time>2022-11-13T12:39:14.0000000+00:00</time></trkpt><trkpt lat="38.98707077" lon="-0.52316646"><ele>134.0</ele><time>2022-11-13T12:39:15.0000000+00:00</time></trkpt><trkpt lat="38.98706968" lon="-0.5231699"><ele>134.0</ele><time>2022-11-13T12:39:16.0000000+00:00</time></trkpt><trkpt lat="38.9870706" lon="-0.52317099"><ele>134.0</ele><time>2022-11-13T12:39:17.0000000+00:00</time></trkpt><trkpt lat="38.98706113" lon="-0.52318289"><ele>134.2</ele><time>2022-11-13T12:39:18.0000000+00:00</time></trkpt><trkpt lat="38.98704713" lon="-0.52318968"><ele>134.2</ele><time>2022-11-13T12:39:19.0000000+00:00</time></trkpt><trkpt lat="38.98702911" lon="-0.52318448"><ele>134.4</ele><time>2022-11-13T12:39:20.0000000+00:00</time></trkpt><trkpt lat="38.98701034" lon="-0.52318767"><ele>134.4</ele><time>2022-11-13T12:39:21.0000000+00:00</time></trkpt><trkpt lat="38.98699483" lon="-0.5231989"><ele>134.6</ele><time>2022-11-13T12:39:22.0000000+00:00</time></trkpt><trkpt lat="38.98697102" lon="-0.52320619"><ele>134.6</ele><time>2022-11-13T12:39:23.0000000+00:00</time></trkpt><trkpt lat="38.98695233" lon="-0.52322203"><ele>134.8</ele><time>2022-11-13T12:39:24.0000000+00:00</time></trkpt><trkpt lat="38.98693515" lon="-0.52323838"><ele>134.8</ele><time>2022-11-13T12:39:25.0000000+00:00</time></trkpt><trkpt lat="38.98690414" lon="-0.52326378"><ele>135.0</ele><time>2022-11-13T12:39:26.0000000+00:00</time></trkpt><trkpt lat="38.98689249" lon="-0.52326486"><ele>135.0</ele><time>2022-11-13T12:39:27.0000000+00:00</time></trkpt><trkpt lat="38.98689458" lon="-0.52324718"><ele>135.2</ele><time>2022-11-13T12:39:28.0000000+00:00</time></trkpt><trkpt lat="38.98689358" lon="-0.52323435"><ele>135.4</ele><time>2022-11-13T12:39:29.0000000+00:00</time></trkpt><trkpt lat="38.98689257" lon="-0.52322178"><ele>135.4</ele><time>2022-11-13T12:39:30.0000000+00:00</time></trkpt><trkpt lat="38.98688025" lon="-0.52321709"><ele>135.6</ele><time>2022-11-13T12:39:31.0000000+00:00</time></trkpt><trkpt lat="38.98686449" lon="-0.52322405"><ele>135.6</ele><time>2022-11-13T12:39:32.0000000+00:00</time></trkpt><trkpt lat="38.98684572" lon="-0.52322597"><ele>135.8</ele><time>2022-11-13T12:39:33.0000000+00:00</time></trkpt><trkpt lat="38.98683297" lon="-0.52322907"><ele>136.0</ele><time>2022-11-13T12:39:34.0000000+00:00</time></trkpt><trkpt lat="38.98681856" lon="-0.52323662"><ele>136.0</ele><time>2022-11-13T12:39:35.0000000+00:00</time></trkpt><trkpt lat="38.98681009" lon="-0.52322052"><ele>136.2</ele><time>2022-11-13T12:39:36.0000000+00:00</time></trkpt><trkpt lat="38.98679953" lon="-0.52321541"><ele>136.4</ele><time>2022-11-13T12:39:37.0000000+00:00</time></trkpt><trkpt lat="38.9867821" lon="-0.5232191"><ele>136.4</ele><time>2022-11-13T12:39:38.0000000+00:00</time></trkpt><trkpt lat="38.98677036" lon="-0.52319823"><ele>136.6</ele><time>2022-11-13T12:39:39.0000000+00:00</time></trkpt><trkpt lat="38.98676843" lon="-0.52316621"><ele>136.8</ele><time>2022-11-13T12:39:40.0000000+00:00</time></trkpt><trkpt lat="38.98676802" lon="-0.52313126"><ele>136.8</ele><time>2022-11-13T12:39:41.0000000+00:00</time></trkpt><trkpt lat="38.98676014" lon="-0.52309823"><ele>137.0</ele><time>2022-11-13T12:39:42.0000000+00:00</time></trkpt><trkpt lat="38.98675083" lon="-0.52307418"><ele>137.0</ele><time>2022-11-13T12:39:43.0000000+00:00</time></trkpt><trkpt lat="38.98674597" lon="-0.52305104"><ele>137.2</ele><time>2022-11-13T12:39:44.0000000+00:00</time></trkpt><trkpt lat="38.98674304" lon="-0.52303017"><ele>137.4</ele><time>2022-11-13T12:39:45.0000000+00:00</time></trkpt><trkpt lat="38.9867417" lon="-0.52301089"><ele>137.6</ele><time>2022-11-13T12:39:46.0000000+00:00</time></trkpt><trkpt lat="38.98673742" lon="-0.52299522"><ele>137.6</ele><time>2022-11-13T12:39:47.0000000+00:00</time></trkpt><trkpt lat="38.98672937" lon="-0.52298239"><ele>137.8</ele><time>2022-11-13T12:39:48.0000000+00:00</time></trkpt><trkpt lat="38.98671948" lon="-0.52296831"><ele>137.8</ele><time>2022-11-13T12:39:49.0000000+00:00</time></trkpt><trkpt lat="38.98670951" lon="-0.52295323"><ele>137.8</ele><time>2022-11-13T12:39:50.0000000+00:00</time></trkpt><trkpt lat="38.98670088" lon="-0.52293956"><ele>137.8</ele><time>2022-11-13T12:39:51.0000000+00:00</time></trkpt><trkpt lat="38.98669048" lon="-0.52292439"><ele>137.8</ele><time>2022-11-13T12:39:52.0000000+00:00</time></trkpt><trkpt lat="38.98667975" lon="-0.52291098"><ele>138.0</ele><time>2022-11-13T12:39:53.0000000+00:00</time></trkpt><trkpt lat="38.98666961" lon="-0.52289539"><ele>138.0</ele><time>2022-11-13T12:39:54.0000000+00:00</time></trkpt><trkpt lat="38.98665545" lon="-0.52287527"><ele>138.0</ele><time>2022-11-13T12:39:55.0000000+00:00</time></trkpt><trkpt lat="38.98663692" lon="-0.52285348"><ele>138.0</ele><time>2022-11-13T12:39:56.0000000+00:00</time></trkpt><trkpt lat="38.98662427" lon="-0.52282993"><ele>138.2</ele><time>2022-11-13T12:39:57.0000000+00:00</time></trkpt><trkpt lat="38.98662049" lon="-0.52280922"><ele>138.2</ele><time>2022-11-13T12:39:58.0000000+00:00</time></trkpt><trkpt lat="38.9866132" lon="-0.52279028"><ele>138.2</ele><time>2022-11-13T12:39:59.0000000+00:00</time></trkpt><trkpt lat="38.98660884" lon="-0.52277913"><ele>138.4</ele><time>2022-11-13T12:40:00.0000000+00:00</time></trkpt><trkpt lat="38.98660465" lon="-0.52277209"><ele>138.4</ele><time>2022-11-13T12:40:01.0000000+00:00</time></trkpt><trkpt lat="38.98659887" lon="-0.52276505"><ele>138.6</ele><time>2022-11-13T12:40:02.0000000+00:00</time></trkpt><trkpt lat="38.98659728" lon="-0.52276329"><ele>138.6</ele><time>2022-11-13T12:40:03.0000000+00:00</time></trkpt><trkpt lat="38.98659661" lon="-0.52276237"><ele>138.8</ele><time>2022-11-13T12:40:04.0000000+00:00</time></trkpt><trkpt lat="38.98659635" lon="-0.52276145"><ele>138.8</ele><time>2022-11-13T12:40:05.0000000+00:00</time></trkpt><trkpt lat="38.98659568" lon="-0.52276027"><ele>138.8</ele><time>2022-11-13T12:40:06.0000000+00:00</time></trkpt><trkpt lat="38.98659535" lon="-0.52275944"><ele>138.8</ele><time>2022-11-13T12:40:07.0000000+00:00</time></trkpt><trkpt lat="38.98659476" lon="-0.52275877"><ele>138.8</ele><time>2022-11-13T12:40:08.0000000+00:00</time></trkpt><trkpt lat="38.98659426" lon="-0.52275776"><ele>138.8</ele><time>2022-11-13T12:40:09.0000000+00:00</time></trkpt><trkpt lat="38.98659434" lon="-0.52275751"><ele>138.8</ele><time>2022-11-13T12:40:10.0000000+00:00</time></trkpt><trkpt lat="38.98659426" lon="-0.52275701"><ele>138.8</ele><time>2022-11-13T12:40:11.0000000+00:00</time></trkpt><trkpt lat="38.9865951" lon="-0.52275533"><ele>138.8</ele><time>2022-11-13T12:40:12.0000000+00:00</time></trkpt><trkpt lat="38.98658965" lon="-0.52274846"><ele>138.8</ele><time>2022-11-13T12:40:13.0000000+00:00</time></trkpt><trkpt lat="38.98658722" lon="-0.52274116"><ele>138.8</ele><time>2022-11-13T12:40:14.0000000+00:00</time></trkpt><trkpt lat="38.98658529" lon="-0.52273681"><ele>138.8</ele><time>2022-11-13T12:40:15.0000000+00:00</time></trkpt><trkpt lat="38.98656836" lon="-0.52273454"><ele>139.0</ele><time>2022-11-13T12:40:16.0000000+00:00</time></trkpt><trkpt lat="38.98655939" lon="-0.52272457"><ele>139.0</ele><time>2022-11-13T12:40:17.0000000+00:00</time></trkpt><trkpt lat="38.98655352" lon="-0.5227125"><ele>139.0</ele><time>2022-11-13T12:40:18.0000000+00:00</time></trkpt><trkpt lat="38.98654791" lon="-0.52269984"><ele>139.2</ele><time>2022-11-13T12:40:19.0000000+00:00</time></trkpt><trkpt lat="38.9865407" lon="-0.52268878"><ele>139.4</ele><time>2022-11-13T12:40:20.0000000+00:00</time></trkpt><trkpt lat="38.98653131" lon="-0.52268107"><ele>139.4</ele><time>2022-11-13T12:40:21.0000000+00:00</time></trkpt><trkpt lat="38.98651815" lon="-0.5226721"><ele>139.6</ele><time>2022-11-13T12:40:22.0000000+00:00</time></trkpt><trkpt lat="38.98650063" lon="-0.52266631"><ele>139.6</ele><time>2022-11-13T12:40:23.0000000+00:00</time></trkpt><trkpt lat="38.98648697" lon="-0.52266179"><ele>139.6</ele><time>2022-11-13T12:40:24.0000000+00:00</time></trkpt><trkpt lat="38.98647398" lon="-0.52265684"><ele>139.8</ele><time>2022-11-13T12:40:25.0000000+00:00</time></trkpt><trkpt lat="38.98645965" lon="-0.52264284"><ele>140.0</ele><time>2022-11-13T12:40:26.0000000+00:00</time></trkpt><trkpt lat="38.98644431" lon="-0.52263279"><ele>140.2</ele><time>2022-11-13T12:40:27.0000000+00:00</time></trkpt><trkpt lat="38.98642486" lon="-0.52262533"><ele>140.2</ele><time>2022-11-13T12:40:28.0000000+00:00</time></trkpt><trkpt lat="38.98640793" lon="-0.52261988"><ele>140.4</ele><time>2022-11-13T12:40:29.0000000+00:00</time></trkpt><trkpt lat="38.98639184" lon="-0.52261703"><ele>140.6</ele><time>2022-11-13T12:40:30.0000000+00:00</time></trkpt><trkpt lat="38.98637759" lon="-0.52261208"><ele>140.8</ele><time>2022-11-13T12:40:31.0000000+00:00</time></trkpt><trkpt lat="38.98636216" lon="-0.52260764"><ele>140.8</ele><time>2022-11-13T12:40:32.0000000+00:00</time></trkpt><trkpt lat="38.98634087" lon="-0.52260345"><ele>141.0</ele><time>2022-11-13T12:40:33.0000000+00:00</time></trkpt><trkpt lat="38.98632646" lon="-0.52259381"><ele>141.0</ele><time>2022-11-13T12:40:34.0000000+00:00</time></trkpt><trkpt lat="38.98631799" lon="-0.5225835"><ele>141.4</ele><time>2022-11-13T12:40:35.0000000+00:00</time></trkpt><trkpt lat="38.98630969" lon="-0.52256959"><ele>141.4</ele><time>2022-11-13T12:40:36.0000000+00:00</time></trkpt><trkpt lat="38.98630248" lon="-0.52255391"><ele>141.6</ele><time>2022-11-13T12:40:37.0000000+00:00</time></trkpt><trkpt lat="38.98628932" lon="-0.52253799"><ele>141.8</ele><time>2022-11-13T12:40:38.0000000+00:00</time></trkpt><trkpt lat="38.98627256" lon="-0.52252525"><ele>141.8</ele><time>2022-11-13T12:40:39.0000000+00:00</time></trkpt><trkpt lat="38.98625789" lon="-0.52251795"><ele>142.0</ele><time>2022-11-13T12:40:40.0000000+00:00</time></trkpt><trkpt lat="38.98624582" lon="-0.52250194"><ele>142.0</ele><time>2022-11-13T12:40:41.0000000+00:00</time></trkpt><trkpt lat="38.98623426" lon="-0.52248619"><ele>142.2</ele><time>2022-11-13T12:40:42.0000000+00:00</time></trkpt><trkpt lat="38.98622302" lon="-0.52247697"><ele>142.2</ele><time>2022-11-13T12:40:43.0000000+00:00</time></trkpt><trkpt lat="38.98621179" lon="-0.52247278"><ele>142.4</ele><time>2022-11-13T12:40:44.0000000+00:00</time></trkpt><trkpt lat="38.98620157" lon="-0.52247638"><ele>142.4</ele><time>2022-11-13T12:40:45.0000000+00:00</time></trkpt><trkpt lat="38.98619235" lon="-0.5224892"><ele>142.6</ele><time>2022-11-13T12:40:46.0000000+00:00</time></trkpt><trkpt lat="38.98618681" lon="-0.52248996"><ele>142.6</ele><time>2022-11-13T12:40:47.0000000+00:00</time></trkpt><trkpt lat="38.98617256" lon="-0.52249281"><ele>143.0</ele><time>2022-11-13T12:40:48.0000000+00:00</time></trkpt><trkpt lat="38.98616703" lon="-0.52249314"><ele>143.2</ele><time>2022-11-13T12:40:49.0000000+00:00</time></trkpt><trkpt lat="38.98616133" lon="-0.52248778"><ele>143.2</ele><time>2022-11-13T12:40:50.0000000+00:00</time></trkpt><trkpt lat="38.98615371" lon="-0.52248342"><ele>143.4</ele><time>2022-11-13T12:40:51.0000000+00:00</time></trkpt><trkpt lat="38.98614943" lon="-0.5224804"><ele>143.4</ele><time>2022-11-13T12:40:52.0000000+00:00</time></trkpt><trkpt lat="38.98613887" lon="-0.52247554"><ele>143.4</ele><time>2022-11-13T12:40:53.0000000+00:00</time></trkpt><trkpt lat="38.98612605" lon="-0.52246984"><ele>143.4</ele><time>2022-11-13T12:40:54.0000000+00:00</time></trkpt><trkpt lat="38.98611791" lon="-0.52246909"><ele>143.6</ele><time>2022-11-13T12:40:55.0000000+00:00</time></trkpt><trkpt lat="38.98610677" lon="-0.52247764"><ele>143.6</ele><time>2022-11-13T12:40:56.0000000+00:00</time></trkpt><trkpt lat="38.98609612" lon="-0.52248225"><ele>143.8</ele><time>2022-11-13T12:40:57.0000000+00:00</time></trkpt><trkpt lat="38.98608598" lon="-0.52249541"><ele>143.8</ele><time>2022-11-13T12:40:58.0000000+00:00</time></trkpt><trkpt lat="38.98607684" lon="-0.52250396"><ele>144.0</ele><time>2022-11-13T12:40:59.0000000+00:00</time></trkpt><trkpt lat="38.98606846" lon="-0.52251033"><ele>144.0</ele><time>2022-11-13T12:41:00.0000000+00:00</time></trkpt><trkpt lat="38.98606419" lon="-0.52251619"><ele>144.0</ele><time>2022-11-13T12:41:01.0000000+00:00</time></trkpt><trkpt lat="38.98605824" lon="-0.52252617"><ele>144.2</ele><time>2022-11-13T12:41:02.0000000+00:00</time></trkpt><trkpt lat="38.98604742" lon="-0.52253463"><ele>144.2</ele><time>2022-11-13T12:41:03.0000000+00:00</time></trkpt><trkpt lat="38.98603787" lon="-0.52254972"><ele>144.4</ele><time>2022-11-13T12:41:04.0000000+00:00</time></trkpt><trkpt lat="38.98603393" lon="-0.52257001"><ele>144.4</ele><time>2022-11-13T12:41:05.0000000+00:00</time></trkpt><trkpt lat="38.98603309" lon="-0.52258308"><ele>144.6</ele><time>2022-11-13T12:41:06.0000000+00:00</time></trkpt><trkpt lat="38.98602655" lon="-0.52259725"><ele>144.6</ele><time>2022-11-13T12:41:07.0000000+00:00</time></trkpt><trkpt lat="38.98601205" lon="-0.52260672"><ele>144.6</ele><time>2022-11-13T12:41:08.0000000+00:00</time></trkpt><trkpt lat="38.98599914" lon="-0.52261091"><ele>144.8</ele><time>2022-11-13T12:41:09.0000000+00:00</time></trkpt><trkpt lat="38.98598883" lon="-0.52261544"><ele>144.8</ele><time>2022-11-13T12:41:10.0000000+00:00</time></trkpt><trkpt lat="38.98597609" lon="-0.5226208"><ele>144.8</ele><time>2022-11-13T12:41:11.0000000+00:00</time></trkpt><trkpt lat="38.98596386" lon="-0.52262315"><ele>144.8</ele><time>2022-11-13T12:41:12.0000000+00:00</time></trkpt><trkpt lat="38.98595665" lon="-0.52261929"><ele>145.0</ele><time>2022-11-13T12:41:13.0000000+00:00</time></trkpt><trkpt lat="38.98594843" lon="-0.52263446"><ele>145.0</ele><time>2022-11-13T12:41:14.0000000+00:00</time></trkpt><trkpt lat="38.98593963" lon="-0.52265215"><ele>145.0</ele><time>2022-11-13T12:41:15.0000000+00:00</time></trkpt><trkpt lat="38.98593016" lon="-0.52267117"><ele>145.2</ele><time>2022-11-13T12:41:16.0000000+00:00</time></trkpt><trkpt lat="38.98592672" lon="-0.52268827"><ele>145.2</ele><time>2022-11-13T12:41:17.0000000+00:00</time></trkpt><trkpt lat="38.98594248" lon="-0.52270001"><ele>145.2</ele><time>2022-11-13T12:41:18.0000000+00:00</time></trkpt><trkpt lat="38.98594785" lon="-0.5227094"><ele>145.2</ele><time>2022-11-13T12:41:19.0000000+00:00</time></trkpt><trkpt lat="38.98594148" lon="-0.52272071"><ele>145.2</ele><time>2022-11-13T12:41:20.0000000+00:00</time></trkpt><trkpt lat="38.98593963" lon="-0.52272029"><ele>145.4</ele><time>2022-11-13T12:41:21.0000000+00:00</time></trkpt><trkpt lat="38.98593779" lon="-0.5227192"><ele>145.4</ele><time>2022-11-13T12:41:22.0000000+00:00</time></trkpt><trkpt lat="38.98592446" lon="-0.52272373"><ele>145.4</ele><time>2022-11-13T12:41:23.0000000+00:00</time></trkpt><trkpt lat="38.98591868" lon="-0.52272499"><ele>145.4</ele><time>2022-11-13T12:41:24.0000000+00:00</time></trkpt><trkpt lat="38.98590652" lon="-0.52272189"><ele>145.4</ele><time>2022-11-13T12:41:25.0000000+00:00</time></trkpt><trkpt lat="38.98589521" lon="-0.52272515"><ele>145.6</ele><time>2022-11-13T12:41:26.0000000+00:00</time></trkpt><trkpt lat="38.98588741" lon="-0.52271853"><ele>145.6</ele><time>2022-11-13T12:41:27.0000000+00:00</time></trkpt><trkpt lat="38.98587694" lon="-0.52270764"><ele>145.6</ele><time>2022-11-13T12:41:28.0000000+00:00</time></trkpt><trkpt lat="38.98586746" lon="-0.52270127"><ele>145.6</ele><time>2022-11-13T12:41:29.0000000+00:00</time></trkpt><trkpt lat="38.98585883" lon="-0.52270755"><ele>145.6</ele><time>2022-11-13T12:41:30.0000000+00:00</time></trkpt><trkpt lat="38.98584324" lon="-0.52271082"><ele>145.6</ele><time>2022-11-13T12:41:31.0000000+00:00</time></trkpt><trkpt lat="38.98583184" lon="-0.52271627"><ele>145.6</ele><time>2022-11-13T12:41:32.0000000+00:00</time></trkpt><trkpt lat="38.98581876" lon="-0.52272155"><ele>145.8</ele><time>2022-11-13T12:41:33.0000000+00:00</time></trkpt><trkpt lat="38.98580108" lon="-0.52272264"><ele>145.8</ele><time>2022-11-13T12:41:34.0000000+00:00</time></trkpt><trkpt lat="38.98578775" lon="-0.52271158"><ele>145.8</ele><time>2022-11-13T12:41:35.0000000+00:00</time></trkpt><trkpt lat="38.98576755" lon="-0.52271317"><ele>145.6</ele><time>2022-11-13T12:41:36.0000000+00:00</time></trkpt><trkpt lat="38.98574928" lon="-0.52272365"><ele>145.6</ele><time>2022-11-13T12:41:37.0000000+00:00</time></trkpt><trkpt lat="38.98573771" lon="-0.52271409"><ele>145.6</ele><time>2022-11-13T12:41:38.0000000+00:00</time></trkpt><trkpt lat="38.9857279" lon="-0.52271384"><ele>145.6</ele><time>2022-11-13T12:41:39.0000000+00:00</time></trkpt><trkpt lat="38.98572187" lon="-0.52271686"><ele>145.6</ele><time>2022-11-13T12:41:40.0000000+00:00</time></trkpt><trkpt lat="38.98571684" lon="-0.52271627"><ele>145.8</ele><time>2022-11-13T12:41:41.0000000+00:00</time></trkpt><trkpt lat="38.98570234" lon="-0.52271811"><ele>145.8</ele><time>2022-11-13T12:41:42.0000000+00:00</time></trkpt><trkpt lat="38.98568926" lon="-0.52271099"><ele>146.0</ele><time>2022-11-13T12:41:43.0000000+00:00</time></trkpt><trkpt lat="38.98567719" lon="-0.52269707"><ele>146.0</ele><time>2022-11-13T12:41:44.0000000+00:00</time></trkpt><trkpt lat="38.98566538" lon="-0.52269314"><ele>146.0</ele><time>2022-11-13T12:41:45.0000000+00:00</time></trkpt><trkpt lat="38.98564945" lon="-0.52269682"><ele>146.0</ele><time>2022-11-13T12:41:46.0000000+00:00</time></trkpt><trkpt lat="38.98563612" lon="-0.52269666"><ele>146.2</ele><time>2022-11-13T12:41:47.0000000+00:00</time></trkpt><trkpt lat="38.98563084" lon="-0.52269079"><ele>146.2</ele><time>2022-11-13T12:41:48.0000000+00:00</time></trkpt><trkpt lat="38.98562648" lon="-0.52268023"><ele>146.2</ele><time>2022-11-13T12:41:49.0000000+00:00</time></trkpt><trkpt lat="38.98562053" lon="-0.52267252"><ele>146.4</ele><time>2022-11-13T12:41:50.0000000+00:00</time></trkpt><trkpt lat="38.9856155" lon="-0.5226638"><ele>146.4</ele><time>2022-11-13T12:41:51.0000000+00:00</time></trkpt><trkpt lat="38.98561366" lon="-0.52265508"><ele>146.4</ele><time>2022-11-13T12:41:52.0000000+00:00</time></trkpt><trkpt lat="38.98560687" lon="-0.52264636"><ele>146.6</ele><time>2022-11-13T12:41:53.0000000+00:00</time></trkpt><trkpt lat="38.98559773" lon="-0.52263815"><ele>146.6</ele><time>2022-11-13T12:41:54.0000000+00:00</time></trkpt><trkpt lat="38.98558583" lon="-0.52263253"><ele>146.8</ele><time>2022-11-13T12:41:55.0000000+00:00</time></trkpt><trkpt lat="38.98557787" lon="-0.52262608"><ele>147.0</ele><time>2022-11-13T12:41:56.0000000+00:00</time></trkpt><trkpt lat="38.98556965" lon="-0.52261837"><ele>147.0</ele><time>2022-11-13T12:41:57.0000000+00:00</time></trkpt><trkpt lat="38.98555867" lon="-0.52261015"><ele>147.0</ele><time>2022-11-13T12:41:58.0000000+00:00</time></trkpt><trkpt lat="38.98554535" lon="-0.52261527"><ele>147.2</ele><time>2022-11-13T12:41:59.0000000+00:00</time></trkpt><trkpt lat="38.98554325" lon="-0.52259708"><ele>147.4</ele><time>2022-11-13T12:42:00.0000000+00:00</time></trkpt><trkpt lat="38.98553873" lon="-0.52258635"><ele>147.4</ele><time>2022-11-13T12:42:01.0000000+00:00</time></trkpt><trkpt lat="38.98552573" lon="-0.52257956"><ele>147.6</ele><time>2022-11-13T12:42:02.0000000+00:00</time></trkpt><trkpt lat="38.98551199" lon="-0.5225747"><ele>147.6</ele><time>2022-11-13T12:42:03.0000000+00:00</time></trkpt><trkpt lat="38.98549816" lon="-0.52257855"><ele>147.8</ele><time>2022-11-13T12:42:04.0000000+00:00</time></trkpt><trkpt lat="38.98548852" lon="-0.5225814"><ele>148.0</ele><time>2022-11-13T12:42:05.0000000+00:00</time></trkpt><trkpt lat="38.98547703" lon="-0.52258115"><ele>148.0</ele><time>2022-11-13T12:42:06.0000000+00:00</time></trkpt><trkpt lat="38.98546547" lon="-0.52257998"><ele>148.2</ele><time>2022-11-13T12:42:07.0000000+00:00</time></trkpt><trkpt lat="38.98545784" lon="-0.52257487"><ele>148.2</ele><time>2022-11-13T12:42:08.0000000+00:00</time></trkpt><trkpt lat="38.98545147" lon="-0.52256749"><ele>148.4</ele><time>2022-11-13T12:42:09.0000000+00:00</time></trkpt><trkpt lat="38.98544753" lon="-0.52256288"><ele>148.6</ele><time>2022-11-13T12:42:10.0000000+00:00</time></trkpt><trkpt lat="38.98544929" lon="-0.52255148"><ele>148.8</ele><time>2022-11-13T12:42:11.0000000+00:00</time></trkpt><trkpt lat="38.98544619" lon="-0.52253924"><ele>149.0</ele><time>2022-11-13T12:42:12.0000000+00:00</time></trkpt><trkpt lat="38.98544435" lon="-0.52252432"><ele>149.0</ele><time>2022-11-13T12:42:13.0000000+00:00</time></trkpt><trkpt lat="38.98545046" lon="-0.52250831"><ele>149.2</ele><time>2022-11-13T12:42:14.0000000+00:00</time></trkpt><trkpt lat="38.985456" lon="-0.52249197"><ele>149.4</ele><time>2022-11-13T12:42:15.0000000+00:00</time></trkpt><trkpt lat="38.9854617" lon="-0.52247847"><ele>149.4</ele><time>2022-11-13T12:42:16.0000000+00:00</time></trkpt><trkpt lat="38.98546496" lon="-0.52247001"><ele>149.4</ele><time>2022-11-13T12:42:17.0000000+00:00</time></trkpt><trkpt lat="38.98546538" lon="-0.52246724"><ele>149.6</ele><time>2022-11-13T12:42:18.0000000+00:00</time></trkpt><trkpt lat="38.98546781" lon="-0.52246071"><ele>149.6</ele><time>2022-11-13T12:42:19.0000000+00:00</time></trkpt><trkpt lat="38.98546337" lon="-0.52244947"><ele>149.6</ele><time>2022-11-13T12:42:20.0000000+00:00</time></trkpt><trkpt lat="38.98545491" lon="-0.52243916"><ele>149.6</ele><time>2022-11-13T12:42:21.0000000+00:00</time></trkpt><trkpt lat="38.98544719" lon="-0.52242793"><ele>149.8</ele><time>2022-11-13T12:42:22.0000000+00:00</time></trkpt><trkpt lat="38.98544208" lon="-0.52241343"><ele>150.0</ele><time>2022-11-13T12:42:23.0000000+00:00</time></trkpt><trkpt lat="38.9854415" lon="-0.52239298"><ele>150.0</ele><time>2022-11-13T12:42:24.0000000+00:00</time></trkpt><trkpt lat="38.98544007" lon="-0.52237345"><ele>150.2</ele><time>2022-11-13T12:42:25.0000000+00:00</time></trkpt><trkpt lat="38.98543119" lon="-0.52235794"><ele>150.2</ele><time>2022-11-13T12:42:26.0000000+00:00</time></trkpt><trkpt lat="38.98542364" lon="-0.52234487"><ele>150.4</ele><time>2022-11-13T12:42:27.0000000+00:00</time></trkpt><trkpt lat="38.98542414" lon="-0.52232098"><ele>150.4</ele><time>2022-11-13T12:42:28.0000000+00:00</time></trkpt><trkpt lat="38.98541702" lon="-0.52230002"><ele>150.6</ele><time>2022-11-13T12:42:29.0000000+00:00</time></trkpt><trkpt lat="38.98540763" lon="-0.52228804"><ele>150.6</ele><time>2022-11-13T12:42:30.0000000+00:00</time></trkpt><trkpt lat="38.9854042" lon="-0.52226717"><ele>150.6</ele><time>2022-11-13T12:42:31.0000000+00:00</time></trkpt><trkpt lat="38.98540378" lon="-0.5222535"><ele>150.8</ele><time>2022-11-13T12:42:32.0000000+00:00</time></trkpt><trkpt lat="38.98539908" lon="-0.52224311"><ele>150.8</ele><time>2022-11-13T12:42:33.0000000+00:00</time></trkpt><trkpt lat="38.98540168" lon="-0.52223012"><ele>151.0</ele><time>2022-11-13T12:42:34.0000000+00:00</time></trkpt><trkpt lat="38.985399" lon="-0.52222249"><ele>151.2</ele><time>2022-11-13T12:42:35.0000000+00:00</time></trkpt><trkpt lat="38.98539464" lon="-0.52221294"><ele>151.2</ele><time>2022-11-13T12:42:36.0000000+00:00</time></trkpt><trkpt lat="38.98539137" lon="-0.52220724"><ele>151.2</ele><time>2022-11-13T12:42:37.0000000+00:00</time></trkpt><trkpt lat="38.98539296" lon="-0.52219131"><ele>151.4</ele><time>2022-11-13T12:42:38.0000000+00:00</time></trkpt><trkpt lat="38.98539305" lon="-0.52217178"><ele>151.6</ele><time>2022-11-13T12:42:39.0000000+00:00</time></trkpt><trkpt lat="38.98539389" lon="-0.52215217"><ele>151.8</ele><time>2022-11-13T12:42:40.0000000+00:00</time></trkpt><trkpt lat="38.98539548" lon="-0.52213448"><ele>152.0</ele><time>2022-11-13T12:42:41.0000000+00:00</time></trkpt><trkpt lat="38.98538509" lon="-0.522124"><ele>152.0</ele><time>2022-11-13T12:42:42.0000000+00:00</time></trkpt><trkpt lat="38.98537536" lon="-0.52210598"><ele>152.0</ele><time>2022-11-13T12:42:43.0000000+00:00</time></trkpt><trkpt lat="38.98536748" lon="-0.52209408"><ele>152.2</ele><time>2022-11-13T12:42:44.0000000+00:00</time></trkpt><trkpt lat="38.98536623" lon="-0.52208251"><ele>152.2</ele><time>2022-11-13T12:42:45.0000000+00:00</time></trkpt><trkpt lat="38.98536556" lon="-0.52206885"><ele>152.4</ele><time>2022-11-13T12:42:46.0000000+00:00</time></trkpt><trkpt lat="38.98536002" lon="-0.52205603"><ele>152.6</ele><time>2022-11-13T12:42:47.0000000+00:00</time></trkpt><trkpt lat="38.98535575" lon="-0.52204245"><ele>152.6</ele><time>2022-11-13T12:42:48.0000000+00:00</time></trkpt><trkpt lat="38.98535105" lon="-0.52202862"><ele>152.8</ele><time>2022-11-13T12:42:49.0000000+00:00</time></trkpt><trkpt lat="38.98534686" lon="-0.52201605"><ele>152.8</ele><time>2022-11-13T12:42:50.0000000+00:00</time></trkpt><trkpt lat="38.98534552" lon="-0.52200423"><ele>153.0</ele><time>2022-11-13T12:42:51.0000000+00:00</time></trkpt><trkpt lat="38.9853394" lon="-0.52199165"><ele>153.2</ele><time>2022-11-13T12:42:52.0000000+00:00</time></trkpt><trkpt lat="38.98533253" lon="-0.52197732"><ele>153.2</ele><time>2022-11-13T12:42:53.0000000+00:00</time></trkpt><trkpt lat="38.98532432" lon="-0.52196441"><ele>153.4</ele><time>2022-11-13T12:42:54.0000000+00:00</time></trkpt><trkpt lat="38.98531493" lon="-0.52195276"><ele>153.6</ele><time>2022-11-13T12:42:55.0000000+00:00</time></trkpt><trkpt lat="38.98530395" lon="-0.52193927"><ele>153.6</ele><time>2022-11-13T12:42:56.0000000+00:00</time></trkpt><trkpt lat="38.98529096" lon="-0.52192837"><ele>153.6</ele><time>2022-11-13T12:42:57.0000000+00:00</time></trkpt><trkpt lat="38.98528257" lon="-0.5219184"><ele>153.8</ele><time>2022-11-13T12:42:58.0000000+00:00</time></trkpt><trkpt lat="38.98526983" lon="-0.52191219"><ele>154.0</ele><time>2022-11-13T12:42:59.0000000+00:00</time></trkpt><trkpt lat="38.98525676" lon="-0.52190742"><ele>154.0</ele><time>2022-11-13T12:43:00.0000000+00:00</time></trkpt><trkpt lat="38.98524771" lon="-0.52190071"><ele>154.2</ele><time>2022-11-13T12:43:01.0000000+00:00</time></trkpt><trkpt lat="38.98523932" lon="-0.52189669"><ele>154.2</ele><time>2022-11-13T12:43:02.0000000+00:00</time></trkpt><trkpt lat="38.98523119" lon="-0.52189258"><ele>154.2</ele><time>2022-11-13T12:43:03.0000000+00:00</time></trkpt><trkpt lat="38.98521787" lon="-0.52188914"><ele>154.2</ele><time>2022-11-13T12:43:04.0000000+00:00</time></trkpt><trkpt lat="38.98520714" lon="-0.52188487"><ele>154.4</ele><time>2022-11-13T12:43:05.0000000+00:00</time></trkpt><trkpt lat="38.98519649" lon="-0.52188395"><ele>154.4</ele><time>2022-11-13T12:43:06.0000000+00:00</time></trkpt><trkpt lat="38.98519155" lon="-0.52188177"><ele>154.6</ele><time>2022-11-13T12:43:07.0000000+00:00</time></trkpt><trkpt lat="38.9851892" lon="-0.52187867"><ele>154.8</ele><time>2022-11-13T12:43:08.0000000+00:00</time></trkpt><trkpt lat="38.98518786" lon="-0.52187012"><ele>154.8</ele><time>2022-11-13T12:43:09.0000000+00:00</time></trkpt><trkpt lat="38.98518702" lon="-0.52186375"><ele>155.0</ele><time>2022-11-13T12:43:10.0000000+00:00</time></trkpt><trkpt lat="38.98518551" lon="-0.52186274"><ele>155.2</ele><time>2022-11-13T12:43:11.0000000+00:00</time></trkpt><trkpt lat="38.98518937" lon="-0.52185553"><ele>155.4</ele><time>2022-11-13T12:43:12.0000000+00:00</time></trkpt><trkpt lat="38.98519272" lon="-0.52184799"><ele>155.6</ele><time>2022-11-13T12:43:13.0000000+00:00</time></trkpt><trkpt lat="38.98518945" lon="-0.52184296"><ele>155.8</ele><time>2022-11-13T12:43:14.0000000+00:00</time></trkpt><trkpt lat="38.98518794" lon="-0.52183307"><ele>156.0</ele><time>2022-11-13T12:43:15.0000000+00:00</time></trkpt><trkpt lat="38.98518023" lon="-0.52182435"><ele>156.2</ele><time>2022-11-13T12:43:16.0000000+00:00</time></trkpt><trkpt lat="38.98517118" lon="-0.52181848"><ele>156.4</ele><time>2022-11-13T12:43:17.0000000+00:00</time></trkpt><trkpt lat="38.9851685" lon="-0.52181513"><ele>156.6</ele><time>2022-11-13T12:43:18.0000000+00:00</time></trkpt><trkpt lat="38.98516699" lon="-0.52181371"><ele>156.6</ele><time>2022-11-13T12:43:19.0000000+00:00</time></trkpt><trkpt lat="38.98516154" lon="-0.52181211"><ele>156.6</ele><time>2022-11-13T12:43:20.0000000+00:00</time></trkpt><trkpt lat="38.9851602" lon="-0.5218101"><ele>156.8</ele><time>2022-11-13T12:43:21.0000000+00:00</time></trkpt><trkpt lat="38.98516439" lon="-0.52180197"><ele>156.8</ele><time>2022-11-13T12:43:22.0000000+00:00</time></trkpt><trkpt lat="38.9851659" lon="-0.5217987"><ele>156.8</ele><time>2022-11-13T12:43:23.0000000+00:00</time></trkpt><trkpt lat="38.98516422" lon="-0.52180004"><ele>156.8</ele><time>2022-11-13T12:43:24.0000000+00:00</time></trkpt><trkpt lat="38.98516053" lon="-0.52180239"><ele>156.8</ele><time>2022-11-13T12:43:25.0000000+00:00</time></trkpt><trkpt lat="38.98515819" lon="-0.52180356"><ele>156.8</ele><time>2022-11-13T12:43:26.0000000+00:00</time></trkpt><trkpt lat="38.98515718" lon="-0.52180407"><ele>156.8</ele><time>2022-11-13T12:43:27.0000000+00:00</time></trkpt><trkpt lat="38.98515861" lon="-0.52179946"><ele>156.8</ele><time>2022-11-13T12:43:28.0000000+00:00</time></trkpt><trkpt lat="38.98516011" lon="-0.52179795"><ele>156.8</ele><time>2022-11-13T12:43:29.0000000+00:00</time></trkpt><trkpt lat="38.98516037" lon="-0.52179719"><ele>156.8</ele><time>2022-11-13T12:43:30.0000000+00:00</time></trkpt><trkpt lat="38.98516196" lon="-0.52179753"><ele>156.8</ele><time>2022-11-13T12:43:31.0000000+00:00</time></trkpt><trkpt lat="38.98516053" lon="-0.52179803"><ele>156.8</ele><time>2022-11-13T12:43:32.0000000+00:00</time></trkpt><trkpt lat="38.98515743" lon="-0.5218008"><ele>157.0</ele><time>2022-11-13T12:43:33.0000000+00:00</time></trkpt><trkpt lat="38.98515442" lon="-0.52180147"><ele>157.0</ele><time>2022-11-13T12:43:34.0000000+00:00</time></trkpt><trkpt lat="38.98514754" lon="-0.52179929"><ele>157.2</ele><time>2022-11-13T12:43:35.0000000+00:00</time></trkpt><trkpt lat="38.98514335" lon="-0.52179736"><ele>157.2</ele><time>2022-11-13T12:43:36.0000000+00:00</time></trkpt><trkpt lat="38.98513371" lon="-0.52179946"><ele>157.2</ele><time>2022-11-13T12:43:37.0000000+00:00</time></trkpt><trkpt lat="38.98512784" lon="-0.52179862"><ele>157.0</ele><time>2022-11-13T12:43:38.0000000+00:00</time></trkpt><trkpt lat="38.98512349" lon="-0.52179937"><ele>157.0</ele><time>2022-11-13T12:43:39.0000000+00:00</time></trkpt><trkpt lat="38.98512307" lon="-0.52180055"><ele>157.0</ele><time>2022-11-13T12:43:40.0000000+00:00</time></trkpt><trkpt lat="38.98512332" lon="-0.52179912"><ele>157.0</ele><time>2022-11-13T12:43:41.0000000+00:00</time></trkpt><trkpt lat="38.98512357" lon="-0.52180138"><ele>157.0</ele><time>2022-11-13T12:43:42.0000000+00:00</time></trkpt><trkpt lat="38.98512156" lon="-0.52181002"><ele>156.8</ele><time>2022-11-13T12:43:43.0000000+00:00</time></trkpt><trkpt lat="38.98512483" lon="-0.52181203"><ele>156.8</ele><time>2022-11-13T12:43:44.0000000+00:00</time></trkpt><trkpt lat="38.98512575" lon="-0.52181572"><ele>156.8</ele><time>2022-11-13T12:43:45.0000000+00:00</time></trkpt><trkpt lat="38.98511787" lon="-0.52182175"><ele>157.0</ele><time>2022-11-13T12:43:46.0000000+00:00</time></trkpt><trkpt lat="38.98511594" lon="-0.52182427"><ele>157.0</ele><time>2022-11-13T12:43:47.0000000+00:00</time></trkpt><trkpt lat="38.98511427" lon="-0.52182502"><ele>157.0</ele><time>2022-11-13T12:43:48.0000000+00:00</time></trkpt><trkpt lat="38.98511217" lon="-0.52182678"><ele>157.0</ele><time>2022-11-13T12:43:49.0000000+00:00</time></trkpt><trkpt lat="38.98511242" lon="-0.52182703"><ele>157.0</ele><time>2022-11-13T12:43:50.0000000+00:00</time></trkpt><trkpt lat="38.98512047" lon="-0.52182016"><ele>157.0</ele><time>2022-11-13T12:43:51.0000000+00:00</time></trkpt><trkpt lat="38.98512206" lon="-0.52181756"><ele>157.0</ele><time>2022-11-13T12:43:52.0000000+00:00</time></trkpt><trkpt lat="38.98512131" lon="-0.52181681"><ele>157.0</ele><time>2022-11-13T12:43:53.0000000+00:00</time></trkpt><trkpt lat="38.98512214" lon="-0.52181371"><ele>157.0</ele><time>2022-11-13T12:43:54.0000000+00:00</time></trkpt><trkpt lat="38.98512273" lon="-0.52181052"><ele>157.0</ele><time>2022-11-13T12:43:55.0000000+00:00</time></trkpt><trkpt lat="38.98512106" lon="-0.52180775"><ele>157.0</ele><time>2022-11-13T12:43:56.0000000+00:00</time></trkpt><trkpt lat="38.98511846" lon="-0.52180541"><ele>157.0</ele><time>2022-11-13T12:43:57.0000000+00:00</time></trkpt><trkpt lat="38.98512005" lon="-0.5218034"><ele>157.0</ele><time>2022-11-13T12:43:58.0000000+00:00</time></trkpt><trkpt lat="38.98512139" lon="-0.52180398"><ele>157.0</ele><time>2022-11-13T12:43:59.0000000+00:00</time></trkpt><trkpt lat="38.98512181" lon="-0.52180356"><ele>157.0</ele><time>2022-11-13T12:44:00.0000000+00:00</time></trkpt><trkpt lat="38.98512097" lon="-0.52180465"><ele>157.0</ele><time>2022-11-13T12:44:01.0000000+00:00</time></trkpt><trkpt lat="38.9851239" lon="-0.52180465"><ele>157.0</ele><time>2022-11-13T12:44:02.0000000+00:00</time></trkpt><trkpt lat="38.98512298" lon="-0.52180323"><ele>157.2</ele><time>2022-11-13T12:44:03.0000000+00:00</time></trkpt><trkpt lat="38.98512198" lon="-0.52180423"><ele>157.2</ele><time>2022-11-13T12:44:04.0000000+00:00</time></trkpt><trkpt lat="38.98511988" lon="-0.52180323"><ele>157.2</ele><time>2022-11-13T12:44:05.0000000+00:00</time></trkpt><trkpt lat="38.98511561" lon="-0.52180423"><ele>157.2</ele><time>2022-11-13T12:44:06.0000000+00:00</time></trkpt><trkpt lat="38.98511209" lon="-0.52180373"><ele>157.0</ele><time>2022-11-13T12:44:07.0000000+00:00</time></trkpt><trkpt lat="38.9851084" lon="-0.52180164"><ele>157.0</ele><time>2022-11-13T12:44:08.0000000+00:00</time></trkpt><trkpt lat="38.98510614" lon="-0.52180264"><ele>157.0</ele><time>2022-11-13T12:44:09.0000000+00:00</time></trkpt><trkpt lat="38.9851136" lon="-0.52179845"><ele>156.8</ele><time>2022-11-13T12:44:10.0000000+00:00</time></trkpt><trkpt lat="38.98511728" lon="-0.52179694"><ele>156.8</ele><time>2022-11-13T12:44:11.0000000+00:00</time></trkpt><trkpt lat="38.98511779" lon="-0.5217961"><ele>156.8</ele><time>2022-11-13T12:44:12.0000000+00:00</time></trkpt><trkpt lat="38.98511452" lon="-0.52179753"><ele>156.8</ele><time>2022-11-13T12:44:13.0000000+00:00</time></trkpt><trkpt lat="38.98511393" lon="-0.52179677"><ele>156.8</ele><time>2022-11-13T12:44:14.0000000+00:00</time></trkpt><trkpt lat="38.98511485" lon="-0.52179669"><ele>156.8</ele><time>2022-11-13T12:44:15.0000000+00:00</time></trkpt><trkpt lat="38.98511829" lon="-0.52179133"><ele>156.8</ele><time>2022-11-13T12:44:16.0000000+00:00</time></trkpt><trkpt lat="38.9851172" lon="-0.52179309"><ele>156.8</ele><time>2022-11-13T12:44:17.0000000+00:00</time></trkpt><trkpt lat="38.98511737" lon="-0.52179334"><ele>156.8</ele><time>2022-11-13T12:44:18.0000000+00:00</time></trkpt><trkpt lat="38.98511837" lon="-0.52179292"><ele>156.8</ele><time>2022-11-13T12:44:19.0000000+00:00</time></trkpt><trkpt lat="38.9851229" lon="-0.52179309"><ele>156.8</ele><time>2022-11-13T12:44:20.0000000+00:00</time></trkpt><trkpt lat="38.98512835" lon="-0.52179082"><ele>157.0</ele><time>2022-11-13T12:44:21.0000000+00:00</time></trkpt><trkpt lat="38.98511049" lon="-0.52179149"><ele>157.0</ele><time>2022-11-13T12:44:22.0000000+00:00</time></trkpt><trkpt lat="38.98509515" lon="-0.521792"><ele>157.0</ele><time>2022-11-13T12:44:23.0000000+00:00</time></trkpt><trkpt lat="38.98508719" lon="-0.52178931"><ele>157.0</ele><time>2022-11-13T12:44:24.0000000+00:00</time></trkpt><trkpt lat="38.9850856" lon="-0.52178278"><ele>157.0</ele><time>2022-11-13T12:44:25.0000000+00:00</time></trkpt><trkpt lat="38.98508334" lon="-0.52177439"><ele>157.0</ele><time>2022-11-13T12:44:26.0000000+00:00</time></trkpt><trkpt lat="38.98508158" lon="-0.52176911"><ele>157.8</ele><time>2022-11-13T12:44:27.0000000+00:00</time></trkpt><trkpt lat="38.98507931" lon="-0.52176073"><ele>158.4</ele><time>2022-11-13T12:44:28.0000000+00:00</time></trkpt><trkpt lat="38.98507956" lon="-0.52175076"><ele>158.8</ele><time>2022-11-13T12:44:29.0000000+00:00</time></trkpt><trkpt lat="38.98507688" lon="-0.52174288"><ele>159.0</ele><time>2022-11-13T12:44:30.0000000+00:00</time></trkpt><trkpt lat="38.98508241" lon="-0.52173265"><ele>159.2</ele><time>2022-11-13T12:44:31.0000000+00:00</time></trkpt><trkpt lat="38.98508267" lon="-0.52171547"><ele>159.2</ele><time>2022-11-13T12:44:32.0000000+00:00</time></trkpt><trkpt lat="38.98508543" lon="-0.52169628"><ele>159.2</ele><time>2022-11-13T12:44:33.0000000+00:00</time></trkpt><trkpt lat="38.98508367" lon="-0.52168538"><ele>159.4</ele><time>2022-11-13T12:44:34.0000000+00:00</time></trkpt><trkpt lat="38.9850799" lon="-0.52167658"><ele>159.6</ele><time>2022-11-13T12:44:35.0000000+00:00</time></trkpt><trkpt lat="38.98507747" lon="-0.52167281"><ele>159.6</ele><time>2022-11-13T12:44:36.0000000+00:00</time></trkpt><trkpt lat="38.98507621" lon="-0.5216692"><ele>159.8</ele><time>2022-11-13T12:44:37.0000000+00:00</time></trkpt><trkpt lat="38.98506959" lon="-0.52166401"><ele>160.0</ele><time>2022-11-13T12:44:38.0000000+00:00</time></trkpt><trkpt lat="38.985068" lon="-0.52165286"><ele>160.2</ele><time>2022-11-13T12:44:39.0000000+00:00</time></trkpt><trkpt lat="38.98506682" lon="-0.52164188"><ele>160.4</ele><time>2022-11-13T12:44:40.0000000+00:00</time></trkpt><trkpt lat="38.98506297" lon="-0.52163534"><ele>160.8</ele><time>2022-11-13T12:44:41.0000000+00:00</time></trkpt><trkpt lat="38.98506188" lon="-0.52162444"><ele>161.0</ele><time>2022-11-13T12:44:42.0000000+00:00</time></trkpt><trkpt lat="38.98505744" lon="-0.52161816"><ele>161.0</ele><time>2022-11-13T12:44:43.0000000+00:00</time></trkpt><trkpt lat="38.98505157" lon="-0.52161405"><ele>161.2</ele><time>2022-11-13T12:44:44.0000000+00:00</time></trkpt><trkpt lat="38.98504973" lon="-0.52160734"><ele>161.2</ele><time>2022-11-13T12:44:45.0000000+00:00</time></trkpt><trkpt lat="38.98504587" lon="-0.52160525"><ele>161.2</ele><time>2022-11-13T12:44:46.0000000+00:00</time></trkpt><trkpt lat="38.98504335" lon="-0.52159569"><ele>161.2</ele><time>2022-11-13T12:44:47.0000000+00:00</time></trkpt><trkpt lat="38.98504235" lon="-0.52157893"><ele>161.4</ele><time>2022-11-13T12:44:48.0000000+00:00</time></trkpt><trkpt lat="38.9850462" lon="-0.5215599"><ele>161.4</ele><time>2022-11-13T12:44:49.0000000+00:00</time></trkpt><trkpt lat="38.98505568" lon="-0.52155554"><ele>161.6</ele><time>2022-11-13T12:44:50.0000000+00:00</time></trkpt><trkpt lat="38.98507244" lon="-0.52154842"><ele>161.6</ele><time>2022-11-13T12:44:51.0000000+00:00</time></trkpt><trkpt lat="38.98508954" lon="-0.52153551"><ele>161.6</ele><time>2022-11-13T12:44:52.0000000+00:00</time></trkpt><trkpt lat="38.98509616" lon="-0.52152755"><ele>161.8</ele><time>2022-11-13T12:44:53.0000000+00:00</time></trkpt><trkpt lat="38.98511158" lon="-0.52151355"><ele>161.8</ele><time>2022-11-13T12:44:54.0000000+00:00</time></trkpt><trkpt lat="38.98511745" lon="-0.52150416"><ele>161.8</ele><time>2022-11-13T12:44:55.0000000+00:00</time></trkpt><trkpt lat="38.98512558" lon="-0.52148564"><ele>161.8</ele><time>2022-11-13T12:44:56.0000000+00:00</time></trkpt><trkpt lat="38.98513497" lon="-0.52146921"><ele>161.8</ele><time>2022-11-13T12:44:57.0000000+00:00</time></trkpt><trkpt lat="38.98514779" lon="-0.5214589"><ele>162.0</ele><time>2022-11-13T12:44:58.0000000+00:00</time></trkpt><trkpt lat="38.98515735" lon="-0.52144633"><ele>162.0</ele><time>2022-11-13T12:44:59.0000000+00:00</time></trkpt><trkpt lat="38.98517336" lon="-0.52143417"><ele>162.2</ele><time>2022-11-13T12:45:00.0000000+00:00</time></trkpt><trkpt lat="38.98518484" lon="-0.52141749"><ele>162.2</ele><time>2022-11-13T12:45:01.0000000+00:00</time></trkpt><trkpt lat="38.98519515" lon="-0.5213962"><ele>162.2</ele><time>2022-11-13T12:45:02.0000000+00:00</time></trkpt><trkpt lat="38.98520479" lon="-0.5213812"><ele>162.4</ele><time>2022-11-13T12:45:03.0000000+00:00</time></trkpt><trkpt lat="38.9852177" lon="-0.52136829"><ele>162.6</ele><time>2022-11-13T12:45:04.0000000+00:00</time></trkpt><trkpt lat="38.98523413" lon="-0.52135698"><ele>162.8</ele><time>2022-11-13T12:45:05.0000000+00:00</time></trkpt><trkpt lat="38.9852493" lon="-0.52134524"><ele>162.8</ele><time>2022-11-13T12:45:06.0000000+00:00</time></trkpt><trkpt lat="38.98526263" lon="-0.52133451"><ele>162.8</ele><time>2022-11-13T12:45:07.0000000+00:00</time></trkpt><trkpt lat="38.98527319" lon="-0.52132404"><ele>163.0</ele><time>2022-11-13T12:45:08.0000000+00:00</time></trkpt><trkpt lat="38.98528199" lon="-0.52131381"><ele>163.0</ele><time>2022-11-13T12:45:09.0000000+00:00</time></trkpt><trkpt lat="38.98529045" lon="-0.52130425"><ele>163.0</ele><time>2022-11-13T12:45:10.0000000+00:00</time></trkpt><trkpt lat="38.98529925" lon="-0.5212942"><ele>163.0</ele><time>2022-11-13T12:45:11.0000000+00:00</time></trkpt><trkpt lat="38.98531158" lon="-0.52128355"><ele>163.0</ele><time>2022-11-13T12:45:12.0000000+00:00</time></trkpt><trkpt lat="38.98531987" lon="-0.52127249"><ele>163.0</ele><time>2022-11-13T12:45:13.0000000+00:00</time></trkpt><trkpt lat="38.98532893" lon="-0.52126033"><ele>163.0</ele><time>2022-11-13T12:45:14.0000000+00:00</time></trkpt><trkpt lat="38.98533706" lon="-0.52125254"><ele>163.0</ele><time>2022-11-13T12:45:15.0000000+00:00</time></trkpt><trkpt lat="38.9853472" lon="-0.52124558"><ele>163.2</ele><time>2022-11-13T12:45:16.0000000+00:00</time></trkpt><trkpt lat="38.98535307" lon="-0.52123762"><ele>163.2</ele><time>2022-11-13T12:45:17.0000000+00:00</time></trkpt><trkpt lat="38.98535851" lon="-0.52122463"><ele>163.2</ele><time>2022-11-13T12:45:18.0000000+00:00</time></trkpt><trkpt lat="38.98536765" lon="-0.52121465"><ele>163.4</ele><time>2022-11-13T12:45:19.0000000+00:00</time></trkpt><trkpt lat="38.98537939" lon="-0.52120183"><ele>163.4</ele><time>2022-11-13T12:45:20.0000000+00:00</time></trkpt><trkpt lat="38.98539011" lon="-0.52119118"><ele>163.4</ele><time>2022-11-13T12:45:21.0000000+00:00</time></trkpt><trkpt lat="38.98540453" lon="-0.52118163"><ele>163.4</ele><time>2022-11-13T12:45:22.0000000+00:00</time></trkpt><trkpt lat="38.98541568" lon="-0.52117811"><ele>163.6</ele><time>2022-11-13T12:45:23.0000000+00:00</time></trkpt><trkpt lat="38.98542054" lon="-0.52117366"><ele>163.6</ele><time>2022-11-13T12:45:24.0000000+00:00</time></trkpt><trkpt lat="38.98543169" lon="-0.52116981"><ele>163.8</ele><time>2022-11-13T12:45:25.0000000+00:00</time></trkpt><trkpt lat="38.98543823" lon="-0.52116092"><ele>163.8</ele><time>2022-11-13T12:45:26.0000000+00:00</time></trkpt><trkpt lat="38.98544493" lon="-0.52115078"><ele>163.8</ele><time>2022-11-13T12:45:27.0000000+00:00</time></trkpt><trkpt lat="38.98545155" lon="-0.52113737"><ele>164.0</ele><time>2022-11-13T12:45:28.0000000+00:00</time></trkpt><trkpt lat="38.98546035" lon="-0.52112714"><ele>164.0</ele><time>2022-11-13T12:45:29.0000000+00:00</time></trkpt><trkpt lat="38.98546983" lon="-0.52111533"><ele>164.0</ele><time>2022-11-13T12:45:30.0000000+00:00</time></trkpt><trkpt lat="38.98547494" lon="-0.52110652"><ele>164.0</ele><time>2022-11-13T12:45:31.0000000+00:00</time></trkpt><trkpt lat="38.98549187" lon="-0.5210973"><ele>164.2</ele><time>2022-11-13T12:45:32.0000000+00:00</time></trkpt><trkpt lat="38.98550302" lon="-0.52109085"><ele>164.2</ele><time>2022-11-13T12:45:33.0000000+00:00</time></trkpt><trkpt lat="38.98551685" lon="-0.5210761"><ele>164.2</ele><time>2022-11-13T12:45:34.0000000+00:00</time></trkpt><trkpt lat="38.98552615" lon="-0.52105749"><ele>164.2</ele><time>2022-11-13T12:45:35.0000000+00:00</time></trkpt><trkpt lat="38.98553319" lon="-0.52104634"><ele>164.2</ele><time>2022-11-13T12:45:36.0000000+00:00</time></trkpt><trkpt lat="38.98553889" lon="-0.52103385"><ele>164.2</ele><time>2022-11-13T12:45:37.0000000+00:00</time></trkpt><trkpt lat="38.98554778" lon="-0.52102455"><ele>164.4</ele><time>2022-11-13T12:45:38.0000000+00:00</time></trkpt><trkpt lat="38.98555809" lon="-0.52101349"><ele>164.4</ele><time>2022-11-13T12:45:39.0000000+00:00</time></trkpt><trkpt lat="38.98556245" lon="-0.52100678"><ele>164.4</ele><time>2022-11-13T12:45:40.0000000+00:00</time></trkpt><trkpt lat="38.98556437" lon="-0.52099681"><ele>164.4</ele><time>2022-11-13T12:45:41.0000000+00:00</time></trkpt><trkpt lat="38.98556831" lon="-0.52098239"><ele>164.4</ele><time>2022-11-13T12:45:42.0000000+00:00</time></trkpt><trkpt lat="38.98557494" lon="-0.5209725"><ele>164.6</ele><time>2022-11-13T12:45:43.0000000+00:00</time></trkpt><trkpt lat="38.98558105" lon="-0.52096034"><ele>164.6</ele><time>2022-11-13T12:45:44.0000000+00:00</time></trkpt><trkpt lat="38.9855865" lon="-0.52095003"><ele>164.6</ele><time>2022-11-13T12:45:45.0000000+00:00</time></trkpt><trkpt lat="38.98559287" lon="-0.52093746"><ele>164.8</ele><time>2022-11-13T12:45:46.0000000+00:00</time></trkpt><trkpt lat="38.98559949" lon="-0.52092682"><ele>164.8</ele><time>2022-11-13T12:45:47.0000000+00:00</time></trkpt><trkpt lat="38.98560645" lon="-0.52092011"><ele>164.8</ele><time>2022-11-13T12:45:48.0000000+00:00</time></trkpt><trkpt lat="38.98560855" lon="-0.52091491"><ele>164.8</ele><time>2022-11-13T12:45:49.0000000+00:00</time></trkpt><trkpt lat="38.9856155" lon="-0.52090838"><ele>164.8</ele><time>2022-11-13T12:45:50.0000000+00:00</time></trkpt><trkpt lat="38.9856228" lon="-0.52090251"><ele>164.8</ele><time>2022-11-13T12:45:51.0000000+00:00</time></trkpt><trkpt lat="38.98562523" lon="-0.5208922"><ele>164.8</ele><time>2022-11-13T12:45:52.0000000+00:00</time></trkpt><trkpt lat="38.98562774" lon="-0.52088281"><ele>165.0</ele><time>2022-11-13T12:45:53.0000000+00:00</time></trkpt><trkpt lat="38.98563537" lon="-0.52087242"><ele>165.2</ele><time>2022-11-13T12:45:54.0000000+00:00</time></trkpt><trkpt lat="38.98563948" lon="-0.52086345"><ele>165.4</ele><time>2022-11-13T12:45:55.0000000+00:00</time></trkpt><trkpt lat="38.98564375" lon="-0.5208601"><ele>165.4</ele><time>2022-11-13T12:45:56.0000000+00:00</time></trkpt><trkpt lat="38.98564568" lon="-0.52085809"><ele>165.6</ele><time>2022-11-13T12:45:57.0000000+00:00</time></trkpt><trkpt lat="38.98564559" lon="-0.52085834"><ele>165.8</ele><time>2022-11-13T12:45:58.0000000+00:00</time></trkpt><trkpt lat="38.98564752" lon="-0.52085758"><ele>166.0</ele><time>2022-11-13T12:45:59.0000000+00:00</time></trkpt><trkpt lat="38.9856492" lon="-0.52085448"><ele>166.0</ele><time>2022-11-13T12:46:00.0000000+00:00</time></trkpt><trkpt lat="38.9856575" lon="-0.52084987"><ele>166.0</ele><time>2022-11-13T12:46:01.0000000+00:00</time></trkpt><trkpt lat="38.98566579" lon="-0.52084325"><ele>166.0</ele><time>2022-11-13T12:46:02.0000000+00:00</time></trkpt><trkpt lat="38.98567451" lon="-0.52083395"><ele>166.0</ele><time>2022-11-13T12:46:03.0000000+00:00</time></trkpt><trkpt lat="38.98568583" lon="-0.52082774"><ele>166.2</ele><time>2022-11-13T12:46:04.0000000+00:00</time></trkpt><trkpt lat="38.98569413" lon="-0.52082615"><ele>166.2</ele><time>2022-11-13T12:46:05.0000000+00:00</time></trkpt><trkpt lat="38.9857015" lon="-0.52081693"><ele>166.4</ele><time>2022-11-13T12:46:06.0000000+00:00</time></trkpt><trkpt lat="38.98570737" lon="-0.52080293"><ele>166.6</ele><time>2022-11-13T12:46:07.0000000+00:00</time></trkpt><trkpt lat="38.98571391" lon="-0.52079296"><ele>166.8</ele><time>2022-11-13T12:46:08.0000000+00:00</time></trkpt><trkpt lat="38.98572313" lon="-0.52078902"><ele>166.8</ele><time>2022-11-13T12:46:09.0000000+00:00</time></trkpt><trkpt lat="38.98573461" lon="-0.52077862"><ele>167.0</ele><time>2022-11-13T12:46:10.0000000+00:00</time></trkpt><trkpt lat="38.98573645" lon="-0.5207689"><ele>167.0</ele><time>2022-11-13T12:46:11.0000000+00:00</time></trkpt><trkpt lat="38.9857383" lon="-0.52076396"><ele>167.2</ele><time>2022-11-13T12:46:12.0000000+00:00</time></trkpt><trkpt lat="38.98573905" lon="-0.52075926"><ele>167.2</ele><time>2022-11-13T12:46:13.0000000+00:00</time></trkpt><trkpt lat="38.98573738" lon="-0.52074962"><ele>167.4</ele><time>2022-11-13T12:46:14.0000000+00:00</time></trkpt><trkpt lat="38.98573771" lon="-0.52074619"><ele>167.4</ele><time>2022-11-13T12:46:15.0000000+00:00</time></trkpt><trkpt lat="38.98574148" lon="-0.52073965"><ele>167.6</ele><time>2022-11-13T12:46:16.0000000+00:00</time></trkpt><trkpt lat="38.98574383" lon="-0.52073596"><ele>167.6</ele><time>2022-11-13T12:46:17.0000000+00:00</time></trkpt><trkpt lat="38.98574324" lon="-0.52073445"><ele>167.8</ele><time>2022-11-13T12:46:18.0000000+00:00</time></trkpt><trkpt lat="38.98574232" lon="-0.52073537"><ele>167.8</ele><time>2022-11-13T12:46:19.0000000+00:00</time></trkpt><trkpt lat="38.98574148" lon="-0.52073487"><ele>168.0</ele><time>2022-11-13T12:46:20.0000000+00:00</time></trkpt><trkpt lat="38.98573889" lon="-0.52073563"><ele>168.0</ele><time>2022-11-13T12:46:21.0000000+00:00</time></trkpt><trkpt lat="38.98573704" lon="-0.52073705"><ele>168.0</ele><time>2022-11-13T12:46:22.0000000+00:00</time></trkpt><trkpt lat="38.98573696" lon="-0.52073646"><ele>168.0</ele><time>2022-11-13T12:46:23.0000000+00:00</time></trkpt><trkpt lat="38.98573704" lon="-0.52073672"><ele>168.2</ele><time>2022-11-13T12:46:24.0000000+00:00</time></trkpt><trkpt lat="38.98573704" lon="-0.52073672"><ele>168.2</ele><time>2022-11-13T12:46:25.0000000+00:00</time></trkpt><trkpt lat="38.98573704" lon="-0.52073672"><ele>168.2</ele><time>2022-11-13T12:46:26.0000000+00:00</time></trkpt><trkpt lat="38.98573704" lon="-0.52073672"><ele>168.2</ele><time>2022-11-13T12:46:27.0000000+00:00</time></trkpt><trkpt lat="38.98573704" lon="-0.52073672"><ele>168.2</ele><time>2022-11-13T12:46:28.0000000+00:00</time></trkpt><trkpt lat="38.98573704" lon="-0.52073672"><ele>168.2</ele><time>2022-11-13T12:46:29.0000000+00:00</time></trkpt><trkpt lat="38.98573704" lon="-0.52073672"><ele>168.2</ele><time>2022-11-13T12:46:30.0000000+00:00</time></trkpt><trkpt lat="38.98573704" lon="-0.52073672"><ele>168.2</ele><time>2022-11-13T12:46:31.0000000+00:00</time></trkpt><trkpt lat="38.98573704" lon="-0.52073672"><ele>168.2</ele><time>2022-11-13T12:46:32.0000000+00:00</time></trkpt><trkpt lat="38.98573704" lon="-0.52073672"><ele>168.2</ele><time>2022-11-13T12:46:33.0000000+00:00</time></trkpt><trkpt lat="38.98573704" lon="-0.52073655"><ele>168.2</ele><time>2022-11-13T12:46:34.0000000+00:00</time></trkpt><trkpt lat="38.98573704" lon="-0.52073638"><ele>168.2</ele><time>2022-11-13T12:46:35.0000000+00:00</time></trkpt><trkpt lat="38.98573704" lon="-0.52073596"><ele>168.2</ele><time>2022-11-13T12:46:36.0000000+00:00</time></trkpt><trkpt lat="38.98573704" lon="-0.52073571"><ele>168.2</ele><time>2022-11-13T12:46:37.0000000+00:00</time></trkpt><trkpt lat="38.98573704" lon="-0.52073563"><ele>168.2</ele><time>2022-11-13T12:46:38.0000000+00:00</time></trkpt><trkpt lat="38.98573704" lon="-0.52073546"><ele>168.2</ele><time>2022-11-13T12:46:39.0000000+00:00</time></trkpt><trkpt lat="38.98573704" lon="-0.52073537"><ele>168.2</ele><time>2022-11-13T12:46:40.0000000+00:00</time></trkpt><trkpt lat="38.98573704" lon="-0.52073512"><ele>168.2</ele><time>2022-11-13T12:46:41.0000000+00:00</time></trkpt><trkpt lat="38.98573704" lon="-0.52073487"><ele>168.2</ele><time>2022-11-13T12:46:42.0000000+00:00</time></trkpt><trkpt lat="38.98573696" lon="-0.52073479"><ele>168.2</ele><time>2022-11-13T12:46:43.0000000+00:00</time></trkpt><trkpt lat="38.98573587" lon="-0.52073454"><ele>168.2</ele><time>2022-11-13T12:46:44.0000000+00:00</time></trkpt><trkpt lat="38.98573495" lon="-0.52073412"><ele>168.2</ele><time>2022-11-13T12:46:45.0000000+00:00</time></trkpt><trkpt lat="38.98573469" lon="-0.52073336"><ele>168.2</ele><time>2022-11-13T12:46:46.0000000+00:00</time></trkpt><trkpt lat="38.98573469" lon="-0.52073102"><ele>168.2</ele><time>2022-11-13T12:46:47.0000000+00:00</time></trkpt><trkpt lat="38.98573469" lon="-0.52073026"><ele>168.4</ele><time>2022-11-13T12:46:48.0000000+00:00</time></trkpt><trkpt lat="38.98573654" lon="-0.52072297"><ele>168.4</ele><time>2022-11-13T12:46:49.0000000+00:00</time></trkpt><trkpt lat="38.98574341" lon="-0.52070579"><ele>168.6</ele><time>2022-11-13T12:46:50.0000000+00:00</time></trkpt><trkpt lat="38.98575154" lon="-0.52068726"><ele>168.6</ele><time>2022-11-13T12:46:51.0000000+00:00</time></trkpt><trkpt lat="38.98576219" lon="-0.52066907"><ele>168.8</ele><time>2022-11-13T12:46:52.0000000+00:00</time></trkpt><trkpt lat="38.98577124" lon="-0.52065047"><ele>168.8</ele><time>2022-11-13T12:46:53.0000000+00:00</time></trkpt><trkpt lat="38.98578054" lon="-0.52062867"><ele>169.0</ele><time>2022-11-13T12:46:54.0000000+00:00</time></trkpt><trkpt lat="38.98578859" lon="-0.52061157"><ele>169.2</ele><time>2022-11-13T12:46:55.0000000+00:00</time></trkpt><trkpt lat="38.98579546" lon="-0.52059255"><ele>169.4</ele><time>2022-11-13T12:46:56.0000000+00:00</time></trkpt><trkpt lat="38.98580217" lon="-0.52057109"><ele>169.4</ele><time>2022-11-13T12:46:57.0000000+00:00</time></trkpt><trkpt lat="38.98580946" lon="-0.52054754"><ele>169.6</ele><time>2022-11-13T12:46:58.0000000+00:00</time></trkpt><trkpt lat="38.98580896" lon="-0.52053848"><ele>169.6</ele><time>2022-11-13T12:46:59.0000000+00:00</time></trkpt><trkpt lat="38.98581323" lon="-0.52052918"><ele>169.8</ele><time>2022-11-13T12:47:00.0000000+00:00</time></trkpt><trkpt lat="38.98582052" lon="-0.52051652"><ele>170.0</ele><time>2022-11-13T12:47:01.0000000+00:00</time></trkpt><trkpt lat="38.98582958" lon="-0.5205016"><ele>170.0</ele><time>2022-11-13T12:47:02.0000000+00:00</time></trkpt><trkpt lat="38.98583788" lon="-0.52048777"><ele>170.2</ele><time>2022-11-13T12:47:03.0000000+00:00</time></trkpt><trkpt lat="38.98584584" lon="-0.5204752"><ele>170.4</ele><time>2022-11-13T12:47:04.0000000+00:00</time></trkpt><trkpt lat="38.98585388" lon="-0.52046615"><ele>170.4</ele><time>2022-11-13T12:47:05.0000000+00:00</time></trkpt><trkpt lat="38.98585481" lon="-0.52044938"><ele>170.6</ele><time>2022-11-13T12:47:06.0000000+00:00</time></trkpt><trkpt lat="38.98585791" lon="-0.52043488"><ele>170.8</ele><time>2022-11-13T12:47:07.0000000+00:00</time></trkpt><trkpt lat="38.98585556" lon="-0.52042231"><ele>171.0</ele><time>2022-11-13T12:47:08.0000000+00:00</time></trkpt><trkpt lat="38.98585866" lon="-0.52040898"><ele>171.0</ele><time>2022-11-13T12:47:09.0000000+00:00</time></trkpt><trkpt lat="38.98585933" lon="-0.5204032"><ele>171.2</ele><time>2022-11-13T12:47:10.0000000+00:00</time></trkpt><trkpt lat="38.98586813" lon="-0.52039742"><ele>171.2</ele><time>2022-11-13T12:47:11.0000000+00:00</time></trkpt><trkpt lat="38.98587534" lon="-0.52038166"><ele>171.4</ele><time>2022-11-13T12:47:12.0000000+00:00</time></trkpt><trkpt lat="38.98587769" lon="-0.52037487"><ele>171.4</ele><time>2022-11-13T12:47:13.0000000+00:00</time></trkpt><trkpt lat="38.98588574" lon="-0.52036598"><ele>171.6</ele><time>2022-11-13T12:47:14.0000000+00:00</time></trkpt><trkpt lat="38.98589152" lon="-0.52035525"><ele>171.8</ele><time>2022-11-13T12:47:15.0000000+00:00</time></trkpt><trkpt lat="38.98590401" lon="-0.52033631"><ele>172.0</ele><time>2022-11-13T12:47:16.0000000+00:00</time></trkpt><trkpt lat="38.98591021" lon="-0.520325"><ele>172.2</ele><time>2022-11-13T12:47:17.0000000+00:00</time></trkpt><trkpt lat="38.98591675" lon="-0.52031552"><ele>172.2</ele><time>2022-11-13T12:47:18.0000000+00:00</time></trkpt><trkpt lat="38.98591667" lon="-0.5203058"><ele>172.4</ele><time>2022-11-13T12:47:19.0000000+00:00</time></trkpt><trkpt lat="38.98591323" lon="-0.52029532"><ele>172.6</ele><time>2022-11-13T12:47:20.0000000+00:00</time></trkpt><trkpt lat="38.98591499" lon="-0.52028284"><ele>172.8</ele><time>2022-11-13T12:47:21.0000000+00:00</time></trkpt><trkpt lat="38.98591708" lon="-0.52027127"><ele>173.0</ele><time>2022-11-13T12:47:22.0000000+00:00</time></trkpt><trkpt lat="38.98591532" lon="-0.52026238"><ele>173.0</ele><time>2022-11-13T12:47:23.0000000+00:00</time></trkpt><trkpt lat="38.98591298" lon="-0.52025392"><ele>173.2</ele><time>2022-11-13T12:47:24.0000000+00:00</time></trkpt><trkpt lat="38.98591491" lon="-0.52024369"><ele>173.4</ele><time>2022-11-13T12:47:25.0000000+00:00</time></trkpt><trkpt lat="38.98592144" lon="-0.52023288"><ele>173.6</ele><time>2022-11-13T12:47:26.0000000+00:00</time></trkpt><trkpt lat="38.98592211" lon="-0.52022265"><ele>173.8</ele><time>2022-11-13T12:47:27.0000000+00:00</time></trkpt><trkpt lat="38.98592119" lon="-0.52021234"><ele>174.0</ele><time>2022-11-13T12:47:28.0000000+00:00</time></trkpt><trkpt lat="38.98591993" lon="-0.52020036"><ele>174.0</ele><time>2022-11-13T12:47:29.0000000+00:00</time></trkpt><trkpt lat="38.98592689" lon="-0.52018502"><ele>174.2</ele><time>2022-11-13T12:47:30.0000000+00:00</time></trkpt><trkpt lat="38.98593343" lon="-0.52016893"><ele>174.4</ele><time>2022-11-13T12:47:31.0000000+00:00</time></trkpt><trkpt lat="38.98593762" lon="-0.52015551"><ele>174.6</ele><time>2022-11-13T12:47:32.0000000+00:00</time></trkpt><trkpt lat="38.9859393" lon="-0.52014126"><ele>174.8</ele><time>2022-11-13T12:47:33.0000000+00:00</time></trkpt><trkpt lat="38.98594097" lon="-0.52012777"><ele>174.8</ele><time>2022-11-13T12:47:34.0000000+00:00</time></trkpt><trkpt lat="38.98594164" lon="-0.52011553"><ele>175.0</ele><time>2022-11-13T12:47:35.0000000+00:00</time></trkpt><trkpt lat="38.98594122" lon="-0.52010346"><ele>175.2</ele><time>2022-11-13T12:47:36.0000000+00:00</time></trkpt><trkpt lat="38.98594273" lon="-0.52009257"><ele>175.2</ele><time>2022-11-13T12:47:37.0000000+00:00</time></trkpt><trkpt lat="38.9859434" lon="-0.52007865"><ele>175.4</ele><time>2022-11-13T12:47:38.0000000+00:00</time></trkpt><trkpt lat="38.98594307" lon="-0.52006449"><ele>175.6</ele><time>2022-11-13T12:47:39.0000000+00:00</time></trkpt><trkpt lat="38.9859455" lon="-0.52005325"><ele>175.8</ele><time>2022-11-13T12:47:40.0000000+00:00</time></trkpt><trkpt lat="38.98594986" lon="-0.52004194"><ele>176.0</ele><time>2022-11-13T12:47:41.0000000+00:00</time></trkpt><trkpt lat="38.98595438" lon="-0.52003205"><ele>176.0</ele><time>2022-11-13T12:47:42.0000000+00:00</time></trkpt><trkpt lat="38.9859631" lon="-0.52002283"><ele>176.2</ele><time>2022-11-13T12:47:43.0000000+00:00</time></trkpt><trkpt lat="38.9859709" lon="-0.52000925"><ele>176.4</ele><time>2022-11-13T12:47:44.0000000+00:00</time></trkpt><trkpt lat="38.98597827" lon="-0.51999768"><ele>176.4</ele><time>2022-11-13T12:47:45.0000000+00:00</time></trkpt><trkpt lat="38.98598246" lon="-0.51999198"><ele>176.6</ele><time>2022-11-13T12:47:46.0000000+00:00</time></trkpt><trkpt lat="38.98598565" lon="-0.51998452"><ele>176.6</ele><time>2022-11-13T12:47:47.0000000+00:00</time></trkpt><trkpt lat="38.98599076" lon="-0.5199743"><ele>176.8</ele><time>2022-11-13T12:47:48.0000000+00:00</time></trkpt><trkpt lat="38.98599051" lon="-0.51996298"><ele>176.8</ele><time>2022-11-13T12:47:49.0000000+00:00</time></trkpt><trkpt lat="38.98599135" lon="-0.51995083"><ele>177.0</ele><time>2022-11-13T12:47:50.0000000+00:00</time></trkpt><trkpt lat="38.98599445" lon="-0.51993951"><ele>177.2</ele><time>2022-11-13T12:47:51.0000000+00:00</time></trkpt><trkpt lat="38.98599504" lon="-0.51992266"><ele>177.2</ele><time>2022-11-13T12:47:52.0000000+00:00</time></trkpt><trkpt lat="38.98599587" lon="-0.51991562"><ele>177.4</ele><time>2022-11-13T12:47:53.0000000+00:00</time></trkpt><trkpt lat="38.98599621" lon="-0.51991219"><ele>177.6</ele><time>2022-11-13T12:47:54.0000000+00:00</time></trkpt><trkpt lat="38.98599537" lon="-0.51991127"><ele>177.6</ele><time>2022-11-13T12:47:55.0000000+00:00</time></trkpt><trkpt lat="38.98599546" lon="-0.51991303"><ele>177.6</ele><time>2022-11-13T12:47:56.0000000+00:00</time></trkpt><trkpt lat="38.98599956" lon="-0.51991286"><ele>177.8</ele><time>2022-11-13T12:47:57.0000000+00:00</time></trkpt><trkpt lat="38.98599906" lon="-0.51990322"><ele>177.8</ele><time>2022-11-13T12:47:58.0000000+00:00</time></trkpt><trkpt lat="38.98600015" lon="-0.51989324"><ele>178.0</ele><time>2022-11-13T12:47:59.0000000+00:00</time></trkpt><trkpt lat="38.98600099" lon="-0.51988428"><ele>178.0</ele><time>2022-11-13T12:48:00.0000000+00:00</time></trkpt><trkpt lat="38.98600065" lon="-0.51986927"><ele>178.2</ele><time>2022-11-13T12:48:01.0000000+00:00</time></trkpt><trkpt lat="38.98600199" lon="-0.51985561"><ele>178.2</ele><time>2022-11-13T12:48:02.0000000+00:00</time></trkpt><trkpt lat="38.98600384" lon="-0.51984253"><ele>178.4</ele><time>2022-11-13T12:48:03.0000000+00:00</time></trkpt><trkpt lat="38.98600576" lon="-0.51982954"><ele>178.4</ele><time>2022-11-13T12:48:04.0000000+00:00</time></trkpt><trkpt lat="38.98600828" lon="-0.51981797"><ele>178.6</ele><time>2022-11-13T12:48:05.0000000+00:00</time></trkpt><trkpt lat="38.98601113" lon="-0.51980582"><ele>178.6</ele><time>2022-11-13T12:48:06.0000000+00:00</time></trkpt><trkpt lat="38.98601499" lon="-0.5197966"><ele>178.8</ele><time>2022-11-13T12:48:07.0000000+00:00</time></trkpt><trkpt lat="38.9860175" lon="-0.51978529"><ele>179.0</ele><time>2022-11-13T12:48:08.0000000+00:00</time></trkpt><trkpt lat="38.98601649" lon="-0.51976726"><ele>179.2</ele><time>2022-11-13T12:48:09.0000000+00:00</time></trkpt><trkpt lat="38.98601834" lon="-0.5197536"><ele>179.4</ele><time>2022-11-13T12:48:10.0000000+00:00</time></trkpt><trkpt lat="38.98602362" lon="-0.51973969"><ele>179.6</ele><time>2022-11-13T12:48:11.0000000+00:00</time></trkpt><trkpt lat="38.98602563" lon="-0.5197324"><ele>179.8</ele><time>2022-11-13T12:48:12.0000000+00:00</time></trkpt><trkpt lat="38.98602806" lon="-0.51972133"><ele>180.0</ele><time>2022-11-13T12:48:13.0000000+00:00</time></trkpt><trkpt lat="38.98603007" lon="-0.51971396"><ele>180.0</ele><time>2022-11-13T12:48:14.0000000+00:00</time></trkpt><trkpt lat="38.98603594" lon="-0.51970155"><ele>180.2</ele><time>2022-11-13T12:48:15.0000000+00:00</time></trkpt><trkpt lat="38.98604114" lon="-0.51969619"><ele>180.4</ele><time>2022-11-13T12:48:16.0000000+00:00</time></trkpt><trkpt lat="38.98604868" lon="-0.51968579"><ele>180.4</ele><time>2022-11-13T12:48:17.0000000+00:00</time></trkpt><trkpt lat="38.98605589" lon="-0.51967154"><ele>180.6</ele><time>2022-11-13T12:48:18.0000000+00:00</time></trkpt><trkpt lat="38.98606536" lon="-0.51966148"><ele>180.8</ele><time>2022-11-13T12:48:19.0000000+00:00</time></trkpt><trkpt lat="38.98607031" lon="-0.51965344"><ele>180.8</ele><time>2022-11-13T12:48:20.0000000+00:00</time></trkpt><trkpt lat="38.98607441" lon="-0.51964548"><ele>181.0</ele><time>2022-11-13T12:48:21.0000000+00:00</time></trkpt><trkpt lat="38.98607785" lon="-0.51963039"><ele>181.2</ele><time>2022-11-13T12:48:22.0000000+00:00</time></trkpt><trkpt lat="38.98608439" lon="-0.51961924"><ele>181.4</ele><time>2022-11-13T12:48:23.0000000+00:00</time></trkpt><trkpt lat="38.98608707" lon="-0.51960616"><ele>181.6</ele><time>2022-11-13T12:48:24.0000000+00:00</time></trkpt><trkpt lat="38.9860874" lon="-0.51959544"><ele>181.6</ele><time>2022-11-13T12:48:25.0000000+00:00</time></trkpt><trkpt lat="38.98608849" lon="-0.51958395"><ele>182.0</ele><time>2022-11-13T12:48:26.0000000+00:00</time></trkpt><trkpt lat="38.98609143" lon="-0.51957104"><ele>182.0</ele><time>2022-11-13T12:48:27.0000000+00:00</time></trkpt><trkpt lat="38.98609746" lon="-0.51955939"><ele>182.2</ele><time>2022-11-13T12:48:28.0000000+00:00</time></trkpt><trkpt lat="38.98609788" lon="-0.51954657"><ele>182.4</ele><time>2022-11-13T12:48:29.0000000+00:00</time></trkpt><trkpt lat="38.98609981" lon="-0.51953383"><ele>182.6</ele><time>2022-11-13T12:48:30.0000000+00:00</time></trkpt><trkpt lat="38.9861004" lon="-0.51951941"><ele>183.0</ele><time>2022-11-13T12:48:31.0000000+00:00</time></trkpt><trkpt lat="38.98610325" lon="-0.51950265"><ele>183.0</ele><time>2022-11-13T12:48:32.0000000+00:00</time></trkpt><trkpt lat="38.98610693" lon="-0.51948806"><ele>183.2</ele><time>2022-11-13T12:48:33.0000000+00:00</time></trkpt><trkpt lat="38.98611054" lon="-0.51947658"><ele>183.2</ele><time>2022-11-13T12:48:34.0000000+00:00</time></trkpt><trkpt lat="38.98611431" lon="-0.51946283"><ele>183.4</ele><time>2022-11-13T12:48:35.0000000+00:00</time></trkpt><trkpt lat="38.98611892" lon="-0.51945579"><ele>183.4</ele><time>2022-11-13T12:48:36.0000000+00:00</time></trkpt><trkpt lat="38.98612076" lon="-0.51945102"><ele>183.4</ele><time>2022-11-13T12:48:37.0000000+00:00</time></trkpt><trkpt lat="38.98612596" lon="-0.51944205"><ele>183.6</ele><time>2022-11-13T12:48:38.0000000+00:00</time></trkpt><trkpt lat="38.98612797" lon="-0.51943484"><ele>183.6</ele><time>2022-11-13T12:48:39.0000000+00:00</time></trkpt><trkpt lat="38.98613384" lon="-0.51942671"><ele>183.6</ele><time>2022-11-13T12:48:40.0000000+00:00</time></trkpt><trkpt lat="38.98613778" lon="-0.51941724"><ele>183.6</ele><time>2022-11-13T12:48:41.0000000+00:00</time></trkpt><trkpt lat="38.98614013" lon="-0.51939787"><ele>183.6</ele><time>2022-11-13T12:48:42.0000000+00:00</time></trkpt><trkpt lat="38.98614792" lon="-0.51938103"><ele>183.6</ele><time>2022-11-13T12:48:43.0000000+00:00</time></trkpt><trkpt lat="38.98614792" lon="-0.51936586"><ele>183.8</ele><time>2022-11-13T12:48:44.0000000+00:00</time></trkpt><trkpt lat="38.98614876" lon="-0.51935261"><ele>183.8</ele><time>2022-11-13T12:48:45.0000000+00:00</time></trkpt><trkpt lat="38.98614675" lon="-0.51934339"><ele>183.8</ele><time>2022-11-13T12:48:46.0000000+00:00</time></trkpt><trkpt lat="38.9861434" lon="-0.51933032"><ele>183.8</ele><time>2022-11-13T12:48:47.0000000+00:00</time></trkpt><trkpt lat="38.98614675" lon="-0.51931707"><ele>183.8</ele><time>2022-11-13T12:48:48.0000000+00:00</time></trkpt><trkpt lat="38.98614692" lon="-0.51930224"><ele>183.8</ele><time>2022-11-13T12:48:49.0000000+00:00</time></trkpt><trkpt lat="38.98614449" lon="-0.51928723"><ele>183.8</ele><time>2022-11-13T12:48:50.0000000+00:00</time></trkpt><trkpt lat="38.9861413" lon="-0.51927122"><ele>183.8</ele><time>2022-11-13T12:48:51.0000000+00:00</time></trkpt><trkpt lat="38.98614289" lon="-0.51925924"><ele>183.8</ele><time>2022-11-13T12:48:52.0000000+00:00</time></trkpt><trkpt lat="38.98615144" lon="-0.51924708"><ele>183.8</ele><time>2022-11-13T12:48:53.0000000+00:00</time></trkpt><trkpt lat="38.98615421" lon="-0.51922797"><ele>183.8</ele><time>2022-11-13T12:48:54.0000000+00:00</time></trkpt><trkpt lat="38.98616058" lon="-0.51920995"><ele>183.8</ele><time>2022-11-13T12:48:55.0000000+00:00</time></trkpt><trkpt lat="38.98616393" lon="-0.51919126"><ele>183.8</ele><time>2022-11-13T12:48:56.0000000+00:00</time></trkpt><trkpt lat="38.98616351" lon="-0.51917684"><ele>183.8</ele><time>2022-11-13T12:48:57.0000000+00:00</time></trkpt><trkpt lat="38.98616351" lon="-0.51917089"><ele>183.8</ele><time>2022-11-13T12:48:58.0000000+00:00</time></trkpt><trkpt lat="38.98616452" lon="-0.51917014"><ele>183.8</ele><time>2022-11-13T12:48:59.0000000+00:00</time></trkpt><trkpt lat="38.98616552" lon="-0.51917081"><ele>183.8</ele><time>2022-11-13T12:49:00.0000000+00:00</time></trkpt><trkpt lat="38.98616561" lon="-0.51917131"><ele>183.8</ele><time>2022-11-13T12:49:01.0000000+00:00</time></trkpt><trkpt lat="38.98616519" lon="-0.5191719"><ele>183.8</ele><time>2022-11-13T12:49:02.0000000+00:00</time></trkpt><trkpt lat="38.98616443" lon="-0.51917274"><ele>183.8</ele><time>2022-11-13T12:49:03.0000000+00:00</time></trkpt><trkpt lat="38.9861641" lon="-0.51917307"><ele>183.8</ele><time>2022-11-13T12:49:04.0000000+00:00</time></trkpt><trkpt lat="38.98616376" lon="-0.51917232"><ele>183.8</ele><time>2022-11-13T12:49:05.0000000+00:00</time></trkpt><trkpt lat="38.98616326" lon="-0.51917123"><ele>183.8</ele><time>2022-11-13T12:49:06.0000000+00:00</time></trkpt><trkpt lat="38.98616267" lon="-0.51917081"><ele>183.8</ele><time>2022-11-13T12:49:07.0000000+00:00</time></trkpt><trkpt lat="38.98616209" lon="-0.51917081"><ele>183.8</ele><time>2022-11-13T12:49:08.0000000+00:00</time></trkpt><trkpt lat="38.98616158" lon="-0.51917022"><ele>183.8</ele><time>2022-11-13T12:49:09.0000000+00:00</time></trkpt><trkpt lat="38.98616158" lon="-0.51917022"><ele>183.8</ele><time>2022-11-13T12:49:10.0000000+00:00</time></trkpt><trkpt lat="38.98616158" lon="-0.51917022"><ele>183.8</ele><time>2022-11-13T12:49:11.0000000+00:00</time></trkpt><trkpt lat="38.98616158" lon="-0.51917022"><ele>183.8</ele><time>2022-11-13T12:49:12.0000000+00:00</time></trkpt><trkpt lat="38.98616158" lon="-0.51917022"><ele>183.8</ele><time>2022-11-13T12:49:13.0000000+00:00</time></trkpt><trkpt lat="38.98616158" lon="-0.51917022"><ele>183.8</ele><time>2022-11-13T12:49:14.0000000+00:00</time></trkpt><trkpt lat="38.98616158" lon="-0.51917022"><ele>184.0</ele><time>2022-11-13T12:49:15.0000000+00:00</time></trkpt><trkpt lat="38.98616158" lon="-0.51917022"><ele>184.0</ele><time>2022-11-13T12:49:16.0000000+00:00</time></trkpt><trkpt lat="38.98616158" lon="-0.51917022"><ele>184.0</ele><time>2022-11-13T12:49:17.0000000+00:00</time></trkpt><trkpt lat="38.98616167" lon="-0.51917022"><ele>184.0</ele><time>2022-11-13T12:49:18.0000000+00:00</time></trkpt><trkpt lat="38.98616167" lon="-0.51917022"><ele>184.0</ele><time>2022-11-13T12:49:19.0000000+00:00</time></trkpt><trkpt lat="38.98616175" lon="-0.51917022"><ele>184.0</ele><time>2022-11-13T12:49:20.0000000+00:00</time></trkpt><trkpt lat="38.98616175" lon="-0.51917022"><ele>184.0</ele><time>2022-11-13T12:49:21.0000000+00:00</time></trkpt><trkpt lat="38.98616175" lon="-0.51917022"><ele>184.0</ele><time>2022-11-13T12:49:22.0000000+00:00</time></trkpt><trkpt lat="38.98616175" lon="-0.51917022"><ele>184.0</ele><time>2022-11-13T12:49:23.0000000+00:00</time></trkpt><trkpt lat="38.98616192" lon="-0.51917022"><ele>184.0</ele><time>2022-11-13T12:49:24.0000000+00:00</time></trkpt><trkpt lat="38.98616209" lon="-0.51916989"><ele>184.0</ele><time>2022-11-13T12:49:25.0000000+00:00</time></trkpt><trkpt lat="38.98616209" lon="-0.51916989"><ele>184.0</ele><time>2022-11-13T12:49:26.0000000+00:00</time></trkpt><trkpt lat="38.98616209" lon="-0.51916989"><ele>184.0</ele><time>2022-11-13T12:49:27.0000000+00:00</time></trkpt><trkpt lat="38.98616209" lon="-0.51916989"><ele>184.0</ele><time>2022-11-13T12:49:28.0000000+00:00</time></trkpt><trkpt lat="38.98616209" lon="-0.51916989"><ele>184.0</ele><time>2022-11-13T12:49:29.0000000+00:00</time></trkpt><trkpt lat="38.98616209" lon="-0.51916989"><ele>184.0</ele><time>2022-11-13T12:49:30.0000000+00:00</time></trkpt><trkpt lat="38.98616209" lon="-0.51916989"><ele>184.0</ele><time>2022-11-13T12:49:31.0000000+00:00</time></trkpt><trkpt lat="38.98616209" lon="-0.51916989"><ele>184.0</ele><time>2022-11-13T12:49:32.0000000+00:00</time></trkpt><trkpt lat="38.98616209" lon="-0.51916972"><ele>184.0</ele><time>2022-11-13T12:49:33.0000000+00:00</time></trkpt><trkpt lat="38.98616209" lon="-0.51916963"><ele>184.0</ele><time>2022-11-13T12:49:34.0000000+00:00</time></trkpt><trkpt lat="38.98616544" lon="-0.51916578"><ele>184.0</ele><time>2022-11-13T12:49:35.0000000+00:00</time></trkpt><trkpt lat="38.98617231" lon="-0.51914935"><ele>184.2</ele><time>2022-11-13T12:49:36.0000000+00:00</time></trkpt><trkpt lat="38.98618002" lon="-0.51913292"><ele>184.4</ele><time>2022-11-13T12:49:37.0000000+00:00</time></trkpt><trkpt lat="38.98618447" lon="-0.519117"><ele>184.8</ele><time>2022-11-13T12:49:38.0000000+00:00</time></trkpt><trkpt lat="38.98619453" lon="-0.5190999"><ele>185.0</ele><time>2022-11-13T12:49:39.0000000+00:00</time></trkpt><trkpt lat="38.98620391" lon="-0.5190833"><ele>185.2</ele><time>2022-11-13T12:49:40.0000000+00:00</time></trkpt><trkpt lat="38.98621565" lon="-0.51906486"><ele>185.4</ele><time>2022-11-13T12:49:41.0000000+00:00</time></trkpt><trkpt lat="38.98622587" lon="-0.51904852"><ele>185.4</ele><time>2022-11-13T12:49:42.0000000+00:00</time></trkpt><trkpt lat="38.98623878" lon="-0.51903334"><ele>185.6</ele><time>2022-11-13T12:49:43.0000000+00:00</time></trkpt><trkpt lat="38.98624976" lon="-0.51901767"><ele>185.6</ele><time>2022-11-13T12:49:44.0000000+00:00</time></trkpt><trkpt lat="38.98625244" lon="-0.51900543"><ele>185.8</ele><time>2022-11-13T12:49:45.0000000+00:00</time></trkpt><trkpt lat="38.98625412" lon="-0.5189911"><ele>186.0</ele><time>2022-11-13T12:49:46.0000000+00:00</time></trkpt><trkpt lat="38.9862584" lon="-0.51897685"><ele>186.0</ele><time>2022-11-13T12:49:47.0000000+00:00</time></trkpt><trkpt lat="38.98626141" lon="-0.5189626"><ele>186.2</ele><time>2022-11-13T12:49:48.0000000+00:00</time></trkpt><trkpt lat="38.98626661" lon="-0.51895053"><ele>186.2</ele><time>2022-11-13T12:49:49.0000000+00:00</time></trkpt><trkpt lat="38.98627021" lon="-0.51893779"><ele>186.6</ele><time>2022-11-13T12:49:50.0000000+00:00</time></trkpt><trkpt lat="38.98627784" lon="-0.51892648"><ele>186.6</ele><time>2022-11-13T12:49:51.0000000+00:00</time></trkpt><trkpt lat="38.98628614" lon="-0.51891843"><ele>186.8</ele><time>2022-11-13T12:49:52.0000000+00:00</time></trkpt><trkpt lat="38.98628773" lon="-0.51890678"><ele>187.0</ele><time>2022-11-13T12:49:53.0000000+00:00</time></trkpt><trkpt lat="38.98628882" lon="-0.51889856"><ele>187.2</ele><time>2022-11-13T12:49:54.0000000+00:00</time></trkpt><trkpt lat="38.98629092" lon="-0.51888767"><ele>187.4</ele><time>2022-11-13T12:49:55.0000000+00:00</time></trkpt><trkpt lat="38.9862931" lon="-0.51887543"><ele>187.6</ele><time>2022-11-13T12:49:56.0000000+00:00</time></trkpt><trkpt lat="38.98629469" lon="-0.51886445"><ele>187.8</ele><time>2022-11-13T12:49:57.0000000+00:00</time></trkpt><trkpt lat="38.98629502" lon="-0.51885481"><ele>187.8</ele><time>2022-11-13T12:49:58.0000000+00:00</time></trkpt><trkpt lat="38.98629687" lon="-0.51884274"><ele>188.2</ele><time>2022-11-13T12:49:59.0000000+00:00</time></trkpt><trkpt lat="38.98629737" lon="-0.51882824"><ele>188.2</ele><time>2022-11-13T12:50:00.0000000+00:00</time></trkpt><trkpt lat="38.98629905" lon="-0.51881407"><ele>188.4</ele><time>2022-11-13T12:50:01.0000000+00:00</time></trkpt><trkpt lat="38.98629813" lon="-0.51880058"><ele>188.6</ele><time>2022-11-13T12:50:02.0000000+00:00</time></trkpt><trkpt lat="38.98629477" lon="-0.51878708"><ele>188.8</ele><time>2022-11-13T12:50:03.0000000+00:00</time></trkpt><trkpt lat="38.9862915" lon="-0.51877317"><ele>189.2</ele><time>2022-11-13T12:50:04.0000000+00:00</time></trkpt><trkpt lat="38.98628916" lon="-0.51876085"><ele>189.2</ele><time>2022-11-13T12:50:05.0000000+00:00</time></trkpt><trkpt lat="38.98629125" lon="-0.51875163"><ele>189.6</ele><time>2022-11-13T12:50:06.0000000+00:00</time></trkpt><trkpt lat="38.98629796" lon="-0.51874065"><ele>189.8</ele><time>2022-11-13T12:50:07.0000000+00:00</time></trkpt><trkpt lat="38.98629821" lon="-0.51872925"><ele>190.0</ele><time>2022-11-13T12:50:08.0000000+00:00</time></trkpt><trkpt lat="38.98629678" lon="-0.51871743"><ele>190.2</ele><time>2022-11-13T12:50:09.0000000+00:00</time></trkpt><trkpt lat="38.98629033" lon="-0.51870436"><ele>190.4</ele><time>2022-11-13T12:50:10.0000000+00:00</time></trkpt><trkpt lat="38.98628849" lon="-0.51869287"><ele>190.6</ele><time>2022-11-13T12:50:11.0000000+00:00</time></trkpt><trkpt lat="38.98628706" lon="-0.51867787"><ele>190.8</ele><time>2022-11-13T12:50:12.0000000+00:00</time></trkpt><trkpt lat="38.98627868" lon="-0.51866127"><ele>191.0</ele><time>2022-11-13T12:50:13.0000000+00:00</time></trkpt><trkpt lat="38.98627516" lon="-0.51864803"><ele>191.0</ele><time>2022-11-13T12:50:14.0000000+00:00</time></trkpt><trkpt lat="38.98627977" lon="-0.51863462"><ele>191.2</ele><time>2022-11-13T12:50:15.0000000+00:00</time></trkpt><trkpt lat="38.98628304" lon="-0.51862188"><ele>191.4</ele><time>2022-11-13T12:50:16.0000000+00:00</time></trkpt><trkpt lat="38.98628958" lon="-0.51860713"><ele>191.6</ele><time>2022-11-13T12:50:17.0000000+00:00</time></trkpt><trkpt lat="38.98629678" lon="-0.51859296"><ele>191.8</ele><time>2022-11-13T12:50:18.0000000+00:00</time></trkpt><trkpt lat="38.98630131" lon="-0.51857821"><ele>192.0</ele><time>2022-11-13T12:50:19.0000000+00:00</time></trkpt><trkpt lat="38.98630751" lon="-0.51856488"><ele>192.2</ele><time>2022-11-13T12:50:20.0000000+00:00</time></trkpt><trkpt lat="38.98631313" lon="-0.51855323"><ele>192.4</ele><time>2022-11-13T12:50:21.0000000+00:00</time></trkpt><trkpt lat="38.98631598" lon="-0.51853973"><ele>192.8</ele><time>2022-11-13T12:50:22.0000000+00:00</time></trkpt><trkpt lat="38.98632126" lon="-0.51852741"><ele>193.0</ele><time>2022-11-13T12:50:23.0000000+00:00</time></trkpt><trkpt lat="38.98632889" lon="-0.51851383"><ele>193.0</ele><time>2022-11-13T12:50:24.0000000+00:00</time></trkpt><trkpt lat="38.9863392" lon="-0.51850369"><ele>193.2</ele><time>2022-11-13T12:50:25.0000000+00:00</time></trkpt><trkpt lat="38.98634607" lon="-0.51849162"><ele>193.4</ele><time>2022-11-13T12:50:26.0000000+00:00</time></trkpt><trkpt lat="38.98635169" lon="-0.51848039"><ele>193.8</ele><time>2022-11-13T12:50:27.0000000+00:00</time></trkpt><trkpt lat="38.98635395" lon="-0.51846765"><ele>194.0</ele><time>2022-11-13T12:50:28.0000000+00:00</time></trkpt><trkpt lat="38.98635764" lon="-0.51845382"><ele>194.0</ele><time>2022-11-13T12:50:29.0000000+00:00</time></trkpt><trkpt lat="38.98636082" lon="-0.51844234"><ele>194.2</ele><time>2022-11-13T12:50:30.0000000+00:00</time></trkpt><trkpt lat="38.98636208" lon="-0.51843111"><ele>194.4</ele><time>2022-11-13T12:50:31.0000000+00:00</time></trkpt><trkpt lat="38.98636275" lon="-0.5184192"><ele>194.8</ele><time>2022-11-13T12:50:32.0000000+00:00</time></trkpt><trkpt lat="38.98636233" lon="-0.51840227"><ele>194.8</ele><time>2022-11-13T12:50:33.0000000+00:00</time></trkpt><trkpt lat="38.98636116" lon="-0.51838509"><ele>195.0</ele><time>2022-11-13T12:50:34.0000000+00:00</time></trkpt><trkpt lat="38.98635387" lon="-0.51837302"><ele>195.0</ele><time>2022-11-13T12:50:35.0000000+00:00</time></trkpt><trkpt lat="38.98634741" lon="-0.51836045"><ele>195.2</ele><time>2022-11-13T12:50:36.0000000+00:00</time></trkpt><trkpt lat="38.98634238" lon="-0.51834586"><ele>195.2</ele><time>2022-11-13T12:50:37.0000000+00:00</time></trkpt><trkpt lat="38.98634054" lon="-0.51833279"><ele>195.4</ele><time>2022-11-13T12:50:38.0000000+00:00</time></trkpt><trkpt lat="38.98634247" lon="-0.51831963"><ele>195.4</ele><time>2022-11-13T12:50:39.0000000+00:00</time></trkpt><trkpt lat="38.98634498" lon="-0.5183058"><ele>195.4</ele><time>2022-11-13T12:50:40.0000000+00:00</time></trkpt><trkpt lat="38.98634783" lon="-0.51829616"><ele>195.4</ele><time>2022-11-13T12:50:41.0000000+00:00</time></trkpt><trkpt lat="38.98635328" lon="-0.51828677"><ele>195.4</ele><time>2022-11-13T12:50:42.0000000+00:00</time></trkpt><trkpt lat="38.98635797" lon="-0.51827503"><ele>195.4</ele><time>2022-11-13T12:50:43.0000000+00:00</time></trkpt><trkpt lat="38.98636133" lon="-0.5182612"><ele>195.4</ele><time>2022-11-13T12:50:44.0000000+00:00</time></trkpt><trkpt lat="38.98636694" lon="-0.5182524"><ele>195.4</ele><time>2022-11-13T12:50:45.0000000+00:00</time></trkpt><trkpt lat="38.98637926" lon="-0.51824712"><ele>195.6</ele><time>2022-11-13T12:50:46.0000000+00:00</time></trkpt><trkpt lat="38.9863894" lon="-0.51824017"><ele>195.6</ele><time>2022-11-13T12:50:47.0000000+00:00</time></trkpt><trkpt lat="38.98639628" lon="-0.51823547"><ele>195.6</ele><time>2022-11-13T12:50:48.0000000+00:00</time></trkpt><trkpt lat="38.98639963" lon="-0.51823103"><ele>195.4</ele><time>2022-11-13T12:50:49.0000000+00:00</time></trkpt><trkpt lat="38.98640072" lon="-0.51822868"><ele>195.4</ele><time>2022-11-13T12:50:50.0000000+00:00</time></trkpt><trkpt lat="38.98640332" lon="-0.51822818"><ele>195.4</ele><time>2022-11-13T12:50:51.0000000+00:00</time></trkpt><trkpt lat="38.98640458" lon="-0.51822784"><ele>195.4</ele><time>2022-11-13T12:50:52.0000000+00:00</time></trkpt><trkpt lat="38.98640391" lon="-0.51822759"><ele>195.4</ele><time>2022-11-13T12:50:53.0000000+00:00</time></trkpt><trkpt lat="38.98640365" lon="-0.51822776"><ele>195.4</ele><time>2022-11-13T12:50:54.0000000+00:00</time></trkpt><trkpt lat="38.98640374" lon="-0.51822726"><ele>195.4</ele><time>2022-11-13T12:50:55.0000000+00:00</time></trkpt><trkpt lat="38.98640382" lon="-0.51822734"><ele>195.4</ele><time>2022-11-13T12:50:56.0000000+00:00</time></trkpt><trkpt lat="38.98640374" lon="-0.51822751"><ele>195.4</ele><time>2022-11-13T12:50:57.0000000+00:00</time></trkpt><trkpt lat="38.98640416" lon="-0.51822659"><ele>195.6</ele><time>2022-11-13T12:50:58.0000000+00:00</time></trkpt><trkpt lat="38.98640516" lon="-0.51822592"><ele>195.6</ele><time>2022-11-13T12:50:59.0000000+00:00</time></trkpt><trkpt lat="38.98640038" lon="-0.51823002"><ele>195.6</ele><time>2022-11-13T12:51:00.0000000+00:00</time></trkpt><trkpt lat="38.98639921" lon="-0.51822935"><ele>195.6</ele><time>2022-11-13T12:51:01.0000000+00:00</time></trkpt><trkpt lat="38.98639821" lon="-0.5182291"><ele>195.6</ele><time>2022-11-13T12:51:02.0000000+00:00</time></trkpt><trkpt lat="38.98639821" lon="-0.5182291"><ele>195.6</ele><time>2022-11-13T12:51:03.0000000+00:00</time></trkpt><trkpt lat="38.98639821" lon="-0.5182291"><ele>195.6</ele><time>2022-11-13T12:51:04.0000000+00:00</time></trkpt><trkpt lat="38.98639821" lon="-0.5182291"><ele>195.6</ele><time>2022-11-13T12:51:05.0000000+00:00</time></trkpt><trkpt lat="38.98639821" lon="-0.5182291"><ele>195.4</ele><time>2022-11-13T12:51:06.0000000+00:00</time></trkpt><trkpt lat="38.98639821" lon="-0.5182291"><ele>195.4</ele><time>2022-11-13T12:51:07.0000000+00:00</time></trkpt><trkpt lat="38.98639821" lon="-0.5182291"><ele>195.4</ele><time>2022-11-13T12:51:08.0000000+00:00</time></trkpt><trkpt lat="38.98639821" lon="-0.5182291"><ele>195.4</ele><time>2022-11-13T12:51:09.0000000+00:00</time></trkpt><trkpt lat="38.98639821" lon="-0.5182291"><ele>195.4</ele><time>2022-11-13T12:51:10.0000000+00:00</time></trkpt><trkpt lat="38.98639821" lon="-0.5182291"><ele>195.4</ele><time>2022-11-13T12:51:11.0000000+00:00</time></trkpt><trkpt lat="38.98639821" lon="-0.5182291"><ele>195.4</ele><time>2022-11-13T12:51:12.0000000+00:00</time></trkpt><trkpt lat="38.98639821" lon="-0.5182291"><ele>195.4</ele><time>2022-11-13T12:51:13.0000000+00:00</time></trkpt><trkpt lat="38.98639821" lon="-0.5182291"><ele>195.4</ele><time>2022-11-13T12:51:14.0000000+00:00</time></trkpt><trkpt lat="38.98639393" lon="-0.51822994"><ele>195.4</ele><time>2022-11-13T12:51:15.0000000+00:00</time></trkpt><trkpt lat="38.98638027" lon="-0.51822407"><ele>195.4</ele><time>2022-11-13T12:51:16.0000000+00:00</time></trkpt><trkpt lat="38.98636577" lon="-0.51822248"><ele>195.4</ele><time>2022-11-13T12:51:17.0000000+00:00</time></trkpt><trkpt lat="38.98635412" lon="-0.51822122"><ele>195.4</ele><time>2022-11-13T12:51:18.0000000+00:00</time></trkpt><trkpt lat="38.98634347" lon="-0.51821846"><ele>195.4</ele><time>2022-11-13T12:51:19.0000000+00:00</time></trkpt><trkpt lat="38.98633241" lon="-0.51821795"><ele>195.4</ele><time>2022-11-13T12:51:20.0000000+00:00</time></trkpt><trkpt lat="38.98632327" lon="-0.51821795"><ele>195.4</ele><time>2022-11-13T12:51:21.0000000+00:00</time></trkpt><trkpt lat="38.98631489" lon="-0.51821896"><ele>195.4</ele><time>2022-11-13T12:51:22.0000000+00:00</time></trkpt><trkpt lat="38.98630869" lon="-0.51822013"><ele>195.4</ele><time>2022-11-13T12:51:23.0000000+00:00</time></trkpt><trkpt lat="38.98630424" lon="-0.51822273"><ele>195.6</ele><time>2022-11-13T12:51:24.0000000+00:00</time></trkpt><trkpt lat="38.98630441" lon="-0.5182229"><ele>195.6</ele><time>2022-11-13T12:51:25.0000000+00:00</time></trkpt><trkpt lat="38.98630424" lon="-0.51822332"><ele>195.4</ele><time>2022-11-13T12:51:26.0000000+00:00</time></trkpt><trkpt lat="38.98630366" lon="-0.51822374"><ele>195.4</ele><time>2022-11-13T12:51:27.0000000+00:00</time></trkpt><trkpt lat="38.98630341" lon="-0.51822382"><ele>195.4</ele><time>2022-11-13T12:51:28.0000000+00:00</time></trkpt><trkpt lat="38.98630265" lon="-0.51822466"><ele>195.4</ele><time>2022-11-13T12:51:29.0000000+00:00</time></trkpt><trkpt lat="38.98629796" lon="-0.51822458"><ele>195.4</ele><time>2022-11-13T12:51:30.0000000+00:00</time></trkpt><trkpt lat="38.98629125" lon="-0.51822072"><ele>195.4</ele><time>2022-11-13T12:51:31.0000000+00:00</time></trkpt><trkpt lat="38.98628731" lon="-0.51821359"><ele>195.4</ele><time>2022-11-13T12:51:32.0000000+00:00</time></trkpt><trkpt lat="38.98628161" lon="-0.5182063"><ele>195.4</ele><time>2022-11-13T12:51:33.0000000+00:00</time></trkpt><trkpt lat="38.98627969" lon="-0.51820194"><ele>195.4</ele><time>2022-11-13T12:51:34.0000000+00:00</time></trkpt><trkpt lat="38.98627985" lon="-0.51820379"><ele>195.4</ele><time>2022-11-13T12:51:35.0000000+00:00</time></trkpt><trkpt lat="38.98627985" lon="-0.51820379"><ele>195.4</ele><time>2022-11-13T12:51:36.0000000+00:00</time></trkpt><trkpt lat="38.98627985" lon="-0.51820379"><ele>195.6</ele><time>2022-11-13T12:51:37.0000000+00:00</time></trkpt><trkpt lat="38.98627985" lon="-0.51820379"><ele>195.6</ele><time>2022-11-13T12:51:38.0000000+00:00</time></trkpt><trkpt lat="38.98627985" lon="-0.51820379"><ele>195.6</ele><time>2022-11-13T12:51:39.0000000+00:00</time></trkpt><trkpt lat="38.98627985" lon="-0.51820379"><ele>195.6</ele><time>2022-11-13T12:51:40.0000000+00:00</time></trkpt><trkpt lat="38.98627985" lon="-0.51820379"><ele>195.6</ele><time>2022-11-13T12:51:41.0000000+00:00</time></trkpt><trkpt lat="38.98627985" lon="-0.51820379"><ele>195.6</ele><time>2022-11-13T12:51:42.0000000+00:00</time></trkpt><trkpt lat="38.98627985" lon="-0.51820379"><ele>195.6</ele><time>2022-11-13T12:51:43.0000000+00:00</time></trkpt><trkpt lat="38.98628044" lon="-0.51820379"><ele>195.6</ele><time>2022-11-13T12:51:44.0000000+00:00</time></trkpt><trkpt lat="38.98628052" lon="-0.51820379"><ele>195.6</ele><time>2022-11-13T12:51:45.0000000+00:00</time></trkpt><trkpt lat="38.98628069" lon="-0.51820379"><ele>195.6</ele><time>2022-11-13T12:51:46.0000000+00:00</time></trkpt><trkpt lat="38.98628069" lon="-0.51820379"><ele>195.6</ele><time>2022-11-13T12:51:47.0000000+00:00</time></trkpt><trkpt lat="38.98628086" lon="-0.51820379"><ele>195.6</ele><time>2022-11-13T12:51:48.0000000+00:00</time></trkpt><trkpt lat="38.98628094" lon="-0.51820379"><ele>195.6</ele><time>2022-11-13T12:51:49.0000000+00:00</time></trkpt><trkpt lat="38.98628103" lon="-0.51820379"><ele>195.8</ele><time>2022-11-13T12:51:50.0000000+00:00</time></trkpt><trkpt lat="38.98628128" lon="-0.51820379"><ele>195.8</ele><time>2022-11-13T12:51:51.0000000+00:00</time></trkpt><trkpt lat="38.98628153" lon="-0.51820379"><ele>195.6</ele><time>2022-11-13T12:51:52.0000000+00:00</time></trkpt><trkpt lat="38.98628279" lon="-0.5182037"><ele>195.6</ele><time>2022-11-13T12:51:53.0000000+00:00</time></trkpt><trkpt lat="38.98628354" lon="-0.51820354"><ele>195.6</ele><time>2022-11-13T12:51:54.0000000+00:00</time></trkpt><trkpt lat="38.9862843" lon="-0.51820211"><ele>195.6</ele><time>2022-11-13T12:51:55.0000000+00:00</time></trkpt><trkpt lat="38.98628664" lon="-0.51820102"><ele>195.6</ele><time>2022-11-13T12:51:56.0000000+00:00</time></trkpt><trkpt lat="38.98628689" lon="-0.51819985"><ele>195.6</ele><time>2022-11-13T12:51:57.0000000+00:00</time></trkpt><trkpt lat="38.98628689" lon="-0.51819809"><ele>195.6</ele><time>2022-11-13T12:51:58.0000000+00:00</time></trkpt><trkpt lat="38.98628689" lon="-0.51819767"><ele>195.6</ele><time>2022-11-13T12:51:59.0000000+00:00</time></trkpt><trkpt lat="38.98628689" lon="-0.51819742"><ele>195.8</ele><time>2022-11-13T12:52:00.0000000+00:00</time></trkpt><trkpt lat="38.98628689" lon="-0.51819691"><ele>195.2</ele><time>2022-11-13T12:52:01.0000000+00:00</time></trkpt><trkpt lat="38.98628689" lon="-0.51819675"><ele>195.2</ele><time>2022-11-13T12:52:02.0000000+00:00</time></trkpt><trkpt lat="38.98628966" lon="-0.51819524"><ele>195.2</ele><time>2022-11-13T12:52:03.0000000+00:00</time></trkpt><trkpt lat="38.98629377" lon="-0.51819365"><ele>195.2</ele><time>2022-11-13T12:52:04.0000000+00:00</time></trkpt><trkpt lat="38.9863019" lon="-0.51819222"><ele>195.2</ele><time>2022-11-13T12:52:05.0000000+00:00</time></trkpt><trkpt lat="38.98630927" lon="-0.51819088"><ele>195.2</ele><time>2022-11-13T12:52:06.0000000+00:00</time></trkpt><trkpt lat="38.98631682" lon="-0.51818828"><ele>195.2</ele><time>2022-11-13T12:52:07.0000000+00:00</time></trkpt><trkpt lat="38.98631883" lon="-0.51818786"><ele>195.2</ele><time>2022-11-13T12:52:08.0000000+00:00</time></trkpt><trkpt lat="38.98631925" lon="-0.51818778"><ele>195.2</ele><time>2022-11-13T12:52:09.0000000+00:00</time></trkpt><trkpt lat="38.98631942" lon="-0.51818778"><ele>195.2</ele><time>2022-11-13T12:52:10.0000000+00:00</time></trkpt><trkpt lat="38.98632009" lon="-0.51818778"><ele>195.2</ele><time>2022-11-13T12:52:11.0000000+00:00</time></trkpt><trkpt lat="38.98632143" lon="-0.51818778"><ele>195.2</ele><time>2022-11-13T12:52:12.0000000+00:00</time></trkpt><trkpt lat="38.98632185" lon="-0.51818702"><ele>195.2</ele><time>2022-11-13T12:52:13.0000000+00:00</time></trkpt><trkpt lat="38.98632336" lon="-0.51818686"><ele>195.2</ele><time>2022-11-13T12:52:14.0000000+00:00</time></trkpt><trkpt lat="38.98632369" lon="-0.51818677"><ele>195.2</ele><time>2022-11-13T12:52:15.0000000+00:00</time></trkpt><trkpt lat="38.98632369" lon="-0.51818661"><ele>195.2</ele><time>2022-11-13T12:52:16.0000000+00:00</time></trkpt><trkpt lat="38.98632369" lon="-0.5181861"><ele>195.2</ele><time>2022-11-13T12:52:17.0000000+00:00</time></trkpt><trkpt lat="38.98632" lon="-0.51818317"><ele>195.2</ele><time>2022-11-13T12:52:18.0000000+00:00</time></trkpt><trkpt lat="38.98631053" lon="-0.51816942"><ele>195.2</ele><time>2022-11-13T12:52:19.0000000+00:00</time></trkpt><trkpt lat="38.98630307" lon="-0.51815936"><ele>195.2</ele><time>2022-11-13T12:52:20.0000000+00:00</time></trkpt><trkpt lat="38.98629603" lon="-0.51814545"><ele>195.2</ele><time>2022-11-13T12:52:21.0000000+00:00</time></trkpt><trkpt lat="38.98628589" lon="-0.51813154"><ele>195.2</ele><time>2022-11-13T12:52:22.0000000+00:00</time></trkpt><trkpt lat="38.98628052" lon="-0.51811921"><ele>195.2</ele><time>2022-11-13T12:52:23.0000000+00:00</time></trkpt><trkpt lat="38.98627549" lon="-0.51811159"><ele>195.2</ele><time>2022-11-13T12:52:24.0000000+00:00</time></trkpt><trkpt lat="38.98627055" lon="-0.51810564"><ele>195.2</ele><time>2022-11-13T12:52:25.0000000+00:00</time></trkpt><trkpt lat="38.98626141" lon="-0.5180965"><ele>195.2</ele><time>2022-11-13T12:52:26.0000000+00:00</time></trkpt><trkpt lat="38.98625043" lon="-0.51808803"><ele>195.2</ele><time>2022-11-13T12:52:27.0000000+00:00</time></trkpt><trkpt lat="38.98624155" lon="-0.51807915"><ele>195.2</ele><time>2022-11-13T12:52:28.0000000+00:00</time></trkpt><trkpt lat="38.98623769" lon="-0.51807345"><ele>195.0</ele><time>2022-11-13T12:52:29.0000000+00:00</time></trkpt><trkpt lat="38.98623233" lon="-0.51806917"><ele>194.8</ele><time>2022-11-13T12:52:30.0000000+00:00</time></trkpt><trkpt lat="38.98622663" lon="-0.51806398"><ele>194.6</ele><time>2022-11-13T12:52:31.0000000+00:00</time></trkpt><trkpt lat="38.98622177" lon="-0.5180587"><ele>194.4</ele><time>2022-11-13T12:52:32.0000000+00:00</time></trkpt><trkpt lat="38.98621883" lon="-0.51805208"><ele>194.4</ele><time>2022-11-13T12:52:33.0000000+00:00</time></trkpt><trkpt lat="38.98621615" lon="-0.51804344"><ele>194.2</ele><time>2022-11-13T12:52:34.0000000+00:00</time></trkpt><trkpt lat="38.98621137" lon="-0.51803473"><ele>194.2</ele><time>2022-11-13T12:52:35.0000000+00:00</time></trkpt><trkpt lat="38.98620291" lon="-0.51802324"><ele>194.0</ele><time>2022-11-13T12:52:36.0000000+00:00</time></trkpt><trkpt lat="38.98619687" lon="-0.51801427"><ele>193.8</ele><time>2022-11-13T12:52:37.0000000+00:00</time></trkpt><trkpt lat="38.98618899" lon="-0.51800329"><ele>193.6</ele><time>2022-11-13T12:52:38.0000000+00:00</time></trkpt><trkpt lat="38.98618388" lon="-0.51799533"><ele>193.4</ele><time>2022-11-13T12:52:39.0000000+00:00</time></trkpt><trkpt lat="38.98617717" lon="-0.51798485"><ele>193.4</ele><time>2022-11-13T12:52:40.0000000+00:00</time></trkpt><trkpt lat="38.98616988" lon="-0.51797446"><ele>193.2</ele><time>2022-11-13T12:52:41.0000000+00:00</time></trkpt><trkpt lat="38.98616066" lon="-0.51796306"><ele>193.0</ele><time>2022-11-13T12:52:42.0000000+00:00</time></trkpt><trkpt lat="38.98614775" lon="-0.51795661"><ele>193.0</ele><time>2022-11-13T12:52:43.0000000+00:00</time></trkpt><trkpt lat="38.98613493" lon="-0.51795074"><ele>193.0</ele><time>2022-11-13T12:52:44.0000000+00:00</time></trkpt><trkpt lat="38.98612504" lon="-0.51794554"><ele>192.8</ele><time>2022-11-13T12:52:45.0000000+00:00</time></trkpt><trkpt lat="38.98611381" lon="-0.51794152"><ele>192.8</ele><time>2022-11-13T12:52:46.0000000+00:00</time></trkpt><trkpt lat="38.98610375" lon="-0.51793674"><ele>192.6</ele><time>2022-11-13T12:52:47.0000000+00:00</time></trkpt><trkpt lat="38.98609629" lon="-0.51793364"><ele>192.6</ele><time>2022-11-13T12:52:48.0000000+00:00</time></trkpt><trkpt lat="38.98609151" lon="-0.51793381"><ele>192.4</ele><time>2022-11-13T12:52:49.0000000+00:00</time></trkpt><trkpt lat="38.986089" lon="-0.51793414"><ele>192.2</ele><time>2022-11-13T12:52:50.0000000+00:00</time></trkpt><trkpt lat="38.98608682" lon="-0.51793439"><ele>192.2</ele><time>2022-11-13T12:52:51.0000000+00:00</time></trkpt><trkpt lat="38.98608539" lon="-0.51793465"><ele>192.2</ele><time>2022-11-13T12:52:52.0000000+00:00</time></trkpt><trkpt lat="38.98608439" lon="-0.51793372"><ele>192.2</ele><time>2022-11-13T12:52:53.0000000+00:00</time></trkpt><trkpt lat="38.98608414" lon="-0.51793247"><ele>192.2</ele><time>2022-11-13T12:52:54.0000000+00:00</time></trkpt><trkpt lat="38.98608422" lon="-0.51793054"><ele>192.2</ele><time>2022-11-13T12:52:55.0000000+00:00</time></trkpt><trkpt lat="38.9860843" lon="-0.51792953"><ele>192.2</ele><time>2022-11-13T12:52:56.0000000+00:00</time></trkpt><trkpt lat="38.9860843" lon="-0.5179302"><ele>192.2</ele><time>2022-11-13T12:52:57.0000000+00:00</time></trkpt><trkpt lat="38.98608238" lon="-0.51793004"><ele>192.2</ele><time>2022-11-13T12:52:58.0000000+00:00</time></trkpt><trkpt lat="38.98607743" lon="-0.5179271"><ele>192.2</ele><time>2022-11-13T12:52:59.0000000+00:00</time></trkpt><trkpt lat="38.98607173" lon="-0.51792258"><ele>192.2</ele><time>2022-11-13T12:53:00.0000000+00:00</time></trkpt><trkpt lat="38.98606494" lon="-0.51791805"><ele>192.0</ele><time>2022-11-13T12:53:01.0000000+00:00</time></trkpt><trkpt lat="38.98605522" lon="-0.5179152"><ele>191.8</ele><time>2022-11-13T12:53:02.0000000+00:00</time></trkpt><trkpt lat="38.98604449" lon="-0.51791704"><ele>191.8</ele><time>2022-11-13T12:53:03.0000000+00:00</time></trkpt><trkpt lat="38.98603711" lon="-0.51791922"><ele>191.6</ele><time>2022-11-13T12:53:04.0000000+00:00</time></trkpt><trkpt lat="38.98603183" lon="-0.51792174"><ele>191.4</ele><time>2022-11-13T12:53:05.0000000+00:00</time></trkpt><trkpt lat="38.98602705" lon="-0.51792241"><ele>191.2</ele><time>2022-11-13T12:53:06.0000000+00:00</time></trkpt><trkpt lat="38.9860227" lon="-0.51792895"><ele>191.0</ele><time>2022-11-13T12:53:07.0000000+00:00</time></trkpt><trkpt lat="38.98601499" lon="-0.51793121"><ele>190.8</ele><time>2022-11-13T12:53:08.0000000+00:00</time></trkpt><trkpt lat="38.98600635" lon="-0.51792727"><ele>190.8</ele><time>2022-11-13T12:53:09.0000000+00:00</time></trkpt><trkpt lat="38.98600099" lon="-0.5179276"><ele>190.6</ele><time>2022-11-13T12:53:10.0000000+00:00</time></trkpt><trkpt lat="38.98600015" lon="-0.51792274"><ele>190.4</ele><time>2022-11-13T12:53:11.0000000+00:00</time></trkpt><trkpt lat="38.98599965" lon="-0.51791403"><ele>190.2</ele><time>2022-11-13T12:53:12.0000000+00:00</time></trkpt><trkpt lat="38.98600367" lon="-0.51790078"><ele>190.0</ele><time>2022-11-13T12:53:13.0000000+00:00</time></trkpt><trkpt lat="38.98600945" lon="-0.51788871"><ele>190.0</ele><time>2022-11-13T12:53:14.0000000+00:00</time></trkpt><trkpt lat="38.98601524" lon="-0.51788083"><ele>190.0</ele><time>2022-11-13T12:53:15.0000000+00:00</time></trkpt><trkpt lat="38.98601859" lon="-0.5178784"><ele>189.8</ele><time>2022-11-13T12:53:16.0000000+00:00</time></trkpt><trkpt lat="38.98602764" lon="-0.51787329"><ele>189.8</ele><time>2022-11-13T12:53:17.0000000+00:00</time></trkpt><trkpt lat="38.9860382" lon="-0.51787044"><ele>190.0</ele><time>2022-11-13T12:53:18.0000000+00:00</time></trkpt><trkpt lat="38.98604801" lon="-0.51786709"><ele>190.0</ele><time>2022-11-13T12:53:19.0000000+00:00</time></trkpt><trkpt lat="38.98605597" lon="-0.51786415"><ele>190.0</ele><time>2022-11-13T12:53:20.0000000+00:00</time></trkpt><trkpt lat="38.98606595" lon="-0.51785921"><ele>190.0</ele><time>2022-11-13T12:53:21.0000000+00:00</time></trkpt><trkpt lat="38.98607207" lon="-0.51784814"><ele>190.0</ele><time>2022-11-13T12:53:22.0000000+00:00</time></trkpt><trkpt lat="38.98607441" lon="-0.5178411"><ele>189.8</ele><time>2022-11-13T12:53:23.0000000+00:00</time></trkpt><trkpt lat="38.98607961" lon="-0.51783582"><ele>189.8</ele><time>2022-11-13T12:53:24.0000000+00:00</time></trkpt><trkpt lat="38.98608506" lon="-0.51782828"><ele>189.4</ele><time>2022-11-13T12:53:25.0000000+00:00</time></trkpt><trkpt lat="38.98609034" lon="-0.51781596"><ele>189.4</ele><time>2022-11-13T12:53:26.0000000+00:00</time></trkpt><trkpt lat="38.98609252" lon="-0.51780506"><ele>189.2</ele><time>2022-11-13T12:53:27.0000000+00:00</time></trkpt><trkpt lat="38.98609587" lon="-0.51779098"><ele>189.0</ele><time>2022-11-13T12:53:28.0000000+00:00</time></trkpt><trkpt lat="38.98610073" lon="-0.51777983"><ele>189.0</ele><time>2022-11-13T12:53:29.0000000+00:00</time></trkpt><trkpt lat="38.986103" lon="-0.51777313"><ele>189.0</ele><time>2022-11-13T12:53:30.0000000+00:00</time></trkpt><trkpt lat="38.98610408" lon="-0.51777103"><ele>188.8</ele><time>2022-11-13T12:53:31.0000000+00:00</time></trkpt><trkpt lat="38.98610509" lon="-0.51777044"><ele>188.8</ele><time>2022-11-13T12:53:32.0000000+00:00</time></trkpt><trkpt lat="38.98610442" lon="-0.51777095"><ele>188.8</ele><time>2022-11-13T12:53:33.0000000+00:00</time></trkpt><trkpt lat="38.98610383" lon="-0.51777111"><ele>188.8</ele><time>2022-11-13T12:53:34.0000000+00:00</time></trkpt><trkpt lat="38.986104" lon="-0.51777095"><ele>188.8</ele><time>2022-11-13T12:53:35.0000000+00:00</time></trkpt><trkpt lat="38.98610375" lon="-0.51777095"><ele>188.8</ele><time>2022-11-13T12:53:36.0000000+00:00</time></trkpt><trkpt lat="38.98610341" lon="-0.51777028"><ele>188.8</ele><time>2022-11-13T12:53:37.0000000+00:00</time></trkpt><trkpt lat="38.9861035" lon="-0.51776902"><ele>188.8</ele><time>2022-11-13T12:53:38.0000000+00:00</time></trkpt><trkpt lat="38.98610383" lon="-0.51776759"><ele>188.8</ele><time>2022-11-13T12:53:39.0000000+00:00</time></trkpt><trkpt lat="38.98610417" lon="-0.5177665"><ele>188.8</ele><time>2022-11-13T12:53:40.0000000+00:00</time></trkpt><trkpt lat="38.98610442" lon="-0.517766"><ele>188.8</ele><time>2022-11-13T12:53:41.0000000+00:00</time></trkpt><trkpt lat="38.98610442" lon="-0.517766"><ele>188.8</ele><time>2022-11-13T12:53:42.0000000+00:00</time></trkpt><trkpt lat="38.98610442" lon="-0.517766"><ele>188.8</ele><time>2022-11-13T12:53:43.0000000+00:00</time></trkpt><trkpt lat="38.98610442" lon="-0.517766"><ele>188.8</ele><time>2022-11-13T12:53:44.0000000+00:00</time></trkpt><trkpt lat="38.98610442" lon="-0.517766"><ele>188.8</ele><time>2022-11-13T12:53:45.0000000+00:00</time></trkpt><trkpt lat="38.98610442" lon="-0.517766"><ele>188.8</ele><time>2022-11-13T12:53:46.0000000+00:00</time></trkpt><trkpt lat="38.98610442" lon="-0.517766"><ele>188.8</ele><time>2022-11-13T12:53:47.0000000+00:00</time></trkpt><trkpt lat="38.98610442" lon="-0.517766"><ele>188.8</ele><time>2022-11-13T12:53:48.0000000+00:00</time></trkpt><trkpt lat="38.98610442" lon="-0.517766"><ele>188.6</ele><time>2022-11-13T12:53:49.0000000+00:00</time></trkpt><trkpt lat="38.98610442" lon="-0.517766"><ele>188.6</ele><time>2022-11-13T12:53:50.0000000+00:00</time></trkpt><trkpt lat="38.98610417" lon="-0.517766"><ele>188.6</ele><time>2022-11-13T12:53:51.0000000+00:00</time></trkpt><trkpt lat="38.986104" lon="-0.517766"><ele>188.6</ele><time>2022-11-13T12:53:52.0000000+00:00</time></trkpt><trkpt lat="38.98610383" lon="-0.517766"><ele>188.6</ele><time>2022-11-13T12:53:53.0000000+00:00</time></trkpt><trkpt lat="38.98610383" lon="-0.5177665"><ele>188.6</ele><time>2022-11-13T12:53:54.0000000+00:00</time></trkpt><trkpt lat="38.98610383" lon="-0.51776751"><ele>188.6</ele><time>2022-11-13T12:53:55.0000000+00:00</time></trkpt><trkpt lat="38.98610375" lon="-0.51776785"><ele>188.6</ele><time>2022-11-13T12:53:56.0000000+00:00</time></trkpt><trkpt lat="38.9861035" lon="-0.51776801"><ele>188.6</ele><time>2022-11-13T12:53:57.0000000+00:00</time></trkpt><trkpt lat="38.98610341" lon="-0.51776835"><ele>188.6</ele><time>2022-11-13T12:53:58.0000000+00:00</time></trkpt><trkpt lat="38.98610308" lon="-0.51776852"><ele>188.6</ele><time>2022-11-13T12:53:59.0000000+00:00</time></trkpt><trkpt lat="38.98610241" lon="-0.5177686"><ele>188.6</ele><time>2022-11-13T12:54:00.0000000+00:00</time></trkpt><trkpt lat="38.98610232" lon="-0.51776868"><ele>188.8</ele><time>2022-11-13T12:54:01.0000000+00:00</time></trkpt><trkpt lat="38.98610048" lon="-0.51776893"><ele>188.8</ele><time>2022-11-13T12:54:02.0000000+00:00</time></trkpt><trkpt lat="38.98610023" lon="-0.51776893"><ele>188.8</ele><time>2022-11-13T12:54:03.0000000+00:00</time></trkpt><trkpt lat="38.98609956" lon="-0.51776893"><ele>188.8</ele><time>2022-11-13T12:54:04.0000000+00:00</time></trkpt><trkpt lat="38.98609939" lon="-0.51776893"><ele>188.8</ele><time>2022-11-13T12:54:05.0000000+00:00</time></trkpt><trkpt lat="38.98609931" lon="-0.51776893"><ele>188.8</ele><time>2022-11-13T12:54:06.0000000+00:00</time></trkpt><trkpt lat="38.98609914" lon="-0.51776877"><ele>188.8</ele><time>2022-11-13T12:54:07.0000000+00:00</time></trkpt><trkpt lat="38.98609914" lon="-0.5177686"><ele>188.8</ele><time>2022-11-13T12:54:08.0000000+00:00</time></trkpt><trkpt lat="38.98609889" lon="-0.5177686"><ele>188.8</ele><time>2022-11-13T12:54:09.0000000+00:00</time></trkpt><trkpt lat="38.98609838" lon="-0.5177686"><ele>188.8</ele><time>2022-11-13T12:54:10.0000000+00:00</time></trkpt><trkpt lat="38.9860983" lon="-0.5177686"><ele>188.8</ele><time>2022-11-13T12:54:11.0000000+00:00</time></trkpt><trkpt lat="38.9860978" lon="-0.5177686"><ele>188.8</ele><time>2022-11-13T12:54:12.0000000+00:00</time></trkpt><trkpt lat="38.98609755" lon="-0.5177686"><ele>188.8</ele><time>2022-11-13T12:54:13.0000000+00:00</time></trkpt><trkpt lat="38.98609713" lon="-0.5177686"><ele>188.8</ele><time>2022-11-13T12:54:14.0000000+00:00</time></trkpt><trkpt lat="38.98609503" lon="-0.5177686"><ele>188.8</ele><time>2022-11-13T12:54:15.0000000+00:00</time></trkpt><trkpt lat="38.98609453" lon="-0.5177686"><ele>188.8</ele><time>2022-11-13T12:54:16.0000000+00:00</time></trkpt><trkpt lat="38.98609327" lon="-0.5177686"><ele>189.0</ele><time>2022-11-13T12:54:17.0000000+00:00</time></trkpt><trkpt lat="38.98609134" lon="-0.51776852"><ele>188.8</ele><time>2022-11-13T12:54:18.0000000+00:00</time></trkpt><trkpt lat="38.98608967" lon="-0.51776843"><ele>188.8</ele><time>2022-11-13T12:54:19.0000000+00:00</time></trkpt><trkpt lat="38.98608908" lon="-0.51776835"><ele>188.8</ele><time>2022-11-13T12:54:20.0000000+00:00</time></trkpt><trkpt lat="38.98608891" lon="-0.51776835"><ele>188.8</ele><time>2022-11-13T12:54:21.0000000+00:00</time></trkpt><trkpt lat="38.98608883" lon="-0.51776793"><ele>188.8</ele><time>2022-11-13T12:54:22.0000000+00:00</time></trkpt><trkpt lat="38.98608875" lon="-0.51776768"><ele>188.8</ele><time>2022-11-13T12:54:23.0000000+00:00</time></trkpt><trkpt lat="38.98608849" lon="-0.51776759"><ele>188.8</ele><time>2022-11-13T12:54:24.0000000+00:00</time></trkpt><trkpt lat="38.98608816" lon="-0.51776743"><ele>188.8</ele><time>2022-11-13T12:54:25.0000000+00:00</time></trkpt><trkpt lat="38.98608799" lon="-0.51776726"><ele>188.8</ele><time>2022-11-13T12:54:26.0000000+00:00</time></trkpt><trkpt lat="38.98608791" lon="-0.51776709"><ele>188.8</ele><time>2022-11-13T12:54:27.0000000+00:00</time></trkpt><trkpt lat="38.98608782" lon="-0.51776684"><ele>188.8</ele><time>2022-11-13T12:54:28.0000000+00:00</time></trkpt><trkpt lat="38.98608774" lon="-0.51776684"><ele>188.8</ele><time>2022-11-13T12:54:29.0000000+00:00</time></trkpt><trkpt lat="38.98608757" lon="-0.51776642"><ele>188.8</ele><time>2022-11-13T12:54:30.0000000+00:00</time></trkpt><trkpt lat="38.98608749" lon="-0.51776567"><ele>188.8</ele><time>2022-11-13T12:54:31.0000000+00:00</time></trkpt><trkpt lat="38.9860874" lon="-0.51776541"><ele>188.8</ele><time>2022-11-13T12:54:32.0000000+00:00</time></trkpt><trkpt lat="38.98608715" lon="-0.51776533"><ele>188.8</ele><time>2022-11-13T12:54:33.0000000+00:00</time></trkpt><trkpt lat="38.98608673" lon="-0.51776525"><ele>188.8</ele><time>2022-11-13T12:54:34.0000000+00:00</time></trkpt><trkpt lat="38.98608615" lon="-0.51776516"><ele>188.8</ele><time>2022-11-13T12:54:35.0000000+00:00</time></trkpt><trkpt lat="38.98608472" lon="-0.51776508"><ele>188.8</ele><time>2022-11-13T12:54:36.0000000+00:00</time></trkpt><trkpt lat="38.9860843" lon="-0.51776491"><ele>188.8</ele><time>2022-11-13T12:54:37.0000000+00:00</time></trkpt><trkpt lat="38.98608422" lon="-0.51776483"><ele>188.8</ele><time>2022-11-13T12:54:38.0000000+00:00</time></trkpt><trkpt lat="38.98608422" lon="-0.51776474"><ele>188.8</ele><time>2022-11-13T12:54:39.0000000+00:00</time></trkpt><trkpt lat="38.98608422" lon="-0.51776349"><ele>188.8</ele><time>2022-11-13T12:54:40.0000000+00:00</time></trkpt><trkpt lat="38.98608422" lon="-0.51776256"><ele>188.8</ele><time>2022-11-13T12:54:41.0000000+00:00</time></trkpt><trkpt lat="38.98608422" lon="-0.51776231"><ele>188.8</ele><time>2022-11-13T12:54:42.0000000+00:00</time></trkpt><trkpt lat="38.98608422" lon="-0.51776223"><ele>188.8</ele><time>2022-11-13T12:54:43.0000000+00:00</time></trkpt><trkpt lat="38.98608422" lon="-0.51776223"><ele>188.8</ele><time>2022-11-13T12:54:44.0000000+00:00</time></trkpt><trkpt lat="38.98608422" lon="-0.51776223"><ele>188.8</ele><time>2022-11-13T12:54:45.0000000+00:00</time></trkpt><trkpt lat="38.98608388" lon="-0.51776223"><ele>188.8</ele><time>2022-11-13T12:54:46.0000000+00:00</time></trkpt><trkpt lat="38.9860838" lon="-0.51776198"><ele>188.8</ele><time>2022-11-13T12:54:47.0000000+00:00</time></trkpt><trkpt lat="38.9860838" lon="-0.51776156"><ele>188.8</ele><time>2022-11-13T12:54:48.0000000+00:00</time></trkpt><trkpt lat="38.9860838" lon="-0.51776122"><ele>188.8</ele><time>2022-11-13T12:54:49.0000000+00:00</time></trkpt><trkpt lat="38.9860838" lon="-0.51776114"><ele>188.8</ele><time>2022-11-13T12:54:50.0000000+00:00</time></trkpt><trkpt lat="38.9860838" lon="-0.51776089"><ele>188.8</ele><time>2022-11-13T12:54:51.0000000+00:00</time></trkpt><trkpt lat="38.98608405" lon="-0.51776072"><ele>188.8</ele><time>2022-11-13T12:54:52.0000000+00:00</time></trkpt><trkpt lat="38.9860843" lon="-0.5177603"><ele>188.8</ele><time>2022-11-13T12:54:53.0000000+00:00</time></trkpt><trkpt lat="38.98608464" lon="-0.51776013"><ele>188.8</ele><time>2022-11-13T12:54:54.0000000+00:00</time></trkpt><trkpt lat="38.98608497" lon="-0.51775997"><ele>188.8</ele><time>2022-11-13T12:54:55.0000000+00:00</time></trkpt><trkpt lat="38.98608514" lon="-0.51775971"><ele>188.8</ele><time>2022-11-13T12:54:56.0000000+00:00</time></trkpt><trkpt lat="38.98608531" lon="-0.51775938"><ele>188.8</ele><time>2022-11-13T12:54:57.0000000+00:00</time></trkpt><trkpt lat="38.98608573" lon="-0.51775921"><ele>188.8</ele><time>2022-11-13T12:54:58.0000000+00:00</time></trkpt><trkpt lat="38.98608606" lon="-0.51775921"><ele>188.8</ele><time>2022-11-13T12:54:59.0000000+00:00</time></trkpt><trkpt lat="38.98608623" lon="-0.51775921"><ele>188.8</ele><time>2022-11-13T12:55:00.0000000+00:00</time></trkpt><trkpt lat="38.98608632" lon="-0.51775913"><ele>188.8</ele><time>2022-11-13T12:55:01.0000000+00:00</time></trkpt><trkpt lat="38.98608648" lon="-0.51775913"><ele>188.8</ele><time>2022-11-13T12:55:02.0000000+00:00</time></trkpt><trkpt lat="38.98608665" lon="-0.51775913"><ele>188.8</ele><time>2022-11-13T12:55:03.0000000+00:00</time></trkpt><trkpt lat="38.98608682" lon="-0.51775913"><ele>188.8</ele><time>2022-11-13T12:55:04.0000000+00:00</time></trkpt><trkpt lat="38.98608699" lon="-0.51775896"><ele>188.8</ele><time>2022-11-13T12:55:05.0000000+00:00</time></trkpt><trkpt lat="38.98608715" lon="-0.51775854"><ele>188.8</ele><time>2022-11-13T12:55:06.0000000+00:00</time></trkpt><trkpt lat="38.98608715" lon="-0.51775821"><ele>188.8</ele><time>2022-11-13T12:55:07.0000000+00:00</time></trkpt><trkpt lat="38.98608699" lon="-0.51775795"><ele>188.8</ele><time>2022-11-13T12:55:08.0000000+00:00</time></trkpt><trkpt lat="38.9860869" lon="-0.5177577"><ele>188.8</ele><time>2022-11-13T12:55:09.0000000+00:00</time></trkpt><trkpt lat="38.98608673" lon="-0.51775737"><ele>188.8</ele><time>2022-11-13T12:55:10.0000000+00:00</time></trkpt><trkpt lat="38.98608657" lon="-0.51775712"><ele>188.8</ele><time>2022-11-13T12:55:11.0000000+00:00</time></trkpt><trkpt lat="38.9860864" lon="-0.51775695"><ele>188.8</ele><time>2022-11-13T12:55:12.0000000+00:00</time></trkpt><trkpt lat="38.9860864" lon="-0.51775686"><ele>188.8</ele><time>2022-11-13T12:55:13.0000000+00:00</time></trkpt><trkpt lat="38.98608632" lon="-0.5177567"><ele>188.8</ele><time>2022-11-13T12:55:14.0000000+00:00</time></trkpt><trkpt lat="38.98608632" lon="-0.51775661"><ele>188.8</ele><time>2022-11-13T12:55:15.0000000+00:00</time></trkpt><trkpt lat="38.98608632" lon="-0.51775653"><ele>188.8</ele><time>2022-11-13T12:55:16.0000000+00:00</time></trkpt><trkpt lat="38.98608632" lon="-0.51775645"><ele>188.8</ele><time>2022-11-13T12:55:17.0000000+00:00</time></trkpt><trkpt lat="38.98608632" lon="-0.51775636"><ele>188.8</ele><time>2022-11-13T12:55:18.0000000+00:00</time></trkpt><trkpt lat="38.98608632" lon="-0.51775619"><ele>188.8</ele><time>2022-11-13T12:55:19.0000000+00:00</time></trkpt><trkpt lat="38.98608632" lon="-0.51775611"><ele>188.8</ele><time>2022-11-13T12:55:20.0000000+00:00</time></trkpt><trkpt lat="38.98608623" lon="-0.51775578"><ele>188.8</ele><time>2022-11-13T12:55:21.0000000+00:00</time></trkpt><trkpt lat="38.98608539" lon="-0.51775561"><ele>188.8</ele><time>2022-11-13T12:55:22.0000000+00:00</time></trkpt><trkpt lat="38.98608397" lon="-0.51775544"><ele>188.8</ele><time>2022-11-13T12:55:23.0000000+00:00</time></trkpt><trkpt lat="38.98608246" lon="-0.51775527"><ele>188.8</ele><time>2022-11-13T12:55:24.0000000+00:00</time></trkpt><trkpt lat="38.98608154" lon="-0.5177551"><ele>188.8</ele><time>2022-11-13T12:55:25.0000000+00:00</time></trkpt><trkpt lat="38.98608095" lon="-0.5177551"><ele>188.8</ele><time>2022-11-13T12:55:26.0000000+00:00</time></trkpt><trkpt lat="38.9860802" lon="-0.51775502"><ele>188.8</ele><time>2022-11-13T12:55:27.0000000+00:00</time></trkpt><trkpt lat="38.98607969" lon="-0.51775502"><ele>188.8</ele><time>2022-11-13T12:55:28.0000000+00:00</time></trkpt><trkpt lat="38.98607919" lon="-0.51775502"><ele>188.8</ele><time>2022-11-13T12:55:29.0000000+00:00</time></trkpt><trkpt lat="38.98607886" lon="-0.51775502"><ele>188.8</ele><time>2022-11-13T12:55:30.0000000+00:00</time></trkpt><trkpt lat="38.98607869" lon="-0.51775502"><ele>188.8</ele><time>2022-11-13T12:55:31.0000000+00:00</time></trkpt><trkpt lat="38.9860786" lon="-0.51775502"><ele>188.8</ele><time>2022-11-13T12:55:32.0000000+00:00</time></trkpt><trkpt lat="38.98607852" lon="-0.51775502"><ele>188.8</ele><time>2022-11-13T12:55:33.0000000+00:00</time></trkpt><trkpt lat="38.98607852" lon="-0.51775477"><ele>188.8</ele><time>2022-11-13T12:55:34.0000000+00:00</time></trkpt><trkpt lat="38.98607852" lon="-0.5177546"><ele>188.8</ele><time>2022-11-13T12:55:35.0000000+00:00</time></trkpt><trkpt lat="38.98608078" lon="-0.51775066"><ele>188.8</ele><time>2022-11-13T12:55:36.0000000+00:00</time></trkpt><trkpt lat="38.9860833" lon="-0.51773541"><ele>188.8</ele><time>2022-11-13T12:55:37.0000000+00:00</time></trkpt><trkpt lat="38.98608573" lon="-0.51772384"><ele>188.8</ele><time>2022-11-13T12:55:38.0000000+00:00</time></trkpt><trkpt lat="38.98608665" lon="-0.51771487"><ele>188.8</ele><time>2022-11-13T12:55:39.0000000+00:00</time></trkpt><trkpt lat="38.986089" lon="-0.51770649"><ele>188.8</ele><time>2022-11-13T12:55:40.0000000+00:00</time></trkpt><trkpt lat="38.98609025" lon="-0.51769467"><ele>188.8</ele><time>2022-11-13T12:55:41.0000000+00:00</time></trkpt><trkpt lat="38.98609193" lon="-0.51768126"><ele>188.8</ele><time>2022-11-13T12:55:42.0000000+00:00</time></trkpt><trkpt lat="38.98609445" lon="-0.51766953"><ele>188.8</ele><time>2022-11-13T12:55:43.0000000+00:00</time></trkpt><trkpt lat="38.98609629" lon="-0.5176567"><ele>188.8</ele><time>2022-11-13T12:55:44.0000000+00:00</time></trkpt><trkpt lat="38.98609688" lon="-0.51764455"><ele>188.8</ele><time>2022-11-13T12:55:45.0000000+00:00</time></trkpt><trkpt lat="38.98609419" lon="-0.51763474"><ele>188.8</ele><time>2022-11-13T12:55:46.0000000+00:00</time></trkpt><trkpt lat="38.98609151" lon="-0.517622"><ele>188.8</ele><time>2022-11-13T12:55:47.0000000+00:00</time></trkpt><trkpt lat="38.98608975" lon="-0.51761094"><ele>188.8</ele><time>2022-11-13T12:55:48.0000000+00:00</time></trkpt><trkpt lat="38.98608858" lon="-0.51760029"><ele>188.8</ele><time>2022-11-13T12:55:49.0000000+00:00</time></trkpt><trkpt lat="38.98608657" lon="-0.51758713"><ele>188.8</ele><time>2022-11-13T12:55:50.0000000+00:00</time></trkpt><trkpt lat="38.98608414" lon="-0.51757498"><ele>188.8</ele><time>2022-11-13T12:55:51.0000000+00:00</time></trkpt><trkpt lat="38.98607994" lon="-0.5175624"><ele>188.8</ele><time>2022-11-13T12:55:52.0000000+00:00</time></trkpt><trkpt lat="38.98607441" lon="-0.51755168"><ele>187.8</ele><time>2022-11-13T12:55:53.0000000+00:00</time></trkpt><trkpt lat="38.9860719" lon="-0.51753759"><ele>187.2</ele><time>2022-11-13T12:55:54.0000000+00:00</time></trkpt><trkpt lat="38.98607207" lon="-0.51752083"><ele>186.8</ele><time>2022-11-13T12:55:55.0000000+00:00</time></trkpt><trkpt lat="38.98606964" lon="-0.51750449"><ele>186.6</ele><time>2022-11-13T12:55:56.0000000+00:00</time></trkpt><trkpt lat="38.98606762" lon="-0.51748755"><ele>186.4</ele><time>2022-11-13T12:55:57.0000000+00:00</time></trkpt><trkpt lat="38.98607064" lon="-0.51747247"><ele>186.2</ele><time>2022-11-13T12:55:58.0000000+00:00</time></trkpt><trkpt lat="38.98607735" lon="-0.51745864"><ele>186.0</ele><time>2022-11-13T12:55:59.0000000+00:00</time></trkpt><trkpt lat="38.9860781" lon="-0.51744623"><ele>185.8</ele><time>2022-11-13T12:56:00.0000000+00:00</time></trkpt><trkpt lat="38.9860745" lon="-0.5174371"><ele>185.4</ele><time>2022-11-13T12:56:01.0000000+00:00</time></trkpt><trkpt lat="38.98606804" lon="-0.51742729"><ele>185.2</ele><time>2022-11-13T12:56:02.0000000+00:00</time></trkpt><trkpt lat="38.98606511" lon="-0.51741539"><ele>185.0</ele><time>2022-11-13T12:56:03.0000000+00:00</time></trkpt><trkpt lat="38.98606134" lon="-0.51739929"><ele>184.8</ele><time>2022-11-13T12:56:04.0000000+00:00</time></trkpt><trkpt lat="38.98605564" lon="-0.51738362"><ele>184.6</ele><time>2022-11-13T12:56:05.0000000+00:00</time></trkpt><trkpt lat="38.98605296" lon="-0.51737314"><ele>184.6</ele><time>2022-11-13T12:56:06.0000000+00:00</time></trkpt><trkpt lat="38.98605396" lon="-0.51736367"><ele>184.4</ele><time>2022-11-13T12:56:07.0000000+00:00</time></trkpt><trkpt lat="38.98605564" lon="-0.51735428"><ele>184.2</ele><time>2022-11-13T12:56:08.0000000+00:00</time></trkpt><trkpt lat="38.98605379" lon="-0.5173428"><ele>184.0</ele><time>2022-11-13T12:56:09.0000000+00:00</time></trkpt><trkpt lat="38.98605648" lon="-0.51732897"><ele>184.0</ele><time>2022-11-13T12:56:10.0000000+00:00</time></trkpt><trkpt lat="38.9860605" lon="-0.51731757"><ele>183.8</ele><time>2022-11-13T12:56:11.0000000+00:00</time></trkpt><trkpt lat="38.98606477" lon="-0.51730868"><ele>183.6</ele><time>2022-11-13T12:56:12.0000000+00:00</time></trkpt><trkpt lat="38.98606653" lon="-0.51729695"><ele>183.4</ele><time>2022-11-13T12:56:13.0000000+00:00</time></trkpt><trkpt lat="38.98607366" lon="-0.5172848"><ele>183.4</ele><time>2022-11-13T12:56:14.0000000+00:00</time></trkpt><trkpt lat="38.9860843" lon="-0.51727382"><ele>183.2</ele><time>2022-11-13T12:56:15.0000000+00:00</time></trkpt><trkpt lat="38.98609453" lon="-0.51726191"><ele>183.0</ele><time>2022-11-13T12:56:16.0000000+00:00</time></trkpt><trkpt lat="38.9861045" lon="-0.51725211"><ele>182.6</ele><time>2022-11-13T12:56:17.0000000+00:00</time></trkpt><trkpt lat="38.9861154" lon="-0.5172428"><ele>182.6</ele><time>2022-11-13T12:56:18.0000000+00:00</time></trkpt><trkpt lat="38.98611892" lon="-0.51722512"><ele>182.2</ele><time>2022-11-13T12:56:19.0000000+00:00</time></trkpt><trkpt lat="38.98612177" lon="-0.51721271"><ele>182.2</ele><time>2022-11-13T12:56:20.0000000+00:00</time></trkpt><trkpt lat="38.98612755" lon="-0.51720056"><ele>182.0</ele><time>2022-11-13T12:56:21.0000000+00:00</time></trkpt><trkpt lat="38.98613099" lon="-0.51719268"><ele>181.8</ele><time>2022-11-13T12:56:22.0000000+00:00</time></trkpt><trkpt lat="38.98613719" lon="-0.51717918"><ele>181.6</ele><time>2022-11-13T12:56:23.0000000+00:00</time></trkpt><trkpt lat="38.98614348" lon="-0.51716535"><ele>181.4</ele><time>2022-11-13T12:56:24.0000000+00:00</time></trkpt><trkpt lat="38.98614859" lon="-0.51715278"><ele>181.2</ele><time>2022-11-13T12:56:25.0000000+00:00</time></trkpt><trkpt lat="38.98615496" lon="-0.5171387"><ele>181.0</ele><time>2022-11-13T12:56:26.0000000+00:00</time></trkpt><trkpt lat="38.9861584" lon="-0.51712487"><ele>180.8</ele><time>2022-11-13T12:56:27.0000000+00:00</time></trkpt><trkpt lat="38.98615932" lon="-0.51711221"><ele>180.6</ele><time>2022-11-13T12:56:28.0000000+00:00</time></trkpt><trkpt lat="38.98616561" lon="-0.51710207"><ele>180.4</ele><time>2022-11-13T12:56:29.0000000+00:00</time></trkpt><trkpt lat="38.98617122" lon="-0.51709293"><ele>180.4</ele><time>2022-11-13T12:56:30.0000000+00:00</time></trkpt><trkpt lat="38.98618028" lon="-0.51708019"><ele>180.2</ele><time>2022-11-13T12:56:31.0000000+00:00</time></trkpt><trkpt lat="38.98618874" lon="-0.51707164"><ele>180.2</ele><time>2022-11-13T12:56:32.0000000+00:00</time></trkpt><trkpt lat="38.98619453" lon="-0.51706242"><ele>180.0</ele><time>2022-11-13T12:56:33.0000000+00:00</time></trkpt><trkpt lat="38.98619981" lon="-0.51705253"><ele>179.8</ele><time>2022-11-13T12:56:34.0000000+00:00</time></trkpt><trkpt lat="38.98621028" lon="-0.5170439"><ele>179.6</ele><time>2022-11-13T12:56:35.0000000+00:00</time></trkpt><trkpt lat="38.98622344" lon="-0.51703527"><ele>179.4</ele><time>2022-11-13T12:56:36.0000000+00:00</time></trkpt><trkpt lat="38.98623015" lon="-0.51702655"><ele>179.2</ele><time>2022-11-13T12:56:37.0000000+00:00</time></trkpt><trkpt lat="38.98623635" lon="-0.51701959"><ele>179.2</ele><time>2022-11-13T12:56:38.0000000+00:00</time></trkpt><trkpt lat="38.98624549" lon="-0.5170149"><ele>179.0</ele><time>2022-11-13T12:56:39.0000000+00:00</time></trkpt><trkpt lat="38.98625454" lon="-0.51701456"><ele>179.0</ele><time>2022-11-13T12:56:40.0000000+00:00</time></trkpt><trkpt lat="38.9862646" lon="-0.51701775"><ele>178.8</ele><time>2022-11-13T12:56:41.0000000+00:00</time></trkpt><trkpt lat="38.98626988" lon="-0.51701917"><ele>178.4</ele><time>2022-11-13T12:56:42.0000000+00:00</time></trkpt><trkpt lat="38.98627658" lon="-0.51701984"><ele>178.2</ele><time>2022-11-13T12:56:43.0000000+00:00</time></trkpt><trkpt lat="38.98628371" lon="-0.51701976"><ele>178.2</ele><time>2022-11-13T12:56:44.0000000+00:00</time></trkpt><trkpt lat="38.98628471" lon="-0.51702311"><ele>178.2</ele><time>2022-11-13T12:56:45.0000000+00:00</time></trkpt><trkpt lat="38.98628245" lon="-0.51702772"><ele>178.0</ele><time>2022-11-13T12:56:46.0000000+00:00</time></trkpt><trkpt lat="38.98628589" lon="-0.51703057"><ele>177.8</ele><time>2022-11-13T12:56:47.0000000+00:00</time></trkpt><trkpt lat="38.98629335" lon="-0.51703887"><ele>177.6</ele><time>2022-11-13T12:56:48.0000000+00:00</time></trkpt><trkpt lat="38.98629779" lon="-0.51704843"><ele>177.4</ele><time>2022-11-13T12:56:49.0000000+00:00</time></trkpt><trkpt lat="38.98629544" lon="-0.51705949"><ele>177.2</ele><time>2022-11-13T12:56:50.0000000+00:00</time></trkpt><trkpt lat="38.98628874" lon="-0.51707692"><ele>177.0</ele><time>2022-11-13T12:56:51.0000000+00:00</time></trkpt><trkpt lat="38.98628698" lon="-0.51709235"><ele>176.8</ele><time>2022-11-13T12:56:52.0000000+00:00</time></trkpt><trkpt lat="38.98627885" lon="-0.51710978"><ele>176.6</ele><time>2022-11-13T12:56:53.0000000+00:00</time></trkpt><trkpt lat="38.98628145" lon="-0.51712437"><ele>176.6</ele><time>2022-11-13T12:56:54.0000000+00:00</time></trkpt><trkpt lat="38.98628304" lon="-0.51713853"><ele>176.2</ele><time>2022-11-13T12:56:55.0000000+00:00</time></trkpt><trkpt lat="38.98628622" lon="-0.51714566"><ele>176.0</ele><time>2022-11-13T12:56:56.0000000+00:00</time></trkpt><trkpt lat="38.98628413" lon="-0.51716116"><ele>175.8</ele><time>2022-11-13T12:56:57.0000000+00:00</time></trkpt><trkpt lat="38.98628589" lon="-0.51716846"><ele>175.6</ele><time>2022-11-13T12:56:58.0000000+00:00</time></trkpt><trkpt lat="38.9862853" lon="-0.51718002"><ele>175.4</ele><time>2022-11-13T12:56:59.0000000+00:00</time></trkpt><trkpt lat="38.9862858" lon="-0.51719645"><ele>175.2</ele><time>2022-11-13T12:57:00.0000000+00:00</time></trkpt><trkpt lat="38.98628882" lon="-0.5172029"><ele>175.2</ele><time>2022-11-13T12:57:01.0000000+00:00</time></trkpt><trkpt lat="38.98628798" lon="-0.51721791"><ele>175.0</ele><time>2022-11-13T12:57:02.0000000+00:00</time></trkpt><trkpt lat="38.98628907" lon="-0.51722939"><ele>174.8</ele><time>2022-11-13T12:57:03.0000000+00:00</time></trkpt><trkpt lat="38.98629067" lon="-0.51723937"><ele>174.6</ele><time>2022-11-13T12:57:04.0000000+00:00</time></trkpt><trkpt lat="38.98629444" lon="-0.51725353"><ele>174.4</ele><time>2022-11-13T12:57:05.0000000+00:00</time></trkpt><trkpt lat="38.98629687" lon="-0.51726468"><ele>174.2</ele><time>2022-11-13T12:57:06.0000000+00:00</time></trkpt><trkpt lat="38.98630047" lon="-0.51727407"><ele>174.0</ele><time>2022-11-13T12:57:07.0000000+00:00</time></trkpt><trkpt lat="38.98630693" lon="-0.51728446"><ele>174.0</ele><time>2022-11-13T12:57:08.0000000+00:00</time></trkpt><trkpt lat="38.98631103" lon="-0.51729729"><ele>173.8</ele><time>2022-11-13T12:57:09.0000000+00:00</time></trkpt><trkpt lat="38.98631749" lon="-0.51731455"><ele>173.6</ele><time>2022-11-13T12:57:10.0000000+00:00</time></trkpt><trkpt lat="38.98632126" lon="-0.51733157"><ele>173.4</ele><time>2022-11-13T12:57:11.0000000+00:00</time></trkpt><trkpt lat="38.9863278" lon="-0.51734414"><ele>173.2</ele><time>2022-11-13T12:57:12.0000000+00:00</time></trkpt><trkpt lat="38.9863376" lon="-0.51735194"><ele>173.2</ele><time>2022-11-13T12:57:13.0000000+00:00</time></trkpt><trkpt lat="38.98634339" lon="-0.51735051"><ele>173.0</ele><time>2022-11-13T12:57:14.0000000+00:00</time></trkpt><trkpt lat="38.98635177" lon="-0.51734196"><ele>173.0</ele><time>2022-11-13T12:57:15.0000000+00:00</time></trkpt><trkpt lat="38.98636007" lon="-0.5173309"><ele>172.8</ele><time>2022-11-13T12:57:16.0000000+00:00</time></trkpt><trkpt lat="38.98636392" lon="-0.51731858"><ele>172.8</ele><time>2022-11-13T12:57:17.0000000+00:00</time></trkpt><trkpt lat="38.986362" lon="-0.51730743"><ele>172.6</ele><time>2022-11-13T12:57:18.0000000+00:00</time></trkpt><trkpt lat="38.98635923" lon="-0.51729603"><ele>172.6</ele><time>2022-11-13T12:57:19.0000000+00:00</time></trkpt><trkpt lat="38.98635378" lon="-0.51727952"><ele>172.4</ele><time>2022-11-13T12:57:20.0000000+00:00</time></trkpt><trkpt lat="38.98635085" lon="-0.51726711"><ele>172.2</ele><time>2022-11-13T12:57:21.0000000+00:00</time></trkpt><trkpt lat="38.98635093" lon="-0.5172516"><ele>172.0</ele><time>2022-11-13T12:57:22.0000000+00:00</time></trkpt><trkpt lat="38.98635454" lon="-0.51723744"><ele>171.8</ele><time>2022-11-13T12:57:23.0000000+00:00</time></trkpt><trkpt lat="38.98635546" lon="-0.51722135"><ele>171.6</ele><time>2022-11-13T12:57:24.0000000+00:00</time></trkpt><trkpt lat="38.98635479" lon="-0.51721296"><ele>171.6</ele><time>2022-11-13T12:57:25.0000000+00:00</time></trkpt><trkpt lat="38.98636652" lon="-0.51720601"><ele>171.4</ele><time>2022-11-13T12:57:26.0000000+00:00</time></trkpt><trkpt lat="38.98637842" lon="-0.51720089"><ele>171.4</ele><time>2022-11-13T12:57:27.0000000+00:00</time></trkpt><trkpt lat="38.98638974" lon="-0.51719477"><ele>171.2</ele><time>2022-11-13T12:57:28.0000000+00:00</time></trkpt><trkpt lat="38.98639703" lon="-0.51718354"><ele>171.0</ele><time>2022-11-13T12:57:29.0000000+00:00</time></trkpt><trkpt lat="38.98639997" lon="-0.51717524"><ele>170.8</ele><time>2022-11-13T12:57:30.0000000+00:00</time></trkpt><trkpt lat="38.98640793" lon="-0.5171739"><ele>170.6</ele><time>2022-11-13T12:57:31.0000000+00:00</time></trkpt><trkpt lat="38.98640977" lon="-0.51717348"><ele>170.6</ele><time>2022-11-13T12:57:32.0000000+00:00</time></trkpt><trkpt lat="38.98642017" lon="-0.51717365"><ele>170.4</ele><time>2022-11-13T12:57:33.0000000+00:00</time></trkpt><trkpt lat="38.98642964" lon="-0.51717491"><ele>170.2</ele><time>2022-11-13T12:57:34.0000000+00:00</time></trkpt><trkpt lat="38.9864376" lon="-0.51717457"><ele>170.0</ele><time>2022-11-13T12:57:35.0000000+00:00</time></trkpt><trkpt lat="38.98644716" lon="-0.51717114"><ele>170.0</ele><time>2022-11-13T12:57:36.0000000+00:00</time></trkpt><trkpt lat="38.98645277" lon="-0.51716778"><ele>169.8</ele><time>2022-11-13T12:57:37.0000000+00:00</time></trkpt><trkpt lat="38.98645864" lon="-0.51715957"><ele>169.8</ele><time>2022-11-13T12:57:38.0000000+00:00</time></trkpt><trkpt lat="38.98646585" lon="-0.51714264"><ele>169.8</ele><time>2022-11-13T12:57:39.0000000+00:00</time></trkpt><trkpt lat="38.98647507" lon="-0.51713141"><ele>169.6</ele><time>2022-11-13T12:57:40.0000000+00:00</time></trkpt><trkpt lat="38.98648077" lon="-0.51712604"><ele>169.4</ele><time>2022-11-13T12:57:41.0000000+00:00</time></trkpt><trkpt lat="38.98648848" lon="-0.51711473"><ele>169.2</ele><time>2022-11-13T12:57:42.0000000+00:00</time></trkpt><trkpt lat="38.98649938" lon="-0.51710433"><ele>169.2</ele><time>2022-11-13T12:57:43.0000000+00:00</time></trkpt><trkpt lat="38.98650868" lon="-0.51709537"><ele>169.0</ele><time>2022-11-13T12:57:44.0000000+00:00</time></trkpt><trkpt lat="38.98652008" lon="-0.51709428"><ele>168.8</ele><time>2022-11-13T12:57:45.0000000+00:00</time></trkpt><trkpt lat="38.9865272" lon="-0.51709461"><ele>168.6</ele><time>2022-11-13T12:57:46.0000000+00:00</time></trkpt><trkpt lat="38.98653726" lon="-0.5170936"><ele>168.6</ele><time>2022-11-13T12:57:47.0000000+00:00</time></trkpt><trkpt lat="38.98654363" lon="-0.51709067"><ele>168.4</ele><time>2022-11-13T12:57:48.0000000+00:00</time></trkpt><trkpt lat="38.98654958" lon="-0.51709025"><ele>168.0</ele><time>2022-11-13T12:57:49.0000000+00:00</time></trkpt><trkpt lat="38.98655009" lon="-0.51708732"><ele>167.8</ele><time>2022-11-13T12:57:50.0000000+00:00</time></trkpt><trkpt lat="38.98655101" lon="-0.51708304"><ele>167.6</ele><time>2022-11-13T12:57:51.0000000+00:00</time></trkpt><trkpt lat="38.98655352" lon="-0.51708262"><ele>167.4</ele><time>2022-11-13T12:57:52.0000000+00:00</time></trkpt><trkpt lat="38.98655268" lon="-0.51708782"><ele>167.2</ele><time>2022-11-13T12:57:53.0000000+00:00</time></trkpt><trkpt lat="38.98655595" lon="-0.51709604"><ele>167.0</ele><time>2022-11-13T12:57:54.0000000+00:00</time></trkpt><trkpt lat="38.98655486" lon="-0.51710953"><ele>166.8</ele><time>2022-11-13T12:57:55.0000000+00:00</time></trkpt><trkpt lat="38.98655394" lon="-0.51712152"><ele>166.6</ele><time>2022-11-13T12:57:56.0000000+00:00</time></trkpt><trkpt lat="38.98654799" lon="-0.51713342"><ele>166.4</ele><time>2022-11-13T12:57:57.0000000+00:00</time></trkpt><trkpt lat="38.98654304" lon="-0.51714649"><ele>166.0</ele><time>2022-11-13T12:57:58.0000000+00:00</time></trkpt><trkpt lat="38.98654363" lon="-0.5171615"><ele>165.8</ele><time>2022-11-13T12:57:59.0000000+00:00</time></trkpt><trkpt lat="38.9865407" lon="-0.51717617"><ele>165.6</ele><time>2022-11-13T12:58:00.0000000+00:00</time></trkpt><trkpt lat="38.98653835" lon="-0.51719067"><ele>165.4</ele><time>2022-11-13T12:58:01.0000000+00:00</time></trkpt><trkpt lat="38.98653835" lon="-0.51720299"><ele>165.2</ele><time>2022-11-13T12:58:02.0000000+00:00</time></trkpt><trkpt lat="38.98654346" lon="-0.51721196"><ele>165.0</ele><time>2022-11-13T12:58:03.0000000+00:00</time></trkpt><trkpt lat="38.98654749" lon="-0.51722562"><ele>164.8</ele><time>2022-11-13T12:58:04.0000000+00:00</time></trkpt><trkpt lat="38.98654807" lon="-0.51723652"><ele>164.8</ele><time>2022-11-13T12:58:05.0000000+00:00</time></trkpt><trkpt lat="38.98655159" lon="-0.51724674"><ele>164.6</ele><time>2022-11-13T12:58:06.0000000+00:00</time></trkpt><trkpt lat="38.98655428" lon="-0.51725764"><ele>164.4</ele><time>2022-11-13T12:58:07.0000000+00:00</time></trkpt><trkpt lat="38.98655612" lon="-0.51726962"><ele>164.0</ele><time>2022-11-13T12:58:08.0000000+00:00</time></trkpt><trkpt lat="38.98655386" lon="-0.51728169"><ele>163.8</ele><time>2022-11-13T12:58:09.0000000+00:00</time></trkpt><trkpt lat="38.98655218" lon="-0.51729142"><ele>163.6</ele><time>2022-11-13T12:58:10.0000000+00:00</time></trkpt><trkpt lat="38.98654916" lon="-0.51729913"><ele>163.6</ele><time>2022-11-13T12:58:11.0000000+00:00</time></trkpt><trkpt lat="38.98655042" lon="-0.51730156"><ele>163.4</ele><time>2022-11-13T12:58:12.0000000+00:00</time></trkpt><trkpt lat="38.98655042" lon="-0.51730139"><ele>163.2</ele><time>2022-11-13T12:58:13.0000000+00:00</time></trkpt><trkpt lat="38.98654942" lon="-0.51730106"><ele>163.2</ele><time>2022-11-13T12:58:14.0000000+00:00</time></trkpt><trkpt lat="38.98654866" lon="-0.51730047"><ele>163.2</ele><time>2022-11-13T12:58:15.0000000+00:00</time></trkpt><trkpt lat="38.98654874" lon="-0.51729955"><ele>163.2</ele><time>2022-11-13T12:58:16.0000000+00:00</time></trkpt><trkpt lat="38.98654933" lon="-0.51729787"><ele>163.2</ele><time>2022-11-13T12:58:17.0000000+00:00</time></trkpt><trkpt lat="38.98654883" lon="-0.51729938"><ele>163.2</ele><time>2022-11-13T12:58:18.0000000+00:00</time></trkpt><trkpt lat="38.98654791" lon="-0.5173019"><ele>163.2</ele><time>2022-11-13T12:58:19.0000000+00:00</time></trkpt><trkpt lat="38.98654673" lon="-0.51730349"><ele>163.4</ele><time>2022-11-13T12:58:20.0000000+00:00</time></trkpt><trkpt lat="38.98654623" lon="-0.51730407"><ele>163.6</ele><time>2022-11-13T12:58:21.0000000+00:00</time></trkpt><trkpt lat="38.98654623" lon="-0.51730407"><ele>163.8</ele><time>2022-11-13T12:58:22.0000000+00:00</time></trkpt><trkpt lat="38.98654623" lon="-0.51730407"><ele>163.8</ele><time>2022-11-13T12:58:23.0000000+00:00</time></trkpt><trkpt lat="38.98654623" lon="-0.51730407"><ele>163.8</ele><time>2022-11-13T12:58:24.0000000+00:00</time></trkpt><trkpt lat="38.98654623" lon="-0.51730407"><ele>163.8</ele><time>2022-11-13T12:58:25.0000000+00:00</time></trkpt><trkpt lat="38.98654623" lon="-0.51730407"><ele>163.4</ele><time>2022-11-13T12:58:26.0000000+00:00</time></trkpt><trkpt lat="38.98654623" lon="-0.51730407"><ele>163.4</ele><time>2022-11-13T12:58:27.0000000+00:00</time></trkpt><trkpt lat="38.98654623" lon="-0.51730407"><ele>163.2</ele><time>2022-11-13T12:58:28.0000000+00:00</time></trkpt><trkpt lat="38.98654623" lon="-0.51730407"><ele>163.2</ele><time>2022-11-13T12:58:29.0000000+00:00</time></trkpt><trkpt lat="38.98654623" lon="-0.51730407"><ele>163.2</ele><time>2022-11-13T12:58:30.0000000+00:00</time></trkpt><trkpt lat="38.98654648" lon="-0.51730407"><ele>163.0</ele><time>2022-11-13T12:58:31.0000000+00:00</time></trkpt><trkpt lat="38.98654665" lon="-0.51730407"><ele>163.0</ele><time>2022-11-13T12:58:32.0000000+00:00</time></trkpt><trkpt lat="38.98654774" lon="-0.51730407"><ele>163.0</ele><time>2022-11-13T12:58:33.0000000+00:00</time></trkpt><trkpt lat="38.98654791" lon="-0.51730407"><ele>163.0</ele><time>2022-11-13T12:58:34.0000000+00:00</time></trkpt><trkpt lat="38.98654791" lon="-0.51730407"><ele>163.0</ele><time>2022-11-13T12:58:35.0000000+00:00</time></trkpt><trkpt lat="38.98654791" lon="-0.51730407"><ele>163.0</ele><time>2022-11-13T12:58:36.0000000+00:00</time></trkpt><trkpt lat="38.98654791" lon="-0.51730407"><ele>163.0</ele><time>2022-11-13T12:58:37.0000000+00:00</time></trkpt><trkpt lat="38.98654791" lon="-0.51730407"><ele>163.0</ele><time>2022-11-13T12:58:38.0000000+00:00</time></trkpt><trkpt lat="38.98654791" lon="-0.51730407"><ele>163.0</ele><time>2022-11-13T12:58:39.0000000+00:00</time></trkpt><trkpt lat="38.98654791" lon="-0.51730407"><ele>163.0</ele><time>2022-11-13T12:58:40.0000000+00:00</time></trkpt><trkpt lat="38.98654791" lon="-0.51730407"><ele>163.0</ele><time>2022-11-13T12:58:41.0000000+00:00</time></trkpt><trkpt lat="38.98654791" lon="-0.51730407"><ele>163.0</ele><time>2022-11-13T12:58:42.0000000+00:00</time></trkpt><trkpt lat="38.98654791" lon="-0.51730407"><ele>163.0</ele><time>2022-11-13T12:58:43.0000000+00:00</time></trkpt><trkpt lat="38.98654791" lon="-0.51730449"><ele>163.0</ele><time>2022-11-13T12:58:44.0000000+00:00</time></trkpt><trkpt lat="38.98654791" lon="-0.51730516"><ele>163.0</ele><time>2022-11-13T12:58:45.0000000+00:00</time></trkpt><trkpt lat="38.98654791" lon="-0.51730651"><ele>163.2</ele><time>2022-11-13T12:58:46.0000000+00:00</time></trkpt><trkpt lat="38.98654791" lon="-0.51730676"><ele>163.2</ele><time>2022-11-13T12:58:47.0000000+00:00</time></trkpt><trkpt lat="38.98654791" lon="-0.51730709"><ele>163.2</ele><time>2022-11-13T12:58:48.0000000+00:00</time></trkpt><trkpt lat="38.98654782" lon="-0.51730751"><ele>163.2</ele><time>2022-11-13T12:58:49.0000000+00:00</time></trkpt><trkpt lat="38.98654782" lon="-0.51730768"><ele>163.0</ele><time>2022-11-13T12:58:50.0000000+00:00</time></trkpt><trkpt lat="38.98654791" lon="-0.51730776"><ele>163.0</ele><time>2022-11-13T12:58:51.0000000+00:00</time></trkpt><trkpt lat="38.98654799" lon="-0.51730885"><ele>162.8</ele><time>2022-11-13T12:58:52.0000000+00:00</time></trkpt><trkpt lat="38.98655134" lon="-0.51731271"><ele>162.6</ele><time>2022-11-13T12:58:53.0000000+00:00</time></trkpt><trkpt lat="38.98656341" lon="-0.51732553"><ele>162.4</ele><time>2022-11-13T12:58:54.0000000+00:00</time></trkpt><trkpt lat="38.98657615" lon="-0.51733417"><ele>162.4</ele><time>2022-11-13T12:58:55.0000000+00:00</time></trkpt><trkpt lat="38.98658814" lon="-0.5173438"><ele>162.0</ele><time>2022-11-13T12:58:56.0000000+00:00</time></trkpt><trkpt lat="38.98659979" lon="-0.51735428"><ele>161.8</ele><time>2022-11-13T12:58:57.0000000+00:00</time></trkpt><trkpt lat="38.98661161" lon="-0.51736032"><ele>161.4</ele><time>2022-11-13T12:58:58.0000000+00:00</time></trkpt><trkpt lat="38.98661898" lon="-0.5173687"><ele>161.2</ele><time>2022-11-13T12:58:59.0000000+00:00</time></trkpt><trkpt lat="38.98662745" lon="-0.51737725"><ele>161.0</ele><time>2022-11-13T12:59:00.0000000+00:00</time></trkpt><trkpt lat="38.98663575" lon="-0.51738965"><ele>160.8</ele><time>2022-11-13T12:59:01.0000000+00:00</time></trkpt><trkpt lat="38.98664145" lon="-0.51739954"><ele>160.4</ele><time>2022-11-13T12:59:02.0000000+00:00</time></trkpt><trkpt lat="38.98664597" lon="-0.51740306"><ele>160.2</ele><time>2022-11-13T12:59:03.0000000+00:00</time></trkpt><trkpt lat="38.98665444" lon="-0.5174086"><ele>160.2</ele><time>2022-11-13T12:59:04.0000000+00:00</time></trkpt><trkpt lat="38.98666458" lon="-0.51741337"><ele>160.0</ele><time>2022-11-13T12:59:05.0000000+00:00</time></trkpt><trkpt lat="38.98668051" lon="-0.51742008"><ele>159.6</ele><time>2022-11-13T12:59:06.0000000+00:00</time></trkpt><trkpt lat="38.98669601" lon="-0.51742645"><ele>159.4</ele><time>2022-11-13T12:59:07.0000000+00:00</time></trkpt><trkpt lat="38.98670783" lon="-0.51742905"><ele>159.2</ele><time>2022-11-13T12:59:08.0000000+00:00</time></trkpt><trkpt lat="38.98672099" lon="-0.51742855"><ele>159.0</ele><time>2022-11-13T12:59:09.0000000+00:00</time></trkpt><trkpt lat="38.98673373" lon="-0.51743341"><ele>159.0</ele><time>2022-11-13T12:59:10.0000000+00:00</time></trkpt><trkpt lat="38.98674538" lon="-0.51744028"><ele>158.6</ele><time>2022-11-13T12:59:11.0000000+00:00</time></trkpt><trkpt lat="38.98675603" lon="-0.51744673"><ele>158.6</ele><time>2022-11-13T12:59:12.0000000+00:00</time></trkpt><trkpt lat="38.9867676" lon="-0.51745042"><ele>158.2</ele><time>2022-11-13T12:59:13.0000000+00:00</time></trkpt><trkpt lat="38.98677925" lon="-0.51745093"><ele>158.0</ele><time>2022-11-13T12:59:14.0000000+00:00</time></trkpt><trkpt lat="38.9867935" lon="-0.51745503"><ele>157.8</ele><time>2022-11-13T12:59:15.0000000+00:00</time></trkpt><trkpt lat="38.98680766" lon="-0.51745797"><ele>157.4</ele><time>2022-11-13T12:59:16.0000000+00:00</time></trkpt><trkpt lat="38.98681797" lon="-0.517463"><ele>157.2</ele><time>2022-11-13T12:59:17.0000000+00:00</time></trkpt><trkpt lat="38.98683205" lon="-0.5174687"><ele>157.0</ele><time>2022-11-13T12:59:18.0000000+00:00</time></trkpt><trkpt lat="38.98684337" lon="-0.51746928"><ele>156.8</ele><time>2022-11-13T12:59:19.0000000+00:00</time></trkpt><trkpt lat="38.98685158" lon="-0.51746761"><ele>156.6</ele><time>2022-11-13T12:59:20.0000000+00:00</time></trkpt><trkpt lat="38.98686298" lon="-0.51746082"><ele>156.6</ele><time>2022-11-13T12:59:21.0000000+00:00</time></trkpt><trkpt lat="38.98687145" lon="-0.51744866"><ele>156.4</ele><time>2022-11-13T12:59:22.0000000+00:00</time></trkpt><trkpt lat="38.98687916" lon="-0.51743282"><ele>156.4</ele><time>2022-11-13T12:59:23.0000000+00:00</time></trkpt><trkpt lat="38.98688452" lon="-0.51741648"><ele>156.2</ele><time>2022-11-13T12:59:24.0000000+00:00</time></trkpt><trkpt lat="38.98689282" lon="-0.51740516"><ele>156.0</ele><time>2022-11-13T12:59:25.0000000+00:00</time></trkpt><trkpt lat="38.98689802" lon="-0.51739133"><ele>155.6</ele><time>2022-11-13T12:59:26.0000000+00:00</time></trkpt><trkpt lat="38.98689777" lon="-0.51737708"><ele>155.6</ele><time>2022-11-13T12:59:27.0000000+00:00</time></trkpt><trkpt lat="38.98689936" lon="-0.51736065"><ele>155.4</ele><time>2022-11-13T12:59:28.0000000+00:00</time></trkpt><trkpt lat="38.98690791" lon="-0.51733987"><ele>155.2</ele><time>2022-11-13T12:59:29.0000000+00:00</time></trkpt><trkpt lat="38.98691017" lon="-0.51732629"><ele>155.2</ele><time>2022-11-13T12:59:30.0000000+00:00</time></trkpt><trkpt lat="38.98691202" lon="-0.51731505"><ele>155.0</ele><time>2022-11-13T12:59:31.0000000+00:00</time></trkpt><trkpt lat="38.98691378" lon="-0.51729737"><ele>154.8</ele><time>2022-11-13T12:59:32.0000000+00:00</time></trkpt><trkpt lat="38.98691428" lon="-0.5172863"><ele>154.6</ele><time>2022-11-13T12:59:33.0000000+00:00</time></trkpt><trkpt lat="38.98691897" lon="-0.51726895"><ele>154.2</ele><time>2022-11-13T12:59:34.0000000+00:00</time></trkpt><trkpt lat="38.98692224" lon="-0.51725781"><ele>154.2</ele><time>2022-11-13T12:59:35.0000000+00:00</time></trkpt><trkpt lat="38.98692107" lon="-0.517248"><ele>154.0</ele><time>2022-11-13T12:59:36.0000000+00:00</time></trkpt><trkpt lat="38.98692576" lon="-0.51723593"><ele>153.8</ele><time>2022-11-13T12:59:37.0000000+00:00</time></trkpt><trkpt lat="38.98693465" lon="-0.51722646"><ele>153.6</ele><time>2022-11-13T12:59:38.0000000+00:00</time></trkpt><trkpt lat="38.98694722" lon="-0.51721699"><ele>153.4</ele><time>2022-11-13T12:59:39.0000000+00:00</time></trkpt><trkpt lat="38.9869556" lon="-0.51720517"><ele>153.2</ele><time>2022-11-13T12:59:40.0000000+00:00</time></trkpt><trkpt lat="38.98696608" lon="-0.51719955"><ele>153.0</ele><time>2022-11-13T12:59:41.0000000+00:00</time></trkpt><trkpt lat="38.98697488" lon="-0.51719008"><ele>152.8</ele><time>2022-11-13T12:59:42.0000000+00:00</time></trkpt><trkpt lat="38.98698662" lon="-0.51718094"><ele>152.8</ele><time>2022-11-13T12:59:43.0000000+00:00</time></trkpt><trkpt lat="38.986995" lon="-0.51717843"><ele>152.6</ele><time>2022-11-13T12:59:44.0000000+00:00</time></trkpt><trkpt lat="38.98700489" lon="-0.51717994"><ele>152.6</ele><time>2022-11-13T12:59:45.0000000+00:00</time></trkpt><trkpt lat="38.98701981" lon="-0.51718338"><ele>152.4</ele><time>2022-11-13T12:59:46.0000000+00:00</time></trkpt><trkpt lat="38.98702635" lon="-0.51718312"><ele>152.2</ele><time>2022-11-13T12:59:47.0000000+00:00</time></trkpt><trkpt lat="38.98703992" lon="-0.51718388"><ele>152.0</ele><time>2022-11-13T12:59:48.0000000+00:00</time></trkpt><trkpt lat="38.98705602" lon="-0.51719117"><ele>151.6</ele><time>2022-11-13T12:59:49.0000000+00:00</time></trkpt><trkpt lat="38.98706633" lon="-0.5171967"><ele>151.4</ele><time>2022-11-13T12:59:50.0000000+00:00</time></trkpt><trkpt lat="38.98707622" lon="-0.51719804"><ele>151.2</ele><time>2022-11-13T12:59:51.0000000+00:00</time></trkpt><trkpt lat="38.98708183" lon="-0.51720232"><ele>151.0</ele><time>2022-11-13T12:59:52.0000000+00:00</time></trkpt><trkpt lat="38.98709105" lon="-0.51720928"><ele>150.8</ele><time>2022-11-13T12:59:53.0000000+00:00</time></trkpt><trkpt lat="38.98710053" lon="-0.51721321"><ele>150.6</ele><time>2022-11-13T12:59:54.0000000+00:00</time></trkpt><trkpt lat="38.98711008" lon="-0.51721824"><ele>150.4</ele><time>2022-11-13T12:59:55.0000000+00:00</time></trkpt><trkpt lat="38.98711888" lon="-0.51721154"><ele>150.2</ele><time>2022-11-13T12:59:56.0000000+00:00</time></trkpt><trkpt lat="38.98712433" lon="-0.51720114"><ele>150.0</ele><time>2022-11-13T12:59:57.0000000+00:00</time></trkpt><trkpt lat="38.98712726" lon="-0.51716904"><ele>150.0</ele><time>2022-11-13T12:59:58.0000000+00:00</time></trkpt><trkpt lat="38.98712626" lon="-0.51715295"><ele>149.8</ele><time>2022-11-13T12:59:59.0000000+00:00</time></trkpt><trkpt lat="38.98713179" lon="-0.51714256"><ele>149.8</ele><time>2022-11-13T13:00:00.0000000+00:00</time></trkpt><trkpt lat="38.98713917" lon="-0.51712579"><ele>149.8</ele><time>2022-11-13T13:00:01.0000000+00:00</time></trkpt><trkpt lat="38.98715191" lon="-0.51710811"><ele>149.8</ele><time>2022-11-13T13:00:02.0000000+00:00</time></trkpt><trkpt lat="38.9871535" lon="-0.51709428"><ele>149.8</ele><time>2022-11-13T13:00:03.0000000+00:00</time></trkpt><trkpt lat="38.98715895" lon="-0.51708028"><ele>149.8</ele><time>2022-11-13T13:00:04.0000000+00:00</time></trkpt><trkpt lat="38.98716071" lon="-0.51706477"><ele>149.8</ele><time>2022-11-13T13:00:05.0000000+00:00</time></trkpt><trkpt lat="38.98716071" lon="-0.51705035"><ele>150.0</ele><time>2022-11-13T13:00:06.0000000+00:00</time></trkpt><trkpt lat="38.98715819" lon="-0.51703493"><ele>150.0</ele><time>2022-11-13T13:00:07.0000000+00:00</time></trkpt><trkpt lat="38.98715124" lon="-0.51701884"><ele>149.8</ele><time>2022-11-13T13:00:08.0000000+00:00</time></trkpt><trkpt lat="38.98714378" lon="-0.51700509"><ele>149.8</ele><time>2022-11-13T13:00:09.0000000+00:00</time></trkpt><trkpt lat="38.98714755" lon="-0.51698715"><ele>149.8</ele><time>2022-11-13T13:00:10.0000000+00:00</time></trkpt><trkpt lat="38.98715308" lon="-0.51696578"><ele>149.8</ele><time>2022-11-13T13:00:11.0000000+00:00</time></trkpt><trkpt lat="38.98715685" lon="-0.51694198"><ele>149.6</ele><time>2022-11-13T13:00:12.0000000+00:00</time></trkpt><trkpt lat="38.98716305" lon="-0.5169206"><ele>149.6</ele><time>2022-11-13T13:00:13.0000000+00:00</time></trkpt><trkpt lat="38.98716331" lon="-0.51689604"><ele>149.4</ele><time>2022-11-13T13:00:14.0000000+00:00</time></trkpt><trkpt lat="38.98716205" lon="-0.51687568"><ele>149.4</ele><time>2022-11-13T13:00:15.0000000+00:00</time></trkpt><trkpt lat="38.98716431" lon="-0.51685849"><ele>149.4</ele><time>2022-11-13T13:00:16.0000000+00:00</time></trkpt><trkpt lat="38.98717093" lon="-0.51684341"><ele>149.4</ele><time>2022-11-13T13:00:17.0000000+00:00</time></trkpt><trkpt lat="38.98717378" lon="-0.51682379"><ele>149.4</ele><time>2022-11-13T13:00:18.0000000+00:00</time></trkpt><trkpt lat="38.98717403" lon="-0.51681105"><ele>149.4</ele><time>2022-11-13T13:00:19.0000000+00:00</time></trkpt><trkpt lat="38.9871742" lon="-0.51679974"><ele>149.2</ele><time>2022-11-13T13:00:20.0000000+00:00</time></trkpt><trkpt lat="38.98717445" lon="-0.51678641"><ele>149.2</ele><time>2022-11-13T13:00:21.0000000+00:00</time></trkpt><trkpt lat="38.98717336" lon="-0.51677124"><ele>149.0</ele><time>2022-11-13T13:00:22.0000000+00:00</time></trkpt><trkpt lat="38.98717638" lon="-0.51675079"><ele>149.0</ele><time>2022-11-13T13:00:23.0000000+00:00</time></trkpt><trkpt lat="38.9871804" lon="-0.51673134"><ele>149.0</ele><time>2022-11-13T13:00:24.0000000+00:00</time></trkpt><trkpt lat="38.98718518" lon="-0.51670435"><ele>148.8</ele><time>2022-11-13T13:00:25.0000000+00:00</time></trkpt><trkpt lat="38.9871877" lon="-0.51667878"><ele>148.8</ele><time>2022-11-13T13:00:26.0000000+00:00</time></trkpt><trkpt lat="38.9871887" lon="-0.51666135"><ele>148.8</ele><time>2022-11-13T13:00:27.0000000+00:00</time></trkpt><trkpt lat="38.9871887" lon="-0.5166404"><ele>148.8</ele><time>2022-11-13T13:00:28.0000000+00:00</time></trkpt><trkpt lat="38.98718803" lon="-0.51661894"><ele>148.6</ele><time>2022-11-13T13:00:29.0000000+00:00</time></trkpt><trkpt lat="38.98719113" lon="-0.51659857"><ele>148.6</ele><time>2022-11-13T13:00:30.0000000+00:00</time></trkpt><trkpt lat="38.98719415" lon="-0.51658256"><ele>148.6</ele><time>2022-11-13T13:00:31.0000000+00:00</time></trkpt><trkpt lat="38.9871934" lon="-0.5165611"><ele>148.4</ele><time>2022-11-13T13:00:32.0000000+00:00</time></trkpt><trkpt lat="38.9871918" lon="-0.5165513"><ele>148.4</ele><time>2022-11-13T13:00:33.0000000+00:00</time></trkpt><trkpt lat="38.98719155" lon="-0.51653822"><ele>148.4</ele><time>2022-11-13T13:00:34.0000000+00:00</time></trkpt><trkpt lat="38.98718929" lon="-0.5165202"><ele>148.4</ele><time>2022-11-13T13:00:35.0000000+00:00</time></trkpt><trkpt lat="38.9871877" lon="-0.51650805"><ele>148.4</ele><time>2022-11-13T13:00:36.0000000+00:00</time></trkpt><trkpt lat="38.98718518" lon="-0.51649053"><ele>148.2</ele><time>2022-11-13T13:00:37.0000000+00:00</time></trkpt><trkpt lat="38.98718359" lon="-0.51647024"><ele>148.0</ele><time>2022-11-13T13:00:38.0000000+00:00</time></trkpt><trkpt lat="38.98718007" lon="-0.51645801"><ele>148.0</ele><time>2022-11-13T13:00:39.0000000+00:00</time></trkpt><trkpt lat="38.98718585" lon="-0.51645147"><ele>148.0</ele><time>2022-11-13T13:00:40.0000000+00:00</time></trkpt><trkpt lat="38.98719675" lon="-0.51644677"><ele>147.8</ele><time>2022-11-13T13:00:41.0000000+00:00</time></trkpt><trkpt lat="38.98720077" lon="-0.51644007"><ele>147.8</ele><time>2022-11-13T13:00:42.0000000+00:00</time></trkpt><trkpt lat="38.98720614" lon="-0.51643018"><ele>147.8</ele><time>2022-11-13T13:00:43.0000000+00:00</time></trkpt><trkpt lat="38.98721603" lon="-0.51641073"><ele>147.8</ele><time>2022-11-13T13:00:44.0000000+00:00</time></trkpt><trkpt lat="38.98721796" lon="-0.51640176"><ele>147.6</ele><time>2022-11-13T13:00:45.0000000+00:00</time></trkpt><trkpt lat="38.98722206" lon="-0.51639279"><ele>147.6</ele><time>2022-11-13T13:00:46.0000000+00:00</time></trkpt><trkpt lat="38.9872229" lon="-0.51637854"><ele>147.4</ele><time>2022-11-13T13:00:47.0000000+00:00</time></trkpt><trkpt lat="38.98721427" lon="-0.51637058"><ele>147.4</ele><time>2022-11-13T13:00:48.0000000+00:00</time></trkpt><trkpt lat="38.98720169" lon="-0.51636195"><ele>147.4</ele><time>2022-11-13T13:00:49.0000000+00:00</time></trkpt><trkpt lat="38.98720144" lon="-0.51634594"><ele>147.4</ele><time>2022-11-13T13:00:50.0000000+00:00</time></trkpt><trkpt lat="38.98720295" lon="-0.51631912"><ele>147.4</ele><time>2022-11-13T13:00:51.0000000+00:00</time></trkpt><trkpt lat="38.98720966" lon="-0.51629682"><ele>147.4</ele><time>2022-11-13T13:00:52.0000000+00:00</time></trkpt><trkpt lat="38.98721075" lon="-0.51627805"><ele>147.2</ele><time>2022-11-13T13:00:53.0000000+00:00</time></trkpt><trkpt lat="38.98721427" lon="-0.51625659"><ele>147.2</ele><time>2022-11-13T13:00:54.0000000+00:00</time></trkpt><trkpt lat="38.98721586" lon="-0.51624846"><ele>147.2</ele><time>2022-11-13T13:00:55.0000000+00:00</time></trkpt><trkpt lat="38.98722684" lon="-0.51623907"><ele>147.2</ele><time>2022-11-13T13:00:56.0000000+00:00</time></trkpt><trkpt lat="38.98724034" lon="-0.51622566"><ele>147.0</ele><time>2022-11-13T13:00:57.0000000+00:00</time></trkpt><trkpt lat="38.98725056" lon="-0.51621099"><ele>147.0</ele><time>2022-11-13T13:00:58.0000000+00:00</time></trkpt><trkpt lat="38.98725961" lon="-0.51619247"><ele>147.0</ele><time>2022-11-13T13:00:59.0000000+00:00</time></trkpt><trkpt lat="38.98726699" lon="-0.51616564"><ele>146.8</ele><time>2022-11-13T13:01:00.0000000+00:00</time></trkpt><trkpt lat="38.98726816" lon="-0.51614972"><ele>146.6</ele><time>2022-11-13T13:01:01.0000000+00:00</time></trkpt><trkpt lat="38.987268" lon="-0.51612625"><ele>146.6</ele><time>2022-11-13T13:01:02.0000000+00:00</time></trkpt><trkpt lat="38.98727059" lon="-0.51610328"><ele>146.4</ele><time>2022-11-13T13:01:03.0000000+00:00</time></trkpt><trkpt lat="38.98727177" lon="-0.51608426"><ele>146.4</ele><time>2022-11-13T13:01:04.0000000+00:00</time></trkpt><trkpt lat="38.98727646" lon="-0.51606573"><ele>146.2</ele><time>2022-11-13T13:01:05.0000000+00:00</time></trkpt><trkpt lat="38.98729255" lon="-0.5160462"><ele>146.2</ele><time>2022-11-13T13:01:06.0000000+00:00</time></trkpt><trkpt lat="38.98730194" lon="-0.51603589"><ele>146.0</ele><time>2022-11-13T13:01:07.0000000+00:00</time></trkpt><trkpt lat="38.98730773" lon="-0.51602349"><ele>146.0</ele><time>2022-11-13T13:01:08.0000000+00:00</time></trkpt><trkpt lat="38.98731384" lon="-0.51601351"><ele>145.8</ele><time>2022-11-13T13:01:09.0000000+00:00</time></trkpt><trkpt lat="38.98731812" lon="-0.51599398"><ele>145.8</ele><time>2022-11-13T13:01:10.0000000+00:00</time></trkpt><trkpt lat="38.98732089" lon="-0.51597906"><ele>145.6</ele><time>2022-11-13T13:01:11.0000000+00:00</time></trkpt><trkpt lat="38.9873234" lon="-0.51596305"><ele>145.6</ele><time>2022-11-13T13:01:12.0000000+00:00</time></trkpt><trkpt lat="38.98732851" lon="-0.51594512"><ele>145.6</ele><time>2022-11-13T13:01:13.0000000+00:00</time></trkpt><trkpt lat="38.98733078" lon="-0.51592969"><ele>145.8</ele><time>2022-11-13T13:01:14.0000000+00:00</time></trkpt><trkpt lat="38.98733128" lon="-0.51591938"><ele>145.8</ele><time>2022-11-13T13:01:15.0000000+00:00</time></trkpt><trkpt lat="38.98733396" lon="-0.51590212"><ele>146.0</ele><time>2022-11-13T13:01:16.0000000+00:00</time></trkpt><trkpt lat="38.98733664" lon="-0.51588804"><ele>146.0</ele><time>2022-11-13T13:01:17.0000000+00:00</time></trkpt><trkpt lat="38.98734402" lon="-0.51586909"><ele>146.0</ele><time>2022-11-13T13:01:18.0000000+00:00</time></trkpt><trkpt lat="38.98735198" lon="-0.51585116"><ele>146.0</ele><time>2022-11-13T13:01:19.0000000+00:00</time></trkpt><trkpt lat="38.98736154" lon="-0.51583422"><ele>146.0</ele><time>2022-11-13T13:01:20.0000000+00:00</time></trkpt><trkpt lat="38.98736397" lon="-0.51581327"><ele>146.0</ele><time>2022-11-13T13:01:21.0000000+00:00</time></trkpt><trkpt lat="38.98736145" lon="-0.51579718"><ele>146.2</ele><time>2022-11-13T13:01:22.0000000+00:00</time></trkpt><trkpt lat="38.98735777" lon="-0.51578284"><ele>146.2</ele><time>2022-11-13T13:01:23.0000000+00:00</time></trkpt><trkpt lat="38.98735651" lon="-0.51576843"><ele>146.2</ele><time>2022-11-13T13:01:24.0000000+00:00</time></trkpt><trkpt lat="38.98735349" lon="-0.51575451"><ele>146.2</ele><time>2022-11-13T13:01:25.0000000+00:00</time></trkpt><trkpt lat="38.98735542" lon="-0.5157416"><ele>146.2</ele><time>2022-11-13T13:01:26.0000000+00:00</time></trkpt><trkpt lat="38.98735927" lon="-0.51572945"><ele>146.2</ele><time>2022-11-13T13:01:27.0000000+00:00</time></trkpt><trkpt lat="38.98735969" lon="-0.51572182"><ele>146.2</ele><time>2022-11-13T13:01:28.0000000+00:00</time></trkpt><trkpt lat="38.9873628" lon="-0.51571009"><ele>146.2</ele><time>2022-11-13T13:01:29.0000000+00:00</time></trkpt><trkpt lat="38.9873695" lon="-0.51570246"><ele>146.2</ele><time>2022-11-13T13:01:30.0000000+00:00</time></trkpt><trkpt lat="38.98737436" lon="-0.51569601"><ele>146.0</ele><time>2022-11-13T13:01:31.0000000+00:00</time></trkpt><trkpt lat="38.98738878" lon="-0.51568687"><ele>146.0</ele><time>2022-11-13T13:01:32.0000000+00:00</time></trkpt><trkpt lat="38.9874032" lon="-0.51567379"><ele>146.0</ele><time>2022-11-13T13:01:33.0000000+00:00</time></trkpt><trkpt lat="38.98741351" lon="-0.51565787"><ele>146.0</ele><time>2022-11-13T13:01:34.0000000+00:00</time></trkpt><trkpt lat="38.98742172" lon="-0.51564982"><ele>146.0</ele><time>2022-11-13T13:01:35.0000000+00:00</time></trkpt><trkpt lat="38.98742398" lon="-0.51564027"><ele>146.0</ele><time>2022-11-13T13:01:36.0000000+00:00</time></trkpt><trkpt lat="38.98743077" lon="-0.51561269"><ele>146.0</ele><time>2022-11-13T13:01:37.0000000+00:00</time></trkpt><trkpt lat="38.98743597" lon="-0.51559601"><ele>146.0</ele><time>2022-11-13T13:01:38.0000000+00:00</time></trkpt><trkpt lat="38.98744142" lon="-0.51557958"><ele>146.0</ele><time>2022-11-13T13:01:39.0000000+00:00</time></trkpt><trkpt lat="38.98744452" lon="-0.51556315"><ele>146.0</ele><time>2022-11-13T13:01:40.0000000+00:00</time></trkpt><trkpt lat="38.98744544" lon="-0.51554253"><ele>146.0</ele><time>2022-11-13T13:01:41.0000000+00:00</time></trkpt><trkpt lat="38.98744628" lon="-0.51552527"><ele>146.2</ele><time>2022-11-13T13:01:42.0000000+00:00</time></trkpt><trkpt lat="38.98745022" lon="-0.51550674"><ele>146.4</ele><time>2022-11-13T13:01:43.0000000+00:00</time></trkpt><trkpt lat="38.98745114" lon="-0.51549182"><ele>146.4</ele><time>2022-11-13T13:01:44.0000000+00:00</time></trkpt><trkpt lat="38.98745424" lon="-0.51547254"><ele>146.4</ele><time>2022-11-13T13:01:45.0000000+00:00</time></trkpt><trkpt lat="38.98745801" lon="-0.51545654"><ele>146.6</ele><time>2022-11-13T13:01:46.0000000+00:00</time></trkpt><trkpt lat="38.9874638" lon="-0.51544648"><ele>146.6</ele><time>2022-11-13T13:01:47.0000000+00:00</time></trkpt><trkpt lat="38.98746841" lon="-0.51543742"><ele>146.6</ele><time>2022-11-13T13:01:48.0000000+00:00</time></trkpt><trkpt lat="38.98747553" lon="-0.51542452"><ele>146.6</ele><time>2022-11-13T13:01:49.0000000+00:00</time></trkpt><trkpt lat="38.98747788" lon="-0.51540708"><ele>146.6</ele><time>2022-11-13T13:01:50.0000000+00:00</time></trkpt><trkpt lat="38.98747494" lon="-0.5153837"><ele>146.6</ele><time>2022-11-13T13:01:51.0000000+00:00</time></trkpt><trkpt lat="38.98747771" lon="-0.51536207"><ele>146.8</ele><time>2022-11-13T13:01:52.0000000+00:00</time></trkpt><trkpt lat="38.98748123" lon="-0.51534003"><ele>146.8</ele><time>2022-11-13T13:01:53.0000000+00:00</time></trkpt><trkpt lat="38.98748802" lon="-0.51531413"><ele>146.8</ele><time>2022-11-13T13:01:54.0000000+00:00</time></trkpt><trkpt lat="38.98749883" lon="-0.51529527"><ele>146.8</ele><time>2022-11-13T13:01:55.0000000+00:00</time></trkpt><trkpt lat="38.98750864" lon="-0.51527624"><ele>146.8</ele><time>2022-11-13T13:01:56.0000000+00:00</time></trkpt><trkpt lat="38.98751526" lon="-0.51525721"><ele>146.8</ele><time>2022-11-13T13:01:57.0000000+00:00</time></trkpt><trkpt lat="38.98752381" lon="-0.51523416"><ele>146.6</ele><time>2022-11-13T13:01:58.0000000+00:00</time></trkpt><trkpt lat="38.98752968" lon="-0.515221"><ele>146.6</ele><time>2022-11-13T13:01:59.0000000+00:00</time></trkpt><trkpt lat="38.98753496" lon="-0.51520642"><ele>146.4</ele><time>2022-11-13T13:02:00.0000000+00:00</time></trkpt><trkpt lat="38.9875399" lon="-0.51519259"><ele>146.4</ele><time>2022-11-13T13:02:01.0000000+00:00</time></trkpt><trkpt lat="38.98753722" lon="-0.51517264"><ele>146.2</ele><time>2022-11-13T13:02:02.0000000+00:00</time></trkpt><trkpt lat="38.987542" lon="-0.51515479"><ele>146.2</ele><time>2022-11-13T13:02:03.0000000+00:00</time></trkpt><trkpt lat="38.9875508" lon="-0.51514557"><ele>146.2</ele><time>2022-11-13T13:02:04.0000000+00:00</time></trkpt><trkpt lat="38.98755524" lon="-0.51514724"><ele>146.0</ele><time>2022-11-13T13:02:05.0000000+00:00</time></trkpt><trkpt lat="38.98756111" lon="-0.51514448"><ele>145.8</ele><time>2022-11-13T13:02:06.0000000+00:00</time></trkpt><trkpt lat="38.98756346" lon="-0.51513492"><ele>145.8</ele><time>2022-11-13T13:02:07.0000000+00:00</time></trkpt><trkpt lat="38.98756689" lon="-0.5151231"><ele>145.8</ele><time>2022-11-13T13:02:08.0000000+00:00</time></trkpt><trkpt lat="38.98757444" lon="-0.51510911"><ele>145.6</ele><time>2022-11-13T13:02:09.0000000+00:00</time></trkpt><trkpt lat="38.98758735" lon="-0.51509712"><ele>145.6</ele><time>2022-11-13T13:02:10.0000000+00:00</time></trkpt><trkpt lat="38.98759992" lon="-0.51507608"><ele>145.4</ele><time>2022-11-13T13:02:11.0000000+00:00</time></trkpt><trkpt lat="38.98760495" lon="-0.5150542"><ele>145.4</ele><time>2022-11-13T13:02:12.0000000+00:00</time></trkpt><trkpt lat="38.98760947" lon="-0.5150273"><ele>145.2</ele><time>2022-11-13T13:02:13.0000000+00:00</time></trkpt><trkpt lat="38.98761476" lon="-0.51500819"><ele>145.2</ele><time>2022-11-13T13:02:14.0000000+00:00</time></trkpt><trkpt lat="38.98762087" lon="-0.51499595"><ele>145.0</ele><time>2022-11-13T13:02:15.0000000+00:00</time></trkpt><trkpt lat="38.98762967" lon="-0.51498346"><ele>145.0</ele><time>2022-11-13T13:02:16.0000000+00:00</time></trkpt><trkpt lat="38.98763328" lon="-0.5149677"><ele>144.8</ele><time>2022-11-13T13:02:17.0000000+00:00</time></trkpt><trkpt lat="38.98763797" lon="-0.51495438"><ele>144.6</ele><time>2022-11-13T13:02:18.0000000+00:00</time></trkpt><trkpt lat="38.98764099" lon="-0.51493694"><ele>144.4</ele><time>2022-11-13T13:02:19.0000000+00:00</time></trkpt><trkpt lat="38.98764074" lon="-0.51491649"><ele>144.4</ele><time>2022-11-13T13:02:20.0000000+00:00</time></trkpt><trkpt lat="38.98764225" lon="-0.51489512"><ele>144.2</ele><time>2022-11-13T13:02:21.0000000+00:00</time></trkpt><trkpt lat="38.98764057" lon="-0.5148807"><ele>144.2</ele><time>2022-11-13T13:02:22.0000000+00:00</time></trkpt><trkpt lat="38.98765096" lon="-0.51487751"><ele>144.0</ele><time>2022-11-13T13:02:23.0000000+00:00</time></trkpt><trkpt lat="38.98765616" lon="-0.5148667"><ele>143.8</ele><time>2022-11-13T13:02:24.0000000+00:00</time></trkpt><trkpt lat="38.98766169" lon="-0.51485606"><ele>143.6</ele><time>2022-11-13T13:02:25.0000000+00:00</time></trkpt><trkpt lat="38.98766387" lon="-0.51484994"><ele>143.4</ele><time>2022-11-13T13:02:26.0000000+00:00</time></trkpt><trkpt lat="38.98766999" lon="-0.51484055"><ele>143.4</ele><time>2022-11-13T13:02:27.0000000+00:00</time></trkpt><trkpt lat="38.98768483" lon="-0.51482328"><ele>143.4</ele><time>2022-11-13T13:02:28.0000000+00:00</time></trkpt><trkpt lat="38.98769539" lon="-0.51480115"><ele>143.2</ele><time>2022-11-13T13:02:29.0000000+00:00</time></trkpt><trkpt lat="38.98769924" lon="-0.5147771"><ele>143.0</ele><time>2022-11-13T13:02:30.0000000+00:00</time></trkpt><trkpt lat="38.9877036" lon="-0.5147595"><ele>143.0</ele><time>2022-11-13T13:02:31.0000000+00:00</time></trkpt><trkpt lat="38.98770444" lon="-0.51474575"><ele>142.8</ele><time>2022-11-13T13:02:32.0000000+00:00</time></trkpt><trkpt lat="38.98770226" lon="-0.51473108"><ele>142.8</ele><time>2022-11-13T13:02:33.0000000+00:00</time></trkpt><trkpt lat="38.98769547" lon="-0.51471868"><ele>142.8</ele><time>2022-11-13T13:02:34.0000000+00:00</time></trkpt><trkpt lat="38.9876943" lon="-0.51470602"><ele>142.8</ele><time>2022-11-13T13:02:35.0000000+00:00</time></trkpt><trkpt lat="38.98769556" lon="-0.5146859"><ele>142.6</ele><time>2022-11-13T13:02:36.0000000+00:00</time></trkpt><trkpt lat="38.98769698" lon="-0.51467291"><ele>142.6</ele><time>2022-11-13T13:02:37.0000000+00:00</time></trkpt><trkpt lat="38.98769547" lon="-0.51465908"><ele>142.6</ele><time>2022-11-13T13:02:38.0000000+00:00</time></trkpt><trkpt lat="38.98769438" lon="-0.51465388"><ele>142.6</ele><time>2022-11-13T13:02:39.0000000+00:00</time></trkpt><trkpt lat="38.98769606" lon="-0.51465229"><ele>142.4</ele><time>2022-11-13T13:02:40.0000000+00:00</time></trkpt><trkpt lat="38.98769556" lon="-0.51464282"><ele>142.4</ele><time>2022-11-13T13:02:41.0000000+00:00</time></trkpt><trkpt lat="38.98769271" lon="-0.51463042"><ele>142.2</ele><time>2022-11-13T13:02:42.0000000+00:00</time></trkpt><trkpt lat="38.98768634" lon="-0.51461432"><ele>142.2</ele><time>2022-11-13T13:02:43.0000000+00:00</time></trkpt><trkpt lat="38.98768424" lon="-0.51459873"><ele>142.2</ele><time>2022-11-13T13:02:44.0000000+00:00</time></trkpt><trkpt lat="38.98768533" lon="-0.51458222"><ele>142.0</ele><time>2022-11-13T13:02:45.0000000+00:00</time></trkpt><trkpt lat="38.98768743" lon="-0.51456462"><ele>142.0</ele><time>2022-11-13T13:02:46.0000000+00:00</time></trkpt><trkpt lat="38.98768617" lon="-0.51454241"><ele>142.0</ele><time>2022-11-13T13:02:47.0000000+00:00</time></trkpt><trkpt lat="38.98768885" lon="-0.51451231"><ele>141.8</ele><time>2022-11-13T13:02:48.0000000+00:00</time></trkpt><trkpt lat="38.98770277" lon="-0.51449019"><ele>141.8</ele><time>2022-11-13T13:02:49.0000000+00:00</time></trkpt><trkpt lat="38.98771676" lon="-0.51446387"><ele>141.8</ele><time>2022-11-13T13:02:50.0000000+00:00</time></trkpt><trkpt lat="38.98773545" lon="-0.51444191"><ele>141.8</ele><time>2022-11-13T13:02:51.0000000+00:00</time></trkpt><trkpt lat="38.98774074" lon="-0.51442338"><ele>141.6</ele><time>2022-11-13T13:02:52.0000000+00:00</time></trkpt><trkpt lat="38.9877342" lon="-0.51439975"><ele>141.6</ele><time>2022-11-13T13:02:53.0000000+00:00</time></trkpt><trkpt lat="38.98773395" lon="-0.51438248"><ele>141.6</ele><time>2022-11-13T13:02:54.0000000+00:00</time></trkpt><trkpt lat="38.98774174" lon="-0.51436345"><ele>141.6</ele><time>2022-11-13T13:02:55.0000000+00:00</time></trkpt><trkpt lat="38.98774141" lon="-0.5143404"><ele>141.4</ele><time>2022-11-13T13:02:56.0000000+00:00</time></trkpt><trkpt lat="38.98774032" lon="-0.51433093"><ele>141.2</ele><time>2022-11-13T13:02:57.0000000+00:00</time></trkpt><trkpt lat="38.98773897" lon="-0.51431886"><ele>141.0</ele><time>2022-11-13T13:02:58.0000000+00:00</time></trkpt><trkpt lat="38.98774099" lon="-0.51430687"><ele>140.8</ele><time>2022-11-13T13:02:59.0000000+00:00</time></trkpt><trkpt lat="38.9877435" lon="-0.51429279"><ele>140.6</ele><time>2022-11-13T13:03:00.0000000+00:00</time></trkpt><trkpt lat="38.98773923" lon="-0.51427418"><ele>140.6</ele><time>2022-11-13T13:03:01.0000000+00:00</time></trkpt><trkpt lat="38.98773713" lon="-0.51425482"><ele>140.4</ele><time>2022-11-13T13:03:02.0000000+00:00</time></trkpt><trkpt lat="38.98773294" lon="-0.51423932"><ele>140.2</ele><time>2022-11-13T13:03:03.0000000+00:00</time></trkpt><trkpt lat="38.9877321" lon="-0.51422414"><ele>140.2</ele><time>2022-11-13T13:03:04.0000000+00:00</time></trkpt><trkpt lat="38.98772908" lon="-0.51420788"><ele>140.0</ele><time>2022-11-13T13:03:05.0000000+00:00</time></trkpt><trkpt lat="38.98772548" lon="-0.51419154"><ele>140.0</ele><time>2022-11-13T13:03:06.0000000+00:00</time></trkpt><trkpt lat="38.98772003" lon="-0.51417293"><ele>139.8</ele><time>2022-11-13T13:03:07.0000000+00:00</time></trkpt><trkpt lat="38.9877166" lon="-0.51415466"><ele>139.6</ele><time>2022-11-13T13:03:08.0000000+00:00</time></trkpt><trkpt lat="38.98771534" lon="-0.51413831"><ele>139.6</ele><time>2022-11-13T13:03:09.0000000+00:00</time></trkpt><trkpt lat="38.98771626" lon="-0.51412281"><ele>139.4</ele><time>2022-11-13T13:03:10.0000000+00:00</time></trkpt><trkpt lat="38.98771903" lon="-0.51410588"><ele>139.4</ele><time>2022-11-13T13:03:11.0000000+00:00</time></trkpt><trkpt lat="38.98772422" lon="-0.51409037"><ele>139.2</ele><time>2022-11-13T13:03:12.0000000+00:00</time></trkpt><trkpt lat="38.98772892" lon="-0.51407453"><ele>139.0</ele><time>2022-11-13T13:03:13.0000000+00:00</time></trkpt><trkpt lat="38.98773185" lon="-0.51406019"><ele>138.8</ele><time>2022-11-13T13:03:14.0000000+00:00</time></trkpt><trkpt lat="38.98773747" lon="-0.51404578"><ele>138.6</ele><time>2022-11-13T13:03:15.0000000+00:00</time></trkpt><trkpt lat="38.9877404" lon="-0.51403103"><ele>138.4</ele><time>2022-11-13T13:03:16.0000000+00:00</time></trkpt><trkpt lat="38.98774275" lon="-0.51401795"><ele>138.2</ele><time>2022-11-13T13:03:17.0000000+00:00</time></trkpt><trkpt lat="38.987744" lon="-0.51400554"><ele>138.0</ele><time>2022-11-13T13:03:18.0000000+00:00</time></trkpt><trkpt lat="38.98774752" lon="-0.51399054"><ele>138.0</ele><time>2022-11-13T13:03:19.0000000+00:00</time></trkpt><trkpt lat="38.98775322" lon="-0.51397881"><ele>137.8</ele><time>2022-11-13T13:03:20.0000000+00:00</time></trkpt><trkpt lat="38.98775976" lon="-0.51396363"><ele>137.8</ele><time>2022-11-13T13:03:21.0000000+00:00</time></trkpt><trkpt lat="38.9877658" lon="-0.51394796"><ele>137.6</ele><time>2022-11-13T13:03:22.0000000+00:00</time></trkpt><trkpt lat="38.98776965" lon="-0.51393187"><ele>137.4</ele><time>2022-11-13T13:03:23.0000000+00:00</time></trkpt><trkpt lat="38.98777041" lon="-0.51391737"><ele>137.2</ele><time>2022-11-13T13:03:24.0000000+00:00</time></trkpt><trkpt lat="38.98777041" lon="-0.51390102"><ele>137.2</ele><time>2022-11-13T13:03:25.0000000+00:00</time></trkpt><trkpt lat="38.98776697" lon="-0.51388191"><ele>137.0</ele><time>2022-11-13T13:03:26.0000000+00:00</time></trkpt><trkpt lat="38.98776605" lon="-0.51386724"><ele>137.0</ele><time>2022-11-13T13:03:27.0000000+00:00</time></trkpt><trkpt lat="38.98776605" lon="-0.5138478"><ele>136.8</ele><time>2022-11-13T13:03:28.0000000+00:00</time></trkpt><trkpt lat="38.98776412" lon="-0.5138307"><ele>136.8</ele><time>2022-11-13T13:03:29.0000000+00:00</time></trkpt><trkpt lat="38.98776161" lon="-0.51381251"><ele>136.8</ele><time>2022-11-13T13:03:30.0000000+00:00</time></trkpt><trkpt lat="38.98776077" lon="-0.51380161"><ele>136.6</ele><time>2022-11-13T13:03:31.0000000+00:00</time></trkpt><trkpt lat="38.98776203" lon="-0.51379013"><ele>136.4</ele><time>2022-11-13T13:03:32.0000000+00:00</time></trkpt><trkpt lat="38.98776949" lon="-0.51377194"><ele>136.2</ele><time>2022-11-13T13:03:33.0000000+00:00</time></trkpt><trkpt lat="38.98778155" lon="-0.51374571"><ele>136.0</ele><time>2022-11-13T13:03:34.0000000+00:00</time></trkpt><trkpt lat="38.98779136" lon="-0.51373246"><ele>135.8</ele><time>2022-11-13T13:03:35.0000000+00:00</time></trkpt><trkpt lat="38.98779681" lon="-0.51371536"><ele>135.8</ele><time>2022-11-13T13:03:36.0000000+00:00</time></trkpt><trkpt lat="38.98779941" lon="-0.51369592"><ele>135.6</ele><time>2022-11-13T13:03:37.0000000+00:00</time></trkpt><trkpt lat="38.9878" lon="-0.51368561"><ele>135.6</ele><time>2022-11-13T13:03:38.0000000+00:00</time></trkpt><trkpt lat="38.98780209" lon="-0.51367806"><ele>135.6</ele><time>2022-11-13T13:03:39.0000000+00:00</time></trkpt><trkpt lat="38.98780519" lon="-0.51366356"><ele>135.4</ele><time>2022-11-13T13:03:40.0000000+00:00</time></trkpt><trkpt lat="38.98781156" lon="-0.51365283"><ele>135.4</ele><time>2022-11-13T13:03:41.0000000+00:00</time></trkpt><trkpt lat="38.98781986" lon="-0.5136406"><ele>135.4</ele><time>2022-11-13T13:03:42.0000000+00:00</time></trkpt><trkpt lat="38.98782447" lon="-0.51362065"><ele>135.2</ele><time>2022-11-13T13:03:43.0000000+00:00</time></trkpt><trkpt lat="38.98782464" lon="-0.51360011"><ele>135.2</ele><time>2022-11-13T13:03:44.0000000+00:00</time></trkpt><trkpt lat="38.98782422" lon="-0.51357966"><ele>135.0</ele><time>2022-11-13T13:03:45.0000000+00:00</time></trkpt><trkpt lat="38.98782489" lon="-0.51356063"><ele>135.0</ele><time>2022-11-13T13:03:46.0000000+00:00</time></trkpt><trkpt lat="38.98782849" lon="-0.51354102"><ele>134.8</ele><time>2022-11-13T13:03:47.0000000+00:00</time></trkpt><trkpt lat="38.98782522" lon="-0.51352367"><ele>134.8</ele><time>2022-11-13T13:03:48.0000000+00:00</time></trkpt><trkpt lat="38.98781961" lon="-0.51350607"><ele>134.8</ele><time>2022-11-13T13:03:49.0000000+00:00</time></trkpt><trkpt lat="38.98781299" lon="-0.51348595"><ele>134.8</ele><time>2022-11-13T13:03:50.0000000+00:00</time></trkpt><trkpt lat="38.9878098" lon="-0.51347036"><ele>134.6</ele><time>2022-11-13T13:03:51.0000000+00:00</time></trkpt><trkpt lat="38.98780804" lon="-0.51345293"><ele>134.6</ele><time>2022-11-13T13:03:52.0000000+00:00</time></trkpt><trkpt lat="38.98780251" lon="-0.51343775"><ele>134.2</ele><time>2022-11-13T13:03:53.0000000+00:00</time></trkpt><trkpt lat="38.98779991" lon="-0.51341822"><ele>134.0</ele><time>2022-11-13T13:03:54.0000000+00:00</time></trkpt><trkpt lat="38.98779941" lon="-0.51340481"><ele>133.8</ele><time>2022-11-13T13:03:55.0000000+00:00</time></trkpt><trkpt lat="38.98779899" lon="-0.51339341"><ele>133.8</ele><time>2022-11-13T13:03:56.0000000+00:00</time></trkpt><trkpt lat="38.98779916" lon="-0.5133795"><ele>133.6</ele><time>2022-11-13T13:03:57.0000000+00:00</time></trkpt><trkpt lat="38.9878015" lon="-0.51336961"><ele>133.6</ele><time>2022-11-13T13:03:58.0000000+00:00</time></trkpt><trkpt lat="38.98780746" lon="-0.5133619"><ele>133.4</ele><time>2022-11-13T13:03:59.0000000+00:00</time></trkpt><trkpt lat="38.98780997" lon="-0.5133505"><ele>133.4</ele><time>2022-11-13T13:04:00.0000000+00:00</time></trkpt><trkpt lat="38.98781005" lon="-0.51333508"><ele>133.2</ele><time>2022-11-13T13:04:01.0000000+00:00</time></trkpt><trkpt lat="38.98780427" lon="-0.51331848"><ele>133.0</ele><time>2022-11-13T13:04:02.0000000+00:00</time></trkpt><trkpt lat="38.98780217" lon="-0.51330859"><ele>133.0</ele><time>2022-11-13T13:04:03.0000000+00:00</time></trkpt><trkpt lat="38.98780117" lon="-0.51329887"><ele>133.0</ele><time>2022-11-13T13:04:04.0000000+00:00</time></trkpt><trkpt lat="38.98780435" lon="-0.51329526"><ele>132.8</ele><time>2022-11-13T13:04:05.0000000+00:00</time></trkpt><trkpt lat="38.98780653" lon="-0.51329166"><ele>132.8</ele><time>2022-11-13T13:04:06.0000000+00:00</time></trkpt><trkpt lat="38.98780569" lon="-0.51328839"><ele>132.8</ele><time>2022-11-13T13:04:07.0000000+00:00</time></trkpt><trkpt lat="38.98780067" lon="-0.51327406"><ele>132.8</ele><time>2022-11-13T13:04:08.0000000+00:00</time></trkpt><trkpt lat="38.98779572" lon="-0.51325779"><ele>132.8</ele><time>2022-11-13T13:04:09.0000000+00:00</time></trkpt><trkpt lat="38.98778935" lon="-0.51324807"><ele>132.8</ele><time>2022-11-13T13:04:10.0000000+00:00</time></trkpt><trkpt lat="38.98778742" lon="-0.5132407"><ele>132.8</ele><time>2022-11-13T13:04:11.0000000+00:00</time></trkpt><trkpt lat="38.98779421" lon="-0.51322963"><ele>132.8</ele><time>2022-11-13T13:04:12.0000000+00:00</time></trkpt><trkpt lat="38.98779346" lon="-0.51322318"><ele>132.8</ele><time>2022-11-13T13:04:13.0000000+00:00</time></trkpt><trkpt lat="38.9877922" lon="-0.51322075"><ele>132.8</ele><time>2022-11-13T13:04:14.0000000+00:00</time></trkpt><trkpt lat="38.98779983" lon="-0.51321287"><ele>132.8</ele><time>2022-11-13T13:04:15.0000000+00:00</time></trkpt><trkpt lat="38.98780234" lon="-0.51321371"><ele>132.8</ele><time>2022-11-13T13:04:16.0000000+00:00</time></trkpt><trkpt lat="38.98780511" lon="-0.51321597"><ele>132.6</ele><time>2022-11-13T13:04:17.0000000+00:00</time></trkpt><trkpt lat="38.98779916" lon="-0.51322125"><ele>132.6</ele><time>2022-11-13T13:04:18.0000000+00:00</time></trkpt><trkpt lat="38.98780251" lon="-0.51322569"><ele>132.8</ele><time>2022-11-13T13:04:19.0000000+00:00</time></trkpt><trkpt lat="38.98781148" lon="-0.51323382"><ele>132.8</ele><time>2022-11-13T13:04:20.0000000+00:00</time></trkpt><trkpt lat="38.98781726" lon="-0.51324111"><ele>132.8</ele><time>2022-11-13T13:04:21.0000000+00:00</time></trkpt><trkpt lat="38.98782422" lon="-0.51324908"><ele>132.8</ele><time>2022-11-13T13:04:22.0000000+00:00</time></trkpt><trkpt lat="38.9878362" lon="-0.5132552"><ele>132.8</ele><time>2022-11-13T13:04:23.0000000+00:00</time></trkpt><trkpt lat="38.9878466" lon="-0.51326534"><ele>132.8</ele><time>2022-11-13T13:04:24.0000000+00:00</time></trkpt><trkpt lat="38.98785523" lon="-0.51327548"><ele>132.6</ele><time>2022-11-13T13:04:25.0000000+00:00</time></trkpt><trkpt lat="38.98786479" lon="-0.51328495"><ele>132.6</ele><time>2022-11-13T13:04:26.0000000+00:00</time></trkpt><trkpt lat="38.98787501" lon="-0.51329568"><ele>132.4</ele><time>2022-11-13T13:04:27.0000000+00:00</time></trkpt><trkpt lat="38.98788247" lon="-0.51330783"><ele>132.4</ele><time>2022-11-13T13:04:28.0000000+00:00</time></trkpt><trkpt lat="38.98789262" lon="-0.51331647"><ele>132.4</ele><time>2022-11-13T13:04:29.0000000+00:00</time></trkpt><trkpt lat="38.98790485" lon="-0.51332175"><ele>132.4</ele><time>2022-11-13T13:04:30.0000000+00:00</time></trkpt><trkpt lat="38.98792245" lon="-0.51333273"><ele>132.4</ele><time>2022-11-13T13:04:31.0000000+00:00</time></trkpt><trkpt lat="38.98793595" lon="-0.51333784"><ele>132.4</ele><time>2022-11-13T13:04:32.0000000+00:00</time></trkpt><trkpt lat="38.98795028" lon="-0.51333918"><ele>132.4</ele><time>2022-11-13T13:04:33.0000000+00:00</time></trkpt><trkpt lat="38.98796059" lon="-0.51335109"><ele>132.4</ele><time>2022-11-13T13:04:34.0000000+00:00</time></trkpt><trkpt lat="38.98796587" lon="-0.51336441"><ele>132.4</ele><time>2022-11-13T13:04:35.0000000+00:00</time></trkpt><trkpt lat="38.98796956" lon="-0.51337514"><ele>132.4</ele><time>2022-11-13T13:04:36.0000000+00:00</time></trkpt><trkpt lat="38.98797258" lon="-0.51338336"><ele>132.2</ele><time>2022-11-13T13:04:37.0000000+00:00</time></trkpt><trkpt lat="38.98797627" lon="-0.51339484"><ele>132.2</ele><time>2022-11-13T13:04:38.0000000+00:00</time></trkpt><trkpt lat="38.98797836" lon="-0.51340775"><ele>132.2</ele><time>2022-11-13T13:04:39.0000000+00:00</time></trkpt><trkpt lat="38.98797023" lon="-0.51342937"><ele>132.0</ele><time>2022-11-13T13:04:40.0000000+00:00</time></trkpt><trkpt lat="38.98796361" lon="-0.51343817"><ele>132.0</ele><time>2022-11-13T13:04:41.0000000+00:00</time></trkpt><trkpt lat="38.98796688" lon="-0.51343742"><ele>131.8</ele><time>2022-11-13T13:04:42.0000000+00:00</time></trkpt><trkpt lat="38.98798222" lon="-0.51343507"><ele>131.6</ele><time>2022-11-13T13:04:43.0000000+00:00</time></trkpt><trkpt lat="38.9879958" lon="-0.51344069"><ele>131.4</ele><time>2022-11-13T13:04:44.0000000+00:00</time></trkpt><trkpt lat="38.98801256" lon="-0.51344815"><ele>131.4</ele><time>2022-11-13T13:04:45.0000000+00:00</time></trkpt><trkpt lat="38.98803134" lon="-0.51345955"><ele>131.2</ele><time>2022-11-13T13:04:46.0000000+00:00</time></trkpt><trkpt lat="38.98804307" lon="-0.51347103"><ele>131.2</ele><time>2022-11-13T13:04:47.0000000+00:00</time></trkpt><trkpt lat="38.9880512" lon="-0.51348922"><ele>130.8</ele><time>2022-11-13T13:04:48.0000000+00:00</time></trkpt><trkpt lat="38.98806386" lon="-0.51349886"><ele>130.8</ele><time>2022-11-13T13:04:49.0000000+00:00</time></trkpt><trkpt lat="38.98807626" lon="-0.51350506"><ele>130.6</ele><time>2022-11-13T13:04:50.0000000+00:00</time></trkpt><trkpt lat="38.98808506" lon="-0.51350825"><ele>130.4</ele><time>2022-11-13T13:04:51.0000000+00:00</time></trkpt><trkpt lat="38.9880916" lon="-0.51350037"><ele>130.4</ele><time>2022-11-13T13:04:52.0000000+00:00</time></trkpt><trkpt lat="38.98809705" lon="-0.51348553"><ele>130.2</ele><time>2022-11-13T13:04:53.0000000+00:00</time></trkpt><trkpt lat="38.98810728" lon="-0.51346927"><ele>130.0</ele><time>2022-11-13T13:04:54.0000000+00:00</time></trkpt><trkpt lat="38.98812119" lon="-0.51345645"><ele>130.0</ele><time>2022-11-13T13:04:55.0000000+00:00</time></trkpt><trkpt lat="38.98813695" lon="-0.51344211"><ele>130.0</ele><time>2022-11-13T13:04:56.0000000+00:00</time></trkpt><trkpt lat="38.98813938" lon="-0.51342493"><ele>129.8</ele><time>2022-11-13T13:04:57.0000000+00:00</time></trkpt><trkpt lat="38.9881408" lon="-0.51341931"><ele>129.8</ele><time>2022-11-13T13:04:58.0000000+00:00</time></trkpt><trkpt lat="38.98814072" lon="-0.51342049"><ele>129.8</ele><time>2022-11-13T13:04:59.0000000+00:00</time></trkpt><trkpt lat="38.9881522" lon="-0.513409"><ele>129.8</ele><time>2022-11-13T13:05:00.0000000+00:00</time></trkpt><trkpt lat="38.98816159" lon="-0.51340062"><ele>129.6</ele><time>2022-11-13T13:05:01.0000000+00:00</time></trkpt><trkpt lat="38.9881698" lon="-0.51337992"><ele>129.6</ele><time>2022-11-13T13:05:02.0000000+00:00</time></trkpt><trkpt lat="38.98817961" lon="-0.51336533"><ele>129.6</ele><time>2022-11-13T13:05:03.0000000+00:00</time></trkpt><trkpt lat="38.98819109" lon="-0.51334941"><ele>129.6</ele><time>2022-11-13T13:05:04.0000000+00:00</time></trkpt><trkpt lat="38.98820777" lon="-0.5133334"><ele>129.4</ele><time>2022-11-13T13:05:05.0000000+00:00</time></trkpt><trkpt lat="38.98822404" lon="-0.51331161"><ele>129.4</ele><time>2022-11-13T13:05:06.0000000+00:00</time></trkpt><trkpt lat="38.988233" lon="-0.51329493"><ele>129.4</ele><time>2022-11-13T13:05:07.0000000+00:00</time></trkpt><trkpt lat="38.98823921" lon="-0.51328646"><ele>129.4</ele><time>2022-11-13T13:05:08.0000000+00:00</time></trkpt><trkpt lat="38.98824507" lon="-0.51327749"><ele>129.2</ele><time>2022-11-13T13:05:09.0000000+00:00</time></trkpt><trkpt lat="38.98825262" lon="-0.51327112"><ele>129.2</ele><time>2022-11-13T13:05:10.0000000+00:00</time></trkpt><trkpt lat="38.98826234" lon="-0.51326316"><ele>129.0</ele><time>2022-11-13T13:05:11.0000000+00:00</time></trkpt><trkpt lat="38.98827667" lon="-0.51325788"><ele>129.0</ele><time>2022-11-13T13:05:12.0000000+00:00</time></trkpt><trkpt lat="38.98828263" lon="-0.5132438"><ele>129.0</ele><time>2022-11-13T13:05:13.0000000+00:00</time></trkpt><trkpt lat="38.98828321" lon="-0.51322888"><ele>129.0</ele><time>2022-11-13T13:05:14.0000000+00:00</time></trkpt><trkpt lat="38.98827433" lon="-0.51321865"><ele>129.0</ele><time>2022-11-13T13:05:15.0000000+00:00</time></trkpt><trkpt lat="38.98827106" lon="-0.51320071"><ele>129.0</ele><time>2022-11-13T13:05:16.0000000+00:00</time></trkpt><trkpt lat="38.98827382" lon="-0.51318227"><ele>129.0</ele><time>2022-11-13T13:05:17.0000000+00:00</time></trkpt><trkpt lat="38.98827466" lon="-0.51316199"><ele>128.8</ele><time>2022-11-13T13:05:18.0000000+00:00</time></trkpt><trkpt lat="38.98828103" lon="-0.5131412"><ele>128.8</ele><time>2022-11-13T13:05:19.0000000+00:00</time></trkpt><trkpt lat="38.98828849" lon="-0.5131272"><ele>128.6</ele><time>2022-11-13T13:05:20.0000000+00:00</time></trkpt><trkpt lat="38.98829176" lon="-0.51311329"><ele>128.6</ele><time>2022-11-13T13:05:21.0000000+00:00</time></trkpt><trkpt lat="38.98828263" lon="-0.51309049"><ele>128.6</ele><time>2022-11-13T13:05:22.0000000+00:00</time></trkpt><trkpt lat="38.98828732" lon="-0.51307197"><ele>128.4</ele><time>2022-11-13T13:05:23.0000000+00:00</time></trkpt><trkpt lat="38.98829067" lon="-0.51305135"><ele>128.2</ele><time>2022-11-13T13:05:24.0000000+00:00</time></trkpt><trkpt lat="38.9882843" lon="-0.51303475"><ele>128.0</ele><time>2022-11-13T13:05:25.0000000+00:00</time></trkpt><trkpt lat="38.98828195" lon="-0.51301455"><ele>128.0</ele><time>2022-11-13T13:05:26.0000000+00:00</time></trkpt><trkpt lat="38.98828472" lon="-0.51299393"><ele>127.8</ele><time>2022-11-13T13:05:27.0000000+00:00</time></trkpt><trkpt lat="38.98828363" lon="-0.51297407"><ele>127.8</ele><time>2022-11-13T13:05:28.0000000+00:00</time></trkpt><trkpt lat="38.98829176" lon="-0.51295789"><ele>127.8</ele><time>2022-11-13T13:05:29.0000000+00:00</time></trkpt><trkpt lat="38.98830232" lon="-0.5129511"><ele>128.0</ele><time>2022-11-13T13:05:30.0000000+00:00</time></trkpt><trkpt lat="38.98830433" lon="-0.51293367"><ele>128.0</ele><time>2022-11-13T13:05:31.0000000+00:00</time></trkpt><trkpt lat="38.98831305" lon="-0.51291212"><ele>128.0</ele><time>2022-11-13T13:05:32.0000000+00:00</time></trkpt><trkpt lat="38.98831791" lon="-0.51289947"><ele>128.0</ele><time>2022-11-13T13:05:33.0000000+00:00</time></trkpt><trkpt lat="38.98831062" lon="-0.51287902"><ele>128.0</ele><time>2022-11-13T13:05:34.0000000+00:00</time></trkpt><trkpt lat="38.98830853" lon="-0.51286376"><ele>127.8</ele><time>2022-11-13T13:05:35.0000000+00:00</time></trkpt><trkpt lat="38.98831146" lon="-0.51284926"><ele>127.8</ele><time>2022-11-13T13:05:36.0000000+00:00</time></trkpt><trkpt lat="38.98831037" lon="-0.51283426"><ele>127.8</ele><time>2022-11-13T13:05:37.0000000+00:00</time></trkpt><trkpt lat="38.98831163" lon="-0.51281766"><ele>127.8</ele><time>2022-11-13T13:05:38.0000000+00:00</time></trkpt><trkpt lat="38.98831322" lon="-0.51279654"><ele>127.8</ele><time>2022-11-13T13:05:39.0000000+00:00</time></trkpt><trkpt lat="38.98830928" lon="-0.51277961"><ele>127.6</ele><time>2022-11-13T13:05:40.0000000+00:00</time></trkpt><trkpt lat="38.98829503" lon="-0.51276066"><ele>127.6</ele><time>2022-11-13T13:05:41.0000000+00:00</time></trkpt><trkpt lat="38.98828397" lon="-0.51274843"><ele>127.6</ele><time>2022-11-13T13:05:42.0000000+00:00</time></trkpt><trkpt lat="38.98828137" lon="-0.51273091"><ele>127.6</ele><time>2022-11-13T13:05:43.0000000+00:00</time></trkpt><trkpt lat="38.98827936" lon="-0.5127071"><ele>127.6</ele><time>2022-11-13T13:05:44.0000000+00:00</time></trkpt><trkpt lat="38.9882807" lon="-0.51268397"><ele>127.8</ele><time>2022-11-13T13:05:45.0000000+00:00</time></trkpt><trkpt lat="38.98828724" lon="-0.51266494"><ele>127.8</ele><time>2022-11-13T13:05:46.0000000+00:00</time></trkpt><trkpt lat="38.98829335" lon="-0.51264424"><ele>127.8</ele><time>2022-11-13T13:05:47.0000000+00:00</time></trkpt><trkpt lat="38.98829746" lon="-0.51263192"><ele>127.8</ele><time>2022-11-13T13:05:48.0000000+00:00</time></trkpt><trkpt lat="38.98830542" lon="-0.51261608"><ele>127.8</ele><time>2022-11-13T13:05:49.0000000+00:00</time></trkpt><trkpt lat="38.98831565" lon="-0.51260124"><ele>127.6</ele><time>2022-11-13T13:05:50.0000000+00:00</time></trkpt><trkpt lat="38.98832453" lon="-0.51258632"><ele>127.6</ele><time>2022-11-13T13:05:51.0000000+00:00</time></trkpt><trkpt lat="38.98832956" lon="-0.51257123"><ele>127.6</ele><time>2022-11-13T13:05:52.0000000+00:00</time></trkpt><trkpt lat="38.98833619" lon="-0.51255841"><ele>127.6</ele><time>2022-11-13T13:05:53.0000000+00:00</time></trkpt><trkpt lat="38.98834624" lon="-0.51254852"><ele>127.6</ele><time>2022-11-13T13:05:54.0000000+00:00</time></trkpt><trkpt lat="38.98835454" lon="-0.51253879"><ele>127.6</ele><time>2022-11-13T13:05:55.0000000+00:00</time></trkpt><trkpt lat="38.98835865" lon="-0.51252773"><ele>127.6</ele><time>2022-11-13T13:05:56.0000000+00:00</time></trkpt><trkpt lat="38.98836837" lon="-0.51251625"><ele>127.6</ele><time>2022-11-13T13:05:57.0000000+00:00</time></trkpt><trkpt lat="38.98837348" lon="-0.51250812"><ele>127.6</ele><time>2022-11-13T13:05:58.0000000+00:00</time></trkpt><trkpt lat="38.98838245" lon="-0.5124937"><ele>127.8</ele><time>2022-11-13T13:05:59.0000000+00:00</time></trkpt><trkpt lat="38.98838455" lon="-0.51247786"><ele>128.0</ele><time>2022-11-13T13:06:00.0000000+00:00</time></trkpt><trkpt lat="38.98840056" lon="-0.51246109"><ele>128.0</ele><time>2022-11-13T13:06:01.0000000+00:00</time></trkpt><trkpt lat="38.98841992" lon="-0.51244726"><ele>128.0</ele><time>2022-11-13T13:06:02.0000000+00:00</time></trkpt><trkpt lat="38.98842654" lon="-0.51243017"><ele>128.2</ele><time>2022-11-13T13:06:03.0000000+00:00</time></trkpt><trkpt lat="38.98843794" lon="-0.51241374"><ele>128.2</ele><time>2022-11-13T13:06:04.0000000+00:00</time></trkpt><trkpt lat="38.98845119" lon="-0.51240049"><ele>128.4</ele><time>2022-11-13T13:06:05.0000000+00:00</time></trkpt><trkpt lat="38.98845705" lon="-0.51238574"><ele>128.4</ele><time>2022-11-13T13:06:06.0000000+00:00</time></trkpt><trkpt lat="38.98845898" lon="-0.51237317"><ele>128.6</ele><time>2022-11-13T13:06:07.0000000+00:00</time></trkpt><trkpt lat="38.98846887" lon="-0.51236311"><ele>128.6</ele><time>2022-11-13T13:06:08.0000000+00:00</time></trkpt><trkpt lat="38.9884817" lon="-0.51235339"><ele>128.6</ele><time>2022-11-13T13:06:09.0000000+00:00</time></trkpt><trkpt lat="38.98849527" lon="-0.51234299"><ele>128.6</ele><time>2022-11-13T13:06:10.0000000+00:00</time></trkpt><trkpt lat="38.98850567" lon="-0.51232916"><ele>128.6</ele><time>2022-11-13T13:06:11.0000000+00:00</time></trkpt><trkpt lat="38.9885164" lon="-0.51232103"><ele>128.6</ele><time>2022-11-13T13:06:12.0000000+00:00</time></trkpt><trkpt lat="38.98852562" lon="-0.51231382"><ele>128.6</ele><time>2022-11-13T13:06:13.0000000+00:00</time></trkpt><trkpt lat="38.98852034" lon="-0.51229346"><ele>128.6</ele><time>2022-11-13T13:06:14.0000000+00:00</time></trkpt><trkpt lat="38.9885293" lon="-0.51228424"><ele>128.6</ele><time>2022-11-13T13:06:15.0000000+00:00</time></trkpt><trkpt lat="38.98853811" lon="-0.51227409"><ele>128.6</ele><time>2022-11-13T13:06:16.0000000+00:00</time></trkpt><trkpt lat="38.98854699" lon="-0.51227007"><ele>128.6</ele><time>2022-11-13T13:06:17.0000000+00:00</time></trkpt><trkpt lat="38.98854959" lon="-0.5122668"><ele>128.8</ele><time>2022-11-13T13:06:18.0000000+00:00</time></trkpt><trkpt lat="38.98855093" lon="-0.51226328"><ele>128.8</ele><time>2022-11-13T13:06:19.0000000+00:00</time></trkpt><trkpt lat="38.98855621" lon="-0.51225683"><ele>128.8</ele><time>2022-11-13T13:06:20.0000000+00:00</time></trkpt><trkpt lat="38.98856652" lon="-0.51225063"><ele>128.8</ele><time>2022-11-13T13:06:21.0000000+00:00</time></trkpt><trkpt lat="38.98857096" lon="-0.51224157"><ele>128.8</ele><time>2022-11-13T13:06:22.0000000+00:00</time></trkpt><trkpt lat="38.98857884" lon="-0.51223168"><ele>128.8</ele><time>2022-11-13T13:06:23.0000000+00:00</time></trkpt><trkpt lat="38.98858504" lon="-0.51222523"><ele>128.8</ele><time>2022-11-13T13:06:24.0000000+00:00</time></trkpt><trkpt lat="38.98859074" lon="-0.51222188"><ele>128.8</ele><time>2022-11-13T13:06:25.0000000+00:00</time></trkpt><trkpt lat="38.98859175" lon="-0.51221626"><ele>129.0</ele><time>2022-11-13T13:06:26.0000000+00:00</time></trkpt><trkpt lat="38.98859795" lon="-0.51220084"><ele>129.0</ele><time>2022-11-13T13:06:27.0000000+00:00</time></trkpt><trkpt lat="38.98860315" lon="-0.51218952"><ele>129.2</ele><time>2022-11-13T13:06:28.0000000+00:00</time></trkpt><trkpt lat="38.98860918" lon="-0.51218407"><ele>129.2</ele><time>2022-11-13T13:06:29.0000000+00:00</time></trkpt><trkpt lat="38.98861983" lon="-0.51217653"><ele>129.4</ele><time>2022-11-13T13:06:30.0000000+00:00</time></trkpt><trkpt lat="38.98863098" lon="-0.51216454"><ele>129.4</ele><time>2022-11-13T13:06:31.0000000+00:00</time></trkpt><trkpt lat="38.98864657" lon="-0.51215172"><ele>129.6</ele><time>2022-11-13T13:06:32.0000000+00:00</time></trkpt><trkpt lat="38.98865419" lon="-0.5121311"><ele>129.6</ele><time>2022-11-13T13:06:33.0000000+00:00</time></trkpt><trkpt lat="38.98866434" lon="-0.5121218"><ele>129.6</ele><time>2022-11-13T13:06:34.0000000+00:00</time></trkpt><trkpt lat="38.98866878" lon="-0.51211325"><ele>129.6</ele><time>2022-11-13T13:06:35.0000000+00:00</time></trkpt><trkpt lat="38.98867087" lon="-0.51211006"><ele>129.8</ele><time>2022-11-13T13:06:36.0000000+00:00</time></trkpt><trkpt lat="38.98866979" lon="-0.51210973"><ele>129.8</ele><time>2022-11-13T13:06:37.0000000+00:00</time></trkpt><trkpt lat="38.9886744" lon="-0.51210528"><ele>129.8</ele><time>2022-11-13T13:06:38.0000000+00:00</time></trkpt><trkpt lat="38.98868512" lon="-0.51210159"><ele>129.8</ele><time>2022-11-13T13:06:39.0000000+00:00</time></trkpt><trkpt lat="38.98869988" lon="-0.51209254"><ele>129.8</ele><time>2022-11-13T13:06:40.0000000+00:00</time></trkpt><trkpt lat="38.98871404" lon="-0.51208357"><ele>129.8</ele><time>2022-11-13T13:06:41.0000000+00:00</time></trkpt><trkpt lat="38.98872796" lon="-0.51207444"><ele>129.8</ele><time>2022-11-13T13:06:42.0000000+00:00</time></trkpt><trkpt lat="38.98874086" lon="-0.51206304"><ele>129.8</ele><time>2022-11-13T13:06:43.0000000+00:00</time></trkpt><trkpt lat="38.98874992" lon="-0.51205742"><ele>129.8</ele><time>2022-11-13T13:06:44.0000000+00:00</time></trkpt><trkpt lat="38.98876391" lon="-0.5120503"><ele>129.8</ele><time>2022-11-13T13:06:45.0000000+00:00</time></trkpt><trkpt lat="38.98877691" lon="-0.51204619"><ele>129.8</ele><time>2022-11-13T13:06:46.0000000+00:00</time></trkpt><trkpt lat="38.98878437" lon="-0.51203504"><ele>129.8</ele><time>2022-11-13T13:06:47.0000000+00:00</time></trkpt><trkpt lat="38.98878998" lon="-0.51202096"><ele>130.0</ele><time>2022-11-13T13:06:48.0000000+00:00</time></trkpt><trkpt lat="38.98879652" lon="-0.51200872"><ele>130.0</ele><time>2022-11-13T13:06:49.0000000+00:00</time></trkpt><trkpt lat="38.98880465" lon="-0.51199632"><ele>130.0</ele><time>2022-11-13T13:06:50.0000000+00:00</time></trkpt><trkpt lat="38.98881756" lon="-0.51198358"><ele>130.0</ele><time>2022-11-13T13:06:51.0000000+00:00</time></trkpt><trkpt lat="38.98882996" lon="-0.51197008"><ele>130.0</ele><time>2022-11-13T13:06:52.0000000+00:00</time></trkpt><trkpt lat="38.98884245" lon="-0.51196095"><ele>130.0</ele><time>2022-11-13T13:06:53.0000000+00:00</time></trkpt><trkpt lat="38.98885419" lon="-0.51194712"><ele>130.0</ele><time>2022-11-13T13:06:54.0000000+00:00</time></trkpt><trkpt lat="38.98886659" lon="-0.51193572"><ele>130.0</ele><time>2022-11-13T13:06:55.0000000+00:00</time></trkpt><trkpt lat="38.98887548" lon="-0.51192901"><ele>130.0</ele><time>2022-11-13T13:06:56.0000000+00:00</time></trkpt><trkpt lat="38.9888795" lon="-0.51192172"><ele>130.0</ele><time>2022-11-13T13:06:57.0000000+00:00</time></trkpt><trkpt lat="38.98888495" lon="-0.5119094"><ele>130.0</ele><time>2022-11-13T13:06:58.0000000+00:00</time></trkpt><trkpt lat="38.98889526" lon="-0.51189917"><ele>130.0</ele><time>2022-11-13T13:06:59.0000000+00:00</time></trkpt><trkpt lat="38.98890473" lon="-0.51188903"><ele>130.0</ele><time>2022-11-13T13:07:00.0000000+00:00</time></trkpt><trkpt lat="38.98891496" lon="-0.51187176"><ele>130.2</ele><time>2022-11-13T13:07:01.0000000+00:00</time></trkpt><trkpt lat="38.98893281" lon="-0.51185031"><ele>130.2</ele><time>2022-11-13T13:07:02.0000000+00:00</time></trkpt><trkpt lat="38.9889432" lon="-0.5118343"><ele>130.2</ele><time>2022-11-13T13:07:03.0000000+00:00</time></trkpt><trkpt lat="38.98895284" lon="-0.51182617"><ele>130.2</ele><time>2022-11-13T13:07:04.0000000+00:00</time></trkpt><trkpt lat="38.98896164" lon="-0.51181192"><ele>130.2</ele><time>2022-11-13T13:07:05.0000000+00:00</time></trkpt><trkpt lat="38.98896961" lon="-0.51179691"><ele>130.2</ele><time>2022-11-13T13:07:06.0000000+00:00</time></trkpt><trkpt lat="38.98897899" lon="-0.51178576"><ele>130.2</ele><time>2022-11-13T13:07:07.0000000+00:00</time></trkpt><trkpt lat="38.98898729" lon="-0.51177084"><ele>130.2</ele><time>2022-11-13T13:07:08.0000000+00:00</time></trkpt><trkpt lat="38.98899995" lon="-0.51175819"><ele>130.2</ele><time>2022-11-13T13:07:09.0000000+00:00</time></trkpt><trkpt lat="38.98900338" lon="-0.51174671"><ele>130.2</ele><time>2022-11-13T13:07:10.0000000+00:00</time></trkpt><trkpt lat="38.98900992" lon="-0.51172961"><ele>130.2</ele><time>2022-11-13T13:07:11.0000000+00:00</time></trkpt><trkpt lat="38.98901898" lon="-0.51171737"><ele>130.2</ele><time>2022-11-13T13:07:12.0000000+00:00</time></trkpt><trkpt lat="38.98902442" lon="-0.5117032"><ele>130.2</ele><time>2022-11-13T13:07:13.0000000+00:00</time></trkpt><trkpt lat="38.98903247" lon="-0.51168954"><ele>130.2</ele><time>2022-11-13T13:07:14.0000000+00:00</time></trkpt><trkpt lat="38.98904529" lon="-0.51168334"><ele>130.0</ele><time>2022-11-13T13:07:15.0000000+00:00</time></trkpt><trkpt lat="38.98904907" lon="-0.51167269"><ele>130.0</ele><time>2022-11-13T13:07:16.0000000+00:00</time></trkpt><trkpt lat="38.98905778" lon="-0.51164202"><ele>130.0</ele><time>2022-11-13T13:07:17.0000000+00:00</time></trkpt><trkpt lat="38.98906407" lon="-0.5116136"><ele>130.0</ele><time>2022-11-13T13:07:18.0000000+00:00</time></trkpt><trkpt lat="38.98906742" lon="-0.51159407"><ele>130.0</ele><time>2022-11-13T13:07:19.0000000+00:00</time></trkpt><trkpt lat="38.989066" lon="-0.51157395"><ele>130.0</ele><time>2022-11-13T13:07:20.0000000+00:00</time></trkpt><trkpt lat="38.98907019" lon="-0.51156532"><ele>130.0</ele><time>2022-11-13T13:07:21.0000000+00:00</time></trkpt><trkpt lat="38.98907807" lon="-0.51155727"><ele>130.0</ele><time>2022-11-13T13:07:22.0000000+00:00</time></trkpt><trkpt lat="38.98908695" lon="-0.51155149"><ele>130.0</ele><time>2022-11-13T13:07:23.0000000+00:00</time></trkpt><trkpt lat="38.98908896" lon="-0.51154034"><ele>130.0</ele><time>2022-11-13T13:07:24.0000000+00:00</time></trkpt><trkpt lat="38.98909031" lon="-0.51152383"><ele>130.0</ele><time>2022-11-13T13:07:25.0000000+00:00</time></trkpt><trkpt lat="38.98909148" lon="-0.51151805"><ele>130.0</ele><time>2022-11-13T13:07:26.0000000+00:00</time></trkpt><trkpt lat="38.98909357" lon="-0.51151469"><ele>130.0</ele><time>2022-11-13T13:07:27.0000000+00:00</time></trkpt><trkpt lat="38.98909475" lon="-0.51150623"><ele>130.0</ele><time>2022-11-13T13:07:28.0000000+00:00</time></trkpt><trkpt lat="38.98908519" lon="-0.5114862"><ele>130.0</ele><time>2022-11-13T13:07:29.0000000+00:00</time></trkpt><trkpt lat="38.98907857" lon="-0.5114618"><ele>130.0</ele><time>2022-11-13T13:07:30.0000000+00:00</time></trkpt><trkpt lat="38.98908109" lon="-0.51145233"><ele>130.0</ele><time>2022-11-13T13:07:31.0000000+00:00</time></trkpt><trkpt lat="38.98908452" lon="-0.51144906"><ele>129.8</ele><time>2022-11-13T13:07:32.0000000+00:00</time></trkpt><trkpt lat="38.98908561" lon="-0.51144697"><ele>129.8</ele><time>2022-11-13T13:07:33.0000000+00:00</time></trkpt><trkpt lat="38.98908595" lon="-0.51144714"><ele>129.8</ele><time>2022-11-13T13:07:34.0000000+00:00</time></trkpt><trkpt lat="38.98908695" lon="-0.51144521"><ele>129.8</ele><time>2022-11-13T13:07:35.0000000+00:00</time></trkpt><trkpt lat="38.9890867" lon="-0.51144227"><ele>129.6</ele><time>2022-11-13T13:07:36.0000000+00:00</time></trkpt><trkpt lat="38.98909139" lon="-0.51143314"><ele>129.6</ele><time>2022-11-13T13:07:37.0000000+00:00</time></trkpt><trkpt lat="38.98909626" lon="-0.51142174"><ele>129.6</ele><time>2022-11-13T13:07:38.0000000+00:00</time></trkpt><trkpt lat="38.98909575" lon="-0.51141403"><ele>129.6</ele><time>2022-11-13T13:07:39.0000000+00:00</time></trkpt><trkpt lat="38.98909827" lon="-0.51140833"><ele>129.6</ele><time>2022-11-13T13:07:40.0000000+00:00</time></trkpt><trkpt lat="38.98910229" lon="-0.51139617"><ele>129.6</ele><time>2022-11-13T13:07:41.0000000+00:00</time></trkpt><trkpt lat="38.98910556" lon="-0.51138042"><ele>129.6</ele><time>2022-11-13T13:07:42.0000000+00:00</time></trkpt><trkpt lat="38.98909927" lon="-0.5113582"><ele>129.8</ele><time>2022-11-13T13:07:43.0000000+00:00</time></trkpt><trkpt lat="38.98909483" lon="-0.51134027"><ele>129.8</ele><time>2022-11-13T13:07:44.0000000+00:00</time></trkpt><trkpt lat="38.9890836" lon="-0.51132275"><ele>129.8</ele><time>2022-11-13T13:07:45.0000000+00:00</time></trkpt><trkpt lat="38.98907664" lon="-0.51129249"><ele>129.8</ele><time>2022-11-13T13:07:46.0000000+00:00</time></trkpt><trkpt lat="38.98907715" lon="-0.51127187"><ele>129.8</ele><time>2022-11-13T13:07:47.0000000+00:00</time></trkpt><trkpt lat="38.98907614" lon="-0.5112541"><ele>129.8</ele><time>2022-11-13T13:07:48.0000000+00:00</time></trkpt><trkpt lat="38.98908595" lon="-0.51123549"><ele>129.8</ele><time>2022-11-13T13:07:49.0000000+00:00</time></trkpt><trkpt lat="38.9890955" lon="-0.51122233"><ele>129.8</ele><time>2022-11-13T13:07:50.0000000+00:00</time></trkpt><trkpt lat="38.9890981" lon="-0.51120892"><ele>129.8</ele><time>2022-11-13T13:07:51.0000000+00:00</time></trkpt><trkpt lat="38.98910598" lon="-0.51119987"><ele>129.6</ele><time>2022-11-13T13:07:52.0000000+00:00</time></trkpt><trkpt lat="38.98911579" lon="-0.51119375"><ele>129.6</ele><time>2022-11-13T13:07:53.0000000+00:00</time></trkpt><trkpt lat="38.98912903" lon="-0.51118587"><ele>129.4</ele><time>2022-11-13T13:07:54.0000000+00:00</time></trkpt><trkpt lat="38.98913682" lon="-0.51116886"><ele>129.4</ele><time>2022-11-13T13:07:55.0000000+00:00</time></trkpt><trkpt lat="38.98913481" lon="-0.51114681"><ele>129.4</ele><time>2022-11-13T13:07:56.0000000+00:00</time></trkpt><trkpt lat="38.9891271" lon="-0.5111184"><ele>129.2</ele><time>2022-11-13T13:07:57.0000000+00:00</time></trkpt><trkpt lat="38.98913054" lon="-0.51111144"><ele>129.2</ele><time>2022-11-13T13:07:58.0000000+00:00</time></trkpt><trkpt lat="38.9891359" lon="-0.51111295"><ele>129.0</ele><time>2022-11-13T13:07:59.0000000+00:00</time></trkpt><trkpt lat="38.9891411" lon="-0.51111178"><ele>129.0</ele><time>2022-11-13T13:08:00.0000000+00:00</time></trkpt><trkpt lat="38.98914529" lon="-0.51109937"><ele>129.0</ele><time>2022-11-13T13:08:01.0000000+00:00</time></trkpt><trkpt lat="38.98914596" lon="-0.51108923"><ele>128.8</ele><time>2022-11-13T13:08:02.0000000+00:00</time></trkpt><trkpt lat="38.98914806" lon="-0.51107322"><ele>128.8</ele><time>2022-11-13T13:08:03.0000000+00:00</time></trkpt><trkpt lat="38.98914973" lon="-0.51105629"><ele>128.8</ele><time>2022-11-13T13:08:04.0000000+00:00</time></trkpt><trkpt lat="38.98915493" lon="-0.51104028"><ele>128.8</ele><time>2022-11-13T13:08:05.0000000+00:00</time></trkpt><trkpt lat="38.98915619" lon="-0.51101388"><ele>128.8</ele><time>2022-11-13T13:08:06.0000000+00:00</time></trkpt><trkpt lat="38.98915828" lon="-0.51099267"><ele>128.8</ele><time>2022-11-13T13:08:07.0000000+00:00</time></trkpt><trkpt lat="38.98916323" lon="-0.51097389"><ele>128.8</ele><time>2022-11-13T13:08:08.0000000+00:00</time></trkpt><trkpt lat="38.9891794" lon="-0.5109573"><ele>128.8</ele><time>2022-11-13T13:08:09.0000000+00:00</time></trkpt><trkpt lat="38.98918418" lon="-0.51094187"><ele>128.8</ele><time>2022-11-13T13:08:10.0000000+00:00</time></trkpt><trkpt lat="38.98918946" lon="-0.51091773"><ele>128.8</ele><time>2022-11-13T13:08:11.0000000+00:00</time></trkpt><trkpt lat="38.98919256" lon="-0.51089561"><ele>128.8</ele><time>2022-11-13T13:08:12.0000000+00:00</time></trkpt><trkpt lat="38.98919927" lon="-0.51087457"><ele>128.6</ele><time>2022-11-13T13:08:13.0000000+00:00</time></trkpt><trkpt lat="38.98920748" lon="-0.51085051"><ele>128.6</ele><time>2022-11-13T13:08:14.0000000+00:00</time></trkpt><trkpt lat="38.98921402" lon="-0.51083844"><ele>128.6</ele><time>2022-11-13T13:08:15.0000000+00:00</time></trkpt><trkpt lat="38.98921997" lon="-0.5108304"><ele>128.6</ele><time>2022-11-13T13:08:16.0000000+00:00</time></trkpt><trkpt lat="38.98922768" lon="-0.51081212"><ele>128.6</ele><time>2022-11-13T13:08:17.0000000+00:00</time></trkpt><trkpt lat="38.98923456" lon="-0.51080014"><ele>128.4</ele><time>2022-11-13T13:08:18.0000000+00:00</time></trkpt><trkpt lat="38.98924638" lon="-0.51079025"><ele>128.4</ele><time>2022-11-13T13:08:19.0000000+00:00</time></trkpt><trkpt lat="38.98925652" lon="-0.51077927"><ele>128.4</ele><time>2022-11-13T13:08:20.0000000+00:00</time></trkpt><trkpt lat="38.98926356" lon="-0.51077667"><ele>128.2</ele><time>2022-11-13T13:08:21.0000000+00:00</time></trkpt><trkpt lat="38.98928057" lon="-0.51077491"><ele>128.2</ele><time>2022-11-13T13:08:22.0000000+00:00</time></trkpt><trkpt lat="38.9892908" lon="-0.5107677"><ele>128.2</ele><time>2022-11-13T13:08:23.0000000+00:00</time></trkpt><trkpt lat="38.98929943" lon="-0.51075529"><ele>128.2</ele><time>2022-11-13T13:08:24.0000000+00:00</time></trkpt><trkpt lat="38.98930044" lon="-0.51073258"><ele>128.2</ele><time>2022-11-13T13:08:25.0000000+00:00</time></trkpt><trkpt lat="38.98931025" lon="-0.51070735"><ele>128.2</ele><time>2022-11-13T13:08:26.0000000+00:00</time></trkpt><trkpt lat="38.9893188" lon="-0.51069654"><ele>128.0</ele><time>2022-11-13T13:08:27.0000000+00:00</time></trkpt><trkpt lat="38.98932944" lon="-0.510691"><ele>128.0</ele><time>2022-11-13T13:08:28.0000000+00:00</time></trkpt><trkpt lat="38.98934755" lon="-0.51068354"><ele>128.0</ele><time>2022-11-13T13:08:29.0000000+00:00</time></trkpt><trkpt lat="38.98935811" lon="-0.51066125"><ele>128.0</ele><time>2022-11-13T13:08:30.0000000+00:00</time></trkpt><trkpt lat="38.9893628" lon="-0.51064038"><ele>127.8</ele><time>2022-11-13T13:08:31.0000000+00:00</time></trkpt><trkpt lat="38.98937621" lon="-0.51063275"><ele>127.8</ele><time>2022-11-13T13:08:32.0000000+00:00</time></trkpt><trkpt lat="38.98939172" lon="-0.51062286"><ele>127.8</ele><time>2022-11-13T13:08:33.0000000+00:00</time></trkpt><trkpt lat="38.98941569" lon="-0.51061054"><ele>127.8</ele><time>2022-11-13T13:08:34.0000000+00:00</time></trkpt><trkpt lat="38.9894374" lon="-0.51059444"><ele>127.8</ele><time>2022-11-13T13:08:35.0000000+00:00</time></trkpt><trkpt lat="38.98945651" lon="-0.51057877"><ele>127.6</ele><time>2022-11-13T13:08:36.0000000+00:00</time></trkpt><trkpt lat="38.98947311" lon="-0.51056058"><ele>127.6</ele><time>2022-11-13T13:08:37.0000000+00:00</time></trkpt><trkpt lat="38.98948845" lon="-0.51055865"><ele>127.6</ele><time>2022-11-13T13:08:38.0000000+00:00</time></trkpt><trkpt lat="38.98950529" lon="-0.51055161"><ele>127.6</ele><time>2022-11-13T13:08:39.0000000+00:00</time></trkpt><trkpt lat="38.98952013" lon="-0.51054407"><ele>127.6</ele><time>2022-11-13T13:08:40.0000000+00:00</time></trkpt><trkpt lat="38.98953245" lon="-0.5105346"><ele>127.6</ele><time>2022-11-13T13:08:41.0000000+00:00</time></trkpt><trkpt lat="38.98954653" lon="-0.51052437"><ele>127.6</ele><time>2022-11-13T13:08:42.0000000+00:00</time></trkpt><trkpt lat="38.98956304" lon="-0.51051624"><ele>127.6</ele><time>2022-11-13T13:08:43.0000000+00:00</time></trkpt><trkpt lat="38.98958107" lon="-0.51050224"><ele>127.4</ele><time>2022-11-13T13:08:44.0000000+00:00</time></trkpt><trkpt lat="38.98958911" lon="-0.51048908"><ele>127.2</ele><time>2022-11-13T13:08:45.0000000+00:00</time></trkpt><trkpt lat="38.98959691" lon="-0.51047567"><ele>127.2</ele><time>2022-11-13T13:08:46.0000000+00:00</time></trkpt><trkpt lat="38.98960336" lon="-0.5104683"><ele>127.0</ele><time>2022-11-13T13:08:47.0000000+00:00</time></trkpt><trkpt lat="38.98961199" lon="-0.51045975"><ele>127.0</ele><time>2022-11-13T13:08:48.0000000+00:00</time></trkpt><trkpt lat="38.98961661" lon="-0.51045053"><ele>127.0</ele><time>2022-11-13T13:08:49.0000000+00:00</time></trkpt><trkpt lat="38.98962742" lon="-0.51043368"><ele>127.0</ele><time>2022-11-13T13:08:50.0000000+00:00</time></trkpt><trkpt lat="38.98963966" lon="-0.51041784"><ele>126.8</ele><time>2022-11-13T13:08:51.0000000+00:00</time></trkpt><trkpt lat="38.9896451" lon="-0.51040426"><ele>126.8</ele><time>2022-11-13T13:08:52.0000000+00:00</time></trkpt><trkpt lat="38.9896539" lon="-0.51039361"><ele>126.8</ele><time>2022-11-13T13:08:53.0000000+00:00</time></trkpt><trkpt lat="38.98966639" lon="-0.5103792"><ele>126.8</ele><time>2022-11-13T13:08:54.0000000+00:00</time></trkpt><trkpt lat="38.98967553" lon="-0.51036302"><ele>126.8</ele><time>2022-11-13T13:08:55.0000000+00:00</time></trkpt><trkpt lat="38.98968282" lon="-0.51035279"><ele>126.8</ele><time>2022-11-13T13:08:56.0000000+00:00</time></trkpt><trkpt lat="38.98969213" lon="-0.51034475"><ele>126.6</ele><time>2022-11-13T13:08:57.0000000+00:00</time></trkpt><trkpt lat="38.98970302" lon="-0.51032874"><ele>126.6</ele><time>2022-11-13T13:08:58.0000000+00:00</time></trkpt><trkpt lat="38.98971149" lon="-0.51030376"><ele>126.4</ele><time>2022-11-13T13:08:59.0000000+00:00</time></trkpt><trkpt lat="38.98971828" lon="-0.51028666"><ele>126.4</ele><time>2022-11-13T13:09:00.0000000+00:00</time></trkpt><trkpt lat="38.98971962" lon="-0.51026956"><ele>126.4</ele><time>2022-11-13T13:09:01.0000000+00:00</time></trkpt><trkpt lat="38.98971668" lon="-0.51025087"><ele>126.4</ele><time>2022-11-13T13:09:02.0000000+00:00</time></trkpt><trkpt lat="38.98971199" lon="-0.51023318"><ele>126.4</ele><time>2022-11-13T13:09:03.0000000+00:00</time></trkpt><trkpt lat="38.98970839" lon="-0.51021609"><ele>126.4</ele><time>2022-11-13T13:09:04.0000000+00:00</time></trkpt><trkpt lat="38.98970679" lon="-0.51019882"><ele>126.4</ele><time>2022-11-13T13:09:05.0000000+00:00</time></trkpt><trkpt lat="38.9897083" lon="-0.51018088"><ele>126.4</ele><time>2022-11-13T13:09:06.0000000+00:00</time></trkpt><trkpt lat="38.98971166" lon="-0.51016269"><ele>126.4</ele><time>2022-11-13T13:09:07.0000000+00:00</time></trkpt><trkpt lat="38.98972834" lon="-0.51014702"><ele>126.4</ele><time>2022-11-13T13:09:08.0000000+00:00</time></trkpt><trkpt lat="38.98973898" lon="-0.51013277"><ele>126.4</ele><time>2022-11-13T13:09:09.0000000+00:00</time></trkpt><trkpt lat="38.98975256" lon="-0.51012036"><ele>126.2</ele><time>2022-11-13T13:09:10.0000000+00:00</time></trkpt><trkpt lat="38.98975943" lon="-0.51010561"><ele>126.2</ele><time>2022-11-13T13:09:11.0000000+00:00</time></trkpt><trkpt lat="38.98976111" lon="-0.51009036"><ele>126.2</ele><time>2022-11-13T13:09:12.0000000+00:00</time></trkpt><trkpt lat="38.98975868" lon="-0.5100715"><ele>126.2</ele><time>2022-11-13T13:09:13.0000000+00:00</time></trkpt><trkpt lat="38.98975784" lon="-0.51005297"><ele>126.0</ele><time>2022-11-13T13:09:14.0000000+00:00</time></trkpt><trkpt lat="38.98975801" lon="-0.51003881"><ele>126.0</ele><time>2022-11-13T13:09:15.0000000+00:00</time></trkpt><trkpt lat="38.98975566" lon="-0.51002397"><ele>126.0</ele><time>2022-11-13T13:09:16.0000000+00:00</time></trkpt><trkpt lat="38.989756" lon="-0.51000712"><ele>125.8</ele><time>2022-11-13T13:09:17.0000000+00:00</time></trkpt><trkpt lat="38.98975608" lon="-0.5099974"><ele>125.8</ele><time>2022-11-13T13:09:18.0000000+00:00</time></trkpt><trkpt lat="38.98976421" lon="-0.50998533"><ele>125.8</ele><time>2022-11-13T13:09:19.0000000+00:00</time></trkpt><trkpt lat="38.98977159" lon="-0.50997259"><ele>126.0</ele><time>2022-11-13T13:09:20.0000000+00:00</time></trkpt><trkpt lat="38.98977921" lon="-0.50995742"><ele>126.0</ele><time>2022-11-13T13:09:21.0000000+00:00</time></trkpt><trkpt lat="38.98977963" lon="-0.50994116"><ele>126.2</ele><time>2022-11-13T13:09:22.0000000+00:00</time></trkpt><trkpt lat="38.98977729" lon="-0.50992984"><ele>126.4</ele><time>2022-11-13T13:09:23.0000000+00:00</time></trkpt><trkpt lat="38.98977913" lon="-0.50991509"><ele>126.4</ele><time>2022-11-13T13:09:24.0000000+00:00</time></trkpt><trkpt lat="38.98978097" lon="-0.50989933"><ele>126.6</ele><time>2022-11-13T13:09:25.0000000+00:00</time></trkpt><trkpt lat="38.98978684" lon="-0.50988173"><ele>126.6</ele><time>2022-11-13T13:09:26.0000000+00:00</time></trkpt><trkpt lat="38.98978978" lon="-0.50986715"><ele>127.0</ele><time>2022-11-13T13:09:27.0000000+00:00</time></trkpt><trkpt lat="38.98978584" lon="-0.50985407"><ele>127.2</ele><time>2022-11-13T13:09:28.0000000+00:00</time></trkpt><trkpt lat="38.98977905" lon="-0.50983823"><ele>127.4</ele><time>2022-11-13T13:09:29.0000000+00:00</time></trkpt><trkpt lat="38.98977251" lon="-0.50982415"><ele>127.6</ele><time>2022-11-13T13:09:30.0000000+00:00</time></trkpt><trkpt lat="38.98976916" lon="-0.50980688"><ele>127.6</ele><time>2022-11-13T13:09:31.0000000+00:00</time></trkpt><trkpt lat="38.98976949" lon="-0.50979163"><ele>127.6</ele><time>2022-11-13T13:09:32.0000000+00:00</time></trkpt><trkpt lat="38.98976538" lon="-0.50977578"><ele>127.8</ele><time>2022-11-13T13:09:33.0000000+00:00</time></trkpt><trkpt lat="38.98976279" lon="-0.50975961"><ele>127.8</ele><time>2022-11-13T13:09:34.0000000+00:00</time></trkpt><trkpt lat="38.9897617" lon="-0.50974343"><ele>127.8</ele><time>2022-11-13T13:09:35.0000000+00:00</time></trkpt><trkpt lat="38.98976211" lon="-0.50972893"><ele>127.8</ele><time>2022-11-13T13:09:36.0000000+00:00</time></trkpt><trkpt lat="38.98976446" lon="-0.50971435"><ele>128.0</ele><time>2022-11-13T13:09:37.0000000+00:00</time></trkpt><trkpt lat="38.98976631" lon="-0.50970093"><ele>128.0</ele><time>2022-11-13T13:09:38.0000000+00:00</time></trkpt><trkpt lat="38.98976413" lon="-0.50968727"><ele>128.2</ele><time>2022-11-13T13:09:39.0000000+00:00</time></trkpt><trkpt lat="38.98976429" lon="-0.50967244"><ele>128.2</ele><time>2022-11-13T13:09:40.0000000+00:00</time></trkpt><trkpt lat="38.98976421" lon="-0.50965508"><ele>128.4</ele><time>2022-11-13T13:09:41.0000000+00:00</time></trkpt><trkpt lat="38.98976664" lon="-0.50963924"><ele>128.4</ele><time>2022-11-13T13:09:42.0000000+00:00</time></trkpt><trkpt lat="38.98977133" lon="-0.50962466"><ele>128.4</ele><time>2022-11-13T13:09:43.0000000+00:00</time></trkpt><trkpt lat="38.9897762" lon="-0.50961041"><ele>128.2</ele><time>2022-11-13T13:09:44.0000000+00:00</time></trkpt><trkpt lat="38.98978408" lon="-0.50959759"><ele>128.2</ele><time>2022-11-13T13:09:45.0000000+00:00</time></trkpt><trkpt lat="38.98978709" lon="-0.50957998"><ele>128.2</ele><time>2022-11-13T13:09:46.0000000+00:00</time></trkpt><trkpt lat="38.98979296" lon="-0.50956657"><ele>128.2</ele><time>2022-11-13T13:09:47.0000000+00:00</time></trkpt><trkpt lat="38.98979682" lon="-0.5095545"><ele>128.2</ele><time>2022-11-13T13:09:48.0000000+00:00</time></trkpt><trkpt lat="38.98980218" lon="-0.50954151"><ele>128.0</ele><time>2022-11-13T13:09:49.0000000+00:00</time></trkpt><trkpt lat="38.98980654" lon="-0.50952215"><ele>128.0</ele><time>2022-11-13T13:09:50.0000000+00:00</time></trkpt><trkpt lat="38.98981132" lon="-0.50950605"><ele>128.0</ele><time>2022-11-13T13:09:51.0000000+00:00</time></trkpt><trkpt lat="38.98981584" lon="-0.50949063"><ele>128.0</ele><time>2022-11-13T13:09:52.0000000+00:00</time></trkpt><trkpt lat="38.98981869" lon="-0.50947269"><ele>128.0</ele><time>2022-11-13T13:09:53.0000000+00:00</time></trkpt><trkpt lat="38.98982221" lon="-0.50945182"><ele>128.0</ele><time>2022-11-13T13:09:54.0000000+00:00</time></trkpt><trkpt lat="38.98982246" lon="-0.50943422"><ele>128.0</ele><time>2022-11-13T13:09:55.0000000+00:00</time></trkpt><trkpt lat="38.98982406" lon="-0.50941662"><ele>128.0</ele><time>2022-11-13T13:09:56.0000000+00:00</time></trkpt><trkpt lat="38.98983001" lon="-0.50940061"><ele>128.2</ele><time>2022-11-13T13:09:57.0000000+00:00</time></trkpt><trkpt lat="38.98983286" lon="-0.50937949"><ele>128.2</ele><time>2022-11-13T13:09:58.0000000+00:00</time></trkpt><trkpt lat="38.98983638" lon="-0.5093587"><ele>128.2</ele><time>2022-11-13T13:09:59.0000000+00:00</time></trkpt><trkpt lat="38.98984007" lon="-0.50934177"><ele>128.2</ele><time>2022-11-13T13:10:00.0000000+00:00</time></trkpt><trkpt lat="38.98984652" lon="-0.50932559"><ele>128.2</ele><time>2022-11-13T13:10:01.0000000+00:00</time></trkpt><trkpt lat="38.98985541" lon="-0.50931159"><ele>128.2</ele><time>2022-11-13T13:10:02.0000000+00:00</time></trkpt><trkpt lat="38.98986119" lon="-0.50929877"><ele>128.2</ele><time>2022-11-13T13:10:03.0000000+00:00</time></trkpt><trkpt lat="38.98986178" lon="-0.50928762"><ele>128.0</ele><time>2022-11-13T13:10:04.0000000+00:00</time></trkpt><trkpt lat="38.98986337" lon="-0.50927421"><ele>128.0</ele><time>2022-11-13T13:10:05.0000000+00:00</time></trkpt><trkpt lat="38.98986756" lon="-0.50925745"><ele>128.0</ele><time>2022-11-13T13:10:06.0000000+00:00</time></trkpt><trkpt lat="38.98987753" lon="-0.50924177"><ele>128.0</ele><time>2022-11-13T13:10:07.0000000+00:00</time></trkpt><trkpt lat="38.98988198" lon="-0.50922291"><ele>128.0</ele><time>2022-11-13T13:10:08.0000000+00:00</time></trkpt><trkpt lat="38.98988332" lon="-0.50920665"><ele>128.0</ele><time>2022-11-13T13:10:09.0000000+00:00</time></trkpt><trkpt lat="38.98988935" lon="-0.50919031"><ele>128.0</ele><time>2022-11-13T13:10:10.0000000+00:00</time></trkpt><trkpt lat="38.98989421" lon="-0.50917329"><ele>128.0</ele><time>2022-11-13T13:10:11.0000000+00:00</time></trkpt><trkpt lat="38.98989413" lon="-0.50915804"><ele>128.0</ele><time>2022-11-13T13:10:12.0000000+00:00</time></trkpt><trkpt lat="38.98989639" lon="-0.50914027"><ele>128.0</ele><time>2022-11-13T13:10:13.0000000+00:00</time></trkpt><trkpt lat="38.98990159" lon="-0.50912275"><ele>128.0</ele><time>2022-11-13T13:10:14.0000000+00:00</time></trkpt><trkpt lat="38.98990503" lon="-0.50910724"><ele>128.0</ele><time>2022-11-13T13:10:15.0000000+00:00</time></trkpt><trkpt lat="38.98990888" lon="-0.50909677"><ele>128.0</ele><time>2022-11-13T13:10:16.0000000+00:00</time></trkpt><trkpt lat="38.98991165" lon="-0.50907539"><ele>128.0</ele><time>2022-11-13T13:10:17.0000000+00:00</time></trkpt><trkpt lat="38.98991517" lon="-0.5090567"><ele>128.0</ele><time>2022-11-13T13:10:18.0000000+00:00</time></trkpt><trkpt lat="38.98992405" lon="-0.50904027"><ele>128.0</ele><time>2022-11-13T13:10:19.0000000+00:00</time></trkpt><trkpt lat="38.98993017" lon="-0.50902426"><ele>128.0</ele><time>2022-11-13T13:10:20.0000000+00:00</time></trkpt><trkpt lat="38.98993554" lon="-0.50901043"><ele>128.0</ele><time>2022-11-13T13:10:21.0000000+00:00</time></trkpt><trkpt lat="38.98993897" lon="-0.50899568"><ele>128.2</ele><time>2022-11-13T13:10:22.0000000+00:00</time></trkpt><trkpt lat="38.98993981" lon="-0.50897942"><ele>128.2</ele><time>2022-11-13T13:10:23.0000000+00:00</time></trkpt><trkpt lat="38.98994107" lon="-0.50896542"><ele>128.0</ele><time>2022-11-13T13:10:24.0000000+00:00</time></trkpt><trkpt lat="38.98994585" lon="-0.50894816"><ele>128.0</ele><time>2022-11-13T13:10:25.0000000+00:00</time></trkpt><trkpt lat="38.9899523" lon="-0.50893424"><ele>128.0</ele><time>2022-11-13T13:10:26.0000000+00:00</time></trkpt><trkpt lat="38.98996119" lon="-0.5089272"><ele>128.0</ele><time>2022-11-13T13:10:27.0000000+00:00</time></trkpt><trkpt lat="38.98996806" lon="-0.50891647"><ele>128.0</ele><time>2022-11-13T13:10:28.0000000+00:00</time></trkpt><trkpt lat="38.98997082" lon="-0.50890608"><ele>128.0</ele><time>2022-11-13T13:10:29.0000000+00:00</time></trkpt><trkpt lat="38.98997284" lon="-0.50889099"><ele>128.0</ele><time>2022-11-13T13:10:30.0000000+00:00</time></trkpt><trkpt lat="38.98997694" lon="-0.50887456"><ele>128.0</ele><time>2022-11-13T13:10:31.0000000+00:00</time></trkpt><trkpt lat="38.989986" lon="-0.50885847"><ele>128.0</ele><time>2022-11-13T13:10:32.0000000+00:00</time></trkpt><trkpt lat="38.98999505" lon="-0.50884187"><ele>128.0</ele><time>2022-11-13T13:10:33.0000000+00:00</time></trkpt><trkpt lat="38.99000351" lon="-0.50882293"><ele>128.0</ele><time>2022-11-13T13:10:34.0000000+00:00</time></trkpt><trkpt lat="38.99000879" lon="-0.50880508"><ele>128.0</ele><time>2022-11-13T13:10:35.0000000+00:00</time></trkpt><trkpt lat="38.99000963" lon="-0.50878706"><ele>128.0</ele><time>2022-11-13T13:10:36.0000000+00:00</time></trkpt><trkpt lat="38.990015" lon="-0.50877172"><ele>128.0</ele><time>2022-11-13T13:10:37.0000000+00:00</time></trkpt><trkpt lat="38.99002095" lon="-0.50875587"><ele>128.0</ele><time>2022-11-13T13:10:38.0000000+00:00</time></trkpt><trkpt lat="38.99002489" lon="-0.50873802"><ele>128.0</ele><time>2022-11-13T13:10:39.0000000+00:00</time></trkpt><trkpt lat="38.99002547" lon="-0.50871941"><ele>128.0</ele><time>2022-11-13T13:10:40.0000000+00:00</time></trkpt><trkpt lat="38.99002556" lon="-0.50870189"><ele>128.0</ele><time>2022-11-13T13:10:41.0000000+00:00</time></trkpt><trkpt lat="38.99002497" lon="-0.5086853"><ele>128.0</ele><time>2022-11-13T13:10:42.0000000+00:00</time></trkpt><trkpt lat="38.99002522" lon="-0.50867097"><ele>128.0</ele><time>2022-11-13T13:10:43.0000000+00:00</time></trkpt><trkpt lat="38.99002698" lon="-0.5086573"><ele>128.2</ele><time>2022-11-13T13:10:44.0000000+00:00</time></trkpt><trkpt lat="38.99002849" lon="-0.50863911"><ele>128.2</ele><time>2022-11-13T13:10:45.0000000+00:00</time></trkpt><trkpt lat="38.99002925" lon="-0.5086216"><ele>128.2</ele><time>2022-11-13T13:10:46.0000000+00:00</time></trkpt><trkpt lat="38.99003084" lon="-0.50860819"><ele>128.2</ele><time>2022-11-13T13:10:47.0000000+00:00</time></trkpt><trkpt lat="38.99003277" lon="-0.50859067"><ele>128.2</ele><time>2022-11-13T13:10:48.0000000+00:00</time></trkpt><trkpt lat="38.9900362" lon="-0.50857265"><ele>128.2</ele><time>2022-11-13T13:10:49.0000000+00:00</time></trkpt><trkpt lat="38.99004215" lon="-0.50855722"><ele>128.2</ele><time>2022-11-13T13:10:50.0000000+00:00</time></trkpt><trkpt lat="38.9900476" lon="-0.50854406"><ele>128.2</ele><time>2022-11-13T13:10:51.0000000+00:00</time></trkpt><trkpt lat="38.99004928" lon="-0.50852956"><ele>128.2</ele><time>2022-11-13T13:10:52.0000000+00:00</time></trkpt><trkpt lat="38.99005079" lon="-0.50851498"><ele>128.2</ele><time>2022-11-13T13:10:53.0000000+00:00</time></trkpt><trkpt lat="38.99005104" lon="-0.50849981"><ele>128.2</ele><time>2022-11-13T13:10:54.0000000+00:00</time></trkpt><trkpt lat="38.99005154" lon="-0.50848112"><ele>128.2</ele><time>2022-11-13T13:10:55.0000000+00:00</time></trkpt><trkpt lat="38.99005272" lon="-0.50845698"><ele>128.0</ele><time>2022-11-13T13:10:56.0000000+00:00</time></trkpt><trkpt lat="38.99005699" lon="-0.50843317"><ele>128.2</ele><time>2022-11-13T13:10:57.0000000+00:00</time></trkpt><trkpt lat="38.99006168" lon="-0.50841582"><ele>128.2</ele><time>2022-11-13T13:10:58.0000000+00:00</time></trkpt><trkpt lat="38.99007023" lon="-0.50839822"><ele>128.2</ele><time>2022-11-13T13:10:59.0000000+00:00</time></trkpt><trkpt lat="38.99007308" lon="-0.50837944"><ele>128.4</ele><time>2022-11-13T13:11:00.0000000+00:00</time></trkpt><trkpt lat="38.99007736" lon="-0.50836293"><ele>128.4</ele><time>2022-11-13T13:11:01.0000000+00:00</time></trkpt><trkpt lat="38.99007836" lon="-0.50834944"><ele>128.4</ele><time>2022-11-13T13:11:02.0000000+00:00</time></trkpt><trkpt lat="38.99007602" lon="-0.50833359"><ele>128.4</ele><time>2022-11-13T13:11:03.0000000+00:00</time></trkpt><trkpt lat="38.99006931" lon="-0.50831658"><ele>128.4</ele><time>2022-11-13T13:11:04.0000000+00:00</time></trkpt><trkpt lat="38.99006805" lon="-0.50829965"><ele>128.2</ele><time>2022-11-13T13:11:05.0000000+00:00</time></trkpt><trkpt lat="38.99007359" lon="-0.50828221"><ele>128.2</ele><time>2022-11-13T13:11:06.0000000+00:00</time></trkpt><trkpt lat="38.99008079" lon="-0.50826972"><ele>128.2</ele><time>2022-11-13T13:11:07.0000000+00:00</time></trkpt><trkpt lat="38.99008121" lon="-0.50825514"><ele>128.2</ele><time>2022-11-13T13:11:08.0000000+00:00</time></trkpt><trkpt lat="38.99008172" lon="-0.50823628"><ele>128.2</ele><time>2022-11-13T13:11:09.0000000+00:00</time></trkpt><trkpt lat="38.99008038" lon="-0.50822144"><ele>128.2</ele><time>2022-11-13T13:11:10.0000000+00:00</time></trkpt><trkpt lat="38.99008038" lon="-0.50820803"><ele>128.2</ele><time>2022-11-13T13:11:11.0000000+00:00</time></trkpt><trkpt lat="38.99008457" lon="-0.50819647"><ele>128.2</ele><time>2022-11-13T13:11:12.0000000+00:00</time></trkpt><trkpt lat="38.99008532" lon="-0.5081761"><ele>128.2</ele><time>2022-11-13T13:11:13.0000000+00:00</time></trkpt><trkpt lat="38.9900875" lon="-0.50815699"><ele>128.2</ele><time>2022-11-13T13:11:14.0000000+00:00</time></trkpt><trkpt lat="38.99008934" lon="-0.50813519"><ele>128.2</ele><time>2022-11-13T13:11:15.0000000+00:00</time></trkpt><trkpt lat="38.99009639" lon="-0.50811944"><ele>128.2</ele><time>2022-11-13T13:11:16.0000000+00:00</time></trkpt><trkpt lat="38.99010108" lon="-0.50810049"><ele>128.2</ele><time>2022-11-13T13:11:17.0000000+00:00</time></trkpt><trkpt lat="38.99010628" lon="-0.50807945"><ele>128.2</ele><time>2022-11-13T13:11:18.0000000+00:00</time></trkpt><trkpt lat="38.99011214" lon="-0.50806076"><ele>128.0</ele><time>2022-11-13T13:11:19.0000000+00:00</time></trkpt><trkpt lat="38.99011172" lon="-0.50804467"><ele>128.2</ele><time>2022-11-13T13:11:20.0000000+00:00</time></trkpt><trkpt lat="38.99011415" lon="-0.50803118"><ele>128.2</ele><time>2022-11-13T13:11:21.0000000+00:00</time></trkpt><trkpt lat="38.99011868" lon="-0.50801357"><ele>128.2</ele><time>2022-11-13T13:11:22.0000000+00:00</time></trkpt><trkpt lat="38.99011994" lon="-0.50799706"><ele>128.2</ele><time>2022-11-13T13:11:23.0000000+00:00</time></trkpt><trkpt lat="38.99011751" lon="-0.50798063"><ele>128.2</ele><time>2022-11-13T13:11:24.0000000+00:00</time></trkpt><trkpt lat="38.99011181" lon="-0.50796446"><ele>128.2</ele><time>2022-11-13T13:11:25.0000000+00:00</time></trkpt><trkpt lat="38.99010946" lon="-0.50794845"><ele>128.2</ele><time>2022-11-13T13:11:26.0000000+00:00</time></trkpt><trkpt lat="38.99011105" lon="-0.50793654"><ele>128.2</ele><time>2022-11-13T13:11:27.0000000+00:00</time></trkpt><trkpt lat="38.99011122" lon="-0.50792389"><ele>128.2</ele><time>2022-11-13T13:11:28.0000000+00:00</time></trkpt><trkpt lat="38.99011273" lon="-0.50791039"><ele>128.0</ele><time>2022-11-13T13:11:29.0000000+00:00</time></trkpt><trkpt lat="38.99011583" lon="-0.50789648"><ele>128.0</ele><time>2022-11-13T13:11:30.0000000+00:00</time></trkpt><trkpt lat="38.99011927" lon="-0.50788013"><ele>128.0</ele><time>2022-11-13T13:11:31.0000000+00:00</time></trkpt><trkpt lat="38.99012254" lon="-0.50786345"><ele>128.0</ele><time>2022-11-13T13:11:32.0000000+00:00</time></trkpt><trkpt lat="38.99012698" lon="-0.50784568"><ele>128.0</ele><time>2022-11-13T13:11:33.0000000+00:00</time></trkpt><trkpt lat="38.99013033" lon="-0.50782196"><ele>128.0</ele><time>2022-11-13T13:11:34.0000000+00:00</time></trkpt><trkpt lat="38.99012153" lon="-0.50780461"><ele>128.0</ele><time>2022-11-13T13:11:35.0000000+00:00</time></trkpt><trkpt lat="38.99011818" lon="-0.50778307"><ele>128.0</ele><time>2022-11-13T13:11:36.0000000+00:00</time></trkpt><trkpt lat="38.99011927" lon="-0.50776463"><ele>128.0</ele><time>2022-11-13T13:11:37.0000000+00:00</time></trkpt><trkpt lat="38.99012245" lon="-0.50774728"><ele>128.0</ele><time>2022-11-13T13:11:38.0000000+00:00</time></trkpt><trkpt lat="38.99012438" lon="-0.50772993"><ele>127.8</ele><time>2022-11-13T13:11:39.0000000+00:00</time></trkpt><trkpt lat="38.99012396" lon="-0.50771182"><ele>127.8</ele><time>2022-11-13T13:11:40.0000000+00:00</time></trkpt><trkpt lat="38.99012379" lon="-0.5076933"><ele>127.8</ele><time>2022-11-13T13:11:41.0000000+00:00</time></trkpt><trkpt lat="38.99012522" lon="-0.50767687"><ele>127.8</ele><time>2022-11-13T13:11:42.0000000+00:00</time></trkpt><trkpt lat="38.99012698" lon="-0.50766162"><ele>127.8</ele><time>2022-11-13T13:11:43.0000000+00:00</time></trkpt><trkpt lat="38.99013368" lon="-0.50764259"><ele>127.8</ele><time>2022-11-13T13:11:44.0000000+00:00</time></trkpt><trkpt lat="38.99014073" lon="-0.50762608"><ele>127.8</ele><time>2022-11-13T13:11:45.0000000+00:00</time></trkpt><trkpt lat="38.99014634" lon="-0.50761049"><ele>128.0</ele><time>2022-11-13T13:11:46.0000000+00:00</time></trkpt><trkpt lat="38.99015087" lon="-0.5075959"><ele>128.0</ele><time>2022-11-13T13:11:47.0000000+00:00</time></trkpt><trkpt lat="38.99015179" lon="-0.50757906"><ele>128.0</ele><time>2022-11-13T13:11:48.0000000+00:00</time></trkpt><trkpt lat="38.9901507" lon="-0.50756455"><ele>128.0</ele><time>2022-11-13T13:11:49.0000000+00:00</time></trkpt><trkpt lat="38.99015229" lon="-0.50755223"><ele>128.0</ele><time>2022-11-13T13:11:50.0000000+00:00</time></trkpt><trkpt lat="38.99015472" lon="-0.50754125"><ele>128.0</ele><time>2022-11-13T13:11:51.0000000+00:00</time></trkpt><trkpt lat="38.99016009" lon="-0.50752608"><ele>128.0</ele><time>2022-11-13T13:11:52.0000000+00:00</time></trkpt><trkpt lat="38.99016545" lon="-0.50750353"><ele>128.0</ele><time>2022-11-13T13:11:53.0000000+00:00</time></trkpt><trkpt lat="38.99016688" lon="-0.50748711"><ele>128.0</ele><time>2022-11-13T13:11:54.0000000+00:00</time></trkpt><trkpt lat="38.99017199" lon="-0.50746934"><ele>128.0</ele><time>2022-11-13T13:11:55.0000000+00:00</time></trkpt><trkpt lat="38.99017568" lon="-0.50745266"><ele>128.0</ele><time>2022-11-13T13:11:56.0000000+00:00</time></trkpt><trkpt lat="38.99018129" lon="-0.50743765"><ele>128.0</ele><time>2022-11-13T13:11:57.0000000+00:00</time></trkpt><trkpt lat="38.99018255" lon="-0.5074234"><ele>128.0</ele><time>2022-11-13T13:11:58.0000000+00:00</time></trkpt><trkpt lat="38.9901849" lon="-0.50740639"><ele>128.0</ele><time>2022-11-13T13:11:59.0000000+00:00</time></trkpt><trkpt lat="38.99018951" lon="-0.50738761"><ele>128.0</ele><time>2022-11-13T13:12:00.0000000+00:00</time></trkpt><trkpt lat="38.99019504" lon="-0.50736657"><ele>128.0</ele><time>2022-11-13T13:12:01.0000000+00:00</time></trkpt><trkpt lat="38.99019789" lon="-0.50734428"><ele>128.0</ele><time>2022-11-13T13:12:02.0000000+00:00</time></trkpt><trkpt lat="38.9901994" lon="-0.50732768"><ele>128.0</ele><time>2022-11-13T13:12:03.0000000+00:00</time></trkpt><trkpt lat="38.99020317" lon="-0.50731469"><ele>128.2</ele><time>2022-11-13T13:12:04.0000000+00:00</time></trkpt><trkpt lat="38.9902056" lon="-0.50729985"><ele>128.2</ele><time>2022-11-13T13:12:05.0000000+00:00</time></trkpt><trkpt lat="38.99020812" lon="-0.50728569"><ele>128.2</ele><time>2022-11-13T13:12:06.0000000+00:00</time></trkpt><trkpt lat="38.99020652" lon="-0.50726901"><ele>128.2</ele><time>2022-11-13T13:12:07.0000000+00:00</time></trkpt><trkpt lat="38.99020686" lon="-0.50724965"><ele>128.2</ele><time>2022-11-13T13:12:08.0000000+00:00</time></trkpt><trkpt lat="38.99020778" lon="-0.50723674"><ele>128.0</ele><time>2022-11-13T13:12:09.0000000+00:00</time></trkpt><trkpt lat="38.99020703" lon="-0.50722433"><ele>128.0</ele><time>2022-11-13T13:12:10.0000000+00:00</time></trkpt><trkpt lat="38.99020828" lon="-0.5072105"><ele>128.0</ele><time>2022-11-13T13:12:11.0000000+00:00</time></trkpt><trkpt lat="38.9902134" lon="-0.50719525"><ele>128.0</ele><time>2022-11-13T13:12:12.0000000+00:00</time></trkpt><trkpt lat="38.99021675" lon="-0.50718142"><ele>128.0</ele><time>2022-11-13T13:12:13.0000000+00:00</time></trkpt><trkpt lat="38.9902144" lon="-0.50716574"><ele>128.0</ele><time>2022-11-13T13:12:14.0000000+00:00</time></trkpt><trkpt lat="38.99021524" lon="-0.50715066"><ele>128.0</ele><time>2022-11-13T13:12:15.0000000+00:00</time></trkpt><trkpt lat="38.99021549" lon="-0.50713565"><ele>128.0</ele><time>2022-11-13T13:12:16.0000000+00:00</time></trkpt><trkpt lat="38.99021801" lon="-0.50712124"><ele>128.0</ele><time>2022-11-13T13:12:17.0000000+00:00</time></trkpt><trkpt lat="38.9902175" lon="-0.50710606"><ele>128.0</ele><time>2022-11-13T13:12:18.0000000+00:00</time></trkpt><trkpt lat="38.99021952" lon="-0.50708612"><ele>128.0</ele><time>2022-11-13T13:12:19.0000000+00:00</time></trkpt><trkpt lat="38.9902253" lon="-0.50706457"><ele>128.0</ele><time>2022-11-13T13:12:20.0000000+00:00</time></trkpt><trkpt lat="38.99022932" lon="-0.50704337"><ele>128.0</ele><time>2022-11-13T13:12:21.0000000+00:00</time></trkpt><trkpt lat="38.99023301" lon="-0.50701956"><ele>128.0</ele><time>2022-11-13T13:12:22.0000000+00:00</time></trkpt><trkpt lat="38.99023712" lon="-0.50699945"><ele>128.0</ele><time>2022-11-13T13:12:23.0000000+00:00</time></trkpt><trkpt lat="38.99023938" lon="-0.50698352"><ele>128.0</ele><time>2022-11-13T13:12:24.0000000+00:00</time></trkpt><trkpt lat="38.99023871" lon="-0.50696986"><ele>128.0</ele><time>2022-11-13T13:12:25.0000000+00:00</time></trkpt><trkpt lat="38.99024081" lon="-0.50695343"><ele>128.0</ele><time>2022-11-13T13:12:26.0000000+00:00</time></trkpt><trkpt lat="38.99024349" lon="-0.50693524"><ele>128.0</ele><time>2022-11-13T13:12:27.0000000+00:00</time></trkpt><trkpt lat="38.99024785" lon="-0.50691965"><ele>128.0</ele><time>2022-11-13T13:12:28.0000000+00:00</time></trkpt><trkpt lat="38.99025472" lon="-0.50690339"><ele>128.0</ele><time>2022-11-13T13:12:29.0000000+00:00</time></trkpt><trkpt lat="38.99025966" lon="-0.50688713"><ele>128.0</ele><time>2022-11-13T13:12:30.0000000+00:00</time></trkpt><trkpt lat="38.99026453" lon="-0.50686609"><ele>128.0</ele><time>2022-11-13T13:12:31.0000000+00:00</time></trkpt><trkpt lat="38.99026972" lon="-0.50684363"><ele>128.2</ele><time>2022-11-13T13:12:32.0000000+00:00</time></trkpt><trkpt lat="38.99027308" lon="-0.50682284"><ele>128.2</ele><time>2022-11-13T13:12:33.0000000+00:00</time></trkpt><trkpt lat="38.99027534" lon="-0.50680582"><ele>128.2</ele><time>2022-11-13T13:12:34.0000000+00:00</time></trkpt><trkpt lat="38.99027576" lon="-0.5067909"><ele>128.2</ele><time>2022-11-13T13:12:35.0000000+00:00</time></trkpt><trkpt lat="38.9902662" lon="-0.5067842"><ele>128.2</ele><time>2022-11-13T13:12:36.0000000+00:00</time></trkpt><trkpt lat="38.99026503" lon="-0.50676609"><ele>128.2</ele><time>2022-11-13T13:12:37.0000000+00:00</time></trkpt><trkpt lat="38.99026495" lon="-0.50674983"><ele>128.2</ele><time>2022-11-13T13:12:38.0000000+00:00</time></trkpt><trkpt lat="38.9902657" lon="-0.50673072"><ele>128.2</ele><time>2022-11-13T13:12:39.0000000+00:00</time></trkpt><trkpt lat="38.99026654" lon="-0.50671186"><ele>128.0</ele><time>2022-11-13T13:12:40.0000000+00:00</time></trkpt><trkpt lat="38.99026687" lon="-0.50669334"><ele>128.0</ele><time>2022-11-13T13:12:41.0000000+00:00</time></trkpt><trkpt lat="38.99026587" lon="-0.50667465"><ele>128.0</ele><time>2022-11-13T13:12:42.0000000+00:00</time></trkpt><trkpt lat="38.99026662" lon="-0.50665755"><ele>127.8</ele><time>2022-11-13T13:12:43.0000000+00:00</time></trkpt><trkpt lat="38.99026805" lon="-0.50663777"><ele>127.8</ele><time>2022-11-13T13:12:44.0000000+00:00</time></trkpt><trkpt lat="38.99027132" lon="-0.50661815"><ele>127.8</ele><time>2022-11-13T13:12:45.0000000+00:00</time></trkpt><trkpt lat="38.99027576" lon="-0.50660566"><ele>127.8</ele><time>2022-11-13T13:12:46.0000000+00:00</time></trkpt><trkpt lat="38.99027676" lon="-0.50658639"><ele>127.8</ele><time>2022-11-13T13:12:47.0000000+00:00</time></trkpt><trkpt lat="38.99027132" lon="-0.50657054"><ele>127.8</ele><time>2022-11-13T13:12:48.0000000+00:00</time></trkpt><trkpt lat="38.99027031" lon="-0.50655554"><ele>127.8</ele><time>2022-11-13T13:12:49.0000000+00:00</time></trkpt><trkpt lat="38.99027199" lon="-0.50654096"><ele>127.8</ele><time>2022-11-13T13:12:50.0000000+00:00</time></trkpt><trkpt lat="38.99027534" lon="-0.50652998"><ele>128.0</ele><time>2022-11-13T13:12:51.0000000+00:00</time></trkpt><trkpt lat="38.99027886" lon="-0.5065148"><ele>128.0</ele><time>2022-11-13T13:12:52.0000000+00:00</time></trkpt><trkpt lat="38.99028154" lon="-0.50649896"><ele>128.2</ele><time>2022-11-13T13:12:53.0000000+00:00</time></trkpt><trkpt lat="38.99028431" lon="-0.50647306"><ele>128.2</ele><time>2022-11-13T13:12:54.0000000+00:00</time></trkpt><trkpt lat="38.99028506" lon="-0.50645663"><ele>128.2</ele><time>2022-11-13T13:12:55.0000000+00:00</time></trkpt><trkpt lat="38.99029085" lon="-0.50644632"><ele>128.2</ele><time>2022-11-13T13:12:56.0000000+00:00</time></trkpt><trkpt lat="38.99028992" lon="-0.50643275"><ele>128.2</ele><time>2022-11-13T13:12:57.0000000+00:00</time></trkpt><trkpt lat="38.99029101" lon="-0.50641179"><ele>128.2</ele><time>2022-11-13T13:12:58.0000000+00:00</time></trkpt><trkpt lat="38.9902968" lon="-0.50639989"><ele>128.2</ele><time>2022-11-13T13:12:59.0000000+00:00</time></trkpt><trkpt lat="38.99030224" lon="-0.50638304"><ele>128.2</ele><time>2022-11-13T13:13:00.0000000+00:00</time></trkpt><trkpt lat="38.99030627" lon="-0.50636636"><ele>128.2</ele><time>2022-11-13T13:13:01.0000000+00:00</time></trkpt><trkpt lat="38.99031297" lon="-0.50635052"><ele>128.2</ele><time>2022-11-13T13:13:02.0000000+00:00</time></trkpt><trkpt lat="38.99031658" lon="-0.50633183"><ele>128.2</ele><time>2022-11-13T13:13:03.0000000+00:00</time></trkpt><trkpt lat="38.99031993" lon="-0.5063128"><ele>128.2</ele><time>2022-11-13T13:13:04.0000000+00:00</time></trkpt><trkpt lat="38.99032437" lon="-0.50629327"><ele>128.2</ele><time>2022-11-13T13:13:05.0000000+00:00</time></trkpt><trkpt lat="38.99032638" lon="-0.50627709"><ele>128.2</ele><time>2022-11-13T13:13:06.0000000+00:00</time></trkpt><trkpt lat="38.99032789" lon="-0.50626025"><ele>128.0</ele><time>2022-11-13T13:13:07.0000000+00:00</time></trkpt><trkpt lat="38.99033074" lon="-0.50624784"><ele>128.0</ele><time>2022-11-13T13:13:08.0000000+00:00</time></trkpt><trkpt lat="38.9903341" lon="-0.50622907"><ele>128.0</ele><time>2022-11-13T13:13:09.0000000+00:00</time></trkpt><trkpt lat="38.99033653" lon="-0.50620937"><ele>128.0</ele><time>2022-11-13T13:13:10.0000000+00:00</time></trkpt><trkpt lat="38.9903377" lon="-0.50619235"><ele>128.0</ele><time>2022-11-13T13:13:11.0000000+00:00</time></trkpt><trkpt lat="38.99033954" lon="-0.50617735"><ele>128.0</ele><time>2022-11-13T13:13:12.0000000+00:00</time></trkpt><trkpt lat="38.99033954" lon="-0.50616277"><ele>128.0</ele><time>2022-11-13T13:13:13.0000000+00:00</time></trkpt><trkpt lat="38.99034147" lon="-0.50615036"><ele>128.2</ele><time>2022-11-13T13:13:14.0000000+00:00</time></trkpt><trkpt lat="38.99034315" lon="-0.50613393"><ele>128.2</ele><time>2022-11-13T13:13:15.0000000+00:00</time></trkpt><trkpt lat="38.99034357" lon="-0.50611809"><ele>128.2</ele><time>2022-11-13T13:13:16.0000000+00:00</time></trkpt><trkpt lat="38.99034566" lon="-0.50610208"><ele>128.2</ele><time>2022-11-13T13:13:17.0000000+00:00</time></trkpt><trkpt lat="38.99034952" lon="-0.50608666"><ele>128.2</ele><time>2022-11-13T13:13:18.0000000+00:00</time></trkpt><trkpt lat="38.99035145" lon="-0.50607014"><ele>128.2</ele><time>2022-11-13T13:13:19.0000000+00:00</time></trkpt><trkpt lat="38.99035488" lon="-0.50605212"><ele>128.2</ele><time>2022-11-13T13:13:20.0000000+00:00</time></trkpt><trkpt lat="38.99035857" lon="-0.50603452"><ele>128.2</ele><time>2022-11-13T13:13:21.0000000+00:00</time></trkpt><trkpt lat="38.99036301" lon="-0.50601893"><ele>128.2</ele><time>2022-11-13T13:13:22.0000000+00:00</time></trkpt><trkpt lat="38.99036628" lon="-0.50600343"><ele>128.2</ele><time>2022-11-13T13:13:23.0000000+00:00</time></trkpt><trkpt lat="38.99036603" lon="-0.50598641"><ele>128.2</ele><time>2022-11-13T13:13:24.0000000+00:00</time></trkpt><trkpt lat="38.99036167" lon="-0.50596906"><ele>128.4</ele><time>2022-11-13T13:13:25.0000000+00:00</time></trkpt><trkpt lat="38.99035597" lon="-0.50595112"><ele>128.4</ele><time>2022-11-13T13:13:26.0000000+00:00</time></trkpt><trkpt lat="38.99035145" lon="-0.5059326"><ele>128.4</ele><time>2022-11-13T13:13:27.0000000+00:00</time></trkpt><trkpt lat="38.99034793" lon="-0.50591525"><ele>128.2</ele><time>2022-11-13T13:13:28.0000000+00:00</time></trkpt><trkpt lat="38.99034491" lon="-0.50589681"><ele>128.2</ele><time>2022-11-13T13:13:29.0000000+00:00</time></trkpt><trkpt lat="38.99034273" lon="-0.50587912"><ele>128.2</ele><time>2022-11-13T13:13:30.0000000+00:00</time></trkpt><trkpt lat="38.99034139" lon="-0.50586387"><ele>128.0</ele><time>2022-11-13T13:13:31.0000000+00:00</time></trkpt><trkpt lat="38.99034265" lon="-0.50584819"><ele>128.0</ele><time>2022-11-13T13:13:32.0000000+00:00</time></trkpt><trkpt lat="38.99034541" lon="-0.50583327"><ele>128.0</ele><time>2022-11-13T13:13:33.0000000+00:00</time></trkpt><trkpt lat="38.99034566" lon="-0.5058212"><ele>128.2</ele><time>2022-11-13T13:13:34.0000000+00:00</time></trkpt><trkpt lat="38.99034608" lon="-0.50580796"><ele>128.2</ele><time>2022-11-13T13:13:35.0000000+00:00</time></trkpt><trkpt lat="38.990347" lon="-0.50579279"><ele>128.4</ele><time>2022-11-13T13:13:36.0000000+00:00</time></trkpt><trkpt lat="38.99034424" lon="-0.50577493"><ele>128.6</ele><time>2022-11-13T13:13:37.0000000+00:00</time></trkpt><trkpt lat="38.99034223" lon="-0.505757"><ele>128.6</ele><time>2022-11-13T13:13:38.0000000+00:00</time></trkpt><trkpt lat="38.99034072" lon="-0.50573973"><ele>128.8</ele><time>2022-11-13T13:13:39.0000000+00:00</time></trkpt><trkpt lat="38.99033938" lon="-0.5057238"><ele>128.8</ele><time>2022-11-13T13:13:40.0000000+00:00</time></trkpt><trkpt lat="38.99034021" lon="-0.5057062"><ele>128.8</ele><time>2022-11-13T13:13:41.0000000+00:00</time></trkpt><trkpt lat="38.9903408" lon="-0.50569112"><ele>128.6</ele><time>2022-11-13T13:13:42.0000000+00:00</time></trkpt><trkpt lat="38.99034281" lon="-0.50567452"><ele>128.6</ele><time>2022-11-13T13:13:43.0000000+00:00</time></trkpt><trkpt lat="38.99034432" lon="-0.50565583"><ele>128.6</ele><time>2022-11-13T13:13:44.0000000+00:00</time></trkpt><trkpt lat="38.99034767" lon="-0.50563814"><ele>128.6</ele><time>2022-11-13T13:13:45.0000000+00:00</time></trkpt><trkpt lat="38.99034717" lon="-0.50562054"><ele>128.8</ele><time>2022-11-13T13:13:46.0000000+00:00</time></trkpt><trkpt lat="38.99034591" lon="-0.50560411"><ele>128.8</ele><time>2022-11-13T13:13:47.0000000+00:00</time></trkpt><trkpt lat="38.99034625" lon="-0.50558735"><ele>128.8</ele><time>2022-11-13T13:13:48.0000000+00:00</time></trkpt><trkpt lat="38.99035002" lon="-0.50557117"><ele>129.0</ele><time>2022-11-13T13:13:49.0000000+00:00</time></trkpt><trkpt lat="38.99034943" lon="-0.50555483"><ele>129.0</ele><time>2022-11-13T13:13:50.0000000+00:00</time></trkpt><trkpt lat="38.99034633" lon="-0.50554217"><ele>129.0</ele><time>2022-11-13T13:13:51.0000000+00:00</time></trkpt><trkpt lat="38.99034281" lon="-0.50552616"><ele>129.0</ele><time>2022-11-13T13:13:52.0000000+00:00</time></trkpt><trkpt lat="38.99034508" lon="-0.5055109"><ele>129.0</ele><time>2022-11-13T13:13:53.0000000+00:00</time></trkpt><trkpt lat="38.9903434" lon="-0.50549624"><ele>129.0</ele><time>2022-11-13T13:13:54.0000000+00:00</time></trkpt><trkpt lat="38.9903439" lon="-0.50548174"><ele>129.0</ele><time>2022-11-13T13:13:55.0000000+00:00</time></trkpt><trkpt lat="38.99034441" lon="-0.50546472"><ele>129.0</ele><time>2022-11-13T13:13:56.0000000+00:00</time></trkpt><trkpt lat="38.99034189" lon="-0.50544863"><ele>128.8</ele><time>2022-11-13T13:13:57.0000000+00:00</time></trkpt><trkpt lat="38.99034047" lon="-0.50543052"><ele>128.8</ele><time>2022-11-13T13:13:58.0000000+00:00</time></trkpt><trkpt lat="38.99033745" lon="-0.5054115"><ele>128.8</ele><time>2022-11-13T13:13:59.0000000+00:00</time></trkpt><trkpt lat="38.99033653" lon="-0.50539213"><ele>128.8</ele><time>2022-11-13T13:14:00.0000000+00:00</time></trkpt><trkpt lat="38.99033175" lon="-0.50537361"><ele>128.8</ele><time>2022-11-13T13:14:01.0000000+00:00</time></trkpt><trkpt lat="38.9903289" lon="-0.50535567"><ele>128.8</ele><time>2022-11-13T13:14:02.0000000+00:00</time></trkpt><trkpt lat="38.99032454" lon="-0.50533757"><ele>128.8</ele><time>2022-11-13T13:14:03.0000000+00:00</time></trkpt><trkpt lat="38.99032186" lon="-0.50532047"><ele>128.8</ele><time>2022-11-13T13:14:04.0000000+00:00</time></trkpt><trkpt lat="38.99032228" lon="-0.5053032"><ele>128.8</ele><time>2022-11-13T13:14:05.0000000+00:00</time></trkpt><trkpt lat="38.99032555" lon="-0.5052861"><ele>128.8</ele><time>2022-11-13T13:14:06.0000000+00:00</time></trkpt><trkpt lat="38.99032605" lon="-0.50526992"><ele>129.0</ele><time>2022-11-13T13:14:07.0000000+00:00</time></trkpt><trkpt lat="38.99032588" lon="-0.50525375"><ele>129.0</ele><time>2022-11-13T13:14:08.0000000+00:00</time></trkpt><trkpt lat="38.99032588" lon="-0.50523824"><ele>129.0</ele><time>2022-11-13T13:14:09.0000000+00:00</time></trkpt><trkpt lat="38.99032353" lon="-0.50522533"><ele>129.0</ele><time>2022-11-13T13:14:10.0000000+00:00</time></trkpt><trkpt lat="38.99032379" lon="-0.50521159"><ele>129.0</ele><time>2022-11-13T13:14:11.0000000+00:00</time></trkpt><trkpt lat="38.99032437" lon="-0.50519776"><ele>129.0</ele><time>2022-11-13T13:14:12.0000000+00:00</time></trkpt><trkpt lat="38.9903258" lon="-0.50518317"><ele>129.0</ele><time>2022-11-13T13:14:13.0000000+00:00</time></trkpt><trkpt lat="38.99032664" lon="-0.5051685"><ele>129.0</ele><time>2022-11-13T13:14:14.0000000+00:00</time></trkpt><trkpt lat="38.99032546" lon="-0.50514755"><ele>129.0</ele><time>2022-11-13T13:14:15.0000000+00:00</time></trkpt><trkpt lat="38.99032203" lon="-0.50513221"><ele>128.8</ele><time>2022-11-13T13:14:16.0000000+00:00</time></trkpt><trkpt lat="38.99031968" lon="-0.50511645"><ele>128.8</ele><time>2022-11-13T13:14:17.0000000+00:00</time></trkpt><trkpt lat="38.99031624" lon="-0.50509734"><ele>128.8</ele><time>2022-11-13T13:14:18.0000000+00:00</time></trkpt><trkpt lat="38.9903175" lon="-0.5050789"><ele>128.8</ele><time>2022-11-13T13:14:19.0000000+00:00</time></trkpt><trkpt lat="38.99031834" lon="-0.5050592"><ele>128.8</ele><time>2022-11-13T13:14:20.0000000+00:00</time></trkpt><trkpt lat="38.99031825" lon="-0.5050406"><ele>128.8</ele><time>2022-11-13T13:14:21.0000000+00:00</time></trkpt><trkpt lat="38.99031716" lon="-0.50502073"><ele>128.8</ele><time>2022-11-13T13:14:22.0000000+00:00</time></trkpt><trkpt lat="38.99031775" lon="-0.50500841"><ele>128.8</ele><time>2022-11-13T13:14:23.0000000+00:00</time></trkpt><trkpt lat="38.99031742" lon="-0.50499005"><ele>128.8</ele><time>2022-11-13T13:14:24.0000000+00:00</time></trkpt><trkpt lat="38.99031607" lon="-0.50497086"><ele>128.8</ele><time>2022-11-13T13:14:25.0000000+00:00</time></trkpt><trkpt lat="38.99031851" lon="-0.5049525"><ele>128.8</ele><time>2022-11-13T13:14:26.0000000+00:00</time></trkpt><trkpt lat="38.99032211" lon="-0.50493448"><ele>128.8</ele><time>2022-11-13T13:14:27.0000000+00:00</time></trkpt><trkpt lat="38.99032404" lon="-0.50491797"><ele>128.8</ele><time>2022-11-13T13:14:28.0000000+00:00</time></trkpt><trkpt lat="38.99032747" lon="-0.50490255"><ele>129.0</ele><time>2022-11-13T13:14:29.0000000+00:00</time></trkpt><trkpt lat="38.99033141" lon="-0.50488754"><ele>129.0</ele><time>2022-11-13T13:14:30.0000000+00:00</time></trkpt><trkpt lat="38.99033418" lon="-0.50487069"><ele>129.0</ele><time>2022-11-13T13:14:31.0000000+00:00</time></trkpt><trkpt lat="38.99033401" lon="-0.50485334"><ele>129.0</ele><time>2022-11-13T13:14:32.0000000+00:00</time></trkpt><trkpt lat="38.99033401" lon="-0.50483625"><ele>129.0</ele><time>2022-11-13T13:14:33.0000000+00:00</time></trkpt><trkpt lat="38.99033619" lon="-0.50481973"><ele>129.0</ele><time>2022-11-13T13:14:34.0000000+00:00</time></trkpt><trkpt lat="38.99033745" lon="-0.50480221"><ele>129.0</ele><time>2022-11-13T13:14:35.0000000+00:00</time></trkpt><trkpt lat="38.99033929" lon="-0.50478629"><ele>129.0</ele><time>2022-11-13T13:14:36.0000000+00:00</time></trkpt><trkpt lat="38.99033988" lon="-0.50476969"><ele>129.0</ele><time>2022-11-13T13:14:37.0000000+00:00</time></trkpt><trkpt lat="38.99033946" lon="-0.50475192"><ele>129.0</ele><time>2022-11-13T13:14:38.0000000+00:00</time></trkpt><trkpt lat="38.99033879" lon="-0.50473533"><ele>129.0</ele><time>2022-11-13T13:14:39.0000000+00:00</time></trkpt><trkpt lat="38.99033845" lon="-0.50471798"><ele>129.0</ele><time>2022-11-13T13:14:40.0000000+00:00</time></trkpt><trkpt lat="38.99034181" lon="-0.50470172"><ele>129.0</ele><time>2022-11-13T13:14:41.0000000+00:00</time></trkpt><trkpt lat="38.99034466" lon="-0.50468386"><ele>129.0</ele><time>2022-11-13T13:14:42.0000000+00:00</time></trkpt><trkpt lat="38.99034642" lon="-0.50466819"><ele>129.2</ele><time>2022-11-13T13:14:43.0000000+00:00</time></trkpt><trkpt lat="38.99034566" lon="-0.50465402"><ele>129.2</ele><time>2022-11-13T13:14:44.0000000+00:00</time></trkpt><trkpt lat="38.9903439" lon="-0.50463994"><ele>129.2</ele><time>2022-11-13T13:14:45.0000000+00:00</time></trkpt><trkpt lat="38.99034558" lon="-0.50462158"><ele>129.2</ele><time>2022-11-13T13:14:46.0000000+00:00</time></trkpt><trkpt lat="38.99034759" lon="-0.50460222"><ele>129.2</ele><time>2022-11-13T13:14:47.0000000+00:00</time></trkpt><trkpt lat="38.99034717" lon="-0.50458529"><ele>129.4</ele><time>2022-11-13T13:14:48.0000000+00:00</time></trkpt><trkpt lat="38.99034617" lon="-0.50456752"><ele>129.4</ele><time>2022-11-13T13:14:49.0000000+00:00</time></trkpt><trkpt lat="38.99034441" lon="-0.50455025"><ele>129.4</ele><time>2022-11-13T13:14:50.0000000+00:00</time></trkpt><trkpt lat="38.99034281" lon="-0.50453517"><ele>129.4</ele><time>2022-11-13T13:14:51.0000000+00:00</time></trkpt><trkpt lat="38.99034407" lon="-0.5045205"><ele>129.4</ele><time>2022-11-13T13:14:52.0000000+00:00</time></trkpt><trkpt lat="38.99034432" lon="-0.5045039"><ele>129.4</ele><time>2022-11-13T13:14:53.0000000+00:00</time></trkpt><trkpt lat="38.99034281" lon="-0.50448739"><ele>129.4</ele><time>2022-11-13T13:14:54.0000000+00:00</time></trkpt><trkpt lat="38.99034172" lon="-0.50447314"><ele>129.4</ele><time>2022-11-13T13:14:55.0000000+00:00</time></trkpt><trkpt lat="38.99034323" lon="-0.50445747"><ele>129.4</ele><time>2022-11-13T13:14:56.0000000+00:00</time></trkpt><trkpt lat="38.99034642" lon="-0.50443643"><ele>129.4</ele><time>2022-11-13T13:14:57.0000000+00:00</time></trkpt><trkpt lat="38.99034608" lon="-0.50441665"><ele>129.4</ele><time>2022-11-13T13:14:58.0000000+00:00</time></trkpt><trkpt lat="38.99034558" lon="-0.50439938"><ele>129.4</ele><time>2022-11-13T13:14:59.0000000+00:00</time></trkpt><trkpt lat="38.99034466" lon="-0.50438605"><ele>129.4</ele><time>2022-11-13T13:15:00.0000000+00:00</time></trkpt><trkpt lat="38.99034809" lon="-0.50436929"><ele>129.4</ele><time>2022-11-13T13:15:01.0000000+00:00</time></trkpt><trkpt lat="38.99035153" lon="-0.50435412"><ele>129.4</ele><time>2022-11-13T13:15:02.0000000+00:00</time></trkpt><trkpt lat="38.99035161" lon="-0.50433786"><ele>129.4</ele><time>2022-11-13T13:15:03.0000000+00:00</time></trkpt><trkpt lat="38.99035011" lon="-0.50431967"><ele>129.4</ele><time>2022-11-13T13:15:04.0000000+00:00</time></trkpt><trkpt lat="38.990346" lon="-0.50430299"><ele>129.4</ele><time>2022-11-13T13:15:05.0000000+00:00</time></trkpt><trkpt lat="38.99034105" lon="-0.50428656"><ele>129.2</ele><time>2022-11-13T13:15:06.0000000+00:00</time></trkpt><trkpt lat="38.99033728" lon="-0.50426904"><ele>129.2</ele><time>2022-11-13T13:15:07.0000000+00:00</time></trkpt><trkpt lat="38.99033602" lon="-0.50425404"><ele>129.2</ele><time>2022-11-13T13:15:08.0000000+00:00</time></trkpt><trkpt lat="38.99033586" lon="-0.5042387"><ele>129.2</ele><time>2022-11-13T13:15:09.0000000+00:00</time></trkpt><trkpt lat="38.99033628" lon="-0.50422194"><ele>129.2</ele><time>2022-11-13T13:15:10.0000000+00:00</time></trkpt><trkpt lat="38.99033393" lon="-0.50420576"><ele>129.2</ele><time>2022-11-13T13:15:11.0000000+00:00</time></trkpt><trkpt lat="38.99033208" lon="-0.50418598"><ele>129.2</ele><time>2022-11-13T13:15:12.0000000+00:00</time></trkpt><trkpt lat="38.99032756" lon="-0.50417039"><ele>129.0</ele><time>2022-11-13T13:15:13.0000000+00:00</time></trkpt><trkpt lat="38.99032286" lon="-0.50415413"><ele>129.0</ele><time>2022-11-13T13:15:14.0000000+00:00</time></trkpt><trkpt lat="38.99031951" lon="-0.50413946"><ele>129.0</ele><time>2022-11-13T13:15:15.0000000+00:00</time></trkpt><trkpt lat="38.9903154" lon="-0.5041232"><ele>129.0</ele><time>2022-11-13T13:15:16.0000000+00:00</time></trkpt><trkpt lat="38.9903092" lon="-0.5041066"><ele>129.0</ele><time>2022-11-13T13:15:17.0000000+00:00</time></trkpt><trkpt lat="38.99030199" lon="-0.504089"><ele>129.0</ele><time>2022-11-13T13:15:18.0000000+00:00</time></trkpt><trkpt lat="38.99029537" lon="-0.50407358"><ele>129.0</ele><time>2022-11-13T13:15:19.0000000+00:00</time></trkpt><trkpt lat="38.99029286" lon="-0.50405866"><ele>129.2</ele><time>2022-11-13T13:15:20.0000000+00:00</time></trkpt><trkpt lat="38.99029043" lon="-0.50404399"><ele>129.2</ele><time>2022-11-13T13:15:21.0000000+00:00</time></trkpt><trkpt lat="38.99028841" lon="-0.50402974"><ele>129.2</ele><time>2022-11-13T13:15:22.0000000+00:00</time></trkpt><trkpt lat="38.99028615" lon="-0.50401197"><ele>129.2</ele><time>2022-11-13T13:15:23.0000000+00:00</time></trkpt><trkpt lat="38.99028188" lon="-0.50399906"><ele>129.2</ele><time>2022-11-13T13:15:24.0000000+00:00</time></trkpt><trkpt lat="38.99027433" lon="-0.50398691"><ele>129.2</ele><time>2022-11-13T13:15:25.0000000+00:00</time></trkpt><trkpt lat="38.99026738" lon="-0.503974"><ele>129.2</ele><time>2022-11-13T13:15:26.0000000+00:00</time></trkpt><trkpt lat="38.9902621" lon="-0.50395933"><ele>129.2</ele><time>2022-11-13T13:15:27.0000000+00:00</time></trkpt><trkpt lat="38.99025648" lon="-0.50394709"><ele>129.0</ele><time>2022-11-13T13:15:28.0000000+00:00</time></trkpt><trkpt lat="38.99024609" lon="-0.50393863"><ele>129.0</ele><time>2022-11-13T13:15:29.0000000+00:00</time></trkpt><trkpt lat="38.9902403" lon="-0.50393486"><ele>129.0</ele><time>2022-11-13T13:15:30.0000000+00:00</time></trkpt><trkpt lat="38.99023863" lon="-0.50393276"><ele>129.0</ele><time>2022-11-13T13:15:31.0000000+00:00</time></trkpt><trkpt lat="38.99024282" lon="-0.50393242"><ele>129.0</ele><time>2022-11-13T13:15:32.0000000+00:00</time></trkpt><trkpt lat="38.9902507" lon="-0.50393276"><ele>129.0</ele><time>2022-11-13T13:15:33.0000000+00:00</time></trkpt><trkpt lat="38.99026218" lon="-0.50393351"><ele>129.0</ele><time>2022-11-13T13:15:34.0000000+00:00</time></trkpt><trkpt lat="38.99026427" lon="-0.50393402"><ele>129.0</ele><time>2022-11-13T13:15:35.0000000+00:00</time></trkpt><trkpt lat="38.99026327" lon="-0.50393402"><ele>129.0</ele><time>2022-11-13T13:15:36.0000000+00:00</time></trkpt><trkpt lat="38.99026117" lon="-0.50393326"><ele>129.0</ele><time>2022-11-13T13:15:37.0000000+00:00</time></trkpt><trkpt lat="38.99026034" lon="-0.50393268"><ele>129.0</ele><time>2022-11-13T13:15:38.0000000+00:00</time></trkpt><trkpt lat="38.99026008" lon="-0.50393226"><ele>129.0</ele><time>2022-11-13T13:15:39.0000000+00:00</time></trkpt><trkpt lat="38.99025816" lon="-0.50393209"><ele>129.0</ele><time>2022-11-13T13:15:40.0000000+00:00</time></trkpt><trkpt lat="38.99025497" lon="-0.5039315"><ele>129.0</ele><time>2022-11-13T13:15:41.0000000+00:00</time></trkpt><trkpt lat="38.99025497" lon="-0.50393268"><ele>129.0</ele><time>2022-11-13T13:15:42.0000000+00:00</time></trkpt><trkpt lat="38.99025589" lon="-0.50393201"><ele>129.0</ele><time>2022-11-13T13:15:43.0000000+00:00</time></trkpt><trkpt lat="38.99025799" lon="-0.50393217"><ele>129.0</ele><time>2022-11-13T13:15:44.0000000+00:00</time></trkpt><trkpt lat="38.99025883" lon="-0.50393209"><ele>129.0</ele><time>2022-11-13T13:15:45.0000000+00:00</time></trkpt><trkpt lat="38.99025966" lon="-0.50393217"><ele>129.0</ele><time>2022-11-13T13:15:46.0000000+00:00</time></trkpt><trkpt lat="38.99026243" lon="-0.50393125"><ele>129.0</ele><time>2022-11-13T13:15:47.0000000+00:00</time></trkpt><trkpt lat="38.99026277" lon="-0.50392748"><ele>129.0</ele><time>2022-11-13T13:15:48.0000000+00:00</time></trkpt><trkpt lat="38.99026595" lon="-0.50391901"><ele>129.0</ele><time>2022-11-13T13:15:49.0000000+00:00</time></trkpt><trkpt lat="38.99026511" lon="-0.50390795"><ele>129.0</ele><time>2022-11-13T13:15:50.0000000+00:00</time></trkpt><trkpt lat="38.99026226" lon="-0.50389873"><ele>129.0</ele><time>2022-11-13T13:15:51.0000000+00:00</time></trkpt><trkpt lat="38.99025665" lon="-0.50389328"><ele>129.0</ele><time>2022-11-13T13:15:52.0000000+00:00</time></trkpt><trkpt lat="38.99025329" lon="-0.50389286"><ele>129.0</ele><time>2022-11-13T13:15:53.0000000+00:00</time></trkpt><trkpt lat="38.99024793" lon="-0.50388834"><ele>129.0</ele><time>2022-11-13T13:15:54.0000000+00:00</time></trkpt><trkpt lat="38.99024382" lon="-0.50388205"><ele>129.0</ele><time>2022-11-13T13:15:55.0000000+00:00</time></trkpt><trkpt lat="38.99024215" lon="-0.50387794"><ele>129.0</ele><time>2022-11-13T13:15:56.0000000+00:00</time></trkpt><trkpt lat="38.99024164" lon="-0.50387258"><ele>129.0</ele><time>2022-11-13T13:15:57.0000000+00:00</time></trkpt><trkpt lat="38.99024047" lon="-0.50386235"><ele>129.0</ele><time>2022-11-13T13:15:58.0000000+00:00</time></trkpt><trkpt lat="38.99023879" lon="-0.5038585"><ele>129.0</ele><time>2022-11-13T13:15:59.0000000+00:00</time></trkpt><trkpt lat="38.99023955" lon="-0.50385431"><ele>129.0</ele><time>2022-11-13T13:16:00.0000000+00:00</time></trkpt><trkpt lat="38.99023946" lon="-0.50385254"><ele>129.0</ele><time>2022-11-13T13:16:01.0000000+00:00</time></trkpt><trkpt lat="38.9902398" lon="-0.50384953"><ele>129.0</ele><time>2022-11-13T13:16:02.0000000+00:00</time></trkpt><trkpt lat="38.99023913" lon="-0.50385011"><ele>129.0</ele><time>2022-11-13T13:16:03.0000000+00:00</time></trkpt><trkpt lat="38.9902393" lon="-0.50384651"><ele>129.0</ele><time>2022-11-13T13:16:04.0000000+00:00</time></trkpt><trkpt lat="38.99024022" lon="-0.50384508"><ele>129.0</ele><time>2022-11-13T13:16:05.0000000+00:00</time></trkpt><trkpt lat="38.9902372" lon="-0.50384131"><ele>129.0</ele><time>2022-11-13T13:16:06.0000000+00:00</time></trkpt><trkpt lat="38.99022999" lon="-0.50383469"><ele>129.0</ele><time>2022-11-13T13:16:07.0000000+00:00</time></trkpt><trkpt lat="38.99021952" lon="-0.50383058"><ele>129.0</ele><time>2022-11-13T13:16:08.0000000+00:00</time></trkpt><trkpt lat="38.99020954" lon="-0.50382723"><ele>129.2</ele><time>2022-11-13T13:16:09.0000000+00:00</time></trkpt><trkpt lat="38.9901973" lon="-0.5038196"><ele>129.2</ele><time>2022-11-13T13:16:10.0000000+00:00</time></trkpt><trkpt lat="38.99018733" lon="-0.50381634"><ele>129.2</ele><time>2022-11-13T13:16:11.0000000+00:00</time></trkpt><trkpt lat="38.99017878" lon="-0.50381164"><ele>129.2</ele><time>2022-11-13T13:16:12.0000000+00:00</time></trkpt><trkpt lat="38.9901647" lon="-0.50380418"><ele>129.2</ele><time>2022-11-13T13:16:13.0000000+00:00</time></trkpt><trkpt lat="38.99015171" lon="-0.50379655"><ele>129.0</ele><time>2022-11-13T13:16:14.0000000+00:00</time></trkpt><trkpt lat="38.99013947" lon="-0.50379161"><ele>129.0</ele><time>2022-11-13T13:16:15.0000000+00:00</time></trkpt><trkpt lat="38.99012815" lon="-0.5037849"><ele>129.0</ele><time>2022-11-13T13:16:16.0000000+00:00</time></trkpt><trkpt lat="38.99011591" lon="-0.50377359"><ele>129.0</ele><time>2022-11-13T13:16:17.0000000+00:00</time></trkpt><trkpt lat="38.99010619" lon="-0.50377107"><ele>129.0</ele><time>2022-11-13T13:16:18.0000000+00:00</time></trkpt><trkpt lat="38.99009991" lon="-0.50376638"><ele>129.0</ele><time>2022-11-13T13:16:19.0000000+00:00</time></trkpt><trkpt lat="38.99008926" lon="-0.50375548"><ele>129.2</ele><time>2022-11-13T13:16:20.0000000+00:00</time></trkpt><trkpt lat="38.99007686" lon="-0.50374702"><ele>129.2</ele><time>2022-11-13T13:16:21.0000000+00:00</time></trkpt><trkpt lat="38.99006529" lon="-0.50374165"><ele>129.2</ele><time>2022-11-13T13:16:22.0000000+00:00</time></trkpt><trkpt lat="38.99005431" lon="-0.50373872"><ele>129.2</ele><time>2022-11-13T13:16:23.0000000+00:00</time></trkpt><trkpt lat="38.99004584" lon="-0.50373931"><ele>129.2</ele><time>2022-11-13T13:16:24.0000000+00:00</time></trkpt><trkpt lat="38.99003335" lon="-0.50372573"><ele>129.2</ele><time>2022-11-13T13:16:25.0000000+00:00</time></trkpt><trkpt lat="38.99002782" lon="-0.50371089"><ele>129.2</ele><time>2022-11-13T13:16:26.0000000+00:00</time></trkpt><trkpt lat="38.99002304" lon="-0.50369924"><ele>129.2</ele><time>2022-11-13T13:16:27.0000000+00:00</time></trkpt><trkpt lat="38.99001927" lon="-0.50368868"><ele>129.0</ele><time>2022-11-13T13:16:28.0000000+00:00</time></trkpt><trkpt lat="38.99001424" lon="-0.50367309"><ele>129.0</ele><time>2022-11-13T13:16:29.0000000+00:00</time></trkpt><trkpt lat="38.99000544" lon="-0.50365909"><ele>129.0</ele><time>2022-11-13T13:16:30.0000000+00:00</time></trkpt><trkpt lat="38.98999874" lon="-0.50364853"><ele>129.0</ele><time>2022-11-13T13:16:31.0000000+00:00</time></trkpt><trkpt lat="38.98999706" lon="-0.50363537"><ele>129.0</ele><time>2022-11-13T13:16:32.0000000+00:00</time></trkpt><trkpt lat="38.990001" lon="-0.50362204"><ele>129.0</ele><time>2022-11-13T13:16:33.0000000+00:00</time></trkpt><trkpt lat="38.99000452" lon="-0.50361039"><ele>129.0</ele><time>2022-11-13T13:16:34.0000000+00:00</time></trkpt><trkpt lat="38.99000762" lon="-0.50359296"><ele>129.0</ele><time>2022-11-13T13:16:35.0000000+00:00</time></trkpt><trkpt lat="38.99001223" lon="-0.50357804"><ele>129.0</ele><time>2022-11-13T13:16:36.0000000+00:00</time></trkpt><trkpt lat="38.99001634" lon="-0.50356412"><ele>129.0</ele><time>2022-11-13T13:16:37.0000000+00:00</time></trkpt><trkpt lat="38.99002237" lon="-0.50355138"><ele>129.0</ele><time>2022-11-13T13:16:38.0000000+00:00</time></trkpt><trkpt lat="38.99002371" lon="-0.5035399"><ele>129.0</ele><time>2022-11-13T13:16:39.0000000+00:00</time></trkpt><trkpt lat="38.99002531" lon="-0.50352029"><ele>129.0</ele><time>2022-11-13T13:16:40.0000000+00:00</time></trkpt><trkpt lat="38.99002916" lon="-0.50350201"><ele>129.0</ele><time>2022-11-13T13:16:41.0000000+00:00</time></trkpt><trkpt lat="38.99002925" lon="-0.50348508"><ele>129.0</ele><time>2022-11-13T13:16:42.0000000+00:00</time></trkpt><trkpt lat="38.99002933" lon="-0.50346966"><ele>129.0</ele><time>2022-11-13T13:16:43.0000000+00:00</time></trkpt><trkpt lat="38.99002967" lon="-0.50345172"><ele>129.0</ele><time>2022-11-13T13:16:44.0000000+00:00</time></trkpt><trkpt lat="38.99002455" lon="-0.50343781"><ele>129.0</ele><time>2022-11-13T13:16:45.0000000+00:00</time></trkpt><trkpt lat="38.99002262" lon="-0.50342431"><ele>129.0</ele><time>2022-11-13T13:16:46.0000000+00:00</time></trkpt><trkpt lat="38.9900248" lon="-0.50340654"><ele>129.0</ele><time>2022-11-13T13:16:47.0000000+00:00</time></trkpt><trkpt lat="38.99002958" lon="-0.50339246"><ele>129.0</ele><time>2022-11-13T13:16:48.0000000+00:00</time></trkpt><trkpt lat="38.99003461" lon="-0.50338903"><ele>128.8</ele><time>2022-11-13T13:16:49.0000000+00:00</time></trkpt><trkpt lat="38.99003746" lon="-0.50338425"><ele>128.8</ele><time>2022-11-13T13:16:50.0000000+00:00</time></trkpt><trkpt lat="38.99003872" lon="-0.50338031"><ele>128.8</ele><time>2022-11-13T13:16:51.0000000+00:00</time></trkpt><trkpt lat="38.99003595" lon="-0.50337268"><ele>128.8</ele><time>2022-11-13T13:16:52.0000000+00:00</time></trkpt><trkpt lat="38.99003629" lon="-0.50337184"><ele>128.8</ele><time>2022-11-13T13:16:53.0000000+00:00</time></trkpt><trkpt lat="38.99003662" lon="-0.50336899"><ele>128.8</ele><time>2022-11-13T13:16:54.0000000+00:00</time></trkpt><trkpt lat="38.99003671" lon="-0.50336028"><ele>128.8</ele><time>2022-11-13T13:16:55.0000000+00:00</time></trkpt><trkpt lat="38.99003863" lon="-0.50334871"><ele>128.8</ele><time>2022-11-13T13:16:56.0000000+00:00</time></trkpt><trkpt lat="38.99003863" lon="-0.5033384"><ele>128.8</ele><time>2022-11-13T13:16:57.0000000+00:00</time></trkpt><trkpt lat="38.99003872" lon="-0.50332474"><ele>128.8</ele><time>2022-11-13T13:16:58.0000000+00:00</time></trkpt><trkpt lat="38.99003872" lon="-0.50331065"><ele>128.8</ele><time>2022-11-13T13:16:59.0000000+00:00</time></trkpt><trkpt lat="38.99003528" lon="-0.50329884"><ele>129.0</ele><time>2022-11-13T13:17:00.0000000+00:00</time></trkpt><trkpt lat="38.99003168" lon="-0.50328459"><ele>129.0</ele><time>2022-11-13T13:17:01.0000000+00:00</time></trkpt><trkpt lat="38.9900295" lon="-0.50326196"><ele>129.0</ele><time>2022-11-13T13:17:02.0000000+00:00</time></trkpt><trkpt lat="38.99002665" lon="-0.50324285"><ele>129.0</ele><time>2022-11-13T13:17:03.0000000+00:00</time></trkpt><trkpt lat="38.99002648" lon="-0.50322734"><ele>128.8</ele><time>2022-11-13T13:17:04.0000000+00:00</time></trkpt><trkpt lat="38.99002506" lon="-0.50321384"><ele>128.8</ele><time>2022-11-13T13:17:05.0000000+00:00</time></trkpt><trkpt lat="38.99002514" lon="-0.50319817"><ele>128.8</ele><time>2022-11-13T13:17:06.0000000+00:00</time></trkpt><trkpt lat="38.99002732" lon="-0.50317738"><ele>128.8</ele><time>2022-11-13T13:17:07.0000000+00:00</time></trkpt><trkpt lat="38.99003017" lon="-0.50315341"><ele>128.6</ele><time>2022-11-13T13:17:08.0000000+00:00</time></trkpt><trkpt lat="38.99003101" lon="-0.50313296"><ele>128.6</ele><time>2022-11-13T13:17:09.0000000+00:00</time></trkpt><trkpt lat="38.99003201" lon="-0.50311653"><ele>128.6</ele><time>2022-11-13T13:17:10.0000000+00:00</time></trkpt><trkpt lat="38.99003897" lon="-0.5031027"><ele>128.6</ele><time>2022-11-13T13:17:11.0000000+00:00</time></trkpt><trkpt lat="38.99004199" lon="-0.50308753"><ele>128.8</ele><time>2022-11-13T13:17:12.0000000+00:00</time></trkpt><trkpt lat="38.99004182" lon="-0.50307303"><ele>128.8</ele><time>2022-11-13T13:17:13.0000000+00:00</time></trkpt><trkpt lat="38.99004467" lon="-0.50306012"><ele>128.8</ele><time>2022-11-13T13:17:14.0000000+00:00</time></trkpt><trkpt lat="38.99005037" lon="-0.50304755"><ele>128.8</ele><time>2022-11-13T13:17:15.0000000+00:00</time></trkpt><trkpt lat="38.99005582" lon="-0.50303347"><ele>129.0</ele><time>2022-11-13T13:17:16.0000000+00:00</time></trkpt><trkpt lat="38.99006303" lon="-0.5030167"><ele>129.0</ele><time>2022-11-13T13:17:17.0000000+00:00</time></trkpt><trkpt lat="38.99006764" lon="-0.50300178"><ele>129.0</ele><time>2022-11-13T13:17:18.0000000+00:00</time></trkpt><trkpt lat="38.99006487" lon="-0.50298594"><ele>129.0</ele><time>2022-11-13T13:17:19.0000000+00:00</time></trkpt><trkpt lat="38.99006621" lon="-0.50296842"><ele>129.0</ele><time>2022-11-13T13:17:20.0000000+00:00</time></trkpt><trkpt lat="38.99006839" lon="-0.50295174"><ele>129.0</ele><time>2022-11-13T13:17:21.0000000+00:00</time></trkpt><trkpt lat="38.99006479" lon="-0.50293439"><ele>129.2</ele><time>2022-11-13T13:17:22.0000000+00:00</time></trkpt><trkpt lat="38.9900668" lon="-0.5029214"><ele>129.2</ele><time>2022-11-13T13:17:23.0000000+00:00</time></trkpt><trkpt lat="38.99007493" lon="-0.50290841"><ele>129.2</ele><time>2022-11-13T13:17:24.0000000+00:00</time></trkpt><trkpt lat="38.99008121" lon="-0.50288829"><ele>129.2</ele><time>2022-11-13T13:17:25.0000000+00:00</time></trkpt><trkpt lat="38.99008473" lon="-0.50287379"><ele>129.2</ele><time>2022-11-13T13:17:26.0000000+00:00</time></trkpt><trkpt lat="38.990088" lon="-0.50285962"><ele>129.4</ele><time>2022-11-13T13:17:27.0000000+00:00</time></trkpt><trkpt lat="38.99008557" lon="-0.50284747"><ele>129.4</ele><time>2022-11-13T13:17:28.0000000+00:00</time></trkpt><trkpt lat="38.99008272" lon="-0.50283825"><ele>129.4</ele><time>2022-11-13T13:17:29.0000000+00:00</time></trkpt><trkpt lat="38.99007903" lon="-0.5028292"><ele>129.6</ele><time>2022-11-13T13:17:30.0000000+00:00</time></trkpt><trkpt lat="38.99007476" lon="-0.50282182"><ele>129.6</ele><time>2022-11-13T13:17:31.0000000+00:00</time></trkpt><trkpt lat="38.99007669" lon="-0.50280514"><ele>129.6</ele><time>2022-11-13T13:17:32.0000000+00:00</time></trkpt><trkpt lat="38.9900756" lon="-0.50278285"><ele>129.6</ele><time>2022-11-13T13:17:33.0000000+00:00</time></trkpt><trkpt lat="38.99007912" lon="-0.50276449"><ele>129.6</ele><time>2022-11-13T13:17:34.0000000+00:00</time></trkpt><trkpt lat="38.99008381" lon="-0.5027458"><ele>129.6</ele><time>2022-11-13T13:17:35.0000000+00:00</time></trkpt><trkpt lat="38.99008297" lon="-0.5027287"><ele>129.6</ele><time>2022-11-13T13:17:36.0000000+00:00</time></trkpt><trkpt lat="38.99007577" lon="-0.50271445"><ele>129.6</ele><time>2022-11-13T13:17:37.0000000+00:00</time></trkpt><trkpt lat="38.99006956" lon="-0.50270355"><ele>129.6</ele><time>2022-11-13T13:17:38.0000000+00:00</time></trkpt><trkpt lat="38.99006688" lon="-0.5026919"><ele>129.6</ele><time>2022-11-13T13:17:39.0000000+00:00</time></trkpt><trkpt lat="38.99006261" lon="-0.50268528"><ele>129.4</ele><time>2022-11-13T13:17:40.0000000+00:00</time></trkpt><trkpt lat="38.99006235" lon="-0.50266014"><ele>129.4</ele><time>2022-11-13T13:17:41.0000000+00:00</time></trkpt><trkpt lat="38.99005649" lon="-0.50263734"><ele>129.4</ele><time>2022-11-13T13:17:42.0000000+00:00</time></trkpt><trkpt lat="38.99004861" lon="-0.50261227"><ele>129.4</ele><time>2022-11-13T13:17:43.0000000+00:00</time></trkpt><trkpt lat="38.99003813" lon="-0.50259668"><ele>129.4</ele><time>2022-11-13T13:17:44.0000000+00:00</time></trkpt><trkpt lat="38.99003637" lon="-0.50257808"><ele>129.4</ele><time>2022-11-13T13:17:45.0000000+00:00</time></trkpt><trkpt lat="38.99003771" lon="-0.50256634"><ele>129.4</ele><time>2022-11-13T13:17:46.0000000+00:00</time></trkpt><trkpt lat="38.9900357" lon="-0.5025505"><ele>129.4</ele><time>2022-11-13T13:17:47.0000000+00:00</time></trkpt><trkpt lat="38.99003553" lon="-0.50253374"><ele>129.4</ele><time>2022-11-13T13:17:48.0000000+00:00</time></trkpt><trkpt lat="38.99003243" lon="-0.50251354"><ele>129.4</ele><time>2022-11-13T13:17:49.0000000+00:00</time></trkpt><trkpt lat="38.99002925" lon="-0.50249443"><ele>129.4</ele><time>2022-11-13T13:17:50.0000000+00:00</time></trkpt><trkpt lat="38.99002765" lon="-0.50247749"><ele>129.4</ele><time>2022-11-13T13:17:51.0000000+00:00</time></trkpt><trkpt lat="38.99002941" lon="-0.50246601"><ele>129.4</ele><time>2022-11-13T13:17:52.0000000+00:00</time></trkpt><trkpt lat="38.99003025" lon="-0.5024495"><ele>129.4</ele><time>2022-11-13T13:17:53.0000000+00:00</time></trkpt><trkpt lat="38.99003143" lon="-0.50243718"><ele>129.6</ele><time>2022-11-13T13:17:54.0000000+00:00</time></trkpt><trkpt lat="38.99003201" lon="-0.50242351"><ele>129.6</ele><time>2022-11-13T13:17:55.0000000+00:00</time></trkpt><trkpt lat="38.99003193" lon="-0.50241019"><ele>129.6</ele><time>2022-11-13T13:17:56.0000000+00:00</time></trkpt><trkpt lat="38.99003184" lon="-0.50239342"><ele>129.6</ele><time>2022-11-13T13:17:57.0000000+00:00</time></trkpt><trkpt lat="38.99003017" lon="-0.50237875"><ele>129.6</ele><time>2022-11-13T13:17:58.0000000+00:00</time></trkpt><trkpt lat="38.99002757" lon="-0.50236258"><ele>129.8</ele><time>2022-11-13T13:17:59.0000000+00:00</time></trkpt><trkpt lat="38.99002271" lon="-0.50234984"><ele>129.8</ele><time>2022-11-13T13:18:00.0000000+00:00</time></trkpt><trkpt lat="38.99002346" lon="-0.50232871"><ele>129.8</ele><time>2022-11-13T13:18:01.0000000+00:00</time></trkpt><trkpt lat="38.99002673" lon="-0.50231564"><ele>129.8</ele><time>2022-11-13T13:18:02.0000000+00:00</time></trkpt><trkpt lat="38.99002967" lon="-0.50230139"><ele>129.8</ele><time>2022-11-13T13:18:03.0000000+00:00</time></trkpt><trkpt lat="38.99003" lon="-0.5022889"><ele>129.8</ele><time>2022-11-13T13:18:04.0000000+00:00</time></trkpt><trkpt lat="38.99002438" lon="-0.502278"><ele>129.8</ele><time>2022-11-13T13:18:05.0000000+00:00</time></trkpt><trkpt lat="38.99001994" lon="-0.50226141"><ele>129.8</ele><time>2022-11-13T13:18:06.0000000+00:00</time></trkpt><trkpt lat="38.99001919" lon="-0.50224724"><ele>129.8</ele><time>2022-11-13T13:18:07.0000000+00:00</time></trkpt><trkpt lat="38.99002355" lon="-0.50222922"><ele>129.8</ele><time>2022-11-13T13:18:08.0000000+00:00</time></trkpt><trkpt lat="38.99002355" lon="-0.50221254"><ele>129.8</ele><time>2022-11-13T13:18:09.0000000+00:00</time></trkpt><trkpt lat="38.99002782" lon="-0.50219251"><ele>129.8</ele><time>2022-11-13T13:18:10.0000000+00:00</time></trkpt><trkpt lat="38.99003436" lon="-0.50217616"><ele>130.0</ele><time>2022-11-13T13:18:11.0000000+00:00</time></trkpt><trkpt lat="38.99003428" lon="-0.50216191"><ele>130.0</ele><time>2022-11-13T13:18:12.0000000+00:00</time></trkpt><trkpt lat="38.99003553" lon="-0.50214876"><ele>130.0</ele><time>2022-11-13T13:18:13.0000000+00:00</time></trkpt><trkpt lat="38.99003713" lon="-0.50213283"><ele>130.0</ele><time>2022-11-13T13:18:14.0000000+00:00</time></trkpt><trkpt lat="38.99003947" lon="-0.50211917"><ele>130.0</ele><time>2022-11-13T13:18:15.0000000+00:00</time></trkpt><trkpt lat="38.99003805" lon="-0.50210232"><ele>130.0</ele><time>2022-11-13T13:18:16.0000000+00:00</time></trkpt><trkpt lat="38.99003889" lon="-0.50208673"><ele>130.0</ele><time>2022-11-13T13:18:17.0000000+00:00</time></trkpt><trkpt lat="38.99004249" lon="-0.50207106"><ele>130.0</ele><time>2022-11-13T13:18:18.0000000+00:00</time></trkpt><trkpt lat="38.99004559" lon="-0.50205639"><ele>130.2</ele><time>2022-11-13T13:18:19.0000000+00:00</time></trkpt><trkpt lat="38.99004475" lon="-0.50204172"><ele>130.2</ele><time>2022-11-13T13:18:20.0000000+00:00</time></trkpt><trkpt lat="38.99003981" lon="-0.50202998"><ele>130.2</ele><time>2022-11-13T13:18:21.0000000+00:00</time></trkpt><trkpt lat="38.99003562" lon="-0.50201573"><ele>130.2</ele><time>2022-11-13T13:18:22.0000000+00:00</time></trkpt><trkpt lat="38.99003377" lon="-0.5019988"><ele>130.2</ele><time>2022-11-13T13:18:23.0000000+00:00</time></trkpt><trkpt lat="38.99003671" lon="-0.50198305"><ele>130.2</ele><time>2022-11-13T13:18:24.0000000+00:00</time></trkpt><trkpt lat="38.99004576" lon="-0.50196528"><ele>130.2</ele><time>2022-11-13T13:18:25.0000000+00:00</time></trkpt><trkpt lat="38.99005774" lon="-0.50194549"><ele>130.2</ele><time>2022-11-13T13:18:26.0000000+00:00</time></trkpt><trkpt lat="38.99006018" lon="-0.50192521"><ele>130.2</ele><time>2022-11-13T13:18:27.0000000+00:00</time></trkpt><trkpt lat="38.99005992" lon="-0.50190853"><ele>130.2</ele><time>2022-11-13T13:18:28.0000000+00:00</time></trkpt><trkpt lat="38.9900585" lon="-0.50189504"><ele>130.0</ele><time>2022-11-13T13:18:29.0000000+00:00</time></trkpt><trkpt lat="38.99005758" lon="-0.50187986"><ele>130.0</ele><time>2022-11-13T13:18:30.0000000+00:00</time></trkpt><trkpt lat="38.99005758" lon="-0.50186427"><ele>130.0</ele><time>2022-11-13T13:18:31.0000000+00:00</time></trkpt><trkpt lat="38.99005984" lon="-0.50185086"><ele>130.0</ele><time>2022-11-13T13:18:32.0000000+00:00</time></trkpt><trkpt lat="38.99005758" lon="-0.50183636"><ele>130.0</ele><time>2022-11-13T13:18:33.0000000+00:00</time></trkpt><trkpt lat="38.99005649" lon="-0.50182086"><ele>130.0</ele><time>2022-11-13T13:18:34.0000000+00:00</time></trkpt><trkpt lat="38.99005665" lon="-0.50180317"><ele>130.0</ele><time>2022-11-13T13:18:35.0000000+00:00</time></trkpt><trkpt lat="38.9900523" lon="-0.50178548"><ele>130.0</ele><time>2022-11-13T13:18:36.0000000+00:00</time></trkpt><trkpt lat="38.99004995" lon="-0.50176989"><ele>130.0</ele><time>2022-11-13T13:18:37.0000000+00:00</time></trkpt><trkpt lat="38.99004685" lon="-0.50175606"><ele>130.0</ele><time>2022-11-13T13:18:38.0000000+00:00</time></trkpt><trkpt lat="38.99004132" lon="-0.5017419"><ele>130.0</ele><time>2022-11-13T13:18:39.0000000+00:00</time></trkpt><trkpt lat="38.99003838" lon="-0.50172715"><ele>130.0</ele><time>2022-11-13T13:18:40.0000000+00:00</time></trkpt><trkpt lat="38.99003981" lon="-0.50171256"><ele>130.2</ele><time>2022-11-13T13:18:41.0000000+00:00</time></trkpt><trkpt lat="38.99003562" lon="-0.50169865"><ele>130.2</ele><time>2022-11-13T13:18:42.0000000+00:00</time></trkpt><trkpt lat="38.99002807" lon="-0.50168331"><ele>130.2</ele><time>2022-11-13T13:18:43.0000000+00:00</time></trkpt><trkpt lat="38.99002422" lon="-0.50166973"><ele>130.2</ele><time>2022-11-13T13:18:44.0000000+00:00</time></trkpt><trkpt lat="38.99001877" lon="-0.50165556"><ele>130.0</ele><time>2022-11-13T13:18:45.0000000+00:00</time></trkpt><trkpt lat="38.99001449" lon="-0.50163888"><ele>130.0</ele><time>2022-11-13T13:18:46.0000000+00:00</time></trkpt><trkpt lat="38.99001382" lon="-0.50162229"><ele>130.0</ele><time>2022-11-13T13:18:47.0000000+00:00</time></trkpt><trkpt lat="38.99001625" lon="-0.50160636"><ele>130.0</ele><time>2022-11-13T13:18:48.0000000+00:00</time></trkpt><trkpt lat="38.99001827" lon="-0.50158599"><ele>130.0</ele><time>2022-11-13T13:18:49.0000000+00:00</time></trkpt><trkpt lat="38.99001709" lon="-0.50156554"><ele>130.0</ele><time>2022-11-13T13:18:50.0000000+00:00</time></trkpt><trkpt lat="38.99001391" lon="-0.50154802"><ele>130.0</ele><time>2022-11-13T13:18:51.0000000+00:00</time></trkpt><trkpt lat="38.99001114" lon="-0.50153059"><ele>130.0</ele><time>2022-11-13T13:18:52.0000000+00:00</time></trkpt><trkpt lat="38.99000888" lon="-0.501515"><ele>130.0</ele><time>2022-11-13T13:18:53.0000000+00:00</time></trkpt><trkpt lat="38.99000838" lon="-0.50150209"><ele>130.0</ele><time>2022-11-13T13:18:54.0000000+00:00</time></trkpt><trkpt lat="38.99000628" lon="-0.50148667"><ele>130.0</ele><time>2022-11-13T13:18:55.0000000+00:00</time></trkpt><trkpt lat="38.990002" lon="-0.5014746"><ele>130.0</ele><time>2022-11-13T13:18:56.0000000+00:00</time></trkpt><trkpt lat="38.98999714" lon="-0.50146303"><ele>129.8</ele><time>2022-11-13T13:18:57.0000000+00:00</time></trkpt><trkpt lat="38.98999471" lon="-0.50144836"><ele>129.8</ele><time>2022-11-13T13:18:58.0000000+00:00</time></trkpt><trkpt lat="38.98999346" lon="-0.50142992"><ele>129.8</ele><time>2022-11-13T13:18:59.0000000+00:00</time></trkpt><trkpt lat="38.98999228" lon="-0.50141065"><ele>129.8</ele><time>2022-11-13T13:19:00.0000000+00:00</time></trkpt><trkpt lat="38.98999035" lon="-0.50139564"><ele>129.8</ele><time>2022-11-13T13:19:01.0000000+00:00</time></trkpt><trkpt lat="38.98998725" lon="-0.50138215"><ele>129.6</ele><time>2022-11-13T13:19:02.0000000+00:00</time></trkpt><trkpt lat="38.98998398" lon="-0.50136857"><ele>129.6</ele><time>2022-11-13T13:19:03.0000000+00:00</time></trkpt><trkpt lat="38.98997912" lon="-0.5013503"><ele>129.6</ele><time>2022-11-13T13:19:04.0000000+00:00</time></trkpt><trkpt lat="38.98997124" lon="-0.50133068"><ele>129.6</ele><time>2022-11-13T13:19:05.0000000+00:00</time></trkpt><trkpt lat="38.98996345" lon="-0.50131015"><ele>129.6</ele><time>2022-11-13T13:19:06.0000000+00:00</time></trkpt><trkpt lat="38.98995901" lon="-0.50129062"><ele>129.6</ele><time>2022-11-13T13:19:07.0000000+00:00</time></trkpt><trkpt lat="38.98995599" lon="-0.50128182"><ele>129.6</ele><time>2022-11-13T13:19:08.0000000+00:00</time></trkpt><trkpt lat="38.98995381" lon="-0.50127268"><ele>129.4</ele><time>2022-11-13T13:19:09.0000000+00:00</time></trkpt><trkpt lat="38.98995314" lon="-0.50125851"><ele>129.4</ele><time>2022-11-13T13:19:10.0000000+00:00</time></trkpt><trkpt lat="38.9899528" lon="-0.50124225"><ele>129.4</ele><time>2022-11-13T13:19:11.0000000+00:00</time></trkpt><trkpt lat="38.98995339" lon="-0.5012213"><ele>129.4</ele><time>2022-11-13T13:19:12.0000000+00:00</time></trkpt><trkpt lat="38.98995171" lon="-0.50120068"><ele>129.4</ele><time>2022-11-13T13:19:13.0000000+00:00</time></trkpt><trkpt lat="38.98994735" lon="-0.50118341"><ele>129.4</ele><time>2022-11-13T13:19:14.0000000+00:00</time></trkpt><trkpt lat="38.98994769" lon="-0.50116816"><ele>129.4</ele><time>2022-11-13T13:19:15.0000000+00:00</time></trkpt><trkpt lat="38.98995012" lon="-0.50115475"><ele>129.4</ele><time>2022-11-13T13:19:16.0000000+00:00</time></trkpt><trkpt lat="38.98995322" lon="-0.50114309"><ele>129.4</ele><time>2022-11-13T13:19:17.0000000+00:00</time></trkpt><trkpt lat="38.98995314" lon="-0.50113278"><ele>129.4</ele><time>2022-11-13T13:19:18.0000000+00:00</time></trkpt><trkpt lat="38.98995331" lon="-0.50112298"><ele>129.4</ele><time>2022-11-13T13:19:19.0000000+00:00</time></trkpt><trkpt lat="38.98995264" lon="-0.50110697"><ele>129.4</ele><time>2022-11-13T13:19:20.0000000+00:00</time></trkpt><trkpt lat="38.98995213" lon="-0.50109305"><ele>129.4</ele><time>2022-11-13T13:19:21.0000000+00:00</time></trkpt><trkpt lat="38.98994559" lon="-0.50107705"><ele>129.4</ele><time>2022-11-13T13:19:22.0000000+00:00</time></trkpt><trkpt lat="38.98994652" lon="-0.50106078"><ele>129.4</ele><time>2022-11-13T13:19:23.0000000+00:00</time></trkpt><trkpt lat="38.98994928" lon="-0.50104469"><ele>129.4</ele><time>2022-11-13T13:19:24.0000000+00:00</time></trkpt><trkpt lat="38.98995196" lon="-0.50103019"><ele>129.4</ele><time>2022-11-13T13:19:25.0000000+00:00</time></trkpt><trkpt lat="38.98994912" lon="-0.50101284"><ele>129.4</ele><time>2022-11-13T13:19:26.0000000+00:00</time></trkpt><trkpt lat="38.98994467" lon="-0.50099641"><ele>129.4</ele><time>2022-11-13T13:19:27.0000000+00:00</time></trkpt><trkpt lat="38.98994241" lon="-0.50098468"><ele>129.4</ele><time>2022-11-13T13:19:28.0000000+00:00</time></trkpt><trkpt lat="38.98993964" lon="-0.50097051"><ele>129.4</ele><time>2022-11-13T13:19:29.0000000+00:00</time></trkpt><trkpt lat="38.98993629" lon="-0.50095551"><ele>129.4</ele><time>2022-11-13T13:19:30.0000000+00:00</time></trkpt><trkpt lat="38.98993319" lon="-0.50094193"><ele>129.4</ele><time>2022-11-13T13:19:31.0000000+00:00</time></trkpt><trkpt lat="38.98992657" lon="-0.50092701"><ele>129.4</ele><time>2022-11-13T13:19:32.0000000+00:00</time></trkpt><trkpt lat="38.98991894" lon="-0.50091452"><ele>129.4</ele><time>2022-11-13T13:19:33.0000000+00:00</time></trkpt><trkpt lat="38.98991081" lon="-0.50090153"><ele>129.4</ele><time>2022-11-13T13:19:34.0000000+00:00</time></trkpt><trkpt lat="38.98990293" lon="-0.50088988"><ele>129.4</ele><time>2022-11-13T13:19:35.0000000+00:00</time></trkpt><trkpt lat="38.98989614" lon="-0.50087563"><ele>129.4</ele><time>2022-11-13T13:19:36.0000000+00:00</time></trkpt><trkpt lat="38.98988885" lon="-0.50085937"><ele>129.4</ele><time>2022-11-13T13:19:37.0000000+00:00</time></trkpt><trkpt lat="38.98988265" lon="-0.50084227"><ele>129.4</ele><time>2022-11-13T13:19:38.0000000+00:00</time></trkpt><trkpt lat="38.98987351" lon="-0.50082617"><ele>129.4</ele><time>2022-11-13T13:19:39.0000000+00:00</time></trkpt><trkpt lat="38.98986278" lon="-0.50081461"><ele>129.2</ele><time>2022-11-13T13:19:40.0000000+00:00</time></trkpt><trkpt lat="38.9898518" lon="-0.5008043"><ele>129.2</ele><time>2022-11-13T13:19:41.0000000+00:00</time></trkpt><trkpt lat="38.98984585" lon="-0.50079214"><ele>129.4</ele><time>2022-11-13T13:19:42.0000000+00:00</time></trkpt><trkpt lat="38.98983948" lon="-0.50078401"><ele>129.4</ele><time>2022-11-13T13:19:43.0000000+00:00</time></trkpt><trkpt lat="38.9898342" lon="-0.50077454"><ele>129.4</ele><time>2022-11-13T13:19:44.0000000+00:00</time></trkpt><trkpt lat="38.98982867" lon="-0.50076096"><ele>129.4</ele><time>2022-11-13T13:19:45.0000000+00:00</time></trkpt><trkpt lat="38.98982305" lon="-0.50074856"><ele>129.4</ele><time>2022-11-13T13:19:46.0000000+00:00</time></trkpt><trkpt lat="38.98981676" lon="-0.50073582"><ele>129.4</ele><time>2022-11-13T13:19:47.0000000+00:00</time></trkpt><trkpt lat="38.98980729" lon="-0.50072467"><ele>129.4</ele><time>2022-11-13T13:19:48.0000000+00:00</time></trkpt><trkpt lat="38.98979874" lon="-0.50071235"><ele>129.4</ele><time>2022-11-13T13:19:49.0000000+00:00</time></trkpt><trkpt lat="38.9897876" lon="-0.50070531"><ele>129.6</ele><time>2022-11-13T13:19:50.0000000+00:00</time></trkpt><trkpt lat="38.98977561" lon="-0.50069693"><ele>129.6</ele><time>2022-11-13T13:19:51.0000000+00:00</time></trkpt><trkpt lat="38.98976899" lon="-0.50067941"><ele>129.6</ele><time>2022-11-13T13:19:52.0000000+00:00</time></trkpt><trkpt lat="38.98976354" lon="-0.50067119"><ele>129.6</ele><time>2022-11-13T13:19:53.0000000+00:00</time></trkpt><trkpt lat="38.98975323" lon="-0.5006582"><ele>129.6</ele><time>2022-11-13T13:19:54.0000000+00:00</time></trkpt><trkpt lat="38.98974275" lon="-0.50064538"><ele>129.4</ele><time>2022-11-13T13:19:55.0000000+00:00</time></trkpt><trkpt lat="38.98973471" lon="-0.50063515"><ele>129.4</ele><time>2022-11-13T13:19:56.0000000+00:00</time></trkpt><trkpt lat="38.98972926" lon="-0.50062467"><ele>129.4</ele><time>2022-11-13T13:19:57.0000000+00:00</time></trkpt><trkpt lat="38.98972423" lon="-0.50061311"><ele>129.2</ele><time>2022-11-13T13:19:58.0000000+00:00</time></trkpt><trkpt lat="38.98971518" lon="-0.50060389"><ele>129.2</ele><time>2022-11-13T13:19:59.0000000+00:00</time></trkpt><trkpt lat="38.98970537" lon="-0.50059416"><ele>129.2</ele><time>2022-11-13T13:20:00.0000000+00:00</time></trkpt><trkpt lat="38.98969975" lon="-0.50058662"><ele>129.2</ele><time>2022-11-13T13:20:01.0000000+00:00</time></trkpt><trkpt lat="38.98970009" lon="-0.50057874"><ele>129.2</ele><time>2022-11-13T13:20:02.0000000+00:00</time></trkpt><trkpt lat="38.98969556" lon="-0.50056709"><ele>129.2</ele><time>2022-11-13T13:20:03.0000000+00:00</time></trkpt><trkpt lat="38.98968844" lon="-0.50055427"><ele>129.2</ele><time>2022-11-13T13:20:04.0000000+00:00</time></trkpt><trkpt lat="38.989684" lon="-0.50053884"><ele>129.2</ele><time>2022-11-13T13:20:05.0000000+00:00</time></trkpt><trkpt lat="38.98968274" lon="-0.50052409"><ele>129.2</ele><time>2022-11-13T13:20:06.0000000+00:00</time></trkpt><trkpt lat="38.98967511" lon="-0.50051278"><ele>129.2</ele><time>2022-11-13T13:20:07.0000000+00:00</time></trkpt><trkpt lat="38.98966648" lon="-0.50050221"><ele>129.2</ele><time>2022-11-13T13:20:08.0000000+00:00</time></trkpt><trkpt lat="38.98965919" lon="-0.50049174"><ele>129.2</ele><time>2022-11-13T13:20:09.0000000+00:00</time></trkpt><trkpt lat="38.98964837" lon="-0.50048025"><ele>129.2</ele><time>2022-11-13T13:20:10.0000000+00:00</time></trkpt><trkpt lat="38.9896379" lon="-0.500465"><ele>129.4</ele><time>2022-11-13T13:20:11.0000000+00:00</time></trkpt><trkpt lat="38.98963697" lon="-0.50044798"><ele>129.4</ele><time>2022-11-13T13:20:12.0000000+00:00</time></trkpt><trkpt lat="38.98963379" lon="-0.50043457"><ele>129.4</ele><time>2022-11-13T13:20:13.0000000+00:00</time></trkpt><trkpt lat="38.98962993" lon="-0.50041689"><ele>129.4</ele><time>2022-11-13T13:20:14.0000000+00:00</time></trkpt><trkpt lat="38.98961585" lon="-0.50039535"><ele>129.4</ele><time>2022-11-13T13:20:15.0000000+00:00</time></trkpt><trkpt lat="38.98959808" lon="-0.50037313"><ele>129.4</ele><time>2022-11-13T13:20:16.0000000+00:00</time></trkpt><trkpt lat="38.989584" lon="-0.50035235"><ele>129.4</ele><time>2022-11-13T13:20:17.0000000+00:00</time></trkpt><trkpt lat="38.98957654" lon="-0.50033609"><ele>129.4</ele><time>2022-11-13T13:20:18.0000000+00:00</time></trkpt><trkpt lat="38.98956698" lon="-0.50032402"><ele>129.4</ele><time>2022-11-13T13:20:19.0000000+00:00</time></trkpt><trkpt lat="38.98955852" lon="-0.50031287"><ele>129.4</ele><time>2022-11-13T13:20:20.0000000+00:00</time></trkpt><trkpt lat="38.98955592" lon="-0.50030021"><ele>129.4</ele><time>2022-11-13T13:20:21.0000000+00:00</time></trkpt><trkpt lat="38.98954812" lon="-0.50028688"><ele>129.4</ele><time>2022-11-13T13:20:22.0000000+00:00</time></trkpt><trkpt lat="38.98953681" lon="-0.5002728"><ele>129.4</ele><time>2022-11-13T13:20:23.0000000+00:00</time></trkpt><trkpt lat="38.98952298" lon="-0.50026132"><ele>129.4</ele><time>2022-11-13T13:20:24.0000000+00:00</time></trkpt><trkpt lat="38.98950999" lon="-0.5002516"><ele>129.4</ele><time>2022-11-13T13:20:25.0000000+00:00</time></trkpt><trkpt lat="38.98949808" lon="-0.50024221"><ele>129.4</ele><time>2022-11-13T13:20:26.0000000+00:00</time></trkpt><trkpt lat="38.98948995" lon="-0.50023265"><ele>129.4</ele><time>2022-11-13T13:20:27.0000000+00:00</time></trkpt><trkpt lat="38.98948669" lon="-0.50022276"><ele>129.4</ele><time>2022-11-13T13:20:28.0000000+00:00</time></trkpt><trkpt lat="38.98948543" lon="-0.50021765"><ele>129.4</ele><time>2022-11-13T13:20:29.0000000+00:00</time></trkpt><trkpt lat="38.98948199" lon="-0.50020793"><ele>129.4</ele><time>2022-11-13T13:20:30.0000000+00:00</time></trkpt><trkpt lat="38.98947956" lon="-0.50020097"><ele>129.4</ele><time>2022-11-13T13:20:31.0000000+00:00</time></trkpt><trkpt lat="38.98948065" lon="-0.50019158"><ele>129.4</ele><time>2022-11-13T13:20:32.0000000+00:00</time></trkpt><trkpt lat="38.98947881" lon="-0.50018278"><ele>129.2</ele><time>2022-11-13T13:20:33.0000000+00:00</time></trkpt><trkpt lat="38.98947436" lon="-0.50017255"><ele>129.2</ele><time>2022-11-13T13:20:34.0000000+00:00</time></trkpt><trkpt lat="38.98947311" lon="-0.50016627"><ele>129.2</ele><time>2022-11-13T13:20:35.0000000+00:00</time></trkpt><trkpt lat="38.98947478" lon="-0.50016141"><ele>129.2</ele><time>2022-11-13T13:20:36.0000000+00:00</time></trkpt><trkpt lat="38.98947755" lon="-0.50015973"><ele>129.2</ele><time>2022-11-13T13:20:37.0000000+00:00</time></trkpt><trkpt lat="38.98947939" lon="-0.50016174"><ele>129.2</ele><time>2022-11-13T13:20:38.0000000+00:00</time></trkpt><trkpt lat="38.98947964" lon="-0.50016509"><ele>129.2</ele><time>2022-11-13T13:20:39.0000000+00:00</time></trkpt><trkpt lat="38.98948006" lon="-0.50016585"><ele>129.2</ele><time>2022-11-13T13:20:40.0000000+00:00</time></trkpt><trkpt lat="38.98947939" lon="-0.50016727"><ele>129.2</ele><time>2022-11-13T13:20:41.0000000+00:00</time></trkpt><trkpt lat="38.98947763" lon="-0.50016786"><ele>129.2</ele><time>2022-11-13T13:20:42.0000000+00:00</time></trkpt><trkpt lat="38.98947738" lon="-0.50016845"><ele>129.2</ele><time>2022-11-13T13:20:43.0000000+00:00</time></trkpt><trkpt lat="38.98947696" lon="-0.500164"><ele>129.2</ele><time>2022-11-13T13:20:44.0000000+00:00</time></trkpt><trkpt lat="38.98947411" lon="-0.50015621"><ele>129.2</ele><time>2022-11-13T13:20:45.0000000+00:00</time></trkpt><trkpt lat="38.98947101" lon="-0.50014623"><ele>129.0</ele><time>2022-11-13T13:20:46.0000000+00:00</time></trkpt><trkpt lat="38.9894654" lon="-0.5001366"><ele>129.0</ele><time>2022-11-13T13:20:47.0000000+00:00</time></trkpt><trkpt lat="38.98945651" lon="-0.50012838"><ele>129.0</ele><time>2022-11-13T13:20:48.0000000+00:00</time></trkpt><trkpt lat="38.98944947" lon="-0.50011606"><ele>129.0</ele><time>2022-11-13T13:20:49.0000000+00:00</time></trkpt><trkpt lat="38.98944687" lon="-0.50010902"><ele>128.8</ele><time>2022-11-13T13:20:50.0000000+00:00</time></trkpt><trkpt lat="38.98944201" lon="-0.50010198"><ele>128.8</ele><time>2022-11-13T13:20:51.0000000+00:00</time></trkpt><trkpt lat="38.98943413" lon="-0.50009175"><ele>128.6</ele><time>2022-11-13T13:20:52.0000000+00:00</time></trkpt><trkpt lat="38.98943095" lon="-0.50008354"><ele>128.6</ele><time>2022-11-13T13:20:53.0000000+00:00</time></trkpt><trkpt lat="38.9894265" lon="-0.50006837"><ele>128.4</ele><time>2022-11-13T13:20:54.0000000+00:00</time></trkpt><trkpt lat="38.9894229" lon="-0.50005085"><ele>128.4</ele><time>2022-11-13T13:20:55.0000000+00:00</time></trkpt><trkpt lat="38.98941242" lon="-0.50003819"><ele>128.4</ele><time>2022-11-13T13:20:56.0000000+00:00</time></trkpt><trkpt lat="38.98940546" lon="-0.50002637"><ele>128.0</ele><time>2022-11-13T13:20:57.0000000+00:00</time></trkpt><trkpt lat="38.98940085" lon="-0.50001246"><ele>127.8</ele><time>2022-11-13T13:20:58.0000000+00:00</time></trkpt><trkpt lat="38.98939985" lon="-0.49999938"><ele>127.8</ele><time>2022-11-13T13:20:59.0000000+00:00</time></trkpt><trkpt lat="38.98939516" lon="-0.49998606"><ele>127.6</ele><time>2022-11-13T13:21:00.0000000+00:00</time></trkpt><trkpt lat="38.98939038" lon="-0.49997265"><ele>127.6</ele><time>2022-11-13T13:21:01.0000000+00:00</time></trkpt><trkpt lat="38.98938409" lon="-0.49995622"><ele>127.2</ele><time>2022-11-13T13:21:02.0000000+00:00</time></trkpt><trkpt lat="38.98938132" lon="-0.4999413"><ele>127.2</ele><time>2022-11-13T13:21:03.0000000+00:00</time></trkpt><trkpt lat="38.9893763" lon="-0.49992261"><ele>127.0</ele><time>2022-11-13T13:21:04.0000000+00:00</time></trkpt><trkpt lat="38.98936993" lon="-0.49991112"><ele>126.8</ele><time>2022-11-13T13:21:05.0000000+00:00</time></trkpt><trkpt lat="38.98936205" lon="-0.49989578"><ele>126.8</ele><time>2022-11-13T13:21:06.0000000+00:00</time></trkpt><trkpt lat="38.98935878" lon="-0.4998869"><ele>126.6</ele><time>2022-11-13T13:21:07.0000000+00:00</time></trkpt><trkpt lat="38.98935358" lon="-0.49987156"><ele>126.4</ele><time>2022-11-13T13:21:08.0000000+00:00</time></trkpt><trkpt lat="38.98935207" lon="-0.49985639"><ele>126.2</ele><time>2022-11-13T13:21:09.0000000+00:00</time></trkpt><trkpt lat="38.98934788" lon="-0.4998434"><ele>126.0</ele><time>2022-11-13T13:21:10.0000000+00:00</time></trkpt><trkpt lat="38.9893426" lon="-0.49983091"><ele>125.8</ele><time>2022-11-13T13:21:11.0000000+00:00</time></trkpt><trkpt lat="38.98933405" lon="-0.49982194"><ele>125.6</ele><time>2022-11-13T13:21:12.0000000+00:00</time></trkpt><trkpt lat="38.9893286" lon="-0.49980937"><ele>125.4</ele><time>2022-11-13T13:21:13.0000000+00:00</time></trkpt><trkpt lat="38.98932517" lon="-0.49979956"><ele>125.4</ele><time>2022-11-13T13:21:14.0000000+00:00</time></trkpt><trkpt lat="38.9893193" lon="-0.49978539"><ele>125.0</ele><time>2022-11-13T13:21:15.0000000+00:00</time></trkpt><trkpt lat="38.98931913" lon="-0.49976871"><ele>124.8</ele><time>2022-11-13T13:21:16.0000000+00:00</time></trkpt><trkpt lat="38.98931888" lon="-0.49974893"><ele>124.6</ele><time>2022-11-13T13:21:17.0000000+00:00</time></trkpt><trkpt lat="38.98931804" lon="-0.49972597"><ele>124.2</ele><time>2022-11-13T13:21:18.0000000+00:00</time></trkpt><trkpt lat="38.98931905" lon="-0.49970585"><ele>124.0</ele><time>2022-11-13T13:21:19.0000000+00:00</time></trkpt><trkpt lat="38.98932014" lon="-0.49968598"><ele>123.8</ele><time>2022-11-13T13:21:20.0000000+00:00</time></trkpt><trkpt lat="38.98931544" lon="-0.49966998"><ele>123.6</ele><time>2022-11-13T13:21:21.0000000+00:00</time></trkpt><trkpt lat="38.98930974" lon="-0.49964097"><ele>123.4</ele><time>2022-11-13T13:21:22.0000000+00:00</time></trkpt><trkpt lat="38.98930966" lon="-0.4996191"><ele>123.4</ele><time>2022-11-13T13:21:23.0000000+00:00</time></trkpt><trkpt lat="38.98930254" lon="-0.49960359"><ele>123.4</ele><time>2022-11-13T13:21:24.0000000+00:00</time></trkpt><trkpt lat="38.9892934" lon="-0.49958842"><ele>123.2</ele><time>2022-11-13T13:21:25.0000000+00:00</time></trkpt><trkpt lat="38.98929315" lon="-0.49957006"><ele>123.4</ele><time>2022-11-13T13:21:26.0000000+00:00</time></trkpt><trkpt lat="38.98928963" lon="-0.49956227"><ele>123.4</ele><time>2022-11-13T13:21:27.0000000+00:00</time></trkpt><trkpt lat="38.98928175" lon="-0.49955154"><ele>123.4</ele><time>2022-11-13T13:21:28.0000000+00:00</time></trkpt><trkpt lat="38.98927404" lon="-0.49953913"><ele>123.2</ele><time>2022-11-13T13:21:29.0000000+00:00</time></trkpt><trkpt lat="38.98926633" lon="-0.49953033"><ele>123.2</ele><time>2022-11-13T13:21:30.0000000+00:00</time></trkpt><trkpt lat="38.98925711" lon="-0.49951298"><ele>123.2</ele><time>2022-11-13T13:21:31.0000000+00:00</time></trkpt><trkpt lat="38.98924612" lon="-0.49951013"><ele>123.2</ele><time>2022-11-13T13:21:32.0000000+00:00</time></trkpt><trkpt lat="38.98923724" lon="-0.49950242"><ele>123.2</ele><time>2022-11-13T13:21:33.0000000+00:00</time></trkpt><trkpt lat="38.98922961" lon="-0.49949932"><ele>123.2</ele><time>2022-11-13T13:21:34.0000000+00:00</time></trkpt><trkpt lat="38.98922643" lon="-0.49949429"><ele>123.4</ele><time>2022-11-13T13:21:35.0000000+00:00</time></trkpt><trkpt lat="38.98922224" lon="-0.49949404"><ele>123.4</ele><time>2022-11-13T13:21:36.0000000+00:00</time></trkpt><trkpt lat="38.98922098" lon="-0.49948918"><ele>123.4</ele><time>2022-11-13T13:21:37.0000000+00:00</time></trkpt><trkpt lat="38.98922173" lon="-0.49948457"><ele>123.4</ele><time>2022-11-13T13:21:38.0000000+00:00</time></trkpt><trkpt lat="38.98922022" lon="-0.49948013"><ele>123.6</ele><time>2022-11-13T13:21:39.0000000+00:00</time></trkpt><trkpt lat="38.98921771" lon="-0.49947769"><ele>123.6</ele><time>2022-11-13T13:21:40.0000000+00:00</time></trkpt><trkpt lat="38.98921352" lon="-0.49947426"><ele>123.6</ele><time>2022-11-13T13:21:41.0000000+00:00</time></trkpt><trkpt lat="38.98921511" lon="-0.49945959"><ele>123.6</ele><time>2022-11-13T13:21:42.0000000+00:00</time></trkpt><trkpt lat="38.98921972" lon="-0.49944039"><ele>123.6</ele><time>2022-11-13T13:21:43.0000000+00:00</time></trkpt><trkpt lat="38.98922416" lon="-0.49942313"><ele>123.6</ele><time>2022-11-13T13:21:44.0000000+00:00</time></trkpt><trkpt lat="38.98922408" lon="-0.49940527"><ele>123.8</ele><time>2022-11-13T13:21:45.0000000+00:00</time></trkpt><trkpt lat="38.9892193" lon="-0.4993834"><ele>123.8</ele><time>2022-11-13T13:21:46.0000000+00:00</time></trkpt><trkpt lat="38.98921017" lon="-0.49936613"><ele>123.8</ele><time>2022-11-13T13:21:47.0000000+00:00</time></trkpt><trkpt lat="38.98920304" lon="-0.49935171"><ele>124.0</ele><time>2022-11-13T13:21:48.0000000+00:00</time></trkpt><trkpt lat="38.98919717" lon="-0.49933889"><ele>124.2</ele><time>2022-11-13T13:21:49.0000000+00:00</time></trkpt><trkpt lat="38.98919164" lon="-0.49933227"><ele>124.2</ele><time>2022-11-13T13:21:50.0000000+00:00</time></trkpt><trkpt lat="38.98918745" lon="-0.49932011"><ele>124.4</ele><time>2022-11-13T13:21:51.0000000+00:00</time></trkpt><trkpt lat="38.98918133" lon="-0.49930528"><ele>124.4</ele><time>2022-11-13T13:21:52.0000000+00:00</time></trkpt><trkpt lat="38.98918712" lon="-0.49928877"><ele>124.6</ele><time>2022-11-13T13:21:53.0000000+00:00</time></trkpt><trkpt lat="38.98918904" lon="-0.49926865"><ele>124.6</ele><time>2022-11-13T13:21:54.0000000+00:00</time></trkpt><trkpt lat="38.98918561" lon="-0.49925306"><ele>124.6</ele><time>2022-11-13T13:21:55.0000000+00:00</time></trkpt><trkpt lat="38.98918452" lon="-0.49923739"><ele>124.8</ele><time>2022-11-13T13:21:56.0000000+00:00</time></trkpt><trkpt lat="38.98917873" lon="-0.49921542"><ele>124.8</ele><time>2022-11-13T13:21:57.0000000+00:00</time></trkpt><trkpt lat="38.98917471" lon="-0.49919497"><ele>125.0</ele><time>2022-11-13T13:21:58.0000000+00:00</time></trkpt><trkpt lat="38.98917144" lon="-0.49918156"><ele>125.0</ele><time>2022-11-13T13:21:59.0000000+00:00</time></trkpt><trkpt lat="38.98916566" lon="-0.49917494"><ele>125.2</ele><time>2022-11-13T13:22:00.0000000+00:00</time></trkpt><trkpt lat="38.98916314" lon="-0.49916857"><ele>125.2</ele><time>2022-11-13T13:22:01.0000000+00:00</time></trkpt><trkpt lat="38.9891634" lon="-0.49915868"><ele>125.4</ele><time>2022-11-13T13:22:02.0000000+00:00</time></trkpt><trkpt lat="38.9891665" lon="-0.49914812"><ele>125.4</ele><time>2022-11-13T13:22:03.0000000+00:00</time></trkpt><trkpt lat="38.98916851" lon="-0.49913177"><ele>125.6</ele><time>2022-11-13T13:22:04.0000000+00:00</time></trkpt><trkpt lat="38.98916507" lon="-0.49911694"><ele>125.8</ele><time>2022-11-13T13:22:05.0000000+00:00</time></trkpt><trkpt lat="38.98916675" lon="-0.49910219"><ele>125.8</ele><time>2022-11-13T13:22:06.0000000+00:00</time></trkpt><trkpt lat="38.98916742" lon="-0.49908676"><ele>126.0</ele><time>2022-11-13T13:22:07.0000000+00:00</time></trkpt><trkpt lat="38.98916809" lon="-0.49906363"><ele>126.0</ele><time>2022-11-13T13:22:08.0000000+00:00</time></trkpt><trkpt lat="38.98917446" lon="-0.49904066"><ele>126.0</ele><time>2022-11-13T13:22:09.0000000+00:00</time></trkpt><trkpt lat="38.98918008" lon="-0.49902239"><ele>126.2</ele><time>2022-11-13T13:22:10.0000000+00:00</time></trkpt><trkpt lat="38.98918611" lon="-0.49900713"><ele>126.2</ele><time>2022-11-13T13:22:11.0000000+00:00</time></trkpt><trkpt lat="38.98919039" lon="-0.49898911"><ele>126.2</ele><time>2022-11-13T13:22:12.0000000+00:00</time></trkpt><trkpt lat="38.98919164" lon="-0.49896883"><ele>126.4</ele><time>2022-11-13T13:22:13.0000000+00:00</time></trkpt><trkpt lat="38.98919608" lon="-0.49895559"><ele>126.4</ele><time>2022-11-13T13:22:14.0000000+00:00</time></trkpt><trkpt lat="38.98920153" lon="-0.49894025"><ele>126.6</ele><time>2022-11-13T13:22:15.0000000+00:00</time></trkpt><trkpt lat="38.98920556" lon="-0.49892524"><ele>126.8</ele><time>2022-11-13T13:22:16.0000000+00:00</time></trkpt><trkpt lat="38.98920665" lon="-0.49891108"><ele>126.8</ele><time>2022-11-13T13:22:17.0000000+00:00</time></trkpt><trkpt lat="38.98920438" lon="-0.49889733"><ele>126.8</ele><time>2022-11-13T13:22:18.0000000+00:00</time></trkpt><trkpt lat="38.98920673" lon="-0.49888015"><ele>127.0</ele><time>2022-11-13T13:22:19.0000000+00:00</time></trkpt><trkpt lat="38.98920916" lon="-0.49886364"><ele>127.0</ele><time>2022-11-13T13:22:20.0000000+00:00</time></trkpt><trkpt lat="38.9892079" lon="-0.49885551"><ele>127.0</ele><time>2022-11-13T13:22:21.0000000+00:00</time></trkpt><trkpt lat="38.98920514" lon="-0.49885148"><ele>127.0</ele><time>2022-11-13T13:22:22.0000000+00:00</time></trkpt><trkpt lat="38.98920137" lon="-0.49884427"><ele>127.0</ele><time>2022-11-13T13:22:23.0000000+00:00</time></trkpt><trkpt lat="38.98919776" lon="-0.49883363"><ele>127.0</ele><time>2022-11-13T13:22:24.0000000+00:00</time></trkpt><trkpt lat="38.98919391" lon="-0.49882131"><ele>127.0</ele><time>2022-11-13T13:22:25.0000000+00:00</time></trkpt><trkpt lat="38.98919072" lon="-0.49880656"><ele>127.0</ele><time>2022-11-13T13:22:26.0000000+00:00</time></trkpt><trkpt lat="38.9891893" lon="-0.49878594"><ele>127.0</ele><time>2022-11-13T13:22:27.0000000+00:00</time></trkpt><trkpt lat="38.98918988" lon="-0.49876615"><ele>127.2</ele><time>2022-11-13T13:22:28.0000000+00:00</time></trkpt><trkpt lat="38.98919198" lon="-0.49874512"><ele>127.2</ele><time>2022-11-13T13:22:29.0000000+00:00</time></trkpt><trkpt lat="38.98919223" lon="-0.49872936"><ele>127.2</ele><time>2022-11-13T13:22:30.0000000+00:00</time></trkpt><trkpt lat="38.98919072" lon="-0.49871477"><ele>127.2</ele><time>2022-11-13T13:22:31.0000000+00:00</time></trkpt><trkpt lat="38.98918619" lon="-0.49869608"><ele>127.2</ele><time>2022-11-13T13:22:32.0000000+00:00</time></trkpt><trkpt lat="38.98918309" lon="-0.4986841"><ele>127.2</ele><time>2022-11-13T13:22:33.0000000+00:00</time></trkpt><trkpt lat="38.98917957" lon="-0.49867194"><ele>127.2</ele><time>2022-11-13T13:22:34.0000000+00:00</time></trkpt><trkpt lat="38.98917714" lon="-0.49866155"><ele>127.2</ele><time>2022-11-13T13:22:35.0000000+00:00</time></trkpt><trkpt lat="38.98917102" lon="-0.49864906"><ele>127.2</ele><time>2022-11-13T13:22:36.0000000+00:00</time></trkpt><trkpt lat="38.98915568" lon="-0.4986359"><ele>127.2</ele><time>2022-11-13T13:22:37.0000000+00:00</time></trkpt><trkpt lat="38.98914546" lon="-0.49862098"><ele>127.2</ele><time>2022-11-13T13:22:38.0000000+00:00</time></trkpt><trkpt lat="38.98914252" lon="-0.49860547"><ele>127.2</ele><time>2022-11-13T13:22:39.0000000+00:00</time></trkpt><trkpt lat="38.98914445" lon="-0.49858837"><ele>127.2</ele><time>2022-11-13T13:22:40.0000000+00:00</time></trkpt><trkpt lat="38.98914152" lon="-0.49856859"><ele>127.2</ele><time>2022-11-13T13:22:41.0000000+00:00</time></trkpt><trkpt lat="38.98913976" lon="-0.49855124"><ele>127.2</ele><time>2022-11-13T13:22:42.0000000+00:00</time></trkpt><trkpt lat="38.98913565" lon="-0.4985359"><ele>127.2</ele><time>2022-11-13T13:22:43.0000000+00:00</time></trkpt><trkpt lat="38.98913624" lon="-0.49852182"><ele>127.2</ele><time>2022-11-13T13:22:44.0000000+00:00</time></trkpt><trkpt lat="38.98913892" lon="-0.49850732"><ele>127.2</ele><time>2022-11-13T13:22:45.0000000+00:00</time></trkpt><trkpt lat="38.98914035" lon="-0.49849073"><ele>127.2</ele><time>2022-11-13T13:22:46.0000000+00:00</time></trkpt><trkpt lat="38.98914336" lon="-0.49847522"><ele>127.4</ele><time>2022-11-13T13:22:47.0000000+00:00</time></trkpt><trkpt lat="38.98914596" lon="-0.49846181"><ele>127.4</ele><time>2022-11-13T13:22:48.0000000+00:00</time></trkpt><trkpt lat="38.98914646" lon="-0.49844965"><ele>127.4</ele><time>2022-11-13T13:22:49.0000000+00:00</time></trkpt><trkpt lat="38.98914588" lon="-0.49843473"><ele>127.4</ele><time>2022-11-13T13:22:50.0000000+00:00</time></trkpt><trkpt lat="38.98914252" lon="-0.49842074"><ele>127.4</ele><time>2022-11-13T13:22:51.0000000+00:00</time></trkpt><trkpt lat="38.98914303" lon="-0.49840297"><ele>127.4</ele><time>2022-11-13T13:22:52.0000000+00:00</time></trkpt><trkpt lat="38.98914898" lon="-0.4983888"><ele>127.4</ele><time>2022-11-13T13:22:53.0000000+00:00</time></trkpt><trkpt lat="38.98914739" lon="-0.49837656"><ele>127.4</ele><time>2022-11-13T13:22:54.0000000+00:00</time></trkpt><trkpt lat="38.98914378" lon="-0.49836273"><ele>127.4</ele><time>2022-11-13T13:22:55.0000000+00:00</time></trkpt><trkpt lat="38.98914747" lon="-0.4983422"><ele>127.2</ele><time>2022-11-13T13:22:56.0000000+00:00</time></trkpt><trkpt lat="38.98915401" lon="-0.49832384"><ele>127.2</ele><time>2022-11-13T13:22:57.0000000+00:00</time></trkpt><trkpt lat="38.98916113" lon="-0.49830968"><ele>127.2</ele><time>2022-11-13T13:22:58.0000000+00:00</time></trkpt><trkpt lat="38.98916658" lon="-0.49828587"><ele>127.2</ele><time>2022-11-13T13:22:59.0000000+00:00</time></trkpt><trkpt lat="38.98917505" lon="-0.49827799"><ele>127.2</ele><time>2022-11-13T13:23:00.0000000+00:00</time></trkpt><trkpt lat="38.98917421" lon="-0.49826869"><ele>127.2</ele><time>2022-11-13T13:23:01.0000000+00:00</time></trkpt><trkpt lat="38.98916775" lon="-0.49825712"><ele>127.2</ele><time>2022-11-13T13:23:02.0000000+00:00</time></trkpt><trkpt lat="38.98916272" lon="-0.49825151"><ele>127.2</ele><time>2022-11-13T13:23:03.0000000+00:00</time></trkpt><trkpt lat="38.98916046" lon="-0.49825662"><ele>127.2</ele><time>2022-11-13T13:23:04.0000000+00:00</time></trkpt><trkpt lat="38.98915652" lon="-0.49825704"><ele>127.2</ele><time>2022-11-13T13:23:05.0000000+00:00</time></trkpt><trkpt lat="38.98915392" lon="-0.49825368"><ele>127.2</ele><time>2022-11-13T13:23:06.0000000+00:00</time></trkpt><trkpt lat="38.98915317" lon="-0.49824388"><ele>127.2</ele><time>2022-11-13T13:23:07.0000000+00:00</time></trkpt><trkpt lat="38.98915929" lon="-0.49823105"><ele>127.2</ele><time>2022-11-13T13:23:08.0000000+00:00</time></trkpt><trkpt lat="38.98916013" lon="-0.49822519"><ele>127.2</ele><time>2022-11-13T13:23:09.0000000+00:00</time></trkpt><trkpt lat="38.98916415" lon="-0.49821823"><ele>127.2</ele><time>2022-11-13T13:23:10.0000000+00:00</time></trkpt><trkpt lat="38.98917438" lon="-0.49821546"><ele>127.2</ele><time>2022-11-13T13:23:11.0000000+00:00</time></trkpt><trkpt lat="38.9891753" lon="-0.49821354"><ele>127.2</ele><time>2022-11-13T13:23:12.0000000+00:00</time></trkpt><trkpt lat="38.98917337" lon="-0.49821119"><ele>127.2</ele><time>2022-11-13T13:23:13.0000000+00:00</time></trkpt><trkpt lat="38.98917396" lon="-0.49821228"><ele>127.4</ele><time>2022-11-13T13:23:14.0000000+00:00</time></trkpt><trkpt lat="38.98917362" lon="-0.49821261"><ele>127.6</ele><time>2022-11-13T13:23:15.0000000+00:00</time></trkpt><trkpt lat="38.98917295" lon="-0.49821261"><ele>127.8</ele><time>2022-11-13T13:23:16.0000000+00:00</time></trkpt><trkpt lat="38.98917228" lon="-0.49821261"><ele>127.8</ele><time>2022-11-13T13:23:17.0000000+00:00</time></trkpt><trkpt lat="38.98917111" lon="-0.49821228"><ele>128.0</ele><time>2022-11-13T13:23:18.0000000+00:00</time></trkpt><trkpt lat="38.98916951" lon="-0.49821186"><ele>128.0</ele><time>2022-11-13T13:23:19.0000000+00:00</time></trkpt><trkpt lat="38.98916851" lon="-0.49821211"><ele>128.2</ele><time>2022-11-13T13:23:20.0000000+00:00</time></trkpt><trkpt lat="38.98916851" lon="-0.49821211"><ele>128.2</ele><time>2022-11-13T13:23:21.0000000+00:00</time></trkpt><trkpt lat="38.98916851" lon="-0.49821211"><ele>128.2</ele><time>2022-11-13T13:23:22.0000000+00:00</time></trkpt><trkpt lat="38.98916851" lon="-0.49821211"><ele>128.2</ele><time>2022-11-13T13:23:23.0000000+00:00</time></trkpt><trkpt lat="38.98916851" lon="-0.49821211"><ele>128.2</ele><time>2022-11-13T13:23:24.0000000+00:00</time></trkpt><trkpt lat="38.98916851" lon="-0.49821211"><ele>128.2</ele><time>2022-11-13T13:23:25.0000000+00:00</time></trkpt><trkpt lat="38.98916851" lon="-0.49821211"><ele>127.4</ele><time>2022-11-13T13:23:26.0000000+00:00</time></trkpt><trkpt lat="38.98916851" lon="-0.49821211"><ele>127.4</ele><time>2022-11-13T13:23:27.0000000+00:00</time></trkpt><trkpt lat="38.98916859" lon="-0.49821211"><ele>127.4</ele><time>2022-11-13T13:23:28.0000000+00:00</time></trkpt><trkpt lat="38.98916876" lon="-0.49821211"><ele>127.4</ele><time>2022-11-13T13:23:29.0000000+00:00</time></trkpt><trkpt lat="38.98916943" lon="-0.49821211"><ele>127.4</ele><time>2022-11-13T13:23:30.0000000+00:00</time></trkpt><trkpt lat="38.98916951" lon="-0.49821211"><ele>127.4</ele><time>2022-11-13T13:23:31.0000000+00:00</time></trkpt><trkpt lat="38.98916951" lon="-0.49821219"><ele>127.4</ele><time>2022-11-13T13:23:32.0000000+00:00</time></trkpt><trkpt lat="38.98916951" lon="-0.49821228"><ele>127.4</ele><time>2022-11-13T13:23:33.0000000+00:00</time></trkpt><trkpt lat="38.98916951" lon="-0.49821228"><ele>127.4</ele><time>2022-11-13T13:23:34.0000000+00:00</time></trkpt><trkpt lat="38.98916951" lon="-0.49821245"><ele>127.4</ele><time>2022-11-13T13:23:35.0000000+00:00</time></trkpt><trkpt lat="38.98916951" lon="-0.49821253"><ele>127.4</ele><time>2022-11-13T13:23:36.0000000+00:00</time></trkpt><trkpt lat="38.98916951" lon="-0.49821261"><ele>127.4</ele><time>2022-11-13T13:23:37.0000000+00:00</time></trkpt><trkpt lat="38.98916951" lon="-0.49821261"><ele>127.4</ele><time>2022-11-13T13:23:38.0000000+00:00</time></trkpt><trkpt lat="38.98916951" lon="-0.49821261"><ele>127.4</ele><time>2022-11-13T13:23:39.0000000+00:00</time></trkpt><trkpt lat="38.98916951" lon="-0.49821261"><ele>127.4</ele><time>2022-11-13T13:23:40.0000000+00:00</time></trkpt><trkpt lat="38.98916951" lon="-0.49821261"><ele>127.4</ele><time>2022-11-13T13:23:41.0000000+00:00</time></trkpt><trkpt lat="38.98916951" lon="-0.49821261"><ele>127.4</ele><time>2022-11-13T13:23:42.0000000+00:00</time></trkpt><trkpt lat="38.98917027" lon="-0.49820985"><ele>127.4</ele><time>2022-11-13T13:23:43.0000000+00:00</time></trkpt><trkpt lat="38.98918049" lon="-0.49818898"><ele>127.4</ele><time>2022-11-13T13:23:44.0000000+00:00</time></trkpt><trkpt lat="38.9891908" lon="-0.49817464"><ele>127.4</ele><time>2022-11-13T13:23:45.0000000+00:00</time></trkpt><trkpt lat="38.98919776" lon="-0.49815972"><ele>127.4</ele><time>2022-11-13T13:23:46.0000000+00:00</time></trkpt><trkpt lat="38.98920212" lon="-0.49814296"><ele>127.4</ele><time>2022-11-13T13:23:47.0000000+00:00</time></trkpt><trkpt lat="38.98920296" lon="-0.4981293"><ele>127.4</ele><time>2022-11-13T13:23:48.0000000+00:00</time></trkpt><trkpt lat="38.98920388" lon="-0.49811916"><ele>127.4</ele><time>2022-11-13T13:23:49.0000000+00:00</time></trkpt><trkpt lat="38.98920388" lon="-0.49811496"><ele>127.4</ele><time>2022-11-13T13:23:50.0000000+00:00</time></trkpt><trkpt lat="38.98920363" lon="-0.49811128"><ele>127.4</ele><time>2022-11-13T13:23:51.0000000+00:00</time></trkpt><trkpt lat="38.98920346" lon="-0.49810734"><ele>127.4</ele><time>2022-11-13T13:23:52.0000000+00:00</time></trkpt><trkpt lat="38.98920237" lon="-0.49810709"><ele>127.4</ele><time>2022-11-13T13:23:53.0000000+00:00</time></trkpt><trkpt lat="38.98920095" lon="-0.49810801"><ele>127.4</ele><time>2022-11-13T13:23:54.0000000+00:00</time></trkpt><trkpt lat="38.98920388" lon="-0.49810901"><ele>127.4</ele><time>2022-11-13T13:23:55.0000000+00:00</time></trkpt><trkpt lat="38.98920807" lon="-0.49810641"><ele>127.4</ele><time>2022-11-13T13:23:56.0000000+00:00</time></trkpt><trkpt lat="38.98921209" lon="-0.49809887"><ele>127.4</ele><time>2022-11-13T13:23:57.0000000+00:00</time></trkpt><trkpt lat="38.98921327" lon="-0.49808697"><ele>127.4</ele><time>2022-11-13T13:23:58.0000000+00:00</time></trkpt><trkpt lat="38.98921578" lon="-0.49807322"><ele>127.4</ele><time>2022-11-13T13:23:59.0000000+00:00</time></trkpt><trkpt lat="38.98921704" lon="-0.49806124"><ele>127.4</ele><time>2022-11-13T13:24:00.0000000+00:00</time></trkpt><trkpt lat="38.98921997" lon="-0.49804607"><ele>127.4</ele><time>2022-11-13T13:24:01.0000000+00:00</time></trkpt><trkpt lat="38.98922316" lon="-0.49803349"><ele>127.4</ele><time>2022-11-13T13:24:02.0000000+00:00</time></trkpt><trkpt lat="38.98922768" lon="-0.49801966"><ele>127.4</ele><time>2022-11-13T13:24:03.0000000+00:00</time></trkpt><trkpt lat="38.98923506" lon="-0.49800575"><ele>127.4</ele><time>2022-11-13T13:24:04.0000000+00:00</time></trkpt><trkpt lat="38.98923917" lon="-0.49799301"><ele>127.4</ele><time>2022-11-13T13:24:05.0000000+00:00</time></trkpt><trkpt lat="38.98924395" lon="-0.49797826"><ele>127.4</ele><time>2022-11-13T13:24:06.0000000+00:00</time></trkpt><trkpt lat="38.98925065" lon="-0.49796267"><ele>127.4</ele><time>2022-11-13T13:24:07.0000000+00:00</time></trkpt><trkpt lat="38.98925182" lon="-0.49794875"><ele>127.4</ele><time>2022-11-13T13:24:08.0000000+00:00</time></trkpt><trkpt lat="38.98925006" lon="-0.49793827"><ele>127.4</ele><time>2022-11-13T13:24:09.0000000+00:00</time></trkpt><trkpt lat="38.98924931" lon="-0.49793383"><ele>127.4</ele><time>2022-11-13T13:24:10.0000000+00:00</time></trkpt><trkpt lat="38.98924906" lon="-0.49791983"><ele>127.4</ele><time>2022-11-13T13:24:11.0000000+00:00</time></trkpt><trkpt lat="38.98925132" lon="-0.49790919"><ele>127.4</ele><time>2022-11-13T13:24:12.0000000+00:00</time></trkpt><trkpt lat="38.98925325" lon="-0.49789787"><ele>127.4</ele><time>2022-11-13T13:24:13.0000000+00:00</time></trkpt><trkpt lat="38.98925375" lon="-0.49788379"><ele>127.4</ele><time>2022-11-13T13:24:14.0000000+00:00</time></trkpt><trkpt lat="38.98925308" lon="-0.49787005"><ele>127.4</ele><time>2022-11-13T13:24:15.0000000+00:00</time></trkpt><trkpt lat="38.9892535" lon="-0.49785906"><ele>127.4</ele><time>2022-11-13T13:24:16.0000000+00:00</time></trkpt><trkpt lat="38.98925182" lon="-0.4978511"><ele>127.4</ele><time>2022-11-13T13:24:17.0000000+00:00</time></trkpt><trkpt lat="38.98925182" lon="-0.49784423"><ele>127.4</ele><time>2022-11-13T13:24:18.0000000+00:00</time></trkpt><trkpt lat="38.98925132" lon="-0.49784062"><ele>127.4</ele><time>2022-11-13T13:24:19.0000000+00:00</time></trkpt><trkpt lat="38.98925048" lon="-0.49783526"><ele>127.4</ele><time>2022-11-13T13:24:20.0000000+00:00</time></trkpt><trkpt lat="38.98924956" lon="-0.49782193"><ele>127.4</ele><time>2022-11-13T13:24:21.0000000+00:00</time></trkpt><trkpt lat="38.98924554" lon="-0.49781238"><ele>127.4</ele><time>2022-11-13T13:24:22.0000000+00:00</time></trkpt><trkpt lat="38.98924026" lon="-0.49780735"><ele>127.2</ele><time>2022-11-13T13:24:23.0000000+00:00</time></trkpt><trkpt lat="38.98923297" lon="-0.49780064"><ele>127.2</ele><time>2022-11-13T13:24:24.0000000+00:00</time></trkpt><trkpt lat="38.9892281" lon="-0.4977931"><ele>127.0</ele><time>2022-11-13T13:24:25.0000000+00:00</time></trkpt><trkpt lat="38.98922173" lon="-0.49778363"><ele>127.0</ele><time>2022-11-13T13:24:26.0000000+00:00</time></trkpt><trkpt lat="38.98921344" lon="-0.49777751"><ele>127.2</ele><time>2022-11-13T13:24:27.0000000+00:00</time></trkpt><trkpt lat="38.98920497" lon="-0.49777399"><ele>127.2</ele><time>2022-11-13T13:24:28.0000000+00:00</time></trkpt><trkpt lat="38.98919726" lon="-0.49777868"><ele>127.0</ele><time>2022-11-13T13:24:29.0000000+00:00</time></trkpt><trkpt lat="38.98919441" lon="-0.49777826"><ele>127.0</ele><time>2022-11-13T13:24:30.0000000+00:00</time></trkpt><trkpt lat="38.98919416" lon="-0.49777332"><ele>127.0</ele><time>2022-11-13T13:24:31.0000000+00:00</time></trkpt><trkpt lat="38.98919198" lon="-0.49776242"><ele>127.0</ele><time>2022-11-13T13:24:32.0000000+00:00</time></trkpt><trkpt lat="38.98918938" lon="-0.49775052"><ele>127.0</ele><time>2022-11-13T13:24:33.0000000+00:00</time></trkpt><trkpt lat="38.98918904" lon="-0.49773241"><ele>127.0</ele><time>2022-11-13T13:24:34.0000000+00:00</time></trkpt><trkpt lat="38.98918469" lon="-0.49771456"><ele>127.0</ele><time>2022-11-13T13:24:35.0000000+00:00</time></trkpt><trkpt lat="38.98918293" lon="-0.49769788"><ele>127.0</ele><time>2022-11-13T13:24:36.0000000+00:00</time></trkpt><trkpt lat="38.9891753" lon="-0.4976807"><ele>127.0</ele><time>2022-11-13T13:24:37.0000000+00:00</time></trkpt><trkpt lat="38.98916985" lon="-0.49766268"><ele>127.0</ele><time>2022-11-13T13:24:38.0000000+00:00</time></trkpt><trkpt lat="38.98916549" lon="-0.49764373"><ele>127.0</ele><time>2022-11-13T13:24:39.0000000+00:00</time></trkpt><trkpt lat="38.98916415" lon="-0.49762387"><ele>127.0</ele><time>2022-11-13T13:24:40.0000000+00:00</time></trkpt><trkpt lat="38.98916541" lon="-0.49761239"><ele>127.2</ele><time>2022-11-13T13:24:41.0000000+00:00</time></trkpt><trkpt lat="38.98916826" lon="-0.49760493"><ele>127.2</ele><time>2022-11-13T13:24:42.0000000+00:00</time></trkpt><trkpt lat="38.98917119" lon="-0.49760224"><ele>127.0</ele><time>2022-11-13T13:24:43.0000000+00:00</time></trkpt><trkpt lat="38.98917052" lon="-0.49760342"><ele>127.0</ele><time>2022-11-13T13:24:44.0000000+00:00</time></trkpt><trkpt lat="38.98916977" lon="-0.49760694"><ele>127.0</ele><time>2022-11-13T13:24:45.0000000+00:00</time></trkpt><trkpt lat="38.98916977" lon="-0.49761012"><ele>127.0</ele><time>2022-11-13T13:24:46.0000000+00:00</time></trkpt><trkpt lat="38.98917161" lon="-0.49761348"><ele>127.0</ele><time>2022-11-13T13:24:47.0000000+00:00</time></trkpt><trkpt lat="38.98917597" lon="-0.49760652"><ele>127.0</ele><time>2022-11-13T13:24:48.0000000+00:00</time></trkpt><trkpt lat="38.98917999" lon="-0.497604"><ele>127.0</ele><time>2022-11-13T13:24:49.0000000+00:00</time></trkpt><trkpt lat="38.98918544" lon="-0.49760845"><ele>127.0</ele><time>2022-11-13T13:24:50.0000000+00:00</time></trkpt><trkpt lat="38.98918896" lon="-0.49761155"><ele>127.2</ele><time>2022-11-13T13:24:51.0000000+00:00</time></trkpt><trkpt lat="38.98918938" lon="-0.4976149"><ele>127.2</ele><time>2022-11-13T13:24:52.0000000+00:00</time></trkpt><trkpt lat="38.98918971" lon="-0.49761817"><ele>127.2</ele><time>2022-11-13T13:24:53.0000000+00:00</time></trkpt><trkpt lat="38.9891898" lon="-0.49762119"><ele>127.2</ele><time>2022-11-13T13:24:54.0000000+00:00</time></trkpt><trkpt lat="38.98918779" lon="-0.49762077"><ele>127.2</ele><time>2022-11-13T13:24:55.0000000+00:00</time></trkpt><trkpt lat="38.98918485" lon="-0.4976123"><ele>127.2</ele><time>2022-11-13T13:24:56.0000000+00:00</time></trkpt><trkpt lat="38.9891794" lon="-0.4975978"><ele>127.2</ele><time>2022-11-13T13:24:57.0000000+00:00</time></trkpt><trkpt lat="38.98917706" lon="-0.49758137"><ele>127.2</ele><time>2022-11-13T13:24:58.0000000+00:00</time></trkpt><trkpt lat="38.98917362" lon="-0.4975683"><ele>127.2</ele><time>2022-11-13T13:24:59.0000000+00:00</time></trkpt><trkpt lat="38.98917018" lon="-0.49755639"><ele>127.4</ele><time>2022-11-13T13:25:00.0000000+00:00</time></trkpt><trkpt lat="38.98916817" lon="-0.49754575"><ele>127.4</ele><time>2022-11-13T13:25:01.0000000+00:00</time></trkpt><trkpt lat="38.98916641" lon="-0.49752764"><ele>127.4</ele><time>2022-11-13T13:25:02.0000000+00:00</time></trkpt><trkpt lat="38.98916214" lon="-0.49751071"><ele>127.4</ele><time>2022-11-13T13:25:03.0000000+00:00</time></trkpt><trkpt lat="38.98915904" lon="-0.4974942"><ele>127.4</ele><time>2022-11-13T13:25:04.0000000+00:00</time></trkpt><trkpt lat="38.98915736" lon="-0.4974771"><ele>127.4</ele><time>2022-11-13T13:25:05.0000000+00:00</time></trkpt><trkpt lat="38.98915283" lon="-0.49746193"><ele>127.4</ele><time>2022-11-13T13:25:06.0000000+00:00</time></trkpt><trkpt lat="38.98915049" lon="-0.49744852"><ele>127.4</ele><time>2022-11-13T13:25:07.0000000+00:00</time></trkpt><trkpt lat="38.9891494" lon="-0.49743217"><ele>127.4</ele><time>2022-11-13T13:25:08.0000000+00:00</time></trkpt><trkpt lat="38.9891504" lon="-0.49742128"><ele>127.4</ele><time>2022-11-13T13:25:09.0000000+00:00</time></trkpt><trkpt lat="38.98915007" lon="-0.49740309"><ele>127.4</ele><time>2022-11-13T13:25:10.0000000+00:00</time></trkpt><trkpt lat="38.98914873" lon="-0.49738549"><ele>127.4</ele><time>2022-11-13T13:25:11.0000000+00:00</time></trkpt><trkpt lat="38.98914713" lon="-0.49737157"><ele>127.4</ele><time>2022-11-13T13:25:12.0000000+00:00</time></trkpt><trkpt lat="38.98914303" lon="-0.49735489"><ele>127.2</ele><time>2022-11-13T13:25:13.0000000+00:00</time></trkpt><trkpt lat="38.9891416" lon="-0.49734056"><ele>127.2</ele><time>2022-11-13T13:25:14.0000000+00:00</time></trkpt><trkpt lat="38.98914219" lon="-0.49732799"><ele>127.2</ele><time>2022-11-13T13:25:15.0000000+00:00</time></trkpt><trkpt lat="38.9891442" lon="-0.49731416"><ele>127.4</ele><time>2022-11-13T13:25:16.0000000+00:00</time></trkpt><trkpt lat="38.98914529" lon="-0.49729832"><ele>127.4</ele><time>2022-11-13T13:25:17.0000000+00:00</time></trkpt><trkpt lat="38.98914496" lon="-0.49729253"><ele>127.4</ele><time>2022-11-13T13:25:18.0000000+00:00</time></trkpt><trkpt lat="38.98914688" lon="-0.49729094"><ele>127.4</ele><time>2022-11-13T13:25:19.0000000+00:00</time></trkpt><trkpt lat="38.98915183" lon="-0.49728901"><ele>127.4</ele><time>2022-11-13T13:25:20.0000000+00:00</time></trkpt><trkpt lat="38.989153" lon="-0.49728658"><ele>127.4</ele><time>2022-11-13T13:25:21.0000000+00:00</time></trkpt><trkpt lat="38.98915703" lon="-0.49727744"><ele>127.4</ele><time>2022-11-13T13:25:22.0000000+00:00</time></trkpt><trkpt lat="38.98915594" lon="-0.49726504"><ele>127.6</ele><time>2022-11-13T13:25:23.0000000+00:00</time></trkpt><trkpt lat="38.98915384" lon="-0.49725356"><ele>127.6</ele><time>2022-11-13T13:25:24.0000000+00:00</time></trkpt><trkpt lat="38.98915225" lon="-0.49724249"><ele>127.6</ele><time>2022-11-13T13:25:25.0000000+00:00</time></trkpt><trkpt lat="38.98914806" lon="-0.49723042"><ele>127.6</ele><time>2022-11-13T13:25:26.0000000+00:00</time></trkpt><trkpt lat="38.98914236" lon="-0.49721575"><ele>127.6</ele><time>2022-11-13T13:25:27.0000000+00:00</time></trkpt><trkpt lat="38.98913884" lon="-0.49719865"><ele>127.6</ele><time>2022-11-13T13:25:28.0000000+00:00</time></trkpt><trkpt lat="38.98913389" lon="-0.49718005"><ele>127.6</ele><time>2022-11-13T13:25:29.0000000+00:00</time></trkpt><trkpt lat="38.98913071" lon="-0.49716421"><ele>127.6</ele><time>2022-11-13T13:25:30.0000000+00:00</time></trkpt><trkpt lat="38.98912719" lon="-0.49714744"><ele>127.6</ele><time>2022-11-13T13:25:31.0000000+00:00</time></trkpt><trkpt lat="38.98912165" lon="-0.49713143"><ele>127.6</ele><time>2022-11-13T13:25:32.0000000+00:00</time></trkpt><trkpt lat="38.98911889" lon="-0.4971197"><ele>127.6</ele><time>2022-11-13T13:25:33.0000000+00:00</time></trkpt><trkpt lat="38.9891183" lon="-0.49710436"><ele>127.8</ele><time>2022-11-13T13:25:34.0000000+00:00</time></trkpt><trkpt lat="38.98911604" lon="-0.49709003"><ele>127.8</ele><time>2022-11-13T13:25:35.0000000+00:00</time></trkpt><trkpt lat="38.98911134" lon="-0.49707234"><ele>127.8</ele><time>2022-11-13T13:25:36.0000000+00:00</time></trkpt><trkpt lat="38.98910908" lon="-0.49705465"><ele>127.8</ele><time>2022-11-13T13:25:37.0000000+00:00</time></trkpt><trkpt lat="38.98910807" lon="-0.4970399"><ele>127.8</ele><time>2022-11-13T13:25:38.0000000+00:00</time></trkpt><trkpt lat="38.98910036" lon="-0.49702196"><ele>127.8</ele><time>2022-11-13T13:25:39.0000000+00:00</time></trkpt><trkpt lat="38.98909718" lon="-0.49701031"><ele>127.8</ele><time>2022-11-13T13:25:40.0000000+00:00</time></trkpt><trkpt lat="38.98909399" lon="-0.49699858"><ele>127.8</ele><time>2022-11-13T13:25:41.0000000+00:00</time></trkpt><trkpt lat="38.98908913" lon="-0.49698475"><ele>128.0</ele><time>2022-11-13T13:25:42.0000000+00:00</time></trkpt><trkpt lat="38.98908578" lon="-0.49697829"><ele>128.0</ele><time>2022-11-13T13:25:43.0000000+00:00</time></trkpt><trkpt lat="38.98908729" lon="-0.49696446"><ele>128.0</ele><time>2022-11-13T13:25:44.0000000+00:00</time></trkpt><trkpt lat="38.98908578" lon="-0.49694653"><ele>128.0</ele><time>2022-11-13T13:25:45.0000000+00:00</time></trkpt><trkpt lat="38.98908" lon="-0.496928"><ele>128.0</ele><time>2022-11-13T13:25:46.0000000+00:00</time></trkpt><trkpt lat="38.98907798" lon="-0.49691308"><ele>128.2</ele><time>2022-11-13T13:25:47.0000000+00:00</time></trkpt><trkpt lat="38.98907748" lon="-0.49689858"><ele>128.2</ele><time>2022-11-13T13:25:48.0000000+00:00</time></trkpt><trkpt lat="38.98907723" lon="-0.49688249"><ele>128.2</ele><time>2022-11-13T13:25:49.0000000+00:00</time></trkpt><trkpt lat="38.98907815" lon="-0.49686673"><ele>128.4</ele><time>2022-11-13T13:25:50.0000000+00:00</time></trkpt><trkpt lat="38.98908243" lon="-0.49685533"><ele>128.4</ele><time>2022-11-13T13:25:51.0000000+00:00</time></trkpt><trkpt lat="38.98908553" lon="-0.49684276"><ele>128.4</ele><time>2022-11-13T13:25:52.0000000+00:00</time></trkpt><trkpt lat="38.98908838" lon="-0.49682541"><ele>128.6</ele><time>2022-11-13T13:25:53.0000000+00:00</time></trkpt><trkpt lat="38.98909408" lon="-0.49681309"><ele>128.6</ele><time>2022-11-13T13:25:54.0000000+00:00</time></trkpt><trkpt lat="38.98910372" lon="-0.49679808"><ele>128.6</ele><time>2022-11-13T13:25:55.0000000+00:00</time></trkpt><trkpt lat="38.98911285" lon="-0.49678274"><ele>128.8</ele><time>2022-11-13T13:25:56.0000000+00:00</time></trkpt><trkpt lat="38.98912174" lon="-0.49676917"><ele>128.8</ele><time>2022-11-13T13:25:57.0000000+00:00</time></trkpt><trkpt lat="38.98913196" lon="-0.49675307"><ele>129.0</ele><time>2022-11-13T13:25:58.0000000+00:00</time></trkpt><trkpt lat="38.98913674" lon="-0.49674016"><ele>129.0</ele><time>2022-11-13T13:25:59.0000000+00:00</time></trkpt><trkpt lat="38.98914093" lon="-0.49672533"><ele>129.0</ele><time>2022-11-13T13:26:00.0000000+00:00</time></trkpt><trkpt lat="38.9891463" lon="-0.49671401"><ele>129.0</ele><time>2022-11-13T13:26:01.0000000+00:00</time></trkpt><trkpt lat="38.98915007" lon="-0.49670764"><ele>129.0</ele><time>2022-11-13T13:26:02.0000000+00:00</time></trkpt><trkpt lat="38.98915552" lon="-0.49669876"><ele>129.0</ele><time>2022-11-13T13:26:03.0000000+00:00</time></trkpt><trkpt lat="38.98916407" lon="-0.49668945"><ele>129.2</ele><time>2022-11-13T13:26:04.0000000+00:00</time></trkpt><trkpt lat="38.98917136" lon="-0.4966809"><ele>129.2</ele><time>2022-11-13T13:26:05.0000000+00:00</time></trkpt><trkpt lat="38.98917823" lon="-0.49666959"><ele>129.2</ele><time>2022-11-13T13:26:06.0000000+00:00</time></trkpt><trkpt lat="38.98918418" lon="-0.49665777"><ele>129.2</ele><time>2022-11-13T13:26:07.0000000+00:00</time></trkpt><trkpt lat="38.98918728" lon="-0.49664419"><ele>129.2</ele><time>2022-11-13T13:26:08.0000000+00:00</time></trkpt><trkpt lat="38.98919064" lon="-0.49663271"><ele>129.2</ele><time>2022-11-13T13:26:09.0000000+00:00</time></trkpt><trkpt lat="38.98919776" lon="-0.4966203"><ele>129.2</ele><time>2022-11-13T13:26:10.0000000+00:00</time></trkpt><trkpt lat="38.98920556" lon="-0.4966058"><ele>129.2</ele><time>2022-11-13T13:26:11.0000000+00:00</time></trkpt><trkpt lat="38.98921612" lon="-0.49659256"><ele>129.2</ele><time>2022-11-13T13:26:12.0000000+00:00</time></trkpt><trkpt lat="38.98922601" lon="-0.49658057"><ele>129.2</ele><time>2022-11-13T13:26:13.0000000+00:00</time></trkpt><trkpt lat="38.98923565" lon="-0.49656691"><ele>129.2</ele><time>2022-11-13T13:26:14.0000000+00:00</time></trkpt><trkpt lat="38.9892426" lon="-0.49655157"><ele>129.2</ele><time>2022-11-13T13:26:15.0000000+00:00</time></trkpt><trkpt lat="38.98924822" lon="-0.49653581"><ele>129.2</ele><time>2022-11-13T13:26:16.0000000+00:00</time></trkpt><trkpt lat="38.98925551" lon="-0.49652022"><ele>129.2</ele><time>2022-11-13T13:26:17.0000000+00:00</time></trkpt><trkpt lat="38.98926146" lon="-0.49650338"><ele>129.2</ele><time>2022-11-13T13:26:18.0000000+00:00</time></trkpt><trkpt lat="38.98927052" lon="-0.49648988"><ele>129.2</ele><time>2022-11-13T13:26:19.0000000+00:00</time></trkpt><trkpt lat="38.98927806" lon="-0.49647731"><ele>129.2</ele><time>2022-11-13T13:26:20.0000000+00:00</time></trkpt><trkpt lat="38.98928016" lon="-0.4964639"><ele>129.2</ele><time>2022-11-13T13:26:21.0000000+00:00</time></trkpt><trkpt lat="38.98928049" lon="-0.49644873"><ele>129.2</ele><time>2022-11-13T13:26:22.0000000+00:00</time></trkpt><trkpt lat="38.98928217" lon="-0.49643355"><ele>129.2</ele><time>2022-11-13T13:26:23.0000000+00:00</time></trkpt><trkpt lat="38.98928359" lon="-0.49641696"><ele>129.2</ele><time>2022-11-13T13:26:24.0000000+00:00</time></trkpt><trkpt lat="38.98928468" lon="-0.49639684"><ele>129.2</ele><time>2022-11-13T13:26:25.0000000+00:00</time></trkpt><trkpt lat="38.98928929" lon="-0.49637807"><ele>129.2</ele><time>2022-11-13T13:26:26.0000000+00:00</time></trkpt><trkpt lat="38.98928979" lon="-0.49635929"><ele>129.2</ele><time>2022-11-13T13:26:27.0000000+00:00</time></trkpt><trkpt lat="38.98929072" lon="-0.49633976"><ele>129.2</ele><time>2022-11-13T13:26:28.0000000+00:00</time></trkpt><trkpt lat="38.98929172" lon="-0.49631973"><ele>129.2</ele><time>2022-11-13T13:26:29.0000000+00:00</time></trkpt><trkpt lat="38.9892908" lon="-0.49629928"><ele>129.4</ele><time>2022-11-13T13:26:30.0000000+00:00</time></trkpt><trkpt lat="38.98929172" lon="-0.49628151"><ele>129.4</ele><time>2022-11-13T13:26:31.0000000+00:00</time></trkpt><trkpt lat="38.9892908" lon="-0.49626717"><ele>129.4</ele><time>2022-11-13T13:26:32.0000000+00:00</time></trkpt><trkpt lat="38.9892929" lon="-0.49625443"><ele>129.4</ele><time>2022-11-13T13:26:33.0000000+00:00</time></trkpt><trkpt lat="38.98929709" lon="-0.49624127"><ele>129.4</ele><time>2022-11-13T13:26:34.0000000+00:00</time></trkpt><trkpt lat="38.9893017" lon="-0.49622845"><ele>129.4</ele><time>2022-11-13T13:26:35.0000000+00:00</time></trkpt><trkpt lat="38.98930639" lon="-0.49621563"><ele>129.2</ele><time>2022-11-13T13:26:36.0000000+00:00</time></trkpt><trkpt lat="38.98930748" lon="-0.49620892"><ele>129.2</ele><time>2022-11-13T13:26:37.0000000+00:00</time></trkpt><trkpt lat="38.98931217" lon="-0.49619777"><ele>129.2</ele><time>2022-11-13T13:26:38.0000000+00:00</time></trkpt><trkpt lat="38.98931477" lon="-0.49618461"><ele>129.2</ele><time>2022-11-13T13:26:39.0000000+00:00</time></trkpt><trkpt lat="38.98931787" lon="-0.49616902"><ele>129.2</ele><time>2022-11-13T13:26:40.0000000+00:00</time></trkpt><trkpt lat="38.98932181" lon="-0.49615561"><ele>129.2</ele><time>2022-11-13T13:26:41.0000000+00:00</time></trkpt><trkpt lat="38.9893224" lon="-0.49614287"><ele>129.4</ele><time>2022-11-13T13:26:42.0000000+00:00</time></trkpt><trkpt lat="38.98932265" lon="-0.49613072"><ele>129.4</ele><time>2022-11-13T13:26:43.0000000+00:00</time></trkpt><trkpt lat="38.98932491" lon="-0.49612091"><ele>129.4</ele><time>2022-11-13T13:26:44.0000000+00:00</time></trkpt><trkpt lat="38.98933187" lon="-0.49610934"><ele>129.4</ele><time>2022-11-13T13:26:45.0000000+00:00</time></trkpt><trkpt lat="38.98933916" lon="-0.4960956"><ele>129.4</ele><time>2022-11-13T13:26:46.0000000+00:00</time></trkpt><trkpt lat="38.9893447" lon="-0.49608193"><ele>129.4</ele><time>2022-11-13T13:26:47.0000000+00:00</time></trkpt><trkpt lat="38.98934512" lon="-0.49607154"><ele>129.4</ele><time>2022-11-13T13:26:48.0000000+00:00</time></trkpt><trkpt lat="38.98935241" lon="-0.49606022"><ele>129.4</ele><time>2022-11-13T13:26:49.0000000+00:00</time></trkpt><trkpt lat="38.98935501" lon="-0.49604639"><ele>129.4</ele><time>2022-11-13T13:26:50.0000000+00:00</time></trkpt><trkpt lat="38.98936104" lon="-0.49603198"><ele>129.4</ele><time>2022-11-13T13:26:51.0000000+00:00</time></trkpt><trkpt lat="38.98936666" lon="-0.49601521"><ele>129.4</ele><time>2022-11-13T13:26:52.0000000+00:00</time></trkpt><trkpt lat="38.98936657" lon="-0.49599795"><ele>129.4</ele><time>2022-11-13T13:26:53.0000000+00:00</time></trkpt><trkpt lat="38.98937219" lon="-0.49598462"><ele>129.4</ele><time>2022-11-13T13:26:54.0000000+00:00</time></trkpt><trkpt lat="38.98937278" lon="-0.49597188"><ele>129.4</ele><time>2022-11-13T13:26:55.0000000+00:00</time></trkpt><trkpt lat="38.98937495" lon="-0.4959609"><ele>129.4</ele><time>2022-11-13T13:26:56.0000000+00:00</time></trkpt><trkpt lat="38.98937546" lon="-0.49594724"><ele>129.2</ele><time>2022-11-13T13:26:57.0000000+00:00</time></trkpt><trkpt lat="38.98936909" lon="-0.49592176"><ele>129.2</ele><time>2022-11-13T13:26:58.0000000+00:00</time></trkpt><trkpt lat="38.98936867" lon="-0.49590164"><ele>129.2</ele><time>2022-11-13T13:26:59.0000000+00:00</time></trkpt><trkpt lat="38.98937286" lon="-0.49588462"><ele>129.2</ele><time>2022-11-13T13:27:00.0000000+00:00</time></trkpt><trkpt lat="38.98937722" lon="-0.49586568"><ele>129.2</ele><time>2022-11-13T13:27:01.0000000+00:00</time></trkpt><trkpt lat="38.9893851" lon="-0.49584967"><ele>129.2</ele><time>2022-11-13T13:27:02.0000000+00:00</time></trkpt><trkpt lat="38.98939147" lon="-0.49583031"><ele>129.4</ele><time>2022-11-13T13:27:03.0000000+00:00</time></trkpt><trkpt lat="38.9893965" lon="-0.49581061"><ele>129.4</ele><time>2022-11-13T13:27:04.0000000+00:00</time></trkpt><trkpt lat="38.98940111" lon="-0.49579083"><ele>129.4</ele><time>2022-11-13T13:27:05.0000000+00:00</time></trkpt><trkpt lat="38.9894084" lon="-0.4957713"><ele>129.4</ele><time>2022-11-13T13:27:06.0000000+00:00</time></trkpt><trkpt lat="38.989411" lon="-0.49575345"><ele>129.6</ele><time>2022-11-13T13:27:07.0000000+00:00</time></trkpt><trkpt lat="38.98941435" lon="-0.49573652"><ele>129.6</ele><time>2022-11-13T13:27:08.0000000+00:00</time></trkpt><trkpt lat="38.98942064" lon="-0.49571942"><ele>129.6</ele><time>2022-11-13T13:27:09.0000000+00:00</time></trkpt><trkpt lat="38.98942273" lon="-0.49570441"><ele>129.6</ele><time>2022-11-13T13:27:10.0000000+00:00</time></trkpt><trkpt lat="38.9894234" lon="-0.49569243"><ele>129.4</ele><time>2022-11-13T13:27:11.0000000+00:00</time></trkpt><trkpt lat="38.98942122" lon="-0.49568187"><ele>129.4</ele><time>2022-11-13T13:27:12.0000000+00:00</time></trkpt><trkpt lat="38.98942483" lon="-0.49567591"><ele>129.4</ele><time>2022-11-13T13:27:13.0000000+00:00</time></trkpt><trkpt lat="38.98942893" lon="-0.49567122"><ele>129.4</ele><time>2022-11-13T13:27:14.0000000+00:00</time></trkpt><trkpt lat="38.98943774" lon="-0.49566954"><ele>129.4</ele><time>2022-11-13T13:27:15.0000000+00:00</time></trkpt><trkpt lat="38.98944545" lon="-0.49566812"><ele>129.2</ele><time>2022-11-13T13:27:16.0000000+00:00</time></trkpt><trkpt lat="38.98944687" lon="-0.49566535"><ele>129.2</ele><time>2022-11-13T13:27:17.0000000+00:00</time></trkpt><trkpt lat="38.98943908" lon="-0.49567382"><ele>129.2</ele><time>2022-11-13T13:27:18.0000000+00:00</time></trkpt><trkpt lat="38.98942818" lon="-0.49568304"><ele>129.2</ele><time>2022-11-13T13:27:19.0000000+00:00</time></trkpt><trkpt lat="38.98942047" lon="-0.49568555"><ele>129.2</ele><time>2022-11-13T13:27:20.0000000+00:00</time></trkpt><trkpt lat="38.98941653" lon="-0.4956817"><ele>129.2</ele><time>2022-11-13T13:27:21.0000000+00:00</time></trkpt><trkpt lat="38.98941217" lon="-0.49568128"><ele>129.2</ele><time>2022-11-13T13:27:22.0000000+00:00</time></trkpt><trkpt lat="38.98940982" lon="-0.49568128"><ele>129.2</ele><time>2022-11-13T13:27:23.0000000+00:00</time></trkpt><trkpt lat="38.989411" lon="-0.49568036"><ele>129.2</ele><time>2022-11-13T13:27:24.0000000+00:00</time></trkpt><trkpt lat="38.9894141" lon="-0.49566879"><ele>129.2</ele><time>2022-11-13T13:27:25.0000000+00:00</time></trkpt><trkpt lat="38.98941829" lon="-0.49566225"><ele>129.2</ele><time>2022-11-13T13:27:26.0000000+00:00</time></trkpt><trkpt lat="38.9894229" lon="-0.49565638"><ele>129.2</ele><time>2022-11-13T13:27:27.0000000+00:00</time></trkpt><trkpt lat="38.9894255" lon="-0.49564825"><ele>129.2</ele><time>2022-11-13T13:27:28.0000000+00:00</time></trkpt><trkpt lat="38.98942743" lon="-0.49563979"><ele>129.2</ele><time>2022-11-13T13:27:29.0000000+00:00</time></trkpt><trkpt lat="38.98943187" lon="-0.49562613"><ele>129.2</ele><time>2022-11-13T13:27:30.0000000+00:00</time></trkpt><trkpt lat="38.98943807" lon="-0.49560827"><ele>129.2</ele><time>2022-11-13T13:27:31.0000000+00:00</time></trkpt><trkpt lat="38.98943849" lon="-0.49559277"><ele>129.4</ele><time>2022-11-13T13:27:32.0000000+00:00</time></trkpt><trkpt lat="38.98943991" lon="-0.49558044"><ele>129.4</ele><time>2022-11-13T13:27:33.0000000+00:00</time></trkpt><trkpt lat="38.98944276" lon="-0.49556821"><ele>129.4</ele><time>2022-11-13T13:27:34.0000000+00:00</time></trkpt><trkpt lat="38.98944779" lon="-0.4955548"><ele>129.4</ele><time>2022-11-13T13:27:35.0000000+00:00</time></trkpt><trkpt lat="38.98945592" lon="-0.49554138"><ele>129.4</ele><time>2022-11-13T13:27:36.0000000+00:00</time></trkpt><trkpt lat="38.98946556" lon="-0.49552965"><ele>129.4</ele><time>2022-11-13T13:27:37.0000000+00:00</time></trkpt><trkpt lat="38.98947009" lon="-0.49551649"><ele>129.4</ele><time>2022-11-13T13:27:38.0000000+00:00</time></trkpt><trkpt lat="38.98947579" lon="-0.49550484"><ele>129.6</ele><time>2022-11-13T13:27:39.0000000+00:00</time></trkpt><trkpt lat="38.98947856" lon="-0.49549"><ele>129.6</ele><time>2022-11-13T13:27:40.0000000+00:00</time></trkpt><trkpt lat="38.98948375" lon="-0.49547785"><ele>129.6</ele><time>2022-11-13T13:27:41.0000000+00:00</time></trkpt><trkpt lat="38.98948585" lon="-0.49546343"><ele>129.6</ele><time>2022-11-13T13:27:42.0000000+00:00</time></trkpt><trkpt lat="38.9894897" lon="-0.49545036"><ele>129.8</ele><time>2022-11-13T13:27:43.0000000+00:00</time></trkpt><trkpt lat="38.98949448" lon="-0.49543653"><ele>129.8</ele><time>2022-11-13T13:27:44.0000000+00:00</time></trkpt><trkpt lat="38.98950169" lon="-0.49542035"><ele>129.8</ele><time>2022-11-13T13:27:45.0000000+00:00</time></trkpt><trkpt lat="38.9895068" lon="-0.49540652"><ele>129.8</ele><time>2022-11-13T13:27:46.0000000+00:00</time></trkpt><trkpt lat="38.98951015" lon="-0.49539286"><ele>129.8</ele><time>2022-11-13T13:27:47.0000000+00:00</time></trkpt><trkpt lat="38.98951435" lon="-0.49538037"><ele>129.8</ele><time>2022-11-13T13:27:48.0000000+00:00</time></trkpt><trkpt lat="38.98951954" lon="-0.49536696"><ele>129.8</ele><time>2022-11-13T13:27:49.0000000+00:00</time></trkpt><trkpt lat="38.98952759" lon="-0.49534927"><ele>130.0</ele><time>2022-11-13T13:27:50.0000000+00:00</time></trkpt><trkpt lat="38.98953538" lon="-0.49533301"><ele>130.0</ele><time>2022-11-13T13:27:51.0000000+00:00</time></trkpt><trkpt lat="38.98953706" lon="-0.4953134"><ele>130.0</ele><time>2022-11-13T13:27:52.0000000+00:00</time></trkpt><trkpt lat="38.98953832" lon="-0.4953046"><ele>130.0</ele><time>2022-11-13T13:27:53.0000000+00:00</time></trkpt><trkpt lat="38.989541" lon="-0.49529932"><ele>130.0</ele><time>2022-11-13T13:27:54.0000000+00:00</time></trkpt><trkpt lat="38.98954536" lon="-0.49529437"><ele>130.2</ele><time>2022-11-13T13:27:55.0000000+00:00</time></trkpt><trkpt lat="38.98954921" lon="-0.49529026"><ele>130.2</ele><time>2022-11-13T13:27:56.0000000+00:00</time></trkpt><trkpt lat="38.98955114" lon="-0.49528884"><ele>130.0</ele><time>2022-11-13T13:27:57.0000000+00:00</time></trkpt><trkpt lat="38.9895519" lon="-0.49528842"><ele>130.0</ele><time>2022-11-13T13:27:58.0000000+00:00</time></trkpt><trkpt lat="38.98955156" lon="-0.495288"><ele>130.0</ele><time>2022-11-13T13:27:59.0000000+00:00</time></trkpt><trkpt lat="38.9895498" lon="-0.49528859"><ele>130.0</ele><time>2022-11-13T13:28:00.0000000+00:00</time></trkpt><trkpt lat="38.98954963" lon="-0.49528892"><ele>130.0</ele><time>2022-11-13T13:28:01.0000000+00:00</time></trkpt><trkpt lat="38.98954989" lon="-0.49528901"><ele>129.8</ele><time>2022-11-13T13:28:02.0000000+00:00</time></trkpt><trkpt lat="38.98955181" lon="-0.49528901"><ele>129.8</ele><time>2022-11-13T13:28:03.0000000+00:00</time></trkpt><trkpt lat="38.98955097" lon="-0.49529043"><ele>129.8</ele><time>2022-11-13T13:28:04.0000000+00:00</time></trkpt><trkpt lat="38.98955106" lon="-0.4952906"><ele>129.8</ele><time>2022-11-13T13:28:05.0000000+00:00</time></trkpt><trkpt lat="38.98955433" lon="-0.49529345"><ele>129.6</ele><time>2022-11-13T13:28:06.0000000+00:00</time></trkpt><trkpt lat="38.98955382" lon="-0.49529119"><ele>129.6</ele><time>2022-11-13T13:28:07.0000000+00:00</time></trkpt><trkpt lat="38.98955374" lon="-0.49528867"><ele>129.6</ele><time>2022-11-13T13:28:08.0000000+00:00</time></trkpt><trkpt lat="38.98955341" lon="-0.49528842"><ele>129.6</ele><time>2022-11-13T13:28:09.0000000+00:00</time></trkpt><trkpt lat="38.98955341" lon="-0.49529001"><ele>129.4</ele><time>2022-11-13T13:28:10.0000000+00:00</time></trkpt><trkpt lat="38.98955349" lon="-0.49529093"><ele>129.4</ele><time>2022-11-13T13:28:11.0000000+00:00</time></trkpt><trkpt lat="38.98955349" lon="-0.49529093"><ele>129.2</ele><time>2022-11-13T13:28:12.0000000+00:00</time></trkpt><trkpt lat="38.98955349" lon="-0.49529093"><ele>129.2</ele><time>2022-11-13T13:28:13.0000000+00:00</time></trkpt><trkpt lat="38.98955349" lon="-0.49529093"><ele>129.2</ele><time>2022-11-13T13:28:14.0000000+00:00</time></trkpt><trkpt lat="38.98955349" lon="-0.49529093"><ele>129.2</ele><time>2022-11-13T13:28:15.0000000+00:00</time></trkpt><trkpt lat="38.98955349" lon="-0.49529093"><ele>129.2</ele><time>2022-11-13T13:28:16.0000000+00:00</time></trkpt><trkpt lat="38.98955349" lon="-0.49529093"><ele>129.2</ele><time>2022-11-13T13:28:17.0000000+00:00</time></trkpt><trkpt lat="38.98955349" lon="-0.49529093"><ele>129.2</ele><time>2022-11-13T13:28:18.0000000+00:00</time></trkpt><trkpt lat="38.98955349" lon="-0.49529093"><ele>129.6</ele><time>2022-11-13T13:28:19.0000000+00:00</time></trkpt><trkpt lat="38.98955349" lon="-0.49529093"><ele>129.8</ele><time>2022-11-13T13:28:20.0000000+00:00</time></trkpt><trkpt lat="38.98955349" lon="-0.49529068"><ele>130.0</ele><time>2022-11-13T13:28:21.0000000+00:00</time></trkpt><trkpt lat="38.98955424" lon="-0.49528423"><ele>130.2</ele><time>2022-11-13T13:28:22.0000000+00:00</time></trkpt><trkpt lat="38.9895586" lon="-0.49526394"><ele>130.2</ele><time>2022-11-13T13:28:23.0000000+00:00</time></trkpt><trkpt lat="38.98956204" lon="-0.49524366"><ele>130.2</ele><time>2022-11-13T13:28:24.0000000+00:00</time></trkpt><trkpt lat="38.98956849" lon="-0.49521759"><ele>130.2</ele><time>2022-11-13T13:28:25.0000000+00:00</time></trkpt><trkpt lat="38.98957679" lon="-0.49519496"><ele>130.2</ele><time>2022-11-13T13:28:26.0000000+00:00</time></trkpt><trkpt lat="38.98958174" lon="-0.49517451"><ele>130.4</ele><time>2022-11-13T13:28:27.0000000+00:00</time></trkpt><trkpt lat="38.98958501" lon="-0.49515431"><ele>130.4</ele><time>2022-11-13T13:28:28.0000000+00:00</time></trkpt><trkpt lat="38.98958526" lon="-0.49512992"><ele>130.6</ele><time>2022-11-13T13:28:29.0000000+00:00</time></trkpt><trkpt lat="38.98958551" lon="-0.49510771"><ele>130.6</ele><time>2022-11-13T13:28:30.0000000+00:00</time></trkpt><trkpt lat="38.98958769" lon="-0.49508801"><ele>130.6</ele><time>2022-11-13T13:28:31.0000000+00:00</time></trkpt><trkpt lat="38.98958928" lon="-0.49507116"><ele>130.8</ele><time>2022-11-13T13:28:32.0000000+00:00</time></trkpt><trkpt lat="38.98959272" lon="-0.49505431"><ele>131.0</ele><time>2022-11-13T13:28:33.0000000+00:00</time></trkpt><trkpt lat="38.98959473" lon="-0.4950383"><ele>131.0</ele><time>2022-11-13T13:28:34.0000000+00:00</time></trkpt><trkpt lat="38.98959682" lon="-0.49502414"><ele>131.0</ele><time>2022-11-13T13:28:35.0000000+00:00</time></trkpt><trkpt lat="38.98959917" lon="-0.49500997"><ele>131.0</ele><time>2022-11-13T13:28:36.0000000+00:00</time></trkpt><trkpt lat="38.98960143" lon="-0.49499581"><ele>131.0</ele><time>2022-11-13T13:28:37.0000000+00:00</time></trkpt><trkpt lat="38.98959976" lon="-0.49498147"><ele>131.0</ele><time>2022-11-13T13:28:38.0000000+00:00</time></trkpt><trkpt lat="38.98959741" lon="-0.49496622"><ele>131.0</ele><time>2022-11-13T13:28:39.0000000+00:00</time></trkpt><trkpt lat="38.9895954" lon="-0.49495054"><ele>131.0</ele><time>2022-11-13T13:28:40.0000000+00:00</time></trkpt><trkpt lat="38.98959423" lon="-0.49493554"><ele>130.8</ele><time>2022-11-13T13:28:41.0000000+00:00</time></trkpt><trkpt lat="38.98959322" lon="-0.49491844"><ele>130.8</ele><time>2022-11-13T13:28:42.0000000+00:00</time></trkpt><trkpt lat="38.98959171" lon="-0.49490361"><ele>130.8</ele><time>2022-11-13T13:28:43.0000000+00:00</time></trkpt><trkpt lat="38.98959138" lon="-0.49488969"><ele>130.6</ele><time>2022-11-13T13:28:44.0000000+00:00</time></trkpt><trkpt lat="38.98959163" lon="-0.49487595"><ele>130.6</ele><time>2022-11-13T13:28:45.0000000+00:00</time></trkpt><trkpt lat="38.98959138" lon="-0.49486111"><ele>130.6</ele><time>2022-11-13T13:28:46.0000000+00:00</time></trkpt><trkpt lat="38.98959171" lon="-0.49484468"><ele>130.4</ele><time>2022-11-13T13:28:47.0000000+00:00</time></trkpt><trkpt lat="38.98959473" lon="-0.49483202"><ele>130.4</ele><time>2022-11-13T13:28:48.0000000+00:00</time></trkpt><trkpt lat="38.98959414" lon="-0.49482054"><ele>130.4</ele><time>2022-11-13T13:28:49.0000000+00:00</time></trkpt><trkpt lat="38.98959263" lon="-0.49480462"><ele>130.4</ele><time>2022-11-13T13:28:50.0000000+00:00</time></trkpt><trkpt lat="38.98959188" lon="-0.49479011"><ele>130.4</ele><time>2022-11-13T13:28:51.0000000+00:00</time></trkpt><trkpt lat="38.98959381" lon="-0.49477813"><ele>130.2</ele><time>2022-11-13T13:28:52.0000000+00:00</time></trkpt><trkpt lat="38.98959557" lon="-0.49476396"><ele>130.2</ele><time>2022-11-13T13:28:53.0000000+00:00</time></trkpt><trkpt lat="38.98959322" lon="-0.49474703"><ele>130.2</ele><time>2022-11-13T13:28:54.0000000+00:00</time></trkpt><trkpt lat="38.98958936" lon="-0.49473396"><ele>130.2</ele><time>2022-11-13T13:28:55.0000000+00:00</time></trkpt><trkpt lat="38.9895876" lon="-0.49471904"><ele>130.2</ele><time>2022-11-13T13:28:56.0000000+00:00</time></trkpt><trkpt lat="38.98958299" lon="-0.49470806"><ele>130.2</ele><time>2022-11-13T13:28:57.0000000+00:00</time></trkpt><trkpt lat="38.98957905" lon="-0.49469624"><ele>130.2</ele><time>2022-11-13T13:28:58.0000000+00:00</time></trkpt><trkpt lat="38.98957889" lon="-0.49467704"><ele>130.2</ele><time>2022-11-13T13:28:59.0000000+00:00</time></trkpt><trkpt lat="38.98957872" lon="-0.49466129"><ele>130.2</ele><time>2022-11-13T13:29:00.0000000+00:00</time></trkpt><trkpt lat="38.98957864" lon="-0.49464184"><ele>130.2</ele><time>2022-11-13T13:29:01.0000000+00:00</time></trkpt><trkpt lat="38.98958023" lon="-0.49462692"><ele>130.2</ele><time>2022-11-13T13:29:02.0000000+00:00</time></trkpt><trkpt lat="38.98958249" lon="-0.49461166"><ele>130.2</ele><time>2022-11-13T13:29:03.0000000+00:00</time></trkpt><trkpt lat="38.98958366" lon="-0.49459641"><ele>130.2</ele><time>2022-11-13T13:29:04.0000000+00:00</time></trkpt><trkpt lat="38.9895819" lon="-0.49458375"><ele>130.2</ele><time>2022-11-13T13:29:05.0000000+00:00</time></trkpt><trkpt lat="38.98958031" lon="-0.49457017"><ele>130.2</ele><time>2022-11-13T13:29:06.0000000+00:00</time></trkpt><trkpt lat="38.98957763" lon="-0.49455777"><ele>130.2</ele><time>2022-11-13T13:29:07.0000000+00:00</time></trkpt><trkpt lat="38.98957444" lon="-0.49454603"><ele>130.0</ele><time>2022-11-13T13:29:08.0000000+00:00</time></trkpt><trkpt lat="38.98956866" lon="-0.49452843"><ele>130.0</ele><time>2022-11-13T13:29:09.0000000+00:00</time></trkpt><trkpt lat="38.98956573" lon="-0.49451737"><ele>130.2</ele><time>2022-11-13T13:29:10.0000000+00:00</time></trkpt><trkpt lat="38.98956313" lon="-0.49450446"><ele>130.2</ele><time>2022-11-13T13:29:11.0000000+00:00</time></trkpt><trkpt lat="38.98956447" lon="-0.49449314"><ele>130.0</ele><time>2022-11-13T13:29:12.0000000+00:00</time></trkpt><trkpt lat="38.98956531" lon="-0.49447554"><ele>130.0</ele><time>2022-11-13T13:29:13.0000000+00:00</time></trkpt><trkpt lat="38.98956321" lon="-0.49445945"><ele>130.0</ele><time>2022-11-13T13:29:14.0000000+00:00</time></trkpt><trkpt lat="38.98956271" lon="-0.49444076"><ele>130.0</ele><time>2022-11-13T13:29:15.0000000+00:00</time></trkpt><trkpt lat="38.98956514" lon="-0.49442399"><ele>130.0</ele><time>2022-11-13T13:29:16.0000000+00:00</time></trkpt><trkpt lat="38.98957017" lon="-0.49441092"><ele>130.0</ele><time>2022-11-13T13:29:17.0000000+00:00</time></trkpt><trkpt lat="38.98957344" lon="-0.49439935"><ele>130.0</ele><time>2022-11-13T13:29:18.0000000+00:00</time></trkpt><trkpt lat="38.98957637" lon="-0.49438083"><ele>130.0</ele><time>2022-11-13T13:29:19.0000000+00:00</time></trkpt><trkpt lat="38.98957964" lon="-0.494368"><ele>130.0</ele><time>2022-11-13T13:29:20.0000000+00:00</time></trkpt><trkpt lat="38.98957981" lon="-0.49435543"><ele>130.0</ele><time>2022-11-13T13:29:21.0000000+00:00</time></trkpt><trkpt lat="38.98958257" lon="-0.49434353"><ele>130.0</ele><time>2022-11-13T13:29:22.0000000+00:00</time></trkpt><trkpt lat="38.98958433" lon="-0.49432928"><ele>130.2</ele><time>2022-11-13T13:29:23.0000000+00:00</time></trkpt><trkpt lat="38.98958375" lon="-0.49431989"><ele>130.2</ele><time>2022-11-13T13:29:24.0000000+00:00</time></trkpt><trkpt lat="38.98958417" lon="-0.49430455"><ele>130.2</ele><time>2022-11-13T13:29:25.0000000+00:00</time></trkpt><trkpt lat="38.9895835" lon="-0.49428963"><ele>130.2</ele><time>2022-11-13T13:29:26.0000000+00:00</time></trkpt><trkpt lat="38.98958232" lon="-0.49427278"><ele>130.2</ele><time>2022-11-13T13:29:27.0000000+00:00</time></trkpt><trkpt lat="38.98958207" lon="-0.49426155"><ele>130.4</ele><time>2022-11-13T13:29:28.0000000+00:00</time></trkpt><trkpt lat="38.98958241" lon="-0.49424856"><ele>130.4</ele><time>2022-11-13T13:29:29.0000000+00:00</time></trkpt><trkpt lat="38.98958408" lon="-0.49423113"><ele>130.4</ele><time>2022-11-13T13:29:30.0000000+00:00</time></trkpt><trkpt lat="38.98958207" lon="-0.49421478"><ele>130.4</ele><time>2022-11-13T13:29:31.0000000+00:00</time></trkpt><trkpt lat="38.98958283" lon="-0.49419852"><ele>130.4</ele><time>2022-11-13T13:29:32.0000000+00:00</time></trkpt><trkpt lat="38.98959146" lon="-0.49417547"><ele>130.4</ele><time>2022-11-13T13:29:33.0000000+00:00</time></trkpt><trkpt lat="38.98959087" lon="-0.49415971"><ele>130.4</ele><time>2022-11-13T13:29:34.0000000+00:00</time></trkpt><trkpt lat="38.989584" lon="-0.49414379"><ele>130.4</ele><time>2022-11-13T13:29:35.0000000+00:00</time></trkpt><trkpt lat="38.98958333" lon="-0.4941349"><ele>130.4</ele><time>2022-11-13T13:29:36.0000000+00:00</time></trkpt><trkpt lat="38.98958769" lon="-0.49412367"><ele>130.6</ele><time>2022-11-13T13:29:37.0000000+00:00</time></trkpt><trkpt lat="38.9895866" lon="-0.49409919"><ele>130.6</ele><time>2022-11-13T13:29:38.0000000+00:00</time></trkpt><trkpt lat="38.98958886" lon="-0.49408344"><ele>130.6</ele><time>2022-11-13T13:29:39.0000000+00:00</time></trkpt><trkpt lat="38.98958316" lon="-0.49408084"><ele>130.6</ele><time>2022-11-13T13:29:40.0000000+00:00</time></trkpt><trkpt lat="38.98958199" lon="-0.49407749"><ele>130.6</ele><time>2022-11-13T13:29:41.0000000+00:00</time></trkpt><trkpt lat="38.98958408" lon="-0.49407581"><ele>130.6</ele><time>2022-11-13T13:29:42.0000000+00:00</time></trkpt><trkpt lat="38.98958568" lon="-0.49407422"><ele>130.6</ele><time>2022-11-13T13:29:43.0000000+00:00</time></trkpt><trkpt lat="38.98958618" lon="-0.49407195"><ele>130.6</ele><time>2022-11-13T13:29:44.0000000+00:00</time></trkpt><trkpt lat="38.98958786" lon="-0.49406156"><ele>130.8</ele><time>2022-11-13T13:29:45.0000000+00:00</time></trkpt><trkpt lat="38.98959029" lon="-0.49404999"><ele>130.8</ele><time>2022-11-13T13:29:46.0000000+00:00</time></trkpt><trkpt lat="38.98958643" lon="-0.49403465"><ele>130.8</ele><time>2022-11-13T13:29:47.0000000+00:00</time></trkpt><trkpt lat="38.98958107" lon="-0.4940199"><ele>130.8</ele><time>2022-11-13T13:29:48.0000000+00:00</time></trkpt><trkpt lat="38.98957838" lon="-0.49400607"><ele>130.8</ele><time>2022-11-13T13:29:49.0000000+00:00</time></trkpt><trkpt lat="38.98957461" lon="-0.49399358"><ele>130.8</ele><time>2022-11-13T13:29:50.0000000+00:00</time></trkpt><trkpt lat="38.98956799" lon="-0.49398285"><ele>130.8</ele><time>2022-11-13T13:29:51.0000000+00:00</time></trkpt><trkpt lat="38.98956196" lon="-0.49396919"><ele>130.6</ele><time>2022-11-13T13:29:52.0000000+00:00</time></trkpt><trkpt lat="38.98955852" lon="-0.49395519"><ele>130.6</ele><time>2022-11-13T13:29:53.0000000+00:00</time></trkpt><trkpt lat="38.98955944" lon="-0.49394413"><ele>130.6</ele><time>2022-11-13T13:29:54.0000000+00:00</time></trkpt><trkpt lat="38.9895612" lon="-0.49393072"><ele>130.6</ele><time>2022-11-13T13:29:55.0000000+00:00</time></trkpt><trkpt lat="38.98955877" lon="-0.49391521"><ele>130.6</ele><time>2022-11-13T13:29:56.0000000+00:00</time></trkpt><trkpt lat="38.98955525" lon="-0.4938992"><ele>130.6</ele><time>2022-11-13T13:29:57.0000000+00:00</time></trkpt><trkpt lat="38.98955399" lon="-0.49388252"><ele>130.6</ele><time>2022-11-13T13:29:58.0000000+00:00</time></trkpt><trkpt lat="38.98955357" lon="-0.49386475"><ele>130.6</ele><time>2022-11-13T13:29:59.0000000+00:00</time></trkpt><trkpt lat="38.98955458" lon="-0.49384967"><ele>130.8</ele><time>2022-11-13T13:30:00.0000000+00:00</time></trkpt><trkpt lat="38.98955567" lon="-0.49383575"><ele>130.6</ele><time>2022-11-13T13:30:01.0000000+00:00</time></trkpt><trkpt lat="38.98955626" lon="-0.49382326"><ele>130.6</ele><time>2022-11-13T13:30:02.0000000+00:00</time></trkpt><trkpt lat="38.9895529" lon="-0.4938122"><ele>130.8</ele><time>2022-11-13T13:30:03.0000000+00:00</time></trkpt><trkpt lat="38.98954804" lon="-0.49379837"><ele>130.8</ele><time>2022-11-13T13:30:04.0000000+00:00</time></trkpt><trkpt lat="38.98954393" lon="-0.49378613"><ele>130.8</ele><time>2022-11-13T13:30:05.0000000+00:00</time></trkpt><trkpt lat="38.98954175" lon="-0.4937744"><ele>130.8</ele><time>2022-11-13T13:30:06.0000000+00:00</time></trkpt><trkpt lat="38.98954167" lon="-0.49375998"><ele>130.8</ele><time>2022-11-13T13:30:07.0000000+00:00</time></trkpt><trkpt lat="38.98954025" lon="-0.49374338"><ele>130.8</ele><time>2022-11-13T13:30:08.0000000+00:00</time></trkpt><trkpt lat="38.98953321" lon="-0.49372737"><ele>130.8</ele><time>2022-11-13T13:30:09.0000000+00:00</time></trkpt><trkpt lat="38.98951937" lon="-0.49371908"><ele>130.8</ele><time>2022-11-13T13:30:10.0000000+00:00</time></trkpt><trkpt lat="38.98950873" lon="-0.49371421"><ele>130.8</ele><time>2022-11-13T13:30:11.0000000+00:00</time></trkpt><trkpt lat="38.98950605" lon="-0.49371136"><ele>130.8</ele><time>2022-11-13T13:30:12.0000000+00:00</time></trkpt><trkpt lat="38.98950404" lon="-0.49370432"><ele>130.8</ele><time>2022-11-13T13:30:13.0000000+00:00</time></trkpt><trkpt lat="38.98950345" lon="-0.49368999"><ele>130.8</ele><time>2022-11-13T13:30:14.0000000+00:00</time></trkpt><trkpt lat="38.98950102" lon="-0.49367256"><ele>130.6</ele><time>2022-11-13T13:30:15.0000000+00:00</time></trkpt><trkpt lat="38.98950001" lon="-0.49365303"><ele>130.6</ele><time>2022-11-13T13:30:16.0000000+00:00</time></trkpt><trkpt lat="38.98949616" lon="-0.49363819"><ele>130.6</ele><time>2022-11-13T13:30:17.0000000+00:00</time></trkpt><trkpt lat="38.98949322" lon="-0.49362285"><ele>130.8</ele><time>2022-11-13T13:30:18.0000000+00:00</time></trkpt><trkpt lat="38.9894861" lon="-0.49360558"><ele>130.8</ele><time>2022-11-13T13:30:19.0000000+00:00</time></trkpt><trkpt lat="38.98948241" lon="-0.49358656"><ele>130.8</ele><time>2022-11-13T13:30:20.0000000+00:00</time></trkpt><trkpt lat="38.98948032" lon="-0.4935672"><ele>130.8</ele><time>2022-11-13T13:30:21.0000000+00:00</time></trkpt><trkpt lat="38.98947822" lon="-0.49354917"><ele>130.8</ele><time>2022-11-13T13:30:22.0000000+00:00</time></trkpt><trkpt lat="38.98947386" lon="-0.49353023"><ele>130.8</ele><time>2022-11-13T13:30:23.0000000+00:00</time></trkpt><trkpt lat="38.98946992" lon="-0.49351489"><ele>130.8</ele><time>2022-11-13T13:30:24.0000000+00:00</time></trkpt><trkpt lat="38.98946623" lon="-0.49350165"><ele>130.8</ele><time>2022-11-13T13:30:25.0000000+00:00</time></trkpt><trkpt lat="38.98946146" lon="-0.49348321"><ele>130.8</ele><time>2022-11-13T13:30:26.0000000+00:00</time></trkpt><trkpt lat="38.98946095" lon="-0.49346376"><ele>130.8</ele><time>2022-11-13T13:30:27.0000000+00:00</time></trkpt><trkpt lat="38.98945768" lon="-0.49344398"><ele>130.8</ele><time>2022-11-13T13:30:28.0000000+00:00</time></trkpt><trkpt lat="38.98945316" lon="-0.49342923"><ele>130.6</ele><time>2022-11-13T13:30:29.0000000+00:00</time></trkpt><trkpt lat="38.9894488" lon="-0.4934164"><ele>130.6</ele><time>2022-11-13T13:30:30.0000000+00:00</time></trkpt><trkpt lat="38.98944511" lon="-0.49340392"><ele>130.6</ele><time>2022-11-13T13:30:31.0000000+00:00</time></trkpt><trkpt lat="38.98944218" lon="-0.49339084"><ele>130.6</ele><time>2022-11-13T13:30:32.0000000+00:00</time></trkpt><trkpt lat="38.98944352" lon="-0.49337726"><ele>130.6</ele><time>2022-11-13T13:30:33.0000000+00:00</time></trkpt><trkpt lat="38.98944184" lon="-0.49336385"><ele>130.6</ele><time>2022-11-13T13:30:34.0000000+00:00</time></trkpt><trkpt lat="38.98943782" lon="-0.49334893"><ele>130.6</ele><time>2022-11-13T13:30:35.0000000+00:00</time></trkpt><trkpt lat="38.98943195" lon="-0.49333217"><ele>130.4</ele><time>2022-11-13T13:30:36.0000000+00:00</time></trkpt><trkpt lat="38.98942726" lon="-0.49331398"><ele>130.4</ele><time>2022-11-13T13:30:37.0000000+00:00</time></trkpt><trkpt lat="38.98942499" lon="-0.49329353"><ele>130.4</ele><time>2022-11-13T13:30:38.0000000+00:00</time></trkpt><trkpt lat="38.98942474" lon="-0.49327299"><ele>130.4</ele><time>2022-11-13T13:30:39.0000000+00:00</time></trkpt><trkpt lat="38.98942508" lon="-0.49325564"><ele>130.4</ele><time>2022-11-13T13:30:40.0000000+00:00</time></trkpt><trkpt lat="38.98942273" lon="-0.49323963"><ele>130.4</ele><time>2022-11-13T13:30:41.0000000+00:00</time></trkpt><trkpt lat="38.98941888" lon="-0.49322094"><ele>130.4</ele><time>2022-11-13T13:30:42.0000000+00:00</time></trkpt><trkpt lat="38.98941577" lon="-0.49320158"><ele>130.4</ele><time>2022-11-13T13:30:43.0000000+00:00</time></trkpt><trkpt lat="38.98940982" lon="-0.49318171"><ele>130.4</ele><time>2022-11-13T13:30:44.0000000+00:00</time></trkpt><trkpt lat="38.98940144" lon="-0.49316612"><ele>130.4</ele><time>2022-11-13T13:30:45.0000000+00:00</time></trkpt><trkpt lat="38.98939549" lon="-0.49315414"><ele>130.4</ele><time>2022-11-13T13:30:46.0000000+00:00</time></trkpt><trkpt lat="38.98939323" lon="-0.4931419"><ele>130.4</ele><time>2022-11-13T13:30:47.0000000+00:00</time></trkpt><trkpt lat="38.98939038" lon="-0.49312865"><ele>130.4</ele><time>2022-11-13T13:30:48.0000000+00:00</time></trkpt><trkpt lat="38.98938644" lon="-0.493116"><ele>130.4</ele><time>2022-11-13T13:30:49.0000000+00:00</time></trkpt><trkpt lat="38.98938174" lon="-0.49310183"><ele>130.4</ele><time>2022-11-13T13:30:50.0000000+00:00</time></trkpt><trkpt lat="38.98937261" lon="-0.49308633"><ele>130.4</ele><time>2022-11-13T13:30:51.0000000+00:00</time></trkpt><trkpt lat="38.98937428" lon="-0.49306328"><ele>130.4</ele><time>2022-11-13T13:30:52.0000000+00:00</time></trkpt><trkpt lat="38.98937931" lon="-0.49304919"><ele>130.4</ele><time>2022-11-13T13:30:53.0000000+00:00</time></trkpt><trkpt lat="38.98937848" lon="-0.49303277"><ele>130.2</ele><time>2022-11-13T13:30:54.0000000+00:00</time></trkpt><trkpt lat="38.98937521" lon="-0.49301357"><ele>130.2</ele><time>2022-11-13T13:30:55.0000000+00:00</time></trkpt><trkpt lat="38.98937546" lon="-0.49299899"><ele>130.2</ele><time>2022-11-13T13:30:56.0000000+00:00</time></trkpt><trkpt lat="38.98937495" lon="-0.49298423"><ele>130.4</ele><time>2022-11-13T13:30:57.0000000+00:00</time></trkpt><trkpt lat="38.98937487" lon="-0.49297049"><ele>130.4</ele><time>2022-11-13T13:30:58.0000000+00:00</time></trkpt><trkpt lat="38.98937127" lon="-0.49295582"><ele>130.4</ele><time>2022-11-13T13:30:59.0000000+00:00</time></trkpt><trkpt lat="38.98936121" lon="-0.49294115"><ele>130.4</ele><time>2022-11-13T13:31:00.0000000+00:00</time></trkpt><trkpt lat="38.98935182" lon="-0.49292422"><ele>130.4</ele><time>2022-11-13T13:31:01.0000000+00:00</time></trkpt><trkpt lat="38.98934327" lon="-0.49290963"><ele>130.4</ele><time>2022-11-13T13:31:02.0000000+00:00</time></trkpt><trkpt lat="38.98933313" lon="-0.49289757"><ele>130.4</ele><time>2022-11-13T13:31:03.0000000+00:00</time></trkpt><trkpt lat="38.98932718" lon="-0.49288181"><ele>130.4</ele><time>2022-11-13T13:31:04.0000000+00:00</time></trkpt><trkpt lat="38.98932408" lon="-0.49286798"><ele>130.4</ele><time>2022-11-13T13:31:05.0000000+00:00</time></trkpt><trkpt lat="38.98931896" lon="-0.49285633"><ele>130.4</ele><time>2022-11-13T13:31:06.0000000+00:00</time></trkpt><trkpt lat="38.98931419" lon="-0.49284174"><ele>130.4</ele><time>2022-11-13T13:31:07.0000000+00:00</time></trkpt><trkpt lat="38.98931217" lon="-0.49282858"><ele>130.4</ele><time>2022-11-13T13:31:08.0000000+00:00</time></trkpt><trkpt lat="38.98930865" lon="-0.49281559"><ele>130.4</ele><time>2022-11-13T13:31:09.0000000+00:00</time></trkpt><trkpt lat="38.98930119" lon="-0.49280184"><ele>130.4</ele><time>2022-11-13T13:31:10.0000000+00:00</time></trkpt><trkpt lat="38.98929717" lon="-0.49278852"><ele>130.4</ele><time>2022-11-13T13:31:11.0000000+00:00</time></trkpt><trkpt lat="38.98929457" lon="-0.49277536"><ele>130.4</ele><time>2022-11-13T13:31:12.0000000+00:00</time></trkpt><trkpt lat="38.98929139" lon="-0.49276228"><ele>130.4</ele><time>2022-11-13T13:31:13.0000000+00:00</time></trkpt><trkpt lat="38.98928586" lon="-0.49274921"><ele>130.4</ele><time>2022-11-13T13:31:14.0000000+00:00</time></trkpt><trkpt lat="38.98927161" lon="-0.49273898"><ele>130.4</ele><time>2022-11-13T13:31:15.0000000+00:00</time></trkpt><trkpt lat="38.98926415" lon="-0.49272347"><ele>130.4</ele><time>2022-11-13T13:31:16.0000000+00:00</time></trkpt><trkpt lat="38.98925719" lon="-0.49270688"><ele>130.4</ele><time>2022-11-13T13:31:17.0000000+00:00</time></trkpt><trkpt lat="38.98924663" lon="-0.4926824"><ele>130.4</ele><time>2022-11-13T13:31:18.0000000+00:00</time></trkpt><trkpt lat="38.98924193" lon="-0.49266698"><ele>130.4</ele><time>2022-11-13T13:31:19.0000000+00:00</time></trkpt><trkpt lat="38.98924277" lon="-0.49265055"><ele>130.6</ele><time>2022-11-13T13:31:20.0000000+00:00</time></trkpt><trkpt lat="38.9892416" lon="-0.49263471"><ele>130.6</ele><time>2022-11-13T13:31:21.0000000+00:00</time></trkpt><trkpt lat="38.98924721" lon="-0.49262121"><ele>130.6</ele><time>2022-11-13T13:31:22.0000000+00:00</time></trkpt><trkpt lat="38.98925048" lon="-0.49260579"><ele>130.6</ele><time>2022-11-13T13:31:23.0000000+00:00</time></trkpt><trkpt lat="38.98925032" lon="-0.49259079"><ele>130.4</ele><time>2022-11-13T13:31:24.0000000+00:00</time></trkpt><trkpt lat="38.98924981" lon="-0.4925705"><ele>130.4</ele><time>2022-11-13T13:31:25.0000000+00:00</time></trkpt><trkpt lat="38.98924948" lon="-0.4925519"><ele>130.6</ele><time>2022-11-13T13:31:26.0000000+00:00</time></trkpt><trkpt lat="38.98924889" lon="-0.49253463"><ele>130.6</ele><time>2022-11-13T13:31:27.0000000+00:00</time></trkpt><trkpt lat="38.98924571" lon="-0.49251862"><ele>130.4</ele><time>2022-11-13T13:31:28.0000000+00:00</time></trkpt><trkpt lat="38.98924436" lon="-0.49250479"><ele>130.4</ele><time>2022-11-13T13:31:29.0000000+00:00</time></trkpt><trkpt lat="38.98923498" lon="-0.49249289"><ele>130.4</ele><time>2022-11-13T13:31:30.0000000+00:00</time></trkpt><trkpt lat="38.98923028" lon="-0.49248518"><ele>130.4</ele><time>2022-11-13T13:31:31.0000000+00:00</time></trkpt><trkpt lat="38.98923825" lon="-0.49246749"><ele>130.4</ele><time>2022-11-13T13:31:32.0000000+00:00</time></trkpt><trkpt lat="38.98924579" lon="-0.49244561"><ele>130.4</ele><time>2022-11-13T13:31:33.0000000+00:00</time></trkpt><trkpt lat="38.98925032" lon="-0.49242491"><ele>130.4</ele><time>2022-11-13T13:31:34.0000000+00:00</time></trkpt><trkpt lat="38.98924814" lon="-0.49241074"><ele>130.4</ele><time>2022-11-13T13:31:35.0000000+00:00</time></trkpt><trkpt lat="38.98924428" lon="-0.49239574"><ele>130.4</ele><time>2022-11-13T13:31:36.0000000+00:00</time></trkpt><trkpt lat="38.98924537" lon="-0.49238049"><ele>130.6</ele><time>2022-11-13T13:31:37.0000000+00:00</time></trkpt><trkpt lat="38.98924705" lon="-0.49236557"><ele>130.6</ele><time>2022-11-13T13:31:38.0000000+00:00</time></trkpt><trkpt lat="38.98924696" lon="-0.49234922"><ele>130.6</ele><time>2022-11-13T13:31:39.0000000+00:00</time></trkpt><trkpt lat="38.9892483" lon="-0.49233447"><ele>130.6</ele><time>2022-11-13T13:31:40.0000000+00:00</time></trkpt><trkpt lat="38.98925115" lon="-0.49232324"><ele>130.6</ele><time>2022-11-13T13:31:41.0000000+00:00</time></trkpt><trkpt lat="38.98925132" lon="-0.49231209"><ele>130.6</ele><time>2022-11-13T13:31:42.0000000+00:00</time></trkpt><trkpt lat="38.98924914" lon="-0.49230061"><ele>130.6</ele><time>2022-11-13T13:31:43.0000000+00:00</time></trkpt><trkpt lat="38.98924537" lon="-0.4922851"><ele>130.6</ele><time>2022-11-13T13:31:44.0000000+00:00</time></trkpt><trkpt lat="38.98924311" lon="-0.49227186"><ele>130.6</ele><time>2022-11-13T13:31:45.0000000+00:00</time></trkpt><trkpt lat="38.98923892" lon="-0.49225668"><ele>130.6</ele><time>2022-11-13T13:31:46.0000000+00:00</time></trkpt><trkpt lat="38.98924151" lon="-0.49224126"><ele>130.6</ele><time>2022-11-13T13:31:47.0000000+00:00</time></trkpt><trkpt lat="38.98923908" lon="-0.49222752"><ele>130.6</ele><time>2022-11-13T13:31:48.0000000+00:00</time></trkpt><trkpt lat="38.98923514" lon="-0.49221503"><ele>130.6</ele><time>2022-11-13T13:31:49.0000000+00:00</time></trkpt><trkpt lat="38.98923405" lon="-0.49220874"><ele>130.6</ele><time>2022-11-13T13:31:50.0000000+00:00</time></trkpt><trkpt lat="38.98923196" lon="-0.49220304"><ele>130.6</ele><time>2022-11-13T13:31:51.0000000+00:00</time></trkpt><trkpt lat="38.98923146" lon="-0.49219499"><ele>130.6</ele><time>2022-11-13T13:31:52.0000000+00:00</time></trkpt><trkpt lat="38.98923447" lon="-0.49218443"><ele>130.6</ele><time>2022-11-13T13:31:53.0000000+00:00</time></trkpt><trkpt lat="38.98923917" lon="-0.49217236"><ele>130.6</ele><time>2022-11-13T13:31:54.0000000+00:00</time></trkpt><trkpt lat="38.98924135" lon="-0.49215702"><ele>130.6</ele><time>2022-11-13T13:31:55.0000000+00:00</time></trkpt><trkpt lat="38.98924688" lon="-0.49214076"><ele>130.6</ele><time>2022-11-13T13:31:56.0000000+00:00</time></trkpt><trkpt lat="38.98925099" lon="-0.49212635"><ele>130.6</ele><time>2022-11-13T13:31:57.0000000+00:00</time></trkpt><trkpt lat="38.98925006" lon="-0.49211042"><ele>130.6</ele><time>2022-11-13T13:31:58.0000000+00:00</time></trkpt><trkpt lat="38.98924881" lon="-0.49209584"><ele>130.6</ele><time>2022-11-13T13:31:59.0000000+00:00</time></trkpt><trkpt lat="38.98924889" lon="-0.49207966"><ele>130.6</ele><time>2022-11-13T13:32:00.0000000+00:00</time></trkpt><trkpt lat="38.98924428" lon="-0.49206122"><ele>130.6</ele><time>2022-11-13T13:32:01.0000000+00:00</time></trkpt><trkpt lat="38.98923447" lon="-0.49204513"><ele>130.6</ele><time>2022-11-13T13:32:02.0000000+00:00</time></trkpt><trkpt lat="38.98922324" lon="-0.49203381"><ele>130.6</ele><time>2022-11-13T13:32:03.0000000+00:00</time></trkpt><trkpt lat="38.98922173" lon="-0.49202836"><ele>130.6</ele><time>2022-11-13T13:32:04.0000000+00:00</time></trkpt><trkpt lat="38.98922123" lon="-0.49201294"><ele>130.6</ele><time>2022-11-13T13:32:05.0000000+00:00</time></trkpt><trkpt lat="38.98922559" lon="-0.49199542"><ele>130.6</ele><time>2022-11-13T13:32:06.0000000+00:00</time></trkpt><trkpt lat="38.98923079" lon="-0.49197698"><ele>130.6</ele><time>2022-11-13T13:32:07.0000000+00:00</time></trkpt><trkpt lat="38.98923724" lon="-0.4919567"><ele>130.6</ele><time>2022-11-13T13:32:08.0000000+00:00</time></trkpt><trkpt lat="38.98924009" lon="-0.49193515"><ele>130.6</ele><time>2022-11-13T13:32:09.0000000+00:00</time></trkpt><trkpt lat="38.98924319" lon="-0.49192024"><ele>130.6</ele><time>2022-11-13T13:32:10.0000000+00:00</time></trkpt><trkpt lat="38.98924755" lon="-0.49190775"><ele>130.4</ele><time>2022-11-13T13:32:11.0000000+00:00</time></trkpt><trkpt lat="38.9892468" lon="-0.49189869"><ele>130.4</ele><time>2022-11-13T13:32:12.0000000+00:00</time></trkpt><trkpt lat="38.98924185" lon="-0.49188277"><ele>130.4</ele><time>2022-11-13T13:32:13.0000000+00:00</time></trkpt><trkpt lat="38.98923783" lon="-0.49186483"><ele>130.4</ele><time>2022-11-13T13:32:14.0000000+00:00</time></trkpt><trkpt lat="38.98922886" lon="-0.49184815"><ele>130.6</ele><time>2022-11-13T13:32:15.0000000+00:00</time></trkpt><trkpt lat="38.98921989" lon="-0.49183843"><ele>130.6</ele><time>2022-11-13T13:32:16.0000000+00:00</time></trkpt><trkpt lat="38.98921226" lon="-0.49183055"><ele>130.6</ele><time>2022-11-13T13:32:17.0000000+00:00</time></trkpt><trkpt lat="38.98920614" lon="-0.49182368"><ele>130.8</ele><time>2022-11-13T13:32:18.0000000+00:00</time></trkpt><trkpt lat="38.98919743" lon="-0.49181345"><ele>130.8</ele><time>2022-11-13T13:32:19.0000000+00:00</time></trkpt><trkpt lat="38.98918276" lon="-0.49180364"><ele>130.8</ele><time>2022-11-13T13:32:20.0000000+00:00</time></trkpt><trkpt lat="38.98917387" lon="-0.49179132"><ele>130.8</ele><time>2022-11-13T13:32:21.0000000+00:00</time></trkpt><trkpt lat="38.98916272" lon="-0.49177967"><ele>130.8</ele><time>2022-11-13T13:32:22.0000000+00:00</time></trkpt><trkpt lat="38.98915652" lon="-0.49176919"><ele>130.8</ele><time>2022-11-13T13:32:23.0000000+00:00</time></trkpt><trkpt lat="38.98915149" lon="-0.49175989"><ele>131.0</ele><time>2022-11-13T13:32:24.0000000+00:00</time></trkpt><trkpt lat="38.9891437" lon="-0.49174656"><ele>131.0</ele><time>2022-11-13T13:32:25.0000000+00:00</time></trkpt><trkpt lat="38.98913439" lon="-0.49173483"><ele>131.0</ele><time>2022-11-13T13:32:26.0000000+00:00</time></trkpt><trkpt lat="38.98912425" lon="-0.49172469"><ele>131.0</ele><time>2022-11-13T13:32:27.0000000+00:00</time></trkpt><trkpt lat="38.98910967" lon="-0.49171513"><ele>131.2</ele><time>2022-11-13T13:32:28.0000000+00:00</time></trkpt><trkpt lat="38.98908989" lon="-0.4917065"><ele>131.2</ele><time>2022-11-13T13:32:29.0000000+00:00</time></trkpt><trkpt lat="38.98907388" lon="-0.49169786"><ele>131.2</ele><time>2022-11-13T13:32:30.0000000+00:00</time></trkpt><trkpt lat="38.98906147" lon="-0.49168973"><ele>131.4</ele><time>2022-11-13T13:32:31.0000000+00:00</time></trkpt><trkpt lat="38.98905166" lon="-0.49167783"><ele>131.4</ele><time>2022-11-13T13:32:32.0000000+00:00</time></trkpt><trkpt lat="38.98904521" lon="-0.49166978"><ele>131.6</ele><time>2022-11-13T13:32:33.0000000+00:00</time></trkpt><trkpt lat="38.989037" lon="-0.49166199"><ele>131.6</ele><time>2022-11-13T13:32:34.0000000+00:00</time></trkpt><trkpt lat="38.98903247" lon="-0.49165411"><ele>131.6</ele><time>2022-11-13T13:32:35.0000000+00:00</time></trkpt><trkpt lat="38.98902769" lon="-0.49164405"><ele>131.6</ele><time>2022-11-13T13:32:36.0000000+00:00</time></trkpt><trkpt lat="38.98902166" lon="-0.4916329"><ele>131.8</ele><time>2022-11-13T13:32:37.0000000+00:00</time></trkpt><trkpt lat="38.98901009" lon="-0.49162217"><ele>131.8</ele><time>2022-11-13T13:32:38.0000000+00:00</time></trkpt><trkpt lat="38.98900288" lon="-0.49161321"><ele>131.8</ele><time>2022-11-13T13:32:39.0000000+00:00</time></trkpt><trkpt lat="38.9889924" lon="-0.49160315"><ele>132.0</ele><time>2022-11-13T13:32:40.0000000+00:00</time></trkpt><trkpt lat="38.9889779" lon="-0.49159871"><ele>132.0</ele><time>2022-11-13T13:32:41.0000000+00:00</time></trkpt><trkpt lat="38.9889655" lon="-0.49159334"><ele>132.0</ele><time>2022-11-13T13:32:42.0000000+00:00</time></trkpt><trkpt lat="38.98895175" lon="-0.49158622"><ele>132.0</ele><time>2022-11-13T13:32:43.0000000+00:00</time></trkpt><trkpt lat="38.98894521" lon="-0.49157901"><ele>132.2</ele><time>2022-11-13T13:32:44.0000000+00:00</time></trkpt><trkpt lat="38.98893759" lon="-0.49156685"><ele>132.4</ele><time>2022-11-13T13:32:45.0000000+00:00</time></trkpt><trkpt lat="38.98892979" lon="-0.49155872"><ele>132.4</ele><time>2022-11-13T13:32:46.0000000+00:00</time></trkpt><trkpt lat="38.98892384" lon="-0.49154967"><ele>132.4</ele><time>2022-11-13T13:32:47.0000000+00:00</time></trkpt><trkpt lat="38.98891194" lon="-0.4915402"><ele>132.4</ele><time>2022-11-13T13:32:48.0000000+00:00</time></trkpt><trkpt lat="38.98890238" lon="-0.49153157"><ele>132.6</ele><time>2022-11-13T13:32:49.0000000+00:00</time></trkpt><trkpt lat="38.98889568" lon="-0.49152553"><ele>132.6</ele><time>2022-11-13T13:32:50.0000000+00:00</time></trkpt><trkpt lat="38.98888612" lon="-0.49151614"><ele>132.6</ele><time>2022-11-13T13:32:51.0000000+00:00</time></trkpt><trkpt lat="38.98888319" lon="-0.49150885"><ele>132.6</ele><time>2022-11-13T13:32:52.0000000+00:00</time></trkpt><trkpt lat="38.98887925" lon="-0.49150189"><ele>132.6</ele><time>2022-11-13T13:32:53.0000000+00:00</time></trkpt><trkpt lat="38.9888769" lon="-0.49149435"><ele>132.4</ele><time>2022-11-13T13:32:54.0000000+00:00</time></trkpt><trkpt lat="38.98887238" lon="-0.49148723"><ele>132.4</ele><time>2022-11-13T13:32:55.0000000+00:00</time></trkpt><trkpt lat="38.98886609" lon="-0.4914822"><ele>132.2</ele><time>2022-11-13T13:32:56.0000000+00:00</time></trkpt><trkpt lat="38.9888588" lon="-0.49147633"><ele>132.2</ele><time>2022-11-13T13:32:57.0000000+00:00</time></trkpt><trkpt lat="38.98884941" lon="-0.49146887"><ele>132.2</ele><time>2022-11-13T13:32:58.0000000+00:00</time></trkpt><trkpt lat="38.98884513" lon="-0.49146208"><ele>132.2</ele><time>2022-11-13T13:32:59.0000000+00:00</time></trkpt><trkpt lat="38.98883801" lon="-0.49145219"><ele>132.2</ele><time>2022-11-13T13:33:00.0000000+00:00</time></trkpt><trkpt lat="38.9888308" lon="-0.49144641"><ele>132.2</ele><time>2022-11-13T13:33:01.0000000+00:00</time></trkpt><trkpt lat="38.98882125" lon="-0.49143652"><ele>132.2</ele><time>2022-11-13T13:33:02.0000000+00:00</time></trkpt><trkpt lat="38.98881303" lon="-0.49142252"><ele>132.2</ele><time>2022-11-13T13:33:03.0000000+00:00</time></trkpt><trkpt lat="38.98880499" lon="-0.49141045"><ele>132.2</ele><time>2022-11-13T13:33:04.0000000+00:00</time></trkpt><trkpt lat="38.98879023" lon="-0.49139871"><ele>132.0</ele><time>2022-11-13T13:33:05.0000000+00:00</time></trkpt><trkpt lat="38.98877657" lon="-0.49138723"><ele>132.0</ele><time>2022-11-13T13:33:06.0000000+00:00</time></trkpt><trkpt lat="38.98876693" lon="-0.49137642"><ele>132.0</ele><time>2022-11-13T13:33:07.0000000+00:00</time></trkpt><trkpt lat="38.98875796" lon="-0.4913656"><ele>132.0</ele><time>2022-11-13T13:33:08.0000000+00:00</time></trkpt><trkpt lat="38.98875134" lon="-0.49135613"><ele>132.0</ele><time>2022-11-13T13:33:09.0000000+00:00</time></trkpt><trkpt lat="38.98874371" lon="-0.49134507"><ele>132.0</ele><time>2022-11-13T13:33:10.0000000+00:00</time></trkpt><trkpt lat="38.98873659" lon="-0.49133518"><ele>132.0</ele><time>2022-11-13T13:33:11.0000000+00:00</time></trkpt><trkpt lat="38.98873215" lon="-0.49132319"><ele>131.8</ele><time>2022-11-13T13:33:12.0000000+00:00</time></trkpt><trkpt lat="38.9887272" lon="-0.4913123"><ele>131.8</ele><time>2022-11-13T13:33:13.0000000+00:00</time></trkpt><trkpt lat="38.98872167" lon="-0.4912978"><ele>131.8</ele><time>2022-11-13T13:33:14.0000000+00:00</time></trkpt><trkpt lat="38.98871329" lon="-0.4912869"><ele>131.8</ele><time>2022-11-13T13:33:15.0000000+00:00</time></trkpt><trkpt lat="38.98870398" lon="-0.49127701"><ele>131.8</ele><time>2022-11-13T13:33:16.0000000+00:00</time></trkpt><trkpt lat="38.98869485" lon="-0.49126309"><ele>131.8</ele><time>2022-11-13T13:33:17.0000000+00:00</time></trkpt><trkpt lat="38.98868546" lon="-0.49124708"><ele>131.8</ele><time>2022-11-13T13:33:18.0000000+00:00</time></trkpt><trkpt lat="38.98867942" lon="-0.49123024"><ele>131.8</ele><time>2022-11-13T13:33:19.0000000+00:00</time></trkpt><trkpt lat="38.98867129" lon="-0.49121557"><ele>131.8</ele><time>2022-11-13T13:33:20.0000000+00:00</time></trkpt><trkpt lat="38.988663" lon="-0.491203"><ele>131.8</ele><time>2022-11-13T13:33:21.0000000+00:00</time></trkpt><trkpt lat="38.98866149" lon="-0.49119126"><ele>131.8</ele><time>2022-11-13T13:33:22.0000000+00:00</time></trkpt><trkpt lat="38.98865512" lon="-0.49117944"><ele>131.8</ele><time>2022-11-13T13:33:23.0000000+00:00</time></trkpt><trkpt lat="38.98864992" lon="-0.49116494"><ele>131.6</ele><time>2022-11-13T13:33:24.0000000+00:00</time></trkpt><trkpt lat="38.98864565" lon="-0.49115187"><ele>131.6</ele><time>2022-11-13T13:33:25.0000000+00:00</time></trkpt><trkpt lat="38.9886438" lon="-0.49114323"><ele>131.6</ele><time>2022-11-13T13:33:26.0000000+00:00</time></trkpt><trkpt lat="38.98864414" lon="-0.49113024"><ele>131.6</ele><time>2022-11-13T13:33:27.0000000+00:00</time></trkpt><trkpt lat="38.98864338" lon="-0.49111482"><ele>131.8</ele><time>2022-11-13T13:33:28.0000000+00:00</time></trkpt><trkpt lat="38.98864271" lon="-0.49109889"><ele>131.8</ele><time>2022-11-13T13:33:29.0000000+00:00</time></trkpt><trkpt lat="38.98864229" lon="-0.49108582"><ele>131.8</ele><time>2022-11-13T13:33:30.0000000+00:00</time></trkpt><trkpt lat="38.98864011" lon="-0.49107249"><ele>131.8</ele><time>2022-11-13T13:33:31.0000000+00:00</time></trkpt><trkpt lat="38.98863559" lon="-0.49105749"><ele>131.8</ele><time>2022-11-13T13:33:32.0000000+00:00</time></trkpt><trkpt lat="38.98863249" lon="-0.49104449"><ele>131.8</ele><time>2022-11-13T13:33:33.0000000+00:00</time></trkpt><trkpt lat="38.98863123" lon="-0.49103418"><ele>131.8</ele><time>2022-11-13T13:33:34.0000000+00:00</time></trkpt><trkpt lat="38.98863098" lon="-0.4910227"><ele>131.8</ele><time>2022-11-13T13:33:35.0000000+00:00</time></trkpt><trkpt lat="38.98863014" lon="-0.4910077"><ele>131.8</ele><time>2022-11-13T13:33:36.0000000+00:00</time></trkpt><trkpt lat="38.98862955" lon="-0.49099194"><ele>131.8</ele><time>2022-11-13T13:33:37.0000000+00:00</time></trkpt><trkpt lat="38.98862368" lon="-0.49097476"><ele>131.8</ele><time>2022-11-13T13:33:38.0000000+00:00</time></trkpt><trkpt lat="38.98861413" lon="-0.49095891"><ele>131.8</ele><time>2022-11-13T13:33:39.0000000+00:00</time></trkpt><trkpt lat="38.98860541" lon="-0.49094341"><ele>131.6</ele><time>2022-11-13T13:33:40.0000000+00:00</time></trkpt><trkpt lat="38.98859728" lon="-0.49093159"><ele>131.6</ele><time>2022-11-13T13:33:41.0000000+00:00</time></trkpt><trkpt lat="38.98859058" lon="-0.49091592"><ele>131.6</ele><time>2022-11-13T13:33:42.0000000+00:00</time></trkpt><trkpt lat="38.98858747" lon="-0.49090418"><ele>131.6</ele><time>2022-11-13T13:33:43.0000000+00:00</time></trkpt><trkpt lat="38.98858504" lon="-0.49089002"><ele>131.6</ele><time>2022-11-13T13:33:44.0000000+00:00</time></trkpt><trkpt lat="38.98858312" lon="-0.49087887"><ele>131.6</ele><time>2022-11-13T13:33:45.0000000+00:00</time></trkpt><trkpt lat="38.98857507" lon="-0.4908652"><ele>131.6</ele><time>2022-11-13T13:33:46.0000000+00:00</time></trkpt><trkpt lat="38.98856644" lon="-0.4908559"><ele>131.6</ele><time>2022-11-13T13:33:47.0000000+00:00</time></trkpt><trkpt lat="38.98855705" lon="-0.49084819"><ele>131.6</ele><time>2022-11-13T13:33:48.0000000+00:00</time></trkpt><trkpt lat="38.98855118" lon="-0.49083444"><ele>131.4</ele><time>2022-11-13T13:33:49.0000000+00:00</time></trkpt><trkpt lat="38.98854515" lon="-0.49082086"><ele>131.4</ele><time>2022-11-13T13:33:50.0000000+00:00</time></trkpt><trkpt lat="38.98854406" lon="-0.49081475"><ele>131.4</ele><time>2022-11-13T13:33:51.0000000+00:00</time></trkpt><trkpt lat="38.98854171" lon="-0.49080368"><ele>131.4</ele><time>2022-11-13T13:33:52.0000000+00:00</time></trkpt><trkpt lat="38.9885314" lon="-0.49078725"><ele>131.4</ele><time>2022-11-13T13:33:53.0000000+00:00</time></trkpt><trkpt lat="38.98852671" lon="-0.49077367"><ele>131.2</ele><time>2022-11-13T13:33:54.0000000+00:00</time></trkpt><trkpt lat="38.98852461" lon="-0.49076253"><ele>131.2</ele><time>2022-11-13T13:33:55.0000000+00:00</time></trkpt><trkpt lat="38.9885226" lon="-0.49074694"><ele>131.2</ele><time>2022-11-13T13:33:56.0000000+00:00</time></trkpt><trkpt lat="38.98852193" lon="-0.4907326"><ele>131.0</ele><time>2022-11-13T13:33:57.0000000+00:00</time></trkpt><trkpt lat="38.98852235" lon="-0.49071718"><ele>131.0</ele><time>2022-11-13T13:33:58.0000000+00:00</time></trkpt><trkpt lat="38.98852008" lon="-0.49070058"><ele>131.0</ele><time>2022-11-13T13:33:59.0000000+00:00</time></trkpt><trkpt lat="38.98851707" lon="-0.49068424"><ele>131.0</ele><time>2022-11-13T13:34:00.0000000+00:00</time></trkpt><trkpt lat="38.98851573" lon="-0.49066689"><ele>131.0</ele><time>2022-11-13T13:34:01.0000000+00:00</time></trkpt><trkpt lat="38.98851757" lon="-0.49065524"><ele>131.0</ele><time>2022-11-13T13:34:02.0000000+00:00</time></trkpt><trkpt lat="38.98851916" lon="-0.49063864"><ele>131.2</ele><time>2022-11-13T13:34:03.0000000+00:00</time></trkpt><trkpt lat="38.98852327" lon="-0.49062221"><ele>131.2</ele><time>2022-11-13T13:34:04.0000000+00:00</time></trkpt><trkpt lat="38.98852746" lon="-0.49060486"><ele>131.2</ele><time>2022-11-13T13:34:05.0000000+00:00</time></trkpt><trkpt lat="38.98852402" lon="-0.49058902"><ele>131.4</ele><time>2022-11-13T13:34:06.0000000+00:00</time></trkpt><trkpt lat="38.98852218" lon="-0.49057025"><ele>131.4</ele><time>2022-11-13T13:34:07.0000000+00:00</time></trkpt><trkpt lat="38.9885226" lon="-0.4905544"><ele>131.6</ele><time>2022-11-13T13:34:08.0000000+00:00</time></trkpt><trkpt lat="38.98852369" lon="-0.49054116"><ele>131.6</ele><time>2022-11-13T13:34:09.0000000+00:00</time></trkpt><trkpt lat="38.98852201" lon="-0.49052632"><ele>131.4</ele><time>2022-11-13T13:34:10.0000000+00:00</time></trkpt><trkpt lat="38.98851933" lon="-0.49050923"><ele>131.4</ele><time>2022-11-13T13:34:11.0000000+00:00</time></trkpt><trkpt lat="38.98851791" lon="-0.49049263"><ele>131.2</ele><time>2022-11-13T13:34:12.0000000+00:00</time></trkpt><trkpt lat="38.98851791" lon="-0.49047017"><ele>131.2</ele><time>2022-11-13T13:34:13.0000000+00:00</time></trkpt><trkpt lat="38.98851623" lon="-0.4904498"><ele>131.2</ele><time>2022-11-13T13:34:14.0000000+00:00</time></trkpt><trkpt lat="38.98851262" lon="-0.49043857"><ele>131.0</ele><time>2022-11-13T13:34:15.0000000+00:00</time></trkpt><trkpt lat="38.98851397" lon="-0.4904249"><ele>131.0</ele><time>2022-11-13T13:34:16.0000000+00:00</time></trkpt><trkpt lat="38.98851388" lon="-0.49041149"><ele>131.0</ele><time>2022-11-13T13:34:17.0000000+00:00</time></trkpt><trkpt lat="38.98851506" lon="-0.49039582"><ele>131.0</ele><time>2022-11-13T13:34:18.0000000+00:00</time></trkpt><trkpt lat="38.9885164" lon="-0.4903778"><ele>131.0</ele><time>2022-11-13T13:34:19.0000000+00:00</time></trkpt><trkpt lat="38.98851791" lon="-0.49035869"><ele>130.8</ele><time>2022-11-13T13:34:20.0000000+00:00</time></trkpt><trkpt lat="38.98851732" lon="-0.49033874"><ele>130.8</ele><time>2022-11-13T13:34:21.0000000+00:00</time></trkpt><trkpt lat="38.98851614" lon="-0.49032114"><ele>130.8</ele><time>2022-11-13T13:34:22.0000000+00:00</time></trkpt><trkpt lat="38.98851221" lon="-0.49030471"><ele>130.8</ele><time>2022-11-13T13:34:23.0000000+00:00</time></trkpt><trkpt lat="38.9885107" lon="-0.49029255"><ele>130.8</ele><time>2022-11-13T13:34:24.0000000+00:00</time></trkpt><trkpt lat="38.98851053" lon="-0.49027906"><ele>130.8</ele><time>2022-11-13T13:34:25.0000000+00:00</time></trkpt><trkpt lat="38.98850877" lon="-0.49026866"><ele>130.6</ele><time>2022-11-13T13:34:26.0000000+00:00</time></trkpt><trkpt lat="38.98850801" lon="-0.49025609"><ele>130.6</ele><time>2022-11-13T13:34:27.0000000+00:00</time></trkpt><trkpt lat="38.98850952" lon="-0.49024176"><ele>130.6</ele><time>2022-11-13T13:34:28.0000000+00:00</time></trkpt><trkpt lat="38.98851086" lon="-0.49022424"><ele>130.6</ele><time>2022-11-13T13:34:29.0000000+00:00</time></trkpt><trkpt lat="38.98851045" lon="-0.49020865"><ele>130.6</ele><time>2022-11-13T13:34:30.0000000+00:00</time></trkpt><trkpt lat="38.9885107" lon="-0.49019507"><ele>130.6</ele><time>2022-11-13T13:34:31.0000000+00:00</time></trkpt><trkpt lat="38.98851028" lon="-0.49018074"><ele>130.6</ele><time>2022-11-13T13:34:32.0000000+00:00</time></trkpt><trkpt lat="38.98851296" lon="-0.49016465"><ele>130.6</ele><time>2022-11-13T13:34:33.0000000+00:00</time></trkpt><trkpt lat="38.98851497" lon="-0.49015073"><ele>130.6</ele><time>2022-11-13T13:34:34.0000000+00:00</time></trkpt><trkpt lat="38.98851346" lon="-0.49013824"><ele>130.6</ele><time>2022-11-13T13:34:35.0000000+00:00</time></trkpt><trkpt lat="38.9884993" lon="-0.49012508"><ele>130.6</ele><time>2022-11-13T13:34:36.0000000+00:00</time></trkpt><trkpt lat="38.98849117" lon="-0.4901162"><ele>130.6</ele><time>2022-11-13T13:34:37.0000000+00:00</time></trkpt><trkpt lat="38.98848781" lon="-0.49010212"><ele>130.4</ele><time>2022-11-13T13:34:38.0000000+00:00</time></trkpt><trkpt lat="38.98848689" lon="-0.49008887"><ele>130.4</ele><time>2022-11-13T13:34:39.0000000+00:00</time></trkpt><trkpt lat="38.98848924" lon="-0.49007395"><ele>130.4</ele><time>2022-11-13T13:34:40.0000000+00:00</time></trkpt><trkpt lat="38.98848714" lon="-0.49005979"><ele>130.4</ele><time>2022-11-13T13:34:41.0000000+00:00</time></trkpt><trkpt lat="38.98848086" lon="-0.49004135"><ele>130.4</ele><time>2022-11-13T13:34:42.0000000+00:00</time></trkpt><trkpt lat="38.98848052" lon="-0.49002182"><ele>130.4</ele><time>2022-11-13T13:34:43.0000000+00:00</time></trkpt><trkpt lat="38.98847968" lon="-0.4900012"><ele>130.4</ele><time>2022-11-13T13:34:44.0000000+00:00</time></trkpt><trkpt lat="38.98847834" lon="-0.48998284"><ele>130.4</ele><time>2022-11-13T13:34:45.0000000+00:00</time></trkpt><trkpt lat="38.98848379" lon="-0.4899665"><ele>130.4</ele><time>2022-11-13T13:34:46.0000000+00:00</time></trkpt><trkpt lat="38.98848237" lon="-0.48995577"><ele>130.4</ele><time>2022-11-13T13:34:47.0000000+00:00</time></trkpt><trkpt lat="38.98847792" lon="-0.48994244"><ele>130.2</ele><time>2022-11-13T13:34:48.0000000+00:00</time></trkpt><trkpt lat="38.98847365" lon="-0.4899292"><ele>130.2</ele><time>2022-11-13T13:34:49.0000000+00:00</time></trkpt><trkpt lat="38.98847038" lon="-0.48991847"><ele>130.4</ele><time>2022-11-13T13:34:50.0000000+00:00</time></trkpt><trkpt lat="38.9884656" lon="-0.48990405"><ele>130.4</ele><time>2022-11-13T13:34:51.0000000+00:00</time></trkpt><trkpt lat="38.988462" lon="-0.48988788"><ele>130.4</ele><time>2022-11-13T13:34:52.0000000+00:00</time></trkpt><trkpt lat="38.98845839" lon="-0.48987153"><ele>130.4</ele><time>2022-11-13T13:34:53.0000000+00:00</time></trkpt><trkpt lat="38.98845454" lon="-0.48985368"><ele>130.6</ele><time>2022-11-13T13:34:54.0000000+00:00</time></trkpt><trkpt lat="38.98845085" lon="-0.48983758"><ele>130.6</ele><time>2022-11-13T13:34:55.0000000+00:00</time></trkpt><trkpt lat="38.98844498" lon="-0.48982375"><ele>130.6</ele><time>2022-11-13T13:34:56.0000000+00:00</time></trkpt><trkpt lat="38.98843912" lon="-0.48981202"><ele>130.6</ele><time>2022-11-13T13:34:57.0000000+00:00</time></trkpt><trkpt lat="38.98843442" lon="-0.48979576"><ele>130.6</ele><time>2022-11-13T13:34:58.0000000+00:00</time></trkpt><trkpt lat="38.9884283" lon="-0.48978142"><ele>130.6</ele><time>2022-11-13T13:34:59.0000000+00:00</time></trkpt><trkpt lat="38.9884226" lon="-0.48976785"><ele>130.6</ele><time>2022-11-13T13:35:00.0000000+00:00</time></trkpt><trkpt lat="38.98841539" lon="-0.48975712"><ele>130.6</ele><time>2022-11-13T13:35:01.0000000+00:00</time></trkpt><trkpt lat="38.98840793" lon="-0.48974614"><ele>130.6</ele><time>2022-11-13T13:35:02.0000000+00:00</time></trkpt><trkpt lat="38.98839897" lon="-0.4897365"><ele>130.8</ele><time>2022-11-13T13:35:03.0000000+00:00</time></trkpt><trkpt lat="38.98838732" lon="-0.48972761"><ele>130.8</ele><time>2022-11-13T13:35:04.0000000+00:00</time></trkpt><trkpt lat="38.9883786" lon="-0.48971915"><ele>130.8</ele><time>2022-11-13T13:35:05.0000000+00:00</time></trkpt><trkpt lat="38.98837114" lon="-0.4897075"><ele>130.8</ele><time>2022-11-13T13:35:06.0000000+00:00</time></trkpt><trkpt lat="38.98836276" lon="-0.48969777"><ele>130.8</ele><time>2022-11-13T13:35:07.0000000+00:00</time></trkpt><trkpt lat="38.98835337" lon="-0.48969157"><ele>130.8</ele><time>2022-11-13T13:35:08.0000000+00:00</time></trkpt><trkpt lat="38.98834155" lon="-0.48968193"><ele>131.0</ele><time>2022-11-13T13:35:09.0000000+00:00</time></trkpt><trkpt lat="38.98833116" lon="-0.48967958"><ele>130.8</ele><time>2022-11-13T13:35:10.0000000+00:00</time></trkpt><trkpt lat="38.98831892" lon="-0.4896764"><ele>130.8</ele><time>2022-11-13T13:35:11.0000000+00:00</time></trkpt><trkpt lat="38.9883066" lon="-0.48967212"><ele>130.8</ele><time>2022-11-13T13:35:12.0000000+00:00</time></trkpt><trkpt lat="38.98829528" lon="-0.48966215"><ele>131.0</ele><time>2022-11-13T13:35:13.0000000+00:00</time></trkpt><trkpt lat="38.98828447" lon="-0.48965327"><ele>131.0</ele><time>2022-11-13T13:35:14.0000000+00:00</time></trkpt><trkpt lat="38.98827424" lon="-0.48964723"><ele>130.8</ele><time>2022-11-13T13:35:15.0000000+00:00</time></trkpt><trkpt lat="38.98826427" lon="-0.48963902"><ele>131.0</ele><time>2022-11-13T13:35:16.0000000+00:00</time></trkpt><trkpt lat="38.98825362" lon="-0.48963189"><ele>131.0</ele><time>2022-11-13T13:35:17.0000000+00:00</time></trkpt><trkpt lat="38.98824189" lon="-0.48963223"><ele>131.0</ele><time>2022-11-13T13:35:18.0000000+00:00</time></trkpt><trkpt lat="38.98823049" lon="-0.48963323"><ele>131.0</ele><time>2022-11-13T13:35:19.0000000+00:00</time></trkpt><trkpt lat="38.98821808" lon="-0.48962778"><ele>131.0</ele><time>2022-11-13T13:35:20.0000000+00:00</time></trkpt><trkpt lat="38.98820836" lon="-0.48961689"><ele>131.0</ele><time>2022-11-13T13:35:21.0000000+00:00</time></trkpt><trkpt lat="38.98820124" lon="-0.4896023"><ele>131.0</ele><time>2022-11-13T13:35:22.0000000+00:00</time></trkpt><trkpt lat="38.98819554" lon="-0.48959308"><ele>131.2</ele><time>2022-11-13T13:35:23.0000000+00:00</time></trkpt><trkpt lat="38.98818716" lon="-0.4895878"><ele>131.2</ele><time>2022-11-13T13:35:24.0000000+00:00</time></trkpt><trkpt lat="38.9881771" lon="-0.48958428"><ele>131.2</ele><time>2022-11-13T13:35:25.0000000+00:00</time></trkpt><trkpt lat="38.9881657" lon="-0.48958018"><ele>131.2</ele><time>2022-11-13T13:35:26.0000000+00:00</time></trkpt><trkpt lat="38.98815354" lon="-0.48957741"><ele>131.2</ele><time>2022-11-13T13:35:27.0000000+00:00</time></trkpt><trkpt lat="38.98814298" lon="-0.48958118"><ele>131.2</ele><time>2022-11-13T13:35:28.0000000+00:00</time></trkpt><trkpt lat="38.98813158" lon="-0.48957464"><ele>131.2</ele><time>2022-11-13T13:35:29.0000000+00:00</time></trkpt><trkpt lat="38.98811658" lon="-0.48956811"><ele>131.2</ele><time>2022-11-13T13:35:30.0000000+00:00</time></trkpt><trkpt lat="38.98810744" lon="-0.48956048"><ele>131.2</ele><time>2022-11-13T13:35:31.0000000+00:00</time></trkpt><trkpt lat="38.98809269" lon="-0.48955788"><ele>131.4</ele><time>2022-11-13T13:35:32.0000000+00:00</time></trkpt><trkpt lat="38.98808188" lon="-0.48955042"><ele>131.4</ele><time>2022-11-13T13:35:33.0000000+00:00</time></trkpt><trkpt lat="38.98807408" lon="-0.48954363"><ele>131.4</ele><time>2022-11-13T13:35:34.0000000+00:00</time></trkpt><trkpt lat="38.98806486" lon="-0.48953818"><ele>131.4</ele><time>2022-11-13T13:35:35.0000000+00:00</time></trkpt><trkpt lat="38.98805581" lon="-0.4895324"><ele>131.6</ele><time>2022-11-13T13:35:36.0000000+00:00</time></trkpt><trkpt lat="38.98804818" lon="-0.48952963"><ele>131.6</ele><time>2022-11-13T13:35:37.0000000+00:00</time></trkpt><trkpt lat="38.98804097" lon="-0.48952242"><ele>131.6</ele><time>2022-11-13T13:35:38.0000000+00:00</time></trkpt><trkpt lat="38.98803067" lon="-0.4895148"><ele>131.8</ele><time>2022-11-13T13:35:39.0000000+00:00</time></trkpt><trkpt lat="38.988017" lon="-0.489507"><ele>131.8</ele><time>2022-11-13T13:35:40.0000000+00:00</time></trkpt><trkpt lat="38.98800368" lon="-0.48949854"><ele>131.8</ele><time>2022-11-13T13:35:41.0000000+00:00</time></trkpt><trkpt lat="38.9879937" lon="-0.48949351"><ele>131.8</ele><time>2022-11-13T13:35:42.0000000+00:00</time></trkpt><trkpt lat="38.98798356" lon="-0.48948688"><ele>131.8</ele><time>2022-11-13T13:35:43.0000000+00:00</time></trkpt><trkpt lat="38.98797333" lon="-0.48947976"><ele>132.0</ele><time>2022-11-13T13:35:44.0000000+00:00</time></trkpt><trkpt lat="38.98796386" lon="-0.48947523"><ele>132.0</ele><time>2022-11-13T13:35:45.0000000+00:00</time></trkpt><trkpt lat="38.98795221" lon="-0.48947012"><ele>132.0</ele><time>2022-11-13T13:35:46.0000000+00:00</time></trkpt><trkpt lat="38.98793763" lon="-0.48946501"><ele>132.0</ele><time>2022-11-13T13:35:47.0000000+00:00</time></trkpt><trkpt lat="38.98792371" lon="-0.48946023"><ele>132.2</ele><time>2022-11-13T13:35:48.0000000+00:00</time></trkpt><trkpt lat="38.98791131" lon="-0.4894573"><ele>132.2</ele><time>2022-11-13T13:35:49.0000000+00:00</time></trkpt><trkpt lat="38.98789949" lon="-0.4894516"><ele>132.2</ele><time>2022-11-13T13:35:50.0000000+00:00</time></trkpt><trkpt lat="38.98788826" lon="-0.48944523"><ele>132.2</ele><time>2022-11-13T13:35:51.0000000+00:00</time></trkpt><trkpt lat="38.98788004" lon="-0.48943827"><ele>132.2</ele><time>2022-11-13T13:35:52.0000000+00:00</time></trkpt><trkpt lat="38.98786973" lon="-0.48943215"><ele>132.2</ele><time>2022-11-13T13:35:53.0000000+00:00</time></trkpt><trkpt lat="38.98786185" lon="-0.48942679"><ele>132.2</ele><time>2022-11-13T13:35:54.0000000+00:00</time></trkpt><trkpt lat="38.98785062" lon="-0.48942008"><ele>132.4</ele><time>2022-11-13T13:35:55.0000000+00:00</time></trkpt><trkpt lat="38.98783268" lon="-0.48941321"><ele>132.4</ele><time>2022-11-13T13:35:56.0000000+00:00</time></trkpt><trkpt lat="38.98781684" lon="-0.48940667"><ele>132.4</ele><time>2022-11-13T13:35:57.0000000+00:00</time></trkpt><trkpt lat="38.98780737" lon="-0.48940122"><ele>132.4</ele><time>2022-11-13T13:35:58.0000000+00:00</time></trkpt><trkpt lat="38.98779798" lon="-0.48939745"><ele>132.6</ele><time>2022-11-13T13:35:59.0000000+00:00</time></trkpt><trkpt lat="38.98779019" lon="-0.48939343"><ele>132.6</ele><time>2022-11-13T13:36:00.0000000+00:00</time></trkpt><trkpt lat="38.98777854" lon="-0.48938563"><ele>132.6</ele><time>2022-11-13T13:36:01.0000000+00:00</time></trkpt><trkpt lat="38.98776714" lon="-0.48938027"><ele>132.6</ele><time>2022-11-13T13:36:02.0000000+00:00</time></trkpt><trkpt lat="38.98775725" lon="-0.48937733"><ele>132.6</ele><time>2022-11-13T13:36:03.0000000+00:00</time></trkpt><trkpt lat="38.98774618" lon="-0.48937029"><ele>132.8</ele><time>2022-11-13T13:36:04.0000000+00:00</time></trkpt><trkpt lat="38.98773202" lon="-0.48936275"><ele>132.8</ele><time>2022-11-13T13:36:05.0000000+00:00</time></trkpt><trkpt lat="38.98771986" lon="-0.48935546"><ele>132.8</ele><time>2022-11-13T13:36:06.0000000+00:00</time></trkpt><trkpt lat="38.98770679" lon="-0.48934699"><ele>132.8</ele><time>2022-11-13T13:36:07.0000000+00:00</time></trkpt><trkpt lat="38.98769178" lon="-0.48933827"><ele>132.8</ele><time>2022-11-13T13:36:08.0000000+00:00</time></trkpt><trkpt lat="38.98767963" lon="-0.48933098"><ele>132.8</ele><time>2022-11-13T13:36:09.0000000+00:00</time></trkpt><trkpt lat="38.98766731" lon="-0.4893252"><ele>132.8</ele><time>2022-11-13T13:36:10.0000000+00:00</time></trkpt><trkpt lat="38.98765432" lon="-0.48932201"><ele>132.8</ele><time>2022-11-13T13:36:11.0000000+00:00</time></trkpt><trkpt lat="38.98763889" lon="-0.48931816"><ele>133.0</ele><time>2022-11-13T13:36:12.0000000+00:00</time></trkpt><trkpt lat="38.98762607" lon="-0.48931246"><ele>133.0</ele><time>2022-11-13T13:36:13.0000000+00:00</time></trkpt><trkpt lat="38.98761517" lon="-0.48930617"><ele>133.0</ele><time>2022-11-13T13:36:14.0000000+00:00</time></trkpt><trkpt lat="38.98760486" lon="-0.48930173"><ele>133.0</ele><time>2022-11-13T13:36:15.0000000+00:00</time></trkpt><trkpt lat="38.98759799" lon="-0.48929754"><ele>132.8</ele><time>2022-11-13T13:36:16.0000000+00:00</time></trkpt><trkpt lat="38.98758827" lon="-0.48929117"><ele>132.8</ele><time>2022-11-13T13:36:17.0000000+00:00</time></trkpt><trkpt lat="38.98757511" lon="-0.48928538"><ele>132.8</ele><time>2022-11-13T13:36:18.0000000+00:00</time></trkpt><trkpt lat="38.98756128" lon="-0.48928262"><ele>132.8</ele><time>2022-11-13T13:36:19.0000000+00:00</time></trkpt><trkpt lat="38.98754586" lon="-0.48928061"><ele>132.8</ele><time>2022-11-13T13:36:20.0000000+00:00</time></trkpt><trkpt lat="38.98753127" lon="-0.48927533"><ele>132.8</ele><time>2022-11-13T13:36:21.0000000+00:00</time></trkpt><trkpt lat="38.98751778" lon="-0.48927113"><ele>133.0</ele><time>2022-11-13T13:36:22.0000000+00:00</time></trkpt><trkpt lat="38.98750613" lon="-0.48926929"><ele>133.0</ele><time>2022-11-13T13:36:23.0000000+00:00</time></trkpt><trkpt lat="38.98749464" lon="-0.48926443"><ele>133.0</ele><time>2022-11-13T13:36:24.0000000+00:00</time></trkpt><trkpt lat="38.98748039" lon="-0.48926082"><ele>133.0</ele><time>2022-11-13T13:36:25.0000000+00:00</time></trkpt><trkpt lat="38.98746899" lon="-0.48925689"><ele>133.0</ele><time>2022-11-13T13:36:26.0000000+00:00</time></trkpt><trkpt lat="38.9874586" lon="-0.48924842"><ele>133.0</ele><time>2022-11-13T13:36:27.0000000+00:00</time></trkpt><trkpt lat="38.98744812" lon="-0.48924741"><ele>133.0</ele><time>2022-11-13T13:36:28.0000000+00:00</time></trkpt><trkpt lat="38.98743815" lon="-0.48924431"><ele>133.0</ele><time>2022-11-13T13:36:29.0000000+00:00</time></trkpt><trkpt lat="38.98742457" lon="-0.48924004"><ele>132.8</ele><time>2022-11-13T13:36:30.0000000+00:00</time></trkpt><trkpt lat="38.98741015" lon="-0.48923526"><ele>132.8</ele><time>2022-11-13T13:36:31.0000000+00:00</time></trkpt><trkpt lat="38.98739515" lon="-0.48923031"><ele>132.8</ele><time>2022-11-13T13:36:32.0000000+00:00</time></trkpt><trkpt lat="38.98738526" lon="-0.48922512"><ele>132.8</ele><time>2022-11-13T13:36:33.0000000+00:00</time></trkpt><trkpt lat="38.98737294" lon="-0.48922193"><ele>132.8</ele><time>2022-11-13T13:36:34.0000000+00:00</time></trkpt><trkpt lat="38.98736154" lon="-0.48921917"><ele>132.8</ele><time>2022-11-13T13:36:35.0000000+00:00</time></trkpt><trkpt lat="38.98734821" lon="-0.48921523"><ele>132.8</ele><time>2022-11-13T13:36:36.0000000+00:00</time></trkpt><trkpt lat="38.98733522" lon="-0.48920844"><ele>132.8</ele><time>2022-11-13T13:36:37.0000000+00:00</time></trkpt><trkpt lat="38.98732483" lon="-0.4892045"><ele>132.8</ele><time>2022-11-13T13:36:38.0000000+00:00</time></trkpt><trkpt lat="38.98731443" lon="-0.4892019"><ele>132.8</ele><time>2022-11-13T13:36:39.0000000+00:00</time></trkpt><trkpt lat="38.98730261" lon="-0.4891998"><ele>132.8</ele><time>2022-11-13T13:36:40.0000000+00:00</time></trkpt><trkpt lat="38.9872892" lon="-0.4891967"><ele>132.8</ele><time>2022-11-13T13:36:41.0000000+00:00</time></trkpt><trkpt lat="38.98727747" lon="-0.48919712"><ele>132.8</ele><time>2022-11-13T13:36:42.0000000+00:00</time></trkpt><trkpt lat="38.98726674" lon="-0.48919922"><ele>132.8</ele><time>2022-11-13T13:36:43.0000000+00:00</time></trkpt><trkpt lat="38.98725601" lon="-0.48920115"><ele>132.8</ele><time>2022-11-13T13:36:44.0000000+00:00</time></trkpt><trkpt lat="38.98724453" lon="-0.4891983"><ele>132.8</ele><time>2022-11-13T13:36:45.0000000+00:00</time></trkpt><trkpt lat="38.98723321" lon="-0.48919436"><ele>132.8</ele><time>2022-11-13T13:36:46.0000000+00:00</time></trkpt><trkpt lat="38.98722106" lon="-0.48919008"><ele>132.8</ele><time>2022-11-13T13:36:47.0000000+00:00</time></trkpt><trkpt lat="38.98720932" lon="-0.48918606"><ele>132.8</ele><time>2022-11-13T13:36:48.0000000+00:00</time></trkpt><trkpt lat="38.98719541" lon="-0.48918639"><ele>132.8</ele><time>2022-11-13T13:36:49.0000000+00:00</time></trkpt><trkpt lat="38.98718317" lon="-0.48918681"><ele>132.8</ele><time>2022-11-13T13:36:50.0000000+00:00</time></trkpt><trkpt lat="38.98717177" lon="-0.48918866"><ele>133.0</ele><time>2022-11-13T13:36:51.0000000+00:00</time></trkpt><trkpt lat="38.9871602" lon="-0.48919193"><ele>133.0</ele><time>2022-11-13T13:36:52.0000000+00:00</time></trkpt><trkpt lat="38.98714964" lon="-0.48919318"><ele>133.0</ele><time>2022-11-13T13:36:53.0000000+00:00</time></trkpt><trkpt lat="38.98713514" lon="-0.48919008"><ele>133.0</ele><time>2022-11-13T13:36:54.0000000+00:00</time></trkpt><trkpt lat="38.9871214" lon="-0.48918614"><ele>133.0</ele><time>2022-11-13T13:36:55.0000000+00:00</time></trkpt><trkpt lat="38.98711008" lon="-0.48918673"><ele>133.0</ele><time>2022-11-13T13:36:56.0000000+00:00</time></trkpt><trkpt lat="38.98709801" lon="-0.48918941"><ele>133.0</ele><time>2022-11-13T13:36:57.0000000+00:00</time></trkpt><trkpt lat="38.98708628" lon="-0.48919234"><ele>133.0</ele><time>2022-11-13T13:36:58.0000000+00:00</time></trkpt><trkpt lat="38.98707178" lon="-0.48919335"><ele>133.2</ele><time>2022-11-13T13:36:59.0000000+00:00</time></trkpt><trkpt lat="38.98705493" lon="-0.48919729"><ele>133.2</ele><time>2022-11-13T13:37:00.0000000+00:00</time></trkpt><trkpt lat="38.98704143" lon="-0.48919888"><ele>133.4</ele><time>2022-11-13T13:37:01.0000000+00:00</time></trkpt><trkpt lat="38.98703012" lon="-0.48919871"><ele>133.4</ele><time>2022-11-13T13:37:02.0000000+00:00</time></trkpt><trkpt lat="38.98701897" lon="-0.48919947"><ele>133.4</ele><time>2022-11-13T13:37:03.0000000+00:00</time></trkpt><trkpt lat="38.98700874" lon="-0.48919871"><ele>133.6</ele><time>2022-11-13T13:37:04.0000000+00:00</time></trkpt><trkpt lat="38.98699726" lon="-0.4891993"><ele>133.6</ele><time>2022-11-13T13:37:05.0000000+00:00</time></trkpt><trkpt lat="38.98698678" lon="-0.48920265"><ele>133.6</ele><time>2022-11-13T13:37:06.0000000+00:00</time></trkpt><trkpt lat="38.9869753" lon="-0.4892071"><ele>133.8</ele><time>2022-11-13T13:37:07.0000000+00:00</time></trkpt><trkpt lat="38.98696172" lon="-0.48920693"><ele>133.8</ele><time>2022-11-13T13:37:08.0000000+00:00</time></trkpt><trkpt lat="38.98694689" lon="-0.48920467"><ele>133.8</ele><time>2022-11-13T13:37:09.0000000+00:00</time></trkpt><trkpt lat="38.98693222" lon="-0.48920073"><ele>134.0</ele><time>2022-11-13T13:37:10.0000000+00:00</time></trkpt><trkpt lat="38.98691805" lon="-0.48919846"><ele>134.0</ele><time>2022-11-13T13:37:11.0000000+00:00</time></trkpt><trkpt lat="38.98691009" lon="-0.48919695"><ele>134.0</ele><time>2022-11-13T13:37:12.0000000+00:00</time></trkpt><trkpt lat="38.98690112" lon="-0.48919394"><ele>134.0</ele><time>2022-11-13T13:37:13.0000000+00:00</time></trkpt><trkpt lat="38.98689156" lon="-0.48919042"><ele>134.0</ele><time>2022-11-13T13:37:14.0000000+00:00</time></trkpt><trkpt lat="38.98688109" lon="-0.48919209"><ele>134.0</ele><time>2022-11-13T13:37:15.0000000+00:00</time></trkpt><trkpt lat="38.98687036" lon="-0.48918991"><ele>134.2</ele><time>2022-11-13T13:37:16.0000000+00:00</time></trkpt><trkpt lat="38.98685779" lon="-0.4891869"><ele>134.2</ele><time>2022-11-13T13:37:17.0000000+00:00</time></trkpt><trkpt lat="38.9868458" lon="-0.48918857"><ele>134.2</ele><time>2022-11-13T13:37:18.0000000+00:00</time></trkpt><trkpt lat="38.98683331" lon="-0.4891874"><ele>134.4</ele><time>2022-11-13T13:37:19.0000000+00:00</time></trkpt><trkpt lat="38.9868225" lon="-0.48918908"><ele>134.4</ele><time>2022-11-13T13:37:20.0000000+00:00</time></trkpt><trkpt lat="38.9868085" lon="-0.48919268"><ele>134.4</ele><time>2022-11-13T13:37:21.0000000+00:00</time></trkpt><trkpt lat="38.98679224" lon="-0.48919352"><ele>134.6</ele><time>2022-11-13T13:37:22.0000000+00:00</time></trkpt><trkpt lat="38.98677665" lon="-0.48919318"><ele>134.6</ele><time>2022-11-13T13:37:23.0000000+00:00</time></trkpt><trkpt lat="38.98676433" lon="-0.489191"><ele>134.8</ele><time>2022-11-13T13:37:24.0000000+00:00</time></trkpt><trkpt lat="38.98675544" lon="-0.4891874"><ele>134.8</ele><time>2022-11-13T13:37:25.0000000+00:00</time></trkpt><trkpt lat="38.98674698" lon="-0.48918522"><ele>134.8</ele><time>2022-11-13T13:37:26.0000000+00:00</time></trkpt><trkpt lat="38.98673717" lon="-0.48918472"><ele>134.8</ele><time>2022-11-13T13:37:27.0000000+00:00</time></trkpt><trkpt lat="38.98672502" lon="-0.48918388"><ele>135.0</ele><time>2022-11-13T13:37:28.0000000+00:00</time></trkpt><trkpt lat="38.98671244" lon="-0.48917935"><ele>135.0</ele><time>2022-11-13T13:37:29.0000000+00:00</time></trkpt><trkpt lat="38.98670213" lon="-0.48917625"><ele>135.0</ele><time>2022-11-13T13:37:30.0000000+00:00</time></trkpt><trkpt lat="38.98668889" lon="-0.48917013"><ele>135.0</ele><time>2022-11-13T13:37:31.0000000+00:00</time></trkpt><trkpt lat="38.9866769" lon="-0.48916871"><ele>135.0</ele><time>2022-11-13T13:37:32.0000000+00:00</time></trkpt><trkpt lat="38.98666173" lon="-0.48916561"><ele>135.2</ele><time>2022-11-13T13:37:33.0000000+00:00</time></trkpt><trkpt lat="38.98664371" lon="-0.48916334"><ele>135.2</ele><time>2022-11-13T13:37:34.0000000+00:00</time></trkpt><trkpt lat="38.98662779" lon="-0.48915873"><ele>135.2</ele><time>2022-11-13T13:37:35.0000000+00:00</time></trkpt><trkpt lat="38.98661362" lon="-0.48915412"><ele>135.2</ele><time>2022-11-13T13:37:36.0000000+00:00</time></trkpt><trkpt lat="38.98660113" lon="-0.48914691"><ele>135.2</ele><time>2022-11-13T13:37:37.0000000+00:00</time></trkpt><trkpt lat="38.98658479" lon="-0.48914155"><ele>135.2</ele><time>2022-11-13T13:37:38.0000000+00:00</time></trkpt><trkpt lat="38.98656987" lon="-0.48913769"><ele>135.4</ele><time>2022-11-13T13:37:39.0000000+00:00</time></trkpt><trkpt lat="38.98655612" lon="-0.48913107"><ele>135.4</ele><time>2022-11-13T13:37:40.0000000+00:00</time></trkpt><trkpt lat="38.98654606" lon="-0.48912671"><ele>135.4</ele><time>2022-11-13T13:37:41.0000000+00:00</time></trkpt><trkpt lat="38.98653466" lon="-0.48912085"><ele>135.4</ele><time>2022-11-13T13:37:42.0000000+00:00</time></trkpt><trkpt lat="38.98652234" lon="-0.48911548"><ele>135.4</ele><time>2022-11-13T13:37:43.0000000+00:00</time></trkpt><trkpt lat="38.98651279" lon="-0.48910911"><ele>135.6</ele><time>2022-11-13T13:37:44.0000000+00:00</time></trkpt><trkpt lat="38.98650197" lon="-0.48910408"><ele>135.6</ele><time>2022-11-13T13:37:45.0000000+00:00</time></trkpt><trkpt lat="38.98649585" lon="-0.48909905"><ele>135.6</ele><time>2022-11-13T13:37:46.0000000+00:00</time></trkpt><trkpt lat="38.98648731" lon="-0.48909478"><ele>135.6</ele><time>2022-11-13T13:37:47.0000000+00:00</time></trkpt><trkpt lat="38.98647532" lon="-0.48909109"><ele>135.6</ele><time>2022-11-13T13:37:48.0000000+00:00</time></trkpt><trkpt lat="38.98646141" lon="-0.48908833"><ele>135.8</ele><time>2022-11-13T13:37:49.0000000+00:00</time></trkpt><trkpt lat="38.98644749" lon="-0.48908883"><ele>135.8</ele><time>2022-11-13T13:37:50.0000000+00:00</time></trkpt><trkpt lat="38.98643366" lon="-0.48908749"><ele>135.8</ele><time>2022-11-13T13:37:51.0000000+00:00</time></trkpt><trkpt lat="38.98642017" lon="-0.48908673"><ele>135.8</ele><time>2022-11-13T13:37:52.0000000+00:00</time></trkpt><trkpt lat="38.98641053" lon="-0.48908573"><ele>135.8</ele><time>2022-11-13T13:37:53.0000000+00:00</time></trkpt><trkpt lat="38.986405" lon="-0.48908774"><ele>135.8</ele><time>2022-11-13T13:37:54.0000000+00:00</time></trkpt><trkpt lat="38.98640198" lon="-0.48908891"><ele>136.0</ele><time>2022-11-13T13:37:55.0000000+00:00</time></trkpt><trkpt lat="38.98639862" lon="-0.48908849"><ele>136.0</ele><time>2022-11-13T13:37:56.0000000+00:00</time></trkpt><trkpt lat="38.98639712" lon="-0.48908849"><ele>136.0</ele><time>2022-11-13T13:37:57.0000000+00:00</time></trkpt><trkpt lat="38.98639544" lon="-0.48908933"><ele>136.0</ele><time>2022-11-13T13:37:58.0000000+00:00</time></trkpt><trkpt lat="38.98639477" lon="-0.48909025"><ele>136.0</ele><time>2022-11-13T13:37:59.0000000+00:00</time></trkpt><trkpt lat="38.9863936" lon="-0.48909067"><ele>136.0</ele><time>2022-11-13T13:38:00.0000000+00:00</time></trkpt><trkpt lat="38.98639368" lon="-0.48909176"><ele>136.0</ele><time>2022-11-13T13:38:01.0000000+00:00</time></trkpt><trkpt lat="38.98639276" lon="-0.48909218"><ele>136.0</ele><time>2022-11-13T13:38:02.0000000+00:00</time></trkpt><trkpt lat="38.98639125" lon="-0.48909067"><ele>136.0</ele><time>2022-11-13T13:38:03.0000000+00:00</time></trkpt><trkpt lat="38.98638773" lon="-0.48908891"><ele>136.0</ele><time>2022-11-13T13:38:04.0000000+00:00</time></trkpt><trkpt lat="38.98638228" lon="-0.48908422"><ele>136.0</ele><time>2022-11-13T13:38:05.0000000+00:00</time></trkpt><trkpt lat="38.98636937" lon="-0.4890807"><ele>136.0</ele><time>2022-11-13T13:38:06.0000000+00:00</time></trkpt><trkpt lat="38.98636116" lon="-0.48907684"><ele>136.0</ele><time>2022-11-13T13:38:07.0000000+00:00</time></trkpt><trkpt lat="38.98635454" lon="-0.48906729"><ele>136.0</ele><time>2022-11-13T13:38:08.0000000+00:00</time></trkpt><trkpt lat="38.98634833" lon="-0.48905991"><ele>136.0</ele><time>2022-11-13T13:38:09.0000000+00:00</time></trkpt><trkpt lat="38.9863397" lon="-0.48905262"><ele>136.0</ele><time>2022-11-13T13:38:10.0000000+00:00</time></trkpt><trkpt lat="38.98632939" lon="-0.48904566"><ele>136.0</ele><time>2022-11-13T13:38:11.0000000+00:00</time></trkpt><trkpt lat="38.98631866" lon="-0.48904088"><ele>136.0</ele><time>2022-11-13T13:38:12.0000000+00:00</time></trkpt><trkpt lat="38.98630944" lon="-0.48903544"><ele>136.0</ele><time>2022-11-13T13:38:13.0000000+00:00</time></trkpt><trkpt lat="38.98629787" lon="-0.48902999"><ele>136.2</ele><time>2022-11-13T13:38:14.0000000+00:00</time></trkpt><trkpt lat="38.98628748" lon="-0.48902521"><ele>136.2</ele><time>2022-11-13T13:38:15.0000000+00:00</time></trkpt><trkpt lat="38.98627826" lon="-0.48901741"><ele>136.2</ele><time>2022-11-13T13:38:16.0000000+00:00</time></trkpt><trkpt lat="38.98626879" lon="-0.48901264"><ele>136.2</ele><time>2022-11-13T13:38:17.0000000+00:00</time></trkpt><trkpt lat="38.98625923" lon="-0.48900794"><ele>136.2</ele><time>2022-11-13T13:38:18.0000000+00:00</time></trkpt><trkpt lat="38.98625001" lon="-0.4889999"><ele>136.2</ele><time>2022-11-13T13:38:19.0000000+00:00</time></trkpt><trkpt lat="38.98624247" lon="-0.48899369"><ele>136.4</ele><time>2022-11-13T13:38:20.0000000+00:00</time></trkpt><trkpt lat="38.98623551" lon="-0.48898623"><ele>136.4</ele><time>2022-11-13T13:38:21.0000000+00:00</time></trkpt><trkpt lat="38.98622596" lon="-0.48898045"><ele>136.4</ele><time>2022-11-13T13:38:22.0000000+00:00</time></trkpt><trkpt lat="38.98621338" lon="-0.48897014"><ele>136.4</ele><time>2022-11-13T13:38:23.0000000+00:00</time></trkpt><trkpt lat="38.9862009" lon="-0.48895924"><ele>136.6</ele><time>2022-11-13T13:38:24.0000000+00:00</time></trkpt><trkpt lat="38.98619285" lon="-0.48894944"><ele>136.6</ele><time>2022-11-13T13:38:25.0000000+00:00</time></trkpt><trkpt lat="38.98618422" lon="-0.48893728"><ele>136.6</ele><time>2022-11-13T13:38:26.0000000+00:00</time></trkpt><trkpt lat="38.98617483" lon="-0.48892614"><ele>136.6</ele><time>2022-11-13T13:38:27.0000000+00:00</time></trkpt><trkpt lat="38.98616527" lon="-0.48891624"><ele>136.6</ele><time>2022-11-13T13:38:28.0000000+00:00</time></trkpt><trkpt lat="38.98615412" lon="-0.48891105"><ele>136.6</ele><time>2022-11-13T13:38:29.0000000+00:00</time></trkpt><trkpt lat="38.98614323" lon="-0.48890283"><ele>136.8</ele><time>2022-11-13T13:38:30.0000000+00:00</time></trkpt><trkpt lat="38.98613325" lon="-0.48889479"><ele>136.8</ele><time>2022-11-13T13:38:31.0000000+00:00</time></trkpt><trkpt lat="38.9861242" lon="-0.48888565"><ele>136.8</ele><time>2022-11-13T13:38:32.0000000+00:00</time></trkpt><trkpt lat="38.98611657" lon="-0.48887962"><ele>136.8</ele><time>2022-11-13T13:38:33.0000000+00:00</time></trkpt><trkpt lat="38.98610744" lon="-0.48887006"><ele>136.8</ele><time>2022-11-13T13:38:34.0000000+00:00</time></trkpt><trkpt lat="38.9860978" lon="-0.48885858"><ele>136.8</ele><time>2022-11-13T13:38:35.0000000+00:00</time></trkpt><trkpt lat="38.98608858" lon="-0.48884768"><ele>136.8</ele><time>2022-11-13T13:38:36.0000000+00:00</time></trkpt><trkpt lat="38.98608036" lon="-0.48883595"><ele>136.8</ele><time>2022-11-13T13:38:37.0000000+00:00</time></trkpt><trkpt lat="38.98607114" lon="-0.48882539"><ele>136.8</ele><time>2022-11-13T13:38:38.0000000+00:00</time></trkpt><trkpt lat="38.98606184" lon="-0.48881424"><ele>137.0</ele><time>2022-11-13T13:38:39.0000000+00:00</time></trkpt><trkpt lat="38.98605337" lon="-0.48880393"><ele>137.0</ele><time>2022-11-13T13:38:40.0000000+00:00</time></trkpt><trkpt lat="38.98604407" lon="-0.48879487"><ele>137.0</ele><time>2022-11-13T13:38:41.0000000+00:00</time></trkpt><trkpt lat="38.98603502" lon="-0.48878591"><ele>137.0</ele><time>2022-11-13T13:38:42.0000000+00:00</time></trkpt><trkpt lat="38.98602379" lon="-0.48876981"><ele>137.0</ele><time>2022-11-13T13:38:43.0000000+00:00</time></trkpt><trkpt lat="38.9860123" lon="-0.48875582"><ele>137.0</ele><time>2022-11-13T13:38:44.0000000+00:00</time></trkpt><trkpt lat="38.98600057" lon="-0.48874433"><ele>137.0</ele><time>2022-11-13T13:38:45.0000000+00:00</time></trkpt><trkpt lat="38.98599126" lon="-0.4887352"><ele>137.0</ele><time>2022-11-13T13:38:46.0000000+00:00</time></trkpt><trkpt lat="38.98598213" lon="-0.48872539"><ele>137.0</ele><time>2022-11-13T13:38:47.0000000+00:00</time></trkpt><trkpt lat="38.98597425" lon="-0.48871516"><ele>136.8</ele><time>2022-11-13T13:38:48.0000000+00:00</time></trkpt><trkpt lat="38.98596779" lon="-0.48870385"><ele>136.8</ele><time>2022-11-13T13:38:49.0000000+00:00</time></trkpt><trkpt lat="38.98595925" lon="-0.48869387"><ele>136.8</ele><time>2022-11-13T13:38:50.0000000+00:00</time></trkpt><trkpt lat="38.98595162" lon="-0.48868407"><ele>136.8</ele><time>2022-11-13T13:38:51.0000000+00:00</time></trkpt><trkpt lat="38.98594282" lon="-0.48867736"><ele>136.8</ele><time>2022-11-13T13:38:52.0000000+00:00</time></trkpt><trkpt lat="38.98593209" lon="-0.48867074"><ele>136.8</ele><time>2022-11-13T13:38:53.0000000+00:00</time></trkpt><trkpt lat="38.98592295" lon="-0.48866261"><ele>136.8</ele><time>2022-11-13T13:38:54.0000000+00:00</time></trkpt><trkpt lat="38.98591583" lon="-0.48865121"><ele>136.8</ele><time>2022-11-13T13:38:55.0000000+00:00</time></trkpt><trkpt lat="38.98590552" lon="-0.48863822"><ele>136.8</ele><time>2022-11-13T13:38:56.0000000+00:00</time></trkpt><trkpt lat="38.98589487" lon="-0.48862699"><ele>136.8</ele><time>2022-11-13T13:38:57.0000000+00:00</time></trkpt><trkpt lat="38.98588674" lon="-0.48861668"><ele>136.8</ele><time>2022-11-13T13:38:58.0000000+00:00</time></trkpt><trkpt lat="38.98587811" lon="-0.48860553"><ele>136.8</ele><time>2022-11-13T13:38:59.0000000+00:00</time></trkpt><trkpt lat="38.98586855" lon="-0.48859463"><ele>136.8</ele><time>2022-11-13T13:39:00.0000000+00:00</time></trkpt><trkpt lat="38.98585782" lon="-0.48858407"><ele>136.8</ele><time>2022-11-13T13:39:01.0000000+00:00</time></trkpt><trkpt lat="38.98584693" lon="-0.48857334"><ele>136.8</ele><time>2022-11-13T13:39:02.0000000+00:00</time></trkpt><trkpt lat="38.98583771" lon="-0.48856379"><ele>136.8</ele><time>2022-11-13T13:39:03.0000000+00:00</time></trkpt><trkpt lat="38.98583058" lon="-0.48855775"><ele>136.8</ele><time>2022-11-13T13:39:04.0000000+00:00</time></trkpt><trkpt lat="38.98582312" lon="-0.48854996"><ele>136.8</ele><time>2022-11-13T13:39:05.0000000+00:00</time></trkpt><trkpt lat="38.98581633" lon="-0.48854057"><ele>136.8</ele><time>2022-11-13T13:39:06.0000000+00:00</time></trkpt><trkpt lat="38.98580837" lon="-0.48853269"><ele>136.8</ele><time>2022-11-13T13:39:07.0000000+00:00</time></trkpt><trkpt lat="38.98579898" lon="-0.4885264"><ele>136.8</ele><time>2022-11-13T13:39:08.0000000+00:00</time></trkpt><trkpt lat="38.98578775" lon="-0.48851953"><ele>136.8</ele><time>2022-11-13T13:39:09.0000000+00:00</time></trkpt><trkpt lat="38.98577778" lon="-0.48851685"><ele>136.8</ele><time>2022-11-13T13:39:10.0000000+00:00</time></trkpt><trkpt lat="38.98576948" lon="-0.48851148"><ele>136.8</ele><time>2022-11-13T13:39:11.0000000+00:00</time></trkpt><trkpt lat="38.98576001" lon="-0.48850386"><ele>136.8</ele><time>2022-11-13T13:39:12.0000000+00:00</time></trkpt><trkpt lat="38.98574961" lon="-0.48849673"><ele>136.8</ele><time>2022-11-13T13:39:13.0000000+00:00</time></trkpt><trkpt lat="38.9857393" lon="-0.48848885"><ele>136.8</ele><time>2022-11-13T13:39:14.0000000+00:00</time></trkpt><trkpt lat="38.98572916" lon="-0.48847938"><ele>136.8</ele><time>2022-11-13T13:39:15.0000000+00:00</time></trkpt><trkpt lat="38.98572053" lon="-0.48847142"><ele>136.8</ele><time>2022-11-13T13:39:16.0000000+00:00</time></trkpt><trkpt lat="38.98571072" lon="-0.48846153"><ele>136.8</ele><time>2022-11-13T13:39:17.0000000+00:00</time></trkpt><trkpt lat="38.98570226" lon="-0.48845273"><ele>136.8</ele><time>2022-11-13T13:39:18.0000000+00:00</time></trkpt><trkpt lat="38.98569371" lon="-0.48844426"><ele>136.8</ele><time>2022-11-13T13:39:19.0000000+00:00</time></trkpt><trkpt lat="38.98568382" lon="-0.48843831"><ele>136.8</ele><time>2022-11-13T13:39:20.0000000+00:00</time></trkpt><trkpt lat="38.98567502" lon="-0.48843546"><ele>136.8</ele><time>2022-11-13T13:39:21.0000000+00:00</time></trkpt><trkpt lat="38.98566663" lon="-0.48842959"><ele>136.8</ele><time>2022-11-13T13:39:22.0000000+00:00</time></trkpt><trkpt lat="38.98565649" lon="-0.48841928"><ele>136.8</ele><time>2022-11-13T13:39:23.0000000+00:00</time></trkpt><trkpt lat="38.98564568" lon="-0.48841241"><ele>136.8</ele><time>2022-11-13T13:39:24.0000000+00:00</time></trkpt><trkpt lat="38.98563654" lon="-0.4884016"><ele>136.8</ele><time>2022-11-13T13:39:25.0000000+00:00</time></trkpt><trkpt lat="38.98562774" lon="-0.48839103"><ele>136.8</ele><time>2022-11-13T13:39:26.0000000+00:00</time></trkpt><trkpt lat="38.9856171" lon="-0.48838039"><ele>136.8</ele><time>2022-11-13T13:39:27.0000000+00:00</time></trkpt><trkpt lat="38.98560653" lon="-0.48837352"><ele>136.8</ele><time>2022-11-13T13:39:28.0000000+00:00</time></trkpt><trkpt lat="38.98559539" lon="-0.48836539"><ele>136.8</ele><time>2022-11-13T13:39:29.0000000+00:00</time></trkpt><trkpt lat="38.98558541" lon="-0.48835709"><ele>136.8</ele><time>2022-11-13T13:39:30.0000000+00:00</time></trkpt><trkpt lat="38.98557628" lon="-0.48834577"><ele>136.8</ele><time>2022-11-13T13:39:31.0000000+00:00</time></trkpt><trkpt lat="38.98556672" lon="-0.48833974"><ele>136.8</ele><time>2022-11-13T13:39:32.0000000+00:00</time></trkpt><trkpt lat="38.98555675" lon="-0.48833219"><ele>136.8</ele><time>2022-11-13T13:39:33.0000000+00:00</time></trkpt><trkpt lat="38.98554669" lon="-0.48832331"><ele>136.8</ele><time>2022-11-13T13:39:34.0000000+00:00</time></trkpt><trkpt lat="38.98553646" lon="-0.48831333"><ele>136.8</ele><time>2022-11-13T13:39:35.0000000+00:00</time></trkpt><trkpt lat="38.98552833" lon="-0.48830629"><ele>136.8</ele><time>2022-11-13T13:39:36.0000000+00:00</time></trkpt><trkpt lat="38.98551953" lon="-0.48829774"><ele>136.8</ele><time>2022-11-13T13:39:37.0000000+00:00</time></trkpt><trkpt lat="38.98551123" lon="-0.48828668"><ele>136.8</ele><time>2022-11-13T13:39:38.0000000+00:00</time></trkpt><trkpt lat="38.98550319" lon="-0.48827335"><ele>136.8</ele><time>2022-11-13T13:39:39.0000000+00:00</time></trkpt><trkpt lat="38.98549623" lon="-0.48826388"><ele>136.8</ele><time>2022-11-13T13:39:40.0000000+00:00</time></trkpt><trkpt lat="38.9854881" lon="-0.48825449"><ele>136.8</ele><time>2022-11-13T13:39:41.0000000+00:00</time></trkpt><trkpt lat="38.98547905" lon="-0.48824502"><ele>136.8</ele><time>2022-11-13T13:39:42.0000000+00:00</time></trkpt><trkpt lat="38.98546983" lon="-0.48823664"><ele>136.8</ele><time>2022-11-13T13:39:43.0000000+00:00</time></trkpt><trkpt lat="38.98545616" lon="-0.48822608"><ele>136.8</ele><time>2022-11-13T13:39:44.0000000+00:00</time></trkpt><trkpt lat="38.9854482" lon="-0.4882187"><ele>136.8</ele><time>2022-11-13T13:39:45.0000000+00:00</time></trkpt><trkpt lat="38.9854394" lon="-0.48820839"><ele>136.8</ele><time>2022-11-13T13:39:46.0000000+00:00</time></trkpt><trkpt lat="38.98542976" lon="-0.48819741"><ele>136.8</ele><time>2022-11-13T13:39:47.0000000+00:00</time></trkpt><trkpt lat="38.98542389" lon="-0.4881923"><ele>136.8</ele><time>2022-11-13T13:39:48.0000000+00:00</time></trkpt><trkpt lat="38.9854161" lon="-0.48818694"><ele>136.8</ele><time>2022-11-13T13:39:49.0000000+00:00</time></trkpt><trkpt lat="38.98540654" lon="-0.48817956"><ele>136.8</ele><time>2022-11-13T13:39:50.0000000+00:00</time></trkpt><trkpt lat="38.98540042" lon="-0.4881721"><ele>136.8</ele><time>2022-11-13T13:39:51.0000000+00:00</time></trkpt><trkpt lat="38.98539196" lon="-0.48816481"><ele>136.8</ele><time>2022-11-13T13:39:52.0000000+00:00</time></trkpt><trkpt lat="38.9853845" lon="-0.48815341"><ele>136.8</ele><time>2022-11-13T13:39:53.0000000+00:00</time></trkpt><trkpt lat="38.98537679" lon="-0.48814469"><ele>136.8</ele><time>2022-11-13T13:39:54.0000000+00:00</time></trkpt><trkpt lat="38.98537042" lon="-0.48813941"><ele>136.8</ele><time>2022-11-13T13:39:55.0000000+00:00</time></trkpt><trkpt lat="38.98536405" lon="-0.48813053"><ele>136.8</ele><time>2022-11-13T13:39:56.0000000+00:00</time></trkpt><trkpt lat="38.98535642" lon="-0.48812055"><ele>136.8</ele><time>2022-11-13T13:39:57.0000000+00:00</time></trkpt><trkpt lat="38.98534762" lon="-0.48811167"><ele>136.8</ele><time>2022-11-13T13:39:58.0000000+00:00</time></trkpt><trkpt lat="38.98534074" lon="-0.48810479"><ele>136.8</ele><time>2022-11-13T13:39:59.0000000+00:00</time></trkpt><trkpt lat="38.98533312" lon="-0.48809532"><ele>136.8</ele><time>2022-11-13T13:40:00.0000000+00:00</time></trkpt><trkpt lat="38.98532524" lon="-0.48808442"><ele>136.8</ele><time>2022-11-13T13:40:01.0000000+00:00</time></trkpt><trkpt lat="38.98531669" lon="-0.48807378"><ele>136.8</ele><time>2022-11-13T13:40:02.0000000+00:00</time></trkpt><trkpt lat="38.98530965" lon="-0.48806255"><ele>136.8</ele><time>2022-11-13T13:40:03.0000000+00:00</time></trkpt><trkpt lat="38.98530227" lon="-0.48805492"><ele>136.8</ele><time>2022-11-13T13:40:04.0000000+00:00</time></trkpt><trkpt lat="38.9852949" lon="-0.48804805"><ele>136.8</ele><time>2022-11-13T13:40:05.0000000+00:00</time></trkpt><trkpt lat="38.98528609" lon="-0.48804076"><ele>136.8</ele><time>2022-11-13T13:40:06.0000000+00:00</time></trkpt><trkpt lat="38.98527637" lon="-0.48803422"><ele>136.8</ele><time>2022-11-13T13:40:07.0000000+00:00</time></trkpt><trkpt lat="38.98526765" lon="-0.48802793"><ele>137.0</ele><time>2022-11-13T13:40:08.0000000+00:00</time></trkpt><trkpt lat="38.98525902" lon="-0.48801879"><ele>137.0</ele><time>2022-11-13T13:40:09.0000000+00:00</time></trkpt><trkpt lat="38.98525056" lon="-0.48800807"><ele>137.0</ele><time>2022-11-13T13:40:10.0000000+00:00</time></trkpt><trkpt lat="38.98524184" lon="-0.4879991"><ele>137.0</ele><time>2022-11-13T13:40:11.0000000+00:00</time></trkpt><trkpt lat="38.98523119" lon="-0.48798678"><ele>137.0</ele><time>2022-11-13T13:40:12.0000000+00:00</time></trkpt><trkpt lat="38.98522139" lon="-0.48797554"><ele>137.0</ele><time>2022-11-13T13:40:13.0000000+00:00</time></trkpt><trkpt lat="38.98521275" lon="-0.48796507"><ele>137.0</ele><time>2022-11-13T13:40:14.0000000+00:00</time></trkpt><trkpt lat="38.98520647" lon="-0.48795618"><ele>137.0</ele><time>2022-11-13T13:40:15.0000000+00:00</time></trkpt><trkpt lat="38.98519817" lon="-0.48794612"><ele>137.0</ele><time>2022-11-13T13:40:16.0000000+00:00</time></trkpt><trkpt lat="38.98518819" lon="-0.48793665"><ele>137.0</ele><time>2022-11-13T13:40:17.0000000+00:00</time></trkpt><trkpt lat="38.9851783" lon="-0.48792995"><ele>137.0</ele><time>2022-11-13T13:40:18.0000000+00:00</time></trkpt><trkpt lat="38.98517034" lon="-0.48791729"><ele>137.0</ele><time>2022-11-13T13:40:19.0000000+00:00</time></trkpt><trkpt lat="38.9851607" lon="-0.48790723"><ele>137.0</ele><time>2022-11-13T13:40:20.0000000+00:00</time></trkpt><trkpt lat="38.98515391" lon="-0.4878991"><ele>137.0</ele><time>2022-11-13T13:40:21.0000000+00:00</time></trkpt><trkpt lat="38.98514754" lon="-0.48789089"><ele>137.0</ele><time>2022-11-13T13:40:22.0000000+00:00</time></trkpt><trkpt lat="38.98514008" lon="-0.48788535"><ele>137.0</ele><time>2022-11-13T13:40:23.0000000+00:00</time></trkpt><trkpt lat="38.98512952" lon="-0.48787613"><ele>137.0</ele><time>2022-11-13T13:40:24.0000000+00:00</time></trkpt><trkpt lat="38.98512047" lon="-0.48786775"><ele>137.0</ele><time>2022-11-13T13:40:25.0000000+00:00</time></trkpt><trkpt lat="38.98510999" lon="-0.4878587"><ele>137.0</ele><time>2022-11-13T13:40:26.0000000+00:00</time></trkpt><trkpt lat="38.98510094" lon="-0.48785216"><ele>137.0</ele><time>2022-11-13T13:40:27.0000000+00:00</time></trkpt><trkpt lat="38.98509205" lon="-0.4878442"><ele>137.2</ele><time>2022-11-13T13:40:28.0000000+00:00</time></trkpt><trkpt lat="38.98508451" lon="-0.48783607"><ele>137.0</ele><time>2022-11-13T13:40:29.0000000+00:00</time></trkpt><trkpt lat="38.98507504" lon="-0.48783029"><ele>137.0</ele><time>2022-11-13T13:40:30.0000000+00:00</time></trkpt><trkpt lat="38.98506615" lon="-0.48782316"><ele>137.2</ele><time>2022-11-13T13:40:31.0000000+00:00</time></trkpt><trkpt lat="38.98505718" lon="-0.48781587"><ele>137.2</ele><time>2022-11-13T13:40:32.0000000+00:00</time></trkpt><trkpt lat="38.98504738" lon="-0.48781126"><ele>137.2</ele><time>2022-11-13T13:40:33.0000000+00:00</time></trkpt><trkpt lat="38.98503841" lon="-0.48780615"><ele>137.2</ele><time>2022-11-13T13:40:34.0000000+00:00</time></trkpt><trkpt lat="38.98502852" lon="-0.48779659"><ele>137.2</ele><time>2022-11-13T13:40:35.0000000+00:00</time></trkpt><trkpt lat="38.98502056" lon="-0.48778846"><ele>137.2</ele><time>2022-11-13T13:40:36.0000000+00:00</time></trkpt><trkpt lat="38.98500991" lon="-0.48778142"><ele>137.2</ele><time>2022-11-13T13:40:37.0000000+00:00</time></trkpt><trkpt lat="38.98500027" lon="-0.48777346"><ele>137.2</ele><time>2022-11-13T13:40:38.0000000+00:00</time></trkpt><trkpt lat="38.98498904" lon="-0.48776298"><ele>137.2</ele><time>2022-11-13T13:40:39.0000000+00:00</time></trkpt><trkpt lat="38.98497781" lon="-0.48775183"><ele>137.2</ele><time>2022-11-13T13:40:40.0000000+00:00</time></trkpt><trkpt lat="38.98496599" lon="-0.48774269"><ele>137.2</ele><time>2022-11-13T13:40:41.0000000+00:00</time></trkpt><trkpt lat="38.98495417" lon="-0.48773582"><ele>137.2</ele><time>2022-11-13T13:40:42.0000000+00:00</time></trkpt><trkpt lat="38.98494403" lon="-0.48772979"><ele>137.2</ele><time>2022-11-13T13:40:43.0000000+00:00</time></trkpt><trkpt lat="38.98493439" lon="-0.48772358"><ele>137.2</ele><time>2022-11-13T13:40:44.0000000+00:00</time></trkpt><trkpt lat="38.98492299" lon="-0.48772057"><ele>137.2</ele><time>2022-11-13T13:40:45.0000000+00:00</time></trkpt><trkpt lat="38.98491302" lon="-0.48771638"><ele>137.2</ele><time>2022-11-13T13:40:46.0000000+00:00</time></trkpt><trkpt lat="38.98490463" lon="-0.48771311"><ele>137.2</ele><time>2022-11-13T13:40:47.0000000+00:00</time></trkpt><trkpt lat="38.98489726" lon="-0.48770648"><ele>137.2</ele><time>2022-11-13T13:40:48.0000000+00:00</time></trkpt><trkpt lat="38.98488544" lon="-0.48769601"><ele>137.2</ele><time>2022-11-13T13:40:49.0000000+00:00</time></trkpt><trkpt lat="38.98487547" lon="-0.48768771"><ele>137.2</ele><time>2022-11-13T13:40:50.0000000+00:00</time></trkpt><trkpt lat="38.98486499" lon="-0.48767807"><ele>137.2</ele><time>2022-11-13T13:40:51.0000000+00:00</time></trkpt><trkpt lat="38.98485476" lon="-0.48766851"><ele>137.2</ele><time>2022-11-13T13:40:52.0000000+00:00</time></trkpt><trkpt lat="38.98484722" lon="-0.48766466"><ele>137.2</ele><time>2022-11-13T13:40:53.0000000+00:00</time></trkpt><trkpt lat="38.98483758" lon="-0.48765787"><ele>137.2</ele><time>2022-11-13T13:40:54.0000000+00:00</time></trkpt><trkpt lat="38.98482735" lon="-0.48765611"><ele>137.2</ele><time>2022-11-13T13:40:55.0000000+00:00</time></trkpt><trkpt lat="38.98481445" lon="-0.48765033"><ele>137.2</ele><time>2022-11-13T13:40:56.0000000+00:00</time></trkpt><trkpt lat="38.98480036" lon="-0.48764278"><ele>137.2</ele><time>2022-11-13T13:40:57.0000000+00:00</time></trkpt><trkpt lat="38.98478863" lon="-0.48763432"><ele>137.2</ele><time>2022-11-13T13:40:58.0000000+00:00</time></trkpt><trkpt lat="38.98477824" lon="-0.48762585"><ele>137.4</ele><time>2022-11-13T13:40:59.0000000+00:00</time></trkpt><trkpt lat="38.98477178" lon="-0.48761864"><ele>137.6</ele><time>2022-11-13T13:41:00.0000000+00:00</time></trkpt><trkpt lat="38.98476491" lon="-0.48761311"><ele>137.8</ele><time>2022-11-13T13:41:01.0000000+00:00</time></trkpt><trkpt lat="38.98475057" lon="-0.48760498"><ele>137.8</ele><time>2022-11-13T13:41:02.0000000+00:00</time></trkpt><trkpt lat="38.98473758" lon="-0.48759752"><ele>137.8</ele><time>2022-11-13T13:41:03.0000000+00:00</time></trkpt><trkpt lat="38.98472694" lon="-0.48759048"><ele>138.0</ele><time>2022-11-13T13:41:04.0000000+00:00</time></trkpt><trkpt lat="38.98471864" lon="-0.48757933"><ele>138.0</ele><time>2022-11-13T13:41:05.0000000+00:00</time></trkpt><trkpt lat="38.98470833" lon="-0.48756978"><ele>137.8</ele><time>2022-11-13T13:41:06.0000000+00:00</time></trkpt><trkpt lat="38.9846997" lon="-0.48756114"><ele>137.6</ele><time>2022-11-13T13:41:07.0000000+00:00</time></trkpt><trkpt lat="38.98469308" lon="-0.48754983"><ele>137.4</ele><time>2022-11-13T13:41:08.0000000+00:00</time></trkpt><trkpt lat="38.98468821" lon="-0.48754077"><ele>137.4</ele><time>2022-11-13T13:41:09.0000000+00:00</time></trkpt><trkpt lat="38.98468134" lon="-0.4875303"><ele>137.4</ele><time>2022-11-13T13:41:10.0000000+00:00</time></trkpt><trkpt lat="38.98467212" lon="-0.48751839"><ele>137.4</ele><time>2022-11-13T13:41:11.0000000+00:00</time></trkpt><trkpt lat="38.98466541" lon="-0.48750632"><ele>137.4</ele><time>2022-11-13T13:41:12.0000000+00:00</time></trkpt><trkpt lat="38.98465863" lon="-0.48749736"><ele>137.2</ele><time>2022-11-13T13:41:13.0000000+00:00</time></trkpt><trkpt lat="38.98465284" lon="-0.48749082"><ele>137.2</ele><time>2022-11-13T13:41:14.0000000+00:00</time></trkpt><trkpt lat="38.98464647" lon="-0.48747783"><ele>137.2</ele><time>2022-11-13T13:41:15.0000000+00:00</time></trkpt><trkpt lat="38.98464186" lon="-0.48746634"><ele>137.2</ele><time>2022-11-13T13:41:16.0000000+00:00</time></trkpt><trkpt lat="38.9846375" lon="-0.48745033"><ele>137.2</ele><time>2022-11-13T13:41:17.0000000+00:00</time></trkpt><trkpt lat="38.98463474" lon="-0.48743634"><ele>137.2</ele><time>2022-11-13T13:41:18.0000000+00:00</time></trkpt><trkpt lat="38.98463507" lon="-0.48742116"><ele>137.2</ele><time>2022-11-13T13:41:19.0000000+00:00</time></trkpt><trkpt lat="38.98463256" lon="-0.48740541"><ele>137.2</ele><time>2022-11-13T13:41:20.0000000+00:00</time></trkpt><trkpt lat="38.98462828" lon="-0.4873878"><ele>137.2</ele><time>2022-11-13T13:41:21.0000000+00:00</time></trkpt><trkpt lat="38.98462594" lon="-0.48737322"><ele>137.2</ele><time>2022-11-13T13:41:22.0000000+00:00</time></trkpt><trkpt lat="38.98462242" lon="-0.48736006"><ele>137.4</ele><time>2022-11-13T13:41:23.0000000+00:00</time></trkpt><trkpt lat="38.98461806" lon="-0.48734405"><ele>137.4</ele><time>2022-11-13T13:41:24.0000000+00:00</time></trkpt><trkpt lat="38.98461395" lon="-0.48732905"><ele>137.4</ele><time>2022-11-13T13:41:25.0000000+00:00</time></trkpt><trkpt lat="38.98461328" lon="-0.48731547"><ele>137.4</ele><time>2022-11-13T13:41:26.0000000+00:00</time></trkpt><trkpt lat="38.98461194" lon="-0.48729837"><ele>137.6</ele><time>2022-11-13T13:41:27.0000000+00:00</time></trkpt><trkpt lat="38.98461403" lon="-0.48728203"><ele>137.6</ele><time>2022-11-13T13:41:28.0000000+00:00</time></trkpt><trkpt lat="38.98461621" lon="-0.48726518"><ele>137.6</ele><time>2022-11-13T13:41:29.0000000+00:00</time></trkpt><trkpt lat="38.9846189" lon="-0.48725135"><ele>137.8</ele><time>2022-11-13T13:41:30.0000000+00:00</time></trkpt><trkpt lat="38.98461747" lon="-0.48723525"><ele>137.8</ele><time>2022-11-13T13:41:31.0000000+00:00</time></trkpt><trkpt lat="38.98461722" lon="-0.48722067"><ele>138.0</ele><time>2022-11-13T13:41:32.0000000+00:00</time></trkpt><trkpt lat="38.98461429" lon="-0.48720659"><ele>138.0</ele><time>2022-11-13T13:41:33.0000000+00:00</time></trkpt><trkpt lat="38.98461194" lon="-0.48718538"><ele>138.2</ele><time>2022-11-13T13:41:34.0000000+00:00</time></trkpt><trkpt lat="38.98461001" lon="-0.48717289"><ele>138.4</ele><time>2022-11-13T13:41:35.0000000+00:00</time></trkpt><trkpt lat="38.98460859" lon="-0.48716376"><ele>138.6</ele><time>2022-11-13T13:41:36.0000000+00:00</time></trkpt><trkpt lat="38.9846018" lon="-0.48715454"><ele>138.6</ele><time>2022-11-13T13:41:37.0000000+00:00</time></trkpt><trkpt lat="38.98459761" lon="-0.48713886"><ele>138.8</ele><time>2022-11-13T13:41:38.0000000+00:00</time></trkpt><trkpt lat="38.984593" lon="-0.48712252"><ele>138.8</ele><time>2022-11-13T13:41:39.0000000+00:00</time></trkpt><trkpt lat="38.98458587" lon="-0.48710886"><ele>138.8</ele><time>2022-11-13T13:41:40.0000000+00:00</time></trkpt><trkpt lat="38.98457875" lon="-0.48709779"><ele>138.8</ele><time>2022-11-13T13:41:41.0000000+00:00</time></trkpt><trkpt lat="38.98457623" lon="-0.48707843"><ele>138.8</ele><time>2022-11-13T13:41:42.0000000+00:00</time></trkpt><trkpt lat="38.98457145" lon="-0.48706527"><ele>139.0</ele><time>2022-11-13T13:41:43.0000000+00:00</time></trkpt><trkpt lat="38.98456567" lon="-0.48705136"><ele>139.0</ele><time>2022-11-13T13:41:44.0000000+00:00</time></trkpt><trkpt lat="38.98456064" lon="-0.48703208"><ele>139.0</ele><time>2022-11-13T13:41:45.0000000+00:00</time></trkpt><trkpt lat="38.98456031" lon="-0.48701917"><ele>139.2</ele><time>2022-11-13T13:41:46.0000000+00:00</time></trkpt><trkpt lat="38.98456181" lon="-0.48700182"><ele>139.2</ele><time>2022-11-13T13:41:47.0000000+00:00</time></trkpt><trkpt lat="38.98456114" lon="-0.4869864"><ele>139.4</ele><time>2022-11-13T13:41:48.0000000+00:00</time></trkpt><trkpt lat="38.98455804" lon="-0.48697223"><ele>139.6</ele><time>2022-11-13T13:41:49.0000000+00:00</time></trkpt><trkpt lat="38.98455285" lon="-0.48696142"><ele>139.6</ele><time>2022-11-13T13:41:50.0000000+00:00</time></trkpt><trkpt lat="38.98454731" lon="-0.48694859"><ele>139.6</ele><time>2022-11-13T13:41:51.0000000+00:00</time></trkpt><trkpt lat="38.98454547" lon="-0.48694004"><ele>139.8</ele><time>2022-11-13T13:41:52.0000000+00:00</time></trkpt><trkpt lat="38.98452971" lon="-0.48693443"><ele>139.8</ele><time>2022-11-13T13:41:53.0000000+00:00</time></trkpt><trkpt lat="38.98452284" lon="-0.48693267"><ele>139.8</ele><time>2022-11-13T13:41:54.0000000+00:00</time></trkpt><trkpt lat="38.98451798" lon="-0.48692864"><ele>139.8</ele><time>2022-11-13T13:41:55.0000000+00:00</time></trkpt><trkpt lat="38.98453164" lon="-0.48692538"><ele>139.8</ele><time>2022-11-13T13:41:56.0000000+00:00</time></trkpt><trkpt lat="38.98453214" lon="-0.48692269"><ele>139.8</ele><time>2022-11-13T13:41:57.0000000+00:00</time></trkpt><trkpt lat="38.98453231" lon="-0.48691867"><ele>140.0</ele><time>2022-11-13T13:41:58.0000000+00:00</time></trkpt><trkpt lat="38.98453633" lon="-0.48692638"><ele>140.0</ele><time>2022-11-13T13:41:59.0000000+00:00</time></trkpt><trkpt lat="38.98453742" lon="-0.48692194"><ele>140.0</ele><time>2022-11-13T13:42:00.0000000+00:00</time></trkpt><trkpt lat="38.98453826" lon="-0.48691699"><ele>140.0</ele><time>2022-11-13T13:42:01.0000000+00:00</time></trkpt><trkpt lat="38.98453684" lon="-0.48691624"><ele>140.0</ele><time>2022-11-13T13:42:02.0000000+00:00</time></trkpt><trkpt lat="38.98453466" lon="-0.4869159"><ele>140.0</ele><time>2022-11-13T13:42:03.0000000+00:00</time></trkpt><trkpt lat="38.98453491" lon="-0.4869159"><ele>140.0</ele><time>2022-11-13T13:42:04.0000000+00:00</time></trkpt><trkpt lat="38.98453508" lon="-0.48691515"><ele>140.0</ele><time>2022-11-13T13:42:05.0000000+00:00</time></trkpt><trkpt lat="38.98453508" lon="-0.48691339"><ele>140.0</ele><time>2022-11-13T13:42:06.0000000+00:00</time></trkpt><trkpt lat="38.98453499" lon="-0.48690517"><ele>140.0</ele><time>2022-11-13T13:42:07.0000000+00:00</time></trkpt><trkpt lat="38.98452787" lon="-0.48690249"><ele>140.0</ele><time>2022-11-13T13:42:08.0000000+00:00</time></trkpt><trkpt lat="38.98451898" lon="-0.48690207"><ele>140.0</ele><time>2022-11-13T13:42:09.0000000+00:00</time></trkpt><trkpt lat="38.98450784" lon="-0.4869004"><ele>140.0</ele><time>2022-11-13T13:42:10.0000000+00:00</time></trkpt><trkpt lat="38.98450063" lon="-0.48689922"><ele>140.0</ele><time>2022-11-13T13:42:11.0000000+00:00</time></trkpt><trkpt lat="38.9844909" lon="-0.48690006"><ele>140.0</ele><time>2022-11-13T13:42:12.0000000+00:00</time></trkpt><trkpt lat="38.98448227" lon="-0.48689461"><ele>140.0</ele><time>2022-11-13T13:42:13.0000000+00:00</time></trkpt><trkpt lat="38.98447246" lon="-0.48688891"><ele>140.0</ele><time>2022-11-13T13:42:14.0000000+00:00</time></trkpt><trkpt lat="38.98446232" lon="-0.48688296"><ele>140.2</ele><time>2022-11-13T13:42:15.0000000+00:00</time></trkpt><trkpt lat="38.98445327" lon="-0.48688011"><ele>140.2</ele><time>2022-11-13T13:42:16.0000000+00:00</time></trkpt><trkpt lat="38.98444288" lon="-0.48687751"><ele>140.4</ele><time>2022-11-13T13:42:17.0000000+00:00</time></trkpt><trkpt lat="38.98443173" lon="-0.48687316"><ele>140.4</ele><time>2022-11-13T13:42:18.0000000+00:00</time></trkpt><trkpt lat="38.98442058" lon="-0.48686897"><ele>140.4</ele><time>2022-11-13T13:42:19.0000000+00:00</time></trkpt><trkpt lat="38.98441237" lon="-0.48686477"><ele>140.6</ele><time>2022-11-13T13:42:20.0000000+00:00</time></trkpt><trkpt lat="38.98440599" lon="-0.48686016"><ele>140.6</ele><time>2022-11-13T13:42:21.0000000+00:00</time></trkpt><trkpt lat="38.98440373" lon="-0.48685581"><ele>140.6</ele><time>2022-11-13T13:42:22.0000000+00:00</time></trkpt><trkpt lat="38.98440055" lon="-0.48685304"><ele>140.8</ele><time>2022-11-13T13:42:23.0000000+00:00</time></trkpt><trkpt lat="38.98439384" lon="-0.48685061"><ele>140.8</ele><time>2022-11-13T13:42:24.0000000+00:00</time></trkpt><trkpt lat="38.98438219" lon="-0.48684483"><ele>140.8</ele><time>2022-11-13T13:42:25.0000000+00:00</time></trkpt><trkpt lat="38.98437557" lon="-0.4868325"><ele>141.0</ele><time>2022-11-13T13:42:26.0000000+00:00</time></trkpt><trkpt lat="38.98437364" lon="-0.4868227"><ele>141.0</ele><time>2022-11-13T13:42:27.0000000+00:00</time></trkpt><trkpt lat="38.98436794" lon="-0.48681079"><ele>141.0</ele><time>2022-11-13T13:42:28.0000000+00:00</time></trkpt><trkpt lat="38.98436316" lon="-0.48680124"><ele>141.2</ele><time>2022-11-13T13:42:29.0000000+00:00</time></trkpt><trkpt lat="38.98435772" lon="-0.48678909"><ele>141.2</ele><time>2022-11-13T13:42:30.0000000+00:00</time></trkpt><trkpt lat="38.98435017" lon="-0.48677819"><ele>141.2</ele><time>2022-11-13T13:42:31.0000000+00:00</time></trkpt><trkpt lat="38.98434238" lon="-0.48676704"><ele>141.2</ele><time>2022-11-13T13:42:32.0000000+00:00</time></trkpt><trkpt lat="38.98433349" lon="-0.4867507"><ele>141.2</ele><time>2022-11-13T13:42:33.0000000+00:00</time></trkpt><trkpt lat="38.98432779" lon="-0.48673569"><ele>141.2</ele><time>2022-11-13T13:42:34.0000000+00:00</time></trkpt><trkpt lat="38.98431748" lon="-0.48672404"><ele>141.2</ele><time>2022-11-13T13:42:35.0000000+00:00</time></trkpt><trkpt lat="38.98430793" lon="-0.48671063"><ele>141.2</ele><time>2022-11-13T13:42:36.0000000+00:00</time></trkpt><trkpt lat="38.98429703" lon="-0.48669697"><ele>141.2</ele><time>2022-11-13T13:42:37.0000000+00:00</time></trkpt><trkpt lat="38.98429183" lon="-0.48668473"><ele>141.2</ele><time>2022-11-13T13:42:38.0000000+00:00</time></trkpt><trkpt lat="38.98429016" lon="-0.48667962"><ele>141.2</ele><time>2022-11-13T13:42:39.0000000+00:00</time></trkpt><trkpt lat="38.98428647" lon="-0.48667057"><ele>141.2</ele><time>2022-11-13T13:42:40.0000000+00:00</time></trkpt><trkpt lat="38.98428714" lon="-0.48666881"><ele>141.2</ele><time>2022-11-13T13:42:41.0000000+00:00</time></trkpt><trkpt lat="38.98428354" lon="-0.48665472"><ele>141.0</ele><time>2022-11-13T13:42:42.0000000+00:00</time></trkpt><trkpt lat="38.98427708" lon="-0.48663821"><ele>141.0</ele><time>2022-11-13T13:42:43.0000000+00:00</time></trkpt><trkpt lat="38.98426912" lon="-0.48662279"><ele>141.0</ele><time>2022-11-13T13:42:44.0000000+00:00</time></trkpt><trkpt lat="38.9842625" lon="-0.48660921"><ele>141.0</ele><time>2022-11-13T13:42:45.0000000+00:00</time></trkpt><trkpt lat="38.98425152" lon="-0.48659152"><ele>141.0</ele><time>2022-11-13T13:42:46.0000000+00:00</time></trkpt><trkpt lat="38.98424381" lon="-0.48658038"><ele>141.0</ele><time>2022-11-13T13:42:47.0000000+00:00</time></trkpt><trkpt lat="38.98423609" lon="-0.4865735"><ele>141.0</ele><time>2022-11-13T13:42:48.0000000+00:00</time></trkpt><trkpt lat="38.98422721" lon="-0.48655967"><ele>141.0</ele><time>2022-11-13T13:42:49.0000000+00:00</time></trkpt><trkpt lat="38.98422008" lon="-0.48654869"><ele>141.0</ele><time>2022-11-13T13:42:50.0000000+00:00</time></trkpt><trkpt lat="38.98421237" lon="-0.48653855"><ele>141.0</ele><time>2022-11-13T13:42:51.0000000+00:00</time></trkpt><trkpt lat="38.98420651" lon="-0.48652363"><ele>141.0</ele><time>2022-11-13T13:42:52.0000000+00:00</time></trkpt><trkpt lat="38.98420005" lon="-0.48650536"><ele>141.0</ele><time>2022-11-13T13:42:53.0000000+00:00</time></trkpt><trkpt lat="38.98419427" lon="-0.48649211"><ele>141.0</ele><time>2022-11-13T13:42:54.0000000+00:00</time></trkpt><trkpt lat="38.98419008" lon="-0.4864803"><ele>141.0</ele><time>2022-11-13T13:42:55.0000000+00:00</time></trkpt><trkpt lat="38.98418505" lon="-0.48646756"><ele>141.0</ele><time>2022-11-13T13:42:56.0000000+00:00</time></trkpt><trkpt lat="38.98417734" lon="-0.48645699"><ele>141.0</ele><time>2022-11-13T13:42:57.0000000+00:00</time></trkpt><trkpt lat="38.98417139" lon="-0.48644803"><ele>141.0</ele><time>2022-11-13T13:42:58.0000000+00:00</time></trkpt><trkpt lat="38.98416485" lon="-0.4864357"><ele>140.8</ele><time>2022-11-13T13:42:59.0000000+00:00</time></trkpt><trkpt lat="38.98415806" lon="-0.48642288"><ele>140.8</ele><time>2022-11-13T13:43:00.0000000+00:00</time></trkpt><trkpt lat="38.98415295" lon="-0.48640545"><ele>140.8</ele><time>2022-11-13T13:43:01.0000000+00:00</time></trkpt><trkpt lat="38.98414565" lon="-0.48639187"><ele>140.8</ele><time>2022-11-13T13:43:02.0000000+00:00</time></trkpt><trkpt lat="38.98413803" lon="-0.48638072"><ele>141.0</ele><time>2022-11-13T13:43:03.0000000+00:00</time></trkpt><trkpt lat="38.98413015" lon="-0.48637007"><ele>140.8</ele><time>2022-11-13T13:43:04.0000000+00:00</time></trkpt><trkpt lat="38.98412126" lon="-0.48635826"><ele>141.0</ele><time>2022-11-13T13:43:05.0000000+00:00</time></trkpt><trkpt lat="38.98411481" lon="-0.48634116"><ele>141.0</ele><time>2022-11-13T13:43:06.0000000+00:00</time></trkpt><trkpt lat="38.98411045" lon="-0.48632816"><ele>141.0</ele><time>2022-11-13T13:43:07.0000000+00:00</time></trkpt><trkpt lat="38.98410584" lon="-0.48631936"><ele>141.0</ele><time>2022-11-13T13:43:08.0000000+00:00</time></trkpt><trkpt lat="38.98410182" lon="-0.48630939"><ele>141.0</ele><time>2022-11-13T13:43:09.0000000+00:00</time></trkpt><trkpt lat="38.98409754" lon="-0.48630294"><ele>141.0</ele><time>2022-11-13T13:43:10.0000000+00:00</time></trkpt><trkpt lat="38.98409268" lon="-0.48629346"><ele>141.0</ele><time>2022-11-13T13:43:11.0000000+00:00</time></trkpt><trkpt lat="38.98408463" lon="-0.48628449"><ele>141.0</ele><time>2022-11-13T13:43:12.0000000+00:00</time></trkpt><trkpt lat="38.98407759" lon="-0.48627134"><ele>141.0</ele><time>2022-11-13T13:43:13.0000000+00:00</time></trkpt><trkpt lat="38.98407072" lon="-0.48625113"><ele>141.0</ele><time>2022-11-13T13:43:14.0000000+00:00</time></trkpt><trkpt lat="38.9840651" lon="-0.48623915"><ele>141.0</ele><time>2022-11-13T13:43:15.0000000+00:00</time></trkpt><trkpt lat="38.98406284" lon="-0.48622825"><ele>141.0</ele><time>2022-11-13T13:43:16.0000000+00:00</time></trkpt><trkpt lat="38.98405764" lon="-0.48621501"><ele>141.0</ele><time>2022-11-13T13:43:17.0000000+00:00</time></trkpt><trkpt lat="38.98405094" lon="-0.48620529"><ele>141.0</ele><time>2022-11-13T13:43:18.0000000+00:00</time></trkpt><trkpt lat="38.98404758" lon="-0.4861964"><ele>141.0</ele><time>2022-11-13T13:43:19.0000000+00:00</time></trkpt><trkpt lat="38.98404339" lon="-0.48618316"><ele>141.0</ele><time>2022-11-13T13:43:20.0000000+00:00</time></trkpt><trkpt lat="38.98403753" lon="-0.48616614"><ele>141.0</ele><time>2022-11-13T13:43:21.0000000+00:00</time></trkpt><trkpt lat="38.98402822" lon="-0.48615147"><ele>141.0</ele><time>2022-11-13T13:43:22.0000000+00:00</time></trkpt><trkpt lat="38.98401716" lon="-0.4861353"><ele>141.0</ele><time>2022-11-13T13:43:23.0000000+00:00</time></trkpt><trkpt lat="38.98401012" lon="-0.48612155"><ele>141.0</ele><time>2022-11-13T13:43:24.0000000+00:00</time></trkpt><trkpt lat="38.98399939" lon="-0.486112"><ele>141.0</ele><time>2022-11-13T13:43:25.0000000+00:00</time></trkpt><trkpt lat="38.98399377" lon="-0.48610747"><ele>141.2</ele><time>2022-11-13T13:43:26.0000000+00:00</time></trkpt><trkpt lat="38.98398715" lon="-0.48609682"><ele>141.2</ele><time>2022-11-13T13:43:27.0000000+00:00</time></trkpt><trkpt lat="38.98397877" lon="-0.4860814"><ele>141.2</ele><time>2022-11-13T13:43:28.0000000+00:00</time></trkpt><trkpt lat="38.98396695" lon="-0.48607059"><ele>141.2</ele><time>2022-11-13T13:43:29.0000000+00:00</time></trkpt><trkpt lat="38.98395622" lon="-0.48606564"><ele>141.2</ele><time>2022-11-13T13:43:30.0000000+00:00</time></trkpt><trkpt lat="38.98394851" lon="-0.48605408"><ele>141.2</ele><time>2022-11-13T13:43:31.0000000+00:00</time></trkpt><trkpt lat="38.98394155" lon="-0.48604377"><ele>141.2</ele><time>2022-11-13T13:43:32.0000000+00:00</time></trkpt><trkpt lat="38.98393208" lon="-0.48603522"><ele>141.2</ele><time>2022-11-13T13:43:33.0000000+00:00</time></trkpt><trkpt lat="38.98392169" lon="-0.48602348"><ele>141.2</ele><time>2022-11-13T13:43:34.0000000+00:00</time></trkpt><trkpt lat="38.98391364" lon="-0.48601569"><ele>141.2</ele><time>2022-11-13T13:43:35.0000000+00:00</time></trkpt><trkpt lat="38.98390568" lon="-0.48600538"><ele>141.4</ele><time>2022-11-13T13:43:36.0000000+00:00</time></trkpt><trkpt lat="38.98389696" lon="-0.48598954"><ele>141.4</ele><time>2022-11-13T13:43:37.0000000+00:00</time></trkpt><trkpt lat="38.98388724" lon="-0.48598032"><ele>141.4</ele><time>2022-11-13T13:43:38.0000000+00:00</time></trkpt><trkpt lat="38.98388045" lon="-0.48597311"><ele>141.4</ele><time>2022-11-13T13:43:39.0000000+00:00</time></trkpt><trkpt lat="38.98387433" lon="-0.48596598"><ele>141.4</ele><time>2022-11-13T13:43:40.0000000+00:00</time></trkpt><trkpt lat="38.98386989" lon="-0.48595735"><ele>141.4</ele><time>2022-11-13T13:43:41.0000000+00:00</time></trkpt><trkpt lat="38.98386209" lon="-0.48594603"><ele>141.4</ele><time>2022-11-13T13:43:42.0000000+00:00</time></trkpt><trkpt lat="38.98385321" lon="-0.4859348"><ele>141.4</ele><time>2022-11-13T13:43:43.0000000+00:00</time></trkpt><trkpt lat="38.98384701" lon="-0.48592592"><ele>141.6</ele><time>2022-11-13T13:43:44.0000000+00:00</time></trkpt><trkpt lat="38.98384256" lon="-0.48591745"><ele>141.6</ele><time>2022-11-13T13:43:45.0000000+00:00</time></trkpt><trkpt lat="38.98383854" lon="-0.48591008"><ele>141.6</ele><time>2022-11-13T13:43:46.0000000+00:00</time></trkpt><trkpt lat="38.98383125" lon="-0.48590521"><ele>141.6</ele><time>2022-11-13T13:43:47.0000000+00:00</time></trkpt><trkpt lat="38.98382546" lon="-0.48589725"><ele>141.6</ele><time>2022-11-13T13:43:48.0000000+00:00</time></trkpt><trkpt lat="38.98381851" lon="-0.48589189"><ele>141.6</ele><time>2022-11-13T13:43:49.0000000+00:00</time></trkpt><trkpt lat="38.98380862" lon="-0.4858856"><ele>141.8</ele><time>2022-11-13T13:43:50.0000000+00:00</time></trkpt><trkpt lat="38.98379806" lon="-0.48587839"><ele>141.8</ele><time>2022-11-13T13:43:51.0000000+00:00</time></trkpt><trkpt lat="38.98378749" lon="-0.48586984"><ele>141.8</ele><time>2022-11-13T13:43:52.0000000+00:00</time></trkpt><trkpt lat="38.98377492" lon="-0.48586205"><ele>141.8</ele><time>2022-11-13T13:43:53.0000000+00:00</time></trkpt><trkpt lat="38.98376059" lon="-0.48585123"><ele>141.8</ele><time>2022-11-13T13:43:54.0000000+00:00</time></trkpt><trkpt lat="38.9837455" lon="-0.48584051"><ele>142.0</ele><time>2022-11-13T13:43:55.0000000+00:00</time></trkpt><trkpt lat="38.98373108" lon="-0.48583506"><ele>142.0</ele><time>2022-11-13T13:43:56.0000000+00:00</time></trkpt><trkpt lat="38.98372002" lon="-0.48582844"><ele>142.0</ele><time>2022-11-13T13:43:57.0000000+00:00</time></trkpt><trkpt lat="38.98371348" lon="-0.4858193"><ele>142.0</ele><time>2022-11-13T13:43:58.0000000+00:00</time></trkpt><trkpt lat="38.98371273" lon="-0.48581687"><ele>142.0</ele><time>2022-11-13T13:43:59.0000000+00:00</time></trkpt><trkpt lat="38.98370384" lon="-0.48579759"><ele>142.0</ele><time>2022-11-13T13:44:00.0000000+00:00</time></trkpt><trkpt lat="38.98369538" lon="-0.48579223"><ele>142.0</ele><time>2022-11-13T13:44:01.0000000+00:00</time></trkpt><trkpt lat="38.98369068" lon="-0.48578611"><ele>142.0</ele><time>2022-11-13T13:44:02.0000000+00:00</time></trkpt><trkpt lat="38.98368322" lon="-0.48578661"><ele>142.0</ele><time>2022-11-13T13:44:03.0000000+00:00</time></trkpt><trkpt lat="38.98368004" lon="-0.48578669"><ele>142.0</ele><time>2022-11-13T13:44:04.0000000+00:00</time></trkpt><trkpt lat="38.98368029" lon="-0.48579315"><ele>142.0</ele><time>2022-11-13T13:44:05.0000000+00:00</time></trkpt><trkpt lat="38.98367995" lon="-0.4858058"><ele>141.8</ele><time>2022-11-13T13:44:06.0000000+00:00</time></trkpt><trkpt lat="38.98368079" lon="-0.48580765"><ele>141.8</ele><time>2022-11-13T13:44:07.0000000+00:00</time></trkpt><trkpt lat="38.98368079" lon="-0.48580773"><ele>141.8</ele><time>2022-11-13T13:44:08.0000000+00:00</time></trkpt><trkpt lat="38.98368037" lon="-0.48580765"><ele>141.8</ele><time>2022-11-13T13:44:09.0000000+00:00</time></trkpt><trkpt lat="38.98367283" lon="-0.48580865"><ele>142.0</ele><time>2022-11-13T13:44:10.0000000+00:00</time></trkpt><trkpt lat="38.98366353" lon="-0.48580941"><ele>142.0</ele><time>2022-11-13T13:44:11.0000000+00:00</time></trkpt><trkpt lat="38.98365154" lon="-0.48580622"><ele>142.0</ele><time>2022-11-13T13:44:12.0000000+00:00</time></trkpt><trkpt lat="38.98364131" lon="-0.48580421"><ele>142.2</ele><time>2022-11-13T13:44:13.0000000+00:00</time></trkpt><trkpt lat="38.98363779" lon="-0.48580446"><ele>142.2</ele><time>2022-11-13T13:44:14.0000000+00:00</time></trkpt><trkpt lat="38.9836336" lon="-0.48580715"><ele>142.4</ele><time>2022-11-13T13:44:15.0000000+00:00</time></trkpt><trkpt lat="38.9836274" lon="-0.48580664"><ele>142.4</ele><time>2022-11-13T13:44:16.0000000+00:00</time></trkpt><trkpt lat="38.9836217" lon="-0.48580505"><ele>142.6</ele><time>2022-11-13T13:44:17.0000000+00:00</time></trkpt><trkpt lat="38.98361784" lon="-0.48580329"><ele>142.6</ele><time>2022-11-13T13:44:18.0000000+00:00</time></trkpt><trkpt lat="38.98361751" lon="-0.48579315"><ele>142.8</ele><time>2022-11-13T13:44:19.0000000+00:00</time></trkpt><trkpt lat="38.98361516" lon="-0.4857929"><ele>143.0</ele><time>2022-11-13T13:44:20.0000000+00:00</time></trkpt><trkpt lat="38.98361147" lon="-0.48578602"><ele>143.2</ele><time>2022-11-13T13:44:21.0000000+00:00</time></trkpt><trkpt lat="38.98360636" lon="-0.48577647"><ele>143.2</ele><time>2022-11-13T13:44:22.0000000+00:00</time></trkpt><trkpt lat="38.98360292" lon="-0.48577454"><ele>143.2</ele><time>2022-11-13T13:44:23.0000000+00:00</time></trkpt><trkpt lat="38.98360024" lon="-0.48577387"><ele>143.2</ele><time>2022-11-13T13:44:24.0000000+00:00</time></trkpt><trkpt lat="38.98359572" lon="-0.48577454"><ele>143.4</ele><time>2022-11-13T13:44:25.0000000+00:00</time></trkpt><trkpt lat="38.98358893" lon="-0.48577647"><ele>143.4</ele><time>2022-11-13T13:44:26.0000000+00:00</time></trkpt><trkpt lat="38.98358163" lon="-0.48578041"><ele>143.2</ele><time>2022-11-13T13:44:27.0000000+00:00</time></trkpt><trkpt lat="38.98357635" lon="-0.48578049"><ele>143.2</ele><time>2022-11-13T13:44:28.0000000+00:00</time></trkpt><trkpt lat="38.98356797" lon="-0.48577965"><ele>143.2</ele><time>2022-11-13T13:44:29.0000000+00:00</time></trkpt><trkpt lat="38.98355825" lon="-0.48578007"><ele>143.2</ele><time>2022-11-13T13:44:30.0000000+00:00</time></trkpt><trkpt lat="38.98355305" lon="-0.48577781"><ele>143.2</ele><time>2022-11-13T13:44:31.0000000+00:00</time></trkpt><trkpt lat="38.98355247" lon="-0.48577605"><ele>143.2</ele><time>2022-11-13T13:44:32.0000000+00:00</time></trkpt><trkpt lat="38.9835502" lon="-0.48577228"><ele>143.2</ele><time>2022-11-13T13:44:33.0000000+00:00</time></trkpt><trkpt lat="38.98354551" lon="-0.48576029"><ele>143.0</ele><time>2022-11-13T13:44:34.0000000+00:00</time></trkpt><trkpt lat="38.98354283" lon="-0.48575459"><ele>143.0</ele><time>2022-11-13T13:44:35.0000000+00:00</time></trkpt><trkpt lat="38.98353989" lon="-0.4857525"><ele>143.0</ele><time>2022-11-13T13:44:36.0000000+00:00</time></trkpt><trkpt lat="38.98353453" lon="-0.48574629"><ele>143.0</ele><time>2022-11-13T13:44:37.0000000+00:00</time></trkpt><trkpt lat="38.98352992" lon="-0.48573364"><ele>142.8</ele><time>2022-11-13T13:44:38.0000000+00:00</time></trkpt><trkpt lat="38.98351919" lon="-0.48571964"><ele>142.8</ele><time>2022-11-13T13:44:39.0000000+00:00</time></trkpt><trkpt lat="38.9835098" lon="-0.48571042"><ele>142.8</ele><time>2022-11-13T13:44:40.0000000+00:00</time></trkpt><trkpt lat="38.98350025" lon="-0.4856991"><ele>142.8</ele><time>2022-11-13T13:44:41.0000000+00:00</time></trkpt><trkpt lat="38.98349329" lon="-0.48568569"><ele>142.8</ele><time>2022-11-13T13:44:42.0000000+00:00</time></trkpt><trkpt lat="38.98348591" lon="-0.48567278"><ele>142.8</ele><time>2022-11-13T13:44:43.0000000+00:00</time></trkpt><trkpt lat="38.98347435" lon="-0.48566021"><ele>142.8</ele><time>2022-11-13T13:44:44.0000000+00:00</time></trkpt><trkpt lat="38.98346295" lon="-0.48564697"><ele>142.6</ele><time>2022-11-13T13:44:45.0000000+00:00</time></trkpt><trkpt lat="38.9834528" lon="-0.48563674"><ele>142.6</ele><time>2022-11-13T13:44:46.0000000+00:00</time></trkpt><trkpt lat="38.98344392" lon="-0.48562501"><ele>142.6</ele><time>2022-11-13T13:44:47.0000000+00:00</time></trkpt><trkpt lat="38.98343772" lon="-0.4856131"><ele>142.6</ele><time>2022-11-13T13:44:48.0000000+00:00</time></trkpt><trkpt lat="38.98343193" lon="-0.48560204"><ele>142.6</ele><time>2022-11-13T13:44:49.0000000+00:00</time></trkpt><trkpt lat="38.98342498" lon="-0.48558938"><ele>142.6</ele><time>2022-11-13T13:44:50.0000000+00:00</time></trkpt><trkpt lat="38.98341693" lon="-0.48557404"><ele>142.6</ele><time>2022-11-13T13:44:51.0000000+00:00</time></trkpt><trkpt lat="38.98340981" lon="-0.48555669"><ele>142.6</ele><time>2022-11-13T13:44:52.0000000+00:00</time></trkpt><trkpt lat="38.98340151" lon="-0.48554504"><ele>142.4</ele><time>2022-11-13T13:44:53.0000000+00:00</time></trkpt><trkpt lat="38.98339572" lon="-0.48553356"><ele>142.4</ele><time>2022-11-13T13:44:54.0000000+00:00</time></trkpt><trkpt lat="38.98338692" lon="-0.48552434"><ele>142.4</ele><time>2022-11-13T13:44:55.0000000+00:00</time></trkpt><trkpt lat="38.98338039" lon="-0.48551118"><ele>142.4</ele><time>2022-11-13T13:44:56.0000000+00:00</time></trkpt><trkpt lat="38.98337209" lon="-0.48550028"><ele>142.4</ele><time>2022-11-13T13:44:57.0000000+00:00</time></trkpt><trkpt lat="38.98335415" lon="-0.48548738"><ele>142.4</ele><time>2022-11-13T13:44:58.0000000+00:00</time></trkpt><trkpt lat="38.98334166" lon="-0.48547857"><ele>142.4</ele><time>2022-11-13T13:44:59.0000000+00:00</time></trkpt><trkpt lat="38.9833259" lon="-0.485466"><ele>142.4</ele><time>2022-11-13T13:45:00.0000000+00:00</time></trkpt><trkpt lat="38.98333336" lon="-0.48546734"><ele>142.4</ele><time>2022-11-13T13:45:01.0000000+00:00</time></trkpt><trkpt lat="38.9833332" lon="-0.48545444"><ele>142.4</ele><time>2022-11-13T13:45:02.0000000+00:00</time></trkpt><trkpt lat="38.98332934" lon="-0.48544153"><ele>142.4</ele><time>2022-11-13T13:45:03.0000000+00:00</time></trkpt><trkpt lat="38.98331727" lon="-0.485422"><ele>142.4</ele><time>2022-11-13T13:45:04.0000000+00:00</time></trkpt><trkpt lat="38.98330537" lon="-0.48542133"><ele>142.4</ele><time>2022-11-13T13:45:05.0000000+00:00</time></trkpt><trkpt lat="38.98329246" lon="-0.48540909"><ele>142.6</ele><time>2022-11-13T13:45:06.0000000+00:00</time></trkpt><trkpt lat="38.98328357" lon="-0.48539207"><ele>142.6</ele><time>2022-11-13T13:45:07.0000000+00:00</time></trkpt><trkpt lat="38.98327201" lon="-0.4853702"><ele>142.6</ele><time>2022-11-13T13:45:08.0000000+00:00</time></trkpt><trkpt lat="38.98326564" lon="-0.48535368"><ele>142.4</ele><time>2022-11-13T13:45:09.0000000+00:00</time></trkpt><trkpt lat="38.983257" lon="-0.48533684"><ele>142.4</ele><time>2022-11-13T13:45:10.0000000+00:00</time></trkpt><trkpt lat="38.98324921" lon="-0.48532024"><ele>142.4</ele><time>2022-11-13T13:45:11.0000000+00:00</time></trkpt><trkpt lat="38.98323446" lon="-0.48531211"><ele>142.4</ele><time>2022-11-13T13:45:12.0000000+00:00</time></trkpt><trkpt lat="38.98322716" lon="-0.485308"><ele>142.4</ele><time>2022-11-13T13:45:13.0000000+00:00</time></trkpt><trkpt lat="38.98322197" lon="-0.48529769"><ele>142.6</ele><time>2022-11-13T13:45:14.0000000+00:00</time></trkpt><trkpt lat="38.98321744" lon="-0.4852909"><ele>142.6</ele><time>2022-11-13T13:45:15.0000000+00:00</time></trkpt><trkpt lat="38.98321065" lon="-0.48528629"><ele>142.6</ele><time>2022-11-13T13:45:16.0000000+00:00</time></trkpt><trkpt lat="38.98319833" lon="-0.48528018"><ele>142.8</ele><time>2022-11-13T13:45:17.0000000+00:00</time></trkpt><trkpt lat="38.98318777" lon="-0.48526794"><ele>142.8</ele><time>2022-11-13T13:45:18.0000000+00:00</time></trkpt><trkpt lat="38.98317738" lon="-0.48525855"><ele>142.8</ele><time>2022-11-13T13:45:19.0000000+00:00</time></trkpt><trkpt lat="38.98316413" lon="-0.48524749"><ele>142.8</ele><time>2022-11-13T13:45:20.0000000+00:00</time></trkpt><trkpt lat="38.98315173" lon="-0.48523307"><ele>143.0</ele><time>2022-11-13T13:45:21.0000000+00:00</time></trkpt><trkpt lat="38.9831415" lon="-0.48522469"><ele>143.0</ele><time>2022-11-13T13:45:22.0000000+00:00</time></trkpt><trkpt lat="38.98313128" lon="-0.4852184"><ele>143.0</ele><time>2022-11-13T13:45:23.0000000+00:00</time></trkpt><trkpt lat="38.98311761" lon="-0.4852117"><ele>142.8</ele><time>2022-11-13T13:45:24.0000000+00:00</time></trkpt><trkpt lat="38.98311761" lon="-0.48520792"><ele>142.8</ele><time>2022-11-13T13:45:25.0000000+00:00</time></trkpt><trkpt lat="38.98311803" lon="-0.48520516"><ele>142.8</ele><time>2022-11-13T13:45:26.0000000+00:00</time></trkpt><trkpt lat="38.98311744" lon="-0.48520356"><ele>142.8</ele><time>2022-11-13T13:45:27.0000000+00:00</time></trkpt><trkpt lat="38.983113" lon="-0.48520139"><ele>142.8</ele><time>2022-11-13T13:45:28.0000000+00:00</time></trkpt><trkpt lat="38.983112" lon="-0.48520046"><ele>142.8</ele><time>2022-11-13T13:45:29.0000000+00:00</time></trkpt><trkpt lat="38.98311049" lon="-0.48520558"><ele>142.6</ele><time>2022-11-13T13:45:30.0000000+00:00</time></trkpt><trkpt lat="38.98311007" lon="-0.48520826"><ele>142.6</ele><time>2022-11-13T13:45:31.0000000+00:00</time></trkpt><trkpt lat="38.98310864" lon="-0.48521027"><ele>142.6</ele><time>2022-11-13T13:45:32.0000000+00:00</time></trkpt><trkpt lat="38.98311309" lon="-0.4852096"><ele>142.6</ele><time>2022-11-13T13:45:33.0000000+00:00</time></trkpt><trkpt lat="38.9831125" lon="-0.48520943"><ele>142.6</ele><time>2022-11-13T13:45:34.0000000+00:00</time></trkpt><trkpt lat="38.98311292" lon="-0.48520901"><ele>142.6</ele><time>2022-11-13T13:45:35.0000000+00:00</time></trkpt><trkpt lat="38.98311258" lon="-0.48520859"><ele>142.6</ele><time>2022-11-13T13:45:36.0000000+00:00</time></trkpt><trkpt lat="38.98311258" lon="-0.48520859"><ele>142.6</ele><time>2022-11-13T13:45:37.0000000+00:00</time></trkpt><trkpt lat="38.98311258" lon="-0.48520859"><ele>142.6</ele><time>2022-11-13T13:45:38.0000000+00:00</time></trkpt><trkpt lat="38.98311258" lon="-0.48520859"><ele>142.6</ele><time>2022-11-13T13:45:39.0000000+00:00</time></trkpt><trkpt lat="38.98311258" lon="-0.48520859"><ele>142.6</ele><time>2022-11-13T13:45:40.0000000+00:00</time></trkpt><trkpt lat="38.98311258" lon="-0.48520859"><ele>142.6</ele><time>2022-11-13T13:45:41.0000000+00:00</time></trkpt><trkpt lat="38.98311258" lon="-0.48520859"><ele>142.8</ele><time>2022-11-13T13:45:42.0000000+00:00</time></trkpt><trkpt lat="38.98311258" lon="-0.48520859"><ele>142.8</ele><time>2022-11-13T13:45:43.0000000+00:00</time></trkpt><trkpt lat="38.98311258" lon="-0.48520859"><ele>142.8</ele><time>2022-11-13T13:45:44.0000000+00:00</time></trkpt><trkpt lat="38.98311258" lon="-0.48520859"><ele>142.8</ele><time>2022-11-13T13:45:45.0000000+00:00</time></trkpt><trkpt lat="38.98311258" lon="-0.48520859"><ele>142.8</ele><time>2022-11-13T13:45:46.0000000+00:00</time></trkpt><trkpt lat="38.98310898" lon="-0.48520407"><ele>142.8</ele><time>2022-11-13T13:45:47.0000000+00:00</time></trkpt><trkpt lat="38.98309532" lon="-0.48518437"><ele>143.0</ele><time>2022-11-13T13:45:48.0000000+00:00</time></trkpt><trkpt lat="38.98307746" lon="-0.48517155"><ele>143.0</ele><time>2022-11-13T13:45:49.0000000+00:00</time></trkpt><trkpt lat="38.98306598" lon="-0.4851609"><ele>143.0</ele><time>2022-11-13T13:45:50.0000000+00:00</time></trkpt><trkpt lat="38.98305148" lon="-0.48514623"><ele>143.0</ele><time>2022-11-13T13:45:51.0000000+00:00</time></trkpt><trkpt lat="38.98304494" lon="-0.48513559"><ele>143.0</ele><time>2022-11-13T13:45:52.0000000+00:00</time></trkpt><trkpt lat="38.98303497" lon="-0.48512402"><ele>143.0</ele><time>2022-11-13T13:45:53.0000000+00:00</time></trkpt><trkpt lat="38.98302281" lon="-0.48510902"><ele>143.2</ele><time>2022-11-13T13:45:54.0000000+00:00</time></trkpt><trkpt lat="38.98301292" lon="-0.48509485"><ele>143.2</ele><time>2022-11-13T13:45:55.0000000+00:00</time></trkpt><trkpt lat="38.98300035" lon="-0.48508387"><ele>143.4</ele><time>2022-11-13T13:45:56.0000000+00:00</time></trkpt><trkpt lat="38.98299247" lon="-0.48508069"><ele>143.4</ele><time>2022-11-13T13:45:57.0000000+00:00</time></trkpt><trkpt lat="38.98298317" lon="-0.48507968"><ele>143.6</ele><time>2022-11-13T13:45:58.0000000+00:00</time></trkpt><trkpt lat="38.98297194" lon="-0.48507021"><ele>143.8</ele><time>2022-11-13T13:45:59.0000000+00:00</time></trkpt><trkpt lat="38.98296104" lon="-0.48506426"><ele>143.8</ele><time>2022-11-13T13:46:00.0000000+00:00</time></trkpt><trkpt lat="38.9829509" lon="-0.48505579"><ele>144.0</ele><time>2022-11-13T13:46:01.0000000+00:00</time></trkpt><trkpt lat="38.98294486" lon="-0.48505143"><ele>144.2</ele><time>2022-11-13T13:46:02.0000000+00:00</time></trkpt><trkpt lat="38.98293246" lon="-0.48504448"><ele>144.2</ele><time>2022-11-13T13:46:03.0000000+00:00</time></trkpt><trkpt lat="38.98291754" lon="-0.485035"><ele>144.4</ele><time>2022-11-13T13:46:04.0000000+00:00</time></trkpt><trkpt lat="38.98290488" lon="-0.48502444"><ele>144.4</ele><time>2022-11-13T13:46:05.0000000+00:00</time></trkpt><trkpt lat="38.98289776" lon="-0.48501941"><ele>144.6</ele><time>2022-11-13T13:46:06.0000000+00:00</time></trkpt><trkpt lat="38.98289281" lon="-0.48501296"><ele>144.8</ele><time>2022-11-13T13:46:07.0000000+00:00</time></trkpt><trkpt lat="38.98288652" lon="-0.4850029"><ele>145.0</ele><time>2022-11-13T13:46:08.0000000+00:00</time></trkpt><trkpt lat="38.98287412" lon="-0.48500131"><ele>145.0</ele><time>2022-11-13T13:46:09.0000000+00:00</time></trkpt><trkpt lat="38.98286129" lon="-0.48500676"><ele>145.2</ele><time>2022-11-13T13:46:10.0000000+00:00</time></trkpt><trkpt lat="38.98284428" lon="-0.48501028"><ele>145.4</ele><time>2022-11-13T13:46:11.0000000+00:00</time></trkpt><trkpt lat="38.9828302" lon="-0.48500994"><ele>145.4</ele><time>2022-11-13T13:46:12.0000000+00:00</time></trkpt><trkpt lat="38.98281687" lon="-0.48500693"><ele>145.6</ele><time>2022-11-13T13:46:13.0000000+00:00</time></trkpt><trkpt lat="38.98280589" lon="-0.48500408"><ele>145.8</ele><time>2022-11-13T13:46:14.0000000+00:00</time></trkpt><trkpt lat="38.98279558" lon="-0.4849967"><ele>145.8</ele><time>2022-11-13T13:46:15.0000000+00:00</time></trkpt><trkpt lat="38.98278544" lon="-0.48498974"><ele>146.0</ele><time>2022-11-13T13:46:16.0000000+00:00</time></trkpt><trkpt lat="38.98277437" lon="-0.48498103"><ele>146.0</ele><time>2022-11-13T13:46:17.0000000+00:00</time></trkpt><trkpt lat="38.98276314" lon="-0.48497935"><ele>146.2</ele><time>2022-11-13T13:46:18.0000000+00:00</time></trkpt><trkpt lat="38.98275174" lon="-0.48497373"><ele>146.2</ele><time>2022-11-13T13:46:19.0000000+00:00</time></trkpt><trkpt lat="38.98273766" lon="-0.48496326"><ele>146.2</ele><time>2022-11-13T13:46:20.0000000+00:00</time></trkpt><trkpt lat="38.98272651" lon="-0.48495831"><ele>146.2</ele><time>2022-11-13T13:46:21.0000000+00:00</time></trkpt><trkpt lat="38.98271008" lon="-0.48495345"><ele>146.4</ele><time>2022-11-13T13:46:22.0000000+00:00</time></trkpt><trkpt lat="38.98269994" lon="-0.4849506"><ele>146.6</ele><time>2022-11-13T13:46:23.0000000+00:00</time></trkpt><trkpt lat="38.98268905" lon="-0.48494649"><ele>146.8</ele><time>2022-11-13T13:46:24.0000000+00:00</time></trkpt><trkpt lat="38.98267698" lon="-0.48494104"><ele>146.8</ele><time>2022-11-13T13:46:25.0000000+00:00</time></trkpt><trkpt lat="38.98266248" lon="-0.48493744"><ele>147.0</ele><time>2022-11-13T13:46:26.0000000+00:00</time></trkpt><trkpt lat="38.98265359" lon="-0.48493769"><ele>147.2</ele><time>2022-11-13T13:46:27.0000000+00:00</time></trkpt><trkpt lat="38.98264588" lon="-0.48494238"><ele>147.2</ele><time>2022-11-13T13:46:28.0000000+00:00</time></trkpt><trkpt lat="38.98263926" lon="-0.48493777"><ele>147.4</ele><time>2022-11-13T13:46:29.0000000+00:00</time></trkpt><trkpt lat="38.9826323" lon="-0.48493216"><ele>147.4</ele><time>2022-11-13T13:46:30.0000000+00:00</time></trkpt><trkpt lat="38.98262593" lon="-0.48493249"><ele>147.6</ele><time>2022-11-13T13:46:31.0000000+00:00</time></trkpt><trkpt lat="38.98261" lon="-0.48493677"><ele>147.6</ele><time>2022-11-13T13:46:32.0000000+00:00</time></trkpt><trkpt lat="38.98259567" lon="-0.48494708"><ele>147.8</ele><time>2022-11-13T13:46:33.0000000+00:00</time></trkpt><trkpt lat="38.98258151" lon="-0.48495588"><ele>147.8</ele><time>2022-11-13T13:46:34.0000000+00:00</time></trkpt><trkpt lat="38.98257321" lon="-0.48495571"><ele>148.0</ele><time>2022-11-13T13:46:35.0000000+00:00</time></trkpt><trkpt lat="38.98256499" lon="-0.48495504"><ele>148.0</ele><time>2022-11-13T13:46:36.0000000+00:00</time></trkpt><trkpt lat="38.9825608" lon="-0.48495395"><ele>148.2</ele><time>2022-11-13T13:46:37.0000000+00:00</time></trkpt><trkpt lat="38.98255292" lon="-0.48494264"><ele>148.4</ele><time>2022-11-13T13:46:38.0000000+00:00</time></trkpt><trkpt lat="38.98254697" lon="-0.48493979"><ele>148.4</ele><time>2022-11-13T13:46:39.0000000+00:00</time></trkpt><trkpt lat="38.98253566" lon="-0.48492554"><ele>148.4</ele><time>2022-11-13T13:46:40.0000000+00:00</time></trkpt><trkpt lat="38.98252945" lon="-0.48490819"><ele>148.6</ele><time>2022-11-13T13:46:41.0000000+00:00</time></trkpt><trkpt lat="38.98252593" lon="-0.484905"><ele>148.6</ele><time>2022-11-13T13:46:42.0000000+00:00</time></trkpt><trkpt lat="38.98252535" lon="-0.48486519"><ele>148.6</ele><time>2022-11-13T13:46:43.0000000+00:00</time></trkpt><trkpt lat="38.98252543" lon="-0.48486603"><ele>148.6</ele><time>2022-11-13T13:46:44.0000000+00:00</time></trkpt><trkpt lat="38.98251655" lon="-0.48483845"><ele>148.6</ele><time>2022-11-13T13:46:45.0000000+00:00</time></trkpt><trkpt lat="38.98251571" lon="-0.48483753"><ele>148.6</ele><time>2022-11-13T13:46:46.0000000+00:00</time></trkpt><trkpt lat="38.98251487" lon="-0.48483753"><ele>148.6</ele><time>2022-11-13T13:46:47.0000000+00:00</time></trkpt><trkpt lat="38.98251303" lon="-0.48483803"><ele>148.6</ele><time>2022-11-13T13:46:48.0000000+00:00</time></trkpt><trkpt lat="38.98251219" lon="-0.48483895"><ele>148.6</ele><time>2022-11-13T13:46:49.0000000+00:00</time></trkpt><trkpt lat="38.98251236" lon="-0.48484105"><ele>148.6</ele><time>2022-11-13T13:46:50.0000000+00:00</time></trkpt><trkpt lat="38.98251152" lon="-0.48484029"><ele>148.6</ele><time>2022-11-13T13:46:51.0000000+00:00</time></trkpt><trkpt lat="38.98250883" lon="-0.48484004"><ele>148.6</ele><time>2022-11-13T13:46:52.0000000+00:00</time></trkpt><trkpt lat="38.98250121" lon="-0.48483795"><ele>148.6</ele><time>2022-11-13T13:46:53.0000000+00:00</time></trkpt><trkpt lat="38.98248972" lon="-0.48484381"><ele>148.8</ele><time>2022-11-13T13:46:54.0000000+00:00</time></trkpt><trkpt lat="38.98248386" lon="-0.48485136"><ele>148.8</ele><time>2022-11-13T13:46:55.0000000+00:00</time></trkpt><trkpt lat="38.98248193" lon="-0.48485748"><ele>148.8</ele><time>2022-11-13T13:46:56.0000000+00:00</time></trkpt><trkpt lat="38.98247967" lon="-0.48485857"><ele>148.8</ele><time>2022-11-13T13:46:57.0000000+00:00</time></trkpt><trkpt lat="38.98247958" lon="-0.48485907"><ele>148.8</ele><time>2022-11-13T13:46:58.0000000+00:00</time></trkpt><trkpt lat="38.98248009" lon="-0.48486292"><ele>148.8</ele><time>2022-11-13T13:46:59.0000000+00:00</time></trkpt><trkpt lat="38.9824805" lon="-0.48486468"><ele>148.8</ele><time>2022-11-13T13:47:00.0000000+00:00</time></trkpt><trkpt lat="38.98248109" lon="-0.48486636"><ele>148.8</ele><time>2022-11-13T13:47:01.0000000+00:00</time></trkpt><trkpt lat="38.98248109" lon="-0.48486636"><ele>148.8</ele><time>2022-11-13T13:47:02.0000000+00:00</time></trkpt><trkpt lat="38.98248109" lon="-0.48486636"><ele>148.8</ele><time>2022-11-13T13:47:03.0000000+00:00</time></trkpt><trkpt lat="38.98248109" lon="-0.48486636"><ele>148.8</ele><time>2022-11-13T13:47:04.0000000+00:00</time></trkpt><trkpt lat="38.98248109" lon="-0.48486636"><ele>148.8</ele><time>2022-11-13T13:47:05.0000000+00:00</time></trkpt><trkpt lat="38.98248109" lon="-0.48486636"><ele>148.8</ele><time>2022-11-13T13:47:06.0000000+00:00</time></trkpt><trkpt lat="38.98248109" lon="-0.48486636"><ele>148.8</ele><time>2022-11-13T13:47:07.0000000+00:00</time></trkpt><trkpt lat="38.98248109" lon="-0.48486636"><ele>148.8</ele><time>2022-11-13T13:47:08.0000000+00:00</time></trkpt><trkpt lat="38.98248109" lon="-0.48486636"><ele>148.6</ele><time>2022-11-13T13:47:09.0000000+00:00</time></trkpt><trkpt lat="38.98248109" lon="-0.48486636"><ele>148.6</ele><time>2022-11-13T13:47:10.0000000+00:00</time></trkpt><trkpt lat="38.98248109" lon="-0.48486636"><ele>148.6</ele><time>2022-11-13T13:47:11.0000000+00:00</time></trkpt><trkpt lat="38.98248109" lon="-0.48486636"><ele>148.8</ele><time>2022-11-13T13:47:12.0000000+00:00</time></trkpt><trkpt lat="38.98248059" lon="-0.48486636"><ele>148.8</ele><time>2022-11-13T13:47:13.0000000+00:00</time></trkpt><trkpt lat="38.9824805" lon="-0.48486636"><ele>149.0</ele><time>2022-11-13T13:47:14.0000000+00:00</time></trkpt><trkpt lat="38.98248034" lon="-0.48486636"><ele>149.0</ele><time>2022-11-13T13:47:15.0000000+00:00</time></trkpt><trkpt lat="38.98248017" lon="-0.48486636"><ele>149.0</ele><time>2022-11-13T13:47:16.0000000+00:00</time></trkpt><trkpt lat="38.98247489" lon="-0.48486443"><ele>149.0</ele><time>2022-11-13T13:47:17.0000000+00:00</time></trkpt><trkpt lat="38.98246357" lon="-0.48486091"><ele>149.2</ele><time>2022-11-13T13:47:18.0000000+00:00</time></trkpt><trkpt lat="38.98245075" lon="-0.48485362"><ele>149.2</ele><time>2022-11-13T13:47:19.0000000+00:00</time></trkpt><trkpt lat="38.98243859" lon="-0.48484314"><ele>149.2</ele><time>2022-11-13T13:47:20.0000000+00:00</time></trkpt><trkpt lat="38.98242912" lon="-0.4848366"><ele>149.2</ele><time>2022-11-13T13:47:21.0000000+00:00</time></trkpt><trkpt lat="38.98242527" lon="-0.4848325"><ele>149.2</ele><time>2022-11-13T13:47:22.0000000+00:00</time></trkpt><trkpt lat="38.98241739" lon="-0.48482856"><ele>149.2</ele><time>2022-11-13T13:47:23.0000000+00:00</time></trkpt><trkpt lat="38.9824106" lon="-0.48482562"><ele>149.4</ele><time>2022-11-13T13:47:24.0000000+00:00</time></trkpt><trkpt lat="38.98241068" lon="-0.48483283"><ele>149.4</ele><time>2022-11-13T13:47:25.0000000+00:00</time></trkpt><trkpt lat="38.98240649" lon="-0.48482822"><ele>149.4</ele><time>2022-11-13T13:47:26.0000000+00:00</time></trkpt><trkpt lat="38.98240616" lon="-0.48482512"><ele>149.6</ele><time>2022-11-13T13:47:27.0000000+00:00</time></trkpt><trkpt lat="38.98240113" lon="-0.48482143"><ele>149.6</ele><time>2022-11-13T13:47:28.0000000+00:00</time></trkpt><trkpt lat="38.98239702" lon="-0.48482043"><ele>149.6</ele><time>2022-11-13T13:47:29.0000000+00:00</time></trkpt><trkpt lat="38.98239149" lon="-0.48481607"><ele>149.6</ele><time>2022-11-13T13:47:30.0000000+00:00</time></trkpt><trkpt lat="38.98238394" lon="-0.48480811"><ele>149.6</ele><time>2022-11-13T13:47:31.0000000+00:00</time></trkpt><trkpt lat="38.9823754" lon="-0.48479998"><ele>149.6</ele><time>2022-11-13T13:47:32.0000000+00:00</time></trkpt><trkpt lat="38.98236802" lon="-0.48479076"><ele>149.6</ele><time>2022-11-13T13:47:33.0000000+00:00</time></trkpt><trkpt lat="38.98236148" lon="-0.48478464"><ele>149.6</ele><time>2022-11-13T13:47:34.0000000+00:00</time></trkpt><trkpt lat="38.98234748" lon="-0.48477676"><ele>149.6</ele><time>2022-11-13T13:47:35.0000000+00:00</time></trkpt><trkpt lat="38.98233634" lon="-0.48476821"><ele>149.6</ele><time>2022-11-13T13:47:36.0000000+00:00</time></trkpt><trkpt lat="38.98232854" lon="-0.48476008"><ele>149.6</ele><time>2022-11-13T13:47:37.0000000+00:00</time></trkpt><trkpt lat="38.98231588" lon="-0.48474616"><ele>149.6</ele><time>2022-11-13T13:47:38.0000000+00:00</time></trkpt><trkpt lat="38.98230901" lon="-0.48473686"><ele>149.6</ele><time>2022-11-13T13:47:39.0000000+00:00</time></trkpt><trkpt lat="38.98230415" lon="-0.48473409"><ele>149.6</ele><time>2022-11-13T13:47:40.0000000+00:00</time></trkpt><trkpt lat="38.98229568" lon="-0.48472974"><ele>149.6</ele><time>2022-11-13T13:47:41.0000000+00:00</time></trkpt><trkpt lat="38.98229082" lon="-0.48472412"><ele>149.6</ele><time>2022-11-13T13:47:42.0000000+00:00</time></trkpt><trkpt lat="38.98228705" lon="-0.48471959"><ele>149.6</ele><time>2022-11-13T13:47:43.0000000+00:00</time></trkpt><trkpt lat="38.982278" lon="-0.48471088"><ele>149.6</ele><time>2022-11-13T13:47:44.0000000+00:00</time></trkpt><trkpt lat="38.98226844" lon="-0.48470643"><ele>149.4</ele><time>2022-11-13T13:47:45.0000000+00:00</time></trkpt><trkpt lat="38.98225738" lon="-0.48470124"><ele>149.4</ele><time>2022-11-13T13:47:46.0000000+00:00</time></trkpt><trkpt lat="38.98224346" lon="-0.48469353"><ele>149.4</ele><time>2022-11-13T13:47:47.0000000+00:00</time></trkpt><trkpt lat="38.98223123" lon="-0.48468405"><ele>149.4</ele><time>2022-11-13T13:47:48.0000000+00:00</time></trkpt><trkpt lat="38.98222067" lon="-0.48468162"><ele>149.4</ele><time>2022-11-13T13:47:49.0000000+00:00</time></trkpt><trkpt lat="38.98221262" lon="-0.48468347"><ele>149.2</ele><time>2022-11-13T13:47:50.0000000+00:00</time></trkpt><trkpt lat="38.98220256" lon="-0.48468313"><ele>149.0</ele><time>2022-11-13T13:47:51.0000000+00:00</time></trkpt><trkpt lat="38.98218957" lon="-0.48468422"><ele>149.0</ele><time>2022-11-13T13:47:52.0000000+00:00</time></trkpt><trkpt lat="38.9821785" lon="-0.48468875"><ele>149.0</ele><time>2022-11-13T13:47:53.0000000+00:00</time></trkpt><trkpt lat="38.98216828" lon="-0.48469562"><ele>148.8</ele><time>2022-11-13T13:47:54.0000000+00:00</time></trkpt><trkpt lat="38.9821583" lon="-0.48469193"><ele>148.8</ele><time>2022-11-13T13:47:55.0000000+00:00</time></trkpt><trkpt lat="38.98214841" lon="-0.48468615"><ele>148.8</ele><time>2022-11-13T13:47:56.0000000+00:00</time></trkpt><trkpt lat="38.98213098" lon="-0.48467701"><ele>148.6</ele><time>2022-11-13T13:47:57.0000000+00:00</time></trkpt><trkpt lat="38.98211815" lon="-0.48467022"><ele>148.4</ele><time>2022-11-13T13:47:58.0000000+00:00</time></trkpt><trkpt lat="38.98211137" lon="-0.48467131"><ele>148.4</ele><time>2022-11-13T13:47:59.0000000+00:00</time></trkpt><trkpt lat="38.98210089" lon="-0.48467383"><ele>148.2</ele><time>2022-11-13T13:48:00.0000000+00:00</time></trkpt><trkpt lat="38.98208815" lon="-0.48467048"><ele>148.0</ele><time>2022-11-13T13:48:01.0000000+00:00</time></trkpt><trkpt lat="38.98207298" lon="-0.48466343"><ele>147.8</ele><time>2022-11-13T13:48:02.0000000+00:00</time></trkpt><trkpt lat="38.98206275" lon="-0.48465195"><ele>147.8</ele><time>2022-11-13T13:48:03.0000000+00:00</time></trkpt><trkpt lat="38.98204733" lon="-0.48463913"><ele>147.6</ele><time>2022-11-13T13:48:04.0000000+00:00</time></trkpt><trkpt lat="38.98203484" lon="-0.48463586"><ele>147.6</ele><time>2022-11-13T13:48:05.0000000+00:00</time></trkpt><trkpt lat="38.98202009" lon="-0.48463326"><ele>147.4</ele><time>2022-11-13T13:48:06.0000000+00:00</time></trkpt><trkpt lat="38.98200232" lon="-0.48463326"><ele>147.4</ele><time>2022-11-13T13:48:07.0000000+00:00</time></trkpt><trkpt lat="38.98198765" lon="-0.48463083"><ele>147.2</ele><time>2022-11-13T13:48:08.0000000+00:00</time></trkpt><trkpt lat="38.9819744" lon="-0.48463217"><ele>147.2</ele><time>2022-11-13T13:48:09.0000000+00:00</time></trkpt><trkpt lat="38.98195907" lon="-0.48463401"><ele>147.2</ele><time>2022-11-13T13:48:10.0000000+00:00</time></trkpt><trkpt lat="38.98195043" lon="-0.48463879"><ele>147.2</ele><time>2022-11-13T13:48:11.0000000+00:00</time></trkpt><trkpt lat="38.98194331" lon="-0.48464466"><ele>147.0</ele><time>2022-11-13T13:48:12.0000000+00:00</time></trkpt><trkpt lat="38.98193124" lon="-0.48464298"><ele>146.8</ele><time>2022-11-13T13:48:13.0000000+00:00</time></trkpt><trkpt lat="38.9819216" lon="-0.48464206"><ele>146.6</ele><time>2022-11-13T13:48:14.0000000+00:00</time></trkpt><trkpt lat="38.98190785" lon="-0.48463728"><ele>146.6</ele><time>2022-11-13T13:48:15.0000000+00:00</time></trkpt><trkpt lat="38.98189436" lon="-0.48463033"><ele>146.4</ele><time>2022-11-13T13:48:16.0000000+00:00</time></trkpt><trkpt lat="38.98188153" lon="-0.48462756"><ele>146.4</ele><time>2022-11-13T13:48:17.0000000+00:00</time></trkpt><trkpt lat="38.98186678" lon="-0.48462136"><ele>146.2</ele><time>2022-11-13T13:48:18.0000000+00:00</time></trkpt><trkpt lat="38.98185421" lon="-0.48461859"><ele>146.2</ele><time>2022-11-13T13:48:19.0000000+00:00</time></trkpt><trkpt lat="38.9818418" lon="-0.48461583"><ele>146.0</ele><time>2022-11-13T13:48:20.0000000+00:00</time></trkpt><trkpt lat="38.9818304" lon="-0.48461842"><ele>146.0</ele><time>2022-11-13T13:48:21.0000000+00:00</time></trkpt><trkpt lat="38.98182001" lon="-0.48462069"><ele>146.0</ele><time>2022-11-13T13:48:22.0000000+00:00</time></trkpt><trkpt lat="38.98180895" lon="-0.48461826"><ele>145.8</ele><time>2022-11-13T13:48:23.0000000+00:00</time></trkpt><trkpt lat="38.98180073" lon="-0.48462044"><ele>145.8</ele><time>2022-11-13T13:48:24.0000000+00:00</time></trkpt><trkpt lat="38.98179478" lon="-0.48462077"><ele>145.6</ele><time>2022-11-13T13:48:25.0000000+00:00</time></trkpt><trkpt lat="38.98178833" lon="-0.48461792"><ele>145.4</ele><time>2022-11-13T13:48:26.0000000+00:00</time></trkpt><trkpt lat="38.98178187" lon="-0.48461482"><ele>145.4</ele><time>2022-11-13T13:48:27.0000000+00:00</time></trkpt><trkpt lat="38.98177416" lon="-0.48461365"><ele>145.2</ele><time>2022-11-13T13:48:28.0000000+00:00</time></trkpt><trkpt lat="38.98176922" lon="-0.4846165"><ele>145.2</ele><time>2022-11-13T13:48:29.0000000+00:00</time></trkpt><trkpt lat="38.98176645" lon="-0.48461775"><ele>145.0</ele><time>2022-11-13T13:48:30.0000000+00:00</time></trkpt><trkpt lat="38.98176201" lon="-0.48461088"><ele>144.8</ele><time>2022-11-13T13:48:31.0000000+00:00</time></trkpt><trkpt lat="38.98175564" lon="-0.48461004"><ele>144.6</ele><time>2022-11-13T13:48:32.0000000+00:00</time></trkpt><trkpt lat="38.98174667" lon="-0.4846118"><ele>144.4</ele><time>2022-11-13T13:48:33.0000000+00:00</time></trkpt><trkpt lat="38.98173368" lon="-0.48461281"><ele>144.4</ele><time>2022-11-13T13:48:34.0000000+00:00</time></trkpt><trkpt lat="38.98171909" lon="-0.4846082"><ele>144.2</ele><time>2022-11-13T13:48:35.0000000+00:00</time></trkpt><trkpt lat="38.98170836" lon="-0.48460803"><ele>144.0</ele><time>2022-11-13T13:48:36.0000000+00:00</time></trkpt><trkpt lat="38.98170065" lon="-0.48460694"><ele>144.0</ele><time>2022-11-13T13:48:37.0000000+00:00</time></trkpt><trkpt lat="38.98168841" lon="-0.48460971"><ele>143.8</ele><time>2022-11-13T13:48:38.0000000+00:00</time></trkpt><trkpt lat="38.98168112" lon="-0.48461306"><ele>143.8</ele><time>2022-11-13T13:48:39.0000000+00:00</time></trkpt><trkpt lat="38.98167551" lon="-0.48461088"><ele>143.6</ele><time>2022-11-13T13:48:40.0000000+00:00</time></trkpt><trkpt lat="38.98167266" lon="-0.48461063"><ele>143.6</ele><time>2022-11-13T13:48:41.0000000+00:00</time></trkpt><trkpt lat="38.98167609" lon="-0.48461549"><ele>143.4</ele><time>2022-11-13T13:48:42.0000000+00:00</time></trkpt><trkpt lat="38.98167425" lon="-0.48462387"><ele>143.4</ele><time>2022-11-13T13:48:43.0000000+00:00</time></trkpt><trkpt lat="38.98167006" lon="-0.48463368"><ele>143.2</ele><time>2022-11-13T13:48:44.0000000+00:00</time></trkpt><trkpt lat="38.9816564" lon="-0.48463703"><ele>143.2</ele><time>2022-11-13T13:48:45.0000000+00:00</time></trkpt><trkpt lat="38.98164818" lon="-0.48463762"><ele>143.0</ele><time>2022-11-13T13:48:46.0000000+00:00</time></trkpt><trkpt lat="38.98163754" lon="-0.48463821"><ele>143.0</ele><time>2022-11-13T13:48:47.0000000+00:00</time></trkpt><trkpt lat="38.98162874" lon="-0.48463603"><ele>142.8</ele><time>2022-11-13T13:48:48.0000000+00:00</time></trkpt><trkpt lat="38.98161817" lon="-0.48463083"><ele>142.6</ele><time>2022-11-13T13:48:49.0000000+00:00</time></trkpt><trkpt lat="38.98160921" lon="-0.48462773"><ele>142.4</ele><time>2022-11-13T13:48:50.0000000+00:00</time></trkpt><trkpt lat="38.98159915" lon="-0.48462655"><ele>142.4</ele><time>2022-11-13T13:48:51.0000000+00:00</time></trkpt><trkpt lat="38.98158934" lon="-0.48462647"><ele>142.2</ele><time>2022-11-13T13:48:52.0000000+00:00</time></trkpt><trkpt lat="38.98157643" lon="-0.48462161"><ele>142.0</ele><time>2022-11-13T13:48:53.0000000+00:00</time></trkpt><trkpt lat="38.98155849" lon="-0.48461482"><ele>141.8</ele><time>2022-11-13T13:48:54.0000000+00:00</time></trkpt><trkpt lat="38.98154517" lon="-0.48461918"><ele>141.6</ele><time>2022-11-13T13:48:55.0000000+00:00</time></trkpt><trkpt lat="38.98152983" lon="-0.48462245"><ele>141.6</ele><time>2022-11-13T13:48:56.0000000+00:00</time></trkpt><trkpt lat="38.98151424" lon="-0.48462697"><ele>141.4</ele><time>2022-11-13T13:48:57.0000000+00:00</time></trkpt><trkpt lat="38.98150183" lon="-0.4846253"><ele>141.4</ele><time>2022-11-13T13:48:58.0000000+00:00</time></trkpt><trkpt lat="38.98149538" lon="-0.48462865"><ele>141.0</ele><time>2022-11-13T13:48:59.0000000+00:00</time></trkpt><trkpt lat="38.98149354" lon="-0.48463393"><ele>141.0</ele><time>2022-11-13T13:49:00.0000000+00:00</time></trkpt><trkpt lat="38.98148582" lon="-0.48463938"><ele>140.8</ele><time>2022-11-13T13:49:01.0000000+00:00</time></trkpt><trkpt lat="38.98147224" lon="-0.48463594"><ele>140.6</ele><time>2022-11-13T13:49:02.0000000+00:00</time></trkpt><trkpt lat="38.98146981" lon="-0.48463611"><ele>140.6</ele><time>2022-11-13T13:49:03.0000000+00:00</time></trkpt><trkpt lat="38.98146227" lon="-0.48463879"><ele>140.4</ele><time>2022-11-13T13:49:04.0000000+00:00</time></trkpt><trkpt lat="38.98145095" lon="-0.48463879"><ele>140.4</ele><time>2022-11-13T13:49:05.0000000+00:00</time></trkpt><trkpt lat="38.98143838" lon="-0.48464424"><ele>140.2</ele><time>2022-11-13T13:49:06.0000000+00:00</time></trkpt><trkpt lat="38.98143143" lon="-0.48466226"><ele>140.2</ele><time>2022-11-13T13:49:07.0000000+00:00</time></trkpt><trkpt lat="38.9814274" lon="-0.48466989"><ele>140.0</ele><time>2022-11-13T13:49:08.0000000+00:00</time></trkpt><trkpt lat="38.98141952" lon="-0.48467995"><ele>139.8</ele><time>2022-11-13T13:49:09.0000000+00:00</time></trkpt><trkpt lat="38.98141173" lon="-0.4846854"><ele>139.8</ele><time>2022-11-13T13:49:10.0000000+00:00</time></trkpt><trkpt lat="38.98140234" lon="-0.48468615"><ele>139.6</ele><time>2022-11-13T13:49:11.0000000+00:00</time></trkpt><trkpt lat="38.98139496" lon="-0.48469193"><ele>139.4</ele><time>2022-11-13T13:49:12.0000000+00:00</time></trkpt><trkpt lat="38.98138558" lon="-0.48469839"><ele>139.4</ele><time>2022-11-13T13:49:13.0000000+00:00</time></trkpt><trkpt lat="38.98137359" lon="-0.4847061"><ele>139.4</ele><time>2022-11-13T13:49:14.0000000+00:00</time></trkpt><trkpt lat="38.98136546" lon="-0.48471171"><ele>139.2</ele><time>2022-11-13T13:49:15.0000000+00:00</time></trkpt><trkpt lat="38.98136345" lon="-0.48472672"><ele>139.2</ele><time>2022-11-13T13:49:16.0000000+00:00</time></trkpt><trkpt lat="38.98135406" lon="-0.4847434"><ele>139.2</ele><time>2022-11-13T13:49:17.0000000+00:00</time></trkpt><trkpt lat="38.98134928" lon="-0.48475924"><ele>139.2</ele><time>2022-11-13T13:49:18.0000000+00:00</time></trkpt><trkpt lat="38.98134048" lon="-0.48476636"><ele>139.0</ele><time>2022-11-13T13:49:19.0000000+00:00</time></trkpt><trkpt lat="38.98132841" lon="-0.48476972"><ele>139.0</ele><time>2022-11-13T13:49:20.0000000+00:00</time></trkpt><trkpt lat="38.98132321" lon="-0.48478388"><ele>138.8</ele><time>2022-11-13T13:49:21.0000000+00:00</time></trkpt><trkpt lat="38.98131743" lon="-0.48479511"><ele>138.8</ele><time>2022-11-13T13:49:22.0000000+00:00</time></trkpt><trkpt lat="38.98130838" lon="-0.48479822"><ele>138.8</ele><time>2022-11-13T13:49:23.0000000+00:00</time></trkpt><trkpt lat="38.98129899" lon="-0.48480123"><ele>138.8</ele><time>2022-11-13T13:49:24.0000000+00:00</time></trkpt><trkpt lat="38.98128793" lon="-0.48480844"><ele>138.6</ele><time>2022-11-13T13:49:25.0000000+00:00</time></trkpt><trkpt lat="38.98127577" lon="-0.48481842"><ele>138.4</ele><time>2022-11-13T13:49:26.0000000+00:00</time></trkpt><trkpt lat="38.98126161" lon="-0.48482797"><ele>138.4</ele><time>2022-11-13T13:49:27.0000000+00:00</time></trkpt><trkpt lat="38.98124862" lon="-0.48483627"><ele>138.2</ele><time>2022-11-13T13:49:28.0000000+00:00</time></trkpt><trkpt lat="38.98123839" lon="-0.48484834"><ele>138.2</ele><time>2022-11-13T13:49:29.0000000+00:00</time></trkpt><trkpt lat="38.98123202" lon="-0.48485873"><ele>138.0</ele><time>2022-11-13T13:49:30.0000000+00:00</time></trkpt><trkpt lat="38.98122557" lon="-0.48486846"><ele>137.8</ele><time>2022-11-13T13:49:31.0000000+00:00</time></trkpt><trkpt lat="38.98121894" lon="-0.48487642"><ele>137.8</ele><time>2022-11-13T13:49:32.0000000+00:00</time></trkpt><trkpt lat="38.98120905" lon="-0.48488061"><ele>137.8</ele><time>2022-11-13T13:49:33.0000000+00:00</time></trkpt><trkpt lat="38.98119958" lon="-0.48488991"><ele>137.8</ele><time>2022-11-13T13:49:34.0000000+00:00</time></trkpt><trkpt lat="38.98119078" lon="-0.48489888"><ele>137.6</ele><time>2022-11-13T13:49:35.0000000+00:00</time></trkpt><trkpt lat="38.98118667" lon="-0.48491447"><ele>137.6</ele><time>2022-11-13T13:49:36.0000000+00:00</time></trkpt><trkpt lat="38.981186" lon="-0.48493451"><ele>137.6</ele><time>2022-11-13T13:49:37.0000000+00:00</time></trkpt><trkpt lat="38.98117812" lon="-0.48495948"><ele>137.6</ele><time>2022-11-13T13:49:38.0000000+00:00</time></trkpt><trkpt lat="38.98117108" lon="-0.48498396"><ele>137.6</ele><time>2022-11-13T13:49:39.0000000+00:00</time></trkpt><trkpt lat="38.9811632" lon="-0.48499938"><ele>137.6</ele><time>2022-11-13T13:49:40.0000000+00:00</time></trkpt><trkpt lat="38.98115851" lon="-0.48500693"><ele>137.6</ele><time>2022-11-13T13:49:41.0000000+00:00</time></trkpt><trkpt lat="38.98115281" lon="-0.48501883"><ele>137.6</ele><time>2022-11-13T13:49:42.0000000+00:00</time></trkpt><trkpt lat="38.98114426" lon="-0.48502763"><ele>137.4</ele><time>2022-11-13T13:49:43.0000000+00:00</time></trkpt><trkpt lat="38.9811358" lon="-0.48503878"><ele>137.4</ele><time>2022-11-13T13:49:44.0000000+00:00</time></trkpt><trkpt lat="38.98112607" lon="-0.48504758"><ele>137.4</ele><time>2022-11-13T13:49:45.0000000+00:00</time></trkpt><trkpt lat="38.98111819" lon="-0.48505277"><ele>137.4</ele><time>2022-11-13T13:49:46.0000000+00:00</time></trkpt><trkpt lat="38.98111392" lon="-0.48506635"><ele>137.4</ele><time>2022-11-13T13:49:47.0000000+00:00</time></trkpt><trkpt lat="38.98111191" lon="-0.48508027"><ele>137.4</ele><time>2022-11-13T13:49:48.0000000+00:00</time></trkpt><trkpt lat="38.98110487" lon="-0.48509435"><ele>137.4</ele><time>2022-11-13T13:49:49.0000000+00:00</time></trkpt><trkpt lat="38.98109908" lon="-0.48510944"><ele>137.2</ele><time>2022-11-13T13:49:50.0000000+00:00</time></trkpt><trkpt lat="38.98109288" lon="-0.4851174"><ele>137.2</ele><time>2022-11-13T13:49:51.0000000+00:00</time></trkpt><trkpt lat="38.98108844" lon="-0.48512997"><ele>137.2</ele><time>2022-11-13T13:49:52.0000000+00:00</time></trkpt><trkpt lat="38.98108182" lon="-0.48514296"><ele>137.2</ele><time>2022-11-13T13:49:53.0000000+00:00</time></trkpt><trkpt lat="38.98107645" lon="-0.48515579"><ele>137.2</ele><time>2022-11-13T13:49:54.0000000+00:00</time></trkpt><trkpt lat="38.98106815" lon="-0.48517104"><ele>137.2</ele><time>2022-11-13T13:49:55.0000000+00:00</time></trkpt><trkpt lat="38.98106153" lon="-0.48518362"><ele>137.2</ele><time>2022-11-13T13:49:56.0000000+00:00</time></trkpt><trkpt lat="38.98105768" lon="-0.48519963"><ele>137.2</ele><time>2022-11-13T13:49:57.0000000+00:00</time></trkpt><trkpt lat="38.98105759" lon="-0.48522242"><ele>137.0</ele><time>2022-11-13T13:49:58.0000000+00:00</time></trkpt><trkpt lat="38.98105365" lon="-0.48524589"><ele>137.0</ele><time>2022-11-13T13:49:59.0000000+00:00</time></trkpt><trkpt lat="38.98104938" lon="-0.48526442"><ele>137.0</ele><time>2022-11-13T13:50:00.0000000+00:00</time></trkpt><trkpt lat="38.98104586" lon="-0.48527774"><ele>137.0</ele><time>2022-11-13T13:50:01.0000000+00:00</time></trkpt><trkpt lat="38.98104142" lon="-0.48529116"><ele>137.0</ele><time>2022-11-13T13:50:02.0000000+00:00</time></trkpt><trkpt lat="38.9810353" lon="-0.48530524"><ele>137.0</ele><time>2022-11-13T13:50:03.0000000+00:00</time></trkpt><trkpt lat="38.98103312" lon="-0.48531504"><ele>137.0</ele><time>2022-11-13T13:50:04.0000000+00:00</time></trkpt><trkpt lat="38.98103228" lon="-0.48532971"><ele>137.0</ele><time>2022-11-13T13:50:05.0000000+00:00</time></trkpt><trkpt lat="38.98102817" lon="-0.48534514"><ele>137.2</ele><time>2022-11-13T13:50:06.0000000+00:00</time></trkpt><trkpt lat="38.98102834" lon="-0.48535586"><ele>137.2</ele><time>2022-11-13T13:50:07.0000000+00:00</time></trkpt><trkpt lat="38.98102742" lon="-0.48537036"><ele>137.2</ele><time>2022-11-13T13:50:08.0000000+00:00</time></trkpt><trkpt lat="38.98102499" lon="-0.48538327"><ele>137.2</ele><time>2022-11-13T13:50:09.0000000+00:00</time></trkpt><trkpt lat="38.9810249" lon="-0.485394"><ele>137.2</ele><time>2022-11-13T13:50:10.0000000+00:00</time></trkpt><trkpt lat="38.98102197" lon="-0.48541303"><ele>137.4</ele><time>2022-11-13T13:50:11.0000000+00:00</time></trkpt><trkpt lat="38.98102306" lon="-0.48542569"><ele>137.4</ele><time>2022-11-13T13:50:12.0000000+00:00</time></trkpt><trkpt lat="38.98102507" lon="-0.48543734"><ele>137.4</ele><time>2022-11-13T13:50:13.0000000+00:00</time></trkpt><trkpt lat="38.9810223" lon="-0.4854448"><ele>137.6</ele><time>2022-11-13T13:50:14.0000000+00:00</time></trkpt><trkpt lat="38.9810208" lon="-0.48545267"><ele>137.6</ele><time>2022-11-13T13:50:15.0000000+00:00</time></trkpt><trkpt lat="38.98101887" lon="-0.48546307"><ele>137.6</ele><time>2022-11-13T13:50:16.0000000+00:00</time></trkpt><trkpt lat="38.98101459" lon="-0.48547715"><ele>137.8</ele><time>2022-11-13T13:50:17.0000000+00:00</time></trkpt><trkpt lat="38.98100554" lon="-0.48548805"><ele>138.0</ele><time>2022-11-13T13:50:18.0000000+00:00</time></trkpt><trkpt lat="38.9810016" lon="-0.48550313"><ele>138.2</ele><time>2022-11-13T13:50:19.0000000+00:00</time></trkpt><trkpt lat="38.9810006" lon="-0.48552074"><ele>138.2</ele><time>2022-11-13T13:50:20.0000000+00:00</time></trkpt><trkpt lat="38.98099992" lon="-0.48553322"><ele>138.4</ele><time>2022-11-13T13:50:21.0000000+00:00</time></trkpt><trkpt lat="38.98099674" lon="-0.48554362"><ele>138.4</ele><time>2022-11-13T13:50:22.0000000+00:00</time></trkpt><trkpt lat="38.98099389" lon="-0.4855546"><ele>138.6</ele><time>2022-11-13T13:50:23.0000000+00:00</time></trkpt><trkpt lat="38.98099339" lon="-0.48556809"><ele>138.6</ele><time>2022-11-13T13:50:24.0000000+00:00</time></trkpt><trkpt lat="38.98099297" lon="-0.48557379"><ele>138.6</ele><time>2022-11-13T13:50:25.0000000+00:00</time></trkpt><trkpt lat="38.98099515" lon="-0.4855779"><ele>138.6</ele><time>2022-11-13T13:50:26.0000000+00:00</time></trkpt><trkpt lat="38.98099716" lon="-0.48558871"><ele>138.6</ele><time>2022-11-13T13:50:27.0000000+00:00</time></trkpt><trkpt lat="38.98099808" lon="-0.48558855"><ele>138.8</ele><time>2022-11-13T13:50:28.0000000+00:00</time></trkpt><trkpt lat="38.98099825" lon="-0.4855888"><ele>138.8</ele><time>2022-11-13T13:50:29.0000000+00:00</time></trkpt><trkpt lat="38.98099833" lon="-0.48558326"><ele>138.8</ele><time>2022-11-13T13:50:30.0000000+00:00</time></trkpt><trkpt lat="38.98099531" lon="-0.48557019"><ele>138.8</ele><time>2022-11-13T13:50:31.0000000+00:00</time></trkpt><trkpt lat="38.98099414" lon="-0.48556751"><ele>138.8</ele><time>2022-11-13T13:50:32.0000000+00:00</time></trkpt><trkpt lat="38.98099372" lon="-0.48556801"><ele>138.8</ele><time>2022-11-13T13:50:33.0000000+00:00</time></trkpt><trkpt lat="38.98098744" lon="-0.48556835"><ele>138.8</ele><time>2022-11-13T13:50:34.0000000+00:00</time></trkpt><trkpt lat="38.980985" lon="-0.48557052"><ele>138.8</ele><time>2022-11-13T13:50:35.0000000+00:00</time></trkpt><trkpt lat="38.98098324" lon="-0.48556927"><ele>139.0</ele><time>2022-11-13T13:50:36.0000000+00:00</time></trkpt><trkpt lat="38.98097989" lon="-0.4855758"><ele>139.0</ele><time>2022-11-13T13:50:37.0000000+00:00</time></trkpt><trkpt lat="38.98097159" lon="-0.485581"><ele>139.0</ele><time>2022-11-13T13:50:38.0000000+00:00</time></trkpt><trkpt lat="38.98096388" lon="-0.48558829"><ele>139.0</ele><time>2022-11-13T13:50:39.0000000+00:00</time></trkpt><trkpt lat="38.98095978" lon="-0.48560171"><ele>139.0</ele><time>2022-11-13T13:50:40.0000000+00:00</time></trkpt><trkpt lat="38.98095709" lon="-0.48560774"><ele>139.0</ele><time>2022-11-13T13:50:41.0000000+00:00</time></trkpt><trkpt lat="38.9809493" lon="-0.48561604"><ele>139.0</ele><time>2022-11-13T13:50:42.0000000+00:00</time></trkpt><trkpt lat="38.98093832" lon="-0.48562073"><ele>139.0</ele><time>2022-11-13T13:50:43.0000000+00:00</time></trkpt><trkpt lat="38.98093111" lon="-0.48562786"><ele>139.2</ele><time>2022-11-13T13:50:44.0000000+00:00</time></trkpt><trkpt lat="38.98092549" lon="-0.48563859"><ele>139.2</ele><time>2022-11-13T13:50:45.0000000+00:00</time></trkpt><trkpt lat="38.98092415" lon="-0.48565543"><ele>139.2</ele><time>2022-11-13T13:50:46.0000000+00:00</time></trkpt><trkpt lat="38.98092021" lon="-0.48567102"><ele>139.2</ele><time>2022-11-13T13:50:47.0000000+00:00</time></trkpt><trkpt lat="38.9809146" lon="-0.4856846"><ele>139.2</ele><time>2022-11-13T13:50:48.0000000+00:00</time></trkpt><trkpt lat="38.98091376" lon="-0.48570187"><ele>139.2</ele><time>2022-11-13T13:50:49.0000000+00:00</time></trkpt><trkpt lat="38.98091359" lon="-0.48572064"><ele>139.4</ele><time>2022-11-13T13:50:50.0000000+00:00</time></trkpt><trkpt lat="38.98091133" lon="-0.48573732"><ele>139.4</ele><time>2022-11-13T13:50:51.0000000+00:00</time></trkpt><trkpt lat="38.98090806" lon="-0.48575216"><ele>139.4</ele><time>2022-11-13T13:50:52.0000000+00:00</time></trkpt><trkpt lat="38.98090278" lon="-0.48577244"><ele>139.4</ele><time>2022-11-13T13:50:53.0000000+00:00</time></trkpt><trkpt lat="38.98089884" lon="-0.48579021"><ele>139.4</ele><time>2022-11-13T13:50:54.0000000+00:00</time></trkpt><trkpt lat="38.98089792" lon="-0.48579818"><ele>139.4</ele><time>2022-11-13T13:50:55.0000000+00:00</time></trkpt><trkpt lat="38.98089993" lon="-0.48580446"><ele>139.4</ele><time>2022-11-13T13:50:56.0000000+00:00</time></trkpt><trkpt lat="38.98089984" lon="-0.48580756"><ele>139.4</ele><time>2022-11-13T13:50:57.0000000+00:00</time></trkpt><trkpt lat="38.98090018" lon="-0.48580874"><ele>139.4</ele><time>2022-11-13T13:50:58.0000000+00:00</time></trkpt><trkpt lat="38.98090144" lon="-0.48580991"><ele>139.4</ele><time>2022-11-13T13:50:59.0000000+00:00</time></trkpt><trkpt lat="38.98090211" lon="-0.48581134"><ele>139.4</ele><time>2022-11-13T13:51:00.0000000+00:00</time></trkpt><trkpt lat="38.98090236" lon="-0.48581192"><ele>139.6</ele><time>2022-11-13T13:51:01.0000000+00:00</time></trkpt><trkpt lat="38.9809032" lon="-0.4858115"><ele>139.6</ele><time>2022-11-13T13:51:02.0000000+00:00</time></trkpt><trkpt lat="38.98090404" lon="-0.48581259"><ele>139.4</ele><time>2022-11-13T13:51:03.0000000+00:00</time></trkpt><trkpt lat="38.98090479" lon="-0.48581402"><ele>139.6</ele><time>2022-11-13T13:51:04.0000000+00:00</time></trkpt><trkpt lat="38.98089951" lon="-0.48581762"><ele>139.6</ele><time>2022-11-13T13:51:05.0000000+00:00</time></trkpt><trkpt lat="38.98089473" lon="-0.48582248"><ele>139.6</ele><time>2022-11-13T13:51:06.0000000+00:00</time></trkpt><trkpt lat="38.98089289" lon="-0.48582584"><ele>139.4</ele><time>2022-11-13T13:51:07.0000000+00:00</time></trkpt><trkpt lat="38.98089222" lon="-0.48582642"><ele>139.4</ele><time>2022-11-13T13:51:08.0000000+00:00</time></trkpt><trkpt lat="38.98089222" lon="-0.48582642"><ele>139.6</ele><time>2022-11-13T13:51:09.0000000+00:00</time></trkpt><trkpt lat="38.98089222" lon="-0.48582642"><ele>139.6</ele><time>2022-11-13T13:51:10.0000000+00:00</time></trkpt><trkpt lat="38.98089222" lon="-0.48582642"><ele>139.6</ele><time>2022-11-13T13:51:11.0000000+00:00</time></trkpt><trkpt lat="38.98089222" lon="-0.48582642"><ele>139.6</ele><time>2022-11-13T13:51:12.0000000+00:00</time></trkpt><trkpt lat="38.98089222" lon="-0.48582642"><ele>139.6</ele><time>2022-11-13T13:51:13.0000000+00:00</time></trkpt><trkpt lat="38.98089222" lon="-0.48582642"><ele>139.6</ele><time>2022-11-13T13:51:14.0000000+00:00</time></trkpt><trkpt lat="38.98089222" lon="-0.48582642"><ele>139.6</ele><time>2022-11-13T13:51:15.0000000+00:00</time></trkpt><trkpt lat="38.98089222" lon="-0.48582642"><ele>139.6</ele><time>2022-11-13T13:51:16.0000000+00:00</time></trkpt><trkpt lat="38.98089222" lon="-0.48582642"><ele>139.6</ele><time>2022-11-13T13:51:17.0000000+00:00</time></trkpt><trkpt lat="38.98089222" lon="-0.48582592"><ele>139.4</ele><time>2022-11-13T13:51:18.0000000+00:00</time></trkpt><trkpt lat="38.98089238" lon="-0.48582575"><ele>139.4</ele><time>2022-11-13T13:51:19.0000000+00:00</time></trkpt><trkpt lat="38.98089247" lon="-0.48582559"><ele>139.4</ele><time>2022-11-13T13:51:20.0000000+00:00</time></trkpt><trkpt lat="38.98089264" lon="-0.48582492"><ele>139.4</ele><time>2022-11-13T13:51:21.0000000+00:00</time></trkpt><trkpt lat="38.98089264" lon="-0.48582466"><ele>139.4</ele><time>2022-11-13T13:51:22.0000000+00:00</time></trkpt><trkpt lat="38.98089264" lon="-0.48582466"><ele>139.4</ele><time>2022-11-13T13:51:23.0000000+00:00</time></trkpt><trkpt lat="38.98089264" lon="-0.48582466"><ele>139.4</ele><time>2022-11-13T13:51:24.0000000+00:00</time></trkpt><trkpt lat="38.98089272" lon="-0.48582466"><ele>139.4</ele><time>2022-11-13T13:51:25.0000000+00:00</time></trkpt><trkpt lat="38.98089297" lon="-0.48582852"><ele>139.4</ele><time>2022-11-13T13:51:26.0000000+00:00</time></trkpt><trkpt lat="38.9808923" lon="-0.48584579"><ele>139.4</ele><time>2022-11-13T13:51:27.0000000+00:00</time></trkpt><trkpt lat="38.98089071" lon="-0.48586104"><ele>139.4</ele><time>2022-11-13T13:51:28.0000000+00:00</time></trkpt><trkpt lat="38.98088987" lon="-0.4858778"><ele>139.4</ele><time>2022-11-13T13:51:29.0000000+00:00</time></trkpt><trkpt lat="38.98088752" lon="-0.48589407"><ele>139.4</ele><time>2022-11-13T13:51:30.0000000+00:00</time></trkpt><trkpt lat="38.98088928" lon="-0.48590907"><ele>139.6</ele><time>2022-11-13T13:51:31.0000000+00:00</time></trkpt><trkpt lat="38.98089415" lon="-0.48592483"><ele>139.6</ele><time>2022-11-13T13:51:32.0000000+00:00</time></trkpt><trkpt lat="38.98089599" lon="-0.48593598"><ele>139.6</ele><time>2022-11-13T13:51:33.0000000+00:00</time></trkpt><trkpt lat="38.98089523" lon="-0.4859488"><ele>139.6</ele><time>2022-11-13T13:51:34.0000000+00:00</time></trkpt><trkpt lat="38.98089314" lon="-0.48596179"><ele>139.6</ele><time>2022-11-13T13:51:35.0000000+00:00</time></trkpt><trkpt lat="38.98088962" lon="-0.48597395"><ele>139.8</ele><time>2022-11-13T13:51:36.0000000+00:00</time></trkpt><trkpt lat="38.98088878" lon="-0.48598308"><ele>139.8</ele><time>2022-11-13T13:51:37.0000000+00:00</time></trkpt><trkpt lat="38.9808892" lon="-0.48599423"><ele>139.8</ele><time>2022-11-13T13:51:38.0000000+00:00</time></trkpt><trkpt lat="38.98088928" lon="-0.48600982"><ele>139.8</ele><time>2022-11-13T13:51:39.0000000+00:00</time></trkpt><trkpt lat="38.98089264" lon="-0.48602424"><ele>139.8</ele><time>2022-11-13T13:51:40.0000000+00:00</time></trkpt><trkpt lat="38.98089607" lon="-0.48603874"><ele>140.0</ele><time>2022-11-13T13:51:41.0000000+00:00</time></trkpt><trkpt lat="38.98089423" lon="-0.48605139"><ele>140.0</ele><time>2022-11-13T13:51:42.0000000+00:00</time></trkpt><trkpt lat="38.98089213" lon="-0.48606665"><ele>140.0</ele><time>2022-11-13T13:51:43.0000000+00:00</time></trkpt><trkpt lat="38.98088803" lon="-0.48608149"><ele>140.0</ele><time>2022-11-13T13:51:44.0000000+00:00</time></trkpt><trkpt lat="38.98088643" lon="-0.48609196"><ele>140.2</ele><time>2022-11-13T13:51:45.0000000+00:00</time></trkpt><trkpt lat="38.98087864" lon="-0.48610361"><ele>140.2</ele><time>2022-11-13T13:51:46.0000000+00:00</time></trkpt><trkpt lat="38.98087378" lon="-0.48611367"><ele>140.4</ele><time>2022-11-13T13:51:47.0000000+00:00</time></trkpt><trkpt lat="38.98087084" lon="-0.48613278"><ele>140.4</ele><time>2022-11-13T13:51:48.0000000+00:00</time></trkpt><trkpt lat="38.98086623" lon="-0.48614745"><ele>140.4</ele><time>2022-11-13T13:51:49.0000000+00:00</time></trkpt><trkpt lat="38.98086154" lon="-0.48616413"><ele>140.4</ele><time>2022-11-13T13:51:50.0000000+00:00</time></trkpt><trkpt lat="38.98085768" lon="-0.4861819"><ele>140.4</ele><time>2022-11-13T13:51:51.0000000+00:00</time></trkpt><trkpt lat="38.98085316" lon="-0.48619967"><ele>140.6</ele><time>2022-11-13T13:51:52.0000000+00:00</time></trkpt><trkpt lat="38.98085022" lon="-0.48621685"><ele>140.6</ele><time>2022-11-13T13:51:53.0000000+00:00</time></trkpt><trkpt lat="38.98084503" lon="-0.48623001"><ele>140.6</ele><time>2022-11-13T13:51:54.0000000+00:00</time></trkpt><trkpt lat="38.98084025" lon="-0.48624644"><ele>140.6</ele><time>2022-11-13T13:51:55.0000000+00:00</time></trkpt><trkpt lat="38.98083312" lon="-0.48625868"><ele>140.8</ele><time>2022-11-13T13:51:56.0000000+00:00</time></trkpt><trkpt lat="38.98082424" lon="-0.48627117"><ele>140.8</ele><time>2022-11-13T13:51:57.0000000+00:00</time></trkpt><trkpt lat="38.98082181" lon="-0.48628667"><ele>140.8</ele><time>2022-11-13T13:51:58.0000000+00:00</time></trkpt><trkpt lat="38.98081745" lon="-0.48629598"><ele>140.8</ele><time>2022-11-13T13:51:59.0000000+00:00</time></trkpt><trkpt lat="38.98081326" lon="-0.4863088"><ele>140.8</ele><time>2022-11-13T13:52:00.0000000+00:00</time></trkpt><trkpt lat="38.98081075" lon="-0.48632129"><ele>140.8</ele><time>2022-11-13T13:52:01.0000000+00:00</time></trkpt><trkpt lat="38.98080831" lon="-0.48633495"><ele>140.8</ele><time>2022-11-13T13:52:02.0000000+00:00</time></trkpt><trkpt lat="38.98080563" lon="-0.48635138"><ele>140.8</ele><time>2022-11-13T13:52:03.0000000+00:00</time></trkpt><trkpt lat="38.98080136" lon="-0.48636479"><ele>140.8</ele><time>2022-11-13T13:52:04.0000000+00:00</time></trkpt><trkpt lat="38.98079692" lon="-0.48637385"><ele>140.8</ele><time>2022-11-13T13:52:05.0000000+00:00</time></trkpt><trkpt lat="38.98079264" lon="-0.48638726"><ele>140.8</ele><time>2022-11-13T13:52:06.0000000+00:00</time></trkpt><trkpt lat="38.98078526" lon="-0.48640058"><ele>140.8</ele><time>2022-11-13T13:52:07.0000000+00:00</time></trkpt><trkpt lat="38.98077948" lon="-0.48641341"><ele>140.6</ele><time>2022-11-13T13:52:08.0000000+00:00</time></trkpt><trkpt lat="38.98077588" lon="-0.48642481"><ele>140.6</ele><time>2022-11-13T13:52:09.0000000+00:00</time></trkpt><trkpt lat="38.98076917" lon="-0.48643403"><ele>140.6</ele><time>2022-11-13T13:52:10.0000000+00:00</time></trkpt><trkpt lat="38.9807633" lon="-0.48644886"><ele>140.6</ele><time>2022-11-13T13:52:11.0000000+00:00</time></trkpt><trkpt lat="38.9807597" lon="-0.48646487"><ele>140.6</ele><time>2022-11-13T13:52:12.0000000+00:00</time></trkpt><trkpt lat="38.98075526" lon="-0.4864782"><ele>140.6</ele><time>2022-11-13T13:52:13.0000000+00:00</time></trkpt><trkpt lat="38.98074947" lon="-0.48649237"><ele>140.6</ele><time>2022-11-13T13:52:14.0000000+00:00</time></trkpt><trkpt lat="38.98074478" lon="-0.48650309"><ele>140.6</ele><time>2022-11-13T13:52:15.0000000+00:00</time></trkpt><trkpt lat="38.98073548" lon="-0.4865134"><ele>140.4</ele><time>2022-11-13T13:52:16.0000000+00:00</time></trkpt><trkpt lat="38.98072986" lon="-0.48653201"><ele>140.2</ele><time>2022-11-13T13:52:17.0000000+00:00</time></trkpt><trkpt lat="38.98072341" lon="-0.48655029"><ele>140.2</ele><time>2022-11-13T13:52:18.0000000+00:00</time></trkpt><trkpt lat="38.98071712" lon="-0.4865652"><ele>140.0</ele><time>2022-11-13T13:52:19.0000000+00:00</time></trkpt><trkpt lat="38.9807115" lon="-0.48657551"><ele>140.0</ele><time>2022-11-13T13:52:20.0000000+00:00</time></trkpt><trkpt lat="38.98070446" lon="-0.48658666"><ele>140.0</ele><time>2022-11-13T13:52:21.0000000+00:00</time></trkpt><trkpt lat="38.98069239" lon="-0.48659345"><ele>140.0</ele><time>2022-11-13T13:52:22.0000000+00:00</time></trkpt><trkpt lat="38.9806799" lon="-0.48660334"><ele>139.8</ele><time>2022-11-13T13:52:23.0000000+00:00</time></trkpt><trkpt lat="38.98067102" lon="-0.48661298"><ele>139.8</ele><time>2022-11-13T13:52:24.0000000+00:00</time></trkpt><trkpt lat="38.9806623" lon="-0.48662488"><ele>139.8</ele><time>2022-11-13T13:52:25.0000000+00:00</time></trkpt><trkpt lat="38.98065266" lon="-0.48663276"><ele>139.8</ele><time>2022-11-13T13:52:26.0000000+00:00</time></trkpt><trkpt lat="38.98064361" lon="-0.48664676"><ele>139.6</ele><time>2022-11-13T13:52:27.0000000+00:00</time></trkpt><trkpt lat="38.98064068" lon="-0.48666294"><ele>139.6</ele><time>2022-11-13T13:52:28.0000000+00:00</time></trkpt><trkpt lat="38.98063556" lon="-0.48668356"><ele>139.6</ele><time>2022-11-13T13:52:29.0000000+00:00</time></trkpt><trkpt lat="38.98062911" lon="-0.48670284"><ele>139.6</ele><time>2022-11-13T13:52:30.0000000+00:00</time></trkpt><trkpt lat="38.98062701" lon="-0.48671365"><ele>139.4</ele><time>2022-11-13T13:52:31.0000000+00:00</time></trkpt><trkpt lat="38.98062266" lon="-0.48672446"><ele>139.4</ele><time>2022-11-13T13:52:32.0000000+00:00</time></trkpt><trkpt lat="38.98061427" lon="-0.48673578"><ele>139.4</ele><time>2022-11-13T13:52:33.0000000+00:00</time></trkpt><trkpt lat="38.9806074" lon="-0.48674248"><ele>139.4</ele><time>2022-11-13T13:52:34.0000000+00:00</time></trkpt><trkpt lat="38.98060254" lon="-0.48675464"><ele>139.2</ele><time>2022-11-13T13:52:35.0000000+00:00</time></trkpt><trkpt lat="38.98059751" lon="-0.48676805"><ele>139.2</ele><time>2022-11-13T13:52:36.0000000+00:00</time></trkpt><trkpt lat="38.98059189" lon="-0.48678313"><ele>139.0</ele><time>2022-11-13T13:52:37.0000000+00:00</time></trkpt><trkpt lat="38.98058485" lon="-0.48679797"><ele>139.0</ele><time>2022-11-13T13:52:38.0000000+00:00</time></trkpt><trkpt lat="38.98057739" lon="-0.48680878"><ele>138.8</ele><time>2022-11-13T13:52:39.0000000+00:00</time></trkpt><trkpt lat="38.98056993" lon="-0.4868149"><ele>138.6</ele><time>2022-11-13T13:52:40.0000000+00:00</time></trkpt><trkpt lat="38.98055853" lon="-0.48682605"><ele>138.6</ele><time>2022-11-13T13:52:41.0000000+00:00</time></trkpt><trkpt lat="38.98054831" lon="-0.48683611"><ele>138.6</ele><time>2022-11-13T13:52:42.0000000+00:00</time></trkpt><trkpt lat="38.98054051" lon="-0.4868429"><ele>138.4</ele><time>2022-11-13T13:52:43.0000000+00:00</time></trkpt><trkpt lat="38.98053054" lon="-0.48684876"><ele>138.2</ele><time>2022-11-13T13:52:44.0000000+00:00</time></trkpt><trkpt lat="38.98052149" lon="-0.48685153"><ele>138.0</ele><time>2022-11-13T13:52:45.0000000+00:00</time></trkpt><trkpt lat="38.9805152" lon="-0.48685564"><ele>138.0</ele><time>2022-11-13T13:52:46.0000000+00:00</time></trkpt><trkpt lat="38.98050908" lon="-0.48686335"><ele>137.8</ele><time>2022-11-13T13:52:47.0000000+00:00</time></trkpt><trkpt lat="38.98050112" lon="-0.48687383"><ele>137.6</ele><time>2022-11-13T13:52:48.0000000+00:00</time></trkpt><trkpt lat="38.98049408" lon="-0.48688506"><ele>137.4</ele><time>2022-11-13T13:52:49.0000000+00:00</time></trkpt><trkpt lat="38.98047916" lon="-0.48689721"><ele>137.4</ele><time>2022-11-13T13:52:50.0000000+00:00</time></trkpt><trkpt lat="38.98046784" lon="-0.48690761"><ele>137.4</ele><time>2022-11-13T13:52:51.0000000+00:00</time></trkpt><trkpt lat="38.98045912" lon="-0.48691917"><ele>137.4</ele><time>2022-11-13T13:52:52.0000000+00:00</time></trkpt><trkpt lat="38.98045401" lon="-0.48693175"><ele>137.2</ele><time>2022-11-13T13:52:53.0000000+00:00</time></trkpt><trkpt lat="38.98045049" lon="-0.48694516"><ele>137.0</ele><time>2022-11-13T13:52:54.0000000+00:00</time></trkpt><trkpt lat="38.98044731" lon="-0.48695069"><ele>137.0</ele><time>2022-11-13T13:52:55.0000000+00:00</time></trkpt><trkpt lat="38.98044496" lon="-0.4869579"><ele>136.8</ele><time>2022-11-13T13:52:56.0000000+00:00</time></trkpt><trkpt lat="38.98043725" lon="-0.48697081"><ele>136.6</ele><time>2022-11-13T13:52:57.0000000+00:00</time></trkpt><trkpt lat="38.9804256" lon="-0.48698044"><ele>136.6</ele><time>2022-11-13T13:52:58.0000000+00:00</time></trkpt><trkpt lat="38.9804168" lon="-0.48699151"><ele>136.4</ele><time>2022-11-13T13:52:59.0000000+00:00</time></trkpt><trkpt lat="38.98040833" lon="-0.4870024"><ele>136.2</ele><time>2022-11-13T13:53:00.0000000+00:00</time></trkpt><trkpt lat="38.98039844" lon="-0.4870107"><ele>136.0</ele><time>2022-11-13T13:53:01.0000000+00:00</time></trkpt><trkpt lat="38.98039534" lon="-0.48702051"><ele>135.8</ele><time>2022-11-13T13:53:02.0000000+00:00</time></trkpt><trkpt lat="38.98038746" lon="-0.48702613"><ele>135.8</ele><time>2022-11-13T13:53:03.0000000+00:00</time></trkpt><trkpt lat="38.98037849" lon="-0.48703426"><ele>135.6</ele><time>2022-11-13T13:53:04.0000000+00:00</time></trkpt><trkpt lat="38.98037631" lon="-0.48704322"><ele>135.6</ele><time>2022-11-13T13:53:05.0000000+00:00</time></trkpt><trkpt lat="38.98037539" lon="-0.48704666"><ele>135.4</ele><time>2022-11-13T13:53:06.0000000+00:00</time></trkpt><trkpt lat="38.98037522" lon="-0.48704691"><ele>135.2</ele><time>2022-11-13T13:53:07.0000000+00:00</time></trkpt><trkpt lat="38.98037539" lon="-0.48704507"><ele>135.2</ele><time>2022-11-13T13:53:08.0000000+00:00</time></trkpt><trkpt lat="38.98037497" lon="-0.48704272"><ele>135.2</ele><time>2022-11-13T13:53:09.0000000+00:00</time></trkpt><trkpt lat="38.9803743" lon="-0.48704054"><ele>135.2</ele><time>2022-11-13T13:53:10.0000000+00:00</time></trkpt><trkpt lat="38.98037539" lon="-0.48704054"><ele>135.2</ele><time>2022-11-13T13:53:11.0000000+00:00</time></trkpt><trkpt lat="38.98037422" lon="-0.48703878"><ele>135.2</ele><time>2022-11-13T13:53:12.0000000+00:00</time></trkpt><trkpt lat="38.98037162" lon="-0.48703828"><ele>135.2</ele><time>2022-11-13T13:53:13.0000000+00:00</time></trkpt><trkpt lat="38.98036659" lon="-0.48703979"><ele>135.2</ele><time>2022-11-13T13:53:14.0000000+00:00</time></trkpt><trkpt lat="38.98036013" lon="-0.48703929"><ele>135.0</ele><time>2022-11-13T13:53:15.0000000+00:00</time></trkpt><trkpt lat="38.98035008" lon="-0.48703618"><ele>134.8</ele><time>2022-11-13T13:53:16.0000000+00:00</time></trkpt><trkpt lat="38.9803432" lon="-0.48703518"><ele>134.8</ele><time>2022-11-13T13:53:17.0000000+00:00</time></trkpt><trkpt lat="38.98033323" lon="-0.48703359"><ele>134.8</ele><time>2022-11-13T13:53:18.0000000+00:00</time></trkpt><trkpt lat="38.98032703" lon="-0.48703635"><ele>134.6</ele><time>2022-11-13T13:53:19.0000000+00:00</time></trkpt><trkpt lat="38.98031915" lon="-0.48704146"><ele>134.4</ele><time>2022-11-13T13:53:20.0000000+00:00</time></trkpt><trkpt lat="38.98031135" lon="-0.48704733"><ele>134.2</ele><time>2022-11-13T13:53:21.0000000+00:00</time></trkpt><trkpt lat="38.98030154" lon="-0.48705529"><ele>134.2</ele><time>2022-11-13T13:53:22.0000000+00:00</time></trkpt><trkpt lat="38.9802945" lon="-0.48706351"><ele>133.8</ele><time>2022-11-13T13:53:23.0000000+00:00</time></trkpt><trkpt lat="38.9802914" lon="-0.48707223"><ele>133.6</ele><time>2022-11-13T13:53:24.0000000+00:00</time></trkpt><trkpt lat="38.98028394" lon="-0.48708086"><ele>133.6</ele><time>2022-11-13T13:53:25.0000000+00:00</time></trkpt><trkpt lat="38.98027766" lon="-0.48708472"><ele>133.4</ele><time>2022-11-13T13:53:26.0000000+00:00</time></trkpt><trkpt lat="38.9802738" lon="-0.48709159"><ele>133.4</ele><time>2022-11-13T13:53:27.0000000+00:00</time></trkpt><trkpt lat="38.98027196" lon="-0.48709435"><ele>133.2</ele><time>2022-11-13T13:53:28.0000000+00:00</time></trkpt><trkpt lat="38.98027682" lon="-0.48709913"><ele>133.2</ele><time>2022-11-13T13:53:29.0000000+00:00</time></trkpt><trkpt lat="38.98027841" lon="-0.48709947"><ele>133.2</ele><time>2022-11-13T13:53:30.0000000+00:00</time></trkpt><trkpt lat="38.98027891" lon="-0.48709427"><ele>133.2</ele><time>2022-11-13T13:53:31.0000000+00:00</time></trkpt><trkpt lat="38.98027732" lon="-0.48709041"><ele>133.2</ele><time>2022-11-13T13:53:32.0000000+00:00</time></trkpt><trkpt lat="38.98027556" lon="-0.4870915"><ele>133.2</ele><time>2022-11-13T13:53:33.0000000+00:00</time></trkpt><trkpt lat="38.98027564" lon="-0.48709184"><ele>133.2</ele><time>2022-11-13T13:53:34.0000000+00:00</time></trkpt><trkpt lat="38.98026936" lon="-0.48709679"><ele>133.2</ele><time>2022-11-13T13:53:35.0000000+00:00</time></trkpt><trkpt lat="38.98025972" lon="-0.48710517"><ele>133.2</ele><time>2022-11-13T13:53:36.0000000+00:00</time></trkpt><trkpt lat="38.98024865" lon="-0.48711447"><ele>132.8</ele><time>2022-11-13T13:53:37.0000000+00:00</time></trkpt><trkpt lat="38.98023726" lon="-0.4871143"><ele>132.8</ele><time>2022-11-13T13:53:38.0000000+00:00</time></trkpt><trkpt lat="38.98022242" lon="-0.48712185"><ele>132.6</ele><time>2022-11-13T13:53:39.0000000+00:00</time></trkpt><trkpt lat="38.98021119" lon="-0.48713442"><ele>132.6</ele><time>2022-11-13T13:53:40.0000000+00:00</time></trkpt><trkpt lat="38.98019669" lon="-0.48714951"><ele>132.4</ele><time>2022-11-13T13:53:41.0000000+00:00</time></trkpt><trkpt lat="38.98018336" lon="-0.48715839"><ele>132.4</ele><time>2022-11-13T13:53:42.0000000+00:00</time></trkpt><trkpt lat="38.9801754" lon="-0.48716543"><ele>132.4</ele><time>2022-11-13T13:53:43.0000000+00:00</time></trkpt><trkpt lat="38.98016375" lon="-0.48717591"><ele>132.2</ele><time>2022-11-13T13:53:44.0000000+00:00</time></trkpt><trkpt lat="38.98015687" lon="-0.48718723"><ele>132.2</ele><time>2022-11-13T13:53:45.0000000+00:00</time></trkpt><trkpt lat="38.98014916" lon="-0.48720248"><ele>132.2</ele><time>2022-11-13T13:53:46.0000000+00:00</time></trkpt><trkpt lat="38.98014388" lon="-0.48721782"><ele>132.0</ele><time>2022-11-13T13:53:47.0000000+00:00</time></trkpt><trkpt lat="38.98013743" lon="-0.48722838"><ele>132.0</ele><time>2022-11-13T13:53:48.0000000+00:00</time></trkpt><trkpt lat="38.98013064" lon="-0.48724079"><ele>132.0</ele><time>2022-11-13T13:53:49.0000000+00:00</time></trkpt><trkpt lat="38.98012661" lon="-0.48725478"><ele>132.0</ele><time>2022-11-13T13:53:50.0000000+00:00</time></trkpt><trkpt lat="38.98012519" lon="-0.48726962"><ele>132.0</ele><time>2022-11-13T13:53:51.0000000+00:00</time></trkpt><trkpt lat="38.98011907" lon="-0.48728898"><ele>132.0</ele><time>2022-11-13T13:53:52.0000000+00:00</time></trkpt><trkpt lat="38.98011086" lon="-0.48729904"><ele>132.0</ele><time>2022-11-13T13:53:53.0000000+00:00</time></trkpt><trkpt lat="38.98010373" lon="-0.48730767"><ele>132.0</ele><time>2022-11-13T13:53:54.0000000+00:00</time></trkpt><trkpt lat="38.98009711" lon="-0.48732075"><ele>132.0</ele><time>2022-11-13T13:53:55.0000000+00:00</time></trkpt><trkpt lat="38.98009049" lon="-0.48733156"><ele>132.0</ele><time>2022-11-13T13:53:56.0000000+00:00</time></trkpt><trkpt lat="38.98008236" lon="-0.48734028"><ele>132.2</ele><time>2022-11-13T13:53:57.0000000+00:00</time></trkpt><trkpt lat="38.98007305" lon="-0.48734908"><ele>132.2</ele><time>2022-11-13T13:53:58.0000000+00:00</time></trkpt><trkpt lat="38.98006258" lon="-0.48735444"><ele>132.0</ele><time>2022-11-13T13:53:59.0000000+00:00</time></trkpt><trkpt lat="38.98005478" lon="-0.48736442"><ele>132.0</ele><time>2022-11-13T13:54:00.0000000+00:00</time></trkpt><trkpt lat="38.98004288" lon="-0.48736383"><ele>132.0</ele><time>2022-11-13T13:54:01.0000000+00:00</time></trkpt><trkpt lat="38.98003274" lon="-0.4873733"><ele>132.0</ele><time>2022-11-13T13:54:02.0000000+00:00</time></trkpt><trkpt lat="38.98002544" lon="-0.48738965"><ele>132.0</ele><time>2022-11-13T13:54:03.0000000+00:00</time></trkpt><trkpt lat="38.98001581" lon="-0.48740474"><ele>132.0</ele><time>2022-11-13T13:54:04.0000000+00:00</time></trkpt><trkpt lat="38.98000734" lon="-0.48741262"><ele>132.0</ele><time>2022-11-13T13:54:05.0000000+00:00</time></trkpt><trkpt lat="38.97999711" lon="-0.48742795"><ele>132.0</ele><time>2022-11-13T13:54:06.0000000+00:00</time></trkpt><trkpt lat="38.97999007" lon="-0.48745235"><ele>132.0</ele><time>2022-11-13T13:54:07.0000000+00:00</time></trkpt><trkpt lat="38.97998747" lon="-0.48746894"><ele>132.0</ele><time>2022-11-13T13:54:08.0000000+00:00</time></trkpt><trkpt lat="38.97998639" lon="-0.48748411"><ele>132.0</ele><time>2022-11-13T13:54:09.0000000+00:00</time></trkpt><trkpt lat="38.97997649" lon="-0.48749476"><ele>131.8</ele><time>2022-11-13T13:54:10.0000000+00:00</time></trkpt><trkpt lat="38.97996518" lon="-0.48750297"><ele>131.8</ele><time>2022-11-13T13:54:11.0000000+00:00</time></trkpt><trkpt lat="38.9799537" lon="-0.48751026"><ele>131.8</ele><time>2022-11-13T13:54:12.0000000+00:00</time></trkpt><trkpt lat="38.97994154" lon="-0.48752007"><ele>131.6</ele><time>2022-11-13T13:54:13.0000000+00:00</time></trkpt><trkpt lat="38.97992821" lon="-0.48753105"><ele>131.6</ele><time>2022-11-13T13:54:14.0000000+00:00</time></trkpt><trkpt lat="38.97991782" lon="-0.4875339"><ele>131.4</ele><time>2022-11-13T13:54:15.0000000+00:00</time></trkpt><trkpt lat="38.97990843" lon="-0.48753684"><ele>131.4</ele><time>2022-11-13T13:54:16.0000000+00:00</time></trkpt><trkpt lat="38.97990391" lon="-0.48752812"><ele>131.2</ele><time>2022-11-13T13:54:17.0000000+00:00</time></trkpt><trkpt lat="38.97990122" lon="-0.48752837"><ele>131.2</ele><time>2022-11-13T13:54:18.0000000+00:00</time></trkpt><trkpt lat="38.97989997" lon="-0.48752753"><ele>131.0</ele><time>2022-11-13T13:54:19.0000000+00:00</time></trkpt><trkpt lat="38.97990173" lon="-0.48752787"><ele>131.0</ele><time>2022-11-13T13:54:20.0000000+00:00</time></trkpt><trkpt lat="38.97990366" lon="-0.4875277"><ele>131.0</ele><time>2022-11-13T13:54:21.0000000+00:00</time></trkpt><trkpt lat="38.97990516" lon="-0.48752736"><ele>131.0</ele><time>2022-11-13T13:54:22.0000000+00:00</time></trkpt><trkpt lat="38.97990399" lon="-0.48752753"><ele>130.8</ele><time>2022-11-13T13:54:23.0000000+00:00</time></trkpt><trkpt lat="38.97989854" lon="-0.48752661"><ele>131.0</ele><time>2022-11-13T13:54:24.0000000+00:00</time></trkpt><trkpt lat="38.97989376" lon="-0.48752912"><ele>131.0</ele><time>2022-11-13T13:54:25.0000000+00:00</time></trkpt><trkpt lat="38.97988102" lon="-0.48753281"><ele>131.0</ele><time>2022-11-13T13:54:26.0000000+00:00</time></trkpt><trkpt lat="38.9798646" lon="-0.48753072"><ele>131.0</ele><time>2022-11-13T13:54:27.0000000+00:00</time></trkpt><trkpt lat="38.97985127" lon="-0.48752736"><ele>131.0</ele><time>2022-11-13T13:54:28.0000000+00:00</time></trkpt><trkpt lat="38.97983844" lon="-0.4875272"><ele>131.0</ele><time>2022-11-13T13:54:29.0000000+00:00</time></trkpt><trkpt lat="38.97983107" lon="-0.48752879"><ele>131.0</ele><time>2022-11-13T13:54:30.0000000+00:00</time></trkpt><trkpt lat="38.9798159" lon="-0.48753155"><ele>131.0</ele><time>2022-11-13T13:54:31.0000000+00:00</time></trkpt><trkpt lat="38.97980886" lon="-0.48753667"><ele>131.0</ele><time>2022-11-13T13:54:32.0000000+00:00</time></trkpt><trkpt lat="38.97979612" lon="-0.48753558"><ele>131.0</ele><time>2022-11-13T13:54:33.0000000+00:00</time></trkpt><trkpt lat="38.97978438" lon="-0.48753407"><ele>131.0</ele><time>2022-11-13T13:54:34.0000000+00:00</time></trkpt><trkpt lat="38.97976896" lon="-0.48753692"><ele>131.0</ele><time>2022-11-13T13:54:35.0000000+00:00</time></trkpt><trkpt lat="38.97975781" lon="-0.48753985"><ele>130.8</ele><time>2022-11-13T13:54:36.0000000+00:00</time></trkpt><trkpt lat="38.97974289" lon="-0.4875474"><ele>130.8</ele><time>2022-11-13T13:54:37.0000000+00:00</time></trkpt><trkpt lat="38.97973057" lon="-0.48755427"><ele>130.8</ele><time>2022-11-13T13:54:38.0000000+00:00</time></trkpt><trkpt lat="38.97971766" lon="-0.48755595"><ele>130.8</ele><time>2022-11-13T13:54:39.0000000+00:00</time></trkpt><trkpt lat="38.97970769" lon="-0.48755729"><ele>130.8</ele><time>2022-11-13T13:54:40.0000000+00:00</time></trkpt><trkpt lat="38.97969645" lon="-0.48756642"><ele>130.6</ele><time>2022-11-13T13:54:41.0000000+00:00</time></trkpt><trkpt lat="38.97968397" lon="-0.48757137"><ele>130.6</ele><time>2022-11-13T13:54:42.0000000+00:00</time></trkpt><trkpt lat="38.97966997" lon="-0.48757338"><ele>130.6</ele><time>2022-11-13T13:54:43.0000000+00:00</time></trkpt><trkpt lat="38.97965848" lon="-0.48757757"><ele>130.6</ele><time>2022-11-13T13:54:44.0000000+00:00</time></trkpt><trkpt lat="38.97964742" lon="-0.48758176"><ele>130.6</ele><time>2022-11-13T13:54:45.0000000+00:00</time></trkpt><trkpt lat="38.9796382" lon="-0.48758671"><ele>130.6</ele><time>2022-11-13T13:54:46.0000000+00:00</time></trkpt><trkpt lat="38.97962756" lon="-0.48759107"><ele>130.6</ele><time>2022-11-13T13:54:47.0000000+00:00</time></trkpt><trkpt lat="38.9796206" lon="-0.4875961"><ele>130.4</ele><time>2022-11-13T13:54:48.0000000+00:00</time></trkpt><trkpt lat="38.9796159" lon="-0.48760205"><ele>130.4</ele><time>2022-11-13T13:54:49.0000000+00:00</time></trkpt><trkpt lat="38.97960618" lon="-0.48761068"><ele>130.4</ele><time>2022-11-13T13:54:50.0000000+00:00</time></trkpt><trkpt lat="38.97959537" lon="-0.4876204"><ele>130.4</ele><time>2022-11-13T13:54:51.0000000+00:00</time></trkpt><trkpt lat="38.97958607" lon="-0.48762878"><ele>130.4</ele><time>2022-11-13T13:54:52.0000000+00:00</time></trkpt><trkpt lat="38.97957408" lon="-0.48763868"><ele>130.4</ele><time>2022-11-13T13:54:53.0000000+00:00</time></trkpt><trkpt lat="38.97956402" lon="-0.48764865"><ele>130.4</ele><time>2022-11-13T13:54:54.0000000+00:00</time></trkpt><trkpt lat="38.97955388" lon="-0.48765653"><ele>130.4</ele><time>2022-11-13T13:54:55.0000000+00:00</time></trkpt><trkpt lat="38.97954038" lon="-0.48766114"><ele>130.4</ele><time>2022-11-13T13:54:56.0000000+00:00</time></trkpt><trkpt lat="38.97952873" lon="-0.48767639"><ele>130.4</ele><time>2022-11-13T13:54:57.0000000+00:00</time></trkpt><trkpt lat="38.97951549" lon="-0.48768385"><ele>130.4</ele><time>2022-11-13T13:54:58.0000000+00:00</time></trkpt><trkpt lat="38.97950367" lon="-0.48769316"><ele>130.4</ele><time>2022-11-13T13:54:59.0000000+00:00</time></trkpt><trkpt lat="38.97949521" lon="-0.48770146"><ele>130.4</ele><time>2022-11-13T13:55:00.0000000+00:00</time></trkpt><trkpt lat="38.97948431" lon="-0.48771478"><ele>130.4</ele><time>2022-11-13T13:55:01.0000000+00:00</time></trkpt><trkpt lat="38.97947752" lon="-0.48772627"><ele>130.4</ele><time>2022-11-13T13:55:02.0000000+00:00</time></trkpt><trkpt lat="38.97947232" lon="-0.48774404"><ele>130.4</ele><time>2022-11-13T13:55:03.0000000+00:00</time></trkpt><trkpt lat="38.97946453" lon="-0.48775669"><ele>130.6</ele><time>2022-11-13T13:55:04.0000000+00:00</time></trkpt><trkpt lat="38.97945774" lon="-0.48776625"><ele>130.6</ele><time>2022-11-13T13:55:05.0000000+00:00</time></trkpt><trkpt lat="38.97945405" lon="-0.48777664"><ele>130.8</ele><time>2022-11-13T13:55:06.0000000+00:00</time></trkpt><trkpt lat="38.979445" lon="-0.48777815"><ele>131.0</ele><time>2022-11-13T13:55:07.0000000+00:00</time></trkpt><trkpt lat="38.9794393" lon="-0.48778988"><ele>131.0</ele><time>2022-11-13T13:55:08.0000000+00:00</time></trkpt><trkpt lat="38.97943427" lon="-0.48779625"><ele>131.2</ele><time>2022-11-13T13:55:09.0000000+00:00</time></trkpt><trkpt lat="38.97943117" lon="-0.48780564"><ele>131.2</ele><time>2022-11-13T13:55:10.0000000+00:00</time></trkpt><trkpt lat="38.97942916" lon="-0.48781386"><ele>131.2</ele><time>2022-11-13T13:55:11.0000000+00:00</time></trkpt><trkpt lat="38.97942178" lon="-0.48782375"><ele>131.4</ele><time>2022-11-13T13:55:12.0000000+00:00</time></trkpt><trkpt lat="38.97941524" lon="-0.48783129"><ele>131.8</ele><time>2022-11-13T13:55:13.0000000+00:00</time></trkpt><trkpt lat="38.97940284" lon="-0.48783909"><ele>131.8</ele><time>2022-11-13T13:55:14.0000000+00:00</time></trkpt><trkpt lat="38.97939345" lon="-0.48784906"><ele>132.0</ele><time>2022-11-13T13:55:15.0000000+00:00</time></trkpt><trkpt lat="38.97938423" lon="-0.48786088"><ele>132.0</ele><time>2022-11-13T13:55:16.0000000+00:00</time></trkpt><trkpt lat="38.97937082" lon="-0.48786264"><ele>132.0</ele><time>2022-11-13T13:55:17.0000000+00:00</time></trkpt><trkpt lat="38.97936168" lon="-0.48786976"><ele>132.2</ele><time>2022-11-13T13:55:18.0000000+00:00</time></trkpt><trkpt lat="38.9793507" lon="-0.48787504"><ele>132.4</ele><time>2022-11-13T13:55:19.0000000+00:00</time></trkpt><trkpt lat="38.97934081" lon="-0.48788804"><ele>132.4</ele><time>2022-11-13T13:55:20.0000000+00:00</time></trkpt><trkpt lat="38.97933369" lon="-0.48790078"><ele>132.6</ele><time>2022-11-13T13:55:21.0000000+00:00</time></trkpt><trkpt lat="38.97932036" lon="-0.48791176"><ele>132.6</ele><time>2022-11-13T13:55:22.0000000+00:00</time></trkpt><trkpt lat="38.97931357" lon="-0.48792458"><ele>132.6</ele><time>2022-11-13T13:55:23.0000000+00:00</time></trkpt><trkpt lat="38.97930158" lon="-0.48793104"><ele>132.6</ele><time>2022-11-13T13:55:24.0000000+00:00</time></trkpt><trkpt lat="38.97929027" lon="-0.48793355"><ele>132.6</ele><time>2022-11-13T13:55:25.0000000+00:00</time></trkpt><trkpt lat="38.97928256" lon="-0.48793925"><ele>132.6</ele><time>2022-11-13T13:55:26.0000000+00:00</time></trkpt><trkpt lat="38.97927585" lon="-0.48794755"><ele>132.6</ele><time>2022-11-13T13:55:27.0000000+00:00</time></trkpt><trkpt lat="38.97926303" lon="-0.48795811"><ele>132.6</ele><time>2022-11-13T13:55:28.0000000+00:00</time></trkpt><trkpt lat="38.97925288" lon="-0.48796649"><ele>132.4</ele><time>2022-11-13T13:55:29.0000000+00:00</time></trkpt><trkpt lat="38.97924584" lon="-0.48798258"><ele>132.4</ele><time>2022-11-13T13:55:30.0000000+00:00</time></trkpt><trkpt lat="38.97923872" lon="-0.48798543"><ele>132.4</ele><time>2022-11-13T13:55:31.0000000+00:00</time></trkpt><trkpt lat="38.97923335" lon="-0.48798074"><ele>132.4</ele><time>2022-11-13T13:55:32.0000000+00:00</time></trkpt><trkpt lat="38.97923" lon="-0.4879799"><ele>132.4</ele><time>2022-11-13T13:55:33.0000000+00:00</time></trkpt><trkpt lat="38.97922958" lon="-0.48797772"><ele>132.4</ele><time>2022-11-13T13:55:34.0000000+00:00</time></trkpt><trkpt lat="38.97923042" lon="-0.48797362"><ele>132.4</ele><time>2022-11-13T13:55:35.0000000+00:00</time></trkpt><trkpt lat="38.97922983" lon="-0.48797001"><ele>132.4</ele><time>2022-11-13T13:55:36.0000000+00:00</time></trkpt><trkpt lat="38.97922724" lon="-0.48797328"><ele>132.4</ele><time>2022-11-13T13:55:37.0000000+00:00</time></trkpt><trkpt lat="38.97922958" lon="-0.48798099"><ele>132.4</ele><time>2022-11-13T13:55:38.0000000+00:00</time></trkpt><trkpt lat="38.97922933" lon="-0.48798502"><ele>132.4</ele><time>2022-11-13T13:55:39.0000000+00:00</time></trkpt><trkpt lat="38.97922874" lon="-0.48798854"><ele>132.4</ele><time>2022-11-13T13:55:40.0000000+00:00</time></trkpt><trkpt lat="38.97923025" lon="-0.4879934"><ele>132.4</ele><time>2022-11-13T13:55:41.0000000+00:00</time></trkpt><trkpt lat="38.97922891" lon="-0.487997"><ele>132.4</ele><time>2022-11-13T13:55:42.0000000+00:00</time></trkpt><trkpt lat="38.97922246" lon="-0.48800563"><ele>132.4</ele><time>2022-11-13T13:55:43.0000000+00:00</time></trkpt><trkpt lat="38.97921056" lon="-0.48801502"><ele>132.4</ele><time>2022-11-13T13:55:44.0000000+00:00</time></trkpt><trkpt lat="38.97920108" lon="-0.48802257"><ele>132.4</ele><time>2022-11-13T13:55:45.0000000+00:00</time></trkpt><trkpt lat="38.97919404" lon="-0.48803321"><ele>132.4</ele><time>2022-11-13T13:55:46.0000000+00:00</time></trkpt><trkpt lat="38.97918399" lon="-0.48804528"><ele>132.4</ele><time>2022-11-13T13:55:47.0000000+00:00</time></trkpt><trkpt lat="38.979172" lon="-0.48805366"><ele>132.4</ele><time>2022-11-13T13:55:48.0000000+00:00</time></trkpt><trkpt lat="38.97915934" lon="-0.48806154"><ele>132.4</ele><time>2022-11-13T13:55:49.0000000+00:00</time></trkpt><trkpt lat="38.97914912" lon="-0.48806531"><ele>132.4</ele><time>2022-11-13T13:55:50.0000000+00:00</time></trkpt><trkpt lat="38.97914241" lon="-0.48806883"><ele>132.4</ele><time>2022-11-13T13:55:51.0000000+00:00</time></trkpt><trkpt lat="38.97913529" lon="-0.48807789"><ele>132.4</ele><time>2022-11-13T13:55:52.0000000+00:00</time></trkpt><trkpt lat="38.97912615" lon="-0.48808878"><ele>132.4</ele><time>2022-11-13T13:55:53.0000000+00:00</time></trkpt><trkpt lat="38.97911701" lon="-0.48810052"><ele>132.4</ele><time>2022-11-13T13:55:54.0000000+00:00</time></trkpt><trkpt lat="38.97910922" lon="-0.48811426"><ele>132.4</ele><time>2022-11-13T13:55:55.0000000+00:00</time></trkpt><trkpt lat="38.97910209" lon="-0.48812457"><ele>132.4</ele><time>2022-11-13T13:55:56.0000000+00:00</time></trkpt><trkpt lat="38.97909673" lon="-0.4881348"><ele>132.4</ele><time>2022-11-13T13:55:57.0000000+00:00</time></trkpt><trkpt lat="38.97908307" lon="-0.48814519"><ele>132.4</ele><time>2022-11-13T13:55:58.0000000+00:00</time></trkpt><trkpt lat="38.97906966" lon="-0.48815056"><ele>132.4</ele><time>2022-11-13T13:55:59.0000000+00:00</time></trkpt><trkpt lat="38.97906278" lon="-0.48815852"><ele>132.4</ele><time>2022-11-13T13:56:00.0000000+00:00</time></trkpt><trkpt lat="38.97905289" lon="-0.48816347"><ele>132.6</ele><time>2022-11-13T13:56:01.0000000+00:00</time></trkpt><trkpt lat="38.97904392" lon="-0.48817361"><ele>132.4</ele><time>2022-11-13T13:56:02.0000000+00:00</time></trkpt><trkpt lat="38.9790306" lon="-0.48818199"><ele>132.4</ele><time>2022-11-13T13:56:03.0000000+00:00</time></trkpt><trkpt lat="38.97902783" lon="-0.4881975"><ele>132.4</ele><time>2022-11-13T13:56:04.0000000+00:00</time></trkpt><trkpt lat="38.97901786" lon="-0.48820932"><ele>132.4</ele><time>2022-11-13T13:56:05.0000000+00:00</time></trkpt><trkpt lat="38.97901031" lon="-0.48822692"><ele>132.4</ele><time>2022-11-13T13:56:06.0000000+00:00</time></trkpt><trkpt lat="38.97900034" lon="-0.48824075"><ele>132.4</ele><time>2022-11-13T13:56:07.0000000+00:00</time></trkpt><trkpt lat="38.97898911" lon="-0.48825391"><ele>132.4</ele><time>2022-11-13T13:56:08.0000000+00:00</time></trkpt><trkpt lat="38.9789788" lon="-0.48825986"><ele>132.4</ele><time>2022-11-13T13:56:09.0000000+00:00</time></trkpt><trkpt lat="38.97896203" lon="-0.48826614"><ele>132.2</ele><time>2022-11-13T13:56:10.0000000+00:00</time></trkpt><trkpt lat="38.97895105" lon="-0.4882793"><ele>132.2</ele><time>2022-11-13T13:56:11.0000000+00:00</time></trkpt><trkpt lat="38.97893613" lon="-0.48828911"><ele>132.2</ele><time>2022-11-13T13:56:12.0000000+00:00</time></trkpt><trkpt lat="38.97892674" lon="-0.48829909"><ele>132.2</ele><time>2022-11-13T13:56:13.0000000+00:00</time></trkpt><trkpt lat="38.97891308" lon="-0.48831191"><ele>132.2</ele><time>2022-11-13T13:56:14.0000000+00:00</time></trkpt><trkpt lat="38.97890613" lon="-0.48833169"><ele>132.4</ele><time>2022-11-13T13:56:15.0000000+00:00</time></trkpt><trkpt lat="38.97890126" lon="-0.48834636"><ele>132.4</ele><time>2022-11-13T13:56:16.0000000+00:00</time></trkpt><trkpt lat="38.97889825" lon="-0.48836178"><ele>132.4</ele><time>2022-11-13T13:56:17.0000000+00:00</time></trkpt><trkpt lat="38.97889456" lon="-0.48837511"><ele>132.4</ele><time>2022-11-13T13:56:18.0000000+00:00</time></trkpt><trkpt lat="38.97888819" lon="-0.48838265"><ele>132.2</ele><time>2022-11-13T13:56:19.0000000+00:00</time></trkpt><trkpt lat="38.97888131" lon="-0.48839129"><ele>132.2</ele><time>2022-11-13T13:56:20.0000000+00:00</time></trkpt><trkpt lat="38.97887545" lon="-0.48840084"><ele>132.2</ele><time>2022-11-13T13:56:21.0000000+00:00</time></trkpt><trkpt lat="38.97887134" lon="-0.48841056"><ele>132.2</ele><time>2022-11-13T13:56:22.0000000+00:00</time></trkpt><trkpt lat="38.9788679" lon="-0.48842272"><ele>132.2</ele><time>2022-11-13T13:56:23.0000000+00:00</time></trkpt><trkpt lat="38.97886648" lon="-0.48843001"><ele>132.4</ele><time>2022-11-13T13:56:24.0000000+00:00</time></trkpt><trkpt lat="38.97886078" lon="-0.48844317"><ele>132.4</ele><time>2022-11-13T13:56:25.0000000+00:00</time></trkpt><trkpt lat="38.97885609" lon="-0.48845398"><ele>132.4</ele><time>2022-11-13T13:56:26.0000000+00:00</time></trkpt><trkpt lat="38.9788441" lon="-0.48846345"><ele>132.4</ele><time>2022-11-13T13:56:27.0000000+00:00</time></trkpt><trkpt lat="38.97884192" lon="-0.48847737"><ele>132.4</ele><time>2022-11-13T13:56:28.0000000+00:00</time></trkpt><trkpt lat="38.97884351" lon="-0.4884964"><ele>132.4</ele><time>2022-11-13T13:56:29.0000000+00:00</time></trkpt><trkpt lat="38.97884259" lon="-0.48851031"><ele>132.4</ele><time>2022-11-13T13:56:30.0000000+00:00</time></trkpt><trkpt lat="38.97883907" lon="-0.48852464"><ele>132.2</ele><time>2022-11-13T13:56:31.0000000+00:00</time></trkpt><trkpt lat="38.97883371" lon="-0.48853462"><ele>132.2</ele><time>2022-11-13T13:56:32.0000000+00:00</time></trkpt><trkpt lat="38.97882951" lon="-0.48854602"><ele>132.0</ele><time>2022-11-13T13:56:33.0000000+00:00</time></trkpt><trkpt lat="38.97882382" lon="-0.48855959"><ele>132.0</ele><time>2022-11-13T13:56:34.0000000+00:00</time></trkpt><trkpt lat="38.97882021" lon="-0.4885746"><ele>132.0</ele><time>2022-11-13T13:56:35.0000000+00:00</time></trkpt><trkpt lat="38.97881476" lon="-0.48857963"><ele>132.0</ele><time>2022-11-13T13:56:36.0000000+00:00</time></trkpt><trkpt lat="38.97880646" lon="-0.48858021"><ele>132.0</ele><time>2022-11-13T13:56:37.0000000+00:00</time></trkpt><trkpt lat="38.97880227" lon="-0.48858273"><ele>132.0</ele><time>2022-11-13T13:56:38.0000000+00:00</time></trkpt><trkpt lat="38.97879808" lon="-0.48858952"><ele>131.8</ele><time>2022-11-13T13:56:39.0000000+00:00</time></trkpt><trkpt lat="38.97878685" lon="-0.48858885"><ele>131.8</ele><time>2022-11-13T13:56:40.0000000+00:00</time></trkpt><trkpt lat="38.97878266" lon="-0.48858767"><ele>131.8</ele><time>2022-11-13T13:56:41.0000000+00:00</time></trkpt><trkpt lat="38.97878291" lon="-0.48860041"><ele>131.8</ele><time>2022-11-13T13:56:42.0000000+00:00</time></trkpt><trkpt lat="38.97878191" lon="-0.4886062"><ele>131.8</ele><time>2022-11-13T13:56:43.0000000+00:00</time></trkpt><trkpt lat="38.97877939" lon="-0.48861617"><ele>131.8</ele><time>2022-11-13T13:56:44.0000000+00:00</time></trkpt><trkpt lat="38.97877235" lon="-0.48863017"><ele>132.0</ele><time>2022-11-13T13:56:45.0000000+00:00</time></trkpt><trkpt lat="38.97876296" lon="-0.48863981"><ele>132.0</ele><time>2022-11-13T13:56:46.0000000+00:00</time></trkpt><trkpt lat="38.97875642" lon="-0.48864719"><ele>132.0</ele><time>2022-11-13T13:56:47.0000000+00:00</time></trkpt><trkpt lat="38.97874746" lon="-0.48865842"><ele>132.0</ele><time>2022-11-13T13:56:48.0000000+00:00</time></trkpt><trkpt lat="38.97873874" lon="-0.4886647"><ele>132.0</ele><time>2022-11-13T13:56:49.0000000+00:00</time></trkpt><trkpt lat="38.97872885" lon="-0.48866437"><ele>132.0</ele><time>2022-11-13T13:56:50.0000000+00:00</time></trkpt><trkpt lat="38.97871669" lon="-0.48866554"><ele>131.8</ele><time>2022-11-13T13:56:51.0000000+00:00</time></trkpt><trkpt lat="38.97870613" lon="-0.48866998"><ele>131.8</ele><time>2022-11-13T13:56:52.0000000+00:00</time></trkpt><trkpt lat="38.97869188" lon="-0.48867426"><ele>131.8</ele><time>2022-11-13T13:56:53.0000000+00:00</time></trkpt><trkpt lat="38.97868149" lon="-0.48867862"><ele>131.8</ele><time>2022-11-13T13:56:54.0000000+00:00</time></trkpt><trkpt lat="38.9786685" lon="-0.48868767"><ele>131.8</ele><time>2022-11-13T13:56:55.0000000+00:00</time></trkpt><trkpt lat="38.97865794" lon="-0.48869982"><ele>131.8</ele><time>2022-11-13T13:56:56.0000000+00:00</time></trkpt><trkpt lat="38.97865475" lon="-0.48871692"><ele>131.8</ele><time>2022-11-13T13:56:57.0000000+00:00</time></trkpt><trkpt lat="38.97865542" lon="-0.4887331"><ele>131.8</ele><time>2022-11-13T13:56:58.0000000+00:00</time></trkpt><trkpt lat="38.97864813" lon="-0.48874416"><ele>131.8</ele><time>2022-11-13T13:56:59.0000000+00:00</time></trkpt><trkpt lat="38.97864226" lon="-0.48874777"><ele>131.8</ele><time>2022-11-13T13:57:00.0000000+00:00</time></trkpt><trkpt lat="38.97864117" lon="-0.48875481"><ele>131.8</ele><time>2022-11-13T13:57:01.0000000+00:00</time></trkpt><trkpt lat="38.97864" lon="-0.48876328"><ele>131.6</ele><time>2022-11-13T13:57:02.0000000+00:00</time></trkpt><trkpt lat="38.97864025" lon="-0.48876839"><ele>131.8</ele><time>2022-11-13T13:57:03.0000000+00:00</time></trkpt><trkpt lat="38.97864117" lon="-0.48878121"><ele>131.8</ele><time>2022-11-13T13:57:04.0000000+00:00</time></trkpt><trkpt lat="38.97864117" lon="-0.48879161"><ele>131.8</ele><time>2022-11-13T13:57:05.0000000+00:00</time></trkpt><trkpt lat="38.9786457" lon="-0.48880871"><ele>131.8</ele><time>2022-11-13T13:57:06.0000000+00:00</time></trkpt><trkpt lat="38.9786483" lon="-0.48883117"><ele>131.8</ele><time>2022-11-13T13:57:07.0000000+00:00</time></trkpt><trkpt lat="38.97864754" lon="-0.48884844"><ele>131.8</ele><time>2022-11-13T13:57:08.0000000+00:00</time></trkpt><trkpt lat="38.9786457" lon="-0.4888647"><ele>131.8</ele><time>2022-11-13T13:57:09.0000000+00:00</time></trkpt><trkpt lat="38.9786462" lon="-0.48887157"><ele>132.0</ele><time>2022-11-13T13:57:10.0000000+00:00</time></trkpt><trkpt lat="38.97864796" lon="-0.48887844"><ele>132.2</ele><time>2022-11-13T13:57:11.0000000+00:00</time></trkpt><trkpt lat="38.97864813" lon="-0.48888573"><ele>132.2</ele><time>2022-11-13T13:57:12.0000000+00:00</time></trkpt><trkpt lat="38.97864495" lon="-0.48889873"><ele>132.4</ele><time>2022-11-13T13:57:13.0000000+00:00</time></trkpt><trkpt lat="38.97863883" lon="-0.48891256"><ele>132.6</ele><time>2022-11-13T13:57:14.0000000+00:00</time></trkpt><trkpt lat="38.97863648" lon="-0.4889237"><ele>132.6</ele><time>2022-11-13T13:57:15.0000000+00:00</time></trkpt><trkpt lat="38.97862885" lon="-0.48892915"><ele>132.6</ele><time>2022-11-13T13:57:16.0000000+00:00</time></trkpt><trkpt lat="38.97862198" lon="-0.48893804"><ele>132.8</ele><time>2022-11-13T13:57:17.0000000+00:00</time></trkpt><trkpt lat="38.97861678" lon="-0.48895002"><ele>132.8</ele><time>2022-11-13T13:57:18.0000000+00:00</time></trkpt><trkpt lat="38.97860999" lon="-0.48895916"><ele>132.8</ele><time>2022-11-13T13:57:19.0000000+00:00</time></trkpt><trkpt lat="38.97859985" lon="-0.48897416"><ele>132.8</ele><time>2022-11-13T13:57:20.0000000+00:00</time></trkpt><trkpt lat="38.97858862" lon="-0.48899244"><ele>132.8</ele><time>2022-11-13T13:57:21.0000000+00:00</time></trkpt><trkpt lat="38.97858627" lon="-0.48900861"><ele>132.8</ele><time>2022-11-13T13:57:22.0000000+00:00</time></trkpt><trkpt lat="38.97857521" lon="-0.48902119"><ele>132.8</ele><time>2022-11-13T13:57:23.0000000+00:00</time></trkpt><trkpt lat="38.97856766" lon="-0.48903267"><ele>132.8</ele><time>2022-11-13T13:57:24.0000000+00:00</time></trkpt><trkpt lat="38.97856331" lon="-0.48903938"><ele>132.6</ele><time>2022-11-13T13:57:25.0000000+00:00</time></trkpt><trkpt lat="38.97855853" lon="-0.48904432"><ele>132.6</ele><time>2022-11-13T13:57:26.0000000+00:00</time></trkpt><trkpt lat="38.97855316" lon="-0.48905061"><ele>132.6</ele><time>2022-11-13T13:57:27.0000000+00:00</time></trkpt><trkpt lat="38.97854763" lon="-0.48905463"><ele>132.6</ele><time>2022-11-13T13:57:28.0000000+00:00</time></trkpt><trkpt lat="38.97853816" lon="-0.48905497"><ele>132.6</ele><time>2022-11-13T13:57:29.0000000+00:00</time></trkpt><trkpt lat="38.97852953" lon="-0.48906569"><ele>132.6</ele><time>2022-11-13T13:57:30.0000000+00:00</time></trkpt><trkpt lat="38.97851964" lon="-0.48907533"><ele>132.6</ele><time>2022-11-13T13:57:31.0000000+00:00</time></trkpt><trkpt lat="38.97851704" lon="-0.48907994"><ele>132.6</ele><time>2022-11-13T13:57:32.0000000+00:00</time></trkpt><trkpt lat="38.9785224" lon="-0.48912655"><ele>132.8</ele><time>2022-11-13T13:57:33.0000000+00:00</time></trkpt><trkpt lat="38.97852684" lon="-0.48915647"><ele>132.8</ele><time>2022-11-13T13:57:34.0000000+00:00</time></trkpt><trkpt lat="38.97852391" lon="-0.48916326"><ele>132.8</ele><time>2022-11-13T13:57:35.0000000+00:00</time></trkpt><trkpt lat="38.9785131" lon="-0.48915915"><ele>132.8</ele><time>2022-11-13T13:57:36.0000000+00:00</time></trkpt><trkpt lat="38.97849675" lon="-0.48915496"><ele>132.8</ele><time>2022-11-13T13:57:37.0000000+00:00</time></trkpt><trkpt lat="38.97849315" lon="-0.48915857"><ele>133.0</ele><time>2022-11-13T13:57:38.0000000+00:00</time></trkpt><trkpt lat="38.97847957" lon="-0.48915018"><ele>133.0</ele><time>2022-11-13T13:57:39.0000000+00:00</time></trkpt><trkpt lat="38.97847077" lon="-0.489161"><ele>133.2</ele><time>2022-11-13T13:57:40.0000000+00:00</time></trkpt><trkpt lat="38.97846767" lon="-0.48917768"><ele>133.2</ele><time>2022-11-13T13:57:41.0000000+00:00</time></trkpt><trkpt lat="38.97846163" lon="-0.48919704"><ele>133.2</ele><time>2022-11-13T13:57:42.0000000+00:00</time></trkpt><trkpt lat="38.97845945" lon="-0.48920433"><ele>133.2</ele><time>2022-11-13T13:57:43.0000000+00:00</time></trkpt><trkpt lat="38.97845727" lon="-0.48920567"><ele>133.2</ele><time>2022-11-13T13:57:44.0000000+00:00</time></trkpt><trkpt lat="38.97845644" lon="-0.48919964"><ele>133.2</ele><time>2022-11-13T13:57:45.0000000+00:00</time></trkpt><trkpt lat="38.97845543" lon="-0.48919369"><ele>133.0</ele><time>2022-11-13T13:57:46.0000000+00:00</time></trkpt><trkpt lat="38.97845568" lon="-0.48919159"><ele>133.0</ele><time>2022-11-13T13:57:47.0000000+00:00</time></trkpt><trkpt lat="38.97845761" lon="-0.48919268"><ele>133.0</ele><time>2022-11-13T13:57:48.0000000+00:00</time></trkpt><trkpt lat="38.97846029" lon="-0.48919427"><ele>133.0</ele><time>2022-11-13T13:57:49.0000000+00:00</time></trkpt><trkpt lat="38.97846163" lon="-0.4891941"><ele>133.0</ele><time>2022-11-13T13:57:50.0000000+00:00</time></trkpt><trkpt lat="38.97846012" lon="-0.48919419"><ele>133.0</ele><time>2022-11-13T13:57:51.0000000+00:00</time></trkpt><trkpt lat="38.97845761" lon="-0.48919402"><ele>133.0</ele><time>2022-11-13T13:57:52.0000000+00:00</time></trkpt><trkpt lat="38.97845409" lon="-0.48919092"><ele>133.0</ele><time>2022-11-13T13:57:53.0000000+00:00</time></trkpt><trkpt lat="38.97844772" lon="-0.48918983"><ele>133.0</ele><time>2022-11-13T13:57:54.0000000+00:00</time></trkpt><trkpt lat="38.97844479" lon="-0.48918966"><ele>133.0</ele><time>2022-11-13T13:57:55.0000000+00:00</time></trkpt><trkpt lat="38.97844361" lon="-0.48918958"><ele>133.2</ele><time>2022-11-13T13:57:56.0000000+00:00</time></trkpt><trkpt lat="38.97844453" lon="-0.48919084"><ele>133.2</ele><time>2022-11-13T13:57:57.0000000+00:00</time></trkpt><trkpt lat="38.9784437" lon="-0.48918933"><ele>133.2</ele><time>2022-11-13T13:57:58.0000000+00:00</time></trkpt><trkpt lat="38.97844194" lon="-0.48918706"><ele>133.2</ele><time>2022-11-13T13:57:59.0000000+00:00</time></trkpt><trkpt lat="38.97844034" lon="-0.48918614"><ele>133.2</ele><time>2022-11-13T13:58:00.0000000+00:00</time></trkpt><trkpt lat="38.97843724" lon="-0.48918346"><ele>133.2</ele><time>2022-11-13T13:58:01.0000000+00:00</time></trkpt><trkpt lat="38.97843582" lon="-0.48918195"><ele>133.2</ele><time>2022-11-13T13:58:02.0000000+00:00</time></trkpt><trkpt lat="38.97843464" lon="-0.48918187"><ele>133.2</ele><time>2022-11-13T13:58:03.0000000+00:00</time></trkpt><trkpt lat="38.97843431" lon="-0.48918178"><ele>133.2</ele><time>2022-11-13T13:58:04.0000000+00:00</time></trkpt><trkpt lat="38.97843431" lon="-0.48918178"><ele>133.2</ele><time>2022-11-13T13:58:05.0000000+00:00</time></trkpt><trkpt lat="38.97843431" lon="-0.48918178"><ele>133.2</ele><time>2022-11-13T13:58:06.0000000+00:00</time></trkpt><trkpt lat="38.97843431" lon="-0.48918178"><ele>133.2</ele><time>2022-11-13T13:58:07.0000000+00:00</time></trkpt><trkpt lat="38.97843431" lon="-0.48918178"><ele>133.2</ele><time>2022-11-13T13:58:08.0000000+00:00</time></trkpt><trkpt lat="38.97843431" lon="-0.48918178"><ele>133.2</ele><time>2022-11-13T13:58:09.0000000+00:00</time></trkpt><trkpt lat="38.97843431" lon="-0.48918178"><ele>133.2</ele><time>2022-11-13T13:58:10.0000000+00:00</time></trkpt><trkpt lat="38.97843431" lon="-0.48918178"><ele>133.2</ele><time>2022-11-13T13:58:11.0000000+00:00</time></trkpt><trkpt lat="38.97843431" lon="-0.48918178"><ele>133.2</ele><time>2022-11-13T13:58:12.0000000+00:00</time></trkpt><trkpt lat="38.97843431" lon="-0.48918178"><ele>133.2</ele><time>2022-11-13T13:58:13.0000000+00:00</time></trkpt><trkpt lat="38.97843431" lon="-0.48918178"><ele>133.2</ele><time>2022-11-13T13:58:14.0000000+00:00</time></trkpt><trkpt lat="38.97843439" lon="-0.48918178"><ele>133.2</ele><time>2022-11-13T13:58:15.0000000+00:00</time></trkpt><trkpt lat="38.97843456" lon="-0.48918178"><ele>133.2</ele><time>2022-11-13T13:58:16.0000000+00:00</time></trkpt><trkpt lat="38.97843456" lon="-0.48918195"><ele>133.2</ele><time>2022-11-13T13:58:17.0000000+00:00</time></trkpt><trkpt lat="38.97843464" lon="-0.48918229"><ele>133.2</ele><time>2022-11-13T13:58:18.0000000+00:00</time></trkpt><trkpt lat="38.97843573" lon="-0.48918329"><ele>133.2</ele><time>2022-11-13T13:58:19.0000000+00:00</time></trkpt><trkpt lat="38.97843607" lon="-0.48918346"><ele>133.2</ele><time>2022-11-13T13:58:20.0000000+00:00</time></trkpt><trkpt lat="38.97843607" lon="-0.48918589"><ele>133.2</ele><time>2022-11-13T13:58:21.0000000+00:00</time></trkpt><trkpt lat="38.97843707" lon="-0.4891869"><ele>133.2</ele><time>2022-11-13T13:58:22.0000000+00:00</time></trkpt><trkpt lat="38.97843724" lon="-0.48918706"><ele>133.2</ele><time>2022-11-13T13:58:23.0000000+00:00</time></trkpt><trkpt lat="38.97843909" lon="-0.48918841"><ele>133.2</ele><time>2022-11-13T13:58:24.0000000+00:00</time></trkpt><trkpt lat="38.97843925" lon="-0.48918924"><ele>133.2</ele><time>2022-11-13T13:58:25.0000000+00:00</time></trkpt><trkpt lat="38.97843925" lon="-0.48918933"><ele>133.2</ele><time>2022-11-13T13:58:26.0000000+00:00</time></trkpt><trkpt lat="38.97843917" lon="-0.48918933"><ele>133.2</ele><time>2022-11-13T13:58:27.0000000+00:00</time></trkpt><trkpt lat="38.97843875" lon="-0.48918983"><ele>133.2</ele><time>2022-11-13T13:58:28.0000000+00:00</time></trkpt><trkpt lat="38.97843858" lon="-0.48919075"><ele>133.2</ele><time>2022-11-13T13:58:29.0000000+00:00</time></trkpt><trkpt lat="38.97843758" lon="-0.48919084"><ele>133.2</ele><time>2022-11-13T13:58:30.0000000+00:00</time></trkpt><trkpt lat="38.97843749" lon="-0.48919092"><ele>133.2</ele><time>2022-11-13T13:58:31.0000000+00:00</time></trkpt><trkpt lat="38.97843749" lon="-0.48919092"><ele>133.2</ele><time>2022-11-13T13:58:32.0000000+00:00</time></trkpt><trkpt lat="38.97843749" lon="-0.48919092"><ele>133.2</ele><time>2022-11-13T13:58:33.0000000+00:00</time></trkpt><trkpt lat="38.97843749" lon="-0.48919092"><ele>133.2</ele><time>2022-11-13T13:58:34.0000000+00:00</time></trkpt><trkpt lat="38.97843749" lon="-0.48919092"><ele>133.2</ele><time>2022-11-13T13:58:35.0000000+00:00</time></trkpt><trkpt lat="38.97843749" lon="-0.48919092"><ele>133.2</ele><time>2022-11-13T13:58:36.0000000+00:00</time></trkpt><trkpt lat="38.97843749" lon="-0.48919092"><ele>133.2</ele><time>2022-11-13T13:58:37.0000000+00:00</time></trkpt><trkpt lat="38.97843749" lon="-0.48919092"><ele>133.2</ele><time>2022-11-13T13:58:38.0000000+00:00</time></trkpt><trkpt lat="38.97843749" lon="-0.48919092"><ele>133.2</ele><time>2022-11-13T13:58:39.0000000+00:00</time></trkpt><trkpt lat="38.97843749" lon="-0.48919092"><ele>133.2</ele><time>2022-11-13T13:58:40.0000000+00:00</time></trkpt><trkpt lat="38.97843749" lon="-0.48919092"><ele>133.2</ele><time>2022-11-13T13:58:41.0000000+00:00</time></trkpt><trkpt lat="38.97843749" lon="-0.48919092"><ele>133.2</ele><time>2022-11-13T13:58:42.0000000+00:00</time></trkpt><trkpt lat="38.97843749" lon="-0.48919092"><ele>133.2</ele><time>2022-11-13T13:58:43.0000000+00:00</time></trkpt><trkpt lat="38.9784364" lon="-0.48919017"><ele>133.2</ele><time>2022-11-13T13:58:44.0000000+00:00</time></trkpt><trkpt lat="38.97843582" lon="-0.48918849"><ele>133.2</ele><time>2022-11-13T13:58:45.0000000+00:00</time></trkpt><trkpt lat="38.97843515" lon="-0.48918815"><ele>133.2</ele><time>2022-11-13T13:58:46.0000000+00:00</time></trkpt><trkpt lat="38.97843498" lon="-0.48918807"><ele>133.2</ele><time>2022-11-13T13:58:47.0000000+00:00</time></trkpt><trkpt lat="38.97843414" lon="-0.48918799"><ele>133.2</ele><time>2022-11-13T13:58:48.0000000+00:00</time></trkpt><trkpt lat="38.97843364" lon="-0.48918799"><ele>133.2</ele><time>2022-11-13T13:58:49.0000000+00:00</time></trkpt><trkpt lat="38.97843322" lon="-0.4891879"><ele>133.2</ele><time>2022-11-13T13:58:50.0000000+00:00</time></trkpt><trkpt lat="38.97843272" lon="-0.4891879"><ele>133.2</ele><time>2022-11-13T13:58:51.0000000+00:00</time></trkpt><trkpt lat="38.97843255" lon="-0.48918782"><ele>133.2</ele><time>2022-11-13T13:58:52.0000000+00:00</time></trkpt><trkpt lat="38.97843221" lon="-0.48918773"><ele>133.2</ele><time>2022-11-13T13:58:53.0000000+00:00</time></trkpt><trkpt lat="38.97843204" lon="-0.48918765"><ele>133.2</ele><time>2022-11-13T13:58:54.0000000+00:00</time></trkpt><trkpt lat="38.97843196" lon="-0.48918757"><ele>133.2</ele><time>2022-11-13T13:58:55.0000000+00:00</time></trkpt><trkpt lat="38.97843179" lon="-0.48918723"><ele>133.2</ele><time>2022-11-13T13:58:56.0000000+00:00</time></trkpt><trkpt lat="38.97843154" lon="-0.48918698"><ele>133.2</ele><time>2022-11-13T13:58:57.0000000+00:00</time></trkpt><trkpt lat="38.97843146" lon="-0.4891869"><ele>133.2</ele><time>2022-11-13T13:58:58.0000000+00:00</time></trkpt><trkpt lat="38.97843146" lon="-0.48918681"><ele>133.2</ele><time>2022-11-13T13:58:59.0000000+00:00</time></trkpt><trkpt lat="38.97843137" lon="-0.48918681"><ele>133.2</ele><time>2022-11-13T13:59:00.0000000+00:00</time></trkpt><trkpt lat="38.97843137" lon="-0.48918665"><ele>133.2</ele><time>2022-11-13T13:59:01.0000000+00:00</time></trkpt><trkpt lat="38.97843121" lon="-0.48918631"><ele>133.2</ele><time>2022-11-13T13:59:02.0000000+00:00</time></trkpt><trkpt lat="38.97843112" lon="-0.48918606"><ele>133.2</ele><time>2022-11-13T13:59:03.0000000+00:00</time></trkpt><trkpt lat="38.97843104" lon="-0.48918572"><ele>133.2</ele><time>2022-11-13T13:59:04.0000000+00:00</time></trkpt><trkpt lat="38.97843096" lon="-0.48918497"><ele>133.2</ele><time>2022-11-13T13:59:05.0000000+00:00</time></trkpt><trkpt lat="38.97843028" lon="-0.4891838"><ele>133.2</ele><time>2022-11-13T13:59:06.0000000+00:00</time></trkpt><trkpt lat="38.97842928" lon="-0.48918262"><ele>133.2</ele><time>2022-11-13T13:59:07.0000000+00:00</time></trkpt><trkpt lat="38.97842819" lon="-0.48918153"><ele>133.2</ele><time>2022-11-13T13:59:08.0000000+00:00</time></trkpt><trkpt lat="38.97842668" lon="-0.48918036"><ele>133.2</ele><time>2022-11-13T13:59:09.0000000+00:00</time></trkpt><trkpt lat="38.97842567" lon="-0.48917969"><ele>133.2</ele><time>2022-11-13T13:59:10.0000000+00:00</time></trkpt><trkpt lat="38.97842509" lon="-0.48917944"><ele>133.2</ele><time>2022-11-13T13:59:11.0000000+00:00</time></trkpt><trkpt lat="38.97842484" lon="-0.48917919"><ele>133.2</ele><time>2022-11-13T13:59:12.0000000+00:00</time></trkpt><trkpt lat="38.9784245" lon="-0.48917902"><ele>133.2</ele><time>2022-11-13T13:59:13.0000000+00:00</time></trkpt><trkpt lat="38.97842433" lon="-0.48917902"><ele>133.2</ele><time>2022-11-13T13:59:14.0000000+00:00</time></trkpt><trkpt lat="38.97842425" lon="-0.48917885"><ele>133.2</ele><time>2022-11-13T13:59:15.0000000+00:00</time></trkpt><trkpt lat="38.97842425" lon="-0.48917885"><ele>133.2</ele><time>2022-11-13T13:59:16.0000000+00:00</time></trkpt><trkpt lat="38.97842417" lon="-0.48917885"><ele>133.2</ele><time>2022-11-13T13:59:17.0000000+00:00</time></trkpt><trkpt lat="38.978424" lon="-0.48917885"><ele>133.2</ele><time>2022-11-13T13:59:18.0000000+00:00</time></trkpt><trkpt lat="38.97842383" lon="-0.48917885"><ele>133.2</ele><time>2022-11-13T13:59:19.0000000+00:00</time></trkpt><trkpt lat="38.97841989" lon="-0.48918296"><ele>133.2</ele><time>2022-11-13T13:59:20.0000000+00:00</time></trkpt><trkpt lat="38.97840933" lon="-0.4891936"><ele>133.2</ele><time>2022-11-13T13:59:21.0000000+00:00</time></trkpt><trkpt lat="38.97840262" lon="-0.48921774"><ele>133.2</ele><time>2022-11-13T13:59:22.0000000+00:00</time></trkpt><trkpt lat="38.9783955" lon="-0.48924389"><ele>133.2</ele><time>2022-11-13T13:59:23.0000000+00:00</time></trkpt><trkpt lat="38.97839055" lon="-0.48926619"><ele>133.2</ele><time>2022-11-13T13:59:24.0000000+00:00</time></trkpt><trkpt lat="38.97838016" lon="-0.48928589"><ele>133.2</ele><time>2022-11-13T13:59:25.0000000+00:00</time></trkpt><trkpt lat="38.97837161" lon="-0.48930709"><ele>133.2</ele><time>2022-11-13T13:59:26.0000000+00:00</time></trkpt><trkpt lat="38.97836315" lon="-0.4893231"><ele>133.2</ele><time>2022-11-13T13:59:27.0000000+00:00</time></trkpt><trkpt lat="38.97835258" lon="-0.48933299"><ele>133.2</ele><time>2022-11-13T13:59:28.0000000+00:00</time></trkpt><trkpt lat="38.97834697" lon="-0.4893407"><ele>133.2</ele><time>2022-11-13T13:59:29.0000000+00:00</time></trkpt><trkpt lat="38.97834756" lon="-0.48934339"><ele>133.2</ele><time>2022-11-13T13:59:30.0000000+00:00</time></trkpt><trkpt lat="38.97834965" lon="-0.48934473"><ele>132.4</ele><time>2022-11-13T13:59:31.0000000+00:00</time></trkpt><trkpt lat="38.9783489" lon="-0.48933626"><ele>132.2</ele><time>2022-11-13T13:59:32.0000000+00:00</time></trkpt><trkpt lat="38.97834814" lon="-0.48932981"><ele>132.0</ele><time>2022-11-13T13:59:33.0000000+00:00</time></trkpt><trkpt lat="38.9783401" lon="-0.48932612"><ele>131.8</ele><time>2022-11-13T13:59:34.0000000+00:00</time></trkpt><trkpt lat="38.97832945" lon="-0.48931967"><ele>131.8</ele><time>2022-11-13T13:59:35.0000000+00:00</time></trkpt><trkpt lat="38.97832501" lon="-0.48931673"><ele>131.6</ele><time>2022-11-13T13:59:36.0000000+00:00</time></trkpt><trkpt lat="38.97832057" lon="-0.48931321"><ele>131.6</ele><time>2022-11-13T13:59:37.0000000+00:00</time></trkpt><trkpt lat="38.97831797" lon="-0.48931413"><ele>131.8</ele><time>2022-11-13T13:59:38.0000000+00:00</time></trkpt><trkpt lat="38.97831336" lon="-0.48931246"><ele>131.8</ele><time>2022-11-13T13:59:39.0000000+00:00</time></trkpt><trkpt lat="38.97831445" lon="-0.48931086"><ele>131.8</ele><time>2022-11-13T13:59:40.0000000+00:00</time></trkpt><trkpt lat="38.97831453" lon="-0.48930567"><ele>131.6</ele><time>2022-11-13T13:59:41.0000000+00:00</time></trkpt><trkpt lat="38.97831227" lon="-0.48929703"><ele>131.6</ele><time>2022-11-13T13:59:42.0000000+00:00</time></trkpt><trkpt lat="38.97830875" lon="-0.48928832"><ele>131.6</ele><time>2022-11-13T13:59:43.0000000+00:00</time></trkpt><trkpt lat="38.97831026" lon="-0.48927792"><ele>131.6</ele><time>2022-11-13T13:59:44.0000000+00:00</time></trkpt><trkpt lat="38.97831763" lon="-0.48927256"><ele>131.6</ele><time>2022-11-13T13:59:45.0000000+00:00</time></trkpt><trkpt lat="38.9783292" lon="-0.48926594"><ele>131.6</ele><time>2022-11-13T13:59:46.0000000+00:00</time></trkpt><trkpt lat="38.97833808" lon="-0.48925957"><ele>131.6</ele><time>2022-11-13T13:59:47.0000000+00:00</time></trkpt><trkpt lat="38.97834068" lon="-0.48925764"><ele>131.6</ele><time>2022-11-13T13:59:48.0000000+00:00</time></trkpt><trkpt lat="38.97834714" lon="-0.48924683"><ele>131.6</ele><time>2022-11-13T13:59:49.0000000+00:00</time></trkpt><trkpt lat="38.97835351" lon="-0.48923702"><ele>131.6</ele><time>2022-11-13T13:59:50.0000000+00:00</time></trkpt><trkpt lat="38.97835066" lon="-0.48922369"><ele>131.6</ele><time>2022-11-13T13:59:51.0000000+00:00</time></trkpt><trkpt lat="38.97834789" lon="-0.48921355"><ele>131.6</ele><time>2022-11-13T13:59:52.0000000+00:00</time></trkpt><trkpt lat="38.97834177" lon="-0.48920626"><ele>131.6</ele><time>2022-11-13T13:59:53.0000000+00:00</time></trkpt><trkpt lat="38.97834462" lon="-0.48919126"><ele>131.6</ele><time>2022-11-13T13:59:54.0000000+00:00</time></trkpt><trkpt lat="38.97835149" lon="-0.4891781"><ele>131.6</ele><time>2022-11-13T13:59:55.0000000+00:00</time></trkpt><trkpt lat="38.97835057" lon="-0.48916971"><ele>131.6</ele><time>2022-11-13T13:59:56.0000000+00:00</time></trkpt><trkpt lat="38.97834957" lon="-0.48916812"><ele>131.6</ele><time>2022-11-13T13:59:57.0000000+00:00</time></trkpt><trkpt lat="38.97835041" lon="-0.48916519"><ele>131.6</ele><time>2022-11-13T13:59:58.0000000+00:00</time></trkpt><trkpt lat="38.97834236" lon="-0.48916418"><ele>131.6</ele><time>2022-11-13T13:59:59.0000000+00:00</time></trkpt><trkpt lat="38.97835116" lon="-0.48916116"><ele>131.6</ele><time>2022-11-13T14:00:00.0000000+00:00</time></trkpt><trkpt lat="38.97835946" lon="-0.48915035"><ele>131.6</ele><time>2022-11-13T14:00:01.0000000+00:00</time></trkpt><trkpt lat="38.97836457" lon="-0.48912797"><ele>131.6</ele><time>2022-11-13T14:00:02.0000000+00:00</time></trkpt><trkpt lat="38.97836759" lon="-0.48911498"><ele>131.6</ele><time>2022-11-13T14:00:03.0000000+00:00</time></trkpt><trkpt lat="38.97837337" lon="-0.48909964"><ele>131.6</ele><time>2022-11-13T14:00:04.0000000+00:00</time></trkpt><trkpt lat="38.97838519" lon="-0.48909805"><ele>131.6</ele><time>2022-11-13T14:00:05.0000000+00:00</time></trkpt><trkpt lat="38.97838737" lon="-0.48909009"><ele>131.6</ele><time>2022-11-13T14:00:06.0000000+00:00</time></trkpt><trkpt lat="38.97838167" lon="-0.48908321"><ele>131.6</ele><time>2022-11-13T14:00:07.0000000+00:00</time></trkpt><trkpt lat="38.97838058" lon="-0.48907081"><ele>131.6</ele><time>2022-11-13T14:00:08.0000000+00:00</time></trkpt><trkpt lat="38.97838427" lon="-0.48905706"><ele>131.6</ele><time>2022-11-13T14:00:09.0000000+00:00</time></trkpt><trkpt lat="38.97839081" lon="-0.48904918"><ele>131.6</ele><time>2022-11-13T14:00:10.0000000+00:00</time></trkpt><trkpt lat="38.97839299" lon="-0.4890315"><ele>131.6</ele><time>2022-11-13T14:00:11.0000000+00:00</time></trkpt><trkpt lat="38.97838745" lon="-0.48901322"><ele>131.6</ele><time>2022-11-13T14:00:12.0000000+00:00</time></trkpt><trkpt lat="38.97838494" lon="-0.48899856"><ele>131.6</ele><time>2022-11-13T14:00:13.0000000+00:00</time></trkpt><trkpt lat="38.97838393" lon="-0.48898531"><ele>131.6</ele><time>2022-11-13T14:00:14.0000000+00:00</time></trkpt><trkpt lat="38.97837916" lon="-0.48896821"><ele>131.8</ele><time>2022-11-13T14:00:15.0000000+00:00</time></trkpt><trkpt lat="38.97837178" lon="-0.48895706"><ele>131.8</ele><time>2022-11-13T14:00:16.0000000+00:00</time></trkpt><trkpt lat="38.97836398" lon="-0.48894391"><ele>131.8</ele><time>2022-11-13T14:00:17.0000000+00:00</time></trkpt><trkpt lat="38.97835728" lon="-0.48893435"><ele>131.8</ele><time>2022-11-13T14:00:18.0000000+00:00</time></trkpt><trkpt lat="38.97834982" lon="-0.48891666"><ele>132.0</ele><time>2022-11-13T14:00:19.0000000+00:00</time></trkpt><trkpt lat="38.97834479" lon="-0.48890141"><ele>132.0</ele><time>2022-11-13T14:00:20.0000000+00:00</time></trkpt><trkpt lat="38.97834236" lon="-0.4888921"><ele>132.0</ele><time>2022-11-13T14:00:21.0000000+00:00</time></trkpt><trkpt lat="38.97833356" lon="-0.48888037"><ele>132.0</ele><time>2022-11-13T14:00:22.0000000+00:00</time></trkpt><trkpt lat="38.97832568" lon="-0.48886797"><ele>132.0</ele><time>2022-11-13T14:00:23.0000000+00:00</time></trkpt><trkpt lat="38.97831763" lon="-0.48885757"><ele>132.0</ele><time>2022-11-13T14:00:24.0000000+00:00</time></trkpt><trkpt lat="38.97831319" lon="-0.48885321"><ele>132.0</ele><time>2022-11-13T14:00:25.0000000+00:00</time></trkpt><trkpt lat="38.97830749" lon="-0.48885061"><ele>132.0</ele><time>2022-11-13T14:00:26.0000000+00:00</time></trkpt><trkpt lat="38.97830011" lon="-0.48885003"><ele>132.0</ele><time>2022-11-13T14:00:27.0000000+00:00</time></trkpt><trkpt lat="38.9782883" lon="-0.48884466"><ele>132.2</ele><time>2022-11-13T14:00:28.0000000+00:00</time></trkpt><trkpt lat="38.97827849" lon="-0.48884047"><ele>132.2</ele><time>2022-11-13T14:00:29.0000000+00:00</time></trkpt><trkpt lat="38.97826441" lon="-0.48883528"><ele>132.2</ele><time>2022-11-13T14:00:30.0000000+00:00</time></trkpt><trkpt lat="38.97825049" lon="-0.4888217"><ele>132.2</ele><time>2022-11-13T14:00:31.0000000+00:00</time></trkpt><trkpt lat="38.97823331" lon="-0.48881491"><ele>132.2</ele><time>2022-11-13T14:00:32.0000000+00:00</time></trkpt><trkpt lat="38.97822032" lon="-0.48881256"><ele>132.2</ele><time>2022-11-13T14:00:33.0000000+00:00</time></trkpt><trkpt lat="38.97821118" lon="-0.48881181"><ele>132.0</ele><time>2022-11-13T14:00:34.0000000+00:00</time></trkpt><trkpt lat="38.97821009" lon="-0.48880946"><ele>132.0</ele><time>2022-11-13T14:00:35.0000000+00:00</time></trkpt><trkpt lat="38.9782111" lon="-0.4888056"><ele>132.0</ele><time>2022-11-13T14:00:36.0000000+00:00</time></trkpt><trkpt lat="38.97820062" lon="-0.48880166"><ele>132.0</ele><time>2022-11-13T14:00:37.0000000+00:00</time></trkpt><trkpt lat="38.97818922" lon="-0.48880485"><ele>132.0</ele><time>2022-11-13T14:00:38.0000000+00:00</time></trkpt><trkpt lat="38.97817698" lon="-0.48880946"><ele>132.0</ele><time>2022-11-13T14:00:39.0000000+00:00</time></trkpt><trkpt lat="38.97815511" lon="-0.48879831"><ele>132.0</ele><time>2022-11-13T14:00:40.0000000+00:00</time></trkpt><trkpt lat="38.97813256" lon="-0.48879152"><ele>132.0</ele><time>2022-11-13T14:00:41.0000000+00:00</time></trkpt><trkpt lat="38.97809224" lon="-0.48877199"><ele>132.0</ele><time>2022-11-13T14:00:42.0000000+00:00</time></trkpt><trkpt lat="38.97806634" lon="-0.48877216"><ele>132.0</ele><time>2022-11-13T14:00:43.0000000+00:00</time></trkpt><trkpt lat="38.97805947" lon="-0.48878314"><ele>132.0</ele><time>2022-11-13T14:00:44.0000000+00:00</time></trkpt><trkpt lat="38.97804648" lon="-0.48880158"><ele>132.0</ele><time>2022-11-13T14:00:45.0000000+00:00</time></trkpt><trkpt lat="38.97804187" lon="-0.48882153"><ele>132.0</ele><time>2022-11-13T14:00:46.0000000+00:00</time></trkpt><trkpt lat="38.97804245" lon="-0.48883637"><ele>132.0</ele><time>2022-11-13T14:00:47.0000000+00:00</time></trkpt><trkpt lat="38.97803634" lon="-0.48885078"><ele>132.0</ele><time>2022-11-13T14:00:48.0000000+00:00</time></trkpt><trkpt lat="38.97803105" lon="-0.48886411"><ele>131.8</ele><time>2022-11-13T14:00:49.0000000+00:00</time></trkpt><trkpt lat="38.97802368" lon="-0.4888714"><ele>131.8</ele><time>2022-11-13T14:00:50.0000000+00:00</time></trkpt><trkpt lat="38.97801278" lon="-0.48888842"><ele>131.8</ele><time>2022-11-13T14:00:51.0000000+00:00</time></trkpt><trkpt lat="38.97800113" lon="-0.48890049"><ele>131.8</ele><time>2022-11-13T14:00:52.0000000+00:00</time></trkpt><trkpt lat="38.97799132" lon="-0.48890091"><ele>131.8</ele><time>2022-11-13T14:00:53.0000000+00:00</time></trkpt><trkpt lat="38.97798856" lon="-0.48891398"><ele>131.8</ele><time>2022-11-13T14:00:54.0000000+00:00</time></trkpt><trkpt lat="38.97799032" lon="-0.48893108"><ele>131.8</ele><time>2022-11-13T14:00:55.0000000+00:00</time></trkpt><trkpt lat="38.97798982" lon="-0.48893251"><ele>131.8</ele><time>2022-11-13T14:00:56.0000000+00:00</time></trkpt><trkpt lat="38.9779894" lon="-0.48893502"><ele>131.8</ele><time>2022-11-13T14:00:57.0000000+00:00</time></trkpt><trkpt lat="38.97798982" lon="-0.48893427"><ele>131.8</ele><time>2022-11-13T14:00:58.0000000+00:00</time></trkpt><trkpt lat="38.97798873" lon="-0.4889346"><ele>131.6</ele><time>2022-11-13T14:00:59.0000000+00:00</time></trkpt><trkpt lat="38.9779873" lon="-0.48893628"><ele>131.6</ele><time>2022-11-13T14:01:00.0000000+00:00</time></trkpt><trkpt lat="38.9779847" lon="-0.48893686"><ele>131.6</ele><time>2022-11-13T14:01:01.0000000+00:00</time></trkpt><trkpt lat="38.97798303" lon="-0.48893603"><ele>131.6</ele><time>2022-11-13T14:01:02.0000000+00:00</time></trkpt><trkpt lat="38.97798118" lon="-0.48893527"><ele>131.6</ele><time>2022-11-13T14:01:03.0000000+00:00</time></trkpt><trkpt lat="38.97798202" lon="-0.48893485"><ele>131.6</ele><time>2022-11-13T14:01:04.0000000+00:00</time></trkpt><trkpt lat="38.97798512" lon="-0.48893435"><ele>131.6</ele><time>2022-11-13T14:01:05.0000000+00:00</time></trkpt><trkpt lat="38.9779868" lon="-0.48893284"><ele>131.6</ele><time>2022-11-13T14:01:06.0000000+00:00</time></trkpt><trkpt lat="38.97798412" lon="-0.48892924"><ele>131.6</ele><time>2022-11-13T14:01:07.0000000+00:00</time></trkpt><trkpt lat="38.97798244" lon="-0.48892857"><ele>131.6</ele><time>2022-11-13T14:01:08.0000000+00:00</time></trkpt><trkpt lat="38.97798202" lon="-0.48892957"><ele>131.6</ele><time>2022-11-13T14:01:09.0000000+00:00</time></trkpt><trkpt lat="38.9779806" lon="-0.48892848"><ele>131.6</ele><time>2022-11-13T14:01:10.0000000+00:00</time></trkpt><trkpt lat="38.97798085" lon="-0.48892865"><ele>131.6</ele><time>2022-11-13T14:01:11.0000000+00:00</time></trkpt><trkpt lat="38.9779816" lon="-0.48892857"><ele>131.6</ele><time>2022-11-13T14:01:12.0000000+00:00</time></trkpt><trkpt lat="38.9779816" lon="-0.48892857"><ele>131.6</ele><time>2022-11-13T14:01:13.0000000+00:00</time></trkpt><trkpt lat="38.9779816" lon="-0.48892857"><ele>131.6</ele><time>2022-11-13T14:01:14.0000000+00:00</time></trkpt><trkpt lat="38.9779816" lon="-0.48892857"><ele>131.6</ele><time>2022-11-13T14:01:15.0000000+00:00</time></trkpt><trkpt lat="38.9779816" lon="-0.48892857"><ele>131.6</ele><time>2022-11-13T14:01:16.0000000+00:00</time></trkpt><trkpt lat="38.9779816" lon="-0.48892857"><ele>131.6</ele><time>2022-11-13T14:01:17.0000000+00:00</time></trkpt><trkpt lat="38.9779816" lon="-0.48892857"><ele>131.6</ele><time>2022-11-13T14:01:18.0000000+00:00</time></trkpt><trkpt lat="38.9779816" lon="-0.48892857"><ele>131.6</ele><time>2022-11-13T14:01:19.0000000+00:00</time></trkpt><trkpt lat="38.9779816" lon="-0.48892857"><ele>131.8</ele><time>2022-11-13T14:01:20.0000000+00:00</time></trkpt><trkpt lat="38.9779816" lon="-0.48892857"><ele>131.8</ele><time>2022-11-13T14:01:21.0000000+00:00</time></trkpt><trkpt lat="38.97798118" lon="-0.4889346"><ele>131.8</ele><time>2022-11-13T14:01:22.0000000+00:00</time></trkpt><trkpt lat="38.97797942" lon="-0.48896117"><ele>131.8</ele><time>2022-11-13T14:01:23.0000000+00:00</time></trkpt><trkpt lat="38.97797515" lon="-0.48898313"><ele>131.8</ele><time>2022-11-13T14:01:24.0000000+00:00</time></trkpt><trkpt lat="38.97797397" lon="-0.48900652"><ele>131.8</ele><time>2022-11-13T14:01:25.0000000+00:00</time></trkpt><trkpt lat="38.97797523" lon="-0.48903057"><ele>131.8</ele><time>2022-11-13T14:01:26.0000000+00:00</time></trkpt><trkpt lat="38.97797858" lon="-0.48905404"><ele>131.8</ele><time>2022-11-13T14:01:27.0000000+00:00</time></trkpt><trkpt lat="38.97798252" lon="-0.48907751"><ele>131.8</ele><time>2022-11-13T14:01:28.0000000+00:00</time></trkpt><trkpt lat="38.9779863" lon="-0.48909864"><ele>131.8</ele><time>2022-11-13T14:01:29.0000000+00:00</time></trkpt><trkpt lat="38.97798831" lon="-0.48911699"><ele>131.8</ele><time>2022-11-13T14:01:30.0000000+00:00</time></trkpt><trkpt lat="38.97798923" lon="-0.48912722"><ele>132.0</ele><time>2022-11-13T14:01:31.0000000+00:00</time></trkpt><trkpt lat="38.97798923" lon="-0.48913183"><ele>132.0</ele><time>2022-11-13T14:01:32.0000000+00:00</time></trkpt><trkpt lat="38.97799124" lon="-0.48913426"><ele>132.4</ele><time>2022-11-13T14:01:33.0000000+00:00</time></trkpt><trkpt lat="38.97799132" lon="-0.48913459"><ele>132.4</ele><time>2022-11-13T14:01:34.0000000+00:00</time></trkpt><trkpt lat="38.97799015" lon="-0.48913652"><ele>132.6</ele><time>2022-11-13T14:01:35.0000000+00:00</time></trkpt><trkpt lat="38.97798135" lon="-0.48914708"><ele>132.6</ele><time>2022-11-13T14:01:36.0000000+00:00</time></trkpt><trkpt lat="38.97797263" lon="-0.48915773"><ele>132.4</ele><time>2022-11-13T14:01:37.0000000+00:00</time></trkpt><trkpt lat="38.97796031" lon="-0.48916678"><ele>132.2</ele><time>2022-11-13T14:01:38.0000000+00:00</time></trkpt><trkpt lat="38.97795579" lon="-0.48918488"><ele>132.2</ele><time>2022-11-13T14:01:39.0000000+00:00</time></trkpt><trkpt lat="38.97794891" lon="-0.48921095"><ele>132.2</ele><time>2022-11-13T14:01:40.0000000+00:00</time></trkpt><trkpt lat="38.97794489" lon="-0.48922855"><ele>132.2</ele><time>2022-11-13T14:01:41.0000000+00:00</time></trkpt><trkpt lat="38.97794665" lon="-0.48924607"><ele>132.2</ele><time>2022-11-13T14:01:42.0000000+00:00</time></trkpt><trkpt lat="38.97794313" lon="-0.48925856"><ele>132.2</ele><time>2022-11-13T14:01:43.0000000+00:00</time></trkpt><trkpt lat="38.97793567" lon="-0.48926569"><ele>132.2</ele><time>2022-11-13T14:01:44.0000000+00:00</time></trkpt><trkpt lat="38.97792821" lon="-0.4892708"><ele>132.2</ele><time>2022-11-13T14:01:45.0000000+00:00</time></trkpt><trkpt lat="38.9779189" lon="-0.48928061"><ele>132.2</ele><time>2022-11-13T14:01:46.0000000+00:00</time></trkpt><trkpt lat="38.97791069" lon="-0.4892848"><ele>132.0</ele><time>2022-11-13T14:01:47.0000000+00:00</time></trkpt><trkpt lat="38.97790281" lon="-0.48929276"><ele>132.0</ele><time>2022-11-13T14:01:48.0000000+00:00</time></trkpt><trkpt lat="38.97789602" lon="-0.48930709"><ele>132.0</ele><time>2022-11-13T14:01:49.0000000+00:00</time></trkpt><trkpt lat="38.97789133" lon="-0.48931648"><ele>132.0</ele><time>2022-11-13T14:01:50.0000000+00:00</time></trkpt><trkpt lat="38.97788747" lon="-0.48932763"><ele>132.0</ele><time>2022-11-13T14:01:51.0000000+00:00</time></trkpt><trkpt lat="38.97788152" lon="-0.48933601"><ele>132.0</ele><time>2022-11-13T14:01:52.0000000+00:00</time></trkpt><trkpt lat="38.97787339" lon="-0.48934205"><ele>132.0</ele><time>2022-11-13T14:01:53.0000000+00:00</time></trkpt><trkpt lat="38.97786685" lon="-0.48934515"><ele>132.0</ele><time>2022-11-13T14:01:54.0000000+00:00</time></trkpt><trkpt lat="38.97785914" lon="-0.4893542"><ele>132.0</ele><time>2022-11-13T14:01:55.0000000+00:00</time></trkpt><trkpt lat="38.97784933" lon="-0.48936728"><ele>132.0</ele><time>2022-11-13T14:01:56.0000000+00:00</time></trkpt><trkpt lat="38.97784154" lon="-0.48937532"><ele>131.8</ele><time>2022-11-13T14:01:57.0000000+00:00</time></trkpt><trkpt lat="38.97783307" lon="-0.48938898"><ele>131.8</ele><time>2022-11-13T14:01:58.0000000+00:00</time></trkpt><trkpt lat="38.97783148" lon="-0.48940491"><ele>131.8</ele><time>2022-11-13T14:01:59.0000000+00:00</time></trkpt><trkpt lat="38.97783324" lon="-0.48942293"><ele>131.8</ele><time>2022-11-13T14:02:00.0000000+00:00</time></trkpt><trkpt lat="38.97783442" lon="-0.48943978"><ele>131.8</ele><time>2022-11-13T14:02:01.0000000+00:00</time></trkpt><trkpt lat="38.97783442" lon="-0.48945218"><ele>131.8</ele><time>2022-11-13T14:02:02.0000000+00:00</time></trkpt><trkpt lat="38.97783752" lon="-0.48947347"><ele>131.8</ele><time>2022-11-13T14:02:03.0000000+00:00</time></trkpt><trkpt lat="38.97783081" lon="-0.48949166"><ele>131.8</ele><time>2022-11-13T14:02:04.0000000+00:00</time></trkpt><trkpt lat="38.97782243" lon="-0.48950499"><ele>131.8</ele><time>2022-11-13T14:02:05.0000000+00:00</time></trkpt><trkpt lat="38.97781245" lon="-0.48951639"><ele>131.8</ele><time>2022-11-13T14:02:06.0000000+00:00</time></trkpt><trkpt lat="38.97779192" lon="-0.48952167"><ele>131.8</ele><time>2022-11-13T14:02:07.0000000+00:00</time></trkpt><trkpt lat="38.97778119" lon="-0.48952117"><ele>131.8</ele><time>2022-11-13T14:02:08.0000000+00:00</time></trkpt><trkpt lat="38.97777365" lon="-0.48952578"><ele>131.8</ele><time>2022-11-13T14:02:09.0000000+00:00</time></trkpt><trkpt lat="38.97776216" lon="-0.48953164"><ele>131.8</ele><time>2022-11-13T14:02:10.0000000+00:00</time></trkpt><trkpt lat="38.9777485" lon="-0.48953936"><ele>131.8</ele><time>2022-11-13T14:02:11.0000000+00:00</time></trkpt><trkpt lat="38.97773266" lon="-0.48954061"><ele>131.6</ele><time>2022-11-13T14:02:12.0000000+00:00</time></trkpt><trkpt lat="38.97772034" lon="-0.48954438"><ele>131.6</ele><time>2022-11-13T14:02:13.0000000+00:00</time></trkpt><trkpt lat="38.97771003" lon="-0.48955637"><ele>131.6</ele><time>2022-11-13T14:02:14.0000000+00:00</time></trkpt><trkpt lat="38.97770709" lon="-0.48956743"><ele>131.6</ele><time>2022-11-13T14:02:15.0000000+00:00</time></trkpt><trkpt lat="38.97770098" lon="-0.48958185"><ele>131.6</ele><time>2022-11-13T14:02:16.0000000+00:00</time></trkpt><trkpt lat="38.97769368" lon="-0.48960641"><ele>131.8</ele><time>2022-11-13T14:02:17.0000000+00:00</time></trkpt><trkpt lat="38.97770165" lon="-0.48963784"><ele>131.8</ele><time>2022-11-13T14:02:18.0000000+00:00</time></trkpt><trkpt lat="38.97770483" lon="-0.48965075"><ele>131.8</ele><time>2022-11-13T14:02:19.0000000+00:00</time></trkpt><trkpt lat="38.97770131" lon="-0.48965125"><ele>131.8</ele><time>2022-11-13T14:02:20.0000000+00:00</time></trkpt><trkpt lat="38.97768999" lon="-0.48966634"><ele>132.0</ele><time>2022-11-13T14:02:21.0000000+00:00</time></trkpt><trkpt lat="38.97767751" lon="-0.48968118"><ele>132.0</ele><time>2022-11-13T14:02:22.0000000+00:00</time></trkpt><trkpt lat="38.97766661" lon="-0.48969593"><ele>132.0</ele><time>2022-11-13T14:02:23.0000000+00:00</time></trkpt><trkpt lat="38.9776558" lon="-0.48970733"><ele>132.0</ele><time>2022-11-13T14:02:24.0000000+00:00</time></trkpt><trkpt lat="38.97764507" lon="-0.48971605"><ele>132.0</ele><time>2022-11-13T14:02:25.0000000+00:00</time></trkpt><trkpt lat="38.9776325" lon="-0.48971848"><ele>131.8</ele><time>2022-11-13T14:02:26.0000000+00:00</time></trkpt><trkpt lat="38.9776169" lon="-0.48971898"><ele>131.8</ele><time>2022-11-13T14:02:27.0000000+00:00</time></trkpt><trkpt lat="38.97760358" lon="-0.48972904"><ele>131.8</ele><time>2022-11-13T14:02:28.0000000+00:00</time></trkpt><trkpt lat="38.97759335" lon="-0.48973692"><ele>131.8</ele><time>2022-11-13T14:02:29.0000000+00:00</time></trkpt><trkpt lat="38.97758396" lon="-0.48974454"><ele>131.8</ele><time>2022-11-13T14:02:30.0000000+00:00</time></trkpt><trkpt lat="38.97757785" lon="-0.48974949"><ele>131.8</ele><time>2022-11-13T14:02:31.0000000+00:00</time></trkpt><trkpt lat="38.97757248" lon="-0.4897577"><ele>131.8</ele><time>2022-11-13T14:02:32.0000000+00:00</time></trkpt><trkpt lat="38.97757215" lon="-0.48977573"><ele>131.8</ele><time>2022-11-13T14:02:33.0000000+00:00</time></trkpt><trkpt lat="38.97757164" lon="-0.48979425"><ele>131.8</ele><time>2022-11-13T14:02:34.0000000+00:00</time></trkpt><trkpt lat="38.97756527" lon="-0.48981194"><ele>131.8</ele><time>2022-11-13T14:02:35.0000000+00:00</time></trkpt><trkpt lat="38.97755689" lon="-0.48982744"><ele>131.8</ele><time>2022-11-13T14:02:36.0000000+00:00</time></trkpt><trkpt lat="38.9775434" lon="-0.48982535"><ele>131.8</ele><time>2022-11-13T14:02:37.0000000+00:00</time></trkpt><trkpt lat="38.97752982" lon="-0.48982258"><ele>131.8</ele><time>2022-11-13T14:02:38.0000000+00:00</time></trkpt><trkpt lat="38.97751012" lon="-0.4898168"><ele>131.8</ele><time>2022-11-13T14:02:39.0000000+00:00</time></trkpt><trkpt lat="38.97750149" lon="-0.48982065"><ele>131.8</ele><time>2022-11-13T14:02:40.0000000+00:00</time></trkpt><trkpt lat="38.97749906" lon="-0.48983624"><ele>131.8</ele><time>2022-11-13T14:02:41.0000000+00:00</time></trkpt><trkpt lat="38.97749864" lon="-0.48986767"><ele>131.8</ele><time>2022-11-13T14:02:42.0000000+00:00</time></trkpt><trkpt lat="38.97750299" lon="-0.48989743"><ele>131.8</ele><time>2022-11-13T14:02:43.0000000+00:00</time></trkpt><trkpt lat="38.97749989" lon="-0.48991252"><ele>131.8</ele><time>2022-11-13T14:02:44.0000000+00:00</time></trkpt><trkpt lat="38.9774895" lon="-0.48991956"><ele>131.8</ele><time>2022-11-13T14:02:45.0000000+00:00</time></trkpt><trkpt lat="38.97749059" lon="-0.48992953"><ele>131.8</ele><time>2022-11-13T14:02:46.0000000+00:00</time></trkpt><trkpt lat="38.97749017" lon="-0.48993599"><ele>131.8</ele><time>2022-11-13T14:02:47.0000000+00:00</time></trkpt><trkpt lat="38.97749151" lon="-0.48993624"><ele>131.8</ele><time>2022-11-13T14:02:48.0000000+00:00</time></trkpt><trkpt lat="38.97749344" lon="-0.4899297"><ele>131.8</ele><time>2022-11-13T14:02:49.0000000+00:00</time></trkpt><trkpt lat="38.97749453" lon="-0.48992869"><ele>131.8</ele><time>2022-11-13T14:02:50.0000000+00:00</time></trkpt><trkpt lat="38.97749277" lon="-0.48992962"><ele>131.8</ele><time>2022-11-13T14:02:51.0000000+00:00</time></trkpt><trkpt lat="38.97748875" lon="-0.48992886"><ele>131.8</ele><time>2022-11-13T14:02:52.0000000+00:00</time></trkpt><trkpt lat="38.97747668" lon="-0.48993289"><ele>131.8</ele><time>2022-11-13T14:02:53.0000000+00:00</time></trkpt><trkpt lat="38.97746083" lon="-0.48993372"><ele>131.8</ele><time>2022-11-13T14:02:54.0000000+00:00</time></trkpt><trkpt lat="38.97744809" lon="-0.48993783"><ele>131.8</ele><time>2022-11-13T14:02:55.0000000+00:00</time></trkpt><trkpt lat="38.97743502" lon="-0.48993884"><ele>131.8</ele><time>2022-11-13T14:02:56.0000000+00:00</time></trkpt><trkpt lat="38.9774237" lon="-0.48993532"><ele>131.8</ele><time>2022-11-13T14:02:57.0000000+00:00</time></trkpt><trkpt lat="38.97741674" lon="-0.48993523"><ele>131.8</ele><time>2022-11-13T14:02:58.0000000+00:00</time></trkpt><trkpt lat="38.97740442" lon="-0.489939"><ele>131.8</ele><time>2022-11-13T14:02:59.0000000+00:00</time></trkpt><trkpt lat="38.97739353" lon="-0.48994563"><ele>131.8</ele><time>2022-11-13T14:03:00.0000000+00:00</time></trkpt><trkpt lat="38.97739126" lon="-0.48996214"><ele>131.8</ele><time>2022-11-13T14:03:01.0000000+00:00</time></trkpt><trkpt lat="38.97738749" lon="-0.48997572"><ele>131.8</ele><time>2022-11-13T14:03:02.0000000+00:00</time></trkpt><trkpt lat="38.97738288" lon="-0.48998452"><ele>131.8</ele><time>2022-11-13T14:03:03.0000000+00:00</time></trkpt><trkpt lat="38.97737626" lon="-0.48998334"><ele>131.8</ele><time>2022-11-13T14:03:04.0000000+00:00</time></trkpt><trkpt lat="38.97736771" lon="-0.48998234"><ele>131.8</ele><time>2022-11-13T14:03:05.0000000+00:00</time></trkpt><trkpt lat="38.97735413" lon="-0.4899841"><ele>131.8</ele><time>2022-11-13T14:03:06.0000000+00:00</time></trkpt><trkpt lat="38.97734424" lon="-0.48998502"><ele>131.8</ele><time>2022-11-13T14:03:07.0000000+00:00</time></trkpt><trkpt lat="38.97732547" lon="-0.48998787"><ele>131.8</ele><time>2022-11-13T14:03:08.0000000+00:00</time></trkpt><trkpt lat="38.97731029" lon="-0.48999768"><ele>131.8</ele><time>2022-11-13T14:03:09.0000000+00:00</time></trkpt><trkpt lat="38.97729605" lon="-0.49000514"><ele>131.8</ele><time>2022-11-13T14:03:10.0000000+00:00</time></trkpt><trkpt lat="38.97729429" lon="-0.49001855"><ele>131.8</ele><time>2022-11-13T14:03:11.0000000+00:00</time></trkpt><trkpt lat="38.97729018" lon="-0.49003112"><ele>131.8</ele><time>2022-11-13T14:03:12.0000000+00:00</time></trkpt><trkpt lat="38.97728716" lon="-0.49004638"><ele>131.8</ele><time>2022-11-13T14:03:13.0000000+00:00</time></trkpt><trkpt lat="38.97727953" lon="-0.4900597"><ele>131.8</ele><time>2022-11-13T14:03:14.0000000+00:00</time></trkpt><trkpt lat="38.97727232" lon="-0.49007345"><ele>131.8</ele><time>2022-11-13T14:03:15.0000000+00:00</time></trkpt><trkpt lat="38.97726545" lon="-0.49008653"><ele>131.8</ele><time>2022-11-13T14:03:16.0000000+00:00</time></trkpt><trkpt lat="38.9772647" lon="-0.49009441"><ele>131.8</ele><time>2022-11-13T14:03:17.0000000+00:00</time></trkpt><trkpt lat="38.97726336" lon="-0.4901017"><ele>131.8</ele><time>2022-11-13T14:03:18.0000000+00:00</time></trkpt><trkpt lat="38.97726034" lon="-0.49009625"><ele>131.6</ele><time>2022-11-13T14:03:19.0000000+00:00</time></trkpt><trkpt lat="38.9772569" lon="-0.4900913"><ele>131.6</ele><time>2022-11-13T14:03:20.0000000+00:00</time></trkpt><trkpt lat="38.97725187" lon="-0.49010178"><ele>131.6</ele><time>2022-11-13T14:03:21.0000000+00:00</time></trkpt><trkpt lat="38.97724567" lon="-0.49011611"><ele>131.6</ele><time>2022-11-13T14:03:22.0000000+00:00</time></trkpt><trkpt lat="38.97724056" lon="-0.49012659"><ele>131.6</ele><time>2022-11-13T14:03:23.0000000+00:00</time></trkpt><trkpt lat="38.97723553" lon="-0.49014612"><ele>131.6</ele><time>2022-11-13T14:03:24.0000000+00:00</time></trkpt><trkpt lat="38.97723075" lon="-0.4901623"><ele>131.6</ele><time>2022-11-13T14:03:25.0000000+00:00</time></trkpt><trkpt lat="38.97722522" lon="-0.49017177"><ele>131.6</ele><time>2022-11-13T14:03:26.0000000+00:00</time></trkpt><trkpt lat="38.97722312" lon="-0.49018216"><ele>131.6</ele><time>2022-11-13T14:03:27.0000000+00:00</time></trkpt><trkpt lat="38.97721801" lon="-0.49019323"><ele>131.6</ele><time>2022-11-13T14:03:28.0000000+00:00</time></trkpt><trkpt lat="38.97721214" lon="-0.49021301"><ele>131.6</ele><time>2022-11-13T14:03:29.0000000+00:00</time></trkpt><trkpt lat="38.97720393" lon="-0.49022952"><ele>131.6</ele><time>2022-11-13T14:03:30.0000000+00:00</time></trkpt><trkpt lat="38.97719965" lon="-0.49024126"><ele>131.6</ele><time>2022-11-13T14:03:31.0000000+00:00</time></trkpt><trkpt lat="38.97719504" lon="-0.49025274"><ele>131.6</ele><time>2022-11-13T14:03:32.0000000+00:00</time></trkpt><trkpt lat="38.97719144" lon="-0.49026405"><ele>131.6</ele><time>2022-11-13T14:03:33.0000000+00:00</time></trkpt><trkpt lat="38.97718943" lon="-0.49028006"><ele>131.6</ele><time>2022-11-13T14:03:34.0000000+00:00</time></trkpt><trkpt lat="38.97718616" lon="-0.49029314"><ele>131.6</ele><time>2022-11-13T14:03:35.0000000+00:00</time></trkpt><trkpt lat="38.97718297" lon="-0.49030655"><ele>131.8</ele><time>2022-11-13T14:03:36.0000000+00:00</time></trkpt><trkpt lat="38.97718012" lon="-0.49031577"><ele>131.8</ele><time>2022-11-13T14:03:37.0000000+00:00</time></trkpt><trkpt lat="38.97717753" lon="-0.49033178"><ele>131.8</ele><time>2022-11-13T14:03:38.0000000+00:00</time></trkpt><trkpt lat="38.97717509" lon="-0.49034486"><ele>131.8</ele><time>2022-11-13T14:03:39.0000000+00:00</time></trkpt><trkpt lat="38.97716671" lon="-0.49035265"><ele>131.6</ele><time>2022-11-13T14:03:40.0000000+00:00</time></trkpt><trkpt lat="38.97716085" lon="-0.49036254"><ele>131.6</ele><time>2022-11-13T14:03:41.0000000+00:00</time></trkpt><trkpt lat="38.97715137" lon="-0.49037084"><ele>131.6</ele><time>2022-11-13T14:03:42.0000000+00:00</time></trkpt><trkpt lat="38.97714014" lon="-0.49038123"><ele>131.4</ele><time>2022-11-13T14:03:43.0000000+00:00</time></trkpt><trkpt lat="38.97712707" lon="-0.49039012"><ele>131.6</ele><time>2022-11-13T14:03:44.0000000+00:00</time></trkpt><trkpt lat="38.97711542" lon="-0.49039406"><ele>131.8</ele><time>2022-11-13T14:03:45.0000000+00:00</time></trkpt><trkpt lat="38.977101" lon="-0.49039858"><ele>132.0</ele><time>2022-11-13T14:03:46.0000000+00:00</time></trkpt><trkpt lat="38.97709086" lon="-0.49040537"><ele>132.2</ele><time>2022-11-13T14:03:47.0000000+00:00</time></trkpt><trkpt lat="38.97708608" lon="-0.49041946"><ele>132.2</ele><time>2022-11-13T14:03:48.0000000+00:00</time></trkpt><trkpt lat="38.97708206" lon="-0.49042792"><ele>132.4</ele><time>2022-11-13T14:03:49.0000000+00:00</time></trkpt><trkpt lat="38.97708071" lon="-0.49043312"><ele>132.4</ele><time>2022-11-13T14:03:50.0000000+00:00</time></trkpt><trkpt lat="38.97707434" lon="-0.49043764"><ele>132.2</ele><time>2022-11-13T14:03:51.0000000+00:00</time></trkpt><trkpt lat="38.97706546" lon="-0.49044066"><ele>132.2</ele><time>2022-11-13T14:03:52.0000000+00:00</time></trkpt><trkpt lat="38.97705364" lon="-0.49045005"><ele>132.0</ele><time>2022-11-13T14:03:53.0000000+00:00</time></trkpt><trkpt lat="38.977044" lon="-0.49045307"><ele>132.0</ele><time>2022-11-13T14:03:54.0000000+00:00</time></trkpt><trkpt lat="38.97702724" lon="-0.49045994"><ele>132.0</ele><time>2022-11-13T14:03:55.0000000+00:00</time></trkpt><trkpt lat="38.9770176" lon="-0.49046271"><ele>132.0</ele><time>2022-11-13T14:03:56.0000000+00:00</time></trkpt><trkpt lat="38.97700695" lon="-0.49047687"><ele>132.0</ele><time>2022-11-13T14:03:57.0000000+00:00</time></trkpt><trkpt lat="38.97699455" lon="-0.49048685"><ele>131.8</ele><time>2022-11-13T14:03:58.0000000+00:00</time></trkpt><trkpt lat="38.97697988" lon="-0.4904824"><ele>131.6</ele><time>2022-11-13T14:03:59.0000000+00:00</time></trkpt><trkpt lat="38.97697267" lon="-0.4904783"><ele>131.6</ele><time>2022-11-13T14:04:00.0000000+00:00</time></trkpt><trkpt lat="38.97697016" lon="-0.49048768"><ele>131.4</ele><time>2022-11-13T14:04:01.0000000+00:00</time></trkpt><trkpt lat="38.97696613" lon="-0.49050009"><ele>131.4</ele><time>2022-11-13T14:04:02.0000000+00:00</time></trkpt><trkpt lat="38.97695448" lon="-0.49050369"><ele>131.4</ele><time>2022-11-13T14:04:03.0000000+00:00</time></trkpt><trkpt lat="38.97694174" lon="-0.49050537"><ele>131.4</ele><time>2022-11-13T14:04:04.0000000+00:00</time></trkpt><trkpt lat="38.97692858" lon="-0.49050956"><ele>131.4</ele><time>2022-11-13T14:04:05.0000000+00:00</time></trkpt><trkpt lat="38.97691953" lon="-0.49052624"><ele>131.6</ele><time>2022-11-13T14:04:06.0000000+00:00</time></trkpt><trkpt lat="38.97691442" lon="-0.49052465"><ele>131.6</ele><time>2022-11-13T14:04:07.0000000+00:00</time></trkpt><trkpt lat="38.97690411" lon="-0.4905254"><ele>131.6</ele><time>2022-11-13T14:04:08.0000000+00:00</time></trkpt><trkpt lat="38.97689581" lon="-0.49052314"><ele>131.8</ele><time>2022-11-13T14:04:09.0000000+00:00</time></trkpt><trkpt lat="38.97688676" lon="-0.49052456"><ele>131.8</ele><time>2022-11-13T14:04:10.0000000+00:00</time></trkpt><trkpt lat="38.97687712" lon="-0.4905275"><ele>131.8</ele><time>2022-11-13T14:04:11.0000000+00:00</time></trkpt><trkpt lat="38.97686647" lon="-0.49052767"><ele>132.0</ele><time>2022-11-13T14:04:12.0000000+00:00</time></trkpt><trkpt lat="38.97685608" lon="-0.49052741"><ele>132.0</ele><time>2022-11-13T14:04:13.0000000+00:00</time></trkpt><trkpt lat="38.97684041" lon="-0.49052482"><ele>132.0</ele><time>2022-11-13T14:04:14.0000000+00:00</time></trkpt><trkpt lat="38.97683202" lon="-0.49052834"><ele>132.2</ele><time>2022-11-13T14:04:15.0000000+00:00</time></trkpt><trkpt lat="38.97682398" lon="-0.49053244"><ele>132.4</ele><time>2022-11-13T14:04:16.0000000+00:00</time></trkpt><trkpt lat="38.97681744" lon="-0.49053915"><ele>132.4</ele><time>2022-11-13T14:04:17.0000000+00:00</time></trkpt><trkpt lat="38.97681216" lon="-0.49054041"><ele>132.6</ele><time>2022-11-13T14:04:18.0000000+00:00</time></trkpt><trkpt lat="38.97681065" lon="-0.49054217"><ele>132.6</ele><time>2022-11-13T14:04:19.0000000+00:00</time></trkpt><trkpt lat="38.9768109" lon="-0.49054175"><ele>132.6</ele><time>2022-11-13T14:04:20.0000000+00:00</time></trkpt><trkpt lat="38.97681132" lon="-0.49054116"><ele>132.6</ele><time>2022-11-13T14:04:21.0000000+00:00</time></trkpt><trkpt lat="38.9768104" lon="-0.4905415"><ele>132.6</ele><time>2022-11-13T14:04:22.0000000+00:00</time></trkpt><trkpt lat="38.97681015" lon="-0.49054686"><ele>132.8</ele><time>2022-11-13T14:04:23.0000000+00:00</time></trkpt><trkpt lat="38.97680956" lon="-0.49054602"><ele>132.8</ele><time>2022-11-13T14:04:24.0000000+00:00</time></trkpt><trkpt lat="38.97681082" lon="-0.49054711"><ele>132.8</ele><time>2022-11-13T14:04:25.0000000+00:00</time></trkpt><trkpt lat="38.97681258" lon="-0.49054837"><ele>132.8</ele><time>2022-11-13T14:04:26.0000000+00:00</time></trkpt><trkpt lat="38.9768166" lon="-0.4905503"><ele>133.0</ele><time>2022-11-13T14:04:27.0000000+00:00</time></trkpt><trkpt lat="38.97681853" lon="-0.4905529"><ele>133.2</ele><time>2022-11-13T14:04:28.0000000+00:00</time></trkpt><trkpt lat="38.97681987" lon="-0.49055181"><ele>133.4</ele><time>2022-11-13T14:04:29.0000000+00:00</time></trkpt><trkpt lat="38.9768187" lon="-0.49055038"><ele>133.4</ele><time>2022-11-13T14:04:30.0000000+00:00</time></trkpt><trkpt lat="38.9768187" lon="-0.49055038"><ele>133.4</ele><time>2022-11-13T14:04:31.0000000+00:00</time></trkpt><trkpt lat="38.9768187" lon="-0.49055038"><ele>133.2</ele><time>2022-11-13T14:04:32.0000000+00:00</time></trkpt><trkpt lat="38.9768187" lon="-0.49055038"><ele>133.0</ele><time>2022-11-13T14:04:33.0000000+00:00</time></trkpt><trkpt lat="38.9768187" lon="-0.49055038"><ele>133.0</ele><time>2022-11-13T14:04:34.0000000+00:00</time></trkpt><trkpt lat="38.9768187" lon="-0.49055038"><ele>133.0</ele><time>2022-11-13T14:04:35.0000000+00:00</time></trkpt><trkpt lat="38.9768187" lon="-0.49055038"><ele>133.0</ele><time>2022-11-13T14:04:36.0000000+00:00</time></trkpt><trkpt lat="38.9768187" lon="-0.49055038"><ele>133.2</ele><time>2022-11-13T14:04:37.0000000+00:00</time></trkpt><trkpt lat="38.9768187" lon="-0.49055038"><ele>133.2</ele><time>2022-11-13T14:04:38.0000000+00:00</time></trkpt><trkpt lat="38.97681853" lon="-0.49055038"><ele>133.4</ele><time>2022-11-13T14:04:39.0000000+00:00</time></trkpt><trkpt lat="38.97681157" lon="-0.49055172"><ele>133.4</ele><time>2022-11-13T14:04:40.0000000+00:00</time></trkpt><trkpt lat="38.97679254" lon="-0.49054845"><ele>133.4</ele><time>2022-11-13T14:04:41.0000000+00:00</time></trkpt><trkpt lat="38.9767741" lon="-0.49054854"><ele>133.6</ele><time>2022-11-13T14:04:42.0000000+00:00</time></trkpt><trkpt lat="38.9767596" lon="-0.49054979"><ele>133.6</ele><time>2022-11-13T14:04:43.0000000+00:00</time></trkpt><trkpt lat="38.97674577" lon="-0.49055331"><ele>133.6</ele><time>2022-11-13T14:04:44.0000000+00:00</time></trkpt><trkpt lat="38.97673253" lon="-0.49055658"><ele>133.6</ele><time>2022-11-13T14:04:45.0000000+00:00</time></trkpt><trkpt lat="38.97671937" lon="-0.49055315"><ele>133.6</ele><time>2022-11-13T14:04:46.0000000+00:00</time></trkpt><trkpt lat="38.97670738" lon="-0.49055072"><ele>133.4</ele><time>2022-11-13T14:04:47.0000000+00:00</time></trkpt><trkpt lat="38.97669691" lon="-0.49054862"><ele>133.4</ele><time>2022-11-13T14:04:48.0000000+00:00</time></trkpt><trkpt lat="38.97668609" lon="-0.49054996"><ele>133.4</ele><time>2022-11-13T14:04:49.0000000+00:00</time></trkpt><trkpt lat="38.97668727" lon="-0.49055088"><ele>133.2</ele><time>2022-11-13T14:04:50.0000000+00:00</time></trkpt><trkpt lat="38.97668928" lon="-0.4905508"><ele>133.2</ele><time>2022-11-13T14:04:51.0000000+00:00</time></trkpt><trkpt lat="38.976685" lon="-0.49055281"><ele>133.2</ele><time>2022-11-13T14:04:52.0000000+00:00</time></trkpt><trkpt lat="38.97668517" lon="-0.49055407"><ele>133.2</ele><time>2022-11-13T14:04:53.0000000+00:00</time></trkpt><trkpt lat="38.97668475" lon="-0.490556"><ele>133.2</ele><time>2022-11-13T14:04:54.0000000+00:00</time></trkpt><trkpt lat="38.97667822" lon="-0.49055315"><ele>133.4</ele><time>2022-11-13T14:04:55.0000000+00:00</time></trkpt><trkpt lat="38.97667805" lon="-0.49055248"><ele>133.4</ele><time>2022-11-13T14:04:56.0000000+00:00</time></trkpt><trkpt lat="38.97667788" lon="-0.49055181"><ele>133.4</ele><time>2022-11-13T14:04:57.0000000+00:00</time></trkpt><trkpt lat="38.97667788" lon="-0.49055181"><ele>133.4</ele><time>2022-11-13T14:04:58.0000000+00:00</time></trkpt><trkpt lat="38.97667788" lon="-0.49055181"><ele>133.4</ele><time>2022-11-13T14:04:59.0000000+00:00</time></trkpt><trkpt lat="38.97667788" lon="-0.49055181"><ele>133.4</ele><time>2022-11-13T14:05:00.0000000+00:00</time></trkpt><trkpt lat="38.97667788" lon="-0.49055181"><ele>133.4</ele><time>2022-11-13T14:05:01.0000000+00:00</time></trkpt><trkpt lat="38.97667788" lon="-0.49055181"><ele>133.6</ele><time>2022-11-13T14:05:02.0000000+00:00</time></trkpt><trkpt lat="38.97667788" lon="-0.49055181"><ele>133.6</ele><time>2022-11-13T14:05:03.0000000+00:00</time></trkpt><trkpt lat="38.97667788" lon="-0.49055181"><ele>133.6</ele><time>2022-11-13T14:05:04.0000000+00:00</time></trkpt><trkpt lat="38.97667788" lon="-0.49055181"><ele>133.6</ele><time>2022-11-13T14:05:05.0000000+00:00</time></trkpt><trkpt lat="38.97667788" lon="-0.49055181"><ele>133.4</ele><time>2022-11-13T14:05:06.0000000+00:00</time></trkpt><trkpt lat="38.97667788" lon="-0.49055181"><ele>133.4</ele><time>2022-11-13T14:05:07.0000000+00:00</time></trkpt><trkpt lat="38.97667788" lon="-0.49055181"><ele>133.4</ele><time>2022-11-13T14:05:08.0000000+00:00</time></trkpt><trkpt lat="38.97667788" lon="-0.49055181"><ele>133.4</ele><time>2022-11-13T14:05:09.0000000+00:00</time></trkpt><trkpt lat="38.97667788" lon="-0.49055181"><ele>133.6</ele><time>2022-11-13T14:05:10.0000000+00:00</time></trkpt><trkpt lat="38.97667788" lon="-0.49055181"><ele>133.4</ele><time>2022-11-13T14:05:11.0000000+00:00</time></trkpt><trkpt lat="38.97667788" lon="-0.4905513"><ele>133.4</ele><time>2022-11-13T14:05:12.0000000+00:00</time></trkpt><trkpt lat="38.97667738" lon="-0.49055097"><ele>133.4</ele><time>2022-11-13T14:05:13.0000000+00:00</time></trkpt><trkpt lat="38.97667729" lon="-0.4905508"><ele>133.4</ele><time>2022-11-13T14:05:14.0000000+00:00</time></trkpt><trkpt lat="38.97667687" lon="-0.49055021"><ele>133.2</ele><time>2022-11-13T14:05:15.0000000+00:00</time></trkpt><trkpt lat="38.97667226" lon="-0.49054963"><ele>133.2</ele><time>2022-11-13T14:05:16.0000000+00:00</time></trkpt><trkpt lat="38.9766576" lon="-0.49054351"><ele>133.0</ele><time>2022-11-13T14:05:17.0000000+00:00</time></trkpt><trkpt lat="38.97664041" lon="-0.49053068"><ele>133.0</ele><time>2022-11-13T14:05:18.0000000+00:00</time></trkpt><trkpt lat="38.97661963" lon="-0.49052565"><ele>133.0</ele><time>2022-11-13T14:05:19.0000000+00:00</time></trkpt><trkpt lat="38.9766037" lon="-0.49053253"><ele>133.0</ele><time>2022-11-13T14:05:20.0000000+00:00</time></trkpt><trkpt lat="38.97658794" lon="-0.49054049"><ele>133.0</ele><time>2022-11-13T14:05:21.0000000+00:00</time></trkpt><trkpt lat="38.97657185" lon="-0.49054803"><ele>133.0</ele><time>2022-11-13T14:05:22.0000000+00:00</time></trkpt><trkpt lat="38.97655643" lon="-0.49054703"><ele>133.0</ele><time>2022-11-13T14:05:23.0000000+00:00</time></trkpt><trkpt lat="38.97654109" lon="-0.49055222"><ele>133.0</ele><time>2022-11-13T14:05:24.0000000+00:00</time></trkpt><trkpt lat="38.97652776" lon="-0.49055457"><ele>133.0</ele><time>2022-11-13T14:05:25.0000000+00:00</time></trkpt><trkpt lat="38.97651351" lon="-0.49055306"><ele>133.2</ele><time>2022-11-13T14:05:26.0000000+00:00</time></trkpt><trkpt lat="38.97650178" lon="-0.4905544"><ele>133.2</ele><time>2022-11-13T14:05:27.0000000+00:00</time></trkpt><trkpt lat="38.97648887" lon="-0.49055122"><ele>133.2</ele><time>2022-11-13T14:05:28.0000000+00:00</time></trkpt><trkpt lat="38.97647747" lon="-0.49054636"><ele>133.2</ele><time>2022-11-13T14:05:29.0000000+00:00</time></trkpt><trkpt lat="38.97646582" lon="-0.49054141"><ele>133.2</ele><time>2022-11-13T14:05:30.0000000+00:00</time></trkpt><trkpt lat="38.97645718" lon="-0.49053077"><ele>133.4</ele><time>2022-11-13T14:05:31.0000000+00:00</time></trkpt><trkpt lat="38.97644252" lon="-0.49051886"><ele>133.4</ele><time>2022-11-13T14:05:32.0000000+00:00</time></trkpt><trkpt lat="38.97643011" lon="-0.4905161"><ele>133.4</ele><time>2022-11-13T14:05:33.0000000+00:00</time></trkpt><trkpt lat="38.97641653" lon="-0.490514"><ele>133.4</ele><time>2022-11-13T14:05:34.0000000+00:00</time></trkpt><trkpt lat="38.97639994" lon="-0.49051878"><ele>133.6</ele><time>2022-11-13T14:05:35.0000000+00:00</time></trkpt><trkpt lat="38.97638829" lon="-0.49051794"><ele>133.6</ele><time>2022-11-13T14:05:36.0000000+00:00</time></trkpt><trkpt lat="38.97638443" lon="-0.4905197"><ele>133.8</ele><time>2022-11-13T14:05:37.0000000+00:00</time></trkpt><trkpt lat="38.97638208" lon="-0.49052146"><ele>133.8</ele><time>2022-11-13T14:05:38.0000000+00:00</time></trkpt><trkpt lat="38.97638183" lon="-0.49052523"><ele>133.8</ele><time>2022-11-13T14:05:39.0000000+00:00</time></trkpt><trkpt lat="38.97638342" lon="-0.49052867"><ele>134.0</ele><time>2022-11-13T14:05:40.0000000+00:00</time></trkpt><trkpt lat="38.9763768" lon="-0.49052549"><ele>134.0</ele><time>2022-11-13T14:05:41.0000000+00:00</time></trkpt><trkpt lat="38.9763763" lon="-0.4905275"><ele>134.0</ele><time>2022-11-13T14:05:42.0000000+00:00</time></trkpt><trkpt lat="38.9763789" lon="-0.49052985"><ele>134.0</ele><time>2022-11-13T14:05:43.0000000+00:00</time></trkpt><trkpt lat="38.97638736" lon="-0.49053035"><ele>134.0</ele><time>2022-11-13T14:05:44.0000000+00:00</time></trkpt><trkpt lat="38.97638611" lon="-0.49052582"><ele>134.0</ele><time>2022-11-13T14:05:45.0000000+00:00</time></trkpt><trkpt lat="38.97638577" lon="-0.49052641"><ele>134.0</ele><time>2022-11-13T14:05:46.0000000+00:00</time></trkpt><trkpt lat="38.97638694" lon="-0.49052574"><ele>134.0</ele><time>2022-11-13T14:05:47.0000000+00:00</time></trkpt><trkpt lat="38.97638376" lon="-0.4905285"><ele>134.0</ele><time>2022-11-13T14:05:48.0000000+00:00</time></trkpt><trkpt lat="38.97638368" lon="-0.49052985"><ele>134.0</ele><time>2022-11-13T14:05:49.0000000+00:00</time></trkpt><trkpt lat="38.97638778" lon="-0.49052909"><ele>134.0</ele><time>2022-11-13T14:05:50.0000000+00:00</time></trkpt><trkpt lat="38.97636792" lon="-0.49053286"><ele>134.0</ele><time>2022-11-13T14:05:51.0000000+00:00</time></trkpt><trkpt lat="38.97637831" lon="-0.49054124"><ele>134.0</ele><time>2022-11-13T14:05:52.0000000+00:00</time></trkpt><trkpt lat="38.976396" lon="-0.49054896"><ele>134.0</ele><time>2022-11-13T14:05:53.0000000+00:00</time></trkpt><trkpt lat="38.9763991" lon="-0.49054795"><ele>134.0</ele><time>2022-11-13T14:05:54.0000000+00:00</time></trkpt><trkpt lat="38.97640413" lon="-0.49056077"><ele>134.2</ele><time>2022-11-13T14:05:55.0000000+00:00</time></trkpt><trkpt lat="38.97640597" lon="-0.4905544"><ele>134.2</ele><time>2022-11-13T14:05:56.0000000+00:00</time></trkpt><trkpt lat="38.97640798" lon="-0.49055013"><ele>134.2</ele><time>2022-11-13T14:05:57.0000000+00:00</time></trkpt><trkpt lat="38.97641184" lon="-0.49054443"><ele>134.2</ele><time>2022-11-13T14:05:58.0000000+00:00</time></trkpt><trkpt lat="38.97641494" lon="-0.49054527"><ele>134.0</ele><time>2022-11-13T14:05:59.0000000+00:00</time></trkpt><trkpt lat="38.97641175" lon="-0.49053772"><ele>134.0</ele><time>2022-11-13T14:06:00.0000000+00:00</time></trkpt><trkpt lat="38.97640815" lon="-0.49053186"><ele>134.0</ele><time>2022-11-13T14:06:01.0000000+00:00</time></trkpt><trkpt lat="38.97640849" lon="-0.49052289"><ele>134.0</ele><time>2022-11-13T14:06:02.0000000+00:00</time></trkpt><trkpt lat="38.97641067" lon="-0.49051635"><ele>134.0</ele><time>2022-11-13T14:06:03.0000000+00:00</time></trkpt><trkpt lat="38.97640907" lon="-0.49052817"><ele>134.0</ele><time>2022-11-13T14:06:04.0000000+00:00</time></trkpt><trkpt lat="38.97641393" lon="-0.49055482"><ele>134.0</ele><time>2022-11-13T14:06:05.0000000+00:00</time></trkpt><trkpt lat="38.97640807" lon="-0.49055792"><ele>134.0</ele><time>2022-11-13T14:06:06.0000000+00:00</time></trkpt><trkpt lat="38.97639088" lon="-0.490557"><ele>134.2</ele><time>2022-11-13T14:06:07.0000000+00:00</time></trkpt><trkpt lat="38.97636314" lon="-0.49055583"><ele>134.2</ele><time>2022-11-13T14:06:08.0000000+00:00</time></trkpt><trkpt lat="38.97635769" lon="-0.49057117"><ele>134.2</ele><time>2022-11-13T14:06:09.0000000+00:00</time></trkpt><trkpt lat="38.97634193" lon="-0.49058542"><ele>134.2</ele><time>2022-11-13T14:06:10.0000000+00:00</time></trkpt><trkpt lat="38.97632827" lon="-0.49060679"><ele>134.2</ele><time>2022-11-13T14:06:11.0000000+00:00</time></trkpt><trkpt lat="38.97631411" lon="-0.4906104"><ele>134.4</ele><time>2022-11-13T14:06:12.0000000+00:00</time></trkpt><trkpt lat="38.97630002" lon="-0.490614"><ele>134.4</ele><time>2022-11-13T14:06:13.0000000+00:00</time></trkpt><trkpt lat="38.97629726" lon="-0.49061609"><ele>134.4</ele><time>2022-11-13T14:06:14.0000000+00:00</time></trkpt><trkpt lat="38.97628075" lon="-0.49061299"><ele>134.4</ele><time>2022-11-13T14:06:15.0000000+00:00</time></trkpt><trkpt lat="38.97627697" lon="-0.49061408"><ele>134.4</ele><time>2022-11-13T14:06:16.0000000+00:00</time></trkpt><trkpt lat="38.9762478" lon="-0.49061827"><ele>134.4</ele><time>2022-11-13T14:06:17.0000000+00:00</time></trkpt><trkpt lat="38.97622266" lon="-0.49062163"><ele>134.4</ele><time>2022-11-13T14:06:18.0000000+00:00</time></trkpt><trkpt lat="38.9762012" lon="-0.49061433"><ele>134.2</ele><time>2022-11-13T14:06:19.0000000+00:00</time></trkpt><trkpt lat="38.97618184" lon="-0.49060436"><ele>134.0</ele><time>2022-11-13T14:06:20.0000000+00:00</time></trkpt><trkpt lat="38.97616332" lon="-0.49059489"><ele>133.8</ele><time>2022-11-13T14:06:21.0000000+00:00</time></trkpt><trkpt lat="38.97615133" lon="-0.49060755"><ele>133.8</ele><time>2022-11-13T14:06:22.0000000+00:00</time></trkpt><trkpt lat="38.97613431" lon="-0.49061358"><ele>133.6</ele><time>2022-11-13T14:06:23.0000000+00:00</time></trkpt><trkpt lat="38.97612903" lon="-0.49061467"><ele>133.6</ele><time>2022-11-13T14:06:24.0000000+00:00</time></trkpt><trkpt lat="38.97611638" lon="-0.49061081"><ele>133.4</ele><time>2022-11-13T14:06:25.0000000+00:00</time></trkpt><trkpt lat="38.97610573" lon="-0.4906088"><ele>133.4</ele><time>2022-11-13T14:06:26.0000000+00:00</time></trkpt><trkpt lat="38.97609945" lon="-0.49061291"><ele>133.2</ele><time>2022-11-13T14:06:27.0000000+00:00</time></trkpt><trkpt lat="38.97608754" lon="-0.49063244"><ele>133.2</ele><time>2022-11-13T14:06:28.0000000+00:00</time></trkpt><trkpt lat="38.97608235" lon="-0.4906451"><ele>133.2</ele><time>2022-11-13T14:06:29.0000000+00:00</time></trkpt><trkpt lat="38.97607589" lon="-0.4906513"><ele>133.2</ele><time>2022-11-13T14:06:30.0000000+00:00</time></trkpt><trkpt lat="38.976066" lon="-0.4906508"><ele>133.2</ele><time>2022-11-13T14:06:31.0000000+00:00</time></trkpt><trkpt lat="38.97605217" lon="-0.49064702"><ele>133.0</ele><time>2022-11-13T14:06:32.0000000+00:00</time></trkpt><trkpt lat="38.9760365" lon="-0.49064686"><ele>133.0</ele><time>2022-11-13T14:06:33.0000000+00:00</time></trkpt><trkpt lat="38.97602476" lon="-0.49066077"><ele>132.8</ele><time>2022-11-13T14:06:34.0000000+00:00</time></trkpt><trkpt lat="38.9760168" lon="-0.49067644"><ele>132.8</ele><time>2022-11-13T14:06:35.0000000+00:00</time></trkpt><trkpt lat="38.97601965" lon="-0.49069178"><ele>132.8</ele><time>2022-11-13T14:06:36.0000000+00:00</time></trkpt><trkpt lat="38.97602384" lon="-0.49070176"><ele>132.8</ele><time>2022-11-13T14:06:37.0000000+00:00</time></trkpt><trkpt lat="38.97602585" lon="-0.49071332"><ele>132.8</ele><time>2022-11-13T14:06:38.0000000+00:00</time></trkpt><trkpt lat="38.97602543" lon="-0.49073512"><ele>132.6</ele><time>2022-11-13T14:06:39.0000000+00:00</time></trkpt><trkpt lat="38.97602686" lon="-0.49075984"><ele>132.6</ele><time>2022-11-13T14:06:40.0000000+00:00</time></trkpt><trkpt lat="38.97601378" lon="-0.49076948"><ele>132.6</ele><time>2022-11-13T14:06:41.0000000+00:00</time></trkpt><trkpt lat="38.97599978" lon="-0.49077401"><ele>132.4</ele><time>2022-11-13T14:06:42.0000000+00:00</time></trkpt><trkpt lat="38.97598788" lon="-0.49077753"><ele>132.4</ele><time>2022-11-13T14:06:43.0000000+00:00</time></trkpt><trkpt lat="38.97597062" lon="-0.4907901"><ele>132.4</ele><time>2022-11-13T14:06:44.0000000+00:00</time></trkpt><trkpt lat="38.97595117" lon="-0.49079941"><ele>132.2</ele><time>2022-11-13T14:06:45.0000000+00:00</time></trkpt><trkpt lat="38.97593684" lon="-0.49080066"><ele>132.0</ele><time>2022-11-13T14:06:46.0000000+00:00</time></trkpt><trkpt lat="38.97591949" lon="-0.49081072"><ele>131.8</ele><time>2022-11-13T14:06:47.0000000+00:00</time></trkpt><trkpt lat="38.97591429" lon="-0.49082254"><ele>131.8</ele><time>2022-11-13T14:06:48.0000000+00:00</time></trkpt><trkpt lat="38.97590348" lon="-0.49083151"><ele>131.6</ele><time>2022-11-13T14:06:49.0000000+00:00</time></trkpt><trkpt lat="38.97589099" lon="-0.49083813"><ele>131.4</ele><time>2022-11-13T14:06:50.0000000+00:00</time></trkpt><trkpt lat="38.97588252" lon="-0.49083939"><ele>131.4</ele><time>2022-11-13T14:06:51.0000000+00:00</time></trkpt><trkpt lat="38.97588017" lon="-0.49084182"><ele>131.2</ele><time>2022-11-13T14:06:52.0000000+00:00</time></trkpt><trkpt lat="38.97587758" lon="-0.49084308"><ele>131.0</ele><time>2022-11-13T14:06:53.0000000+00:00</time></trkpt><trkpt lat="38.97587598" lon="-0.49084174"><ele>130.8</ele><time>2022-11-13T14:06:54.0000000+00:00</time></trkpt><trkpt lat="38.97587389" lon="-0.49083972"><ele>130.8</ele><time>2022-11-13T14:06:55.0000000+00:00</time></trkpt><trkpt lat="38.97587288" lon="-0.4908388"><ele>130.8</ele><time>2022-11-13T14:06:56.0000000+00:00</time></trkpt><trkpt lat="38.97587313" lon="-0.49083838"><ele>130.8</ele><time>2022-11-13T14:06:57.0000000+00:00</time></trkpt><trkpt lat="38.97587313" lon="-0.49083822"><ele>130.8</ele><time>2022-11-13T14:06:58.0000000+00:00</time></trkpt><trkpt lat="38.97587305" lon="-0.49083754"><ele>130.8</ele><time>2022-11-13T14:06:59.0000000+00:00</time></trkpt><trkpt lat="38.97587313" lon="-0.49083687"><ele>130.8</ele><time>2022-11-13T14:07:00.0000000+00:00</time></trkpt><trkpt lat="38.97587355" lon="-0.49083604"><ele>130.8</ele><time>2022-11-13T14:07:01.0000000+00:00</time></trkpt><trkpt lat="38.97587548" lon="-0.49083528"><ele>130.8</ele><time>2022-11-13T14:07:02.0000000+00:00</time></trkpt><trkpt lat="38.97587665" lon="-0.49083461"><ele>130.8</ele><time>2022-11-13T14:07:03.0000000+00:00</time></trkpt><trkpt lat="38.97587716" lon="-0.49083461"><ele>130.8</ele><time>2022-11-13T14:07:04.0000000+00:00</time></trkpt><trkpt lat="38.97587716" lon="-0.49083461"><ele>130.8</ele><time>2022-11-13T14:07:05.0000000+00:00</time></trkpt><trkpt lat="38.97587716" lon="-0.49083461"><ele>130.8</ele><time>2022-11-13T14:07:06.0000000+00:00</time></trkpt><trkpt lat="38.97587716" lon="-0.49083461"><ele>130.8</ele><time>2022-11-13T14:07:07.0000000+00:00</time></trkpt><trkpt lat="38.97587716" lon="-0.49083461"><ele>130.8</ele><time>2022-11-13T14:07:08.0000000+00:00</time></trkpt><trkpt lat="38.97587716" lon="-0.49083461"><ele>130.8</ele><time>2022-11-13T14:07:09.0000000+00:00</time></trkpt><trkpt lat="38.97587716" lon="-0.49083461"><ele>130.8</ele><time>2022-11-13T14:07:10.0000000+00:00</time></trkpt><trkpt lat="38.97587716" lon="-0.49083461"><ele>130.8</ele><time>2022-11-13T14:07:11.0000000+00:00</time></trkpt><trkpt lat="38.97587716" lon="-0.49083461"><ele>130.6</ele><time>2022-11-13T14:07:12.0000000+00:00</time></trkpt><trkpt lat="38.97587665" lon="-0.49083461"><ele>130.6</ele><time>2022-11-13T14:07:13.0000000+00:00</time></trkpt><trkpt lat="38.97587649" lon="-0.49083461"><ele>130.6</ele><time>2022-11-13T14:07:14.0000000+00:00</time></trkpt><trkpt lat="38.97587556" lon="-0.49083461"><ele>130.4</ele><time>2022-11-13T14:07:15.0000000+00:00</time></trkpt><trkpt lat="38.97587489" lon="-0.49083461"><ele>130.4</ele><time>2022-11-13T14:07:16.0000000+00:00</time></trkpt><trkpt lat="38.97587464" lon="-0.49083461"><ele>130.4</ele><time>2022-11-13T14:07:17.0000000+00:00</time></trkpt><trkpt lat="38.97587364" lon="-0.49083461"><ele>130.4</ele><time>2022-11-13T14:07:18.0000000+00:00</time></trkpt><trkpt lat="38.97587322" lon="-0.49083461"><ele>130.4</ele><time>2022-11-13T14:07:19.0000000+00:00</time></trkpt><trkpt lat="38.97587313" lon="-0.49083386"><ele>130.4</ele><time>2022-11-13T14:07:20.0000000+00:00</time></trkpt><trkpt lat="38.97587313" lon="-0.49083117"><ele>130.4</ele><time>2022-11-13T14:07:21.0000000+00:00</time></trkpt><trkpt lat="38.97586785" lon="-0.49083025"><ele>130.6</ele><time>2022-11-13T14:07:22.0000000+00:00</time></trkpt><trkpt lat="38.97585243" lon="-0.49083268"><ele>130.6</ele><time>2022-11-13T14:07:23.0000000+00:00</time></trkpt><trkpt lat="38.97583315" lon="-0.49083998"><ele>130.4</ele><time>2022-11-13T14:07:24.0000000+00:00</time></trkpt><trkpt lat="38.97581857" lon="-0.49084492"><ele>130.4</ele><time>2022-11-13T14:07:25.0000000+00:00</time></trkpt><trkpt lat="38.97580298" lon="-0.49084953"><ele>130.2</ele><time>2022-11-13T14:07:26.0000000+00:00</time></trkpt><trkpt lat="38.97578856" lon="-0.4908559"><ele>130.0</ele><time>2022-11-13T14:07:27.0000000+00:00</time></trkpt><trkpt lat="38.97577314" lon="-0.49086026"><ele>129.8</ele><time>2022-11-13T14:07:28.0000000+00:00</time></trkpt><trkpt lat="38.97576082" lon="-0.4908694"><ele>129.6</ele><time>2022-11-13T14:07:29.0000000+00:00</time></trkpt><trkpt lat="38.97575067" lon="-0.49087811"><ele>129.4</ele><time>2022-11-13T14:07:30.0000000+00:00</time></trkpt><trkpt lat="38.9757381" lon="-0.49088524"><ele>129.4</ele><time>2022-11-13T14:07:31.0000000+00:00</time></trkpt><trkpt lat="38.97572855" lon="-0.49089035"><ele>129.0</ele><time>2022-11-13T14:07:32.0000000+00:00</time></trkpt><trkpt lat="38.97571765" lon="-0.49089069"><ele>128.8</ele><time>2022-11-13T14:07:33.0000000+00:00</time></trkpt><trkpt lat="38.97570717" lon="-0.49089479"><ele>128.8</ele><time>2022-11-13T14:07:34.0000000+00:00</time></trkpt><trkpt lat="38.97569812" lon="-0.49089991"><ele>128.6</ele><time>2022-11-13T14:07:35.0000000+00:00</time></trkpt><trkpt lat="38.97569058" lon="-0.4909025"><ele>128.4</ele><time>2022-11-13T14:07:36.0000000+00:00</time></trkpt><trkpt lat="38.97567775" lon="-0.49090695"><ele>128.4</ele><time>2022-11-13T14:07:37.0000000+00:00</time></trkpt><trkpt lat="38.97566535" lon="-0.49090737"><ele>128.2</ele><time>2022-11-13T14:07:38.0000000+00:00</time></trkpt><trkpt lat="38.97565713" lon="-0.49091147"><ele>128.2</ele><time>2022-11-13T14:07:39.0000000+00:00</time></trkpt><trkpt lat="38.97564992" lon="-0.49091918"><ele>128.0</ele><time>2022-11-13T14:07:40.0000000+00:00</time></trkpt><trkpt lat="38.97564347" lon="-0.4909243"><ele>127.8</ele><time>2022-11-13T14:07:41.0000000+00:00</time></trkpt><trkpt lat="38.97563819" lon="-0.49092857"><ele>127.6</ele><time>2022-11-13T14:07:42.0000000+00:00</time></trkpt><trkpt lat="38.9756309" lon="-0.49093394"><ele>127.6</ele><time>2022-11-13T14:07:43.0000000+00:00</time></trkpt><trkpt lat="38.97562251" lon="-0.49093721"><ele>127.4</ele><time>2022-11-13T14:07:44.0000000+00:00</time></trkpt><trkpt lat="38.97561757" lon="-0.49094039"><ele>127.0</ele><time>2022-11-13T14:07:45.0000000+00:00</time></trkpt><trkpt lat="38.97561531" lon="-0.49094173"><ele>126.8</ele><time>2022-11-13T14:07:46.0000000+00:00</time></trkpt><trkpt lat="38.97560936" lon="-0.49094735"><ele>126.6</ele><time>2022-11-13T14:07:47.0000000+00:00</time></trkpt><trkpt lat="38.9755998" lon="-0.49095254"><ele>126.4</ele><time>2022-11-13T14:07:48.0000000+00:00</time></trkpt><trkpt lat="38.97558983" lon="-0.4909616"><ele>126.2</ele><time>2022-11-13T14:07:49.0000000+00:00</time></trkpt><trkpt lat="38.97558237" lon="-0.490973"><ele>126.0</ele><time>2022-11-13T14:07:50.0000000+00:00</time></trkpt><trkpt lat="38.97557306" lon="-0.49097995"><ele>126.0</ele><time>2022-11-13T14:07:51.0000000+00:00</time></trkpt><trkpt lat="38.97556376" lon="-0.49098708"><ele>125.6</ele><time>2022-11-13T14:07:52.0000000+00:00</time></trkpt><trkpt lat="38.97555202" lon="-0.49098917"><ele>125.4</ele><time>2022-11-13T14:07:53.0000000+00:00</time></trkpt><trkpt lat="38.97554188" lon="-0.4909916"><ele>125.4</ele><time>2022-11-13T14:07:54.0000000+00:00</time></trkpt><trkpt lat="38.97553283" lon="-0.49099647"><ele>125.0</ele><time>2022-11-13T14:07:55.0000000+00:00</time></trkpt><trkpt lat="38.9755252" lon="-0.49100602"><ele>124.8</ele><time>2022-11-13T14:07:56.0000000+00:00</time></trkpt><trkpt lat="38.97552277" lon="-0.49101415"><ele>124.6</ele><time>2022-11-13T14:07:57.0000000+00:00</time></trkpt><trkpt lat="38.97551581" lon="-0.49102731"><ele>124.4</ele><time>2022-11-13T14:07:58.0000000+00:00</time></trkpt><trkpt lat="38.9755086" lon="-0.49103745"><ele>124.2</ele><time>2022-11-13T14:07:59.0000000+00:00</time></trkpt><trkpt lat="38.97550307" lon="-0.49104692"><ele>124.0</ele><time>2022-11-13T14:08:00.0000000+00:00</time></trkpt><trkpt lat="38.97549821" lon="-0.49105589"><ele>123.8</ele><time>2022-11-13T14:08:01.0000000+00:00</time></trkpt><trkpt lat="38.97549377" lon="-0.49106629"><ele>123.6</ele><time>2022-11-13T14:08:02.0000000+00:00</time></trkpt><trkpt lat="38.97549293" lon="-0.49107794"><ele>123.4</ele><time>2022-11-13T14:08:03.0000000+00:00</time></trkpt><trkpt lat="38.97549394" lon="-0.49109135"><ele>123.4</ele><time>2022-11-13T14:08:04.0000000+00:00</time></trkpt><trkpt lat="38.9754962" lon="-0.49110518"><ele>123.2</ele><time>2022-11-13T14:08:05.0000000+00:00</time></trkpt><trkpt lat="38.97549486" lon="-0.49110845"><ele>123.2</ele><time>2022-11-13T14:08:06.0000000+00:00</time></trkpt><trkpt lat="38.97549679" lon="-0.4911253"><ele>123.2</ele><time>2022-11-13T14:08:07.0000000+00:00</time></trkpt><trkpt lat="38.97549721" lon="-0.49113058"><ele>123.0</ele><time>2022-11-13T14:08:08.0000000+00:00</time></trkpt><trkpt lat="38.97549813" lon="-0.49113384"><ele>123.0</ele><time>2022-11-13T14:08:09.0000000+00:00</time></trkpt><trkpt lat="38.97549762" lon="-0.49113334"><ele>123.0</ele><time>2022-11-13T14:08:10.0000000+00:00</time></trkpt><trkpt lat="38.97549754" lon="-0.49113452"><ele>123.0</ele><time>2022-11-13T14:08:11.0000000+00:00</time></trkpt><trkpt lat="38.97549779" lon="-0.49113569"><ele>123.0</ele><time>2022-11-13T14:08:12.0000000+00:00</time></trkpt><trkpt lat="38.97549829" lon="-0.49113711"><ele>123.0</ele><time>2022-11-13T14:08:13.0000000+00:00</time></trkpt><trkpt lat="38.97549863" lon="-0.49113837"><ele>123.0</ele><time>2022-11-13T14:08:14.0000000+00:00</time></trkpt><trkpt lat="38.97549838" lon="-0.4911398"><ele>123.0</ele><time>2022-11-13T14:08:15.0000000+00:00</time></trkpt><trkpt lat="38.97549729" lon="-0.49114063"><ele>123.0</ele><time>2022-11-13T14:08:16.0000000+00:00</time></trkpt><trkpt lat="38.97549679" lon="-0.49114122"><ele>122.8</ele><time>2022-11-13T14:08:17.0000000+00:00</time></trkpt><trkpt lat="38.97549612" lon="-0.49114047"><ele>122.8</ele><time>2022-11-13T14:08:18.0000000+00:00</time></trkpt><trkpt lat="38.97549561" lon="-0.49113879"><ele>122.8</ele><time>2022-11-13T14:08:19.0000000+00:00</time></trkpt><trkpt lat="38.97549561" lon="-0.49113795"><ele>122.8</ele><time>2022-11-13T14:08:20.0000000+00:00</time></trkpt><trkpt lat="38.97549561" lon="-0.49113795"><ele>122.8</ele><time>2022-11-13T14:08:21.0000000+00:00</time></trkpt><trkpt lat="38.97549561" lon="-0.49113795"><ele>122.8</ele><time>2022-11-13T14:08:22.0000000+00:00</time></trkpt><trkpt lat="38.97549561" lon="-0.49113795"><ele>122.8</ele><time>2022-11-13T14:08:23.0000000+00:00</time></trkpt><trkpt lat="38.97549561" lon="-0.49113795"><ele>122.8</ele><time>2022-11-13T14:08:24.0000000+00:00</time></trkpt><trkpt lat="38.97549561" lon="-0.49113795"><ele>122.8</ele><time>2022-11-13T14:08:25.0000000+00:00</time></trkpt><trkpt lat="38.97549561" lon="-0.49113795"><ele>122.8</ele><time>2022-11-13T14:08:26.0000000+00:00</time></trkpt><trkpt lat="38.97549561" lon="-0.49113795"><ele>122.8</ele><time>2022-11-13T14:08:27.0000000+00:00</time></trkpt><trkpt lat="38.97549561" lon="-0.49113795"><ele>122.8</ele><time>2022-11-13T14:08:28.0000000+00:00</time></trkpt><trkpt lat="38.97549561" lon="-0.49113795"><ele>122.8</ele><time>2022-11-13T14:08:29.0000000+00:00</time></trkpt><trkpt lat="38.97549561" lon="-0.49113795"><ele>122.8</ele><time>2022-11-13T14:08:30.0000000+00:00</time></trkpt><trkpt lat="38.97549561" lon="-0.49113795"><ele>122.8</ele><time>2022-11-13T14:08:31.0000000+00:00</time></trkpt><trkpt lat="38.97549578" lon="-0.49113795"><ele>122.8</ele><time>2022-11-13T14:08:32.0000000+00:00</time></trkpt><trkpt lat="38.97549595" lon="-0.49113795"><ele>122.8</ele><time>2022-11-13T14:08:33.0000000+00:00</time></trkpt><trkpt lat="38.97549595" lon="-0.4911377"><ele>122.8</ele><time>2022-11-13T14:08:34.0000000+00:00</time></trkpt><trkpt lat="38.97549612" lon="-0.4911372"><ele>122.8</ele><time>2022-11-13T14:08:35.0000000+00:00</time></trkpt><trkpt lat="38.97549628" lon="-0.49113678"><ele>122.8</ele><time>2022-11-13T14:08:36.0000000+00:00</time></trkpt><trkpt lat="38.9754967" lon="-0.49113594"><ele>122.8</ele><time>2022-11-13T14:08:37.0000000+00:00</time></trkpt><trkpt lat="38.97549687" lon="-0.49113577"><ele>122.8</ele><time>2022-11-13T14:08:38.0000000+00:00</time></trkpt><trkpt lat="38.97549695" lon="-0.49113569"><ele>122.8</ele><time>2022-11-13T14:08:39.0000000+00:00</time></trkpt><trkpt lat="38.97549712" lon="-0.49113569"><ele>122.8</ele><time>2022-11-13T14:08:40.0000000+00:00</time></trkpt><trkpt lat="38.97549721" lon="-0.49113519"><ele>122.8</ele><time>2022-11-13T14:08:41.0000000+00:00</time></trkpt><trkpt lat="38.97549721" lon="-0.49113502"><ele>122.8</ele><time>2022-11-13T14:08:42.0000000+00:00</time></trkpt><trkpt lat="38.97549721" lon="-0.49113426"><ele>122.8</ele><time>2022-11-13T14:08:43.0000000+00:00</time></trkpt><trkpt lat="38.97549721" lon="-0.49113418"><ele>122.8</ele><time>2022-11-13T14:08:44.0000000+00:00</time></trkpt><trkpt lat="38.97549721" lon="-0.4911341"><ele>122.8</ele><time>2022-11-13T14:08:45.0000000+00:00</time></trkpt><trkpt lat="38.97549721" lon="-0.49113401"><ele>122.8</ele><time>2022-11-13T14:08:46.0000000+00:00</time></trkpt><trkpt lat="38.97549746" lon="-0.49113384"><ele>123.0</ele><time>2022-11-13T14:08:47.0000000+00:00</time></trkpt><trkpt lat="38.97549762" lon="-0.49113376"><ele>123.0</ele><time>2022-11-13T14:08:48.0000000+00:00</time></trkpt><trkpt lat="38.97549813" lon="-0.49113376"><ele>122.8</ele><time>2022-11-13T14:08:49.0000000+00:00</time></trkpt><trkpt lat="38.97549829" lon="-0.49113334"><ele>123.0</ele><time>2022-11-13T14:08:50.0000000+00:00</time></trkpt><trkpt lat="38.97549863" lon="-0.49113326"><ele>122.8</ele><time>2022-11-13T14:08:51.0000000+00:00</time></trkpt><trkpt lat="38.9754988" lon="-0.49113317"><ele>122.8</ele><time>2022-11-13T14:08:52.0000000+00:00</time></trkpt><trkpt lat="38.97549972" lon="-0.49113276"><ele>122.8</ele><time>2022-11-13T14:08:53.0000000+00:00</time></trkpt><trkpt lat="38.97549989" lon="-0.49113242"><ele>122.8</ele><time>2022-11-13T14:08:54.0000000+00:00</time></trkpt><trkpt lat="38.97549989" lon="-0.49113225"><ele>122.8</ele><time>2022-11-13T14:08:55.0000000+00:00</time></trkpt><trkpt lat="38.97549989" lon="-0.49113208"><ele>122.8</ele><time>2022-11-13T14:08:56.0000000+00:00</time></trkpt><trkpt lat="38.97549989" lon="-0.49113208"><ele>122.8</ele><time>2022-11-13T14:08:57.0000000+00:00</time></trkpt><trkpt lat="38.97549989" lon="-0.49113175"><ele>122.8</ele><time>2022-11-13T14:08:58.0000000+00:00</time></trkpt><trkpt lat="38.97549989" lon="-0.49113083"><ele>122.8</ele><time>2022-11-13T14:08:59.0000000+00:00</time></trkpt><trkpt lat="38.97549997" lon="-0.49112999"><ele>122.8</ele><time>2022-11-13T14:09:00.0000000+00:00</time></trkpt><trkpt lat="38.97550006" lon="-0.49112865"><ele>122.8</ele><time>2022-11-13T14:09:01.0000000+00:00</time></trkpt><trkpt lat="38.97550006" lon="-0.49112798"><ele>122.8</ele><time>2022-11-13T14:09:02.0000000+00:00</time></trkpt><trkpt lat="38.97550006" lon="-0.49112773"><ele>122.8</ele><time>2022-11-13T14:09:03.0000000+00:00</time></trkpt><trkpt lat="38.97550006" lon="-0.49112764"><ele>122.8</ele><time>2022-11-13T14:09:04.0000000+00:00</time></trkpt><trkpt lat="38.97550014" lon="-0.49112706"><ele>122.8</ele><time>2022-11-13T14:09:05.0000000+00:00</time></trkpt><trkpt lat="38.97550014" lon="-0.49112689"><ele>122.8</ele><time>2022-11-13T14:09:06.0000000+00:00</time></trkpt><trkpt lat="38.97550022" lon="-0.4911268"><ele>122.8</ele><time>2022-11-13T14:09:07.0000000+00:00</time></trkpt><trkpt lat="38.97550022" lon="-0.4911268"><ele>122.8</ele><time>2022-11-13T14:09:08.0000000+00:00</time></trkpt><trkpt lat="38.97550022" lon="-0.4911268"><ele>122.8</ele><time>2022-11-13T14:09:09.0000000+00:00</time></trkpt><trkpt lat="38.97550022" lon="-0.4911268"><ele>122.8</ele><time>2022-11-13T14:09:10.0000000+00:00</time></trkpt><trkpt lat="38.97550022" lon="-0.4911268"><ele>122.8</ele><time>2022-11-13T14:09:11.0000000+00:00</time></trkpt><trkpt lat="38.97550022" lon="-0.4911268"><ele>122.8</ele><time>2022-11-13T14:09:12.0000000+00:00</time></trkpt><trkpt lat="38.97550022" lon="-0.4911268"><ele>122.8</ele><time>2022-11-13T14:09:13.0000000+00:00</time></trkpt><trkpt lat="38.97550022" lon="-0.4911268"><ele>122.8</ele><time>2022-11-13T14:09:14.0000000+00:00</time></trkpt><trkpt lat="38.97550022" lon="-0.4911268"><ele>122.8</ele><time>2022-11-13T14:09:15.0000000+00:00</time></trkpt><trkpt lat="38.97550014" lon="-0.4911268"><ele>122.8</ele><time>2022-11-13T14:09:16.0000000+00:00</time></trkpt><trkpt lat="38.97550006" lon="-0.49112689"><ele>122.8</ele><time>2022-11-13T14:09:17.0000000+00:00</time></trkpt><trkpt lat="38.97549997" lon="-0.49112739"><ele>122.8</ele><time>2022-11-13T14:09:18.0000000+00:00</time></trkpt><trkpt lat="38.97549997" lon="-0.49112756"><ele>122.8</ele><time>2022-11-13T14:09:19.0000000+00:00</time></trkpt><trkpt lat="38.97549997" lon="-0.49112764"><ele>122.8</ele><time>2022-11-13T14:09:20.0000000+00:00</time></trkpt><trkpt lat="38.97549997" lon="-0.49112806"><ele>122.8</ele><time>2022-11-13T14:09:21.0000000+00:00</time></trkpt><trkpt lat="38.97549997" lon="-0.49112848"><ele>122.8</ele><time>2022-11-13T14:09:22.0000000+00:00</time></trkpt><trkpt lat="38.97549997" lon="-0.49112974"><ele>122.8</ele><time>2022-11-13T14:09:23.0000000+00:00</time></trkpt><trkpt lat="38.97549997" lon="-0.49113074"><ele>122.8</ele><time>2022-11-13T14:09:24.0000000+00:00</time></trkpt><trkpt lat="38.97549997" lon="-0.49113133"><ele>122.8</ele><time>2022-11-13T14:09:25.0000000+00:00</time></trkpt><trkpt lat="38.97549997" lon="-0.49113309"><ele>122.8</ele><time>2022-11-13T14:09:26.0000000+00:00</time></trkpt><trkpt lat="38.97550006" lon="-0.49113477"><ele>122.8</ele><time>2022-11-13T14:09:27.0000000+00:00</time></trkpt><trkpt lat="38.97550198" lon="-0.49113971"><ele>122.4</ele><time>2022-11-13T14:09:28.0000000+00:00</time></trkpt><trkpt lat="38.97551171" lon="-0.49116"><ele>122.4</ele><time>2022-11-13T14:09:29.0000000+00:00</time></trkpt><trkpt lat="38.97551833" lon="-0.49118062"><ele>122.4</ele><time>2022-11-13T14:09:30.0000000+00:00</time></trkpt><trkpt lat="38.97552461" lon="-0.49120073"><ele>122.4</ele><time>2022-11-13T14:09:31.0000000+00:00</time></trkpt><trkpt lat="38.97553333" lon="-0.49122118"><ele>122.4</ele><time>2022-11-13T14:09:32.0000000+00:00</time></trkpt><trkpt lat="38.97553425" lon="-0.49124382"><ele>122.4</ele><time>2022-11-13T14:09:33.0000000+00:00</time></trkpt><trkpt lat="38.9755392" lon="-0.491261"><ele>122.4</ele><time>2022-11-13T14:09:34.0000000+00:00</time></trkpt><trkpt lat="38.97554649" lon="-0.49127164"><ele>122.4</ele><time>2022-11-13T14:09:35.0000000+00:00</time></trkpt><trkpt lat="38.97554741" lon="-0.49127592"><ele>122.4</ele><time>2022-11-13T14:09:36.0000000+00:00</time></trkpt><trkpt lat="38.97555018" lon="-0.49128095"><ele>122.4</ele><time>2022-11-13T14:09:37.0000000+00:00</time></trkpt><trkpt lat="38.9755506" lon="-0.49128078"><ele>122.4</ele><time>2022-11-13T14:09:38.0000000+00:00</time></trkpt><trkpt lat="38.97555026" lon="-0.49128044"><ele>122.4</ele><time>2022-11-13T14:09:39.0000000+00:00</time></trkpt><trkpt lat="38.97554901" lon="-0.49127961"><ele>122.2</ele><time>2022-11-13T14:09:40.0000000+00:00</time></trkpt><trkpt lat="38.9755485" lon="-0.49127885"><ele>122.2</ele><time>2022-11-13T14:09:41.0000000+00:00</time></trkpt><trkpt lat="38.97554817" lon="-0.49127743"><ele>122.0</ele><time>2022-11-13T14:09:42.0000000+00:00</time></trkpt><trkpt lat="38.97554901" lon="-0.4912765"><ele>122.0</ele><time>2022-11-13T14:09:43.0000000+00:00</time></trkpt><trkpt lat="38.97554968" lon="-0.4912729"><ele>122.0</ele><time>2022-11-13T14:09:44.0000000+00:00</time></trkpt><trkpt lat="38.97555018" lon="-0.4912703"><ele>122.0</ele><time>2022-11-13T14:09:45.0000000+00:00</time></trkpt><trkpt lat="38.97555085" lon="-0.49126963"><ele>122.0</ele><time>2022-11-13T14:09:46.0000000+00:00</time></trkpt><trkpt lat="38.97555169" lon="-0.49126972"><ele>122.0</ele><time>2022-11-13T14:09:47.0000000+00:00</time></trkpt><trkpt lat="38.97555102" lon="-0.49126972"><ele>122.0</ele><time>2022-11-13T14:09:48.0000000+00:00</time></trkpt><trkpt lat="38.97554867" lon="-0.49127106"><ele>122.0</ele><time>2022-11-13T14:09:49.0000000+00:00</time></trkpt><trkpt lat="38.97554934" lon="-0.49128019"><ele>122.0</ele><time>2022-11-13T14:09:50.0000000+00:00</time></trkpt><trkpt lat="38.97555186" lon="-0.49128866"><ele>122.0</ele><time>2022-11-13T14:09:51.0000000+00:00</time></trkpt><trkpt lat="38.97555932" lon="-0.49130207"><ele>122.0</ele><time>2022-11-13T14:09:52.0000000+00:00</time></trkpt><trkpt lat="38.97556342" lon="-0.49131925"><ele>121.8</ele><time>2022-11-13T14:09:53.0000000+00:00</time></trkpt><trkpt lat="38.97556661" lon="-0.49133669"><ele>121.8</ele><time>2022-11-13T14:09:54.0000000+00:00</time></trkpt><trkpt lat="38.97557105" lon="-0.49135454"><ele>121.8</ele><time>2022-11-13T14:09:55.0000000+00:00</time></trkpt><trkpt lat="38.97557046" lon="-0.49137474"><ele>121.6</ele><time>2022-11-13T14:09:56.0000000+00:00</time></trkpt><trkpt lat="38.97556493" lon="-0.49139754"><ele>121.4</ele><time>2022-11-13T14:09:57.0000000+00:00</time></trkpt><trkpt lat="38.97556267" lon="-0.49141363"><ele>121.4</ele><time>2022-11-13T14:09:58.0000000+00:00</time></trkpt><trkpt lat="38.97555898" lon="-0.49142855"><ele>121.4</ele><time>2022-11-13T14:09:59.0000000+00:00</time></trkpt><trkpt lat="38.97555395" lon="-0.49143559"><ele>121.2</ele><time>2022-11-13T14:10:00.0000000+00:00</time></trkpt><trkpt lat="38.97554968" lon="-0.49142621"><ele>121.2</ele><time>2022-11-13T14:10:01.0000000+00:00</time></trkpt><trkpt lat="38.97554599" lon="-0.49141808"><ele>121.2</ele><time>2022-11-13T14:10:02.0000000+00:00</time></trkpt><trkpt lat="38.97553828" lon="-0.49140877"><ele>121.0</ele><time>2022-11-13T14:10:03.0000000+00:00</time></trkpt><trkpt lat="38.9755304" lon="-0.49139603"><ele>121.0</ele><time>2022-11-13T14:10:04.0000000+00:00</time></trkpt><trkpt lat="38.97552394" lon="-0.49138463"><ele>121.0</ele><time>2022-11-13T14:10:05.0000000+00:00</time></trkpt><trkpt lat="38.97551556" lon="-0.4913641"><ele>121.0</ele><time>2022-11-13T14:10:06.0000000+00:00</time></trkpt><trkpt lat="38.97551355" lon="-0.49134918"><ele>121.0</ele><time>2022-11-13T14:10:07.0000000+00:00</time></trkpt><trkpt lat="38.97550626" lon="-0.49133459"><ele>120.8</ele><time>2022-11-13T14:10:08.0000000+00:00</time></trkpt><trkpt lat="38.97550358" lon="-0.49132395"><ele>120.8</ele><time>2022-11-13T14:10:09.0000000+00:00</time></trkpt><trkpt lat="38.97549746" lon="-0.4913128"><ele>120.8</ele><time>2022-11-13T14:10:10.0000000+00:00</time></trkpt><trkpt lat="38.97548807" lon="-0.49130073"><ele>120.6</ele><time>2022-11-13T14:10:11.0000000+00:00</time></trkpt><trkpt lat="38.97547575" lon="-0.49129352"><ele>120.6</ele><time>2022-11-13T14:10:12.0000000+00:00</time></trkpt><trkpt lat="38.97546284" lon="-0.49128438"><ele>120.6</ele><time>2022-11-13T14:10:13.0000000+00:00</time></trkpt><trkpt lat="38.97545245" lon="-0.49127491"><ele>120.6</ele><time>2022-11-13T14:10:14.0000000+00:00</time></trkpt><trkpt lat="38.97543619" lon="-0.49126418"><ele>120.4</ele><time>2022-11-13T14:10:15.0000000+00:00</time></trkpt><trkpt lat="38.97541682" lon="-0.4912615"><ele>120.4</ele><time>2022-11-13T14:10:16.0000000+00:00</time></trkpt><trkpt lat="38.97540576" lon="-0.491261"><ele>120.4</ele><time>2022-11-13T14:10:17.0000000+00:00</time></trkpt><trkpt lat="38.97539528" lon="-0.49125756"><ele>120.2</ele><time>2022-11-13T14:10:18.0000000+00:00</time></trkpt><trkpt lat="38.9753843" lon="-0.49124893"><ele>120.2</ele><time>2022-11-13T14:10:19.0000000+00:00</time></trkpt><trkpt lat="38.9753693" lon="-0.49124457"><ele>120.0</ele><time>2022-11-13T14:10:20.0000000+00:00</time></trkpt><trkpt lat="38.97535136" lon="-0.49123552"><ele>120.0</ele><time>2022-11-13T14:10:21.0000000+00:00</time></trkpt><trkpt lat="38.97533267" lon="-0.49123032"><ele>119.8</ele><time>2022-11-13T14:10:22.0000000+00:00</time></trkpt><trkpt lat="38.97532269" lon="-0.4912273"><ele>119.6</ele><time>2022-11-13T14:10:23.0000000+00:00</time></trkpt><trkpt lat="38.97531482" lon="-0.49122898"><ele>119.6</ele><time>2022-11-13T14:10:24.0000000+00:00</time></trkpt><trkpt lat="38.97529746" lon="-0.49123359"><ele>119.4</ele><time>2022-11-13T14:10:25.0000000+00:00</time></trkpt><trkpt lat="38.97528003" lon="-0.4912294"><ele>119.4</ele><time>2022-11-13T14:10:26.0000000+00:00</time></trkpt><trkpt lat="38.97526905" lon="-0.49122362"><ele>119.4</ele><time>2022-11-13T14:10:27.0000000+00:00</time></trkpt><trkpt lat="38.97526092" lon="-0.49121255"><ele>119.2</ele><time>2022-11-13T14:10:28.0000000+00:00</time></trkpt><trkpt lat="38.97525036" lon="-0.4911838"><ele>119.2</ele><time>2022-11-13T14:10:29.0000000+00:00</time></trkpt><trkpt lat="38.9752263" lon="-0.49116846"><ele>119.2</ele><time>2022-11-13T14:10:30.0000000+00:00</time></trkpt><trkpt lat="38.97521859" lon="-0.49117207"><ele>119.2</ele><time>2022-11-13T14:10:31.0000000+00:00</time></trkpt><trkpt lat="38.97521088" lon="-0.49117307"><ele>119.0</ele><time>2022-11-13T14:10:32.0000000+00:00</time></trkpt><trkpt lat="38.97518909" lon="-0.49117148"><ele>119.0</ele><time>2022-11-13T14:10:33.0000000+00:00</time></trkpt><trkpt lat="38.97517693" lon="-0.49117483"><ele>119.0</ele><time>2022-11-13T14:10:34.0000000+00:00</time></trkpt><trkpt lat="38.97516537" lon="-0.49117064"><ele>119.0</ele><time>2022-11-13T14:10:35.0000000+00:00</time></trkpt><trkpt lat="38.97515355" lon="-0.4911636"><ele>119.0</ele><time>2022-11-13T14:10:36.0000000+00:00</time></trkpt><trkpt lat="38.97514282" lon="-0.49115044"><ele>119.0</ele><time>2022-11-13T14:10:37.0000000+00:00</time></trkpt><trkpt lat="38.97513804" lon="-0.49113695"><ele>119.0</ele><time>2022-11-13T14:10:38.0000000+00:00</time></trkpt><trkpt lat="38.9751346" lon="-0.49112798"><ele>119.0</ele><time>2022-11-13T14:10:39.0000000+00:00</time></trkpt><trkpt lat="38.9751305" lon="-0.49112479"><ele>119.0</ele><time>2022-11-13T14:10:40.0000000+00:00</time></trkpt><trkpt lat="38.97513678" lon="-0.49111515"><ele>118.8</ele><time>2022-11-13T14:10:41.0000000+00:00</time></trkpt><trkpt lat="38.97514022" lon="-0.49111012"><ele>118.8</ele><time>2022-11-13T14:10:42.0000000+00:00</time></trkpt><trkpt lat="38.97514005" lon="-0.49110317"><ele>118.8</ele><time>2022-11-13T14:10:43.0000000+00:00</time></trkpt><trkpt lat="38.97514056" lon="-0.49110032"><ele>118.8</ele><time>2022-11-13T14:10:44.0000000+00:00</time></trkpt><trkpt lat="38.97514106" lon="-0.4910994"><ele>118.8</ele><time>2022-11-13T14:10:45.0000000+00:00</time></trkpt><trkpt lat="38.97514064" lon="-0.49109789"><ele>118.8</ele><time>2022-11-13T14:10:46.0000000+00:00</time></trkpt><trkpt lat="38.97514005" lon="-0.49109797"><ele>118.8</ele><time>2022-11-13T14:10:47.0000000+00:00</time></trkpt><trkpt lat="38.97512983" lon="-0.49109386"><ele>118.8</ele><time>2022-11-13T14:10:48.0000000+00:00</time></trkpt><trkpt lat="38.97511851" lon="-0.49109646"><ele>118.8</ele><time>2022-11-13T14:10:49.0000000+00:00</time></trkpt><trkpt lat="38.97510745" lon="-0.49110493"><ele>118.8</ele><time>2022-11-13T14:10:50.0000000+00:00</time></trkpt><trkpt lat="38.97509881" lon="-0.49110736"><ele>118.8</ele><time>2022-11-13T14:10:51.0000000+00:00</time></trkpt><trkpt lat="38.97508767" lon="-0.49110996"><ele>118.8</ele><time>2022-11-13T14:10:52.0000000+00:00</time></trkpt><trkpt lat="38.97507585" lon="-0.49111088"><ele>119.0</ele><time>2022-11-13T14:10:53.0000000+00:00</time></trkpt><trkpt lat="38.97506696" lon="-0.49111255"><ele>119.2</ele><time>2022-11-13T14:10:54.0000000+00:00</time></trkpt><trkpt lat="38.97505397" lon="-0.49110987"><ele>119.4</ele><time>2022-11-13T14:10:55.0000000+00:00</time></trkpt><trkpt lat="38.97503872" lon="-0.49110618"><ele>119.6</ele><time>2022-11-13T14:10:56.0000000+00:00</time></trkpt><trkpt lat="38.97502832" lon="-0.49110275"><ele>119.8</ele><time>2022-11-13T14:10:57.0000000+00:00</time></trkpt><trkpt lat="38.97501265" lon="-0.4910994"><ele>119.8</ele><time>2022-11-13T14:10:58.0000000+00:00</time></trkpt><trkpt lat="38.975001" lon="-0.49109303"><ele>120.2</ele><time>2022-11-13T14:10:59.0000000+00:00</time></trkpt><trkpt lat="38.97499077" lon="-0.49108992"><ele>120.2</ele><time>2022-11-13T14:11:00.0000000+00:00</time></trkpt><trkpt lat="38.97497828" lon="-0.49109034"><ele>120.6</ele><time>2022-11-13T14:11:01.0000000+00:00</time></trkpt><trkpt lat="38.97496252" lon="-0.4910916"><ele>120.8</ele><time>2022-11-13T14:11:02.0000000+00:00</time></trkpt><trkpt lat="38.97495062" lon="-0.49109395"><ele>120.8</ele><time>2022-11-13T14:11:03.0000000+00:00</time></trkpt><trkpt lat="38.97494014" lon="-0.49109831"><ele>121.2</ele><time>2022-11-13T14:11:04.0000000+00:00</time></trkpt><trkpt lat="38.97492858" lon="-0.49110015"><ele>121.4</ele><time>2022-11-13T14:11:05.0000000+00:00</time></trkpt><trkpt lat="38.97491483" lon="-0.49110384"><ele>121.6</ele><time>2022-11-13T14:11:06.0000000+00:00</time></trkpt><trkpt lat="38.9749005" lon="-0.4911061"><ele>121.8</ele><time>2022-11-13T14:11:07.0000000+00:00</time></trkpt><trkpt lat="38.97489103" lon="-0.49110962"><ele>122.0</ele><time>2022-11-13T14:11:08.0000000+00:00</time></trkpt><trkpt lat="38.97487485" lon="-0.49111063"><ele>122.2</ele><time>2022-11-13T14:11:09.0000000+00:00</time></trkpt><trkpt lat="38.97485515" lon="-0.49110769"><ele>122.4</ele><time>2022-11-13T14:11:10.0000000+00:00</time></trkpt><trkpt lat="38.97484794" lon="-0.49110862"><ele>122.6</ele><time>2022-11-13T14:11:11.0000000+00:00</time></trkpt><trkpt lat="38.97484384" lon="-0.4911056"><ele>122.8</ele><time>2022-11-13T14:11:12.0000000+00:00</time></trkpt><trkpt lat="38.97484057" lon="-0.49110342"><ele>122.8</ele><time>2022-11-13T14:11:13.0000000+00:00</time></trkpt><trkpt lat="38.97483772" lon="-0.49109864"><ele>123.0</ele><time>2022-11-13T14:11:14.0000000+00:00</time></trkpt><trkpt lat="38.97483235" lon="-0.49109881"><ele>123.0</ele><time>2022-11-13T14:11:15.0000000+00:00</time></trkpt><trkpt lat="38.9748202" lon="-0.49110116"><ele>123.2</ele><time>2022-11-13T14:11:16.0000000+00:00</time></trkpt><trkpt lat="38.97481106" lon="-0.49111138"><ele>123.2</ele><time>2022-11-13T14:11:17.0000000+00:00</time></trkpt><trkpt lat="38.97479623" lon="-0.49112052"><ele>123.4</ele><time>2022-11-13T14:11:18.0000000+00:00</time></trkpt><trkpt lat="38.97478743" lon="-0.49112815"><ele>123.6</ele><time>2022-11-13T14:11:19.0000000+00:00</time></trkpt><trkpt lat="38.97477971" lon="-0.4911315"><ele>123.6</ele><time>2022-11-13T14:11:20.0000000+00:00</time></trkpt><trkpt lat="38.97477091" lon="-0.49113879"><ele>123.8</ele><time>2022-11-13T14:11:21.0000000+00:00</time></trkpt><trkpt lat="38.97475893" lon="-0.49114776"><ele>124.0</ele><time>2022-11-13T14:11:22.0000000+00:00</time></trkpt><trkpt lat="38.97474946" lon="-0.49115078"><ele>124.0</ele><time>2022-11-13T14:11:23.0000000+00:00</time></trkpt><trkpt lat="38.97474007" lon="-0.49114969"><ele>124.2</ele><time>2022-11-13T14:11:24.0000000+00:00</time></trkpt><trkpt lat="38.97472406" lon="-0.49115103"><ele>124.4</ele><time>2022-11-13T14:11:25.0000000+00:00</time></trkpt><trkpt lat="38.97471149" lon="-0.49114717"><ele>124.8</ele><time>2022-11-13T14:11:26.0000000+00:00</time></trkpt><trkpt lat="38.97470034" lon="-0.49114809"><ele>125.0</ele><time>2022-11-13T14:11:27.0000000+00:00</time></trkpt><trkpt lat="38.97469606" lon="-0.49114985"><ele>125.2</ele><time>2022-11-13T14:11:28.0000000+00:00</time></trkpt><trkpt lat="38.97469732" lon="-0.49115933"><ele>125.2</ele><time>2022-11-13T14:11:29.0000000+00:00</time></trkpt><trkpt lat="38.97469757" lon="-0.49116293"><ele>125.4</ele><time>2022-11-13T14:11:30.0000000+00:00</time></trkpt><trkpt lat="38.97468902" lon="-0.49116251"><ele>125.6</ele><time>2022-11-13T14:11:31.0000000+00:00</time></trkpt><trkpt lat="38.97467611" lon="-0.49115631"><ele>125.8</ele><time>2022-11-13T14:11:32.0000000+00:00</time></trkpt><trkpt lat="38.97467184" lon="-0.49115178"><ele>126.0</ele><time>2022-11-13T14:11:33.0000000+00:00</time></trkpt><trkpt lat="38.97466765" lon="-0.49115296"><ele>126.0</ele><time>2022-11-13T14:11:34.0000000+00:00</time></trkpt><trkpt lat="38.97466564" lon="-0.49115229"><ele>126.4</ele><time>2022-11-13T14:11:35.0000000+00:00</time></trkpt><trkpt lat="38.97466279" lon="-0.49114298"><ele>126.6</ele><time>2022-11-13T14:11:36.0000000+00:00</time></trkpt><trkpt lat="38.97466438" lon="-0.49114307"><ele>126.6</ele><time>2022-11-13T14:11:37.0000000+00:00</time></trkpt><trkpt lat="38.97466304" lon="-0.49113644"><ele>126.8</ele><time>2022-11-13T14:11:38.0000000+00:00</time></trkpt><trkpt lat="38.9746586" lon="-0.49113175"><ele>126.8</ele><time>2022-11-13T14:11:39.0000000+00:00</time></trkpt><trkpt lat="38.97465834" lon="-0.49112865"><ele>126.8</ele><time>2022-11-13T14:11:40.0000000+00:00</time></trkpt><trkpt lat="38.97465784" lon="-0.49113334"><ele>126.8</ele><time>2022-11-13T14:11:41.0000000+00:00</time></trkpt><trkpt lat="38.97465784" lon="-0.49113477"><ele>126.8</ele><time>2022-11-13T14:11:42.0000000+00:00</time></trkpt><trkpt lat="38.97465876" lon="-0.4911346"><ele>126.8</ele><time>2022-11-13T14:11:43.0000000+00:00</time></trkpt><trkpt lat="38.97465826" lon="-0.49113443"><ele>126.6</ele><time>2022-11-13T14:11:44.0000000+00:00</time></trkpt><trkpt lat="38.97465742" lon="-0.49113535"><ele>126.6</ele><time>2022-11-13T14:11:45.0000000+00:00</time></trkpt><trkpt lat="38.97465575" lon="-0.49113602"><ele>126.6</ele><time>2022-11-13T14:11:46.0000000+00:00</time></trkpt><trkpt lat="38.97465633" lon="-0.49113535"><ele>126.6</ele><time>2022-11-13T14:11:47.0000000+00:00</time></trkpt><trkpt lat="38.97465851" lon="-0.49113477"><ele>126.6</ele><time>2022-11-13T14:11:48.0000000+00:00</time></trkpt><trkpt lat="38.97466002" lon="-0.49113636"><ele>126.6</ele><time>2022-11-13T14:11:49.0000000+00:00</time></trkpt><trkpt lat="38.97466606" lon="-0.49113041"><ele>126.6</ele><time>2022-11-13T14:11:50.0000000+00:00</time></trkpt><trkpt lat="38.97466891" lon="-0.49112873"><ele>126.6</ele><time>2022-11-13T14:11:51.0000000+00:00</time></trkpt><trkpt lat="38.97466966" lon="-0.49112873"><ele>126.8</ele><time>2022-11-13T14:11:52.0000000+00:00</time></trkpt><trkpt lat="38.97466966" lon="-0.49112873"><ele>126.8</ele><time>2022-11-13T14:11:53.0000000+00:00</time></trkpt><trkpt lat="38.97466966" lon="-0.49112873"><ele>126.8</ele><time>2022-11-13T14:11:54.0000000+00:00</time></trkpt><trkpt lat="38.97466966" lon="-0.49112873"><ele>126.8</ele><time>2022-11-13T14:11:55.0000000+00:00</time></trkpt><trkpt lat="38.97466966" lon="-0.49112873"><ele>126.6</ele><time>2022-11-13T14:11:56.0000000+00:00</time></trkpt><trkpt lat="38.97466966" lon="-0.49112873"><ele>126.6</ele><time>2022-11-13T14:11:57.0000000+00:00</time></trkpt><trkpt lat="38.97466966" lon="-0.49112873"><ele>126.6</ele><time>2022-11-13T14:11:58.0000000+00:00</time></trkpt><trkpt lat="38.97466966" lon="-0.49112873"><ele>126.6</ele><time>2022-11-13T14:11:59.0000000+00:00</time></trkpt><trkpt lat="38.97466907" lon="-0.49112873"><ele>126.6</ele><time>2022-11-13T14:12:00.0000000+00:00</time></trkpt><trkpt lat="38.97466907" lon="-0.49112873"><ele>126.6</ele><time>2022-11-13T14:12:01.0000000+00:00</time></trkpt><trkpt lat="38.97466907" lon="-0.49112873"><ele>126.4</ele><time>2022-11-13T14:12:02.0000000+00:00</time></trkpt><trkpt lat="38.97466907" lon="-0.49112873"><ele>126.4</ele><time>2022-11-13T14:12:03.0000000+00:00</time></trkpt><trkpt lat="38.97466907" lon="-0.49112873"><ele>126.4</ele><time>2022-11-13T14:12:04.0000000+00:00</time></trkpt><trkpt lat="38.97466907" lon="-0.49112873"><ele>126.4</ele><time>2022-11-13T14:12:05.0000000+00:00</time></trkpt><trkpt lat="38.97466907" lon="-0.49112873"><ele>126.4</ele><time>2022-11-13T14:12:06.0000000+00:00</time></trkpt><trkpt lat="38.97466907" lon="-0.49112873"><ele>126.4</ele><time>2022-11-13T14:12:07.0000000+00:00</time></trkpt><trkpt lat="38.97466907" lon="-0.49112873"><ele>126.4</ele><time>2022-11-13T14:12:08.0000000+00:00</time></trkpt><trkpt lat="38.97466907" lon="-0.49112873"><ele>126.4</ele><time>2022-11-13T14:12:09.0000000+00:00</time></trkpt><trkpt lat="38.97466907" lon="-0.49112873"><ele>126.4</ele><time>2022-11-13T14:12:10.0000000+00:00</time></trkpt><trkpt lat="38.97466907" lon="-0.49112873"><ele>126.4</ele><time>2022-11-13T14:12:11.0000000+00:00</time></trkpt><trkpt lat="38.97466907" lon="-0.49112873"><ele>126.4</ele><time>2022-11-13T14:12:12.0000000+00:00</time></trkpt><trkpt lat="38.97466907" lon="-0.49112873"><ele>126.6</ele><time>2022-11-13T14:12:13.0000000+00:00</time></trkpt><trkpt lat="38.97467117" lon="-0.49112521"><ele>126.6</ele><time>2022-11-13T14:12:14.0000000+00:00</time></trkpt><trkpt lat="38.97466916" lon="-0.49111012"><ele>126.6</ele><time>2022-11-13T14:12:15.0000000+00:00</time></trkpt><trkpt lat="38.97466673" lon="-0.49109764"><ele>126.8</ele><time>2022-11-13T14:12:16.0000000+00:00</time></trkpt><trkpt lat="38.97466111" lon="-0.49107894"><ele>127.0</ele><time>2022-11-13T14:12:17.0000000+00:00</time></trkpt><trkpt lat="38.97465491" lon="-0.49106193"><ele>127.0</ele><time>2022-11-13T14:12:18.0000000+00:00</time></trkpt><trkpt lat="38.97464728" lon="-0.49104785"><ele>127.2</ele><time>2022-11-13T14:12:19.0000000+00:00</time></trkpt><trkpt lat="38.97463865" lon="-0.49103653"><ele>127.2</ele><time>2022-11-13T14:12:20.0000000+00:00</time></trkpt><trkpt lat="38.97463018" lon="-0.49101826"><ele>127.4</ele><time>2022-11-13T14:12:21.0000000+00:00</time></trkpt><trkpt lat="38.97462113" lon="-0.491002"><ele>127.4</ele><time>2022-11-13T14:12:22.0000000+00:00</time></trkpt><trkpt lat="38.97461493" lon="-0.49098842"><ele>127.4</ele><time>2022-11-13T14:12:23.0000000+00:00</time></trkpt><trkpt lat="38.97460227" lon="-0.49097543"><ele>127.6</ele><time>2022-11-13T14:12:24.0000000+00:00</time></trkpt><trkpt lat="38.97459489" lon="-0.49096378"><ele>127.6</ele><time>2022-11-13T14:12:25.0000000+00:00</time></trkpt><trkpt lat="38.97459297" lon="-0.49094986"><ele>127.6</ele><time>2022-11-13T14:12:26.0000000+00:00</time></trkpt><trkpt lat="38.97458978" lon="-0.49093553"><ele>127.8</ele><time>2022-11-13T14:12:27.0000000+00:00</time></trkpt><trkpt lat="38.97458559" lon="-0.49092648"><ele>127.8</ele><time>2022-11-13T14:12:28.0000000+00:00</time></trkpt><trkpt lat="38.97457394" lon="-0.49091348"><ele>128.0</ele><time>2022-11-13T14:12:29.0000000+00:00</time></trkpt><trkpt lat="38.97456924" lon="-0.49089991"><ele>128.0</ele><time>2022-11-13T14:12:30.0000000+00:00</time></trkpt><trkpt lat="38.97456958" lon="-0.49088775"><ele>128.2</ele><time>2022-11-13T14:12:31.0000000+00:00</time></trkpt><trkpt lat="38.9745695" lon="-0.49087493"><ele>128.2</ele><time>2022-11-13T14:12:32.0000000+00:00</time></trkpt><trkpt lat="38.97456489" lon="-0.49086428"><ele>128.4</ele><time>2022-11-13T14:12:33.0000000+00:00</time></trkpt><trkpt lat="38.97456078" lon="-0.49085565"><ele>128.4</ele><time>2022-11-13T14:12:34.0000000+00:00</time></trkpt><trkpt lat="38.9745524" lon="-0.49084425"><ele>128.6</ele><time>2022-11-13T14:12:35.0000000+00:00</time></trkpt><trkpt lat="38.97455039" lon="-0.49083067"><ele>128.6</ele><time>2022-11-13T14:12:36.0000000+00:00</time></trkpt><trkpt lat="38.9745498" lon="-0.49081441"><ele>128.8</ele><time>2022-11-13T14:12:37.0000000+00:00</time></trkpt><trkpt lat="38.97455173" lon="-0.49080569"><ele>128.8</ele><time>2022-11-13T14:12:38.0000000+00:00</time></trkpt><trkpt lat="38.97454787" lon="-0.49080066"><ele>129.0</ele><time>2022-11-13T14:12:39.0000000+00:00</time></trkpt><trkpt lat="38.97453429" lon="-0.4907958"><ele>129.2</ele><time>2022-11-13T14:12:40.0000000+00:00</time></trkpt><trkpt lat="38.97453278" lon="-0.49078893"><ele>129.4</ele><time>2022-11-13T14:12:41.0000000+00:00</time></trkpt><trkpt lat="38.97453144" lon="-0.49078097"><ele>129.4</ele><time>2022-11-13T14:12:42.0000000+00:00</time></trkpt><trkpt lat="38.97452415" lon="-0.4907746"><ele>129.4</ele><time>2022-11-13T14:12:43.0000000+00:00</time></trkpt><trkpt lat="38.97451703" lon="-0.49076546"><ele>129.6</ele><time>2022-11-13T14:12:44.0000000+00:00</time></trkpt><trkpt lat="38.97450965" lon="-0.4907518"><ele>129.6</ele><time>2022-11-13T14:12:45.0000000+00:00</time></trkpt><trkpt lat="38.9745032" lon="-0.49073663"><ele>129.6</ele><time>2022-11-13T14:12:46.0000000+00:00</time></trkpt><trkpt lat="38.97449146" lon="-0.4907171"><ele>129.6</ele><time>2022-11-13T14:12:47.0000000+00:00</time></trkpt><trkpt lat="38.97448358" lon="-0.49070402"><ele>129.8</ele><time>2022-11-13T14:12:48.0000000+00:00</time></trkpt><trkpt lat="38.9744752" lon="-0.49069027"><ele>130.0</ele><time>2022-11-13T14:12:49.0000000+00:00</time></trkpt><trkpt lat="38.97447025" lon="-0.49067485"><ele>130.0</ele><time>2022-11-13T14:12:50.0000000+00:00</time></trkpt><trkpt lat="38.97445902" lon="-0.49066077"><ele>130.2</ele><time>2022-11-13T14:12:51.0000000+00:00</time></trkpt><trkpt lat="38.97445131" lon="-0.49065029"><ele>130.4</ele><time>2022-11-13T14:12:52.0000000+00:00</time></trkpt><trkpt lat="38.97443597" lon="-0.49064359"><ele>130.6</ele><time>2022-11-13T14:12:53.0000000+00:00</time></trkpt><trkpt lat="38.97443187" lon="-0.49063269"><ele>130.8</ele><time>2022-11-13T14:12:54.0000000+00:00</time></trkpt><trkpt lat="38.9744208" lon="-0.49062615"><ele>131.0</ele><time>2022-11-13T14:12:55.0000000+00:00</time></trkpt><trkpt lat="38.97441711" lon="-0.49061174"><ele>131.2</ele><time>2022-11-13T14:12:56.0000000+00:00</time></trkpt><trkpt lat="38.97440848" lon="-0.49060034"><ele>131.4</ele><time>2022-11-13T14:12:57.0000000+00:00</time></trkpt><trkpt lat="38.97439281" lon="-0.49059849"><ele>131.6</ele><time>2022-11-13T14:12:58.0000000+00:00</time></trkpt><trkpt lat="38.9743861" lon="-0.49059514"><ele>131.6</ele><time>2022-11-13T14:12:59.0000000+00:00</time></trkpt><trkpt lat="38.9743804" lon="-0.49059346"><ele>131.8</ele><time>2022-11-13T14:13:00.0000000+00:00</time></trkpt><trkpt lat="38.97437772" lon="-0.49059556"><ele>131.8</ele><time>2022-11-13T14:13:01.0000000+00:00</time></trkpt><trkpt lat="38.97437621" lon="-0.49059698"><ele>131.8</ele><time>2022-11-13T14:13:02.0000000+00:00</time></trkpt><trkpt lat="38.97437579" lon="-0.49059598"><ele>131.8</ele><time>2022-11-13T14:13:03.0000000+00:00</time></trkpt><trkpt lat="38.97437428" lon="-0.49059455"><ele>132.0</ele><time>2022-11-13T14:13:04.0000000+00:00</time></trkpt><trkpt lat="38.97437319" lon="-0.49059564"><ele>132.0</ele><time>2022-11-13T14:13:05.0000000+00:00</time></trkpt><trkpt lat="38.97437302" lon="-0.49059866"><ele>132.0</ele><time>2022-11-13T14:13:06.0000000+00:00</time></trkpt><trkpt lat="38.97437336" lon="-0.490599"><ele>132.0</ele><time>2022-11-13T14:13:07.0000000+00:00</time></trkpt><trkpt lat="38.97436992" lon="-0.4905969"><ele>132.0</ele><time>2022-11-13T14:13:08.0000000+00:00</time></trkpt><trkpt lat="38.97436749" lon="-0.49059128"><ele>132.0</ele><time>2022-11-13T14:13:09.0000000+00:00</time></trkpt><trkpt lat="38.97436707" lon="-0.49058743"><ele>132.0</ele><time>2022-11-13T14:13:10.0000000+00:00</time></trkpt><trkpt lat="38.97436741" lon="-0.49058835"><ele>132.0</ele><time>2022-11-13T14:13:11.0000000+00:00</time></trkpt><trkpt lat="38.97436867" lon="-0.49058751"><ele>132.0</ele><time>2022-11-13T14:13:12.0000000+00:00</time></trkpt><trkpt lat="38.97436992" lon="-0.49058609"><ele>132.0</ele><time>2022-11-13T14:13:13.0000000+00:00</time></trkpt><trkpt lat="38.97437328" lon="-0.49058265"><ele>132.0</ele><time>2022-11-13T14:13:14.0000000+00:00</time></trkpt><trkpt lat="38.97437437" lon="-0.49058072"><ele>132.0</ele><time>2022-11-13T14:13:15.0000000+00:00</time></trkpt><trkpt lat="38.97437386" lon="-0.49057846"><ele>132.0</ele><time>2022-11-13T14:13:16.0000000+00:00</time></trkpt><trkpt lat="38.97437428" lon="-0.4905772"><ele>132.0</ele><time>2022-11-13T14:13:17.0000000+00:00</time></trkpt><trkpt lat="38.97437202" lon="-0.49057779"><ele>132.0</ele><time>2022-11-13T14:13:18.0000000+00:00</time></trkpt><trkpt lat="38.97437068" lon="-0.4905788"><ele>132.0</ele><time>2022-11-13T14:13:19.0000000+00:00</time></trkpt><trkpt lat="38.97436959" lon="-0.49058072"><ele>132.0</ele><time>2022-11-13T14:13:20.0000000+00:00</time></trkpt><trkpt lat="38.97436808" lon="-0.49058223"><ele>132.0</ele><time>2022-11-13T14:13:21.0000000+00:00</time></trkpt><trkpt lat="38.9743664" lon="-0.49058399"><ele>132.0</ele><time>2022-11-13T14:13:22.0000000+00:00</time></trkpt><trkpt lat="38.9743628" lon="-0.49058123"><ele>132.0</ele><time>2022-11-13T14:13:23.0000000+00:00</time></trkpt><trkpt lat="38.97435593" lon="-0.49057628"><ele>132.2</ele><time>2022-11-13T14:13:24.0000000+00:00</time></trkpt><trkpt lat="38.97434997" lon="-0.49057343"><ele>132.2</ele><time>2022-11-13T14:13:25.0000000+00:00</time></trkpt><trkpt lat="38.97434176" lon="-0.49056832"><ele>132.2</ele><time>2022-11-13T14:13:26.0000000+00:00</time></trkpt><trkpt lat="38.97433346" lon="-0.49055776"><ele>132.2</ele><time>2022-11-13T14:13:27.0000000+00:00</time></trkpt><trkpt lat="38.97432223" lon="-0.49054585"><ele>132.4</ele><time>2022-11-13T14:13:28.0000000+00:00</time></trkpt><trkpt lat="38.97430345" lon="-0.4905368"><ele>132.6</ele><time>2022-11-13T14:13:29.0000000+00:00</time></trkpt><trkpt lat="38.97428158" lon="-0.49052708"><ele>132.8</ele><time>2022-11-13T14:13:30.0000000+00:00</time></trkpt><trkpt lat="38.97426372" lon="-0.49052222"><ele>133.0</ele><time>2022-11-13T14:13:31.0000000+00:00</time></trkpt><trkpt lat="38.97425283" lon="-0.49051518"><ele>133.2</ele><time>2022-11-13T14:13:32.0000000+00:00</time></trkpt><trkpt lat="38.97424369" lon="-0.49051384"><ele>133.2</ele><time>2022-11-13T14:13:33.0000000+00:00</time></trkpt><trkpt lat="38.97423598" lon="-0.49050889"><ele>133.6</ele><time>2022-11-13T14:13:34.0000000+00:00</time></trkpt><trkpt lat="38.97422626" lon="-0.49050017"><ele>133.8</ele><time>2022-11-13T14:13:35.0000000+00:00</time></trkpt><trkpt lat="38.97421486" lon="-0.49048794"><ele>133.8</ele><time>2022-11-13T14:13:36.0000000+00:00</time></trkpt><trkpt lat="38.97420798" lon="-0.4904705"><ele>134.0</ele><time>2022-11-13T14:13:37.0000000+00:00</time></trkpt><trkpt lat="38.97420212" lon="-0.49045885"><ele>134.2</ele><time>2022-11-13T14:13:38.0000000+00:00</time></trkpt><trkpt lat="38.97419441" lon="-0.49044586"><ele>134.2</ele><time>2022-11-13T14:13:39.0000000+00:00</time></trkpt><trkpt lat="38.97418502" lon="-0.49043278"><ele>134.4</ele><time>2022-11-13T14:13:40.0000000+00:00</time></trkpt><trkpt lat="38.97417395" lon="-0.49042247"><ele>134.4</ele><time>2022-11-13T14:13:41.0000000+00:00</time></trkpt><trkpt lat="38.97415987" lon="-0.49041015"><ele>134.4</ele><time>2022-11-13T14:13:42.0000000+00:00</time></trkpt><trkpt lat="38.9741473" lon="-0.4904021"><ele>134.4</ele><time>2022-11-13T14:13:43.0000000+00:00</time></trkpt><trkpt lat="38.97413565" lon="-0.49039431"><ele>134.4</ele><time>2022-11-13T14:13:44.0000000+00:00</time></trkpt><trkpt lat="38.97412542" lon="-0.4903871"><ele>134.4</ele><time>2022-11-13T14:13:45.0000000+00:00</time></trkpt><trkpt lat="38.97411369" lon="-0.49038123"><ele>134.4</ele><time>2022-11-13T14:13:46.0000000+00:00</time></trkpt><trkpt lat="38.97410355" lon="-0.49038065"><ele>134.4</ele><time>2022-11-13T14:13:47.0000000+00:00</time></trkpt><trkpt lat="38.9740919" lon="-0.49037897"><ele>134.2</ele><time>2022-11-13T14:13:48.0000000+00:00</time></trkpt><trkpt lat="38.97408024" lon="-0.49037629"><ele>134.2</ele><time>2022-11-13T14:13:49.0000000+00:00</time></trkpt><trkpt lat="38.97406943" lon="-0.49038014"><ele>134.2</ele><time>2022-11-13T14:13:50.0000000+00:00</time></trkpt><trkpt lat="38.97406331" lon="-0.49038165"><ele>134.2</ele><time>2022-11-13T14:13:51.0000000+00:00</time></trkpt><trkpt lat="38.97405225" lon="-0.49037771"><ele>134.2</ele><time>2022-11-13T14:13:52.0000000+00:00</time></trkpt><trkpt lat="38.97403976" lon="-0.49037285"><ele>134.2</ele><time>2022-11-13T14:13:53.0000000+00:00</time></trkpt><trkpt lat="38.97402786" lon="-0.49037696"><ele>134.2</ele><time>2022-11-13T14:13:54.0000000+00:00</time></trkpt><trkpt lat="38.9740157" lon="-0.49037361"><ele>134.2</ele><time>2022-11-13T14:13:55.0000000+00:00</time></trkpt><trkpt lat="38.97400313" lon="-0.49036665"><ele>134.2</ele><time>2022-11-13T14:13:56.0000000+00:00</time></trkpt><trkpt lat="38.97399232" lon="-0.49036472"><ele>134.2</ele><time>2022-11-13T14:13:57.0000000+00:00</time></trkpt><trkpt lat="38.97398058" lon="-0.4903633"><ele>134.2</ele><time>2022-11-13T14:13:58.0000000+00:00</time></trkpt><trkpt lat="38.97397061" lon="-0.49036522"><ele>134.0</ele><time>2022-11-13T14:13:59.0000000+00:00</time></trkpt><trkpt lat="38.97396156" lon="-0.49036766"><ele>134.0</ele><time>2022-11-13T14:14:00.0000000+00:00</time></trkpt><trkpt lat="38.97395418" lon="-0.49037361"><ele>134.0</ele><time>2022-11-13T14:14:01.0000000+00:00</time></trkpt><trkpt lat="38.97394739" lon="-0.49037813"><ele>134.0</ele><time>2022-11-13T14:14:02.0000000+00:00</time></trkpt><trkpt lat="38.97394052" lon="-0.49038283"><ele>134.0</ele><time>2022-11-13T14:14:03.0000000+00:00</time></trkpt><trkpt lat="38.97392769" lon="-0.4903835"><ele>134.0</ele><time>2022-11-13T14:14:04.0000000+00:00</time></trkpt><trkpt lat="38.9739142" lon="-0.49038065"><ele>134.0</ele><time>2022-11-13T14:14:05.0000000+00:00</time></trkpt><trkpt lat="38.97390255" lon="-0.49037905"><ele>134.0</ele><time>2022-11-13T14:14:06.0000000+00:00</time></trkpt><trkpt lat="38.97389224" lon="-0.49037989"><ele>134.0</ele><time>2022-11-13T14:14:07.0000000+00:00</time></trkpt><trkpt lat="38.9738795" lon="-0.49037579"><ele>133.8</ele><time>2022-11-13T14:14:08.0000000+00:00</time></trkpt><trkpt lat="38.97386818" lon="-0.49037461"><ele>133.8</ele><time>2022-11-13T14:14:09.0000000+00:00</time></trkpt><trkpt lat="38.97385871" lon="-0.49038274"><ele>133.8</ele><time>2022-11-13T14:14:10.0000000+00:00</time></trkpt><trkpt lat="38.97384446" lon="-0.49038417"><ele>133.8</ele><time>2022-11-13T14:14:11.0000000+00:00</time></trkpt><trkpt lat="38.97383021" lon="-0.49038526"><ele>133.8</ele><time>2022-11-13T14:14:12.0000000+00:00</time></trkpt><trkpt lat="38.97381814" lon="-0.49038576"><ele>133.8</ele><time>2022-11-13T14:14:13.0000000+00:00</time></trkpt><trkpt lat="38.9738028" lon="-0.49039079"><ele>133.8</ele><time>2022-11-13T14:14:14.0000000+00:00</time></trkpt><trkpt lat="38.97378227" lon="-0.49038928"><ele>133.8</ele><time>2022-11-13T14:14:15.0000000+00:00</time></trkpt><trkpt lat="38.97376651" lon="-0.49038593"><ele>133.8</ele><time>2022-11-13T14:14:16.0000000+00:00</time></trkpt><trkpt lat="38.97375419" lon="-0.49038325"><ele>133.8</ele><time>2022-11-13T14:14:17.0000000+00:00</time></trkpt><trkpt lat="38.97374363" lon="-0.49037973"><ele>133.8</ele><time>2022-11-13T14:14:18.0000000+00:00</time></trkpt><trkpt lat="38.97373055" lon="-0.49037897"><ele>133.8</ele><time>2022-11-13T14:14:19.0000000+00:00</time></trkpt><trkpt lat="38.97371974" lon="-0.49038115"><ele>133.8</ele><time>2022-11-13T14:14:20.0000000+00:00</time></trkpt><trkpt lat="38.97370717" lon="-0.49038786"><ele>133.8</ele><time>2022-11-13T14:14:21.0000000+00:00</time></trkpt><trkpt lat="38.97369887" lon="-0.49039565"><ele>133.6</ele><time>2022-11-13T14:14:22.0000000+00:00</time></trkpt><trkpt lat="38.97368822" lon="-0.49040169"><ele>133.6</ele><time>2022-11-13T14:14:23.0000000+00:00</time></trkpt><trkpt lat="38.97367615" lon="-0.49039515"><ele>133.6</ele><time>2022-11-13T14:14:24.0000000+00:00</time></trkpt><trkpt lat="38.97366366" lon="-0.49038467"><ele>133.6</ele><time>2022-11-13T14:14:25.0000000+00:00</time></trkpt><trkpt lat="38.97365076" lon="-0.49038216"><ele>133.4</ele><time>2022-11-13T14:14:26.0000000+00:00</time></trkpt><trkpt lat="38.9736381" lon="-0.49037746"><ele>133.4</ele><time>2022-11-13T14:14:27.0000000+00:00</time></trkpt><trkpt lat="38.97362234" lon="-0.49037604"><ele>133.4</ele><time>2022-11-13T14:14:28.0000000+00:00</time></trkpt><trkpt lat="38.97360868" lon="-0.49037285"><ele>133.4</ele><time>2022-11-13T14:14:29.0000000+00:00</time></trkpt><trkpt lat="38.97359887" lon="-0.49037143"><ele>133.4</ele><time>2022-11-13T14:14:30.0000000+00:00</time></trkpt><trkpt lat="38.97358529" lon="-0.49037042"><ele>133.4</ele><time>2022-11-13T14:14:31.0000000+00:00</time></trkpt><trkpt lat="38.97357322" lon="-0.49036807"><ele>133.4</ele><time>2022-11-13T14:14:32.0000000+00:00</time></trkpt><trkpt lat="38.97355923" lon="-0.49036497"><ele>133.4</ele><time>2022-11-13T14:14:33.0000000+00:00</time></trkpt><trkpt lat="38.97354523" lon="-0.49035818"><ele>133.4</ele><time>2022-11-13T14:14:34.0000000+00:00</time></trkpt><trkpt lat="38.97353232" lon="-0.49035349"><ele>133.4</ele><time>2022-11-13T14:14:35.0000000+00:00</time></trkpt><trkpt lat="38.97351782" lon="-0.49034871"><ele>133.4</ele><time>2022-11-13T14:14:36.0000000+00:00</time></trkpt><trkpt lat="38.97350374" lon="-0.4903431"><ele>133.4</ele><time>2022-11-13T14:14:37.0000000+00:00</time></trkpt><trkpt lat="38.97349041" lon="-0.49033899"><ele>133.4</ele><time>2022-11-13T14:14:38.0000000+00:00</time></trkpt><trkpt lat="38.97347851" lon="-0.49033639"><ele>133.4</ele><time>2022-11-13T14:14:39.0000000+00:00</time></trkpt><trkpt lat="38.9734677" lon="-0.49033555"><ele>133.4</ele><time>2022-11-13T14:14:40.0000000+00:00</time></trkpt><trkpt lat="38.97345638" lon="-0.4903358"><ele>133.4</ele><time>2022-11-13T14:14:41.0000000+00:00</time></trkpt><trkpt lat="38.97344397" lon="-0.49033555"><ele>133.4</ele><time>2022-11-13T14:14:42.0000000+00:00</time></trkpt><trkpt lat="38.9734304" lon="-0.49033186"><ele>133.4</ele><time>2022-11-13T14:14:43.0000000+00:00</time></trkpt><trkpt lat="38.97341824" lon="-0.49032927"><ele>133.4</ele><time>2022-11-13T14:14:44.0000000+00:00</time></trkpt><trkpt lat="38.97340667" lon="-0.49032994"><ele>133.4</ele><time>2022-11-13T14:14:45.0000000+00:00</time></trkpt><trkpt lat="38.97339494" lon="-0.49033077"><ele>133.2</ele><time>2022-11-13T14:14:46.0000000+00:00</time></trkpt><trkpt lat="38.97338354" lon="-0.49033077"><ele>133.2</ele><time>2022-11-13T14:14:47.0000000+00:00</time></trkpt><trkpt lat="38.97337206" lon="-0.49032834"><ele>133.2</ele><time>2022-11-13T14:14:48.0000000+00:00</time></trkpt><trkpt lat="38.97336057" lon="-0.49032625"><ele>133.2</ele><time>2022-11-13T14:14:49.0000000+00:00</time></trkpt><trkpt lat="38.97334741" lon="-0.49032508"><ele>133.2</ele><time>2022-11-13T14:14:50.0000000+00:00</time></trkpt><trkpt lat="38.97333484" lon="-0.49032231"><ele>133.2</ele><time>2022-11-13T14:14:51.0000000+00:00</time></trkpt><trkpt lat="38.97332294" lon="-0.49032164"><ele>133.2</ele><time>2022-11-13T14:14:52.0000000+00:00</time></trkpt><trkpt lat="38.97331288" lon="-0.49031996"><ele>133.4</ele><time>2022-11-13T14:14:53.0000000+00:00</time></trkpt><trkpt lat="38.97330408" lon="-0.49031175"><ele>133.4</ele><time>2022-11-13T14:14:54.0000000+00:00</time></trkpt><trkpt lat="38.97329184" lon="-0.49030521"><ele>133.4</ele><time>2022-11-13T14:14:55.0000000+00:00</time></trkpt><trkpt lat="38.97327852" lon="-0.49030077"><ele>133.4</ele><time>2022-11-13T14:14:56.0000000+00:00</time></trkpt><trkpt lat="38.97326628" lon="-0.49029968"><ele>133.4</ele><time>2022-11-13T14:14:57.0000000+00:00</time></trkpt><trkpt lat="38.97325345" lon="-0.49029616"><ele>133.4</ele><time>2022-11-13T14:14:58.0000000+00:00</time></trkpt><trkpt lat="38.97323267" lon="-0.49028551"><ele>133.4</ele><time>2022-11-13T14:14:59.0000000+00:00</time></trkpt><trkpt lat="38.97321213" lon="-0.49027445"><ele>133.4</ele><time>2022-11-13T14:15:00.0000000+00:00</time></trkpt><trkpt lat="38.97319704" lon="-0.49026255"><ele>133.4</ele><time>2022-11-13T14:15:01.0000000+00:00</time></trkpt><trkpt lat="38.97318422" lon="-0.49025014"><ele>133.4</ele><time>2022-11-13T14:15:02.0000000+00:00</time></trkpt><trkpt lat="38.97317223" lon="-0.4902374"><ele>133.4</ele><time>2022-11-13T14:15:03.0000000+00:00</time></trkpt><trkpt lat="38.97316134" lon="-0.4902265"><ele>133.4</ele><time>2022-11-13T14:15:04.0000000+00:00</time></trkpt><trkpt lat="38.97315136" lon="-0.49022248"><ele>133.4</ele><time>2022-11-13T14:15:05.0000000+00:00</time></trkpt><trkpt lat="38.97314457" lon="-0.4902208"><ele>133.4</ele><time>2022-11-13T14:15:06.0000000+00:00</time></trkpt><trkpt lat="38.97313602" lon="-0.49021921"><ele>133.4</ele><time>2022-11-13T14:15:07.0000000+00:00</time></trkpt><trkpt lat="38.97312764" lon="-0.49020974"><ele>133.4</ele><time>2022-11-13T14:15:08.0000000+00:00</time></trkpt><trkpt lat="38.97311842" lon="-0.4902022"><ele>133.4</ele><time>2022-11-13T14:15:09.0000000+00:00</time></trkpt><trkpt lat="38.97310602" lon="-0.49018652"><ele>133.4</ele><time>2022-11-13T14:15:10.0000000+00:00</time></trkpt><trkpt lat="38.97309638" lon="-0.49017487"><ele>133.2</ele><time>2022-11-13T14:15:11.0000000+00:00</time></trkpt><trkpt lat="38.97308389" lon="-0.49015735"><ele>133.2</ele><time>2022-11-13T14:15:12.0000000+00:00</time></trkpt><trkpt lat="38.97307148" lon="-0.49014176"><ele>133.2</ele><time>2022-11-13T14:15:13.0000000+00:00</time></trkpt><trkpt lat="38.97306008" lon="-0.49012416"><ele>133.4</ele><time>2022-11-13T14:15:14.0000000+00:00</time></trkpt><trkpt lat="38.97304952" lon="-0.49010639"><ele>133.4</ele><time>2022-11-13T14:15:15.0000000+00:00</time></trkpt><trkpt lat="38.97304223" lon="-0.4900882"><ele>133.4</ele><time>2022-11-13T14:15:16.0000000+00:00</time></trkpt><trkpt lat="38.97303318" lon="-0.49007521"><ele>133.4</ele><time>2022-11-13T14:15:17.0000000+00:00</time></trkpt><trkpt lat="38.97302572" lon="-0.49006557"><ele>133.4</ele><time>2022-11-13T14:15:18.0000000+00:00</time></trkpt><trkpt lat="38.97301918" lon="-0.49005266"><ele>133.6</ele><time>2022-11-13T14:15:19.0000000+00:00</time></trkpt><trkpt lat="38.97301122" lon="-0.49003942"><ele>133.4</ele><time>2022-11-13T14:15:20.0000000+00:00</time></trkpt><trkpt lat="38.97300242" lon="-0.4900245"><ele>133.4</ele><time>2022-11-13T14:15:21.0000000+00:00</time></trkpt><trkpt lat="38.97299353" lon="-0.49000883"><ele>133.4</ele><time>2022-11-13T14:15:22.0000000+00:00</time></trkpt><trkpt lat="38.97298607" lon="-0.48999508"><ele>133.4</ele><time>2022-11-13T14:15:23.0000000+00:00</time></trkpt><trkpt lat="38.97297911" lon="-0.48998242"><ele>133.6</ele><time>2022-11-13T14:15:24.0000000+00:00</time></trkpt><trkpt lat="38.97297182" lon="-0.48997446"><ele>133.6</ele><time>2022-11-13T14:15:25.0000000+00:00</time></trkpt><trkpt lat="38.97296227" lon="-0.48996809"><ele>133.6</ele><time>2022-11-13T14:15:26.0000000+00:00</time></trkpt><trkpt lat="38.97295363" lon="-0.48995778"><ele>133.6</ele><time>2022-11-13T14:15:27.0000000+00:00</time></trkpt><trkpt lat="38.97294584" lon="-0.48994328"><ele>133.6</ele><time>2022-11-13T14:15:28.0000000+00:00</time></trkpt><trkpt lat="38.97293796" lon="-0.48992978"><ele>133.6</ele><time>2022-11-13T14:15:29.0000000+00:00</time></trkpt><trkpt lat="38.9729331" lon="-0.48991839"><ele>133.6</ele><time>2022-11-13T14:15:30.0000000+00:00</time></trkpt><trkpt lat="38.97292681" lon="-0.48990615"><ele>133.6</ele><time>2022-11-13T14:15:31.0000000+00:00</time></trkpt><trkpt lat="38.97292304" lon="-0.48989785"><ele>133.6</ele><time>2022-11-13T14:15:32.0000000+00:00</time></trkpt><trkpt lat="38.97291885" lon="-0.48988838"><ele>133.8</ele><time>2022-11-13T14:15:33.0000000+00:00</time></trkpt><trkpt lat="38.97291223" lon="-0.48987807"><ele>134.0</ele><time>2022-11-13T14:15:34.0000000+00:00</time></trkpt><trkpt lat="38.97290435" lon="-0.48986876"><ele>134.0</ele><time>2022-11-13T14:15:35.0000000+00:00</time></trkpt><trkpt lat="38.97289605" lon="-0.48985602"><ele>134.0</ele><time>2022-11-13T14:15:36.0000000+00:00</time></trkpt><trkpt lat="38.97289077" lon="-0.48985234"><ele>134.2</ele><time>2022-11-13T14:15:37.0000000+00:00</time></trkpt><trkpt lat="38.97288884" lon="-0.48984747"><ele>134.2</ele><time>2022-11-13T14:15:38.0000000+00:00</time></trkpt><trkpt lat="38.97288322" lon="-0.48983876"><ele>134.2</ele><time>2022-11-13T14:15:39.0000000+00:00</time></trkpt><trkpt lat="38.97287501" lon="-0.48982082"><ele>134.2</ele><time>2022-11-13T14:15:40.0000000+00:00</time></trkpt><trkpt lat="38.97286604" lon="-0.48980615"><ele>134.2</ele><time>2022-11-13T14:15:41.0000000+00:00</time></trkpt><trkpt lat="38.97286068" lon="-0.48979199"><ele>134.2</ele><time>2022-11-13T14:15:42.0000000+00:00</time></trkpt><trkpt lat="38.97285615" lon="-0.48977715"><ele>134.2</ele><time>2022-11-13T14:15:43.0000000+00:00</time></trkpt><trkpt lat="38.97285154" lon="-0.48976273"><ele>134.2</ele><time>2022-11-13T14:15:44.0000000+00:00</time></trkpt><trkpt lat="38.97284634" lon="-0.48974672"><ele>134.2</ele><time>2022-11-13T14:15:45.0000000+00:00</time></trkpt><trkpt lat="38.97284224" lon="-0.4897303"><ele>134.2</ele><time>2022-11-13T14:15:46.0000000+00:00</time></trkpt><trkpt lat="38.97283897" lon="-0.48971688"><ele>134.2</ele><time>2022-11-13T14:15:47.0000000+00:00</time></trkpt><trkpt lat="38.97283335" lon="-0.48970808"><ele>134.2</ele><time>2022-11-13T14:15:48.0000000+00:00</time></trkpt><trkpt lat="38.9728243" lon="-0.48970087"><ele>134.2</ele><time>2022-11-13T14:15:49.0000000+00:00</time></trkpt><trkpt lat="38.97281366" lon="-0.48969719"><ele>134.2</ele><time>2022-11-13T14:15:50.0000000+00:00</time></trkpt><trkpt lat="38.97280444" lon="-0.48969375"><ele>134.2</ele><time>2022-11-13T14:15:51.0000000+00:00</time></trkpt><trkpt lat="38.97279371" lon="-0.48968663"><ele>134.2</ele><time>2022-11-13T14:15:52.0000000+00:00</time></trkpt><trkpt lat="38.97278264" lon="-0.48968134"><ele>134.2</ele><time>2022-11-13T14:15:53.0000000+00:00</time></trkpt><trkpt lat="38.9727782" lon="-0.48968176"><ele>134.2</ele><time>2022-11-13T14:15:54.0000000+00:00</time></trkpt><trkpt lat="38.97277485" lon="-0.48968352"><ele>134.2</ele><time>2022-11-13T14:15:55.0000000+00:00</time></trkpt><trkpt lat="38.9727689" lon="-0.48968193"><ele>134.2</ele><time>2022-11-13T14:15:56.0000000+00:00</time></trkpt><trkpt lat="38.97275859" lon="-0.48968227"><ele>134.4</ele><time>2022-11-13T14:15:57.0000000+00:00</time></trkpt><trkpt lat="38.97274945" lon="-0.48968386"><ele>134.2</ele><time>2022-11-13T14:15:58.0000000+00:00</time></trkpt><trkpt lat="38.97274023" lon="-0.4896821"><ele>134.4</ele><time>2022-11-13T14:15:59.0000000+00:00</time></trkpt><trkpt lat="38.97273009" lon="-0.48968118"><ele>134.4</ele><time>2022-11-13T14:16:00.0000000+00:00</time></trkpt><trkpt lat="38.9727186" lon="-0.48967942"><ele>134.2</ele><time>2022-11-13T14:16:01.0000000+00:00</time></trkpt><trkpt lat="38.9727093" lon="-0.4896769"><ele>134.4</ele><time>2022-11-13T14:16:02.0000000+00:00</time></trkpt><trkpt lat="38.9727" lon="-0.48967732"><ele>134.4</ele><time>2022-11-13T14:16:03.0000000+00:00</time></trkpt><trkpt lat="38.97268809" lon="-0.48967816"><ele>134.4</ele><time>2022-11-13T14:16:04.0000000+00:00</time></trkpt><trkpt lat="38.97267602" lon="-0.48967925"><ele>134.4</ele><time>2022-11-13T14:16:05.0000000+00:00</time></trkpt><trkpt lat="38.97266253" lon="-0.48967841"><ele>134.2</ele><time>2022-11-13T14:16:06.0000000+00:00</time></trkpt><trkpt lat="38.97264962" lon="-0.48967514"><ele>134.2</ele><time>2022-11-13T14:16:07.0000000+00:00</time></trkpt><trkpt lat="38.97263738" lon="-0.48966936"><ele>134.4</ele><time>2022-11-13T14:16:08.0000000+00:00</time></trkpt><trkpt lat="38.97262448" lon="-0.48966441"><ele>134.4</ele><time>2022-11-13T14:16:09.0000000+00:00</time></trkpt><trkpt lat="38.97261291" lon="-0.4896624"><ele>134.4</ele><time>2022-11-13T14:16:10.0000000+00:00</time></trkpt><trkpt lat="38.97260008" lon="-0.48966073"><ele>134.4</ele><time>2022-11-13T14:16:11.0000000+00:00</time></trkpt><trkpt lat="38.97258952" lon="-0.48966114"><ele>134.4</ele><time>2022-11-13T14:16:12.0000000+00:00</time></trkpt><trkpt lat="38.97258072" lon="-0.4896614"><ele>134.4</ele><time>2022-11-13T14:16:13.0000000+00:00</time></trkpt><trkpt lat="38.97256647" lon="-0.48965838"><ele>134.6</ele><time>2022-11-13T14:16:14.0000000+00:00</time></trkpt><trkpt lat="38.97255071" lon="-0.48965419"><ele>134.6</ele><time>2022-11-13T14:16:15.0000000+00:00</time></trkpt><trkpt lat="38.9725373" lon="-0.48965419"><ele>134.6</ele><time>2022-11-13T14:16:16.0000000+00:00</time></trkpt><trkpt lat="38.97252255" lon="-0.4896557"><ele>134.6</ele><time>2022-11-13T14:16:17.0000000+00:00</time></trkpt><trkpt lat="38.97250671" lon="-0.48965762"><ele>134.6</ele><time>2022-11-13T14:16:18.0000000+00:00</time></trkpt><trkpt lat="38.97249313" lon="-0.48966005"><ele>134.6</ele><time>2022-11-13T14:16:19.0000000+00:00</time></trkpt><trkpt lat="38.97248324" lon="-0.48966592"><ele>134.6</ele><time>2022-11-13T14:16:20.0000000+00:00</time></trkpt><trkpt lat="38.97247234" lon="-0.48967305"><ele>134.6</ele><time>2022-11-13T14:16:21.0000000+00:00</time></trkpt><trkpt lat="38.97245918" lon="-0.48968"><ele>134.6</ele><time>2022-11-13T14:16:22.0000000+00:00</time></trkpt><trkpt lat="38.97244644" lon="-0.48968847"><ele>134.6</ele><time>2022-11-13T14:16:23.0000000+00:00</time></trkpt><trkpt lat="38.97243412" lon="-0.48969786"><ele>134.6</ele><time>2022-11-13T14:16:24.0000000+00:00</time></trkpt><trkpt lat="38.9724213" lon="-0.48970691"><ele>134.6</ele><time>2022-11-13T14:16:25.0000000+00:00</time></trkpt><trkpt lat="38.97241057" lon="-0.4897199"><ele>134.6</ele><time>2022-11-13T14:16:26.0000000+00:00</time></trkpt><trkpt lat="38.97240168" lon="-0.48973398"><ele>134.6</ele><time>2022-11-13T14:16:27.0000000+00:00</time></trkpt><trkpt lat="38.97239205" lon="-0.48974857"><ele>134.6</ele><time>2022-11-13T14:16:28.0000000+00:00</time></trkpt><trkpt lat="38.97238165" lon="-0.48975879"><ele>134.6</ele><time>2022-11-13T14:16:29.0000000+00:00</time></trkpt><trkpt lat="38.97237168" lon="-0.48976961"><ele>134.6</ele><time>2022-11-13T14:16:30.0000000+00:00</time></trkpt><trkpt lat="38.97236346" lon="-0.48978142"><ele>134.6</ele><time>2022-11-13T14:16:31.0000000+00:00</time></trkpt><trkpt lat="38.97235567" lon="-0.4897945"><ele>134.8</ele><time>2022-11-13T14:16:32.0000000+00:00</time></trkpt><trkpt lat="38.97234636" lon="-0.48980716"><ele>134.8</ele><time>2022-11-13T14:16:33.0000000+00:00</time></trkpt><trkpt lat="38.9723379" lon="-0.48982325"><ele>134.8</ele><time>2022-11-13T14:16:34.0000000+00:00</time></trkpt><trkpt lat="38.97232642" lon="-0.48983825"><ele>134.8</ele><time>2022-11-13T14:16:35.0000000+00:00</time></trkpt><trkpt lat="38.97231988" lon="-0.48984848"><ele>134.8</ele><time>2022-11-13T14:16:36.0000000+00:00</time></trkpt><trkpt lat="38.97231024" lon="-0.48985887"><ele>134.8</ele><time>2022-11-13T14:16:37.0000000+00:00</time></trkpt><trkpt lat="38.9723011" lon="-0.48987413"><ele>134.8</ele><time>2022-11-13T14:16:38.0000000+00:00</time></trkpt><trkpt lat="38.97229607" lon="-0.48988519"><ele>134.8</ele><time>2022-11-13T14:16:39.0000000+00:00</time></trkpt><trkpt lat="38.9722897" lon="-0.48990179"><ele>134.8</ele><time>2022-11-13T14:16:40.0000000+00:00</time></trkpt><trkpt lat="38.972284" lon="-0.48991411"><ele>134.8</ele><time>2022-11-13T14:16:41.0000000+00:00</time></trkpt><trkpt lat="38.97227461" lon="-0.489924"><ele>134.8</ele><time>2022-11-13T14:16:42.0000000+00:00</time></trkpt><trkpt lat="38.97226741" lon="-0.48993766"><ele>134.8</ele><time>2022-11-13T14:16:43.0000000+00:00</time></trkpt><trkpt lat="38.97225777" lon="-0.489952"><ele>134.8</ele><time>2022-11-13T14:16:44.0000000+00:00</time></trkpt><trkpt lat="38.97224595" lon="-0.48996524"><ele>134.8</ele><time>2022-11-13T14:16:45.0000000+00:00</time></trkpt><trkpt lat="38.97223388" lon="-0.48997706"><ele>135.0</ele><time>2022-11-13T14:16:46.0000000+00:00</time></trkpt><trkpt lat="38.97222483" lon="-0.48998921"><ele>135.0</ele><time>2022-11-13T14:16:47.0000000+00:00</time></trkpt><trkpt lat="38.97221762" lon="-0.48999743"><ele>135.0</ele><time>2022-11-13T14:16:48.0000000+00:00</time></trkpt><trkpt lat="38.97220588" lon="-0.49000463"><ele>134.8</ele><time>2022-11-13T14:16:49.0000000+00:00</time></trkpt><trkpt lat="38.97219457" lon="-0.49001461"><ele>134.8</ele><time>2022-11-13T14:16:50.0000000+00:00</time></trkpt><trkpt lat="38.97217931" lon="-0.49003171"><ele>134.8</ele><time>2022-11-13T14:16:51.0000000+00:00</time></trkpt><trkpt lat="38.97216783" lon="-0.49004437"><ele>134.8</ele><time>2022-11-13T14:16:52.0000000+00:00</time></trkpt><trkpt lat="38.97215056" lon="-0.4900649"><ele>134.8</ele><time>2022-11-13T14:16:53.0000000+00:00</time></trkpt><trkpt lat="38.9721405" lon="-0.49008778"><ele>134.8</ele><time>2022-11-13T14:16:54.0000000+00:00</time></trkpt><trkpt lat="38.9721307" lon="-0.49010295"><ele>134.8</ele><time>2022-11-13T14:16:55.0000000+00:00</time></trkpt><trkpt lat="38.97212081" lon="-0.4901115"><ele>135.0</ele><time>2022-11-13T14:16:56.0000000+00:00</time></trkpt><trkpt lat="38.9721141" lon="-0.49011796"><ele>135.0</ele><time>2022-11-13T14:16:57.0000000+00:00</time></trkpt><trkpt lat="38.97210161" lon="-0.49012441"><ele>135.0</ele><time>2022-11-13T14:16:58.0000000+00:00</time></trkpt><trkpt lat="38.97209323" lon="-0.49012978"><ele>135.2</ele><time>2022-11-13T14:16:59.0000000+00:00</time></trkpt><trkpt lat="38.97208359" lon="-0.49013531"><ele>135.2</ele><time>2022-11-13T14:17:00.0000000+00:00</time></trkpt><trkpt lat="38.97207596" lon="-0.49014227"><ele>135.2</ele><time>2022-11-13T14:17:01.0000000+00:00</time></trkpt><trkpt lat="38.972067" lon="-0.49015308"><ele>135.2</ele><time>2022-11-13T14:17:02.0000000+00:00</time></trkpt><trkpt lat="38.97205719" lon="-0.49016045"><ele>135.4</ele><time>2022-11-13T14:17:03.0000000+00:00</time></trkpt><trkpt lat="38.97204554" lon="-0.49017311"><ele>135.4</ele><time>2022-11-13T14:17:04.0000000+00:00</time></trkpt><trkpt lat="38.97203757" lon="-0.49018644"><ele>135.4</ele><time>2022-11-13T14:17:05.0000000+00:00</time></trkpt><trkpt lat="38.97202978" lon="-0.49019625"><ele>135.4</ele><time>2022-11-13T14:17:06.0000000+00:00</time></trkpt><trkpt lat="38.97202249" lon="-0.49020924"><ele>135.6</ele><time>2022-11-13T14:17:07.0000000+00:00</time></trkpt><trkpt lat="38.97201972" lon="-0.4902146"><ele>135.6</ele><time>2022-11-13T14:17:08.0000000+00:00</time></trkpt><trkpt lat="38.97201872" lon="-0.4902151"><ele>135.6</ele><time>2022-11-13T14:17:09.0000000+00:00</time></trkpt><trkpt lat="38.97201796" lon="-0.49021636"><ele>135.6</ele><time>2022-11-13T14:17:10.0000000+00:00</time></trkpt><trkpt lat="38.97201721" lon="-0.4902172"><ele>135.6</ele><time>2022-11-13T14:17:11.0000000+00:00</time></trkpt><trkpt lat="38.97201704" lon="-0.49021904"><ele>135.6</ele><time>2022-11-13T14:17:12.0000000+00:00</time></trkpt><trkpt lat="38.97201612" lon="-0.49022332"><ele>135.8</ele><time>2022-11-13T14:17:13.0000000+00:00</time></trkpt><trkpt lat="38.97201075" lon="-0.49023036"><ele>135.8</ele><time>2022-11-13T14:17:14.0000000+00:00</time></trkpt><trkpt lat="38.97200505" lon="-0.49024042"><ele>135.8</ele><time>2022-11-13T14:17:15.0000000+00:00</time></trkpt><trkpt lat="38.97199499" lon="-0.49024637"><ele>135.8</ele><time>2022-11-13T14:17:16.0000000+00:00</time></trkpt><trkpt lat="38.971982" lon="-0.49025106"><ele>135.8</ele><time>2022-11-13T14:17:17.0000000+00:00</time></trkpt><trkpt lat="38.97197236" lon="-0.49025551"><ele>135.8</ele><time>2022-11-13T14:17:18.0000000+00:00</time></trkpt><trkpt lat="38.97196231" lon="-0.49025844"><ele>135.8</ele><time>2022-11-13T14:17:19.0000000+00:00</time></trkpt><trkpt lat="38.97195568" lon="-0.49026514"><ele>135.8</ele><time>2022-11-13T14:17:20.0000000+00:00</time></trkpt><trkpt lat="38.97194579" lon="-0.49027462"><ele>136.0</ele><time>2022-11-13T14:17:21.0000000+00:00</time></trkpt><trkpt lat="38.97193456" lon="-0.49028333"><ele>136.0</ele><time>2022-11-13T14:17:22.0000000+00:00</time></trkpt><trkpt lat="38.97192878" lon="-0.49029205"><ele>136.0</ele><time>2022-11-13T14:17:23.0000000+00:00</time></trkpt><trkpt lat="38.97192056" lon="-0.49029993"><ele>136.0</ele><time>2022-11-13T14:17:24.0000000+00:00</time></trkpt><trkpt lat="38.97190983" lon="-0.49031024"><ele>136.0</ele><time>2022-11-13T14:17:25.0000000+00:00</time></trkpt><trkpt lat="38.97189709" lon="-0.49032055"><ele>136.0</ele><time>2022-11-13T14:17:26.0000000+00:00</time></trkpt><trkpt lat="38.97188251" lon="-0.49032901"><ele>136.2</ele><time>2022-11-13T14:17:27.0000000+00:00</time></trkpt><trkpt lat="38.97187413" lon="-0.49033304"><ele>136.2</ele><time>2022-11-13T14:17:28.0000000+00:00</time></trkpt><trkpt lat="38.97186239" lon="-0.49034209"><ele>136.2</ele><time>2022-11-13T14:17:29.0000000+00:00</time></trkpt><trkpt lat="38.97184915" lon="-0.49034787"><ele>136.2</ele><time>2022-11-13T14:17:30.0000000+00:00</time></trkpt><trkpt lat="38.97183557" lon="-0.49035307"><ele>136.2</ele><time>2022-11-13T14:17:31.0000000+00:00</time></trkpt><trkpt lat="38.97182643" lon="-0.49036103"><ele>136.2</ele><time>2022-11-13T14:17:32.0000000+00:00</time></trkpt><trkpt lat="38.97182241" lon="-0.49037495"><ele>136.2</ele><time>2022-11-13T14:17:33.0000000+00:00</time></trkpt><trkpt lat="38.97181311" lon="-0.49038023"><ele>136.2</ele><time>2022-11-13T14:17:34.0000000+00:00</time></trkpt><trkpt lat="38.97180221" lon="-0.49039288"><ele>136.2</ele><time>2022-11-13T14:17:35.0000000+00:00</time></trkpt><trkpt lat="38.97179375" lon="-0.49040789"><ele>136.0</ele><time>2022-11-13T14:17:36.0000000+00:00</time></trkpt><trkpt lat="38.97178494" lon="-0.49041937"><ele>136.0</ele><time>2022-11-13T14:17:37.0000000+00:00</time></trkpt><trkpt lat="38.97177547" lon="-0.49042834"><ele>136.2</ele><time>2022-11-13T14:17:38.0000000+00:00</time></trkpt><trkpt lat="38.97176592" lon="-0.49043605"><ele>136.2</ele><time>2022-11-13T14:17:39.0000000+00:00</time></trkpt><trkpt lat="38.97175158" lon="-0.49044502"><ele>136.4</ele><time>2022-11-13T14:17:40.0000000+00:00</time></trkpt><trkpt lat="38.97173868" lon="-0.4904539"><ele>136.4</ele><time>2022-11-13T14:17:41.0000000+00:00</time></trkpt><trkpt lat="38.97173046" lon="-0.49046639"><ele>136.4</ele><time>2022-11-13T14:17:42.0000000+00:00</time></trkpt><trkpt lat="38.97172392" lon="-0.49047654"><ele>136.2</ele><time>2022-11-13T14:17:43.0000000+00:00</time></trkpt><trkpt lat="38.97171403" lon="-0.49048693"><ele>136.2</ele><time>2022-11-13T14:17:44.0000000+00:00</time></trkpt><trkpt lat="38.97170557" lon="-0.49049858"><ele>136.2</ele><time>2022-11-13T14:17:45.0000000+00:00</time></trkpt><trkpt lat="38.97169392" lon="-0.49050638"><ele>136.2</ele><time>2022-11-13T14:17:46.0000000+00:00</time></trkpt><trkpt lat="38.97168604" lon="-0.49052314"><ele>136.2</ele><time>2022-11-13T14:17:47.0000000+00:00</time></trkpt><trkpt lat="38.97167422" lon="-0.49053462"><ele>136.2</ele><time>2022-11-13T14:17:48.0000000+00:00</time></trkpt><trkpt lat="38.9716645" lon="-0.49054334"><ele>136.2</ele><time>2022-11-13T14:17:49.0000000+00:00</time></trkpt><trkpt lat="38.97165184" lon="-0.49055046"><ele>136.2</ele><time>2022-11-13T14:17:50.0000000+00:00</time></trkpt><trkpt lat="38.97164094" lon="-0.49055591"><ele>136.2</ele><time>2022-11-13T14:17:51.0000000+00:00</time></trkpt><trkpt lat="38.97162963" lon="-0.49056279"><ele>136.2</ele><time>2022-11-13T14:17:52.0000000+00:00</time></trkpt><trkpt lat="38.97161831" lon="-0.4905705"><ele>136.2</ele><time>2022-11-13T14:17:53.0000000+00:00</time></trkpt><trkpt lat="38.97160959" lon="-0.49057888"><ele>136.2</ele><time>2022-11-13T14:17:54.0000000+00:00</time></trkpt><trkpt lat="38.97160012" lon="-0.49058802"><ele>136.2</ele><time>2022-11-13T14:17:55.0000000+00:00</time></trkpt><trkpt lat="38.97159409" lon="-0.49060059"><ele>136.2</ele><time>2022-11-13T14:17:56.0000000+00:00</time></trkpt><trkpt lat="38.97158688" lon="-0.49061266"><ele>136.2</ele><time>2022-11-13T14:17:57.0000000+00:00</time></trkpt><trkpt lat="38.9715795" lon="-0.49062163"><ele>136.2</ele><time>2022-11-13T14:17:58.0000000+00:00</time></trkpt><trkpt lat="38.97156894" lon="-0.4906316"><ele>136.2</ele><time>2022-11-13T14:17:59.0000000+00:00</time></trkpt><trkpt lat="38.97155914" lon="-0.49064174"><ele>136.2</ele><time>2022-11-13T14:18:00.0000000+00:00</time></trkpt><trkpt lat="38.97154899" lon="-0.49065063"><ele>136.2</ele><time>2022-11-13T14:18:01.0000000+00:00</time></trkpt><trkpt lat="38.97154019" lon="-0.49066002"><ele>136.2</ele><time>2022-11-13T14:18:02.0000000+00:00</time></trkpt><trkpt lat="38.9715334" lon="-0.49067343"><ele>136.2</ele><time>2022-11-13T14:18:03.0000000+00:00</time></trkpt><trkpt lat="38.97152226" lon="-0.49068231"><ele>136.2</ele><time>2022-11-13T14:18:04.0000000+00:00</time></trkpt><trkpt lat="38.97150977" lon="-0.49068583"><ele>136.2</ele><time>2022-11-13T14:18:05.0000000+00:00</time></trkpt><trkpt lat="38.97149979" lon="-0.49068969"><ele>136.2</ele><time>2022-11-13T14:18:06.0000000+00:00</time></trkpt><trkpt lat="38.97149015" lon="-0.49069497"><ele>136.2</ele><time>2022-11-13T14:18:07.0000000+00:00</time></trkpt><trkpt lat="38.97147825" lon="-0.49070452"><ele>136.2</ele><time>2022-11-13T14:18:08.0000000+00:00</time></trkpt><trkpt lat="38.97146652" lon="-0.4907119"><ele>136.0</ele><time>2022-11-13T14:18:09.0000000+00:00</time></trkpt><trkpt lat="38.97145403" lon="-0.4907155"><ele>136.0</ele><time>2022-11-13T14:18:10.0000000+00:00</time></trkpt><trkpt lat="38.9714407" lon="-0.49071919"><ele>136.0</ele><time>2022-11-13T14:18:11.0000000+00:00</time></trkpt><trkpt lat="38.97142754" lon="-0.49072539"><ele>136.0</ele><time>2022-11-13T14:18:12.0000000+00:00</time></trkpt><trkpt lat="38.97141547" lon="-0.49073084"><ele>136.0</ele><time>2022-11-13T14:18:13.0000000+00:00</time></trkpt><trkpt lat="38.97140374" lon="-0.4907378"><ele>136.0</ele><time>2022-11-13T14:18:14.0000000+00:00</time></trkpt><trkpt lat="38.97139158" lon="-0.49074526"><ele>136.0</ele><time>2022-11-13T14:18:15.0000000+00:00</time></trkpt><trkpt lat="38.97138069" lon="-0.49075314"><ele>136.0</ele><time>2022-11-13T14:18:16.0000000+00:00</time></trkpt><trkpt lat="38.97136702" lon="-0.49076035"><ele>136.0</ele><time>2022-11-13T14:18:17.0000000+00:00</time></trkpt><trkpt lat="38.97135554" lon="-0.49076462"><ele>136.0</ele><time>2022-11-13T14:18:18.0000000+00:00</time></trkpt><trkpt lat="38.97134556" lon="-0.49077225"><ele>136.0</ele><time>2022-11-13T14:18:19.0000000+00:00</time></trkpt><trkpt lat="38.97133324" lon="-0.49077669"><ele>136.0</ele><time>2022-11-13T14:18:20.0000000+00:00</time></trkpt><trkpt lat="38.97131883" lon="-0.49078424"><ele>136.0</ele><time>2022-11-13T14:18:21.0000000+00:00</time></trkpt><trkpt lat="38.97130525" lon="-0.49078977"><ele>136.0</ele><time>2022-11-13T14:18:22.0000000+00:00</time></trkpt><trkpt lat="38.97129544" lon="-0.49079354"><ele>136.0</ele><time>2022-11-13T14:18:23.0000000+00:00</time></trkpt><trkpt lat="38.97128723" lon="-0.49079748"><ele>136.0</ele><time>2022-11-13T14:18:24.0000000+00:00</time></trkpt><trkpt lat="38.97127558" lon="-0.49079924"><ele>136.0</ele><time>2022-11-13T14:18:25.0000000+00:00</time></trkpt><trkpt lat="38.97126418" lon="-0.49080326"><ele>136.0</ele><time>2022-11-13T14:18:26.0000000+00:00</time></trkpt><trkpt lat="38.97125261" lon="-0.49080804"><ele>136.0</ele><time>2022-11-13T14:18:27.0000000+00:00</time></trkpt><trkpt lat="38.97123878" lon="-0.49081131"><ele>136.0</ele><time>2022-11-13T14:18:28.0000000+00:00</time></trkpt><trkpt lat="38.9712257" lon="-0.490815"><ele>136.0</ele><time>2022-11-13T14:18:29.0000000+00:00</time></trkpt><trkpt lat="38.97121145" lon="-0.49081483"><ele>136.0</ele><time>2022-11-13T14:18:30.0000000+00:00</time></trkpt><trkpt lat="38.97119578" lon="-0.49081064"><ele>136.0</ele><time>2022-11-13T14:18:31.0000000+00:00</time></trkpt><trkpt lat="38.97118371" lon="-0.49081181"><ele>136.0</ele><time>2022-11-13T14:18:32.0000000+00:00</time></trkpt><trkpt lat="38.97117131" lon="-0.49081483"><ele>136.0</ele><time>2022-11-13T14:18:33.0000000+00:00</time></trkpt><trkpt lat="38.97116225" lon="-0.49082162"><ele>136.0</ele><time>2022-11-13T14:18:34.0000000+00:00</time></trkpt><trkpt lat="38.97115429" lon="-0.49083562"><ele>136.0</ele><time>2022-11-13T14:18:35.0000000+00:00</time></trkpt><trkpt lat="38.97114432" lon="-0.49084509"><ele>136.2</ele><time>2022-11-13T14:18:36.0000000+00:00</time></trkpt><trkpt lat="38.97113191" lon="-0.49085129"><ele>136.2</ele><time>2022-11-13T14:18:37.0000000+00:00</time></trkpt><trkpt lat="38.97111498" lon="-0.49085112"><ele>136.2</ele><time>2022-11-13T14:18:38.0000000+00:00</time></trkpt><trkpt lat="38.97110048" lon="-0.49085372"><ele>136.2</ele><time>2022-11-13T14:18:39.0000000+00:00</time></trkpt><trkpt lat="38.97109109" lon="-0.49085909"><ele>136.4</ele><time>2022-11-13T14:18:40.0000000+00:00</time></trkpt><trkpt lat="38.97108262" lon="-0.49086479"><ele>136.4</ele><time>2022-11-13T14:18:41.0000000+00:00</time></trkpt><trkpt lat="38.9710703" lon="-0.49086881"><ele>136.4</ele><time>2022-11-13T14:18:42.0000000+00:00</time></trkpt><trkpt lat="38.97105974" lon="-0.4908704"><ele>136.4</ele><time>2022-11-13T14:18:43.0000000+00:00</time></trkpt><trkpt lat="38.97105077" lon="-0.49087065"><ele>136.6</ele><time>2022-11-13T14:18:44.0000000+00:00</time></trkpt><trkpt lat="38.97104206" lon="-0.4908699"><ele>136.6</ele><time>2022-11-13T14:18:45.0000000+00:00</time></trkpt><trkpt lat="38.97103225" lon="-0.49087049"><ele>136.6</ele><time>2022-11-13T14:18:46.0000000+00:00</time></trkpt><trkpt lat="38.97101867" lon="-0.49087443"><ele>136.6</ele><time>2022-11-13T14:18:47.0000000+00:00</time></trkpt><trkpt lat="38.97100727" lon="-0.49087727"><ele>136.8</ele><time>2022-11-13T14:18:48.0000000+00:00</time></trkpt><trkpt lat="38.97099889" lon="-0.4908849"><ele>136.8</ele><time>2022-11-13T14:18:49.0000000+00:00</time></trkpt><trkpt lat="38.97099252" lon="-0.49088675"><ele>136.8</ele><time>2022-11-13T14:18:50.0000000+00:00</time></trkpt><trkpt lat="38.97098296" lon="-0.49089739"><ele>136.8</ele><time>2022-11-13T14:18:51.0000000+00:00</time></trkpt><trkpt lat="38.97097198" lon="-0.49090485"><ele>137.0</ele><time>2022-11-13T14:18:52.0000000+00:00</time></trkpt><trkpt lat="38.97095866" lon="-0.49091038"><ele>137.0</ele><time>2022-11-13T14:18:53.0000000+00:00</time></trkpt><trkpt lat="38.97094868" lon="-0.49091835"><ele>137.0</ele><time>2022-11-13T14:18:54.0000000+00:00</time></trkpt><trkpt lat="38.9709382" lon="-0.49092438"><ele>137.0</ele><time>2022-11-13T14:18:55.0000000+00:00</time></trkpt><trkpt lat="38.97092781" lon="-0.49092924"><ele>137.0</ele><time>2022-11-13T14:18:56.0000000+00:00</time></trkpt><trkpt lat="38.97091826" lon="-0.49093545"><ele>137.0</ele><time>2022-11-13T14:18:57.0000000+00:00</time></trkpt><trkpt lat="38.97090845" lon="-0.49094198"><ele>137.0</ele><time>2022-11-13T14:18:58.0000000+00:00</time></trkpt><trkpt lat="38.97089814" lon="-0.49094894"><ele>137.2</ele><time>2022-11-13T14:18:59.0000000+00:00</time></trkpt><trkpt lat="38.97088892" lon="-0.4909564"><ele>137.2</ele><time>2022-11-13T14:19:00.0000000+00:00</time></trkpt><trkpt lat="38.97088138" lon="-0.49096235"><ele>137.2</ele><time>2022-11-13T14:19:01.0000000+00:00</time></trkpt><trkpt lat="38.97087157" lon="-0.49096495"><ele>137.2</ele><time>2022-11-13T14:19:02.0000000+00:00</time></trkpt><trkpt lat="38.97086277" lon="-0.49096964"><ele>137.2</ele><time>2022-11-13T14:19:03.0000000+00:00</time></trkpt><trkpt lat="38.97085204" lon="-0.49097283"><ele>137.2</ele><time>2022-11-13T14:19:04.0000000+00:00</time></trkpt><trkpt lat="38.9708419" lon="-0.49098373"><ele>137.2</ele><time>2022-11-13T14:19:05.0000000+00:00</time></trkpt><trkpt lat="38.97083142" lon="-0.49099018"><ele>137.2</ele><time>2022-11-13T14:19:06.0000000+00:00</time></trkpt><trkpt lat="38.97082044" lon="-0.49099915"><ele>137.2</ele><time>2022-11-13T14:19:07.0000000+00:00</time></trkpt><trkpt lat="38.97081013" lon="-0.4910061"><ele>137.4</ele><time>2022-11-13T14:19:08.0000000+00:00</time></trkpt><trkpt lat="38.97079714" lon="-0.49101315"><ele>137.4</ele><time>2022-11-13T14:19:09.0000000+00:00</time></trkpt><trkpt lat="38.970788" lon="-0.49102262"><ele>137.4</ele><time>2022-11-13T14:19:10.0000000+00:00</time></trkpt><trkpt lat="38.97077945" lon="-0.49103678"><ele>137.4</ele><time>2022-11-13T14:19:11.0000000+00:00</time></trkpt><trkpt lat="38.97076923" lon="-0.49104701"><ele>137.4</ele><time>2022-11-13T14:19:12.0000000+00:00</time></trkpt><trkpt lat="38.97075757" lon="-0.4910543"><ele>137.4</ele><time>2022-11-13T14:19:13.0000000+00:00</time></trkpt><trkpt lat="38.97074148" lon="-0.49105614"><ele>137.4</ele><time>2022-11-13T14:19:14.0000000+00:00</time></trkpt><trkpt lat="38.97073058" lon="-0.49106176"><ele>137.6</ele><time>2022-11-13T14:19:15.0000000+00:00</time></trkpt><trkpt lat="38.97072371" lon="-0.49106729"><ele>137.8</ele><time>2022-11-13T14:19:16.0000000+00:00</time></trkpt><trkpt lat="38.97071407" lon="-0.49107584"><ele>137.8</ele><time>2022-11-13T14:19:17.0000000+00:00</time></trkpt><trkpt lat="38.97070862" lon="-0.49108188"><ele>137.8</ele><time>2022-11-13T14:19:18.0000000+00:00</time></trkpt><trkpt lat="38.97070318" lon="-0.49108875"><ele>138.0</ele><time>2022-11-13T14:19:19.0000000+00:00</time></trkpt><trkpt lat="38.97069706" lon="-0.49110266"><ele>138.0</ele><time>2022-11-13T14:19:20.0000000+00:00</time></trkpt><trkpt lat="38.97069245" lon="-0.49111448"><ele>138.0</ele><time>2022-11-13T14:19:21.0000000+00:00</time></trkpt><trkpt lat="38.97068909" lon="-0.49112328"><ele>138.2</ele><time>2022-11-13T14:19:22.0000000+00:00</time></trkpt><trkpt lat="38.97068339" lon="-0.49112856"><ele>138.2</ele><time>2022-11-13T14:19:23.0000000+00:00</time></trkpt><trkpt lat="38.97067568" lon="-0.4911315"><ele>138.2</ele><time>2022-11-13T14:19:24.0000000+00:00</time></trkpt><trkpt lat="38.97066797" lon="-0.49113954"><ele>138.2</ele><time>2022-11-13T14:19:25.0000000+00:00</time></trkpt><trkpt lat="38.9706637" lon="-0.49114449"><ele>138.2</ele><time>2022-11-13T14:19:26.0000000+00:00</time></trkpt><trkpt lat="38.97065934" lon="-0.491147"><ele>138.2</ele><time>2022-11-13T14:19:27.0000000+00:00</time></trkpt><trkpt lat="38.9706533" lon="-0.49115103"><ele>138.2</ele><time>2022-11-13T14:19:28.0000000+00:00</time></trkpt><trkpt lat="38.97064995" lon="-0.49115304"><ele>138.2</ele><time>2022-11-13T14:19:29.0000000+00:00</time></trkpt><trkpt lat="38.97064853" lon="-0.49115505"><ele>138.2</ele><time>2022-11-13T14:19:30.0000000+00:00</time></trkpt><trkpt lat="38.97064802" lon="-0.49115581"><ele>138.2</ele><time>2022-11-13T14:19:31.0000000+00:00</time></trkpt><trkpt lat="38.97064786" lon="-0.49115581"><ele>138.0</ele><time>2022-11-13T14:19:32.0000000+00:00</time></trkpt><trkpt lat="38.9706476" lon="-0.49115648"><ele>138.0</ele><time>2022-11-13T14:19:33.0000000+00:00</time></trkpt><trkpt lat="38.97064685" lon="-0.49115639"><ele>138.0</ele><time>2022-11-13T14:19:34.0000000+00:00</time></trkpt><trkpt lat="38.97064668" lon="-0.49115631"><ele>138.0</ele><time>2022-11-13T14:19:35.0000000+00:00</time></trkpt><trkpt lat="38.97064643" lon="-0.49115698"><ele>138.0</ele><time>2022-11-13T14:19:36.0000000+00:00</time></trkpt><trkpt lat="38.97064651" lon="-0.4911579"><ele>138.0</ele><time>2022-11-13T14:19:37.0000000+00:00</time></trkpt><trkpt lat="38.97064685" lon="-0.4911584"><ele>138.0</ele><time>2022-11-13T14:19:38.0000000+00:00</time></trkpt><trkpt lat="38.97064685" lon="-0.4911584"><ele>138.0</ele><time>2022-11-13T14:19:39.0000000+00:00</time></trkpt><trkpt lat="38.97064685" lon="-0.4911584"><ele>138.0</ele><time>2022-11-13T14:19:40.0000000+00:00</time></trkpt><trkpt lat="38.97064685" lon="-0.4911584"><ele>138.0</ele><time>2022-11-13T14:19:41.0000000+00:00</time></trkpt><trkpt lat="38.97064685" lon="-0.4911584"><ele>138.0</ele><time>2022-11-13T14:19:42.0000000+00:00</time></trkpt><trkpt lat="38.97064685" lon="-0.4911584"><ele>138.0</ele><time>2022-11-13T14:19:43.0000000+00:00</time></trkpt><trkpt lat="38.97064685" lon="-0.4911584"><ele>138.0</ele><time>2022-11-13T14:19:44.0000000+00:00</time></trkpt><trkpt lat="38.97064685" lon="-0.4911584"><ele>138.0</ele><time>2022-11-13T14:19:45.0000000+00:00</time></trkpt><trkpt lat="38.97064685" lon="-0.4911584"><ele>138.0</ele><time>2022-11-13T14:19:46.0000000+00:00</time></trkpt><trkpt lat="38.97064685" lon="-0.4911584"><ele>137.8</ele><time>2022-11-13T14:19:47.0000000+00:00</time></trkpt><trkpt lat="38.97064685" lon="-0.4911584"><ele>137.8</ele><time>2022-11-13T14:19:48.0000000+00:00</time></trkpt><trkpt lat="38.97064685" lon="-0.4911584"><ele>137.8</ele><time>2022-11-13T14:19:49.0000000+00:00</time></trkpt><trkpt lat="38.97064685" lon="-0.4911584"><ele>137.8</ele><time>2022-11-13T14:19:50.0000000+00:00</time></trkpt><trkpt lat="38.97064685" lon="-0.4911579"><ele>137.8</ele><time>2022-11-13T14:19:51.0000000+00:00</time></trkpt><trkpt lat="38.97064685" lon="-0.4911579"><ele>137.8</ele><time>2022-11-13T14:19:52.0000000+00:00</time></trkpt><trkpt lat="38.97064685" lon="-0.4911579"><ele>137.8</ele><time>2022-11-13T14:19:53.0000000+00:00</time></trkpt><trkpt lat="38.97064685" lon="-0.4911579"><ele>137.8</ele><time>2022-11-13T14:19:54.0000000+00:00</time></trkpt><trkpt lat="38.97064668" lon="-0.49115723"><ele>137.8</ele><time>2022-11-13T14:19:55.0000000+00:00</time></trkpt><trkpt lat="38.9706466" lon="-0.49115715"><ele>137.8</ele><time>2022-11-13T14:19:56.0000000+00:00</time></trkpt><trkpt lat="38.97064651" lon="-0.49115715"><ele>137.8</ele><time>2022-11-13T14:19:57.0000000+00:00</time></trkpt><trkpt lat="38.97064643" lon="-0.49115698"><ele>137.8</ele><time>2022-11-13T14:19:58.0000000+00:00</time></trkpt><trkpt lat="38.97064626" lon="-0.4911569"><ele>137.8</ele><time>2022-11-13T14:19:59.0000000+00:00</time></trkpt><trkpt lat="38.9706461" lon="-0.4911569"><ele>137.8</ele><time>2022-11-13T14:20:00.0000000+00:00</time></trkpt><trkpt lat="38.97064542" lon="-0.4911569"><ele>137.8</ele><time>2022-11-13T14:20:01.0000000+00:00</time></trkpt><trkpt lat="38.97064517" lon="-0.4911569"><ele>137.8</ele><time>2022-11-13T14:20:02.0000000+00:00</time></trkpt><trkpt lat="38.97064492" lon="-0.4911569"><ele>137.8</ele><time>2022-11-13T14:20:03.0000000+00:00</time></trkpt><trkpt lat="38.97064417" lon="-0.4911569"><ele>137.8</ele><time>2022-11-13T14:20:04.0000000+00:00</time></trkpt><trkpt lat="38.97064392" lon="-0.4911569"><ele>137.8</ele><time>2022-11-13T14:20:05.0000000+00:00</time></trkpt><trkpt lat="38.97064375" lon="-0.49115648"><ele>137.8</ele><time>2022-11-13T14:20:06.0000000+00:00</time></trkpt><trkpt lat="38.97064115" lon="-0.49115371"><ele>137.8</ele><time>2022-11-13T14:20:07.0000000+00:00</time></trkpt><trkpt lat="38.97063134" lon="-0.49114977"><ele>137.8</ele><time>2022-11-13T14:20:08.0000000+00:00</time></trkpt><trkpt lat="38.97061978" lon="-0.49114323"><ele>137.8</ele><time>2022-11-13T14:20:09.0000000+00:00</time></trkpt><trkpt lat="38.97060452" lon="-0.49113804"><ele>137.8</ele><time>2022-11-13T14:20:10.0000000+00:00</time></trkpt><trkpt lat="38.9705927" lon="-0.49113208"><ele>137.8</ele><time>2022-11-13T14:20:11.0000000+00:00</time></trkpt><trkpt lat="38.97058088" lon="-0.49112957"><ele>137.8</ele><time>2022-11-13T14:20:12.0000000+00:00</time></trkpt><trkpt lat="38.97056915" lon="-0.49113074"><ele>137.6</ele><time>2022-11-13T14:20:13.0000000+00:00</time></trkpt><trkpt lat="38.97055565" lon="-0.4911263"><ele>137.6</ele><time>2022-11-13T14:20:14.0000000+00:00</time></trkpt><trkpt lat="38.97054518" lon="-0.49112043"><ele>137.6</ele><time>2022-11-13T14:20:15.0000000+00:00</time></trkpt><trkpt lat="38.97053177" lon="-0.49111046"><ele>137.6</ele><time>2022-11-13T14:20:16.0000000+00:00</time></trkpt><trkpt lat="38.97052221" lon="-0.49109839"><ele>137.4</ele><time>2022-11-13T14:20:17.0000000+00:00</time></trkpt><trkpt lat="38.97051106" lon="-0.49108347"><ele>137.4</ele><time>2022-11-13T14:20:18.0000000+00:00</time></trkpt><trkpt lat="38.97049405" lon="-0.49107626"><ele>137.4</ele><time>2022-11-13T14:20:19.0000000+00:00</time></trkpt><trkpt lat="38.9704803" lon="-0.49107215"><ele>137.4</ele><time>2022-11-13T14:20:20.0000000+00:00</time></trkpt><trkpt lat="38.9704606" lon="-0.49106486"><ele>137.4</ele><time>2022-11-13T14:20:21.0000000+00:00</time></trkpt><trkpt lat="38.97044702" lon="-0.49105983"><ele>137.4</ele><time>2022-11-13T14:20:22.0000000+00:00</time></trkpt><trkpt lat="38.97043269" lon="-0.49105497"><ele>137.4</ele><time>2022-11-13T14:20:23.0000000+00:00</time></trkpt><trkpt lat="38.97041643" lon="-0.49104843"><ele>137.4</ele><time>2022-11-13T14:20:24.0000000+00:00</time></trkpt><trkpt lat="38.97039883" lon="-0.49104064"><ele>137.4</ele><time>2022-11-13T14:20:25.0000000+00:00</time></trkpt><trkpt lat="38.97038324" lon="-0.49103427"><ele>137.2</ele><time>2022-11-13T14:20:26.0000000+00:00</time></trkpt><trkpt lat="38.97036606" lon="-0.49102966"><ele>137.2</ele><time>2022-11-13T14:20:27.0000000+00:00</time></trkpt><trkpt lat="38.97034745" lon="-0.49101549"><ele>137.2</ele><time>2022-11-13T14:20:28.0000000+00:00</time></trkpt><trkpt lat="38.97033714" lon="-0.49101139"><ele>137.2</ele><time>2022-11-13T14:20:29.0000000+00:00</time></trkpt><trkpt lat="38.97033655" lon="-0.49101449"><ele>137.2</ele><time>2022-11-13T14:20:30.0000000+00:00</time></trkpt><trkpt lat="38.97032431" lon="-0.49100669"><ele>137.2</ele><time>2022-11-13T14:20:31.0000000+00:00</time></trkpt><trkpt lat="38.97031643" lon="-0.49099923"><ele>137.0</ele><time>2022-11-13T14:20:32.0000000+00:00</time></trkpt><trkpt lat="38.97031199" lon="-0.49099898"><ele>137.0</ele><time>2022-11-13T14:20:33.0000000+00:00</time></trkpt><trkpt lat="38.97029925" lon="-0.49099764"><ele>137.2</ele><time>2022-11-13T14:20:34.0000000+00:00</time></trkpt><trkpt lat="38.97028978" lon="-0.49099747"><ele>137.2</ele><time>2022-11-13T14:20:35.0000000+00:00</time></trkpt><trkpt lat="38.97027754" lon="-0.49099328"><ele>137.2</ele><time>2022-11-13T14:20:36.0000000+00:00</time></trkpt><trkpt lat="38.97026363" lon="-0.49098725"><ele>137.2</ele><time>2022-11-13T14:20:37.0000000+00:00</time></trkpt><trkpt lat="38.97025315" lon="-0.49098465"><ele>137.2</ele><time>2022-11-13T14:20:38.0000000+00:00</time></trkpt><trkpt lat="38.97024645" lon="-0.4909916"><ele>137.2</ele><time>2022-11-13T14:20:39.0000000+00:00</time></trkpt><trkpt lat="38.97024368" lon="-0.49099772"><ele>137.2</ele><time>2022-11-13T14:20:40.0000000+00:00</time></trkpt><trkpt lat="38.97024502" lon="-0.49099881"><ele>137.2</ele><time>2022-11-13T14:20:41.0000000+00:00</time></trkpt><trkpt lat="38.97024494" lon="-0.49099311"><ele>137.2</ele><time>2022-11-13T14:20:42.0000000+00:00</time></trkpt><trkpt lat="38.97024318" lon="-0.4909844"><ele>137.2</ele><time>2022-11-13T14:20:43.0000000+00:00</time></trkpt><trkpt lat="38.9702389" lon="-0.49097744"><ele>137.2</ele><time>2022-11-13T14:20:44.0000000+00:00</time></trkpt><trkpt lat="38.97023102" lon="-0.49096981"><ele>137.2</ele><time>2022-11-13T14:20:45.0000000+00:00</time></trkpt><trkpt lat="38.97022348" lon="-0.49096135"><ele>137.2</ele><time>2022-11-13T14:20:46.0000000+00:00</time></trkpt><trkpt lat="38.97021367" lon="-0.49094835"><ele>137.2</ele><time>2022-11-13T14:20:47.0000000+00:00</time></trkpt><trkpt lat="38.97020588" lon="-0.49093897"><ele>137.2</ele><time>2022-11-13T14:20:48.0000000+00:00</time></trkpt><trkpt lat="38.97019967" lon="-0.49093545"><ele>137.4</ele><time>2022-11-13T14:20:49.0000000+00:00</time></trkpt><trkpt lat="38.97019632" lon="-0.49093402"><ele>137.4</ele><time>2022-11-13T14:20:50.0000000+00:00</time></trkpt><trkpt lat="38.97019448" lon="-0.4909336"><ele>137.6</ele><time>2022-11-13T14:20:51.0000000+00:00</time></trkpt><trkpt lat="38.97019716" lon="-0.49093318"><ele>137.6</ele><time>2022-11-13T14:20:52.0000000+00:00</time></trkpt><trkpt lat="38.97019683" lon="-0.49093159"><ele>137.6</ele><time>2022-11-13T14:20:53.0000000+00:00</time></trkpt><trkpt lat="38.97019724" lon="-0.49093167"><ele>137.6</ele><time>2022-11-13T14:20:54.0000000+00:00</time></trkpt><trkpt lat="38.97019532" lon="-0.49093167"><ele>137.6</ele><time>2022-11-13T14:20:55.0000000+00:00</time></trkpt><trkpt lat="38.97019439" lon="-0.49093092"><ele>137.6</ele><time>2022-11-13T14:20:56.0000000+00:00</time></trkpt><trkpt lat="38.97019439" lon="-0.49093192"><ele>137.6</ele><time>2022-11-13T14:20:57.0000000+00:00</time></trkpt><trkpt lat="38.97019138" lon="-0.49093603"><ele>137.6</ele><time>2022-11-13T14:20:58.0000000+00:00</time></trkpt><trkpt lat="38.97018652" lon="-0.49093972"><ele>137.6</ele><time>2022-11-13T14:20:59.0000000+00:00</time></trkpt><trkpt lat="38.97017855" lon="-0.49093779"><ele>137.4</ele><time>2022-11-13T14:21:00.0000000+00:00</time></trkpt><trkpt lat="38.97017126" lon="-0.49093125"><ele>137.4</ele><time>2022-11-13T14:21:01.0000000+00:00</time></trkpt><trkpt lat="38.97016338" lon="-0.49093109"><ele>137.2</ele><time>2022-11-13T14:21:02.0000000+00:00</time></trkpt><trkpt lat="38.97015098" lon="-0.49092639"><ele>137.0</ele><time>2022-11-13T14:21:03.0000000+00:00</time></trkpt><trkpt lat="38.97013899" lon="-0.49092346"><ele>137.0</ele><time>2022-11-13T14:21:04.0000000+00:00</time></trkpt><trkpt lat="38.97012952" lon="-0.49092111"><ele>136.8</ele><time>2022-11-13T14:21:05.0000000+00:00</time></trkpt><trkpt lat="38.9701255" lon="-0.49092195"><ele>136.6</ele><time>2022-11-13T14:21:06.0000000+00:00</time></trkpt><trkpt lat="38.97011896" lon="-0.49092237"><ele>136.4</ele><time>2022-11-13T14:21:07.0000000+00:00</time></trkpt><trkpt lat="38.97011125" lon="-0.49092036"><ele>136.4</ele><time>2022-11-13T14:21:08.0000000+00:00</time></trkpt><trkpt lat="38.97010127" lon="-0.49092027"><ele>136.2</ele><time>2022-11-13T14:21:09.0000000+00:00</time></trkpt><trkpt lat="38.97009691" lon="-0.49091985"><ele>136.2</ele><time>2022-11-13T14:21:10.0000000+00:00</time></trkpt><trkpt lat="38.97008945" lon="-0.49091265"><ele>136.0</ele><time>2022-11-13T14:21:11.0000000+00:00</time></trkpt><trkpt lat="38.97008074" lon="-0.49090628"><ele>135.8</ele><time>2022-11-13T14:21:12.0000000+00:00</time></trkpt><trkpt lat="38.97006892" lon="-0.49090468"><ele>135.6</ele><time>2022-11-13T14:21:13.0000000+00:00</time></trkpt><trkpt lat="38.9700566" lon="-0.4909098"><ele>135.4</ele><time>2022-11-13T14:21:14.0000000+00:00</time></trkpt><trkpt lat="38.97005073" lon="-0.49091985"><ele>135.2</ele><time>2022-11-13T14:21:15.0000000+00:00</time></trkpt><trkpt lat="38.9700395" lon="-0.49093167"><ele>135.0</ele><time>2022-11-13T14:21:16.0000000+00:00</time></trkpt><trkpt lat="38.97003036" lon="-0.49094617"><ele>134.8</ele><time>2022-11-13T14:21:17.0000000+00:00</time></trkpt><trkpt lat="38.9700255" lon="-0.49095866"><ele>134.8</ele><time>2022-11-13T14:21:18.0000000+00:00</time></trkpt><trkpt lat="38.97002466" lon="-0.49097325"><ele>134.8</ele><time>2022-11-13T14:21:19.0000000+00:00</time></trkpt><trkpt lat="38.97002223" lon="-0.49099244"><ele>134.6</ele><time>2022-11-13T14:21:20.0000000+00:00</time></trkpt><trkpt lat="38.97001259" lon="-0.49100778"><ele>134.6</ele><time>2022-11-13T14:21:21.0000000+00:00</time></trkpt><trkpt lat="38.97000538" lon="-0.49102731"><ele>134.6</ele><time>2022-11-13T14:21:22.0000000+00:00</time></trkpt><trkpt lat="38.96999834" lon="-0.49104919"><ele>134.6</ele><time>2022-11-13T14:21:23.0000000+00:00</time></trkpt><trkpt lat="38.96998728" lon="-0.49106972"><ele>134.6</ele><time>2022-11-13T14:21:24.0000000+00:00</time></trkpt><trkpt lat="38.96999097" lon="-0.4910854"><ele>134.6</ele><time>2022-11-13T14:21:25.0000000+00:00</time></trkpt><trkpt lat="38.96999189" lon="-0.49109973"><ele>134.6</ele><time>2022-11-13T14:21:26.0000000+00:00</time></trkpt><trkpt lat="38.9699975" lon="-0.49112253"><ele>134.6</ele><time>2022-11-13T14:21:27.0000000+00:00</time></trkpt><trkpt lat="38.97000094" lon="-0.4911372"><ele>134.6</ele><time>2022-11-13T14:21:28.0000000+00:00</time></trkpt><trkpt lat="38.97000966" lon="-0.49115145"><ele>134.6</ele><time>2022-11-13T14:21:29.0000000+00:00</time></trkpt><trkpt lat="38.97000857" lon="-0.49117475"><ele>134.6</ele><time>2022-11-13T14:21:30.0000000+00:00</time></trkpt><trkpt lat="38.96999667" lon="-0.49117986"><ele>134.6</ele><time>2022-11-13T14:21:31.0000000+00:00</time></trkpt><trkpt lat="38.96999063" lon="-0.4911895"><ele>134.6</ele><time>2022-11-13T14:21:32.0000000+00:00</time></trkpt><trkpt lat="38.96998066" lon="-0.49120392"><ele>134.6</ele><time>2022-11-13T14:21:33.0000000+00:00</time></trkpt><trkpt lat="38.969968" lon="-0.49121616"><ele>134.6</ele><time>2022-11-13T14:21:34.0000000+00:00</time></trkpt><trkpt lat="38.96995962" lon="-0.49122948"><ele>134.6</ele><time>2022-11-13T14:21:35.0000000+00:00</time></trkpt><trkpt lat="38.96996004" lon="-0.49124591"><ele>134.6</ele><time>2022-11-13T14:21:36.0000000+00:00</time></trkpt><trkpt lat="38.96996934" lon="-0.49126728"><ele>134.6</ele><time>2022-11-13T14:21:37.0000000+00:00</time></trkpt><trkpt lat="38.96998577" lon="-0.49128765"><ele>134.6</ele><time>2022-11-13T14:21:38.0000000+00:00</time></trkpt><trkpt lat="38.96999113" lon="-0.49131062"><ele>134.6</ele><time>2022-11-13T14:21:39.0000000+00:00</time></trkpt><trkpt lat="38.96999088" lon="-0.49133233"><ele>134.6</ele><time>2022-11-13T14:21:40.0000000+00:00</time></trkpt><trkpt lat="38.96998778" lon="-0.49135102"><ele>134.6</ele><time>2022-11-13T14:21:41.0000000+00:00</time></trkpt><trkpt lat="38.96998921" lon="-0.49136577"><ele>134.6</ele><time>2022-11-13T14:21:42.0000000+00:00</time></trkpt><trkpt lat="38.96998669" lon="-0.49137223"><ele>134.6</ele><time>2022-11-13T14:21:43.0000000+00:00</time></trkpt><trkpt lat="38.96997395" lon="-0.49137533"><ele>134.6</ele><time>2022-11-13T14:21:44.0000000+00:00</time></trkpt><trkpt lat="38.96996205" lon="-0.49138706"><ele>134.8</ele><time>2022-11-13T14:21:45.0000000+00:00</time></trkpt><trkpt lat="38.96995333" lon="-0.49139938"><ele>134.8</ele><time>2022-11-13T14:21:46.0000000+00:00</time></trkpt><trkpt lat="38.96994738" lon="-0.49140927"><ele>134.8</ele><time>2022-11-13T14:21:47.0000000+00:00</time></trkpt><trkpt lat="38.9699431" lon="-0.49142084"><ele>134.8</ele><time>2022-11-13T14:21:48.0000000+00:00</time></trkpt><trkpt lat="38.96993975" lon="-0.49143761"><ele>134.8</ele><time>2022-11-13T14:21:49.0000000+00:00</time></trkpt><trkpt lat="38.96993439" lon="-0.49145236"><ele>134.8</ele><time>2022-11-13T14:21:50.0000000+00:00</time></trkpt><trkpt lat="38.96992676" lon="-0.49146879"><ele>134.8</ele><time>2022-11-13T14:21:51.0000000+00:00</time></trkpt><trkpt lat="38.96991729" lon="-0.49148228"><ele>134.8</ele><time>2022-11-13T14:21:52.0000000+00:00</time></trkpt><trkpt lat="38.96990941" lon="-0.49149502"><ele>134.8</ele><time>2022-11-13T14:21:53.0000000+00:00</time></trkpt><trkpt lat="38.96990388" lon="-0.49150902"><ele>134.8</ele><time>2022-11-13T14:21:54.0000000+00:00</time></trkpt><trkpt lat="38.96990212" lon="-0.49152637"><ele>134.8</ele><time>2022-11-13T14:21:55.0000000+00:00</time></trkpt><trkpt lat="38.96989122" lon="-0.49153919"><ele>134.8</ele><time>2022-11-13T14:21:56.0000000+00:00</time></trkpt><trkpt lat="38.96988343" lon="-0.49155068"><ele>134.8</ele><time>2022-11-13T14:21:57.0000000+00:00</time></trkpt><trkpt lat="38.96986892" lon="-0.49156241"><ele>134.8</ele><time>2022-11-13T14:21:58.0000000+00:00</time></trkpt><trkpt lat="38.96985912" lon="-0.49156602"><ele>134.8</ele><time>2022-11-13T14:21:59.0000000+00:00</time></trkpt><trkpt lat="38.96985149" lon="-0.4915744"><ele>134.6</ele><time>2022-11-13T14:22:00.0000000+00:00</time></trkpt><trkpt lat="38.96984504" lon="-0.49159275"><ele>134.6</ele><time>2022-11-13T14:22:01.0000000+00:00</time></trkpt><trkpt lat="38.96984479" lon="-0.49160583"><ele>134.6</ele><time>2022-11-13T14:22:02.0000000+00:00</time></trkpt><trkpt lat="38.96984068" lon="-0.49161723"><ele>134.6</ele><time>2022-11-13T14:22:03.0000000+00:00</time></trkpt><trkpt lat="38.96983422" lon="-0.49162611"><ele>134.6</ele><time>2022-11-13T14:22:04.0000000+00:00</time></trkpt><trkpt lat="38.96982727" lon="-0.49163542"><ele>134.6</ele><time>2022-11-13T14:22:05.0000000+00:00</time></trkpt><trkpt lat="38.96981629" lon="-0.4916407"><ele>134.6</ele><time>2022-11-13T14:22:06.0000000+00:00</time></trkpt><trkpt lat="38.96980858" lon="-0.49164481"><ele>134.6</ele><time>2022-11-13T14:22:07.0000000+00:00</time></trkpt><trkpt lat="38.96980447" lon="-0.49165419"><ele>134.6</ele><time>2022-11-13T14:22:08.0000000+00:00</time></trkpt><trkpt lat="38.9697986" lon="-0.49167255"><ele>134.4</ele><time>2022-11-13T14:22:09.0000000+00:00</time></trkpt><trkpt lat="38.96979298" lon="-0.49168294"><ele>134.4</ele><time>2022-11-13T14:22:10.0000000+00:00</time></trkpt><trkpt lat="38.96978494" lon="-0.49169225"><ele>134.4</ele><time>2022-11-13T14:22:11.0000000+00:00</time></trkpt><trkpt lat="38.96977832" lon="-0.49170381"><ele>134.4</ele><time>2022-11-13T14:22:12.0000000+00:00</time></trkpt><trkpt lat="38.96977362" lon="-0.49171488"><ele>134.4</ele><time>2022-11-13T14:22:13.0000000+00:00</time></trkpt><trkpt lat="38.96977237" lon="-0.49173231"><ele>134.6</ele><time>2022-11-13T14:22:14.0000000+00:00</time></trkpt><trkpt lat="38.96977329" lon="-0.49174782"><ele>134.6</ele><time>2022-11-13T14:22:15.0000000+00:00</time></trkpt><trkpt lat="38.96976876" lon="-0.49175235"><ele>134.6</ele><time>2022-11-13T14:22:16.0000000+00:00</time></trkpt><trkpt lat="38.96976222" lon="-0.49175964"><ele>134.6</ele><time>2022-11-13T14:22:17.0000000+00:00</time></trkpt><trkpt lat="38.96975627" lon="-0.49176944"><ele>134.6</ele><time>2022-11-13T14:22:18.0000000+00:00</time></trkpt><trkpt lat="38.96974437" lon="-0.49178093"><ele>134.6</ele><time>2022-11-13T14:22:19.0000000+00:00</time></trkpt><trkpt lat="38.96973523" lon="-0.49179635"><ele>134.4</ele><time>2022-11-13T14:22:20.0000000+00:00</time></trkpt><trkpt lat="38.9697344" lon="-0.49182066"><ele>134.4</ele><time>2022-11-13T14:22:21.0000000+00:00</time></trkpt><trkpt lat="38.96973657" lon="-0.49184111"><ele>134.4</ele><time>2022-11-13T14:22:22.0000000+00:00</time></trkpt><trkpt lat="38.96973071" lon="-0.49185142"><ele>134.4</ele><time>2022-11-13T14:22:23.0000000+00:00</time></trkpt><trkpt lat="38.96972484" lon="-0.49186584"><ele>134.4</ele><time>2022-11-13T14:22:24.0000000+00:00</time></trkpt><trkpt lat="38.96972006" lon="-0.49188034"><ele>134.6</ele><time>2022-11-13T14:22:25.0000000+00:00</time></trkpt><trkpt lat="38.96971445" lon="-0.49189903"><ele>134.6</ele><time>2022-11-13T14:22:26.0000000+00:00</time></trkpt><trkpt lat="38.96970648" lon="-0.49191278"><ele>134.6</ele><time>2022-11-13T14:22:27.0000000+00:00</time></trkpt><trkpt lat="38.9697002" lon="-0.49192216"><ele>134.6</ele><time>2022-11-13T14:22:28.0000000+00:00</time></trkpt><trkpt lat="38.9697002" lon="-0.49192493"><ele>134.8</ele><time>2022-11-13T14:22:29.0000000+00:00</time></trkpt><trkpt lat="38.96969869" lon="-0.49192912"><ele>134.8</ele><time>2022-11-13T14:22:30.0000000+00:00</time></trkpt><trkpt lat="38.9696971" lon="-0.49193231"><ele>134.8</ele><time>2022-11-13T14:22:31.0000000+00:00</time></trkpt><trkpt lat="38.96969165" lon="-0.49193943"><ele>134.8</ele><time>2022-11-13T14:22:32.0000000+00:00</time></trkpt><trkpt lat="38.96968997" lon="-0.49195485"><ele>134.8</ele><time>2022-11-13T14:22:33.0000000+00:00</time></trkpt><trkpt lat="38.96968595" lon="-0.4919686"><ele>134.6</ele><time>2022-11-13T14:22:34.0000000+00:00</time></trkpt><trkpt lat="38.96968285" lon="-0.49197966"><ele>134.6</ele><time>2022-11-13T14:22:35.0000000+00:00</time></trkpt><trkpt lat="38.96968176" lon="-0.49199341"><ele>134.6</ele><time>2022-11-13T14:22:36.0000000+00:00</time></trkpt><trkpt lat="38.96967866" lon="-0.4920054"><ele>134.6</ele><time>2022-11-13T14:22:37.0000000+00:00</time></trkpt><trkpt lat="38.96967681" lon="-0.49202493"><ele>134.6</ele><time>2022-11-13T14:22:38.0000000+00:00</time></trkpt><trkpt lat="38.96967388" lon="-0.4920468"><ele>134.6</ele><time>2022-11-13T14:22:39.0000000+00:00</time></trkpt><trkpt lat="38.96967354" lon="-0.49206516"><ele>134.6</ele><time>2022-11-13T14:22:40.0000000+00:00</time></trkpt><trkpt lat="38.96967354" lon="-0.49208142"><ele>134.6</ele><time>2022-11-13T14:22:41.0000000+00:00</time></trkpt><trkpt lat="38.96966684" lon="-0.4921012"><ele>134.6</ele><time>2022-11-13T14:22:42.0000000+00:00</time></trkpt><trkpt lat="38.9696551" lon="-0.49211889"><ele>134.6</ele><time>2022-11-13T14:22:43.0000000+00:00</time></trkpt><trkpt lat="38.96964219" lon="-0.49213205"><ele>134.6</ele><time>2022-11-13T14:22:44.0000000+00:00</time></trkpt><trkpt lat="38.969638" lon="-0.49214554"><ele>134.6</ele><time>2022-11-13T14:22:45.0000000+00:00</time></trkpt><trkpt lat="38.96964152" lon="-0.49217018"><ele>134.6</ele><time>2022-11-13T14:22:46.0000000+00:00</time></trkpt><trkpt lat="38.96964102" lon="-0.4921924"><ele>134.6</ele><time>2022-11-13T14:22:47.0000000+00:00</time></trkpt><trkpt lat="38.96964035" lon="-0.49221452"><ele>134.6</ele><time>2022-11-13T14:22:48.0000000+00:00</time></trkpt><trkpt lat="38.96963683" lon="-0.49223741"><ele>134.6</ele><time>2022-11-13T14:22:49.0000000+00:00</time></trkpt><trkpt lat="38.96963046" lon="-0.49226624"><ele>134.6</ele><time>2022-11-13T14:22:50.0000000+00:00</time></trkpt><trkpt lat="38.96961655" lon="-0.49228845"><ele>134.4</ele><time>2022-11-13T14:22:51.0000000+00:00</time></trkpt><trkpt lat="38.96961034" lon="-0.49230639"><ele>134.4</ele><time>2022-11-13T14:22:52.0000000+00:00</time></trkpt><trkpt lat="38.96961009" lon="-0.49232466"><ele>134.6</ele><time>2022-11-13T14:22:53.0000000+00:00</time></trkpt><trkpt lat="38.96960674" lon="-0.49234587"><ele>134.6</ele><time>2022-11-13T14:22:54.0000000+00:00</time></trkpt><trkpt lat="38.96959526" lon="-0.49236129"><ele>134.6</ele><time>2022-11-13T14:22:55.0000000+00:00</time></trkpt><trkpt lat="38.96958352" lon="-0.49236867"><ele>134.6</ele><time>2022-11-13T14:22:56.0000000+00:00</time></trkpt><trkpt lat="38.96957598" lon="-0.49237873"><ele>134.6</ele><time>2022-11-13T14:22:57.0000000+00:00</time></trkpt><trkpt lat="38.96957237" lon="-0.49239356"><ele>134.6</ele><time>2022-11-13T14:22:58.0000000+00:00</time></trkpt><trkpt lat="38.96956894" lon="-0.49240739"><ele>134.6</ele><time>2022-11-13T14:22:59.0000000+00:00</time></trkpt><trkpt lat="38.96956533" lon="-0.49241217"><ele>134.4</ele><time>2022-11-13T14:23:00.0000000+00:00</time></trkpt><trkpt lat="38.96956014" lon="-0.49241846"><ele>134.4</ele><time>2022-11-13T14:23:01.0000000+00:00</time></trkpt><trkpt lat="38.96955645" lon="-0.49242223"><ele>134.4</ele><time>2022-11-13T14:23:02.0000000+00:00</time></trkpt><trkpt lat="38.96954731" lon="-0.49242918"><ele>134.4</ele><time>2022-11-13T14:23:03.0000000+00:00</time></trkpt><trkpt lat="38.96954052" lon="-0.4924369"><ele>134.4</ele><time>2022-11-13T14:23:04.0000000+00:00</time></trkpt><trkpt lat="38.96953382" lon="-0.49243723"><ele>134.4</ele><time>2022-11-13T14:23:05.0000000+00:00</time></trkpt><trkpt lat="38.96952141" lon="-0.49243522"><ele>134.6</ele><time>2022-11-13T14:23:06.0000000+00:00</time></trkpt><trkpt lat="38.96951135" lon="-0.49242851"><ele>134.6</ele><time>2022-11-13T14:23:07.0000000+00:00</time></trkpt><trkpt lat="38.96950448" lon="-0.49243178"><ele>134.8</ele><time>2022-11-13T14:23:08.0000000+00:00</time></trkpt><trkpt lat="38.96949509" lon="-0.49244067"><ele>135.0</ele><time>2022-11-13T14:23:09.0000000+00:00</time></trkpt><trkpt lat="38.96948805" lon="-0.49245173"><ele>135.0</ele><time>2022-11-13T14:23:10.0000000+00:00</time></trkpt><trkpt lat="38.9694821" lon="-0.49246162"><ele>135.0</ele><time>2022-11-13T14:23:11.0000000+00:00</time></trkpt><trkpt lat="38.96948185" lon="-0.49247637"><ele>135.0</ele><time>2022-11-13T14:23:12.0000000+00:00</time></trkpt><trkpt lat="38.96948101" lon="-0.49250663"><ele>135.0</ele><time>2022-11-13T14:23:13.0000000+00:00</time></trkpt><trkpt lat="38.96948" lon="-0.49252264"><ele>134.8</ele><time>2022-11-13T14:23:14.0000000+00:00</time></trkpt><trkpt lat="38.96946634" lon="-0.49253035"><ele>134.8</ele><time>2022-11-13T14:23:15.0000000+00:00</time></trkpt><trkpt lat="38.96945528" lon="-0.49252558"><ele>134.6</ele><time>2022-11-13T14:23:16.0000000+00:00</time></trkpt><trkpt lat="38.96945" lon="-0.49252499"><ele>134.6</ele><time>2022-11-13T14:23:17.0000000+00:00</time></trkpt><trkpt lat="38.96944379" lon="-0.49253698"><ele>134.4</ele><time>2022-11-13T14:23:18.0000000+00:00</time></trkpt><trkpt lat="38.96943416" lon="-0.49255164"><ele>134.4</ele><time>2022-11-13T14:23:19.0000000+00:00</time></trkpt><trkpt lat="38.96941597" lon="-0.49256422"><ele>134.4</ele><time>2022-11-13T14:23:20.0000000+00:00</time></trkpt><trkpt lat="38.96940256" lon="-0.49258458"><ele>134.4</ele><time>2022-11-13T14:23:21.0000000+00:00</time></trkpt><trkpt lat="38.96939929" lon="-0.4926125"><ele>134.4</ele><time>2022-11-13T14:23:22.0000000+00:00</time></trkpt><trkpt lat="38.9693894" lon="-0.49262943"><ele>134.4</ele><time>2022-11-13T14:23:23.0000000+00:00</time></trkpt><trkpt lat="38.96938152" lon="-0.49264519"><ele>134.4</ele><time>2022-11-13T14:23:24.0000000+00:00</time></trkpt><trkpt lat="38.96937397" lon="-0.49266136"><ele>134.4</ele><time>2022-11-13T14:23:25.0000000+00:00</time></trkpt><trkpt lat="38.9693702" lon="-0.49267461"><ele>134.4</ele><time>2022-11-13T14:23:26.0000000+00:00</time></trkpt><trkpt lat="38.96937045" lon="-0.49269472"><ele>134.4</ele><time>2022-11-13T14:23:27.0000000+00:00</time></trkpt><trkpt lat="38.96936492" lon="-0.49270419"><ele>134.4</ele><time>2022-11-13T14:23:28.0000000+00:00</time></trkpt><trkpt lat="38.96936023" lon="-0.49271769"><ele>134.4</ele><time>2022-11-13T14:23:29.0000000+00:00</time></trkpt><trkpt lat="38.96935327" lon="-0.49272632"><ele>134.4</ele><time>2022-11-13T14:23:30.0000000+00:00</time></trkpt><trkpt lat="38.96934715" lon="-0.49274233"><ele>134.6</ele><time>2022-11-13T14:23:31.0000000+00:00</time></trkpt><trkpt lat="38.969349" lon="-0.4927653"><ele>134.6</ele><time>2022-11-13T14:23:32.0000000+00:00</time></trkpt><trkpt lat="38.96934732" lon="-0.49277485"><ele>134.8</ele><time>2022-11-13T14:23:33.0000000+00:00</time></trkpt><trkpt lat="38.96934019" lon="-0.49278625"><ele>134.8</ele><time>2022-11-13T14:23:34.0000000+00:00</time></trkpt><trkpt lat="38.96933994" lon="-0.49280486"><ele>134.8</ele><time>2022-11-13T14:23:35.0000000+00:00</time></trkpt><trkpt lat="38.9693407" lon="-0.49282473"><ele>134.8</ele><time>2022-11-13T14:23:36.0000000+00:00</time></trkpt><trkpt lat="38.96932762" lon="-0.49284468"><ele>134.8</ele><time>2022-11-13T14:23:37.0000000+00:00</time></trkpt><trkpt lat="38.9693158" lon="-0.49286429"><ele>135.0</ele><time>2022-11-13T14:23:38.0000000+00:00</time></trkpt><trkpt lat="38.96930751" lon="-0.49288273"><ele>135.0</ele><time>2022-11-13T14:23:39.0000000+00:00</time></trkpt><trkpt lat="38.96930876" lon="-0.49290226"><ele>135.0</ele><time>2022-11-13T14:23:40.0000000+00:00</time></trkpt><trkpt lat="38.96930365" lon="-0.49291684"><ele>135.0</ele><time>2022-11-13T14:23:41.0000000+00:00</time></trkpt><trkpt lat="38.96929225" lon="-0.49292539"><ele>135.0</ele><time>2022-11-13T14:23:42.0000000+00:00</time></trkpt><trkpt lat="38.96927859" lon="-0.49293252"><ele>135.0</ele><time>2022-11-13T14:23:43.0000000+00:00</time></trkpt><trkpt lat="38.9692635" lon="-0.49293696"><ele>135.0</ele><time>2022-11-13T14:23:44.0000000+00:00</time></trkpt><trkpt lat="38.96924699" lon="-0.49294258"><ele>135.0</ele><time>2022-11-13T14:23:45.0000000+00:00</time></trkpt><trkpt lat="38.96923056" lon="-0.49294484"><ele>135.0</ele><time>2022-11-13T14:23:46.0000000+00:00</time></trkpt><trkpt lat="38.9692138" lon="-0.49294048"><ele>135.0</ele><time>2022-11-13T14:23:47.0000000+00:00</time></trkpt><trkpt lat="38.96919318" lon="-0.49292782"><ele>135.0</ele><time>2022-11-13T14:23:48.0000000+00:00</time></trkpt><trkpt lat="38.96918069" lon="-0.49293176"><ele>135.0</ele><time>2022-11-13T14:23:49.0000000+00:00</time></trkpt><trkpt lat="38.96917113" lon="-0.49293327"><ele>135.0</ele><time>2022-11-13T14:23:50.0000000+00:00</time></trkpt><trkpt lat="38.9691578" lon="-0.49293327"><ele>135.0</ele><time>2022-11-13T14:23:51.0000000+00:00</time></trkpt><trkpt lat="38.96913802" lon="-0.4929316"><ele>134.8</ele><time>2022-11-13T14:23:52.0000000+00:00</time></trkpt><trkpt lat="38.96911933" lon="-0.49293336"><ele>134.8</ele><time>2022-11-13T14:23:53.0000000+00:00</time></trkpt><trkpt lat="38.96910374" lon="-0.49293947"><ele>134.8</ele><time>2022-11-13T14:23:54.0000000+00:00</time></trkpt><trkpt lat="38.96908681" lon="-0.49294274"><ele>134.6</ele><time>2022-11-13T14:23:55.0000000+00:00</time></trkpt><trkpt lat="38.96906971" lon="-0.49294283"><ele>134.6</ele><time>2022-11-13T14:23:56.0000000+00:00</time></trkpt><trkpt lat="38.96905446" lon="-0.49294543"><ele>134.6</ele><time>2022-11-13T14:23:57.0000000+00:00</time></trkpt><trkpt lat="38.96904716" lon="-0.49296026"><ele>134.6</ele><time>2022-11-13T14:23:58.0000000+00:00</time></trkpt><trkpt lat="38.96904088" lon="-0.49297862"><ele>134.6</ele><time>2022-11-13T14:23:59.0000000+00:00</time></trkpt><trkpt lat="38.96903627" lon="-0.49299572"><ele>134.6</ele><time>2022-11-13T14:24:00.0000000+00:00</time></trkpt><trkpt lat="38.96904239" lon="-0.49303997"><ele>134.6</ele><time>2022-11-13T14:24:01.0000000+00:00</time></trkpt><trkpt lat="38.96904113" lon="-0.49306311"><ele>134.6</ele><time>2022-11-13T14:24:02.0000000+00:00</time></trkpt><trkpt lat="38.96904264" lon="-0.4930813"><ele>134.6</ele><time>2022-11-13T14:24:03.0000000+00:00</time></trkpt><trkpt lat="38.96903685" lon="-0.49309412"><ele>134.6</ele><time>2022-11-13T14:24:04.0000000+00:00</time></trkpt><trkpt lat="38.96902847" lon="-0.49310535"><ele>134.6</ele><time>2022-11-13T14:24:05.0000000+00:00</time></trkpt><trkpt lat="38.96902302" lon="-0.49311432"><ele>134.6</ele><time>2022-11-13T14:24:06.0000000+00:00</time></trkpt><trkpt lat="38.96901959" lon="-0.49312622"><ele>134.6</ele><time>2022-11-13T14:24:07.0000000+00:00</time></trkpt><trkpt lat="38.96901791" lon="-0.49314139"><ele>134.6</ele><time>2022-11-13T14:24:08.0000000+00:00</time></trkpt><trkpt lat="38.96901514" lon="-0.49315967"><ele>134.6</ele><time>2022-11-13T14:24:09.0000000+00:00</time></trkpt><trkpt lat="38.96901523" lon="-0.49317911"><ele>134.6</ele><time>2022-11-13T14:24:10.0000000+00:00</time></trkpt><trkpt lat="38.96901623" lon="-0.49320007"><ele>134.6</ele><time>2022-11-13T14:24:11.0000000+00:00</time></trkpt><trkpt lat="38.96901791" lon="-0.49322186"><ele>134.4</ele><time>2022-11-13T14:24:12.0000000+00:00</time></trkpt><trkpt lat="38.96902093" lon="-0.49323971"><ele>134.4</ele><time>2022-11-13T14:24:13.0000000+00:00</time></trkpt><trkpt lat="38.96901825" lon="-0.49326746"><ele>134.4</ele><time>2022-11-13T14:24:14.0000000+00:00</time></trkpt><trkpt lat="38.96902227" lon="-0.49329311"><ele>134.4</ele><time>2022-11-13T14:24:15.0000000+00:00</time></trkpt><trkpt lat="38.96902897" lon="-0.49331934"><ele>134.4</ele><time>2022-11-13T14:24:16.0000000+00:00</time></trkpt><trkpt lat="38.96903275" lon="-0.49333703"><ele>134.4</ele><time>2022-11-13T14:24:17.0000000+00:00</time></trkpt><trkpt lat="38.96903342" lon="-0.49335069"><ele>134.4</ele><time>2022-11-13T14:24:18.0000000+00:00</time></trkpt><trkpt lat="38.96903241" lon="-0.4933636"><ele>134.4</ele><time>2022-11-13T14:24:19.0000000+00:00</time></trkpt><trkpt lat="38.9690268" lon="-0.49337743"><ele>134.4</ele><time>2022-11-13T14:24:20.0000000+00:00</time></trkpt><trkpt lat="38.96902068" lon="-0.49339185"><ele>134.6</ele><time>2022-11-13T14:24:21.0000000+00:00</time></trkpt><trkpt lat="38.96901473" lon="-0.49340626"><ele>134.6</ele><time>2022-11-13T14:24:22.0000000+00:00</time></trkpt><trkpt lat="38.96901062" lon="-0.49342328"><ele>134.6</ele><time>2022-11-13T14:24:23.0000000+00:00</time></trkpt><trkpt lat="38.96901045" lon="-0.49344004"><ele>134.6</ele><time>2022-11-13T14:24:24.0000000+00:00</time></trkpt><trkpt lat="38.96901179" lon="-0.4934594"><ele>134.6</ele><time>2022-11-13T14:24:25.0000000+00:00</time></trkpt><trkpt lat="38.96901573" lon="-0.49348556"><ele>134.6</ele><time>2022-11-13T14:24:26.0000000+00:00</time></trkpt><trkpt lat="38.96901783" lon="-0.49351011"><ele>134.6</ele><time>2022-11-13T14:24:27.0000000+00:00</time></trkpt><trkpt lat="38.9690216" lon="-0.49352889"><ele>134.8</ele><time>2022-11-13T14:24:28.0000000+00:00</time></trkpt><trkpt lat="38.96901766" lon="-0.4935392"><ele>134.8</ele><time>2022-11-13T14:24:29.0000000+00:00</time></trkpt><trkpt lat="38.96901079" lon="-0.49354817"><ele>134.8</ele><time>2022-11-13T14:24:30.0000000+00:00</time></trkpt><trkpt lat="38.96899377" lon="-0.49355529"><ele>134.8</ele><time>2022-11-13T14:24:31.0000000+00:00</time></trkpt><trkpt lat="38.96897776" lon="-0.49355831"><ele>134.8</ele><time>2022-11-13T14:24:32.0000000+00:00</time></trkpt><trkpt lat="38.96897005" lon="-0.49356183"><ele>134.6</ele><time>2022-11-13T14:24:33.0000000+00:00</time></trkpt><trkpt lat="38.96896619" lon="-0.49357273"><ele>134.6</ele><time>2022-11-13T14:24:34.0000000+00:00</time></trkpt><trkpt lat="38.9689672" lon="-0.4935931"><ele>134.6</ele><time>2022-11-13T14:24:35.0000000+00:00</time></trkpt><trkpt lat="38.96896963" lon="-0.4936112"><ele>134.8</ele><time>2022-11-13T14:24:36.0000000+00:00</time></trkpt><trkpt lat="38.96897541" lon="-0.49363073"><ele>134.6</ele><time>2022-11-13T14:24:37.0000000+00:00</time></trkpt><trkpt lat="38.96897784" lon="-0.49364573"><ele>134.6</ele><time>2022-11-13T14:24:38.0000000+00:00</time></trkpt><trkpt lat="38.96897826" lon="-0.49366434"><ele>134.8</ele><time>2022-11-13T14:24:39.0000000+00:00</time></trkpt><trkpt lat="38.96897852" lon="-0.49367784"><ele>134.8</ele><time>2022-11-13T14:24:40.0000000+00:00</time></trkpt><trkpt lat="38.96897743" lon="-0.49369485"><ele>134.8</ele><time>2022-11-13T14:24:41.0000000+00:00</time></trkpt><trkpt lat="38.96897751" lon="-0.49371271"><ele>134.8</ele><time>2022-11-13T14:24:42.0000000+00:00</time></trkpt><trkpt lat="38.96897692" lon="-0.49372712"><ele>134.8</ele><time>2022-11-13T14:24:43.0000000+00:00</time></trkpt><trkpt lat="38.96897307" lon="-0.49374062"><ele>134.8</ele><time>2022-11-13T14:24:44.0000000+00:00</time></trkpt><trkpt lat="38.9689651" lon="-0.49375319"><ele>135.0</ele><time>2022-11-13T14:24:45.0000000+00:00</time></trkpt><trkpt lat="38.96895731" lon="-0.49376518"><ele>135.0</ele><time>2022-11-13T14:24:46.0000000+00:00</time></trkpt><trkpt lat="38.96895161" lon="-0.49377884"><ele>134.8</ele><time>2022-11-13T14:24:47.0000000+00:00</time></trkpt><trkpt lat="38.96894599" lon="-0.4937858"><ele>134.8</ele><time>2022-11-13T14:24:48.0000000+00:00</time></trkpt><trkpt lat="38.96893459" lon="-0.49380692"><ele>134.8</ele><time>2022-11-13T14:24:49.0000000+00:00</time></trkpt><trkpt lat="38.96892646" lon="-0.49382351"><ele>134.8</ele><time>2022-11-13T14:24:50.0000000+00:00</time></trkpt><trkpt lat="38.96892127" lon="-0.49383869"><ele>134.8</ele><time>2022-11-13T14:24:51.0000000+00:00</time></trkpt><trkpt lat="38.96891624" lon="-0.49385855"><ele>134.6</ele><time>2022-11-13T14:24:52.0000000+00:00</time></trkpt><trkpt lat="38.96891146" lon="-0.49387833"><ele>134.6</ele><time>2022-11-13T14:24:53.0000000+00:00</time></trkpt><trkpt lat="38.96890425" lon="-0.49390214"><ele>134.6</ele><time>2022-11-13T14:24:54.0000000+00:00</time></trkpt><trkpt lat="38.96889361" lon="-0.49392552"><ele>134.6</ele><time>2022-11-13T14:24:55.0000000+00:00</time></trkpt><trkpt lat="38.96888615" lon="-0.4939536"><ele>134.4</ele><time>2022-11-13T14:24:56.0000000+00:00</time></trkpt><trkpt lat="38.96887684" lon="-0.49398101"><ele>134.4</ele><time>2022-11-13T14:24:57.0000000+00:00</time></trkpt><trkpt lat="38.96887349" lon="-0.49401202"><ele>134.6</ele><time>2022-11-13T14:24:58.0000000+00:00</time></trkpt><trkpt lat="38.96886955" lon="-0.49403968"><ele>134.6</ele><time>2022-11-13T14:24:59.0000000+00:00</time></trkpt><trkpt lat="38.9688688" lon="-0.49406701"><ele>134.4</ele><time>2022-11-13T14:25:00.0000000+00:00</time></trkpt><trkpt lat="38.96887014" lon="-0.49408763"><ele>134.4</ele><time>2022-11-13T14:25:01.0000000+00:00</time></trkpt><trkpt lat="38.96886712" lon="-0.49411026"><ele>134.4</ele><time>2022-11-13T14:25:02.0000000+00:00</time></trkpt><trkpt lat="38.96886217" lon="-0.4941313"><ele>134.4</ele><time>2022-11-13T14:25:03.0000000+00:00</time></trkpt><trkpt lat="38.9688636" lon="-0.4941484"><ele>134.4</ele><time>2022-11-13T14:25:04.0000000+00:00</time></trkpt><trkpt lat="38.96886259" lon="-0.4941613"><ele>134.4</ele><time>2022-11-13T14:25:05.0000000+00:00</time></trkpt><trkpt lat="38.96886293" lon="-0.49416985"><ele>134.4</ele><time>2022-11-13T14:25:06.0000000+00:00</time></trkpt><trkpt lat="38.96886318" lon="-0.49417572"><ele>134.4</ele><time>2022-11-13T14:25:07.0000000+00:00</time></trkpt><trkpt lat="38.96886276" lon="-0.49418327"><ele>134.6</ele><time>2022-11-13T14:25:08.0000000+00:00</time></trkpt><trkpt lat="38.96886184" lon="-0.49419332"><ele>134.6</ele><time>2022-11-13T14:25:09.0000000+00:00</time></trkpt><trkpt lat="38.96886117" lon="-0.49420154"><ele>134.6</ele><time>2022-11-13T14:25:10.0000000+00:00</time></trkpt><trkpt lat="38.96886025" lon="-0.49421378"><ele>134.6</ele><time>2022-11-13T14:25:11.0000000+00:00</time></trkpt><trkpt lat="38.96885857" lon="-0.49422517"><ele>134.6</ele><time>2022-11-13T14:25:12.0000000+00:00</time></trkpt><trkpt lat="38.96885941" lon="-0.4942359"><ele>134.6</ele><time>2022-11-13T14:25:13.0000000+00:00</time></trkpt><trkpt lat="38.96886016" lon="-0.49425141"><ele>134.6</ele><time>2022-11-13T14:25:14.0000000+00:00</time></trkpt><trkpt lat="38.96886234" lon="-0.49426574"><ele>134.6</ele><time>2022-11-13T14:25:15.0000000+00:00</time></trkpt><trkpt lat="38.96886377" lon="-0.49428075"><ele>134.6</ele><time>2022-11-13T14:25:16.0000000+00:00</time></trkpt><trkpt lat="38.96886444" lon="-0.49429667"><ele>134.6</ele><time>2022-11-13T14:25:17.0000000+00:00</time></trkpt><trkpt lat="38.96886461" lon="-0.49431369"><ele>134.6</ele><time>2022-11-13T14:25:18.0000000+00:00</time></trkpt><trkpt lat="38.96886729" lon="-0.49433439"><ele>134.6</ele><time>2022-11-13T14:25:19.0000000+00:00</time></trkpt><trkpt lat="38.96887014" lon="-0.49435493"><ele>134.6</ele><time>2022-11-13T14:25:20.0000000+00:00</time></trkpt><trkpt lat="38.96886813" lon="-0.49437848"><ele>134.6</ele><time>2022-11-13T14:25:21.0000000+00:00</time></trkpt><trkpt lat="38.96886871" lon="-0.49440078"><ele>134.6</ele><time>2022-11-13T14:25:22.0000000+00:00</time></trkpt><trkpt lat="38.96886762" lon="-0.49442181"><ele>134.6</ele><time>2022-11-13T14:25:23.0000000+00:00</time></trkpt><trkpt lat="38.96886905" lon="-0.49443808"><ele>134.6</ele><time>2022-11-13T14:25:24.0000000+00:00</time></trkpt><trkpt lat="38.96887324" lon="-0.49445056"><ele>134.6</ele><time>2022-11-13T14:25:25.0000000+00:00</time></trkpt><trkpt lat="38.96887885" lon="-0.49446104"><ele>134.6</ele><time>2022-11-13T14:25:26.0000000+00:00</time></trkpt><trkpt lat="38.96888237" lon="-0.49446942"><ele>134.6</ele><time>2022-11-13T14:25:27.0000000+00:00</time></trkpt><trkpt lat="38.96888573" lon="-0.49448577"><ele>134.8</ele><time>2022-11-13T14:25:28.0000000+00:00</time></trkpt><trkpt lat="38.9688952" lon="-0.49449842"><ele>134.8</ele><time>2022-11-13T14:25:29.0000000+00:00</time></trkpt><trkpt lat="38.96890023" lon="-0.49450815"><ele>134.8</ele><time>2022-11-13T14:25:30.0000000+00:00</time></trkpt><trkpt lat="38.96890719" lon="-0.49452458"><ele>134.8</ele><time>2022-11-13T14:25:31.0000000+00:00</time></trkpt><trkpt lat="38.96891054" lon="-0.49453639"><ele>135.0</ele><time>2022-11-13T14:25:32.0000000+00:00</time></trkpt><trkpt lat="38.96891414" lon="-0.49454603"><ele>135.0</ele><time>2022-11-13T14:25:33.0000000+00:00</time></trkpt><trkpt lat="38.96891096" lon="-0.49456716"><ele>135.0</ele><time>2022-11-13T14:25:34.0000000+00:00</time></trkpt><trkpt lat="38.96891448" lon="-0.49459498"><ele>134.8</ele><time>2022-11-13T14:25:35.0000000+00:00</time></trkpt><trkpt lat="38.96891255" lon="-0.4946213"><ele>134.6</ele><time>2022-11-13T14:25:36.0000000+00:00</time></trkpt><trkpt lat="38.9689102" lon="-0.49464645"><ele>134.6</ele><time>2022-11-13T14:25:37.0000000+00:00</time></trkpt><trkpt lat="38.96890543" lon="-0.49466816"><ele>134.6</ele><time>2022-11-13T14:25:38.0000000+00:00</time></trkpt><trkpt lat="38.96890559" lon="-0.49469062"><ele>134.6</ele><time>2022-11-13T14:25:39.0000000+00:00</time></trkpt><trkpt lat="38.96890467" lon="-0.49470923"><ele>134.6</ele><time>2022-11-13T14:25:40.0000000+00:00</time></trkpt><trkpt lat="38.96890651" lon="-0.4947177"><ele>134.6</ele><time>2022-11-13T14:25:41.0000000+00:00</time></trkpt><trkpt lat="38.96889947" lon="-0.49472842"><ele>134.6</ele><time>2022-11-13T14:25:42.0000000+00:00</time></trkpt><trkpt lat="38.96889956" lon="-0.49474485"><ele>134.6</ele><time>2022-11-13T14:25:43.0000000+00:00</time></trkpt><trkpt lat="38.96889713" lon="-0.49476547"><ele>134.6</ele><time>2022-11-13T14:25:44.0000000+00:00</time></trkpt><trkpt lat="38.96889746" lon="-0.49478567"><ele>134.6</ele><time>2022-11-13T14:25:45.0000000+00:00</time></trkpt><trkpt lat="38.96889637" lon="-0.49480051"><ele>134.6</ele><time>2022-11-13T14:25:46.0000000+00:00</time></trkpt><trkpt lat="38.96890157" lon="-0.49482205"><ele>134.8</ele><time>2022-11-13T14:25:47.0000000+00:00</time></trkpt><trkpt lat="38.96890936" lon="-0.49483663"><ele>134.8</ele><time>2022-11-13T14:25:48.0000000+00:00</time></trkpt><trkpt lat="38.96890685" lon="-0.49484996"><ele>134.8</ele><time>2022-11-13T14:25:49.0000000+00:00</time></trkpt><trkpt lat="38.96890366" lon="-0.49486949"><ele>134.8</ele><time>2022-11-13T14:25:50.0000000+00:00</time></trkpt><trkpt lat="38.96890274" lon="-0.49488265"><ele>134.8</ele><time>2022-11-13T14:25:51.0000000+00:00</time></trkpt><trkpt lat="38.96890383" lon="-0.49490126"><ele>134.8</ele><time>2022-11-13T14:25:52.0000000+00:00</time></trkpt><trkpt lat="38.96890249" lon="-0.49491643"><ele>134.8</ele><time>2022-11-13T14:25:53.0000000+00:00</time></trkpt><trkpt lat="38.96890082" lon="-0.49493169"><ele>134.8</ele><time>2022-11-13T14:25:54.0000000+00:00</time></trkpt><trkpt lat="38.96889822" lon="-0.49494233"><ele>134.8</ele><time>2022-11-13T14:25:55.0000000+00:00</time></trkpt><trkpt lat="38.96889914" lon="-0.49495172"><ele>134.8</ele><time>2022-11-13T14:25:56.0000000+00:00</time></trkpt><trkpt lat="38.96890174" lon="-0.49496194"><ele>135.0</ele><time>2022-11-13T14:25:57.0000000+00:00</time></trkpt><trkpt lat="38.96890467" lon="-0.49497594"><ele>135.0</ele><time>2022-11-13T14:25:58.0000000+00:00</time></trkpt><trkpt lat="38.96890442" lon="-0.49498877"><ele>135.0</ele><time>2022-11-13T14:25:59.0000000+00:00</time></trkpt><trkpt lat="38.96890651" lon="-0.49500352"><ele>135.0</ele><time>2022-11-13T14:26:00.0000000+00:00</time></trkpt><trkpt lat="38.96890928" lon="-0.49502078"><ele>135.0</ele><time>2022-11-13T14:26:01.0000000+00:00</time></trkpt><trkpt lat="38.96890869" lon="-0.49502984"><ele>135.2</ele><time>2022-11-13T14:26:02.0000000+00:00</time></trkpt><trkpt lat="38.96890551" lon="-0.4950435"><ele>135.2</ele><time>2022-11-13T14:26:03.0000000+00:00</time></trkpt><trkpt lat="38.96890165" lon="-0.49505398"><ele>135.2</ele><time>2022-11-13T14:26:04.0000000+00:00</time></trkpt><trkpt lat="38.96889855" lon="-0.49506672"><ele>135.2</ele><time>2022-11-13T14:26:05.0000000+00:00</time></trkpt><trkpt lat="38.96889537" lon="-0.49508113"><ele>135.2</ele><time>2022-11-13T14:26:06.0000000+00:00</time></trkpt><trkpt lat="38.96889235" lon="-0.49510016"><ele>135.2</ele><time>2022-11-13T14:26:07.0000000+00:00</time></trkpt><trkpt lat="38.96888992" lon="-0.49511659"><ele>135.2</ele><time>2022-11-13T14:26:08.0000000+00:00</time></trkpt><trkpt lat="38.96888573" lon="-0.49513143"><ele>135.2</ele><time>2022-11-13T14:26:09.0000000+00:00</time></trkpt><trkpt lat="38.96888229" lon="-0.49514492"><ele>135.4</ele><time>2022-11-13T14:26:10.0000000+00:00</time></trkpt><trkpt lat="38.9688802" lon="-0.49516428"><ele>135.4</ele><time>2022-11-13T14:26:11.0000000+00:00</time></trkpt><trkpt lat="38.96887793" lon="-0.49518297"><ele>135.4</ele><time>2022-11-13T14:26:12.0000000+00:00</time></trkpt><trkpt lat="38.96887634" lon="-0.49518817"><ele>135.4</ele><time>2022-11-13T14:26:13.0000000+00:00</time></trkpt><trkpt lat="38.96887483" lon="-0.49520619"><ele>135.4</ele><time>2022-11-13T14:26:14.0000000+00:00</time></trkpt><trkpt lat="38.96887274" lon="-0.4952217"><ele>135.4</ele><time>2022-11-13T14:26:15.0000000+00:00</time></trkpt><trkpt lat="38.96887072" lon="-0.49523335"><ele>135.4</ele><time>2022-11-13T14:26:16.0000000+00:00</time></trkpt><trkpt lat="38.96886762" lon="-0.49524919"><ele>135.6</ele><time>2022-11-13T14:26:17.0000000+00:00</time></trkpt><trkpt lat="38.96886419" lon="-0.49526327"><ele>135.6</ele><time>2022-11-13T14:26:18.0000000+00:00</time></trkpt><trkpt lat="38.96885748" lon="-0.49527467"><ele>135.6</ele><time>2022-11-13T14:26:19.0000000+00:00</time></trkpt><trkpt lat="38.96884985" lon="-0.49528431"><ele>135.8</ele><time>2022-11-13T14:26:20.0000000+00:00</time></trkpt><trkpt lat="38.96883862" lon="-0.49529211"><ele>136.0</ele><time>2022-11-13T14:26:21.0000000+00:00</time></trkpt><trkpt lat="38.96882806" lon="-0.49529999"><ele>136.0</ele><time>2022-11-13T14:26:22.0000000+00:00</time></trkpt><trkpt lat="38.96881792" lon="-0.49531046"><ele>136.0</ele><time>2022-11-13T14:26:23.0000000+00:00</time></trkpt><trkpt lat="38.96880727" lon="-0.49532278"><ele>136.0</ele><time>2022-11-13T14:26:24.0000000+00:00</time></trkpt><trkpt lat="38.9688009" lon="-0.49532966"><ele>136.0</ele><time>2022-11-13T14:26:25.0000000+00:00</time></trkpt><trkpt lat="38.96879336" lon="-0.49533729"><ele>136.0</ele><time>2022-11-13T14:26:26.0000000+00:00</time></trkpt><trkpt lat="38.96878498" lon="-0.49534231"><ele>136.0</ele><time>2022-11-13T14:26:27.0000000+00:00</time></trkpt><trkpt lat="38.96877643" lon="-0.49534634"><ele>136.0</ele><time>2022-11-13T14:26:28.0000000+00:00</time></trkpt><trkpt lat="38.96876486" lon="-0.49534827"><ele>136.0</ele><time>2022-11-13T14:26:29.0000000+00:00</time></trkpt><trkpt lat="38.9687507" lon="-0.49535212"><ele>136.0</ele><time>2022-11-13T14:26:30.0000000+00:00</time></trkpt><trkpt lat="38.96873946" lon="-0.49535916"><ele>135.8</ele><time>2022-11-13T14:26:31.0000000+00:00</time></trkpt><trkpt lat="38.96872656" lon="-0.49536721"><ele>135.6</ele><time>2022-11-13T14:26:32.0000000+00:00</time></trkpt><trkpt lat="38.96871507" lon="-0.49537526"><ele>135.6</ele><time>2022-11-13T14:26:33.0000000+00:00</time></trkpt><trkpt lat="38.96870359" lon="-0.49538313"><ele>135.4</ele><time>2022-11-13T14:26:34.0000000+00:00</time></trkpt><trkpt lat="38.96869211" lon="-0.49538942"><ele>135.4</ele><time>2022-11-13T14:26:35.0000000+00:00</time></trkpt><trkpt lat="38.96868163" lon="-0.4953952"><ele>135.4</ele><time>2022-11-13T14:26:36.0000000+00:00</time></trkpt><trkpt lat="38.96867434" lon="-0.49539965"><ele>135.2</ele><time>2022-11-13T14:26:37.0000000+00:00</time></trkpt><trkpt lat="38.96866377" lon="-0.49540208"><ele>135.2</ele><time>2022-11-13T14:26:38.0000000+00:00</time></trkpt><trkpt lat="38.96865129" lon="-0.49541021"><ele>135.2</ele><time>2022-11-13T14:26:39.0000000+00:00</time></trkpt><trkpt lat="38.96864425" lon="-0.49541976"><ele>135.0</ele><time>2022-11-13T14:26:40.0000000+00:00</time></trkpt><trkpt lat="38.9686341" lon="-0.49542605"><ele>135.0</ele><time>2022-11-13T14:26:41.0000000+00:00</time></trkpt><trkpt lat="38.96862078" lon="-0.49543443"><ele>135.0</ele><time>2022-11-13T14:26:42.0000000+00:00</time></trkpt><trkpt lat="38.96861047" lon="-0.49544424"><ele>135.0</ele><time>2022-11-13T14:26:43.0000000+00:00</time></trkpt><trkpt lat="38.96859999" lon="-0.49545379"><ele>135.0</ele><time>2022-11-13T14:26:44.0000000+00:00</time></trkpt><trkpt lat="38.96859043" lon="-0.49546352"><ele>135.0</ele><time>2022-11-13T14:26:45.0000000+00:00</time></trkpt><trkpt lat="38.96858071" lon="-0.49547257"><ele>135.0</ele><time>2022-11-13T14:26:46.0000000+00:00</time></trkpt><trkpt lat="38.96857183" lon="-0.49548045"><ele>135.0</ele><time>2022-11-13T14:26:47.0000000+00:00</time></trkpt><trkpt lat="38.96856193" lon="-0.49548774"><ele>135.0</ele><time>2022-11-13T14:26:48.0000000+00:00</time></trkpt><trkpt lat="38.96855146" lon="-0.49549587"><ele>135.0</ele><time>2022-11-13T14:26:49.0000000+00:00</time></trkpt><trkpt lat="38.96854299" lon="-0.49550191"><ele>135.0</ele><time>2022-11-13T14:26:50.0000000+00:00</time></trkpt><trkpt lat="38.96853369" lon="-0.49550727"><ele>134.8</ele><time>2022-11-13T14:26:51.0000000+00:00</time></trkpt><trkpt lat="38.96852405" lon="-0.49550895"><ele>134.8</ele><time>2022-11-13T14:26:52.0000000+00:00</time></trkpt><trkpt lat="38.96851173" lon="-0.49550719"><ele>134.8</ele><time>2022-11-13T14:26:53.0000000+00:00</time></trkpt><trkpt lat="38.968502" lon="-0.49550786"><ele>134.6</ele><time>2022-11-13T14:26:54.0000000+00:00</time></trkpt><trkpt lat="38.96848893" lon="-0.4955128"><ele>134.6</ele><time>2022-11-13T14:26:55.0000000+00:00</time></trkpt><trkpt lat="38.96848071" lon="-0.49552294"><ele>134.4</ele><time>2022-11-13T14:26:56.0000000+00:00</time></trkpt><trkpt lat="38.96847736" lon="-0.49553141"><ele>134.4</ele><time>2022-11-13T14:26:57.0000000+00:00</time></trkpt><trkpt lat="38.96847284" lon="-0.49554071"><ele>134.4</ele><time>2022-11-13T14:26:58.0000000+00:00</time></trkpt><trkpt lat="38.96846747" lon="-0.49554859"><ele>134.2</ele><time>2022-11-13T14:26:59.0000000+00:00</time></trkpt><trkpt lat="38.96846294" lon="-0.49555714"><ele>134.2</ele><time>2022-11-13T14:27:00.0000000+00:00</time></trkpt><trkpt lat="38.96845582" lon="-0.49556075"><ele>134.2</ele><time>2022-11-13T14:27:01.0000000+00:00</time></trkpt><trkpt lat="38.96844593" lon="-0.49556628"><ele>134.4</ele><time>2022-11-13T14:27:02.0000000+00:00</time></trkpt><trkpt lat="38.96843604" lon="-0.49557215"><ele>134.6</ele><time>2022-11-13T14:27:03.0000000+00:00</time></trkpt><trkpt lat="38.96842523" lon="-0.49557969"><ele>134.6</ele><time>2022-11-13T14:27:04.0000000+00:00</time></trkpt><trkpt lat="38.96841735" lon="-0.49558489"><ele>134.8</ele><time>2022-11-13T14:27:05.0000000+00:00</time></trkpt><trkpt lat="38.9684067" lon="-0.49559134"><ele>134.8</ele><time>2022-11-13T14:27:06.0000000+00:00</time></trkpt><trkpt lat="38.96839782" lon="-0.49559805"><ele>134.8</ele><time>2022-11-13T14:27:07.0000000+00:00</time></trkpt><trkpt lat="38.96838742" lon="-0.49560593"><ele>134.8</ele><time>2022-11-13T14:27:08.0000000+00:00</time></trkpt><trkpt lat="38.9683782" lon="-0.49561439"><ele>135.0</ele><time>2022-11-13T14:27:09.0000000+00:00</time></trkpt><trkpt lat="38.96837049" lon="-0.49562378"><ele>135.0</ele><time>2022-11-13T14:27:10.0000000+00:00</time></trkpt><trkpt lat="38.96835968" lon="-0.49563233"><ele>135.0</ele><time>2022-11-13T14:27:11.0000000+00:00</time></trkpt><trkpt lat="38.96834736" lon="-0.49563711"><ele>135.2</ele><time>2022-11-13T14:27:12.0000000+00:00</time></trkpt><trkpt lat="38.96833856" lon="-0.49564289"><ele>135.2</ele><time>2022-11-13T14:27:13.0000000+00:00</time></trkpt><trkpt lat="38.96833059" lon="-0.49564691"><ele>135.2</ele><time>2022-11-13T14:27:14.0000000+00:00</time></trkpt><trkpt lat="38.96832137" lon="-0.49565236"><ele>135.2</ele><time>2022-11-13T14:27:15.0000000+00:00</time></trkpt><trkpt lat="38.96831215" lon="-0.49565714"><ele>135.2</ele><time>2022-11-13T14:27:16.0000000+00:00</time></trkpt><trkpt lat="38.9683021" lon="-0.49566183"><ele>135.2</ele><time>2022-11-13T14:27:17.0000000+00:00</time></trkpt><trkpt lat="38.96829321" lon="-0.49566787"><ele>135.2</ele><time>2022-11-13T14:27:18.0000000+00:00</time></trkpt><trkpt lat="38.96828768" lon="-0.49567172"><ele>135.2</ele><time>2022-11-13T14:27:19.0000000+00:00</time></trkpt><trkpt lat="38.96828198" lon="-0.49567558"><ele>135.2</ele><time>2022-11-13T14:27:20.0000000+00:00</time></trkpt><trkpt lat="38.96827946" lon="-0.49567759"><ele>135.2</ele><time>2022-11-13T14:27:21.0000000+00:00</time></trkpt><trkpt lat="38.96827779" lon="-0.4956791"><ele>135.2</ele><time>2022-11-13T14:27:22.0000000+00:00</time></trkpt><trkpt lat="38.96827754" lon="-0.49567969"><ele>135.2</ele><time>2022-11-13T14:27:23.0000000+00:00</time></trkpt><trkpt lat="38.9682777" lon="-0.49567969"><ele>135.2</ele><time>2022-11-13T14:27:24.0000000+00:00</time></trkpt><trkpt lat="38.9682777" lon="-0.49568011"><ele>135.2</ele><time>2022-11-13T14:27:25.0000000+00:00</time></trkpt><trkpt lat="38.96827762" lon="-0.49568036"><ele>135.2</ele><time>2022-11-13T14:27:26.0000000+00:00</time></trkpt><trkpt lat="38.96827796" lon="-0.49568002"><ele>135.2</ele><time>2022-11-13T14:27:27.0000000+00:00</time></trkpt><trkpt lat="38.96827938" lon="-0.49568011"><ele>135.2</ele><time>2022-11-13T14:27:28.0000000+00:00</time></trkpt><trkpt lat="38.9682798" lon="-0.49568061"><ele>135.4</ele><time>2022-11-13T14:27:29.0000000+00:00</time></trkpt><trkpt lat="38.96827921" lon="-0.49568136"><ele>135.4</ele><time>2022-11-13T14:27:30.0000000+00:00</time></trkpt><trkpt lat="38.96827863" lon="-0.49568212"><ele>135.4</ele><time>2022-11-13T14:27:31.0000000+00:00</time></trkpt><trkpt lat="38.96827863" lon="-0.49568212"><ele>135.4</ele><time>2022-11-13T14:27:32.0000000+00:00</time></trkpt><trkpt lat="38.96827863" lon="-0.49568212"><ele>135.4</ele><time>2022-11-13T14:27:33.0000000+00:00</time></trkpt><trkpt lat="38.96827863" lon="-0.49568212"><ele>135.4</ele><time>2022-11-13T14:27:34.0000000+00:00</time></trkpt><trkpt lat="38.96827863" lon="-0.49568212"><ele>135.4</ele><time>2022-11-13T14:27:35.0000000+00:00</time></trkpt><trkpt lat="38.96827863" lon="-0.49568212"><ele>135.4</ele><time>2022-11-13T14:27:36.0000000+00:00</time></trkpt><trkpt lat="38.96827863" lon="-0.49568212"><ele>135.4</ele><time>2022-11-13T14:27:37.0000000+00:00</time></trkpt><trkpt lat="38.96827863" lon="-0.49568212"><ele>135.4</ele><time>2022-11-13T14:27:38.0000000+00:00</time></trkpt><trkpt lat="38.96827863" lon="-0.49568212"><ele>135.4</ele><time>2022-11-13T14:27:39.0000000+00:00</time></trkpt><trkpt lat="38.96827863" lon="-0.49568212"><ele>135.4</ele><time>2022-11-13T14:27:40.0000000+00:00</time></trkpt><trkpt lat="38.96827863" lon="-0.49568212"><ele>135.4</ele><time>2022-11-13T14:27:41.0000000+00:00</time></trkpt><trkpt lat="38.96827863" lon="-0.49568212"><ele>135.4</ele><time>2022-11-13T14:27:42.0000000+00:00</time></trkpt><trkpt lat="38.96827863" lon="-0.49568212"><ele>135.4</ele><time>2022-11-13T14:27:43.0000000+00:00</time></trkpt><trkpt lat="38.96827879" lon="-0.49568212"><ele>135.4</ele><time>2022-11-13T14:27:44.0000000+00:00</time></trkpt><trkpt lat="38.96827913" lon="-0.49568212"><ele>135.4</ele><time>2022-11-13T14:27:45.0000000+00:00</time></trkpt><trkpt lat="38.96827921" lon="-0.49568212"><ele>135.4</ele><time>2022-11-13T14:27:46.0000000+00:00</time></trkpt><trkpt lat="38.96827938" lon="-0.49568195"><ele>135.4</ele><time>2022-11-13T14:27:47.0000000+00:00</time></trkpt><trkpt lat="38.9682798" lon="-0.49568161"><ele>135.4</ele><time>2022-11-13T14:27:48.0000000+00:00</time></trkpt><trkpt lat="38.96828148" lon="-0.49568136"><ele>135.4</ele><time>2022-11-13T14:27:49.0000000+00:00</time></trkpt><trkpt lat="38.9682819" lon="-0.49568094"><ele>135.4</ele><time>2022-11-13T14:27:50.0000000+00:00</time></trkpt><trkpt lat="38.96828215" lon="-0.49568061"><ele>135.4</ele><time>2022-11-13T14:27:51.0000000+00:00</time></trkpt><trkpt lat="38.96828265" lon="-0.49568052"><ele>135.4</ele><time>2022-11-13T14:27:52.0000000+00:00</time></trkpt><trkpt lat="38.96828299" lon="-0.49568052"><ele>135.4</ele><time>2022-11-13T14:27:53.0000000+00:00</time></trkpt><trkpt lat="38.96828299" lon="-0.49568052"><ele>135.4</ele><time>2022-11-13T14:27:54.0000000+00:00</time></trkpt><trkpt lat="38.96828299" lon="-0.49568052"><ele>135.4</ele><time>2022-11-13T14:27:55.0000000+00:00</time></trkpt><trkpt lat="38.96828299" lon="-0.49568052"><ele>135.4</ele><time>2022-11-13T14:27:56.0000000+00:00</time></trkpt><trkpt lat="38.96828299" lon="-0.49568052"><ele>135.4</ele><time>2022-11-13T14:27:57.0000000+00:00</time></trkpt><trkpt lat="38.96827905" lon="-0.49567818"><ele>135.4</ele><time>2022-11-13T14:27:58.0000000+00:00</time></trkpt><trkpt lat="38.96826714" lon="-0.49567114"><ele>135.4</ele><time>2022-11-13T14:27:59.0000000+00:00</time></trkpt><trkpt lat="38.96825499" lon="-0.49566586"><ele>135.4</ele><time>2022-11-13T14:28:00.0000000+00:00</time></trkpt><trkpt lat="38.96824351" lon="-0.49566091"><ele>135.4</ele><time>2022-11-13T14:28:01.0000000+00:00</time></trkpt><trkpt lat="38.96822884" lon="-0.49565597"><ele>135.4</ele><time>2022-11-13T14:28:02.0000000+00:00</time></trkpt><trkpt lat="38.9682114" lon="-0.49565035"><ele>135.4</ele><time>2022-11-13T14:28:03.0000000+00:00</time></trkpt><trkpt lat="38.96819984" lon="-0.49564306"><ele>135.4</ele><time>2022-11-13T14:28:04.0000000+00:00</time></trkpt><trkpt lat="38.96818609" lon="-0.49563551"><ele>135.4</ele><time>2022-11-13T14:28:05.0000000+00:00</time></trkpt><trkpt lat="38.96817134" lon="-0.49562629"><ele>135.4</ele><time>2022-11-13T14:28:06.0000000+00:00</time></trkpt><trkpt lat="38.9681586" lon="-0.49561523"><ele>135.4</ele><time>2022-11-13T14:28:07.0000000+00:00</time></trkpt><trkpt lat="38.96815172" lon="-0.49560869"><ele>135.4</ele><time>2022-11-13T14:28:08.0000000+00:00</time></trkpt><trkpt lat="38.96815189" lon="-0.49560777"><ele>135.4</ele><time>2022-11-13T14:28:09.0000000+00:00</time></trkpt><trkpt lat="38.96815273" lon="-0.49560743"><ele>135.2</ele><time>2022-11-13T14:28:10.0000000+00:00</time></trkpt><trkpt lat="38.9681534" lon="-0.49560551"><ele>135.2</ele><time>2022-11-13T14:28:11.0000000+00:00</time></trkpt><trkpt lat="38.96815466" lon="-0.49560626"><ele>135.0</ele><time>2022-11-13T14:28:12.0000000+00:00</time></trkpt><trkpt lat="38.96815516" lon="-0.49560718"><ele>135.0</ele><time>2022-11-13T14:28:13.0000000+00:00</time></trkpt><trkpt lat="38.96815524" lon="-0.49560844"><ele>135.0</ele><time>2022-11-13T14:28:14.0000000+00:00</time></trkpt><trkpt lat="38.96815533" lon="-0.49561012"><ele>135.0</ele><time>2022-11-13T14:28:15.0000000+00:00</time></trkpt><trkpt lat="38.96815608" lon="-0.4956133"><ele>135.0</ele><time>2022-11-13T14:28:16.0000000+00:00</time></trkpt><trkpt lat="38.96815617" lon="-0.49561414"><ele>135.2</ele><time>2022-11-13T14:28:17.0000000+00:00</time></trkpt><trkpt lat="38.96815642" lon="-0.49561506"><ele>135.2</ele><time>2022-11-13T14:28:18.0000000+00:00</time></trkpt><trkpt lat="38.96814996" lon="-0.49561003"><ele>135.2</ele><time>2022-11-13T14:28:19.0000000+00:00</time></trkpt><trkpt lat="38.96814921" lon="-0.49561003"><ele>135.2</ele><time>2022-11-13T14:28:20.0000000+00:00</time></trkpt><trkpt lat="38.96814519" lon="-0.49560919"><ele>135.2</ele><time>2022-11-13T14:28:21.0000000+00:00</time></trkpt><trkpt lat="38.96814485" lon="-0.49561188"><ele>135.2</ele><time>2022-11-13T14:28:22.0000000+00:00</time></trkpt><trkpt lat="38.96814586" lon="-0.49561288"><ele>135.2</ele><time>2022-11-13T14:28:23.0000000+00:00</time></trkpt><trkpt lat="38.96814477" lon="-0.49561179"><ele>135.2</ele><time>2022-11-13T14:28:24.0000000+00:00</time></trkpt><trkpt lat="38.96814485" lon="-0.49561313"><ele>135.2</ele><time>2022-11-13T14:28:25.0000000+00:00</time></trkpt><trkpt lat="38.9681389" lon="-0.49560517"><ele>135.2</ele><time>2022-11-13T14:28:26.0000000+00:00</time></trkpt><trkpt lat="38.96813421" lon="-0.49559654"><ele>135.2</ele><time>2022-11-13T14:28:27.0000000+00:00</time></trkpt><trkpt lat="38.96812314" lon="-0.49559444"><ele>135.2</ele><time>2022-11-13T14:28:28.0000000+00:00</time></trkpt><trkpt lat="38.96811023" lon="-0.49558966"><ele>135.2</ele><time>2022-11-13T14:28:29.0000000+00:00</time></trkpt><trkpt lat="38.96810009" lon="-0.49558187"><ele>135.2</ele><time>2022-11-13T14:28:30.0000000+00:00</time></trkpt><trkpt lat="38.96809246" lon="-0.49557617"><ele>135.2</ele><time>2022-11-13T14:28:31.0000000+00:00</time></trkpt><trkpt lat="38.96808668" lon="-0.49556712"><ele>135.2</ele><time>2022-11-13T14:28:32.0000000+00:00</time></trkpt><trkpt lat="38.96807972" lon="-0.4955563"><ele>135.2</ele><time>2022-11-13T14:28:33.0000000+00:00</time></trkpt><trkpt lat="38.96807218" lon="-0.49554868"><ele>135.0</ele><time>2022-11-13T14:28:34.0000000+00:00</time></trkpt><trkpt lat="38.9680607" lon="-0.49553636"><ele>135.0</ele><time>2022-11-13T14:28:35.0000000+00:00</time></trkpt><trkpt lat="38.96805022" lon="-0.49552982"><ele>135.0</ele><time>2022-11-13T14:28:36.0000000+00:00</time></trkpt><trkpt lat="38.96803773" lon="-0.49552303"><ele>135.0</ele><time>2022-11-13T14:28:37.0000000+00:00</time></trkpt><trkpt lat="38.96802742" lon="-0.49551272"><ele>135.0</ele><time>2022-11-13T14:28:38.0000000+00:00</time></trkpt><trkpt lat="38.96801418" lon="-0.49550065"><ele>135.0</ele><time>2022-11-13T14:28:39.0000000+00:00</time></trkpt><trkpt lat="38.96799984" lon="-0.49548984"><ele>135.0</ele><time>2022-11-13T14:28:40.0000000+00:00</time></trkpt><trkpt lat="38.96798157" lon="-0.49547852"><ele>135.0</ele><time>2022-11-13T14:28:41.0000000+00:00</time></trkpt><trkpt lat="38.96796037" lon="-0.49547215"><ele>135.0</ele><time>2022-11-13T14:28:42.0000000+00:00</time></trkpt><trkpt lat="38.96794855" lon="-0.49545857"><ele>135.0</ele><time>2022-11-13T14:28:43.0000000+00:00</time></trkpt><trkpt lat="38.96793924" lon="-0.49544734"><ele>135.0</ele><time>2022-11-13T14:28:44.0000000+00:00</time></trkpt><trkpt lat="38.96793078" lon="-0.49544265"><ele>135.0</ele><time>2022-11-13T14:28:45.0000000+00:00</time></trkpt><trkpt lat="38.9679229" lon="-0.49544131"><ele>135.0</ele><time>2022-11-13T14:28:46.0000000+00:00</time></trkpt><trkpt lat="38.96791007" lon="-0.4954377"><ele>135.0</ele><time>2022-11-13T14:28:47.0000000+00:00</time></trkpt><trkpt lat="38.96789784" lon="-0.49543058"><ele>135.0</ele><time>2022-11-13T14:28:48.0000000+00:00</time></trkpt><trkpt lat="38.96787604" lon="-0.49542102"><ele>135.0</ele><time>2022-11-13T14:28:49.0000000+00:00</time></trkpt><trkpt lat="38.96785802" lon="-0.49540795"><ele>135.0</ele><time>2022-11-13T14:28:50.0000000+00:00</time></trkpt><trkpt lat="38.96784604" lon="-0.49539269"><ele>135.0</ele><time>2022-11-13T14:28:51.0000000+00:00</time></trkpt><trkpt lat="38.96782978" lon="-0.49538431"><ele>135.0</ele><time>2022-11-13T14:28:52.0000000+00:00</time></trkpt><trkpt lat="38.96781888" lon="-0.49538213"><ele>135.0</ele><time>2022-11-13T14:28:53.0000000+00:00</time></trkpt><trkpt lat="38.96780555" lon="-0.49537433"><ele>135.2</ele><time>2022-11-13T14:28:54.0000000+00:00</time></trkpt><trkpt lat="38.96779415" lon="-0.49536863"><ele>135.2</ele><time>2022-11-13T14:28:55.0000000+00:00</time></trkpt><trkpt lat="38.96778611" lon="-0.49536394"><ele>135.2</ele><time>2022-11-13T14:28:56.0000000+00:00</time></trkpt><trkpt lat="38.96777881" lon="-0.49535866"><ele>135.2</ele><time>2022-11-13T14:28:57.0000000+00:00</time></trkpt><trkpt lat="38.96777035" lon="-0.49534835"><ele>135.2</ele><time>2022-11-13T14:28:58.0000000+00:00</time></trkpt><trkpt lat="38.96776255" lon="-0.49533687"><ele>135.2</ele><time>2022-11-13T14:28:59.0000000+00:00</time></trkpt><trkpt lat="38.96775643" lon="-0.49532999"><ele>135.0</ele><time>2022-11-13T14:29:00.0000000+00:00</time></trkpt><trkpt lat="38.9677473" lon="-0.49532161"><ele>135.0</ele><time>2022-11-13T14:29:01.0000000+00:00</time></trkpt><trkpt lat="38.96773632" lon="-0.49531759"><ele>135.0</ele><time>2022-11-13T14:29:02.0000000+00:00</time></trkpt><trkpt lat="38.9677281" lon="-0.49531633"><ele>135.0</ele><time>2022-11-13T14:29:03.0000000+00:00</time></trkpt><trkpt lat="38.96772324" lon="-0.49531331"><ele>135.0</ele><time>2022-11-13T14:29:04.0000000+00:00</time></trkpt><trkpt lat="38.96772106" lon="-0.49530728"><ele>135.0</ele><time>2022-11-13T14:29:05.0000000+00:00</time></trkpt><trkpt lat="38.96771905" lon="-0.49530443"><ele>135.0</ele><time>2022-11-13T14:29:06.0000000+00:00</time></trkpt><trkpt lat="38.9677183" lon="-0.49530527"><ele>134.8</ele><time>2022-11-13T14:29:07.0000000+00:00</time></trkpt><trkpt lat="38.96771763" lon="-0.49530502"><ele>134.8</ele><time>2022-11-13T14:29:08.0000000+00:00</time></trkpt><trkpt lat="38.96771712" lon="-0.49530476"><ele>134.8</ele><time>2022-11-13T14:29:09.0000000+00:00</time></trkpt><trkpt lat="38.96771662" lon="-0.49530485"><ele>134.8</ele><time>2022-11-13T14:29:10.0000000+00:00</time></trkpt><trkpt lat="38.96771528" lon="-0.49530644"><ele>134.6</ele><time>2022-11-13T14:29:11.0000000+00:00</time></trkpt><trkpt lat="38.96771687" lon="-0.49530627"><ele>134.6</ele><time>2022-11-13T14:29:12.0000000+00:00</time></trkpt><trkpt lat="38.9677167" lon="-0.49530602"><ele>134.6</ele><time>2022-11-13T14:29:13.0000000+00:00</time></trkpt><trkpt lat="38.9677188" lon="-0.49530552"><ele>134.6</ele><time>2022-11-13T14:29:14.0000000+00:00</time></trkpt><trkpt lat="38.9677162" lon="-0.49530225"><ele>134.6</ele><time>2022-11-13T14:29:15.0000000+00:00</time></trkpt><trkpt lat="38.9677167" lon="-0.49529772"><ele>134.6</ele><time>2022-11-13T14:29:16.0000000+00:00</time></trkpt><trkpt lat="38.96771628" lon="-0.49529387"><ele>134.6</ele><time>2022-11-13T14:29:17.0000000+00:00</time></trkpt><trkpt lat="38.96771385" lon="-0.49528557"><ele>134.6</ele><time>2022-11-13T14:29:18.0000000+00:00</time></trkpt><trkpt lat="38.96771394" lon="-0.49528062"><ele>134.4</ele><time>2022-11-13T14:29:19.0000000+00:00</time></trkpt><trkpt lat="38.96771913" lon="-0.49527727"><ele>134.4</ele><time>2022-11-13T14:29:20.0000000+00:00</time></trkpt><trkpt lat="38.96772089" lon="-0.49527224"><ele>134.4</ele><time>2022-11-13T14:29:21.0000000+00:00</time></trkpt><trkpt lat="38.96771997" lon="-0.49526931"><ele>134.2</ele><time>2022-11-13T14:29:22.0000000+00:00</time></trkpt><trkpt lat="38.96771771" lon="-0.49526637"><ele>134.2</ele><time>2022-11-13T14:29:23.0000000+00:00</time></trkpt><trkpt lat="38.96771528" lon="-0.49526218"><ele>134.2</ele><time>2022-11-13T14:29:24.0000000+00:00</time></trkpt><trkpt lat="38.96771461" lon="-0.4952569"><ele>134.2</ele><time>2022-11-13T14:29:25.0000000+00:00</time></trkpt><trkpt lat="38.96771637" lon="-0.49524844"><ele>134.0</ele><time>2022-11-13T14:29:26.0000000+00:00</time></trkpt><trkpt lat="38.9677183" lon="-0.49524073"><ele>133.8</ele><time>2022-11-13T14:29:27.0000000+00:00</time></trkpt><trkpt lat="38.96771888" lon="-0.49523477"><ele>133.6</ele><time>2022-11-13T14:29:28.0000000+00:00</time></trkpt><trkpt lat="38.96772131" lon="-0.49523209"><ele>133.4</ele><time>2022-11-13T14:29:29.0000000+00:00</time></trkpt><trkpt lat="38.96772517" lon="-0.49522773"><ele>133.2</ele><time>2022-11-13T14:29:30.0000000+00:00</time></trkpt><trkpt lat="38.96772525" lon="-0.49522438"><ele>133.0</ele><time>2022-11-13T14:29:31.0000000+00:00</time></trkpt><trkpt lat="38.96772341" lon="-0.49522178"><ele>133.0</ele><time>2022-11-13T14:29:32.0000000+00:00</time></trkpt><trkpt lat="38.96771553" lon="-0.49521441"><ele>132.8</ele><time>2022-11-13T14:29:33.0000000+00:00</time></trkpt><trkpt lat="38.96771243" lon="-0.49521064"><ele>132.8</ele><time>2022-11-13T14:29:34.0000000+00:00</time></trkpt><trkpt lat="38.96771235" lon="-0.49521172"><ele>132.6</ele><time>2022-11-13T14:29:35.0000000+00:00</time></trkpt><trkpt lat="38.96771754" lon="-0.49521315"><ele>132.4</ele><time>2022-11-13T14:29:36.0000000+00:00</time></trkpt><trkpt lat="38.96772089" lon="-0.49521122"><ele>132.2</ele><time>2022-11-13T14:29:37.0000000+00:00</time></trkpt><trkpt lat="38.9677198" lon="-0.4952051"><ele>132.0</ele><time>2022-11-13T14:29:38.0000000+00:00</time></trkpt><trkpt lat="38.96771411" lon="-0.49519278"><ele>132.0</ele><time>2022-11-13T14:29:39.0000000+00:00</time></trkpt><trkpt lat="38.967711" lon="-0.49518256"><ele>131.8</ele><time>2022-11-13T14:29:40.0000000+00:00</time></trkpt><trkpt lat="38.96771017" lon="-0.49518029"><ele>131.6</ele><time>2022-11-13T14:29:41.0000000+00:00</time></trkpt><trkpt lat="38.96771285" lon="-0.49518071"><ele>131.4</ele><time>2022-11-13T14:29:42.0000000+00:00</time></trkpt><trkpt lat="38.9677167" lon="-0.49517786"><ele>131.4</ele><time>2022-11-13T14:29:43.0000000+00:00</time></trkpt><trkpt lat="38.96771796" lon="-0.49517543"><ele>131.2</ele><time>2022-11-13T14:29:44.0000000+00:00</time></trkpt><trkpt lat="38.96771846" lon="-0.49517124"><ele>131.2</ele><time>2022-11-13T14:29:45.0000000+00:00</time></trkpt><trkpt lat="38.96771855" lon="-0.4951647"><ele>130.8</ele><time>2022-11-13T14:29:46.0000000+00:00</time></trkpt><trkpt lat="38.96772215" lon="-0.49516018"><ele>130.6</ele><time>2022-11-13T14:29:47.0000000+00:00</time></trkpt><trkpt lat="38.96772408" lon="-0.49515758"><ele>130.4</ele><time>2022-11-13T14:29:48.0000000+00:00</time></trkpt><trkpt lat="38.96771813" lon="-0.49515481"><ele>130.2</ele><time>2022-11-13T14:29:49.0000000+00:00</time></trkpt><trkpt lat="38.96771084" lon="-0.49514987"><ele>130.0</ele><time>2022-11-13T14:29:50.0000000+00:00</time></trkpt><trkpt lat="38.96770489" lon="-0.49514215"><ele>129.8</ele><time>2022-11-13T14:29:51.0000000+00:00</time></trkpt><trkpt lat="38.96770338" lon="-0.49513838"><ele>129.8</ele><time>2022-11-13T14:29:52.0000000+00:00</time></trkpt><trkpt lat="38.96770237" lon="-0.49513654"><ele>129.6</ele><time>2022-11-13T14:29:53.0000000+00:00</time></trkpt><trkpt lat="38.96769675" lon="-0.49513293"><ele>129.4</ele><time>2022-11-13T14:29:54.0000000+00:00</time></trkpt><trkpt lat="38.96769248" lon="-0.49513134"><ele>129.4</ele><time>2022-11-13T14:29:55.0000000+00:00</time></trkpt><trkpt lat="38.96768879" lon="-0.49513243"><ele>129.0</ele><time>2022-11-13T14:29:56.0000000+00:00</time></trkpt><trkpt lat="38.96768611" lon="-0.4951305"><ele>129.0</ele><time>2022-11-13T14:29:57.0000000+00:00</time></trkpt><trkpt lat="38.96768468" lon="-0.49512933"><ele>128.6</ele><time>2022-11-13T14:29:58.0000000+00:00</time></trkpt><trkpt lat="38.96769122" lon="-0.4951274"><ele>128.6</ele><time>2022-11-13T14:29:59.0000000+00:00</time></trkpt><trkpt lat="38.9676991" lon="-0.49513"><ele>128.4</ele><time>2022-11-13T14:30:00.0000000+00:00</time></trkpt><trkpt lat="38.96770421" lon="-0.49513185"><ele>128.2</ele><time>2022-11-13T14:30:01.0000000+00:00</time></trkpt><trkpt lat="38.96770698" lon="-0.49513168"><ele>128.0</ele><time>2022-11-13T14:30:02.0000000+00:00</time></trkpt><trkpt lat="38.96771033" lon="-0.49513352"><ele>127.8</ele><time>2022-11-13T14:30:03.0000000+00:00</time></trkpt><trkpt lat="38.96771268" lon="-0.4951321"><ele>127.8</ele><time>2022-11-13T14:30:04.0000000+00:00</time></trkpt><trkpt lat="38.96771402" lon="-0.49512304"><ele>127.6</ele><time>2022-11-13T14:30:05.0000000+00:00</time></trkpt><trkpt lat="38.96772165" lon="-0.49511056"><ele>127.6</ele><time>2022-11-13T14:30:06.0000000+00:00</time></trkpt><trkpt lat="38.96772643" lon="-0.49510695"><ele>127.4</ele><time>2022-11-13T14:30:07.0000000+00:00</time></trkpt><trkpt lat="38.96772928" lon="-0.49510561"><ele>127.2</ele><time>2022-11-13T14:30:08.0000000+00:00</time></trkpt><trkpt lat="38.96772534" lon="-0.49509907"><ele>127.2</ele><time>2022-11-13T14:30:09.0000000+00:00</time></trkpt><trkpt lat="38.96772525" lon="-0.4950974"><ele>127.2</ele><time>2022-11-13T14:30:10.0000000+00:00</time></trkpt><trkpt lat="38.96772651" lon="-0.49509513"><ele>127.2</ele><time>2022-11-13T14:30:11.0000000+00:00</time></trkpt><trkpt lat="38.96772576" lon="-0.49509337"><ele>127.2</ele><time>2022-11-13T14:30:12.0000000+00:00</time></trkpt><trkpt lat="38.9677255" lon="-0.49509228"><ele>127.2</ele><time>2022-11-13T14:30:13.0000000+00:00</time></trkpt><trkpt lat="38.96772291" lon="-0.49509195"><ele>127.2</ele><time>2022-11-13T14:30:14.0000000+00:00</time></trkpt><trkpt lat="38.9677162" lon="-0.4950839"><ele>127.0</ele><time>2022-11-13T14:30:15.0000000+00:00</time></trkpt><trkpt lat="38.96771369" lon="-0.4950772"><ele>127.0</ele><time>2022-11-13T14:30:16.0000000+00:00</time></trkpt><trkpt lat="38.96771519" lon="-0.49507091"><ele>127.0</ele><time>2022-11-13T14:30:17.0000000+00:00</time></trkpt><trkpt lat="38.96771603" lon="-0.49506269"><ele>127.0</ele><time>2022-11-13T14:30:18.0000000+00:00</time></trkpt><trkpt lat="38.96772165" lon="-0.49505188"><ele>126.8</ele><time>2022-11-13T14:30:19.0000000+00:00</time></trkpt><trkpt lat="38.96773171" lon="-0.49504073"><ele>126.8</ele><time>2022-11-13T14:30:20.0000000+00:00</time></trkpt><trkpt lat="38.96773766" lon="-0.49502447"><ele>126.6</ele><time>2022-11-13T14:30:21.0000000+00:00</time></trkpt><trkpt lat="38.96774378" lon="-0.49500913"><ele>126.6</ele><time>2022-11-13T14:30:22.0000000+00:00</time></trkpt><trkpt lat="38.96775048" lon="-0.49499765"><ele>126.2</ele><time>2022-11-13T14:30:23.0000000+00:00</time></trkpt><trkpt lat="38.96775291" lon="-0.49498349"><ele>126.2</ele><time>2022-11-13T14:30:24.0000000+00:00</time></trkpt><trkpt lat="38.96775384" lon="-0.49497259"><ele>126.0</ele><time>2022-11-13T14:30:25.0000000+00:00</time></trkpt><trkpt lat="38.9677514" lon="-0.49496588"><ele>125.8</ele><time>2022-11-13T14:30:26.0000000+00:00</time></trkpt><trkpt lat="38.96774638" lon="-0.4949596"><ele>125.8</ele><time>2022-11-13T14:30:27.0000000+00:00</time></trkpt><trkpt lat="38.9677447" lon="-0.49495557"><ele>125.6</ele><time>2022-11-13T14:30:28.0000000+00:00</time></trkpt><trkpt lat="38.96774202" lon="-0.4949492"><ele>125.6</ele><time>2022-11-13T14:30:29.0000000+00:00</time></trkpt><trkpt lat="38.96774185" lon="-0.49494384"><ele>125.4</ele><time>2022-11-13T14:30:30.0000000+00:00</time></trkpt><trkpt lat="38.96774671" lon="-0.49494082"><ele>125.2</ele><time>2022-11-13T14:30:31.0000000+00:00</time></trkpt><trkpt lat="38.96774981" lon="-0.49493688"><ele>125.0</ele><time>2022-11-13T14:30:32.0000000+00:00</time></trkpt><trkpt lat="38.96775132" lon="-0.49493445"><ele>124.8</ele><time>2022-11-13T14:30:33.0000000+00:00</time></trkpt><trkpt lat="38.96774545" lon="-0.49492213"><ele>124.8</ele><time>2022-11-13T14:30:34.0000000+00:00</time></trkpt><trkpt lat="38.96774478" lon="-0.49491962"><ele>124.8</ele><time>2022-11-13T14:30:35.0000000+00:00</time></trkpt><trkpt lat="38.96774462" lon="-0.49491861"><ele>124.8</ele><time>2022-11-13T14:30:36.0000000+00:00</time></trkpt><trkpt lat="38.96774436" lon="-0.49491786"><ele>124.8</ele><time>2022-11-13T14:30:37.0000000+00:00</time></trkpt><trkpt lat="38.96774436" lon="-0.49491718"><ele>124.8</ele><time>2022-11-13T14:30:38.0000000+00:00</time></trkpt><trkpt lat="38.96774436" lon="-0.49491559"><ele>124.8</ele><time>2022-11-13T14:30:39.0000000+00:00</time></trkpt><trkpt lat="38.9677442" lon="-0.49491568"><ele>124.8</ele><time>2022-11-13T14:30:40.0000000+00:00</time></trkpt><trkpt lat="38.96774403" lon="-0.49491635"><ele>124.8</ele><time>2022-11-13T14:30:41.0000000+00:00</time></trkpt><trkpt lat="38.96774403" lon="-0.49491635"><ele>124.8</ele><time>2022-11-13T14:30:42.0000000+00:00</time></trkpt><trkpt lat="38.96774403" lon="-0.49491635"><ele>124.8</ele><time>2022-11-13T14:30:43.0000000+00:00</time></trkpt><trkpt lat="38.96774403" lon="-0.49491635"><ele>124.8</ele><time>2022-11-13T14:30:44.0000000+00:00</time></trkpt><trkpt lat="38.96774403" lon="-0.49491635"><ele>124.8</ele><time>2022-11-13T14:30:45.0000000+00:00</time></trkpt><trkpt lat="38.96774403" lon="-0.49491635"><ele>124.8</ele><time>2022-11-13T14:30:46.0000000+00:00</time></trkpt><trkpt lat="38.96774403" lon="-0.49491635"><ele>124.8</ele><time>2022-11-13T14:30:47.0000000+00:00</time></trkpt><trkpt lat="38.96774403" lon="-0.49491635"><ele>124.8</ele><time>2022-11-13T14:30:48.0000000+00:00</time></trkpt><trkpt lat="38.96774403" lon="-0.49491635"><ele>124.8</ele><time>2022-11-13T14:30:49.0000000+00:00</time></trkpt><trkpt lat="38.96774403" lon="-0.49491635"><ele>124.8</ele><time>2022-11-13T14:30:50.0000000+00:00</time></trkpt><trkpt lat="38.96774403" lon="-0.49491635"><ele>124.8</ele><time>2022-11-13T14:30:51.0000000+00:00</time></trkpt><trkpt lat="38.96774403" lon="-0.49491635"><ele>124.8</ele><time>2022-11-13T14:30:52.0000000+00:00</time></trkpt><trkpt lat="38.96774403" lon="-0.49491635"><ele>124.8</ele><time>2022-11-13T14:30:53.0000000+00:00</time></trkpt><trkpt lat="38.96774403" lon="-0.49491635"><ele>124.8</ele><time>2022-11-13T14:30:54.0000000+00:00</time></trkpt><trkpt lat="38.96774403" lon="-0.49491635"><ele>124.8</ele><time>2022-11-13T14:30:55.0000000+00:00</time></trkpt><trkpt lat="38.96774403" lon="-0.49491635"><ele>124.8</ele><time>2022-11-13T14:30:56.0000000+00:00</time></trkpt><trkpt lat="38.96774403" lon="-0.49491635"><ele>124.6</ele><time>2022-11-13T14:30:57.0000000+00:00</time></trkpt><trkpt lat="38.96774403" lon="-0.49491668"><ele>124.6</ele><time>2022-11-13T14:30:58.0000000+00:00</time></trkpt><trkpt lat="38.96774369" lon="-0.49491677"><ele>124.8</ele><time>2022-11-13T14:30:59.0000000+00:00</time></trkpt><trkpt lat="38.96774177" lon="-0.4949171"><ele>124.8</ele><time>2022-11-13T14:31:00.0000000+00:00</time></trkpt><trkpt lat="38.96773808" lon="-0.4949176"><ele>124.8</ele><time>2022-11-13T14:31:01.0000000+00:00</time></trkpt><trkpt lat="38.9677328" lon="-0.49491786"><ele>124.8</ele><time>2022-11-13T14:31:02.0000000+00:00</time></trkpt><trkpt lat="38.96772718" lon="-0.49491786"><ele>124.8</ele><time>2022-11-13T14:31:03.0000000+00:00</time></trkpt><trkpt lat="38.96772659" lon="-0.49491769"><ele>124.8</ele><time>2022-11-13T14:31:04.0000000+00:00</time></trkpt><trkpt lat="38.9677271" lon="-0.49491584"><ele>124.8</ele><time>2022-11-13T14:31:05.0000000+00:00</time></trkpt><trkpt lat="38.9677359" lon="-0.4949057"><ele>124.8</ele><time>2022-11-13T14:31:06.0000000+00:00</time></trkpt><trkpt lat="38.96774545" lon="-0.49489833"><ele>124.6</ele><time>2022-11-13T14:31:07.0000000+00:00</time></trkpt><trkpt lat="38.96775182" lon="-0.49489363"><ele>124.6</ele><time>2022-11-13T14:31:08.0000000+00:00</time></trkpt><trkpt lat="38.96775333" lon="-0.49488726"><ele>124.6</ele><time>2022-11-13T14:31:09.0000000+00:00</time></trkpt><trkpt lat="38.96775635" lon="-0.49488315"><ele>124.6</ele><time>2022-11-13T14:31:10.0000000+00:00</time></trkpt><trkpt lat="38.96776163" lon="-0.4948793"><ele>124.4</ele><time>2022-11-13T14:31:11.0000000+00:00</time></trkpt><trkpt lat="38.96776959" lon="-0.49487871"><ele>124.4</ele><time>2022-11-13T14:31:12.0000000+00:00</time></trkpt><trkpt lat="38.96777622" lon="-0.49488332"><ele>124.6</ele><time>2022-11-13T14:31:13.0000000+00:00</time></trkpt><trkpt lat="38.96777764" lon="-0.494885"><ele>124.8</ele><time>2022-11-13T14:31:14.0000000+00:00</time></trkpt><trkpt lat="38.96777596" lon="-0.4948948"><ele>125.0</ele><time>2022-11-13T14:31:15.0000000+00:00</time></trkpt><trkpt lat="38.96777328" lon="-0.49491006"><ele>125.2</ele><time>2022-11-13T14:31:16.0000000+00:00</time></trkpt><trkpt lat="38.96777102" lon="-0.4949176"><ele>125.4</ele><time>2022-11-13T14:31:17.0000000+00:00</time></trkpt><trkpt lat="38.96777429" lon="-0.49492045"><ele>125.6</ele><time>2022-11-13T14:31:18.0000000+00:00</time></trkpt><trkpt lat="38.96778401" lon="-0.4949223"><ele>125.8</ele><time>2022-11-13T14:31:19.0000000+00:00</time></trkpt><trkpt lat="38.9677965" lon="-0.49492297"><ele>125.8</ele><time>2022-11-13T14:31:20.0000000+00:00</time></trkpt><trkpt lat="38.96781058" lon="-0.49491668"><ele>125.8</ele><time>2022-11-13T14:31:21.0000000+00:00</time></trkpt><trkpt lat="38.96782265" lon="-0.49490905"><ele>125.8</ele><time>2022-11-13T14:31:22.0000000+00:00</time></trkpt><trkpt lat="38.96782726" lon="-0.49489908"><ele>126.0</ele><time>2022-11-13T14:31:23.0000000+00:00</time></trkpt><trkpt lat="38.96783313" lon="-0.4948881"><ele>126.0</ele><time>2022-11-13T14:31:24.0000000+00:00</time></trkpt><trkpt lat="38.9678395" lon="-0.49488139"><ele>126.0</ele><time>2022-11-13T14:31:25.0000000+00:00</time></trkpt><trkpt lat="38.96784763" lon="-0.49487636"><ele>126.0</ele><time>2022-11-13T14:31:26.0000000+00:00</time></trkpt><trkpt lat="38.96785626" lon="-0.49487854"><ele>126.0</ele><time>2022-11-13T14:31:27.0000000+00:00</time></trkpt><trkpt lat="38.96786716" lon="-0.49488173"><ele>126.0</ele><time>2022-11-13T14:31:28.0000000+00:00</time></trkpt><trkpt lat="38.96787982" lon="-0.49487955"><ele>126.0</ele><time>2022-11-13T14:31:29.0000000+00:00</time></trkpt><trkpt lat="38.9678908" lon="-0.49487528"><ele>126.0</ele><time>2022-11-13T14:31:30.0000000+00:00</time></trkpt><trkpt lat="38.96790119" lon="-0.49486823"><ele>126.0</ele><time>2022-11-13T14:31:31.0000000+00:00</time></trkpt><trkpt lat="38.96790748" lon="-0.49485927"><ele>126.0</ele><time>2022-11-13T14:31:32.0000000+00:00</time></trkpt><trkpt lat="38.96791468" lon="-0.49485222"><ele>126.0</ele><time>2022-11-13T14:31:33.0000000+00:00</time></trkpt><trkpt lat="38.96792147" lon="-0.49484996"><ele>126.0</ele><time>2022-11-13T14:31:34.0000000+00:00</time></trkpt><trkpt lat="38.96792801" lon="-0.4948503"><ele>126.2</ele><time>2022-11-13T14:31:35.0000000+00:00</time></trkpt><trkpt lat="38.96794201" lon="-0.49485105"><ele>126.2</ele><time>2022-11-13T14:31:36.0000000+00:00</time></trkpt><trkpt lat="38.9679602" lon="-0.4948503"><ele>126.2</ele><time>2022-11-13T14:31:37.0000000+00:00</time></trkpt><trkpt lat="38.96797394" lon="-0.49484753"><ele>126.2</ele><time>2022-11-13T14:31:38.0000000+00:00</time></trkpt><trkpt lat="38.96798534" lon="-0.49484158"><ele>126.2</ele><time>2022-11-13T14:31:39.0000000+00:00</time></trkpt><trkpt lat="38.96799859" lon="-0.49483957"><ele>126.2</ele><time>2022-11-13T14:31:40.0000000+00:00</time></trkpt><trkpt lat="38.96800504" lon="-0.49483881"><ele>126.4</ele><time>2022-11-13T14:31:41.0000000+00:00</time></trkpt><trkpt lat="38.96801099" lon="-0.4948358"><ele>126.4</ele><time>2022-11-13T14:31:42.0000000+00:00</time></trkpt><trkpt lat="38.96801929" lon="-0.49483345"><ele>126.4</ele><time>2022-11-13T14:31:43.0000000+00:00</time></trkpt><trkpt lat="38.96802357" lon="-0.49483404"><ele>126.4</ele><time>2022-11-13T14:31:44.0000000+00:00</time></trkpt><trkpt lat="38.9680275" lon="-0.49483596"><ele>126.4</ele><time>2022-11-13T14:31:45.0000000+00:00</time></trkpt><trkpt lat="38.96802977" lon="-0.49483739"><ele>126.4</ele><time>2022-11-13T14:31:46.0000000+00:00</time></trkpt><trkpt lat="38.96803513" lon="-0.49484225"><ele>126.4</ele><time>2022-11-13T14:31:47.0000000+00:00</time></trkpt><trkpt lat="38.96803924" lon="-0.49484694"><ele>126.4</ele><time>2022-11-13T14:31:48.0000000+00:00</time></trkpt><trkpt lat="38.96804301" lon="-0.49486128"><ele>126.2</ele><time>2022-11-13T14:31:49.0000000+00:00</time></trkpt><trkpt lat="38.96804318" lon="-0.49486346"><ele>126.0</ele><time>2022-11-13T14:31:50.0000000+00:00</time></trkpt><trkpt lat="38.96804259" lon="-0.49486606"><ele>126.0</ele><time>2022-11-13T14:31:51.0000000+00:00</time></trkpt><trkpt lat="38.96804133" lon="-0.49486949"><ele>126.0</ele><time>2022-11-13T14:31:52.0000000+00:00</time></trkpt><trkpt lat="38.96804092" lon="-0.49487117"><ele>126.0</ele><time>2022-11-13T14:31:53.0000000+00:00</time></trkpt><trkpt lat="38.96803857" lon="-0.49487167"><ele>126.0</ele><time>2022-11-13T14:31:54.0000000+00:00</time></trkpt><trkpt lat="38.96803681" lon="-0.49487259"><ele>126.0</ele><time>2022-11-13T14:31:55.0000000+00:00</time></trkpt><trkpt lat="38.96803564" lon="-0.49487117"><ele>126.2</ele><time>2022-11-13T14:31:56.0000000+00:00</time></trkpt><trkpt lat="38.96803547" lon="-0.49487033"><ele>126.2</ele><time>2022-11-13T14:31:57.0000000+00:00</time></trkpt><trkpt lat="38.96803538" lon="-0.49486924"><ele>126.2</ele><time>2022-11-13T14:31:58.0000000+00:00</time></trkpt><trkpt lat="38.96803237" lon="-0.49486538"><ele>126.2</ele><time>2022-11-13T14:31:59.0000000+00:00</time></trkpt><trkpt lat="38.96803086" lon="-0.49486203"><ele>126.2</ele><time>2022-11-13T14:32:00.0000000+00:00</time></trkpt><trkpt lat="38.96803052" lon="-0.49485977"><ele>126.2</ele><time>2022-11-13T14:32:01.0000000+00:00</time></trkpt><trkpt lat="38.96803153" lon="-0.49485943"><ele>126.2</ele><time>2022-11-13T14:32:02.0000000+00:00</time></trkpt><trkpt lat="38.96803161" lon="-0.49485977"><ele>126.2</ele><time>2022-11-13T14:32:03.0000000+00:00</time></trkpt><trkpt lat="38.96803161" lon="-0.49485977"><ele>126.2</ele><time>2022-11-13T14:32:04.0000000+00:00</time></trkpt><trkpt lat="38.96803161" lon="-0.49485977"><ele>126.2</ele><time>2022-11-13T14:32:05.0000000+00:00</time></trkpt><trkpt lat="38.96803161" lon="-0.49485977"><ele>126.2</ele><time>2022-11-13T14:32:06.0000000+00:00</time></trkpt><trkpt lat="38.96803161" lon="-0.49485977"><ele>126.0</ele><time>2022-11-13T14:32:07.0000000+00:00</time></trkpt><trkpt lat="38.96803161" lon="-0.49485977"><ele>126.0</ele><time>2022-11-13T14:32:08.0000000+00:00</time></trkpt><trkpt lat="38.96803161" lon="-0.49485977"><ele>126.0</ele><time>2022-11-13T14:32:09.0000000+00:00</time></trkpt><trkpt lat="38.96803161" lon="-0.49485977"><ele>126.0</ele><time>2022-11-13T14:32:10.0000000+00:00</time></trkpt><trkpt lat="38.96803161" lon="-0.49485977"><ele>126.0</ele><time>2022-11-13T14:32:11.0000000+00:00</time></trkpt><trkpt lat="38.96803161" lon="-0.49485977"><ele>126.0</ele><time>2022-11-13T14:32:12.0000000+00:00</time></trkpt><trkpt lat="38.96803161" lon="-0.49485977"><ele>126.0</ele><time>2022-11-13T14:32:13.0000000+00:00</time></trkpt><trkpt lat="38.96803228" lon="-0.49485977"><ele>126.0</ele><time>2022-11-13T14:32:14.0000000+00:00</time></trkpt><trkpt lat="38.96803396" lon="-0.49485977"><ele>126.2</ele><time>2022-11-13T14:32:15.0000000+00:00</time></trkpt><trkpt lat="38.96803505" lon="-0.49485977"><ele>126.0</ele><time>2022-11-13T14:32:16.0000000+00:00</time></trkpt><trkpt lat="38.9680353" lon="-0.49485977"><ele>126.0</ele><time>2022-11-13T14:32:17.0000000+00:00</time></trkpt><trkpt lat="38.96803547" lon="-0.49485977"><ele>125.8</ele><time>2022-11-13T14:32:18.0000000+00:00</time></trkpt><trkpt lat="38.96803547" lon="-0.49485977"><ele>125.8</ele><time>2022-11-13T14:32:19.0000000+00:00</time></trkpt><trkpt lat="38.96803564" lon="-0.49485977"><ele>125.8</ele><time>2022-11-13T14:32:20.0000000+00:00</time></trkpt><trkpt lat="38.96803656" lon="-0.49485977"><ele>125.8</ele><time>2022-11-13T14:32:21.0000000+00:00</time></trkpt><trkpt lat="38.96803681" lon="-0.49485977"><ele>125.8</ele><time>2022-11-13T14:32:22.0000000+00:00</time></trkpt><trkpt lat="38.96803748" lon="-0.49485994"><ele>125.8</ele><time>2022-11-13T14:32:23.0000000+00:00</time></trkpt><trkpt lat="38.96803865" lon="-0.49486069"><ele>125.8</ele><time>2022-11-13T14:32:24.0000000+00:00</time></trkpt><trkpt lat="38.96803957" lon="-0.49486077"><ele>125.8</ele><time>2022-11-13T14:32:25.0000000+00:00</time></trkpt><trkpt lat="38.96803983" lon="-0.49486077"><ele>125.8</ele><time>2022-11-13T14:32:26.0000000+00:00</time></trkpt><trkpt lat="38.96804025" lon="-0.49486077"><ele>125.8</ele><time>2022-11-13T14:32:27.0000000+00:00</time></trkpt><trkpt lat="38.968041" lon="-0.49486077"><ele>125.8</ele><time>2022-11-13T14:32:28.0000000+00:00</time></trkpt><trkpt lat="38.96804226" lon="-0.49486077"><ele>125.8</ele><time>2022-11-13T14:32:29.0000000+00:00</time></trkpt><trkpt lat="38.96804259" lon="-0.49486077"><ele>125.8</ele><time>2022-11-13T14:32:30.0000000+00:00</time></trkpt><trkpt lat="38.96804284" lon="-0.49486203"><ele>125.8</ele><time>2022-11-13T14:32:31.0000000+00:00</time></trkpt><trkpt lat="38.96804812" lon="-0.49486413"><ele>125.8</ele><time>2022-11-13T14:32:32.0000000+00:00</time></trkpt><trkpt lat="38.96804972" lon="-0.49486438"><ele>125.8</ele><time>2022-11-13T14:32:33.0000000+00:00</time></trkpt><trkpt lat="38.96805055" lon="-0.49486438"><ele>125.8</ele><time>2022-11-13T14:32:34.0000000+00:00</time></trkpt><trkpt lat="38.96805123" lon="-0.49486446"><ele>125.8</ele><time>2022-11-13T14:32:35.0000000+00:00</time></trkpt><trkpt lat="38.96805232" lon="-0.49486446"><ele>125.8</ele><time>2022-11-13T14:32:36.0000000+00:00</time></trkpt><trkpt lat="38.96805349" lon="-0.49486446"><ele>125.8</ele><time>2022-11-13T14:32:37.0000000+00:00</time></trkpt><trkpt lat="38.96805533" lon="-0.49486446"><ele>125.8</ele><time>2022-11-13T14:32:38.0000000+00:00</time></trkpt><trkpt lat="38.96805667" lon="-0.49486446"><ele>125.8</ele><time>2022-11-13T14:32:39.0000000+00:00</time></trkpt><trkpt lat="38.96805768" lon="-0.49486446"><ele>125.8</ele><time>2022-11-13T14:32:40.0000000+00:00</time></trkpt><trkpt lat="38.96805835" lon="-0.49486446"><ele>125.8</ele><time>2022-11-13T14:32:41.0000000+00:00</time></trkpt><trkpt lat="38.9680586" lon="-0.49486446"><ele>125.8</ele><time>2022-11-13T14:32:42.0000000+00:00</time></trkpt><trkpt lat="38.96805894" lon="-0.49486513"><ele>125.8</ele><time>2022-11-13T14:32:43.0000000+00:00</time></trkpt><trkpt lat="38.9680591" lon="-0.4948653"><ele>125.8</ele><time>2022-11-13T14:32:44.0000000+00:00</time></trkpt><trkpt lat="38.96805919" lon="-0.4948653"><ele>125.8</ele><time>2022-11-13T14:32:45.0000000+00:00</time></trkpt><trkpt lat="38.96806003" lon="-0.4948653"><ele>125.8</ele><time>2022-11-13T14:32:46.0000000+00:00</time></trkpt><trkpt lat="38.96806028" lon="-0.4948653"><ele>125.8</ele><time>2022-11-13T14:32:47.0000000+00:00</time></trkpt><trkpt lat="38.96806095" lon="-0.49486488"><ele>125.8</ele><time>2022-11-13T14:32:48.0000000+00:00</time></trkpt><trkpt lat="38.96806137" lon="-0.49486471"><ele>125.8</ele><time>2022-11-13T14:32:49.0000000+00:00</time></trkpt><trkpt lat="38.9680617" lon="-0.49486455"><ele>125.8</ele><time>2022-11-13T14:32:50.0000000+00:00</time></trkpt><trkpt lat="38.96806212" lon="-0.49486429"><ele>125.8</ele><time>2022-11-13T14:32:51.0000000+00:00</time></trkpt><trkpt lat="38.96806296" lon="-0.49486362"><ele>125.8</ele><time>2022-11-13T14:32:52.0000000+00:00</time></trkpt><trkpt lat="38.96806338" lon="-0.4948622"><ele>125.8</ele><time>2022-11-13T14:32:53.0000000+00:00</time></trkpt><trkpt lat="38.96806631" lon="-0.4948617"><ele>125.8</ele><time>2022-11-13T14:32:54.0000000+00:00</time></trkpt><trkpt lat="38.96806715" lon="-0.49486144"><ele>125.8</ele><time>2022-11-13T14:32:55.0000000+00:00</time></trkpt><trkpt lat="38.96806774" lon="-0.49486019"><ele>125.8</ele><time>2022-11-13T14:32:56.0000000+00:00</time></trkpt><trkpt lat="38.96806782" lon="-0.49485918"><ele>125.8</ele><time>2022-11-13T14:32:57.0000000+00:00</time></trkpt><trkpt lat="38.96806791" lon="-0.49485843"><ele>125.8</ele><time>2022-11-13T14:32:58.0000000+00:00</time></trkpt><trkpt lat="38.96806799" lon="-0.49485818"><ele>125.8</ele><time>2022-11-13T14:32:59.0000000+00:00</time></trkpt><trkpt lat="38.96806866" lon="-0.49485818"><ele>125.8</ele><time>2022-11-13T14:33:00.0000000+00:00</time></trkpt><trkpt lat="38.968069" lon="-0.49485809"><ele>125.8</ele><time>2022-11-13T14:33:01.0000000+00:00</time></trkpt><trkpt lat="38.96806916" lon="-0.49485809"><ele>125.8</ele><time>2022-11-13T14:33:02.0000000+00:00</time></trkpt><trkpt lat="38.96806933" lon="-0.49485809"><ele>125.8</ele><time>2022-11-13T14:33:03.0000000+00:00</time></trkpt><trkpt lat="38.96806941" lon="-0.49485885"><ele>125.8</ele><time>2022-11-13T14:33:04.0000000+00:00</time></trkpt><trkpt lat="38.96806958" lon="-0.49485943"><ele>125.8</ele><time>2022-11-13T14:33:05.0000000+00:00</time></trkpt><trkpt lat="38.96807" lon="-0.49485985"><ele>125.8</ele><time>2022-11-13T14:33:06.0000000+00:00</time></trkpt><trkpt lat="38.96807042" lon="-0.49486019"><ele>125.8</ele><time>2022-11-13T14:33:07.0000000+00:00</time></trkpt><trkpt lat="38.96807109" lon="-0.49486103"><ele>125.8</ele><time>2022-11-13T14:33:08.0000000+00:00</time></trkpt><trkpt lat="38.96807143" lon="-0.49486119"><ele>125.8</ele><time>2022-11-13T14:33:09.0000000+00:00</time></trkpt><trkpt lat="38.96807159" lon="-0.49486128"><ele>125.8</ele><time>2022-11-13T14:33:10.0000000+00:00</time></trkpt><trkpt lat="38.96807168" lon="-0.49486136"><ele>125.8</ele><time>2022-11-13T14:33:11.0000000+00:00</time></trkpt><trkpt lat="38.96807193" lon="-0.49486136"><ele>125.8</ele><time>2022-11-13T14:33:12.0000000+00:00</time></trkpt><trkpt lat="38.9680721" lon="-0.49486136"><ele>125.8</ele><time>2022-11-13T14:33:13.0000000+00:00</time></trkpt><trkpt lat="38.96807235" lon="-0.49486136"><ele>125.8</ele><time>2022-11-13T14:33:14.0000000+00:00</time></trkpt><trkpt lat="38.96807252" lon="-0.49486136"><ele>125.8</ele><time>2022-11-13T14:33:15.0000000+00:00</time></trkpt><trkpt lat="38.96807386" lon="-0.49486178"><ele>125.8</ele><time>2022-11-13T14:33:16.0000000+00:00</time></trkpt><trkpt lat="38.96807486" lon="-0.49486203"><ele>125.8</ele><time>2022-11-13T14:33:17.0000000+00:00</time></trkpt><trkpt lat="38.96807537" lon="-0.4948622"><ele>125.8</ele><time>2022-11-13T14:33:18.0000000+00:00</time></trkpt><trkpt lat="38.96807578" lon="-0.4948627"><ele>125.8</ele><time>2022-11-13T14:33:19.0000000+00:00</time></trkpt><trkpt lat="38.96807604" lon="-0.49486321"><ele>125.8</ele><time>2022-11-13T14:33:20.0000000+00:00</time></trkpt><trkpt lat="38.96807612" lon="-0.49486337"><ele>125.8</ele><time>2022-11-13T14:33:21.0000000+00:00</time></trkpt><trkpt lat="38.96807629" lon="-0.49486346"><ele>125.8</ele><time>2022-11-13T14:33:22.0000000+00:00</time></trkpt><trkpt lat="38.96807654" lon="-0.49486379"><ele>125.8</ele><time>2022-11-13T14:33:23.0000000+00:00</time></trkpt><trkpt lat="38.96807671" lon="-0.49486396"><ele>125.8</ele><time>2022-11-13T14:33:24.0000000+00:00</time></trkpt><trkpt lat="38.96807679" lon="-0.49486429"><ele>125.8</ele><time>2022-11-13T14:33:25.0000000+00:00</time></trkpt><trkpt lat="38.96807696" lon="-0.49486446"><ele>125.8</ele><time>2022-11-13T14:33:26.0000000+00:00</time></trkpt><trkpt lat="38.96807713" lon="-0.49486471"><ele>125.8</ele><time>2022-11-13T14:33:27.0000000+00:00</time></trkpt><trkpt lat="38.96807729" lon="-0.49486513"><ele>125.8</ele><time>2022-11-13T14:33:28.0000000+00:00</time></trkpt><trkpt lat="38.96807763" lon="-0.4948658"><ele>125.8</ele><time>2022-11-13T14:33:29.0000000+00:00</time></trkpt><trkpt lat="38.96807863" lon="-0.49486673"><ele>125.8</ele><time>2022-11-13T14:33:30.0000000+00:00</time></trkpt><trkpt lat="38.96807956" lon="-0.49486723"><ele>125.8</ele><time>2022-11-13T14:33:31.0000000+00:00</time></trkpt><trkpt lat="38.96807998" lon="-0.49486756"><ele>125.8</ele><time>2022-11-13T14:33:32.0000000+00:00</time></trkpt><trkpt lat="38.96808023" lon="-0.49486949"><ele>125.8</ele><time>2022-11-13T14:33:33.0000000+00:00</time></trkpt><trkpt lat="38.96808031" lon="-0.49487083"><ele>125.8</ele><time>2022-11-13T14:33:34.0000000+00:00</time></trkpt><trkpt lat="38.96808039" lon="-0.49487167"><ele>125.8</ele><time>2022-11-13T14:33:35.0000000+00:00</time></trkpt><trkpt lat="38.96808039" lon="-0.49487226"><ele>125.8</ele><time>2022-11-13T14:33:36.0000000+00:00</time></trkpt><trkpt lat="38.96808048" lon="-0.49487301"><ele>125.8</ele><time>2022-11-13T14:33:37.0000000+00:00</time></trkpt><trkpt lat="38.96808048" lon="-0.4948736"><ele>125.8</ele><time>2022-11-13T14:33:38.0000000+00:00</time></trkpt><trkpt lat="38.96808358" lon="-0.49487427"><ele>125.8</ele><time>2022-11-13T14:33:39.0000000+00:00</time></trkpt><trkpt lat="38.96808576" lon="-0.49487494"><ele>125.8</ele><time>2022-11-13T14:33:40.0000000+00:00</time></trkpt><trkpt lat="38.9680871" lon="-0.49487544"><ele>125.8</ele><time>2022-11-13T14:33:41.0000000+00:00</time></trkpt><trkpt lat="38.96808852" lon="-0.49487578"><ele>125.8</ele><time>2022-11-13T14:33:42.0000000+00:00</time></trkpt><trkpt lat="38.96808953" lon="-0.49487771"><ele>125.8</ele><time>2022-11-13T14:33:43.0000000+00:00</time></trkpt><trkpt lat="38.96809003" lon="-0.49487938"><ele>125.8</ele><time>2022-11-13T14:33:44.0000000+00:00</time></trkpt><trkpt lat="38.96809054" lon="-0.49488014"><ele>125.8</ele><time>2022-11-13T14:33:45.0000000+00:00</time></trkpt><trkpt lat="38.96809112" lon="-0.49488072"><ele>125.8</ele><time>2022-11-13T14:33:46.0000000+00:00</time></trkpt><trkpt lat="38.96809179" lon="-0.49488139"><ele>125.8</ele><time>2022-11-13T14:33:47.0000000+00:00</time></trkpt><trkpt lat="38.96809255" lon="-0.4948819"><ele>125.8</ele><time>2022-11-13T14:33:48.0000000+00:00</time></trkpt><trkpt lat="38.9680933" lon="-0.49488223"><ele>125.8</ele><time>2022-11-13T14:33:49.0000000+00:00</time></trkpt><trkpt lat="38.96809422" lon="-0.49488265"><ele>125.8</ele><time>2022-11-13T14:33:50.0000000+00:00</time></trkpt><trkpt lat="38.9680949" lon="-0.4948829"><ele>125.8</ele><time>2022-11-13T14:33:51.0000000+00:00</time></trkpt><trkpt lat="38.96809548" lon="-0.49488307"><ele>125.8</ele><time>2022-11-13T14:33:52.0000000+00:00</time></trkpt><trkpt lat="38.96809582" lon="-0.49488324"><ele>125.8</ele><time>2022-11-13T14:33:53.0000000+00:00</time></trkpt><trkpt lat="38.96809783" lon="-0.49488332"><ele>125.8</ele><time>2022-11-13T14:33:54.0000000+00:00</time></trkpt><trkpt lat="38.96809984" lon="-0.49488332"><ele>125.8</ele><time>2022-11-13T14:33:55.0000000+00:00</time></trkpt><trkpt lat="38.96810093" lon="-0.49488349"><ele>125.8</ele><time>2022-11-13T14:33:56.0000000+00:00</time></trkpt><trkpt lat="38.96810152" lon="-0.49488366"><ele>125.8</ele><time>2022-11-13T14:33:57.0000000+00:00</time></trkpt><trkpt lat="38.96810236" lon="-0.49488382"><ele>125.8</ele><time>2022-11-13T14:33:58.0000000+00:00</time></trkpt><trkpt lat="38.96810294" lon="-0.49488416"><ele>125.8</ele><time>2022-11-13T14:33:59.0000000+00:00</time></trkpt><trkpt lat="38.9681037" lon="-0.49488424"><ele>125.8</ele><time>2022-11-13T14:34:00.0000000+00:00</time></trkpt><trkpt lat="38.96810412" lon="-0.49488416"><ele>125.8</ele><time>2022-11-13T14:34:01.0000000+00:00</time></trkpt><trkpt lat="38.96810437" lon="-0.49488408"><ele>125.8</ele><time>2022-11-13T14:34:02.0000000+00:00</time></trkpt><trkpt lat="38.96810453" lon="-0.49488408"><ele>125.8</ele><time>2022-11-13T14:34:03.0000000+00:00</time></trkpt><trkpt lat="38.96810462" lon="-0.49488408"><ele>125.8</ele><time>2022-11-13T14:34:04.0000000+00:00</time></trkpt><trkpt lat="38.9681047" lon="-0.49488399"><ele>125.8</ele><time>2022-11-13T14:34:05.0000000+00:00</time></trkpt><trkpt lat="38.9681047" lon="-0.49488399"><ele>125.8</ele><time>2022-11-13T14:34:06.0000000+00:00</time></trkpt><trkpt lat="38.9681047" lon="-0.49488399"><ele>125.8</ele><time>2022-11-13T14:34:07.0000000+00:00</time></trkpt><trkpt lat="38.96810479" lon="-0.49488399"><ele>125.8</ele><time>2022-11-13T14:34:08.0000000+00:00</time></trkpt><trkpt lat="38.96810479" lon="-0.49488399"><ele>125.8</ele><time>2022-11-13T14:34:09.0000000+00:00</time></trkpt><trkpt lat="38.96810479" lon="-0.49488391"><ele>125.8</ele><time>2022-11-13T14:34:10.0000000+00:00</time></trkpt><trkpt lat="38.96810462" lon="-0.49488391"><ele>125.8</ele><time>2022-11-13T14:34:11.0000000+00:00</time></trkpt><trkpt lat="38.96810428" lon="-0.49488391"><ele>125.8</ele><time>2022-11-13T14:34:12.0000000+00:00</time></trkpt><trkpt lat="38.96810395" lon="-0.49488391"><ele>125.8</ele><time>2022-11-13T14:34:13.0000000+00:00</time></trkpt><trkpt lat="38.96810336" lon="-0.49488399"><ele>125.8</ele><time>2022-11-13T14:34:14.0000000+00:00</time></trkpt><trkpt lat="38.96810303" lon="-0.49488399"><ele>125.8</ele><time>2022-11-13T14:34:15.0000000+00:00</time></trkpt><trkpt lat="38.96810269" lon="-0.49488341"><ele>125.8</ele><time>2022-11-13T14:34:16.0000000+00:00</time></trkpt><trkpt lat="38.96810202" lon="-0.49488299"><ele>125.8</ele><time>2022-11-13T14:34:17.0000000+00:00</time></trkpt><trkpt lat="38.96810135" lon="-0.49488181"><ele>125.8</ele><time>2022-11-13T14:34:18.0000000+00:00</time></trkpt><trkpt lat="38.96810068" lon="-0.49488106"><ele>125.8</ele><time>2022-11-13T14:34:19.0000000+00:00</time></trkpt><trkpt lat="38.96809976" lon="-0.4948803"><ele>125.8</ele><time>2022-11-13T14:34:20.0000000+00:00</time></trkpt><trkpt lat="38.9680928" lon="-0.4948803"><ele>125.8</ele><time>2022-11-13T14:34:21.0000000+00:00</time></trkpt><trkpt lat="38.96807562" lon="-0.49488701"><ele>125.8</ele><time>2022-11-13T14:34:22.0000000+00:00</time></trkpt><trkpt lat="38.96805382" lon="-0.49488232"><ele>125.8</ele><time>2022-11-13T14:34:23.0000000+00:00</time></trkpt><trkpt lat="38.96803807" lon="-0.49488592"><ele>125.8</ele><time>2022-11-13T14:34:24.0000000+00:00</time></trkpt><trkpt lat="38.96801401" lon="-0.49488609"><ele>125.8</ele><time>2022-11-13T14:34:25.0000000+00:00</time></trkpt><trkpt lat="38.9679897" lon="-0.49488382"><ele>125.8</ele><time>2022-11-13T14:34:26.0000000+00:00</time></trkpt><trkpt lat="38.96797143" lon="-0.49488626"><ele>125.8</ele><time>2022-11-13T14:34:27.0000000+00:00</time></trkpt><trkpt lat="38.967955" lon="-0.49488743"><ele>125.8</ele><time>2022-11-13T14:34:28.0000000+00:00</time></trkpt><trkpt lat="38.96794142" lon="-0.49489237"><ele>125.8</ele><time>2022-11-13T14:34:29.0000000+00:00</time></trkpt><trkpt lat="38.96791779" lon="-0.49489522"><ele>126.0</ele><time>2022-11-13T14:34:30.0000000+00:00</time></trkpt><trkpt lat="38.96789901" lon="-0.49489548"><ele>126.0</ele><time>2022-11-13T14:34:31.0000000+00:00</time></trkpt><trkpt lat="38.96788308" lon="-0.4948933"><ele>126.0</ele><time>2022-11-13T14:34:32.0000000+00:00</time></trkpt><trkpt lat="38.96786657" lon="-0.49489548"><ele>126.0</ele><time>2022-11-13T14:34:33.0000000+00:00</time></trkpt><trkpt lat="38.96785601" lon="-0.49489841"><ele>126.0</ele><time>2022-11-13T14:34:34.0000000+00:00</time></trkpt><trkpt lat="38.9678421" lon="-0.4949057"><ele>126.0</ele><time>2022-11-13T14:34:35.0000000+00:00</time></trkpt><trkpt lat="38.96782843" lon="-0.49491283"><ele>126.0</ele><time>2022-11-13T14:34:36.0000000+00:00</time></trkpt><trkpt lat="38.96781511" lon="-0.49492188"><ele>126.0</ele><time>2022-11-13T14:34:37.0000000+00:00</time></trkpt><trkpt lat="38.96780807" lon="-0.49492121"><ele>126.0</ele><time>2022-11-13T14:34:38.0000000+00:00</time></trkpt><trkpt lat="38.96780865" lon="-0.49491693"><ele>126.0</ele><time>2022-11-13T14:34:39.0000000+00:00</time></trkpt><trkpt lat="38.96780689" lon="-0.49491827"><ele>126.0</ele><time>2022-11-13T14:34:40.0000000+00:00</time></trkpt><trkpt lat="38.96780597" lon="-0.49491928"><ele>126.0</ele><time>2022-11-13T14:34:41.0000000+00:00</time></trkpt><trkpt lat="38.96780815" lon="-0.49491718"><ele>126.2</ele><time>2022-11-13T14:34:42.0000000+00:00</time></trkpt><trkpt lat="38.96781251" lon="-0.4949249"><ele>126.2</ele><time>2022-11-13T14:34:43.0000000+00:00</time></trkpt><trkpt lat="38.96781184" lon="-0.49492389"><ele>126.2</ele><time>2022-11-13T14:34:44.0000000+00:00</time></trkpt><trkpt lat="38.96781419" lon="-0.49492297"><ele>126.2</ele><time>2022-11-13T14:34:45.0000000+00:00</time></trkpt><trkpt lat="38.96782265" lon="-0.49492029"><ele>126.4</ele><time>2022-11-13T14:34:46.0000000+00:00</time></trkpt><trkpt lat="38.96782651" lon="-0.4949192"><ele>126.4</ele><time>2022-11-13T14:34:47.0000000+00:00</time></trkpt><trkpt lat="38.96782709" lon="-0.49491182"><ele>126.2</ele><time>2022-11-13T14:34:48.0000000+00:00</time></trkpt><trkpt lat="38.9678255" lon="-0.49490595"><ele>126.0</ele><time>2022-11-13T14:34:49.0000000+00:00</time></trkpt><trkpt lat="38.96782341" lon="-0.49490218"><ele>126.0</ele><time>2022-11-13T14:34:50.0000000+00:00</time></trkpt><trkpt lat="38.9678193" lon="-0.49489514"><ele>125.8</ele><time>2022-11-13T14:34:51.0000000+00:00</time></trkpt><trkpt lat="38.96782072" lon="-0.49489631"><ele>125.8</ele><time>2022-11-13T14:34:52.0000000+00:00</time></trkpt><trkpt lat="38.96781636" lon="-0.49488877"><ele>125.8</ele><time>2022-11-13T14:34:53.0000000+00:00</time></trkpt><trkpt lat="38.96781016" lon="-0.49487905"><ele>125.4</ele><time>2022-11-13T14:34:54.0000000+00:00</time></trkpt><trkpt lat="38.96779683" lon="-0.49486991"><ele>125.0</ele><time>2022-11-13T14:34:55.0000000+00:00</time></trkpt><trkpt lat="38.96777982" lon="-0.49487385"><ele>125.0</ele><time>2022-11-13T14:34:56.0000000+00:00</time></trkpt><trkpt lat="38.96776364" lon="-0.49487452"><ele>124.8</ele><time>2022-11-13T14:34:57.0000000+00:00</time></trkpt><trkpt lat="38.96775057" lon="-0.49487863"><ele>124.6</ele><time>2022-11-13T14:34:58.0000000+00:00</time></trkpt><trkpt lat="38.96773682" lon="-0.49488785"><ele>124.6</ele><time>2022-11-13T14:34:59.0000000+00:00</time></trkpt><trkpt lat="38.96772374" lon="-0.49489573"><ele>124.6</ele><time>2022-11-13T14:35:00.0000000+00:00</time></trkpt><trkpt lat="38.96770614" lon="-0.49489321"><ele>124.6</ele><time>2022-11-13T14:35:01.0000000+00:00</time></trkpt><trkpt lat="38.96770136" lon="-0.49490201"><ele>124.6</ele><time>2022-11-13T14:35:02.0000000+00:00</time></trkpt><trkpt lat="38.96769315" lon="-0.49490076"><ele>124.6</ele><time>2022-11-13T14:35:03.0000000+00:00</time></trkpt><trkpt lat="38.96768904" lon="-0.49490897"><ele>124.8</ele><time>2022-11-13T14:35:04.0000000+00:00</time></trkpt><trkpt lat="38.96769231" lon="-0.49492682"><ele>124.8</ele><time>2022-11-13T14:35:05.0000000+00:00</time></trkpt><trkpt lat="38.96770044" lon="-0.4949451"><ele>124.8</ele><time>2022-11-13T14:35:06.0000000+00:00</time></trkpt><trkpt lat="38.96770472" lon="-0.49495884"><ele>125.0</ele><time>2022-11-13T14:35:07.0000000+00:00</time></trkpt><trkpt lat="38.96770413" lon="-0.49496915"><ele>125.0</ele><time>2022-11-13T14:35:08.0000000+00:00</time></trkpt><trkpt lat="38.96770321" lon="-0.49498323"><ele>125.0</ele><time>2022-11-13T14:35:09.0000000+00:00</time></trkpt><trkpt lat="38.96770405" lon="-0.49499614"><ele>125.2</ele><time>2022-11-13T14:35:10.0000000+00:00</time></trkpt><trkpt lat="38.96770271" lon="-0.49500804"><ele>125.4</ele><time>2022-11-13T14:35:11.0000000+00:00</time></trkpt><trkpt lat="38.96770061" lon="-0.49501735"><ele>125.8</ele><time>2022-11-13T14:35:12.0000000+00:00</time></trkpt><trkpt lat="38.9677038" lon="-0.49502271"><ele>126.0</ele><time>2022-11-13T14:35:13.0000000+00:00</time></trkpt><trkpt lat="38.96771008" lon="-0.49503889"><ele>126.0</ele><time>2022-11-13T14:35:14.0000000+00:00</time></trkpt><trkpt lat="38.96771872" lon="-0.49505658"><ele>126.2</ele><time>2022-11-13T14:35:15.0000000+00:00</time></trkpt><trkpt lat="38.96772626" lon="-0.4950658"><ele>126.4</ele><time>2022-11-13T14:35:16.0000000+00:00</time></trkpt><trkpt lat="38.96773179" lon="-0.49507267"><ele>126.6</ele><time>2022-11-13T14:35:17.0000000+00:00</time></trkpt><trkpt lat="38.96773615" lon="-0.49508122"><ele>126.8</ele><time>2022-11-13T14:35:18.0000000+00:00</time></trkpt><trkpt lat="38.96773305" lon="-0.49509279"><ele>126.8</ele><time>2022-11-13T14:35:19.0000000+00:00</time></trkpt><trkpt lat="38.96772827" lon="-0.49509689"><ele>127.0</ele><time>2022-11-13T14:35:20.0000000+00:00</time></trkpt><trkpt lat="38.96771469" lon="-0.49509505"><ele>127.2</ele><time>2022-11-13T14:35:21.0000000+00:00</time></trkpt><trkpt lat="38.96770162" lon="-0.49508901"><ele>127.2</ele><time>2022-11-13T14:35:22.0000000+00:00</time></trkpt><trkpt lat="38.96770162" lon="-0.49509279"><ele>127.4</ele><time>2022-11-13T14:35:23.0000000+00:00</time></trkpt><trkpt lat="38.96770212" lon="-0.49509496"><ele>127.4</ele><time>2022-11-13T14:35:24.0000000+00:00</time></trkpt><trkpt lat="38.96770614" lon="-0.49510251"><ele>127.6</ele><time>2022-11-13T14:35:25.0000000+00:00</time></trkpt><trkpt lat="38.96770841" lon="-0.49510678"><ele>127.8</ele><time>2022-11-13T14:35:26.0000000+00:00</time></trkpt><trkpt lat="38.96770866" lon="-0.49510997"><ele>128.2</ele><time>2022-11-13T14:35:27.0000000+00:00</time></trkpt><trkpt lat="38.96771" lon="-0.49511693"><ele>128.4</ele><time>2022-11-13T14:35:28.0000000+00:00</time></trkpt><trkpt lat="38.967711" lon="-0.49512439"><ele>128.6</ele><time>2022-11-13T14:35:29.0000000+00:00</time></trkpt><trkpt lat="38.96770405" lon="-0.49513059"><ele>129.0</ele><time>2022-11-13T14:35:30.0000000+00:00</time></trkpt><trkpt lat="38.96770245" lon="-0.49513545"><ele>129.2</ele><time>2022-11-13T14:35:31.0000000+00:00</time></trkpt><trkpt lat="38.96769684" lon="-0.4951378"><ele>129.6</ele><time>2022-11-13T14:35:32.0000000+00:00</time></trkpt><trkpt lat="38.96769458" lon="-0.49514551"><ele>129.8</ele><time>2022-11-13T14:35:33.0000000+00:00</time></trkpt><trkpt lat="38.96769793" lon="-0.49515096"><ele>130.0</ele><time>2022-11-13T14:35:34.0000000+00:00</time></trkpt><trkpt lat="38.96770069" lon="-0.49515883"><ele>130.2</ele><time>2022-11-13T14:35:35.0000000+00:00</time></trkpt><trkpt lat="38.96769332" lon="-0.49515942"><ele>130.4</ele><time>2022-11-13T14:35:36.0000000+00:00</time></trkpt><trkpt lat="38.96769131" lon="-0.49515984"><ele>130.6</ele><time>2022-11-13T14:35:37.0000000+00:00</time></trkpt><trkpt lat="38.96769189" lon="-0.49516378"><ele>130.8</ele><time>2022-11-13T14:35:38.0000000+00:00</time></trkpt><trkpt lat="38.96769323" lon="-0.49516747"><ele>131.0</ele><time>2022-11-13T14:35:39.0000000+00:00</time></trkpt><trkpt lat="38.96768971" lon="-0.49517132"><ele>131.4</ele><time>2022-11-13T14:35:40.0000000+00:00</time></trkpt><trkpt lat="38.96768686" lon="-0.49517501"><ele>131.6</ele><time>2022-11-13T14:35:41.0000000+00:00</time></trkpt><trkpt lat="38.96768871" lon="-0.49517585"><ele>131.8</ele><time>2022-11-13T14:35:42.0000000+00:00</time></trkpt><trkpt lat="38.96769156" lon="-0.49518012"><ele>132.2</ele><time>2022-11-13T14:35:43.0000000+00:00</time></trkpt><trkpt lat="38.96769064" lon="-0.49518708"><ele>132.4</ele><time>2022-11-13T14:35:44.0000000+00:00</time></trkpt><trkpt lat="38.96768821" lon="-0.49520016"><ele>132.4</ele><time>2022-11-13T14:35:45.0000000+00:00</time></trkpt><trkpt lat="38.96768552" lon="-0.49520678"><ele>132.8</ele><time>2022-11-13T14:35:46.0000000+00:00</time></trkpt><trkpt lat="38.96768804" lon="-0.49521332"><ele>133.0</ele><time>2022-11-13T14:35:47.0000000+00:00</time></trkpt><trkpt lat="38.96768879" lon="-0.49522212"><ele>133.2</ele><time>2022-11-13T14:35:48.0000000+00:00</time></trkpt><trkpt lat="38.96768971" lon="-0.49522824"><ele>133.4</ele><time>2022-11-13T14:35:49.0000000+00:00</time></trkpt><trkpt lat="38.9676908" lon="-0.49524031"><ele>133.6</ele><time>2022-11-13T14:35:50.0000000+00:00</time></trkpt><trkpt lat="38.96769349" lon="-0.49525213"><ele>133.8</ele><time>2022-11-13T14:35:51.0000000+00:00</time></trkpt><trkpt lat="38.96769055" lon="-0.49526034"><ele>134.2</ele><time>2022-11-13T14:35:52.0000000+00:00</time></trkpt><trkpt lat="38.96767924" lon="-0.49526445"><ele>134.4</ele><time>2022-11-13T14:35:53.0000000+00:00</time></trkpt><trkpt lat="38.96766641" lon="-0.49526805"><ele>134.4</ele><time>2022-11-13T14:35:54.0000000+00:00</time></trkpt><trkpt lat="38.96765552" lon="-0.49526646"><ele>134.8</ele><time>2022-11-13T14:35:55.0000000+00:00</time></trkpt><trkpt lat="38.9676463" lon="-0.49526797"><ele>135.0</ele><time>2022-11-13T14:35:56.0000000+00:00</time></trkpt><trkpt lat="38.96763238" lon="-0.49527409"><ele>135.0</ele><time>2022-11-13T14:35:57.0000000+00:00</time></trkpt><trkpt lat="38.96762157" lon="-0.49528171"><ele>135.2</ele><time>2022-11-13T14:35:58.0000000+00:00</time></trkpt><trkpt lat="38.96761059" lon="-0.49529001"><ele>135.2</ele><time>2022-11-13T14:35:59.0000000+00:00</time></trkpt><trkpt lat="38.96760296" lon="-0.4952994"><ele>135.4</ele><time>2022-11-13T14:36:00.0000000+00:00</time></trkpt><trkpt lat="38.96759542" lon="-0.4953061"><ele>135.4</ele><time>2022-11-13T14:36:01.0000000+00:00</time></trkpt><trkpt lat="38.96759114" lon="-0.49530845"><ele>135.4</ele><time>2022-11-13T14:36:02.0000000+00:00</time></trkpt><trkpt lat="38.96758854" lon="-0.49531382"><ele>135.6</ele><time>2022-11-13T14:36:03.0000000+00:00</time></trkpt><trkpt lat="38.96758754" lon="-0.49531667"><ele>135.6</ele><time>2022-11-13T14:36:04.0000000+00:00</time></trkpt><trkpt lat="38.96758662" lon="-0.49531608"><ele>135.6</ele><time>2022-11-13T14:36:05.0000000+00:00</time></trkpt><trkpt lat="38.96758637" lon="-0.49531524"><ele>135.6</ele><time>2022-11-13T14:36:06.0000000+00:00</time></trkpt><trkpt lat="38.96758494" lon="-0.49531449"><ele>135.8</ele><time>2022-11-13T14:36:07.0000000+00:00</time></trkpt><trkpt lat="38.96758385" lon="-0.49531407"><ele>135.8</ele><time>2022-11-13T14:36:08.0000000+00:00</time></trkpt><trkpt lat="38.9675831" lon="-0.4953134"><ele>135.8</ele><time>2022-11-13T14:36:09.0000000+00:00</time></trkpt><trkpt lat="38.96758293" lon="-0.49531256"><ele>135.8</ele><time>2022-11-13T14:36:10.0000000+00:00</time></trkpt><trkpt lat="38.96758477" lon="-0.49531021"><ele>135.8</ele><time>2022-11-13T14:36:11.0000000+00:00</time></trkpt><trkpt lat="38.96758653" lon="-0.49530837"><ele>135.8</ele><time>2022-11-13T14:36:12.0000000+00:00</time></trkpt><trkpt lat="38.96758687" lon="-0.49530778"><ele>135.8</ele><time>2022-11-13T14:36:13.0000000+00:00</time></trkpt><trkpt lat="38.96758653" lon="-0.49530736"><ele>135.8</ele><time>2022-11-13T14:36:14.0000000+00:00</time></trkpt><trkpt lat="38.96758653" lon="-0.49530736"><ele>135.8</ele><time>2022-11-13T14:36:15.0000000+00:00</time></trkpt><trkpt lat="38.96758653" lon="-0.49530736"><ele>135.8</ele><time>2022-11-13T14:36:16.0000000+00:00</time></trkpt><trkpt lat="38.96758653" lon="-0.49530736"><ele>135.8</ele><time>2022-11-13T14:36:17.0000000+00:00</time></trkpt><trkpt lat="38.96758653" lon="-0.49530736"><ele>135.8</ele><time>2022-11-13T14:36:18.0000000+00:00</time></trkpt><trkpt lat="38.96758653" lon="-0.49530736"><ele>135.8</ele><time>2022-11-13T14:36:19.0000000+00:00</time></trkpt><trkpt lat="38.96758653" lon="-0.49530736"><ele>135.8</ele><time>2022-11-13T14:36:20.0000000+00:00</time></trkpt><trkpt lat="38.96758259" lon="-0.49530854"><ele>136.0</ele><time>2022-11-13T14:36:21.0000000+00:00</time></trkpt><trkpt lat="38.96756767" lon="-0.49531306"><ele>135.8</ele><time>2022-11-13T14:36:22.0000000+00:00</time></trkpt><trkpt lat="38.96755753" lon="-0.4953165"><ele>135.8</ele><time>2022-11-13T14:36:23.0000000+00:00</time></trkpt><trkpt lat="38.96754647" lon="-0.49531784"><ele>135.8</ele><time>2022-11-13T14:36:24.0000000+00:00</time></trkpt><trkpt lat="38.96753398" lon="-0.49532354"><ele>135.8</ele><time>2022-11-13T14:36:25.0000000+00:00</time></trkpt><trkpt lat="38.96752191" lon="-0.49533033"><ele>135.8</ele><time>2022-11-13T14:36:26.0000000+00:00</time></trkpt><trkpt lat="38.96750942" lon="-0.49533888"><ele>135.8</ele><time>2022-11-13T14:36:27.0000000+00:00</time></trkpt><trkpt lat="38.96749567" lon="-0.49534718"><ele>135.8</ele><time>2022-11-13T14:36:28.0000000+00:00</time></trkpt><trkpt lat="38.96747941" lon="-0.49535656"><ele>135.8</ele><time>2022-11-13T14:36:29.0000000+00:00</time></trkpt><trkpt lat="38.96746282" lon="-0.49536369"><ele>135.8</ele><time>2022-11-13T14:36:30.0000000+00:00</time></trkpt><trkpt lat="38.96745209" lon="-0.49536713"><ele>136.0</ele><time>2022-11-13T14:36:31.0000000+00:00</time></trkpt><trkpt lat="38.96744639" lon="-0.49537039"><ele>136.0</ele><time>2022-11-13T14:36:32.0000000+00:00</time></trkpt><trkpt lat="38.96744262" lon="-0.49537224"><ele>136.0</ele><time>2022-11-13T14:36:33.0000000+00:00</time></trkpt><trkpt lat="38.96743407" lon="-0.49537593"><ele>135.8</ele><time>2022-11-13T14:36:34.0000000+00:00</time></trkpt><trkpt lat="38.96742342" lon="-0.49538003"><ele>135.8</ele><time>2022-11-13T14:36:35.0000000+00:00</time></trkpt><trkpt lat="38.96741345" lon="-0.49538263"><ele>135.8</ele><time>2022-11-13T14:36:36.0000000+00:00</time></trkpt><trkpt lat="38.96740456" lon="-0.49538431"><ele>135.8</ele><time>2022-11-13T14:36:37.0000000+00:00</time></trkpt><trkpt lat="38.96739576" lon="-0.4953864"><ele>135.8</ele><time>2022-11-13T14:36:38.0000000+00:00</time></trkpt><trkpt lat="38.96738729" lon="-0.49539269"><ele>135.6</ele><time>2022-11-13T14:36:39.0000000+00:00</time></trkpt><trkpt lat="38.96737933" lon="-0.4953978"><ele>135.6</ele><time>2022-11-13T14:36:40.0000000+00:00</time></trkpt><trkpt lat="38.96737003" lon="-0.49540392"><ele>135.6</ele><time>2022-11-13T14:36:41.0000000+00:00</time></trkpt><trkpt lat="38.96736265" lon="-0.49541029"><ele>135.6</ele><time>2022-11-13T14:36:42.0000000+00:00</time></trkpt><trkpt lat="38.96735293" lon="-0.49541423"><ele>135.6</ele><time>2022-11-13T14:36:43.0000000+00:00</time></trkpt><trkpt lat="38.96734773" lon="-0.49541532"><ele>135.6</ele><time>2022-11-13T14:36:44.0000000+00:00</time></trkpt><trkpt lat="38.96733767" lon="-0.49542069"><ele>135.6</ele><time>2022-11-13T14:36:45.0000000+00:00</time></trkpt><trkpt lat="38.96732669" lon="-0.49542747"><ele>135.6</ele><time>2022-11-13T14:36:46.0000000+00:00</time></trkpt><trkpt lat="38.96730976" lon="-0.49543661"><ele>135.6</ele><time>2022-11-13T14:36:47.0000000+00:00</time></trkpt><trkpt lat="38.96729903" lon="-0.49545002"><ele>135.6</ele><time>2022-11-13T14:36:48.0000000+00:00</time></trkpt><trkpt lat="38.96729107" lon="-0.49545891"><ele>135.6</ele><time>2022-11-13T14:36:49.0000000+00:00</time></trkpt><trkpt lat="38.96728344" lon="-0.49546234"><ele>135.6</ele><time>2022-11-13T14:36:50.0000000+00:00</time></trkpt><trkpt lat="38.96727179" lon="-0.49546276"><ele>135.6</ele><time>2022-11-13T14:36:51.0000000+00:00</time></trkpt><trkpt lat="38.96725981" lon="-0.49546586"><ele>135.6</ele><time>2022-11-13T14:36:52.0000000+00:00</time></trkpt><trkpt lat="38.96724581" lon="-0.49546561"><ele>135.4</ele><time>2022-11-13T14:36:53.0000000+00:00</time></trkpt><trkpt lat="38.96723483" lon="-0.49546779"><ele>135.4</ele><time>2022-11-13T14:36:54.0000000+00:00</time></trkpt><trkpt lat="38.96721882" lon="-0.4954755"><ele>135.4</ele><time>2022-11-13T14:36:55.0000000+00:00</time></trkpt><trkpt lat="38.9672018" lon="-0.4954776"><ele>135.2</ele><time>2022-11-13T14:36:56.0000000+00:00</time></trkpt><trkpt lat="38.96718714" lon="-0.49547617"><ele>135.2</ele><time>2022-11-13T14:36:57.0000000+00:00</time></trkpt><trkpt lat="38.96716953" lon="-0.49547852"><ele>135.2</ele><time>2022-11-13T14:36:58.0000000+00:00</time></trkpt><trkpt lat="38.9671526" lon="-0.4954833"><ele>135.2</ele><time>2022-11-13T14:36:59.0000000+00:00</time></trkpt><trkpt lat="38.96714187" lon="-0.4954916"><ele>135.2</ele><time>2022-11-13T14:37:00.0000000+00:00</time></trkpt><trkpt lat="38.96713022" lon="-0.49549084"><ele>135.2</ele><time>2022-11-13T14:37:01.0000000+00:00</time></trkpt><trkpt lat="38.96711522" lon="-0.49548917"><ele>135.2</ele><time>2022-11-13T14:37:02.0000000+00:00</time></trkpt><trkpt lat="38.96710239" lon="-0.49548992"><ele>135.2</ele><time>2022-11-13T14:37:03.0000000+00:00</time></trkpt><trkpt lat="38.9670863" lon="-0.49549185"><ele>135.4</ele><time>2022-11-13T14:37:04.0000000+00:00</time></trkpt><trkpt lat="38.96706845" lon="-0.4954926"><ele>135.4</ele><time>2022-11-13T14:37:05.0000000+00:00</time></trkpt><trkpt lat="38.9670495" lon="-0.49549478"><ele>135.4</ele><time>2022-11-13T14:37:06.0000000+00:00</time></trkpt><trkpt lat="38.96703458" lon="-0.49549797"><ele>135.4</ele><time>2022-11-13T14:37:07.0000000+00:00</time></trkpt><trkpt lat="38.96702461" lon="-0.49550425"><ele>135.4</ele><time>2022-11-13T14:37:08.0000000+00:00</time></trkpt><trkpt lat="38.96701313" lon="-0.49551901"><ele>135.4</ele><time>2022-11-13T14:37:09.0000000+00:00</time></trkpt><trkpt lat="38.96700759" lon="-0.49553543"><ele>135.4</ele><time>2022-11-13T14:37:10.0000000+00:00</time></trkpt><trkpt lat="38.96699963" lon="-0.4955501"><ele>135.4</ele><time>2022-11-13T14:37:11.0000000+00:00</time></trkpt><trkpt lat="38.96699117" lon="-0.49556586"><ele>135.4</ele><time>2022-11-13T14:37:12.0000000+00:00</time></trkpt><trkpt lat="38.96697876" lon="-0.49558019"><ele>135.4</ele><time>2022-11-13T14:37:13.0000000+00:00</time></trkpt><trkpt lat="38.96697147" lon="-0.49559645"><ele>135.4</ele><time>2022-11-13T14:37:14.0000000+00:00</time></trkpt><trkpt lat="38.9669682" lon="-0.49561414"><ele>135.4</ele><time>2022-11-13T14:37:15.0000000+00:00</time></trkpt><trkpt lat="38.96696267" lon="-0.49562378"><ele>135.4</ele><time>2022-11-13T14:37:16.0000000+00:00</time></trkpt><trkpt lat="38.96695236" lon="-0.49563987"><ele>135.4</ele><time>2022-11-13T14:37:17.0000000+00:00</time></trkpt><trkpt lat="38.96694196" lon="-0.49565035"><ele>135.4</ele><time>2022-11-13T14:37:18.0000000+00:00</time></trkpt><trkpt lat="38.96692889" lon="-0.49566493"><ele>135.6</ele><time>2022-11-13T14:37:19.0000000+00:00</time></trkpt><trkpt lat="38.96691456" lon="-0.49568086"><ele>135.6</ele><time>2022-11-13T14:37:20.0000000+00:00</time></trkpt><trkpt lat="38.96690198" lon="-0.49569855"><ele>135.6</ele><time>2022-11-13T14:37:21.0000000+00:00</time></trkpt><trkpt lat="38.96689251" lon="-0.49571632"><ele>135.6</ele><time>2022-11-13T14:37:22.0000000+00:00</time></trkpt><trkpt lat="38.96688731" lon="-0.49573484"><ele>135.6</ele><time>2022-11-13T14:37:23.0000000+00:00</time></trkpt><trkpt lat="38.96688094" lon="-0.49575361"><ele>135.6</ele><time>2022-11-13T14:37:24.0000000+00:00</time></trkpt><trkpt lat="38.96687801" lon="-0.49576895"><ele>135.6</ele><time>2022-11-13T14:37:25.0000000+00:00</time></trkpt><trkpt lat="38.96687248" lon="-0.49578253"><ele>135.6</ele><time>2022-11-13T14:37:26.0000000+00:00</time></trkpt><trkpt lat="38.9668682" lon="-0.49579544"><ele>135.6</ele><time>2022-11-13T14:37:27.0000000+00:00</time></trkpt><trkpt lat="38.96686317" lon="-0.49580826"><ele>135.6</ele><time>2022-11-13T14:37:28.0000000+00:00</time></trkpt><trkpt lat="38.96685932" lon="-0.49581598"><ele>135.4</ele><time>2022-11-13T14:37:29.0000000+00:00</time></trkpt><trkpt lat="38.9668589" lon="-0.49582008"><ele>135.4</ele><time>2022-11-13T14:37:30.0000000+00:00</time></trkpt><trkpt lat="38.9668594" lon="-0.49582285"><ele>135.6</ele><time>2022-11-13T14:37:31.0000000+00:00</time></trkpt><trkpt lat="38.96686284" lon="-0.49581782"><ele>135.4</ele><time>2022-11-13T14:37:32.0000000+00:00</time></trkpt><trkpt lat="38.9668625" lon="-0.49580357"><ele>135.4</ele><time>2022-11-13T14:37:33.0000000+00:00</time></trkpt><trkpt lat="38.96686267" lon="-0.49578672"><ele>135.6</ele><time>2022-11-13T14:37:34.0000000+00:00</time></trkpt><trkpt lat="38.96686267" lon="-0.49576828"><ele>135.6</ele><time>2022-11-13T14:37:35.0000000+00:00</time></trkpt><trkpt lat="38.96686074" lon="-0.49574448"><ele>135.6</ele><time>2022-11-13T14:37:36.0000000+00:00</time></trkpt><trkpt lat="38.96686284" lon="-0.4957252"><ele>135.6</ele><time>2022-11-13T14:37:37.0000000+00:00</time></trkpt><trkpt lat="38.96686577" lon="-0.49571238"><ele>135.6</ele><time>2022-11-13T14:37:38.0000000+00:00</time></trkpt><trkpt lat="38.96686552" lon="-0.49572931"><ele>135.6</ele><time>2022-11-13T14:37:39.0000000+00:00</time></trkpt><trkpt lat="38.96685764" lon="-0.49573962"><ele>135.6</ele><time>2022-11-13T14:37:40.0000000+00:00</time></trkpt><trkpt lat="38.96685496" lon="-0.49575269"><ele>135.6</ele><time>2022-11-13T14:37:41.0000000+00:00</time></trkpt><trkpt lat="38.96684817" lon="-0.49577348"><ele>135.6</ele><time>2022-11-13T14:37:42.0000000+00:00</time></trkpt><trkpt lat="38.96683979" lon="-0.49578706"><ele>135.6</ele><time>2022-11-13T14:37:43.0000000+00:00</time></trkpt><trkpt lat="38.96683426" lon="-0.49579075"><ele>135.6</ele><time>2022-11-13T14:37:44.0000000+00:00</time></trkpt><trkpt lat="38.96683107" lon="-0.49579267"><ele>135.8</ele><time>2022-11-13T14:37:45.0000000+00:00</time></trkpt><trkpt lat="38.96682981" lon="-0.49579326"><ele>135.8</ele><time>2022-11-13T14:37:46.0000000+00:00</time></trkpt><trkpt lat="38.96682931" lon="-0.49579326"><ele>135.8</ele><time>2022-11-13T14:37:47.0000000+00:00</time></trkpt><trkpt lat="38.96683065" lon="-0.49579619"><ele>135.8</ele><time>2022-11-13T14:37:48.0000000+00:00</time></trkpt><trkpt lat="38.96683216" lon="-0.49579829"><ele>135.8</ele><time>2022-11-13T14:37:49.0000000+00:00</time></trkpt><trkpt lat="38.96683384" lon="-0.4957998"><ele>135.8</ele><time>2022-11-13T14:37:50.0000000+00:00</time></trkpt><trkpt lat="38.96683401" lon="-0.49579804"><ele>135.6</ele><time>2022-11-13T14:37:51.0000000+00:00</time></trkpt><trkpt lat="38.96683342" lon="-0.4958008"><ele>135.6</ele><time>2022-11-13T14:37:52.0000000+00:00</time></trkpt><trkpt lat="38.96683342" lon="-0.4958008"><ele>135.6</ele><time>2022-11-13T14:37:53.0000000+00:00</time></trkpt><trkpt lat="38.96683342" lon="-0.4958008"><ele>135.6</ele><time>2022-11-13T14:37:54.0000000+00:00</time></trkpt><trkpt lat="38.96683342" lon="-0.4958008"><ele>135.6</ele><time>2022-11-13T14:37:55.0000000+00:00</time></trkpt><trkpt lat="38.96683342" lon="-0.4958008"><ele>135.6</ele><time>2022-11-13T14:37:56.0000000+00:00</time></trkpt><trkpt lat="38.96683342" lon="-0.4958008"><ele>135.6</ele><time>2022-11-13T14:37:57.0000000+00:00</time></trkpt><trkpt lat="38.96683342" lon="-0.4958008"><ele>135.6</ele><time>2022-11-13T14:37:58.0000000+00:00</time></trkpt><trkpt lat="38.96683342" lon="-0.4958008"><ele>135.6</ele><time>2022-11-13T14:37:59.0000000+00:00</time></trkpt><trkpt lat="38.96683342" lon="-0.4958008"><ele>135.6</ele><time>2022-11-13T14:38:00.0000000+00:00</time></trkpt><trkpt lat="38.96683342" lon="-0.4958008"><ele>135.6</ele><time>2022-11-13T14:38:01.0000000+00:00</time></trkpt><trkpt lat="38.96683342" lon="-0.4958008"><ele>135.6</ele><time>2022-11-13T14:38:02.0000000+00:00</time></trkpt><trkpt lat="38.96683225" lon="-0.4958008"><ele>135.6</ele><time>2022-11-13T14:38:03.0000000+00:00</time></trkpt><trkpt lat="38.96683116" lon="-0.4958008"><ele>135.6</ele><time>2022-11-13T14:38:04.0000000+00:00</time></trkpt><trkpt lat="38.96683065" lon="-0.4958008"><ele>135.6</ele><time>2022-11-13T14:38:05.0000000+00:00</time></trkpt><trkpt lat="38.96682981" lon="-0.4958008"><ele>135.6</ele><time>2022-11-13T14:38:06.0000000+00:00</time></trkpt><trkpt lat="38.96682931" lon="-0.4958008"><ele>135.6</ele><time>2022-11-13T14:38:07.0000000+00:00</time></trkpt><trkpt lat="38.96682655" lon="-0.4958008"><ele>135.6</ele><time>2022-11-13T14:38:08.0000000+00:00</time></trkpt><trkpt lat="38.96682018" lon="-0.49580332"><ele>135.6</ele><time>2022-11-13T14:38:09.0000000+00:00</time></trkpt><trkpt lat="38.9668159" lon="-0.49580684"><ele>135.6</ele><time>2022-11-13T14:38:10.0000000+00:00</time></trkpt><trkpt lat="38.96680987" lon="-0.49581044"><ele>135.6</ele><time>2022-11-13T14:38:11.0000000+00:00</time></trkpt><trkpt lat="38.96680165" lon="-0.49581363"><ele>135.6</ele><time>2022-11-13T14:38:12.0000000+00:00</time></trkpt><trkpt lat="38.96679243" lon="-0.49581572"><ele>135.6</ele><time>2022-11-13T14:38:13.0000000+00:00</time></trkpt><trkpt lat="38.9667874" lon="-0.49581598"><ele>135.6</ele><time>2022-11-13T14:38:14.0000000+00:00</time></trkpt><trkpt lat="38.96678019" lon="-0.49581514"><ele>135.6</ele><time>2022-11-13T14:38:15.0000000+00:00</time></trkpt><trkpt lat="38.96676435" lon="-0.49581866"><ele>135.6</ele><time>2022-11-13T14:38:16.0000000+00:00</time></trkpt><trkpt lat="38.96674876" lon="-0.49582235"><ele>135.6</ele><time>2022-11-13T14:38:17.0000000+00:00</time></trkpt><trkpt lat="38.96673242" lon="-0.49582578"><ele>135.6</ele><time>2022-11-13T14:38:18.0000000+00:00</time></trkpt><trkpt lat="38.96671507" lon="-0.4958262"><ele>135.6</ele><time>2022-11-13T14:38:19.0000000+00:00</time></trkpt><trkpt lat="38.96669948" lon="-0.49582704"><ele>135.6</ele><time>2022-11-13T14:38:20.0000000+00:00</time></trkpt><trkpt lat="38.96668933" lon="-0.49583291"><ele>135.6</ele><time>2022-11-13T14:38:21.0000000+00:00</time></trkpt><trkpt lat="38.96667902" lon="-0.49584112"><ele>135.6</ele><time>2022-11-13T14:38:22.0000000+00:00</time></trkpt><trkpt lat="38.96666771" lon="-0.49584908"><ele>135.6</ele><time>2022-11-13T14:38:23.0000000+00:00</time></trkpt><trkpt lat="38.9666574" lon="-0.49585202"><ele>135.6</ele><time>2022-11-13T14:38:24.0000000+00:00</time></trkpt><trkpt lat="38.96665094" lon="-0.49585629"><ele>135.6</ele><time>2022-11-13T14:38:25.0000000+00:00</time></trkpt><trkpt lat="38.96664198" lon="-0.49585998"><ele>135.6</ele><time>2022-11-13T14:38:26.0000000+00:00</time></trkpt><trkpt lat="38.96663183" lon="-0.49586392"><ele>135.6</ele><time>2022-11-13T14:38:27.0000000+00:00</time></trkpt><trkpt lat="38.96662002" lon="-0.4958682"><ele>135.6</ele><time>2022-11-13T14:38:28.0000000+00:00</time></trkpt><trkpt lat="38.96660585" lon="-0.49586912"><ele>135.6</ele><time>2022-11-13T14:38:29.0000000+00:00</time></trkpt><trkpt lat="38.96659495" lon="-0.49587507"><ele>135.6</ele><time>2022-11-13T14:38:30.0000000+00:00</time></trkpt><trkpt lat="38.96658322" lon="-0.49587943"><ele>135.6</ele><time>2022-11-13T14:38:31.0000000+00:00</time></trkpt><trkpt lat="38.96656729" lon="-0.49588437"><ele>135.6</ele><time>2022-11-13T14:38:32.0000000+00:00</time></trkpt><trkpt lat="38.96655656" lon="-0.49589443"><ele>135.6</ele><time>2022-11-13T14:38:33.0000000+00:00</time></trkpt><trkpt lat="38.96654441" lon="-0.49590055"><ele>135.6</ele><time>2022-11-13T14:38:34.0000000+00:00</time></trkpt><trkpt lat="38.96653435" lon="-0.49590533"><ele>135.6</ele><time>2022-11-13T14:38:35.0000000+00:00</time></trkpt><trkpt lat="38.96652522" lon="-0.49590767"><ele>135.6</ele><time>2022-11-13T14:38:36.0000000+00:00</time></trkpt><trkpt lat="38.96651222" lon="-0.49590566"><ele>135.6</ele><time>2022-11-13T14:38:37.0000000+00:00</time></trkpt><trkpt lat="38.96650124" lon="-0.49590223"><ele>135.6</ele><time>2022-11-13T14:38:38.0000000+00:00</time></trkpt><trkpt lat="38.96649119" lon="-0.49590055"><ele>135.6</ele><time>2022-11-13T14:38:39.0000000+00:00</time></trkpt><trkpt lat="38.9664854" lon="-0.495906"><ele>135.6</ele><time>2022-11-13T14:38:40.0000000+00:00</time></trkpt><trkpt lat="38.96648104" lon="-0.49591145"><ele>135.8</ele><time>2022-11-13T14:38:41.0000000+00:00</time></trkpt><trkpt lat="38.9664652" lon="-0.4959117"><ele>136.0</ele><time>2022-11-13T14:38:42.0000000+00:00</time></trkpt><trkpt lat="38.96644617" lon="-0.49590868"><ele>136.0</ele><time>2022-11-13T14:38:43.0000000+00:00</time></trkpt><trkpt lat="38.9664217" lon="-0.49590726"><ele>136.0</ele><time>2022-11-13T14:38:44.0000000+00:00</time></trkpt><trkpt lat="38.96640251" lon="-0.49590197"><ele>136.2</ele><time>2022-11-13T14:38:45.0000000+00:00</time></trkpt><trkpt lat="38.96639722" lon="-0.4959008"><ele>136.2</ele><time>2022-11-13T14:38:46.0000000+00:00</time></trkpt><trkpt lat="38.96639588" lon="-0.49590298"><ele>136.2</ele><time>2022-11-13T14:38:47.0000000+00:00</time></trkpt><trkpt lat="38.96639077" lon="-0.4959039"><ele>136.2</ele><time>2022-11-13T14:38:48.0000000+00:00</time></trkpt><trkpt lat="38.96638817" lon="-0.4959117"><ele>136.2</ele><time>2022-11-13T14:38:49.0000000+00:00</time></trkpt><trkpt lat="38.96637644" lon="-0.49590063"><ele>136.2</ele><time>2022-11-13T14:38:50.0000000+00:00</time></trkpt><trkpt lat="38.96636068" lon="-0.49589862"><ele>136.0</ele><time>2022-11-13T14:38:51.0000000+00:00</time></trkpt><trkpt lat="38.96634283" lon="-0.49590491"><ele>136.0</ele><time>2022-11-13T14:38:52.0000000+00:00</time></trkpt><trkpt lat="38.96632372" lon="-0.49590399"><ele>136.0</ele><time>2022-11-13T14:38:53.0000000+00:00</time></trkpt><trkpt lat="38.96630921" lon="-0.49590566"><ele>135.8</ele><time>2022-11-13T14:38:54.0000000+00:00</time></trkpt><trkpt lat="38.96629111" lon="-0.49589996"><ele>135.8</ele><time>2022-11-13T14:38:55.0000000+00:00</time></trkpt><trkpt lat="38.96627569" lon="-0.49589745"><ele>135.8</ele><time>2022-11-13T14:38:56.0000000+00:00</time></trkpt><trkpt lat="38.96626504" lon="-0.49590541"><ele>135.8</ele><time>2022-11-13T14:38:57.0000000+00:00</time></trkpt><trkpt lat="38.96625406" lon="-0.49591237"><ele>135.8</ele><time>2022-11-13T14:38:58.0000000+00:00</time></trkpt><trkpt lat="38.96624509" lon="-0.49591849"><ele>135.8</ele><time>2022-11-13T14:38:59.0000000+00:00</time></trkpt><trkpt lat="38.96623914" lon="-0.49592737"><ele>135.8</ele><time>2022-11-13T14:39:00.0000000+00:00</time></trkpt><trkpt lat="38.96622942" lon="-0.49593424"><ele>135.8</ele><time>2022-11-13T14:39:01.0000000+00:00</time></trkpt><trkpt lat="38.96621953" lon="-0.49594045"><ele>135.8</ele><time>2022-11-13T14:39:02.0000000+00:00</time></trkpt><trkpt lat="38.96620545" lon="-0.49594271"><ele>135.8</ele><time>2022-11-13T14:39:03.0000000+00:00</time></trkpt><trkpt lat="38.96618919" lon="-0.49593735"><ele>135.8</ele><time>2022-11-13T14:39:04.0000000+00:00</time></trkpt><trkpt lat="38.96616287" lon="-0.49593533"><ele>135.8</ele><time>2022-11-13T14:39:05.0000000+00:00</time></trkpt><trkpt lat="38.96614434" lon="-0.49593919"><ele>135.8</ele><time>2022-11-13T14:39:06.0000000+00:00</time></trkpt><trkpt lat="38.96613563" lon="-0.49594556"><ele>135.8</ele><time>2022-11-13T14:39:07.0000000+00:00</time></trkpt><trkpt lat="38.96612054" lon="-0.49595"><ele>135.8</ele><time>2022-11-13T14:39:08.0000000+00:00</time></trkpt><trkpt lat="38.96610713" lon="-0.49595151"><ele>135.6</ele><time>2022-11-13T14:39:09.0000000+00:00</time></trkpt><trkpt lat="38.96609439" lon="-0.49595495"><ele>135.6</ele><time>2022-11-13T14:39:10.0000000+00:00</time></trkpt><trkpt lat="38.96608458" lon="-0.49595704"><ele>135.6</ele><time>2022-11-13T14:39:11.0000000+00:00</time></trkpt><trkpt lat="38.9660731" lon="-0.49595989"><ele>135.6</ele><time>2022-11-13T14:39:12.0000000+00:00</time></trkpt><trkpt lat="38.96605784" lon="-0.49596543"><ele>135.6</ele><time>2022-11-13T14:39:13.0000000+00:00</time></trkpt><trkpt lat="38.96604259" lon="-0.49596861"><ele>135.6</ele><time>2022-11-13T14:39:14.0000000+00:00</time></trkpt><trkpt lat="38.96602674" lon="-0.49596945"><ele>135.8</ele><time>2022-11-13T14:39:15.0000000+00:00</time></trkpt><trkpt lat="38.96600721" lon="-0.4959609"><ele>135.8</ele><time>2022-11-13T14:39:16.0000000+00:00</time></trkpt><trkpt lat="38.96599162" lon="-0.49596182"><ele>135.8</ele><time>2022-11-13T14:39:17.0000000+00:00</time></trkpt><trkpt lat="38.96597033" lon="-0.49596517"><ele>135.8</ele><time>2022-11-13T14:39:18.0000000+00:00</time></trkpt><trkpt lat="38.96595223" lon="-0.49596677"><ele>135.8</ele><time>2022-11-13T14:39:19.0000000+00:00</time></trkpt><trkpt lat="38.96594368" lon="-0.49597674"><ele>135.8</ele><time>2022-11-13T14:39:20.0000000+00:00</time></trkpt><trkpt lat="38.96593329" lon="-0.49598705"><ele>135.8</ele><time>2022-11-13T14:39:21.0000000+00:00</time></trkpt><trkpt lat="38.96592281" lon="-0.49599988"><ele>135.8</ele><time>2022-11-13T14:39:22.0000000+00:00</time></trkpt><trkpt lat="38.96591585" lon="-0.49601387"><ele>135.8</ele><time>2022-11-13T14:39:23.0000000+00:00</time></trkpt><trkpt lat="38.96590898" lon="-0.49602225"><ele>135.8</ele><time>2022-11-13T14:39:24.0000000+00:00</time></trkpt><trkpt lat="38.96589942" lon="-0.49603147"><ele>135.6</ele><time>2022-11-13T14:39:25.0000000+00:00</time></trkpt><trkpt lat="38.96589096" lon="-0.4960417"><ele>135.6</ele><time>2022-11-13T14:39:26.0000000+00:00</time></trkpt><trkpt lat="38.96587604" lon="-0.496051"><ele>135.6</ele><time>2022-11-13T14:39:27.0000000+00:00</time></trkpt><trkpt lat="38.96586548" lon="-0.49605327"><ele>135.6</ele><time>2022-11-13T14:39:28.0000000+00:00</time></trkpt><trkpt lat="38.96585299" lon="-0.49606039"><ele>135.6</ele><time>2022-11-13T14:39:29.0000000+00:00</time></trkpt><trkpt lat="38.96584109" lon="-0.49606861"><ele>135.6</ele><time>2022-11-13T14:39:30.0000000+00:00</time></trkpt><trkpt lat="38.96583287" lon="-0.49607942"><ele>135.6</ele><time>2022-11-13T14:39:31.0000000+00:00</time></trkpt><trkpt lat="38.96583052" lon="-0.49609048"><ele>135.6</ele><time>2022-11-13T14:39:32.0000000+00:00</time></trkpt><trkpt lat="38.96582759" lon="-0.4961028"><ele>135.6</ele><time>2022-11-13T14:39:33.0000000+00:00</time></trkpt><trkpt lat="38.96581762" lon="-0.4961075"><ele>135.6</ele><time>2022-11-13T14:39:34.0000000+00:00</time></trkpt><trkpt lat="38.96580513" lon="-0.49611747"><ele>135.6</ele><time>2022-11-13T14:39:35.0000000+00:00</time></trkpt><trkpt lat="38.96579457" lon="-0.49613047"><ele>135.6</ele><time>2022-11-13T14:39:36.0000000+00:00</time></trkpt><trkpt lat="38.96578241" lon="-0.49614245"><ele>135.6</ele><time>2022-11-13T14:39:37.0000000+00:00</time></trkpt><trkpt lat="38.965768" lon="-0.49614958"><ele>135.6</ele><time>2022-11-13T14:39:38.0000000+00:00</time></trkpt><trkpt lat="38.96575584" lon="-0.49614681"><ele>135.6</ele><time>2022-11-13T14:39:39.0000000+00:00</time></trkpt><trkpt lat="38.96574134" lon="-0.49614807"><ele>135.6</ele><time>2022-11-13T14:39:40.0000000+00:00</time></trkpt><trkpt lat="38.96572701" lon="-0.49615142"><ele>135.6</ele><time>2022-11-13T14:39:41.0000000+00:00</time></trkpt><trkpt lat="38.96571611" lon="-0.49615335"><ele>135.6</ele><time>2022-11-13T14:39:42.0000000+00:00</time></trkpt><trkpt lat="38.96569935" lon="-0.49614916"><ele>135.6</ele><time>2022-11-13T14:39:43.0000000+00:00</time></trkpt><trkpt lat="38.96569264" lon="-0.49615067"><ele>135.6</ele><time>2022-11-13T14:39:44.0000000+00:00</time></trkpt><trkpt lat="38.96568946" lon="-0.496151"><ele>135.6</ele><time>2022-11-13T14:39:45.0000000+00:00</time></trkpt><trkpt lat="38.9656846" lon="-0.49614891"><ele>135.6</ele><time>2022-11-13T14:39:46.0000000+00:00</time></trkpt><trkpt lat="38.96567361" lon="-0.49614815"><ele>135.6</ele><time>2022-11-13T14:39:47.0000000+00:00</time></trkpt><trkpt lat="38.96566448" lon="-0.49615108"><ele>135.6</ele><time>2022-11-13T14:39:48.0000000+00:00</time></trkpt><trkpt lat="38.96565517" lon="-0.49615251"><ele>135.4</ele><time>2022-11-13T14:39:49.0000000+00:00</time></trkpt><trkpt lat="38.96564746" lon="-0.49615972"><ele>135.4</ele><time>2022-11-13T14:39:50.0000000+00:00</time></trkpt><trkpt lat="38.96563808" lon="-0.49617103"><ele>135.6</ele><time>2022-11-13T14:39:51.0000000+00:00</time></trkpt><trkpt lat="38.96563196" lon="-0.49617229"><ele>135.6</ele><time>2022-11-13T14:39:52.0000000+00:00</time></trkpt><trkpt lat="38.96562911" lon="-0.49617606"><ele>135.6</ele><time>2022-11-13T14:39:53.0000000+00:00</time></trkpt><trkpt lat="38.96563154" lon="-0.49618084"><ele>135.4</ele><time>2022-11-13T14:39:54.0000000+00:00</time></trkpt><trkpt lat="38.96563539" lon="-0.49619132"><ele>135.4</ele><time>2022-11-13T14:39:55.0000000+00:00</time></trkpt><trkpt lat="38.96565559" lon="-0.4961914"><ele>135.4</ele><time>2022-11-13T14:39:56.0000000+00:00</time></trkpt><trkpt lat="38.96566523" lon="-0.49620775"><ele>135.4</ele><time>2022-11-13T14:39:57.0000000+00:00</time></trkpt><trkpt lat="38.96566641" lon="-0.49621755"><ele>135.4</ele><time>2022-11-13T14:39:58.0000000+00:00</time></trkpt><trkpt lat="38.96567093" lon="-0.4962292"><ele>135.4</ele><time>2022-11-13T14:39:59.0000000+00:00</time></trkpt><trkpt lat="38.9656732" lon="-0.4962313"><ele>135.6</ele><time>2022-11-13T14:40:00.0000000+00:00</time></trkpt><trkpt lat="38.96566649" lon="-0.49621814"><ele>135.6</ele><time>2022-11-13T14:40:01.0000000+00:00</time></trkpt><trkpt lat="38.96565978" lon="-0.49619928"><ele>135.6</ele><time>2022-11-13T14:40:02.0000000+00:00</time></trkpt><trkpt lat="38.96565593" lon="-0.49618771"><ele>135.6</ele><time>2022-11-13T14:40:03.0000000+00:00</time></trkpt><trkpt lat="38.96564872" lon="-0.49618495"><ele>135.6</ele><time>2022-11-13T14:40:04.0000000+00:00</time></trkpt><trkpt lat="38.96563707" lon="-0.49617925"><ele>135.6</ele><time>2022-11-13T14:40:05.0000000+00:00</time></trkpt><trkpt lat="38.96562508" lon="-0.49617514"><ele>135.6</ele><time>2022-11-13T14:40:06.0000000+00:00</time></trkpt><trkpt lat="38.96561083" lon="-0.49617833"><ele>135.6</ele><time>2022-11-13T14:40:07.0000000+00:00</time></trkpt><trkpt lat="38.96559751" lon="-0.49617791"><ele>135.6</ele><time>2022-11-13T14:40:08.0000000+00:00</time></trkpt><trkpt lat="38.96558091" lon="-0.49617229"><ele>135.6</ele><time>2022-11-13T14:40:09.0000000+00:00</time></trkpt><trkpt lat="38.96556524" lon="-0.49617631"><ele>135.8</ele><time>2022-11-13T14:40:10.0000000+00:00</time></trkpt><trkpt lat="38.96555074" lon="-0.49617807"><ele>135.6</ele><time>2022-11-13T14:40:11.0000000+00:00</time></trkpt><trkpt lat="38.96552827" lon="-0.49619065"><ele>135.6</ele><time>2022-11-13T14:40:12.0000000+00:00</time></trkpt><trkpt lat="38.96550782" lon="-0.49619702"><ele>135.6</ele><time>2022-11-13T14:40:13.0000000+00:00</time></trkpt><trkpt lat="38.96550153" lon="-0.49620012"><ele>135.6</ele><time>2022-11-13T14:40:14.0000000+00:00</time></trkpt><trkpt lat="38.96549961" lon="-0.49620431"><ele>135.6</ele><time>2022-11-13T14:40:15.0000000+00:00</time></trkpt><trkpt lat="38.96549919" lon="-0.49620775"><ele>135.6</ele><time>2022-11-13T14:40:16.0000000+00:00</time></trkpt><trkpt lat="38.96549843" lon="-0.49620917"><ele>135.6</ele><time>2022-11-13T14:40:17.0000000+00:00</time></trkpt><trkpt lat="38.96549785" lon="-0.49621026"><ele>135.6</ele><time>2022-11-13T14:40:18.0000000+00:00</time></trkpt><trkpt lat="38.96549827" lon="-0.49620984"><ele>135.6</ele><time>2022-11-13T14:40:19.0000000+00:00</time></trkpt><trkpt lat="38.9654986" lon="-0.49620808"><ele>135.6</ele><time>2022-11-13T14:40:20.0000000+00:00</time></trkpt><trkpt lat="38.96549868" lon="-0.49620691"><ele>135.6</ele><time>2022-11-13T14:40:21.0000000+00:00</time></trkpt><trkpt lat="38.96549047" lon="-0.49621143"><ele>135.6</ele><time>2022-11-13T14:40:22.0000000+00:00</time></trkpt><trkpt lat="38.9654763" lon="-0.49621881"><ele>135.6</ele><time>2022-11-13T14:40:23.0000000+00:00</time></trkpt><trkpt lat="38.96546708" lon="-0.4962313"><ele>135.6</ele><time>2022-11-13T14:40:24.0000000+00:00</time></trkpt><trkpt lat="38.96546197" lon="-0.49624295"><ele>135.6</ele><time>2022-11-13T14:40:25.0000000+00:00</time></trkpt><trkpt lat="38.96545384" lon="-0.49625049"><ele>135.6</ele><time>2022-11-13T14:40:26.0000000+00:00</time></trkpt><trkpt lat="38.96544881" lon="-0.49626684"><ele>135.6</ele><time>2022-11-13T14:40:27.0000000+00:00</time></trkpt><trkpt lat="38.96544437" lon="-0.49628268"><ele>135.6</ele><time>2022-11-13T14:40:28.0000000+00:00</time></trkpt><trkpt lat="38.96543716" lon="-0.49629165"><ele>135.6</ele><time>2022-11-13T14:40:29.0000000+00:00</time></trkpt><trkpt lat="38.96543305" lon="-0.49630246"><ele>135.6</ele><time>2022-11-13T14:40:30.0000000+00:00</time></trkpt><trkpt lat="38.96541981" lon="-0.49630908"><ele>135.6</ele><time>2022-11-13T14:40:31.0000000+00:00</time></trkpt><trkpt lat="38.96540841" lon="-0.49631679"><ele>135.6</ele><time>2022-11-13T14:40:32.0000000+00:00</time></trkpt><trkpt lat="38.96540212" lon="-0.49632585"><ele>135.6</ele><time>2022-11-13T14:40:33.0000000+00:00</time></trkpt><trkpt lat="38.96539374" lon="-0.49633079"><ele>135.8</ele><time>2022-11-13T14:40:34.0000000+00:00</time></trkpt><trkpt lat="38.96538729" lon="-0.49633448"><ele>135.8</ele><time>2022-11-13T14:40:35.0000000+00:00</time></trkpt><trkpt lat="38.96538352" lon="-0.49633959"><ele>135.8</ele><time>2022-11-13T14:40:36.0000000+00:00</time></trkpt><trkpt lat="38.96538134" lon="-0.49634219"><ele>135.8</ele><time>2022-11-13T14:40:37.0000000+00:00</time></trkpt><trkpt lat="38.9653805" lon="-0.49634605"><ele>136.0</ele><time>2022-11-13T14:40:38.0000000+00:00</time></trkpt><trkpt lat="38.96537958" lon="-0.49634638"><ele>136.2</ele><time>2022-11-13T14:40:39.0000000+00:00</time></trkpt><trkpt lat="38.96537824" lon="-0.49634387"><ele>136.2</ele><time>2022-11-13T14:40:40.0000000+00:00</time></trkpt><trkpt lat="38.9653774" lon="-0.49634202"><ele>136.2</ele><time>2022-11-13T14:40:41.0000000+00:00</time></trkpt><trkpt lat="38.96537765" lon="-0.49634194"><ele>136.2</ele><time>2022-11-13T14:40:42.0000000+00:00</time></trkpt><trkpt lat="38.96537824" lon="-0.4963406"><ele>136.2</ele><time>2022-11-13T14:40:43.0000000+00:00</time></trkpt><trkpt lat="38.96537807" lon="-0.496338"><ele>136.2</ele><time>2022-11-13T14:40:44.0000000+00:00</time></trkpt><trkpt lat="38.96537807" lon="-0.49633783"><ele>136.2</ele><time>2022-11-13T14:40:45.0000000+00:00</time></trkpt><trkpt lat="38.96537824" lon="-0.4963344"><ele>136.4</ele><time>2022-11-13T14:40:46.0000000+00:00</time></trkpt><trkpt lat="38.96537723" lon="-0.49633331"><ele>136.4</ele><time>2022-11-13T14:40:47.0000000+00:00</time></trkpt><trkpt lat="38.96537614" lon="-0.49633322"><ele>136.4</ele><time>2022-11-13T14:40:48.0000000+00:00</time></trkpt><trkpt lat="38.96537572" lon="-0.49633507"><ele>136.4</ele><time>2022-11-13T14:40:49.0000000+00:00</time></trkpt><trkpt lat="38.96537522" lon="-0.49633482"><ele>136.4</ele><time>2022-11-13T14:40:50.0000000+00:00</time></trkpt><trkpt lat="38.96537371" lon="-0.4963349"><ele>136.4</ele><time>2022-11-13T14:40:51.0000000+00:00</time></trkpt><trkpt lat="38.96537187" lon="-0.49633582"><ele>136.4</ele><time>2022-11-13T14:40:52.0000000+00:00</time></trkpt><trkpt lat="38.96536985" lon="-0.49633674"><ele>136.4</ele><time>2022-11-13T14:40:53.0000000+00:00</time></trkpt><trkpt lat="38.9653712" lon="-0.49633498"><ele>136.4</ele><time>2022-11-13T14:40:54.0000000+00:00</time></trkpt><trkpt lat="38.96536985" lon="-0.49633247"><ele>136.4</ele><time>2022-11-13T14:40:55.0000000+00:00</time></trkpt><trkpt lat="38.96536952" lon="-0.49632954"><ele>136.4</ele><time>2022-11-13T14:40:56.0000000+00:00</time></trkpt><trkpt lat="38.96536952" lon="-0.49632895"><ele>136.4</ele><time>2022-11-13T14:40:57.0000000+00:00</time></trkpt><trkpt lat="38.96536876" lon="-0.4963292"><ele>136.4</ele><time>2022-11-13T14:40:58.0000000+00:00</time></trkpt><trkpt lat="38.96536768" lon="-0.49632174"><ele>136.4</ele><time>2022-11-13T14:40:59.0000000+00:00</time></trkpt><trkpt lat="38.9653655" lon="-0.49631881"><ele>136.2</ele><time>2022-11-13T14:41:00.0000000+00:00</time></trkpt><trkpt lat="38.96536508" lon="-0.49632015"><ele>136.2</ele><time>2022-11-13T14:41:01.0000000+00:00</time></trkpt><trkpt lat="38.96536524" lon="-0.49633012"><ele>136.2</ele><time>2022-11-13T14:41:02.0000000+00:00</time></trkpt><trkpt lat="38.96536063" lon="-0.49633624"><ele>136.2</ele><time>2022-11-13T14:41:03.0000000+00:00</time></trkpt><trkpt lat="38.96535334" lon="-0.49634278"><ele>136.2</ele><time>2022-11-13T14:41:04.0000000+00:00</time></trkpt><trkpt lat="38.96534605" lon="-0.49635225"><ele>136.2</ele><time>2022-11-13T14:41:05.0000000+00:00</time></trkpt><trkpt lat="38.96533884" lon="-0.49636357"><ele>136.2</ele><time>2022-11-13T14:41:06.0000000+00:00</time></trkpt><trkpt lat="38.9653323" lon="-0.49637136"><ele>136.2</ele><time>2022-11-13T14:41:07.0000000+00:00</time></trkpt><trkpt lat="38.96532711" lon="-0.49637899"><ele>136.2</ele><time>2022-11-13T14:41:08.0000000+00:00</time></trkpt><trkpt lat="38.96532551" lon="-0.4963846"><ele>136.2</ele><time>2022-11-13T14:41:09.0000000+00:00</time></trkpt><trkpt lat="38.96532292" lon="-0.49638896"><ele>136.4</ele><time>2022-11-13T14:41:10.0000000+00:00</time></trkpt><trkpt lat="38.96532392" lon="-0.4963924"><ele>136.4</ele><time>2022-11-13T14:41:11.0000000+00:00</time></trkpt><trkpt lat="38.96532459" lon="-0.49639416"><ele>136.4</ele><time>2022-11-13T14:41:12.0000000+00:00</time></trkpt><trkpt lat="38.96532392" lon="-0.49639382"><ele>136.2</ele><time>2022-11-13T14:41:13.0000000+00:00</time></trkpt><trkpt lat="38.96532468" lon="-0.49639307"><ele>136.2</ele><time>2022-11-13T14:41:14.0000000+00:00</time></trkpt><trkpt lat="38.96532392" lon="-0.49639248"><ele>136.2</ele><time>2022-11-13T14:41:15.0000000+00:00</time></trkpt><trkpt lat="38.96532292" lon="-0.49639215"><ele>136.2</ele><time>2022-11-13T14:41:16.0000000+00:00</time></trkpt><trkpt lat="38.96532225" lon="-0.49639232"><ele>136.2</ele><time>2022-11-13T14:41:17.0000000+00:00</time></trkpt><trkpt lat="38.96531764" lon="-0.49638687"><ele>136.2</ele><time>2022-11-13T14:41:18.0000000+00:00</time></trkpt><trkpt lat="38.96531453" lon="-0.49638511"><ele>136.2</ele><time>2022-11-13T14:41:19.0000000+00:00</time></trkpt><trkpt lat="38.9653168" lon="-0.49638921"><ele>136.2</ele><time>2022-11-13T14:41:20.0000000+00:00</time></trkpt><trkpt lat="38.96531831" lon="-0.49639349"><ele>136.0</ele><time>2022-11-13T14:41:21.0000000+00:00</time></trkpt><trkpt lat="38.96531822" lon="-0.49639567"><ele>136.0</ele><time>2022-11-13T14:41:22.0000000+00:00</time></trkpt><trkpt lat="38.96532107" lon="-0.49640095"><ele>136.0</ele><time>2022-11-13T14:41:23.0000000+00:00</time></trkpt><trkpt lat="38.96532049" lon="-0.49640003"><ele>136.0</ele><time>2022-11-13T14:41:24.0000000+00:00</time></trkpt><trkpt lat="38.96532283" lon="-0.49640237"><ele>136.0</ele><time>2022-11-13T14:41:25.0000000+00:00</time></trkpt><trkpt lat="38.96532166" lon="-0.49640087"><ele>136.0</ele><time>2022-11-13T14:41:26.0000000+00:00</time></trkpt><trkpt lat="38.96532191" lon="-0.49640464"><ele>136.0</ele><time>2022-11-13T14:41:27.0000000+00:00</time></trkpt><trkpt lat="38.96532476" lon="-0.496409"><ele>136.0</ele><time>2022-11-13T14:41:28.0000000+00:00</time></trkpt><trkpt lat="38.96532442" lon="-0.49641017"><ele>136.0</ele><time>2022-11-13T14:41:29.0000000+00:00</time></trkpt><trkpt lat="38.96532426" lon="-0.49641009"><ele>136.0</ele><time>2022-11-13T14:41:30.0000000+00:00</time></trkpt><trkpt lat="38.96532484" lon="-0.49640983"><ele>136.0</ele><time>2022-11-13T14:41:31.0000000+00:00</time></trkpt><trkpt lat="38.96532191" lon="-0.49641009"><ele>136.0</ele><time>2022-11-13T14:41:32.0000000+00:00</time></trkpt><trkpt lat="38.96532476" lon="-0.49641369"><ele>136.0</ele><time>2022-11-13T14:41:33.0000000+00:00</time></trkpt><trkpt lat="38.96532644" lon="-0.49641537"><ele>136.0</ele><time>2022-11-13T14:41:34.0000000+00:00</time></trkpt><trkpt lat="38.96532644" lon="-0.49641562"><ele>136.0</ele><time>2022-11-13T14:41:35.0000000+00:00</time></trkpt><trkpt lat="38.96532652" lon="-0.49641662"><ele>136.0</ele><time>2022-11-13T14:41:36.0000000+00:00</time></trkpt><trkpt lat="38.96532727" lon="-0.49641897"><ele>136.0</ele><time>2022-11-13T14:41:37.0000000+00:00</time></trkpt><trkpt lat="38.96532878" lon="-0.49642056"><ele>136.0</ele><time>2022-11-13T14:41:38.0000000+00:00</time></trkpt><trkpt lat="38.96532895" lon="-0.4964204"><ele>136.0</ele><time>2022-11-13T14:41:39.0000000+00:00</time></trkpt><trkpt lat="38.96532895" lon="-0.4964204"><ele>136.0</ele><time>2022-11-13T14:41:40.0000000+00:00</time></trkpt><trkpt lat="38.96532895" lon="-0.4964204"><ele>136.0</ele><time>2022-11-13T14:41:41.0000000+00:00</time></trkpt><trkpt lat="38.96532895" lon="-0.4964204"><ele>136.0</ele><time>2022-11-13T14:41:42.0000000+00:00</time></trkpt><trkpt lat="38.96532895" lon="-0.4964204"><ele>136.0</ele><time>2022-11-13T14:41:43.0000000+00:00</time></trkpt><trkpt lat="38.96532895" lon="-0.4964204"><ele>136.0</ele><time>2022-11-13T14:41:44.0000000+00:00</time></trkpt><trkpt lat="38.96532895" lon="-0.4964204"><ele>136.0</ele><time>2022-11-13T14:41:45.0000000+00:00</time></trkpt><trkpt lat="38.96532895" lon="-0.4964204"><ele>136.0</ele><time>2022-11-13T14:41:46.0000000+00:00</time></trkpt><trkpt lat="38.96532895" lon="-0.4964204"><ele>136.0</ele><time>2022-11-13T14:41:47.0000000+00:00</time></trkpt><trkpt lat="38.96532878" lon="-0.49641905"><ele>136.0</ele><time>2022-11-13T14:41:48.0000000+00:00</time></trkpt><trkpt lat="38.96532878" lon="-0.49641863"><ele>136.0</ele><time>2022-11-13T14:41:49.0000000+00:00</time></trkpt><trkpt lat="38.96532878" lon="-0.49641738"><ele>136.0</ele><time>2022-11-13T14:41:50.0000000+00:00</time></trkpt><trkpt lat="38.96532878" lon="-0.49641671"><ele>136.0</ele><time>2022-11-13T14:41:51.0000000+00:00</time></trkpt><trkpt lat="38.96532878" lon="-0.49641612"><ele>136.0</ele><time>2022-11-13T14:41:52.0000000+00:00</time></trkpt><trkpt lat="38.96532878" lon="-0.49641562"><ele>136.0</ele><time>2022-11-13T14:41:53.0000000+00:00</time></trkpt><trkpt lat="38.96532878" lon="-0.49641537"><ele>136.0</ele><time>2022-11-13T14:41:54.0000000+00:00</time></trkpt><trkpt lat="38.96532878" lon="-0.49641537"><ele>136.0</ele><time>2022-11-13T14:41:55.0000000+00:00</time></trkpt><trkpt lat="38.96532878" lon="-0.49641537"><ele>136.0</ele><time>2022-11-13T14:41:56.0000000+00:00</time></trkpt><trkpt lat="38.96532878" lon="-0.49641537"><ele>136.0</ele><time>2022-11-13T14:41:57.0000000+00:00</time></trkpt><trkpt lat="38.96532878" lon="-0.49641537"><ele>136.0</ele><time>2022-11-13T14:41:58.0000000+00:00</time></trkpt><trkpt lat="38.96532878" lon="-0.49641537"><ele>136.0</ele><time>2022-11-13T14:41:59.0000000+00:00</time></trkpt><trkpt lat="38.96532878" lon="-0.49641537"><ele>136.0</ele><time>2022-11-13T14:42:00.0000000+00:00</time></trkpt><trkpt lat="38.96532895" lon="-0.49641553"><ele>136.0</ele><time>2022-11-13T14:42:01.0000000+00:00</time></trkpt><trkpt lat="38.96532903" lon="-0.49641579"><ele>136.0</ele><time>2022-11-13T14:42:02.0000000+00:00</time></trkpt><trkpt lat="38.96532903" lon="-0.49641604"><ele>136.0</ele><time>2022-11-13T14:42:03.0000000+00:00</time></trkpt><trkpt lat="38.9653292" lon="-0.49641662"><ele>136.0</ele><time>2022-11-13T14:42:04.0000000+00:00</time></trkpt><trkpt lat="38.96532929" lon="-0.49641721"><ele>136.0</ele><time>2022-11-13T14:42:05.0000000+00:00</time></trkpt><trkpt lat="38.96532929" lon="-0.49641729"><ele>136.0</ele><time>2022-11-13T14:42:06.0000000+00:00</time></trkpt><trkpt lat="38.96532929" lon="-0.49641713"><ele>136.0</ele><time>2022-11-13T14:42:07.0000000+00:00</time></trkpt><trkpt lat="38.96532929" lon="-0.4964162"><ele>136.0</ele><time>2022-11-13T14:42:08.0000000+00:00</time></trkpt><trkpt lat="38.96532929" lon="-0.49641612"><ele>136.0</ele><time>2022-11-13T14:42:09.0000000+00:00</time></trkpt><trkpt lat="38.96532929" lon="-0.49641604"><ele>136.0</ele><time>2022-11-13T14:42:10.0000000+00:00</time></trkpt><trkpt lat="38.96532929" lon="-0.49641604"><ele>136.0</ele><time>2022-11-13T14:42:11.0000000+00:00</time></trkpt><trkpt lat="38.96532929" lon="-0.49641679"><ele>136.0</ele><time>2022-11-13T14:42:12.0000000+00:00</time></trkpt><trkpt lat="38.96532929" lon="-0.49641704"><ele>136.0</ele><time>2022-11-13T14:42:13.0000000+00:00</time></trkpt><trkpt lat="38.96532929" lon="-0.49641738"><ele>136.0</ele><time>2022-11-13T14:42:14.0000000+00:00</time></trkpt><trkpt lat="38.96532929" lon="-0.49641788"><ele>136.0</ele><time>2022-11-13T14:42:15.0000000+00:00</time></trkpt><trkpt lat="38.96532929" lon="-0.49641805"><ele>136.0</ele><time>2022-11-13T14:42:16.0000000+00:00</time></trkpt><trkpt lat="38.96532929" lon="-0.49641813"><ele>136.0</ele><time>2022-11-13T14:42:17.0000000+00:00</time></trkpt><trkpt lat="38.96532929" lon="-0.49641822"><ele>136.0</ele><time>2022-11-13T14:42:18.0000000+00:00</time></trkpt><trkpt lat="38.9653292" lon="-0.49641863"><ele>136.0</ele><time>2022-11-13T14:42:19.0000000+00:00</time></trkpt><trkpt lat="38.96532769" lon="-0.4964188"><ele>136.0</ele><time>2022-11-13T14:42:20.0000000+00:00</time></trkpt><trkpt lat="38.96532744" lon="-0.49641956"><ele>136.0</ele><time>2022-11-13T14:42:21.0000000+00:00</time></trkpt><trkpt lat="38.96532736" lon="-0.49641981"><ele>136.0</ele><time>2022-11-13T14:42:22.0000000+00:00</time></trkpt><trkpt lat="38.96532736" lon="-0.49642031"><ele>136.0</ele><time>2022-11-13T14:42:23.0000000+00:00</time></trkpt><trkpt lat="38.96532736" lon="-0.49642081"><ele>136.0</ele><time>2022-11-13T14:42:24.0000000+00:00</time></trkpt><trkpt lat="38.96532736" lon="-0.49642123"><ele>136.0</ele><time>2022-11-13T14:42:25.0000000+00:00</time></trkpt><trkpt lat="38.96532736" lon="-0.4964214"><ele>136.0</ele><time>2022-11-13T14:42:26.0000000+00:00</time></trkpt><trkpt lat="38.96532736" lon="-0.4964214"><ele>136.0</ele><time>2022-11-13T14:42:27.0000000+00:00</time></trkpt><trkpt lat="38.96532736" lon="-0.4964214"><ele>136.0</ele><time>2022-11-13T14:42:28.0000000+00:00</time></trkpt><trkpt lat="38.96532736" lon="-0.4964214"><ele>136.0</ele><time>2022-11-13T14:42:29.0000000+00:00</time></trkpt><trkpt lat="38.96532736" lon="-0.4964214"><ele>136.0</ele><time>2022-11-13T14:42:30.0000000+00:00</time></trkpt><trkpt lat="38.96532736" lon="-0.4964214"><ele>136.0</ele><time>2022-11-13T14:42:31.0000000+00:00</time></trkpt><trkpt lat="38.96532736" lon="-0.4964214"><ele>136.0</ele><time>2022-11-13T14:42:32.0000000+00:00</time></trkpt><trkpt lat="38.96532736" lon="-0.49642224"><ele>136.0</ele><time>2022-11-13T14:42:33.0000000+00:00</time></trkpt><trkpt lat="38.96532736" lon="-0.4964245"><ele>136.0</ele><time>2022-11-13T14:42:34.0000000+00:00</time></trkpt><trkpt lat="38.96532736" lon="-0.49642534"><ele>136.0</ele><time>2022-11-13T14:42:35.0000000+00:00</time></trkpt><trkpt lat="38.96532744" lon="-0.49642593"><ele>136.0</ele><time>2022-11-13T14:42:36.0000000+00:00</time></trkpt><trkpt lat="38.96532753" lon="-0.49642609"><ele>136.0</ele><time>2022-11-13T14:42:37.0000000+00:00</time></trkpt><trkpt lat="38.96532753" lon="-0.49642618"><ele>136.0</ele><time>2022-11-13T14:42:38.0000000+00:00</time></trkpt><trkpt lat="38.96532753" lon="-0.49642626"><ele>136.0</ele><time>2022-11-13T14:42:39.0000000+00:00</time></trkpt><trkpt lat="38.96532753" lon="-0.49642643"><ele>136.0</ele><time>2022-11-13T14:42:40.0000000+00:00</time></trkpt><trkpt lat="38.96532753" lon="-0.49642651"><ele>136.0</ele><time>2022-11-13T14:42:41.0000000+00:00</time></trkpt><trkpt lat="38.96532753" lon="-0.49642668"><ele>136.0</ele><time>2022-11-13T14:42:42.0000000+00:00</time></trkpt><trkpt lat="38.96532753" lon="-0.49642668"><ele>136.0</ele><time>2022-11-13T14:42:43.0000000+00:00</time></trkpt><trkpt lat="38.96532753" lon="-0.49642677"><ele>136.0</ele><time>2022-11-13T14:42:44.0000000+00:00</time></trkpt><trkpt lat="38.96532753" lon="-0.49642677"><ele>136.0</ele><time>2022-11-13T14:42:45.0000000+00:00</time></trkpt><trkpt lat="38.96532753" lon="-0.49642677"><ele>136.0</ele><time>2022-11-13T14:42:46.0000000+00:00</time></trkpt><trkpt lat="38.96532753" lon="-0.49642677"><ele>136.0</ele><time>2022-11-13T14:42:47.0000000+00:00</time></trkpt><trkpt lat="38.96532753" lon="-0.49642677"><ele>136.0</ele><time>2022-11-13T14:42:48.0000000+00:00</time></trkpt><trkpt lat="38.96532753" lon="-0.49642677"><ele>136.0</ele><time>2022-11-13T14:42:49.0000000+00:00</time></trkpt><trkpt lat="38.96532753" lon="-0.49642668"><ele>136.0</ele><time>2022-11-13T14:42:50.0000000+00:00</time></trkpt><trkpt lat="38.96532753" lon="-0.4964266"><ele>136.0</ele><time>2022-11-13T14:42:51.0000000+00:00</time></trkpt><trkpt lat="38.96532744" lon="-0.49642651"><ele>136.0</ele><time>2022-11-13T14:42:52.0000000+00:00</time></trkpt><trkpt lat="38.96532736" lon="-0.49642651"><ele>136.0</ele><time>2022-11-13T14:42:53.0000000+00:00</time></trkpt><trkpt lat="38.96532711" lon="-0.49642643"><ele>136.0</ele><time>2022-11-13T14:42:54.0000000+00:00</time></trkpt><trkpt lat="38.96532945" lon="-0.49642718"><ele>136.0</ele><time>2022-11-13T14:42:55.0000000+00:00</time></trkpt><trkpt lat="38.96533574" lon="-0.49642643"><ele>136.0</ele><time>2022-11-13T14:42:56.0000000+00:00</time></trkpt><trkpt lat="38.96533901" lon="-0.49642677"><ele>136.0</ele><time>2022-11-13T14:42:57.0000000+00:00</time></trkpt><trkpt lat="38.96534454" lon="-0.49642744"><ele>136.0</ele><time>2022-11-13T14:42:58.0000000+00:00</time></trkpt><trkpt lat="38.96535016" lon="-0.49642777"><ele>136.0</ele><time>2022-11-13T14:42:59.0000000+00:00</time></trkpt><trkpt lat="38.96535426" lon="-0.49642626"><ele>136.0</ele><time>2022-11-13T14:43:00.0000000+00:00</time></trkpt><trkpt lat="38.9653567" lon="-0.49642534"><ele>136.0</ele><time>2022-11-13T14:43:01.0000000+00:00</time></trkpt><trkpt lat="38.9653567" lon="-0.49642534"><ele>136.0</ele><time>2022-11-13T14:43:02.0000000+00:00</time></trkpt><trkpt lat="38.9653567" lon="-0.49642534"><ele>136.0</ele><time>2022-11-13T14:43:03.0000000+00:00</time></trkpt><trkpt lat="38.9653567" lon="-0.49642534"><ele>136.0</ele><time>2022-11-13T14:43:04.0000000+00:00</time></trkpt><trkpt lat="38.9653567" lon="-0.49642534"><ele>136.0</ele><time>2022-11-13T14:43:05.0000000+00:00</time></trkpt><trkpt lat="38.9653567" lon="-0.49642534"><ele>136.0</ele><time>2022-11-13T14:43:06.0000000+00:00</time></trkpt><trkpt lat="38.9653567" lon="-0.49642534"><ele>136.0</ele><time>2022-11-13T14:43:07.0000000+00:00</time></trkpt><trkpt lat="38.9653567" lon="-0.49642601"><ele>136.0</ele><time>2022-11-13T14:43:08.0000000+00:00</time></trkpt><trkpt lat="38.9653567" lon="-0.49642769"><ele>136.0</ele><time>2022-11-13T14:43:09.0000000+00:00</time></trkpt><trkpt lat="38.9653567" lon="-0.49642786"><ele>136.0</ele><time>2022-11-13T14:43:10.0000000+00:00</time></trkpt><trkpt lat="38.9653567" lon="-0.49642869"><ele>136.0</ele><time>2022-11-13T14:43:11.0000000+00:00</time></trkpt><trkpt lat="38.9653567" lon="-0.49642894"><ele>136.0</ele><time>2022-11-13T14:43:12.0000000+00:00</time></trkpt><trkpt lat="38.96535871" lon="-0.49642945"><ele>136.0</ele><time>2022-11-13T14:43:13.0000000+00:00</time></trkpt><trkpt lat="38.96536038" lon="-0.49643112"><ele>136.0</ele><time>2022-11-13T14:43:14.0000000+00:00</time></trkpt><trkpt lat="38.96536055" lon="-0.49643179"><ele>136.0</ele><time>2022-11-13T14:43:15.0000000+00:00</time></trkpt><trkpt lat="38.96536055" lon="-0.4964323"><ele>136.0</ele><time>2022-11-13T14:43:16.0000000+00:00</time></trkpt><trkpt lat="38.96536055" lon="-0.49643247"><ele>136.0</ele><time>2022-11-13T14:43:17.0000000+00:00</time></trkpt><trkpt lat="38.96536055" lon="-0.49643272"><ele>136.0</ele><time>2022-11-13T14:43:18.0000000+00:00</time></trkpt><trkpt lat="38.96536055" lon="-0.49643288"><ele>136.0</ele><time>2022-11-13T14:43:19.0000000+00:00</time></trkpt><trkpt lat="38.96536055" lon="-0.49643414"><ele>136.0</ele><time>2022-11-13T14:43:20.0000000+00:00</time></trkpt><trkpt lat="38.96536055" lon="-0.49643448"><ele>136.0</ele><time>2022-11-13T14:43:21.0000000+00:00</time></trkpt><trkpt lat="38.96536055" lon="-0.49643624"><ele>136.0</ele><time>2022-11-13T14:43:22.0000000+00:00</time></trkpt><trkpt lat="38.96536055" lon="-0.49643649"><ele>136.0</ele><time>2022-11-13T14:43:23.0000000+00:00</time></trkpt><trkpt lat="38.96536055" lon="-0.49643682"><ele>136.0</ele><time>2022-11-13T14:43:24.0000000+00:00</time></trkpt><trkpt lat="38.96536055" lon="-0.49644001"><ele>136.0</ele><time>2022-11-13T14:43:25.0000000+00:00</time></trkpt><trkpt lat="38.96536055" lon="-0.49644462"><ele>136.0</ele><time>2022-11-13T14:43:26.0000000+00:00</time></trkpt><trkpt lat="38.96536055" lon="-0.49644722"><ele>136.0</ele><time>2022-11-13T14:43:27.0000000+00:00</time></trkpt><trkpt lat="38.96536055" lon="-0.49644831"><ele>136.0</ele><time>2022-11-13T14:43:28.0000000+00:00</time></trkpt><trkpt lat="38.96536055" lon="-0.49644847"><ele>136.0</ele><time>2022-11-13T14:43:29.0000000+00:00</time></trkpt><trkpt lat="38.96535695" lon="-0.49644847"><ele>136.0</ele><time>2022-11-13T14:43:30.0000000+00:00</time></trkpt><trkpt lat="38.96535502" lon="-0.49644847"><ele>136.0</ele><time>2022-11-13T14:43:31.0000000+00:00</time></trkpt><trkpt lat="38.96535477" lon="-0.49644847"><ele>136.0</ele><time>2022-11-13T14:43:32.0000000+00:00</time></trkpt><trkpt lat="38.96535477" lon="-0.49644847"><ele>136.0</ele><time>2022-11-13T14:43:33.0000000+00:00</time></trkpt><trkpt lat="38.96535468" lon="-0.49644847"><ele>136.0</ele><time>2022-11-13T14:43:34.0000000+00:00</time></trkpt><trkpt lat="38.96535468" lon="-0.49644847"><ele>136.0</ele><time>2022-11-13T14:43:35.0000000+00:00</time></trkpt><trkpt lat="38.9653546" lon="-0.49644847"><ele>136.0</ele><time>2022-11-13T14:43:36.0000000+00:00</time></trkpt><trkpt lat="38.9653546" lon="-0.49644847"><ele>136.0</ele><time>2022-11-13T14:43:37.0000000+00:00</time></trkpt><trkpt lat="38.9653546" lon="-0.49644847"><ele>136.0</ele><time>2022-11-13T14:43:38.0000000+00:00</time></trkpt><trkpt lat="38.96535452" lon="-0.49644873"><ele>136.0</ele><time>2022-11-13T14:43:39.0000000+00:00</time></trkpt><trkpt lat="38.96535443" lon="-0.49644881"><ele>136.0</ele><time>2022-11-13T14:43:40.0000000+00:00</time></trkpt><trkpt lat="38.96535418" lon="-0.49644915"><ele>136.0</ele><time>2022-11-13T14:43:41.0000000+00:00</time></trkpt><trkpt lat="38.9653541" lon="-0.49644923"><ele>136.0</ele><time>2022-11-13T14:43:42.0000000+00:00</time></trkpt><trkpt lat="38.96535401" lon="-0.49644923"><ele>136.0</ele><time>2022-11-13T14:43:43.0000000+00:00</time></trkpt><trkpt lat="38.96535368" lon="-0.49644923"><ele>136.0</ele><time>2022-11-13T14:43:44.0000000+00:00</time></trkpt><trkpt lat="38.96535351" lon="-0.4964494"><ele>136.0</ele><time>2022-11-13T14:43:45.0000000+00:00</time></trkpt><trkpt lat="38.96535343" lon="-0.49644973"><ele>136.0</ele><time>2022-11-13T14:43:46.0000000+00:00</time></trkpt><trkpt lat="38.96535343" lon="-0.49644948"><ele>136.0</ele><time>2022-11-13T14:43:47.0000000+00:00</time></trkpt><trkpt lat="38.96535326" lon="-0.49644931"><ele>136.0</ele><time>2022-11-13T14:43:48.0000000+00:00</time></trkpt><trkpt lat="38.96535317" lon="-0.49644864"><ele>136.0</ele><time>2022-11-13T14:43:49.0000000+00:00</time></trkpt><trkpt lat="38.96535309" lon="-0.4964478"><ele>136.0</ele><time>2022-11-13T14:43:50.0000000+00:00</time></trkpt><trkpt lat="38.96535292" lon="-0.4964473"><ele>136.0</ele><time>2022-11-13T14:43:51.0000000+00:00</time></trkpt><trkpt lat="38.96535284" lon="-0.49644697"><ele>136.0</ele><time>2022-11-13T14:43:52.0000000+00:00</time></trkpt><trkpt lat="38.96535267" lon="-0.49644537"><ele>136.0</ele><time>2022-11-13T14:43:53.0000000+00:00</time></trkpt><trkpt lat="38.96535234" lon="-0.4964447"><ele>136.0</ele><time>2022-11-13T14:43:54.0000000+00:00</time></trkpt><trkpt lat="38.96535225" lon="-0.49644269"><ele>136.0</ele><time>2022-11-13T14:43:55.0000000+00:00</time></trkpt><trkpt lat="38.96535225" lon="-0.49644202"><ele>136.0</ele><time>2022-11-13T14:43:56.0000000+00:00</time></trkpt><trkpt lat="38.96535208" lon="-0.49644127"><ele>136.0</ele><time>2022-11-13T14:43:57.0000000+00:00</time></trkpt><trkpt lat="38.9653515" lon="-0.49643984"><ele>136.0</ele><time>2022-11-13T14:43:58.0000000+00:00</time></trkpt><trkpt lat="38.96535125" lon="-0.49643892"><ele>136.0</ele><time>2022-11-13T14:43:59.0000000+00:00</time></trkpt><trkpt lat="38.96535066" lon="-0.49643783"><ele>136.0</ele><time>2022-11-13T14:44:00.0000000+00:00</time></trkpt><trkpt lat="38.96534907" lon="-0.49643716"><ele>136.0</ele><time>2022-11-13T14:44:01.0000000+00:00</time></trkpt><trkpt lat="38.96534789" lon="-0.49643666"><ele>136.0</ele><time>2022-11-13T14:44:02.0000000+00:00</time></trkpt><trkpt lat="38.96534303" lon="-0.49643381"><ele>136.0</ele><time>2022-11-13T14:44:03.0000000+00:00</time></trkpt><trkpt lat="38.96533792" lon="-0.49642626"><ele>136.0</ele><time>2022-11-13T14:44:04.0000000+00:00</time></trkpt><trkpt lat="38.96533247" lon="-0.49642308"><ele>136.0</ele><time>2022-11-13T14:44:05.0000000+00:00</time></trkpt><trkpt lat="38.96532803" lon="-0.4964219"><ele>136.0</ele><time>2022-11-13T14:44:06.0000000+00:00</time></trkpt><trkpt lat="38.96532644" lon="-0.49642065"><ele>136.0</ele><time>2022-11-13T14:44:07.0000000+00:00</time></trkpt><trkpt lat="38.96532543" lon="-0.49641931"><ele>136.0</ele><time>2022-11-13T14:44:08.0000000+00:00</time></trkpt><trkpt lat="38.96532501" lon="-0.49641721"><ele>136.0</ele><time>2022-11-13T14:44:09.0000000+00:00</time></trkpt><trkpt lat="38.96532409" lon="-0.49641579"><ele>136.0</ele><time>2022-11-13T14:44:10.0000000+00:00</time></trkpt><trkpt lat="38.96532124" lon="-0.49641143"><ele>136.0</ele><time>2022-11-13T14:44:11.0000000+00:00</time></trkpt><trkpt lat="38.96531956" lon="-0.49640992"><ele>136.0</ele><time>2022-11-13T14:44:12.0000000+00:00</time></trkpt><trkpt lat="38.96531789" lon="-0.49640941"><ele>136.0</ele><time>2022-11-13T14:44:13.0000000+00:00</time></trkpt><trkpt lat="38.96531705" lon="-0.49640925"><ele>136.0</ele><time>2022-11-13T14:44:14.0000000+00:00</time></trkpt><trkpt lat="38.96531638" lon="-0.49640925"><ele>136.0</ele><time>2022-11-13T14:44:15.0000000+00:00</time></trkpt><trkpt lat="38.96531613" lon="-0.49640916"><ele>136.0</ele><time>2022-11-13T14:44:16.0000000+00:00</time></trkpt><trkpt lat="38.96531571" lon="-0.49640916"><ele>136.0</ele><time>2022-11-13T14:44:17.0000000+00:00</time></trkpt><trkpt lat="38.9653152" lon="-0.49640916"><ele>136.0</ele><time>2022-11-13T14:44:18.0000000+00:00</time></trkpt><trkpt lat="38.96531504" lon="-0.49640916"><ele>136.0</ele><time>2022-11-13T14:44:19.0000000+00:00</time></trkpt><trkpt lat="38.96531495" lon="-0.49640916"><ele>136.0</ele><time>2022-11-13T14:44:20.0000000+00:00</time></trkpt><trkpt lat="38.96531495" lon="-0.49640916"><ele>136.0</ele><time>2022-11-13T14:44:21.0000000+00:00</time></trkpt><trkpt lat="38.96531495" lon="-0.49640807"><ele>136.0</ele><time>2022-11-13T14:44:22.0000000+00:00</time></trkpt><trkpt lat="38.96531495" lon="-0.4964074"><ele>136.0</ele><time>2022-11-13T14:44:23.0000000+00:00</time></trkpt><trkpt lat="38.96531487" lon="-0.4964069"><ele>136.0</ele><time>2022-11-13T14:44:24.0000000+00:00</time></trkpt><trkpt lat="38.96531487" lon="-0.4964064"><ele>136.0</ele><time>2022-11-13T14:44:25.0000000+00:00</time></trkpt><trkpt lat="38.96531487" lon="-0.49640506"><ele>136.0</ele><time>2022-11-13T14:44:26.0000000+00:00</time></trkpt><trkpt lat="38.96531487" lon="-0.4964043"><ele>136.0</ele><time>2022-11-13T14:44:27.0000000+00:00</time></trkpt><trkpt lat="38.96531487" lon="-0.49640405"><ele>136.0</ele><time>2022-11-13T14:44:28.0000000+00:00</time></trkpt><trkpt lat="38.96531487" lon="-0.49640388"><ele>136.0</ele><time>2022-11-13T14:44:29.0000000+00:00</time></trkpt><trkpt lat="38.9653152" lon="-0.49640388"><ele>136.0</ele><time>2022-11-13T14:44:30.0000000+00:00</time></trkpt><trkpt lat="38.96531571" lon="-0.49640355"><ele>136.0</ele><time>2022-11-13T14:44:31.0000000+00:00</time></trkpt><trkpt lat="38.96531621" lon="-0.4964033"><ele>136.0</ele><time>2022-11-13T14:44:32.0000000+00:00</time></trkpt><trkpt lat="38.96531797" lon="-0.4964017"><ele>136.0</ele><time>2022-11-13T14:44:33.0000000+00:00</time></trkpt><trkpt lat="38.96532065" lon="-0.4964007"><ele>136.0</ele><time>2022-11-13T14:44:34.0000000+00:00</time></trkpt><trkpt lat="38.96532359" lon="-0.49640028"><ele>136.0</ele><time>2022-11-13T14:44:35.0000000+00:00</time></trkpt><trkpt lat="38.96532602" lon="-0.49640003"><ele>136.0</ele><time>2022-11-13T14:44:36.0000000+00:00</time></trkpt><trkpt lat="38.96532795" lon="-0.49639986"><ele>136.0</ele><time>2022-11-13T14:44:37.0000000+00:00</time></trkpt><trkpt lat="38.96532996" lon="-0.49639944"><ele>136.0</ele><time>2022-11-13T14:44:38.0000000+00:00</time></trkpt><trkpt lat="38.96533247" lon="-0.49639919"><ele>136.0</ele><time>2022-11-13T14:44:39.0000000+00:00</time></trkpt><trkpt lat="38.96533448" lon="-0.49639911"><ele>136.0</ele><time>2022-11-13T14:44:40.0000000+00:00</time></trkpt><trkpt lat="38.96533591" lon="-0.49639902"><ele>136.0</ele><time>2022-11-13T14:44:41.0000000+00:00</time></trkpt><trkpt lat="38.96533675" lon="-0.49639902"><ele>136.0</ele><time>2022-11-13T14:44:42.0000000+00:00</time></trkpt><trkpt lat="38.96533733" lon="-0.49639902"><ele>136.0</ele><time>2022-11-13T14:44:43.0000000+00:00</time></trkpt><trkpt lat="38.96533876" lon="-0.49639902"><ele>136.0</ele><time>2022-11-13T14:44:44.0000000+00:00</time></trkpt><trkpt lat="38.96534077" lon="-0.49639902"><ele>136.0</ele><time>2022-11-13T14:44:45.0000000+00:00</time></trkpt><trkpt lat="38.96534194" lon="-0.49639902"><ele>136.0</ele><time>2022-11-13T14:44:46.0000000+00:00</time></trkpt><trkpt lat="38.9653427" lon="-0.49639902"><ele>136.0</ele><time>2022-11-13T14:44:47.0000000+00:00</time></trkpt><trkpt lat="38.96534328" lon="-0.49639902"><ele>136.0</ele><time>2022-11-13T14:44:48.0000000+00:00</time></trkpt><trkpt lat="38.96534395" lon="-0.49639902"><ele>136.0</ele><time>2022-11-13T14:44:49.0000000+00:00</time></trkpt><trkpt lat="38.96534437" lon="-0.49639902"><ele>136.0</ele><time>2022-11-13T14:44:50.0000000+00:00</time></trkpt><trkpt lat="38.96534454" lon="-0.49639902"><ele>136.0</ele><time>2022-11-13T14:44:51.0000000+00:00</time></trkpt><trkpt lat="38.96534471" lon="-0.49639911"><ele>136.0</ele><time>2022-11-13T14:44:52.0000000+00:00</time></trkpt><trkpt lat="38.96534479" lon="-0.49639911"><ele>136.0</ele><time>2022-11-13T14:44:53.0000000+00:00</time></trkpt><trkpt lat="38.96534488" lon="-0.49640388"><ele>136.0</ele><time>2022-11-13T14:44:54.0000000+00:00</time></trkpt><trkpt lat="38.96534496" lon="-0.49640983"><ele>136.0</ele><time>2022-11-13T14:44:55.0000000+00:00</time></trkpt><trkpt lat="38.96534513" lon="-0.49641335"><ele>136.0</ele><time>2022-11-13T14:44:56.0000000+00:00</time></trkpt><trkpt lat="38.9653453" lon="-0.49641537"><ele>136.0</ele><time>2022-11-13T14:44:57.0000000+00:00</time></trkpt><trkpt lat="38.96534538" lon="-0.49641662"><ele>136.0</ele><time>2022-11-13T14:44:58.0000000+00:00</time></trkpt><trkpt lat="38.96534555" lon="-0.49641755"><ele>136.0</ele><time>2022-11-13T14:44:59.0000000+00:00</time></trkpt><trkpt lat="38.96534563" lon="-0.49641813"><ele>136.0</ele><time>2022-11-13T14:45:00.0000000+00:00</time></trkpt><trkpt lat="38.96534563" lon="-0.49641847"><ele>136.0</ele><time>2022-11-13T14:45:01.0000000+00:00</time></trkpt><trkpt lat="38.96534571" lon="-0.49641889"><ele>136.0</ele><time>2022-11-13T14:45:02.0000000+00:00</time></trkpt><trkpt lat="38.96534588" lon="-0.49641922"><ele>136.0</ele><time>2022-11-13T14:45:03.0000000+00:00</time></trkpt><trkpt lat="38.96534597" lon="-0.49641964"><ele>136.0</ele><time>2022-11-13T14:45:04.0000000+00:00</time></trkpt><trkpt lat="38.96534605" lon="-0.49642006"><ele>136.0</ele><time>2022-11-13T14:45:05.0000000+00:00</time></trkpt><trkpt lat="38.96534622" lon="-0.49642031"><ele>136.0</ele><time>2022-11-13T14:45:06.0000000+00:00</time></trkpt><trkpt lat="38.96534647" lon="-0.49642098"><ele>136.0</ele><time>2022-11-13T14:45:07.0000000+00:00</time></trkpt><trkpt lat="38.96534664" lon="-0.49642165"><ele>136.0</ele><time>2022-11-13T14:45:08.0000000+00:00</time></trkpt><trkpt lat="38.96534672" lon="-0.49642291"><ele>136.0</ele><time>2022-11-13T14:45:09.0000000+00:00</time></trkpt><trkpt lat="38.96534689" lon="-0.49642475"><ele>136.0</ele><time>2022-11-13T14:45:10.0000000+00:00</time></trkpt><trkpt lat="38.96534697" lon="-0.49642677"><ele>136.0</ele><time>2022-11-13T14:45:11.0000000+00:00</time></trkpt><trkpt lat="38.96534714" lon="-0.49642853"><ele>136.0</ele><time>2022-11-13T14:45:12.0000000+00:00</time></trkpt><trkpt lat="38.96534722" lon="-0.49643045"><ele>136.0</ele><time>2022-11-13T14:45:13.0000000+00:00</time></trkpt><trkpt lat="38.96534731" lon="-0.49643247"><ele>136.0</ele><time>2022-11-13T14:45:14.0000000+00:00</time></trkpt><trkpt lat="38.96534739" lon="-0.49643481"><ele>136.0</ele><time>2022-11-13T14:45:15.0000000+00:00</time></trkpt><trkpt lat="38.96534756" lon="-0.4964364"><ele>136.0</ele><time>2022-11-13T14:45:16.0000000+00:00</time></trkpt><trkpt lat="38.96534764" lon="-0.49643758"><ele>136.0</ele><time>2022-11-13T14:45:17.0000000+00:00</time></trkpt><trkpt lat="38.96534789" lon="-0.49643833"><ele>136.0</ele><time>2022-11-13T14:45:18.0000000+00:00</time></trkpt><trkpt lat="38.96534831" lon="-0.49643892"><ele>136.0</ele><time>2022-11-13T14:45:19.0000000+00:00</time></trkpt><trkpt lat="38.96534865" lon="-0.49643992"><ele>136.0</ele><time>2022-11-13T14:45:20.0000000+00:00</time></trkpt><trkpt lat="38.96534898" lon="-0.49644076"><ele>136.0</ele><time>2022-11-13T14:45:21.0000000+00:00</time></trkpt><trkpt lat="38.96534924" lon="-0.49644194"><ele>136.0</ele><time>2022-11-13T14:45:22.0000000+00:00</time></trkpt><trkpt lat="38.9653494" lon="-0.49644286"><ele>136.0</ele><time>2022-11-13T14:45:23.0000000+00:00</time></trkpt><trkpt lat="38.96534949" lon="-0.49644386"><ele>136.0</ele><time>2022-11-13T14:45:24.0000000+00:00</time></trkpt><trkpt lat="38.96534957" lon="-0.49644638"><ele>136.0</ele><time>2022-11-13T14:45:25.0000000+00:00</time></trkpt><trkpt lat="38.96534965" lon="-0.49644881"><ele>136.0</ele><time>2022-11-13T14:45:26.0000000+00:00</time></trkpt><trkpt lat="38.96534974" lon="-0.49645049"><ele>136.0</ele><time>2022-11-13T14:45:27.0000000+00:00</time></trkpt><trkpt lat="38.96534974" lon="-0.49645183"><ele>136.0</ele><time>2022-11-13T14:45:28.0000000+00:00</time></trkpt><trkpt lat="38.96534974" lon="-0.49645292"><ele>136.0</ele><time>2022-11-13T14:45:29.0000000+00:00</time></trkpt><trkpt lat="38.96534982" lon="-0.49645384"><ele>136.0</ele><time>2022-11-13T14:45:30.0000000+00:00</time></trkpt><trkpt lat="38.96534974" lon="-0.49645451"><ele>136.0</ele><time>2022-11-13T14:45:31.0000000+00:00</time></trkpt><trkpt lat="38.96534974" lon="-0.4964551"><ele>136.0</ele><time>2022-11-13T14:45:32.0000000+00:00</time></trkpt><trkpt lat="38.96534949" lon="-0.4964556"><ele>136.0</ele><time>2022-11-13T14:45:33.0000000+00:00</time></trkpt><trkpt lat="38.96534932" lon="-0.49645602"><ele>136.0</ele><time>2022-11-13T14:45:34.0000000+00:00</time></trkpt><trkpt lat="38.96534924" lon="-0.49645635"><ele>136.0</ele><time>2022-11-13T14:45:35.0000000+00:00</time></trkpt><trkpt lat="38.96534915" lon="-0.4964566"><ele>136.0</ele><time>2022-11-13T14:45:36.0000000+00:00</time></trkpt><trkpt lat="38.96534907" lon="-0.49645686"><ele>136.0</ele><time>2022-11-13T14:45:37.0000000+00:00</time></trkpt><trkpt lat="38.96534907" lon="-0.49645711"><ele>136.0</ele><time>2022-11-13T14:45:38.0000000+00:00</time></trkpt><trkpt lat="38.96534898" lon="-0.49645728"><ele>136.0</ele><time>2022-11-13T14:45:39.0000000+00:00</time></trkpt><trkpt lat="38.9653489" lon="-0.49645744"><ele>136.0</ele><time>2022-11-13T14:45:40.0000000+00:00</time></trkpt><trkpt lat="38.96534882" lon="-0.49645761"><ele>136.0</ele><time>2022-11-13T14:45:41.0000000+00:00</time></trkpt><trkpt lat="38.96534882" lon="-0.49645778"><ele>136.0</ele><time>2022-11-13T14:45:42.0000000+00:00</time></trkpt><trkpt lat="38.96534873" lon="-0.49645795"><ele>136.0</ele><time>2022-11-13T14:45:43.0000000+00:00</time></trkpt><trkpt lat="38.96534873" lon="-0.49645803"><ele>136.0</ele><time>2022-11-13T14:45:44.0000000+00:00</time></trkpt><trkpt lat="38.96534873" lon="-0.49645803"><ele>136.0</ele><time>2022-11-13T14:45:45.0000000+00:00</time></trkpt><trkpt lat="38.96534865" lon="-0.49645811"><ele>136.0</ele><time>2022-11-13T14:45:46.0000000+00:00</time></trkpt><trkpt lat="38.96534865" lon="-0.49645828"><ele>136.0</ele><time>2022-11-13T14:45:47.0000000+00:00</time></trkpt><trkpt lat="38.96534856" lon="-0.49645837"><ele>136.0</ele><time>2022-11-13T14:45:48.0000000+00:00</time></trkpt><trkpt lat="38.96534856" lon="-0.49645853"><ele>136.0</ele><time>2022-11-13T14:45:49.0000000+00:00</time></trkpt><trkpt lat="38.96534848" lon="-0.4964592"><ele>136.0</ele><time>2022-11-13T14:45:50.0000000+00:00</time></trkpt><trkpt lat="38.96534848" lon="-0.49646038"><ele>136.0</ele><time>2022-11-13T14:45:51.0000000+00:00</time></trkpt><trkpt lat="38.96534848" lon="-0.49646189"><ele>136.0</ele><time>2022-11-13T14:45:52.0000000+00:00</time></trkpt><trkpt lat="38.9653484" lon="-0.49646314"><ele>136.0</ele><time>2022-11-13T14:45:53.0000000+00:00</time></trkpt><trkpt lat="38.9653484" lon="-0.49646457"><ele>136.0</ele><time>2022-11-13T14:45:54.0000000+00:00</time></trkpt><trkpt lat="38.96534831" lon="-0.49646641"><ele>136.0</ele><time>2022-11-13T14:45:55.0000000+00:00</time></trkpt><trkpt lat="38.96534823" lon="-0.49646826"><ele>136.0</ele><time>2022-11-13T14:45:56.0000000+00:00</time></trkpt><trkpt lat="38.96534815" lon="-0.49647027"><ele>136.0</ele><time>2022-11-13T14:45:57.0000000+00:00</time></trkpt><trkpt lat="38.96534815" lon="-0.49647194"><ele>136.0</ele><time>2022-11-13T14:45:58.0000000+00:00</time></trkpt><trkpt lat="38.96534806" lon="-0.49647337"><ele>136.0</ele><time>2022-11-13T14:45:59.0000000+00:00</time></trkpt><trkpt lat="38.96534806" lon="-0.49647463"><ele>136.0</ele><time>2022-11-13T14:46:00.0000000+00:00</time></trkpt><trkpt lat="38.96534806" lon="-0.4964758"><ele>136.0</ele><time>2022-11-13T14:46:01.0000000+00:00</time></trkpt><trkpt lat="38.96534798" lon="-0.49647681"><ele>136.0</ele><time>2022-11-13T14:46:02.0000000+00:00</time></trkpt><trkpt lat="38.96534798" lon="-0.49647773"><ele>136.0</ele><time>2022-11-13T14:46:03.0000000+00:00</time></trkpt><trkpt lat="38.96534798" lon="-0.49647857"><ele>136.0</ele><time>2022-11-13T14:46:04.0000000+00:00</time></trkpt><trkpt lat="38.96534798" lon="-0.49647932"><ele>136.0</ele><time>2022-11-13T14:46:05.0000000+00:00</time></trkpt><trkpt lat="38.96534789" lon="-0.49648007"><ele>136.0</ele><time>2022-11-13T14:46:06.0000000+00:00</time></trkpt><trkpt lat="38.96534789" lon="-0.49648083"><ele>136.0</ele><time>2022-11-13T14:46:07.0000000+00:00</time></trkpt><trkpt lat="38.96534789" lon="-0.49648158"><ele>136.0</ele><time>2022-11-13T14:46:08.0000000+00:00</time></trkpt><trkpt lat="38.96534789" lon="-0.49648217"><ele>136.0</ele><time>2022-11-13T14:46:09.0000000+00:00</time></trkpt><trkpt lat="38.96534781" lon="-0.49648284"><ele>136.0</ele><time>2022-11-13T14:46:10.0000000+00:00</time></trkpt><trkpt lat="38.96534773" lon="-0.49648343"><ele>136.0</ele><time>2022-11-13T14:46:11.0000000+00:00</time></trkpt><trkpt lat="38.96534764" lon="-0.49648393"><ele>136.0</ele><time>2022-11-13T14:46:12.0000000+00:00</time></trkpt><trkpt lat="38.96534756" lon="-0.49648435"><ele>136.0</ele><time>2022-11-13T14:46:13.0000000+00:00</time></trkpt><trkpt lat="38.96534747" lon="-0.49648477"><ele>136.0</ele><time>2022-11-13T14:46:14.0000000+00:00</time></trkpt><trkpt lat="38.96534739" lon="-0.4964851"><ele>136.0</ele><time>2022-11-13T14:46:15.0000000+00:00</time></trkpt><trkpt lat="38.96534731" lon="-0.49648535"><ele>136.0</ele><time>2022-11-13T14:46:16.0000000+00:00</time></trkpt><trkpt lat="38.96534731" lon="-0.49648561"><ele>136.0</ele><time>2022-11-13T14:46:17.0000000+00:00</time></trkpt><trkpt lat="38.96534722" lon="-0.49648586"><ele>136.0</ele><time>2022-11-13T14:46:18.0000000+00:00</time></trkpt><trkpt lat="38.96534722" lon="-0.49648603"><ele>136.0</ele><time>2022-11-13T14:46:19.0000000+00:00</time></trkpt><trkpt lat="38.96534714" lon="-0.49648611"><ele>136.0</ele><time>2022-11-13T14:46:20.0000000+00:00</time></trkpt><trkpt lat="38.96534714" lon="-0.49648619"><ele>136.0</ele><time>2022-11-13T14:46:21.0000000+00:00</time></trkpt><trkpt lat="38.96534706" lon="-0.49648594"><ele>136.0</ele><time>2022-11-13T14:46:22.0000000+00:00</time></trkpt><trkpt lat="38.96534689" lon="-0.49648569"><ele>136.0</ele><time>2022-11-13T14:46:23.0000000+00:00</time></trkpt><trkpt lat="38.96534672" lon="-0.49648552"><ele>136.0</ele><time>2022-11-13T14:46:24.0000000+00:00</time></trkpt><trkpt lat="38.96534672" lon="-0.49648552"><ele>136.0</ele><time>2022-11-13T14:46:25.0000000+00:00</time></trkpt><trkpt lat="38.96534664" lon="-0.49648535"><ele>136.0</ele><time>2022-11-13T14:46:26.0000000+00:00</time></trkpt><trkpt lat="38.96534655" lon="-0.4964851"><ele>136.0</ele><time>2022-11-13T14:46:27.0000000+00:00</time></trkpt><trkpt lat="38.96534639" lon="-0.49648485"><ele>136.0</ele><time>2022-11-13T14:46:28.0000000+00:00</time></trkpt><trkpt lat="38.96534622" lon="-0.4964846"><ele>136.0</ele><time>2022-11-13T14:46:29.0000000+00:00</time></trkpt><trkpt lat="38.96534613" lon="-0.49648443"><ele>136.0</ele><time>2022-11-13T14:46:30.0000000+00:00</time></trkpt><trkpt lat="38.96534597" lon="-0.4964841"><ele>136.0</ele><time>2022-11-13T14:46:31.0000000+00:00</time></trkpt><trkpt lat="38.96534571" lon="-0.49648385"><ele>136.0</ele><time>2022-11-13T14:46:32.0000000+00:00</time></trkpt><trkpt lat="38.96534571" lon="-0.49648359"><ele>136.0</ele><time>2022-11-13T14:46:33.0000000+00:00</time></trkpt><trkpt lat="38.96534571" lon="-0.49648351"><ele>136.0</ele><time>2022-11-13T14:46:34.0000000+00:00</time></trkpt><trkpt lat="38.96534571" lon="-0.49648334"><ele>136.0</ele><time>2022-11-13T14:46:35.0000000+00:00</time></trkpt><trkpt lat="38.96534563" lon="-0.49648326"><ele>136.0</ele><time>2022-11-13T14:46:36.0000000+00:00</time></trkpt><trkpt lat="38.96534563" lon="-0.49648318"><ele>136.0</ele><time>2022-11-13T14:46:37.0000000+00:00</time></trkpt><trkpt lat="38.96534555" lon="-0.49648318"><ele>136.0</ele><time>2022-11-13T14:46:38.0000000+00:00</time></trkpt><trkpt lat="38.96534555" lon="-0.49648301"><ele>136.0</ele><time>2022-11-13T14:46:39.0000000+00:00</time></trkpt><trkpt lat="38.9653453" lon="-0.49648284"><ele>136.0</ele><time>2022-11-13T14:46:40.0000000+00:00</time></trkpt><trkpt lat="38.96534521" lon="-0.49648276"><ele>136.0</ele><time>2022-11-13T14:46:41.0000000+00:00</time></trkpt><trkpt lat="38.96534496" lon="-0.49648267"><ele>136.0</ele><time>2022-11-13T14:46:42.0000000+00:00</time></trkpt><trkpt lat="38.96534479" lon="-0.49648259"><ele>136.0</ele><time>2022-11-13T14:46:43.0000000+00:00</time></trkpt><trkpt lat="38.96534471" lon="-0.49648234"><ele>136.0</ele><time>2022-11-13T14:46:44.0000000+00:00</time></trkpt><trkpt lat="38.96534463" lon="-0.496482"><ele>136.0</ele><time>2022-11-13T14:46:45.0000000+00:00</time></trkpt><trkpt lat="38.96534437" lon="-0.49648175"><ele>136.0</ele><time>2022-11-13T14:46:46.0000000+00:00</time></trkpt><trkpt lat="38.96534429" lon="-0.49648158"><ele>136.0</ele><time>2022-11-13T14:46:47.0000000+00:00</time></trkpt><trkpt lat="38.96534421" lon="-0.49648142"><ele>136.0</ele><time>2022-11-13T14:46:48.0000000+00:00</time></trkpt><trkpt lat="38.96534429" lon="-0.49648116"><ele>136.0</ele><time>2022-11-13T14:46:49.0000000+00:00</time></trkpt><trkpt lat="38.96534421" lon="-0.49648091"><ele>136.0</ele><time>2022-11-13T14:46:50.0000000+00:00</time></trkpt><trkpt lat="38.96534261" lon="-0.49647597"><ele>136.0</ele><time>2022-11-13T14:46:51.0000000+00:00</time></trkpt><trkpt lat="38.96533473" lon="-0.49646121"><ele>136.0</ele><time>2022-11-13T14:46:52.0000000+00:00</time></trkpt><trkpt lat="38.96532686" lon="-0.49644764"><ele>136.0</ele><time>2022-11-13T14:46:53.0000000+00:00</time></trkpt><trkpt lat="38.96531638" lon="-0.49643355"><ele>136.0</ele><time>2022-11-13T14:46:54.0000000+00:00</time></trkpt><trkpt lat="38.96530733" lon="-0.49642727"><ele>136.0</ele><time>2022-11-13T14:46:55.0000000+00:00</time></trkpt><trkpt lat="38.96529869" lon="-0.4964271"><ele>136.0</ele><time>2022-11-13T14:46:56.0000000+00:00</time></trkpt><trkpt lat="38.9652935" lon="-0.49642936"><ele>136.0</ele><time>2022-11-13T14:46:57.0000000+00:00</time></trkpt><trkpt lat="38.96528402" lon="-0.49642894"><ele>136.0</ele><time>2022-11-13T14:46:58.0000000+00:00</time></trkpt><trkpt lat="38.96527707" lon="-0.49642568"><ele>136.0</ele><time>2022-11-13T14:46:59.0000000+00:00</time></trkpt><trkpt lat="38.96527212" lon="-0.49642366"><ele>136.0</ele><time>2022-11-13T14:47:00.0000000+00:00</time></trkpt><trkpt lat="38.96526156" lon="-0.49642878"><ele>136.0</ele><time>2022-11-13T14:47:01.0000000+00:00</time></trkpt><trkpt lat="38.9652489" lon="-0.49642635"><ele>136.0</ele><time>2022-11-13T14:47:02.0000000+00:00</time></trkpt><trkpt lat="38.96523449" lon="-0.4964214"><ele>136.0</ele><time>2022-11-13T14:47:03.0000000+00:00</time></trkpt><trkpt lat="38.96522284" lon="-0.49641687"><ele>136.0</ele><time>2022-11-13T14:47:04.0000000+00:00</time></trkpt><trkpt lat="38.96521269" lon="-0.49641436"><ele>136.4</ele><time>2022-11-13T14:47:05.0000000+00:00</time></trkpt><trkpt lat="38.96520934" lon="-0.49641025"><ele>136.8</ele><time>2022-11-13T14:47:06.0000000+00:00</time></trkpt><trkpt lat="38.96520146" lon="-0.49640095"><ele>137.0</ele><time>2022-11-13T14:47:07.0000000+00:00</time></trkpt><trkpt lat="38.96519685" lon="-0.49639517"><ele>137.0</ele><time>2022-11-13T14:47:08.0000000+00:00</time></trkpt><trkpt lat="38.96518939" lon="-0.49639198"><ele>137.0</ele><time>2022-11-13T14:47:09.0000000+00:00</time></trkpt><trkpt lat="38.96518235" lon="-0.49639072"><ele>137.0</ele><time>2022-11-13T14:47:10.0000000+00:00</time></trkpt><trkpt lat="38.96514581" lon="-0.49637295"><ele>137.0</ele><time>2022-11-13T14:47:15.0000000+00:00</time></trkpt><trkpt lat="38.96513868" lon="-0.49637111"><ele>137.0</ele><time>2022-11-13T14:47:16.0000000+00:00</time></trkpt><trkpt lat="38.96512728" lon="-0.49635518"><ele>136.8</ele><time>2022-11-13T14:47:17.0000000+00:00</time></trkpt><trkpt lat="38.9651023" lon="-0.49634077"><ele>136.8</ele><time>2022-11-13T14:47:18.0000000+00:00</time></trkpt><trkpt lat="38.96507992" lon="-0.49632476"><ele>136.8</ele><time>2022-11-13T14:47:19.0000000+00:00</time></trkpt><trkpt lat="38.96507875" lon="-0.49631252"><ele>136.8</ele><time>2022-11-13T14:47:20.0000000+00:00</time></trkpt><trkpt lat="38.96508244" lon="-0.49630975"><ele>136.6</ele><time>2022-11-13T14:47:21.0000000+00:00</time></trkpt><trkpt lat="38.96507883" lon="-0.49629844"><ele>136.4</ele><time>2022-11-13T14:47:22.0000000+00:00</time></trkpt><trkpt lat="38.96507917" lon="-0.49628327"><ele>136.4</ele><time>2022-11-13T14:47:23.0000000+00:00</time></trkpt><trkpt lat="38.96507942" lon="-0.49626885"><ele>136.4</ele><time>2022-11-13T14:47:24.0000000+00:00</time></trkpt><trkpt lat="38.96507322" lon="-0.49625368"><ele>136.4</ele><time>2022-11-13T14:47:25.0000000+00:00</time></trkpt><trkpt lat="38.96506685" lon="-0.49624035"><ele>136.4</ele><time>2022-11-13T14:47:26.0000000+00:00</time></trkpt><trkpt lat="38.96505939" lon="-0.49623038"><ele>136.4</ele><time>2022-11-13T14:47:27.0000000+00:00</time></trkpt><trkpt lat="38.96505185" lon="-0.49621973"><ele>136.4</ele><time>2022-11-13T14:47:28.0000000+00:00</time></trkpt><trkpt lat="38.96504061" lon="-0.49620749"><ele>136.4</ele><time>2022-11-13T14:47:29.0000000+00:00</time></trkpt><trkpt lat="38.96502184" lon="-0.49619492"><ele>136.4</ele><time>2022-11-13T14:47:30.0000000+00:00</time></trkpt><trkpt lat="38.96500298" lon="-0.4961857"><ele>136.4</ele><time>2022-11-13T14:47:31.0000000+00:00</time></trkpt><trkpt lat="38.96498546" lon="-0.49618537"><ele>136.4</ele><time>2022-11-13T14:47:32.0000000+00:00</time></trkpt><trkpt lat="38.96496601" lon="-0.49618168"><ele>136.2</ele><time>2022-11-13T14:47:33.0000000+00:00</time></trkpt><trkpt lat="38.9649485" lon="-0.4961774"><ele>136.2</ele><time>2022-11-13T14:47:34.0000000+00:00</time></trkpt><trkpt lat="38.96493802" lon="-0.49617539"><ele>136.2</ele><time>2022-11-13T14:47:35.0000000+00:00</time></trkpt><trkpt lat="38.96492746" lon="-0.49616952"><ele>136.2</ele><time>2022-11-13T14:47:36.0000000+00:00</time></trkpt><trkpt lat="38.96491857" lon="-0.49616248"><ele>136.2</ele><time>2022-11-13T14:47:37.0000000+00:00</time></trkpt><trkpt lat="38.96491111" lon="-0.49616626"><ele>136.2</ele><time>2022-11-13T14:47:38.0000000+00:00</time></trkpt><trkpt lat="38.96489854" lon="-0.49616349"><ele>136.0</ele><time>2022-11-13T14:47:39.0000000+00:00</time></trkpt><trkpt lat="38.9648853" lon="-0.49617212"><ele>136.0</ele><time>2022-11-13T14:47:40.0000000+00:00</time></trkpt><trkpt lat="38.96488513" lon="-0.49617271"><ele>136.0</ele><time>2022-11-13T14:47:41.0000000+00:00</time></trkpt><trkpt lat="38.96487809" lon="-0.4961624"><ele>136.0</ele><time>2022-11-13T14:47:42.0000000+00:00</time></trkpt><trkpt lat="38.96487759" lon="-0.49616508"><ele>136.0</ele><time>2022-11-13T14:47:43.0000000+00:00</time></trkpt><trkpt lat="38.96487926" lon="-0.49616416"><ele>136.0</ele><time>2022-11-13T14:47:44.0000000+00:00</time></trkpt><trkpt lat="38.96487817" lon="-0.49615829"><ele>136.0</ele><time>2022-11-13T14:47:45.0000000+00:00</time></trkpt><trkpt lat="38.96487624" lon="-0.49615444"><ele>136.0</ele><time>2022-11-13T14:47:46.0000000+00:00</time></trkpt><trkpt lat="38.96487189" lon="-0.49613927"><ele>136.0</ele><time>2022-11-13T14:47:47.0000000+00:00</time></trkpt><trkpt lat="38.96486552" lon="-0.49612963"><ele>136.0</ele><time>2022-11-13T14:47:48.0000000+00:00</time></trkpt><trkpt lat="38.96485638" lon="-0.49612401"><ele>136.0</ele><time>2022-11-13T14:47:49.0000000+00:00</time></trkpt><trkpt lat="38.9648464" lon="-0.49612309"><ele>136.0</ele><time>2022-11-13T14:47:50.0000000+00:00</time></trkpt><trkpt lat="38.96483827" lon="-0.49612175"><ele>136.0</ele><time>2022-11-13T14:47:51.0000000+00:00</time></trkpt><trkpt lat="38.96482947" lon="-0.49612401"><ele>136.0</ele><time>2022-11-13T14:47:52.0000000+00:00</time></trkpt><trkpt lat="38.96482528" lon="-0.4961184"><ele>136.0</ele><time>2022-11-13T14:47:53.0000000+00:00</time></trkpt><trkpt lat="38.96480081" lon="-0.49611244"><ele>136.0</ele><time>2022-11-13T14:47:54.0000000+00:00</time></trkpt><trkpt lat="38.96478354" lon="-0.49609937"><ele>136.0</ele><time>2022-11-13T14:47:55.0000000+00:00</time></trkpt><trkpt lat="38.9647651" lon="-0.49605763"><ele>136.0</ele><time>2022-11-13T14:47:56.0000000+00:00</time></trkpt><trkpt lat="38.96475655" lon="-0.49603961"><ele>136.0</ele><time>2022-11-13T14:47:57.0000000+00:00</time></trkpt><trkpt lat="38.96475529" lon="-0.49604422"><ele>136.0</ele><time>2022-11-13T14:47:58.0000000+00:00</time></trkpt><trkpt lat="38.96475253" lon="-0.49603164"><ele>136.0</ele><time>2022-11-13T14:47:59.0000000+00:00</time></trkpt><trkpt lat="38.96474599" lon="-0.49601161"><ele>136.0</ele><time>2022-11-13T14:48:00.0000000+00:00</time></trkpt><trkpt lat="38.96474155" lon="-0.49599719"><ele>136.0</ele><time>2022-11-13T14:48:01.0000000+00:00</time></trkpt><trkpt lat="38.96474649" lon="-0.4959847"><ele>136.0</ele><time>2022-11-13T14:48:02.0000000+00:00</time></trkpt><trkpt lat="38.96473895" lon="-0.49597993"><ele>136.0</ele><time>2022-11-13T14:48:03.0000000+00:00</time></trkpt><trkpt lat="38.96472973" lon="-0.49597113"><ele>136.0</ele><time>2022-11-13T14:48:04.0000000+00:00</time></trkpt><trkpt lat="38.96471221" lon="-0.49596794"><ele>136.2</ele><time>2022-11-13T14:48:05.0000000+00:00</time></trkpt><trkpt lat="38.96470358" lon="-0.49596895"><ele>136.2</ele><time>2022-11-13T14:48:06.0000000+00:00</time></trkpt><trkpt lat="38.96468539" lon="-0.49595771"><ele>136.2</ele><time>2022-11-13T14:48:07.0000000+00:00</time></trkpt><trkpt lat="38.96464381" lon="-0.49593207"><ele>136.2</ele><time>2022-11-13T14:48:08.0000000+00:00</time></trkpt><trkpt lat="38.96464381" lon="-0.49593207"><ele>136.2</ele><time>2022-11-13T14:48:09.0000000+00:00</time></trkpt><trkpt lat="38.96462085" lon="-0.49592796"><ele>136.2</ele><time>2022-11-13T14:48:10.0000000+00:00</time></trkpt><trkpt lat="38.96461582" lon="-0.49594749"><ele>136.2</ele><time>2022-11-13T14:48:11.0000000+00:00</time></trkpt><trkpt lat="38.9646154" lon="-0.49596258"><ele>136.2</ele><time>2022-11-13T14:48:12.0000000+00:00</time></trkpt><trkpt lat="38.96461381" lon="-0.49596928"><ele>136.2</ele><time>2022-11-13T14:48:13.0000000+00:00</time></trkpt><trkpt lat="38.96459931" lon="-0.49596509"><ele>136.4</ele><time>2022-11-13T14:48:14.0000000+00:00</time></trkpt><trkpt lat="38.96459101" lon="-0.49594799"><ele>136.4</ele><time>2022-11-13T14:48:15.0000000+00:00</time></trkpt><trkpt lat="38.96457835" lon="-0.49594531"><ele>136.6</ele><time>2022-11-13T14:48:16.0000000+00:00</time></trkpt><trkpt lat="38.9645729" lon="-0.49594279"><ele>136.6</ele><time>2022-11-13T14:48:17.0000000+00:00</time></trkpt><trkpt lat="38.96456595" lon="-0.49594179"><ele>136.6</ele><time>2022-11-13T14:48:18.0000000+00:00</time></trkpt><trkpt lat="38.96456209" lon="-0.49595201"><ele>136.4</ele><time>2022-11-13T14:48:19.0000000+00:00</time></trkpt><trkpt lat="38.96455823" lon="-0.49596149"><ele>136.4</ele><time>2022-11-13T14:48:20.0000000+00:00</time></trkpt><trkpt lat="38.96454969" lon="-0.49596165"><ele>136.4</ele><time>2022-11-13T14:48:21.0000000+00:00</time></trkpt><trkpt lat="38.96454147" lon="-0.49596249"><ele>136.4</ele><time>2022-11-13T14:48:22.0000000+00:00</time></trkpt><trkpt lat="38.9645341" lon="-0.49595092"><ele>136.4</ele><time>2022-11-13T14:48:23.0000000+00:00</time></trkpt><trkpt lat="38.96452831" lon="-0.49594866"><ele>136.4</ele><time>2022-11-13T14:48:24.0000000+00:00</time></trkpt><trkpt lat="38.96451775" lon="-0.4959386"><ele>136.2</ele><time>2022-11-13T14:48:25.0000000+00:00</time></trkpt><trkpt lat="38.96450836" lon="-0.49592662"><ele>136.2</ele><time>2022-11-13T14:48:26.0000000+00:00</time></trkpt><trkpt lat="38.96450065" lon="-0.49592209"><ele>136.2</ele><time>2022-11-13T14:48:27.0000000+00:00</time></trkpt><trkpt lat="38.96449621" lon="-0.49591639"><ele>136.2</ele><time>2022-11-13T14:48:28.0000000+00:00</time></trkpt><trkpt lat="38.9644885" lon="-0.49590692"><ele>136.2</ele><time>2022-11-13T14:48:29.0000000+00:00</time></trkpt><trkpt lat="38.96448062" lon="-0.49589845"><ele>136.2</ele><time>2022-11-13T14:48:30.0000000+00:00</time></trkpt><trkpt lat="38.96446905" lon="-0.49588295"><ele>136.2</ele><time>2022-11-13T14:48:31.0000000+00:00</time></trkpt><trkpt lat="38.96444759" lon="-0.49586752"><ele>136.2</ele><time>2022-11-13T14:48:32.0000000+00:00</time></trkpt><trkpt lat="38.9644393" lon="-0.49585185"><ele>136.2</ele><time>2022-11-13T14:48:33.0000000+00:00</time></trkpt><trkpt lat="38.964431" lon="-0.49583039"><ele>136.2</ele><time>2022-11-13T14:48:34.0000000+00:00</time></trkpt><trkpt lat="38.96443091" lon="-0.49580474"><ele>136.0</ele><time>2022-11-13T14:48:35.0000000+00:00</time></trkpt><trkpt lat="38.96441801" lon="-0.49578228"><ele>136.0</ele><time>2022-11-13T14:48:36.0000000+00:00</time></trkpt><trkpt lat="38.96441004" lon="-0.49576074"><ele>136.0</ele><time>2022-11-13T14:48:37.0000000+00:00</time></trkpt><trkpt lat="38.96440191" lon="-0.49573593"><ele>136.0</ele><time>2022-11-13T14:48:38.0000000+00:00</time></trkpt><trkpt lat="38.96440376" lon="-0.49571531"><ele>136.0</ele><time>2022-11-13T14:48:39.0000000+00:00</time></trkpt><trkpt lat="38.96440208" lon="-0.49569813"><ele>136.0</ele><time>2022-11-13T14:48:40.0000000+00:00</time></trkpt><trkpt lat="38.96439848" lon="-0.49568581"><ele>136.0</ele><time>2022-11-13T14:48:41.0000000+00:00</time></trkpt><trkpt lat="38.96439269" lon="-0.49566971"><ele>136.0</ele><time>2022-11-13T14:48:42.0000000+00:00</time></trkpt><trkpt lat="38.96438934" lon="-0.49565949"><ele>136.0</ele><time>2022-11-13T14:48:43.0000000+00:00</time></trkpt><trkpt lat="38.96438087" lon="-0.49565119"><ele>136.0</ele><time>2022-11-13T14:48:44.0000000+00:00</time></trkpt><trkpt lat="38.96436528" lon="-0.49564364"><ele>136.0</ele><time>2022-11-13T14:48:45.0000000+00:00</time></trkpt><trkpt lat="38.96435045" lon="-0.49563778"><ele>136.0</ele><time>2022-11-13T14:48:46.0000000+00:00</time></trkpt><trkpt lat="38.96434349" lon="-0.49563342"><ele>136.0</ele><time>2022-11-13T14:48:47.0000000+00:00</time></trkpt><trkpt lat="38.96433352" lon="-0.49562336"><ele>136.0</ele><time>2022-11-13T14:48:48.0000000+00:00</time></trkpt><trkpt lat="38.96431784" lon="-0.49561355"><ele>136.0</ele><time>2022-11-13T14:48:49.0000000+00:00</time></trkpt><trkpt lat="38.96430577" lon="-0.49560802"><ele>136.0</ele><time>2022-11-13T14:48:50.0000000+00:00</time></trkpt><trkpt lat="38.96430066" lon="-0.49560576"><ele>136.0</ele><time>2022-11-13T14:48:51.0000000+00:00</time></trkpt><trkpt lat="38.96429999" lon="-0.49560274"><ele>136.0</ele><time>2022-11-13T14:48:52.0000000+00:00</time></trkpt><trkpt lat="38.96430175" lon="-0.49559821"><ele>136.0</ele><time>2022-11-13T14:48:53.0000000+00:00</time></trkpt><trkpt lat="38.96429328" lon="-0.49559176"><ele>136.0</ele><time>2022-11-13T14:48:54.0000000+00:00</time></trkpt><trkpt lat="38.96427987" lon="-0.49558497"><ele>136.0</ele><time>2022-11-13T14:48:55.0000000+00:00</time></trkpt><trkpt lat="38.9642642" lon="-0.49558053"><ele>136.0</ele><time>2022-11-13T14:48:56.0000000+00:00</time></trkpt><trkpt lat="38.96425263" lon="-0.49556955"><ele>136.0</ele><time>2022-11-13T14:48:57.0000000+00:00</time></trkpt><trkpt lat="38.96423729" lon="-0.495562"><ele>136.0</ele><time>2022-11-13T14:48:58.0000000+00:00</time></trkpt><trkpt lat="38.96423285" lon="-0.49555086"><ele>136.0</ele><time>2022-11-13T14:48:59.0000000+00:00</time></trkpt><trkpt lat="38.96423176" lon="-0.4955356"><ele>136.0</ele><time>2022-11-13T14:49:00.0000000+00:00</time></trkpt><trkpt lat="38.96423084" lon="-0.49552085"><ele>136.0</ele><time>2022-11-13T14:49:01.0000000+00:00</time></trkpt><trkpt lat="38.96422883" lon="-0.49551046"><ele>136.0</ele><time>2022-11-13T14:49:02.0000000+00:00</time></trkpt><trkpt lat="38.9642222" lon="-0.49550518"><ele>136.0</ele><time>2022-11-13T14:49:03.0000000+00:00</time></trkpt><trkpt lat="38.96422992" lon="-0.49549679"><ele>136.0</ele><time>2022-11-13T14:49:04.0000000+00:00</time></trkpt><trkpt lat="38.96423427" lon="-0.49547341"><ele>136.0</ele><time>2022-11-13T14:49:05.0000000+00:00</time></trkpt><trkpt lat="38.96423277" lon="-0.49545715"><ele>136.0</ele><time>2022-11-13T14:49:06.0000000+00:00</time></trkpt><trkpt lat="38.96422405" lon="-0.49544751"><ele>136.0</ele><time>2022-11-13T14:49:07.0000000+00:00</time></trkpt><trkpt lat="38.96420502" lon="-0.49544734"><ele>136.0</ele><time>2022-11-13T14:49:08.0000000+00:00</time></trkpt><trkpt lat="38.96418683" lon="-0.49544692"><ele>136.0</ele><time>2022-11-13T14:49:09.0000000+00:00</time></trkpt><trkpt lat="38.96416864" lon="-0.49545589"><ele>136.0</ele><time>2022-11-13T14:49:10.0000000+00:00</time></trkpt><trkpt lat="38.96415247" lon="-0.49545849"><ele>136.0</ele><time>2022-11-13T14:49:11.0000000+00:00</time></trkpt><trkpt lat="38.96415808" lon="-0.49545229"><ele>136.0</ele><time>2022-11-13T14:49:12.0000000+00:00</time></trkpt><trkpt lat="38.96416697" lon="-0.49544248"><ele>136.0</ele><time>2022-11-13T14:49:13.0000000+00:00</time></trkpt><trkpt lat="38.96415121" lon="-0.49543133"><ele>136.0</ele><time>2022-11-13T14:49:14.0000000+00:00</time></trkpt><trkpt lat="38.96414409" lon="-0.49541809"><ele>136.2</ele><time>2022-11-13T14:49:15.0000000+00:00</time></trkpt><trkpt lat="38.96414182" lon="-0.49540895"><ele>136.2</ele><time>2022-11-13T14:49:16.0000000+00:00</time></trkpt><trkpt lat="38.96413025" lon="-0.49539219"><ele>136.2</ele><time>2022-11-13T14:49:17.0000000+00:00</time></trkpt><trkpt lat="38.96411978" lon="-0.49538188"><ele>136.2</ele><time>2022-11-13T14:49:18.0000000+00:00</time></trkpt><trkpt lat="38.96411634" lon="-0.49537693"><ele>136.2</ele><time>2022-11-13T14:49:19.0000000+00:00</time></trkpt><trkpt lat="38.96411341" lon="-0.49537115"><ele>136.0</ele><time>2022-11-13T14:49:20.0000000+00:00</time></trkpt><trkpt lat="38.96411131" lon="-0.49536972"><ele>136.0</ele><time>2022-11-13T14:49:21.0000000+00:00</time></trkpt><trkpt lat="38.96411575" lon="-0.49537635"><ele>136.0</ele><time>2022-11-13T14:49:22.0000000+00:00</time></trkpt><trkpt lat="38.96411802" lon="-0.49537484"><ele>136.0</ele><time>2022-11-13T14:49:23.0000000+00:00</time></trkpt><trkpt lat="38.96411215" lon="-0.49536721"><ele>136.0</ele><time>2022-11-13T14:49:24.0000000+00:00</time></trkpt><trkpt lat="38.96410494" lon="-0.49535472"><ele>136.0</ele><time>2022-11-13T14:49:25.0000000+00:00</time></trkpt><trkpt lat="38.96409757" lon="-0.49534332"><ele>136.0</ele><time>2022-11-13T14:49:26.0000000+00:00</time></trkpt><trkpt lat="38.96407778" lon="-0.49533033"><ele>136.0</ele><time>2022-11-13T14:49:27.0000000+00:00</time></trkpt><trkpt lat="38.96405817" lon="-0.49531868"><ele>136.2</ele><time>2022-11-13T14:49:28.0000000+00:00</time></trkpt><trkpt lat="38.96404744" lon="-0.4953108"><ele>136.2</ele><time>2022-11-13T14:49:29.0000000+00:00</time></trkpt><trkpt lat="38.96402523" lon="-0.49530217"><ele>136.2</ele><time>2022-11-13T14:49:30.0000000+00:00</time></trkpt><trkpt lat="38.96400545" lon="-0.49529269"><ele>136.2</ele><time>2022-11-13T14:49:31.0000000+00:00</time></trkpt><trkpt lat="38.96399505" lon="-0.49528163"><ele>136.4</ele><time>2022-11-13T14:49:32.0000000+00:00</time></trkpt><trkpt lat="38.96398617" lon="-0.49527216"><ele>136.4</ele><time>2022-11-13T14:49:33.0000000+00:00</time></trkpt><trkpt lat="38.96397477" lon="-0.49526646"><ele>136.4</ele><time>2022-11-13T14:49:34.0000000+00:00</time></trkpt><trkpt lat="38.96397259" lon="-0.49525858"><ele>136.6</ele><time>2022-11-13T14:49:35.0000000+00:00</time></trkpt><trkpt lat="38.963972" lon="-0.4952424"><ele>136.6</ele><time>2022-11-13T14:49:36.0000000+00:00</time></trkpt><trkpt lat="38.96397259" lon="-0.49522363"><ele>136.6</ele><time>2022-11-13T14:49:37.0000000+00:00</time></trkpt><trkpt lat="38.96397963" lon="-0.49520628"><ele>136.6</ele><time>2022-11-13T14:49:38.0000000+00:00</time></trkpt><trkpt lat="38.96398659" lon="-0.49518448"><ele>136.6</ele><time>2022-11-13T14:49:39.0000000+00:00</time></trkpt><trkpt lat="38.96399246" lon="-0.495158"><ele>136.6</ele><time>2022-11-13T14:49:40.0000000+00:00</time></trkpt><trkpt lat="38.96398868" lon="-0.49514274"><ele>136.6</ele><time>2022-11-13T14:49:41.0000000+00:00</time></trkpt><trkpt lat="38.96398651" lon="-0.49513444"><ele>136.6</ele><time>2022-11-13T14:49:42.0000000+00:00</time></trkpt><trkpt lat="38.96398173" lon="-0.49513076"><ele>136.6</ele><time>2022-11-13T14:49:43.0000000+00:00</time></trkpt><trkpt lat="38.9639762" lon="-0.49510636"><ele>136.4</ele><time>2022-11-13T14:49:44.0000000+00:00</time></trkpt><trkpt lat="38.96396287" lon="-0.49508994"><ele>136.4</ele><time>2022-11-13T14:49:45.0000000+00:00</time></trkpt><trkpt lat="38.96395491" lon="-0.4950782"><ele>136.4</ele><time>2022-11-13T14:49:46.0000000+00:00</time></trkpt><trkpt lat="38.96393579" lon="-0.49506487"><ele>136.2</ele><time>2022-11-13T14:49:47.0000000+00:00</time></trkpt><trkpt lat="38.963928" lon="-0.49505213"><ele>136.2</ele><time>2022-11-13T14:49:48.0000000+00:00</time></trkpt><trkpt lat="38.96392272" lon="-0.4950466"><ele>136.2</ele><time>2022-11-13T14:49:49.0000000+00:00</time></trkpt><trkpt lat="38.96392071" lon="-0.49503478"><ele>136.0</ele><time>2022-11-13T14:49:50.0000000+00:00</time></trkpt><trkpt lat="38.96390914" lon="-0.4950155"><ele>136.0</ele><time>2022-11-13T14:49:51.0000000+00:00</time></trkpt><trkpt lat="38.96390629" lon="-0.49500369"><ele>136.0</ele><time>2022-11-13T14:49:52.0000000+00:00</time></trkpt><trkpt lat="38.96390243" lon="-0.49499111"><ele>135.8</ele><time>2022-11-13T14:49:53.0000000+00:00</time></trkpt><trkpt lat="38.96390193" lon="-0.49497871"><ele>135.8</ele><time>2022-11-13T14:49:54.0000000+00:00</time></trkpt><trkpt lat="38.96389372" lon="-0.49496731"><ele>135.8</ele><time>2022-11-13T14:49:55.0000000+00:00</time></trkpt><trkpt lat="38.96388207" lon="-0.49494728"><ele>135.8</ele><time>2022-11-13T14:49:56.0000000+00:00</time></trkpt><trkpt lat="38.96387737" lon="-0.49493076"><ele>135.8</ele><time>2022-11-13T14:49:57.0000000+00:00</time></trkpt><trkpt lat="38.96387746" lon="-0.49491702"><ele>135.8</ele><time>2022-11-13T14:49:58.0000000+00:00</time></trkpt><trkpt lat="38.96387721" lon="-0.49490411"><ele>135.8</ele><time>2022-11-13T14:49:59.0000000+00:00</time></trkpt><trkpt lat="38.96387503" lon="-0.49489254"><ele>135.8</ele><time>2022-11-13T14:50:00.0000000+00:00</time></trkpt><trkpt lat="38.96385835" lon="-0.49487678"><ele>135.8</ele><time>2022-11-13T14:50:01.0000000+00:00</time></trkpt><trkpt lat="38.963842" lon="-0.49486421"><ele>135.8</ele><time>2022-11-13T14:50:02.0000000+00:00</time></trkpt><trkpt lat="38.96382825" lon="-0.49486052"><ele>136.0</ele><time>2022-11-13T14:50:03.0000000+00:00</time></trkpt><trkpt lat="38.96381996" lon="-0.49485331"><ele>136.0</ele><time>2022-11-13T14:50:04.0000000+00:00</time></trkpt><trkpt lat="38.96381568" lon="-0.49484317"><ele>136.0</ele><time>2022-11-13T14:50:05.0000000+00:00</time></trkpt><trkpt lat="38.96381208" lon="-0.49482532"><ele>136.2</ele><time>2022-11-13T14:50:06.0000000+00:00</time></trkpt><trkpt lat="38.96380034" lon="-0.49480604"><ele>136.2</ele><time>2022-11-13T14:50:07.0000000+00:00</time></trkpt><trkpt lat="38.96378651" lon="-0.49478944"><ele>136.2</ele><time>2022-11-13T14:50:08.0000000+00:00</time></trkpt><trkpt lat="38.96378249" lon="-0.4947757"><ele>136.2</ele><time>2022-11-13T14:50:09.0000000+00:00</time></trkpt><trkpt lat="38.96377763" lon="-0.49476354"><ele>136.2</ele><time>2022-11-13T14:50:10.0000000+00:00</time></trkpt><trkpt lat="38.9637788" lon="-0.49475608"><ele>136.4</ele><time>2022-11-13T14:50:11.0000000+00:00</time></trkpt><trkpt lat="38.96377813" lon="-0.49474267"><ele>136.4</ele><time>2022-11-13T14:50:12.0000000+00:00</time></trkpt><trkpt lat="38.96377411" lon="-0.49473429"><ele>136.4</ele><time>2022-11-13T14:50:13.0000000+00:00</time></trkpt><trkpt lat="38.96377008" lon="-0.49472851"><ele>136.4</ele><time>2022-11-13T14:50:14.0000000+00:00</time></trkpt><trkpt lat="38.96376916" lon="-0.49471376"><ele>136.4</ele><time>2022-11-13T14:50:15.0000000+00:00</time></trkpt><trkpt lat="38.96377453" lon="-0.49469708"><ele>136.6</ele><time>2022-11-13T14:50:16.0000000+00:00</time></trkpt><trkpt lat="38.96377352" lon="-0.49468283"><ele>136.6</ele><time>2022-11-13T14:50:17.0000000+00:00</time></trkpt><trkpt lat="38.96376774" lon="-0.49467369"><ele>136.6</ele><time>2022-11-13T14:50:18.0000000+00:00</time></trkpt><trkpt lat="38.96375961" lon="-0.49465944"><ele>136.8</ele><time>2022-11-13T14:50:19.0000000+00:00</time></trkpt><trkpt lat="38.96376103" lon="-0.49464854"><ele>136.8</ele><time>2022-11-13T14:50:20.0000000+00:00</time></trkpt><trkpt lat="38.96376916" lon="-0.49463379"><ele>136.8</ele><time>2022-11-13T14:50:21.0000000+00:00</time></trkpt><trkpt lat="38.96377436" lon="-0.49461938"><ele>136.8</ele><time>2022-11-13T14:50:22.0000000+00:00</time></trkpt><trkpt lat="38.96377905" lon="-0.49460814"><ele>136.8</ele><time>2022-11-13T14:50:23.0000000+00:00</time></trkpt><trkpt lat="38.96378794" lon="-0.49460186"><ele>136.6</ele><time>2022-11-13T14:50:24.0000000+00:00</time></trkpt><trkpt lat="38.96380101" lon="-0.4945928"><ele>136.6</ele><time>2022-11-13T14:50:25.0000000+00:00</time></trkpt><trkpt lat="38.96381124" lon="-0.4945825"><ele>136.6</ele><time>2022-11-13T14:50:26.0000000+00:00</time></trkpt><trkpt lat="38.96381744" lon="-0.49456883"><ele>136.6</ele><time>2022-11-13T14:50:27.0000000+00:00</time></trkpt><trkpt lat="38.9638073" lon="-0.49454939"><ele>136.6</ele><time>2022-11-13T14:50:28.0000000+00:00</time></trkpt><trkpt lat="38.96381141" lon="-0.49452625"><ele>136.6</ele><time>2022-11-13T14:50:29.0000000+00:00</time></trkpt><trkpt lat="38.96382733" lon="-0.49450756"><ele>136.6</ele><time>2022-11-13T14:50:30.0000000+00:00</time></trkpt><trkpt lat="38.96383974" lon="-0.49449239"><ele>136.6</ele><time>2022-11-13T14:50:31.0000000+00:00</time></trkpt><trkpt lat="38.96384737" lon="-0.49447772"><ele>136.6</ele><time>2022-11-13T14:50:32.0000000+00:00</time></trkpt><trkpt lat="38.96385944" lon="-0.49446599"><ele>136.6</ele><time>2022-11-13T14:50:33.0000000+00:00</time></trkpt><trkpt lat="38.96386991" lon="-0.49445408"><ele>136.6</ele><time>2022-11-13T14:50:34.0000000+00:00</time></trkpt><trkpt lat="38.96387897" lon="-0.49444"><ele>136.6</ele><time>2022-11-13T14:50:35.0000000+00:00</time></trkpt><trkpt lat="38.96387855" lon="-0.49441863"><ele>136.6</ele><time>2022-11-13T14:50:36.0000000+00:00</time></trkpt><trkpt lat="38.96388047" lon="-0.49439281"><ele>136.6</ele><time>2022-11-13T14:50:37.0000000+00:00</time></trkpt><trkpt lat="38.96388869" lon="-0.49436658"><ele>136.6</ele><time>2022-11-13T14:50:38.0000000+00:00</time></trkpt><trkpt lat="38.96389288" lon="-0.49434914"><ele>136.6</ele><time>2022-11-13T14:50:39.0000000+00:00</time></trkpt><trkpt lat="38.96389296" lon="-0.49433255"><ele>136.6</ele><time>2022-11-13T14:50:40.0000000+00:00</time></trkpt><trkpt lat="38.96389573" lon="-0.49430983"><ele>136.6</ele><time>2022-11-13T14:50:41.0000000+00:00</time></trkpt><trkpt lat="38.96390051" lon="-0.49429441"><ele>136.6</ele><time>2022-11-13T14:50:42.0000000+00:00</time></trkpt><trkpt lat="38.9639016" lon="-0.49427957"><ele>136.4</ele><time>2022-11-13T14:50:43.0000000+00:00</time></trkpt><trkpt lat="38.96391509" lon="-0.49426407"><ele>136.4</ele><time>2022-11-13T14:50:44.0000000+00:00</time></trkpt><trkpt lat="38.96391417" lon="-0.49424554"><ele>136.4</ele><time>2022-11-13T14:50:45.0000000+00:00</time></trkpt><trkpt lat="38.96391794" lon="-0.49422853"><ele>136.4</ele><time>2022-11-13T14:50:46.0000000+00:00</time></trkpt><trkpt lat="38.96392423" lon="-0.49421604"><ele>136.6</ele><time>2022-11-13T14:50:47.0000000+00:00</time></trkpt><trkpt lat="38.96392951" lon="-0.49420984"><ele>136.6</ele><time>2022-11-13T14:50:48.0000000+00:00</time></trkpt><trkpt lat="38.96393512" lon="-0.49420355"><ele>136.6</ele><time>2022-11-13T14:50:49.0000000+00:00</time></trkpt><trkpt lat="38.96393823" lon="-0.49420078"><ele>136.8</ele><time>2022-11-13T14:50:50.0000000+00:00</time></trkpt><trkpt lat="38.96393227" lon="-0.49418829"><ele>136.8</ele><time>2022-11-13T14:50:51.0000000+00:00</time></trkpt><trkpt lat="38.96393043" lon="-0.49417597"><ele>136.8</ele><time>2022-11-13T14:50:52.0000000+00:00</time></trkpt><trkpt lat="38.96391694" lon="-0.4941541"><ele>136.8</ele><time>2022-11-13T14:50:53.0000000+00:00</time></trkpt><trkpt lat="38.96392448" lon="-0.49413138"><ele>136.8</ele><time>2022-11-13T14:50:54.0000000+00:00</time></trkpt><trkpt lat="38.96393068" lon="-0.4941194"><ele>136.8</ele><time>2022-11-13T14:50:55.0000000+00:00</time></trkpt><trkpt lat="38.96392942" lon="-0.494109"><ele>136.8</ele><time>2022-11-13T14:50:56.0000000+00:00</time></trkpt><trkpt lat="38.9639192" lon="-0.49410154"><ele>136.8</ele><time>2022-11-13T14:50:57.0000000+00:00</time></trkpt><trkpt lat="38.96391769" lon="-0.49408712"><ele>136.8</ele><time>2022-11-13T14:50:58.0000000+00:00</time></trkpt><trkpt lat="38.9639228" lon="-0.49407271"><ele>136.8</ele><time>2022-11-13T14:50:59.0000000+00:00</time></trkpt><trkpt lat="38.96392792" lon="-0.49405703"><ele>136.8</ele><time>2022-11-13T14:51:00.0000000+00:00</time></trkpt><trkpt lat="38.96393269" lon="-0.49405209"><ele>136.6</ele><time>2022-11-13T14:51:01.0000000+00:00</time></trkpt><trkpt lat="38.96393311" lon="-0.49403323"><ele>136.6</ele><time>2022-11-13T14:51:02.0000000+00:00</time></trkpt><trkpt lat="38.96393588" lon="-0.49402057"><ele>136.6</ele><time>2022-11-13T14:51:03.0000000+00:00</time></trkpt><trkpt lat="38.96393772" lon="-0.49400884"><ele>136.6</ele><time>2022-11-13T14:51:04.0000000+00:00</time></trkpt><trkpt lat="38.963942" lon="-0.49399459"><ele>136.6</ele><time>2022-11-13T14:51:05.0000000+00:00</time></trkpt><trkpt lat="38.96393546" lon="-0.49396995"><ele>136.6</ele><time>2022-11-13T14:51:06.0000000+00:00</time></trkpt><trkpt lat="38.96393018" lon="-0.49394866"><ele>136.6</ele><time>2022-11-13T14:51:07.0000000+00:00</time></trkpt><trkpt lat="38.96392456" lon="-0.49392963"><ele>136.6</ele><time>2022-11-13T14:51:08.0000000+00:00</time></trkpt><trkpt lat="38.96393269" lon="-0.49391261"><ele>136.6</ele><time>2022-11-13T14:51:09.0000000+00:00</time></trkpt><trkpt lat="38.96393739" lon="-0.49390482"><ele>136.6</ele><time>2022-11-13T14:51:10.0000000+00:00</time></trkpt><trkpt lat="38.9639477" lon="-0.49389015"><ele>136.6</ele><time>2022-11-13T14:51:11.0000000+00:00</time></trkpt><trkpt lat="38.96395197" lon="-0.49387816"><ele>136.6</ele><time>2022-11-13T14:51:12.0000000+00:00</time></trkpt><trkpt lat="38.96395935" lon="-0.493865"><ele>136.8</ele><time>2022-11-13T14:51:13.0000000+00:00</time></trkpt><trkpt lat="38.96396329" lon="-0.49385201"><ele>136.8</ele><time>2022-11-13T14:51:14.0000000+00:00</time></trkpt><trkpt lat="38.96396915" lon="-0.49382201"><ele>136.8</ele><time>2022-11-13T14:51:15.0000000+00:00</time></trkpt><trkpt lat="38.9639772" lon="-0.49379619"><ele>136.8</ele><time>2022-11-13T14:51:16.0000000+00:00</time></trkpt><trkpt lat="38.96398324" lon="-0.49377901"><ele>136.8</ele><time>2022-11-13T14:51:17.0000000+00:00</time></trkpt><trkpt lat="38.96397645" lon="-0.4937666"><ele>136.8</ele><time>2022-11-13T14:51:18.0000000+00:00</time></trkpt><trkpt lat="38.96397435" lon="-0.49375545"><ele>136.8</ele><time>2022-11-13T14:51:19.0000000+00:00</time></trkpt><trkpt lat="38.96398944" lon="-0.493735"><ele>136.8</ele><time>2022-11-13T14:51:20.0000000+00:00</time></trkpt><trkpt lat="38.96398835" lon="-0.49371145"><ele>136.8</ele><time>2022-11-13T14:51:21.0000000+00:00</time></trkpt><trkpt lat="38.96398785" lon="-0.49370248"><ele>136.8</ele><time>2022-11-13T14:51:22.0000000+00:00</time></trkpt><trkpt lat="38.96398248" lon="-0.49368446"><ele>136.8</ele><time>2022-11-13T14:51:23.0000000+00:00</time></trkpt><trkpt lat="38.96398223" lon="-0.49366409"><ele>136.8</ele><time>2022-11-13T14:51:24.0000000+00:00</time></trkpt><trkpt lat="38.96398215" lon="-0.49364422"><ele>136.8</ele><time>2022-11-13T14:51:25.0000000+00:00</time></trkpt><trkpt lat="38.96398089" lon="-0.49363526"><ele>136.8</ele><time>2022-11-13T14:51:26.0000000+00:00</time></trkpt><trkpt lat="38.96397661" lon="-0.49362126"><ele>136.8</ele><time>2022-11-13T14:51:27.0000000+00:00</time></trkpt><trkpt lat="38.96396555" lon="-0.49360366"><ele>136.8</ele><time>2022-11-13T14:51:28.0000000+00:00</time></trkpt><trkpt lat="38.96396622" lon="-0.49359226"><ele>136.8</ele><time>2022-11-13T14:51:29.0000000+00:00</time></trkpt><trkpt lat="38.96395742" lon="-0.49357063"><ele>136.8</ele><time>2022-11-13T14:51:30.0000000+00:00</time></trkpt><trkpt lat="38.96395046" lon="-0.49354808"><ele>136.8</ele><time>2022-11-13T14:51:31.0000000+00:00</time></trkpt><trkpt lat="38.96394585" lon="-0.49352981"><ele>136.8</ele><time>2022-11-13T14:51:32.0000000+00:00</time></trkpt><trkpt lat="38.96394527" lon="-0.49351682"><ele>136.8</ele><time>2022-11-13T14:51:33.0000000+00:00</time></trkpt><trkpt lat="38.96394443" lon="-0.49350626"><ele>136.8</ele><time>2022-11-13T14:51:34.0000000+00:00</time></trkpt><trkpt lat="38.96394208" lon="-0.49349603"><ele>136.8</ele><time>2022-11-13T14:51:35.0000000+00:00</time></trkpt><trkpt lat="38.96393898" lon="-0.49348597"><ele>136.8</ele><time>2022-11-13T14:51:36.0000000+00:00</time></trkpt><trkpt lat="38.96393294" lon="-0.49347164"><ele>136.8</ele><time>2022-11-13T14:51:37.0000000+00:00</time></trkpt><trkpt lat="38.96392657" lon="-0.49345471"><ele>136.8</ele><time>2022-11-13T14:51:38.0000000+00:00</time></trkpt><trkpt lat="38.96391761" lon="-0.49344063"><ele>136.8</ele><time>2022-11-13T14:51:39.0000000+00:00</time></trkpt><trkpt lat="38.96391249" lon="-0.49342227"><ele>136.8</ele><time>2022-11-13T14:51:40.0000000+00:00</time></trkpt><trkpt lat="38.96390922" lon="-0.49340643"><ele>136.8</ele><time>2022-11-13T14:51:41.0000000+00:00</time></trkpt><trkpt lat="38.96390495" lon="-0.49338883"><ele>137.0</ele><time>2022-11-13T14:51:42.0000000+00:00</time></trkpt><trkpt lat="38.96390034" lon="-0.49336486"><ele>137.0</ele><time>2022-11-13T14:51:43.0000000+00:00</time></trkpt><trkpt lat="38.96389514" lon="-0.49334566"><ele>137.0</ele><time>2022-11-13T14:51:44.0000000+00:00</time></trkpt><trkpt lat="38.96389053" lon="-0.49332186"><ele>137.0</ele><time>2022-11-13T14:51:45.0000000+00:00</time></trkpt><trkpt lat="38.96389263" lon="-0.49330786"><ele>137.0</ele><time>2022-11-13T14:51:46.0000000+00:00</time></trkpt><trkpt lat="38.96389087" lon="-0.49329663"><ele>137.0</ele><time>2022-11-13T14:51:47.0000000+00:00</time></trkpt><trkpt lat="38.96389129" lon="-0.49328456"><ele>137.0</ele><time>2022-11-13T14:51:48.0000000+00:00</time></trkpt><trkpt lat="38.96388928" lon="-0.49327509"><ele>137.0</ele><time>2022-11-13T14:51:49.0000000+00:00</time></trkpt><trkpt lat="38.96388316" lon="-0.49327257"><ele>137.0</ele><time>2022-11-13T14:51:50.0000000+00:00</time></trkpt><trkpt lat="38.96387461" lon="-0.49327165"><ele>137.2</ele><time>2022-11-13T14:51:51.0000000+00:00</time></trkpt><trkpt lat="38.96387167" lon="-0.49326612"><ele>137.2</ele><time>2022-11-13T14:51:52.0000000+00:00</time></trkpt><trkpt lat="38.9638757" lon="-0.49326913"><ele>137.2</ele><time>2022-11-13T14:51:53.0000000+00:00</time></trkpt><trkpt lat="38.96388274" lon="-0.49326955"><ele>137.2</ele><time>2022-11-13T14:51:54.0000000+00:00</time></trkpt><trkpt lat="38.96388391" lon="-0.49326536"><ele>137.0</ele><time>2022-11-13T14:51:55.0000000+00:00</time></trkpt><trkpt lat="38.96388492" lon="-0.49326025"><ele>137.0</ele><time>2022-11-13T14:51:56.0000000+00:00</time></trkpt><trkpt lat="38.96388433" lon="-0.49325631"><ele>137.0</ele><time>2022-11-13T14:51:57.0000000+00:00</time></trkpt><trkpt lat="38.96388575" lon="-0.49324877"><ele>137.0</ele><time>2022-11-13T14:51:58.0000000+00:00</time></trkpt><trkpt lat="38.96388643" lon="-0.49323871"><ele>137.0</ele><time>2022-11-13T14:51:59.0000000+00:00</time></trkpt><trkpt lat="38.96389414" lon="-0.4932258"><ele>137.0</ele><time>2022-11-13T14:52:00.0000000+00:00</time></trkpt><trkpt lat="38.96389263" lon="-0.49322169"><ele>137.0</ele><time>2022-11-13T14:52:01.0000000+00:00</time></trkpt><trkpt lat="38.96389313" lon="-0.49321943"><ele>137.0</ele><time>2022-11-13T14:52:02.0000000+00:00</time></trkpt><trkpt lat="38.96388802" lon="-0.4932149"><ele>137.0</ele><time>2022-11-13T14:52:03.0000000+00:00</time></trkpt><trkpt lat="38.96388106" lon="-0.49321189"><ele>137.0</ele><time>2022-11-13T14:52:04.0000000+00:00</time></trkpt><trkpt lat="38.9638881" lon="-0.49320057"><ele>137.0</ele><time>2022-11-13T14:52:05.0000000+00:00</time></trkpt><trkpt lat="38.96388768" lon="-0.4931999"><ele>137.0</ele><time>2022-11-13T14:52:06.0000000+00:00</time></trkpt><trkpt lat="38.9638876" lon="-0.49319906"><ele>137.0</ele><time>2022-11-13T14:52:07.0000000+00:00</time></trkpt><trkpt lat="38.96388341" lon="-0.49318498"><ele>137.0</ele><time>2022-11-13T14:52:08.0000000+00:00</time></trkpt><trkpt lat="38.9638762" lon="-0.49316897"><ele>137.0</ele><time>2022-11-13T14:52:09.0000000+00:00</time></trkpt><trkpt lat="38.96387394" lon="-0.4931455"><ele>137.0</ele><time>2022-11-13T14:52:10.0000000+00:00</time></trkpt><trkpt lat="38.96387327" lon="-0.49313083"><ele>137.0</ele><time>2022-11-13T14:52:11.0000000+00:00</time></trkpt><trkpt lat="38.96386924" lon="-0.49312706"><ele>137.0</ele><time>2022-11-13T14:52:12.0000000+00:00</time></trkpt><trkpt lat="38.96385717" lon="-0.49311734"><ele>137.0</ele><time>2022-11-13T14:52:13.0000000+00:00</time></trkpt><trkpt lat="38.96385239" lon="-0.49311197"><ele>137.2</ele><time>2022-11-13T14:52:14.0000000+00:00</time></trkpt><trkpt lat="38.96384795" lon="-0.49310753"><ele>137.2</ele><time>2022-11-13T14:52:15.0000000+00:00</time></trkpt><trkpt lat="38.96384552" lon="-0.49310753"><ele>137.2</ele><time>2022-11-13T14:52:16.0000000+00:00</time></trkpt><trkpt lat="38.96384376" lon="-0.49310711"><ele>137.2</ele><time>2022-11-13T14:52:17.0000000+00:00</time></trkpt><trkpt lat="38.9638415" lon="-0.49310627"><ele>137.2</ele><time>2022-11-13T14:52:18.0000000+00:00</time></trkpt><trkpt lat="38.96383965" lon="-0.49310468"><ele>137.2</ele><time>2022-11-13T14:52:19.0000000+00:00</time></trkpt><trkpt lat="38.96383865" lon="-0.49310376"><ele>137.2</ele><time>2022-11-13T14:52:20.0000000+00:00</time></trkpt><trkpt lat="38.9638394" lon="-0.49310376"><ele>137.2</ele><time>2022-11-13T14:52:21.0000000+00:00</time></trkpt><trkpt lat="38.96383949" lon="-0.49310368"><ele>137.2</ele><time>2022-11-13T14:52:22.0000000+00:00</time></trkpt><trkpt lat="38.96383932" lon="-0.49310393"><ele>137.2</ele><time>2022-11-13T14:52:23.0000000+00:00</time></trkpt><trkpt lat="38.96383789" lon="-0.49310493"><ele>137.2</ele><time>2022-11-13T14:52:24.0000000+00:00</time></trkpt><trkpt lat="38.96383722" lon="-0.49310326"><ele>137.2</ele><time>2022-11-13T14:52:25.0000000+00:00</time></trkpt><trkpt lat="38.96383848" lon="-0.49309789"><ele>137.2</ele><time>2022-11-13T14:52:26.0000000+00:00</time></trkpt><trkpt lat="38.96383756" lon="-0.49308926"><ele>137.2</ele><time>2022-11-13T14:52:27.0000000+00:00</time></trkpt><trkpt lat="38.9638389" lon="-0.49308037"><ele>137.2</ele><time>2022-11-13T14:52:28.0000000+00:00</time></trkpt><trkpt lat="38.96384158" lon="-0.49307216"><ele>137.2</ele><time>2022-11-13T14:52:29.0000000+00:00</time></trkpt><trkpt lat="38.96384192" lon="-0.49305967"><ele>137.2</ele><time>2022-11-13T14:52:30.0000000+00:00</time></trkpt><trkpt lat="38.96383882" lon="-0.49304819"><ele>137.2</ele><time>2022-11-13T14:52:31.0000000+00:00</time></trkpt><trkpt lat="38.96383647" lon="-0.49303553"><ele>137.2</ele><time>2022-11-13T14:52:32.0000000+00:00</time></trkpt><trkpt lat="38.96383823" lon="-0.49302564"><ele>137.2</ele><time>2022-11-13T14:52:33.0000000+00:00</time></trkpt><trkpt lat="38.96384175" lon="-0.49301525"><ele>137.2</ele><time>2022-11-13T14:52:34.0000000+00:00</time></trkpt><trkpt lat="38.9638477" lon="-0.49300469"><ele>137.4</ele><time>2022-11-13T14:52:35.0000000+00:00</time></trkpt><trkpt lat="38.96384401" lon="-0.49299563"><ele>137.4</ele><time>2022-11-13T14:52:36.0000000+00:00</time></trkpt><trkpt lat="38.96384175" lon="-0.49298256"><ele>137.4</ele><time>2022-11-13T14:52:37.0000000+00:00</time></trkpt><trkpt lat="38.96384049" lon="-0.4929704"><ele>137.4</ele><time>2022-11-13T14:52:38.0000000+00:00</time></trkpt><trkpt lat="38.96384049" lon="-0.49296076"><ele>137.6</ele><time>2022-11-13T14:52:39.0000000+00:00</time></trkpt><trkpt lat="38.96383924" lon="-0.49294911"><ele>137.6</ele><time>2022-11-13T14:52:40.0000000+00:00</time></trkpt><trkpt lat="38.9638363" lon="-0.4929352"><ele>137.6</ele><time>2022-11-13T14:52:41.0000000+00:00</time></trkpt><trkpt lat="38.96383815" lon="-0.49292246"><ele>137.8</ele><time>2022-11-13T14:52:42.0000000+00:00</time></trkpt><trkpt lat="38.96384108" lon="-0.49290905"><ele>137.8</ele><time>2022-11-13T14:52:43.0000000+00:00</time></trkpt><trkpt lat="38.96384083" lon="-0.49289849"><ele>137.8</ele><time>2022-11-13T14:52:44.0000000+00:00</time></trkpt><trkpt lat="38.96384686" lon="-0.49288156"><ele>138.0</ele><time>2022-11-13T14:52:45.0000000+00:00</time></trkpt><trkpt lat="38.96385265" lon="-0.49286974"><ele>138.0</ele><time>2022-11-13T14:52:46.0000000+00:00</time></trkpt><trkpt lat="38.96385826" lon="-0.49285138"><ele>138.0</ele><time>2022-11-13T14:52:47.0000000+00:00</time></trkpt><trkpt lat="38.96385742" lon="-0.49283822"><ele>138.0</ele><time>2022-11-13T14:52:48.0000000+00:00</time></trkpt><trkpt lat="38.96385944" lon="-0.4928207"><ele>138.0</ele><time>2022-11-13T14:52:49.0000000+00:00</time></trkpt><trkpt lat="38.96385902" lon="-0.49280427"><ele>138.0</ele><time>2022-11-13T14:52:50.0000000+00:00</time></trkpt><trkpt lat="38.96385902" lon="-0.49278474"><ele>138.0</ele><time>2022-11-13T14:52:51.0000000+00:00</time></trkpt><trkpt lat="38.96385558" lon="-0.49277075"><ele>138.0</ele><time>2022-11-13T14:52:52.0000000+00:00</time></trkpt><trkpt lat="38.96384879" lon="-0.49275273"><ele>138.0</ele><time>2022-11-13T14:52:53.0000000+00:00</time></trkpt><trkpt lat="38.96384594" lon="-0.49273194"><ele>138.0</ele><time>2022-11-13T14:52:54.0000000+00:00</time></trkpt><trkpt lat="38.9638446" lon="-0.49271685"><ele>138.0</ele><time>2022-11-13T14:52:55.0000000+00:00</time></trkpt><trkpt lat="38.96384041" lon="-0.49270277"><ele>138.0</ele><time>2022-11-13T14:52:56.0000000+00:00</time></trkpt><trkpt lat="38.96383915" lon="-0.49268081"><ele>138.0</ele><time>2022-11-13T14:52:57.0000000+00:00</time></trkpt><trkpt lat="38.96384141" lon="-0.49265885"><ele>138.0</ele><time>2022-11-13T14:52:58.0000000+00:00</time></trkpt><trkpt lat="38.96384284" lon="-0.49263999"><ele>138.0</ele><time>2022-11-13T14:52:59.0000000+00:00</time></trkpt><trkpt lat="38.9638446" lon="-0.49261794"><ele>138.0</ele><time>2022-11-13T14:53:00.0000000+00:00</time></trkpt><trkpt lat="38.96384502" lon="-0.492598"><ele>138.0</ele><time>2022-11-13T14:53:01.0000000+00:00</time></trkpt><trkpt lat="38.96384602" lon="-0.49257905"><ele>138.0</ele><time>2022-11-13T14:53:02.0000000+00:00</time></trkpt><trkpt lat="38.96384561" lon="-0.49256028"><ele>138.0</ele><time>2022-11-13T14:53:03.0000000+00:00</time></trkpt><trkpt lat="38.96384276" lon="-0.49254159"><ele>138.0</ele><time>2022-11-13T14:53:04.0000000+00:00</time></trkpt><trkpt lat="38.96383915" lon="-0.49252231"><ele>138.0</ele><time>2022-11-13T14:53:05.0000000+00:00</time></trkpt><trkpt lat="38.96383689" lon="-0.49250705"><ele>138.0</ele><time>2022-11-13T14:53:06.0000000+00:00</time></trkpt><trkpt lat="38.96383429" lon="-0.49249104"><ele>138.2</ele><time>2022-11-13T14:53:07.0000000+00:00</time></trkpt><trkpt lat="38.96382708" lon="-0.49247696"><ele>138.2</ele><time>2022-11-13T14:53:08.0000000+00:00</time></trkpt><trkpt lat="38.96382691" lon="-0.49246296"><ele>138.2</ele><time>2022-11-13T14:53:09.0000000+00:00</time></trkpt><trkpt lat="38.96382825" lon="-0.49245207"><ele>138.2</ele><time>2022-11-13T14:53:10.0000000+00:00</time></trkpt><trkpt lat="38.96382834" lon="-0.49243505"><ele>138.2</ele><time>2022-11-13T14:53:11.0000000+00:00</time></trkpt><trkpt lat="38.96382742" lon="-0.4924182"><ele>138.2</ele><time>2022-11-13T14:53:12.0000000+00:00</time></trkpt><trkpt lat="38.96383127" lon="-0.49240287"><ele>138.2</ele><time>2022-11-13T14:53:13.0000000+00:00</time></trkpt><trkpt lat="38.96383446" lon="-0.49238015"><ele>138.4</ele><time>2022-11-13T14:53:14.0000000+00:00</time></trkpt><trkpt lat="38.9638363" lon="-0.49236129"><ele>138.6</ele><time>2022-11-13T14:53:15.0000000+00:00</time></trkpt><trkpt lat="38.96383454" lon="-0.49235517"><ele>138.6</ele><time>2022-11-13T14:53:16.0000000+00:00</time></trkpt><trkpt lat="38.96383387" lon="-0.49234813"><ele>138.6</ele><time>2022-11-13T14:53:17.0000000+00:00</time></trkpt><trkpt lat="38.96382775" lon="-0.49233371"><ele>138.6</ele><time>2022-11-13T14:53:18.0000000+00:00</time></trkpt><trkpt lat="38.96382859" lon="-0.49231737"><ele>138.8</ele><time>2022-11-13T14:53:19.0000000+00:00</time></trkpt><trkpt lat="38.96383295" lon="-0.49230337"><ele>138.8</ele><time>2022-11-13T14:53:20.0000000+00:00</time></trkpt><trkpt lat="38.96383303" lon="-0.49228778"><ele>139.0</ele><time>2022-11-13T14:53:21.0000000+00:00</time></trkpt><trkpt lat="38.96383387" lon="-0.49226917"><ele>139.0</ele><time>2022-11-13T14:53:22.0000000+00:00</time></trkpt><trkpt lat="38.96383496" lon="-0.49225467"><ele>139.2</ele><time>2022-11-13T14:53:23.0000000+00:00</time></trkpt><trkpt lat="38.96383412" lon="-0.49224059"><ele>139.2</ele><time>2022-11-13T14:53:24.0000000+00:00</time></trkpt><trkpt lat="38.96383077" lon="-0.49222743"><ele>139.2</ele><time>2022-11-13T14:53:25.0000000+00:00</time></trkpt><trkpt lat="38.9638301" lon="-0.49221603"><ele>139.2</ele><time>2022-11-13T14:53:26.0000000+00:00</time></trkpt><trkpt lat="38.96383261" lon="-0.49219977"><ele>139.2</ele><time>2022-11-13T14:53:27.0000000+00:00</time></trkpt><trkpt lat="38.96382859" lon="-0.49218401"><ele>139.4</ele><time>2022-11-13T14:53:28.0000000+00:00</time></trkpt><trkpt lat="38.96383018" lon="-0.49217345"><ele>139.4</ele><time>2022-11-13T14:53:29.0000000+00:00</time></trkpt><trkpt lat="38.96382817" lon="-0.49216415"><ele>139.6</ele><time>2022-11-13T14:53:30.0000000+00:00</time></trkpt><trkpt lat="38.96382457" lon="-0.49215082"><ele>139.6</ele><time>2022-11-13T14:53:31.0000000+00:00</time></trkpt><trkpt lat="38.96381795" lon="-0.49214303"><ele>139.8</ele><time>2022-11-13T14:53:32.0000000+00:00</time></trkpt><trkpt lat="38.96381929" lon="-0.4921307"><ele>139.8</ele><time>2022-11-13T14:53:33.0000000+00:00</time></trkpt><trkpt lat="38.9638223" lon="-0.49211914"><ele>139.8</ele><time>2022-11-13T14:53:34.0000000+00:00</time></trkpt><trkpt lat="38.96382415" lon="-0.49210673"><ele>140.0</ele><time>2022-11-13T14:53:35.0000000+00:00</time></trkpt><trkpt lat="38.96382859" lon="-0.49209424"><ele>140.0</ele><time>2022-11-13T14:53:36.0000000+00:00</time></trkpt><trkpt lat="38.96383278" lon="-0.49208326"><ele>140.2</ele><time>2022-11-13T14:53:37.0000000+00:00</time></trkpt><trkpt lat="38.96383781" lon="-0.49206943"><ele>140.2</ele><time>2022-11-13T14:53:38.0000000+00:00</time></trkpt><trkpt lat="38.96383991" lon="-0.49205007"><ele>140.2</ele><time>2022-11-13T14:53:39.0000000+00:00</time></trkpt><trkpt lat="38.96383194" lon="-0.49204102"><ele>140.2</ele><time>2022-11-13T14:53:40.0000000+00:00</time></trkpt><trkpt lat="38.96382809" lon="-0.49203339"><ele>140.4</ele><time>2022-11-13T14:53:41.0000000+00:00</time></trkpt><trkpt lat="38.96382557" lon="-0.49201839"><ele>140.4</ele><time>2022-11-13T14:53:42.0000000+00:00</time></trkpt><trkpt lat="38.96383035" lon="-0.49200799"><ele>140.4</ele><time>2022-11-13T14:53:43.0000000+00:00</time></trkpt><trkpt lat="38.96383345" lon="-0.49199441"><ele>140.6</ele><time>2022-11-13T14:53:44.0000000+00:00</time></trkpt><trkpt lat="38.96384049" lon="-0.4919831"><ele>140.8</ele><time>2022-11-13T14:53:45.0000000+00:00</time></trkpt><trkpt lat="38.96383496" lon="-0.49196357"><ele>140.8</ele><time>2022-11-13T14:53:46.0000000+00:00</time></trkpt><trkpt lat="38.96383513" lon="-0.49194722"><ele>140.8</ele><time>2022-11-13T14:53:47.0000000+00:00</time></trkpt><trkpt lat="38.96382985" lon="-0.49192677"><ele>141.0</ele><time>2022-11-13T14:53:48.0000000+00:00</time></trkpt><trkpt lat="38.96383219" lon="-0.49190096"><ele>141.0</ele><time>2022-11-13T14:53:49.0000000+00:00</time></trkpt><trkpt lat="38.96382985" lon="-0.49188034"><ele>141.0</ele><time>2022-11-13T14:53:50.0000000+00:00</time></trkpt><trkpt lat="38.96382884" lon="-0.49187128"><ele>141.0</ele><time>2022-11-13T14:53:51.0000000+00:00</time></trkpt><trkpt lat="38.96381853" lon="-0.49185536"><ele>141.2</ele><time>2022-11-13T14:53:52.0000000+00:00</time></trkpt><trkpt lat="38.96381007" lon="-0.49184999"><ele>141.2</ele><time>2022-11-13T14:53:53.0000000+00:00</time></trkpt><trkpt lat="38.96381208" lon="-0.49183692"><ele>141.4</ele><time>2022-11-13T14:53:54.0000000+00:00</time></trkpt><trkpt lat="38.96381526" lon="-0.49182694"><ele>141.4</ele><time>2022-11-13T14:53:55.0000000+00:00</time></trkpt><trkpt lat="38.96381903" lon="-0.49181487"><ele>141.4</ele><time>2022-11-13T14:53:56.0000000+00:00</time></trkpt><trkpt lat="38.96382147" lon="-0.49180029"><ele>141.4</ele><time>2022-11-13T14:53:57.0000000+00:00</time></trkpt><trkpt lat="38.96382222" lon="-0.49178654"><ele>141.6</ele><time>2022-11-13T14:53:58.0000000+00:00</time></trkpt><trkpt lat="38.96382147" lon="-0.49177791"><ele>141.6</ele><time>2022-11-13T14:53:59.0000000+00:00</time></trkpt><trkpt lat="38.96381878" lon="-0.49176701"><ele>141.6</ele><time>2022-11-13T14:54:00.0000000+00:00</time></trkpt><trkpt lat="38.96381686" lon="-0.49175075"><ele>141.6</ele><time>2022-11-13T14:54:01.0000000+00:00</time></trkpt><trkpt lat="38.96380814" lon="-0.4917417"><ele>141.6</ele><time>2022-11-13T14:54:02.0000000+00:00</time></trkpt><trkpt lat="38.96380981" lon="-0.49173282"><ele>141.6</ele><time>2022-11-13T14:54:03.0000000+00:00</time></trkpt><trkpt lat="38.96381049" lon="-0.49171999"><ele>141.6</ele><time>2022-11-13T14:54:04.0000000+00:00</time></trkpt><trkpt lat="38.96380638" lon="-0.49171211"><ele>141.6</ele><time>2022-11-13T14:54:05.0000000+00:00</time></trkpt><trkpt lat="38.96380579" lon="-0.49169862"><ele>141.6</ele><time>2022-11-13T14:54:06.0000000+00:00</time></trkpt><trkpt lat="38.96380428" lon="-0.49168596"><ele>141.6</ele><time>2022-11-13T14:54:07.0000000+00:00</time></trkpt><trkpt lat="38.9637985" lon="-0.49167121"><ele>141.8</ele><time>2022-11-13T14:54:08.0000000+00:00</time></trkpt><trkpt lat="38.96379741" lon="-0.49165671"><ele>141.8</ele><time>2022-11-13T14:54:09.0000000+00:00</time></trkpt><trkpt lat="38.96379892" lon="-0.49164263"><ele>141.8</ele><time>2022-11-13T14:54:10.0000000+00:00</time></trkpt><trkpt lat="38.96380093" lon="-0.49162947"><ele>141.8</ele><time>2022-11-13T14:54:11.0000000+00:00</time></trkpt><trkpt lat="38.96379707" lon="-0.49161631"><ele>142.0</ele><time>2022-11-13T14:54:12.0000000+00:00</time></trkpt><trkpt lat="38.96379456" lon="-0.49160332"><ele>142.0</ele><time>2022-11-13T14:54:13.0000000+00:00</time></trkpt><trkpt lat="38.9637923" lon="-0.49159032"><ele>142.0</ele><time>2022-11-13T14:54:14.0000000+00:00</time></trkpt><trkpt lat="38.96379096" lon="-0.49157725"><ele>142.0</ele><time>2022-11-13T14:54:15.0000000+00:00</time></trkpt><trkpt lat="38.9637907" lon="-0.49156409"><ele>142.0</ele><time>2022-11-13T14:54:16.0000000+00:00</time></trkpt><trkpt lat="38.96379045" lon="-0.49154925"><ele>142.0</ele><time>2022-11-13T14:54:17.0000000+00:00</time></trkpt><trkpt lat="38.96378693" lon="-0.49153685"><ele>142.0</ele><time>2022-11-13T14:54:18.0000000+00:00</time></trkpt><trkpt lat="38.96378291" lon="-0.49152293"><ele>142.0</ele><time>2022-11-13T14:54:19.0000000+00:00</time></trkpt><trkpt lat="38.96377972" lon="-0.49151388"><ele>142.0</ele><time>2022-11-13T14:54:20.0000000+00:00</time></trkpt><trkpt lat="38.96377428" lon="-0.49149787"><ele>142.0</ele><time>2022-11-13T14:54:21.0000000+00:00</time></trkpt><trkpt lat="38.9637726" lon="-0.49148538"><ele>142.0</ele><time>2022-11-13T14:54:22.0000000+00:00</time></trkpt><trkpt lat="38.96376925" lon="-0.49147147"><ele>142.0</ele><time>2022-11-13T14:54:23.0000000+00:00</time></trkpt><trkpt lat="38.9637674" lon="-0.49145554"><ele>142.0</ele><time>2022-11-13T14:54:24.0000000+00:00</time></trkpt><trkpt lat="38.96377109" lon="-0.49144037"><ele>142.0</ele><time>2022-11-13T14:54:25.0000000+00:00</time></trkpt><trkpt lat="38.96377453" lon="-0.49142034"><ele>142.0</ele><time>2022-11-13T14:54:26.0000000+00:00</time></trkpt><trkpt lat="38.96378283" lon="-0.49140441"><ele>142.0</ele><time>2022-11-13T14:54:27.0000000+00:00</time></trkpt><trkpt lat="38.96378517" lon="-0.4913879"><ele>142.0</ele><time>2022-11-13T14:54:28.0000000+00:00</time></trkpt><trkpt lat="38.96378676" lon="-0.49137172"><ele>142.0</ele><time>2022-11-13T14:54:29.0000000+00:00</time></trkpt><trkpt lat="38.96379104" lon="-0.4913589"><ele>142.0</ele><time>2022-11-13T14:54:30.0000000+00:00</time></trkpt><trkpt lat="38.9637959" lon="-0.49135211"><ele>142.0</ele><time>2022-11-13T14:54:31.0000000+00:00</time></trkpt><trkpt lat="38.96379531" lon="-0.49134834"><ele>142.0</ele><time>2022-11-13T14:54:32.0000000+00:00</time></trkpt><trkpt lat="38.96379506" lon="-0.49134658"><ele>142.0</ele><time>2022-11-13T14:54:33.0000000+00:00</time></trkpt><trkpt lat="38.96379389" lon="-0.49134549"><ele>142.0</ele><time>2022-11-13T14:54:34.0000000+00:00</time></trkpt><trkpt lat="38.9637949" lon="-0.49134297"><ele>142.0</ele><time>2022-11-13T14:54:35.0000000+00:00</time></trkpt><trkpt lat="38.96379506" lon="-0.49133157"><ele>141.8</ele><time>2022-11-13T14:54:36.0000000+00:00</time></trkpt><trkpt lat="38.96379733" lon="-0.49131313"><ele>141.8</ele><time>2022-11-13T14:54:37.0000000+00:00</time></trkpt><trkpt lat="38.96380277" lon="-0.49129671"><ele>141.8</ele><time>2022-11-13T14:54:38.0000000+00:00</time></trkpt><trkpt lat="38.96380621" lon="-0.4912817"><ele>141.8</ele><time>2022-11-13T14:54:39.0000000+00:00</time></trkpt><trkpt lat="38.96380629" lon="-0.49127441"><ele>141.6</ele><time>2022-11-13T14:54:40.0000000+00:00</time></trkpt><trkpt lat="38.96380671" lon="-0.49126427"><ele>141.6</ele><time>2022-11-13T14:54:41.0000000+00:00</time></trkpt><trkpt lat="38.96380361" lon="-0.49125446"><ele>141.6</ele><time>2022-11-13T14:54:42.0000000+00:00</time></trkpt><trkpt lat="38.9638047" lon="-0.49124675"><ele>141.6</ele><time>2022-11-13T14:54:43.0000000+00:00</time></trkpt><trkpt lat="38.96380437" lon="-0.49124038"><ele>141.4</ele><time>2022-11-13T14:54:44.0000000+00:00</time></trkpt><trkpt lat="38.96380445" lon="-0.49123828"><ele>141.4</ele><time>2022-11-13T14:54:45.0000000+00:00</time></trkpt><trkpt lat="38.96380437" lon="-0.49123736"><ele>141.4</ele><time>2022-11-13T14:54:46.0000000+00:00</time></trkpt><trkpt lat="38.96380303" lon="-0.49123786"><ele>141.4</ele><time>2022-11-13T14:54:47.0000000+00:00</time></trkpt><trkpt lat="38.96380168" lon="-0.49123837"><ele>141.4</ele><time>2022-11-13T14:54:48.0000000+00:00</time></trkpt><trkpt lat="38.96380085" lon="-0.49123837"><ele>141.4</ele><time>2022-11-13T14:54:49.0000000+00:00</time></trkpt><trkpt lat="38.96379992" lon="-0.49123778"><ele>141.4</ele><time>2022-11-13T14:54:50.0000000+00:00</time></trkpt><trkpt lat="38.96379934" lon="-0.49123728"><ele>141.4</ele><time>2022-11-13T14:54:51.0000000+00:00</time></trkpt><trkpt lat="38.96379858" lon="-0.49123585"><ele>141.4</ele><time>2022-11-13T14:54:52.0000000+00:00</time></trkpt><trkpt lat="38.96379682" lon="-0.49123392"><ele>141.4</ele><time>2022-11-13T14:54:53.0000000+00:00</time></trkpt><trkpt lat="38.96379523" lon="-0.49123183"><ele>141.4</ele><time>2022-11-13T14:54:54.0000000+00:00</time></trkpt><trkpt lat="38.96379414" lon="-0.49122999"><ele>141.2</ele><time>2022-11-13T14:54:55.0000000+00:00</time></trkpt><trkpt lat="38.96379548" lon="-0.49122973"><ele>141.2</ele><time>2022-11-13T14:54:56.0000000+00:00</time></trkpt><trkpt lat="38.96379548" lon="-0.49122973"><ele>141.2</ele><time>2022-11-13T14:54:57.0000000+00:00</time></trkpt><trkpt lat="38.96379548" lon="-0.49122973"><ele>141.2</ele><time>2022-11-13T14:54:58.0000000+00:00</time></trkpt><trkpt lat="38.96379548" lon="-0.49122973"><ele>141.2</ele><time>2022-11-13T14:54:59.0000000+00:00</time></trkpt><trkpt lat="38.96379548" lon="-0.49122973"><ele>141.2</ele><time>2022-11-13T14:55:00.0000000+00:00</time></trkpt><trkpt lat="38.96379548" lon="-0.49122973"><ele>141.2</ele><time>2022-11-13T14:55:01.0000000+00:00</time></trkpt><trkpt lat="38.96379548" lon="-0.49122973"><ele>141.2</ele><time>2022-11-13T14:55:02.0000000+00:00</time></trkpt><trkpt lat="38.96379573" lon="-0.49122487"><ele>141.0</ele><time>2022-11-13T14:55:03.0000000+00:00</time></trkpt><trkpt lat="38.96380059" lon="-0.49121121"><ele>141.0</ele><time>2022-11-13T14:55:04.0000000+00:00</time></trkpt><trkpt lat="38.96380395" lon="-0.49119654"><ele>140.8</ele><time>2022-11-13T14:55:05.0000000+00:00</time></trkpt><trkpt lat="38.9638042" lon="-0.49118732"><ele>140.8</ele><time>2022-11-13T14:55:06.0000000+00:00</time></trkpt><trkpt lat="38.96380085" lon="-0.49117534"><ele>140.8</ele><time>2022-11-13T14:55:07.0000000+00:00</time></trkpt><trkpt lat="38.96380261" lon="-0.49116888"><ele>140.8</ele><time>2022-11-13T14:55:08.0000000+00:00</time></trkpt><trkpt lat="38.96380294" lon="-0.49116075"><ele>140.8</ele><time>2022-11-13T14:55:09.0000000+00:00</time></trkpt><trkpt lat="38.96380319" lon="-0.4911512"><ele>140.8</ele><time>2022-11-13T14:55:10.0000000+00:00</time></trkpt><trkpt lat="38.96380277" lon="-0.49113921"><ele>140.8</ele><time>2022-11-13T14:55:11.0000000+00:00</time></trkpt><trkpt lat="38.96379967" lon="-0.49112848"><ele>140.8</ele><time>2022-11-13T14:55:12.0000000+00:00</time></trkpt><trkpt lat="38.96379707" lon="-0.49111993"><ele>140.8</ele><time>2022-11-13T14:55:13.0000000+00:00</time></trkpt><trkpt lat="38.96379456" lon="-0.49111457"><ele>140.8</ele><time>2022-11-13T14:55:14.0000000+00:00</time></trkpt><trkpt lat="38.96379481" lon="-0.49110786"><ele>140.8</ele><time>2022-11-13T14:55:15.0000000+00:00</time></trkpt><trkpt lat="38.96379833" lon="-0.49110359"><ele>141.0</ele><time>2022-11-13T14:55:16.0000000+00:00</time></trkpt><trkpt lat="38.96380395" lon="-0.49109956"><ele>141.0</ele><time>2022-11-13T14:55:17.0000000+00:00</time></trkpt><trkpt lat="38.9638068" lon="-0.49109956"><ele>141.0</ele><time>2022-11-13T14:55:18.0000000+00:00</time></trkpt><trkpt lat="38.9638099" lon="-0.49109839"><ele>141.0</ele><time>2022-11-13T14:55:19.0000000+00:00</time></trkpt><trkpt lat="38.9638104" lon="-0.49109738"><ele>141.0</ele><time>2022-11-13T14:55:20.0000000+00:00</time></trkpt><trkpt lat="38.96381141" lon="-0.49109705"><ele>141.0</ele><time>2022-11-13T14:55:21.0000000+00:00</time></trkpt><trkpt lat="38.96381283" lon="-0.49109646"><ele>141.0</ele><time>2022-11-13T14:55:22.0000000+00:00</time></trkpt><trkpt lat="38.96381577" lon="-0.4910952"><ele>140.8</ele><time>2022-11-13T14:55:23.0000000+00:00</time></trkpt><trkpt lat="38.96381702" lon="-0.49109395"><ele>140.8</ele><time>2022-11-13T14:55:24.0000000+00:00</time></trkpt><trkpt lat="38.96381962" lon="-0.49109194"><ele>140.8</ele><time>2022-11-13T14:55:25.0000000+00:00</time></trkpt><trkpt lat="38.96382038" lon="-0.49109026"><ele>140.8</ele><time>2022-11-13T14:55:26.0000000+00:00</time></trkpt><trkpt lat="38.96382038" lon="-0.49109026"><ele>140.8</ele><time>2022-11-13T14:55:27.0000000+00:00</time></trkpt><trkpt lat="38.96382038" lon="-0.49109026"><ele>140.8</ele><time>2022-11-13T14:55:28.0000000+00:00</time></trkpt><trkpt lat="38.96382038" lon="-0.49109026"><ele>140.8</ele><time>2022-11-13T14:55:29.0000000+00:00</time></trkpt><trkpt lat="38.96382038" lon="-0.49109026"><ele>140.8</ele><time>2022-11-13T14:55:30.0000000+00:00</time></trkpt><trkpt lat="38.96382038" lon="-0.49109026"><ele>140.8</ele><time>2022-11-13T14:55:31.0000000+00:00</time></trkpt><trkpt lat="38.96382038" lon="-0.49109026"><ele>140.8</ele><time>2022-11-13T14:55:32.0000000+00:00</time></trkpt><trkpt lat="38.96382038" lon="-0.49109026"><ele>140.8</ele><time>2022-11-13T14:55:33.0000000+00:00</time></trkpt><trkpt lat="38.96382038" lon="-0.49109026"><ele>140.8</ele><time>2022-11-13T14:55:34.0000000+00:00</time></trkpt><trkpt lat="38.96382038" lon="-0.49109026"><ele>140.8</ele><time>2022-11-13T14:55:35.0000000+00:00</time></trkpt><trkpt lat="38.96382038" lon="-0.49109026"><ele>140.8</ele><time>2022-11-13T14:55:36.0000000+00:00</time></trkpt><trkpt lat="38.96382038" lon="-0.49109026"><ele>140.8</ele><time>2022-11-13T14:55:37.0000000+00:00</time></trkpt><trkpt lat="38.96382038" lon="-0.49109026"><ele>140.8</ele><time>2022-11-13T14:55:38.0000000+00:00</time></trkpt><trkpt lat="38.96382038" lon="-0.49109026"><ele>140.8</ele><time>2022-11-13T14:55:39.0000000+00:00</time></trkpt><trkpt lat="38.96382038" lon="-0.49109026"><ele>140.8</ele><time>2022-11-13T14:55:40.0000000+00:00</time></trkpt><trkpt lat="38.96382038" lon="-0.49109026"><ele>140.8</ele><time>2022-11-13T14:55:41.0000000+00:00</time></trkpt><trkpt lat="38.96382038" lon="-0.49109026"><ele>140.8</ele><time>2022-11-13T14:55:42.0000000+00:00</time></trkpt><trkpt lat="38.96382046" lon="-0.49109026"><ele>140.8</ele><time>2022-11-13T14:55:43.0000000+00:00</time></trkpt><trkpt lat="38.96382096" lon="-0.49109026"><ele>140.8</ele><time>2022-11-13T14:55:44.0000000+00:00</time></trkpt><trkpt lat="38.96382096" lon="-0.49109026"><ele>140.8</ele><time>2022-11-13T14:55:45.0000000+00:00</time></trkpt><trkpt lat="38.96382096" lon="-0.49109026"><ele>140.8</ele><time>2022-11-13T14:55:46.0000000+00:00</time></trkpt><trkpt lat="38.96382096" lon="-0.49109043"><ele>140.8</ele><time>2022-11-13T14:55:47.0000000+00:00</time></trkpt><trkpt lat="38.96382096" lon="-0.49109043"><ele>140.8</ele><time>2022-11-13T14:55:48.0000000+00:00</time></trkpt><trkpt lat="38.96382096" lon="-0.49109043"><ele>140.8</ele><time>2022-11-13T14:55:49.0000000+00:00</time></trkpt><trkpt lat="38.96382096" lon="-0.49109043"><ele>140.8</ele><time>2022-11-13T14:55:50.0000000+00:00</time></trkpt><trkpt lat="38.9638213" lon="-0.49109043"><ele>140.8</ele><time>2022-11-13T14:55:51.0000000+00:00</time></trkpt><trkpt lat="38.96382138" lon="-0.49109043"><ele>140.8</ele><time>2022-11-13T14:55:52.0000000+00:00</time></trkpt><trkpt lat="38.96382147" lon="-0.49109043"><ele>140.8</ele><time>2022-11-13T14:55:53.0000000+00:00</time></trkpt><trkpt lat="38.96382172" lon="-0.49109043"><ele>140.8</ele><time>2022-11-13T14:55:54.0000000+00:00</time></trkpt><trkpt lat="38.96382205" lon="-0.49109043"><ele>140.8</ele><time>2022-11-13T14:55:55.0000000+00:00</time></trkpt><trkpt lat="38.96382205" lon="-0.49109068"><ele>140.8</ele><time>2022-11-13T14:55:56.0000000+00:00</time></trkpt><trkpt lat="38.96382205" lon="-0.49109135"><ele>140.8</ele><time>2022-11-13T14:55:57.0000000+00:00</time></trkpt><trkpt lat="38.96382205" lon="-0.49109177"><ele>140.8</ele><time>2022-11-13T14:55:58.0000000+00:00</time></trkpt><trkpt lat="38.96382205" lon="-0.49109177"><ele>140.8</ele><time>2022-11-13T14:55:59.0000000+00:00</time></trkpt><trkpt lat="38.96382205" lon="-0.49109185"><ele>140.8</ele><time>2022-11-13T14:56:00.0000000+00:00</time></trkpt><trkpt lat="38.96382188" lon="-0.49109185"><ele>140.8</ele><time>2022-11-13T14:56:01.0000000+00:00</time></trkpt><trkpt lat="38.96382155" lon="-0.49109185"><ele>140.8</ele><time>2022-11-13T14:56:02.0000000+00:00</time></trkpt><trkpt lat="38.96382138" lon="-0.49109185"><ele>140.8</ele><time>2022-11-13T14:56:03.0000000+00:00</time></trkpt><trkpt lat="38.96382138" lon="-0.49109185"><ele>140.8</ele><time>2022-11-13T14:56:04.0000000+00:00</time></trkpt><trkpt lat="38.9638213" lon="-0.49109185"><ele>140.8</ele><time>2022-11-13T14:56:05.0000000+00:00</time></trkpt><trkpt lat="38.9638213" lon="-0.49109185"><ele>141.0</ele><time>2022-11-13T14:56:06.0000000+00:00</time></trkpt><trkpt lat="38.96382105" lon="-0.49109185"><ele>141.0</ele><time>2022-11-13T14:56:07.0000000+00:00</time></trkpt><trkpt lat="38.96382063" lon="-0.49109185"><ele>141.0</ele><time>2022-11-13T14:56:08.0000000+00:00</time></trkpt><trkpt lat="38.96382046" lon="-0.49109185"><ele>140.8</ele><time>2022-11-13T14:56:09.0000000+00:00</time></trkpt><trkpt lat="38.96382038" lon="-0.49109185"><ele>141.0</ele><time>2022-11-13T14:56:10.0000000+00:00</time></trkpt><trkpt lat="38.96381996" lon="-0.49109185"><ele>141.0</ele><time>2022-11-13T14:56:11.0000000+00:00</time></trkpt><trkpt lat="38.96381979" lon="-0.49109185"><ele>141.0</ele><time>2022-11-13T14:56:12.0000000+00:00</time></trkpt><trkpt lat="38.96381962" lon="-0.49109135"><ele>141.0</ele><time>2022-11-13T14:56:13.0000000+00:00</time></trkpt><trkpt lat="38.96381954" lon="-0.49108984"><ele>141.0</ele><time>2022-11-13T14:56:14.0000000+00:00</time></trkpt><trkpt lat="38.96381769" lon="-0.49108934"><ele>141.0</ele><time>2022-11-13T14:56:15.0000000+00:00</time></trkpt><trkpt lat="38.96381568" lon="-0.49108925"><ele>141.0</ele><time>2022-11-13T14:56:16.0000000+00:00</time></trkpt><trkpt lat="38.96381426" lon="-0.49108875"><ele>141.0</ele><time>2022-11-13T14:56:17.0000000+00:00</time></trkpt><trkpt lat="38.96381384" lon="-0.49108858"><ele>141.0</ele><time>2022-11-13T14:56:18.0000000+00:00</time></trkpt><trkpt lat="38.96380881" lon="-0.49108531"><ele>141.0</ele><time>2022-11-13T14:56:19.0000000+00:00</time></trkpt><trkpt lat="38.96379992" lon="-0.49107676"><ele>141.0</ele><time>2022-11-13T14:56:20.0000000+00:00</time></trkpt><trkpt lat="38.9637923" lon="-0.49106662"><ele>141.0</ele><time>2022-11-13T14:56:21.0000000+00:00</time></trkpt><trkpt lat="38.96378316" lon="-0.49105983"><ele>141.0</ele><time>2022-11-13T14:56:22.0000000+00:00</time></trkpt><trkpt lat="38.96377729" lon="-0.49104475"><ele>140.8</ele><time>2022-11-13T14:56:23.0000000+00:00</time></trkpt><trkpt lat="38.96377302" lon="-0.49103083"><ele>140.8</ele><time>2022-11-13T14:56:24.0000000+00:00</time></trkpt><trkpt lat="38.96376757" lon="-0.491017"><ele>140.6</ele><time>2022-11-13T14:56:25.0000000+00:00</time></trkpt><trkpt lat="38.96375399" lon="-0.49100309"><ele>140.6</ele><time>2022-11-13T14:56:26.0000000+00:00</time></trkpt><trkpt lat="38.96373211" lon="-0.49099303"><ele>140.6</ele><time>2022-11-13T14:56:27.0000000+00:00</time></trkpt><trkpt lat="38.96370772" lon="-0.49098892"><ele>140.4</ele><time>2022-11-13T14:56:28.0000000+00:00</time></trkpt><trkpt lat="38.9636923" lon="-0.49098783"><ele>140.2</ele><time>2022-11-13T14:56:29.0000000+00:00</time></trkpt><trkpt lat="38.96367872" lon="-0.49098599"><ele>140.0</ele><time>2022-11-13T14:56:30.0000000+00:00</time></trkpt><trkpt lat="38.96366933" lon="-0.49098146"><ele>140.0</ele><time>2022-11-13T14:56:31.0000000+00:00</time></trkpt><trkpt lat="38.96365919" lon="-0.49097702"><ele>139.8</ele><time>2022-11-13T14:56:32.0000000+00:00</time></trkpt><trkpt lat="38.96364788" lon="-0.49096914"><ele>139.6</ele><time>2022-11-13T14:56:33.0000000+00:00</time></trkpt><trkpt lat="38.9636374" lon="-0.49096026"><ele>139.6</ele><time>2022-11-13T14:56:34.0000000+00:00</time></trkpt><trkpt lat="38.96362726" lon="-0.49094919"><ele>139.4</ele><time>2022-11-13T14:56:35.0000000+00:00</time></trkpt><trkpt lat="38.96361678" lon="-0.49094098"><ele>139.2</ele><time>2022-11-13T14:56:36.0000000+00:00</time></trkpt><trkpt lat="38.96360412" lon="-0.4909357"><ele>139.2</ele><time>2022-11-13T14:56:37.0000000+00:00</time></trkpt><trkpt lat="38.96359306" lon="-0.4909326"><ele>139.0</ele><time>2022-11-13T14:56:38.0000000+00:00</time></trkpt><trkpt lat="38.96358526" lon="-0.49092472"><ele>139.0</ele><time>2022-11-13T14:56:39.0000000+00:00</time></trkpt><trkpt lat="38.9635794" lon="-0.4909212"><ele>139.0</ele><time>2022-11-13T14:56:40.0000000+00:00</time></trkpt><trkpt lat="38.96357286" lon="-0.49091918"><ele>138.8</ele><time>2022-11-13T14:56:41.0000000+00:00</time></trkpt><trkpt lat="38.96356816" lon="-0.49091055"><ele>138.6</ele><time>2022-11-13T14:56:42.0000000+00:00</time></trkpt><trkpt lat="38.96356079" lon="-0.49089991"><ele>138.6</ele><time>2022-11-13T14:56:43.0000000+00:00</time></trkpt><trkpt lat="38.96355324" lon="-0.49088834"><ele>138.4</ele><time>2022-11-13T14:56:44.0000000+00:00</time></trkpt><trkpt lat="38.96354327" lon="-0.49087778"><ele>138.2</ele><time>2022-11-13T14:56:45.0000000+00:00</time></trkpt><trkpt lat="38.96353397" lon="-0.49086236"><ele>138.2</ele><time>2022-11-13T14:56:46.0000000+00:00</time></trkpt><trkpt lat="38.96352667" lon="-0.49084869"><ele>138.2</ele><time>2022-11-13T14:56:47.0000000+00:00</time></trkpt><trkpt lat="38.96351687" lon="-0.49083402"><ele>138.2</ele><time>2022-11-13T14:56:48.0000000+00:00</time></trkpt><trkpt lat="38.96351008" lon="-0.49081969"><ele>138.2</ele><time>2022-11-13T14:56:49.0000000+00:00</time></trkpt><trkpt lat="38.96350178" lon="-0.49080377"><ele>138.2</ele><time>2022-11-13T14:56:50.0000000+00:00</time></trkpt><trkpt lat="38.96349792" lon="-0.49078926"><ele>138.2</ele><time>2022-11-13T14:56:51.0000000+00:00</time></trkpt><trkpt lat="38.96349507" lon="-0.49078046"><ele>138.2</ele><time>2022-11-13T14:56:52.0000000+00:00</time></trkpt><trkpt lat="38.96349633" lon="-0.49076689"><ele>138.2</ele><time>2022-11-13T14:56:53.0000000+00:00</time></trkpt><trkpt lat="38.96349759" lon="-0.49075054"><ele>138.2</ele><time>2022-11-13T14:56:54.0000000+00:00</time></trkpt><trkpt lat="38.96349943" lon="-0.49073453"><ele>138.2</ele><time>2022-11-13T14:56:55.0000000+00:00</time></trkpt><trkpt lat="38.96349918" lon="-0.49071928"><ele>138.2</ele><time>2022-11-13T14:56:56.0000000+00:00</time></trkpt><trkpt lat="38.96349725" lon="-0.4907062"><ele>138.2</ele><time>2022-11-13T14:56:57.0000000+00:00</time></trkpt><trkpt lat="38.96349449" lon="-0.4906922"><ele>138.2</ele><time>2022-11-13T14:56:58.0000000+00:00</time></trkpt><trkpt lat="38.96349323" lon="-0.49067946"><ele>138.0</ele><time>2022-11-13T14:56:59.0000000+00:00</time></trkpt><trkpt lat="38.96349206" lon="-0.49066278"><ele>138.0</ele><time>2022-11-13T14:57:00.0000000+00:00</time></trkpt><trkpt lat="38.96348862" lon="-0.49064769"><ele>137.8</ele><time>2022-11-13T14:57:01.0000000+00:00</time></trkpt><trkpt lat="38.96348309" lon="-0.49063764"><ele>137.8</ele><time>2022-11-13T14:57:02.0000000+00:00</time></trkpt><trkpt lat="38.96347622" lon="-0.49063001"><ele>137.8</ele><time>2022-11-13T14:57:03.0000000+00:00</time></trkpt><trkpt lat="38.9634654" lon="-0.49062003"><ele>137.8</ele><time>2022-11-13T14:57:04.0000000+00:00</time></trkpt><trkpt lat="38.96345467" lon="-0.49061517"><ele>137.6</ele><time>2022-11-13T14:57:05.0000000+00:00</time></trkpt><trkpt lat="38.96344076" lon="-0.4906021"><ele>137.6</ele><time>2022-11-13T14:57:06.0000000+00:00</time></trkpt><trkpt lat="38.96342048" lon="-0.49058994"><ele>137.6</ele><time>2022-11-13T14:57:07.0000000+00:00</time></trkpt><trkpt lat="38.96340773" lon="-0.49058877"><ele>137.6</ele><time>2022-11-13T14:57:08.0000000+00:00</time></trkpt><trkpt lat="38.96339893" lon="-0.49059455"><ele>137.8</ele><time>2022-11-13T14:57:09.0000000+00:00</time></trkpt><trkpt lat="38.96339231" lon="-0.49059925"><ele>137.8</ele><time>2022-11-13T14:57:10.0000000+00:00</time></trkpt><trkpt lat="38.96338259" lon="-0.49060252"><ele>137.8</ele><time>2022-11-13T14:57:11.0000000+00:00</time></trkpt><trkpt lat="38.96337815" lon="-0.4906021"><ele>137.8</ele><time>2022-11-13T14:57:12.0000000+00:00</time></trkpt><trkpt lat="38.96337748" lon="-0.49060335"><ele>138.0</ele><time>2022-11-13T14:57:13.0000000+00:00</time></trkpt><trkpt lat="38.96337781" lon="-0.49060377"><ele>138.0</ele><time>2022-11-13T14:57:14.0000000+00:00</time></trkpt><trkpt lat="38.96337773" lon="-0.49060352"><ele>138.0</ele><time>2022-11-13T14:57:15.0000000+00:00</time></trkpt><trkpt lat="38.96337823" lon="-0.49060335"><ele>138.0</ele><time>2022-11-13T14:57:16.0000000+00:00</time></trkpt><trkpt lat="38.96337873" lon="-0.4906031"><ele>138.0</ele><time>2022-11-13T14:57:17.0000000+00:00</time></trkpt><trkpt lat="38.96337915" lon="-0.49060252"><ele>138.0</ele><time>2022-11-13T14:57:18.0000000+00:00</time></trkpt><trkpt lat="38.96337982" lon="-0.49060235"><ele>138.0</ele><time>2022-11-13T14:57:19.0000000+00:00</time></trkpt><trkpt lat="38.96338024" lon="-0.49060235"><ele>138.0</ele><time>2022-11-13T14:57:20.0000000+00:00</time></trkpt><trkpt lat="38.96337999" lon="-0.49060252"><ele>138.0</ele><time>2022-11-13T14:57:21.0000000+00:00</time></trkpt><trkpt lat="38.96338058" lon="-0.49060134"><ele>138.0</ele><time>2022-11-13T14:57:22.0000000+00:00</time></trkpt><trkpt lat="38.96338158" lon="-0.49060034"><ele>138.0</ele><time>2022-11-13T14:57:23.0000000+00:00</time></trkpt><trkpt lat="38.96338225" lon="-0.49059983"><ele>138.0</ele><time>2022-11-13T14:57:24.0000000+00:00</time></trkpt><trkpt lat="38.96338225" lon="-0.49059983"><ele>138.0</ele><time>2022-11-13T14:57:25.0000000+00:00</time></trkpt><trkpt lat="38.96338225" lon="-0.49059983"><ele>138.0</ele><time>2022-11-13T14:57:26.0000000+00:00</time></trkpt><trkpt lat="38.96338225" lon="-0.49059983"><ele>138.0</ele><time>2022-11-13T14:57:27.0000000+00:00</time></trkpt><trkpt lat="38.96338225" lon="-0.49059983"><ele>138.0</ele><time>2022-11-13T14:57:28.0000000+00:00</time></trkpt><trkpt lat="38.96338225" lon="-0.49059983"><ele>138.0</ele><time>2022-11-13T14:57:29.0000000+00:00</time></trkpt><trkpt lat="38.96338225" lon="-0.49059983"><ele>138.0</ele><time>2022-11-13T14:57:30.0000000+00:00</time></trkpt><trkpt lat="38.96338225" lon="-0.49059983"><ele>138.0</ele><time>2022-11-13T14:57:31.0000000+00:00</time></trkpt><trkpt lat="38.96338225" lon="-0.49059983"><ele>138.0</ele><time>2022-11-13T14:57:32.0000000+00:00</time></trkpt><trkpt lat="38.96338225" lon="-0.49059983"><ele>138.0</ele><time>2022-11-13T14:57:33.0000000+00:00</time></trkpt><trkpt lat="38.96338225" lon="-0.49059983"><ele>138.0</ele><time>2022-11-13T14:57:34.0000000+00:00</time></trkpt><trkpt lat="38.96338225" lon="-0.49059983"><ele>138.0</ele><time>2022-11-13T14:57:35.0000000+00:00</time></trkpt><trkpt lat="38.96338225" lon="-0.49059983"><ele>138.0</ele><time>2022-11-13T14:57:36.0000000+00:00</time></trkpt><trkpt lat="38.96338225" lon="-0.49059983"><ele>138.0</ele><time>2022-11-13T14:57:37.0000000+00:00</time></trkpt><trkpt lat="38.96338225" lon="-0.49059983"><ele>138.0</ele><time>2022-11-13T14:57:38.0000000+00:00</time></trkpt><trkpt lat="38.96338225" lon="-0.49059983"><ele>138.0</ele><time>2022-11-13T14:57:39.0000000+00:00</time></trkpt><trkpt lat="38.96338225" lon="-0.49059983"><ele>138.0</ele><time>2022-11-13T14:57:40.0000000+00:00</time></trkpt><trkpt lat="38.96338225" lon="-0.49059816"><ele>138.0</ele><time>2022-11-13T14:57:41.0000000+00:00</time></trkpt><trkpt lat="38.96338225" lon="-0.49059732"><ele>138.0</ele><time>2022-11-13T14:57:42.0000000+00:00</time></trkpt><trkpt lat="38.96338225" lon="-0.49059581"><ele>138.2</ele><time>2022-11-13T14:57:43.0000000+00:00</time></trkpt><trkpt lat="38.96338225" lon="-0.49059372"><ele>138.2</ele><time>2022-11-13T14:57:44.0000000+00:00</time></trkpt><trkpt lat="38.96338167" lon="-0.49059187"><ele>138.2</ele><time>2022-11-13T14:57:45.0000000+00:00</time></trkpt><trkpt lat="38.96338158" lon="-0.49059036"><ele>138.2</ele><time>2022-11-13T14:57:46.0000000+00:00</time></trkpt><trkpt lat="38.96338217" lon="-0.49059019"><ele>138.2</ele><time>2022-11-13T14:57:47.0000000+00:00</time></trkpt><trkpt lat="38.96338251" lon="-0.49059019"><ele>138.2</ele><time>2022-11-13T14:57:48.0000000+00:00</time></trkpt><trkpt lat="38.96338259" lon="-0.49059003"><ele>138.2</ele><time>2022-11-13T14:57:49.0000000+00:00</time></trkpt><trkpt lat="38.96338259" lon="-0.49058986"><ele>138.0</ele><time>2022-11-13T14:57:50.0000000+00:00</time></trkpt><trkpt lat="38.96338301" lon="-0.49058978"><ele>138.0</ele><time>2022-11-13T14:57:51.0000000+00:00</time></trkpt><trkpt lat="38.96338318" lon="-0.49058961"><ele>138.0</ele><time>2022-11-13T14:57:52.0000000+00:00</time></trkpt><trkpt lat="38.96338343" lon="-0.49058961"><ele>138.0</ele><time>2022-11-13T14:57:53.0000000+00:00</time></trkpt><trkpt lat="38.9633836" lon="-0.49058961"><ele>138.0</ele><time>2022-11-13T14:57:54.0000000+00:00</time></trkpt><trkpt lat="38.96338427" lon="-0.49058961"><ele>138.0</ele><time>2022-11-13T14:57:55.0000000+00:00</time></trkpt><trkpt lat="38.96338452" lon="-0.49058961"><ele>138.0</ele><time>2022-11-13T14:57:56.0000000+00:00</time></trkpt><trkpt lat="38.96338477" lon="-0.49058961"><ele>138.0</ele><time>2022-11-13T14:57:57.0000000+00:00</time></trkpt><trkpt lat="38.96338494" lon="-0.49058961"><ele>138.0</ele><time>2022-11-13T14:57:58.0000000+00:00</time></trkpt><trkpt lat="38.96338502" lon="-0.49058961"><ele>138.0</ele><time>2022-11-13T14:57:59.0000000+00:00</time></trkpt><trkpt lat="38.96338502" lon="-0.49058961"><ele>138.0</ele><time>2022-11-13T14:58:00.0000000+00:00</time></trkpt><trkpt lat="38.96338544" lon="-0.49058961"><ele>138.0</ele><time>2022-11-13T14:58:01.0000000+00:00</time></trkpt><trkpt lat="38.96338678" lon="-0.49058961"><ele>138.0</ele><time>2022-11-13T14:58:02.0000000+00:00</time></trkpt><trkpt lat="38.96339072" lon="-0.49059195"><ele>137.8</ele><time>2022-11-13T14:58:03.0000000+00:00</time></trkpt><trkpt lat="38.96340799" lon="-0.4906005"><ele>137.8</ele><time>2022-11-13T14:58:04.0000000+00:00</time></trkpt><trkpt lat="38.96342165" lon="-0.49060931"><ele>137.8</ele><time>2022-11-13T14:58:05.0000000+00:00</time></trkpt><trkpt lat="38.96343422" lon="-0.49062104"><ele>137.6</ele><time>2022-11-13T14:58:06.0000000+00:00</time></trkpt><trkpt lat="38.96344864" lon="-0.49063101"><ele>137.6</ele><time>2022-11-13T14:58:07.0000000+00:00</time></trkpt><trkpt lat="38.96346146" lon="-0.49064191"><ele>137.6</ele><time>2022-11-13T14:58:08.0000000+00:00</time></trkpt><trkpt lat="38.96347001" lon="-0.49065935"><ele>137.6</ele><time>2022-11-13T14:58:09.0000000+00:00</time></trkpt><trkpt lat="38.96347454" lon="-0.49067502"><ele>137.6</ele><time>2022-11-13T14:58:10.0000000+00:00</time></trkpt><trkpt lat="38.96348116" lon="-0.4906948"><ele>137.8</ele><time>2022-11-13T14:58:11.0000000+00:00</time></trkpt><trkpt lat="38.96348552" lon="-0.49071441"><ele>137.8</ele><time>2022-11-13T14:58:12.0000000+00:00</time></trkpt><trkpt lat="38.96348728" lon="-0.49073855"><ele>137.8</ele><time>2022-11-13T14:58:13.0000000+00:00</time></trkpt><trkpt lat="38.96348803" lon="-0.49075867"><ele>137.8</ele><time>2022-11-13T14:58:14.0000000+00:00</time></trkpt><trkpt lat="38.96348627" lon="-0.49077049"><ele>138.0</ele><time>2022-11-13T14:58:15.0000000+00:00</time></trkpt><trkpt lat="38.96348703" lon="-0.49078373"><ele>138.0</ele><time>2022-11-13T14:58:16.0000000+00:00</time></trkpt><trkpt lat="38.96348937" lon="-0.49080167"><ele>138.0</ele><time>2022-11-13T14:58:17.0000000+00:00</time></trkpt><trkpt lat="38.96349692" lon="-0.4908181"><ele>138.2</ele><time>2022-11-13T14:58:18.0000000+00:00</time></trkpt><trkpt lat="38.96350647" lon="-0.49083838"><ele>138.2</ele><time>2022-11-13T14:58:19.0000000+00:00</time></trkpt><trkpt lat="38.96351125" lon="-0.49085439"><ele>138.2</ele><time>2022-11-13T14:58:20.0000000+00:00</time></trkpt><trkpt lat="38.96351435" lon="-0.49087199"><ele>138.2</ele><time>2022-11-13T14:58:21.0000000+00:00</time></trkpt><trkpt lat="38.9635229" lon="-0.49088239"><ele>138.2</ele><time>2022-11-13T14:58:22.0000000+00:00</time></trkpt><trkpt lat="38.96353237" lon="-0.49089412"><ele>138.2</ele><time>2022-11-13T14:58:23.0000000+00:00</time></trkpt><trkpt lat="38.96353506" lon="-0.49090242"><ele>138.2</ele><time>2022-11-13T14:58:24.0000000+00:00</time></trkpt><trkpt lat="38.96353858" lon="-0.49091172"><ele>138.2</ele><time>2022-11-13T14:58:25.0000000+00:00</time></trkpt><trkpt lat="38.96354528" lon="-0.49092354"><ele>138.2</ele><time>2022-11-13T14:58:26.0000000+00:00</time></trkpt><trkpt lat="38.96355383" lon="-0.49094081"><ele>138.2</ele><time>2022-11-13T14:58:27.0000000+00:00</time></trkpt><trkpt lat="38.96356381" lon="-0.49095632"><ele>138.2</ele><time>2022-11-13T14:58:28.0000000+00:00</time></trkpt><trkpt lat="38.96357806" lon="-0.49097216"><ele>138.2</ele><time>2022-11-13T14:58:29.0000000+00:00</time></trkpt><trkpt lat="38.9635882" lon="-0.49098037"><ele>138.2</ele><time>2022-11-13T14:58:30.0000000+00:00</time></trkpt><trkpt lat="38.96359666" lon="-0.4909818"><ele>138.2</ele><time>2022-11-13T14:58:31.0000000+00:00</time></trkpt><trkpt lat="38.9636006" lon="-0.49098339"><ele>138.4</ele><time>2022-11-13T14:58:32.0000000+00:00</time></trkpt><trkpt lat="38.96360396" lon="-0.4909828"><ele>138.4</ele><time>2022-11-13T14:58:33.0000000+00:00</time></trkpt><trkpt lat="38.96360731" lon="-0.4909828"><ele>138.6</ele><time>2022-11-13T14:58:34.0000000+00:00</time></trkpt><trkpt lat="38.96361427" lon="-0.49099554"><ele>138.6</ele><time>2022-11-13T14:58:35.0000000+00:00</time></trkpt><trkpt lat="38.96362298" lon="-0.49100443"><ele>138.8</ele><time>2022-11-13T14:58:36.0000000+00:00</time></trkpt><trkpt lat="38.96363455" lon="-0.49100946"><ele>139.0</ele><time>2022-11-13T14:58:37.0000000+00:00</time></trkpt><trkpt lat="38.96364109" lon="-0.49101658"><ele>139.2</ele><time>2022-11-13T14:58:38.0000000+00:00</time></trkpt><trkpt lat="38.96365064" lon="-0.49102664"><ele>139.2</ele><time>2022-11-13T14:58:39.0000000+00:00</time></trkpt><trkpt lat="38.96366062" lon="-0.49103879"><ele>139.2</ele><time>2022-11-13T14:58:40.0000000+00:00</time></trkpt><trkpt lat="38.96367487" lon="-0.4910579"><ele>139.4</ele><time>2022-11-13T14:58:41.0000000+00:00</time></trkpt><trkpt lat="38.96367705" lon="-0.49107911"><ele>139.6</ele><time>2022-11-13T14:58:42.0000000+00:00</time></trkpt><trkpt lat="38.96368157" lon="-0.49109009"><ele>139.6</ele><time>2022-11-13T14:58:43.0000000+00:00</time></trkpt><trkpt lat="38.96368601" lon="-0.4910947"><ele>139.8</ele><time>2022-11-13T14:58:44.0000000+00:00</time></trkpt><trkpt lat="38.96369465" lon="-0.49109831"><ele>139.8</ele><time>2022-11-13T14:58:45.0000000+00:00</time></trkpt><trkpt lat="38.96370772" lon="-0.49110225"><ele>140.0</ele><time>2022-11-13T14:58:46.0000000+00:00</time></trkpt><trkpt lat="38.96371426" lon="-0.49111255"><ele>140.2</ele><time>2022-11-13T14:58:47.0000000+00:00</time></trkpt><trkpt lat="38.96371644" lon="-0.49112295"><ele>140.4</ele><time>2022-11-13T14:58:48.0000000+00:00</time></trkpt><trkpt lat="38.96372348" lon="-0.49112957"><ele>140.6</ele><time>2022-11-13T14:58:49.0000000+00:00</time></trkpt><trkpt lat="38.96373128" lon="-0.49113787"><ele>140.8</ele><time>2022-11-13T14:58:50.0000000+00:00</time></trkpt><trkpt lat="38.96373848" lon="-0.49114751"><ele>141.0</ele><time>2022-11-13T14:58:51.0000000+00:00</time></trkpt><trkpt lat="38.96374016" lon="-0.49115773"><ele>141.2</ele><time>2022-11-13T14:58:52.0000000+00:00</time></trkpt><trkpt lat="38.96374125" lon="-0.49116829"><ele>141.2</ele><time>2022-11-13T14:58:53.0000000+00:00</time></trkpt><trkpt lat="38.96374594" lon="-0.49117827"><ele>141.2</ele><time>2022-11-13T14:58:54.0000000+00:00</time></trkpt><trkpt lat="38.96374762" lon="-0.49118321"><ele>141.4</ele><time>2022-11-13T14:58:55.0000000+00:00</time></trkpt><trkpt lat="38.96375064" lon="-0.49118497"><ele>141.4</ele><time>2022-11-13T14:58:56.0000000+00:00</time></trkpt><trkpt lat="38.96375282" lon="-0.49118606"><ele>141.4</ele><time>2022-11-13T14:58:57.0000000+00:00</time></trkpt><trkpt lat="38.96375399" lon="-0.49118497"><ele>141.4</ele><time>2022-11-13T14:58:58.0000000+00:00</time></trkpt><trkpt lat="38.96375466" lon="-0.4911843"><ele>141.4</ele><time>2022-11-13T14:58:59.0000000+00:00</time></trkpt><trkpt lat="38.96375584" lon="-0.49118296"><ele>141.4</ele><time>2022-11-13T14:59:00.0000000+00:00</time></trkpt><trkpt lat="38.96375567" lon="-0.49118154"><ele>141.4</ele><time>2022-11-13T14:59:01.0000000+00:00</time></trkpt><trkpt lat="38.96375709" lon="-0.49118171"><ele>141.4</ele><time>2022-11-13T14:59:02.0000000+00:00</time></trkpt><trkpt lat="38.96375969" lon="-0.49118472"><ele>141.4</ele><time>2022-11-13T14:59:03.0000000+00:00</time></trkpt><trkpt lat="38.96375944" lon="-0.49118715"><ele>141.4</ele><time>2022-11-13T14:59:04.0000000+00:00</time></trkpt><trkpt lat="38.96376296" lon="-0.49118925"><ele>141.4</ele><time>2022-11-13T14:59:05.0000000+00:00</time></trkpt><trkpt lat="38.96376573" lon="-0.49119143"><ele>141.4</ele><time>2022-11-13T14:59:06.0000000+00:00</time></trkpt><trkpt lat="38.96376791" lon="-0.49119277"><ele>141.4</ele><time>2022-11-13T14:59:07.0000000+00:00</time></trkpt><trkpt lat="38.96376941" lon="-0.49119461"><ele>141.4</ele><time>2022-11-13T14:59:08.0000000+00:00</time></trkpt><trkpt lat="38.96377101" lon="-0.49119822"><ele>141.4</ele><time>2022-11-13T14:59:09.0000000+00:00</time></trkpt><trkpt lat="38.96376958" lon="-0.49120065"><ele>141.2</ele><time>2022-11-13T14:59:10.0000000+00:00</time></trkpt><trkpt lat="38.96376757" lon="-0.49120165"><ele>141.2</ele><time>2022-11-13T14:59:11.0000000+00:00</time></trkpt><trkpt lat="38.96376656" lon="-0.49120132"><ele>141.2</ele><time>2022-11-13T14:59:12.0000000+00:00</time></trkpt><trkpt lat="38.96376673" lon="-0.4912004"><ele>141.2</ele><time>2022-11-13T14:59:13.0000000+00:00</time></trkpt><trkpt lat="38.96376707" lon="-0.49120065"><ele>141.2</ele><time>2022-11-13T14:59:14.0000000+00:00</time></trkpt><trkpt lat="38.96376698" lon="-0.49120174"><ele>141.2</ele><time>2022-11-13T14:59:15.0000000+00:00</time></trkpt><trkpt lat="38.9637674" lon="-0.4912035"><ele>141.2</ele><time>2022-11-13T14:59:16.0000000+00:00</time></trkpt><trkpt lat="38.96376807" lon="-0.491204"><ele>141.2</ele><time>2022-11-13T14:59:17.0000000+00:00</time></trkpt><trkpt lat="38.96376807" lon="-0.491204"><ele>141.2</ele><time>2022-11-13T14:59:18.0000000+00:00</time></trkpt><trkpt lat="38.96376807" lon="-0.491204"><ele>141.2</ele><time>2022-11-13T14:59:19.0000000+00:00</time></trkpt><trkpt lat="38.96376807" lon="-0.491204"><ele>141.2</ele><time>2022-11-13T14:59:20.0000000+00:00</time></trkpt><trkpt lat="38.96376807" lon="-0.491204"><ele>141.2</ele><time>2022-11-13T14:59:21.0000000+00:00</time></trkpt><trkpt lat="38.96376807" lon="-0.491204"><ele>141.2</ele><time>2022-11-13T14:59:22.0000000+00:00</time></trkpt><trkpt lat="38.96376807" lon="-0.491204"><ele>141.2</ele><time>2022-11-13T14:59:23.0000000+00:00</time></trkpt><trkpt lat="38.96376807" lon="-0.491204"><ele>141.2</ele><time>2022-11-13T14:59:24.0000000+00:00</time></trkpt><trkpt lat="38.96376807" lon="-0.491204"><ele>141.2</ele><time>2022-11-13T14:59:25.0000000+00:00</time></trkpt><trkpt lat="38.96376807" lon="-0.491204"><ele>141.2</ele><time>2022-11-13T14:59:26.0000000+00:00</time></trkpt><trkpt lat="38.96376807" lon="-0.491204"><ele>141.2</ele><time>2022-11-13T14:59:27.0000000+00:00</time></trkpt><trkpt lat="38.96376807" lon="-0.491204"><ele>141.2</ele><time>2022-11-13T14:59:28.0000000+00:00</time></trkpt><trkpt lat="38.96376807" lon="-0.491204"><ele>141.2</ele><time>2022-11-13T14:59:29.0000000+00:00</time></trkpt><trkpt lat="38.96376807" lon="-0.491204"><ele>141.2</ele><time>2022-11-13T14:59:30.0000000+00:00</time></trkpt><trkpt lat="38.96376807" lon="-0.491204"><ele>141.2</ele><time>2022-11-13T14:59:31.0000000+00:00</time></trkpt><trkpt lat="38.96376807" lon="-0.491204"><ele>141.2</ele><time>2022-11-13T14:59:32.0000000+00:00</time></trkpt><trkpt lat="38.96376816" lon="-0.49120526"><ele>141.2</ele><time>2022-11-13T14:59:33.0000000+00:00</time></trkpt><trkpt lat="38.96376824" lon="-0.49120601"><ele>141.2</ele><time>2022-11-13T14:59:34.0000000+00:00</time></trkpt><trkpt lat="38.96376832" lon="-0.49120626"><ele>141.2</ele><time>2022-11-13T14:59:35.0000000+00:00</time></trkpt><trkpt lat="38.96376841" lon="-0.4912066"><ele>141.2</ele><time>2022-11-13T14:59:36.0000000+00:00</time></trkpt><trkpt lat="38.96376849" lon="-0.49120694"><ele>141.0</ele><time>2022-11-13T14:59:37.0000000+00:00</time></trkpt><trkpt lat="38.96376849" lon="-0.49120761"><ele>141.0</ele><time>2022-11-13T14:59:38.0000000+00:00</time></trkpt><trkpt lat="38.96376849" lon="-0.4912087"><ele>141.2</ele><time>2022-11-13T14:59:39.0000000+00:00</time></trkpt><trkpt lat="38.96376849" lon="-0.49120928"><ele>141.2</ele><time>2022-11-13T14:59:40.0000000+00:00</time></trkpt><trkpt lat="38.96376891" lon="-0.49120995"><ele>141.2</ele><time>2022-11-13T14:59:41.0000000+00:00</time></trkpt><trkpt lat="38.96376899" lon="-0.49121012"><ele>141.2</ele><time>2022-11-13T14:59:42.0000000+00:00</time></trkpt><trkpt lat="38.96376933" lon="-0.49121046"><ele>141.2</ele><time>2022-11-13T14:59:43.0000000+00:00</time></trkpt><trkpt lat="38.96376941" lon="-0.49121104"><ele>141.2</ele><time>2022-11-13T14:59:44.0000000+00:00</time></trkpt><trkpt lat="38.9637695" lon="-0.49121146"><ele>141.2</ele><time>2022-11-13T14:59:45.0000000+00:00</time></trkpt><trkpt lat="38.96377042" lon="-0.49121406"><ele>141.2</ele><time>2022-11-13T14:59:46.0000000+00:00</time></trkpt><trkpt lat="38.96377302" lon="-0.49121599"><ele>141.2</ele><time>2022-11-13T14:59:47.0000000+00:00</time></trkpt><trkpt lat="38.96377461" lon="-0.49122051"><ele>141.4</ele><time>2022-11-13T14:59:48.0000000+00:00</time></trkpt><trkpt lat="38.96377645" lon="-0.49122529"><ele>141.4</ele><time>2022-11-13T14:59:49.0000000+00:00</time></trkpt><trkpt lat="38.96377838" lon="-0.49123367"><ele>141.4</ele><time>2022-11-13T14:59:50.0000000+00:00</time></trkpt><trkpt lat="38.96378039" lon="-0.49124004"><ele>141.2</ele><time>2022-11-13T14:59:51.0000000+00:00</time></trkpt><trkpt lat="38.9637809" lon="-0.49124331"><ele>141.2</ele><time>2022-11-13T14:59:52.0000000+00:00</time></trkpt><trkpt lat="38.9637819" lon="-0.49124491"><ele>141.2</ele><time>2022-11-13T14:59:53.0000000+00:00</time></trkpt><trkpt lat="38.96378224" lon="-0.49124633"><ele>141.2</ele><time>2022-11-13T14:59:54.0000000+00:00</time></trkpt><trkpt lat="38.96378232" lon="-0.49124692"><ele>141.2</ele><time>2022-11-13T14:59:55.0000000+00:00</time></trkpt><trkpt lat="38.96378274" lon="-0.49124708"><ele>141.2</ele><time>2022-11-13T14:59:56.0000000+00:00</time></trkpt><trkpt lat="38.96378291" lon="-0.49124843"><ele>141.2</ele><time>2022-11-13T14:59:57.0000000+00:00</time></trkpt><trkpt lat="38.96378299" lon="-0.49125052"><ele>141.2</ele><time>2022-11-13T14:59:58.0000000+00:00</time></trkpt><trkpt lat="38.96378299" lon="-0.49125245"><ele>141.2</ele><time>2022-11-13T14:59:59.0000000+00:00</time></trkpt><trkpt lat="38.96378299" lon="-0.49125345"><ele>141.2</ele><time>2022-11-13T15:00:00.0000000+00:00</time></trkpt><trkpt lat="38.96378299" lon="-0.49125513"><ele>141.2</ele><time>2022-11-13T15:00:01.0000000+00:00</time></trkpt><trkpt lat="38.96378232" lon="-0.4912605"><ele>141.2</ele><time>2022-11-13T15:00:02.0000000+00:00</time></trkpt><trkpt lat="38.96378383" lon="-0.49127684"><ele>141.2</ele><time>2022-11-13T15:00:03.0000000+00:00</time></trkpt><trkpt lat="38.96378115" lon="-0.49129201"><ele>141.2</ele><time>2022-11-13T15:00:04.0000000+00:00</time></trkpt><trkpt lat="38.96377587" lon="-0.49130819"><ele>141.2</ele><time>2022-11-13T15:00:05.0000000+00:00</time></trkpt><trkpt lat="38.96377176" lon="-0.49132529"><ele>141.2</ele><time>2022-11-13T15:00:06.0000000+00:00</time></trkpt><trkpt lat="38.96376874" lon="-0.4913439"><ele>141.4</ele><time>2022-11-13T15:00:07.0000000+00:00</time></trkpt><trkpt lat="38.96377034" lon="-0.49136594"><ele>141.6</ele><time>2022-11-13T15:00:08.0000000+00:00</time></trkpt><trkpt lat="38.96376992" lon="-0.49138119"><ele>141.6</ele><time>2022-11-13T15:00:09.0000000+00:00</time></trkpt><trkpt lat="38.96376631" lon="-0.49140098"><ele>141.8</ele><time>2022-11-13T15:00:10.0000000+00:00</time></trkpt><trkpt lat="38.96376296" lon="-0.49141715"><ele>141.8</ele><time>2022-11-13T15:00:11.0000000+00:00</time></trkpt><trkpt lat="38.96376137" lon="-0.49142646"><ele>141.8</ele><time>2022-11-13T15:00:12.0000000+00:00</time></trkpt><trkpt lat="38.9637586" lon="-0.49143861"><ele>142.0</ele><time>2022-11-13T15:00:13.0000000+00:00</time></trkpt><trkpt lat="38.96375751" lon="-0.491449"><ele>142.0</ele><time>2022-11-13T15:00:14.0000000+00:00</time></trkpt><trkpt lat="38.96375944" lon="-0.49146426"><ele>142.0</ele><time>2022-11-13T15:00:15.0000000+00:00</time></trkpt><trkpt lat="38.96376371" lon="-0.49148572"><ele>142.0</ele><time>2022-11-13T15:00:16.0000000+00:00</time></trkpt><trkpt lat="38.9637669" lon="-0.49151321"><ele>142.0</ele><time>2022-11-13T15:00:17.0000000+00:00</time></trkpt><trkpt lat="38.9637674" lon="-0.49153249"><ele>142.2</ele><time>2022-11-13T15:00:18.0000000+00:00</time></trkpt><trkpt lat="38.96376732" lon="-0.49154992"><ele>142.2</ele><time>2022-11-13T15:00:19.0000000+00:00</time></trkpt><trkpt lat="38.96376765" lon="-0.49156794"><ele>142.2</ele><time>2022-11-13T15:00:20.0000000+00:00</time></trkpt><trkpt lat="38.96376564" lon="-0.49158337"><ele>142.2</ele><time>2022-11-13T15:00:21.0000000+00:00</time></trkpt><trkpt lat="38.9637669" lon="-0.49160013"><ele>142.2</ele><time>2022-11-13T15:00:22.0000000+00:00</time></trkpt><trkpt lat="38.9637726" lon="-0.49162067"><ele>142.2</ele><time>2022-11-13T15:00:23.0000000+00:00</time></trkpt><trkpt lat="38.96377553" lon="-0.4916329"><ele>142.2</ele><time>2022-11-13T15:00:24.0000000+00:00</time></trkpt><trkpt lat="38.96377327" lon="-0.49165193"><ele>142.2</ele><time>2022-11-13T15:00:25.0000000+00:00</time></trkpt><trkpt lat="38.96377084" lon="-0.49166962"><ele>142.2</ele><time>2022-11-13T15:00:26.0000000+00:00</time></trkpt><trkpt lat="38.9637669" lon="-0.49168906"><ele>142.2</ele><time>2022-11-13T15:00:27.0000000+00:00</time></trkpt><trkpt lat="38.96376464" lon="-0.49170306"><ele>142.0</ele><time>2022-11-13T15:00:28.0000000+00:00</time></trkpt><trkpt lat="38.96376497" lon="-0.49171991"><ele>142.0</ele><time>2022-11-13T15:00:29.0000000+00:00</time></trkpt><trkpt lat="38.96376723" lon="-0.49173357"><ele>142.0</ele><time>2022-11-13T15:00:30.0000000+00:00</time></trkpt><trkpt lat="38.96376975" lon="-0.4917474"><ele>142.0</ele><time>2022-11-13T15:00:31.0000000+00:00</time></trkpt><trkpt lat="38.96377076" lon="-0.4917588"><ele>142.0</ele><time>2022-11-13T15:00:32.0000000+00:00</time></trkpt><trkpt lat="38.96376891" lon="-0.49177732"><ele>142.0</ele><time>2022-11-13T15:00:33.0000000+00:00</time></trkpt><trkpt lat="38.96376866" lon="-0.49179769"><ele>142.0</ele><time>2022-11-13T15:00:34.0000000+00:00</time></trkpt><trkpt lat="38.96376841" lon="-0.49181974"><ele>142.0</ele><time>2022-11-13T15:00:35.0000000+00:00</time></trkpt><trkpt lat="38.96377042" lon="-0.49183399"><ele>142.0</ele><time>2022-11-13T15:00:36.0000000+00:00</time></trkpt><trkpt lat="38.96377428" lon="-0.49185586"><ele>142.0</ele><time>2022-11-13T15:00:37.0000000+00:00</time></trkpt><trkpt lat="38.96377671" lon="-0.49186936"><ele>142.0</ele><time>2022-11-13T15:00:38.0000000+00:00</time></trkpt><trkpt lat="38.96377872" lon="-0.49188403"><ele>142.0</ele><time>2022-11-13T15:00:39.0000000+00:00</time></trkpt><trkpt lat="38.9637788" lon="-0.49189987"><ele>141.8</ele><time>2022-11-13T15:00:40.0000000+00:00</time></trkpt><trkpt lat="38.96377495" lon="-0.49191705"><ele>141.8</ele><time>2022-11-13T15:00:41.0000000+00:00</time></trkpt><trkpt lat="38.96377386" lon="-0.49192895"><ele>141.8</ele><time>2022-11-13T15:00:42.0000000+00:00</time></trkpt><trkpt lat="38.96377981" lon="-0.49193733"><ele>141.8</ele><time>2022-11-13T15:00:43.0000000+00:00</time></trkpt><trkpt lat="38.96378685" lon="-0.49194748"><ele>141.8</ele><time>2022-11-13T15:00:44.0000000+00:00</time></trkpt><trkpt lat="38.96379087" lon="-0.4919624"><ele>141.8</ele><time>2022-11-13T15:00:45.0000000+00:00</time></trkpt><trkpt lat="38.9637897" lon="-0.49197312"><ele>142.0</ele><time>2022-11-13T15:00:46.0000000+00:00</time></trkpt><trkpt lat="38.96379221" lon="-0.49198478"><ele>142.0</ele><time>2022-11-13T15:00:47.0000000+00:00</time></trkpt><trkpt lat="38.9637923" lon="-0.49199986"><ele>142.0</ele><time>2022-11-13T15:00:48.0000000+00:00</time></trkpt><trkpt lat="38.96379196" lon="-0.49200975"><ele>142.0</ele><time>2022-11-13T15:00:49.0000000+00:00</time></trkpt><trkpt lat="38.96379741" lon="-0.49201671"><ele>141.8</ele><time>2022-11-13T15:00:50.0000000+00:00</time></trkpt><trkpt lat="38.96380663" lon="-0.49201964"><ele>141.8</ele><time>2022-11-13T15:00:51.0000000+00:00</time></trkpt><trkpt lat="38.96381694" lon="-0.49201193"><ele>141.6</ele><time>2022-11-13T15:00:52.0000000+00:00</time></trkpt><trkpt lat="38.96381845" lon="-0.49202316"><ele>141.6</ele><time>2022-11-13T15:00:53.0000000+00:00</time></trkpt><trkpt lat="38.96381836" lon="-0.4920354"><ele>141.4</ele><time>2022-11-13T15:00:54.0000000+00:00</time></trkpt><trkpt lat="38.96381484" lon="-0.49205158"><ele>141.4</ele><time>2022-11-13T15:00:55.0000000+00:00</time></trkpt><trkpt lat="38.96380898" lon="-0.49207312"><ele>141.4</ele><time>2022-11-13T15:00:56.0000000+00:00</time></trkpt><trkpt lat="38.96380202" lon="-0.4920872"><ele>141.4</ele><time>2022-11-13T15:00:57.0000000+00:00</time></trkpt><trkpt lat="38.963799" lon="-0.49210246"><ele>141.2</ele><time>2022-11-13T15:00:58.0000000+00:00</time></trkpt><trkpt lat="38.96380277" lon="-0.49212232"><ele>141.2</ele><time>2022-11-13T15:00:59.0000000+00:00</time></trkpt><trkpt lat="38.96380822" lon="-0.49213439"><ele>141.0</ele><time>2022-11-13T15:01:00.0000000+00:00</time></trkpt><trkpt lat="38.96380688" lon="-0.49214914"><ele>141.0</ele><time>2022-11-13T15:01:01.0000000+00:00</time></trkpt><trkpt lat="38.96380738" lon="-0.49215971"><ele>141.0</ele><time>2022-11-13T15:01:02.0000000+00:00</time></trkpt><trkpt lat="38.96380722" lon="-0.49216809"><ele>141.0</ele><time>2022-11-13T15:01:03.0000000+00:00</time></trkpt><trkpt lat="38.96380663" lon="-0.49218309"><ele>140.8</ele><time>2022-11-13T15:01:04.0000000+00:00</time></trkpt><trkpt lat="38.96380261" lon="-0.49219768"><ele>140.8</ele><time>2022-11-13T15:01:05.0000000+00:00</time></trkpt><trkpt lat="38.9638068" lon="-0.49220949"><ele>140.6</ele><time>2022-11-13T15:01:06.0000000+00:00</time></trkpt><trkpt lat="38.96381166" lon="-0.49222131"><ele>140.6</ele><time>2022-11-13T15:01:07.0000000+00:00</time></trkpt><trkpt lat="38.96381786" lon="-0.49223363"><ele>140.4</ele><time>2022-11-13T15:01:08.0000000+00:00</time></trkpt><trkpt lat="38.96382306" lon="-0.49224855"><ele>140.4</ele><time>2022-11-13T15:01:09.0000000+00:00</time></trkpt><trkpt lat="38.96382708" lon="-0.49226758"><ele>140.4</ele><time>2022-11-13T15:01:10.0000000+00:00</time></trkpt><trkpt lat="38.96382993" lon="-0.492283"><ele>140.2</ele><time>2022-11-13T15:01:11.0000000+00:00</time></trkpt><trkpt lat="38.96383253" lon="-0.49229323"><ele>140.2</ele><time>2022-11-13T15:01:12.0000000+00:00</time></trkpt><trkpt lat="38.96383278" lon="-0.49230555"><ele>140.2</ele><time>2022-11-13T15:01:13.0000000+00:00</time></trkpt><trkpt lat="38.96382901" lon="-0.49231997"><ele>140.0</ele><time>2022-11-13T15:01:14.0000000+00:00</time></trkpt><trkpt lat="38.96382499" lon="-0.49233564"><ele>140.0</ele><time>2022-11-13T15:01:15.0000000+00:00</time></trkpt><trkpt lat="38.96381987" lon="-0.49235266"><ele>140.0</ele><time>2022-11-13T15:01:16.0000000+00:00</time></trkpt><trkpt lat="38.96381719" lon="-0.49236707"><ele>139.8</ele><time>2022-11-13T15:01:17.0000000+00:00</time></trkpt><trkpt lat="38.96381669" lon="-0.49238853"><ele>139.8</ele><time>2022-11-13T15:01:18.0000000+00:00</time></trkpt><trkpt lat="38.96381836" lon="-0.49240932"><ele>139.6</ele><time>2022-11-13T15:01:19.0000000+00:00</time></trkpt><trkpt lat="38.96381828" lon="-0.49242717"><ele>139.6</ele><time>2022-11-13T15:01:20.0000000+00:00</time></trkpt><trkpt lat="38.9638125" lon="-0.49244695"><ele>139.4</ele><time>2022-11-13T15:01:21.0000000+00:00</time></trkpt><trkpt lat="38.96380847" lon="-0.49246674"><ele>139.2</ele><time>2022-11-13T15:01:22.0000000+00:00</time></trkpt><trkpt lat="38.96380629" lon="-0.49248459"><ele>139.2</ele><time>2022-11-13T15:01:23.0000000+00:00</time></trkpt><trkpt lat="38.96380353" lon="-0.49249984"><ele>139.0</ele><time>2022-11-13T15:01:24.0000000+00:00</time></trkpt><trkpt lat="38.96379992" lon="-0.49251887"><ele>139.0</ele><time>2022-11-13T15:01:25.0000000+00:00</time></trkpt><trkpt lat="38.96379766" lon="-0.49253312"><ele>139.0</ele><time>2022-11-13T15:01:26.0000000+00:00</time></trkpt><trkpt lat="38.96379515" lon="-0.49254603"><ele>139.0</ele><time>2022-11-13T15:01:27.0000000+00:00</time></trkpt><trkpt lat="38.96379213" lon="-0.49256455"><ele>139.0</ele><time>2022-11-13T15:01:28.0000000+00:00</time></trkpt><trkpt lat="38.96378534" lon="-0.49258584"><ele>139.0</ele><time>2022-11-13T15:01:29.0000000+00:00</time></trkpt><trkpt lat="38.96378065" lon="-0.49260663"><ele>138.8</ele><time>2022-11-13T15:01:30.0000000+00:00</time></trkpt><trkpt lat="38.9637793" lon="-0.49262264"><ele>138.8</ele><time>2022-11-13T15:01:31.0000000+00:00</time></trkpt><trkpt lat="38.96377553" lon="-0.49263538"><ele>138.8</ele><time>2022-11-13T15:01:32.0000000+00:00</time></trkpt><trkpt lat="38.96377386" lon="-0.49264284"><ele>138.8</ele><time>2022-11-13T15:01:33.0000000+00:00</time></trkpt><trkpt lat="38.96377302" lon="-0.49264728"><ele>138.8</ele><time>2022-11-13T15:01:34.0000000+00:00</time></trkpt><trkpt lat="38.96376967" lon="-0.49264669"><ele>138.8</ele><time>2022-11-13T15:01:35.0000000+00:00</time></trkpt><trkpt lat="38.96375282" lon="-0.4926353"><ele>138.8</ele><time>2022-11-13T15:01:36.0000000+00:00</time></trkpt><trkpt lat="38.96374066" lon="-0.49263102"><ele>138.8</ele><time>2022-11-13T15:01:37.0000000+00:00</time></trkpt><trkpt lat="38.9637208" lon="-0.49262708"><ele>138.8</ele><time>2022-11-13T15:01:38.0000000+00:00</time></trkpt><trkpt lat="38.96370839" lon="-0.49262163"><ele>139.0</ele><time>2022-11-13T15:01:39.0000000+00:00</time></trkpt><trkpt lat="38.96370311" lon="-0.49262197"><ele>139.0</ele><time>2022-11-13T15:01:40.0000000+00:00</time></trkpt><trkpt lat="38.96370219" lon="-0.49262356"><ele>139.2</ele><time>2022-11-13T15:01:41.0000000+00:00</time></trkpt><trkpt lat="38.96370035" lon="-0.49262515"><ele>139.2</ele><time>2022-11-13T15:01:42.0000000+00:00</time></trkpt><trkpt lat="38.96369557" lon="-0.49262859"><ele>139.2</ele><time>2022-11-13T15:01:43.0000000+00:00</time></trkpt><trkpt lat="38.96368392" lon="-0.49262758"><ele>139.4</ele><time>2022-11-13T15:01:44.0000000+00:00</time></trkpt><trkpt lat="38.96367135" lon="-0.49262591"><ele>139.4</ele><time>2022-11-13T15:01:45.0000000+00:00</time></trkpt><trkpt lat="38.96366648" lon="-0.49262683"><ele>139.6</ele><time>2022-11-13T15:01:46.0000000+00:00</time></trkpt><trkpt lat="38.96365844" lon="-0.49263069"><ele>139.8</ele><time>2022-11-13T15:01:47.0000000+00:00</time></trkpt><trkpt lat="38.96364779" lon="-0.49263035"><ele>139.8</ele><time>2022-11-13T15:01:48.0000000+00:00</time></trkpt><trkpt lat="38.96364176" lon="-0.49263571"><ele>140.0</ele><time>2022-11-13T15:01:49.0000000+00:00</time></trkpt><trkpt lat="38.96362441" lon="-0.49264577"><ele>140.0</ele><time>2022-11-13T15:01:50.0000000+00:00</time></trkpt><trkpt lat="38.96361292" lon="-0.49265047"><ele>140.2</ele><time>2022-11-13T15:01:51.0000000+00:00</time></trkpt><trkpt lat="38.96360454" lon="-0.49265499"><ele>140.4</ele><time>2022-11-13T15:01:52.0000000+00:00</time></trkpt><trkpt lat="38.96359465" lon="-0.49266111"><ele>140.6</ele><time>2022-11-13T15:01:53.0000000+00:00</time></trkpt><trkpt lat="38.96358719" lon="-0.49266337"><ele>140.6</ele><time>2022-11-13T15:01:54.0000000+00:00</time></trkpt><trkpt lat="38.96358426" lon="-0.49266044"><ele>140.8</ele><time>2022-11-13T15:01:55.0000000+00:00</time></trkpt><trkpt lat="38.96358267" lon="-0.49265969"><ele>141.0</ele><time>2022-11-13T15:01:56.0000000+00:00</time></trkpt><trkpt lat="38.96358065" lon="-0.49266245"><ele>141.2</ele><time>2022-11-13T15:01:57.0000000+00:00</time></trkpt><trkpt lat="38.96358116" lon="-0.49266581"><ele>141.2</ele><time>2022-11-13T15:01:58.0000000+00:00</time></trkpt><trkpt lat="38.96356833" lon="-0.49267058"><ele>141.4</ele><time>2022-11-13T15:01:59.0000000+00:00</time></trkpt><trkpt lat="38.9635685" lon="-0.49267469"><ele>141.6</ele><time>2022-11-13T15:02:00.0000000+00:00</time></trkpt><trkpt lat="38.963569" lon="-0.49268005"><ele>141.6</ele><time>2022-11-13T15:02:01.0000000+00:00</time></trkpt><trkpt lat="38.96356909" lon="-0.49268366"><ele>141.8</ele><time>2022-11-13T15:02:02.0000000+00:00</time></trkpt><trkpt lat="38.96356314" lon="-0.49269045"><ele>142.0</ele><time>2022-11-13T15:02:03.0000000+00:00</time></trkpt><trkpt lat="38.96355878" lon="-0.49269355"><ele>142.0</ele><time>2022-11-13T15:02:04.0000000+00:00</time></trkpt><trkpt lat="38.96355777" lon="-0.49269749"><ele>142.2</ele><time>2022-11-13T15:02:05.0000000+00:00</time></trkpt><trkpt lat="38.96355794" lon="-0.4927078"><ele>142.4</ele><time>2022-11-13T15:02:06.0000000+00:00</time></trkpt><trkpt lat="38.96355769" lon="-0.49270897"><ele>142.4</ele><time>2022-11-13T15:02:07.0000000+00:00</time></trkpt><trkpt lat="38.96355576" lon="-0.49270713"><ele>142.8</ele><time>2022-11-13T15:02:08.0000000+00:00</time></trkpt><trkpt lat="38.96355039" lon="-0.49270059"><ele>142.8</ele><time>2022-11-13T15:02:09.0000000+00:00</time></trkpt><trkpt lat="38.96355123" lon="-0.4927"><ele>143.0</ele><time>2022-11-13T15:02:10.0000000+00:00</time></trkpt><trkpt lat="38.96355014" lon="-0.49269908"><ele>143.2</ele><time>2022-11-13T15:02:11.0000000+00:00</time></trkpt><trkpt lat="38.96354964" lon="-0.49270034"><ele>143.2</ele><time>2022-11-13T15:02:12.0000000+00:00</time></trkpt><trkpt lat="38.96354998" lon="-0.49269925"><ele>143.4</ele><time>2022-11-13T15:02:13.0000000+00:00</time></trkpt><trkpt lat="38.96355073" lon="-0.49269782"><ele>143.4</ele><time>2022-11-13T15:02:14.0000000+00:00</time></trkpt><trkpt lat="38.96354897" lon="-0.49269548"><ele>143.4</ele><time>2022-11-13T15:02:15.0000000+00:00</time></trkpt><trkpt lat="38.96354696" lon="-0.49269338"><ele>143.4</ele><time>2022-11-13T15:02:16.0000000+00:00</time></trkpt><trkpt lat="38.96354755" lon="-0.49269112"><ele>143.4</ele><time>2022-11-13T15:02:17.0000000+00:00</time></trkpt><trkpt lat="38.96354855" lon="-0.49268969"><ele>143.4</ele><time>2022-11-13T15:02:18.0000000+00:00</time></trkpt><trkpt lat="38.96354989" lon="-0.49268894"><ele>143.4</ele><time>2022-11-13T15:02:19.0000000+00:00</time></trkpt><trkpt lat="38.96355165" lon="-0.49269045"><ele>143.4</ele><time>2022-11-13T15:02:20.0000000+00:00</time></trkpt><trkpt lat="38.96354998" lon="-0.49269238"><ele>143.4</ele><time>2022-11-13T15:02:21.0000000+00:00</time></trkpt><trkpt lat="38.96354863" lon="-0.49269305"><ele>143.4</ele><time>2022-11-13T15:02:22.0000000+00:00</time></trkpt><trkpt lat="38.96354956" lon="-0.49269321"><ele>143.4</ele><time>2022-11-13T15:02:23.0000000+00:00</time></trkpt><trkpt lat="38.96354746" lon="-0.49269313"><ele>143.4</ele><time>2022-11-13T15:02:24.0000000+00:00</time></trkpt><trkpt lat="38.96354696" lon="-0.4926912"><ele>143.4</ele><time>2022-11-13T15:02:25.0000000+00:00</time></trkpt><trkpt lat="38.96354696" lon="-0.4926912"><ele>143.4</ele><time>2022-11-13T15:02:26.0000000+00:00</time></trkpt><trkpt lat="38.96354696" lon="-0.4926912"><ele>143.4</ele><time>2022-11-13T15:02:27.0000000+00:00</time></trkpt><trkpt lat="38.96354696" lon="-0.4926912"><ele>143.4</ele><time>2022-11-13T15:02:28.0000000+00:00</time></trkpt><trkpt lat="38.96354696" lon="-0.4926912"><ele>143.4</ele><time>2022-11-13T15:02:29.0000000+00:00</time></trkpt><trkpt lat="38.96354696" lon="-0.4926912"><ele>143.4</ele><time>2022-11-13T15:02:30.0000000+00:00</time></trkpt><trkpt lat="38.96355098" lon="-0.49268894"><ele>143.2</ele><time>2022-11-13T15:02:31.0000000+00:00</time></trkpt><trkpt lat="38.96356163" lon="-0.49268819"><ele>143.2</ele><time>2022-11-13T15:02:32.0000000+00:00</time></trkpt><trkpt lat="38.96357629" lon="-0.49268425"><ele>143.2</ele><time>2022-11-13T15:02:33.0000000+00:00</time></trkpt><trkpt lat="38.96357445" lon="-0.49268684"><ele>143.2</ele><time>2022-11-13T15:02:34.0000000+00:00</time></trkpt><trkpt lat="38.96356925" lon="-0.49268718"><ele>143.2</ele><time>2022-11-13T15:02:35.0000000+00:00</time></trkpt><trkpt lat="38.96357034" lon="-0.4926829"><ele>143.2</ele><time>2022-11-13T15:02:36.0000000+00:00</time></trkpt><trkpt lat="38.9635685" lon="-0.49267779"><ele>143.2</ele><time>2022-11-13T15:02:37.0000000+00:00</time></trkpt><trkpt lat="38.96356942" lon="-0.49267251"><ele>143.4</ele><time>2022-11-13T15:02:38.0000000+00:00</time></trkpt><trkpt lat="38.96357529" lon="-0.49267117"><ele>143.4</ele><time>2022-11-13T15:02:39.0000000+00:00</time></trkpt><trkpt lat="38.9635778" lon="-0.49266648"><ele>143.4</ele><time>2022-11-13T15:02:40.0000000+00:00</time></trkpt><trkpt lat="38.96357328" lon="-0.49266664"><ele>143.4</ele><time>2022-11-13T15:02:41.0000000+00:00</time></trkpt><trkpt lat="38.96356666" lon="-0.49266128"><ele>143.4</ele><time>2022-11-13T15:02:42.0000000+00:00</time></trkpt><trkpt lat="38.96356347" lon="-0.49265977"><ele>143.6</ele><time>2022-11-13T15:02:43.0000000+00:00</time></trkpt><trkpt lat="38.96356355" lon="-0.49265952"><ele>143.6</ele><time>2022-11-13T15:02:44.0000000+00:00</time></trkpt><trkpt lat="38.96356154" lon="-0.49265709"><ele>143.6</ele><time>2022-11-13T15:02:45.0000000+00:00</time></trkpt><trkpt lat="38.96355836" lon="-0.49265927"><ele>143.6</ele><time>2022-11-13T15:02:46.0000000+00:00</time></trkpt><trkpt lat="38.96356029" lon="-0.49266396"><ele>143.6</ele><time>2022-11-13T15:02:47.0000000+00:00</time></trkpt><trkpt lat="38.963555" lon="-0.49266723"><ele>143.6</ele><time>2022-11-13T15:02:48.0000000+00:00</time></trkpt><trkpt lat="38.96355107" lon="-0.49266916"><ele>143.6</ele><time>2022-11-13T15:02:49.0000000+00:00</time></trkpt><trkpt lat="38.96355048" lon="-0.49267327"><ele>143.6</ele><time>2022-11-13T15:02:50.0000000+00:00</time></trkpt><trkpt lat="38.96354805" lon="-0.49268341"><ele>143.6</ele><time>2022-11-13T15:02:51.0000000+00:00</time></trkpt><trkpt lat="38.96354771" lon="-0.49268366"><ele>143.8</ele><time>2022-11-13T15:02:52.0000000+00:00</time></trkpt><trkpt lat="38.96354972" lon="-0.49268584"><ele>143.8</ele><time>2022-11-13T15:02:53.0000000+00:00</time></trkpt><trkpt lat="38.96355333" lon="-0.4926845"><ele>143.8</ele><time>2022-11-13T15:02:54.0000000+00:00</time></trkpt><trkpt lat="38.96355576" lon="-0.49268441"><ele>143.8</ele><time>2022-11-13T15:02:55.0000000+00:00</time></trkpt><trkpt lat="38.96355903" lon="-0.49268701"><ele>144.0</ele><time>2022-11-13T15:02:56.0000000+00:00</time></trkpt><trkpt lat="38.96356045" lon="-0.49268768"><ele>144.2</ele><time>2022-11-13T15:02:57.0000000+00:00</time></trkpt><trkpt lat="38.96356012" lon="-0.49268609"><ele>144.2</ele><time>2022-11-13T15:02:58.0000000+00:00</time></trkpt><trkpt lat="38.96356707" lon="-0.49268567"><ele>144.2</ele><time>2022-11-13T15:02:59.0000000+00:00</time></trkpt><trkpt lat="38.96357227" lon="-0.49268399"><ele>144.2</ele><time>2022-11-13T15:03:00.0000000+00:00</time></trkpt><trkpt lat="38.96357026" lon="-0.49268609"><ele>144.2</ele><time>2022-11-13T15:03:01.0000000+00:00</time></trkpt><trkpt lat="38.96356448" lon="-0.49268969"><ele>144.2</ele><time>2022-11-13T15:03:02.0000000+00:00</time></trkpt><trkpt lat="38.96356515" lon="-0.49269573"><ele>144.2</ele><time>2022-11-13T15:03:03.0000000+00:00</time></trkpt><trkpt lat="38.96356959" lon="-0.49269799"><ele>144.2</ele><time>2022-11-13T15:03:04.0000000+00:00</time></trkpt><trkpt lat="38.96357227" lon="-0.49269682"><ele>144.2</ele><time>2022-11-13T15:03:05.0000000+00:00</time></trkpt><trkpt lat="38.96357898" lon="-0.49269539"><ele>144.2</ele><time>2022-11-13T15:03:06.0000000+00:00</time></trkpt><trkpt lat="38.96358158" lon="-0.49269456"><ele>144.2</ele><time>2022-11-13T15:03:07.0000000+00:00</time></trkpt><trkpt lat="38.96358375" lon="-0.49269548"><ele>144.2</ele><time>2022-11-13T15:03:08.0000000+00:00</time></trkpt><trkpt lat="38.96358417" lon="-0.49269791"><ele>144.2</ele><time>2022-11-13T15:03:09.0000000+00:00</time></trkpt><trkpt lat="38.96357504" lon="-0.49269347"><ele>144.0</ele><time>2022-11-13T15:03:10.0000000+00:00</time></trkpt><trkpt lat="38.96356657" lon="-0.49268919"><ele>143.8</ele><time>2022-11-13T15:03:11.0000000+00:00</time></trkpt><trkpt lat="38.96356624" lon="-0.49268969"><ele>143.6</ele><time>2022-11-13T15:03:12.0000000+00:00</time></trkpt><trkpt lat="38.96356624" lon="-0.49268969"><ele>143.6</ele><time>2022-11-13T15:03:13.0000000+00:00</time></trkpt><trkpt lat="38.96356624" lon="-0.49268969"><ele>143.4</ele><time>2022-11-13T15:03:14.0000000+00:00</time></trkpt><trkpt lat="38.96356624" lon="-0.49268969"><ele>143.4</ele><time>2022-11-13T15:03:15.0000000+00:00</time></trkpt><trkpt lat="38.96356624" lon="-0.49268969"><ele>143.4</ele><time>2022-11-13T15:03:16.0000000+00:00</time></trkpt><trkpt lat="38.96356624" lon="-0.49268969"><ele>143.4</ele><time>2022-11-13T15:03:17.0000000+00:00</time></trkpt><trkpt lat="38.96356624" lon="-0.49268969"><ele>143.4</ele><time>2022-11-13T15:03:18.0000000+00:00</time></trkpt><trkpt lat="38.96356624" lon="-0.49268969"><ele>143.4</ele><time>2022-11-13T15:03:19.0000000+00:00</time></trkpt><trkpt lat="38.96356624" lon="-0.49268969"><ele>143.4</ele><time>2022-11-13T15:03:20.0000000+00:00</time></trkpt><trkpt lat="38.96356624" lon="-0.49268969"><ele>143.4</ele><time>2022-11-13T15:03:21.0000000+00:00</time></trkpt><trkpt lat="38.96356624" lon="-0.49268969"><ele>143.6</ele><time>2022-11-13T15:03:22.0000000+00:00</time></trkpt><trkpt lat="38.96356624" lon="-0.49268969"><ele>143.6</ele><time>2022-11-13T15:03:23.0000000+00:00</time></trkpt><trkpt lat="38.96356624" lon="-0.49268969"><ele>143.6</ele><time>2022-11-13T15:03:24.0000000+00:00</time></trkpt><trkpt lat="38.96356624" lon="-0.49269321"><ele>143.8</ele><time>2022-11-13T15:03:25.0000000+00:00</time></trkpt><trkpt lat="38.96356624" lon="-0.49269439"><ele>144.0</ele><time>2022-11-13T15:03:26.0000000+00:00</time></trkpt><trkpt lat="38.96356624" lon="-0.49269456"><ele>144.2</ele><time>2022-11-13T15:03:27.0000000+00:00</time></trkpt><trkpt lat="38.96356624" lon="-0.49269531"><ele>144.4</ele><time>2022-11-13T15:03:28.0000000+00:00</time></trkpt><trkpt lat="38.96356624" lon="-0.49269548"><ele>144.6</ele><time>2022-11-13T15:03:29.0000000+00:00</time></trkpt><trkpt lat="38.96356624" lon="-0.49269623"><ele>144.6</ele><time>2022-11-13T15:03:30.0000000+00:00</time></trkpt><trkpt lat="38.96356624" lon="-0.49269673"><ele>144.8</ele><time>2022-11-13T15:03:31.0000000+00:00</time></trkpt><trkpt lat="38.96356624" lon="-0.49269732"><ele>145.0</ele><time>2022-11-13T15:03:32.0000000+00:00</time></trkpt><trkpt lat="38.96356624" lon="-0.49269741"><ele>145.0</ele><time>2022-11-13T15:03:33.0000000+00:00</time></trkpt><trkpt lat="38.96356439" lon="-0.49269741"><ele>145.0</ele><time>2022-11-13T15:03:34.0000000+00:00</time></trkpt><trkpt lat="38.96356154" lon="-0.49269766"><ele>145.0</ele><time>2022-11-13T15:03:35.0000000+00:00</time></trkpt><trkpt lat="38.9635576" lon="-0.49269791"><ele>145.0</ele><time>2022-11-13T15:03:36.0000000+00:00</time></trkpt><trkpt lat="38.96355283" lon="-0.49269791"><ele>145.0</ele><time>2022-11-13T15:03:37.0000000+00:00</time></trkpt><trkpt lat="38.96355023" lon="-0.492699"><ele>145.0</ele><time>2022-11-13T15:03:38.0000000+00:00</time></trkpt><trkpt lat="38.96355031" lon="-0.49270093"><ele>145.0</ele><time>2022-11-13T15:03:39.0000000+00:00</time></trkpt><trkpt lat="38.96355165" lon="-0.49270327"><ele>144.8</ele><time>2022-11-13T15:03:40.0000000+00:00</time></trkpt><trkpt lat="38.96355039" lon="-0.49270512"><ele>144.8</ele><time>2022-11-13T15:03:41.0000000+00:00</time></trkpt><trkpt lat="38.96354352" lon="-0.49270503"><ele>144.8</ele><time>2022-11-13T15:03:42.0000000+00:00</time></trkpt><trkpt lat="38.96353874" lon="-0.49270537"><ele>144.8</ele><time>2022-11-13T15:03:43.0000000+00:00</time></trkpt><trkpt lat="38.96353623" lon="-0.49270554"><ele>144.8</ele><time>2022-11-13T15:03:44.0000000+00:00</time></trkpt><trkpt lat="38.96353623" lon="-0.49270554"><ele>144.8</ele><time>2022-11-13T15:03:45.0000000+00:00</time></trkpt><trkpt lat="38.96353623" lon="-0.49270554"><ele>144.8</ele><time>2022-11-13T15:03:46.0000000+00:00</time></trkpt><trkpt lat="38.96353623" lon="-0.49270554"><ele>144.8</ele><time>2022-11-13T15:03:47.0000000+00:00</time></trkpt><trkpt lat="38.96353623" lon="-0.49270554"><ele>144.8</ele><time>2022-11-13T15:03:48.0000000+00:00</time></trkpt><trkpt lat="38.96353623" lon="-0.49270554"><ele>144.8</ele><time>2022-11-13T15:03:49.0000000+00:00</time></trkpt><trkpt lat="38.96353623" lon="-0.49270554"><ele>144.8</ele><time>2022-11-13T15:03:50.0000000+00:00</time></trkpt><trkpt lat="38.96353455" lon="-0.49270554"><ele>144.8</ele><time>2022-11-13T15:03:51.0000000+00:00</time></trkpt><trkpt lat="38.96353321" lon="-0.49270554"><ele>145.0</ele><time>2022-11-13T15:03:52.0000000+00:00</time></trkpt><trkpt lat="38.96353221" lon="-0.4927031"><ele>145.0</ele><time>2022-11-13T15:03:53.0000000+00:00</time></trkpt><trkpt lat="38.96353112" lon="-0.49270168"><ele>145.0</ele><time>2022-11-13T15:03:54.0000000+00:00</time></trkpt><trkpt lat="38.96352952" lon="-0.49270185"><ele>145.0</ele><time>2022-11-13T15:03:55.0000000+00:00</time></trkpt><trkpt lat="38.9635291" lon="-0.49270042"><ele>144.8</ele><time>2022-11-13T15:03:56.0000000+00:00</time></trkpt><trkpt lat="38.96353045" lon="-0.49269866"><ele>144.8</ele><time>2022-11-13T15:03:57.0000000+00:00</time></trkpt><trkpt lat="38.96353087" lon="-0.49270026"><ele>144.8</ele><time>2022-11-13T15:03:58.0000000+00:00</time></trkpt><trkpt lat="38.96353103" lon="-0.49270084"><ele>144.8</ele><time>2022-11-13T15:03:59.0000000+00:00</time></trkpt><trkpt lat="38.96353288" lon="-0.49269028"><ele>144.8</ele><time>2022-11-13T15:04:00.0000000+00:00</time></trkpt><trkpt lat="38.96353405" lon="-0.49268575"><ele>144.8</ele><time>2022-11-13T15:04:01.0000000+00:00</time></trkpt><trkpt lat="38.96352944" lon="-0.4926679"><ele>144.8</ele><time>2022-11-13T15:04:02.0000000+00:00</time></trkpt><trkpt lat="38.9635276" lon="-0.49265315"><ele>144.8</ele><time>2022-11-13T15:04:03.0000000+00:00</time></trkpt><trkpt lat="38.96352818" lon="-0.4926529"><ele>144.8</ele><time>2022-11-13T15:04:04.0000000+00:00</time></trkpt><trkpt lat="38.96352978" lon="-0.49265072"><ele>144.8</ele><time>2022-11-13T15:04:05.0000000+00:00</time></trkpt><trkpt lat="38.96353749" lon="-0.49264024"><ele>144.6</ele><time>2022-11-13T15:04:06.0000000+00:00</time></trkpt><trkpt lat="38.96354486" lon="-0.49263245"><ele>144.6</ele><time>2022-11-13T15:04:07.0000000+00:00</time></trkpt><trkpt lat="38.96354713" lon="-0.49263027"><ele>144.6</ele><time>2022-11-13T15:04:08.0000000+00:00</time></trkpt><trkpt lat="38.96355123" lon="-0.49262323"><ele>144.8</ele><time>2022-11-13T15:04:09.0000000+00:00</time></trkpt><trkpt lat="38.96354662" lon="-0.49262348"><ele>144.8</ele><time>2022-11-13T15:04:10.0000000+00:00</time></trkpt><trkpt lat="38.96354721" lon="-0.49262691"><ele>144.8</ele><time>2022-11-13T15:04:11.0000000+00:00</time></trkpt><trkpt lat="38.9635457" lon="-0.49262758"><ele>144.8</ele><time>2022-11-13T15:04:12.0000000+00:00</time></trkpt><trkpt lat="38.96354646" lon="-0.49262784"><ele>145.0</ele><time>2022-11-13T15:04:13.0000000+00:00</time></trkpt><trkpt lat="38.96353631" lon="-0.4926094"><ele>145.0</ele><time>2022-11-13T15:04:14.0000000+00:00</time></trkpt><trkpt lat="38.96353011" lon="-0.49259691"><ele>145.0</ele><time>2022-11-13T15:04:15.0000000+00:00</time></trkpt><trkpt lat="38.96352827" lon="-0.49259297"><ele>145.0</ele><time>2022-11-13T15:04:16.0000000+00:00</time></trkpt><trkpt lat="38.96353011" lon="-0.49258098"><ele>145.0</ele><time>2022-11-13T15:04:17.0000000+00:00</time></trkpt><trkpt lat="38.96353204" lon="-0.49257813"><ele>145.0</ele><time>2022-11-13T15:04:18.0000000+00:00</time></trkpt><trkpt lat="38.9635317" lon="-0.49257612"><ele>145.0</ele><time>2022-11-13T15:04:19.0000000+00:00</time></trkpt><trkpt lat="38.96353556" lon="-0.4925778"><ele>145.0</ele><time>2022-11-13T15:04:20.0000000+00:00</time></trkpt><trkpt lat="38.9635348" lon="-0.49258065"><ele>145.0</ele><time>2022-11-13T15:04:21.0000000+00:00</time></trkpt><trkpt lat="38.96353095" lon="-0.49258366"><ele>145.0</ele><time>2022-11-13T15:04:22.0000000+00:00</time></trkpt><trkpt lat="38.96353128" lon="-0.49258576"><ele>145.0</ele><time>2022-11-13T15:04:23.0000000+00:00</time></trkpt><trkpt lat="38.96353246" lon="-0.49258819"><ele>145.0</ele><time>2022-11-13T15:04:24.0000000+00:00</time></trkpt><trkpt lat="38.96353304" lon="-0.49258442"><ele>145.0</ele><time>2022-11-13T15:04:25.0000000+00:00</time></trkpt><trkpt lat="38.96352843" lon="-0.49258366"><ele>145.0</ele><time>2022-11-13T15:04:26.0000000+00:00</time></trkpt><trkpt lat="38.96352843" lon="-0.49258366"><ele>145.0</ele><time>2022-11-13T15:04:27.0000000+00:00</time></trkpt><trkpt lat="38.96352843" lon="-0.49258366"><ele>145.0</ele><time>2022-11-13T15:04:28.0000000+00:00</time></trkpt><trkpt lat="38.96352843" lon="-0.49258366"><ele>145.0</ele><time>2022-11-13T15:04:29.0000000+00:00</time></trkpt><trkpt lat="38.96352843" lon="-0.49258366"><ele>145.0</ele><time>2022-11-13T15:04:30.0000000+00:00</time></trkpt><trkpt lat="38.96352818" lon="-0.49258081"><ele>145.0</ele><time>2022-11-13T15:04:31.0000000+00:00</time></trkpt><trkpt lat="38.96353338" lon="-0.49257117"><ele>145.0</ele><time>2022-11-13T15:04:32.0000000+00:00</time></trkpt><trkpt lat="38.96353556" lon="-0.49256472"><ele>145.0</ele><time>2022-11-13T15:04:33.0000000+00:00</time></trkpt><trkpt lat="38.96353648" lon="-0.49255977"><ele>145.0</ele><time>2022-11-13T15:04:34.0000000+00:00</time></trkpt><trkpt lat="38.96354" lon="-0.492556"><ele>145.0</ele><time>2022-11-13T15:04:35.0000000+00:00</time></trkpt><trkpt lat="38.96354092" lon="-0.49255257"><ele>145.0</ele><time>2022-11-13T15:04:36.0000000+00:00</time></trkpt><trkpt lat="38.96354092" lon="-0.49255257"><ele>145.0</ele><time>2022-11-13T15:04:37.0000000+00:00</time></trkpt><trkpt lat="38.96354092" lon="-0.49255257"><ele>145.0</ele><time>2022-11-13T15:04:38.0000000+00:00</time></trkpt><trkpt lat="38.96354092" lon="-0.49255257"><ele>145.0</ele><time>2022-11-13T15:04:39.0000000+00:00</time></trkpt><trkpt lat="38.96354092" lon="-0.49255257"><ele>145.0</ele><time>2022-11-13T15:04:40.0000000+00:00</time></trkpt><trkpt lat="38.96354092" lon="-0.49255257"><ele>145.0</ele><time>2022-11-13T15:04:41.0000000+00:00</time></trkpt><trkpt lat="38.96354092" lon="-0.49255257"><ele>145.0</ele><time>2022-11-13T15:04:42.0000000+00:00</time></trkpt><trkpt lat="38.96354092" lon="-0.49255257"><ele>145.0</ele><time>2022-11-13T15:04:43.0000000+00:00</time></trkpt><trkpt lat="38.96354092" lon="-0.49255257"><ele>145.0</ele><time>2022-11-13T15:04:44.0000000+00:00</time></trkpt><trkpt lat="38.96354092" lon="-0.49255257"><ele>145.0</ele><time>2022-11-13T15:04:45.0000000+00:00</time></trkpt><trkpt lat="38.96354092" lon="-0.49255257"><ele>145.0</ele><time>2022-11-13T15:04:46.0000000+00:00</time></trkpt><trkpt lat="38.96354092" lon="-0.49255257"><ele>145.0</ele><time>2022-11-13T15:04:47.0000000+00:00</time></trkpt><trkpt lat="38.96354092" lon="-0.49255257"><ele>145.0</ele><time>2022-11-13T15:04:48.0000000+00:00</time></trkpt><trkpt lat="38.96354092" lon="-0.49255257"><ele>145.0</ele><time>2022-11-13T15:04:49.0000000+00:00</time></trkpt><trkpt lat="38.96354092" lon="-0.49255257"><ele>145.0</ele><time>2022-11-13T15:04:50.0000000+00:00</time></trkpt><trkpt lat="38.96354092" lon="-0.49255257"><ele>145.0</ele><time>2022-11-13T15:04:51.0000000+00:00</time></trkpt><trkpt lat="38.96354092" lon="-0.49255257"><ele>145.0</ele><time>2022-11-13T15:04:52.0000000+00:00</time></trkpt><trkpt lat="38.96354092" lon="-0.49255257"><ele>145.0</ele><time>2022-11-13T15:04:53.0000000+00:00</time></trkpt><trkpt lat="38.96354092" lon="-0.49255257"><ele>145.0</ele><time>2022-11-13T15:04:54.0000000+00:00</time></trkpt><trkpt lat="38.96354092" lon="-0.49255257"><ele>145.0</ele><time>2022-11-13T15:04:55.0000000+00:00</time></trkpt><trkpt lat="38.96354034" lon="-0.49255257"><ele>145.0</ele><time>2022-11-13T15:04:56.0000000+00:00</time></trkpt><trkpt lat="38.96354017" lon="-0.49255257"><ele>145.0</ele><time>2022-11-13T15:04:57.0000000+00:00</time></trkpt><trkpt lat="38.96354017" lon="-0.49255257"><ele>146.0</ele><time>2022-11-13T15:04:58.0000000+00:00</time></trkpt><trkpt lat="38.96354017" lon="-0.49255257"><ele>146.6</ele><time>2022-11-13T15:04:59.0000000+00:00</time></trkpt><trkpt lat="38.96354017" lon="-0.49255257"><ele>146.8</ele><time>2022-11-13T15:05:00.0000000+00:00</time></trkpt><trkpt lat="38.96354017" lon="-0.49255257"><ele>147.2</ele><time>2022-11-13T15:05:01.0000000+00:00</time></trkpt><trkpt lat="38.96354017" lon="-0.49255257"><ele>147.4</ele><time>2022-11-13T15:05:02.0000000+00:00</time></trkpt><trkpt lat="38.96354017" lon="-0.49255282"><ele>147.6</ele><time>2022-11-13T15:05:03.0000000+00:00</time></trkpt><trkpt lat="38.96354017" lon="-0.4925529"><ele>147.6</ele><time>2022-11-13T15:05:04.0000000+00:00</time></trkpt><trkpt lat="38.96354017" lon="-0.49255366"><ele>147.8</ele><time>2022-11-13T15:05:05.0000000+00:00</time></trkpt><trkpt lat="38.96354017" lon="-0.49255382"><ele>148.0</ele><time>2022-11-13T15:05:06.0000000+00:00</time></trkpt><trkpt lat="38.9635395" lon="-0.49255391"><ele>148.2</ele><time>2022-11-13T15:05:07.0000000+00:00</time></trkpt><trkpt lat="38.96353036" lon="-0.49255701"><ele>148.4</ele><time>2022-11-13T15:05:08.0000000+00:00</time></trkpt><trkpt lat="38.96351787" lon="-0.49255382"><ele>148.6</ele><time>2022-11-13T15:05:09.0000000+00:00</time></trkpt><trkpt lat="38.96351008" lon="-0.49254997"><ele>148.8</ele><time>2022-11-13T15:05:10.0000000+00:00</time></trkpt><trkpt lat="38.96350153" lon="-0.49254628"><ele>149.0</ele><time>2022-11-13T15:05:11.0000000+00:00</time></trkpt><trkpt lat="38.96349072" lon="-0.49254586"><ele>149.2</ele><time>2022-11-13T15:05:12.0000000+00:00</time></trkpt><trkpt lat="38.96347295" lon="-0.49254569"><ele>149.2</ele><time>2022-11-13T15:05:13.0000000+00:00</time></trkpt><trkpt lat="38.96345258" lon="-0.4925477"><ele>149.4</ele><time>2022-11-13T15:05:14.0000000+00:00</time></trkpt><trkpt lat="38.96343808" lon="-0.4925493"><ele>149.6</ele><time>2022-11-13T15:05:15.0000000+00:00</time></trkpt><trkpt lat="38.96342643" lon="-0.49255223"><ele>149.6</ele><time>2022-11-13T15:05:16.0000000+00:00</time></trkpt><trkpt lat="38.96341587" lon="-0.49255776"><ele>149.8</ele><time>2022-11-13T15:05:17.0000000+00:00</time></trkpt><trkpt lat="38.96340765" lon="-0.49256221"><ele>149.8</ele><time>2022-11-13T15:05:18.0000000+00:00</time></trkpt><trkpt lat="38.96340187" lon="-0.49256556"><ele>150.0</ele><time>2022-11-13T15:05:19.0000000+00:00</time></trkpt><trkpt lat="38.96339835" lon="-0.49256288"><ele>150.4</ele><time>2022-11-13T15:05:20.0000000+00:00</time></trkpt><trkpt lat="38.96339449" lon="-0.49256665"><ele>150.6</ele><time>2022-11-13T15:05:21.0000000+00:00</time></trkpt><trkpt lat="38.96337664" lon="-0.49256405"><ele>150.8</ele><time>2022-11-13T15:05:22.0000000+00:00</time></trkpt><trkpt lat="38.96336163" lon="-0.49256145"><ele>151.0</ele><time>2022-11-13T15:05:23.0000000+00:00</time></trkpt><trkpt lat="38.96335862" lon="-0.49256061"><ele>151.2</ele><time>2022-11-13T15:05:24.0000000+00:00</time></trkpt><trkpt lat="38.96334814" lon="-0.4925591"><ele>151.4</ele><time>2022-11-13T15:05:25.0000000+00:00</time></trkpt><trkpt lat="38.96334403" lon="-0.49255525"><ele>151.6</ele><time>2022-11-13T15:05:26.0000000+00:00</time></trkpt><trkpt lat="38.96333247" lon="-0.49255533"><ele>151.8</ele><time>2022-11-13T15:05:27.0000000+00:00</time></trkpt><trkpt lat="38.96332995" lon="-0.49255516"><ele>151.8</ele><time>2022-11-13T15:05:28.0000000+00:00</time></trkpt><trkpt lat="38.96331864" lon="-0.49255667"><ele>152.0</ele><time>2022-11-13T15:05:29.0000000+00:00</time></trkpt><trkpt lat="38.963309" lon="-0.49255433"><ele>152.2</ele><time>2022-11-13T15:05:30.0000000+00:00</time></trkpt><trkpt lat="38.96330162" lon="-0.4925493"><ele>152.4</ele><time>2022-11-13T15:05:31.0000000+00:00</time></trkpt><trkpt lat="38.96329944" lon="-0.49254687"><ele>152.6</ele><time>2022-11-13T15:05:32.0000000+00:00</time></trkpt><trkpt lat="38.96329894" lon="-0.49254427"><ele>152.8</ele><time>2022-11-13T15:05:33.0000000+00:00</time></trkpt><trkpt lat="38.96329743" lon="-0.49254242"><ele>153.0</ele><time>2022-11-13T15:05:34.0000000+00:00</time></trkpt><trkpt lat="38.96328829" lon="-0.49254368"><ele>153.0</ele><time>2022-11-13T15:05:35.0000000+00:00</time></trkpt><trkpt lat="38.96328678" lon="-0.49254192"><ele>153.2</ele><time>2022-11-13T15:05:36.0000000+00:00</time></trkpt><trkpt lat="38.96328871" lon="-0.49254133"><ele>153.2</ele><time>2022-11-13T15:05:37.0000000+00:00</time></trkpt><trkpt lat="38.96327958" lon="-0.49255014"><ele>153.4</ele><time>2022-11-13T15:05:38.0000000+00:00</time></trkpt><trkpt lat="38.96327564" lon="-0.49255064"><ele>153.6</ele><time>2022-11-13T15:05:39.0000000+00:00</time></trkpt><trkpt lat="38.9632717" lon="-0.49255064"><ele>153.8</ele><time>2022-11-13T15:05:40.0000000+00:00</time></trkpt><trkpt lat="38.96326725" lon="-0.49255106"><ele>153.8</ele><time>2022-11-13T15:05:41.0000000+00:00</time></trkpt><trkpt lat="38.96326541" lon="-0.49255282"><ele>154.0</ele><time>2022-11-13T15:05:42.0000000+00:00</time></trkpt><trkpt lat="38.96326264" lon="-0.49255332"><ele>154.0</ele><time>2022-11-13T15:05:43.0000000+00:00</time></trkpt><trkpt lat="38.9632468" lon="-0.49256254"><ele>154.2</ele><time>2022-11-13T15:05:44.0000000+00:00</time></trkpt><trkpt lat="38.96325007" lon="-0.49256573"><ele>154.2</ele><time>2022-11-13T15:05:45.0000000+00:00</time></trkpt><trkpt lat="38.96325544" lon="-0.49256682"><ele>154.2</ele><time>2022-11-13T15:05:46.0000000+00:00</time></trkpt><trkpt lat="38.96324437" lon="-0.49256539"><ele>154.4</ele><time>2022-11-13T15:05:47.0000000+00:00</time></trkpt><trkpt lat="38.96323507" lon="-0.49256891"><ele>154.4</ele><time>2022-11-13T15:05:48.0000000+00:00</time></trkpt><trkpt lat="38.96323398" lon="-0.49256816"><ele>154.4</ele><time>2022-11-13T15:05:49.0000000+00:00</time></trkpt><trkpt lat="38.96323297" lon="-0.49257285"><ele>154.6</ele><time>2022-11-13T15:05:50.0000000+00:00</time></trkpt><trkpt lat="38.96322744" lon="-0.49258157"><ele>154.8</ele><time>2022-11-13T15:05:51.0000000+00:00</time></trkpt><trkpt lat="38.96322266" lon="-0.49258492"><ele>155.0</ele><time>2022-11-13T15:05:52.0000000+00:00</time></trkpt><trkpt lat="38.96321059" lon="-0.49258702"><ele>155.2</ele><time>2022-11-13T15:05:53.0000000+00:00</time></trkpt><trkpt lat="38.96319693" lon="-0.49258584"><ele>155.4</ele><time>2022-11-13T15:05:54.0000000+00:00</time></trkpt><trkpt lat="38.96318335" lon="-0.49258291"><ele>155.6</ele><time>2022-11-13T15:05:55.0000000+00:00</time></trkpt><trkpt lat="38.96317371" lon="-0.49257956"><ele>156.0</ele><time>2022-11-13T15:05:56.0000000+00:00</time></trkpt><trkpt lat="38.96316676" lon="-0.49257562"><ele>156.2</ele><time>2022-11-13T15:05:57.0000000+00:00</time></trkpt><trkpt lat="38.96315552" lon="-0.49257092"><ele>156.2</ele><time>2022-11-13T15:05:58.0000000+00:00</time></trkpt><trkpt lat="38.96314806" lon="-0.49256858"><ele>156.4</ele><time>2022-11-13T15:05:59.0000000+00:00</time></trkpt><trkpt lat="38.96313801" lon="-0.49256883"><ele>156.6</ele><time>2022-11-13T15:06:00.0000000+00:00</time></trkpt><trkpt lat="38.9631251" lon="-0.49257143"><ele>157.0</ele><time>2022-11-13T15:06:01.0000000+00:00</time></trkpt><trkpt lat="38.96311303" lon="-0.49257143"><ele>157.2</ele><time>2022-11-13T15:06:02.0000000+00:00</time></trkpt><trkpt lat="38.9631075" lon="-0.49257117"><ele>157.4</ele><time>2022-11-13T15:06:03.0000000+00:00</time></trkpt><trkpt lat="38.96309911" lon="-0.4925778"><ele>157.6</ele><time>2022-11-13T15:06:04.0000000+00:00</time></trkpt><trkpt lat="38.96309241" lon="-0.49258743"><ele>158.0</ele><time>2022-11-13T15:06:05.0000000+00:00</time></trkpt><trkpt lat="38.96308914" lon="-0.49258995"><ele>158.2</ele><time>2022-11-13T15:06:06.0000000+00:00</time></trkpt><trkpt lat="38.96308218" lon="-0.49259121"><ele>158.2</ele><time>2022-11-13T15:06:07.0000000+00:00</time></trkpt><trkpt lat="38.96307254" lon="-0.49259246"><ele>158.4</ele><time>2022-11-13T15:06:08.0000000+00:00</time></trkpt><trkpt lat="38.96306676" lon="-0.49260378"><ele>158.6</ele><time>2022-11-13T15:06:09.0000000+00:00</time></trkpt><trkpt lat="38.96306609" lon="-0.49261384"><ele>158.8</ele><time>2022-11-13T15:06:10.0000000+00:00</time></trkpt><trkpt lat="38.96306458" lon="-0.49262482"><ele>159.0</ele><time>2022-11-13T15:06:11.0000000+00:00</time></trkpt><trkpt lat="38.96306022" lon="-0.49262524"><ele>159.2</ele><time>2022-11-13T15:06:12.0000000+00:00</time></trkpt><trkpt lat="38.96305452" lon="-0.49262515"><ele>159.2</ele><time>2022-11-13T15:06:13.0000000+00:00</time></trkpt><trkpt lat="38.9630515" lon="-0.49262432"><ele>159.4</ele><time>2022-11-13T15:06:14.0000000+00:00</time></trkpt><trkpt lat="38.96303935" lon="-0.49262121"><ele>159.4</ele><time>2022-11-13T15:06:15.0000000+00:00</time></trkpt><trkpt lat="38.963036" lon="-0.49261501"><ele>159.6</ele><time>2022-11-13T15:06:16.0000000+00:00</time></trkpt><trkpt lat="38.9630303" lon="-0.49261325"><ele>159.8</ele><time>2022-11-13T15:06:17.0000000+00:00</time></trkpt><trkpt lat="38.96301823" lon="-0.4926078"><ele>160.0</ele><time>2022-11-13T15:06:18.0000000+00:00</time></trkpt><trkpt lat="38.96301236" lon="-0.49261141"><ele>160.2</ele><time>2022-11-13T15:06:19.0000000+00:00</time></trkpt><trkpt lat="38.96300993" lon="-0.49261367"><ele>160.4</ele><time>2022-11-13T15:06:20.0000000+00:00</time></trkpt><trkpt lat="38.96300775" lon="-0.49261794"><ele>160.6</ele><time>2022-11-13T15:06:21.0000000+00:00</time></trkpt><trkpt lat="38.96300809" lon="-0.49261602"><ele>160.8</ele><time>2022-11-13T15:06:22.0000000+00:00</time></trkpt><trkpt lat="38.96300624" lon="-0.49261007"><ele>160.8</ele><time>2022-11-13T15:06:23.0000000+00:00</time></trkpt><trkpt lat="38.96299325" lon="-0.4926094"><ele>161.2</ele><time>2022-11-13T15:06:24.0000000+00:00</time></trkpt><trkpt lat="38.96298369" lon="-0.49260998"><ele>161.4</ele><time>2022-11-13T15:06:25.0000000+00:00</time></trkpt><trkpt lat="38.96296869" lon="-0.49260981"><ele>161.6</ele><time>2022-11-13T15:06:26.0000000+00:00</time></trkpt><trkpt lat="38.96296207" lon="-0.49261166"><ele>162.0</ele><time>2022-11-13T15:06:27.0000000+00:00</time></trkpt><trkpt lat="38.96295805" lon="-0.49261434"><ele>162.0</ele><time>2022-11-13T15:06:28.0000000+00:00</time></trkpt><trkpt lat="38.96294715" lon="-0.49261618"><ele>162.4</ele><time>2022-11-13T15:06:29.0000000+00:00</time></trkpt><trkpt lat="38.96293977" lon="-0.49261459"><ele>162.6</ele><time>2022-11-13T15:06:30.0000000+00:00</time></trkpt><trkpt lat="38.96293558" lon="-0.492613"><ele>162.8</ele><time>2022-11-13T15:06:31.0000000+00:00</time></trkpt><trkpt lat="38.96293282" lon="-0.49261107"><ele>163.0</ele><time>2022-11-13T15:06:32.0000000+00:00</time></trkpt><trkpt lat="38.96293357" lon="-0.49260747"><ele>163.0</ele><time>2022-11-13T15:06:33.0000000+00:00</time></trkpt><trkpt lat="38.96293198" lon="-0.49260504"><ele>163.2</ele><time>2022-11-13T15:06:34.0000000+00:00</time></trkpt><trkpt lat="38.96292234" lon="-0.49259716"><ele>163.6</ele><time>2022-11-13T15:06:35.0000000+00:00</time></trkpt><trkpt lat="38.96291195" lon="-0.49258819"><ele>163.8</ele><time>2022-11-13T15:06:36.0000000+00:00</time></trkpt><trkpt lat="38.96290088" lon="-0.49258333"><ele>164.0</ele><time>2022-11-13T15:06:37.0000000+00:00</time></trkpt><trkpt lat="38.96289049" lon="-0.4925752"><ele>164.2</ele><time>2022-11-13T15:06:38.0000000+00:00</time></trkpt><trkpt lat="38.9628811" lon="-0.49256975"><ele>164.4</ele><time>2022-11-13T15:06:39.0000000+00:00</time></trkpt><trkpt lat="38.96287674" lon="-0.49256966"><ele>164.6</ele><time>2022-11-13T15:06:40.0000000+00:00</time></trkpt><trkpt lat="38.96286819" lon="-0.49256933"><ele>164.8</ele><time>2022-11-13T15:06:41.0000000+00:00</time></trkpt><trkpt lat="38.96285621" lon="-0.49256782"><ele>165.0</ele><time>2022-11-13T15:06:42.0000000+00:00</time></trkpt><trkpt lat="38.96284464" lon="-0.49256673"><ele>165.2</ele><time>2022-11-13T15:06:43.0000000+00:00</time></trkpt><trkpt lat="38.96284003" lon="-0.49256866"><ele>165.6</ele><time>2022-11-13T15:06:44.0000000+00:00</time></trkpt><trkpt lat="38.9628314" lon="-0.49256455"><ele>165.8</ele><time>2022-11-13T15:06:45.0000000+00:00</time></trkpt><trkpt lat="38.9628262" lon="-0.49255651"><ele>166.0</ele><time>2022-11-13T15:06:46.0000000+00:00</time></trkpt><trkpt lat="38.96282033" lon="-0.49255533"><ele>166.0</ele><time>2022-11-13T15:06:47.0000000+00:00</time></trkpt><trkpt lat="38.96283232" lon="-0.49255651"><ele>166.2</ele><time>2022-11-13T15:06:48.0000000+00:00</time></trkpt><trkpt lat="38.96284397" lon="-0.49255709"><ele>166.4</ele><time>2022-11-13T15:06:49.0000000+00:00</time></trkpt><trkpt lat="38.9628438" lon="-0.49254946"><ele>166.6</ele><time>2022-11-13T15:06:50.0000000+00:00</time></trkpt><trkpt lat="38.9628355" lon="-0.49253832"><ele>166.8</ele><time>2022-11-13T15:06:51.0000000+00:00</time></trkpt><trkpt lat="38.96283089" lon="-0.49253614"><ele>167.0</ele><time>2022-11-13T15:06:52.0000000+00:00</time></trkpt><trkpt lat="38.96282394" lon="-0.49252482"><ele>167.2</ele><time>2022-11-13T15:06:53.0000000+00:00</time></trkpt><trkpt lat="38.96282729" lon="-0.49252449"><ele>167.6</ele><time>2022-11-13T15:06:54.0000000+00:00</time></trkpt><trkpt lat="38.96282276" lon="-0.49252013"><ele>167.6</ele><time>2022-11-13T15:06:55.0000000+00:00</time></trkpt><trkpt lat="38.96281966" lon="-0.49251418"><ele>167.8</ele><time>2022-11-13T15:06:56.0000000+00:00</time></trkpt><trkpt lat="38.96281974" lon="-0.4925125"><ele>168.2</ele><time>2022-11-13T15:06:57.0000000+00:00</time></trkpt><trkpt lat="38.96281991" lon="-0.49251024"><ele>168.2</ele><time>2022-11-13T15:06:58.0000000+00:00</time></trkpt><trkpt lat="38.96281589" lon="-0.49250831"><ele>168.4</ele><time>2022-11-13T15:06:59.0000000+00:00</time></trkpt><trkpt lat="38.96281455" lon="-0.49250479"><ele>168.6</ele><time>2022-11-13T15:07:00.0000000+00:00</time></trkpt><trkpt lat="38.96281706" lon="-0.49249657"><ele>168.6</ele><time>2022-11-13T15:07:01.0000000+00:00</time></trkpt><trkpt lat="38.96281145" lon="-0.49248945"><ele>168.8</ele><time>2022-11-13T15:07:02.0000000+00:00</time></trkpt><trkpt lat="38.96280298" lon="-0.49248098"><ele>169.0</ele><time>2022-11-13T15:07:03.0000000+00:00</time></trkpt><trkpt lat="38.96279384" lon="-0.49247042"><ele>169.2</ele><time>2022-11-13T15:07:04.0000000+00:00</time></trkpt><trkpt lat="38.96278731" lon="-0.49246338"><ele>169.4</ele><time>2022-11-13T15:07:05.0000000+00:00</time></trkpt><trkpt lat="38.9627775" lon="-0.49245156"><ele>169.6</ele><time>2022-11-13T15:07:06.0000000+00:00</time></trkpt><trkpt lat="38.96277482" lon="-0.49244276"><ele>169.8</ele><time>2022-11-13T15:07:07.0000000+00:00</time></trkpt><trkpt lat="38.96277146" lon="-0.49243706"><ele>170.0</ele><time>2022-11-13T15:07:08.0000000+00:00</time></trkpt><trkpt lat="38.96276677" lon="-0.49243153"><ele>170.2</ele><time>2022-11-13T15:07:09.0000000+00:00</time></trkpt><trkpt lat="38.96276442" lon="-0.49242692"><ele>170.2</ele><time>2022-11-13T15:07:10.0000000+00:00</time></trkpt><trkpt lat="38.96275437" lon="-0.49242097"><ele>170.6</ele><time>2022-11-13T15:07:11.0000000+00:00</time></trkpt><trkpt lat="38.96275001" lon="-0.49240848"><ele>170.8</ele><time>2022-11-13T15:07:12.0000000+00:00</time></trkpt><trkpt lat="38.96274506" lon="-0.49240261"><ele>171.0</ele><time>2022-11-13T15:07:13.0000000+00:00</time></trkpt><trkpt lat="38.96274523" lon="-0.49239398"><ele>171.0</ele><time>2022-11-13T15:07:14.0000000+00:00</time></trkpt><trkpt lat="38.9627464" lon="-0.49238208"><ele>171.2</ele><time>2022-11-13T15:07:15.0000000+00:00</time></trkpt><trkpt lat="38.96273869" lon="-0.49237361"><ele>171.2</ele><time>2022-11-13T15:07:16.0000000+00:00</time></trkpt><trkpt lat="38.9627324" lon="-0.49236858"><ele>171.2</ele><time>2022-11-13T15:07:17.0000000+00:00</time></trkpt><trkpt lat="38.96272746" lon="-0.49236657"><ele>171.2</ele><time>2022-11-13T15:07:18.0000000+00:00</time></trkpt><trkpt lat="38.96272402" lon="-0.4923633"><ele>171.2</ele><time>2022-11-13T15:07:19.0000000+00:00</time></trkpt><trkpt lat="38.96271204" lon="-0.49236473"><ele>171.2</ele><time>2022-11-13T15:07:20.0000000+00:00</time></trkpt><trkpt lat="38.96270667" lon="-0.4923576"><ele>171.6</ele><time>2022-11-13T15:07:21.0000000+00:00</time></trkpt><trkpt lat="38.96270072" lon="-0.49234361"><ele>171.8</ele><time>2022-11-13T15:07:22.0000000+00:00</time></trkpt><trkpt lat="38.96269594" lon="-0.4923343"><ele>171.8</ele><time>2022-11-13T15:07:23.0000000+00:00</time></trkpt><trkpt lat="38.96269075" lon="-0.49233003"><ele>172.0</ele><time>2022-11-13T15:07:24.0000000+00:00</time></trkpt><trkpt lat="38.96268706" lon="-0.49233086"><ele>172.0</ele><time>2022-11-13T15:07:25.0000000+00:00</time></trkpt><trkpt lat="38.96267884" lon="-0.49233338"><ele>172.2</ele><time>2022-11-13T15:07:26.0000000+00:00</time></trkpt><trkpt lat="38.96267625" lon="-0.49232961"><ele>172.2</ele><time>2022-11-13T15:07:27.0000000+00:00</time></trkpt><trkpt lat="38.96267423" lon="-0.49232718"><ele>172.6</ele><time>2022-11-13T15:07:28.0000000+00:00</time></trkpt><trkpt lat="38.96267323" lon="-0.49232475"><ele>172.8</ele><time>2022-11-13T15:07:29.0000000+00:00</time></trkpt><trkpt lat="38.96267239" lon="-0.49231796"><ele>172.8</ele><time>2022-11-13T15:07:30.0000000+00:00</time></trkpt><trkpt lat="38.96267021" lon="-0.49230404"><ele>172.8</ele><time>2022-11-13T15:07:31.0000000+00:00</time></trkpt><trkpt lat="38.96267164" lon="-0.49229901"><ele>172.8</ele><time>2022-11-13T15:07:32.0000000+00:00</time></trkpt><trkpt lat="38.96266988" lon="-0.49228367"><ele>172.8</ele><time>2022-11-13T15:07:33.0000000+00:00</time></trkpt><trkpt lat="38.96266644" lon="-0.49226984"><ele>172.8</ele><time>2022-11-13T15:07:34.0000000+00:00</time></trkpt><trkpt lat="38.96265973" lon="-0.4922644"><ele>172.8</ele><time>2022-11-13T15:07:35.0000000+00:00</time></trkpt><trkpt lat="38.96265538" lon="-0.49225509"><ele>173.0</ele><time>2022-11-13T15:07:36.0000000+00:00</time></trkpt><trkpt lat="38.96264783" lon="-0.49224436"><ele>173.2</ele><time>2022-11-13T15:07:37.0000000+00:00</time></trkpt><trkpt lat="38.96264473" lon="-0.49223523"><ele>173.2</ele><time>2022-11-13T15:07:38.0000000+00:00</time></trkpt><trkpt lat="38.96264138" lon="-0.49222894"><ele>173.2</ele><time>2022-11-13T15:07:39.0000000+00:00</time></trkpt><trkpt lat="38.96264012" lon="-0.49222374"><ele>173.2</ele><time>2022-11-13T15:07:40.0000000+00:00</time></trkpt><trkpt lat="38.96263928" lon="-0.49221788"><ele>173.2</ele><time>2022-11-13T15:07:41.0000000+00:00</time></trkpt><trkpt lat="38.96263802" lon="-0.49221486"><ele>173.4</ele><time>2022-11-13T15:07:42.0000000+00:00</time></trkpt><trkpt lat="38.96263551" lon="-0.49221369"><ele>173.4</ele><time>2022-11-13T15:07:43.0000000+00:00</time></trkpt><trkpt lat="38.96263065" lon="-0.49220732"><ele>173.4</ele><time>2022-11-13T15:07:44.0000000+00:00</time></trkpt><trkpt lat="38.96262637" lon="-0.49220581"><ele>173.6</ele><time>2022-11-13T15:07:45.0000000+00:00</time></trkpt><trkpt lat="38.96262093" lon="-0.49220631"><ele>173.8</ele><time>2022-11-13T15:07:46.0000000+00:00</time></trkpt><trkpt lat="38.96261891" lon="-0.49220413"><ele>174.0</ele><time>2022-11-13T15:07:47.0000000+00:00</time></trkpt><trkpt lat="38.96261531" lon="-0.49220229"><ele>174.0</ele><time>2022-11-13T15:07:48.0000000+00:00</time></trkpt><trkpt lat="38.96260601" lon="-0.49219675"><ele>174.0</ele><time>2022-11-13T15:07:49.0000000+00:00</time></trkpt><trkpt lat="38.96259871" lon="-0.49219483"><ele>174.2</ele><time>2022-11-13T15:07:50.0000000+00:00</time></trkpt><trkpt lat="38.96259947" lon="-0.49219156"><ele>174.2</ele><time>2022-11-13T15:07:51.0000000+00:00</time></trkpt><trkpt lat="38.96259804" lon="-0.49218644"><ele>174.4</ele><time>2022-11-13T15:07:52.0000000+00:00</time></trkpt><trkpt lat="38.96259544" lon="-0.49218745"><ele>174.4</ele><time>2022-11-13T15:07:53.0000000+00:00</time></trkpt><trkpt lat="38.96259695" lon="-0.49218527"><ele>174.4</ele><time>2022-11-13T15:07:54.0000000+00:00</time></trkpt><trkpt lat="38.96257575" lon="-0.49217387"><ele>174.4</ele><time>2022-11-13T15:07:55.0000000+00:00</time></trkpt><trkpt lat="38.96256887" lon="-0.49215987"><ele>174.4</ele><time>2022-11-13T15:07:56.0000000+00:00</time></trkpt><trkpt lat="38.9625698" lon="-0.49215132"><ele>174.4</ele><time>2022-11-13T15:07:57.0000000+00:00</time></trkpt><trkpt lat="38.96257348" lon="-0.49214529"><ele>174.4</ele><time>2022-11-13T15:07:58.0000000+00:00</time></trkpt><trkpt lat="38.96256996" lon="-0.49213816"><ele>174.4</ele><time>2022-11-13T15:07:59.0000000+00:00</time></trkpt><trkpt lat="38.96257005" lon="-0.49213104"><ele>174.6</ele><time>2022-11-13T15:08:00.0000000+00:00</time></trkpt><trkpt lat="38.96257432" lon="-0.49212182"><ele>174.6</ele><time>2022-11-13T15:08:01.0000000+00:00</time></trkpt><trkpt lat="38.96257684" lon="-0.49212107"><ele>174.8</ele><time>2022-11-13T15:08:02.0000000+00:00</time></trkpt><trkpt lat="38.96257281" lon="-0.49211084"><ele>175.0</ele><time>2022-11-13T15:08:03.0000000+00:00</time></trkpt><trkpt lat="38.96256996" lon="-0.49210279"><ele>175.2</ele><time>2022-11-13T15:08:04.0000000+00:00</time></trkpt><trkpt lat="38.96256452" lon="-0.492096"><ele>175.4</ele><time>2022-11-13T15:08:05.0000000+00:00</time></trkpt><trkpt lat="38.96256058" lon="-0.4920903"><ele>175.6</ele><time>2022-11-13T15:08:06.0000000+00:00</time></trkpt><trkpt lat="38.96255798" lon="-0.49208452"><ele>175.8</ele><time>2022-11-13T15:08:07.0000000+00:00</time></trkpt><trkpt lat="38.96255504" lon="-0.49207999"><ele>175.8</ele><time>2022-11-13T15:08:08.0000000+00:00</time></trkpt><trkpt lat="38.96255127" lon="-0.49207698"><ele>176.0</ele><time>2022-11-13T15:08:09.0000000+00:00</time></trkpt><trkpt lat="38.9625418" lon="-0.49207639"><ele>176.0</ele><time>2022-11-13T15:08:10.0000000+00:00</time></trkpt><trkpt lat="38.96253132" lon="-0.49207916"><ele>176.0</ele><time>2022-11-13T15:08:11.0000000+00:00</time></trkpt><trkpt lat="38.96252747" lon="-0.49208318"><ele>176.2</ele><time>2022-11-13T15:08:12.0000000+00:00</time></trkpt><trkpt lat="38.96252202" lon="-0.49207974"><ele>176.4</ele><time>2022-11-13T15:08:13.0000000+00:00</time></trkpt><trkpt lat="38.96251766" lon="-0.49207329"><ele>176.6</ele><time>2022-11-13T15:08:14.0000000+00:00</time></trkpt><trkpt lat="38.96251439" lon="-0.49206826"><ele>176.8</ele><time>2022-11-13T15:08:15.0000000+00:00</time></trkpt><trkpt lat="38.96251054" lon="-0.49206214"><ele>177.0</ele><time>2022-11-13T15:08:16.0000000+00:00</time></trkpt><trkpt lat="38.96250567" lon="-0.49205745"><ele>177.2</ele><time>2022-11-13T15:08:17.0000000+00:00</time></trkpt><trkpt lat="38.96251406" lon="-0.49205158"><ele>177.2</ele><time>2022-11-13T15:08:18.0000000+00:00</time></trkpt><trkpt lat="38.96251758" lon="-0.49204898"><ele>177.4</ele><time>2022-11-13T15:08:19.0000000+00:00</time></trkpt><trkpt lat="38.96251003" lon="-0.49205091"><ele>177.4</ele><time>2022-11-13T15:08:20.0000000+00:00</time></trkpt><trkpt lat="38.96250207" lon="-0.49205133"><ele>177.8</ele><time>2022-11-13T15:08:21.0000000+00:00</time></trkpt><trkpt lat="38.96249838" lon="-0.49204999"><ele>177.8</ele><time>2022-11-13T15:08:22.0000000+00:00</time></trkpt><trkpt lat="38.96249302" lon="-0.49204965"><ele>178.0</ele><time>2022-11-13T15:08:23.0000000+00:00</time></trkpt><trkpt lat="38.96248573" lon="-0.49204932"><ele>178.2</ele><time>2022-11-13T15:08:24.0000000+00:00</time></trkpt><trkpt lat="38.96247936" lon="-0.4920458"><ele>178.4</ele><time>2022-11-13T15:08:25.0000000+00:00</time></trkpt><trkpt lat="38.96246988" lon="-0.49204571"><ele>178.4</ele><time>2022-11-13T15:08:26.0000000+00:00</time></trkpt><trkpt lat="38.96246016" lon="-0.49203917"><ele>178.6</ele><time>2022-11-13T15:08:27.0000000+00:00</time></trkpt><trkpt lat="38.96245312" lon="-0.4920375"><ele>178.8</ele><time>2022-11-13T15:08:28.0000000+00:00</time></trkpt><trkpt lat="38.96244809" lon="-0.49203406"><ele>179.0</ele><time>2022-11-13T15:08:29.0000000+00:00</time></trkpt><trkpt lat="38.9624434" lon="-0.49203448"><ele>179.2</ele><time>2022-11-13T15:08:30.0000000+00:00</time></trkpt><trkpt lat="38.96243963" lon="-0.49203775"><ele>179.4</ele><time>2022-11-13T15:08:31.0000000+00:00</time></trkpt><trkpt lat="38.96243761" lon="-0.49203917"><ele>179.6</ele><time>2022-11-13T15:08:32.0000000+00:00</time></trkpt><trkpt lat="38.96243451" lon="-0.49204144"><ele>179.8</ele><time>2022-11-13T15:08:33.0000000+00:00</time></trkpt><trkpt lat="38.96242194" lon="-0.4920468"><ele>180.0</ele><time>2022-11-13T15:08:34.0000000+00:00</time></trkpt><trkpt lat="38.96241423" lon="-0.49206147"><ele>180.2</ele><time>2022-11-13T15:08:35.0000000+00:00</time></trkpt><trkpt lat="38.96241297" lon="-0.4920613"><ele>180.2</ele><time>2022-11-13T15:08:36.0000000+00:00</time></trkpt><trkpt lat="38.96241121" lon="-0.4920639"><ele>180.4</ele><time>2022-11-13T15:08:37.0000000+00:00</time></trkpt><trkpt lat="38.96240853" lon="-0.4920717"><ele>180.6</ele><time>2022-11-13T15:08:38.0000000+00:00</time></trkpt><trkpt lat="38.96240668" lon="-0.49207949"><ele>180.6</ele><time>2022-11-13T15:08:39.0000000+00:00</time></trkpt><trkpt lat="38.96240702" lon="-0.49208402"><ele>180.8</ele><time>2022-11-13T15:08:40.0000000+00:00</time></trkpt><trkpt lat="38.96240358" lon="-0.49208963"><ele>181.0</ele><time>2022-11-13T15:08:41.0000000+00:00</time></trkpt><trkpt lat="38.96239906" lon="-0.49210237"><ele>181.4</ele><time>2022-11-13T15:08:42.0000000+00:00</time></trkpt><trkpt lat="38.96240057" lon="-0.49211193"><ele>181.6</ele><time>2022-11-13T15:08:43.0000000+00:00</time></trkpt><trkpt lat="38.96240224" lon="-0.49211595"><ele>181.8</ele><time>2022-11-13T15:08:44.0000000+00:00</time></trkpt><trkpt lat="38.96240031" lon="-0.49212702"><ele>182.0</ele><time>2022-11-13T15:08:45.0000000+00:00</time></trkpt><trkpt lat="38.96240233" lon="-0.49213657"><ele>182.2</ele><time>2022-11-13T15:08:46.0000000+00:00</time></trkpt><trkpt lat="38.96240283" lon="-0.49214034"><ele>182.6</ele><time>2022-11-13T15:08:47.0000000+00:00</time></trkpt><trkpt lat="38.96240241" lon="-0.4921406"><ele>182.6</ele><time>2022-11-13T15:08:48.0000000+00:00</time></trkpt><trkpt lat="38.96240191" lon="-0.49213515"><ele>182.8</ele><time>2022-11-13T15:08:49.0000000+00:00</time></trkpt><trkpt lat="38.96240409" lon="-0.49213045"><ele>182.8</ele><time>2022-11-13T15:08:50.0000000+00:00</time></trkpt><trkpt lat="38.96240383" lon="-0.49213263"><ele>183.0</ele><time>2022-11-13T15:08:51.0000000+00:00</time></trkpt><trkpt lat="38.96240601" lon="-0.49213892"><ele>183.2</ele><time>2022-11-13T15:08:52.0000000+00:00</time></trkpt><trkpt lat="38.96241096" lon="-0.49214521"><ele>183.2</ele><time>2022-11-13T15:08:53.0000000+00:00</time></trkpt><trkpt lat="38.96242261" lon="-0.49214914"><ele>183.4</ele><time>2022-11-13T15:08:54.0000000+00:00</time></trkpt><trkpt lat="38.96242579" lon="-0.49215015"><ele>183.6</ele><time>2022-11-13T15:08:55.0000000+00:00</time></trkpt><trkpt lat="38.96242579" lon="-0.49215275"><ele>183.8</ele><time>2022-11-13T15:08:56.0000000+00:00</time></trkpt><trkpt lat="38.96242764" lon="-0.49215451"><ele>184.2</ele><time>2022-11-13T15:08:57.0000000+00:00</time></trkpt><trkpt lat="38.96242797" lon="-0.49215577"><ele>184.2</ele><time>2022-11-13T15:08:58.0000000+00:00</time></trkpt><trkpt lat="38.96242999" lon="-0.49215686"><ele>184.4</ele><time>2022-11-13T15:08:59.0000000+00:00</time></trkpt><trkpt lat="38.96241951" lon="-0.4921618"><ele>184.4</ele><time>2022-11-13T15:09:00.0000000+00:00</time></trkpt><trkpt lat="38.96241632" lon="-0.49216096"><ele>184.4</ele><time>2022-11-13T15:09:01.0000000+00:00</time></trkpt><trkpt lat="38.9624102" lon="-0.49215593"><ele>184.6</ele><time>2022-11-13T15:09:02.0000000+00:00</time></trkpt><trkpt lat="38.96241188" lon="-0.49215593"><ele>184.8</ele><time>2022-11-13T15:09:03.0000000+00:00</time></trkpt><trkpt lat="38.96240266" lon="-0.49215644"><ele>184.8</ele><time>2022-11-13T15:09:04.0000000+00:00</time></trkpt><trkpt lat="38.96240492" lon="-0.49216725"><ele>184.8</ele><time>2022-11-13T15:09:05.0000000+00:00</time></trkpt><trkpt lat="38.96240274" lon="-0.49216926"><ele>185.2</ele><time>2022-11-13T15:09:06.0000000+00:00</time></trkpt><trkpt lat="38.96240048" lon="-0.49217119"><ele>185.4</ele><time>2022-11-13T15:09:07.0000000+00:00</time></trkpt><trkpt lat="38.96239839" lon="-0.49217622"><ele>185.6</ele><time>2022-11-13T15:09:08.0000000+00:00</time></trkpt><trkpt lat="38.96239705" lon="-0.49217924"><ele>185.8</ele><time>2022-11-13T15:09:09.0000000+00:00</time></trkpt><trkpt lat="38.96239654" lon="-0.49218125"><ele>186.0</ele><time>2022-11-13T15:09:10.0000000+00:00</time></trkpt><trkpt lat="38.96239294" lon="-0.49218913"><ele>186.2</ele><time>2022-11-13T15:09:11.0000000+00:00</time></trkpt><trkpt lat="38.96239311" lon="-0.49219424"><ele>186.2</ele><time>2022-11-13T15:09:12.0000000+00:00</time></trkpt><trkpt lat="38.96239193" lon="-0.49219927"><ele>186.4</ele><time>2022-11-13T15:09:13.0000000+00:00</time></trkpt><trkpt lat="38.96239" lon="-0.49220153"><ele>186.6</ele><time>2022-11-13T15:09:14.0000000+00:00</time></trkpt><trkpt lat="38.96238858" lon="-0.49220505"><ele>186.8</ele><time>2022-11-13T15:09:15.0000000+00:00</time></trkpt><trkpt lat="38.9623885" lon="-0.49220866"><ele>186.8</ele><time>2022-11-13T15:09:16.0000000+00:00</time></trkpt><trkpt lat="38.96238766" lon="-0.49221201"><ele>187.0</ele><time>2022-11-13T15:09:17.0000000+00:00</time></trkpt><trkpt lat="38.9623895" lon="-0.49221721"><ele>187.0</ele><time>2022-11-13T15:09:18.0000000+00:00</time></trkpt><trkpt lat="38.96239193" lon="-0.49222056"><ele>187.2</ele><time>2022-11-13T15:09:19.0000000+00:00</time></trkpt><trkpt lat="38.96239906" lon="-0.49222307"><ele>187.2</ele><time>2022-11-13T15:09:20.0000000+00:00</time></trkpt><trkpt lat="38.96240182" lon="-0.49222416"><ele>187.4</ele><time>2022-11-13T15:09:21.0000000+00:00</time></trkpt><trkpt lat="38.96240266" lon="-0.49222617"><ele>187.6</ele><time>2022-11-13T15:09:22.0000000+00:00</time></trkpt><trkpt lat="38.96240342" lon="-0.49222475"><ele>187.6</ele><time>2022-11-13T15:09:23.0000000+00:00</time></trkpt><trkpt lat="38.96240333" lon="-0.4922224"><ele>187.6</ele><time>2022-11-13T15:09:24.0000000+00:00</time></trkpt><trkpt lat="38.96240367" lon="-0.49222098"><ele>187.6</ele><time>2022-11-13T15:09:25.0000000+00:00</time></trkpt><trkpt lat="38.96240425" lon="-0.49221922"><ele>187.6</ele><time>2022-11-13T15:09:26.0000000+00:00</time></trkpt><trkpt lat="38.96240484" lon="-0.49222006"><ele>187.6</ele><time>2022-11-13T15:09:27.0000000+00:00</time></trkpt><trkpt lat="38.96240593" lon="-0.49222458"><ele>187.6</ele><time>2022-11-13T15:09:28.0000000+00:00</time></trkpt><trkpt lat="38.96240668" lon="-0.49222961"><ele>187.6</ele><time>2022-11-13T15:09:29.0000000+00:00</time></trkpt><trkpt lat="38.96240853" lon="-0.49223313"><ele>187.6</ele><time>2022-11-13T15:09:30.0000000+00:00</time></trkpt><trkpt lat="38.96240836" lon="-0.49223615"><ele>187.8</ele><time>2022-11-13T15:09:31.0000000+00:00</time></trkpt><trkpt lat="38.96240668" lon="-0.49223892"><ele>187.8</ele><time>2022-11-13T15:09:32.0000000+00:00</time></trkpt><trkpt lat="38.96240819" lon="-0.49223288"><ele>187.8</ele><time>2022-11-13T15:09:33.0000000+00:00</time></trkpt><trkpt lat="38.9624092" lon="-0.4922297"><ele>187.8</ele><time>2022-11-13T15:09:34.0000000+00:00</time></trkpt><trkpt lat="38.9624097" lon="-0.49222768"><ele>187.8</ele><time>2022-11-13T15:09:35.0000000+00:00</time></trkpt><trkpt lat="38.9624097" lon="-0.4922245"><ele>187.8</ele><time>2022-11-13T15:09:36.0000000+00:00</time></trkpt><trkpt lat="38.96241062" lon="-0.49222374"><ele>187.8</ele><time>2022-11-13T15:09:37.0000000+00:00</time></trkpt><trkpt lat="38.96241062" lon="-0.49222374"><ele>187.8</ele><time>2022-11-13T15:09:38.0000000+00:00</time></trkpt><trkpt lat="38.96241062" lon="-0.49222374"><ele>187.8</ele><time>2022-11-13T15:09:39.0000000+00:00</time></trkpt><trkpt lat="38.96241062" lon="-0.49222374"><ele>187.8</ele><time>2022-11-13T15:09:40.0000000+00:00</time></trkpt><trkpt lat="38.96241062" lon="-0.49222374"><ele>187.8</ele><time>2022-11-13T15:09:41.0000000+00:00</time></trkpt><trkpt lat="38.96241062" lon="-0.49222374"><ele>187.8</ele><time>2022-11-13T15:09:42.0000000+00:00</time></trkpt><trkpt lat="38.96241062" lon="-0.49222374"><ele>187.8</ele><time>2022-11-13T15:09:43.0000000+00:00</time></trkpt><trkpt lat="38.96241062" lon="-0.49222374"><ele>187.8</ele><time>2022-11-13T15:09:44.0000000+00:00</time></trkpt><trkpt lat="38.96241062" lon="-0.49222374"><ele>187.8</ele><time>2022-11-13T15:09:45.0000000+00:00</time></trkpt><trkpt lat="38.96241062" lon="-0.49222374"><ele>187.8</ele><time>2022-11-13T15:09:46.0000000+00:00</time></trkpt><trkpt lat="38.96241062" lon="-0.49222374"><ele>187.8</ele><time>2022-11-13T15:09:47.0000000+00:00</time></trkpt><trkpt lat="38.96241062" lon="-0.49222374"><ele>187.8</ele><time>2022-11-13T15:09:48.0000000+00:00</time></trkpt><trkpt lat="38.96240979" lon="-0.49222374"><ele>187.8</ele><time>2022-11-13T15:09:49.0000000+00:00</time></trkpt><trkpt lat="38.9624097" lon="-0.49222374"><ele>187.8</ele><time>2022-11-13T15:09:50.0000000+00:00</time></trkpt><trkpt lat="38.96240945" lon="-0.49222374"><ele>187.8</ele><time>2022-11-13T15:09:51.0000000+00:00</time></trkpt><trkpt lat="38.9624092" lon="-0.49222374"><ele>187.8</ele><time>2022-11-13T15:09:52.0000000+00:00</time></trkpt><trkpt lat="38.9624092" lon="-0.49222324"><ele>187.8</ele><time>2022-11-13T15:09:53.0000000+00:00</time></trkpt><trkpt lat="38.9624092" lon="-0.49222307"><ele>187.8</ele><time>2022-11-13T15:09:54.0000000+00:00</time></trkpt><trkpt lat="38.9624092" lon="-0.49222274"><ele>187.8</ele><time>2022-11-13T15:09:55.0000000+00:00</time></trkpt><trkpt lat="38.9624092" lon="-0.49222257"><ele>187.8</ele><time>2022-11-13T15:09:56.0000000+00:00</time></trkpt><trkpt lat="38.9624092" lon="-0.49222047"><ele>187.8</ele><time>2022-11-13T15:09:57.0000000+00:00</time></trkpt><trkpt lat="38.9624092" lon="-0.49222022"><ele>187.8</ele><time>2022-11-13T15:09:58.0000000+00:00</time></trkpt><trkpt lat="38.96240937" lon="-0.49222022"><ele>187.8</ele><time>2022-11-13T15:09:59.0000000+00:00</time></trkpt><trkpt lat="38.9624097" lon="-0.49222022"><ele>187.8</ele><time>2022-11-13T15:10:00.0000000+00:00</time></trkpt><trkpt lat="38.9624097" lon="-0.49222022"><ele>187.8</ele><time>2022-11-13T15:10:01.0000000+00:00</time></trkpt><trkpt lat="38.96241012" lon="-0.49222022"><ele>187.8</ele><time>2022-11-13T15:10:02.0000000+00:00</time></trkpt><trkpt lat="38.96241054" lon="-0.49222022"><ele>187.8</ele><time>2022-11-13T15:10:03.0000000+00:00</time></trkpt><trkpt lat="38.96241104" lon="-0.49222022"><ele>187.8</ele><time>2022-11-13T15:10:04.0000000+00:00</time></trkpt><trkpt lat="38.96241138" lon="-0.49222022"><ele>187.8</ele><time>2022-11-13T15:10:05.0000000+00:00</time></trkpt><trkpt lat="38.96241155" lon="-0.49222022"><ele>187.8</ele><time>2022-11-13T15:10:06.0000000+00:00</time></trkpt><trkpt lat="38.96241155" lon="-0.49222022"><ele>187.8</ele><time>2022-11-13T15:10:07.0000000+00:00</time></trkpt><trkpt lat="38.96241155" lon="-0.49222022"><ele>187.6</ele><time>2022-11-13T15:10:08.0000000+00:00</time></trkpt><trkpt lat="38.96241264" lon="-0.49222022"><ele>187.6</ele><time>2022-11-13T15:10:09.0000000+00:00</time></trkpt><trkpt lat="38.96241448" lon="-0.49222022"><ele>187.6</ele><time>2022-11-13T15:10:10.0000000+00:00</time></trkpt><trkpt lat="38.96241641" lon="-0.49222022"><ele>187.4</ele><time>2022-11-13T15:10:11.0000000+00:00</time></trkpt><trkpt lat="38.96241674" lon="-0.49222207"><ele>187.4</ele><time>2022-11-13T15:10:12.0000000+00:00</time></trkpt><trkpt lat="38.96241859" lon="-0.49222391"><ele>187.4</ele><time>2022-11-13T15:10:13.0000000+00:00</time></trkpt><trkpt lat="38.9624201" lon="-0.49222475"><ele>187.2</ele><time>2022-11-13T15:10:14.0000000+00:00</time></trkpt><trkpt lat="38.96242135" lon="-0.49222483"><ele>187.2</ele><time>2022-11-13T15:10:15.0000000+00:00</time></trkpt><trkpt lat="38.9624216" lon="-0.49222492"><ele>187.2</ele><time>2022-11-13T15:10:16.0000000+00:00</time></trkpt><trkpt lat="38.96242186" lon="-0.49222492"><ele>187.2</ele><time>2022-11-13T15:10:17.0000000+00:00</time></trkpt><trkpt lat="38.9624232" lon="-0.49222492"><ele>187.2</ele><time>2022-11-13T15:10:18.0000000+00:00</time></trkpt><trkpt lat="38.96242546" lon="-0.49222492"><ele>187.2</ele><time>2022-11-13T15:10:19.0000000+00:00</time></trkpt><trkpt lat="38.96242688" lon="-0.49222492"><ele>187.2</ele><time>2022-11-13T15:10:20.0000000+00:00</time></trkpt><trkpt lat="38.96242948" lon="-0.49222492"><ele>187.2</ele><time>2022-11-13T15:10:21.0000000+00:00</time></trkpt><trkpt lat="38.96243082" lon="-0.49222492"><ele>187.2</ele><time>2022-11-13T15:10:22.0000000+00:00</time></trkpt><trkpt lat="38.96243158" lon="-0.49222492"><ele>187.4</ele><time>2022-11-13T15:10:23.0000000+00:00</time></trkpt><trkpt lat="38.96243183" lon="-0.49222492"><ele>187.4</ele><time>2022-11-13T15:10:24.0000000+00:00</time></trkpt><trkpt lat="38.96243191" lon="-0.49222492"><ele>187.4</ele><time>2022-11-13T15:10:25.0000000+00:00</time></trkpt><trkpt lat="38.962432" lon="-0.49222492"><ele>187.4</ele><time>2022-11-13T15:10:26.0000000+00:00</time></trkpt><trkpt lat="38.96243267" lon="-0.49222492"><ele>187.4</ele><time>2022-11-13T15:10:27.0000000+00:00</time></trkpt><trkpt lat="38.962433" lon="-0.49222441"><ele>187.4</ele><time>2022-11-13T15:10:28.0000000+00:00</time></trkpt><trkpt lat="38.96243367" lon="-0.49222416"><ele>187.4</ele><time>2022-11-13T15:10:29.0000000+00:00</time></trkpt><trkpt lat="38.96243434" lon="-0.4922224"><ele>187.4</ele><time>2022-11-13T15:10:30.0000000+00:00</time></trkpt><trkpt lat="38.96243585" lon="-0.49222014"><ele>187.4</ele><time>2022-11-13T15:10:31.0000000+00:00</time></trkpt><trkpt lat="38.96243627" lon="-0.49221779"><ele>187.6</ele><time>2022-11-13T15:10:32.0000000+00:00</time></trkpt><trkpt lat="38.96243703" lon="-0.49221545"><ele>187.6</ele><time>2022-11-13T15:10:33.0000000+00:00</time></trkpt><trkpt lat="38.96243719" lon="-0.49221352"><ele>187.6</ele><time>2022-11-13T15:10:34.0000000+00:00</time></trkpt><trkpt lat="38.96243921" lon="-0.49221285"><ele>187.6</ele><time>2022-11-13T15:10:35.0000000+00:00</time></trkpt><trkpt lat="38.96243971" lon="-0.49221251"><ele>187.6</ele><time>2022-11-13T15:10:36.0000000+00:00</time></trkpt><trkpt lat="38.96243988" lon="-0.49221159"><ele>187.6</ele><time>2022-11-13T15:10:37.0000000+00:00</time></trkpt><trkpt lat="38.96243996" lon="-0.49221084"><ele>187.6</ele><time>2022-11-13T15:10:38.0000000+00:00</time></trkpt><trkpt lat="38.96243996" lon="-0.49221058"><ele>187.8</ele><time>2022-11-13T15:10:39.0000000+00:00</time></trkpt><trkpt lat="38.96243996" lon="-0.4922105"><ele>187.8</ele><time>2022-11-13T15:10:40.0000000+00:00</time></trkpt><trkpt lat="38.96243996" lon="-0.4922105"><ele>188.0</ele><time>2022-11-13T15:10:41.0000000+00:00</time></trkpt><trkpt lat="38.96243996" lon="-0.4922105"><ele>188.0</ele><time>2022-11-13T15:10:42.0000000+00:00</time></trkpt><trkpt lat="38.96243996" lon="-0.4922105"><ele>188.2</ele><time>2022-11-13T15:10:43.0000000+00:00</time></trkpt><trkpt lat="38.96243996" lon="-0.4922105"><ele>188.4</ele><time>2022-11-13T15:10:44.0000000+00:00</time></trkpt><trkpt lat="38.96243996" lon="-0.4922105"><ele>188.4</ele><time>2022-11-13T15:10:45.0000000+00:00</time></trkpt><trkpt lat="38.96243745" lon="-0.49221427"><ele>188.6</ele><time>2022-11-13T15:10:46.0000000+00:00</time></trkpt><trkpt lat="38.96242965" lon="-0.49222081"><ele>188.8</ele><time>2022-11-13T15:10:47.0000000+00:00</time></trkpt><trkpt lat="38.96241808" lon="-0.49222685"><ele>189.0</ele><time>2022-11-13T15:10:48.0000000+00:00</time></trkpt><trkpt lat="38.96240518" lon="-0.4922302"><ele>189.2</ele><time>2022-11-13T15:10:49.0000000+00:00</time></trkpt><trkpt lat="38.96239855" lon="-0.49223129"><ele>189.4</ele><time>2022-11-13T15:10:50.0000000+00:00</time></trkpt><trkpt lat="38.96239202" lon="-0.49222894"><ele>189.6</ele><time>2022-11-13T15:10:51.0000000+00:00</time></trkpt><trkpt lat="38.96238179" lon="-0.4922281"><ele>189.8</ele><time>2022-11-13T15:10:52.0000000+00:00</time></trkpt><trkpt lat="38.96236913" lon="-0.49222634"><ele>190.0</ele><time>2022-11-13T15:10:53.0000000+00:00</time></trkpt><trkpt lat="38.96235706" lon="-0.49222508"><ele>190.0</ele><time>2022-11-13T15:10:54.0000000+00:00</time></trkpt><trkpt lat="38.96234348" lon="-0.49222835"><ele>190.2</ele><time>2022-11-13T15:10:55.0000000+00:00</time></trkpt><trkpt lat="38.96233502" lon="-0.49222685"><ele>190.4</ele><time>2022-11-13T15:10:56.0000000+00:00</time></trkpt><trkpt lat="38.96232957" lon="-0.49222366"><ele>190.4</ele><time>2022-11-13T15:10:57.0000000+00:00</time></trkpt><trkpt lat="38.96232622" lon="-0.49222299"><ele>190.4</ele><time>2022-11-13T15:10:58.0000000+00:00</time></trkpt><trkpt lat="38.96232446" lon="-0.49222165"><ele>190.6</ele><time>2022-11-13T15:10:59.0000000+00:00</time></trkpt><trkpt lat="38.96232186" lon="-0.49222022"><ele>190.6</ele><time>2022-11-13T15:11:00.0000000+00:00</time></trkpt><trkpt lat="38.96231893" lon="-0.4922183"><ele>190.8</ele><time>2022-11-13T15:11:01.0000000+00:00</time></trkpt><trkpt lat="38.96231507" lon="-0.49221645"><ele>191.2</ele><time>2022-11-13T15:11:02.0000000+00:00</time></trkpt><trkpt lat="38.96230426" lon="-0.49222031"><ele>191.2</ele><time>2022-11-13T15:11:03.0000000+00:00</time></trkpt><trkpt lat="38.96230166" lon="-0.49222416"><ele>191.4</ele><time>2022-11-13T15:11:04.0000000+00:00</time></trkpt><trkpt lat="38.96230158" lon="-0.4922276"><ele>191.4</ele><time>2022-11-13T15:11:05.0000000+00:00</time></trkpt><trkpt lat="38.96229956" lon="-0.49222928"><ele>191.8</ele><time>2022-11-13T15:11:06.0000000+00:00</time></trkpt><trkpt lat="38.96229043" lon="-0.49222592"><ele>192.0</ele><time>2022-11-13T15:11:07.0000000+00:00</time></trkpt><trkpt lat="38.96227685" lon="-0.49222584"><ele>192.2</ele><time>2022-11-13T15:11:08.0000000+00:00</time></trkpt><trkpt lat="38.96226587" lon="-0.49222416"><ele>192.4</ele><time>2022-11-13T15:11:09.0000000+00:00</time></trkpt><trkpt lat="38.96226402" lon="-0.49222316"><ele>192.8</ele><time>2022-11-13T15:11:10.0000000+00:00</time></trkpt><trkpt lat="38.96225916" lon="-0.49222098"><ele>193.0</ele><time>2022-11-13T15:11:11.0000000+00:00</time></trkpt><trkpt lat="38.96225338" lon="-0.49221746"><ele>193.2</ele><time>2022-11-13T15:11:12.0000000+00:00</time></trkpt><trkpt lat="38.96224919" lon="-0.49221545"><ele>193.4</ele><time>2022-11-13T15:11:13.0000000+00:00</time></trkpt><trkpt lat="38.96224173" lon="-0.49220815"><ele>193.4</ele><time>2022-11-13T15:11:14.0000000+00:00</time></trkpt><trkpt lat="38.9622341" lon="-0.49219969"><ele>193.6</ele><time>2022-11-13T15:11:15.0000000+00:00</time></trkpt><trkpt lat="38.96222865" lon="-0.49219566"><ele>193.6</ele><time>2022-11-13T15:11:16.0000000+00:00</time></trkpt><trkpt lat="38.96222354" lon="-0.49219499"><ele>193.8</ele><time>2022-11-13T15:11:17.0000000+00:00</time></trkpt><trkpt lat="38.96221968" lon="-0.49219407"><ele>193.8</ele><time>2022-11-13T15:11:18.0000000+00:00</time></trkpt><trkpt lat="38.96221273" lon="-0.49219483"><ele>194.0</ele><time>2022-11-13T15:11:19.0000000+00:00</time></trkpt><trkpt lat="38.96221197" lon="-0.49220136"><ele>194.0</ele><time>2022-11-13T15:11:20.0000000+00:00</time></trkpt><trkpt lat="38.96220937" lon="-0.49220346"><ele>194.2</ele><time>2022-11-13T15:11:21.0000000+00:00</time></trkpt><trkpt lat="38.96220828" lon="-0.49220572"><ele>194.2</ele><time>2022-11-13T15:11:22.0000000+00:00</time></trkpt><trkpt lat="38.96220812" lon="-0.49220656"><ele>194.4</ele><time>2022-11-13T15:11:23.0000000+00:00</time></trkpt><trkpt lat="38.9622082" lon="-0.4922048"><ele>194.4</ele><time>2022-11-13T15:11:24.0000000+00:00</time></trkpt><trkpt lat="38.96220753" lon="-0.49219885"><ele>194.4</ele><time>2022-11-13T15:11:25.0000000+00:00</time></trkpt><trkpt lat="38.96220879" lon="-0.49219625"><ele>194.4</ele><time>2022-11-13T15:11:26.0000000+00:00</time></trkpt><trkpt lat="38.96220896" lon="-0.49219483"><ele>194.4</ele><time>2022-11-13T15:11:27.0000000+00:00</time></trkpt><trkpt lat="38.96220409" lon="-0.49219256"><ele>194.6</ele><time>2022-11-13T15:11:28.0000000+00:00</time></trkpt><trkpt lat="38.96219932" lon="-0.49219483"><ele>194.6</ele><time>2022-11-13T15:11:29.0000000+00:00</time></trkpt><trkpt lat="38.96219672" lon="-0.49219684"><ele>194.6</ele><time>2022-11-13T15:11:30.0000000+00:00</time></trkpt><trkpt lat="38.96219445" lon="-0.49219835"><ele>194.6</ele><time>2022-11-13T15:11:31.0000000+00:00</time></trkpt><trkpt lat="38.96219806" lon="-0.49219918"><ele>194.8</ele><time>2022-11-13T15:11:32.0000000+00:00</time></trkpt><trkpt lat="38.96220183" lon="-0.49220095"><ele>195.0</ele><time>2022-11-13T15:11:33.0000000+00:00</time></trkpt><trkpt lat="38.96220443" lon="-0.49220095"><ele>195.2</ele><time>2022-11-13T15:11:34.0000000+00:00</time></trkpt><trkpt lat="38.96220409" lon="-0.49220782"><ele>195.4</ele><time>2022-11-13T15:11:35.0000000+00:00</time></trkpt><trkpt lat="38.96220359" lon="-0.49221218"><ele>195.4</ele><time>2022-11-13T15:11:36.0000000+00:00</time></trkpt><trkpt lat="38.96219764" lon="-0.4922131"><ele>195.4</ele><time>2022-11-13T15:11:37.0000000+00:00</time></trkpt><trkpt lat="38.96219496" lon="-0.49221385"><ele>195.4</ele><time>2022-11-13T15:11:38.0000000+00:00</time></trkpt><trkpt lat="38.96220007" lon="-0.4922141"><ele>195.4</ele><time>2022-11-13T15:11:39.0000000+00:00</time></trkpt><trkpt lat="38.96220979" lon="-0.49220958"><ele>195.4</ele><time>2022-11-13T15:11:40.0000000+00:00</time></trkpt><trkpt lat="38.96220963" lon="-0.49220497"><ele>195.4</ele><time>2022-11-13T15:11:41.0000000+00:00</time></trkpt><trkpt lat="38.96220845" lon="-0.49221511"><ele>195.4</ele><time>2022-11-13T15:11:42.0000000+00:00</time></trkpt><trkpt lat="38.96220627" lon="-0.49221804"><ele>195.6</ele><time>2022-11-13T15:11:43.0000000+00:00</time></trkpt><trkpt lat="38.96220032" lon="-0.4922281"><ele>195.6</ele><time>2022-11-13T15:11:44.0000000+00:00</time></trkpt><trkpt lat="38.96219177" lon="-0.49223389"><ele>195.8</ele><time>2022-11-13T15:11:45.0000000+00:00</time></trkpt><trkpt lat="38.96218356" lon="-0.49224336"><ele>195.8</ele><time>2022-11-13T15:11:46.0000000+00:00</time></trkpt><trkpt lat="38.96218096" lon="-0.49225476"><ele>196.0</ele><time>2022-11-13T15:11:47.0000000+00:00</time></trkpt><trkpt lat="38.96218021" lon="-0.49226322"><ele>196.2</ele><time>2022-11-13T15:11:48.0000000+00:00</time></trkpt><trkpt lat="38.96218238" lon="-0.49227311"><ele>196.4</ele><time>2022-11-13T15:11:49.0000000+00:00</time></trkpt><trkpt lat="38.96218255" lon="-0.49227881"><ele>196.8</ele><time>2022-11-13T15:11:50.0000000+00:00</time></trkpt><trkpt lat="38.96218255" lon="-0.49228284"><ele>196.8</ele><time>2022-11-13T15:11:51.0000000+00:00</time></trkpt><trkpt lat="38.96219051" lon="-0.492283"><ele>197.0</ele><time>2022-11-13T15:11:52.0000000+00:00</time></trkpt><trkpt lat="38.96219152" lon="-0.49228837"><ele>197.0</ele><time>2022-11-13T15:11:53.0000000+00:00</time></trkpt><trkpt lat="38.96219404" lon="-0.49229264"><ele>197.2</ele><time>2022-11-13T15:11:54.0000000+00:00</time></trkpt><trkpt lat="38.9621911" lon="-0.49229784"><ele>197.4</ele><time>2022-11-13T15:11:55.0000000+00:00</time></trkpt><trkpt lat="38.96218683" lon="-0.49230496"><ele>197.6</ele><time>2022-11-13T15:11:56.0000000+00:00</time></trkpt><trkpt lat="38.96218414" lon="-0.49231192"><ele>197.8</ele><time>2022-11-13T15:11:57.0000000+00:00</time></trkpt><trkpt lat="38.96218197" lon="-0.49232332"><ele>198.0</ele><time>2022-11-13T15:11:58.0000000+00:00</time></trkpt><trkpt lat="38.96217987" lon="-0.49233615"><ele>198.2</ele><time>2022-11-13T15:11:59.0000000+00:00</time></trkpt><trkpt lat="38.96216755" lon="-0.49234503"><ele>198.4</ele><time>2022-11-13T15:12:00.0000000+00:00</time></trkpt><trkpt lat="38.96215967" lon="-0.49234746"><ele>198.6</ele><time>2022-11-13T15:12:01.0000000+00:00</time></trkpt><trkpt lat="38.9621528" lon="-0.49234578"><ele>198.8</ele><time>2022-11-13T15:12:02.0000000+00:00</time></trkpt><trkpt lat="38.96214441" lon="-0.49234243"><ele>199.0</ele><time>2022-11-13T15:12:03.0000000+00:00</time></trkpt><trkpt lat="38.96213788" lon="-0.49234671"><ele>199.4</ele><time>2022-11-13T15:12:04.0000000+00:00</time></trkpt><trkpt lat="38.96213394" lon="-0.49235442"><ele>199.6</ele><time>2022-11-13T15:12:05.0000000+00:00</time></trkpt><trkpt lat="38.96213251" lon="-0.49235903"><ele>199.8</ele><time>2022-11-13T15:12:06.0000000+00:00</time></trkpt><trkpt lat="38.96213134" lon="-0.49236422"><ele>200.0</ele><time>2022-11-13T15:12:07.0000000+00:00</time></trkpt><trkpt lat="38.96213813" lon="-0.49236959"><ele>200.2</ele><time>2022-11-13T15:12:08.0000000+00:00</time></trkpt><trkpt lat="38.96214131" lon="-0.49238258"><ele>200.4</ele><time>2022-11-13T15:12:09.0000000+00:00</time></trkpt><trkpt lat="38.9621471" lon="-0.49239172"><ele>200.6</ele><time>2022-11-13T15:12:10.0000000+00:00</time></trkpt><trkpt lat="38.96214919" lon="-0.49239968"><ele>200.6</ele><time>2022-11-13T15:12:11.0000000+00:00</time></trkpt><trkpt lat="38.96214911" lon="-0.49240496"><ele>201.0</ele><time>2022-11-13T15:12:12.0000000+00:00</time></trkpt><trkpt lat="38.96214576" lon="-0.49240781"><ele>201.2</ele><time>2022-11-13T15:12:13.0000000+00:00</time></trkpt><trkpt lat="38.96214425" lon="-0.492411"><ele>201.4</ele><time>2022-11-13T15:12:14.0000000+00:00</time></trkpt><trkpt lat="38.96214383" lon="-0.49241309"><ele>201.4</ele><time>2022-11-13T15:12:15.0000000+00:00</time></trkpt><trkpt lat="38.96214534" lon="-0.4924151"><ele>201.6</ele><time>2022-11-13T15:12:16.0000000+00:00</time></trkpt><trkpt lat="38.96214031" lon="-0.49241485"><ele>201.8</ele><time>2022-11-13T15:12:17.0000000+00:00</time></trkpt><trkpt lat="38.96214249" lon="-0.49242047"><ele>202.0</ele><time>2022-11-13T15:12:18.0000000+00:00</time></trkpt><trkpt lat="38.96214282" lon="-0.49242147"><ele>202.0</ele><time>2022-11-13T15:12:19.0000000+00:00</time></trkpt><trkpt lat="38.96214416" lon="-0.49242097"><ele>202.4</ele><time>2022-11-13T15:12:20.0000000+00:00</time></trkpt><trkpt lat="38.96214978" lon="-0.49241921"><ele>202.6</ele><time>2022-11-13T15:12:21.0000000+00:00</time></trkpt><trkpt lat="38.96215296" lon="-0.4924172"><ele>202.6</ele><time>2022-11-13T15:12:22.0000000+00:00</time></trkpt><trkpt lat="38.96215615" lon="-0.49241519"><ele>202.8</ele><time>2022-11-13T15:12:23.0000000+00:00</time></trkpt><trkpt lat="38.96215883" lon="-0.49241317"><ele>203.0</ele><time>2022-11-13T15:12:24.0000000+00:00</time></trkpt><trkpt lat="38.96216109" lon="-0.492412"><ele>203.0</ele><time>2022-11-13T15:12:25.0000000+00:00</time></trkpt><trkpt lat="38.96216059" lon="-0.49241443"><ele>203.0</ele><time>2022-11-13T15:12:26.0000000+00:00</time></trkpt><trkpt lat="38.96216059" lon="-0.49241443"><ele>203.0</ele><time>2022-11-13T15:12:27.0000000+00:00</time></trkpt><trkpt lat="38.96216059" lon="-0.49241443"><ele>203.0</ele><time>2022-11-13T15:12:28.0000000+00:00</time></trkpt><trkpt lat="38.96216059" lon="-0.49241443"><ele>203.0</ele><time>2022-11-13T15:12:29.0000000+00:00</time></trkpt><trkpt lat="38.96216059" lon="-0.49241443"><ele>203.0</ele><time>2022-11-13T15:12:30.0000000+00:00</time></trkpt><trkpt lat="38.96216059" lon="-0.49241443"><ele>203.0</ele><time>2022-11-13T15:12:31.0000000+00:00</time></trkpt><trkpt lat="38.96216059" lon="-0.49241443"><ele>203.0</ele><time>2022-11-13T15:12:32.0000000+00:00</time></trkpt><trkpt lat="38.96216059" lon="-0.49241443"><ele>203.2</ele><time>2022-11-13T15:12:33.0000000+00:00</time></trkpt><trkpt lat="38.96216059" lon="-0.49241443"><ele>203.2</ele><time>2022-11-13T15:12:34.0000000+00:00</time></trkpt><trkpt lat="38.96215892" lon="-0.49241443"><ele>203.4</ele><time>2022-11-13T15:12:35.0000000+00:00</time></trkpt><trkpt lat="38.9621585" lon="-0.49241519"><ele>203.6</ele><time>2022-11-13T15:12:36.0000000+00:00</time></trkpt><trkpt lat="38.9621585" lon="-0.49241711"><ele>203.8</ele><time>2022-11-13T15:12:37.0000000+00:00</time></trkpt><trkpt lat="38.9621585" lon="-0.49241904"><ele>203.8</ele><time>2022-11-13T15:12:38.0000000+00:00</time></trkpt><trkpt lat="38.9621585" lon="-0.49241921"><ele>204.0</ele><time>2022-11-13T15:12:39.0000000+00:00</time></trkpt><trkpt lat="38.9621585" lon="-0.49242038"><ele>204.2</ele><time>2022-11-13T15:12:40.0000000+00:00</time></trkpt><trkpt lat="38.9621585" lon="-0.49242097"><ele>204.4</ele><time>2022-11-13T15:12:41.0000000+00:00</time></trkpt><trkpt lat="38.9621585" lon="-0.49242147"><ele>204.6</ele><time>2022-11-13T15:12:42.0000000+00:00</time></trkpt><trkpt lat="38.9621585" lon="-0.49242323"><ele>204.8</ele><time>2022-11-13T15:12:43.0000000+00:00</time></trkpt><trkpt lat="38.9621585" lon="-0.49242927"><ele>205.0</ele><time>2022-11-13T15:12:44.0000000+00:00</time></trkpt><trkpt lat="38.9621585" lon="-0.49243597"><ele>205.2</ele><time>2022-11-13T15:12:45.0000000+00:00</time></trkpt><trkpt lat="38.9621585" lon="-0.49244092"><ele>205.4</ele><time>2022-11-13T15:12:46.0000000+00:00</time></trkpt><trkpt lat="38.9621585" lon="-0.49244712"><ele>205.6</ele><time>2022-11-13T15:12:47.0000000+00:00</time></trkpt><trkpt lat="38.96215883" lon="-0.49244779"><ele>205.6</ele><time>2022-11-13T15:12:48.0000000+00:00</time></trkpt><trkpt lat="38.96215992" lon="-0.49244838"><ele>205.8</ele><time>2022-11-13T15:12:49.0000000+00:00</time></trkpt><trkpt lat="38.96216051" lon="-0.49245014"><ele>205.8</ele><time>2022-11-13T15:12:50.0000000+00:00</time></trkpt><trkpt lat="38.96216101" lon="-0.492455"><ele>205.8</ele><time>2022-11-13T15:12:51.0000000+00:00</time></trkpt><trkpt lat="38.96216394" lon="-0.49246221"><ele>206.0</ele><time>2022-11-13T15:12:52.0000000+00:00</time></trkpt><trkpt lat="38.9621699" lon="-0.49246506"><ele>206.0</ele><time>2022-11-13T15:12:53.0000000+00:00</time></trkpt><trkpt lat="38.96217149" lon="-0.49246732"><ele>206.0</ele><time>2022-11-13T15:12:54.0000000+00:00</time></trkpt><trkpt lat="38.96217392" lon="-0.49247051"><ele>206.2</ele><time>2022-11-13T15:12:55.0000000+00:00</time></trkpt><trkpt lat="38.96217434" lon="-0.49247403"><ele>206.2</ele><time>2022-11-13T15:12:56.0000000+00:00</time></trkpt><trkpt lat="38.96217467" lon="-0.49248023"><ele>206.4</ele><time>2022-11-13T15:12:57.0000000+00:00</time></trkpt><trkpt lat="38.96217476" lon="-0.4924866"><ele>206.6</ele><time>2022-11-13T15:12:58.0000000+00:00</time></trkpt><trkpt lat="38.96217618" lon="-0.49249314"><ele>206.8</ele><time>2022-11-13T15:12:59.0000000+00:00</time></trkpt><trkpt lat="38.96217643" lon="-0.49249716"><ele>207.0</ele><time>2022-11-13T15:13:00.0000000+00:00</time></trkpt><trkpt lat="38.96217652" lon="-0.4925032"><ele>207.2</ele><time>2022-11-13T15:13:01.0000000+00:00</time></trkpt><trkpt lat="38.96217652" lon="-0.49250898"><ele>207.4</ele><time>2022-11-13T15:13:02.0000000+00:00</time></trkpt><trkpt lat="38.96217652" lon="-0.49251451"><ele>207.6</ele><time>2022-11-13T15:13:03.0000000+00:00</time></trkpt><trkpt lat="38.96217652" lon="-0.49251627"><ele>207.8</ele><time>2022-11-13T15:13:04.0000000+00:00</time></trkpt><trkpt lat="38.96217652" lon="-0.49251728"><ele>208.0</ele><time>2022-11-13T15:13:05.0000000+00:00</time></trkpt><trkpt lat="38.96217652" lon="-0.49251887"><ele>208.2</ele><time>2022-11-13T15:13:06.0000000+00:00</time></trkpt><trkpt lat="38.96217652" lon="-0.49252834"><ele>208.2</ele><time>2022-11-13T15:13:07.0000000+00:00</time></trkpt><trkpt lat="38.96217652" lon="-0.49253547"><ele>208.2</ele><time>2022-11-13T15:13:08.0000000+00:00</time></trkpt><trkpt lat="38.96217652" lon="-0.4925415"><ele>208.4</ele><time>2022-11-13T15:13:09.0000000+00:00</time></trkpt><trkpt lat="38.96217652" lon="-0.49254645"><ele>208.8</ele><time>2022-11-13T15:13:10.0000000+00:00</time></trkpt><trkpt lat="38.96217601" lon="-0.4925503"><ele>208.8</ele><time>2022-11-13T15:13:11.0000000+00:00</time></trkpt><trkpt lat="38.96217509" lon="-0.4925534"><ele>209.0</ele><time>2022-11-13T15:13:12.0000000+00:00</time></trkpt><trkpt lat="38.96217568" lon="-0.49255986"><ele>209.0</ele><time>2022-11-13T15:13:13.0000000+00:00</time></trkpt><trkpt lat="38.96217627" lon="-0.49256464"><ele>209.2</ele><time>2022-11-13T15:13:14.0000000+00:00</time></trkpt><trkpt lat="38.96217652" lon="-0.49257143"><ele>209.2</ele><time>2022-11-13T15:13:15.0000000+00:00</time></trkpt><trkpt lat="38.9621766" lon="-0.49257821"><ele>209.4</ele><time>2022-11-13T15:13:16.0000000+00:00</time></trkpt><trkpt lat="38.9621766" lon="-0.49258224"><ele>209.6</ele><time>2022-11-13T15:13:17.0000000+00:00</time></trkpt><trkpt lat="38.9621766" lon="-0.49258417"><ele>209.8</ele><time>2022-11-13T15:13:18.0000000+00:00</time></trkpt><trkpt lat="38.96217652" lon="-0.49258576"><ele>210.0</ele><time>2022-11-13T15:13:19.0000000+00:00</time></trkpt><trkpt lat="38.96217601" lon="-0.49258769"><ele>210.2</ele><time>2022-11-13T15:13:20.0000000+00:00</time></trkpt><trkpt lat="38.96217593" lon="-0.49259347"><ele>210.4</ele><time>2022-11-13T15:13:21.0000000+00:00</time></trkpt><trkpt lat="38.96217409" lon="-0.49259531"><ele>210.6</ele><time>2022-11-13T15:13:22.0000000+00:00</time></trkpt><trkpt lat="38.96217308" lon="-0.49259749"><ele>210.8</ele><time>2022-11-13T15:13:23.0000000+00:00</time></trkpt><trkpt lat="38.96217258" lon="-0.49260051"><ele>211.0</ele><time>2022-11-13T15:13:24.0000000+00:00</time></trkpt><trkpt lat="38.96216998" lon="-0.49260965"><ele>211.0</ele><time>2022-11-13T15:13:25.0000000+00:00</time></trkpt><trkpt lat="38.96216855" lon="-0.49262163"><ele>211.4</ele><time>2022-11-13T15:13:26.0000000+00:00</time></trkpt><trkpt lat="38.96216797" lon="-0.49263169"><ele>211.6</ele><time>2022-11-13T15:13:27.0000000+00:00</time></trkpt><trkpt lat="38.96216763" lon="-0.49263563"><ele>211.8</ele><time>2022-11-13T15:13:28.0000000+00:00</time></trkpt><trkpt lat="38.96216696" lon="-0.49263873"><ele>211.8</ele><time>2022-11-13T15:13:29.0000000+00:00</time></trkpt><trkpt lat="38.96216663" lon="-0.49264485"><ele>212.2</ele><time>2022-11-13T15:13:30.0000000+00:00</time></trkpt><trkpt lat="38.96216654" lon="-0.49265382"><ele>212.2</ele><time>2022-11-13T15:13:31.0000000+00:00</time></trkpt><trkpt lat="38.96216654" lon="-0.49266002"><ele>212.4</ele><time>2022-11-13T15:13:32.0000000+00:00</time></trkpt><trkpt lat="38.96216654" lon="-0.49266933"><ele>212.6</ele><time>2022-11-13T15:13:33.0000000+00:00</time></trkpt><trkpt lat="38.96216654" lon="-0.49267905"><ele>212.8</ele><time>2022-11-13T15:13:34.0000000+00:00</time></trkpt><trkpt lat="38.96216646" lon="-0.49268584"><ele>213.0</ele><time>2022-11-13T15:13:35.0000000+00:00</time></trkpt><trkpt lat="38.96216436" lon="-0.49269103"><ele>213.0</ele><time>2022-11-13T15:13:36.0000000+00:00</time></trkpt><trkpt lat="38.96216252" lon="-0.49269456"><ele>213.2</ele><time>2022-11-13T15:13:37.0000000+00:00</time></trkpt><trkpt lat="38.96216109" lon="-0.49269883"><ele>213.4</ele><time>2022-11-13T15:13:38.0000000+00:00</time></trkpt><trkpt lat="38.96215908" lon="-0.49270277"><ele>213.6</ele><time>2022-11-13T15:13:39.0000000+00:00</time></trkpt><trkpt lat="38.96215615" lon="-0.4927083"><ele>213.8</ele><time>2022-11-13T15:13:40.0000000+00:00</time></trkpt><trkpt lat="38.96215481" lon="-0.49271107"><ele>214.0</ele><time>2022-11-13T15:13:41.0000000+00:00</time></trkpt><trkpt lat="38.96214953" lon="-0.4927187"><ele>214.0</ele><time>2022-11-13T15:13:42.0000000+00:00</time></trkpt><trkpt lat="38.96213721" lon="-0.49273554"><ele>214.2</ele><time>2022-11-13T15:13:43.0000000+00:00</time></trkpt><trkpt lat="38.96212396" lon="-0.49275608"><ele>214.4</ele><time>2022-11-13T15:13:44.0000000+00:00</time></trkpt><trkpt lat="38.96211692" lon="-0.49277142"><ele>214.6</ele><time>2022-11-13T15:13:45.0000000+00:00</time></trkpt><trkpt lat="38.96210753" lon="-0.49278483"><ele>214.8</ele><time>2022-11-13T15:13:46.0000000+00:00</time></trkpt><trkpt lat="38.96209706" lon="-0.49279824"><ele>215.0</ele><time>2022-11-13T15:13:47.0000000+00:00</time></trkpt><trkpt lat="38.96208834" lon="-0.49280662"><ele>215.2</ele><time>2022-11-13T15:13:48.0000000+00:00</time></trkpt><trkpt lat="38.96207736" lon="-0.49281626"><ele>215.4</ele><time>2022-11-13T15:13:49.0000000+00:00</time></trkpt><trkpt lat="38.96207208" lon="-0.49282347"><ele>215.8</ele><time>2022-11-13T15:13:50.0000000+00:00</time></trkpt><trkpt lat="38.96206546" lon="-0.49283135"><ele>216.0</ele><time>2022-11-13T15:13:51.0000000+00:00</time></trkpt><trkpt lat="38.96206185" lon="-0.49284015"><ele>216.2</ele><time>2022-11-13T15:13:52.0000000+00:00</time></trkpt><trkpt lat="38.96205624" lon="-0.49285339"><ele>216.4</ele><time>2022-11-13T15:13:53.0000000+00:00</time></trkpt><trkpt lat="38.96204509" lon="-0.49287602"><ele>216.6</ele><time>2022-11-13T15:13:54.0000000+00:00</time></trkpt><trkpt lat="38.96204299" lon="-0.49287929"><ele>216.8</ele><time>2022-11-13T15:13:55.0000000+00:00</time></trkpt><trkpt lat="38.96203629" lon="-0.4928948"><ele>216.8</ele><time>2022-11-13T15:13:56.0000000+00:00</time></trkpt><trkpt lat="38.96203612" lon="-0.49290771"><ele>217.0</ele><time>2022-11-13T15:13:57.0000000+00:00</time></trkpt><trkpt lat="38.96203386" lon="-0.49292288"><ele>217.0</ele><time>2022-11-13T15:13:58.0000000+00:00</time></trkpt><trkpt lat="38.96203193" lon="-0.4929378"><ele>217.2</ele><time>2022-11-13T15:13:59.0000000+00:00</time></trkpt><trkpt lat="38.96202958" lon="-0.49294928"><ele>217.2</ele><time>2022-11-13T15:14:00.0000000+00:00</time></trkpt><trkpt lat="38.96202916" lon="-0.49295414"><ele>217.4</ele><time>2022-11-13T15:14:01.0000000+00:00</time></trkpt><trkpt lat="38.96202263" lon="-0.49296076"><ele>217.6</ele><time>2022-11-13T15:14:02.0000000+00:00</time></trkpt><trkpt lat="38.96202539" lon="-0.49296781"><ele>217.6</ele><time>2022-11-13T15:14:03.0000000+00:00</time></trkpt><trkpt lat="38.9620264" lon="-0.49297141"><ele>217.8</ele><time>2022-11-13T15:14:04.0000000+00:00</time></trkpt><trkpt lat="38.9620274" lon="-0.49298398"><ele>218.0</ele><time>2022-11-13T15:14:05.0000000+00:00</time></trkpt><trkpt lat="38.96202874" lon="-0.49299002"><ele>218.0</ele><time>2022-11-13T15:14:06.0000000+00:00</time></trkpt><trkpt lat="38.96201994" lon="-0.49300485"><ele>218.2</ele><time>2022-11-13T15:14:07.0000000+00:00</time></trkpt><trkpt lat="38.96201382" lon="-0.49302028"><ele>218.2</ele><time>2022-11-13T15:14:08.0000000+00:00</time></trkpt><trkpt lat="38.96201424" lon="-0.49303436"><ele>218.4</ele><time>2022-11-13T15:14:09.0000000+00:00</time></trkpt><trkpt lat="38.96201408" lon="-0.49304031"><ele>218.6</ele><time>2022-11-13T15:14:10.0000000+00:00</time></trkpt><trkpt lat="38.96202011" lon="-0.4930471"><ele>218.8</ele><time>2022-11-13T15:14:11.0000000+00:00</time></trkpt><trkpt lat="38.96202338" lon="-0.49305162"><ele>219.0</ele><time>2022-11-13T15:14:12.0000000+00:00</time></trkpt><trkpt lat="38.96202162" lon="-0.49306478"><ele>219.0</ele><time>2022-11-13T15:14:13.0000000+00:00</time></trkpt><trkpt lat="38.96202078" lon="-0.49306789"><ele>219.0</ele><time>2022-11-13T15:14:14.0000000+00:00</time></trkpt><trkpt lat="38.96202145" lon="-0.49306822"><ele>219.2</ele><time>2022-11-13T15:14:15.0000000+00:00</time></trkpt><trkpt lat="38.96201391" lon="-0.49308172"><ele>219.2</ele><time>2022-11-13T15:14:16.0000000+00:00</time></trkpt><trkpt lat="38.96201416" lon="-0.49309052"><ele>219.4</ele><time>2022-11-13T15:14:17.0000000+00:00</time></trkpt><trkpt lat="38.96201533" lon="-0.49309588"><ele>219.6</ele><time>2022-11-13T15:14:18.0000000+00:00</time></trkpt><trkpt lat="38.96201307" lon="-0.49310938"><ele>219.8</ele><time>2022-11-13T15:14:19.0000000+00:00</time></trkpt><trkpt lat="38.96200737" lon="-0.49313058"><ele>220.0</ele><time>2022-11-13T15:14:20.0000000+00:00</time></trkpt><trkpt lat="38.96201005" lon="-0.4931507"><ele>220.2</ele><time>2022-11-13T15:14:21.0000000+00:00</time></trkpt><trkpt lat="38.96201357" lon="-0.49317509"><ele>220.2</ele><time>2022-11-13T15:14:22.0000000+00:00</time></trkpt><trkpt lat="38.96201366" lon="-0.49318171"><ele>220.4</ele><time>2022-11-13T15:14:23.0000000+00:00</time></trkpt><trkpt lat="38.96199748" lon="-0.49319311"><ele>220.6</ele><time>2022-11-13T15:14:24.0000000+00:00</time></trkpt><trkpt lat="38.96198985" lon="-0.49319739"><ele>220.8</ele><time>2022-11-13T15:14:25.0000000+00:00</time></trkpt><trkpt lat="38.96198273" lon="-0.49320644"><ele>221.0</ele><time>2022-11-13T15:14:26.0000000+00:00</time></trkpt><trkpt lat="38.96197233" lon="-0.4932253"><ele>221.0</ele><time>2022-11-13T15:14:27.0000000+00:00</time></trkpt><trkpt lat="38.96196513" lon="-0.49323041"><ele>221.0</ele><time>2022-11-13T15:14:28.0000000+00:00</time></trkpt><trkpt lat="38.96196093" lon="-0.49323284"><ele>221.2</ele><time>2022-11-13T15:14:29.0000000+00:00</time></trkpt><trkpt lat="38.9619528" lon="-0.4932455"><ele>221.2</ele><time>2022-11-13T15:14:30.0000000+00:00</time></trkpt><trkpt lat="38.96194643" lon="-0.49326427"><ele>221.4</ele><time>2022-11-13T15:14:31.0000000+00:00</time></trkpt><trkpt lat="38.96194744" lon="-0.49328037"><ele>221.8</ele><time>2022-11-13T15:14:32.0000000+00:00</time></trkpt><trkpt lat="38.96194493" lon="-0.49329503"><ele>222.0</ele><time>2022-11-13T15:14:33.0000000+00:00</time></trkpt><trkpt lat="38.96194451" lon="-0.49330099"><ele>222.0</ele><time>2022-11-13T15:14:34.0000000+00:00</time></trkpt><trkpt lat="38.96194467" lon="-0.49330467"><ele>222.2</ele><time>2022-11-13T15:14:35.0000000+00:00</time></trkpt><trkpt lat="38.96193755" lon="-0.49331809"><ele>222.2</ele><time>2022-11-13T15:14:36.0000000+00:00</time></trkpt><trkpt lat="38.9619373" lon="-0.49332186"><ele>222.4</ele><time>2022-11-13T15:14:37.0000000+00:00</time></trkpt><trkpt lat="38.96192531" lon="-0.49333384"><ele>222.4</ele><time>2022-11-13T15:14:38.0000000+00:00</time></trkpt><trkpt lat="38.96192422" lon="-0.49333535"><ele>222.6</ele><time>2022-11-13T15:14:39.0000000+00:00</time></trkpt><trkpt lat="38.96192766" lon="-0.49333803"><ele>222.8</ele><time>2022-11-13T15:14:40.0000000+00:00</time></trkpt><trkpt lat="38.96192841" lon="-0.49333728"><ele>222.8</ele><time>2022-11-13T15:14:41.0000000+00:00</time></trkpt><trkpt lat="38.96193436" lon="-0.49333938"><ele>222.8</ele><time>2022-11-13T15:14:42.0000000+00:00</time></trkpt><trkpt lat="38.96193604" lon="-0.49333979"><ele>222.8</ele><time>2022-11-13T15:14:43.0000000+00:00</time></trkpt><trkpt lat="38.96193445" lon="-0.49334013"><ele>222.8</ele><time>2022-11-13T15:14:44.0000000+00:00</time></trkpt><trkpt lat="38.96193235" lon="-0.49334072"><ele>222.8</ele><time>2022-11-13T15:14:45.0000000+00:00</time></trkpt><trkpt lat="38.96194132" lon="-0.49334516"><ele>223.0</ele><time>2022-11-13T15:14:46.0000000+00:00</time></trkpt><trkpt lat="38.96194409" lon="-0.49334365"><ele>223.0</ele><time>2022-11-13T15:14:47.0000000+00:00</time></trkpt><trkpt lat="38.96194518" lon="-0.4933439"><ele>223.0</ele><time>2022-11-13T15:14:48.0000000+00:00</time></trkpt><trkpt lat="38.9619461" lon="-0.49333938"><ele>223.0</ele><time>2022-11-13T15:14:49.0000000+00:00</time></trkpt><trkpt lat="38.96194727" lon="-0.49333678"><ele>223.0</ele><time>2022-11-13T15:14:50.0000000+00:00</time></trkpt><trkpt lat="38.96194945" lon="-0.49333753"><ele>223.0</ele><time>2022-11-13T15:14:51.0000000+00:00</time></trkpt><trkpt lat="38.96195247" lon="-0.49333485"><ele>223.0</ele><time>2022-11-13T15:14:52.0000000+00:00</time></trkpt><trkpt lat="38.96195138" lon="-0.49333443"><ele>223.2</ele><time>2022-11-13T15:14:53.0000000+00:00</time></trkpt><trkpt lat="38.96194727" lon="-0.49333619"><ele>223.2</ele><time>2022-11-13T15:14:54.0000000+00:00</time></trkpt><trkpt lat="38.96194124" lon="-0.49334223"><ele>223.2</ele><time>2022-11-13T15:14:55.0000000+00:00</time></trkpt><trkpt lat="38.96193914" lon="-0.49334256"><ele>223.4</ele><time>2022-11-13T15:14:56.0000000+00:00</time></trkpt><trkpt lat="38.96193981" lon="-0.49334516"><ele>223.6</ele><time>2022-11-13T15:14:57.0000000+00:00</time></trkpt><trkpt lat="38.96193956" lon="-0.49334776"><ele>223.6</ele><time>2022-11-13T15:14:58.0000000+00:00</time></trkpt><trkpt lat="38.96194241" lon="-0.49334776"><ele>223.8</ele><time>2022-11-13T15:14:59.0000000+00:00</time></trkpt><trkpt lat="38.96193604" lon="-0.49335161"><ele>224.0</ele><time>2022-11-13T15:15:00.0000000+00:00</time></trkpt><trkpt lat="38.96193361" lon="-0.49335388"><ele>224.0</ele><time>2022-11-13T15:15:01.0000000+00:00</time></trkpt><trkpt lat="38.96192481" lon="-0.49335857"><ele>224.2</ele><time>2022-11-13T15:15:02.0000000+00:00</time></trkpt><trkpt lat="38.96191659" lon="-0.49336729"><ele>224.4</ele><time>2022-11-13T15:15:03.0000000+00:00</time></trkpt><trkpt lat="38.96191131" lon="-0.49337508"><ele>224.4</ele><time>2022-11-13T15:15:04.0000000+00:00</time></trkpt><trkpt lat="38.96191081" lon="-0.49338455"><ele>224.6</ele><time>2022-11-13T15:15:05.0000000+00:00</time></trkpt><trkpt lat="38.96190587" lon="-0.49339771"><ele>224.6</ele><time>2022-11-13T15:15:06.0000000+00:00</time></trkpt><trkpt lat="38.96190385" lon="-0.49341029"><ele>224.8</ele><time>2022-11-13T15:15:07.0000000+00:00</time></trkpt><trkpt lat="38.96190058" lon="-0.49342487"><ele>225.0</ele><time>2022-11-13T15:15:08.0000000+00:00</time></trkpt><trkpt lat="38.96190017" lon="-0.49343878"><ele>225.0</ele><time>2022-11-13T15:15:09.0000000+00:00</time></trkpt><trkpt lat="38.96190193" lon="-0.49345161"><ele>225.2</ele><time>2022-11-13T15:15:10.0000000+00:00</time></trkpt><trkpt lat="38.96189891" lon="-0.49346527"><ele>225.2</ele><time>2022-11-13T15:15:11.0000000+00:00</time></trkpt><trkpt lat="38.96189673" lon="-0.49347189"><ele>225.2</ele><time>2022-11-13T15:15:12.0000000+00:00</time></trkpt><trkpt lat="38.96189497" lon="-0.49348145"><ele>225.4</ele><time>2022-11-13T15:15:13.0000000+00:00</time></trkpt><trkpt lat="38.9618912" lon="-0.49349008"><ele>225.6</ele><time>2022-11-13T15:15:14.0000000+00:00</time></trkpt><trkpt lat="38.96189639" lon="-0.49349897"><ele>225.8</ele><time>2022-11-13T15:15:15.0000000+00:00</time></trkpt><trkpt lat="38.9618974" lon="-0.49350349"><ele>226.0</ele><time>2022-11-13T15:15:16.0000000+00:00</time></trkpt><trkpt lat="38.96189933" lon="-0.49350735"><ele>226.2</ele><time>2022-11-13T15:15:17.0000000+00:00</time></trkpt><trkpt lat="38.96189924" lon="-0.49351607"><ele>226.2</ele><time>2022-11-13T15:15:18.0000000+00:00</time></trkpt><trkpt lat="38.96190788" lon="-0.49352923"><ele>226.6</ele><time>2022-11-13T15:15:19.0000000+00:00</time></trkpt><trkpt lat="38.96191819" lon="-0.4935413"><ele>226.8</ele><time>2022-11-13T15:15:20.0000000+00:00</time></trkpt><trkpt lat="38.96192229" lon="-0.49355689"><ele>227.0</ele><time>2022-11-13T15:15:21.0000000+00:00</time></trkpt><trkpt lat="38.96191634" lon="-0.4935708"><ele>227.0</ele><time>2022-11-13T15:15:22.0000000+00:00</time></trkpt><trkpt lat="38.96191115" lon="-0.49358505"><ele>227.2</ele><time>2022-11-13T15:15:23.0000000+00:00</time></trkpt><trkpt lat="38.96190838" lon="-0.49359175"><ele>227.4</ele><time>2022-11-13T15:15:24.0000000+00:00</time></trkpt><trkpt lat="38.96190545" lon="-0.49360449"><ele>227.6</ele><time>2022-11-13T15:15:25.0000000+00:00</time></trkpt><trkpt lat="38.96190075" lon="-0.49361715"><ele>227.8</ele><time>2022-11-13T15:15:26.0000000+00:00</time></trkpt><trkpt lat="38.96190142" lon="-0.4936226"><ele>228.0</ele><time>2022-11-13T15:15:27.0000000+00:00</time></trkpt><trkpt lat="38.96189908" lon="-0.49363006"><ele>228.2</ele><time>2022-11-13T15:15:28.0000000+00:00</time></trkpt><trkpt lat="38.96190268" lon="-0.49363643"><ele>228.4</ele><time>2022-11-13T15:15:29.0000000+00:00</time></trkpt><trkpt lat="38.96190863" lon="-0.49363752"><ele>228.6</ele><time>2022-11-13T15:15:30.0000000+00:00</time></trkpt><trkpt lat="38.96191425" lon="-0.49363945"><ele>228.8</ele><time>2022-11-13T15:15:31.0000000+00:00</time></trkpt><trkpt lat="38.96190603" lon="-0.49365043"><ele>229.0</ele><time>2022-11-13T15:15:32.0000000+00:00</time></trkpt><trkpt lat="38.9619005" lon="-0.4936594"><ele>229.0</ele><time>2022-11-13T15:15:33.0000000+00:00</time></trkpt><trkpt lat="38.96189774" lon="-0.49366853"><ele>229.2</ele><time>2022-11-13T15:15:34.0000000+00:00</time></trkpt><trkpt lat="38.96188625" lon="-0.49368077"><ele>229.2</ele><time>2022-11-13T15:15:35.0000000+00:00</time></trkpt><trkpt lat="38.96188449" lon="-0.4936822"><ele>229.4</ele><time>2022-11-13T15:15:36.0000000+00:00</time></trkpt><trkpt lat="38.96188147" lon="-0.49368463"><ele>229.6</ele><time>2022-11-13T15:15:37.0000000+00:00</time></trkpt><trkpt lat="38.96187829" lon="-0.49368597"><ele>229.8</ele><time>2022-11-13T15:15:38.0000000+00:00</time></trkpt><trkpt lat="38.9618824" lon="-0.49369494"><ele>230.0</ele><time>2022-11-13T15:15:39.0000000+00:00</time></trkpt><trkpt lat="38.96188525" lon="-0.49370265"><ele>230.2</ele><time>2022-11-13T15:15:40.0000000+00:00</time></trkpt><trkpt lat="38.96189597" lon="-0.49370759"><ele>230.2</ele><time>2022-11-13T15:15:41.0000000+00:00</time></trkpt><trkpt lat="38.96190804" lon="-0.49370944"><ele>230.2</ele><time>2022-11-13T15:15:42.0000000+00:00</time></trkpt><trkpt lat="38.96192079" lon="-0.49370491"><ele>230.4</ele><time>2022-11-13T15:15:43.0000000+00:00</time></trkpt><trkpt lat="38.96191115" lon="-0.49371036"><ele>230.4</ele><time>2022-11-13T15:15:44.0000000+00:00</time></trkpt><trkpt lat="38.9619083" lon="-0.49371723"><ele>230.4</ele><time>2022-11-13T15:15:45.0000000+00:00</time></trkpt><trkpt lat="38.96189933" lon="-0.49372318"><ele>230.4</ele><time>2022-11-13T15:15:46.0000000+00:00</time></trkpt><trkpt lat="38.96190042" lon="-0.49372687"><ele>230.4</ele><time>2022-11-13T15:15:47.0000000+00:00</time></trkpt><trkpt lat="38.96190226" lon="-0.49373576"><ele>230.4</ele><time>2022-11-13T15:15:48.0000000+00:00</time></trkpt><trkpt lat="38.96189254" lon="-0.49375889"><ele>230.8</ele><time>2022-11-13T15:15:49.0000000+00:00</time></trkpt><trkpt lat="38.96188692" lon="-0.49377859"><ele>231.0</ele><time>2022-11-13T15:15:50.0000000+00:00</time></trkpt><trkpt lat="38.96189371" lon="-0.49378613"><ele>231.2</ele><time>2022-11-13T15:15:51.0000000+00:00</time></trkpt><trkpt lat="38.96189807" lon="-0.49379057"><ele>231.2</ele><time>2022-11-13T15:15:52.0000000+00:00</time></trkpt><trkpt lat="38.96190637" lon="-0.49379611"><ele>231.4</ele><time>2022-11-13T15:15:53.0000000+00:00</time></trkpt><trkpt lat="38.9619171" lon="-0.49379937"><ele>231.4</ele><time>2022-11-13T15:15:54.0000000+00:00</time></trkpt><trkpt lat="38.96192213" lon="-0.49379954"><ele>231.4</ele><time>2022-11-13T15:15:55.0000000+00:00</time></trkpt><trkpt lat="38.96192439" lon="-0.49379795"><ele>231.4</ele><time>2022-11-13T15:15:56.0000000+00:00</time></trkpt><trkpt lat="38.96191936" lon="-0.49380021"><ele>231.4</ele><time>2022-11-13T15:15:57.0000000+00:00</time></trkpt><trkpt lat="38.9619181" lon="-0.49380968"><ele>231.4</ele><time>2022-11-13T15:15:58.0000000+00:00</time></trkpt><trkpt lat="38.96191726" lon="-0.49382008"><ele>231.6</ele><time>2022-11-13T15:15:59.0000000+00:00</time></trkpt><trkpt lat="38.96190846" lon="-0.49383877"><ele>231.6</ele><time>2022-11-13T15:16:00.0000000+00:00</time></trkpt><trkpt lat="38.96189304" lon="-0.49386165"><ele>231.6</ele><time>2022-11-13T15:16:01.0000000+00:00</time></trkpt><trkpt lat="38.96187821" lon="-0.49387707"><ele>231.6</ele><time>2022-11-13T15:16:02.0000000+00:00</time></trkpt><trkpt lat="38.96186722" lon="-0.49388537"><ele>231.8</ele><time>2022-11-13T15:16:03.0000000+00:00</time></trkpt><trkpt lat="38.96185348" lon="-0.49389082"><ele>231.8</ele><time>2022-11-13T15:16:04.0000000+00:00</time></trkpt><trkpt lat="38.96185247" lon="-0.49389434"><ele>232.0</ele><time>2022-11-13T15:16:05.0000000+00:00</time></trkpt><trkpt lat="38.96185239" lon="-0.49389937"><ele>232.4</ele><time>2022-11-13T15:16:06.0000000+00:00</time></trkpt><trkpt lat="38.96184996" lon="-0.49391069"><ele>232.6</ele><time>2022-11-13T15:16:07.0000000+00:00</time></trkpt><trkpt lat="38.96185356" lon="-0.49392485"><ele>232.6</ele><time>2022-11-13T15:16:08.0000000+00:00</time></trkpt><trkpt lat="38.96185717" lon="-0.49393332"><ele>232.8</ele><time>2022-11-13T15:16:09.0000000+00:00</time></trkpt><trkpt lat="38.96186614" lon="-0.49394321"><ele>233.0</ele><time>2022-11-13T15:16:10.0000000+00:00</time></trkpt><trkpt lat="38.96186681" lon="-0.49395201"><ele>233.2</ele><time>2022-11-13T15:16:11.0000000+00:00</time></trkpt><trkpt lat="38.96186714" lon="-0.49395888"><ele>233.4</ele><time>2022-11-13T15:16:12.0000000+00:00</time></trkpt><trkpt lat="38.96186865" lon="-0.49396634"><ele>233.4</ele><time>2022-11-13T15:16:13.0000000+00:00</time></trkpt><trkpt lat="38.96187217" lon="-0.49397321"><ele>233.8</ele><time>2022-11-13T15:16:14.0000000+00:00</time></trkpt><trkpt lat="38.96188114" lon="-0.49397958"><ele>234.0</ele><time>2022-11-13T15:16:15.0000000+00:00</time></trkpt><trkpt lat="38.96188198" lon="-0.49398319"><ele>234.2</ele><time>2022-11-13T15:16:16.0000000+00:00</time></trkpt><trkpt lat="38.96188793" lon="-0.49399551"><ele>234.4</ele><time>2022-11-13T15:16:17.0000000+00:00</time></trkpt><trkpt lat="38.96189187" lon="-0.49399928"><ele>234.4</ele><time>2022-11-13T15:16:18.0000000+00:00</time></trkpt><trkpt lat="38.96188625" lon="-0.49400523"><ele>234.6</ele><time>2022-11-13T15:16:19.0000000+00:00</time></trkpt><trkpt lat="38.96188751" lon="-0.49400892"><ele>234.6</ele><time>2022-11-13T15:16:20.0000000+00:00</time></trkpt><trkpt lat="38.96188684" lon="-0.49401194"><ele>234.8</ele><time>2022-11-13T15:16:21.0000000+00:00</time></trkpt><trkpt lat="38.96188047" lon="-0.49401177"><ele>235.0</ele><time>2022-11-13T15:16:22.0000000+00:00</time></trkpt><trkpt lat="38.96187427" lon="-0.49401479"><ele>235.2</ele><time>2022-11-13T15:16:23.0000000+00:00</time></trkpt><trkpt lat="38.961872" lon="-0.49401915"><ele>235.4</ele><time>2022-11-13T15:16:24.0000000+00:00</time></trkpt><trkpt lat="38.96186907" lon="-0.49402527"><ele>235.4</ele><time>2022-11-13T15:16:25.0000000+00:00</time></trkpt><trkpt lat="38.96187653" lon="-0.49403113"><ele>235.6</ele><time>2022-11-13T15:16:26.0000000+00:00</time></trkpt><trkpt lat="38.96187686" lon="-0.49403071"><ele>235.8</ele><time>2022-11-13T15:16:27.0000000+00:00</time></trkpt><trkpt lat="38.96187343" lon="-0.49402862"><ele>235.8</ele><time>2022-11-13T15:16:28.0000000+00:00</time></trkpt><trkpt lat="38.9618658" lon="-0.49402619"><ele>236.0</ele><time>2022-11-13T15:16:29.0000000+00:00</time></trkpt><trkpt lat="38.9618544" lon="-0.49402367"><ele>236.2</ele><time>2022-11-13T15:16:30.0000000+00:00</time></trkpt><trkpt lat="38.96185247" lon="-0.49402393"><ele>236.4</ele><time>2022-11-13T15:16:31.0000000+00:00</time></trkpt><trkpt lat="38.96185046" lon="-0.49402644"><ele>236.8</ele><time>2022-11-13T15:16:32.0000000+00:00</time></trkpt><trkpt lat="38.9618487" lon="-0.49402828"><ele>237.0</ele><time>2022-11-13T15:16:33.0000000+00:00</time></trkpt><trkpt lat="38.96184803" lon="-0.49404337"><ele>237.2</ele><time>2022-11-13T15:16:34.0000000+00:00</time></trkpt><trkpt lat="38.96184577" lon="-0.49405611"><ele>237.4</ele><time>2022-11-13T15:16:35.0000000+00:00</time></trkpt><trkpt lat="38.96184585" lon="-0.49406072"><ele>237.6</ele><time>2022-11-13T15:16:36.0000000+00:00</time></trkpt><trkpt lat="38.96184392" lon="-0.49406324"><ele>237.6</ele><time>2022-11-13T15:16:37.0000000+00:00</time></trkpt><trkpt lat="38.96183739" lon="-0.49407195"><ele>237.8</ele><time>2022-11-13T15:16:38.0000000+00:00</time></trkpt><trkpt lat="38.96183143" lon="-0.49407765"><ele>238.0</ele><time>2022-11-13T15:16:39.0000000+00:00</time></trkpt><trkpt lat="38.96182506" lon="-0.49408184"><ele>238.2</ele><time>2022-11-13T15:16:40.0000000+00:00</time></trkpt><trkpt lat="38.9618223" lon="-0.49408888"><ele>238.2</ele><time>2022-11-13T15:16:41.0000000+00:00</time></trkpt><trkpt lat="38.96181911" lon="-0.49409827"><ele>238.4</ele><time>2022-11-13T15:16:42.0000000+00:00</time></trkpt><trkpt lat="38.96181962" lon="-0.49410582"><ele>238.6</ele><time>2022-11-13T15:16:43.0000000+00:00</time></trkpt><trkpt lat="38.96182121" lon="-0.49411487"><ele>238.8</ele><time>2022-11-13T15:16:44.0000000+00:00</time></trkpt><trkpt lat="38.96182272" lon="-0.49412526"><ele>238.8</ele><time>2022-11-13T15:16:45.0000000+00:00</time></trkpt><trkpt lat="38.96181853" lon="-0.49413205"><ele>239.0</ele><time>2022-11-13T15:16:46.0000000+00:00</time></trkpt><trkpt lat="38.96181459" lon="-0.49413608"><ele>239.0</ele><time>2022-11-13T15:16:47.0000000+00:00</time></trkpt><trkpt lat="38.96181333" lon="-0.49413892"><ele>239.2</ele><time>2022-11-13T15:16:48.0000000+00:00</time></trkpt><trkpt lat="38.9618109" lon="-0.4941427"><ele>239.6</ele><time>2022-11-13T15:16:49.0000000+00:00</time></trkpt><trkpt lat="38.96180922" lon="-0.49414739"><ele>239.6</ele><time>2022-11-13T15:16:50.0000000+00:00</time></trkpt><trkpt lat="38.96180847" lon="-0.49414915"><ele>239.8</ele><time>2022-11-13T15:16:51.0000000+00:00</time></trkpt><trkpt lat="38.96180654" lon="-0.49415024"><ele>240.0</ele><time>2022-11-13T15:16:52.0000000+00:00</time></trkpt><trkpt lat="38.9618057" lon="-0.4941525"><ele>240.0</ele><time>2022-11-13T15:16:53.0000000+00:00</time></trkpt><trkpt lat="38.9618047" lon="-0.49415661"><ele>240.2</ele><time>2022-11-13T15:16:54.0000000+00:00</time></trkpt><trkpt lat="38.96180361" lon="-0.49415904"><ele>240.4</ele><time>2022-11-13T15:16:55.0000000+00:00</time></trkpt><trkpt lat="38.96180872" lon="-0.49416323"><ele>240.6</ele><time>2022-11-13T15:16:56.0000000+00:00</time></trkpt><trkpt lat="38.96180897" lon="-0.49416407"><ele>240.8</ele><time>2022-11-13T15:16:57.0000000+00:00</time></trkpt><trkpt lat="38.96180495" lon="-0.49417002"><ele>241.0</ele><time>2022-11-13T15:16:58.0000000+00:00</time></trkpt><trkpt lat="38.96180017" lon="-0.49417706"><ele>241.2</ele><time>2022-11-13T15:16:59.0000000+00:00</time></trkpt><trkpt lat="38.96179874" lon="-0.49417941"><ele>241.2</ele><time>2022-11-13T15:17:00.0000000+00:00</time></trkpt><trkpt lat="38.96179673" lon="-0.49418486"><ele>241.4</ele><time>2022-11-13T15:17:01.0000000+00:00</time></trkpt><trkpt lat="38.96179631" lon="-0.49418251"><ele>241.6</ele><time>2022-11-13T15:17:02.0000000+00:00</time></trkpt><trkpt lat="38.96179405" lon="-0.49418368"><ele>241.6</ele><time>2022-11-13T15:17:03.0000000+00:00</time></trkpt><trkpt lat="38.96179296" lon="-0.4941893"><ele>241.8</ele><time>2022-11-13T15:17:04.0000000+00:00</time></trkpt><trkpt lat="38.96179246" lon="-0.49419609"><ele>242.0</ele><time>2022-11-13T15:17:05.0000000+00:00</time></trkpt><trkpt lat="38.96179128" lon="-0.4941976"><ele>242.0</ele><time>2022-11-13T15:17:06.0000000+00:00</time></trkpt><trkpt lat="38.96179053" lon="-0.49419617"><ele>242.0</ele><time>2022-11-13T15:17:07.0000000+00:00</time></trkpt><trkpt lat="38.96178575" lon="-0.49419081"><ele>242.2</ele><time>2022-11-13T15:17:08.0000000+00:00</time></trkpt><trkpt lat="38.96178257" lon="-0.49418905"><ele>242.2</ele><time>2022-11-13T15:17:09.0000000+00:00</time></trkpt><trkpt lat="38.96178089" lon="-0.49418922"><ele>242.2</ele><time>2022-11-13T15:17:10.0000000+00:00</time></trkpt><trkpt lat="38.96177972" lon="-0.49419207"><ele>242.2</ele><time>2022-11-13T15:17:11.0000000+00:00</time></trkpt><trkpt lat="38.96177846" lon="-0.49420095"><ele>242.2</ele><time>2022-11-13T15:17:12.0000000+00:00</time></trkpt><trkpt lat="38.96177695" lon="-0.49420531"><ele>242.2</ele><time>2022-11-13T15:17:13.0000000+00:00</time></trkpt><trkpt lat="38.96177611" lon="-0.49421428"><ele>242.2</ele><time>2022-11-13T15:17:14.0000000+00:00</time></trkpt><trkpt lat="38.96177268" lon="-0.49422165"><ele>242.2</ele><time>2022-11-13T15:17:15.0000000+00:00</time></trkpt><trkpt lat="38.96177192" lon="-0.49422761"><ele>242.4</ele><time>2022-11-13T15:17:16.0000000+00:00</time></trkpt><trkpt lat="38.96177033" lon="-0.49423406"><ele>242.4</ele><time>2022-11-13T15:17:17.0000000+00:00</time></trkpt><trkpt lat="38.96177058" lon="-0.49424253"><ele>242.4</ele><time>2022-11-13T15:17:18.0000000+00:00</time></trkpt><trkpt lat="38.96177284" lon="-0.49425384"><ele>242.6</ele><time>2022-11-13T15:17:19.0000000+00:00</time></trkpt><trkpt lat="38.96178014" lon="-0.49426784"><ele>242.6</ele><time>2022-11-13T15:17:20.0000000+00:00</time></trkpt><trkpt lat="38.9617876" lon="-0.49428544"><ele>242.8</ele><time>2022-11-13T15:17:21.0000000+00:00</time></trkpt><trkpt lat="38.96179288" lon="-0.49430044"><ele>242.8</ele><time>2022-11-13T15:17:22.0000000+00:00</time></trkpt><trkpt lat="38.96179698" lon="-0.4943136"><ele>242.8</ele><time>2022-11-13T15:17:23.0000000+00:00</time></trkpt><trkpt lat="38.96179615" lon="-0.49432651"><ele>243.0</ele><time>2022-11-13T15:17:24.0000000+00:00</time></trkpt><trkpt lat="38.96179623" lon="-0.49433447"><ele>243.0</ele><time>2022-11-13T15:17:25.0000000+00:00</time></trkpt><trkpt lat="38.96179682" lon="-0.49434068"><ele>243.2</ele><time>2022-11-13T15:17:26.0000000+00:00</time></trkpt><trkpt lat="38.96179489" lon="-0.4943411"><ele>243.4</ele><time>2022-11-13T15:17:27.0000000+00:00</time></trkpt><trkpt lat="38.96179564" lon="-0.49434286"><ele>243.6</ele><time>2022-11-13T15:17:28.0000000+00:00</time></trkpt><trkpt lat="38.96179707" lon="-0.49434579"><ele>243.8</ele><time>2022-11-13T15:17:29.0000000+00:00</time></trkpt><trkpt lat="38.96179531" lon="-0.49434889"><ele>244.0</ele><time>2022-11-13T15:17:30.0000000+00:00</time></trkpt><trkpt lat="38.96179338" lon="-0.4943556"><ele>244.2</ele><time>2022-11-13T15:17:31.0000000+00:00</time></trkpt><trkpt lat="38.96179321" lon="-0.49435903"><ele>244.4</ele><time>2022-11-13T15:17:32.0000000+00:00</time></trkpt><trkpt lat="38.96179288" lon="-0.4943675"><ele>244.6</ele><time>2022-11-13T15:17:33.0000000+00:00</time></trkpt><trkpt lat="38.96178617" lon="-0.49437705"><ele>244.8</ele><time>2022-11-13T15:17:34.0000000+00:00</time></trkpt><trkpt lat="38.96178081" lon="-0.49438728"><ele>245.0</ele><time>2022-11-13T15:17:35.0000000+00:00</time></trkpt><trkpt lat="38.96177377" lon="-0.49440044"><ele>245.0</ele><time>2022-11-13T15:17:36.0000000+00:00</time></trkpt><trkpt lat="38.96176346" lon="-0.4944162"><ele>245.2</ele><time>2022-11-13T15:17:37.0000000+00:00</time></trkpt><trkpt lat="38.96176388" lon="-0.49442248"><ele>245.4</ele><time>2022-11-13T15:17:38.0000000+00:00</time></trkpt><trkpt lat="38.96176455" lon="-0.49443204"><ele>245.6</ele><time>2022-11-13T15:17:39.0000000+00:00</time></trkpt><trkpt lat="38.96176891" lon="-0.4944457"><ele>245.8</ele><time>2022-11-13T15:17:40.0000000+00:00</time></trkpt><trkpt lat="38.96177595" lon="-0.49446297"><ele>246.0</ele><time>2022-11-13T15:17:41.0000000+00:00</time></trkpt><trkpt lat="38.96178047" lon="-0.49447806"><ele>246.0</ele><time>2022-11-13T15:17:42.0000000+00:00</time></trkpt><trkpt lat="38.96178064" lon="-0.49448828"><ele>246.2</ele><time>2022-11-13T15:17:43.0000000+00:00</time></trkpt><trkpt lat="38.96178072" lon="-0.49449675"><ele>246.4</ele><time>2022-11-13T15:17:44.0000000+00:00</time></trkpt><trkpt lat="38.96178022" lon="-0.49449859"><ele>246.6</ele><time>2022-11-13T15:17:45.0000000+00:00</time></trkpt><trkpt lat="38.96177905" lon="-0.49450228"><ele>246.8</ele><time>2022-11-13T15:17:46.0000000+00:00</time></trkpt><trkpt lat="38.96178064" lon="-0.49450689"><ele>247.0</ele><time>2022-11-13T15:17:47.0000000+00:00</time></trkpt><trkpt lat="38.96178039" lon="-0.49451536"><ele>247.2</ele><time>2022-11-13T15:17:48.0000000+00:00</time></trkpt><trkpt lat="38.96177519" lon="-0.49452483"><ele>247.2</ele><time>2022-11-13T15:17:49.0000000+00:00</time></trkpt><trkpt lat="38.96176874" lon="-0.49452944"><ele>247.4</ele><time>2022-11-13T15:17:50.0000000+00:00</time></trkpt><trkpt lat="38.96176874" lon="-0.49453061"><ele>247.6</ele><time>2022-11-13T15:17:51.0000000+00:00</time></trkpt><trkpt lat="38.96176882" lon="-0.49453296"><ele>247.8</ele><time>2022-11-13T15:17:52.0000000+00:00</time></trkpt><trkpt lat="38.96175759" lon="-0.49454008"><ele>248.0</ele><time>2022-11-13T15:17:53.0000000+00:00</time></trkpt><trkpt lat="38.96174217" lon="-0.49454528"><ele>248.2</ele><time>2022-11-13T15:17:54.0000000+00:00</time></trkpt><trkpt lat="38.96173446" lon="-0.49455173"><ele>248.4</ele><time>2022-11-13T15:17:55.0000000+00:00</time></trkpt><trkpt lat="38.96173228" lon="-0.49455944"><ele>248.6</ele><time>2022-11-13T15:17:56.0000000+00:00</time></trkpt><trkpt lat="38.96173521" lon="-0.4945628"><ele>249.0</ele><time>2022-11-13T15:17:57.0000000+00:00</time></trkpt><trkpt lat="38.96174007" lon="-0.49457219"><ele>249.2</ele><time>2022-11-13T15:17:58.0000000+00:00</time></trkpt><trkpt lat="38.96174678" lon="-0.49457629"><ele>249.4</ele><time>2022-11-13T15:17:59.0000000+00:00</time></trkpt><trkpt lat="38.96174778" lon="-0.49457939"><ele>249.6</ele><time>2022-11-13T15:18:00.0000000+00:00</time></trkpt><trkpt lat="38.96174803" lon="-0.49458317"><ele>249.6</ele><time>2022-11-13T15:18:01.0000000+00:00</time></trkpt><trkpt lat="38.96174904" lon="-0.49458694"><ele>249.8</ele><time>2022-11-13T15:18:02.0000000+00:00</time></trkpt><trkpt lat="38.96175038" lon="-0.49459113"><ele>250.0</ele><time>2022-11-13T15:18:03.0000000+00:00</time></trkpt><trkpt lat="38.96177167" lon="-0.49458493"><ele>250.0</ele><time>2022-11-13T15:18:04.0000000+00:00</time></trkpt><trkpt lat="38.96178818" lon="-0.49458216"><ele>250.2</ele><time>2022-11-13T15:18:05.0000000+00:00</time></trkpt><trkpt lat="38.96179807" lon="-0.49458618"><ele>250.2</ele><time>2022-11-13T15:18:06.0000000+00:00</time></trkpt><trkpt lat="38.96179958" lon="-0.4945975"><ele>250.4</ele><time>2022-11-13T15:18:07.0000000+00:00</time></trkpt><trkpt lat="38.96179883" lon="-0.49461133"><ele>250.4</ele><time>2022-11-13T15:18:08.0000000+00:00</time></trkpt><trkpt lat="38.96180109" lon="-0.4946151"><ele>250.4</ele><time>2022-11-13T15:18:09.0000000+00:00</time></trkpt><trkpt lat="38.96179833" lon="-0.49463111"><ele>250.6</ele><time>2022-11-13T15:18:10.0000000+00:00</time></trkpt><trkpt lat="38.96179782" lon="-0.49464938"><ele>250.6</ele><time>2022-11-13T15:18:11.0000000+00:00</time></trkpt><trkpt lat="38.96179933" lon="-0.4946664"><ele>250.8</ele><time>2022-11-13T15:18:12.0000000+00:00</time></trkpt><trkpt lat="38.96179925" lon="-0.49468408"><ele>250.8</ele><time>2022-11-13T15:18:13.0000000+00:00</time></trkpt><trkpt lat="38.96179891" lon="-0.49469976"><ele>251.0</ele><time>2022-11-13T15:18:14.0000000+00:00</time></trkpt><trkpt lat="38.96179732" lon="-0.49471434"><ele>251.0</ele><time>2022-11-13T15:18:15.0000000+00:00</time></trkpt><trkpt lat="38.9617938" lon="-0.49473035"><ele>251.2</ele><time>2022-11-13T15:18:16.0000000+00:00</time></trkpt><trkpt lat="38.96178651" lon="-0.49474527"><ele>251.4</ele><time>2022-11-13T15:18:17.0000000+00:00</time></trkpt><trkpt lat="38.96178307" lon="-0.49475198"><ele>251.4</ele><time>2022-11-13T15:18:18.0000000+00:00</time></trkpt><trkpt lat="38.96178064" lon="-0.49475759"><ele>251.6</ele><time>2022-11-13T15:18:19.0000000+00:00</time></trkpt><trkpt lat="38.96177905" lon="-0.49476187"><ele>251.6</ele><time>2022-11-13T15:18:20.0000000+00:00</time></trkpt><trkpt lat="38.96176807" lon="-0.49477419"><ele>251.8</ele><time>2022-11-13T15:18:21.0000000+00:00</time></trkpt><trkpt lat="38.96176413" lon="-0.49478567"><ele>251.8</ele><time>2022-11-13T15:18:22.0000000+00:00</time></trkpt><trkpt lat="38.96176312" lon="-0.49479439"><ele>252.0</ele><time>2022-11-13T15:18:23.0000000+00:00</time></trkpt><trkpt lat="38.96176237" lon="-0.49480151"><ele>252.2</ele><time>2022-11-13T15:18:24.0000000+00:00</time></trkpt><trkpt lat="38.96175759" lon="-0.49480395"><ele>252.4</ele><time>2022-11-13T15:18:25.0000000+00:00</time></trkpt><trkpt lat="38.96175792" lon="-0.49480788"><ele>252.6</ele><time>2022-11-13T15:18:26.0000000+00:00</time></trkpt><trkpt lat="38.96176321" lon="-0.49481719"><ele>252.8</ele><time>2022-11-13T15:18:27.0000000+00:00</time></trkpt><trkpt lat="38.96176044" lon="-0.49482767"><ele>252.8</ele><time>2022-11-13T15:18:28.0000000+00:00</time></trkpt><trkpt lat="38.96174971" lon="-0.49484208"><ele>253.2</ele><time>2022-11-13T15:18:29.0000000+00:00</time></trkpt><trkpt lat="38.96174862" lon="-0.49485474"><ele>253.4</ele><time>2022-11-13T15:18:30.0000000+00:00</time></trkpt><trkpt lat="38.9617482" lon="-0.49486916"><ele>253.6</ele><time>2022-11-13T15:18:31.0000000+00:00</time></trkpt><trkpt lat="38.9617529" lon="-0.49487804"><ele>253.8</ele><time>2022-11-13T15:18:32.0000000+00:00</time></trkpt><trkpt lat="38.96175139" lon="-0.49489053"><ele>254.0</ele><time>2022-11-13T15:18:33.0000000+00:00</time></trkpt><trkpt lat="38.9617508" lon="-0.49490193"><ele>254.2</ele><time>2022-11-13T15:18:34.0000000+00:00</time></trkpt><trkpt lat="38.96174946" lon="-0.49490771"><ele>254.2</ele><time>2022-11-13T15:18:35.0000000+00:00</time></trkpt><trkpt lat="38.96175114" lon="-0.49491199"><ele>254.2</ele><time>2022-11-13T15:18:36.0000000+00:00</time></trkpt><trkpt lat="38.96175432" lon="-0.49491718"><ele>254.4</ele><time>2022-11-13T15:18:37.0000000+00:00</time></trkpt><trkpt lat="38.96175482" lon="-0.494928"><ele>254.4</ele><time>2022-11-13T15:18:38.0000000+00:00</time></trkpt><trkpt lat="38.96175491" lon="-0.49493931"><ele>254.6</ele><time>2022-11-13T15:18:39.0000000+00:00</time></trkpt><trkpt lat="38.96174653" lon="-0.4949404"><ele>254.6</ele><time>2022-11-13T15:18:40.0000000+00:00</time></trkpt><trkpt lat="38.96174141" lon="-0.49493847"><ele>254.6</ele><time>2022-11-13T15:18:41.0000000+00:00</time></trkpt><trkpt lat="38.96173714" lon="-0.49493755"><ele>254.6</ele><time>2022-11-13T15:18:42.0000000+00:00</time></trkpt><trkpt lat="38.96173772" lon="-0.49493764"><ele>254.8</ele><time>2022-11-13T15:18:43.0000000+00:00</time></trkpt><trkpt lat="38.96173907" lon="-0.49493948"><ele>254.8</ele><time>2022-11-13T15:18:44.0000000+00:00</time></trkpt><trkpt lat="38.96174284" lon="-0.49494535"><ele>255.0</ele><time>2022-11-13T15:18:45.0000000+00:00</time></trkpt><trkpt lat="38.96174929" lon="-0.49494795"><ele>255.0</ele><time>2022-11-13T15:18:46.0000000+00:00</time></trkpt><trkpt lat="38.96175357" lon="-0.49494761"><ele>255.0</ele><time>2022-11-13T15:18:47.0000000+00:00</time></trkpt><trkpt lat="38.96175457" lon="-0.49494702"><ele>255.0</ele><time>2022-11-13T15:18:48.0000000+00:00</time></trkpt><trkpt lat="38.96175457" lon="-0.49494702"><ele>255.0</ele><time>2022-11-13T15:18:49.0000000+00:00</time></trkpt><trkpt lat="38.96175457" lon="-0.49494702"><ele>255.0</ele><time>2022-11-13T15:18:50.0000000+00:00</time></trkpt><trkpt lat="38.96175457" lon="-0.49494702"><ele>255.0</ele><time>2022-11-13T15:18:51.0000000+00:00</time></trkpt><trkpt lat="38.96175457" lon="-0.49494702"><ele>255.0</ele><time>2022-11-13T15:18:52.0000000+00:00</time></trkpt><trkpt lat="38.96175457" lon="-0.49494702"><ele>255.0</ele><time>2022-11-13T15:18:53.0000000+00:00</time></trkpt><trkpt lat="38.96175457" lon="-0.49494702"><ele>255.0</ele><time>2022-11-13T15:18:54.0000000+00:00</time></trkpt><trkpt lat="38.96175457" lon="-0.49494702"><ele>255.0</ele><time>2022-11-13T15:18:55.0000000+00:00</time></trkpt><trkpt lat="38.96175457" lon="-0.49494702"><ele>255.0</ele><time>2022-11-13T15:18:56.0000000+00:00</time></trkpt><trkpt lat="38.96175457" lon="-0.49494702"><ele>255.0</ele><time>2022-11-13T15:18:57.0000000+00:00</time></trkpt><trkpt lat="38.96175457" lon="-0.49494702"><ele>255.0</ele><time>2022-11-13T15:18:58.0000000+00:00</time></trkpt><trkpt lat="38.96175424" lon="-0.49494702"><ele>255.0</ele><time>2022-11-13T15:18:59.0000000+00:00</time></trkpt><trkpt lat="38.96175424" lon="-0.49494702"><ele>255.0</ele><time>2022-11-13T15:19:00.0000000+00:00</time></trkpt><trkpt lat="38.96175424" lon="-0.49494702"><ele>255.0</ele><time>2022-11-13T15:19:01.0000000+00:00</time></trkpt><trkpt lat="38.96175424" lon="-0.49494702"><ele>255.0</ele><time>2022-11-13T15:19:02.0000000+00:00</time></trkpt><trkpt lat="38.96175424" lon="-0.49494694"><ele>255.0</ele><time>2022-11-13T15:19:03.0000000+00:00</time></trkpt><trkpt lat="38.96175424" lon="-0.49494677"><ele>255.0</ele><time>2022-11-13T15:19:04.0000000+00:00</time></trkpt><trkpt lat="38.96175415" lon="-0.49494543"><ele>255.0</ele><time>2022-11-13T15:19:05.0000000+00:00</time></trkpt><trkpt lat="38.96175382" lon="-0.49494409"><ele>255.0</ele><time>2022-11-13T15:19:06.0000000+00:00</time></trkpt><trkpt lat="38.96175357" lon="-0.494942"><ele>255.0</ele><time>2022-11-13T15:19:07.0000000+00:00</time></trkpt><trkpt lat="38.96175306" lon="-0.49494057"><ele>255.0</ele><time>2022-11-13T15:19:08.0000000+00:00</time></trkpt><trkpt lat="38.96175256" lon="-0.4949404"><ele>255.0</ele><time>2022-11-13T15:19:09.0000000+00:00</time></trkpt><trkpt lat="38.96175256" lon="-0.49494082"><ele>255.0</ele><time>2022-11-13T15:19:10.0000000+00:00</time></trkpt><trkpt lat="38.96175256" lon="-0.49494082"><ele>255.0</ele><time>2022-11-13T15:19:11.0000000+00:00</time></trkpt><trkpt lat="38.96175256" lon="-0.49494124"><ele>255.0</ele><time>2022-11-13T15:19:12.0000000+00:00</time></trkpt><trkpt lat="38.96175256" lon="-0.49494124"><ele>255.0</ele><time>2022-11-13T15:19:13.0000000+00:00</time></trkpt><trkpt lat="38.96175256" lon="-0.49494132"><ele>255.0</ele><time>2022-11-13T15:19:14.0000000+00:00</time></trkpt><trkpt lat="38.96175256" lon="-0.49494124"><ele>255.0</ele><time>2022-11-13T15:19:15.0000000+00:00</time></trkpt><trkpt lat="38.96175256" lon="-0.49494124"><ele>255.0</ele><time>2022-11-13T15:19:16.0000000+00:00</time></trkpt><trkpt lat="38.96175248" lon="-0.49494124"><ele>255.0</ele><time>2022-11-13T15:19:17.0000000+00:00</time></trkpt><trkpt lat="38.96175114" lon="-0.49494124"><ele>255.0</ele><time>2022-11-13T15:19:18.0000000+00:00</time></trkpt><trkpt lat="38.96175055" lon="-0.49494124"><ele>255.0</ele><time>2022-11-13T15:19:19.0000000+00:00</time></trkpt><trkpt lat="38.96175038" lon="-0.49494124"><ele>255.0</ele><time>2022-11-13T15:19:20.0000000+00:00</time></trkpt><trkpt lat="38.96174887" lon="-0.49494124"><ele>255.0</ele><time>2022-11-13T15:19:21.0000000+00:00</time></trkpt><trkpt lat="38.9617487" lon="-0.49494124"><ele>255.0</ele><time>2022-11-13T15:19:22.0000000+00:00</time></trkpt><trkpt lat="38.96174753" lon="-0.49494124"><ele>255.0</ele><time>2022-11-13T15:19:23.0000000+00:00</time></trkpt><trkpt lat="38.9617487" lon="-0.49494644"><ele>255.2</ele><time>2022-11-13T15:19:24.0000000+00:00</time></trkpt><trkpt lat="38.96175315" lon="-0.49496069"><ele>255.2</ele><time>2022-11-13T15:19:25.0000000+00:00</time></trkpt><trkpt lat="38.96175591" lon="-0.49497435"><ele>255.4</ele><time>2022-11-13T15:19:26.0000000+00:00</time></trkpt><trkpt lat="38.96175843" lon="-0.49499011"><ele>255.4</ele><time>2022-11-13T15:19:27.0000000+00:00</time></trkpt><trkpt lat="38.96176304" lon="-0.49500637"><ele>255.6</ele><time>2022-11-13T15:19:28.0000000+00:00</time></trkpt><trkpt lat="38.96177276" lon="-0.49502229"><ele>255.8</ele><time>2022-11-13T15:19:29.0000000+00:00</time></trkpt><trkpt lat="38.96178139" lon="-0.49504199"><ele>256.0</ele><time>2022-11-13T15:19:30.0000000+00:00</time></trkpt><trkpt lat="38.9617912" lon="-0.49506454"><ele>256.2</ele><time>2022-11-13T15:19:31.0000000+00:00</time></trkpt><trkpt lat="38.96180377" lon="-0.4950834"><ele>256.4</ele><time>2022-11-13T15:19:32.0000000+00:00</time></trkpt><trkpt lat="38.96181182" lon="-0.49509882"><ele>256.6</ele><time>2022-11-13T15:19:33.0000000+00:00</time></trkpt><trkpt lat="38.96181325" lon="-0.49511994"><ele>256.8</ele><time>2022-11-13T15:19:34.0000000+00:00</time></trkpt><trkpt lat="38.96181911" lon="-0.49513344"><ele>256.8</ele><time>2022-11-13T15:19:35.0000000+00:00</time></trkpt><trkpt lat="38.96183051" lon="-0.4951409"><ele>257.0</ele><time>2022-11-13T15:19:36.0000000+00:00</time></trkpt><trkpt lat="38.96183973" lon="-0.49514559"><ele>257.0</ele><time>2022-11-13T15:19:37.0000000+00:00</time></trkpt><trkpt lat="38.961843" lon="-0.49515096"><ele>257.2</ele><time>2022-11-13T15:19:38.0000000+00:00</time></trkpt><trkpt lat="38.96184359" lon="-0.49515129"><ele>257.4</ele><time>2022-11-13T15:19:39.0000000+00:00</time></trkpt><trkpt lat="38.96184183" lon="-0.49515188"><ele>257.4</ele><time>2022-11-13T15:19:40.0000000+00:00</time></trkpt><trkpt lat="38.96183294" lon="-0.4951611"><ele>257.6</ele><time>2022-11-13T15:19:41.0000000+00:00</time></trkpt><trkpt lat="38.96182842" lon="-0.49517225"><ele>257.6</ele><time>2022-11-13T15:19:42.0000000+00:00</time></trkpt><trkpt lat="38.96183428" lon="-0.49517216"><ele>257.8</ele><time>2022-11-13T15:19:43.0000000+00:00</time></trkpt><trkpt lat="38.96183948" lon="-0.49516814"><ele>257.8</ele><time>2022-11-13T15:19:44.0000000+00:00</time></trkpt><trkpt lat="38.96184317" lon="-0.49516386"><ele>258.0</ele><time>2022-11-13T15:19:45.0000000+00:00</time></trkpt><trkpt lat="38.96184451" lon="-0.49516009"><ele>258.0</ele><time>2022-11-13T15:19:46.0000000+00:00</time></trkpt><trkpt lat="38.96184149" lon="-0.49515883"><ele>258.2</ele><time>2022-11-13T15:19:47.0000000+00:00</time></trkpt><trkpt lat="38.96183881" lon="-0.49515691"><ele>258.2</ele><time>2022-11-13T15:19:48.0000000+00:00</time></trkpt><trkpt lat="38.96183739" lon="-0.49515707"><ele>258.2</ele><time>2022-11-13T15:19:49.0000000+00:00</time></trkpt><trkpt lat="38.96183713" lon="-0.49515557"><ele>258.4</ele><time>2022-11-13T15:19:50.0000000+00:00</time></trkpt><trkpt lat="38.96183688" lon="-0.49515355"><ele>258.4</ele><time>2022-11-13T15:19:51.0000000+00:00</time></trkpt><trkpt lat="38.96183646" lon="-0.49515255"><ele>258.4</ele><time>2022-11-13T15:19:52.0000000+00:00</time></trkpt><trkpt lat="38.96182984" lon="-0.49516227"><ele>258.4</ele><time>2022-11-13T15:19:53.0000000+00:00</time></trkpt><trkpt lat="38.96182909" lon="-0.49516227"><ele>258.4</ele><time>2022-11-13T15:19:54.0000000+00:00</time></trkpt><trkpt lat="38.9618404" lon="-0.49516018"><ele>258.6</ele><time>2022-11-13T15:19:55.0000000+00:00</time></trkpt><trkpt lat="38.96185021" lon="-0.49515909"><ele>258.6</ele><time>2022-11-13T15:19:56.0000000+00:00</time></trkpt><trkpt lat="38.96185272" lon="-0.49515791"><ele>258.6</ele><time>2022-11-13T15:19:57.0000000+00:00</time></trkpt><trkpt lat="38.96185432" lon="-0.49515632"><ele>258.6</ele><time>2022-11-13T15:19:58.0000000+00:00</time></trkpt><trkpt lat="38.96185448" lon="-0.49515565"><ele>258.6</ele><time>2022-11-13T15:19:59.0000000+00:00</time></trkpt><trkpt lat="38.96185448" lon="-0.49515565"><ele>258.6</ele><time>2022-11-13T15:20:00.0000000+00:00</time></trkpt><trkpt lat="38.96185448" lon="-0.49515565"><ele>258.6</ele><time>2022-11-13T15:20:01.0000000+00:00</time></trkpt><trkpt lat="38.96185448" lon="-0.49515565"><ele>258.6</ele><time>2022-11-13T15:20:02.0000000+00:00</time></trkpt><trkpt lat="38.96185448" lon="-0.49515565"><ele>258.6</ele><time>2022-11-13T15:20:03.0000000+00:00</time></trkpt><trkpt lat="38.96185448" lon="-0.49515565"><ele>258.6</ele><time>2022-11-13T15:20:04.0000000+00:00</time></trkpt><trkpt lat="38.96185448" lon="-0.49515565"><ele>258.6</ele><time>2022-11-13T15:20:05.0000000+00:00</time></trkpt><trkpt lat="38.96185448" lon="-0.49515565"><ele>258.4</ele><time>2022-11-13T15:20:06.0000000+00:00</time></trkpt><trkpt lat="38.96185448" lon="-0.49515565"><ele>258.4</ele><time>2022-11-13T15:20:07.0000000+00:00</time></trkpt><trkpt lat="38.96185415" lon="-0.49515951"><ele>258.4</ele><time>2022-11-13T15:20:08.0000000+00:00</time></trkpt><trkpt lat="38.96185457" lon="-0.49517258"><ele>258.4</ele><time>2022-11-13T15:20:09.0000000+00:00</time></trkpt><trkpt lat="38.96185448" lon="-0.49518733"><ele>258.4</ele><time>2022-11-13T15:20:10.0000000+00:00</time></trkpt><trkpt lat="38.96185666" lon="-0.49520007"><ele>258.4</ele><time>2022-11-13T15:20:11.0000000+00:00</time></trkpt><trkpt lat="38.96185692" lon="-0.49521592"><ele>258.4</ele><time>2022-11-13T15:20:12.0000000+00:00</time></trkpt><trkpt lat="38.96185247" lon="-0.49523695"><ele>258.6</ele><time>2022-11-13T15:20:13.0000000+00:00</time></trkpt><trkpt lat="38.96184694" lon="-0.49526101"><ele>258.6</ele><time>2022-11-13T15:20:14.0000000+00:00</time></trkpt><trkpt lat="38.96184166" lon="-0.4952849"><ele>258.6</ele><time>2022-11-13T15:20:15.0000000+00:00</time></trkpt><trkpt lat="38.96183814" lon="-0.495302"><ele>258.8</ele><time>2022-11-13T15:20:16.0000000+00:00</time></trkpt><trkpt lat="38.96183412" lon="-0.49532102"><ele>258.8</ele><time>2022-11-13T15:20:17.0000000+00:00</time></trkpt><trkpt lat="38.9618368" lon="-0.49533201"><ele>258.8</ele><time>2022-11-13T15:20:18.0000000+00:00</time></trkpt><trkpt lat="38.9618368" lon="-0.49533963"><ele>258.8</ele><time>2022-11-13T15:20:19.0000000+00:00</time></trkpt><trkpt lat="38.96183722" lon="-0.49535045"><ele>258.8</ele><time>2022-11-13T15:20:20.0000000+00:00</time></trkpt><trkpt lat="38.96183479" lon="-0.49536453"><ele>258.8</ele><time>2022-11-13T15:20:21.0000000+00:00</time></trkpt><trkpt lat="38.9618316" lon="-0.49538003"><ele>258.8</ele><time>2022-11-13T15:20:22.0000000+00:00</time></trkpt><trkpt lat="38.96182833" lon="-0.49540141"><ele>258.8</ele><time>2022-11-13T15:20:23.0000000+00:00</time></trkpt><trkpt lat="38.96182842" lon="-0.49541532"><ele>258.8</ele><time>2022-11-13T15:20:24.0000000+00:00</time></trkpt><trkpt lat="38.96182582" lon="-0.49542504"><ele>259.0</ele><time>2022-11-13T15:20:25.0000000+00:00</time></trkpt><trkpt lat="38.96182573" lon="-0.49542982"><ele>259.0</ele><time>2022-11-13T15:20:26.0000000+00:00</time></trkpt><trkpt lat="38.96182448" lon="-0.4954315"><ele>259.0</ele><time>2022-11-13T15:20:27.0000000+00:00</time></trkpt><trkpt lat="38.96182288" lon="-0.4954382"><ele>259.0</ele><time>2022-11-13T15:20:28.0000000+00:00</time></trkpt><trkpt lat="38.96182322" lon="-0.49545086"><ele>259.0</ele><time>2022-11-13T15:20:29.0000000+00:00</time></trkpt><trkpt lat="38.96182599" lon="-0.49546461"><ele>258.8</ele><time>2022-11-13T15:20:30.0000000+00:00</time></trkpt><trkpt lat="38.96182464" lon="-0.49547928"><ele>258.8</ele><time>2022-11-13T15:20:31.0000000+00:00</time></trkpt><trkpt lat="38.96182641" lon="-0.49549118"><ele>258.8</ele><time>2022-11-13T15:20:32.0000000+00:00</time></trkpt><trkpt lat="38.96182917" lon="-0.49550233"><ele>258.8</ele><time>2022-11-13T15:20:33.0000000+00:00</time></trkpt><trkpt lat="38.96182875" lon="-0.4955092"><ele>258.8</ele><time>2022-11-13T15:20:34.0000000+00:00</time></trkpt><trkpt lat="38.96182892" lon="-0.49551389"><ele>258.8</ele><time>2022-11-13T15:20:35.0000000+00:00</time></trkpt><trkpt lat="38.96182808" lon="-0.49552755"><ele>259.0</ele><time>2022-11-13T15:20:36.0000000+00:00</time></trkpt><trkpt lat="38.96182716" lon="-0.49553476"><ele>259.0</ele><time>2022-11-13T15:20:37.0000000+00:00</time></trkpt><trkpt lat="38.96182456" lon="-0.49554055"><ele>259.0</ele><time>2022-11-13T15:20:38.0000000+00:00</time></trkpt><trkpt lat="38.9618202" lon="-0.49554985"><ele>259.0</ele><time>2022-11-13T15:20:39.0000000+00:00</time></trkpt><trkpt lat="38.96181836" lon="-0.49556091"><ele>259.2</ele><time>2022-11-13T15:20:40.0000000+00:00</time></trkpt><trkpt lat="38.96181601" lon="-0.49557047"><ele>259.2</ele><time>2022-11-13T15:20:41.0000000+00:00</time></trkpt><trkpt lat="38.96181115" lon="-0.49557407"><ele>259.4</ele><time>2022-11-13T15:20:42.0000000+00:00</time></trkpt><trkpt lat="38.96181249" lon="-0.49557793"><ele>259.4</ele><time>2022-11-13T15:20:43.0000000+00:00</time></trkpt><trkpt lat="38.96181123" lon="-0.49558237"><ele>259.6</ele><time>2022-11-13T15:20:44.0000000+00:00</time></trkpt><trkpt lat="38.96181467" lon="-0.49559369"><ele>259.6</ele><time>2022-11-13T15:20:45.0000000+00:00</time></trkpt><trkpt lat="38.96181819" lon="-0.49560551"><ele>259.6</ele><time>2022-11-13T15:20:46.0000000+00:00</time></trkpt><trkpt lat="38.96182314" lon="-0.49561431"><ele>259.6</ele><time>2022-11-13T15:20:47.0000000+00:00</time></trkpt><trkpt lat="38.96182515" lon="-0.49562059"><ele>259.6</ele><time>2022-11-13T15:20:48.0000000+00:00</time></trkpt><trkpt lat="38.96182674" lon="-0.49562931"><ele>259.8</ele><time>2022-11-13T15:20:49.0000000+00:00</time></trkpt><trkpt lat="38.96182649" lon="-0.49564088"><ele>259.8</ele><time>2022-11-13T15:20:50.0000000+00:00</time></trkpt><trkpt lat="38.961829" lon="-0.4956418"><ele>259.8</ele><time>2022-11-13T15:20:51.0000000+00:00</time></trkpt><trkpt lat="38.96183244" lon="-0.495647"><ele>259.8</ele><time>2022-11-13T15:20:52.0000000+00:00</time></trkpt><trkpt lat="38.96183739" lon="-0.49565655"><ele>259.8</ele><time>2022-11-13T15:20:53.0000000+00:00</time></trkpt><trkpt lat="38.96184074" lon="-0.49565806"><ele>260.0</ele><time>2022-11-13T15:20:54.0000000+00:00</time></trkpt><trkpt lat="38.96183755" lon="-0.49565387"><ele>260.0</ele><time>2022-11-13T15:20:55.0000000+00:00</time></trkpt><trkpt lat="38.9618363" lon="-0.49565194"><ele>260.0</ele><time>2022-11-13T15:20:56.0000000+00:00</time></trkpt><trkpt lat="38.96183604" lon="-0.4956511"><ele>260.0</ele><time>2022-11-13T15:20:57.0000000+00:00</time></trkpt><trkpt lat="38.96183462" lon="-0.49565094"><ele>260.0</ele><time>2022-11-13T15:20:58.0000000+00:00</time></trkpt><trkpt lat="38.96183219" lon="-0.49565001"><ele>260.0</ele><time>2022-11-13T15:20:59.0000000+00:00</time></trkpt><trkpt lat="38.96183009" lon="-0.49564876"><ele>260.0</ele><time>2022-11-13T15:21:00.0000000+00:00</time></trkpt><trkpt lat="38.96183135" lon="-0.49565018"><ele>260.0</ele><time>2022-11-13T15:21:01.0000000+00:00</time></trkpt><trkpt lat="38.96183378" lon="-0.49565144"><ele>260.0</ele><time>2022-11-13T15:21:02.0000000+00:00</time></trkpt><trkpt lat="38.96183621" lon="-0.49565228"><ele>260.0</ele><time>2022-11-13T15:21:03.0000000+00:00</time></trkpt><trkpt lat="38.96183747" lon="-0.49565245"><ele>260.0</ele><time>2022-11-13T15:21:04.0000000+00:00</time></trkpt><trkpt lat="38.96184049" lon="-0.49565337"><ele>260.0</ele><time>2022-11-13T15:21:05.0000000+00:00</time></trkpt><trkpt lat="38.9618404" lon="-0.4956532"><ele>260.0</ele><time>2022-11-13T15:21:06.0000000+00:00</time></trkpt><trkpt lat="38.9618404" lon="-0.4956532"><ele>260.0</ele><time>2022-11-13T15:21:07.0000000+00:00</time></trkpt><trkpt lat="38.9618404" lon="-0.4956532"><ele>260.0</ele><time>2022-11-13T15:21:08.0000000+00:00</time></trkpt><trkpt lat="38.9618404" lon="-0.4956532"><ele>260.0</ele><time>2022-11-13T15:21:09.0000000+00:00</time></trkpt><trkpt lat="38.9618404" lon="-0.4956532"><ele>260.0</ele><time>2022-11-13T15:21:10.0000000+00:00</time></trkpt><trkpt lat="38.9618404" lon="-0.4956532"><ele>260.2</ele><time>2022-11-13T15:21:11.0000000+00:00</time></trkpt><trkpt lat="38.9618404" lon="-0.4956532"><ele>260.2</ele><time>2022-11-13T15:21:12.0000000+00:00</time></trkpt><trkpt lat="38.9618404" lon="-0.4956532"><ele>260.2</ele><time>2022-11-13T15:21:13.0000000+00:00</time></trkpt><trkpt lat="38.9618404" lon="-0.4956532"><ele>260.2</ele><time>2022-11-13T15:21:14.0000000+00:00</time></trkpt><trkpt lat="38.9618404" lon="-0.4956532"><ele>260.2</ele><time>2022-11-13T15:21:15.0000000+00:00</time></trkpt><trkpt lat="38.9618404" lon="-0.4956532"><ele>260.2</ele><time>2022-11-13T15:21:16.0000000+00:00</time></trkpt><trkpt lat="38.9618404" lon="-0.4956532"><ele>260.2</ele><time>2022-11-13T15:21:17.0000000+00:00</time></trkpt><trkpt lat="38.9618404" lon="-0.4956532"><ele>260.2</ele><time>2022-11-13T15:21:18.0000000+00:00</time></trkpt><trkpt lat="38.9618404" lon="-0.4956532"><ele>260.2</ele><time>2022-11-13T15:21:19.0000000+00:00</time></trkpt><trkpt lat="38.9618404" lon="-0.4956532"><ele>260.2</ele><time>2022-11-13T15:21:20.0000000+00:00</time></trkpt><trkpt lat="38.9618404" lon="-0.4956532"><ele>260.4</ele><time>2022-11-13T15:21:21.0000000+00:00</time></trkpt><trkpt lat="38.9618404" lon="-0.4956532"><ele>260.4</ele><time>2022-11-13T15:21:22.0000000+00:00</time></trkpt><trkpt lat="38.9618404" lon="-0.4956532"><ele>260.4</ele><time>2022-11-13T15:21:23.0000000+00:00</time></trkpt><trkpt lat="38.96183998" lon="-0.49566292"><ele>260.4</ele><time>2022-11-13T15:21:24.0000000+00:00</time></trkpt><trkpt lat="38.9618399" lon="-0.49567767"><ele>260.6</ele><time>2022-11-13T15:21:25.0000000+00:00</time></trkpt><trkpt lat="38.96183596" lon="-0.49569729"><ele>260.6</ele><time>2022-11-13T15:21:26.0000000+00:00</time></trkpt><trkpt lat="38.96184015" lon="-0.49571388"><ele>260.6</ele><time>2022-11-13T15:21:27.0000000+00:00</time></trkpt><trkpt lat="38.96185264" lon="-0.4957288"><ele>260.6</ele><time>2022-11-13T15:21:28.0000000+00:00</time></trkpt><trkpt lat="38.96185901" lon="-0.49573844"><ele>260.6</ele><time>2022-11-13T15:21:29.0000000+00:00</time></trkpt><trkpt lat="38.9618627" lon="-0.49575512"><ele>260.8</ele><time>2022-11-13T15:21:30.0000000+00:00</time></trkpt><trkpt lat="38.96186521" lon="-0.49577407"><ele>260.8</ele><time>2022-11-13T15:21:31.0000000+00:00</time></trkpt><trkpt lat="38.9618658" lon="-0.49579946"><ele>260.8</ele><time>2022-11-13T15:21:32.0000000+00:00</time></trkpt><trkpt lat="38.9618663" lon="-0.49582637"><ele>261.0</ele><time>2022-11-13T15:21:33.0000000+00:00</time></trkpt><trkpt lat="38.96186706" lon="-0.49584355"><ele>261.0</ele><time>2022-11-13T15:21:34.0000000+00:00</time></trkpt><trkpt lat="38.96186739" lon="-0.49586032"><ele>261.0</ele><time>2022-11-13T15:21:35.0000000+00:00</time></trkpt><trkpt lat="38.96186521" lon="-0.49587515"><ele>261.2</ele><time>2022-11-13T15:21:36.0000000+00:00</time></trkpt><trkpt lat="38.96186404" lon="-0.49589175"><ele>261.2</ele><time>2022-11-13T15:21:37.0000000+00:00</time></trkpt><trkpt lat="38.96186261" lon="-0.49590591"><ele>261.2</ele><time>2022-11-13T15:21:38.0000000+00:00</time></trkpt><trkpt lat="38.96186261" lon="-0.49592159"><ele>261.2</ele><time>2022-11-13T15:21:39.0000000+00:00</time></trkpt><trkpt lat="38.96185943" lon="-0.49593969"><ele>261.2</ele><time>2022-11-13T15:21:40.0000000+00:00</time></trkpt><trkpt lat="38.96185666" lon="-0.49595763"><ele>261.2</ele><time>2022-11-13T15:21:41.0000000+00:00</time></trkpt><trkpt lat="38.96185708" lon="-0.49597884"><ele>261.0</ele><time>2022-11-13T15:21:42.0000000+00:00</time></trkpt><trkpt lat="38.9618606" lon="-0.49599283"><ele>261.0</ele><time>2022-11-13T15:21:43.0000000+00:00</time></trkpt><trkpt lat="38.96186513" lon="-0.49600105"><ele>261.0</ele><time>2022-11-13T15:21:44.0000000+00:00</time></trkpt><trkpt lat="38.96186848" lon="-0.49601002"><ele>261.0</ele><time>2022-11-13T15:21:45.0000000+00:00</time></trkpt><trkpt lat="38.96187284" lon="-0.4960179"><ele>260.8</ele><time>2022-11-13T15:21:46.0000000+00:00</time></trkpt><trkpt lat="38.96187586" lon="-0.4960236"><ele>260.8</ele><time>2022-11-13T15:21:47.0000000+00:00</time></trkpt><trkpt lat="38.96187443" lon="-0.49603298"><ele>260.8</ele><time>2022-11-13T15:21:48.0000000+00:00</time></trkpt><trkpt lat="38.96186379" lon="-0.49604472"><ele>260.8</ele><time>2022-11-13T15:21:49.0000000+00:00</time></trkpt><trkpt lat="38.96185851" lon="-0.49605888"><ele>260.8</ele><time>2022-11-13T15:21:50.0000000+00:00</time></trkpt><trkpt lat="38.96185348" lon="-0.49607883"><ele>260.8</ele><time>2022-11-13T15:21:51.0000000+00:00</time></trkpt><trkpt lat="38.96185289" lon="-0.49608763"><ele>260.8</ele><time>2022-11-13T15:21:52.0000000+00:00</time></trkpt><trkpt lat="38.96185222" lon="-0.49609182"><ele>261.0</ele><time>2022-11-13T15:21:53.0000000+00:00</time></trkpt><trkpt lat="38.96185264" lon="-0.49610398"><ele>261.2</ele><time>2022-11-13T15:21:54.0000000+00:00</time></trkpt><trkpt lat="38.96185205" lon="-0.49611596"><ele>261.4</ele><time>2022-11-13T15:21:55.0000000+00:00</time></trkpt><trkpt lat="38.9618632" lon="-0.49612259"><ele>261.4</ele><time>2022-11-13T15:21:56.0000000+00:00</time></trkpt><trkpt lat="38.96187167" lon="-0.49612996"><ele>261.6</ele><time>2022-11-13T15:21:57.0000000+00:00</time></trkpt><trkpt lat="38.9618839" lon="-0.49613751"><ele>261.6</ele><time>2022-11-13T15:21:58.0000000+00:00</time></trkpt><trkpt lat="38.96189019" lon="-0.49615075"><ele>261.8</ele><time>2022-11-13T15:21:59.0000000+00:00</time></trkpt><trkpt lat="38.96190017" lon="-0.49616357"><ele>261.8</ele><time>2022-11-13T15:22:00.0000000+00:00</time></trkpt><trkpt lat="38.96190519" lon="-0.49618185"><ele>262.0</ele><time>2022-11-13T15:22:01.0000000+00:00</time></trkpt><trkpt lat="38.96189975" lon="-0.49620423"><ele>262.0</ele><time>2022-11-13T15:22:02.0000000+00:00</time></trkpt><trkpt lat="38.96188667" lon="-0.49621839"><ele>262.0</ele><time>2022-11-13T15:22:03.0000000+00:00</time></trkpt><trkpt lat="38.96188365" lon="-0.49622292"><ele>262.2</ele><time>2022-11-13T15:22:04.0000000+00:00</time></trkpt><trkpt lat="38.96188382" lon="-0.496223"><ele>262.2</ele><time>2022-11-13T15:22:05.0000000+00:00</time></trkpt><trkpt lat="38.96188567" lon="-0.49622292"><ele>262.4</ele><time>2022-11-13T15:22:06.0000000+00:00</time></trkpt><trkpt lat="38.96188801" lon="-0.49623197"><ele>262.6</ele><time>2022-11-13T15:22:07.0000000+00:00</time></trkpt><trkpt lat="38.96188944" lon="-0.49624119"><ele>262.8</ele><time>2022-11-13T15:22:08.0000000+00:00</time></trkpt><trkpt lat="38.96189178" lon="-0.49624798"><ele>263.0</ele><time>2022-11-13T15:22:09.0000000+00:00</time></trkpt><trkpt lat="38.96189665" lon="-0.49625745"><ele>263.0</ele><time>2022-11-13T15:22:10.0000000+00:00</time></trkpt><trkpt lat="38.96189698" lon="-0.49626935"><ele>263.0</ele><time>2022-11-13T15:22:11.0000000+00:00</time></trkpt><trkpt lat="38.9618943" lon="-0.4962779"><ele>263.0</ele><time>2022-11-13T15:22:12.0000000+00:00</time></trkpt><trkpt lat="38.9618948" lon="-0.49628134"><ele>263.2</ele><time>2022-11-13T15:22:13.0000000+00:00</time></trkpt><trkpt lat="38.96189497" lon="-0.49628218"><ele>263.2</ele><time>2022-11-13T15:22:14.0000000+00:00</time></trkpt><trkpt lat="38.96189614" lon="-0.496281"><ele>263.2</ele><time>2022-11-13T15:22:15.0000000+00:00</time></trkpt><trkpt lat="38.96189497" lon="-0.49628838"><ele>263.4</ele><time>2022-11-13T15:22:16.0000000+00:00</time></trkpt><trkpt lat="38.9618969" lon="-0.49629148"><ele>263.4</ele><time>2022-11-13T15:22:17.0000000+00:00</time></trkpt><trkpt lat="38.96188726" lon="-0.4963002"><ele>263.4</ele><time>2022-11-13T15:22:18.0000000+00:00</time></trkpt><trkpt lat="38.96188038" lon="-0.49631981"><ele>263.6</ele><time>2022-11-13T15:22:19.0000000+00:00</time></trkpt><trkpt lat="38.96187695" lon="-0.49633373"><ele>263.6</ele><time>2022-11-13T15:22:20.0000000+00:00</time></trkpt><trkpt lat="38.96188164" lon="-0.49634672"><ele>263.6</ele><time>2022-11-13T15:22:21.0000000+00:00</time></trkpt><trkpt lat="38.96188189" lon="-0.49636315"><ele>263.8</ele><time>2022-11-13T15:22:22.0000000+00:00</time></trkpt><trkpt lat="38.96188139" lon="-0.49637614"><ele>264.0</ele><time>2022-11-13T15:22:23.0000000+00:00</time></trkpt><trkpt lat="38.96187821" lon="-0.49638854"><ele>264.2</ele><time>2022-11-13T15:22:24.0000000+00:00</time></trkpt><trkpt lat="38.96187594" lon="-0.49640279"><ele>264.2</ele><time>2022-11-13T15:22:25.0000000+00:00</time></trkpt><trkpt lat="38.96187577" lon="-0.49641009"><ele>264.4</ele><time>2022-11-13T15:22:26.0000000+00:00</time></trkpt><trkpt lat="38.96187536" lon="-0.4964219"><ele>264.4</ele><time>2022-11-13T15:22:27.0000000+00:00</time></trkpt><trkpt lat="38.96187812" lon="-0.49642635"><ele>264.4</ele><time>2022-11-13T15:22:28.0000000+00:00</time></trkpt><trkpt lat="38.96188173" lon="-0.49642995"><ele>264.4</ele><time>2022-11-13T15:22:29.0000000+00:00</time></trkpt><trkpt lat="38.96188919" lon="-0.4964302"><ele>264.4</ele><time>2022-11-13T15:22:30.0000000+00:00</time></trkpt><trkpt lat="38.9618922" lon="-0.49643112"><ele>264.4</ele><time>2022-11-13T15:22:31.0000000+00:00</time></trkpt><trkpt lat="38.9618974" lon="-0.4964359"><ele>264.4</ele><time>2022-11-13T15:22:32.0000000+00:00</time></trkpt><trkpt lat="38.96190184" lon="-0.4964349"><ele>264.2</ele><time>2022-11-13T15:22:33.0000000+00:00</time></trkpt><trkpt lat="38.96190511" lon="-0.49643305"><ele>264.2</ele><time>2022-11-13T15:22:34.0000000+00:00</time></trkpt><trkpt lat="38.96190218" lon="-0.49643967"><ele>264.2</ele><time>2022-11-13T15:22:35.0000000+00:00</time></trkpt><trkpt lat="38.96189472" lon="-0.49645401"><ele>264.2</ele><time>2022-11-13T15:22:36.0000000+00:00</time></trkpt><trkpt lat="38.96188927" lon="-0.49646381"><ele>264.2</ele><time>2022-11-13T15:22:37.0000000+00:00</time></trkpt><trkpt lat="38.96188608" lon="-0.49646834"><ele>264.0</ele><time>2022-11-13T15:22:38.0000000+00:00</time></trkpt><trkpt lat="38.96188349" lon="-0.4964706"><ele>264.0</ele><time>2022-11-13T15:22:39.0000000+00:00</time></trkpt><trkpt lat="38.96188147" lon="-0.49647287"><ele>264.0</ele><time>2022-11-13T15:22:40.0000000+00:00</time></trkpt><trkpt lat="38.96187871" lon="-0.49647496"><ele>264.0</ele><time>2022-11-13T15:22:41.0000000+00:00</time></trkpt><trkpt lat="38.96187393" lon="-0.49647714"><ele>264.0</ele><time>2022-11-13T15:22:42.0000000+00:00</time></trkpt><trkpt lat="38.96187435" lon="-0.49647764"><ele>264.0</ele><time>2022-11-13T15:22:43.0000000+00:00</time></trkpt><trkpt lat="38.96187435" lon="-0.49647764"><ele>264.0</ele><time>2022-11-13T15:22:44.0000000+00:00</time></trkpt><trkpt lat="38.96187435" lon="-0.49647764"><ele>264.0</ele><time>2022-11-13T15:22:45.0000000+00:00</time></trkpt><trkpt lat="38.96187435" lon="-0.49647764"><ele>264.0</ele><time>2022-11-13T15:22:46.0000000+00:00</time></trkpt><trkpt lat="38.96187435" lon="-0.49647764"><ele>264.0</ele><time>2022-11-13T15:22:47.0000000+00:00</time></trkpt><trkpt lat="38.96187435" lon="-0.49647764"><ele>264.0</ele><time>2022-11-13T15:22:48.0000000+00:00</time></trkpt><trkpt lat="38.96187435" lon="-0.49647764"><ele>264.0</ele><time>2022-11-13T15:22:49.0000000+00:00</time></trkpt><trkpt lat="38.96187435" lon="-0.49647764"><ele>264.2</ele><time>2022-11-13T15:22:50.0000000+00:00</time></trkpt><trkpt lat="38.96187435" lon="-0.49647722"><ele>264.2</ele><time>2022-11-13T15:22:51.0000000+00:00</time></trkpt><trkpt lat="38.96187435" lon="-0.49647513"><ele>264.2</ele><time>2022-11-13T15:22:52.0000000+00:00</time></trkpt><trkpt lat="38.96187435" lon="-0.49647505"><ele>264.2</ele><time>2022-11-13T15:22:53.0000000+00:00</time></trkpt><trkpt lat="38.96187435" lon="-0.49647505"><ele>264.2</ele><time>2022-11-13T15:22:54.0000000+00:00</time></trkpt><trkpt lat="38.96187536" lon="-0.49647681"><ele>264.2</ele><time>2022-11-13T15:22:55.0000000+00:00</time></trkpt><trkpt lat="38.96187695" lon="-0.49647915"><ele>264.2</ele><time>2022-11-13T15:22:56.0000000+00:00</time></trkpt><trkpt lat="38.96187695" lon="-0.49647915"><ele>264.2</ele><time>2022-11-13T15:22:57.0000000+00:00</time></trkpt><trkpt lat="38.96187753" lon="-0.49648016"><ele>264.2</ele><time>2022-11-13T15:22:58.0000000+00:00</time></trkpt><trkpt lat="38.96187888" lon="-0.49648167"><ele>264.2</ele><time>2022-11-13T15:22:59.0000000+00:00</time></trkpt><trkpt lat="38.96187921" lon="-0.49648083"><ele>264.2</ele><time>2022-11-13T15:23:00.0000000+00:00</time></trkpt><trkpt lat="38.96188474" lon="-0.49647655"><ele>264.2</ele><time>2022-11-13T15:23:01.0000000+00:00</time></trkpt><trkpt lat="38.96187862" lon="-0.49647555"><ele>264.4</ele><time>2022-11-13T15:23:02.0000000+00:00</time></trkpt><trkpt lat="38.96186848" lon="-0.49647672"><ele>264.4</ele><time>2022-11-13T15:23:03.0000000+00:00</time></trkpt><trkpt lat="38.96185532" lon="-0.49647848"><ele>264.4</ele><time>2022-11-13T15:23:04.0000000+00:00</time></trkpt><trkpt lat="38.96185222" lon="-0.49647907"><ele>264.4</ele><time>2022-11-13T15:23:05.0000000+00:00</time></trkpt><trkpt lat="38.96184929" lon="-0.49647094"><ele>264.4</ele><time>2022-11-13T15:23:06.0000000+00:00</time></trkpt><trkpt lat="38.96186102" lon="-0.49646474"><ele>264.4</ele><time>2022-11-13T15:23:07.0000000+00:00</time></trkpt><trkpt lat="38.96186027" lon="-0.49646457"><ele>264.4</ele><time>2022-11-13T15:23:08.0000000+00:00</time></trkpt><trkpt lat="38.96185717" lon="-0.49646767"><ele>264.4</ele><time>2022-11-13T15:23:09.0000000+00:00</time></trkpt><trkpt lat="38.96185759" lon="-0.49646859"><ele>264.4</ele><time>2022-11-13T15:23:10.0000000+00:00</time></trkpt><trkpt lat="38.96185633" lon="-0.49647253"><ele>264.4</ele><time>2022-11-13T15:23:11.0000000+00:00</time></trkpt><trkpt lat="38.96185298" lon="-0.4964763"><ele>264.4</ele><time>2022-11-13T15:23:12.0000000+00:00</time></trkpt><trkpt lat="38.96185365" lon="-0.49647882"><ele>264.4</ele><time>2022-11-13T15:23:13.0000000+00:00</time></trkpt><trkpt lat="38.96185851" lon="-0.49648091"><ele>264.4</ele><time>2022-11-13T15:23:14.0000000+00:00</time></trkpt><trkpt lat="38.96186102" lon="-0.49648292"><ele>264.6</ele><time>2022-11-13T15:23:15.0000000+00:00</time></trkpt><trkpt lat="38.96185842" lon="-0.49649038"><ele>264.8</ele><time>2022-11-13T15:23:16.0000000+00:00</time></trkpt><trkpt lat="38.96185759" lon="-0.49649566"><ele>265.0</ele><time>2022-11-13T15:23:17.0000000+00:00</time></trkpt><trkpt lat="38.96185549" lon="-0.4965017"><ele>265.0</ele><time>2022-11-13T15:23:18.0000000+00:00</time></trkpt><trkpt lat="38.96185708" lon="-0.49651042"><ele>265.0</ele><time>2022-11-13T15:23:19.0000000+00:00</time></trkpt><trkpt lat="38.96185742" lon="-0.49652265"><ele>265.2</ele><time>2022-11-13T15:23:20.0000000+00:00</time></trkpt><trkpt lat="38.96186555" lon="-0.4965281"><ele>265.2</ele><time>2022-11-13T15:23:21.0000000+00:00</time></trkpt><trkpt lat="38.96186982" lon="-0.4965369"><ele>265.2</ele><time>2022-11-13T15:23:22.0000000+00:00</time></trkpt><trkpt lat="38.96186907" lon="-0.4965473"><ele>265.2</ele><time>2022-11-13T15:23:23.0000000+00:00</time></trkpt><trkpt lat="38.96186899" lon="-0.49655794"><ele>265.2</ele><time>2022-11-13T15:23:24.0000000+00:00</time></trkpt><trkpt lat="38.961871" lon="-0.49656783"><ele>265.4</ele><time>2022-11-13T15:23:25.0000000+00:00</time></trkpt><trkpt lat="38.96187225" lon="-0.49657747"><ele>265.4</ele><time>2022-11-13T15:23:26.0000000+00:00</time></trkpt><trkpt lat="38.96186655" lon="-0.49658937"><ele>265.4</ele><time>2022-11-13T15:23:27.0000000+00:00</time></trkpt><trkpt lat="38.96186287" lon="-0.49659717"><ele>265.8</ele><time>2022-11-13T15:23:28.0000000+00:00</time></trkpt><trkpt lat="38.9618684" lon="-0.49660111"><ele>266.0</ele><time>2022-11-13T15:23:29.0000000+00:00</time></trkpt><trkpt lat="38.96186815" lon="-0.49660597"><ele>266.0</ele><time>2022-11-13T15:23:30.0000000+00:00</time></trkpt><trkpt lat="38.96187728" lon="-0.49661125"><ele>266.2</ele><time>2022-11-13T15:23:31.0000000+00:00</time></trkpt><trkpt lat="38.9618803" lon="-0.49662064"><ele>266.2</ele><time>2022-11-13T15:23:32.0000000+00:00</time></trkpt><trkpt lat="38.96188214" lon="-0.49662508"><ele>266.4</ele><time>2022-11-13T15:23:33.0000000+00:00</time></trkpt><trkpt lat="38.9618777" lon="-0.4966343"><ele>266.4</ele><time>2022-11-13T15:23:34.0000000+00:00</time></trkpt><trkpt lat="38.96186915" lon="-0.49664863"><ele>266.6</ele><time>2022-11-13T15:23:35.0000000+00:00</time></trkpt><trkpt lat="38.96186563" lon="-0.4966602"><ele>266.8</ele><time>2022-11-13T15:23:36.0000000+00:00</time></trkpt><trkpt lat="38.96186127" lon="-0.49667236"><ele>266.8</ele><time>2022-11-13T15:23:37.0000000+00:00</time></trkpt><trkpt lat="38.96186404" lon="-0.49667965"><ele>267.0</ele><time>2022-11-13T15:23:38.0000000+00:00</time></trkpt><trkpt lat="38.96186647" lon="-0.49668501"><ele>267.0</ele><time>2022-11-13T15:23:39.0000000+00:00</time></trkpt><trkpt lat="38.96187108" lon="-0.49669306"><ele>267.0</ele><time>2022-11-13T15:23:40.0000000+00:00</time></trkpt><trkpt lat="38.96187519" lon="-0.49670085"><ele>267.0</ele><time>2022-11-13T15:23:41.0000000+00:00</time></trkpt><trkpt lat="38.96187292" lon="-0.49670999"><ele>267.2</ele><time>2022-11-13T15:23:42.0000000+00:00</time></trkpt><trkpt lat="38.96187795" lon="-0.49671938"><ele>267.2</ele><time>2022-11-13T15:23:43.0000000+00:00</time></trkpt><trkpt lat="38.96187678" lon="-0.49672524"><ele>267.2</ele><time>2022-11-13T15:23:44.0000000+00:00</time></trkpt><trkpt lat="38.96186488" lon="-0.49674042"><ele>267.2</ele><time>2022-11-13T15:23:45.0000000+00:00</time></trkpt><trkpt lat="38.96186018" lon="-0.49675441"><ele>267.2</ele><time>2022-11-13T15:23:46.0000000+00:00</time></trkpt><trkpt lat="38.96185951" lon="-0.49676573"><ele>267.4</ele><time>2022-11-13T15:23:47.0000000+00:00</time></trkpt><trkpt lat="38.961857" lon="-0.49677705"><ele>267.6</ele><time>2022-11-13T15:23:48.0000000+00:00</time></trkpt><trkpt lat="38.96185641" lon="-0.49679766"><ele>267.8</ele><time>2022-11-13T15:23:49.0000000+00:00</time></trkpt><trkpt lat="38.96185666" lon="-0.49681057"><ele>268.0</ele><time>2022-11-13T15:23:50.0000000+00:00</time></trkpt><trkpt lat="38.961858" lon="-0.49681837"><ele>268.2</ele><time>2022-11-13T15:23:51.0000000+00:00</time></trkpt><trkpt lat="38.96185968" lon="-0.49682323"><ele>268.4</ele><time>2022-11-13T15:23:52.0000000+00:00</time></trkpt><trkpt lat="38.96185951" lon="-0.49682608"><ele>268.6</ele><time>2022-11-13T15:23:53.0000000+00:00</time></trkpt><trkpt lat="38.9618658" lon="-0.49681828"><ele>268.6</ele><time>2022-11-13T15:23:54.0000000+00:00</time></trkpt><trkpt lat="38.9618777" lon="-0.49682415"><ele>268.8</ele><time>2022-11-13T15:23:55.0000000+00:00</time></trkpt><trkpt lat="38.96188801" lon="-0.49683815"><ele>268.8</ele><time>2022-11-13T15:23:56.0000000+00:00</time></trkpt><trkpt lat="38.96190042" lon="-0.49684946"><ele>269.0</ele><time>2022-11-13T15:23:57.0000000+00:00</time></trkpt><trkpt lat="38.96190846" lon="-0.49686162"><ele>269.2</ele><time>2022-11-13T15:23:58.0000000+00:00</time></trkpt><trkpt lat="38.96192246" lon="-0.4968752"><ele>269.2</ele><time>2022-11-13T15:23:59.0000000+00:00</time></trkpt><trkpt lat="38.96193344" lon="-0.49688551"><ele>269.4</ele><time>2022-11-13T15:24:00.0000000+00:00</time></trkpt><trkpt lat="38.96194585" lon="-0.49689221"><ele>269.4</ele><time>2022-11-13T15:24:01.0000000+00:00</time></trkpt><trkpt lat="38.9619466" lon="-0.49689339"><ele>269.4</ele><time>2022-11-13T15:24:02.0000000+00:00</time></trkpt><trkpt lat="38.96194928" lon="-0.49689489"><ele>269.4</ele><time>2022-11-13T15:24:03.0000000+00:00</time></trkpt><trkpt lat="38.9619487" lon="-0.49689774"><ele>269.4</ele><time>2022-11-13T15:24:04.0000000+00:00</time></trkpt><trkpt lat="38.96194878" lon="-0.49689992"><ele>269.4</ele><time>2022-11-13T15:24:05.0000000+00:00</time></trkpt><trkpt lat="38.96195356" lon="-0.49689909"><ele>269.4</ele><time>2022-11-13T15:24:06.0000000+00:00</time></trkpt><trkpt lat="38.96195205" lon="-0.49691241"><ele>269.4</ele><time>2022-11-13T15:24:07.0000000+00:00</time></trkpt><trkpt lat="38.96195507" lon="-0.4969151"><ele>269.2</ele><time>2022-11-13T15:24:08.0000000+00:00</time></trkpt><trkpt lat="38.9619642" lon="-0.4969192"><ele>269.2</ele><time>2022-11-13T15:24:09.0000000+00:00</time></trkpt><trkpt lat="38.9619673" lon="-0.49691962"><ele>269.0</ele><time>2022-11-13T15:24:10.0000000+00:00</time></trkpt><trkpt lat="38.96198189" lon="-0.49692205"><ele>269.0</ele><time>2022-11-13T15:24:11.0000000+00:00</time></trkpt><trkpt lat="38.96198742" lon="-0.49692457"><ele>269.0</ele><time>2022-11-13T15:24:12.0000000+00:00</time></trkpt><trkpt lat="38.96199379" lon="-0.49692222"><ele>269.0</ele><time>2022-11-13T15:24:13.0000000+00:00</time></trkpt><trkpt lat="38.96200217" lon="-0.4969244"><ele>269.0</ele><time>2022-11-13T15:24:14.0000000+00:00</time></trkpt><trkpt lat="38.96200997" lon="-0.496927"><ele>269.0</ele><time>2022-11-13T15:24:15.0000000+00:00</time></trkpt><trkpt lat="38.96202036" lon="-0.49693069"><ele>269.0</ele><time>2022-11-13T15:24:16.0000000+00:00</time></trkpt><trkpt lat="38.9620305" lon="-0.49693546"><ele>269.0</ele><time>2022-11-13T15:24:17.0000000+00:00</time></trkpt><trkpt lat="38.96203595" lon="-0.49693789"><ele>269.0</ele><time>2022-11-13T15:24:18.0000000+00:00</time></trkpt><trkpt lat="38.96204392" lon="-0.49693831"><ele>269.0</ele><time>2022-11-13T15:24:19.0000000+00:00</time></trkpt><trkpt lat="38.96205096" lon="-0.49693521"><ele>268.8</ele><time>2022-11-13T15:24:20.0000000+00:00</time></trkpt><trkpt lat="38.9620585" lon="-0.4969337"><ele>268.8</ele><time>2022-11-13T15:24:21.0000000+00:00</time></trkpt><trkpt lat="38.96206873" lon="-0.49692834"><ele>268.8</ele><time>2022-11-13T15:24:22.0000000+00:00</time></trkpt><trkpt lat="38.96207962" lon="-0.4969244"><ele>268.8</ele><time>2022-11-13T15:24:23.0000000+00:00</time></trkpt><trkpt lat="38.96209027" lon="-0.49692364"><ele>268.8</ele><time>2022-11-13T15:24:24.0000000+00:00</time></trkpt><trkpt lat="38.96210603" lon="-0.49692222"><ele>268.8</ele><time>2022-11-13T15:24:25.0000000+00:00</time></trkpt><trkpt lat="38.96212103" lon="-0.4969249"><ele>268.8</ele><time>2022-11-13T15:24:26.0000000+00:00</time></trkpt><trkpt lat="38.96213151" lon="-0.49692851"><ele>268.8</ele><time>2022-11-13T15:24:27.0000000+00:00</time></trkpt><trkpt lat="38.9621398" lon="-0.49693412"><ele>268.8</ele><time>2022-11-13T15:24:28.0000000+00:00</time></trkpt><trkpt lat="38.96214416" lon="-0.49693689"><ele>268.8</ele><time>2022-11-13T15:24:29.0000000+00:00</time></trkpt><trkpt lat="38.96215674" lon="-0.49694175"><ele>268.8</ele><time>2022-11-13T15:24:30.0000000+00:00</time></trkpt><trkpt lat="38.96216964" lon="-0.49694737"><ele>268.8</ele><time>2022-11-13T15:24:31.0000000+00:00</time></trkpt><trkpt lat="38.96218012" lon="-0.49695089"><ele>268.8</ele><time>2022-11-13T15:24:32.0000000+00:00</time></trkpt><trkpt lat="38.9621916" lon="-0.49695382"><ele>268.8</ele><time>2022-11-13T15:24:33.0000000+00:00</time></trkpt><trkpt lat="38.96219932" lon="-0.496956"><ele>268.8</ele><time>2022-11-13T15:24:34.0000000+00:00</time></trkpt><trkpt lat="38.96220694" lon="-0.49696044"><ele>268.6</ele><time>2022-11-13T15:24:35.0000000+00:00</time></trkpt><trkpt lat="38.96221457" lon="-0.49696505"><ele>268.6</ele><time>2022-11-13T15:24:36.0000000+00:00</time></trkpt><trkpt lat="38.9622222" lon="-0.49696983"><ele>268.8</ele><time>2022-11-13T15:24:37.0000000+00:00</time></trkpt><trkpt lat="38.96222807" lon="-0.49696815"><ele>268.8</ele><time>2022-11-13T15:24:38.0000000+00:00</time></trkpt><trkpt lat="38.9622289" lon="-0.49696505"><ele>268.8</ele><time>2022-11-13T15:24:39.0000000+00:00</time></trkpt><trkpt lat="38.96222815" lon="-0.49696547"><ele>269.0</ele><time>2022-11-13T15:24:40.0000000+00:00</time></trkpt><trkpt lat="38.96222689" lon="-0.49696681"><ele>269.0</ele><time>2022-11-13T15:24:41.0000000+00:00</time></trkpt><trkpt lat="38.96222681" lon="-0.49696648"><ele>269.0</ele><time>2022-11-13T15:24:42.0000000+00:00</time></trkpt><trkpt lat="38.96222731" lon="-0.49696622"><ele>269.0</ele><time>2022-11-13T15:24:43.0000000+00:00</time></trkpt><trkpt lat="38.96222765" lon="-0.49696505"><ele>269.2</ele><time>2022-11-13T15:24:44.0000000+00:00</time></trkpt><trkpt lat="38.96223209" lon="-0.49696337"><ele>269.2</ele><time>2022-11-13T15:24:45.0000000+00:00</time></trkpt><trkpt lat="38.96223008" lon="-0.49696354"><ele>269.2</ele><time>2022-11-13T15:24:46.0000000+00:00</time></trkpt><trkpt lat="38.96222832" lon="-0.49696354"><ele>269.2</ele><time>2022-11-13T15:24:47.0000000+00:00</time></trkpt><trkpt lat="38.96222589" lon="-0.49696631"><ele>269.2</ele><time>2022-11-13T15:24:48.0000000+00:00</time></trkpt><trkpt lat="38.96222346" lon="-0.49696891"><ele>269.2</ele><time>2022-11-13T15:24:49.0000000+00:00</time></trkpt><trkpt lat="38.96222111" lon="-0.49697125"><ele>269.2</ele><time>2022-11-13T15:24:50.0000000+00:00</time></trkpt><trkpt lat="38.96221859" lon="-0.49698425"><ele>269.2</ele><time>2022-11-13T15:24:51.0000000+00:00</time></trkpt><trkpt lat="38.96221943" lon="-0.49699221"><ele>269.0</ele><time>2022-11-13T15:24:52.0000000+00:00</time></trkpt><trkpt lat="38.96222656" lon="-0.49700017"><ele>269.0</ele><time>2022-11-13T15:24:53.0000000+00:00</time></trkpt><trkpt lat="38.96223251" lon="-0.49700654"><ele>269.0</ele><time>2022-11-13T15:24:54.0000000+00:00</time></trkpt><trkpt lat="38.96224123" lon="-0.49701308"><ele>269.0</ele><time>2022-11-13T15:24:55.0000000+00:00</time></trkpt><trkpt lat="38.96224986" lon="-0.49701819"><ele>268.8</ele><time>2022-11-13T15:24:56.0000000+00:00</time></trkpt><trkpt lat="38.96225732" lon="-0.49702548"><ele>269.0</ele><time>2022-11-13T15:24:57.0000000+00:00</time></trkpt><trkpt lat="38.96226528" lon="-0.49703026"><ele>269.0</ele><time>2022-11-13T15:24:58.0000000+00:00</time></trkpt><trkpt lat="38.96227425" lon="-0.49703311"><ele>269.0</ele><time>2022-11-13T15:24:59.0000000+00:00</time></trkpt><trkpt lat="38.96228305" lon="-0.4970342"><ele>269.0</ele><time>2022-11-13T15:25:00.0000000+00:00</time></trkpt><trkpt lat="38.96229202" lon="-0.49703579"><ele>269.0</ele><time>2022-11-13T15:25:01.0000000+00:00</time></trkpt><trkpt lat="38.96230258" lon="-0.49703973"><ele>269.0</ele><time>2022-11-13T15:25:02.0000000+00:00</time></trkpt><trkpt lat="38.96231348" lon="-0.49704887"><ele>269.2</ele><time>2022-11-13T15:25:03.0000000+00:00</time></trkpt><trkpt lat="38.96232555" lon="-0.4970591"><ele>269.2</ele><time>2022-11-13T15:25:04.0000000+00:00</time></trkpt><trkpt lat="38.96233552" lon="-0.49706899"><ele>269.2</ele><time>2022-11-13T15:25:05.0000000+00:00</time></trkpt><trkpt lat="38.96234466" lon="-0.4970798"><ele>269.2</ele><time>2022-11-13T15:25:06.0000000+00:00</time></trkpt><trkpt lat="38.96235715" lon="-0.49708642"><ele>269.2</ele><time>2022-11-13T15:25:07.0000000+00:00</time></trkpt><trkpt lat="38.96236813" lon="-0.4970938"><ele>269.2</ele><time>2022-11-13T15:25:08.0000000+00:00</time></trkpt><trkpt lat="38.96237617" lon="-0.49709925"><ele>269.2</ele><time>2022-11-13T15:25:09.0000000+00:00</time></trkpt><trkpt lat="38.96238531" lon="-0.49710536"><ele>269.2</ele><time>2022-11-13T15:25:10.0000000+00:00</time></trkpt><trkpt lat="38.96239394" lon="-0.49710671"><ele>269.2</ele><time>2022-11-13T15:25:11.0000000+00:00</time></trkpt><trkpt lat="38.96239503" lon="-0.49710637"><ele>269.2</ele><time>2022-11-13T15:25:12.0000000+00:00</time></trkpt><trkpt lat="38.96239386" lon="-0.49710637"><ele>269.2</ele><time>2022-11-13T15:25:13.0000000+00:00</time></trkpt><trkpt lat="38.96239285" lon="-0.49710587"><ele>269.2</ele><time>2022-11-13T15:25:14.0000000+00:00</time></trkpt><trkpt lat="38.96239428" lon="-0.49710536"><ele>269.2</ele><time>2022-11-13T15:25:15.0000000+00:00</time></trkpt><trkpt lat="38.96239596" lon="-0.49710603"><ele>269.2</ele><time>2022-11-13T15:25:16.0000000+00:00</time></trkpt><trkpt lat="38.96239755" lon="-0.49710645"><ele>269.0</ele><time>2022-11-13T15:25:17.0000000+00:00</time></trkpt><trkpt lat="38.96239897" lon="-0.49710587"><ele>269.0</ele><time>2022-11-13T15:25:18.0000000+00:00</time></trkpt><trkpt lat="38.96239755" lon="-0.49710595"><ele>269.0</ele><time>2022-11-13T15:25:19.0000000+00:00</time></trkpt><trkpt lat="38.96239637" lon="-0.49710771"><ele>269.0</ele><time>2022-11-13T15:25:20.0000000+00:00</time></trkpt><trkpt lat="38.96239721" lon="-0.49710872"><ele>269.0</ele><time>2022-11-13T15:25:21.0000000+00:00</time></trkpt><trkpt lat="38.96239537" lon="-0.49710981"><ele>269.0</ele><time>2022-11-13T15:25:22.0000000+00:00</time></trkpt><trkpt lat="38.96239453" lon="-0.49711073"><ele>269.0</ele><time>2022-11-13T15:25:23.0000000+00:00</time></trkpt><trkpt lat="38.96239453" lon="-0.49711073"><ele>269.2</ele><time>2022-11-13T15:25:24.0000000+00:00</time></trkpt><trkpt lat="38.96239453" lon="-0.49711073"><ele>269.2</ele><time>2022-11-13T15:25:25.0000000+00:00</time></trkpt><trkpt lat="38.96239453" lon="-0.49711073"><ele>269.2</ele><time>2022-11-13T15:25:26.0000000+00:00</time></trkpt><trkpt lat="38.96239453" lon="-0.49711073"><ele>269.2</ele><time>2022-11-13T15:25:27.0000000+00:00</time></trkpt><trkpt lat="38.96239453" lon="-0.49711073"><ele>269.2</ele><time>2022-11-13T15:25:28.0000000+00:00</time></trkpt><trkpt lat="38.96239453" lon="-0.49711073"><ele>269.2</ele><time>2022-11-13T15:25:29.0000000+00:00</time></trkpt><trkpt lat="38.96239453" lon="-0.49711073"><ele>269.2</ele><time>2022-11-13T15:25:30.0000000+00:00</time></trkpt><trkpt lat="38.96239453" lon="-0.49711073"><ele>269.2</ele><time>2022-11-13T15:25:31.0000000+00:00</time></trkpt><trkpt lat="38.96239453" lon="-0.49711073"><ele>269.2</ele><time>2022-11-13T15:25:32.0000000+00:00</time></trkpt><trkpt lat="38.96239453" lon="-0.49711073"><ele>269.2</ele><time>2022-11-13T15:25:33.0000000+00:00</time></trkpt><trkpt lat="38.96239453" lon="-0.49711073"><ele>269.2</ele><time>2022-11-13T15:25:34.0000000+00:00</time></trkpt><trkpt lat="38.96239453" lon="-0.49711073"><ele>269.0</ele><time>2022-11-13T15:25:35.0000000+00:00</time></trkpt><trkpt lat="38.96239453" lon="-0.49711073"><ele>269.2</ele><time>2022-11-13T15:25:36.0000000+00:00</time></trkpt><trkpt lat="38.96239453" lon="-0.49711073"><ele>269.2</ele><time>2022-11-13T15:25:37.0000000+00:00</time></trkpt><trkpt lat="38.96239453" lon="-0.49711073"><ele>269.2</ele><time>2022-11-13T15:25:38.0000000+00:00</time></trkpt><trkpt lat="38.96239453" lon="-0.49711073"><ele>269.2</ele><time>2022-11-13T15:25:39.0000000+00:00</time></trkpt><trkpt lat="38.96239453" lon="-0.49711073"><ele>269.0</ele><time>2022-11-13T15:25:40.0000000+00:00</time></trkpt><trkpt lat="38.96239453" lon="-0.4971109"><ele>269.0</ele><time>2022-11-13T15:25:41.0000000+00:00</time></trkpt><trkpt lat="38.96239528" lon="-0.49711098"><ele>269.2</ele><time>2022-11-13T15:25:42.0000000+00:00</time></trkpt><trkpt lat="38.96239545" lon="-0.49711106"><ele>269.2</ele><time>2022-11-13T15:25:43.0000000+00:00</time></trkpt><trkpt lat="38.96239554" lon="-0.49711115"><ele>269.0</ele><time>2022-11-13T15:25:44.0000000+00:00</time></trkpt><trkpt lat="38.9623957" lon="-0.49711115"><ele>269.2</ele><time>2022-11-13T15:25:45.0000000+00:00</time></trkpt><trkpt lat="38.9623957" lon="-0.49711123"><ele>269.2</ele><time>2022-11-13T15:25:46.0000000+00:00</time></trkpt><trkpt lat="38.9623957" lon="-0.49711132"><ele>269.2</ele><time>2022-11-13T15:25:47.0000000+00:00</time></trkpt><trkpt lat="38.9623957" lon="-0.49711165"><ele>269.2</ele><time>2022-11-13T15:25:48.0000000+00:00</time></trkpt><trkpt lat="38.96239562" lon="-0.49711182"><ele>269.2</ele><time>2022-11-13T15:25:49.0000000+00:00</time></trkpt><trkpt lat="38.96239554" lon="-0.49711199"><ele>269.2</ele><time>2022-11-13T15:25:50.0000000+00:00</time></trkpt><trkpt lat="38.96239545" lon="-0.49711215"><ele>269.2</ele><time>2022-11-13T15:25:51.0000000+00:00</time></trkpt><trkpt lat="38.96239545" lon="-0.49711215"><ele>269.2</ele><time>2022-11-13T15:25:52.0000000+00:00</time></trkpt><trkpt lat="38.96239545" lon="-0.49711224"><ele>269.2</ele><time>2022-11-13T15:25:53.0000000+00:00</time></trkpt><trkpt lat="38.96239453" lon="-0.49711224"><ele>269.2</ele><time>2022-11-13T15:25:54.0000000+00:00</time></trkpt><trkpt lat="38.96239436" lon="-0.49711224"><ele>269.2</ele><time>2022-11-13T15:25:55.0000000+00:00</time></trkpt><trkpt lat="38.96239428" lon="-0.49711224"><ele>269.2</ele><time>2022-11-13T15:25:56.0000000+00:00</time></trkpt><trkpt lat="38.96239428" lon="-0.49711224"><ele>269.0</ele><time>2022-11-13T15:25:57.0000000+00:00</time></trkpt><trkpt lat="38.96239428" lon="-0.49711224"><ele>269.0</ele><time>2022-11-13T15:25:58.0000000+00:00</time></trkpt><trkpt lat="38.96239428" lon="-0.49711224"><ele>269.0</ele><time>2022-11-13T15:25:59.0000000+00:00</time></trkpt><trkpt lat="38.96239428" lon="-0.49711224"><ele>269.0</ele><time>2022-11-13T15:26:00.0000000+00:00</time></trkpt><trkpt lat="38.96239428" lon="-0.49711224"><ele>269.0</ele><time>2022-11-13T15:26:01.0000000+00:00</time></trkpt><trkpt lat="38.96239428" lon="-0.49711224"><ele>269.0</ele><time>2022-11-13T15:26:02.0000000+00:00</time></trkpt><trkpt lat="38.96239428" lon="-0.49711224"><ele>269.0</ele><time>2022-11-13T15:26:03.0000000+00:00</time></trkpt><trkpt lat="38.96239428" lon="-0.49711224"><ele>269.0</ele><time>2022-11-13T15:26:04.0000000+00:00</time></trkpt><trkpt lat="38.96239311" lon="-0.49711224"><ele>269.0</ele><time>2022-11-13T15:26:05.0000000+00:00</time></trkpt><trkpt lat="38.96239034" lon="-0.49711224"><ele>269.0</ele><time>2022-11-13T15:26:06.0000000+00:00</time></trkpt><trkpt lat="38.96238674" lon="-0.49711073"><ele>269.0</ele><time>2022-11-13T15:26:07.0000000+00:00</time></trkpt><trkpt lat="38.96238213" lon="-0.49710637"><ele>269.0</ele><time>2022-11-13T15:26:08.0000000+00:00</time></trkpt><trkpt lat="38.96237735" lon="-0.49710427"><ele>269.0</ele><time>2022-11-13T15:26:09.0000000+00:00</time></trkpt><trkpt lat="38.96237609" lon="-0.49710285"><ele>269.0</ele><time>2022-11-13T15:26:10.0000000+00:00</time></trkpt><trkpt lat="38.96237584" lon="-0.49710008"><ele>269.0</ele><time>2022-11-13T15:26:11.0000000+00:00</time></trkpt><trkpt lat="38.96237575" lon="-0.49709925"><ele>269.0</ele><time>2022-11-13T15:26:12.0000000+00:00</time></trkpt><trkpt lat="38.96237575" lon="-0.49709807"><ele>269.0</ele><time>2022-11-13T15:26:13.0000000+00:00</time></trkpt><trkpt lat="38.96237575" lon="-0.49709304"><ele>269.0</ele><time>2022-11-13T15:26:14.0000000+00:00</time></trkpt><trkpt lat="38.96237575" lon="-0.49709095"><ele>268.8</ele><time>2022-11-13T15:26:15.0000000+00:00</time></trkpt><trkpt lat="38.96237575" lon="-0.49708986"><ele>268.8</ele><time>2022-11-13T15:26:16.0000000+00:00</time></trkpt><trkpt lat="38.96237575" lon="-0.49708902"><ele>268.6</ele><time>2022-11-13T15:26:17.0000000+00:00</time></trkpt><trkpt lat="38.96237575" lon="-0.49708709"><ele>268.6</ele><time>2022-11-13T15:26:18.0000000+00:00</time></trkpt><trkpt lat="38.96237575" lon="-0.49708474"><ele>268.6</ele><time>2022-11-13T15:26:19.0000000+00:00</time></trkpt><trkpt lat="38.96237575" lon="-0.49708022"><ele>268.6</ele><time>2022-11-13T15:26:20.0000000+00:00</time></trkpt><trkpt lat="38.96237575" lon="-0.49707871"><ele>268.6</ele><time>2022-11-13T15:26:21.0000000+00:00</time></trkpt><trkpt lat="38.96237575" lon="-0.49707779"><ele>268.4</ele><time>2022-11-13T15:26:22.0000000+00:00</time></trkpt><trkpt lat="38.96237575" lon="-0.49707645"><ele>268.4</ele><time>2022-11-13T15:26:23.0000000+00:00</time></trkpt><trkpt lat="38.96237575" lon="-0.49707561"><ele>268.4</ele><time>2022-11-13T15:26:24.0000000+00:00</time></trkpt><trkpt lat="38.96237835" lon="-0.49707527"><ele>268.4</ele><time>2022-11-13T15:26:25.0000000+00:00</time></trkpt><trkpt lat="38.96238313" lon="-0.49707494"><ele>268.6</ele><time>2022-11-13T15:26:26.0000000+00:00</time></trkpt><trkpt lat="38.96238774" lon="-0.49707469"><ele>268.6</ele><time>2022-11-13T15:26:27.0000000+00:00</time></trkpt><trkpt lat="38.96239093" lon="-0.49707444"><ele>268.4</ele><time>2022-11-13T15:26:28.0000000+00:00</time></trkpt><trkpt lat="38.96239252" lon="-0.49707351"><ele>268.4</ele><time>2022-11-13T15:26:29.0000000+00:00</time></trkpt><trkpt lat="38.96239394" lon="-0.49707133"><ele>268.4</ele><time>2022-11-13T15:26:30.0000000+00:00</time></trkpt><trkpt lat="38.96239445" lon="-0.49707008"><ele>268.4</ele><time>2022-11-13T15:26:31.0000000+00:00</time></trkpt><trkpt lat="38.96239495" lon="-0.4970663"><ele>268.2</ele><time>2022-11-13T15:26:32.0000000+00:00</time></trkpt><trkpt lat="38.96239621" lon="-0.49706488"><ele>268.2</ele><time>2022-11-13T15:26:33.0000000+00:00</time></trkpt><trkpt lat="38.96239713" lon="-0.49706396"><ele>268.2</ele><time>2022-11-13T15:26:34.0000000+00:00</time></trkpt><trkpt lat="38.96239755" lon="-0.49706287"><ele>268.2</ele><time>2022-11-13T15:26:35.0000000+00:00</time></trkpt><trkpt lat="38.96239906" lon="-0.49706237"><ele>268.2</ele><time>2022-11-13T15:26:36.0000000+00:00</time></trkpt><trkpt lat="38.96239973" lon="-0.49706186"><ele>268.2</ele><time>2022-11-13T15:26:37.0000000+00:00</time></trkpt><trkpt lat="38.96239998" lon="-0.49706111"><ele>268.2</ele><time>2022-11-13T15:26:38.0000000+00:00</time></trkpt><trkpt lat="38.9624004" lon="-0.49706044"><ele>268.2</ele><time>2022-11-13T15:26:39.0000000+00:00</time></trkpt><trkpt lat="38.96240065" lon="-0.49705977"><ele>268.2</ele><time>2022-11-13T15:26:40.0000000+00:00</time></trkpt><trkpt lat="38.96240132" lon="-0.49705742"><ele>268.2</ele><time>2022-11-13T15:26:41.0000000+00:00</time></trkpt><trkpt lat="38.96240166" lon="-0.49705524"><ele>268.2</ele><time>2022-11-13T15:26:42.0000000+00:00</time></trkpt><trkpt lat="38.96240182" lon="-0.49705423"><ele>268.2</ele><time>2022-11-13T15:26:43.0000000+00:00</time></trkpt><trkpt lat="38.96240199" lon="-0.49705373"><ele>268.2</ele><time>2022-11-13T15:26:44.0000000+00:00</time></trkpt><trkpt lat="38.96240224" lon="-0.49705306"><ele>268.2</ele><time>2022-11-13T15:26:45.0000000+00:00</time></trkpt><trkpt lat="38.96240241" lon="-0.49705256"><ele>268.2</ele><time>2022-11-13T15:26:46.0000000+00:00</time></trkpt><trkpt lat="38.96240249" lon="-0.49705231"><ele>268.2</ele><time>2022-11-13T15:26:47.0000000+00:00</time></trkpt><trkpt lat="38.96240249" lon="-0.49705214"><ele>268.2</ele><time>2022-11-13T15:26:48.0000000+00:00</time></trkpt><trkpt lat="38.96240258" lon="-0.49705189"><ele>268.0</ele><time>2022-11-13T15:26:49.0000000+00:00</time></trkpt><trkpt lat="38.96240274" lon="-0.49705172"><ele>268.2</ele><time>2022-11-13T15:26:50.0000000+00:00</time></trkpt><trkpt lat="38.96240291" lon="-0.49704954"><ele>268.2</ele><time>2022-11-13T15:26:51.0000000+00:00</time></trkpt><trkpt lat="38.962403" lon="-0.49704786"><ele>268.2</ele><time>2022-11-13T15:26:52.0000000+00:00</time></trkpt><trkpt lat="38.96240325" lon="-0.49704694"><ele>268.2</ele><time>2022-11-13T15:26:53.0000000+00:00</time></trkpt><trkpt lat="38.96240342" lon="-0.49704636"><ele>268.2</ele><time>2022-11-13T15:26:54.0000000+00:00</time></trkpt><trkpt lat="38.96240342" lon="-0.49704594"><ele>268.2</ele><time>2022-11-13T15:26:55.0000000+00:00</time></trkpt><trkpt lat="38.9624035" lon="-0.49704569"><ele>268.2</ele><time>2022-11-13T15:26:56.0000000+00:00</time></trkpt><trkpt lat="38.9624035" lon="-0.49704518"><ele>268.2</ele><time>2022-11-13T15:26:57.0000000+00:00</time></trkpt><trkpt lat="38.9624035" lon="-0.49704468"><ele>268.2</ele><time>2022-11-13T15:26:58.0000000+00:00</time></trkpt><trkpt lat="38.9624035" lon="-0.49704418"><ele>268.2</ele><time>2022-11-13T15:26:59.0000000+00:00</time></trkpt><trkpt lat="38.9624035" lon="-0.49704334"><ele>268.2</ele><time>2022-11-13T15:27:00.0000000+00:00</time></trkpt><trkpt lat="38.9624035" lon="-0.49704242"><ele>268.2</ele><time>2022-11-13T15:27:01.0000000+00:00</time></trkpt><trkpt lat="38.96240342" lon="-0.49704175"><ele>268.2</ele><time>2022-11-13T15:27:02.0000000+00:00</time></trkpt><trkpt lat="38.96240325" lon="-0.49703923"><ele>268.2</ele><time>2022-11-13T15:27:03.0000000+00:00</time></trkpt><trkpt lat="38.96240308" lon="-0.49703739"><ele>268.2</ele><time>2022-11-13T15:27:04.0000000+00:00</time></trkpt><trkpt lat="38.96240283" lon="-0.49703621"><ele>268.2</ele><time>2022-11-13T15:27:05.0000000+00:00</time></trkpt><trkpt lat="38.96240266" lon="-0.49703546"><ele>268.2</ele><time>2022-11-13T15:27:06.0000000+00:00</time></trkpt><trkpt lat="38.96240241" lon="-0.49703512"><ele>268.2</ele><time>2022-11-13T15:27:07.0000000+00:00</time></trkpt><trkpt lat="38.96240207" lon="-0.49703479"><ele>268.2</ele><time>2022-11-13T15:27:08.0000000+00:00</time></trkpt><trkpt lat="38.96240174" lon="-0.49703454"><ele>268.2</ele><time>2022-11-13T15:27:09.0000000+00:00</time></trkpt><trkpt lat="38.96240124" lon="-0.4970342"><ele>268.2</ele><time>2022-11-13T15:27:10.0000000+00:00</time></trkpt><trkpt lat="38.96240057" lon="-0.49703403"><ele>268.2</ele><time>2022-11-13T15:27:11.0000000+00:00</time></trkpt><trkpt lat="38.96240015" lon="-0.49703395"><ele>268.2</ele><time>2022-11-13T15:27:12.0000000+00:00</time></trkpt><trkpt lat="38.96239989" lon="-0.49703387"><ele>268.2</ele><time>2022-11-13T15:27:13.0000000+00:00</time></trkpt><trkpt lat="38.96239973" lon="-0.4970337"><ele>268.2</ele><time>2022-11-13T15:27:14.0000000+00:00</time></trkpt><trkpt lat="38.96239948" lon="-0.49703345"><ele>268.2</ele><time>2022-11-13T15:27:15.0000000+00:00</time></trkpt><trkpt lat="38.96239906" lon="-0.49703328"><ele>268.2</ele><time>2022-11-13T15:27:16.0000000+00:00</time></trkpt><trkpt lat="38.96239813" lon="-0.49703286"><ele>268.2</ele><time>2022-11-13T15:27:17.0000000+00:00</time></trkpt><trkpt lat="38.96239755" lon="-0.49703261"><ele>268.2</ele><time>2022-11-13T15:27:18.0000000+00:00</time></trkpt><trkpt lat="38.96239688" lon="-0.49703244"><ele>268.2</ele><time>2022-11-13T15:27:19.0000000+00:00</time></trkpt><trkpt lat="38.96239621" lon="-0.49703244"><ele>268.2</ele><time>2022-11-13T15:27:20.0000000+00:00</time></trkpt><trkpt lat="38.9623957" lon="-0.49703236"><ele>268.2</ele><time>2022-11-13T15:27:21.0000000+00:00</time></trkpt><trkpt lat="38.96239445" lon="-0.49703236"><ele>268.2</ele><time>2022-11-13T15:27:22.0000000+00:00</time></trkpt><trkpt lat="38.96239227" lon="-0.49703236"><ele>268.2</ele><time>2022-11-13T15:27:23.0000000+00:00</time></trkpt><trkpt lat="38.96239051" lon="-0.49703236"><ele>268.2</ele><time>2022-11-13T15:27:24.0000000+00:00</time></trkpt><trkpt lat="38.96238883" lon="-0.49703227"><ele>268.2</ele><time>2022-11-13T15:27:25.0000000+00:00</time></trkpt><trkpt lat="38.96238774" lon="-0.49703227"><ele>268.2</ele><time>2022-11-13T15:27:26.0000000+00:00</time></trkpt><trkpt lat="38.96238707" lon="-0.49703227"><ele>268.0</ele><time>2022-11-13T15:27:27.0000000+00:00</time></trkpt><trkpt lat="38.96238665" lon="-0.49703202"><ele>268.0</ele><time>2022-11-13T15:27:28.0000000+00:00</time></trkpt><trkpt lat="38.9623864" lon="-0.49703152"><ele>268.0</ele><time>2022-11-13T15:27:29.0000000+00:00</time></trkpt><trkpt lat="38.96238623" lon="-0.4970311"><ele>268.0</ele><time>2022-11-13T15:27:30.0000000+00:00</time></trkpt><trkpt lat="38.96238615" lon="-0.49703068"><ele>268.0</ele><time>2022-11-13T15:27:31.0000000+00:00</time></trkpt><trkpt lat="38.96238615" lon="-0.49703035"><ele>268.0</ele><time>2022-11-13T15:27:32.0000000+00:00</time></trkpt><trkpt lat="38.96238606" lon="-0.49703018"><ele>268.0</ele><time>2022-11-13T15:27:33.0000000+00:00</time></trkpt><trkpt lat="38.96238606" lon="-0.49703026"><ele>268.0</ele><time>2022-11-13T15:27:34.0000000+00:00</time></trkpt><trkpt lat="38.96238606" lon="-0.49703043"><ele>268.0</ele><time>2022-11-13T15:27:35.0000000+00:00</time></trkpt><trkpt lat="38.96238606" lon="-0.49703085"><ele>268.0</ele><time>2022-11-13T15:27:36.0000000+00:00</time></trkpt><trkpt lat="38.96238598" lon="-0.49703135"><ele>268.0</ele><time>2022-11-13T15:27:37.0000000+00:00</time></trkpt><trkpt lat="38.96238598" lon="-0.49703211"><ele>268.0</ele><time>2022-11-13T15:27:38.0000000+00:00</time></trkpt><trkpt lat="38.96238598" lon="-0.49703311"><ele>268.0</ele><time>2022-11-13T15:27:39.0000000+00:00</time></trkpt><trkpt lat="38.96238615" lon="-0.4970342"><ele>268.0</ele><time>2022-11-13T15:27:40.0000000+00:00</time></trkpt><trkpt lat="38.96238665" lon="-0.49703521"><ele>268.0</ele><time>2022-11-13T15:27:41.0000000+00:00</time></trkpt><trkpt lat="38.96238808" lon="-0.49703596"><ele>268.0</ele><time>2022-11-13T15:27:42.0000000+00:00</time></trkpt><trkpt lat="38.96238984" lon="-0.49703663"><ele>268.0</ele><time>2022-11-13T15:27:43.0000000+00:00</time></trkpt><trkpt lat="38.96239118" lon="-0.49703739"><ele>268.0</ele><time>2022-11-13T15:27:44.0000000+00:00</time></trkpt><trkpt lat="38.9623921" lon="-0.49703814"><ele>268.0</ele><time>2022-11-13T15:27:45.0000000+00:00</time></trkpt><trkpt lat="38.96239285" lon="-0.49703873"><ele>268.0</ele><time>2022-11-13T15:27:46.0000000+00:00</time></trkpt><trkpt lat="38.96239327" lon="-0.49704074"><ele>268.0</ele><time>2022-11-13T15:27:47.0000000+00:00</time></trkpt><trkpt lat="38.96239369" lon="-0.49704351"><ele>268.0</ele><time>2022-11-13T15:27:48.0000000+00:00</time></trkpt><trkpt lat="38.96239403" lon="-0.49704686"><ele>268.0</ele><time>2022-11-13T15:27:49.0000000+00:00</time></trkpt><trkpt lat="38.96239428" lon="-0.49704946"><ele>268.0</ele><time>2022-11-13T15:27:50.0000000+00:00</time></trkpt><trkpt lat="38.96239445" lon="-0.49705147"><ele>268.0</ele><time>2022-11-13T15:27:51.0000000+00:00</time></trkpt><trkpt lat="38.96239461" lon="-0.49705306"><ele>268.0</ele><time>2022-11-13T15:27:52.0000000+00:00</time></trkpt><trkpt lat="38.96239478" lon="-0.49705457"><ele>268.0</ele><time>2022-11-13T15:27:53.0000000+00:00</time></trkpt><trkpt lat="38.96239495" lon="-0.4970565"><ele>268.0</ele><time>2022-11-13T15:27:54.0000000+00:00</time></trkpt><trkpt lat="38.96239503" lon="-0.49705884"><ele>268.0</ele><time>2022-11-13T15:27:55.0000000+00:00</time></trkpt><trkpt lat="38.96239512" lon="-0.49706153"><ele>268.0</ele><time>2022-11-13T15:27:56.0000000+00:00</time></trkpt><trkpt lat="38.96239512" lon="-0.49706362"><ele>268.0</ele><time>2022-11-13T15:27:57.0000000+00:00</time></trkpt><trkpt lat="38.96239512" lon="-0.49706521"><ele>268.0</ele><time>2022-11-13T15:27:58.0000000+00:00</time></trkpt><trkpt lat="38.96239512" lon="-0.49706731"><ele>268.0</ele><time>2022-11-13T15:27:59.0000000+00:00</time></trkpt><trkpt lat="38.96239512" lon="-0.49706991"><ele>268.0</ele><time>2022-11-13T15:28:00.0000000+00:00</time></trkpt><trkpt lat="38.96239528" lon="-0.49707251"><ele>268.0</ele><time>2022-11-13T15:28:01.0000000+00:00</time></trkpt><trkpt lat="38.96239545" lon="-0.49707444"><ele>268.0</ele><time>2022-11-13T15:28:02.0000000+00:00</time></trkpt><trkpt lat="38.96239562" lon="-0.49707594"><ele>268.0</ele><time>2022-11-13T15:28:03.0000000+00:00</time></trkpt><trkpt lat="38.96239587" lon="-0.49707754"><ele>268.0</ele><time>2022-11-13T15:28:04.0000000+00:00</time></trkpt><trkpt lat="38.96239612" lon="-0.49707905"><ele>268.0</ele><time>2022-11-13T15:28:05.0000000+00:00</time></trkpt><trkpt lat="38.96239646" lon="-0.4970803"><ele>268.0</ele><time>2022-11-13T15:28:06.0000000+00:00</time></trkpt><trkpt lat="38.96239671" lon="-0.49708148"><ele>268.0</ele><time>2022-11-13T15:28:07.0000000+00:00</time></trkpt><trkpt lat="38.96239696" lon="-0.4970824"><ele>268.0</ele><time>2022-11-13T15:28:08.0000000+00:00</time></trkpt><trkpt lat="38.96239721" lon="-0.49708349"><ele>268.0</ele><time>2022-11-13T15:28:09.0000000+00:00</time></trkpt><trkpt lat="38.96239746" lon="-0.49708474"><ele>268.0</ele><time>2022-11-13T15:28:10.0000000+00:00</time></trkpt><trkpt lat="38.96239772" lon="-0.497086"><ele>268.0</ele><time>2022-11-13T15:28:11.0000000+00:00</time></trkpt><trkpt lat="38.96239805" lon="-0.49708726"><ele>268.0</ele><time>2022-11-13T15:28:12.0000000+00:00</time></trkpt><trkpt lat="38.9623983" lon="-0.49708852"><ele>268.0</ele><time>2022-11-13T15:28:13.0000000+00:00</time></trkpt><trkpt lat="38.96239839" lon="-0.49708944"><ele>268.0</ele><time>2022-11-13T15:28:14.0000000+00:00</time></trkpt><trkpt lat="38.96239839" lon="-0.49709036"><ele>268.0</ele><time>2022-11-13T15:28:15.0000000+00:00</time></trkpt><trkpt lat="38.9623983" lon="-0.49709112"><ele>268.0</ele><time>2022-11-13T15:28:16.0000000+00:00</time></trkpt><trkpt lat="38.96239822" lon="-0.4970917"><ele>268.0</ele><time>2022-11-13T15:28:17.0000000+00:00</time></trkpt><trkpt lat="38.96239822" lon="-0.49709229"><ele>268.0</ele><time>2022-11-13T15:28:18.0000000+00:00</time></trkpt><trkpt lat="38.96239813" lon="-0.49709288"><ele>268.0</ele><time>2022-11-13T15:28:19.0000000+00:00</time></trkpt><trkpt lat="38.96239813" lon="-0.49709329"><ele>268.0</ele><time>2022-11-13T15:28:20.0000000+00:00</time></trkpt><trkpt lat="38.96239805" lon="-0.4970938"><ele>268.0</ele><time>2022-11-13T15:28:21.0000000+00:00</time></trkpt><trkpt lat="38.96239797" lon="-0.49709422"><ele>268.0</ele><time>2022-11-13T15:28:22.0000000+00:00</time></trkpt><trkpt lat="38.96239788" lon="-0.49709455"><ele>268.0</ele><time>2022-11-13T15:28:23.0000000+00:00</time></trkpt><trkpt lat="38.9623978" lon="-0.49709497"><ele>268.0</ele><time>2022-11-13T15:28:24.0000000+00:00</time></trkpt><trkpt lat="38.9623978" lon="-0.49709522"><ele>268.0</ele><time>2022-11-13T15:28:25.0000000+00:00</time></trkpt><trkpt lat="38.96239772" lon="-0.49709547"><ele>268.0</ele><time>2022-11-13T15:28:26.0000000+00:00</time></trkpt><trkpt lat="38.96239772" lon="-0.49709573"><ele>268.0</ele><time>2022-11-13T15:28:27.0000000+00:00</time></trkpt><trkpt lat="38.96239772" lon="-0.49709589"><ele>268.0</ele><time>2022-11-13T15:28:28.0000000+00:00</time></trkpt><trkpt lat="38.96239763" lon="-0.49709606"><ele>268.0</ele><time>2022-11-13T15:28:29.0000000+00:00</time></trkpt><trkpt lat="38.96239755" lon="-0.49709614"><ele>268.0</ele><time>2022-11-13T15:28:30.0000000+00:00</time></trkpt><trkpt lat="38.96239746" lon="-0.49709631"><ele>268.0</ele><time>2022-11-13T15:28:31.0000000+00:00</time></trkpt><trkpt lat="38.96239738" lon="-0.4970964"><ele>268.0</ele><time>2022-11-13T15:28:32.0000000+00:00</time></trkpt><trkpt lat="38.96239721" lon="-0.49709648"><ele>268.0</ele><time>2022-11-13T15:28:33.0000000+00:00</time></trkpt><trkpt lat="38.96239713" lon="-0.49709656"><ele>268.0</ele><time>2022-11-13T15:28:34.0000000+00:00</time></trkpt><trkpt lat="38.96239713" lon="-0.49709656"><ele>268.0</ele><time>2022-11-13T15:28:35.0000000+00:00</time></trkpt><trkpt lat="38.96239705" lon="-0.49709665"><ele>268.0</ele><time>2022-11-13T15:28:36.0000000+00:00</time></trkpt><trkpt lat="38.96239696" lon="-0.49709665"><ele>268.0</ele><time>2022-11-13T15:28:37.0000000+00:00</time></trkpt><trkpt lat="38.96239696" lon="-0.49709673"><ele>268.0</ele><time>2022-11-13T15:28:38.0000000+00:00</time></trkpt><trkpt lat="38.96239688" lon="-0.49709673"><ele>268.0</ele><time>2022-11-13T15:28:39.0000000+00:00</time></trkpt><trkpt lat="38.96239688" lon="-0.49709673"><ele>268.0</ele><time>2022-11-13T15:28:40.0000000+00:00</time></trkpt><trkpt lat="38.96239688" lon="-0.49709673"><ele>268.0</ele><time>2022-11-13T15:28:41.0000000+00:00</time></trkpt><trkpt lat="38.96239688" lon="-0.49709665"><ele>268.0</ele><time>2022-11-13T15:28:42.0000000+00:00</time></trkpt><trkpt lat="38.96239688" lon="-0.49709665"><ele>268.0</ele><time>2022-11-13T15:28:43.0000000+00:00</time></trkpt><trkpt lat="38.96239705" lon="-0.49709665"><ele>268.0</ele><time>2022-11-13T15:28:44.0000000+00:00</time></trkpt><trkpt lat="38.96239721" lon="-0.49709673"><ele>268.0</ele><time>2022-11-13T15:28:45.0000000+00:00</time></trkpt><trkpt lat="38.9623973" lon="-0.49709673"><ele>268.0</ele><time>2022-11-13T15:28:46.0000000+00:00</time></trkpt><trkpt lat="38.9623973" lon="-0.49709681"><ele>268.0</ele><time>2022-11-13T15:28:47.0000000+00:00</time></trkpt><trkpt lat="38.96239738" lon="-0.49709681"><ele>268.0</ele><time>2022-11-13T15:28:48.0000000+00:00</time></trkpt><trkpt lat="38.96239755" lon="-0.49709681"><ele>268.0</ele><time>2022-11-13T15:28:49.0000000+00:00</time></trkpt><trkpt lat="38.96239772" lon="-0.49709681"><ele>268.0</ele><time>2022-11-13T15:28:50.0000000+00:00</time></trkpt><trkpt lat="38.9623978" lon="-0.49709673"><ele>268.0</ele><time>2022-11-13T15:28:51.0000000+00:00</time></trkpt><trkpt lat="38.96240383" lon="-0.49709313"><ele>268.0</ele><time>2022-11-13T15:28:52.0000000+00:00</time></trkpt><trkpt lat="38.962403" lon="-0.49708592"><ele>268.0</ele><time>2022-11-13T15:28:53.0000000+00:00</time></trkpt><trkpt lat="38.9623978" lon="-0.49707217"><ele>268.0</ele><time>2022-11-13T15:28:54.0000000+00:00</time></trkpt><trkpt lat="38.96239528" lon="-0.49706102"><ele>268.0</ele><time>2022-11-13T15:28:55.0000000+00:00</time></trkpt><trkpt lat="38.96239998" lon="-0.49705801"><ele>268.0</ele><time>2022-11-13T15:28:56.0000000+00:00</time></trkpt><trkpt lat="38.96240786" lon="-0.49705566"><ele>268.0</ele><time>2022-11-13T15:28:57.0000000+00:00</time></trkpt><trkpt lat="38.96241456" lon="-0.49705968"><ele>268.0</ele><time>2022-11-13T15:28:58.0000000+00:00</time></trkpt><trkpt lat="38.9624237" lon="-0.4970658"><ele>268.0</ele><time>2022-11-13T15:28:59.0000000+00:00</time></trkpt><trkpt lat="38.96242613" lon="-0.49706555"><ele>268.0</ele><time>2022-11-13T15:29:00.0000000+00:00</time></trkpt><trkpt lat="38.96242797" lon="-0.49706781"><ele>268.0</ele><time>2022-11-13T15:29:01.0000000+00:00</time></trkpt><trkpt lat="38.9624289" lon="-0.49707117"><ele>268.0</ele><time>2022-11-13T15:29:02.0000000+00:00</time></trkpt><trkpt lat="38.96242898" lon="-0.49707477"><ele>268.0</ele><time>2022-11-13T15:29:03.0000000+00:00</time></trkpt><trkpt lat="38.96243032" lon="-0.49708122"><ele>268.0</ele><time>2022-11-13T15:29:04.0000000+00:00</time></trkpt><trkpt lat="38.96243082" lon="-0.49708391"><ele>268.0</ele><time>2022-11-13T15:29:05.0000000+00:00</time></trkpt><trkpt lat="38.96243451" lon="-0.49708089"><ele>268.0</ele><time>2022-11-13T15:29:06.0000000+00:00</time></trkpt><trkpt lat="38.96243451" lon="-0.49707837"><ele>268.0</ele><time>2022-11-13T15:29:07.0000000+00:00</time></trkpt><trkpt lat="38.96243979" lon="-0.49708349"><ele>268.0</ele><time>2022-11-13T15:29:08.0000000+00:00</time></trkpt><trkpt lat="38.96243862" lon="-0.49708558"><ele>268.0</ele><time>2022-11-13T15:29:09.0000000+00:00</time></trkpt><trkpt lat="38.96243719" lon="-0.49708726"><ele>268.0</ele><time>2022-11-13T15:29:10.0000000+00:00</time></trkpt><trkpt lat="38.9624351" lon="-0.49708994"><ele>268.0</ele><time>2022-11-13T15:29:11.0000000+00:00</time></trkpt><trkpt lat="38.96243518" lon="-0.4970912"><ele>268.0</ele><time>2022-11-13T15:29:12.0000000+00:00</time></trkpt><trkpt lat="38.96244021" lon="-0.4970891"><ele>268.0</ele><time>2022-11-13T15:29:13.0000000+00:00</time></trkpt><trkpt lat="38.96244088" lon="-0.49708759"><ele>268.0</ele><time>2022-11-13T15:29:14.0000000+00:00</time></trkpt><trkpt lat="38.96244105" lon="-0.49708458"><ele>268.0</ele><time>2022-11-13T15:29:15.0000000+00:00</time></trkpt><trkpt lat="38.96244021" lon="-0.49708315"><ele>268.0</ele><time>2022-11-13T15:29:16.0000000+00:00</time></trkpt><trkpt lat="38.96244021" lon="-0.49708315"><ele>268.0</ele><time>2022-11-13T15:29:17.0000000+00:00</time></trkpt><trkpt lat="38.96244021" lon="-0.49708315"><ele>268.0</ele><time>2022-11-13T15:29:18.0000000+00:00</time></trkpt><trkpt lat="38.96244021" lon="-0.49708315"><ele>268.0</ele><time>2022-11-13T15:29:19.0000000+00:00</time></trkpt><trkpt lat="38.96244021" lon="-0.49708315"><ele>268.0</ele><time>2022-11-13T15:29:20.0000000+00:00</time></trkpt><trkpt lat="38.96244021" lon="-0.49708315"><ele>268.0</ele><time>2022-11-13T15:29:21.0000000+00:00</time></trkpt><trkpt lat="38.96244021" lon="-0.49708315"><ele>268.0</ele><time>2022-11-13T15:29:22.0000000+00:00</time></trkpt><trkpt lat="38.96244021" lon="-0.49708315"><ele>268.0</ele><time>2022-11-13T15:29:23.0000000+00:00</time></trkpt><trkpt lat="38.96244021" lon="-0.49708315"><ele>268.0</ele><time>2022-11-13T15:29:24.0000000+00:00</time></trkpt><trkpt lat="38.96244021" lon="-0.49708315"><ele>268.0</ele><time>2022-11-13T15:29:25.0000000+00:00</time></trkpt><trkpt lat="38.96244021" lon="-0.49708315"><ele>268.0</ele><time>2022-11-13T15:29:26.0000000+00:00</time></trkpt><trkpt lat="38.96244021" lon="-0.49708315"><ele>268.0</ele><time>2022-11-13T15:29:27.0000000+00:00</time></trkpt><trkpt lat="38.96244013" lon="-0.49708315"><ele>268.0</ele><time>2022-11-13T15:29:28.0000000+00:00</time></trkpt><trkpt lat="38.96244013" lon="-0.49708315"><ele>268.0</ele><time>2022-11-13T15:29:29.0000000+00:00</time></trkpt><trkpt lat="38.96244013" lon="-0.49708315"><ele>268.0</ele><time>2022-11-13T15:29:30.0000000+00:00</time></trkpt><trkpt lat="38.96244013" lon="-0.49708315"><ele>268.0</ele><time>2022-11-13T15:29:31.0000000+00:00</time></trkpt><trkpt lat="38.96244013" lon="-0.49707963"><ele>268.0</ele><time>2022-11-13T15:29:32.0000000+00:00</time></trkpt><trkpt lat="38.96244013" lon="-0.49707779"><ele>268.0</ele><time>2022-11-13T15:29:33.0000000+00:00</time></trkpt><trkpt lat="38.96244013" lon="-0.49707544"><ele>268.0</ele><time>2022-11-13T15:29:34.0000000+00:00</time></trkpt><trkpt lat="38.96244013" lon="-0.49707485"><ele>268.0</ele><time>2022-11-13T15:29:35.0000000+00:00</time></trkpt><trkpt lat="38.96244013" lon="-0.4970746"><ele>268.0</ele><time>2022-11-13T15:29:36.0000000+00:00</time></trkpt><trkpt lat="38.96244013" lon="-0.49707452"><ele>268.0</ele><time>2022-11-13T15:29:37.0000000+00:00</time></trkpt><trkpt lat="38.96244013" lon="-0.49707452"><ele>268.0</ele><time>2022-11-13T15:29:38.0000000+00:00</time></trkpt><trkpt lat="38.96244021" lon="-0.49707452"><ele>268.0</ele><time>2022-11-13T15:29:39.0000000+00:00</time></trkpt><trkpt lat="38.96244021" lon="-0.49707452"><ele>268.0</ele><time>2022-11-13T15:29:40.0000000+00:00</time></trkpt><trkpt lat="38.9624403" lon="-0.49707452"><ele>268.0</ele><time>2022-11-13T15:29:41.0000000+00:00</time></trkpt><trkpt lat="38.9624403" lon="-0.49707452"><ele>268.0</ele><time>2022-11-13T15:29:42.0000000+00:00</time></trkpt><trkpt lat="38.9624408" lon="-0.49707452"><ele>268.0</ele><time>2022-11-13T15:29:43.0000000+00:00</time></trkpt><trkpt lat="38.96244105" lon="-0.49707452"><ele>268.0</ele><time>2022-11-13T15:29:44.0000000+00:00</time></trkpt><trkpt lat="38.96244273" lon="-0.49707452"><ele>268.0</ele><time>2022-11-13T15:29:45.0000000+00:00</time></trkpt><trkpt lat="38.96244566" lon="-0.49707452"><ele>268.0</ele><time>2022-11-13T15:29:46.0000000+00:00</time></trkpt><trkpt lat="38.96244658" lon="-0.49707444"><ele>268.0</ele><time>2022-11-13T15:29:47.0000000+00:00</time></trkpt><trkpt lat="38.96244683" lon="-0.49707435"><ele>268.0</ele><time>2022-11-13T15:29:48.0000000+00:00</time></trkpt><trkpt lat="38.962447" lon="-0.49707427"><ele>268.0</ele><time>2022-11-13T15:29:49.0000000+00:00</time></trkpt><trkpt lat="38.962447" lon="-0.49707427"><ele>268.0</ele><time>2022-11-13T15:29:50.0000000+00:00</time></trkpt><trkpt lat="38.962447" lon="-0.49707427"><ele>268.0</ele><time>2022-11-13T15:29:51.0000000+00:00</time></trkpt><trkpt lat="38.962447" lon="-0.49707427"><ele>268.0</ele><time>2022-11-13T15:29:52.0000000+00:00</time></trkpt><trkpt lat="38.962447" lon="-0.49707427"><ele>268.0</ele><time>2022-11-13T15:29:53.0000000+00:00</time></trkpt><trkpt lat="38.962447" lon="-0.49707427"><ele>268.0</ele><time>2022-11-13T15:29:54.0000000+00:00</time></trkpt><trkpt lat="38.962447" lon="-0.49707427"><ele>268.0</ele><time>2022-11-13T15:29:55.0000000+00:00</time></trkpt><trkpt lat="38.96244708" lon="-0.49707427"><ele>268.0</ele><time>2022-11-13T15:29:56.0000000+00:00</time></trkpt><trkpt lat="38.96244717" lon="-0.49707368"><ele>268.0</ele><time>2022-11-13T15:29:57.0000000+00:00</time></trkpt><trkpt lat="38.96244717" lon="-0.49707351"><ele>268.0</ele><time>2022-11-13T15:29:58.0000000+00:00</time></trkpt><trkpt lat="38.96244717" lon="-0.49707335"><ele>268.0</ele><time>2022-11-13T15:29:59.0000000+00:00</time></trkpt><trkpt lat="38.96244717" lon="-0.49707318"><ele>268.0</ele><time>2022-11-13T15:30:00.0000000+00:00</time></trkpt><trkpt lat="38.96244717" lon="-0.49707309"><ele>268.0</ele><time>2022-11-13T15:30:01.0000000+00:00</time></trkpt><trkpt lat="38.96244708" lon="-0.49707251"><ele>268.0</ele><time>2022-11-13T15:30:02.0000000+00:00</time></trkpt><trkpt lat="38.96244692" lon="-0.49707209"><ele>268.0</ele><time>2022-11-13T15:30:03.0000000+00:00</time></trkpt><trkpt lat="38.96244667" lon="-0.49707175"><ele>268.0</ele><time>2022-11-13T15:30:04.0000000+00:00</time></trkpt><trkpt lat="38.96244633" lon="-0.4970715"><ele>268.0</ele><time>2022-11-13T15:30:05.0000000+00:00</time></trkpt><trkpt lat="38.96244625" lon="-0.49707133"><ele>268.0</ele><time>2022-11-13T15:30:06.0000000+00:00</time></trkpt><trkpt lat="38.96244616" lon="-0.49707066"><ele>268.0</ele><time>2022-11-13T15:30:07.0000000+00:00</time></trkpt><trkpt lat="38.96244583" lon="-0.49707033"><ele>268.0</ele><time>2022-11-13T15:30:08.0000000+00:00</time></trkpt><trkpt lat="38.96244516" lon="-0.49707008"><ele>268.0</ele><time>2022-11-13T15:30:09.0000000+00:00</time></trkpt><trkpt lat="38.96244491" lon="-0.49706991"><ele>268.0</ele><time>2022-11-13T15:30:10.0000000+00:00</time></trkpt><trkpt lat="38.96244449" lon="-0.49706932"><ele>268.0</ele><time>2022-11-13T15:30:11.0000000+00:00</time></trkpt><trkpt lat="38.96244415" lon="-0.4970689"><ele>268.0</ele><time>2022-11-13T15:30:12.0000000+00:00</time></trkpt><trkpt lat="38.96244315" lon="-0.49706798"><ele>268.0</ele><time>2022-11-13T15:30:13.0000000+00:00</time></trkpt><trkpt lat="38.96244222" lon="-0.49706698"><ele>268.0</ele><time>2022-11-13T15:30:14.0000000+00:00</time></trkpt><trkpt lat="38.96244097" lon="-0.49706429"><ele>268.0</ele><time>2022-11-13T15:30:15.0000000+00:00</time></trkpt><trkpt lat="38.9624403" lon="-0.49706203"><ele>268.0</ele><time>2022-11-13T15:30:16.0000000+00:00</time></trkpt><trkpt lat="38.96244004" lon="-0.49706144"><ele>268.0</ele><time>2022-11-13T15:30:17.0000000+00:00</time></trkpt><trkpt lat="38.96243963" lon="-0.49706119"><ele>268.0</ele><time>2022-11-13T15:30:18.0000000+00:00</time></trkpt><trkpt lat="38.96243937" lon="-0.49706111"><ele>268.0</ele><time>2022-11-13T15:30:19.0000000+00:00</time></trkpt><trkpt lat="38.96243862" lon="-0.49706111"><ele>268.0</ele><time>2022-11-13T15:30:20.0000000+00:00</time></trkpt><trkpt lat="38.96243795" lon="-0.49706111"><ele>268.0</ele><time>2022-11-13T15:30:21.0000000+00:00</time></trkpt><trkpt lat="38.9624377" lon="-0.49706111"><ele>268.0</ele><time>2022-11-13T15:30:22.0000000+00:00</time></trkpt><trkpt lat="38.96243753" lon="-0.49706111"><ele>268.0</ele><time>2022-11-13T15:30:23.0000000+00:00</time></trkpt><trkpt lat="38.96243728" lon="-0.49706086"><ele>268.0</ele><time>2022-11-13T15:30:24.0000000+00:00</time></trkpt><trkpt lat="38.96243711" lon="-0.49706052"><ele>268.0</ele><time>2022-11-13T15:30:25.0000000+00:00</time></trkpt><trkpt lat="38.96243703" lon="-0.49706002"><ele>268.0</ele><time>2022-11-13T15:30:26.0000000+00:00</time></trkpt><trkpt lat="38.96243686" lon="-0.49705977"><ele>268.0</ele><time>2022-11-13T15:30:27.0000000+00:00</time></trkpt><trkpt lat="38.96243686" lon="-0.49705968"><ele>268.0</ele><time>2022-11-13T15:30:28.0000000+00:00</time></trkpt><trkpt lat="38.96243678" lon="-0.49705968"><ele>268.0</ele><time>2022-11-13T15:30:29.0000000+00:00</time></trkpt><trkpt lat="38.96243652" lon="-0.49705968"><ele>268.0</ele><time>2022-11-13T15:30:30.0000000+00:00</time></trkpt><trkpt lat="38.96243636" lon="-0.49705968"><ele>268.0</ele><time>2022-11-13T15:30:31.0000000+00:00</time></trkpt><trkpt lat="38.96243602" lon="-0.4970601"><ele>268.0</ele><time>2022-11-13T15:30:32.0000000+00:00</time></trkpt><trkpt lat="38.96243493" lon="-0.49706027"><ele>268.0</ele><time>2022-11-13T15:30:33.0000000+00:00</time></trkpt><trkpt lat="38.96243434" lon="-0.49706035"><ele>268.0</ele><time>2022-11-13T15:30:34.0000000+00:00</time></trkpt><trkpt lat="38.96243418" lon="-0.49706035"><ele>268.0</ele><time>2022-11-13T15:30:35.0000000+00:00</time></trkpt><trkpt lat="38.96243401" lon="-0.49706035"><ele>268.0</ele><time>2022-11-13T15:30:36.0000000+00:00</time></trkpt><trkpt lat="38.96243384" lon="-0.49706035"><ele>268.0</ele><time>2022-11-13T15:30:37.0000000+00:00</time></trkpt><trkpt lat="38.96243376" lon="-0.49706035"><ele>268.0</ele><time>2022-11-13T15:30:38.0000000+00:00</time></trkpt><trkpt lat="38.96243367" lon="-0.49706035"><ele>268.0</ele><time>2022-11-13T15:30:39.0000000+00:00</time></trkpt><trkpt lat="38.96243351" lon="-0.49706044"><ele>268.0</ele><time>2022-11-13T15:30:40.0000000+00:00</time></trkpt><trkpt lat="38.96243325" lon="-0.49706052"><ele>268.0</ele><time>2022-11-13T15:30:41.0000000+00:00</time></trkpt><trkpt lat="38.96243317" lon="-0.49706069"><ele>268.0</ele><time>2022-11-13T15:30:42.0000000+00:00</time></trkpt><trkpt lat="38.96243284" lon="-0.49706077"><ele>268.0</ele><time>2022-11-13T15:30:43.0000000+00:00</time></trkpt><trkpt lat="38.96243267" lon="-0.49706086"><ele>268.0</ele><time>2022-11-13T15:30:44.0000000+00:00</time></trkpt><trkpt lat="38.96243258" lon="-0.49706094"><ele>268.0</ele><time>2022-11-13T15:30:45.0000000+00:00</time></trkpt><trkpt lat="38.962432" lon="-0.49706094"><ele>268.0</ele><time>2022-11-13T15:30:46.0000000+00:00</time></trkpt><trkpt lat="38.96243175" lon="-0.49706086"><ele>268.0</ele><time>2022-11-13T15:30:47.0000000+00:00</time></trkpt><trkpt lat="38.96243149" lon="-0.49706086"><ele>268.0</ele><time>2022-11-13T15:30:48.0000000+00:00</time></trkpt><trkpt lat="38.96243133" lon="-0.49706086"><ele>268.0</ele><time>2022-11-13T15:30:49.0000000+00:00</time></trkpt><trkpt lat="38.96243066" lon="-0.49706086"><ele>268.0</ele><time>2022-11-13T15:30:50.0000000+00:00</time></trkpt><trkpt lat="38.96243032" lon="-0.49706086"><ele>268.0</ele><time>2022-11-13T15:30:51.0000000+00:00</time></trkpt><trkpt lat="38.9624299" lon="-0.49706086"><ele>268.0</ele><time>2022-11-13T15:30:52.0000000+00:00</time></trkpt><trkpt lat="38.96242906" lon="-0.49706086"><ele>268.0</ele><time>2022-11-13T15:30:53.0000000+00:00</time></trkpt><trkpt lat="38.96242638" lon="-0.49706086"><ele>268.0</ele><time>2022-11-13T15:30:54.0000000+00:00</time></trkpt><trkpt lat="38.96242454" lon="-0.49706086"><ele>268.0</ele><time>2022-11-13T15:30:55.0000000+00:00</time></trkpt><trkpt lat="38.96242362" lon="-0.49706086"><ele>268.0</ele><time>2022-11-13T15:30:56.0000000+00:00</time></trkpt><trkpt lat="38.96242311" lon="-0.49706086"><ele>268.0</ele><time>2022-11-13T15:30:57.0000000+00:00</time></trkpt><trkpt lat="38.96242286" lon="-0.49706086"><ele>268.0</ele><time>2022-11-13T15:30:58.0000000+00:00</time></trkpt><trkpt lat="38.96242211" lon="-0.49706086"><ele>268.0</ele><time>2022-11-13T15:30:59.0000000+00:00</time></trkpt><trkpt lat="38.96242177" lon="-0.49706086"><ele>268.0</ele><time>2022-11-13T15:31:00.0000000+00:00</time></trkpt><trkpt lat="38.96242152" lon="-0.49706086"><ele>268.0</ele><time>2022-11-13T15:31:01.0000000+00:00</time></trkpt><trkpt lat="38.96242043" lon="-0.49706086"><ele>268.0</ele><time>2022-11-13T15:31:02.0000000+00:00</time></trkpt><trkpt lat="38.96241909" lon="-0.49706086"><ele>268.0</ele><time>2022-11-13T15:31:03.0000000+00:00</time></trkpt><trkpt lat="38.96241766" lon="-0.49706094"><ele>268.0</ele><time>2022-11-13T15:31:04.0000000+00:00</time></trkpt><trkpt lat="38.96241657" lon="-0.49706102"><ele>268.0</ele><time>2022-11-13T15:31:05.0000000+00:00</time></trkpt><trkpt lat="38.96241532" lon="-0.49706128"><ele>268.0</ele><time>2022-11-13T15:31:06.0000000+00:00</time></trkpt><trkpt lat="38.96241456" lon="-0.49706144"><ele>268.0</ele><time>2022-11-13T15:31:07.0000000+00:00</time></trkpt><trkpt lat="38.96241381" lon="-0.49706153"><ele>268.0</ele><time>2022-11-13T15:31:08.0000000+00:00</time></trkpt><trkpt lat="38.96241331" lon="-0.49706153"><ele>268.0</ele><time>2022-11-13T15:31:09.0000000+00:00</time></trkpt><trkpt lat="38.96241289" lon="-0.49706161"><ele>268.0</ele><time>2022-11-13T15:31:10.0000000+00:00</time></trkpt><trkpt lat="38.96241255" lon="-0.49706161"><ele>268.0</ele><time>2022-11-13T15:31:11.0000000+00:00</time></trkpt><trkpt lat="38.96241222" lon="-0.49706161"><ele>268.0</ele><time>2022-11-13T15:31:12.0000000+00:00</time></trkpt><trkpt lat="38.96241205" lon="-0.49706136"><ele>268.0</ele><time>2022-11-13T15:31:13.0000000+00:00</time></trkpt><trkpt lat="38.96241196" lon="-0.49706128"><ele>268.0</ele><time>2022-11-13T15:31:14.0000000+00:00</time></trkpt><trkpt lat="38.96241188" lon="-0.49706119"><ele>268.0</ele><time>2022-11-13T15:31:15.0000000+00:00</time></trkpt><trkpt lat="38.96241188" lon="-0.49706102"><ele>268.0</ele><time>2022-11-13T15:31:16.0000000+00:00</time></trkpt><trkpt lat="38.96241188" lon="-0.49706094"><ele>268.0</ele><time>2022-11-13T15:31:17.0000000+00:00</time></trkpt><trkpt lat="38.9624118" lon="-0.49706086"><ele>268.0</ele><time>2022-11-13T15:31:18.0000000+00:00</time></trkpt><trkpt lat="38.9624118" lon="-0.4970606"><ele>268.0</ele><time>2022-11-13T15:31:19.0000000+00:00</time></trkpt><trkpt lat="38.9624118" lon="-0.49706052"><ele>268.0</ele><time>2022-11-13T15:31:20.0000000+00:00</time></trkpt><trkpt lat="38.9624118" lon="-0.49706035"><ele>268.0</ele><time>2022-11-13T15:31:21.0000000+00:00</time></trkpt><trkpt lat="38.9624118" lon="-0.4970601"><ele>268.0</ele><time>2022-11-13T15:31:22.0000000+00:00</time></trkpt><trkpt lat="38.9624118" lon="-0.49705734"><ele>268.0</ele><time>2022-11-13T15:31:23.0000000+00:00</time></trkpt><trkpt lat="38.9624118" lon="-0.4970539"><ele>268.0</ele><time>2022-11-13T15:31:24.0000000+00:00</time></trkpt><trkpt lat="38.96241188" lon="-0.49705147"><ele>268.0</ele><time>2022-11-13T15:31:25.0000000+00:00</time></trkpt><trkpt lat="38.96241213" lon="-0.49704979"><ele>268.0</ele><time>2022-11-13T15:31:26.0000000+00:00</time></trkpt><trkpt lat="38.96241238" lon="-0.49704853"><ele>268.0</ele><time>2022-11-13T15:31:27.0000000+00:00</time></trkpt><trkpt lat="38.96241272" lon="-0.4970477"><ele>268.0</ele><time>2022-11-13T15:31:28.0000000+00:00</time></trkpt><trkpt lat="38.96241289" lon="-0.49704711"><ele>268.0</ele><time>2022-11-13T15:31:29.0000000+00:00</time></trkpt><trkpt lat="38.96241297" lon="-0.49704619"><ele>268.0</ele><time>2022-11-13T15:31:30.0000000+00:00</time></trkpt><trkpt lat="38.96241305" lon="-0.49704543"><ele>268.0</ele><time>2022-11-13T15:31:31.0000000+00:00</time></trkpt><trkpt lat="38.96241314" lon="-0.49704476"><ele>268.0</ele><time>2022-11-13T15:31:32.0000000+00:00</time></trkpt><trkpt lat="38.96241314" lon="-0.49704426"><ele>268.0</ele><time>2022-11-13T15:31:33.0000000+00:00</time></trkpt><trkpt lat="38.96241314" lon="-0.49704309"><ele>268.0</ele><time>2022-11-13T15:31:34.0000000+00:00</time></trkpt><trkpt lat="38.96241322" lon="-0.49704149"><ele>268.0</ele><time>2022-11-13T15:31:35.0000000+00:00</time></trkpt><trkpt lat="38.96241322" lon="-0.49703948"><ele>268.0</ele><time>2022-11-13T15:31:36.0000000+00:00</time></trkpt><trkpt lat="38.96241322" lon="-0.49703714"><ele>268.0</ele><time>2022-11-13T15:31:37.0000000+00:00</time></trkpt><trkpt lat="38.96241322" lon="-0.49703496"><ele>268.0</ele><time>2022-11-13T15:31:38.0000000+00:00</time></trkpt><trkpt lat="38.96241322" lon="-0.49703345"><ele>268.0</ele><time>2022-11-13T15:31:39.0000000+00:00</time></trkpt><trkpt lat="38.96241322" lon="-0.49703211"><ele>268.0</ele><time>2022-11-13T15:31:40.0000000+00:00</time></trkpt><trkpt lat="38.96241322" lon="-0.4970311"><ele>268.0</ele><time>2022-11-13T15:31:41.0000000+00:00</time></trkpt><trkpt lat="38.96241322" lon="-0.49703026"><ele>268.0</ele><time>2022-11-13T15:31:42.0000000+00:00</time></trkpt><trkpt lat="38.96241322" lon="-0.49702942"><ele>268.0</ele><time>2022-11-13T15:31:43.0000000+00:00</time></trkpt><trkpt lat="38.96241322" lon="-0.49702884"><ele>268.0</ele><time>2022-11-13T15:31:44.0000000+00:00</time></trkpt><trkpt lat="38.96241331" lon="-0.49702825"><ele>268.0</ele><time>2022-11-13T15:31:45.0000000+00:00</time></trkpt><trkpt lat="38.96241331" lon="-0.49702792"><ele>268.0</ele><time>2022-11-13T15:31:46.0000000+00:00</time></trkpt><trkpt lat="38.96241331" lon="-0.49702758"><ele>268.0</ele><time>2022-11-13T15:31:47.0000000+00:00</time></trkpt><trkpt lat="38.96241314" lon="-0.49702724"><ele>268.0</ele><time>2022-11-13T15:31:48.0000000+00:00</time></trkpt><trkpt lat="38.96241297" lon="-0.49702708"><ele>268.0</ele><time>2022-11-13T15:31:49.0000000+00:00</time></trkpt><trkpt lat="38.96241289" lon="-0.49702691"><ele>268.0</ele><time>2022-11-13T15:31:50.0000000+00:00</time></trkpt><trkpt lat="38.9624128" lon="-0.49702674"><ele>268.0</ele><time>2022-11-13T15:31:51.0000000+00:00</time></trkpt><trkpt lat="38.96241272" lon="-0.49702666"><ele>268.0</ele><time>2022-11-13T15:31:52.0000000+00:00</time></trkpt><trkpt lat="38.96241272" lon="-0.49702666"><ele>268.0</ele><time>2022-11-13T15:31:53.0000000+00:00</time></trkpt><trkpt lat="38.96241264" lon="-0.49702649"><ele>268.0</ele><time>2022-11-13T15:31:54.0000000+00:00</time></trkpt><trkpt lat="38.96241264" lon="-0.49702649"><ele>268.0</ele><time>2022-11-13T15:31:55.0000000+00:00</time></trkpt><trkpt lat="38.96241264" lon="-0.49702649"><ele>268.0</ele><time>2022-11-13T15:31:56.0000000+00:00</time></trkpt><trkpt lat="38.96241264" lon="-0.49702649"><ele>268.0</ele><time>2022-11-13T15:31:57.0000000+00:00</time></trkpt><trkpt lat="38.96241264" lon="-0.49702649"><ele>268.0</ele><time>2022-11-13T15:31:58.0000000+00:00</time></trkpt><trkpt lat="38.96241272" lon="-0.49702649"><ele>268.0</ele><time>2022-11-13T15:31:59.0000000+00:00</time></trkpt><trkpt lat="38.96241289" lon="-0.49702649"><ele>268.0</ele><time>2022-11-13T15:32:00.0000000+00:00</time></trkpt><trkpt lat="38.96241297" lon="-0.49702666"><ele>268.0</ele><time>2022-11-13T15:32:01.0000000+00:00</time></trkpt><trkpt lat="38.96241314" lon="-0.49702666"><ele>268.0</ele><time>2022-11-13T15:32:02.0000000+00:00</time></trkpt><trkpt lat="38.96241331" lon="-0.49702708"><ele>268.0</ele><time>2022-11-13T15:32:03.0000000+00:00</time></trkpt><trkpt lat="38.96241347" lon="-0.49702808"><ele>268.0</ele><time>2022-11-13T15:32:04.0000000+00:00</time></trkpt><trkpt lat="38.96241373" lon="-0.49702968"><ele>268.0</ele><time>2022-11-13T15:32:05.0000000+00:00</time></trkpt><trkpt lat="38.96241389" lon="-0.4970316"><ele>268.0</ele><time>2022-11-13T15:32:06.0000000+00:00</time></trkpt><trkpt lat="38.96241406" lon="-0.49703311"><ele>268.0</ele><time>2022-11-13T15:32:07.0000000+00:00</time></trkpt><trkpt lat="38.9624144" lon="-0.49703445"><ele>268.0</ele><time>2022-11-13T15:32:08.0000000+00:00</time></trkpt><trkpt lat="38.96241473" lon="-0.49703546"><ele>268.0</ele><time>2022-11-13T15:32:09.0000000+00:00</time></trkpt><trkpt lat="38.96241515" lon="-0.49703638"><ele>268.0</ele><time>2022-11-13T15:32:10.0000000+00:00</time></trkpt><trkpt lat="38.96241557" lon="-0.49703705"><ele>268.0</ele><time>2022-11-13T15:32:11.0000000+00:00</time></trkpt><trkpt lat="38.96241599" lon="-0.49703772"><ele>268.0</ele><time>2022-11-13T15:32:12.0000000+00:00</time></trkpt><trkpt lat="38.96241632" lon="-0.49703823"><ele>268.0</ele><time>2022-11-13T15:32:13.0000000+00:00</time></trkpt><trkpt lat="38.96241657" lon="-0.49703864"><ele>268.0</ele><time>2022-11-13T15:32:14.0000000+00:00</time></trkpt><trkpt lat="38.96241674" lon="-0.49703898"><ele>268.0</ele><time>2022-11-13T15:32:15.0000000+00:00</time></trkpt><trkpt lat="38.96241699" lon="-0.49703931"><ele>268.0</ele><time>2022-11-13T15:32:16.0000000+00:00</time></trkpt><trkpt lat="38.96241716" lon="-0.49703957"><ele>268.0</ele><time>2022-11-13T15:32:17.0000000+00:00</time></trkpt><trkpt lat="38.96241733" lon="-0.49703982"><ele>268.0</ele><time>2022-11-13T15:32:18.0000000+00:00</time></trkpt><trkpt lat="38.9624175" lon="-0.49703999"><ele>268.0</ele><time>2022-11-13T15:32:19.0000000+00:00</time></trkpt><trkpt lat="38.96241766" lon="-0.49704015"><ele>268.0</ele><time>2022-11-13T15:32:20.0000000+00:00</time></trkpt><trkpt lat="38.96241783" lon="-0.49704015"><ele>268.0</ele><time>2022-11-13T15:32:21.0000000+00:00</time></trkpt><trkpt lat="38.962418" lon="-0.49703999"><ele>268.0</ele><time>2022-11-13T15:32:22.0000000+00:00</time></trkpt><trkpt lat="38.96241825" lon="-0.49703965"><ele>268.0</ele><time>2022-11-13T15:32:23.0000000+00:00</time></trkpt><trkpt lat="38.96241842" lon="-0.49703906"><ele>268.0</ele><time>2022-11-13T15:32:24.0000000+00:00</time></trkpt><trkpt lat="38.96241859" lon="-0.49703823"><ele>268.0</ele><time>2022-11-13T15:32:25.0000000+00:00</time></trkpt><trkpt lat="38.96241875" lon="-0.49703739"><ele>268.0</ele><time>2022-11-13T15:32:26.0000000+00:00</time></trkpt><trkpt lat="38.96241892" lon="-0.49703647"><ele>268.0</ele><time>2022-11-13T15:32:27.0000000+00:00</time></trkpt><trkpt lat="38.96241901" lon="-0.49703563"><ele>268.0</ele><time>2022-11-13T15:32:28.0000000+00:00</time></trkpt><trkpt lat="38.96241917" lon="-0.49703496"><ele>268.0</ele><time>2022-11-13T15:32:29.0000000+00:00</time></trkpt><trkpt lat="38.96241926" lon="-0.49703437"><ele>268.0</ele><time>2022-11-13T15:32:30.0000000+00:00</time></trkpt><trkpt lat="38.96241942" lon="-0.49703387"><ele>268.0</ele><time>2022-11-13T15:32:31.0000000+00:00</time></trkpt><trkpt lat="38.96241968" lon="-0.49703336"><ele>268.0</ele><time>2022-11-13T15:32:32.0000000+00:00</time></trkpt><trkpt lat="38.96241993" lon="-0.49703303"><ele>268.0</ele><time>2022-11-13T15:32:33.0000000+00:00</time></trkpt><trkpt lat="38.9624201" lon="-0.49703278"><ele>268.0</ele><time>2022-11-13T15:32:34.0000000+00:00</time></trkpt><trkpt lat="38.96242026" lon="-0.49703261"><ele>268.0</ele><time>2022-11-13T15:32:35.0000000+00:00</time></trkpt><trkpt lat="38.96242035" lon="-0.49703253"><ele>268.0</ele><time>2022-11-13T15:32:36.0000000+00:00</time></trkpt><trkpt lat="38.96242026" lon="-0.49703261"><ele>268.0</ele><time>2022-11-13T15:32:37.0000000+00:00</time></trkpt><trkpt lat="38.96242026" lon="-0.49703269"><ele>268.0</ele><time>2022-11-13T15:32:38.0000000+00:00</time></trkpt><trkpt lat="38.96242035" lon="-0.49703269"><ele>268.0</ele><time>2022-11-13T15:32:39.0000000+00:00</time></trkpt><trkpt lat="38.96242026" lon="-0.49703278"><ele>268.0</ele><time>2022-11-13T15:32:40.0000000+00:00</time></trkpt><trkpt lat="38.96242035" lon="-0.49703286"><ele>268.0</ele><time>2022-11-13T15:32:41.0000000+00:00</time></trkpt><trkpt lat="38.96242035" lon="-0.49703286"><ele>268.0</ele><time>2022-11-13T15:32:42.0000000+00:00</time></trkpt><trkpt lat="38.96242026" lon="-0.49703294"><ele>268.0</ele><time>2022-11-13T15:32:43.0000000+00:00</time></trkpt><trkpt lat="38.96242018" lon="-0.49703311"><ele>268.0</ele><time>2022-11-13T15:32:44.0000000+00:00</time></trkpt><trkpt lat="38.96242018" lon="-0.49703311"><ele>268.0</ele><time>2022-11-13T15:32:45.0000000+00:00</time></trkpt><trkpt lat="38.96242018" lon="-0.49703311"><ele>268.0</ele><time>2022-11-13T15:32:46.0000000+00:00</time></trkpt><trkpt lat="38.96242026" lon="-0.4970332"><ele>268.0</ele><time>2022-11-13T15:32:47.0000000+00:00</time></trkpt><trkpt lat="38.96242035" lon="-0.4970332"><ele>268.0</ele><time>2022-11-13T15:32:48.0000000+00:00</time></trkpt><trkpt lat="38.96242043" lon="-0.49703336"><ele>268.0</ele><time>2022-11-13T15:32:49.0000000+00:00</time></trkpt><trkpt lat="38.96242043" lon="-0.49703336"><ele>268.0</ele><time>2022-11-13T15:32:50.0000000+00:00</time></trkpt><trkpt lat="38.96242043" lon="-0.49703336"><ele>268.0</ele><time>2022-11-13T15:32:51.0000000+00:00</time></trkpt><trkpt lat="38.96242043" lon="-0.49703336"><ele>268.0</ele><time>2022-11-13T15:32:52.0000000+00:00</time></trkpt><trkpt lat="38.96242035" lon="-0.49703328"><ele>268.0</ele><time>2022-11-13T15:32:53.0000000+00:00</time></trkpt><trkpt lat="38.96242035" lon="-0.49703328"><ele>268.0</ele><time>2022-11-13T15:32:54.0000000+00:00</time></trkpt><trkpt lat="38.96242043" lon="-0.49703328"><ele>268.0</ele><time>2022-11-13T15:32:55.0000000+00:00</time></trkpt><trkpt lat="38.9624206" lon="-0.49703328"><ele>268.0</ele><time>2022-11-13T15:32:56.0000000+00:00</time></trkpt><trkpt lat="38.96242068" lon="-0.49703336"><ele>268.0</ele><time>2022-11-13T15:32:57.0000000+00:00</time></trkpt><trkpt lat="38.96242077" lon="-0.49703353"><ele>268.0</ele><time>2022-11-13T15:32:58.0000000+00:00</time></trkpt><trkpt lat="38.96242077" lon="-0.4970337"><ele>268.0</ele><time>2022-11-13T15:32:59.0000000+00:00</time></trkpt><trkpt lat="38.96242077" lon="-0.49703378"><ele>268.0</ele><time>2022-11-13T15:33:00.0000000+00:00</time></trkpt><trkpt lat="38.96242085" lon="-0.49703387"><ele>268.0</ele><time>2022-11-13T15:33:01.0000000+00:00</time></trkpt><trkpt lat="38.96242093" lon="-0.49703395"><ele>268.0</ele><time>2022-11-13T15:33:02.0000000+00:00</time></trkpt><trkpt lat="38.96242093" lon="-0.49703387"><ele>268.0</ele><time>2022-11-13T15:33:03.0000000+00:00</time></trkpt><trkpt lat="38.96242102" lon="-0.49703378"><ele>268.0</ele><time>2022-11-13T15:33:04.0000000+00:00</time></trkpt><trkpt lat="38.96242102" lon="-0.49703395"><ele>268.0</ele><time>2022-11-13T15:33:05.0000000+00:00</time></trkpt><trkpt lat="38.9624211" lon="-0.49703403"><ele>268.0</ele><time>2022-11-13T15:33:06.0000000+00:00</time></trkpt><trkpt lat="38.9624211" lon="-0.49703395"><ele>268.0</ele><time>2022-11-13T15:33:07.0000000+00:00</time></trkpt><trkpt lat="38.9624211" lon="-0.49703387"><ele>268.0</ele><time>2022-11-13T15:33:08.0000000+00:00</time></trkpt><trkpt lat="38.9624211" lon="-0.49703378"><ele>268.0</ele><time>2022-11-13T15:33:09.0000000+00:00</time></trkpt><trkpt lat="38.9624211" lon="-0.4970337"><ele>268.0</ele><time>2022-11-13T15:33:10.0000000+00:00</time></trkpt><trkpt lat="38.96242102" lon="-0.49703378"><ele>268.0</ele><time>2022-11-13T15:33:11.0000000+00:00</time></trkpt><trkpt lat="38.96242102" lon="-0.4970337"><ele>268.0</ele><time>2022-11-13T15:33:12.0000000+00:00</time></trkpt><trkpt lat="38.96242093" lon="-0.4970337"><ele>268.0</ele><time>2022-11-13T15:33:13.0000000+00:00</time></trkpt><trkpt lat="38.96242085" lon="-0.49703387"><ele>268.0</ele><time>2022-11-13T15:33:14.0000000+00:00</time></trkpt><trkpt lat="38.96242085" lon="-0.49703403"><ele>268.0</ele><time>2022-11-13T15:33:15.0000000+00:00</time></trkpt><trkpt lat="38.96242068" lon="-0.4970342"><ele>268.0</ele><time>2022-11-13T15:33:16.0000000+00:00</time></trkpt><trkpt lat="38.96242068" lon="-0.4970342"><ele>268.0</ele><time>2022-11-13T15:33:17.0000000+00:00</time></trkpt><trkpt lat="38.96242068" lon="-0.49703437"><ele>268.0</ele><time>2022-11-13T15:33:18.0000000+00:00</time></trkpt><trkpt lat="38.96242068" lon="-0.49703437"><ele>268.0</ele><time>2022-11-13T15:33:19.0000000+00:00</time></trkpt><trkpt lat="38.96242077" lon="-0.49703445"><ele>268.0</ele><time>2022-11-13T15:33:20.0000000+00:00</time></trkpt><trkpt lat="38.96242085" lon="-0.49703454"><ele>268.0</ele><time>2022-11-13T15:33:21.0000000+00:00</time></trkpt><trkpt lat="38.96242093" lon="-0.49703479"><ele>268.0</ele><time>2022-11-13T15:33:22.0000000+00:00</time></trkpt><trkpt lat="38.96242102" lon="-0.49703496"><ele>268.0</ele><time>2022-11-13T15:33:23.0000000+00:00</time></trkpt><trkpt lat="38.96242102" lon="-0.49703521"><ele>268.0</ele><time>2022-11-13T15:33:24.0000000+00:00</time></trkpt><trkpt lat="38.9624211" lon="-0.49703538"><ele>268.0</ele><time>2022-11-13T15:33:25.0000000+00:00</time></trkpt><trkpt lat="38.96242127" lon="-0.49703521"><ele>268.0</ele><time>2022-11-13T15:33:26.0000000+00:00</time></trkpt><trkpt lat="38.96242127" lon="-0.49703504"><ele>268.0</ele><time>2022-11-13T15:33:27.0000000+00:00</time></trkpt><trkpt lat="38.96242135" lon="-0.49703504"><ele>268.0</ele><time>2022-11-13T15:33:28.0000000+00:00</time></trkpt><trkpt lat="38.96242152" lon="-0.49703512"><ele>268.0</ele><time>2022-11-13T15:33:29.0000000+00:00</time></trkpt><trkpt lat="38.9624216" lon="-0.49703529"><ele>268.0</ele><time>2022-11-13T15:33:30.0000000+00:00</time></trkpt><trkpt lat="38.96242177" lon="-0.49703538"><ele>268.0</ele><time>2022-11-13T15:33:31.0000000+00:00</time></trkpt><trkpt lat="38.96242177" lon="-0.49703538"><ele>268.0</ele><time>2022-11-13T15:33:32.0000000+00:00</time></trkpt><trkpt lat="38.96242177" lon="-0.49703546"><ele>268.0</ele><time>2022-11-13T15:33:33.0000000+00:00</time></trkpt><trkpt lat="38.96242169" lon="-0.49703563"><ele>268.0</ele><time>2022-11-13T15:33:34.0000000+00:00</time></trkpt><trkpt lat="38.96242152" lon="-0.49703563"><ele>268.0</ele><time>2022-11-13T15:33:35.0000000+00:00</time></trkpt><trkpt lat="38.96242152" lon="-0.49703571"><ele>268.0</ele><time>2022-11-13T15:33:36.0000000+00:00</time></trkpt><trkpt lat="38.96242177" lon="-0.49703579"><ele>268.0</ele><time>2022-11-13T15:33:37.0000000+00:00</time></trkpt><trkpt lat="38.96242177" lon="-0.49703579"><ele>268.0</ele><time>2022-11-13T15:33:38.0000000+00:00</time></trkpt><trkpt lat="38.96242169" lon="-0.49703588"><ele>268.0</ele><time>2022-11-13T15:33:39.0000000+00:00</time></trkpt><trkpt lat="38.96242169" lon="-0.49703588"><ele>268.0</ele><time>2022-11-13T15:33:40.0000000+00:00</time></trkpt><trkpt lat="38.96242169" lon="-0.49703588"><ele>268.0</ele><time>2022-11-13T15:33:41.0000000+00:00</time></trkpt><trkpt lat="38.96242177" lon="-0.49703588"><ele>268.0</ele><time>2022-11-13T15:33:42.0000000+00:00</time></trkpt><trkpt lat="38.96242186" lon="-0.49703605"><ele>268.0</ele><time>2022-11-13T15:33:43.0000000+00:00</time></trkpt><trkpt lat="38.96242177" lon="-0.49703605"><ele>268.0</ele><time>2022-11-13T15:33:44.0000000+00:00</time></trkpt><trkpt lat="38.96242177" lon="-0.49703605"><ele>268.0</ele><time>2022-11-13T15:33:45.0000000+00:00</time></trkpt><trkpt lat="38.96242186" lon="-0.49703613"><ele>268.0</ele><time>2022-11-13T15:33:46.0000000+00:00</time></trkpt><trkpt lat="38.96242202" lon="-0.49703605"><ele>268.0</ele><time>2022-11-13T15:33:47.0000000+00:00</time></trkpt><trkpt lat="38.96242211" lon="-0.49703596"><ele>268.0</ele><time>2022-11-13T15:33:48.0000000+00:00</time></trkpt><trkpt lat="38.96242211" lon="-0.49703596"><ele>268.0</ele><time>2022-11-13T15:33:49.0000000+00:00</time></trkpt><trkpt lat="38.96242211" lon="-0.49703613"><ele>268.0</ele><time>2022-11-13T15:33:50.0000000+00:00</time></trkpt><trkpt lat="38.96242227" lon="-0.49703621"><ele>268.0</ele><time>2022-11-13T15:33:51.0000000+00:00</time></trkpt><trkpt lat="38.96242244" lon="-0.49703638"><ele>268.0</ele><time>2022-11-13T15:33:52.0000000+00:00</time></trkpt><trkpt lat="38.96242253" lon="-0.49703638"><ele>268.0</ele><time>2022-11-13T15:33:53.0000000+00:00</time></trkpt><trkpt lat="38.96242253" lon="-0.49703647"><ele>268.0</ele><time>2022-11-13T15:33:54.0000000+00:00</time></trkpt><trkpt lat="38.96242253" lon="-0.49703638"><ele>268.0</ele><time>2022-11-13T15:33:55.0000000+00:00</time></trkpt><trkpt lat="38.96242253" lon="-0.4970363"><ele>268.0</ele><time>2022-11-13T15:33:56.0000000+00:00</time></trkpt><trkpt lat="38.96242244" lon="-0.49703638"><ele>268.0</ele><time>2022-11-13T15:33:57.0000000+00:00</time></trkpt><trkpt lat="38.96242244" lon="-0.49703638"><ele>268.0</ele><time>2022-11-13T15:33:58.0000000+00:00</time></trkpt><trkpt lat="38.96242253" lon="-0.49703655"><ele>268.0</ele><time>2022-11-13T15:33:59.0000000+00:00</time></trkpt><trkpt lat="38.96242261" lon="-0.49703663"><ele>268.0</ele><time>2022-11-13T15:34:00.0000000+00:00</time></trkpt><trkpt lat="38.96242278" lon="-0.4970368"><ele>268.0</ele><time>2022-11-13T15:34:01.0000000+00:00</time></trkpt><trkpt lat="38.96242286" lon="-0.49703697"><ele>268.0</ele><time>2022-11-13T15:34:02.0000000+00:00</time></trkpt><trkpt lat="38.96242295" lon="-0.49703714"><ele>268.0</ele><time>2022-11-13T15:34:03.0000000+00:00</time></trkpt><trkpt lat="38.96242303" lon="-0.49703722"><ele>268.0</ele><time>2022-11-13T15:34:04.0000000+00:00</time></trkpt><trkpt lat="38.96242303" lon="-0.49703722"><ele>268.0</ele><time>2022-11-13T15:34:05.0000000+00:00</time></trkpt><trkpt lat="38.96242311" lon="-0.4970373"><ele>268.0</ele><time>2022-11-13T15:34:06.0000000+00:00</time></trkpt><trkpt lat="38.96242328" lon="-0.4970373"><ele>268.0</ele><time>2022-11-13T15:34:07.0000000+00:00</time></trkpt><trkpt lat="38.96242336" lon="-0.49703739"><ele>268.0</ele><time>2022-11-13T15:34:08.0000000+00:00</time></trkpt><trkpt lat="38.96242353" lon="-0.49703739"><ele>268.0</ele><time>2022-11-13T15:34:09.0000000+00:00</time></trkpt><trkpt lat="38.9624237" lon="-0.49703739"><ele>268.0</ele><time>2022-11-13T15:34:10.0000000+00:00</time></trkpt><trkpt lat="38.9624237" lon="-0.4970373"><ele>268.0</ele><time>2022-11-13T15:34:11.0000000+00:00</time></trkpt><trkpt lat="38.96242378" lon="-0.4970373"><ele>268.0</ele><time>2022-11-13T15:34:12.0000000+00:00</time></trkpt><trkpt lat="38.96242387" lon="-0.49703739"><ele>268.0</ele><time>2022-11-13T15:34:13.0000000+00:00</time></trkpt><trkpt lat="38.96242395" lon="-0.4970373"><ele>268.0</ele><time>2022-11-13T15:34:14.0000000+00:00</time></trkpt><trkpt lat="38.96242403" lon="-0.49703739"><ele>268.0</ele><time>2022-11-13T15:34:15.0000000+00:00</time></trkpt><trkpt lat="38.9624242" lon="-0.49703739"><ele>268.0</ele><time>2022-11-13T15:34:16.0000000+00:00</time></trkpt><trkpt lat="38.96242429" lon="-0.49703747"><ele>268.0</ele><time>2022-11-13T15:34:17.0000000+00:00</time></trkpt><trkpt lat="38.96242437" lon="-0.49703755"><ele>268.0</ele><time>2022-11-13T15:34:18.0000000+00:00</time></trkpt><trkpt lat="38.96242445" lon="-0.49703764"><ele>268.0</ele><time>2022-11-13T15:34:19.0000000+00:00</time></trkpt><trkpt lat="38.96242454" lon="-0.49703764"><ele>268.0</ele><time>2022-11-13T15:34:20.0000000+00:00</time></trkpt><trkpt lat="38.96242454" lon="-0.49703781"><ele>268.0</ele><time>2022-11-13T15:34:21.0000000+00:00</time></trkpt><trkpt lat="38.96242462" lon="-0.49703789"><ele>268.0</ele><time>2022-11-13T15:34:22.0000000+00:00</time></trkpt><trkpt lat="38.96242462" lon="-0.49703797"><ele>268.0</ele><time>2022-11-13T15:34:23.0000000+00:00</time></trkpt><trkpt lat="38.96242471" lon="-0.49703814"><ele>268.0</ele><time>2022-11-13T15:34:24.0000000+00:00</time></trkpt><trkpt lat="38.96242496" lon="-0.49703839"><ele>268.0</ele><time>2022-11-13T15:34:25.0000000+00:00</time></trkpt><trkpt lat="38.96242496" lon="-0.49703848"><ele>268.0</ele><time>2022-11-13T15:34:26.0000000+00:00</time></trkpt><trkpt lat="38.96242504" lon="-0.49703848"><ele>268.0</ele><time>2022-11-13T15:34:27.0000000+00:00</time></trkpt><trkpt lat="38.96242521" lon="-0.49703856"><ele>268.0</ele><time>2022-11-13T15:34:28.0000000+00:00</time></trkpt><trkpt lat="38.96242538" lon="-0.49703864"><ele>268.0</ele><time>2022-11-13T15:34:29.0000000+00:00</time></trkpt><trkpt lat="38.96242554" lon="-0.49703873"><ele>268.0</ele><time>2022-11-13T15:34:30.0000000+00:00</time></trkpt><trkpt lat="38.96242571" lon="-0.4970389"><ele>268.0</ele><time>2022-11-13T15:34:31.0000000+00:00</time></trkpt><trkpt lat="38.96242579" lon="-0.49703915"><ele>268.0</ele><time>2022-11-13T15:34:32.0000000+00:00</time></trkpt><trkpt lat="38.96242588" lon="-0.49703923"><ele>268.0</ele><time>2022-11-13T15:34:33.0000000+00:00</time></trkpt><trkpt lat="38.96242605" lon="-0.49703948"><ele>268.0</ele><time>2022-11-13T15:34:34.0000000+00:00</time></trkpt><trkpt lat="38.96242621" lon="-0.49703965"><ele>268.0</ele><time>2022-11-13T15:34:35.0000000+00:00</time></trkpt><trkpt lat="38.96242638" lon="-0.4970399"><ele>268.0</ele><time>2022-11-13T15:34:36.0000000+00:00</time></trkpt><trkpt lat="38.96242655" lon="-0.49704007"><ele>268.0</ele><time>2022-11-13T15:34:37.0000000+00:00</time></trkpt><trkpt lat="38.96242663" lon="-0.49704024"><ele>268.0</ele><time>2022-11-13T15:34:38.0000000+00:00</time></trkpt><trkpt lat="38.9624268" lon="-0.4970404"><ele>268.0</ele><time>2022-11-13T15:34:39.0000000+00:00</time></trkpt><trkpt lat="38.96242697" lon="-0.4970404"><ele>268.0</ele><time>2022-11-13T15:34:40.0000000+00:00</time></trkpt><trkpt lat="38.96242705" lon="-0.49704049"><ele>268.0</ele><time>2022-11-13T15:34:41.0000000+00:00</time></trkpt><trkpt lat="38.96242705" lon="-0.49704057"><ele>268.0</ele><time>2022-11-13T15:34:42.0000000+00:00</time></trkpt><trkpt lat="38.96242705" lon="-0.49704066"><ele>268.0</ele><time>2022-11-13T15:34:43.0000000+00:00</time></trkpt><trkpt lat="38.96242697" lon="-0.49704082"><ele>268.0</ele><time>2022-11-13T15:34:44.0000000+00:00</time></trkpt><trkpt lat="38.96242697" lon="-0.49704099"><ele>268.0</ele><time>2022-11-13T15:34:45.0000000+00:00</time></trkpt><trkpt lat="38.96242705" lon="-0.49704099"><ele>268.0</ele><time>2022-11-13T15:34:46.0000000+00:00</time></trkpt><trkpt lat="38.96242714" lon="-0.49704099"><ele>268.0</ele><time>2022-11-13T15:34:47.0000000+00:00</time></trkpt><trkpt lat="38.9624273" lon="-0.49704108"><ele>268.0</ele><time>2022-11-13T15:34:48.0000000+00:00</time></trkpt><trkpt lat="38.96242739" lon="-0.49704108"><ele>268.0</ele><time>2022-11-13T15:34:49.0000000+00:00</time></trkpt><trkpt lat="38.96242747" lon="-0.49704116"><ele>268.0</ele><time>2022-11-13T15:34:50.0000000+00:00</time></trkpt><trkpt lat="38.96242747" lon="-0.49704108"><ele>268.0</ele><time>2022-11-13T15:34:51.0000000+00:00</time></trkpt><trkpt lat="38.96242747" lon="-0.49704108"><ele>268.0</ele><time>2022-11-13T15:34:52.0000000+00:00</time></trkpt><trkpt lat="38.9624273" lon="-0.49704108"><ele>268.0</ele><time>2022-11-13T15:34:53.0000000+00:00</time></trkpt><trkpt lat="38.96242722" lon="-0.49704091"><ele>268.0</ele><time>2022-11-13T15:34:54.0000000+00:00</time></trkpt><trkpt lat="38.96242714" lon="-0.49704082"><ele>268.0</ele><time>2022-11-13T15:34:55.0000000+00:00</time></trkpt><trkpt lat="38.96242705" lon="-0.49704074"><ele>268.0</ele><time>2022-11-13T15:34:56.0000000+00:00</time></trkpt><trkpt lat="38.96242705" lon="-0.49704082"><ele>268.0</ele><time>2022-11-13T15:34:57.0000000+00:00</time></trkpt><trkpt lat="38.96242705" lon="-0.49704082"><ele>268.0</ele><time>2022-11-13T15:34:58.0000000+00:00</time></trkpt><trkpt lat="38.96242697" lon="-0.49704082"><ele>268.0</ele><time>2022-11-13T15:34:59.0000000+00:00</time></trkpt><trkpt lat="38.96242688" lon="-0.49704082"><ele>268.0</ele><time>2022-11-13T15:35:00.0000000+00:00</time></trkpt><trkpt lat="38.96242688" lon="-0.49704082"><ele>268.0</ele><time>2022-11-13T15:35:01.0000000+00:00</time></trkpt><trkpt lat="38.96242697" lon="-0.49704091"><ele>268.0</ele><time>2022-11-13T15:35:02.0000000+00:00</time></trkpt><trkpt lat="38.96242688" lon="-0.49704099"><ele>268.0</ele><time>2022-11-13T15:35:03.0000000+00:00</time></trkpt><trkpt lat="38.96242688" lon="-0.49704108"><ele>268.0</ele><time>2022-11-13T15:35:04.0000000+00:00</time></trkpt><trkpt lat="38.96242688" lon="-0.49704124"><ele>268.0</ele><time>2022-11-13T15:35:05.0000000+00:00</time></trkpt><trkpt lat="38.96242697" lon="-0.49704141"><ele>268.0</ele><time>2022-11-13T15:35:06.0000000+00:00</time></trkpt><trkpt lat="38.96242705" lon="-0.49704149"><ele>268.0</ele><time>2022-11-13T15:35:07.0000000+00:00</time></trkpt><trkpt lat="38.96242705" lon="-0.49704158"><ele>268.0</ele><time>2022-11-13T15:35:08.0000000+00:00</time></trkpt><trkpt lat="38.96242714" lon="-0.49704166"><ele>268.0</ele><time>2022-11-13T15:35:09.0000000+00:00</time></trkpt><trkpt lat="38.96242714" lon="-0.49704166"><ele>268.0</ele><time>2022-11-13T15:35:10.0000000+00:00</time></trkpt><trkpt lat="38.96242714" lon="-0.49704175"><ele>268.0</ele><time>2022-11-13T15:35:11.0000000+00:00</time></trkpt><trkpt lat="38.96242722" lon="-0.49704175"><ele>268.0</ele><time>2022-11-13T15:35:12.0000000+00:00</time></trkpt><trkpt lat="38.96242714" lon="-0.49704183"><ele>268.0</ele><time>2022-11-13T15:35:13.0000000+00:00</time></trkpt><trkpt lat="38.96242705" lon="-0.49704183"><ele>268.0</ele><time>2022-11-13T15:35:14.0000000+00:00</time></trkpt><trkpt lat="38.96242714" lon="-0.49704183"><ele>268.0</ele><time>2022-11-13T15:35:15.0000000+00:00</time></trkpt><trkpt lat="38.96242714" lon="-0.49704183"><ele>268.0</ele><time>2022-11-13T15:35:16.0000000+00:00</time></trkpt><trkpt lat="38.9624273" lon="-0.49704183"><ele>268.0</ele><time>2022-11-13T15:35:17.0000000+00:00</time></trkpt><trkpt lat="38.9624273" lon="-0.49704175"><ele>268.0</ele><time>2022-11-13T15:35:18.0000000+00:00</time></trkpt><trkpt lat="38.96242722" lon="-0.49704183"><ele>268.0</ele><time>2022-11-13T15:35:19.0000000+00:00</time></trkpt><trkpt lat="38.96242714" lon="-0.49704191"><ele>268.0</ele><time>2022-11-13T15:35:20.0000000+00:00</time></trkpt><trkpt lat="38.96242714" lon="-0.49704191"><ele>268.0</ele><time>2022-11-13T15:35:21.0000000+00:00</time></trkpt><trkpt lat="38.96242714" lon="-0.49704191"><ele>268.0</ele><time>2022-11-13T15:35:22.0000000+00:00</time></trkpt><trkpt lat="38.96242705" lon="-0.49704208"><ele>268.0</ele><time>2022-11-13T15:35:23.0000000+00:00</time></trkpt><trkpt lat="38.96242714" lon="-0.49704216"><ele>268.0</ele><time>2022-11-13T15:35:24.0000000+00:00</time></trkpt><trkpt lat="38.96242714" lon="-0.49704225"><ele>268.0</ele><time>2022-11-13T15:35:25.0000000+00:00</time></trkpt><trkpt lat="38.96242722" lon="-0.49704225"><ele>268.0</ele><time>2022-11-13T15:35:26.0000000+00:00</time></trkpt><trkpt lat="38.96242722" lon="-0.49704233"><ele>268.0</ele><time>2022-11-13T15:35:27.0000000+00:00</time></trkpt><trkpt lat="38.96242722" lon="-0.49704242"><ele>268.0</ele><time>2022-11-13T15:35:28.0000000+00:00</time></trkpt><trkpt lat="38.96242722" lon="-0.49704258"><ele>268.0</ele><time>2022-11-13T15:35:29.0000000+00:00</time></trkpt><trkpt lat="38.96242722" lon="-0.49704275"><ele>268.0</ele><time>2022-11-13T15:35:30.0000000+00:00</time></trkpt><trkpt lat="38.96242722" lon="-0.49704284"><ele>268.0</ele><time>2022-11-13T15:35:31.0000000+00:00</time></trkpt><trkpt lat="38.96242722" lon="-0.49704292"><ele>268.0</ele><time>2022-11-13T15:35:32.0000000+00:00</time></trkpt><trkpt lat="38.96242722" lon="-0.497043"><ele>268.0</ele><time>2022-11-13T15:35:33.0000000+00:00</time></trkpt><trkpt lat="38.96242722" lon="-0.49704309"><ele>268.0</ele><time>2022-11-13T15:35:34.0000000+00:00</time></trkpt><trkpt lat="38.96242722" lon="-0.49704317"><ele>268.0</ele><time>2022-11-13T15:35:35.0000000+00:00</time></trkpt><trkpt lat="38.96242714" lon="-0.49704342"><ele>268.0</ele><time>2022-11-13T15:35:36.0000000+00:00</time></trkpt><trkpt lat="38.96242714" lon="-0.49704359"><ele>268.0</ele><time>2022-11-13T15:35:37.0000000+00:00</time></trkpt><trkpt lat="38.96242714" lon="-0.49704376"><ele>268.0</ele><time>2022-11-13T15:35:38.0000000+00:00</time></trkpt><trkpt lat="38.96242722" lon="-0.49704384"><ele>268.0</ele><time>2022-11-13T15:35:39.0000000+00:00</time></trkpt><trkpt lat="38.96242722" lon="-0.49704392"><ele>268.0</ele><time>2022-11-13T15:35:40.0000000+00:00</time></trkpt><trkpt lat="38.9624273" lon="-0.49704401"><ele>268.0</ele><time>2022-11-13T15:35:41.0000000+00:00</time></trkpt><trkpt lat="38.96242739" lon="-0.49704418"><ele>268.0</ele><time>2022-11-13T15:35:42.0000000+00:00</time></trkpt><trkpt lat="38.96242747" lon="-0.49704434"><ele>268.0</ele><time>2022-11-13T15:35:43.0000000+00:00</time></trkpt><trkpt lat="38.96242772" lon="-0.49704451"><ele>268.0</ele><time>2022-11-13T15:35:44.0000000+00:00</time></trkpt><trkpt lat="38.96242789" lon="-0.4970446"><ele>268.0</ele><time>2022-11-13T15:35:45.0000000+00:00</time></trkpt><trkpt lat="38.96242806" lon="-0.49704468"><ele>268.0</ele><time>2022-11-13T15:35:46.0000000+00:00</time></trkpt><trkpt lat="38.96242823" lon="-0.49704476"><ele>268.0</ele><time>2022-11-13T15:35:47.0000000+00:00</time></trkpt><trkpt lat="38.96242839" lon="-0.49704485"><ele>268.0</ele><time>2022-11-13T15:35:48.0000000+00:00</time></trkpt><trkpt lat="38.96242848" lon="-0.4970451"><ele>268.0</ele><time>2022-11-13T15:35:49.0000000+00:00</time></trkpt><trkpt lat="38.96242864" lon="-0.49704527"><ele>268.0</ele><time>2022-11-13T15:35:50.0000000+00:00</time></trkpt><trkpt lat="38.96242881" lon="-0.49704543"><ele>268.0</ele><time>2022-11-13T15:35:51.0000000+00:00</time></trkpt><trkpt lat="38.9624289" lon="-0.49704569"><ele>268.0</ele><time>2022-11-13T15:35:52.0000000+00:00</time></trkpt><trkpt lat="38.96242906" lon="-0.49704585"><ele>268.0</ele><time>2022-11-13T15:35:53.0000000+00:00</time></trkpt><trkpt lat="38.96242915" lon="-0.49704619"><ele>268.0</ele><time>2022-11-13T15:35:54.0000000+00:00</time></trkpt><trkpt lat="38.96242923" lon="-0.49704644"><ele>268.0</ele><time>2022-11-13T15:35:55.0000000+00:00</time></trkpt><trkpt lat="38.96242923" lon="-0.49704669"><ele>268.0</ele><time>2022-11-13T15:35:56.0000000+00:00</time></trkpt><trkpt lat="38.96242932" lon="-0.49704677"><ele>268.0</ele><time>2022-11-13T15:35:57.0000000+00:00</time></trkpt><trkpt lat="38.9624294" lon="-0.49704686"><ele>268.0</ele><time>2022-11-13T15:35:58.0000000+00:00</time></trkpt><trkpt lat="38.96242948" lon="-0.49704694"><ele>268.0</ele><time>2022-11-13T15:35:59.0000000+00:00</time></trkpt><trkpt lat="38.96242965" lon="-0.49704703"><ele>268.0</ele><time>2022-11-13T15:36:00.0000000+00:00</time></trkpt><trkpt lat="38.96244155" lon="-0.4970534"><ele>268.0</ele><time>2022-11-13T15:36:01.0000000+00:00</time></trkpt><trkpt lat="38.96245706" lon="-0.4970627"><ele>268.0</ele><time>2022-11-13T15:36:02.0000000+00:00</time></trkpt><trkpt lat="38.96247391" lon="-0.49707444"><ele>268.0</ele><time>2022-11-13T15:36:03.0000000+00:00</time></trkpt><trkpt lat="38.96249" lon="-0.497086"><ele>268.0</ele><time>2022-11-13T15:36:04.0000000+00:00</time></trkpt><trkpt lat="38.9625097" lon="-0.49709112"><ele>268.0</ele><time>2022-11-13T15:36:05.0000000+00:00</time></trkpt><trkpt lat="38.96252764" lon="-0.49709606"><ele>268.0</ele><time>2022-11-13T15:36:06.0000000+00:00</time></trkpt><trkpt lat="38.96254306" lon="-0.49710528"><ele>268.0</ele><time>2022-11-13T15:36:07.0000000+00:00</time></trkpt><trkpt lat="38.96255664" lon="-0.49712137"><ele>268.0</ele><time>2022-11-13T15:36:08.0000000+00:00</time></trkpt><trkpt lat="38.96256938" lon="-0.49714107"><ele>268.0</ele><time>2022-11-13T15:36:09.0000000+00:00</time></trkpt><trkpt lat="38.96258614" lon="-0.49715691"><ele>268.0</ele><time>2022-11-13T15:36:10.0000000+00:00</time></trkpt><trkpt lat="38.96259419" lon="-0.49716496"><ele>268.0</ele><time>2022-11-13T15:36:11.0000000+00:00</time></trkpt><trkpt lat="38.9626014" lon="-0.49716898"><ele>268.0</ele><time>2022-11-13T15:36:12.0000000+00:00</time></trkpt><trkpt lat="38.9626071" lon="-0.49716856"><ele>268.0</ele><time>2022-11-13T15:36:13.0000000+00:00</time></trkpt><trkpt lat="38.96261062" lon="-0.497172"><ele>268.0</ele><time>2022-11-13T15:36:14.0000000+00:00</time></trkpt><trkpt lat="38.96261355" lon="-0.49717284"><ele>268.0</ele><time>2022-11-13T15:36:15.0000000+00:00</time></trkpt><trkpt lat="38.96261414" lon="-0.49717577"><ele>268.0</ele><time>2022-11-13T15:36:16.0000000+00:00</time></trkpt><trkpt lat="38.96261363" lon="-0.49717678"><ele>268.0</ele><time>2022-11-13T15:36:17.0000000+00:00</time></trkpt><trkpt lat="38.96261338" lon="-0.49718005"><ele>268.0</ele><time>2022-11-13T15:36:18.0000000+00:00</time></trkpt><trkpt lat="38.9626128" lon="-0.4971834"><ele>268.0</ele><time>2022-11-13T15:36:19.0000000+00:00</time></trkpt><trkpt lat="38.96261078" lon="-0.49718566"><ele>268.0</ele><time>2022-11-13T15:36:20.0000000+00:00</time></trkpt><trkpt lat="38.96260466" lon="-0.49719614"><ele>268.0</ele><time>2022-11-13T15:36:21.0000000+00:00</time></trkpt><trkpt lat="38.96260383" lon="-0.49720771"><ele>268.0</ele><time>2022-11-13T15:36:22.0000000+00:00</time></trkpt><trkpt lat="38.96260634" lon="-0.49721902"><ele>268.0</ele><time>2022-11-13T15:36:23.0000000+00:00</time></trkpt><trkpt lat="38.96261062" lon="-0.49723025"><ele>268.0</ele><time>2022-11-13T15:36:24.0000000+00:00</time></trkpt><trkpt lat="38.96261187" lon="-0.49724065"><ele>268.0</ele><time>2022-11-13T15:36:25.0000000+00:00</time></trkpt><trkpt lat="38.96261514" lon="-0.49724861"><ele>268.0</ele><time>2022-11-13T15:36:26.0000000+00:00</time></trkpt><trkpt lat="38.96261648" lon="-0.49725565"><ele>268.0</ele><time>2022-11-13T15:36:27.0000000+00:00</time></trkpt><trkpt lat="38.96261975" lon="-0.49726328"><ele>268.0</ele><time>2022-11-13T15:36:28.0000000+00:00</time></trkpt><trkpt lat="38.96262419" lon="-0.49727443"><ele>268.0</ele><time>2022-11-13T15:36:29.0000000+00:00</time></trkpt><trkpt lat="38.96262688" lon="-0.49728499"><ele>268.0</ele><time>2022-11-13T15:36:30.0000000+00:00</time></trkpt><trkpt lat="38.96262939" lon="-0.49729513"><ele>268.0</ele><time>2022-11-13T15:36:31.0000000+00:00</time></trkpt><trkpt lat="38.96263082" lon="-0.49730041"><ele>268.0</ele><time>2022-11-13T15:36:32.0000000+00:00</time></trkpt><trkpt lat="38.9626304" lon="-0.49730083"><ele>268.0</ele><time>2022-11-13T15:36:33.0000000+00:00</time></trkpt><trkpt lat="38.96262847" lon="-0.49730083"><ele>268.0</ele><time>2022-11-13T15:36:34.0000000+00:00</time></trkpt><trkpt lat="38.96262763" lon="-0.49730226"><ele>268.0</ele><time>2022-11-13T15:36:35.0000000+00:00</time></trkpt><trkpt lat="38.96262864" lon="-0.49730033"><ele>268.0</ele><time>2022-11-13T15:36:36.0000000+00:00</time></trkpt><trkpt lat="38.96262788" lon="-0.49730284"><ele>268.0</ele><time>2022-11-13T15:36:37.0000000+00:00</time></trkpt><trkpt lat="38.9626257" lon="-0.49730661"><ele>268.0</ele><time>2022-11-13T15:36:38.0000000+00:00</time></trkpt><trkpt lat="38.96262604" lon="-0.49730636"><ele>263.6</ele><time>2022-11-13T15:36:39.0000000+00:00</time></trkpt><trkpt lat="38.96262646" lon="-0.49730502"><ele>263.6</ele><time>2022-11-13T15:36:40.0000000+00:00</time></trkpt><trkpt lat="38.96262562" lon="-0.49730469"><ele>263.6</ele><time>2022-11-13T15:36:41.0000000+00:00</time></trkpt><trkpt lat="38.96262436" lon="-0.49730511"><ele>263.6</ele><time>2022-11-13T15:36:42.0000000+00:00</time></trkpt><trkpt lat="38.9626231" lon="-0.49730619"><ele>263.6</ele><time>2022-11-13T15:36:43.0000000+00:00</time></trkpt><trkpt lat="38.96262051" lon="-0.49730636"><ele>263.6</ele><time>2022-11-13T15:36:44.0000000+00:00</time></trkpt><trkpt lat="38.96261891" lon="-0.49730636"><ele>263.6</ele><time>2022-11-13T15:36:45.0000000+00:00</time></trkpt><trkpt lat="38.96261749" lon="-0.49730309"><ele>263.6</ele><time>2022-11-13T15:36:46.0000000+00:00</time></trkpt><trkpt lat="38.96261933" lon="-0.49730502"><ele>263.6</ele><time>2022-11-13T15:36:47.0000000+00:00</time></trkpt><trkpt lat="38.96261958" lon="-0.49730837"><ele>263.6</ele><time>2022-11-13T15:36:48.0000000+00:00</time></trkpt><trkpt lat="38.96262151" lon="-0.49731801"><ele>263.2</ele><time>2022-11-13T15:36:49.0000000+00:00</time></trkpt><trkpt lat="38.96262436" lon="-0.49732103"><ele>263.0</ele><time>2022-11-13T15:36:50.0000000+00:00</time></trkpt><trkpt lat="38.96263073" lon="-0.4973264"><ele>262.8</ele><time>2022-11-13T15:36:51.0000000+00:00</time></trkpt><trkpt lat="38.96263685" lon="-0.49732707"><ele>262.6</ele><time>2022-11-13T15:36:52.0000000+00:00</time></trkpt><trkpt lat="38.96263601" lon="-0.49733117"><ele>262.6</ele><time>2022-11-13T15:36:53.0000000+00:00</time></trkpt><trkpt lat="38.96263341" lon="-0.4973367"><ele>262.4</ele><time>2022-11-13T15:36:54.0000000+00:00</time></trkpt><trkpt lat="38.9626371" lon="-0.49733704"><ele>262.0</ele><time>2022-11-13T15:36:55.0000000+00:00</time></trkpt><trkpt lat="38.96263643" lon="-0.49733746"><ele>261.8</ele><time>2022-11-13T15:36:56.0000000+00:00</time></trkpt><trkpt lat="38.9626459" lon="-0.49733394"><ele>261.4</ele><time>2022-11-13T15:36:57.0000000+00:00</time></trkpt><trkpt lat="38.96264859" lon="-0.49733033"><ele>261.2</ele><time>2022-11-13T15:36:58.0000000+00:00</time></trkpt><trkpt lat="38.96265378" lon="-0.49733536"><ele>261.2</ele><time>2022-11-13T15:36:59.0000000+00:00</time></trkpt><trkpt lat="38.962663" lon="-0.49733914"><ele>261.0</ele><time>2022-11-13T15:37:00.0000000+00:00</time></trkpt><trkpt lat="38.96267423" lon="-0.49734249"><ele>260.8</ele><time>2022-11-13T15:37:01.0000000+00:00</time></trkpt><trkpt lat="38.96267935" lon="-0.49734425"><ele>260.6</ele><time>2022-11-13T15:37:02.0000000+00:00</time></trkpt><trkpt lat="38.96268429" lon="-0.49734073"><ele>260.4</ele><time>2022-11-13T15:37:03.0000000+00:00</time></trkpt><trkpt lat="38.96268656" lon="-0.49735347"><ele>260.2</ele><time>2022-11-13T15:37:04.0000000+00:00</time></trkpt><trkpt lat="38.96269159" lon="-0.4973616"><ele>260.0</ele><time>2022-11-13T15:37:05.0000000+00:00</time></trkpt><trkpt lat="38.96269846" lon="-0.49736738"><ele>259.8</ele><time>2022-11-13T15:37:06.0000000+00:00</time></trkpt><trkpt lat="38.962706" lon="-0.49736814"><ele>259.6</ele><time>2022-11-13T15:37:07.0000000+00:00</time></trkpt><trkpt lat="38.96270927" lon="-0.49736755"><ele>259.4</ele><time>2022-11-13T15:37:08.0000000+00:00</time></trkpt><trkpt lat="38.96271003" lon="-0.49736747"><ele>259.4</ele><time>2022-11-13T15:37:09.0000000+00:00</time></trkpt><trkpt lat="38.9627112" lon="-0.49737769"><ele>259.0</ele><time>2022-11-13T15:37:10.0000000+00:00</time></trkpt><trkpt lat="38.96271028" lon="-0.49739244"><ele>258.8</ele><time>2022-11-13T15:37:11.0000000+00:00</time></trkpt><trkpt lat="38.96271019" lon="-0.49739697"><ele>258.6</ele><time>2022-11-13T15:37:12.0000000+00:00</time></trkpt><trkpt lat="38.96271396" lon="-0.49740552"><ele>258.6</ele><time>2022-11-13T15:37:13.0000000+00:00</time></trkpt><trkpt lat="38.96272159" lon="-0.49741239"><ele>258.2</ele><time>2022-11-13T15:37:14.0000000+00:00</time></trkpt><trkpt lat="38.96272922" lon="-0.49741633"><ele>258.0</ele><time>2022-11-13T15:37:15.0000000+00:00</time></trkpt><trkpt lat="38.96273232" lon="-0.49741767"><ele>258.0</ele><time>2022-11-13T15:37:16.0000000+00:00</time></trkpt><trkpt lat="38.96273752" lon="-0.49742178"><ele>257.8</ele><time>2022-11-13T15:37:17.0000000+00:00</time></trkpt><trkpt lat="38.96273986" lon="-0.49742555"><ele>257.6</ele><time>2022-11-13T15:37:18.0000000+00:00</time></trkpt><trkpt lat="38.96274841" lon="-0.49742036"><ele>257.4</ele><time>2022-11-13T15:37:19.0000000+00:00</time></trkpt><trkpt lat="38.96275168" lon="-0.49741851"><ele>257.2</ele><time>2022-11-13T15:37:20.0000000+00:00</time></trkpt><trkpt lat="38.96276023" lon="-0.49743368"><ele>257.0</ele><time>2022-11-13T15:37:21.0000000+00:00</time></trkpt><trkpt lat="38.96276208" lon="-0.49743754"><ele>257.0</ele><time>2022-11-13T15:37:22.0000000+00:00</time></trkpt><trkpt lat="38.96276191" lon="-0.49744022"><ele>256.8</ele><time>2022-11-13T15:37:23.0000000+00:00</time></trkpt><trkpt lat="38.96276736" lon="-0.49745162"><ele>256.8</ele><time>2022-11-13T15:37:24.0000000+00:00</time></trkpt><trkpt lat="38.96277281" lon="-0.4974533"><ele>256.4</ele><time>2022-11-13T15:37:25.0000000+00:00</time></trkpt><trkpt lat="38.96278462" lon="-0.4974512"><ele>256.4</ele><time>2022-11-13T15:37:26.0000000+00:00</time></trkpt><trkpt lat="38.96279041" lon="-0.49745103"><ele>256.2</ele><time>2022-11-13T15:37:27.0000000+00:00</time></trkpt><trkpt lat="38.9627925" lon="-0.49744953"><ele>256.0</ele><time>2022-11-13T15:37:28.0000000+00:00</time></trkpt><trkpt lat="38.96279619" lon="-0.49744735"><ele>256.0</ele><time>2022-11-13T15:37:29.0000000+00:00</time></trkpt><trkpt lat="38.96279921" lon="-0.49744626"><ele>255.8</ele><time>2022-11-13T15:37:30.0000000+00:00</time></trkpt><trkpt lat="38.96280214" lon="-0.49744684"><ele>255.8</ele><time>2022-11-13T15:37:31.0000000+00:00</time></trkpt><trkpt lat="38.96280742" lon="-0.49745623"><ele>255.6</ele><time>2022-11-13T15:37:32.0000000+00:00</time></trkpt><trkpt lat="38.9628153" lon="-0.49746185"><ele>255.4</ele><time>2022-11-13T15:37:33.0000000+00:00</time></trkpt><trkpt lat="38.96282033" lon="-0.49746319"><ele>255.4</ele><time>2022-11-13T15:37:34.0000000+00:00</time></trkpt><trkpt lat="38.96283056" lon="-0.49746344"><ele>255.4</ele><time>2022-11-13T15:37:35.0000000+00:00</time></trkpt><trkpt lat="38.96283492" lon="-0.49746486"><ele>255.4</ele><time>2022-11-13T15:37:36.0000000+00:00</time></trkpt><trkpt lat="38.96283676" lon="-0.4974657"><ele>255.4</ele><time>2022-11-13T15:37:37.0000000+00:00</time></trkpt><trkpt lat="38.96283953" lon="-0.49746553"><ele>255.4</ele><time>2022-11-13T15:37:38.0000000+00:00</time></trkpt><trkpt lat="38.96284062" lon="-0.49746545"><ele>255.4</ele><time>2022-11-13T15:37:39.0000000+00:00</time></trkpt><trkpt lat="38.96284028" lon="-0.49746621"><ele>255.4</ele><time>2022-11-13T15:37:40.0000000+00:00</time></trkpt><trkpt lat="38.96284011" lon="-0.49746595"><ele>255.6</ele><time>2022-11-13T15:37:41.0000000+00:00</time></trkpt><trkpt lat="38.96283634" lon="-0.49746646"><ele>255.6</ele><time>2022-11-13T15:37:42.0000000+00:00</time></trkpt><trkpt lat="38.96283324" lon="-0.49746562"><ele>255.6</ele><time>2022-11-13T15:37:43.0000000+00:00</time></trkpt><trkpt lat="38.96283223" lon="-0.49746562"><ele>255.6</ele><time>2022-11-13T15:37:44.0000000+00:00</time></trkpt><trkpt lat="38.96283341" lon="-0.49746729"><ele>255.6</ele><time>2022-11-13T15:37:45.0000000+00:00</time></trkpt><trkpt lat="38.96283383" lon="-0.49746897"><ele>255.6</ele><time>2022-11-13T15:37:46.0000000+00:00</time></trkpt><trkpt lat="38.96283383" lon="-0.49746897"><ele>255.6</ele><time>2022-11-13T15:37:47.0000000+00:00</time></trkpt><trkpt lat="38.96283383" lon="-0.49746897"><ele>255.6</ele><time>2022-11-13T15:37:48.0000000+00:00</time></trkpt><trkpt lat="38.96283383" lon="-0.49746897"><ele>255.6</ele><time>2022-11-13T15:37:49.0000000+00:00</time></trkpt><trkpt lat="38.96283383" lon="-0.49746897"><ele>255.6</ele><time>2022-11-13T15:37:50.0000000+00:00</time></trkpt><trkpt lat="38.96283383" lon="-0.49746897"><ele>255.6</ele><time>2022-11-13T15:37:51.0000000+00:00</time></trkpt><trkpt lat="38.96283383" lon="-0.49746897"><ele>255.6</ele><time>2022-11-13T15:37:52.0000000+00:00</time></trkpt><trkpt lat="38.96283383" lon="-0.49746897"><ele>255.6</ele><time>2022-11-13T15:37:53.0000000+00:00</time></trkpt><trkpt lat="38.96283383" lon="-0.49746897"><ele>255.6</ele><time>2022-11-13T15:37:54.0000000+00:00</time></trkpt><trkpt lat="38.96283383" lon="-0.49746897"><ele>255.6</ele><time>2022-11-13T15:37:55.0000000+00:00</time></trkpt><trkpt lat="38.96283383" lon="-0.49746897"><ele>255.6</ele><time>2022-11-13T15:37:56.0000000+00:00</time></trkpt><trkpt lat="38.96283383" lon="-0.49746897"><ele>255.6</ele><time>2022-11-13T15:37:57.0000000+00:00</time></trkpt><trkpt lat="38.96283383" lon="-0.49746897"><ele>255.6</ele><time>2022-11-13T15:37:58.0000000+00:00</time></trkpt><trkpt lat="38.96283366" lon="-0.49746897"><ele>255.6</ele><time>2022-11-13T15:37:59.0000000+00:00</time></trkpt><trkpt lat="38.96283349" lon="-0.49746897"><ele>255.6</ele><time>2022-11-13T15:38:00.0000000+00:00</time></trkpt><trkpt lat="38.96283324" lon="-0.49746897"><ele>255.6</ele><time>2022-11-13T15:38:01.0000000+00:00</time></trkpt><trkpt lat="38.96283232" lon="-0.49746897"><ele>255.6</ele><time>2022-11-13T15:38:02.0000000+00:00</time></trkpt><trkpt lat="38.96283165" lon="-0.49746897"><ele>255.6</ele><time>2022-11-13T15:38:03.0000000+00:00</time></trkpt><trkpt lat="38.96282922" lon="-0.49746897"><ele>255.6</ele><time>2022-11-13T15:38:04.0000000+00:00</time></trkpt><trkpt lat="38.96282603" lon="-0.49746897"><ele>255.6</ele><time>2022-11-13T15:38:05.0000000+00:00</time></trkpt><trkpt lat="38.96282402" lon="-0.49746914"><ele>255.6</ele><time>2022-11-13T15:38:06.0000000+00:00</time></trkpt><trkpt lat="38.96282117" lon="-0.49746939"><ele>255.6</ele><time>2022-11-13T15:38:07.0000000+00:00</time></trkpt><trkpt lat="38.96282033" lon="-0.49746964"><ele>255.6</ele><time>2022-11-13T15:38:08.0000000+00:00</time></trkpt><trkpt lat="38.96281916" lon="-0.49747023"><ele>255.4</ele><time>2022-11-13T15:38:09.0000000+00:00</time></trkpt><trkpt lat="38.96281857" lon="-0.4974704"><ele>255.4</ele><time>2022-11-13T15:38:10.0000000+00:00</time></trkpt><trkpt lat="38.9628174" lon="-0.49747048"><ele>255.4</ele><time>2022-11-13T15:38:11.0000000+00:00</time></trkpt><trkpt lat="38.96281656" lon="-0.49747056"><ele>255.2</ele><time>2022-11-13T15:38:12.0000000+00:00</time></trkpt><trkpt lat="38.96281639" lon="-0.49747157"><ele>255.2</ele><time>2022-11-13T15:38:13.0000000+00:00</time></trkpt><trkpt lat="38.96281446" lon="-0.49747182"><ele>255.2</ele><time>2022-11-13T15:38:14.0000000+00:00</time></trkpt><trkpt lat="38.96281421" lon="-0.49747258"><ele>255.0</ele><time>2022-11-13T15:38:15.0000000+00:00</time></trkpt><trkpt lat="38.96281413" lon="-0.49747266"><ele>255.0</ele><time>2022-11-13T15:38:16.0000000+00:00</time></trkpt><trkpt lat="38.96281413" lon="-0.49747266"><ele>254.8</ele><time>2022-11-13T15:38:17.0000000+00:00</time></trkpt><trkpt lat="38.96281413" lon="-0.49747325"><ele>254.6</ele><time>2022-11-13T15:38:18.0000000+00:00</time></trkpt><trkpt lat="38.96281413" lon="-0.49747341"><ele>254.6</ele><time>2022-11-13T15:38:19.0000000+00:00</time></trkpt><trkpt lat="38.96281413" lon="-0.4974735"><ele>254.2</ele><time>2022-11-13T15:38:20.0000000+00:00</time></trkpt><trkpt lat="38.96281958" lon="-0.49747459"><ele>254.0</ele><time>2022-11-13T15:38:21.0000000+00:00</time></trkpt><trkpt lat="38.96283181" lon="-0.49748221"><ele>253.8</ele><time>2022-11-13T15:38:22.0000000+00:00</time></trkpt><trkpt lat="38.96284791" lon="-0.49748783"><ele>253.6</ele><time>2022-11-13T15:38:23.0000000+00:00</time></trkpt><trkpt lat="38.962864" lon="-0.49749319"><ele>253.4</ele><time>2022-11-13T15:38:24.0000000+00:00</time></trkpt><trkpt lat="38.96287942" lon="-0.49750216"><ele>253.2</ele><time>2022-11-13T15:38:25.0000000+00:00</time></trkpt><trkpt lat="38.96288915" lon="-0.4975139"><ele>253.2</ele><time>2022-11-13T15:38:26.0000000+00:00</time></trkpt><trkpt lat="38.96289753" lon="-0.49752697"><ele>253.0</ele><time>2022-11-13T15:38:27.0000000+00:00</time></trkpt><trkpt lat="38.96290482" lon="-0.49754156"><ele>253.0</ele><time>2022-11-13T15:38:28.0000000+00:00</time></trkpt><trkpt lat="38.96291153" lon="-0.49755438"><ele>252.8</ele><time>2022-11-13T15:38:29.0000000+00:00</time></trkpt><trkpt lat="38.96291739" lon="-0.49756134"><ele>252.8</ele><time>2022-11-13T15:38:30.0000000+00:00</time></trkpt><trkpt lat="38.96292418" lon="-0.49756218"><ele>252.6</ele><time>2022-11-13T15:38:31.0000000+00:00</time></trkpt><trkpt lat="38.96293047" lon="-0.49756846"><ele>252.4</ele><time>2022-11-13T15:38:32.0000000+00:00</time></trkpt><trkpt lat="38.96293407" lon="-0.49757903"><ele>252.4</ele><time>2022-11-13T15:38:33.0000000+00:00</time></trkpt><trkpt lat="38.96293541" lon="-0.49759009"><ele>252.2</ele><time>2022-11-13T15:38:34.0000000+00:00</time></trkpt><trkpt lat="38.9629365" lon="-0.49759914"><ele>252.0</ele><time>2022-11-13T15:38:35.0000000+00:00</time></trkpt><trkpt lat="38.96294279" lon="-0.49761004"><ele>251.8</ele><time>2022-11-13T15:38:36.0000000+00:00</time></trkpt><trkpt lat="38.96294883" lon="-0.49761482"><ele>251.8</ele><time>2022-11-13T15:38:37.0000000+00:00</time></trkpt><trkpt lat="38.96295251" lon="-0.4976185"><ele>251.6</ele><time>2022-11-13T15:38:38.0000000+00:00</time></trkpt><trkpt lat="38.9629557" lon="-0.49762337"><ele>251.4</ele><time>2022-11-13T15:38:39.0000000+00:00</time></trkpt><trkpt lat="38.9629583" lon="-0.49763183"><ele>251.2</ele><time>2022-11-13T15:38:40.0000000+00:00</time></trkpt><trkpt lat="38.96295872" lon="-0.49763787"><ele>251.0</ele><time>2022-11-13T15:38:41.0000000+00:00</time></trkpt><trkpt lat="38.96295587" lon="-0.49764147"><ele>250.8</ele><time>2022-11-13T15:38:42.0000000+00:00</time></trkpt><trkpt lat="38.96295629" lon="-0.49764616"><ele>250.8</ele><time>2022-11-13T15:38:43.0000000+00:00</time></trkpt><trkpt lat="38.96295997" lon="-0.49765404"><ele>250.6</ele><time>2022-11-13T15:38:44.0000000+00:00</time></trkpt><trkpt lat="38.96295805" lon="-0.49767098"><ele>250.6</ele><time>2022-11-13T15:38:45.0000000+00:00</time></trkpt><trkpt lat="38.96296592" lon="-0.49768204"><ele>250.4</ele><time>2022-11-13T15:38:46.0000000+00:00</time></trkpt><trkpt lat="38.9629738" lon="-0.49768833"><ele>250.2</ele><time>2022-11-13T15:38:47.0000000+00:00</time></trkpt><trkpt lat="38.96298487" lon="-0.49768942"><ele>250.0</ele><time>2022-11-13T15:38:48.0000000+00:00</time></trkpt><trkpt lat="38.96299551" lon="-0.49769126"><ele>250.0</ele><time>2022-11-13T15:38:49.0000000+00:00</time></trkpt><trkpt lat="38.96300498" lon="-0.49769771"><ele>249.8</ele><time>2022-11-13T15:38:50.0000000+00:00</time></trkpt><trkpt lat="38.96301244" lon="-0.49770442"><ele>249.6</ele><time>2022-11-13T15:38:51.0000000+00:00</time></trkpt><trkpt lat="38.9630137" lon="-0.49770995"><ele>249.4</ele><time>2022-11-13T15:38:52.0000000+00:00</time></trkpt><trkpt lat="38.96301722" lon="-0.49771791"><ele>249.4</ele><time>2022-11-13T15:38:53.0000000+00:00</time></trkpt><trkpt lat="38.96302611" lon="-0.49772504"><ele>249.2</ele><time>2022-11-13T15:38:54.0000000+00:00</time></trkpt><trkpt lat="38.96303365" lon="-0.49773526"><ele>249.0</ele><time>2022-11-13T15:38:55.0000000+00:00</time></trkpt><trkpt lat="38.96304044" lon="-0.49774557"><ele>248.8</ele><time>2022-11-13T15:38:56.0000000+00:00</time></trkpt><trkpt lat="38.96304815" lon="-0.49774918"><ele>248.6</ele><time>2022-11-13T15:38:57.0000000+00:00</time></trkpt><trkpt lat="38.9630505" lon="-0.49775077"><ele>248.4</ele><time>2022-11-13T15:38:58.0000000+00:00</time></trkpt><trkpt lat="38.96305159" lon="-0.49775228"><ele>248.4</ele><time>2022-11-13T15:38:59.0000000+00:00</time></trkpt><trkpt lat="38.96305528" lon="-0.49775245"><ele>248.2</ele><time>2022-11-13T15:39:00.0000000+00:00</time></trkpt><trkpt lat="38.96305829" lon="-0.4977501"><ele>248.0</ele><time>2022-11-13T15:39:01.0000000+00:00</time></trkpt><trkpt lat="38.96306223" lon="-0.49774951"><ele>247.8</ele><time>2022-11-13T15:39:02.0000000+00:00</time></trkpt><trkpt lat="38.96306617" lon="-0.49775127"><ele>247.8</ele><time>2022-11-13T15:39:03.0000000+00:00</time></trkpt><trkpt lat="38.96306894" lon="-0.49775505"><ele>247.6</ele><time>2022-11-13T15:39:04.0000000+00:00</time></trkpt><trkpt lat="38.96307472" lon="-0.49775957"><ele>247.4</ele><time>2022-11-13T15:39:05.0000000+00:00</time></trkpt><trkpt lat="38.96308285" lon="-0.49776393"><ele>247.2</ele><time>2022-11-13T15:39:06.0000000+00:00</time></trkpt><trkpt lat="38.9630888" lon="-0.4977703"><ele>247.0</ele><time>2022-11-13T15:39:07.0000000+00:00</time></trkpt><trkpt lat="38.96309232" lon="-0.49777466"><ele>246.8</ele><time>2022-11-13T15:39:08.0000000+00:00</time></trkpt><trkpt lat="38.96308729" lon="-0.49778128"><ele>246.6</ele><time>2022-11-13T15:39:09.0000000+00:00</time></trkpt><trkpt lat="38.96308822" lon="-0.49777986"><ele>246.4</ele><time>2022-11-13T15:39:10.0000000+00:00</time></trkpt><trkpt lat="38.96308981" lon="-0.49778354"><ele>246.4</ele><time>2022-11-13T15:39:11.0000000+00:00</time></trkpt><trkpt lat="38.96309266" lon="-0.49778145"><ele>246.2</ele><time>2022-11-13T15:39:12.0000000+00:00</time></trkpt><trkpt lat="38.96309551" lon="-0.49778103"><ele>246.0</ele><time>2022-11-13T15:39:13.0000000+00:00</time></trkpt><trkpt lat="38.96309635" lon="-0.49778128"><ele>245.8</ele><time>2022-11-13T15:39:14.0000000+00:00</time></trkpt><trkpt lat="38.96309568" lon="-0.49778757"><ele>245.6</ele><time>2022-11-13T15:39:15.0000000+00:00</time></trkpt><trkpt lat="38.96309023" lon="-0.49780274"><ele>245.4</ele><time>2022-11-13T15:39:16.0000000+00:00</time></trkpt><trkpt lat="38.96309366" lon="-0.49780483"><ele>245.2</ele><time>2022-11-13T15:39:17.0000000+00:00</time></trkpt><trkpt lat="38.96309836" lon="-0.49781112"><ele>245.0</ele><time>2022-11-13T15:39:18.0000000+00:00</time></trkpt><trkpt lat="38.96310498" lon="-0.4978185"><ele>245.0</ele><time>2022-11-13T15:39:19.0000000+00:00</time></trkpt><trkpt lat="38.96310641" lon="-0.49782403"><ele>244.8</ele><time>2022-11-13T15:39:20.0000000+00:00</time></trkpt><trkpt lat="38.96310641" lon="-0.49783316"><ele>244.8</ele><time>2022-11-13T15:39:21.0000000+00:00</time></trkpt><trkpt lat="38.96310523" lon="-0.4978392"><ele>244.6</ele><time>2022-11-13T15:39:22.0000000+00:00</time></trkpt><trkpt lat="38.96310791" lon="-0.49784607"><ele>244.4</ele><time>2022-11-13T15:39:23.0000000+00:00</time></trkpt><trkpt lat="38.96311093" lon="-0.49785496"><ele>244.2</ele><time>2022-11-13T15:39:24.0000000+00:00</time></trkpt><trkpt lat="38.96310926" lon="-0.49786342"><ele>244.2</ele><time>2022-11-13T15:39:25.0000000+00:00</time></trkpt><trkpt lat="38.96310967" lon="-0.49787222"><ele>244.0</ele><time>2022-11-13T15:39:26.0000000+00:00</time></trkpt><trkpt lat="38.96311336" lon="-0.49787818"><ele>243.8</ele><time>2022-11-13T15:39:27.0000000+00:00</time></trkpt><trkpt lat="38.96311755" lon="-0.49788061"><ele>243.8</ele><time>2022-11-13T15:39:28.0000000+00:00</time></trkpt><trkpt lat="38.96312024" lon="-0.49788161"><ele>243.6</ele><time>2022-11-13T15:39:29.0000000+00:00</time></trkpt><trkpt lat="38.96312803" lon="-0.49788471"><ele>243.4</ele><time>2022-11-13T15:39:30.0000000+00:00</time></trkpt><trkpt lat="38.96312845" lon="-0.4978858"><ele>243.2</ele><time>2022-11-13T15:39:31.0000000+00:00</time></trkpt><trkpt lat="38.96312702" lon="-0.49789301"><ele>243.2</ele><time>2022-11-13T15:39:32.0000000+00:00</time></trkpt><trkpt lat="38.96312946" lon="-0.49789695"><ele>243.0</ele><time>2022-11-13T15:39:33.0000000+00:00</time></trkpt><trkpt lat="38.96313021" lon="-0.49790047"><ele>243.0</ele><time>2022-11-13T15:39:34.0000000+00:00</time></trkpt><trkpt lat="38.96313264" lon="-0.49790307"><ele>242.6</ele><time>2022-11-13T15:39:35.0000000+00:00</time></trkpt><trkpt lat="38.96314203" lon="-0.49790424"><ele>242.4</ele><time>2022-11-13T15:39:36.0000000+00:00</time></trkpt><trkpt lat="38.96314471" lon="-0.49790449"><ele>242.4</ele><time>2022-11-13T15:39:37.0000000+00:00</time></trkpt><trkpt lat="38.96314513" lon="-0.49790667"><ele>242.2</ele><time>2022-11-13T15:39:38.0000000+00:00</time></trkpt><trkpt lat="38.96314547" lon="-0.49790843"><ele>242.0</ele><time>2022-11-13T15:39:39.0000000+00:00</time></trkpt><trkpt lat="38.96314479" lon="-0.49791145"><ele>242.0</ele><time>2022-11-13T15:39:40.0000000+00:00</time></trkpt><trkpt lat="38.96315695" lon="-0.49791313"><ele>242.0</ele><time>2022-11-13T15:39:41.0000000+00:00</time></trkpt><trkpt lat="38.96316156" lon="-0.49791531"><ele>241.8</ele><time>2022-11-13T15:39:42.0000000+00:00</time></trkpt><trkpt lat="38.96316466" lon="-0.49791799"><ele>241.6</ele><time>2022-11-13T15:39:43.0000000+00:00</time></trkpt><trkpt lat="38.96316734" lon="-0.49791958"><ele>241.6</ele><time>2022-11-13T15:39:44.0000000+00:00</time></trkpt><trkpt lat="38.96316642" lon="-0.49792059"><ele>241.4</ele><time>2022-11-13T15:39:45.0000000+00:00</time></trkpt><trkpt lat="38.96316625" lon="-0.49792067"><ele>241.4</ele><time>2022-11-13T15:39:46.0000000+00:00</time></trkpt><trkpt lat="38.9631655" lon="-0.49792352"><ele>241.4</ele><time>2022-11-13T15:39:47.0000000+00:00</time></trkpt><trkpt lat="38.96316575" lon="-0.49792771"><ele>241.2</ele><time>2022-11-13T15:39:48.0000000+00:00</time></trkpt><trkpt lat="38.96317019" lon="-0.49793894"><ele>241.0</ele><time>2022-11-13T15:39:49.0000000+00:00</time></trkpt><trkpt lat="38.96317279" lon="-0.49794188"><ele>240.8</ele><time>2022-11-13T15:39:50.0000000+00:00</time></trkpt><trkpt lat="38.9631743" lon="-0.49794565"><ele>240.8</ele><time>2022-11-13T15:39:51.0000000+00:00</time></trkpt><trkpt lat="38.96317354" lon="-0.49794783"><ele>240.6</ele><time>2022-11-13T15:39:52.0000000+00:00</time></trkpt><trkpt lat="38.96317313" lon="-0.49794808"><ele>240.6</ele><time>2022-11-13T15:39:53.0000000+00:00</time></trkpt><trkpt lat="38.96317103" lon="-0.4979568"><ele>240.4</ele><time>2022-11-13T15:39:54.0000000+00:00</time></trkpt><trkpt lat="38.9631717" lon="-0.49796443"><ele>240.4</ele><time>2022-11-13T15:39:55.0000000+00:00</time></trkpt><trkpt lat="38.96317262" lon="-0.49796719"><ele>240.2</ele><time>2022-11-13T15:39:56.0000000+00:00</time></trkpt><trkpt lat="38.96317346" lon="-0.49796828"><ele>240.2</ele><time>2022-11-13T15:39:57.0000000+00:00</time></trkpt><trkpt lat="38.96317396" lon="-0.49796778"><ele>240.2</ele><time>2022-11-13T15:39:58.0000000+00:00</time></trkpt><trkpt lat="38.96317455" lon="-0.49796518"><ele>240.2</ele><time>2022-11-13T15:39:59.0000000+00:00</time></trkpt><trkpt lat="38.96317505" lon="-0.49796484"><ele>240.2</ele><time>2022-11-13T15:40:00.0000000+00:00</time></trkpt><trkpt lat="38.9631769" lon="-0.49796552"><ele>240.2</ele><time>2022-11-13T15:40:01.0000000+00:00</time></trkpt><trkpt lat="38.96317757" lon="-0.49796493"><ele>240.2</ele><time>2022-11-13T15:40:02.0000000+00:00</time></trkpt><trkpt lat="38.96317715" lon="-0.49796476"><ele>240.2</ele><time>2022-11-13T15:40:03.0000000+00:00</time></trkpt><trkpt lat="38.96317715" lon="-0.49796476"><ele>240.2</ele><time>2022-11-13T15:40:04.0000000+00:00</time></trkpt><trkpt lat="38.96317715" lon="-0.49796476"><ele>240.2</ele><time>2022-11-13T15:40:05.0000000+00:00</time></trkpt><trkpt lat="38.96317715" lon="-0.49796476"><ele>240.2</ele><time>2022-11-13T15:40:06.0000000+00:00</time></trkpt><trkpt lat="38.96317715" lon="-0.49796476"><ele>240.2</ele><time>2022-11-13T15:40:07.0000000+00:00</time></trkpt><trkpt lat="38.96317715" lon="-0.49796476"><ele>240.2</ele><time>2022-11-13T15:40:08.0000000+00:00</time></trkpt><trkpt lat="38.96317715" lon="-0.49796476"><ele>240.2</ele><time>2022-11-13T15:40:09.0000000+00:00</time></trkpt><trkpt lat="38.96317715" lon="-0.49796476"><ele>240.2</ele><time>2022-11-13T15:40:10.0000000+00:00</time></trkpt><trkpt lat="38.96317715" lon="-0.49796476"><ele>240.2</ele><time>2022-11-13T15:40:11.0000000+00:00</time></trkpt><trkpt lat="38.96317715" lon="-0.49796484"><ele>240.2</ele><time>2022-11-13T15:40:12.0000000+00:00</time></trkpt><trkpt lat="38.96317715" lon="-0.49796493"><ele>240.2</ele><time>2022-11-13T15:40:13.0000000+00:00</time></trkpt><trkpt lat="38.96317715" lon="-0.49796518"><ele>240.2</ele><time>2022-11-13T15:40:14.0000000+00:00</time></trkpt><trkpt lat="38.96317715" lon="-0.49796526"><ele>240.2</ele><time>2022-11-13T15:40:15.0000000+00:00</time></trkpt><trkpt lat="38.96317715" lon="-0.49796552"><ele>240.2</ele><time>2022-11-13T15:40:16.0000000+00:00</time></trkpt><trkpt lat="38.9631769" lon="-0.49796635"><ele>240.2</ele><time>2022-11-13T15:40:17.0000000+00:00</time></trkpt><trkpt lat="38.96317514" lon="-0.49796652"><ele>240.2</ele><time>2022-11-13T15:40:18.0000000+00:00</time></trkpt><trkpt lat="38.96317463" lon="-0.49796669"><ele>240.4</ele><time>2022-11-13T15:40:19.0000000+00:00</time></trkpt><trkpt lat="38.96317405" lon="-0.49796719"><ele>240.4</ele><time>2022-11-13T15:40:20.0000000+00:00</time></trkpt><trkpt lat="38.96317354" lon="-0.49796769"><ele>240.4</ele><time>2022-11-13T15:40:21.0000000+00:00</time></trkpt><trkpt lat="38.96317338" lon="-0.4979682"><ele>240.4</ele><time>2022-11-13T15:40:22.0000000+00:00</time></trkpt><trkpt lat="38.96317271" lon="-0.49796862"><ele>240.4</ele><time>2022-11-13T15:40:23.0000000+00:00</time></trkpt><trkpt lat="38.9631722" lon="-0.49796962"><ele>240.4</ele><time>2022-11-13T15:40:24.0000000+00:00</time></trkpt><trkpt lat="38.96317212" lon="-0.49796996"><ele>240.4</ele><time>2022-11-13T15:40:25.0000000+00:00</time></trkpt><trkpt lat="38.96317128" lon="-0.49797029"><ele>240.2</ele><time>2022-11-13T15:40:26.0000000+00:00</time></trkpt><trkpt lat="38.9631712" lon="-0.49797096"><ele>240.4</ele><time>2022-11-13T15:40:27.0000000+00:00</time></trkpt><trkpt lat="38.9631712" lon="-0.49797155"><ele>240.4</ele><time>2022-11-13T15:40:28.0000000+00:00</time></trkpt><trkpt lat="38.9631712" lon="-0.49797189"><ele>240.2</ele><time>2022-11-13T15:40:29.0000000+00:00</time></trkpt><trkpt lat="38.9631712" lon="-0.49797323"><ele>240.2</ele><time>2022-11-13T15:40:30.0000000+00:00</time></trkpt><trkpt lat="38.9631712" lon="-0.49797348"><ele>240.2</ele><time>2022-11-13T15:40:31.0000000+00:00</time></trkpt><trkpt lat="38.9631712" lon="-0.49797507"><ele>240.2</ele><time>2022-11-13T15:40:32.0000000+00:00</time></trkpt><trkpt lat="38.9631712" lon="-0.49797641"><ele>240.2</ele><time>2022-11-13T15:40:33.0000000+00:00</time></trkpt><trkpt lat="38.96317111" lon="-0.49797666"><ele>240.2</ele><time>2022-11-13T15:40:34.0000000+00:00</time></trkpt><trkpt lat="38.96317078" lon="-0.49798194"><ele>240.2</ele><time>2022-11-13T15:40:35.0000000+00:00</time></trkpt><trkpt lat="38.96316977" lon="-0.49798982"><ele>240.2</ele><time>2022-11-13T15:40:36.0000000+00:00</time></trkpt><trkpt lat="38.96316868" lon="-0.49799896"><ele>240.2</ele><time>2022-11-13T15:40:37.0000000+00:00</time></trkpt><trkpt lat="38.96316659" lon="-0.49801438"><ele>240.0</ele><time>2022-11-13T15:40:38.0000000+00:00</time></trkpt><trkpt lat="38.96316273" lon="-0.49803148"><ele>240.0</ele><time>2022-11-13T15:40:39.0000000+00:00</time></trkpt><trkpt lat="38.96315527" lon="-0.49804925"><ele>239.8</ele><time>2022-11-13T15:40:40.0000000+00:00</time></trkpt><trkpt lat="38.96315192" lon="-0.4980692"><ele>239.6</ele><time>2022-11-13T15:40:41.0000000+00:00</time></trkpt><trkpt lat="38.96315008" lon="-0.49808051"><ele>239.6</ele><time>2022-11-13T15:40:42.0000000+00:00</time></trkpt><trkpt lat="38.96314899" lon="-0.49809342"><ele>239.4</ele><time>2022-11-13T15:40:43.0000000+00:00</time></trkpt><trkpt lat="38.96315142" lon="-0.49810985"><ele>239.2</ele><time>2022-11-13T15:40:44.0000000+00:00</time></trkpt><trkpt lat="38.9631593" lon="-0.4981174"><ele>239.2</ele><time>2022-11-13T15:40:45.0000000+00:00</time></trkpt><trkpt lat="38.96316458" lon="-0.49812486"><ele>239.0</ele><time>2022-11-13T15:40:46.0000000+00:00</time></trkpt><trkpt lat="38.96317438" lon="-0.49812955"><ele>238.8</ele><time>2022-11-13T15:40:47.0000000+00:00</time></trkpt><trkpt lat="38.96318167" lon="-0.49813232"><ele>238.6</ele><time>2022-11-13T15:40:48.0000000+00:00</time></trkpt><trkpt lat="38.96319198" lon="-0.49813894"><ele>238.6</ele><time>2022-11-13T15:40:49.0000000+00:00</time></trkpt><trkpt lat="38.96320271" lon="-0.49814095"><ele>238.4</ele><time>2022-11-13T15:40:50.0000000+00:00</time></trkpt><trkpt lat="38.96320866" lon="-0.4981412"><ele>238.4</ele><time>2022-11-13T15:40:51.0000000+00:00</time></trkpt><trkpt lat="38.96321093" lon="-0.49813944"><ele>238.2</ele><time>2022-11-13T15:40:52.0000000+00:00</time></trkpt><trkpt lat="38.96321177" lon="-0.49814086"><ele>238.2</ele><time>2022-11-13T15:40:53.0000000+00:00</time></trkpt><trkpt lat="38.96321436" lon="-0.49814137"><ele>238.2</ele><time>2022-11-13T15:40:54.0000000+00:00</time></trkpt><trkpt lat="38.96322115" lon="-0.49814363"><ele>238.0</ele><time>2022-11-13T15:40:55.0000000+00:00</time></trkpt><trkpt lat="38.96323415" lon="-0.49814371"><ele>237.8</ele><time>2022-11-13T15:40:56.0000000+00:00</time></trkpt><trkpt lat="38.96324253" lon="-0.49814673"><ele>237.8</ele><time>2022-11-13T15:40:57.0000000+00:00</time></trkpt><trkpt lat="38.96325275" lon="-0.49814958"><ele>237.8</ele><time>2022-11-13T15:40:58.0000000+00:00</time></trkpt><trkpt lat="38.96326533" lon="-0.49814874"><ele>237.6</ele><time>2022-11-13T15:40:59.0000000+00:00</time></trkpt><trkpt lat="38.96327631" lon="-0.49814874"><ele>237.6</ele><time>2022-11-13T15:41:00.0000000+00:00</time></trkpt><trkpt lat="38.96328595" lon="-0.49815109"><ele>237.6</ele><time>2022-11-13T15:41:01.0000000+00:00</time></trkpt><trkpt lat="38.96329491" lon="-0.49815092"><ele>237.4</ele><time>2022-11-13T15:41:02.0000000+00:00</time></trkpt><trkpt lat="38.96330271" lon="-0.49814866"><ele>237.4</ele><time>2022-11-13T15:41:03.0000000+00:00</time></trkpt><trkpt lat="38.96331109" lon="-0.49814321"><ele>237.4</ele><time>2022-11-13T15:41:04.0000000+00:00</time></trkpt><trkpt lat="38.96331905" lon="-0.49814455"><ele>237.4</ele><time>2022-11-13T15:41:05.0000000+00:00</time></trkpt><trkpt lat="38.96333288" lon="-0.49813977"><ele>237.4</ele><time>2022-11-13T15:41:06.0000000+00:00</time></trkpt><trkpt lat="38.96334303" lon="-0.49814095"><ele>237.4</ele><time>2022-11-13T15:41:07.0000000+00:00</time></trkpt><trkpt lat="38.96335241" lon="-0.49815553"><ele>237.4</ele><time>2022-11-13T15:41:08.0000000+00:00</time></trkpt><trkpt lat="38.96337052" lon="-0.4981614"><ele>237.4</ele><time>2022-11-13T15:41:09.0000000+00:00</time></trkpt><trkpt lat="38.96338468" lon="-0.49815956"><ele>237.4</ele><time>2022-11-13T15:41:10.0000000+00:00</time></trkpt><trkpt lat="38.9633981" lon="-0.49815796"><ele>237.4</ele><time>2022-11-13T15:41:11.0000000+00:00</time></trkpt><trkpt lat="38.96340916" lon="-0.49815587"><ele>237.4</ele><time>2022-11-13T15:41:12.0000000+00:00</time></trkpt><trkpt lat="38.96342198" lon="-0.49815235"><ele>237.4</ele><time>2022-11-13T15:41:13.0000000+00:00</time></trkpt><trkpt lat="38.96343464" lon="-0.49815151"><ele>237.4</ele><time>2022-11-13T15:41:14.0000000+00:00</time></trkpt><trkpt lat="38.96344478" lon="-0.49814967"><ele>237.4</ele><time>2022-11-13T15:41:15.0000000+00:00</time></trkpt><trkpt lat="38.96345526" lon="-0.49815076"><ele>237.4</ele><time>2022-11-13T15:41:16.0000000+00:00</time></trkpt><trkpt lat="38.9634644" lon="-0.49815553"><ele>237.4</ele><time>2022-11-13T15:41:17.0000000+00:00</time></trkpt><trkpt lat="38.96346188" lon="-0.49817431"><ele>237.4</ele><time>2022-11-13T15:41:18.0000000+00:00</time></trkpt><trkpt lat="38.96347563" lon="-0.49818697"><ele>237.4</ele><time>2022-11-13T15:41:19.0000000+00:00</time></trkpt><trkpt lat="38.96349038" lon="-0.49818755"><ele>237.4</ele><time>2022-11-13T15:41:20.0000000+00:00</time></trkpt><trkpt lat="38.96350136" lon="-0.49818847"><ele>237.4</ele><time>2022-11-13T15:41:21.0000000+00:00</time></trkpt><trkpt lat="38.96350673" lon="-0.498193"><ele>237.4</ele><time>2022-11-13T15:41:22.0000000+00:00</time></trkpt><trkpt lat="38.96351511" lon="-0.49820004"><ele>237.4</ele><time>2022-11-13T15:41:23.0000000+00:00</time></trkpt><trkpt lat="38.96352542" lon="-0.49820247"><ele>237.4</ele><time>2022-11-13T15:41:24.0000000+00:00</time></trkpt><trkpt lat="38.96352952" lon="-0.49820163"><ele>237.4</ele><time>2022-11-13T15:41:25.0000000+00:00</time></trkpt><trkpt lat="38.96353891" lon="-0.49820004"><ele>237.6</ele><time>2022-11-13T15:41:26.0000000+00:00</time></trkpt><trkpt lat="38.96354612" lon="-0.4981982"><ele>237.6</ele><time>2022-11-13T15:41:27.0000000+00:00</time></trkpt><trkpt lat="38.96355383" lon="-0.49819711"><ele>237.6</ele><time>2022-11-13T15:41:28.0000000+00:00</time></trkpt><trkpt lat="38.96356297" lon="-0.49819375"><ele>237.6</ele><time>2022-11-13T15:41:29.0000000+00:00</time></trkpt><trkpt lat="38.96357571" lon="-0.49819132"><ele>237.6</ele><time>2022-11-13T15:41:30.0000000+00:00</time></trkpt><trkpt lat="38.96357864" lon="-0.49818814"><ele>237.6</ele><time>2022-11-13T15:41:31.0000000+00:00</time></trkpt><trkpt lat="38.96359071" lon="-0.49818554"><ele>237.8</ele><time>2022-11-13T15:41:32.0000000+00:00</time></trkpt><trkpt lat="38.96359725" lon="-0.49818051"><ele>237.8</ele><time>2022-11-13T15:41:33.0000000+00:00</time></trkpt><trkpt lat="38.96360689" lon="-0.49817833"><ele>237.8</ele><time>2022-11-13T15:41:34.0000000+00:00</time></trkpt><trkpt lat="38.96361846" lon="-0.49816744"><ele>237.8</ele><time>2022-11-13T15:41:35.0000000+00:00</time></trkpt><trkpt lat="38.96363656" lon="-0.49816324"><ele>237.8</ele><time>2022-11-13T15:41:36.0000000+00:00</time></trkpt><trkpt lat="38.96364989" lon="-0.49815796"><ele>237.8</ele><time>2022-11-13T15:41:37.0000000+00:00</time></trkpt><trkpt lat="38.96365953" lon="-0.49815562"><ele>237.8</ele><time>2022-11-13T15:41:38.0000000+00:00</time></trkpt><trkpt lat="38.96366757" lon="-0.49815017"><ele>238.0</ele><time>2022-11-13T15:41:39.0000000+00:00</time></trkpt><trkpt lat="38.96367688" lon="-0.49814522"><ele>238.2</ele><time>2022-11-13T15:41:40.0000000+00:00</time></trkpt><trkpt lat="38.96367847" lon="-0.49815335"><ele>238.2</ele><time>2022-11-13T15:41:41.0000000+00:00</time></trkpt><trkpt lat="38.96367847" lon="-0.49816576"><ele>238.2</ele><time>2022-11-13T15:41:42.0000000+00:00</time></trkpt><trkpt lat="38.96368023" lon="-0.49817414"><ele>238.2</ele><time>2022-11-13T15:41:43.0000000+00:00</time></trkpt><trkpt lat="38.9636861" lon="-0.49817582"><ele>238.2</ele><time>2022-11-13T15:41:44.0000000+00:00</time></trkpt><trkpt lat="38.96369733" lon="-0.49818261"><ele>238.4</ele><time>2022-11-13T15:41:45.0000000+00:00</time></trkpt><trkpt lat="38.96370487" lon="-0.49818755"><ele>238.4</ele><time>2022-11-13T15:41:46.0000000+00:00</time></trkpt><trkpt lat="38.96371669" lon="-0.49819166"><ele>238.6</ele><time>2022-11-13T15:41:47.0000000+00:00</time></trkpt><trkpt lat="38.96373706" lon="-0.4981966"><ele>238.6</ele><time>2022-11-13T15:41:48.0000000+00:00</time></trkpt><trkpt lat="38.96375324" lon="-0.49821052"><ele>238.6</ele><time>2022-11-13T15:41:49.0000000+00:00</time></trkpt><trkpt lat="38.96376824" lon="-0.49822301"><ele>238.8</ele><time>2022-11-13T15:41:50.0000000+00:00</time></trkpt><trkpt lat="38.963785" lon="-0.49823256"><ele>238.8</ele><time>2022-11-13T15:41:51.0000000+00:00</time></trkpt><trkpt lat="38.96379079" lon="-0.49823399"><ele>239.0</ele><time>2022-11-13T15:41:52.0000000+00:00</time></trkpt><trkpt lat="38.96379531" lon="-0.49823332"><ele>239.0</ele><time>2022-11-13T15:41:53.0000000+00:00</time></trkpt><trkpt lat="38.9637985" lon="-0.49823131"><ele>239.2</ele><time>2022-11-13T15:41:54.0000000+00:00</time></trkpt><trkpt lat="38.96380085" lon="-0.4982308"><ele>239.2</ele><time>2022-11-13T15:41:55.0000000+00:00</time></trkpt><trkpt lat="38.96380252" lon="-0.49823105"><ele>239.2</ele><time>2022-11-13T15:41:56.0000000+00:00</time></trkpt><trkpt lat="38.96380395" lon="-0.49823315"><ele>239.2</ele><time>2022-11-13T15:41:57.0000000+00:00</time></trkpt><trkpt lat="38.96380437" lon="-0.49823449"><ele>239.4</ele><time>2022-11-13T15:41:58.0000000+00:00</time></trkpt><trkpt lat="38.96380588" lon="-0.49823457"><ele>239.4</ele><time>2022-11-13T15:41:59.0000000+00:00</time></trkpt><trkpt lat="38.96380831" lon="-0.49823348"><ele>239.4</ele><time>2022-11-13T15:42:00.0000000+00:00</time></trkpt><trkpt lat="38.96381451" lon="-0.49823181"><ele>239.4</ele><time>2022-11-13T15:42:01.0000000+00:00</time></trkpt><trkpt lat="38.96381895" lon="-0.49822862"><ele>239.4</ele><time>2022-11-13T15:42:02.0000000+00:00</time></trkpt><trkpt lat="38.96382297" lon="-0.49822334"><ele>239.4</ele><time>2022-11-13T15:42:03.0000000+00:00</time></trkpt><trkpt lat="38.9638296" lon="-0.49822116"><ele>239.4</ele><time>2022-11-13T15:42:04.0000000+00:00</time></trkpt><trkpt lat="38.9638337" lon="-0.49821815"><ele>239.4</ele><time>2022-11-13T15:42:05.0000000+00:00</time></trkpt><trkpt lat="38.96383974" lon="-0.49821672"><ele>239.4</ele><time>2022-11-13T15:42:06.0000000+00:00</time></trkpt><trkpt lat="38.9638467" lon="-0.49821387"><ele>239.4</ele><time>2022-11-13T15:42:07.0000000+00:00</time></trkpt><trkpt lat="38.96385441" lon="-0.49820876"><ele>239.4</ele><time>2022-11-13T15:42:08.0000000+00:00</time></trkpt><trkpt lat="38.96386111" lon="-0.49820012"><ele>239.4</ele><time>2022-11-13T15:42:09.0000000+00:00</time></trkpt><trkpt lat="38.96387008" lon="-0.49819644"><ele>239.4</ele><time>2022-11-13T15:42:10.0000000+00:00</time></trkpt><trkpt lat="38.96388316" lon="-0.49819116"><ele>239.4</ele><time>2022-11-13T15:42:11.0000000+00:00</time></trkpt><trkpt lat="38.96389204" lon="-0.49818898"><ele>239.4</ele><time>2022-11-13T15:42:12.0000000+00:00</time></trkpt><trkpt lat="38.96389799" lon="-0.49818437"><ele>239.4</ele><time>2022-11-13T15:42:13.0000000+00:00</time></trkpt><trkpt lat="38.9639026" lon="-0.49818344"><ele>239.4</ele><time>2022-11-13T15:42:14.0000000+00:00</time></trkpt><trkpt lat="38.96390528" lon="-0.49817816"><ele>239.4</ele><time>2022-11-13T15:42:15.0000000+00:00</time></trkpt><trkpt lat="38.96390788" lon="-0.49817632"><ele>239.4</ele><time>2022-11-13T15:42:16.0000000+00:00</time></trkpt><trkpt lat="38.9639145" lon="-0.49817381"><ele>239.4</ele><time>2022-11-13T15:42:17.0000000+00:00</time></trkpt><trkpt lat="38.96392146" lon="-0.49817146"><ele>240.2</ele><time>2022-11-13T15:42:18.0000000+00:00</time></trkpt><trkpt lat="38.96392951" lon="-0.49816727"><ele>240.6</ele><time>2022-11-13T15:42:19.0000000+00:00</time></trkpt><trkpt lat="38.96393487" lon="-0.49816609"><ele>240.8</ele><time>2022-11-13T15:42:20.0000000+00:00</time></trkpt><trkpt lat="38.96393999" lon="-0.49816484"><ele>241.0</ele><time>2022-11-13T15:42:21.0000000+00:00</time></trkpt><trkpt lat="38.96394694" lon="-0.49816266"><ele>241.2</ele><time>2022-11-13T15:42:22.0000000+00:00</time></trkpt><trkpt lat="38.96395574" lon="-0.4981619"><ele>241.4</ele><time>2022-11-13T15:42:23.0000000+00:00</time></trkpt><trkpt lat="38.96396773" lon="-0.49816232"><ele>241.6</ele><time>2022-11-13T15:42:24.0000000+00:00</time></trkpt><trkpt lat="38.96398039" lon="-0.4981614"><ele>241.8</ele><time>2022-11-13T15:42:25.0000000+00:00</time></trkpt><trkpt lat="38.9639886" lon="-0.4981583"><ele>242.0</ele><time>2022-11-13T15:42:26.0000000+00:00</time></trkpt><trkpt lat="38.96399941" lon="-0.49815377"><ele>242.2</ele><time>2022-11-13T15:42:27.0000000+00:00</time></trkpt><trkpt lat="38.96400972" lon="-0.49814849"><ele>242.2</ele><time>2022-11-13T15:42:28.0000000+00:00</time></trkpt><trkpt lat="38.96401903" lon="-0.49814438"><ele>242.4</ele><time>2022-11-13T15:42:29.0000000+00:00</time></trkpt><trkpt lat="38.96402624" lon="-0.49814271"><ele>242.4</ele><time>2022-11-13T15:42:30.0000000+00:00</time></trkpt><trkpt lat="38.96403068" lon="-0.49814338"><ele>242.6</ele><time>2022-11-13T15:42:31.0000000+00:00</time></trkpt><trkpt lat="38.9640373" lon="-0.49814757"><ele>242.6</ele><time>2022-11-13T15:42:32.0000000+00:00</time></trkpt><trkpt lat="38.96404794" lon="-0.49815528"><ele>242.8</ele><time>2022-11-13T15:42:33.0000000+00:00</time></trkpt><trkpt lat="38.96405289" lon="-0.49815872"><ele>242.8</ele><time>2022-11-13T15:42:34.0000000+00:00</time></trkpt><trkpt lat="38.96406421" lon="-0.49816651"><ele>243.2</ele><time>2022-11-13T15:42:35.0000000+00:00</time></trkpt><trkpt lat="38.96407326" lon="-0.49816618"><ele>243.2</ele><time>2022-11-13T15:42:36.0000000+00:00</time></trkpt><trkpt lat="38.96408432" lon="-0.49816517"><ele>243.4</ele><time>2022-11-13T15:42:37.0000000+00:00</time></trkpt><trkpt lat="38.96408491" lon="-0.49817439"><ele>243.6</ele><time>2022-11-13T15:42:38.0000000+00:00</time></trkpt><trkpt lat="38.96409178" lon="-0.49817121"><ele>243.8</ele><time>2022-11-13T15:42:39.0000000+00:00</time></trkpt><trkpt lat="38.96410955" lon="-0.49816065"><ele>244.0</ele><time>2022-11-13T15:42:40.0000000+00:00</time></trkpt><trkpt lat="38.96412749" lon="-0.49815545"><ele>244.0</ele><time>2022-11-13T15:42:41.0000000+00:00</time></trkpt><trkpt lat="38.96414769" lon="-0.49815419"><ele>244.2</ele><time>2022-11-13T15:42:42.0000000+00:00</time></trkpt><trkpt lat="38.96416286" lon="-0.49815361"><ele>244.4</ele><time>2022-11-13T15:42:43.0000000+00:00</time></trkpt><trkpt lat="38.96417795" lon="-0.49815729"><ele>244.6</ele><time>2022-11-13T15:42:44.0000000+00:00</time></trkpt><trkpt lat="38.96419119" lon="-0.49815964"><ele>244.8</ele><time>2022-11-13T15:42:45.0000000+00:00</time></trkpt><trkpt lat="38.96420033" lon="-0.49815662"><ele>244.8</ele><time>2022-11-13T15:42:46.0000000+00:00</time></trkpt><trkpt lat="38.96421005" lon="-0.49814983"><ele>245.0</ele><time>2022-11-13T15:42:47.0000000+00:00</time></trkpt><trkpt lat="38.96421919" lon="-0.4981443"><ele>245.2</ele><time>2022-11-13T15:42:48.0000000+00:00</time></trkpt><trkpt lat="38.96422732" lon="-0.49813986"><ele>245.4</ele><time>2022-11-13T15:42:49.0000000+00:00</time></trkpt><trkpt lat="38.96423285" lon="-0.49813542"><ele>245.4</ele><time>2022-11-13T15:42:50.0000000+00:00</time></trkpt><trkpt lat="38.96423821" lon="-0.49813148"><ele>245.6</ele><time>2022-11-13T15:42:51.0000000+00:00</time></trkpt><trkpt lat="38.96424341" lon="-0.49812318"><ele>245.8</ele><time>2022-11-13T15:42:52.0000000+00:00</time></trkpt><trkpt lat="38.96424836" lon="-0.49811631"><ele>245.8</ele><time>2022-11-13T15:42:53.0000000+00:00</time></trkpt><trkpt lat="38.96425657" lon="-0.49811211"><ele>245.8</ele><time>2022-11-13T15:42:54.0000000+00:00</time></trkpt><trkpt lat="38.96426772" lon="-0.49810893"><ele>246.2</ele><time>2022-11-13T15:42:55.0000000+00:00</time></trkpt><trkpt lat="38.96427895" lon="-0.49810273"><ele>246.2</ele><time>2022-11-13T15:42:56.0000000+00:00</time></trkpt><trkpt lat="38.96428733" lon="-0.49810038"><ele>246.4</ele><time>2022-11-13T15:42:57.0000000+00:00</time></trkpt><trkpt lat="38.96429395" lon="-0.49809837"><ele>246.6</ele><time>2022-11-13T15:42:58.0000000+00:00</time></trkpt><trkpt lat="38.96429882" lon="-0.49809627"><ele>246.6</ele><time>2022-11-13T15:42:59.0000000+00:00</time></trkpt><trkpt lat="38.96429387" lon="-0.49810457"><ele>246.6</ele><time>2022-11-13T15:43:00.0000000+00:00</time></trkpt><trkpt lat="38.96429605" lon="-0.49810792"><ele>246.8</ele><time>2022-11-13T15:43:01.0000000+00:00</time></trkpt><trkpt lat="38.96430519" lon="-0.49811279"><ele>246.8</ele><time>2022-11-13T15:43:02.0000000+00:00</time></trkpt><trkpt lat="38.96431566" lon="-0.49811522"><ele>246.8</ele><time>2022-11-13T15:43:03.0000000+00:00</time></trkpt><trkpt lat="38.9643243" lon="-0.49811547"><ele>246.8</ele><time>2022-11-13T15:43:04.0000000+00:00</time></trkpt><trkpt lat="38.96433243" lon="-0.4981158"><ele>247.0</ele><time>2022-11-13T15:43:05.0000000+00:00</time></trkpt><trkpt lat="38.96434081" lon="-0.49811999"><ele>247.0</ele><time>2022-11-13T15:43:06.0000000+00:00</time></trkpt><trkpt lat="38.96434718" lon="-0.49812469"><ele>247.2</ele><time>2022-11-13T15:43:07.0000000+00:00</time></trkpt><trkpt lat="38.96435372" lon="-0.49812846"><ele>247.2</ele><time>2022-11-13T15:43:08.0000000+00:00</time></trkpt><trkpt lat="38.96436042" lon="-0.49813299"><ele>247.2</ele><time>2022-11-13T15:43:09.0000000+00:00</time></trkpt><trkpt lat="38.96436595" lon="-0.49813751"><ele>247.2</ele><time>2022-11-13T15:43:10.0000000+00:00</time></trkpt><trkpt lat="38.96436813" lon="-0.49814187"><ele>247.4</ele><time>2022-11-13T15:43:11.0000000+00:00</time></trkpt><trkpt lat="38.96437165" lon="-0.49814464"><ele>247.4</ele><time>2022-11-13T15:43:12.0000000+00:00</time></trkpt><trkpt lat="38.96437886" lon="-0.49814891"><ele>247.4</ele><time>2022-11-13T15:43:13.0000000+00:00</time></trkpt><trkpt lat="38.96438456" lon="-0.49815553"><ele>247.4</ele><time>2022-11-13T15:43:14.0000000+00:00</time></trkpt><trkpt lat="38.96438926" lon="-0.49816257"><ele>247.4</ele><time>2022-11-13T15:43:15.0000000+00:00</time></trkpt><trkpt lat="38.96439395" lon="-0.49817146"><ele>247.4</ele><time>2022-11-13T15:43:16.0000000+00:00</time></trkpt><trkpt lat="38.96440258" lon="-0.49817875"><ele>247.4</ele><time>2022-11-13T15:43:17.0000000+00:00</time></trkpt><trkpt lat="38.96441281" lon="-0.4981847"><ele>247.2</ele><time>2022-11-13T15:43:18.0000000+00:00</time></trkpt><trkpt lat="38.96441893" lon="-0.49819107"><ele>247.2</ele><time>2022-11-13T15:43:19.0000000+00:00</time></trkpt><trkpt lat="38.96442404" lon="-0.49819635"><ele>247.2</ele><time>2022-11-13T15:43:20.0000000+00:00</time></trkpt><trkpt lat="38.96443158" lon="-0.49820323"><ele>247.0</ele><time>2022-11-13T15:43:21.0000000+00:00</time></trkpt><trkpt lat="38.96443552" lon="-0.4982111"><ele>247.0</ele><time>2022-11-13T15:43:22.0000000+00:00</time></trkpt><trkpt lat="38.96443737" lon="-0.49821932"><ele>247.0</ele><time>2022-11-13T15:43:23.0000000+00:00</time></trkpt><trkpt lat="38.96444022" lon="-0.49822519"><ele>247.0</ele><time>2022-11-13T15:43:24.0000000+00:00</time></trkpt><trkpt lat="38.96443988" lon="-0.49823382"><ele>247.0</ele><time>2022-11-13T15:43:25.0000000+00:00</time></trkpt><trkpt lat="38.96443846" lon="-0.49824011"><ele>246.8</ele><time>2022-11-13T15:43:26.0000000+00:00</time></trkpt><trkpt lat="38.96443871" lon="-0.49824262"><ele>246.8</ele><time>2022-11-13T15:43:27.0000000+00:00</time></trkpt><trkpt lat="38.96444365" lon="-0.49824564"><ele>246.8</ele><time>2022-11-13T15:43:28.0000000+00:00</time></trkpt><trkpt lat="38.96444609" lon="-0.49824673"><ele>246.8</ele><time>2022-11-13T15:43:29.0000000+00:00</time></trkpt><trkpt lat="38.96444676" lon="-0.49824824"><ele>246.8</ele><time>2022-11-13T15:43:30.0000000+00:00</time></trkpt><trkpt lat="38.96444743" lon="-0.49824731"><ele>246.8</ele><time>2022-11-13T15:43:31.0000000+00:00</time></trkpt><trkpt lat="38.96444684" lon="-0.49824757"><ele>246.8</ele><time>2022-11-13T15:43:32.0000000+00:00</time></trkpt><trkpt lat="38.9644507" lon="-0.49824572"><ele>246.8</ele><time>2022-11-13T15:43:33.0000000+00:00</time></trkpt><trkpt lat="38.96445572" lon="-0.4982412"><ele>246.8</ele><time>2022-11-13T15:43:34.0000000+00:00</time></trkpt><trkpt lat="38.96446251" lon="-0.49823608"><ele>246.8</ele><time>2022-11-13T15:43:35.0000000+00:00</time></trkpt><trkpt lat="38.96447081" lon="-0.49823374"><ele>247.0</ele><time>2022-11-13T15:43:36.0000000+00:00</time></trkpt><trkpt lat="38.96447844" lon="-0.49823089"><ele>247.0</ele><time>2022-11-13T15:43:37.0000000+00:00</time></trkpt><trkpt lat="38.96448707" lon="-0.49822628"><ele>247.0</ele><time>2022-11-13T15:43:38.0000000+00:00</time></trkpt><trkpt lat="38.96449562" lon="-0.49821932"><ele>247.0</ele><time>2022-11-13T15:43:39.0000000+00:00</time></trkpt><trkpt lat="38.96450208" lon="-0.49821387"><ele>247.2</ele><time>2022-11-13T15:43:40.0000000+00:00</time></trkpt><trkpt lat="38.96450769" lon="-0.49820742"><ele>247.4</ele><time>2022-11-13T15:43:41.0000000+00:00</time></trkpt><trkpt lat="38.96451264" lon="-0.49819878"><ele>247.4</ele><time>2022-11-13T15:43:42.0000000+00:00</time></trkpt><trkpt lat="38.96451985" lon="-0.4981904"><ele>247.4</ele><time>2022-11-13T15:43:43.0000000+00:00</time></trkpt><trkpt lat="38.96453007" lon="-0.49818437"><ele>247.4</ele><time>2022-11-13T15:43:44.0000000+00:00</time></trkpt><trkpt lat="38.96453963" lon="-0.49817607"><ele>247.6</ele><time>2022-11-13T15:43:45.0000000+00:00</time></trkpt><trkpt lat="38.96454927" lon="-0.49816492"><ele>247.8</ele><time>2022-11-13T15:43:46.0000000+00:00</time></trkpt><trkpt lat="38.96455715" lon="-0.4981531"><ele>247.8</ele><time>2022-11-13T15:43:47.0000000+00:00</time></trkpt><trkpt lat="38.96456192" lon="-0.49814003"><ele>248.0</ele><time>2022-11-13T15:43:48.0000000+00:00</time></trkpt><trkpt lat="38.96456511" lon="-0.49812972"><ele>248.0</ele><time>2022-11-13T15:43:49.0000000+00:00</time></trkpt><trkpt lat="38.96456938" lon="-0.49811832"><ele>248.0</ele><time>2022-11-13T15:43:50.0000000+00:00</time></trkpt><trkpt lat="38.96457441" lon="-0.49810725"><ele>248.2</ele><time>2022-11-13T15:43:51.0000000+00:00</time></trkpt><trkpt lat="38.96458162" lon="-0.49810122"><ele>248.2</ele><time>2022-11-13T15:43:52.0000000+00:00</time></trkpt><trkpt lat="38.96458958" lon="-0.49809611"><ele>248.4</ele><time>2022-11-13T15:43:53.0000000+00:00</time></trkpt><trkpt lat="38.96459746" lon="-0.498092"><ele>248.4</ele><time>2022-11-13T15:43:54.0000000+00:00</time></trkpt><trkpt lat="38.96460149" lon="-0.49808663"><ele>248.4</ele><time>2022-11-13T15:43:55.0000000+00:00</time></trkpt><trkpt lat="38.96460576" lon="-0.49808353"><ele>248.4</ele><time>2022-11-13T15:43:56.0000000+00:00</time></trkpt><trkpt lat="38.96461087" lon="-0.49807959"><ele>248.4</ele><time>2022-11-13T15:43:57.0000000+00:00</time></trkpt><trkpt lat="38.96461624" lon="-0.49807197"><ele>248.4</ele><time>2022-11-13T15:43:58.0000000+00:00</time></trkpt><trkpt lat="38.96462143" lon="-0.49806115"><ele>248.4</ele><time>2022-11-13T15:43:59.0000000+00:00</time></trkpt><trkpt lat="38.96462269" lon="-0.49805562"><ele>248.4</ele><time>2022-11-13T15:44:00.0000000+00:00</time></trkpt><trkpt lat="38.96462462" lon="-0.49804925"><ele>248.6</ele><time>2022-11-13T15:44:01.0000000+00:00</time></trkpt><trkpt lat="38.9646273" lon="-0.49803886"><ele>248.6</ele><time>2022-11-13T15:44:02.0000000+00:00</time></trkpt><trkpt lat="38.96462915" lon="-0.49802712"><ele>248.6</ele><time>2022-11-13T15:44:03.0000000+00:00</time></trkpt><trkpt lat="38.96463099" lon="-0.49802117"><ele>248.8</ele><time>2022-11-13T15:44:04.0000000+00:00</time></trkpt><trkpt lat="38.964633" lon="-0.49801832"><ele>248.8</ele><time>2022-11-13T15:44:05.0000000+00:00</time></trkpt><trkpt lat="38.96463912" lon="-0.49801807"><ele>248.8</ele><time>2022-11-13T15:44:06.0000000+00:00</time></trkpt><trkpt lat="38.96464717" lon="-0.49802142"><ele>248.8</ele><time>2022-11-13T15:44:07.0000000+00:00</time></trkpt><trkpt lat="38.96465287" lon="-0.49802109"><ele>248.8</ele><time>2022-11-13T15:44:08.0000000+00:00</time></trkpt><trkpt lat="38.96465831" lon="-0.49801899"><ele>248.6</ele><time>2022-11-13T15:44:09.0000000+00:00</time></trkpt><trkpt lat="38.96466653" lon="-0.4980143"><ele>248.6</ele><time>2022-11-13T15:44:10.0000000+00:00</time></trkpt><trkpt lat="38.9646734" lon="-0.49801027"><ele>248.6</ele><time>2022-11-13T15:44:11.0000000+00:00</time></trkpt><trkpt lat="38.96468053" lon="-0.49800457"><ele>248.6</ele><time>2022-11-13T15:44:12.0000000+00:00</time></trkpt><trkpt lat="38.96468916" lon="-0.49800005"><ele>248.6</ele><time>2022-11-13T15:44:13.0000000+00:00</time></trkpt><trkpt lat="38.96470039" lon="-0.49799963"><ele>248.4</ele><time>2022-11-13T15:44:14.0000000+00:00</time></trkpt><trkpt lat="38.96471037" lon="-0.49799661"><ele>248.4</ele><time>2022-11-13T15:44:15.0000000+00:00</time></trkpt><trkpt lat="38.96471833" lon="-0.49798882"><ele>248.4</ele><time>2022-11-13T15:44:16.0000000+00:00</time></trkpt><trkpt lat="38.96472151" lon="-0.4979837"><ele>248.4</ele><time>2022-11-13T15:44:17.0000000+00:00</time></trkpt><trkpt lat="38.96472302" lon="-0.49798186"><ele>248.4</ele><time>2022-11-13T15:44:18.0000000+00:00</time></trkpt><trkpt lat="38.96472336" lon="-0.49798186"><ele>248.2</ele><time>2022-11-13T15:44:19.0000000+00:00</time></trkpt><trkpt lat="38.96472185" lon="-0.49797968"><ele>248.2</ele><time>2022-11-13T15:44:20.0000000+00:00</time></trkpt><trkpt lat="38.96472202" lon="-0.49797842"><ele>248.2</ele><time>2022-11-13T15:44:21.0000000+00:00</time></trkpt><trkpt lat="38.96472227" lon="-0.49797775"><ele>248.2</ele><time>2022-11-13T15:44:22.0000000+00:00</time></trkpt><trkpt lat="38.96472369" lon="-0.4979765"><ele>248.2</ele><time>2022-11-13T15:44:23.0000000+00:00</time></trkpt><trkpt lat="38.96472436" lon="-0.49797549"><ele>248.2</ele><time>2022-11-13T15:44:24.0000000+00:00</time></trkpt><trkpt lat="38.96472529" lon="-0.49797474"><ele>248.2</ele><time>2022-11-13T15:44:25.0000000+00:00</time></trkpt><trkpt lat="38.96472537" lon="-0.49797465"><ele>248.2</ele><time>2022-11-13T15:44:26.0000000+00:00</time></trkpt><trkpt lat="38.9647278" lon="-0.49797465"><ele>248.2</ele><time>2022-11-13T15:44:27.0000000+00:00</time></trkpt><trkpt lat="38.96472906" lon="-0.49797448"><ele>248.2</ele><time>2022-11-13T15:44:28.0000000+00:00</time></trkpt><trkpt lat="38.96473006" lon="-0.49797457"><ele>248.2</ele><time>2022-11-13T15:44:29.0000000+00:00</time></trkpt><trkpt lat="38.9647304" lon="-0.49797406"><ele>248.4</ele><time>2022-11-13T15:44:30.0000000+00:00</time></trkpt><trkpt lat="38.9647304" lon="-0.49797406"><ele>248.4</ele><time>2022-11-13T15:44:31.0000000+00:00</time></trkpt><trkpt lat="38.9647304" lon="-0.49797406"><ele>248.6</ele><time>2022-11-13T15:44:32.0000000+00:00</time></trkpt><trkpt lat="38.9647304" lon="-0.49797406"><ele>248.8</ele><time>2022-11-13T15:44:33.0000000+00:00</time></trkpt><trkpt lat="38.9647304" lon="-0.49797406"><ele>248.8</ele><time>2022-11-13T15:44:34.0000000+00:00</time></trkpt><trkpt lat="38.9647304" lon="-0.49797406"><ele>249.0</ele><time>2022-11-13T15:44:35.0000000+00:00</time></trkpt><trkpt lat="38.9647304" lon="-0.49797406"><ele>249.0</ele><time>2022-11-13T15:44:36.0000000+00:00</time></trkpt><trkpt lat="38.9647304" lon="-0.49797406"><ele>249.0</ele><time>2022-11-13T15:44:37.0000000+00:00</time></trkpt><trkpt lat="38.96473023" lon="-0.49797406"><ele>249.0</ele><time>2022-11-13T15:44:38.0000000+00:00</time></trkpt><trkpt lat="38.96473023" lon="-0.49797406"><ele>248.8</ele><time>2022-11-13T15:44:39.0000000+00:00</time></trkpt><trkpt lat="38.96473023" lon="-0.49797406"><ele>248.8</ele><time>2022-11-13T15:44:40.0000000+00:00</time></trkpt><trkpt lat="38.96473023" lon="-0.49797406"><ele>248.6</ele><time>2022-11-13T15:44:41.0000000+00:00</time></trkpt><trkpt lat="38.96473023" lon="-0.49797406"><ele>248.6</ele><time>2022-11-13T15:44:42.0000000+00:00</time></trkpt><trkpt lat="38.96473006" lon="-0.49797406"><ele>248.6</ele><time>2022-11-13T15:44:43.0000000+00:00</time></trkpt><trkpt lat="38.96473006" lon="-0.49797406"><ele>248.6</ele><time>2022-11-13T15:44:44.0000000+00:00</time></trkpt><trkpt lat="38.9647299" lon="-0.49797406"><ele>248.6</ele><time>2022-11-13T15:44:45.0000000+00:00</time></trkpt><trkpt lat="38.9647299" lon="-0.49797406"><ele>248.6</ele><time>2022-11-13T15:44:46.0000000+00:00</time></trkpt><trkpt lat="38.96472973" lon="-0.49797406"><ele>248.6</ele><time>2022-11-13T15:44:47.0000000+00:00</time></trkpt><trkpt lat="38.96472956" lon="-0.49797406"><ele>248.6</ele><time>2022-11-13T15:44:48.0000000+00:00</time></trkpt><trkpt lat="38.96472948" lon="-0.49797406"><ele>248.6</ele><time>2022-11-13T15:44:49.0000000+00:00</time></trkpt><trkpt lat="38.96472931" lon="-0.49797406"><ele>248.6</ele><time>2022-11-13T15:44:50.0000000+00:00</time></trkpt><trkpt lat="38.96472906" lon="-0.49797406"><ele>248.6</ele><time>2022-11-13T15:44:51.0000000+00:00</time></trkpt><trkpt lat="38.96472906" lon="-0.49797406"><ele>248.8</ele><time>2022-11-13T15:44:52.0000000+00:00</time></trkpt><trkpt lat="38.96472906" lon="-0.49797398"><ele>248.8</ele><time>2022-11-13T15:44:53.0000000+00:00</time></trkpt><trkpt lat="38.96472906" lon="-0.4979739"><ele>248.8</ele><time>2022-11-13T15:44:54.0000000+00:00</time></trkpt><trkpt lat="38.96472906" lon="-0.49797381"><ele>248.8</ele><time>2022-11-13T15:44:55.0000000+00:00</time></trkpt><trkpt lat="38.96472906" lon="-0.49797365"><ele>249.0</ele><time>2022-11-13T15:44:56.0000000+00:00</time></trkpt><trkpt lat="38.96472906" lon="-0.49797356"><ele>249.0</ele><time>2022-11-13T15:44:57.0000000+00:00</time></trkpt><trkpt lat="38.96472906" lon="-0.49797356"><ele>249.0</ele><time>2022-11-13T15:44:58.0000000+00:00</time></trkpt><trkpt lat="38.96472897" lon="-0.49797356"><ele>249.0</ele><time>2022-11-13T15:44:59.0000000+00:00</time></trkpt><trkpt lat="38.96472897" lon="-0.49797356"><ele>249.0</ele><time>2022-11-13T15:45:00.0000000+00:00</time></trkpt><trkpt lat="38.96472889" lon="-0.49797356"><ele>249.0</ele><time>2022-11-13T15:45:01.0000000+00:00</time></trkpt><trkpt lat="38.96472881" lon="-0.49797373"><ele>249.0</ele><time>2022-11-13T15:45:02.0000000+00:00</time></trkpt><trkpt lat="38.96472881" lon="-0.49797381"><ele>249.0</ele><time>2022-11-13T15:45:03.0000000+00:00</time></trkpt><trkpt lat="38.96472881" lon="-0.49797381"><ele>249.0</ele><time>2022-11-13T15:45:04.0000000+00:00</time></trkpt><trkpt lat="38.96472889" lon="-0.49797398"><ele>249.0</ele><time>2022-11-13T15:45:05.0000000+00:00</time></trkpt><trkpt lat="38.96472889" lon="-0.49797398"><ele>249.0</ele><time>2022-11-13T15:45:06.0000000+00:00</time></trkpt><trkpt lat="38.96472897" lon="-0.49797398"><ele>249.0</ele><time>2022-11-13T15:45:07.0000000+00:00</time></trkpt><trkpt lat="38.96472897" lon="-0.49797398"><ele>249.0</ele><time>2022-11-13T15:45:08.0000000+00:00</time></trkpt><trkpt lat="38.96472897" lon="-0.49797415"><ele>249.0</ele><time>2022-11-13T15:45:09.0000000+00:00</time></trkpt><trkpt lat="38.96472897" lon="-0.49797448"><ele>249.0</ele><time>2022-11-13T15:45:10.0000000+00:00</time></trkpt><trkpt lat="38.96472897" lon="-0.49797457"><ele>249.0</ele><time>2022-11-13T15:45:11.0000000+00:00</time></trkpt><trkpt lat="38.96472897" lon="-0.49797532"><ele>249.0</ele><time>2022-11-13T15:45:12.0000000+00:00</time></trkpt><trkpt lat="38.96472897" lon="-0.49797557"><ele>249.0</ele><time>2022-11-13T15:45:13.0000000+00:00</time></trkpt><trkpt lat="38.96472897" lon="-0.49797566"><ele>249.0</ele><time>2022-11-13T15:45:14.0000000+00:00</time></trkpt><trkpt lat="38.96472897" lon="-0.49797574"><ele>248.6</ele><time>2022-11-13T15:45:15.0000000+00:00</time></trkpt><trkpt lat="38.96472897" lon="-0.49797574"><ele>248.6</ele><time>2022-11-13T15:45:16.0000000+00:00</time></trkpt><trkpt lat="38.96472914" lon="-0.49797574"><ele>248.4</ele><time>2022-11-13T15:45:17.0000000+00:00</time></trkpt><trkpt lat="38.96472923" lon="-0.49797599"><ele>248.4</ele><time>2022-11-13T15:45:18.0000000+00:00</time></trkpt><trkpt lat="38.96472923" lon="-0.49797616"><ele>248.2</ele><time>2022-11-13T15:45:19.0000000+00:00</time></trkpt><trkpt lat="38.96472948" lon="-0.49797624"><ele>248.2</ele><time>2022-11-13T15:45:20.0000000+00:00</time></trkpt><trkpt lat="38.96472981" lon="-0.49797666"><ele>248.2</ele><time>2022-11-13T15:45:21.0000000+00:00</time></trkpt><trkpt lat="38.96473006" lon="-0.49797691"><ele>248.2</ele><time>2022-11-13T15:45:22.0000000+00:00</time></trkpt><trkpt lat="38.96473023" lon="-0.497977"><ele>248.2</ele><time>2022-11-13T15:45:23.0000000+00:00</time></trkpt><trkpt lat="38.9647304" lon="-0.497977"><ele>248.2</ele><time>2022-11-13T15:45:24.0000000+00:00</time></trkpt><trkpt lat="38.96473065" lon="-0.49797725"><ele>248.0</ele><time>2022-11-13T15:45:25.0000000+00:00</time></trkpt><trkpt lat="38.96473115" lon="-0.49797767"><ele>248.0</ele><time>2022-11-13T15:45:26.0000000+00:00</time></trkpt><trkpt lat="38.96473132" lon="-0.49797775"><ele>248.0</ele><time>2022-11-13T15:45:27.0000000+00:00</time></trkpt><trkpt lat="38.96473191" lon="-0.49797792"><ele>248.0</ele><time>2022-11-13T15:45:28.0000000+00:00</time></trkpt><trkpt lat="38.96473216" lon="-0.49797817"><ele>248.0</ele><time>2022-11-13T15:45:29.0000000+00:00</time></trkpt><trkpt lat="38.96473224" lon="-0.49797842"><ele>248.0</ele><time>2022-11-13T15:45:30.0000000+00:00</time></trkpt><trkpt lat="38.96473233" lon="-0.49797876"><ele>248.0</ele><time>2022-11-13T15:45:31.0000000+00:00</time></trkpt><trkpt lat="38.96473275" lon="-0.49797901"><ele>248.0</ele><time>2022-11-13T15:45:32.0000000+00:00</time></trkpt><trkpt lat="38.96473317" lon="-0.49797909"><ele>248.0</ele><time>2022-11-13T15:45:33.0000000+00:00</time></trkpt><trkpt lat="38.96473342" lon="-0.49797993"><ele>248.0</ele><time>2022-11-13T15:45:34.0000000+00:00</time></trkpt><trkpt lat="38.96473417" lon="-0.49798077"><ele>248.2</ele><time>2022-11-13T15:45:35.0000000+00:00</time></trkpt><trkpt lat="38.96473476" lon="-0.49798102"><ele>248.2</ele><time>2022-11-13T15:45:36.0000000+00:00</time></trkpt><trkpt lat="38.96473501" lon="-0.49798127"><ele>248.2</ele><time>2022-11-13T15:45:37.0000000+00:00</time></trkpt><trkpt lat="38.96473501" lon="-0.49798144"><ele>248.2</ele><time>2022-11-13T15:45:38.0000000+00:00</time></trkpt><trkpt lat="38.96473509" lon="-0.49798152"><ele>248.2</ele><time>2022-11-13T15:45:39.0000000+00:00</time></trkpt><trkpt lat="38.96473509" lon="-0.49798161"><ele>248.2</ele><time>2022-11-13T15:45:40.0000000+00:00</time></trkpt><trkpt lat="38.96473509" lon="-0.49798203"><ele>248.2</ele><time>2022-11-13T15:45:41.0000000+00:00</time></trkpt><trkpt lat="38.96473509" lon="-0.49798228"><ele>248.2</ele><time>2022-11-13T15:45:42.0000000+00:00</time></trkpt><trkpt lat="38.96473509" lon="-0.49798236"><ele>248.2</ele><time>2022-11-13T15:45:43.0000000+00:00</time></trkpt><trkpt lat="38.96473509" lon="-0.49798245"><ele>248.2</ele><time>2022-11-13T15:45:44.0000000+00:00</time></trkpt><trkpt lat="38.96473509" lon="-0.49798245"><ele>248.2</ele><time>2022-11-13T15:45:45.0000000+00:00</time></trkpt><trkpt lat="38.96473509" lon="-0.49798245"><ele>248.2</ele><time>2022-11-13T15:45:46.0000000+00:00</time></trkpt><trkpt lat="38.96473509" lon="-0.49798245"><ele>248.2</ele><time>2022-11-13T15:45:47.0000000+00:00</time></trkpt><trkpt lat="38.96473509" lon="-0.49798245"><ele>248.2</ele><time>2022-11-13T15:45:48.0000000+00:00</time></trkpt><trkpt lat="38.96473509" lon="-0.49798245"><ele>248.0</ele><time>2022-11-13T15:45:49.0000000+00:00</time></trkpt><trkpt lat="38.96473509" lon="-0.49798245"><ele>248.0</ele><time>2022-11-13T15:45:50.0000000+00:00</time></trkpt><trkpt lat="38.96473451" lon="-0.49798245"><ele>248.0</ele><time>2022-11-13T15:45:51.0000000+00:00</time></trkpt><trkpt lat="38.96473367" lon="-0.49798245"><ele>248.0</ele><time>2022-11-13T15:45:52.0000000+00:00</time></trkpt><trkpt lat="38.96473325" lon="-0.49798245"><ele>248.2</ele><time>2022-11-13T15:45:53.0000000+00:00</time></trkpt><trkpt lat="38.96473275" lon="-0.49798203"><ele>248.2</ele><time>2022-11-13T15:45:54.0000000+00:00</time></trkpt><trkpt lat="38.96473182" lon="-0.49798186"><ele>248.2</ele><time>2022-11-13T15:45:55.0000000+00:00</time></trkpt><trkpt lat="38.96473107" lon="-0.49798144"><ele>248.2</ele><time>2022-11-13T15:45:56.0000000+00:00</time></trkpt><trkpt lat="38.96473057" lon="-0.49798077"><ele>248.2</ele><time>2022-11-13T15:45:57.0000000+00:00</time></trkpt><trkpt lat="38.96473032" lon="-0.49798002"><ele>248.2</ele><time>2022-11-13T15:45:58.0000000+00:00</time></trkpt><trkpt lat="38.9647299" lon="-0.49797867"><ele>248.2</ele><time>2022-11-13T15:45:59.0000000+00:00</time></trkpt><trkpt lat="38.96472956" lon="-0.497978"><ele>248.2</ele><time>2022-11-13T15:46:00.0000000+00:00</time></trkpt><trkpt lat="38.96472948" lon="-0.49797742"><ele>248.2</ele><time>2022-11-13T15:46:01.0000000+00:00</time></trkpt><trkpt lat="38.96472931" lon="-0.49797725"><ele>248.2</ele><time>2022-11-13T15:46:02.0000000+00:00</time></trkpt><trkpt lat="38.96472881" lon="-0.49797666"><ele>248.0</ele><time>2022-11-13T15:46:03.0000000+00:00</time></trkpt><trkpt lat="38.96472847" lon="-0.49797641"><ele>248.0</ele><time>2022-11-13T15:46:04.0000000+00:00</time></trkpt><trkpt lat="38.9647283" lon="-0.49797616"><ele>248.0</ele><time>2022-11-13T15:46:05.0000000+00:00</time></trkpt><trkpt lat="38.96472797" lon="-0.49797591"><ele>247.8</ele><time>2022-11-13T15:46:06.0000000+00:00</time></trkpt><trkpt lat="38.96472772" lon="-0.49797574"><ele>247.8</ele><time>2022-11-13T15:46:07.0000000+00:00</time></trkpt><trkpt lat="38.96472755" lon="-0.49797574"><ele>247.8</ele><time>2022-11-13T15:46:08.0000000+00:00</time></trkpt><trkpt lat="38.96472747" lon="-0.49797566"><ele>247.8</ele><time>2022-11-13T15:46:09.0000000+00:00</time></trkpt><trkpt lat="38.96472705" lon="-0.49797566"><ele>247.8</ele><time>2022-11-13T15:46:10.0000000+00:00</time></trkpt><trkpt lat="38.96472638" lon="-0.49797566"><ele>247.8</ele><time>2022-11-13T15:46:11.0000000+00:00</time></trkpt><trkpt lat="38.96472596" lon="-0.49797566"><ele>247.8</ele><time>2022-11-13T15:46:12.0000000+00:00</time></trkpt><trkpt lat="38.96472562" lon="-0.49797566"><ele>248.0</ele><time>2022-11-13T15:46:13.0000000+00:00</time></trkpt><trkpt lat="38.96472545" lon="-0.49797557"><ele>248.2</ele><time>2022-11-13T15:46:14.0000000+00:00</time></trkpt><trkpt lat="38.96472537" lon="-0.49797532"><ele>248.2</ele><time>2022-11-13T15:46:15.0000000+00:00</time></trkpt><trkpt lat="38.9647252" lon="-0.49797482"><ele>248.4</ele><time>2022-11-13T15:46:16.0000000+00:00</time></trkpt><trkpt lat="38.96472512" lon="-0.49797448"><ele>248.4</ele><time>2022-11-13T15:46:17.0000000+00:00</time></trkpt><trkpt lat="38.96472503" lon="-0.49797432"><ele>248.4</ele><time>2022-11-13T15:46:18.0000000+00:00</time></trkpt><trkpt lat="38.96472503" lon="-0.49797406"><ele>248.4</ele><time>2022-11-13T15:46:19.0000000+00:00</time></trkpt><trkpt lat="38.96472503" lon="-0.4979739"><ele>248.4</ele><time>2022-11-13T15:46:20.0000000+00:00</time></trkpt><trkpt lat="38.96472495" lon="-0.49797381"><ele>248.4</ele><time>2022-11-13T15:46:21.0000000+00:00</time></trkpt><trkpt lat="38.96472478" lon="-0.49797348"><ele>248.4</ele><time>2022-11-13T15:46:22.0000000+00:00</time></trkpt><trkpt lat="38.96472453" lon="-0.49797323"><ele>248.4</ele><time>2022-11-13T15:46:23.0000000+00:00</time></trkpt><trkpt lat="38.9647242" lon="-0.49797314"><ele>248.4</ele><time>2022-11-13T15:46:24.0000000+00:00</time></trkpt><trkpt lat="38.96472395" lon="-0.49797314"><ele>248.4</ele><time>2022-11-13T15:46:25.0000000+00:00</time></trkpt><trkpt lat="38.96472369" lon="-0.49797331"><ele>248.4</ele><time>2022-11-13T15:46:26.0000000+00:00</time></trkpt><trkpt lat="38.96472353" lon="-0.49797348"><ele>248.4</ele><time>2022-11-13T15:46:27.0000000+00:00</time></trkpt><trkpt lat="38.96471883" lon="-0.49797524"><ele>248.6</ele><time>2022-11-13T15:46:28.0000000+00:00</time></trkpt><trkpt lat="38.96470584" lon="-0.49797784"><ele>248.6</ele><time>2022-11-13T15:46:29.0000000+00:00</time></trkpt><trkpt lat="38.96469369" lon="-0.4979827"><ele>248.6</ele><time>2022-11-13T15:46:30.0000000+00:00</time></trkpt><trkpt lat="38.9646843" lon="-0.49799225"><ele>248.6</ele><time>2022-11-13T15:46:31.0000000+00:00</time></trkpt><trkpt lat="38.96467659" lon="-0.49800097"><ele>248.6</ele><time>2022-11-13T15:46:32.0000000+00:00</time></trkpt><trkpt lat="38.96467089" lon="-0.49800885"><ele>248.6</ele><time>2022-11-13T15:46:33.0000000+00:00</time></trkpt><trkpt lat="38.96466485" lon="-0.49801891"><ele>248.6</ele><time>2022-11-13T15:46:34.0000000+00:00</time></trkpt><trkpt lat="38.96465697" lon="-0.49802804"><ele>248.6</ele><time>2022-11-13T15:46:35.0000000+00:00</time></trkpt><trkpt lat="38.96464759" lon="-0.49803877"><ele>248.6</ele><time>2022-11-13T15:46:36.0000000+00:00</time></trkpt><trkpt lat="38.96464096" lon="-0.49804363"><ele>248.6</ele><time>2022-11-13T15:46:37.0000000+00:00</time></trkpt><trkpt lat="38.96463443" lon="-0.49804322"><ele>248.6</ele><time>2022-11-13T15:46:38.0000000+00:00</time></trkpt><trkpt lat="38.96462848" lon="-0.49804305"><ele>248.6</ele><time>2022-11-13T15:46:39.0000000+00:00</time></trkpt><trkpt lat="38.96462387" lon="-0.49804439"><ele>248.6</ele><time>2022-11-13T15:46:40.0000000+00:00</time></trkpt><trkpt lat="38.96461842" lon="-0.49804984"><ele>248.6</ele><time>2022-11-13T15:46:41.0000000+00:00</time></trkpt><trkpt lat="38.9646118" lon="-0.49805386"><ele>248.6</ele><time>2022-11-13T15:46:42.0000000+00:00</time></trkpt><trkpt lat="38.96460475" lon="-0.49805922"><ele>248.6</ele><time>2022-11-13T15:46:43.0000000+00:00</time></trkpt><trkpt lat="38.96460216" lon="-0.49806224"><ele>248.6</ele><time>2022-11-13T15:46:44.0000000+00:00</time></trkpt><trkpt lat="38.96459931" lon="-0.49806224"><ele>248.6</ele><time>2022-11-13T15:46:45.0000000+00:00</time></trkpt><trkpt lat="38.96459579" lon="-0.49806149"><ele>248.6</ele><time>2022-11-13T15:46:46.0000000+00:00</time></trkpt><trkpt lat="38.96458925" lon="-0.49806333"><ele>248.6</ele><time>2022-11-13T15:46:47.0000000+00:00</time></trkpt><trkpt lat="38.96458237" lon="-0.49807104"><ele>248.6</ele><time>2022-11-13T15:46:48.0000000+00:00</time></trkpt><trkpt lat="38.96457693" lon="-0.49807607"><ele>248.6</ele><time>2022-11-13T15:46:49.0000000+00:00</time></trkpt><trkpt lat="38.9645755" lon="-0.49808504"><ele>248.6</ele><time>2022-11-13T15:46:50.0000000+00:00</time></trkpt><trkpt lat="38.96457458" lon="-0.49809569"><ele>248.4</ele><time>2022-11-13T15:46:51.0000000+00:00</time></trkpt><trkpt lat="38.96457207" lon="-0.49810323"><ele>248.4</ele><time>2022-11-13T15:46:52.0000000+00:00</time></trkpt><trkpt lat="38.9645693" lon="-0.49811228"><ele>248.2</ele><time>2022-11-13T15:46:53.0000000+00:00</time></trkpt><trkpt lat="38.96456519" lon="-0.49811983"><ele>248.2</ele><time>2022-11-13T15:46:54.0000000+00:00</time></trkpt><trkpt lat="38.96455916" lon="-0.49812838"><ele>248.0</ele><time>2022-11-13T15:46:55.0000000+00:00</time></trkpt><trkpt lat="38.96455539" lon="-0.49813852"><ele>248.0</ele><time>2022-11-13T15:46:56.0000000+00:00</time></trkpt><trkpt lat="38.96454918" lon="-0.49814874"><ele>248.0</ele><time>2022-11-13T15:46:57.0000000+00:00</time></trkpt><trkpt lat="38.96454399" lon="-0.49815813"><ele>248.0</ele><time>2022-11-13T15:46:58.0000000+00:00</time></trkpt><trkpt lat="38.96453862" lon="-0.49816802"><ele>247.8</ele><time>2022-11-13T15:46:59.0000000+00:00</time></trkpt><trkpt lat="38.96453108" lon="-0.4981749"><ele>247.8</ele><time>2022-11-13T15:47:00.0000000+00:00</time></trkpt><trkpt lat="38.96452278" lon="-0.49818244"><ele>247.6</ele><time>2022-11-13T15:47:01.0000000+00:00</time></trkpt><trkpt lat="38.96451951" lon="-0.49818856"><ele>247.6</ele><time>2022-11-13T15:47:02.0000000+00:00</time></trkpt><trkpt lat="38.96451389" lon="-0.498193"><ele>247.6</ele><time>2022-11-13T15:47:03.0000000+00:00</time></trkpt><trkpt lat="38.96450752" lon="-0.49819727"><ele>247.4</ele><time>2022-11-13T15:47:04.0000000+00:00</time></trkpt><trkpt lat="38.96450074" lon="-0.49820272"><ele>247.4</ele><time>2022-11-13T15:47:05.0000000+00:00</time></trkpt><trkpt lat="38.96449721" lon="-0.49821312"><ele>247.4</ele><time>2022-11-13T15:47:06.0000000+00:00</time></trkpt><trkpt lat="38.96449219" lon="-0.49821915"><ele>247.2</ele><time>2022-11-13T15:47:07.0000000+00:00</time></trkpt><trkpt lat="38.96448967" lon="-0.49822334"><ele>247.0</ele><time>2022-11-13T15:47:08.0000000+00:00</time></trkpt><trkpt lat="38.96448774" lon="-0.49822611"><ele>247.0</ele><time>2022-11-13T15:47:09.0000000+00:00</time></trkpt><trkpt lat="38.96448724" lon="-0.49822996"><ele>247.0</ele><time>2022-11-13T15:47:10.0000000+00:00</time></trkpt><trkpt lat="38.96448724" lon="-0.49823877"><ele>246.8</ele><time>2022-11-13T15:47:11.0000000+00:00</time></trkpt><trkpt lat="38.96448389" lon="-0.49825084"><ele>246.8</ele><time>2022-11-13T15:47:12.0000000+00:00</time></trkpt><trkpt lat="38.9644776" lon="-0.498265"><ele>246.6</ele><time>2022-11-13T15:47:13.0000000+00:00</time></trkpt><trkpt lat="38.96446989" lon="-0.49827942"><ele>246.6</ele><time>2022-11-13T15:47:14.0000000+00:00</time></trkpt><trkpt lat="38.96446939" lon="-0.49828939"><ele>246.4</ele><time>2022-11-13T15:47:15.0000000+00:00</time></trkpt><trkpt lat="38.96446402" lon="-0.49830297"><ele>246.4</ele><time>2022-11-13T15:47:16.0000000+00:00</time></trkpt><trkpt lat="38.96446159" lon="-0.49831437"><ele>246.2</ele><time>2022-11-13T15:47:17.0000000+00:00</time></trkpt><trkpt lat="38.96446218" lon="-0.4983204"><ele>246.2</ele><time>2022-11-13T15:47:18.0000000+00:00</time></trkpt><trkpt lat="38.96446159" lon="-0.49832552"><ele>246.0</ele><time>2022-11-13T15:47:19.0000000+00:00</time></trkpt><trkpt lat="38.96446092" lon="-0.49832627"><ele>245.8</ele><time>2022-11-13T15:47:20.0000000+00:00</time></trkpt><trkpt lat="38.96446117" lon="-0.49832627"><ele>245.8</ele><time>2022-11-13T15:47:21.0000000+00:00</time></trkpt><trkpt lat="38.96446025" lon="-0.49833122"><ele>245.8</ele><time>2022-11-13T15:47:22.0000000+00:00</time></trkpt><trkpt lat="38.96446059" lon="-0.49833859"><ele>245.6</ele><time>2022-11-13T15:47:23.0000000+00:00</time></trkpt><trkpt lat="38.96445824" lon="-0.49834848"><ele>245.6</ele><time>2022-11-13T15:47:24.0000000+00:00</time></trkpt><trkpt lat="38.96445916" lon="-0.49835837"><ele>245.6</ele><time>2022-11-13T15:47:25.0000000+00:00</time></trkpt><trkpt lat="38.9644631" lon="-0.49836977"><ele>245.4</ele><time>2022-11-13T15:47:26.0000000+00:00</time></trkpt><trkpt lat="38.96446721" lon="-0.49837858"><ele>245.4</ele><time>2022-11-13T15:47:27.0000000+00:00</time></trkpt><trkpt lat="38.96447014" lon="-0.49838511"><ele>245.4</ele><time>2022-11-13T15:47:28.0000000+00:00</time></trkpt><trkpt lat="38.96447081" lon="-0.49839224"><ele>245.2</ele><time>2022-11-13T15:47:29.0000000+00:00</time></trkpt><trkpt lat="38.96447048" lon="-0.49840003"><ele>245.0</ele><time>2022-11-13T15:47:30.0000000+00:00</time></trkpt><trkpt lat="38.96446662" lon="-0.49841093"><ele>245.0</ele><time>2022-11-13T15:47:31.0000000+00:00</time></trkpt><trkpt lat="38.96446595" lon="-0.49841797"><ele>244.6</ele><time>2022-11-13T15:47:32.0000000+00:00</time></trkpt><trkpt lat="38.96446302" lon="-0.49842937"><ele>244.4</ele><time>2022-11-13T15:47:33.0000000+00:00</time></trkpt><trkpt lat="38.96445916" lon="-0.49844295"><ele>244.4</ele><time>2022-11-13T15:47:34.0000000+00:00</time></trkpt><trkpt lat="38.96445531" lon="-0.49845351"><ele>244.2</ele><time>2022-11-13T15:47:35.0000000+00:00</time></trkpt><trkpt lat="38.96445329" lon="-0.49846985"><ele>244.0</ele><time>2022-11-13T15:47:36.0000000+00:00</time></trkpt><trkpt lat="38.96444785" lon="-0.49848435"><ele>244.0</ele><time>2022-11-13T15:47:37.0000000+00:00</time></trkpt><trkpt lat="38.96444659" lon="-0.49849483"><ele>243.6</ele><time>2022-11-13T15:47:38.0000000+00:00</time></trkpt><trkpt lat="38.96445539" lon="-0.49850179"><ele>243.4</ele><time>2022-11-13T15:47:39.0000000+00:00</time></trkpt><trkpt lat="38.96445807" lon="-0.49851604"><ele>243.4</ele><time>2022-11-13T15:47:40.0000000+00:00</time></trkpt><trkpt lat="38.96445992" lon="-0.49852626"><ele>243.2</ele><time>2022-11-13T15:47:41.0000000+00:00</time></trkpt><trkpt lat="38.96445782" lon="-0.49853163"><ele>243.2</ele><time>2022-11-13T15:47:42.0000000+00:00</time></trkpt><trkpt lat="38.96445732" lon="-0.49853138"><ele>243.0</ele><time>2022-11-13T15:47:43.0000000+00:00</time></trkpt><trkpt lat="38.96445053" lon="-0.49854437"><ele>242.8</ele><time>2022-11-13T15:47:44.0000000+00:00</time></trkpt><trkpt lat="38.96444935" lon="-0.49855233"><ele>242.8</ele><time>2022-11-13T15:47:45.0000000+00:00</time></trkpt><trkpt lat="38.96444634" lon="-0.49856055"><ele>242.6</ele><time>2022-11-13T15:47:46.0000000+00:00</time></trkpt><trkpt lat="38.9644491" lon="-0.4985722"><ele>242.4</ele><time>2022-11-13T15:47:47.0000000+00:00</time></trkpt><trkpt lat="38.96444508" lon="-0.49858863"><ele>242.4</ele><time>2022-11-13T15:47:48.0000000+00:00</time></trkpt><trkpt lat="38.96443879" lon="-0.4986048"><ele>242.0</ele><time>2022-11-13T15:47:49.0000000+00:00</time></trkpt><trkpt lat="38.9644403" lon="-0.49861469"><ele>241.8</ele><time>2022-11-13T15:47:50.0000000+00:00</time></trkpt><trkpt lat="38.9644403" lon="-0.49862718"><ele>241.6</ele><time>2022-11-13T15:47:51.0000000+00:00</time></trkpt><trkpt lat="38.96443418" lon="-0.49863816"><ele>241.6</ele><time>2022-11-13T15:47:52.0000000+00:00</time></trkpt><trkpt lat="38.96443318" lon="-0.49864738"><ele>241.4</ele><time>2022-11-13T15:47:53.0000000+00:00</time></trkpt><trkpt lat="38.96442982" lon="-0.49865702"><ele>241.4</ele><time>2022-11-13T15:47:54.0000000+00:00</time></trkpt><trkpt lat="38.96442764" lon="-0.49866767"><ele>241.2</ele><time>2022-11-13T15:47:55.0000000+00:00</time></trkpt><trkpt lat="38.9644284" lon="-0.49867638"><ele>241.0</ele><time>2022-11-13T15:47:56.0000000+00:00</time></trkpt><trkpt lat="38.96442949" lon="-0.49868502"><ele>240.8</ele><time>2022-11-13T15:47:57.0000000+00:00</time></trkpt><trkpt lat="38.96443259" lon="-0.49869265"><ele>240.8</ele><time>2022-11-13T15:47:58.0000000+00:00</time></trkpt><trkpt lat="38.96443586" lon="-0.49869977"><ele>240.6</ele><time>2022-11-13T15:47:59.0000000+00:00</time></trkpt><trkpt lat="38.96443896" lon="-0.49871209"><ele>240.4</ele><time>2022-11-13T15:48:00.0000000+00:00</time></trkpt><trkpt lat="38.96443955" lon="-0.49871922"><ele>240.2</ele><time>2022-11-13T15:48:01.0000000+00:00</time></trkpt><trkpt lat="38.9644393" lon="-0.49872693"><ele>240.0</ele><time>2022-11-13T15:48:02.0000000+00:00</time></trkpt><trkpt lat="38.96443871" lon="-0.49873564"><ele>239.8</ele><time>2022-11-13T15:48:03.0000000+00:00</time></trkpt><trkpt lat="38.96443846" lon="-0.49874151"><ele>239.8</ele><time>2022-11-13T15:48:04.0000000+00:00</time></trkpt><trkpt lat="38.96443804" lon="-0.49874914"><ele>239.6</ele><time>2022-11-13T15:48:05.0000000+00:00</time></trkpt><trkpt lat="38.96443318" lon="-0.49875962"><ele>239.6</ele><time>2022-11-13T15:48:06.0000000+00:00</time></trkpt><trkpt lat="38.96442739" lon="-0.4987716"><ele>239.6</ele><time>2022-11-13T15:48:07.0000000+00:00</time></trkpt><trkpt lat="38.96442588" lon="-0.49878124"><ele>239.4</ele><time>2022-11-13T15:48:08.0000000+00:00</time></trkpt><trkpt lat="38.96442588" lon="-0.4987918"><ele>239.2</ele><time>2022-11-13T15:48:09.0000000+00:00</time></trkpt><trkpt lat="38.9644263" lon="-0.49879935"><ele>239.0</ele><time>2022-11-13T15:48:10.0000000+00:00</time></trkpt><trkpt lat="38.96442488" lon="-0.49880488"><ele>238.8</ele><time>2022-11-13T15:48:11.0000000+00:00</time></trkpt><trkpt lat="38.96442547" lon="-0.49881117"><ele>238.8</ele><time>2022-11-13T15:48:12.0000000+00:00</time></trkpt><trkpt lat="38.96442907" lon="-0.49881829"><ele>238.6</ele><time>2022-11-13T15:48:13.0000000+00:00</time></trkpt><trkpt lat="38.96443225" lon="-0.49882533"><ele>238.6</ele><time>2022-11-13T15:48:14.0000000+00:00</time></trkpt><trkpt lat="38.96443142" lon="-0.49883589"><ele>238.4</ele><time>2022-11-13T15:48:15.0000000+00:00</time></trkpt><trkpt lat="38.96443242" lon="-0.49885039"><ele>238.4</ele><time>2022-11-13T15:48:16.0000000+00:00</time></trkpt><trkpt lat="38.96443334" lon="-0.4988607"><ele>238.2</ele><time>2022-11-13T15:48:17.0000000+00:00</time></trkpt><trkpt lat="38.96443234" lon="-0.49887118"><ele>238.0</ele><time>2022-11-13T15:48:18.0000000+00:00</time></trkpt><trkpt lat="38.9644367" lon="-0.49888006"><ele>237.8</ele><time>2022-11-13T15:48:19.0000000+00:00</time></trkpt><trkpt lat="38.96444206" lon="-0.49889281"><ele>237.6</ele><time>2022-11-13T15:48:20.0000000+00:00</time></trkpt><trkpt lat="38.96444575" lon="-0.49890068"><ele>237.6</ele><time>2022-11-13T15:48:21.0000000+00:00</time></trkpt><trkpt lat="38.96444893" lon="-0.49891426"><ele>237.6</ele><time>2022-11-13T15:48:22.0000000+00:00</time></trkpt><trkpt lat="38.96444692" lon="-0.49892633"><ele>237.4</ele><time>2022-11-13T15:48:23.0000000+00:00</time></trkpt><trkpt lat="38.96444751" lon="-0.4989317"><ele>237.4</ele><time>2022-11-13T15:48:24.0000000+00:00</time></trkpt><trkpt lat="38.96444734" lon="-0.49893471"><ele>237.2</ele><time>2022-11-13T15:48:25.0000000+00:00</time></trkpt><trkpt lat="38.96444659" lon="-0.49893681"><ele>237.2</ele><time>2022-11-13T15:48:26.0000000+00:00</time></trkpt><trkpt lat="38.96444609" lon="-0.4989374"><ele>237.2</ele><time>2022-11-13T15:48:27.0000000+00:00</time></trkpt><trkpt lat="38.96444592" lon="-0.49893606"><ele>237.0</ele><time>2022-11-13T15:48:28.0000000+00:00</time></trkpt><trkpt lat="38.964446" lon="-0.49893622"><ele>237.0</ele><time>2022-11-13T15:48:29.0000000+00:00</time></trkpt><trkpt lat="38.96444642" lon="-0.49893471"><ele>237.0</ele><time>2022-11-13T15:48:30.0000000+00:00</time></trkpt><trkpt lat="38.96444743" lon="-0.49893228"><ele>237.0</ele><time>2022-11-13T15:48:31.0000000+00:00</time></trkpt><trkpt lat="38.96444826" lon="-0.49893186"><ele>237.0</ele><time>2022-11-13T15:48:32.0000000+00:00</time></trkpt><trkpt lat="38.9644481" lon="-0.4989322"><ele>237.0</ele><time>2022-11-13T15:48:33.0000000+00:00</time></trkpt><trkpt lat="38.96444776" lon="-0.4989322"><ele>237.0</ele><time>2022-11-13T15:48:34.0000000+00:00</time></trkpt><trkpt lat="38.96444776" lon="-0.4989322"><ele>237.0</ele><time>2022-11-13T15:48:35.0000000+00:00</time></trkpt><trkpt lat="38.96444776" lon="-0.4989322"><ele>237.0</ele><time>2022-11-13T15:48:36.0000000+00:00</time></trkpt><trkpt lat="38.96444776" lon="-0.4989322"><ele>237.0</ele><time>2022-11-13T15:48:37.0000000+00:00</time></trkpt><trkpt lat="38.96444776" lon="-0.4989322"><ele>237.0</ele><time>2022-11-13T15:48:38.0000000+00:00</time></trkpt><trkpt lat="38.96444776" lon="-0.4989322"><ele>237.0</ele><time>2022-11-13T15:48:39.0000000+00:00</time></trkpt><trkpt lat="38.96444776" lon="-0.4989322"><ele>237.0</ele><time>2022-11-13T15:48:40.0000000+00:00</time></trkpt><trkpt lat="38.96444776" lon="-0.4989322"><ele>237.0</ele><time>2022-11-13T15:48:41.0000000+00:00</time></trkpt><trkpt lat="38.96444776" lon="-0.4989322"><ele>237.0</ele><time>2022-11-13T15:48:42.0000000+00:00</time></trkpt><trkpt lat="38.96444776" lon="-0.4989322"><ele>237.0</ele><time>2022-11-13T15:48:43.0000000+00:00</time></trkpt><trkpt lat="38.96444776" lon="-0.49893228"><ele>237.0</ele><time>2022-11-13T15:48:44.0000000+00:00</time></trkpt><trkpt lat="38.96444776" lon="-0.49893463"><ele>237.4</ele><time>2022-11-13T15:48:45.0000000+00:00</time></trkpt><trkpt lat="38.96444776" lon="-0.49893471"><ele>237.4</ele><time>2022-11-13T15:48:46.0000000+00:00</time></trkpt><trkpt lat="38.96444776" lon="-0.49893597"><ele>237.6</ele><time>2022-11-13T15:48:47.0000000+00:00</time></trkpt><trkpt lat="38.96444776" lon="-0.49893622"><ele>237.6</ele><time>2022-11-13T15:48:48.0000000+00:00</time></trkpt><trkpt lat="38.96444776" lon="-0.49893673"><ele>237.6</ele><time>2022-11-13T15:48:49.0000000+00:00</time></trkpt><trkpt lat="38.96444776" lon="-0.49893698"><ele>237.6</ele><time>2022-11-13T15:48:50.0000000+00:00</time></trkpt><trkpt lat="38.96444776" lon="-0.49893731"><ele>237.6</ele><time>2022-11-13T15:48:51.0000000+00:00</time></trkpt><trkpt lat="38.96444793" lon="-0.4989374"><ele>237.4</ele><time>2022-11-13T15:48:52.0000000+00:00</time></trkpt><trkpt lat="38.9644481" lon="-0.49893765"><ele>237.2</ele><time>2022-11-13T15:48:53.0000000+00:00</time></trkpt><trkpt lat="38.96444818" lon="-0.4989384"><ele>237.0</ele><time>2022-11-13T15:48:54.0000000+00:00</time></trkpt><trkpt lat="38.96444868" lon="-0.49893857"><ele>237.0</ele><time>2022-11-13T15:48:55.0000000+00:00</time></trkpt><trkpt lat="38.96444986" lon="-0.49893882"><ele>236.8</ele><time>2022-11-13T15:48:56.0000000+00:00</time></trkpt><trkpt lat="38.96445002" lon="-0.49893966"><ele>236.8</ele><time>2022-11-13T15:48:57.0000000+00:00</time></trkpt><trkpt lat="38.96445002" lon="-0.49893974"><ele>236.6</ele><time>2022-11-13T15:48:58.0000000+00:00</time></trkpt><trkpt lat="38.96445002" lon="-0.49894016"><ele>236.6</ele><time>2022-11-13T15:48:59.0000000+00:00</time></trkpt><trkpt lat="38.96444969" lon="-0.49895047"><ele>236.6</ele><time>2022-11-13T15:49:00.0000000+00:00</time></trkpt><trkpt lat="38.96444709" lon="-0.49896858"><ele>236.4</ele><time>2022-11-13T15:49:01.0000000+00:00</time></trkpt><trkpt lat="38.96443334" lon="-0.49899724"><ele>236.4</ele><time>2022-11-13T15:49:02.0000000+00:00</time></trkpt><trkpt lat="38.96442505" lon="-0.49902365"><ele>236.4</ele><time>2022-11-13T15:49:03.0000000+00:00</time></trkpt><trkpt lat="38.9644191" lon="-0.49904259"><ele>236.4</ele><time>2022-11-13T15:49:04.0000000+00:00</time></trkpt><trkpt lat="38.96441599" lon="-0.49906178"><ele>236.2</ele><time>2022-11-13T15:49:05.0000000+00:00</time></trkpt><trkpt lat="38.96441574" lon="-0.49908157"><ele>236.2</ele><time>2022-11-13T15:49:06.0000000+00:00</time></trkpt><trkpt lat="38.96441381" lon="-0.49909791"><ele>236.0</ele><time>2022-11-13T15:49:07.0000000+00:00</time></trkpt><trkpt lat="38.96441164" lon="-0.49911115"><ele>236.0</ele><time>2022-11-13T15:49:08.0000000+00:00</time></trkpt><trkpt lat="38.96441055" lon="-0.49912255"><ele>236.0</ele><time>2022-11-13T15:49:09.0000000+00:00</time></trkpt><trkpt lat="38.96441063" lon="-0.4991306"><ele>236.0</ele><time>2022-11-13T15:49:10.0000000+00:00</time></trkpt><trkpt lat="38.96441046" lon="-0.49913588"><ele>235.8</ele><time>2022-11-13T15:49:11.0000000+00:00</time></trkpt><trkpt lat="38.96440753" lon="-0.49914787"><ele>235.8</ele><time>2022-11-13T15:49:12.0000000+00:00</time></trkpt><trkpt lat="38.96440845" lon="-0.49915608"><ele>235.8</ele><time>2022-11-13T15:49:13.0000000+00:00</time></trkpt><trkpt lat="38.9644113" lon="-0.49916371"><ele>235.8</ele><time>2022-11-13T15:49:14.0000000+00:00</time></trkpt><trkpt lat="38.96441516" lon="-0.49917025"><ele>235.8</ele><time>2022-11-13T15:49:15.0000000+00:00</time></trkpt><trkpt lat="38.96441775" lon="-0.49917569"><ele>235.6</ele><time>2022-11-13T15:49:16.0000000+00:00</time></trkpt><trkpt lat="38.96441801" lon="-0.4991824"><ele>235.6</ele><time>2022-11-13T15:49:17.0000000+00:00</time></trkpt><trkpt lat="38.96441775" lon="-0.4991907"><ele>235.6</ele><time>2022-11-13T15:49:18.0000000+00:00</time></trkpt><trkpt lat="38.96441541" lon="-0.49920059"><ele>235.6</ele><time>2022-11-13T15:49:19.0000000+00:00</time></trkpt><trkpt lat="38.96441432" lon="-0.49920939"><ele>235.6</ele><time>2022-11-13T15:49:20.0000000+00:00</time></trkpt><trkpt lat="38.96441055" lon="-0.49921995"><ele>235.4</ele><time>2022-11-13T15:49:21.0000000+00:00</time></trkpt><trkpt lat="38.96441205" lon="-0.49923076"><ele>235.4</ele><time>2022-11-13T15:49:22.0000000+00:00</time></trkpt><trkpt lat="38.96441381" lon="-0.49923822"><ele>235.2</ele><time>2022-11-13T15:49:23.0000000+00:00</time></trkpt><trkpt lat="38.9644139" lon="-0.4992451"><ele>235.2</ele><time>2022-11-13T15:49:24.0000000+00:00</time></trkpt><trkpt lat="38.96441449" lon="-0.49924962"><ele>235.2</ele><time>2022-11-13T15:49:25.0000000+00:00</time></trkpt><trkpt lat="38.96441407" lon="-0.49925306"><ele>235.2</ele><time>2022-11-13T15:49:26.0000000+00:00</time></trkpt><trkpt lat="38.9644144" lon="-0.4992544"><ele>235.0</ele><time>2022-11-13T15:49:27.0000000+00:00</time></trkpt><trkpt lat="38.96441465" lon="-0.49925633"><ele>235.2</ele><time>2022-11-13T15:49:28.0000000+00:00</time></trkpt><trkpt lat="38.9644149" lon="-0.49925624"><ele>235.2</ele><time>2022-11-13T15:49:29.0000000+00:00</time></trkpt><trkpt lat="38.96441532" lon="-0.49925683"><ele>235.2</ele><time>2022-11-13T15:49:30.0000000+00:00</time></trkpt><trkpt lat="38.96441566" lon="-0.49925935"><ele>235.2</ele><time>2022-11-13T15:49:31.0000000+00:00</time></trkpt><trkpt lat="38.96441557" lon="-0.49926002"><ele>235.2</ele><time>2022-11-13T15:49:32.0000000+00:00</time></trkpt><trkpt lat="38.96441549" lon="-0.49925951"><ele>235.2</ele><time>2022-11-13T15:49:33.0000000+00:00</time></trkpt><trkpt lat="38.96441507" lon="-0.49925951"><ele>235.2</ele><time>2022-11-13T15:49:34.0000000+00:00</time></trkpt><trkpt lat="38.96441449" lon="-0.49926194"><ele>235.2</ele><time>2022-11-13T15:49:35.0000000+00:00</time></trkpt><trkpt lat="38.96441499" lon="-0.49926345"><ele>235.2</ele><time>2022-11-13T15:49:36.0000000+00:00</time></trkpt><trkpt lat="38.96441532" lon="-0.49926345"><ele>235.2</ele><time>2022-11-13T15:49:37.0000000+00:00</time></trkpt><trkpt lat="38.96441532" lon="-0.49926345"><ele>235.2</ele><time>2022-11-13T15:49:38.0000000+00:00</time></trkpt><trkpt lat="38.96441532" lon="-0.49926345"><ele>235.2</ele><time>2022-11-13T15:49:39.0000000+00:00</time></trkpt><trkpt lat="38.96441532" lon="-0.49926345"><ele>235.2</ele><time>2022-11-13T15:49:40.0000000+00:00</time></trkpt><trkpt lat="38.96441532" lon="-0.49926345"><ele>235.2</ele><time>2022-11-13T15:49:41.0000000+00:00</time></trkpt><trkpt lat="38.96441532" lon="-0.49926345"><ele>235.2</ele><time>2022-11-13T15:49:42.0000000+00:00</time></trkpt><trkpt lat="38.96441532" lon="-0.49926345"><ele>235.2</ele><time>2022-11-13T15:49:43.0000000+00:00</time></trkpt><trkpt lat="38.96441532" lon="-0.49926345"><ele>235.2</ele><time>2022-11-13T15:49:44.0000000+00:00</time></trkpt><trkpt lat="38.96441532" lon="-0.49926345"><ele>235.2</ele><time>2022-11-13T15:49:45.0000000+00:00</time></trkpt><trkpt lat="38.96441532" lon="-0.49926329"><ele>235.2</ele><time>2022-11-13T15:49:46.0000000+00:00</time></trkpt><trkpt lat="38.96441532" lon="-0.49926303"><ele>235.2</ele><time>2022-11-13T15:49:47.0000000+00:00</time></trkpt><trkpt lat="38.96441532" lon="-0.49926287"><ele>235.2</ele><time>2022-11-13T15:49:48.0000000+00:00</time></trkpt><trkpt lat="38.96441532" lon="-0.49926278"><ele>235.2</ele><time>2022-11-13T15:49:49.0000000+00:00</time></trkpt><trkpt lat="38.96441549" lon="-0.49926203"><ele>235.2</ele><time>2022-11-13T15:49:50.0000000+00:00</time></trkpt><trkpt lat="38.96441557" lon="-0.49926111"><ele>235.2</ele><time>2022-11-13T15:49:51.0000000+00:00</time></trkpt><trkpt lat="38.96441566" lon="-0.49926069"><ele>235.2</ele><time>2022-11-13T15:49:52.0000000+00:00</time></trkpt><trkpt lat="38.96441608" lon="-0.4992606"><ele>235.2</ele><time>2022-11-13T15:49:53.0000000+00:00</time></trkpt><trkpt lat="38.96441633" lon="-0.49926035"><ele>235.4</ele><time>2022-11-13T15:49:54.0000000+00:00</time></trkpt><trkpt lat="38.9644165" lon="-0.49926027"><ele>235.4</ele><time>2022-11-13T15:49:55.0000000+00:00</time></trkpt><trkpt lat="38.96441658" lon="-0.4992601"><ele>235.4</ele><time>2022-11-13T15:49:56.0000000+00:00</time></trkpt><trkpt lat="38.96441658" lon="-0.49925993"><ele>235.4</ele><time>2022-11-13T15:49:57.0000000+00:00</time></trkpt><trkpt lat="38.96441658" lon="-0.49925985"><ele>235.2</ele><time>2022-11-13T15:49:58.0000000+00:00</time></trkpt><trkpt lat="38.96441658" lon="-0.49926002"><ele>235.2</ele><time>2022-11-13T15:49:59.0000000+00:00</time></trkpt><trkpt lat="38.96441658" lon="-0.49926027"><ele>235.2</ele><time>2022-11-13T15:50:00.0000000+00:00</time></trkpt><trkpt lat="38.9644149" lon="-0.49926387"><ele>235.0</ele><time>2022-11-13T15:50:01.0000000+00:00</time></trkpt><trkpt lat="38.96440962" lon="-0.4992839"><ele>235.0</ele><time>2022-11-13T15:50:02.0000000+00:00</time></trkpt><trkpt lat="38.96440669" lon="-0.49930285"><ele>235.0</ele><time>2022-11-13T15:50:03.0000000+00:00</time></trkpt><trkpt lat="38.96440124" lon="-0.49932137"><ele>235.0</ele><time>2022-11-13T15:50:04.0000000+00:00</time></trkpt><trkpt lat="38.9643963" lon="-0.49933763"><ele>235.0</ele><time>2022-11-13T15:50:05.0000000+00:00</time></trkpt><trkpt lat="38.9643916" lon="-0.49935071"><ele>234.8</ele><time>2022-11-13T15:50:06.0000000+00:00</time></trkpt><trkpt lat="38.96438976" lon="-0.49936412"><ele>234.8</ele><time>2022-11-13T15:50:07.0000000+00:00</time></trkpt><trkpt lat="38.96438607" lon="-0.4993803"><ele>234.8</ele><time>2022-11-13T15:50:08.0000000+00:00</time></trkpt><trkpt lat="38.96438029" lon="-0.49939564"><ele>234.8</ele><time>2022-11-13T15:50:09.0000000+00:00</time></trkpt><trkpt lat="38.9643771" lon="-0.499401"><ele>234.8</ele><time>2022-11-13T15:50:10.0000000+00:00</time></trkpt><trkpt lat="38.96437643" lon="-0.4994015"><ele>234.8</ele><time>2022-11-13T15:50:11.0000000+00:00</time></trkpt><trkpt lat="38.96437601" lon="-0.4994031"><ele>234.8</ele><time>2022-11-13T15:50:12.0000000+00:00</time></trkpt><trkpt lat="38.96437584" lon="-0.49940419"><ele>234.8</ele><time>2022-11-13T15:50:13.0000000+00:00</time></trkpt><trkpt lat="38.96437618" lon="-0.49940393"><ele>234.6</ele><time>2022-11-13T15:50:14.0000000+00:00</time></trkpt><trkpt lat="38.96437668" lon="-0.49940427"><ele>234.6</ele><time>2022-11-13T15:50:15.0000000+00:00</time></trkpt><trkpt lat="38.96437769" lon="-0.49940628"><ele>234.6</ele><time>2022-11-13T15:50:16.0000000+00:00</time></trkpt><trkpt lat="38.96438037" lon="-0.49941215"><ele>234.6</ele><time>2022-11-13T15:50:17.0000000+00:00</time></trkpt><trkpt lat="38.96438079" lon="-0.49941693"><ele>234.6</ele><time>2022-11-13T15:50:18.0000000+00:00</time></trkpt><trkpt lat="38.96438087" lon="-0.49941919"><ele>234.6</ele><time>2022-11-13T15:50:19.0000000+00:00</time></trkpt><trkpt lat="38.96438113" lon="-0.49941894"><ele>234.6</ele><time>2022-11-13T15:50:20.0000000+00:00</time></trkpt><trkpt lat="38.96438113" lon="-0.49941894"><ele>234.4</ele><time>2022-11-13T15:50:21.0000000+00:00</time></trkpt><trkpt lat="38.96438113" lon="-0.49941894"><ele>234.4</ele><time>2022-11-13T15:50:22.0000000+00:00</time></trkpt><trkpt lat="38.96438113" lon="-0.49941894"><ele>234.4</ele><time>2022-11-13T15:50:23.0000000+00:00</time></trkpt><trkpt lat="38.96438113" lon="-0.49941894"><ele>234.4</ele><time>2022-11-13T15:50:24.0000000+00:00</time></trkpt><trkpt lat="38.96438113" lon="-0.49941894"><ele>234.4</ele><time>2022-11-13T15:50:25.0000000+00:00</time></trkpt><trkpt lat="38.96438113" lon="-0.49941894"><ele>234.4</ele><time>2022-11-13T15:50:26.0000000+00:00</time></trkpt><trkpt lat="38.96438113" lon="-0.49941894"><ele>234.4</ele><time>2022-11-13T15:50:27.0000000+00:00</time></trkpt><trkpt lat="38.96438113" lon="-0.49941894"><ele>234.4</ele><time>2022-11-13T15:50:28.0000000+00:00</time></trkpt><trkpt lat="38.96438104" lon="-0.4994176"><ele>234.4</ele><time>2022-11-13T15:50:29.0000000+00:00</time></trkpt><trkpt lat="38.96438096" lon="-0.4994176"><ele>234.4</ele><time>2022-11-13T15:50:30.0000000+00:00</time></trkpt><trkpt lat="38.96438079" lon="-0.49941701"><ele>234.4</ele><time>2022-11-13T15:50:31.0000000+00:00</time></trkpt><trkpt lat="38.96438071" lon="-0.49941701"><ele>234.4</ele><time>2022-11-13T15:50:32.0000000+00:00</time></trkpt><trkpt lat="38.96438062" lon="-0.49941701"><ele>234.4</ele><time>2022-11-13T15:50:33.0000000+00:00</time></trkpt><trkpt lat="38.96438054" lon="-0.49941701"><ele>234.4</ele><time>2022-11-13T15:50:34.0000000+00:00</time></trkpt><trkpt lat="38.96438054" lon="-0.49941701"><ele>234.6</ele><time>2022-11-13T15:50:35.0000000+00:00</time></trkpt><trkpt lat="38.96438045" lon="-0.49941701"><ele>234.6</ele><time>2022-11-13T15:50:36.0000000+00:00</time></trkpt><trkpt lat="38.96438045" lon="-0.49941701"><ele>234.8</ele><time>2022-11-13T15:50:37.0000000+00:00</time></trkpt><trkpt lat="38.96438012" lon="-0.49941701"><ele>234.8</ele><time>2022-11-13T15:50:38.0000000+00:00</time></trkpt><trkpt lat="38.96437987" lon="-0.49941701"><ele>234.8</ele><time>2022-11-13T15:50:39.0000000+00:00</time></trkpt><trkpt lat="38.96437987" lon="-0.49941701"><ele>234.6</ele><time>2022-11-13T15:50:40.0000000+00:00</time></trkpt><trkpt lat="38.96437987" lon="-0.49941701"><ele>234.4</ele><time>2022-11-13T15:50:41.0000000+00:00</time></trkpt><trkpt lat="38.96438004" lon="-0.49941734"><ele>234.4</ele><time>2022-11-13T15:50:42.0000000+00:00</time></trkpt><trkpt lat="38.96438037" lon="-0.49941751"><ele>234.2</ele><time>2022-11-13T15:50:43.0000000+00:00</time></trkpt><trkpt lat="38.96438045" lon="-0.49941785"><ele>234.2</ele><time>2022-11-13T15:50:44.0000000+00:00</time></trkpt><trkpt lat="38.96438146" lon="-0.4994238"><ele>234.0</ele><time>2022-11-13T15:50:45.0000000+00:00</time></trkpt><trkpt lat="38.96438465" lon="-0.49944794"><ele>234.0</ele><time>2022-11-13T15:50:46.0000000+00:00</time></trkpt><trkpt lat="38.96438624" lon="-0.49946697"><ele>233.8</ele><time>2022-11-13T15:50:47.0000000+00:00</time></trkpt><trkpt lat="38.96438984" lon="-0.49948323"><ele>233.8</ele><time>2022-11-13T15:50:48.0000000+00:00</time></trkpt><trkpt lat="38.96439672" lon="-0.499501"><ele>233.6</ele><time>2022-11-13T15:50:49.0000000+00:00</time></trkpt><trkpt lat="38.96440392" lon="-0.49951944"><ele>233.4</ele><time>2022-11-13T15:50:50.0000000+00:00</time></trkpt><trkpt lat="38.96440971" lon="-0.49953687"><ele>233.2</ele><time>2022-11-13T15:50:51.0000000+00:00</time></trkpt><trkpt lat="38.96441381" lon="-0.49955271"><ele>233.0</ele><time>2022-11-13T15:50:52.0000000+00:00</time></trkpt><trkpt lat="38.96441775" lon="-0.49956956"><ele>232.8</ele><time>2022-11-13T15:50:53.0000000+00:00</time></trkpt><trkpt lat="38.9644201" lon="-0.49958758"><ele>232.6</ele><time>2022-11-13T15:50:54.0000000+00:00</time></trkpt><trkpt lat="38.96442371" lon="-0.49960074"><ele>232.6</ele><time>2022-11-13T15:50:55.0000000+00:00</time></trkpt><trkpt lat="38.9644263" lon="-0.49961524"><ele>232.4</ele><time>2022-11-13T15:50:56.0000000+00:00</time></trkpt><trkpt lat="38.96443091" lon="-0.49962941"><ele>232.4</ele><time>2022-11-13T15:50:57.0000000+00:00</time></trkpt><trkpt lat="38.96443703" lon="-0.49964156"><ele>232.2</ele><time>2022-11-13T15:50:58.0000000+00:00</time></trkpt><trkpt lat="38.96444047" lon="-0.49965438"><ele>232.2</ele><time>2022-11-13T15:50:59.0000000+00:00</time></trkpt><trkpt lat="38.96444634" lon="-0.49966201"><ele>232.0</ele><time>2022-11-13T15:51:00.0000000+00:00</time></trkpt><trkpt lat="38.96445346" lon="-0.49967073"><ele>231.8</ele><time>2022-11-13T15:51:01.0000000+00:00</time></trkpt><trkpt lat="38.96446134" lon="-0.49968422"><ele>231.6</ele><time>2022-11-13T15:51:02.0000000+00:00</time></trkpt><trkpt lat="38.96446629" lon="-0.49970015"><ele>231.6</ele><time>2022-11-13T15:51:03.0000000+00:00</time></trkpt><trkpt lat="38.96446939" lon="-0.49971507"><ele>231.4</ele><time>2022-11-13T15:51:04.0000000+00:00</time></trkpt><trkpt lat="38.96447064" lon="-0.49972722"><ele>231.4</ele><time>2022-11-13T15:51:05.0000000+00:00</time></trkpt><trkpt lat="38.9644688" lon="-0.4997403"><ele>231.2</ele><time>2022-11-13T15:51:06.0000000+00:00</time></trkpt><trkpt lat="38.96446629" lon="-0.49975153"><ele>231.2</ele><time>2022-11-13T15:51:07.0000000+00:00</time></trkpt><trkpt lat="38.96446168" lon="-0.49976201"><ele>231.0</ele><time>2022-11-13T15:51:08.0000000+00:00</time></trkpt><trkpt lat="38.96445941" lon="-0.4997719"><ele>230.8</ele><time>2022-11-13T15:51:09.0000000+00:00</time></trkpt><trkpt lat="38.96445891" lon="-0.49978539"><ele>230.6</ele><time>2022-11-13T15:51:10.0000000+00:00</time></trkpt><trkpt lat="38.96446017" lon="-0.49980048"><ele>230.4</ele><time>2022-11-13T15:51:11.0000000+00:00</time></trkpt><trkpt lat="38.96446394" lon="-0.49981456"><ele>230.2</ele><time>2022-11-13T15:51:12.0000000+00:00</time></trkpt><trkpt lat="38.96446712" lon="-0.49982898"><ele>230.0</ele><time>2022-11-13T15:51:13.0000000+00:00</time></trkpt><trkpt lat="38.96446629" lon="-0.49984197"><ele>229.8</ele><time>2022-11-13T15:51:14.0000000+00:00</time></trkpt><trkpt lat="38.96446897" lon="-0.4998579"><ele>229.6</ele><time>2022-11-13T15:51:15.0000000+00:00</time></trkpt><trkpt lat="38.96447022" lon="-0.49986863"><ele>229.4</ele><time>2022-11-13T15:51:16.0000000+00:00</time></trkpt><trkpt lat="38.96447358" lon="-0.49987885"><ele>229.2</ele><time>2022-11-13T15:51:17.0000000+00:00</time></trkpt><trkpt lat="38.96447509" lon="-0.49988749"><ele>229.0</ele><time>2022-11-13T15:51:18.0000000+00:00</time></trkpt><trkpt lat="38.96447559" lon="-0.49989721"><ele>228.8</ele><time>2022-11-13T15:51:19.0000000+00:00</time></trkpt><trkpt lat="38.96447735" lon="-0.49991179"><ele>228.6</ele><time>2022-11-13T15:51:20.0000000+00:00</time></trkpt><trkpt lat="38.96447768" lon="-0.49992085"><ele>228.4</ele><time>2022-11-13T15:51:21.0000000+00:00</time></trkpt><trkpt lat="38.96448154" lon="-0.49993015"><ele>228.2</ele><time>2022-11-13T15:51:22.0000000+00:00</time></trkpt><trkpt lat="38.96449076" lon="-0.49994222"><ele>228.0</ele><time>2022-11-13T15:51:23.0000000+00:00</time></trkpt><trkpt lat="38.96449277" lon="-0.49995169"><ele>227.8</ele><time>2022-11-13T15:51:24.0000000+00:00</time></trkpt><trkpt lat="38.96449361" lon="-0.49996058"><ele>227.6</ele><time>2022-11-13T15:51:25.0000000+00:00</time></trkpt><trkpt lat="38.96450124" lon="-0.49996728"><ele>227.6</ele><time>2022-11-13T15:51:26.0000000+00:00</time></trkpt><trkpt lat="38.96450962" lon="-0.49997315"><ele>227.2</ele><time>2022-11-13T15:51:27.0000000+00:00</time></trkpt><trkpt lat="38.96451113" lon="-0.49998094"><ele>227.2</ele><time>2022-11-13T15:51:28.0000000+00:00</time></trkpt><trkpt lat="38.96451348" lon="-0.49999226"><ele>227.0</ele><time>2022-11-13T15:51:29.0000000+00:00</time></trkpt><trkpt lat="38.96451641" lon="-0.4999993"><ele>227.0</ele><time>2022-11-13T15:51:30.0000000+00:00</time></trkpt><trkpt lat="38.96451783" lon="-0.50000944"><ele>226.8</ele><time>2022-11-13T15:51:31.0000000+00:00</time></trkpt><trkpt lat="38.96451943" lon="-0.50002009"><ele>226.6</ele><time>2022-11-13T15:51:32.0000000+00:00</time></trkpt><trkpt lat="38.96451876" lon="-0.50003115"><ele>226.4</ele><time>2022-11-13T15:51:33.0000000+00:00</time></trkpt><trkpt lat="38.96452253" lon="-0.50003744"><ele>226.2</ele><time>2022-11-13T15:51:34.0000000+00:00</time></trkpt><trkpt lat="38.96452571" lon="-0.50004406"><ele>226.2</ele><time>2022-11-13T15:51:35.0000000+00:00</time></trkpt><trkpt lat="38.9645299" lon="-0.50004884"><ele>226.0</ele><time>2022-11-13T15:51:36.0000000+00:00</time></trkpt><trkpt lat="38.96453384" lon="-0.50005395"><ele>225.8</ele><time>2022-11-13T15:51:37.0000000+00:00</time></trkpt><trkpt lat="38.96453829" lon="-0.50005538"><ele>225.6</ele><time>2022-11-13T15:51:38.0000000+00:00</time></trkpt><trkpt lat="38.9645403" lon="-0.50006024"><ele>225.4</ele><time>2022-11-13T15:51:39.0000000+00:00</time></trkpt><trkpt lat="38.96454608" lon="-0.5000646"><ele>225.4</ele><time>2022-11-13T15:51:40.0000000+00:00</time></trkpt><trkpt lat="38.96454717" lon="-0.50007356"><ele>225.2</ele><time>2022-11-13T15:51:41.0000000+00:00</time></trkpt><trkpt lat="38.96454449" lon="-0.50008178"><ele>225.2</ele><time>2022-11-13T15:51:42.0000000+00:00</time></trkpt><trkpt lat="38.96454474" lon="-0.50009469"><ele>225.0</ele><time>2022-11-13T15:51:43.0000000+00:00</time></trkpt><trkpt lat="38.96454516" lon="-0.50011044"><ele>224.8</ele><time>2022-11-13T15:51:44.0000000+00:00</time></trkpt><trkpt lat="38.96454189" lon="-0.50011966"><ele>224.6</ele><time>2022-11-13T15:51:45.0000000+00:00</time></trkpt><trkpt lat="38.96453275" lon="-0.50013215"><ele>224.4</ele><time>2022-11-13T15:51:46.0000000+00:00</time></trkpt><trkpt lat="38.96452596" lon="-0.50014297"><ele>224.4</ele><time>2022-11-13T15:51:47.0000000+00:00</time></trkpt><trkpt lat="38.96452781" lon="-0.50014867"><ele>224.2</ele><time>2022-11-13T15:51:48.0000000+00:00</time></trkpt><trkpt lat="38.96452705" lon="-0.50015671"><ele>224.2</ele><time>2022-11-13T15:51:49.0000000+00:00</time></trkpt><trkpt lat="38.96452496" lon="-0.50016375"><ele>224.0</ele><time>2022-11-13T15:51:50.0000000+00:00</time></trkpt><trkpt lat="38.96451842" lon="-0.50017071"><ele>223.8</ele><time>2022-11-13T15:51:51.0000000+00:00</time></trkpt><trkpt lat="38.96451532" lon="-0.50017649"><ele>223.6</ele><time>2022-11-13T15:51:52.0000000+00:00</time></trkpt><trkpt lat="38.96451113" lon="-0.5001832"><ele>223.6</ele><time>2022-11-13T15:51:53.0000000+00:00</time></trkpt><trkpt lat="38.96450912" lon="-0.50018999"><ele>223.4</ele><time>2022-11-13T15:51:54.0000000+00:00</time></trkpt><trkpt lat="38.96450551" lon="-0.50019636"><ele>223.2</ele><time>2022-11-13T15:51:55.0000000+00:00</time></trkpt><trkpt lat="38.96449671" lon="-0.50021019"><ele>223.0</ele><time>2022-11-13T15:51:56.0000000+00:00</time></trkpt><trkpt lat="38.96449193" lon="-0.50022058"><ele>222.8</ele><time>2022-11-13T15:51:57.0000000+00:00</time></trkpt><trkpt lat="38.9644911" lon="-0.50023232"><ele>222.6</ele><time>2022-11-13T15:51:58.0000000+00:00</time></trkpt><trkpt lat="38.96450032" lon="-0.50023877"><ele>222.6</ele><time>2022-11-13T15:51:59.0000000+00:00</time></trkpt><trkpt lat="38.96450275" lon="-0.50023986"><ele>222.4</ele><time>2022-11-13T15:52:00.0000000+00:00</time></trkpt><trkpt lat="38.9645025" lon="-0.50024179"><ele>222.4</ele><time>2022-11-13T15:52:01.0000000+00:00</time></trkpt><trkpt lat="38.96450208" lon="-0.50024355"><ele>222.2</ele><time>2022-11-13T15:52:02.0000000+00:00</time></trkpt><trkpt lat="38.96450208" lon="-0.50024707"><ele>222.2</ele><time>2022-11-13T15:52:03.0000000+00:00</time></trkpt><trkpt lat="38.9645004" lon="-0.50024925"><ele>222.2</ele><time>2022-11-13T15:52:04.0000000+00:00</time></trkpt><trkpt lat="38.96450099" lon="-0.50025227"><ele>222.0</ele><time>2022-11-13T15:52:05.0000000+00:00</time></trkpt><trkpt lat="38.96450157" lon="-0.50025201"><ele>222.0</ele><time>2022-11-13T15:52:06.0000000+00:00</time></trkpt><trkpt lat="38.96450333" lon="-0.5002521"><ele>221.8</ele><time>2022-11-13T15:52:07.0000000+00:00</time></trkpt><trkpt lat="38.96449939" lon="-0.50025587"><ele>221.6</ele><time>2022-11-13T15:52:08.0000000+00:00</time></trkpt><trkpt lat="38.96449822" lon="-0.50025947"><ele>221.6</ele><time>2022-11-13T15:52:09.0000000+00:00</time></trkpt><trkpt lat="38.9644999" lon="-0.50026191"><ele>221.2</ele><time>2022-11-13T15:52:10.0000000+00:00</time></trkpt><trkpt lat="38.96450149" lon="-0.50026316"><ele>221.2</ele><time>2022-11-13T15:52:11.0000000+00:00</time></trkpt><trkpt lat="38.96451037" lon="-0.50027196"><ele>221.0</ele><time>2022-11-13T15:52:12.0000000+00:00</time></trkpt><trkpt lat="38.96451674" lon="-0.50027666"><ele>221.0</ele><time>2022-11-13T15:52:13.0000000+00:00</time></trkpt><trkpt lat="38.96452018" lon="-0.50027959"><ele>220.8</ele><time>2022-11-13T15:52:14.0000000+00:00</time></trkpt><trkpt lat="38.96452228" lon="-0.50028361"><ele>220.8</ele><time>2022-11-13T15:52:15.0000000+00:00</time></trkpt><trkpt lat="38.96452521" lon="-0.50028906"><ele>220.6</ele><time>2022-11-13T15:52:16.0000000+00:00</time></trkpt><trkpt lat="38.96452932" lon="-0.50029401"><ele>220.4</ele><time>2022-11-13T15:52:17.0000000+00:00</time></trkpt><trkpt lat="38.96453225" lon="-0.50030038"><ele>220.4</ele><time>2022-11-13T15:52:18.0000000+00:00</time></trkpt><trkpt lat="38.96453259" lon="-0.50030356"><ele>220.4</ele><time>2022-11-13T15:52:19.0000000+00:00</time></trkpt><trkpt lat="38.96453267" lon="-0.50030918"><ele>220.2</ele><time>2022-11-13T15:52:20.0000000+00:00</time></trkpt><trkpt lat="38.96452479" lon="-0.50031429"><ele>220.2</ele><time>2022-11-13T15:52:21.0000000+00:00</time></trkpt><trkpt lat="38.96451582" lon="-0.50032108"><ele>220.2</ele><time>2022-11-13T15:52:22.0000000+00:00</time></trkpt><trkpt lat="38.9645123" lon="-0.50032527"><ele>220.2</ele><time>2022-11-13T15:52:23.0000000+00:00</time></trkpt><trkpt lat="38.96450124" lon="-0.50033013"><ele>220.2</ele><time>2022-11-13T15:52:24.0000000+00:00</time></trkpt><trkpt lat="38.96449269" lon="-0.50033952"><ele>220.0</ele><time>2022-11-13T15:52:25.0000000+00:00</time></trkpt><trkpt lat="38.96448582" lon="-0.50034698"><ele>219.8</ele><time>2022-11-13T15:52:26.0000000+00:00</time></trkpt><trkpt lat="38.96448104" lon="-0.50035779"><ele>219.8</ele><time>2022-11-13T15:52:27.0000000+00:00</time></trkpt><trkpt lat="38.96448171" lon="-0.50036634"><ele>219.8</ele><time>2022-11-13T15:52:28.0000000+00:00</time></trkpt><trkpt lat="38.96448464" lon="-0.50037355"><ele>219.6</ele><time>2022-11-13T15:52:29.0000000+00:00</time></trkpt><trkpt lat="38.96448917" lon="-0.50037649"><ele>219.4</ele><time>2022-11-13T15:52:30.0000000+00:00</time></trkpt><trkpt lat="38.96449101" lon="-0.5003821"><ele>219.4</ele><time>2022-11-13T15:52:31.0000000+00:00</time></trkpt><trkpt lat="38.96449286" lon="-0.50039141"><ele>219.2</ele><time>2022-11-13T15:52:32.0000000+00:00</time></trkpt><trkpt lat="38.96449202" lon="-0.50040247"><ele>219.2</ele><time>2022-11-13T15:52:33.0000000+00:00</time></trkpt><trkpt lat="38.96449126" lon="-0.50040951"><ele>219.0</ele><time>2022-11-13T15:52:34.0000000+00:00</time></trkpt><trkpt lat="38.96448883" lon="-0.50041697"><ele>218.8</ele><time>2022-11-13T15:52:35.0000000+00:00</time></trkpt><trkpt lat="38.96449101" lon="-0.50042544"><ele>218.8</ele><time>2022-11-13T15:52:36.0000000+00:00</time></trkpt><trkpt lat="38.96449118" lon="-0.50042954"><ele>218.6</ele><time>2022-11-13T15:52:37.0000000+00:00</time></trkpt><trkpt lat="38.9644916" lon="-0.50043189"><ele>218.6</ele><time>2022-11-13T15:52:38.0000000+00:00</time></trkpt><trkpt lat="38.96448883" lon="-0.50043818"><ele>218.4</ele><time>2022-11-13T15:52:39.0000000+00:00</time></trkpt><trkpt lat="38.96448783" lon="-0.50044287"><ele>218.4</ele><time>2022-11-13T15:52:40.0000000+00:00</time></trkpt><trkpt lat="38.96448632" lon="-0.5004479"><ele>218.2</ele><time>2022-11-13T15:52:41.0000000+00:00</time></trkpt><trkpt lat="38.96449118" lon="-0.50045142"><ele>218.0</ele><time>2022-11-13T15:52:42.0000000+00:00</time></trkpt><trkpt lat="38.96449076" lon="-0.50045637"><ele>218.0</ele><time>2022-11-13T15:52:43.0000000+00:00</time></trkpt><trkpt lat="38.96449587" lon="-0.50046458"><ele>218.0</ele><time>2022-11-13T15:52:44.0000000+00:00</time></trkpt><trkpt lat="38.96449545" lon="-0.50047564"><ele>217.8</ele><time>2022-11-13T15:52:45.0000000+00:00</time></trkpt><trkpt lat="38.9644952" lon="-0.50048503"><ele>217.8</ele><time>2022-11-13T15:52:46.0000000+00:00</time></trkpt><trkpt lat="38.96448992" lon="-0.50049366"><ele>217.8</ele><time>2022-11-13T15:52:47.0000000+00:00</time></trkpt><trkpt lat="38.96448372" lon="-0.50049928"><ele>217.6</ele><time>2022-11-13T15:52:48.0000000+00:00</time></trkpt><trkpt lat="38.96447986" lon="-0.50050624"><ele>217.4</ele><time>2022-11-13T15:52:49.0000000+00:00</time></trkpt><trkpt lat="38.96447584" lon="-0.50051487"><ele>217.4</ele><time>2022-11-13T15:52:50.0000000+00:00</time></trkpt><trkpt lat="38.9644662" lon="-0.50052619"><ele>217.2</ele><time>2022-11-13T15:52:51.0000000+00:00</time></trkpt><trkpt lat="38.96446084" lon="-0.50053465"><ele>217.2</ele><time>2022-11-13T15:52:52.0000000+00:00</time></trkpt><trkpt lat="38.96445841" lon="-0.50053884"><ele>217.0</ele><time>2022-11-13T15:52:53.0000000+00:00</time></trkpt><trkpt lat="38.96445707" lon="-0.50054203"><ele>217.0</ele><time>2022-11-13T15:52:54.0000000+00:00</time></trkpt><trkpt lat="38.96445304" lon="-0.50054748"><ele>217.0</ele><time>2022-11-13T15:52:55.0000000+00:00</time></trkpt><trkpt lat="38.96444927" lon="-0.50055267"><ele>217.0</ele><time>2022-11-13T15:52:56.0000000+00:00</time></trkpt><trkpt lat="38.96445296" lon="-0.50055678"><ele>217.0</ele><time>2022-11-13T15:52:57.0000000+00:00</time></trkpt><trkpt lat="38.96445371" lon="-0.50056307"><ele>216.8</ele><time>2022-11-13T15:52:58.0000000+00:00</time></trkpt><trkpt lat="38.96445187" lon="-0.50057187"><ele>216.8</ele><time>2022-11-13T15:52:59.0000000+00:00</time></trkpt><trkpt lat="38.96445572" lon="-0.50058318"><ele>216.6</ele><time>2022-11-13T15:53:00.0000000+00:00</time></trkpt><trkpt lat="38.96445757" lon="-0.50059777"><ele>216.4</ele><time>2022-11-13T15:53:01.0000000+00:00</time></trkpt><trkpt lat="38.96446109" lon="-0.50060716"><ele>216.2</ele><time>2022-11-13T15:53:02.0000000+00:00</time></trkpt><trkpt lat="38.964461" lon="-0.50061302"><ele>216.2</ele><time>2022-11-13T15:53:03.0000000+00:00</time></trkpt><trkpt lat="38.96445765" lon="-0.50061453"><ele>216.0</ele><time>2022-11-13T15:53:04.0000000+00:00</time></trkpt><trkpt lat="38.9644543" lon="-0.50061671"><ele>215.8</ele><time>2022-11-13T15:53:05.0000000+00:00</time></trkpt><trkpt lat="38.96445153" lon="-0.50062526"><ele>215.8</ele><time>2022-11-13T15:53:06.0000000+00:00</time></trkpt><trkpt lat="38.96445195" lon="-0.50062937"><ele>215.6</ele><time>2022-11-13T15:53:07.0000000+00:00</time></trkpt><trkpt lat="38.96445187" lon="-0.50063347"><ele>215.6</ele><time>2022-11-13T15:53:08.0000000+00:00</time></trkpt><trkpt lat="38.96444516" lon="-0.50063968"><ele>215.4</ele><time>2022-11-13T15:53:09.0000000+00:00</time></trkpt><trkpt lat="38.96443988" lon="-0.50064663"><ele>215.4</ele><time>2022-11-13T15:53:10.0000000+00:00</time></trkpt><trkpt lat="38.96444039" lon="-0.5006525"><ele>215.4</ele><time>2022-11-13T15:53:11.0000000+00:00</time></trkpt><trkpt lat="38.96443594" lon="-0.50065611"><ele>215.2</ele><time>2022-11-13T15:53:12.0000000+00:00</time></trkpt><trkpt lat="38.96443376" lon="-0.50066114"><ele>215.2</ele><time>2022-11-13T15:53:13.0000000+00:00</time></trkpt><trkpt lat="38.96442899" lon="-0.50066868"><ele>215.2</ele><time>2022-11-13T15:53:14.0000000+00:00</time></trkpt><trkpt lat="38.9644248" lon="-0.50067455"><ele>215.0</ele><time>2022-11-13T15:53:15.0000000+00:00</time></trkpt><trkpt lat="38.96442035" lon="-0.50067773"><ele>215.0</ele><time>2022-11-13T15:53:16.0000000+00:00</time></trkpt><trkpt lat="38.96441775" lon="-0.500681"><ele>215.0</ele><time>2022-11-13T15:53:17.0000000+00:00</time></trkpt><trkpt lat="38.96441817" lon="-0.50068259"><ele>215.0</ele><time>2022-11-13T15:53:18.0000000+00:00</time></trkpt><trkpt lat="38.96441801" lon="-0.50068628"><ele>215.0</ele><time>2022-11-13T15:53:19.0000000+00:00</time></trkpt><trkpt lat="38.96441935" lon="-0.50069089"><ele>214.8</ele><time>2022-11-13T15:53:20.0000000+00:00</time></trkpt><trkpt lat="38.96441809" lon="-0.50069257"><ele>214.8</ele><time>2022-11-13T15:53:21.0000000+00:00</time></trkpt><trkpt lat="38.96441591" lon="-0.50069114"><ele>214.8</ele><time>2022-11-13T15:53:22.0000000+00:00</time></trkpt><trkpt lat="38.96441356" lon="-0.50069064"><ele>214.8</ele><time>2022-11-13T15:53:23.0000000+00:00</time></trkpt><trkpt lat="38.96441222" lon="-0.50069081"><ele>214.8</ele><time>2022-11-13T15:53:24.0000000+00:00</time></trkpt><trkpt lat="38.96441105" lon="-0.50069349"><ele>214.8</ele><time>2022-11-13T15:53:25.0000000+00:00</time></trkpt><trkpt lat="38.96441021" lon="-0.50069709"><ele>214.8</ele><time>2022-11-13T15:53:26.0000000+00:00</time></trkpt><trkpt lat="38.96441004" lon="-0.50069776"><ele>214.6</ele><time>2022-11-13T15:53:27.0000000+00:00</time></trkpt><trkpt lat="38.96441004" lon="-0.50069776"><ele>214.6</ele><time>2022-11-13T15:53:28.0000000+00:00</time></trkpt><trkpt lat="38.96441004" lon="-0.50069776"><ele>214.6</ele><time>2022-11-13T15:53:29.0000000+00:00</time></trkpt><trkpt lat="38.96441004" lon="-0.50069776"><ele>214.6</ele><time>2022-11-13T15:53:30.0000000+00:00</time></trkpt><trkpt lat="38.96441004" lon="-0.50069776"><ele>214.6</ele><time>2022-11-13T15:53:31.0000000+00:00</time></trkpt><trkpt lat="38.96441004" lon="-0.50069776"><ele>214.6</ele><time>2022-11-13T15:53:32.0000000+00:00</time></trkpt><trkpt lat="38.96441004" lon="-0.50069776"><ele>214.6</ele><time>2022-11-13T15:53:33.0000000+00:00</time></trkpt><trkpt lat="38.96441004" lon="-0.50069776"><ele>214.6</ele><time>2022-11-13T15:53:34.0000000+00:00</time></trkpt><trkpt lat="38.96441004" lon="-0.50069776"><ele>214.6</ele><time>2022-11-13T15:53:35.0000000+00:00</time></trkpt><trkpt lat="38.96441004" lon="-0.50069751"><ele>214.4</ele><time>2022-11-13T15:53:36.0000000+00:00</time></trkpt><trkpt lat="38.96441004" lon="-0.50069726"><ele>214.4</ele><time>2022-11-13T15:53:37.0000000+00:00</time></trkpt><trkpt lat="38.96441004" lon="-0.50069709"><ele>214.4</ele><time>2022-11-13T15:53:38.0000000+00:00</time></trkpt><trkpt lat="38.96441004" lon="-0.50069701"><ele>214.6</ele><time>2022-11-13T15:53:39.0000000+00:00</time></trkpt><trkpt lat="38.96441004" lon="-0.50069693"><ele>214.6</ele><time>2022-11-13T15:53:40.0000000+00:00</time></trkpt><trkpt lat="38.96441004" lon="-0.50069642"><ele>214.8</ele><time>2022-11-13T15:53:41.0000000+00:00</time></trkpt><trkpt lat="38.96441004" lon="-0.50069609"><ele>214.8</ele><time>2022-11-13T15:53:42.0000000+00:00</time></trkpt><trkpt lat="38.96441004" lon="-0.50069366"><ele>214.8</ele><time>2022-11-13T15:53:43.0000000+00:00</time></trkpt><trkpt lat="38.96441004" lon="-0.5006929"><ele>214.8</ele><time>2022-11-13T15:53:44.0000000+00:00</time></trkpt><trkpt lat="38.96441004" lon="-0.50069257"><ele>214.8</ele><time>2022-11-13T15:53:45.0000000+00:00</time></trkpt><trkpt lat="38.96441004" lon="-0.50069131"><ele>214.8</ele><time>2022-11-13T15:53:46.0000000+00:00</time></trkpt><trkpt lat="38.96440971" lon="-0.50069089"><ele>214.8</ele><time>2022-11-13T15:53:47.0000000+00:00</time></trkpt><trkpt lat="38.96440912" lon="-0.50069081"><ele>214.8</ele><time>2022-11-13T15:53:48.0000000+00:00</time></trkpt><trkpt lat="38.96440904" lon="-0.50069081"><ele>214.8</ele><time>2022-11-13T15:53:49.0000000+00:00</time></trkpt><trkpt lat="38.96440895" lon="-0.50069072"><ele>214.6</ele><time>2022-11-13T15:53:50.0000000+00:00</time></trkpt><trkpt lat="38.96440895" lon="-0.50068938"><ele>214.6</ele><time>2022-11-13T15:53:51.0000000+00:00</time></trkpt><trkpt lat="38.96440895" lon="-0.50068896"><ele>214.6</ele><time>2022-11-13T15:53:52.0000000+00:00</time></trkpt><trkpt lat="38.96440895" lon="-0.50068787"><ele>214.6</ele><time>2022-11-13T15:53:53.0000000+00:00</time></trkpt><trkpt lat="38.96440895" lon="-0.50068779"><ele>214.6</ele><time>2022-11-13T15:53:54.0000000+00:00</time></trkpt><trkpt lat="38.96440895" lon="-0.50068779"><ele>214.8</ele><time>2022-11-13T15:53:55.0000000+00:00</time></trkpt><trkpt lat="38.96440895" lon="-0.50068779"><ele>215.0</ele><time>2022-11-13T15:53:56.0000000+00:00</time></trkpt><trkpt lat="38.96440895" lon="-0.50068779"><ele>215.0</ele><time>2022-11-13T15:53:57.0000000+00:00</time></trkpt><trkpt lat="38.96440904" lon="-0.50068779"><ele>215.0</ele><time>2022-11-13T15:53:58.0000000+00:00</time></trkpt><trkpt lat="38.96440904" lon="-0.50068779"><ele>215.0</ele><time>2022-11-13T15:53:59.0000000+00:00</time></trkpt><trkpt lat="38.96440954" lon="-0.50068779"><ele>215.0</ele><time>2022-11-13T15:54:00.0000000+00:00</time></trkpt><trkpt lat="38.96440962" lon="-0.50068779"><ele>215.0</ele><time>2022-11-13T15:54:01.0000000+00:00</time></trkpt><trkpt lat="38.96441004" lon="-0.50068779"><ele>215.0</ele><time>2022-11-13T15:54:02.0000000+00:00</time></trkpt><trkpt lat="38.96441004" lon="-0.50068779"><ele>215.0</ele><time>2022-11-13T15:54:03.0000000+00:00</time></trkpt><trkpt lat="38.96441004" lon="-0.50068779"><ele>215.0</ele><time>2022-11-13T15:54:04.0000000+00:00</time></trkpt><trkpt lat="38.96441021" lon="-0.50068779"><ele>215.0</ele><time>2022-11-13T15:54:05.0000000+00:00</time></trkpt><trkpt lat="38.96441046" lon="-0.50068779"><ele>215.0</ele><time>2022-11-13T15:54:06.0000000+00:00</time></trkpt><trkpt lat="38.96441063" lon="-0.50068779"><ele>215.0</ele><time>2022-11-13T15:54:07.0000000+00:00</time></trkpt><trkpt lat="38.96441071" lon="-0.50069131"><ele>215.0</ele><time>2022-11-13T15:54:08.0000000+00:00</time></trkpt><trkpt lat="38.9644108" lon="-0.50069374"><ele>215.2</ele><time>2022-11-13T15:54:09.0000000+00:00</time></trkpt><trkpt lat="38.96441088" lon="-0.50069441"><ele>215.0</ele><time>2022-11-13T15:54:10.0000000+00:00</time></trkpt><trkpt lat="38.96441096" lon="-0.50069466"><ele>214.8</ele><time>2022-11-13T15:54:11.0000000+00:00</time></trkpt><trkpt lat="38.96441155" lon="-0.50069491"><ele>214.6</ele><time>2022-11-13T15:54:12.0000000+00:00</time></trkpt><trkpt lat="38.96441197" lon="-0.50070187"><ele>214.6</ele><time>2022-11-13T15:54:13.0000000+00:00</time></trkpt><trkpt lat="38.96441189" lon="-0.50072266"><ele>214.4</ele><time>2022-11-13T15:54:14.0000000+00:00</time></trkpt><trkpt lat="38.96441231" lon="-0.50074009"><ele>214.4</ele><time>2022-11-13T15:54:15.0000000+00:00</time></trkpt><trkpt lat="38.96441046" lon="-0.50075945"><ele>214.2</ele><time>2022-11-13T15:54:16.0000000+00:00</time></trkpt><trkpt lat="38.96441096" lon="-0.50077748"><ele>214.2</ele><time>2022-11-13T15:54:17.0000000+00:00</time></trkpt><trkpt lat="38.96441323" lon="-0.50079164"><ele>213.8</ele><time>2022-11-13T15:54:18.0000000+00:00</time></trkpt><trkpt lat="38.96441557" lon="-0.50081067"><ele>213.8</ele><time>2022-11-13T15:54:19.0000000+00:00</time></trkpt><trkpt lat="38.96441792" lon="-0.50082768"><ele>213.8</ele><time>2022-11-13T15:54:20.0000000+00:00</time></trkpt><trkpt lat="38.96441692" lon="-0.50084671"><ele>213.6</ele><time>2022-11-13T15:54:21.0000000+00:00</time></trkpt><trkpt lat="38.96441683" lon="-0.50086515"><ele>213.6</ele><time>2022-11-13T15:54:22.0000000+00:00</time></trkpt><trkpt lat="38.96441608" lon="-0.50087211"><ele>213.4</ele><time>2022-11-13T15:54:23.0000000+00:00</time></trkpt><trkpt lat="38.9644165" lon="-0.50087974"><ele>213.2</ele><time>2022-11-13T15:54:24.0000000+00:00</time></trkpt><trkpt lat="38.96441583" lon="-0.50088611"><ele>213.2</ele><time>2022-11-13T15:54:25.0000000+00:00</time></trkpt><trkpt lat="38.96441373" lon="-0.50089113"><ele>213.0</ele><time>2022-11-13T15:54:26.0000000+00:00</time></trkpt><trkpt lat="38.96441138" lon="-0.50089482"><ele>213.0</ele><time>2022-11-13T15:54:27.0000000+00:00</time></trkpt><trkpt lat="38.9644108" lon="-0.50089717"><ele>212.8</ele><time>2022-11-13T15:54:28.0000000+00:00</time></trkpt><trkpt lat="38.96441239" lon="-0.50090446"><ele>212.8</ele><time>2022-11-13T15:54:29.0000000+00:00</time></trkpt><trkpt lat="38.96441214" lon="-0.50091402"><ele>212.6</ele><time>2022-11-13T15:54:30.0000000+00:00</time></trkpt><trkpt lat="38.96440711" lon="-0.50091863"><ele>212.4</ele><time>2022-11-13T15:54:31.0000000+00:00</time></trkpt><trkpt lat="38.96440141" lon="-0.50092408"><ele>212.4</ele><time>2022-11-13T15:54:32.0000000+00:00</time></trkpt><trkpt lat="38.9643973" lon="-0.50092667"><ele>212.2</ele><time>2022-11-13T15:54:33.0000000+00:00</time></trkpt><trkpt lat="38.96439781" lon="-0.50093288"><ele>212.2</ele><time>2022-11-13T15:54:34.0000000+00:00</time></trkpt><trkpt lat="38.96439613" lon="-0.50094302"><ele>212.0</ele><time>2022-11-13T15:54:35.0000000+00:00</time></trkpt><trkpt lat="38.96439336" lon="-0.50094972"><ele>212.0</ele><time>2022-11-13T15:54:36.0000000+00:00</time></trkpt><trkpt lat="38.96439135" lon="-0.50095433"><ele>211.8</ele><time>2022-11-13T15:54:37.0000000+00:00</time></trkpt><trkpt lat="38.9643849" lon="-0.50095777"><ele>211.6</ele><time>2022-11-13T15:54:38.0000000+00:00</time></trkpt><trkpt lat="38.96438465" lon="-0.50096305"><ele>211.6</ele><time>2022-11-13T15:54:39.0000000+00:00</time></trkpt><trkpt lat="38.96438775" lon="-0.50096749"><ele>211.6</ele><time>2022-11-13T15:54:40.0000000+00:00</time></trkpt><trkpt lat="38.96438381" lon="-0.50096582"><ele>211.4</ele><time>2022-11-13T15:54:41.0000000+00:00</time></trkpt><trkpt lat="38.96437911" lon="-0.50097194"><ele>211.2</ele><time>2022-11-13T15:54:42.0000000+00:00</time></trkpt><trkpt lat="38.9643771" lon="-0.50097764"><ele>211.2</ele><time>2022-11-13T15:54:43.0000000+00:00</time></trkpt><trkpt lat="38.9643771" lon="-0.50098283"><ele>211.0</ele><time>2022-11-13T15:54:44.0000000+00:00</time></trkpt><trkpt lat="38.96437836" lon="-0.50099339"><ele>210.8</ele><time>2022-11-13T15:54:45.0000000+00:00</time></trkpt><trkpt lat="38.9643828" lon="-0.50100303"><ele>210.8</ele><time>2022-11-13T15:54:46.0000000+00:00</time></trkpt><trkpt lat="38.96438942" lon="-0.50100991"><ele>210.6</ele><time>2022-11-13T15:54:47.0000000+00:00</time></trkpt><trkpt lat="38.96439445" lon="-0.50101904"><ele>210.4</ele><time>2022-11-13T15:54:48.0000000+00:00</time></trkpt><trkpt lat="38.96440267" lon="-0.50102608"><ele>210.4</ele><time>2022-11-13T15:54:49.0000000+00:00</time></trkpt><trkpt lat="38.96440929" lon="-0.50103086"><ele>210.4</ele><time>2022-11-13T15:54:50.0000000+00:00</time></trkpt><trkpt lat="38.96441457" lon="-0.50103623"><ele>210.2</ele><time>2022-11-13T15:54:51.0000000+00:00</time></trkpt><trkpt lat="38.96442027" lon="-0.50104008"><ele>210.2</ele><time>2022-11-13T15:54:52.0000000+00:00</time></trkpt><trkpt lat="38.9644253" lon="-0.50104151"><ele>210.0</ele><time>2022-11-13T15:54:53.0000000+00:00</time></trkpt><trkpt lat="38.96443167" lon="-0.50104637"><ele>210.0</ele><time>2022-11-13T15:54:54.0000000+00:00</time></trkpt><trkpt lat="38.9644341" lon="-0.50105115"><ele>210.0</ele><time>2022-11-13T15:54:55.0000000+00:00</time></trkpt><trkpt lat="38.96443686" lon="-0.50105592"><ele>210.0</ele><time>2022-11-13T15:54:56.0000000+00:00</time></trkpt><trkpt lat="38.96444097" lon="-0.50105969"><ele>209.8</ele><time>2022-11-13T15:54:57.0000000+00:00</time></trkpt><trkpt lat="38.96444458" lon="-0.50106313"><ele>209.6</ele><time>2022-11-13T15:54:58.0000000+00:00</time></trkpt><trkpt lat="38.96444583" lon="-0.50107068"><ele>209.6</ele><time>2022-11-13T15:54:59.0000000+00:00</time></trkpt><trkpt lat="38.96444785" lon="-0.50107537"><ele>209.4</ele><time>2022-11-13T15:55:00.0000000+00:00</time></trkpt><trkpt lat="38.96444902" lon="-0.50107931"><ele>209.2</ele><time>2022-11-13T15:55:01.0000000+00:00</time></trkpt><trkpt lat="38.96445128" lon="-0.50108786"><ele>209.0</ele><time>2022-11-13T15:55:02.0000000+00:00</time></trkpt><trkpt lat="38.96445463" lon="-0.50109691"><ele>209.0</ele><time>2022-11-13T15:55:03.0000000+00:00</time></trkpt><trkpt lat="38.96445757" lon="-0.50109942"><ele>209.0</ele><time>2022-11-13T15:55:04.0000000+00:00</time></trkpt><trkpt lat="38.96446536" lon="-0.50109792"><ele>208.8</ele><time>2022-11-13T15:55:05.0000000+00:00</time></trkpt><trkpt lat="38.96446603" lon="-0.50109951"><ele>208.6</ele><time>2022-11-13T15:55:06.0000000+00:00</time></trkpt><trkpt lat="38.96446712" lon="-0.50110219"><ele>208.4</ele><time>2022-11-13T15:55:07.0000000+00:00</time></trkpt><trkpt lat="38.9644667" lon="-0.50110496"><ele>208.4</ele><time>2022-11-13T15:55:08.0000000+00:00</time></trkpt><trkpt lat="38.96446134" lon="-0.50111619"><ele>208.2</ele><time>2022-11-13T15:55:09.0000000+00:00</time></trkpt><trkpt lat="38.9644652" lon="-0.50112256"><ele>208.0</ele><time>2022-11-13T15:55:10.0000000+00:00</time></trkpt><trkpt lat="38.96447056" lon="-0.501127"><ele>208.0</ele><time>2022-11-13T15:55:11.0000000+00:00</time></trkpt><trkpt lat="38.96447408" lon="-0.50112918"><ele>207.8</ele><time>2022-11-13T15:55:12.0000000+00:00</time></trkpt><trkpt lat="38.96447936" lon="-0.50113429"><ele>207.6</ele><time>2022-11-13T15:55:13.0000000+00:00</time></trkpt><trkpt lat="38.96448112" lon="-0.50113949"><ele>207.4</ele><time>2022-11-13T15:55:14.0000000+00:00</time></trkpt><trkpt lat="38.9644802" lon="-0.50114318"><ele>207.2</ele><time>2022-11-13T15:55:15.0000000+00:00</time></trkpt><trkpt lat="38.96448079" lon="-0.50114695"><ele>207.2</ele><time>2022-11-13T15:55:16.0000000+00:00</time></trkpt><trkpt lat="38.96448129" lon="-0.50115131"><ele>207.0</ele><time>2022-11-13T15:55:17.0000000+00:00</time></trkpt><trkpt lat="38.96448246" lon="-0.50115542"><ele>207.0</ele><time>2022-11-13T15:55:18.0000000+00:00</time></trkpt><trkpt lat="38.96448523" lon="-0.50116061"><ele>206.8</ele><time>2022-11-13T15:55:19.0000000+00:00</time></trkpt><trkpt lat="38.96448732" lon="-0.50116631"><ele>206.6</ele><time>2022-11-13T15:55:20.0000000+00:00</time></trkpt><trkpt lat="38.96448766" lon="-0.50117034"><ele>206.4</ele><time>2022-11-13T15:55:21.0000000+00:00</time></trkpt><trkpt lat="38.96448749" lon="-0.5011731"><ele>206.4</ele><time>2022-11-13T15:55:22.0000000+00:00</time></trkpt><trkpt lat="38.96448615" lon="-0.50117511"><ele>206.2</ele><time>2022-11-13T15:55:23.0000000+00:00</time></trkpt><trkpt lat="38.96448674" lon="-0.50117855"><ele>206.2</ele><time>2022-11-13T15:55:24.0000000+00:00</time></trkpt><trkpt lat="38.9644885" lon="-0.50118081"><ele>206.0</ele><time>2022-11-13T15:55:25.0000000+00:00</time></trkpt><trkpt lat="38.96448682" lon="-0.50118551"><ele>206.0</ele><time>2022-11-13T15:55:26.0000000+00:00</time></trkpt><trkpt lat="38.96448825" lon="-0.50118978"><ele>205.8</ele><time>2022-11-13T15:55:27.0000000+00:00</time></trkpt><trkpt lat="38.96449009" lon="-0.50118844"><ele>205.8</ele><time>2022-11-13T15:55:28.0000000+00:00</time></trkpt><trkpt lat="38.9644911" lon="-0.50118928"><ele>205.6</ele><time>2022-11-13T15:55:29.0000000+00:00</time></trkpt><trkpt lat="38.96449336" lon="-0.50118836"><ele>205.4</ele><time>2022-11-13T15:55:30.0000000+00:00</time></trkpt><trkpt lat="38.96450074" lon="-0.50118945"><ele>205.2</ele><time>2022-11-13T15:55:31.0000000+00:00</time></trkpt><trkpt lat="38.96450258" lon="-0.50118827"><ele>205.0</ele><time>2022-11-13T15:55:32.0000000+00:00</time></trkpt><trkpt lat="38.96450124" lon="-0.50119054"><ele>205.0</ele><time>2022-11-13T15:55:33.0000000+00:00</time></trkpt><trkpt lat="38.96450694" lon="-0.50119339"><ele>204.6</ele><time>2022-11-13T15:55:34.0000000+00:00</time></trkpt><trkpt lat="38.96451565" lon="-0.50119632"><ele>204.6</ele><time>2022-11-13T15:55:35.0000000+00:00</time></trkpt><trkpt lat="38.96452253" lon="-0.50120194"><ele>204.4</ele><time>2022-11-13T15:55:36.0000000+00:00</time></trkpt><trkpt lat="38.96452873" lon="-0.50120914"><ele>204.2</ele><time>2022-11-13T15:55:37.0000000+00:00</time></trkpt><trkpt lat="38.96453493" lon="-0.50121803"><ele>204.2</ele><time>2022-11-13T15:55:38.0000000+00:00</time></trkpt><trkpt lat="38.96454633" lon="-0.50121618"><ele>204.0</ele><time>2022-11-13T15:55:39.0000000+00:00</time></trkpt><trkpt lat="38.96455606" lon="-0.50121769"><ele>203.8</ele><time>2022-11-13T15:55:40.0000000+00:00</time></trkpt><trkpt lat="38.96456427" lon="-0.50121878"><ele>203.8</ele><time>2022-11-13T15:55:41.0000000+00:00</time></trkpt><trkpt lat="38.96456938" lon="-0.5012213"><ele>203.4</ele><time>2022-11-13T15:55:42.0000000+00:00</time></trkpt><trkpt lat="38.9645719" lon="-0.50122415"><ele>203.4</ele><time>2022-11-13T15:55:43.0000000+00:00</time></trkpt><trkpt lat="38.96457466" lon="-0.50122532"><ele>203.2</ele><time>2022-11-13T15:55:44.0000000+00:00</time></trkpt><trkpt lat="38.96457919" lon="-0.50122641"><ele>203.2</ele><time>2022-11-13T15:55:45.0000000+00:00</time></trkpt><trkpt lat="38.96458279" lon="-0.50123261"><ele>203.2</ele><time>2022-11-13T15:55:46.0000000+00:00</time></trkpt><trkpt lat="38.9645864" lon="-0.50123454"><ele>203.0</ele><time>2022-11-13T15:55:47.0000000+00:00</time></trkpt><trkpt lat="38.9645962" lon="-0.50123756"><ele>202.8</ele><time>2022-11-13T15:55:48.0000000+00:00</time></trkpt><trkpt lat="38.96460098" lon="-0.50124401"><ele>202.6</ele><time>2022-11-13T15:55:49.0000000+00:00</time></trkpt><trkpt lat="38.96460517" lon="-0.50124703"><ele>202.4</ele><time>2022-11-13T15:55:50.0000000+00:00</time></trkpt><trkpt lat="38.96460677" lon="-0.50124954"><ele>202.2</ele><time>2022-11-13T15:55:51.0000000+00:00</time></trkpt><trkpt lat="38.96461247" lon="-0.50124938"><ele>202.2</ele><time>2022-11-13T15:55:52.0000000+00:00</time></trkpt><trkpt lat="38.96462043" lon="-0.50124569"><ele>202.0</ele><time>2022-11-13T15:55:53.0000000+00:00</time></trkpt><trkpt lat="38.9646268" lon="-0.50124091"><ele>201.8</ele><time>2022-11-13T15:55:54.0000000+00:00</time></trkpt><trkpt lat="38.96462755" lon="-0.50124385"><ele>201.8</ele><time>2022-11-13T15:55:55.0000000+00:00</time></trkpt><trkpt lat="38.96463191" lon="-0.5012472"><ele>201.6</ele><time>2022-11-13T15:55:56.0000000+00:00</time></trkpt><trkpt lat="38.96463577" lon="-0.50125139"><ele>201.4</ele><time>2022-11-13T15:55:57.0000000+00:00</time></trkpt><trkpt lat="38.96463493" lon="-0.50125659"><ele>201.2</ele><time>2022-11-13T15:55:58.0000000+00:00</time></trkpt><trkpt lat="38.96462915" lon="-0.50127159"><ele>201.0</ele><time>2022-11-13T15:55:59.0000000+00:00</time></trkpt><trkpt lat="38.96463267" lon="-0.50127821"><ele>200.8</ele><time>2022-11-13T15:56:00.0000000+00:00</time></trkpt><trkpt lat="38.96463946" lon="-0.50127813"><ele>200.8</ele><time>2022-11-13T15:56:01.0000000+00:00</time></trkpt><trkpt lat="38.96464465" lon="-0.50127419"><ele>200.8</ele><time>2022-11-13T15:56:02.0000000+00:00</time></trkpt><trkpt lat="38.96465077" lon="-0.50127184"><ele>200.6</ele><time>2022-11-13T15:56:03.0000000+00:00</time></trkpt><trkpt lat="38.96465186" lon="-0.5012705"><ele>200.6</ele><time>2022-11-13T15:56:04.0000000+00:00</time></trkpt><trkpt lat="38.96464851" lon="-0.50127293"><ele>200.4</ele><time>2022-11-13T15:56:05.0000000+00:00</time></trkpt><trkpt lat="38.9646465" lon="-0.50127503"><ele>200.4</ele><time>2022-11-13T15:56:06.0000000+00:00</time></trkpt><trkpt lat="38.9646475" lon="-0.50127645"><ele>200.2</ele><time>2022-11-13T15:56:07.0000000+00:00</time></trkpt><trkpt lat="38.96464524" lon="-0.50127746"><ele>200.0</ele><time>2022-11-13T15:56:08.0000000+00:00</time></trkpt><trkpt lat="38.96464951" lon="-0.50127821"><ele>200.0</ele><time>2022-11-13T15:56:09.0000000+00:00</time></trkpt><trkpt lat="38.96465966" lon="-0.50128131"><ele>200.0</ele><time>2022-11-13T15:56:10.0000000+00:00</time></trkpt><trkpt lat="38.96465865" lon="-0.50128165"><ele>199.8</ele><time>2022-11-13T15:56:11.0000000+00:00</time></trkpt><trkpt lat="38.96465865" lon="-0.50128156"><ele>199.8</ele><time>2022-11-13T15:56:12.0000000+00:00</time></trkpt><trkpt lat="38.9646589" lon="-0.50127997"><ele>199.8</ele><time>2022-11-13T15:56:13.0000000+00:00</time></trkpt><trkpt lat="38.96465714" lon="-0.50127779"><ele>199.8</ele><time>2022-11-13T15:56:14.0000000+00:00</time></trkpt><trkpt lat="38.96465764" lon="-0.50127746"><ele>199.8</ele><time>2022-11-13T15:56:15.0000000+00:00</time></trkpt><trkpt lat="38.96465706" lon="-0.50127746"><ele>199.8</ele><time>2022-11-13T15:56:16.0000000+00:00</time></trkpt><trkpt lat="38.96465236" lon="-0.50127754"><ele>199.8</ele><time>2022-11-13T15:56:17.0000000+00:00</time></trkpt><trkpt lat="38.96465018" lon="-0.50127897"><ele>199.8</ele><time>2022-11-13T15:56:18.0000000+00:00</time></trkpt><trkpt lat="38.96465102" lon="-0.5012798"><ele>199.8</ele><time>2022-11-13T15:56:19.0000000+00:00</time></trkpt><trkpt lat="38.96465102" lon="-0.50127955"><ele>199.6</ele><time>2022-11-13T15:56:20.0000000+00:00</time></trkpt><trkpt lat="38.96465094" lon="-0.50128039"><ele>199.6</ele><time>2022-11-13T15:56:21.0000000+00:00</time></trkpt><trkpt lat="38.96464633" lon="-0.50127997"><ele>199.6</ele><time>2022-11-13T15:56:22.0000000+00:00</time></trkpt><trkpt lat="38.96464306" lon="-0.50127955"><ele>199.4</ele><time>2022-11-13T15:56:23.0000000+00:00</time></trkpt><trkpt lat="38.96464071" lon="-0.50128156"><ele>199.6</ele><time>2022-11-13T15:56:24.0000000+00:00</time></trkpt><trkpt lat="38.96463744" lon="-0.50128114"><ele>199.6</ele><time>2022-11-13T15:56:25.0000000+00:00</time></trkpt><trkpt lat="38.9646356" lon="-0.50128165"><ele>199.6</ele><time>2022-11-13T15:56:26.0000000+00:00</time></trkpt><trkpt lat="38.96463459" lon="-0.50128073"><ele>199.6</ele><time>2022-11-13T15:56:27.0000000+00:00</time></trkpt><trkpt lat="38.96463392" lon="-0.5012814"><ele>199.6</ele><time>2022-11-13T15:56:28.0000000+00:00</time></trkpt><trkpt lat="38.96463367" lon="-0.50128215"><ele>199.6</ele><time>2022-11-13T15:56:29.0000000+00:00</time></trkpt><trkpt lat="38.96463367" lon="-0.50128215"><ele>199.6</ele><time>2022-11-13T15:56:30.0000000+00:00</time></trkpt><trkpt lat="38.96463367" lon="-0.50128215"><ele>199.6</ele><time>2022-11-13T15:56:31.0000000+00:00</time></trkpt><trkpt lat="38.96463367" lon="-0.50128215"><ele>199.6</ele><time>2022-11-13T15:56:32.0000000+00:00</time></trkpt><trkpt lat="38.96463367" lon="-0.50128215"><ele>199.6</ele><time>2022-11-13T15:56:33.0000000+00:00</time></trkpt><trkpt lat="38.96463141" lon="-0.50128257"><ele>199.6</ele><time>2022-11-13T15:56:34.0000000+00:00</time></trkpt><trkpt lat="38.96462504" lon="-0.50128249"><ele>199.6</ele><time>2022-11-13T15:56:35.0000000+00:00</time></trkpt><trkpt lat="38.96461875" lon="-0.50128165"><ele>199.6</ele><time>2022-11-13T15:56:36.0000000+00:00</time></trkpt><trkpt lat="38.96461674" lon="-0.5012819"><ele>199.6</ele><time>2022-11-13T15:56:37.0000000+00:00</time></trkpt><trkpt lat="38.96461071" lon="-0.5012788"><ele>199.6</ele><time>2022-11-13T15:56:38.0000000+00:00</time></trkpt><trkpt lat="38.96460543" lon="-0.50127813"><ele>199.6</ele><time>2022-11-13T15:56:39.0000000+00:00</time></trkpt><trkpt lat="38.96460375" lon="-0.50128031"><ele>199.8</ele><time>2022-11-13T15:56:40.0000000+00:00</time></trkpt><trkpt lat="38.96459771" lon="-0.50128207"><ele>199.8</ele><time>2022-11-13T15:56:41.0000000+00:00</time></trkpt><trkpt lat="38.9645931" lon="-0.50128408"><ele>200.0</ele><time>2022-11-13T15:56:42.0000000+00:00</time></trkpt><trkpt lat="38.96459051" lon="-0.50128785"><ele>200.0</ele><time>2022-11-13T15:56:43.0000000+00:00</time></trkpt><trkpt lat="38.96458816" lon="-0.50128894"><ele>200.0</ele><time>2022-11-13T15:56:44.0000000+00:00</time></trkpt><trkpt lat="38.96458724" lon="-0.50128793"><ele>199.8</ele><time>2022-11-13T15:56:45.0000000+00:00</time></trkpt><trkpt lat="38.96459486" lon="-0.50129045"><ele>199.8</ele><time>2022-11-13T15:56:46.0000000+00:00</time></trkpt><trkpt lat="38.96460056" lon="-0.50129238"><ele>199.6</ele><time>2022-11-13T15:56:47.0000000+00:00</time></trkpt><trkpt lat="38.96460836" lon="-0.50129539"><ele>199.4</ele><time>2022-11-13T15:56:48.0000000+00:00</time></trkpt><trkpt lat="38.96461364" lon="-0.50130026"><ele>199.4</ele><time>2022-11-13T15:56:49.0000000+00:00</time></trkpt><trkpt lat="38.9646294" lon="-0.50130185"><ele>199.4</ele><time>2022-11-13T15:56:50.0000000+00:00</time></trkpt><trkpt lat="38.96464189" lon="-0.50130554"><ele>199.2</ele><time>2022-11-13T15:56:51.0000000+00:00</time></trkpt><trkpt lat="38.96465169" lon="-0.50131006"><ele>199.2</ele><time>2022-11-13T15:56:52.0000000+00:00</time></trkpt><trkpt lat="38.96466469" lon="-0.50131392"><ele>199.0</ele><time>2022-11-13T15:56:53.0000000+00:00</time></trkpt><trkpt lat="38.96468019" lon="-0.5013259"><ele>199.0</ele><time>2022-11-13T15:56:54.0000000+00:00</time></trkpt><trkpt lat="38.96469268" lon="-0.50133412"><ele>198.8</ele><time>2022-11-13T15:56:55.0000000+00:00</time></trkpt><trkpt lat="38.96470483" lon="-0.50134501"><ele>198.8</ele><time>2022-11-13T15:56:56.0000000+00:00</time></trkpt><trkpt lat="38.96471263" lon="-0.50135675"><ele>198.8</ele><time>2022-11-13T15:56:57.0000000+00:00</time></trkpt><trkpt lat="38.9647221" lon="-0.50136698"><ele>198.6</ele><time>2022-11-13T15:56:58.0000000+00:00</time></trkpt><trkpt lat="38.9647268" lon="-0.50137871"><ele>198.6</ele><time>2022-11-13T15:56:59.0000000+00:00</time></trkpt><trkpt lat="38.96473006" lon="-0.50138659"><ele>198.6</ele><time>2022-11-13T15:57:00.0000000+00:00</time></trkpt><trkpt lat="38.96473627" lon="-0.50139061"><ele>198.4</ele><time>2022-11-13T15:57:01.0000000+00:00</time></trkpt><trkpt lat="38.96473962" lon="-0.50140436"><ele>198.4</ele><time>2022-11-13T15:57:02.0000000+00:00</time></trkpt><trkpt lat="38.9647423" lon="-0.50142372"><ele>198.2</ele><time>2022-11-13T15:57:03.0000000+00:00</time></trkpt><trkpt lat="38.96474524" lon="-0.50144082"><ele>198.2</ele><time>2022-11-13T15:57:04.0000000+00:00</time></trkpt><trkpt lat="38.96474641" lon="-0.50145188"><ele>198.2</ele><time>2022-11-13T15:57:05.0000000+00:00</time></trkpt><trkpt lat="38.96474758" lon="-0.50146974"><ele>198.0</ele><time>2022-11-13T15:57:06.0000000+00:00</time></trkpt><trkpt lat="38.96474934" lon="-0.5014803"><ele>198.0</ele><time>2022-11-13T15:57:07.0000000+00:00</time></trkpt><trkpt lat="38.96475387" lon="-0.50148801"><ele>198.0</ele><time>2022-11-13T15:57:08.0000000+00:00</time></trkpt><trkpt lat="38.96476007" lon="-0.50150167"><ele>198.0</ele><time>2022-11-13T15:57:09.0000000+00:00</time></trkpt><trkpt lat="38.96476409" lon="-0.50151324"><ele>198.0</ele><time>2022-11-13T15:57:10.0000000+00:00</time></trkpt><trkpt lat="38.96476837" lon="-0.50152472"><ele>198.0</ele><time>2022-11-13T15:57:11.0000000+00:00</time></trkpt><trkpt lat="38.96477399" lon="-0.50153554"><ele>198.0</ele><time>2022-11-13T15:57:12.0000000+00:00</time></trkpt><trkpt lat="38.96477608" lon="-0.50154568"><ele>198.0</ele><time>2022-11-13T15:57:13.0000000+00:00</time></trkpt><trkpt lat="38.96478203" lon="-0.50155867"><ele>198.0</ele><time>2022-11-13T15:57:14.0000000+00:00</time></trkpt><trkpt lat="38.9647884" lon="-0.50156521"><ele>198.0</ele><time>2022-11-13T15:57:15.0000000+00:00</time></trkpt><trkpt lat="38.96479276" lon="-0.5015694"><ele>198.2</ele><time>2022-11-13T15:57:16.0000000+00:00</time></trkpt><trkpt lat="38.96480089" lon="-0.50157384"><ele>198.2</ele><time>2022-11-13T15:57:17.0000000+00:00</time></trkpt><trkpt lat="38.96481212" lon="-0.50157803"><ele>198.4</ele><time>2022-11-13T15:57:18.0000000+00:00</time></trkpt><trkpt lat="38.96481933" lon="-0.50158926"><ele>198.4</ele><time>2022-11-13T15:57:19.0000000+00:00</time></trkpt><trkpt lat="38.96482721" lon="-0.50160385"><ele>198.4</ele><time>2022-11-13T15:57:20.0000000+00:00</time></trkpt><trkpt lat="38.96483073" lon="-0.50161391"><ele>198.4</ele><time>2022-11-13T15:57:21.0000000+00:00</time></trkpt><trkpt lat="38.96482553" lon="-0.50162614"><ele>198.6</ele><time>2022-11-13T15:57:22.0000000+00:00</time></trkpt><trkpt lat="38.96482453" lon="-0.50163117"><ele>198.4</ele><time>2022-11-13T15:57:23.0000000+00:00</time></trkpt><trkpt lat="38.96482009" lon="-0.50163955"><ele>198.4</ele><time>2022-11-13T15:57:24.0000000+00:00</time></trkpt><trkpt lat="38.96481858" lon="-0.50164157"><ele>198.4</ele><time>2022-11-13T15:57:25.0000000+00:00</time></trkpt><trkpt lat="38.96481698" lon="-0.50164978"><ele>198.2</ele><time>2022-11-13T15:57:26.0000000+00:00</time></trkpt><trkpt lat="38.96481581" lon="-0.5016621"><ele>198.2</ele><time>2022-11-13T15:57:27.0000000+00:00</time></trkpt><trkpt lat="38.96482101" lon="-0.50167099"><ele>198.2</ele><time>2022-11-13T15:57:28.0000000+00:00</time></trkpt><trkpt lat="38.96482176" lon="-0.50168172"><ele>198.2</ele><time>2022-11-13T15:57:29.0000000+00:00</time></trkpt><trkpt lat="38.96482235" lon="-0.50169312"><ele>198.0</ele><time>2022-11-13T15:57:30.0000000+00:00</time></trkpt><trkpt lat="38.96482168" lon="-0.50170284"><ele>198.2</ele><time>2022-11-13T15:57:31.0000000+00:00</time></trkpt><trkpt lat="38.96482335" lon="-0.50170611"><ele>198.2</ele><time>2022-11-13T15:57:32.0000000+00:00</time></trkpt><trkpt lat="38.96482151" lon="-0.50171834"><ele>198.0</ele><time>2022-11-13T15:57:33.0000000+00:00</time></trkpt><trkpt lat="38.96481874" lon="-0.5017362"><ele>198.0</ele><time>2022-11-13T15:57:34.0000000+00:00</time></trkpt><trkpt lat="38.96481799" lon="-0.50174978"><ele>198.0</ele><time>2022-11-13T15:57:35.0000000+00:00</time></trkpt><trkpt lat="38.96481757" lon="-0.50176629"><ele>198.0</ele><time>2022-11-13T15:57:36.0000000+00:00</time></trkpt><trkpt lat="38.96481925" lon="-0.5017885"><ele>198.0</ele><time>2022-11-13T15:57:37.0000000+00:00</time></trkpt><trkpt lat="38.96482168" lon="-0.50180225"><ele>198.0</ele><time>2022-11-13T15:57:38.0000000+00:00</time></trkpt><trkpt lat="38.96482159" lon="-0.50181641"><ele>198.0</ele><time>2022-11-13T15:57:39.0000000+00:00</time></trkpt><trkpt lat="38.96482" lon="-0.50182647"><ele>198.0</ele><time>2022-11-13T15:57:40.0000000+00:00</time></trkpt><trkpt lat="38.96481874" lon="-0.50183712"><ele>197.8</ele><time>2022-11-13T15:57:41.0000000+00:00</time></trkpt><trkpt lat="38.96482159" lon="-0.50184751"><ele>197.8</ele><time>2022-11-13T15:57:42.0000000+00:00</time></trkpt><trkpt lat="38.96482067" lon="-0.50185824"><ele>197.8</ele><time>2022-11-13T15:57:43.0000000+00:00</time></trkpt><trkpt lat="38.96481791" lon="-0.50186846"><ele>197.6</ele><time>2022-11-13T15:57:44.0000000+00:00</time></trkpt><trkpt lat="38.96481472" lon="-0.50187534"><ele>197.6</ele><time>2022-11-13T15:57:45.0000000+00:00</time></trkpt><trkpt lat="38.96481472" lon="-0.50188791"><ele>197.6</ele><time>2022-11-13T15:57:46.0000000+00:00</time></trkpt><trkpt lat="38.96481623" lon="-0.50189696"><ele>197.6</ele><time>2022-11-13T15:57:47.0000000+00:00</time></trkpt><trkpt lat="38.96481841" lon="-0.50190467"><ele>197.6</ele><time>2022-11-13T15:57:48.0000000+00:00</time></trkpt><trkpt lat="38.96482" lon="-0.50191356"><ele>197.4</ele><time>2022-11-13T15:57:49.0000000+00:00</time></trkpt><trkpt lat="38.96482243" lon="-0.5019263"><ele>197.2</ele><time>2022-11-13T15:57:50.0000000+00:00</time></trkpt><trkpt lat="38.96482444" lon="-0.50194114"><ele>197.2</ele><time>2022-11-13T15:57:51.0000000+00:00</time></trkpt><trkpt lat="38.96482721" lon="-0.50195396"><ele>197.0</ele><time>2022-11-13T15:57:52.0000000+00:00</time></trkpt><trkpt lat="38.96482746" lon="-0.50196687"><ele>197.0</ele><time>2022-11-13T15:57:53.0000000+00:00</time></trkpt><trkpt lat="38.96482704" lon="-0.50198321"><ele>197.0</ele><time>2022-11-13T15:57:54.0000000+00:00</time></trkpt><trkpt lat="38.96482511" lon="-0.50199528"><ele>196.8</ele><time>2022-11-13T15:57:55.0000000+00:00</time></trkpt><trkpt lat="38.96482285" lon="-0.5020071"><ele>196.8</ele><time>2022-11-13T15:57:56.0000000+00:00</time></trkpt><trkpt lat="38.96482092" lon="-0.50202143"><ele>196.8</ele><time>2022-11-13T15:57:57.0000000+00:00</time></trkpt><trkpt lat="38.96481682" lon="-0.50203183"><ele>196.8</ele><time>2022-11-13T15:57:58.0000000+00:00</time></trkpt><trkpt lat="38.96481271" lon="-0.50204985"><ele>197.2</ele><time>2022-11-13T15:57:59.0000000+00:00</time></trkpt><trkpt lat="38.96481229" lon="-0.50205899"><ele>197.2</ele><time>2022-11-13T15:58:00.0000000+00:00</time></trkpt><trkpt lat="38.96481405" lon="-0.50206292"><ele>197.4</ele><time>2022-11-13T15:58:01.0000000+00:00</time></trkpt><trkpt lat="38.96481447" lon="-0.50206871"><ele>197.6</ele><time>2022-11-13T15:58:02.0000000+00:00</time></trkpt><trkpt lat="38.96481464" lon="-0.50207441"><ele>197.8</ele><time>2022-11-13T15:58:03.0000000+00:00</time></trkpt><trkpt lat="38.96481204" lon="-0.50207994"><ele>197.8</ele><time>2022-11-13T15:58:04.0000000+00:00</time></trkpt><trkpt lat="38.96481137" lon="-0.50208832"><ele>198.0</ele><time>2022-11-13T15:58:05.0000000+00:00</time></trkpt><trkpt lat="38.96481112" lon="-0.50209167"><ele>198.0</ele><time>2022-11-13T15:58:06.0000000+00:00</time></trkpt><trkpt lat="38.96480533" lon="-0.50209612"><ele>198.0</ele><time>2022-11-13T15:58:07.0000000+00:00</time></trkpt><trkpt lat="38.9648029" lon="-0.50210064"><ele>198.0</ele><time>2022-11-13T15:58:08.0000000+00:00</time></trkpt><trkpt lat="38.96480022" lon="-0.50210995"><ele>198.0</ele><time>2022-11-13T15:58:09.0000000+00:00</time></trkpt><trkpt lat="38.96480156" lon="-0.50211506"><ele>198.0</ele><time>2022-11-13T15:58:10.0000000+00:00</time></trkpt><trkpt lat="38.96479963" lon="-0.50212344"><ele>198.0</ele><time>2022-11-13T15:58:11.0000000+00:00</time></trkpt><trkpt lat="38.96480206" lon="-0.50212906"><ele>198.0</ele><time>2022-11-13T15:58:12.0000000+00:00</time></trkpt><trkpt lat="38.96480366" lon="-0.502134"><ele>198.0</ele><time>2022-11-13T15:58:13.0000000+00:00</time></trkpt><trkpt lat="38.96480341" lon="-0.50213769"><ele>197.8</ele><time>2022-11-13T15:58:14.0000000+00:00</time></trkpt><trkpt lat="38.96480232" lon="-0.50213995"><ele>197.8</ele><time>2022-11-13T15:58:15.0000000+00:00</time></trkpt><trkpt lat="38.96480475" lon="-0.50214985"><ele>197.6</ele><time>2022-11-13T15:58:16.0000000+00:00</time></trkpt><trkpt lat="38.96480575" lon="-0.50216158"><ele>197.6</ele><time>2022-11-13T15:58:17.0000000+00:00</time></trkpt><trkpt lat="38.96480206" lon="-0.50216267"><ele>197.4</ele><time>2022-11-13T15:58:18.0000000+00:00</time></trkpt><trkpt lat="38.96480089" lon="-0.50216544"><ele>197.4</ele><time>2022-11-13T15:58:19.0000000+00:00</time></trkpt><trkpt lat="38.96479963" lon="-0.50216502"><ele>197.4</ele><time>2022-11-13T15:58:20.0000000+00:00</time></trkpt><trkpt lat="38.96478882" lon="-0.50216988"><ele>197.4</ele><time>2022-11-13T15:58:21.0000000+00:00</time></trkpt><trkpt lat="38.96478597" lon="-0.50217516"><ele>197.4</ele><time>2022-11-13T15:58:22.0000000+00:00</time></trkpt><trkpt lat="38.96478698" lon="-0.50218287"><ele>197.4</ele><time>2022-11-13T15:58:23.0000000+00:00</time></trkpt><trkpt lat="38.96478999" lon="-0.50218513"><ele>197.4</ele><time>2022-11-13T15:58:24.0000000+00:00</time></trkpt><trkpt lat="38.96479578" lon="-0.50218782"><ele>197.6</ele><time>2022-11-13T15:58:25.0000000+00:00</time></trkpt><trkpt lat="38.96479662" lon="-0.50219368"><ele>197.6</ele><time>2022-11-13T15:58:26.0000000+00:00</time></trkpt><trkpt lat="38.96479762" lon="-0.5021946"><ele>197.6</ele><time>2022-11-13T15:58:27.0000000+00:00</time></trkpt><trkpt lat="38.96479854" lon="-0.5021962"><ele>197.4</ele><time>2022-11-13T15:58:28.0000000+00:00</time></trkpt><trkpt lat="38.96479888" lon="-0.50219578"><ele>197.4</ele><time>2022-11-13T15:58:29.0000000+00:00</time></trkpt><trkpt lat="38.96479846" lon="-0.50219611"><ele>197.2</ele><time>2022-11-13T15:58:30.0000000+00:00</time></trkpt><trkpt lat="38.96479938" lon="-0.5021972"><ele>197.2</ele><time>2022-11-13T15:58:31.0000000+00:00</time></trkpt><trkpt lat="38.96479938" lon="-0.5021972"><ele>197.2</ele><time>2022-11-13T15:58:32.0000000+00:00</time></trkpt><trkpt lat="38.96479938" lon="-0.5021972"><ele>197.2</ele><time>2022-11-13T15:58:33.0000000+00:00</time></trkpt><trkpt lat="38.96479938" lon="-0.5021972"><ele>197.2</ele><time>2022-11-13T15:58:34.0000000+00:00</time></trkpt><trkpt lat="38.96479938" lon="-0.5021972"><ele>197.2</ele><time>2022-11-13T15:58:35.0000000+00:00</time></trkpt><trkpt lat="38.96479938" lon="-0.5021972"><ele>197.2</ele><time>2022-11-13T15:58:36.0000000+00:00</time></trkpt><trkpt lat="38.96479938" lon="-0.5021972"><ele>197.2</ele><time>2022-11-13T15:58:37.0000000+00:00</time></trkpt><trkpt lat="38.96479938" lon="-0.5021972"><ele>197.2</ele><time>2022-11-13T15:58:38.0000000+00:00</time></trkpt><trkpt lat="38.96479938" lon="-0.5021972"><ele>197.2</ele><time>2022-11-13T15:58:39.0000000+00:00</time></trkpt><trkpt lat="38.96479938" lon="-0.5021972"><ele>197.2</ele><time>2022-11-13T15:58:40.0000000+00:00</time></trkpt><trkpt lat="38.96479938" lon="-0.5021972"><ele>197.2</ele><time>2022-11-13T15:58:41.0000000+00:00</time></trkpt><trkpt lat="38.96479938" lon="-0.5021972"><ele>197.2</ele><time>2022-11-13T15:58:42.0000000+00:00</time></trkpt><trkpt lat="38.96479938" lon="-0.5021972"><ele>197.2</ele><time>2022-11-13T15:58:43.0000000+00:00</time></trkpt><trkpt lat="38.96479938" lon="-0.5021972"><ele>197.2</ele><time>2022-11-13T15:58:44.0000000+00:00</time></trkpt><trkpt lat="38.96479938" lon="-0.50219695"><ele>197.2</ele><time>2022-11-13T15:58:45.0000000+00:00</time></trkpt><trkpt lat="38.96479938" lon="-0.50219695"><ele>197.2</ele><time>2022-11-13T15:58:46.0000000+00:00</time></trkpt><trkpt lat="38.96479938" lon="-0.50219695"><ele>197.2</ele><time>2022-11-13T15:58:47.0000000+00:00</time></trkpt><trkpt lat="38.96479938" lon="-0.50219695"><ele>197.2</ele><time>2022-11-13T15:58:48.0000000+00:00</time></trkpt><trkpt lat="38.96480014" lon="-0.50219687"><ele>197.0</ele><time>2022-11-13T15:58:49.0000000+00:00</time></trkpt><trkpt lat="38.96480114" lon="-0.5021967"><ele>197.0</ele><time>2022-11-13T15:58:50.0000000+00:00</time></trkpt><trkpt lat="38.96480173" lon="-0.50219662"><ele>197.0</ele><time>2022-11-13T15:58:51.0000000+00:00</time></trkpt><trkpt lat="38.96480198" lon="-0.50219653"><ele>197.2</ele><time>2022-11-13T15:58:52.0000000+00:00</time></trkpt><trkpt lat="38.96480223" lon="-0.50219662"><ele>197.2</ele><time>2022-11-13T15:58:53.0000000+00:00</time></trkpt><trkpt lat="38.96480232" lon="-0.5021967"><ele>197.2</ele><time>2022-11-13T15:58:54.0000000+00:00</time></trkpt><trkpt lat="38.96480232" lon="-0.50219678"><ele>197.2</ele><time>2022-11-13T15:58:55.0000000+00:00</time></trkpt><trkpt lat="38.96480232" lon="-0.50219687"><ele>197.2</ele><time>2022-11-13T15:58:56.0000000+00:00</time></trkpt><trkpt lat="38.96480232" lon="-0.50219695"><ele>197.2</ele><time>2022-11-13T15:58:57.0000000+00:00</time></trkpt><trkpt lat="38.96480232" lon="-0.50219695"><ele>197.2</ele><time>2022-11-13T15:58:58.0000000+00:00</time></trkpt><trkpt lat="38.96480248" lon="-0.50219695"><ele>197.2</ele><time>2022-11-13T15:58:59.0000000+00:00</time></trkpt><trkpt lat="38.96480248" lon="-0.5021972"><ele>197.2</ele><time>2022-11-13T15:59:00.0000000+00:00</time></trkpt><trkpt lat="38.96480248" lon="-0.50219729"><ele>197.0</ele><time>2022-11-13T15:59:01.0000000+00:00</time></trkpt><trkpt lat="38.96480274" lon="-0.50219729"><ele>197.0</ele><time>2022-11-13T15:59:02.0000000+00:00</time></trkpt><trkpt lat="38.96480274" lon="-0.50219745"><ele>197.0</ele><time>2022-11-13T15:59:03.0000000+00:00</time></trkpt><trkpt lat="38.96480299" lon="-0.50219779"><ele>197.0</ele><time>2022-11-13T15:59:04.0000000+00:00</time></trkpt><trkpt lat="38.96480307" lon="-0.50219787"><ele>197.0</ele><time>2022-11-13T15:59:05.0000000+00:00</time></trkpt><trkpt lat="38.96480307" lon="-0.50219787"><ele>197.0</ele><time>2022-11-13T15:59:06.0000000+00:00</time></trkpt><trkpt lat="38.96480299" lon="-0.50219787"><ele>197.0</ele><time>2022-11-13T15:59:07.0000000+00:00</time></trkpt><trkpt lat="38.96480282" lon="-0.50219796"><ele>197.0</ele><time>2022-11-13T15:59:08.0000000+00:00</time></trkpt><trkpt lat="38.96480274" lon="-0.50219871"><ele>197.0</ele><time>2022-11-13T15:59:09.0000000+00:00</time></trkpt><trkpt lat="38.96480274" lon="-0.50219921"><ele>197.0</ele><time>2022-11-13T15:59:10.0000000+00:00</time></trkpt><trkpt lat="38.9648029" lon="-0.50219947"><ele>197.0</ele><time>2022-11-13T15:59:11.0000000+00:00</time></trkpt><trkpt lat="38.96480299" lon="-0.50219963"><ele>197.0</ele><time>2022-11-13T15:59:12.0000000+00:00</time></trkpt><trkpt lat="38.96480299" lon="-0.50219972"><ele>197.0</ele><time>2022-11-13T15:59:13.0000000+00:00</time></trkpt><trkpt lat="38.96480307" lon="-0.50219989"><ele>197.0</ele><time>2022-11-13T15:59:14.0000000+00:00</time></trkpt><trkpt lat="38.96480315" lon="-0.5022003"><ele>197.2</ele><time>2022-11-13T15:59:15.0000000+00:00</time></trkpt><trkpt lat="38.96480324" lon="-0.50220072"><ele>197.2</ele><time>2022-11-13T15:59:16.0000000+00:00</time></trkpt><trkpt lat="38.96480324" lon="-0.50220206"><ele>197.2</ele><time>2022-11-13T15:59:17.0000000+00:00</time></trkpt><trkpt lat="38.96480341" lon="-0.50220299"><ele>197.2</ele><time>2022-11-13T15:59:18.0000000+00:00</time></trkpt><trkpt lat="38.96480349" lon="-0.50220341"><ele>197.0</ele><time>2022-11-13T15:59:19.0000000+00:00</time></trkpt><trkpt lat="38.96480357" lon="-0.50220357"><ele>197.0</ele><time>2022-11-13T15:59:20.0000000+00:00</time></trkpt><trkpt lat="38.96480366" lon="-0.50220366"><ele>197.0</ele><time>2022-11-13T15:59:21.0000000+00:00</time></trkpt><trkpt lat="38.96480374" lon="-0.50220374"><ele>197.0</ele><time>2022-11-13T15:59:22.0000000+00:00</time></trkpt><trkpt lat="38.96480374" lon="-0.50220382"><ele>197.0</ele><time>2022-11-13T15:59:23.0000000+00:00</time></trkpt><trkpt lat="38.96480382" lon="-0.50220391"><ele>197.0</ele><time>2022-11-13T15:59:24.0000000+00:00</time></trkpt><trkpt lat="38.96480399" lon="-0.50220433"><ele>197.0</ele><time>2022-11-13T15:59:25.0000000+00:00</time></trkpt><trkpt lat="38.96480399" lon="-0.50220466"><ele>197.0</ele><time>2022-11-13T15:59:26.0000000+00:00</time></trkpt><trkpt lat="38.96480408" lon="-0.50220475"><ele>197.0</ele><time>2022-11-13T15:59:27.0000000+00:00</time></trkpt><trkpt lat="38.96480408" lon="-0.50220483"><ele>197.0</ele><time>2022-11-13T15:59:28.0000000+00:00</time></trkpt><trkpt lat="38.96480408" lon="-0.50220517"><ele>197.0</ele><time>2022-11-13T15:59:29.0000000+00:00</time></trkpt><trkpt lat="38.96480416" lon="-0.50220567"><ele>197.0</ele><time>2022-11-13T15:59:30.0000000+00:00</time></trkpt><trkpt lat="38.96480416" lon="-0.50220575"><ele>197.0</ele><time>2022-11-13T15:59:31.0000000+00:00</time></trkpt><trkpt lat="38.96480416" lon="-0.50220659"><ele>197.0</ele><time>2022-11-13T15:59:32.0000000+00:00</time></trkpt><trkpt lat="38.96480416" lon="-0.50220684"><ele>197.0</ele><time>2022-11-13T15:59:33.0000000+00:00</time></trkpt><trkpt lat="38.96480416" lon="-0.50220827"><ele>197.0</ele><time>2022-11-13T15:59:34.0000000+00:00</time></trkpt><trkpt lat="38.96480416" lon="-0.50220877"><ele>197.0</ele><time>2022-11-13T15:59:35.0000000+00:00</time></trkpt><trkpt lat="38.96480416" lon="-0.50220894"><ele>197.0</ele><time>2022-11-13T15:59:36.0000000+00:00</time></trkpt><trkpt lat="38.96480416" lon="-0.50220911"><ele>197.2</ele><time>2022-11-13T15:59:37.0000000+00:00</time></trkpt><trkpt lat="38.96480416" lon="-0.50220927"><ele>197.2</ele><time>2022-11-13T15:59:38.0000000+00:00</time></trkpt><trkpt lat="38.96480416" lon="-0.50220944"><ele>197.2</ele><time>2022-11-13T15:59:39.0000000+00:00</time></trkpt><trkpt lat="38.96480416" lon="-0.50220969"><ele>197.2</ele><time>2022-11-13T15:59:40.0000000+00:00</time></trkpt><trkpt lat="38.96480416" lon="-0.5022107"><ele>197.4</ele><time>2022-11-13T15:59:41.0000000+00:00</time></trkpt><trkpt lat="38.96480416" lon="-0.5022112"><ele>197.4</ele><time>2022-11-13T15:59:42.0000000+00:00</time></trkpt><trkpt lat="38.96480408" lon="-0.50221162"><ele>197.4</ele><time>2022-11-13T15:59:43.0000000+00:00</time></trkpt><trkpt lat="38.96480391" lon="-0.50221187"><ele>197.4</ele><time>2022-11-13T15:59:44.0000000+00:00</time></trkpt><trkpt lat="38.96480382" lon="-0.50221204"><ele>197.4</ele><time>2022-11-13T15:59:45.0000000+00:00</time></trkpt><trkpt lat="38.96480382" lon="-0.50221229"><ele>197.4</ele><time>2022-11-13T15:59:46.0000000+00:00</time></trkpt><trkpt lat="38.96480315" lon="-0.50221246"><ele>197.4</ele><time>2022-11-13T15:59:47.0000000+00:00</time></trkpt><trkpt lat="38.9648019" lon="-0.50221288"><ele>197.2</ele><time>2022-11-13T15:59:48.0000000+00:00</time></trkpt><trkpt lat="38.96480114" lon="-0.50221313"><ele>197.0</ele><time>2022-11-13T15:59:49.0000000+00:00</time></trkpt><trkpt lat="38.96480081" lon="-0.50221346"><ele>197.0</ele><time>2022-11-13T15:59:50.0000000+00:00</time></trkpt><trkpt lat="38.96480014" lon="-0.50221439"><ele>197.0</ele><time>2022-11-13T15:59:51.0000000+00:00</time></trkpt><trkpt lat="38.96479989" lon="-0.50221556"><ele>197.0</ele><time>2022-11-13T15:59:52.0000000+00:00</time></trkpt><trkpt lat="38.96479972" lon="-0.50221623"><ele>197.0</ele><time>2022-11-13T15:59:53.0000000+00:00</time></trkpt><trkpt lat="38.96479963" lon="-0.50221656"><ele>197.0</ele><time>2022-11-13T15:59:54.0000000+00:00</time></trkpt><trkpt lat="38.96479947" lon="-0.50221682"><ele>197.0</ele><time>2022-11-13T15:59:55.0000000+00:00</time></trkpt><trkpt lat="38.9647993" lon="-0.50221724"><ele>197.0</ele><time>2022-11-13T15:59:56.0000000+00:00</time></trkpt><trkpt lat="38.96479913" lon="-0.5022174"><ele>197.0</ele><time>2022-11-13T15:59:57.0000000+00:00</time></trkpt><trkpt lat="38.96479905" lon="-0.50221849"><ele>197.0</ele><time>2022-11-13T15:59:58.0000000+00:00</time></trkpt><trkpt lat="38.96479896" lon="-0.50222"><ele>197.0</ele><time>2022-11-13T15:59:59.0000000+00:00</time></trkpt><trkpt lat="38.96479854" lon="-0.50222084"><ele>197.0</ele><time>2022-11-13T16:00:00.0000000+00:00</time></trkpt><trkpt lat="38.96479829" lon="-0.50222226"><ele>197.0</ele><time>2022-11-13T16:00:01.0000000+00:00</time></trkpt><trkpt lat="38.96479787" lon="-0.50222352"><ele>197.0</ele><time>2022-11-13T16:00:02.0000000+00:00</time></trkpt><trkpt lat="38.96479754" lon="-0.5022252"><ele>197.0</ele><time>2022-11-13T16:00:03.0000000+00:00</time></trkpt><trkpt lat="38.9647972" lon="-0.50222671"><ele>197.0</ele><time>2022-11-13T16:00:04.0000000+00:00</time></trkpt><trkpt lat="38.96479704" lon="-0.50222771"><ele>197.0</ele><time>2022-11-13T16:00:05.0000000+00:00</time></trkpt><trkpt lat="38.96479678" lon="-0.50222822"><ele>197.0</ele><time>2022-11-13T16:00:06.0000000+00:00</time></trkpt><trkpt lat="38.96479662" lon="-0.50222855"><ele>196.8</ele><time>2022-11-13T16:00:07.0000000+00:00</time></trkpt><trkpt lat="38.96479653" lon="-0.50222872"><ele>196.8</ele><time>2022-11-13T16:00:08.0000000+00:00</time></trkpt><trkpt lat="38.96479603" lon="-0.50222889"><ele>196.8</ele><time>2022-11-13T16:00:09.0000000+00:00</time></trkpt><trkpt lat="38.96479578" lon="-0.50222905"><ele>197.0</ele><time>2022-11-13T16:00:10.0000000+00:00</time></trkpt><trkpt lat="38.96479561" lon="-0.50222922"><ele>196.8</ele><time>2022-11-13T16:00:11.0000000+00:00</time></trkpt><trkpt lat="38.96479553" lon="-0.50222939"><ele>196.8</ele><time>2022-11-13T16:00:12.0000000+00:00</time></trkpt><trkpt lat="38.96479553" lon="-0.50222956"><ele>197.0</ele><time>2022-11-13T16:00:13.0000000+00:00</time></trkpt><trkpt lat="38.96479553" lon="-0.50222972"><ele>197.0</ele><time>2022-11-13T16:00:14.0000000+00:00</time></trkpt><trkpt lat="38.96479553" lon="-0.50222998"><ele>196.8</ele><time>2022-11-13T16:00:15.0000000+00:00</time></trkpt><trkpt lat="38.96479553" lon="-0.50223014"><ele>196.8</ele><time>2022-11-13T16:00:16.0000000+00:00</time></trkpt><trkpt lat="38.96479553" lon="-0.50223023"><ele>197.0</ele><time>2022-11-13T16:00:17.0000000+00:00</time></trkpt><trkpt lat="38.96479553" lon="-0.5022304"><ele>197.0</ele><time>2022-11-13T16:00:18.0000000+00:00</time></trkpt><trkpt lat="38.96479544" lon="-0.50223065"><ele>197.0</ele><time>2022-11-13T16:00:19.0000000+00:00</time></trkpt><trkpt lat="38.96479544" lon="-0.50223081"><ele>197.0</ele><time>2022-11-13T16:00:20.0000000+00:00</time></trkpt><trkpt lat="38.96479536" lon="-0.50223115"><ele>197.0</ele><time>2022-11-13T16:00:21.0000000+00:00</time></trkpt><trkpt lat="38.96479536" lon="-0.5022314"><ele>197.0</ele><time>2022-11-13T16:00:22.0000000+00:00</time></trkpt><trkpt lat="38.96479528" lon="-0.50223165"><ele>197.0</ele><time>2022-11-13T16:00:23.0000000+00:00</time></trkpt><trkpt lat="38.96479519" lon="-0.50223174"><ele>197.0</ele><time>2022-11-13T16:00:24.0000000+00:00</time></trkpt><trkpt lat="38.96479519" lon="-0.5022319"><ele>197.0</ele><time>2022-11-13T16:00:25.0000000+00:00</time></trkpt><trkpt lat="38.96479502" lon="-0.50223241"><ele>197.0</ele><time>2022-11-13T16:00:26.0000000+00:00</time></trkpt><trkpt lat="38.96479494" lon="-0.50223283"><ele>197.0</ele><time>2022-11-13T16:00:27.0000000+00:00</time></trkpt><trkpt lat="38.96479494" lon="-0.50223308"><ele>197.0</ele><time>2022-11-13T16:00:28.0000000+00:00</time></trkpt><trkpt lat="38.96479486" lon="-0.50223324"><ele>197.0</ele><time>2022-11-13T16:00:29.0000000+00:00</time></trkpt><trkpt lat="38.96479477" lon="-0.50223324"><ele>197.0</ele><time>2022-11-13T16:00:30.0000000+00:00</time></trkpt><trkpt lat="38.96479469" lon="-0.50223333"><ele>197.0</ele><time>2022-11-13T16:00:31.0000000+00:00</time></trkpt><trkpt lat="38.96479452" lon="-0.50223333"><ele>197.0</ele><time>2022-11-13T16:00:32.0000000+00:00</time></trkpt><trkpt lat="38.9647941" lon="-0.50223333"><ele>197.0</ele><time>2022-11-13T16:00:33.0000000+00:00</time></trkpt><trkpt lat="38.96479335" lon="-0.50223341"><ele>197.0</ele><time>2022-11-13T16:00:34.0000000+00:00</time></trkpt><trkpt lat="38.96479259" lon="-0.50223341"><ele>197.0</ele><time>2022-11-13T16:00:35.0000000+00:00</time></trkpt><trkpt lat="38.96479184" lon="-0.50223341"><ele>197.0</ele><time>2022-11-13T16:00:36.0000000+00:00</time></trkpt><trkpt lat="38.96479092" lon="-0.50223341"><ele>197.0</ele><time>2022-11-13T16:00:37.0000000+00:00</time></trkpt><trkpt lat="38.96479033" lon="-0.50223341"><ele>197.0</ele><time>2022-11-13T16:00:38.0000000+00:00</time></trkpt><trkpt lat="38.96478983" lon="-0.50223341"><ele>197.0</ele><time>2022-11-13T16:00:39.0000000+00:00</time></trkpt><trkpt lat="38.96478949" lon="-0.50223341"><ele>197.0</ele><time>2022-11-13T16:00:40.0000000+00:00</time></trkpt><trkpt lat="38.96478924" lon="-0.50223341"><ele>197.0</ele><time>2022-11-13T16:00:41.0000000+00:00</time></trkpt><trkpt lat="38.96478907" lon="-0.50223333"><ele>197.0</ele><time>2022-11-13T16:00:42.0000000+00:00</time></trkpt><trkpt lat="38.96478882" lon="-0.50223333"><ele>197.0</ele><time>2022-11-13T16:00:43.0000000+00:00</time></trkpt><trkpt lat="38.96478865" lon="-0.50223324"><ele>197.0</ele><time>2022-11-13T16:00:44.0000000+00:00</time></trkpt><trkpt lat="38.96478849" lon="-0.50223299"><ele>197.0</ele><time>2022-11-13T16:00:45.0000000+00:00</time></trkpt><trkpt lat="38.96478832" lon="-0.50223283"><ele>197.0</ele><time>2022-11-13T16:00:46.0000000+00:00</time></trkpt><trkpt lat="38.96478798" lon="-0.50223232"><ele>197.0</ele><time>2022-11-13T16:00:47.0000000+00:00</time></trkpt><trkpt lat="38.96478765" lon="-0.50223182"><ele>197.0</ele><time>2022-11-13T16:00:48.0000000+00:00</time></trkpt><trkpt lat="38.9647874" lon="-0.50223157"><ele>197.0</ele><time>2022-11-13T16:00:49.0000000+00:00</time></trkpt><trkpt lat="38.96478714" lon="-0.5022314"><ele>197.0</ele><time>2022-11-13T16:00:50.0000000+00:00</time></trkpt><trkpt lat="38.96478689" lon="-0.50223123"><ele>197.0</ele><time>2022-11-13T16:00:51.0000000+00:00</time></trkpt><trkpt lat="38.96478656" lon="-0.50223115"><ele>197.0</ele><time>2022-11-13T16:00:52.0000000+00:00</time></trkpt><trkpt lat="38.96478471" lon="-0.50223107"><ele>197.0</ele><time>2022-11-13T16:00:53.0000000+00:00</time></trkpt><trkpt lat="38.96478304" lon="-0.50223107"><ele>197.0</ele><time>2022-11-13T16:00:54.0000000+00:00</time></trkpt><trkpt lat="38.96478145" lon="-0.50223098"><ele>197.2</ele><time>2022-11-13T16:00:55.0000000+00:00</time></trkpt><trkpt lat="38.96477977" lon="-0.50223098"><ele>197.2</ele><time>2022-11-13T16:00:56.0000000+00:00</time></trkpt><trkpt lat="38.9647786" lon="-0.50223098"><ele>197.2</ele><time>2022-11-13T16:00:57.0000000+00:00</time></trkpt><trkpt lat="38.96477767" lon="-0.50223098"><ele>197.4</ele><time>2022-11-13T16:00:58.0000000+00:00</time></trkpt><trkpt lat="38.964777" lon="-0.5022309"><ele>197.4</ele><time>2022-11-13T16:00:59.0000000+00:00</time></trkpt><trkpt lat="38.9647765" lon="-0.5022309"><ele>197.4</ele><time>2022-11-13T16:01:00.0000000+00:00</time></trkpt><trkpt lat="38.96477608" lon="-0.50223065"><ele>197.4</ele><time>2022-11-13T16:01:01.0000000+00:00</time></trkpt><trkpt lat="38.96477575" lon="-0.50223048"><ele>197.4</ele><time>2022-11-13T16:01:02.0000000+00:00</time></trkpt><trkpt lat="38.96477549" lon="-0.50223023"><ele>197.4</ele><time>2022-11-13T16:01:03.0000000+00:00</time></trkpt><trkpt lat="38.96477533" lon="-0.50222998"><ele>197.4</ele><time>2022-11-13T16:01:04.0000000+00:00</time></trkpt><trkpt lat="38.96477516" lon="-0.50222972"><ele>197.4</ele><time>2022-11-13T16:01:05.0000000+00:00</time></trkpt><trkpt lat="38.96477499" lon="-0.50222947"><ele>197.4</ele><time>2022-11-13T16:01:06.0000000+00:00</time></trkpt><trkpt lat="38.96477491" lon="-0.50222931"><ele>197.4</ele><time>2022-11-13T16:01:07.0000000+00:00</time></trkpt><trkpt lat="38.96477466" lon="-0.50222922"><ele>197.4</ele><time>2022-11-13T16:01:08.0000000+00:00</time></trkpt><trkpt lat="38.9647744" lon="-0.50222914"><ele>197.4</ele><time>2022-11-13T16:01:09.0000000+00:00</time></trkpt><trkpt lat="38.96477424" lon="-0.50222905"><ele>197.4</ele><time>2022-11-13T16:01:10.0000000+00:00</time></trkpt><trkpt lat="38.96477407" lon="-0.50222905"><ele>197.4</ele><time>2022-11-13T16:01:11.0000000+00:00</time></trkpt><trkpt lat="38.9647739" lon="-0.50222914"><ele>197.4</ele><time>2022-11-13T16:01:12.0000000+00:00</time></trkpt><trkpt lat="38.96477365" lon="-0.50222914"><ele>197.2</ele><time>2022-11-13T16:01:13.0000000+00:00</time></trkpt><trkpt lat="38.96477357" lon="-0.50222922"><ele>197.2</ele><time>2022-11-13T16:01:14.0000000+00:00</time></trkpt><trkpt lat="38.9647734" lon="-0.50222922"><ele>197.2</ele><time>2022-11-13T16:01:15.0000000+00:00</time></trkpt><trkpt lat="38.96477331" lon="-0.50222914"><ele>197.2</ele><time>2022-11-13T16:01:16.0000000+00:00</time></trkpt><trkpt lat="38.96477331" lon="-0.50222905"><ele>197.2</ele><time>2022-11-13T16:01:17.0000000+00:00</time></trkpt><trkpt lat="38.96477323" lon="-0.50222897"><ele>197.4</ele><time>2022-11-13T16:01:18.0000000+00:00</time></trkpt><trkpt lat="38.96477315" lon="-0.5022288"><ele>197.6</ele><time>2022-11-13T16:01:19.0000000+00:00</time></trkpt><trkpt lat="38.96477315" lon="-0.50222863"><ele>197.6</ele><time>2022-11-13T16:01:20.0000000+00:00</time></trkpt><trkpt lat="38.96477315" lon="-0.50222855"><ele>197.6</ele><time>2022-11-13T16:01:21.0000000+00:00</time></trkpt><trkpt lat="38.96477306" lon="-0.50222838"><ele>197.6</ele><time>2022-11-13T16:01:22.0000000+00:00</time></trkpt><trkpt lat="38.96477306" lon="-0.50222822"><ele>197.6</ele><time>2022-11-13T16:01:23.0000000+00:00</time></trkpt><trkpt lat="38.96477306" lon="-0.50222796"><ele>197.6</ele><time>2022-11-13T16:01:24.0000000+00:00</time></trkpt><trkpt lat="38.96477306" lon="-0.50222788"><ele>197.4</ele><time>2022-11-13T16:01:25.0000000+00:00</time></trkpt><trkpt lat="38.96477306" lon="-0.50222771"><ele>197.4</ele><time>2022-11-13T16:01:26.0000000+00:00</time></trkpt><trkpt lat="38.96477315" lon="-0.50222763"><ele>197.4</ele><time>2022-11-13T16:01:27.0000000+00:00</time></trkpt><trkpt lat="38.96477315" lon="-0.50222755"><ele>197.4</ele><time>2022-11-13T16:01:28.0000000+00:00</time></trkpt><trkpt lat="38.96477323" lon="-0.50222746"><ele>197.4</ele><time>2022-11-13T16:01:29.0000000+00:00</time></trkpt><trkpt lat="38.96477323" lon="-0.50222738"><ele>197.2</ele><time>2022-11-13T16:01:30.0000000+00:00</time></trkpt><trkpt lat="38.96477323" lon="-0.50222738"><ele>197.0</ele><time>2022-11-13T16:01:31.0000000+00:00</time></trkpt><trkpt lat="38.96477323" lon="-0.50222729"><ele>197.0</ele><time>2022-11-13T16:01:32.0000000+00:00</time></trkpt><trkpt lat="38.96477331" lon="-0.50222729"><ele>197.0</ele><time>2022-11-13T16:01:33.0000000+00:00</time></trkpt><trkpt lat="38.96477331" lon="-0.50222721"><ele>196.8</ele><time>2022-11-13T16:01:34.0000000+00:00</time></trkpt><trkpt lat="38.96477331" lon="-0.50222721"><ele>196.8</ele><time>2022-11-13T16:01:35.0000000+00:00</time></trkpt><trkpt lat="38.9647734" lon="-0.50222721"><ele>196.8</ele><time>2022-11-13T16:01:36.0000000+00:00</time></trkpt><trkpt lat="38.9647729" lon="-0.5022345"><ele>196.8</ele><time>2022-11-13T16:01:37.0000000+00:00</time></trkpt><trkpt lat="38.96476896" lon="-0.50225336"><ele>196.6</ele><time>2022-11-13T16:01:38.0000000+00:00</time></trkpt><trkpt lat="38.96476761" lon="-0.50227172"><ele>196.6</ele><time>2022-11-13T16:01:39.0000000+00:00</time></trkpt><trkpt lat="38.96476963" lon="-0.50228915"><ele>196.6</ele><time>2022-11-13T16:01:40.0000000+00:00</time></trkpt><trkpt lat="38.96477114" lon="-0.50230625"><ele>197.0</ele><time>2022-11-13T16:01:41.0000000+00:00</time></trkpt><trkpt lat="38.96476954" lon="-0.50232159"><ele>197.0</ele><time>2022-11-13T16:01:42.0000000+00:00</time></trkpt><trkpt lat="38.9647682" lon="-0.50233475"><ele>197.0</ele><time>2022-11-13T16:01:43.0000000+00:00</time></trkpt><trkpt lat="38.96476803" lon="-0.5023485"><ele>197.0</ele><time>2022-11-13T16:01:44.0000000+00:00</time></trkpt><trkpt lat="38.96476309" lon="-0.50236166"><ele>197.0</ele><time>2022-11-13T16:01:45.0000000+00:00</time></trkpt><trkpt lat="38.96475915" lon="-0.50237205"><ele>197.0</ele><time>2022-11-13T16:01:46.0000000+00:00</time></trkpt><trkpt lat="38.96475697" lon="-0.50237901"><ele>197.0</ele><time>2022-11-13T16:01:47.0000000+00:00</time></trkpt><trkpt lat="38.9647558" lon="-0.50238697"><ele>197.0</ele><time>2022-11-13T16:01:48.0000000+00:00</time></trkpt><trkpt lat="38.9647537" lon="-0.50239334"><ele>197.0</ele><time>2022-11-13T16:01:49.0000000+00:00</time></trkpt><trkpt lat="38.96474733" lon="-0.50240214"><ele>197.0</ele><time>2022-11-13T16:01:50.0000000+00:00</time></trkpt><trkpt lat="38.96474356" lon="-0.50241304"><ele>197.0</ele><time>2022-11-13T16:01:51.0000000+00:00</time></trkpt><trkpt lat="38.96474423" lon="-0.50242326"><ele>197.0</ele><time>2022-11-13T16:01:52.0000000+00:00</time></trkpt><trkpt lat="38.96474448" lon="-0.502435"><ele>196.6</ele><time>2022-11-13T16:01:53.0000000+00:00</time></trkpt><trkpt lat="38.96474733" lon="-0.50244455"><ele>196.4</ele><time>2022-11-13T16:01:54.0000000+00:00</time></trkpt><trkpt lat="38.9647475" lon="-0.50245143"><ele>196.2</ele><time>2022-11-13T16:01:55.0000000+00:00</time></trkpt><trkpt lat="38.9647454" lon="-0.50246039"><ele>196.2</ele><time>2022-11-13T16:01:56.0000000+00:00</time></trkpt><trkpt lat="38.9647423" lon="-0.50246886"><ele>196.2</ele><time>2022-11-13T16:01:57.0000000+00:00</time></trkpt><trkpt lat="38.96474347" lon="-0.50247741"><ele>196.2</ele><time>2022-11-13T16:01:58.0000000+00:00</time></trkpt><trkpt lat="38.96474582" lon="-0.50248244"><ele>196.2</ele><time>2022-11-13T16:01:59.0000000+00:00</time></trkpt><trkpt lat="38.96474582" lon="-0.5024894"><ele>196.6</ele><time>2022-11-13T16:02:00.0000000+00:00</time></trkpt><trkpt lat="38.96474809" lon="-0.50249266"><ele>196.8</ele><time>2022-11-13T16:02:01.0000000+00:00</time></trkpt><trkpt lat="38.96474498" lon="-0.50249971"><ele>197.0</ele><time>2022-11-13T16:02:02.0000000+00:00</time></trkpt><trkpt lat="38.96474255" lon="-0.50251354"><ele>197.0</ele><time>2022-11-13T16:02:03.0000000+00:00</time></trkpt><trkpt lat="38.96473945" lon="-0.50252611"><ele>197.2</ele><time>2022-11-13T16:02:04.0000000+00:00</time></trkpt><trkpt lat="38.96473912" lon="-0.50253617"><ele>197.2</ele><time>2022-11-13T16:02:05.0000000+00:00</time></trkpt><trkpt lat="38.96473744" lon="-0.50254379"><ele>197.2</ele><time>2022-11-13T16:02:06.0000000+00:00</time></trkpt><trkpt lat="38.96473886" lon="-0.50255628"><ele>197.4</ele><time>2022-11-13T16:02:07.0000000+00:00</time></trkpt><trkpt lat="38.96474255" lon="-0.50257179"><ele>197.4</ele><time>2022-11-13T16:02:08.0000000+00:00</time></trkpt><trkpt lat="38.96474037" lon="-0.5025873"><ele>197.4</ele><time>2022-11-13T16:02:09.0000000+00:00</time></trkpt><trkpt lat="38.96473778" lon="-0.50259786"><ele>197.6</ele><time>2022-11-13T16:02:10.0000000+00:00</time></trkpt><trkpt lat="38.9647335" lon="-0.50260448"><ele>197.6</ele><time>2022-11-13T16:02:11.0000000+00:00</time></trkpt><trkpt lat="38.96472772" lon="-0.50260733"><ele>197.6</ele><time>2022-11-13T16:02:12.0000000+00:00</time></trkpt><trkpt lat="38.9647252" lon="-0.50261328"><ele>197.8</ele><time>2022-11-13T16:02:13.0000000+00:00</time></trkpt><trkpt lat="38.96472604" lon="-0.50262124"><ele>198.0</ele><time>2022-11-13T16:02:14.0000000+00:00</time></trkpt><trkpt lat="38.96472889" lon="-0.5026303"><ele>198.0</ele><time>2022-11-13T16:02:15.0000000+00:00</time></trkpt><trkpt lat="38.96473082" lon="-0.5026417"><ele>198.0</ele><time>2022-11-13T16:02:16.0000000+00:00</time></trkpt><trkpt lat="38.96473149" lon="-0.50265377"><ele>198.0</ele><time>2022-11-13T16:02:17.0000000+00:00</time></trkpt><trkpt lat="38.96472772" lon="-0.50266894"><ele>198.0</ele><time>2022-11-13T16:02:18.0000000+00:00</time></trkpt><trkpt lat="38.96472235" lon="-0.50267916"><ele>198.0</ele><time>2022-11-13T16:02:19.0000000+00:00</time></trkpt><trkpt lat="38.96471959" lon="-0.50269433"><ele>198.0</ele><time>2022-11-13T16:02:20.0000000+00:00</time></trkpt><trkpt lat="38.96471196" lon="-0.50271051"><ele>198.2</ele><time>2022-11-13T16:02:21.0000000+00:00</time></trkpt><trkpt lat="38.96469385" lon="-0.50271856"><ele>198.2</ele><time>2022-11-13T16:02:22.0000000+00:00</time></trkpt><trkpt lat="38.96469226" lon="-0.50272225"><ele>198.4</ele><time>2022-11-13T16:02:23.0000000+00:00</time></trkpt><trkpt lat="38.96469377" lon="-0.50272652"><ele>198.4</ele><time>2022-11-13T16:02:24.0000000+00:00</time></trkpt><trkpt lat="38.96469427" lon="-0.50273247"><ele>198.6</ele><time>2022-11-13T16:02:25.0000000+00:00</time></trkpt><trkpt lat="38.96469226" lon="-0.50274563"><ele>198.8</ele><time>2022-11-13T16:02:26.0000000+00:00</time></trkpt><trkpt lat="38.96469159" lon="-0.50275837"><ele>198.8</ele><time>2022-11-13T16:02:27.0000000+00:00</time></trkpt><trkpt lat="38.96469033" lon="-0.50276591"><ele>199.0</ele><time>2022-11-13T16:02:28.0000000+00:00</time></trkpt><trkpt lat="38.96468706" lon="-0.50277706"><ele>199.2</ele><time>2022-11-13T16:02:29.0000000+00:00</time></trkpt><trkpt lat="38.96468044" lon="-0.50279031"><ele>199.4</ele><time>2022-11-13T16:02:30.0000000+00:00</time></trkpt><trkpt lat="38.96467893" lon="-0.50279936"><ele>199.6</ele><time>2022-11-13T16:02:31.0000000+00:00</time></trkpt><trkpt lat="38.96467919" lon="-0.50280967"><ele>199.6</ele><time>2022-11-13T16:02:32.0000000+00:00</time></trkpt><trkpt lat="38.96467885" lon="-0.5028188"><ele>199.8</ele><time>2022-11-13T16:02:33.0000000+00:00</time></trkpt><trkpt lat="38.96467784" lon="-0.50282677"><ele>199.8</ele><time>2022-11-13T16:02:34.0000000+00:00</time></trkpt><trkpt lat="38.96467265" lon="-0.50283381"><ele>200.0</ele><time>2022-11-13T16:02:35.0000000+00:00</time></trkpt><trkpt lat="38.96466569" lon="-0.50284152"><ele>200.0</ele><time>2022-11-13T16:02:36.0000000+00:00</time></trkpt><trkpt lat="38.96465748" lon="-0.50285116"><ele>200.2</ele><time>2022-11-13T16:02:37.0000000+00:00</time></trkpt><trkpt lat="38.96465614" lon="-0.5028608"><ele>200.2</ele><time>2022-11-13T16:02:38.0000000+00:00</time></trkpt><trkpt lat="38.96465396" lon="-0.50287253"><ele>200.2</ele><time>2022-11-13T16:02:39.0000000+00:00</time></trkpt><trkpt lat="38.96464658" lon="-0.50288226"><ele>200.2</ele><time>2022-11-13T16:02:40.0000000+00:00</time></trkpt><trkpt lat="38.96464013" lon="-0.50289156"><ele>200.2</ele><time>2022-11-13T16:02:41.0000000+00:00</time></trkpt><trkpt lat="38.96463862" lon="-0.50290162"><ele>200.2</ele><time>2022-11-13T16:02:42.0000000+00:00</time></trkpt><trkpt lat="38.9646361" lon="-0.50291017"><ele>200.2</ele><time>2022-11-13T16:02:43.0000000+00:00</time></trkpt><trkpt lat="38.96463552" lon="-0.50291637"><ele>200.2</ele><time>2022-11-13T16:02:44.0000000+00:00</time></trkpt><trkpt lat="38.96463183" lon="-0.50292039"><ele>200.2</ele><time>2022-11-13T16:02:45.0000000+00:00</time></trkpt><trkpt lat="38.96462403" lon="-0.50292986"><ele>200.0</ele><time>2022-11-13T16:02:46.0000000+00:00</time></trkpt><trkpt lat="38.96461892" lon="-0.50294546"><ele>200.0</ele><time>2022-11-13T16:02:47.0000000+00:00</time></trkpt><trkpt lat="38.96462219" lon="-0.50296054"><ele>200.0</ele><time>2022-11-13T16:02:48.0000000+00:00</time></trkpt><trkpt lat="38.96462504" lon="-0.50297152"><ele>200.0</ele><time>2022-11-13T16:02:49.0000000+00:00</time></trkpt><trkpt lat="38.96462462" lon="-0.5029825"><ele>200.0</ele><time>2022-11-13T16:02:50.0000000+00:00</time></trkpt><trkpt lat="38.96461615" lon="-0.50299332"><ele>200.0</ele><time>2022-11-13T16:02:51.0000000+00:00</time></trkpt><trkpt lat="38.96460593" lon="-0.50300555"><ele>200.0</ele><time>2022-11-13T16:02:52.0000000+00:00</time></trkpt><trkpt lat="38.964604" lon="-0.50301796"><ele>200.2</ele><time>2022-11-13T16:02:53.0000000+00:00</time></trkpt><trkpt lat="38.96460341" lon="-0.50302919"><ele>200.2</ele><time>2022-11-13T16:02:54.0000000+00:00</time></trkpt><trkpt lat="38.96460065" lon="-0.50304445"><ele>200.4</ele><time>2022-11-13T16:02:55.0000000+00:00</time></trkpt><trkpt lat="38.96459855" lon="-0.50305408"><ele>200.4</ele><time>2022-11-13T16:02:56.0000000+00:00</time></trkpt><trkpt lat="38.96459662" lon="-0.50306163"><ele>200.6</ele><time>2022-11-13T16:02:57.0000000+00:00</time></trkpt><trkpt lat="38.96459746" lon="-0.50307018"><ele>200.8</ele><time>2022-11-13T16:02:58.0000000+00:00</time></trkpt><trkpt lat="38.96459956" lon="-0.50308099"><ele>201.0</ele><time>2022-11-13T16:02:59.0000000+00:00</time></trkpt><trkpt lat="38.96460224" lon="-0.50309138"><ele>201.2</ele><time>2022-11-13T16:03:00.0000000+00:00</time></trkpt><trkpt lat="38.96460341" lon="-0.50310161"><ele>201.4</ele><time>2022-11-13T16:03:01.0000000+00:00</time></trkpt><trkpt lat="38.96460333" lon="-0.50311343"><ele>201.6</ele><time>2022-11-13T16:03:02.0000000+00:00</time></trkpt><trkpt lat="38.96460115" lon="-0.50312592"><ele>201.8</ele><time>2022-11-13T16:03:03.0000000+00:00</time></trkpt><trkpt lat="38.96459771" lon="-0.50313665"><ele>201.8</ele><time>2022-11-13T16:03:04.0000000+00:00</time></trkpt><trkpt lat="38.96459495" lon="-0.50314712"><ele>202.0</ele><time>2022-11-13T16:03:05.0000000+00:00</time></trkpt><trkpt lat="38.96459051" lon="-0.50315676"><ele>202.0</ele><time>2022-11-13T16:03:06.0000000+00:00</time></trkpt><trkpt lat="38.96459084" lon="-0.5031716"><ele>202.0</ele><time>2022-11-13T16:03:07.0000000+00:00</time></trkpt><trkpt lat="38.96459486" lon="-0.50318375"><ele>202.0</ele><time>2022-11-13T16:03:08.0000000+00:00</time></trkpt><trkpt lat="38.96459729" lon="-0.5031897"><ele>202.2</ele><time>2022-11-13T16:03:09.0000000+00:00</time></trkpt><trkpt lat="38.96460216" lon="-0.50319566"><ele>202.2</ele><time>2022-11-13T16:03:10.0000000+00:00</time></trkpt><trkpt lat="38.96460366" lon="-0.50320529"><ele>202.2</ele><time>2022-11-13T16:03:11.0000000+00:00</time></trkpt><trkpt lat="38.9646066" lon="-0.5032146"><ele>202.4</ele><time>2022-11-13T16:03:12.0000000+00:00</time></trkpt><trkpt lat="38.96460777" lon="-0.50322692"><ele>202.4</ele><time>2022-11-13T16:03:13.0000000+00:00</time></trkpt><trkpt lat="38.96461146" lon="-0.50323907"><ele>202.6</ele><time>2022-11-13T16:03:14.0000000+00:00</time></trkpt><trkpt lat="38.96461138" lon="-0.50325014"><ele>202.6</ele><time>2022-11-13T16:03:15.0000000+00:00</time></trkpt><trkpt lat="38.96461548" lon="-0.50325927"><ele>202.6</ele><time>2022-11-13T16:03:16.0000000+00:00</time></trkpt><trkpt lat="38.96461833" lon="-0.50327059"><ele>202.6</ele><time>2022-11-13T16:03:17.0000000+00:00</time></trkpt><trkpt lat="38.96461397" lon="-0.50328308"><ele>202.6</ele><time>2022-11-13T16:03:18.0000000+00:00</time></trkpt><trkpt lat="38.96461029" lon="-0.50329439"><ele>202.6</ele><time>2022-11-13T16:03:19.0000000+00:00</time></trkpt><trkpt lat="38.96461045" lon="-0.5033078"><ele>202.6</ele><time>2022-11-13T16:03:20.0000000+00:00</time></trkpt><trkpt lat="38.96460601" lon="-0.50331879"><ele>202.6</ele><time>2022-11-13T16:03:21.0000000+00:00</time></trkpt><trkpt lat="38.96460425" lon="-0.50333094"><ele>202.6</ele><time>2022-11-13T16:03:22.0000000+00:00</time></trkpt><trkpt lat="38.96462001" lon="-0.5033472"><ele>202.6</ele><time>2022-11-13T16:03:23.0000000+00:00</time></trkpt><trkpt lat="38.96463275" lon="-0.50335039"><ele>202.4</ele><time>2022-11-13T16:03:24.0000000+00:00</time></trkpt><trkpt lat="38.96463443" lon="-0.50336028"><ele>202.4</ele><time>2022-11-13T16:03:25.0000000+00:00</time></trkpt><trkpt lat="38.96462998" lon="-0.50337268"><ele>202.4</ele><time>2022-11-13T16:03:26.0000000+00:00</time></trkpt><trkpt lat="38.9646299" lon="-0.50338475"><ele>202.4</ele><time>2022-11-13T16:03:27.0000000+00:00</time></trkpt><trkpt lat="38.96462755" lon="-0.50339808"><ele>202.4</ele><time>2022-11-13T16:03:28.0000000+00:00</time></trkpt><trkpt lat="38.96462412" lon="-0.50340403"><ele>202.4</ele><time>2022-11-13T16:03:29.0000000+00:00</time></trkpt><trkpt lat="38.9646216" lon="-0.50341308"><ele>202.2</ele><time>2022-11-13T16:03:30.0000000+00:00</time></trkpt><trkpt lat="38.96462185" lon="-0.50341694"><ele>202.2</ele><time>2022-11-13T16:03:31.0000000+00:00</time></trkpt><trkpt lat="38.96462034" lon="-0.50342255"><ele>202.2</ele><time>2022-11-13T16:03:32.0000000+00:00</time></trkpt><trkpt lat="38.96461548" lon="-0.50342674"><ele>202.2</ele><time>2022-11-13T16:03:33.0000000+00:00</time></trkpt><trkpt lat="38.96461356" lon="-0.50343001"><ele>202.2</ele><time>2022-11-13T16:03:34.0000000+00:00</time></trkpt><trkpt lat="38.96461465" lon="-0.50343446"><ele>202.2</ele><time>2022-11-13T16:03:35.0000000+00:00</time></trkpt><trkpt lat="38.96461674" lon="-0.5034384"><ele>202.0</ele><time>2022-11-13T16:03:36.0000000+00:00</time></trkpt><trkpt lat="38.96461381" lon="-0.50344594"><ele>202.0</ele><time>2022-11-13T16:03:37.0000000+00:00</time></trkpt><trkpt lat="38.96460752" lon="-0.50345717"><ele>202.0</ele><time>2022-11-13T16:03:38.0000000+00:00</time></trkpt><trkpt lat="38.96460224" lon="-0.50346606"><ele>201.8</ele><time>2022-11-13T16:03:39.0000000+00:00</time></trkpt><trkpt lat="38.96459847" lon="-0.50347737"><ele>201.8</ele><time>2022-11-13T16:03:40.0000000+00:00</time></trkpt><trkpt lat="38.96459377" lon="-0.50348701"><ele>201.6</ele><time>2022-11-13T16:03:41.0000000+00:00</time></trkpt><trkpt lat="38.96459017" lon="-0.50349422"><ele>201.4</ele><time>2022-11-13T16:03:42.0000000+00:00</time></trkpt><trkpt lat="38.96458564" lon="-0.50350235"><ele>201.4</ele><time>2022-11-13T16:03:43.0000000+00:00</time></trkpt><trkpt lat="38.96457827" lon="-0.50351274"><ele>201.2</ele><time>2022-11-13T16:03:44.0000000+00:00</time></trkpt><trkpt lat="38.96457366" lon="-0.50351844"><ele>201.2</ele><time>2022-11-13T16:03:45.0000000+00:00</time></trkpt><trkpt lat="38.96456838" lon="-0.50352272"><ele>201.0</ele><time>2022-11-13T16:03:46.0000000+00:00</time></trkpt><trkpt lat="38.96456561" lon="-0.5035249"><ele>201.0</ele><time>2022-11-13T16:03:47.0000000+00:00</time></trkpt><trkpt lat="38.96456301" lon="-0.50352473"><ele>201.0</ele><time>2022-11-13T16:03:48.0000000+00:00</time></trkpt><trkpt lat="38.96455983" lon="-0.50352263"><ele>200.8</ele><time>2022-11-13T16:03:49.0000000+00:00</time></trkpt><trkpt lat="38.96455698" lon="-0.50352272"><ele>200.8</ele><time>2022-11-13T16:03:50.0000000+00:00</time></trkpt><trkpt lat="38.96455589" lon="-0.50352724"><ele>200.6</ele><time>2022-11-13T16:03:51.0000000+00:00</time></trkpt><trkpt lat="38.96455354" lon="-0.50353739"><ele>200.4</ele><time>2022-11-13T16:03:52.0000000+00:00</time></trkpt><trkpt lat="38.96455203" lon="-0.50354417"><ele>200.2</ele><time>2022-11-13T16:03:53.0000000+00:00</time></trkpt><trkpt lat="38.96455178" lon="-0.50354962"><ele>200.0</ele><time>2022-11-13T16:03:54.0000000+00:00</time></trkpt><trkpt lat="38.96455262" lon="-0.50355289"><ele>199.8</ele><time>2022-11-13T16:03:55.0000000+00:00</time></trkpt><trkpt lat="38.9645584" lon="-0.50356111"><ele>199.8</ele><time>2022-11-13T16:03:56.0000000+00:00</time></trkpt><trkpt lat="38.96455706" lon="-0.50356999"><ele>199.6</ele><time>2022-11-13T16:03:57.0000000+00:00</time></trkpt><trkpt lat="38.96455337" lon="-0.50358248"><ele>199.4</ele><time>2022-11-13T16:03:58.0000000+00:00</time></trkpt><trkpt lat="38.96455036" lon="-0.50359648"><ele>199.4</ele><time>2022-11-13T16:03:59.0000000+00:00</time></trkpt><trkpt lat="38.96454943" lon="-0.50360771"><ele>199.2</ele><time>2022-11-13T16:04:00.0000000+00:00</time></trkpt><trkpt lat="38.96455119" lon="-0.50361928"><ele>199.0</ele><time>2022-11-13T16:04:01.0000000+00:00</time></trkpt><trkpt lat="38.96455036" lon="-0.50362959"><ele>198.8</ele><time>2022-11-13T16:04:02.0000000+00:00</time></trkpt><trkpt lat="38.96454868" lon="-0.503643"><ele>198.8</ele><time>2022-11-13T16:04:03.0000000+00:00</time></trkpt><trkpt lat="38.96454508" lon="-0.50365213"><ele>198.6</ele><time>2022-11-13T16:04:04.0000000+00:00</time></trkpt><trkpt lat="38.9645439" lon="-0.5036601"><ele>198.6</ele><time>2022-11-13T16:04:05.0000000+00:00</time></trkpt><trkpt lat="38.96454306" lon="-0.50366764"><ele>198.4</ele><time>2022-11-13T16:04:06.0000000+00:00</time></trkpt><trkpt lat="38.96453996" lon="-0.50367502"><ele>198.4</ele><time>2022-11-13T16:04:07.0000000+00:00</time></trkpt><trkpt lat="38.96453812" lon="-0.50368189"><ele>198.2</ele><time>2022-11-13T16:04:08.0000000+00:00</time></trkpt><trkpt lat="38.9645346" lon="-0.5036865"><ele>198.2</ele><time>2022-11-13T16:04:09.0000000+00:00</time></trkpt><trkpt lat="38.96453275" lon="-0.50368968"><ele>198.0</ele><time>2022-11-13T16:04:10.0000000+00:00</time></trkpt><trkpt lat="38.96452806" lon="-0.50369488"><ele>197.8</ele><time>2022-11-13T16:04:11.0000000+00:00</time></trkpt><trkpt lat="38.96452161" lon="-0.50370326"><ele>197.6</ele><time>2022-11-13T16:04:12.0000000+00:00</time></trkpt><trkpt lat="38.96451817" lon="-0.50371123"><ele>197.4</ele><time>2022-11-13T16:04:13.0000000+00:00</time></trkpt><trkpt lat="38.96451281" lon="-0.50372011"><ele>197.4</ele><time>2022-11-13T16:04:14.0000000+00:00</time></trkpt><trkpt lat="38.96450476" lon="-0.50372841"><ele>197.4</ele><time>2022-11-13T16:04:15.0000000+00:00</time></trkpt><trkpt lat="38.96449856" lon="-0.50373838"><ele>197.2</ele><time>2022-11-13T16:04:16.0000000+00:00</time></trkpt><trkpt lat="38.96449101" lon="-0.50374702"><ele>197.0</ele><time>2022-11-13T16:04:17.0000000+00:00</time></trkpt><trkpt lat="38.96448615" lon="-0.50375414"><ele>197.0</ele><time>2022-11-13T16:04:18.0000000+00:00</time></trkpt><trkpt lat="38.96448355" lon="-0.50376378"><ele>196.8</ele><time>2022-11-13T16:04:19.0000000+00:00</time></trkpt><trkpt lat="38.96448431" lon="-0.50377526"><ele>196.6</ele><time>2022-11-13T16:04:20.0000000+00:00</time></trkpt><trkpt lat="38.96448162" lon="-0.50378691"><ele>196.4</ele><time>2022-11-13T16:04:21.0000000+00:00</time></trkpt><trkpt lat="38.96447986" lon="-0.50379387"><ele>196.2</ele><time>2022-11-13T16:04:22.0000000+00:00</time></trkpt><trkpt lat="38.96447391" lon="-0.50380343"><ele>196.2</ele><time>2022-11-13T16:04:23.0000000+00:00</time></trkpt><trkpt lat="38.9644724" lon="-0.50380929"><ele>195.8</ele><time>2022-11-13T16:04:24.0000000+00:00</time></trkpt><trkpt lat="38.96447123" lon="-0.50381608"><ele>195.8</ele><time>2022-11-13T16:04:25.0000000+00:00</time></trkpt><trkpt lat="38.96446997" lon="-0.50381994"><ele>195.6</ele><time>2022-11-13T16:04:26.0000000+00:00</time></trkpt><trkpt lat="38.9644724" lon="-0.50382413"><ele>195.6</ele><time>2022-11-13T16:04:27.0000000+00:00</time></trkpt><trkpt lat="38.96447266" lon="-0.50382891"><ele>195.4</ele><time>2022-11-13T16:04:28.0000000+00:00</time></trkpt><trkpt lat="38.96446905" lon="-0.50383687"><ele>195.2</ele><time>2022-11-13T16:04:29.0000000+00:00</time></trkpt><trkpt lat="38.96446779" lon="-0.50384232"><ele>195.0</ele><time>2022-11-13T16:04:30.0000000+00:00</time></trkpt><trkpt lat="38.96446151" lon="-0.50385213"><ele>194.8</ele><time>2022-11-13T16:04:31.0000000+00:00</time></trkpt><trkpt lat="38.96445841" lon="-0.50385925"><ele>194.8</ele><time>2022-11-13T16:04:32.0000000+00:00</time></trkpt><trkpt lat="38.96445438" lon="-0.50386746"><ele>194.6</ele><time>2022-11-13T16:04:33.0000000+00:00</time></trkpt><trkpt lat="38.96444332" lon="-0.50387082"><ele>194.6</ele><time>2022-11-13T16:04:34.0000000+00:00</time></trkpt><trkpt lat="38.96442865" lon="-0.50387107"><ele>194.4</ele><time>2022-11-13T16:04:35.0000000+00:00</time></trkpt><trkpt lat="38.96442496" lon="-0.50387191"><ele>194.4</ele><time>2022-11-13T16:04:36.0000000+00:00</time></trkpt><trkpt lat="38.96442094" lon="-0.50387534"><ele>194.2</ele><time>2022-11-13T16:04:37.0000000+00:00</time></trkpt><trkpt lat="38.96441817" lon="-0.5038771"><ele>194.2</ele><time>2022-11-13T16:04:38.0000000+00:00</time></trkpt><trkpt lat="38.96441138" lon="-0.50388213"><ele>194.0</ele><time>2022-11-13T16:04:39.0000000+00:00</time></trkpt><trkpt lat="38.96440812" lon="-0.5038906"><ele>193.8</ele><time>2022-11-13T16:04:40.0000000+00:00</time></trkpt><trkpt lat="38.96440552" lon="-0.50389462"><ele>193.6</ele><time>2022-11-13T16:04:41.0000000+00:00</time></trkpt><trkpt lat="38.96441616" lon="-0.50389999"><ele>193.4</ele><time>2022-11-13T16:04:42.0000000+00:00</time></trkpt><trkpt lat="38.96441725" lon="-0.50390175"><ele>193.4</ele><time>2022-11-13T16:04:43.0000000+00:00</time></trkpt><trkpt lat="38.9644149" lon="-0.50390703"><ele>193.0</ele><time>2022-11-13T16:04:44.0000000+00:00</time></trkpt><trkpt lat="38.96441147" lon="-0.50391809"><ele>192.8</ele><time>2022-11-13T16:04:45.0000000+00:00</time></trkpt><trkpt lat="38.96440912" lon="-0.5039253"><ele>192.6</ele><time>2022-11-13T16:04:46.0000000+00:00</time></trkpt><trkpt lat="38.96439998" lon="-0.50393201"><ele>192.6</ele><time>2022-11-13T16:04:47.0000000+00:00</time></trkpt><trkpt lat="38.96439529" lon="-0.50394181"><ele>192.4</ele><time>2022-11-13T16:04:48.0000000+00:00</time></trkpt><trkpt lat="38.96438976" lon="-0.50394701"><ele>192.2</ele><time>2022-11-13T16:04:49.0000000+00:00</time></trkpt><trkpt lat="38.96438716" lon="-0.50395187"><ele>192.0</ele><time>2022-11-13T16:04:50.0000000+00:00</time></trkpt><trkpt lat="38.96438615" lon="-0.50395891"><ele>192.0</ele><time>2022-11-13T16:04:51.0000000+00:00</time></trkpt><trkpt lat="38.96438297" lon="-0.50396461"><ele>191.8</ele><time>2022-11-13T16:04:52.0000000+00:00</time></trkpt><trkpt lat="38.9643761" lon="-0.50397039"><ele>191.6</ele><time>2022-11-13T16:04:53.0000000+00:00</time></trkpt><trkpt lat="38.9643709" lon="-0.50397517"><ele>191.4</ele><time>2022-11-13T16:04:54.0000000+00:00</time></trkpt><trkpt lat="38.96436629" lon="-0.50398305"><ele>191.2</ele><time>2022-11-13T16:04:55.0000000+00:00</time></trkpt><trkpt lat="38.96436201" lon="-0.50398674"><ele>191.0</ele><time>2022-11-13T16:04:56.0000000+00:00</time></trkpt><trkpt lat="38.9643595" lon="-0.50398951"><ele>191.0</ele><time>2022-11-13T16:04:57.0000000+00:00</time></trkpt><trkpt lat="38.96435707" lon="-0.50399194"><ele>190.8</ele><time>2022-11-13T16:04:58.0000000+00:00</time></trkpt><trkpt lat="38.96435279" lon="-0.50399344"><ele>190.6</ele><time>2022-11-13T16:04:59.0000000+00:00</time></trkpt><trkpt lat="38.96434869" lon="-0.50399562"><ele>190.4</ele><time>2022-11-13T16:05:00.0000000+00:00</time></trkpt><trkpt lat="38.96434584" lon="-0.50400225"><ele>190.2</ele><time>2022-11-13T16:05:01.0000000+00:00</time></trkpt><trkpt lat="38.96434324" lon="-0.50400551"><ele>190.0</ele><time>2022-11-13T16:05:02.0000000+00:00</time></trkpt><trkpt lat="38.9643398" lon="-0.50400878"><ele>189.8</ele><time>2022-11-13T16:05:03.0000000+00:00</time></trkpt><trkpt lat="38.96433603" lon="-0.50401809"><ele>189.8</ele><time>2022-11-13T16:05:04.0000000+00:00</time></trkpt><trkpt lat="38.96433285" lon="-0.50402421"><ele>189.6</ele><time>2022-11-13T16:05:05.0000000+00:00</time></trkpt><trkpt lat="38.96432748" lon="-0.50403418"><ele>189.6</ele><time>2022-11-13T16:05:06.0000000+00:00</time></trkpt><trkpt lat="38.96432086" lon="-0.50404047"><ele>189.4</ele><time>2022-11-13T16:05:07.0000000+00:00</time></trkpt><trkpt lat="38.96431516" lon="-0.50404214"><ele>189.2</ele><time>2022-11-13T16:05:08.0000000+00:00</time></trkpt><trkpt lat="38.96430577" lon="-0.50404675"><ele>189.0</ele><time>2022-11-13T16:05:09.0000000+00:00</time></trkpt><trkpt lat="38.96430058" lon="-0.50405136"><ele>189.0</ele><time>2022-11-13T16:05:10.0000000+00:00</time></trkpt><trkpt lat="38.96429546" lon="-0.50405966"><ele>188.8</ele><time>2022-11-13T16:05:11.0000000+00:00</time></trkpt><trkpt lat="38.96429136" lon="-0.50406838"><ele>188.6</ele><time>2022-11-13T16:05:12.0000000+00:00</time></trkpt><trkpt lat="38.96428767" lon="-0.50407399"><ele>188.2</ele><time>2022-11-13T16:05:13.0000000+00:00</time></trkpt><trkpt lat="38.96428482" lon="-0.50408506"><ele>188.2</ele><time>2022-11-13T16:05:14.0000000+00:00</time></trkpt><trkpt lat="38.96428482" lon="-0.50409042"><ele>188.0</ele><time>2022-11-13T16:05:15.0000000+00:00</time></trkpt><trkpt lat="38.96427979" lon="-0.50409478"><ele>187.8</ele><time>2022-11-13T16:05:16.0000000+00:00</time></trkpt><trkpt lat="38.96427769" lon="-0.50410484"><ele>187.8</ele><time>2022-11-13T16:05:17.0000000+00:00</time></trkpt><trkpt lat="38.96427568" lon="-0.50411071"><ele>187.4</ele><time>2022-11-13T16:05:18.0000000+00:00</time></trkpt><trkpt lat="38.96427157" lon="-0.50411624"><ele>187.4</ele><time>2022-11-13T16:05:19.0000000+00:00</time></trkpt><trkpt lat="38.96426839" lon="-0.50411725"><ele>187.2</ele><time>2022-11-13T16:05:20.0000000+00:00</time></trkpt><trkpt lat="38.96426411" lon="-0.50412378"><ele>187.2</ele><time>2022-11-13T16:05:21.0000000+00:00</time></trkpt><trkpt lat="38.9642616" lon="-0.50412823"><ele>187.0</ele><time>2022-11-13T16:05:22.0000000+00:00</time></trkpt><trkpt lat="38.96426043" lon="-0.50413535"><ele>187.0</ele><time>2022-11-13T16:05:23.0000000+00:00</time></trkpt><trkpt lat="38.96425841" lon="-0.50414633"><ele>186.8</ele><time>2022-11-13T16:05:24.0000000+00:00</time></trkpt><trkpt lat="38.96425481" lon="-0.50415522"><ele>186.6</ele><time>2022-11-13T16:05:25.0000000+00:00</time></trkpt><trkpt lat="38.96425204" lon="-0.50416276"><ele>186.4</ele><time>2022-11-13T16:05:26.0000000+00:00</time></trkpt><trkpt lat="38.96424961" lon="-0.50416921"><ele>186.4</ele><time>2022-11-13T16:05:27.0000000+00:00</time></trkpt><trkpt lat="38.96424685" lon="-0.50417969"><ele>186.2</ele><time>2022-11-13T16:05:28.0000000+00:00</time></trkpt><trkpt lat="38.96424534" lon="-0.50418606"><ele>186.2</ele><time>2022-11-13T16:05:29.0000000+00:00</time></trkpt><trkpt lat="38.96424643" lon="-0.50419377"><ele>186.0</ele><time>2022-11-13T16:05:30.0000000+00:00</time></trkpt><trkpt lat="38.96424936" lon="-0.50420199"><ele>185.8</ele><time>2022-11-13T16:05:31.0000000+00:00</time></trkpt><trkpt lat="38.96425347" lon="-0.50420919"><ele>185.6</ele><time>2022-11-13T16:05:32.0000000+00:00</time></trkpt><trkpt lat="38.96425422" lon="-0.50421364"><ele>185.6</ele><time>2022-11-13T16:05:33.0000000+00:00</time></trkpt><trkpt lat="38.96425473" lon="-0.50421741"><ele>185.4</ele><time>2022-11-13T16:05:34.0000000+00:00</time></trkpt><trkpt lat="38.96425389" lon="-0.5042195"><ele>185.4</ele><time>2022-11-13T16:05:35.0000000+00:00</time></trkpt><trkpt lat="38.96425347" lon="-0.50422487"><ele>185.2</ele><time>2022-11-13T16:05:36.0000000+00:00</time></trkpt><trkpt lat="38.96425196" lon="-0.50422621"><ele>185.0</ele><time>2022-11-13T16:05:37.0000000+00:00</time></trkpt><trkpt lat="38.96424869" lon="-0.50423082"><ele>185.0</ele><time>2022-11-13T16:05:38.0000000+00:00</time></trkpt><trkpt lat="38.96424517" lon="-0.50423476"><ele>184.8</ele><time>2022-11-13T16:05:39.0000000+00:00</time></trkpt><trkpt lat="38.96424475" lon="-0.50423744"><ele>184.6</ele><time>2022-11-13T16:05:40.0000000+00:00</time></trkpt><trkpt lat="38.96424182" lon="-0.50424247"><ele>184.4</ele><time>2022-11-13T16:05:41.0000000+00:00</time></trkpt><trkpt lat="38.9642414" lon="-0.50424809"><ele>184.2</ele><time>2022-11-13T16:05:42.0000000+00:00</time></trkpt><trkpt lat="38.96424433" lon="-0.50425228"><ele>184.2</ele><time>2022-11-13T16:05:43.0000000+00:00</time></trkpt><trkpt lat="38.96424534" lon="-0.504262"><ele>184.2</ele><time>2022-11-13T16:05:44.0000000+00:00</time></trkpt><trkpt lat="38.96424978" lon="-0.50427097"><ele>184.0</ele><time>2022-11-13T16:05:45.0000000+00:00</time></trkpt><trkpt lat="38.96424844" lon="-0.5042739"><ele>184.0</ele><time>2022-11-13T16:05:46.0000000+00:00</time></trkpt><trkpt lat="38.96424743" lon="-0.50427558"><ele>184.0</ele><time>2022-11-13T16:05:47.0000000+00:00</time></trkpt><trkpt lat="38.96424685" lon="-0.50427726"><ele>183.8</ele><time>2022-11-13T16:05:48.0000000+00:00</time></trkpt><trkpt lat="38.96424634" lon="-0.50427977"><ele>183.6</ele><time>2022-11-13T16:05:49.0000000+00:00</time></trkpt><trkpt lat="38.96424391" lon="-0.50428245"><ele>183.6</ele><time>2022-11-13T16:05:50.0000000+00:00</time></trkpt><trkpt lat="38.96424375" lon="-0.5042848"><ele>183.6</ele><time>2022-11-13T16:05:51.0000000+00:00</time></trkpt><trkpt lat="38.96425649" lon="-0.50429125"><ele>183.4</ele><time>2022-11-13T16:05:52.0000000+00:00</time></trkpt><trkpt lat="38.96424534" lon="-0.50429327"><ele>183.4</ele><time>2022-11-13T16:05:53.0000000+00:00</time></trkpt><trkpt lat="38.96424509" lon="-0.50429402"><ele>183.2</ele><time>2022-11-13T16:05:54.0000000+00:00</time></trkpt><trkpt lat="38.96423612" lon="-0.50429762"><ele>183.0</ele><time>2022-11-13T16:05:55.0000000+00:00</time></trkpt><trkpt lat="38.96422899" lon="-0.50430466"><ele>182.8</ele><time>2022-11-13T16:05:56.0000000+00:00</time></trkpt><trkpt lat="38.96422329" lon="-0.50431347"><ele>182.8</ele><time>2022-11-13T16:05:57.0000000+00:00</time></trkpt><trkpt lat="38.96422036" lon="-0.50431766"><ele>182.6</ele><time>2022-11-13T16:05:58.0000000+00:00</time></trkpt><trkpt lat="38.9642181" lon="-0.50432797"><ele>182.4</ele><time>2022-11-13T16:05:59.0000000+00:00</time></trkpt><trkpt lat="38.96421801" lon="-0.50433702"><ele>182.2</ele><time>2022-11-13T16:06:00.0000000+00:00</time></trkpt><trkpt lat="38.96422011" lon="-0.5043423"><ele>182.0</ele><time>2022-11-13T16:06:01.0000000+00:00</time></trkpt><trkpt lat="38.96422195" lon="-0.50434724"><ele>182.0</ele><time>2022-11-13T16:06:02.0000000+00:00</time></trkpt><trkpt lat="38.9642274" lon="-0.50435269"><ele>181.8</ele><time>2022-11-13T16:06:03.0000000+00:00</time></trkpt><trkpt lat="38.96422925" lon="-0.50436149"><ele>181.6</ele><time>2022-11-13T16:06:04.0000000+00:00</time></trkpt><trkpt lat="38.96422992" lon="-0.5043687"><ele>181.4</ele><time>2022-11-13T16:06:05.0000000+00:00</time></trkpt><trkpt lat="38.96422933" lon="-0.50437273"><ele>181.4</ele><time>2022-11-13T16:06:06.0000000+00:00</time></trkpt><trkpt lat="38.96422958" lon="-0.50438077"><ele>181.4</ele><time>2022-11-13T16:06:07.0000000+00:00</time></trkpt><trkpt lat="38.96422723" lon="-0.50438689"><ele>181.2</ele><time>2022-11-13T16:06:08.0000000+00:00</time></trkpt><trkpt lat="38.96422346" lon="-0.50439536"><ele>181.0</ele><time>2022-11-13T16:06:09.0000000+00:00</time></trkpt><trkpt lat="38.96422296" lon="-0.50439997"><ele>181.0</ele><time>2022-11-13T16:06:10.0000000+00:00</time></trkpt><trkpt lat="38.96422698" lon="-0.50439846"><ele>181.0</ele><time>2022-11-13T16:06:11.0000000+00:00</time></trkpt><trkpt lat="38.96423235" lon="-0.50440114"><ele>180.8</ele><time>2022-11-13T16:06:12.0000000+00:00</time></trkpt><trkpt lat="38.96423394" lon="-0.50440407"><ele>180.6</ele><time>2022-11-13T16:06:13.0000000+00:00</time></trkpt><trkpt lat="38.96423637" lon="-0.50440642"><ele>180.6</ele><time>2022-11-13T16:06:14.0000000+00:00</time></trkpt><trkpt lat="38.96424039" lon="-0.50441086"><ele>180.4</ele><time>2022-11-13T16:06:15.0000000+00:00</time></trkpt><trkpt lat="38.96424584" lon="-0.50441103"><ele>180.4</ele><time>2022-11-13T16:06:16.0000000+00:00</time></trkpt><trkpt lat="38.96424819" lon="-0.50441003"><ele>180.2</ele><time>2022-11-13T16:06:17.0000000+00:00</time></trkpt><trkpt lat="38.96425079" lon="-0.50440944"><ele>180.2</ele><time>2022-11-13T16:06:18.0000000+00:00</time></trkpt><trkpt lat="38.9642595" lon="-0.50440726"><ele>180.2</ele><time>2022-11-13T16:06:19.0000000+00:00</time></trkpt><trkpt lat="38.96426269" lon="-0.50440609"><ele>180.2</ele><time>2022-11-13T16:06:20.0000000+00:00</time></trkpt><trkpt lat="38.96426713" lon="-0.50440617"><ele>180.0</ele><time>2022-11-13T16:06:21.0000000+00:00</time></trkpt><trkpt lat="38.96427065" lon="-0.50440709"><ele>179.8</ele><time>2022-11-13T16:06:22.0000000+00:00</time></trkpt><trkpt lat="38.96427526" lon="-0.50439871"><ele>179.6</ele><time>2022-11-13T16:06:23.0000000+00:00</time></trkpt><trkpt lat="38.96427954" lon="-0.50439988"><ele>179.6</ele><time>2022-11-13T16:06:24.0000000+00:00</time></trkpt><trkpt lat="38.96428306" lon="-0.50440072"><ele>179.4</ele><time>2022-11-13T16:06:25.0000000+00:00</time></trkpt><trkpt lat="38.96428943" lon="-0.50440223"><ele>179.4</ele><time>2022-11-13T16:06:26.0000000+00:00</time></trkpt><trkpt lat="38.96429211" lon="-0.5044034"><ele>179.4</ele><time>2022-11-13T16:06:27.0000000+00:00</time></trkpt><trkpt lat="38.96429546" lon="-0.50440298"><ele>179.4</ele><time>2022-11-13T16:06:28.0000000+00:00</time></trkpt><trkpt lat="38.96429974" lon="-0.50440257"><ele>179.2</ele><time>2022-11-13T16:06:29.0000000+00:00</time></trkpt><trkpt lat="38.96430217" lon="-0.50440315"><ele>179.2</ele><time>2022-11-13T16:06:30.0000000+00:00</time></trkpt><trkpt lat="38.96430401" lon="-0.50440164"><ele>179.2</ele><time>2022-11-13T16:06:31.0000000+00:00</time></trkpt><trkpt lat="38.9643134" lon="-0.5043967"><ele>179.0</ele><time>2022-11-13T16:06:32.0000000+00:00</time></trkpt><trkpt lat="38.96431575" lon="-0.5043967"><ele>179.0</ele><time>2022-11-13T16:06:33.0000000+00:00</time></trkpt><trkpt lat="38.96431633" lon="-0.50439863"><ele>179.0</ele><time>2022-11-13T16:06:34.0000000+00:00</time></trkpt><trkpt lat="38.96431717" lon="-0.50440022"><ele>179.0</ele><time>2022-11-13T16:06:35.0000000+00:00</time></trkpt><trkpt lat="38.96431826" lon="-0.50440022"><ele>179.0</ele><time>2022-11-13T16:06:36.0000000+00:00</time></trkpt><trkpt lat="38.96431801" lon="-0.50440223"><ele>178.8</ele><time>2022-11-13T16:06:37.0000000+00:00</time></trkpt><trkpt lat="38.96431818" lon="-0.50440407"><ele>178.8</ele><time>2022-11-13T16:06:38.0000000+00:00</time></trkpt><trkpt lat="38.96432103" lon="-0.50440684"><ele>178.8</ele><time>2022-11-13T16:06:39.0000000+00:00</time></trkpt><trkpt lat="38.9643222" lon="-0.50440902"><ele>178.6</ele><time>2022-11-13T16:06:40.0000000+00:00</time></trkpt><trkpt lat="38.96432505" lon="-0.50440894"><ele>178.6</ele><time>2022-11-13T16:06:41.0000000+00:00</time></trkpt><trkpt lat="38.96432597" lon="-0.5044086"><ele>178.4</ele><time>2022-11-13T16:06:42.0000000+00:00</time></trkpt><trkpt lat="38.96432522" lon="-0.50440709"><ele>178.2</ele><time>2022-11-13T16:06:43.0000000+00:00</time></trkpt><trkpt lat="38.96432539" lon="-0.50440667"><ele>178.0</ele><time>2022-11-13T16:06:44.0000000+00:00</time></trkpt><trkpt lat="38.96432673" lon="-0.50440458"><ele>178.0</ele><time>2022-11-13T16:06:45.0000000+00:00</time></trkpt><trkpt lat="38.96433159" lon="-0.50440248"><ele>178.0</ele><time>2022-11-13T16:06:46.0000000+00:00</time></trkpt><trkpt lat="38.9643331" lon="-0.50440064"><ele>177.8</ele><time>2022-11-13T16:06:47.0000000+00:00</time></trkpt><trkpt lat="38.96433729" lon="-0.50440013"><ele>177.6</ele><time>2022-11-13T16:06:48.0000000+00:00</time></trkpt><trkpt lat="38.96433536" lon="-0.50440055"><ele>177.4</ele><time>2022-11-13T16:06:49.0000000+00:00</time></trkpt><trkpt lat="38.96433704" lon="-0.50440156"><ele>177.4</ele><time>2022-11-13T16:06:50.0000000+00:00</time></trkpt><trkpt lat="38.96434827" lon="-0.50440223"><ele>177.2</ele><time>2022-11-13T16:06:51.0000000+00:00</time></trkpt><trkpt lat="38.96435045" lon="-0.50440592"><ele>177.0</ele><time>2022-11-13T16:06:52.0000000+00:00</time></trkpt><trkpt lat="38.96435497" lon="-0.50440768"><ele>176.8</ele><time>2022-11-13T16:06:53.0000000+00:00</time></trkpt><trkpt lat="38.96435749" lon="-0.50441036"><ele>176.6</ele><time>2022-11-13T16:06:54.0000000+00:00</time></trkpt><trkpt lat="38.96436227" lon="-0.50441497"><ele>176.4</ele><time>2022-11-13T16:06:55.0000000+00:00</time></trkpt><trkpt lat="38.96436436" lon="-0.50441958"><ele>176.4</ele><time>2022-11-13T16:06:56.0000000+00:00</time></trkpt><trkpt lat="38.96437165" lon="-0.50442394"><ele>176.2</ele><time>2022-11-13T16:06:57.0000000+00:00</time></trkpt><trkpt lat="38.96437358" lon="-0.50442729"><ele>176.0</ele><time>2022-11-13T16:06:58.0000000+00:00</time></trkpt><trkpt lat="38.96438532" lon="-0.50442897"><ele>175.8</ele><time>2022-11-13T16:06:59.0000000+00:00</time></trkpt><trkpt lat="38.96439068" lon="-0.50442754"><ele>175.6</ele><time>2022-11-13T16:07:00.0000000+00:00</time></trkpt><trkpt lat="38.96439294" lon="-0.50442679"><ele>175.6</ele><time>2022-11-13T16:07:01.0000000+00:00</time></trkpt><trkpt lat="38.96439646" lon="-0.50442897"><ele>175.4</ele><time>2022-11-13T16:07:02.0000000+00:00</time></trkpt><trkpt lat="38.96439747" lon="-0.50443148"><ele>175.4</ele><time>2022-11-13T16:07:03.0000000+00:00</time></trkpt><trkpt lat="38.96440149" lon="-0.50443576"><ele>175.2</ele><time>2022-11-13T16:07:04.0000000+00:00</time></trkpt><trkpt lat="38.96440711" lon="-0.50443752"><ele>175.2</ele><time>2022-11-13T16:07:05.0000000+00:00</time></trkpt><trkpt lat="38.96440954" lon="-0.50444322"><ele>175.0</ele><time>2022-11-13T16:07:06.0000000+00:00</time></trkpt><trkpt lat="38.96441021" lon="-0.50444372"><ele>174.8</ele><time>2022-11-13T16:07:07.0000000+00:00</time></trkpt><trkpt lat="38.96440937" lon="-0.50444246"><ele>174.8</ele><time>2022-11-13T16:07:08.0000000+00:00</time></trkpt><trkpt lat="38.96440451" lon="-0.50444163"><ele>174.6</ele><time>2022-11-13T16:07:09.0000000+00:00</time></trkpt><trkpt lat="38.96439831" lon="-0.5044454"><ele>174.4</ele><time>2022-11-13T16:07:10.0000000+00:00</time></trkpt><trkpt lat="38.96439487" lon="-0.50445403"><ele>174.4</ele><time>2022-11-13T16:07:11.0000000+00:00</time></trkpt><trkpt lat="38.96439638" lon="-0.50446199"><ele>174.2</ele><time>2022-11-13T16:07:12.0000000+00:00</time></trkpt><trkpt lat="38.96440158" lon="-0.50446719"><ele>174.0</ele><time>2022-11-13T16:07:13.0000000+00:00</time></trkpt><trkpt lat="38.96440116" lon="-0.50447079"><ele>174.0</ele><time>2022-11-13T16:07:14.0000000+00:00</time></trkpt><trkpt lat="38.96440074" lon="-0.50447633"><ele>173.8</ele><time>2022-11-13T16:07:15.0000000+00:00</time></trkpt><trkpt lat="38.96441633" lon="-0.50447817"><ele>173.6</ele><time>2022-11-13T16:07:16.0000000+00:00</time></trkpt><trkpt lat="38.96442982" lon="-0.50448203"><ele>173.4</ele><time>2022-11-13T16:07:17.0000000+00:00</time></trkpt><trkpt lat="38.96443175" lon="-0.50448488"><ele>173.2</ele><time>2022-11-13T16:07:18.0000000+00:00</time></trkpt><trkpt lat="38.96443334" lon="-0.50448898"><ele>173.0</ele><time>2022-11-13T16:07:19.0000000+00:00</time></trkpt><trkpt lat="38.96443175" lon="-0.50449477"><ele>172.8</ele><time>2022-11-13T16:07:20.0000000+00:00</time></trkpt><trkpt lat="38.96443066" lon="-0.50449988"><ele>172.6</ele><time>2022-11-13T16:07:21.0000000+00:00</time></trkpt><trkpt lat="38.96443217" lon="-0.50450441"><ele>172.6</ele><time>2022-11-13T16:07:22.0000000+00:00</time></trkpt><trkpt lat="38.96443276" lon="-0.50450642"><ele>172.2</ele><time>2022-11-13T16:07:23.0000000+00:00</time></trkpt><trkpt lat="38.96443561" lon="-0.50450675"><ele>172.2</ele><time>2022-11-13T16:07:24.0000000+00:00</time></trkpt><trkpt lat="38.96443712" lon="-0.50450608"><ele>172.0</ele><time>2022-11-13T16:07:25.0000000+00:00</time></trkpt><trkpt lat="38.9644481" lon="-0.50450625"><ele>172.0</ele><time>2022-11-13T16:07:26.0000000+00:00</time></trkpt><trkpt lat="38.96445271" lon="-0.50450734"><ele>171.8</ele><time>2022-11-13T16:07:27.0000000+00:00</time></trkpt><trkpt lat="38.9644543" lon="-0.50451011"><ele>171.8</ele><time>2022-11-13T16:07:28.0000000+00:00</time></trkpt><trkpt lat="38.96445363" lon="-0.50451463"><ele>171.6</ele><time>2022-11-13T16:07:29.0000000+00:00</time></trkpt><trkpt lat="38.9644507" lon="-0.50451673"><ele>171.6</ele><time>2022-11-13T16:07:30.0000000+00:00</time></trkpt><trkpt lat="38.96444868" lon="-0.50451991"><ele>171.2</ele><time>2022-11-13T16:07:31.0000000+00:00</time></trkpt><trkpt lat="38.96444701" lon="-0.50452679"><ele>171.2</ele><time>2022-11-13T16:07:32.0000000+00:00</time></trkpt><trkpt lat="38.96444692" lon="-0.50453148"><ele>171.0</ele><time>2022-11-13T16:07:33.0000000+00:00</time></trkpt><trkpt lat="38.96444726" lon="-0.50453642"><ele>170.8</ele><time>2022-11-13T16:07:34.0000000+00:00</time></trkpt><trkpt lat="38.96444525" lon="-0.50454062"><ele>170.6</ele><time>2022-11-13T16:07:35.0000000+00:00</time></trkpt><trkpt lat="38.96444458" lon="-0.50454531"><ele>170.4</ele><time>2022-11-13T16:07:36.0000000+00:00</time></trkpt><trkpt lat="38.96444382" lon="-0.50454908"><ele>170.2</ele><time>2022-11-13T16:07:37.0000000+00:00</time></trkpt><trkpt lat="38.96444047" lon="-0.50455646"><ele>170.2</ele><time>2022-11-13T16:07:38.0000000+00:00</time></trkpt><trkpt lat="38.96443997" lon="-0.5045609"><ele>170.0</ele><time>2022-11-13T16:07:39.0000000+00:00</time></trkpt><trkpt lat="38.96443988" lon="-0.50456559"><ele>169.8</ele><time>2022-11-13T16:07:40.0000000+00:00</time></trkpt><trkpt lat="38.9644403" lon="-0.50456886"><ele>169.6</ele><time>2022-11-13T16:07:41.0000000+00:00</time></trkpt><trkpt lat="38.96443846" lon="-0.50457146"><ele>169.4</ele><time>2022-11-13T16:07:42.0000000+00:00</time></trkpt><trkpt lat="38.96443762" lon="-0.50457439"><ele>169.4</ele><time>2022-11-13T16:07:43.0000000+00:00</time></trkpt><trkpt lat="38.96443594" lon="-0.50457674"><ele>169.2</ele><time>2022-11-13T16:07:44.0000000+00:00</time></trkpt><trkpt lat="38.96443443" lon="-0.50458035"><ele>169.0</ele><time>2022-11-13T16:07:45.0000000+00:00</time></trkpt><trkpt lat="38.96442982" lon="-0.50458655"><ele>168.8</ele><time>2022-11-13T16:07:46.0000000+00:00</time></trkpt><trkpt lat="38.96442764" lon="-0.50459527"><ele>168.6</ele><time>2022-11-13T16:07:47.0000000+00:00</time></trkpt><trkpt lat="38.96442647" lon="-0.50459929"><ele>168.4</ele><time>2022-11-13T16:07:48.0000000+00:00</time></trkpt><trkpt lat="38.96442949" lon="-0.50460055"><ele>168.2</ele><time>2022-11-13T16:07:49.0000000+00:00</time></trkpt><trkpt lat="38.96443049" lon="-0.50460189"><ele>168.0</ele><time>2022-11-13T16:07:50.0000000+00:00</time></trkpt><trkpt lat="38.96443033" lon="-0.50460381"><ele>167.8</ele><time>2022-11-13T16:07:51.0000000+00:00</time></trkpt><trkpt lat="38.96443049" lon="-0.50461161"><ele>167.6</ele><time>2022-11-13T16:07:52.0000000+00:00</time></trkpt><trkpt lat="38.96442949" lon="-0.50462008"><ele>167.6</ele><time>2022-11-13T16:07:53.0000000+00:00</time></trkpt><trkpt lat="38.96442697" lon="-0.50462846"><ele>167.4</ele><time>2022-11-13T16:07:54.0000000+00:00</time></trkpt><trkpt lat="38.96442429" lon="-0.50463625"><ele>167.2</ele><time>2022-11-13T16:07:55.0000000+00:00</time></trkpt><trkpt lat="38.96442496" lon="-0.50463902"><ele>167.2</ele><time>2022-11-13T16:07:56.0000000+00:00</time></trkpt><trkpt lat="38.96442446" lon="-0.50464355"><ele>166.8</ele><time>2022-11-13T16:07:57.0000000+00:00</time></trkpt><trkpt lat="38.96442387" lon="-0.50465"><ele>166.6</ele><time>2022-11-13T16:07:58.0000000+00:00</time></trkpt><trkpt lat="38.96442488" lon="-0.5046593"><ele>166.6</ele><time>2022-11-13T16:07:59.0000000+00:00</time></trkpt><trkpt lat="38.96442404" lon="-0.50466928"><ele>166.4</ele><time>2022-11-13T16:08:00.0000000+00:00</time></trkpt><trkpt lat="38.9644222" lon="-0.50467791"><ele>166.2</ele><time>2022-11-13T16:08:01.0000000+00:00</time></trkpt><trkpt lat="38.96441926" lon="-0.50468621"><ele>166.0</ele><time>2022-11-13T16:08:02.0000000+00:00</time></trkpt><trkpt lat="38.9644196" lon="-0.50469149"><ele>166.0</ele><time>2022-11-13T16:08:03.0000000+00:00</time></trkpt><trkpt lat="38.96442195" lon="-0.50469845"><ele>165.6</ele><time>2022-11-13T16:08:04.0000000+00:00</time></trkpt><trkpt lat="38.96442136" lon="-0.50470465"><ele>165.6</ele><time>2022-11-13T16:08:05.0000000+00:00</time></trkpt><trkpt lat="38.96442111" lon="-0.50471161"><ele>165.2</ele><time>2022-11-13T16:08:06.0000000+00:00</time></trkpt><trkpt lat="38.96442002" lon="-0.50472007"><ele>165.0</ele><time>2022-11-13T16:08:07.0000000+00:00</time></trkpt><trkpt lat="38.96441817" lon="-0.50472451"><ele>165.0</ele><time>2022-11-13T16:08:08.0000000+00:00</time></trkpt><trkpt lat="38.96441968" lon="-0.5047303"><ele>164.6</ele><time>2022-11-13T16:08:09.0000000+00:00</time></trkpt><trkpt lat="38.96441943" lon="-0.50473642"><ele>164.4</ele><time>2022-11-13T16:08:10.0000000+00:00</time></trkpt><trkpt lat="38.96441968" lon="-0.50474555"><ele>164.4</ele><time>2022-11-13T16:08:11.0000000+00:00</time></trkpt><trkpt lat="38.96441532" lon="-0.5047588"><ele>164.0</ele><time>2022-11-13T16:08:12.0000000+00:00</time></trkpt><trkpt lat="38.96440853" lon="-0.50477221"><ele>164.0</ele><time>2022-11-13T16:08:13.0000000+00:00</time></trkpt><trkpt lat="38.96439822" lon="-0.50478369"><ele>163.8</ele><time>2022-11-13T16:08:14.0000000+00:00</time></trkpt><trkpt lat="38.96439009" lon="-0.50479199"><ele>163.6</ele><time>2022-11-13T16:08:15.0000000+00:00</time></trkpt><trkpt lat="38.9643932" lon="-0.50480615"><ele>163.4</ele><time>2022-11-13T16:08:16.0000000+00:00</time></trkpt><trkpt lat="38.96440107" lon="-0.50481395"><ele>163.4</ele><time>2022-11-13T16:08:17.0000000+00:00</time></trkpt><trkpt lat="38.96441172" lon="-0.5048199"><ele>163.2</ele><time>2022-11-13T16:08:18.0000000+00:00</time></trkpt><trkpt lat="38.96442337" lon="-0.50482686"><ele>163.2</ele><time>2022-11-13T16:08:19.0000000+00:00</time></trkpt><trkpt lat="38.9644253" lon="-0.50483423"><ele>163.0</ele><time>2022-11-13T16:08:20.0000000+00:00</time></trkpt><trkpt lat="38.96441717" lon="-0.50484111"><ele>162.8</ele><time>2022-11-13T16:08:21.0000000+00:00</time></trkpt><trkpt lat="38.96441432" lon="-0.50484723"><ele>162.6</ele><time>2022-11-13T16:08:22.0000000+00:00</time></trkpt><trkpt lat="38.96441557" lon="-0.50485401"><ele>162.6</ele><time>2022-11-13T16:08:23.0000000+00:00</time></trkpt><trkpt lat="38.96441708" lon="-0.50485904"><ele>162.4</ele><time>2022-11-13T16:08:24.0000000+00:00</time></trkpt><trkpt lat="38.9644165" lon="-0.50486458"><ele>162.0</ele><time>2022-11-13T16:08:25.0000000+00:00</time></trkpt><trkpt lat="38.96442094" lon="-0.50486684"><ele>162.0</ele><time>2022-11-13T16:08:26.0000000+00:00</time></trkpt><trkpt lat="38.96442035" lon="-0.50486885"><ele>161.8</ele><time>2022-11-13T16:08:27.0000000+00:00</time></trkpt><trkpt lat="38.96442052" lon="-0.50487061"><ele>161.8</ele><time>2022-11-13T16:08:28.0000000+00:00</time></trkpt><trkpt lat="38.96442127" lon="-0.50487254"><ele>161.8</ele><time>2022-11-13T16:08:29.0000000+00:00</time></trkpt><trkpt lat="38.9644222" lon="-0.50487212"><ele>161.8</ele><time>2022-11-13T16:08:30.0000000+00:00</time></trkpt><trkpt lat="38.96442295" lon="-0.50487195"><ele>161.8</ele><time>2022-11-13T16:08:31.0000000+00:00</time></trkpt><trkpt lat="38.96442513" lon="-0.50487053"><ele>161.8</ele><time>2022-11-13T16:08:32.0000000+00:00</time></trkpt><trkpt lat="38.96442597" lon="-0.5048691"><ele>161.6</ele><time>2022-11-13T16:08:33.0000000+00:00</time></trkpt><trkpt lat="38.96442496" lon="-0.50486952"><ele>161.6</ele><time>2022-11-13T16:08:34.0000000+00:00</time></trkpt><trkpt lat="38.96442496" lon="-0.50486952"><ele>161.6</ele><time>2022-11-13T16:08:35.0000000+00:00</time></trkpt><trkpt lat="38.96442496" lon="-0.50486952"><ele>161.6</ele><time>2022-11-13T16:08:36.0000000+00:00</time></trkpt><trkpt lat="38.96442496" lon="-0.50486952"><ele>161.6</ele><time>2022-11-13T16:08:37.0000000+00:00</time></trkpt><trkpt lat="38.96442496" lon="-0.50486952"><ele>161.6</ele><time>2022-11-13T16:08:38.0000000+00:00</time></trkpt><trkpt lat="38.96442496" lon="-0.50486952"><ele>161.4</ele><time>2022-11-13T16:08:39.0000000+00:00</time></trkpt><trkpt lat="38.96442496" lon="-0.50486952"><ele>161.4</ele><time>2022-11-13T16:08:40.0000000+00:00</time></trkpt><trkpt lat="38.96442496" lon="-0.50486952"><ele>161.4</ele><time>2022-11-13T16:08:41.0000000+00:00</time></trkpt><trkpt lat="38.96442496" lon="-0.50486952"><ele>161.4</ele><time>2022-11-13T16:08:42.0000000+00:00</time></trkpt><trkpt lat="38.96442496" lon="-0.50486952"><ele>161.4</ele><time>2022-11-13T16:08:43.0000000+00:00</time></trkpt><trkpt lat="38.96442471" lon="-0.50486952"><ele>161.4</ele><time>2022-11-13T16:08:44.0000000+00:00</time></trkpt><trkpt lat="38.96442337" lon="-0.50486952"><ele>161.4</ele><time>2022-11-13T16:08:45.0000000+00:00</time></trkpt><trkpt lat="38.96442312" lon="-0.50486952"><ele>161.4</ele><time>2022-11-13T16:08:46.0000000+00:00</time></trkpt><trkpt lat="38.96442303" lon="-0.50486952"><ele>161.4</ele><time>2022-11-13T16:08:47.0000000+00:00</time></trkpt><trkpt lat="38.96442295" lon="-0.50486952"><ele>161.4</ele><time>2022-11-13T16:08:48.0000000+00:00</time></trkpt><trkpt lat="38.96442295" lon="-0.50486952"><ele>161.4</ele><time>2022-11-13T16:08:49.0000000+00:00</time></trkpt><trkpt lat="38.96442295" lon="-0.50486952"><ele>161.4</ele><time>2022-11-13T16:08:50.0000000+00:00</time></trkpt><trkpt lat="38.96442253" lon="-0.50486952"><ele>161.6</ele><time>2022-11-13T16:08:51.0000000+00:00</time></trkpt><trkpt lat="38.9644222" lon="-0.50486952"><ele>161.6</ele><time>2022-11-13T16:08:52.0000000+00:00</time></trkpt><trkpt lat="38.96442136" lon="-0.50486952"><ele>161.6</ele><time>2022-11-13T16:08:53.0000000+00:00</time></trkpt><trkpt lat="38.96442127" lon="-0.50486952"><ele>161.6</ele><time>2022-11-13T16:08:54.0000000+00:00</time></trkpt><trkpt lat="38.96442102" lon="-0.50486952"><ele>161.6</ele><time>2022-11-13T16:08:55.0000000+00:00</time></trkpt><trkpt lat="38.9644206" lon="-0.50486986"><ele>161.6</ele><time>2022-11-13T16:08:56.0000000+00:00</time></trkpt><trkpt lat="38.9644206" lon="-0.50487011"><ele>161.6</ele><time>2022-11-13T16:08:57.0000000+00:00</time></trkpt><trkpt lat="38.96441977" lon="-0.50487019"><ele>161.6</ele><time>2022-11-13T16:08:58.0000000+00:00</time></trkpt><trkpt lat="38.96441918" lon="-0.50487019"><ele>161.6</ele><time>2022-11-13T16:08:59.0000000+00:00</time></trkpt><trkpt lat="38.96441859" lon="-0.50487019"><ele>161.6</ele><time>2022-11-13T16:09:00.0000000+00:00</time></trkpt><trkpt lat="38.96441801" lon="-0.50487019"><ele>161.6</ele><time>2022-11-13T16:09:01.0000000+00:00</time></trkpt><trkpt lat="38.96441792" lon="-0.50487019"><ele>161.6</ele><time>2022-11-13T16:09:02.0000000+00:00</time></trkpt><trkpt lat="38.96441675" lon="-0.50487128"><ele>161.4</ele><time>2022-11-13T16:09:03.0000000+00:00</time></trkpt><trkpt lat="38.96441499" lon="-0.50487237"><ele>161.4</ele><time>2022-11-13T16:09:04.0000000+00:00</time></trkpt><trkpt lat="38.96441331" lon="-0.50487271"><ele>161.2</ele><time>2022-11-13T16:09:05.0000000+00:00</time></trkpt><trkpt lat="38.96441231" lon="-0.50487296"><ele>161.2</ele><time>2022-11-13T16:09:06.0000000+00:00</time></trkpt><trkpt lat="38.96441214" lon="-0.50487313"><ele>161.2</ele><time>2022-11-13T16:09:07.0000000+00:00</time></trkpt><trkpt lat="38.96441205" lon="-0.50487354"><ele>161.2</ele><time>2022-11-13T16:09:08.0000000+00:00</time></trkpt><trkpt lat="38.96441205" lon="-0.50487363"><ele>161.4</ele><time>2022-11-13T16:09:09.0000000+00:00</time></trkpt><trkpt lat="38.96441205" lon="-0.50487371"><ele>161.4</ele><time>2022-11-13T16:09:10.0000000+00:00</time></trkpt><trkpt lat="38.96441205" lon="-0.5048738"><ele>161.4</ele><time>2022-11-13T16:09:11.0000000+00:00</time></trkpt><trkpt lat="38.96441205" lon="-0.50487405"><ele>161.4</ele><time>2022-11-13T16:09:12.0000000+00:00</time></trkpt><trkpt lat="38.96441205" lon="-0.50487413"><ele>161.4</ele><time>2022-11-13T16:09:13.0000000+00:00</time></trkpt><trkpt lat="38.96441205" lon="-0.50487422"><ele>161.2</ele><time>2022-11-13T16:09:14.0000000+00:00</time></trkpt><trkpt lat="38.96441205" lon="-0.50487648"><ele>161.0</ele><time>2022-11-13T16:09:15.0000000+00:00</time></trkpt><trkpt lat="38.96441205" lon="-0.5048774"><ele>161.0</ele><time>2022-11-13T16:09:16.0000000+00:00</time></trkpt><trkpt lat="38.96441205" lon="-0.5048805"><ele>160.8</ele><time>2022-11-13T16:09:17.0000000+00:00</time></trkpt><trkpt lat="38.96441205" lon="-0.50488737"><ele>160.8</ele><time>2022-11-13T16:09:18.0000000+00:00</time></trkpt><trkpt lat="38.96441205" lon="-0.50489383"><ele>160.8</ele><time>2022-11-13T16:09:19.0000000+00:00</time></trkpt><trkpt lat="38.96441205" lon="-0.50489827"><ele>160.8</ele><time>2022-11-13T16:09:20.0000000+00:00</time></trkpt><trkpt lat="38.96441298" lon="-0.50490196"><ele>160.8</ele><time>2022-11-13T16:09:21.0000000+00:00</time></trkpt><trkpt lat="38.96441407" lon="-0.50490548"><ele>160.6</ele><time>2022-11-13T16:09:22.0000000+00:00</time></trkpt><trkpt lat="38.96441557" lon="-0.50490984"><ele>160.6</ele><time>2022-11-13T16:09:23.0000000+00:00</time></trkpt><trkpt lat="38.96441683" lon="-0.50492249"><ele>160.4</ele><time>2022-11-13T16:09:24.0000000+00:00</time></trkpt><trkpt lat="38.96441826" lon="-0.50493909"><ele>160.4</ele><time>2022-11-13T16:09:25.0000000+00:00</time></trkpt><trkpt lat="38.96442203" lon="-0.50495602"><ele>160.2</ele><time>2022-11-13T16:09:26.0000000+00:00</time></trkpt><trkpt lat="38.96442438" lon="-0.50496994"><ele>160.2</ele><time>2022-11-13T16:09:27.0000000+00:00</time></trkpt><trkpt lat="38.96442664" lon="-0.50498025"><ele>160.2</ele><time>2022-11-13T16:09:28.0000000+00:00</time></trkpt><trkpt lat="38.96443234" lon="-0.50498578"><ele>159.8</ele><time>2022-11-13T16:09:29.0000000+00:00</time></trkpt><trkpt lat="38.96444231" lon="-0.50499709"><ele>159.8</ele><time>2022-11-13T16:09:30.0000000+00:00</time></trkpt><trkpt lat="38.96445656" lon="-0.50501285"><ele>159.6</ele><time>2022-11-13T16:09:31.0000000+00:00</time></trkpt><trkpt lat="38.96446712" lon="-0.50503372"><ele>159.4</ele><time>2022-11-13T16:09:32.0000000+00:00</time></trkpt><trkpt lat="38.9644745" lon="-0.50505174"><ele>159.2</ele><time>2022-11-13T16:09:33.0000000+00:00</time></trkpt><trkpt lat="38.9644776" lon="-0.50506507"><ele>159.0</ele><time>2022-11-13T16:09:34.0000000+00:00</time></trkpt><trkpt lat="38.96448037" lon="-0.50507739"><ele>159.0</ele><time>2022-11-13T16:09:35.0000000+00:00</time></trkpt><trkpt lat="38.96447986" lon="-0.50508326"><ele>158.8</ele><time>2022-11-13T16:09:36.0000000+00:00</time></trkpt><trkpt lat="38.96448364" lon="-0.50510044"><ele>158.6</ele><time>2022-11-13T16:09:37.0000000+00:00</time></trkpt><trkpt lat="38.96448112" lon="-0.50511654"><ele>158.4</ele><time>2022-11-13T16:09:38.0000000+00:00</time></trkpt><trkpt lat="38.96447668" lon="-0.50513506"><ele>158.4</ele><time>2022-11-13T16:09:39.0000000+00:00</time></trkpt><trkpt lat="38.96447433" lon="-0.50514545"><ele>158.2</ele><time>2022-11-13T16:09:40.0000000+00:00</time></trkpt><trkpt lat="38.9644719" lon="-0.50515886"><ele>158.0</ele><time>2022-11-13T16:09:41.0000000+00:00</time></trkpt><trkpt lat="38.96446939" lon="-0.5051737"><ele>157.8</ele><time>2022-11-13T16:09:42.0000000+00:00</time></trkpt><trkpt lat="38.96446947" lon="-0.50518585"><ele>157.6</ele><time>2022-11-13T16:09:43.0000000+00:00</time></trkpt><trkpt lat="38.96446335" lon="-0.50520337"><ele>157.4</ele><time>2022-11-13T16:09:44.0000000+00:00</time></trkpt><trkpt lat="38.96446243" lon="-0.50522148"><ele>157.2</ele><time>2022-11-13T16:09:45.0000000+00:00</time></trkpt><trkpt lat="38.96446561" lon="-0.50523975"><ele>157.2</ele><time>2022-11-13T16:09:46.0000000+00:00</time></trkpt><trkpt lat="38.96447081" lon="-0.50526263"><ele>157.0</ele><time>2022-11-13T16:09:47.0000000+00:00</time></trkpt><trkpt lat="38.96447467" lon="-0.50527336"><ele>157.0</ele><time>2022-11-13T16:09:48.0000000+00:00</time></trkpt><trkpt lat="38.96447794" lon="-0.50528451"><ele>156.8</ele><time>2022-11-13T16:09:49.0000000+00:00</time></trkpt><trkpt lat="38.96447986" lon="-0.505297"><ele>156.6</ele><time>2022-11-13T16:09:50.0000000+00:00</time></trkpt><trkpt lat="38.96448079" lon="-0.50530077"><ele>156.4</ele><time>2022-11-13T16:09:51.0000000+00:00</time></trkpt><trkpt lat="38.96448171" lon="-0.50530597"><ele>156.4</ele><time>2022-11-13T16:09:52.0000000+00:00</time></trkpt><trkpt lat="38.96448389" lon="-0.5053094"><ele>156.2</ele><time>2022-11-13T16:09:53.0000000+00:00</time></trkpt><trkpt lat="38.9644942" lon="-0.50531183"><ele>156.2</ele><time>2022-11-13T16:09:54.0000000+00:00</time></trkpt><trkpt lat="38.9644968" lon="-0.50531225"><ele>156.2</ele><time>2022-11-13T16:09:55.0000000+00:00</time></trkpt><trkpt lat="38.96449881" lon="-0.50531133"><ele>156.2</ele><time>2022-11-13T16:09:56.0000000+00:00</time></trkpt><trkpt lat="38.96450677" lon="-0.50530865"><ele>156.2</ele><time>2022-11-13T16:09:57.0000000+00:00</time></trkpt><trkpt lat="38.96450643" lon="-0.50530857"><ele>156.4</ele><time>2022-11-13T16:09:58.0000000+00:00</time></trkpt><trkpt lat="38.96450694" lon="-0.50530789"><ele>156.4</ele><time>2022-11-13T16:09:59.0000000+00:00</time></trkpt><trkpt lat="38.96450618" lon="-0.50530789"><ele>156.4</ele><time>2022-11-13T16:10:00.0000000+00:00</time></trkpt><trkpt lat="38.96450643" lon="-0.50530915"><ele>156.2</ele><time>2022-11-13T16:10:01.0000000+00:00</time></trkpt><trkpt lat="38.96450769" lon="-0.50531234"><ele>156.2</ele><time>2022-11-13T16:10:02.0000000+00:00</time></trkpt><trkpt lat="38.96450778" lon="-0.50531636"><ele>156.2</ele><time>2022-11-13T16:10:03.0000000+00:00</time></trkpt><trkpt lat="38.96450426" lon="-0.50531862"><ele>156.2</ele><time>2022-11-13T16:10:04.0000000+00:00</time></trkpt><trkpt lat="38.96449956" lon="-0.50532776"><ele>156.2</ele><time>2022-11-13T16:10:05.0000000+00:00</time></trkpt><trkpt lat="38.96449738" lon="-0.50534008"><ele>156.2</ele><time>2022-11-13T16:10:06.0000000+00:00</time></trkpt><trkpt lat="38.96449604" lon="-0.50535207"><ele>156.2</ele><time>2022-11-13T16:10:07.0000000+00:00</time></trkpt><trkpt lat="38.96449537" lon="-0.50536355"><ele>156.2</ele><time>2022-11-13T16:10:08.0000000+00:00</time></trkpt><trkpt lat="38.96449763" lon="-0.50537369"><ele>156.2</ele><time>2022-11-13T16:10:09.0000000+00:00</time></trkpt><trkpt lat="38.96450124" lon="-0.50538551"><ele>156.4</ele><time>2022-11-13T16:10:10.0000000+00:00</time></trkpt><trkpt lat="38.96450224" lon="-0.50539775"><ele>156.4</ele><time>2022-11-13T16:10:11.0000000+00:00</time></trkpt><trkpt lat="38.9645035" lon="-0.50541191"><ele>156.6</ele><time>2022-11-13T16:10:12.0000000+00:00</time></trkpt><trkpt lat="38.96450434" lon="-0.50542826"><ele>156.6</ele><time>2022-11-13T16:10:13.0000000+00:00</time></trkpt><trkpt lat="38.96450426" lon="-0.50544066"><ele>156.6</ele><time>2022-11-13T16:10:14.0000000+00:00</time></trkpt><trkpt lat="38.96450459" lon="-0.50545491"><ele>156.8</ele><time>2022-11-13T16:10:15.0000000+00:00</time></trkpt><trkpt lat="38.96450719" lon="-0.50547101"><ele>156.8</ele><time>2022-11-13T16:10:16.0000000+00:00</time></trkpt><trkpt lat="38.96451172" lon="-0.50548266"><ele>157.0</ele><time>2022-11-13T16:10:17.0000000+00:00</time></trkpt><trkpt lat="38.96451859" lon="-0.50549137"><ele>157.0</ele><time>2022-11-13T16:10:18.0000000+00:00</time></trkpt><trkpt lat="38.96452596" lon="-0.50549825"><ele>157.2</ele><time>2022-11-13T16:10:19.0000000+00:00</time></trkpt><trkpt lat="38.96453334" lon="-0.50550864"><ele>157.4</ele><time>2022-11-13T16:10:20.0000000+00:00</time></trkpt><trkpt lat="38.96453803" lon="-0.50552323"><ele>157.6</ele><time>2022-11-13T16:10:21.0000000+00:00</time></trkpt><trkpt lat="38.96454172" lon="-0.50553781"><ele>157.8</ele><time>2022-11-13T16:10:22.0000000+00:00</time></trkpt><trkpt lat="38.96454558" lon="-0.50555223"><ele>158.0</ele><time>2022-11-13T16:10:23.0000000+00:00</time></trkpt><trkpt lat="38.96454969" lon="-0.50556522"><ele>158.2</ele><time>2022-11-13T16:10:24.0000000+00:00</time></trkpt><trkpt lat="38.96455379" lon="-0.50557494"><ele>158.4</ele><time>2022-11-13T16:10:25.0000000+00:00</time></trkpt><trkpt lat="38.96455907" lon="-0.50558073"><ele>158.6</ele><time>2022-11-13T16:10:26.0000000+00:00</time></trkpt><trkpt lat="38.96456544" lon="-0.50558592"><ele>158.8</ele><time>2022-11-13T16:10:27.0000000+00:00</time></trkpt><trkpt lat="38.96457181" lon="-0.50559414"><ele>159.0</ele><time>2022-11-13T16:10:28.0000000+00:00</time></trkpt><trkpt lat="38.96457952" lon="-0.50560554"><ele>159.2</ele><time>2022-11-13T16:10:29.0000000+00:00</time></trkpt><trkpt lat="38.96458372" lon="-0.5056171"><ele>159.4</ele><time>2022-11-13T16:10:30.0000000+00:00</time></trkpt><trkpt lat="38.96458875" lon="-0.50562465"><ele>159.6</ele><time>2022-11-13T16:10:31.0000000+00:00</time></trkpt><trkpt lat="38.96459646" lon="-0.50563194"><ele>159.8</ele><time>2022-11-13T16:10:32.0000000+00:00</time></trkpt><trkpt lat="38.96460341" lon="-0.50564007"><ele>160.0</ele><time>2022-11-13T16:10:33.0000000+00:00</time></trkpt><trkpt lat="38.96461037" lon="-0.50564837"><ele>160.2</ele><time>2022-11-13T16:10:34.0000000+00:00</time></trkpt><trkpt lat="38.96461532" lon="-0.50565843"><ele>160.4</ele><time>2022-11-13T16:10:35.0000000+00:00</time></trkpt><trkpt lat="38.96462068" lon="-0.50567075"><ele>160.4</ele><time>2022-11-13T16:10:36.0000000+00:00</time></trkpt><trkpt lat="38.96462621" lon="-0.50568282"><ele>160.6</ele><time>2022-11-13T16:10:37.0000000+00:00</time></trkpt><trkpt lat="38.96463007" lon="-0.50569531"><ele>160.6</ele><time>2022-11-13T16:10:38.0000000+00:00</time></trkpt><trkpt lat="38.96463392" lon="-0.50570143"><ele>160.6</ele><time>2022-11-13T16:10:39.0000000+00:00</time></trkpt><trkpt lat="38.96463652" lon="-0.50571324"><ele>160.8</ele><time>2022-11-13T16:10:40.0000000+00:00</time></trkpt><trkpt lat="38.96463837" lon="-0.50572556"><ele>160.8</ele><time>2022-11-13T16:10:41.0000000+00:00</time></trkpt><trkpt lat="38.96464281" lon="-0.50573311"><ele>161.0</ele><time>2022-11-13T16:10:42.0000000+00:00</time></trkpt><trkpt lat="38.96464163" lon="-0.50574132"><ele>161.0</ele><time>2022-11-13T16:10:43.0000000+00:00</time></trkpt><trkpt lat="38.96464038" lon="-0.50574761"><ele>161.0</ele><time>2022-11-13T16:10:44.0000000+00:00</time></trkpt><trkpt lat="38.96464088" lon="-0.5057523"><ele>161.0</ele><time>2022-11-13T16:10:45.0000000+00:00</time></trkpt><trkpt lat="38.96464055" lon="-0.50575884"><ele>161.0</ele><time>2022-11-13T16:10:46.0000000+00:00</time></trkpt><trkpt lat="38.96464256" lon="-0.50576932"><ele>161.0</ele><time>2022-11-13T16:10:47.0000000+00:00</time></trkpt><trkpt lat="38.96464532" lon="-0.50577854"><ele>161.2</ele><time>2022-11-13T16:10:48.0000000+00:00</time></trkpt><trkpt lat="38.96464692" lon="-0.5057891"><ele>161.2</ele><time>2022-11-13T16:10:49.0000000+00:00</time></trkpt><trkpt lat="38.96464314" lon="-0.50580184"><ele>161.2</ele><time>2022-11-13T16:10:50.0000000+00:00</time></trkpt><trkpt lat="38.96463828" lon="-0.50581701"><ele>161.2</ele><time>2022-11-13T16:10:51.0000000+00:00</time></trkpt><trkpt lat="38.96463233" lon="-0.50582799"><ele>161.2</ele><time>2022-11-13T16:10:52.0000000+00:00</time></trkpt><trkpt lat="38.96462873" lon="-0.5058378"><ele>161.4</ele><time>2022-11-13T16:10:53.0000000+00:00</time></trkpt><trkpt lat="38.96462864" lon="-0.5058492"><ele>161.4</ele><time>2022-11-13T16:10:54.0000000+00:00</time></trkpt><trkpt lat="38.96462873" lon="-0.50586403"><ele>161.4</ele><time>2022-11-13T16:10:55.0000000+00:00</time></trkpt><trkpt lat="38.96462965" lon="-0.50588097"><ele>161.6</ele><time>2022-11-13T16:10:56.0000000+00:00</time></trkpt><trkpt lat="38.96462856" lon="-0.50589354"><ele>161.6</ele><time>2022-11-13T16:10:57.0000000+00:00</time></trkpt><trkpt lat="38.96462454" lon="-0.50590812"><ele>161.8</ele><time>2022-11-13T16:10:58.0000000+00:00</time></trkpt><trkpt lat="38.96461917" lon="-0.50591877"><ele>162.0</ele><time>2022-11-13T16:10:59.0000000+00:00</time></trkpt><trkpt lat="38.96461632" lon="-0.50593025"><ele>162.2</ele><time>2022-11-13T16:11:00.0000000+00:00</time></trkpt><trkpt lat="38.96461481" lon="-0.50594634"><ele>162.4</ele><time>2022-11-13T16:11:01.0000000+00:00</time></trkpt><trkpt lat="38.96461884" lon="-0.50595565"><ele>162.6</ele><time>2022-11-13T16:11:02.0000000+00:00</time></trkpt><trkpt lat="38.96461741" lon="-0.5059709"><ele>162.6</ele><time>2022-11-13T16:11:03.0000000+00:00</time></trkpt><trkpt lat="38.96461104" lon="-0.5059782"><ele>162.8</ele><time>2022-11-13T16:11:04.0000000+00:00</time></trkpt><trkpt lat="38.96460241" lon="-0.50597669"><ele>163.0</ele><time>2022-11-13T16:11:05.0000000+00:00</time></trkpt><trkpt lat="38.96459729" lon="-0.50597568"><ele>163.2</ele><time>2022-11-13T16:11:06.0000000+00:00</time></trkpt><trkpt lat="38.96459327" lon="-0.5059849"><ele>163.2</ele><time>2022-11-13T16:11:07.0000000+00:00</time></trkpt><trkpt lat="38.9645864" lon="-0.50599546"><ele>163.4</ele><time>2022-11-13T16:11:08.0000000+00:00</time></trkpt><trkpt lat="38.96458196" lon="-0.50600745"><ele>163.4</ele><time>2022-11-13T16:11:09.0000000+00:00</time></trkpt><trkpt lat="38.96457668" lon="-0.50602287"><ele>163.6</ele><time>2022-11-13T16:11:10.0000000+00:00</time></trkpt><trkpt lat="38.96457274" lon="-0.50603611"><ele>163.6</ele><time>2022-11-13T16:11:11.0000000+00:00</time></trkpt><trkpt lat="38.96457114" lon="-0.5060486"><ele>163.8</ele><time>2022-11-13T16:11:12.0000000+00:00</time></trkpt><trkpt lat="38.96457416" lon="-0.50605732"><ele>163.8</ele><time>2022-11-13T16:11:13.0000000+00:00</time></trkpt><trkpt lat="38.96456913" lon="-0.5060621"><ele>164.0</ele><time>2022-11-13T16:11:14.0000000+00:00</time></trkpt><trkpt lat="38.96456452" lon="-0.50607752"><ele>164.0</ele><time>2022-11-13T16:11:15.0000000+00:00</time></trkpt><trkpt lat="38.96455815" lon="-0.50610216"><ele>164.2</ele><time>2022-11-13T16:11:16.0000000+00:00</time></trkpt><trkpt lat="38.9645522" lon="-0.50611901"><ele>164.2</ele><time>2022-11-13T16:11:17.0000000+00:00</time></trkpt><trkpt lat="38.96454742" lon="-0.50613217"><ele>164.4</ele><time>2022-11-13T16:11:18.0000000+00:00</time></trkpt><trkpt lat="38.96454197" lon="-0.50614525"><ele>164.6</ele><time>2022-11-13T16:11:19.0000000+00:00</time></trkpt><trkpt lat="38.96453837" lon="-0.50615757"><ele>164.6</ele><time>2022-11-13T16:11:20.0000000+00:00</time></trkpt><trkpt lat="38.96453577" lon="-0.50616654"><ele>164.6</ele><time>2022-11-13T16:11:21.0000000+00:00</time></trkpt><trkpt lat="38.96452814" lon="-0.50617794"><ele>164.8</ele><time>2022-11-13T16:11:22.0000000+00:00</time></trkpt><trkpt lat="38.96451733" lon="-0.50619026"><ele>164.8</ele><time>2022-11-13T16:11:23.0000000+00:00</time></trkpt><trkpt lat="38.96450576" lon="-0.50620233"><ele>164.8</ele><time>2022-11-13T16:11:24.0000000+00:00</time></trkpt><trkpt lat="38.96450006" lon="-0.50621339"><ele>165.0</ele><time>2022-11-13T16:11:25.0000000+00:00</time></trkpt><trkpt lat="38.96449319" lon="-0.50622379"><ele>165.0</ele><time>2022-11-13T16:11:26.0000000+00:00</time></trkpt><trkpt lat="38.96448548" lon="-0.50623275"><ele>165.2</ele><time>2022-11-13T16:11:27.0000000+00:00</time></trkpt><trkpt lat="38.96447584" lon="-0.5062429"><ele>165.2</ele><time>2022-11-13T16:11:28.0000000+00:00</time></trkpt><trkpt lat="38.96446478" lon="-0.50625044"><ele>165.4</ele><time>2022-11-13T16:11:29.0000000+00:00</time></trkpt><trkpt lat="38.96445589" lon="-0.50625647"><ele>166.0</ele><time>2022-11-13T16:11:30.0000000+00:00</time></trkpt><trkpt lat="38.96444583" lon="-0.50626595"><ele>166.2</ele><time>2022-11-13T16:11:31.0000000+00:00</time></trkpt><trkpt lat="38.96443879" lon="-0.50627282"><ele>166.4</ele><time>2022-11-13T16:11:32.0000000+00:00</time></trkpt><trkpt lat="38.96442924" lon="-0.50628405"><ele>166.4</ele><time>2022-11-13T16:11:33.0000000+00:00</time></trkpt><trkpt lat="38.96442588" lon="-0.50629889"><ele>166.4</ele><time>2022-11-13T16:11:34.0000000+00:00</time></trkpt><trkpt lat="38.9644253" lon="-0.50631129"><ele>166.4</ele><time>2022-11-13T16:11:35.0000000+00:00</time></trkpt><trkpt lat="38.96442312" lon="-0.50632169"><ele>166.4</ele><time>2022-11-13T16:11:36.0000000+00:00</time></trkpt><trkpt lat="38.96441834" lon="-0.50632655"><ele>166.4</ele><time>2022-11-13T16:11:37.0000000+00:00</time></trkpt><trkpt lat="38.96441432" lon="-0.50633417"><ele>166.6</ele><time>2022-11-13T16:11:38.0000000+00:00</time></trkpt><trkpt lat="38.9644108" lon="-0.50634331"><ele>166.6</ele><time>2022-11-13T16:11:39.0000000+00:00</time></trkpt><trkpt lat="38.96440166" lon="-0.50635681"><ele>166.8</ele><time>2022-11-13T16:11:40.0000000+00:00</time></trkpt><trkpt lat="38.96438624" lon="-0.50637013"><ele>167.0</ele><time>2022-11-13T16:11:41.0000000+00:00</time></trkpt><trkpt lat="38.96436679" lon="-0.50638455"><ele>167.2</ele><time>2022-11-13T16:11:42.0000000+00:00</time></trkpt><trkpt lat="38.96435573" lon="-0.50639226"><ele>167.4</ele><time>2022-11-13T16:11:43.0000000+00:00</time></trkpt><trkpt lat="38.96434969" lon="-0.50639209"><ele>167.6</ele><time>2022-11-13T16:11:44.0000000+00:00</time></trkpt><trkpt lat="38.96434014" lon="-0.50640517"><ele>167.8</ele><time>2022-11-13T16:11:45.0000000+00:00</time></trkpt><trkpt lat="38.96432505" lon="-0.5064107"><ele>168.0</ele><time>2022-11-13T16:11:46.0000000+00:00</time></trkpt><trkpt lat="38.96432698" lon="-0.50642478"><ele>168.2</ele><time>2022-11-13T16:11:47.0000000+00:00</time></trkpt><trkpt lat="38.96433385" lon="-0.50643895"><ele>168.4</ele><time>2022-11-13T16:11:48.0000000+00:00</time></trkpt><trkpt lat="38.96433218" lon="-0.50645982"><ele>168.4</ele><time>2022-11-13T16:11:49.0000000+00:00</time></trkpt><trkpt lat="38.96432924" lon="-0.50647977"><ele>168.6</ele><time>2022-11-13T16:11:50.0000000+00:00</time></trkpt><trkpt lat="38.9643196" lon="-0.50650617"><ele>168.6</ele><time>2022-11-13T16:11:51.0000000+00:00</time></trkpt><trkpt lat="38.96431424" lon="-0.50652461"><ele>168.6</ele><time>2022-11-13T16:11:52.0000000+00:00</time></trkpt><trkpt lat="38.96431482" lon="-0.50653199"><ele>168.8</ele><time>2022-11-13T16:11:53.0000000+00:00</time></trkpt><trkpt lat="38.96431306" lon="-0.50653576"><ele>168.8</ele><time>2022-11-13T16:11:54.0000000+00:00</time></trkpt><trkpt lat="38.96431072" lon="-0.50654213"><ele>169.0</ele><time>2022-11-13T16:11:55.0000000+00:00</time></trkpt><trkpt lat="38.96430636" lon="-0.50654951"><ele>169.0</ele><time>2022-11-13T16:11:56.0000000+00:00</time></trkpt><trkpt lat="38.96430175" lon="-0.50656359"><ele>169.0</ele><time>2022-11-13T16:11:57.0000000+00:00</time></trkpt><trkpt lat="38.96429571" lon="-0.50657448"><ele>169.2</ele><time>2022-11-13T16:11:58.0000000+00:00</time></trkpt><trkpt lat="38.96428222" lon="-0.5065884"><ele>169.2</ele><time>2022-11-13T16:11:59.0000000+00:00</time></trkpt><trkpt lat="38.96427266" lon="-0.50659929"><ele>169.2</ele><time>2022-11-13T16:12:00.0000000+00:00</time></trkpt><trkpt lat="38.96426864" lon="-0.50661153"><ele>169.4</ele><time>2022-11-13T16:12:01.0000000+00:00</time></trkpt><trkpt lat="38.96427057" lon="-0.50662528"><ele>169.6</ele><time>2022-11-13T16:12:02.0000000+00:00</time></trkpt><trkpt lat="38.96427057" lon="-0.50663584"><ele>169.6</ele><time>2022-11-13T16:12:03.0000000+00:00</time></trkpt><trkpt lat="38.96426772" lon="-0.5066438"><ele>169.6</ele><time>2022-11-13T16:12:04.0000000+00:00</time></trkpt><trkpt lat="38.96426453" lon="-0.50665721"><ele>169.8</ele><time>2022-11-13T16:12:05.0000000+00:00</time></trkpt><trkpt lat="38.96426085" lon="-0.50667021"><ele>169.8</ele><time>2022-11-13T16:12:06.0000000+00:00</time></trkpt><trkpt lat="38.96426277" lon="-0.50668236"><ele>170.0</ele><time>2022-11-13T16:12:07.0000000+00:00</time></trkpt><trkpt lat="38.96426411" lon="-0.50669577"><ele>170.0</ele><time>2022-11-13T16:12:08.0000000+00:00</time></trkpt><trkpt lat="38.9642585" lon="-0.50670826"><ele>170.0</ele><time>2022-11-13T16:12:09.0000000+00:00</time></trkpt><trkpt lat="38.96424567" lon="-0.50672268"><ele>170.2</ele><time>2022-11-13T16:12:10.0000000+00:00</time></trkpt><trkpt lat="38.96423914" lon="-0.50673625"><ele>170.2</ele><time>2022-11-13T16:12:11.0000000+00:00</time></trkpt><trkpt lat="38.96423503" lon="-0.50675076"><ele>170.2</ele><time>2022-11-13T16:12:12.0000000+00:00</time></trkpt><trkpt lat="38.96423595" lon="-0.50676056"><ele>170.2</ele><time>2022-11-13T16:12:13.0000000+00:00</time></trkpt><trkpt lat="38.96423662" lon="-0.50677456"><ele>170.2</ele><time>2022-11-13T16:12:14.0000000+00:00</time></trkpt><trkpt lat="38.96423176" lon="-0.50678906"><ele>170.2</ele><time>2022-11-13T16:12:15.0000000+00:00</time></trkpt><trkpt lat="38.96423109" lon="-0.50680909"><ele>170.2</ele><time>2022-11-13T16:12:16.0000000+00:00</time></trkpt><trkpt lat="38.96422723" lon="-0.50681781"><ele>170.2</ele><time>2022-11-13T16:12:17.0000000+00:00</time></trkpt><trkpt lat="38.96421759" lon="-0.50683843"><ele>170.4</ele><time>2022-11-13T16:12:18.0000000+00:00</time></trkpt><trkpt lat="38.96421441" lon="-0.50684958"><ele>170.4</ele><time>2022-11-13T16:12:19.0000000+00:00</time></trkpt><trkpt lat="38.96420871" lon="-0.50685997"><ele>170.4</ele><time>2022-11-13T16:12:20.0000000+00:00</time></trkpt><trkpt lat="38.96420527" lon="-0.50687648"><ele>170.4</ele><time>2022-11-13T16:12:21.0000000+00:00</time></trkpt><trkpt lat="38.96420276" lon="-0.50688973"><ele>170.4</ele><time>2022-11-13T16:12:22.0000000+00:00</time></trkpt><trkpt lat="38.96420108" lon="-0.50690155"><ele>170.2</ele><time>2022-11-13T16:12:23.0000000+00:00</time></trkpt><trkpt lat="38.96420024" lon="-0.50691353"><ele>170.2</ele><time>2022-11-13T16:12:24.0000000+00:00</time></trkpt><trkpt lat="38.96419697" lon="-0.50692326"><ele>170.2</ele><time>2022-11-13T16:12:25.0000000+00:00</time></trkpt><trkpt lat="38.96419471" lon="-0.50693264"><ele>170.2</ele><time>2022-11-13T16:12:26.0000000+00:00</time></trkpt><trkpt lat="38.96419035" lon="-0.50694698"><ele>170.4</ele><time>2022-11-13T16:12:27.0000000+00:00</time></trkpt><trkpt lat="38.96418759" lon="-0.50696273"><ele>170.4</ele><time>2022-11-13T16:12:28.0000000+00:00</time></trkpt><trkpt lat="38.96418449" lon="-0.50697531"><ele>170.4</ele><time>2022-11-13T16:12:29.0000000+00:00</time></trkpt><trkpt lat="38.96418566" lon="-0.50699081"><ele>170.4</ele><time>2022-11-13T16:12:30.0000000+00:00</time></trkpt><trkpt lat="38.96418214" lon="-0.5070121"><ele>170.4</ele><time>2022-11-13T16:12:31.0000000+00:00</time></trkpt><trkpt lat="38.96417694" lon="-0.50702694"><ele>170.4</ele><time>2022-11-13T16:12:32.0000000+00:00</time></trkpt><trkpt lat="38.96417091" lon="-0.50703993"><ele>170.4</ele><time>2022-11-13T16:12:33.0000000+00:00</time></trkpt><trkpt lat="38.96416286" lon="-0.50705561"><ele>170.4</ele><time>2022-11-13T16:12:34.0000000+00:00</time></trkpt><trkpt lat="38.96415942" lon="-0.50706633"><ele>170.4</ele><time>2022-11-13T16:12:35.0000000+00:00</time></trkpt><trkpt lat="38.96416001" lon="-0.50707857"><ele>170.4</ele><time>2022-11-13T16:12:36.0000000+00:00</time></trkpt><trkpt lat="38.96415993" lon="-0.50709651"><ele>170.2</ele><time>2022-11-13T16:12:37.0000000+00:00</time></trkpt><trkpt lat="38.9641585" lon="-0.50710925"><ele>170.2</ele><time>2022-11-13T16:12:38.0000000+00:00</time></trkpt><trkpt lat="38.96415406" lon="-0.50712459"><ele>170.0</ele><time>2022-11-13T16:12:39.0000000+00:00</time></trkpt><trkpt lat="38.96414978" lon="-0.50714118"><ele>169.8</ele><time>2022-11-13T16:12:40.0000000+00:00</time></trkpt><trkpt lat="38.96414476" lon="-0.50715929"><ele>169.8</ele><time>2022-11-13T16:12:41.0000000+00:00</time></trkpt><trkpt lat="38.96414065" lon="-0.50717572"><ele>169.6</ele><time>2022-11-13T16:12:42.0000000+00:00</time></trkpt><trkpt lat="38.96413612" lon="-0.5071924"><ele>169.6</ele><time>2022-11-13T16:12:43.0000000+00:00</time></trkpt><trkpt lat="38.96413671" lon="-0.50720908"><ele>169.6</ele><time>2022-11-13T16:12:44.0000000+00:00</time></trkpt><trkpt lat="38.96413646" lon="-0.5072281"><ele>169.6</ele><time>2022-11-13T16:12:45.0000000+00:00</time></trkpt><trkpt lat="38.96413118" lon="-0.50724797"><ele>169.6</ele><time>2022-11-13T16:12:46.0000000+00:00</time></trkpt><trkpt lat="38.96413034" lon="-0.50726255"><ele>169.6</ele><time>2022-11-13T16:12:47.0000000+00:00</time></trkpt><trkpt lat="38.9641264" lon="-0.50727555"><ele>169.6</ele><time>2022-11-13T16:12:48.0000000+00:00</time></trkpt><trkpt lat="38.96412212" lon="-0.50728628"><ele>169.8</ele><time>2022-11-13T16:12:49.0000000+00:00</time></trkpt><trkpt lat="38.96411609" lon="-0.50730203"><ele>169.8</ele><time>2022-11-13T16:12:50.0000000+00:00</time></trkpt><trkpt lat="38.96411349" lon="-0.50731679"><ele>169.8</ele><time>2022-11-13T16:12:51.0000000+00:00</time></trkpt><trkpt lat="38.96411223" lon="-0.50733288"><ele>169.8</ele><time>2022-11-13T16:12:52.0000000+00:00</time></trkpt><trkpt lat="38.96410561" lon="-0.50734746"><ele>169.8</ele><time>2022-11-13T16:12:53.0000000+00:00</time></trkpt><trkpt lat="38.96410318" lon="-0.50736096"><ele>169.6</ele><time>2022-11-13T16:12:54.0000000+00:00</time></trkpt><trkpt lat="38.96409899" lon="-0.5073789"><ele>169.6</ele><time>2022-11-13T16:12:55.0000000+00:00</time></trkpt><trkpt lat="38.96409438" lon="-0.50740086"><ele>169.6</ele><time>2022-11-13T16:12:56.0000000+00:00</time></trkpt><trkpt lat="38.96408935" lon="-0.50741821"><ele>169.6</ele><time>2022-11-13T16:12:57.0000000+00:00</time></trkpt><trkpt lat="38.96407787" lon="-0.50743857"><ele>169.6</ele><time>2022-11-13T16:12:58.0000000+00:00</time></trkpt><trkpt lat="38.96407544" lon="-0.50745416"><ele>169.6</ele><time>2022-11-13T16:12:59.0000000+00:00</time></trkpt><trkpt lat="38.96406781" lon="-0.50746934"><ele>169.6</ele><time>2022-11-13T16:13:00.0000000+00:00</time></trkpt><trkpt lat="38.96405934" lon="-0.5074804"><ele>169.6</ele><time>2022-11-13T16:13:01.0000000+00:00</time></trkpt><trkpt lat="38.9640544" lon="-0.50749482"><ele>169.6</ele><time>2022-11-13T16:13:02.0000000+00:00</time></trkpt><trkpt lat="38.9640539" lon="-0.50750714"><ele>169.6</ele><time>2022-11-13T16:13:03.0000000+00:00</time></trkpt><trkpt lat="38.9640544" lon="-0.50752818"><ele>169.6</ele><time>2022-11-13T16:13:04.0000000+00:00</time></trkpt><trkpt lat="38.96405306" lon="-0.50754536"><ele>169.6</ele><time>2022-11-13T16:13:05.0000000+00:00</time></trkpt><trkpt lat="38.9640487" lon="-0.50756238"><ele>169.6</ele><time>2022-11-13T16:13:06.0000000+00:00</time></trkpt><trkpt lat="38.96404401" lon="-0.50758023"><ele>169.8</ele><time>2022-11-13T16:13:07.0000000+00:00</time></trkpt><trkpt lat="38.96404032" lon="-0.50759884"><ele>169.8</ele><time>2022-11-13T16:13:08.0000000+00:00</time></trkpt><trkpt lat="38.96403814" lon="-0.50761736"><ele>169.8</ele><time>2022-11-13T16:13:09.0000000+00:00</time></trkpt><trkpt lat="38.96403562" lon="-0.50763823"><ele>169.8</ele><time>2022-11-13T16:13:10.0000000+00:00</time></trkpt><trkpt lat="38.96403546" lon="-0.50765173"><ele>169.8</ele><time>2022-11-13T16:13:11.0000000+00:00</time></trkpt><trkpt lat="38.96402992" lon="-0.50767033"><ele>170.0</ele><time>2022-11-13T16:13:12.0000000+00:00</time></trkpt><trkpt lat="38.964028" lon="-0.507684"><ele>169.8</ele><time>2022-11-13T16:13:13.0000000+00:00</time></trkpt><trkpt lat="38.9640259" lon="-0.50770177"><ele>170.0</ele><time>2022-11-13T16:13:14.0000000+00:00</time></trkpt><trkpt lat="38.96402489" lon="-0.50772046"><ele>170.0</ele><time>2022-11-13T16:13:15.0000000+00:00</time></trkpt><trkpt lat="38.9640202" lon="-0.50774016"><ele>170.0</ele><time>2022-11-13T16:13:16.0000000+00:00</time></trkpt><trkpt lat="38.96402087" lon="-0.50775667"><ele>170.2</ele><time>2022-11-13T16:13:17.0000000+00:00</time></trkpt><trkpt lat="38.96401785" lon="-0.50776823"><ele>170.2</ele><time>2022-11-13T16:13:18.0000000+00:00</time></trkpt><trkpt lat="38.96401157" lon="-0.50777603"><ele>170.4</ele><time>2022-11-13T16:13:19.0000000+00:00</time></trkpt><trkpt lat="38.9640036" lon="-0.50779346"><ele>170.4</ele><time>2022-11-13T16:13:20.0000000+00:00</time></trkpt><trkpt lat="38.96399204" lon="-0.5078088"><ele>170.2</ele><time>2022-11-13T16:13:21.0000000+00:00</time></trkpt><trkpt lat="38.96398332" lon="-0.50782456"><ele>170.2</ele><time>2022-11-13T16:13:22.0000000+00:00</time></trkpt><trkpt lat="38.96397502" lon="-0.50783546"><ele>170.2</ele><time>2022-11-13T16:13:23.0000000+00:00</time></trkpt><trkpt lat="38.96396522" lon="-0.50785138"><ele>170.2</ele><time>2022-11-13T16:13:24.0000000+00:00</time></trkpt><trkpt lat="38.96396019" lon="-0.5078637"><ele>170.2</ele><time>2022-11-13T16:13:25.0000000+00:00</time></trkpt><trkpt lat="38.96395239" lon="-0.50787586"><ele>170.2</ele><time>2022-11-13T16:13:26.0000000+00:00</time></trkpt><trkpt lat="38.96394937" lon="-0.50788726"><ele>170.2</ele><time>2022-11-13T16:13:27.0000000+00:00</time></trkpt><trkpt lat="38.963942" lon="-0.50790343"><ele>170.2</ele><time>2022-11-13T16:13:28.0000000+00:00</time></trkpt><trkpt lat="38.9639337" lon="-0.50794166"><ele>170.0</ele><time>2022-11-13T16:13:29.0000000+00:00</time></trkpt><trkpt lat="38.96392473" lon="-0.50797569"><ele>170.0</ele><time>2022-11-13T16:13:30.0000000+00:00</time></trkpt><trkpt lat="38.96392054" lon="-0.50798901"><ele>169.8</ele><time>2022-11-13T16:13:31.0000000+00:00</time></trkpt><trkpt lat="38.96391115" lon="-0.50802011"><ele>169.8</ele><time>2022-11-13T16:13:32.0000000+00:00</time></trkpt><trkpt lat="38.96390411" lon="-0.50803235"><ele>169.8</ele><time>2022-11-13T16:13:33.0000000+00:00</time></trkpt><trkpt lat="38.9638964" lon="-0.5080347"><ele>169.6</ele><time>2022-11-13T16:13:34.0000000+00:00</time></trkpt><trkpt lat="38.96388752" lon="-0.50804266"><ele>169.6</ele><time>2022-11-13T16:13:35.0000000+00:00</time></trkpt><trkpt lat="38.96388031" lon="-0.50805682"><ele>169.6</ele><time>2022-11-13T16:13:36.0000000+00:00</time></trkpt><trkpt lat="38.96388257" lon="-0.50806705"><ele>169.6</ele><time>2022-11-13T16:13:37.0000000+00:00</time></trkpt><trkpt lat="38.9638886" lon="-0.50808205"><ele>169.6</ele><time>2022-11-13T16:13:38.0000000+00:00</time></trkpt><trkpt lat="38.96388986" lon="-0.5080984"><ele>169.4</ele><time>2022-11-13T16:13:39.0000000+00:00</time></trkpt><trkpt lat="38.9638964" lon="-0.50811139"><ele>169.4</ele><time>2022-11-13T16:13:40.0000000+00:00</time></trkpt><trkpt lat="38.9638964" lon="-0.50812455"><ele>169.4</ele><time>2022-11-13T16:13:41.0000000+00:00</time></trkpt><trkpt lat="38.96388961" lon="-0.50813813"><ele>169.4</ele><time>2022-11-13T16:13:42.0000000+00:00</time></trkpt><trkpt lat="38.96388458" lon="-0.50814827"><ele>169.4</ele><time>2022-11-13T16:13:43.0000000+00:00</time></trkpt><trkpt lat="38.96387704" lon="-0.50816554"><ele>169.4</ele><time>2022-11-13T16:13:44.0000000+00:00</time></trkpt><trkpt lat="38.96387586" lon="-0.50818381"><ele>169.4</ele><time>2022-11-13T16:13:45.0000000+00:00</time></trkpt><trkpt lat="38.9638726" lon="-0.50820166"><ele>169.2</ele><time>2022-11-13T16:13:46.0000000+00:00</time></trkpt><trkpt lat="38.96387226" lon="-0.50821818"><ele>169.2</ele><time>2022-11-13T16:13:47.0000000+00:00</time></trkpt><trkpt lat="38.96387067" lon="-0.50823377"><ele>169.2</ele><time>2022-11-13T16:13:48.0000000+00:00</time></trkpt><trkpt lat="38.96386606" lon="-0.50825288"><ele>169.0</ele><time>2022-11-13T16:13:49.0000000+00:00</time></trkpt><trkpt lat="38.96386446" lon="-0.50826293"><ele>169.0</ele><time>2022-11-13T16:13:50.0000000+00:00</time></trkpt><trkpt lat="38.96386723" lon="-0.50827853"><ele>168.8</ele><time>2022-11-13T16:13:51.0000000+00:00</time></trkpt><trkpt lat="38.96386975" lon="-0.50829814"><ele>168.8</ele><time>2022-11-13T16:13:52.0000000+00:00</time></trkpt><trkpt lat="38.96387151" lon="-0.50831457"><ele>168.8</ele><time>2022-11-13T16:13:53.0000000+00:00</time></trkpt><trkpt lat="38.96387184" lon="-0.50833343"><ele>168.6</ele><time>2022-11-13T16:13:54.0000000+00:00</time></trkpt><trkpt lat="38.96386631" lon="-0.50834734"><ele>168.6</ele><time>2022-11-13T16:13:55.0000000+00:00</time></trkpt><trkpt lat="38.96385717" lon="-0.50835958"><ele>168.6</ele><time>2022-11-13T16:13:56.0000000+00:00</time></trkpt><trkpt lat="38.9638503" lon="-0.50837165"><ele>168.6</ele><time>2022-11-13T16:13:57.0000000+00:00</time></trkpt><trkpt lat="38.96384887" lon="-0.50838489"><ele>168.6</ele><time>2022-11-13T16:13:58.0000000+00:00</time></trkpt><trkpt lat="38.9638477" lon="-0.50839545"><ele>168.8</ele><time>2022-11-13T16:13:59.0000000+00:00</time></trkpt><trkpt lat="38.96384636" lon="-0.50840635"><ele>168.8</ele><time>2022-11-13T16:14:00.0000000+00:00</time></trkpt><trkpt lat="38.96384695" lon="-0.50841775"><ele>168.8</ele><time>2022-11-13T16:14:01.0000000+00:00</time></trkpt><trkpt lat="38.96384535" lon="-0.50842764"><ele>169.0</ele><time>2022-11-13T16:14:02.0000000+00:00</time></trkpt><trkpt lat="38.96383806" lon="-0.50844172"><ele>169.0</ele><time>2022-11-13T16:14:03.0000000+00:00</time></trkpt><trkpt lat="38.96382825" lon="-0.50845605"><ele>169.0</ele><time>2022-11-13T16:14:04.0000000+00:00</time></trkpt><trkpt lat="38.96381845" lon="-0.50847064"><ele>169.2</ele><time>2022-11-13T16:14:05.0000000+00:00</time></trkpt><trkpt lat="38.96381032" lon="-0.50848371"><ele>169.2</ele><time>2022-11-13T16:14:06.0000000+00:00</time></trkpt><trkpt lat="38.96380269" lon="-0.50849905"><ele>169.4</ele><time>2022-11-13T16:14:07.0000000+00:00</time></trkpt><trkpt lat="38.96379255" lon="-0.50850819"><ele>169.6</ele><time>2022-11-13T16:14:08.0000000+00:00</time></trkpt><trkpt lat="38.96378207" lon="-0.50851439"><ele>169.8</ele><time>2022-11-13T16:14:09.0000000+00:00</time></trkpt><trkpt lat="38.96377461" lon="-0.50852621"><ele>170.0</ele><time>2022-11-13T16:14:10.0000000+00:00</time></trkpt><trkpt lat="38.96376288" lon="-0.50854264"><ele>170.0</ele><time>2022-11-13T16:14:11.0000000+00:00</time></trkpt><trkpt lat="38.96375282" lon="-0.50855194"><ele>170.2</ele><time>2022-11-13T16:14:12.0000000+00:00</time></trkpt><trkpt lat="38.96374427" lon="-0.50856074"><ele>170.4</ele><time>2022-11-13T16:14:13.0000000+00:00</time></trkpt><trkpt lat="38.9637374" lon="-0.5085698"><ele>170.4</ele><time>2022-11-13T16:14:14.0000000+00:00</time></trkpt><trkpt lat="38.96372859" lon="-0.5085796"><ele>170.4</ele><time>2022-11-13T16:14:15.0000000+00:00</time></trkpt><trkpt lat="38.96371854" lon="-0.50858866"><ele>170.6</ele><time>2022-11-13T16:14:16.0000000+00:00</time></trkpt><trkpt lat="38.96370462" lon="-0.50859838"><ele>170.6</ele><time>2022-11-13T16:14:17.0000000+00:00</time></trkpt><trkpt lat="38.96369012" lon="-0.50860978"><ele>170.6</ele><time>2022-11-13T16:14:18.0000000+00:00</time></trkpt><trkpt lat="38.96367897" lon="-0.50862361"><ele>170.6</ele><time>2022-11-13T16:14:19.0000000+00:00</time></trkpt><trkpt lat="38.96366824" lon="-0.5086387"><ele>170.6</ele><time>2022-11-13T16:14:20.0000000+00:00</time></trkpt><trkpt lat="38.96365995" lon="-0.50864917"><ele>170.6</ele><time>2022-11-13T16:14:21.0000000+00:00</time></trkpt><trkpt lat="38.9636519" lon="-0.50865772"><ele>170.6</ele><time>2022-11-13T16:14:22.0000000+00:00</time></trkpt><trkpt lat="38.96364109" lon="-0.50866677"><ele>170.6</ele><time>2022-11-13T16:14:23.0000000+00:00</time></trkpt><trkpt lat="38.96363036" lon="-0.50867734"><ele>170.6</ele><time>2022-11-13T16:14:24.0000000+00:00</time></trkpt><trkpt lat="38.96362307" lon="-0.5086884"><ele>170.6</ele><time>2022-11-13T16:14:25.0000000+00:00</time></trkpt><trkpt lat="38.96361686" lon="-0.50870307"><ele>170.6</ele><time>2022-11-13T16:14:26.0000000+00:00</time></trkpt><trkpt lat="38.96361209" lon="-0.50871992"><ele>170.6</ele><time>2022-11-13T16:14:27.0000000+00:00</time></trkpt><trkpt lat="38.96360504" lon="-0.50873651"><ele>170.4</ele><time>2022-11-13T16:14:28.0000000+00:00</time></trkpt><trkpt lat="38.96359708" lon="-0.50874925"><ele>170.4</ele><time>2022-11-13T16:14:29.0000000+00:00</time></trkpt><trkpt lat="38.96358501" lon="-0.50876493"><ele>170.4</ele><time>2022-11-13T16:14:30.0000000+00:00</time></trkpt><trkpt lat="38.96357386" lon="-0.50877834"><ele>170.4</ele><time>2022-11-13T16:14:31.0000000+00:00</time></trkpt><trkpt lat="38.96356565" lon="-0.50879426"><ele>170.2</ele><time>2022-11-13T16:14:32.0000000+00:00</time></trkpt><trkpt lat="38.9635597" lon="-0.50881513"><ele>170.2</ele><time>2022-11-13T16:14:33.0000000+00:00</time></trkpt><trkpt lat="38.96355802" lon="-0.50883525"><ele>170.2</ele><time>2022-11-13T16:14:34.0000000+00:00</time></trkpt><trkpt lat="38.96355744" lon="-0.5088495"><ele>170.2</ele><time>2022-11-13T16:14:35.0000000+00:00</time></trkpt><trkpt lat="38.96355735" lon="-0.50886819"><ele>170.2</ele><time>2022-11-13T16:14:36.0000000+00:00</time></trkpt><trkpt lat="38.96355417" lon="-0.50888621"><ele>170.2</ele><time>2022-11-13T16:14:37.0000000+00:00</time></trkpt><trkpt lat="38.96355249" lon="-0.50890122"><ele>170.4</ele><time>2022-11-13T16:14:38.0000000+00:00</time></trkpt><trkpt lat="38.96355048" lon="-0.50891806"><ele>170.4</ele><time>2022-11-13T16:14:39.0000000+00:00</time></trkpt><trkpt lat="38.96354755" lon="-0.50893097"><ele>170.4</ele><time>2022-11-13T16:14:40.0000000+00:00</time></trkpt><trkpt lat="38.96354084" lon="-0.50894681"><ele>170.4</ele><time>2022-11-13T16:14:41.0000000+00:00</time></trkpt><trkpt lat="38.9635364" lon="-0.50896199"><ele>170.4</ele><time>2022-11-13T16:14:42.0000000+00:00</time></trkpt><trkpt lat="38.96352944" lon="-0.50897548"><ele>170.4</ele><time>2022-11-13T16:14:43.0000000+00:00</time></trkpt><trkpt lat="38.96352181" lon="-0.50899342"><ele>170.4</ele><time>2022-11-13T16:14:44.0000000+00:00</time></trkpt><trkpt lat="38.96351477" lon="-0.50900742"><ele>170.4</ele><time>2022-11-13T16:14:45.0000000+00:00</time></trkpt><trkpt lat="38.96351326" lon="-0.50901823"><ele>170.4</ele><time>2022-11-13T16:14:46.0000000+00:00</time></trkpt><trkpt lat="38.96350916" lon="-0.50903399"><ele>170.4</ele><time>2022-11-13T16:14:47.0000000+00:00</time></trkpt><trkpt lat="38.96350186" lon="-0.50904497"><ele>170.4</ele><time>2022-11-13T16:14:48.0000000+00:00</time></trkpt><trkpt lat="38.96349499" lon="-0.50905469"><ele>170.4</ele><time>2022-11-13T16:14:49.0000000+00:00</time></trkpt><trkpt lat="38.96348954" lon="-0.50906458"><ele>170.4</ele><time>2022-11-13T16:14:50.0000000+00:00</time></trkpt><trkpt lat="38.96348544" lon="-0.50907766"><ele>170.4</ele><time>2022-11-13T16:14:51.0000000+00:00</time></trkpt><trkpt lat="38.96348015" lon="-0.5090914"><ele>170.2</ele><time>2022-11-13T16:14:52.0000000+00:00</time></trkpt><trkpt lat="38.96347546" lon="-0.50910406"><ele>170.2</ele><time>2022-11-13T16:14:53.0000000+00:00</time></trkpt><trkpt lat="38.96347856" lon="-0.5091178"><ele>170.2</ele><time>2022-11-13T16:14:54.0000000+00:00</time></trkpt><trkpt lat="38.96347697" lon="-0.50913457"><ele>170.2</ele><time>2022-11-13T16:14:55.0000000+00:00</time></trkpt><trkpt lat="38.96347337" lon="-0.50914882"><ele>170.2</ele><time>2022-11-13T16:14:56.0000000+00:00</time></trkpt><trkpt lat="38.96347102" lon="-0.50916449"><ele>170.2</ele><time>2022-11-13T16:14:57.0000000+00:00</time></trkpt><trkpt lat="38.96347127" lon="-0.50918201"><ele>170.2</ele><time>2022-11-13T16:14:58.0000000+00:00</time></trkpt><trkpt lat="38.96347496" lon="-0.50919836"><ele>170.2</ele><time>2022-11-13T16:14:59.0000000+00:00</time></trkpt><trkpt lat="38.9634758" lon="-0.50921411"><ele>170.2</ele><time>2022-11-13T16:15:00.0000000+00:00</time></trkpt><trkpt lat="38.9634737" lon="-0.50923163"><ele>170.2</ele><time>2022-11-13T16:15:01.0000000+00:00</time></trkpt><trkpt lat="38.96346767" lon="-0.5092499"><ele>170.2</ele><time>2022-11-13T16:15:02.0000000+00:00</time></trkpt><trkpt lat="38.96346104" lon="-0.50926742"><ele>170.2</ele><time>2022-11-13T16:15:03.0000000+00:00</time></trkpt><trkpt lat="38.96345585" lon="-0.50928301"><ele>170.4</ele><time>2022-11-13T16:15:04.0000000+00:00</time></trkpt><trkpt lat="38.96345115" lon="-0.50930229"><ele>170.4</ele><time>2022-11-13T16:15:05.0000000+00:00</time></trkpt><trkpt lat="38.96344747" lon="-0.50931662"><ele>170.4</ele><time>2022-11-13T16:15:06.0000000+00:00</time></trkpt><trkpt lat="38.96344353" lon="-0.50933599"><ele>170.4</ele><time>2022-11-13T16:15:07.0000000+00:00</time></trkpt><trkpt lat="38.96344177" lon="-0.50935091"><ele>170.4</ele><time>2022-11-13T16:15:08.0000000+00:00</time></trkpt><trkpt lat="38.96343556" lon="-0.50936759"><ele>170.4</ele><time>2022-11-13T16:15:09.0000000+00:00</time></trkpt><trkpt lat="38.96342819" lon="-0.50938586"><ele>170.4</ele><time>2022-11-13T16:15:10.0000000+00:00</time></trkpt><trkpt lat="38.96342073" lon="-0.50940245"><ele>170.4</ele><time>2022-11-13T16:15:11.0000000+00:00</time></trkpt><trkpt lat="38.96341612" lon="-0.50941821"><ele>170.4</ele><time>2022-11-13T16:15:12.0000000+00:00</time></trkpt><trkpt lat="38.96341469" lon="-0.5094369"><ele>170.4</ele><time>2022-11-13T16:15:13.0000000+00:00</time></trkpt><trkpt lat="38.96341293" lon="-0.50945384"><ele>170.6</ele><time>2022-11-13T16:15:14.0000000+00:00</time></trkpt><trkpt lat="38.96341151" lon="-0.50946523"><ele>170.6</ele><time>2022-11-13T16:15:15.0000000+00:00</time></trkpt><trkpt lat="38.9634048" lon="-0.50948091"><ele>170.6</ele><time>2022-11-13T16:15:16.0000000+00:00</time></trkpt><trkpt lat="38.9633981" lon="-0.50948896"><ele>170.6</ele><time>2022-11-13T16:15:17.0000000+00:00</time></trkpt><trkpt lat="38.96339156" lon="-0.50949256"><ele>170.6</ele><time>2022-11-13T16:15:18.0000000+00:00</time></trkpt><trkpt lat="38.9633836" lon="-0.50949709"><ele>170.6</ele><time>2022-11-13T16:15:19.0000000+00:00</time></trkpt><trkpt lat="38.96337429" lon="-0.50950455"><ele>170.6</ele><time>2022-11-13T16:15:20.0000000+00:00</time></trkpt><trkpt lat="38.96336692" lon="-0.50950874"><ele>170.6</ele><time>2022-11-13T16:15:21.0000000+00:00</time></trkpt><trkpt lat="38.96335099" lon="-0.50952039"><ele>170.4</ele><time>2022-11-13T16:15:22.0000000+00:00</time></trkpt><trkpt lat="38.96334378" lon="-0.50952173"><ele>170.4</ele><time>2022-11-13T16:15:23.0000000+00:00</time></trkpt><trkpt lat="38.96333305" lon="-0.50952785"><ele>170.4</ele><time>2022-11-13T16:15:24.0000000+00:00</time></trkpt><trkpt lat="38.96332274" lon="-0.50953573"><ele>170.4</ele><time>2022-11-13T16:15:25.0000000+00:00</time></trkpt><trkpt lat="38.96331813" lon="-0.50953807"><ele>170.4</ele><time>2022-11-13T16:15:26.0000000+00:00</time></trkpt><trkpt lat="38.96331025" lon="-0.50954235"><ele>170.4</ele><time>2022-11-13T16:15:27.0000000+00:00</time></trkpt><trkpt lat="38.96329693" lon="-0.50955341"><ele>170.4</ele><time>2022-11-13T16:15:28.0000000+00:00</time></trkpt><trkpt lat="38.96328377" lon="-0.50956246"><ele>170.4</ele><time>2022-11-13T16:15:29.0000000+00:00</time></trkpt><trkpt lat="38.96327186" lon="-0.50956691"><ele>170.6</ele><time>2022-11-13T16:15:30.0000000+00:00</time></trkpt><trkpt lat="38.96325594" lon="-0.50956741"><ele>170.6</ele><time>2022-11-13T16:15:31.0000000+00:00</time></trkpt><trkpt lat="38.96324244" lon="-0.50957537"><ele>170.8</ele><time>2022-11-13T16:15:32.0000000+00:00</time></trkpt><trkpt lat="38.96323683" lon="-0.50958728"><ele>170.8</ele><time>2022-11-13T16:15:33.0000000+00:00</time></trkpt><trkpt lat="38.96321596" lon="-0.50959725"><ele>171.0</ele><time>2022-11-13T16:15:34.0000000+00:00</time></trkpt><trkpt lat="38.96320498" lon="-0.50960069"><ele>171.0</ele><time>2022-11-13T16:15:35.0000000+00:00</time></trkpt><trkpt lat="38.96319257" lon="-0.50960002"><ele>171.0</ele><time>2022-11-13T16:15:36.0000000+00:00</time></trkpt><trkpt lat="38.96317807" lon="-0.50960253"><ele>171.2</ele><time>2022-11-13T16:15:37.0000000+00:00</time></trkpt><trkpt lat="38.96316818" lon="-0.50961033"><ele>171.2</ele><time>2022-11-13T16:15:38.0000000+00:00</time></trkpt><trkpt lat="38.96315284" lon="-0.50961703"><ele>171.2</ele><time>2022-11-13T16:15:39.0000000+00:00</time></trkpt><trkpt lat="38.9631401" lon="-0.50962105"><ele>171.4</ele><time>2022-11-13T16:15:40.0000000+00:00</time></trkpt><trkpt lat="38.96312795" lon="-0.50962449"><ele>171.6</ele><time>2022-11-13T16:15:41.0000000+00:00</time></trkpt><trkpt lat="38.963123" lon="-0.50963095"><ele>171.8</ele><time>2022-11-13T16:15:42.0000000+00:00</time></trkpt><trkpt lat="38.9631194" lon="-0.50963757"><ele>171.8</ele><time>2022-11-13T16:15:43.0000000+00:00</time></trkpt><trkpt lat="38.96311252" lon="-0.50965047"><ele>171.8</ele><time>2022-11-13T16:15:44.0000000+00:00</time></trkpt><trkpt lat="38.96310515" lon="-0.50966112"><ele>172.0</ele><time>2022-11-13T16:15:45.0000000+00:00</time></trkpt><trkpt lat="38.96309693" lon="-0.50967051"><ele>172.0</ele><time>2022-11-13T16:15:46.0000000+00:00</time></trkpt><trkpt lat="38.9630847" lon="-0.50967562"><ele>172.2</ele><time>2022-11-13T16:15:47.0000000+00:00</time></trkpt><trkpt lat="38.96307514" lon="-0.50967755"><ele>172.2</ele><time>2022-11-13T16:15:48.0000000+00:00</time></trkpt><trkpt lat="38.96306156" lon="-0.50968685"><ele>172.4</ele><time>2022-11-13T16:15:49.0000000+00:00</time></trkpt><trkpt lat="38.96305326" lon="-0.5096949"><ele>172.6</ele><time>2022-11-13T16:15:50.0000000+00:00</time></trkpt><trkpt lat="38.96304606" lon="-0.50970194"><ele>172.8</ele><time>2022-11-13T16:15:51.0000000+00:00</time></trkpt><trkpt lat="38.96303558" lon="-0.50970722"><ele>172.8</ele><time>2022-11-13T16:15:52.0000000+00:00</time></trkpt><trkpt lat="38.96302518" lon="-0.50971602"><ele>173.0</ele><time>2022-11-13T16:15:53.0000000+00:00</time></trkpt><trkpt lat="38.96301437" lon="-0.50972801"><ele>173.0</ele><time>2022-11-13T16:15:54.0000000+00:00</time></trkpt><trkpt lat="38.96300901" lon="-0.50974125"><ele>173.2</ele><time>2022-11-13T16:15:55.0000000+00:00</time></trkpt><trkpt lat="38.96300314" lon="-0.50975315"><ele>173.2</ele><time>2022-11-13T16:15:56.0000000+00:00</time></trkpt><trkpt lat="38.96300582" lon="-0.50975969"><ele>173.2</ele><time>2022-11-13T16:15:57.0000000+00:00</time></trkpt><trkpt lat="38.96300381" lon="-0.50976615"><ele>173.6</ele><time>2022-11-13T16:15:58.0000000+00:00</time></trkpt><trkpt lat="38.96299996" lon="-0.50977226"><ele>173.8</ele><time>2022-11-13T16:15:59.0000000+00:00</time></trkpt><trkpt lat="38.96299409" lon="-0.50977645"><ele>173.8</ele><time>2022-11-13T16:16:00.0000000+00:00</time></trkpt><trkpt lat="38.96298311" lon="-0.50977981"><ele>174.0</ele><time>2022-11-13T16:16:01.0000000+00:00</time></trkpt><trkpt lat="38.96296886" lon="-0.50978283"><ele>174.0</ele><time>2022-11-13T16:16:02.0000000+00:00</time></trkpt><trkpt lat="38.96295897" lon="-0.50978626"><ele>174.0</ele><time>2022-11-13T16:16:03.0000000+00:00</time></trkpt><trkpt lat="38.96294841" lon="-0.50978987"><ele>174.0</ele><time>2022-11-13T16:16:04.0000000+00:00</time></trkpt><trkpt lat="38.96294103" lon="-0.50979624"><ele>174.0</ele><time>2022-11-13T16:16:05.0000000+00:00</time></trkpt><trkpt lat="38.96293198" lon="-0.50980479"><ele>174.0</ele><time>2022-11-13T16:16:06.0000000+00:00</time></trkpt><trkpt lat="38.962921" lon="-0.50981401"><ele>174.2</ele><time>2022-11-13T16:16:07.0000000+00:00</time></trkpt><trkpt lat="38.96291094" lon="-0.50982205"><ele>174.2</ele><time>2022-11-13T16:16:08.0000000+00:00</time></trkpt><trkpt lat="38.96289694" lon="-0.50983161"><ele>174.2</ele><time>2022-11-13T16:16:09.0000000+00:00</time></trkpt><trkpt lat="38.96288655" lon="-0.50983882"><ele>174.4</ele><time>2022-11-13T16:16:10.0000000+00:00</time></trkpt><trkpt lat="38.96288102" lon="-0.50984628"><ele>174.4</ele><time>2022-11-13T16:16:11.0000000+00:00</time></trkpt><trkpt lat="38.96287674" lon="-0.50985399"><ele>174.6</ele><time>2022-11-13T16:16:12.0000000+00:00</time></trkpt><trkpt lat="38.96286869" lon="-0.50986539"><ele>174.6</ele><time>2022-11-13T16:16:13.0000000+00:00</time></trkpt><trkpt lat="38.9628604" lon="-0.50987821"><ele>174.6</ele><time>2022-11-13T16:16:14.0000000+00:00</time></trkpt><trkpt lat="38.96284908" lon="-0.50988852"><ele>174.6</ele><time>2022-11-13T16:16:15.0000000+00:00</time></trkpt><trkpt lat="38.96283802" lon="-0.50989799"><ele>174.8</ele><time>2022-11-13T16:16:16.0000000+00:00</time></trkpt><trkpt lat="38.96282863" lon="-0.50990528"><ele>175.0</ele><time>2022-11-13T16:16:17.0000000+00:00</time></trkpt><trkpt lat="38.9628205" lon="-0.50991434"><ele>175.0</ele><time>2022-11-13T16:16:18.0000000+00:00</time></trkpt><trkpt lat="38.96281245" lon="-0.50992213"><ele>175.2</ele><time>2022-11-13T16:16:19.0000000+00:00</time></trkpt><trkpt lat="38.96279745" lon="-0.50993018"><ele>175.2</ele><time>2022-11-13T16:16:20.0000000+00:00</time></trkpt><trkpt lat="38.96278387" lon="-0.50993898"><ele>175.2</ele><time>2022-11-13T16:16:21.0000000+00:00</time></trkpt><trkpt lat="38.9627713" lon="-0.50994669"><ele>175.2</ele><time>2022-11-13T16:16:22.0000000+00:00</time></trkpt><trkpt lat="38.96276233" lon="-0.50995566"><ele>175.2</ele><time>2022-11-13T16:16:23.0000000+00:00</time></trkpt><trkpt lat="38.96275076" lon="-0.50997075"><ele>175.4</ele><time>2022-11-13T16:16:24.0000000+00:00</time></trkpt><trkpt lat="38.9627428" lon="-0.50998097"><ele>175.6</ele><time>2022-11-13T16:16:25.0000000+00:00</time></trkpt><trkpt lat="38.96273081" lon="-0.50999288"><ele>175.6</ele><time>2022-11-13T16:16:26.0000000+00:00</time></trkpt><trkpt lat="38.96272671" lon="-0.51000285"><ele>175.8</ele><time>2022-11-13T16:16:27.0000000+00:00</time></trkpt><trkpt lat="38.96271891" lon="-0.51001651"><ele>175.8</ele><time>2022-11-13T16:16:28.0000000+00:00</time></trkpt><trkpt lat="38.96271044" lon="-0.51003026"><ele>175.8</ele><time>2022-11-13T16:16:29.0000000+00:00</time></trkpt><trkpt lat="38.96270416" lon="-0.5100404"><ele>176.0</ele><time>2022-11-13T16:16:30.0000000+00:00</time></trkpt><trkpt lat="38.96269301" lon="-0.51005113"><ele>176.0</ele><time>2022-11-13T16:16:31.0000000+00:00</time></trkpt><trkpt lat="38.96268069" lon="-0.51006236"><ele>176.0</ele><time>2022-11-13T16:16:32.0000000+00:00</time></trkpt><trkpt lat="38.96267231" lon="-0.51006848"><ele>176.0</ele><time>2022-11-13T16:16:33.0000000+00:00</time></trkpt><trkpt lat="38.96266652" lon="-0.51007946"><ele>176.0</ele><time>2022-11-13T16:16:34.0000000+00:00</time></trkpt><trkpt lat="38.96265596" lon="-0.51009145"><ele>176.2</ele><time>2022-11-13T16:16:35.0000000+00:00</time></trkpt><trkpt lat="38.96264372" lon="-0.5101041"><ele>176.2</ele><time>2022-11-13T16:16:36.0000000+00:00</time></trkpt><trkpt lat="38.96263777" lon="-0.51011743"><ele>176.2</ele><time>2022-11-13T16:16:37.0000000+00:00</time></trkpt><trkpt lat="38.96262805" lon="-0.5101295"><ele>176.2</ele><time>2022-11-13T16:16:38.0000000+00:00</time></trkpt><trkpt lat="38.96261883" lon="-0.51013847"><ele>176.2</ele><time>2022-11-13T16:16:39.0000000+00:00</time></trkpt><trkpt lat="38.96260768" lon="-0.51015607"><ele>176.4</ele><time>2022-11-13T16:16:40.0000000+00:00</time></trkpt><trkpt lat="38.96260064" lon="-0.51016823"><ele>176.4</ele><time>2022-11-13T16:16:41.0000000+00:00</time></trkpt><trkpt lat="38.96259553" lon="-0.51017996"><ele>176.4</ele><time>2022-11-13T16:16:42.0000000+00:00</time></trkpt><trkpt lat="38.96258907" lon="-0.51019404"><ele>176.4</ele><time>2022-11-13T16:16:43.0000000+00:00</time></trkpt><trkpt lat="38.96258044" lon="-0.5102072"><ele>176.6</ele><time>2022-11-13T16:16:44.0000000+00:00</time></trkpt><trkpt lat="38.96256544" lon="-0.5102181"><ele>176.6</ele><time>2022-11-13T16:16:45.0000000+00:00</time></trkpt><trkpt lat="38.96255136" lon="-0.51022749"><ele>176.6</ele><time>2022-11-13T16:16:46.0000000+00:00</time></trkpt><trkpt lat="38.96254272" lon="-0.51023235"><ele>176.6</ele><time>2022-11-13T16:16:47.0000000+00:00</time></trkpt><trkpt lat="38.96252906" lon="-0.51024442"><ele>176.6</ele><time>2022-11-13T16:16:48.0000000+00:00</time></trkpt><trkpt lat="38.962518" lon="-0.51025473"><ele>176.6</ele><time>2022-11-13T16:16:49.0000000+00:00</time></trkpt><trkpt lat="38.96250584" lon="-0.51026763"><ele>176.6</ele><time>2022-11-13T16:16:50.0000000+00:00</time></trkpt><trkpt lat="38.96249511" lon="-0.5102761"><ele>176.8</ele><time>2022-11-13T16:16:51.0000000+00:00</time></trkpt><trkpt lat="38.96248573" lon="-0.51028314"><ele>176.8</ele><time>2022-11-13T16:16:52.0000000+00:00</time></trkpt><trkpt lat="38.9624817" lon="-0.51029295"><ele>176.8</ele><time>2022-11-13T16:16:53.0000000+00:00</time></trkpt><trkpt lat="38.96247181" lon="-0.51030468"><ele>176.8</ele><time>2022-11-13T16:16:54.0000000+00:00</time></trkpt><trkpt lat="38.96246519" lon="-0.51031633"><ele>176.8</ele><time>2022-11-13T16:16:55.0000000+00:00</time></trkpt><trkpt lat="38.96245991" lon="-0.51033041"><ele>176.8</ele><time>2022-11-13T16:16:56.0000000+00:00</time></trkpt><trkpt lat="38.96245178" lon="-0.51033888"><ele>176.8</ele><time>2022-11-13T16:16:57.0000000+00:00</time></trkpt><trkpt lat="38.96243996" lon="-0.51035196"><ele>176.8</ele><time>2022-11-13T16:16:58.0000000+00:00</time></trkpt><trkpt lat="38.96242605" lon="-0.5103621"><ele>176.8</ele><time>2022-11-13T16:16:59.0000000+00:00</time></trkpt><trkpt lat="38.96241096" lon="-0.51037258"><ele>177.0</ele><time>2022-11-13T16:17:00.0000000+00:00</time></trkpt><trkpt lat="38.96239604" lon="-0.51038263"><ele>177.0</ele><time>2022-11-13T16:17:01.0000000+00:00</time></trkpt><trkpt lat="38.96238498" lon="-0.51039127"><ele>177.0</ele><time>2022-11-13T16:17:02.0000000+00:00</time></trkpt><trkpt lat="38.96237408" lon="-0.51040099"><ele>177.2</ele><time>2022-11-13T16:17:03.0000000+00:00</time></trkpt><trkpt lat="38.96236586" lon="-0.51040929"><ele>177.2</ele><time>2022-11-13T16:17:04.0000000+00:00</time></trkpt><trkpt lat="38.96235773" lon="-0.5104253"><ele>177.2</ele><time>2022-11-13T16:17:05.0000000+00:00</time></trkpt><trkpt lat="38.96235153" lon="-0.51043846"><ele>177.2</ele><time>2022-11-13T16:17:06.0000000+00:00</time></trkpt><trkpt lat="38.96234248" lon="-0.51045128"><ele>177.2</ele><time>2022-11-13T16:17:07.0000000+00:00</time></trkpt><trkpt lat="38.96233602" lon="-0.51046377"><ele>177.2</ele><time>2022-11-13T16:17:08.0000000+00:00</time></trkpt><trkpt lat="38.96232831" lon="-0.51048162"><ele>177.2</ele><time>2022-11-13T16:17:09.0000000+00:00</time></trkpt><trkpt lat="38.96232027" lon="-0.51049068"><ele>177.2</ele><time>2022-11-13T16:17:10.0000000+00:00</time></trkpt><trkpt lat="38.9623092" lon="-0.51050367"><ele>177.2</ele><time>2022-11-13T16:17:11.0000000+00:00</time></trkpt><trkpt lat="38.96229856" lon="-0.51051934"><ele>177.4</ele><time>2022-11-13T16:17:12.0000000+00:00</time></trkpt><trkpt lat="38.96229059" lon="-0.5105341"><ele>177.4</ele><time>2022-11-13T16:17:13.0000000+00:00</time></trkpt><trkpt lat="38.96228137" lon="-0.5105429"><ele>177.4</ele><time>2022-11-13T16:17:14.0000000+00:00</time></trkpt><trkpt lat="38.96227215" lon="-0.51055329"><ele>177.4</ele><time>2022-11-13T16:17:15.0000000+00:00</time></trkpt><trkpt lat="38.96226738" lon="-0.51056352"><ele>177.6</ele><time>2022-11-13T16:17:16.0000000+00:00</time></trkpt><trkpt lat="38.9622605" lon="-0.51057559"><ele>177.6</ele><time>2022-11-13T16:17:17.0000000+00:00</time></trkpt><trkpt lat="38.96225187" lon="-0.51058958"><ele>177.6</ele><time>2022-11-13T16:17:18.0000000+00:00</time></trkpt><trkpt lat="38.96224424" lon="-0.51060375"><ele>177.6</ele><time>2022-11-13T16:17:19.0000000+00:00</time></trkpt><trkpt lat="38.96223544" lon="-0.51061632"><ele>177.6</ele><time>2022-11-13T16:17:20.0000000+00:00</time></trkpt><trkpt lat="38.96222941" lon="-0.51063677"><ele>177.6</ele><time>2022-11-13T16:17:21.0000000+00:00</time></trkpt><trkpt lat="38.96222446" lon="-0.51065354"><ele>177.8</ele><time>2022-11-13T16:17:22.0000000+00:00</time></trkpt><trkpt lat="38.96222077" lon="-0.5106651"><ele>177.8</ele><time>2022-11-13T16:17:23.0000000+00:00</time></trkpt><trkpt lat="38.96221415" lon="-0.51068078"><ele>178.0</ele><time>2022-11-13T16:17:24.0000000+00:00</time></trkpt><trkpt lat="38.96221046" lon="-0.51069017"><ele>178.0</ele><time>2022-11-13T16:17:25.0000000+00:00</time></trkpt><trkpt lat="38.96220493" lon="-0.51070266"><ele>178.0</ele><time>2022-11-13T16:17:26.0000000+00:00</time></trkpt><trkpt lat="38.96219965" lon="-0.51072151"><ele>178.0</ele><time>2022-11-13T16:17:27.0000000+00:00</time></trkpt><trkpt lat="38.96219697" lon="-0.51073493"><ele>178.0</ele><time>2022-11-13T16:17:28.0000000+00:00</time></trkpt><trkpt lat="38.96219571" lon="-0.51074943"><ele>177.8</ele><time>2022-11-13T16:17:29.0000000+00:00</time></trkpt><trkpt lat="38.96219336" lon="-0.51076585"><ele>177.8</ele><time>2022-11-13T16:17:30.0000000+00:00</time></trkpt><trkpt lat="38.96219269" lon="-0.51078145"><ele>177.8</ele><time>2022-11-13T16:17:31.0000000+00:00</time></trkpt><trkpt lat="38.96218993" lon="-0.51079368"><ele>177.6</ele><time>2022-11-13T16:17:32.0000000+00:00</time></trkpt><trkpt lat="38.96218423" lon="-0.51080919"><ele>177.6</ele><time>2022-11-13T16:17:33.0000000+00:00</time></trkpt><trkpt lat="38.96217694" lon="-0.51082662"><ele>177.6</ele><time>2022-11-13T16:17:34.0000000+00:00</time></trkpt><trkpt lat="38.96217099" lon="-0.51083651"><ele>177.6</ele><time>2022-11-13T16:17:35.0000000+00:00</time></trkpt><trkpt lat="38.96216705" lon="-0.51084381"><ele>177.6</ele><time>2022-11-13T16:17:36.0000000+00:00</time></trkpt><trkpt lat="38.96216109" lon="-0.51085906"><ele>177.8</ele><time>2022-11-13T16:17:37.0000000+00:00</time></trkpt><trkpt lat="38.96215674" lon="-0.51087264"><ele>177.8</ele><time>2022-11-13T16:17:38.0000000+00:00</time></trkpt><trkpt lat="38.96215112" lon="-0.51089309"><ele>177.8</ele><time>2022-11-13T16:17:39.0000000+00:00</time></trkpt><trkpt lat="38.96213989" lon="-0.51091371"><ele>177.8</ele><time>2022-11-13T16:17:40.0000000+00:00</time></trkpt><trkpt lat="38.96213377" lon="-0.51093115"><ele>177.8</ele><time>2022-11-13T16:17:41.0000000+00:00</time></trkpt><trkpt lat="38.96213193" lon="-0.51094187"><ele>177.8</ele><time>2022-11-13T16:17:42.0000000+00:00</time></trkpt><trkpt lat="38.96212832" lon="-0.51095621"><ele>178.0</ele><time>2022-11-13T16:17:43.0000000+00:00</time></trkpt><trkpt lat="38.96212623" lon="-0.51096476"><ele>178.0</ele><time>2022-11-13T16:17:44.0000000+00:00</time></trkpt><trkpt lat="38.96212312" lon="-0.51097842"><ele>178.2</ele><time>2022-11-13T16:17:45.0000000+00:00</time></trkpt><trkpt lat="38.9621155" lon="-0.51099585"><ele>178.2</ele><time>2022-11-13T16:17:46.0000000+00:00</time></trkpt><trkpt lat="38.96211013" lon="-0.51101295"><ele>178.2</ele><time>2022-11-13T16:17:47.0000000+00:00</time></trkpt><trkpt lat="38.96210795" lon="-0.51102921"><ele>178.2</ele><time>2022-11-13T16:17:48.0000000+00:00</time></trkpt><trkpt lat="38.96210628" lon="-0.51104355"><ele>178.2</ele><time>2022-11-13T16:17:49.0000000+00:00</time></trkpt><trkpt lat="38.96210519" lon="-0.51105754"><ele>178.2</ele><time>2022-11-13T16:17:50.0000000+00:00</time></trkpt><trkpt lat="38.96210167" lon="-0.51107104"><ele>178.4</ele><time>2022-11-13T16:17:51.0000000+00:00</time></trkpt><trkpt lat="38.96209999" lon="-0.51108554"><ele>178.4</ele><time>2022-11-13T16:17:52.0000000+00:00</time></trkpt><trkpt lat="38.96209496" lon="-0.51110205"><ele>178.4</ele><time>2022-11-13T16:17:53.0000000+00:00</time></trkpt><trkpt lat="38.96208733" lon="-0.51111664"><ele>178.4</ele><time>2022-11-13T16:17:54.0000000+00:00</time></trkpt><trkpt lat="38.96208298" lon="-0.51113583"><ele>178.4</ele><time>2022-11-13T16:17:55.0000000+00:00</time></trkpt><trkpt lat="38.96207987" lon="-0.51114882"><ele>178.6</ele><time>2022-11-13T16:17:56.0000000+00:00</time></trkpt><trkpt lat="38.96207518" lon="-0.51116827"><ele>178.6</ele><time>2022-11-13T16:17:57.0000000+00:00</time></trkpt><trkpt lat="38.96206906" lon="-0.51118495"><ele>178.6</ele><time>2022-11-13T16:17:58.0000000+00:00</time></trkpt><trkpt lat="38.96206697" lon="-0.51119643"><ele>178.6</ele><time>2022-11-13T16:17:59.0000000+00:00</time></trkpt><trkpt lat="38.9620621" lon="-0.51120934"><ele>178.6</ele><time>2022-11-13T16:18:00.0000000+00:00</time></trkpt><trkpt lat="38.96205951" lon="-0.51122309"><ele>178.4</ele><time>2022-11-13T16:18:01.0000000+00:00</time></trkpt><trkpt lat="38.96205523" lon="-0.51123658"><ele>178.4</ele><time>2022-11-13T16:18:02.0000000+00:00</time></trkpt><trkpt lat="38.96205456" lon="-0.51125268"><ele>178.4</ele><time>2022-11-13T16:18:03.0000000+00:00</time></trkpt><trkpt lat="38.96205708" lon="-0.51126751"><ele>178.2</ele><time>2022-11-13T16:18:04.0000000+00:00</time></trkpt><trkpt lat="38.96205666" lon="-0.51128402"><ele>178.2</ele><time>2022-11-13T16:18:05.0000000+00:00</time></trkpt><trkpt lat="38.96205364" lon="-0.51129324"><ele>178.2</ele><time>2022-11-13T16:18:06.0000000+00:00</time></trkpt><trkpt lat="38.96205288" lon="-0.5113121"><ele>178.0</ele><time>2022-11-13T16:18:07.0000000+00:00</time></trkpt><trkpt lat="38.96204978" lon="-0.51132635"><ele>178.0</ele><time>2022-11-13T16:18:08.0000000+00:00</time></trkpt><trkpt lat="38.9620409" lon="-0.51133465"><ele>178.0</ele><time>2022-11-13T16:18:09.0000000+00:00</time></trkpt><trkpt lat="38.9620352" lon="-0.51134672"><ele>178.0</ele><time>2022-11-13T16:18:10.0000000+00:00</time></trkpt><trkpt lat="38.96202975" lon="-0.51135879"><ele>178.0</ele><time>2022-11-13T16:18:11.0000000+00:00</time></trkpt><trkpt lat="38.96202883" lon="-0.51136843"><ele>178.0</ele><time>2022-11-13T16:18:12.0000000+00:00</time></trkpt><trkpt lat="38.96202321" lon="-0.51137933"><ele>178.0</ele><time>2022-11-13T16:18:13.0000000+00:00</time></trkpt><trkpt lat="38.96201617" lon="-0.51139458"><ele>178.2</ele><time>2022-11-13T16:18:14.0000000+00:00</time></trkpt><trkpt lat="38.96201307" lon="-0.51140489"><ele>178.2</ele><time>2022-11-13T16:18:15.0000000+00:00</time></trkpt><trkpt lat="38.96200871" lon="-0.51142065"><ele>178.2</ele><time>2022-11-13T16:18:16.0000000+00:00</time></trkpt><trkpt lat="38.96200184" lon="-0.5114354"><ele>178.2</ele><time>2022-11-13T16:18:17.0000000+00:00</time></trkpt><trkpt lat="38.96199698" lon="-0.51144923"><ele>178.2</ele><time>2022-11-13T16:18:18.0000000+00:00</time></trkpt><trkpt lat="38.96199362" lon="-0.5114603"><ele>178.2</ele><time>2022-11-13T16:18:19.0000000+00:00</time></trkpt><trkpt lat="38.96199027" lon="-0.51147278"><ele>178.2</ele><time>2022-11-13T16:18:20.0000000+00:00</time></trkpt><trkpt lat="38.961987" lon="-0.51148569"><ele>178.2</ele><time>2022-11-13T16:18:21.0000000+00:00</time></trkpt><trkpt lat="38.96198449" lon="-0.51149734"><ele>178.2</ele><time>2022-11-13T16:18:22.0000000+00:00</time></trkpt><trkpt lat="38.96197954" lon="-0.51151612"><ele>178.2</ele><time>2022-11-13T16:18:23.0000000+00:00</time></trkpt><trkpt lat="38.96197703" lon="-0.51153179"><ele>178.2</ele><time>2022-11-13T16:18:24.0000000+00:00</time></trkpt><trkpt lat="38.961973" lon="-0.51154604"><ele>178.2</ele><time>2022-11-13T16:18:25.0000000+00:00</time></trkpt><trkpt lat="38.96196647" lon="-0.51156306"><ele>178.0</ele><time>2022-11-13T16:18:26.0000000+00:00</time></trkpt><trkpt lat="38.96196119" lon="-0.51157764"><ele>178.0</ele><time>2022-11-13T16:18:27.0000000+00:00</time></trkpt><trkpt lat="38.96195666" lon="-0.51158887"><ele>177.8</ele><time>2022-11-13T16:18:28.0000000+00:00</time></trkpt><trkpt lat="38.9619518" lon="-0.51160572"><ele>177.8</ele><time>2022-11-13T16:18:29.0000000+00:00</time></trkpt><trkpt lat="38.96195062" lon="-0.5116167"><ele>177.8</ele><time>2022-11-13T16:18:30.0000000+00:00</time></trkpt><trkpt lat="38.96194727" lon="-0.5116333"><ele>177.8</ele><time>2022-11-13T16:18:31.0000000+00:00</time></trkpt><trkpt lat="38.961944" lon="-0.51165149"><ele>177.6</ele><time>2022-11-13T16:18:32.0000000+00:00</time></trkpt><trkpt lat="38.9619414" lon="-0.51166708"><ele>177.6</ele><time>2022-11-13T16:18:33.0000000+00:00</time></trkpt><trkpt lat="38.96193814" lon="-0.51168283"><ele>177.6</ele><time>2022-11-13T16:18:34.0000000+00:00</time></trkpt><trkpt lat="38.9619352" lon="-0.51169985"><ele>177.6</ele><time>2022-11-13T16:18:35.0000000+00:00</time></trkpt><trkpt lat="38.96193353" lon="-0.51171636"><ele>177.6</ele><time>2022-11-13T16:18:36.0000000+00:00</time></trkpt><trkpt lat="38.96193202" lon="-0.51173355"><ele>177.6</ele><time>2022-11-13T16:18:37.0000000+00:00</time></trkpt><trkpt lat="38.96193394" lon="-0.51174796"><ele>177.6</ele><time>2022-11-13T16:18:38.0000000+00:00</time></trkpt><trkpt lat="38.96193478" lon="-0.51176481"><ele>177.6</ele><time>2022-11-13T16:18:39.0000000+00:00</time></trkpt><trkpt lat="38.96193663" lon="-0.51177671"><ele>177.6</ele><time>2022-11-13T16:18:40.0000000+00:00</time></trkpt><trkpt lat="38.96193738" lon="-0.51179163"><ele>177.6</ele><time>2022-11-13T16:18:41.0000000+00:00</time></trkpt><trkpt lat="38.96194157" lon="-0.51180295"><ele>177.8</ele><time>2022-11-13T16:18:42.0000000+00:00</time></trkpt><trkpt lat="38.96194425" lon="-0.51181912"><ele>177.8</ele><time>2022-11-13T16:18:43.0000000+00:00</time></trkpt><trkpt lat="38.96194652" lon="-0.51183321"><ele>177.8</ele><time>2022-11-13T16:18:44.0000000+00:00</time></trkpt><trkpt lat="38.96195071" lon="-0.51184687"><ele>177.8</ele><time>2022-11-13T16:18:45.0000000+00:00</time></trkpt><trkpt lat="38.96195389" lon="-0.51186464"><ele>178.0</ele><time>2022-11-13T16:18:46.0000000+00:00</time></trkpt><trkpt lat="38.96195088" lon="-0.51188283"><ele>178.0</ele><time>2022-11-13T16:18:47.0000000+00:00</time></trkpt><trkpt lat="38.96194895" lon="-0.51189632"><ele>178.0</ele><time>2022-11-13T16:18:48.0000000+00:00</time></trkpt><trkpt lat="38.9619518" lon="-0.5119135"><ele>178.0</ele><time>2022-11-13T16:18:49.0000000+00:00</time></trkpt><trkpt lat="38.96195716" lon="-0.51192708"><ele>178.0</ele><time>2022-11-13T16:18:50.0000000+00:00</time></trkpt><trkpt lat="38.96196077" lon="-0.51194284"><ele>177.8</ele><time>2022-11-13T16:18:51.0000000+00:00</time></trkpt><trkpt lat="38.96196161" lon="-0.51195852"><ele>178.0</ele><time>2022-11-13T16:18:52.0000000+00:00</time></trkpt><trkpt lat="38.96196622" lon="-0.51197411"><ele>178.0</ele><time>2022-11-13T16:18:53.0000000+00:00</time></trkpt><trkpt lat="38.96197099" lon="-0.5119933"><ele>178.0</ele><time>2022-11-13T16:18:54.0000000+00:00</time></trkpt><trkpt lat="38.96197644" lon="-0.51200587"><ele>178.0</ele><time>2022-11-13T16:18:55.0000000+00:00</time></trkpt><trkpt lat="38.96198181" lon="-0.51202482"><ele>178.0</ele><time>2022-11-13T16:18:56.0000000+00:00</time></trkpt><trkpt lat="38.96198273" lon="-0.51203228"><ele>178.0</ele><time>2022-11-13T16:18:57.0000000+00:00</time></trkpt><trkpt lat="38.96198357" lon="-0.51204627"><ele>178.0</ele><time>2022-11-13T16:18:58.0000000+00:00</time></trkpt><trkpt lat="38.96198591" lon="-0.51205952"><ele>178.0</ele><time>2022-11-13T16:18:59.0000000+00:00</time></trkpt><trkpt lat="38.96199019" lon="-0.51207519"><ele>177.8</ele><time>2022-11-13T16:19:00.0000000+00:00</time></trkpt><trkpt lat="38.9619974" lon="-0.51209045"><ele>177.8</ele><time>2022-11-13T16:19:01.0000000+00:00</time></trkpt><trkpt lat="38.96200226" lon="-0.51210386"><ele>177.8</ele><time>2022-11-13T16:19:02.0000000+00:00</time></trkpt><trkpt lat="38.96200343" lon="-0.51211936"><ele>177.8</ele><time>2022-11-13T16:19:03.0000000+00:00</time></trkpt><trkpt lat="38.9620041" lon="-0.51213495"><ele>177.8</ele><time>2022-11-13T16:19:04.0000000+00:00</time></trkpt><trkpt lat="38.9620015" lon="-0.51214962"><ele>177.8</ele><time>2022-11-13T16:19:05.0000000+00:00</time></trkpt><trkpt lat="38.96199748" lon="-0.51216345"><ele>177.8</ele><time>2022-11-13T16:19:06.0000000+00:00</time></trkpt><trkpt lat="38.96199245" lon="-0.51217753"><ele>177.8</ele><time>2022-11-13T16:19:07.0000000+00:00</time></trkpt><trkpt lat="38.96199036" lon="-0.51219841"><ele>177.8</ele><time>2022-11-13T16:19:08.0000000+00:00</time></trkpt><trkpt lat="38.96198977" lon="-0.51221333"><ele>177.6</ele><time>2022-11-13T16:19:09.0000000+00:00</time></trkpt><trkpt lat="38.96198851" lon="-0.51222707"><ele>177.6</ele><time>2022-11-13T16:19:10.0000000+00:00</time></trkpt><trkpt lat="38.96198859" lon="-0.51224166"><ele>177.6</ele><time>2022-11-13T16:19:11.0000000+00:00</time></trkpt><trkpt lat="38.96199178" lon="-0.51225817"><ele>177.6</ele><time>2022-11-13T16:19:12.0000000+00:00</time></trkpt><trkpt lat="38.96199446" lon="-0.51227384"><ele>177.4</ele><time>2022-11-13T16:19:13.0000000+00:00</time></trkpt><trkpt lat="38.96199597" lon="-0.51229195"><ele>177.4</ele><time>2022-11-13T16:19:14.0000000+00:00</time></trkpt><trkpt lat="38.96199882" lon="-0.51230544"><ele>177.4</ele><time>2022-11-13T16:19:15.0000000+00:00</time></trkpt><trkpt lat="38.96199681" lon="-0.51232338"><ele>177.4</ele><time>2022-11-13T16:19:16.0000000+00:00</time></trkpt><trkpt lat="38.96199421" lon="-0.51234165"><ele>177.2</ele><time>2022-11-13T16:19:17.0000000+00:00</time></trkpt><trkpt lat="38.96199128" lon="-0.5123559"><ele>177.4</ele><time>2022-11-13T16:19:18.0000000+00:00</time></trkpt><trkpt lat="38.96199144" lon="-0.51237417"><ele>177.4</ele><time>2022-11-13T16:19:19.0000000+00:00</time></trkpt><trkpt lat="38.96199027" lon="-0.51239396"><ele>177.4</ele><time>2022-11-13T16:19:20.0000000+00:00</time></trkpt><trkpt lat="38.96199052" lon="-0.51241072"><ele>177.4</ele><time>2022-11-13T16:19:21.0000000+00:00</time></trkpt><trkpt lat="38.96198952" lon="-0.51243067"><ele>177.4</ele><time>2022-11-13T16:19:22.0000000+00:00</time></trkpt><trkpt lat="38.96198868" lon="-0.51244911"><ele>177.4</ele><time>2022-11-13T16:19:23.0000000+00:00</time></trkpt><trkpt lat="38.9619901" lon="-0.51246462"><ele>177.6</ele><time>2022-11-13T16:19:24.0000000+00:00</time></trkpt><trkpt lat="38.96199798" lon="-0.51248247"><ele>177.4</ele><time>2022-11-13T16:19:25.0000000+00:00</time></trkpt><trkpt lat="38.96200209" lon="-0.51249764"><ele>177.4</ele><time>2022-11-13T16:19:26.0000000+00:00</time></trkpt><trkpt lat="38.96200377" lon="-0.51251357"><ele>177.4</ele><time>2022-11-13T16:19:27.0000000+00:00</time></trkpt><trkpt lat="38.96200544" lon="-0.51252974"><ele>177.4</ele><time>2022-11-13T16:19:28.0000000+00:00</time></trkpt><trkpt lat="38.96200913" lon="-0.51254625"><ele>177.4</ele><time>2022-11-13T16:19:29.0000000+00:00</time></trkpt><trkpt lat="38.96201374" lon="-0.51255983"><ele>177.4</ele><time>2022-11-13T16:19:30.0000000+00:00</time></trkpt><trkpt lat="38.96201575" lon="-0.5125719"><ele>177.4</ele><time>2022-11-13T16:19:31.0000000+00:00</time></trkpt><trkpt lat="38.96201198" lon="-0.51258112"><ele>177.4</ele><time>2022-11-13T16:19:32.0000000+00:00</time></trkpt><trkpt lat="38.96201257" lon="-0.51258221"><ele>177.4</ele><time>2022-11-13T16:19:33.0000000+00:00</time></trkpt><trkpt lat="38.96200142" lon="-0.51258892"><ele>177.4</ele><time>2022-11-13T16:19:34.0000000+00:00</time></trkpt><trkpt lat="38.9619989" lon="-0.51259085"><ele>177.4</ele><time>2022-11-13T16:19:35.0000000+00:00</time></trkpt><trkpt lat="38.96199966" lon="-0.51259127"><ele>177.4</ele><time>2022-11-13T16:19:36.0000000+00:00</time></trkpt><trkpt lat="38.96200033" lon="-0.51258984"><ele>177.4</ele><time>2022-11-13T16:19:37.0000000+00:00</time></trkpt><trkpt lat="38.96199991" lon="-0.51258951"><ele>177.4</ele><time>2022-11-13T16:19:38.0000000+00:00</time></trkpt><trkpt lat="38.96200083" lon="-0.51258649"><ele>177.4</ele><time>2022-11-13T16:19:39.0000000+00:00</time></trkpt><trkpt lat="38.96200284" lon="-0.51258347"><ele>177.4</ele><time>2022-11-13T16:19:40.0000000+00:00</time></trkpt><trkpt lat="38.96200301" lon="-0.51258288"><ele>177.4</ele><time>2022-11-13T16:19:41.0000000+00:00</time></trkpt><trkpt lat="38.96200268" lon="-0.51258314"><ele>177.4</ele><time>2022-11-13T16:19:42.0000000+00:00</time></trkpt><trkpt lat="38.96200234" lon="-0.51258339"><ele>177.4</ele><time>2022-11-13T16:19:43.0000000+00:00</time></trkpt><trkpt lat="38.96200234" lon="-0.51258339"><ele>177.4</ele><time>2022-11-13T16:19:44.0000000+00:00</time></trkpt><trkpt lat="38.96200234" lon="-0.51258339"><ele>177.4</ele><time>2022-11-13T16:19:45.0000000+00:00</time></trkpt><trkpt lat="38.96200234" lon="-0.51258339"><ele>177.4</ele><time>2022-11-13T16:19:46.0000000+00:00</time></trkpt><trkpt lat="38.96200234" lon="-0.51258339"><ele>177.2</ele><time>2022-11-13T16:19:47.0000000+00:00</time></trkpt><trkpt lat="38.96200234" lon="-0.51258339"><ele>177.2</ele><time>2022-11-13T16:19:48.0000000+00:00</time></trkpt><trkpt lat="38.96200234" lon="-0.51258339"><ele>177.2</ele><time>2022-11-13T16:19:49.0000000+00:00</time></trkpt><trkpt lat="38.96200234" lon="-0.51258339"><ele>177.2</ele><time>2022-11-13T16:19:50.0000000+00:00</time></trkpt><trkpt lat="38.96200234" lon="-0.51258339"><ele>177.2</ele><time>2022-11-13T16:19:51.0000000+00:00</time></trkpt><trkpt lat="38.96200234" lon="-0.51258339"><ele>177.2</ele><time>2022-11-13T16:19:52.0000000+00:00</time></trkpt><trkpt lat="38.96200234" lon="-0.51258347"><ele>177.2</ele><time>2022-11-13T16:19:53.0000000+00:00</time></trkpt><trkpt lat="38.96200234" lon="-0.5125849"><ele>177.2</ele><time>2022-11-13T16:19:54.0000000+00:00</time></trkpt><trkpt lat="38.96200234" lon="-0.5125864"><ele>177.2</ele><time>2022-11-13T16:19:55.0000000+00:00</time></trkpt><trkpt lat="38.96200234" lon="-0.51258682"><ele>177.2</ele><time>2022-11-13T16:19:56.0000000+00:00</time></trkpt><trkpt lat="38.96200234" lon="-0.51258691"><ele>177.2</ele><time>2022-11-13T16:19:57.0000000+00:00</time></trkpt><trkpt lat="38.96200234" lon="-0.51258749"><ele>177.2</ele><time>2022-11-13T16:19:58.0000000+00:00</time></trkpt><trkpt lat="38.96200251" lon="-0.51258749"><ele>177.2</ele><time>2022-11-13T16:19:59.0000000+00:00</time></trkpt><trkpt lat="38.96200268" lon="-0.51258749"><ele>177.2</ele><time>2022-11-13T16:20:00.0000000+00:00</time></trkpt><trkpt lat="38.96200284" lon="-0.51258749"><ele>177.2</ele><time>2022-11-13T16:20:01.0000000+00:00</time></trkpt><trkpt lat="38.96200293" lon="-0.51258749"><ele>177.2</ele><time>2022-11-13T16:20:02.0000000+00:00</time></trkpt><trkpt lat="38.96200301" lon="-0.51258749"><ele>177.2</ele><time>2022-11-13T16:20:03.0000000+00:00</time></trkpt><trkpt lat="38.96200326" lon="-0.51258749"><ele>177.2</ele><time>2022-11-13T16:20:04.0000000+00:00</time></trkpt><trkpt lat="38.96200326" lon="-0.51258699"><ele>177.0</ele><time>2022-11-13T16:20:05.0000000+00:00</time></trkpt><trkpt lat="38.9620036" lon="-0.51258682"><ele>177.0</ele><time>2022-11-13T16:20:06.0000000+00:00</time></trkpt><trkpt lat="38.96200368" lon="-0.51258657"><ele>177.0</ele><time>2022-11-13T16:20:07.0000000+00:00</time></trkpt><trkpt lat="38.9620041" lon="-0.51258607"><ele>177.0</ele><time>2022-11-13T16:20:08.0000000+00:00</time></trkpt><trkpt lat="38.96200427" lon="-0.51258515"><ele>177.0</ele><time>2022-11-13T16:20:09.0000000+00:00</time></trkpt><trkpt lat="38.96200435" lon="-0.51258531"><ele>177.0</ele><time>2022-11-13T16:20:10.0000000+00:00</time></trkpt><trkpt lat="38.96200452" lon="-0.5125859"><ele>177.0</ele><time>2022-11-13T16:20:11.0000000+00:00</time></trkpt><trkpt lat="38.96200494" lon="-0.51258599"><ele>177.2</ele><time>2022-11-13T16:20:12.0000000+00:00</time></trkpt><trkpt lat="38.96200502" lon="-0.51258599"><ele>177.0</ele><time>2022-11-13T16:20:13.0000000+00:00</time></trkpt><trkpt lat="38.96200502" lon="-0.51258599"><ele>177.0</ele><time>2022-11-13T16:20:14.0000000+00:00</time></trkpt><trkpt lat="38.96200502" lon="-0.51258599"><ele>177.0</ele><time>2022-11-13T16:20:15.0000000+00:00</time></trkpt><trkpt lat="38.96200502" lon="-0.51258557"><ele>177.0</ele><time>2022-11-13T16:20:16.0000000+00:00</time></trkpt><trkpt lat="38.96200502" lon="-0.5125854"><ele>177.0</ele><time>2022-11-13T16:20:17.0000000+00:00</time></trkpt><trkpt lat="38.96200502" lon="-0.51258506"><ele>177.2</ele><time>2022-11-13T16:20:18.0000000+00:00</time></trkpt><trkpt lat="38.96200502" lon="-0.51258498"><ele>177.2</ele><time>2022-11-13T16:20:19.0000000+00:00</time></trkpt><trkpt lat="38.96200502" lon="-0.51258448"><ele>177.2</ele><time>2022-11-13T16:20:20.0000000+00:00</time></trkpt><trkpt lat="38.96200502" lon="-0.51258406"><ele>177.2</ele><time>2022-11-13T16:20:21.0000000+00:00</time></trkpt><trkpt lat="38.96200502" lon="-0.51258389"><ele>177.0</ele><time>2022-11-13T16:20:22.0000000+00:00</time></trkpt><trkpt lat="38.96200502" lon="-0.51258364"><ele>177.0</ele><time>2022-11-13T16:20:23.0000000+00:00</time></trkpt><trkpt lat="38.96200502" lon="-0.51258355"><ele>177.0</ele><time>2022-11-13T16:20:24.0000000+00:00</time></trkpt><trkpt lat="38.96200502" lon="-0.51258355"><ele>177.0</ele><time>2022-11-13T16:20:25.0000000+00:00</time></trkpt><trkpt lat="38.96200502" lon="-0.51258347"><ele>177.0</ele><time>2022-11-13T16:20:26.0000000+00:00</time></trkpt><trkpt lat="38.96200502" lon="-0.51258347"><ele>177.0</ele><time>2022-11-13T16:20:27.0000000+00:00</time></trkpt><trkpt lat="38.96200435" lon="-0.51258339"><ele>177.0</ele><time>2022-11-13T16:20:28.0000000+00:00</time></trkpt><trkpt lat="38.96200343" lon="-0.5125833"><ele>177.2</ele><time>2022-11-13T16:20:29.0000000+00:00</time></trkpt><trkpt lat="38.96200301" lon="-0.51258322"><ele>177.2</ele><time>2022-11-13T16:20:30.0000000+00:00</time></trkpt><trkpt lat="38.96200293" lon="-0.51258305"><ele>177.2</ele><time>2022-11-13T16:20:31.0000000+00:00</time></trkpt><trkpt lat="38.96200276" lon="-0.51258297"><ele>177.2</ele><time>2022-11-13T16:20:32.0000000+00:00</time></trkpt><trkpt lat="38.96200251" lon="-0.51258297"><ele>177.0</ele><time>2022-11-13T16:20:33.0000000+00:00</time></trkpt><trkpt lat="38.96200217" lon="-0.51258288"><ele>177.0</ele><time>2022-11-13T16:20:34.0000000+00:00</time></trkpt><trkpt lat="38.96200209" lon="-0.51258272"><ele>177.0</ele><time>2022-11-13T16:20:35.0000000+00:00</time></trkpt><trkpt lat="38.96200167" lon="-0.51258246"><ele>177.0</ele><time>2022-11-13T16:20:36.0000000+00:00</time></trkpt><trkpt lat="38.96200142" lon="-0.51258238"><ele>177.0</ele><time>2022-11-13T16:20:37.0000000+00:00</time></trkpt><trkpt lat="38.96200134" lon="-0.51258238"><ele>177.0</ele><time>2022-11-13T16:20:38.0000000+00:00</time></trkpt><trkpt lat="38.96200134" lon="-0.51258188"><ele>177.0</ele><time>2022-11-13T16:20:39.0000000+00:00</time></trkpt><trkpt lat="38.96200134" lon="-0.51258171"><ele>177.0</ele><time>2022-11-13T16:20:40.0000000+00:00</time></trkpt><trkpt lat="38.96200134" lon="-0.51258146"><ele>177.0</ele><time>2022-11-13T16:20:41.0000000+00:00</time></trkpt><trkpt lat="38.96200134" lon="-0.51258137"><ele>177.0</ele><time>2022-11-13T16:20:42.0000000+00:00</time></trkpt><trkpt lat="38.96200134" lon="-0.51258121"><ele>177.0</ele><time>2022-11-13T16:20:43.0000000+00:00</time></trkpt><trkpt lat="38.96200134" lon="-0.51258087"><ele>177.0</ele><time>2022-11-13T16:20:44.0000000+00:00</time></trkpt><trkpt lat="38.96200134" lon="-0.5125807"><ele>177.0</ele><time>2022-11-13T16:20:45.0000000+00:00</time></trkpt><trkpt lat="38.96200134" lon="-0.51258054"><ele>177.0</ele><time>2022-11-13T16:20:46.0000000+00:00</time></trkpt><trkpt lat="38.9620015" lon="-0.51258003"><ele>177.0</ele><time>2022-11-13T16:20:47.0000000+00:00</time></trkpt><trkpt lat="38.96200184" lon="-0.51257995"><ele>177.0</ele><time>2022-11-13T16:20:48.0000000+00:00</time></trkpt><trkpt lat="38.96200192" lon="-0.51257987"><ele>177.0</ele><time>2022-11-13T16:20:49.0000000+00:00</time></trkpt><trkpt lat="38.96200226" lon="-0.5125797"><ele>177.0</ele><time>2022-11-13T16:20:50.0000000+00:00</time></trkpt><trkpt lat="38.96200243" lon="-0.51257953"><ele>177.0</ele><time>2022-11-13T16:20:51.0000000+00:00</time></trkpt><trkpt lat="38.96200259" lon="-0.51257894"><ele>177.0</ele><time>2022-11-13T16:20:52.0000000+00:00</time></trkpt><trkpt lat="38.96200284" lon="-0.51257811"><ele>177.0</ele><time>2022-11-13T16:20:53.0000000+00:00</time></trkpt><trkpt lat="38.96200301" lon="-0.51257744"><ele>177.0</ele><time>2022-11-13T16:20:54.0000000+00:00</time></trkpt><trkpt lat="38.9620031" lon="-0.5125771"><ele>177.0</ele><time>2022-11-13T16:20:55.0000000+00:00</time></trkpt><trkpt lat="38.96200318" lon="-0.51257693"><ele>177.0</ele><time>2022-11-13T16:20:56.0000000+00:00</time></trkpt><trkpt lat="38.96200343" lon="-0.51257693"><ele>177.0</ele><time>2022-11-13T16:20:57.0000000+00:00</time></trkpt><trkpt lat="38.96200351" lon="-0.51257676"><ele>177.0</ele><time>2022-11-13T16:20:58.0000000+00:00</time></trkpt><trkpt lat="38.9620036" lon="-0.51257668"><ele>177.0</ele><time>2022-11-13T16:20:59.0000000+00:00</time></trkpt><trkpt lat="38.96200368" lon="-0.5125766"><ele>177.0</ele><time>2022-11-13T16:21:00.0000000+00:00</time></trkpt><trkpt lat="38.96200368" lon="-0.51257635"><ele>177.0</ele><time>2022-11-13T16:21:01.0000000+00:00</time></trkpt><trkpt lat="38.96200377" lon="-0.51257618"><ele>177.0</ele><time>2022-11-13T16:21:02.0000000+00:00</time></trkpt><trkpt lat="38.96200377" lon="-0.51257534"><ele>177.0</ele><time>2022-11-13T16:21:03.0000000+00:00</time></trkpt><trkpt lat="38.96200393" lon="-0.51257442"><ele>177.0</ele><time>2022-11-13T16:21:04.0000000+00:00</time></trkpt><trkpt lat="38.96200393" lon="-0.51257358"><ele>177.0</ele><time>2022-11-13T16:21:05.0000000+00:00</time></trkpt><trkpt lat="38.96200402" lon="-0.51257283"><ele>177.0</ele><time>2022-11-13T16:21:06.0000000+00:00</time></trkpt><trkpt lat="38.96200427" lon="-0.51257232"><ele>177.0</ele><time>2022-11-13T16:21:07.0000000+00:00</time></trkpt><trkpt lat="38.96200435" lon="-0.5125714"><ele>177.0</ele><time>2022-11-13T16:21:08.0000000+00:00</time></trkpt><trkpt lat="38.96200444" lon="-0.51257098"><ele>177.0</ele><time>2022-11-13T16:21:09.0000000+00:00</time></trkpt><trkpt lat="38.96200444" lon="-0.51257073"><ele>177.0</ele><time>2022-11-13T16:21:10.0000000+00:00</time></trkpt><trkpt lat="38.96200452" lon="-0.51257056"><ele>177.0</ele><time>2022-11-13T16:21:11.0000000+00:00</time></trkpt><trkpt lat="38.96200452" lon="-0.51257048"><ele>177.0</ele><time>2022-11-13T16:21:12.0000000+00:00</time></trkpt><trkpt lat="38.96200452" lon="-0.51257048"><ele>177.0</ele><time>2022-11-13T16:21:13.0000000+00:00</time></trkpt><trkpt lat="38.96200452" lon="-0.51257039"><ele>177.0</ele><time>2022-11-13T16:21:14.0000000+00:00</time></trkpt><trkpt lat="38.96200452" lon="-0.51257039"><ele>177.0</ele><time>2022-11-13T16:21:15.0000000+00:00</time></trkpt><trkpt lat="38.96200452" lon="-0.51257031"><ele>177.0</ele><time>2022-11-13T16:21:16.0000000+00:00</time></trkpt><trkpt lat="38.96200452" lon="-0.51257023"><ele>177.0</ele><time>2022-11-13T16:21:17.0000000+00:00</time></trkpt><trkpt lat="38.96200452" lon="-0.51257023"><ele>177.0</ele><time>2022-11-13T16:21:18.0000000+00:00</time></trkpt><trkpt lat="38.9620046" lon="-0.51257006"><ele>177.0</ele><time>2022-11-13T16:21:19.0000000+00:00</time></trkpt><trkpt lat="38.9620046" lon="-0.51256989"><ele>177.0</ele><time>2022-11-13T16:21:20.0000000+00:00</time></trkpt><trkpt lat="38.96200469" lon="-0.51256981"><ele>177.0</ele><time>2022-11-13T16:21:21.0000000+00:00</time></trkpt><trkpt lat="38.96200477" lon="-0.51256972"><ele>177.0</ele><time>2022-11-13T16:21:22.0000000+00:00</time></trkpt><trkpt lat="38.96200477" lon="-0.51256905"><ele>177.0</ele><time>2022-11-13T16:21:23.0000000+00:00</time></trkpt><trkpt lat="38.96200486" lon="-0.51256822"><ele>177.0</ele><time>2022-11-13T16:21:24.0000000+00:00</time></trkpt><trkpt lat="38.96200486" lon="-0.51256754"><ele>177.0</ele><time>2022-11-13T16:21:25.0000000+00:00</time></trkpt><trkpt lat="38.96200486" lon="-0.51256704"><ele>177.0</ele><time>2022-11-13T16:21:26.0000000+00:00</time></trkpt><trkpt lat="38.96200486" lon="-0.51256671"><ele>177.0</ele><time>2022-11-13T16:21:27.0000000+00:00</time></trkpt><trkpt lat="38.96200486" lon="-0.5125662"><ele>177.0</ele><time>2022-11-13T16:21:28.0000000+00:00</time></trkpt><trkpt lat="38.96200486" lon="-0.51256587"><ele>177.0</ele><time>2022-11-13T16:21:29.0000000+00:00</time></trkpt><trkpt lat="38.96200486" lon="-0.51256562"><ele>177.0</ele><time>2022-11-13T16:21:30.0000000+00:00</time></trkpt><trkpt lat="38.96200477" lon="-0.51256545"><ele>177.0</ele><time>2022-11-13T16:21:31.0000000+00:00</time></trkpt><trkpt lat="38.96200477" lon="-0.5125652"><ele>177.0</ele><time>2022-11-13T16:21:32.0000000+00:00</time></trkpt><trkpt lat="38.96200477" lon="-0.51256486"><ele>177.0</ele><time>2022-11-13T16:21:33.0000000+00:00</time></trkpt><trkpt lat="38.96200477" lon="-0.51256436"><ele>177.0</ele><time>2022-11-13T16:21:34.0000000+00:00</time></trkpt><trkpt lat="38.96200469" lon="-0.51256377"><ele>177.0</ele><time>2022-11-13T16:21:35.0000000+00:00</time></trkpt><trkpt lat="38.96200469" lon="-0.51256335"><ele>177.0</ele><time>2022-11-13T16:21:36.0000000+00:00</time></trkpt><trkpt lat="38.96200469" lon="-0.51256293"><ele>177.0</ele><time>2022-11-13T16:21:37.0000000+00:00</time></trkpt><trkpt lat="38.96200469" lon="-0.51256277"><ele>177.0</ele><time>2022-11-13T16:21:38.0000000+00:00</time></trkpt><trkpt lat="38.96200469" lon="-0.5125626"><ele>177.0</ele><time>2022-11-13T16:21:39.0000000+00:00</time></trkpt><trkpt lat="38.96200469" lon="-0.51256243"><ele>177.0</ele><time>2022-11-13T16:21:40.0000000+00:00</time></trkpt><trkpt lat="38.96200469" lon="-0.51256235"><ele>177.0</ele><time>2022-11-13T16:21:41.0000000+00:00</time></trkpt><trkpt lat="38.96200469" lon="-0.51256226"><ele>177.0</ele><time>2022-11-13T16:21:42.0000000+00:00</time></trkpt><trkpt lat="38.96200469" lon="-0.51256226"><ele>177.0</ele><time>2022-11-13T16:21:43.0000000+00:00</time></trkpt><trkpt lat="38.96200469" lon="-0.51256218"><ele>177.0</ele><time>2022-11-13T16:21:44.0000000+00:00</time></trkpt><trkpt lat="38.96200469" lon="-0.51256218"><ele>177.0</ele><time>2022-11-13T16:21:45.0000000+00:00</time></trkpt><trkpt lat="38.96200477" lon="-0.51256687"><ele>177.0</ele><time>2022-11-13T16:21:46.0000000+00:00</time></trkpt><trkpt lat="38.96200569" lon="-0.51258624"><ele>177.0</ele><time>2022-11-13T16:21:47.0000000+00:00</time></trkpt><trkpt lat="38.96200762" lon="-0.51260602"><ele>177.0</ele><time>2022-11-13T16:21:48.0000000+00:00</time></trkpt><trkpt lat="38.96201307" lon="-0.51262412"><ele>177.0</ele><time>2022-11-13T16:21:49.0000000+00:00</time></trkpt><trkpt lat="38.96201885" lon="-0.51264005"><ele>177.0</ele><time>2022-11-13T16:21:50.0000000+00:00</time></trkpt><trkpt lat="38.9620233" lon="-0.51265614"><ele>177.0</ele><time>2022-11-13T16:21:51.0000000+00:00</time></trkpt><trkpt lat="38.96202715" lon="-0.51267341"><ele>177.0</ele><time>2022-11-13T16:21:52.0000000+00:00</time></trkpt><trkpt lat="38.96202866" lon="-0.51268917"><ele>177.0</ele><time>2022-11-13T16:21:53.0000000+00:00</time></trkpt><trkpt lat="38.96202791" lon="-0.5127102"><ele>177.0</ele><time>2022-11-13T16:21:54.0000000+00:00</time></trkpt><trkpt lat="38.96202883" lon="-0.51273133"><ele>177.0</ele><time>2022-11-13T16:21:55.0000000+00:00</time></trkpt><trkpt lat="38.96202765" lon="-0.51274516"><ele>177.0</ele><time>2022-11-13T16:21:56.0000000+00:00</time></trkpt><trkpt lat="38.96203034" lon="-0.51275413"><ele>177.0</ele><time>2022-11-13T16:21:57.0000000+00:00</time></trkpt><trkpt lat="38.9620362" lon="-0.51275773"><ele>177.0</ele><time>2022-11-13T16:21:58.0000000+00:00</time></trkpt><trkpt lat="38.96203897" lon="-0.51276201"><ele>177.0</ele><time>2022-11-13T16:21:59.0000000+00:00</time></trkpt><trkpt lat="38.96204098" lon="-0.51276167"><ele>177.0</ele><time>2022-11-13T16:22:00.0000000+00:00</time></trkpt><trkpt lat="38.96204383" lon="-0.51276234"><ele>177.0</ele><time>2022-11-13T16:22:01.0000000+00:00</time></trkpt><trkpt lat="38.96204492" lon="-0.51276293"><ele>177.0</ele><time>2022-11-13T16:22:02.0000000+00:00</time></trkpt><trkpt lat="38.96204475" lon="-0.51275983"><ele>177.0</ele><time>2022-11-13T16:22:03.0000000+00:00</time></trkpt><trkpt lat="38.96204375" lon="-0.51275689"><ele>177.0</ele><time>2022-11-13T16:22:04.0000000+00:00</time></trkpt><trkpt lat="38.96204031" lon="-0.51275387"><ele>177.0</ele><time>2022-11-13T16:22:05.0000000+00:00</time></trkpt><trkpt lat="38.96203377" lon="-0.51274549"><ele>177.0</ele><time>2022-11-13T16:22:06.0000000+00:00</time></trkpt><trkpt lat="38.9620269" lon="-0.51273149"><ele>177.0</ele><time>2022-11-13T16:22:07.0000000+00:00</time></trkpt><trkpt lat="38.96201793" lon="-0.51272311"><ele>177.0</ele><time>2022-11-13T16:22:08.0000000+00:00</time></trkpt><trkpt lat="38.96200653" lon="-0.51271875"><ele>177.0</ele><time>2022-11-13T16:22:09.0000000+00:00</time></trkpt><trkpt lat="38.96199547" lon="-0.51272043"><ele>177.0</ele><time>2022-11-13T16:22:10.0000000+00:00</time></trkpt><trkpt lat="38.96198591" lon="-0.51272454"><ele>177.0</ele><time>2022-11-13T16:22:11.0000000+00:00</time></trkpt><trkpt lat="38.96197309" lon="-0.51273602"><ele>177.0</ele><time>2022-11-13T16:22:12.0000000+00:00</time></trkpt><trkpt lat="38.96195993" lon="-0.51274876"><ele>177.0</ele><time>2022-11-13T16:22:13.0000000+00:00</time></trkpt><trkpt lat="38.96195012" lon="-0.51276276"><ele>177.0</ele><time>2022-11-13T16:22:14.0000000+00:00</time></trkpt><trkpt lat="38.96194291" lon="-0.51277525"><ele>177.0</ele><time>2022-11-13T16:22:15.0000000+00:00</time></trkpt><trkpt lat="38.96193696" lon="-0.51278975"><ele>177.0</ele><time>2022-11-13T16:22:16.0000000+00:00</time></trkpt><trkpt lat="38.9619311" lon="-0.51280182"><ele>177.0</ele><time>2022-11-13T16:22:17.0000000+00:00</time></trkpt><trkpt lat="38.96192523" lon="-0.51281406"><ele>177.4</ele><time>2022-11-13T16:22:18.0000000+00:00</time></trkpt><trkpt lat="38.96192364" lon="-0.51282076"><ele>177.8</ele><time>2022-11-13T16:22:19.0000000+00:00</time></trkpt><trkpt lat="38.96192204" lon="-0.5128299"><ele>178.0</ele><time>2022-11-13T16:22:20.0000000+00:00</time></trkpt><trkpt lat="38.96191903" lon="-0.5128382"><ele>178.0</ele><time>2022-11-13T16:22:21.0000000+00:00</time></trkpt><trkpt lat="38.96191626" lon="-0.51284809"><ele>178.2</ele><time>2022-11-13T16:22:22.0000000+00:00</time></trkpt><trkpt lat="38.96191299" lon="-0.5128584"><ele>178.4</ele><time>2022-11-13T16:22:23.0000000+00:00</time></trkpt><trkpt lat="38.96191006" lon="-0.5128677"><ele>178.6</ele><time>2022-11-13T16:22:24.0000000+00:00</time></trkpt><trkpt lat="38.96190578" lon="-0.51288086"><ele>178.6</ele><time>2022-11-13T16:22:25.0000000+00:00</time></trkpt><trkpt lat="38.96189908" lon="-0.51289771"><ele>178.6</ele><time>2022-11-13T16:22:26.0000000+00:00</time></trkpt><trkpt lat="38.9618969" lon="-0.51290995"><ele>178.8</ele><time>2022-11-13T16:22:27.0000000+00:00</time></trkpt><trkpt lat="38.96189581" lon="-0.51292327"><ele>178.8</ele><time>2022-11-13T16:22:28.0000000+00:00</time></trkpt><trkpt lat="38.96189497" lon="-0.5129397"><ele>178.8</ele><time>2022-11-13T16:22:29.0000000+00:00</time></trkpt><trkpt lat="38.96189815" lon="-0.51295211"><ele>178.8</ele><time>2022-11-13T16:22:30.0000000+00:00</time></trkpt><trkpt lat="38.96190603" lon="-0.51297373"><ele>178.8</ele><time>2022-11-13T16:22:31.0000000+00:00</time></trkpt><trkpt lat="38.96191928" lon="-0.51299687"><ele>178.8</ele><time>2022-11-13T16:22:32.0000000+00:00</time></trkpt><trkpt lat="38.9619264" lon="-0.51300827"><ele>178.8</ele><time>2022-11-13T16:22:33.0000000+00:00</time></trkpt><trkpt lat="38.96193554" lon="-0.51301539"><ele>178.6</ele><time>2022-11-13T16:22:34.0000000+00:00</time></trkpt><trkpt lat="38.96194342" lon="-0.51301707"><ele>178.6</ele><time>2022-11-13T16:22:35.0000000+00:00</time></trkpt><trkpt lat="38.96194819" lon="-0.5130314"><ele>178.6</ele><time>2022-11-13T16:22:36.0000000+00:00</time></trkpt><trkpt lat="38.96195473" lon="-0.51304037"><ele>178.6</ele><time>2022-11-13T16:22:37.0000000+00:00</time></trkpt><trkpt lat="38.96195758" lon="-0.5130407"><ele>178.6</ele><time>2022-11-13T16:22:38.0000000+00:00</time></trkpt><trkpt lat="38.96196152" lon="-0.51303601"><ele>178.4</ele><time>2022-11-13T16:22:39.0000000+00:00</time></trkpt><trkpt lat="38.9619642" lon="-0.51303065"><ele>178.4</ele><time>2022-11-13T16:22:40.0000000+00:00</time></trkpt><trkpt lat="38.96196915" lon="-0.51302654"><ele>178.4</ele><time>2022-11-13T16:22:41.0000000+00:00</time></trkpt><trkpt lat="38.96197636" lon="-0.51302344"><ele>178.4</ele><time>2022-11-13T16:22:42.0000000+00:00</time></trkpt><trkpt lat="38.96198591" lon="-0.51301925"><ele>178.4</ele><time>2022-11-13T16:22:43.0000000+00:00</time></trkpt><trkpt lat="38.96199505" lon="-0.51301656"><ele>178.2</ele><time>2022-11-13T16:22:44.0000000+00:00</time></trkpt><trkpt lat="38.96200469" lon="-0.51301648"><ele>178.0</ele><time>2022-11-13T16:22:45.0000000+00:00</time></trkpt><trkpt lat="38.96201433" lon="-0.51301765"><ele>178.0</ele><time>2022-11-13T16:22:46.0000000+00:00</time></trkpt><trkpt lat="38.96202698" lon="-0.51302008"><ele>177.8</ele><time>2022-11-13T16:22:47.0000000+00:00</time></trkpt><trkpt lat="38.96203386" lon="-0.51302184"><ele>177.6</ele><time>2022-11-13T16:22:48.0000000+00:00</time></trkpt><trkpt lat="38.96204174" lon="-0.51303081"><ele>177.4</ele><time>2022-11-13T16:22:49.0000000+00:00</time></trkpt><trkpt lat="38.96205246" lon="-0.51304297"><ele>177.4</ele><time>2022-11-13T16:22:50.0000000+00:00</time></trkpt><trkpt lat="38.96206043" lon="-0.51305428"><ele>177.2</ele><time>2022-11-13T16:22:51.0000000+00:00</time></trkpt><trkpt lat="38.96206688" lon="-0.51307197"><ele>177.2</ele><time>2022-11-13T16:22:52.0000000+00:00</time></trkpt><trkpt lat="38.96207183" lon="-0.51308546"><ele>177.2</ele><time>2022-11-13T16:22:53.0000000+00:00</time></trkpt><trkpt lat="38.96208197" lon="-0.51309929"><ele>177.2</ele><time>2022-11-13T16:22:54.0000000+00:00</time></trkpt><trkpt lat="38.96208658" lon="-0.51311296"><ele>177.2</ele><time>2022-11-13T16:22:55.0000000+00:00</time></trkpt><trkpt lat="38.96208884" lon="-0.51312595"><ele>177.2</ele><time>2022-11-13T16:22:56.0000000+00:00</time></trkpt><trkpt lat="38.96208792" lon="-0.51313651"><ele>177.0</ele><time>2022-11-13T16:22:57.0000000+00:00</time></trkpt><trkpt lat="38.96208448" lon="-0.51315227"><ele>177.0</ele><time>2022-11-13T16:22:58.0000000+00:00</time></trkpt><trkpt lat="38.96208658" lon="-0.51316652"><ele>177.0</ele><time>2022-11-13T16:22:59.0000000+00:00</time></trkpt><trkpt lat="38.9620849" lon="-0.51317942"><ele>177.0</ele><time>2022-11-13T16:23:00.0000000+00:00</time></trkpt><trkpt lat="38.96208239" lon="-0.51319107"><ele>177.0</ele><time>2022-11-13T16:23:01.0000000+00:00</time></trkpt><trkpt lat="38.96207996" lon="-0.51320633"><ele>177.0</ele><time>2022-11-13T16:23:02.0000000+00:00</time></trkpt><trkpt lat="38.96207837" lon="-0.51322402"><ele>177.0</ele><time>2022-11-13T16:23:03.0000000+00:00</time></trkpt><trkpt lat="38.96207728" lon="-0.51324019"><ele>177.0</ele><time>2022-11-13T16:23:04.0000000+00:00</time></trkpt><trkpt lat="38.96207535" lon="-0.5132536"><ele>177.0</ele><time>2022-11-13T16:23:05.0000000+00:00</time></trkpt><trkpt lat="38.96207401" lon="-0.51326634"><ele>177.0</ele><time>2022-11-13T16:23:06.0000000+00:00</time></trkpt><trkpt lat="38.96206931" lon="-0.51328034"><ele>177.0</ele><time>2022-11-13T16:23:07.0000000+00:00</time></trkpt><trkpt lat="38.96206688" lon="-0.51329291"><ele>177.0</ele><time>2022-11-13T16:23:08.0000000+00:00</time></trkpt><trkpt lat="38.96206495" lon="-0.51330834"><ele>177.0</ele><time>2022-11-13T16:23:09.0000000+00:00</time></trkpt><trkpt lat="38.96206311" lon="-0.5133189"><ele>177.0</ele><time>2022-11-13T16:23:10.0000000+00:00</time></trkpt><trkpt lat="38.96206361" lon="-0.51332929"><ele>177.0</ele><time>2022-11-13T16:23:11.0000000+00:00</time></trkpt><trkpt lat="38.96206529" lon="-0.51333583"><ele>177.0</ele><time>2022-11-13T16:23:12.0000000+00:00</time></trkpt><trkpt lat="38.96206697" lon="-0.51334958"><ele>177.0</ele><time>2022-11-13T16:23:13.0000000+00:00</time></trkpt><trkpt lat="38.96206378" lon="-0.51336022"><ele>177.0</ele><time>2022-11-13T16:23:14.0000000+00:00</time></trkpt><trkpt lat="38.96205699" lon="-0.51337137"><ele>177.0</ele><time>2022-11-13T16:23:15.0000000+00:00</time></trkpt><trkpt lat="38.96205045" lon="-0.51338453"><ele>177.0</ele><time>2022-11-13T16:23:16.0000000+00:00</time></trkpt><trkpt lat="38.96204056" lon="-0.51339836"><ele>177.0</ele><time>2022-11-13T16:23:17.0000000+00:00</time></trkpt><trkpt lat="38.96203964" lon="-0.5133976"><ele>177.0</ele><time>2022-11-13T16:23:18.0000000+00:00</time></trkpt><trkpt lat="38.96203947" lon="-0.51339375"><ele>177.0</ele><time>2022-11-13T16:23:19.0000000+00:00</time></trkpt><trkpt lat="38.96203629" lon="-0.51339568"><ele>177.0</ele><time>2022-11-13T16:23:20.0000000+00:00</time></trkpt><trkpt lat="38.96203319" lon="-0.51340414"><ele>177.0</ele><time>2022-11-13T16:23:21.0000000+00:00</time></trkpt><trkpt lat="38.96202514" lon="-0.51341026"><ele>177.0</ele><time>2022-11-13T16:23:22.0000000+00:00</time></trkpt><trkpt lat="38.96201902" lon="-0.51341697"><ele>177.0</ele><time>2022-11-13T16:23:23.0000000+00:00</time></trkpt><trkpt lat="38.96201047" lon="-0.5134256"><ele>177.0</ele><time>2022-11-13T16:23:24.0000000+00:00</time></trkpt><trkpt lat="38.96200293" lon="-0.51343574"><ele>177.0</ele><time>2022-11-13T16:23:25.0000000+00:00</time></trkpt><trkpt lat="38.9619948" lon="-0.51344815"><ele>177.0</ele><time>2022-11-13T16:23:26.0000000+00:00</time></trkpt><trkpt lat="38.96198868" lon="-0.51346399"><ele>177.0</ele><time>2022-11-13T16:23:27.0000000+00:00</time></trkpt><trkpt lat="38.96198197" lon="-0.51347589"><ele>177.0</ele><time>2022-11-13T16:23:28.0000000+00:00</time></trkpt><trkpt lat="38.96197703" lon="-0.51349073"><ele>177.0</ele><time>2022-11-13T16:23:29.0000000+00:00</time></trkpt><trkpt lat="38.96197099" lon="-0.51350615"><ele>177.0</ele><time>2022-11-13T16:23:30.0000000+00:00</time></trkpt><trkpt lat="38.96196437" lon="-0.51352526"><ele>177.0</ele><time>2022-11-13T16:23:31.0000000+00:00</time></trkpt><trkpt lat="38.96195867" lon="-0.51353901"><ele>177.0</ele><time>2022-11-13T16:23:32.0000000+00:00</time></trkpt><trkpt lat="38.96195213" lon="-0.51354948"><ele>177.0</ele><time>2022-11-13T16:23:33.0000000+00:00</time></trkpt><trkpt lat="38.96194677" lon="-0.51356047"><ele>177.0</ele><time>2022-11-13T16:23:34.0000000+00:00</time></trkpt><trkpt lat="38.96194425" lon="-0.51357329"><ele>177.0</ele><time>2022-11-13T16:23:35.0000000+00:00</time></trkpt><trkpt lat="38.96194258" lon="-0.51358804"><ele>177.0</ele><time>2022-11-13T16:23:36.0000000+00:00</time></trkpt><trkpt lat="38.96193923" lon="-0.51360388"><ele>176.8</ele><time>2022-11-13T16:23:37.0000000+00:00</time></trkpt><trkpt lat="38.96193487" lon="-0.51362341"><ele>176.8</ele><time>2022-11-13T16:23:38.0000000+00:00</time></trkpt><trkpt lat="38.96193177" lon="-0.51364529"><ele>176.8</ele><time>2022-11-13T16:23:39.0000000+00:00</time></trkpt><trkpt lat="38.961929" lon="-0.51366339"><ele>176.8</ele><time>2022-11-13T16:23:40.0000000+00:00</time></trkpt><trkpt lat="38.96192489" lon="-0.5136779"><ele>177.0</ele><time>2022-11-13T16:23:41.0000000+00:00</time></trkpt><trkpt lat="38.96191995" lon="-0.51369525"><ele>177.0</ele><time>2022-11-13T16:23:42.0000000+00:00</time></trkpt><trkpt lat="38.96192003" lon="-0.51370991"><ele>177.0</ele><time>2022-11-13T16:23:43.0000000+00:00</time></trkpt><trkpt lat="38.96192137" lon="-0.51372232"><ele>177.0</ele><time>2022-11-13T16:23:44.0000000+00:00</time></trkpt><trkpt lat="38.96192322" lon="-0.51373632"><ele>177.0</ele><time>2022-11-13T16:23:45.0000000+00:00</time></trkpt><trkpt lat="38.96192221" lon="-0.51375023"><ele>177.0</ele><time>2022-11-13T16:23:46.0000000+00:00</time></trkpt><trkpt lat="38.96191802" lon="-0.51376758"><ele>177.0</ele><time>2022-11-13T16:23:47.0000000+00:00</time></trkpt><trkpt lat="38.96191341" lon="-0.51378108"><ele>177.0</ele><time>2022-11-13T16:23:48.0000000+00:00</time></trkpt><trkpt lat="38.96190746" lon="-0.51379323"><ele>177.0</ele><time>2022-11-13T16:23:49.0000000+00:00</time></trkpt><trkpt lat="38.96190545" lon="-0.51380589"><ele>177.0</ele><time>2022-11-13T16:23:50.0000000+00:00</time></trkpt><trkpt lat="38.9619036" lon="-0.51381997"><ele>177.0</ele><time>2022-11-13T16:23:51.0000000+00:00</time></trkpt><trkpt lat="38.96190763" lon="-0.51382978"><ele>177.0</ele><time>2022-11-13T16:23:52.0000000+00:00</time></trkpt><trkpt lat="38.96191274" lon="-0.51384294"><ele>177.0</ele><time>2022-11-13T16:23:53.0000000+00:00</time></trkpt><trkpt lat="38.96191609" lon="-0.51385584"><ele>176.8</ele><time>2022-11-13T16:23:54.0000000+00:00</time></trkpt><trkpt lat="38.96191517" lon="-0.51387001"><ele>176.8</ele><time>2022-11-13T16:23:55.0000000+00:00</time></trkpt><trkpt lat="38.96191651" lon="-0.51388535"><ele>176.8</ele><time>2022-11-13T16:23:56.0000000+00:00</time></trkpt><trkpt lat="38.96192162" lon="-0.513898"><ele>176.6</ele><time>2022-11-13T16:23:57.0000000+00:00</time></trkpt><trkpt lat="38.96192464" lon="-0.5139084"><ele>176.6</ele><time>2022-11-13T16:23:58.0000000+00:00</time></trkpt><trkpt lat="38.9619285" lon="-0.51391527"><ele>176.4</ele><time>2022-11-13T16:23:59.0000000+00:00</time></trkpt><trkpt lat="38.96193051" lon="-0.51392181"><ele>176.4</ele><time>2022-11-13T16:24:00.0000000+00:00</time></trkpt><trkpt lat="38.96193059" lon="-0.51392416"><ele>176.4</ele><time>2022-11-13T16:24:01.0000000+00:00</time></trkpt><trkpt lat="38.96192992" lon="-0.51392742"><ele>176.4</ele><time>2022-11-13T16:24:02.0000000+00:00</time></trkpt><trkpt lat="38.96192858" lon="-0.51393128"><ele>176.4</ele><time>2022-11-13T16:24:03.0000000+00:00</time></trkpt><trkpt lat="38.96192808" lon="-0.51393153"><ele>176.4</ele><time>2022-11-13T16:24:04.0000000+00:00</time></trkpt><trkpt lat="38.96192749" lon="-0.51393153"><ele>176.4</ele><time>2022-11-13T16:24:05.0000000+00:00</time></trkpt><trkpt lat="38.96192774" lon="-0.51393212"><ele>176.4</ele><time>2022-11-13T16:24:06.0000000+00:00</time></trkpt><trkpt lat="38.96192799" lon="-0.51393162"><ele>176.4</ele><time>2022-11-13T16:24:07.0000000+00:00</time></trkpt><trkpt lat="38.96192648" lon="-0.51393321"><ele>176.4</ele><time>2022-11-13T16:24:08.0000000+00:00</time></trkpt><trkpt lat="38.96192523" lon="-0.51393497"><ele>176.4</ele><time>2022-11-13T16:24:09.0000000+00:00</time></trkpt><trkpt lat="38.96192506" lon="-0.51393447"><ele>176.4</ele><time>2022-11-13T16:24:10.0000000+00:00</time></trkpt><trkpt lat="38.96192514" lon="-0.51393287"><ele>176.4</ele><time>2022-11-13T16:24:11.0000000+00:00</time></trkpt><trkpt lat="38.96192489" lon="-0.51393178"><ele>176.4</ele><time>2022-11-13T16:24:12.0000000+00:00</time></trkpt><trkpt lat="38.96192472" lon="-0.51393069"><ele>176.4</ele><time>2022-11-13T16:24:13.0000000+00:00</time></trkpt><trkpt lat="38.96192648" lon="-0.51392994"><ele>176.4</ele><time>2022-11-13T16:24:14.0000000+00:00</time></trkpt><trkpt lat="38.96193218" lon="-0.51392575"><ele>176.4</ele><time>2022-11-13T16:24:15.0000000+00:00</time></trkpt><trkpt lat="38.96194266" lon="-0.51392156"><ele>176.4</ele><time>2022-11-13T16:24:16.0000000+00:00</time></trkpt><trkpt lat="38.96195054" lon="-0.51391401"><ele>176.4</ele><time>2022-11-13T16:24:17.0000000+00:00</time></trkpt><trkpt lat="38.96195515" lon="-0.5139094"><ele>176.6</ele><time>2022-11-13T16:24:18.0000000+00:00</time></trkpt><trkpt lat="38.96195917" lon="-0.51390203"><ele>176.6</ele><time>2022-11-13T16:24:19.0000000+00:00</time></trkpt><trkpt lat="38.96196814" lon="-0.51389683"><ele>176.8</ele><time>2022-11-13T16:24:20.0000000+00:00</time></trkpt><trkpt lat="38.96197602" lon="-0.51389071"><ele>176.8</ele><time>2022-11-13T16:24:21.0000000+00:00</time></trkpt><trkpt lat="38.96198616" lon="-0.51388711"><ele>176.8</ele><time>2022-11-13T16:24:22.0000000+00:00</time></trkpt><trkpt lat="38.96199765" lon="-0.51388694"><ele>176.8</ele><time>2022-11-13T16:24:23.0000000+00:00</time></trkpt><trkpt lat="38.96200628" lon="-0.51388904"><ele>176.8</ele><time>2022-11-13T16:24:24.0000000+00:00</time></trkpt><trkpt lat="38.96201374" lon="-0.51389004"><ele>176.8</ele><time>2022-11-13T16:24:25.0000000+00:00</time></trkpt><trkpt lat="38.96201885" lon="-0.51388878"><ele>176.6</ele><time>2022-11-13T16:24:26.0000000+00:00</time></trkpt><trkpt lat="38.96202313" lon="-0.51388426"><ele>176.6</ele><time>2022-11-13T16:24:27.0000000+00:00</time></trkpt><trkpt lat="38.96203235" lon="-0.51387789"><ele>176.6</ele><time>2022-11-13T16:24:28.0000000+00:00</time></trkpt><trkpt lat="38.96204241" lon="-0.51387093"><ele>176.4</ele><time>2022-11-13T16:24:29.0000000+00:00</time></trkpt><trkpt lat="38.96204601" lon="-0.51387093"><ele>176.4</ele><time>2022-11-13T16:24:30.0000000+00:00</time></trkpt><trkpt lat="38.96205406" lon="-0.51386825"><ele>176.4</ele><time>2022-11-13T16:24:31.0000000+00:00</time></trkpt><trkpt lat="38.96206831" lon="-0.51386557"><ele>176.4</ele><time>2022-11-13T16:24:32.0000000+00:00</time></trkpt><trkpt lat="38.96207225" lon="-0.5138654"><ele>176.4</ele><time>2022-11-13T16:24:33.0000000+00:00</time></trkpt><trkpt lat="38.962088" lon="-0.51386146"><ele>176.4</ele><time>2022-11-13T16:24:34.0000000+00:00</time></trkpt><trkpt lat="38.962102" lon="-0.51386431"><ele>176.2</ele><time>2022-11-13T16:24:35.0000000+00:00</time></trkpt><trkpt lat="38.96211223" lon="-0.51386498"><ele>176.2</ele><time>2022-11-13T16:24:36.0000000+00:00</time></trkpt><trkpt lat="38.9621191" lon="-0.513868"><ele>176.0</ele><time>2022-11-13T16:24:37.0000000+00:00</time></trkpt><trkpt lat="38.96212723" lon="-0.51387051"><ele>175.8</ele><time>2022-11-13T16:24:38.0000000+00:00</time></trkpt><trkpt lat="38.96213603" lon="-0.51387395"><ele>175.6</ele><time>2022-11-13T16:24:39.0000000+00:00</time></trkpt><trkpt lat="38.96214366" lon="-0.51388015"><ele>175.6</ele><time>2022-11-13T16:24:40.0000000+00:00</time></trkpt><trkpt lat="38.96215095" lon="-0.51388359"><ele>175.4</ele><time>2022-11-13T16:24:41.0000000+00:00</time></trkpt><trkpt lat="38.96216252" lon="-0.51389432"><ele>175.4</ele><time>2022-11-13T16:24:42.0000000+00:00</time></trkpt><trkpt lat="38.9621714" lon="-0.51390505"><ele>175.4</ele><time>2022-11-13T16:24:43.0000000+00:00</time></trkpt><trkpt lat="38.96217928" lon="-0.51392273"><ele>175.2</ele><time>2022-11-13T16:24:44.0000000+00:00</time></trkpt><trkpt lat="38.96218683" lon="-0.5139343"><ele>175.2</ele><time>2022-11-13T16:24:45.0000000+00:00</time></trkpt><trkpt lat="38.96219647" lon="-0.51394628"><ele>175.0</ele><time>2022-11-13T16:24:46.0000000+00:00</time></trkpt><trkpt lat="38.96220896" lon="-0.51395953"><ele>174.8</ele><time>2022-11-13T16:24:47.0000000+00:00</time></trkpt><trkpt lat="38.96221373" lon="-0.51396598"><ele>174.8</ele><time>2022-11-13T16:24:48.0000000+00:00</time></trkpt><trkpt lat="38.96222295" lon="-0.513969"><ele>174.8</ele><time>2022-11-13T16:24:49.0000000+00:00</time></trkpt><trkpt lat="38.96223544" lon="-0.51396523"><ele>174.6</ele><time>2022-11-13T16:24:50.0000000+00:00</time></trkpt><trkpt lat="38.96224718" lon="-0.51396581"><ele>174.6</ele><time>2022-11-13T16:24:51.0000000+00:00</time></trkpt><trkpt lat="38.96226134" lon="-0.51396246"><ele>174.8</ele><time>2022-11-13T16:24:52.0000000+00:00</time></trkpt><trkpt lat="38.96226939" lon="-0.51394737"><ele>174.8</ele><time>2022-11-13T16:24:53.0000000+00:00</time></trkpt><trkpt lat="38.96227249" lon="-0.51394352"><ele>174.8</ele><time>2022-11-13T16:24:54.0000000+00:00</time></trkpt><trkpt lat="38.96227475" lon="-0.5139431"><ele>174.8</ele><time>2022-11-13T16:24:55.0000000+00:00</time></trkpt><trkpt lat="38.96227685" lon="-0.5139436"><ele>174.8</ele><time>2022-11-13T16:24:56.0000000+00:00</time></trkpt><trkpt lat="38.96227769" lon="-0.51394402"><ele>174.8</ele><time>2022-11-13T16:24:57.0000000+00:00</time></trkpt><trkpt lat="38.96227693" lon="-0.51394494"><ele>174.8</ele><time>2022-11-13T16:24:58.0000000+00:00</time></trkpt><trkpt lat="38.96227676" lon="-0.51394612"><ele>174.8</ele><time>2022-11-13T16:24:59.0000000+00:00</time></trkpt><trkpt lat="38.96227852" lon="-0.51394419"><ele>174.8</ele><time>2022-11-13T16:25:00.0000000+00:00</time></trkpt><trkpt lat="38.96227039" lon="-0.51394276"><ele>174.8</ele><time>2022-11-13T16:25:01.0000000+00:00</time></trkpt><trkpt lat="38.96225824" lon="-0.51393623"><ele>174.8</ele><time>2022-11-13T16:25:02.0000000+00:00</time></trkpt><trkpt lat="38.9622564" lon="-0.51393639"><ele>174.8</ele><time>2022-11-13T16:25:03.0000000+00:00</time></trkpt><trkpt lat="38.96225531" lon="-0.51394075"><ele>174.8</ele><time>2022-11-13T16:25:04.0000000+00:00</time></trkpt><trkpt lat="38.96225573" lon="-0.51394176"><ele>174.6</ele><time>2022-11-13T16:25:05.0000000+00:00</time></trkpt><trkpt lat="38.96225598" lon="-0.51394285"><ele>174.6</ele><time>2022-11-13T16:25:06.0000000+00:00</time></trkpt><trkpt lat="38.96225598" lon="-0.51394285"><ele>174.6</ele><time>2022-11-13T16:25:07.0000000+00:00</time></trkpt><trkpt lat="38.96225598" lon="-0.51394285"><ele>174.6</ele><time>2022-11-13T16:25:08.0000000+00:00</time></trkpt><trkpt lat="38.96225598" lon="-0.51394285"><ele>174.6</ele><time>2022-11-13T16:25:09.0000000+00:00</time></trkpt><trkpt lat="38.96225598" lon="-0.51394285"><ele>174.6</ele><time>2022-11-13T16:25:10.0000000+00:00</time></trkpt><trkpt lat="38.96225598" lon="-0.51394285"><ele>174.6</ele><time>2022-11-13T16:25:11.0000000+00:00</time></trkpt><trkpt lat="38.96225598" lon="-0.51394285"><ele>174.6</ele><time>2022-11-13T16:25:12.0000000+00:00</time></trkpt><trkpt lat="38.96225598" lon="-0.51394285"><ele>174.4</ele><time>2022-11-13T16:25:13.0000000+00:00</time></trkpt><trkpt lat="38.96225598" lon="-0.51394285"><ele>174.4</ele><time>2022-11-13T16:25:14.0000000+00:00</time></trkpt><trkpt lat="38.96225598" lon="-0.51394285"><ele>174.4</ele><time>2022-11-13T16:25:15.0000000+00:00</time></trkpt><trkpt lat="38.96225598" lon="-0.51394285"><ele>174.4</ele><time>2022-11-13T16:25:16.0000000+00:00</time></trkpt><trkpt lat="38.96225598" lon="-0.51394276"><ele>174.4</ele><time>2022-11-13T16:25:17.0000000+00:00</time></trkpt><trkpt lat="38.96225598" lon="-0.51394184"><ele>174.4</ele><time>2022-11-13T16:25:18.0000000+00:00</time></trkpt><trkpt lat="38.96225598" lon="-0.51394159"><ele>174.4</ele><time>2022-11-13T16:25:19.0000000+00:00</time></trkpt><trkpt lat="38.96225631" lon="-0.51394109"><ele>174.4</ele><time>2022-11-13T16:25:20.0000000+00:00</time></trkpt><trkpt lat="38.96225757" lon="-0.51394075"><ele>174.4</ele><time>2022-11-13T16:25:21.0000000+00:00</time></trkpt><trkpt lat="38.96225799" lon="-0.51394033"><ele>174.4</ele><time>2022-11-13T16:25:22.0000000+00:00</time></trkpt><trkpt lat="38.96225816" lon="-0.51393949"><ele>174.6</ele><time>2022-11-13T16:25:23.0000000+00:00</time></trkpt><trkpt lat="38.96225824" lon="-0.51393933"><ele>174.8</ele><time>2022-11-13T16:25:24.0000000+00:00</time></trkpt><trkpt lat="38.96225841" lon="-0.51393908"><ele>174.8</ele><time>2022-11-13T16:25:25.0000000+00:00</time></trkpt><trkpt lat="38.96225841" lon="-0.51393849"><ele>175.0</ele><time>2022-11-13T16:25:26.0000000+00:00</time></trkpt><trkpt lat="38.96225841" lon="-0.51393832"><ele>175.0</ele><time>2022-11-13T16:25:27.0000000+00:00</time></trkpt><trkpt lat="38.96225841" lon="-0.51393782"><ele>175.0</ele><time>2022-11-13T16:25:28.0000000+00:00</time></trkpt><trkpt lat="38.96225841" lon="-0.51393715"><ele>175.0</ele><time>2022-11-13T16:25:29.0000000+00:00</time></trkpt><trkpt lat="38.96225841" lon="-0.51393698"><ele>175.0</ele><time>2022-11-13T16:25:30.0000000+00:00</time></trkpt><trkpt lat="38.96225841" lon="-0.51393648"><ele>175.0</ele><time>2022-11-13T16:25:31.0000000+00:00</time></trkpt><trkpt lat="38.96225849" lon="-0.51393648"><ele>175.0</ele><time>2022-11-13T16:25:32.0000000+00:00</time></trkpt><trkpt lat="38.96225858" lon="-0.51393631"><ele>174.8</ele><time>2022-11-13T16:25:33.0000000+00:00</time></trkpt><trkpt lat="38.96225883" lon="-0.51393589"><ele>174.6</ele><time>2022-11-13T16:25:34.0000000+00:00</time></trkpt><trkpt lat="38.96225908" lon="-0.51393572"><ele>174.6</ele><time>2022-11-13T16:25:35.0000000+00:00</time></trkpt><trkpt lat="38.96225916" lon="-0.51393505"><ele>174.6</ele><time>2022-11-13T16:25:36.0000000+00:00</time></trkpt><trkpt lat="38.96225925" lon="-0.51393455"><ele>174.6</ele><time>2022-11-13T16:25:37.0000000+00:00</time></trkpt><trkpt lat="38.96225933" lon="-0.51393447"><ele>174.6</ele><time>2022-11-13T16:25:38.0000000+00:00</time></trkpt><trkpt lat="38.96225941" lon="-0.51393413"><ele>174.4</ele><time>2022-11-13T16:25:39.0000000+00:00</time></trkpt><trkpt lat="38.96225958" lon="-0.51393405"><ele>174.4</ele><time>2022-11-13T16:25:40.0000000+00:00</time></trkpt><trkpt lat="38.96226042" lon="-0.51393363"><ele>174.4</ele><time>2022-11-13T16:25:41.0000000+00:00</time></trkpt><trkpt lat="38.9622605" lon="-0.51393338"><ele>174.4</ele><time>2022-11-13T16:25:42.0000000+00:00</time></trkpt><trkpt lat="38.96226059" lon="-0.51393312"><ele>174.6</ele><time>2022-11-13T16:25:43.0000000+00:00</time></trkpt><trkpt lat="38.96226059" lon="-0.51393304"><ele>174.6</ele><time>2022-11-13T16:25:44.0000000+00:00</time></trkpt><trkpt lat="38.96226059" lon="-0.51393237"><ele>174.6</ele><time>2022-11-13T16:25:45.0000000+00:00</time></trkpt><trkpt lat="38.96225564" lon="-0.5139286"><ele>174.6</ele><time>2022-11-13T16:25:46.0000000+00:00</time></trkpt><trkpt lat="38.96223838" lon="-0.51391418"><ele>174.6</ele><time>2022-11-13T16:25:47.0000000+00:00</time></trkpt><trkpt lat="38.9622274" lon="-0.51390362"><ele>174.6</ele><time>2022-11-13T16:25:48.0000000+00:00</time></trkpt><trkpt lat="38.96221792" lon="-0.51389214"><ele>174.6</ele><time>2022-11-13T16:25:49.0000000+00:00</time></trkpt><trkpt lat="38.96220812" lon="-0.51388702"><ele>174.6</ele><time>2022-11-13T16:25:50.0000000+00:00</time></trkpt><trkpt lat="38.96220124" lon="-0.51388225"><ele>174.6</ele><time>2022-11-13T16:25:51.0000000+00:00</time></trkpt><trkpt lat="38.96218381" lon="-0.51386699"><ele>174.8</ele><time>2022-11-13T16:25:52.0000000+00:00</time></trkpt><trkpt lat="38.96216688" lon="-0.51385274"><ele>174.8</ele><time>2022-11-13T16:25:53.0000000+00:00</time></trkpt><trkpt lat="38.96214433" lon="-0.5138426"><ele>174.8</ele><time>2022-11-13T16:25:54.0000000+00:00</time></trkpt><trkpt lat="38.9621243" lon="-0.51383548"><ele>175.0</ele><time>2022-11-13T16:25:55.0000000+00:00</time></trkpt><trkpt lat="38.96211256" lon="-0.51382961"><ele>175.2</ele><time>2022-11-13T16:25:56.0000000+00:00</time></trkpt><trkpt lat="38.96210594" lon="-0.51382416"><ele>175.4</ele><time>2022-11-13T16:25:57.0000000+00:00</time></trkpt><trkpt lat="38.9621015" lon="-0.51381745"><ele>175.6</ele><time>2022-11-13T16:25:58.0000000+00:00</time></trkpt><trkpt lat="38.9620963" lon="-0.51380974"><ele>175.8</ele><time>2022-11-13T16:25:59.0000000+00:00</time></trkpt><trkpt lat="38.96209253" lon="-0.51381008"><ele>175.8</ele><time>2022-11-13T16:26:00.0000000+00:00</time></trkpt><trkpt lat="38.96208935" lon="-0.51380203"><ele>176.0</ele><time>2022-11-13T16:26:01.0000000+00:00</time></trkpt><trkpt lat="38.96208222" lon="-0.51379365"><ele>176.0</ele><time>2022-11-13T16:26:02.0000000+00:00</time></trkpt><trkpt lat="38.96207166" lon="-0.51379046"><ele>176.2</ele><time>2022-11-13T16:26:03.0000000+00:00</time></trkpt><trkpt lat="38.96206018" lon="-0.51378854"><ele>176.2</ele><time>2022-11-13T16:26:04.0000000+00:00</time></trkpt><trkpt lat="38.96204853" lon="-0.51378585"><ele>176.4</ele><time>2022-11-13T16:26:05.0000000+00:00</time></trkpt><trkpt lat="38.96203545" lon="-0.51378133"><ele>176.4</ele><time>2022-11-13T16:26:06.0000000+00:00</time></trkpt><trkpt lat="38.96202045" lon="-0.51377865"><ele>176.4</ele><time>2022-11-13T16:26:07.0000000+00:00</time></trkpt><trkpt lat="38.96200963" lon="-0.513782"><ele>176.4</ele><time>2022-11-13T16:26:08.0000000+00:00</time></trkpt><trkpt lat="38.96200695" lon="-0.5137789"><ele>176.6</ele><time>2022-11-13T16:26:09.0000000+00:00</time></trkpt><trkpt lat="38.96200611" lon="-0.51376691"><ele>176.6</ele><time>2022-11-13T16:26:10.0000000+00:00</time></trkpt><trkpt lat="38.96200201" lon="-0.51376473"><ele>176.6</ele><time>2022-11-13T16:26:11.0000000+00:00</time></trkpt><trkpt lat="38.96199999" lon="-0.51376465"><ele>176.6</ele><time>2022-11-13T16:26:12.0000000+00:00</time></trkpt><trkpt lat="38.96199932" lon="-0.5137654"><ele>176.6</ele><time>2022-11-13T16:26:13.0000000+00:00</time></trkpt><trkpt lat="38.96199941" lon="-0.51376507"><ele>176.6</ele><time>2022-11-13T16:26:14.0000000+00:00</time></trkpt><trkpt lat="38.96199941" lon="-0.51376683"><ele>176.4</ele><time>2022-11-13T16:26:15.0000000+00:00</time></trkpt><trkpt lat="38.96200008" lon="-0.51377538"><ele>176.4</ele><time>2022-11-13T16:26:16.0000000+00:00</time></trkpt><trkpt lat="38.96200125" lon="-0.51378066"><ele>176.4</ele><time>2022-11-13T16:26:17.0000000+00:00</time></trkpt><trkpt lat="38.96200318" lon="-0.51378661"><ele>176.4</ele><time>2022-11-13T16:26:18.0000000+00:00</time></trkpt><trkpt lat="38.9620041" lon="-0.51379046"><ele>176.4</ele><time>2022-11-13T16:26:19.0000000+00:00</time></trkpt><trkpt lat="38.96200578" lon="-0.51379315"><ele>176.4</ele><time>2022-11-13T16:26:20.0000000+00:00</time></trkpt><trkpt lat="38.96200603" lon="-0.5137913"><ele>176.4</ele><time>2022-11-13T16:26:21.0000000+00:00</time></trkpt><trkpt lat="38.96200704" lon="-0.51378979"><ele>176.4</ele><time>2022-11-13T16:26:22.0000000+00:00</time></trkpt><trkpt lat="38.96200762" lon="-0.51378703"><ele>176.4</ele><time>2022-11-13T16:26:23.0000000+00:00</time></trkpt><trkpt lat="38.96200838" lon="-0.51378661"><ele>176.4</ele><time>2022-11-13T16:26:24.0000000+00:00</time></trkpt><trkpt lat="38.96200771" lon="-0.51378627"><ele>176.4</ele><time>2022-11-13T16:26:25.0000000+00:00</time></trkpt><trkpt lat="38.96200745" lon="-0.51378594"><ele>176.4</ele><time>2022-11-13T16:26:26.0000000+00:00</time></trkpt><trkpt lat="38.96200745" lon="-0.51378594"><ele>176.4</ele><time>2022-11-13T16:26:27.0000000+00:00</time></trkpt><trkpt lat="38.96200745" lon="-0.51378594"><ele>176.4</ele><time>2022-11-13T16:26:28.0000000+00:00</time></trkpt><trkpt lat="38.96200745" lon="-0.51378594"><ele>176.4</ele><time>2022-11-13T16:26:29.0000000+00:00</time></trkpt><trkpt lat="38.96200745" lon="-0.51378594"><ele>176.4</ele><time>2022-11-13T16:26:30.0000000+00:00</time></trkpt><trkpt lat="38.96200745" lon="-0.51378594"><ele>176.4</ele><time>2022-11-13T16:26:31.0000000+00:00</time></trkpt><trkpt lat="38.96200745" lon="-0.51378594"><ele>176.4</ele><time>2022-11-13T16:26:32.0000000+00:00</time></trkpt><trkpt lat="38.96200745" lon="-0.51378594"><ele>176.4</ele><time>2022-11-13T16:26:33.0000000+00:00</time></trkpt><trkpt lat="38.96200745" lon="-0.51378594"><ele>176.4</ele><time>2022-11-13T16:26:34.0000000+00:00</time></trkpt><trkpt lat="38.96200745" lon="-0.51378594"><ele>176.4</ele><time>2022-11-13T16:26:35.0000000+00:00</time></trkpt><trkpt lat="38.96200745" lon="-0.51378594"><ele>176.6</ele><time>2022-11-13T16:26:36.0000000+00:00</time></trkpt><trkpt lat="38.96200745" lon="-0.51378594"><ele>176.6</ele><time>2022-11-13T16:26:37.0000000+00:00</time></trkpt><trkpt lat="38.96200745" lon="-0.51378619"><ele>176.6</ele><time>2022-11-13T16:26:38.0000000+00:00</time></trkpt><trkpt lat="38.96200729" lon="-0.51378661"><ele>176.6</ele><time>2022-11-13T16:26:39.0000000+00:00</time></trkpt><trkpt lat="38.96200704" lon="-0.51378661"><ele>176.6</ele><time>2022-11-13T16:26:40.0000000+00:00</time></trkpt><trkpt lat="38.96200645" lon="-0.51378703"><ele>176.6</ele><time>2022-11-13T16:26:41.0000000+00:00</time></trkpt><trkpt lat="38.96200603" lon="-0.5137872"><ele>176.6</ele><time>2022-11-13T16:26:42.0000000+00:00</time></trkpt><trkpt lat="38.96200578" lon="-0.51378736"><ele>176.6</ele><time>2022-11-13T16:26:43.0000000+00:00</time></trkpt><trkpt lat="38.96200502" lon="-0.51378837"><ele>176.6</ele><time>2022-11-13T16:26:44.0000000+00:00</time></trkpt><trkpt lat="38.96200494" lon="-0.51378912"><ele>176.6</ele><time>2022-11-13T16:26:45.0000000+00:00</time></trkpt><trkpt lat="38.96200486" lon="-0.51378954"><ele>176.4</ele><time>2022-11-13T16:26:46.0000000+00:00</time></trkpt><trkpt lat="38.96200427" lon="-0.51378971"><ele>176.4</ele><time>2022-11-13T16:26:47.0000000+00:00</time></trkpt><trkpt lat="38.96200427" lon="-0.51379021"><ele>176.4</ele><time>2022-11-13T16:26:48.0000000+00:00</time></trkpt><trkpt lat="38.96200477" lon="-0.5137903"><ele>176.4</ele><time>2022-11-13T16:26:49.0000000+00:00</time></trkpt><trkpt lat="38.96200486" lon="-0.5137903"><ele>176.4</ele><time>2022-11-13T16:26:50.0000000+00:00</time></trkpt><trkpt lat="38.96200486" lon="-0.5137903"><ele>176.4</ele><time>2022-11-13T16:26:51.0000000+00:00</time></trkpt><trkpt lat="38.96200486" lon="-0.5137903"><ele>176.4</ele><time>2022-11-13T16:26:52.0000000+00:00</time></trkpt><trkpt lat="38.96200486" lon="-0.51379038"><ele>176.4</ele><time>2022-11-13T16:26:53.0000000+00:00</time></trkpt><trkpt lat="38.96200486" lon="-0.51379055"><ele>176.4</ele><time>2022-11-13T16:26:54.0000000+00:00</time></trkpt><trkpt lat="38.96200486" lon="-0.51379055"><ele>176.4</ele><time>2022-11-13T16:26:55.0000000+00:00</time></trkpt><trkpt lat="38.96200486" lon="-0.51379055"><ele>176.4</ele><time>2022-11-13T16:26:56.0000000+00:00</time></trkpt><trkpt lat="38.96200435" lon="-0.51379055"><ele>176.4</ele><time>2022-11-13T16:26:57.0000000+00:00</time></trkpt><trkpt lat="38.96200427" lon="-0.51379055"><ele>176.4</ele><time>2022-11-13T16:26:58.0000000+00:00</time></trkpt><trkpt lat="38.96200092" lon="-0.51378669"><ele>176.4</ele><time>2022-11-13T16:26:59.0000000+00:00</time></trkpt><trkpt lat="38.96199161" lon="-0.51375836"><ele>176.4</ele><time>2022-11-13T16:27:00.0000000+00:00</time></trkpt><trkpt lat="38.96198013" lon="-0.51373682"><ele>176.6</ele><time>2022-11-13T16:27:01.0000000+00:00</time></trkpt><trkpt lat="38.96197451" lon="-0.51371553"><ele>176.4</ele><time>2022-11-13T16:27:02.0000000+00:00</time></trkpt><trkpt lat="38.96197401" lon="-0.51369516"><ele>176.6</ele><time>2022-11-13T16:27:03.0000000+00:00</time></trkpt><trkpt lat="38.96197535" lon="-0.51367521"><ele>176.6</ele><time>2022-11-13T16:27:04.0000000+00:00</time></trkpt><trkpt lat="38.96197518" lon="-0.51365417"><ele>176.6</ele><time>2022-11-13T16:27:05.0000000+00:00</time></trkpt><trkpt lat="38.96197611" lon="-0.51363431"><ele>176.6</ele><time>2022-11-13T16:27:06.0000000+00:00</time></trkpt><trkpt lat="38.96197476" lon="-0.51361294"><ele>176.6</ele><time>2022-11-13T16:27:07.0000000+00:00</time></trkpt><trkpt lat="38.96197527" lon="-0.51359215"><ele>176.6</ele><time>2022-11-13T16:27:08.0000000+00:00</time></trkpt><trkpt lat="38.96198331" lon="-0.51358092"><ele>176.6</ele><time>2022-11-13T16:27:09.0000000+00:00</time></trkpt><trkpt lat="38.96199253" lon="-0.5135691"><ele>176.8</ele><time>2022-11-13T16:27:10.0000000+00:00</time></trkpt><trkpt lat="38.96200217" lon="-0.51355602"><ele>176.8</ele><time>2022-11-13T16:27:11.0000000+00:00</time></trkpt><trkpt lat="38.96201206" lon="-0.51354219"><ele>176.8</ele><time>2022-11-13T16:27:12.0000000+00:00</time></trkpt><trkpt lat="38.96202321" lon="-0.51353088"><ele>176.8</ele><time>2022-11-13T16:27:13.0000000+00:00</time></trkpt><trkpt lat="38.96203034" lon="-0.51351562"><ele>176.8</ele><time>2022-11-13T16:27:14.0000000+00:00</time></trkpt><trkpt lat="38.96203931" lon="-0.5134997"><ele>177.0</ele><time>2022-11-13T16:27:15.0000000+00:00</time></trkpt><trkpt lat="38.96204584" lon="-0.51348687"><ele>177.0</ele><time>2022-11-13T16:27:16.0000000+00:00</time></trkpt><trkpt lat="38.9620528" lon="-0.51347296"><ele>177.0</ele><time>2022-11-13T16:27:17.0000000+00:00</time></trkpt><trkpt lat="38.96206026" lon="-0.51346005"><ele>177.0</ele><time>2022-11-13T16:27:18.0000000+00:00</time></trkpt><trkpt lat="38.96206931" lon="-0.51344957"><ele>176.8</ele><time>2022-11-13T16:27:19.0000000+00:00</time></trkpt><trkpt lat="38.96207786" lon="-0.51343943"><ele>176.8</ele><time>2022-11-13T16:27:20.0000000+00:00</time></trkpt><trkpt lat="38.96208398" lon="-0.51342677"><ele>176.8</ele><time>2022-11-13T16:27:21.0000000+00:00</time></trkpt><trkpt lat="38.96208775" lon="-0.51341135"><ele>176.8</ele><time>2022-11-13T16:27:22.0000000+00:00</time></trkpt><trkpt lat="38.96209002" lon="-0.5133976"><ele>176.8</ele><time>2022-11-13T16:27:23.0000000+00:00</time></trkpt><trkpt lat="38.96208976" lon="-0.51338277"><ele>176.8</ele><time>2022-11-13T16:27:24.0000000+00:00</time></trkpt><trkpt lat="38.96208683" lon="-0.51336885"><ele>176.8</ele><time>2022-11-13T16:27:25.0000000+00:00</time></trkpt><trkpt lat="38.96208817" lon="-0.51335678"><ele>176.8</ele><time>2022-11-13T16:27:26.0000000+00:00</time></trkpt><trkpt lat="38.96209295" lon="-0.51334656"><ele>176.8</ele><time>2022-11-13T16:27:27.0000000+00:00</time></trkpt><trkpt lat="38.9620953" lon="-0.51332644"><ele>176.8</ele><time>2022-11-13T16:27:28.0000000+00:00</time></trkpt><trkpt lat="38.96209689" lon="-0.51330524"><ele>176.8</ele><time>2022-11-13T16:27:29.0000000+00:00</time></trkpt><trkpt lat="38.96209538" lon="-0.51329157"><ele>176.8</ele><time>2022-11-13T16:27:30.0000000+00:00</time></trkpt><trkpt lat="38.96209739" lon="-0.51327456"><ele>176.8</ele><time>2022-11-13T16:27:31.0000000+00:00</time></trkpt><trkpt lat="38.96210016" lon="-0.51325612"><ele>176.8</ele><time>2022-11-13T16:27:32.0000000+00:00</time></trkpt><trkpt lat="38.96210049" lon="-0.51323726"><ele>176.8</ele><time>2022-11-13T16:27:33.0000000+00:00</time></trkpt><trkpt lat="38.96209789" lon="-0.51321999"><ele>176.8</ele><time>2022-11-13T16:27:34.0000000+00:00</time></trkpt><trkpt lat="38.96209421" lon="-0.5132049"><ele>176.8</ele><time>2022-11-13T16:27:35.0000000+00:00</time></trkpt><trkpt lat="38.96209731" lon="-0.51318931"><ele>176.8</ele><time>2022-11-13T16:27:36.0000000+00:00</time></trkpt><trkpt lat="38.9620989" lon="-0.5131733"><ele>176.8</ele><time>2022-11-13T16:27:37.0000000+00:00</time></trkpt><trkpt lat="38.96210007" lon="-0.51315947"><ele>176.8</ele><time>2022-11-13T16:27:38.0000000+00:00</time></trkpt><trkpt lat="38.96209898" lon="-0.51314598"><ele>176.8</ele><time>2022-11-13T16:27:39.0000000+00:00</time></trkpt><trkpt lat="38.96209789" lon="-0.51313173"><ele>176.8</ele><time>2022-11-13T16:27:40.0000000+00:00</time></trkpt><trkpt lat="38.96209412" lon="-0.51311757"><ele>176.6</ele><time>2022-11-13T16:27:41.0000000+00:00</time></trkpt><trkpt lat="38.96208809" lon="-0.51310583"><ele>176.6</ele><time>2022-11-13T16:27:42.0000000+00:00</time></trkpt><trkpt lat="38.96208331" lon="-0.51309032"><ele>176.6</ele><time>2022-11-13T16:27:43.0000000+00:00</time></trkpt><trkpt lat="38.96208197" lon="-0.51307356"><ele>176.6</ele><time>2022-11-13T16:27:44.0000000+00:00</time></trkpt><trkpt lat="38.96208365" lon="-0.51306233"><ele>176.6</ele><time>2022-11-13T16:27:45.0000000+00:00</time></trkpt><trkpt lat="38.9620839" lon="-0.51305143"><ele>176.6</ele><time>2022-11-13T16:27:46.0000000+00:00</time></trkpt><trkpt lat="38.9620839" lon="-0.51304062"><ele>176.6</ele><time>2022-11-13T16:27:47.0000000+00:00</time></trkpt><trkpt lat="38.96208239" lon="-0.51303199"><ele>176.6</ele><time>2022-11-13T16:27:48.0000000+00:00</time></trkpt><trkpt lat="38.96207669" lon="-0.51301849"><ele>176.6</ele><time>2022-11-13T16:27:49.0000000+00:00</time></trkpt><trkpt lat="38.96206412" lon="-0.51301086"><ele>176.6</ele><time>2022-11-13T16:27:50.0000000+00:00</time></trkpt><trkpt lat="38.96205205" lon="-0.51301254"><ele>176.6</ele><time>2022-11-13T16:27:51.0000000+00:00</time></trkpt><trkpt lat="38.96203863" lon="-0.51300868"><ele>176.6</ele><time>2022-11-13T16:27:52.0000000+00:00</time></trkpt><trkpt lat="38.96202916" lon="-0.51300491"><ele>176.8</ele><time>2022-11-13T16:27:53.0000000+00:00</time></trkpt><trkpt lat="38.96201751" lon="-0.5130024"><ele>177.0</ele><time>2022-11-13T16:27:54.0000000+00:00</time></trkpt><trkpt lat="38.96201165" lon="-0.5130024"><ele>177.0</ele><time>2022-11-13T16:27:55.0000000+00:00</time></trkpt><trkpt lat="38.96200502" lon="-0.51300567"><ele>177.2</ele><time>2022-11-13T16:27:56.0000000+00:00</time></trkpt><trkpt lat="38.96199589" lon="-0.51300617"><ele>177.2</ele><time>2022-11-13T16:27:57.0000000+00:00</time></trkpt><trkpt lat="38.96198415" lon="-0.51300642"><ele>177.4</ele><time>2022-11-13T16:27:58.0000000+00:00</time></trkpt><trkpt lat="38.96197602" lon="-0.51300667"><ele>177.6</ele><time>2022-11-13T16:27:59.0000000+00:00</time></trkpt><trkpt lat="38.96196764" lon="-0.51300558"><ele>177.6</ele><time>2022-11-13T16:28:00.0000000+00:00</time></trkpt><trkpt lat="38.96195515" lon="-0.51300533"><ele>177.8</ele><time>2022-11-13T16:28:01.0000000+00:00</time></trkpt><trkpt lat="38.96194518" lon="-0.51300366"><ele>178.0</ele><time>2022-11-13T16:28:02.0000000+00:00</time></trkpt><trkpt lat="38.96193897" lon="-0.51300382"><ele>178.0</ele><time>2022-11-13T16:28:03.0000000+00:00</time></trkpt><trkpt lat="38.9619342" lon="-0.51300198"><ele>178.0</ele><time>2022-11-13T16:28:04.0000000+00:00</time></trkpt><trkpt lat="38.96193017" lon="-0.51299988"><ele>178.2</ele><time>2022-11-13T16:28:05.0000000+00:00</time></trkpt><trkpt lat="38.96192766" lon="-0.51299402"><ele>178.2</ele><time>2022-11-13T16:28:06.0000000+00:00</time></trkpt><trkpt lat="38.96192975" lon="-0.51298614"><ele>178.2</ele><time>2022-11-13T16:28:07.0000000+00:00</time></trkpt><trkpt lat="38.9619233" lon="-0.51297499"><ele>178.4</ele><time>2022-11-13T16:28:08.0000000+00:00</time></trkpt><trkpt lat="38.96191928" lon="-0.51296912"><ele>178.4</ele><time>2022-11-13T16:28:09.0000000+00:00</time></trkpt><trkpt lat="38.96191718" lon="-0.51296325"><ele>178.4</ele><time>2022-11-13T16:28:10.0000000+00:00</time></trkpt><trkpt lat="38.96191903" lon="-0.51295538"><ele>178.6</ele><time>2022-11-13T16:28:11.0000000+00:00</time></trkpt><trkpt lat="38.96191936" lon="-0.51294641"><ele>178.6</ele><time>2022-11-13T16:28:12.0000000+00:00</time></trkpt><trkpt lat="38.96192372" lon="-0.51293861"><ele>178.6</ele><time>2022-11-13T16:28:13.0000000+00:00</time></trkpt><trkpt lat="38.96193143" lon="-0.51293031"><ele>178.6</ele><time>2022-11-13T16:28:14.0000000+00:00</time></trkpt><trkpt lat="38.96193964" lon="-0.51292168"><ele>178.4</ele><time>2022-11-13T16:28:15.0000000+00:00</time></trkpt><trkpt lat="38.96194442" lon="-0.51290928"><ele>178.4</ele><time>2022-11-13T16:28:16.0000000+00:00</time></trkpt><trkpt lat="38.9619528" lon="-0.51289855"><ele>178.4</ele><time>2022-11-13T16:28:17.0000000+00:00</time></trkpt><trkpt lat="38.96195591" lon="-0.51288731"><ele>178.4</ele><time>2022-11-13T16:28:18.0000000+00:00</time></trkpt><trkpt lat="38.9619611" lon="-0.51287524"><ele>178.2</ele><time>2022-11-13T16:28:19.0000000+00:00</time></trkpt><trkpt lat="38.96196613" lon="-0.51285856"><ele>178.2</ele><time>2022-11-13T16:28:20.0000000+00:00</time></trkpt><trkpt lat="38.96197267" lon="-0.51284038"><ele>178.2</ele><time>2022-11-13T16:28:21.0000000+00:00</time></trkpt><trkpt lat="38.96198097" lon="-0.51282931"><ele>178.0</ele><time>2022-11-13T16:28:22.0000000+00:00</time></trkpt><trkpt lat="38.96198751" lon="-0.51282277"><ele>177.8</ele><time>2022-11-13T16:28:23.0000000+00:00</time></trkpt><trkpt lat="38.96199027" lon="-0.51280953"><ele>177.8</ele><time>2022-11-13T16:28:24.0000000+00:00</time></trkpt><trkpt lat="38.96198885" lon="-0.51279562"><ele>177.6</ele><time>2022-11-13T16:28:25.0000000+00:00</time></trkpt><trkpt lat="38.96199144" lon="-0.51278221"><ele>177.6</ele><time>2022-11-13T16:28:26.0000000+00:00</time></trkpt><trkpt lat="38.96199547" lon="-0.51277273"><ele>177.4</ele><time>2022-11-13T16:28:27.0000000+00:00</time></trkpt><trkpt lat="38.96199974" lon="-0.51276142"><ele>177.4</ele><time>2022-11-13T16:28:28.0000000+00:00</time></trkpt><trkpt lat="38.96200025" lon="-0.51274658"><ele>177.2</ele><time>2022-11-13T16:28:29.0000000+00:00</time></trkpt><trkpt lat="38.96200033" lon="-0.51273535"><ele>177.2</ele><time>2022-11-13T16:28:30.0000000+00:00</time></trkpt><trkpt lat="38.96200259" lon="-0.51272135"><ele>177.2</ele><time>2022-11-13T16:28:31.0000000+00:00</time></trkpt><trkpt lat="38.96200611" lon="-0.51270719"><ele>177.0</ele><time>2022-11-13T16:28:32.0000000+00:00</time></trkpt><trkpt lat="38.96200997" lon="-0.51269688"><ele>177.0</ele><time>2022-11-13T16:28:33.0000000+00:00</time></trkpt><trkpt lat="38.96201533" lon="-0.51268682"><ele>177.0</ele><time>2022-11-13T16:28:34.0000000+00:00</time></trkpt><trkpt lat="38.96202061" lon="-0.51267341"><ele>176.8</ele><time>2022-11-13T16:28:35.0000000+00:00</time></trkpt><trkpt lat="38.96202204" lon="-0.51266327"><ele>176.8</ele><time>2022-11-13T16:28:36.0000000+00:00</time></trkpt><trkpt lat="38.96202539" lon="-0.51265145"><ele>176.8</ele><time>2022-11-13T16:28:37.0000000+00:00</time></trkpt><trkpt lat="38.96203185" lon="-0.51263653"><ele>176.8</ele><time>2022-11-13T16:28:38.0000000+00:00</time></trkpt><trkpt lat="38.96203587" lon="-0.51262546"><ele>176.8</ele><time>2022-11-13T16:28:39.0000000+00:00</time></trkpt><trkpt lat="38.96203998" lon="-0.51261189"><ele>176.8</ele><time>2022-11-13T16:28:40.0000000+00:00</time></trkpt><trkpt lat="38.96204769" lon="-0.51259747"><ele>176.8</ele><time>2022-11-13T16:28:41.0000000+00:00</time></trkpt><trkpt lat="38.96205213" lon="-0.51258632"><ele>176.8</ele><time>2022-11-13T16:28:42.0000000+00:00</time></trkpt><trkpt lat="38.96205523" lon="-0.51257031"><ele>176.8</ele><time>2022-11-13T16:28:43.0000000+00:00</time></trkpt><trkpt lat="38.9620585" lon="-0.5125486"><ele>176.8</ele><time>2022-11-13T16:28:44.0000000+00:00</time></trkpt><trkpt lat="38.96205758" lon="-0.51253502"><ele>176.8</ele><time>2022-11-13T16:28:45.0000000+00:00</time></trkpt><trkpt lat="38.96205322" lon="-0.51251868"><ele>176.6</ele><time>2022-11-13T16:28:46.0000000+00:00</time></trkpt><trkpt lat="38.96204827" lon="-0.51250518"><ele>176.6</ele><time>2022-11-13T16:28:47.0000000+00:00</time></trkpt><trkpt lat="38.96204534" lon="-0.51249093"><ele>176.6</ele><time>2022-11-13T16:28:48.0000000+00:00</time></trkpt><trkpt lat="38.96204509" lon="-0.51247836"><ele>176.6</ele><time>2022-11-13T16:28:49.0000000+00:00</time></trkpt><trkpt lat="38.962044" lon="-0.51246462"><ele>176.6</ele><time>2022-11-13T16:28:50.0000000+00:00</time></trkpt><trkpt lat="38.96204207" lon="-0.51245204"><ele>176.6</ele><time>2022-11-13T16:28:51.0000000+00:00</time></trkpt><trkpt lat="38.96203897" lon="-0.51243695"><ele>176.6</ele><time>2022-11-13T16:28:52.0000000+00:00</time></trkpt><trkpt lat="38.9620362" lon="-0.51242447"><ele>176.6</ele><time>2022-11-13T16:28:53.0000000+00:00</time></trkpt><trkpt lat="38.96203285" lon="-0.51241156"><ele>176.6</ele><time>2022-11-13T16:28:54.0000000+00:00</time></trkpt><trkpt lat="38.96203126" lon="-0.51239756"><ele>176.6</ele><time>2022-11-13T16:28:55.0000000+00:00</time></trkpt><trkpt lat="38.96203201" lon="-0.51238138"><ele>176.6</ele><time>2022-11-13T16:28:56.0000000+00:00</time></trkpt><trkpt lat="38.9620326" lon="-0.51236596"><ele>176.6</ele><time>2022-11-13T16:28:57.0000000+00:00</time></trkpt><trkpt lat="38.96203143" lon="-0.51235003"><ele>176.6</ele><time>2022-11-13T16:28:58.0000000+00:00</time></trkpt><trkpt lat="38.96202958" lon="-0.51233654"><ele>176.6</ele><time>2022-11-13T16:28:59.0000000+00:00</time></trkpt><trkpt lat="38.96202724" lon="-0.51232011"><ele>176.6</ele><time>2022-11-13T16:29:00.0000000+00:00</time></trkpt><trkpt lat="38.9620243" lon="-0.51230494"><ele>176.6</ele><time>2022-11-13T16:29:01.0000000+00:00</time></trkpt><trkpt lat="38.96202078" lon="-0.51229077"><ele>176.6</ele><time>2022-11-13T16:29:02.0000000+00:00</time></trkpt><trkpt lat="38.96202019" lon="-0.51227602"><ele>176.6</ele><time>2022-11-13T16:29:03.0000000+00:00</time></trkpt><trkpt lat="38.96201776" lon="-0.51226295"><ele>176.6</ele><time>2022-11-13T16:29:04.0000000+00:00</time></trkpt><trkpt lat="38.96201693" lon="-0.51225012"><ele>176.6</ele><time>2022-11-13T16:29:05.0000000+00:00</time></trkpt><trkpt lat="38.96201802" lon="-0.51223462"><ele>176.6</ele><time>2022-11-13T16:29:06.0000000+00:00</time></trkpt><trkpt lat="38.96201835" lon="-0.51222179"><ele>176.6</ele><time>2022-11-13T16:29:07.0000000+00:00</time></trkpt><trkpt lat="38.96201911" lon="-0.51221064"><ele>176.8</ele><time>2022-11-13T16:29:08.0000000+00:00</time></trkpt><trkpt lat="38.96201558" lon="-0.51219857"><ele>176.8</ele><time>2022-11-13T16:29:09.0000000+00:00</time></trkpt><trkpt lat="38.96201123" lon="-0.51218466"><ele>176.8</ele><time>2022-11-13T16:29:10.0000000+00:00</time></trkpt><trkpt lat="38.96200955" lon="-0.51216974"><ele>176.8</ele><time>2022-11-13T16:29:11.0000000+00:00</time></trkpt><trkpt lat="38.96200896" lon="-0.51215516"><ele>177.0</ele><time>2022-11-13T16:29:12.0000000+00:00</time></trkpt><trkpt lat="38.96200972" lon="-0.51214032"><ele>177.0</ele><time>2022-11-13T16:29:13.0000000+00:00</time></trkpt><trkpt lat="38.96201089" lon="-0.51212699"><ele>177.0</ele><time>2022-11-13T16:29:14.0000000+00:00</time></trkpt><trkpt lat="38.96201424" lon="-0.51211207"><ele>177.0</ele><time>2022-11-13T16:29:15.0000000+00:00</time></trkpt><trkpt lat="38.96201869" lon="-0.51209791"><ele>177.0</ele><time>2022-11-13T16:29:16.0000000+00:00</time></trkpt><trkpt lat="38.96201902" lon="-0.51208332"><ele>177.0</ele><time>2022-11-13T16:29:17.0000000+00:00</time></trkpt><trkpt lat="38.96201609" lon="-0.51206899"><ele>177.0</ele><time>2022-11-13T16:29:18.0000000+00:00</time></trkpt><trkpt lat="38.96201449" lon="-0.51205206"><ele>177.0</ele><time>2022-11-13T16:29:19.0000000+00:00</time></trkpt><trkpt lat="38.96201324" lon="-0.5120358"><ele>177.0</ele><time>2022-11-13T16:29:20.0000000+00:00</time></trkpt><trkpt lat="38.96201005" lon="-0.51201786"><ele>177.0</ele><time>2022-11-13T16:29:21.0000000+00:00</time></trkpt><trkpt lat="38.96200695" lon="-0.5120042"><ele>177.0</ele><time>2022-11-13T16:29:22.0000000+00:00</time></trkpt><trkpt lat="38.96200569" lon="-0.51199012"><ele>177.0</ele><time>2022-11-13T16:29:23.0000000+00:00</time></trkpt><trkpt lat="38.96200653" lon="-0.5119752"><ele>177.0</ele><time>2022-11-13T16:29:24.0000000+00:00</time></trkpt><trkpt lat="38.96200343" lon="-0.51195969"><ele>177.0</ele><time>2022-11-13T16:29:25.0000000+00:00</time></trkpt><trkpt lat="38.9619989" lon="-0.51194678"><ele>177.0</ele><time>2022-11-13T16:29:26.0000000+00:00</time></trkpt><trkpt lat="38.96199555" lon="-0.51193454"><ele>177.0</ele><time>2022-11-13T16:29:27.0000000+00:00</time></trkpt><trkpt lat="38.96199471" lon="-0.51192331"><ele>177.0</ele><time>2022-11-13T16:29:28.0000000+00:00</time></trkpt><trkpt lat="38.96199304" lon="-0.51191292"><ele>177.0</ele><time>2022-11-13T16:29:29.0000000+00:00</time></trkpt><trkpt lat="38.96199069" lon="-0.51190244"><ele>177.0</ele><time>2022-11-13T16:29:30.0000000+00:00</time></trkpt><trkpt lat="38.96198759" lon="-0.5118902"><ele>177.0</ele><time>2022-11-13T16:29:31.0000000+00:00</time></trkpt><trkpt lat="38.96198432" lon="-0.51187595"><ele>177.0</ele><time>2022-11-13T16:29:32.0000000+00:00</time></trkpt><trkpt lat="38.96198164" lon="-0.51186296"><ele>177.0</ele><time>2022-11-13T16:29:33.0000000+00:00</time></trkpt><trkpt lat="38.96198097" lon="-0.51184989"><ele>177.0</ele><time>2022-11-13T16:29:34.0000000+00:00</time></trkpt><trkpt lat="38.9619782" lon="-0.5118353"><ele>177.0</ele><time>2022-11-13T16:29:35.0000000+00:00</time></trkpt><trkpt lat="38.96197585" lon="-0.51181954"><ele>177.0</ele><time>2022-11-13T16:29:36.0000000+00:00</time></trkpt><trkpt lat="38.96197191" lon="-0.51180546"><ele>177.0</ele><time>2022-11-13T16:29:37.0000000+00:00</time></trkpt><trkpt lat="38.96196672" lon="-0.51179381"><ele>177.0</ele><time>2022-11-13T16:29:38.0000000+00:00</time></trkpt><trkpt lat="38.96196202" lon="-0.51178384"><ele>177.0</ele><time>2022-11-13T16:29:39.0000000+00:00</time></trkpt><trkpt lat="38.96195909" lon="-0.51177261"><ele>177.0</ele><time>2022-11-13T16:29:40.0000000+00:00</time></trkpt><trkpt lat="38.96195808" lon="-0.51176129"><ele>177.0</ele><time>2022-11-13T16:29:41.0000000+00:00</time></trkpt><trkpt lat="38.96195691" lon="-0.51175106"><ele>177.0</ele><time>2022-11-13T16:29:42.0000000+00:00</time></trkpt><trkpt lat="38.96195565" lon="-0.51174025"><ele>177.0</ele><time>2022-11-13T16:29:43.0000000+00:00</time></trkpt><trkpt lat="38.9619554" lon="-0.51172709"><ele>177.0</ele><time>2022-11-13T16:29:44.0000000+00:00</time></trkpt><trkpt lat="38.96195523" lon="-0.51170991"><ele>177.0</ele><time>2022-11-13T16:29:45.0000000+00:00</time></trkpt><trkpt lat="38.96195775" lon="-0.51169465"><ele>177.0</ele><time>2022-11-13T16:29:46.0000000+00:00</time></trkpt><trkpt lat="38.9619606" lon="-0.51168283"><ele>177.0</ele><time>2022-11-13T16:29:47.0000000+00:00</time></trkpt><trkpt lat="38.96196295" lon="-0.51167093"><ele>177.0</ele><time>2022-11-13T16:29:48.0000000+00:00</time></trkpt><trkpt lat="38.96196663" lon="-0.51165844"><ele>177.0</ele><time>2022-11-13T16:29:49.0000000+00:00</time></trkpt><trkpt lat="38.96197099" lon="-0.51164554"><ele>177.0</ele><time>2022-11-13T16:29:50.0000000+00:00</time></trkpt><trkpt lat="38.9619715" lon="-0.51163338"><ele>176.8</ele><time>2022-11-13T16:29:51.0000000+00:00</time></trkpt><trkpt lat="38.96197066" lon="-0.51161788"><ele>176.8</ele><time>2022-11-13T16:29:52.0000000+00:00</time></trkpt><trkpt lat="38.96197041" lon="-0.51160589"><ele>176.8</ele><time>2022-11-13T16:29:53.0000000+00:00</time></trkpt><trkpt lat="38.96197275" lon="-0.51158778"><ele>176.8</ele><time>2022-11-13T16:29:54.0000000+00:00</time></trkpt><trkpt lat="38.96197476" lon="-0.51157462"><ele>177.0</ele><time>2022-11-13T16:29:55.0000000+00:00</time></trkpt><trkpt lat="38.96197971" lon="-0.51155962"><ele>177.0</ele><time>2022-11-13T16:29:56.0000000+00:00</time></trkpt><trkpt lat="38.9619901" lon="-0.51155007"><ele>177.0</ele><time>2022-11-13T16:29:57.0000000+00:00</time></trkpt><trkpt lat="38.9619927" lon="-0.51153691"><ele>177.0</ele><time>2022-11-13T16:29:58.0000000+00:00</time></trkpt><trkpt lat="38.96199673" lon="-0.51152509"><ele>177.0</ele><time>2022-11-13T16:29:59.0000000+00:00</time></trkpt><trkpt lat="38.96200368" lon="-0.51151805"><ele>177.0</ele><time>2022-11-13T16:30:00.0000000+00:00</time></trkpt><trkpt lat="38.96200754" lon="-0.51150522"><ele>177.0</ele><time>2022-11-13T16:30:01.0000000+00:00</time></trkpt><trkpt lat="38.96200938" lon="-0.51149039"><ele>177.0</ele><time>2022-11-13T16:30:02.0000000+00:00</time></trkpt><trkpt lat="38.96201391" lon="-0.51147295"><ele>177.0</ele><time>2022-11-13T16:30:03.0000000+00:00</time></trkpt><trkpt lat="38.96201667" lon="-0.51145736"><ele>177.0</ele><time>2022-11-13T16:30:04.0000000+00:00</time></trkpt><trkpt lat="38.96201885" lon="-0.51144471"><ele>177.0</ele><time>2022-11-13T16:30:05.0000000+00:00</time></trkpt><trkpt lat="38.96202195" lon="-0.51143264"><ele>177.0</ele><time>2022-11-13T16:30:06.0000000+00:00</time></trkpt><trkpt lat="38.96202413" lon="-0.51141755"><ele>177.2</ele><time>2022-11-13T16:30:07.0000000+00:00</time></trkpt><trkpt lat="38.96202707" lon="-0.5114038"><ele>177.2</ele><time>2022-11-13T16:30:08.0000000+00:00</time></trkpt><trkpt lat="38.96203117" lon="-0.51139131"><ele>177.2</ele><time>2022-11-13T16:30:09.0000000+00:00</time></trkpt><trkpt lat="38.96203746" lon="-0.5113784"><ele>177.2</ele><time>2022-11-13T16:30:10.0000000+00:00</time></trkpt><trkpt lat="38.96204299" lon="-0.51136684"><ele>177.2</ele><time>2022-11-13T16:30:11.0000000+00:00</time></trkpt><trkpt lat="38.96204811" lon="-0.51135468"><ele>177.2</ele><time>2022-11-13T16:30:12.0000000+00:00</time></trkpt><trkpt lat="38.96205347" lon="-0.51134387"><ele>177.2</ele><time>2022-11-13T16:30:13.0000000+00:00</time></trkpt><trkpt lat="38.96206026" lon="-0.51133633"><ele>177.2</ele><time>2022-11-13T16:30:14.0000000+00:00</time></trkpt><trkpt lat="38.96206697" lon="-0.5113292"><ele>177.2</ele><time>2022-11-13T16:30:15.0000000+00:00</time></trkpt><trkpt lat="38.96207116" lon="-0.51131931"><ele>177.2</ele><time>2022-11-13T16:30:16.0000000+00:00</time></trkpt><trkpt lat="38.96207535" lon="-0.51130733"><ele>177.2</ele><time>2022-11-13T16:30:17.0000000+00:00</time></trkpt><trkpt lat="38.96207971" lon="-0.511294"><ele>177.2</ele><time>2022-11-13T16:30:18.0000000+00:00</time></trkpt><trkpt lat="38.96208298" lon="-0.51128034"><ele>177.2</ele><time>2022-11-13T16:30:19.0000000+00:00</time></trkpt><trkpt lat="38.96208633" lon="-0.5112655"><ele>177.2</ele><time>2022-11-13T16:30:20.0000000+00:00</time></trkpt><trkpt lat="38.96209002" lon="-0.51125209"><ele>177.2</ele><time>2022-11-13T16:30:21.0000000+00:00</time></trkpt><trkpt lat="38.9620927" lon="-0.51123859"><ele>177.2</ele><time>2022-11-13T16:30:22.0000000+00:00</time></trkpt><trkpt lat="38.96209546" lon="-0.51122543"><ele>177.4</ele><time>2022-11-13T16:30:23.0000000+00:00</time></trkpt><trkpt lat="38.96210024" lon="-0.51121194"><ele>177.4</ele><time>2022-11-13T16:30:24.0000000+00:00</time></trkpt><trkpt lat="38.96210435" lon="-0.51119786"><ele>177.4</ele><time>2022-11-13T16:30:25.0000000+00:00</time></trkpt><trkpt lat="38.96211105" lon="-0.51118252"><ele>177.4</ele><time>2022-11-13T16:30:26.0000000+00:00</time></trkpt><trkpt lat="38.96211499" lon="-0.51116928"><ele>177.4</ele><time>2022-11-13T16:30:27.0000000+00:00</time></trkpt><trkpt lat="38.96211885" lon="-0.51115645"><ele>177.4</ele><time>2022-11-13T16:30:28.0000000+00:00</time></trkpt><trkpt lat="38.96212237" lon="-0.51114321"><ele>177.4</ele><time>2022-11-13T16:30:29.0000000+00:00</time></trkpt><trkpt lat="38.96212564" lon="-0.51112862"><ele>177.4</ele><time>2022-11-13T16:30:30.0000000+00:00</time></trkpt><trkpt lat="38.96213067" lon="-0.51111387"><ele>177.4</ele><time>2022-11-13T16:30:31.0000000+00:00</time></trkpt><trkpt lat="38.96213628" lon="-0.51109979"><ele>177.4</ele><time>2022-11-13T16:30:32.0000000+00:00</time></trkpt><trkpt lat="38.96214156" lon="-0.51108495"><ele>177.4</ele><time>2022-11-13T16:30:33.0000000+00:00</time></trkpt><trkpt lat="38.96214433" lon="-0.5110702"><ele>177.4</ele><time>2022-11-13T16:30:34.0000000+00:00</time></trkpt><trkpt lat="38.96214785" lon="-0.51105511"><ele>177.4</ele><time>2022-11-13T16:30:35.0000000+00:00</time></trkpt><trkpt lat="38.96215003" lon="-0.51104221"><ele>177.4</ele><time>2022-11-13T16:30:36.0000000+00:00</time></trkpt><trkpt lat="38.96215422" lon="-0.5110298"><ele>177.4</ele><time>2022-11-13T16:30:37.0000000+00:00</time></trkpt><trkpt lat="38.96215967" lon="-0.51101756"><ele>177.4</ele><time>2022-11-13T16:30:38.0000000+00:00</time></trkpt><trkpt lat="38.96216428" lon="-0.51100499"><ele>177.4</ele><time>2022-11-13T16:30:39.0000000+00:00</time></trkpt><trkpt lat="38.96216772" lon="-0.51099133"><ele>177.2</ele><time>2022-11-13T16:30:40.0000000+00:00</time></trkpt><trkpt lat="38.96217065" lon="-0.51097716"><ele>177.2</ele><time>2022-11-13T16:30:41.0000000+00:00</time></trkpt><trkpt lat="38.96217233" lon="-0.51096384"><ele>177.2</ele><time>2022-11-13T16:30:42.0000000+00:00</time></trkpt><trkpt lat="38.9621756" lon="-0.51095051"><ele>177.0</ele><time>2022-11-13T16:30:43.0000000+00:00</time></trkpt><trkpt lat="38.96217618" lon="-0.51093718"><ele>177.0</ele><time>2022-11-13T16:30:44.0000000+00:00</time></trkpt><trkpt lat="38.9621792" lon="-0.51092167"><ele>177.0</ele><time>2022-11-13T16:30:45.0000000+00:00</time></trkpt><trkpt lat="38.96218272" lon="-0.51090768"><ele>177.0</ele><time>2022-11-13T16:30:46.0000000+00:00</time></trkpt><trkpt lat="38.96218708" lon="-0.51089292"><ele>177.0</ele><time>2022-11-13T16:30:47.0000000+00:00</time></trkpt><trkpt lat="38.96219202" lon="-0.51087893"><ele>177.0</ele><time>2022-11-13T16:30:48.0000000+00:00</time></trkpt><trkpt lat="38.96219806" lon="-0.51086619"><ele>177.0</ele><time>2022-11-13T16:30:49.0000000+00:00</time></trkpt><trkpt lat="38.96220242" lon="-0.51085311"><ele>177.0</ele><time>2022-11-13T16:30:50.0000000+00:00</time></trkpt><trkpt lat="38.9622046" lon="-0.51083878"><ele>176.8</ele><time>2022-11-13T16:30:51.0000000+00:00</time></trkpt><trkpt lat="38.96220376" lon="-0.51082503"><ele>177.0</ele><time>2022-11-13T16:30:52.0000000+00:00</time></trkpt><trkpt lat="38.96220326" lon="-0.51081162"><ele>176.8</ele><time>2022-11-13T16:30:53.0000000+00:00</time></trkpt><trkpt lat="38.96220393" lon="-0.51079536"><ele>176.8</ele><time>2022-11-13T16:30:54.0000000+00:00</time></trkpt><trkpt lat="38.96220619" lon="-0.5107817"><ele>176.8</ele><time>2022-11-13T16:30:55.0000000+00:00</time></trkpt><trkpt lat="38.96221088" lon="-0.5107677"><ele>176.8</ele><time>2022-11-13T16:30:56.0000000+00:00</time></trkpt><trkpt lat="38.96221482" lon="-0.51075345"><ele>176.8</ele><time>2022-11-13T16:30:57.0000000+00:00</time></trkpt><trkpt lat="38.96221818" lon="-0.51074004"><ele>176.8</ele><time>2022-11-13T16:30:58.0000000+00:00</time></trkpt><trkpt lat="38.96222077" lon="-0.51072629"><ele>176.8</ele><time>2022-11-13T16:30:59.0000000+00:00</time></trkpt><trkpt lat="38.96222211" lon="-0.51071171"><ele>176.8</ele><time>2022-11-13T16:31:00.0000000+00:00</time></trkpt><trkpt lat="38.9622258" lon="-0.51069737"><ele>176.8</ele><time>2022-11-13T16:31:01.0000000+00:00</time></trkpt><trkpt lat="38.96223251" lon="-0.51068505"><ele>177.0</ele><time>2022-11-13T16:31:02.0000000+00:00</time></trkpt><trkpt lat="38.96223972" lon="-0.5106729"><ele>176.8</ele><time>2022-11-13T16:31:03.0000000+00:00</time></trkpt><trkpt lat="38.96224592" lon="-0.51065899"><ele>176.8</ele><time>2022-11-13T16:31:04.0000000+00:00</time></trkpt><trkpt lat="38.96225229" lon="-0.51064574"><ele>176.8</ele><time>2022-11-13T16:31:05.0000000+00:00</time></trkpt><trkpt lat="38.96225799" lon="-0.51063258"><ele>176.8</ele><time>2022-11-13T16:31:06.0000000+00:00</time></trkpt><trkpt lat="38.96226092" lon="-0.51061875"><ele>176.8</ele><time>2022-11-13T16:31:07.0000000+00:00</time></trkpt><trkpt lat="38.96226495" lon="-0.51060685"><ele>176.8</ele><time>2022-11-13T16:31:08.0000000+00:00</time></trkpt><trkpt lat="38.96227241" lon="-0.51059679"><ele>176.8</ele><time>2022-11-13T16:31:09.0000000+00:00</time></trkpt><trkpt lat="38.9622807" lon="-0.51058732"><ele>176.8</ele><time>2022-11-13T16:31:10.0000000+00:00</time></trkpt><trkpt lat="38.96228691" lon="-0.51057743"><ele>176.8</ele><time>2022-11-13T16:31:11.0000000+00:00</time></trkpt><trkpt lat="38.96229738" lon="-0.5105672"><ele>176.8</ele><time>2022-11-13T16:31:12.0000000+00:00</time></trkpt><trkpt lat="38.96230669" lon="-0.51055488"><ele>176.8</ele><time>2022-11-13T16:31:13.0000000+00:00</time></trkpt><trkpt lat="38.96231222" lon="-0.5105429"><ele>176.8</ele><time>2022-11-13T16:31:14.0000000+00:00</time></trkpt><trkpt lat="38.96231851" lon="-0.51053158"><ele>176.8</ele><time>2022-11-13T16:31:15.0000000+00:00</time></trkpt><trkpt lat="38.96232496" lon="-0.51051926"><ele>176.8</ele><time>2022-11-13T16:31:16.0000000+00:00</time></trkpt><trkpt lat="38.96233259" lon="-0.51050794"><ele>176.8</ele><time>2022-11-13T16:31:17.0000000+00:00</time></trkpt><trkpt lat="38.96233787" lon="-0.51049512"><ele>176.6</ele><time>2022-11-13T16:31:18.0000000+00:00</time></trkpt><trkpt lat="38.9623439" lon="-0.51048062"><ele>176.6</ele><time>2022-11-13T16:31:19.0000000+00:00</time></trkpt><trkpt lat="38.9623517" lon="-0.51046763"><ele>176.6</ele><time>2022-11-13T16:31:20.0000000+00:00</time></trkpt><trkpt lat="38.96236" lon="-0.51045631"><ele>176.6</ele><time>2022-11-13T16:31:21.0000000+00:00</time></trkpt><trkpt lat="38.96236653" lon="-0.51044382"><ele>176.4</ele><time>2022-11-13T16:31:22.0000000+00:00</time></trkpt><trkpt lat="38.96237299" lon="-0.51043226"><ele>176.4</ele><time>2022-11-13T16:31:23.0000000+00:00</time></trkpt><trkpt lat="38.96237844" lon="-0.51041926"><ele>176.4</ele><time>2022-11-13T16:31:24.0000000+00:00</time></trkpt><trkpt lat="38.96238397" lon="-0.51040677"><ele>176.4</ele><time>2022-11-13T16:31:25.0000000+00:00</time></trkpt><trkpt lat="38.96239009" lon="-0.51039496"><ele>176.4</ele><time>2022-11-13T16:31:26.0000000+00:00</time></trkpt><trkpt lat="38.96239989" lon="-0.5103859"><ele>176.4</ele><time>2022-11-13T16:31:27.0000000+00:00</time></trkpt><trkpt lat="38.96240903" lon="-0.51037668"><ele>176.2</ele><time>2022-11-13T16:31:28.0000000+00:00</time></trkpt><trkpt lat="38.96241766" lon="-0.51036671"><ele>176.2</ele><time>2022-11-13T16:31:29.0000000+00:00</time></trkpt><trkpt lat="38.96242579" lon="-0.51035439"><ele>176.2</ele><time>2022-11-13T16:31:30.0000000+00:00</time></trkpt><trkpt lat="38.96243569" lon="-0.51034466"><ele>176.2</ele><time>2022-11-13T16:31:31.0000000+00:00</time></trkpt><trkpt lat="38.96244507" lon="-0.51033712"><ele>176.2</ele><time>2022-11-13T16:31:32.0000000+00:00</time></trkpt><trkpt lat="38.96245346" lon="-0.51032924"><ele>176.2</ele><time>2022-11-13T16:31:33.0000000+00:00</time></trkpt><trkpt lat="38.96246293" lon="-0.51032061"><ele>176.2</ele><time>2022-11-13T16:31:34.0000000+00:00</time></trkpt><trkpt lat="38.96247491" lon="-0.51031357"><ele>176.2</ele><time>2022-11-13T16:31:35.0000000+00:00</time></trkpt><trkpt lat="38.9624812" lon="-0.51030393"><ele>176.2</ele><time>2022-11-13T16:31:36.0000000+00:00</time></trkpt><trkpt lat="38.96248631" lon="-0.51029479"><ele>176.0</ele><time>2022-11-13T16:31:37.0000000+00:00</time></trkpt><trkpt lat="38.96249394" lon="-0.5102839"><ele>176.0</ele><time>2022-11-13T16:31:38.0000000+00:00</time></trkpt><trkpt lat="38.96250433" lon="-0.51027568"><ele>176.0</ele><time>2022-11-13T16:31:39.0000000+00:00</time></trkpt><trkpt lat="38.96251523" lon="-0.5102673"><ele>176.0</ele><time>2022-11-13T16:31:40.0000000+00:00</time></trkpt><trkpt lat="38.96252546" lon="-0.51025841"><ele>176.0</ele><time>2022-11-13T16:31:41.0000000+00:00</time></trkpt><trkpt lat="38.96253635" lon="-0.51024785"><ele>176.0</ele><time>2022-11-13T16:31:42.0000000+00:00</time></trkpt><trkpt lat="38.96254499" lon="-0.51023712"><ele>176.0</ele><time>2022-11-13T16:31:43.0000000+00:00</time></trkpt><trkpt lat="38.96255379" lon="-0.51022598"><ele>176.0</ele><time>2022-11-13T16:31:44.0000000+00:00</time></trkpt><trkpt lat="38.96256418" lon="-0.51021759"><ele>176.0</ele><time>2022-11-13T16:31:45.0000000+00:00</time></trkpt><trkpt lat="38.96257432" lon="-0.51020837"><ele>176.0</ele><time>2022-11-13T16:31:46.0000000+00:00</time></trkpt><trkpt lat="38.96258203" lon="-0.51019739"><ele>176.0</ele><time>2022-11-13T16:31:47.0000000+00:00</time></trkpt><trkpt lat="38.96258882" lon="-0.51018641"><ele>176.0</ele><time>2022-11-13T16:31:48.0000000+00:00</time></trkpt><trkpt lat="38.96260005" lon="-0.51017652"><ele>176.0</ele><time>2022-11-13T16:31:49.0000000+00:00</time></trkpt><trkpt lat="38.96261212" lon="-0.51016437"><ele>176.0</ele><time>2022-11-13T16:31:50.0000000+00:00</time></trkpt><trkpt lat="38.96262" lon="-0.51015037"><ele>176.0</ele><time>2022-11-13T16:31:51.0000000+00:00</time></trkpt><trkpt lat="38.9626288" lon="-0.5101357"><ele>176.0</ele><time>2022-11-13T16:31:52.0000000+00:00</time></trkpt><trkpt lat="38.96263937" lon="-0.51012246"><ele>176.0</ele><time>2022-11-13T16:31:53.0000000+00:00</time></trkpt><trkpt lat="38.96264917" lon="-0.51011299"><ele>175.8</ele><time>2022-11-13T16:31:54.0000000+00:00</time></trkpt><trkpt lat="38.9626573" lon="-0.51010243"><ele>175.8</ele><time>2022-11-13T16:31:55.0000000+00:00</time></trkpt><trkpt lat="38.96266267" lon="-0.51009254"><ele>175.8</ele><time>2022-11-13T16:31:56.0000000+00:00</time></trkpt><trkpt lat="38.96266392" lon="-0.51008734"><ele>175.6</ele><time>2022-11-13T16:31:57.0000000+00:00</time></trkpt><trkpt lat="38.96266376" lon="-0.51008516"><ele>175.6</ele><time>2022-11-13T16:31:58.0000000+00:00</time></trkpt><trkpt lat="38.96266501" lon="-0.51008223"><ele>175.6</ele><time>2022-11-13T16:31:59.0000000+00:00</time></trkpt><trkpt lat="38.96266904" lon="-0.51007745"><ele>175.6</ele><time>2022-11-13T16:32:00.0000000+00:00</time></trkpt><trkpt lat="38.96267633" lon="-0.51007284"><ele>175.4</ele><time>2022-11-13T16:32:01.0000000+00:00</time></trkpt><trkpt lat="38.96268446" lon="-0.51006873"><ele>175.4</ele><time>2022-11-13T16:32:02.0000000+00:00</time></trkpt><trkpt lat="38.96268966" lon="-0.51006538"><ele>175.4</ele><time>2022-11-13T16:32:03.0000000+00:00</time></trkpt><trkpt lat="38.96269058" lon="-0.51006395"><ele>175.4</ele><time>2022-11-13T16:32:04.0000000+00:00</time></trkpt><trkpt lat="38.96268932" lon="-0.51006354"><ele>175.4</ele><time>2022-11-13T16:32:05.0000000+00:00</time></trkpt><trkpt lat="38.96268865" lon="-0.51006362"><ele>175.4</ele><time>2022-11-13T16:32:06.0000000+00:00</time></trkpt><trkpt lat="38.96268832" lon="-0.51006379"><ele>175.2</ele><time>2022-11-13T16:32:07.0000000+00:00</time></trkpt><trkpt lat="38.96268823" lon="-0.51006387"><ele>175.2</ele><time>2022-11-13T16:32:08.0000000+00:00</time></trkpt><trkpt lat="38.96268857" lon="-0.51006421"><ele>175.2</ele><time>2022-11-13T16:32:09.0000000+00:00</time></trkpt><trkpt lat="38.9626879" lon="-0.51006429"><ele>175.2</ele><time>2022-11-13T16:32:10.0000000+00:00</time></trkpt><trkpt lat="38.9626879" lon="-0.51006429"><ele>175.2</ele><time>2022-11-13T16:32:11.0000000+00:00</time></trkpt><trkpt lat="38.9626879" lon="-0.51006429"><ele>175.2</ele><time>2022-11-13T16:32:12.0000000+00:00</time></trkpt><trkpt lat="38.9626879" lon="-0.51006429"><ele>175.2</ele><time>2022-11-13T16:32:13.0000000+00:00</time></trkpt><trkpt lat="38.9626879" lon="-0.51006429"><ele>175.2</ele><time>2022-11-13T16:32:14.0000000+00:00</time></trkpt><trkpt lat="38.9626879" lon="-0.51006429"><ele>175.2</ele><time>2022-11-13T16:32:15.0000000+00:00</time></trkpt><trkpt lat="38.9626879" lon="-0.51006429"><ele>175.2</ele><time>2022-11-13T16:32:16.0000000+00:00</time></trkpt><trkpt lat="38.9626879" lon="-0.51006429"><ele>175.2</ele><time>2022-11-13T16:32:17.0000000+00:00</time></trkpt><trkpt lat="38.9626879" lon="-0.51006429"><ele>175.2</ele><time>2022-11-13T16:32:18.0000000+00:00</time></trkpt><trkpt lat="38.9626879" lon="-0.51006429"><ele>175.2</ele><time>2022-11-13T16:32:19.0000000+00:00</time></trkpt><trkpt lat="38.9626879" lon="-0.51006421"><ele>175.2</ele><time>2022-11-13T16:32:20.0000000+00:00</time></trkpt><trkpt lat="38.9626879" lon="-0.51006421"><ele>175.2</ele><time>2022-11-13T16:32:21.0000000+00:00</time></trkpt><trkpt lat="38.9626879" lon="-0.51006395"><ele>175.2</ele><time>2022-11-13T16:32:22.0000000+00:00</time></trkpt><trkpt lat="38.9626879" lon="-0.51006395"><ele>175.2</ele><time>2022-11-13T16:32:23.0000000+00:00</time></trkpt><trkpt lat="38.96268999" lon="-0.51006018"><ele>175.2</ele><time>2022-11-13T16:32:24.0000000+00:00</time></trkpt><trkpt lat="38.96269846" lon="-0.51004878"><ele>175.2</ele><time>2022-11-13T16:32:25.0000000+00:00</time></trkpt><trkpt lat="38.96270885" lon="-0.51003772"><ele>175.2</ele><time>2022-11-13T16:32:26.0000000+00:00</time></trkpt><trkpt lat="38.96272075" lon="-0.51002959"><ele>175.2</ele><time>2022-11-13T16:32:27.0000000+00:00</time></trkpt><trkpt lat="38.96273408" lon="-0.51001961"><ele>175.2</ele><time>2022-11-13T16:32:28.0000000+00:00</time></trkpt><trkpt lat="38.96274523" lon="-0.51001115"><ele>175.2</ele><time>2022-11-13T16:32:29.0000000+00:00</time></trkpt><trkpt lat="38.96275629" lon="-0.50999983"><ele>175.2</ele><time>2022-11-13T16:32:30.0000000+00:00</time></trkpt><trkpt lat="38.96276644" lon="-0.50998558"><ele>175.2</ele><time>2022-11-13T16:32:31.0000000+00:00</time></trkpt><trkpt lat="38.96277566" lon="-0.50996957"><ele>175.2</ele><time>2022-11-13T16:32:32.0000000+00:00</time></trkpt><trkpt lat="38.96278303" lon="-0.50995424"><ele>175.2</ele><time>2022-11-13T16:32:33.0000000+00:00</time></trkpt><trkpt lat="38.96279401" lon="-0.50994267"><ele>175.2</ele><time>2022-11-13T16:32:34.0000000+00:00</time></trkpt><trkpt lat="38.96280617" lon="-0.5099342"><ele>175.0</ele><time>2022-11-13T16:32:35.0000000+00:00</time></trkpt><trkpt lat="38.96281631" lon="-0.50992716"><ele>174.8</ele><time>2022-11-13T16:32:36.0000000+00:00</time></trkpt><trkpt lat="38.96282578" lon="-0.50991694"><ele>174.6</ele><time>2022-11-13T16:32:37.0000000+00:00</time></trkpt><trkpt lat="38.96283659" lon="-0.50990654"><ele>174.6</ele><time>2022-11-13T16:32:38.0000000+00:00</time></trkpt><trkpt lat="38.9628474" lon="-0.50990084"><ele>174.2</ele><time>2022-11-13T16:32:39.0000000+00:00</time></trkpt><trkpt lat="38.96285813" lon="-0.50989422"><ele>174.2</ele><time>2022-11-13T16:32:40.0000000+00:00</time></trkpt><trkpt lat="38.96286517" lon="-0.5098855"><ele>174.0</ele><time>2022-11-13T16:32:41.0000000+00:00</time></trkpt><trkpt lat="38.96286844" lon="-0.50987754"><ele>174.0</ele><time>2022-11-13T16:32:42.0000000+00:00</time></trkpt><trkpt lat="38.9628692" lon="-0.50987243"><ele>173.8</ele><time>2022-11-13T16:32:43.0000000+00:00</time></trkpt><trkpt lat="38.96286861" lon="-0.50986983"><ele>173.8</ele><time>2022-11-13T16:32:44.0000000+00:00</time></trkpt><trkpt lat="38.96286777" lon="-0.50986899"><ele>173.8</ele><time>2022-11-13T16:32:45.0000000+00:00</time></trkpt><trkpt lat="38.96286735" lon="-0.50986983"><ele>173.8</ele><time>2022-11-13T16:32:46.0000000+00:00</time></trkpt><trkpt lat="38.96286652" lon="-0.50987218"><ele>173.6</ele><time>2022-11-13T16:32:47.0000000+00:00</time></trkpt><trkpt lat="38.96286668" lon="-0.50987293"><ele>173.6</ele><time>2022-11-13T16:32:48.0000000+00:00</time></trkpt><trkpt lat="38.96286652" lon="-0.50987176"><ele>173.6</ele><time>2022-11-13T16:32:49.0000000+00:00</time></trkpt><trkpt lat="38.96286752" lon="-0.50987042"><ele>173.6</ele><time>2022-11-13T16:32:50.0000000+00:00</time></trkpt><trkpt lat="38.96286819" lon="-0.50986983"><ele>173.6</ele><time>2022-11-13T16:32:51.0000000+00:00</time></trkpt><trkpt lat="38.96286844" lon="-0.50986983"><ele>173.6</ele><time>2022-11-13T16:32:52.0000000+00:00</time></trkpt><trkpt lat="38.96286752" lon="-0.50987033"><ele>173.6</ele><time>2022-11-13T16:32:53.0000000+00:00</time></trkpt><trkpt lat="38.96286534" lon="-0.50987016"><ele>173.6</ele><time>2022-11-13T16:32:54.0000000+00:00</time></trkpt><trkpt lat="38.96286425" lon="-0.50987008"><ele>173.6</ele><time>2022-11-13T16:32:55.0000000+00:00</time></trkpt><trkpt lat="38.96286341" lon="-0.50987042"><ele>173.6</ele><time>2022-11-13T16:32:56.0000000+00:00</time></trkpt><trkpt lat="38.96286341" lon="-0.50987042"><ele>173.6</ele><time>2022-11-13T16:32:57.0000000+00:00</time></trkpt><trkpt lat="38.96286341" lon="-0.50987042"><ele>173.6</ele><time>2022-11-13T16:32:58.0000000+00:00</time></trkpt><trkpt lat="38.96286341" lon="-0.50987042"><ele>173.6</ele><time>2022-11-13T16:32:59.0000000+00:00</time></trkpt><trkpt lat="38.96286341" lon="-0.50987042"><ele>173.6</ele><time>2022-11-13T16:33:00.0000000+00:00</time></trkpt><trkpt lat="38.96286341" lon="-0.50987042"><ele>173.6</ele><time>2022-11-13T16:33:01.0000000+00:00</time></trkpt><trkpt lat="38.96286341" lon="-0.50987042"><ele>173.6</ele><time>2022-11-13T16:33:02.0000000+00:00</time></trkpt><trkpt lat="38.96286341" lon="-0.50987042"><ele>173.6</ele><time>2022-11-13T16:33:03.0000000+00:00</time></trkpt><trkpt lat="38.96286367" lon="-0.50987042"><ele>173.6</ele><time>2022-11-13T16:33:04.0000000+00:00</time></trkpt><trkpt lat="38.96286425" lon="-0.50987042"><ele>173.6</ele><time>2022-11-13T16:33:05.0000000+00:00</time></trkpt><trkpt lat="38.96286442" lon="-0.50987042"><ele>173.6</ele><time>2022-11-13T16:33:06.0000000+00:00</time></trkpt><trkpt lat="38.96286534" lon="-0.50987042"><ele>173.6</ele><time>2022-11-13T16:33:07.0000000+00:00</time></trkpt><trkpt lat="38.96286593" lon="-0.50987042"><ele>173.6</ele><time>2022-11-13T16:33:08.0000000+00:00</time></trkpt><trkpt lat="38.96286601" lon="-0.50987042"><ele>173.6</ele><time>2022-11-13T16:33:09.0000000+00:00</time></trkpt><trkpt lat="38.96286601" lon="-0.50987159"><ele>173.6</ele><time>2022-11-13T16:33:10.0000000+00:00</time></trkpt><trkpt lat="38.96286601" lon="-0.50987176"><ele>173.6</ele><time>2022-11-13T16:33:11.0000000+00:00</time></trkpt><trkpt lat="38.96286601" lon="-0.50987184"><ele>173.6</ele><time>2022-11-13T16:33:12.0000000+00:00</time></trkpt><trkpt lat="38.96286601" lon="-0.50987209"><ele>173.8</ele><time>2022-11-13T16:33:13.0000000+00:00</time></trkpt><trkpt lat="38.96286601" lon="-0.50987209"><ele>173.6</ele><time>2022-11-13T16:33:14.0000000+00:00</time></trkpt><trkpt lat="38.96286652" lon="-0.50987209"><ele>173.6</ele><time>2022-11-13T16:33:15.0000000+00:00</time></trkpt><trkpt lat="38.96286668" lon="-0.50987209"><ele>173.6</ele><time>2022-11-13T16:33:16.0000000+00:00</time></trkpt><trkpt lat="38.96286685" lon="-0.50987209"><ele>173.6</ele><time>2022-11-13T16:33:17.0000000+00:00</time></trkpt><trkpt lat="38.96286702" lon="-0.50987184"><ele>173.4</ele><time>2022-11-13T16:33:18.0000000+00:00</time></trkpt><trkpt lat="38.96286702" lon="-0.50987184"><ele>173.4</ele><time>2022-11-13T16:33:19.0000000+00:00</time></trkpt><trkpt lat="38.96287104" lon="-0.50986765"><ele>173.4</ele><time>2022-11-13T16:33:20.0000000+00:00</time></trkpt><trkpt lat="38.96288537" lon="-0.50985575"><ele>173.4</ele><time>2022-11-13T16:33:21.0000000+00:00</time></trkpt><trkpt lat="38.96290155" lon="-0.50984795"><ele>173.2</ele><time>2022-11-13T16:33:22.0000000+00:00</time></trkpt><trkpt lat="38.96291815" lon="-0.5098441"><ele>173.2</ele><time>2022-11-13T16:33:23.0000000+00:00</time></trkpt><trkpt lat="38.96293181" lon="-0.50984066"><ele>173.2</ele><time>2022-11-13T16:33:24.0000000+00:00</time></trkpt><trkpt lat="38.96294313" lon="-0.50983203"><ele>173.2</ele><time>2022-11-13T16:33:25.0000000+00:00</time></trkpt><trkpt lat="38.9629469" lon="-0.5098166"><ele>173.2</ele><time>2022-11-13T16:33:26.0000000+00:00</time></trkpt><trkpt lat="38.96295436" lon="-0.50980118"><ele>173.2</ele><time>2022-11-13T16:33:27.0000000+00:00</time></trkpt><trkpt lat="38.9629614" lon="-0.5097866"><ele>173.0</ele><time>2022-11-13T16:33:28.0000000+00:00</time></trkpt><trkpt lat="38.96297573" lon="-0.50977235"><ele>173.0</ele><time>2022-11-13T16:33:29.0000000+00:00</time></trkpt><trkpt lat="38.9629925" lon="-0.50976246"><ele>172.8</ele><time>2022-11-13T16:33:30.0000000+00:00</time></trkpt><trkpt lat="38.96300909" lon="-0.50975156"><ele>172.8</ele><time>2022-11-13T16:33:31.0000000+00:00</time></trkpt><trkpt lat="38.96301915" lon="-0.50974075"><ele>172.6</ele><time>2022-11-13T16:33:32.0000000+00:00</time></trkpt><trkpt lat="38.96302753" lon="-0.50973094"><ele>172.6</ele><time>2022-11-13T16:33:33.0000000+00:00</time></trkpt><trkpt lat="38.96303466" lon="-0.5097218"><ele>172.4</ele><time>2022-11-13T16:33:34.0000000+00:00</time></trkpt><trkpt lat="38.96304656" lon="-0.50971393"><ele>172.4</ele><time>2022-11-13T16:33:35.0000000+00:00</time></trkpt><trkpt lat="38.96305829" lon="-0.50970512"><ele>172.2</ele><time>2022-11-13T16:33:36.0000000+00:00</time></trkpt><trkpt lat="38.96307179" lon="-0.50969993"><ele>172.0</ele><time>2022-11-13T16:33:37.0000000+00:00</time></trkpt><trkpt lat="38.96308252" lon="-0.50969532"><ele>171.8</ele><time>2022-11-13T16:33:38.0000000+00:00</time></trkpt><trkpt lat="38.96309593" lon="-0.50968627"><ele>171.6</ele><time>2022-11-13T16:33:39.0000000+00:00</time></trkpt><trkpt lat="38.96310942" lon="-0.50967696"><ele>171.6</ele><time>2022-11-13T16:33:40.0000000+00:00</time></trkpt><trkpt lat="38.96312334" lon="-0.5096716"><ele>171.4</ele><time>2022-11-13T16:33:41.0000000+00:00</time></trkpt><trkpt lat="38.96313532" lon="-0.50966959"><ele>171.2</ele><time>2022-11-13T16:33:42.0000000+00:00</time></trkpt><trkpt lat="38.96314873" lon="-0.50966464"><ele>171.0</ele><time>2022-11-13T16:33:43.0000000+00:00</time></trkpt><trkpt lat="38.96316357" lon="-0.50965777"><ele>170.8</ele><time>2022-11-13T16:33:44.0000000+00:00</time></trkpt><trkpt lat="38.96318025" lon="-0.50965224"><ele>170.8</ele><time>2022-11-13T16:33:45.0000000+00:00</time></trkpt><trkpt lat="38.96319509" lon="-0.50964662"><ele>170.6</ele><time>2022-11-13T16:33:46.0000000+00:00</time></trkpt><trkpt lat="38.96321068" lon="-0.50964302"><ele>170.6</ele><time>2022-11-13T16:33:47.0000000+00:00</time></trkpt><trkpt lat="38.96322426" lon="-0.50963933"><ele>170.4</ele><time>2022-11-13T16:33:48.0000000+00:00</time></trkpt><trkpt lat="38.96323758" lon="-0.50963556"><ele>170.4</ele><time>2022-11-13T16:33:49.0000000+00:00</time></trkpt><trkpt lat="38.96325049" lon="-0.50963111"><ele>170.2</ele><time>2022-11-13T16:33:50.0000000+00:00</time></trkpt><trkpt lat="38.96326432" lon="-0.50962558"><ele>170.0</ele><time>2022-11-13T16:33:51.0000000+00:00</time></trkpt><trkpt lat="38.96327455" lon="-0.50962416"><ele>170.0</ele><time>2022-11-13T16:33:52.0000000+00:00</time></trkpt><trkpt lat="38.96328804" lon="-0.50962248"><ele>170.0</ele><time>2022-11-13T16:33:53.0000000+00:00</time></trkpt><trkpt lat="38.9633017" lon="-0.50962064"><ele>169.8</ele><time>2022-11-13T16:33:54.0000000+00:00</time></trkpt><trkpt lat="38.96331847" lon="-0.50962315"><ele>169.8</ele><time>2022-11-13T16:33:55.0000000+00:00</time></trkpt><trkpt lat="38.9633266" lon="-0.50962784"><ele>169.6</ele><time>2022-11-13T16:33:56.0000000+00:00</time></trkpt><trkpt lat="38.96333515" lon="-0.50963254"><ele>169.6</ele><time>2022-11-13T16:33:57.0000000+00:00</time></trkpt><trkpt lat="38.96334563" lon="-0.50963648"><ele>169.6</ele><time>2022-11-13T16:33:58.0000000+00:00</time></trkpt><trkpt lat="38.96335459" lon="-0.50963882"><ele>169.6</ele><time>2022-11-13T16:33:59.0000000+00:00</time></trkpt><trkpt lat="38.96336432" lon="-0.50963933"><ele>169.4</ele><time>2022-11-13T16:34:00.0000000+00:00</time></trkpt><trkpt lat="38.96337094" lon="-0.50964176"><ele>169.4</ele><time>2022-11-13T16:34:01.0000000+00:00</time></trkpt><trkpt lat="38.96337639" lon="-0.50964637"><ele>169.4</ele><time>2022-11-13T16:34:02.0000000+00:00</time></trkpt><trkpt lat="38.96338234" lon="-0.50965735"><ele>169.4</ele><time>2022-11-13T16:34:03.0000000+00:00</time></trkpt><trkpt lat="38.96338703" lon="-0.50966573"><ele>169.6</ele><time>2022-11-13T16:34:04.0000000+00:00</time></trkpt><trkpt lat="38.96339072" lon="-0.5096778"><ele>169.6</ele><time>2022-11-13T16:34:05.0000000+00:00</time></trkpt><trkpt lat="38.96339625" lon="-0.50969582"><ele>169.6</ele><time>2022-11-13T16:34:06.0000000+00:00</time></trkpt><trkpt lat="38.96339868" lon="-0.50970932"><ele>169.6</ele><time>2022-11-13T16:34:07.0000000+00:00</time></trkpt><trkpt lat="38.96339919" lon="-0.50972616"><ele>169.6</ele><time>2022-11-13T16:34:08.0000000+00:00</time></trkpt><trkpt lat="38.96339508" lon="-0.5097446"><ele>169.6</ele><time>2022-11-13T16:34:09.0000000+00:00</time></trkpt><trkpt lat="38.96339181" lon="-0.50976623"><ele>169.6</ele><time>2022-11-13T16:34:10.0000000+00:00</time></trkpt><trkpt lat="38.96338904" lon="-0.50978132"><ele>169.4</ele><time>2022-11-13T16:34:11.0000000+00:00</time></trkpt><trkpt lat="38.96338234" lon="-0.50980177"><ele>169.4</ele><time>2022-11-13T16:34:12.0000000+00:00</time></trkpt><trkpt lat="38.96337957" lon="-0.50982021"><ele>169.4</ele><time>2022-11-13T16:34:13.0000000+00:00</time></trkpt><trkpt lat="38.96337446" lon="-0.50983429"><ele>169.4</ele><time>2022-11-13T16:34:14.0000000+00:00</time></trkpt><trkpt lat="38.96336893" lon="-0.50985139"><ele>169.4</ele><time>2022-11-13T16:34:15.0000000+00:00</time></trkpt><trkpt lat="38.96336407" lon="-0.50986731"><ele>169.4</ele><time>2022-11-13T16:34:16.0000000+00:00</time></trkpt><trkpt lat="38.96336071" lon="-0.50988425"><ele>169.4</ele><time>2022-11-13T16:34:17.0000000+00:00</time></trkpt><trkpt lat="38.96335677" lon="-0.50989908"><ele>169.4</ele><time>2022-11-13T16:34:18.0000000+00:00</time></trkpt><trkpt lat="38.96335325" lon="-0.50991342"><ele>169.4</ele><time>2022-11-13T16:34:19.0000000+00:00</time></trkpt><trkpt lat="38.96335141" lon="-0.50993001"><ele>169.4</ele><time>2022-11-13T16:34:20.0000000+00:00</time></trkpt><trkpt lat="38.96334982" lon="-0.50994569"><ele>169.4</ele><time>2022-11-13T16:34:21.0000000+00:00</time></trkpt><trkpt lat="38.96334889" lon="-0.50995993"><ele>169.4</ele><time>2022-11-13T16:34:22.0000000+00:00</time></trkpt><trkpt lat="38.9633473" lon="-0.50997309"><ele>169.4</ele><time>2022-11-13T16:34:23.0000000+00:00</time></trkpt><trkpt lat="38.96334546" lon="-0.50998667"><ele>169.4</ele><time>2022-11-13T16:34:24.0000000+00:00</time></trkpt><trkpt lat="38.96334194" lon="-0.51000151"><ele>169.4</ele><time>2022-11-13T16:34:25.0000000+00:00</time></trkpt><trkpt lat="38.9633385" lon="-0.51001559"><ele>169.4</ele><time>2022-11-13T16:34:26.0000000+00:00</time></trkpt><trkpt lat="38.96333473" lon="-0.51003219"><ele>169.4</ele><time>2022-11-13T16:34:27.0000000+00:00</time></trkpt><trkpt lat="38.96333263" lon="-0.51005205"><ele>169.4</ele><time>2022-11-13T16:34:28.0000000+00:00</time></trkpt><trkpt lat="38.96332911" lon="-0.51006957"><ele>169.4</ele><time>2022-11-13T16:34:29.0000000+00:00</time></trkpt><trkpt lat="38.96332811" lon="-0.51008642"><ele>169.4</ele><time>2022-11-13T16:34:30.0000000+00:00</time></trkpt><trkpt lat="38.9633276" lon="-0.51010461"><ele>169.4</ele><time>2022-11-13T16:34:31.0000000+00:00</time></trkpt><trkpt lat="38.96332559" lon="-0.51012078"><ele>169.4</ele><time>2022-11-13T16:34:32.0000000+00:00</time></trkpt><trkpt lat="38.96332291" lon="-0.51013696"><ele>169.4</ele><time>2022-11-13T16:34:33.0000000+00:00</time></trkpt><trkpt lat="38.96332048" lon="-0.51015456"><ele>169.4</ele><time>2022-11-13T16:34:34.0000000+00:00</time></trkpt><trkpt lat="38.96331587" lon="-0.51017242"><ele>169.4</ele><time>2022-11-13T16:34:35.0000000+00:00</time></trkpt><trkpt lat="38.9633121" lon="-0.51019161"><ele>169.4</ele><time>2022-11-13T16:34:36.0000000+00:00</time></trkpt><trkpt lat="38.96331059" lon="-0.51020812"><ele>169.2</ele><time>2022-11-13T16:34:37.0000000+00:00</time></trkpt><trkpt lat="38.96330908" lon="-0.51022296"><ele>169.4</ele><time>2022-11-13T16:34:38.0000000+00:00</time></trkpt><trkpt lat="38.9633074" lon="-0.51024341"><ele>169.2</ele><time>2022-11-13T16:34:39.0000000+00:00</time></trkpt><trkpt lat="38.96330481" lon="-0.51026663"><ele>169.2</ele><time>2022-11-13T16:34:40.0000000+00:00</time></trkpt><trkpt lat="38.96329978" lon="-0.51028264"><ele>169.2</ele><time>2022-11-13T16:34:41.0000000+00:00</time></trkpt><trkpt lat="38.96329433" lon="-0.51030133"><ele>169.2</ele><time>2022-11-13T16:34:42.0000000+00:00</time></trkpt><trkpt lat="38.96329081" lon="-0.5103227"><ele>169.2</ele><time>2022-11-13T16:34:43.0000000+00:00</time></trkpt><trkpt lat="38.96328896" lon="-0.51033989"><ele>169.4</ele><time>2022-11-13T16:34:44.0000000+00:00</time></trkpt><trkpt lat="38.96328687" lon="-0.51036394"><ele>169.4</ele><time>2022-11-13T16:34:45.0000000+00:00</time></trkpt><trkpt lat="38.96328762" lon="-0.51037861"><ele>169.4</ele><time>2022-11-13T16:34:46.0000000+00:00</time></trkpt><trkpt lat="38.96328662" lon="-0.51039563"><ele>169.4</ele><time>2022-11-13T16:34:47.0000000+00:00</time></trkpt><trkpt lat="38.96328444" lon="-0.51041683"><ele>169.4</ele><time>2022-11-13T16:34:48.0000000+00:00</time></trkpt><trkpt lat="38.96328142" lon="-0.51043544"><ele>169.4</ele><time>2022-11-13T16:34:49.0000000+00:00</time></trkpt><trkpt lat="38.96328192" lon="-0.51045849"><ele>169.4</ele><time>2022-11-13T16:34:50.0000000+00:00</time></trkpt><trkpt lat="38.96328293" lon="-0.5104771"><ele>169.4</ele><time>2022-11-13T16:34:51.0000000+00:00</time></trkpt><trkpt lat="38.96328519" lon="-0.51049202"><ele>169.2</ele><time>2022-11-13T16:34:52.0000000+00:00</time></trkpt><trkpt lat="38.96328494" lon="-0.51050694"><ele>169.2</ele><time>2022-11-13T16:34:53.0000000+00:00</time></trkpt><trkpt lat="38.96327899" lon="-0.51052672"><ele>169.2</ele><time>2022-11-13T16:34:54.0000000+00:00</time></trkpt><trkpt lat="38.96327723" lon="-0.51053669"><ele>169.0</ele><time>2022-11-13T16:34:55.0000000+00:00</time></trkpt><trkpt lat="38.96327631" lon="-0.51055136"><ele>169.0</ele><time>2022-11-13T16:34:56.0000000+00:00</time></trkpt><trkpt lat="38.96327606" lon="-0.51056586"><ele>169.0</ele><time>2022-11-13T16:34:57.0000000+00:00</time></trkpt><trkpt lat="38.96327069" lon="-0.51058137"><ele>169.0</ele><time>2022-11-13T16:34:58.0000000+00:00</time></trkpt><trkpt lat="38.96326616" lon="-0.51059562"><ele>169.0</ele><time>2022-11-13T16:34:59.0000000+00:00</time></trkpt><trkpt lat="38.96326466" lon="-0.51060987"><ele>169.2</ele><time>2022-11-13T16:35:00.0000000+00:00</time></trkpt><trkpt lat="38.96326667" lon="-0.51062646"><ele>169.2</ele><time>2022-11-13T16:35:01.0000000+00:00</time></trkpt><trkpt lat="38.96326801" lon="-0.51064314"><ele>169.2</ele><time>2022-11-13T16:35:02.0000000+00:00</time></trkpt><trkpt lat="38.9632686" lon="-0.51066175"><ele>169.2</ele><time>2022-11-13T16:35:03.0000000+00:00</time></trkpt><trkpt lat="38.96326759" lon="-0.51067776"><ele>169.2</ele><time>2022-11-13T16:35:04.0000000+00:00</time></trkpt><trkpt lat="38.96326491" lon="-0.5106952"><ele>169.2</ele><time>2022-11-13T16:35:05.0000000+00:00</time></trkpt><trkpt lat="38.96326206" lon="-0.51071481"><ele>169.2</ele><time>2022-11-13T16:35:06.0000000+00:00</time></trkpt><trkpt lat="38.96326013" lon="-0.51073325"><ele>169.0</ele><time>2022-11-13T16:35:07.0000000+00:00</time></trkpt><trkpt lat="38.96325887" lon="-0.51075261"><ele>169.0</ele><time>2022-11-13T16:35:08.0000000+00:00</time></trkpt><trkpt lat="38.96325812" lon="-0.51077055"><ele>169.0</ele><time>2022-11-13T16:35:09.0000000+00:00</time></trkpt><trkpt lat="38.96325678" lon="-0.51078865"><ele>169.0</ele><time>2022-11-13T16:35:10.0000000+00:00</time></trkpt><trkpt lat="38.9632556" lon="-0.51080718"><ele>169.0</ele><time>2022-11-13T16:35:11.0000000+00:00</time></trkpt><trkpt lat="38.9632551" lon="-0.51082444"><ele>169.0</ele><time>2022-11-13T16:35:12.0000000+00:00</time></trkpt><trkpt lat="38.96325443" lon="-0.51084238"><ele>169.0</ele><time>2022-11-13T16:35:13.0000000+00:00</time></trkpt><trkpt lat="38.96325351" lon="-0.51085973"><ele>169.2</ele><time>2022-11-13T16:35:14.0000000+00:00</time></trkpt><trkpt lat="38.96325166" lon="-0.51087767"><ele>169.2</ele><time>2022-11-13T16:35:15.0000000+00:00</time></trkpt><trkpt lat="38.96325049" lon="-0.51089594"><ele>169.4</ele><time>2022-11-13T16:35:16.0000000+00:00</time></trkpt><trkpt lat="38.96324898" lon="-0.51091472"><ele>169.4</ele><time>2022-11-13T16:35:17.0000000+00:00</time></trkpt><trkpt lat="38.96324655" lon="-0.51093316"><ele>169.4</ele><time>2022-11-13T16:35:18.0000000+00:00</time></trkpt><trkpt lat="38.96324387" lon="-0.51095235"><ele>169.4</ele><time>2022-11-13T16:35:19.0000000+00:00</time></trkpt><trkpt lat="38.9632406" lon="-0.51096819"><ele>169.6</ele><time>2022-11-13T16:35:20.0000000+00:00</time></trkpt><trkpt lat="38.96323624" lon="-0.51098437"><ele>169.6</ele><time>2022-11-13T16:35:21.0000000+00:00</time></trkpt><trkpt lat="38.96323482" lon="-0.51100172"><ele>169.6</ele><time>2022-11-13T16:35:22.0000000+00:00</time></trkpt><trkpt lat="38.96323423" lon="-0.51102066"><ele>169.8</ele><time>2022-11-13T16:35:23.0000000+00:00</time></trkpt><trkpt lat="38.96322954" lon="-0.51103919"><ele>170.0</ele><time>2022-11-13T16:35:24.0000000+00:00</time></trkpt><trkpt lat="38.96322576" lon="-0.51105704"><ele>170.2</ele><time>2022-11-13T16:35:25.0000000+00:00</time></trkpt><trkpt lat="38.96322333" lon="-0.51107439"><ele>170.2</ele><time>2022-11-13T16:35:26.0000000+00:00</time></trkpt><trkpt lat="38.96322467" lon="-0.51109434"><ele>170.4</ele><time>2022-11-13T16:35:27.0000000+00:00</time></trkpt><trkpt lat="38.96322308" lon="-0.51111362"><ele>170.4</ele><time>2022-11-13T16:35:28.0000000+00:00</time></trkpt><trkpt lat="38.96322082" lon="-0.51113214"><ele>170.4</ele><time>2022-11-13T16:35:29.0000000+00:00</time></trkpt><trkpt lat="38.96322057" lon="-0.51115067"><ele>170.6</ele><time>2022-11-13T16:35:30.0000000+00:00</time></trkpt><trkpt lat="38.96321881" lon="-0.51117011"><ele>170.8</ele><time>2022-11-13T16:35:31.0000000+00:00</time></trkpt><trkpt lat="38.96321755" lon="-0.51118814"><ele>171.0</ele><time>2022-11-13T16:35:32.0000000+00:00</time></trkpt><trkpt lat="38.9632183" lon="-0.51120431"><ele>171.2</ele><time>2022-11-13T16:35:33.0000000+00:00</time></trkpt><trkpt lat="38.96321939" lon="-0.5112199"><ele>171.2</ele><time>2022-11-13T16:35:34.0000000+00:00</time></trkpt><trkpt lat="38.96322216" lon="-0.51123583"><ele>171.6</ele><time>2022-11-13T16:35:35.0000000+00:00</time></trkpt><trkpt lat="38.96322618" lon="-0.51125041"><ele>171.6</ele><time>2022-11-13T16:35:36.0000000+00:00</time></trkpt><trkpt lat="38.96322635" lon="-0.51126525"><ele>171.8</ele><time>2022-11-13T16:35:37.0000000+00:00</time></trkpt><trkpt lat="38.96322878" lon="-0.51128092"><ele>171.8</ele><time>2022-11-13T16:35:38.0000000+00:00</time></trkpt><trkpt lat="38.96323247" lon="-0.51129467"><ele>172.0</ele><time>2022-11-13T16:35:39.0000000+00:00</time></trkpt><trkpt lat="38.96323817" lon="-0.51130791"><ele>172.2</ele><time>2022-11-13T16:35:40.0000000+00:00</time></trkpt><trkpt lat="38.96324881" lon="-0.51132225"><ele>172.4</ele><time>2022-11-13T16:35:41.0000000+00:00</time></trkpt><trkpt lat="38.96325711" lon="-0.5113396"><ele>172.4</ele><time>2022-11-13T16:35:42.0000000+00:00</time></trkpt><trkpt lat="38.96326373" lon="-0.51136256"><ele>172.4</ele><time>2022-11-13T16:35:43.0000000+00:00</time></trkpt><trkpt lat="38.96327019" lon="-0.51138"><ele>172.4</ele><time>2022-11-13T16:35:44.0000000+00:00</time></trkpt><trkpt lat="38.9632784" lon="-0.51139718"><ele>172.4</ele><time>2022-11-13T16:35:45.0000000+00:00</time></trkpt><trkpt lat="38.96328787" lon="-0.51141311"><ele>172.4</ele><time>2022-11-13T16:35:46.0000000+00:00</time></trkpt><trkpt lat="38.96329869" lon="-0.51142945"><ele>172.4</ele><time>2022-11-13T16:35:47.0000000+00:00</time></trkpt><trkpt lat="38.9633105" lon="-0.51144328"><ele>172.4</ele><time>2022-11-13T16:35:48.0000000+00:00</time></trkpt><trkpt lat="38.96332216" lon="-0.51145912"><ele>172.4</ele><time>2022-11-13T16:35:49.0000000+00:00</time></trkpt><trkpt lat="38.96333389" lon="-0.51147052"><ele>172.4</ele><time>2022-11-13T16:35:50.0000000+00:00</time></trkpt><trkpt lat="38.96334504" lon="-0.5114815"><ele>172.6</ele><time>2022-11-13T16:35:51.0000000+00:00</time></trkpt><trkpt lat="38.96335744" lon="-0.5114934"><ele>172.6</ele><time>2022-11-13T16:35:52.0000000+00:00</time></trkpt><trkpt lat="38.96337018" lon="-0.51150095"><ele>172.8</ele><time>2022-11-13T16:35:53.0000000+00:00</time></trkpt><trkpt lat="38.96338368" lon="-0.5115074"><ele>172.8</ele><time>2022-11-13T16:35:54.0000000+00:00</time></trkpt><trkpt lat="38.96339717" lon="-0.51151327"><ele>173.0</ele><time>2022-11-13T16:35:55.0000000+00:00</time></trkpt><trkpt lat="38.96341025" lon="-0.51151888"><ele>173.2</ele><time>2022-11-13T16:35:56.0000000+00:00</time></trkpt><trkpt lat="38.96342525" lon="-0.51152467"><ele>173.2</ele><time>2022-11-13T16:35:57.0000000+00:00</time></trkpt><trkpt lat="38.96344009" lon="-0.51153104"><ele>173.4</ele><time>2022-11-13T16:35:58.0000000+00:00</time></trkpt><trkpt lat="38.96345828" lon="-0.51153481"><ele>173.4</ele><time>2022-11-13T16:35:59.0000000+00:00</time></trkpt><trkpt lat="38.96347479" lon="-0.51153615"><ele>173.6</ele><time>2022-11-13T16:36:00.0000000+00:00</time></trkpt><trkpt lat="38.96348862" lon="-0.51153724"><ele>173.6</ele><time>2022-11-13T16:36:01.0000000+00:00</time></trkpt><trkpt lat="38.96350237" lon="-0.511538"><ele>173.8</ele><time>2022-11-13T16:36:02.0000000+00:00</time></trkpt><trkpt lat="38.9635136" lon="-0.51153749"><ele>173.8</ele><time>2022-11-13T16:36:03.0000000+00:00</time></trkpt><trkpt lat="38.96352827" lon="-0.51153875"><ele>173.8</ele><time>2022-11-13T16:36:04.0000000+00:00</time></trkpt><trkpt lat="38.96354076" lon="-0.51153942"><ele>173.8</ele><time>2022-11-13T16:36:05.0000000+00:00</time></trkpt><trkpt lat="38.96355534" lon="-0.51154076"><ele>173.8</ele><time>2022-11-13T16:36:06.0000000+00:00</time></trkpt><trkpt lat="38.963569" lon="-0.51154152"><ele>173.8</ele><time>2022-11-13T16:36:07.0000000+00:00</time></trkpt><trkpt lat="38.96358065" lon="-0.51154328"><ele>174.0</ele><time>2022-11-13T16:36:08.0000000+00:00</time></trkpt><trkpt lat="38.96359474" lon="-0.5115416"><ele>174.2</ele><time>2022-11-13T16:36:09.0000000+00:00</time></trkpt><trkpt lat="38.96360857" lon="-0.51153967"><ele>174.2</ele><time>2022-11-13T16:36:10.0000000+00:00</time></trkpt><trkpt lat="38.96362625" lon="-0.51153766"><ele>174.4</ele><time>2022-11-13T16:36:11.0000000+00:00</time></trkpt><trkpt lat="38.96364042" lon="-0.51153783"><ele>174.4</ele><time>2022-11-13T16:36:12.0000000+00:00</time></trkpt><trkpt lat="38.9636545" lon="-0.51153841"><ele>174.6</ele><time>2022-11-13T16:36:13.0000000+00:00</time></trkpt><trkpt lat="38.96366481" lon="-0.51153565"><ele>174.6</ele><time>2022-11-13T16:36:14.0000000+00:00</time></trkpt><trkpt lat="38.96367084" lon="-0.51153171"><ele>174.6</ele><time>2022-11-13T16:36:15.0000000+00:00</time></trkpt><trkpt lat="38.96367948" lon="-0.51153121"><ele>174.8</ele><time>2022-11-13T16:36:16.0000000+00:00</time></trkpt><trkpt lat="38.9636923" lon="-0.51153129"><ele>174.8</ele><time>2022-11-13T16:36:17.0000000+00:00</time></trkpt><trkpt lat="38.96370814" lon="-0.51153322"><ele>174.8</ele><time>2022-11-13T16:36:18.0000000+00:00</time></trkpt><trkpt lat="38.96372315" lon="-0.51153682"><ele>175.0</ele><time>2022-11-13T16:36:19.0000000+00:00</time></trkpt><trkpt lat="38.9637374" lon="-0.51153766"><ele>175.0</ele><time>2022-11-13T16:36:20.0000000+00:00</time></trkpt><trkpt lat="38.9637524" lon="-0.51154034"><ele>175.0</ele><time>2022-11-13T16:36:21.0000000+00:00</time></trkpt><trkpt lat="38.96376598" lon="-0.51154235"><ele>175.2</ele><time>2022-11-13T16:36:22.0000000+00:00</time></trkpt><trkpt lat="38.96378174" lon="-0.51154126"><ele>175.2</ele><time>2022-11-13T16:36:23.0000000+00:00</time></trkpt><trkpt lat="38.9637959" lon="-0.51154177"><ele>175.4</ele><time>2022-11-13T16:36:24.0000000+00:00</time></trkpt><trkpt lat="38.96380713" lon="-0.51154017"><ele>175.4</ele><time>2022-11-13T16:36:25.0000000+00:00</time></trkpt><trkpt lat="38.96381962" lon="-0.51154093"><ele>175.6</ele><time>2022-11-13T16:36:26.0000000+00:00</time></trkpt><trkpt lat="38.96383161" lon="-0.51154386"><ele>175.6</ele><time>2022-11-13T16:36:27.0000000+00:00</time></trkpt><trkpt lat="38.96384753" lon="-0.5115442"><ele>175.8</ele><time>2022-11-13T16:36:28.0000000+00:00</time></trkpt><trkpt lat="38.9638617" lon="-0.51154118"><ele>175.8</ele><time>2022-11-13T16:36:29.0000000+00:00</time></trkpt><trkpt lat="38.96387125" lon="-0.51154235"><ele>175.8</ele><time>2022-11-13T16:36:30.0000000+00:00</time></trkpt><trkpt lat="38.96388617" lon="-0.51154202"><ele>176.0</ele><time>2022-11-13T16:36:31.0000000+00:00</time></trkpt><trkpt lat="38.96390227" lon="-0.5115421"><ele>176.2</ele><time>2022-11-13T16:36:32.0000000+00:00</time></trkpt><trkpt lat="38.96391266" lon="-0.51154294"><ele>176.2</ele><time>2022-11-13T16:36:33.0000000+00:00</time></trkpt><trkpt lat="38.96392666" lon="-0.51154219"><ele>176.4</ele><time>2022-11-13T16:36:34.0000000+00:00</time></trkpt><trkpt lat="38.96393948" lon="-0.51154177"><ele>176.6</ele><time>2022-11-13T16:36:35.0000000+00:00</time></trkpt><trkpt lat="38.96395222" lon="-0.5115421"><ele>176.8</ele><time>2022-11-13T16:36:36.0000000+00:00</time></trkpt><trkpt lat="38.9639648" lon="-0.51154219"><ele>176.8</ele><time>2022-11-13T16:36:37.0000000+00:00</time></trkpt><trkpt lat="38.96397997" lon="-0.51154051"><ele>176.8</ele><time>2022-11-13T16:36:38.0000000+00:00</time></trkpt><trkpt lat="38.96399262" lon="-0.51154009"><ele>177.0</ele><time>2022-11-13T16:36:39.0000000+00:00</time></trkpt><trkpt lat="38.96400453" lon="-0.51154185"><ele>177.0</ele><time>2022-11-13T16:36:40.0000000+00:00</time></trkpt><trkpt lat="38.96401919" lon="-0.5115442"><ele>177.2</ele><time>2022-11-13T16:36:41.0000000+00:00</time></trkpt><trkpt lat="38.9640342" lon="-0.51154512"><ele>177.2</ele><time>2022-11-13T16:36:42.0000000+00:00</time></trkpt><trkpt lat="38.96405004" lon="-0.51154587"><ele>177.2</ele><time>2022-11-13T16:36:43.0000000+00:00</time></trkpt><trkpt lat="38.96406555" lon="-0.51154713"><ele>177.4</ele><time>2022-11-13T16:36:44.0000000+00:00</time></trkpt><trkpt lat="38.96408248" lon="-0.51154814"><ele>177.4</ele><time>2022-11-13T16:36:45.0000000+00:00</time></trkpt><trkpt lat="38.96409203" lon="-0.5115478"><ele>177.6</ele><time>2022-11-13T16:36:46.0000000+00:00</time></trkpt><trkpt lat="38.96410385" lon="-0.51154638"><ele>177.6</ele><time>2022-11-13T16:36:47.0000000+00:00</time></trkpt><trkpt lat="38.96411542" lon="-0.51154713"><ele>177.8</ele><time>2022-11-13T16:36:48.0000000+00:00</time></trkpt><trkpt lat="38.96412766" lon="-0.51154579"><ele>177.8</ele><time>2022-11-13T16:36:49.0000000+00:00</time></trkpt><trkpt lat="38.96413973" lon="-0.5115473"><ele>178.0</ele><time>2022-11-13T16:36:50.0000000+00:00</time></trkpt><trkpt lat="38.96415121" lon="-0.51154713"><ele>178.0</ele><time>2022-11-13T16:36:51.0000000+00:00</time></trkpt><trkpt lat="38.96416261" lon="-0.5115468"><ele>178.0</ele><time>2022-11-13T16:36:52.0000000+00:00</time></trkpt><trkpt lat="38.96417778" lon="-0.51154713"><ele>178.2</ele><time>2022-11-13T16:36:53.0000000+00:00</time></trkpt><trkpt lat="38.96419278" lon="-0.51154889"><ele>178.4</ele><time>2022-11-13T16:36:54.0000000+00:00</time></trkpt><trkpt lat="38.96420351" lon="-0.51155166"><ele>178.4</ele><time>2022-11-13T16:36:55.0000000+00:00</time></trkpt><trkpt lat="38.96421449" lon="-0.5115561"><ele>178.6</ele><time>2022-11-13T16:36:56.0000000+00:00</time></trkpt><trkpt lat="38.96423101" lon="-0.51156188"><ele>178.6</ele><time>2022-11-13T16:36:57.0000000+00:00</time></trkpt><trkpt lat="38.96424106" lon="-0.51156088"><ele>178.8</ele><time>2022-11-13T16:36:58.0000000+00:00</time></trkpt><trkpt lat="38.9642538" lon="-0.51155803"><ele>178.8</ele><time>2022-11-13T16:36:59.0000000+00:00</time></trkpt><trkpt lat="38.96426529" lon="-0.5115556"><ele>178.8</ele><time>2022-11-13T16:37:00.0000000+00:00</time></trkpt><trkpt lat="38.96427853" lon="-0.51155275"><ele>179.0</ele><time>2022-11-13T16:37:01.0000000+00:00</time></trkpt><trkpt lat="38.96429429" lon="-0.51155132"><ele>179.2</ele><time>2022-11-13T16:37:02.0000000+00:00</time></trkpt><trkpt lat="38.96430921" lon="-0.51154671"><ele>179.2</ele><time>2022-11-13T16:37:03.0000000+00:00</time></trkpt><trkpt lat="38.96432304" lon="-0.51154638"><ele>179.4</ele><time>2022-11-13T16:37:04.0000000+00:00</time></trkpt><trkpt lat="38.96433394" lon="-0.51154713"><ele>179.4</ele><time>2022-11-13T16:37:05.0000000+00:00</time></trkpt><trkpt lat="38.96434802" lon="-0.51154546"><ele>179.6</ele><time>2022-11-13T16:37:06.0000000+00:00</time></trkpt><trkpt lat="38.96436277" lon="-0.51154395"><ele>179.6</ele><time>2022-11-13T16:37:07.0000000+00:00</time></trkpt><trkpt lat="38.96437459" lon="-0.51154353"><ele>179.8</ele><time>2022-11-13T16:37:08.0000000+00:00</time></trkpt><trkpt lat="38.96438532" lon="-0.51154235"><ele>179.8</ele><time>2022-11-13T16:37:09.0000000+00:00</time></trkpt><trkpt lat="38.96440191" lon="-0.51154336"><ele>180.0</ele><time>2022-11-13T16:37:10.0000000+00:00</time></trkpt><trkpt lat="38.96441021" lon="-0.51153875"><ele>180.0</ele><time>2022-11-13T16:37:11.0000000+00:00</time></trkpt><trkpt lat="38.96442429" lon="-0.51153766"><ele>180.0</ele><time>2022-11-13T16:37:12.0000000+00:00</time></trkpt><trkpt lat="38.96443536" lon="-0.51153632"><ele>180.0</ele><time>2022-11-13T16:37:13.0000000+00:00</time></trkpt><trkpt lat="38.96444039" lon="-0.51153305"><ele>180.2</ele><time>2022-11-13T16:37:14.0000000+00:00</time></trkpt><trkpt lat="38.96445371" lon="-0.51153003"><ele>180.4</ele><time>2022-11-13T16:37:15.0000000+00:00</time></trkpt><trkpt lat="38.96446478" lon="-0.51152919"><ele>180.4</ele><time>2022-11-13T16:37:16.0000000+00:00</time></trkpt><trkpt lat="38.96447903" lon="-0.51152894"><ele>180.6</ele><time>2022-11-13T16:37:17.0000000+00:00</time></trkpt><trkpt lat="38.96449453" lon="-0.51153154"><ele>180.6</ele><time>2022-11-13T16:37:18.0000000+00:00</time></trkpt><trkpt lat="38.96450711" lon="-0.51153892"><ele>180.6</ele><time>2022-11-13T16:37:19.0000000+00:00</time></trkpt><trkpt lat="38.96451792" lon="-0.51154235"><ele>180.8</ele><time>2022-11-13T16:37:20.0000000+00:00</time></trkpt><trkpt lat="38.96452999" lon="-0.51154411"><ele>181.0</ele><time>2022-11-13T16:37:21.0000000+00:00</time></trkpt><trkpt lat="38.96454549" lon="-0.51154814"><ele>181.0</ele><time>2022-11-13T16:37:22.0000000+00:00</time></trkpt><trkpt lat="38.96455094" lon="-0.51155191"><ele>181.0</ele><time>2022-11-13T16:37:23.0000000+00:00</time></trkpt><trkpt lat="38.96456209" lon="-0.51155719"><ele>181.2</ele><time>2022-11-13T16:37:24.0000000+00:00</time></trkpt><trkpt lat="38.96457282" lon="-0.51155811"><ele>181.2</ele><time>2022-11-13T16:37:25.0000000+00:00</time></trkpt><trkpt lat="38.96458623" lon="-0.51155677"><ele>181.2</ele><time>2022-11-13T16:37:26.0000000+00:00</time></trkpt><trkpt lat="38.96459595" lon="-0.51155484"><ele>181.4</ele><time>2022-11-13T16:37:27.0000000+00:00</time></trkpt><trkpt lat="38.96461037" lon="-0.51155342"><ele>181.4</ele><time>2022-11-13T16:37:28.0000000+00:00</time></trkpt><trkpt lat="38.96462269" lon="-0.51155258"><ele>181.6</ele><time>2022-11-13T16:37:29.0000000+00:00</time></trkpt><trkpt lat="38.96463409" lon="-0.51155183"><ele>181.6</ele><time>2022-11-13T16:37:30.0000000+00:00</time></trkpt><trkpt lat="38.96464909" lon="-0.51155342"><ele>181.8</ele><time>2022-11-13T16:37:31.0000000+00:00</time></trkpt><trkpt lat="38.96466242" lon="-0.51155644"><ele>181.8</ele><time>2022-11-13T16:37:32.0000000+00:00</time></trkpt><trkpt lat="38.96467525" lon="-0.51155996"><ele>181.8</ele><time>2022-11-13T16:37:33.0000000+00:00</time></trkpt><trkpt lat="38.96468681" lon="-0.51156105"><ele>182.0</ele><time>2022-11-13T16:37:34.0000000+00:00</time></trkpt><trkpt lat="38.96470022" lon="-0.51156214"><ele>182.0</ele><time>2022-11-13T16:37:35.0000000+00:00</time></trkpt><trkpt lat="38.96471146" lon="-0.51156138"><ele>182.2</ele><time>2022-11-13T16:37:36.0000000+00:00</time></trkpt><trkpt lat="38.96472218" lon="-0.51156306"><ele>182.2</ele><time>2022-11-13T16:37:37.0000000+00:00</time></trkpt><trkpt lat="38.96473199" lon="-0.51156272"><ele>182.4</ele><time>2022-11-13T16:37:38.0000000+00:00</time></trkpt><trkpt lat="38.96474398" lon="-0.51156121"><ele>182.6</ele><time>2022-11-13T16:37:39.0000000+00:00</time></trkpt><trkpt lat="38.96475546" lon="-0.51156088"><ele>182.8</ele><time>2022-11-13T16:37:40.0000000+00:00</time></trkpt><trkpt lat="38.96476946" lon="-0.51156264"><ele>182.8</ele><time>2022-11-13T16:37:41.0000000+00:00</time></trkpt><trkpt lat="38.96478689" lon="-0.5115649"><ele>183.0</ele><time>2022-11-13T16:37:42.0000000+00:00</time></trkpt><trkpt lat="38.96480232" lon="-0.51156566"><ele>183.0</ele><time>2022-11-13T16:37:43.0000000+00:00</time></trkpt><trkpt lat="38.96481858" lon="-0.51156054"><ele>183.0</ele><time>2022-11-13T16:37:44.0000000+00:00</time></trkpt><trkpt lat="38.9648319" lon="-0.51156021"><ele>183.0</ele><time>2022-11-13T16:37:45.0000000+00:00</time></trkpt><trkpt lat="38.96484925" lon="-0.51155761"><ele>183.2</ele><time>2022-11-13T16:37:46.0000000+00:00</time></trkpt><trkpt lat="38.96486292" lon="-0.5115566"><ele>183.2</ele><time>2022-11-13T16:37:47.0000000+00:00</time></trkpt><trkpt lat="38.96487272" lon="-0.51155635"><ele>183.2</ele><time>2022-11-13T16:37:48.0000000+00:00</time></trkpt><trkpt lat="38.96488672" lon="-0.51155685"><ele>183.4</ele><time>2022-11-13T16:37:49.0000000+00:00</time></trkpt><trkpt lat="38.96489418" lon="-0.51155375"><ele>183.6</ele><time>2022-11-13T16:37:50.0000000+00:00</time></trkpt><trkpt lat="38.96490198" lon="-0.51155216"><ele>183.6</ele><time>2022-11-13T16:37:51.0000000+00:00</time></trkpt><trkpt lat="38.96491095" lon="-0.51155568"><ele>183.8</ele><time>2022-11-13T16:37:52.0000000+00:00</time></trkpt><trkpt lat="38.96492352" lon="-0.51155887"><ele>183.8</ele><time>2022-11-13T16:37:53.0000000+00:00</time></trkpt><trkpt lat="38.96493282" lon="-0.51156431"><ele>184.0</ele><time>2022-11-13T16:37:54.0000000+00:00</time></trkpt><trkpt lat="38.96494632" lon="-0.51156616"><ele>184.0</ele><time>2022-11-13T16:37:55.0000000+00:00</time></trkpt><trkpt lat="38.96495688" lon="-0.51156968"><ele>184.2</ele><time>2022-11-13T16:37:56.0000000+00:00</time></trkpt><trkpt lat="38.96496727" lon="-0.5115763"><ele>184.2</ele><time>2022-11-13T16:37:57.0000000+00:00</time></trkpt><trkpt lat="38.96497632" lon="-0.51157203"><ele>184.2</ele><time>2022-11-13T16:37:58.0000000+00:00</time></trkpt><trkpt lat="38.96498856" lon="-0.51156733"><ele>184.2</ele><time>2022-11-13T16:37:59.0000000+00:00</time></trkpt><trkpt lat="38.9649987" lon="-0.51156658"><ele>184.4</ele><time>2022-11-13T16:38:00.0000000+00:00</time></trkpt><trkpt lat="38.96501186" lon="-0.51156784"><ele>184.6</ele><time>2022-11-13T16:38:01.0000000+00:00</time></trkpt><trkpt lat="38.96502687" lon="-0.51156934"><ele>184.6</ele><time>2022-11-13T16:38:02.0000000+00:00</time></trkpt><trkpt lat="38.96504187" lon="-0.51157043"><ele>184.8</ele><time>2022-11-13T16:38:03.0000000+00:00</time></trkpt><trkpt lat="38.96505956" lon="-0.51157094"><ele>184.8</ele><time>2022-11-13T16:38:04.0000000+00:00</time></trkpt><trkpt lat="38.96507255" lon="-0.51156582"><ele>185.0</ele><time>2022-11-13T16:38:05.0000000+00:00</time></trkpt><trkpt lat="38.96508395" lon="-0.51156096"><ele>185.0</ele><time>2022-11-13T16:38:06.0000000+00:00</time></trkpt><trkpt lat="38.96509518" lon="-0.51155543"><ele>185.2</ele><time>2022-11-13T16:38:07.0000000+00:00</time></trkpt><trkpt lat="38.96510733" lon="-0.511553"><ele>185.4</ele><time>2022-11-13T16:38:08.0000000+00:00</time></trkpt><trkpt lat="38.96512133" lon="-0.51154906"><ele>185.4</ele><time>2022-11-13T16:38:09.0000000+00:00</time></trkpt><trkpt lat="38.96513013" lon="-0.5115421"><ele>185.6</ele><time>2022-11-13T16:38:10.0000000+00:00</time></trkpt><trkpt lat="38.9651443" lon="-0.51153892"><ele>185.6</ele><time>2022-11-13T16:38:11.0000000+00:00</time></trkpt><trkpt lat="38.96515788" lon="-0.51153665"><ele>185.8</ele><time>2022-11-13T16:38:12.0000000+00:00</time></trkpt><trkpt lat="38.96516693" lon="-0.51153473"><ele>185.8</ele><time>2022-11-13T16:38:13.0000000+00:00</time></trkpt><trkpt lat="38.96518118" lon="-0.51152936"><ele>186.0</ele><time>2022-11-13T16:38:14.0000000+00:00</time></trkpt><trkpt lat="38.96519367" lon="-0.51152752"><ele>186.0</ele><time>2022-11-13T16:38:15.0000000+00:00</time></trkpt><trkpt lat="38.96520699" lon="-0.51153188"><ele>186.0</ele><time>2022-11-13T16:38:16.0000000+00:00</time></trkpt><trkpt lat="38.96521873" lon="-0.51153506"><ele>186.2</ele><time>2022-11-13T16:38:17.0000000+00:00</time></trkpt><trkpt lat="38.96522837" lon="-0.51153649"><ele>186.2</ele><time>2022-11-13T16:38:18.0000000+00:00</time></trkpt><trkpt lat="38.96523952" lon="-0.51153355"><ele>186.4</ele><time>2022-11-13T16:38:19.0000000+00:00</time></trkpt><trkpt lat="38.96524999" lon="-0.51152995"><ele>186.4</ele><time>2022-11-13T16:38:20.0000000+00:00</time></trkpt><trkpt lat="38.96525972" lon="-0.5115266"><ele>186.4</ele><time>2022-11-13T16:38:21.0000000+00:00</time></trkpt><trkpt lat="38.96526977" lon="-0.51152098"><ele>186.6</ele><time>2022-11-13T16:38:22.0000000+00:00</time></trkpt><trkpt lat="38.96528277" lon="-0.51151369"><ele>186.6</ele><time>2022-11-13T16:38:23.0000000+00:00</time></trkpt><trkpt lat="38.96529852" lon="-0.51151092"><ele>186.8</ele><time>2022-11-13T16:38:24.0000000+00:00</time></trkpt><trkpt lat="38.96531512" lon="-0.51150933"><ele>186.8</ele><time>2022-11-13T16:38:25.0000000+00:00</time></trkpt><trkpt lat="38.96532853" lon="-0.51150749"><ele>187.0</ele><time>2022-11-13T16:38:26.0000000+00:00</time></trkpt><trkpt lat="38.96534689" lon="-0.51150405"><ele>187.0</ele><time>2022-11-13T16:38:27.0000000+00:00</time></trkpt><trkpt lat="38.96536013" lon="-0.51149919"><ele>187.0</ele><time>2022-11-13T16:38:28.0000000+00:00</time></trkpt><trkpt lat="38.96537195" lon="-0.51149734"><ele>187.2</ele><time>2022-11-13T16:38:29.0000000+00:00</time></trkpt><trkpt lat="38.96538788" lon="-0.51149458"><ele>187.2</ele><time>2022-11-13T16:38:30.0000000+00:00</time></trkpt><trkpt lat="38.96539894" lon="-0.51149273"><ele>187.2</ele><time>2022-11-13T16:38:31.0000000+00:00</time></trkpt><trkpt lat="38.96541042" lon="-0.5114919"><ele>187.4</ele><time>2022-11-13T16:38:32.0000000+00:00</time></trkpt><trkpt lat="38.96542476" lon="-0.51148905"><ele>187.4</ele><time>2022-11-13T16:38:33.0000000+00:00</time></trkpt><trkpt lat="38.96543624" lon="-0.51148477"><ele>187.6</ele><time>2022-11-13T16:38:34.0000000+00:00</time></trkpt><trkpt lat="38.96544755" lon="-0.51147966"><ele>187.8</ele><time>2022-11-13T16:38:35.0000000+00:00</time></trkpt><trkpt lat="38.9654618" lon="-0.5114732"><ele>187.8</ele><time>2022-11-13T16:38:36.0000000+00:00</time></trkpt><trkpt lat="38.96547698" lon="-0.51146658"><ele>187.8</ele><time>2022-11-13T16:38:37.0000000+00:00</time></trkpt><trkpt lat="38.96548729" lon="-0.51146415"><ele>188.0</ele><time>2022-11-13T16:38:38.0000000+00:00</time></trkpt><trkpt lat="38.96550371" lon="-0.51145828"><ele>188.0</ele><time>2022-11-13T16:38:39.0000000+00:00</time></trkpt><trkpt lat="38.96551746" lon="-0.51145359"><ele>188.2</ele><time>2022-11-13T16:38:40.0000000+00:00</time></trkpt><trkpt lat="38.96552869" lon="-0.51144957"><ele>188.2</ele><time>2022-11-13T16:38:41.0000000+00:00</time></trkpt><trkpt lat="38.96554194" lon="-0.51144429"><ele>188.2</ele><time>2022-11-13T16:38:42.0000000+00:00</time></trkpt><trkpt lat="38.96555778" lon="-0.51143758"><ele>188.2</ele><time>2022-11-13T16:38:43.0000000+00:00</time></trkpt><trkpt lat="38.96557806" lon="-0.51143523"><ele>188.2</ele><time>2022-11-13T16:38:44.0000000+00:00</time></trkpt><trkpt lat="38.96559524" lon="-0.51143423"><ele>188.4</ele><time>2022-11-13T16:38:45.0000000+00:00</time></trkpt><trkpt lat="38.96561109" lon="-0.51143096"><ele>188.4</ele><time>2022-11-13T16:38:46.0000000+00:00</time></trkpt><trkpt lat="38.96561687" lon="-0.51142316"><ele>188.6</ele><time>2022-11-13T16:38:47.0000000+00:00</time></trkpt><trkpt lat="38.96562567" lon="-0.51141495"><ele>188.6</ele><time>2022-11-13T16:38:48.0000000+00:00</time></trkpt><trkpt lat="38.96563665" lon="-0.5114095"><ele>188.6</ele><time>2022-11-13T16:38:49.0000000+00:00</time></trkpt><trkpt lat="38.96564587" lon="-0.51140497"><ele>188.8</ele><time>2022-11-13T16:38:50.0000000+00:00</time></trkpt><trkpt lat="38.96565744" lon="-0.5113919"><ele>188.8</ele><time>2022-11-13T16:38:51.0000000+00:00</time></trkpt><trkpt lat="38.96567026" lon="-0.51138461"><ele>189.0</ele><time>2022-11-13T16:38:52.0000000+00:00</time></trkpt><trkpt lat="38.96568242" lon="-0.51137815"><ele>189.0</ele><time>2022-11-13T16:38:53.0000000+00:00</time></trkpt><trkpt lat="38.96569457" lon="-0.51137505"><ele>189.2</ele><time>2022-11-13T16:38:54.0000000+00:00</time></trkpt><trkpt lat="38.96570664" lon="-0.51137773"><ele>189.2</ele><time>2022-11-13T16:38:55.0000000+00:00</time></trkpt><trkpt lat="38.96571569" lon="-0.51137597"><ele>189.4</ele><time>2022-11-13T16:38:56.0000000+00:00</time></trkpt><trkpt lat="38.96572642" lon="-0.5113727"><ele>189.4</ele><time>2022-11-13T16:38:57.0000000+00:00</time></trkpt><trkpt lat="38.96573715" lon="-0.5113696"><ele>189.6</ele><time>2022-11-13T16:38:58.0000000+00:00</time></trkpt><trkpt lat="38.96574595" lon="-0.51136097"><ele>189.6</ele><time>2022-11-13T16:38:59.0000000+00:00</time></trkpt><trkpt lat="38.9657509" lon="-0.51136198"><ele>189.6</ele><time>2022-11-13T16:39:00.0000000+00:00</time></trkpt><trkpt lat="38.96575534" lon="-0.51136491"><ele>189.8</ele><time>2022-11-13T16:39:01.0000000+00:00</time></trkpt><trkpt lat="38.96575903" lon="-0.51136265"><ele>189.8</ele><time>2022-11-13T16:39:02.0000000+00:00</time></trkpt><trkpt lat="38.96576732" lon="-0.51135561"><ele>189.8</ele><time>2022-11-13T16:39:03.0000000+00:00</time></trkpt><trkpt lat="38.96578275" lon="-0.51134312"><ele>189.8</ele><time>2022-11-13T16:39:04.0000000+00:00</time></trkpt><trkpt lat="38.96579557" lon="-0.51133666"><ele>190.0</ele><time>2022-11-13T16:39:05.0000000+00:00</time></trkpt><trkpt lat="38.96580672" lon="-0.51133205"><ele>190.0</ele><time>2022-11-13T16:39:06.0000000+00:00</time></trkpt><trkpt lat="38.96580907" lon="-0.51132342"><ele>190.0</ele><time>2022-11-13T16:39:07.0000000+00:00</time></trkpt><trkpt lat="38.96581426" lon="-0.51131755"><ele>190.2</ele><time>2022-11-13T16:39:08.0000000+00:00</time></trkpt><trkpt lat="38.96582566" lon="-0.51130934"><ele>190.2</ele><time>2022-11-13T16:39:09.0000000+00:00</time></trkpt><trkpt lat="38.96583304" lon="-0.51130121"><ele>190.2</ele><time>2022-11-13T16:39:10.0000000+00:00</time></trkpt><trkpt lat="38.96584268" lon="-0.511295"><ele>190.2</ele><time>2022-11-13T16:39:11.0000000+00:00</time></trkpt><trkpt lat="38.96585098" lon="-0.51129115"><ele>190.4</ele><time>2022-11-13T16:39:12.0000000+00:00</time></trkpt><trkpt lat="38.9658586" lon="-0.51128754"><ele>190.6</ele><time>2022-11-13T16:39:13.0000000+00:00</time></trkpt><trkpt lat="38.96586849" lon="-0.51128143"><ele>190.6</ele><time>2022-11-13T16:39:14.0000000+00:00</time></trkpt><trkpt lat="38.96588341" lon="-0.51127816"><ele>190.8</ele><time>2022-11-13T16:39:15.0000000+00:00</time></trkpt><trkpt lat="38.96589624" lon="-0.51127371"><ele>190.8</ele><time>2022-11-13T16:39:16.0000000+00:00</time></trkpt><trkpt lat="38.96590822" lon="-0.51127321"><ele>190.8</ele><time>2022-11-13T16:39:17.0000000+00:00</time></trkpt><trkpt lat="38.96591803" lon="-0.51126952"><ele>191.0</ele><time>2022-11-13T16:39:18.0000000+00:00</time></trkpt><trkpt lat="38.96593002" lon="-0.51126307"><ele>191.0</ele><time>2022-11-13T16:39:19.0000000+00:00</time></trkpt><trkpt lat="38.96593773" lon="-0.51125653"><ele>191.2</ele><time>2022-11-13T16:39:20.0000000+00:00</time></trkpt><trkpt lat="38.96594812" lon="-0.51125125"><ele>191.2</ele><time>2022-11-13T16:39:21.0000000+00:00</time></trkpt><trkpt lat="38.96596438" lon="-0.51124455"><ele>191.4</ele><time>2022-11-13T16:39:22.0000000+00:00</time></trkpt><trkpt lat="38.96597377" lon="-0.51123859"><ele>191.4</ele><time>2022-11-13T16:39:23.0000000+00:00</time></trkpt><trkpt lat="38.96598961" lon="-0.51123331"><ele>191.6</ele><time>2022-11-13T16:39:24.0000000+00:00</time></trkpt><trkpt lat="38.96600395" lon="-0.51123013"><ele>191.6</ele><time>2022-11-13T16:39:25.0000000+00:00</time></trkpt><trkpt lat="38.96602205" lon="-0.51122711"><ele>191.8</ele><time>2022-11-13T16:39:26.0000000+00:00</time></trkpt><trkpt lat="38.96603999" lon="-0.51122384"><ele>191.8</ele><time>2022-11-13T16:39:27.0000000+00:00</time></trkpt><trkpt lat="38.96605105" lon="-0.51122133"><ele>192.0</ele><time>2022-11-13T16:39:28.0000000+00:00</time></trkpt><trkpt lat="38.9660539" lon="-0.51121663"><ele>192.0</ele><time>2022-11-13T16:39:29.0000000+00:00</time></trkpt><trkpt lat="38.96605105" lon="-0.51120364"><ele>192.0</ele><time>2022-11-13T16:39:30.0000000+00:00</time></trkpt><trkpt lat="38.96606178" lon="-0.51119174"><ele>192.2</ele><time>2022-11-13T16:39:31.0000000+00:00</time></trkpt><trkpt lat="38.96607494" lon="-0.51117397"><ele>192.2</ele><time>2022-11-13T16:39:32.0000000+00:00</time></trkpt><trkpt lat="38.96609305" lon="-0.51115846"><ele>192.2</ele><time>2022-11-13T16:39:33.0000000+00:00</time></trkpt><trkpt lat="38.96611182" lon="-0.51115201"><ele>192.2</ele><time>2022-11-13T16:39:34.0000000+00:00</time></trkpt><trkpt lat="38.96612247" lon="-0.51115352"><ele>192.4</ele><time>2022-11-13T16:39:35.0000000+00:00</time></trkpt><trkpt lat="38.96612909" lon="-0.51115913"><ele>192.4</ele><time>2022-11-13T16:39:36.0000000+00:00</time></trkpt><trkpt lat="38.96614015" lon="-0.51115762"><ele>192.4</ele><time>2022-11-13T16:39:37.0000000+00:00</time></trkpt><trkpt lat="38.96615398" lon="-0.51115511"><ele>192.6</ele><time>2022-11-13T16:39:38.0000000+00:00</time></trkpt><trkpt lat="38.96617745" lon="-0.51115444"><ele>192.6</ele><time>2022-11-13T16:39:39.0000000+00:00</time></trkpt><trkpt lat="38.96619178" lon="-0.51114656"><ele>192.8</ele><time>2022-11-13T16:39:40.0000000+00:00</time></trkpt><trkpt lat="38.9662" lon="-0.51113776"><ele>192.8</ele><time>2022-11-13T16:39:41.0000000+00:00</time></trkpt><trkpt lat="38.96621274" lon="-0.51112879"><ele>192.8</ele><time>2022-11-13T16:39:42.0000000+00:00</time></trkpt><trkpt lat="38.96622296" lon="-0.51112628"><ele>193.0</ele><time>2022-11-13T16:39:43.0000000+00:00</time></trkpt><trkpt lat="38.96623286" lon="-0.51113558"><ele>193.0</ele><time>2022-11-13T16:39:44.0000000+00:00</time></trkpt><trkpt lat="38.96624325" lon="-0.51113759"><ele>193.2</ele><time>2022-11-13T16:39:45.0000000+00:00</time></trkpt><trkpt lat="38.96625289" lon="-0.51114413"><ele>193.2</ele><time>2022-11-13T16:39:46.0000000+00:00</time></trkpt><trkpt lat="38.96627384" lon="-0.51114723"><ele>193.4</ele><time>2022-11-13T16:39:47.0000000+00:00</time></trkpt><trkpt lat="38.96628373" lon="-0.51113851"><ele>193.4</ele><time>2022-11-13T16:39:48.0000000+00:00</time></trkpt><trkpt lat="38.96630284" lon="-0.51113633"><ele>193.6</ele><time>2022-11-13T16:39:49.0000000+00:00</time></trkpt><trkpt lat="38.96631475" lon="-0.51114463"><ele>193.8</ele><time>2022-11-13T16:39:50.0000000+00:00</time></trkpt><trkpt lat="38.96632564" lon="-0.51115209"><ele>194.0</ele><time>2022-11-13T16:39:51.0000000+00:00</time></trkpt><trkpt lat="38.96633863" lon="-0.51115838"><ele>194.0</ele><time>2022-11-13T16:39:52.0000000+00:00</time></trkpt><trkpt lat="38.96635632" lon="-0.51116835"><ele>194.0</ele><time>2022-11-13T16:39:53.0000000+00:00</time></trkpt><trkpt lat="38.96636881" lon="-0.51116492"><ele>194.2</ele><time>2022-11-13T16:39:54.0000000+00:00</time></trkpt><trkpt lat="38.96638214" lon="-0.51116576"><ele>194.2</ele><time>2022-11-13T16:39:55.0000000+00:00</time></trkpt><trkpt lat="38.9663958" lon="-0.51117095"><ele>194.4</ele><time>2022-11-13T16:39:56.0000000+00:00</time></trkpt><trkpt lat="38.96639974" lon="-0.5111826"><ele>194.4</ele><time>2022-11-13T16:39:57.0000000+00:00</time></trkpt><trkpt lat="38.96641181" lon="-0.51118981"><ele>194.4</ele><time>2022-11-13T16:39:58.0000000+00:00</time></trkpt><trkpt lat="38.96642069" lon="-0.51119383"><ele>194.6</ele><time>2022-11-13T16:39:59.0000000+00:00</time></trkpt><trkpt lat="38.96643343" lon="-0.51120364"><ele>194.6</ele><time>2022-11-13T16:40:00.0000000+00:00</time></trkpt><trkpt lat="38.9664481" lon="-0.51120993"><ele>194.8</ele><time>2022-11-13T16:40:01.0000000+00:00</time></trkpt><trkpt lat="38.9664585" lon="-0.51121244"><ele>194.8</ele><time>2022-11-13T16:40:02.0000000+00:00</time></trkpt><trkpt lat="38.96646889" lon="-0.51121613"><ele>194.8</ele><time>2022-11-13T16:40:03.0000000+00:00</time></trkpt><trkpt lat="38.96648088" lon="-0.51121814"><ele>195.0</ele><time>2022-11-13T16:40:04.0000000+00:00</time></trkpt><trkpt lat="38.96648641" lon="-0.51121923"><ele>195.0</ele><time>2022-11-13T16:40:05.0000000+00:00</time></trkpt><trkpt lat="38.96649135" lon="-0.51121546"><ele>195.0</ele><time>2022-11-13T16:40:06.0000000+00:00</time></trkpt><trkpt lat="38.96649538" lon="-0.51121269"><ele>195.0</ele><time>2022-11-13T16:40:07.0000000+00:00</time></trkpt><trkpt lat="38.96650208" lon="-0.51121429"><ele>195.0</ele><time>2022-11-13T16:40:08.0000000+00:00</time></trkpt><trkpt lat="38.96651541" lon="-0.51121538"><ele>195.2</ele><time>2022-11-13T16:40:09.0000000+00:00</time></trkpt><trkpt lat="38.96652496" lon="-0.5112168"><ele>195.2</ele><time>2022-11-13T16:40:10.0000000+00:00</time></trkpt><trkpt lat="38.96653787" lon="-0.51121881"><ele>195.4</ele><time>2022-11-13T16:40:11.0000000+00:00</time></trkpt><trkpt lat="38.96654936" lon="-0.51121965"><ele>195.4</ele><time>2022-11-13T16:40:12.0000000+00:00</time></trkpt><trkpt lat="38.96655749" lon="-0.51121764"><ele>195.4</ele><time>2022-11-13T16:40:13.0000000+00:00</time></trkpt><trkpt lat="38.96656981" lon="-0.51121688"><ele>195.6</ele><time>2022-11-13T16:40:14.0000000+00:00</time></trkpt><trkpt lat="38.96657894" lon="-0.51122007"><ele>195.6</ele><time>2022-11-13T16:40:15.0000000+00:00</time></trkpt><trkpt lat="38.96658816" lon="-0.51122711"><ele>195.8</ele><time>2022-11-13T16:40:16.0000000+00:00</time></trkpt><trkpt lat="38.96659965" lon="-0.51123457"><ele>195.8</ele><time>2022-11-13T16:40:17.0000000+00:00</time></trkpt><trkpt lat="38.96660912" lon="-0.51124312"><ele>195.8</ele><time>2022-11-13T16:40:18.0000000+00:00</time></trkpt><trkpt lat="38.96662152" lon="-0.51125343"><ele>195.8</ele><time>2022-11-13T16:40:19.0000000+00:00</time></trkpt><trkpt lat="38.96663569" lon="-0.51126449"><ele>196.0</ele><time>2022-11-13T16:40:20.0000000+00:00</time></trkpt><trkpt lat="38.96665363" lon="-0.51128134"><ele>196.2</ele><time>2022-11-13T16:40:21.0000000+00:00</time></trkpt><trkpt lat="38.96666553" lon="-0.51129936"><ele>196.2</ele><time>2022-11-13T16:40:22.0000000+00:00</time></trkpt><trkpt lat="38.96667802" lon="-0.51131722"><ele>196.2</ele><time>2022-11-13T16:40:23.0000000+00:00</time></trkpt><trkpt lat="38.96668866" lon="-0.5113318"><ele>196.4</ele><time>2022-11-13T16:40:24.0000000+00:00</time></trkpt><trkpt lat="38.96669948" lon="-0.51133809"><ele>196.4</ele><time>2022-11-13T16:40:25.0000000+00:00</time></trkpt><trkpt lat="38.96670492" lon="-0.51135049"><ele>196.4</ele><time>2022-11-13T16:40:26.0000000+00:00</time></trkpt><trkpt lat="38.96671431" lon="-0.51135904"><ele>196.4</ele><time>2022-11-13T16:40:27.0000000+00:00</time></trkpt><trkpt lat="38.9667268" lon="-0.51137229"><ele>196.6</ele><time>2022-11-13T16:40:28.0000000+00:00</time></trkpt><trkpt lat="38.96673434" lon="-0.51138444"><ele>196.6</ele><time>2022-11-13T16:40:29.0000000+00:00</time></trkpt><trkpt lat="38.96674147" lon="-0.51139919"><ele>196.6</ele><time>2022-11-13T16:40:30.0000000+00:00</time></trkpt><trkpt lat="38.96674859" lon="-0.51141143"><ele>196.8</ele><time>2022-11-13T16:40:31.0000000+00:00</time></trkpt><trkpt lat="38.96676242" lon="-0.51142191"><ele>196.8</ele><time>2022-11-13T16:40:32.0000000+00:00</time></trkpt><trkpt lat="38.96676854" lon="-0.51142727"><ele>197.0</ele><time>2022-11-13T16:40:33.0000000+00:00</time></trkpt><trkpt lat="38.96677324" lon="-0.51143272"><ele>197.2</ele><time>2022-11-13T16:40:34.0000000+00:00</time></trkpt><trkpt lat="38.96677818" lon="-0.51143942"><ele>197.2</ele><time>2022-11-13T16:40:35.0000000+00:00</time></trkpt><trkpt lat="38.96678497" lon="-0.5114494"><ele>197.4</ele><time>2022-11-13T16:40:36.0000000+00:00</time></trkpt><trkpt lat="38.96679327" lon="-0.51146122"><ele>197.4</ele><time>2022-11-13T16:40:37.0000000+00:00</time></trkpt><trkpt lat="38.9668019" lon="-0.51147438"><ele>197.6</ele><time>2022-11-13T16:40:38.0000000+00:00</time></trkpt><trkpt lat="38.9668128" lon="-0.51149022"><ele>197.6</ele><time>2022-11-13T16:40:39.0000000+00:00</time></trkpt><trkpt lat="38.96682445" lon="-0.51150371"><ele>197.8</ele><time>2022-11-13T16:40:40.0000000+00:00</time></trkpt><trkpt lat="38.96683074" lon="-0.51150883"><ele>197.8</ele><time>2022-11-13T16:40:41.0000000+00:00</time></trkpt><trkpt lat="38.96683333" lon="-0.51151545"><ele>197.8</ele><time>2022-11-13T16:40:42.0000000+00:00</time></trkpt><trkpt lat="38.96683853" lon="-0.51152383"><ele>197.8</ele><time>2022-11-13T16:40:43.0000000+00:00</time></trkpt><trkpt lat="38.96684348" lon="-0.51153531"><ele>197.8</ele><time>2022-11-13T16:40:44.0000000+00:00</time></trkpt><trkpt lat="38.96684859" lon="-0.5115509"><ele>197.8</ele><time>2022-11-13T16:40:45.0000000+00:00</time></trkpt><trkpt lat="38.96685312" lon="-0.51156599"><ele>197.8</ele><time>2022-11-13T16:40:46.0000000+00:00</time></trkpt><trkpt lat="38.96685865" lon="-0.51158091"><ele>198.0</ele><time>2022-11-13T16:40:47.0000000+00:00</time></trkpt><trkpt lat="38.96685982" lon="-0.51159977"><ele>198.0</ele><time>2022-11-13T16:40:48.0000000+00:00</time></trkpt><trkpt lat="38.96685974" lon="-0.51161637"><ele>198.2</ele><time>2022-11-13T16:40:49.0000000+00:00</time></trkpt><trkpt lat="38.96685949" lon="-0.5116364"><ele>198.2</ele><time>2022-11-13T16:40:50.0000000+00:00</time></trkpt><trkpt lat="38.96686368" lon="-0.51164394"><ele>198.2</ele><time>2022-11-13T16:40:51.0000000+00:00</time></trkpt><trkpt lat="38.96687415" lon="-0.51166029"><ele>198.4</ele><time>2022-11-13T16:40:52.0000000+00:00</time></trkpt><trkpt lat="38.96688639" lon="-0.51166884"><ele>198.6</ele><time>2022-11-13T16:40:53.0000000+00:00</time></trkpt><trkpt lat="38.96689553" lon="-0.51168208"><ele>198.8</ele><time>2022-11-13T16:40:54.0000000+00:00</time></trkpt><trkpt lat="38.96690232" lon="-0.51169323"><ele>198.8</ele><time>2022-11-13T16:40:55.0000000+00:00</time></trkpt><trkpt lat="38.96690768" lon="-0.51170421"><ele>199.0</ele><time>2022-11-13T16:40:56.0000000+00:00</time></trkpt><trkpt lat="38.96691212" lon="-0.51171837"><ele>199.0</ele><time>2022-11-13T16:40:57.0000000+00:00</time></trkpt><trkpt lat="38.96691556" lon="-0.51173254"><ele>199.2</ele><time>2022-11-13T16:40:58.0000000+00:00</time></trkpt><trkpt lat="38.96691875" lon="-0.51174478"><ele>199.2</ele><time>2022-11-13T16:40:59.0000000+00:00</time></trkpt><trkpt lat="38.96692461" lon="-0.51175777"><ele>199.2</ele><time>2022-11-13T16:41:00.0000000+00:00</time></trkpt><trkpt lat="38.96693065" lon="-0.51177453"><ele>199.4</ele><time>2022-11-13T16:41:01.0000000+00:00</time></trkpt><trkpt lat="38.96693777" lon="-0.51179096"><ele>199.4</ele><time>2022-11-13T16:41:02.0000000+00:00</time></trkpt><trkpt lat="38.96694389" lon="-0.51180647"><ele>199.4</ele><time>2022-11-13T16:41:03.0000000+00:00</time></trkpt><trkpt lat="38.96695403" lon="-0.51182893"><ele>199.6</ele><time>2022-11-13T16:41:04.0000000+00:00</time></trkpt><trkpt lat="38.96696275" lon="-0.51184762"><ele>199.8</ele><time>2022-11-13T16:41:05.0000000+00:00</time></trkpt><trkpt lat="38.96697298" lon="-0.51186665"><ele>199.8</ele><time>2022-11-13T16:41:06.0000000+00:00</time></trkpt><trkpt lat="38.9669822" lon="-0.51188207"><ele>200.0</ele><time>2022-11-13T16:41:07.0000000+00:00</time></trkpt><trkpt lat="38.96699008" lon="-0.51189842"><ele>200.0</ele><time>2022-11-13T16:41:08.0000000+00:00</time></trkpt><trkpt lat="38.96699863" lon="-0.51191795"><ele>200.0</ele><time>2022-11-13T16:41:09.0000000+00:00</time></trkpt><trkpt lat="38.96700768" lon="-0.51193488"><ele>200.0</ele><time>2022-11-13T16:41:10.0000000+00:00</time></trkpt><trkpt lat="38.96701623" lon="-0.51195072"><ele>200.2</ele><time>2022-11-13T16:41:11.0000000+00:00</time></trkpt><trkpt lat="38.96702369" lon="-0.51196078"><ele>200.2</ele><time>2022-11-13T16:41:12.0000000+00:00</time></trkpt><trkpt lat="38.96703333" lon="-0.51197469"><ele>200.2</ele><time>2022-11-13T16:41:13.0000000+00:00</time></trkpt><trkpt lat="38.96704204" lon="-0.51199305"><ele>200.4</ele><time>2022-11-13T16:41:14.0000000+00:00</time></trkpt><trkpt lat="38.96704523" lon="-0.51200965"><ele>200.4</ele><time>2022-11-13T16:41:15.0000000+00:00</time></trkpt><trkpt lat="38.96704967" lon="-0.51202666"><ele>200.6</ele><time>2022-11-13T16:41:16.0000000+00:00</time></trkpt><trkpt lat="38.96705872" lon="-0.51203856"><ele>200.6</ele><time>2022-11-13T16:41:17.0000000+00:00</time></trkpt><trkpt lat="38.96706853" lon="-0.51205239"><ele>200.6</ele><time>2022-11-13T16:41:18.0000000+00:00</time></trkpt><trkpt lat="38.96707909" lon="-0.51206497"><ele>200.8</ele><time>2022-11-13T16:41:19.0000000+00:00</time></trkpt><trkpt lat="38.96709175" lon="-0.51207863"><ele>200.8</ele><time>2022-11-13T16:41:20.0000000+00:00</time></trkpt><trkpt lat="38.96710281" lon="-0.51209061"><ele>201.0</ele><time>2022-11-13T16:41:21.0000000+00:00</time></trkpt><trkpt lat="38.96710918" lon="-0.5121021"><ele>201.0</ele><time>2022-11-13T16:41:22.0000000+00:00</time></trkpt><trkpt lat="38.96711622" lon="-0.51211216"><ele>201.2</ele><time>2022-11-13T16:41:23.0000000+00:00</time></trkpt><trkpt lat="38.96712561" lon="-0.51211869"><ele>201.4</ele><time>2022-11-13T16:41:24.0000000+00:00</time></trkpt><trkpt lat="38.96713316" lon="-0.51212557"><ele>201.4</ele><time>2022-11-13T16:41:25.0000000+00:00</time></trkpt><trkpt lat="38.96714506" lon="-0.5121378"><ele>201.6</ele><time>2022-11-13T16:41:26.0000000+00:00</time></trkpt><trkpt lat="38.96715294" lon="-0.51214602"><ele>201.6</ele><time>2022-11-13T16:41:27.0000000+00:00</time></trkpt><trkpt lat="38.9671671" lon="-0.51215893"><ele>201.6</ele><time>2022-11-13T16:41:28.0000000+00:00</time></trkpt><trkpt lat="38.96717632" lon="-0.51217066"><ele>201.6</ele><time>2022-11-13T16:41:29.0000000+00:00</time></trkpt><trkpt lat="38.96718127" lon="-0.51217301"><ele>201.8</ele><time>2022-11-13T16:41:30.0000000+00:00</time></trkpt><trkpt lat="38.96719216" lon="-0.51217896"><ele>201.8</ele><time>2022-11-13T16:41:31.0000000+00:00</time></trkpt><trkpt lat="38.96719761" lon="-0.51217812"><ele>201.8</ele><time>2022-11-13T16:41:32.0000000+00:00</time></trkpt><trkpt lat="38.96720641" lon="-0.51218759"><ele>201.8</ele><time>2022-11-13T16:41:33.0000000+00:00</time></trkpt><trkpt lat="38.96721547" lon="-0.51219489"><ele>202.0</ele><time>2022-11-13T16:41:34.0000000+00:00</time></trkpt><trkpt lat="38.96722611" lon="-0.51220025"><ele>202.0</ele><time>2022-11-13T16:41:35.0000000+00:00</time></trkpt><trkpt lat="38.96723852" lon="-0.51220419"><ele>202.0</ele><time>2022-11-13T16:41:36.0000000+00:00</time></trkpt><trkpt lat="38.96724799" lon="-0.51220461"><ele>202.2</ele><time>2022-11-13T16:41:37.0000000+00:00</time></trkpt><trkpt lat="38.96725863" lon="-0.51220805"><ele>202.2</ele><time>2022-11-13T16:41:38.0000000+00:00</time></trkpt><trkpt lat="38.96726995" lon="-0.51221877"><ele>202.4</ele><time>2022-11-13T16:41:39.0000000+00:00</time></trkpt><trkpt lat="38.96728026" lon="-0.5122269"><ele>202.4</ele><time>2022-11-13T16:41:40.0000000+00:00</time></trkpt><trkpt lat="38.96729325" lon="-0.51223436"><ele>202.6</ele><time>2022-11-13T16:41:41.0000000+00:00</time></trkpt><trkpt lat="38.96730599" lon="-0.51224174"><ele>202.6</ele><time>2022-11-13T16:41:42.0000000+00:00</time></trkpt><trkpt lat="38.96731789" lon="-0.51225046"><ele>202.6</ele><time>2022-11-13T16:41:43.0000000+00:00</time></trkpt><trkpt lat="38.96733298" lon="-0.51226093"><ele>202.8</ele><time>2022-11-13T16:41:44.0000000+00:00</time></trkpt><trkpt lat="38.96734798" lon="-0.5122663"><ele>202.8</ele><time>2022-11-13T16:41:45.0000000+00:00</time></trkpt><trkpt lat="38.96736408" lon="-0.51227133"><ele>203.0</ele><time>2022-11-13T16:41:46.0000000+00:00</time></trkpt><trkpt lat="38.96737824" lon="-0.512273"><ele>203.0</ele><time>2022-11-13T16:41:47.0000000+00:00</time></trkpt><trkpt lat="38.96738864" lon="-0.51227527"><ele>203.0</ele><time>2022-11-13T16:41:48.0000000+00:00</time></trkpt><trkpt lat="38.9673976" lon="-0.51227485"><ele>203.2</ele><time>2022-11-13T16:41:49.0000000+00:00</time></trkpt><trkpt lat="38.96740498" lon="-0.51226907"><ele>203.2</ele><time>2022-11-13T16:41:50.0000000+00:00</time></trkpt><trkpt lat="38.96741596" lon="-0.51226177"><ele>203.2</ele><time>2022-11-13T16:41:51.0000000+00:00</time></trkpt><trkpt lat="38.96742954" lon="-0.51226102"><ele>203.2</ele><time>2022-11-13T16:41:52.0000000+00:00</time></trkpt><trkpt lat="38.96744371" lon="-0.51226278"><ele>203.2</ele><time>2022-11-13T16:41:53.0000000+00:00</time></trkpt><trkpt lat="38.96745829" lon="-0.51226479"><ele>203.2</ele><time>2022-11-13T16:41:54.0000000+00:00</time></trkpt><trkpt lat="38.96747187" lon="-0.5122668"><ele>203.4</ele><time>2022-11-13T16:41:55.0000000+00:00</time></trkpt><trkpt lat="38.96748545" lon="-0.51226622"><ele>203.4</ele><time>2022-11-13T16:41:56.0000000+00:00</time></trkpt><trkpt lat="38.96750171" lon="-0.51225892"><ele>203.4</ele><time>2022-11-13T16:41:57.0000000+00:00</time></trkpt><trkpt lat="38.96751671" lon="-0.51226186"><ele>203.6</ele><time>2022-11-13T16:41:58.0000000+00:00</time></trkpt><trkpt lat="38.9675323" lon="-0.51226328"><ele>203.6</ele><time>2022-11-13T16:41:59.0000000+00:00</time></trkpt><trkpt lat="38.96754186" lon="-0.51226613"><ele>203.6</ele><time>2022-11-13T16:42:00.0000000+00:00</time></trkpt><trkpt lat="38.96756231" lon="-0.51226479"><ele>203.8</ele><time>2022-11-13T16:42:01.0000000+00:00</time></trkpt><trkpt lat="38.96758243" lon="-0.51226504"><ele>203.8</ele><time>2022-11-13T16:42:02.0000000+00:00</time></trkpt><trkpt lat="38.96759483" lon="-0.51226085"><ele>203.8</ele><time>2022-11-13T16:42:03.0000000+00:00</time></trkpt><trkpt lat="38.96760196" lon="-0.51225398"><ele>204.0</ele><time>2022-11-13T16:42:04.0000000+00:00</time></trkpt><trkpt lat="38.96760657" lon="-0.51224493"><ele>204.0</ele><time>2022-11-13T16:42:05.0000000+00:00</time></trkpt><trkpt lat="38.96761444" lon="-0.51223537"><ele>204.0</ele><time>2022-11-13T16:42:06.0000000+00:00</time></trkpt><trkpt lat="38.9676297" lon="-0.51223344"><ele>204.0</ele><time>2022-11-13T16:42:07.0000000+00:00</time></trkpt><trkpt lat="38.96764697" lon="-0.51223218"><ele>204.2</ele><time>2022-11-13T16:42:08.0000000+00:00</time></trkpt><trkpt lat="38.96765912" lon="-0.51222992"><ele>204.2</ele><time>2022-11-13T16:42:09.0000000+00:00</time></trkpt><trkpt lat="38.96767555" lon="-0.5122238"><ele>204.2</ele><time>2022-11-13T16:42:10.0000000+00:00</time></trkpt><trkpt lat="38.96769147" lon="-0.51221768"><ele>204.4</ele><time>2022-11-13T16:42:11.0000000+00:00</time></trkpt><trkpt lat="38.96770237" lon="-0.51221374"><ele>204.4</ele><time>2022-11-13T16:42:12.0000000+00:00</time></trkpt><trkpt lat="38.96771293" lon="-0.51221542"><ele>204.4</ele><time>2022-11-13T16:42:13.0000000+00:00</time></trkpt><trkpt lat="38.9677255" lon="-0.51221106"><ele>204.4</ele><time>2022-11-13T16:42:14.0000000+00:00</time></trkpt><trkpt lat="38.96773808" lon="-0.51220503"><ele>204.6</ele><time>2022-11-13T16:42:15.0000000+00:00</time></trkpt><trkpt lat="38.96774772" lon="-0.51219489"><ele>204.6</ele><time>2022-11-13T16:42:16.0000000+00:00</time></trkpt><trkpt lat="38.96776021" lon="-0.51218441"><ele>204.6</ele><time>2022-11-13T16:42:17.0000000+00:00</time></trkpt><trkpt lat="38.96776993" lon="-0.51217804"><ele>204.6</ele><time>2022-11-13T16:42:18.0000000+00:00</time></trkpt><trkpt lat="38.96778099" lon="-0.51217276"><ele>204.8</ele><time>2022-11-13T16:42:19.0000000+00:00</time></trkpt><trkpt lat="38.96779231" lon="-0.51217225"><ele>204.8</ele><time>2022-11-13T16:42:20.0000000+00:00</time></trkpt><trkpt lat="38.96780161" lon="-0.51216899"><ele>205.0</ele><time>2022-11-13T16:42:21.0000000+00:00</time></trkpt><trkpt lat="38.96780941" lon="-0.51216731"><ele>205.0</ele><time>2022-11-13T16:42:22.0000000+00:00</time></trkpt><trkpt lat="38.96782223" lon="-0.51216144"><ele>205.0</ele><time>2022-11-13T16:42:23.0000000+00:00</time></trkpt><trkpt lat="38.96783631" lon="-0.51216027"><ele>205.2</ele><time>2022-11-13T16:42:24.0000000+00:00</time></trkpt><trkpt lat="38.96784486" lon="-0.5121596"><ele>205.2</ele><time>2022-11-13T16:42:25.0000000+00:00</time></trkpt><trkpt lat="38.96785383" lon="-0.51215189"><ele>205.4</ele><time>2022-11-13T16:42:26.0000000+00:00</time></trkpt><trkpt lat="38.96786615" lon="-0.51214485"><ele>205.4</ele><time>2022-11-13T16:42:27.0000000+00:00</time></trkpt><trkpt lat="38.96787579" lon="-0.51214443"><ele>205.4</ele><time>2022-11-13T16:42:28.0000000+00:00</time></trkpt><trkpt lat="38.96788878" lon="-0.51214359"><ele>205.4</ele><time>2022-11-13T16:42:29.0000000+00:00</time></trkpt><trkpt lat="38.96790144" lon="-0.51214174"><ele>205.6</ele><time>2022-11-13T16:42:30.0000000+00:00</time></trkpt><trkpt lat="38.96791535" lon="-0.51214183"><ele>205.6</ele><time>2022-11-13T16:42:31.0000000+00:00</time></trkpt><trkpt lat="38.96792877" lon="-0.51213646"><ele>205.6</ele><time>2022-11-13T16:42:32.0000000+00:00</time></trkpt><trkpt lat="38.96794201" lon="-0.51213236"><ele>205.8</ele><time>2022-11-13T16:42:33.0000000+00:00</time></trkpt><trkpt lat="38.96795374" lon="-0.51212892"><ele>205.8</ele><time>2022-11-13T16:42:34.0000000+00:00</time></trkpt><trkpt lat="38.96796431" lon="-0.51212666"><ele>206.0</ele><time>2022-11-13T16:42:35.0000000+00:00</time></trkpt><trkpt lat="38.96797411" lon="-0.51212305"><ele>206.0</ele><time>2022-11-13T16:42:36.0000000+00:00</time></trkpt><trkpt lat="38.96798702" lon="-0.51211869"><ele>206.0</ele><time>2022-11-13T16:42:37.0000000+00:00</time></trkpt><trkpt lat="38.96799867" lon="-0.51211249"><ele>206.2</ele><time>2022-11-13T16:42:38.0000000+00:00</time></trkpt><trkpt lat="38.96801359" lon="-0.51210973"><ele>206.2</ele><time>2022-11-13T16:42:39.0000000+00:00</time></trkpt><trkpt lat="38.96802667" lon="-0.51210553"><ele>206.2</ele><time>2022-11-13T16:42:40.0000000+00:00</time></trkpt><trkpt lat="38.9680379" lon="-0.51210151"><ele>206.2</ele><time>2022-11-13T16:42:41.0000000+00:00</time></trkpt><trkpt lat="38.96804938" lon="-0.51209321"><ele>206.4</ele><time>2022-11-13T16:42:42.0000000+00:00</time></trkpt><trkpt lat="38.96805986" lon="-0.51208072"><ele>206.4</ele><time>2022-11-13T16:42:43.0000000+00:00</time></trkpt><trkpt lat="38.96806799" lon="-0.51207075"><ele>206.4</ele><time>2022-11-13T16:42:44.0000000+00:00</time></trkpt><trkpt lat="38.96807939" lon="-0.51206798"><ele>206.6</ele><time>2022-11-13T16:42:45.0000000+00:00</time></trkpt><trkpt lat="38.96808978" lon="-0.51206396"><ele>206.8</ele><time>2022-11-13T16:42:46.0000000+00:00</time></trkpt><trkpt lat="38.96810386" lon="-0.51205969"><ele>206.8</ele><time>2022-11-13T16:42:47.0000000+00:00</time></trkpt><trkpt lat="38.96811836" lon="-0.5120565"><ele>206.8</ele><time>2022-11-13T16:42:48.0000000+00:00</time></trkpt><trkpt lat="38.96813731" lon="-0.51204871"><ele>206.8</ele><time>2022-11-13T16:42:49.0000000+00:00</time></trkpt><trkpt lat="38.9681534" lon="-0.51204217"><ele>207.0</ele><time>2022-11-13T16:42:50.0000000+00:00</time></trkpt><trkpt lat="38.96816849" lon="-0.51203605"><ele>207.0</ele><time>2022-11-13T16:42:51.0000000+00:00</time></trkpt><trkpt lat="38.96818366" lon="-0.51203328"><ele>207.0</ele><time>2022-11-13T16:42:52.0000000+00:00</time></trkpt><trkpt lat="38.96819732" lon="-0.51203387"><ele>207.2</ele><time>2022-11-13T16:42:53.0000000+00:00</time></trkpt><trkpt lat="38.96821065" lon="-0.51202943"><ele>207.2</ele><time>2022-11-13T16:42:54.0000000+00:00</time></trkpt><trkpt lat="38.96822305" lon="-0.51202565"><ele>207.4</ele><time>2022-11-13T16:42:55.0000000+00:00</time></trkpt><trkpt lat="38.96823437" lon="-0.51202063"><ele>207.6</ele><time>2022-11-13T16:42:56.0000000+00:00</time></trkpt><trkpt lat="38.96824728" lon="-0.51201685"><ele>207.8</ele><time>2022-11-13T16:42:57.0000000+00:00</time></trkpt><trkpt lat="38.96826195" lon="-0.51201015"><ele>207.8</ele><time>2022-11-13T16:42:58.0000000+00:00</time></trkpt><trkpt lat="38.96827502" lon="-0.51200294"><ele>207.8</ele><time>2022-11-13T16:42:59.0000000+00:00</time></trkpt><trkpt lat="38.96828609" lon="-0.51199875"><ele>208.0</ele><time>2022-11-13T16:43:00.0000000+00:00</time></trkpt><trkpt lat="38.96829765" lon="-0.51199229"><ele>208.0</ele><time>2022-11-13T16:43:01.0000000+00:00</time></trkpt><trkpt lat="38.96831173" lon="-0.51198735"><ele>208.0</ele><time>2022-11-13T16:43:02.0000000+00:00</time></trkpt><trkpt lat="38.96832523" lon="-0.5119845"><ele>208.0</ele><time>2022-11-13T16:43:03.0000000+00:00</time></trkpt><trkpt lat="38.96833839" lon="-0.51198157"><ele>208.0</ele><time>2022-11-13T16:43:04.0000000+00:00</time></trkpt><trkpt lat="38.96835012" lon="-0.51197553"><ele>208.0</ele><time>2022-11-13T16:43:05.0000000+00:00</time></trkpt><trkpt lat="38.96836312" lon="-0.51197285"><ele>208.0</ele><time>2022-11-13T16:43:06.0000000+00:00</time></trkpt><trkpt lat="38.96837871" lon="-0.51196757"><ele>208.2</ele><time>2022-11-13T16:43:07.0000000+00:00</time></trkpt><trkpt lat="38.96839555" lon="-0.51196589"><ele>208.2</ele><time>2022-11-13T16:43:08.0000000+00:00</time></trkpt><trkpt lat="38.96840779" lon="-0.5119638"><ele>208.2</ele><time>2022-11-13T16:43:09.0000000+00:00</time></trkpt><trkpt lat="38.96841978" lon="-0.51195919"><ele>208.4</ele><time>2022-11-13T16:43:10.0000000+00:00</time></trkpt><trkpt lat="38.96843059" lon="-0.51195374"><ele>208.4</ele><time>2022-11-13T16:43:11.0000000+00:00</time></trkpt><trkpt lat="38.96844056" lon="-0.51194804"><ele>208.4</ele><time>2022-11-13T16:43:12.0000000+00:00</time></trkpt><trkpt lat="38.96844802" lon="-0.51194628"><ele>208.6</ele><time>2022-11-13T16:43:13.0000000+00:00</time></trkpt><trkpt lat="38.96845263" lon="-0.51194301"><ele>208.6</ele><time>2022-11-13T16:43:14.0000000+00:00</time></trkpt><trkpt lat="38.96845792" lon="-0.511942"><ele>208.6</ele><time>2022-11-13T16:43:15.0000000+00:00</time></trkpt><trkpt lat="38.96846261" lon="-0.51194343"><ele>208.6</ele><time>2022-11-13T16:43:16.0000000+00:00</time></trkpt><trkpt lat="38.96846462" lon="-0.5119446"><ele>208.6</ele><time>2022-11-13T16:43:17.0000000+00:00</time></trkpt><trkpt lat="38.96846646" lon="-0.51194594"><ele>208.6</ele><time>2022-11-13T16:43:18.0000000+00:00</time></trkpt><trkpt lat="38.96846982" lon="-0.51194787"><ele>208.6</ele><time>2022-11-13T16:43:19.0000000+00:00</time></trkpt><trkpt lat="38.96847183" lon="-0.51194854"><ele>208.6</ele><time>2022-11-13T16:43:20.0000000+00:00</time></trkpt><trkpt lat="38.9684777" lon="-0.51194393"><ele>208.6</ele><time>2022-11-13T16:43:21.0000000+00:00</time></trkpt><trkpt lat="38.96848365" lon="-0.51193656"><ele>208.6</ele><time>2022-11-13T16:43:22.0000000+00:00</time></trkpt><trkpt lat="38.968487" lon="-0.51193262"><ele>208.8</ele><time>2022-11-13T16:43:23.0000000+00:00</time></trkpt><trkpt lat="38.96849077" lon="-0.51192625"><ele>209.0</ele><time>2022-11-13T16:43:24.0000000+00:00</time></trkpt><trkpt lat="38.9684979" lon="-0.51191962"><ele>209.0</ele><time>2022-11-13T16:43:25.0000000+00:00</time></trkpt><trkpt lat="38.96850569" lon="-0.51191879"><ele>209.2</ele><time>2022-11-13T16:43:26.0000000+00:00</time></trkpt><trkpt lat="38.96851374" lon="-0.51191837"><ele>209.2</ele><time>2022-11-13T16:43:27.0000000+00:00</time></trkpt><trkpt lat="38.96852212" lon="-0.51192096"><ele>209.4</ele><time>2022-11-13T16:43:28.0000000+00:00</time></trkpt><trkpt lat="38.96853059" lon="-0.51191946"><ele>209.4</ele><time>2022-11-13T16:43:29.0000000+00:00</time></trkpt><trkpt lat="38.9685383" lon="-0.51192298"><ele>209.6</ele><time>2022-11-13T16:43:30.0000000+00:00</time></trkpt><trkpt lat="38.96854609" lon="-0.51192708"><ele>209.6</ele><time>2022-11-13T16:43:31.0000000+00:00</time></trkpt><trkpt lat="38.96855707" lon="-0.51193119"><ele>209.6</ele><time>2022-11-13T16:43:32.0000000+00:00</time></trkpt><trkpt lat="38.96857074" lon="-0.51193857"><ele>209.8</ele><time>2022-11-13T16:43:33.0000000+00:00</time></trkpt><trkpt lat="38.96858423" lon="-0.51194552"><ele>209.8</ele><time>2022-11-13T16:43:34.0000000+00:00</time></trkpt><trkpt lat="38.96859823" lon="-0.51195324"><ele>209.8</ele><time>2022-11-13T16:43:35.0000000+00:00</time></trkpt><trkpt lat="38.96860862" lon="-0.51195977"><ele>210.0</ele><time>2022-11-13T16:43:36.0000000+00:00</time></trkpt><trkpt lat="38.96861491" lon="-0.51196639"><ele>210.0</ele><time>2022-11-13T16:43:37.0000000+00:00</time></trkpt><trkpt lat="38.96861751" lon="-0.51197486"><ele>210.2</ele><time>2022-11-13T16:43:38.0000000+00:00</time></trkpt><trkpt lat="38.96862187" lon="-0.5119866"><ele>210.2</ele><time>2022-11-13T16:43:39.0000000+00:00</time></trkpt><trkpt lat="38.96863218" lon="-0.5119933"><ele>210.2</ele><time>2022-11-13T16:43:40.0000000+00:00</time></trkpt><trkpt lat="38.96864156" lon="-0.5120026"><ele>210.2</ele><time>2022-11-13T16:43:41.0000000+00:00</time></trkpt><trkpt lat="38.9686538" lon="-0.51200856"><ele>210.2</ele><time>2022-11-13T16:43:42.0000000+00:00</time></trkpt><trkpt lat="38.96866428" lon="-0.51200973"><ele>210.4</ele><time>2022-11-13T16:43:43.0000000+00:00</time></trkpt><trkpt lat="38.96867182" lon="-0.51201417"><ele>210.4</ele><time>2022-11-13T16:43:44.0000000+00:00</time></trkpt><trkpt lat="38.96868154" lon="-0.51201518"><ele>210.4</ele><time>2022-11-13T16:43:45.0000000+00:00</time></trkpt><trkpt lat="38.96868951" lon="-0.51201845"><ele>210.6</ele><time>2022-11-13T16:43:46.0000000+00:00</time></trkpt><trkpt lat="38.96869621" lon="-0.5120228"><ele>210.6</ele><time>2022-11-13T16:43:47.0000000+00:00</time></trkpt><trkpt lat="38.96870585" lon="-0.51202222"><ele>210.6</ele><time>2022-11-13T16:43:48.0000000+00:00</time></trkpt><trkpt lat="38.96871281" lon="-0.51201417"><ele>210.8</ele><time>2022-11-13T16:43:49.0000000+00:00</time></trkpt><trkpt lat="38.96872178" lon="-0.51200462"><ele>211.0</ele><time>2022-11-13T16:43:50.0000000+00:00</time></trkpt><trkpt lat="38.96872781" lon="-0.51198794"><ele>211.0</ele><time>2022-11-13T16:43:51.0000000+00:00</time></trkpt><trkpt lat="38.96873536" lon="-0.51197327"><ele>211.2</ele><time>2022-11-13T16:43:52.0000000+00:00</time></trkpt><trkpt lat="38.96874424" lon="-0.51196061"><ele>211.4</ele><time>2022-11-13T16:43:53.0000000+00:00</time></trkpt><trkpt lat="38.96875162" lon="-0.51194837"><ele>211.4</ele><time>2022-11-13T16:43:54.0000000+00:00</time></trkpt><trkpt lat="38.96875631" lon="-0.51193228"><ele>211.4</ele><time>2022-11-13T16:43:55.0000000+00:00</time></trkpt><trkpt lat="38.96876084" lon="-0.51191652"><ele>211.4</ele><time>2022-11-13T16:43:56.0000000+00:00</time></trkpt><trkpt lat="38.96876486" lon="-0.51189984"><ele>211.6</ele><time>2022-11-13T16:43:57.0000000+00:00</time></trkpt><trkpt lat="38.9687667" lon="-0.51188341"><ele>211.4</ele><time>2022-11-13T16:43:58.0000000+00:00</time></trkpt><trkpt lat="38.96876905" lon="-0.51186774"><ele>211.4</ele><time>2022-11-13T16:43:59.0000000+00:00</time></trkpt><trkpt lat="38.96877299" lon="-0.51185341"><ele>211.2</ele><time>2022-11-13T16:44:00.0000000+00:00</time></trkpt><trkpt lat="38.96878246" lon="-0.51184486"><ele>211.2</ele><time>2022-11-13T16:44:01.0000000+00:00</time></trkpt><trkpt lat="38.96879286" lon="-0.51183899"><ele>211.2</ele><time>2022-11-13T16:44:02.0000000+00:00</time></trkpt><trkpt lat="38.96880266" lon="-0.51183346"><ele>211.0</ele><time>2022-11-13T16:44:03.0000000+00:00</time></trkpt><trkpt lat="38.96881281" lon="-0.51182726"><ele>211.0</ele><time>2022-11-13T16:44:04.0000000+00:00</time></trkpt><trkpt lat="38.96882647" lon="-0.51182005"><ele>211.0</ele><time>2022-11-13T16:44:05.0000000+00:00</time></trkpt><trkpt lat="38.96883812" lon="-0.51181301"><ele>211.0</ele><time>2022-11-13T16:44:06.0000000+00:00</time></trkpt><trkpt lat="38.96885228" lon="-0.51180865"><ele>210.8</ele><time>2022-11-13T16:44:07.0000000+00:00</time></trkpt><trkpt lat="38.96886528" lon="-0.51180462"><ele>210.6</ele><time>2022-11-13T16:44:08.0000000+00:00</time></trkpt><trkpt lat="38.96887793" lon="-0.51179716"><ele>210.4</ele><time>2022-11-13T16:44:09.0000000+00:00</time></trkpt><trkpt lat="38.96888942" lon="-0.51179356"><ele>210.2</ele><time>2022-11-13T16:44:10.0000000+00:00</time></trkpt><trkpt lat="38.96890014" lon="-0.51178987"><ele>210.0</ele><time>2022-11-13T16:44:11.0000000+00:00</time></trkpt><trkpt lat="38.96891481" lon="-0.51178694"><ele>209.8</ele><time>2022-11-13T16:44:12.0000000+00:00</time></trkpt><trkpt lat="38.96892998" lon="-0.51178736"><ele>209.8</ele><time>2022-11-13T16:44:13.0000000+00:00</time></trkpt><trkpt lat="38.96894398" lon="-0.51178786"><ele>209.4</ele><time>2022-11-13T16:44:14.0000000+00:00</time></trkpt><trkpt lat="38.96895605" lon="-0.51178669"><ele>209.4</ele><time>2022-11-13T16:44:15.0000000+00:00</time></trkpt><trkpt lat="38.96896846" lon="-0.51178727"><ele>209.2</ele><time>2022-11-13T16:44:16.0000000+00:00</time></trkpt><trkpt lat="38.96897927" lon="-0.51178183"><ele>209.2</ele><time>2022-11-13T16:44:17.0000000+00:00</time></trkpt><trkpt lat="38.96899444" lon="-0.51177546"><ele>209.0</ele><time>2022-11-13T16:44:18.0000000+00:00</time></trkpt><trkpt lat="38.96900701" lon="-0.51177302"><ele>209.0</ele><time>2022-11-13T16:44:19.0000000+00:00</time></trkpt><trkpt lat="38.9690195" lon="-0.51177043"><ele>209.0</ele><time>2022-11-13T16:44:20.0000000+00:00</time></trkpt><trkpt lat="38.96902755" lon="-0.5117664"><ele>209.0</ele><time>2022-11-13T16:44:21.0000000+00:00</time></trkpt><trkpt lat="38.96903392" lon="-0.511755"><ele>208.8</ele><time>2022-11-13T16:44:22.0000000+00:00</time></trkpt><trkpt lat="38.96904205" lon="-0.51174059"><ele>208.6</ele><time>2022-11-13T16:44:23.0000000+00:00</time></trkpt><trkpt lat="38.96904825" lon="-0.51172726"><ele>208.4</ele><time>2022-11-13T16:44:24.0000000+00:00</time></trkpt><trkpt lat="38.96905571" lon="-0.51171242"><ele>208.4</ele><time>2022-11-13T16:44:25.0000000+00:00</time></trkpt><trkpt lat="38.96906435" lon="-0.51170119"><ele>208.2</ele><time>2022-11-13T16:44:26.0000000+00:00</time></trkpt><trkpt lat="38.96907088" lon="-0.51169918"><ele>208.0</ele><time>2022-11-13T16:44:27.0000000+00:00</time></trkpt><trkpt lat="38.96908002" lon="-0.51169625"><ele>208.0</ele><time>2022-11-13T16:44:28.0000000+00:00</time></trkpt><trkpt lat="38.96909209" lon="-0.51168418"><ele>207.8</ele><time>2022-11-13T16:44:29.0000000+00:00</time></trkpt><trkpt lat="38.9691055" lon="-0.51167948"><ele>207.8</ele><time>2022-11-13T16:44:30.0000000+00:00</time></trkpt><trkpt lat="38.96911807" lon="-0.51167202"><ele>207.6</ele><time>2022-11-13T16:44:31.0000000+00:00</time></trkpt><trkpt lat="38.96913123" lon="-0.51166875"><ele>207.6</ele><time>2022-11-13T16:44:32.0000000+00:00</time></trkpt><trkpt lat="38.96914699" lon="-0.51166339"><ele>207.6</ele><time>2022-11-13T16:44:33.0000000+00:00</time></trkpt><trkpt lat="38.96916325" lon="-0.51166154"><ele>207.4</ele><time>2022-11-13T16:44:34.0000000+00:00</time></trkpt><trkpt lat="38.96918186" lon="-0.51166154"><ele>207.2</ele><time>2022-11-13T16:44:35.0000000+00:00</time></trkpt><trkpt lat="38.96919955" lon="-0.51166372"><ele>207.2</ele><time>2022-11-13T16:44:36.0000000+00:00</time></trkpt><trkpt lat="38.96921363" lon="-0.5116623"><ele>207.0</ele><time>2022-11-13T16:44:37.0000000+00:00</time></trkpt><trkpt lat="38.96923089" lon="-0.51166473"><ele>207.0</ele><time>2022-11-13T16:44:38.0000000+00:00</time></trkpt><trkpt lat="38.96924615" lon="-0.51166582"><ele>206.8</ele><time>2022-11-13T16:44:39.0000000+00:00</time></trkpt><trkpt lat="38.96925596" lon="-0.51166129"><ele>206.6</ele><time>2022-11-13T16:44:40.0000000+00:00</time></trkpt><trkpt lat="38.96926031" lon="-0.5116602"><ele>206.6</ele><time>2022-11-13T16:44:41.0000000+00:00</time></trkpt><trkpt lat="38.96927255" lon="-0.5116561"><ele>206.4</ele><time>2022-11-13T16:44:42.0000000+00:00</time></trkpt><trkpt lat="38.9692868" lon="-0.5116473"><ele>206.4</ele><time>2022-11-13T16:44:43.0000000+00:00</time></trkpt><trkpt lat="38.96930667" lon="-0.51164352"><ele>206.4</ele><time>2022-11-13T16:44:44.0000000+00:00</time></trkpt><trkpt lat="38.96932008" lon="-0.51163933"><ele>206.2</ele><time>2022-11-13T16:44:45.0000000+00:00</time></trkpt><trkpt lat="38.96933533" lon="-0.51163598"><ele>206.2</ele><time>2022-11-13T16:44:46.0000000+00:00</time></trkpt><trkpt lat="38.96934816" lon="-0.51162366"><ele>205.8</ele><time>2022-11-13T16:44:47.0000000+00:00</time></trkpt><trkpt lat="38.96936081" lon="-0.51161888"><ele>205.6</ele><time>2022-11-13T16:44:48.0000000+00:00</time></trkpt><trkpt lat="38.96937607" lon="-0.51161444"><ele>205.4</ele><time>2022-11-13T16:44:49.0000000+00:00</time></trkpt><trkpt lat="38.96938755" lon="-0.51161016"><ele>205.2</ele><time>2022-11-13T16:44:50.0000000+00:00</time></trkpt><trkpt lat="38.96939644" lon="-0.51160438"><ele>205.2</ele><time>2022-11-13T16:44:51.0000000+00:00</time></trkpt><trkpt lat="38.96940608" lon="-0.51160078"><ele>205.2</ele><time>2022-11-13T16:44:52.0000000+00:00</time></trkpt><trkpt lat="38.96941697" lon="-0.5115991"><ele>205.0</ele><time>2022-11-13T16:44:53.0000000+00:00</time></trkpt><trkpt lat="38.96942946" lon="-0.51159969"><ele>205.0</ele><time>2022-11-13T16:44:54.0000000+00:00</time></trkpt><trkpt lat="38.96944245" lon="-0.51160086"><ele>205.0</ele><time>2022-11-13T16:44:55.0000000+00:00</time></trkpt><trkpt lat="38.96945402" lon="-0.51160027"><ele>204.8</ele><time>2022-11-13T16:44:56.0000000+00:00</time></trkpt><trkpt lat="38.96946173" lon="-0.51159801"><ele>204.6</ele><time>2022-11-13T16:44:57.0000000+00:00</time></trkpt><trkpt lat="38.96947296" lon="-0.51159809"><ele>204.4</ele><time>2022-11-13T16:44:58.0000000+00:00</time></trkpt><trkpt lat="38.96948461" lon="-0.51159583"><ele>204.2</ele><time>2022-11-13T16:44:59.0000000+00:00</time></trkpt><trkpt lat="38.96949777" lon="-0.51159491"><ele>204.0</ele><time>2022-11-13T16:45:00.0000000+00:00</time></trkpt><trkpt lat="38.96950909" lon="-0.51159533"><ele>203.8</ele><time>2022-11-13T16:45:01.0000000+00:00</time></trkpt><trkpt lat="38.96952024" lon="-0.51159633"><ele>203.8</ele><time>2022-11-13T16:45:02.0000000+00:00</time></trkpt><trkpt lat="38.96953365" lon="-0.511596"><ele>203.6</ele><time>2022-11-13T16:45:03.0000000+00:00</time></trkpt><trkpt lat="38.96954857" lon="-0.51159684"><ele>203.4</ele><time>2022-11-13T16:45:04.0000000+00:00</time></trkpt><trkpt lat="38.96956542" lon="-0.5115986"><ele>203.2</ele><time>2022-11-13T16:45:05.0000000+00:00</time></trkpt><trkpt lat="38.96958076" lon="-0.51160052"><ele>203.2</ele><time>2022-11-13T16:45:06.0000000+00:00</time></trkpt><trkpt lat="38.96959802" lon="-0.51160061"><ele>203.0</ele><time>2022-11-13T16:45:07.0000000+00:00</time></trkpt><trkpt lat="38.96961135" lon="-0.51159969"><ele>203.0</ele><time>2022-11-13T16:45:08.0000000+00:00</time></trkpt><trkpt lat="38.9696235" lon="-0.5115955"><ele>203.0</ele><time>2022-11-13T16:45:09.0000000+00:00</time></trkpt><trkpt lat="38.96963339" lon="-0.51159977"><ele>203.0</ele><time>2022-11-13T16:45:10.0000000+00:00</time></trkpt><trkpt lat="38.96964354" lon="-0.51160555"><ele>203.0</ele><time>2022-11-13T16:45:11.0000000+00:00</time></trkpt><trkpt lat="38.96965259" lon="-0.51160405"><ele>203.0</ele><time>2022-11-13T16:45:12.0000000+00:00</time></trkpt><trkpt lat="38.96966206" lon="-0.51160337"><ele>202.6</ele><time>2022-11-13T16:45:13.0000000+00:00</time></trkpt><trkpt lat="38.96966969" lon="-0.51159977"><ele>202.6</ele><time>2022-11-13T16:45:14.0000000+00:00</time></trkpt><trkpt lat="38.96967547" lon="-0.51159818"><ele>202.4</ele><time>2022-11-13T16:45:15.0000000+00:00</time></trkpt><trkpt lat="38.96967815" lon="-0.51159684"><ele>202.4</ele><time>2022-11-13T16:45:16.0000000+00:00</time></trkpt><trkpt lat="38.96968209" lon="-0.51159399"><ele>202.4</ele><time>2022-11-13T16:45:17.0000000+00:00</time></trkpt><trkpt lat="38.96969198" lon="-0.51159055"><ele>202.2</ele><time>2022-11-13T16:45:18.0000000+00:00</time></trkpt><trkpt lat="38.96970497" lon="-0.51158678"><ele>202.2</ele><time>2022-11-13T16:45:19.0000000+00:00</time></trkpt><trkpt lat="38.96971453" lon="-0.51158443"><ele>202.2</ele><time>2022-11-13T16:45:20.0000000+00:00</time></trkpt><trkpt lat="38.96972518" lon="-0.51158343"><ele>202.2</ele><time>2022-11-13T16:45:21.0000000+00:00</time></trkpt><trkpt lat="38.96973523" lon="-0.51158452"><ele>202.0</ele><time>2022-11-13T16:45:22.0000000+00:00</time></trkpt><trkpt lat="38.96974521" lon="-0.51158577"><ele>202.0</ele><time>2022-11-13T16:45:23.0000000+00:00</time></trkpt><trkpt lat="38.96975569" lon="-0.51158527"><ele>201.8</ele><time>2022-11-13T16:45:24.0000000+00:00</time></trkpt><trkpt lat="38.96976809" lon="-0.51158393"><ele>201.6</ele><time>2022-11-13T16:45:25.0000000+00:00</time></trkpt><trkpt lat="38.96978008" lon="-0.51158217"><ele>201.6</ele><time>2022-11-13T16:45:26.0000000+00:00</time></trkpt><trkpt lat="38.96978997" lon="-0.51157991"><ele>201.4</ele><time>2022-11-13T16:45:27.0000000+00:00</time></trkpt><trkpt lat="38.9698012" lon="-0.51157429"><ele>201.4</ele><time>2022-11-13T16:45:28.0000000+00:00</time></trkpt><trkpt lat="38.96981193" lon="-0.51156708"><ele>201.2</ele><time>2022-11-13T16:45:29.0000000+00:00</time></trkpt><trkpt lat="38.96981956" lon="-0.51156054"><ele>201.2</ele><time>2022-11-13T16:45:30.0000000+00:00</time></trkpt><trkpt lat="38.96982945" lon="-0.51155585"><ele>201.2</ele><time>2022-11-13T16:45:31.0000000+00:00</time></trkpt><trkpt lat="38.96983774" lon="-0.51155292"><ele>201.0</ele><time>2022-11-13T16:45:32.0000000+00:00</time></trkpt><trkpt lat="38.96984479" lon="-0.51155157"><ele>201.0</ele><time>2022-11-13T16:45:33.0000000+00:00</time></trkpt><trkpt lat="38.96985266" lon="-0.51155359"><ele>200.8</ele><time>2022-11-13T16:45:34.0000000+00:00</time></trkpt><trkpt lat="38.96986465" lon="-0.51155325"><ele>200.8</ele><time>2022-11-13T16:45:35.0000000+00:00</time></trkpt><trkpt lat="38.96987697" lon="-0.5115597"><ele>200.8</ele><time>2022-11-13T16:45:36.0000000+00:00</time></trkpt><trkpt lat="38.96988778" lon="-0.51156884"><ele>200.6</ele><time>2022-11-13T16:45:37.0000000+00:00</time></trkpt><trkpt lat="38.96989985" lon="-0.51157571"><ele>200.6</ele><time>2022-11-13T16:45:38.0000000+00:00</time></trkpt><trkpt lat="38.96991494" lon="-0.5115794"><ele>200.4</ele><time>2022-11-13T16:45:39.0000000+00:00</time></trkpt><trkpt lat="38.96992693" lon="-0.51158007"><ele>200.4</ele><time>2022-11-13T16:45:40.0000000+00:00</time></trkpt><trkpt lat="38.96993682" lon="-0.51157278"><ele>200.4</ele><time>2022-11-13T16:45:41.0000000+00:00</time></trkpt><trkpt lat="38.9699483" lon="-0.51156499"><ele>200.2</ele><time>2022-11-13T16:45:42.0000000+00:00</time></trkpt><trkpt lat="38.96996171" lon="-0.5115618"><ele>200.2</ele><time>2022-11-13T16:45:43.0000000+00:00</time></trkpt><trkpt lat="38.96997655" lon="-0.51156004"><ele>200.2</ele><time>2022-11-13T16:45:44.0000000+00:00</time></trkpt><trkpt lat="38.96998912" lon="-0.51155979"><ele>200.2</ele><time>2022-11-13T16:45:45.0000000+00:00</time></trkpt><trkpt lat="38.96999918" lon="-0.51155811"><ele>199.8</ele><time>2022-11-13T16:45:46.0000000+00:00</time></trkpt><trkpt lat="38.97000697" lon="-0.51155702"><ele>199.6</ele><time>2022-11-13T16:45:47.0000000+00:00</time></trkpt><trkpt lat="38.97001787" lon="-0.511553"><ele>199.4</ele><time>2022-11-13T16:45:48.0000000+00:00</time></trkpt><trkpt lat="38.97002969" lon="-0.51154889"><ele>199.4</ele><time>2022-11-13T16:45:49.0000000+00:00</time></trkpt><trkpt lat="38.97004193" lon="-0.51154763"><ele>199.2</ele><time>2022-11-13T16:45:50.0000000+00:00</time></trkpt><trkpt lat="38.97005266" lon="-0.51154705"><ele>199.2</ele><time>2022-11-13T16:45:51.0000000+00:00</time></trkpt><trkpt lat="38.97006397" lon="-0.51154261"><ele>199.0</ele><time>2022-11-13T16:45:52.0000000+00:00</time></trkpt><trkpt lat="38.97007562" lon="-0.51154101"><ele>199.0</ele><time>2022-11-13T16:45:53.0000000+00:00</time></trkpt><trkpt lat="38.97008979" lon="-0.51153841"><ele>198.8</ele><time>2022-11-13T16:45:54.0000000+00:00</time></trkpt><trkpt lat="38.9701037" lon="-0.51153758"><ele>198.8</ele><time>2022-11-13T16:45:55.0000000+00:00</time></trkpt><trkpt lat="38.97011879" lon="-0.51153439"><ele>198.8</ele><time>2022-11-13T16:45:56.0000000+00:00</time></trkpt><trkpt lat="38.97013187" lon="-0.51152886"><ele>198.6</ele><time>2022-11-13T16:45:57.0000000+00:00</time></trkpt><trkpt lat="38.97014519" lon="-0.51152802"><ele>198.6</ele><time>2022-11-13T16:45:58.0000000+00:00</time></trkpt><trkpt lat="38.97015542" lon="-0.51152718"><ele>198.4</ele><time>2022-11-13T16:45:59.0000000+00:00</time></trkpt><trkpt lat="38.97016279" lon="-0.51152634"><ele>198.2</ele><time>2022-11-13T16:46:00.0000000+00:00</time></trkpt><trkpt lat="38.97017" lon="-0.51152651"><ele>198.0</ele><time>2022-11-13T16:46:01.0000000+00:00</time></trkpt><trkpt lat="38.97017939" lon="-0.51152492"><ele>197.8</ele><time>2022-11-13T16:46:02.0000000+00:00</time></trkpt><trkpt lat="38.97018861" lon="-0.51152199"><ele>197.8</ele><time>2022-11-13T16:46:03.0000000+00:00</time></trkpt><trkpt lat="38.97019993" lon="-0.51151997"><ele>197.6</ele><time>2022-11-13T16:46:04.0000000+00:00</time></trkpt><trkpt lat="38.97020948" lon="-0.51151662"><ele>197.6</ele><time>2022-11-13T16:46:05.0000000+00:00</time></trkpt><trkpt lat="38.97021996" lon="-0.5115126"><ele>197.6</ele><time>2022-11-13T16:46:06.0000000+00:00</time></trkpt><trkpt lat="38.97023236" lon="-0.51151226"><ele>197.4</ele><time>2022-11-13T16:46:07.0000000+00:00</time></trkpt><trkpt lat="38.97024519" lon="-0.51151092"><ele>197.2</ele><time>2022-11-13T16:46:08.0000000+00:00</time></trkpt><trkpt lat="38.97025902" lon="-0.51150799"><ele>197.0</ele><time>2022-11-13T16:46:09.0000000+00:00</time></trkpt><trkpt lat="38.97027268" lon="-0.51150371"><ele>197.0</ele><time>2022-11-13T16:46:10.0000000+00:00</time></trkpt><trkpt lat="38.97028416" lon="-0.51150153"><ele>197.0</ele><time>2022-11-13T16:46:11.0000000+00:00</time></trkpt><trkpt lat="38.97029774" lon="-0.51150128"><ele>196.8</ele><time>2022-11-13T16:46:12.0000000+00:00</time></trkpt><trkpt lat="38.97031258" lon="-0.51149944"><ele>196.8</ele><time>2022-11-13T16:46:13.0000000+00:00</time></trkpt><trkpt lat="38.97032725" lon="-0.51149625"><ele>196.8</ele><time>2022-11-13T16:46:14.0000000+00:00</time></trkpt><trkpt lat="38.97033907" lon="-0.51148829"><ele>196.6</ele><time>2022-11-13T16:46:15.0000000+00:00</time></trkpt><trkpt lat="38.97035214" lon="-0.51148058"><ele>196.6</ele><time>2022-11-13T16:46:16.0000000+00:00</time></trkpt><trkpt lat="38.97036656" lon="-0.51147664"><ele>196.6</ele><time>2022-11-13T16:46:17.0000000+00:00</time></trkpt><trkpt lat="38.97038047" lon="-0.51147228"><ele>196.4</ele><time>2022-11-13T16:46:18.0000000+00:00</time></trkpt><trkpt lat="38.97039204" lon="-0.51147111"><ele>196.4</ele><time>2022-11-13T16:46:19.0000000+00:00</time></trkpt><trkpt lat="38.9704026" lon="-0.51146876"><ele>196.2</ele><time>2022-11-13T16:46:20.0000000+00:00</time></trkpt><trkpt lat="38.97041207" lon="-0.51146583"><ele>196.0</ele><time>2022-11-13T16:46:21.0000000+00:00</time></trkpt><trkpt lat="38.97042171" lon="-0.51146289"><ele>195.8</ele><time>2022-11-13T16:46:22.0000000+00:00</time></trkpt><trkpt lat="38.97043387" lon="-0.51146482"><ele>195.8</ele><time>2022-11-13T16:46:23.0000000+00:00</time></trkpt><trkpt lat="38.97044694" lon="-0.511467"><ele>195.8</ele><time>2022-11-13T16:46:24.0000000+00:00</time></trkpt><trkpt lat="38.97046027" lon="-0.51146767"><ele>195.8</ele><time>2022-11-13T16:46:25.0000000+00:00</time></trkpt><trkpt lat="38.97047292" lon="-0.51146725"><ele>195.6</ele><time>2022-11-13T16:46:26.0000000+00:00</time></trkpt><trkpt lat="38.97048516" lon="-0.51146214"><ele>195.6</ele><time>2022-11-13T16:46:27.0000000+00:00</time></trkpt><trkpt lat="38.97049924" lon="-0.51145577"><ele>195.6</ele><time>2022-11-13T16:46:28.0000000+00:00</time></trkpt><trkpt lat="38.97051374" lon="-0.51145418"><ele>195.4</ele><time>2022-11-13T16:46:29.0000000+00:00</time></trkpt><trkpt lat="38.970529" lon="-0.51145543"><ele>195.4</ele><time>2022-11-13T16:46:30.0000000+00:00</time></trkpt><trkpt lat="38.97054493" lon="-0.51145594"><ele>195.4</ele><time>2022-11-13T16:46:31.0000000+00:00</time></trkpt><trkpt lat="38.97056119" lon="-0.51145284"><ele>195.4</ele><time>2022-11-13T16:46:32.0000000+00:00</time></trkpt><trkpt lat="38.97057544" lon="-0.5114499"><ele>195.2</ele><time>2022-11-13T16:46:33.0000000+00:00</time></trkpt><trkpt lat="38.97058843" lon="-0.51144747"><ele>195.2</ele><time>2022-11-13T16:46:34.0000000+00:00</time></trkpt><trkpt lat="38.97059916" lon="-0.51144579"><ele>195.2</ele><time>2022-11-13T16:46:35.0000000+00:00</time></trkpt><trkpt lat="38.97061089" lon="-0.51144211"><ele>195.0</ele><time>2022-11-13T16:46:36.0000000+00:00</time></trkpt><trkpt lat="38.97062296" lon="-0.51143884"><ele>195.0</ele><time>2022-11-13T16:46:37.0000000+00:00</time></trkpt><trkpt lat="38.9706357" lon="-0.51143758"><ele>194.8</ele><time>2022-11-13T16:46:38.0000000+00:00</time></trkpt><trkpt lat="38.97064618" lon="-0.5114375"><ele>194.8</ele><time>2022-11-13T16:46:39.0000000+00:00</time></trkpt><trkpt lat="38.97065691" lon="-0.51143507"><ele>194.6</ele><time>2022-11-13T16:46:40.0000000+00:00</time></trkpt><trkpt lat="38.9706668" lon="-0.51143146"><ele>194.6</ele><time>2022-11-13T16:46:41.0000000+00:00</time></trkpt><trkpt lat="38.97067753" lon="-0.51142685"><ele>194.6</ele><time>2022-11-13T16:46:42.0000000+00:00</time></trkpt><trkpt lat="38.97068951" lon="-0.51142157"><ele>194.4</ele><time>2022-11-13T16:46:43.0000000+00:00</time></trkpt><trkpt lat="38.97070234" lon="-0.51141696"><ele>194.4</ele><time>2022-11-13T16:46:44.0000000+00:00</time></trkpt><trkpt lat="38.97071508" lon="-0.51141386"><ele>194.4</ele><time>2022-11-13T16:46:45.0000000+00:00</time></trkpt><trkpt lat="38.97073008" lon="-0.51141093"><ele>194.2</ele><time>2022-11-13T16:46:46.0000000+00:00</time></trkpt><trkpt lat="38.97074156" lon="-0.51140338"><ele>194.2</ele><time>2022-11-13T16:46:47.0000000+00:00</time></trkpt><trkpt lat="38.97075338" lon="-0.51139819"><ele>194.2</ele><time>2022-11-13T16:46:48.0000000+00:00</time></trkpt><trkpt lat="38.97076579" lon="-0.51139542"><ele>194.2</ele><time>2022-11-13T16:46:49.0000000+00:00</time></trkpt><trkpt lat="38.97077509" lon="-0.5113898"><ele>194.0</ele><time>2022-11-13T16:46:50.0000000+00:00</time></trkpt><trkpt lat="38.97078398" lon="-0.51138964"><ele>194.0</ele><time>2022-11-13T16:46:51.0000000+00:00</time></trkpt><trkpt lat="38.97079085" lon="-0.51138788"><ele>194.0</ele><time>2022-11-13T16:46:52.0000000+00:00</time></trkpt><trkpt lat="38.97080208" lon="-0.51138737"><ele>193.8</ele><time>2022-11-13T16:46:53.0000000+00:00</time></trkpt><trkpt lat="38.97081432" lon="-0.51138511"><ele>193.6</ele><time>2022-11-13T16:46:54.0000000+00:00</time></trkpt><trkpt lat="38.97082723" lon="-0.51138419"><ele>193.6</ele><time>2022-11-13T16:46:55.0000000+00:00</time></trkpt><trkpt lat="38.9708419" lon="-0.51138192"><ele>193.4</ele><time>2022-11-13T16:46:56.0000000+00:00</time></trkpt><trkpt lat="38.97085162" lon="-0.51137799"><ele>193.4</ele><time>2022-11-13T16:46:57.0000000+00:00</time></trkpt><trkpt lat="38.97086034" lon="-0.5113717"><ele>193.2</ele><time>2022-11-13T16:46:58.0000000+00:00</time></trkpt><trkpt lat="38.9708719" lon="-0.51135812"><ele>193.0</ele><time>2022-11-13T16:46:59.0000000+00:00</time></trkpt><trkpt lat="38.97088632" lon="-0.51135116"><ele>192.8</ele><time>2022-11-13T16:47:00.0000000+00:00</time></trkpt><trkpt lat="38.97090359" lon="-0.5113453"><ele>192.8</ele><time>2022-11-13T16:47:01.0000000+00:00</time></trkpt><trkpt lat="38.97091432" lon="-0.51134194"><ele>192.6</ele><time>2022-11-13T16:47:02.0000000+00:00</time></trkpt><trkpt lat="38.97092236" lon="-0.51134354"><ele>192.6</ele><time>2022-11-13T16:47:03.0000000+00:00</time></trkpt><trkpt lat="38.970931" lon="-0.51134312"><ele>192.6</ele><time>2022-11-13T16:47:04.0000000+00:00</time></trkpt><trkpt lat="38.9709377" lon="-0.51133775"><ele>192.4</ele><time>2022-11-13T16:47:05.0000000+00:00</time></trkpt><trkpt lat="38.97094726" lon="-0.51132937"><ele>192.4</ele><time>2022-11-13T16:47:06.0000000+00:00</time></trkpt><trkpt lat="38.97095975" lon="-0.51132929"><ele>192.2</ele><time>2022-11-13T16:47:07.0000000+00:00</time></trkpt><trkpt lat="38.97097022" lon="-0.51132417"><ele>192.0</ele><time>2022-11-13T16:47:08.0000000+00:00</time></trkpt><trkpt lat="38.97098154" lon="-0.51131847"><ele>192.0</ele><time>2022-11-13T16:47:09.0000000+00:00</time></trkpt><trkpt lat="38.97099445" lon="-0.51131353"><ele>191.8</ele><time>2022-11-13T16:47:10.0000000+00:00</time></trkpt><trkpt lat="38.97100677" lon="-0.51130716"><ele>191.8</ele><time>2022-11-13T16:47:11.0000000+00:00</time></trkpt><trkpt lat="38.97101733" lon="-0.51130163"><ele>191.6</ele><time>2022-11-13T16:47:12.0000000+00:00</time></trkpt><trkpt lat="38.97102588" lon="-0.5112909"><ele>191.4</ele><time>2022-11-13T16:47:13.0000000+00:00</time></trkpt><trkpt lat="38.97103728" lon="-0.51128545"><ele>191.2</ele><time>2022-11-13T16:47:14.0000000+00:00</time></trkpt><trkpt lat="38.97104734" lon="-0.51127522"><ele>191.2</ele><time>2022-11-13T16:47:15.0000000+00:00</time></trkpt><trkpt lat="38.97105865" lon="-0.51126885"><ele>191.2</ele><time>2022-11-13T16:47:16.0000000+00:00</time></trkpt><trkpt lat="38.97107139" lon="-0.5112624"><ele>191.0</ele><time>2022-11-13T16:47:17.0000000+00:00</time></trkpt><trkpt lat="38.9710833" lon="-0.51125687"><ele>191.0</ele><time>2022-11-13T16:47:18.0000000+00:00</time></trkpt><trkpt lat="38.97109235" lon="-0.51124999"><ele>190.8</ele><time>2022-11-13T16:47:19.0000000+00:00</time></trkpt><trkpt lat="38.9711009" lon="-0.51124379"><ele>190.6</ele><time>2022-11-13T16:47:20.0000000+00:00</time></trkpt><trkpt lat="38.97111045" lon="-0.51123675"><ele>190.6</ele><time>2022-11-13T16:47:21.0000000+00:00</time></trkpt><trkpt lat="38.97111992" lon="-0.51123206"><ele>190.4</ele><time>2022-11-13T16:47:22.0000000+00:00</time></trkpt><trkpt lat="38.97112998" lon="-0.51123449"><ele>190.4</ele><time>2022-11-13T16:47:23.0000000+00:00</time></trkpt><trkpt lat="38.97114096" lon="-0.51123826"><ele>190.2</ele><time>2022-11-13T16:47:24.0000000+00:00</time></trkpt><trkpt lat="38.97115404" lon="-0.51123834"><ele>190.2</ele><time>2022-11-13T16:47:25.0000000+00:00</time></trkpt><trkpt lat="38.97116728" lon="-0.51123767"><ele>190.0</ele><time>2022-11-13T16:47:26.0000000+00:00</time></trkpt><trkpt lat="38.97118019" lon="-0.511236"><ele>190.0</ele><time>2022-11-13T16:47:27.0000000+00:00</time></trkpt><trkpt lat="38.97119368" lon="-0.51123449"><ele>190.0</ele><time>2022-11-13T16:47:28.0000000+00:00</time></trkpt><trkpt lat="38.97120777" lon="-0.51123482"><ele>190.0</ele><time>2022-11-13T16:47:29.0000000+00:00</time></trkpt><trkpt lat="38.97122118" lon="-0.51123373"><ele>189.8</ele><time>2022-11-13T16:47:30.0000000+00:00</time></trkpt><trkpt lat="38.97123283" lon="-0.51122912"><ele>189.6</ele><time>2022-11-13T16:47:31.0000000+00:00</time></trkpt><trkpt lat="38.97124255" lon="-0.51122242"><ele>189.6</ele><time>2022-11-13T16:47:32.0000000+00:00</time></trkpt><trkpt lat="38.97124976" lon="-0.51122124"><ele>189.4</ele><time>2022-11-13T16:47:33.0000000+00:00</time></trkpt><trkpt lat="38.97125973" lon="-0.51121831"><ele>189.4</ele><time>2022-11-13T16:47:34.0000000+00:00</time></trkpt><trkpt lat="38.9712703" lon="-0.5112132"><ele>189.2</ele><time>2022-11-13T16:47:35.0000000+00:00</time></trkpt><trkpt lat="38.97129536" lon="-0.51120574"><ele>189.0</ele><time>2022-11-13T16:47:36.0000000+00:00</time></trkpt><trkpt lat="38.971306" lon="-0.5111961"><ele>189.0</ele><time>2022-11-13T16:47:37.0000000+00:00</time></trkpt><trkpt lat="38.97131916" lon="-0.51118914"><ele>188.8</ele><time>2022-11-13T16:47:38.0000000+00:00</time></trkpt><trkpt lat="38.97134154" lon="-0.51118185"><ele>188.8</ele><time>2022-11-13T16:47:39.0000000+00:00</time></trkpt><trkpt lat="38.97135437" lon="-0.51117992"><ele>188.6</ele><time>2022-11-13T16:47:40.0000000+00:00</time></trkpt><trkpt lat="38.97136694" lon="-0.51117808"><ele>188.6</ele><time>2022-11-13T16:47:41.0000000+00:00</time></trkpt><trkpt lat="38.971377" lon="-0.51117539"><ele>188.4</ele><time>2022-11-13T16:47:42.0000000+00:00</time></trkpt><trkpt lat="38.97139141" lon="-0.51117481"><ele>188.4</ele><time>2022-11-13T16:47:43.0000000+00:00</time></trkpt><trkpt lat="38.97140273" lon="-0.51117238"><ele>188.2</ele><time>2022-11-13T16:47:44.0000000+00:00</time></trkpt><trkpt lat="38.97141337" lon="-0.51117062"><ele>188.2</ele><time>2022-11-13T16:47:45.0000000+00:00</time></trkpt><trkpt lat="38.97142452" lon="-0.51117238"><ele>188.2</ele><time>2022-11-13T16:47:46.0000000+00:00</time></trkpt><trkpt lat="38.97143374" lon="-0.51117305"><ele>188.2</ele><time>2022-11-13T16:47:47.0000000+00:00</time></trkpt><trkpt lat="38.97144531" lon="-0.51116802"><ele>188.2</ele><time>2022-11-13T16:47:48.0000000+00:00</time></trkpt><trkpt lat="38.97145805" lon="-0.51116517"><ele>188.2</ele><time>2022-11-13T16:47:49.0000000+00:00</time></trkpt><trkpt lat="38.97146819" lon="-0.51115695"><ele>188.0</ele><time>2022-11-13T16:47:50.0000000+00:00</time></trkpt><trkpt lat="38.97148076" lon="-0.51114882"><ele>188.0</ele><time>2022-11-13T16:47:51.0000000+00:00</time></trkpt><trkpt lat="38.97149292" lon="-0.5111417"><ele>187.8</ele><time>2022-11-13T16:47:52.0000000+00:00</time></trkpt><trkpt lat="38.97150172" lon="-0.51113566"><ele>187.6</ele><time>2022-11-13T16:47:53.0000000+00:00</time></trkpt><trkpt lat="38.9715101" lon="-0.51113281"><ele>187.6</ele><time>2022-11-13T16:47:54.0000000+00:00</time></trkpt><trkpt lat="38.97151823" lon="-0.51112779"><ele>187.4</ele><time>2022-11-13T16:47:55.0000000+00:00</time></trkpt><trkpt lat="38.9715272" lon="-0.51112569"><ele>187.4</ele><time>2022-11-13T16:47:56.0000000+00:00</time></trkpt><trkpt lat="38.97153944" lon="-0.51113139"><ele>187.2</ele><time>2022-11-13T16:47:57.0000000+00:00</time></trkpt><trkpt lat="38.97155327" lon="-0.5111267"><ele>187.2</ele><time>2022-11-13T16:47:58.0000000+00:00</time></trkpt><trkpt lat="38.97156668" lon="-0.51112242"><ele>187.2</ele><time>2022-11-13T16:47:59.0000000+00:00</time></trkpt><trkpt lat="38.97157791" lon="-0.51111714"><ele>187.2</ele><time>2022-11-13T16:48:00.0000000+00:00</time></trkpt><trkpt lat="38.9715909" lon="-0.51111781"><ele>187.0</ele><time>2022-11-13T16:48:01.0000000+00:00</time></trkpt><trkpt lat="38.97160465" lon="-0.51111781"><ele>187.0</ele><time>2022-11-13T16:48:02.0000000+00:00</time></trkpt><trkpt lat="38.97161379" lon="-0.51111739"><ele>187.0</ele><time>2022-11-13T16:48:03.0000000+00:00</time></trkpt><trkpt lat="38.97162217" lon="-0.51111127"><ele>186.8</ele><time>2022-11-13T16:48:04.0000000+00:00</time></trkpt><trkpt lat="38.97163265" lon="-0.5111101"><ele>186.8</ele><time>2022-11-13T16:48:05.0000000+00:00</time></trkpt><trkpt lat="38.9716443" lon="-0.51110926"><ele>186.6</ele><time>2022-11-13T16:48:06.0000000+00:00</time></trkpt><trkpt lat="38.97165402" lon="-0.51110658"><ele>186.6</ele><time>2022-11-13T16:48:07.0000000+00:00</time></trkpt><trkpt lat="38.971665" lon="-0.51110004"><ele>186.4</ele><time>2022-11-13T16:48:08.0000000+00:00</time></trkpt><trkpt lat="38.97167891" lon="-0.5110966"><ele>186.2</ele><time>2022-11-13T16:48:09.0000000+00:00</time></trkpt><trkpt lat="38.97169065" lon="-0.51108873"><ele>186.2</ele><time>2022-11-13T16:48:10.0000000+00:00</time></trkpt><trkpt lat="38.9717054" lon="-0.51108252"><ele>186.0</ele><time>2022-11-13T16:48:11.0000000+00:00</time></trkpt><trkpt lat="38.97171998" lon="-0.51107984"><ele>186.0</ele><time>2022-11-13T16:48:12.0000000+00:00</time></trkpt><trkpt lat="38.97173474" lon="-0.51107783"><ele>186.0</ele><time>2022-11-13T16:48:13.0000000+00:00</time></trkpt><trkpt lat="38.97174186" lon="-0.51107456"><ele>186.0</ele><time>2022-11-13T16:48:14.0000000+00:00</time></trkpt><trkpt lat="38.97174915" lon="-0.51107347"><ele>185.8</ele><time>2022-11-13T16:48:15.0000000+00:00</time></trkpt><trkpt lat="38.97175955" lon="-0.51106794"><ele>185.6</ele><time>2022-11-13T16:48:16.0000000+00:00</time></trkpt><trkpt lat="38.97176684" lon="-0.51106425"><ele>185.6</ele><time>2022-11-13T16:48:17.0000000+00:00</time></trkpt><trkpt lat="38.97177254" lon="-0.5110578"><ele>185.4</ele><time>2022-11-13T16:48:18.0000000+00:00</time></trkpt><trkpt lat="38.971781" lon="-0.51105151"><ele>185.2</ele><time>2022-11-13T16:48:19.0000000+00:00</time></trkpt><trkpt lat="38.97179333" lon="-0.5110474"><ele>185.2</ele><time>2022-11-13T16:48:20.0000000+00:00</time></trkpt><trkpt lat="38.97180867" lon="-0.51104841"><ele>185.0</ele><time>2022-11-13T16:48:21.0000000+00:00</time></trkpt><trkpt lat="38.97183021" lon="-0.51105293"><ele>185.0</ele><time>2022-11-13T16:48:22.0000000+00:00</time></trkpt><trkpt lat="38.97185108" lon="-0.51105503"><ele>184.8</ele><time>2022-11-13T16:48:23.0000000+00:00</time></trkpt><trkpt lat="38.97186658" lon="-0.51105302"><ele>184.6</ele><time>2022-11-13T16:48:24.0000000+00:00</time></trkpt><trkpt lat="38.97187606" lon="-0.51105009"><ele>184.4</ele><time>2022-11-13T16:48:25.0000000+00:00</time></trkpt><trkpt lat="38.9718805" lon="-0.5110505"><ele>184.4</ele><time>2022-11-13T16:48:26.0000000+00:00</time></trkpt><trkpt lat="38.97188494" lon="-0.51104631"><ele>184.2</ele><time>2022-11-13T16:48:27.0000000+00:00</time></trkpt><trkpt lat="38.97189768" lon="-0.51104648"><ele>184.0</ele><time>2022-11-13T16:48:28.0000000+00:00</time></trkpt><trkpt lat="38.9719121" lon="-0.51104623"><ele>184.0</ele><time>2022-11-13T16:48:29.0000000+00:00</time></trkpt><trkpt lat="38.97192392" lon="-0.51104346"><ele>184.0</ele><time>2022-11-13T16:48:30.0000000+00:00</time></trkpt><trkpt lat="38.9719349" lon="-0.51104321"><ele>183.8</ele><time>2022-11-13T16:48:31.0000000+00:00</time></trkpt><trkpt lat="38.9719437" lon="-0.51103433"><ele>183.8</ele><time>2022-11-13T16:48:32.0000000+00:00</time></trkpt><trkpt lat="38.97194772" lon="-0.51102134"><ele>183.6</ele><time>2022-11-13T16:48:33.0000000+00:00</time></trkpt><trkpt lat="38.97196088" lon="-0.5110148"><ele>183.4</ele><time>2022-11-13T16:48:34.0000000+00:00</time></trkpt><trkpt lat="38.97197035" lon="-0.51100558"><ele>183.4</ele><time>2022-11-13T16:48:35.0000000+00:00</time></trkpt><trkpt lat="38.97198225" lon="-0.51099686"><ele>183.0</ele><time>2022-11-13T16:48:36.0000000+00:00</time></trkpt><trkpt lat="38.97199424" lon="-0.51098764"><ele>182.8</ele><time>2022-11-13T16:48:37.0000000+00:00</time></trkpt><trkpt lat="38.97200598" lon="-0.51097758"><ele>182.6</ele><time>2022-11-13T16:48:38.0000000+00:00</time></trkpt><trkpt lat="38.97202081" lon="-0.51096828"><ele>182.6</ele><time>2022-11-13T16:48:39.0000000+00:00</time></trkpt><trkpt lat="38.97203305" lon="-0.51095738"><ele>182.4</ele><time>2022-11-13T16:48:40.0000000+00:00</time></trkpt><trkpt lat="38.97204436" lon="-0.51094037"><ele>182.2</ele><time>2022-11-13T16:48:41.0000000+00:00</time></trkpt><trkpt lat="38.97205367" lon="-0.51093073"><ele>182.2</ele><time>2022-11-13T16:48:42.0000000+00:00</time></trkpt><trkpt lat="38.97206088" lon="-0.51092033"><ele>182.0</ele><time>2022-11-13T16:48:43.0000000+00:00</time></trkpt><trkpt lat="38.97207093" lon="-0.5109112"><ele>181.8</ele><time>2022-11-13T16:48:44.0000000+00:00</time></trkpt><trkpt lat="38.9720872" lon="-0.51090357"><ele>181.8</ele><time>2022-11-13T16:48:45.0000000+00:00</time></trkpt><trkpt lat="38.97210321" lon="-0.51089988"><ele>181.4</ele><time>2022-11-13T16:48:46.0000000+00:00</time></trkpt><trkpt lat="38.97211989" lon="-0.51089628"><ele>181.4</ele><time>2022-11-13T16:48:47.0000000+00:00</time></trkpt><trkpt lat="38.97213682" lon="-0.51089108"><ele>181.2</ele><time>2022-11-13T16:48:48.0000000+00:00</time></trkpt><trkpt lat="38.97215132" lon="-0.51088714"><ele>181.0</ele><time>2022-11-13T16:48:49.0000000+00:00</time></trkpt><trkpt lat="38.97216389" lon="-0.5108749"><ele>180.8</ele><time>2022-11-13T16:48:50.0000000+00:00</time></trkpt><trkpt lat="38.97217814" lon="-0.51086334"><ele>180.6</ele><time>2022-11-13T16:48:51.0000000+00:00</time></trkpt><trkpt lat="38.97219222" lon="-0.51086091"><ele>180.6</ele><time>2022-11-13T16:48:52.0000000+00:00</time></trkpt><trkpt lat="38.97220664" lon="-0.51085747"><ele>180.4</ele><time>2022-11-13T16:48:53.0000000+00:00</time></trkpt><trkpt lat="38.97222173" lon="-0.51085194"><ele>180.2</ele><time>2022-11-13T16:48:54.0000000+00:00</time></trkpt><trkpt lat="38.97223681" lon="-0.51085026"><ele>180.2</ele><time>2022-11-13T16:48:55.0000000+00:00</time></trkpt><trkpt lat="38.97224997" lon="-0.51084884"><ele>179.8</ele><time>2022-11-13T16:48:56.0000000+00:00</time></trkpt><trkpt lat="38.97226607" lon="-0.51085311"><ele>179.8</ele><time>2022-11-13T16:48:57.0000000+00:00</time></trkpt><trkpt lat="38.97228182" lon="-0.51085755"><ele>179.4</ele><time>2022-11-13T16:48:58.0000000+00:00</time></trkpt><trkpt lat="38.97229398" lon="-0.51085956"><ele>179.2</ele><time>2022-11-13T16:48:59.0000000+00:00</time></trkpt><trkpt lat="38.97230563" lon="-0.51085713"><ele>179.0</ele><time>2022-11-13T16:49:00.0000000+00:00</time></trkpt><trkpt lat="38.97231644" lon="-0.51085571"><ele>178.6</ele><time>2022-11-13T16:49:01.0000000+00:00</time></trkpt><trkpt lat="38.97232507" lon="-0.51085001"><ele>178.4</ele><time>2022-11-13T16:49:02.0000000+00:00</time></trkpt><trkpt lat="38.97234201" lon="-0.51084464"><ele>178.2</ele><time>2022-11-13T16:49:03.0000000+00:00</time></trkpt><trkpt lat="38.97235198" lon="-0.51084356"><ele>178.0</ele><time>2022-11-13T16:49:04.0000000+00:00</time></trkpt><trkpt lat="38.97236179" lon="-0.51084238"><ele>178.0</ele><time>2022-11-13T16:49:05.0000000+00:00</time></trkpt><trkpt lat="38.97237151" lon="-0.51084121"><ele>177.8</ele><time>2022-11-13T16:49:06.0000000+00:00</time></trkpt><trkpt lat="38.9723835" lon="-0.51084045"><ele>177.8</ele><time>2022-11-13T16:49:07.0000000+00:00</time></trkpt><trkpt lat="38.97239808" lon="-0.51084347"><ele>177.6</ele><time>2022-11-13T16:49:08.0000000+00:00</time></trkpt><trkpt lat="38.97241342" lon="-0.51085026"><ele>177.4</ele><time>2022-11-13T16:49:09.0000000+00:00</time></trkpt><trkpt lat="38.97242641" lon="-0.51085554"><ele>177.2</ele><time>2022-11-13T16:49:10.0000000+00:00</time></trkpt><trkpt lat="38.9724368" lon="-0.51085898"><ele>177.2</ele><time>2022-11-13T16:49:11.0000000+00:00</time></trkpt><trkpt lat="38.97244963" lon="-0.51085454"><ele>177.0</ele><time>2022-11-13T16:49:12.0000000+00:00</time></trkpt><trkpt lat="38.97246346" lon="-0.51085118"><ele>176.8</ele><time>2022-11-13T16:49:13.0000000+00:00</time></trkpt><trkpt lat="38.97248207" lon="-0.51085537"><ele>176.6</ele><time>2022-11-13T16:49:14.0000000+00:00</time></trkpt><trkpt lat="38.97250218" lon="-0.51086074"><ele>176.6</ele><time>2022-11-13T16:49:15.0000000+00:00</time></trkpt><trkpt lat="38.97251844" lon="-0.5108651"><ele>176.4</ele><time>2022-11-13T16:49:16.0000000+00:00</time></trkpt><trkpt lat="38.97253043" lon="-0.51086099"><ele>176.4</ele><time>2022-11-13T16:49:17.0000000+00:00</time></trkpt><trkpt lat="38.97253462" lon="-0.51085495"><ele>176.2</ele><time>2022-11-13T16:49:18.0000000+00:00</time></trkpt><trkpt lat="38.97254284" lon="-0.51084758"><ele>176.0</ele><time>2022-11-13T16:49:19.0000000+00:00</time></trkpt><trkpt lat="38.9725617" lon="-0.51084523"><ele>175.8</ele><time>2022-11-13T16:49:20.0000000+00:00</time></trkpt><trkpt lat="38.97258039" lon="-0.51084682"><ele>175.6</ele><time>2022-11-13T16:49:21.0000000+00:00</time></trkpt><trkpt lat="38.97259824" lon="-0.51084976"><ele>175.2</ele><time>2022-11-13T16:49:22.0000000+00:00</time></trkpt><trkpt lat="38.97261065" lon="-0.51085093"><ele>175.0</ele><time>2022-11-13T16:49:23.0000000+00:00</time></trkpt><trkpt lat="38.97261341" lon="-0.51085554"><ele>174.8</ele><time>2022-11-13T16:49:24.0000000+00:00</time></trkpt><trkpt lat="38.97261609" lon="-0.51085847"><ele>174.6</ele><time>2022-11-13T16:49:25.0000000+00:00</time></trkpt><trkpt lat="38.97261869" lon="-0.5108578"><ele>174.6</ele><time>2022-11-13T16:49:26.0000000+00:00</time></trkpt><trkpt lat="38.97262347" lon="-0.51085085"><ele>174.4</ele><time>2022-11-13T16:49:27.0000000+00:00</time></trkpt><trkpt lat="38.97263009" lon="-0.5108454"><ele>174.2</ele><time>2022-11-13T16:49:28.0000000+00:00</time></trkpt><trkpt lat="38.97264015" lon="-0.51084414"><ele>174.0</ele><time>2022-11-13T16:49:29.0000000+00:00</time></trkpt><trkpt lat="38.97265163" lon="-0.5108433"><ele>173.8</ele><time>2022-11-13T16:49:30.0000000+00:00</time></trkpt><trkpt lat="38.9726575" lon="-0.51083878"><ele>173.8</ele><time>2022-11-13T16:49:31.0000000+00:00</time></trkpt><trkpt lat="38.97266479" lon="-0.51083559"><ele>173.6</ele><time>2022-11-13T16:49:32.0000000+00:00</time></trkpt><trkpt lat="38.97267183" lon="-0.51083232"><ele>173.4</ele><time>2022-11-13T16:49:33.0000000+00:00</time></trkpt><trkpt lat="38.97267787" lon="-0.51082579"><ele>173.2</ele><time>2022-11-13T16:49:34.0000000+00:00</time></trkpt><trkpt lat="38.97268449" lon="-0.51082461"><ele>173.2</ele><time>2022-11-13T16:49:35.0000000+00:00</time></trkpt><trkpt lat="38.97269103" lon="-0.51082403"><ele>173.0</ele><time>2022-11-13T16:49:36.0000000+00:00</time></trkpt><trkpt lat="38.97269782" lon="-0.51082277"><ele>172.8</ele><time>2022-11-13T16:49:37.0000000+00:00</time></trkpt><trkpt lat="38.97270855" lon="-0.5108205"><ele>172.6</ele><time>2022-11-13T16:49:38.0000000+00:00</time></trkpt><trkpt lat="38.97271986" lon="-0.51081388"><ele>172.6</ele><time>2022-11-13T16:49:39.0000000+00:00</time></trkpt><trkpt lat="38.97273051" lon="-0.51080978"><ele>172.4</ele><time>2022-11-13T16:49:40.0000000+00:00</time></trkpt><trkpt lat="38.97274375" lon="-0.51080332"><ele>172.2</ele><time>2022-11-13T16:49:41.0000000+00:00</time></trkpt><trkpt lat="38.97275548" lon="-0.51079603"><ele>172.0</ele><time>2022-11-13T16:49:42.0000000+00:00</time></trkpt><trkpt lat="38.97276596" lon="-0.51079184"><ele>171.8</ele><time>2022-11-13T16:49:43.0000000+00:00</time></trkpt><trkpt lat="38.97277392" lon="-0.51078916"><ele>171.6</ele><time>2022-11-13T16:49:44.0000000+00:00</time></trkpt><trkpt lat="38.97277895" lon="-0.51078773"><ele>171.6</ele><time>2022-11-13T16:49:45.0000000+00:00</time></trkpt><trkpt lat="38.97278834" lon="-0.51078606"><ele>171.6</ele><time>2022-11-13T16:49:46.0000000+00:00</time></trkpt><trkpt lat="38.97279957" lon="-0.51078287"><ele>171.4</ele><time>2022-11-13T16:49:47.0000000+00:00</time></trkpt><trkpt lat="38.97280284" lon="-0.51077331"><ele>171.2</ele><time>2022-11-13T16:49:48.0000000+00:00</time></trkpt><trkpt lat="38.97280913" lon="-0.5107625"><ele>171.2</ele><time>2022-11-13T16:49:49.0000000+00:00</time></trkpt><trkpt lat="38.97281676" lon="-0.51075337"><ele>171.2</ele><time>2022-11-13T16:49:50.0000000+00:00</time></trkpt><trkpt lat="38.97282254" lon="-0.51074549"><ele>171.0</ele><time>2022-11-13T16:49:51.0000000+00:00</time></trkpt><trkpt lat="38.97283495" lon="-0.51074113"><ele>171.0</ele><time>2022-11-13T16:49:52.0000000+00:00</time></trkpt><trkpt lat="38.972844" lon="-0.5107361"><ele>170.8</ele><time>2022-11-13T16:49:53.0000000+00:00</time></trkpt><trkpt lat="38.97285598" lon="-0.51073182"><ele>170.8</ele><time>2022-11-13T16:49:54.0000000+00:00</time></trkpt><trkpt lat="38.97286051" lon="-0.51072923"><ele>170.6</ele><time>2022-11-13T16:49:55.0000000+00:00</time></trkpt><trkpt lat="38.97287048" lon="-0.51072143"><ele>170.4</ele><time>2022-11-13T16:49:56.0000000+00:00</time></trkpt><trkpt lat="38.97288272" lon="-0.51072076"><ele>170.4</ele><time>2022-11-13T16:49:57.0000000+00:00</time></trkpt><trkpt lat="38.97289689" lon="-0.51072202"><ele>170.4</ele><time>2022-11-13T16:49:58.0000000+00:00</time></trkpt><trkpt lat="38.97291566" lon="-0.51072294"><ele>170.2</ele><time>2022-11-13T16:49:59.0000000+00:00</time></trkpt><trkpt lat="38.97293762" lon="-0.51071992"><ele>170.0</ele><time>2022-11-13T16:50:00.0000000+00:00</time></trkpt><trkpt lat="38.97295347" lon="-0.51071246"><ele>170.0</ele><time>2022-11-13T16:50:01.0000000+00:00</time></trkpt><trkpt lat="38.97296679" lon="-0.51070374"><ele>169.8</ele><time>2022-11-13T16:50:02.0000000+00:00</time></trkpt><trkpt lat="38.97297995" lon="-0.51069251"><ele>169.8</ele><time>2022-11-13T16:50:03.0000000+00:00</time></trkpt><trkpt lat="38.97299361" lon="-0.51068313"><ele>169.6</ele><time>2022-11-13T16:50:04.0000000+00:00</time></trkpt><trkpt lat="38.97301063" lon="-0.51068002"><ele>169.6</ele><time>2022-11-13T16:50:05.0000000+00:00</time></trkpt><trkpt lat="38.97302639" lon="-0.51067919"><ele>169.4</ele><time>2022-11-13T16:50:06.0000000+00:00</time></trkpt><trkpt lat="38.97303946" lon="-0.51067935"><ele>169.4</ele><time>2022-11-13T16:50:07.0000000+00:00</time></trkpt><trkpt lat="38.97305329" lon="-0.51068204"><ele>169.4</ele><time>2022-11-13T16:50:08.0000000+00:00</time></trkpt><trkpt lat="38.9730662" lon="-0.51068706"><ele>169.2</ele><time>2022-11-13T16:50:09.0000000+00:00</time></trkpt><trkpt lat="38.97307919" lon="-0.51068857"><ele>169.0</ele><time>2022-11-13T16:50:10.0000000+00:00</time></trkpt><trkpt lat="38.97309721" lon="-0.51069276"><ele>169.0</ele><time>2022-11-13T16:50:11.0000000+00:00</time></trkpt><trkpt lat="38.9731123" lon="-0.51069167"><ele>168.8</ele><time>2022-11-13T16:50:12.0000000+00:00</time></trkpt><trkpt lat="38.97312722" lon="-0.51069117"><ele>168.6</ele><time>2022-11-13T16:50:13.0000000+00:00</time></trkpt><trkpt lat="38.97313552" lon="-0.51069126"><ele>168.4</ele><time>2022-11-13T16:50:14.0000000+00:00</time></trkpt><trkpt lat="38.97314499" lon="-0.51069008"><ele>168.4</ele><time>2022-11-13T16:50:15.0000000+00:00</time></trkpt><trkpt lat="38.97315706" lon="-0.51069134"><ele>168.2</ele><time>2022-11-13T16:50:16.0000000+00:00</time></trkpt><trkpt lat="38.97316896" lon="-0.510691"><ele>168.2</ele><time>2022-11-13T16:50:17.0000000+00:00</time></trkpt><trkpt lat="38.97318103" lon="-0.51068715"><ele>168.2</ele><time>2022-11-13T16:50:18.0000000+00:00</time></trkpt><trkpt lat="38.97319084" lon="-0.51068111"><ele>168.0</ele><time>2022-11-13T16:50:19.0000000+00:00</time></trkpt><trkpt lat="38.9732004" lon="-0.51067902"><ele>168.0</ele><time>2022-11-13T16:50:20.0000000+00:00</time></trkpt><trkpt lat="38.97321045" lon="-0.51067709"><ele>167.8</ele><time>2022-11-13T16:50:21.0000000+00:00</time></trkpt><trkpt lat="38.973219" lon="-0.51067248"><ele>167.4</ele><time>2022-11-13T16:50:22.0000000+00:00</time></trkpt><trkpt lat="38.97322722" lon="-0.5106698"><ele>167.4</ele><time>2022-11-13T16:50:23.0000000+00:00</time></trkpt><trkpt lat="38.97323635" lon="-0.51066678"><ele>167.2</ele><time>2022-11-13T16:50:24.0000000+00:00</time></trkpt><trkpt lat="38.97324759" lon="-0.51066234"><ele>167.2</ele><time>2022-11-13T16:50:25.0000000+00:00</time></trkpt><trkpt lat="38.97325907" lon="-0.51065731"><ele>167.2</ele><time>2022-11-13T16:50:26.0000000+00:00</time></trkpt><trkpt lat="38.97327273" lon="-0.51065362"><ele>167.2</ele><time>2022-11-13T16:50:27.0000000+00:00</time></trkpt><trkpt lat="38.97328279" lon="-0.51064918"><ele>167.0</ele><time>2022-11-13T16:50:28.0000000+00:00</time></trkpt><trkpt lat="38.97329796" lon="-0.51064666"><ele>166.8</ele><time>2022-11-13T16:50:29.0000000+00:00</time></trkpt><trkpt lat="38.97331137" lon="-0.51064172"><ele>166.6</ele><time>2022-11-13T16:50:30.0000000+00:00</time></trkpt><trkpt lat="38.97332738" lon="-0.5106434"><ele>166.4</ele><time>2022-11-13T16:50:31.0000000+00:00</time></trkpt><trkpt lat="38.9733444" lon="-0.51064591"><ele>166.4</ele><time>2022-11-13T16:50:32.0000000+00:00</time></trkpt><trkpt lat="38.97336527" lon="-0.51065496"><ele>166.2</ele><time>2022-11-13T16:50:33.0000000+00:00</time></trkpt><trkpt lat="38.97338228" lon="-0.51066225"><ele>166.0</ele><time>2022-11-13T16:50:34.0000000+00:00</time></trkpt><trkpt lat="38.97339435" lon="-0.51066401"><ele>165.8</ele><time>2022-11-13T16:50:35.0000000+00:00</time></trkpt><trkpt lat="38.97340458" lon="-0.51066469"><ele>165.8</ele><time>2022-11-13T16:50:36.0000000+00:00</time></trkpt><trkpt lat="38.97341564" lon="-0.51066267"><ele>165.6</ele><time>2022-11-13T16:50:37.0000000+00:00</time></trkpt><trkpt lat="38.97342503" lon="-0.5106558"><ele>165.4</ele><time>2022-11-13T16:50:38.0000000+00:00</time></trkpt><trkpt lat="38.97343853" lon="-0.5106465"><ele>165.2</ele><time>2022-11-13T16:50:39.0000000+00:00</time></trkpt><trkpt lat="38.97345462" lon="-0.51064935"><ele>165.2</ele><time>2022-11-13T16:50:40.0000000+00:00</time></trkpt><trkpt lat="38.9734635" lon="-0.51065027"><ele>165.0</ele><time>2022-11-13T16:50:41.0000000+00:00</time></trkpt><trkpt lat="38.97347365" lon="-0.51065278"><ele>165.0</ele><time>2022-11-13T16:50:42.0000000+00:00</time></trkpt><trkpt lat="38.97348203" lon="-0.51064926"><ele>164.8</ele><time>2022-11-13T16:50:43.0000000+00:00</time></trkpt><trkpt lat="38.97349016" lon="-0.51064256"><ele>164.6</ele><time>2022-11-13T16:50:44.0000000+00:00</time></trkpt><trkpt lat="38.97350064" lon="-0.5106392"><ele>164.6</ele><time>2022-11-13T16:50:45.0000000+00:00</time></trkpt><trkpt lat="38.97351505" lon="-0.51063895"><ele>164.4</ele><time>2022-11-13T16:50:46.0000000+00:00</time></trkpt><trkpt lat="38.97353089" lon="-0.51064038"><ele>164.4</ele><time>2022-11-13T16:50:47.0000000+00:00</time></trkpt><trkpt lat="38.97354757" lon="-0.51064071"><ele>164.2</ele><time>2022-11-13T16:50:48.0000000+00:00</time></trkpt><trkpt lat="38.97356107" lon="-0.51064063"><ele>164.2</ele><time>2022-11-13T16:50:49.0000000+00:00</time></trkpt><trkpt lat="38.97357599" lon="-0.51064071"><ele>164.0</ele><time>2022-11-13T16:50:50.0000000+00:00</time></trkpt><trkpt lat="38.97358915" lon="-0.51063895"><ele>163.8</ele><time>2022-11-13T16:50:51.0000000+00:00</time></trkpt><trkpt lat="38.97360206" lon="-0.51063895"><ele>163.6</ele><time>2022-11-13T16:50:52.0000000+00:00</time></trkpt><trkpt lat="38.97361865" lon="-0.51064029"><ele>163.6</ele><time>2022-11-13T16:50:53.0000000+00:00</time></trkpt><trkpt lat="38.97363458" lon="-0.51063996"><ele>163.4</ele><time>2022-11-13T16:50:54.0000000+00:00</time></trkpt><trkpt lat="38.97364514" lon="-0.51064138"><ele>163.4</ele><time>2022-11-13T16:50:55.0000000+00:00</time></trkpt><trkpt lat="38.97365495" lon="-0.51063828"><ele>163.4</ele><time>2022-11-13T16:50:56.0000000+00:00</time></trkpt><trkpt lat="38.97366459" lon="-0.51063585"><ele>163.2</ele><time>2022-11-13T16:50:57.0000000+00:00</time></trkpt><trkpt lat="38.97367515" lon="-0.51063342"><ele>163.2</ele><time>2022-11-13T16:50:58.0000000+00:00</time></trkpt><trkpt lat="38.97368588" lon="-0.51063091"><ele>163.2</ele><time>2022-11-13T16:50:59.0000000+00:00</time></trkpt><trkpt lat="38.97369803" lon="-0.51062856"><ele>163.2</ele><time>2022-11-13T16:51:00.0000000+00:00</time></trkpt><trkpt lat="38.97371002" lon="-0.51062915"><ele>163.0</ele><time>2022-11-13T16:51:01.0000000+00:00</time></trkpt><trkpt lat="38.97372351" lon="-0.51062797"><ele>163.0</ele><time>2022-11-13T16:51:02.0000000+00:00</time></trkpt><trkpt lat="38.97373508" lon="-0.51062646"><ele>162.8</ele><time>2022-11-13T16:51:03.0000000+00:00</time></trkpt><trkpt lat="38.97374866" lon="-0.51062621"><ele>162.8</ele><time>2022-11-13T16:51:04.0000000+00:00</time></trkpt><trkpt lat="38.97375821" lon="-0.51062672"><ele>162.8</ele><time>2022-11-13T16:51:05.0000000+00:00</time></trkpt><trkpt lat="38.97377104" lon="-0.51063015"><ele>162.6</ele><time>2022-11-13T16:51:06.0000000+00:00</time></trkpt><trkpt lat="38.97378227" lon="-0.51062906"><ele>162.6</ele><time>2022-11-13T16:51:07.0000000+00:00</time></trkpt><trkpt lat="38.97378587" lon="-0.51062646"><ele>162.4</ele><time>2022-11-13T16:51:08.0000000+00:00</time></trkpt><trkpt lat="38.97378788" lon="-0.51062504"><ele>162.4</ele><time>2022-11-13T16:51:09.0000000+00:00</time></trkpt><trkpt lat="38.9737935" lon="-0.51062621"><ele>162.4</ele><time>2022-11-13T16:51:10.0000000+00:00</time></trkpt><trkpt lat="38.97380021" lon="-0.51062663"><ele>162.4</ele><time>2022-11-13T16:51:11.0000000+00:00</time></trkpt><trkpt lat="38.97381169" lon="-0.51062378"><ele>162.4</ele><time>2022-11-13T16:51:12.0000000+00:00</time></trkpt><trkpt lat="38.97382418" lon="-0.51062143"><ele>162.2</ele><time>2022-11-13T16:51:13.0000000+00:00</time></trkpt><trkpt lat="38.97383507" lon="-0.51061959"><ele>162.2</ele><time>2022-11-13T16:51:14.0000000+00:00</time></trkpt><trkpt lat="38.97384689" lon="-0.51061867"><ele>162.0</ele><time>2022-11-13T16:51:15.0000000+00:00</time></trkpt><trkpt lat="38.9738634" lon="-0.51061641"><ele>162.0</ele><time>2022-11-13T16:51:16.0000000+00:00</time></trkpt><trkpt lat="38.97387581" lon="-0.51061867"><ele>162.0</ele><time>2022-11-13T16:51:17.0000000+00:00</time></trkpt><trkpt lat="38.97388981" lon="-0.51061783"><ele>161.8</ele><time>2022-11-13T16:51:18.0000000+00:00</time></trkpt><trkpt lat="38.97390381" lon="-0.5106175"><ele>161.8</ele><time>2022-11-13T16:51:19.0000000+00:00</time></trkpt><trkpt lat="38.97391277" lon="-0.51061959"><ele>161.6</ele><time>2022-11-13T16:51:20.0000000+00:00</time></trkpt><trkpt lat="38.97392669" lon="-0.51061817"><ele>161.4</ele><time>2022-11-13T16:51:21.0000000+00:00</time></trkpt><trkpt lat="38.97393733" lon="-0.51061465"><ele>161.4</ele><time>2022-11-13T16:51:22.0000000+00:00</time></trkpt><trkpt lat="38.97394513" lon="-0.51061372"><ele>161.4</ele><time>2022-11-13T16:51:23.0000000+00:00</time></trkpt><trkpt lat="38.97395443" lon="-0.5106133"><ele>161.4</ele><time>2022-11-13T16:51:24.0000000+00:00</time></trkpt><trkpt lat="38.97397103" lon="-0.51061196"><ele>161.2</ele><time>2022-11-13T16:51:25.0000000+00:00</time></trkpt><trkpt lat="38.9739857" lon="-0.51061297"><ele>161.2</ele><time>2022-11-13T16:51:26.0000000+00:00</time></trkpt><trkpt lat="38.97400213" lon="-0.51061682"><ele>161.2</ele><time>2022-11-13T16:51:27.0000000+00:00</time></trkpt><trkpt lat="38.97401671" lon="-0.51061465"><ele>161.0</ele><time>2022-11-13T16:51:28.0000000+00:00</time></trkpt><trkpt lat="38.97402928" lon="-0.51061012"><ele>161.0</ele><time>2022-11-13T16:51:29.0000000+00:00</time></trkpt><trkpt lat="38.97404152" lon="-0.51060543"><ele>160.8</ele><time>2022-11-13T16:51:30.0000000+00:00</time></trkpt><trkpt lat="38.97405661" lon="-0.51060299"><ele>160.8</ele><time>2022-11-13T16:51:31.0000000+00:00</time></trkpt><trkpt lat="38.97407304" lon="-0.51060199"><ele>160.8</ele><time>2022-11-13T16:51:32.0000000+00:00</time></trkpt><trkpt lat="38.97408863" lon="-0.51060299"><ele>160.8</ele><time>2022-11-13T16:51:33.0000000+00:00</time></trkpt><trkpt lat="38.97410371" lon="-0.51060224"><ele>160.8</ele><time>2022-11-13T16:51:34.0000000+00:00</time></trkpt><trkpt lat="38.97411235" lon="-0.51060325"><ele>160.6</ele><time>2022-11-13T16:51:35.0000000+00:00</time></trkpt><trkpt lat="38.97412743" lon="-0.51060392"><ele>160.6</ele><time>2022-11-13T16:51:36.0000000+00:00</time></trkpt><trkpt lat="38.97413733" lon="-0.51060157"><ele>160.4</ele><time>2022-11-13T16:51:37.0000000+00:00</time></trkpt><trkpt lat="38.97414395" lon="-0.51059998"><ele>160.4</ele><time>2022-11-13T16:51:38.0000000+00:00</time></trkpt><trkpt lat="38.97415074" lon="-0.51059847"><ele>160.4</ele><time>2022-11-13T16:51:39.0000000+00:00</time></trkpt><trkpt lat="38.97416063" lon="-0.51058967"><ele>160.4</ele><time>2022-11-13T16:51:40.0000000+00:00</time></trkpt><trkpt lat="38.97417756" lon="-0.51058204"><ele>160.2</ele><time>2022-11-13T16:51:41.0000000+00:00</time></trkpt><trkpt lat="38.97419156" lon="-0.51057718"><ele>160.0</ele><time>2022-11-13T16:51:42.0000000+00:00</time></trkpt><trkpt lat="38.97420161" lon="-0.51056896"><ele>160.0</ele><time>2022-11-13T16:51:43.0000000+00:00</time></trkpt><trkpt lat="38.97420941" lon="-0.51056377"><ele>159.8</ele><time>2022-11-13T16:51:44.0000000+00:00</time></trkpt><trkpt lat="38.97421989" lon="-0.51056192"><ele>159.6</ele><time>2022-11-13T16:51:45.0000000+00:00</time></trkpt><trkpt lat="38.97422936" lon="-0.51055664"><ele>159.6</ele><time>2022-11-13T16:51:46.0000000+00:00</time></trkpt><trkpt lat="38.97424235" lon="-0.51054868"><ele>159.4</ele><time>2022-11-13T16:51:47.0000000+00:00</time></trkpt><trkpt lat="38.974254" lon="-0.51054189"><ele>159.4</ele><time>2022-11-13T16:51:48.0000000+00:00</time></trkpt><trkpt lat="38.97426406" lon="-0.5105341"><ele>159.2</ele><time>2022-11-13T16:51:49.0000000+00:00</time></trkpt><trkpt lat="38.9742789" lon="-0.51053451"><ele>159.0</ele><time>2022-11-13T16:51:50.0000000+00:00</time></trkpt><trkpt lat="38.97429457" lon="-0.51053518"><ele>159.0</ele><time>2022-11-13T16:51:51.0000000+00:00</time></trkpt><trkpt lat="38.97430521" lon="-0.51054005"><ele>158.8</ele><time>2022-11-13T16:51:52.0000000+00:00</time></trkpt><trkpt lat="38.97431611" lon="-0.5105434"><ele>158.8</ele><time>2022-11-13T16:51:53.0000000+00:00</time></trkpt><trkpt lat="38.97432257" lon="-0.51053309"><ele>158.8</ele><time>2022-11-13T16:51:54.0000000+00:00</time></trkpt><trkpt lat="38.97433162" lon="-0.51052538"><ele>158.6</ele><time>2022-11-13T16:51:55.0000000+00:00</time></trkpt><trkpt lat="38.97434008" lon="-0.51051959"><ele>158.6</ele><time>2022-11-13T16:51:56.0000000+00:00</time></trkpt><trkpt lat="38.97435182" lon="-0.5105123"><ele>158.4</ele><time>2022-11-13T16:51:57.0000000+00:00</time></trkpt><trkpt lat="38.97436263" lon="-0.51050803"><ele>158.2</ele><time>2022-11-13T16:51:58.0000000+00:00</time></trkpt><trkpt lat="38.97437504" lon="-0.51050308"><ele>158.0</ele><time>2022-11-13T16:51:59.0000000+00:00</time></trkpt><trkpt lat="38.97438367" lon="-0.51049587"><ele>158.0</ele><time>2022-11-13T16:52:00.0000000+00:00</time></trkpt><trkpt lat="38.97438861" lon="-0.51047777"><ele>158.0</ele><time>2022-11-13T16:52:01.0000000+00:00</time></trkpt><trkpt lat="38.97439599" lon="-0.5104631"><ele>158.0</ele><time>2022-11-13T16:52:02.0000000+00:00</time></trkpt><trkpt lat="38.97440781" lon="-0.51045522"><ele>157.8</ele><time>2022-11-13T16:52:03.0000000+00:00</time></trkpt><trkpt lat="38.9744182" lon="-0.51045078"><ele>157.8</ele><time>2022-11-13T16:52:04.0000000+00:00</time></trkpt><trkpt lat="38.9744291" lon="-0.51044391"><ele>157.8</ele><time>2022-11-13T16:52:05.0000000+00:00</time></trkpt><trkpt lat="38.97444125" lon="-0.51043779"><ele>157.6</ele><time>2022-11-13T16:52:06.0000000+00:00</time></trkpt><trkpt lat="38.97445039" lon="-0.51042907"><ele>157.6</ele><time>2022-11-13T16:52:07.0000000+00:00</time></trkpt><trkpt lat="38.97446078" lon="-0.51042463"><ele>157.4</ele><time>2022-11-13T16:52:08.0000000+00:00</time></trkpt><trkpt lat="38.97447118" lon="-0.51041725"><ele>157.4</ele><time>2022-11-13T16:52:09.0000000+00:00</time></trkpt><trkpt lat="38.97448191" lon="-0.51040929"><ele>157.4</ele><time>2022-11-13T16:52:10.0000000+00:00</time></trkpt><trkpt lat="38.97449775" lon="-0.51039437"><ele>157.4</ele><time>2022-11-13T16:52:11.0000000+00:00</time></trkpt><trkpt lat="38.97451024" lon="-0.51038465"><ele>157.4</ele><time>2022-11-13T16:52:12.0000000+00:00</time></trkpt><trkpt lat="38.97452164" lon="-0.51037962"><ele>157.4</ele><time>2022-11-13T16:52:13.0000000+00:00</time></trkpt><trkpt lat="38.97453253" lon="-0.51037467"><ele>157.4</ele><time>2022-11-13T16:52:14.0000000+00:00</time></trkpt><trkpt lat="38.97454259" lon="-0.51036629"><ele>157.2</ele><time>2022-11-13T16:52:15.0000000+00:00</time></trkpt><trkpt lat="38.97455407" lon="-0.51035782"><ele>157.0</ele><time>2022-11-13T16:52:16.0000000+00:00</time></trkpt><trkpt lat="38.97456698" lon="-0.51035372"><ele>156.8</ele><time>2022-11-13T16:52:17.0000000+00:00</time></trkpt><trkpt lat="38.97457947" lon="-0.5103517"><ele>156.6</ele><time>2022-11-13T16:52:18.0000000+00:00</time></trkpt><trkpt lat="38.97458953" lon="-0.51035129"><ele>156.4</ele><time>2022-11-13T16:52:19.0000000+00:00</time></trkpt><trkpt lat="38.97460445" lon="-0.51035087"><ele>156.2</ele><time>2022-11-13T16:52:20.0000000+00:00</time></trkpt><trkpt lat="38.97460956" lon="-0.51035003"><ele>156.2</ele><time>2022-11-13T16:52:21.0000000+00:00</time></trkpt><trkpt lat="38.97461736" lon="-0.51034768"><ele>156.0</ele><time>2022-11-13T16:52:22.0000000+00:00</time></trkpt><trkpt lat="38.97462624" lon="-0.51034718"><ele>156.0</ele><time>2022-11-13T16:52:23.0000000+00:00</time></trkpt><trkpt lat="38.9746363" lon="-0.51035112"><ele>155.8</ele><time>2022-11-13T16:52:24.0000000+00:00</time></trkpt><trkpt lat="38.97464426" lon="-0.51035263"><ele>155.8</ele><time>2022-11-13T16:52:25.0000000+00:00</time></trkpt><trkpt lat="38.97465323" lon="-0.51035129"><ele>155.6</ele><time>2022-11-13T16:52:26.0000000+00:00</time></trkpt><trkpt lat="38.97465943" lon="-0.51034919"><ele>155.6</ele><time>2022-11-13T16:52:27.0000000+00:00</time></trkpt><trkpt lat="38.97466865" lon="-0.51034919"><ele>155.4</ele><time>2022-11-13T16:52:28.0000000+00:00</time></trkpt><trkpt lat="38.97467502" lon="-0.51035313"><ele>155.4</ele><time>2022-11-13T16:52:29.0000000+00:00</time></trkpt><trkpt lat="38.97468156" lon="-0.51035833"><ele>155.2</ele><time>2022-11-13T16:52:30.0000000+00:00</time></trkpt><trkpt lat="38.97469246" lon="-0.51036235"><ele>155.0</ele><time>2022-11-13T16:52:31.0000000+00:00</time></trkpt><trkpt lat="38.9747026" lon="-0.51036252"><ele>155.0</ele><time>2022-11-13T16:52:32.0000000+00:00</time></trkpt><trkpt lat="38.97471132" lon="-0.51036302"><ele>155.0</ele><time>2022-11-13T16:52:33.0000000+00:00</time></trkpt><trkpt lat="38.97472557" lon="-0.51036051"><ele>155.0</ele><time>2022-11-13T16:52:34.0000000+00:00</time></trkpt><trkpt lat="38.97473772" lon="-0.5103538"><ele>155.0</ele><time>2022-11-13T16:52:35.0000000+00:00</time></trkpt><trkpt lat="38.9747508" lon="-0.51034718"><ele>155.4</ele><time>2022-11-13T16:52:36.0000000+00:00</time></trkpt><trkpt lat="38.97476882" lon="-0.51034207"><ele>155.4</ele><time>2022-11-13T16:52:37.0000000+00:00</time></trkpt><trkpt lat="38.97477913" lon="-0.5103398"><ele>155.4</ele><time>2022-11-13T16:52:38.0000000+00:00</time></trkpt><trkpt lat="38.97479128" lon="-0.51034114"><ele>155.6</ele><time>2022-11-13T16:52:39.0000000+00:00</time></trkpt><trkpt lat="38.97480008" lon="-0.51034391"><ele>155.6</ele><time>2022-11-13T16:52:40.0000000+00:00</time></trkpt><trkpt lat="38.9748083" lon="-0.51034466"><ele>155.4</ele><time>2022-11-13T16:52:41.0000000+00:00</time></trkpt><trkpt lat="38.97481802" lon="-0.51033528"><ele>155.4</ele><time>2022-11-13T16:52:42.0000000+00:00</time></trkpt><trkpt lat="38.97482875" lon="-0.51032505"><ele>155.2</ele><time>2022-11-13T16:52:43.0000000+00:00</time></trkpt><trkpt lat="38.97483772" lon="-0.51032069"><ele>155.0</ele><time>2022-11-13T16:52:44.0000000+00:00</time></trkpt><trkpt lat="38.97484635" lon="-0.51031457"><ele>155.0</ele><time>2022-11-13T16:52:45.0000000+00:00</time></trkpt><trkpt lat="38.974857" lon="-0.51031524"><ele>155.0</ele><time>2022-11-13T16:52:46.0000000+00:00</time></trkpt><trkpt lat="38.97487217" lon="-0.51031533"><ele>154.8</ele><time>2022-11-13T16:52:47.0000000+00:00</time></trkpt><trkpt lat="38.97488784" lon="-0.51031189"><ele>154.8</ele><time>2022-11-13T16:52:48.0000000+00:00</time></trkpt><trkpt lat="38.97489924" lon="-0.5103139"><ele>154.8</ele><time>2022-11-13T16:52:49.0000000+00:00</time></trkpt><trkpt lat="38.9749129" lon="-0.51031156"><ele>154.8</ele><time>2022-11-13T16:52:50.0000000+00:00</time></trkpt><trkpt lat="38.9749233" lon="-0.5103113"><ele>154.8</ele><time>2022-11-13T16:52:51.0000000+00:00</time></trkpt><trkpt lat="38.9749378" lon="-0.51031114"><ele>155.0</ele><time>2022-11-13T16:52:52.0000000+00:00</time></trkpt><trkpt lat="38.97495288" lon="-0.51031851"><ele>155.0</ele><time>2022-11-13T16:52:53.0000000+00:00</time></trkpt><trkpt lat="38.97496739" lon="-0.51032178"><ele>155.0</ele><time>2022-11-13T16:52:54.0000000+00:00</time></trkpt><trkpt lat="38.97498599" lon="-0.51032279"><ele>155.0</ele><time>2022-11-13T16:52:55.0000000+00:00</time></trkpt><trkpt lat="38.97500209" lon="-0.51032773"><ele>155.0</ele><time>2022-11-13T16:52:56.0000000+00:00</time></trkpt><trkpt lat="38.97501994" lon="-0.51033176"><ele>155.0</ele><time>2022-11-13T16:52:57.0000000+00:00</time></trkpt><trkpt lat="38.97503754" lon="-0.51032958"><ele>155.2</ele><time>2022-11-13T16:52:58.0000000+00:00</time></trkpt><trkpt lat="38.97505246" lon="-0.51033184"><ele>155.2</ele><time>2022-11-13T16:52:59.0000000+00:00</time></trkpt><trkpt lat="38.97506671" lon="-0.51033276"><ele>155.2</ele><time>2022-11-13T16:53:00.0000000+00:00</time></trkpt><trkpt lat="38.97507836" lon="-0.51033343"><ele>155.2</ele><time>2022-11-13T16:53:01.0000000+00:00</time></trkpt><trkpt lat="38.97509705" lon="-0.5103367"><ele>155.2</ele><time>2022-11-13T16:53:02.0000000+00:00</time></trkpt><trkpt lat="38.97510644" lon="-0.5103414"><ele>155.2</ele><time>2022-11-13T16:53:03.0000000+00:00</time></trkpt><trkpt lat="38.97511583" lon="-0.51034592"><ele>155.4</ele><time>2022-11-13T16:53:04.0000000+00:00</time></trkpt><trkpt lat="38.97512538" lon="-0.51034735"><ele>155.4</ele><time>2022-11-13T16:53:05.0000000+00:00</time></trkpt><trkpt lat="38.97513435" lon="-0.51034743"><ele>155.6</ele><time>2022-11-13T16:53:06.0000000+00:00</time></trkpt><trkpt lat="38.97514215" lon="-0.51034433"><ele>155.6</ele><time>2022-11-13T16:53:07.0000000+00:00</time></trkpt><trkpt lat="38.97515237" lon="-0.5103398"><ele>155.8</ele><time>2022-11-13T16:53:08.0000000+00:00</time></trkpt><trkpt lat="38.97516537" lon="-0.51033477"><ele>155.8</ele><time>2022-11-13T16:53:09.0000000+00:00</time></trkpt><trkpt lat="38.97517727" lon="-0.51032916"><ele>156.0</ele><time>2022-11-13T16:53:10.0000000+00:00</time></trkpt><trkpt lat="38.97519244" lon="-0.51033125"><ele>156.0</ele><time>2022-11-13T16:53:11.0000000+00:00</time></trkpt><trkpt lat="38.97520904" lon="-0.51033494"><ele>156.2</ele><time>2022-11-13T16:53:12.0000000+00:00</time></trkpt><trkpt lat="38.97522387" lon="-0.51033544"><ele>156.4</ele><time>2022-11-13T16:53:13.0000000+00:00</time></trkpt><trkpt lat="38.97523494" lon="-0.51033326"><ele>156.4</ele><time>2022-11-13T16:53:14.0000000+00:00</time></trkpt><trkpt lat="38.9752481" lon="-0.51033276"><ele>156.6</ele><time>2022-11-13T16:53:15.0000000+00:00</time></trkpt><trkpt lat="38.97525723" lon="-0.51033058"><ele>156.8</ele><time>2022-11-13T16:53:16.0000000+00:00</time></trkpt><trkpt lat="38.97526729" lon="-0.51032748"><ele>156.8</ele><time>2022-11-13T16:53:17.0000000+00:00</time></trkpt><trkpt lat="38.97528816" lon="-0.51033276"><ele>157.0</ele><time>2022-11-13T16:53:18.0000000+00:00</time></trkpt><trkpt lat="38.97530476" lon="-0.51033377"><ele>157.0</ele><time>2022-11-13T16:53:19.0000000+00:00</time></trkpt><trkpt lat="38.97531875" lon="-0.51033461"><ele>157.2</ele><time>2022-11-13T16:53:20.0000000+00:00</time></trkpt><trkpt lat="38.97532948" lon="-0.5103341"><ele>157.4</ele><time>2022-11-13T16:53:21.0000000+00:00</time></trkpt><trkpt lat="38.97533652" lon="-0.51033176"><ele>157.6</ele><time>2022-11-13T16:53:22.0000000+00:00</time></trkpt><trkpt lat="38.97534331" lon="-0.51032966"><ele>157.8</ele><time>2022-11-13T16:53:23.0000000+00:00</time></trkpt><trkpt lat="38.97535136" lon="-0.51033109"><ele>158.0</ele><time>2022-11-13T16:53:24.0000000+00:00</time></trkpt><trkpt lat="38.97536117" lon="-0.51033637"><ele>158.2</ele><time>2022-11-13T16:53:25.0000000+00:00</time></trkpt><trkpt lat="38.9753724" lon="-0.51034081"><ele>158.4</ele><time>2022-11-13T16:53:26.0000000+00:00</time></trkpt><trkpt lat="38.97538438" lon="-0.51034492"><ele>158.6</ele><time>2022-11-13T16:53:27.0000000+00:00</time></trkpt><trkpt lat="38.97539654" lon="-0.51034701"><ele>158.8</ele><time>2022-11-13T16:53:28.0000000+00:00</time></trkpt><trkpt lat="38.97540928" lon="-0.51034676"><ele>159.0</ele><time>2022-11-13T16:53:29.0000000+00:00</time></trkpt><trkpt lat="38.97543501" lon="-0.51033176"><ele>159.2</ele><time>2022-11-13T16:53:30.0000000+00:00</time></trkpt><trkpt lat="38.97545781" lon="-0.51031617"><ele>159.4</ele><time>2022-11-13T16:53:31.0000000+00:00</time></trkpt><trkpt lat="38.97547416" lon="-0.51030954"><ele>159.4</ele><time>2022-11-13T16:53:32.0000000+00:00</time></trkpt><trkpt lat="38.9754869" lon="-0.51031642"><ele>159.8</ele><time>2022-11-13T16:53:33.0000000+00:00</time></trkpt><trkpt lat="38.97549377" lon="-0.51032262"><ele>160.0</ele><time>2022-11-13T16:53:34.0000000+00:00</time></trkpt><trkpt lat="38.97550047" lon="-0.51032782"><ele>160.4</ele><time>2022-11-13T16:53:35.0000000+00:00</time></trkpt><trkpt lat="38.97550601" lon="-0.51033394"><ele>160.4</ele><time>2022-11-13T16:53:36.0000000+00:00</time></trkpt><trkpt lat="38.97551171" lon="-0.51033536"><ele>160.6</ele><time>2022-11-13T16:53:37.0000000+00:00</time></trkpt><trkpt lat="38.97552218" lon="-0.51033863"><ele>160.8</ele><time>2022-11-13T16:53:38.0000000+00:00</time></trkpt><trkpt lat="38.97553585" lon="-0.51034441"><ele>160.8</ele><time>2022-11-13T16:53:39.0000000+00:00</time></trkpt><trkpt lat="38.97554188" lon="-0.51034466"><ele>161.4</ele><time>2022-11-13T16:53:40.0000000+00:00</time></trkpt><trkpt lat="38.97555144" lon="-0.51035129"><ele>161.6</ele><time>2022-11-13T16:53:41.0000000+00:00</time></trkpt><trkpt lat="38.97555747" lon="-0.51035296"><ele>161.8</ele><time>2022-11-13T16:53:42.0000000+00:00</time></trkpt><trkpt lat="38.97556527" lon="-0.51036067"><ele>162.0</ele><time>2022-11-13T16:53:43.0000000+00:00</time></trkpt><trkpt lat="38.97557776" lon="-0.51036939"><ele>162.2</ele><time>2022-11-13T16:53:44.0000000+00:00</time></trkpt><trkpt lat="38.97558957" lon="-0.51037626"><ele>162.2</ele><time>2022-11-13T16:53:45.0000000+00:00</time></trkpt><trkpt lat="38.97559913" lon="-0.51038129"><ele>162.2</ele><time>2022-11-13T16:53:46.0000000+00:00</time></trkpt><trkpt lat="38.97561363" lon="-0.51038666"><ele>162.4</ele><time>2022-11-13T16:53:47.0000000+00:00</time></trkpt><trkpt lat="38.97562134" lon="-0.51039504"><ele>162.6</ele><time>2022-11-13T16:53:48.0000000+00:00</time></trkpt><trkpt lat="38.97563148" lon="-0.51039973"><ele>162.8</ele><time>2022-11-13T16:53:49.0000000+00:00</time></trkpt><trkpt lat="38.97564414" lon="-0.51040795"><ele>163.0</ele><time>2022-11-13T16:53:50.0000000+00:00</time></trkpt><trkpt lat="38.97565328" lon="-0.51041675"><ele>163.2</ele><time>2022-11-13T16:53:51.0000000+00:00</time></trkpt><trkpt lat="38.97566166" lon="-0.51042077"><ele>163.4</ele><time>2022-11-13T16:53:52.0000000+00:00</time></trkpt><trkpt lat="38.9756687" lon="-0.5104253"><ele>163.6</ele><time>2022-11-13T16:53:53.0000000+00:00</time></trkpt><trkpt lat="38.97567683" lon="-0.51042438"><ele>163.6</ele><time>2022-11-13T16:53:54.0000000+00:00</time></trkpt><trkpt lat="38.97568915" lon="-0.51042664"><ele>163.8</ele><time>2022-11-13T16:53:55.0000000+00:00</time></trkpt><trkpt lat="38.97569862" lon="-0.51042429"><ele>164.0</ele><time>2022-11-13T16:53:56.0000000+00:00</time></trkpt><trkpt lat="38.9757091" lon="-0.51042052"><ele>164.0</ele><time>2022-11-13T16:53:57.0000000+00:00</time></trkpt><trkpt lat="38.97572268" lon="-0.51041625"><ele>164.2</ele><time>2022-11-13T16:53:58.0000000+00:00</time></trkpt><trkpt lat="38.97573131" lon="-0.51041633"><ele>164.4</ele><time>2022-11-13T16:53:59.0000000+00:00</time></trkpt><trkpt lat="38.97574447" lon="-0.51042329"><ele>164.6</ele><time>2022-11-13T16:54:00.0000000+00:00</time></trkpt><trkpt lat="38.97576258" lon="-0.51042496"><ele>164.6</ele><time>2022-11-13T16:54:01.0000000+00:00</time></trkpt><trkpt lat="38.97577674" lon="-0.51042228"><ele>164.8</ele><time>2022-11-13T16:54:02.0000000+00:00</time></trkpt><trkpt lat="38.97578504" lon="-0.51041465"><ele>165.0</ele><time>2022-11-13T16:54:03.0000000+00:00</time></trkpt><trkpt lat="38.975793" lon="-0.51041164"><ele>165.2</ele><time>2022-11-13T16:54:04.0000000+00:00</time></trkpt><trkpt lat="38.97579946" lon="-0.51041021"><ele>165.4</ele><time>2022-11-13T16:54:05.0000000+00:00</time></trkpt><trkpt lat="38.97580667" lon="-0.51040627"><ele>165.6</ele><time>2022-11-13T16:54:06.0000000+00:00</time></trkpt><trkpt lat="38.97581371" lon="-0.51040476"><ele>165.6</ele><time>2022-11-13T16:54:07.0000000+00:00</time></trkpt><trkpt lat="38.97582469" lon="-0.51040367"><ele>165.8</ele><time>2022-11-13T16:54:08.0000000+00:00</time></trkpt><trkpt lat="38.9758324" lon="-0.51040141"><ele>165.8</ele><time>2022-11-13T16:54:09.0000000+00:00</time></trkpt><trkpt lat="38.975835" lon="-0.51039311"><ele>166.0</ele><time>2022-11-13T16:54:10.0000000+00:00</time></trkpt><trkpt lat="38.97583944" lon="-0.51038599"><ele>166.2</ele><time>2022-11-13T16:54:11.0000000+00:00</time></trkpt><trkpt lat="38.97584556" lon="-0.51037995"><ele>166.2</ele><time>2022-11-13T16:54:12.0000000+00:00</time></trkpt><trkpt lat="38.97585067" lon="-0.51037652"><ele>166.4</ele><time>2022-11-13T16:54:13.0000000+00:00</time></trkpt><trkpt lat="38.9758588" lon="-0.51037425"><ele>166.6</ele><time>2022-11-13T16:54:14.0000000+00:00</time></trkpt><trkpt lat="38.97586785" lon="-0.51037325"><ele>166.8</ele><time>2022-11-13T16:54:15.0000000+00:00</time></trkpt><trkpt lat="38.97587431" lon="-0.51037333"><ele>167.0</ele><time>2022-11-13T16:54:16.0000000+00:00</time></trkpt><trkpt lat="38.9758785" lon="-0.51037593"><ele>167.2</ele><time>2022-11-13T16:54:17.0000000+00:00</time></trkpt><trkpt lat="38.97589124" lon="-0.51038071"><ele>167.4</ele><time>2022-11-13T16:54:18.0000000+00:00</time></trkpt><trkpt lat="38.97590138" lon="-0.5103823"><ele>167.8</ele><time>2022-11-13T16:54:19.0000000+00:00</time></trkpt><trkpt lat="38.97591563" lon="-0.51038339"><ele>167.8</ele><time>2022-11-13T16:54:20.0000000+00:00</time></trkpt><trkpt lat="38.97593005" lon="-0.51038699"><ele>168.0</ele><time>2022-11-13T16:54:21.0000000+00:00</time></trkpt><trkpt lat="38.97593969" lon="-0.51038984"><ele>168.2</ele><time>2022-11-13T16:54:22.0000000+00:00</time></trkpt><trkpt lat="38.97595377" lon="-0.51039227"><ele>168.2</ele><time>2022-11-13T16:54:23.0000000+00:00</time></trkpt><trkpt lat="38.97596642" lon="-0.51039252"><ele>168.4</ele><time>2022-11-13T16:54:24.0000000+00:00</time></trkpt><trkpt lat="38.97597573" lon="-0.51038976"><ele>168.4</ele><time>2022-11-13T16:54:25.0000000+00:00</time></trkpt><trkpt lat="38.97598495" lon="-0.51038909"><ele>168.6</ele><time>2022-11-13T16:54:26.0000000+00:00</time></trkpt><trkpt lat="38.97599677" lon="-0.51038674"><ele>168.8</ele><time>2022-11-13T16:54:27.0000000+00:00</time></trkpt><trkpt lat="38.97600716" lon="-0.51038096"><ele>168.8</ele><time>2022-11-13T16:54:28.0000000+00:00</time></trkpt><trkpt lat="38.97602275" lon="-0.51037425"><ele>169.0</ele><time>2022-11-13T16:54:29.0000000+00:00</time></trkpt><trkpt lat="38.97603884" lon="-0.51036964"><ele>169.0</ele><time>2022-11-13T16:54:30.0000000+00:00</time></trkpt><trkpt lat="38.97605552" lon="-0.51036889"><ele>169.2</ele><time>2022-11-13T16:54:31.0000000+00:00</time></trkpt><trkpt lat="38.97606743" lon="-0.51036662"><ele>169.2</ele><time>2022-11-13T16:54:32.0000000+00:00</time></trkpt><trkpt lat="38.97608033" lon="-0.51036428"><ele>169.4</ele><time>2022-11-13T16:54:33.0000000+00:00</time></trkpt><trkpt lat="38.97609484" lon="-0.51035606"><ele>169.6</ele><time>2022-11-13T16:54:34.0000000+00:00</time></trkpt><trkpt lat="38.97611017" lon="-0.51034978"><ele>169.6</ele><time>2022-11-13T16:54:35.0000000+00:00</time></trkpt><trkpt lat="38.9761199" lon="-0.51034492"><ele>169.8</ele><time>2022-11-13T16:54:36.0000000+00:00</time></trkpt><trkpt lat="38.97613155" lon="-0.51034533"><ele>170.0</ele><time>2022-11-13T16:54:37.0000000+00:00</time></trkpt><trkpt lat="38.97614194" lon="-0.51034232"><ele>170.2</ele><time>2022-11-13T16:54:38.0000000+00:00</time></trkpt><trkpt lat="38.97615342" lon="-0.5103388"><ele>170.2</ele><time>2022-11-13T16:54:39.0000000+00:00</time></trkpt><trkpt lat="38.97616751" lon="-0.51033947"><ele>170.4</ele><time>2022-11-13T16:54:40.0000000+00:00</time></trkpt><trkpt lat="38.97617924" lon="-0.51033427"><ele>170.6</ele><time>2022-11-13T16:54:41.0000000+00:00</time></trkpt><trkpt lat="38.97618896" lon="-0.51032924"><ele>170.6</ele><time>2022-11-13T16:54:42.0000000+00:00</time></trkpt><trkpt lat="38.97619651" lon="-0.51032237"><ele>170.8</ele><time>2022-11-13T16:54:43.0000000+00:00</time></trkpt><trkpt lat="38.97620439" lon="-0.5103191"><ele>170.8</ele><time>2022-11-13T16:54:44.0000000+00:00</time></trkpt><trkpt lat="38.97621428" lon="-0.51031818"><ele>171.0</ele><time>2022-11-13T16:54:45.0000000+00:00</time></trkpt><trkpt lat="38.97621713" lon="-0.51031524"><ele>171.0</ele><time>2022-11-13T16:54:46.0000000+00:00</time></trkpt><trkpt lat="38.97622165" lon="-0.5103139"><ele>171.2</ele><time>2022-11-13T16:54:47.0000000+00:00</time></trkpt><trkpt lat="38.97621872" lon="-0.51030602"><ele>171.2</ele><time>2022-11-13T16:54:48.0000000+00:00</time></trkpt><trkpt lat="38.97622115" lon="-0.51029353"><ele>171.4</ele><time>2022-11-13T16:54:49.0000000+00:00</time></trkpt><trkpt lat="38.97622509" lon="-0.51028775"><ele>171.4</ele><time>2022-11-13T16:54:50.0000000+00:00</time></trkpt><trkpt lat="38.97623171" lon="-0.51028121"><ele>171.4</ele><time>2022-11-13T16:54:51.0000000+00:00</time></trkpt><trkpt lat="38.97624588" lon="-0.51027618"><ele>171.4</ele><time>2022-11-13T16:54:52.0000000+00:00</time></trkpt><trkpt lat="38.97625652" lon="-0.51027367"><ele>171.6</ele><time>2022-11-13T16:54:53.0000000+00:00</time></trkpt><trkpt lat="38.97627052" lon="-0.5102642"><ele>171.6</ele><time>2022-11-13T16:54:54.0000000+00:00</time></trkpt><trkpt lat="38.97628251" lon="-0.51025422"><ele>171.8</ele><time>2022-11-13T16:54:55.0000000+00:00</time></trkpt><trkpt lat="38.97629717" lon="-0.51025246"><ele>171.8</ele><time>2022-11-13T16:54:56.0000000+00:00</time></trkpt><trkpt lat="38.97630598" lon="-0.51025171"><ele>172.0</ele><time>2022-11-13T16:54:57.0000000+00:00</time></trkpt><trkpt lat="38.97631712" lon="-0.51025456"><ele>172.2</ele><time>2022-11-13T16:54:58.0000000+00:00</time></trkpt><trkpt lat="38.97633028" lon="-0.51025942"><ele>172.4</ele><time>2022-11-13T16:54:59.0000000+00:00</time></trkpt><trkpt lat="38.97634772" lon="-0.51026328"><ele>172.4</ele><time>2022-11-13T16:55:00.0000000+00:00</time></trkpt><trkpt lat="38.97635937" lon="-0.51026286"><ele>172.6</ele><time>2022-11-13T16:55:01.0000000+00:00</time></trkpt><trkpt lat="38.97636607" lon="-0.51025976"><ele>172.8</ele><time>2022-11-13T16:55:02.0000000+00:00</time></trkpt><trkpt lat="38.97637663" lon="-0.51026093"><ele>173.0</ele><time>2022-11-13T16:55:03.0000000+00:00</time></trkpt><trkpt lat="38.9763887" lon="-0.51026168"><ele>173.2</ele><time>2022-11-13T16:55:04.0000000+00:00</time></trkpt><trkpt lat="38.97640111" lon="-0.51026051"><ele>173.2</ele><time>2022-11-13T16:55:05.0000000+00:00</time></trkpt><trkpt lat="38.97641519" lon="-0.51025548"><ele>173.2</ele><time>2022-11-13T16:55:06.0000000+00:00</time></trkpt><trkpt lat="38.97643145" lon="-0.5102528"><ele>173.4</ele><time>2022-11-13T16:55:07.0000000+00:00</time></trkpt><trkpt lat="38.97644226" lon="-0.51024534"><ele>173.6</ele><time>2022-11-13T16:55:08.0000000+00:00</time></trkpt><trkpt lat="38.97644972" lon="-0.51023612"><ele>173.6</ele><time>2022-11-13T16:55:09.0000000+00:00</time></trkpt><trkpt lat="38.97645953" lon="-0.51022296"><ele>174.0</ele><time>2022-11-13T16:55:10.0000000+00:00</time></trkpt><trkpt lat="38.97647018" lon="-0.5102124"><ele>174.2</ele><time>2022-11-13T16:55:11.0000000+00:00</time></trkpt><trkpt lat="38.97647831" lon="-0.51020494"><ele>174.2</ele><time>2022-11-13T16:55:12.0000000+00:00</time></trkpt><trkpt lat="38.97648652" lon="-0.51019957"><ele>174.4</ele><time>2022-11-13T16:55:13.0000000+00:00</time></trkpt><trkpt lat="38.97649465" lon="-0.51019429"><ele>174.4</ele><time>2022-11-13T16:55:14.0000000+00:00</time></trkpt><trkpt lat="38.97649951" lon="-0.51019153"><ele>174.4</ele><time>2022-11-13T16:55:15.0000000+00:00</time></trkpt><trkpt lat="38.97650613" lon="-0.51018491"><ele>174.6</ele><time>2022-11-13T16:55:16.0000000+00:00</time></trkpt><trkpt lat="38.97651158" lon="-0.51018449"><ele>174.8</ele><time>2022-11-13T16:55:17.0000000+00:00</time></trkpt><trkpt lat="38.97651963" lon="-0.51017912"><ele>175.0</ele><time>2022-11-13T16:55:18.0000000+00:00</time></trkpt><trkpt lat="38.97652885" lon="-0.5101673"><ele>175.2</ele><time>2022-11-13T16:55:19.0000000+00:00</time></trkpt><trkpt lat="38.97653648" lon="-0.5101585"><ele>175.4</ele><time>2022-11-13T16:55:20.0000000+00:00</time></trkpt><trkpt lat="38.97653983" lon="-0.51014576"><ele>175.4</ele><time>2022-11-13T16:55:21.0000000+00:00</time></trkpt><trkpt lat="38.97654779" lon="-0.51013646"><ele>175.8</ele><time>2022-11-13T16:55:22.0000000+00:00</time></trkpt><trkpt lat="38.97655978" lon="-0.51013663"><ele>176.0</ele><time>2022-11-13T16:55:23.0000000+00:00</time></trkpt><trkpt lat="38.976569" lon="-0.51013227"><ele>176.0</ele><time>2022-11-13T16:55:24.0000000+00:00</time></trkpt><trkpt lat="38.97657998" lon="-0.5101331"><ele>176.2</ele><time>2022-11-13T16:55:25.0000000+00:00</time></trkpt><trkpt lat="38.97659213" lon="-0.51012975"><ele>176.4</ele><time>2022-11-13T16:55:26.0000000+00:00</time></trkpt><trkpt lat="38.97660353" lon="-0.51012791"><ele>176.4</ele><time>2022-11-13T16:55:27.0000000+00:00</time></trkpt><trkpt lat="38.97662013" lon="-0.51012305"><ele>176.8</ele><time>2022-11-13T16:55:28.0000000+00:00</time></trkpt><trkpt lat="38.97663178" lon="-0.51011567"><ele>177.0</ele><time>2022-11-13T16:55:29.0000000+00:00</time></trkpt><trkpt lat="38.97664284" lon="-0.51011416"><ele>177.0</ele><time>2022-11-13T16:55:30.0000000+00:00</time></trkpt><trkpt lat="38.97665424" lon="-0.51011684"><ele>177.2</ele><time>2022-11-13T16:55:31.0000000+00:00</time></trkpt><trkpt lat="38.97666983" lon="-0.51011466"><ele>177.4</ele><time>2022-11-13T16:55:32.0000000+00:00</time></trkpt><trkpt lat="38.97668241" lon="-0.51010938"><ele>177.4</ele><time>2022-11-13T16:55:33.0000000+00:00</time></trkpt><trkpt lat="38.97669347" lon="-0.51010293"><ele>177.8</ele><time>2022-11-13T16:55:34.0000000+00:00</time></trkpt><trkpt lat="38.9767021" lon="-0.51009631"><ele>178.0</ele><time>2022-11-13T16:55:35.0000000+00:00</time></trkpt><trkpt lat="38.97670747" lon="-0.51008726"><ele>178.0</ele><time>2022-11-13T16:55:36.0000000+00:00</time></trkpt><trkpt lat="38.97671359" lon="-0.51007569"><ele>178.2</ele><time>2022-11-13T16:55:37.0000000+00:00</time></trkpt><trkpt lat="38.97672457" lon="-0.51007133"><ele>178.2</ele><time>2022-11-13T16:55:38.0000000+00:00</time></trkpt><trkpt lat="38.97673345" lon="-0.51006571"><ele>178.2</ele><time>2022-11-13T16:55:39.0000000+00:00</time></trkpt><trkpt lat="38.97674217" lon="-0.51006077"><ele>178.4</ele><time>2022-11-13T16:55:40.0000000+00:00</time></trkpt><trkpt lat="38.97674913" lon="-0.51005147"><ele>178.6</ele><time>2022-11-13T16:55:41.0000000+00:00</time></trkpt><trkpt lat="38.97675759" lon="-0.51004451"><ele>178.6</ele><time>2022-11-13T16:55:42.0000000+00:00</time></trkpt><trkpt lat="38.97676899" lon="-0.51005029"><ele>178.8</ele><time>2022-11-13T16:55:43.0000000+00:00</time></trkpt><trkpt lat="38.9767788" lon="-0.51004342"><ele>178.8</ele><time>2022-11-13T16:55:44.0000000+00:00</time></trkpt><trkpt lat="38.97678592" lon="-0.51003646"><ele>179.0</ele><time>2022-11-13T16:55:45.0000000+00:00</time></trkpt><trkpt lat="38.97679372" lon="-0.51003219"><ele>179.0</ele><time>2022-11-13T16:55:46.0000000+00:00</time></trkpt><trkpt lat="38.97680336" lon="-0.51003344"><ele>179.2</ele><time>2022-11-13T16:55:47.0000000+00:00</time></trkpt><trkpt lat="38.97681157" lon="-0.51002464"><ele>179.4</ele><time>2022-11-13T16:55:48.0000000+00:00</time></trkpt><trkpt lat="38.97681912" lon="-0.5100197"><ele>179.6</ele><time>2022-11-13T16:55:49.0000000+00:00</time></trkpt><trkpt lat="38.97683077" lon="-0.51001936"><ele>179.6</ele><time>2022-11-13T16:55:50.0000000+00:00</time></trkpt><trkpt lat="38.97683663" lon="-0.51002087"><ele>179.6</ele><time>2022-11-13T16:55:51.0000000+00:00</time></trkpt><trkpt lat="38.97684409" lon="-0.51002028"><ele>179.8</ele><time>2022-11-13T16:55:52.0000000+00:00</time></trkpt><trkpt lat="38.97685164" lon="-0.51002137"><ele>180.0</ele><time>2022-11-13T16:55:53.0000000+00:00</time></trkpt><trkpt lat="38.97686287" lon="-0.51002397"><ele>180.2</ele><time>2022-11-13T16:55:54.0000000+00:00</time></trkpt><trkpt lat="38.97687117" lon="-0.51001391"><ele>180.4</ele><time>2022-11-13T16:55:55.0000000+00:00</time></trkpt><trkpt lat="38.97687946" lon="-0.51000411"><ele>180.4</ele><time>2022-11-13T16:55:56.0000000+00:00</time></trkpt><trkpt lat="38.97688852" lon="-0.50999958"><ele>180.6</ele><time>2022-11-13T16:55:57.0000000+00:00</time></trkpt><trkpt lat="38.97689732" lon="-0.50999732"><ele>180.8</ele><time>2022-11-13T16:55:58.0000000+00:00</time></trkpt><trkpt lat="38.97690587" lon="-0.50999514"><ele>181.0</ele><time>2022-11-13T16:55:59.0000000+00:00</time></trkpt><trkpt lat="38.97691626" lon="-0.50999153"><ele>181.2</ele><time>2022-11-13T16:56:00.0000000+00:00</time></trkpt><trkpt lat="38.97692615" lon="-0.50998542"><ele>181.2</ele><time>2022-11-13T16:56:01.0000000+00:00</time></trkpt><trkpt lat="38.97693873" lon="-0.50997829"><ele>181.4</ele><time>2022-11-13T16:56:02.0000000+00:00</time></trkpt><trkpt lat="38.97695105" lon="-0.50998139"><ele>181.4</ele><time>2022-11-13T16:56:03.0000000+00:00</time></trkpt><trkpt lat="38.97696245" lon="-0.50998055"><ele>181.6</ele><time>2022-11-13T16:56:04.0000000+00:00</time></trkpt><trkpt lat="38.97697561" lon="-0.50998198"><ele>181.8</ele><time>2022-11-13T16:56:05.0000000+00:00</time></trkpt><trkpt lat="38.9769917" lon="-0.50998391"><ele>182.0</ele><time>2022-11-13T16:56:06.0000000+00:00</time></trkpt><trkpt lat="38.97700368" lon="-0.5099819"><ele>182.0</ele><time>2022-11-13T16:56:07.0000000+00:00</time></trkpt><trkpt lat="38.977015" lon="-0.50997745"><ele>182.2</ele><time>2022-11-13T16:56:08.0000000+00:00</time></trkpt><trkpt lat="38.97702321" lon="-0.50997703"><ele>182.4</ele><time>2022-11-13T16:56:09.0000000+00:00</time></trkpt><trkpt lat="38.97703654" lon="-0.50997796"><ele>182.4</ele><time>2022-11-13T16:56:10.0000000+00:00</time></trkpt><trkpt lat="38.9770518" lon="-0.50998014"><ele>182.6</ele><time>2022-11-13T16:56:11.0000000+00:00</time></trkpt><trkpt lat="38.97706672" lon="-0.50998064"><ele>182.8</ele><time>2022-11-13T16:56:12.0000000+00:00</time></trkpt><trkpt lat="38.97707954" lon="-0.50997712"><ele>182.8</ele><time>2022-11-13T16:56:13.0000000+00:00</time></trkpt><trkpt lat="38.97708826" lon="-0.50996765"><ele>183.0</ele><time>2022-11-13T16:56:14.0000000+00:00</time></trkpt><trkpt lat="38.9771005" lon="-0.50996111"><ele>183.2</ele><time>2022-11-13T16:56:15.0000000+00:00</time></trkpt><trkpt lat="38.97711005" lon="-0.50995482"><ele>183.2</ele><time>2022-11-13T16:56:16.0000000+00:00</time></trkpt><trkpt lat="38.97711944" lon="-0.50995105"><ele>183.4</ele><time>2022-11-13T16:56:17.0000000+00:00</time></trkpt><trkpt lat="38.97712832" lon="-0.50994879"><ele>183.6</ele><time>2022-11-13T16:56:18.0000000+00:00</time></trkpt><trkpt lat="38.97713922" lon="-0.50995113"><ele>183.8</ele><time>2022-11-13T16:56:19.0000000+00:00</time></trkpt><trkpt lat="38.97715087" lon="-0.50995625"><ele>183.8</ele><time>2022-11-13T16:56:20.0000000+00:00</time></trkpt><trkpt lat="38.97716361" lon="-0.50995809"><ele>184.0</ele><time>2022-11-13T16:56:21.0000000+00:00</time></trkpt><trkpt lat="38.97717786" lon="-0.50995717"><ele>184.2</ele><time>2022-11-13T16:56:22.0000000+00:00</time></trkpt><trkpt lat="38.97719379" lon="-0.5099591"><ele>184.2</ele><time>2022-11-13T16:56:23.0000000+00:00</time></trkpt><trkpt lat="38.97720292" lon="-0.50995985"><ele>184.4</ele><time>2022-11-13T16:56:24.0000000+00:00</time></trkpt><trkpt lat="38.97721063" lon="-0.50995935"><ele>184.6</ele><time>2022-11-13T16:56:25.0000000+00:00</time></trkpt><trkpt lat="38.97721918" lon="-0.50995859"><ele>184.8</ele><time>2022-11-13T16:56:26.0000000+00:00</time></trkpt><trkpt lat="38.9772253" lon="-0.5099601"><ele>184.8</ele><time>2022-11-13T16:56:27.0000000+00:00</time></trkpt><trkpt lat="38.97723511" lon="-0.50996195"><ele>185.0</ele><time>2022-11-13T16:56:28.0000000+00:00</time></trkpt><trkpt lat="38.97724894" lon="-0.50995901"><ele>185.2</ele><time>2022-11-13T16:56:29.0000000+00:00</time></trkpt><trkpt lat="38.97725615" lon="-0.50996371"><ele>185.2</ele><time>2022-11-13T16:56:30.0000000+00:00</time></trkpt><trkpt lat="38.9772626" lon="-0.50996807"><ele>185.4</ele><time>2022-11-13T16:56:31.0000000+00:00</time></trkpt><trkpt lat="38.97726947" lon="-0.50996807"><ele>185.4</ele><time>2022-11-13T16:56:32.0000000+00:00</time></trkpt><trkpt lat="38.97727283" lon="-0.50996698"><ele>185.6</ele><time>2022-11-13T16:56:33.0000000+00:00</time></trkpt><trkpt lat="38.97727836" lon="-0.50996505"><ele>185.8</ele><time>2022-11-13T16:56:34.0000000+00:00</time></trkpt><trkpt lat="38.97728741" lon="-0.50996446"><ele>186.0</ele><time>2022-11-13T16:56:35.0000000+00:00</time></trkpt><trkpt lat="38.97729806" lon="-0.50996404"><ele>186.2</ele><time>2022-11-13T16:56:36.0000000+00:00</time></trkpt><trkpt lat="38.97730887" lon="-0.50996848"><ele>186.2</ele><time>2022-11-13T16:56:37.0000000+00:00</time></trkpt><trkpt lat="38.97731356" lon="-0.50996899"><ele>186.4</ele><time>2022-11-13T16:56:38.0000000+00:00</time></trkpt><trkpt lat="38.97731507" lon="-0.5099715"><ele>186.4</ele><time>2022-11-13T16:56:39.0000000+00:00</time></trkpt><trkpt lat="38.97731407" lon="-0.50997066"><ele>186.4</ele><time>2022-11-13T16:56:40.0000000+00:00</time></trkpt><trkpt lat="38.97731289" lon="-0.50996857"><ele>186.4</ele><time>2022-11-13T16:56:41.0000000+00:00</time></trkpt><trkpt lat="38.97731046" lon="-0.50997553"><ele>186.6</ele><time>2022-11-13T16:56:42.0000000+00:00</time></trkpt><trkpt lat="38.97730921" lon="-0.50997444"><ele>186.6</ele><time>2022-11-13T16:56:43.0000000+00:00</time></trkpt><trkpt lat="38.97730795" lon="-0.50997351"><ele>186.6</ele><time>2022-11-13T16:56:44.0000000+00:00</time></trkpt><trkpt lat="38.97730837" lon="-0.50997485"><ele>186.6</ele><time>2022-11-13T16:56:45.0000000+00:00</time></trkpt><trkpt lat="38.97730812" lon="-0.50997653"><ele>186.6</ele><time>2022-11-13T16:56:46.0000000+00:00</time></trkpt><trkpt lat="38.97730602" lon="-0.50997997"><ele>186.6</ele><time>2022-11-13T16:56:47.0000000+00:00</time></trkpt><trkpt lat="38.97731122" lon="-0.50998424"><ele>186.6</ele><time>2022-11-13T16:56:48.0000000+00:00</time></trkpt><trkpt lat="38.97731524" lon="-0.50998709"><ele>186.6</ele><time>2022-11-13T16:56:49.0000000+00:00</time></trkpt><trkpt lat="38.9773222" lon="-0.50999162"><ele>186.6</ele><time>2022-11-13T16:56:50.0000000+00:00</time></trkpt><trkpt lat="38.97732614" lon="-0.50999346"><ele>186.6</ele><time>2022-11-13T16:56:51.0000000+00:00</time></trkpt><trkpt lat="38.97732614" lon="-0.50999145"><ele>186.6</ele><time>2022-11-13T16:56:52.0000000+00:00</time></trkpt><trkpt lat="38.97732672" lon="-0.50998977"><ele>186.6</ele><time>2022-11-13T16:56:53.0000000+00:00</time></trkpt><trkpt lat="38.97732756" lon="-0.50998852"><ele>186.6</ele><time>2022-11-13T16:56:54.0000000+00:00</time></trkpt><trkpt lat="38.97732756" lon="-0.50998852"><ele>186.6</ele><time>2022-11-13T16:56:55.0000000+00:00</time></trkpt><trkpt lat="38.97732756" lon="-0.50998852"><ele>186.6</ele><time>2022-11-13T16:56:56.0000000+00:00</time></trkpt><trkpt lat="38.97732756" lon="-0.50998852"><ele>186.6</ele><time>2022-11-13T16:56:57.0000000+00:00</time></trkpt><trkpt lat="38.97732756" lon="-0.50998852"><ele>186.6</ele><time>2022-11-13T16:56:58.0000000+00:00</time></trkpt><trkpt lat="38.97732756" lon="-0.50998852"><ele>186.6</ele><time>2022-11-13T16:56:59.0000000+00:00</time></trkpt><trkpt lat="38.97732756" lon="-0.50998852"><ele>186.6</ele><time>2022-11-13T16:57:00.0000000+00:00</time></trkpt><trkpt lat="38.97732756" lon="-0.50998852"><ele>186.6</ele><time>2022-11-13T16:57:01.0000000+00:00</time></trkpt><trkpt lat="38.97732756" lon="-0.50998852"><ele>186.6</ele><time>2022-11-13T16:57:02.0000000+00:00</time></trkpt><trkpt lat="38.97732756" lon="-0.50998852"><ele>186.6</ele><time>2022-11-13T16:57:03.0000000+00:00</time></trkpt><trkpt lat="38.97732756" lon="-0.50998852"><ele>186.6</ele><time>2022-11-13T16:57:04.0000000+00:00</time></trkpt><trkpt lat="38.9773315" lon="-0.5099886"><ele>186.6</ele><time>2022-11-13T16:57:05.0000000+00:00</time></trkpt><trkpt lat="38.97734491" lon="-0.50999514"><ele>186.8</ele><time>2022-11-13T16:57:06.0000000+00:00</time></trkpt><trkpt lat="38.97736042" lon="-0.51000017"><ele>186.8</ele><time>2022-11-13T16:57:07.0000000+00:00</time></trkpt><trkpt lat="38.97737098" lon="-0.50999941"><ele>187.0</ele><time>2022-11-13T16:57:08.0000000+00:00</time></trkpt><trkpt lat="38.97738406" lon="-0.50999832"><ele>187.0</ele><time>2022-11-13T16:57:09.0000000+00:00</time></trkpt><trkpt lat="38.97739696" lon="-0.50999304"><ele>187.2</ele><time>2022-11-13T16:57:10.0000000+00:00</time></trkpt><trkpt lat="38.9774087" lon="-0.50999036"><ele>187.2</ele><time>2022-11-13T16:57:11.0000000+00:00</time></trkpt><trkpt lat="38.97742588" lon="-0.50998575"><ele>187.2</ele><time>2022-11-13T16:57:12.0000000+00:00</time></trkpt><trkpt lat="38.97744105" lon="-0.50997871"><ele>187.4</ele><time>2022-11-13T16:57:13.0000000+00:00</time></trkpt><trkpt lat="38.9774548" lon="-0.50997041"><ele>187.4</ele><time>2022-11-13T16:57:14.0000000+00:00</time></trkpt><trkpt lat="38.97747047" lon="-0.50995801"><ele>187.6</ele><time>2022-11-13T16:57:15.0000000+00:00</time></trkpt><trkpt lat="38.97748003" lon="-0.50995097"><ele>187.6</ele><time>2022-11-13T16:57:16.0000000+00:00</time></trkpt><trkpt lat="38.97748807" lon="-0.50993697"><ele>187.8</ele><time>2022-11-13T16:57:17.0000000+00:00</time></trkpt><trkpt lat="38.97749553" lon="-0.50993068"><ele>187.8</ele><time>2022-11-13T16:57:18.0000000+00:00</time></trkpt><trkpt lat="38.97750735" lon="-0.50992448"><ele>188.0</ele><time>2022-11-13T16:57:19.0000000+00:00</time></trkpt><trkpt lat="38.97751775" lon="-0.50991576"><ele>188.0</ele><time>2022-11-13T16:57:20.0000000+00:00</time></trkpt><trkpt lat="38.97753107" lon="-0.50991031"><ele>188.0</ele><time>2022-11-13T16:57:21.0000000+00:00</time></trkpt><trkpt lat="38.97754055" lon="-0.50991207"><ele>188.2</ele><time>2022-11-13T16:57:22.0000000+00:00</time></trkpt><trkpt lat="38.97755018" lon="-0.50991048"><ele>188.2</ele><time>2022-11-13T16:57:23.0000000+00:00</time></trkpt><trkpt lat="38.97755949" lon="-0.5099083"><ele>188.4</ele><time>2022-11-13T16:57:24.0000000+00:00</time></trkpt><trkpt lat="38.97756921" lon="-0.50990218"><ele>188.6</ele><time>2022-11-13T16:57:25.0000000+00:00</time></trkpt><trkpt lat="38.97757751" lon="-0.50989632"><ele>188.6</ele><time>2022-11-13T16:57:26.0000000+00:00</time></trkpt><trkpt lat="38.97758539" lon="-0.50988894"><ele>188.8</ele><time>2022-11-13T16:57:27.0000000+00:00</time></trkpt><trkpt lat="38.97759763" lon="-0.50987754"><ele>188.8</ele><time>2022-11-13T16:57:28.0000000+00:00</time></trkpt><trkpt lat="38.97760752" lon="-0.50986497"><ele>189.0</ele><time>2022-11-13T16:57:29.0000000+00:00</time></trkpt><trkpt lat="38.97761498" lon="-0.50985667"><ele>189.0</ele><time>2022-11-13T16:57:30.0000000+00:00</time></trkpt><trkpt lat="38.97762789" lon="-0.50984745"><ele>189.2</ele><time>2022-11-13T16:57:31.0000000+00:00</time></trkpt><trkpt lat="38.97764205" lon="-0.50984276"><ele>189.2</ele><time>2022-11-13T16:57:32.0000000+00:00</time></trkpt><trkpt lat="38.97765337" lon="-0.50983203"><ele>189.2</ele><time>2022-11-13T16:57:33.0000000+00:00</time></trkpt><trkpt lat="38.97766443" lon="-0.50982264"><ele>189.4</ele><time>2022-11-13T16:57:34.0000000+00:00</time></trkpt><trkpt lat="38.97767348" lon="-0.50981007"><ele>189.4</ele><time>2022-11-13T16:57:35.0000000+00:00</time></trkpt><trkpt lat="38.97768262" lon="-0.50980026"><ele>189.6</ele><time>2022-11-13T16:57:36.0000000+00:00</time></trkpt><trkpt lat="38.97768891" lon="-0.50979012"><ele>189.6</ele><time>2022-11-13T16:57:37.0000000+00:00</time></trkpt><trkpt lat="38.97769997" lon="-0.50977687"><ele>189.8</ele><time>2022-11-13T16:57:38.0000000+00:00</time></trkpt><trkpt lat="38.97770768" lon="-0.50976589"><ele>189.8</ele><time>2022-11-13T16:57:39.0000000+00:00</time></trkpt><trkpt lat="38.97771112" lon="-0.50976019"><ele>189.8</ele><time>2022-11-13T16:57:40.0000000+00:00</time></trkpt><trkpt lat="38.9777112" lon="-0.5097586"><ele>190.0</ele><time>2022-11-13T16:57:41.0000000+00:00</time></trkpt><trkpt lat="38.97771564" lon="-0.50975315"><ele>190.0</ele><time>2022-11-13T16:57:42.0000000+00:00</time></trkpt><trkpt lat="38.97771682" lon="-0.50974578"><ele>190.0</ele><time>2022-11-13T16:57:43.0000000+00:00</time></trkpt><trkpt lat="38.97771732" lon="-0.50973756"><ele>190.2</ele><time>2022-11-13T16:57:44.0000000+00:00</time></trkpt><trkpt lat="38.97772109" lon="-0.50973111"><ele>190.2</ele><time>2022-11-13T16:57:45.0000000+00:00</time></trkpt><trkpt lat="38.97773366" lon="-0.50972415"><ele>190.2</ele><time>2022-11-13T16:57:46.0000000+00:00</time></trkpt><trkpt lat="38.97774448" lon="-0.50971979"><ele>190.2</ele><time>2022-11-13T16:57:47.0000000+00:00</time></trkpt><trkpt lat="38.97775739" lon="-0.50971644"><ele>190.2</ele><time>2022-11-13T16:57:48.0000000+00:00</time></trkpt><trkpt lat="38.97777281" lon="-0.50971183"><ele>190.2</ele><time>2022-11-13T16:57:49.0000000+00:00</time></trkpt><trkpt lat="38.97779108" lon="-0.50970177"><ele>190.4</ele><time>2022-11-13T16:57:50.0000000+00:00</time></trkpt><trkpt lat="38.97780449" lon="-0.50969783"><ele>190.4</ele><time>2022-11-13T16:57:51.0000000+00:00</time></trkpt><trkpt lat="38.97781648" lon="-0.50969012"><ele>190.6</ele><time>2022-11-13T16:57:52.0000000+00:00</time></trkpt><trkpt lat="38.97782369" lon="-0.50968182"><ele>190.6</ele><time>2022-11-13T16:57:53.0000000+00:00</time></trkpt><trkpt lat="38.97783542" lon="-0.50967872"><ele>190.8</ele><time>2022-11-13T16:57:54.0000000+00:00</time></trkpt><trkpt lat="38.9778454" lon="-0.5096716"><ele>191.0</ele><time>2022-11-13T16:57:55.0000000+00:00</time></trkpt><trkpt lat="38.97786048" lon="-0.50966431"><ele>191.0</ele><time>2022-11-13T16:57:56.0000000+00:00</time></trkpt><trkpt lat="38.97787423" lon="-0.50965827"><ele>191.0</ele><time>2022-11-13T16:57:57.0000000+00:00</time></trkpt><trkpt lat="38.97788672" lon="-0.50965215"><ele>191.0</ele><time>2022-11-13T16:57:58.0000000+00:00</time></trkpt><trkpt lat="38.9778972" lon="-0.5096431"><ele>191.2</ele><time>2022-11-13T16:57:59.0000000+00:00</time></trkpt><trkpt lat="38.97790843" lon="-0.50963606"><ele>191.0</ele><time>2022-11-13T16:58:00.0000000+00:00</time></trkpt><trkpt lat="38.97792502" lon="-0.5096317"><ele>191.0</ele><time>2022-11-13T16:58:01.0000000+00:00</time></trkpt><trkpt lat="38.97794011" lon="-0.50962357"><ele>191.0</ele><time>2022-11-13T16:58:02.0000000+00:00</time></trkpt><trkpt lat="38.97795419" lon="-0.50961594"><ele>191.2</ele><time>2022-11-13T16:58:03.0000000+00:00</time></trkpt><trkpt lat="38.97796459" lon="-0.50960857"><ele>191.2</ele><time>2022-11-13T16:58:04.0000000+00:00</time></trkpt><trkpt lat="38.97797925" lon="-0.50959935"><ele>191.2</ele><time>2022-11-13T16:58:05.0000000+00:00</time></trkpt><trkpt lat="38.97798822" lon="-0.50958778"><ele>191.2</ele><time>2022-11-13T16:58:06.0000000+00:00</time></trkpt><trkpt lat="38.97799552" lon="-0.50957965"><ele>191.2</ele><time>2022-11-13T16:58:07.0000000+00:00</time></trkpt><trkpt lat="38.9780044" lon="-0.50956775"><ele>191.2</ele><time>2022-11-13T16:58:08.0000000+00:00</time></trkpt><trkpt lat="38.97801379" lon="-0.5095597"><ele>191.2</ele><time>2022-11-13T16:58:09.0000000+00:00</time></trkpt><trkpt lat="38.9780251" lon="-0.50954947"><ele>191.4</ele><time>2022-11-13T16:58:10.0000000+00:00</time></trkpt><trkpt lat="38.97802996" lon="-0.50953455"><ele>191.4</ele><time>2022-11-13T16:58:11.0000000+00:00</time></trkpt><trkpt lat="38.97803449" lon="-0.50951636"><ele>191.6</ele><time>2022-11-13T16:58:12.0000000+00:00</time></trkpt><trkpt lat="38.97804371" lon="-0.50949943"><ele>191.6</ele><time>2022-11-13T16:58:13.0000000+00:00</time></trkpt><trkpt lat="38.97805763" lon="-0.50948669"><ele>191.6</ele><time>2022-11-13T16:58:14.0000000+00:00</time></trkpt><trkpt lat="38.97807271" lon="-0.50947814"><ele>191.6</ele><time>2022-11-13T16:58:15.0000000+00:00</time></trkpt><trkpt lat="38.97808864" lon="-0.50946373"><ele>191.6</ele><time>2022-11-13T16:58:16.0000000+00:00</time></trkpt><trkpt lat="38.9780997" lon="-0.50945333"><ele>191.6</ele><time>2022-11-13T16:58:17.0000000+00:00</time></trkpt><trkpt lat="38.97811194" lon="-0.50943724"><ele>191.6</ele><time>2022-11-13T16:58:18.0000000+00:00</time></trkpt><trkpt lat="38.97811823" lon="-0.50942291"><ele>191.6</ele><time>2022-11-13T16:58:19.0000000+00:00</time></trkpt><trkpt lat="38.97812552" lon="-0.50940706"><ele>191.6</ele><time>2022-11-13T16:58:20.0000000+00:00</time></trkpt><trkpt lat="38.97813784" lon="-0.50939919"><ele>191.6</ele><time>2022-11-13T16:58:21.0000000+00:00</time></trkpt><trkpt lat="38.97814731" lon="-0.5093898"><ele>191.6</ele><time>2022-11-13T16:58:22.0000000+00:00</time></trkpt><trkpt lat="38.97815469" lon="-0.50937546"><ele>191.6</ele><time>2022-11-13T16:58:23.0000000+00:00</time></trkpt><trkpt lat="38.97816299" lon="-0.50936817"><ele>191.6</ele><time>2022-11-13T16:58:24.0000000+00:00</time></trkpt><trkpt lat="38.97817154" lon="-0.50936289"><ele>191.6</ele><time>2022-11-13T16:58:25.0000000+00:00</time></trkpt><trkpt lat="38.97818226" lon="-0.50934613"><ele>191.8</ele><time>2022-11-13T16:58:26.0000000+00:00</time></trkpt><trkpt lat="38.97819433" lon="-0.5093359"><ele>191.8</ele><time>2022-11-13T16:58:27.0000000+00:00</time></trkpt><trkpt lat="38.97820825" lon="-0.50932978"><ele>191.8</ele><time>2022-11-13T16:58:28.0000000+00:00</time></trkpt><trkpt lat="38.97821998" lon="-0.50932501"><ele>192.0</ele><time>2022-11-13T16:58:29.0000000+00:00</time></trkpt><trkpt lat="38.97823147" lon="-0.50931889"><ele>192.0</ele><time>2022-11-13T16:58:30.0000000+00:00</time></trkpt><trkpt lat="38.97823641" lon="-0.50930154"><ele>192.2</ele><time>2022-11-13T16:58:31.0000000+00:00</time></trkpt><trkpt lat="38.97824387" lon="-0.50928645"><ele>192.2</ele><time>2022-11-13T16:58:32.0000000+00:00</time></trkpt><trkpt lat="38.97825058" lon="-0.50927714"><ele>192.2</ele><time>2022-11-13T16:58:33.0000000+00:00</time></trkpt><trkpt lat="38.97825519" lon="-0.50927069"><ele>192.4</ele><time>2022-11-13T16:58:34.0000000+00:00</time></trkpt><trkpt lat="38.97826491" lon="-0.50926021"><ele>192.4</ele><time>2022-11-13T16:58:35.0000000+00:00</time></trkpt><trkpt lat="38.97827296" lon="-0.50924739"><ele>192.4</ele><time>2022-11-13T16:58:36.0000000+00:00</time></trkpt><trkpt lat="38.97827807" lon="-0.50923708"><ele>192.6</ele><time>2022-11-13T16:58:37.0000000+00:00</time></trkpt><trkpt lat="38.97828427" lon="-0.50922107"><ele>192.6</ele><time>2022-11-13T16:58:38.0000000+00:00</time></trkpt><trkpt lat="38.97829115" lon="-0.5092126"><ele>192.6</ele><time>2022-11-13T16:58:39.0000000+00:00</time></trkpt><trkpt lat="38.97830095" lon="-0.50920037"><ele>192.8</ele><time>2022-11-13T16:58:40.0000000+00:00</time></trkpt><trkpt lat="38.97831" lon="-0.50919307"><ele>192.8</ele><time>2022-11-13T16:58:41.0000000+00:00</time></trkpt><trkpt lat="38.97831503" lon="-0.50918159"><ele>192.8</ele><time>2022-11-13T16:58:42.0000000+00:00</time></trkpt><trkpt lat="38.97832149" lon="-0.50917019"><ele>192.8</ele><time>2022-11-13T16:58:43.0000000+00:00</time></trkpt><trkpt lat="38.97832744" lon="-0.50915955"><ele>193.0</ele><time>2022-11-13T16:58:44.0000000+00:00</time></trkpt><trkpt lat="38.9783344" lon="-0.50915008"><ele>193.0</ele><time>2022-11-13T16:58:45.0000000+00:00</time></trkpt><trkpt lat="38.97834043" lon="-0.50913725"><ele>193.0</ele><time>2022-11-13T16:58:46.0000000+00:00</time></trkpt><trkpt lat="38.97834538" lon="-0.50912485"><ele>193.2</ele><time>2022-11-13T16:58:47.0000000+00:00</time></trkpt><trkpt lat="38.97835015" lon="-0.50911026"><ele>193.2</ele><time>2022-11-13T16:58:48.0000000+00:00</time></trkpt><trkpt lat="38.97835803" lon="-0.50909853"><ele>193.2</ele><time>2022-11-13T16:58:49.0000000+00:00</time></trkpt><trkpt lat="38.97836491" lon="-0.5090904"><ele>193.2</ele><time>2022-11-13T16:58:50.0000000+00:00</time></trkpt><trkpt lat="38.97838242" lon="-0.50907673"><ele>193.2</ele><time>2022-11-13T16:58:51.0000000+00:00</time></trkpt><trkpt lat="38.9783862" lon="-0.50906173"><ele>193.4</ele><time>2022-11-13T16:58:52.0000000+00:00</time></trkpt><trkpt lat="38.97838913" lon="-0.50904899"><ele>193.4</ele><time>2022-11-13T16:58:53.0000000+00:00</time></trkpt><trkpt lat="38.97839692" lon="-0.50903105"><ele>193.4</ele><time>2022-11-13T16:58:54.0000000+00:00</time></trkpt><trkpt lat="38.97840497" lon="-0.50901798"><ele>193.4</ele><time>2022-11-13T16:58:55.0000000+00:00</time></trkpt><trkpt lat="38.97841629" lon="-0.5090044"><ele>193.6</ele><time>2022-11-13T16:58:56.0000000+00:00</time></trkpt><trkpt lat="38.97842635" lon="-0.50899333"><ele>193.6</ele><time>2022-11-13T16:58:57.0000000+00:00</time></trkpt><trkpt lat="38.97843674" lon="-0.50898244"><ele>193.6</ele><time>2022-11-13T16:58:58.0000000+00:00</time></trkpt><trkpt lat="38.97844688" lon="-0.50896953"><ele>193.6</ele><time>2022-11-13T16:58:59.0000000+00:00</time></trkpt><trkpt lat="38.97845426" lon="-0.50895461"><ele>193.6</ele><time>2022-11-13T16:59:00.0000000+00:00</time></trkpt><trkpt lat="38.9784649" lon="-0.50894246"><ele>193.8</ele><time>2022-11-13T16:59:01.0000000+00:00</time></trkpt><trkpt lat="38.97847069" lon="-0.50893013"><ele>193.8</ele><time>2022-11-13T16:59:02.0000000+00:00</time></trkpt><trkpt lat="38.97847345" lon="-0.50891521"><ele>193.8</ele><time>2022-11-13T16:59:03.0000000+00:00</time></trkpt><trkpt lat="38.97847395" lon="-0.50889971"><ele>193.8</ele><time>2022-11-13T16:59:04.0000000+00:00</time></trkpt><trkpt lat="38.97847395" lon="-0.50887884"><ele>193.8</ele><time>2022-11-13T16:59:05.0000000+00:00</time></trkpt><trkpt lat="38.97847747" lon="-0.50886551"><ele>193.8</ele><time>2022-11-13T16:59:06.0000000+00:00</time></trkpt><trkpt lat="38.97847815" lon="-0.50884531"><ele>193.8</ele><time>2022-11-13T16:59:07.0000000+00:00</time></trkpt><trkpt lat="38.97848636" lon="-0.50883726"><ele>193.8</ele><time>2022-11-13T16:59:08.0000000+00:00</time></trkpt><trkpt lat="38.97849483" lon="-0.50883223"><ele>194.0</ele><time>2022-11-13T16:59:09.0000000+00:00</time></trkpt><trkpt lat="38.97850136" lon="-0.50882712"><ele>194.0</ele><time>2022-11-13T16:59:10.0000000+00:00</time></trkpt><trkpt lat="38.97850715" lon="-0.50881027"><ele>194.2</ele><time>2022-11-13T16:59:11.0000000+00:00</time></trkpt><trkpt lat="38.97851067" lon="-0.50879879"><ele>194.2</ele><time>2022-11-13T16:59:12.0000000+00:00</time></trkpt><trkpt lat="38.97851846" lon="-0.50878823"><ele>194.2</ele><time>2022-11-13T16:59:13.0000000+00:00</time></trkpt><trkpt lat="38.97852936" lon="-0.508778"><ele>194.4</ele><time>2022-11-13T16:59:14.0000000+00:00</time></trkpt><trkpt lat="38.97853774" lon="-0.50876409"><ele>194.4</ele><time>2022-11-13T16:59:15.0000000+00:00</time></trkpt><trkpt lat="38.97854495" lon="-0.50874909"><ele>194.4</ele><time>2022-11-13T16:59:16.0000000+00:00</time></trkpt><trkpt lat="38.97855191" lon="-0.50873333"><ele>194.4</ele><time>2022-11-13T16:59:17.0000000+00:00</time></trkpt><trkpt lat="38.97856054" lon="-0.5087164"><ele>194.4</ele><time>2022-11-13T16:59:18.0000000+00:00</time></trkpt><trkpt lat="38.97857035" lon="-0.50869594"><ele>194.6</ele><time>2022-11-13T16:59:19.0000000+00:00</time></trkpt><trkpt lat="38.97857621" lon="-0.50868463"><ele>194.6</ele><time>2022-11-13T16:59:20.0000000+00:00</time></trkpt><trkpt lat="38.97858552" lon="-0.50867675"><ele>194.6</ele><time>2022-11-13T16:59:21.0000000+00:00</time></trkpt><trkpt lat="38.97859298" lon="-0.50866149"><ele>194.8</ele><time>2022-11-13T16:59:22.0000000+00:00</time></trkpt><trkpt lat="38.97860077" lon="-0.50865244"><ele>194.8</ele><time>2022-11-13T16:59:23.0000000+00:00</time></trkpt><trkpt lat="38.97860781" lon="-0.50864213"><ele>195.0</ele><time>2022-11-13T16:59:24.0000000+00:00</time></trkpt><trkpt lat="38.97861997" lon="-0.50862964"><ele>195.0</ele><time>2022-11-13T16:59:25.0000000+00:00</time></trkpt><trkpt lat="38.97862801" lon="-0.50861808"><ele>195.0</ele><time>2022-11-13T16:59:26.0000000+00:00</time></trkpt><trkpt lat="38.97863405" lon="-0.50860408"><ele>195.2</ele><time>2022-11-13T16:59:27.0000000+00:00</time></trkpt><trkpt lat="38.97864226" lon="-0.50858899"><ele>195.2</ele><time>2022-11-13T16:59:28.0000000+00:00</time></trkpt><trkpt lat="38.97865039" lon="-0.50857365"><ele>195.2</ele><time>2022-11-13T16:59:29.0000000+00:00</time></trkpt><trkpt lat="38.97865676" lon="-0.50856284"><ele>195.2</ele><time>2022-11-13T16:59:30.0000000+00:00</time></trkpt><trkpt lat="38.97866942" lon="-0.5085496"><ele>195.4</ele><time>2022-11-13T16:59:31.0000000+00:00</time></trkpt><trkpt lat="38.97868132" lon="-0.50854323"><ele>195.4</ele><time>2022-11-13T16:59:32.0000000+00:00</time></trkpt><trkpt lat="38.97869079" lon="-0.50853811"><ele>195.4</ele><time>2022-11-13T16:59:33.0000000+00:00</time></trkpt><trkpt lat="38.9787037" lon="-0.50853007"><ele>195.4</ele><time>2022-11-13T16:59:34.0000000+00:00</time></trkpt><trkpt lat="38.97871234" lon="-0.50852051"><ele>195.6</ele><time>2022-11-13T16:59:35.0000000+00:00</time></trkpt><trkpt lat="38.97872407" lon="-0.50851146"><ele>195.8</ele><time>2022-11-13T16:59:36.0000000+00:00</time></trkpt><trkpt lat="38.97873279" lon="-0.50850039"><ele>195.8</ele><time>2022-11-13T16:59:37.0000000+00:00</time></trkpt><trkpt lat="38.97874293" lon="-0.50848774"><ele>195.8</ele><time>2022-11-13T16:59:38.0000000+00:00</time></trkpt><trkpt lat="38.97875257" lon="-0.50847558"><ele>195.8</ele><time>2022-11-13T16:59:39.0000000+00:00</time></trkpt><trkpt lat="38.97876439" lon="-0.50846594"><ele>196.0</ele><time>2022-11-13T16:59:40.0000000+00:00</time></trkpt><trkpt lat="38.97877587" lon="-0.5084646"><ele>196.0</ele><time>2022-11-13T16:59:41.0000000+00:00</time></trkpt><trkpt lat="38.97877956" lon="-0.50845714"><ele>196.2</ele><time>2022-11-13T16:59:42.0000000+00:00</time></trkpt><trkpt lat="38.9787866" lon="-0.50844541"><ele>196.2</ele><time>2022-11-13T16:59:43.0000000+00:00</time></trkpt><trkpt lat="38.97879741" lon="-0.50843636"><ele>196.4</ele><time>2022-11-13T16:59:44.0000000+00:00</time></trkpt><trkpt lat="38.97880361" lon="-0.50842546"><ele>196.4</ele><time>2022-11-13T16:59:45.0000000+00:00</time></trkpt><trkpt lat="38.97881351" lon="-0.50841473"><ele>196.6</ele><time>2022-11-13T16:59:46.0000000+00:00</time></trkpt><trkpt lat="38.97882507" lon="-0.50840174"><ele>196.6</ele><time>2022-11-13T16:59:47.0000000+00:00</time></trkpt><trkpt lat="38.97883463" lon="-0.50839461"><ele>196.8</ele><time>2022-11-13T16:59:48.0000000+00:00</time></trkpt><trkpt lat="38.9788477" lon="-0.50838363"><ele>196.8</ele><time>2022-11-13T16:59:49.0000000+00:00</time></trkpt><trkpt lat="38.97885583" lon="-0.50837341"><ele>197.0</ele><time>2022-11-13T16:59:50.0000000+00:00</time></trkpt><trkpt lat="38.97886514" lon="-0.50836528"><ele>197.0</ele><time>2022-11-13T16:59:51.0000000+00:00</time></trkpt><trkpt lat="38.97887444" lon="-0.5083574"><ele>197.0</ele><time>2022-11-13T16:59:52.0000000+00:00</time></trkpt><trkpt lat="38.97888056" lon="-0.5083512"><ele>197.2</ele><time>2022-11-13T16:59:53.0000000+00:00</time></trkpt><trkpt lat="38.97889322" lon="-0.50834147"><ele>197.2</ele><time>2022-11-13T16:59:54.0000000+00:00</time></trkpt><trkpt lat="38.97889976" lon="-0.50833602"><ele>197.2</ele><time>2022-11-13T16:59:55.0000000+00:00</time></trkpt><trkpt lat="38.97890805" lon="-0.50832672"><ele>197.4</ele><time>2022-11-13T16:59:56.0000000+00:00</time></trkpt><trkpt lat="38.97891752" lon="-0.5083175"><ele>197.4</ele><time>2022-11-13T16:59:57.0000000+00:00</time></trkpt><trkpt lat="38.97892716" lon="-0.50830568"><ele>197.6</ele><time>2022-11-13T16:59:58.0000000+00:00</time></trkpt><trkpt lat="38.97893664" lon="-0.50829294"><ele>197.6</ele><time>2022-11-13T16:59:59.0000000+00:00</time></trkpt><trkpt lat="38.97894812" lon="-0.50828112"><ele>197.6</ele><time>2022-11-13T17:00:00.0000000+00:00</time></trkpt><trkpt lat="38.97895432" lon="-0.50827442"><ele>197.8</ele><time>2022-11-13T17:00:01.0000000+00:00</time></trkpt><trkpt lat="38.97896698" lon="-0.50826545"><ele>198.0</ele><time>2022-11-13T17:00:02.0000000+00:00</time></trkpt><trkpt lat="38.97897913" lon="-0.50825413"><ele>198.0</ele><time>2022-11-13T17:00:03.0000000+00:00</time></trkpt><trkpt lat="38.97898827" lon="-0.50824617"><ele>198.2</ele><time>2022-11-13T17:00:04.0000000+00:00</time></trkpt><trkpt lat="38.97900176" lon="-0.5082336"><ele>198.2</ele><time>2022-11-13T17:00:05.0000000+00:00</time></trkpt><trkpt lat="38.9790119" lon="-0.50822522"><ele>198.2</ele><time>2022-11-13T17:00:06.0000000+00:00</time></trkpt><trkpt lat="38.9790223" lon="-0.50821985"><ele>198.4</ele><time>2022-11-13T17:00:07.0000000+00:00</time></trkpt><trkpt lat="38.97903395" lon="-0.50821524"><ele>198.4</ele><time>2022-11-13T17:00:08.0000000+00:00</time></trkpt><trkpt lat="38.97904644" lon="-0.5082077"><ele>198.6</ele><time>2022-11-13T17:00:09.0000000+00:00</time></trkpt><trkpt lat="38.97905717" lon="-0.50820057"><ele>198.6</ele><time>2022-11-13T17:00:10.0000000+00:00</time></trkpt><trkpt lat="38.97906496" lon="-0.50819387"><ele>198.6</ele><time>2022-11-13T17:00:11.0000000+00:00</time></trkpt><trkpt lat="38.97906932" lon="-0.50818624"><ele>198.6</ele><time>2022-11-13T17:00:12.0000000+00:00</time></trkpt><trkpt lat="38.97907184" lon="-0.50818054"><ele>198.6</ele><time>2022-11-13T17:00:13.0000000+00:00</time></trkpt><trkpt lat="38.97907779" lon="-0.50817903"><ele>198.8</ele><time>2022-11-13T17:00:14.0000000+00:00</time></trkpt><trkpt lat="38.97908533" lon="-0.50817534"><ele>198.8</ele><time>2022-11-13T17:00:15.0000000+00:00</time></trkpt><trkpt lat="38.97909489" lon="-0.50816696"><ele>198.8</ele><time>2022-11-13T17:00:16.0000000+00:00</time></trkpt><trkpt lat="38.97910637" lon="-0.50815791"><ele>198.8</ele><time>2022-11-13T17:00:17.0000000+00:00</time></trkpt><trkpt lat="38.97911559" lon="-0.50814559"><ele>198.8</ele><time>2022-11-13T17:00:18.0000000+00:00</time></trkpt><trkpt lat="38.97912288" lon="-0.5081362"><ele>199.0</ele><time>2022-11-13T17:00:19.0000000+00:00</time></trkpt><trkpt lat="38.97912967" lon="-0.5081279"><ele>199.0</ele><time>2022-11-13T17:00:20.0000000+00:00</time></trkpt><trkpt lat="38.97913763" lon="-0.50811675"><ele>199.2</ele><time>2022-11-13T17:00:21.0000000+00:00</time></trkpt><trkpt lat="38.97914635" lon="-0.50810804"><ele>199.2</ele><time>2022-11-13T17:00:22.0000000+00:00</time></trkpt><trkpt lat="38.9791549" lon="-0.50810343"><ele>199.4</ele><time>2022-11-13T17:00:23.0000000+00:00</time></trkpt><trkpt lat="38.97916186" lon="-0.50809136"><ele>199.4</ele><time>2022-11-13T17:00:24.0000000+00:00</time></trkpt><trkpt lat="38.97917032" lon="-0.50808222"><ele>199.6</ele><time>2022-11-13T17:00:25.0000000+00:00</time></trkpt><trkpt lat="38.97918038" lon="-0.5080725"><ele>199.6</ele><time>2022-11-13T17:00:26.0000000+00:00</time></trkpt><trkpt lat="38.97919329" lon="-0.5080642"><ele>199.6</ele><time>2022-11-13T17:00:27.0000000+00:00</time></trkpt><trkpt lat="38.97920553" lon="-0.50805448"><ele>199.8</ele><time>2022-11-13T17:00:28.0000000+00:00</time></trkpt><trkpt lat="38.97921533" lon="-0.50804492"><ele>199.8</ele><time>2022-11-13T17:00:29.0000000+00:00</time></trkpt><trkpt lat="38.97921936" lon="-0.50803629"><ele>199.8</ele><time>2022-11-13T17:00:30.0000000+00:00</time></trkpt><trkpt lat="38.97922724" lon="-0.50802757"><ele>200.0</ele><time>2022-11-13T17:00:31.0000000+00:00</time></trkpt><trkpt lat="38.97923847" lon="-0.50801869"><ele>200.0</ele><time>2022-11-13T17:00:32.0000000+00:00</time></trkpt><trkpt lat="38.97924459" lon="-0.50800947"><ele>200.0</ele><time>2022-11-13T17:00:33.0000000+00:00</time></trkpt><trkpt lat="38.97925196" lon="-0.50799958"><ele>200.2</ele><time>2022-11-13T17:00:34.0000000+00:00</time></trkpt><trkpt lat="38.97926152" lon="-0.50799128"><ele>200.2</ele><time>2022-11-13T17:00:35.0000000+00:00</time></trkpt><trkpt lat="38.9792725" lon="-0.50798675"><ele>200.4</ele><time>2022-11-13T17:00:36.0000000+00:00</time></trkpt><trkpt lat="38.97928566" lon="-0.50797669"><ele>200.4</ele><time>2022-11-13T17:00:37.0000000+00:00</time></trkpt><trkpt lat="38.97929429" lon="-0.50796521"><ele>200.4</ele><time>2022-11-13T17:00:38.0000000+00:00</time></trkpt><trkpt lat="38.97930577" lon="-0.50795515"><ele>200.6</ele><time>2022-11-13T17:00:39.0000000+00:00</time></trkpt><trkpt lat="38.97932136" lon="-0.50794593"><ele>200.6</ele><time>2022-11-13T17:00:40.0000000+00:00</time></trkpt><trkpt lat="38.97932882" lon="-0.50793956"><ele>200.6</ele><time>2022-11-13T17:00:41.0000000+00:00</time></trkpt><trkpt lat="38.97933737" lon="-0.50792925"><ele>200.6</ele><time>2022-11-13T17:00:42.0000000+00:00</time></trkpt><trkpt lat="38.9793481" lon="-0.5079155"><ele>200.8</ele><time>2022-11-13T17:00:43.0000000+00:00</time></trkpt><trkpt lat="38.97935682" lon="-0.50790578"><ele>200.8</ele><time>2022-11-13T17:00:44.0000000+00:00</time></trkpt><trkpt lat="38.97936403" lon="-0.50789447"><ele>200.8</ele><time>2022-11-13T17:00:45.0000000+00:00</time></trkpt><trkpt lat="38.97936855" lon="-0.50788541"><ele>200.8</ele><time>2022-11-13T17:00:46.0000000+00:00</time></trkpt><trkpt lat="38.97937459" lon="-0.50788047"><ele>201.0</ele><time>2022-11-13T17:00:47.0000000+00:00</time></trkpt><trkpt lat="38.97938071" lon="-0.50787292"><ele>201.0</ele><time>2022-11-13T17:00:48.0000000+00:00</time></trkpt><trkpt lat="38.97939093" lon="-0.50786211"><ele>201.0</ele><time>2022-11-13T17:00:49.0000000+00:00</time></trkpt><trkpt lat="38.97940225" lon="-0.50785624"><ele>201.2</ele><time>2022-11-13T17:00:50.0000000+00:00</time></trkpt><trkpt lat="38.97941122" lon="-0.50784686"><ele>201.2</ele><time>2022-11-13T17:00:51.0000000+00:00</time></trkpt><trkpt lat="38.97941558" lon="-0.50783881"><ele>201.2</ele><time>2022-11-13T17:00:52.0000000+00:00</time></trkpt><trkpt lat="38.97941809" lon="-0.50783604"><ele>201.2</ele><time>2022-11-13T17:00:53.0000000+00:00</time></trkpt><trkpt lat="38.97941667" lon="-0.50783621"><ele>201.4</ele><time>2022-11-13T17:00:54.0000000+00:00</time></trkpt><trkpt lat="38.97942354" lon="-0.50784057"><ele>201.4</ele><time>2022-11-13T17:00:55.0000000+00:00</time></trkpt><trkpt lat="38.97942413" lon="-0.50784107"><ele>201.4</ele><time>2022-11-13T17:00:56.0000000+00:00</time></trkpt><trkpt lat="38.97942916" lon="-0.50784158"><ele>201.4</ele><time>2022-11-13T17:00:57.0000000+00:00</time></trkpt><trkpt lat="38.97943779" lon="-0.5078435"><ele>201.4</ele><time>2022-11-13T17:00:58.0000000+00:00</time></trkpt><trkpt lat="38.97944852" lon="-0.50784342"><ele>201.4</ele><time>2022-11-13T17:00:59.0000000+00:00</time></trkpt><trkpt lat="38.97945774" lon="-0.5078404"><ele>201.4</ele><time>2022-11-13T17:01:00.0000000+00:00</time></trkpt><trkpt lat="38.9794652" lon="-0.50783755"><ele>201.4</ele><time>2022-11-13T17:01:01.0000000+00:00</time></trkpt><trkpt lat="38.9794719" lon="-0.50783412"><ele>201.4</ele><time>2022-11-13T17:01:02.0000000+00:00</time></trkpt><trkpt lat="38.97948129" lon="-0.50782657"><ele>201.6</ele><time>2022-11-13T17:01:03.0000000+00:00</time></trkpt><trkpt lat="38.97948909" lon="-0.5078233"><ele>201.6</ele><time>2022-11-13T17:01:04.0000000+00:00</time></trkpt><trkpt lat="38.97949596" lon="-0.5078197"><ele>201.8</ele><time>2022-11-13T17:01:05.0000000+00:00</time></trkpt><trkpt lat="38.97950753" lon="-0.50781149"><ele>201.8</ele><time>2022-11-13T17:01:06.0000000+00:00</time></trkpt><trkpt lat="38.97951918" lon="-0.50780294"><ele>202.0</ele><time>2022-11-13T17:01:07.0000000+00:00</time></trkpt><trkpt lat="38.97953192" lon="-0.50779296"><ele>202.0</ele><time>2022-11-13T17:01:08.0000000+00:00</time></trkpt><trkpt lat="38.97954608" lon="-0.50778366"><ele>202.0</ele><time>2022-11-13T17:01:09.0000000+00:00</time></trkpt><trkpt lat="38.97955841" lon="-0.50777553"><ele>202.2</ele><time>2022-11-13T17:01:10.0000000+00:00</time></trkpt><trkpt lat="38.9795724" lon="-0.50776698"><ele>202.2</ele><time>2022-11-13T17:01:11.0000000+00:00</time></trkpt><trkpt lat="38.97958481" lon="-0.50775876"><ele>202.4</ele><time>2022-11-13T17:01:12.0000000+00:00</time></trkpt><trkpt lat="38.97959453" lon="-0.50775063"><ele>202.4</ele><time>2022-11-13T17:01:13.0000000+00:00</time></trkpt><trkpt lat="38.97960166" lon="-0.50774057"><ele>202.4</ele><time>2022-11-13T17:01:14.0000000+00:00</time></trkpt><trkpt lat="38.97960551" lon="-0.50773236"><ele>202.4</ele><time>2022-11-13T17:01:15.0000000+00:00</time></trkpt><trkpt lat="38.97961456" lon="-0.50772498"><ele>202.6</ele><time>2022-11-13T17:01:16.0000000+00:00</time></trkpt><trkpt lat="38.97962932" lon="-0.50771669"><ele>202.6</ele><time>2022-11-13T17:01:17.0000000+00:00</time></trkpt><trkpt lat="38.97964491" lon="-0.50770931"><ele>202.8</ele><time>2022-11-13T17:01:18.0000000+00:00</time></trkpt><trkpt lat="38.97965681" lon="-0.50770084"><ele>202.8</ele><time>2022-11-13T17:01:19.0000000+00:00</time></trkpt><trkpt lat="38.97966771" lon="-0.50769456"><ele>203.0</ele><time>2022-11-13T17:01:20.0000000+00:00</time></trkpt><trkpt lat="38.97967475" lon="-0.50769171"><ele>203.0</ele><time>2022-11-13T17:01:21.0000000+00:00</time></trkpt><trkpt lat="38.97968279" lon="-0.50768676"><ele>203.0</ele><time>2022-11-13T17:01:22.0000000+00:00</time></trkpt><trkpt lat="38.97969218" lon="-0.50767922"><ele>203.2</ele><time>2022-11-13T17:01:23.0000000+00:00</time></trkpt><trkpt lat="38.97970576" lon="-0.5076622"><ele>203.2</ele><time>2022-11-13T17:01:24.0000000+00:00</time></trkpt><trkpt lat="38.97971858" lon="-0.5076498"><ele>203.4</ele><time>2022-11-13T17:01:25.0000000+00:00</time></trkpt><trkpt lat="38.97973409" lon="-0.50763823"><ele>203.4</ele><time>2022-11-13T17:01:26.0000000+00:00</time></trkpt><trkpt lat="38.97974365" lon="-0.50763656"><ele>203.4</ele><time>2022-11-13T17:01:27.0000000+00:00</time></trkpt><trkpt lat="38.97975077" lon="-0.50763371"><ele>203.4</ele><time>2022-11-13T17:01:28.0000000+00:00</time></trkpt><trkpt lat="38.97976376" lon="-0.50762557"><ele>203.4</ele><time>2022-11-13T17:01:29.0000000+00:00</time></trkpt><trkpt lat="38.97977994" lon="-0.50761761"><ele>203.6</ele><time>2022-11-13T17:01:30.0000000+00:00</time></trkpt><trkpt lat="38.97978572" lon="-0.50761149"><ele>203.8</ele><time>2022-11-13T17:01:31.0000000+00:00</time></trkpt><trkpt lat="38.97979226" lon="-0.5076104"><ele>203.8</ele><time>2022-11-13T17:01:32.0000000+00:00</time></trkpt><trkpt lat="38.9798014" lon="-0.50760219"><ele>203.8</ele><time>2022-11-13T17:01:33.0000000+00:00</time></trkpt><trkpt lat="38.97980416" lon="-0.50759699"><ele>203.8</ele><time>2022-11-13T17:01:34.0000000+00:00</time></trkpt><trkpt lat="38.97981481" lon="-0.50759632"><ele>203.8</ele><time>2022-11-13T17:01:35.0000000+00:00</time></trkpt><trkpt lat="38.97982713" lon="-0.50759791"><ele>203.8</ele><time>2022-11-13T17:01:36.0000000+00:00</time></trkpt><trkpt lat="38.97984171" lon="-0.5076016"><ele>203.8</ele><time>2022-11-13T17:01:37.0000000+00:00</time></trkpt><trkpt lat="38.97985001" lon="-0.50760127"><ele>204.0</ele><time>2022-11-13T17:01:38.0000000+00:00</time></trkpt><trkpt lat="38.97986217" lon="-0.50759045"><ele>204.2</ele><time>2022-11-13T17:01:39.0000000+00:00</time></trkpt><trkpt lat="38.97987373" lon="-0.50757897"><ele>204.4</ele><time>2022-11-13T17:01:40.0000000+00:00</time></trkpt><trkpt lat="38.97988488" lon="-0.50756925"><ele>204.6</ele><time>2022-11-13T17:01:41.0000000+00:00</time></trkpt><trkpt lat="38.97989687" lon="-0.50756648"><ele>204.6</ele><time>2022-11-13T17:01:42.0000000+00:00</time></trkpt><trkpt lat="38.97991271" lon="-0.5075612"><ele>204.6</ele><time>2022-11-13T17:01:43.0000000+00:00</time></trkpt><trkpt lat="38.97992956" lon="-0.50755248"><ele>204.6</ele><time>2022-11-13T17:01:44.0000000+00:00</time></trkpt><trkpt lat="38.97994733" lon="-0.50755181"><ele>204.6</ele><time>2022-11-13T17:01:45.0000000+00:00</time></trkpt><trkpt lat="38.97996157" lon="-0.5075462"><ele>204.6</ele><time>2022-11-13T17:01:46.0000000+00:00</time></trkpt><trkpt lat="38.97998001" lon="-0.50754075"><ele>204.6</ele><time>2022-11-13T17:01:47.0000000+00:00</time></trkpt><trkpt lat="38.97998932" lon="-0.50752834"><ele>204.8</ele><time>2022-11-13T17:01:48.0000000+00:00</time></trkpt><trkpt lat="38.97999971" lon="-0.50751175"><ele>204.8</ele><time>2022-11-13T17:01:49.0000000+00:00</time></trkpt><trkpt lat="38.98000357" lon="-0.50750043"><ele>204.8</ele><time>2022-11-13T17:01:50.0000000+00:00</time></trkpt><trkpt lat="38.98000566" lon="-0.50748836"><ele>204.8</ele><time>2022-11-13T17:01:51.0000000+00:00</time></trkpt><trkpt lat="38.98001103" lon="-0.50748459"><ele>204.8</ele><time>2022-11-13T17:01:52.0000000+00:00</time></trkpt><trkpt lat="38.98002067" lon="-0.50748543"><ele>204.8</ele><time>2022-11-13T17:01:53.0000000+00:00</time></trkpt><trkpt lat="38.98002544" lon="-0.50748174"><ele>204.8</ele><time>2022-11-13T17:01:54.0000000+00:00</time></trkpt><trkpt lat="38.98004204" lon="-0.50748836"><ele>204.8</ele><time>2022-11-13T17:01:55.0000000+00:00</time></trkpt><trkpt lat="38.98005042" lon="-0.50748585"><ele>204.8</ele><time>2022-11-13T17:01:56.0000000+00:00</time></trkpt><trkpt lat="38.98004162" lon="-0.50747059"><ele>205.0</ele><time>2022-11-13T17:01:57.0000000+00:00</time></trkpt><trkpt lat="38.98003995" lon="-0.50745961"><ele>205.0</ele><time>2022-11-13T17:01:58.0000000+00:00</time></trkpt><trkpt lat="38.98003944" lon="-0.50743933"><ele>205.2</ele><time>2022-11-13T17:01:59.0000000+00:00</time></trkpt><trkpt lat="38.98004565" lon="-0.5074203"><ele>205.2</ele><time>2022-11-13T17:02:00.0000000+00:00</time></trkpt><trkpt lat="38.98005369" lon="-0.5074048"><ele>205.2</ele><time>2022-11-13T17:02:01.0000000+00:00</time></trkpt><trkpt lat="38.98007071" lon="-0.5073996"><ele>205.2</ele><time>2022-11-13T17:02:02.0000000+00:00</time></trkpt><trkpt lat="38.98008001" lon="-0.50739113"><ele>205.2</ele><time>2022-11-13T17:02:03.0000000+00:00</time></trkpt><trkpt lat="38.98008764" lon="-0.50738728"><ele>205.4</ele><time>2022-11-13T17:02:04.0000000+00:00</time></trkpt><trkpt lat="38.98009979" lon="-0.50738216"><ele>205.4</ele><time>2022-11-13T17:02:05.0000000+00:00</time></trkpt><trkpt lat="38.98011278" lon="-0.50737856"><ele>205.6</ele><time>2022-11-13T17:02:06.0000000+00:00</time></trkpt><trkpt lat="38.98013558" lon="-0.50736968"><ele>205.6</ele><time>2022-11-13T17:02:07.0000000+00:00</time></trkpt><trkpt lat="38.98015511" lon="-0.50736096"><ele>205.8</ele><time>2022-11-13T17:02:08.0000000+00:00</time></trkpt><trkpt lat="38.9801619" lon="-0.50734654"><ele>205.8</ele><time>2022-11-13T17:02:09.0000000+00:00</time></trkpt><trkpt lat="38.9801738" lon="-0.50733506"><ele>205.8</ele><time>2022-11-13T17:02:10.0000000+00:00</time></trkpt><trkpt lat="38.98019786" lon="-0.50733103"><ele>205.8</ele><time>2022-11-13T17:02:11.0000000+00:00</time></trkpt><trkpt lat="38.98021203" lon="-0.50732525"><ele>206.0</ele><time>2022-11-13T17:02:12.0000000+00:00</time></trkpt><trkpt lat="38.98022661" lon="-0.50732374"><ele>206.0</ele><time>2022-11-13T17:02:13.0000000+00:00</time></trkpt><trkpt lat="38.98024245" lon="-0.50732408"><ele>206.0</ele><time>2022-11-13T17:02:14.0000000+00:00</time></trkpt><trkpt lat="38.98024916" lon="-0.50732232"><ele>206.0</ele><time>2022-11-13T17:02:15.0000000+00:00</time></trkpt><trkpt lat="38.98025461" lon="-0.5073167"><ele>206.0</ele><time>2022-11-13T17:02:16.0000000+00:00</time></trkpt><trkpt lat="38.98025829" lon="-0.50731829"><ele>206.2</ele><time>2022-11-13T17:02:17.0000000+00:00</time></trkpt><trkpt lat="38.9802676" lon="-0.50732014"><ele>206.4</ele><time>2022-11-13T17:02:18.0000000+00:00</time></trkpt><trkpt lat="38.980279" lon="-0.50731679"><ele>206.4</ele><time>2022-11-13T17:02:19.0000000+00:00</time></trkpt><trkpt lat="38.9802992" lon="-0.50732919"><ele>206.6</ele><time>2022-11-13T17:02:20.0000000+00:00</time></trkpt><trkpt lat="38.98032007" lon="-0.50734017"><ele>206.6</ele><time>2022-11-13T17:02:21.0000000+00:00</time></trkpt><trkpt lat="38.98033935" lon="-0.50734528"><ele>206.8</ele><time>2022-11-13T17:02:22.0000000+00:00</time></trkpt><trkpt lat="38.98035234" lon="-0.50734218"><ele>207.0</ele><time>2022-11-13T17:02:23.0000000+00:00</time></trkpt><trkpt lat="38.98036022" lon="-0.5073343"><ele>207.2</ele><time>2022-11-13T17:02:24.0000000+00:00</time></trkpt><trkpt lat="38.98037916" lon="-0.50732894"><ele>207.4</ele><time>2022-11-13T17:02:25.0000000+00:00</time></trkpt><trkpt lat="38.98039383" lon="-0.50732651"><ele>207.4</ele><time>2022-11-13T17:02:26.0000000+00:00</time></trkpt><trkpt lat="38.98041093" lon="-0.50732676"><ele>207.4</ele><time>2022-11-13T17:02:27.0000000+00:00</time></trkpt><trkpt lat="38.98041311" lon="-0.50731419"><ele>207.4</ele><time>2022-11-13T17:02:28.0000000+00:00</time></trkpt><trkpt lat="38.98042375" lon="-0.50730639"><ele>207.4</ele><time>2022-11-13T17:02:29.0000000+00:00</time></trkpt><trkpt lat="38.98042082" lon="-0.50729189"><ele>207.6</ele><time>2022-11-13T17:02:30.0000000+00:00</time></trkpt><trkpt lat="38.9804261" lon="-0.50728376"><ele>207.6</ele><time>2022-11-13T17:02:31.0000000+00:00</time></trkpt><trkpt lat="38.98043398" lon="-0.50727672"><ele>207.6</ele><time>2022-11-13T17:02:32.0000000+00:00</time></trkpt><trkpt lat="38.98043683" lon="-0.50726063"><ele>207.8</ele><time>2022-11-13T17:02:33.0000000+00:00</time></trkpt><trkpt lat="38.98043633" lon="-0.5072416"><ele>207.8</ele><time>2022-11-13T17:02:34.0000000+00:00</time></trkpt><trkpt lat="38.98043373" lon="-0.5072307"><ele>208.0</ele><time>2022-11-13T17:02:35.0000000+00:00</time></trkpt><trkpt lat="38.98044303" lon="-0.50722467"><ele>208.2</ele><time>2022-11-13T17:02:36.0000000+00:00</time></trkpt><trkpt lat="38.98045368" lon="-0.5072209"><ele>208.4</ele><time>2022-11-13T17:02:37.0000000+00:00</time></trkpt><trkpt lat="38.98046625" lon="-0.50721914"><ele>208.6</ele><time>2022-11-13T17:02:38.0000000+00:00</time></trkpt><trkpt lat="38.98047321" lon="-0.50722148"><ele>208.6</ele><time>2022-11-13T17:02:39.0000000+00:00</time></trkpt><trkpt lat="38.98048318" lon="-0.50721654"><ele>208.8</ele><time>2022-11-13T17:02:40.0000000+00:00</time></trkpt><trkpt lat="38.98050103" lon="-0.50721218"><ele>208.8</ele><time>2022-11-13T17:02:41.0000000+00:00</time></trkpt><trkpt lat="38.98051738" lon="-0.50720723"><ele>209.0</ele><time>2022-11-13T17:02:42.0000000+00:00</time></trkpt><trkpt lat="38.98052886" lon="-0.50719843"><ele>209.2</ele><time>2022-11-13T17:02:43.0000000+00:00</time></trkpt><trkpt lat="38.98054563" lon="-0.50718636"><ele>209.4</ele><time>2022-11-13T17:02:44.0000000+00:00</time></trkpt><trkpt lat="38.9805618" lon="-0.50717756"><ele>209.4</ele><time>2022-11-13T17:02:45.0000000+00:00</time></trkpt><trkpt lat="38.98058787" lon="-0.50718636"><ele>209.6</ele><time>2022-11-13T17:02:46.0000000+00:00</time></trkpt><trkpt lat="38.9805981" lon="-0.50719156"><ele>209.6</ele><time>2022-11-13T17:02:47.0000000+00:00</time></trkpt><trkpt lat="38.98060187" lon="-0.50718452"><ele>209.6</ele><time>2022-11-13T17:02:48.0000000+00:00</time></trkpt><trkpt lat="38.98061377" lon="-0.50717622"><ele>209.8</ele><time>2022-11-13T17:02:49.0000000+00:00</time></trkpt><trkpt lat="38.9806354" lon="-0.50716323"><ele>210.0</ele><time>2022-11-13T17:02:50.0000000+00:00</time></trkpt><trkpt lat="38.98064537" lon="-0.50715393"><ele>210.0</ele><time>2022-11-13T17:02:51.0000000+00:00</time></trkpt><trkpt lat="38.98065878" lon="-0.50714948"><ele>210.2</ele><time>2022-11-13T17:02:52.0000000+00:00</time></trkpt><trkpt lat="38.9806727" lon="-0.50714898"><ele>210.2</ele><time>2022-11-13T17:02:53.0000000+00:00</time></trkpt><trkpt lat="38.9806856" lon="-0.50714454"><ele>210.4</ele><time>2022-11-13T17:02:54.0000000+00:00</time></trkpt><trkpt lat="38.98069658" lon="-0.50714563"><ele>210.4</ele><time>2022-11-13T17:02:55.0000000+00:00</time></trkpt><trkpt lat="38.980711" lon="-0.50714898"><ele>210.6</ele><time>2022-11-13T17:02:56.0000000+00:00</time></trkpt><trkpt lat="38.98072483" lon="-0.50714647"><ele>210.8</ele><time>2022-11-13T17:02:57.0000000+00:00</time></trkpt><trkpt lat="38.98073254" lon="-0.50714529"><ele>211.0</ele><time>2022-11-13T17:02:58.0000000+00:00</time></trkpt><trkpt lat="38.98074067" lon="-0.50713993"><ele>211.0</ele><time>2022-11-13T17:02:59.0000000+00:00</time></trkpt><trkpt lat="38.98075031" lon="-0.50712207"><ele>211.2</ele><time>2022-11-13T17:03:00.0000000+00:00</time></trkpt><trkpt lat="38.98076112" lon="-0.50710808"><ele>211.2</ele><time>2022-11-13T17:03:01.0000000+00:00</time></trkpt><trkpt lat="38.98077076" lon="-0.50710003"><ele>211.2</ele><time>2022-11-13T17:03:02.0000000+00:00</time></trkpt><trkpt lat="38.980782" lon="-0.50709575"><ele>211.2</ele><time>2022-11-13T17:03:03.0000000+00:00</time></trkpt><trkpt lat="38.98079264" lon="-0.50709022"><ele>211.4</ele><time>2022-11-13T17:03:04.0000000+00:00</time></trkpt><trkpt lat="38.98080706" lon="-0.50708276"><ele>211.6</ele><time>2022-11-13T17:03:05.0000000+00:00</time></trkpt><trkpt lat="38.9808239" lon="-0.50707815"><ele>211.8</ele><time>2022-11-13T17:03:06.0000000+00:00</time></trkpt><trkpt lat="38.98083606" lon="-0.50707782"><ele>212.0</ele><time>2022-11-13T17:03:07.0000000+00:00</time></trkpt><trkpt lat="38.98084997" lon="-0.50707413"><ele>212.0</ele><time>2022-11-13T17:03:08.0000000+00:00</time></trkpt><trkpt lat="38.98086531" lon="-0.50707472"><ele>212.2</ele><time>2022-11-13T17:03:09.0000000+00:00</time></trkpt><trkpt lat="38.9808778" lon="-0.50707463"><ele>212.2</ele><time>2022-11-13T17:03:10.0000000+00:00</time></trkpt><trkpt lat="38.98088828" lon="-0.50706851"><ele>212.4</ele><time>2022-11-13T17:03:11.0000000+00:00</time></trkpt><trkpt lat="38.98089649" lon="-0.50706265"><ele>212.4</ele><time>2022-11-13T17:03:12.0000000+00:00</time></trkpt><trkpt lat="38.98091426" lon="-0.50706198"><ele>212.4</ele><time>2022-11-13T17:03:13.0000000+00:00</time></trkpt><trkpt lat="38.98092248" lon="-0.50705804"><ele>212.6</ele><time>2022-11-13T17:03:14.0000000+00:00</time></trkpt><trkpt lat="38.9809327" lon="-0.50704706"><ele>212.6</ele><time>2022-11-13T17:03:15.0000000+00:00</time></trkpt><trkpt lat="38.98094511" lon="-0.50703532"><ele>212.8</ele><time>2022-11-13T17:03:16.0000000+00:00</time></trkpt><trkpt lat="38.9809503" lon="-0.50703012"><ele>212.8</ele><time>2022-11-13T17:03:17.0000000+00:00</time></trkpt><trkpt lat="38.9809555" lon="-0.50703063"><ele>213.0</ele><time>2022-11-13T17:03:18.0000000+00:00</time></trkpt><trkpt lat="38.98096531" lon="-0.50702962"><ele>213.0</ele><time>2022-11-13T17:03:19.0000000+00:00</time></trkpt><trkpt lat="38.98097511" lon="-0.50701822"><ele>213.2</ele><time>2022-11-13T17:03:20.0000000+00:00</time></trkpt><trkpt lat="38.98098165" lon="-0.50700816"><ele>213.2</ele><time>2022-11-13T17:03:21.0000000+00:00</time></trkpt><trkpt lat="38.98099179" lon="-0.50699442"><ele>213.4</ele><time>2022-11-13T17:03:22.0000000+00:00</time></trkpt><trkpt lat="38.98099909" lon="-0.50698495"><ele>213.6</ele><time>2022-11-13T17:03:23.0000000+00:00</time></trkpt><trkpt lat="38.98100814" lon="-0.50697614"><ele>213.8</ele><time>2022-11-13T17:03:24.0000000+00:00</time></trkpt><trkpt lat="38.98101669" lon="-0.50697095"><ele>214.0</ele><time>2022-11-13T17:03:25.0000000+00:00</time></trkpt><trkpt lat="38.98102331" lon="-0.50696584"><ele>214.0</ele><time>2022-11-13T17:03:26.0000000+00:00</time></trkpt><trkpt lat="38.98103379" lon="-0.50696173"><ele>214.2</ele><time>2022-11-13T17:03:27.0000000+00:00</time></trkpt><trkpt lat="38.98104753" lon="-0.50695645"><ele>214.2</ele><time>2022-11-13T17:03:28.0000000+00:00</time></trkpt><trkpt lat="38.98106346" lon="-0.50695343"><ele>214.4</ele><time>2022-11-13T17:03:29.0000000+00:00</time></trkpt><trkpt lat="38.98107276" lon="-0.50695251"><ele>214.4</ele><time>2022-11-13T17:03:30.0000000+00:00</time></trkpt><trkpt lat="38.98107788" lon="-0.50694882"><ele>214.6</ele><time>2022-11-13T17:03:31.0000000+00:00</time></trkpt><trkpt lat="38.98108626" lon="-0.50694438"><ele>214.8</ele><time>2022-11-13T17:03:32.0000000+00:00</time></trkpt><trkpt lat="38.98109565" lon="-0.50694228"><ele>214.8</ele><time>2022-11-13T17:03:33.0000000+00:00</time></trkpt><trkpt lat="38.98110202" lon="-0.50694304"><ele>215.0</ele><time>2022-11-13T17:03:34.0000000+00:00</time></trkpt><trkpt lat="38.98111182" lon="-0.50693952"><ele>215.2</ele><time>2022-11-13T17:03:35.0000000+00:00</time></trkpt><trkpt lat="38.98112129" lon="-0.50693968"><ele>215.2</ele><time>2022-11-13T17:03:36.0000000+00:00</time></trkpt><trkpt lat="38.98113395" lon="-0.50693918"><ele>215.4</ele><time>2022-11-13T17:03:37.0000000+00:00</time></trkpt><trkpt lat="38.98114921" lon="-0.50693843"><ele>215.4</ele><time>2022-11-13T17:03:38.0000000+00:00</time></trkpt><trkpt lat="38.98115675" lon="-0.50693591"><ele>215.4</ele><time>2022-11-13T17:03:39.0000000+00:00</time></trkpt><trkpt lat="38.98116438" lon="-0.50693499"><ele>215.6</ele><time>2022-11-13T17:03:40.0000000+00:00</time></trkpt><trkpt lat="38.98116672" lon="-0.50693591"><ele>215.8</ele><time>2022-11-13T17:03:41.0000000+00:00</time></trkpt><trkpt lat="38.98117117" lon="-0.50693692"><ele>216.0</ele><time>2022-11-13T17:03:42.0000000+00:00</time></trkpt><trkpt lat="38.98117821" lon="-0.50693608"><ele>216.0</ele><time>2022-11-13T17:03:43.0000000+00:00</time></trkpt><trkpt lat="38.98118164" lon="-0.50693315"><ele>216.0</ele><time>2022-11-13T17:03:44.0000000+00:00</time></trkpt><trkpt lat="38.98118273" lon="-0.50693071"><ele>216.0</ele><time>2022-11-13T17:03:45.0000000+00:00</time></trkpt><trkpt lat="38.9811834" lon="-0.50692921"><ele>216.2</ele><time>2022-11-13T17:03:46.0000000+00:00</time></trkpt><trkpt lat="38.98118391" lon="-0.50692879"><ele>216.2</ele><time>2022-11-13T17:03:47.0000000+00:00</time></trkpt><trkpt lat="38.98118483" lon="-0.50692929"><ele>216.2</ele><time>2022-11-13T17:03:48.0000000+00:00</time></trkpt><trkpt lat="38.981185" lon="-0.50693004"><ele>216.2</ele><time>2022-11-13T17:03:49.0000000+00:00</time></trkpt><trkpt lat="38.9811876" lon="-0.50692979"><ele>216.2</ele><time>2022-11-13T17:03:50.0000000+00:00</time></trkpt><trkpt lat="38.98118944" lon="-0.50693021"><ele>216.2</ele><time>2022-11-13T17:03:51.0000000+00:00</time></trkpt><trkpt lat="38.98119003" lon="-0.50693289"><ele>216.4</ele><time>2022-11-13T17:03:52.0000000+00:00</time></trkpt><trkpt lat="38.98118952" lon="-0.5069344"><ele>216.4</ele><time>2022-11-13T17:03:53.0000000+00:00</time></trkpt><trkpt lat="38.98119254" lon="-0.50693616"><ele>216.4</ele><time>2022-11-13T17:03:54.0000000+00:00</time></trkpt><trkpt lat="38.98120134" lon="-0.50693868"><ele>216.4</ele><time>2022-11-13T17:03:55.0000000+00:00</time></trkpt><trkpt lat="38.98121308" lon="-0.50693776"><ele>216.4</ele><time>2022-11-13T17:03:56.0000000+00:00</time></trkpt><trkpt lat="38.98122431" lon="-0.50693432"><ele>216.4</ele><time>2022-11-13T17:03:57.0000000+00:00</time></trkpt><trkpt lat="38.98123764" lon="-0.50693348"><ele>216.4</ele><time>2022-11-13T17:03:58.0000000+00:00</time></trkpt><trkpt lat="38.98125339" lon="-0.50693273"><ele>216.4</ele><time>2022-11-13T17:03:59.0000000+00:00</time></trkpt><trkpt lat="38.98126161" lon="-0.50692879"><ele>216.4</ele><time>2022-11-13T17:04:00.0000000+00:00</time></trkpt><trkpt lat="38.98126655" lon="-0.50692803"><ele>216.6</ele><time>2022-11-13T17:04:01.0000000+00:00</time></trkpt><trkpt lat="38.98128189" lon="-0.50692686"><ele>216.6</ele><time>2022-11-13T17:04:02.0000000+00:00</time></trkpt><trkpt lat="38.98129229" lon="-0.50692828"><ele>216.6</ele><time>2022-11-13T17:04:03.0000000+00:00</time></trkpt><trkpt lat="38.98129933" lon="-0.5069194"><ele>216.8</ele><time>2022-11-13T17:04:04.0000000+00:00</time></trkpt><trkpt lat="38.98130058" lon="-0.50691429"><ele>216.8</ele><time>2022-11-13T17:04:05.0000000+00:00</time></trkpt><trkpt lat="38.98131039" lon="-0.50691881"><ele>217.0</ele><time>2022-11-13T17:04:06.0000000+00:00</time></trkpt><trkpt lat="38.98132254" lon="-0.50693055"><ele>217.0</ele><time>2022-11-13T17:04:07.0000000+00:00</time></trkpt><trkpt lat="38.98133746" lon="-0.50693683"><ele>217.2</ele><time>2022-11-13T17:04:08.0000000+00:00</time></trkpt><trkpt lat="38.98135314" lon="-0.50693574"><ele>217.2</ele><time>2022-11-13T17:04:09.0000000+00:00</time></trkpt><trkpt lat="38.98137141" lon="-0.50692661"><ele>217.2</ele><time>2022-11-13T17:04:10.0000000+00:00</time></trkpt><trkpt lat="38.98138315" lon="-0.50691445"><ele>217.4</ele><time>2022-11-13T17:04:11.0000000+00:00</time></trkpt><trkpt lat="38.98139622" lon="-0.50690431"><ele>217.4</ele><time>2022-11-13T17:04:12.0000000+00:00</time></trkpt><trkpt lat="38.98141097" lon="-0.50689467"><ele>217.4</ele><time>2022-11-13T17:04:13.0000000+00:00</time></trkpt><trkpt lat="38.98142472" lon="-0.50688503"><ele>217.6</ele><time>2022-11-13T17:04:14.0000000+00:00</time></trkpt><trkpt lat="38.98143981" lon="-0.50687674"><ele>217.6</ele><time>2022-11-13T17:04:15.0000000+00:00</time></trkpt><trkpt lat="38.98144903" lon="-0.50687229"><ele>217.6</ele><time>2022-11-13T17:04:16.0000000+00:00</time></trkpt><trkpt lat="38.9814637" lon="-0.50686291"><ele>217.8</ele><time>2022-11-13T17:04:17.0000000+00:00</time></trkpt><trkpt lat="38.98147727" lon="-0.50685863"><ele>217.8</ele><time>2022-11-13T17:04:18.0000000+00:00</time></trkpt><trkpt lat="38.98149555" lon="-0.50684983"><ele>218.0</ele><time>2022-11-13T17:04:19.0000000+00:00</time></trkpt><trkpt lat="38.98150577" lon="-0.50683768"><ele>218.0</ele><time>2022-11-13T17:04:20.0000000+00:00</time></trkpt><trkpt lat="38.98151927" lon="-0.50683047"><ele>218.0</ele><time>2022-11-13T17:04:21.0000000+00:00</time></trkpt><trkpt lat="38.98153192" lon="-0.50681882"><ele>218.0</ele><time>2022-11-13T17:04:22.0000000+00:00</time></trkpt><trkpt lat="38.98154534" lon="-0.50681111"><ele>218.2</ele><time>2022-11-13T17:04:23.0000000+00:00</time></trkpt><trkpt lat="38.98157006" lon="-0.50681278"><ele>218.2</ele><time>2022-11-13T17:04:24.0000000+00:00</time></trkpt><trkpt lat="38.98158465" lon="-0.5068065"><ele>218.2</ele><time>2022-11-13T17:04:25.0000000+00:00</time></trkpt><trkpt lat="38.98159227" lon="-0.50679401"><ele>218.4</ele><time>2022-11-13T17:04:26.0000000+00:00</time></trkpt><trkpt lat="38.9816061" lon="-0.50678303"><ele>218.4</ele><time>2022-11-13T17:04:27.0000000+00:00</time></trkpt><trkpt lat="38.98161482" lon="-0.50676693"><ele>218.6</ele><time>2022-11-13T17:04:28.0000000+00:00</time></trkpt><trkpt lat="38.98162236" lon="-0.50675243"><ele>218.6</ele><time>2022-11-13T17:04:29.0000000+00:00</time></trkpt><trkpt lat="38.98162907" lon="-0.5067412"><ele>218.6</ele><time>2022-11-13T17:04:30.0000000+00:00</time></trkpt><trkpt lat="38.98162899" lon="-0.50673424"><ele>218.6</ele><time>2022-11-13T17:04:31.0000000+00:00</time></trkpt><trkpt lat="38.98162572" lon="-0.50672729"><ele>218.8</ele><time>2022-11-13T17:04:32.0000000+00:00</time></trkpt><trkpt lat="38.98162798" lon="-0.50671605"><ele>218.8</ele><time>2022-11-13T17:04:33.0000000+00:00</time></trkpt><trkpt lat="38.98163997" lon="-0.50670289"><ele>218.8</ele><time>2022-11-13T17:04:34.0000000+00:00</time></trkpt><trkpt lat="38.98165396" lon="-0.50668487"><ele>218.8</ele><time>2022-11-13T17:04:35.0000000+00:00</time></trkpt><trkpt lat="38.9816621" lon="-0.50666442"><ele>219.0</ele><time>2022-11-13T17:04:36.0000000+00:00</time></trkpt><trkpt lat="38.98166637" lon="-0.50663928"><ele>219.0</ele><time>2022-11-13T17:04:37.0000000+00:00</time></trkpt><trkpt lat="38.98166947" lon="-0.50661874"><ele>219.0</ele><time>2022-11-13T17:04:38.0000000+00:00</time></trkpt><trkpt lat="38.98167584" lon="-0.50660499"><ele>219.2</ele><time>2022-11-13T17:04:39.0000000+00:00</time></trkpt><trkpt lat="38.98168481" lon="-0.50659074"><ele>219.2</ele><time>2022-11-13T17:04:40.0000000+00:00</time></trkpt><trkpt lat="38.9816921" lon="-0.50657038"><ele>219.2</ele><time>2022-11-13T17:04:41.0000000+00:00</time></trkpt><trkpt lat="38.98169755" lon="-0.50655412"><ele>219.2</ele><time>2022-11-13T17:04:42.0000000+00:00</time></trkpt><trkpt lat="38.98170644" lon="-0.50654205"><ele>219.2</ele><time>2022-11-13T17:04:43.0000000+00:00</time></trkpt><trkpt lat="38.98171264" lon="-0.50652671"><ele>219.4</ele><time>2022-11-13T17:04:44.0000000+00:00</time></trkpt><trkpt lat="38.9817201" lon="-0.50651263"><ele>219.4</ele><time>2022-11-13T17:04:45.0000000+00:00</time></trkpt><trkpt lat="38.98173208" lon="-0.50649628"><ele>219.4</ele><time>2022-11-13T17:04:46.0000000+00:00</time></trkpt><trkpt lat="38.98173678" lon="-0.50647482"><ele>219.4</ele><time>2022-11-13T17:04:47.0000000+00:00</time></trkpt><trkpt lat="38.98173703" lon="-0.50646326"><ele>219.4</ele><time>2022-11-13T17:04:48.0000000+00:00</time></trkpt><trkpt lat="38.98173804" lon="-0.50645228"><ele>219.4</ele><time>2022-11-13T17:04:49.0000000+00:00</time></trkpt><trkpt lat="38.98173829" lon="-0.50643685"><ele>219.6</ele><time>2022-11-13T17:04:50.0000000+00:00</time></trkpt><trkpt lat="38.98173887" lon="-0.50642026"><ele>219.6</ele><time>2022-11-13T17:04:51.0000000+00:00</time></trkpt><trkpt lat="38.98173301" lon="-0.5063869"><ele>219.8</ele><time>2022-11-13T17:04:52.0000000+00:00</time></trkpt><trkpt lat="38.98173242" lon="-0.5063646"><ele>219.8</ele><time>2022-11-13T17:04:53.0000000+00:00</time></trkpt><trkpt lat="38.98173175" lon="-0.50635044"><ele>219.8</ele><time>2022-11-13T17:04:54.0000000+00:00</time></trkpt><trkpt lat="38.98172546" lon="-0.50633912"><ele>219.8</ele><time>2022-11-13T17:04:55.0000000+00:00</time></trkpt><trkpt lat="38.98172186" lon="-0.50632244"><ele>219.8</ele><time>2022-11-13T17:04:56.0000000+00:00</time></trkpt><trkpt lat="38.98172219" lon="-0.50630677"><ele>219.8</ele><time>2022-11-13T17:04:57.0000000+00:00</time></trkpt><trkpt lat="38.98172244" lon="-0.5062957"><ele>220.0</ele><time>2022-11-13T17:04:58.0000000+00:00</time></trkpt><trkpt lat="38.98172186" lon="-0.50628397"><ele>220.0</ele><time>2022-11-13T17:04:59.0000000+00:00</time></trkpt><trkpt lat="38.98171498" lon="-0.50626561"><ele>220.0</ele><time>2022-11-13T17:05:00.0000000+00:00</time></trkpt><trkpt lat="38.98171415" lon="-0.50624767"><ele>220.0</ele><time>2022-11-13T17:05:01.0000000+00:00</time></trkpt><trkpt lat="38.98171046" lon="-0.50622865"><ele>220.0</ele><time>2022-11-13T17:05:02.0000000+00:00</time></trkpt><trkpt lat="38.98170342" lon="-0.50620878"><ele>220.2</ele><time>2022-11-13T17:05:03.0000000+00:00</time></trkpt><trkpt lat="38.98170157" lon="-0.50618414"><ele>220.2</ele><time>2022-11-13T17:05:04.0000000+00:00</time></trkpt><trkpt lat="38.98170191" lon="-0.50616947"><ele>220.2</ele><time>2022-11-13T17:05:05.0000000+00:00</time></trkpt><trkpt lat="38.98170861" lon="-0.50615212"><ele>220.2</ele><time>2022-11-13T17:05:06.0000000+00:00</time></trkpt><trkpt lat="38.98171121" lon="-0.50613293"><ele>220.2</ele><time>2022-11-13T17:05:07.0000000+00:00</time></trkpt><trkpt lat="38.98171415" lon="-0.5061144"><ele>220.2</ele><time>2022-11-13T17:05:08.0000000+00:00</time></trkpt><trkpt lat="38.98171549" lon="-0.50609722"><ele>220.4</ele><time>2022-11-13T17:05:09.0000000+00:00</time></trkpt><trkpt lat="38.9817154" lon="-0.50607073"><ele>220.4</ele><time>2022-11-13T17:05:10.0000000+00:00</time></trkpt><trkpt lat="38.98171381" lon="-0.5060502"><ele>220.4</ele><time>2022-11-13T17:05:11.0000000+00:00</time></trkpt><trkpt lat="38.98171775" lon="-0.50603226"><ele>220.4</ele><time>2022-11-13T17:05:12.0000000+00:00</time></trkpt><trkpt lat="38.98172027" lon="-0.50602061"><ele>220.4</ele><time>2022-11-13T17:05:13.0000000+00:00</time></trkpt><trkpt lat="38.98172798" lon="-0.5060113"><ele>220.4</ele><time>2022-11-13T17:05:14.0000000+00:00</time></trkpt><trkpt lat="38.9817398" lon="-0.50599831"><ele>220.6</ele><time>2022-11-13T17:05:15.0000000+00:00</time></trkpt><trkpt lat="38.98175715" lon="-0.50599219"><ele>220.6</ele><time>2022-11-13T17:05:16.0000000+00:00</time></trkpt><trkpt lat="38.98177106" lon="-0.50597694"><ele>220.6</ele><time>2022-11-13T17:05:17.0000000+00:00</time></trkpt><trkpt lat="38.98177517" lon="-0.50595598"><ele>220.6</ele><time>2022-11-13T17:05:18.0000000+00:00</time></trkpt><trkpt lat="38.98177458" lon="-0.50593494"><ele>220.8</ele><time>2022-11-13T17:05:19.0000000+00:00</time></trkpt><trkpt lat="38.98177098" lon="-0.50591542"><ele>221.0</ele><time>2022-11-13T17:05:20.0000000+00:00</time></trkpt><trkpt lat="38.98177735" lon="-0.50590234"><ele>221.0</ele><time>2022-11-13T17:05:21.0000000+00:00</time></trkpt><trkpt lat="38.98177877" lon="-0.50588658"><ele>221.0</ele><time>2022-11-13T17:05:22.0000000+00:00</time></trkpt><trkpt lat="38.98178665" lon="-0.50587325"><ele>221.0</ele><time>2022-11-13T17:05:23.0000000+00:00</time></trkpt><trkpt lat="38.98179889" lon="-0.50585909"><ele>221.0</ele><time>2022-11-13T17:05:24.0000000+00:00</time></trkpt><trkpt lat="38.98181456" lon="-0.50584509"><ele>221.0</ele><time>2022-11-13T17:05:25.0000000+00:00</time></trkpt><trkpt lat="38.98182965" lon="-0.50583067"><ele>221.0</ele><time>2022-11-13T17:05:26.0000000+00:00</time></trkpt><trkpt lat="38.98184189" lon="-0.5058155"><ele>221.2</ele><time>2022-11-13T17:05:27.0000000+00:00</time></trkpt><trkpt lat="38.98184759" lon="-0.50580268"><ele>221.2</ele><time>2022-11-13T17:05:28.0000000+00:00</time></trkpt><trkpt lat="38.98185069" lon="-0.50577845"><ele>221.4</ele><time>2022-11-13T17:05:29.0000000+00:00</time></trkpt><trkpt lat="38.98185245" lon="-0.50576454"><ele>221.4</ele><time>2022-11-13T17:05:30.0000000+00:00</time></trkpt><trkpt lat="38.98185538" lon="-0.50575113"><ele>221.6</ele><time>2022-11-13T17:05:31.0000000+00:00</time></trkpt><trkpt lat="38.981862" lon="-0.50573596"><ele>221.6</ele><time>2022-11-13T17:05:32.0000000+00:00</time></trkpt><trkpt lat="38.98186779" lon="-0.50571668"><ele>221.6</ele><time>2022-11-13T17:05:33.0000000+00:00</time></trkpt><trkpt lat="38.98186452" lon="-0.50570101"><ele>221.6</ele><time>2022-11-13T17:05:34.0000000+00:00</time></trkpt><trkpt lat="38.98186041" lon="-0.50567293"><ele>221.6</ele><time>2022-11-13T17:05:35.0000000+00:00</time></trkpt><trkpt lat="38.98186066" lon="-0.50564837"><ele>221.8</ele><time>2022-11-13T17:05:36.0000000+00:00</time></trkpt><trkpt lat="38.98186661" lon="-0.50563135"><ele>221.8</ele><time>2022-11-13T17:05:37.0000000+00:00</time></trkpt><trkpt lat="38.98187567" lon="-0.50561065"><ele>221.8</ele><time>2022-11-13T17:05:38.0000000+00:00</time></trkpt><trkpt lat="38.98187994" lon="-0.50560067"><ele>222.0</ele><time>2022-11-13T17:05:39.0000000+00:00</time></trkpt><trkpt lat="38.98188774" lon="-0.50559531"><ele>222.2</ele><time>2022-11-13T17:05:40.0000000+00:00</time></trkpt><trkpt lat="38.98189402" lon="-0.50558844"><ele>222.2</ele><time>2022-11-13T17:05:41.0000000+00:00</time></trkpt><trkpt lat="38.981904" lon="-0.50558215"><ele>222.2</ele><time>2022-11-13T17:05:42.0000000+00:00</time></trkpt><trkpt lat="38.98191338" lon="-0.50557536"><ele>222.4</ele><time>2022-11-13T17:05:43.0000000+00:00</time></trkpt><trkpt lat="38.98192168" lon="-0.50556715"><ele>222.6</ele><time>2022-11-13T17:05:44.0000000+00:00</time></trkpt><trkpt lat="38.9819247" lon="-0.50555592"><ele>222.8</ele><time>2022-11-13T17:05:45.0000000+00:00</time></trkpt><trkpt lat="38.98192738" lon="-0.50554133"><ele>222.8</ele><time>2022-11-13T17:05:46.0000000+00:00</time></trkpt><trkpt lat="38.98192889" lon="-0.50552297"><ele>223.0</ele><time>2022-11-13T17:05:47.0000000+00:00</time></trkpt><trkpt lat="38.98193032" lon="-0.50550856"><ele>223.0</ele><time>2022-11-13T17:05:48.0000000+00:00</time></trkpt><trkpt lat="38.98193216" lon="-0.50549104"><ele>223.2</ele><time>2022-11-13T17:05:49.0000000+00:00</time></trkpt><trkpt lat="38.98193702" lon="-0.50547679"><ele>223.4</ele><time>2022-11-13T17:05:50.0000000+00:00</time></trkpt><trkpt lat="38.9819423" lon="-0.50546413"><ele>223.4</ele><time>2022-11-13T17:05:51.0000000+00:00</time></trkpt><trkpt lat="38.98194884" lon="-0.50544963"><ele>223.6</ele><time>2022-11-13T17:05:52.0000000+00:00</time></trkpt><trkpt lat="38.9819594" lon="-0.50543304"><ele>223.8</ele><time>2022-11-13T17:05:53.0000000+00:00</time></trkpt><trkpt lat="38.98196954" lon="-0.5054203"><ele>223.8</ele><time>2022-11-13T17:05:54.0000000+00:00</time></trkpt><trkpt lat="38.98197583" lon="-0.50540797"><ele>224.0</ele><time>2022-11-13T17:05:55.0000000+00:00</time></trkpt><trkpt lat="38.98198262" lon="-0.50539414"><ele>224.0</ele><time>2022-11-13T17:05:56.0000000+00:00</time></trkpt><trkpt lat="38.9819853" lon="-0.5053757"><ele>224.2</ele><time>2022-11-13T17:05:57.0000000+00:00</time></trkpt><trkpt lat="38.98198631" lon="-0.50535869"><ele>224.4</ele><time>2022-11-13T17:05:58.0000000+00:00</time></trkpt><trkpt lat="38.98198195" lon="-0.50533748"><ele>224.6</ele><time>2022-11-13T17:05:59.0000000+00:00</time></trkpt><trkpt lat="38.98198924" lon="-0.50531737"><ele>224.6</ele><time>2022-11-13T17:06:00.0000000+00:00</time></trkpt><trkpt lat="38.9820003" lon="-0.50529926"><ele>224.8</ele><time>2022-11-13T17:06:01.0000000+00:00</time></trkpt><trkpt lat="38.98201581" lon="-0.50529197"><ele>224.8</ele><time>2022-11-13T17:06:02.0000000+00:00</time></trkpt><trkpt lat="38.9820309" lon="-0.50528065"><ele>225.0</ele><time>2022-11-13T17:06:03.0000000+00:00</time></trkpt><trkpt lat="38.98204573" lon="-0.50527018"><ele>225.0</ele><time>2022-11-13T17:06:04.0000000+00:00</time></trkpt><trkpt lat="38.98205915" lon="-0.50526029"><ele>225.2</ele><time>2022-11-13T17:06:05.0000000+00:00</time></trkpt><trkpt lat="38.9820739" lon="-0.50525568"><ele>225.2</ele><time>2022-11-13T17:06:06.0000000+00:00</time></trkpt><trkpt lat="38.98208991" lon="-0.5052478"><ele>225.4</ele><time>2022-11-13T17:06:07.0000000+00:00</time></trkpt><trkpt lat="38.98210332" lon="-0.50524176"><ele>225.4</ele><time>2022-11-13T17:06:08.0000000+00:00</time></trkpt><trkpt lat="38.9821153" lon="-0.5052431"><ele>225.6</ele><time>2022-11-13T17:06:09.0000000+00:00</time></trkpt><trkpt lat="38.98212737" lon="-0.50524763"><ele>225.8</ele><time>2022-11-13T17:06:10.0000000+00:00</time></trkpt><trkpt lat="38.98213232" lon="-0.50524696"><ele>225.8</ele><time>2022-11-13T17:06:11.0000000+00:00</time></trkpt><trkpt lat="38.98213894" lon="-0.5052348"><ele>226.0</ele><time>2022-11-13T17:06:12.0000000+00:00</time></trkpt><trkpt lat="38.98214221" lon="-0.50521905"><ele>226.0</ele><time>2022-11-13T17:06:13.0000000+00:00</time></trkpt><trkpt lat="38.98215177" lon="-0.50521419"><ele>226.2</ele><time>2022-11-13T17:06:14.0000000+00:00</time></trkpt><trkpt lat="38.98216099" lon="-0.505211"><ele>226.2</ele><time>2022-11-13T17:06:15.0000000+00:00</time></trkpt><trkpt lat="38.98217054" lon="-0.50520631"><ele>226.2</ele><time>2022-11-13T17:06:16.0000000+00:00</time></trkpt><trkpt lat="38.98217498" lon="-0.50520136"><ele>226.2</ele><time>2022-11-13T17:06:17.0000000+00:00</time></trkpt><trkpt lat="38.98217691" lon="-0.50519583"><ele>226.4</ele><time>2022-11-13T17:06:18.0000000+00:00</time></trkpt><trkpt lat="38.9821837" lon="-0.50519306"><ele>226.4</ele><time>2022-11-13T17:06:19.0000000+00:00</time></trkpt><trkpt lat="38.98219393" lon="-0.50519072"><ele>226.4</ele><time>2022-11-13T17:06:20.0000000+00:00</time></trkpt><trkpt lat="38.98220516" lon="-0.50518594"><ele>226.4</ele><time>2022-11-13T17:06:21.0000000+00:00</time></trkpt><trkpt lat="38.98221664" lon="-0.50518426"><ele>226.4</ele><time>2022-11-13T17:06:22.0000000+00:00</time></trkpt><trkpt lat="38.98222628" lon="-0.50517974"><ele>226.2</ele><time>2022-11-13T17:06:23.0000000+00:00</time></trkpt><trkpt lat="38.98223542" lon="-0.50517303"><ele>226.2</ele><time>2022-11-13T17:06:24.0000000+00:00</time></trkpt><trkpt lat="38.98225537" lon="-0.5051789"><ele>226.2</ele><time>2022-11-13T17:06:25.0000000+00:00</time></trkpt><trkpt lat="38.98227506" lon="-0.50519063"><ele>226.2</ele><time>2022-11-13T17:06:26.0000000+00:00</time></trkpt><trkpt lat="38.98228982" lon="-0.50519642"><ele>226.2</ele><time>2022-11-13T17:06:27.0000000+00:00</time></trkpt><trkpt lat="38.98229862" lon="-0.50519055"><ele>226.2</ele><time>2022-11-13T17:06:28.0000000+00:00</time></trkpt><trkpt lat="38.98231295" lon="-0.50518887"><ele>226.2</ele><time>2022-11-13T17:06:29.0000000+00:00</time></trkpt><trkpt lat="38.98232879" lon="-0.50519139"><ele>226.2</ele><time>2022-11-13T17:06:30.0000000+00:00</time></trkpt><trkpt lat="38.98233751" lon="-0.50518728"><ele>226.2</ele><time>2022-11-13T17:06:31.0000000+00:00</time></trkpt><trkpt lat="38.98233885" lon="-0.50517873"><ele>226.0</ele><time>2022-11-13T17:06:32.0000000+00:00</time></trkpt><trkpt lat="38.98234472" lon="-0.50516976"><ele>225.8</ele><time>2022-11-13T17:06:33.0000000+00:00</time></trkpt><trkpt lat="38.98235947" lon="-0.50516775"><ele>225.8</ele><time>2022-11-13T17:06:34.0000000+00:00</time></trkpt><trkpt lat="38.98236902" lon="-0.50516306"><ele>225.6</ele><time>2022-11-13T17:06:35.0000000+00:00</time></trkpt><trkpt lat="38.98237431" lon="-0.50515568"><ele>225.4</ele><time>2022-11-13T17:06:36.0000000+00:00</time></trkpt><trkpt lat="38.98238051" lon="-0.5051499"><ele>225.4</ele><time>2022-11-13T17:06:37.0000000+00:00</time></trkpt><trkpt lat="38.98238797" lon="-0.50514855"><ele>225.2</ele><time>2022-11-13T17:06:38.0000000+00:00</time></trkpt><trkpt lat="38.98239635" lon="-0.50514956"><ele>225.2</ele><time>2022-11-13T17:06:39.0000000+00:00</time></trkpt><trkpt lat="38.98240523" lon="-0.50513824"><ele>225.0</ele><time>2022-11-13T17:06:40.0000000+00:00</time></trkpt><trkpt lat="38.98241454" lon="-0.50513011"><ele>225.0</ele><time>2022-11-13T17:06:41.0000000+00:00</time></trkpt><trkpt lat="38.98242393" lon="-0.50512408"><ele>224.8</ele><time>2022-11-13T17:06:42.0000000+00:00</time></trkpt><trkpt lat="38.98243172" lon="-0.50511528"><ele>224.8</ele><time>2022-11-13T17:06:43.0000000+00:00</time></trkpt><trkpt lat="38.98243725" lon="-0.50511"><ele>224.6</ele><time>2022-11-13T17:06:44.0000000+00:00</time></trkpt><trkpt lat="38.98243918" lon="-0.50510547"><ele>224.6</ele><time>2022-11-13T17:06:45.0000000+00:00</time></trkpt><trkpt lat="38.9824427" lon="-0.50510438"><ele>224.2</ele><time>2022-11-13T17:06:46.0000000+00:00</time></trkpt><trkpt lat="38.98243918" lon="-0.505096"><ele>224.0</ele><time>2022-11-13T17:06:47.0000000+00:00</time></trkpt><trkpt lat="38.98244128" lon="-0.50509122"><ele>223.8</ele><time>2022-11-13T17:06:48.0000000+00:00</time></trkpt><trkpt lat="38.98245092" lon="-0.50508334"><ele>223.8</ele><time>2022-11-13T17:06:49.0000000+00:00</time></trkpt><trkpt lat="38.98246164" lon="-0.50506918"><ele>223.6</ele><time>2022-11-13T17:06:50.0000000+00:00</time></trkpt><trkpt lat="38.98246776" lon="-0.50505376"><ele>223.6</ele><time>2022-11-13T17:06:51.0000000+00:00</time></trkpt><trkpt lat="38.98247832" lon="-0.50504403"><ele>223.6</ele><time>2022-11-13T17:06:52.0000000+00:00</time></trkpt><trkpt lat="38.98248754" lon="-0.5050297"><ele>223.4</ele><time>2022-11-13T17:06:53.0000000+00:00</time></trkpt><trkpt lat="38.98250506" lon="-0.50502484"><ele>223.4</ele><time>2022-11-13T17:06:54.0000000+00:00</time></trkpt><trkpt lat="38.98252216" lon="-0.50502216"><ele>223.0</ele><time>2022-11-13T17:06:55.0000000+00:00</time></trkpt><trkpt lat="38.98253532" lon="-0.50501889"><ele>222.6</ele><time>2022-11-13T17:06:56.0000000+00:00</time></trkpt><trkpt lat="38.98254722" lon="-0.50501478"><ele>222.2</ele><time>2022-11-13T17:06:57.0000000+00:00</time></trkpt><trkpt lat="38.98256416" lon="-0.50501294"><ele>222.0</ele><time>2022-11-13T17:06:58.0000000+00:00</time></trkpt><trkpt lat="38.98257698" lon="-0.50500522"><ele>221.8</ele><time>2022-11-13T17:06:59.0000000+00:00</time></trkpt><trkpt lat="38.98258444" lon="-0.50499458"><ele>221.6</ele><time>2022-11-13T17:07:00.0000000+00:00</time></trkpt><trkpt lat="38.98259257" lon="-0.50499584"><ele>221.2</ele><time>2022-11-13T17:07:01.0000000+00:00</time></trkpt><trkpt lat="38.98259802" lon="-0.50499357"><ele>221.0</ele><time>2022-11-13T17:07:02.0000000+00:00</time></trkpt><trkpt lat="38.98260523" lon="-0.5049945"><ele>220.8</ele><time>2022-11-13T17:07:03.0000000+00:00</time></trkpt><trkpt lat="38.98261369" lon="-0.50499433"><ele>220.6</ele><time>2022-11-13T17:07:04.0000000+00:00</time></trkpt><trkpt lat="38.98262492" lon="-0.5049924"><ele>220.6</ele><time>2022-11-13T17:07:05.0000000+00:00</time></trkpt><trkpt lat="38.98263456" lon="-0.50499533"><ele>220.4</ele><time>2022-11-13T17:07:06.0000000+00:00</time></trkpt><trkpt lat="38.98264429" lon="-0.50499542"><ele>220.4</ele><time>2022-11-13T17:07:07.0000000+00:00</time></trkpt><trkpt lat="38.98265694" lon="-0.50499391"><ele>220.2</ele><time>2022-11-13T17:07:08.0000000+00:00</time></trkpt><trkpt lat="38.98267002" lon="-0.50499139"><ele>220.0</ele><time>2022-11-13T17:07:09.0000000+00:00</time></trkpt><trkpt lat="38.98268192" lon="-0.50498888"><ele>219.8</ele><time>2022-11-13T17:07:10.0000000+00:00</time></trkpt><trkpt lat="38.98268578" lon="-0.50499215"><ele>219.6</ele><time>2022-11-13T17:07:11.0000000+00:00</time></trkpt><trkpt lat="38.98269483" lon="-0.5049924"><ele>219.2</ele><time>2022-11-13T17:07:12.0000000+00:00</time></trkpt><trkpt lat="38.982696" lon="-0.5049903"><ele>219.2</ele><time>2022-11-13T17:07:13.0000000+00:00</time></trkpt><trkpt lat="38.98270531" lon="-0.50498771"><ele>219.0</ele><time>2022-11-13T17:07:14.0000000+00:00</time></trkpt><trkpt lat="38.98271327" lon="-0.50498201"><ele>218.8</ele><time>2022-11-13T17:07:15.0000000+00:00</time></trkpt><trkpt lat="38.98272257" lon="-0.50497706"><ele>218.6</ele><time>2022-11-13T17:07:16.0000000+00:00</time></trkpt><trkpt lat="38.98273372" lon="-0.5049753"><ele>218.6</ele><time>2022-11-13T17:07:17.0000000+00:00</time></trkpt><trkpt lat="38.98274386" lon="-0.50497597"><ele>218.4</ele><time>2022-11-13T17:07:18.0000000+00:00</time></trkpt><trkpt lat="38.98275359" lon="-0.50497857"><ele>218.2</ele><time>2022-11-13T17:07:19.0000000+00:00</time></trkpt><trkpt lat="38.98276239" lon="-0.50497673"><ele>218.0</ele><time>2022-11-13T17:07:20.0000000+00:00</time></trkpt><trkpt lat="38.98276951" lon="-0.50497388"><ele>217.8</ele><time>2022-11-13T17:07:21.0000000+00:00</time></trkpt><trkpt lat="38.98277781" lon="-0.50497673"><ele>217.6</ele><time>2022-11-13T17:07:22.0000000+00:00</time></trkpt><trkpt lat="38.98279105" lon="-0.50498511"><ele>217.6</ele><time>2022-11-13T17:07:23.0000000+00:00</time></trkpt><trkpt lat="38.98280958" lon="-0.50499139"><ele>217.4</ele><time>2022-11-13T17:07:24.0000000+00:00</time></trkpt><trkpt lat="38.98282592" lon="-0.50499584"><ele>217.4</ele><time>2022-11-13T17:07:25.0000000+00:00</time></trkpt><trkpt lat="38.98284218" lon="-0.50499885"><ele>217.0</ele><time>2022-11-13T17:07:26.0000000+00:00</time></trkpt><trkpt lat="38.98285761" lon="-0.50500103"><ele>216.8</ele><time>2022-11-13T17:07:27.0000000+00:00</time></trkpt><trkpt lat="38.98287294" lon="-0.5050012"><ele>216.8</ele><time>2022-11-13T17:07:28.0000000+00:00</time></trkpt><trkpt lat="38.98288686" lon="-0.50500045"><ele>216.6</ele><time>2022-11-13T17:07:29.0000000+00:00</time></trkpt><trkpt lat="38.98290178" lon="-0.50500145"><ele>216.4</ele><time>2022-11-13T17:07:30.0000000+00:00</time></trkpt><trkpt lat="38.98292114" lon="-0.50500112"><ele>216.2</ele><time>2022-11-13T17:07:31.0000000+00:00</time></trkpt><trkpt lat="38.98294302" lon="-0.50500849"><ele>216.2</ele><time>2022-11-13T17:07:32.0000000+00:00</time></trkpt><trkpt lat="38.98296087" lon="-0.50500967"><ele>216.0</ele><time>2022-11-13T17:07:33.0000000+00:00</time></trkpt><trkpt lat="38.98297261" lon="-0.50500958"><ele>216.0</ele><time>2022-11-13T17:07:34.0000000+00:00</time></trkpt><trkpt lat="38.9829897" lon="-0.50501403"><ele>215.8</ele><time>2022-11-13T17:07:35.0000000+00:00</time></trkpt><trkpt lat="38.98300622" lon="-0.50501679"><ele>215.6</ele><time>2022-11-13T17:07:36.0000000+00:00</time></trkpt><trkpt lat="38.98302223" lon="-0.50502081"><ele>215.4</ele><time>2022-11-13T17:07:37.0000000+00:00</time></trkpt><trkpt lat="38.98303321" lon="-0.5050219"><ele>215.4</ele><time>2022-11-13T17:07:38.0000000+00:00</time></trkpt><trkpt lat="38.98304335" lon="-0.50502299"><ele>215.0</ele><time>2022-11-13T17:07:39.0000000+00:00</time></trkpt><trkpt lat="38.98305433" lon="-0.50502115"><ele>214.8</ele><time>2022-11-13T17:07:40.0000000+00:00</time></trkpt><trkpt lat="38.98306665" lon="-0.50502224"><ele>214.6</ele><time>2022-11-13T17:07:41.0000000+00:00</time></trkpt><trkpt lat="38.98308023" lon="-0.50502325"><ele>214.4</ele><time>2022-11-13T17:07:42.0000000+00:00</time></trkpt><trkpt lat="38.98309205" lon="-0.50502526"><ele>214.2</ele><time>2022-11-13T17:07:43.0000000+00:00</time></trkpt><trkpt lat="38.98310328" lon="-0.50502911"><ele>214.2</ele><time>2022-11-13T17:07:44.0000000+00:00</time></trkpt><trkpt lat="38.98311518" lon="-0.50503372"><ele>214.0</ele><time>2022-11-13T17:07:45.0000000+00:00</time></trkpt><trkpt lat="38.98312692" lon="-0.50503515"><ele>213.8</ele><time>2022-11-13T17:07:46.0000000+00:00</time></trkpt><trkpt lat="38.98314041" lon="-0.50503817"><ele>213.8</ele><time>2022-11-13T17:07:47.0000000+00:00</time></trkpt><trkpt lat="38.98315139" lon="-0.50504127"><ele>213.6</ele><time>2022-11-13T17:07:48.0000000+00:00</time></trkpt><trkpt lat="38.98315709" lon="-0.50504261"><ele>213.4</ele><time>2022-11-13T17:07:49.0000000+00:00</time></trkpt><trkpt lat="38.98316396" lon="-0.50504378"><ele>213.2</ele><time>2022-11-13T17:07:50.0000000+00:00</time></trkpt><trkpt lat="38.9831824" lon="-0.50504764"><ele>213.2</ele><time>2022-11-13T17:07:51.0000000+00:00</time></trkpt><trkpt lat="38.98319632" lon="-0.50504831"><ele>213.0</ele><time>2022-11-13T17:07:52.0000000+00:00</time></trkpt><trkpt lat="38.98320889" lon="-0.50504579"><ele>212.8</ele><time>2022-11-13T17:07:53.0000000+00:00</time></trkpt><trkpt lat="38.98321811" lon="-0.50504294"><ele>212.6</ele><time>2022-11-13T17:07:54.0000000+00:00</time></trkpt><trkpt lat="38.98322758" lon="-0.50503741"><ele>212.6</ele><time>2022-11-13T17:07:55.0000000+00:00</time></trkpt><trkpt lat="38.98323781" lon="-0.50503062"><ele>212.4</ele><time>2022-11-13T17:07:56.0000000+00:00</time></trkpt><trkpt lat="38.98324527" lon="-0.50502777"><ele>212.2</ele><time>2022-11-13T17:07:57.0000000+00:00</time></trkpt><trkpt lat="38.98325474" lon="-0.50502995"><ele>212.0</ele><time>2022-11-13T17:07:58.0000000+00:00</time></trkpt><trkpt lat="38.98326698" lon="-0.50502786"><ele>211.8</ele><time>2022-11-13T17:07:59.0000000+00:00</time></trkpt><trkpt lat="38.98327905" lon="-0.50502526"><ele>211.8</ele><time>2022-11-13T17:08:00.0000000+00:00</time></trkpt><trkpt lat="38.98329623" lon="-0.50502291"><ele>211.4</ele><time>2022-11-13T17:08:01.0000000+00:00</time></trkpt><trkpt lat="38.9833073" lon="-0.50502408"><ele>211.2</ele><time>2022-11-13T17:08:02.0000000+00:00</time></trkpt><trkpt lat="38.98331819" lon="-0.50502911"><ele>211.2</ele><time>2022-11-13T17:08:03.0000000+00:00</time></trkpt><trkpt lat="38.98333035" lon="-0.50503481"><ele>211.2</ele><time>2022-11-13T17:08:04.0000000+00:00</time></trkpt><trkpt lat="38.98334024" lon="-0.50504269"><ele>211.2</ele><time>2022-11-13T17:08:05.0000000+00:00</time></trkpt><trkpt lat="38.98334979" lon="-0.50505057"><ele>211.0</ele><time>2022-11-13T17:08:06.0000000+00:00</time></trkpt><trkpt lat="38.98335834" lon="-0.50505937"><ele>211.0</ele><time>2022-11-13T17:08:07.0000000+00:00</time></trkpt><trkpt lat="38.98336421" lon="-0.50507169"><ele>211.0</ele><time>2022-11-13T17:08:08.0000000+00:00</time></trkpt><trkpt lat="38.98337251" lon="-0.50508443"><ele>210.8</ele><time>2022-11-13T17:08:09.0000000+00:00</time></trkpt><trkpt lat="38.98337913" lon="-0.50509139"><ele>210.8</ele><time>2022-11-13T17:08:10.0000000+00:00</time></trkpt><trkpt lat="38.98338785" lon="-0.5050986"><ele>210.8</ele><time>2022-11-13T17:08:11.0000000+00:00</time></trkpt><trkpt lat="38.9833979" lon="-0.50510723"><ele>210.6</ele><time>2022-11-13T17:08:12.0000000+00:00</time></trkpt><trkpt lat="38.98340704" lon="-0.50511746"><ele>210.6</ele><time>2022-11-13T17:08:13.0000000+00:00</time></trkpt><trkpt lat="38.98341693" lon="-0.50513112"><ele>210.6</ele><time>2022-11-13T17:08:14.0000000+00:00</time></trkpt><trkpt lat="38.98342506" lon="-0.50514361"><ele>210.4</ele><time>2022-11-13T17:08:15.0000000+00:00</time></trkpt><trkpt lat="38.98343193" lon="-0.50515585"><ele>210.4</ele><time>2022-11-13T17:08:16.0000000+00:00</time></trkpt><trkpt lat="38.98344149" lon="-0.50516658"><ele>210.4</ele><time>2022-11-13T17:08:17.0000000+00:00</time></trkpt><trkpt lat="38.98345356" lon="-0.50517202"><ele>210.2</ele><time>2022-11-13T17:08:18.0000000+00:00</time></trkpt><trkpt lat="38.98346546" lon="-0.50518233"><ele>210.2</ele><time>2022-11-13T17:08:19.0000000+00:00</time></trkpt><trkpt lat="38.98347544" lon="-0.50519281"><ele>210.2</ele><time>2022-11-13T17:08:20.0000000+00:00</time></trkpt><trkpt lat="38.98348147" lon="-0.50520966"><ele>210.2</ele><time>2022-11-13T17:08:21.0000000+00:00</time></trkpt><trkpt lat="38.98348684" lon="-0.50522651"><ele>210.0</ele><time>2022-11-13T17:08:22.0000000+00:00</time></trkpt><trkpt lat="38.98348642" lon="-0.50524931"><ele>210.0</ele><time>2022-11-13T17:08:23.0000000+00:00</time></trkpt><trkpt lat="38.98348801" lon="-0.50526967"><ele>210.0</ele><time>2022-11-13T17:08:24.0000000+00:00</time></trkpt><trkpt lat="38.98349304" lon="-0.50528912"><ele>210.0</ele><time>2022-11-13T17:08:25.0000000+00:00</time></trkpt><trkpt lat="38.98350494" lon="-0.5053027"><ele>210.0</ele><time>2022-11-13T17:08:26.0000000+00:00</time></trkpt><trkpt lat="38.98352514" lon="-0.50531846"><ele>209.8</ele><time>2022-11-13T17:08:27.0000000+00:00</time></trkpt><trkpt lat="38.98353143" lon="-0.50533891"><ele>209.6</ele><time>2022-11-13T17:08:28.0000000+00:00</time></trkpt><trkpt lat="38.9835321" lon="-0.50535651"><ele>209.6</ele><time>2022-11-13T17:08:29.0000000+00:00</time></trkpt><trkpt lat="38.98353168" lon="-0.50537411"><ele>209.6</ele><time>2022-11-13T17:08:30.0000000+00:00</time></trkpt><trkpt lat="38.98353713" lon="-0.50538953"><ele>209.6</ele><time>2022-11-13T17:08:31.0000000+00:00</time></trkpt><trkpt lat="38.98355389" lon="-0.50540538"><ele>209.4</ele><time>2022-11-13T17:08:32.0000000+00:00</time></trkpt><trkpt lat="38.98357476" lon="-0.5054187"><ele>209.4</ele><time>2022-11-13T17:08:33.0000000+00:00</time></trkpt><trkpt lat="38.983588" lon="-0.505426"><ele>209.4</ele><time>2022-11-13T17:08:34.0000000+00:00</time></trkpt><trkpt lat="38.98360938" lon="-0.50541963"><ele>209.4</ele><time>2022-11-13T17:08:35.0000000+00:00</time></trkpt><trkpt lat="38.98362212" lon="-0.50543035"><ele>209.2</ele><time>2022-11-13T17:08:36.0000000+00:00</time></trkpt><trkpt lat="38.98362958" lon="-0.5054498"><ele>209.0</ele><time>2022-11-13T17:08:37.0000000+00:00</time></trkpt><trkpt lat="38.98363536" lon="-0.5054674"><ele>209.0</ele><time>2022-11-13T17:08:38.0000000+00:00</time></trkpt><trkpt lat="38.9836445" lon="-0.50548174"><ele>209.0</ele><time>2022-11-13T17:08:39.0000000+00:00</time></trkpt><trkpt lat="38.98364324" lon="-0.5054964"><ele>208.8</ele><time>2022-11-13T17:08:40.0000000+00:00</time></trkpt><trkpt lat="38.98364048" lon="-0.50551979"><ele>208.8</ele><time>2022-11-13T17:08:41.0000000+00:00</time></trkpt><trkpt lat="38.98365439" lon="-0.50554678"><ele>208.8</ele><time>2022-11-13T17:08:42.0000000+00:00</time></trkpt><trkpt lat="38.98366361" lon="-0.50556698"><ele>208.6</ele><time>2022-11-13T17:08:43.0000000+00:00</time></trkpt><trkpt lat="38.9836735" lon="-0.50557855"><ele>208.6</ele><time>2022-11-13T17:08:44.0000000+00:00</time></trkpt><trkpt lat="38.9836813" lon="-0.50559707"><ele>208.6</ele><time>2022-11-13T17:08:45.0000000+00:00</time></trkpt><trkpt lat="38.98368524" lon="-0.50561585"><ele>208.4</ele><time>2022-11-13T17:08:46.0000000+00:00</time></trkpt><trkpt lat="38.98368917" lon="-0.5056223"><ele>208.4</ele><time>2022-11-13T17:08:47.0000000+00:00</time></trkpt><trkpt lat="38.98369026" lon="-0.5056373"><ele>208.2</ele><time>2022-11-13T17:08:48.0000000+00:00</time></trkpt><trkpt lat="38.98369194" lon="-0.50564845"><ele>208.0</ele><time>2022-11-13T17:08:49.0000000+00:00</time></trkpt><trkpt lat="38.98369747" lon="-0.50566069"><ele>208.0</ele><time>2022-11-13T17:08:50.0000000+00:00</time></trkpt><trkpt lat="38.98369948" lon="-0.50567309"><ele>208.0</ele><time>2022-11-13T17:08:51.0000000+00:00</time></trkpt><trkpt lat="38.98369756" lon="-0.5056907"><ele>208.0</ele><time>2022-11-13T17:08:52.0000000+00:00</time></trkpt><trkpt lat="38.98369747" lon="-0.50570805"><ele>207.8</ele><time>2022-11-13T17:08:53.0000000+00:00</time></trkpt><trkpt lat="38.98369747" lon="-0.50570805"><ele>207.6</ele><time>2022-11-13T17:08:54.0000000+00:00</time></trkpt><trkpt lat="38.98370401" lon="-0.50573973"><ele>207.6</ele><time>2022-11-13T17:08:55.0000000+00:00</time></trkpt><trkpt lat="38.98370518" lon="-0.50576077"><ele>207.4</ele><time>2022-11-13T17:08:56.0000000+00:00</time></trkpt><trkpt lat="38.98370745" lon="-0.5057798"><ele>207.4</ele><time>2022-11-13T17:08:57.0000000+00:00</time></trkpt><trkpt lat="38.98371357" lon="-0.50579555"><ele>207.4</ele><time>2022-11-13T17:08:58.0000000+00:00</time></trkpt><trkpt lat="38.98371667" lon="-0.50581207"><ele>207.2</ele><time>2022-11-13T17:08:59.0000000+00:00</time></trkpt><trkpt lat="38.98371784" lon="-0.5058243"><ele>207.2</ele><time>2022-11-13T17:09:00.0000000+00:00</time></trkpt><trkpt lat="38.9837217" lon="-0.50584274"><ele>207.0</ele><time>2022-11-13T17:09:01.0000000+00:00</time></trkpt><trkpt lat="38.98372446" lon="-0.50585825"><ele>207.0</ele><time>2022-11-13T17:09:02.0000000+00:00</time></trkpt><trkpt lat="38.98373033" lon="-0.50588306"><ele>206.8</ele><time>2022-11-13T17:09:03.0000000+00:00</time></trkpt><trkpt lat="38.98373351" lon="-0.50589714"><ele>206.8</ele><time>2022-11-13T17:09:04.0000000+00:00</time></trkpt><trkpt lat="38.98373662" lon="-0.50590972"><ele>206.6</ele><time>2022-11-13T17:09:05.0000000+00:00</time></trkpt><trkpt lat="38.98374089" lon="-0.5059207"><ele>206.6</ele><time>2022-11-13T17:09:06.0000000+00:00</time></trkpt><trkpt lat="38.9837476" lon="-0.50592824"><ele>206.6</ele><time>2022-11-13T17:09:07.0000000+00:00</time></trkpt><trkpt lat="38.98375816" lon="-0.50593696"><ele>206.6</ele><time>2022-11-13T17:09:08.0000000+00:00</time></trkpt><trkpt lat="38.9837683" lon="-0.50594341"><ele>206.6</ele><time>2022-11-13T17:09:09.0000000+00:00</time></trkpt><trkpt lat="38.98378179" lon="-0.50596084"><ele>206.6</ele><time>2022-11-13T17:09:10.0000000+00:00</time></trkpt><trkpt lat="38.98378993" lon="-0.5059652"><ele>206.6</ele><time>2022-11-13T17:09:11.0000000+00:00</time></trkpt><trkpt lat="38.98380116" lon="-0.50596872"><ele>206.6</ele><time>2022-11-13T17:09:12.0000000+00:00</time></trkpt><trkpt lat="38.98380744" lon="-0.50597224"><ele>206.4</ele><time>2022-11-13T17:09:13.0000000+00:00</time></trkpt><trkpt lat="38.98381415" lon="-0.50597241"><ele>206.4</ele><time>2022-11-13T17:09:14.0000000+00:00</time></trkpt><trkpt lat="38.98382052" lon="-0.50597568"><ele>206.4</ele><time>2022-11-13T17:09:15.0000000+00:00</time></trkpt><trkpt lat="38.98382572" lon="-0.50598004"><ele>206.4</ele><time>2022-11-13T17:09:16.0000000+00:00</time></trkpt><trkpt lat="38.98383251" lon="-0.50598515"><ele>206.2</ele><time>2022-11-13T17:09:17.0000000+00:00</time></trkpt><trkpt lat="38.98384114" lon="-0.50598532"><ele>206.0</ele><time>2022-11-13T17:09:18.0000000+00:00</time></trkpt><trkpt lat="38.98385421" lon="-0.5059911"><ele>205.8</ele><time>2022-11-13T17:09:19.0000000+00:00</time></trkpt><trkpt lat="38.9838626" lon="-0.50599697"><ele>205.6</ele><time>2022-11-13T17:09:20.0000000+00:00</time></trkpt><trkpt lat="38.983889" lon="-0.50598046"><ele>205.4</ele><time>2022-11-13T17:09:21.0000000+00:00</time></trkpt><trkpt lat="38.98391096" lon="-0.50597694"><ele>205.2</ele><time>2022-11-13T17:09:22.0000000+00:00</time></trkpt><trkpt lat="38.98392689" lon="-0.50596244"><ele>205.0</ele><time>2022-11-13T17:09:23.0000000+00:00</time></trkpt><trkpt lat="38.98393686" lon="-0.50595162"><ele>204.8</ele><time>2022-11-13T17:09:24.0000000+00:00</time></trkpt><trkpt lat="38.98394357" lon="-0.50595875"><ele>204.6</ele><time>2022-11-13T17:09:25.0000000+00:00</time></trkpt><trkpt lat="38.98395128" lon="-0.5059616"><ele>204.4</ele><time>2022-11-13T17:09:26.0000000+00:00</time></trkpt><trkpt lat="38.9839579" lon="-0.50596361"><ele>204.2</ele><time>2022-11-13T17:09:27.0000000+00:00</time></trkpt><trkpt lat="38.98396318" lon="-0.50596604"><ele>204.0</ele><time>2022-11-13T17:09:28.0000000+00:00</time></trkpt><trkpt lat="38.98396955" lon="-0.50597266"><ele>204.0</ele><time>2022-11-13T17:09:29.0000000+00:00</time></trkpt><trkpt lat="38.98397508" lon="-0.50597744"><ele>203.8</ele><time>2022-11-13T17:09:30.0000000+00:00</time></trkpt><trkpt lat="38.98398581" lon="-0.5059787"><ele>203.6</ele><time>2022-11-13T17:09:31.0000000+00:00</time></trkpt><trkpt lat="38.98399604" lon="-0.50597702"><ele>203.4</ele><time>2022-11-13T17:09:32.0000000+00:00</time></trkpt><trkpt lat="38.98400232" lon="-0.50598113"><ele>203.2</ele><time>2022-11-13T17:09:33.0000000+00:00</time></trkpt><trkpt lat="38.98400668" lon="-0.50598465"><ele>203.0</ele><time>2022-11-13T17:09:34.0000000+00:00</time></trkpt><trkpt lat="38.98400802" lon="-0.50599303"><ele>202.8</ele><time>2022-11-13T17:09:35.0000000+00:00</time></trkpt><trkpt lat="38.98401515" lon="-0.50599588"><ele>202.8</ele><time>2022-11-13T17:09:36.0000000+00:00</time></trkpt><trkpt lat="38.98401858" lon="-0.50600267"><ele>202.6</ele><time>2022-11-13T17:09:37.0000000+00:00</time></trkpt><trkpt lat="38.98402093" lon="-0.50600736"><ele>202.4</ele><time>2022-11-13T17:09:38.0000000+00:00</time></trkpt><trkpt lat="38.98402646" lon="-0.50601231"><ele>202.2</ele><time>2022-11-13T17:09:39.0000000+00:00</time></trkpt><trkpt lat="38.98402889" lon="-0.50601642"><ele>202.0</ele><time>2022-11-13T17:09:40.0000000+00:00</time></trkpt><trkpt lat="38.98402982" lon="-0.50602513"><ele>201.8</ele><time>2022-11-13T17:09:41.0000000+00:00</time></trkpt><trkpt lat="38.98403141" lon="-0.50603746"><ele>201.8</ele><time>2022-11-13T17:09:42.0000000+00:00</time></trkpt><trkpt lat="38.98403258" lon="-0.50604894"><ele>201.6</ele><time>2022-11-13T17:09:43.0000000+00:00</time></trkpt><trkpt lat="38.98403853" lon="-0.50605992"><ele>201.6</ele><time>2022-11-13T17:09:44.0000000+00:00</time></trkpt><trkpt lat="38.98404323" lon="-0.50606746"><ele>201.4</ele><time>2022-11-13T17:09:45.0000000+00:00</time></trkpt><trkpt lat="38.98405085" lon="-0.50606931"><ele>201.2</ele><time>2022-11-13T17:09:46.0000000+00:00</time></trkpt><trkpt lat="38.98405504" lon="-0.50607417"><ele>201.0</ele><time>2022-11-13T17:09:47.0000000+00:00</time></trkpt><trkpt lat="38.98405982" lon="-0.50607777"><ele>200.8</ele><time>2022-11-13T17:09:48.0000000+00:00</time></trkpt><trkpt lat="38.98406586" lon="-0.50608859"><ele>200.6</ele><time>2022-11-13T17:09:49.0000000+00:00</time></trkpt><trkpt lat="38.98406812" lon="-0.50609856"><ele>200.4</ele><time>2022-11-13T17:09:50.0000000+00:00</time></trkpt><trkpt lat="38.98407164" lon="-0.50610635"><ele>200.2</ele><time>2022-11-13T17:09:51.0000000+00:00</time></trkpt><trkpt lat="38.98407499" lon="-0.5061134"><ele>200.2</ele><time>2022-11-13T17:09:52.0000000+00:00</time></trkpt><trkpt lat="38.98408128" lon="-0.50611323"><ele>200.0</ele><time>2022-11-13T17:09:53.0000000+00:00</time></trkpt><trkpt lat="38.98408505" lon="-0.50611834"><ele>200.0</ele><time>2022-11-13T17:09:54.0000000+00:00</time></trkpt><trkpt lat="38.98408941" lon="-0.50612438"><ele>199.8</ele><time>2022-11-13T17:09:55.0000000+00:00</time></trkpt><trkpt lat="38.98409234" lon="-0.50612396"><ele>199.4</ele><time>2022-11-13T17:09:56.0000000+00:00</time></trkpt><trkpt lat="38.98409352" lon="-0.50612446"><ele>199.4</ele><time>2022-11-13T17:09:57.0000000+00:00</time></trkpt><trkpt lat="38.98409251" lon="-0.50612982"><ele>199.4</ele><time>2022-11-13T17:09:58.0000000+00:00</time></trkpt><trkpt lat="38.98409184" lon="-0.50613502"><ele>199.2</ele><time>2022-11-13T17:09:59.0000000+00:00</time></trkpt><trkpt lat="38.9840905" lon="-0.50614256"><ele>199.0</ele><time>2022-11-13T17:10:00.0000000+00:00</time></trkpt><trkpt lat="38.98409176" lon="-0.50614818"><ele>199.0</ele><time>2022-11-13T17:10:01.0000000+00:00</time></trkpt><trkpt lat="38.98409318" lon="-0.50615489"><ele>198.8</ele><time>2022-11-13T17:10:02.0000000+00:00</time></trkpt><trkpt lat="38.98409335" lon="-0.50616419"><ele>198.8</ele><time>2022-11-13T17:10:03.0000000+00:00</time></trkpt><trkpt lat="38.98409746" lon="-0.50617718"><ele>198.8</ele><time>2022-11-13T17:10:04.0000000+00:00</time></trkpt><trkpt lat="38.98410232" lon="-0.50618799"><ele>198.6</ele><time>2022-11-13T17:10:05.0000000+00:00</time></trkpt><trkpt lat="38.98410408" lon="-0.5061947"><ele>198.6</ele><time>2022-11-13T17:10:06.0000000+00:00</time></trkpt><trkpt lat="38.98410768" lon="-0.5062056"><ele>198.4</ele><time>2022-11-13T17:10:07.0000000+00:00</time></trkpt><trkpt lat="38.98410643" lon="-0.50621742"><ele>198.2</ele><time>2022-11-13T17:10:08.0000000+00:00</time></trkpt><trkpt lat="38.98410844" lon="-0.5062258"><ele>198.0</ele><time>2022-11-13T17:10:09.0000000+00:00</time></trkpt><trkpt lat="38.98411154" lon="-0.50623812"><ele>197.8</ele><time>2022-11-13T17:10:10.0000000+00:00</time></trkpt><trkpt lat="38.98411749" lon="-0.50624985"><ele>197.8</ele><time>2022-11-13T17:10:11.0000000+00:00</time></trkpt><trkpt lat="38.98412453" lon="-0.50626134"><ele>197.6</ele><time>2022-11-13T17:10:12.0000000+00:00</time></trkpt><trkpt lat="38.98412746" lon="-0.50627165"><ele>197.6</ele><time>2022-11-13T17:10:13.0000000+00:00</time></trkpt><trkpt lat="38.98412621" lon="-0.50628506"><ele>197.4</ele><time>2022-11-13T17:10:14.0000000+00:00</time></trkpt><trkpt lat="38.98412654" lon="-0.50630006"><ele>197.2</ele><time>2022-11-13T17:10:15.0000000+00:00</time></trkpt><trkpt lat="38.98412596" lon="-0.50631498"><ele>197.2</ele><time>2022-11-13T17:10:16.0000000+00:00</time></trkpt><trkpt lat="38.98412671" lon="-0.50632915"><ele>197.0</ele><time>2022-11-13T17:10:17.0000000+00:00</time></trkpt><trkpt lat="38.98412998" lon="-0.50634381"><ele>196.8</ele><time>2022-11-13T17:10:18.0000000+00:00</time></trkpt><trkpt lat="38.98413518" lon="-0.50635538"><ele>196.8</ele><time>2022-11-13T17:10:19.0000000+00:00</time></trkpt><trkpt lat="38.98415613" lon="-0.50634826"><ele>196.6</ele><time>2022-11-13T17:10:20.0000000+00:00</time></trkpt><trkpt lat="38.9841651" lon="-0.50635538"><ele>196.4</ele><time>2022-11-13T17:10:21.0000000+00:00</time></trkpt><trkpt lat="38.98416996" lon="-0.5063667"><ele>196.2</ele><time>2022-11-13T17:10:22.0000000+00:00</time></trkpt><trkpt lat="38.98417256" lon="-0.50637173"><ele>196.0</ele><time>2022-11-13T17:10:23.0000000+00:00</time></trkpt><trkpt lat="38.98418228" lon="-0.50636829"><ele>196.0</ele><time>2022-11-13T17:10:24.0000000+00:00</time></trkpt><trkpt lat="38.98419435" lon="-0.50637759"><ele>195.8</ele><time>2022-11-13T17:10:25.0000000+00:00</time></trkpt><trkpt lat="38.98419838" lon="-0.50638866"><ele>195.8</ele><time>2022-11-13T17:10:26.0000000+00:00</time></trkpt><trkpt lat="38.98420089" lon="-0.5063936"><ele>195.6</ele><time>2022-11-13T17:10:27.0000000+00:00</time></trkpt><trkpt lat="38.98419988" lon="-0.50639553"><ele>195.4</ele><time>2022-11-13T17:10:28.0000000+00:00</time></trkpt><trkpt lat="38.98420055" lon="-0.5063962"><ele>195.2</ele><time>2022-11-13T17:10:29.0000000+00:00</time></trkpt><trkpt lat="38.98420064" lon="-0.50639637"><ele>195.2</ele><time>2022-11-13T17:10:30.0000000+00:00</time></trkpt><trkpt lat="38.98419997" lon="-0.5063957"><ele>195.0</ele><time>2022-11-13T17:10:31.0000000+00:00</time></trkpt><trkpt lat="38.98419913" lon="-0.50639503"><ele>195.0</ele><time>2022-11-13T17:10:32.0000000+00:00</time></trkpt><trkpt lat="38.9841977" lon="-0.50639578"><ele>195.0</ele><time>2022-11-13T17:10:33.0000000+00:00</time></trkpt><trkpt lat="38.98419762" lon="-0.50639612"><ele>195.0</ele><time>2022-11-13T17:10:34.0000000+00:00</time></trkpt><trkpt lat="38.9841972" lon="-0.50639587"><ele>195.0</ele><time>2022-11-13T17:10:35.0000000+00:00</time></trkpt><trkpt lat="38.98419653" lon="-0.50639469"><ele>195.0</ele><time>2022-11-13T17:10:36.0000000+00:00</time></trkpt><trkpt lat="38.9841972" lon="-0.50639335"><ele>195.0</ele><time>2022-11-13T17:10:37.0000000+00:00</time></trkpt><trkpt lat="38.9841972" lon="-0.50639335"><ele>195.0</ele><time>2022-11-13T17:10:38.0000000+00:00</time></trkpt><trkpt lat="38.9841972" lon="-0.50639335"><ele>195.0</ele><time>2022-11-13T17:10:39.0000000+00:00</time></trkpt><trkpt lat="38.9841972" lon="-0.50639335"><ele>195.0</ele><time>2022-11-13T17:10:40.0000000+00:00</time></trkpt><trkpt lat="38.9841972" lon="-0.50639335"><ele>195.0</ele><time>2022-11-13T17:10:41.0000000+00:00</time></trkpt><trkpt lat="38.9841972" lon="-0.50639335"><ele>195.0</ele><time>2022-11-13T17:10:42.0000000+00:00</time></trkpt><trkpt lat="38.9841972" lon="-0.50639335"><ele>195.0</ele><time>2022-11-13T17:10:43.0000000+00:00</time></trkpt><trkpt lat="38.9841972" lon="-0.50639335"><ele>195.0</ele><time>2022-11-13T17:10:44.0000000+00:00</time></trkpt><trkpt lat="38.9841972" lon="-0.50639369"><ele>194.8</ele><time>2022-11-13T17:10:45.0000000+00:00</time></trkpt><trkpt lat="38.9841972" lon="-0.50639419"><ele>194.6</ele><time>2022-11-13T17:10:46.0000000+00:00</time></trkpt><trkpt lat="38.98419913" lon="-0.50640048"><ele>194.4</ele><time>2022-11-13T17:10:47.0000000+00:00</time></trkpt><trkpt lat="38.98420097" lon="-0.50641975"><ele>194.2</ele><time>2022-11-13T17:10:48.0000000+00:00</time></trkpt><trkpt lat="38.98420123" lon="-0.50644021"><ele>194.2</ele><time>2022-11-13T17:10:49.0000000+00:00</time></trkpt><trkpt lat="38.98420173" lon="-0.50645974"><ele>194.0</ele><time>2022-11-13T17:10:50.0000000+00:00</time></trkpt><trkpt lat="38.98420164" lon="-0.50647759"><ele>194.0</ele><time>2022-11-13T17:10:51.0000000+00:00</time></trkpt><trkpt lat="38.98420701" lon="-0.5064998"><ele>193.8</ele><time>2022-11-13T17:10:52.0000000+00:00</time></trkpt><trkpt lat="38.98420835" lon="-0.50652101"><ele>193.8</ele><time>2022-11-13T17:10:53.0000000+00:00</time></trkpt><trkpt lat="38.98421296" lon="-0.50653341"><ele>193.8</ele><time>2022-11-13T17:10:54.0000000+00:00</time></trkpt><trkpt lat="38.98421832" lon="-0.50655051"><ele>193.6</ele><time>2022-11-13T17:10:55.0000000+00:00</time></trkpt><trkpt lat="38.98422084" lon="-0.50656376"><ele>193.6</ele><time>2022-11-13T17:10:56.0000000+00:00</time></trkpt><trkpt lat="38.98422386" lon="-0.50656811"><ele>193.4</ele><time>2022-11-13T17:10:57.0000000+00:00</time></trkpt><trkpt lat="38.9842252" lon="-0.5065739"><ele>193.4</ele><time>2022-11-13T17:10:58.0000000+00:00</time></trkpt><trkpt lat="38.98422729" lon="-0.50658739"><ele>193.2</ele><time>2022-11-13T17:10:59.0000000+00:00</time></trkpt><trkpt lat="38.9842283" lon="-0.50660307"><ele>193.0</ele><time>2022-11-13T17:11:00.0000000+00:00</time></trkpt><trkpt lat="38.98422956" lon="-0.50661866"><ele>193.0</ele><time>2022-11-13T17:11:01.0000000+00:00</time></trkpt><trkpt lat="38.9842319" lon="-0.50663492"><ele>192.8</ele><time>2022-11-13T17:11:02.0000000+00:00</time></trkpt><trkpt lat="38.98423492" lon="-0.50665302"><ele>192.8</ele><time>2022-11-13T17:11:03.0000000+00:00</time></trkpt><trkpt lat="38.98423987" lon="-0.50666124"><ele>192.6</ele><time>2022-11-13T17:11:04.0000000+00:00</time></trkpt><trkpt lat="38.98424263" lon="-0.50667406"><ele>192.6</ele><time>2022-11-13T17:11:05.0000000+00:00</time></trkpt><trkpt lat="38.98424364" lon="-0.50668621"><ele>192.6</ele><time>2022-11-13T17:11:06.0000000+00:00</time></trkpt><trkpt lat="38.98424691" lon="-0.50669795"><ele>192.4</ele><time>2022-11-13T17:11:07.0000000+00:00</time></trkpt><trkpt lat="38.98424758" lon="-0.50671312"><ele>192.4</ele><time>2022-11-13T17:11:08.0000000+00:00</time></trkpt><trkpt lat="38.98424699" lon="-0.50672611"><ele>192.0</ele><time>2022-11-13T17:11:09.0000000+00:00</time></trkpt><trkpt lat="38.98425093" lon="-0.50674304"><ele>191.8</ele><time>2022-11-13T17:11:10.0000000+00:00</time></trkpt><trkpt lat="38.98425353" lon="-0.50675159"><ele>191.6</ele><time>2022-11-13T17:11:11.0000000+00:00</time></trkpt><trkpt lat="38.98425269" lon="-0.50676727"><ele>191.4</ele><time>2022-11-13T17:11:12.0000000+00:00</time></trkpt><trkpt lat="38.98425344" lon="-0.50678462"><ele>191.4</ele><time>2022-11-13T17:11:13.0000000+00:00</time></trkpt><trkpt lat="38.98425881" lon="-0.50680415"><ele>191.2</ele><time>2022-11-13T17:11:14.0000000+00:00</time></trkpt><trkpt lat="38.98426241" lon="-0.50682426"><ele>191.2</ele><time>2022-11-13T17:11:15.0000000+00:00</time></trkpt><trkpt lat="38.98426694" lon="-0.50683902"><ele>191.0</ele><time>2022-11-13T17:11:16.0000000+00:00</time></trkpt><trkpt lat="38.98427188" lon="-0.50685385"><ele>190.8</ele><time>2022-11-13T17:11:17.0000000+00:00</time></trkpt><trkpt lat="38.98427566" lon="-0.50686953"><ele>190.8</ele><time>2022-11-13T17:11:18.0000000+00:00</time></trkpt><trkpt lat="38.98427884" lon="-0.5068826"><ele>190.8</ele><time>2022-11-13T17:11:19.0000000+00:00</time></trkpt><trkpt lat="38.98428161" lon="-0.50688872"><ele>190.4</ele><time>2022-11-13T17:11:20.0000000+00:00</time></trkpt><trkpt lat="38.98428286" lon="-0.506894"><ele>190.2</ele><time>2022-11-13T17:11:21.0000000+00:00</time></trkpt><trkpt lat="38.9842925" lon="-0.50689878"><ele>190.2</ele><time>2022-11-13T17:11:22.0000000+00:00</time></trkpt><trkpt lat="38.98429234" lon="-0.50690297"><ele>190.2</ele><time>2022-11-13T17:11:23.0000000+00:00</time></trkpt><trkpt lat="38.9843008" lon="-0.50691328"><ele>190.0</ele><time>2022-11-13T17:11:24.0000000+00:00</time></trkpt><trkpt lat="38.98430751" lon="-0.50691906"><ele>190.0</ele><time>2022-11-13T17:11:25.0000000+00:00</time></trkpt><trkpt lat="38.98431187" lon="-0.50692367"><ele>190.0</ele><time>2022-11-13T17:11:26.0000000+00:00</time></trkpt><trkpt lat="38.98431354" lon="-0.50692619"><ele>190.0</ele><time>2022-11-13T17:11:27.0000000+00:00</time></trkpt><trkpt lat="38.98430466" lon="-0.50692979"><ele>190.0</ele><time>2022-11-13T17:11:28.0000000+00:00</time></trkpt><trkpt lat="38.98429561" lon="-0.50693709"><ele>190.0</ele><time>2022-11-13T17:11:29.0000000+00:00</time></trkpt><trkpt lat="38.98429711" lon="-0.50695083"><ele>189.8</ele><time>2022-11-13T17:11:30.0000000+00:00</time></trkpt><trkpt lat="38.9843029" lon="-0.50695846"><ele>189.8</ele><time>2022-11-13T17:11:31.0000000+00:00</time></trkpt><trkpt lat="38.98430591" lon="-0.50697397"><ele>189.8</ele><time>2022-11-13T17:11:32.0000000+00:00</time></trkpt><trkpt lat="38.98430499" lon="-0.50698486"><ele>189.6</ele><time>2022-11-13T17:11:33.0000000+00:00</time></trkpt><trkpt lat="38.98430591" lon="-0.50700305"><ele>189.4</ele><time>2022-11-13T17:11:34.0000000+00:00</time></trkpt><trkpt lat="38.984307" lon="-0.50701529"><ele>189.4</ele><time>2022-11-13T17:11:35.0000000+00:00</time></trkpt><trkpt lat="38.98430474" lon="-0.50703373"><ele>189.4</ele><time>2022-11-13T17:11:36.0000000+00:00</time></trkpt><trkpt lat="38.98430759" lon="-0.5070525"><ele>189.4</ele><time>2022-11-13T17:11:37.0000000+00:00</time></trkpt><trkpt lat="38.9843122" lon="-0.50707053"><ele>189.2</ele><time>2022-11-13T17:11:38.0000000+00:00</time></trkpt><trkpt lat="38.98431346" lon="-0.50708737"><ele>189.2</ele><time>2022-11-13T17:11:39.0000000+00:00</time></trkpt><trkpt lat="38.98431346" lon="-0.50710422"><ele>189.0</ele><time>2022-11-13T17:11:40.0000000+00:00</time></trkpt><trkpt lat="38.98431053" lon="-0.5071173"><ele>188.8</ele><time>2022-11-13T17:11:41.0000000+00:00</time></trkpt><trkpt lat="38.98431187" lon="-0.50712903"><ele>188.6</ele><time>2022-11-13T17:11:42.0000000+00:00</time></trkpt><trkpt lat="38.9843205" lon="-0.50714806"><ele>188.6</ele><time>2022-11-13T17:11:43.0000000+00:00</time></trkpt><trkpt lat="38.98432653" lon="-0.50716147"><ele>188.4</ele><time>2022-11-13T17:11:44.0000000+00:00</time></trkpt><trkpt lat="38.9843288" lon="-0.50717119"><ele>188.2</ele><time>2022-11-13T17:11:45.0000000+00:00</time></trkpt><trkpt lat="38.98434179" lon="-0.50718175"><ele>188.2</ele><time>2022-11-13T17:11:46.0000000+00:00</time></trkpt><trkpt lat="38.98435109" lon="-0.50719642"><ele>188.2</ele><time>2022-11-13T17:11:47.0000000+00:00</time></trkpt><trkpt lat="38.98436073" lon="-0.50721084"><ele>188.0</ele><time>2022-11-13T17:11:48.0000000+00:00</time></trkpt><trkpt lat="38.98436635" lon="-0.50721964"><ele>188.0</ele><time>2022-11-13T17:11:49.0000000+00:00</time></trkpt><trkpt lat="38.98437104" lon="-0.50722995"><ele>188.0</ele><time>2022-11-13T17:11:50.0000000+00:00</time></trkpt><trkpt lat="38.98437481" lon="-0.50724185"><ele>188.0</ele><time>2022-11-13T17:11:51.0000000+00:00</time></trkpt><trkpt lat="38.98438269" lon="-0.50725593"><ele>188.0</ele><time>2022-11-13T17:11:52.0000000+00:00</time></trkpt><trkpt lat="38.98438814" lon="-0.50727018"><ele>187.8</ele><time>2022-11-13T17:11:53.0000000+00:00</time></trkpt><trkpt lat="38.98439275" lon="-0.50728133"><ele>187.8</ele><time>2022-11-13T17:11:54.0000000+00:00</time></trkpt><trkpt lat="38.98439854" lon="-0.50729206"><ele>187.6</ele><time>2022-11-13T17:11:55.0000000+00:00</time></trkpt><trkpt lat="38.98440625" lon="-0.50730396"><ele>187.6</ele><time>2022-11-13T17:11:56.0000000+00:00</time></trkpt><trkpt lat="38.98441195" lon="-0.50731343"><ele>187.6</ele><time>2022-11-13T17:11:57.0000000+00:00</time></trkpt><trkpt lat="38.98441161" lon="-0.50731695"><ele>187.6</ele><time>2022-11-13T17:11:58.0000000+00:00</time></trkpt><trkpt lat="38.98441723" lon="-0.50731435"><ele>187.6</ele><time>2022-11-13T17:11:59.0000000+00:00</time></trkpt><trkpt lat="38.98442142" lon="-0.50731226"><ele>187.4</ele><time>2022-11-13T17:12:00.0000000+00:00</time></trkpt><trkpt lat="38.98442687" lon="-0.50731209"><ele>187.4</ele><time>2022-11-13T17:12:01.0000000+00:00</time></trkpt><trkpt lat="38.98443483" lon="-0.50731452"><ele>187.4</ele><time>2022-11-13T17:12:02.0000000+00:00</time></trkpt><trkpt lat="38.98444095" lon="-0.50732542"><ele>187.4</ele><time>2022-11-13T17:12:03.0000000+00:00</time></trkpt><trkpt lat="38.98444623" lon="-0.50733263"><ele>187.4</ele><time>2022-11-13T17:12:04.0000000+00:00</time></trkpt><trkpt lat="38.98445101" lon="-0.50734755"><ele>187.4</ele><time>2022-11-13T17:12:05.0000000+00:00</time></trkpt><trkpt lat="38.98445335" lon="-0.50735962"><ele>187.4</ele><time>2022-11-13T17:12:06.0000000+00:00</time></trkpt><trkpt lat="38.98445662" lon="-0.50737286"><ele>187.4</ele><time>2022-11-13T17:12:07.0000000+00:00</time></trkpt><trkpt lat="38.98446199" lon="-0.5073856"><ele>187.4</ele><time>2022-11-13T17:12:08.0000000+00:00</time></trkpt><trkpt lat="38.98446961" lon="-0.50739926"><ele>187.4</ele><time>2022-11-13T17:12:09.0000000+00:00</time></trkpt><trkpt lat="38.98447682" lon="-0.50741376"><ele>187.4</ele><time>2022-11-13T17:12:10.0000000+00:00</time></trkpt><trkpt lat="38.98448789" lon="-0.50742416"><ele>187.4</ele><time>2022-11-13T17:12:11.0000000+00:00</time></trkpt><trkpt lat="38.98449442" lon="-0.50743765"><ele>187.4</ele><time>2022-11-13T17:12:12.0000000+00:00</time></trkpt><trkpt lat="38.98449811" lon="-0.50745349"><ele>187.4</ele><time>2022-11-13T17:12:13.0000000+00:00</time></trkpt><trkpt lat="38.98450314" lon="-0.50746934"><ele>187.4</ele><time>2022-11-13T17:12:14.0000000+00:00</time></trkpt><trkpt lat="38.9845049" lon="-0.50748828"><ele>187.4</ele><time>2022-11-13T17:12:15.0000000+00:00</time></trkpt><trkpt lat="38.98450985" lon="-0.50750605"><ele>187.4</ele><time>2022-11-13T17:12:16.0000000+00:00</time></trkpt><trkpt lat="38.98451613" lon="-0.50752139"><ele>187.6</ele><time>2022-11-13T17:12:17.0000000+00:00</time></trkpt><trkpt lat="38.98452091" lon="-0.50753446"><ele>187.6</ele><time>2022-11-13T17:12:18.0000000+00:00</time></trkpt><trkpt lat="38.98452317" lon="-0.50754075"><ele>187.6</ele><time>2022-11-13T17:12:19.0000000+00:00</time></trkpt><trkpt lat="38.98452418" lon="-0.50754326"><ele>187.6</ele><time>2022-11-13T17:12:20.0000000+00:00</time></trkpt><trkpt lat="38.9845241" lon="-0.5075441"><ele>187.6</ele><time>2022-11-13T17:12:21.0000000+00:00</time></trkpt><trkpt lat="38.98452125" lon="-0.50754611"><ele>187.6</ele><time>2022-11-13T17:12:22.0000000+00:00</time></trkpt><trkpt lat="38.98452016" lon="-0.5075519"><ele>187.6</ele><time>2022-11-13T17:12:23.0000000+00:00</time></trkpt><trkpt lat="38.98451848" lon="-0.5075581"><ele>187.6</ele><time>2022-11-13T17:12:24.0000000+00:00</time></trkpt><trkpt lat="38.98451999" lon="-0.50756958"><ele>187.6</ele><time>2022-11-13T17:12:25.0000000+00:00</time></trkpt><trkpt lat="38.98452837" lon="-0.5075814"><ele>187.6</ele><time>2022-11-13T17:12:26.0000000+00:00</time></trkpt><trkpt lat="38.98453927" lon="-0.50759104"><ele>187.6</ele><time>2022-11-13T17:12:27.0000000+00:00</time></trkpt><trkpt lat="38.98455134" lon="-0.50760018"><ele>187.6</ele><time>2022-11-13T17:12:28.0000000+00:00</time></trkpt><trkpt lat="38.98456207" lon="-0.5076094"><ele>187.6</ele><time>2022-11-13T17:12:29.0000000+00:00</time></trkpt><trkpt lat="38.98456877" lon="-0.50762524"><ele>187.6</ele><time>2022-11-13T17:12:30.0000000+00:00</time></trkpt><trkpt lat="38.98457464" lon="-0.50764008"><ele>187.6</ele><time>2022-11-13T17:12:31.0000000+00:00</time></trkpt><trkpt lat="38.98458093" lon="-0.50765768"><ele>187.8</ele><time>2022-11-13T17:12:32.0000000+00:00</time></trkpt><trkpt lat="38.98458688" lon="-0.50767075"><ele>187.8</ele><time>2022-11-13T17:12:33.0000000+00:00</time></trkpt><trkpt lat="38.98459258" lon="-0.50769263"><ele>187.8</ele><time>2022-11-13T17:12:34.0000000+00:00</time></trkpt><trkpt lat="38.98460079" lon="-0.50771258"><ele>187.8</ele><time>2022-11-13T17:12:35.0000000+00:00</time></trkpt><trkpt lat="38.98461018" lon="-0.50772582"><ele>187.8</ele><time>2022-11-13T17:12:36.0000000+00:00</time></trkpt><trkpt lat="38.9846204" lon="-0.50773873"><ele>187.8</ele><time>2022-11-13T17:12:37.0000000+00:00</time></trkpt><trkpt lat="38.98463029" lon="-0.50775499"><ele>187.8</ele><time>2022-11-13T17:12:38.0000000+00:00</time></trkpt><trkpt lat="38.98464035" lon="-0.50776949"><ele>187.8</ele><time>2022-11-13T17:12:39.0000000+00:00</time></trkpt><trkpt lat="38.98464739" lon="-0.50778533"><ele>187.8</ele><time>2022-11-13T17:12:40.0000000+00:00</time></trkpt><trkpt lat="38.98465385" lon="-0.5078"><ele>187.8</ele><time>2022-11-13T17:12:41.0000000+00:00</time></trkpt><trkpt lat="38.98465963" lon="-0.50780914"><ele>187.8</ele><time>2022-11-13T17:12:42.0000000+00:00</time></trkpt><trkpt lat="38.98466575" lon="-0.50781484"><ele>187.8</ele><time>2022-11-13T17:12:43.0000000+00:00</time></trkpt><trkpt lat="38.98467623" lon="-0.50781928"><ele>188.0</ele><time>2022-11-13T17:12:44.0000000+00:00</time></trkpt><trkpt lat="38.98468637" lon="-0.5078254"><ele>188.0</ele><time>2022-11-13T17:12:45.0000000+00:00</time></trkpt><trkpt lat="38.98469224" lon="-0.50783395"><ele>188.0</ele><time>2022-11-13T17:12:46.0000000+00:00</time></trkpt><trkpt lat="38.98469819" lon="-0.50784702"><ele>188.2</ele><time>2022-11-13T17:12:47.0000000+00:00</time></trkpt><trkpt lat="38.98471017" lon="-0.50786228"><ele>188.2</ele><time>2022-11-13T17:12:48.0000000+00:00</time></trkpt><trkpt lat="38.98471923" lon="-0.50787661"><ele>188.2</ele><time>2022-11-13T17:12:49.0000000+00:00</time></trkpt><trkpt lat="38.98472836" lon="-0.50789128"><ele>188.4</ele><time>2022-11-13T17:12:50.0000000+00:00</time></trkpt><trkpt lat="38.98473641" lon="-0.50790503"><ele>188.4</ele><time>2022-11-13T17:12:51.0000000+00:00</time></trkpt><trkpt lat="38.98474244" lon="-0.50791768"><ele>188.6</ele><time>2022-11-13T17:12:52.0000000+00:00</time></trkpt><trkpt lat="38.98474865" lon="-0.50792623"><ele>188.6</ele><time>2022-11-13T17:12:53.0000000+00:00</time></trkpt><trkpt lat="38.98475493" lon="-0.50793537"><ele>188.6</ele><time>2022-11-13T17:12:54.0000000+00:00</time></trkpt><trkpt lat="38.98476147" lon="-0.50794384"><ele>188.8</ele><time>2022-11-13T17:12:55.0000000+00:00</time></trkpt><trkpt lat="38.98476541" lon="-0.50794928"><ele>189.0</ele><time>2022-11-13T17:12:56.0000000+00:00</time></trkpt><trkpt lat="38.98476273" lon="-0.5079523"><ele>189.0</ele><time>2022-11-13T17:12:57.0000000+00:00</time></trkpt><trkpt lat="38.98476181" lon="-0.50795507"><ele>189.2</ele><time>2022-11-13T17:12:58.0000000+00:00</time></trkpt><trkpt lat="38.98476072" lon="-0.50795783"><ele>189.2</ele><time>2022-11-13T17:12:59.0000000+00:00</time></trkpt><trkpt lat="38.98475954" lon="-0.50795985"><ele>189.4</ele><time>2022-11-13T17:13:00.0000000+00:00</time></trkpt><trkpt lat="38.98475879" lon="-0.50796454"><ele>189.4</ele><time>2022-11-13T17:13:01.0000000+00:00</time></trkpt><trkpt lat="38.98476088" lon="-0.5079699"><ele>189.4</ele><time>2022-11-13T17:13:02.0000000+00:00</time></trkpt><trkpt lat="38.98476407" lon="-0.50797284"><ele>189.4</ele><time>2022-11-13T17:13:03.0000000+00:00</time></trkpt><trkpt lat="38.98476675" lon="-0.50797602"><ele>189.6</ele><time>2022-11-13T17:13:04.0000000+00:00</time></trkpt><trkpt lat="38.98476826" lon="-0.50797778"><ele>189.6</ele><time>2022-11-13T17:13:05.0000000+00:00</time></trkpt><trkpt lat="38.98477287" lon="-0.50797803"><ele>189.8</ele><time>2022-11-13T17:13:06.0000000+00:00</time></trkpt><trkpt lat="38.98477421" lon="-0.50797845"><ele>189.8</ele><time>2022-11-13T17:13:07.0000000+00:00</time></trkpt><trkpt lat="38.98477463" lon="-0.50797669"><ele>189.8</ele><time>2022-11-13T17:13:08.0000000+00:00</time></trkpt><trkpt lat="38.98477471" lon="-0.5079746"><ele>189.8</ele><time>2022-11-13T17:13:09.0000000+00:00</time></trkpt><trkpt lat="38.98477597" lon="-0.50797368"><ele>189.8</ele><time>2022-11-13T17:13:10.0000000+00:00</time></trkpt><trkpt lat="38.98477715" lon="-0.50798474"><ele>189.8</ele><time>2022-11-13T17:13:11.0000000+00:00</time></trkpt><trkpt lat="38.98477614" lon="-0.50799647"><ele>189.8</ele><time>2022-11-13T17:13:12.0000000+00:00</time></trkpt><trkpt lat="38.98477614" lon="-0.50801173"><ele>189.8</ele><time>2022-11-13T17:13:13.0000000+00:00</time></trkpt><trkpt lat="38.98477924" lon="-0.50803076"><ele>190.0</ele><time>2022-11-13T17:13:14.0000000+00:00</time></trkpt><trkpt lat="38.98477907" lon="-0.50804861"><ele>190.2</ele><time>2022-11-13T17:13:15.0000000+00:00</time></trkpt><trkpt lat="38.98478201" lon="-0.50806479"><ele>190.2</ele><time>2022-11-13T17:13:16.0000000+00:00</time></trkpt><trkpt lat="38.98478603" lon="-0.50808147"><ele>190.2</ele><time>2022-11-13T17:13:17.0000000+00:00</time></trkpt><trkpt lat="38.9847898" lon="-0.50809362"><ele>190.4</ele><time>2022-11-13T17:13:18.0000000+00:00</time></trkpt><trkpt lat="38.98479525" lon="-0.50810292"><ele>190.4</ele><time>2022-11-13T17:13:19.0000000+00:00</time></trkpt><trkpt lat="38.98480087" lon="-0.50810837"><ele>190.4</ele><time>2022-11-13T17:13:20.0000000+00:00</time></trkpt><trkpt lat="38.98480372" lon="-0.50811265"><ele>190.4</ele><time>2022-11-13T17:13:21.0000000+00:00</time></trkpt><trkpt lat="38.98480581" lon="-0.50811608"><ele>190.4</ele><time>2022-11-13T17:13:22.0000000+00:00</time></trkpt><trkpt lat="38.98480631" lon="-0.50811885"><ele>190.2</ele><time>2022-11-13T17:13:23.0000000+00:00</time></trkpt><trkpt lat="38.98480573" lon="-0.50812136"><ele>190.2</ele><time>2022-11-13T17:13:24.0000000+00:00</time></trkpt><trkpt lat="38.98480497" lon="-0.50812153"><ele>190.2</ele><time>2022-11-13T17:13:25.0000000+00:00</time></trkpt><trkpt lat="38.98480606" lon="-0.50812371"><ele>190.2</ele><time>2022-11-13T17:13:26.0000000+00:00</time></trkpt><trkpt lat="38.98480564" lon="-0.50812229"><ele>190.2</ele><time>2022-11-13T17:13:27.0000000+00:00</time></trkpt><trkpt lat="38.98480858" lon="-0.50812488"><ele>190.2</ele><time>2022-11-13T17:13:28.0000000+00:00</time></trkpt><trkpt lat="38.98481403" lon="-0.50813167"><ele>190.2</ele><time>2022-11-13T17:13:29.0000000+00:00</time></trkpt><trkpt lat="38.98481964" lon="-0.5081336"><ele>190.2</ele><time>2022-11-13T17:13:30.0000000+00:00</time></trkpt><trkpt lat="38.98482207" lon="-0.50813528"><ele>190.2</ele><time>2022-11-13T17:13:31.0000000+00:00</time></trkpt><trkpt lat="38.98482945" lon="-0.50813947"><ele>190.0</ele><time>2022-11-13T17:13:32.0000000+00:00</time></trkpt><trkpt lat="38.98483632" lon="-0.50814509"><ele>189.8</ele><time>2022-11-13T17:13:33.0000000+00:00</time></trkpt><trkpt lat="38.98484152" lon="-0.50815363"><ele>189.8</ele><time>2022-11-13T17:13:34.0000000+00:00</time></trkpt><trkpt lat="38.98485116" lon="-0.50816034"><ele>189.6</ele><time>2022-11-13T17:13:35.0000000+00:00</time></trkpt><trkpt lat="38.98485946" lon="-0.50816453"><ele>189.6</ele><time>2022-11-13T17:13:36.0000000+00:00</time></trkpt><trkpt lat="38.98486524" lon="-0.50817182"><ele>189.4</ele><time>2022-11-13T17:13:37.0000000+00:00</time></trkpt><trkpt lat="38.98487228" lon="-0.50817878"><ele>189.4</ele><time>2022-11-13T17:13:38.0000000+00:00</time></trkpt><trkpt lat="38.98488016" lon="-0.508188"><ele>189.4</ele><time>2022-11-13T17:13:39.0000000+00:00</time></trkpt><trkpt lat="38.98488712" lon="-0.50819948"><ele>189.2</ele><time>2022-11-13T17:13:40.0000000+00:00</time></trkpt><trkpt lat="38.9848924" lon="-0.50820879"><ele>189.2</ele><time>2022-11-13T17:13:41.0000000+00:00</time></trkpt><trkpt lat="38.98489885" lon="-0.50821977"><ele>189.0</ele><time>2022-11-13T17:13:42.0000000+00:00</time></trkpt><trkpt lat="38.98490916" lon="-0.50823368"><ele>188.8</ele><time>2022-11-13T17:13:43.0000000+00:00</time></trkpt><trkpt lat="38.98491888" lon="-0.50824315"><ele>188.6</ele><time>2022-11-13T17:13:44.0000000+00:00</time></trkpt><trkpt lat="38.98492978" lon="-0.50825573"><ele>188.6</ele><time>2022-11-13T17:13:45.0000000+00:00</time></trkpt><trkpt lat="38.98493942" lon="-0.50826503"><ele>188.4</ele><time>2022-11-13T17:13:46.0000000+00:00</time></trkpt><trkpt lat="38.98495208" lon="-0.50825958"><ele>188.2</ele><time>2022-11-13T17:13:47.0000000+00:00</time></trkpt><trkpt lat="38.98496331" lon="-0.50825858"><ele>188.2</ele><time>2022-11-13T17:13:48.0000000+00:00</time></trkpt><trkpt lat="38.98496792" lon="-0.50826084"><ele>188.0</ele><time>2022-11-13T17:13:49.0000000+00:00</time></trkpt><trkpt lat="38.98497555" lon="-0.50827702"><ele>188.0</ele><time>2022-11-13T17:13:50.0000000+00:00</time></trkpt><trkpt lat="38.98498426" lon="-0.50829093"><ele>187.8</ele><time>2022-11-13T17:13:51.0000000+00:00</time></trkpt><trkpt lat="38.9849965" lon="-0.50830526"><ele>187.8</ele><time>2022-11-13T17:13:52.0000000+00:00</time></trkpt><trkpt lat="38.98500245" lon="-0.50831163"><ele>187.6</ele><time>2022-11-13T17:13:53.0000000+00:00</time></trkpt><trkpt lat="38.98501184" lon="-0.50831708"><ele>187.6</ele><time>2022-11-13T17:13:54.0000000+00:00</time></trkpt><trkpt lat="38.98502374" lon="-0.50832203"><ele>187.4</ele><time>2022-11-13T17:13:55.0000000+00:00</time></trkpt><trkpt lat="38.98503539" lon="-0.5083201"><ele>187.2</ele><time>2022-11-13T17:13:56.0000000+00:00</time></trkpt><trkpt lat="38.98504704" lon="-0.50831725"><ele>187.0</ele><time>2022-11-13T17:13:57.0000000+00:00</time></trkpt><trkpt lat="38.98505702" lon="-0.50832379"><ele>187.0</ele><time>2022-11-13T17:13:58.0000000+00:00</time></trkpt><trkpt lat="38.98506699" lon="-0.50833443"><ele>186.8</ele><time>2022-11-13T17:13:59.0000000+00:00</time></trkpt><trkpt lat="38.98507537" lon="-0.50834784"><ele>186.8</ele><time>2022-11-13T17:14:00.0000000+00:00</time></trkpt><trkpt lat="38.98508258" lon="-0.50836234"><ele>186.6</ele><time>2022-11-13T17:14:01.0000000+00:00</time></trkpt><trkpt lat="38.98509155" lon="-0.50837785"><ele>186.4</ele><time>2022-11-13T17:14:02.0000000+00:00</time></trkpt><trkpt lat="38.98510412" lon="-0.50838866"><ele>186.2</ele><time>2022-11-13T17:14:03.0000000+00:00</time></trkpt><trkpt lat="38.98511443" lon="-0.50840283"><ele>186.2</ele><time>2022-11-13T17:14:04.0000000+00:00</time></trkpt><trkpt lat="38.98512667" lon="-0.50841456"><ele>186.2</ele><time>2022-11-13T17:14:05.0000000+00:00</time></trkpt><trkpt lat="38.98513824" lon="-0.50842236"><ele>186.0</ele><time>2022-11-13T17:14:06.0000000+00:00</time></trkpt><trkpt lat="38.98515366" lon="-0.50843434"><ele>186.0</ele><time>2022-11-13T17:14:07.0000000+00:00</time></trkpt><trkpt lat="38.98516531" lon="-0.5084387"><ele>186.0</ele><time>2022-11-13T17:14:08.0000000+00:00</time></trkpt><trkpt lat="38.98517269" lon="-0.50844189"><ele>185.8</ele><time>2022-11-13T17:14:09.0000000+00:00</time></trkpt><trkpt lat="38.98517906" lon="-0.5084548"><ele>185.6</ele><time>2022-11-13T17:14:10.0000000+00:00</time></trkpt><trkpt lat="38.98518484" lon="-0.50847064"><ele>185.4</ele><time>2022-11-13T17:14:11.0000000+00:00</time></trkpt><trkpt lat="38.98519398" lon="-0.50848464"><ele>185.2</ele><time>2022-11-13T17:14:12.0000000+00:00</time></trkpt><trkpt lat="38.98520454" lon="-0.50849738"><ele>185.2</ele><time>2022-11-13T17:14:13.0000000+00:00</time></trkpt><trkpt lat="38.98522038" lon="-0.50850249"><ele>185.2</ele><time>2022-11-13T17:14:14.0000000+00:00</time></trkpt><trkpt lat="38.98523429" lon="-0.50851188"><ele>185.0</ele><time>2022-11-13T17:14:15.0000000+00:00</time></trkpt><trkpt lat="38.98524754" lon="-0.50851825"><ele>184.8</ele><time>2022-11-13T17:14:16.0000000+00:00</time></trkpt><trkpt lat="38.98525885" lon="-0.5085268"><ele>184.6</ele><time>2022-11-13T17:14:17.0000000+00:00</time></trkpt><trkpt lat="38.98527201" lon="-0.50854029"><ele>184.6</ele><time>2022-11-13T17:14:18.0000000+00:00</time></trkpt><trkpt lat="38.98528668" lon="-0.50855211"><ele>184.4</ele><time>2022-11-13T17:14:19.0000000+00:00</time></trkpt><trkpt lat="38.985299" lon="-0.50855882"><ele>184.4</ele><time>2022-11-13T17:14:20.0000000+00:00</time></trkpt><trkpt lat="38.98530998" lon="-0.50856703"><ele>184.4</ele><time>2022-11-13T17:14:21.0000000+00:00</time></trkpt><trkpt lat="38.98532063" lon="-0.50857625"><ele>184.2</ele><time>2022-11-13T17:14:22.0000000+00:00</time></trkpt><trkpt lat="38.9853301" lon="-0.50859343"><ele>184.0</ele><time>2022-11-13T17:14:23.0000000+00:00</time></trkpt><trkpt lat="38.98533622" lon="-0.50860953"><ele>184.0</ele><time>2022-11-13T17:14:24.0000000+00:00</time></trkpt><trkpt lat="38.98533806" lon="-0.50862436"><ele>184.0</ele><time>2022-11-13T17:14:25.0000000+00:00</time></trkpt><trkpt lat="38.98534318" lon="-0.50864096"><ele>184.0</ele><time>2022-11-13T17:14:26.0000000+00:00</time></trkpt><trkpt lat="38.98535122" lon="-0.50865286"><ele>184.0</ele><time>2022-11-13T17:14:27.0000000+00:00</time></trkpt><trkpt lat="38.98535625" lon="-0.50866602"><ele>183.8</ele><time>2022-11-13T17:14:28.0000000+00:00</time></trkpt><trkpt lat="38.98536178" lon="-0.50868195"><ele>183.8</ele><time>2022-11-13T17:14:29.0000000+00:00</time></trkpt><trkpt lat="38.98536941" lon="-0.50869393"><ele>183.8</ele><time>2022-11-13T17:14:30.0000000+00:00</time></trkpt><trkpt lat="38.98538232" lon="-0.50870433"><ele>183.6</ele><time>2022-11-13T17:14:31.0000000+00:00</time></trkpt><trkpt lat="38.98539808" lon="-0.50870919"><ele>183.4</ele><time>2022-11-13T17:14:32.0000000+00:00</time></trkpt><trkpt lat="38.98541375" lon="-0.50871271"><ele>183.4</ele><time>2022-11-13T17:14:33.0000000+00:00</time></trkpt><trkpt lat="38.9854249" lon="-0.50872176"><ele>183.2</ele><time>2022-11-13T17:14:34.0000000+00:00</time></trkpt><trkpt lat="38.98542875" lon="-0.50872981"><ele>183.0</ele><time>2022-11-13T17:14:35.0000000+00:00</time></trkpt><trkpt lat="38.98543336" lon="-0.50873626"><ele>182.8</ele><time>2022-11-13T17:14:36.0000000+00:00</time></trkpt><trkpt lat="38.98544124" lon="-0.50874213"><ele>182.6</ele><time>2022-11-13T17:14:37.0000000+00:00</time></trkpt><trkpt lat="38.98544828" lon="-0.50874934"><ele>182.4</ele><time>2022-11-13T17:14:38.0000000+00:00</time></trkpt><trkpt lat="38.98545667" lon="-0.50875294"><ele>182.2</ele><time>2022-11-13T17:14:39.0000000+00:00</time></trkpt><trkpt lat="38.9854679" lon="-0.50875898"><ele>182.2</ele><time>2022-11-13T17:14:40.0000000+00:00</time></trkpt><trkpt lat="38.98547754" lon="-0.50877012"><ele>182.0</ele><time>2022-11-13T17:14:41.0000000+00:00</time></trkpt><trkpt lat="38.98549003" lon="-0.50877926"><ele>182.0</ele><time>2022-11-13T17:14:42.0000000+00:00</time></trkpt><trkpt lat="38.98550645" lon="-0.50878823"><ele>181.8</ele><time>2022-11-13T17:14:43.0000000+00:00</time></trkpt><trkpt lat="38.98552406" lon="-0.50879762"><ele>181.6</ele><time>2022-11-13T17:14:44.0000000+00:00</time></trkpt><trkpt lat="38.98553152" lon="-0.50880348"><ele>181.6</ele><time>2022-11-13T17:14:45.0000000+00:00</time></trkpt><trkpt lat="38.98554266" lon="-0.50881404"><ele>181.4</ele><time>2022-11-13T17:14:46.0000000+00:00</time></trkpt><trkpt lat="38.9855518" lon="-0.50882905"><ele>181.4</ele><time>2022-11-13T17:14:47.0000000+00:00</time></trkpt><trkpt lat="38.98556085" lon="-0.50883651"><ele>181.2</ele><time>2022-11-13T17:14:48.0000000+00:00</time></trkpt><trkpt lat="38.98557091" lon="-0.50884724"><ele>181.0</ele><time>2022-11-13T17:14:49.0000000+00:00</time></trkpt><trkpt lat="38.98557628" lon="-0.50885067"><ele>180.8</ele><time>2022-11-13T17:14:50.0000000+00:00</time></trkpt><trkpt lat="38.98558214" lon="-0.50885486"><ele>180.8</ele><time>2022-11-13T17:14:51.0000000+00:00</time></trkpt><trkpt lat="38.98559153" lon="-0.50884791"><ele>180.6</ele><time>2022-11-13T17:14:52.0000000+00:00</time></trkpt><trkpt lat="38.98560385" lon="-0.50884925"><ele>180.4</ele><time>2022-11-13T17:14:53.0000000+00:00</time></trkpt><trkpt lat="38.98562053" lon="-0.50885897"><ele>180.4</ele><time>2022-11-13T17:14:54.0000000+00:00</time></trkpt><trkpt lat="38.98562791" lon="-0.50888127"><ele>180.2</ele><time>2022-11-13T17:14:55.0000000+00:00</time></trkpt><trkpt lat="38.98563864" lon="-0.50888923"><ele>180.2</ele><time>2022-11-13T17:14:56.0000000+00:00</time></trkpt><trkpt lat="38.98564953" lon="-0.50889443"><ele>180.0</ele><time>2022-11-13T17:14:57.0000000+00:00</time></trkpt><trkpt lat="38.9856585" lon="-0.50890029"><ele>180.0</ele><time>2022-11-13T17:14:58.0000000+00:00</time></trkpt><trkpt lat="38.98566403" lon="-0.50890331"><ele>179.8</ele><time>2022-11-13T17:14:59.0000000+00:00</time></trkpt><trkpt lat="38.98566881" lon="-0.50890683"><ele>179.6</ele><time>2022-11-13T17:15:00.0000000+00:00</time></trkpt><trkpt lat="38.98567577" lon="-0.50891438"><ele>179.6</ele><time>2022-11-13T17:15:01.0000000+00:00</time></trkpt><trkpt lat="38.98568683" lon="-0.50892301"><ele>179.4</ele><time>2022-11-13T17:15:02.0000000+00:00</time></trkpt><trkpt lat="38.98569748" lon="-0.5089298"><ele>179.2</ele><time>2022-11-13T17:15:03.0000000+00:00</time></trkpt><trkpt lat="38.98570494" lon="-0.50893541"><ele>179.2</ele><time>2022-11-13T17:15:04.0000000+00:00</time></trkpt><trkpt lat="38.98571416" lon="-0.50894329"><ele>179.0</ele><time>2022-11-13T17:15:05.0000000+00:00</time></trkpt><trkpt lat="38.98572003" lon="-0.50894271"><ele>178.8</ele><time>2022-11-13T17:15:06.0000000+00:00</time></trkpt><trkpt lat="38.9857279" lon="-0.50894623"><ele>178.8</ele><time>2022-11-13T17:15:07.0000000+00:00</time></trkpt><trkpt lat="38.98573302" lon="-0.50895142"><ele>178.6</ele><time>2022-11-13T17:15:08.0000000+00:00</time></trkpt><trkpt lat="38.98573972" lon="-0.5089583"><ele>178.4</ele><time>2022-11-13T17:15:09.0000000+00:00</time></trkpt><trkpt lat="38.98574811" lon="-0.50896978"><ele>178.2</ele><time>2022-11-13T17:15:10.0000000+00:00</time></trkpt><trkpt lat="38.98575733" lon="-0.50899057"><ele>178.2</ele><time>2022-11-13T17:15:11.0000000+00:00</time></trkpt><trkpt lat="38.9857652" lon="-0.50900457"><ele>178.0</ele><time>2022-11-13T17:15:12.0000000+00:00</time></trkpt><trkpt lat="38.98577032" lon="-0.50901437"><ele>177.8</ele><time>2022-11-13T17:15:13.0000000+00:00</time></trkpt><trkpt lat="38.98577971" lon="-0.50901714"><ele>177.6</ele><time>2022-11-13T17:15:14.0000000+00:00</time></trkpt><trkpt lat="38.9857901" lon="-0.50901764"><ele>177.4</ele><time>2022-11-13T17:15:15.0000000+00:00</time></trkpt><trkpt lat="38.98579429" lon="-0.50902116"><ele>177.2</ele><time>2022-11-13T17:15:16.0000000+00:00</time></trkpt><trkpt lat="38.98580192" lon="-0.50902728"><ele>177.0</ele><time>2022-11-13T17:15:17.0000000+00:00</time></trkpt><trkpt lat="38.98580862" lon="-0.50903994"><ele>176.8</ele><time>2022-11-13T17:15:18.0000000+00:00</time></trkpt><trkpt lat="38.98581851" lon="-0.50904639"><ele>176.6</ele><time>2022-11-13T17:15:19.0000000+00:00</time></trkpt><trkpt lat="38.98582555" lon="-0.50905628"><ele>176.4</ele><time>2022-11-13T17:15:20.0000000+00:00</time></trkpt><trkpt lat="38.98583343" lon="-0.50906089"><ele>176.4</ele><time>2022-11-13T17:15:21.0000000+00:00</time></trkpt><trkpt lat="38.98584274" lon="-0.50907925"><ele>176.2</ele><time>2022-11-13T17:15:22.0000000+00:00</time></trkpt><trkpt lat="38.98585137" lon="-0.50909182"><ele>176.0</ele><time>2022-11-13T17:15:23.0000000+00:00</time></trkpt><trkpt lat="38.98586411" lon="-0.50910163"><ele>175.8</ele><time>2022-11-13T17:15:24.0000000+00:00</time></trkpt><trkpt lat="38.98587031" lon="-0.50911948"><ele>175.4</ele><time>2022-11-13T17:15:25.0000000+00:00</time></trkpt><trkpt lat="38.98587626" lon="-0.50912761"><ele>175.2</ele><time>2022-11-13T17:15:26.0000000+00:00</time></trkpt><trkpt lat="38.98588465" lon="-0.50913214"><ele>175.2</ele><time>2022-11-13T17:15:27.0000000+00:00</time></trkpt><trkpt lat="38.98589261" lon="-0.50913549"><ele>175.0</ele><time>2022-11-13T17:15:28.0000000+00:00</time></trkpt><trkpt lat="38.98590376" lon="-0.50913742"><ele>175.0</ele><time>2022-11-13T17:15:29.0000000+00:00</time></trkpt><trkpt lat="38.98591415" lon="-0.50914354"><ele>175.0</ele><time>2022-11-13T17:15:30.0000000+00:00</time></trkpt><trkpt lat="38.98592563" lon="-0.5091489"><ele>174.8</ele><time>2022-11-13T17:15:31.0000000+00:00</time></trkpt><trkpt lat="38.98593728" lon="-0.50915242"><ele>174.6</ele><time>2022-11-13T17:15:32.0000000+00:00</time></trkpt><trkpt lat="38.98594801" lon="-0.50916164"><ele>174.4</ele><time>2022-11-13T17:15:33.0000000+00:00</time></trkpt><trkpt lat="38.98596042" lon="-0.50917145"><ele>174.4</ele><time>2022-11-13T17:15:34.0000000+00:00</time></trkpt><trkpt lat="38.98596847" lon="-0.50918452"><ele>174.2</ele><time>2022-11-13T17:15:35.0000000+00:00</time></trkpt><trkpt lat="38.98598171" lon="-0.50919718"><ele>174.0</ele><time>2022-11-13T17:15:36.0000000+00:00</time></trkpt><trkpt lat="38.98599738" lon="-0.50920766"><ele>174.0</ele><time>2022-11-13T17:15:37.0000000+00:00</time></trkpt><trkpt lat="38.98601205" lon="-0.50921788"><ele>173.8</ele><time>2022-11-13T17:15:38.0000000+00:00</time></trkpt><trkpt lat="38.986032" lon="-0.50923205"><ele>173.6</ele><time>2022-11-13T17:15:39.0000000+00:00</time></trkpt><trkpt lat="38.9860496" lon="-0.50924446"><ele>173.4</ele><time>2022-11-13T17:15:40.0000000+00:00</time></trkpt><trkpt lat="38.9860657" lon="-0.5092577"><ele>173.2</ele><time>2022-11-13T17:15:41.0000000+00:00</time></trkpt><trkpt lat="38.98608313" lon="-0.5092696"><ele>172.8</ele><time>2022-11-13T17:15:42.0000000+00:00</time></trkpt><trkpt lat="38.98610023" lon="-0.50928125"><ele>172.6</ele><time>2022-11-13T17:15:43.0000000+00:00</time></trkpt><trkpt lat="38.98611129" lon="-0.50929098"><ele>172.4</ele><time>2022-11-13T17:15:44.0000000+00:00</time></trkpt><trkpt lat="38.98611951" lon="-0.50930196"><ele>172.2</ele><time>2022-11-13T17:15:45.0000000+00:00</time></trkpt><trkpt lat="38.98612412" lon="-0.50931654"><ele>172.2</ele><time>2022-11-13T17:15:46.0000000+00:00</time></trkpt><trkpt lat="38.98612387" lon="-0.50933842"><ele>171.8</ele><time>2022-11-13T17:15:47.0000000+00:00</time></trkpt><trkpt lat="38.98612429" lon="-0.50935543"><ele>171.8</ele><time>2022-11-13T17:15:48.0000000+00:00</time></trkpt><trkpt lat="38.98612923" lon="-0.5093701"><ele>171.6</ele><time>2022-11-13T17:15:49.0000000+00:00</time></trkpt><trkpt lat="38.98612948" lon="-0.50938385"><ele>171.4</ele><time>2022-11-13T17:15:50.0000000+00:00</time></trkpt><trkpt lat="38.98613233" lon="-0.50939709"><ele>171.2</ele><time>2022-11-13T17:15:51.0000000+00:00</time></trkpt><trkpt lat="38.98613853" lon="-0.50941176"><ele>171.0</ele><time>2022-11-13T17:15:52.0000000+00:00</time></trkpt><trkpt lat="38.98614197" lon="-0.50942341"><ele>171.0</ele><time>2022-11-13T17:15:53.0000000+00:00</time></trkpt><trkpt lat="38.98614373" lon="-0.50943992"><ele>170.8</ele><time>2022-11-13T17:15:54.0000000+00:00</time></trkpt><trkpt lat="38.9861548" lon="-0.50945987"><ele>170.6</ele><time>2022-11-13T17:15:55.0000000+00:00</time></trkpt><trkpt lat="38.98616645" lon="-0.50947982"><ele>170.4</ele><time>2022-11-13T17:15:56.0000000+00:00</time></trkpt><trkpt lat="38.98617148" lon="-0.50949658"><ele>170.2</ele><time>2022-11-13T17:15:57.0000000+00:00</time></trkpt><trkpt lat="38.98618254" lon="-0.50950237"><ele>170.0</ele><time>2022-11-13T17:15:58.0000000+00:00</time></trkpt><trkpt lat="38.9861879" lon="-0.50951536"><ele>169.6</ele><time>2022-11-13T17:15:59.0000000+00:00</time></trkpt><trkpt lat="38.98619302" lon="-0.50953263"><ele>169.4</ele><time>2022-11-13T17:16:00.0000000+00:00</time></trkpt><trkpt lat="38.9861993" lon="-0.50955232"><ele>169.4</ele><time>2022-11-13T17:16:01.0000000+00:00</time></trkpt><trkpt lat="38.98621313" lon="-0.50956523"><ele>169.2</ele><time>2022-11-13T17:16:02.0000000+00:00</time></trkpt><trkpt lat="38.98622135" lon="-0.50958023"><ele>169.0</ele><time>2022-11-13T17:16:03.0000000+00:00</time></trkpt><trkpt lat="38.98622696" lon="-0.50959549"><ele>168.8</ele><time>2022-11-13T17:16:04.0000000+00:00</time></trkpt><trkpt lat="38.98623291" lon="-0.50961636"><ele>168.6</ele><time>2022-11-13T17:16:05.0000000+00:00</time></trkpt><trkpt lat="38.98623442" lon="-0.50962701"><ele>168.6</ele><time>2022-11-13T17:16:06.0000000+00:00</time></trkpt><trkpt lat="38.98624029" lon="-0.50964385"><ele>168.2</ele><time>2022-11-13T17:16:07.0000000+00:00</time></trkpt><trkpt lat="38.986248" lon="-0.50965182"><ele>168.0</ele><time>2022-11-13T17:16:08.0000000+00:00</time></trkpt><trkpt lat="38.98625605" lon="-0.50965609"><ele>167.8</ele><time>2022-11-13T17:16:09.0000000+00:00</time></trkpt><trkpt lat="38.98626359" lon="-0.50966766"><ele>167.6</ele><time>2022-11-13T17:16:10.0000000+00:00</time></trkpt><trkpt lat="38.98627047" lon="-0.50967671"><ele>167.4</ele><time>2022-11-13T17:16:11.0000000+00:00</time></trkpt><trkpt lat="38.98628128" lon="-0.50969054"><ele>167.4</ele><time>2022-11-13T17:16:12.0000000+00:00</time></trkpt><trkpt lat="38.98629251" lon="-0.50970077"><ele>167.0</ele><time>2022-11-13T17:16:13.0000000+00:00</time></trkpt><trkpt lat="38.98630223" lon="-0.50971602"><ele>166.8</ele><time>2022-11-13T17:16:14.0000000+00:00</time></trkpt><trkpt lat="38.98631137" lon="-0.50973354"><ele>166.6</ele><time>2022-11-13T17:16:15.0000000+00:00</time></trkpt><trkpt lat="38.98632168" lon="-0.50974268"><ele>166.4</ele><time>2022-11-13T17:16:16.0000000+00:00</time></trkpt><trkpt lat="38.98633023" lon="-0.50976061"><ele>166.4</ele><time>2022-11-13T17:16:17.0000000+00:00</time></trkpt><trkpt lat="38.98634381" lon="-0.50976556"><ele>166.2</ele><time>2022-11-13T17:16:18.0000000+00:00</time></trkpt><trkpt lat="38.98635596" lon="-0.50977989"><ele>166.0</ele><time>2022-11-13T17:16:19.0000000+00:00</time></trkpt><trkpt lat="38.98636418" lon="-0.50979062"><ele>165.8</ele><time>2022-11-13T17:16:20.0000000+00:00</time></trkpt><trkpt lat="38.98637063" lon="-0.50980101"><ele>165.8</ele><time>2022-11-13T17:16:21.0000000+00:00</time></trkpt><trkpt lat="38.9863765" lon="-0.5098094"><ele>165.6</ele><time>2022-11-13T17:16:22.0000000+00:00</time></trkpt><trkpt lat="38.98638588" lon="-0.50981719"><ele>165.4</ele><time>2022-11-13T17:16:23.0000000+00:00</time></trkpt><trkpt lat="38.98639552" lon="-0.50982633"><ele>165.2</ele><time>2022-11-13T17:16:24.0000000+00:00</time></trkpt><trkpt lat="38.98639955" lon="-0.509841"><ele>165.0</ele><time>2022-11-13T17:16:25.0000000+00:00</time></trkpt><trkpt lat="38.98640608" lon="-0.50984728"><ele>165.0</ele><time>2022-11-13T17:16:26.0000000+00:00</time></trkpt><trkpt lat="38.98641589" lon="-0.50985416"><ele>164.8</ele><time>2022-11-13T17:16:27.0000000+00:00</time></trkpt><trkpt lat="38.98642629" lon="-0.50985835"><ele>164.6</ele><time>2022-11-13T17:16:28.0000000+00:00</time></trkpt><trkpt lat="38.98643659" lon="-0.50985927"><ele>164.4</ele><time>2022-11-13T17:16:29.0000000+00:00</time></trkpt><trkpt lat="38.98644984" lon="-0.50986195"><ele>164.0</ele><time>2022-11-13T17:16:30.0000000+00:00</time></trkpt><trkpt lat="38.98645721" lon="-0.5098679"><ele>164.0</ele><time>2022-11-13T17:16:31.0000000+00:00</time></trkpt><trkpt lat="38.9864671" lon="-0.50988651"><ele>163.8</ele><time>2022-11-13T17:16:32.0000000+00:00</time></trkpt><trkpt lat="38.98647356" lon="-0.50990512"><ele>163.6</ele><time>2022-11-13T17:16:33.0000000+00:00</time></trkpt><trkpt lat="38.98648094" lon="-0.50992071"><ele>163.6</ele><time>2022-11-13T17:16:34.0000000+00:00</time></trkpt><trkpt lat="38.98648907" lon="-0.50994032"><ele>163.4</ele><time>2022-11-13T17:16:35.0000000+00:00</time></trkpt><trkpt lat="38.9864951" lon="-0.50995449"><ele>163.2</ele><time>2022-11-13T17:16:36.0000000+00:00</time></trkpt><trkpt lat="38.98650281" lon="-0.50998005"><ele>163.0</ele><time>2022-11-13T17:16:37.0000000+00:00</time></trkpt><trkpt lat="38.9865143" lon="-0.50999749"><ele>162.8</ele><time>2022-11-13T17:16:38.0000000+00:00</time></trkpt><trkpt lat="38.98653047" lon="-0.51000637"><ele>162.4</ele><time>2022-11-13T17:16:39.0000000+00:00</time></trkpt><trkpt lat="38.98654405" lon="-0.51000939"><ele>162.2</ele><time>2022-11-13T17:16:40.0000000+00:00</time></trkpt><trkpt lat="38.98656031" lon="-0.5100171"><ele>162.0</ele><time>2022-11-13T17:16:41.0000000+00:00</time></trkpt><trkpt lat="38.9865702" lon="-0.51001458"><ele>161.8</ele><time>2022-11-13T17:16:42.0000000+00:00</time></trkpt><trkpt lat="38.98657347" lon="-0.51001626"><ele>161.6</ele><time>2022-11-13T17:16:43.0000000+00:00</time></trkpt><trkpt lat="38.9865816" lon="-0.5100145"><ele>161.6</ele><time>2022-11-13T17:16:44.0000000+00:00</time></trkpt><trkpt lat="38.98659216" lon="-0.51000344"><ele>161.2</ele><time>2022-11-13T17:16:45.0000000+00:00</time></trkpt><trkpt lat="38.98659166" lon="-0.50999505"><ele>161.0</ele><time>2022-11-13T17:16:46.0000000+00:00</time></trkpt><trkpt lat="38.98659585" lon="-0.50999682"><ele>161.0</ele><time>2022-11-13T17:16:47.0000000+00:00</time></trkpt><trkpt lat="38.98659845" lon="-0.51001148"><ele>160.8</ele><time>2022-11-13T17:16:48.0000000+00:00</time></trkpt><trkpt lat="38.98659954" lon="-0.51001903"><ele>160.6</ele><time>2022-11-13T17:16:49.0000000+00:00</time></trkpt><trkpt lat="38.98659124" lon="-0.51003177"><ele>160.4</ele><time>2022-11-13T17:16:50.0000000+00:00</time></trkpt><trkpt lat="38.98659317" lon="-0.51003629"><ele>160.4</ele><time>2022-11-13T17:16:51.0000000+00:00</time></trkpt><trkpt lat="38.98658755" lon="-0.51004702"><ele>160.4</ele><time>2022-11-13T17:16:52.0000000+00:00</time></trkpt><trkpt lat="38.98658454" lon="-0.5100492"><ele>160.4</ele><time>2022-11-13T17:16:53.0000000+00:00</time></trkpt><trkpt lat="38.98658152" lon="-0.51005339"><ele>160.4</ele><time>2022-11-13T17:16:54.0000000+00:00</time></trkpt><trkpt lat="38.98658303" lon="-0.51006035"><ele>160.4</ele><time>2022-11-13T17:16:55.0000000+00:00</time></trkpt><trkpt lat="38.98658655" lon="-0.5100684"><ele>160.2</ele><time>2022-11-13T17:16:56.0000000+00:00</time></trkpt><trkpt lat="38.98659426" lon="-0.51006747"><ele>160.2</ele><time>2022-11-13T17:16:57.0000000+00:00</time></trkpt><trkpt lat="38.98660323" lon="-0.51008122"><ele>160.2</ele><time>2022-11-13T17:16:58.0000000+00:00</time></trkpt><trkpt lat="38.986608" lon="-0.51009438"><ele>160.2</ele><time>2022-11-13T17:16:59.0000000+00:00</time></trkpt><trkpt lat="38.98661672" lon="-0.51010804"><ele>160.0</ele><time>2022-11-13T17:17:00.0000000+00:00</time></trkpt><trkpt lat="38.98662561" lon="-0.51012238"><ele>159.8</ele><time>2022-11-13T17:17:01.0000000+00:00</time></trkpt><trkpt lat="38.98663273" lon="-0.5101295"><ele>159.8</ele><time>2022-11-13T17:17:02.0000000+00:00</time></trkpt><trkpt lat="38.98663919" lon="-0.51014006"><ele>159.6</ele><time>2022-11-13T17:17:03.0000000+00:00</time></trkpt><trkpt lat="38.98664656" lon="-0.51015138"><ele>159.6</ele><time>2022-11-13T17:17:04.0000000+00:00</time></trkpt><trkpt lat="38.98665126" lon="-0.51016286"><ele>159.6</ele><time>2022-11-13T17:17:05.0000000+00:00</time></trkpt><trkpt lat="38.98665897" lon="-0.51017443"><ele>159.4</ele><time>2022-11-13T17:17:06.0000000+00:00</time></trkpt><trkpt lat="38.98666391" lon="-0.51018331"><ele>159.2</ele><time>2022-11-13T17:17:07.0000000+00:00</time></trkpt><trkpt lat="38.98667439" lon="-0.51019169"><ele>159.2</ele><time>2022-11-13T17:17:08.0000000+00:00</time></trkpt><trkpt lat="38.98668738" lon="-0.51019639"><ele>159.0</ele><time>2022-11-13T17:17:09.0000000+00:00</time></trkpt><trkpt lat="38.98670197" lon="-0.51019471"><ele>158.8</ele><time>2022-11-13T17:17:10.0000000+00:00</time></trkpt><trkpt lat="38.98671261" lon="-0.51019907"><ele>158.6</ele><time>2022-11-13T17:17:11.0000000+00:00</time></trkpt><trkpt lat="38.98672083" lon="-0.51020754"><ele>158.4</ele><time>2022-11-13T17:17:12.0000000+00:00</time></trkpt><trkpt lat="38.98672451" lon="-0.51021474"><ele>158.4</ele><time>2022-11-13T17:17:13.0000000+00:00</time></trkpt><trkpt lat="38.98673256" lon="-0.51023"><ele>158.2</ele><time>2022-11-13T17:17:14.0000000+00:00</time></trkpt><trkpt lat="38.98674161" lon="-0.51025095"><ele>158.2</ele><time>2022-11-13T17:17:15.0000000+00:00</time></trkpt><trkpt lat="38.98675553" lon="-0.51026596"><ele>158.0</ele><time>2022-11-13T17:17:16.0000000+00:00</time></trkpt><trkpt lat="38.98676181" lon="-0.51027602"><ele>157.8</ele><time>2022-11-13T17:17:17.0000000+00:00</time></trkpt><trkpt lat="38.98676978" lon="-0.51028817"><ele>157.6</ele><time>2022-11-13T17:17:18.0000000+00:00</time></trkpt><trkpt lat="38.98677807" lon="-0.51030049"><ele>157.4</ele><time>2022-11-13T17:17:19.0000000+00:00</time></trkpt><trkpt lat="38.98678738" lon="-0.51031223"><ele>157.2</ele><time>2022-11-13T17:17:20.0000000+00:00</time></trkpt><trkpt lat="38.98679442" lon="-0.51032187"><ele>157.2</ele><time>2022-11-13T17:17:21.0000000+00:00</time></trkpt><trkpt lat="38.98679207" lon="-0.5103341"><ele>157.0</ele><time>2022-11-13T17:17:22.0000000+00:00</time></trkpt><trkpt lat="38.98678947" lon="-0.51034567"><ele>157.0</ele><time>2022-11-13T17:17:23.0000000+00:00</time></trkpt><trkpt lat="38.98678746" lon="-0.51035648"><ele>156.8</ele><time>2022-11-13T17:17:24.0000000+00:00</time></trkpt><trkpt lat="38.98679241" lon="-0.51037492"><ele>156.8</ele><time>2022-11-13T17:17:25.0000000+00:00</time></trkpt><trkpt lat="38.98680314" lon="-0.51038859"><ele>156.8</ele><time>2022-11-13T17:17:26.0000000+00:00</time></trkpt><trkpt lat="38.98681269" lon="-0.5103989"><ele>156.6</ele><time>2022-11-13T17:17:27.0000000+00:00</time></trkpt><trkpt lat="38.98682426" lon="-0.51041096"><ele>156.6</ele><time>2022-11-13T17:17:28.0000000+00:00</time></trkpt><trkpt lat="38.98682526" lon="-0.51042681"><ele>156.4</ele><time>2022-11-13T17:17:29.0000000+00:00</time></trkpt><trkpt lat="38.9868225" lon="-0.51043586"><ele>156.4</ele><time>2022-11-13T17:17:30.0000000+00:00</time></trkpt><trkpt lat="38.98681931" lon="-0.51045371"><ele>156.2</ele><time>2022-11-13T17:17:31.0000000+00:00</time></trkpt><trkpt lat="38.98681453" lon="-0.51046838"><ele>156.0</ele><time>2022-11-13T17:17:32.0000000+00:00</time></trkpt><trkpt lat="38.98681554" lon="-0.51048037"><ele>155.8</ele><time>2022-11-13T17:17:33.0000000+00:00</time></trkpt><trkpt lat="38.98682417" lon="-0.51049311"><ele>155.6</ele><time>2022-11-13T17:17:34.0000000+00:00</time></trkpt><trkpt lat="38.98683197" lon="-0.510503"><ele>155.4</ele><time>2022-11-13T17:17:35.0000000+00:00</time></trkpt><trkpt lat="38.98683993" lon="-0.51051532"><ele>155.2</ele><time>2022-11-13T17:17:36.0000000+00:00</time></trkpt><trkpt lat="38.98684655" lon="-0.51053108"><ele>155.0</ele><time>2022-11-13T17:17:37.0000000+00:00</time></trkpt><trkpt lat="38.98685049" lon="-0.51053946"><ele>154.8</ele><time>2022-11-13T17:17:38.0000000+00:00</time></trkpt><trkpt lat="38.9868743" lon="-0.5105444"><ele>154.8</ele><time>2022-11-13T17:17:39.0000000+00:00</time></trkpt><trkpt lat="38.98689265" lon="-0.51054591"><ele>154.6</ele><time>2022-11-13T17:17:40.0000000+00:00</time></trkpt><trkpt lat="38.98689986" lon="-0.51055689"><ele>154.6</ele><time>2022-11-13T17:17:41.0000000+00:00</time></trkpt><trkpt lat="38.98690984" lon="-0.51056335"><ele>154.4</ele><time>2022-11-13T17:17:42.0000000+00:00</time></trkpt><trkpt lat="38.98692157" lon="-0.51057559"><ele>154.4</ele><time>2022-11-13T17:17:43.0000000+00:00</time></trkpt><trkpt lat="38.9869349" lon="-0.51058774"><ele>154.4</ele><time>2022-11-13T17:17:44.0000000+00:00</time></trkpt><trkpt lat="38.98693993" lon="-0.51060224"><ele>154.2</ele><time>2022-11-13T17:17:45.0000000+00:00</time></trkpt><trkpt lat="38.98694621" lon="-0.51061959"><ele>154.0</ele><time>2022-11-13T17:17:46.0000000+00:00</time></trkpt><trkpt lat="38.98694714" lon="-0.51063526"><ele>154.0</ele><time>2022-11-13T17:17:47.0000000+00:00</time></trkpt><trkpt lat="38.98695334" lon="-0.51064893"><ele>154.0</ele><time>2022-11-13T17:17:48.0000000+00:00</time></trkpt><trkpt lat="38.98696172" lon="-0.51066116"><ele>153.8</ele><time>2022-11-13T17:17:49.0000000+00:00</time></trkpt><trkpt lat="38.98696348" lon="-0.51067122"><ele>153.6</ele><time>2022-11-13T17:17:50.0000000+00:00</time></trkpt><trkpt lat="38.98696734" lon="-0.51068296"><ele>153.6</ele><time>2022-11-13T17:17:51.0000000+00:00</time></trkpt><trkpt lat="38.98697538" lon="-0.51069813"><ele>153.4</ele><time>2022-11-13T17:17:52.0000000+00:00</time></trkpt><trkpt lat="38.98697848" lon="-0.51071422"><ele>153.2</ele><time>2022-11-13T17:17:53.0000000+00:00</time></trkpt><trkpt lat="38.98696834" lon="-0.51071841"><ele>153.2</ele><time>2022-11-13T17:17:54.0000000+00:00</time></trkpt><trkpt lat="38.98696608" lon="-0.51071883"><ele>153.0</ele><time>2022-11-13T17:17:55.0000000+00:00</time></trkpt><trkpt lat="38.98696507" lon="-0.51071825"><ele>153.0</ele><time>2022-11-13T17:17:56.0000000+00:00</time></trkpt><trkpt lat="38.98696357" lon="-0.51071732"><ele>153.0</ele><time>2022-11-13T17:17:57.0000000+00:00</time></trkpt><trkpt lat="38.98696289" lon="-0.51071565"><ele>153.0</ele><time>2022-11-13T17:17:58.0000000+00:00</time></trkpt><trkpt lat="38.98696264" lon="-0.51071347"><ele>153.0</ele><time>2022-11-13T17:17:59.0000000+00:00</time></trkpt><trkpt lat="38.98696155" lon="-0.51071246"><ele>153.0</ele><time>2022-11-13T17:18:00.0000000+00:00</time></trkpt><trkpt lat="38.98695946" lon="-0.5107102"><ele>153.0</ele><time>2022-11-13T17:18:01.0000000+00:00</time></trkpt><trkpt lat="38.98695895" lon="-0.51070986"><ele>153.0</ele><time>2022-11-13T17:18:02.0000000+00:00</time></trkpt><trkpt lat="38.98695921" lon="-0.5107107"><ele>153.0</ele><time>2022-11-13T17:18:03.0000000+00:00</time></trkpt><trkpt lat="38.98695954" lon="-0.51071196"><ele>153.0</ele><time>2022-11-13T17:18:04.0000000+00:00</time></trkpt><trkpt lat="38.98695904" lon="-0.51071204"><ele>153.0</ele><time>2022-11-13T17:18:05.0000000+00:00</time></trkpt><trkpt lat="38.98695904" lon="-0.51071204"><ele>153.0</ele><time>2022-11-13T17:18:06.0000000+00:00</time></trkpt><trkpt lat="38.98695904" lon="-0.51071204"><ele>153.0</ele><time>2022-11-13T17:18:07.0000000+00:00</time></trkpt><trkpt lat="38.98695904" lon="-0.51071204"><ele>152.8</ele><time>2022-11-13T17:18:08.0000000+00:00</time></trkpt><trkpt lat="38.98695904" lon="-0.51071204"><ele>152.6</ele><time>2022-11-13T17:18:09.0000000+00:00</time></trkpt><trkpt lat="38.98696231" lon="-0.51071791"><ele>152.6</ele><time>2022-11-13T17:18:10.0000000+00:00</time></trkpt><trkpt lat="38.98697689" lon="-0.51073518"><ele>152.6</ele><time>2022-11-13T17:18:11.0000000+00:00</time></trkpt><trkpt lat="38.98699575" lon="-0.51074867"><ele>152.4</ele><time>2022-11-13T17:18:12.0000000+00:00</time></trkpt><trkpt lat="38.98701193" lon="-0.51076368"><ele>152.4</ele><time>2022-11-13T17:18:13.0000000+00:00</time></trkpt><trkpt lat="38.98702442" lon="-0.51077197"><ele>152.4</ele><time>2022-11-13T17:18:14.0000000+00:00</time></trkpt><trkpt lat="38.98703246" lon="-0.51078027"><ele>152.2</ele><time>2022-11-13T17:18:15.0000000+00:00</time></trkpt><trkpt lat="38.98703875" lon="-0.51078756"><ele>152.2</ele><time>2022-11-13T17:18:16.0000000+00:00</time></trkpt><trkpt lat="38.98704026" lon="-0.51079469"><ele>152.2</ele><time>2022-11-13T17:18:17.0000000+00:00</time></trkpt><trkpt lat="38.98703716" lon="-0.51080483"><ele>152.2</ele><time>2022-11-13T17:18:18.0000000+00:00</time></trkpt><trkpt lat="38.98704571" lon="-0.51082092"><ele>152.0</ele><time>2022-11-13T17:18:19.0000000+00:00</time></trkpt><trkpt lat="38.98706029" lon="-0.5108433"><ele>151.8</ele><time>2022-11-13T17:18:20.0000000+00:00</time></trkpt><trkpt lat="38.98706624" lon="-0.51085638"><ele>151.8</ele><time>2022-11-13T17:18:21.0000000+00:00</time></trkpt><trkpt lat="38.98705979" lon="-0.5108708"><ele>151.6</ele><time>2022-11-13T17:18:22.0000000+00:00</time></trkpt><trkpt lat="38.98705183" lon="-0.51087851"><ele>151.6</ele><time>2022-11-13T17:18:23.0000000+00:00</time></trkpt><trkpt lat="38.98704764" lon="-0.51088429"><ele>151.6</ele><time>2022-11-13T17:18:24.0000000+00:00</time></trkpt><trkpt lat="38.98704395" lon="-0.51088932"><ele>151.6</ele><time>2022-11-13T17:18:25.0000000+00:00</time></trkpt><trkpt lat="38.98703976" lon="-0.51089536"><ele>151.6</ele><time>2022-11-13T17:18:26.0000000+00:00</time></trkpt><trkpt lat="38.98704319" lon="-0.5109117"><ele>151.4</ele><time>2022-11-13T17:18:27.0000000+00:00</time></trkpt><trkpt lat="38.98704152" lon="-0.51091991"><ele>151.2</ele><time>2022-11-13T17:18:28.0000000+00:00</time></trkpt><trkpt lat="38.98704009" lon="-0.51093634"><ele>151.2</ele><time>2022-11-13T17:18:29.0000000+00:00</time></trkpt><trkpt lat="38.98703364" lon="-0.51095126"><ele>151.2</ele><time>2022-11-13T17:18:30.0000000+00:00</time></trkpt><trkpt lat="38.98702819" lon="-0.5109666"><ele>151.0</ele><time>2022-11-13T17:18:31.0000000+00:00</time></trkpt><trkpt lat="38.98702366" lon="-0.51098395"><ele>150.8</ele><time>2022-11-13T17:18:32.0000000+00:00</time></trkpt><trkpt lat="38.98703079" lon="-0.51099912"><ele>150.6</ele><time>2022-11-13T17:18:33.0000000+00:00</time></trkpt><trkpt lat="38.98704219" lon="-0.51101128"><ele>150.6</ele><time>2022-11-13T17:18:34.0000000+00:00</time></trkpt><trkpt lat="38.98705082" lon="-0.51102192"><ele>150.4</ele><time>2022-11-13T17:18:35.0000000+00:00</time></trkpt><trkpt lat="38.98706725" lon="-0.51103148"><ele>150.4</ele><time>2022-11-13T17:18:36.0000000+00:00</time></trkpt><trkpt lat="38.9870711" lon="-0.51103919"><ele>150.2</ele><time>2022-11-13T17:18:37.0000000+00:00</time></trkpt><trkpt lat="38.98706951" lon="-0.5110526"><ele>150.0</ele><time>2022-11-13T17:18:38.0000000+00:00</time></trkpt><trkpt lat="38.98707094" lon="-0.51106995"><ele>150.0</ele><time>2022-11-13T17:18:39.0000000+00:00</time></trkpt><trkpt lat="38.98707328" lon="-0.51109241"><ele>150.0</ele><time>2022-11-13T17:18:40.0000000+00:00</time></trkpt><trkpt lat="38.98707228" lon="-0.51110532"><ele>149.8</ele><time>2022-11-13T17:18:41.0000000+00:00</time></trkpt><trkpt lat="38.98707437" lon="-0.5111225"><ele>149.8</ele><time>2022-11-13T17:18:42.0000000+00:00</time></trkpt><trkpt lat="38.98707094" lon="-0.51113977"><ele>149.6</ele><time>2022-11-13T17:18:43.0000000+00:00</time></trkpt><trkpt lat="38.98706473" lon="-0.5111479"><ele>149.6</ele><time>2022-11-13T17:18:44.0000000+00:00</time></trkpt><trkpt lat="38.98706876" lon="-0.51116525"><ele>149.4</ele><time>2022-11-13T17:18:45.0000000+00:00</time></trkpt><trkpt lat="38.98706021" lon="-0.51117665"><ele>149.2</ele><time>2022-11-13T17:18:46.0000000+00:00</time></trkpt><trkpt lat="38.9870535" lon="-0.51119073"><ele>149.2</ele><time>2022-11-13T17:18:47.0000000+00:00</time></trkpt><trkpt lat="38.98704822" lon="-0.51120532"><ele>149.0</ele><time>2022-11-13T17:18:48.0000000+00:00</time></trkpt><trkpt lat="38.9870535" lon="-0.51122535"><ele>149.0</ele><time>2022-11-13T17:18:49.0000000+00:00</time></trkpt><trkpt lat="38.98705744" lon="-0.51124723"><ele>149.0</ele><time>2022-11-13T17:18:50.0000000+00:00</time></trkpt><trkpt lat="38.98705199" lon="-0.51125754"><ele>149.0</ele><time>2022-11-13T17:18:51.0000000+00:00</time></trkpt><trkpt lat="38.98704948" lon="-0.51127656"><ele>149.0</ele><time>2022-11-13T17:18:52.0000000+00:00</time></trkpt><trkpt lat="38.98705074" lon="-0.51128645"><ele>149.0</ele><time>2022-11-13T17:18:53.0000000+00:00</time></trkpt><trkpt lat="38.98705551" lon="-0.51130774"><ele>148.8</ele><time>2022-11-13T17:18:54.0000000+00:00</time></trkpt><trkpt lat="38.98705744" lon="-0.51132434"><ele>148.4</ele><time>2022-11-13T17:18:55.0000000+00:00</time></trkpt><trkpt lat="38.9870561" lon="-0.5113396"><ele>148.2</ele><time>2022-11-13T17:18:56.0000000+00:00</time></trkpt><trkpt lat="38.9870473" lon="-0.511351"><ele>148.2</ele><time>2022-11-13T17:18:57.0000000+00:00</time></trkpt><trkpt lat="38.98704043" lon="-0.51136424"><ele>148.0</ele><time>2022-11-13T17:18:58.0000000+00:00</time></trkpt><trkpt lat="38.98703816" lon="-0.51137572"><ele>147.8</ele><time>2022-11-13T17:18:59.0000000+00:00</time></trkpt><trkpt lat="38.98702836" lon="-0.51138972"><ele>147.6</ele><time>2022-11-13T17:19:00.0000000+00:00</time></trkpt><trkpt lat="38.98702987" lon="-0.51140715"><ele>147.4</ele><time>2022-11-13T17:19:01.0000000+00:00</time></trkpt><trkpt lat="38.98702819" lon="-0.51141746"><ele>147.2</ele><time>2022-11-13T17:19:02.0000000+00:00</time></trkpt><trkpt lat="38.98702442" lon="-0.51142836"><ele>147.2</ele><time>2022-11-13T17:19:03.0000000+00:00</time></trkpt><trkpt lat="38.9870209" lon="-0.51144303"><ele>147.0</ele><time>2022-11-13T17:19:04.0000000+00:00</time></trkpt><trkpt lat="38.98702031" lon="-0.51145786"><ele>147.0</ele><time>2022-11-13T17:19:05.0000000+00:00</time></trkpt><trkpt lat="38.98701117" lon="-0.51146692"><ele>146.8</ele><time>2022-11-13T17:19:06.0000000+00:00</time></trkpt><trkpt lat="38.98701151" lon="-0.51148175"><ele>146.6</ele><time>2022-11-13T17:19:07.0000000+00:00</time></trkpt><trkpt lat="38.98701562" lon="-0.5115007"><ele>146.4</ele><time>2022-11-13T17:19:08.0000000+00:00</time></trkpt><trkpt lat="38.98701604" lon="-0.51151453"><ele>146.2</ele><time>2022-11-13T17:19:09.0000000+00:00</time></trkpt><trkpt lat="38.98701863" lon="-0.51153272"><ele>146.2</ele><time>2022-11-13T17:19:10.0000000+00:00</time></trkpt><trkpt lat="38.98701771" lon="-0.51154889"><ele>146.2</ele><time>2022-11-13T17:19:11.0000000+00:00</time></trkpt><trkpt lat="38.98702551" lon="-0.51157035"><ele>146.0</ele><time>2022-11-13T17:19:12.0000000+00:00</time></trkpt><trkpt lat="38.98702559" lon="-0.51158552"><ele>146.0</ele><time>2022-11-13T17:19:13.0000000+00:00</time></trkpt><trkpt lat="38.98702836" lon="-0.51160212"><ele>145.8</ele><time>2022-11-13T17:19:14.0000000+00:00</time></trkpt><trkpt lat="38.98703464" lon="-0.51162114"><ele>145.6</ele><time>2022-11-13T17:19:15.0000000+00:00</time></trkpt><trkpt lat="38.98703557" lon="-0.51164042"><ele>145.4</ele><time>2022-11-13T17:19:16.0000000+00:00</time></trkpt><trkpt lat="38.98703892" lon="-0.51165434"><ele>145.4</ele><time>2022-11-13T17:19:17.0000000+00:00</time></trkpt><trkpt lat="38.98703934" lon="-0.51165886"><ele>145.4</ele><time>2022-11-13T17:19:18.0000000+00:00</time></trkpt><trkpt lat="38.98703825" lon="-0.51165886"><ele>145.2</ele><time>2022-11-13T17:19:19.0000000+00:00</time></trkpt><trkpt lat="38.98703758" lon="-0.51165752"><ele>145.2</ele><time>2022-11-13T17:19:20.0000000+00:00</time></trkpt><trkpt lat="38.98703808" lon="-0.51165559"><ele>145.0</ele><time>2022-11-13T17:19:21.0000000+00:00</time></trkpt><trkpt lat="38.98703984" lon="-0.51165367"><ele>145.0</ele><time>2022-11-13T17:19:22.0000000+00:00</time></trkpt><trkpt lat="38.98704244" lon="-0.51165232"><ele>145.0</ele><time>2022-11-13T17:19:23.0000000+00:00</time></trkpt><trkpt lat="38.98704462" lon="-0.51165107"><ele>145.0</ele><time>2022-11-13T17:19:24.0000000+00:00</time></trkpt><trkpt lat="38.98704562" lon="-0.51164989"><ele>145.0</ele><time>2022-11-13T17:19:25.0000000+00:00</time></trkpt><trkpt lat="38.98704831" lon="-0.51164797"><ele>145.0</ele><time>2022-11-13T17:19:26.0000000+00:00</time></trkpt><trkpt lat="38.98704914" lon="-0.51164872"><ele>144.8</ele><time>2022-11-13T17:19:27.0000000+00:00</time></trkpt><trkpt lat="38.98705132" lon="-0.51165249"><ele>144.8</ele><time>2022-11-13T17:19:28.0000000+00:00</time></trkpt><trkpt lat="38.98705359" lon="-0.51165031"><ele>144.8</ele><time>2022-11-13T17:19:29.0000000+00:00</time></trkpt><trkpt lat="38.98705593" lon="-0.51164839"><ele>144.8</ele><time>2022-11-13T17:19:30.0000000+00:00</time></trkpt><trkpt lat="38.98705736" lon="-0.51164755"><ele>144.8</ele><time>2022-11-13T17:19:31.0000000+00:00</time></trkpt><trkpt lat="38.98705602" lon="-0.5116478"><ele>144.8</ele><time>2022-11-13T17:19:32.0000000+00:00</time></trkpt><trkpt lat="38.98705602" lon="-0.5116478"><ele>144.8</ele><time>2022-11-13T17:19:33.0000000+00:00</time></trkpt><trkpt lat="38.98705602" lon="-0.5116478"><ele>144.8</ele><time>2022-11-13T17:19:34.0000000+00:00</time></trkpt><trkpt lat="38.98705602" lon="-0.5116478"><ele>144.8</ele><time>2022-11-13T17:19:35.0000000+00:00</time></trkpt><trkpt lat="38.98705602" lon="-0.5116478"><ele>144.8</ele><time>2022-11-13T17:19:36.0000000+00:00</time></trkpt><trkpt lat="38.98705602" lon="-0.5116478"><ele>145.0</ele><time>2022-11-13T17:19:37.0000000+00:00</time></trkpt><trkpt lat="38.98705602" lon="-0.5116478"><ele>145.0</ele><time>2022-11-13T17:19:38.0000000+00:00</time></trkpt><trkpt lat="38.98705602" lon="-0.5116478"><ele>145.0</ele><time>2022-11-13T17:19:39.0000000+00:00</time></trkpt><trkpt lat="38.98705602" lon="-0.5116478"><ele>145.0</ele><time>2022-11-13T17:19:40.0000000+00:00</time></trkpt><trkpt lat="38.98705602" lon="-0.5116478"><ele>145.0</ele><time>2022-11-13T17:19:41.0000000+00:00</time></trkpt><trkpt lat="38.98705602" lon="-0.51164797"><ele>145.0</ele><time>2022-11-13T17:19:42.0000000+00:00</time></trkpt><trkpt lat="38.98705602" lon="-0.51164839"><ele>145.0</ele><time>2022-11-13T17:19:43.0000000+00:00</time></trkpt><trkpt lat="38.98705602" lon="-0.51164839"><ele>145.0</ele><time>2022-11-13T17:19:44.0000000+00:00</time></trkpt><trkpt lat="38.98705602" lon="-0.51164839"><ele>145.0</ele><time>2022-11-13T17:19:45.0000000+00:00</time></trkpt><trkpt lat="38.98705602" lon="-0.51164839"><ele>145.0</ele><time>2022-11-13T17:19:46.0000000+00:00</time></trkpt><trkpt lat="38.98705602" lon="-0.51164839"><ele>145.0</ele><time>2022-11-13T17:19:47.0000000+00:00</time></trkpt><trkpt lat="38.98705635" lon="-0.51164839"><ele>145.0</ele><time>2022-11-13T17:19:48.0000000+00:00</time></trkpt><trkpt lat="38.98705644" lon="-0.51164839"><ele>145.0</ele><time>2022-11-13T17:19:49.0000000+00:00</time></trkpt><trkpt lat="38.9870566" lon="-0.51164839"><ele>145.0</ele><time>2022-11-13T17:19:50.0000000+00:00</time></trkpt><trkpt lat="38.98705727" lon="-0.51164839"><ele>145.2</ele><time>2022-11-13T17:19:51.0000000+00:00</time></trkpt><trkpt lat="38.98705786" lon="-0.51164839"><ele>145.2</ele><time>2022-11-13T17:19:52.0000000+00:00</time></trkpt><trkpt lat="38.98705828" lon="-0.51164872"><ele>145.2</ele><time>2022-11-13T17:19:53.0000000+00:00</time></trkpt><trkpt lat="38.98705929" lon="-0.51164872"><ele>145.2</ele><time>2022-11-13T17:19:54.0000000+00:00</time></trkpt><trkpt lat="38.98705979" lon="-0.51164872"><ele>145.2</ele><time>2022-11-13T17:19:55.0000000+00:00</time></trkpt><trkpt lat="38.98706012" lon="-0.5116488"><ele>145.2</ele><time>2022-11-13T17:19:56.0000000+00:00</time></trkpt><trkpt lat="38.98706884" lon="-0.51164914"><ele>145.2</ele><time>2022-11-13T17:19:57.0000000+00:00</time></trkpt><trkpt lat="38.98706934" lon="-0.51165392"><ele>145.2</ele><time>2022-11-13T17:19:58.0000000+00:00</time></trkpt><trkpt lat="38.98706733" lon="-0.51167378"><ele>145.2</ele><time>2022-11-13T17:19:59.0000000+00:00</time></trkpt><trkpt lat="38.98707236" lon="-0.51168954"><ele>145.2</ele><time>2022-11-13T17:20:00.0000000+00:00</time></trkpt><trkpt lat="38.98707856" lon="-0.51171301"><ele>145.0</ele><time>2022-11-13T17:20:01.0000000+00:00</time></trkpt><trkpt lat="38.98708024" lon="-0.51173371"><ele>145.0</ele><time>2022-11-13T17:20:02.0000000+00:00</time></trkpt><trkpt lat="38.98708343" lon="-0.5117581"><ele>145.0</ele><time>2022-11-13T17:20:03.0000000+00:00</time></trkpt><trkpt lat="38.98708385" lon="-0.51177822"><ele>145.0</ele><time>2022-11-13T17:20:04.0000000+00:00</time></trkpt><trkpt lat="38.98708493" lon="-0.51180152"><ele>144.8</ele><time>2022-11-13T17:20:05.0000000+00:00</time></trkpt><trkpt lat="38.98708602" lon="-0.51182306"><ele>144.8</ele><time>2022-11-13T17:20:06.0000000+00:00</time></trkpt><trkpt lat="38.98708351" lon="-0.51184243"><ele>144.8</ele><time>2022-11-13T17:20:07.0000000+00:00</time></trkpt><trkpt lat="38.98707898" lon="-0.51186212"><ele>144.8</ele><time>2022-11-13T17:20:08.0000000+00:00</time></trkpt><trkpt lat="38.98707571" lon="-0.51187956"><ele>144.6</ele><time>2022-11-13T17:20:09.0000000+00:00</time></trkpt><trkpt lat="38.98707949" lon="-0.51189641"><ele>144.6</ele><time>2022-11-13T17:20:10.0000000+00:00</time></trkpt><trkpt lat="38.98708804" lon="-0.51191468"><ele>144.8</ele><time>2022-11-13T17:20:11.0000000+00:00</time></trkpt><trkpt lat="38.98709047" lon="-0.51192784"><ele>144.8</ele><time>2022-11-13T17:20:12.0000000+00:00</time></trkpt><trkpt lat="38.98709709" lon="-0.51193521"><ele>144.8</ele><time>2022-11-13T17:20:13.0000000+00:00</time></trkpt><trkpt lat="38.98709625" lon="-0.511942"><ele>144.8</ele><time>2022-11-13T17:20:14.0000000+00:00</time></trkpt><trkpt lat="38.98710019" lon="-0.51195273"><ele>144.6</ele><time>2022-11-13T17:20:15.0000000+00:00</time></trkpt><trkpt lat="38.98709038" lon="-0.51196698"><ele>144.4</ele><time>2022-11-13T17:20:16.0000000+00:00</time></trkpt><trkpt lat="38.98708385" lon="-0.51197746"><ele>144.4</ele><time>2022-11-13T17:20:17.0000000+00:00</time></trkpt><trkpt lat="38.98707748" lon="-0.51198081"><ele>144.2</ele><time>2022-11-13T17:20:18.0000000+00:00</time></trkpt><trkpt lat="38.98707437" lon="-0.51199473"><ele>144.2</ele><time>2022-11-13T17:20:19.0000000+00:00</time></trkpt><trkpt lat="38.98706591" lon="-0.51200378"><ele>144.2</ele><time>2022-11-13T17:20:20.0000000+00:00</time></trkpt><trkpt lat="38.9870623" lon="-0.51201627"><ele>144.2</ele><time>2022-11-13T17:20:21.0000000+00:00</time></trkpt><trkpt lat="38.9870613" lon="-0.51202046"><ele>144.0</ele><time>2022-11-13T17:20:22.0000000+00:00</time></trkpt><trkpt lat="38.98705803" lon="-0.51203328"><ele>144.0</ele><time>2022-11-13T17:20:23.0000000+00:00</time></trkpt><trkpt lat="38.98704973" lon="-0.51204032"><ele>144.2</ele><time>2022-11-13T17:20:24.0000000+00:00</time></trkpt><trkpt lat="38.98704973" lon="-0.51206312"><ele>144.2</ele><time>2022-11-13T17:20:25.0000000+00:00</time></trkpt><trkpt lat="38.98704244" lon="-0.5120819"><ele>144.2</ele><time>2022-11-13T17:20:26.0000000+00:00</time></trkpt><trkpt lat="38.98703716" lon="-0.51210185"><ele>144.4</ele><time>2022-11-13T17:20:27.0000000+00:00</time></trkpt><trkpt lat="38.98703205" lon="-0.51212263"><ele>144.4</ele><time>2022-11-13T17:20:28.0000000+00:00</time></trkpt><trkpt lat="38.98703422" lon="-0.51214451"><ele>144.4</ele><time>2022-11-13T17:20:29.0000000+00:00</time></trkpt><trkpt lat="38.98704068" lon="-0.51216479"><ele>144.4</ele><time>2022-11-13T17:20:30.0000000+00:00</time></trkpt><trkpt lat="38.98704445" lon="-0.51218801"><ele>144.4</ele><time>2022-11-13T17:20:31.0000000+00:00</time></trkpt><trkpt lat="38.98704554" lon="-0.51220955"><ele>144.2</ele><time>2022-11-13T17:20:32.0000000+00:00</time></trkpt><trkpt lat="38.98705116" lon="-0.51223537"><ele>144.2</ele><time>2022-11-13T17:20:33.0000000+00:00</time></trkpt><trkpt lat="38.98705283" lon="-0.51226035"><ele>144.0</ele><time>2022-11-13T17:20:34.0000000+00:00</time></trkpt><trkpt lat="38.98704789" lon="-0.51227711"><ele>144.0</ele><time>2022-11-13T17:20:35.0000000+00:00</time></trkpt><trkpt lat="38.9870494" lon="-0.51229505"><ele>144.0</ele><time>2022-11-13T17:20:36.0000000+00:00</time></trkpt><trkpt lat="38.9870499" lon="-0.51231014"><ele>144.0</ele><time>2022-11-13T17:20:37.0000000+00:00</time></trkpt><trkpt lat="38.98704738" lon="-0.51232439"><ele>143.8</ele><time>2022-11-13T17:20:38.0000000+00:00</time></trkpt><trkpt lat="38.98704671" lon="-0.51234584"><ele>143.8</ele><time>2022-11-13T17:20:39.0000000+00:00</time></trkpt><trkpt lat="38.98705074" lon="-0.51236412"><ele>143.8</ele><time>2022-11-13T17:20:40.0000000+00:00</time></trkpt><trkpt lat="38.987053" lon="-0.51238163"><ele>143.6</ele><time>2022-11-13T17:20:41.0000000+00:00</time></trkpt><trkpt lat="38.98704998" lon="-0.51239127"><ele>143.4</ele><time>2022-11-13T17:20:42.0000000+00:00</time></trkpt><trkpt lat="38.98705023" lon="-0.51240259"><ele>143.4</ele><time>2022-11-13T17:20:43.0000000+00:00</time></trkpt><trkpt lat="38.98705191" lon="-0.51241893"><ele>143.2</ele><time>2022-11-13T17:20:44.0000000+00:00</time></trkpt><trkpt lat="38.98705124" lon="-0.51243989"><ele>143.2</ele><time>2022-11-13T17:20:45.0000000+00:00</time></trkpt><trkpt lat="38.98704914" lon="-0.51245799"><ele>143.2</ele><time>2022-11-13T17:20:46.0000000+00:00</time></trkpt><trkpt lat="38.98705459" lon="-0.51247057"><ele>143.2</ele><time>2022-11-13T17:20:47.0000000+00:00</time></trkpt><trkpt lat="38.98705401" lon="-0.51248322"><ele>143.2</ele><time>2022-11-13T17:20:48.0000000+00:00</time></trkpt><trkpt lat="38.98704965" lon="-0.51249865"><ele>143.2</ele><time>2022-11-13T17:20:49.0000000+00:00</time></trkpt><trkpt lat="38.98704546" lon="-0.51251767"><ele>143.2</ele><time>2022-11-13T17:20:50.0000000+00:00</time></trkpt><trkpt lat="38.98704395" lon="-0.51253921"><ele>143.0</ele><time>2022-11-13T17:20:51.0000000+00:00</time></trkpt><trkpt lat="38.98704671" lon="-0.51255589"><ele>143.0</ele><time>2022-11-13T17:20:52.0000000+00:00</time></trkpt><trkpt lat="38.98705359" lon="-0.51257039"><ele>143.4</ele><time>2022-11-13T17:20:53.0000000+00:00</time></trkpt><trkpt lat="38.98705744" lon="-0.51258775"><ele>143.4</ele><time>2022-11-13T17:20:54.0000000+00:00</time></trkpt><trkpt lat="38.98706432" lon="-0.51260728"><ele>143.6</ele><time>2022-11-13T17:20:55.0000000+00:00</time></trkpt><trkpt lat="38.98706993" lon="-0.5126258"><ele>143.6</ele><time>2022-11-13T17:20:56.0000000+00:00</time></trkpt><trkpt lat="38.98708284" lon="-0.51263971"><ele>143.6</ele><time>2022-11-13T17:20:57.0000000+00:00</time></trkpt><trkpt lat="38.98708401" lon="-0.51265623"><ele>143.6</ele><time>2022-11-13T17:20:58.0000000+00:00</time></trkpt><trkpt lat="38.98709348" lon="-0.51268028"><ele>143.6</ele><time>2022-11-13T17:20:59.0000000+00:00</time></trkpt><trkpt lat="38.98710396" lon="-0.51270425"><ele>143.6</ele><time>2022-11-13T17:21:00.0000000+00:00</time></trkpt><trkpt lat="38.98711109" lon="-0.51272219"><ele>143.6</ele><time>2022-11-13T17:21:01.0000000+00:00</time></trkpt><trkpt lat="38.98712617" lon="-0.51273803"><ele>143.4</ele><time>2022-11-13T17:21:02.0000000+00:00</time></trkpt><trkpt lat="38.98712441" lon="-0.51276234"><ele>143.4</ele><time>2022-11-13T17:21:03.0000000+00:00</time></trkpt><trkpt lat="38.98711368" lon="-0.51278371"><ele>143.2</ele><time>2022-11-13T17:21:04.0000000+00:00</time></trkpt><trkpt lat="38.98710773" lon="-0.51279159"><ele>143.0</ele><time>2022-11-13T17:21:05.0000000+00:00</time></trkpt><trkpt lat="38.98711528" lon="-0.51278631"><ele>143.0</ele><time>2022-11-13T17:21:06.0000000+00:00</time></trkpt><trkpt lat="38.98712701" lon="-0.51277885"><ele>143.0</ele><time>2022-11-13T17:21:07.0000000+00:00</time></trkpt><trkpt lat="38.98713472" lon="-0.51277994"><ele>142.8</ele><time>2022-11-13T17:21:08.0000000+00:00</time></trkpt><trkpt lat="38.98714411" lon="-0.51278388"><ele>142.8</ele><time>2022-11-13T17:21:09.0000000+00:00</time></trkpt><trkpt lat="38.98715685" lon="-0.51279042"><ele>142.6</ele><time>2022-11-13T17:21:10.0000000+00:00</time></trkpt><trkpt lat="38.98716783" lon="-0.51279738"><ele>142.6</ele><time>2022-11-13T17:21:11.0000000+00:00</time></trkpt><trkpt lat="38.98717177" lon="-0.51279478"><ele>142.6</ele><time>2022-11-13T17:21:12.0000000+00:00</time></trkpt><trkpt lat="38.9871846" lon="-0.51280987"><ele>142.6</ele><time>2022-11-13T17:21:13.0000000+00:00</time></trkpt><trkpt lat="38.98719465" lon="-0.51281137"><ele>142.4</ele><time>2022-11-13T17:21:14.0000000+00:00</time></trkpt><trkpt lat="38.98719876" lon="-0.51280852"><ele>142.4</ele><time>2022-11-13T17:21:15.0000000+00:00</time></trkpt><trkpt lat="38.98720882" lon="-0.51280123"><ele>142.4</ele><time>2022-11-13T17:21:16.0000000+00:00</time></trkpt><trkpt lat="38.98722081" lon="-0.51280593"><ele>142.2</ele><time>2022-11-13T17:21:17.0000000+00:00</time></trkpt><trkpt lat="38.98723355" lon="-0.51280391"><ele>142.2</ele><time>2022-11-13T17:21:18.0000000+00:00</time></trkpt><trkpt lat="38.98724578" lon="-0.51280375"><ele>142.2</ele><time>2022-11-13T17:21:19.0000000+00:00</time></trkpt><trkpt lat="38.98725836" lon="-0.51279671"><ele>142.0</ele><time>2022-11-13T17:21:20.0000000+00:00</time></trkpt><trkpt lat="38.98726733" lon="-0.51278271"><ele>142.0</ele><time>2022-11-13T17:21:21.0000000+00:00</time></trkpt><trkpt lat="38.98727487" lon="-0.51277642"><ele>142.0</ele><time>2022-11-13T17:21:22.0000000+00:00</time></trkpt><trkpt lat="38.98727923" lon="-0.51277299"><ele>141.8</ele><time>2022-11-13T17:21:23.0000000+00:00</time></trkpt><trkpt lat="38.98728811" lon="-0.51277424"><ele>141.8</ele><time>2022-11-13T17:21:24.0000000+00:00</time></trkpt><trkpt lat="38.98729817" lon="-0.512775"><ele>141.6</ele><time>2022-11-13T17:21:25.0000000+00:00</time></trkpt><trkpt lat="38.98730521" lon="-0.51277785"><ele>141.6</ele><time>2022-11-13T17:21:26.0000000+00:00</time></trkpt><trkpt lat="38.98731527" lon="-0.51277483"><ele>141.6</ele><time>2022-11-13T17:21:27.0000000+00:00</time></trkpt><trkpt lat="38.98732198" lon="-0.51276972"><ele>141.6</ele><time>2022-11-13T17:21:28.0000000+00:00</time></trkpt><trkpt lat="38.9873312" lon="-0.51276519"><ele>141.4</ele><time>2022-11-13T17:21:29.0000000+00:00</time></trkpt><trkpt lat="38.98734067" lon="-0.51276276"><ele>141.4</ele><time>2022-11-13T17:21:30.0000000+00:00</time></trkpt><trkpt lat="38.98734729" lon="-0.51275848"><ele>141.4</ele><time>2022-11-13T17:21:31.0000000+00:00</time></trkpt><trkpt lat="38.98735995" lon="-0.51276108"><ele>141.2</ele><time>2022-11-13T17:21:32.0000000+00:00</time></trkpt><trkpt lat="38.98737168" lon="-0.51276234"><ele>141.2</ele><time>2022-11-13T17:21:33.0000000+00:00</time></trkpt><trkpt lat="38.98738023" lon="-0.51276242"><ele>141.2</ele><time>2022-11-13T17:21:34.0000000+00:00</time></trkpt><trkpt lat="38.98739113" lon="-0.51276175"><ele>141.0</ele><time>2022-11-13T17:21:35.0000000+00:00</time></trkpt><trkpt lat="38.98739984" lon="-0.51276066"><ele>141.0</ele><time>2022-11-13T17:21:36.0000000+00:00</time></trkpt><trkpt lat="38.98741401" lon="-0.51276242"><ele>141.0</ele><time>2022-11-13T17:21:37.0000000+00:00</time></trkpt><trkpt lat="38.98742759" lon="-0.51276662"><ele>140.8</ele><time>2022-11-13T17:21:38.0000000+00:00</time></trkpt><trkpt lat="38.98743614" lon="-0.51276712"><ele>140.8</ele><time>2022-11-13T17:21:39.0000000+00:00</time></trkpt><trkpt lat="38.98744888" lon="-0.51277114"><ele>140.8</ele><time>2022-11-13T17:21:40.0000000+00:00</time></trkpt><trkpt lat="38.98745743" lon="-0.51277265"><ele>140.6</ele><time>2022-11-13T17:21:41.0000000+00:00</time></trkpt><trkpt lat="38.98747335" lon="-0.51277248"><ele>140.6</ele><time>2022-11-13T17:21:42.0000000+00:00</time></trkpt><trkpt lat="38.98748785" lon="-0.51277407"><ele>140.4</ele><time>2022-11-13T17:21:43.0000000+00:00</time></trkpt><trkpt lat="38.98749766" lon="-0.51277273"><ele>140.4</ele><time>2022-11-13T17:21:44.0000000+00:00</time></trkpt><trkpt lat="38.9875099" lon="-0.51277382"><ele>140.2</ele><time>2022-11-13T17:21:45.0000000+00:00</time></trkpt><trkpt lat="38.98752549" lon="-0.51277701"><ele>140.2</ele><time>2022-11-13T17:21:46.0000000+00:00</time></trkpt><trkpt lat="38.98753664" lon="-0.5127781"><ele>140.2</ele><time>2022-11-13T17:21:47.0000000+00:00</time></trkpt><trkpt lat="38.98754024" lon="-0.51278053"><ele>140.2</ele><time>2022-11-13T17:21:48.0000000+00:00</time></trkpt><trkpt lat="38.98754586" lon="-0.51277525"><ele>140.2</ele><time>2022-11-13T17:21:49.0000000+00:00</time></trkpt><trkpt lat="38.98754627" lon="-0.5127755"><ele>140.2</ele><time>2022-11-13T17:21:50.0000000+00:00</time></trkpt><trkpt lat="38.98755021" lon="-0.51277366"><ele>140.2</ele><time>2022-11-13T17:21:51.0000000+00:00</time></trkpt><trkpt lat="38.98755566" lon="-0.51277684"><ele>140.2</ele><time>2022-11-13T17:21:52.0000000+00:00</time></trkpt><trkpt lat="38.98756648" lon="-0.51277894"><ele>140.2</ele><time>2022-11-13T17:21:53.0000000+00:00</time></trkpt><trkpt lat="38.98757896" lon="-0.51278614"><ele>140.2</ele><time>2022-11-13T17:21:54.0000000+00:00</time></trkpt><trkpt lat="38.9875902" lon="-0.51278723"><ele>140.2</ele><time>2022-11-13T17:21:55.0000000+00:00</time></trkpt><trkpt lat="38.98760327" lon="-0.51279411"><ele>140.2</ele><time>2022-11-13T17:21:56.0000000+00:00</time></trkpt><trkpt lat="38.98761274" lon="-0.51278698"><ele>140.0</ele><time>2022-11-13T17:21:57.0000000+00:00</time></trkpt><trkpt lat="38.98762305" lon="-0.51278816"><ele>140.0</ele><time>2022-11-13T17:21:58.0000000+00:00</time></trkpt><trkpt lat="38.98763889" lon="-0.51278656"><ele>140.0</ele><time>2022-11-13T17:21:59.0000000+00:00</time></trkpt><trkpt lat="38.98764242" lon="-0.51278397"><ele>139.8</ele><time>2022-11-13T17:22:00.0000000+00:00</time></trkpt><trkpt lat="38.98765541" lon="-0.51278061"><ele>139.8</ele><time>2022-11-13T17:22:01.0000000+00:00</time></trkpt><trkpt lat="38.98767586" lon="-0.51279486"><ele>139.8</ele><time>2022-11-13T17:22:02.0000000+00:00</time></trkpt><trkpt lat="38.98768684" lon="-0.51279746"><ele>139.8</ele><time>2022-11-13T17:22:03.0000000+00:00</time></trkpt><trkpt lat="38.98769983" lon="-0.51279813"><ele>139.6</ele><time>2022-11-13T17:22:04.0000000+00:00</time></trkpt><trkpt lat="38.98771106" lon="-0.51280215"><ele>139.6</ele><time>2022-11-13T17:22:05.0000000+00:00</time></trkpt><trkpt lat="38.98772514" lon="-0.51279679"><ele>139.6</ele><time>2022-11-13T17:22:06.0000000+00:00</time></trkpt><trkpt lat="38.98774224" lon="-0.51279536"><ele>139.6</ele><time>2022-11-13T17:22:07.0000000+00:00</time></trkpt><trkpt lat="38.98775498" lon="-0.51279352"><ele>139.4</ele><time>2022-11-13T17:22:08.0000000+00:00</time></trkpt><trkpt lat="38.98777166" lon="-0.51279218"><ele>139.4</ele><time>2022-11-13T17:22:09.0000000+00:00</time></trkpt><trkpt lat="38.98778549" lon="-0.51279805"><ele>139.4</ele><time>2022-11-13T17:22:10.0000000+00:00</time></trkpt><trkpt lat="38.98779765" lon="-0.51279897"><ele>139.4</ele><time>2022-11-13T17:22:11.0000000+00:00</time></trkpt><trkpt lat="38.98781098" lon="-0.51280006"><ele>139.2</ele><time>2022-11-13T17:22:12.0000000+00:00</time></trkpt><trkpt lat="38.98782053" lon="-0.51280383"><ele>139.2</ele><time>2022-11-13T17:22:13.0000000+00:00</time></trkpt><trkpt lat="38.9878331" lon="-0.51280065"><ele>139.2</ele><time>2022-11-13T17:22:14.0000000+00:00</time></trkpt><trkpt lat="38.98784408" lon="-0.51279503"><ele>139.0</ele><time>2022-11-13T17:22:15.0000000+00:00</time></trkpt><trkpt lat="38.98786261" lon="-0.51280031"><ele>139.0</ele><time>2022-11-13T17:22:16.0000000+00:00</time></trkpt><trkpt lat="38.98787644" lon="-0.51279637"><ele>139.0</ele><time>2022-11-13T17:22:17.0000000+00:00</time></trkpt><trkpt lat="38.98788532" lon="-0.5127983"><ele>139.0</ele><time>2022-11-13T17:22:18.0000000+00:00</time></trkpt><trkpt lat="38.98790133" lon="-0.51279595"><ele>139.0</ele><time>2022-11-13T17:22:19.0000000+00:00</time></trkpt><trkpt lat="38.98791642" lon="-0.51279218"><ele>139.0</ele><time>2022-11-13T17:22:20.0000000+00:00</time></trkpt><trkpt lat="38.98793385" lon="-0.51278547"><ele>138.8</ele><time>2022-11-13T17:22:21.0000000+00:00</time></trkpt><trkpt lat="38.98794794" lon="-0.51278698"><ele>138.8</ele><time>2022-11-13T17:22:22.0000000+00:00</time></trkpt><trkpt lat="38.98796051" lon="-0.51278464"><ele>138.8</ele><time>2022-11-13T17:22:23.0000000+00:00</time></trkpt><trkpt lat="38.98797149" lon="-0.51277148"><ele>138.6</ele><time>2022-11-13T17:22:24.0000000+00:00</time></trkpt><trkpt lat="38.98797945" lon="-0.5127662"><ele>138.4</ele><time>2022-11-13T17:22:25.0000000+00:00</time></trkpt><trkpt lat="38.98799018" lon="-0.51276636"><ele>138.2</ele><time>2022-11-13T17:22:26.0000000+00:00</time></trkpt><trkpt lat="38.9880077" lon="-0.51277416"><ele>138.0</ele><time>2022-11-13T17:22:27.0000000+00:00</time></trkpt><trkpt lat="38.98801616" lon="-0.5127641"><ele>137.8</ele><time>2022-11-13T17:22:28.0000000+00:00</time></trkpt><trkpt lat="38.98802346" lon="-0.51275203"><ele>137.6</ele><time>2022-11-13T17:22:29.0000000+00:00</time></trkpt><trkpt lat="38.9880367" lon="-0.51274105"><ele>137.4</ele><time>2022-11-13T17:22:30.0000000+00:00</time></trkpt><trkpt lat="38.98804936" lon="-0.51273258"><ele>137.4</ele><time>2022-11-13T17:22:31.0000000+00:00</time></trkpt><trkpt lat="38.98805958" lon="-0.51272362"><ele>137.2</ele><time>2022-11-13T17:22:32.0000000+00:00</time></trkpt><trkpt lat="38.98806989" lon="-0.51272479"><ele>137.0</ele><time>2022-11-13T17:22:33.0000000+00:00</time></trkpt><trkpt lat="38.98807886" lon="-0.51272856"><ele>136.8</ele><time>2022-11-13T17:22:34.0000000+00:00</time></trkpt><trkpt lat="38.98808993" lon="-0.51274977"><ele>136.8</ele><time>2022-11-13T17:22:35.0000000+00:00</time></trkpt><trkpt lat="38.9881061" lon="-0.51275689"><ele>136.6</ele><time>2022-11-13T17:22:36.0000000+00:00</time></trkpt><trkpt lat="38.98811868" lon="-0.51275706"><ele>136.6</ele><time>2022-11-13T17:22:37.0000000+00:00</time></trkpt><trkpt lat="38.98813318" lon="-0.51275346"><ele>136.4</ele><time>2022-11-13T17:22:38.0000000+00:00</time></trkpt><trkpt lat="38.9881481" lon="-0.51274734"><ele>136.4</ele><time>2022-11-13T17:22:39.0000000+00:00</time></trkpt><trkpt lat="38.98815899" lon="-0.5127439"><ele>136.4</ele><time>2022-11-13T17:22:40.0000000+00:00</time></trkpt><trkpt lat="38.98816838" lon="-0.51273602"><ele>136.4</ele><time>2022-11-13T17:22:41.0000000+00:00</time></trkpt><trkpt lat="38.98817785" lon="-0.51272714"><ele>136.2</ele><time>2022-11-13T17:22:42.0000000+00:00</time></trkpt><trkpt lat="38.98818808" lon="-0.51271381"><ele>136.2</ele><time>2022-11-13T17:22:43.0000000+00:00</time></trkpt><trkpt lat="38.98819914" lon="-0.51270132"><ele>136.2</ele><time>2022-11-13T17:22:44.0000000+00:00</time></trkpt><trkpt lat="38.98821322" lon="-0.51269252"><ele>136.0</ele><time>2022-11-13T17:22:45.0000000+00:00</time></trkpt><trkpt lat="38.98822337" lon="-0.51269327"><ele>136.0</ele><time>2022-11-13T17:22:46.0000000+00:00</time></trkpt><trkpt lat="38.98823585" lon="-0.51271222"><ele>135.8</ele><time>2022-11-13T17:22:47.0000000+00:00</time></trkpt><trkpt lat="38.98824181" lon="-0.5127273"><ele>135.8</ele><time>2022-11-13T17:22:48.0000000+00:00</time></trkpt><trkpt lat="38.9882465" lon="-0.51274046"><ele>135.8</ele><time>2022-11-13T17:22:49.0000000+00:00</time></trkpt><trkpt lat="38.98826025" lon="-0.51276435"><ele>135.8</ele><time>2022-11-13T17:22:50.0000000+00:00</time></trkpt><trkpt lat="38.98827877" lon="-0.51279059"><ele>135.8</ele><time>2022-11-13T17:22:51.0000000+00:00</time></trkpt><trkpt lat="38.98829143" lon="-0.51280936"><ele>135.8</ele><time>2022-11-13T17:22:52.0000000+00:00</time></trkpt><trkpt lat="38.98829511" lon="-0.5128247"><ele>135.8</ele><time>2022-11-13T17:22:53.0000000+00:00</time></trkpt><trkpt lat="38.98829671" lon="-0.51284239"><ele>135.8</ele><time>2022-11-13T17:22:54.0000000+00:00</time></trkpt><trkpt lat="38.98829746" lon="-0.51285898"><ele>135.8</ele><time>2022-11-13T17:22:55.0000000+00:00</time></trkpt><trkpt lat="38.98829243" lon="-0.51287952"><ele>136.0</ele><time>2022-11-13T17:22:56.0000000+00:00</time></trkpt><trkpt lat="38.98829126" lon="-0.5129029"><ele>136.0</ele><time>2022-11-13T17:22:57.0000000+00:00</time></trkpt><trkpt lat="38.98829302" lon="-0.51292973"><ele>136.0</ele><time>2022-11-13T17:22:58.0000000+00:00</time></trkpt><trkpt lat="38.98829101" lon="-0.51295353"><ele>136.0</ele><time>2022-11-13T17:22:59.0000000+00:00</time></trkpt><trkpt lat="38.98829671" lon="-0.5129739"><ele>136.0</ele><time>2022-11-13T17:23:00.0000000+00:00</time></trkpt><trkpt lat="38.98829922" lon="-0.51299796"><ele>136.0</ele><time>2022-11-13T17:23:01.0000000+00:00</time></trkpt><trkpt lat="38.98829696" lon="-0.51301346"><ele>136.0</ele><time>2022-11-13T17:23:02.0000000+00:00</time></trkpt><trkpt lat="38.98829746" lon="-0.51303425"><ele>136.0</ele><time>2022-11-13T17:23:03.0000000+00:00</time></trkpt><trkpt lat="38.98830442" lon="-0.51305755"><ele>136.2</ele><time>2022-11-13T17:23:04.0000000+00:00</time></trkpt><trkpt lat="38.98830928" lon="-0.51307725"><ele>136.2</ele><time>2022-11-13T17:23:05.0000000+00:00</time></trkpt><trkpt lat="38.98831381" lon="-0.51309602"><ele>136.2</ele><time>2022-11-13T17:23:06.0000000+00:00</time></trkpt><trkpt lat="38.98831221" lon="-0.51311765"><ele>136.2</ele><time>2022-11-13T17:23:07.0000000+00:00</time></trkpt><trkpt lat="38.98830408" lon="-0.5131386"><ele>136.2</ele><time>2022-11-13T17:23:08.0000000+00:00</time></trkpt><trkpt lat="38.9882957" lon="-0.51315218"><ele>136.4</ele><time>2022-11-13T17:23:09.0000000+00:00</time></trkpt><trkpt lat="38.98829344" lon="-0.51316903"><ele>136.4</ele><time>2022-11-13T17:23:10.0000000+00:00</time></trkpt><trkpt lat="38.98828698" lon="-0.51317825"><ele>136.4</ele><time>2022-11-13T17:23:11.0000000+00:00</time></trkpt><trkpt lat="38.98828086" lon="-0.51319133"><ele>136.4</ele><time>2022-11-13T17:23:12.0000000+00:00</time></trkpt><trkpt lat="38.98828388" lon="-0.51320834"><ele>136.4</ele><time>2022-11-13T17:23:13.0000000+00:00</time></trkpt><trkpt lat="38.98828321" lon="-0.51322661"><ele>136.4</ele><time>2022-11-13T17:23:14.0000000+00:00</time></trkpt><trkpt lat="38.98828715" lon="-0.51324204"><ele>136.4</ele><time>2022-11-13T17:23:15.0000000+00:00</time></trkpt><trkpt lat="38.98829034" lon="-0.51325101"><ele>136.4</ele><time>2022-11-13T17:23:16.0000000+00:00</time></trkpt><trkpt lat="38.98828983" lon="-0.51326425"><ele>136.4</ele><time>2022-11-13T17:23:17.0000000+00:00</time></trkpt><trkpt lat="38.98829076" lon="-0.51328386"><ele>136.4</ele><time>2022-11-13T17:23:18.0000000+00:00</time></trkpt><trkpt lat="38.98828967" lon="-0.51330566"><ele>136.4</ele><time>2022-11-13T17:23:19.0000000+00:00</time></trkpt><trkpt lat="38.98828682" lon="-0.51331965"><ele>136.4</ele><time>2022-11-13T17:23:20.0000000+00:00</time></trkpt><trkpt lat="38.98828698" lon="-0.51333658"><ele>136.2</ele><time>2022-11-13T17:23:21.0000000+00:00</time></trkpt><trkpt lat="38.9882921" lon="-0.51334832"><ele>136.2</ele><time>2022-11-13T17:23:22.0000000+00:00</time></trkpt><trkpt lat="38.98830266" lon="-0.51335234"><ele>136.2</ele><time>2022-11-13T17:23:23.0000000+00:00</time></trkpt><trkpt lat="38.98831305" lon="-0.51335268"><ele>136.2</ele><time>2022-11-13T17:23:24.0000000+00:00</time></trkpt><trkpt lat="38.98832068" lon="-0.51336198"><ele>136.2</ele><time>2022-11-13T17:23:25.0000000+00:00</time></trkpt><trkpt lat="38.98833074" lon="-0.51337288"><ele>136.0</ele><time>2022-11-13T17:23:26.0000000+00:00</time></trkpt><trkpt lat="38.98832956" lon="-0.51338051"><ele>136.0</ele><time>2022-11-13T17:23:27.0000000+00:00</time></trkpt><trkpt lat="38.98832437" lon="-0.51339191"><ele>136.0</ele><time>2022-11-13T17:23:28.0000000+00:00</time></trkpt><trkpt lat="38.9883216" lon="-0.51341412"><ele>136.0</ele><time>2022-11-13T17:23:29.0000000+00:00</time></trkpt><trkpt lat="38.98832437" lon="-0.51343105"><ele>136.0</ele><time>2022-11-13T17:23:30.0000000+00:00</time></trkpt><trkpt lat="38.98832445" lon="-0.51343767"><ele>136.0</ele><time>2022-11-13T17:23:31.0000000+00:00</time></trkpt><trkpt lat="38.98832143" lon="-0.51344077"><ele>135.8</ele><time>2022-11-13T17:23:32.0000000+00:00</time></trkpt><trkpt lat="38.98831775" lon="-0.513437"><ele>135.8</ele><time>2022-11-13T17:23:33.0000000+00:00</time></trkpt><trkpt lat="38.98830886" lon="-0.51344228"><ele>135.8</ele><time>2022-11-13T17:23:34.0000000+00:00</time></trkpt><trkpt lat="38.98830811" lon="-0.51344186"><ele>135.8</ele><time>2022-11-13T17:23:35.0000000+00:00</time></trkpt><trkpt lat="38.98830727" lon="-0.51344404"><ele>135.8</ele><time>2022-11-13T17:23:36.0000000+00:00</time></trkpt><trkpt lat="38.98831473" lon="-0.5134536"><ele>135.8</ele><time>2022-11-13T17:23:37.0000000+00:00</time></trkpt><trkpt lat="38.98831599" lon="-0.51346583"><ele>135.8</ele><time>2022-11-13T17:23:38.0000000+00:00</time></trkpt><trkpt lat="38.98832018" lon="-0.51349232"><ele>135.6</ele><time>2022-11-13T17:23:39.0000000+00:00</time></trkpt><trkpt lat="38.98832076" lon="-0.51351244"><ele>135.6</ele><time>2022-11-13T17:23:40.0000000+00:00</time></trkpt><trkpt lat="38.98832462" lon="-0.51353054"><ele>135.8</ele><time>2022-11-13T17:23:41.0000000+00:00</time></trkpt><trkpt lat="38.98832521" lon="-0.51354596"><ele>135.8</ele><time>2022-11-13T17:23:42.0000000+00:00</time></trkpt><trkpt lat="38.98832923" lon="-0.51356784"><ele>135.8</ele><time>2022-11-13T17:23:43.0000000+00:00</time></trkpt><trkpt lat="38.98833451" lon="-0.51357664"><ele>135.8</ele><time>2022-11-13T17:23:44.0000000+00:00</time></trkpt><trkpt lat="38.98834096" lon="-0.51358922"><ele>135.8</ele><time>2022-11-13T17:23:45.0000000+00:00</time></trkpt><trkpt lat="38.98835085" lon="-0.51360145"><ele>135.8</ele><time>2022-11-13T17:23:46.0000000+00:00</time></trkpt><trkpt lat="38.98835731" lon="-0.51361553"><ele>135.8</ele><time>2022-11-13T17:23:47.0000000+00:00</time></trkpt><trkpt lat="38.98836158" lon="-0.51362635"><ele>135.8</ele><time>2022-11-13T17:23:48.0000000+00:00</time></trkpt><trkpt lat="38.98836125" lon="-0.51363825"><ele>135.8</ele><time>2022-11-13T17:23:49.0000000+00:00</time></trkpt><trkpt lat="38.98835463" lon="-0.5136587"><ele>135.8</ele><time>2022-11-13T17:23:50.0000000+00:00</time></trkpt><trkpt lat="38.98835496" lon="-0.51367102"><ele>135.8</ele><time>2022-11-13T17:23:51.0000000+00:00</time></trkpt><trkpt lat="38.98835739" lon="-0.51368301"><ele>135.8</ele><time>2022-11-13T17:23:52.0000000+00:00</time></trkpt><trkpt lat="38.98836058" lon="-0.51369231"><ele>136.0</ele><time>2022-11-13T17:23:53.0000000+00:00</time></trkpt><trkpt lat="38.98836175" lon="-0.51370874"><ele>136.0</ele><time>2022-11-13T17:23:54.0000000+00:00</time></trkpt><trkpt lat="38.98836728" lon="-0.51372299"><ele>136.0</ele><time>2022-11-13T17:23:55.0000000+00:00</time></trkpt><trkpt lat="38.98837851" lon="-0.51373213"><ele>136.0</ele><time>2022-11-13T17:23:56.0000000+00:00</time></trkpt><trkpt lat="38.98836996" lon="-0.51375115"><ele>136.0</ele><time>2022-11-13T17:23:57.0000000+00:00</time></trkpt><trkpt lat="38.98836929" lon="-0.5137649"><ele>136.0</ele><time>2022-11-13T17:23:58.0000000+00:00</time></trkpt><trkpt lat="38.98837776" lon="-0.513782"><ele>136.0</ele><time>2022-11-13T17:23:59.0000000+00:00</time></trkpt><trkpt lat="38.98838924" lon="-0.51379608"><ele>135.8</ele><time>2022-11-13T17:24:00.0000000+00:00</time></trkpt><trkpt lat="38.9883936" lon="-0.51381008"><ele>135.8</ele><time>2022-11-13T17:24:01.0000000+00:00</time></trkpt><trkpt lat="38.9884107" lon="-0.51381301"><ele>135.8</ele><time>2022-11-13T17:24:02.0000000+00:00</time></trkpt><trkpt lat="38.98842545" lon="-0.51381829"><ele>135.6</ele><time>2022-11-13T17:24:03.0000000+00:00</time></trkpt><trkpt lat="38.9884309" lon="-0.51382751"><ele>135.6</ele><time>2022-11-13T17:24:04.0000000+00:00</time></trkpt><trkpt lat="38.98843685" lon="-0.51383975"><ele>135.6</ele><time>2022-11-13T17:24:05.0000000+00:00</time></trkpt><trkpt lat="38.98844708" lon="-0.5138514"><ele>135.6</ele><time>2022-11-13T17:24:06.0000000+00:00</time></trkpt><trkpt lat="38.9884568" lon="-0.51386054"><ele>135.6</ele><time>2022-11-13T17:24:07.0000000+00:00</time></trkpt><trkpt lat="38.98845621" lon="-0.51387864"><ele>135.6</ele><time>2022-11-13T17:24:08.0000000+00:00</time></trkpt><trkpt lat="38.98846518" lon="-0.51389197"><ele>135.6</ele><time>2022-11-13T17:24:09.0000000+00:00</time></trkpt><trkpt lat="38.98847608" lon="-0.5139063"><ele>135.6</ele><time>2022-11-13T17:24:10.0000000+00:00</time></trkpt><trkpt lat="38.9884832" lon="-0.51392089"><ele>135.6</ele><time>2022-11-13T17:24:11.0000000+00:00</time></trkpt><trkpt lat="38.98849201" lon="-0.51393069"><ele>135.6</ele><time>2022-11-13T17:24:12.0000000+00:00</time></trkpt><trkpt lat="38.98849972" lon="-0.51393757"><ele>135.6</ele><time>2022-11-13T17:24:13.0000000+00:00</time></trkpt><trkpt lat="38.98850734" lon="-0.51394955"><ele>135.6</ele><time>2022-11-13T17:24:14.0000000+00:00</time></trkpt><trkpt lat="38.98851179" lon="-0.51395819"><ele>135.6</ele><time>2022-11-13T17:24:15.0000000+00:00</time></trkpt><trkpt lat="38.98852168" lon="-0.51397227"><ele>135.6</ele><time>2022-11-13T17:24:16.0000000+00:00</time></trkpt><trkpt lat="38.9885205" lon="-0.51397897"><ele>135.6</ele><time>2022-11-13T17:24:17.0000000+00:00</time></trkpt><trkpt lat="38.98852302" lon="-0.51399096"><ele>135.6</ele><time>2022-11-13T17:24:18.0000000+00:00</time></trkpt><trkpt lat="38.98854188" lon="-0.51400177"><ele>135.6</ele><time>2022-11-13T17:24:19.0000000+00:00</time></trkpt><trkpt lat="38.98856015" lon="-0.51400915"><ele>135.4</ele><time>2022-11-13T17:24:20.0000000+00:00</time></trkpt><trkpt lat="38.98857356" lon="-0.51401594"><ele>135.4</ele><time>2022-11-13T17:24:21.0000000+00:00</time></trkpt><trkpt lat="38.98857993" lon="-0.51402893"><ele>135.4</ele><time>2022-11-13T17:24:22.0000000+00:00</time></trkpt><trkpt lat="38.98858429" lon="-0.51404821"><ele>135.4</ele><time>2022-11-13T17:24:23.0000000+00:00</time></trkpt><trkpt lat="38.98858789" lon="-0.51405952"><ele>135.4</ele><time>2022-11-13T17:24:24.0000000+00:00</time></trkpt><trkpt lat="38.98858806" lon="-0.51406531"><ele>135.4</ele><time>2022-11-13T17:24:25.0000000+00:00</time></trkpt><trkpt lat="38.98857901" lon="-0.51406874"><ele>135.2</ele><time>2022-11-13T17:24:26.0000000+00:00</time></trkpt><trkpt lat="38.98857088" lon="-0.51408375"><ele>135.2</ele><time>2022-11-13T17:24:27.0000000+00:00</time></trkpt><trkpt lat="38.98856359" lon="-0.514099"><ele>135.0</ele><time>2022-11-13T17:24:28.0000000+00:00</time></trkpt><trkpt lat="38.98855814" lon="-0.51411384"><ele>135.0</ele><time>2022-11-13T17:24:29.0000000+00:00</time></trkpt><trkpt lat="38.98854666" lon="-0.51412063"><ele>135.0</ele><time>2022-11-13T17:24:30.0000000+00:00</time></trkpt><trkpt lat="38.98853383" lon="-0.51412515"><ele>135.0</ele><time>2022-11-13T17:24:31.0000000+00:00</time></trkpt><trkpt lat="38.98851933" lon="-0.51412859"><ele>135.2</ele><time>2022-11-13T17:24:32.0000000+00:00</time></trkpt><trkpt lat="38.98851455" lon="-0.51414242"><ele>135.2</ele><time>2022-11-13T17:24:33.0000000+00:00</time></trkpt><trkpt lat="38.98851153" lon="-0.51416053"><ele>135.2</ele><time>2022-11-13T17:24:34.0000000+00:00</time></trkpt><trkpt lat="38.98851573" lon="-0.51418928"><ele>135.2</ele><time>2022-11-13T17:24:35.0000000+00:00</time></trkpt><trkpt lat="38.98851371" lon="-0.51421409"><ele>135.4</ele><time>2022-11-13T17:24:36.0000000+00:00</time></trkpt><trkpt lat="38.9885117" lon="-0.5142259"><ele>135.2</ele><time>2022-11-13T17:24:37.0000000+00:00</time></trkpt><trkpt lat="38.98850081" lon="-0.51424015"><ele>135.2</ele><time>2022-11-13T17:24:38.0000000+00:00</time></trkpt><trkpt lat="38.98849762" lon="-0.51425784"><ele>135.2</ele><time>2022-11-13T17:24:39.0000000+00:00</time></trkpt><trkpt lat="38.98849293" lon="-0.51426983"><ele>135.2</ele><time>2022-11-13T17:24:40.0000000+00:00</time></trkpt><trkpt lat="38.98848983" lon="-0.51428818"><ele>135.0</ele><time>2022-11-13T17:24:41.0000000+00:00</time></trkpt><trkpt lat="38.98848748" lon="-0.51430319"><ele>135.0</ele><time>2022-11-13T17:24:42.0000000+00:00</time></trkpt><trkpt lat="38.9884594" lon="-0.51432087"><ele>135.0</ele><time>2022-11-13T17:24:43.0000000+00:00</time></trkpt><trkpt lat="38.98844398" lon="-0.51433361"><ele>135.0</ele><time>2022-11-13T17:24:44.0000000+00:00</time></trkpt><trkpt lat="38.98842914" lon="-0.51435113"><ele>135.0</ele><time>2022-11-13T17:24:45.0000000+00:00</time></trkpt><trkpt lat="38.98842185" lon="-0.51436496"><ele>135.0</ele><time>2022-11-13T17:24:46.0000000+00:00</time></trkpt><trkpt lat="38.98841003" lon="-0.51437879"><ele>135.0</ele><time>2022-11-13T17:24:47.0000000+00:00</time></trkpt><trkpt lat="38.98840676" lon="-0.51439497"><ele>135.0</ele><time>2022-11-13T17:24:48.0000000+00:00</time></trkpt><trkpt lat="38.98840391" lon="-0.51441215"><ele>134.8</ele><time>2022-11-13T17:24:49.0000000+00:00</time></trkpt><trkpt lat="38.98839989" lon="-0.51443403"><ele>134.8</ele><time>2022-11-13T17:24:50.0000000+00:00</time></trkpt><trkpt lat="38.98840358" lon="-0.51445498"><ele>134.8</ele><time>2022-11-13T17:24:51.0000000+00:00</time></trkpt><trkpt lat="38.98840525" lon="-0.51447183"><ele>134.6</ele><time>2022-11-13T17:24:52.0000000+00:00</time></trkpt><trkpt lat="38.98840986" lon="-0.51450167"><ele>134.6</ele><time>2022-11-13T17:24:53.0000000+00:00</time></trkpt><trkpt lat="38.98836988" lon="-0.51450787"><ele>134.4</ele><time>2022-11-13T17:24:54.0000000+00:00</time></trkpt><trkpt lat="38.98835169" lon="-0.5145098"><ele>134.4</ele><time>2022-11-13T17:24:55.0000000+00:00</time></trkpt><trkpt lat="38.98835295" lon="-0.51452296"><ele>134.6</ele><time>2022-11-13T17:24:56.0000000+00:00</time></trkpt><trkpt lat="38.98834524" lon="-0.51454249"><ele>134.6</ele><time>2022-11-13T17:24:57.0000000+00:00</time></trkpt><trkpt lat="38.98834222" lon="-0.51456017"><ele>134.6</ele><time>2022-11-13T17:24:58.0000000+00:00</time></trkpt><trkpt lat="38.98834834" lon="-0.51457669"><ele>134.6</ele><time>2022-11-13T17:24:59.0000000+00:00</time></trkpt><trkpt lat="38.98836711" lon="-0.51458155"><ele>134.6</ele><time>2022-11-13T17:25:00.0000000+00:00</time></trkpt><trkpt lat="38.98840249" lon="-0.51458239"><ele>134.4</ele><time>2022-11-13T17:25:01.0000000+00:00</time></trkpt><trkpt lat="38.98842218" lon="-0.51458867"><ele>134.4</ele><time>2022-11-13T17:25:02.0000000+00:00</time></trkpt><trkpt lat="38.98842721" lon="-0.51459622"><ele>134.4</ele><time>2022-11-13T17:25:03.0000000+00:00</time></trkpt><trkpt lat="38.9884371" lon="-0.51461323"><ele>134.4</ele><time>2022-11-13T17:25:04.0000000+00:00</time></trkpt><trkpt lat="38.98844951" lon="-0.51464223"><ele>134.6</ele><time>2022-11-13T17:25:05.0000000+00:00</time></trkpt><trkpt lat="38.98848295" lon="-0.51466587"><ele>134.6</ele><time>2022-11-13T17:25:06.0000000+00:00</time></trkpt><trkpt lat="38.98849787" lon="-0.51468138"><ele>134.6</ele><time>2022-11-13T17:25:07.0000000+00:00</time></trkpt><trkpt lat="38.9885091" lon="-0.51468599"><ele>134.6</ele><time>2022-11-13T17:25:08.0000000+00:00</time></trkpt><trkpt lat="38.9885257" lon="-0.51469127"><ele>134.6</ele><time>2022-11-13T17:25:09.0000000+00:00</time></trkpt><trkpt lat="38.98853987" lon="-0.51470124"><ele>134.6</ele><time>2022-11-13T17:25:10.0000000+00:00</time></trkpt><trkpt lat="38.98855076" lon="-0.51471222"><ele>134.4</ele><time>2022-11-13T17:25:11.0000000+00:00</time></trkpt><trkpt lat="38.98855202" lon="-0.51471834"><ele>134.4</ele><time>2022-11-13T17:25:12.0000000+00:00</time></trkpt><trkpt lat="38.98855956" lon="-0.51473108"><ele>134.4</ele><time>2022-11-13T17:25:13.0000000+00:00</time></trkpt><trkpt lat="38.98856652" lon="-0.51474785"><ele>134.4</ele><time>2022-11-13T17:25:14.0000000+00:00</time></trkpt><trkpt lat="38.98856602" lon="-0.51475899"><ele>134.4</ele><time>2022-11-13T17:25:15.0000000+00:00</time></trkpt><trkpt lat="38.98857398" lon="-0.51477467"><ele>134.4</ele><time>2022-11-13T17:25:16.0000000+00:00</time></trkpt><trkpt lat="38.9885594" lon="-0.51479386"><ele>134.4</ele><time>2022-11-13T17:25:17.0000000+00:00</time></trkpt><trkpt lat="38.98855152" lon="-0.51480727"><ele>134.4</ele><time>2022-11-13T17:25:18.0000000+00:00</time></trkpt><trkpt lat="38.98854925" lon="-0.51482203"><ele>134.2</ele><time>2022-11-13T17:25:19.0000000+00:00</time></trkpt><trkpt lat="38.98855428" lon="-0.5148351"><ele>134.2</ele><time>2022-11-13T17:25:20.0000000+00:00</time></trkpt><trkpt lat="38.98856124" lon="-0.51485111"><ele>134.2</ele><time>2022-11-13T17:25:21.0000000+00:00</time></trkpt><trkpt lat="38.98856409" lon="-0.51486058"><ele>134.2</ele><time>2022-11-13T17:25:22.0000000+00:00</time></trkpt><trkpt lat="38.98856468" lon="-0.51486033"><ele>134.2</ele><time>2022-11-13T17:25:23.0000000+00:00</time></trkpt><trkpt lat="38.98856736" lon="-0.51486444"><ele>134.2</ele><time>2022-11-13T17:25:24.0000000+00:00</time></trkpt><trkpt lat="38.9885801" lon="-0.51486435"><ele>134.2</ele><time>2022-11-13T17:25:25.0000000+00:00</time></trkpt><trkpt lat="38.98858513" lon="-0.51487173"><ele>134.2</ele><time>2022-11-13T17:25:26.0000000+00:00</time></trkpt><trkpt lat="38.98859208" lon="-0.5148843"><ele>134.2</ele><time>2022-11-13T17:25:27.0000000+00:00</time></trkpt><trkpt lat="38.9885967" lon="-0.51489595"><ele>134.2</ele><time>2022-11-13T17:25:28.0000000+00:00</time></trkpt><trkpt lat="38.98860516" lon="-0.5149035"><ele>134.2</ele><time>2022-11-13T17:25:29.0000000+00:00</time></trkpt><trkpt lat="38.98861136" lon="-0.51491465"><ele>134.2</ele><time>2022-11-13T17:25:30.0000000+00:00</time></trkpt><trkpt lat="38.98861706" lon="-0.51492596"><ele>134.4</ele><time>2022-11-13T17:25:31.0000000+00:00</time></trkpt><trkpt lat="38.98860541" lon="-0.51494231"><ele>134.2</ele><time>2022-11-13T17:25:32.0000000+00:00</time></trkpt><trkpt lat="38.98860499" lon="-0.51495387"><ele>134.2</ele><time>2022-11-13T17:25:33.0000000+00:00</time></trkpt><trkpt lat="38.98861312" lon="-0.51496862"><ele>134.2</ele><time>2022-11-13T17:25:34.0000000+00:00</time></trkpt><trkpt lat="38.98862729" lon="-0.51498354"><ele>134.2</ele><time>2022-11-13T17:25:35.0000000+00:00</time></trkpt><trkpt lat="38.98861413" lon="-0.51499846"><ele>134.2</ele><time>2022-11-13T17:25:36.0000000+00:00</time></trkpt><trkpt lat="38.98860172" lon="-0.51500928"><ele>134.2</ele><time>2022-11-13T17:25:37.0000000+00:00</time></trkpt><trkpt lat="38.98860759" lon="-0.51502068"><ele>134.2</ele><time>2022-11-13T17:25:38.0000000+00:00</time></trkpt><trkpt lat="38.98860935" lon="-0.51504381"><ele>134.2</ele><time>2022-11-13T17:25:39.0000000+00:00</time></trkpt><trkpt lat="38.98860893" lon="-0.51505814"><ele>134.2</ele><time>2022-11-13T17:25:40.0000000+00:00</time></trkpt><trkpt lat="38.98862251" lon="-0.51507558"><ele>134.0</ele><time>2022-11-13T17:25:41.0000000+00:00</time></trkpt><trkpt lat="38.98864271" lon="-0.51507994"><ele>134.0</ele><time>2022-11-13T17:25:42.0000000+00:00</time></trkpt><trkpt lat="38.98865537" lon="-0.5150993"><ele>134.0</ele><time>2022-11-13T17:25:43.0000000+00:00</time></trkpt><trkpt lat="38.98860977" lon="-0.51514163"><ele>134.0</ele><time>2022-11-13T17:25:44.0000000+00:00</time></trkpt><trkpt lat="38.98860659" lon="-0.51516761"><ele>134.0</ele><time>2022-11-13T17:25:45.0000000+00:00</time></trkpt><trkpt lat="38.9886127" lon="-0.51519519"><ele>134.0</ele><time>2022-11-13T17:25:46.0000000+00:00</time></trkpt><trkpt lat="38.98862469" lon="-0.51521111"><ele>133.8</ele><time>2022-11-13T17:25:47.0000000+00:00</time></trkpt><trkpt lat="38.98864288" lon="-0.51522017"><ele>133.8</ele><time>2022-11-13T17:25:48.0000000+00:00</time></trkpt><trkpt lat="38.98865336" lon="-0.51523316"><ele>133.8</ele><time>2022-11-13T17:25:49.0000000+00:00</time></trkpt><trkpt lat="38.98864925" lon="-0.51522226"><ele>133.8</ele><time>2022-11-13T17:25:50.0000000+00:00</time></trkpt><trkpt lat="38.9886516" lon="-0.51522058"><ele>133.8</ele><time>2022-11-13T17:25:51.0000000+00:00</time></trkpt><trkpt lat="38.98865386" lon="-0.51522578"><ele>133.6</ele><time>2022-11-13T17:25:52.0000000+00:00</time></trkpt><trkpt lat="38.98865704" lon="-0.51523274"><ele>133.6</ele><time>2022-11-13T17:25:53.0000000+00:00</time></trkpt><trkpt lat="38.98865872" lon="-0.51523986"><ele>133.6</ele><time>2022-11-13T17:25:54.0000000+00:00</time></trkpt><trkpt lat="38.98866107" lon="-0.51525034"><ele>133.6</ele><time>2022-11-13T17:25:55.0000000+00:00</time></trkpt><trkpt lat="38.98867607" lon="-0.51526534"><ele>133.6</ele><time>2022-11-13T17:25:56.0000000+00:00</time></trkpt><trkpt lat="38.98868462" lon="-0.5152801"><ele>133.6</ele><time>2022-11-13T17:25:57.0000000+00:00</time></trkpt><trkpt lat="38.98869309" lon="-0.51529669"><ele>133.6</ele><time>2022-11-13T17:25:58.0000000+00:00</time></trkpt><trkpt lat="38.98870139" lon="-0.51531513"><ele>133.6</ele><time>2022-11-13T17:25:59.0000000+00:00</time></trkpt><trkpt lat="38.98870935" lon="-0.51533315"><ele>133.6</ele><time>2022-11-13T17:26:00.0000000+00:00</time></trkpt><trkpt lat="38.9887153" lon="-0.51534598"><ele>133.6</ele><time>2022-11-13T17:26:01.0000000+00:00</time></trkpt><trkpt lat="38.98872578" lon="-0.5153645"><ele>133.6</ele><time>2022-11-13T17:26:02.0000000+00:00</time></trkpt><trkpt lat="38.98873651" lon="-0.51537984"><ele>133.6</ele><time>2022-11-13T17:26:03.0000000+00:00</time></trkpt><trkpt lat="38.9887557" lon="-0.51541077"><ele>133.6</ele><time>2022-11-13T17:26:05.0000000+00:00</time></trkpt><trkpt lat="38.98876266" lon="-0.51541789"><ele>133.6</ele><time>2022-11-13T17:26:06.0000000+00:00</time></trkpt><trkpt lat="38.98876852" lon="-0.51542678"><ele>133.6</ele><time>2022-11-13T17:26:07.0000000+00:00</time></trkpt><trkpt lat="38.98878428" lon="-0.51542502"><ele>133.6</ele><time>2022-11-13T17:26:08.0000000+00:00</time></trkpt><trkpt lat="38.98878571" lon="-0.5154246"><ele>133.6</ele><time>2022-11-13T17:26:09.0000000+00:00</time></trkpt><trkpt lat="38.9887847" lon="-0.5154251"><ele>133.6</ele><time>2022-11-13T17:26:10.0000000+00:00</time></trkpt><trkpt lat="38.98877992" lon="-0.51542929"><ele>133.6</ele><time>2022-11-13T17:26:11.0000000+00:00</time></trkpt><trkpt lat="38.98875168" lon="-0.51541689"><ele>133.6</ele><time>2022-11-13T17:26:12.0000000+00:00</time></trkpt><trkpt lat="38.98873952" lon="-0.5154106"><ele>133.6</ele><time>2022-11-13T17:26:13.0000000+00:00</time></trkpt><trkpt lat="38.98873315" lon="-0.51540373"><ele>133.6</ele><time>2022-11-13T17:26:14.0000000+00:00</time></trkpt><trkpt lat="38.98872159" lon="-0.51539945"><ele>133.6</ele><time>2022-11-13T17:26:15.0000000+00:00</time></trkpt><trkpt lat="38.98871563" lon="-0.51539401"><ele>133.6</ele><time>2022-11-13T17:26:16.0000000+00:00</time></trkpt><trkpt lat="38.98871915" lon="-0.51539627"><ele>133.6</ele><time>2022-11-13T17:26:17.0000000+00:00</time></trkpt><trkpt lat="38.98871815" lon="-0.51539057"><ele>133.6</ele><time>2022-11-13T17:26:18.0000000+00:00</time></trkpt><trkpt lat="38.98874237" lon="-0.51539585"><ele>133.6</ele><time>2022-11-13T17:26:19.0000000+00:00</time></trkpt><trkpt lat="38.98878152" lon="-0.51539602"><ele>133.6</ele><time>2022-11-13T17:26:20.0000000+00:00</time></trkpt><trkpt lat="38.98882217" lon="-0.51541261"><ele>133.6</ele><time>2022-11-13T17:26:21.0000000+00:00</time></trkpt><trkpt lat="38.98888394" lon="-0.51540457"><ele>133.6</ele><time>2022-11-13T17:26:22.0000000+00:00</time></trkpt><trkpt lat="38.98892057" lon="-0.51539325"><ele>133.6</ele><time>2022-11-13T17:26:23.0000000+00:00</time></trkpt><trkpt lat="38.98895569" lon="-0.5153966"><ele>133.6</ele><time>2022-11-13T17:26:24.0000000+00:00</time></trkpt><trkpt lat="38.98896902" lon="-0.5154101"><ele>133.6</ele><time>2022-11-13T17:26:25.0000000+00:00</time></trkpt><trkpt lat="38.98897053" lon="-0.51541924"><ele>133.6</ele><time>2022-11-13T17:26:26.0000000+00:00</time></trkpt><trkpt lat="38.98898436" lon="-0.51543592"><ele>133.6</ele><time>2022-11-13T17:26:27.0000000+00:00</time></trkpt><trkpt lat="38.98899039" lon="-0.51545293"><ele>133.6</ele><time>2022-11-13T17:26:28.0000000+00:00</time></trkpt><trkpt lat="38.98898059" lon="-0.51547305"><ele>133.6</ele><time>2022-11-13T17:26:29.0000000+00:00</time></trkpt><trkpt lat="38.98894614" lon="-0.51551412"><ele>133.4</ele><time>2022-11-13T17:26:30.0000000+00:00</time></trkpt><trkpt lat="38.98893063" lon="-0.51553633"><ele>133.4</ele><time>2022-11-13T17:26:31.0000000+00:00</time></trkpt><trkpt lat="38.98893532" lon="-0.5155396"><ele>133.4</ele><time>2022-11-13T17:26:32.0000000+00:00</time></trkpt><trkpt lat="38.98893968" lon="-0.51553826"><ele>133.4</ele><time>2022-11-13T17:26:33.0000000+00:00</time></trkpt><trkpt lat="38.98893566" lon="-0.51554161"><ele>133.4</ele><time>2022-11-13T17:26:34.0000000+00:00</time></trkpt><trkpt lat="38.9889427" lon="-0.51554857"><ele>133.2</ele><time>2022-11-13T17:26:35.0000000+00:00</time></trkpt><trkpt lat="38.98895066" lon="-0.51555913"><ele>133.2</ele><time>2022-11-13T17:26:36.0000000+00:00</time></trkpt><trkpt lat="38.98894488" lon="-0.51556609"><ele>133.2</ele><time>2022-11-13T17:26:37.0000000+00:00</time></trkpt><trkpt lat="38.98893667" lon="-0.51557573"><ele>133.2</ele><time>2022-11-13T17:26:38.0000000+00:00</time></trkpt><trkpt lat="38.98892661" lon="-0.5155883"><ele>133.2</ele><time>2022-11-13T17:26:39.0000000+00:00</time></trkpt><trkpt lat="38.98892275" lon="-0.51559056"><ele>133.4</ele><time>2022-11-13T17:26:40.0000000+00:00</time></trkpt><trkpt lat="38.98891504" lon="-0.51559752"><ele>133.4</ele><time>2022-11-13T17:26:41.0000000+00:00</time></trkpt><trkpt lat="38.98889911" lon="-0.51561395"><ele>133.4</ele><time>2022-11-13T17:26:42.0000000+00:00</time></trkpt><trkpt lat="38.98888621" lon="-0.51561613"><ele>133.4</ele><time>2022-11-13T17:26:43.0000000+00:00</time></trkpt><trkpt lat="38.98890448" lon="-0.51563029"><ele>133.4</ele><time>2022-11-13T17:26:44.0000000+00:00</time></trkpt><trkpt lat="38.98891705" lon="-0.51564496"><ele>133.4</ele><time>2022-11-13T17:26:45.0000000+00:00</time></trkpt><trkpt lat="38.98892669" lon="-0.51564815"><ele>133.4</ele><time>2022-11-13T17:26:46.0000000+00:00</time></trkpt><trkpt lat="38.98892828" lon="-0.51565879"><ele>133.4</ele><time>2022-11-13T17:26:47.0000000+00:00</time></trkpt><trkpt lat="38.98890222" lon="-0.51567354"><ele>133.4</ele><time>2022-11-13T17:26:48.0000000+00:00</time></trkpt><trkpt lat="38.98888897" lon="-0.51567949"><ele>133.4</ele><time>2022-11-13T17:26:49.0000000+00:00</time></trkpt><trkpt lat="38.98888445" lon="-0.51567472"><ele>133.4</ele><time>2022-11-13T17:26:50.0000000+00:00</time></trkpt><trkpt lat="38.98886601" lon="-0.51567338"><ele>133.4</ele><time>2022-11-13T17:26:51.0000000+00:00</time></trkpt><trkpt lat="38.98885687" lon="-0.51566516"><ele>133.4</ele><time>2022-11-13T17:26:52.0000000+00:00</time></trkpt><trkpt lat="38.98884941" lon="-0.51566139"><ele>133.6</ele><time>2022-11-13T17:26:53.0000000+00:00</time></trkpt><trkpt lat="38.98884698" lon="-0.5156655"><ele>133.6</ele><time>2022-11-13T17:26:54.0000000+00:00</time></trkpt><trkpt lat="38.98884279" lon="-0.51567145"><ele>133.6</ele><time>2022-11-13T17:26:55.0000000+00:00</time></trkpt><trkpt lat="38.98883935" lon="-0.5156748"><ele>133.6</ele><time>2022-11-13T17:26:56.0000000+00:00</time></trkpt><trkpt lat="38.9888313" lon="-0.51566633"><ele>133.6</ele><time>2022-11-13T17:26:57.0000000+00:00</time></trkpt><trkpt lat="38.98882519" lon="-0.51566022"><ele>133.6</ele><time>2022-11-13T17:26:58.0000000+00:00</time></trkpt><trkpt lat="38.98879828" lon="-0.51565376"><ele>133.4</ele><time>2022-11-13T17:26:59.0000000+00:00</time></trkpt><trkpt lat="38.9887956" lon="-0.51565284"><ele>133.4</ele><time>2022-11-13T17:27:00.0000000+00:00</time></trkpt><trkpt lat="38.98876802" lon="-0.51568033"><ele>133.4</ele><time>2022-11-13T17:27:01.0000000+00:00</time></trkpt><trkpt lat="38.98874765" lon="-0.51568938"><ele>133.4</ele><time>2022-11-13T17:27:02.0000000+00:00</time></trkpt><trkpt lat="38.98873072" lon="-0.51570204"><ele>133.4</ele><time>2022-11-13T17:27:03.0000000+00:00</time></trkpt><trkpt lat="38.98872477" lon="-0.51569592"><ele>133.4</ele><time>2022-11-13T17:27:04.0000000+00:00</time></trkpt><trkpt lat="38.98871807" lon="-0.5157012"><ele>133.4</ele><time>2022-11-13T17:27:05.0000000+00:00</time></trkpt><trkpt lat="38.98871941" lon="-0.51568645"><ele>133.4</ele><time>2022-11-13T17:27:06.0000000+00:00</time></trkpt><trkpt lat="38.98873298" lon="-0.51565217"><ele>133.4</ele><time>2022-11-13T17:27:07.0000000+00:00</time></trkpt><trkpt lat="38.98873676" lon="-0.51564571"><ele>133.4</ele><time>2022-11-13T17:27:08.0000000+00:00</time></trkpt><trkpt lat="38.98874036" lon="-0.51564379"><ele>133.4</ele><time>2022-11-13T17:27:09.0000000+00:00</time></trkpt><trkpt lat="38.98874816" lon="-0.51564278"><ele>133.4</ele><time>2022-11-13T17:27:10.0000000+00:00</time></trkpt><trkpt lat="38.98875486" lon="-0.51564085"><ele>133.4</ele><time>2022-11-13T17:27:11.0000000+00:00</time></trkpt><trkpt lat="38.98876048" lon="-0.51563658"><ele>133.4</ele><time>2022-11-13T17:27:12.0000000+00:00</time></trkpt><trkpt lat="38.98876165" lon="-0.51563004"><ele>133.4</ele><time>2022-11-13T17:27:13.0000000+00:00</time></trkpt><trkpt lat="38.98876534" lon="-0.51562912"><ele>133.4</ele><time>2022-11-13T17:27:14.0000000+00:00</time></trkpt><trkpt lat="38.98876324" lon="-0.51563038"><ele>133.4</ele><time>2022-11-13T17:27:15.0000000+00:00</time></trkpt><trkpt lat="38.98876349" lon="-0.5156318"><ele>133.4</ele><time>2022-11-13T17:27:16.0000000+00:00</time></trkpt><trkpt lat="38.98875201" lon="-0.51563934"><ele>133.4</ele><time>2022-11-13T17:27:17.0000000+00:00</time></trkpt><trkpt lat="38.98874313" lon="-0.51564203"><ele>133.4</ele><time>2022-11-13T17:27:18.0000000+00:00</time></trkpt><trkpt lat="38.98874003" lon="-0.51564337"><ele>133.4</ele><time>2022-11-13T17:27:19.0000000+00:00</time></trkpt><trkpt lat="38.98874841" lon="-0.51564555"><ele>133.2</ele><time>2022-11-13T17:27:20.0000000+00:00</time></trkpt><trkpt lat="38.98875469" lon="-0.51564823"><ele>133.2</ele><time>2022-11-13T17:27:21.0000000+00:00</time></trkpt><trkpt lat="38.9887531" lon="-0.51563834"><ele>133.2</ele><time>2022-11-13T17:27:22.0000000+00:00</time></trkpt><trkpt lat="38.98875712" lon="-0.51563691"><ele>133.2</ele><time>2022-11-13T17:27:23.0000000+00:00</time></trkpt><trkpt lat="38.98877213" lon="-0.51563926"><ele>133.2</ele><time>2022-11-13T17:27:24.0000000+00:00</time></trkpt><trkpt lat="38.98879132" lon="-0.51563834"><ele>133.0</ele><time>2022-11-13T17:27:25.0000000+00:00</time></trkpt><trkpt lat="38.98881638" lon="-0.51564605"><ele>133.0</ele><time>2022-11-13T17:27:26.0000000+00:00</time></trkpt><trkpt lat="38.98883558" lon="-0.51565016"><ele>132.8</ele><time>2022-11-13T17:27:27.0000000+00:00</time></trkpt><trkpt lat="38.98885243" lon="-0.51564647"><ele>132.6</ele><time>2022-11-13T17:27:28.0000000+00:00</time></trkpt><trkpt lat="38.9888645" lon="-0.51564555"><ele>132.4</ele><time>2022-11-13T17:27:29.0000000+00:00</time></trkpt><trkpt lat="38.98887715" lon="-0.51564907"><ele>132.2</ele><time>2022-11-13T17:27:30.0000000+00:00</time></trkpt><trkpt lat="38.98888889" lon="-0.51564538"><ele>132.0</ele><time>2022-11-13T17:27:31.0000000+00:00</time></trkpt><trkpt lat="38.98890766" lon="-0.515652"><ele>131.8</ele><time>2022-11-13T17:27:32.0000000+00:00</time></trkpt><trkpt lat="38.98892552" lon="-0.51565594"><ele>131.8</ele><time>2022-11-13T17:27:33.0000000+00:00</time></trkpt><trkpt lat="38.98894773" lon="-0.51565418"><ele>131.6</ele><time>2022-11-13T17:27:34.0000000+00:00</time></trkpt><trkpt lat="38.98896097" lon="-0.51565401"><ele>131.4</ele><time>2022-11-13T17:27:35.0000000+00:00</time></trkpt><trkpt lat="38.98897338" lon="-0.51565267"><ele>131.4</ele><time>2022-11-13T17:27:36.0000000+00:00</time></trkpt><trkpt lat="38.98898251" lon="-0.51564714"><ele>131.2</ele><time>2022-11-13T17:27:37.0000000+00:00</time></trkpt><trkpt lat="38.98899668" lon="-0.51564831"><ele>131.2</ele><time>2022-11-13T17:27:38.0000000+00:00</time></trkpt><trkpt lat="38.98901227" lon="-0.5156494"><ele>131.0</ele><time>2022-11-13T17:27:39.0000000+00:00</time></trkpt><trkpt lat="38.9890235" lon="-0.51564756"><ele>130.8</ele><time>2022-11-13T17:27:40.0000000+00:00</time></trkpt><trkpt lat="38.98903507" lon="-0.51564471"><ele>130.4</ele><time>2022-11-13T17:27:41.0000000+00:00</time></trkpt><trkpt lat="38.98905066" lon="-0.51564194"><ele>130.2</ele><time>2022-11-13T17:27:42.0000000+00:00</time></trkpt><trkpt lat="38.98906399" lon="-0.51563951"><ele>130.2</ele><time>2022-11-13T17:27:43.0000000+00:00</time></trkpt><trkpt lat="38.989081" lon="-0.51563951"><ele>130.0</ele><time>2022-11-13T17:27:44.0000000+00:00</time></trkpt><trkpt lat="38.98908955" lon="-0.51564429"><ele>129.8</ele><time>2022-11-13T17:27:45.0000000+00:00</time></trkpt><trkpt lat="38.98909391" lon="-0.51569408"><ele>129.8</ele><time>2022-11-13T17:27:46.0000000+00:00</time></trkpt><trkpt lat="38.98910229" lon="-0.51572166"><ele>129.8</ele><time>2022-11-13T17:27:47.0000000+00:00</time></trkpt><trkpt lat="38.98910958" lon="-0.51574881"><ele>129.6</ele><time>2022-11-13T17:27:48.0000000+00:00</time></trkpt><trkpt lat="38.98904739" lon="-0.51591167"><ele>129.0</ele><time>2022-11-13T17:27:53.0000000+00:00</time></trkpt><trkpt lat="38.98905401" lon="-0.51591695"><ele>128.8</ele><time>2022-11-13T17:27:54.0000000+00:00</time></trkpt><trkpt lat="38.98906935" lon="-0.51591888"><ele>128.8</ele><time>2022-11-13T17:27:55.0000000+00:00</time></trkpt><trkpt lat="38.98907824" lon="-0.51593011"><ele>128.6</ele><time>2022-11-13T17:27:56.0000000+00:00</time></trkpt><trkpt lat="38.98909617" lon="-0.51594059"><ele>128.6</ele><time>2022-11-13T17:27:57.0000000+00:00</time></trkpt><trkpt lat="38.98913615" lon="-0.51594872"><ele>128.6</ele><time>2022-11-13T17:27:58.0000000+00:00</time></trkpt><trkpt lat="38.98915594" lon="-0.51595626"><ele>128.4</ele><time>2022-11-13T17:27:59.0000000+00:00</time></trkpt><trkpt lat="38.98917572" lon="-0.51596247"><ele>128.2</ele><time>2022-11-13T17:28:00.0000000+00:00</time></trkpt><trkpt lat="38.989195" lon="-0.51596649"><ele>128.2</ele><time>2022-11-13T17:28:01.0000000+00:00</time></trkpt><trkpt lat="38.98921788" lon="-0.51594419"><ele>128.0</ele><time>2022-11-13T17:28:02.0000000+00:00</time></trkpt><trkpt lat="38.9892416" lon="-0.51593682"><ele>127.8</ele><time>2022-11-13T17:28:03.0000000+00:00</time></trkpt><trkpt lat="38.98926482" lon="-0.5159286"><ele>127.6</ele><time>2022-11-13T17:28:04.0000000+00:00</time></trkpt><trkpt lat="38.98927202" lon="-0.51593573"><ele>127.6</ele><time>2022-11-13T17:28:05.0000000+00:00</time></trkpt><trkpt lat="38.98927798" lon="-0.51593824"><ele>127.4</ele><time>2022-11-13T17:28:06.0000000+00:00</time></trkpt><trkpt lat="38.98928812" lon="-0.51594109"><ele>127.2</ele><time>2022-11-13T17:28:07.0000000+00:00</time></trkpt><trkpt lat="38.98929558" lon="-0.5159343"><ele>127.2</ele><time>2022-11-13T17:28:08.0000000+00:00</time></trkpt><trkpt lat="38.98930321" lon="-0.51592626"><ele>127.2</ele><time>2022-11-13T17:28:09.0000000+00:00</time></trkpt><trkpt lat="38.98930756" lon="-0.51593137"><ele>127.2</ele><time>2022-11-13T17:28:10.0000000+00:00</time></trkpt><trkpt lat="38.98931955" lon="-0.51592433"><ele>127.0</ele><time>2022-11-13T17:28:11.0000000+00:00</time></trkpt><trkpt lat="38.98933472" lon="-0.51591377"><ele>127.0</ele><time>2022-11-13T17:28:12.0000000+00:00</time></trkpt><trkpt lat="38.98934763" lon="-0.51591972"><ele>127.0</ele><time>2022-11-13T17:28:13.0000000+00:00</time></trkpt><trkpt lat="38.98936682" lon="-0.51590606"><ele>126.6</ele><time>2022-11-13T17:28:14.0000000+00:00</time></trkpt><trkpt lat="38.98939541" lon="-0.51589038"><ele>126.6</ele><time>2022-11-13T17:28:15.0000000+00:00</time></trkpt><trkpt lat="38.98942181" lon="-0.51589089"><ele>126.4</ele><time>2022-11-13T17:28:16.0000000+00:00</time></trkpt><trkpt lat="38.98946271" lon="-0.51588141"><ele>126.4</ele><time>2022-11-13T17:28:17.0000000+00:00</time></trkpt><trkpt lat="38.98949347" lon="-0.51586515"><ele>126.4</ele><time>2022-11-13T17:28:18.0000000+00:00</time></trkpt><trkpt lat="38.98953999" lon="-0.51585568"><ele>126.4</ele><time>2022-11-13T17:28:19.0000000+00:00</time></trkpt><trkpt lat="38.9895674" lon="-0.51583598"><ele>126.4</ele><time>2022-11-13T17:28:20.0000000+00:00</time></trkpt><trkpt lat="38.98959255" lon="-0.51582132"><ele>126.4</ele><time>2022-11-13T17:28:21.0000000+00:00</time></trkpt><trkpt lat="38.98960655" lon="-0.51580673"><ele>126.2</ele><time>2022-11-13T17:28:22.0000000+00:00</time></trkpt><trkpt lat="38.98961644" lon="-0.51579257"><ele>126.2</ele><time>2022-11-13T17:28:23.0000000+00:00</time></trkpt><trkpt lat="38.98962867" lon="-0.51578251"><ele>126.2</ele><time>2022-11-13T17:28:24.0000000+00:00</time></trkpt><trkpt lat="38.98964116" lon="-0.51576926"><ele>126.2</ele><time>2022-11-13T17:28:25.0000000+00:00</time></trkpt><trkpt lat="38.98965617" lon="-0.51575418"><ele>126.2</ele><time>2022-11-13T17:28:26.0000000+00:00</time></trkpt><trkpt lat="38.98967276" lon="-0.51574739"><ele>126.2</ele><time>2022-11-13T17:28:27.0000000+00:00</time></trkpt><trkpt lat="38.98968207" lon="-0.5157375"><ele>126.2</ele><time>2022-11-13T17:28:28.0000000+00:00</time></trkpt><trkpt lat="38.98969347" lon="-0.51572467"><ele>126.2</ele><time>2022-11-13T17:28:29.0000000+00:00</time></trkpt><trkpt lat="38.98970411" lon="-0.51571604"><ele>126.0</ele><time>2022-11-13T17:28:30.0000000+00:00</time></trkpt><trkpt lat="38.98971861" lon="-0.51569835"><ele>126.2</ele><time>2022-11-13T17:28:31.0000000+00:00</time></trkpt><trkpt lat="38.98973487" lon="-0.51567857"><ele>126.2</ele><time>2022-11-13T17:28:32.0000000+00:00</time></trkpt><trkpt lat="38.98974904" lon="-0.51566608"><ele>126.2</ele><time>2022-11-13T17:28:33.0000000+00:00</time></trkpt><trkpt lat="38.98975868" lon="-0.51564789"><ele>126.0</ele><time>2022-11-13T17:28:34.0000000+00:00</time></trkpt><trkpt lat="38.98977393" lon="-0.51564991"><ele>126.0</ele><time>2022-11-13T17:28:35.0000000+00:00</time></trkpt><trkpt lat="38.98978667" lon="-0.51564647"><ele>126.0</ele><time>2022-11-13T17:28:36.0000000+00:00</time></trkpt><trkpt lat="38.98980059" lon="-0.51565644"><ele>126.2</ele><time>2022-11-13T17:28:37.0000000+00:00</time></trkpt><trkpt lat="38.98981232" lon="-0.51567111"><ele>126.0</ele><time>2022-11-13T17:28:38.0000000+00:00</time></trkpt><trkpt lat="38.98982431" lon="-0.51568603"><ele>126.0</ele><time>2022-11-13T17:28:39.0000000+00:00</time></trkpt><trkpt lat="38.98983319" lon="-0.5156753"><ele>126.0</ele><time>2022-11-13T17:28:40.0000000+00:00</time></trkpt><trkpt lat="38.98984183" lon="-0.51569031"><ele>126.0</ele><time>2022-11-13T17:28:41.0000000+00:00</time></trkpt><trkpt lat="38.98985365" lon="-0.51568679"><ele>125.8</ele><time>2022-11-13T17:28:42.0000000+00:00</time></trkpt><trkpt lat="38.98986479" lon="-0.51568251"><ele>125.8</ele><time>2022-11-13T17:28:43.0000000+00:00</time></trkpt><trkpt lat="38.9898808" lon="-0.51567933"><ele>125.8</ele><time>2022-11-13T17:28:44.0000000+00:00</time></trkpt><trkpt lat="38.98990016" lon="-0.5156769"><ele>125.8</ele><time>2022-11-13T17:28:45.0000000+00:00</time></trkpt><trkpt lat="38.9899207" lon="-0.51566625"><ele>125.8</ele><time>2022-11-13T17:28:46.0000000+00:00</time></trkpt><trkpt lat="38.98993252" lon="-0.51566818"><ele>125.8</ele><time>2022-11-13T17:28:47.0000000+00:00</time></trkpt><trkpt lat="38.98994509" lon="-0.51566147"><ele>125.8</ele><time>2022-11-13T17:28:48.0000000+00:00</time></trkpt><trkpt lat="38.98993847" lon="-0.51562736"><ele>125.8</ele><time>2022-11-13T17:28:49.0000000+00:00</time></trkpt><trkpt lat="38.98995155" lon="-0.51561789"><ele>125.8</ele><time>2022-11-13T17:28:50.0000000+00:00</time></trkpt><trkpt lat="38.9899725" lon="-0.51565033"><ele>125.8</ele><time>2022-11-13T17:28:51.0000000+00:00</time></trkpt><trkpt lat="38.9899922" lon="-0.51565494"><ele>125.8</ele><time>2022-11-13T17:28:52.0000000+00:00</time></trkpt><trkpt lat="38.99000796" lon="-0.51566147"><ele>125.8</ele><time>2022-11-13T17:28:53.0000000+00:00</time></trkpt><trkpt lat="38.99002128" lon="-0.5156712"><ele>126.0</ele><time>2022-11-13T17:28:54.0000000+00:00</time></trkpt><trkpt lat="38.99001709" lon="-0.51568209"><ele>126.0</ele><time>2022-11-13T17:28:55.0000000+00:00</time></trkpt><trkpt lat="38.99001475" lon="-0.51569458"><ele>126.0</ele><time>2022-11-13T17:28:56.0000000+00:00</time></trkpt><trkpt lat="38.99000737" lon="-0.51570514"><ele>126.0</ele><time>2022-11-13T17:28:57.0000000+00:00</time></trkpt><trkpt lat="38.99000628" lon="-0.51571797"><ele>126.0</ele><time>2022-11-13T17:28:58.0000000+00:00</time></trkpt><trkpt lat="38.99000628" lon="-0.51573523"><ele>126.0</ele><time>2022-11-13T17:28:59.0000000+00:00</time></trkpt><trkpt lat="38.99000519" lon="-0.51574823"><ele>126.0</ele><time>2022-11-13T17:29:00.0000000+00:00</time></trkpt><trkpt lat="38.99000812" lon="-0.51575485"><ele>126.0</ele><time>2022-11-13T17:29:01.0000000+00:00</time></trkpt><trkpt lat="38.99000754" lon="-0.51577379"><ele>126.0</ele><time>2022-11-13T17:29:02.0000000+00:00</time></trkpt><trkpt lat="38.99001005" lon="-0.51578921"><ele>126.0</ele><time>2022-11-13T17:29:03.0000000+00:00</time></trkpt><trkpt lat="38.99000024" lon="-0.51579927"><ele>126.0</ele><time>2022-11-13T17:29:04.0000000+00:00</time></trkpt><trkpt lat="38.98999957" lon="-0.51581017"><ele>126.2</ele><time>2022-11-13T17:29:05.0000000+00:00</time></trkpt><trkpt lat="38.9900103" lon="-0.51581645"><ele>126.2</ele><time>2022-11-13T17:29:06.0000000+00:00</time></trkpt><trkpt lat="38.99001692" lon="-0.515825"><ele>126.2</ele><time>2022-11-13T17:29:07.0000000+00:00</time></trkpt><trkpt lat="38.99001642" lon="-0.51583347"><ele>126.2</ele><time>2022-11-13T17:29:08.0000000+00:00</time></trkpt><trkpt lat="38.99000402" lon="-0.5158442"><ele>126.2</ele><time>2022-11-13T17:29:09.0000000+00:00</time></trkpt><trkpt lat="38.99000938" lon="-0.51585401"><ele>126.0</ele><time>2022-11-13T17:29:10.0000000+00:00</time></trkpt><trkpt lat="38.99001969" lon="-0.51586708"><ele>126.0</ele><time>2022-11-13T17:29:11.0000000+00:00</time></trkpt><trkpt lat="38.99002598" lon="-0.51588577"><ele>126.0</ele><time>2022-11-13T17:29:12.0000000+00:00</time></trkpt><trkpt lat="38.99002732" lon="-0.51590145"><ele>126.0</ele><time>2022-11-13T17:29:13.0000000+00:00</time></trkpt><trkpt lat="38.99003008" lon="-0.51592349"><ele>126.2</ele><time>2022-11-13T17:29:14.0000000+00:00</time></trkpt><trkpt lat="38.99003671" lon="-0.51594964"><ele>126.2</ele><time>2022-11-13T17:29:15.0000000+00:00</time></trkpt><trkpt lat="38.99004542" lon="-0.51595677"><ele>126.2</ele><time>2022-11-13T17:29:16.0000000+00:00</time></trkpt><trkpt lat="38.99005389" lon="-0.51597328"><ele>126.2</ele><time>2022-11-13T17:29:17.0000000+00:00</time></trkpt><trkpt lat="38.9900559" lon="-0.51599532"><ele>126.2</ele><time>2022-11-13T17:29:18.0000000+00:00</time></trkpt><trkpt lat="38.9900637" lon="-0.51601293"><ele>126.2</ele><time>2022-11-13T17:29:19.0000000+00:00</time></trkpt><trkpt lat="38.99007375" lon="-0.51602961"><ele>126.2</ele><time>2022-11-13T17:29:20.0000000+00:00</time></trkpt><trkpt lat="38.99008398" lon="-0.51605081"><ele>126.2</ele><time>2022-11-13T17:29:21.0000000+00:00</time></trkpt><trkpt lat="38.99009982" lon="-0.51606397"><ele>126.2</ele><time>2022-11-13T17:29:22.0000000+00:00</time></trkpt><trkpt lat="38.99012522" lon="-0.51607872"><ele>126.0</ele><time>2022-11-13T17:29:23.0000000+00:00</time></trkpt><trkpt lat="38.99014609" lon="-0.51609566"><ele>126.0</ele><time>2022-11-13T17:29:24.0000000+00:00</time></trkpt><trkpt lat="38.99017425" lon="-0.5161058"><ele>126.0</ele><time>2022-11-13T17:29:25.0000000+00:00</time></trkpt><trkpt lat="38.99018859" lon="-0.51611787"><ele>126.0</ele><time>2022-11-13T17:29:26.0000000+00:00</time></trkpt><trkpt lat="38.99022413" lon="-0.51613011"><ele>126.0</ele><time>2022-11-13T17:29:27.0000000+00:00</time></trkpt><trkpt lat="38.99019504" lon="-0.51614159"><ele>126.2</ele><time>2022-11-13T17:29:28.0000000+00:00</time></trkpt><trkpt lat="38.99019747" lon="-0.51616053"><ele>126.2</ele><time>2022-11-13T17:29:29.0000000+00:00</time></trkpt><trkpt lat="38.99020594" lon="-0.51617855"><ele>126.2</ele><time>2022-11-13T17:29:30.0000000+00:00</time></trkpt><trkpt lat="38.99021315" lon="-0.51618828"><ele>126.2</ele><time>2022-11-13T17:29:31.0000000+00:00</time></trkpt><trkpt lat="38.99021725" lon="-0.51619833"><ele>126.2</ele><time>2022-11-13T17:29:32.0000000+00:00</time></trkpt><trkpt lat="38.99021658" lon="-0.51621082"><ele>126.2</ele><time>2022-11-13T17:29:33.0000000+00:00</time></trkpt><trkpt lat="38.99022002" lon="-0.51622842"><ele>126.2</ele><time>2022-11-13T17:29:34.0000000+00:00</time></trkpt><trkpt lat="38.99022421" lon="-0.51624519"><ele>126.2</ele><time>2022-11-13T17:29:35.0000000+00:00</time></trkpt><trkpt lat="38.99023175" lon="-0.5162669"><ele>126.2</ele><time>2022-11-13T17:29:36.0000000+00:00</time></trkpt><trkpt lat="38.99022614" lon="-0.51628534"><ele>126.2</ele><time>2022-11-13T17:29:37.0000000+00:00</time></trkpt><trkpt lat="38.99022413" lon="-0.51629372"><ele>126.4</ele><time>2022-11-13T17:29:38.0000000+00:00</time></trkpt><trkpt lat="38.99022966" lon="-0.51630277"><ele>126.4</ele><time>2022-11-13T17:29:39.0000000+00:00</time></trkpt><trkpt lat="38.99022832" lon="-0.51630688"><ele>126.4</ele><time>2022-11-13T17:29:40.0000000+00:00</time></trkpt><trkpt lat="38.99022672" lon="-0.51631526"><ele>126.4</ele><time>2022-11-13T17:29:41.0000000+00:00</time></trkpt><trkpt lat="38.99022756" lon="-0.51632968"><ele>126.4</ele><time>2022-11-13T17:29:42.0000000+00:00</time></trkpt><trkpt lat="38.99022832" lon="-0.51634317"><ele>126.4</ele><time>2022-11-13T17:29:43.0000000+00:00</time></trkpt><trkpt lat="38.99022496" lon="-0.51635508"><ele>126.4</ele><time>2022-11-13T17:29:44.0000000+00:00</time></trkpt><trkpt lat="38.99021776" lon="-0.51638232"><ele>126.4</ele><time>2022-11-13T17:29:45.0000000+00:00</time></trkpt><trkpt lat="38.99021415" lon="-0.51640294"><ele>126.4</ele><time>2022-11-13T17:29:46.0000000+00:00</time></trkpt><trkpt lat="38.99021491" lon="-0.51642272"><ele>126.4</ele><time>2022-11-13T17:29:47.0000000+00:00</time></trkpt><trkpt lat="38.99021574" lon="-0.51644267"><ele>126.4</ele><time>2022-11-13T17:29:48.0000000+00:00</time></trkpt><trkpt lat="38.99021809" lon="-0.5164565"><ele>126.4</ele><time>2022-11-13T17:29:49.0000000+00:00</time></trkpt><trkpt lat="38.99022027" lon="-0.51646387"><ele>126.6</ele><time>2022-11-13T17:29:50.0000000+00:00</time></trkpt><trkpt lat="38.99022605" lon="-0.51646857"><ele>126.6</ele><time>2022-11-13T17:29:51.0000000+00:00</time></trkpt><trkpt lat="38.99022237" lon="-0.51647301"><ele>126.6</ele><time>2022-11-13T17:29:52.0000000+00:00</time></trkpt><trkpt lat="38.99022538" lon="-0.51647829"><ele>126.6</ele><time>2022-11-13T17:29:53.0000000+00:00</time></trkpt><trkpt lat="38.99023552" lon="-0.51649287"><ele>126.6</ele><time>2022-11-13T17:29:54.0000000+00:00</time></trkpt><trkpt lat="38.99023385" lon="-0.51651349"><ele>126.6</ele><time>2022-11-13T17:29:55.0000000+00:00</time></trkpt><trkpt lat="38.99024651" lon="-0.5165311"><ele>126.6</ele><time>2022-11-13T17:29:56.0000000+00:00</time></trkpt><trkpt lat="38.99025145" lon="-0.51655029"><ele>126.6</ele><time>2022-11-13T17:29:57.0000000+00:00</time></trkpt><trkpt lat="38.9902491" lon="-0.51656974"><ele>126.6</ele><time>2022-11-13T17:29:58.0000000+00:00</time></trkpt><trkpt lat="38.9902336" lon="-0.5165886"><ele>126.6</ele><time>2022-11-13T17:29:59.0000000+00:00</time></trkpt><trkpt lat="38.99022589" lon="-0.51660871"><ele>126.6</ele><time>2022-11-13T17:30:00.0000000+00:00</time></trkpt><trkpt lat="38.99022094" lon="-0.51662841"><ele>126.6</ele><time>2022-11-13T17:30:01.0000000+00:00</time></trkpt><trkpt lat="38.99021801" lon="-0.51664635"><ele>126.6</ele><time>2022-11-13T17:30:02.0000000+00:00</time></trkpt><trkpt lat="38.99021457" lon="-0.51666621"><ele>126.6</ele><time>2022-11-13T17:30:03.0000000+00:00</time></trkpt><trkpt lat="38.99020728" lon="-0.51669345"><ele>126.6</ele><time>2022-11-13T17:30:04.0000000+00:00</time></trkpt><trkpt lat="38.99020367" lon="-0.51671189"><ele>126.8</ele><time>2022-11-13T17:30:05.0000000+00:00</time></trkpt><trkpt lat="38.9902046" lon="-0.51672388"><ele>126.8</ele><time>2022-11-13T17:30:06.0000000+00:00</time></trkpt><trkpt lat="38.99019906" lon="-0.51673687"><ele>126.8</ele><time>2022-11-13T17:30:07.0000000+00:00</time></trkpt><trkpt lat="38.99019429" lon="-0.5167481"><ele>126.8</ele><time>2022-11-13T17:30:08.0000000+00:00</time></trkpt><trkpt lat="38.99018314" lon="-0.51675933"><ele>126.8</ele><time>2022-11-13T17:30:09.0000000+00:00</time></trkpt><trkpt lat="38.99017543" lon="-0.5167678"><ele>126.8</ele><time>2022-11-13T17:30:10.0000000+00:00</time></trkpt><trkpt lat="38.99017995" lon="-0.51678046"><ele>126.8</ele><time>2022-11-13T17:30:11.0000000+00:00</time></trkpt><trkpt lat="38.9901818" lon="-0.51679865"><ele>126.8</ele><time>2022-11-13T17:30:12.0000000+00:00</time></trkpt><trkpt lat="38.9901911" lon="-0.51681876"><ele>126.8</ele><time>2022-11-13T17:30:13.0000000+00:00</time></trkpt><trkpt lat="38.9901885" lon="-0.51682857"><ele>126.8</ele><time>2022-11-13T17:30:14.0000000+00:00</time></trkpt><trkpt lat="38.99019177" lon="-0.51684408"><ele>126.8</ele><time>2022-11-13T17:30:15.0000000+00:00</time></trkpt><trkpt lat="38.99018565" lon="-0.5168605"><ele>126.8</ele><time>2022-11-13T17:30:16.0000000+00:00</time></trkpt><trkpt lat="38.99017115" lon="-0.51687903"><ele>126.8</ele><time>2022-11-13T17:30:17.0000000+00:00</time></trkpt><trkpt lat="38.99016168" lon="-0.51689135"><ele>126.8</ele><time>2022-11-13T17:30:18.0000000+00:00</time></trkpt><trkpt lat="38.99014995" lon="-0.51690342"><ele>126.8</ele><time>2022-11-13T17:30:19.0000000+00:00</time></trkpt><trkpt lat="38.99014207" lon="-0.51691884"><ele>126.8</ele><time>2022-11-13T17:30:20.0000000+00:00</time></trkpt><trkpt lat="38.99013729" lon="-0.51693049"><ele>127.0</ele><time>2022-11-13T17:30:21.0000000+00:00</time></trkpt><trkpt lat="38.9901429" lon="-0.51692898"><ele>127.0</ele><time>2022-11-13T17:30:22.0000000+00:00</time></trkpt><trkpt lat="38.99014366" lon="-0.51693192"><ele>127.2</ele><time>2022-11-13T17:30:23.0000000+00:00</time></trkpt><trkpt lat="38.99014249" lon="-0.5169382"><ele>127.2</ele><time>2022-11-13T17:30:24.0000000+00:00</time></trkpt><trkpt lat="38.99014492" lon="-0.51695379"><ele>127.2</ele><time>2022-11-13T17:30:25.0000000+00:00</time></trkpt><trkpt lat="38.99015263" lon="-0.51697332"><ele>127.2</ele><time>2022-11-13T17:30:26.0000000+00:00</time></trkpt><trkpt lat="38.99016218" lon="-0.51699478"><ele>127.2</ele><time>2022-11-13T17:30:27.0000000+00:00</time></trkpt><trkpt lat="38.99018071" lon="-0.51701314"><ele>127.2</ele><time>2022-11-13T17:30:28.0000000+00:00</time></trkpt><trkpt lat="38.99019538" lon="-0.51702865"><ele>127.2</ele><time>2022-11-13T17:30:29.0000000+00:00</time></trkpt><trkpt lat="38.99020082" lon="-0.51704306"><ele>127.2</ele><time>2022-11-13T17:30:30.0000000+00:00</time></trkpt><trkpt lat="38.9902004" lon="-0.51705153"><ele>127.2</ele><time>2022-11-13T17:30:31.0000000+00:00</time></trkpt><trkpt lat="38.99020795" lon="-0.51706536"><ele>127.2</ele><time>2022-11-13T17:30:32.0000000+00:00</time></trkpt><trkpt lat="38.99016763" lon="-0.51707416"><ele>127.2</ele><time>2022-11-13T17:30:33.0000000+00:00</time></trkpt><trkpt lat="38.99015917" lon="-0.51708707"><ele>127.4</ele><time>2022-11-13T17:30:34.0000000+00:00</time></trkpt><trkpt lat="38.9901585" lon="-0.51710241"><ele>127.4</ele><time>2022-11-13T17:30:35.0000000+00:00</time></trkpt><trkpt lat="38.99015833" lon="-0.51711557"><ele>127.4</ele><time>2022-11-13T17:30:36.0000000+00:00</time></trkpt><trkpt lat="38.99015816" lon="-0.51712244"><ele>127.4</ele><time>2022-11-13T17:30:37.0000000+00:00</time></trkpt><trkpt lat="38.99015338" lon="-0.51713585"><ele>127.4</ele><time>2022-11-13T17:30:38.0000000+00:00</time></trkpt><trkpt lat="38.99014886" lon="-0.51714926"><ele>127.4</ele><time>2022-11-13T17:30:39.0000000+00:00</time></trkpt><trkpt lat="38.99014743" lon="-0.51716083"><ele>127.4</ele><time>2022-11-13T17:30:40.0000000+00:00</time></trkpt><trkpt lat="38.99017367" lon="-0.51717751"><ele>127.4</ele><time>2022-11-13T17:30:41.0000000+00:00</time></trkpt><trkpt lat="38.99019169" lon="-0.51719469"><ele>127.4</ele><time>2022-11-13T17:30:42.0000000+00:00</time></trkpt><trkpt lat="38.99020468" lon="-0.51720257"><ele>127.4</ele><time>2022-11-13T17:30:43.0000000+00:00</time></trkpt><trkpt lat="38.99021449" lon="-0.51720617"><ele>127.6</ele><time>2022-11-13T17:30:44.0000000+00:00</time></trkpt><trkpt lat="38.99022069" lon="-0.51721104"><ele>127.6</ele><time>2022-11-13T17:30:45.0000000+00:00</time></trkpt><trkpt lat="38.99021926" lon="-0.5172216"><ele>127.6</ele><time>2022-11-13T17:30:46.0000000+00:00</time></trkpt><trkpt lat="38.9902118" lon="-0.51724071"><ele>127.6</ele><time>2022-11-13T17:30:47.0000000+00:00</time></trkpt><trkpt lat="38.99021826" lon="-0.51726828"><ele>127.4</ele><time>2022-11-13T17:30:48.0000000+00:00</time></trkpt><trkpt lat="38.99021097" lon="-0.51729955"><ele>127.4</ele><time>2022-11-13T17:30:49.0000000+00:00</time></trkpt><trkpt lat="38.99021264" lon="-0.51731874"><ele>127.4</ele><time>2022-11-13T17:30:50.0000000+00:00</time></trkpt><trkpt lat="38.99022454" lon="-0.51733031"><ele>127.4</ele><time>2022-11-13T17:30:51.0000000+00:00</time></trkpt><trkpt lat="38.99023687" lon="-0.51734422"><ele>127.4</ele><time>2022-11-13T17:30:52.0000000+00:00</time></trkpt><trkpt lat="38.99024667" lon="-0.51735822"><ele>127.4</ele><time>2022-11-13T17:30:53.0000000+00:00</time></trkpt><trkpt lat="38.99025229" lon="-0.51737105"><ele>127.4</ele><time>2022-11-13T17:30:54.0000000+00:00</time></trkpt><trkpt lat="38.9902543" lon="-0.51738655"><ele>127.4</ele><time>2022-11-13T17:30:55.0000000+00:00</time></trkpt><trkpt lat="38.99025296" lon="-0.51740449"><ele>127.4</ele><time>2022-11-13T17:30:56.0000000+00:00</time></trkpt><trkpt lat="38.99024558" lon="-0.51743106"><ele>127.6</ele><time>2022-11-13T17:30:57.0000000+00:00</time></trkpt><trkpt lat="38.9902621" lon="-0.51745486"><ele>127.6</ele><time>2022-11-13T17:30:58.0000000+00:00</time></trkpt><trkpt lat="38.99025539" lon="-0.51747121"><ele>127.6</ele><time>2022-11-13T17:30:59.0000000+00:00</time></trkpt><trkpt lat="38.99023779" lon="-0.51747934"><ele>127.6</ele><time>2022-11-13T17:31:00.0000000+00:00</time></trkpt><trkpt lat="38.99021968" lon="-0.51749225"><ele>127.6</ele><time>2022-11-13T17:31:01.0000000+00:00</time></trkpt><trkpt lat="38.99021206" lon="-0.51751404"><ele>127.6</ele><time>2022-11-13T17:31:02.0000000+00:00</time></trkpt><trkpt lat="38.99019973" lon="-0.51753935"><ele>127.6</ele><time>2022-11-13T17:31:03.0000000+00:00</time></trkpt><trkpt lat="38.99019244" lon="-0.51755788"><ele>127.6</ele><time>2022-11-13T17:31:04.0000000+00:00</time></trkpt><trkpt lat="38.99018423" lon="-0.51757556"><ele>127.6</ele><time>2022-11-13T17:31:05.0000000+00:00</time></trkpt><trkpt lat="38.99017442" lon="-0.51759543"><ele>127.6</ele><time>2022-11-13T17:31:06.0000000+00:00</time></trkpt><trkpt lat="38.99016495" lon="-0.51762074"><ele>127.6</ele><time>2022-11-13T17:31:07.0000000+00:00</time></trkpt><trkpt lat="38.99016202" lon="-0.51764304"><ele>127.6</ele><time>2022-11-13T17:31:08.0000000+00:00</time></trkpt><trkpt lat="38.99015749" lon="-0.51765913"><ele>127.6</ele><time>2022-11-13T17:31:09.0000000+00:00</time></trkpt><trkpt lat="38.99015632" lon="-0.51767137"><ele>127.6</ele><time>2022-11-13T17:31:10.0000000+00:00</time></trkpt><trkpt lat="38.99016202" lon="-0.51768545"><ele>127.6</ele><time>2022-11-13T17:31:11.0000000+00:00</time></trkpt><trkpt lat="38.99016478" lon="-0.51769434"><ele>127.6</ele><time>2022-11-13T17:31:12.0000000+00:00</time></trkpt><trkpt lat="38.99016855" lon="-0.5177023"><ele>127.4</ele><time>2022-11-13T17:31:13.0000000+00:00</time></trkpt><trkpt lat="38.99017425" lon="-0.51771739"><ele>127.4</ele><time>2022-11-13T17:31:14.0000000+00:00</time></trkpt><trkpt lat="38.9901797" lon="-0.51773331"><ele>127.6</ele><time>2022-11-13T17:31:15.0000000+00:00</time></trkpt><trkpt lat="38.99017484" lon="-0.51774982"><ele>127.6</ele><time>2022-11-13T17:31:16.0000000+00:00</time></trkpt><trkpt lat="38.99017358" lon="-0.51776818"><ele>127.6</ele><time>2022-11-13T17:31:17.0000000+00:00</time></trkpt><trkpt lat="38.99016227" lon="-0.51778788"><ele>127.6</ele><time>2022-11-13T17:31:18.0000000+00:00</time></trkpt><trkpt lat="38.99016" lon="-0.5178002"><ele>127.6</ele><time>2022-11-13T17:31:19.0000000+00:00</time></trkpt><trkpt lat="38.9901704" lon="-0.51782467"><ele>127.6</ele><time>2022-11-13T17:31:20.0000000+00:00</time></trkpt><trkpt lat="38.99015456" lon="-0.51783088"><ele>127.6</ele><time>2022-11-13T17:31:21.0000000+00:00</time></trkpt><trkpt lat="38.99015497" lon="-0.51783624"><ele>127.6</ele><time>2022-11-13T17:31:22.0000000+00:00</time></trkpt><trkpt lat="38.99015187" lon="-0.51784588"><ele>127.6</ele><time>2022-11-13T17:31:23.0000000+00:00</time></trkpt><trkpt lat="38.99015875" lon="-0.51785443"><ele>127.6</ele><time>2022-11-13T17:31:24.0000000+00:00</time></trkpt><trkpt lat="38.99016562" lon="-0.51785879"><ele>127.6</ele><time>2022-11-13T17:31:25.0000000+00:00</time></trkpt><trkpt lat="38.99017216" lon="-0.51786801"><ele>127.6</ele><time>2022-11-13T17:31:26.0000000+00:00</time></trkpt><trkpt lat="38.99017333" lon="-0.51788209"><ele>127.6</ele><time>2022-11-13T17:31:27.0000000+00:00</time></trkpt><trkpt lat="38.99017149" lon="-0.51789919"><ele>127.6</ele><time>2022-11-13T17:31:28.0000000+00:00</time></trkpt><trkpt lat="38.99015648" lon="-0.51792467"><ele>127.8</ele><time>2022-11-13T17:31:29.0000000+00:00</time></trkpt><trkpt lat="38.9901652" lon="-0.51794613"><ele>127.8</ele><time>2022-11-13T17:31:30.0000000+00:00</time></trkpt><trkpt lat="38.99016378" lon="-0.5179696"><ele>127.8</ele><time>2022-11-13T17:31:31.0000000+00:00</time></trkpt><trkpt lat="38.99015355" lon="-0.51801729"><ele>128.0</ele><time>2022-11-13T17:31:32.0000000+00:00</time></trkpt><trkpt lat="38.9901455" lon="-0.51805518"><ele>127.8</ele><time>2022-11-13T17:31:33.0000000+00:00</time></trkpt><trkpt lat="38.99014517" lon="-0.51807714"><ele>127.8</ele><time>2022-11-13T17:31:34.0000000+00:00</time></trkpt><trkpt lat="38.99014601" lon="-0.51808753"><ele>127.8</ele><time>2022-11-13T17:31:35.0000000+00:00</time></trkpt><trkpt lat="38.99014332" lon="-0.51809264"><ele>127.8</ele><time>2022-11-13T17:31:36.0000000+00:00</time></trkpt><trkpt lat="38.99014534" lon="-0.51809809"><ele>127.8</ele><time>2022-11-13T17:31:37.0000000+00:00</time></trkpt><trkpt lat="38.99014894" lon="-0.51810555"><ele>127.8</ele><time>2022-11-13T17:31:38.0000000+00:00</time></trkpt><trkpt lat="38.99014953" lon="-0.51811326"><ele>127.8</ele><time>2022-11-13T17:31:39.0000000+00:00</time></trkpt><trkpt lat="38.99016109" lon="-0.51812609"><ele>127.8</ele><time>2022-11-13T17:31:40.0000000+00:00</time></trkpt><trkpt lat="38.99016847" lon="-0.51814151"><ele>127.8</ele><time>2022-11-13T17:31:41.0000000+00:00</time></trkpt><trkpt lat="38.99018364" lon="-0.51815894"><ele>127.8</ele><time>2022-11-13T17:31:42.0000000+00:00</time></trkpt><trkpt lat="38.99018364" lon="-0.51817663"><ele>127.8</ele><time>2022-11-13T17:31:43.0000000+00:00</time></trkpt><trkpt lat="38.99017526" lon="-0.51819256"><ele>128.0</ele><time>2022-11-13T17:31:44.0000000+00:00</time></trkpt><trkpt lat="38.99015891" lon="-0.51821368"><ele>128.0</ele><time>2022-11-13T17:31:45.0000000+00:00</time></trkpt><trkpt lat="38.99016269" lon="-0.51822893"><ele>128.0</ele><time>2022-11-13T17:31:46.0000000+00:00</time></trkpt><trkpt lat="38.99016176" lon="-0.51825173"><ele>128.0</ele><time>2022-11-13T17:31:47.0000000+00:00</time></trkpt><trkpt lat="38.99017031" lon="-0.51826623"><ele>128.0</ele><time>2022-11-13T17:31:48.0000000+00:00</time></trkpt><trkpt lat="38.99020426" lon="-0.51827914"><ele>128.0</ele><time>2022-11-13T17:31:49.0000000+00:00</time></trkpt><trkpt lat="38.99021423" lon="-0.51829255"><ele>128.0</ele><time>2022-11-13T17:31:50.0000000+00:00</time></trkpt><trkpt lat="38.99021516" lon="-0.51831225"><ele>128.0</ele><time>2022-11-13T17:31:51.0000000+00:00</time></trkpt><trkpt lat="38.99021893" lon="-0.51832801"><ele>128.0</ele><time>2022-11-13T17:31:52.0000000+00:00</time></trkpt><trkpt lat="38.99022195" lon="-0.51834142"><ele>128.0</ele><time>2022-11-13T17:31:53.0000000+00:00</time></trkpt><trkpt lat="38.99021608" lon="-0.51835952"><ele>128.0</ele><time>2022-11-13T17:31:54.0000000+00:00</time></trkpt><trkpt lat="38.99021004" lon="-0.51838241"><ele>128.2</ele><time>2022-11-13T17:31:55.0000000+00:00</time></trkpt><trkpt lat="38.99018909" lon="-0.5184016"><ele>128.2</ele><time>2022-11-13T17:31:56.0000000+00:00</time></trkpt><trkpt lat="38.99017157" lon="-0.51842063"><ele>128.4</ele><time>2022-11-13T17:31:57.0000000+00:00</time></trkpt><trkpt lat="38.9901533" lon="-0.5184353"><ele>128.4</ele><time>2022-11-13T17:31:58.0000000+00:00</time></trkpt><trkpt lat="38.99013804" lon="-0.5184477"><ele>128.4</ele><time>2022-11-13T17:31:59.0000000+00:00</time></trkpt><trkpt lat="38.99013645" lon="-0.51846103"><ele>128.4</ele><time>2022-11-13T17:32:00.0000000+00:00</time></trkpt><trkpt lat="38.99013578" lon="-0.5184705"><ele>128.4</ele><time>2022-11-13T17:32:01.0000000+00:00</time></trkpt><trkpt lat="38.99013788" lon="-0.51848056"><ele>128.4</ele><time>2022-11-13T17:32:02.0000000+00:00</time></trkpt><trkpt lat="38.99013871" lon="-0.5184824"><ele>128.4</ele><time>2022-11-13T17:32:03.0000000+00:00</time></trkpt><trkpt lat="38.99013637" lon="-0.51848793"><ele>128.4</ele><time>2022-11-13T17:32:04.0000000+00:00</time></trkpt><trkpt lat="38.99013687" lon="-0.51849757"><ele>128.2</ele><time>2022-11-13T17:32:05.0000000+00:00</time></trkpt><trkpt lat="38.99014324" lon="-0.51850872"><ele>128.2</ele><time>2022-11-13T17:32:06.0000000+00:00</time></trkpt><trkpt lat="38.99014995" lon="-0.5185249"><ele>128.2</ele><time>2022-11-13T17:32:07.0000000+00:00</time></trkpt><trkpt lat="38.99016026" lon="-0.51854376"><ele>128.0</ele><time>2022-11-13T17:32:08.0000000+00:00</time></trkpt><trkpt lat="38.99016386" lon="-0.51856228"><ele>128.0</ele><time>2022-11-13T17:32:09.0000000+00:00</time></trkpt><trkpt lat="38.99016176" lon="-0.51858542"><ele>128.0</ele><time>2022-11-13T17:32:10.0000000+00:00</time></trkpt><trkpt lat="38.99015422" lon="-0.51860629"><ele>128.0</ele><time>2022-11-13T17:32:11.0000000+00:00</time></trkpt><trkpt lat="38.99013494" lon="-0.51862959"><ele>128.2</ele><time>2022-11-13T17:32:12.0000000+00:00</time></trkpt><trkpt lat="38.99013075" lon="-0.51864501"><ele>128.2</ele><time>2022-11-13T17:32:13.0000000+00:00</time></trkpt><trkpt lat="38.99013151" lon="-0.51865817"><ele>128.2</ele><time>2022-11-13T17:32:14.0000000+00:00</time></trkpt><trkpt lat="38.99013695" lon="-0.51867326"><ele>128.4</ele><time>2022-11-13T17:32:15.0000000+00:00</time></trkpt><trkpt lat="38.9901471" lon="-0.51870436"><ele>128.4</ele><time>2022-11-13T17:32:16.0000000+00:00</time></trkpt><trkpt lat="38.9901533" lon="-0.51872657"><ele>128.4</ele><time>2022-11-13T17:32:17.0000000+00:00</time></trkpt><trkpt lat="38.99014668" lon="-0.51874174"><ele>128.4</ele><time>2022-11-13T17:32:18.0000000+00:00</time></trkpt><trkpt lat="38.99014081" lon="-0.51875833"><ele>128.4</ele><time>2022-11-13T17:32:19.0000000+00:00</time></trkpt><trkpt lat="38.99012874" lon="-0.51878482"><ele>128.2</ele><time>2022-11-13T17:32:20.0000000+00:00</time></trkpt><trkpt lat="38.99012111" lon="-0.5188062"><ele>128.2</ele><time>2022-11-13T17:32:21.0000000+00:00</time></trkpt><trkpt lat="38.99011625" lon="-0.51883738"><ele>128.4</ele><time>2022-11-13T17:32:22.0000000+00:00</time></trkpt><trkpt lat="38.99010602" lon="-0.5188652"><ele>128.2</ele><time>2022-11-13T17:32:23.0000000+00:00</time></trkpt><trkpt lat="38.99009823" lon="-0.51888096"><ele>128.2</ele><time>2022-11-13T17:32:24.0000000+00:00</time></trkpt><trkpt lat="38.99009437" lon="-0.51890317"><ele>128.2</ele><time>2022-11-13T17:32:25.0000000+00:00</time></trkpt><trkpt lat="38.9901015" lon="-0.51892723"><ele>128.2</ele><time>2022-11-13T17:32:26.0000000+00:00</time></trkpt><trkpt lat="38.99010971" lon="-0.51894986"><ele>128.4</ele><time>2022-11-13T17:32:27.0000000+00:00</time></trkpt><trkpt lat="38.99011918" lon="-0.5189745"><ele>128.4</ele><time>2022-11-13T17:32:28.0000000+00:00</time></trkpt><trkpt lat="38.99012413" lon="-0.5189916"><ele>128.4</ele><time>2022-11-13T17:32:29.0000000+00:00</time></trkpt><trkpt lat="38.99012941" lon="-0.51900988"><ele>128.4</ele><time>2022-11-13T17:32:30.0000000+00:00</time></trkpt><trkpt lat="38.99012262" lon="-0.51904072"><ele>128.6</ele><time>2022-11-13T17:32:31.0000000+00:00</time></trkpt><trkpt lat="38.99011005" lon="-0.51906595"><ele>128.6</ele><time>2022-11-13T17:32:32.0000000+00:00</time></trkpt><trkpt lat="38.99010426" lon="-0.51908992"><ele>128.6</ele><time>2022-11-13T17:32:33.0000000+00:00</time></trkpt><trkpt lat="38.99010535" lon="-0.51911867"><ele>128.6</ele><time>2022-11-13T17:32:34.0000000+00:00</time></trkpt><trkpt lat="38.99010108" lon="-0.51913535"><ele>128.6</ele><time>2022-11-13T17:32:35.0000000+00:00</time></trkpt><trkpt lat="38.99008742" lon="-0.51914566"><ele>128.6</ele><time>2022-11-13T17:32:36.0000000+00:00</time></trkpt><trkpt lat="38.99008314" lon="-0.51915782"><ele>128.6</ele><time>2022-11-13T17:32:37.0000000+00:00</time></trkpt><trkpt lat="38.99008188" lon="-0.51917047"><ele>128.6</ele><time>2022-11-13T17:32:38.0000000+00:00</time></trkpt><trkpt lat="38.99009664" lon="-0.51918732"><ele>128.6</ele><time>2022-11-13T17:32:39.0000000+00:00</time></trkpt><trkpt lat="38.99010007" lon="-0.51920274"><ele>128.6</ele><time>2022-11-13T17:32:40.0000000+00:00</time></trkpt><trkpt lat="38.99009974" lon="-0.51921733"><ele>128.6</ele><time>2022-11-13T17:32:41.0000000+00:00</time></trkpt><trkpt lat="38.99009479" lon="-0.51923124"><ele>128.6</ele><time>2022-11-13T17:32:42.0000000+00:00</time></trkpt><trkpt lat="38.9900901" lon="-0.51924465"><ele>128.8</ele><time>2022-11-13T17:32:43.0000000+00:00</time></trkpt><trkpt lat="38.99010426" lon="-0.51926485"><ele>128.8</ele><time>2022-11-13T17:32:44.0000000+00:00</time></trkpt><trkpt lat="38.99010435" lon="-0.51927349"><ele>128.8</ele><time>2022-11-13T17:32:45.0000000+00:00</time></trkpt><trkpt lat="38.99010284" lon="-0.51928053"><ele>128.8</ele><time>2022-11-13T17:32:46.0000000+00:00</time></trkpt><trkpt lat="38.99009454" lon="-0.51929268"><ele>128.8</ele><time>2022-11-13T17:32:47.0000000+00:00</time></trkpt><trkpt lat="38.99008691" lon="-0.5193024"><ele>128.8</ele><time>2022-11-13T17:32:48.0000000+00:00</time></trkpt><trkpt lat="38.99007711" lon="-0.51930861"><ele>128.8</ele><time>2022-11-13T17:32:49.0000000+00:00</time></trkpt><trkpt lat="38.99007317" lon="-0.51931489"><ele>128.8</ele><time>2022-11-13T17:32:50.0000000+00:00</time></trkpt><trkpt lat="38.99008272" lon="-0.51931657"><ele>128.8</ele><time>2022-11-13T17:32:51.0000000+00:00</time></trkpt><trkpt lat="38.99009488" lon="-0.51932545"><ele>128.8</ele><time>2022-11-13T17:32:52.0000000+00:00</time></trkpt><trkpt lat="38.99009018" lon="-0.51932462"><ele>128.8</ele><time>2022-11-13T17:32:53.0000000+00:00</time></trkpt><trkpt lat="38.99009563" lon="-0.51932688"><ele>128.6</ele><time>2022-11-13T17:32:54.0000000+00:00</time></trkpt><trkpt lat="38.99010988" lon="-0.51933233"><ele>128.6</ele><time>2022-11-13T17:32:55.0000000+00:00</time></trkpt><trkpt lat="38.99013092" lon="-0.51933836"><ele>128.4</ele><time>2022-11-13T17:32:56.0000000+00:00</time></trkpt><trkpt lat="38.99014064" lon="-0.51934088"><ele>128.4</ele><time>2022-11-13T17:32:57.0000000+00:00</time></trkpt><trkpt lat="38.99015875" lon="-0.51934783"><ele>128.4</ele><time>2022-11-13T17:32:58.0000000+00:00</time></trkpt><trkpt lat="38.99016872" lon="-0.5193506"><ele>128.4</ele><time>2022-11-13T17:32:59.0000000+00:00</time></trkpt><trkpt lat="38.99017425" lon="-0.51935211"><ele>128.6</ele><time>2022-11-13T17:33:00.0000000+00:00</time></trkpt><trkpt lat="38.99018062" lon="-0.51935253"><ele>128.6</ele><time>2022-11-13T17:33:01.0000000+00:00</time></trkpt><trkpt lat="38.99018507" lon="-0.51935379"><ele>128.6</ele><time>2022-11-13T17:33:02.0000000+00:00</time></trkpt><trkpt lat="38.99019487" lon="-0.51936192"><ele>128.8</ele><time>2022-11-13T17:33:03.0000000+00:00</time></trkpt><trkpt lat="38.9902046" lon="-0.51936418"><ele>128.8</ele><time>2022-11-13T17:33:04.0000000+00:00</time></trkpt><trkpt lat="38.99021415" lon="-0.51936686"><ele>128.8</ele><time>2022-11-13T17:33:05.0000000+00:00</time></trkpt><trkpt lat="38.99021968" lon="-0.51936619"><ele>128.8</ele><time>2022-11-13T17:33:06.0000000+00:00</time></trkpt><trkpt lat="38.99021985" lon="-0.5193656"><ele>128.8</ele><time>2022-11-13T17:33:07.0000000+00:00</time></trkpt><trkpt lat="38.99021348" lon="-0.51936803"><ele>128.8</ele><time>2022-11-13T17:33:08.0000000+00:00</time></trkpt><trkpt lat="38.99021138" lon="-0.51937139"><ele>128.8</ele><time>2022-11-13T17:33:09.0000000+00:00</time></trkpt><trkpt lat="38.99021415" lon="-0.51936971"><ele>128.8</ele><time>2022-11-13T17:33:10.0000000+00:00</time></trkpt><trkpt lat="38.99021734" lon="-0.51936787"><ele>128.8</ele><time>2022-11-13T17:33:11.0000000+00:00</time></trkpt><trkpt lat="38.99021164" lon="-0.51936342"><ele>128.8</ele><time>2022-11-13T17:33:12.0000000+00:00</time></trkpt><trkpt lat="38.99021373" lon="-0.51936837"><ele>128.8</ele><time>2022-11-13T17:33:13.0000000+00:00</time></trkpt><trkpt lat="38.99022354" lon="-0.51937306"><ele>128.8</ele><time>2022-11-13T17:33:14.0000000+00:00</time></trkpt><trkpt lat="38.99023284" lon="-0.51937868"><ele>128.8</ele><time>2022-11-13T17:33:15.0000000+00:00</time></trkpt><trkpt lat="38.99023955" lon="-0.51938279"><ele>128.8</ele><time>2022-11-13T17:33:16.0000000+00:00</time></trkpt><trkpt lat="38.99024273" lon="-0.51939251"><ele>128.8</ele><time>2022-11-13T17:33:17.0000000+00:00</time></trkpt><trkpt lat="38.99024776" lon="-0.51940181"><ele>128.8</ele><time>2022-11-13T17:33:18.0000000+00:00</time></trkpt><trkpt lat="38.99024927" lon="-0.51941497"><ele>128.8</ele><time>2022-11-13T17:33:19.0000000+00:00</time></trkpt><trkpt lat="38.9902491" lon="-0.51942168"><ele>128.8</ele><time>2022-11-13T17:33:20.0000000+00:00</time></trkpt><trkpt lat="38.99024785" lon="-0.51942696"><ele>128.8</ele><time>2022-11-13T17:33:21.0000000+00:00</time></trkpt><trkpt lat="38.99023888" lon="-0.51943769"><ele>128.8</ele><time>2022-11-13T17:33:22.0000000+00:00</time></trkpt><trkpt lat="38.99024055" lon="-0.51944515"><ele>128.8</ele><time>2022-11-13T17:33:23.0000000+00:00</time></trkpt><trkpt lat="38.99024215" lon="-0.51944976"><ele>128.8</ele><time>2022-11-13T17:33:24.0000000+00:00</time></trkpt><trkpt lat="38.99022203" lon="-0.51946786"><ele>128.8</ele><time>2022-11-13T17:33:25.0000000+00:00</time></trkpt><trkpt lat="38.99020644" lon="-0.51948899"><ele>128.8</ele><time>2022-11-13T17:33:26.0000000+00:00</time></trkpt><trkpt lat="38.99019931" lon="-0.5195091"><ele>128.8</ele><time>2022-11-13T17:33:27.0000000+00:00</time></trkpt><trkpt lat="38.99019554" lon="-0.51953366"><ele>129.0</ele><time>2022-11-13T17:33:28.0000000+00:00</time></trkpt><trkpt lat="38.99019102" lon="-0.51955688"><ele>129.0</ele><time>2022-11-13T17:33:29.0000000+00:00</time></trkpt><trkpt lat="38.99018406" lon="-0.5195728"><ele>129.0</ele><time>2022-11-13T17:33:30.0000000+00:00</time></trkpt><trkpt lat="38.99017576" lon="-0.51958622"><ele>129.0</ele><time>2022-11-13T17:33:31.0000000+00:00</time></trkpt><trkpt lat="38.9901683" lon="-0.51959862"><ele>129.0</ele><time>2022-11-13T17:33:32.0000000+00:00</time></trkpt><trkpt lat="38.99015933" lon="-0.5196127"><ele>129.0</ele><time>2022-11-13T17:33:33.0000000+00:00</time></trkpt><trkpt lat="38.99015497" lon="-0.51962829"><ele>129.0</ele><time>2022-11-13T17:33:34.0000000+00:00</time></trkpt><trkpt lat="38.99015011" lon="-0.51964397"><ele>129.0</ele><time>2022-11-13T17:33:35.0000000+00:00</time></trkpt><trkpt lat="38.99014408" lon="-0.51965981"><ele>129.0</ele><time>2022-11-13T17:33:36.0000000+00:00</time></trkpt><trkpt lat="38.99014039" lon="-0.51967716"><ele>129.0</ele><time>2022-11-13T17:33:37.0000000+00:00</time></trkpt><trkpt lat="38.99013704" lon="-0.51969694"><ele>129.0</ele><time>2022-11-13T17:33:38.0000000+00:00</time></trkpt><trkpt lat="38.99013586" lon="-0.51971907"><ele>129.0</ele><time>2022-11-13T17:33:39.0000000+00:00</time></trkpt><trkpt lat="38.99013184" lon="-0.51974346"><ele>129.0</ele><time>2022-11-13T17:33:40.0000000+00:00</time></trkpt><trkpt lat="38.9901274" lon="-0.51976844"><ele>129.0</ele><time>2022-11-13T17:33:41.0000000+00:00</time></trkpt><trkpt lat="38.99012354" lon="-0.51978311"><ele>129.0</ele><time>2022-11-13T17:33:42.0000000+00:00</time></trkpt><trkpt lat="38.9901222" lon="-0.51978939"><ele>129.0</ele><time>2022-11-13T17:33:43.0000000+00:00</time></trkpt><trkpt lat="38.99011399" lon="-0.51979895"><ele>129.0</ele><time>2022-11-13T17:33:44.0000000+00:00</time></trkpt><trkpt lat="38.9900989" lon="-0.51980062"><ele>129.0</ele><time>2022-11-13T17:33:45.0000000+00:00</time></trkpt><trkpt lat="38.99009362" lon="-0.51980054"><ele>129.0</ele><time>2022-11-13T17:33:46.0000000+00:00</time></trkpt><trkpt lat="38.99008457" lon="-0.51981647"><ele>129.0</ele><time>2022-11-13T17:33:47.0000000+00:00</time></trkpt><trkpt lat="38.99006847" lon="-0.51984371"><ele>129.0</ele><time>2022-11-13T17:33:48.0000000+00:00</time></trkpt><trkpt lat="38.99006026" lon="-0.5198774"><ele>129.0</ele><time>2022-11-13T17:33:49.0000000+00:00</time></trkpt><trkpt lat="38.99005305" lon="-0.51990942"><ele>129.0</ele><time>2022-11-13T17:33:50.0000000+00:00</time></trkpt><trkpt lat="38.99005129" lon="-0.51992971"><ele>129.0</ele><time>2022-11-13T17:33:51.0000000+00:00</time></trkpt><trkpt lat="38.99005104" lon="-0.51994337"><ele>129.0</ele><time>2022-11-13T17:33:52.0000000+00:00</time></trkpt><trkpt lat="38.99005883" lon="-0.51995569"><ele>129.0</ele><time>2022-11-13T17:33:53.0000000+00:00</time></trkpt><trkpt lat="38.99005246" lon="-0.51997145"><ele>129.0</ele><time>2022-11-13T17:33:54.0000000+00:00</time></trkpt><trkpt lat="38.99003679" lon="-0.51998352"><ele>129.0</ele><time>2022-11-13T17:33:55.0000000+00:00</time></trkpt><trkpt lat="38.99002405" lon="-0.5199971"><ele>129.0</ele><time>2022-11-13T17:33:56.0000000+00:00</time></trkpt><trkpt lat="38.99001718" lon="-0.52001176"><ele>129.0</ele><time>2022-11-13T17:33:57.0000000+00:00</time></trkpt><trkpt lat="38.99001785" lon="-0.52002735"><ele>129.0</ele><time>2022-11-13T17:33:58.0000000+00:00</time></trkpt><trkpt lat="38.99001818" lon="-0.52004546"><ele>129.0</ele><time>2022-11-13T17:33:59.0000000+00:00</time></trkpt><trkpt lat="38.99001366" lon="-0.52006465"><ele>129.0</ele><time>2022-11-13T17:34:00.0000000+00:00</time></trkpt><trkpt lat="38.99000963" lon="-0.520082"><ele>129.0</ele><time>2022-11-13T17:34:01.0000000+00:00</time></trkpt><trkpt lat="38.9900062" lon="-0.52009977"><ele>129.0</ele><time>2022-11-13T17:34:02.0000000+00:00</time></trkpt><trkpt lat="38.99000418" lon="-0.52011763"><ele>129.0</ele><time>2022-11-13T17:34:03.0000000+00:00</time></trkpt><trkpt lat="38.99000569" lon="-0.52013565"><ele>129.0</ele><time>2022-11-13T17:34:04.0000000+00:00</time></trkpt><trkpt lat="38.99000754" lon="-0.52015434"><ele>129.0</ele><time>2022-11-13T17:34:05.0000000+00:00</time></trkpt><trkpt lat="38.99000427" lon="-0.52016549"><ele>129.0</ele><time>2022-11-13T17:34:06.0000000+00:00</time></trkpt><trkpt lat="38.98999614" lon="-0.52017764"><ele>129.0</ele><time>2022-11-13T17:34:07.0000000+00:00</time></trkpt><trkpt lat="38.98998264" lon="-0.52019189"><ele>129.0</ele><time>2022-11-13T17:34:08.0000000+00:00</time></trkpt><trkpt lat="38.98997082" lon="-0.52020446"><ele>129.0</ele><time>2022-11-13T17:34:09.0000000+00:00</time></trkpt><trkpt lat="38.98995775" lon="-0.52021821"><ele>129.0</ele><time>2022-11-13T17:34:10.0000000+00:00</time></trkpt><trkpt lat="38.98995096" lon="-0.5202343"><ele>129.0</ele><time>2022-11-13T17:34:11.0000000+00:00</time></trkpt><trkpt lat="38.98995322" lon="-0.52025107"><ele>128.8</ele><time>2022-11-13T17:34:12.0000000+00:00</time></trkpt><trkpt lat="38.98995465" lon="-0.52026557"><ele>128.8</ele><time>2022-11-13T17:34:13.0000000+00:00</time></trkpt><trkpt lat="38.98995926" lon="-0.52027873"><ele>128.8</ele><time>2022-11-13T17:34:14.0000000+00:00</time></trkpt><trkpt lat="38.98995364" lon="-0.52029147"><ele>128.8</ele><time>2022-11-13T17:34:15.0000000+00:00</time></trkpt><trkpt lat="38.98994995" lon="-0.52030312"><ele>128.8</ele><time>2022-11-13T17:34:16.0000000+00:00</time></trkpt><trkpt lat="38.98994627" lon="-0.52031972"><ele>128.8</ele><time>2022-11-13T17:34:17.0000000+00:00</time></trkpt><trkpt lat="38.98995113" lon="-0.52034251"><ele>128.8</ele><time>2022-11-13T17:34:18.0000000+00:00</time></trkpt><trkpt lat="38.98995079" lon="-0.52036682"><ele>128.8</ele><time>2022-11-13T17:34:19.0000000+00:00</time></trkpt><trkpt lat="38.98994652" lon="-0.52037956"><ele>128.8</ele><time>2022-11-13T17:34:20.0000000+00:00</time></trkpt><trkpt lat="38.98994283" lon="-0.52039088"><ele>128.8</ele><time>2022-11-13T17:34:21.0000000+00:00</time></trkpt><trkpt lat="38.98993847" lon="-0.5204032"><ele>128.8</ele><time>2022-11-13T17:34:22.0000000+00:00</time></trkpt><trkpt lat="38.98993805" lon="-0.52042055"><ele>128.8</ele><time>2022-11-13T17:34:23.0000000+00:00</time></trkpt><trkpt lat="38.98994274" lon="-0.52043329"><ele>128.8</ele><time>2022-11-13T17:34:24.0000000+00:00</time></trkpt><trkpt lat="38.989943" lon="-0.52044385"><ele>128.8</ele><time>2022-11-13T17:34:25.0000000+00:00</time></trkpt><trkpt lat="38.98994073" lon="-0.52045743"><ele>129.0</ele><time>2022-11-13T17:34:26.0000000+00:00</time></trkpt><trkpt lat="38.98994383" lon="-0.52046967"><ele>129.0</ele><time>2022-11-13T17:34:27.0000000+00:00</time></trkpt><trkpt lat="38.98994694" lon="-0.52048375"><ele>129.0</ele><time>2022-11-13T17:34:28.0000000+00:00</time></trkpt><trkpt lat="38.98994367" lon="-0.52050009"><ele>129.0</ele><time>2022-11-13T17:34:29.0000000+00:00</time></trkpt><trkpt lat="38.98993629" lon="-0.52051929"><ele>129.0</ele><time>2022-11-13T17:34:30.0000000+00:00</time></trkpt><trkpt lat="38.98993277" lon="-0.52053941"><ele>129.0</ele><time>2022-11-13T17:34:31.0000000+00:00</time></trkpt><trkpt lat="38.98993" lon="-0.52056304"><ele>129.0</ele><time>2022-11-13T17:34:32.0000000+00:00</time></trkpt><trkpt lat="38.98992724" lon="-0.52059615"><ele>129.0</ele><time>2022-11-13T17:34:33.0000000+00:00</time></trkpt><trkpt lat="38.98991408" lon="-0.52061887"><ele>128.8</ele><time>2022-11-13T17:34:34.0000000+00:00</time></trkpt><trkpt lat="38.98989991" lon="-0.52064368"><ele>128.8</ele><time>2022-11-13T17:34:35.0000000+00:00</time></trkpt><trkpt lat="38.98988994" lon="-0.52065508"><ele>128.8</ele><time>2022-11-13T17:34:36.0000000+00:00</time></trkpt><trkpt lat="38.9898829" lon="-0.52067176"><ele>128.8</ele><time>2022-11-13T17:34:37.0000000+00:00</time></trkpt><trkpt lat="38.98987351" lon="-0.52069095"><ele>128.8</ele><time>2022-11-13T17:34:38.0000000+00:00</time></trkpt><trkpt lat="38.98986664" lon="-0.52071149"><ele>128.8</ele><time>2022-11-13T17:34:39.0000000+00:00</time></trkpt><trkpt lat="38.98986077" lon="-0.52073118"><ele>128.8</ele><time>2022-11-13T17:34:40.0000000+00:00</time></trkpt><trkpt lat="38.9898549" lon="-0.52074057"><ele>128.8</ele><time>2022-11-13T17:34:41.0000000+00:00</time></trkpt><trkpt lat="38.98985289" lon="-0.52074057"><ele>128.8</ele><time>2022-11-13T17:34:42.0000000+00:00</time></trkpt><trkpt lat="38.98985197" lon="-0.52073982"><ele>129.0</ele><time>2022-11-13T17:34:43.0000000+00:00</time></trkpt><trkpt lat="38.98984853" lon="-0.52074292"><ele>129.0</ele><time>2022-11-13T17:34:44.0000000+00:00</time></trkpt><trkpt lat="38.98984593" lon="-0.52074309"><ele>129.0</ele><time>2022-11-13T17:34:45.0000000+00:00</time></trkpt><trkpt lat="38.98985189" lon="-0.52074753"><ele>129.0</ele><time>2022-11-13T17:34:46.0000000+00:00</time></trkpt><trkpt lat="38.98984962" lon="-0.52074384"><ele>129.0</ele><time>2022-11-13T17:34:47.0000000+00:00</time></trkpt><trkpt lat="38.98984702" lon="-0.52073923"><ele>129.0</ele><time>2022-11-13T17:34:48.0000000+00:00</time></trkpt><trkpt lat="38.98984099" lon="-0.52073504"><ele>129.0</ele><time>2022-11-13T17:34:49.0000000+00:00</time></trkpt><trkpt lat="38.9898337" lon="-0.52073135"><ele>129.0</ele><time>2022-11-13T17:34:50.0000000+00:00</time></trkpt><trkpt lat="38.98981257" lon="-0.52073311"><ele>129.0</ele><time>2022-11-13T17:34:51.0000000+00:00</time></trkpt><trkpt lat="38.99003889" lon="-0.52076848"><ele>129.0</ele><time>2022-11-13T17:35:06.0000000+00:00</time></trkpt><trkpt lat="38.98991441" lon="-0.5209093"><ele>129.0</ele><time>2022-11-13T17:35:07.0000000+00:00</time></trkpt><trkpt lat="38.98988566" lon="-0.52094987"><ele>129.0</ele><time>2022-11-13T17:35:08.0000000+00:00</time></trkpt><trkpt lat="38.98986412" lon="-0.5209528"><ele>129.0</ele><time>2022-11-13T17:35:09.0000000+00:00</time></trkpt><trkpt lat="38.98992598" lon="-0.52093696"><ele>129.0</ele><time>2022-11-13T17:35:10.0000000+00:00</time></trkpt><trkpt lat="38.98992196" lon="-0.52096244"><ele>129.2</ele><time>2022-11-13T17:35:11.0000000+00:00</time></trkpt><trkpt lat="38.98991978" lon="-0.52098717"><ele>129.2</ele><time>2022-11-13T17:35:12.0000000+00:00</time></trkpt><trkpt lat="38.98991617" lon="-0.52102304"><ele>129.2</ele><time>2022-11-13T17:35:13.0000000+00:00</time></trkpt><trkpt lat="38.989901" lon="-0.52104944"><ele>129.2</ele><time>2022-11-13T17:35:14.0000000+00:00</time></trkpt><trkpt lat="38.98989924" lon="-0.52108389"><ele>129.2</ele><time>2022-11-13T17:35:15.0000000+00:00</time></trkpt><trkpt lat="38.98989128" lon="-0.5211134"><ele>129.2</ele><time>2022-11-13T17:35:16.0000000+00:00</time></trkpt><trkpt lat="38.98988315" lon="-0.5211362"><ele>129.2</ele><time>2022-11-13T17:35:17.0000000+00:00</time></trkpt><trkpt lat="38.9898912" lon="-0.52116922"><ele>129.2</ele><time>2022-11-13T17:35:18.0000000+00:00</time></trkpt><trkpt lat="38.98988374" lon="-0.52120225"><ele>129.2</ele><time>2022-11-13T17:35:19.0000000+00:00</time></trkpt><trkpt lat="38.9898912" lon="-0.52122496"><ele>129.2</ele><time>2022-11-13T17:35:20.0000000+00:00</time></trkpt><trkpt lat="38.98989195" lon="-0.5212434"><ele>129.2</ele><time>2022-11-13T17:35:21.0000000+00:00</time></trkpt><trkpt lat="38.98989178" lon="-0.52127022"><ele>129.2</ele><time>2022-11-13T17:35:22.0000000+00:00</time></trkpt><trkpt lat="38.98988374" lon="-0.52129663"><ele>129.2</ele><time>2022-11-13T17:35:23.0000000+00:00</time></trkpt><trkpt lat="38.98988667" lon="-0.52131683"><ele>129.2</ele><time>2022-11-13T17:35:24.0000000+00:00</time></trkpt><trkpt lat="38.98987636" lon="-0.52132655"><ele>129.2</ele><time>2022-11-13T17:35:25.0000000+00:00</time></trkpt><trkpt lat="38.989858" lon="-0.52133099"><ele>129.2</ele><time>2022-11-13T17:35:26.0000000+00:00</time></trkpt><trkpt lat="38.98983579" lon="-0.52132756"><ele>129.2</ele><time>2022-11-13T17:35:27.0000000+00:00</time></trkpt><trkpt lat="38.98982766" lon="-0.52133585"><ele>129.2</ele><time>2022-11-13T17:35:28.0000000+00:00</time></trkpt><trkpt lat="38.98982481" lon="-0.52135027"><ele>129.2</ele><time>2022-11-13T17:35:29.0000000+00:00</time></trkpt><trkpt lat="38.98983588" lon="-0.52136242"><ele>129.2</ele><time>2022-11-13T17:35:30.0000000+00:00</time></trkpt><trkpt lat="38.98984484" lon="-0.52137156"><ele>129.2</ele><time>2022-11-13T17:35:31.0000000+00:00</time></trkpt><trkpt lat="38.98984543" lon="-0.52137952"><ele>129.2</ele><time>2022-11-13T17:35:32.0000000+00:00</time></trkpt><trkpt lat="38.98983889" lon="-0.52138598"><ele>129.0</ele><time>2022-11-13T17:35:33.0000000+00:00</time></trkpt><trkpt lat="38.98983906" lon="-0.52139604"><ele>129.0</ele><time>2022-11-13T17:35:34.0000000+00:00</time></trkpt><trkpt lat="38.98984367" lon="-0.52141012"><ele>129.0</ele><time>2022-11-13T17:35:35.0000000+00:00</time></trkpt><trkpt lat="38.98983646" lon="-0.52142378"><ele>129.0</ele><time>2022-11-13T17:35:36.0000000+00:00</time></trkpt><trkpt lat="38.98982456" lon="-0.52143644"><ele>129.0</ele><time>2022-11-13T17:35:37.0000000+00:00</time></trkpt><trkpt lat="38.98982339" lon="-0.52144926"><ele>129.0</ele><time>2022-11-13T17:35:38.0000000+00:00</time></trkpt><trkpt lat="38.98981827" lon="-0.52146334"><ele>128.8</ele><time>2022-11-13T17:35:39.0000000+00:00</time></trkpt><trkpt lat="38.98981886" lon="-0.52147994"><ele>129.0</ele><time>2022-11-13T17:35:40.0000000+00:00</time></trkpt><trkpt lat="38.9898135" lon="-0.52149318"><ele>129.0</ele><time>2022-11-13T17:35:41.0000000+00:00</time></trkpt><trkpt lat="38.98981978" lon="-0.52150835"><ele>128.8</ele><time>2022-11-13T17:35:42.0000000+00:00</time></trkpt><trkpt lat="38.98982565" lon="-0.52152185"><ele>129.0</ele><time>2022-11-13T17:35:43.0000000+00:00</time></trkpt><trkpt lat="38.98982691" lon="-0.52152906"><ele>129.0</ele><time>2022-11-13T17:35:44.0000000+00:00</time></trkpt><trkpt lat="38.98982758" lon="-0.52153434"><ele>129.2</ele><time>2022-11-13T17:35:45.0000000+00:00</time></trkpt><trkpt lat="38.9898399" lon="-0.52155462"><ele>129.2</ele><time>2022-11-13T17:35:46.0000000+00:00</time></trkpt><trkpt lat="38.98982481" lon="-0.52156686"><ele>129.2</ele><time>2022-11-13T17:35:47.0000000+00:00</time></trkpt><trkpt lat="38.989814" lon="-0.52157859"><ele>129.2</ele><time>2022-11-13T17:35:48.0000000+00:00</time></trkpt><trkpt lat="38.98981827" lon="-0.52160458"><ele>129.2</ele><time>2022-11-13T17:35:49.0000000+00:00</time></trkpt><trkpt lat="38.98982037" lon="-0.52162469"><ele>129.2</ele><time>2022-11-13T17:35:50.0000000+00:00</time></trkpt><trkpt lat="38.98981266" lon="-0.5216376"><ele>129.4</ele><time>2022-11-13T17:35:51.0000000+00:00</time></trkpt><trkpt lat="38.98979707" lon="-0.52164766"><ele>129.6</ele><time>2022-11-13T17:35:52.0000000+00:00</time></trkpt><trkpt lat="38.98978659" lon="-0.52165872"><ele>129.6</ele><time>2022-11-13T17:35:53.0000000+00:00</time></trkpt><trkpt lat="38.98979447" lon="-0.52167608"><ele>129.6</ele><time>2022-11-13T17:35:54.0000000+00:00</time></trkpt><trkpt lat="38.98979673" lon="-0.52169468"><ele>129.6</ele><time>2022-11-13T17:35:55.0000000+00:00</time></trkpt><trkpt lat="38.98979061" lon="-0.52171262"><ele>129.8</ele><time>2022-11-13T17:35:56.0000000+00:00</time></trkpt><trkpt lat="38.98978366" lon="-0.52173332"><ele>129.8</ele><time>2022-11-13T17:35:57.0000000+00:00</time></trkpt><trkpt lat="38.98979003" lon="-0.52175059"><ele>129.8</ele><time>2022-11-13T17:35:58.0000000+00:00</time></trkpt><trkpt lat="38.98980218" lon="-0.52176794"><ele>129.8</ele><time>2022-11-13T17:35:59.0000000+00:00</time></trkpt><trkpt lat="38.98980319" lon="-0.52178521"><ele>129.8</ele><time>2022-11-13T17:36:00.0000000+00:00</time></trkpt><trkpt lat="38.98980394" lon="-0.52180641"><ele>129.8</ele><time>2022-11-13T17:36:01.0000000+00:00</time></trkpt><trkpt lat="38.98981291" lon="-0.52182687"><ele>129.8</ele><time>2022-11-13T17:36:02.0000000+00:00</time></trkpt><trkpt lat="38.98980612" lon="-0.52184195"><ele>129.8</ele><time>2022-11-13T17:36:03.0000000+00:00</time></trkpt><trkpt lat="38.98980025" lon="-0.52185671"><ele>129.8</ele><time>2022-11-13T17:36:04.0000000+00:00</time></trkpt><trkpt lat="38.98978835" lon="-0.52186852"><ele>129.8</ele><time>2022-11-13T17:36:05.0000000+00:00</time></trkpt><trkpt lat="38.98978081" lon="-0.52188026"><ele>129.8</ele><time>2022-11-13T17:36:06.0000000+00:00</time></trkpt><trkpt lat="38.98977209" lon="-0.52188931"><ele>129.8</ele><time>2022-11-13T17:36:07.0000000+00:00</time></trkpt><trkpt lat="38.98975222" lon="-0.52189585"><ele>129.8</ele><time>2022-11-13T17:36:08.0000000+00:00</time></trkpt><trkpt lat="38.98975214" lon="-0.52190188"><ele>129.8</ele><time>2022-11-13T17:36:09.0000000+00:00</time></trkpt><trkpt lat="38.98974057" lon="-0.52191127"><ele>129.6</ele><time>2022-11-13T17:36:10.0000000+00:00</time></trkpt><trkpt lat="38.98973571" lon="-0.52192393"><ele>129.4</ele><time>2022-11-13T17:36:11.0000000+00:00</time></trkpt><trkpt lat="38.98973026" lon="-0.52193617"><ele>129.4</ele><time>2022-11-13T17:36:12.0000000+00:00</time></trkpt><trkpt lat="38.98971903" lon="-0.52195452"><ele>129.4</ele><time>2022-11-13T17:36:13.0000000+00:00</time></trkpt><trkpt lat="38.98970612" lon="-0.52196936"><ele>129.4</ele><time>2022-11-13T17:36:14.0000000+00:00</time></trkpt><trkpt lat="38.98969405" lon="-0.52198646"><ele>129.4</ele><time>2022-11-13T17:36:15.0000000+00:00</time></trkpt><trkpt lat="38.98968835" lon="-0.52200791"><ele>129.4</ele><time>2022-11-13T17:36:16.0000000+00:00</time></trkpt><trkpt lat="38.98968986" lon="-0.52202904"><ele>129.4</ele><time>2022-11-13T17:36:17.0000000+00:00</time></trkpt><trkpt lat="38.98969112" lon="-0.52204463"><ele>129.6</ele><time>2022-11-13T17:36:18.0000000+00:00</time></trkpt><trkpt lat="38.98969539" lon="-0.52206785"><ele>129.6</ele><time>2022-11-13T17:36:19.0000000+00:00</time></trkpt><trkpt lat="38.9896995" lon="-0.5220862"><ele>129.6</ele><time>2022-11-13T17:36:20.0000000+00:00</time></trkpt><trkpt lat="38.98970512" lon="-0.5221064"><ele>129.6</ele><time>2022-11-13T17:36:21.0000000+00:00</time></trkpt><trkpt lat="38.98970612" lon="-0.52212359"><ele>129.6</ele><time>2022-11-13T17:36:22.0000000+00:00</time></trkpt><trkpt lat="38.98970101" lon="-0.52214144"><ele>129.6</ele><time>2022-11-13T17:36:23.0000000+00:00</time></trkpt><trkpt lat="38.98969707" lon="-0.52215954"><ele>129.6</ele><time>2022-11-13T17:36:24.0000000+00:00</time></trkpt><trkpt lat="38.98969187" lon="-0.52218989"><ele>129.6</ele><time>2022-11-13T17:36:25.0000000+00:00</time></trkpt><trkpt lat="38.98968576" lon="-0.52220648"><ele>129.6</ele><time>2022-11-13T17:36:26.0000000+00:00</time></trkpt><trkpt lat="38.98968525" lon="-0.52221612"><ele>129.6</ele><time>2022-11-13T17:36:27.0000000+00:00</time></trkpt><trkpt lat="38.98968425" lon="-0.52222811"><ele>129.6</ele><time>2022-11-13T17:36:28.0000000+00:00</time></trkpt><trkpt lat="38.98968165" lon="-0.5222297"><ele>129.6</ele><time>2022-11-13T17:36:29.0000000+00:00</time></trkpt><trkpt lat="38.98968584" lon="-0.5222416"><ele>129.6</ele><time>2022-11-13T17:36:30.0000000+00:00</time></trkpt><trkpt lat="38.98968207" lon="-0.52225778"><ele>129.6</ele><time>2022-11-13T17:36:31.0000000+00:00</time></trkpt><trkpt lat="38.98968425" lon="-0.52227756"><ele>129.4</ele><time>2022-11-13T17:36:32.0000000+00:00</time></trkpt><trkpt lat="38.98967955" lon="-0.52229114"><ele>129.4</ele><time>2022-11-13T17:36:33.0000000+00:00</time></trkpt><trkpt lat="38.98968324" lon="-0.52230665"><ele>129.4</ele><time>2022-11-13T17:36:34.0000000+00:00</time></trkpt><trkpt lat="38.98968374" lon="-0.52231737"><ele>129.4</ele><time>2022-11-13T17:36:35.0000000+00:00</time></trkpt><trkpt lat="38.98968182" lon="-0.52232584"><ele>129.4</ele><time>2022-11-13T17:36:36.0000000+00:00</time></trkpt><trkpt lat="38.98966405" lon="-0.52233473"><ele>129.4</ele><time>2022-11-13T17:36:37.0000000+00:00</time></trkpt><trkpt lat="38.98967427" lon="-0.52235241"><ele>129.4</ele><time>2022-11-13T17:36:38.0000000+00:00</time></trkpt><trkpt lat="38.98968768" lon="-0.52237152"><ele>129.4</ele><time>2022-11-13T17:36:39.0000000+00:00</time></trkpt><trkpt lat="38.98969087" lon="-0.52238451"><ele>129.4</ele><time>2022-11-13T17:36:40.0000000+00:00</time></trkpt><trkpt lat="38.9896928" lon="-0.52239885"><ele>129.4</ele><time>2022-11-13T17:36:41.0000000+00:00</time></trkpt><trkpt lat="38.98968961" lon="-0.52240379"><ele>129.4</ele><time>2022-11-13T17:36:42.0000000+00:00</time></trkpt><trkpt lat="38.98968651" lon="-0.52240798"><ele>129.4</ele><time>2022-11-13T17:36:43.0000000+00:00</time></trkpt><trkpt lat="38.98967947" lon="-0.52241243"><ele>129.4</ele><time>2022-11-13T17:36:44.0000000+00:00</time></trkpt><trkpt lat="38.98966279" lon="-0.52242232"><ele>129.4</ele><time>2022-11-13T17:36:45.0000000+00:00</time></trkpt><trkpt lat="38.98965483" lon="-0.52243162"><ele>129.4</ele><time>2022-11-13T17:36:46.0000000+00:00</time></trkpt><trkpt lat="38.989641" lon="-0.52244118"><ele>129.4</ele><time>2022-11-13T17:36:47.0000000+00:00</time></trkpt><trkpt lat="38.98963479" lon="-0.52244897"><ele>129.4</ele><time>2022-11-13T17:36:48.0000000+00:00</time></trkpt><trkpt lat="38.98963303" lon="-0.52245995"><ele>129.4</ele><time>2022-11-13T17:36:49.0000000+00:00</time></trkpt><trkpt lat="38.98963387" lon="-0.52247202"><ele>129.4</ele><time>2022-11-13T17:36:50.0000000+00:00</time></trkpt><trkpt lat="38.98963605" lon="-0.52248954"><ele>129.4</ele><time>2022-11-13T17:36:51.0000000+00:00</time></trkpt><trkpt lat="38.98963681" lon="-0.52250228"><ele>129.6</ele><time>2022-11-13T17:36:52.0000000+00:00</time></trkpt><trkpt lat="38.98963672" lon="-0.52251569"><ele>129.6</ele><time>2022-11-13T17:36:53.0000000+00:00</time></trkpt><trkpt lat="38.98963077" lon="-0.52252424"><ele>129.6</ele><time>2022-11-13T17:36:54.0000000+00:00</time></trkpt><trkpt lat="38.98963044" lon="-0.52253489"><ele>129.6</ele><time>2022-11-13T17:36:55.0000000+00:00</time></trkpt><trkpt lat="38.98962189" lon="-0.52254972"><ele>129.6</ele><time>2022-11-13T17:36:56.0000000+00:00</time></trkpt><trkpt lat="38.98963823" lon="-0.52256045"><ele>129.6</ele><time>2022-11-13T17:36:57.0000000+00:00</time></trkpt><trkpt lat="38.98964443" lon="-0.52257503"><ele>129.6</ele><time>2022-11-13T17:36:58.0000000+00:00</time></trkpt><trkpt lat="38.98963806" lon="-0.52258836"><ele>129.8</ele><time>2022-11-13T17:36:59.0000000+00:00</time></trkpt><trkpt lat="38.98965399" lon="-0.5226016"><ele>129.8</ele><time>2022-11-13T17:37:00.0000000+00:00</time></trkpt><trkpt lat="38.98965692" lon="-0.52261367"><ele>129.8</ele><time>2022-11-13T17:37:01.0000000+00:00</time></trkpt><trkpt lat="38.98967578" lon="-0.52262792"><ele>129.8</ele><time>2022-11-13T17:37:02.0000000+00:00</time></trkpt><trkpt lat="38.98968341" lon="-0.52264276"><ele>129.8</ele><time>2022-11-13T17:37:03.0000000+00:00</time></trkpt><trkpt lat="38.98968919" lon="-0.52265642"><ele>129.8</ele><time>2022-11-13T17:37:04.0000000+00:00</time></trkpt><trkpt lat="38.98969799" lon="-0.5226669"><ele>129.8</ele><time>2022-11-13T17:37:05.0000000+00:00</time></trkpt><trkpt lat="38.98969363" lon="-0.52268693"><ele>129.8</ele><time>2022-11-13T17:37:06.0000000+00:00</time></trkpt><trkpt lat="38.9896933" lon="-0.52271132"><ele>129.8</ele><time>2022-11-13T17:37:07.0000000+00:00</time></trkpt><trkpt lat="38.9896964" lon="-0.52273069"><ele>129.8</ele><time>2022-11-13T17:37:08.0000000+00:00</time></trkpt><trkpt lat="38.98969539" lon="-0.52275315"><ele>129.8</ele><time>2022-11-13T17:37:09.0000000+00:00</time></trkpt><trkpt lat="38.98969523" lon="-0.52276924"><ele>129.8</ele><time>2022-11-13T17:37:10.0000000+00:00</time></trkpt><trkpt lat="38.98969824" lon="-0.5227876"><ele>129.8</ele><time>2022-11-13T17:37:11.0000000+00:00</time></trkpt><trkpt lat="38.98970068" lon="-0.5228047"><ele>129.8</ele><time>2022-11-13T17:37:12.0000000+00:00</time></trkpt><trkpt lat="38.98970436" lon="-0.52282004"><ele>129.8</ele><time>2022-11-13T17:37:13.0000000+00:00</time></trkpt><trkpt lat="38.98970629" lon="-0.52283948"><ele>129.8</ele><time>2022-11-13T17:37:14.0000000+00:00</time></trkpt><trkpt lat="38.98971124" lon="-0.52286245"><ele>129.8</ele><time>2022-11-13T17:37:15.0000000+00:00</time></trkpt><trkpt lat="38.98971015" lon="-0.5228829"><ele>129.8</ele><time>2022-11-13T17:37:16.0000000+00:00</time></trkpt><trkpt lat="38.98970654" lon="-0.52289782"><ele>129.8</ele><time>2022-11-13T17:37:17.0000000+00:00</time></trkpt><trkpt lat="38.98970939" lon="-0.52290947"><ele>129.8</ele><time>2022-11-13T17:37:18.0000000+00:00</time></trkpt><trkpt lat="38.98971853" lon="-0.52292473"><ele>129.8</ele><time>2022-11-13T17:37:19.0000000+00:00</time></trkpt><trkpt lat="38.98972389" lon="-0.52294258"><ele>129.8</ele><time>2022-11-13T17:37:20.0000000+00:00</time></trkpt><trkpt lat="38.98973219" lon="-0.52295105"><ele>129.8</ele><time>2022-11-13T17:37:21.0000000+00:00</time></trkpt><trkpt lat="38.98973999" lon="-0.52295616"><ele>129.8</ele><time>2022-11-13T17:37:22.0000000+00:00</time></trkpt><trkpt lat="38.98974854" lon="-0.52296689"><ele>130.0</ele><time>2022-11-13T17:37:23.0000000+00:00</time></trkpt><trkpt lat="38.98975507" lon="-0.52297443"><ele>130.0</ele><time>2022-11-13T17:37:24.0000000+00:00</time></trkpt><trkpt lat="38.98976119" lon="-0.52298684"><ele>130.0</ele><time>2022-11-13T17:37:25.0000000+00:00</time></trkpt><trkpt lat="38.9897648" lon="-0.52300125"><ele>130.0</ele><time>2022-11-13T17:37:26.0000000+00:00</time></trkpt><trkpt lat="38.9897731" lon="-0.52301073"><ele>130.0</ele><time>2022-11-13T17:37:27.0000000+00:00</time></trkpt><trkpt lat="38.98978047" lon="-0.52302187"><ele>130.0</ele><time>2022-11-13T17:37:28.0000000+00:00</time></trkpt><trkpt lat="38.98977896" lon="-0.52303428"><ele>130.0</ele><time>2022-11-13T17:37:29.0000000+00:00</time></trkpt><trkpt lat="38.98977544" lon="-0.52304551"><ele>130.0</ele><time>2022-11-13T17:37:30.0000000+00:00</time></trkpt><trkpt lat="38.98977016" lon="-0.52305984"><ele>129.8</ele><time>2022-11-13T17:37:31.0000000+00:00</time></trkpt><trkpt lat="38.9897653" lon="-0.52307367"><ele>129.6</ele><time>2022-11-13T17:37:32.0000000+00:00</time></trkpt><trkpt lat="38.989757" lon="-0.52308541"><ele>129.6</ele><time>2022-11-13T17:37:33.0000000+00:00</time></trkpt><trkpt lat="38.98974778" lon="-0.52309798"><ele>129.6</ele><time>2022-11-13T17:37:34.0000000+00:00</time></trkpt><trkpt lat="38.98973504" lon="-0.52310309"><ele>129.6</ele><time>2022-11-13T17:37:35.0000000+00:00</time></trkpt><trkpt lat="38.98972984" lon="-0.52310762"><ele>129.6</ele><time>2022-11-13T17:37:36.0000000+00:00</time></trkpt><trkpt lat="38.98971912" lon="-0.52311592"><ele>129.6</ele><time>2022-11-13T17:37:37.0000000+00:00</time></trkpt><trkpt lat="38.98970721" lon="-0.5231326"><ele>129.6</ele><time>2022-11-13T17:37:38.0000000+00:00</time></trkpt><trkpt lat="38.98970495" lon="-0.52315154"><ele>129.6</ele><time>2022-11-13T17:37:39.0000000+00:00</time></trkpt><trkpt lat="38.98969674" lon="-0.52316839"><ele>129.8</ele><time>2022-11-13T17:37:40.0000000+00:00</time></trkpt><trkpt lat="38.98968785" lon="-0.52319001"><ele>129.8</ele><time>2022-11-13T17:37:41.0000000+00:00</time></trkpt><trkpt lat="38.98967318" lon="-0.52320267"><ele>129.8</ele><time>2022-11-13T17:37:42.0000000+00:00</time></trkpt><trkpt lat="38.98965407" lon="-0.52322052"><ele>129.8</ele><time>2022-11-13T17:37:43.0000000+00:00</time></trkpt><trkpt lat="38.98964267" lon="-0.52324039"><ele>129.8</ele><time>2022-11-13T17:37:44.0000000+00:00</time></trkpt><trkpt lat="38.9896358" lon="-0.52325531"><ele>130.0</ele><time>2022-11-13T17:37:45.0000000+00:00</time></trkpt><trkpt lat="38.98964242" lon="-0.52326646"><ele>130.0</ele><time>2022-11-13T17:37:46.0000000+00:00</time></trkpt><trkpt lat="38.98964292" lon="-0.52328297"><ele>130.0</ele><time>2022-11-13T17:37:47.0000000+00:00</time></trkpt><trkpt lat="38.98964192" lon="-0.52329504"><ele>130.0</ele><time>2022-11-13T17:37:48.0000000+00:00</time></trkpt><trkpt lat="38.98964058" lon="-0.52330627"><ele>130.0</ele><time>2022-11-13T17:37:49.0000000+00:00</time></trkpt><trkpt lat="38.98963873" lon="-0.52332203"><ele>130.0</ele><time>2022-11-13T17:37:50.0000000+00:00</time></trkpt><trkpt lat="38.98963488" lon="-0.52333888"><ele>130.0</ele><time>2022-11-13T17:37:51.0000000+00:00</time></trkpt><trkpt lat="38.98963505" lon="-0.52334609"><ele>130.0</ele><time>2022-11-13T17:37:52.0000000+00:00</time></trkpt><trkpt lat="38.98964209" lon="-0.52334684"><ele>130.0</ele><time>2022-11-13T17:37:53.0000000+00:00</time></trkpt><trkpt lat="38.98965684" lon="-0.52335816"><ele>130.0</ele><time>2022-11-13T17:37:54.0000000+00:00</time></trkpt><trkpt lat="38.98966019" lon="-0.52338146"><ele>130.0</ele><time>2022-11-13T17:37:55.0000000+00:00</time></trkpt><trkpt lat="38.98966203" lon="-0.52338121"><ele>130.0</ele><time>2022-11-13T17:37:56.0000000+00:00</time></trkpt><trkpt lat="38.98966648" lon="-0.52338724"><ele>130.0</ele><time>2022-11-13T17:37:57.0000000+00:00</time></trkpt><trkpt lat="38.98966882" lon="-0.52340794"><ele>130.0</ele><time>2022-11-13T17:37:58.0000000+00:00</time></trkpt><trkpt lat="38.98967343" lon="-0.52342672"><ele>130.0</ele><time>2022-11-13T17:37:59.0000000+00:00</time></trkpt><trkpt lat="38.98967578" lon="-0.52344206"><ele>130.0</ele><time>2022-11-13T17:38:00.0000000+00:00</time></trkpt><trkpt lat="38.98968358" lon="-0.52346301"><ele>130.0</ele><time>2022-11-13T17:38:01.0000000+00:00</time></trkpt><trkpt lat="38.98971182" lon="-0.52348782"><ele>129.8</ele><time>2022-11-13T17:38:02.0000000+00:00</time></trkpt><trkpt lat="38.98972599" lon="-0.52350048"><ele>129.8</ele><time>2022-11-13T17:38:03.0000000+00:00</time></trkpt><trkpt lat="38.98972917" lon="-0.52350442"><ele>129.8</ele><time>2022-11-13T17:38:04.0000000+00:00</time></trkpt><trkpt lat="38.98973948" lon="-0.52350937"><ele>129.8</ele><time>2022-11-13T17:38:05.0000000+00:00</time></trkpt><trkpt lat="38.98975424" lon="-0.52351574"><ele>129.6</ele><time>2022-11-13T17:38:06.0000000+00:00</time></trkpt><trkpt lat="38.98976991" lon="-0.52351515"><ele>129.6</ele><time>2022-11-13T17:38:07.0000000+00:00</time></trkpt><trkpt lat="38.98979506" lon="-0.52351196"><ele>129.6</ele><time>2022-11-13T17:38:08.0000000+00:00</time></trkpt><trkpt lat="38.98981475" lon="-0.52349956"><ele>129.4</ele><time>2022-11-13T17:38:09.0000000+00:00</time></trkpt><trkpt lat="38.98981107" lon="-0.52346536"><ele>129.4</ele><time>2022-11-13T17:38:10.0000000+00:00</time></trkpt><trkpt lat="38.98980964" lon="-0.5234496"><ele>129.2</ele><time>2022-11-13T17:38:11.0000000+00:00</time></trkpt><trkpt lat="38.98981769" lon="-0.52343259"><ele>129.2</ele><time>2022-11-13T17:38:12.0000000+00:00</time></trkpt><trkpt lat="38.98983713" lon="-0.52341775"><ele>129.2</ele><time>2022-11-13T17:38:13.0000000+00:00</time></trkpt><trkpt lat="38.98985205" lon="-0.52341557"><ele>129.2</ele><time>2022-11-13T17:38:14.0000000+00:00</time></trkpt><trkpt lat="38.98987611" lon="-0.52342605"><ele>129.2</ele><time>2022-11-13T17:38:15.0000000+00:00</time></trkpt><trkpt lat="38.98989212" lon="-0.52342848"><ele>129.2</ele><time>2022-11-13T17:38:16.0000000+00:00</time></trkpt><trkpt lat="38.98990293" lon="-0.52342974"><ele>129.0</ele><time>2022-11-13T17:38:17.0000000+00:00</time></trkpt><trkpt lat="38.98990377" lon="-0.52342697"><ele>129.0</ele><time>2022-11-13T17:38:18.0000000+00:00</time></trkpt><trkpt lat="38.98991978" lon="-0.52342722"><ele>129.0</ele><time>2022-11-13T17:38:19.0000000+00:00</time></trkpt><trkpt lat="38.98992313" lon="-0.52342546"><ele>129.0</ele><time>2022-11-13T17:38:20.0000000+00:00</time></trkpt><trkpt lat="38.98993763" lon="-0.52342203"><ele>129.0</ele><time>2022-11-13T17:38:21.0000000+00:00</time></trkpt><trkpt lat="38.98995264" lon="-0.52341876"><ele>129.0</ele><time>2022-11-13T17:38:22.0000000+00:00</time></trkpt><trkpt lat="38.98996378" lon="-0.52341306"><ele>128.8</ele><time>2022-11-13T17:38:23.0000000+00:00</time></trkpt><trkpt lat="38.98997183" lon="-0.52341037"><ele>128.8</ele><time>2022-11-13T17:38:24.0000000+00:00</time></trkpt><trkpt lat="38.98999002" lon="-0.52341675"><ele>128.8</ele><time>2022-11-13T17:38:25.0000000+00:00</time></trkpt><trkpt lat="38.99000016" lon="-0.52341498"><ele>128.6</ele><time>2022-11-13T17:38:26.0000000+00:00</time></trkpt><trkpt lat="38.99001148" lon="-0.52342052"><ele>128.4</ele><time>2022-11-13T17:38:27.0000000+00:00</time></trkpt><trkpt lat="38.9900295" lon="-0.52343678"><ele>128.4</ele><time>2022-11-13T17:38:28.0000000+00:00</time></trkpt><trkpt lat="38.99004048" lon="-0.52344273"><ele>128.4</ele><time>2022-11-13T17:38:29.0000000+00:00</time></trkpt><trkpt lat="38.99005523" lon="-0.52344751"><ele>128.4</ele><time>2022-11-13T17:38:30.0000000+00:00</time></trkpt><trkpt lat="38.99005699" lon="-0.52344424"><ele>128.4</ele><time>2022-11-13T17:38:31.0000000+00:00</time></trkpt><trkpt lat="38.99006152" lon="-0.52344156"><ele>128.4</ele><time>2022-11-13T17:38:32.0000000+00:00</time></trkpt><trkpt lat="38.99006705" lon="-0.52344013"><ele>128.4</ele><time>2022-11-13T17:38:33.0000000+00:00</time></trkpt><trkpt lat="38.99007409" lon="-0.52344415"><ele>128.2</ele><time>2022-11-13T17:38:34.0000000+00:00</time></trkpt><trkpt lat="38.99008054" lon="-0.52344935"><ele>128.2</ele><time>2022-11-13T17:38:35.0000000+00:00</time></trkpt><trkpt lat="38.99008163" lon="-0.52345958"><ele>128.2</ele><time>2022-11-13T17:38:36.0000000+00:00</time></trkpt><trkpt lat="38.99008046" lon="-0.52346712"><ele>128.2</ele><time>2022-11-13T17:38:37.0000000+00:00</time></trkpt><trkpt lat="38.99007811" lon="-0.52347751"><ele>128.2</ele><time>2022-11-13T17:38:38.0000000+00:00</time></trkpt><trkpt lat="38.99008172" lon="-0.52348087"><ele>128.0</ele><time>2022-11-13T17:38:39.0000000+00:00</time></trkpt><trkpt lat="38.99008557" lon="-0.52348875"><ele>128.0</ele><time>2022-11-13T17:38:40.0000000+00:00</time></trkpt><trkpt lat="38.9900927" lon="-0.52349813"><ele>128.0</ele><time>2022-11-13T17:38:41.0000000+00:00</time></trkpt><trkpt lat="38.99009781" lon="-0.52350417"><ele>127.8</ele><time>2022-11-13T17:38:42.0000000+00:00</time></trkpt><trkpt lat="38.99010158" lon="-0.52351071"><ele>127.8</ele><time>2022-11-13T17:38:43.0000000+00:00</time></trkpt><trkpt lat="38.99010385" lon="-0.52352152"><ele>127.8</ele><time>2022-11-13T17:38:44.0000000+00:00</time></trkpt><trkpt lat="38.99010334" lon="-0.5235211"><ele>127.8</ele><time>2022-11-13T17:38:45.0000000+00:00</time></trkpt><trkpt lat="38.99010795" lon="-0.52351456"><ele>127.8</ele><time>2022-11-13T17:38:46.0000000+00:00</time></trkpt><trkpt lat="38.9901139" lon="-0.52351557"><ele>127.8</ele><time>2022-11-13T17:38:47.0000000+00:00</time></trkpt><trkpt lat="38.99011726" lon="-0.52351574"><ele>127.6</ele><time>2022-11-13T17:38:48.0000000+00:00</time></trkpt><trkpt lat="38.99013109" lon="-0.52352512"><ele>127.6</ele><time>2022-11-13T17:38:49.0000000+00:00</time></trkpt><trkpt lat="38.99015095" lon="-0.52353325"><ele>127.4</ele><time>2022-11-13T17:38:50.0000000+00:00</time></trkpt><trkpt lat="38.99015699" lon="-0.52353543"><ele>127.4</ele><time>2022-11-13T17:38:51.0000000+00:00</time></trkpt><trkpt lat="38.99016637" lon="-0.52353149"><ele>127.4</ele><time>2022-11-13T17:38:52.0000000+00:00</time></trkpt><trkpt lat="38.99016822" lon="-0.52355127"><ele>127.4</ele><time>2022-11-13T17:38:53.0000000+00:00</time></trkpt><trkpt lat="38.99017434" lon="-0.52355463"><ele>127.2</ele><time>2022-11-13T17:38:54.0000000+00:00</time></trkpt><trkpt lat="38.9901828" lon="-0.52356108"><ele>127.2</ele><time>2022-11-13T17:38:55.0000000+00:00</time></trkpt><trkpt lat="38.99019588" lon="-0.52352554"><ele>127.2</ele><time>2022-11-13T17:38:56.0000000+00:00</time></trkpt><trkpt lat="38.99019479" lon="-0.52353585"><ele>127.2</ele><time>2022-11-13T17:38:57.0000000+00:00</time></trkpt><trkpt lat="38.99020476" lon="-0.5235377"><ele>127.0</ele><time>2022-11-13T17:38:58.0000000+00:00</time></trkpt><trkpt lat="38.99021164" lon="-0.52355832"><ele>127.0</ele><time>2022-11-13T17:38:59.0000000+00:00</time></trkpt><trkpt lat="38.99022505" lon="-0.52356066"><ele>127.0</ele><time>2022-11-13T17:39:00.0000000+00:00</time></trkpt><trkpt lat="38.99022589" lon="-0.52358212"><ele>127.0</ele><time>2022-11-13T17:39:01.0000000+00:00</time></trkpt><trkpt lat="38.99023351" lon="-0.5235967"><ele>127.0</ele><time>2022-11-13T17:39:02.0000000+00:00</time></trkpt><trkpt lat="38.99024257" lon="-0.52360626"><ele>126.8</ele><time>2022-11-13T17:39:03.0000000+00:00</time></trkpt><trkpt lat="38.99025112" lon="-0.52360819"><ele>126.8</ele><time>2022-11-13T17:39:04.0000000+00:00</time></trkpt><trkpt lat="38.99026847" lon="-0.52361833"><ele>126.6</ele><time>2022-11-13T17:39:05.0000000+00:00</time></trkpt><trkpt lat="38.99028028" lon="-0.52362889"><ele>126.6</ele><time>2022-11-13T17:39:06.0000000+00:00</time></trkpt><trkpt lat="38.99029395" lon="-0.52363434"><ele>126.6</ele><time>2022-11-13T17:39:07.0000000+00:00</time></trkpt><trkpt lat="38.99030577" lon="-0.52363836"><ele>126.6</ele><time>2022-11-13T17:39:08.0000000+00:00</time></trkpt><trkpt lat="38.99031909" lon="-0.52365068"><ele>126.6</ele><time>2022-11-13T17:39:09.0000000+00:00</time></trkpt><trkpt lat="38.99033502" lon="-0.52367021"><ele>126.4</ele><time>2022-11-13T17:39:10.0000000+00:00</time></trkpt><trkpt lat="38.99036192" lon="-0.52368723"><ele>126.4</ele><time>2022-11-13T17:39:11.0000000+00:00</time></trkpt><trkpt lat="38.99038229" lon="-0.52370399"><ele>126.4</ele><time>2022-11-13T17:39:12.0000000+00:00</time></trkpt><trkpt lat="38.99040341" lon="-0.5237081"><ele>126.4</ele><time>2022-11-13T17:39:13.0000000+00:00</time></trkpt><trkpt lat="38.99042521" lon="-0.52372503"><ele>126.2</ele><time>2022-11-13T17:39:14.0000000+00:00</time></trkpt><trkpt lat="38.99044734" lon="-0.52373987"><ele>126.2</ele><time>2022-11-13T17:39:15.0000000+00:00</time></trkpt><trkpt lat="38.99046477" lon="-0.52373903"><ele>126.2</ele><time>2022-11-13T17:39:16.0000000+00:00</time></trkpt><trkpt lat="38.99048505" lon="-0.52374372"><ele>126.2</ele><time>2022-11-13T17:39:17.0000000+00:00</time></trkpt><trkpt lat="38.99050282" lon="-0.52374381"><ele>126.0</ele><time>2022-11-13T17:39:18.0000000+00:00</time></trkpt><trkpt lat="38.99052311" lon="-0.52376644"><ele>126.0</ele><time>2022-11-13T17:39:19.0000000+00:00</time></trkpt><trkpt lat="38.9905335" lon="-0.52377088"><ele>126.0</ele><time>2022-11-13T17:39:20.0000000+00:00</time></trkpt><trkpt lat="38.99055798" lon="-0.523777"><ele>125.8</ele><time>2022-11-13T17:39:21.0000000+00:00</time></trkpt><trkpt lat="38.99058086" lon="-0.5237858"><ele>125.8</ele><time>2022-11-13T17:39:22.0000000+00:00</time></trkpt><trkpt lat="38.99059335" lon="-0.52379075"><ele>125.8</ele><time>2022-11-13T17:39:23.0000000+00:00</time></trkpt><trkpt lat="38.99060802" lon="-0.52377658"><ele>125.8</ele><time>2022-11-13T17:39:24.0000000+00:00</time></trkpt><trkpt lat="38.99062528" lon="-0.52377323"><ele>125.8</ele><time>2022-11-13T17:39:25.0000000+00:00</time></trkpt><trkpt lat="38.99064289" lon="-0.5237749"><ele>125.8</ele><time>2022-11-13T17:39:26.0000000+00:00</time></trkpt><trkpt lat="38.99065152" lon="-0.5237547"><ele>125.6</ele><time>2022-11-13T17:39:27.0000000+00:00</time></trkpt><trkpt lat="38.99066627" lon="-0.52373626"><ele>125.6</ele><time>2022-11-13T17:39:28.0000000+00:00</time></trkpt><trkpt lat="38.99067759" lon="-0.52372176"><ele>125.6</ele><time>2022-11-13T17:39:29.0000000+00:00</time></trkpt><trkpt lat="38.99068924" lon="-0.52372277"><ele>125.4</ele><time>2022-11-13T17:39:30.0000000+00:00</time></trkpt><trkpt lat="38.99069762" lon="-0.52371305"><ele>125.6</ele><time>2022-11-13T17:39:31.0000000+00:00</time></trkpt><trkpt lat="38.99070541" lon="-0.52371422"><ele>125.4</ele><time>2022-11-13T17:39:32.0000000+00:00</time></trkpt><trkpt lat="38.99072201" lon="-0.52373903"><ele>125.4</ele><time>2022-11-13T17:39:33.0000000+00:00</time></trkpt><trkpt lat="38.99073383" lon="-0.52375672"><ele>125.4</ele><time>2022-11-13T17:39:34.0000000+00:00</time></trkpt><trkpt lat="38.99074699" lon="-0.52377247"><ele>125.2</ele><time>2022-11-13T17:39:35.0000000+00:00</time></trkpt><trkpt lat="38.99077884" lon="-0.52377801"><ele>125.2</ele><time>2022-11-13T17:39:36.0000000+00:00</time></trkpt><trkpt lat="38.9908044" lon="-0.52378312"><ele>125.2</ele><time>2022-11-13T17:39:37.0000000+00:00</time></trkpt><trkpt lat="38.99083098" lon="-0.52378781"><ele>125.2</ele><time>2022-11-13T17:39:38.0000000+00:00</time></trkpt><trkpt lat="38.99085101" lon="-0.52378337"><ele>125.2</ele><time>2022-11-13T17:39:39.0000000+00:00</time></trkpt><trkpt lat="38.9908645" lon="-0.52378681"><ele>125.2</ele><time>2022-11-13T17:39:40.0000000+00:00</time></trkpt><trkpt lat="38.99086769" lon="-0.52379284"><ele>125.0</ele><time>2022-11-13T17:39:41.0000000+00:00</time></trkpt><trkpt lat="38.99087012" lon="-0.52378119"><ele>125.0</ele><time>2022-11-13T17:39:42.0000000+00:00</time></trkpt><trkpt lat="38.99087708" lon="-0.52377658"><ele>124.8</ele><time>2022-11-13T17:39:43.0000000+00:00</time></trkpt><trkpt lat="38.99088353" lon="-0.52377415"><ele>124.8</ele><time>2022-11-13T17:39:44.0000000+00:00</time></trkpt><trkpt lat="38.99089267" lon="-0.52377557"><ele>124.8</ele><time>2022-11-13T17:39:45.0000000+00:00</time></trkpt><trkpt lat="38.9909039" lon="-0.52377876"><ele>124.8</ele><time>2022-11-13T17:39:46.0000000+00:00</time></trkpt><trkpt lat="38.99092016" lon="-0.52377909"><ele>124.8</ele><time>2022-11-13T17:39:47.0000000+00:00</time></trkpt><trkpt lat="38.99093877" lon="-0.52378312"><ele>124.8</ele><time>2022-11-13T17:39:48.0000000+00:00</time></trkpt><trkpt lat="38.99096819" lon="-0.52380466"><ele>124.8</ele><time>2022-11-13T17:39:49.0000000+00:00</time></trkpt><trkpt lat="38.99097724" lon="-0.52381732"><ele>124.6</ele><time>2022-11-13T17:39:50.0000000+00:00</time></trkpt><trkpt lat="38.99098143" lon="-0.52382712"><ele>124.6</ele><time>2022-11-13T17:39:51.0000000+00:00</time></trkpt><trkpt lat="38.99098294" lon="-0.52383886"><ele>124.6</ele><time>2022-11-13T17:39:52.0000000+00:00</time></trkpt><trkpt lat="38.99098394" lon="-0.52383467"><ele>124.4</ele><time>2022-11-13T17:39:53.0000000+00:00</time></trkpt><trkpt lat="38.99098897" lon="-0.52382042"><ele>124.4</ele><time>2022-11-13T17:39:54.0000000+00:00</time></trkpt><trkpt lat="38.99100808" lon="-0.52384288"><ele>124.4</ele><time>2022-11-13T17:39:55.0000000+00:00</time></trkpt><trkpt lat="38.99102728" lon="-0.52385856"><ele>124.4</ele><time>2022-11-13T17:39:56.0000000+00:00</time></trkpt><trkpt lat="38.99105025" lon="-0.52387524"><ele>124.4</ele><time>2022-11-13T17:39:57.0000000+00:00</time></trkpt><trkpt lat="38.99106466" lon="-0.52388378"><ele>124.4</ele><time>2022-11-13T17:39:58.0000000+00:00</time></trkpt><trkpt lat="38.99107749" lon="-0.52388764"><ele>124.4</ele><time>2022-11-13T17:39:59.0000000+00:00</time></trkpt><trkpt lat="38.99109006" lon="-0.52389711"><ele>124.2</ele><time>2022-11-13T17:40:00.0000000+00:00</time></trkpt><trkpt lat="38.99110406" lon="-0.5238982"><ele>124.2</ele><time>2022-11-13T17:40:01.0000000+00:00</time></trkpt><trkpt lat="38.99112602" lon="-0.52388839"><ele>124.0</ele><time>2022-11-13T17:40:02.0000000+00:00</time></trkpt><trkpt lat="38.99114664" lon="-0.5238832"><ele>124.0</ele><time>2022-11-13T17:40:03.0000000+00:00</time></trkpt><trkpt lat="38.99117706" lon="-0.52387113"><ele>124.0</ele><time>2022-11-13T17:40:04.0000000+00:00</time></trkpt><trkpt lat="38.99119542" lon="-0.52385906"><ele>124.0</ele><time>2022-11-13T17:40:05.0000000+00:00</time></trkpt><trkpt lat="38.99120975" lon="-0.52384992"><ele>124.0</ele><time>2022-11-13T17:40:06.0000000+00:00</time></trkpt><trkpt lat="38.99122451" lon="-0.52384447"><ele>124.0</ele><time>2022-11-13T17:40:07.0000000+00:00</time></trkpt><trkpt lat="38.99123129" lon="-0.52383877"><ele>123.8</ele><time>2022-11-13T17:40:08.0000000+00:00</time></trkpt><trkpt lat="38.99123507" lon="-0.52383618"><ele>123.8</ele><time>2022-11-13T17:40:09.0000000+00:00</time></trkpt><trkpt lat="38.99124253" lon="-0.52383567"><ele>123.8</ele><time>2022-11-13T17:40:10.0000000+00:00</time></trkpt><trkpt lat="38.99125175" lon="-0.52383534"><ele>123.6</ele><time>2022-11-13T17:40:11.0000000+00:00</time></trkpt><trkpt lat="38.99127522" lon="-0.52383098"><ele>123.6</ele><time>2022-11-13T17:40:12.0000000+00:00</time></trkpt><trkpt lat="38.99129944" lon="-0.52383157"><ele>123.6</ele><time>2022-11-13T17:40:13.0000000+00:00</time></trkpt><trkpt lat="38.99131386" lon="-0.52383618"><ele>123.6</ele><time>2022-11-13T17:40:14.0000000+00:00</time></trkpt><trkpt lat="38.99133682" lon="-0.52383894"><ele>123.6</ele><time>2022-11-13T17:40:15.0000000+00:00</time></trkpt><trkpt lat="38.99135074" lon="-0.52384003"><ele>123.4</ele><time>2022-11-13T17:40:16.0000000+00:00</time></trkpt><trkpt lat="38.99137379" lon="-0.52384565"><ele>123.4</ele><time>2022-11-13T17:40:17.0000000+00:00</time></trkpt><trkpt lat="38.99138494" lon="-0.52385679"><ele>123.4</ele><time>2022-11-13T17:40:18.0000000+00:00</time></trkpt><trkpt lat="38.99139558" lon="-0.52386593"><ele>123.4</ele><time>2022-11-13T17:40:19.0000000+00:00</time></trkpt><trkpt lat="38.99141318" lon="-0.52387482"><ele>123.2</ele><time>2022-11-13T17:40:20.0000000+00:00</time></trkpt><trkpt lat="38.99142735" lon="-0.52387901"><ele>123.2</ele><time>2022-11-13T17:40:21.0000000+00:00</time></trkpt><trkpt lat="38.99144344" lon="-0.52388345"><ele>123.2</ele><time>2022-11-13T17:40:22.0000000+00:00</time></trkpt><trkpt lat="38.99146297" lon="-0.52388823"><ele>123.2</ele><time>2022-11-13T17:40:23.0000000+00:00</time></trkpt><trkpt lat="38.99148535" lon="-0.52389585"><ele>123.0</ele><time>2022-11-13T17:40:24.0000000+00:00</time></trkpt><trkpt lat="38.99148535" lon="-0.52389761"><ele>123.2</ele><time>2022-11-13T17:40:25.0000000+00:00</time></trkpt><trkpt lat="38.99149071" lon="-0.52390767"><ele>123.2</ele><time>2022-11-13T17:40:26.0000000+00:00</time></trkpt><trkpt lat="38.99149382" lon="-0.52391597"><ele>123.2</ele><time>2022-11-13T17:40:27.0000000+00:00</time></trkpt><trkpt lat="38.99149591" lon="-0.5239215"><ele>123.2</ele><time>2022-11-13T17:40:28.0000000+00:00</time></trkpt><trkpt lat="38.99149298" lon="-0.52393005"><ele>123.0</ele><time>2022-11-13T17:40:29.0000000+00:00</time></trkpt><trkpt lat="38.99149558" lon="-0.52393877"><ele>123.0</ele><time>2022-11-13T17:40:30.0000000+00:00</time></trkpt><trkpt lat="38.99150907" lon="-0.52394254"><ele>122.8</ele><time>2022-11-13T17:40:31.0000000+00:00</time></trkpt><trkpt lat="38.99151729" lon="-0.52394983"><ele>122.8</ele><time>2022-11-13T17:40:32.0000000+00:00</time></trkpt><trkpt lat="38.99152273" lon="-0.52395738"><ele>122.8</ele><time>2022-11-13T17:40:33.0000000+00:00</time></trkpt><trkpt lat="38.99152994" lon="-0.52396786"><ele>122.8</ele><time>2022-11-13T17:40:34.0000000+00:00</time></trkpt><trkpt lat="38.99153112" lon="-0.52397297"><ele>122.8</ele><time>2022-11-13T17:40:35.0000000+00:00</time></trkpt><trkpt lat="38.99153782" lon="-0.52398169"><ele>122.8</ele><time>2022-11-13T17:40:36.0000000+00:00</time></trkpt><trkpt lat="38.99154478" lon="-0.52398814"><ele>122.8</ele><time>2022-11-13T17:40:37.0000000+00:00</time></trkpt><trkpt lat="38.99155282" lon="-0.52398713"><ele>122.8</ele><time>2022-11-13T17:40:38.0000000+00:00</time></trkpt><trkpt lat="38.99156154" lon="-0.52398906"><ele>122.8</ele><time>2022-11-13T17:40:39.0000000+00:00</time></trkpt><trkpt lat="38.99157453" lon="-0.52398789"><ele>122.8</ele><time>2022-11-13T17:40:40.0000000+00:00</time></trkpt><trkpt lat="38.99159079" lon="-0.52398177"><ele>122.8</ele><time>2022-11-13T17:40:41.0000000+00:00</time></trkpt><trkpt lat="38.99160923" lon="-0.52398395"><ele>122.8</ele><time>2022-11-13T17:40:42.0000000+00:00</time></trkpt><trkpt lat="38.99161586" lon="-0.52399225"><ele>122.6</ele><time>2022-11-13T17:40:43.0000000+00:00</time></trkpt><trkpt lat="38.9916286" lon="-0.52400088"><ele>122.6</ele><time>2022-11-13T17:40:44.0000000+00:00</time></trkpt><trkpt lat="38.99164628" lon="-0.52402217"><ele>122.4</ele><time>2022-11-13T17:40:45.0000000+00:00</time></trkpt><trkpt lat="38.9916493" lon="-0.52404488"><ele>122.4</ele><time>2022-11-13T17:40:46.0000000+00:00</time></trkpt><trkpt lat="38.99166456" lon="-0.5240557"><ele>122.4</ele><time>2022-11-13T17:40:47.0000000+00:00</time></trkpt><trkpt lat="38.9916804" lon="-0.52406165"><ele>122.2</ele><time>2022-11-13T17:40:48.0000000+00:00</time></trkpt><trkpt lat="38.99169289" lon="-0.52406752"><ele>122.2</ele><time>2022-11-13T17:40:49.0000000+00:00</time></trkpt><trkpt lat="38.99170512" lon="-0.52407598"><ele>122.2</ele><time>2022-11-13T17:40:50.0000000+00:00</time></trkpt><trkpt lat="38.99171577" lon="-0.52407707"><ele>122.2</ele><time>2022-11-13T17:40:51.0000000+00:00</time></trkpt><trkpt lat="38.99172566" lon="-0.52408721"><ele>122.0</ele><time>2022-11-13T17:40:52.0000000+00:00</time></trkpt><trkpt lat="38.99173371" lon="-0.52409736"><ele>122.0</ele><time>2022-11-13T17:40:53.0000000+00:00</time></trkpt><trkpt lat="38.99175181" lon="-0.52408646"><ele>122.0</ele><time>2022-11-13T17:40:54.0000000+00:00</time></trkpt><trkpt lat="38.99177193" lon="-0.52408453"><ele>122.0</ele><time>2022-11-13T17:40:55.0000000+00:00</time></trkpt><trkpt lat="38.99179163" lon="-0.5240883"><ele>122.0</ele><time>2022-11-13T17:40:56.0000000+00:00</time></trkpt><trkpt lat="38.99180143" lon="-0.52409325"><ele>121.8</ele><time>2022-11-13T17:40:57.0000000+00:00</time></trkpt><trkpt lat="38.99181828" lon="-0.52410029"><ele>121.8</ele><time>2022-11-13T17:40:58.0000000+00:00</time></trkpt><trkpt lat="38.99183605" lon="-0.52410875"><ele>121.8</ele><time>2022-11-13T17:40:59.0000000+00:00</time></trkpt><trkpt lat="38.99185969" lon="-0.52411412"><ele>121.8</ele><time>2022-11-13T17:41:00.0000000+00:00</time></trkpt><trkpt lat="38.99187452" lon="-0.52412158"><ele>121.8</ele><time>2022-11-13T17:41:01.0000000+00:00</time></trkpt><trkpt lat="38.99189598" lon="-0.52412585"><ele>121.8</ele><time>2022-11-13T17:41:02.0000000+00:00</time></trkpt><trkpt lat="38.99191283" lon="-0.52413675"><ele>121.8</ele><time>2022-11-13T17:41:03.0000000+00:00</time></trkpt><trkpt lat="38.99191836" lon="-0.524136"><ele>121.6</ele><time>2022-11-13T17:41:04.0000000+00:00</time></trkpt><trkpt lat="38.991928" lon="-0.52414253"><ele>121.6</ele><time>2022-11-13T17:41:05.0000000+00:00</time></trkpt><trkpt lat="38.99194518" lon="-0.52414874"><ele>121.6</ele><time>2022-11-13T17:41:06.0000000+00:00</time></trkpt><trkpt lat="38.99195834" lon="-0.52414999"><ele>121.6</ele><time>2022-11-13T17:41:07.0000000+00:00</time></trkpt><trkpt lat="38.99197368" lon="-0.52415058"><ele>121.4</ele><time>2022-11-13T17:41:08.0000000+00:00</time></trkpt><trkpt lat="38.99199128" lon="-0.5241541"><ele>121.4</ele><time>2022-11-13T17:41:09.0000000+00:00</time></trkpt><trkpt lat="38.99200754" lon="-0.52414211"><ele>121.4</ele><time>2022-11-13T17:41:10.0000000+00:00</time></trkpt><trkpt lat="38.99202087" lon="-0.52413055"><ele>121.4</ele><time>2022-11-13T17:41:11.0000000+00:00</time></trkpt><trkpt lat="38.99202699" lon="-0.52411948"><ele>121.2</ele><time>2022-11-13T17:41:12.0000000+00:00</time></trkpt><trkpt lat="38.99202456" lon="-0.52412099"><ele>121.2</ele><time>2022-11-13T17:41:13.0000000+00:00</time></trkpt><trkpt lat="38.99202732" lon="-0.52411982"><ele>121.2</ele><time>2022-11-13T17:41:14.0000000+00:00</time></trkpt><trkpt lat="38.99203244" lon="-0.52411747"><ele>121.2</ele><time>2022-11-13T17:41:15.0000000+00:00</time></trkpt><trkpt lat="38.99203654" lon="-0.5241168"><ele>121.2</ele><time>2022-11-13T17:41:16.0000000+00:00</time></trkpt><trkpt lat="38.99204182" lon="-0.52411496"><ele>121.2</ele><time>2022-11-13T17:41:17.0000000+00:00</time></trkpt><trkpt lat="38.9920487" lon="-0.52411538"><ele>121.0</ele><time>2022-11-13T17:41:18.0000000+00:00</time></trkpt><trkpt lat="38.99204283" lon="-0.52411052"><ele>121.0</ele><time>2022-11-13T17:41:19.0000000+00:00</time></trkpt><trkpt lat="38.99203436" lon="-0.52410297"><ele>121.0</ele><time>2022-11-13T17:41:20.0000000+00:00</time></trkpt><trkpt lat="38.99203898" lon="-0.52410004"><ele>121.0</ele><time>2022-11-13T17:41:21.0000000+00:00</time></trkpt><trkpt lat="38.99205172" lon="-0.52409568"><ele>121.0</ele><time>2022-11-13T17:41:22.0000000+00:00</time></trkpt><trkpt lat="38.99206144" lon="-0.52408822"><ele>121.0</ele><time>2022-11-13T17:41:23.0000000+00:00</time></trkpt><trkpt lat="38.99207359" lon="-0.52408512"><ele>121.0</ele><time>2022-11-13T17:41:24.0000000+00:00</time></trkpt><trkpt lat="38.9920834" lon="-0.52408294"><ele>121.0</ele><time>2022-11-13T17:41:25.0000000+00:00</time></trkpt><trkpt lat="38.99209916" lon="-0.52408529"><ele>121.0</ele><time>2022-11-13T17:41:26.0000000+00:00</time></trkpt><trkpt lat="38.99211827" lon="-0.52409241"><ele>121.0</ele><time>2022-11-13T17:41:27.0000000+00:00</time></trkpt><trkpt lat="38.99213453" lon="-0.52410037"><ele>121.0</ele><time>2022-11-13T17:41:28.0000000+00:00</time></trkpt><trkpt lat="38.99214677" lon="-0.52410482"><ele>121.0</ele><time>2022-11-13T17:41:29.0000000+00:00</time></trkpt><trkpt lat="38.99215171" lon="-0.52410741"><ele>121.0</ele><time>2022-11-13T17:41:30.0000000+00:00</time></trkpt><trkpt lat="38.99215004" lon="-0.52410641"><ele>121.0</ele><time>2022-11-13T17:41:31.0000000+00:00</time></trkpt><trkpt lat="38.99215439" lon="-0.52411278"><ele>121.0</ele><time>2022-11-13T17:41:32.0000000+00:00</time></trkpt><trkpt lat="38.99216118" lon="-0.52412535"><ele>121.0</ele><time>2022-11-13T17:41:33.0000000+00:00</time></trkpt><trkpt lat="38.99216236" lon="-0.52413709"><ele>121.0</ele><time>2022-11-13T17:41:34.0000000+00:00</time></trkpt><trkpt lat="38.99217091" lon="-0.52415025"><ele>121.0</ele><time>2022-11-13T17:41:35.0000000+00:00</time></trkpt><trkpt lat="38.99217946" lon="-0.5241593"><ele>121.0</ele><time>2022-11-13T17:41:36.0000000+00:00</time></trkpt><trkpt lat="38.99218448" lon="-0.52417246"><ele>121.0</ele><time>2022-11-13T17:41:37.0000000+00:00</time></trkpt><trkpt lat="38.99219303" lon="-0.52418495"><ele>121.0</ele><time>2022-11-13T17:41:38.0000000+00:00</time></trkpt><trkpt lat="38.9921937" lon="-0.52420355"><ele>121.0</ele><time>2022-11-13T17:41:39.0000000+00:00</time></trkpt><trkpt lat="38.99219069" lon="-0.52421747"><ele>121.0</ele><time>2022-11-13T17:41:40.0000000+00:00</time></trkpt><trkpt lat="38.99219999" lon="-0.52423163"><ele>121.2</ele><time>2022-11-13T17:41:41.0000000+00:00</time></trkpt><trkpt lat="38.99221064" lon="-0.52424002"><ele>121.2</ele><time>2022-11-13T17:41:42.0000000+00:00</time></trkpt><trkpt lat="38.99223067" lon="-0.5242365"><ele>121.2</ele><time>2022-11-13T17:41:43.0000000+00:00</time></trkpt><trkpt lat="38.99225892" lon="-0.52424848"><ele>121.2</ele><time>2022-11-13T17:41:44.0000000+00:00</time></trkpt><trkpt lat="38.99228079" lon="-0.52425527"><ele>121.2</ele><time>2022-11-13T17:41:45.0000000+00:00</time></trkpt><trkpt lat="38.99229571" lon="-0.52426516"><ele>121.2</ele><time>2022-11-13T17:41:46.0000000+00:00</time></trkpt><trkpt lat="38.99230946" lon="-0.52427748"><ele>121.2</ele><time>2022-11-13T17:41:47.0000000+00:00</time></trkpt><trkpt lat="38.99232572" lon="-0.52428863"><ele>121.2</ele><time>2022-11-13T17:41:48.0000000+00:00</time></trkpt><trkpt lat="38.99233469" lon="-0.52430288"><ele>121.2</ele><time>2022-11-13T17:41:49.0000000+00:00</time></trkpt><trkpt lat="38.99234173" lon="-0.5243152"><ele>121.2</ele><time>2022-11-13T17:41:50.0000000+00:00</time></trkpt><trkpt lat="38.99234399" lon="-0.52432853"><ele>121.2</ele><time>2022-11-13T17:41:51.0000000+00:00</time></trkpt><trkpt lat="38.99231524" lon="-0.52433616"><ele>121.2</ele><time>2022-11-13T17:41:52.0000000+00:00</time></trkpt><trkpt lat="38.99231214" lon="-0.52434563"><ele>121.2</ele><time>2022-11-13T17:41:53.0000000+00:00</time></trkpt><trkpt lat="38.99231097" lon="-0.52435719"><ele>121.2</ele><time>2022-11-13T17:41:54.0000000+00:00</time></trkpt><trkpt lat="38.99230544" lon="-0.52436683"><ele>121.2</ele><time>2022-11-13T17:41:55.0000000+00:00</time></trkpt><trkpt lat="38.99230083" lon="-0.52437597"><ele>121.2</ele><time>2022-11-13T17:41:56.0000000+00:00</time></trkpt><trkpt lat="38.99228624" lon="-0.52436926"><ele>121.2</ele><time>2022-11-13T17:41:57.0000000+00:00</time></trkpt><trkpt lat="38.99227719" lon="-0.52435686"><ele>121.2</ele><time>2022-11-13T17:41:58.0000000+00:00</time></trkpt><trkpt lat="38.99226856" lon="-0.52434152"><ele>121.2</ele><time>2022-11-13T17:41:59.0000000+00:00</time></trkpt><trkpt lat="38.99226663" lon="-0.52432065"><ele>121.4</ele><time>2022-11-13T17:42:00.0000000+00:00</time></trkpt><trkpt lat="38.99226193" lon="-0.52430095"><ele>121.4</ele><time>2022-11-13T17:42:01.0000000+00:00</time></trkpt><trkpt lat="38.9922409" lon="-0.52427924"><ele>121.4</ele><time>2022-11-13T17:42:02.0000000+00:00</time></trkpt><trkpt lat="38.99222589" lon="-0.52423893"><ele>121.4</ele><time>2022-11-13T17:42:03.0000000+00:00</time></trkpt><trkpt lat="38.99221927" lon="-0.52419894"><ele>121.4</ele><time>2022-11-13T17:42:04.0000000+00:00</time></trkpt><trkpt lat="38.99221365" lon="-0.52415561"><ele>121.4</ele><time>2022-11-13T17:42:05.0000000+00:00</time></trkpt><trkpt lat="38.99220938" lon="-0.52412108"><ele>121.4</ele><time>2022-11-13T17:42:06.0000000+00:00</time></trkpt><trkpt lat="38.99221164" lon="-0.52411077"><ele>121.4</ele><time>2022-11-13T17:42:07.0000000+00:00</time></trkpt><trkpt lat="38.99220921" lon="-0.52408579"><ele>121.4</ele><time>2022-11-13T17:42:08.0000000+00:00</time></trkpt><trkpt lat="38.99221877" lon="-0.52407833"><ele>121.4</ele><time>2022-11-13T17:42:09.0000000+00:00</time></trkpt><trkpt lat="38.99221935" lon="-0.52406039"><ele>121.2</ele><time>2022-11-13T17:42:10.0000000+00:00</time></trkpt><trkpt lat="38.99224257" lon="-0.52408285"><ele>121.2</ele><time>2022-11-13T17:42:11.0000000+00:00</time></trkpt><trkpt lat="38.99224215" lon="-0.52411462"><ele>121.2</ele><time>2022-11-13T17:42:12.0000000+00:00</time></trkpt><trkpt lat="38.99223645" lon="-0.52417648"><ele>121.2</ele><time>2022-11-13T17:42:13.0000000+00:00</time></trkpt><trkpt lat="38.99220645" lon="-0.52415846"><ele>121.2</ele><time>2022-11-13T17:42:14.0000000+00:00</time></trkpt><trkpt lat="38.9922098" lon="-0.52418905"><ele>121.2</ele><time>2022-11-13T17:42:15.0000000+00:00</time></trkpt><trkpt lat="38.99218725" lon="-0.52417824"><ele>121.2</ele><time>2022-11-13T17:42:16.0000000+00:00</time></trkpt><trkpt lat="38.99217652" lon="-0.52419752"><ele>121.2</ele><time>2022-11-13T17:42:17.0000000+00:00</time></trkpt><trkpt lat="38.99216504" lon="-0.52421621"><ele>121.2</ele><time>2022-11-13T17:42:18.0000000+00:00</time></trkpt><trkpt lat="38.99216462" lon="-0.52423683"><ele>121.2</ele><time>2022-11-13T17:42:19.0000000+00:00</time></trkpt><trkpt lat="38.99214735" lon="-0.52423415"><ele>121.2</ele><time>2022-11-13T17:42:20.0000000+00:00</time></trkpt><trkpt lat="38.992129" lon="-0.52422904"><ele>121.2</ele><time>2022-11-13T17:42:21.0000000+00:00</time></trkpt><trkpt lat="38.99211936" lon="-0.52420942"><ele>121.2</ele><time>2022-11-13T17:42:22.0000000+00:00</time></trkpt><trkpt lat="38.99210829" lon="-0.52420188"><ele>121.2</ele><time>2022-11-13T17:42:23.0000000+00:00</time></trkpt><trkpt lat="38.99211357" lon="-0.52418922"><ele>121.4</ele><time>2022-11-13T17:42:24.0000000+00:00</time></trkpt><trkpt lat="38.99211156" lon="-0.52418754"><ele>121.4</ele><time>2022-11-13T17:42:25.0000000+00:00</time></trkpt><trkpt lat="38.99211466" lon="-0.52418235"><ele>121.4</ele><time>2022-11-13T17:42:26.0000000+00:00</time></trkpt><trkpt lat="38.99211114" lon="-0.52418771"><ele>121.4</ele><time>2022-11-13T17:42:27.0000000+00:00</time></trkpt><trkpt lat="38.99210486" lon="-0.52419065"><ele>121.4</ele><time>2022-11-13T17:42:28.0000000+00:00</time></trkpt><trkpt lat="38.99209731" lon="-0.52418863"><ele>121.4</ele><time>2022-11-13T17:42:29.0000000+00:00</time></trkpt><trkpt lat="38.99209572" lon="-0.52418914"><ele>121.4</ele><time>2022-11-13T17:42:30.0000000+00:00</time></trkpt><trkpt lat="38.9920979" lon="-0.52421085"><ele>121.4</ele><time>2022-11-13T17:42:31.0000000+00:00</time></trkpt><trkpt lat="38.9920922" lon="-0.52421671"><ele>121.4</ele><time>2022-11-13T17:42:32.0000000+00:00</time></trkpt><trkpt lat="38.99210318" lon="-0.52423205"><ele>121.2</ele><time>2022-11-13T17:42:33.0000000+00:00</time></trkpt><trkpt lat="38.99210972" lon="-0.52423214"><ele>121.2</ele><time>2022-11-13T17:42:34.0000000+00:00</time></trkpt><trkpt lat="38.99211475" lon="-0.52423733"><ele>121.2</ele><time>2022-11-13T17:42:35.0000000+00:00</time></trkpt><trkpt lat="38.9921119" lon="-0.52424052"><ele>121.2</ele><time>2022-11-13T17:42:36.0000000+00:00</time></trkpt><trkpt lat="38.99210804" lon="-0.52423943"><ele>121.2</ele><time>2022-11-13T17:42:37.0000000+00:00</time></trkpt><trkpt lat="38.99211559" lon="-0.5242515"><ele>121.2</ele><time>2022-11-13T17:42:38.0000000+00:00</time></trkpt><trkpt lat="38.99211793" lon="-0.52424773"><ele>121.2</ele><time>2022-11-13T17:42:39.0000000+00:00</time></trkpt><trkpt lat="38.9921212" lon="-0.52424647"><ele>121.4</ele><time>2022-11-13T17:42:40.0000000+00:00</time></trkpt><trkpt lat="38.99211726" lon="-0.52425619"><ele>121.4</ele><time>2022-11-13T17:42:41.0000000+00:00</time></trkpt><trkpt lat="38.99210896" lon="-0.52424924"><ele>121.4</ele><time>2022-11-13T17:42:42.0000000+00:00</time></trkpt><trkpt lat="38.99210519" lon="-0.52423574"><ele>121.2</ele><time>2022-11-13T17:42:43.0000000+00:00</time></trkpt><trkpt lat="38.99210452" lon="-0.52423968"><ele>121.2</ele><time>2022-11-13T17:42:44.0000000+00:00</time></trkpt><trkpt lat="38.99210569" lon="-0.52424018"><ele>121.2</ele><time>2022-11-13T17:42:45.0000000+00:00</time></trkpt><trkpt lat="38.99210947" lon="-0.52423566"><ele>121.2</ele><time>2022-11-13T17:42:46.0000000+00:00</time></trkpt><trkpt lat="38.99212036" lon="-0.52424882"><ele>121.2</ele><time>2022-11-13T17:42:47.0000000+00:00</time></trkpt><trkpt lat="38.99210804" lon="-0.52425108"><ele>121.2</ele><time>2022-11-13T17:42:48.0000000+00:00</time></trkpt><trkpt lat="38.99210913" lon="-0.5242862"><ele>121.2</ele><time>2022-11-13T17:42:49.0000000+00:00</time></trkpt><trkpt lat="38.9921145" lon="-0.52433699"><ele>121.2</ele><time>2022-11-13T17:42:50.0000000+00:00</time></trkpt><trkpt lat="38.99211559" lon="-0.52435359"><ele>121.2</ele><time>2022-11-13T17:42:51.0000000+00:00</time></trkpt><trkpt lat="38.99210536" lon="-0.524353"><ele>121.2</ele><time>2022-11-13T17:42:52.0000000+00:00</time></trkpt><trkpt lat="38.99212372" lon="-0.52438477"><ele>121.2</ele><time>2022-11-13T17:42:53.0000000+00:00</time></trkpt><trkpt lat="38.99208834" lon="-0.52440086"><ele>121.2</ele><time>2022-11-13T17:42:54.0000000+00:00</time></trkpt><trkpt lat="38.99209262" lon="-0.52438611"><ele>121.2</ele><time>2022-11-13T17:42:55.0000000+00:00</time></trkpt><trkpt lat="38.9920974" lon="-0.52441126"><ele>121.2</ele><time>2022-11-13T17:42:56.0000000+00:00</time></trkpt><trkpt lat="38.99210377" lon="-0.52443825"><ele>121.2</ele><time>2022-11-13T17:42:58.0000000+00:00</time></trkpt><trkpt lat="38.99211424" lon="-0.5244789"><ele>121.2</ele><time>2022-11-13T17:42:59.0000000+00:00</time></trkpt><trkpt lat="38.99212011" lon="-0.52448921"><ele>121.2</ele><time>2022-11-13T17:43:00.0000000+00:00</time></trkpt><trkpt lat="38.9921233" lon="-0.52450153"><ele>121.2</ele><time>2022-11-13T17:43:01.0000000+00:00</time></trkpt><trkpt lat="38.99212866" lon="-0.52450866"><ele>121.2</ele><time>2022-11-13T17:43:02.0000000+00:00</time></trkpt><trkpt lat="38.9921404" lon="-0.52445359"><ele>121.2</ele><time>2022-11-13T17:43:03.0000000+00:00</time></trkpt><trkpt lat="38.9921378" lon="-0.52440883"><ele>121.2</ele><time>2022-11-13T17:43:04.0000000+00:00</time></trkpt><trkpt lat="38.99214484" lon="-0.52438779"><ele>121.2</ele><time>2022-11-13T17:43:05.0000000+00:00</time></trkpt><trkpt lat="38.99216303" lon="-0.52435518"><ele>121.2</ele><time>2022-11-13T17:43:06.0000000+00:00</time></trkpt><trkpt lat="38.99217501" lon="-0.5243489"><ele>121.2</ele><time>2022-11-13T17:43:07.0000000+00:00</time></trkpt><trkpt lat="38.99219664" lon="-0.52436834"><ele>121.2</ele><time>2022-11-13T17:43:08.0000000+00:00</time></trkpt><trkpt lat="38.99221935" lon="-0.52438418"><ele>121.2</ele><time>2022-11-13T17:43:09.0000000+00:00</time></trkpt><trkpt lat="38.99222748" lon="-0.52437488"><ele>121.2</ele><time>2022-11-13T17:43:10.0000000+00:00</time></trkpt><trkpt lat="38.99225179" lon="-0.52440195"><ele>121.4</ele><time>2022-11-13T17:43:11.0000000+00:00</time></trkpt><trkpt lat="38.99227124" lon="-0.52443163"><ele>121.4</ele><time>2022-11-13T17:43:13.0000000+00:00</time></trkpt><trkpt lat="38.99229596" lon="-0.52438737"><ele>121.4</ele><time>2022-11-13T17:43:14.0000000+00:00</time></trkpt><trkpt lat="38.9922999" lon="-0.52438469"><ele>121.2</ele><time>2022-11-13T17:43:15.0000000+00:00</time></trkpt><trkpt lat="38.99230451" lon="-0.5243271"><ele>121.2</ele><time>2022-11-13T17:43:16.0000000+00:00</time></trkpt><trkpt lat="38.99229764" lon="-0.52430573"><ele>121.2</ele><time>2022-11-13T17:43:17.0000000+00:00</time></trkpt><trkpt lat="38.99230426" lon="-0.52426424"><ele>121.2</ele><time>2022-11-13T17:43:18.0000000+00:00</time></trkpt><trkpt lat="38.99230535" lon="-0.52425141"><ele>121.0</ele><time>2022-11-13T17:43:19.0000000+00:00</time></trkpt><trkpt lat="38.99231893" lon="-0.5242484"><ele>121.0</ele><time>2022-11-13T17:43:21.0000000+00:00</time></trkpt><trkpt lat="38.9923113" lon="-0.52424437"><ele>121.0</ele><time>2022-11-13T17:43:22.0000000+00:00</time></trkpt><trkpt lat="38.99230535" lon="-0.52422392"><ele>121.0</ele><time>2022-11-13T17:43:23.0000000+00:00</time></trkpt><trkpt lat="38.99230175" lon="-0.52421772"><ele>121.0</ele><time>2022-11-13T17:43:24.0000000+00:00</time></trkpt><trkpt lat="38.99228733" lon="-0.52422409"><ele>121.0</ele><time>2022-11-13T17:43:25.0000000+00:00</time></trkpt><trkpt lat="38.99228733" lon="-0.52422099"><ele>121.0</ele><time>2022-11-13T17:43:26.0000000+00:00</time></trkpt><trkpt lat="38.99227752" lon="-0.52421487"><ele>121.0</ele><time>2022-11-13T17:43:27.0000000+00:00</time></trkpt><trkpt lat="38.99225305" lon="-0.52419878"><ele>121.0</ele><time>2022-11-13T17:43:28.0000000+00:00</time></trkpt><trkpt lat="38.99225498" lon="-0.52419819"><ele>121.0</ele><time>2022-11-13T17:43:29.0000000+00:00</time></trkpt><trkpt lat="38.99224064" lon="-0.52420925"><ele>121.0</ele><time>2022-11-13T17:43:30.0000000+00:00</time></trkpt><trkpt lat="38.99223059" lon="-0.52420045"><ele>121.0</ele><time>2022-11-13T17:43:31.0000000+00:00</time></trkpt><trkpt lat="38.99222187" lon="-0.52419961"><ele>121.0</ele><time>2022-11-13T17:43:32.0000000+00:00</time></trkpt><trkpt lat="38.99221684" lon="-0.52420104"><ele>121.0</ele><time>2022-11-13T17:43:33.0000000+00:00</time></trkpt><trkpt lat="38.99222422" lon="-0.52419207"><ele>121.0</ele><time>2022-11-13T17:43:35.0000000+00:00</time></trkpt><trkpt lat="38.99221617" lon="-0.52418822"><ele>121.0</ele><time>2022-11-13T17:43:36.0000000+00:00</time></trkpt><trkpt lat="38.99221969" lon="-0.52418947"><ele>121.0</ele><time>2022-11-13T17:43:37.0000000+00:00</time></trkpt><trkpt lat="38.99222313" lon="-0.52419098"><ele>121.0</ele><time>2022-11-13T17:43:38.0000000+00:00</time></trkpt><trkpt lat="38.99222924" lon="-0.5241909"><ele>121.0</ele><time>2022-11-13T17:43:39.0000000+00:00</time></trkpt><trkpt lat="38.99223385" lon="-0.52419316"><ele>121.0</ele><time>2022-11-13T17:43:40.0000000+00:00</time></trkpt><trkpt lat="38.99223645" lon="-0.52419635"><ele>121.0</ele><time>2022-11-13T17:43:41.0000000+00:00</time></trkpt><trkpt lat="38.99224794" lon="-0.52419878"><ele>120.8</ele><time>2022-11-13T17:43:42.0000000+00:00</time></trkpt><trkpt lat="38.9922621" lon="-0.52420422"><ele>120.8</ele><time>2022-11-13T17:43:43.0000000+00:00</time></trkpt><trkpt lat="38.9922621" lon="-0.52419903"><ele>120.8</ele><time>2022-11-13T17:43:44.0000000+00:00</time></trkpt><trkpt lat="38.99225238" lon="-0.52419014"><ele>120.8</ele><time>2022-11-13T17:43:45.0000000+00:00</time></trkpt><trkpt lat="38.99225162" lon="-0.52421764"><ele>120.8</ele><time>2022-11-13T17:43:46.0000000+00:00</time></trkpt><trkpt lat="38.99225188" lon="-0.52420783"><ele>120.8</ele><time>2022-11-13T17:43:48.0000000+00:00</time></trkpt><trkpt lat="38.99224802" lon="-0.52418411"><ele>120.8</ele><time>2022-11-13T17:43:49.0000000+00:00</time></trkpt><trkpt lat="38.99224676" lon="-0.52418143"><ele>120.8</ele><time>2022-11-13T17:43:50.0000000+00:00</time></trkpt><trkpt lat="38.99224416" lon="-0.52418553"><ele>120.8</ele><time>2022-11-13T17:43:51.0000000+00:00</time></trkpt><trkpt lat="38.99224408" lon="-0.52418"><ele>120.8</ele><time>2022-11-13T17:43:54.0000000+00:00</time></trkpt><trkpt lat="38.9922512" lon="-0.52417673"><ele>120.8</ele><time>2022-11-13T17:43:56.0000000+00:00</time></trkpt><trkpt lat="38.9922989" lon="-0.52411144"><ele>120.8</ele><time>2022-11-13T17:43:57.0000000+00:00</time></trkpt><trkpt lat="38.99231005" lon="-0.52409677"><ele>120.8</ele><time>2022-11-13T17:43:58.0000000+00:00</time></trkpt><trkpt lat="38.99233075" lon="-0.52409115"><ele>120.6</ele><time>2022-11-13T17:43:59.0000000+00:00</time></trkpt><trkpt lat="38.99234827" lon="-0.52409719"><ele>120.6</ele><time>2022-11-13T17:44:00.0000000+00:00</time></trkpt><trkpt lat="38.99233452" lon="-0.5241013"><ele>120.6</ele><time>2022-11-13T17:44:01.0000000+00:00</time></trkpt><trkpt lat="38.99231063" lon="-0.52410867"><ele>120.6</ele><time>2022-11-13T17:44:02.0000000+00:00</time></trkpt><trkpt lat="38.99229295" lon="-0.5241194"><ele>120.6</ele><time>2022-11-13T17:44:03.0000000+00:00</time></trkpt><trkpt lat="38.99227417" lon="-0.52411454"><ele>120.6</ele><time>2022-11-13T17:44:04.0000000+00:00</time></trkpt><trkpt lat="38.99225741" lon="-0.52413482"><ele>120.6</ele><time>2022-11-13T17:44:05.0000000+00:00</time></trkpt><trkpt lat="38.99224919" lon="-0.52415167"><ele>120.6</ele><time>2022-11-13T17:44:06.0000000+00:00</time></trkpt><trkpt lat="38.99224618" lon="-0.52415854"><ele>120.6</ele><time>2022-11-13T17:44:07.0000000+00:00</time></trkpt><trkpt lat="38.99225313" lon="-0.52416693"><ele>120.6</ele><time>2022-11-13T17:44:09.0000000+00:00</time></trkpt><trkpt lat="38.99224014" lon="-0.52416466"><ele>120.6</ele><time>2022-11-13T17:44:11.0000000+00:00</time></trkpt><trkpt lat="38.99223008" lon="-0.52419936"><ele>120.6</ele><time>2022-11-13T17:44:12.0000000+00:00</time></trkpt><trkpt lat="38.99223729" lon="-0.52421034"><ele>120.6</ele><time>2022-11-13T17:44:13.0000000+00:00</time></trkpt><trkpt lat="38.99223377" lon="-0.52423398"><ele>120.6</ele><time>2022-11-13T17:44:14.0000000+00:00</time></trkpt><trkpt lat="38.99228582" lon="-0.52424295"><ele>120.6</ele><time>2022-11-13T17:44:15.0000000+00:00</time></trkpt><trkpt lat="38.9923569" lon="-0.52421437"><ele>120.6</ele><time>2022-11-13T17:44:16.0000000+00:00</time></trkpt><trkpt lat="38.99239797" lon="-0.52419987"><ele>120.6</ele><time>2022-11-13T17:44:17.0000000+00:00</time></trkpt><trkpt lat="38.99239101" lon="-0.52420221"><ele>120.6</ele><time>2022-11-13T17:44:18.0000000+00:00</time></trkpt><trkpt lat="38.99240468" lon="-0.5241831"><ele>120.6</ele><time>2022-11-13T17:44:20.0000000+00:00</time></trkpt><trkpt lat="38.99240887" lon="-0.52418293"><ele>120.6</ele><time>2022-11-13T17:44:21.0000000+00:00</time></trkpt><trkpt lat="38.9924175" lon="-0.52417816"><ele>120.6</ele><time>2022-11-13T17:44:22.0000000+00:00</time></trkpt><trkpt lat="38.99241063" lon="-0.52417464"><ele>120.6</ele><time>2022-11-13T17:44:23.0000000+00:00</time></trkpt><trkpt lat="38.99241901" lon="-0.52412887"><ele>120.6</ele><time>2022-11-13T17:44:25.0000000+00:00</time></trkpt><trkpt lat="38.99242605" lon="-0.52412183"><ele>120.6</ele><time>2022-11-13T17:44:26.0000000+00:00</time></trkpt><trkpt lat="38.99239831" lon="-0.52410733"><ele>120.6</ele><time>2022-11-13T17:44:27.0000000+00:00</time></trkpt><trkpt lat="38.99238288" lon="-0.52410373"><ele>120.6</ele><time>2022-11-13T17:44:28.0000000+00:00</time></trkpt><trkpt lat="38.99238699" lon="-0.52410222"><ele>120.6</ele><time>2022-11-13T17:44:29.0000000+00:00</time></trkpt><trkpt lat="38.99238615" lon="-0.52411144"><ele>120.6</ele><time>2022-11-13T17:44:31.0000000+00:00</time></trkpt><trkpt lat="38.9923688" lon="-0.52413449"><ele>120.6</ele><time>2022-11-13T17:44:32.0000000+00:00</time></trkpt><trkpt lat="38.99235589" lon="-0.52415519"><ele>120.6</ele><time>2022-11-13T17:44:33.0000000+00:00</time></trkpt><trkpt lat="38.99231038" lon="-0.52418947"><ele>120.6</ele><time>2022-11-13T17:44:34.0000000+00:00</time></trkpt><trkpt lat="38.99231541" lon="-0.52419073"><ele>120.6</ele><time>2022-11-13T17:44:35.0000000+00:00</time></trkpt><trkpt lat="38.99230812" lon="-0.52418411"><ele>120.6</ele><time>2022-11-13T17:44:39.0000000+00:00</time></trkpt><trkpt lat="38.99230477" lon="-0.52417455"><ele>120.6</ele><time>2022-11-13T17:44:40.0000000+00:00</time></trkpt><trkpt lat="38.99230426" lon="-0.52416567"><ele>120.6</ele><time>2022-11-13T17:44:41.0000000+00:00</time></trkpt><trkpt lat="38.99229814" lon="-0.52417204"><ele>120.6</ele><time>2022-11-13T17:44:42.0000000+00:00</time></trkpt><trkpt lat="38.99228641" lon="-0.52416349"><ele>120.6</ele><time>2022-11-13T17:44:43.0000000+00:00</time></trkpt><trkpt lat="38.99230066" lon="-0.52416885"><ele>120.6</ele><time>2022-11-13T17:44:44.0000000+00:00</time></trkpt><trkpt lat="38.99232899" lon="-0.52416642"><ele>120.6</ele><time>2022-11-13T17:44:45.0000000+00:00</time></trkpt><trkpt lat="38.99232949" lon="-0.52419408"><ele>120.6</ele><time>2022-11-13T17:44:47.0000000+00:00</time></trkpt><trkpt lat="38.99232823" lon="-0.52419752"><ele>120.6</ele><time>2022-11-13T17:44:48.0000000+00:00</time></trkpt><trkpt lat="38.99232748" lon="-0.52422979"><ele>120.6</ele><time>2022-11-13T17:44:49.0000000+00:00</time></trkpt><trkpt lat="38.9923196" lon="-0.5242727"><ele>120.6</ele><time>2022-11-13T17:44:50.0000000+00:00</time></trkpt><trkpt lat="38.99233385" lon="-0.52428335"><ele>120.6</ele><time>2022-11-13T17:44:51.0000000+00:00</time></trkpt><trkpt lat="38.99233134" lon="-0.52428301"><ele>120.6</ele><time>2022-11-13T17:44:52.0000000+00:00</time></trkpt><trkpt lat="38.99234399" lon="-0.52432325"><ele>120.6</ele><time>2022-11-13T17:44:54.0000000+00:00</time></trkpt><trkpt lat="38.99233528" lon="-0.52434638"><ele>120.6</ele><time>2022-11-13T17:44:55.0000000+00:00</time></trkpt><trkpt lat="38.99233243" lon="-0.5243789"><ele>120.6</ele><time>2022-11-13T17:44:56.0000000+00:00</time></trkpt><trkpt lat="38.99232505" lon="-0.52441528"><ele>120.6</ele><time>2022-11-13T17:44:57.0000000+00:00</time></trkpt><trkpt lat="38.99231331" lon="-0.52444554"><ele>120.6</ele><time>2022-11-13T17:44:58.0000000+00:00</time></trkpt><trkpt lat="38.99229471" lon="-0.52443783"><ele>120.6</ele><time>2022-11-13T17:44:59.0000000+00:00</time></trkpt><trkpt lat="38.99230217" lon="-0.524438"><ele>120.6</ele><time>2022-11-13T17:45:00.0000000+00:00</time></trkpt><trkpt lat="38.99230292" lon="-0.52445434"><ele>120.6</ele><time>2022-11-13T17:45:01.0000000+00:00</time></trkpt><trkpt lat="38.99229295" lon="-0.52444579"><ele>120.6</ele><time>2022-11-13T17:45:02.0000000+00:00</time></trkpt><trkpt lat="38.99227937" lon="-0.52443925"><ele>120.6</ele><time>2022-11-13T17:45:03.0000000+00:00</time></trkpt><trkpt lat="38.99227484" lon="-0.52445887"><ele>120.6</ele><time>2022-11-13T17:45:06.0000000+00:00</time></trkpt><trkpt lat="38.99227995" lon="-0.52446096"><ele>120.6</ele><time>2022-11-13T17:45:07.0000000+00:00</time></trkpt><trkpt lat="38.99228297" lon="-0.52446004"><ele>120.6</ele><time>2022-11-13T17:45:08.0000000+00:00</time></trkpt><trkpt lat="38.99228415" lon="-0.5244639"><ele>120.6</ele><time>2022-11-13T17:45:10.0000000+00:00</time></trkpt><trkpt lat="38.99228322" lon="-0.52448141"><ele>120.6</ele><time>2022-11-13T17:45:11.0000000+00:00</time></trkpt><trkpt lat="38.99227803" lon="-0.52451603"><ele>120.6</ele><time>2022-11-13T17:45:13.0000000+00:00</time></trkpt><trkpt lat="38.99227585" lon="-0.52454084"><ele>120.6</ele><time>2022-11-13T17:45:14.0000000+00:00</time></trkpt><trkpt lat="38.99224827" lon="-0.52456859"><ele>120.6</ele><time>2022-11-13T17:45:18.0000000+00:00</time></trkpt><trkpt lat="38.99223989" lon="-0.52457035"><ele>120.6</ele><time>2022-11-13T17:45:20.0000000+00:00</time></trkpt><trkpt lat="38.99224919" lon="-0.52458728"><ele>120.6</ele><time>2022-11-13T17:45:23.0000000+00:00</time></trkpt><trkpt lat="38.99224157" lon="-0.524582"><ele>120.6</ele><time>2022-11-13T17:45:24.0000000+00:00</time></trkpt><trkpt lat="38.99224182" lon="-0.52457806"><ele>120.6</ele><time>2022-11-13T17:45:25.0000000+00:00</time></trkpt><trkpt lat="38.99224467" lon="-0.52457378"><ele>120.6</ele><time>2022-11-13T17:45:26.0000000+00:00</time></trkpt><trkpt lat="38.99224442" lon="-0.52456934"><ele>120.6</ele><time>2022-11-13T17:45:27.0000000+00:00</time></trkpt><trkpt lat="38.99225397" lon="-0.52457529"><ele>120.6</ele><time>2022-11-13T17:45:28.0000000+00:00</time></trkpt><trkpt lat="38.99225623" lon="-0.52457362"><ele>120.6</ele><time>2022-11-13T17:45:29.0000000+00:00</time></trkpt><trkpt lat="38.99225833" lon="-0.52456968"><ele>120.6</ele><time>2022-11-13T17:45:30.0000000+00:00</time></trkpt><trkpt lat="38.99225632" lon="-0.52456641"><ele>120.6</ele><time>2022-11-13T17:45:31.0000000+00:00</time></trkpt><trkpt lat="38.99225607" lon="-0.52456096"><ele>120.6</ele><time>2022-11-13T17:45:32.0000000+00:00</time></trkpt><trkpt lat="38.99225808" lon="-0.5245566"><ele>120.6</ele><time>2022-11-13T17:45:33.0000000+00:00</time></trkpt><trkpt lat="38.99224835" lon="-0.52453405"><ele>120.6</ele><time>2022-11-13T17:45:34.0000000+00:00</time></trkpt><trkpt lat="38.992245" lon="-0.52450178"><ele>120.6</ele><time>2022-11-13T17:45:35.0000000+00:00</time></trkpt><trkpt lat="38.99224257" lon="-0.52447387"><ele>120.6</ele><time>2022-11-13T17:45:36.0000000+00:00</time></trkpt><trkpt lat="38.99223838" lon="-0.5244509"><ele>120.6</ele><time>2022-11-13T17:45:37.0000000+00:00</time></trkpt><trkpt lat="38.99224031" lon="-0.52443012"><ele>120.6</ele><time>2022-11-13T17:45:38.0000000+00:00</time></trkpt><trkpt lat="38.99224894" lon="-0.52440992"><ele>120.6</ele><time>2022-11-13T17:45:39.0000000+00:00</time></trkpt><trkpt lat="38.99225908" lon="-0.52438611"><ele>120.6</ele><time>2022-11-13T17:45:40.0000000+00:00</time></trkpt><trkpt lat="38.99226981" lon="-0.52435937"><ele>120.6</ele><time>2022-11-13T17:45:41.0000000+00:00</time></trkpt><trkpt lat="38.99227778" lon="-0.52435518"><ele>120.6</ele><time>2022-11-13T17:45:42.0000000+00:00</time></trkpt><trkpt lat="38.99228364" lon="-0.52433867"><ele>120.6</ele><time>2022-11-13T17:45:43.0000000+00:00</time></trkpt><trkpt lat="38.99228817" lon="-0.52432258"><ele>120.6</ele><time>2022-11-13T17:45:44.0000000+00:00</time></trkpt><trkpt lat="38.99228515" lon="-0.52430808"><ele>120.6</ele><time>2022-11-13T17:45:45.0000000+00:00</time></trkpt><trkpt lat="38.99228775" lon="-0.52429534"><ele>120.6</ele><time>2022-11-13T17:45:46.0000000+00:00</time></trkpt><trkpt lat="38.99229823" lon="-0.52428151"><ele>120.6</ele><time>2022-11-13T17:45:47.0000000+00:00</time></trkpt><trkpt lat="38.99233058" lon="-0.52425988"><ele>120.6</ele><time>2022-11-13T17:45:48.0000000+00:00</time></trkpt><trkpt lat="38.99235246" lon="-0.52423599"><ele>120.6</ele><time>2022-11-13T17:45:49.0000000+00:00</time></trkpt><trkpt lat="38.99235221" lon="-0.52422786"><ele>120.6</ele><time>2022-11-13T17:45:50.0000000+00:00</time></trkpt><trkpt lat="38.99234785" lon="-0.52422753"><ele>120.6</ele><time>2022-11-13T17:45:51.0000000+00:00</time></trkpt><trkpt lat="38.99234123" lon="-0.52423792"><ele>120.6</ele><time>2022-11-13T17:45:52.0000000+00:00</time></trkpt><trkpt lat="38.99235807" lon="-0.52419836"><ele>120.6</ele><time>2022-11-13T17:45:53.0000000+00:00</time></trkpt><trkpt lat="38.99235556" lon="-0.52417195"><ele>120.6</ele><time>2022-11-13T17:45:54.0000000+00:00</time></trkpt><trkpt lat="38.99234517" lon="-0.52418243"><ele>120.6</ele><time>2022-11-13T17:45:55.0000000+00:00</time></trkpt><trkpt lat="38.99233854" lon="-0.52418813"><ele>120.6</ele><time>2022-11-13T17:45:56.0000000+00:00</time></trkpt><trkpt lat="38.99233377" lon="-0.52418771"><ele>120.6</ele><time>2022-11-13T17:45:57.0000000+00:00</time></trkpt><trkpt lat="38.99232714" lon="-0.52418293"><ele>120.6</ele><time>2022-11-13T17:45:58.0000000+00:00</time></trkpt><trkpt lat="38.99232513" lon="-0.52420079"><ele>120.6</ele><time>2022-11-13T17:45:59.0000000+00:00</time></trkpt><trkpt lat="38.99233259" lon="-0.52416894"><ele>120.6</ele><time>2022-11-13T17:46:00.0000000+00:00</time></trkpt><trkpt lat="38.99232782" lon="-0.52418553"><ele>120.6</ele><time>2022-11-13T17:46:01.0000000+00:00</time></trkpt><trkpt lat="38.99233586" lon="-0.52418134"><ele>120.6</ele><time>2022-11-13T17:46:02.0000000+00:00</time></trkpt><trkpt lat="38.99234072" lon="-0.52419417"><ele>120.6</ele><time>2022-11-13T17:46:03.0000000+00:00</time></trkpt><trkpt lat="38.9923533" lon="-0.52420171"><ele>120.6</ele><time>2022-11-13T17:46:04.0000000+00:00</time></trkpt><trkpt lat="38.99237249" lon="-0.52417128"><ele>120.6</ele><time>2022-11-13T17:46:05.0000000+00:00</time></trkpt><trkpt lat="38.99238045" lon="-0.52416106"><ele>120.6</ele><time>2022-11-13T17:46:06.0000000+00:00</time></trkpt><trkpt lat="38.99238783" lon="-0.52415469"><ele>120.6</ele><time>2022-11-13T17:46:07.0000000+00:00</time></trkpt><trkpt lat="38.99239646" lon="-0.52413927"><ele>120.6</ele><time>2022-11-13T17:46:08.0000000+00:00</time></trkpt><trkpt lat="38.99240032" lon="-0.5241401"><ele>120.6</ele><time>2022-11-13T17:46:09.0000000+00:00</time></trkpt><trkpt lat="38.9924025" lon="-0.52413424"><ele>120.6</ele><time>2022-11-13T17:46:10.0000000+00:00</time></trkpt><trkpt lat="38.9923999" lon="-0.52413566"><ele>120.6</ele><time>2022-11-13T17:46:11.0000000+00:00</time></trkpt><trkpt lat="38.99239571" lon="-0.52414547"><ele>120.6</ele><time>2022-11-13T17:46:12.0000000+00:00</time></trkpt><trkpt lat="38.99238808" lon="-0.52414656"><ele>120.6</ele><time>2022-11-13T17:46:13.0000000+00:00</time></trkpt><trkpt lat="38.99238808" lon="-0.52413625"><ele>120.6</ele><time>2022-11-13T17:46:14.0000000+00:00</time></trkpt><trkpt lat="38.99238448" lon="-0.52414069"><ele>120.6</ele><time>2022-11-13T17:46:15.0000000+00:00</time></trkpt><trkpt lat="38.99236067" lon="-0.52412862"><ele>120.6</ele><time>2022-11-13T17:46:16.0000000+00:00</time></trkpt><trkpt lat="38.99236025" lon="-0.52412627"><ele>120.6</ele><time>2022-11-13T17:46:17.0000000+00:00</time></trkpt><trkpt lat="38.99234902" lon="-0.52412451"><ele>120.6</ele><time>2022-11-13T17:46:18.0000000+00:00</time></trkpt><trkpt lat="38.99233695" lon="-0.52412552"><ele>120.6</ele><time>2022-11-13T17:46:19.0000000+00:00</time></trkpt><trkpt lat="38.99232237" lon="-0.52412728"><ele>120.6</ele><time>2022-11-13T17:46:20.0000000+00:00</time></trkpt><trkpt lat="38.992316" lon="-0.5241272"><ele>120.6</ele><time>2022-11-13T17:46:21.0000000+00:00</time></trkpt><trkpt lat="38.992303" lon="-0.52413122"><ele>120.6</ele><time>2022-11-13T17:46:22.0000000+00:00</time></trkpt><trkpt lat="38.99227903" lon="-0.52413306"><ele>120.6</ele><time>2022-11-13T17:46:23.0000000+00:00</time></trkpt><trkpt lat="38.99226294" lon="-0.52413331"><ele>120.6</ele><time>2022-11-13T17:46:24.0000000+00:00</time></trkpt><trkpt lat="38.99226059" lon="-0.52413147"><ele>120.6</ele><time>2022-11-13T17:46:25.0000000+00:00</time></trkpt><trkpt lat="38.99226696" lon="-0.52414069"><ele>120.6</ele><time>2022-11-13T17:46:26.0000000+00:00</time></trkpt><trkpt lat="38.99228532" lon="-0.52414346"><ele>120.6</ele><time>2022-11-13T17:46:27.0000000+00:00</time></trkpt><trkpt lat="38.99230409" lon="-0.52416039"><ele>120.6</ele><time>2022-11-13T17:46:28.0000000+00:00</time></trkpt><trkpt lat="38.99230518" lon="-0.52417388"><ele>120.6</ele><time>2022-11-13T17:46:29.0000000+00:00</time></trkpt><trkpt lat="38.99229856" lon="-0.52418025"><ele>120.6</ele><time>2022-11-13T17:46:30.0000000+00:00</time></trkpt><trkpt lat="38.99229655" lon="-0.52419249"><ele>120.6</ele><time>2022-11-13T17:46:31.0000000+00:00</time></trkpt><trkpt lat="38.99229194" lon="-0.52421009"><ele>120.6</ele><time>2022-11-13T17:46:32.0000000+00:00</time></trkpt></trkseg><trkseg><trkpt lat="39.4832242" lon="-0.38446155"><ele>13.6</ele><time>2022-11-14T16:00:13.0000000+00:00</time></trkpt><trkpt lat="39.48303946" lon="-0.3845209"><ele>13.6</ele><time>2022-11-14T16:00:14.0000000+00:00</time></trkpt><trkpt lat="39.48291625" lon="-0.38449885"><ele>13.6</ele><time>2022-11-14T16:00:15.0000000+00:00</time></trkpt><trkpt lat="39.4828704" lon="-0.38448075"><ele>13.8</ele><time>2022-11-14T16:00:16.0000000+00:00</time></trkpt><trkpt lat="39.48285305" lon="-0.38445468"><ele>13.8</ele><time>2022-11-14T16:00:17.0000000+00:00</time></trkpt><trkpt lat="39.48285255" lon="-0.38439877"><ele>13.8</ele><time>2022-11-14T16:00:18.0000000+00:00</time></trkpt><trkpt lat="39.48283033" lon="-0.38436307"><ele>13.6</ele><time>2022-11-14T16:00:19.0000000+00:00</time></trkpt><trkpt lat="39.48280653" lon="-0.38434471"><ele>13.6</ele><time>2022-11-14T16:00:20.0000000+00:00</time></trkpt><trkpt lat="39.4827896" lon="-0.38430439"><ele>13.6</ele><time>2022-11-14T16:00:21.0000000+00:00</time></trkpt><trkpt lat="39.48277158" lon="-0.38426399"><ele>13.6</ele><time>2022-11-14T16:00:22.0000000+00:00</time></trkpt><trkpt lat="39.48275004" lon="-0.38423164"><ele>13.6</ele><time>2022-11-14T16:00:23.0000000+00:00</time></trkpt><trkpt lat="39.48271114" lon="-0.38421596"><ele>13.6</ele><time>2022-11-14T16:00:24.0000000+00:00</time></trkpt><trkpt lat="39.48264258" lon="-0.38419979"><ele>13.6</ele><time>2022-11-14T16:00:25.0000000+00:00</time></trkpt><trkpt lat="39.48257343" lon="-0.38418395"><ele>13.6</ele><time>2022-11-14T16:00:26.0000000+00:00</time></trkpt><trkpt lat="39.48251425" lon="-0.3841567"><ele>13.6</ele><time>2022-11-14T16:00:27.0000000+00:00</time></trkpt><trkpt lat="39.48245357" lon="-0.38414279"><ele>13.6</ele><time>2022-11-14T16:00:28.0000000+00:00</time></trkpt><trkpt lat="39.48239733" lon="-0.38412083"><ele>13.6</ele><time>2022-11-14T16:00:29.0000000+00:00</time></trkpt><trkpt lat="39.48237218" lon="-0.38410038"><ele>13.6</ele><time>2022-11-14T16:00:30.0000000+00:00</time></trkpt><trkpt lat="39.48234385" lon="-0.38408588"><ele>13.6</ele><time>2022-11-14T16:00:31.0000000+00:00</time></trkpt><trkpt lat="39.48234368" lon="-0.38404464"><ele>13.6</ele><time>2022-11-14T16:00:32.0000000+00:00</time></trkpt><trkpt lat="39.48229431" lon="-0.38402712"><ele>13.4</ele><time>2022-11-14T16:00:33.0000000+00:00</time></trkpt><trkpt lat="39.48223656" lon="-0.38403768"><ele>13.4</ele><time>2022-11-14T16:00:34.0000000+00:00</time></trkpt><trkpt lat="39.48223027" lon="-0.38401513"><ele>13.4</ele><time>2022-11-14T16:00:35.0000000+00:00</time></trkpt><trkpt lat="39.48223396" lon="-0.38399334"><ele>13.4</ele><time>2022-11-14T16:00:36.0000000+00:00</time></trkpt><trkpt lat="39.4822291" lon="-0.38397918"><ele>13.4</ele><time>2022-11-14T16:00:37.0000000+00:00</time></trkpt><trkpt lat="39.4822374" lon="-0.38397415"><ele>13.4</ele><time>2022-11-14T16:00:38.0000000+00:00</time></trkpt><trkpt lat="39.48220555" lon="-0.38398161"><ele>13.4</ele><time>2022-11-14T16:00:39.0000000+00:00</time></trkpt><trkpt lat="39.48217982" lon="-0.38399552"><ele>13.4</ele><time>2022-11-14T16:00:40.0000000+00:00</time></trkpt><trkpt lat="39.48213464" lon="-0.3840153"><ele>13.4</ele><time>2022-11-14T16:00:41.0000000+00:00</time></trkpt><trkpt lat="39.48208979" lon="-0.38402544"><ele>13.4</ele><time>2022-11-14T16:00:42.0000000+00:00</time></trkpt><trkpt lat="39.48208569" lon="-0.38403181"><ele>13.4</ele><time>2022-11-14T16:00:43.0000000+00:00</time></trkpt><trkpt lat="39.4820939" lon="-0.3840241"><ele>13.4</ele><time>2022-11-14T16:00:44.0000000+00:00</time></trkpt><trkpt lat="39.48209859" lon="-0.38402067"><ele>13.4</ele><time>2022-11-14T16:00:45.0000000+00:00</time></trkpt><trkpt lat="39.48209834" lon="-0.38401991"><ele>13.4</ele><time>2022-11-14T16:00:47.0000000+00:00</time></trkpt><trkpt lat="39.48211502" lon="-0.38401153"><ele>13.4</ele><time>2022-11-14T16:00:48.0000000+00:00</time></trkpt><trkpt lat="39.48213447" lon="-0.3840039"><ele>13.4</ele><time>2022-11-14T16:00:49.0000000+00:00</time></trkpt><trkpt lat="39.48215475" lon="-0.3839998"><ele>13.4</ele><time>2022-11-14T16:00:50.0000000+00:00</time></trkpt><trkpt lat="39.48218032" lon="-0.38400122"><ele>13.4</ele><time>2022-11-14T16:00:51.0000000+00:00</time></trkpt><trkpt lat="39.48218753" lon="-0.38400751"><ele>13.4</ele><time>2022-11-14T16:00:52.0000000+00:00</time></trkpt><trkpt lat="39.48218501" lon="-0.38401614"><ele>13.4</ele><time>2022-11-14T16:00:53.0000000+00:00</time></trkpt><trkpt lat="39.48217202" lon="-0.38402419"><ele>13.4</ele><time>2022-11-14T16:00:54.0000000+00:00</time></trkpt><trkpt lat="39.48214025" lon="-0.38403165"><ele>13.6</ele><time>2022-11-14T16:00:55.0000000+00:00</time></trkpt><trkpt lat="39.48209994" lon="-0.38403818"><ele>13.4</ele><time>2022-11-14T16:00:56.0000000+00:00</time></trkpt><trkpt lat="39.48205316" lon="-0.38404422"><ele>13.4</ele><time>2022-11-14T16:00:57.0000000+00:00</time></trkpt><trkpt lat="39.48203573" lon="-0.38405235"><ele>13.4</ele><time>2022-11-14T16:00:58.0000000+00:00</time></trkpt><trkpt lat="39.48197764" lon="-0.38405344"><ele>13.4</ele><time>2022-11-14T16:00:59.0000000+00:00</time></trkpt><trkpt lat="39.48193833" lon="-0.38405654"><ele>13.4</ele><time>2022-11-14T16:01:00.0000000+00:00</time></trkpt><trkpt lat="39.48191553" lon="-0.38407825"><ele>13.4</ele><time>2022-11-14T16:01:01.0000000+00:00</time></trkpt><trkpt lat="39.4818846" lon="-0.38407951"><ele>13.4</ele><time>2022-11-14T16:01:02.0000000+00:00</time></trkpt><trkpt lat="39.48187186" lon="-0.38411781"><ele>13.4</ele><time>2022-11-14T16:01:03.0000000+00:00</time></trkpt><trkpt lat="39.48185762" lon="-0.38414564"><ele>13.6</ele><time>2022-11-14T16:01:04.0000000+00:00</time></trkpt><trkpt lat="39.48183624" lon="-0.38417137"><ele>13.6</ele><time>2022-11-14T16:01:05.0000000+00:00</time></trkpt><trkpt lat="39.48181772" lon="-0.384193"><ele>13.6</ele><time>2022-11-14T16:01:06.0000000+00:00</time></trkpt><trkpt lat="39.48179919" lon="-0.38421404"><ele>13.6</ele><time>2022-11-14T16:01:07.0000000+00:00</time></trkpt><trkpt lat="39.48177916" lon="-0.38423801"><ele>13.6</ele><time>2022-11-14T16:01:08.0000000+00:00</time></trkpt><trkpt lat="39.4817546" lon="-0.38426374"><ele>13.6</ele><time>2022-11-14T16:01:09.0000000+00:00</time></trkpt><trkpt lat="39.48173298" lon="-0.38429668"><ele>13.6</ele><time>2022-11-14T16:01:10.0000000+00:00</time></trkpt><trkpt lat="39.48170984" lon="-0.38433868"><ele>13.8</ele><time>2022-11-14T16:01:11.0000000+00:00</time></trkpt><trkpt lat="39.48168637" lon="-0.38439073"><ele>13.8</ele><time>2022-11-14T16:01:12.0000000+00:00</time></trkpt><trkpt lat="39.48166156" lon="-0.38444487"><ele>13.6</ele><time>2022-11-14T16:01:13.0000000+00:00</time></trkpt><trkpt lat="39.48163248" lon="-0.38451822"><ele>13.6</ele><time>2022-11-14T16:01:14.0000000+00:00</time></trkpt><trkpt lat="39.48160247" lon="-0.38458175"><ele>13.2</ele><time>2022-11-14T16:01:15.0000000+00:00</time></trkpt><trkpt lat="39.48157892" lon="-0.3846447"><ele>13.0</ele><time>2022-11-14T16:01:16.0000000+00:00</time></trkpt><trkpt lat="39.48155796" lon="-0.38471142"><ele>12.6</ele><time>2022-11-14T16:01:17.0000000+00:00</time></trkpt><trkpt lat="39.48154271" lon="-0.38476934"><ele>12.0</ele><time>2022-11-14T16:01:18.0000000+00:00</time></trkpt><trkpt lat="39.48151647" lon="-0.38481125"><ele>11.2</ele><time>2022-11-14T16:01:19.0000000+00:00</time></trkpt><trkpt lat="39.48148931" lon="-0.38484964"><ele>10.6</ele><time>2022-11-14T16:01:20.0000000+00:00</time></trkpt><trkpt lat="39.48146626" lon="-0.38487948"><ele>10.2</ele><time>2022-11-14T16:01:21.0000000+00:00</time></trkpt><trkpt lat="39.48143701" lon="-0.38489666"><ele>10.0</ele><time>2022-11-14T16:01:22.0000000+00:00</time></trkpt><trkpt lat="39.48142653" lon="-0.38492532"><ele>9.8</ele><time>2022-11-14T16:01:23.0000000+00:00</time></trkpt><trkpt lat="39.48143098" lon="-0.3849757"><ele>9.8</ele><time>2022-11-14T16:01:24.0000000+00:00</time></trkpt><trkpt lat="39.48143609" lon="-0.38502163"><ele>9.6</ele><time>2022-11-14T16:01:25.0000000+00:00</time></trkpt><trkpt lat="39.48142176" lon="-0.38505709"><ele>9.6</ele><time>2022-11-14T16:01:26.0000000+00:00</time></trkpt><trkpt lat="39.48140156" lon="-0.38509011"><ele>9.6</ele><time>2022-11-14T16:01:27.0000000+00:00</time></trkpt><trkpt lat="39.48138353" lon="-0.38510629"><ele>9.6</ele><time>2022-11-14T16:01:28.0000000+00:00</time></trkpt><trkpt lat="39.48138236" lon="-0.38509841"><ele>9.4</ele><time>2022-11-14T16:01:29.0000000+00:00</time></trkpt><trkpt lat="39.48139695" lon="-0.38505969"><ele>9.4</ele><time>2022-11-14T16:01:30.0000000+00:00</time></trkpt><trkpt lat="39.48140432" lon="-0.38502549"><ele>9.4</ele><time>2022-11-14T16:01:31.0000000+00:00</time></trkpt><trkpt lat="39.48141312" lon="-0.38501811"><ele>9.6</ele><time>2022-11-14T16:01:32.0000000+00:00</time></trkpt><trkpt lat="39.48141312" lon="-0.38499632"><ele>9.6</ele><time>2022-11-14T16:01:33.0000000+00:00</time></trkpt><trkpt lat="39.48141782" lon="-0.3849581"><ele>9.8</ele><time>2022-11-14T16:01:34.0000000+00:00</time></trkpt><trkpt lat="39.481435" lon="-0.38491602"><ele>10.0</ele><time>2022-11-14T16:01:35.0000000+00:00</time></trkpt><trkpt lat="39.48146727" lon="-0.3848918"><ele>9.8</ele><time>2022-11-14T16:01:36.0000000+00:00</time></trkpt><trkpt lat="39.48152578" lon="-0.38480613"><ele>9.8</ele><time>2022-11-14T16:01:37.0000000+00:00</time></trkpt><trkpt lat="39.48151681" lon="-0.38469239"><ele>9.8</ele><time>2022-11-14T16:01:38.0000000+00:00</time></trkpt><trkpt lat="39.48150029" lon="-0.38458628"><ele>8.4</ele><time>2022-11-14T16:01:39.0000000+00:00</time></trkpt><trkpt lat="39.48146727" lon="-0.38446306"><ele>7.6</ele><time>2022-11-14T16:01:40.0000000+00:00</time></trkpt><trkpt lat="39.48145763" lon="-0.3843287"><ele>7.2</ele><time>2022-11-14T16:01:41.0000000+00:00</time></trkpt><trkpt lat="39.48144958" lon="-0.38421295"><ele>7.0</ele><time>2022-11-14T16:01:42.0000000+00:00</time></trkpt><trkpt lat="39.48144355" lon="-0.38411714"><ele>7.0</ele><time>2022-11-14T16:01:43.0000000+00:00</time></trkpt><trkpt lat="39.48142109" lon="-0.38403575"><ele>7.0</ele><time>2022-11-14T16:01:44.0000000+00:00</time></trkpt><trkpt lat="39.48140893" lon="-0.38396325"><ele>7.0</ele><time>2022-11-14T16:01:45.0000000+00:00</time></trkpt><trkpt lat="39.4813381" lon="-0.38387256"><ele>7.0</ele><time>2022-11-14T16:01:46.0000000+00:00</time></trkpt><trkpt lat="39.48129544" lon="-0.38377164"><ele>7.0</ele><time>2022-11-14T16:01:47.0000000+00:00</time></trkpt><trkpt lat="39.48127214" lon="-0.38368061"><ele>7.0</ele><time>2022-11-14T16:01:48.0000000+00:00</time></trkpt><trkpt lat="39.48126577" lon="-0.383604"><ele>6.8</ele><time>2022-11-14T16:01:49.0000000+00:00</time></trkpt><trkpt lat="39.48127977" lon="-0.3835294"><ele>6.4</ele><time>2022-11-14T16:01:50.0000000+00:00</time></trkpt><trkpt lat="39.48125185" lon="-0.38349638"><ele>6.2</ele><time>2022-11-14T16:01:51.0000000+00:00</time></trkpt><trkpt lat="39.4812226" lon="-0.38347425"><ele>6.0</ele><time>2022-11-14T16:01:52.0000000+00:00</time></trkpt><trkpt lat="39.48120073" lon="-0.38343184"><ele>5.8</ele><time>2022-11-14T16:01:53.0000000+00:00</time></trkpt><trkpt lat="39.48116561" lon="-0.38336763"><ele>5.6</ele><time>2022-11-14T16:01:55.0000000+00:00</time></trkpt><trkpt lat="39.4811294" lon="-0.38336495"><ele>5.8</ele><time>2022-11-14T16:01:56.0000000+00:00</time></trkpt><trkpt lat="39.4810988" lon="-0.38335833"><ele>5.8</ele><time>2022-11-14T16:01:57.0000000+00:00</time></trkpt><trkpt lat="39.48107299" lon="-0.38334676"><ele>6.0</ele><time>2022-11-14T16:01:58.0000000+00:00</time></trkpt><trkpt lat="39.48104449" lon="-0.3833357"><ele>6.0</ele><time>2022-11-14T16:01:59.0000000+00:00</time></trkpt><trkpt lat="39.48102085" lon="-0.38332782"><ele>6.0</ele><time>2022-11-14T16:02:00.0000000+00:00</time></trkpt><trkpt lat="39.48100098" lon="-0.3833222"><ele>6.0</ele><time>2022-11-14T16:02:01.0000000+00:00</time></trkpt><trkpt lat="39.48098003" lon="-0.38331198"><ele>6.0</ele><time>2022-11-14T16:02:02.0000000+00:00</time></trkpt><trkpt lat="39.48095673" lon="-0.38329605"><ele>6.0</ele><time>2022-11-14T16:02:03.0000000+00:00</time></trkpt><trkpt lat="39.48090686" lon="-0.38326194"><ele>5.8</ele><time>2022-11-14T16:02:04.0000000+00:00</time></trkpt><trkpt lat="39.4809569" lon="-0.38318373"><ele>5.8</ele><time>2022-11-14T16:02:05.0000000+00:00</time></trkpt><trkpt lat="39.48087115" lon="-0.38312523"><ele>5.8</ele><time>2022-11-14T16:02:06.0000000+00:00</time></trkpt><trkpt lat="39.48093561" lon="-0.38305574"><ele>5.8</ele><time>2022-11-14T16:02:07.0000000+00:00</time></trkpt><trkpt lat="39.48095388" lon="-0.38300092"><ele>6.0</ele><time>2022-11-14T16:02:08.0000000+00:00</time></trkpt><trkpt lat="39.48097819" lon="-0.3829534"><ele>6.0</ele><time>2022-11-14T16:02:09.0000000+00:00</time></trkpt><trkpt lat="39.48100308" lon="-0.38290956"><ele>6.0</ele><time>2022-11-14T16:02:10.0000000+00:00</time></trkpt><trkpt lat="39.4810325" lon="-0.3828586"><ele>6.0</ele><time>2022-11-14T16:02:11.0000000+00:00</time></trkpt><trkpt lat="39.48107357" lon="-0.3828244"><ele>6.2</ele><time>2022-11-14T16:02:12.0000000+00:00</time></trkpt><trkpt lat="39.4811154" lon="-0.38277428"><ele>6.2</ele><time>2022-11-14T16:02:13.0000000+00:00</time></trkpt><trkpt lat="39.48114105" lon="-0.38270127"><ele>6.2</ele><time>2022-11-14T16:02:14.0000000+00:00</time></trkpt><trkpt lat="39.48117365" lon="-0.38262726"><ele>6.2</ele><time>2022-11-14T16:02:15.0000000+00:00</time></trkpt><trkpt lat="39.48120693" lon="-0.38255517"><ele>6.2</ele><time>2022-11-14T16:02:16.0000000+00:00</time></trkpt><trkpt lat="39.48124079" lon="-0.3824758"><ele>6.2</ele><time>2022-11-14T16:02:17.0000000+00:00</time></trkpt><trkpt lat="39.48126971" lon="-0.38241369"><ele>6.4</ele><time>2022-11-14T16:02:18.0000000+00:00</time></trkpt><trkpt lat="39.48130533" lon="-0.38232853"><ele>6.6</ele><time>2022-11-14T16:02:19.0000000+00:00</time></trkpt><trkpt lat="39.4813288" lon="-0.38226281"><ele>6.6</ele><time>2022-11-14T16:02:20.0000000+00:00</time></trkpt><trkpt lat="39.48134716" lon="-0.38219333"><ele>6.6</ele><time>2022-11-14T16:02:21.0000000+00:00</time></trkpt><trkpt lat="39.48135914" lon="-0.38211261"><ele>6.6</ele><time>2022-11-14T16:02:22.0000000+00:00</time></trkpt><trkpt lat="39.48138295" lon="-0.38203089"><ele>6.6</ele><time>2022-11-14T16:02:23.0000000+00:00</time></trkpt><trkpt lat="39.48140583" lon="-0.38195662"><ele>6.4</ele><time>2022-11-14T16:02:24.0000000+00:00</time></trkpt><trkpt lat="39.48142561" lon="-0.38187574"><ele>6.4</ele><time>2022-11-14T16:02:25.0000000+00:00</time></trkpt><trkpt lat="39.48144824" lon="-0.38178597"><ele>6.4</ele><time>2022-11-14T16:02:26.0000000+00:00</time></trkpt><trkpt lat="39.48147431" lon="-0.38170005"><ele>6.4</ele><time>2022-11-14T16:02:27.0000000+00:00</time></trkpt><trkpt lat="39.48150507" lon="-0.38161322"><ele>6.4</ele><time>2022-11-14T16:02:28.0000000+00:00</time></trkpt><trkpt lat="39.48153751" lon="-0.38152931"><ele>6.4</ele><time>2022-11-14T16:02:29.0000000+00:00</time></trkpt><trkpt lat="39.48156551" lon="-0.38146813"><ele>6.6</ele><time>2022-11-14T16:02:30.0000000+00:00</time></trkpt><trkpt lat="39.48160683" lon="-0.38138162"><ele>6.6</ele><time>2022-11-14T16:02:31.0000000+00:00</time></trkpt><trkpt lat="39.48163675" lon="-0.38130602"><ele>6.6</ele><time>2022-11-14T16:02:32.0000000+00:00</time></trkpt><trkpt lat="39.48165687" lon="-0.3812445"><ele>6.6</ele><time>2022-11-14T16:02:33.0000000+00:00</time></trkpt><trkpt lat="39.48168545" lon="-0.38115464"><ele>6.6</ele><time>2022-11-14T16:02:34.0000000+00:00</time></trkpt><trkpt lat="39.48171395" lon="-0.38107803"><ele>6.6</ele><time>2022-11-14T16:02:35.0000000+00:00</time></trkpt><trkpt lat="39.48175184" lon="-0.38099807"><ele>6.4</ele><time>2022-11-14T16:02:36.0000000+00:00</time></trkpt><trkpt lat="39.48179048" lon="-0.38091718"><ele>6.4</ele><time>2022-11-14T16:02:37.0000000+00:00</time></trkpt><trkpt lat="39.48183188" lon="-0.38083563"><ele>6.4</ele><time>2022-11-14T16:02:38.0000000+00:00</time></trkpt><trkpt lat="39.48187145" lon="-0.38075524"><ele>6.4</ele><time>2022-11-14T16:02:39.0000000+00:00</time></trkpt><trkpt lat="39.48191118" lon="-0.38067587"><ele>6.4</ele><time>2022-11-14T16:02:40.0000000+00:00</time></trkpt><trkpt lat="39.48195049" lon="-0.38059783"><ele>6.2</ele><time>2022-11-14T16:02:41.0000000+00:00</time></trkpt><trkpt lat="39.48198795" lon="-0.38051762"><ele>6.2</ele><time>2022-11-14T16:02:42.0000000+00:00</time></trkpt><trkpt lat="39.48201545" lon="-0.38045165"><ele>6.4</ele><time>2022-11-14T16:02:43.0000000+00:00</time></trkpt><trkpt lat="39.48205132" lon="-0.38035082"><ele>6.2</ele><time>2022-11-14T16:02:44.0000000+00:00</time></trkpt><trkpt lat="39.4820732" lon="-0.38028418"><ele>6.2</ele><time>2022-11-14T16:02:45.0000000+00:00</time></trkpt><trkpt lat="39.48209616" lon="-0.38019726"><ele>6.4</ele><time>2022-11-14T16:02:46.0000000+00:00</time></trkpt><trkpt lat="39.48211662" lon="-0.38008469"><ele>6.4</ele><time>2022-11-14T16:02:47.0000000+00:00</time></trkpt><trkpt lat="39.48213279" lon="-0.37999157"><ele>6.4</ele><time>2022-11-14T16:02:48.0000000+00:00</time></trkpt><trkpt lat="39.48214863" lon="-0.37989736"><ele>6.4</ele><time>2022-11-14T16:02:49.0000000+00:00</time></trkpt><trkpt lat="39.4821545" lon="-0.37982569"><ele>6.2</ele><time>2022-11-14T16:02:50.0000000+00:00</time></trkpt><trkpt lat="39.4821607" lon="-0.37973383"><ele>6.2</ele><time>2022-11-14T16:02:51.0000000+00:00</time></trkpt><trkpt lat="39.48216339" lon="-0.37963039"><ele>6.2</ele><time>2022-11-14T16:02:52.0000000+00:00</time></trkpt><trkpt lat="39.48215249" lon="-0.37953895"><ele>6.2</ele><time>2022-11-14T16:02:53.0000000+00:00</time></trkpt><trkpt lat="39.48213589" lon="-0.37945027"><ele>6.2</ele><time>2022-11-14T16:02:54.0000000+00:00</time></trkpt><trkpt lat="39.48211578" lon="-0.37936779"><ele>6.2</ele><time>2022-11-14T16:02:55.0000000+00:00</time></trkpt><trkpt lat="39.48209382" lon="-0.37928808"><ele>6.2</ele><time>2022-11-14T16:02:56.0000000+00:00</time></trkpt><trkpt lat="39.48206716" lon="-0.37923167"><ele>6.2</ele><time>2022-11-14T16:02:57.0000000+00:00</time></trkpt><trkpt lat="39.48202835" lon="-0.37917031"><ele>6.0</ele><time>2022-11-14T16:02:58.0000000+00:00</time></trkpt><trkpt lat="39.48199122" lon="-0.37912555"><ele>6.0</ele><time>2022-11-14T16:02:59.0000000+00:00</time></trkpt><trkpt lat="39.48194051" lon="-0.37909051"><ele>5.8</ele><time>2022-11-14T16:03:00.0000000+00:00</time></trkpt><trkpt lat="39.48189793" lon="-0.37906998"><ele>5.6</ele><time>2022-11-14T16:03:01.0000000+00:00</time></trkpt><trkpt lat="39.48186122" lon="-0.37904693"><ele>5.6</ele><time>2022-11-14T16:03:02.0000000+00:00</time></trkpt><trkpt lat="39.4818349" lon="-0.37902639"><ele>5.4</ele><time>2022-11-14T16:03:03.0000000+00:00</time></trkpt><trkpt lat="39.48179861" lon="-0.37898457"><ele>5.4</ele><time>2022-11-14T16:03:04.0000000+00:00</time></trkpt><trkpt lat="39.48176122" lon="-0.37894014"><ele>5.4</ele><time>2022-11-14T16:03:05.0000000+00:00</time></trkpt><trkpt lat="39.4817349" lon="-0.37888859"><ele>5.4</ele><time>2022-11-14T16:03:06.0000000+00:00</time></trkpt><trkpt lat="39.48171856" lon="-0.3788228"><ele>5.4</ele><time>2022-11-14T16:03:07.0000000+00:00</time></trkpt><trkpt lat="39.48171319" lon="-0.37874275"><ele>5.4</ele><time>2022-11-14T16:03:08.0000000+00:00</time></trkpt><trkpt lat="39.48171454" lon="-0.37865683"><ele>5.4</ele><time>2022-11-14T16:03:09.0000000+00:00</time></trkpt><trkpt lat="39.4817194" lon="-0.37858659"><ele>5.6</ele><time>2022-11-14T16:03:10.0000000+00:00</time></trkpt><trkpt lat="39.48172334" lon="-0.37850286"><ele>5.6</ele><time>2022-11-14T16:03:11.0000000+00:00</time></trkpt><trkpt lat="39.48171822" lon="-0.37842147"><ele>5.6</ele><time>2022-11-14T16:03:12.0000000+00:00</time></trkpt><trkpt lat="39.48171856" lon="-0.37832131"><ele>5.6</ele><time>2022-11-14T16:03:13.0000000+00:00</time></trkpt><trkpt lat="39.48171252" lon="-0.37823405"><ele>5.8</ele><time>2022-11-14T16:03:14.0000000+00:00</time></trkpt><trkpt lat="39.48170205" lon="-0.37814822"><ele>5.8</ele><time>2022-11-14T16:03:15.0000000+00:00</time></trkpt><trkpt lat="39.48169517" lon="-0.37806708"><ele>5.8</ele><time>2022-11-14T16:03:16.0000000+00:00</time></trkpt><trkpt lat="39.48168771" lon="-0.37799257"><ele>5.6</ele><time>2022-11-14T16:03:17.0000000+00:00</time></trkpt><trkpt lat="39.48167791" lon="-0.37792719"><ele>5.4</ele><time>2022-11-14T16:03:18.0000000+00:00</time></trkpt><trkpt lat="39.48165729" lon="-0.3778686"><ele>5.2</ele><time>2022-11-14T16:03:19.0000000+00:00</time></trkpt><trkpt lat="39.48160758" lon="-0.37780624"><ele>5.2</ele><time>2022-11-14T16:03:20.0000000+00:00</time></trkpt><trkpt lat="39.48155754" lon="-0.37774371"><ele>5.2</ele><time>2022-11-14T16:03:21.0000000+00:00</time></trkpt><trkpt lat="39.48150516" lon="-0.3776723"><ele>5.4</ele><time>2022-11-14T16:03:22.0000000+00:00</time></trkpt><trkpt lat="39.48145344" lon="-0.37760222"><ele>5.6</ele><time>2022-11-14T16:03:23.0000000+00:00</time></trkpt><trkpt lat="39.48142251" lon="-0.37755805"><ele>5.8</ele><time>2022-11-14T16:03:24.0000000+00:00</time></trkpt><trkpt lat="39.4813884" lon="-0.37749896"><ele>6.0</ele><time>2022-11-14T16:03:25.0000000+00:00</time></trkpt><trkpt lat="39.48136141" lon="-0.37743467"><ele>6.2</ele><time>2022-11-14T16:03:26.0000000+00:00</time></trkpt><trkpt lat="39.48133308" lon="-0.37736921"><ele>6.4</ele><time>2022-11-14T16:03:27.0000000+00:00</time></trkpt><trkpt lat="39.48129678" lon="-0.37730844"><ele>6.6</ele><time>2022-11-14T16:03:28.0000000+00:00</time></trkpt><trkpt lat="39.48125018" lon="-0.37725614"><ele>6.6</ele><time>2022-11-14T16:03:29.0000000+00:00</time></trkpt><trkpt lat="39.48118455" lon="-0.37719595"><ele>6.6</ele><time>2022-11-14T16:03:30.0000000+00:00</time></trkpt><trkpt lat="39.48112303" lon="-0.37714575"><ele>6.8</ele><time>2022-11-14T16:03:31.0000000+00:00</time></trkpt><trkpt lat="39.4810662" lon="-0.377089"><ele>6.6</ele><time>2022-11-14T16:03:32.0000000+00:00</time></trkpt><trkpt lat="39.48101196" lon="-0.37701935"><ele>6.6</ele><time>2022-11-14T16:03:33.0000000+00:00</time></trkpt><trkpt lat="39.48097215" lon="-0.37694936"><ele>6.6</ele><time>2022-11-14T16:03:34.0000000+00:00</time></trkpt><trkpt lat="39.48093988" lon="-0.37686621"><ele>6.6</ele><time>2022-11-14T16:03:35.0000000+00:00</time></trkpt><trkpt lat="39.48089596" lon="-0.37678985"><ele>6.4</ele><time>2022-11-14T16:03:36.0000000+00:00</time></trkpt><trkpt lat="39.48084332" lon="-0.37669564"><ele>6.4</ele><time>2022-11-14T16:03:37.0000000+00:00</time></trkpt><trkpt lat="39.48079948" lon="-0.37661274"><ele>6.2</ele><time>2022-11-14T16:03:38.0000000+00:00</time></trkpt><trkpt lat="39.48075179" lon="-0.37652716"><ele>6.2</ele><time>2022-11-14T16:03:39.0000000+00:00</time></trkpt><trkpt lat="39.48070351" lon="-0.37643965"><ele>6.2</ele><time>2022-11-14T16:03:40.0000000+00:00</time></trkpt><trkpt lat="39.48066915" lon="-0.37636807"><ele>6.0</ele><time>2022-11-14T16:03:41.0000000+00:00</time></trkpt><trkpt lat="39.48062715" lon="-0.3762887"><ele>6.0</ele><time>2022-11-14T16:03:42.0000000+00:00</time></trkpt><trkpt lat="39.48057929" lon="-0.37618945"><ele>6.0</ele><time>2022-11-14T16:03:43.0000000+00:00</time></trkpt><trkpt lat="39.48053604" lon="-0.37610941"><ele>6.0</ele><time>2022-11-14T16:03:44.0000000+00:00</time></trkpt><trkpt lat="39.48049782" lon="-0.37602961"><ele>6.0</ele><time>2022-11-14T16:03:45.0000000+00:00</time></trkpt><trkpt lat="39.4804684" lon="-0.37596289"><ele>6.0</ele><time>2022-11-14T16:03:46.0000000+00:00</time></trkpt><trkpt lat="39.48043688" lon="-0.3758613"><ele>5.8</ele><time>2022-11-14T16:03:47.0000000+00:00</time></trkpt><trkpt lat="39.48041727" lon="-0.37579668"><ele>5.8</ele><time>2022-11-14T16:03:48.0000000+00:00</time></trkpt><trkpt lat="39.48038659" lon="-0.37571915"><ele>5.8</ele><time>2022-11-14T16:03:49.0000000+00:00</time></trkpt><trkpt lat="39.48034745" lon="-0.37562954"><ele>5.6</ele><time>2022-11-14T16:03:50.0000000+00:00</time></trkpt><trkpt lat="39.48031719" lon="-0.37555385"><ele>5.6</ele><time>2022-11-14T16:03:51.0000000+00:00</time></trkpt><trkpt lat="39.48029229" lon="-0.37549225"><ele>5.6</ele><time>2022-11-14T16:03:52.0000000+00:00</time></trkpt><trkpt lat="39.48024795" lon="-0.37540591"><ele>5.6</ele><time>2022-11-14T16:03:53.0000000+00:00</time></trkpt><trkpt lat="39.48024301" lon="-0.37532763"><ele>5.6</ele><time>2022-11-14T16:03:54.0000000+00:00</time></trkpt><trkpt lat="39.48021317" lon="-0.37525873"><ele>5.6</ele><time>2022-11-14T16:03:55.0000000+00:00</time></trkpt><trkpt lat="39.48016305" lon="-0.37517918"><ele>5.4</ele><time>2022-11-14T16:03:56.0000000+00:00</time></trkpt><trkpt lat="39.48010001" lon="-0.37508598"><ele>5.4</ele><time>2022-11-14T16:03:57.0000000+00:00</time></trkpt><trkpt lat="39.48004159" lon="-0.37498757"><ele>5.4</ele><time>2022-11-14T16:03:58.0000000+00:00</time></trkpt><trkpt lat="39.47998912" lon="-0.37489554"><ele>5.2</ele><time>2022-11-14T16:03:59.0000000+00:00</time></trkpt><trkpt lat="39.47993833" lon="-0.37481692"><ele>5.2</ele><time>2022-11-14T16:04:00.0000000+00:00</time></trkpt><trkpt lat="39.47988812" lon="-0.37475095"><ele>5.2</ele><time>2022-11-14T16:04:01.0000000+00:00</time></trkpt><trkpt lat="39.47984772" lon="-0.37468758"><ele>5.2</ele><time>2022-11-14T16:04:02.0000000+00:00</time></trkpt><trkpt lat="39.47980321" lon="-0.37462028"><ele>5.2</ele><time>2022-11-14T16:04:03.0000000+00:00</time></trkpt><trkpt lat="39.47974152" lon="-0.37455616"><ele>5.2</ele><time>2022-11-14T16:04:04.0000000+00:00</time></trkpt><trkpt lat="39.4796914" lon="-0.37452607"><ele>5.2</ele><time>2022-11-14T16:04:05.0000000+00:00</time></trkpt><trkpt lat="39.47963784" lon="-0.37450385"><ele>5.2</ele><time>2022-11-14T16:04:06.0000000+00:00</time></trkpt><trkpt lat="39.47958947" lon="-0.37448139"><ele>5.2</ele><time>2022-11-14T16:04:07.0000000+00:00</time></trkpt><trkpt lat="39.47952082" lon="-0.37444954"><ele>5.2</ele><time>2022-11-14T16:04:08.0000000+00:00</time></trkpt><trkpt lat="39.47945955" lon="-0.37436723"><ele>5.2</ele><time>2022-11-14T16:04:09.0000000+00:00</time></trkpt><trkpt lat="39.47940465" lon="-0.3742855"><ele>5.0</ele><time>2022-11-14T16:04:10.0000000+00:00</time></trkpt><trkpt lat="39.47936668" lon="-0.37421384"><ele>5.0</ele><time>2022-11-14T16:04:11.0000000+00:00</time></trkpt><trkpt lat="39.4793241" lon="-0.37412759"><ele>5.0</ele><time>2022-11-14T16:04:12.0000000+00:00</time></trkpt><trkpt lat="39.47928353" lon="-0.37404"><ele>5.2</ele><time>2022-11-14T16:04:13.0000000+00:00</time></trkpt><trkpt lat="39.47923685" lon="-0.37395844"><ele>5.2</ele><time>2022-11-14T16:04:14.0000000+00:00</time></trkpt><trkpt lat="39.47919251" lon="-0.37388007"><ele>5.2</ele><time>2022-11-14T16:04:15.0000000+00:00</time></trkpt><trkpt lat="39.47913735" lon="-0.373796"><ele>5.4</ele><time>2022-11-14T16:04:16.0000000+00:00</time></trkpt><trkpt lat="39.47908832" lon="-0.37370984"><ele>5.6</ele><time>2022-11-14T16:04:17.0000000+00:00</time></trkpt><trkpt lat="39.47904658" lon="-0.3736235"><ele>5.8</ele><time>2022-11-14T16:04:18.0000000+00:00</time></trkpt><trkpt lat="39.47900651" lon="-0.37353113"><ele>5.8</ele><time>2022-11-14T16:04:19.0000000+00:00</time></trkpt><trkpt lat="39.47895823" lon="-0.37343399"><ele>5.8</ele><time>2022-11-14T16:04:20.0000000+00:00</time></trkpt><trkpt lat="39.4789159" lon="-0.3733438"><ele>5.6</ele><time>2022-11-14T16:04:21.0000000+00:00</time></trkpt><trkpt lat="39.47886217" lon="-0.37325193"><ele>5.6</ele><time>2022-11-14T16:04:22.0000000+00:00</time></trkpt><trkpt lat="39.47882085" lon="-0.37319133"><ele>5.6</ele><time>2022-11-14T16:04:23.0000000+00:00</time></trkpt><trkpt lat="39.47876838" lon="-0.37311514"><ele>5.6</ele><time>2022-11-14T16:04:24.0000000+00:00</time></trkpt><trkpt lat="39.47872169" lon="-0.37302797"><ele>5.6</ele><time>2022-11-14T16:04:25.0000000+00:00</time></trkpt><trkpt lat="39.47867249" lon="-0.3729351"><ele>5.4</ele><time>2022-11-14T16:04:26.0000000+00:00</time></trkpt><trkpt lat="39.47861214" lon="-0.37285119"><ele>5.4</ele><time>2022-11-14T16:04:27.0000000+00:00</time></trkpt><trkpt lat="39.47855095" lon="-0.37276872"><ele>5.2</ele><time>2022-11-14T16:04:28.0000000+00:00</time></trkpt><trkpt lat="39.47850351" lon="-0.37269051"><ele>5.2</ele><time>2022-11-14T16:04:29.0000000+00:00</time></trkpt><trkpt lat="39.4784632" lon="-0.37261667"><ele>5.0</ele><time>2022-11-14T16:04:30.0000000+00:00</time></trkpt><trkpt lat="39.47841869" lon="-0.37253193"><ele>4.8</ele><time>2022-11-14T16:04:31.0000000+00:00</time></trkpt><trkpt lat="39.47838994" lon="-0.37247736"><ele>4.8</ele><time>2022-11-14T16:04:32.0000000+00:00</time></trkpt><trkpt lat="39.47835624" lon="-0.37240435"><ele>4.8</ele><time>2022-11-14T16:04:33.0000000+00:00</time></trkpt><trkpt lat="39.47831559" lon="-0.37230964"><ele>4.8</ele><time>2022-11-14T16:04:34.0000000+00:00</time></trkpt><trkpt lat="39.47828282" lon="-0.37223965"><ele>5.0</ele><time>2022-11-14T16:04:35.0000000+00:00</time></trkpt><trkpt lat="39.47823512" lon="-0.37215474"><ele>5.0</ele><time>2022-11-14T16:04:36.0000000+00:00</time></trkpt><trkpt lat="39.478185" lon="-0.37207654"><ele>5.2</ele><time>2022-11-14T16:04:37.0000000+00:00</time></trkpt><trkpt lat="39.47813362" lon="-0.37200127"><ele>5.4</ele><time>2022-11-14T16:04:38.0000000+00:00</time></trkpt><trkpt lat="39.47807411" lon="-0.37191032"><ele>5.4</ele><time>2022-11-14T16:04:39.0000000+00:00</time></trkpt><trkpt lat="39.47803136" lon="-0.37184604"><ele>5.4</ele><time>2022-11-14T16:04:40.0000000+00:00</time></trkpt><trkpt lat="39.47797034" lon="-0.37175207"><ele>5.4</ele><time>2022-11-14T16:04:41.0000000+00:00</time></trkpt><trkpt lat="39.477941" lon="-0.37168636"><ele>5.4</ele><time>2022-11-14T16:04:42.0000000+00:00</time></trkpt><trkpt lat="39.47790681" lon="-0.37160103"><ele>5.4</ele><time>2022-11-14T16:04:43.0000000+00:00</time></trkpt><trkpt lat="39.47786389" lon="-0.37152593"><ele>5.4</ele><time>2022-11-14T16:04:44.0000000+00:00</time></trkpt><trkpt lat="39.47781595" lon="-0.37144345"><ele>5.4</ele><time>2022-11-14T16:04:45.0000000+00:00</time></trkpt><trkpt lat="39.47776306" lon="-0.37134606"><ele>5.4</ele><time>2022-11-14T16:04:46.0000000+00:00</time></trkpt><trkpt lat="39.47771184" lon="-0.37127732"><ele>5.2</ele><time>2022-11-14T16:04:47.0000000+00:00</time></trkpt><trkpt lat="39.47765811" lon="-0.37121127"><ele>5.2</ele><time>2022-11-14T16:04:48.0000000+00:00</time></trkpt><trkpt lat="39.47760455" lon="-0.37114263"><ele>5.2</ele><time>2022-11-14T16:04:49.0000000+00:00</time></trkpt><trkpt lat="39.47755259" lon="-0.37106945"><ele>5.2</ele><time>2022-11-14T16:04:50.0000000+00:00</time></trkpt><trkpt lat="39.47750414" lon="-0.37098798"><ele>5.2</ele><time>2022-11-14T16:04:51.0000000+00:00</time></trkpt><trkpt lat="39.47745418" lon="-0.37091003"><ele>5.2</ele><time>2022-11-14T16:04:52.0000000+00:00</time></trkpt><trkpt lat="39.47740481" lon="-0.37083199"><ele>5.2</ele><time>2022-11-14T16:04:53.0000000+00:00</time></trkpt><trkpt lat="39.47735829" lon="-0.37075044"><ele>5.2</ele><time>2022-11-14T16:04:54.0000000+00:00</time></trkpt><trkpt lat="39.47732292" lon="-0.37067835"><ele>5.2</ele><time>2022-11-14T16:04:55.0000000+00:00</time></trkpt><trkpt lat="39.47727397" lon="-0.37059839"><ele>5.2</ele><time>2022-11-14T16:04:56.0000000+00:00</time></trkpt><trkpt lat="39.47721513" lon="-0.37049932"><ele>5.2</ele><time>2022-11-14T16:04:57.0000000+00:00</time></trkpt><trkpt lat="39.47716819" lon="-0.37041248"><ele>5.0</ele><time>2022-11-14T16:04:58.0000000+00:00</time></trkpt><trkpt lat="39.47711941" lon="-0.37034199"><ele>5.0</ele><time>2022-11-14T16:04:59.0000000+00:00</time></trkpt><trkpt lat="39.47708018" lon="-0.3702865"><ele>5.0</ele><time>2022-11-14T16:05:00.0000000+00:00</time></trkpt><trkpt lat="39.47703257" lon="-0.37021156"><ele>5.0</ele><time>2022-11-14T16:05:01.0000000+00:00</time></trkpt><trkpt lat="39.47697708" lon="-0.37012146"><ele>5.0</ele><time>2022-11-14T16:05:02.0000000+00:00</time></trkpt><trkpt lat="39.47692931" lon="-0.37005415"><ele>4.8</ele><time>2022-11-14T16:05:03.0000000+00:00</time></trkpt><trkpt lat="39.47688337" lon="-0.36998659"><ele>4.8</ele><time>2022-11-14T16:05:04.0000000+00:00</time></trkpt><trkpt lat="39.47684549" lon="-0.36991736"><ele>4.8</ele><time>2022-11-14T16:05:05.0000000+00:00</time></trkpt><trkpt lat="39.47681238" lon="-0.36985802"><ele>4.8</ele><time>2022-11-14T16:05:06.0000000+00:00</time></trkpt><trkpt lat="39.47676075" lon="-0.36976246"><ele>4.8</ele><time>2022-11-14T16:05:07.0000000+00:00</time></trkpt><trkpt lat="39.47673141" lon="-0.36969574"><ele>4.8</ele><time>2022-11-14T16:05:08.0000000+00:00</time></trkpt><trkpt lat="39.4766895" lon="-0.36960228"><ele>4.6</ele><time>2022-11-14T16:05:09.0000000+00:00</time></trkpt><trkpt lat="39.47664323" lon="-0.36953489"><ele>4.6</ele><time>2022-11-14T16:05:10.0000000+00:00</time></trkpt><trkpt lat="39.47659814" lon="-0.36947304"><ele>4.4</ele><time>2022-11-14T16:05:11.0000000+00:00</time></trkpt><trkpt lat="39.47655975" lon="-0.36941411"><ele>4.4</ele><time>2022-11-14T16:05:12.0000000+00:00</time></trkpt><trkpt lat="39.47651122" lon="-0.36935208"><ele>4.6</ele><time>2022-11-14T16:05:13.0000000+00:00</time></trkpt><trkpt lat="39.47645447" lon="-0.36928302"><ele>4.6</ele><time>2022-11-14T16:05:14.0000000+00:00</time></trkpt><trkpt lat="39.476387" lon="-0.36921613"><ele>4.6</ele><time>2022-11-14T16:05:15.0000000+00:00</time></trkpt><trkpt lat="39.47626496" lon="-0.36907674"><ele>4.4</ele><time>2022-11-14T16:05:17.0000000+00:00</time></trkpt><trkpt lat="39.47620545" lon="-0.36900935"><ele>4.4</ele><time>2022-11-14T16:05:18.0000000+00:00</time></trkpt><trkpt lat="39.47615197" lon="-0.3689516"><ele>4.2</ele><time>2022-11-14T16:05:19.0000000+00:00</time></trkpt><trkpt lat="39.47611316" lon="-0.3689039"><ele>4.0</ele><time>2022-11-14T16:05:20.0000000+00:00</time></trkpt><trkpt lat="39.47607729" lon="-0.36885009"><ele>4.0</ele><time>2022-11-14T16:05:21.0000000+00:00</time></trkpt><trkpt lat="39.47607603" lon="-0.36878823"><ele>3.8</ele><time>2022-11-14T16:05:22.0000000+00:00</time></trkpt><trkpt lat="39.47607611" lon="-0.36872378"><ele>3.6</ele><time>2022-11-14T16:05:23.0000000+00:00</time></trkpt><trkpt lat="39.47607963" lon="-0.36866427"><ele>3.4</ele><time>2022-11-14T16:05:24.0000000+00:00</time></trkpt><trkpt lat="39.4760762" lon="-0.36858891"><ele>3.4</ele><time>2022-11-14T16:05:25.0000000+00:00</time></trkpt><trkpt lat="39.47606572" lon="-0.36850233"><ele>3.4</ele><time>2022-11-14T16:05:26.0000000+00:00</time></trkpt><trkpt lat="39.476042" lon="-0.3684341"><ele>3.4</ele><time>2022-11-14T16:05:27.0000000+00:00</time></trkpt><trkpt lat="39.47600562" lon="-0.36836973"><ele>3.4</ele><time>2022-11-14T16:05:28.0000000+00:00</time></trkpt><trkpt lat="39.4759726" lon="-0.36830728"><ele>3.4</ele><time>2022-11-14T16:05:29.0000000+00:00</time></trkpt><trkpt lat="39.47594066" lon="-0.36824827"><ele>3.4</ele><time>2022-11-14T16:05:30.0000000+00:00</time></trkpt><trkpt lat="39.47590529" lon="-0.36820502"><ele>3.2</ele><time>2022-11-14T16:05:31.0000000+00:00</time></trkpt><trkpt lat="39.47587394" lon="-0.36817116"><ele>3.2</ele><time>2022-11-14T16:05:32.0000000+00:00</time></trkpt><trkpt lat="39.47583572" lon="-0.36814048"><ele>3.0</ele><time>2022-11-14T16:05:33.0000000+00:00</time></trkpt><trkpt lat="39.47578752" lon="-0.36810335"><ele>3.0</ele><time>2022-11-14T16:05:34.0000000+00:00</time></trkpt><trkpt lat="39.47573614" lon="-0.36807368"><ele>3.0</ele><time>2022-11-14T16:05:35.0000000+00:00</time></trkpt><trkpt lat="39.47568208" lon="-0.36804535"><ele>3.0</ele><time>2022-11-14T16:05:36.0000000+00:00</time></trkpt><trkpt lat="39.47562131" lon="-0.36801668"><ele>3.0</ele><time>2022-11-14T16:05:37.0000000+00:00</time></trkpt><trkpt lat="39.47556775" lon="-0.36798248"><ele>3.0</ele><time>2022-11-14T16:05:38.0000000+00:00</time></trkpt><trkpt lat="39.47551662" lon="-0.36793898"><ele>3.0</ele><time>2022-11-14T16:05:39.0000000+00:00</time></trkpt><trkpt lat="39.47547362" lon="-0.36789648"><ele>3.0</ele><time>2022-11-14T16:05:40.0000000+00:00</time></trkpt><trkpt lat="39.47543247" lon="-0.36785323"><ele>3.2</ele><time>2022-11-14T16:05:41.0000000+00:00</time></trkpt><trkpt lat="39.4753665" lon="-0.36779657"><ele>3.2</ele><time>2022-11-14T16:05:42.0000000+00:00</time></trkpt><trkpt lat="39.47532317" lon="-0.36775181"><ele>3.2</ele><time>2022-11-14T16:05:43.0000000+00:00</time></trkpt><trkpt lat="39.47526718" lon="-0.36768979"><ele>3.2</ele><time>2022-11-14T16:05:44.0000000+00:00</time></trkpt><trkpt lat="39.47520657" lon="-0.36763639"><ele>3.2</ele><time>2022-11-14T16:05:45.0000000+00:00</time></trkpt><trkpt lat="39.4751365" lon="-0.36757872"><ele>3.2</ele><time>2022-11-14T16:05:46.0000000+00:00</time></trkpt><trkpt lat="39.47507925" lon="-0.36752843"><ele>3.2</ele><time>2022-11-14T16:05:47.0000000+00:00</time></trkpt><trkpt lat="39.47503382" lon="-0.36748393"><ele>3.2</ele><time>2022-11-14T16:05:48.0000000+00:00</time></trkpt><trkpt lat="39.47498345" lon="-0.3674328"><ele>3.2</ele><time>2022-11-14T16:05:49.0000000+00:00</time></trkpt><trkpt lat="39.47491782" lon="-0.36737085"><ele>3.0</ele><time>2022-11-14T16:05:50.0000000+00:00</time></trkpt><trkpt lat="39.47485998" lon="-0.36731528"><ele>3.0</ele><time>2022-11-14T16:05:51.0000000+00:00</time></trkpt><trkpt lat="39.4748029" lon="-0.36725778"><ele>2.8</ele><time>2022-11-14T16:05:52.0000000+00:00</time></trkpt><trkpt lat="39.47475747" lon="-0.36721671"><ele>2.8</ele><time>2022-11-14T16:05:53.0000000+00:00</time></trkpt><trkpt lat="39.47471246" lon="-0.36717363"><ele>2.8</ele><time>2022-11-14T16:05:54.0000000+00:00</time></trkpt><trkpt lat="39.47467173" lon="-0.36711881"><ele>2.8</ele><time>2022-11-14T16:05:55.0000000+00:00</time></trkpt><trkpt lat="39.47463325" lon="-0.36707673"><ele>2.8</ele><time>2022-11-14T16:05:56.0000000+00:00</time></trkpt><trkpt lat="39.4745843" lon="-0.36701462"><ele>2.6</ele><time>2022-11-14T16:05:57.0000000+00:00</time></trkpt><trkpt lat="39.4745553" lon="-0.36694698"><ele>2.6</ele><time>2022-11-14T16:05:58.0000000+00:00</time></trkpt><trkpt lat="39.47452605" lon="-0.36685755"><ele>2.6</ele><time>2022-11-14T16:05:59.0000000+00:00</time></trkpt><trkpt lat="39.47449512" lon="-0.36677666"><ele>2.6</ele><time>2022-11-14T16:06:00.0000000+00:00</time></trkpt><trkpt lat="39.47445321" lon="-0.36671748"><ele>2.6</ele><time>2022-11-14T16:06:01.0000000+00:00</time></trkpt><trkpt lat="39.47437844" lon="-0.36665613"><ele>2.6</ele><time>2022-11-14T16:06:02.0000000+00:00</time></trkpt><trkpt lat="39.47431566" lon="-0.36661657"><ele>2.6</ele><time>2022-11-14T16:06:03.0000000+00:00</time></trkpt><trkpt lat="39.47425582" lon="-0.36658648"><ele>2.6</ele><time>2022-11-14T16:06:04.0000000+00:00</time></trkpt><trkpt lat="39.47419236" lon="-0.36654281"><ele>2.6</ele><time>2022-11-14T16:06:05.0000000+00:00</time></trkpt><trkpt lat="39.47415775" lon="-0.36651414"><ele>2.6</ele><time>2022-11-14T16:06:06.0000000+00:00</time></trkpt><trkpt lat="39.47410268" lon="-0.36647089"><ele>2.6</ele><time>2022-11-14T16:06:07.0000000+00:00</time></trkpt><trkpt lat="39.4740487" lon="-0.36643032"><ele>2.4</ele><time>2022-11-14T16:06:08.0000000+00:00</time></trkpt><trkpt lat="39.47399296" lon="-0.36638615"><ele>2.4</ele><time>2022-11-14T16:06:09.0000000+00:00</time></trkpt><trkpt lat="39.47393999" lon="-0.3663455"><ele>2.4</ele><time>2022-11-14T16:06:10.0000000+00:00</time></trkpt><trkpt lat="39.47389808" lon="-0.36631624"><ele>2.6</ele><time>2022-11-14T16:06:11.0000000+00:00</time></trkpt><trkpt lat="39.4738415" lon="-0.36628104"><ele>2.6</ele><time>2022-11-14T16:06:12.0000000+00:00</time></trkpt><trkpt lat="39.47380152" lon="-0.36625698"><ele>2.6</ele><time>2022-11-14T16:06:13.0000000+00:00</time></trkpt><trkpt lat="39.47375667" lon="-0.36623661"><ele>2.6</ele><time>2022-11-14T16:06:14.0000000+00:00</time></trkpt><trkpt lat="39.4737068" lon="-0.36620149"><ele>2.6</ele><time>2022-11-14T16:06:15.0000000+00:00</time></trkpt><trkpt lat="39.47365777" lon="-0.36616378"><ele>2.6</ele><time>2022-11-14T16:06:16.0000000+00:00</time></trkpt><trkpt lat="39.47361284" lon="-0.3661279"><ele>2.6</ele><time>2022-11-14T16:06:17.0000000+00:00</time></trkpt><trkpt lat="39.47358199" lon="-0.36609136"><ele>2.8</ele><time>2022-11-14T16:06:18.0000000+00:00</time></trkpt><trkpt lat="39.47355123" lon="-0.36604073"><ele>2.6</ele><time>2022-11-14T16:06:19.0000000+00:00</time></trkpt><trkpt lat="39.47352282" lon="-0.36598926"><ele>2.6</ele><time>2022-11-14T16:06:20.0000000+00:00</time></trkpt><trkpt lat="39.47350379" lon="-0.36596051"><ele>2.6</ele><time>2022-11-14T16:06:21.0000000+00:00</time></trkpt><trkpt lat="39.47348384" lon="-0.36591861"><ele>2.8</ele><time>2022-11-14T16:06:22.0000000+00:00</time></trkpt><trkpt lat="39.4734592" lon="-0.36586873"><ele>2.8</ele><time>2022-11-14T16:06:23.0000000+00:00</time></trkpt><trkpt lat="39.47345157" lon="-0.36581651"><ele>3.0</ele><time>2022-11-14T16:06:24.0000000+00:00</time></trkpt><trkpt lat="39.47345057" lon="-0.3657565"><ele>3.2</ele><time>2022-11-14T16:06:25.0000000+00:00</time></trkpt><trkpt lat="39.47346364" lon="-0.36569087"><ele>3.4</ele><time>2022-11-14T16:06:26.0000000+00:00</time></trkpt><trkpt lat="39.47344009" lon="-0.36562591"><ele>3.4</ele><time>2022-11-14T16:06:27.0000000+00:00</time></trkpt><trkpt lat="39.47342333" lon="-0.36554771"><ele>3.4</ele><time>2022-11-14T16:06:28.0000000+00:00</time></trkpt><trkpt lat="39.47343959" lon="-0.36544419"><ele>3.2</ele><time>2022-11-14T16:06:29.0000000+00:00</time></trkpt><trkpt lat="39.47358761" lon="-0.36528619"><ele>3.2</ele><time>2022-11-14T16:06:30.0000000+00:00</time></trkpt><trkpt lat="39.47355609" lon="-0.36520606"><ele>3.0</ele><time>2022-11-14T16:06:31.0000000+00:00</time></trkpt><trkpt lat="39.47352701" lon="-0.36514864"><ele>2.6</ele><time>2022-11-14T16:06:32.0000000+00:00</time></trkpt><trkpt lat="39.47350957" lon="-0.36509877"><ele>2.6</ele><time>2022-11-14T16:06:33.0000000+00:00</time></trkpt><trkpt lat="39.47350354" lon="-0.36506089"><ele>2.4</ele><time>2022-11-14T16:06:34.0000000+00:00</time></trkpt><trkpt lat="39.47349859" lon="-0.36504027"><ele>2.4</ele><time>2022-11-14T16:06:35.0000000+00:00</time></trkpt><trkpt lat="39.47348049" lon="-0.36500598"><ele>2.2</ele><time>2022-11-14T16:06:36.0000000+00:00</time></trkpt><trkpt lat="39.47346465" lon="-0.36498134"><ele>2.2</ele><time>2022-11-14T16:06:37.0000000+00:00</time></trkpt><trkpt lat="39.47344168" lon="-0.36494488"><ele>2.2</ele><time>2022-11-14T16:06:38.0000000+00:00</time></trkpt><trkpt lat="39.47341997" lon="-0.36491873"><ele>2.2</ele><time>2022-11-14T16:06:39.0000000+00:00</time></trkpt><trkpt lat="39.47338561" lon="-0.36488646"><ele>2.2</ele><time>2022-11-14T16:06:40.0000000+00:00</time></trkpt><trkpt lat="39.4733468" lon="-0.36483558"><ele>2.2</ele><time>2022-11-14T16:06:41.0000000+00:00</time></trkpt><trkpt lat="39.47330539" lon="-0.36479401"><ele>2.2</ele><time>2022-11-14T16:06:42.0000000+00:00</time></trkpt><trkpt lat="39.47326901" lon="-0.3647614"><ele>2.2</ele><time>2022-11-14T16:06:43.0000000+00:00</time></trkpt><trkpt lat="39.47322057" lon="-0.36472335"><ele>2.4</ele><time>2022-11-14T16:06:44.0000000+00:00</time></trkpt><trkpt lat="39.4731681" lon="-0.36467716"><ele>2.4</ele><time>2022-11-14T16:06:45.0000000+00:00</time></trkpt><trkpt lat="39.47313096" lon="-0.36465017"><ele>2.6</ele><time>2022-11-14T16:06:46.0000000+00:00</time></trkpt><trkpt lat="39.47308336" lon="-0.36461338"><ele>2.8</ele><time>2022-11-14T16:06:47.0000000+00:00</time></trkpt><trkpt lat="39.47303692" lon="-0.36457071"><ele>2.8</ele><time>2022-11-14T16:06:48.0000000+00:00</time></trkpt><trkpt lat="39.47298638" lon="-0.36453509"><ele>3.0</ele><time>2022-11-14T16:06:49.0000000+00:00</time></trkpt><trkpt lat="39.47293583" lon="-0.36449611"><ele>3.0</ele><time>2022-11-14T16:06:50.0000000+00:00</time></trkpt><trkpt lat="39.47288605" lon="-0.36445454"><ele>3.0</ele><time>2022-11-14T16:06:51.0000000+00:00</time></trkpt><trkpt lat="39.47284028" lon="-0.36441338"><ele>3.0</ele><time>2022-11-14T16:06:52.0000000+00:00</time></trkpt><trkpt lat="39.4727827" lon="-0.36436074"><ele>3.0</ele><time>2022-11-14T16:06:53.0000000+00:00</time></trkpt><trkpt lat="39.4727521" lon="-0.36431423"><ele>3.0</ele><time>2022-11-14T16:06:54.0000000+00:00</time></trkpt><trkpt lat="39.47267759" lon="-0.36426192"><ele>2.8</ele><time>2022-11-14T16:06:55.0000000+00:00</time></trkpt><trkpt lat="39.47260768" lon="-0.36422295"><ele>2.8</ele><time>2022-11-14T16:06:56.0000000+00:00</time></trkpt><trkpt lat="39.47252956" lon="-0.36418623"><ele>2.8</ele><time>2022-11-14T16:06:57.0000000+00:00</time></trkpt><trkpt lat="39.4724496" lon="-0.3641465"><ele>2.8</ele><time>2022-11-14T16:06:58.0000000+00:00</time></trkpt><trkpt lat="39.4723957" lon="-0.36410987"><ele>2.8</ele><time>2022-11-14T16:06:59.0000000+00:00</time></trkpt><trkpt lat="39.47233778" lon="-0.36406981"><ele>2.8</ele><time>2022-11-14T16:07:00.0000000+00:00</time></trkpt><trkpt lat="39.4722621" lon="-0.36402388"><ele>2.8</ele><time>2022-11-14T16:07:01.0000000+00:00</time></trkpt><trkpt lat="39.47220518" lon="-0.36398398"><ele>2.6</ele><time>2022-11-14T16:07:02.0000000+00:00</time></trkpt><trkpt lat="39.47213167" lon="-0.36393779"><ele>2.4</ele><time>2022-11-14T16:07:03.0000000+00:00</time></trkpt><trkpt lat="39.47205884" lon="-0.363901"><ele>2.4</ele><time>2022-11-14T16:07:04.0000000+00:00</time></trkpt><trkpt lat="39.47198038" lon="-0.3638761"><ele>2.2</ele><time>2022-11-14T16:07:05.0000000+00:00</time></trkpt><trkpt lat="39.47191182" lon="-0.36386035"><ele>2.2</ele><time>2022-11-14T16:07:06.0000000+00:00</time></trkpt><trkpt lat="39.47184225" lon="-0.36383562"><ele>2.2</ele><time>2022-11-14T16:07:07.0000000+00:00</time></trkpt><trkpt lat="39.47178466" lon="-0.36380452"><ele>2.2</ele><time>2022-11-14T16:07:08.0000000+00:00</time></trkpt><trkpt lat="39.47172515" lon="-0.36376563"><ele>2.4</ele><time>2022-11-14T16:07:09.0000000+00:00</time></trkpt><trkpt lat="39.47167285" lon="-0.36374535"><ele>2.4</ele><time>2022-11-14T16:07:10.0000000+00:00</time></trkpt><trkpt lat="39.47163069" lon="-0.36373478"><ele>2.4</ele><time>2022-11-14T16:07:11.0000000+00:00</time></trkpt><trkpt lat="39.47158643" lon="-0.36373059"><ele>2.6</ele><time>2022-11-14T16:07:12.0000000+00:00</time></trkpt><trkpt lat="39.47155139" lon="-0.36372607"><ele>2.8</ele><time>2022-11-14T16:07:13.0000000+00:00</time></trkpt><trkpt lat="39.47152499" lon="-0.36372397"><ele>3.0</ele><time>2022-11-14T16:07:14.0000000+00:00</time></trkpt><trkpt lat="39.47150261" lon="-0.36371299"><ele>3.0</ele><time>2022-11-14T16:07:15.0000000+00:00</time></trkpt><trkpt lat="39.47148233" lon="-0.36370008"><ele>3.0</ele><time>2022-11-14T16:07:16.0000000+00:00</time></trkpt><trkpt lat="39.47147571" lon="-0.3636881"><ele>3.0</ele><time>2022-11-14T16:07:17.0000000+00:00</time></trkpt><trkpt lat="39.47146749" lon="-0.36368768"><ele>3.2</ele><time>2022-11-14T16:07:18.0000000+00:00</time></trkpt><trkpt lat="39.47147981" lon="-0.363685"><ele>3.2</ele><time>2022-11-14T16:07:19.0000000+00:00</time></trkpt><trkpt lat="39.47150412" lon="-0.36369866"><ele>3.2</ele><time>2022-11-14T16:07:20.0000000+00:00</time></trkpt><trkpt lat="39.4715488" lon="-0.36373009"><ele>3.4</ele><time>2022-11-14T16:07:21.0000000+00:00</time></trkpt><trkpt lat="39.47157931" lon="-0.36377158"><ele>3.4</ele><time>2022-11-14T16:07:22.0000000+00:00</time></trkpt><trkpt lat="39.47160001" lon="-0.36382363"><ele>3.2</ele><time>2022-11-14T16:07:23.0000000+00:00</time></trkpt><trkpt lat="39.47161526" lon="-0.36386923"><ele>3.0</ele><time>2022-11-14T16:07:24.0000000+00:00</time></trkpt><trkpt lat="39.47161711" lon="-0.36390041"><ele>2.6</ele><time>2022-11-14T16:07:25.0000000+00:00</time></trkpt><trkpt lat="39.47161124" lon="-0.36392581"><ele>2.4</ele><time>2022-11-14T16:07:26.0000000+00:00</time></trkpt><trkpt lat="39.47160848" lon="-0.36393855"><ele>2.0</ele><time>2022-11-14T16:07:27.0000000+00:00</time></trkpt><trkpt lat="39.47160848" lon="-0.36393855"><ele>1.8</ele><time>2022-11-14T16:07:28.0000000+00:00</time></trkpt><trkpt lat="39.47160001" lon="-0.36393369"><ele>1.8</ele><time>2022-11-14T16:07:29.0000000+00:00</time></trkpt><trkpt lat="39.47157453" lon="-0.36390024"><ele>1.6</ele><time>2022-11-14T16:07:30.0000000+00:00</time></trkpt><trkpt lat="39.47153857" lon="-0.36385984"><ele>1.6</ele><time>2022-11-14T16:07:31.0000000+00:00</time></trkpt><trkpt lat="39.47149742" lon="-0.36381978"><ele>1.6</ele><time>2022-11-14T16:07:32.0000000+00:00</time></trkpt><trkpt lat="39.47145643" lon="-0.36378499"><ele>1.6</ele><time>2022-11-14T16:07:33.0000000+00:00</time></trkpt><trkpt lat="39.47141552" lon="-0.3637497"><ele>1.6</ele><time>2022-11-14T16:07:34.0000000+00:00</time></trkpt><trkpt lat="39.47137672" lon="-0.36371375"><ele>1.6</ele><time>2022-11-14T16:07:35.0000000+00:00</time></trkpt><trkpt lat="39.47133858" lon="-0.36367737"><ele>1.6</ele><time>2022-11-14T16:07:36.0000000+00:00</time></trkpt><trkpt lat="39.47130161" lon="-0.36364133"><ele>1.4</ele><time>2022-11-14T16:07:37.0000000+00:00</time></trkpt><trkpt lat="39.47125543" lon="-0.36360042"><ele>1.4</ele><time>2022-11-14T16:07:38.0000000+00:00</time></trkpt><trkpt lat="39.47116189" lon="-0.36349238"><ele>1.2</ele><time>2022-11-14T16:07:39.0000000+00:00</time></trkpt><trkpt lat="39.47109844" lon="-0.36342214"><ele>1.2</ele><time>2022-11-14T16:07:40.0000000+00:00</time></trkpt><trkpt lat="39.47102727" lon="-0.36336405"><ele>1.2</ele><time>2022-11-14T16:07:41.0000000+00:00</time></trkpt><trkpt lat="39.47095687" lon="-0.3632799"><ele>1.2</ele><time>2022-11-14T16:07:42.0000000+00:00</time></trkpt><trkpt lat="39.47089274" lon="-0.36321821"><ele>1.0</ele><time>2022-11-14T16:07:43.0000000+00:00</time></trkpt><trkpt lat="39.47083047" lon="-0.36316549"><ele>1.0</ele><time>2022-11-14T16:07:44.0000000+00:00</time></trkpt><trkpt lat="39.47077104" lon="-0.36311695"><ele>0.8</ele><time>2022-11-14T16:07:45.0000000+00:00</time></trkpt><trkpt lat="39.47070985" lon="-0.36307513"><ele>0.8</ele><time>2022-11-14T16:07:46.0000000+00:00</time></trkpt><trkpt lat="39.47065176" lon="-0.36303691"><ele>0.8</ele><time>2022-11-14T16:07:47.0000000+00:00</time></trkpt><trkpt lat="39.47060022" lon="-0.36299843"><ele>0.8</ele><time>2022-11-14T16:07:48.0000000+00:00</time></trkpt><trkpt lat="39.47055009" lon="-0.36295669"><ele>0.8</ele><time>2022-11-14T16:07:49.0000000+00:00</time></trkpt><trkpt lat="39.47049754" lon="-0.36291327"><ele>0.8</ele><time>2022-11-14T16:07:50.0000000+00:00</time></trkpt><trkpt lat="39.47042688" lon="-0.36286751"><ele>0.8</ele><time>2022-11-14T16:07:51.0000000+00:00</time></trkpt><trkpt lat="39.47035069" lon="-0.36285007"><ele>0.6</ele><time>2022-11-14T16:07:52.0000000+00:00</time></trkpt><trkpt lat="39.47025991" lon="-0.3628463"><ele>0.4</ele><time>2022-11-14T16:07:53.0000000+00:00</time></trkpt><trkpt lat="39.4701812" lon="-0.36284479"><ele>0.4</ele><time>2022-11-14T16:07:54.0000000+00:00</time></trkpt><trkpt lat="39.47011465" lon="-0.36282367"><ele>0.4</ele><time>2022-11-14T16:07:55.0000000+00:00</time></trkpt><trkpt lat="39.47008096" lon="-0.36279735"><ele>0.4</ele><time>2022-11-14T16:07:56.0000000+00:00</time></trkpt><trkpt lat="39.47004089" lon="-0.36275259"><ele>0.4</ele><time>2022-11-14T16:07:57.0000000+00:00</time></trkpt><trkpt lat="39.46998255" lon="-0.36270297"><ele>0.4</ele><time>2022-11-14T16:07:58.0000000+00:00</time></trkpt><trkpt lat="39.46992933" lon="-0.36265402"><ele>0.4</ele><time>2022-11-14T16:07:59.0000000+00:00</time></trkpt><trkpt lat="39.46990251" lon="-0.36259225"><ele>0.2</ele><time>2022-11-14T16:08:00.0000000+00:00</time></trkpt><trkpt lat="39.46985473" lon="-0.3625246"><ele>0.2</ele><time>2022-11-14T16:08:01.0000000+00:00</time></trkpt><trkpt lat="39.46979765" lon="-0.36247507"><ele>0.2</ele><time>2022-11-14T16:08:02.0000000+00:00</time></trkpt><trkpt lat="39.46973319" lon="-0.36243676"><ele>0.0</ele><time>2022-11-14T16:08:03.0000000+00:00</time></trkpt><trkpt lat="39.46965759" lon="-0.36241195"><ele>0.0</ele><time>2022-11-14T16:08:04.0000000+00:00</time></trkpt><trkpt lat="39.46959028" lon="-0.36238697"><ele>0.0</ele><time>2022-11-14T16:08:05.0000000+00:00</time></trkpt><trkpt lat="39.46953731" lon="-0.36234481"><ele>0.0</ele><time>2022-11-14T16:08:06.0000000+00:00</time></trkpt><trkpt lat="39.46946874" lon="-0.36230567"><ele>0.0</ele><time>2022-11-14T16:08:07.0000000+00:00</time></trkpt><trkpt lat="39.46939238" lon="-0.36226963"><ele>0.0</ele><time>2022-11-14T16:08:08.0000000+00:00</time></trkpt><trkpt lat="39.46932592" lon="-0.36224088"><ele>0.0</ele><time>2022-11-14T16:08:09.0000000+00:00</time></trkpt><trkpt lat="39.46924545" lon="-0.3622045"><ele>0.0</ele><time>2022-11-14T16:08:10.0000000+00:00</time></trkpt><trkpt lat="39.46917638" lon="-0.36217114"><ele>0.0</ele><time>2022-11-14T16:08:11.0000000+00:00</time></trkpt><trkpt lat="39.46911494" lon="-0.36213619"><ele>0.0</ele><time>2022-11-14T16:08:12.0000000+00:00</time></trkpt><trkpt lat="39.46905543" lon="-0.36209486"><ele>0.0</ele><time>2022-11-14T16:08:13.0000000+00:00</time></trkpt><trkpt lat="39.46899483" lon="-0.36204684"><ele>0.0</ele><time>2022-11-14T16:08:14.0000000+00:00</time></trkpt><trkpt lat="39.4689344" lon="-0.36199537"><ele>0.0</ele><time>2022-11-14T16:08:15.0000000+00:00</time></trkpt><trkpt lat="39.4683998" lon="-0.3618243"><ele>-0.2</ele><time>2022-11-14T16:08:23.0000000+00:00</time></trkpt><trkpt lat="39.46836636" lon="-0.36175146"><ele>0.0</ele><time>2022-11-14T16:08:24.0000000+00:00</time></trkpt><trkpt lat="39.4683418" lon="-0.36170393"><ele>0.0</ele><time>2022-11-14T16:08:25.0000000+00:00</time></trkpt><trkpt lat="39.46828564" lon="-0.36166705"><ele>0.0</ele><time>2022-11-14T16:08:26.0000000+00:00</time></trkpt><trkpt lat="39.46824205" lon="-0.3616155"><ele>0.4</ele><time>2022-11-14T16:08:27.0000000+00:00</time></trkpt><trkpt lat="39.46818925" lon="-0.36156957"><ele>0.4</ele><time>2022-11-14T16:08:28.0000000+00:00</time></trkpt><trkpt lat="39.46810769" lon="-0.36153219"><ele>0.4</ele><time>2022-11-14T16:08:29.0000000+00:00</time></trkpt><trkpt lat="39.46806637" lon="-0.36151107"><ele>0.6</ele><time>2022-11-14T16:08:30.0000000+00:00</time></trkpt><trkpt lat="39.46802722" lon="-0.36147997"><ele>0.6</ele><time>2022-11-14T16:08:31.0000000+00:00</time></trkpt><trkpt lat="39.46799219" lon="-0.36145214"><ele>1.0</ele><time>2022-11-14T16:08:32.0000000+00:00</time></trkpt><trkpt lat="39.46796855" lon="-0.36142482"><ele>1.2</ele><time>2022-11-14T16:08:33.0000000+00:00</time></trkpt><trkpt lat="39.46794206" lon="-0.36140126"><ele>1.4</ele><time>2022-11-14T16:08:34.0000000+00:00</time></trkpt><trkpt lat="39.46791541" lon="-0.36137779"><ele>1.8</ele><time>2022-11-14T16:08:35.0000000+00:00</time></trkpt><trkpt lat="39.46789261" lon="-0.36135483"><ele>2.0</ele><time>2022-11-14T16:08:36.0000000+00:00</time></trkpt><trkpt lat="39.46786847" lon="-0.36133303"><ele>2.4</ele><time>2022-11-14T16:08:37.0000000+00:00</time></trkpt><trkpt lat="39.46784332" lon="-0.36131535"><ele>2.6</ele><time>2022-11-14T16:08:38.0000000+00:00</time></trkpt><trkpt lat="39.46781935" lon="-0.36128668"><ele>2.8</ele><time>2022-11-14T16:08:39.0000000+00:00</time></trkpt><trkpt lat="39.46780644" lon="-0.36126489"><ele>3.0</ele><time>2022-11-14T16:08:40.0000000+00:00</time></trkpt><trkpt lat="39.46779043" lon="-0.36124704"><ele>3.2</ele><time>2022-11-14T16:08:41.0000000+00:00</time></trkpt><trkpt lat="39.4677709" lon="-0.36123673"><ele>3.6</ele><time>2022-11-14T16:08:42.0000000+00:00</time></trkpt><trkpt lat="39.46775649" lon="-0.36122801"><ele>4.0</ele><time>2022-11-14T16:08:43.0000000+00:00</time></trkpt><trkpt lat="39.46774769" lon="-0.36121099"><ele>4.2</ele><time>2022-11-14T16:08:44.0000000+00:00</time></trkpt><trkpt lat="39.46773738" lon="-0.36118987"><ele>4.4</ele><time>2022-11-14T16:08:45.0000000+00:00</time></trkpt><trkpt lat="39.46773964" lon="-0.36117068"><ele>4.4</ele><time>2022-11-14T16:08:46.0000000+00:00</time></trkpt><trkpt lat="39.46775314" lon="-0.36114981"><ele>4.4</ele><time>2022-11-14T16:08:47.0000000+00:00</time></trkpt><trkpt lat="39.46777149" lon="-0.36114352"><ele>4.4</ele><time>2022-11-14T16:08:48.0000000+00:00</time></trkpt><trkpt lat="39.46779613" lon="-0.36115668"><ele>4.4</ele><time>2022-11-14T16:08:49.0000000+00:00</time></trkpt><trkpt lat="39.46782287" lon="-0.36117193"><ele>4.4</ele><time>2022-11-14T16:08:50.0000000+00:00</time></trkpt><trkpt lat="39.46785674" lon="-0.36118769"><ele>4.4</ele><time>2022-11-14T16:08:51.0000000+00:00</time></trkpt><trkpt lat="39.46789747" lon="-0.36120613"><ele>4.4</ele><time>2022-11-14T16:08:52.0000000+00:00</time></trkpt><trkpt lat="39.46796327" lon="-0.36122248"><ele>4.6</ele><time>2022-11-14T16:08:53.0000000+00:00</time></trkpt><trkpt lat="39.46800719" lon="-0.36122256"><ele>4.6</ele><time>2022-11-14T16:08:54.0000000+00:00</time></trkpt><trkpt lat="39.46804214" lon="-0.36120152"><ele>4.6</ele><time>2022-11-14T16:08:55.0000000+00:00</time></trkpt><trkpt lat="39.46807399" lon="-0.36116405"><ele>4.6</ele><time>2022-11-14T16:08:56.0000000+00:00</time></trkpt><trkpt lat="39.468104" lon="-0.36111963"><ele>4.6</ele><time>2022-11-14T16:08:57.0000000+00:00</time></trkpt><trkpt lat="39.46813602" lon="-0.36107328"><ele>4.4</ele><time>2022-11-14T16:08:58.0000000+00:00</time></trkpt><trkpt lat="39.468161" lon="-0.36103137"><ele>4.4</ele><time>2022-11-14T16:08:59.0000000+00:00</time></trkpt><trkpt lat="39.46817575" lon="-0.36100228"><ele>4.2</ele><time>2022-11-14T16:09:00.0000000+00:00</time></trkpt><trkpt lat="39.46818388" lon="-0.36098435"><ele>4.0</ele><time>2022-11-14T16:09:01.0000000+00:00</time></trkpt><trkpt lat="39.46818179" lon="-0.36096859"><ele>3.8</ele><time>2022-11-14T16:09:02.0000000+00:00</time></trkpt><trkpt lat="39.46817793" lon="-0.36095551"><ele>3.8</ele><time>2022-11-14T16:09:03.0000000+00:00</time></trkpt><trkpt lat="39.46817726" lon="-0.36094596"><ele>3.6</ele><time>2022-11-14T16:09:04.0000000+00:00</time></trkpt><trkpt lat="39.46817986" lon="-0.36093799"><ele>3.6</ele><time>2022-11-14T16:09:05.0000000+00:00</time></trkpt><trkpt lat="39.46818145" lon="-0.36093473"><ele>3.4</ele><time>2022-11-14T16:09:06.0000000+00:00</time></trkpt><trkpt lat="39.46818145" lon="-0.36093473"><ele>3.4</ele><time>2022-11-14T16:09:07.0000000+00:00</time></trkpt><trkpt lat="39.46818145" lon="-0.36093473"><ele>3.4</ele><time>2022-11-14T16:09:08.0000000+00:00</time></trkpt><trkpt lat="39.46818145" lon="-0.36093473"><ele>3.2</ele><time>2022-11-14T16:09:09.0000000+00:00</time></trkpt><trkpt lat="39.46818145" lon="-0.36093473"><ele>3.2</ele><time>2022-11-14T16:09:10.0000000+00:00</time></trkpt><trkpt lat="39.46818145" lon="-0.36093473"><ele>3.0</ele><time>2022-11-14T16:09:11.0000000+00:00</time></trkpt><trkpt lat="39.46818145" lon="-0.36093473"><ele>3.0</ele><time>2022-11-14T16:09:12.0000000+00:00</time></trkpt><trkpt lat="39.46818145" lon="-0.36093473"><ele>3.0</ele><time>2022-11-14T16:09:13.0000000+00:00</time></trkpt><trkpt lat="39.46818145" lon="-0.36093473"><ele>3.0</ele><time>2022-11-14T16:09:14.0000000+00:00</time></trkpt><trkpt lat="39.46818145" lon="-0.36093473"><ele>3.0</ele><time>2022-11-14T16:09:15.0000000+00:00</time></trkpt><trkpt lat="39.46818145" lon="-0.36093473"><ele>3.0</ele><time>2022-11-14T16:09:16.0000000+00:00</time></trkpt><trkpt lat="39.46818145" lon="-0.36093473"><ele>3.0</ele><time>2022-11-14T16:09:17.0000000+00:00</time></trkpt><trkpt lat="39.46818145" lon="-0.36093473"><ele>3.0</ele><time>2022-11-14T16:09:18.0000000+00:00</time></trkpt><trkpt lat="39.46818145" lon="-0.36093473"><ele>3.0</ele><time>2022-11-14T16:09:19.0000000+00:00</time></trkpt><trkpt lat="39.46818145" lon="-0.36093473"><ele>3.0</ele><time>2022-11-14T16:09:20.0000000+00:00</time></trkpt><trkpt lat="39.46818145" lon="-0.36093473"><ele>2.8</ele><time>2022-11-14T16:09:21.0000000+00:00</time></trkpt><trkpt lat="39.46818145" lon="-0.36093473"><ele>2.8</ele><time>2022-11-14T16:09:22.0000000+00:00</time></trkpt><trkpt lat="39.46818145" lon="-0.36093473"><ele>2.8</ele><time>2022-11-14T16:09:23.0000000+00:00</time></trkpt><trkpt lat="39.46818145" lon="-0.36093473"><ele>2.8</ele><time>2022-11-14T16:09:24.0000000+00:00</time></trkpt><trkpt lat="39.46818145" lon="-0.36093473"><ele>2.8</ele><time>2022-11-14T16:09:25.0000000+00:00</time></trkpt><trkpt lat="39.46818145" lon="-0.36093473"><ele>2.8</ele><time>2022-11-14T16:09:26.0000000+00:00</time></trkpt><trkpt lat="39.46818145" lon="-0.36093473"><ele>2.8</ele><time>2022-11-14T16:09:27.0000000+00:00</time></trkpt><trkpt lat="39.46818145" lon="-0.36093473"><ele>2.8</ele><time>2022-11-14T16:09:28.0000000+00:00</time></trkpt><trkpt lat="39.46818145" lon="-0.36093473"><ele>2.8</ele><time>2022-11-14T16:09:29.0000000+00:00</time></trkpt><trkpt lat="39.46818145" lon="-0.36093473"><ele>2.8</ele><time>2022-11-14T16:09:30.0000000+00:00</time></trkpt><trkpt lat="39.46818145" lon="-0.36093473"><ele>2.8</ele><time>2022-11-14T16:09:31.0000000+00:00</time></trkpt><trkpt lat="39.46818145" lon="-0.36093473"><ele>2.8</ele><time>2022-11-14T16:09:32.0000000+00:00</time></trkpt><trkpt lat="39.46818145" lon="-0.36093473"><ele>2.8</ele><time>2022-11-14T16:09:33.0000000+00:00</time></trkpt><trkpt lat="39.46818145" lon="-0.36093473"><ele>2.8</ele><time>2022-11-14T16:09:34.0000000+00:00</time></trkpt><trkpt lat="39.46818145" lon="-0.36093473"><ele>2.8</ele><time>2022-11-14T16:09:35.0000000+00:00</time></trkpt><trkpt lat="39.46818145" lon="-0.36093473"><ele>2.8</ele><time>2022-11-14T16:09:36.0000000+00:00</time></trkpt><trkpt lat="39.46818145" lon="-0.36093473"><ele>2.8</ele><time>2022-11-14T16:09:37.0000000+00:00</time></trkpt><trkpt lat="39.46818145" lon="-0.36093473"><ele>2.8</ele><time>2022-11-14T16:09:38.0000000+00:00</time></trkpt><trkpt lat="39.46818145" lon="-0.36093473"><ele>2.8</ele><time>2022-11-14T16:09:39.0000000+00:00</time></trkpt><trkpt lat="39.46818145" lon="-0.36093473"><ele>2.8</ele><time>2022-11-14T16:09:40.0000000+00:00</time></trkpt><trkpt lat="39.46818145" lon="-0.36093473"><ele>2.6</ele><time>2022-11-14T16:09:41.0000000+00:00</time></trkpt><trkpt lat="39.46818145" lon="-0.36093473"><ele>2.6</ele><time>2022-11-14T16:09:42.0000000+00:00</time></trkpt><trkpt lat="39.46818145" lon="-0.36093473"><ele>2.6</ele><time>2022-11-14T16:09:43.0000000+00:00</time></trkpt><trkpt lat="39.46818145" lon="-0.36093473"><ele>2.6</ele><time>2022-11-14T16:09:44.0000000+00:00</time></trkpt><trkpt lat="39.46818145" lon="-0.36093473"><ele>2.6</ele><time>2022-11-14T16:09:45.0000000+00:00</time></trkpt><trkpt lat="39.46818145" lon="-0.36093473"><ele>2.6</ele><time>2022-11-14T16:09:46.0000000+00:00</time></trkpt><trkpt lat="39.46818112" lon="-0.36093112"><ele>2.6</ele><time>2022-11-14T16:09:47.0000000+00:00</time></trkpt><trkpt lat="39.46817835" lon="-0.36091344"><ele>2.6</ele><time>2022-11-14T16:09:48.0000000+00:00</time></trkpt><trkpt lat="39.46817324" lon="-0.36087865"><ele>2.6</ele><time>2022-11-14T16:09:49.0000000+00:00</time></trkpt><trkpt lat="39.4681719" lon="-0.36083506"><ele>2.6</ele><time>2022-11-14T16:09:50.0000000+00:00</time></trkpt><trkpt lat="39.46817114" lon="-0.36079324"><ele>2.6</ele><time>2022-11-14T16:09:51.0000000+00:00</time></trkpt><trkpt lat="39.46817047" lon="-0.36074974"><ele>2.6</ele><time>2022-11-14T16:09:52.0000000+00:00</time></trkpt><trkpt lat="39.46816351" lon="-0.36070724"><ele>2.6</ele><time>2022-11-14T16:09:53.0000000+00:00</time></trkpt><trkpt lat="39.4681548" lon="-0.36065963"><ele>2.6</ele><time>2022-11-14T16:09:54.0000000+00:00</time></trkpt><trkpt lat="39.46814901" lon="-0.36060322"><ele>2.6</ele><time>2022-11-14T16:09:55.0000000+00:00</time></trkpt><trkpt lat="39.46813879" lon="-0.3605422"><ele>2.6</ele><time>2022-11-14T16:09:56.0000000+00:00</time></trkpt><trkpt lat="39.46813066" lon="-0.36048579"><ele>2.6</ele><time>2022-11-14T16:09:57.0000000+00:00</time></trkpt><trkpt lat="39.46812605" lon="-0.360435"><ele>2.6</ele><time>2022-11-14T16:09:58.0000000+00:00</time></trkpt><trkpt lat="39.46811582" lon="-0.36038898"><ele>2.6</ele><time>2022-11-14T16:09:59.0000000+00:00</time></trkpt><trkpt lat="39.46810668" lon="-0.36034288"><ele>2.6</ele><time>2022-11-14T16:10:00.0000000+00:00</time></trkpt><trkpt lat="39.46810082" lon="-0.36029602"><ele>2.6</ele><time>2022-11-14T16:10:01.0000000+00:00</time></trkpt><trkpt lat="39.4681045" lon="-0.36025973"><ele>2.4</ele><time>2022-11-14T16:10:02.0000000+00:00</time></trkpt><trkpt lat="39.4681092" lon="-0.36024012"><ele>2.4</ele><time>2022-11-14T16:10:03.0000000+00:00</time></trkpt><trkpt lat="39.46810937" lon="-0.36023291"><ele>2.4</ele><time>2022-11-14T16:10:04.0000000+00:00</time></trkpt><trkpt lat="39.46810937" lon="-0.36023291"><ele>2.4</ele><time>2022-11-14T16:10:05.0000000+00:00</time></trkpt><trkpt lat="39.46809596" lon="-0.36023324"><ele>2.4</ele><time>2022-11-14T16:10:06.0000000+00:00</time></trkpt><trkpt lat="39.46809386" lon="-0.36023324"><ele>2.6</ele><time>2022-11-14T16:10:07.0000000+00:00</time></trkpt><trkpt lat="39.46809386" lon="-0.36023324"><ele>2.6</ele><time>2022-11-14T16:10:08.0000000+00:00</time></trkpt><trkpt lat="39.46809386" lon="-0.36023324"><ele>2.6</ele><time>2022-11-14T16:10:09.0000000+00:00</time></trkpt><trkpt lat="39.46809386" lon="-0.36023324"><ele>2.6</ele><time>2022-11-14T16:10:10.0000000+00:00</time></trkpt><trkpt lat="39.46809386" lon="-0.36023324"><ele>2.6</ele><time>2022-11-14T16:10:11.0000000+00:00</time></trkpt><trkpt lat="39.46809386" lon="-0.36023324"><ele>2.6</ele><time>2022-11-14T16:10:12.0000000+00:00</time></trkpt><trkpt lat="39.46809386" lon="-0.36023324"><ele>2.6</ele><time>2022-11-14T16:10:13.0000000+00:00</time></trkpt><trkpt lat="39.46809386" lon="-0.36023324"><ele>2.6</ele><time>2022-11-14T16:10:14.0000000+00:00</time></trkpt><trkpt lat="39.46809386" lon="-0.36023324"><ele>2.6</ele><time>2022-11-14T16:10:15.0000000+00:00</time></trkpt><trkpt lat="39.46809386" lon="-0.36023324"><ele>2.6</ele><time>2022-11-14T16:10:16.0000000+00:00</time></trkpt><trkpt lat="39.46809386" lon="-0.36023324"><ele>2.6</ele><time>2022-11-14T16:10:17.0000000+00:00</time></trkpt><trkpt lat="39.46809386" lon="-0.36023324"><ele>2.6</ele><time>2022-11-14T16:10:18.0000000+00:00</time></trkpt><trkpt lat="39.46809386" lon="-0.36023324"><ele>2.6</ele><time>2022-11-14T16:10:19.0000000+00:00</time></trkpt><trkpt lat="39.46809386" lon="-0.36023324"><ele>2.6</ele><time>2022-11-14T16:10:20.0000000+00:00</time></trkpt><trkpt lat="39.46809386" lon="-0.36023324"><ele>2.6</ele><time>2022-11-14T16:10:21.0000000+00:00</time></trkpt><trkpt lat="39.46809059" lon="-0.36023542"><ele>2.6</ele><time>2022-11-14T16:10:22.0000000+00:00</time></trkpt><trkpt lat="39.46808757" lon="-0.36023718"><ele>2.6</ele><time>2022-11-14T16:10:23.0000000+00:00</time></trkpt><trkpt lat="39.46808757" lon="-0.36023718"><ele>2.6</ele><time>2022-11-14T16:10:24.0000000+00:00</time></trkpt><trkpt lat="39.46808757" lon="-0.36023718"><ele>2.6</ele><time>2022-11-14T16:10:25.0000000+00:00</time></trkpt><trkpt lat="39.46808757" lon="-0.36023718"><ele>2.6</ele><time>2022-11-14T16:10:26.0000000+00:00</time></trkpt><trkpt lat="39.46808757" lon="-0.36023718"><ele>2.6</ele><time>2022-11-14T16:10:27.0000000+00:00</time></trkpt><trkpt lat="39.46808757" lon="-0.36023718"><ele>2.6</ele><time>2022-11-14T16:10:28.0000000+00:00</time></trkpt><trkpt lat="39.46808757" lon="-0.36023718"><ele>2.6</ele><time>2022-11-14T16:10:29.0000000+00:00</time></trkpt><trkpt lat="39.46808757" lon="-0.36023718"><ele>2.6</ele><time>2022-11-14T16:10:30.0000000+00:00</time></trkpt><trkpt lat="39.46808757" lon="-0.36023718"><ele>2.6</ele><time>2022-11-14T16:10:31.0000000+00:00</time></trkpt><trkpt lat="39.46808757" lon="-0.36023718"><ele>2.6</ele><time>2022-11-14T16:10:32.0000000+00:00</time></trkpt><trkpt lat="39.46808581" lon="-0.36023878"><ele>2.6</ele><time>2022-11-14T16:10:33.0000000+00:00</time></trkpt><trkpt lat="39.4680843" lon="-0.36023936"><ele>2.6</ele><time>2022-11-14T16:10:34.0000000+00:00</time></trkpt><trkpt lat="39.46808598" lon="-0.3602345"><ele>2.6</ele><time>2022-11-14T16:10:35.0000000+00:00</time></trkpt><trkpt lat="39.46808389" lon="-0.36023576"><ele>2.6</ele><time>2022-11-14T16:10:36.0000000+00:00</time></trkpt><trkpt lat="39.46808087" lon="-0.36023542"><ele>2.6</ele><time>2022-11-14T16:10:37.0000000+00:00</time></trkpt><trkpt lat="39.46807508" lon="-0.36023165"><ele>2.6</ele><time>2022-11-14T16:10:38.0000000+00:00</time></trkpt><trkpt lat="39.46807735" lon="-0.36023073"><ele>2.6</ele><time>2022-11-14T16:10:39.0000000+00:00</time></trkpt><trkpt lat="39.46807735" lon="-0.36023073"><ele>2.6</ele><time>2022-11-14T16:10:40.0000000+00:00</time></trkpt><trkpt lat="39.46807735" lon="-0.36023073"><ele>2.8</ele><time>2022-11-14T16:10:41.0000000+00:00</time></trkpt><trkpt lat="39.46807106" lon="-0.36022386"><ele>2.8</ele><time>2022-11-14T16:10:42.0000000+00:00</time></trkpt><trkpt lat="39.46807517" lon="-0.36022235"><ele>2.8</ele><time>2022-11-14T16:10:43.0000000+00:00</time></trkpt><trkpt lat="39.46807517" lon="-0.36022235"><ele>2.8</ele><time>2022-11-14T16:10:44.0000000+00:00</time></trkpt><trkpt lat="39.46807148" lon="-0.36022352"><ele>2.8</ele><time>2022-11-14T16:10:45.0000000+00:00</time></trkpt><trkpt lat="39.46807768" lon="-0.36022042"><ele>2.8</ele><time>2022-11-14T16:10:46.0000000+00:00</time></trkpt><trkpt lat="39.46808078" lon="-0.36021908"><ele>2.8</ele><time>2022-11-14T16:10:47.0000000+00:00</time></trkpt><trkpt lat="39.46808078" lon="-0.36021908"><ele>2.8</ele><time>2022-11-14T16:10:48.0000000+00:00</time></trkpt><trkpt lat="39.46808078" lon="-0.36021908"><ele>2.8</ele><time>2022-11-14T16:10:49.0000000+00:00</time></trkpt><trkpt lat="39.46808347" lon="-0.36022008"><ele>2.6</ele><time>2022-11-14T16:10:50.0000000+00:00</time></trkpt><trkpt lat="39.46808615" lon="-0.36021908"><ele>2.6</ele><time>2022-11-14T16:10:51.0000000+00:00</time></trkpt><trkpt lat="39.46808464" lon="-0.36022067"><ele>2.6</ele><time>2022-11-14T16:10:52.0000000+00:00</time></trkpt><trkpt lat="39.4680828" lon="-0.36022293"><ele>2.6</ele><time>2022-11-14T16:10:53.0000000+00:00</time></trkpt><trkpt lat="39.46808657" lon="-0.36021958"><ele>2.6</ele><time>2022-11-14T16:10:54.0000000+00:00</time></trkpt><trkpt lat="39.46808933" lon="-0.36021799"><ele>2.6</ele><time>2022-11-14T16:10:55.0000000+00:00</time></trkpt><trkpt lat="39.46808933" lon="-0.36021799"><ele>2.6</ele><time>2022-11-14T16:10:56.0000000+00:00</time></trkpt><trkpt lat="39.46808799" lon="-0.36022008"><ele>2.6</ele><time>2022-11-14T16:10:57.0000000+00:00</time></trkpt><trkpt lat="39.46807911" lon="-0.36022486"><ele>2.6</ele><time>2022-11-14T16:10:58.0000000+00:00</time></trkpt><trkpt lat="39.46807374" lon="-0.36022662"><ele>2.6</ele><time>2022-11-14T16:10:59.0000000+00:00</time></trkpt><trkpt lat="39.46807534" lon="-0.36022847"><ele>2.6</ele><time>2022-11-14T16:11:00.0000000+00:00</time></trkpt><trkpt lat="39.46807198" lon="-0.36022939"><ele>2.6</ele><time>2022-11-14T16:11:01.0000000+00:00</time></trkpt><trkpt lat="39.4680729" lon="-0.3602257"><ele>2.6</ele><time>2022-11-14T16:11:02.0000000+00:00</time></trkpt><trkpt lat="39.46808036" lon="-0.36021547"><ele>2.6</ele><time>2022-11-14T16:11:03.0000000+00:00</time></trkpt><trkpt lat="39.46809302" lon="-0.36020701"><ele>2.6</ele><time>2022-11-14T16:11:04.0000000+00:00</time></trkpt><trkpt lat="39.46811875" lon="-0.36019553"><ele>2.4</ele><time>2022-11-14T16:11:05.0000000+00:00</time></trkpt><trkpt lat="39.46814809" lon="-0.36017817"><ele>2.4</ele><time>2022-11-14T16:11:06.0000000+00:00</time></trkpt><trkpt lat="39.46816804" lon="-0.36015429"><ele>2.4</ele><time>2022-11-14T16:11:07.0000000+00:00</time></trkpt><trkpt lat="39.46818648" lon="-0.36011095"><ele>2.4</ele><time>2022-11-14T16:11:08.0000000+00:00</time></trkpt><trkpt lat="39.46818623" lon="-0.36007307"><ele>2.4</ele><time>2022-11-14T16:11:09.0000000+00:00</time></trkpt><trkpt lat="39.46817097" lon="-0.36004968"><ele>2.4</ele><time>2022-11-14T16:11:10.0000000+00:00</time></trkpt><trkpt lat="39.46814884" lon="-0.36003996"><ele>2.4</ele><time>2022-11-14T16:11:11.0000000+00:00</time></trkpt><trkpt lat="39.46812529" lon="-0.3600206"><ele>2.4</ele><time>2022-11-14T16:11:12.0000000+00:00</time></trkpt><trkpt lat="39.46810635" lon="-0.3600035"><ele>2.2</ele><time>2022-11-14T16:11:13.0000000+00:00</time></trkpt><trkpt lat="39.46809093" lon="-0.35995723"><ele>2.2</ele><time>2022-11-14T16:11:14.0000000+00:00</time></trkpt><trkpt lat="39.46808003" lon="-0.35988632"><ele>2.2</ele><time>2022-11-14T16:11:15.0000000+00:00</time></trkpt><trkpt lat="39.46807643" lon="-0.3598232"><ele>2.2</ele><time>2022-11-14T16:11:16.0000000+00:00</time></trkpt><trkpt lat="39.46807182" lon="-0.35975883"><ele>2.4</ele><time>2022-11-14T16:11:17.0000000+00:00</time></trkpt><trkpt lat="39.46806855" lon="-0.35968389"><ele>2.4</ele><time>2022-11-14T16:11:18.0000000+00:00</time></trkpt><trkpt lat="39.4680605" lon="-0.35959647"><ele>2.4</ele><time>2022-11-14T16:11:19.0000000+00:00</time></trkpt><trkpt lat="39.46803175" lon="-0.35952212"><ele>2.4</ele><time>2022-11-14T16:11:20.0000000+00:00</time></trkpt><trkpt lat="39.46802278" lon="-0.35945767"><ele>2.4</ele><time>2022-11-14T16:11:21.0000000+00:00</time></trkpt><trkpt lat="39.46800761" lon="-0.35937402"><ele>2.2</ele><time>2022-11-14T16:11:22.0000000+00:00</time></trkpt><trkpt lat="39.46799219" lon="-0.35928953"><ele>2.2</ele><time>2022-11-14T16:11:23.0000000+00:00</time></trkpt><trkpt lat="39.46797886" lon="-0.35921702"><ele>2.2</ele><time>2022-11-14T16:11:24.0000000+00:00</time></trkpt><trkpt lat="39.46796947" lon="-0.35913832"><ele>2.2</ele><time>2022-11-14T16:11:25.0000000+00:00</time></trkpt><trkpt lat="39.46798272" lon="-0.35904762"><ele>2.2</ele><time>2022-11-14T16:11:26.0000000+00:00</time></trkpt><trkpt lat="39.46799076" lon="-0.35896204"><ele>2.2</ele><time>2022-11-14T16:11:27.0000000+00:00</time></trkpt><trkpt lat="39.467902" lon="-0.35886088"><ele>2.2</ele><time>2022-11-14T16:11:28.0000000+00:00</time></trkpt><trkpt lat="39.4678906" lon="-0.35876482"><ele>2.2</ele><time>2022-11-14T16:11:29.0000000+00:00</time></trkpt><trkpt lat="39.46786881" lon="-0.35868192"><ele>2.0</ele><time>2022-11-14T16:11:30.0000000+00:00</time></trkpt><trkpt lat="39.46782488" lon="-0.35861814"><ele>1.8</ele><time>2022-11-14T16:11:31.0000000+00:00</time></trkpt><trkpt lat="39.46776487" lon="-0.35856877"><ele>2.0</ele><time>2022-11-14T16:11:32.0000000+00:00</time></trkpt><trkpt lat="39.46771944" lon="-0.35851085"><ele>2.0</ele><time>2022-11-14T16:11:33.0000000+00:00</time></trkpt><trkpt lat="39.46769295" lon="-0.35843214"><ele>2.0</ele><time>2022-11-14T16:11:34.0000000+00:00</time></trkpt><trkpt lat="39.46767946" lon="-0.35835452"><ele>2.2</ele><time>2022-11-14T16:11:35.0000000+00:00</time></trkpt><trkpt lat="39.46766923" lon="-0.35827875"><ele>2.2</ele><time>2022-11-14T16:11:36.0000000+00:00</time></trkpt><trkpt lat="39.46765943" lon="-0.35820918"><ele>2.2</ele><time>2022-11-14T16:11:37.0000000+00:00</time></trkpt><trkpt lat="39.46765096" lon="-0.35814137"><ele>2.2</ele><time>2022-11-14T16:11:38.0000000+00:00</time></trkpt><trkpt lat="39.46763805" lon="-0.35807708"><ele>2.2</ele><time>2022-11-14T16:11:39.0000000+00:00</time></trkpt><trkpt lat="39.46762288" lon="-0.35801715"><ele>2.2</ele><time>2022-11-14T16:11:40.0000000+00:00</time></trkpt><trkpt lat="39.46764199" lon="-0.35796074"><ele>2.0</ele><time>2022-11-14T16:11:41.0000000+00:00</time></trkpt><trkpt lat="39.46762925" lon="-0.35791607"><ele>2.0</ele><time>2022-11-14T16:11:42.0000000+00:00</time></trkpt><trkpt lat="39.46762355" lon="-0.35788086"><ele>2.0</ele><time>2022-11-14T16:11:43.0000000+00:00</time></trkpt><trkpt lat="39.46761626" lon="-0.35787198"><ele>2.0</ele><time>2022-11-14T16:11:44.0000000+00:00</time></trkpt><trkpt lat="39.46760553" lon="-0.35786821"><ele>1.8</ele><time>2022-11-14T16:11:45.0000000+00:00</time></trkpt><trkpt lat="39.46759338" lon="-0.35786125"><ele>1.8</ele><time>2022-11-14T16:11:46.0000000+00:00</time></trkpt><trkpt lat="39.46758022" lon="-0.35784851"><ele>1.8</ele><time>2022-11-14T16:11:47.0000000+00:00</time></trkpt><trkpt lat="39.46756261" lon="-0.35782403"><ele>1.8</ele><time>2022-11-14T16:11:48.0000000+00:00</time></trkpt><trkpt lat="39.46753009" lon="-0.35777391"><ele>1.8</ele><time>2022-11-14T16:11:49.0000000+00:00</time></trkpt><trkpt lat="39.46751257" lon="-0.35772597"><ele>2.0</ele><time>2022-11-14T16:11:50.0000000+00:00</time></trkpt><trkpt lat="39.46749992" lon="-0.35768582"><ele>2.0</ele><time>2022-11-14T16:11:51.0000000+00:00</time></trkpt><trkpt lat="39.46748944" lon="-0.35764332"><ele>2.0</ele><time>2022-11-14T16:11:52.0000000+00:00</time></trkpt><trkpt lat="39.46747117" lon="-0.35760652"><ele>2.0</ele><time>2022-11-14T16:11:53.0000000+00:00</time></trkpt><trkpt lat="39.4674596" lon="-0.35755355"><ele>2.0</ele><time>2022-11-14T16:11:54.0000000+00:00</time></trkpt><trkpt lat="39.46743731" lon="-0.35748691"><ele>2.0</ele><time>2022-11-14T16:11:55.0000000+00:00</time></trkpt><trkpt lat="39.46741828" lon="-0.35742112"><ele>2.0</ele><time>2022-11-14T16:11:56.0000000+00:00</time></trkpt><trkpt lat="39.46741719" lon="-0.35734031"><ele>2.2</ele><time>2022-11-14T16:11:57.0000000+00:00</time></trkpt><trkpt lat="39.46738408" lon="-0.35726739"><ele>2.2</ele><time>2022-11-14T16:11:58.0000000+00:00</time></trkpt><trkpt lat="39.46736111" lon="-0.35719757"><ele>2.2</ele><time>2022-11-14T16:11:59.0000000+00:00</time></trkpt><trkpt lat="39.46735139" lon="-0.35712825"><ele>2.2</ele><time>2022-11-14T16:12:00.0000000+00:00</time></trkpt><trkpt lat="39.4673653" lon="-0.35704267"><ele>2.2</ele><time>2022-11-14T16:12:01.0000000+00:00</time></trkpt><trkpt lat="39.46737126" lon="-0.35696598"><ele>2.2</ele><time>2022-11-14T16:12:02.0000000+00:00</time></trkpt><trkpt lat="39.4673767" lon="-0.35687763"><ele>2.2</ele><time>2022-11-14T16:12:03.0000000+00:00</time></trkpt><trkpt lat="39.46735877" lon="-0.35680538"><ele>2.2</ele><time>2022-11-14T16:12:04.0000000+00:00</time></trkpt><trkpt lat="39.46730814" lon="-0.35675283"><ele>2.2</ele><time>2022-11-14T16:12:05.0000000+00:00</time></trkpt><trkpt lat="39.46728551" lon="-0.35670396"><ele>2.2</ele><time>2022-11-14T16:12:06.0000000+00:00</time></trkpt><trkpt lat="39.46727252" lon="-0.35666197"><ele>2.2</ele><time>2022-11-14T16:12:07.0000000+00:00</time></trkpt><trkpt lat="39.46725299" lon="-0.35663799"><ele>2.2</ele><time>2022-11-14T16:12:08.0000000+00:00</time></trkpt><trkpt lat="39.46725743" lon="-0.35663439"><ele>2.0</ele><time>2022-11-14T16:12:09.0000000+00:00</time></trkpt><trkpt lat="39.46724611" lon="-0.35663833"><ele>2.0</ele><time>2022-11-14T16:12:10.0000000+00:00</time></trkpt><trkpt lat="39.4672493" lon="-0.3566369"><ele>1.8</ele><time>2022-11-14T16:12:11.0000000+00:00</time></trkpt><trkpt lat="39.46725802" lon="-0.35663246"><ele>1.8</ele><time>2022-11-14T16:12:12.0000000+00:00</time></trkpt><trkpt lat="39.46725391" lon="-0.35663414"><ele>1.8</ele><time>2022-11-14T16:12:13.0000000+00:00</time></trkpt><trkpt lat="39.46724159" lon="-0.35663188"><ele>2.0</ele><time>2022-11-14T16:12:14.0000000+00:00</time></trkpt><trkpt lat="39.46724385" lon="-0.35663514"><ele>2.0</ele><time>2022-11-14T16:12:15.0000000+00:00</time></trkpt><trkpt lat="39.46724461" lon="-0.35663297"><ele>2.0</ele><time>2022-11-14T16:12:16.0000000+00:00</time></trkpt><trkpt lat="39.46724578" lon="-0.35663045"><ele>2.0</ele><time>2022-11-14T16:12:17.0000000+00:00</time></trkpt><trkpt lat="39.46724385" lon="-0.35663221"><ele>2.0</ele><time>2022-11-14T16:12:18.0000000+00:00</time></trkpt><trkpt lat="39.46724419" lon="-0.35663154"><ele>2.0</ele><time>2022-11-14T16:12:19.0000000+00:00</time></trkpt><trkpt lat="39.46724754" lon="-0.35662903"><ele>2.0</ele><time>2022-11-14T16:12:20.0000000+00:00</time></trkpt><trkpt lat="39.46724754" lon="-0.35662903"><ele>1.8</ele><time>2022-11-14T16:12:21.0000000+00:00</time></trkpt><trkpt lat="39.46724762" lon="-0.35662903"><ele>1.8</ele><time>2022-11-14T16:12:22.0000000+00:00</time></trkpt><trkpt lat="39.46724561" lon="-0.35662659"><ele>2.0</ele><time>2022-11-14T16:12:23.0000000+00:00</time></trkpt><trkpt lat="39.46724569" lon="-0.35662651"><ele>2.0</ele><time>2022-11-14T16:12:24.0000000+00:00</time></trkpt><trkpt lat="39.46724704" lon="-0.35662333"><ele>2.0</ele><time>2022-11-14T16:12:25.0000000+00:00</time></trkpt><trkpt lat="39.46724704" lon="-0.35662333"><ele>1.8</ele><time>2022-11-14T16:12:26.0000000+00:00</time></trkpt><trkpt lat="39.46724779" lon="-0.3566209"><ele>1.8</ele><time>2022-11-14T16:12:27.0000000+00:00</time></trkpt><trkpt lat="39.46725399" lon="-0.35661981"><ele>1.8</ele><time>2022-11-14T16:12:28.0000000+00:00</time></trkpt><trkpt lat="39.4672555" lon="-0.35661771"><ele>1.8</ele><time>2022-11-14T16:12:29.0000000+00:00</time></trkpt><trkpt lat="39.46725475" lon="-0.35661645"><ele>1.8</ele><time>2022-11-14T16:12:30.0000000+00:00</time></trkpt><trkpt lat="39.46725475" lon="-0.35661645"><ele>1.8</ele><time>2022-11-14T16:12:31.0000000+00:00</time></trkpt><trkpt lat="39.46725642" lon="-0.35662131"><ele>1.8</ele><time>2022-11-14T16:12:32.0000000+00:00</time></trkpt><trkpt lat="39.46725458" lon="-0.35663925"><ele>1.8</ele><time>2022-11-14T16:12:33.0000000+00:00</time></trkpt><trkpt lat="39.46725458" lon="-0.35663934"><ele>1.8</ele><time>2022-11-14T16:12:34.0000000+00:00</time></trkpt><trkpt lat="39.46725458" lon="-0.35663934"><ele>1.8</ele><time>2022-11-14T16:12:35.0000000+00:00</time></trkpt><trkpt lat="39.46725458" lon="-0.35663934"><ele>1.8</ele><time>2022-11-14T16:12:36.0000000+00:00</time></trkpt><trkpt lat="39.46725458" lon="-0.35663934"><ele>1.8</ele><time>2022-11-14T16:12:37.0000000+00:00</time></trkpt><trkpt lat="39.46725458" lon="-0.35663934"><ele>1.8</ele><time>2022-11-14T16:12:38.0000000+00:00</time></trkpt><trkpt lat="39.46722013" lon="-0.35663146"><ele>1.8</ele><time>2022-11-14T16:12:39.0000000+00:00</time></trkpt><trkpt lat="39.4671954" lon="-0.35661863"><ele>1.8</ele><time>2022-11-14T16:12:40.0000000+00:00</time></trkpt><trkpt lat="39.46716975" lon="-0.35660153"><ele>1.8</ele><time>2022-11-14T16:12:41.0000000+00:00</time></trkpt><trkpt lat="39.46715584" lon="-0.35659717"><ele>1.8</ele><time>2022-11-14T16:12:42.0000000+00:00</time></trkpt><trkpt lat="39.46713665" lon="-0.3565965"><ele>2.0</ele><time>2022-11-14T16:12:43.0000000+00:00</time></trkpt><trkpt lat="39.46712961" lon="-0.35659474"><ele>2.0</ele><time>2022-11-14T16:12:44.0000000+00:00</time></trkpt><trkpt lat="39.46712776" lon="-0.35659659"><ele>2.0</ele><time>2022-11-14T16:12:45.0000000+00:00</time></trkpt><trkpt lat="39.46711686" lon="-0.3565955"><ele>2.0</ele><time>2022-11-14T16:12:46.0000000+00:00</time></trkpt><trkpt lat="39.46708962" lon="-0.35658519"><ele>2.0</ele><time>2022-11-14T16:12:47.0000000+00:00</time></trkpt><trkpt lat="39.46706892" lon="-0.35656256"><ele>2.0</ele><time>2022-11-14T16:12:48.0000000+00:00</time></trkpt><trkpt lat="39.46704277" lon="-0.35653473"><ele>2.0</ele><time>2022-11-14T16:12:49.0000000+00:00</time></trkpt><trkpt lat="39.46701771" lon="-0.35649684"><ele>2.0</ele><time>2022-11-14T16:12:50.0000000+00:00</time></trkpt><trkpt lat="39.46700111" lon="-0.35644923"><ele>2.0</ele><time>2022-11-14T16:12:51.0000000+00:00</time></trkpt><trkpt lat="39.46699625" lon="-0.35639324"><ele>1.8</ele><time>2022-11-14T16:12:52.0000000+00:00</time></trkpt><trkpt lat="39.46699399" lon="-0.35632568"><ele>1.8</ele><time>2022-11-14T16:12:53.0000000+00:00</time></trkpt><trkpt lat="39.46699231" lon="-0.35622854"><ele>1.8</ele><time>2022-11-14T16:12:54.0000000+00:00</time></trkpt><trkpt lat="39.46698418" lon="-0.35616182"><ele>1.8</ele><time>2022-11-14T16:12:55.0000000+00:00</time></trkpt><trkpt lat="39.46697898" lon="-0.35604481"><ele>1.8</ele><time>2022-11-14T16:12:56.0000000+00:00</time></trkpt><trkpt lat="39.46696566" lon="-0.35598286"><ele>1.8</ele><time>2022-11-14T16:12:57.0000000+00:00</time></trkpt><trkpt lat="39.46695442" lon="-0.35591472"><ele>1.8</ele><time>2022-11-14T16:12:58.0000000+00:00</time></trkpt><trkpt lat="39.46694294" lon="-0.35583735"><ele>1.8</ele><time>2022-11-14T16:12:59.0000000+00:00</time></trkpt><trkpt lat="39.46693037" lon="-0.35576452"><ele>1.8</ele><time>2022-11-14T16:13:00.0000000+00:00</time></trkpt><trkpt lat="39.46692458" lon="-0.35568589"><ele>1.8</ele><time>2022-11-14T16:13:01.0000000+00:00</time></trkpt><trkpt lat="39.46691528" lon="-0.35563309"><ele>1.8</ele><time>2022-11-14T16:13:02.0000000+00:00</time></trkpt><trkpt lat="39.46690304" lon="-0.35559981"><ele>1.8</ele><time>2022-11-14T16:13:03.0000000+00:00</time></trkpt><trkpt lat="39.46689282" lon="-0.35557081"><ele>1.8</ele><time>2022-11-14T16:13:04.0000000+00:00</time></trkpt><trkpt lat="39.46688033" lon="-0.35553661"><ele>1.8</ele><time>2022-11-14T16:13:05.0000000+00:00</time></trkpt><trkpt lat="39.46686373" lon="-0.35551122"><ele>1.6</ele><time>2022-11-14T16:13:06.0000000+00:00</time></trkpt><trkpt lat="39.46683515" lon="-0.35546864"><ele>1.6</ele><time>2022-11-14T16:13:07.0000000+00:00</time></trkpt><trkpt lat="39.46680573" lon="-0.35542731"><ele>1.6</ele><time>2022-11-14T16:13:08.0000000+00:00</time></trkpt><trkpt lat="39.46679584" lon="-0.35537166"><ele>1.6</ele><time>2022-11-14T16:13:09.0000000+00:00</time></trkpt><trkpt lat="39.46677773" lon="-0.35531315"><ele>1.6</ele><time>2022-11-14T16:13:10.0000000+00:00</time></trkpt><trkpt lat="39.46676181" lon="-0.35525808"><ele>1.6</ele><time>2022-11-14T16:13:11.0000000+00:00</time></trkpt><trkpt lat="39.46674831" lon="-0.35520293"><ele>1.6</ele><time>2022-11-14T16:13:12.0000000+00:00</time></trkpt><trkpt lat="39.46673138" lon="-0.35514652"><ele>1.6</ele><time>2022-11-14T16:13:13.0000000+00:00</time></trkpt><trkpt lat="39.46671881" lon="-0.35509832"><ele>1.8</ele><time>2022-11-14T16:13:14.0000000+00:00</time></trkpt><trkpt lat="39.46670045" lon="-0.35504183"><ele>1.8</ele><time>2022-11-14T16:13:15.0000000+00:00</time></trkpt><trkpt lat="39.46668008" lon="-0.35496966"><ele>1.8</ele><time>2022-11-14T16:13:16.0000000+00:00</time></trkpt><trkpt lat="39.46665762" lon="-0.35490545"><ele>1.8</ele><time>2022-11-14T16:13:17.0000000+00:00</time></trkpt><trkpt lat="39.46663952" lon="-0.3548348"><ele>1.8</ele><time>2022-11-14T16:13:18.0000000+00:00</time></trkpt><trkpt lat="39.46662661" lon="-0.35476028"><ele>1.8</ele><time>2022-11-14T16:13:19.0000000+00:00</time></trkpt><trkpt lat="39.46661579" lon="-0.35469163"><ele>1.8</ele><time>2022-11-14T16:13:20.0000000+00:00</time></trkpt><trkpt lat="39.4665883" lon="-0.35462709"><ele>1.6</ele><time>2022-11-14T16:13:21.0000000+00:00</time></trkpt><trkpt lat="39.46661571" lon="-0.35455174"><ele>1.6</ele><time>2022-11-14T16:13:22.0000000+00:00</time></trkpt><trkpt lat="39.46664228" lon="-0.35448158"><ele>1.6</ele><time>2022-11-14T16:13:23.0000000+00:00</time></trkpt><trkpt lat="39.46665326" lon="-0.35441076"><ele>1.6</ele><time>2022-11-14T16:13:24.0000000+00:00</time></trkpt><trkpt lat="39.46668335" lon="-0.35434496"><ele>1.4</ele><time>2022-11-14T16:13:25.0000000+00:00</time></trkpt><trkpt lat="39.46667422" lon="-0.35427472"><ele>1.4</ele><time>2022-11-14T16:13:26.0000000+00:00</time></trkpt><trkpt lat="39.46672199" lon="-0.35420515"><ele>1.4</ele><time>2022-11-14T16:13:27.0000000+00:00</time></trkpt><trkpt lat="39.46671504" lon="-0.35411789"><ele>1.4</ele><time>2022-11-14T16:13:28.0000000+00:00</time></trkpt><trkpt lat="39.4666536" lon="-0.35404606"><ele>1.4</ele><time>2022-11-14T16:13:29.0000000+00:00</time></trkpt><trkpt lat="39.46662912" lon="-0.35394967"><ele>1.4</ele><time>2022-11-14T16:13:30.0000000+00:00</time></trkpt><trkpt lat="39.46660632" lon="-0.35385864"><ele>1.4</ele><time>2022-11-14T16:13:31.0000000+00:00</time></trkpt><trkpt lat="39.46657313" lon="-0.35376543"><ele>1.4</ele><time>2022-11-14T16:13:32.0000000+00:00</time></trkpt><trkpt lat="39.466551" lon="-0.35367147"><ele>1.4</ele><time>2022-11-14T16:13:33.0000000+00:00</time></trkpt><trkpt lat="39.4665505" lon="-0.35355739"><ele>1.6</ele><time>2022-11-14T16:13:34.0000000+00:00</time></trkpt><trkpt lat="39.46653147" lon="-0.35347944"><ele>1.6</ele><time>2022-11-14T16:13:35.0000000+00:00</time></trkpt><trkpt lat="39.46650406" lon="-0.35340979"><ele>1.6</ele><time>2022-11-14T16:13:36.0000000+00:00</time></trkpt><trkpt lat="39.46647154" lon="-0.35333913"><ele>1.6</ele><time>2022-11-14T16:13:37.0000000+00:00</time></trkpt><trkpt lat="39.46639426" lon="-0.35326629"><ele>1.4</ele><time>2022-11-14T16:13:38.0000000+00:00</time></trkpt><trkpt lat="39.46633718" lon="-0.35318792"><ele>1.4</ele><time>2022-11-14T16:13:39.0000000+00:00</time></trkpt><trkpt lat="39.46628865" lon="-0.35312522"><ele>1.4</ele><time>2022-11-14T16:13:40.0000000+00:00</time></trkpt><trkpt lat="39.46622159" lon="-0.3530777"><ele>1.4</ele><time>2022-11-14T16:13:41.0000000+00:00</time></trkpt><trkpt lat="39.46623517" lon="-0.35302397"><ele>1.4</ele><time>2022-11-14T16:13:42.0000000+00:00</time></trkpt><trkpt lat="39.46621313" lon="-0.35298239"><ele>1.2</ele><time>2022-11-14T16:13:43.0000000+00:00</time></trkpt><trkpt lat="39.46619636" lon="-0.35291542"><ele>1.2</ele><time>2022-11-14T16:13:44.0000000+00:00</time></trkpt><trkpt lat="39.46618656" lon="-0.35285155"><ele>1.4</ele><time>2022-11-14T16:13:45.0000000+00:00</time></trkpt><trkpt lat="39.46615823" lon="-0.35278508"><ele>1.4</ele><time>2022-11-14T16:13:46.0000000+00:00</time></trkpt><trkpt lat="39.46612026" lon="-0.35271417"><ele>1.4</ele><time>2022-11-14T16:13:47.0000000+00:00</time></trkpt><trkpt lat="39.46610156" lon="-0.35264368"><ele>1.4</ele><time>2022-11-14T16:13:48.0000000+00:00</time></trkpt><trkpt lat="39.46608891" lon="-0.35258208"><ele>1.6</ele><time>2022-11-14T16:13:49.0000000+00:00</time></trkpt><trkpt lat="39.46607667" lon="-0.35249733"><ele>1.6</ele><time>2022-11-14T16:13:50.0000000+00:00</time></trkpt><trkpt lat="39.46607231" lon="-0.35242994"><ele>1.6</ele><time>2022-11-14T16:13:51.0000000+00:00</time></trkpt><trkpt lat="39.46606846" lon="-0.35236104"><ele>1.6</ele><time>2022-11-14T16:13:52.0000000+00:00</time></trkpt><trkpt lat="39.46606879" lon="-0.352296"><ele>1.6</ele><time>2022-11-14T16:13:53.0000000+00:00</time></trkpt><trkpt lat="39.46606871" lon="-0.35222224"><ele>1.6</ele><time>2022-11-14T16:13:54.0000000+00:00</time></trkpt><trkpt lat="39.46607533" lon="-0.35214563"><ele>1.8</ele><time>2022-11-14T16:13:55.0000000+00:00</time></trkpt><trkpt lat="39.46607692" lon="-0.35206986"><ele>1.8</ele><time>2022-11-14T16:13:56.0000000+00:00</time></trkpt><trkpt lat="39.46607491" lon="-0.35199735"><ele>1.8</ele><time>2022-11-14T16:13:57.0000000+00:00</time></trkpt><trkpt lat="39.4660734" lon="-0.35192862"><ele>1.6</ele><time>2022-11-14T16:13:58.0000000+00:00</time></trkpt><trkpt lat="39.46606343" lon="-0.35186391"><ele>1.4</ele><time>2022-11-14T16:13:59.0000000+00:00</time></trkpt><trkpt lat="39.46604616" lon="-0.35180222"><ele>1.2</ele><time>2022-11-14T16:14:00.0000000+00:00</time></trkpt><trkpt lat="39.46602462" lon="-0.35174732"><ele>1.2</ele><time>2022-11-14T16:14:01.0000000+00:00</time></trkpt><trkpt lat="39.46600291" lon="-0.35169242"><ele>0.8</ele><time>2022-11-14T16:14:02.0000000+00:00</time></trkpt><trkpt lat="39.46597969" lon="-0.35163492"><ele>0.8</ele><time>2022-11-14T16:14:03.0000000+00:00</time></trkpt><trkpt lat="39.46596368" lon="-0.35157583"><ele>0.6</ele><time>2022-11-14T16:14:04.0000000+00:00</time></trkpt><trkpt lat="39.46596645" lon="-0.35151363"><ele>0.6</ele><time>2022-11-14T16:14:05.0000000+00:00</time></trkpt><trkpt lat="39.46596821" lon="-0.35145211"><ele>0.4</ele><time>2022-11-14T16:14:06.0000000+00:00</time></trkpt><trkpt lat="39.46597047" lon="-0.35139562"><ele>0.4</ele><time>2022-11-14T16:14:07.0000000+00:00</time></trkpt><trkpt lat="39.46594742" lon="-0.35136863"><ele>0.4</ele><time>2022-11-14T16:14:08.0000000+00:00</time></trkpt><trkpt lat="39.46592672" lon="-0.351347"><ele>0.4</ele><time>2022-11-14T16:14:09.0000000+00:00</time></trkpt><trkpt lat="39.46589797" lon="-0.35134465"><ele>0.4</ele><time>2022-11-14T16:14:10.0000000+00:00</time></trkpt><trkpt lat="39.46586536" lon="-0.35134792"><ele>0.4</ele><time>2022-11-14T16:14:11.0000000+00:00</time></trkpt><trkpt lat="39.46586318" lon="-0.35134742"><ele>0.4</ele><time>2022-11-14T16:14:12.0000000+00:00</time></trkpt><trkpt lat="39.46585304" lon="-0.35135237"><ele>0.6</ele><time>2022-11-14T16:14:13.0000000+00:00</time></trkpt><trkpt lat="39.46585329" lon="-0.35135144"><ele>0.6</ele><time>2022-11-14T16:14:14.0000000+00:00</time></trkpt><trkpt lat="39.46585405" lon="-0.35135103"><ele>0.6</ele><time>2022-11-14T16:14:15.0000000+00:00</time></trkpt><trkpt lat="39.46585438" lon="-0.35135086"><ele>0.6</ele><time>2022-11-14T16:14:16.0000000+00:00</time></trkpt><trkpt lat="39.46585438" lon="-0.35135086"><ele>0.6</ele><time>2022-11-14T16:14:17.0000000+00:00</time></trkpt><trkpt lat="39.46585044" lon="-0.35135522"><ele>0.8</ele><time>2022-11-14T16:14:18.0000000+00:00</time></trkpt><trkpt lat="39.46584013" lon="-0.35136402"><ele>0.8</ele><time>2022-11-14T16:14:19.0000000+00:00</time></trkpt><trkpt lat="39.46583971" lon="-0.35136393"><ele>0.8</ele><time>2022-11-14T16:14:20.0000000+00:00</time></trkpt><trkpt lat="39.46583024" lon="-0.35137835"><ele>0.8</ele><time>2022-11-14T16:14:21.0000000+00:00</time></trkpt><trkpt lat="39.46583066" lon="-0.35137801"><ele>0.8</ele><time>2022-11-14T16:14:22.0000000+00:00</time></trkpt><trkpt lat="39.46583066" lon="-0.35137801"><ele>0.8</ele><time>2022-11-14T16:14:23.0000000+00:00</time></trkpt><trkpt lat="39.46581666" lon="-0.35139084"><ele>0.8</ele><time>2022-11-14T16:14:24.0000000+00:00</time></trkpt><trkpt lat="39.46577752" lon="-0.35140098"><ele>0.8</ele><time>2022-11-14T16:14:25.0000000+00:00</time></trkpt><trkpt lat="39.46577786" lon="-0.35140048"><ele>0.8</ele><time>2022-11-14T16:14:26.0000000+00:00</time></trkpt><trkpt lat="39.46577786" lon="-0.35140048"><ele>0.8</ele><time>2022-11-14T16:14:27.0000000+00:00</time></trkpt><trkpt lat="39.46577786" lon="-0.35140048"><ele>0.8</ele><time>2022-11-14T16:14:28.0000000+00:00</time></trkpt><trkpt lat="39.46577786" lon="-0.35140048"><ele>0.8</ele><time>2022-11-14T16:14:29.0000000+00:00</time></trkpt><trkpt lat="39.46577786" lon="-0.35140048"><ele>0.8</ele><time>2022-11-14T16:14:30.0000000+00:00</time></trkpt><trkpt lat="39.46576034" lon="-0.35140961"><ele>0.8</ele><time>2022-11-14T16:14:31.0000000+00:00</time></trkpt><trkpt lat="39.46575983" lon="-0.3514102"><ele>0.8</ele><time>2022-11-14T16:14:32.0000000+00:00</time></trkpt><trkpt lat="39.46575631" lon="-0.35141096"><ele>0.8</ele><time>2022-11-14T16:14:33.0000000+00:00</time></trkpt><trkpt lat="39.46575631" lon="-0.35140961"><ele>0.8</ele><time>2022-11-14T16:14:34.0000000+00:00</time></trkpt><trkpt lat="39.4657362" lon="-0.35141523"><ele>0.8</ele><time>2022-11-14T16:14:35.0000000+00:00</time></trkpt><trkpt lat="39.46573603" lon="-0.35141582"><ele>0.8</ele><time>2022-11-14T16:14:36.0000000+00:00</time></trkpt><trkpt lat="39.46573603" lon="-0.35141582"><ele>0.8</ele><time>2022-11-14T16:14:37.0000000+00:00</time></trkpt><trkpt lat="39.46573603" lon="-0.35141582"><ele>0.8</ele><time>2022-11-14T16:14:38.0000000+00:00</time></trkpt><trkpt lat="39.46573603" lon="-0.35141582"><ele>0.8</ele><time>2022-11-14T16:14:39.0000000+00:00</time></trkpt><trkpt lat="39.46573603" lon="-0.35141582"><ele>0.8</ele><time>2022-11-14T16:14:40.0000000+00:00</time></trkpt><trkpt lat="39.46573603" lon="-0.35141582"><ele>0.6</ele><time>2022-11-14T16:14:41.0000000+00:00</time></trkpt><trkpt lat="39.46573603" lon="-0.35141582"><ele>0.6</ele><time>2022-11-14T16:14:42.0000000+00:00</time></trkpt><trkpt lat="39.46573452" lon="-0.35141003"><ele>0.6</ele><time>2022-11-14T16:14:43.0000000+00:00</time></trkpt><trkpt lat="39.46573477" lon="-0.35140886"><ele>0.8</ele><time>2022-11-14T16:14:44.0000000+00:00</time></trkpt><trkpt lat="39.46573477" lon="-0.35140886"><ele>0.8</ele><time>2022-11-14T16:14:45.0000000+00:00</time></trkpt><trkpt lat="39.46573477" lon="-0.35140886"><ele>0.8</ele><time>2022-11-14T16:14:46.0000000+00:00</time></trkpt><trkpt lat="39.46573477" lon="-0.35140886"><ele>0.8</ele><time>2022-11-14T16:14:47.0000000+00:00</time></trkpt><trkpt lat="39.46572815" lon="-0.35141255"><ele>0.8</ele><time>2022-11-14T16:14:48.0000000+00:00</time></trkpt><trkpt lat="39.46571667" lon="-0.35142001"><ele>0.8</ele><time>2022-11-14T16:14:49.0000000+00:00</time></trkpt><trkpt lat="39.4657139" lon="-0.3514247"><ele>0.8</ele><time>2022-11-14T16:14:50.0000000+00:00</time></trkpt><trkpt lat="39.46571264" lon="-0.35142655"><ele>0.6</ele><time>2022-11-14T16:14:51.0000000+00:00</time></trkpt><trkpt lat="39.46570586" lon="-0.35143334"><ele>0.6</ele><time>2022-11-14T16:14:52.0000000+00:00</time></trkpt><trkpt lat="39.46570384" lon="-0.35143845"><ele>0.8</ele><time>2022-11-14T16:14:53.0000000+00:00</time></trkpt><trkpt lat="39.46570426" lon="-0.3514382"><ele>0.8</ele><time>2022-11-14T16:14:54.0000000+00:00</time></trkpt><trkpt lat="39.46571667" lon="-0.35143769"><ele>0.8</ele><time>2022-11-14T16:14:55.0000000+00:00</time></trkpt><trkpt lat="39.46571977" lon="-0.35143836"><ele>0.8</ele><time>2022-11-14T16:14:56.0000000+00:00</time></trkpt><trkpt lat="39.46571633" lon="-0.35143853"><ele>0.8</ele><time>2022-11-14T16:14:57.0000000+00:00</time></trkpt><trkpt lat="39.46571633" lon="-0.35143853"><ele>0.8</ele><time>2022-11-14T16:14:58.0000000+00:00</time></trkpt><trkpt lat="39.46571633" lon="-0.35143853"><ele>0.8</ele><time>2022-11-14T16:14:59.0000000+00:00</time></trkpt><trkpt lat="39.46571633" lon="-0.35143853"><ele>0.8</ele><time>2022-11-14T16:15:00.0000000+00:00</time></trkpt><trkpt lat="39.46570954" lon="-0.35144306"><ele>0.8</ele><time>2022-11-14T16:15:01.0000000+00:00</time></trkpt><trkpt lat="39.4657041" lon="-0.35144063"><ele>0.8</ele><time>2022-11-14T16:15:02.0000000+00:00</time></trkpt><trkpt lat="39.46570083" lon="-0.35143082"><ele>0.8</ele><time>2022-11-14T16:15:03.0000000+00:00</time></trkpt><trkpt lat="39.46569664" lon="-0.35142847"><ele>0.8</ele><time>2022-11-14T16:15:04.0000000+00:00</time></trkpt><trkpt lat="39.46567191" lon="-0.35144071"><ele>0.8</ele><time>2022-11-14T16:15:05.0000000+00:00</time></trkpt><trkpt lat="39.46569923" lon="-0.35140182"><ele>0.8</ele><time>2022-11-14T16:15:06.0000000+00:00</time></trkpt><trkpt lat="39.46569144" lon="-0.35139956"><ele>0.8</ele><time>2022-11-14T16:15:07.0000000+00:00</time></trkpt><trkpt lat="39.46568683" lon="-0.35139034"><ele>0.8</ele><time>2022-11-14T16:15:08.0000000+00:00</time></trkpt><trkpt lat="39.46567342" lon="-0.35137072"><ele>0.8</ele><time>2022-11-14T16:15:09.0000000+00:00</time></trkpt><trkpt lat="39.46566696" lon="-0.35133518"><ele>0.8</ele><time>2022-11-14T16:15:10.0000000+00:00</time></trkpt><trkpt lat="39.46573829" lon="-0.35130283"><ele>0.8</ele><time>2022-11-14T16:15:11.0000000+00:00</time></trkpt><trkpt lat="39.46574508" lon="-0.35127383"><ele>0.6</ele><time>2022-11-14T16:15:12.0000000+00:00</time></trkpt><trkpt lat="39.46573846" lon="-0.35124441"><ele>0.6</ele><time>2022-11-14T16:15:13.0000000+00:00</time></trkpt><trkpt lat="39.46573201" lon="-0.35120275"><ele>0.6</ele><time>2022-11-14T16:15:14.0000000+00:00</time></trkpt><trkpt lat="39.46572589" lon="-0.35116034"><ele>0.6</ele><time>2022-11-14T16:15:15.0000000+00:00</time></trkpt><trkpt lat="39.46571742" lon="-0.35111818"><ele>0.6</ele><time>2022-11-14T16:15:16.0000000+00:00</time></trkpt><trkpt lat="39.46570041" lon="-0.35107819"><ele>0.6</ele><time>2022-11-14T16:15:17.0000000+00:00</time></trkpt><trkpt lat="39.46567543" lon="-0.35105171"><ele>0.6</ele><time>2022-11-14T16:15:18.0000000+00:00</time></trkpt><trkpt lat="39.46565003" lon="-0.35103327"><ele>0.6</ele><time>2022-11-14T16:15:19.0000000+00:00</time></trkpt><trkpt lat="39.46563486" lon="-0.35100251"><ele>0.8</ele><time>2022-11-14T16:15:20.0000000+00:00</time></trkpt><trkpt lat="39.46564894" lon="-0.35095599"><ele>0.6</ele><time>2022-11-14T16:15:21.0000000+00:00</time></trkpt><trkpt lat="39.46568037" lon="-0.35088348"><ele>0.6</ele><time>2022-11-14T16:15:22.0000000+00:00</time></trkpt><trkpt lat="39.46570921" lon="-0.35082917"><ele>0.4</ele><time>2022-11-14T16:15:23.0000000+00:00</time></trkpt><trkpt lat="39.46572899" lon="-0.35076614"><ele>0.4</ele><time>2022-11-14T16:15:24.0000000+00:00</time></trkpt><trkpt lat="39.46574559" lon="-0.35070662"><ele>0.4</ele><time>2022-11-14T16:15:25.0000000+00:00</time></trkpt><trkpt lat="39.46574156" lon="-0.3506529"><ele>0.4</ele><time>2022-11-14T16:15:26.0000000+00:00</time></trkpt><trkpt lat="39.46575053" lon="-0.35059213"><ele>0.4</ele><time>2022-11-14T16:15:27.0000000+00:00</time></trkpt><trkpt lat="39.46572974" lon="-0.35052792"><ele>0.4</ele><time>2022-11-14T16:15:28.0000000+00:00</time></trkpt><trkpt lat="39.46571566" lon="-0.35046397"><ele>0.4</ele><time>2022-11-14T16:15:29.0000000+00:00</time></trkpt><trkpt lat="39.46569823" lon="-0.35040018"><ele>0.4</ele><time>2022-11-14T16:15:30.0000000+00:00</time></trkpt><trkpt lat="39.46567962" lon="-0.35033489"><ele>0.4</ele><time>2022-11-14T16:15:31.0000000+00:00</time></trkpt><trkpt lat="39.46565799" lon="-0.35026934"><ele>0.4</ele><time>2022-11-14T16:15:32.0000000+00:00</time></trkpt><trkpt lat="39.46563126" lon="-0.35021109"><ele>0.4</ele><time>2022-11-14T16:15:33.0000000+00:00</time></trkpt><trkpt lat="39.46560284" lon="-0.35014437"><ele>0.4</ele><time>2022-11-14T16:15:34.0000000+00:00</time></trkpt><trkpt lat="39.46558096" lon="-0.35008234"><ele>0.4</ele><time>2022-11-14T16:15:35.0000000+00:00</time></trkpt><trkpt lat="39.46555121" lon="-0.35001411"><ele>0.4</ele><time>2022-11-14T16:15:36.0000000+00:00</time></trkpt><trkpt lat="39.46551181" lon="-0.34995343"><ele>0.4</ele><time>2022-11-14T16:15:37.0000000+00:00</time></trkpt><trkpt lat="39.46547946" lon="-0.34988889"><ele>0.4</ele><time>2022-11-14T16:15:38.0000000+00:00</time></trkpt><trkpt lat="39.46545851" lon="-0.34982393"><ele>0.2</ele><time>2022-11-14T16:15:39.0000000+00:00</time></trkpt><trkpt lat="39.46544576" lon="-0.34975134"><ele>0.2</ele><time>2022-11-14T16:15:40.0000000+00:00</time></trkpt><trkpt lat="39.46543344" lon="-0.34967942"><ele>0.4</ele><time>2022-11-14T16:15:41.0000000+00:00</time></trkpt><trkpt lat="39.46540914" lon="-0.34961656"><ele>0.6</ele><time>2022-11-14T16:15:42.0000000+00:00</time></trkpt><trkpt lat="39.46538885" lon="-0.34955562"><ele>0.6</ele><time>2022-11-14T16:15:43.0000000+00:00</time></trkpt><trkpt lat="39.46536882" lon="-0.3494915"><ele>0.6</ele><time>2022-11-14T16:15:44.0000000+00:00</time></trkpt><trkpt lat="39.46535499" lon="-0.3494392"><ele>0.6</ele><time>2022-11-14T16:15:45.0000000+00:00</time></trkpt><trkpt lat="39.46534191" lon="-0.34936175"><ele>0.6</ele><time>2022-11-14T16:15:46.0000000+00:00</time></trkpt><trkpt lat="39.46533085" lon="-0.34929394"><ele>0.6</ele><time>2022-11-14T16:15:47.0000000+00:00</time></trkpt><trkpt lat="39.46531015" lon="-0.34922311"><ele>0.6</ele><time>2022-11-14T16:15:48.0000000+00:00</time></trkpt><trkpt lat="39.4652969" lon="-0.3491631"><ele>0.4</ele><time>2022-11-14T16:15:49.0000000+00:00</time></trkpt><trkpt lat="39.46525449" lon="-0.34907442"><ele>0.4</ele><time>2022-11-14T16:15:50.0000000+00:00</time></trkpt><trkpt lat="39.46522038" lon="-0.34900677"><ele>0.4</ele><time>2022-11-14T16:15:51.0000000+00:00</time></trkpt><trkpt lat="39.46518517" lon="-0.34893754"><ele>0.4</ele><time>2022-11-14T16:15:52.0000000+00:00</time></trkpt><trkpt lat="39.46515575" lon="-0.34887149"><ele>0.4</ele><time>2022-11-14T16:15:53.0000000+00:00</time></trkpt><trkpt lat="39.46514737" lon="-0.34879555"><ele>0.6</ele><time>2022-11-14T16:15:54.0000000+00:00</time></trkpt><trkpt lat="39.46513169" lon="-0.34872087"><ele>0.6</ele><time>2022-11-14T16:15:55.0000000+00:00</time></trkpt><trkpt lat="39.46511409" lon="-0.3486513"><ele>0.6</ele><time>2022-11-14T16:15:56.0000000+00:00</time></trkpt><trkpt lat="39.46509817" lon="-0.34858684"><ele>0.8</ele><time>2022-11-14T16:15:57.0000000+00:00</time></trkpt><trkpt lat="39.46507" lon="-0.34851031"><ele>0.8</ele><time>2022-11-14T16:15:58.0000000+00:00</time></trkpt><trkpt lat="39.46504612" lon="-0.34843588"><ele>0.8</ele><time>2022-11-14T16:15:59.0000000+00:00</time></trkpt><trkpt lat="39.46503405" lon="-0.34835852"><ele>0.8</ele><time>2022-11-14T16:16:00.0000000+00:00</time></trkpt><trkpt lat="39.46503958" lon="-0.34828157"><ele>0.8</ele><time>2022-11-14T16:16:01.0000000+00:00</time></trkpt><trkpt lat="39.46503555" lon="-0.34820664"><ele>1.0</ele><time>2022-11-14T16:16:02.0000000+00:00</time></trkpt><trkpt lat="39.46498442" lon="-0.3481333"><ele>1.0</ele><time>2022-11-14T16:16:03.0000000+00:00</time></trkpt><trkpt lat="39.46496733" lon="-0.34805736"><ele>1.0</ele><time>2022-11-14T16:16:04.0000000+00:00</time></trkpt><trkpt lat="39.4649514" lon="-0.34798326"><ele>1.0</ele><time>2022-11-14T16:16:05.0000000+00:00</time></trkpt><trkpt lat="39.46494361" lon="-0.34791134"><ele>0.8</ele><time>2022-11-14T16:16:06.0000000+00:00</time></trkpt><trkpt lat="39.46489449" lon="-0.34783683"><ele>0.8</ele><time>2022-11-14T16:16:07.0000000+00:00</time></trkpt><trkpt lat="39.46490279" lon="-0.34777002"><ele>0.8</ele><time>2022-11-14T16:16:08.0000000+00:00</time></trkpt><trkpt lat="39.4649074" lon="-0.34769978"><ele>0.8</ele><time>2022-11-14T16:16:09.0000000+00:00</time></trkpt><trkpt lat="39.46490287" lon="-0.34762158"><ele>0.8</ele><time>2022-11-14T16:16:10.0000000+00:00</time></trkpt><trkpt lat="39.46489407" lon="-0.34754489"><ele>0.6</ele><time>2022-11-14T16:16:11.0000000+00:00</time></trkpt><trkpt lat="39.46486825" lon="-0.3474635"><ele>0.6</ele><time>2022-11-14T16:16:12.0000000+00:00</time></trkpt><trkpt lat="39.46486817" lon="-0.34738504"><ele>0.4</ele><time>2022-11-14T16:16:13.0000000+00:00</time></trkpt><trkpt lat="39.46486104" lon="-0.34730173"><ele>0.4</ele><time>2022-11-14T16:16:14.0000000+00:00</time></trkpt><trkpt lat="39.46484042" lon="-0.34721883"><ele>0.2</ele><time>2022-11-14T16:16:15.0000000+00:00</time></trkpt><trkpt lat="39.46480455" lon="-0.34713711"><ele>0.0</ele><time>2022-11-14T16:16:16.0000000+00:00</time></trkpt><trkpt lat="39.46477915" lon="-0.34706008"><ele>0.0</ele><time>2022-11-14T16:16:17.0000000+00:00</time></trkpt><trkpt lat="39.46475149" lon="-0.34698732"><ele>0.0</ele><time>2022-11-14T16:16:18.0000000+00:00</time></trkpt><trkpt lat="39.46471956" lon="-0.34691809"><ele>-0.2</ele><time>2022-11-14T16:16:19.0000000+00:00</time></trkpt><trkpt lat="39.4646862" lon="-0.34684684"><ele>-0.2</ele><time>2022-11-14T16:16:20.0000000+00:00</time></trkpt><trkpt lat="39.4646551" lon="-0.34677618"><ele>-0.2</ele><time>2022-11-14T16:16:21.0000000+00:00</time></trkpt><trkpt lat="39.46463616" lon="-0.34669236"><ele>-0.2</ele><time>2022-11-14T16:16:22.0000000+00:00</time></trkpt><trkpt lat="39.46461277" lon="-0.34660125"><ele>-0.2</ele><time>2022-11-14T16:16:23.0000000+00:00</time></trkpt><trkpt lat="39.4645919" lon="-0.34653151"><ele>-0.2</ele><time>2022-11-14T16:16:24.0000000+00:00</time></trkpt><trkpt lat="39.46458628" lon="-0.34646773"><ele>-0.2</ele><time>2022-11-14T16:16:25.0000000+00:00</time></trkpt><trkpt lat="39.4645774" lon="-0.34637813"><ele>-0.2</ele><time>2022-11-14T16:16:26.0000000+00:00</time></trkpt><trkpt lat="39.46456709" lon="-0.34630269"><ele>-0.2</ele><time>2022-11-14T16:16:27.0000000+00:00</time></trkpt><trkpt lat="39.46454555" lon="-0.34622591"><ele>-0.2</ele><time>2022-11-14T16:16:28.0000000+00:00</time></trkpt><trkpt lat="39.46452007" lon="-0.3461493"><ele>-0.2</ele><time>2022-11-14T16:16:29.0000000+00:00</time></trkpt><trkpt lat="39.46448947" lon="-0.34608736"><ele>-0.2</ele><time>2022-11-14T16:16:30.0000000+00:00</time></trkpt><trkpt lat="39.46444999" lon="-0.34599566"><ele>-0.2</ele><time>2022-11-14T16:16:31.0000000+00:00</time></trkpt><trkpt lat="39.46442049" lon="-0.34593581"><ele>-0.2</ele><time>2022-11-14T16:16:32.0000000+00:00</time></trkpt><trkpt lat="39.4643909" lon="-0.34588368"><ele>-0.2</ele><time>2022-11-14T16:16:33.0000000+00:00</time></trkpt><trkpt lat="39.46435126" lon="-0.34583523"><ele>-0.2</ele><time>2022-11-14T16:16:34.0000000+00:00</time></trkpt><trkpt lat="39.46433173" lon="-0.34576558"><ele>-0.2</ele><time>2022-11-14T16:16:35.0000000+00:00</time></trkpt><trkpt lat="39.46431563" lon="-0.34569701"><ele>-0.2</ele><time>2022-11-14T16:16:36.0000000+00:00</time></trkpt><trkpt lat="39.46426543" lon="-0.34563214"><ele>-0.2</ele><time>2022-11-14T16:16:37.0000000+00:00</time></trkpt><trkpt lat="39.46420717" lon="-0.34556491"><ele>-0.2</ele><time>2022-11-14T16:16:38.0000000+00:00</time></trkpt><trkpt lat="39.46418194" lon="-0.34549207"><ele>-0.4</ele><time>2022-11-14T16:16:39.0000000+00:00</time></trkpt><trkpt lat="39.46416149" lon="-0.34541404"><ele>-0.4</ele><time>2022-11-14T16:16:40.0000000+00:00</time></trkpt><trkpt lat="39.46412846" lon="-0.34534816"><ele>-0.4</ele><time>2022-11-14T16:16:41.0000000+00:00</time></trkpt><trkpt lat="39.4640848" lon="-0.34527959"><ele>-0.4</ele><time>2022-11-14T16:16:42.0000000+00:00</time></trkpt><trkpt lat="39.46404439" lon="-0.34520801"><ele>-0.4</ele><time>2022-11-14T16:16:43.0000000+00:00</time></trkpt><trkpt lat="39.46398891" lon="-0.34514364"><ele>-0.4</ele><time>2022-11-14T16:16:44.0000000+00:00</time></trkpt><trkpt lat="39.46383032" lon="-0.3451112"><ele>-0.4</ele><time>2022-11-14T16:16:45.0000000+00:00</time></trkpt><trkpt lat="39.4638009" lon="-0.3450506"><ele>-0.4</ele><time>2022-11-14T16:16:46.0000000+00:00</time></trkpt><trkpt lat="39.46378179" lon="-0.34498086"><ele>-0.4</ele><time>2022-11-14T16:16:47.0000000+00:00</time></trkpt><trkpt lat="39.46376201" lon="-0.34490869"><ele>-0.4</ele><time>2022-11-14T16:16:48.0000000+00:00</time></trkpt><trkpt lat="39.46374273" lon="-0.34483544"><ele>-0.4</ele><time>2022-11-14T16:16:49.0000000+00:00</time></trkpt><trkpt lat="39.46372898" lon="-0.34476092"><ele>-0.4</ele><time>2022-11-14T16:16:50.0000000+00:00</time></trkpt><trkpt lat="39.46371473" lon="-0.34468574"><ele>-0.4</ele><time>2022-11-14T16:16:51.0000000+00:00</time></trkpt><trkpt lat="39.46369722" lon="-0.34461248"><ele>-0.4</ele><time>2022-11-14T16:16:52.0000000+00:00</time></trkpt><trkpt lat="39.46367894" lon="-0.34453679"><ele>-0.4</ele><time>2022-11-14T16:16:53.0000000+00:00</time></trkpt><trkpt lat="39.46365858" lon="-0.34445875"><ele>-0.4</ele><time>2022-11-14T16:16:54.0000000+00:00</time></trkpt><trkpt lat="39.46363402" lon="-0.34438315"><ele>-0.4</ele><time>2022-11-14T16:16:55.0000000+00:00</time></trkpt><trkpt lat="39.46361189" lon="-0.34430922"><ele>-0.4</ele><time>2022-11-14T16:16:56.0000000+00:00</time></trkpt><trkpt lat="39.46359647" lon="-0.34423261"><ele>-0.4</ele><time>2022-11-14T16:16:57.0000000+00:00</time></trkpt><trkpt lat="39.46358222" lon="-0.34414904"><ele>-0.4</ele><time>2022-11-14T16:16:58.0000000+00:00</time></trkpt><trkpt lat="39.46356369" lon="-0.34407746"><ele>-0.4</ele><time>2022-11-14T16:16:59.0000000+00:00</time></trkpt><trkpt lat="39.46355078" lon="-0.34400563"><ele>-0.6</ele><time>2022-11-14T16:17:00.0000000+00:00</time></trkpt><trkpt lat="39.46353771" lon="-0.34392835"><ele>-0.6</ele><time>2022-11-14T16:17:01.0000000+00:00</time></trkpt><trkpt lat="39.46351365" lon="-0.34385333"><ele>-0.6</ele><time>2022-11-14T16:17:02.0000000+00:00</time></trkpt><trkpt lat="39.4634984" lon="-0.3437685"><ele>-0.6</ele><time>2022-11-14T16:17:03.0000000+00:00</time></trkpt><trkpt lat="39.46348222" lon="-0.34368603"><ele>-0.8</ele><time>2022-11-14T16:17:04.0000000+00:00</time></trkpt><trkpt lat="39.46347124" lon="-0.34360271"><ele>-0.8</ele><time>2022-11-14T16:17:05.0000000+00:00</time></trkpt><trkpt lat="39.46345699" lon="-0.34351914"><ele>-0.8</ele><time>2022-11-14T16:17:06.0000000+00:00</time></trkpt><trkpt lat="39.46342933" lon="-0.34344035"><ele>-1.0</ele><time>2022-11-14T16:17:07.0000000+00:00</time></trkpt><trkpt lat="39.46340402" lon="-0.34336818"><ele>-1.0</ele><time>2022-11-14T16:17:08.0000000+00:00</time></trkpt><trkpt lat="39.46338357" lon="-0.34330054"><ele>-1.2</ele><time>2022-11-14T16:17:09.0000000+00:00</time></trkpt><trkpt lat="39.46336613" lon="-0.34322846"><ele>-1.2</ele><time>2022-11-14T16:17:10.0000000+00:00</time></trkpt><trkpt lat="39.46334895" lon="-0.34316316"><ele>-1.2</ele><time>2022-11-14T16:17:11.0000000+00:00</time></trkpt><trkpt lat="39.46334316" lon="-0.34309661"><ele>-1.2</ele><time>2022-11-14T16:17:12.0000000+00:00</time></trkpt><trkpt lat="39.46333705" lon="-0.34302771"><ele>-1.2</ele><time>2022-11-14T16:17:13.0000000+00:00</time></trkpt><trkpt lat="39.46330159" lon="-0.34295722"><ele>-1.2</ele><time>2022-11-14T16:17:14.0000000+00:00</time></trkpt><trkpt lat="39.46327359" lon="-0.34287256"><ele>-1.2</ele><time>2022-11-14T16:17:15.0000000+00:00</time></trkpt><trkpt lat="39.46325172" lon="-0.34278715"><ele>-1.2</ele><time>2022-11-14T16:17:16.0000000+00:00</time></trkpt><trkpt lat="39.46318441" lon="-0.34273057"><ele>-1.2</ele><time>2022-11-14T16:17:17.0000000+00:00</time></trkpt><trkpt lat="39.46319866" lon="-0.34267559"><ele>-1.2</ele><time>2022-11-14T16:17:18.0000000+00:00</time></trkpt><trkpt lat="39.46317477" lon="-0.34262463"><ele>-1.2</ele><time>2022-11-14T16:17:19.0000000+00:00</time></trkpt><trkpt lat="39.46316304" lon="-0.34257123"><ele>-1.2</ele><time>2022-11-14T16:17:20.0000000+00:00</time></trkpt><trkpt lat="39.46314426" lon="-0.34251742"><ele>-1.2</ele><time>2022-11-14T16:17:21.0000000+00:00</time></trkpt><trkpt lat="39.463128" lon="-0.34246218"><ele>-1.2</ele><time>2022-11-14T16:17:22.0000000+00:00</time></trkpt><trkpt lat="39.46311082" lon="-0.34240301"><ele>-1.2</ele><time>2022-11-14T16:17:23.0000000+00:00</time></trkpt><trkpt lat="39.4630907" lon="-0.34234157"><ele>-1.2</ele><time>2022-11-14T16:17:24.0000000+00:00</time></trkpt><trkpt lat="39.4630695" lon="-0.34228046"><ele>-1.2</ele><time>2022-11-14T16:17:25.0000000+00:00</time></trkpt><trkpt lat="39.46304812" lon="-0.34221333"><ele>-1.2</ele><time>2022-11-14T16:17:26.0000000+00:00</time></trkpt><trkpt lat="39.46302918" lon="-0.34214191"><ele>-1.2</ele><time>2022-11-14T16:17:27.0000000+00:00</time></trkpt><trkpt lat="39.46301661" lon="-0.3420731"><ele>-1.2</ele><time>2022-11-14T16:17:28.0000000+00:00</time></trkpt><trkpt lat="39.46298484" lon="-0.34201459"><ele>-1.2</ele><time>2022-11-14T16:17:29.0000000+00:00</time></trkpt><trkpt lat="39.46296179" lon="-0.34195676"><ele>-1.2</ele><time>2022-11-14T16:17:30.0000000+00:00</time></trkpt><trkpt lat="39.46293153" lon="-0.3418959"><ele>-1.2</ele><time>2022-11-14T16:17:31.0000000+00:00</time></trkpt><trkpt lat="39.46291275" lon="-0.34182801"><ele>-1.4</ele><time>2022-11-14T16:17:32.0000000+00:00</time></trkpt><trkpt lat="39.46289029" lon="-0.34175827"><ele>-1.4</ele><time>2022-11-14T16:17:33.0000000+00:00</time></trkpt><trkpt lat="39.46287143" lon="-0.34169708"><ele>-1.4</ele><time>2022-11-14T16:17:34.0000000+00:00</time></trkpt><trkpt lat="39.4628545" lon="-0.34163145"><ele>-1.6</ele><time>2022-11-14T16:17:35.0000000+00:00</time></trkpt><trkpt lat="39.46283572" lon="-0.3415753"><ele>-1.6</ele><time>2022-11-14T16:17:36.0000000+00:00</time></trkpt><trkpt lat="39.46282114" lon="-0.34152542"><ele>-2.0</ele><time>2022-11-14T16:17:37.0000000+00:00</time></trkpt><trkpt lat="39.46281326" lon="-0.34148167"><ele>-2.0</ele><time>2022-11-14T16:17:38.0000000+00:00</time></trkpt><trkpt lat="39.46279524" lon="-0.34144118"><ele>-2.2</ele><time>2022-11-14T16:17:39.0000000+00:00</time></trkpt><trkpt lat="39.46277747" lon="-0.34140472"><ele>-2.4</ele><time>2022-11-14T16:17:40.0000000+00:00</time></trkpt><trkpt lat="39.46275668" lon="-0.34137522"><ele>-2.2</ele><time>2022-11-14T16:17:41.0000000+00:00</time></trkpt><trkpt lat="39.46273598" lon="-0.34134588"><ele>-2.2</ele><time>2022-11-14T16:17:42.0000000+00:00</time></trkpt><trkpt lat="39.462725" lon="-0.3413142"><ele>-2.0</ele><time>2022-11-14T16:17:43.0000000+00:00</time></trkpt><trkpt lat="39.46274813" lon="-0.34123432"><ele>-2.0</ele><time>2022-11-14T16:17:44.0000000+00:00</time></trkpt><trkpt lat="39.46274503" lon="-0.34116542"><ele>-2.0</ele><time>2022-11-14T16:17:45.0000000+00:00</time></trkpt><trkpt lat="39.46275333" lon="-0.34109342"><ele>-2.0</ele><time>2022-11-14T16:17:46.0000000+00:00</time></trkpt><trkpt lat="39.46274084" lon="-0.34101916"><ele>-2.0</ele><time>2022-11-14T16:17:47.0000000+00:00</time></trkpt><trkpt lat="39.46272936" lon="-0.34094716"><ele>-2.0</ele><time>2022-11-14T16:17:48.0000000+00:00</time></trkpt><trkpt lat="39.46271377" lon="-0.34087742"><ele>-2.0</ele><time>2022-11-14T16:17:49.0000000+00:00</time></trkpt><trkpt lat="39.46268493" lon="-0.34080215"><ele>-2.0</ele><time>2022-11-14T16:17:50.0000000+00:00</time></trkpt><trkpt lat="39.46265677" lon="-0.34071858"><ele>-2.0</ele><time>2022-11-14T16:17:51.0000000+00:00</time></trkpt><trkpt lat="39.46262475" lon="-0.34065169"><ele>-2.0</ele><time>2022-11-14T16:17:52.0000000+00:00</time></trkpt><trkpt lat="39.46259374" lon="-0.34059537"><ele>-1.8</ele><time>2022-11-14T16:17:53.0000000+00:00</time></trkpt><trkpt lat="39.46255627" lon="-0.34055195"><ele>-1.8</ele><time>2022-11-14T16:17:54.0000000+00:00</time></trkpt><trkpt lat="39.46253113" lon="-0.34050987"><ele>-1.8</ele><time>2022-11-14T16:17:55.0000000+00:00</time></trkpt><trkpt lat="39.4625116" lon="-0.34046888"><ele>-1.8</ele><time>2022-11-14T16:17:56.0000000+00:00</time></trkpt><trkpt lat="39.46249567" lon="-0.34042647"><ele>-2.0</ele><time>2022-11-14T16:17:57.0000000+00:00</time></trkpt><trkpt lat="39.46247991" lon="-0.34038934"><ele>-2.0</ele><time>2022-11-14T16:17:58.0000000+00:00</time></trkpt><trkpt lat="39.46247396" lon="-0.34035238"><ele>-2.2</ele><time>2022-11-14T16:17:59.0000000+00:00</time></trkpt><trkpt lat="39.46246935" lon="-0.34030577"><ele>-2.2</ele><time>2022-11-14T16:18:00.0000000+00:00</time></trkpt><trkpt lat="39.46245317" lon="-0.3402564"><ele>-2.2</ele><time>2022-11-14T16:18:01.0000000+00:00</time></trkpt><trkpt lat="39.4624235" lon="-0.34019957"><ele>-2.2</ele><time>2022-11-14T16:18:02.0000000+00:00</time></trkpt><trkpt lat="39.46239517" lon="-0.34014048"><ele>-2.2</ele><time>2022-11-14T16:18:03.0000000+00:00</time></trkpt><trkpt lat="39.46237153" lon="-0.34007753"><ele>-2.2</ele><time>2022-11-14T16:18:04.0000000+00:00</time></trkpt><trkpt lat="39.46238721" lon="-0.33999355"><ele>-2.2</ele><time>2022-11-14T16:18:05.0000000+00:00</time></trkpt><trkpt lat="39.46237355" lon="-0.33991886"><ele>-2.2</ele><time>2022-11-14T16:18:06.0000000+00:00</time></trkpt><trkpt lat="39.46236265" lon="-0.3398498"><ele>-2.2</ele><time>2022-11-14T16:18:07.0000000+00:00</time></trkpt><trkpt lat="39.46236139" lon="-0.33978291"><ele>-2.2</ele><time>2022-11-14T16:18:08.0000000+00:00</time></trkpt><trkpt lat="39.46237992" lon="-0.33971242"><ele>-2.2</ele><time>2022-11-14T16:18:09.0000000+00:00</time></trkpt><trkpt lat="39.46238872" lon="-0.33962323"><ele>-2.2</ele><time>2022-11-14T16:18:10.0000000+00:00</time></trkpt><trkpt lat="39.46241546" lon="-0.33953145"><ele>-2.2</ele><time>2022-11-14T16:18:11.0000000+00:00</time></trkpt><trkpt lat="39.4624204" lon="-0.33944814"><ele>-2.2</ele><time>2022-11-14T16:18:12.0000000+00:00</time></trkpt><trkpt lat="39.46238411" lon="-0.33938267"><ele>-2.0</ele><time>2022-11-14T16:18:13.0000000+00:00</time></trkpt><trkpt lat="39.4623655" lon="-0.33931897"><ele>-2.0</ele><time>2022-11-14T16:18:14.0000000+00:00</time></trkpt><trkpt lat="39.46234991" lon="-0.33925016"><ele>-2.0</ele><time>2022-11-14T16:18:15.0000000+00:00</time></trkpt><trkpt lat="39.46232468" lon="-0.33917991"><ele>-2.0</ele><time>2022-11-14T16:18:16.0000000+00:00</time></trkpt><trkpt lat="39.46226307" lon="-0.33911856"><ele>-2.0</ele><time>2022-11-14T16:18:17.0000000+00:00</time></trkpt><trkpt lat="39.46222678" lon="-0.3390562"><ele>-2.0</ele><time>2022-11-14T16:18:18.0000000+00:00</time></trkpt><trkpt lat="39.4621961" lon="-0.33899132"><ele>-2.0</ele><time>2022-11-14T16:18:19.0000000+00:00</time></trkpt><trkpt lat="39.46218168" lon="-0.33892502"><ele>-1.8</ele><time>2022-11-14T16:18:20.0000000+00:00</time></trkpt><trkpt lat="39.46215562" lon="-0.33884523"><ele>-1.8</ele><time>2022-11-14T16:18:21.0000000+00:00</time></trkpt><trkpt lat="39.4621355" lon="-0.33876954"><ele>-1.6</ele><time>2022-11-14T16:18:22.0000000+00:00</time></trkpt><trkpt lat="39.46211966" lon="-0.33871757"><ele>-1.8</ele><time>2022-11-14T16:18:23.0000000+00:00</time></trkpt><trkpt lat="39.46211974" lon="-0.3386905"><ele>-1.8</ele><time>2022-11-14T16:18:24.0000000+00:00</time></trkpt><trkpt lat="39.46215687" lon="-0.33867315"><ele>-1.8</ele><time>2022-11-14T16:18:25.0000000+00:00</time></trkpt><trkpt lat="39.46215562" lon="-0.33866803"><ele>-1.8</ele><time>2022-11-14T16:18:26.0000000+00:00</time></trkpt><trkpt lat="39.46217531" lon="-0.3386661"><ele>-2.0</ele><time>2022-11-14T16:18:27.0000000+00:00</time></trkpt><trkpt lat="39.46217783" lon="-0.33866569"><ele>-2.0</ele><time>2022-11-14T16:18:28.0000000+00:00</time></trkpt><trkpt lat="39.46217783" lon="-0.33866569"><ele>-2.2</ele><time>2022-11-14T16:18:29.0000000+00:00</time></trkpt><trkpt lat="39.46217783" lon="-0.33866569"><ele>-2.2</ele><time>2022-11-14T16:18:30.0000000+00:00</time></trkpt><trkpt lat="39.46217783" lon="-0.33866569"><ele>-2.2</ele><time>2022-11-14T16:18:31.0000000+00:00</time></trkpt><trkpt lat="39.46217783" lon="-0.33866569"><ele>-2.2</ele><time>2022-11-14T16:18:32.0000000+00:00</time></trkpt><trkpt lat="39.46217783" lon="-0.33866569"><ele>-2.4</ele><time>2022-11-14T16:18:33.0000000+00:00</time></trkpt><trkpt lat="39.46217783" lon="-0.33866569"><ele>-2.4</ele><time>2022-11-14T16:18:34.0000000+00:00</time></trkpt><trkpt lat="39.46217783" lon="-0.33866569"><ele>-2.4</ele><time>2022-11-14T16:18:35.0000000+00:00</time></trkpt><trkpt lat="39.46217783" lon="-0.33866569"><ele>-2.4</ele><time>2022-11-14T16:18:36.0000000+00:00</time></trkpt><trkpt lat="39.46217783" lon="-0.33866569"><ele>-2.4</ele><time>2022-11-14T16:18:37.0000000+00:00</time></trkpt><trkpt lat="39.46217783" lon="-0.33866569"><ele>-2.4</ele><time>2022-11-14T16:18:38.0000000+00:00</time></trkpt><trkpt lat="39.46217783" lon="-0.33866569"><ele>-2.4</ele><time>2022-11-14T16:18:39.0000000+00:00</time></trkpt><trkpt lat="39.46214078" lon="-0.33865169"><ele>-2.4</ele><time>2022-11-14T16:18:40.0000000+00:00</time></trkpt><trkpt lat="39.46211094" lon="-0.33862805"><ele>-2.6</ele><time>2022-11-14T16:18:41.0000000+00:00</time></trkpt><trkpt lat="39.46208655" lon="-0.33858949"><ele>-2.6</ele><time>2022-11-14T16:18:42.0000000+00:00</time></trkpt><trkpt lat="39.46205252" lon="-0.33853987"><ele>-2.6</ele><time>2022-11-14T16:18:43.0000000+00:00</time></trkpt><trkpt lat="39.46203031" lon="-0.33848698"><ele>-2.6</ele><time>2022-11-14T16:18:44.0000000+00:00</time></trkpt><trkpt lat="39.4620169" lon="-0.33843367"><ele>-2.4</ele><time>2022-11-14T16:18:45.0000000+00:00</time></trkpt><trkpt lat="39.46198396" lon="-0.33837768"><ele>-2.4</ele><time>2022-11-14T16:18:46.0000000+00:00</time></trkpt><trkpt lat="39.46195378" lon="-0.33832354"><ele>-2.2</ele><time>2022-11-14T16:18:47.0000000+00:00</time></trkpt><trkpt lat="39.46192671" lon="-0.33828347"><ele>-2.2</ele><time>2022-11-14T16:18:48.0000000+00:00</time></trkpt><trkpt lat="39.46189905" lon="-0.33824818"><ele>-2.2</ele><time>2022-11-14T16:18:49.0000000+00:00</time></trkpt><trkpt lat="39.46186845" lon="-0.33820082"><ele>-2.4</ele><time>2022-11-14T16:18:50.0000000+00:00</time></trkpt><trkpt lat="39.46183526" lon="-0.33814274"><ele>-2.6</ele><time>2022-11-14T16:18:51.0000000+00:00</time></trkpt><trkpt lat="39.46181665" lon="-0.33808465"><ele>-2.8</ele><time>2022-11-14T16:18:52.0000000+00:00</time></trkpt><trkpt lat="39.46181774" lon="-0.33802263"><ele>-2.8</ele><time>2022-11-14T16:18:53.0000000+00:00</time></trkpt><trkpt lat="39.4618371" lon="-0.33795565"><ele>-2.8</ele><time>2022-11-14T16:18:54.0000000+00:00</time></trkpt><trkpt lat="39.4618656" lon="-0.33788382"><ele>-2.8</ele><time>2022-11-14T16:18:55.0000000+00:00</time></trkpt><trkpt lat="39.46182076" lon="-0.33777871"><ele>-2.8</ele><time>2022-11-14T16:18:56.0000000+00:00</time></trkpt><trkpt lat="39.4618102" lon="-0.3376757"><ele>-2.8</ele><time>2022-11-14T16:18:57.0000000+00:00</time></trkpt><trkpt lat="39.4617926" lon="-0.33758534"><ele>-2.8</ele><time>2022-11-14T16:18:58.0000000+00:00</time></trkpt><trkpt lat="39.46178799" lon="-0.33749566"><ele>-2.8</ele><time>2022-11-14T16:18:59.0000000+00:00</time></trkpt><trkpt lat="39.46173015" lon="-0.33741376"><ele>-2.8</ele><time>2022-11-14T16:19:00.0000000+00:00</time></trkpt><trkpt lat="39.46166159" lon="-0.33734554"><ele>-2.8</ele><time>2022-11-14T16:19:01.0000000+00:00</time></trkpt><trkpt lat="39.4616087" lon="-0.33727169"><ele>-2.8</ele><time>2022-11-14T16:19:02.0000000+00:00</time></trkpt><trkpt lat="39.46158674" lon="-0.33719734"><ele>-3.0</ele><time>2022-11-14T16:19:03.0000000+00:00</time></trkpt><trkpt lat="39.4615574" lon="-0.33712124"><ele>-3.0</ele><time>2022-11-14T16:19:04.0000000+00:00</time></trkpt><trkpt lat="39.46154399" lon="-0.33702652"><ele>-3.0</ele><time>2022-11-14T16:19:05.0000000+00:00</time></trkpt><trkpt lat="39.46150736" lon="-0.33694949"><ele>-3.0</ele><time>2022-11-14T16:19:06.0000000+00:00</time></trkpt><trkpt lat="39.46146235" lon="-0.33686986"><ele>-3.0</ele><time>2022-11-14T16:19:07.0000000+00:00</time></trkpt><trkpt lat="39.46143796" lon="-0.33678462"><ele>-2.8</ele><time>2022-11-14T16:19:08.0000000+00:00</time></trkpt><trkpt lat="39.46141893" lon="-0.33670415"><ele>-2.8</ele><time>2022-11-14T16:19:09.0000000+00:00</time></trkpt><trkpt lat="39.46139747" lon="-0.33664288"><ele>-2.8</ele><time>2022-11-14T16:19:10.0000000+00:00</time></trkpt><trkpt lat="39.46137099" lon="-0.33656895"><ele>-2.6</ele><time>2022-11-14T16:19:11.0000000+00:00</time></trkpt><trkpt lat="39.46133637" lon="-0.33647566"><ele>-2.6</ele><time>2022-11-14T16:19:12.0000000+00:00</time></trkpt><trkpt lat="39.46131223" lon="-0.33638958"><ele>-2.6</ele><time>2022-11-14T16:19:13.0000000+00:00</time></trkpt><trkpt lat="39.46128625" lon="-0.3363071"><ele>-2.6</ele><time>2022-11-14T16:19:14.0000000+00:00</time></trkpt><trkpt lat="39.46125272" lon="-0.33623334"><ele>-2.6</ele><time>2022-11-14T16:19:15.0000000+00:00</time></trkpt><trkpt lat="39.46122422" lon="-0.33615296"><ele>-2.6</ele><time>2022-11-14T16:19:16.0000000+00:00</time></trkpt><trkpt lat="39.46119698" lon="-0.33607232"><ele>-2.8</ele><time>2022-11-14T16:19:17.0000000+00:00</time></trkpt><trkpt lat="39.46116664" lon="-0.33599362"><ele>-3.0</ele><time>2022-11-14T16:19:18.0000000+00:00</time></trkpt><trkpt lat="39.46113487" lon="-0.33591391"><ele>-3.0</ele><time>2022-11-14T16:19:19.0000000+00:00</time></trkpt><trkpt lat="39.46109656" lon="-0.33583009"><ele>-3.0</ele><time>2022-11-14T16:19:20.0000000+00:00</time></trkpt><trkpt lat="39.46107259" lon="-0.33574644"><ele>-3.0</ele><time>2022-11-14T16:19:21.0000000+00:00</time></trkpt><trkpt lat="39.46104644" lon="-0.33566312"><ele>-3.0</ele><time>2022-11-14T16:19:22.0000000+00:00</time></trkpt><trkpt lat="39.46102574" lon="-0.33557117"><ele>-3.0</ele><time>2022-11-14T16:19:23.0000000+00:00</time></trkpt><trkpt lat="39.46100663" lon="-0.3354783"><ele>-3.0</ele><time>2022-11-14T16:19:24.0000000+00:00</time></trkpt><trkpt lat="39.46097779" lon="-0.33539482"><ele>-3.0</ele><time>2022-11-14T16:19:25.0000000+00:00</time></trkpt><trkpt lat="39.46095659" lon="-0.33532206"><ele>-2.6</ele><time>2022-11-14T16:19:26.0000000+00:00</time></trkpt><trkpt lat="39.46094351" lon="-0.33523615"><ele>-2.4</ele><time>2022-11-14T16:19:27.0000000+00:00</time></trkpt><trkpt lat="39.46092641" lon="-0.33514277"><ele>-2.4</ele><time>2022-11-14T16:19:28.0000000+00:00</time></trkpt><trkpt lat="39.46088945" lon="-0.33502819"><ele>-2.4</ele><time>2022-11-14T16:19:29.0000000+00:00</time></trkpt><trkpt lat="39.46087486" lon="-0.334966"><ele>-2.4</ele><time>2022-11-14T16:19:30.0000000+00:00</time></trkpt><trkpt lat="39.46084192" lon="-0.3348655"><ele>-2.6</ele><time>2022-11-14T16:19:31.0000000+00:00</time></trkpt><trkpt lat="39.46081854" lon="-0.33479417"><ele>-2.8</ele><time>2022-11-14T16:19:32.0000000+00:00</time></trkpt><trkpt lat="39.46079523" lon="-0.3346909"><ele>-2.8</ele><time>2022-11-14T16:19:33.0000000+00:00</time></trkpt><trkpt lat="39.46076824" lon="-0.33460306"><ele>-2.8</ele><time>2022-11-14T16:19:34.0000000+00:00</time></trkpt><trkpt lat="39.4607426" lon="-0.33451689"><ele>-2.8</ele><time>2022-11-14T16:19:35.0000000+00:00</time></trkpt><trkpt lat="39.46072256" lon="-0.33443023"><ele>-2.8</ele><time>2022-11-14T16:19:36.0000000+00:00</time></trkpt><trkpt lat="39.46070077" lon="-0.33434113"><ele>-2.8</ele><time>2022-11-14T16:19:37.0000000+00:00</time></trkpt><trkpt lat="39.4606794" lon="-0.33425513"><ele>-2.8</ele><time>2022-11-14T16:19:38.0000000+00:00</time></trkpt><trkpt lat="39.46065442" lon="-0.33417625"><ele>-2.8</ele><time>2022-11-14T16:19:39.0000000+00:00</time></trkpt><trkpt lat="39.46062533" lon="-0.33410635"><ele>-2.8</ele><time>2022-11-14T16:19:40.0000000+00:00</time></trkpt><trkpt lat="39.46059113" lon="-0.33403971"><ele>-2.8</ele><time>2022-11-14T16:19:41.0000000+00:00</time></trkpt><trkpt lat="39.46056121" lon="-0.3339652"><ele>-2.8</ele><time>2022-11-14T16:19:42.0000000+00:00</time></trkpt><trkpt lat="39.46054185" lon="-0.33387895"><ele>-2.8</ele><time>2022-11-14T16:19:43.0000000+00:00</time></trkpt><trkpt lat="39.46051897" lon="-0.33379907"><ele>-2.8</ele><time>2022-11-14T16:19:44.0000000+00:00</time></trkpt><trkpt lat="39.46048904" lon="-0.33372606"><ele>-3.0</ele><time>2022-11-14T16:19:45.0000000+00:00</time></trkpt><trkpt lat="39.4604644" lon="-0.3336632"><ele>-3.0</ele><time>2022-11-14T16:19:46.0000000+00:00</time></trkpt><trkpt lat="39.46042718" lon="-0.33357753"><ele>-3.0</ele><time>2022-11-14T16:19:47.0000000+00:00</time></trkpt><trkpt lat="39.46039466" lon="-0.33352247"><ele>-3.2</ele><time>2022-11-14T16:19:48.0000000+00:00</time></trkpt><trkpt lat="39.46037404" lon="-0.33346891"><ele>-3.2</ele><time>2022-11-14T16:19:49.0000000+00:00</time></trkpt><trkpt lat="39.46033406" lon="-0.33338358"><ele>-3.2</ele><time>2022-11-14T16:19:50.0000000+00:00</time></trkpt><trkpt lat="39.46029668" lon="-0.33331292"><ele>-3.2</ele><time>2022-11-14T16:19:51.0000000+00:00</time></trkpt><trkpt lat="39.46026826" lon="-0.33324779"><ele>-3.2</ele><time>2022-11-14T16:19:52.0000000+00:00</time></trkpt><trkpt lat="39.46025007" lon="-0.333198"><ele>-3.2</ele><time>2022-11-14T16:19:53.0000000+00:00</time></trkpt><trkpt lat="39.46022166" lon="-0.33312734"><ele>-3.2</ele><time>2022-11-14T16:19:54.0000000+00:00</time></trkpt><trkpt lat="39.46020532" lon="-0.3330711"><ele>-3.2</ele><time>2022-11-14T16:19:55.0000000+00:00</time></trkpt><trkpt lat="39.46019794" lon="-0.33302316"><ele>-3.2</ele><time>2022-11-14T16:19:56.0000000+00:00</time></trkpt><trkpt lat="39.46019517" lon="-0.33298669"><ele>-3.2</ele><time>2022-11-14T16:19:57.0000000+00:00</time></trkpt><trkpt lat="39.46019685" lon="-0.33296339"><ele>-3.2</ele><time>2022-11-14T16:19:58.0000000+00:00</time></trkpt><trkpt lat="39.46019827" lon="-0.33294906"><ele>-3.2</ele><time>2022-11-14T16:19:59.0000000+00:00</time></trkpt><trkpt lat="39.46018444" lon="-0.33293523"><ele>-3.2</ele><time>2022-11-14T16:20:00.0000000+00:00</time></trkpt><trkpt lat="39.46018193" lon="-0.33292928"><ele>-3.2</ele><time>2022-11-14T16:20:01.0000000+00:00</time></trkpt><trkpt lat="39.46018394" lon="-0.33292836"><ele>-3.2</ele><time>2022-11-14T16:20:02.0000000+00:00</time></trkpt><trkpt lat="39.46018403" lon="-0.33292224"><ele>-3.2</ele><time>2022-11-14T16:20:03.0000000+00:00</time></trkpt><trkpt lat="39.46018201" lon="-0.33291888"><ele>-3.2</ele><time>2022-11-14T16:20:04.0000000+00:00</time></trkpt><trkpt lat="39.46018201" lon="-0.33291888"><ele>-3.2</ele><time>2022-11-14T16:20:05.0000000+00:00</time></trkpt><trkpt lat="39.46018201" lon="-0.33291888"><ele>-3.2</ele><time>2022-11-14T16:20:06.0000000+00:00</time></trkpt><trkpt lat="39.46018268" lon="-0.3329214"><ele>-3.2</ele><time>2022-11-14T16:20:07.0000000+00:00</time></trkpt><trkpt lat="39.46018537" lon="-0.33292593"><ele>-3.2</ele><time>2022-11-14T16:20:08.0000000+00:00</time></trkpt><trkpt lat="39.46018537" lon="-0.33292593"><ele>-3.2</ele><time>2022-11-14T16:20:09.0000000+00:00</time></trkpt><trkpt lat="39.46018537" lon="-0.33292593"><ele>-3.2</ele><time>2022-11-14T16:20:10.0000000+00:00</time></trkpt><trkpt lat="39.46018537" lon="-0.33292593"><ele>-3.2</ele><time>2022-11-14T16:20:11.0000000+00:00</time></trkpt><trkpt lat="39.46019149" lon="-0.33292618"><ele>-3.4</ele><time>2022-11-14T16:20:12.0000000+00:00</time></trkpt><trkpt lat="39.46019953" lon="-0.33292173"><ele>-3.4</ele><time>2022-11-14T16:20:13.0000000+00:00</time></trkpt><trkpt lat="39.46020196" lon="-0.33291897"><ele>-3.4</ele><time>2022-11-14T16:20:14.0000000+00:00</time></trkpt><trkpt lat="39.46020196" lon="-0.33291897"><ele>-3.4</ele><time>2022-11-14T16:20:15.0000000+00:00</time></trkpt><trkpt lat="39.46020196" lon="-0.33291897"><ele>-3.4</ele><time>2022-11-14T16:20:16.0000000+00:00</time></trkpt><trkpt lat="39.46020121" lon="-0.3329209"><ele>-3.4</ele><time>2022-11-14T16:20:17.0000000+00:00</time></trkpt><trkpt lat="39.46019878" lon="-0.33292115"><ele>-3.4</ele><time>2022-11-14T16:20:18.0000000+00:00</time></trkpt><trkpt lat="39.46019878" lon="-0.33292115"><ele>-3.4</ele><time>2022-11-14T16:20:19.0000000+00:00</time></trkpt><trkpt lat="39.46019878" lon="-0.33292115"><ele>-3.4</ele><time>2022-11-14T16:20:20.0000000+00:00</time></trkpt><trkpt lat="39.46019878" lon="-0.33292115"><ele>-3.4</ele><time>2022-11-14T16:20:21.0000000+00:00</time></trkpt><trkpt lat="39.46019878" lon="-0.33292115"><ele>-3.6</ele><time>2022-11-14T16:20:22.0000000+00:00</time></trkpt><trkpt lat="39.46019878" lon="-0.33292115"><ele>-3.6</ele><time>2022-11-14T16:20:23.0000000+00:00</time></trkpt><trkpt lat="39.46019878" lon="-0.33292115"><ele>-3.6</ele><time>2022-11-14T16:20:24.0000000+00:00</time></trkpt><trkpt lat="39.46019878" lon="-0.33292115"><ele>-3.6</ele><time>2022-11-14T16:20:25.0000000+00:00</time></trkpt><trkpt lat="39.46019878" lon="-0.33292115"><ele>-3.6</ele><time>2022-11-14T16:20:26.0000000+00:00</time></trkpt><trkpt lat="39.46019878" lon="-0.33292115"><ele>-3.6</ele><time>2022-11-14T16:20:27.0000000+00:00</time></trkpt><trkpt lat="39.46019878" lon="-0.33292115"><ele>-3.6</ele><time>2022-11-14T16:20:28.0000000+00:00</time></trkpt><trkpt lat="39.46019878" lon="-0.33292115"><ele>-3.6</ele><time>2022-11-14T16:20:29.0000000+00:00</time></trkpt><trkpt lat="39.46019878" lon="-0.33292115"><ele>-3.6</ele><time>2022-11-14T16:20:30.0000000+00:00</time></trkpt><trkpt lat="39.46019878" lon="-0.33292115"><ele>-3.6</ele><time>2022-11-14T16:20:31.0000000+00:00</time></trkpt><trkpt lat="39.46019878" lon="-0.33292115"><ele>-3.6</ele><time>2022-11-14T16:20:32.0000000+00:00</time></trkpt><trkpt lat="39.46019878" lon="-0.33292115"><ele>-3.6</ele><time>2022-11-14T16:20:33.0000000+00:00</time></trkpt><trkpt lat="39.46019878" lon="-0.33292115"><ele>-3.6</ele><time>2022-11-14T16:20:34.0000000+00:00</time></trkpt><trkpt lat="39.46019878" lon="-0.33292115"><ele>-3.6</ele><time>2022-11-14T16:20:35.0000000+00:00</time></trkpt><trkpt lat="39.46019878" lon="-0.33292115"><ele>-3.6</ele><time>2022-11-14T16:20:36.0000000+00:00</time></trkpt><trkpt lat="39.46019878" lon="-0.33292115"><ele>-3.6</ele><time>2022-11-14T16:20:37.0000000+00:00</time></trkpt><trkpt lat="39.46020045" lon="-0.33292165"><ele>-3.6</ele><time>2022-11-14T16:20:38.0000000+00:00</time></trkpt><trkpt lat="39.46020179" lon="-0.33292618"><ele>-3.6</ele><time>2022-11-14T16:20:39.0000000+00:00</time></trkpt><trkpt lat="39.46020179" lon="-0.33292618"><ele>-3.6</ele><time>2022-11-14T16:20:40.0000000+00:00</time></trkpt><trkpt lat="39.46020179" lon="-0.33292618"><ele>-3.6</ele><time>2022-11-14T16:20:41.0000000+00:00</time></trkpt><trkpt lat="39.46020179" lon="-0.33292618"><ele>-3.4</ele><time>2022-11-14T16:20:42.0000000+00:00</time></trkpt><trkpt lat="39.46020179" lon="-0.33292618"><ele>-3.4</ele><time>2022-11-14T16:20:43.0000000+00:00</time></trkpt><trkpt lat="39.46020179" lon="-0.33292618"><ele>-3.6</ele><time>2022-11-14T16:20:44.0000000+00:00</time></trkpt><trkpt lat="39.46020179" lon="-0.33292618"><ele>-3.6</ele><time>2022-11-14T16:20:45.0000000+00:00</time></trkpt><trkpt lat="39.46020179" lon="-0.33292618"><ele>-3.4</ele><time>2022-11-14T16:20:46.0000000+00:00</time></trkpt><trkpt lat="39.46020179" lon="-0.33292618"><ele>-3.4</ele><time>2022-11-14T16:20:47.0000000+00:00</time></trkpt><trkpt lat="39.46020179" lon="-0.33292618"><ele>-3.4</ele><time>2022-11-14T16:20:48.0000000+00:00</time></trkpt><trkpt lat="39.46020179" lon="-0.33292618"><ele>-3.4</ele><time>2022-11-14T16:20:49.0000000+00:00</time></trkpt><trkpt lat="39.46020179" lon="-0.33292618"><ele>-3.4</ele><time>2022-11-14T16:20:50.0000000+00:00</time></trkpt><trkpt lat="39.46020179" lon="-0.33292618"><ele>-3.4</ele><time>2022-11-14T16:20:51.0000000+00:00</time></trkpt><trkpt lat="39.46020179" lon="-0.33292618"><ele>-3.4</ele><time>2022-11-14T16:20:52.0000000+00:00</time></trkpt><trkpt lat="39.46020179" lon="-0.33292618"><ele>-3.4</ele><time>2022-11-14T16:20:53.0000000+00:00</time></trkpt><trkpt lat="39.46020179" lon="-0.33292618"><ele>-3.4</ele><time>2022-11-14T16:20:54.0000000+00:00</time></trkpt><trkpt lat="39.46020179" lon="-0.33292618"><ele>-3.4</ele><time>2022-11-14T16:20:55.0000000+00:00</time></trkpt><trkpt lat="39.46020179" lon="-0.33292618"><ele>-3.4</ele><time>2022-11-14T16:20:56.0000000+00:00</time></trkpt><trkpt lat="39.46020179" lon="-0.33292618"><ele>-3.4</ele><time>2022-11-14T16:20:57.0000000+00:00</time></trkpt><trkpt lat="39.46020179" lon="-0.33292618"><ele>-3.4</ele><time>2022-11-14T16:20:58.0000000+00:00</time></trkpt><trkpt lat="39.46020179" lon="-0.33292618"><ele>-3.4</ele><time>2022-11-14T16:20:59.0000000+00:00</time></trkpt><trkpt lat="39.46020179" lon="-0.33292618"><ele>-3.4</ele><time>2022-11-14T16:21:00.0000000+00:00</time></trkpt><trkpt lat="39.46020179" lon="-0.33292618"><ele>-3.4</ele><time>2022-11-14T16:21:01.0000000+00:00</time></trkpt><trkpt lat="39.46020179" lon="-0.33292618"><ele>-3.4</ele><time>2022-11-14T16:21:02.0000000+00:00</time></trkpt><trkpt lat="39.46020179" lon="-0.33292618"><ele>-3.4</ele><time>2022-11-14T16:21:03.0000000+00:00</time></trkpt><trkpt lat="39.46020179" lon="-0.33292618"><ele>-3.4</ele><time>2022-11-14T16:21:04.0000000+00:00</time></trkpt><trkpt lat="39.46020179" lon="-0.33292618"><ele>-3.4</ele><time>2022-11-14T16:21:05.0000000+00:00</time></trkpt><trkpt lat="39.46020179" lon="-0.33292618"><ele>-3.4</ele><time>2022-11-14T16:21:06.0000000+00:00</time></trkpt><trkpt lat="39.46020179" lon="-0.33292618"><ele>-3.4</ele><time>2022-11-14T16:21:07.0000000+00:00</time></trkpt><trkpt lat="39.46020179" lon="-0.33292618"><ele>-3.4</ele><time>2022-11-14T16:21:08.0000000+00:00</time></trkpt><trkpt lat="39.46020213" lon="-0.33292224"><ele>-3.4</ele><time>2022-11-14T16:21:09.0000000+00:00</time></trkpt><trkpt lat="39.46020171" lon="-0.33290505"><ele>-3.4</ele><time>2022-11-14T16:21:10.0000000+00:00</time></trkpt><trkpt lat="39.46020163" lon="-0.33288578"><ele>-3.4</ele><time>2022-11-14T16:21:11.0000000+00:00</time></trkpt><trkpt lat="39.46020498" lon="-0.33284965"><ele>-3.4</ele><time>2022-11-14T16:21:12.0000000+00:00</time></trkpt><trkpt lat="39.46020557" lon="-0.33280757"><ele>-3.4</ele><time>2022-11-14T16:21:13.0000000+00:00</time></trkpt><trkpt lat="39.46019936" lon="-0.33275862"><ele>-3.4</ele><time>2022-11-14T16:21:14.0000000+00:00</time></trkpt><trkpt lat="39.46018864" lon="-0.33270414"><ele>-3.2</ele><time>2022-11-14T16:21:15.0000000+00:00</time></trkpt><trkpt lat="39.46017967" lon="-0.33264999"><ele>-3.2</ele><time>2022-11-14T16:21:16.0000000+00:00</time></trkpt><trkpt lat="39.46017128" lon="-0.33259551"><ele>-3.2</ele><time>2022-11-14T16:21:17.0000000+00:00</time></trkpt><trkpt lat="39.46016307" lon="-0.33255209"><ele>-3.2</ele><time>2022-11-14T16:21:18.0000000+00:00</time></trkpt><trkpt lat="39.46015251" lon="-0.33250197"><ele>-3.2</ele><time>2022-11-14T16:21:19.0000000+00:00</time></trkpt><trkpt lat="39.46013935" lon="-0.33244346"><ele>-3.2</ele><time>2022-11-14T16:21:20.0000000+00:00</time></trkpt><trkpt lat="39.46012778" lon="-0.33239585"><ele>-3.2</ele><time>2022-11-14T16:21:21.0000000+00:00</time></trkpt><trkpt lat="39.46011848" lon="-0.33236073"><ele>-3.2</ele><time>2022-11-14T16:21:22.0000000+00:00</time></trkpt><trkpt lat="39.46010976" lon="-0.33231061"><ele>-3.2</ele><time>2022-11-14T16:21:23.0000000+00:00</time></trkpt><trkpt lat="39.46010783" lon="-0.33227515"><ele>-3.2</ele><time>2022-11-14T16:21:24.0000000+00:00</time></trkpt><trkpt lat="39.46010163" lon="-0.33225202"><ele>-3.4</ele><time>2022-11-14T16:21:25.0000000+00:00</time></trkpt><trkpt lat="39.46009216" lon="-0.33222956"><ele>-3.8</ele><time>2022-11-14T16:21:26.0000000+00:00</time></trkpt><trkpt lat="39.46007598" lon="-0.33220718"><ele>-4.2</ele><time>2022-11-14T16:21:27.0000000+00:00</time></trkpt><trkpt lat="39.4600868" lon="-0.33219025"><ele>-4.2</ele><time>2022-11-14T16:21:28.0000000+00:00</time></trkpt><trkpt lat="39.46010901" lon="-0.33217357"><ele>-4.4</ele><time>2022-11-14T16:21:29.0000000+00:00</time></trkpt><trkpt lat="39.4601365" lon="-0.33216233"><ele>-4.4</ele><time>2022-11-14T16:21:30.0000000+00:00</time></trkpt><trkpt lat="39.46017472" lon="-0.3321594"><ele>-4.4</ele><time>2022-11-14T16:21:31.0000000+00:00</time></trkpt><trkpt lat="39.46020154" lon="-0.33216049"><ele>-4.6</ele><time>2022-11-14T16:21:32.0000000+00:00</time></trkpt><trkpt lat="39.46023323" lon="-0.33215739"><ele>-4.4</ele><time>2022-11-14T16:21:33.0000000+00:00</time></trkpt><trkpt lat="39.46026784" lon="-0.33214515"><ele>-4.4</ele><time>2022-11-14T16:21:34.0000000+00:00</time></trkpt><trkpt lat="39.46030255" lon="-0.33212428"><ele>-4.2</ele><time>2022-11-14T16:21:35.0000000+00:00</time></trkpt><trkpt lat="39.46032786" lon="-0.33210467"><ele>-4.2</ele><time>2022-11-14T16:21:36.0000000+00:00</time></trkpt><trkpt lat="39.46035158" lon="-0.33208966"><ele>-4.2</ele><time>2022-11-14T16:21:37.0000000+00:00</time></trkpt><trkpt lat="39.46038041" lon="-0.33207181"><ele>-4.2</ele><time>2022-11-14T16:21:38.0000000+00:00</time></trkpt><trkpt lat="39.4604064" lon="-0.33205731"><ele>-4.0</ele><time>2022-11-14T16:21:39.0000000+00:00</time></trkpt><trkpt lat="39.46043976" lon="-0.33203887"><ele>-4.0</ele><time>2022-11-14T16:21:40.0000000+00:00</time></trkpt><trkpt lat="39.46047949" lon="-0.33201892"><ele>-4.0</ele><time>2022-11-14T16:21:41.0000000+00:00</time></trkpt><trkpt lat="39.46052307" lon="-0.3319947"><ele>-4.0</ele><time>2022-11-14T16:21:42.0000000+00:00</time></trkpt><trkpt lat="39.46056808" lon="-0.3319574"><ele>-4.0</ele><time>2022-11-14T16:21:43.0000000+00:00</time></trkpt><trkpt lat="39.46061444" lon="-0.33191607"><ele>-4.0</ele><time>2022-11-14T16:21:44.0000000+00:00</time></trkpt><trkpt lat="39.46065785" lon="-0.33187349"><ele>-3.8</ele><time>2022-11-14T16:21:45.0000000+00:00</time></trkpt><trkpt lat="39.46070035" lon="-0.33182446"><ele>-3.8</ele><time>2022-11-14T16:21:46.0000000+00:00</time></trkpt><trkpt lat="39.46074192" lon="-0.3317735"><ele>-3.8</ele><time>2022-11-14T16:21:47.0000000+00:00</time></trkpt><trkpt lat="39.46078409" lon="-0.33172078"><ele>-3.8</ele><time>2022-11-14T16:21:48.0000000+00:00</time></trkpt><trkpt lat="39.460826" lon="-0.33166772"><ele>-3.8</ele><time>2022-11-14T16:21:49.0000000+00:00</time></trkpt><trkpt lat="39.46086749" lon="-0.33161793"><ele>-3.6</ele><time>2022-11-14T16:21:50.0000000+00:00</time></trkpt><trkpt lat="39.46091107" lon="-0.33157082"><ele>-3.6</ele><time>2022-11-14T16:21:51.0000000+00:00</time></trkpt><trkpt lat="39.46095206" lon="-0.33152221"><ele>-3.4</ele><time>2022-11-14T16:21:52.0000000+00:00</time></trkpt><trkpt lat="39.46099078" lon="-0.3314725"><ele>-3.4</ele><time>2022-11-14T16:21:53.0000000+00:00</time></trkpt><trkpt lat="39.46103185" lon="-0.3314228"><ele>-3.4</ele><time>2022-11-14T16:21:54.0000000+00:00</time></trkpt><trkpt lat="39.46107628" lon="-0.33136706"><ele>-3.4</ele><time>2022-11-14T16:21:55.0000000+00:00</time></trkpt><trkpt lat="39.46112137" lon="-0.33131124"><ele>-3.4</ele><time>2022-11-14T16:21:56.0000000+00:00</time></trkpt><trkpt lat="39.46116831" lon="-0.33125667"><ele>-3.4</ele><time>2022-11-14T16:21:57.0000000+00:00</time></trkpt><trkpt lat="39.46121341" lon="-0.33120252"><ele>-3.4</ele><time>2022-11-14T16:21:58.0000000+00:00</time></trkpt><trkpt lat="39.46126085" lon="-0.33115014"><ele>-3.4</ele><time>2022-11-14T16:21:59.0000000+00:00</time></trkpt><trkpt lat="39.46131013" lon="-0.33110227"><ele>-3.4</ele><time>2022-11-14T16:22:00.0000000+00:00</time></trkpt><trkpt lat="39.46135582" lon="-0.33105944"><ele>-3.4</ele><time>2022-11-14T16:22:01.0000000+00:00</time></trkpt><trkpt lat="39.46140535" lon="-0.33101703"><ele>-3.4</ele><time>2022-11-14T16:22:02.0000000+00:00</time></trkpt><trkpt lat="39.46145355" lon="-0.33097227"><ele>-3.4</ele><time>2022-11-14T16:22:03.0000000+00:00</time></trkpt><trkpt lat="39.46149915" lon="-0.33092357"><ele>-3.4</ele><time>2022-11-14T16:22:04.0000000+00:00</time></trkpt><trkpt lat="39.46154097" lon="-0.33087328"><ele>-3.4</ele><time>2022-11-14T16:22:05.0000000+00:00</time></trkpt><trkpt lat="39.46158783" lon="-0.33082148"><ele>-3.4</ele><time>2022-11-14T16:22:06.0000000+00:00</time></trkpt><trkpt lat="39.46163653" lon="-0.33077253"><ele>-3.4</ele><time>2022-11-14T16:22:07.0000000+00:00</time></trkpt><trkpt lat="39.46168321" lon="-0.33072325"><ele>-3.4</ele><time>2022-11-14T16:22:08.0000000+00:00</time></trkpt><trkpt lat="39.46173132" lon="-0.33067622"><ele>-3.4</ele><time>2022-11-14T16:22:09.0000000+00:00</time></trkpt><trkpt lat="39.4617796" lon="-0.33062065"><ele>-3.4</ele><time>2022-11-14T16:22:10.0000000+00:00</time></trkpt><trkpt lat="39.46182881" lon="-0.33055712"><ele>-3.4</ele><time>2022-11-14T16:22:11.0000000+00:00</time></trkpt><trkpt lat="39.46187172" lon="-0.33049962"><ele>-3.4</ele><time>2022-11-14T16:22:12.0000000+00:00</time></trkpt><trkpt lat="39.46191346" lon="-0.33044078"><ele>-3.4</ele><time>2022-11-14T16:22:13.0000000+00:00</time></trkpt><trkpt lat="39.46195311" lon="-0.33037766"><ele>-3.4</ele><time>2022-11-14T16:22:14.0000000+00:00</time></trkpt><trkpt lat="39.46199091" lon="-0.33031329"><ele>-3.4</ele><time>2022-11-14T16:22:15.0000000+00:00</time></trkpt><trkpt lat="39.46202469" lon="-0.33024782"><ele>-3.4</ele><time>2022-11-14T16:22:16.0000000+00:00</time></trkpt><trkpt lat="39.46205026" lon="-0.33018261"><ele>-3.4</ele><time>2022-11-14T16:22:17.0000000+00:00</time></trkpt><trkpt lat="39.46207683" lon="-0.33012092"><ele>-3.4</ele><time>2022-11-14T16:22:18.0000000+00:00</time></trkpt><trkpt lat="39.46209543" lon="-0.33005571"><ele>-3.4</ele><time>2022-11-14T16:22:19.0000000+00:00</time></trkpt><trkpt lat="39.46209711" lon="-0.32998866"><ele>-3.4</ele><time>2022-11-14T16:22:20.0000000+00:00</time></trkpt><trkpt lat="39.46208119" lon="-0.32992814"><ele>-3.4</ele><time>2022-11-14T16:22:21.0000000+00:00</time></trkpt><trkpt lat="39.46204732" lon="-0.32987609"><ele>-3.4</ele><time>2022-11-14T16:22:22.0000000+00:00</time></trkpt><trkpt lat="39.46200809" lon="-0.32982714"><ele>-3.4</ele><time>2022-11-14T16:22:23.0000000+00:00</time></trkpt><trkpt lat="39.4619687" lon="-0.32977257"><ele>-3.2</ele><time>2022-11-14T16:22:24.0000000+00:00</time></trkpt><trkpt lat="39.46192956" lon="-0.3297237"><ele>-3.2</ele><time>2022-11-14T16:22:25.0000000+00:00</time></trkpt><trkpt lat="39.46189536" lon="-0.32967735"><ele>-3.2</ele><time>2022-11-14T16:22:26.0000000+00:00</time></trkpt><trkpt lat="39.46186351" lon="-0.32962765"><ele>-3.2</ele><time>2022-11-14T16:22:27.0000000+00:00</time></trkpt><trkpt lat="39.46183425" lon="-0.32956772"><ele>-3.2</ele><time>2022-11-14T16:22:28.0000000+00:00</time></trkpt><trkpt lat="39.4618102" lon="-0.32950468"><ele>-3.2</ele><time>2022-11-14T16:22:29.0000000+00:00</time></trkpt><trkpt lat="39.46179419" lon="-0.32943595"><ele>-3.2</ele><time>2022-11-14T16:22:30.0000000+00:00</time></trkpt><trkpt lat="39.46178505" lon="-0.32937108"><ele>-3.2</ele><time>2022-11-14T16:22:31.0000000+00:00</time></trkpt><trkpt lat="39.46178195" lon="-0.32930763"><ele>-3.4</ele><time>2022-11-14T16:22:32.0000000+00:00</time></trkpt><trkpt lat="39.46177701" lon="-0.32923906"><ele>-3.6</ele><time>2022-11-14T16:22:33.0000000+00:00</time></trkpt><trkpt lat="39.4617739" lon="-0.32916865"><ele>-3.8</ele><time>2022-11-14T16:22:34.0000000+00:00</time></trkpt><trkpt lat="39.46177541" lon="-0.32909934"><ele>-4.0</ele><time>2022-11-14T16:22:35.0000000+00:00</time></trkpt><trkpt lat="39.46177977" lon="-0.32902541"><ele>-4.0</ele><time>2022-11-14T16:22:36.0000000+00:00</time></trkpt><trkpt lat="39.46178438" lon="-0.32895307"><ele>-4.2</ele><time>2022-11-14T16:22:37.0000000+00:00</time></trkpt><trkpt lat="39.46178916" lon="-0.32888409"><ele>-4.2</ele><time>2022-11-14T16:22:38.0000000+00:00</time></trkpt><trkpt lat="39.46178874" lon="-0.32881678"><ele>-4.2</ele><time>2022-11-14T16:22:39.0000000+00:00</time></trkpt><trkpt lat="39.46178673" lon="-0.32874788"><ele>-4.2</ele><time>2022-11-14T16:22:40.0000000+00:00</time></trkpt><trkpt lat="39.46178413" lon="-0.32868058"><ele>-4.2</ele><time>2022-11-14T16:22:41.0000000+00:00</time></trkpt><trkpt lat="39.46177919" lon="-0.32861277"><ele>-4.2</ele><time>2022-11-14T16:22:42.0000000+00:00</time></trkpt><trkpt lat="39.4617791" lon="-0.3285473"><ele>-4.2</ele><time>2022-11-14T16:22:43.0000000+00:00</time></trkpt><trkpt lat="39.46178027" lon="-0.32848092"><ele>-4.2</ele><time>2022-11-14T16:22:44.0000000+00:00</time></trkpt><trkpt lat="39.46178447" lon="-0.32841587"><ele>-4.2</ele><time>2022-11-14T16:22:45.0000000+00:00</time></trkpt><trkpt lat="39.46178732" lon="-0.32835343"><ele>-4.2</ele><time>2022-11-14T16:22:46.0000000+00:00</time></trkpt><trkpt lat="39.46178807" lon="-0.32829023"><ele>-4.2</ele><time>2022-11-14T16:22:47.0000000+00:00</time></trkpt><trkpt lat="39.46179092" lon="-0.32822703"><ele>-4.2</ele><time>2022-11-14T16:22:48.0000000+00:00</time></trkpt><trkpt lat="39.4617931" lon="-0.32816006"><ele>-4.2</ele><time>2022-11-14T16:22:49.0000000+00:00</time></trkpt><trkpt lat="39.46179067" lon="-0.32808848"><ele>-4.2</ele><time>2022-11-14T16:22:50.0000000+00:00</time></trkpt><trkpt lat="39.46178614" lon="-0.32801271"><ele>-4.2</ele><time>2022-11-14T16:22:51.0000000+00:00</time></trkpt><trkpt lat="39.46178237" lon="-0.32793417"><ele>-4.2</ele><time>2022-11-14T16:22:52.0000000+00:00</time></trkpt><trkpt lat="39.46177223" lon="-0.32785948"><ele>-4.2</ele><time>2022-11-14T16:22:53.0000000+00:00</time></trkpt><trkpt lat="39.46176024" lon="-0.32778648"><ele>-4.2</ele><time>2022-11-14T16:22:54.0000000+00:00</time></trkpt><trkpt lat="39.46174884" lon="-0.32770869"><ele>-4.0</ele><time>2022-11-14T16:22:55.0000000+00:00</time></trkpt><trkpt lat="39.46174616" lon="-0.32762286"><ele>-4.0</ele><time>2022-11-14T16:22:56.0000000+00:00</time></trkpt><trkpt lat="39.46174742" lon="-0.32753879"><ele>-4.0</ele><time>2022-11-14T16:22:57.0000000+00:00</time></trkpt><trkpt lat="39.46174482" lon="-0.32745774"><ele>-3.8</ele><time>2022-11-14T16:22:58.0000000+00:00</time></trkpt><trkpt lat="39.46173895" lon="-0.32737962"><ele>-3.8</ele><time>2022-11-14T16:22:59.0000000+00:00</time></trkpt><trkpt lat="39.46172982" lon="-0.32730435"><ele>-3.8</ele><time>2022-11-14T16:23:00.0000000+00:00</time></trkpt><trkpt lat="39.46171967" lon="-0.32722539"><ele>-3.8</ele><time>2022-11-14T16:23:01.0000000+00:00</time></trkpt><trkpt lat="39.46170769" lon="-0.32714509"><ele>-3.6</ele><time>2022-11-14T16:23:02.0000000+00:00</time></trkpt><trkpt lat="39.46169922" lon="-0.32706605"><ele>-3.6</ele><time>2022-11-14T16:23:03.0000000+00:00</time></trkpt><trkpt lat="39.46169327" lon="-0.32698634"><ele>-3.6</ele><time>2022-11-14T16:23:04.0000000+00:00</time></trkpt><trkpt lat="39.46169009" lon="-0.32690487"><ele>-3.6</ele><time>2022-11-14T16:23:05.0000000+00:00</time></trkpt><trkpt lat="39.46169218" lon="-0.32682532"><ele>-3.6</ele><time>2022-11-14T16:23:06.0000000+00:00</time></trkpt><trkpt lat="39.46169511" lon="-0.32675508"><ele>-3.6</ele><time>2022-11-14T16:23:07.0000000+00:00</time></trkpt><trkpt lat="39.46169503" lon="-0.32669641"><ele>-3.6</ele><time>2022-11-14T16:23:08.0000000+00:00</time></trkpt><trkpt lat="39.46169545" lon="-0.32663874"><ele>-3.8</ele><time>2022-11-14T16:23:09.0000000+00:00</time></trkpt><trkpt lat="39.46169252" lon="-0.32658317"><ele>-3.8</ele><time>2022-11-14T16:23:10.0000000+00:00</time></trkpt><trkpt lat="39.46169034" lon="-0.32653414"><ele>-4.0</ele><time>2022-11-14T16:23:11.0000000+00:00</time></trkpt><trkpt lat="39.46169252" lon="-0.32649265"><ele>-4.0</ele><time>2022-11-14T16:23:12.0000000+00:00</time></trkpt><trkpt lat="39.46169562" lon="-0.32645476"><ele>-4.0</ele><time>2022-11-14T16:23:13.0000000+00:00</time></trkpt><trkpt lat="39.46169579" lon="-0.32641511"><ele>-4.0</ele><time>2022-11-14T16:23:14.0000000+00:00</time></trkpt><trkpt lat="39.46169822" lon="-0.32637488"><ele>-4.0</ele><time>2022-11-14T16:23:15.0000000+00:00</time></trkpt><trkpt lat="39.46169352" lon="-0.32633004"><ele>-4.0</ele><time>2022-11-14T16:23:16.0000000+00:00</time></trkpt><trkpt lat="39.46168606" lon="-0.32628285"><ele>-4.0</ele><time>2022-11-14T16:23:17.0000000+00:00</time></trkpt><trkpt lat="39.46167827" lon="-0.3262375"><ele>-3.8</ele><time>2022-11-14T16:23:18.0000000+00:00</time></trkpt><trkpt lat="39.46167173" lon="-0.32619115"><ele>-3.8</ele><time>2022-11-14T16:23:19.0000000+00:00</time></trkpt><trkpt lat="39.46166737" lon="-0.32614916"><ele>-3.8</ele><time>2022-11-14T16:23:20.0000000+00:00</time></trkpt><trkpt lat="39.46165186" lon="-0.3261199"><ele>-3.6</ele><time>2022-11-14T16:23:21.0000000+00:00</time></trkpt><trkpt lat="39.46163393" lon="-0.32610172"><ele>-3.6</ele><time>2022-11-14T16:23:22.0000000+00:00</time></trkpt><trkpt lat="39.46162295" lon="-0.32609141"><ele>-3.6</ele><time>2022-11-14T16:23:23.0000000+00:00</time></trkpt><trkpt lat="39.46161867" lon="-0.32608688"><ele>-3.6</ele><time>2022-11-14T16:23:24.0000000+00:00</time></trkpt><trkpt lat="39.46161867" lon="-0.32608688"><ele>-3.8</ele><time>2022-11-14T16:23:25.0000000+00:00</time></trkpt><trkpt lat="39.46161867" lon="-0.32608688"><ele>-3.8</ele><time>2022-11-14T16:23:26.0000000+00:00</time></trkpt><trkpt lat="39.46161859" lon="-0.32608034"><ele>-4.0</ele><time>2022-11-14T16:23:27.0000000+00:00</time></trkpt><trkpt lat="39.46162119" lon="-0.32608084"><ele>-4.0</ele><time>2022-11-14T16:23:28.0000000+00:00</time></trkpt><trkpt lat="39.46162119" lon="-0.32608084"><ele>-4.0</ele><time>2022-11-14T16:23:29.0000000+00:00</time></trkpt><trkpt lat="39.46162119" lon="-0.32608084"><ele>-4.0</ele><time>2022-11-14T16:23:30.0000000+00:00</time></trkpt><trkpt lat="39.46162119" lon="-0.32608084"><ele>-4.2</ele><time>2022-11-14T16:23:31.0000000+00:00</time></trkpt><trkpt lat="39.46162119" lon="-0.32608084"><ele>-4.2</ele><time>2022-11-14T16:23:32.0000000+00:00</time></trkpt><trkpt lat="39.46162119" lon="-0.32608084"><ele>-4.0</ele><time>2022-11-14T16:23:33.0000000+00:00</time></trkpt><trkpt lat="39.46161658" lon="-0.32607908"><ele>-4.0</ele><time>2022-11-14T16:23:34.0000000+00:00</time></trkpt><trkpt lat="39.46160761" lon="-0.32606861"><ele>-4.0</ele><time>2022-11-14T16:23:35.0000000+00:00</time></trkpt><trkpt lat="39.46159956" lon="-0.32605587"><ele>-4.0</ele><time>2022-11-14T16:23:36.0000000+00:00</time></trkpt><trkpt lat="39.46159529" lon="-0.32603734"><ele>-3.8</ele><time>2022-11-14T16:23:37.0000000+00:00</time></trkpt><trkpt lat="39.46159596" lon="-0.32601572"><ele>-3.8</ele><time>2022-11-14T16:23:38.0000000+00:00</time></trkpt><trkpt lat="39.46160191" lon="-0.32599468"><ele>-3.8</ele><time>2022-11-14T16:23:39.0000000+00:00</time></trkpt><trkpt lat="39.46161264" lon="-0.3259702"><ele>-3.8</ele><time>2022-11-14T16:23:40.0000000+00:00</time></trkpt><trkpt lat="39.46161448" lon="-0.32594791"><ele>-3.8</ele><time>2022-11-14T16:23:41.0000000+00:00</time></trkpt><trkpt lat="39.46160417" lon="-0.32592662"><ele>-3.8</ele><time>2022-11-14T16:23:42.0000000+00:00</time></trkpt><trkpt lat="39.46159629" lon="-0.32590709"><ele>-3.8</ele><time>2022-11-14T16:23:43.0000000+00:00</time></trkpt><trkpt lat="39.46159411" lon="-0.32588781"><ele>-3.8</ele><time>2022-11-14T16:23:44.0000000+00:00</time></trkpt><trkpt lat="39.4615978" lon="-0.32587549"><ele>-3.8</ele><time>2022-11-14T16:23:45.0000000+00:00</time></trkpt><trkpt lat="39.46160635" lon="-0.32586719"><ele>-4.0</ele><time>2022-11-14T16:23:46.0000000+00:00</time></trkpt><trkpt lat="39.46162135" lon="-0.32586442"><ele>-4.0</ele><time>2022-11-14T16:23:47.0000000+00:00</time></trkpt><trkpt lat="39.46164239" lon="-0.32586074"><ele>-4.0</ele><time>2022-11-14T16:23:48.0000000+00:00</time></trkpt><trkpt lat="39.46166276" lon="-0.32585646"><ele>-4.0</ele><time>2022-11-14T16:23:49.0000000+00:00</time></trkpt><trkpt lat="39.46168715" lon="-0.32584774"><ele>-4.0</ele><time>2022-11-14T16:23:50.0000000+00:00</time></trkpt><trkpt lat="39.46170827" lon="-0.32584045"><ele>-4.0</ele><time>2022-11-14T16:23:51.0000000+00:00</time></trkpt><trkpt lat="39.46173275" lon="-0.32583458"><ele>-4.0</ele><time>2022-11-14T16:23:52.0000000+00:00</time></trkpt><trkpt lat="39.461762" lon="-0.32583316"><ele>-4.0</ele><time>2022-11-14T16:23:53.0000000+00:00</time></trkpt><trkpt lat="39.46180148" lon="-0.3258381"><ele>-4.0</ele><time>2022-11-14T16:23:54.0000000+00:00</time></trkpt><trkpt lat="39.46184238" lon="-0.32584791"><ele>-4.0</ele><time>2022-11-14T16:23:55.0000000+00:00</time></trkpt><trkpt lat="39.46187918" lon="-0.32585621"><ele>-4.0</ele><time>2022-11-14T16:23:56.0000000+00:00</time></trkpt><trkpt lat="39.46191547" lon="-0.32586484"><ele>-4.2</ele><time>2022-11-14T16:23:57.0000000+00:00</time></trkpt><trkpt lat="39.46194867" lon="-0.32587138"><ele>-4.2</ele><time>2022-11-14T16:23:58.0000000+00:00</time></trkpt><trkpt lat="39.46197331" lon="-0.32586996"><ele>-4.2</ele><time>2022-11-14T16:23:59.0000000+00:00</time></trkpt><trkpt lat="39.4620055" lon="-0.32585981"><ele>-4.2</ele><time>2022-11-14T16:24:00.0000000+00:00</time></trkpt><trkpt lat="39.46204179" lon="-0.325849"><ele>-4.0</ele><time>2022-11-14T16:24:01.0000000+00:00</time></trkpt><trkpt lat="39.46207607" lon="-0.3258257"><ele>-4.0</ele><time>2022-11-14T16:24:02.0000000+00:00</time></trkpt><trkpt lat="39.46210323" lon="-0.32578731"><ele>-4.0</ele><time>2022-11-14T16:24:03.0000000+00:00</time></trkpt><trkpt lat="39.46213366" lon="-0.32573719"><ele>-3.8</ele><time>2022-11-14T16:24:04.0000000+00:00</time></trkpt><trkpt lat="39.46214279" lon="-0.32568086"><ele>-3.8</ele><time>2022-11-14T16:24:05.0000000+00:00</time></trkpt><trkpt lat="39.46214321" lon="-0.32562462"><ele>-3.6</ele><time>2022-11-14T16:24:06.0000000+00:00</time></trkpt><trkpt lat="39.46214296" lon="-0.32556963"><ele>-3.6</ele><time>2022-11-14T16:24:07.0000000+00:00</time></trkpt><trkpt lat="39.4621391" lon="-0.32550886"><ele>-3.6</ele><time>2022-11-14T16:24:08.0000000+00:00</time></trkpt><trkpt lat="39.46213072" lon="-0.32543862"><ele>-3.6</ele><time>2022-11-14T16:24:09.0000000+00:00</time></trkpt><trkpt lat="39.46212452" lon="-0.32537316"><ele>-3.4</ele><time>2022-11-14T16:24:10.0000000+00:00</time></trkpt><trkpt lat="39.46211195" lon="-0.32531323"><ele>-3.4</ele><time>2022-11-14T16:24:11.0000000+00:00</time></trkpt><trkpt lat="39.4620951" lon="-0.32525573"><ele>-3.4</ele><time>2022-11-14T16:24:12.0000000+00:00</time></trkpt><trkpt lat="39.46207322" lon="-0.32520183"><ele>-3.4</ele><time>2022-11-14T16:24:13.0000000+00:00</time></trkpt><trkpt lat="39.46205277" lon="-0.32514995"><ele>-3.6</ele><time>2022-11-14T16:24:14.0000000+00:00</time></trkpt><trkpt lat="39.4620324" lon="-0.32509882"><ele>-3.8</ele><time>2022-11-14T16:24:15.0000000+00:00</time></trkpt><trkpt lat="39.4620148" lon="-0.32504501"><ele>-4.0</ele><time>2022-11-14T16:24:16.0000000+00:00</time></trkpt><trkpt lat="39.46200105" lon="-0.32498701"><ele>-4.0</ele><time>2022-11-14T16:24:17.0000000+00:00</time></trkpt><trkpt lat="39.46199804" lon="-0.32492272"><ele>-4.2</ele><time>2022-11-14T16:24:18.0000000+00:00</time></trkpt><trkpt lat="39.46200835" lon="-0.3248596"><ele>-4.2</ele><time>2022-11-14T16:24:19.0000000+00:00</time></trkpt><trkpt lat="39.46202193" lon="-0.32480118"><ele>-4.2</ele><time>2022-11-14T16:24:20.0000000+00:00</time></trkpt><trkpt lat="39.46203508" lon="-0.32474871"><ele>-4.2</ele><time>2022-11-14T16:24:21.0000000+00:00</time></trkpt><trkpt lat="39.46204078" lon="-0.32470018"><ele>-4.2</ele><time>2022-11-14T16:24:22.0000000+00:00</time></trkpt><trkpt lat="39.46203693" lon="-0.324656"><ele>-4.0</ele><time>2022-11-14T16:24:23.0000000+00:00</time></trkpt><trkpt lat="39.46202612" lon="-0.32461049"><ele>-3.6</ele><time>2022-11-14T16:24:24.0000000+00:00</time></trkpt><trkpt lat="39.46201329" lon="-0.32457101"><ele>-3.4</ele><time>2022-11-14T16:24:25.0000000+00:00</time></trkpt><trkpt lat="39.46200181" lon="-0.32453346"><ele>-3.4</ele><time>2022-11-14T16:24:26.0000000+00:00</time></trkpt><trkpt lat="39.46199653" lon="-0.32449214"><ele>-3.2</ele><time>2022-11-14T16:24:27.0000000+00:00</time></trkpt><trkpt lat="39.4619941" lon="-0.32444738"><ele>-3.2</ele><time>2022-11-14T16:24:28.0000000+00:00</time></trkpt><trkpt lat="39.46198831" lon="-0.32440371"><ele>-3.4</ele><time>2022-11-14T16:24:29.0000000+00:00</time></trkpt><trkpt lat="39.46197708" lon="-0.32436079"><ele>-3.4</ele><time>2022-11-14T16:24:30.0000000+00:00</time></trkpt><trkpt lat="39.46196208" lon="-0.32431947"><ele>-3.4</ele><time>2022-11-14T16:24:31.0000000+00:00</time></trkpt><trkpt lat="39.4619464" lon="-0.32428402"><ele>-3.4</ele><time>2022-11-14T16:24:32.0000000+00:00</time></trkpt><trkpt lat="39.46193417" lon="-0.32425007"><ele>-3.4</ele><time>2022-11-14T16:24:33.0000000+00:00</time></trkpt><trkpt lat="39.46192503" lon="-0.32421906"><ele>-3.4</ele><time>2022-11-14T16:24:34.0000000+00:00</time></trkpt><trkpt lat="39.46192402" lon="-0.32418712"><ele>-3.4</ele><time>2022-11-14T16:24:35.0000000+00:00</time></trkpt><trkpt lat="39.46192545" lon="-0.32414789"><ele>-3.4</ele><time>2022-11-14T16:24:36.0000000+00:00</time></trkpt><trkpt lat="39.46193459" lon="-0.32411235"><ele>-3.4</ele><time>2022-11-14T16:24:37.0000000+00:00</time></trkpt><trkpt lat="39.46194464" lon="-0.32407765"><ele>-3.4</ele><time>2022-11-14T16:24:38.0000000+00:00</time></trkpt><trkpt lat="39.46195663" lon="-0.32404153"><ele>-3.4</ele><time>2022-11-14T16:24:39.0000000+00:00</time></trkpt><trkpt lat="39.46196619" lon="-0.32400456"><ele>-3.4</ele><time>2022-11-14T16:24:40.0000000+00:00</time></trkpt><trkpt lat="39.46197758" lon="-0.32396525"><ele>-3.6</ele><time>2022-11-14T16:24:41.0000000+00:00</time></trkpt><trkpt lat="39.46199426" lon="-0.32393365"><ele>-3.6</ele><time>2022-11-14T16:24:42.0000000+00:00</time></trkpt><trkpt lat="39.46201413" lon="-0.32391102"><ele>-3.6</ele><time>2022-11-14T16:24:43.0000000+00:00</time></trkpt><trkpt lat="39.4620381" lon="-0.3238909"><ele>-3.6</ele><time>2022-11-14T16:24:44.0000000+00:00</time></trkpt><trkpt lat="39.4620661" lon="-0.3238723"><ele>-3.6</ele><time>2022-11-14T16:24:45.0000000+00:00</time></trkpt><trkpt lat="39.46209485" lon="-0.32384941"><ele>-3.6</ele><time>2022-11-14T16:24:46.0000000+00:00</time></trkpt><trkpt lat="39.46212033" lon="-0.32381966"><ele>-3.6</ele><time>2022-11-14T16:24:47.0000000+00:00</time></trkpt><trkpt lat="39.46213944" lon="-0.32378286"><ele>-3.6</ele><time>2022-11-14T16:24:48.0000000+00:00</time></trkpt><trkpt lat="39.46215671" lon="-0.32374548"><ele>-3.4</ele><time>2022-11-14T16:24:49.0000000+00:00</time></trkpt><trkpt lat="39.46217154" lon="-0.3237096"><ele>-3.4</ele><time>2022-11-14T16:24:50.0000000+00:00</time></trkpt><trkpt lat="39.46218864" lon="-0.32367574"><ele>-3.4</ele><time>2022-11-14T16:24:51.0000000+00:00</time></trkpt><trkpt lat="39.46221362" lon="-0.32364573"><ele>-3.4</ele><time>2022-11-14T16:24:52.0000000+00:00</time></trkpt><trkpt lat="39.46224011" lon="-0.3236133"><ele>-3.4</ele><time>2022-11-14T16:24:53.0000000+00:00</time></trkpt><trkpt lat="39.46226517" lon="-0.32357767"><ele>-3.4</ele><time>2022-11-14T16:24:54.0000000+00:00</time></trkpt><trkpt lat="39.46229266" lon="-0.32353744"><ele>-3.4</ele><time>2022-11-14T16:24:55.0000000+00:00</time></trkpt><trkpt lat="39.4623225" lon="-0.32348857"><ele>-3.4</ele><time>2022-11-14T16:24:56.0000000+00:00</time></trkpt><trkpt lat="39.4623484" lon="-0.32343526"><ele>-3.4</ele><time>2022-11-14T16:24:57.0000000+00:00</time></trkpt><trkpt lat="39.46236743" lon="-0.32337852"><ele>-3.4</ele><time>2022-11-14T16:24:58.0000000+00:00</time></trkpt><trkpt lat="39.46238738" lon="-0.32331909"><ele>-3.2</ele><time>2022-11-14T16:24:59.0000000+00:00</time></trkpt><trkpt lat="39.4624028" lon="-0.32326"><ele>-3.2</ele><time>2022-11-14T16:25:00.0000000+00:00</time></trkpt><trkpt lat="39.46242007" lon="-0.32319856"><ele>-3.0</ele><time>2022-11-14T16:25:01.0000000+00:00</time></trkpt><trkpt lat="39.46243825" lon="-0.32313746"><ele>-3.0</ele><time>2022-11-14T16:25:02.0000000+00:00</time></trkpt><trkpt lat="39.46245778" lon="-0.3230761"><ele>-3.0</ele><time>2022-11-14T16:25:03.0000000+00:00</time></trkpt><trkpt lat="39.46247539" lon="-0.32301743"><ele>-3.0</ele><time>2022-11-14T16:25:04.0000000+00:00</time></trkpt><trkpt lat="39.46248964" lon="-0.32295875"><ele>-3.0</ele><time>2022-11-14T16:25:05.0000000+00:00</time></trkpt><trkpt lat="39.46250363" lon="-0.32289782"><ele>-2.8</ele><time>2022-11-14T16:25:06.0000000+00:00</time></trkpt><trkpt lat="39.4625178" lon="-0.32283722"><ele>-2.8</ele><time>2022-11-14T16:25:07.0000000+00:00</time></trkpt><trkpt lat="39.46252978" lon="-0.32277502"><ele>-2.6</ele><time>2022-11-14T16:25:08.0000000+00:00</time></trkpt><trkpt lat="39.46254093" lon="-0.32271258"><ele>-2.6</ele><time>2022-11-14T16:25:09.0000000+00:00</time></trkpt><trkpt lat="39.46254739" lon="-0.32264971"><ele>-2.6</ele><time>2022-11-14T16:25:10.0000000+00:00</time></trkpt><trkpt lat="39.46256021" lon="-0.32258626"><ele>-2.6</ele><time>2022-11-14T16:25:11.0000000+00:00</time></trkpt><trkpt lat="39.46257421" lon="-0.32252172"><ele>-2.6</ele><time>2022-11-14T16:25:12.0000000+00:00</time></trkpt><trkpt lat="39.46258821" lon="-0.32245626"><ele>-2.4</ele><time>2022-11-14T16:25:13.0000000+00:00</time></trkpt><trkpt lat="39.46259768" lon="-0.32238744"><ele>-2.4</ele><time>2022-11-14T16:25:14.0000000+00:00</time></trkpt><trkpt lat="39.46260925" lon="-0.32231829"><ele>-2.4</ele><time>2022-11-14T16:25:15.0000000+00:00</time></trkpt><trkpt lat="39.46261989" lon="-0.32224948"><ele>-2.4</ele><time>2022-11-14T16:25:16.0000000+00:00</time></trkpt><trkpt lat="39.46263154" lon="-0.32218183"><ele>-2.4</ele><time>2022-11-14T16:25:17.0000000+00:00</time></trkpt><trkpt lat="39.4626395" lon="-0.32211587"><ele>-2.4</ele><time>2022-11-14T16:25:18.0000000+00:00</time></trkpt><trkpt lat="39.46264428" lon="-0.32204831"><ele>-2.4</ele><time>2022-11-14T16:25:19.0000000+00:00</time></trkpt><trkpt lat="39.46265149" lon="-0.32198017"><ele>-2.4</ele><time>2022-11-14T16:25:20.0000000+00:00</time></trkpt><trkpt lat="39.4626597" lon="-0.3219106"><ele>-2.4</ele><time>2022-11-14T16:25:21.0000000+00:00</time></trkpt><trkpt lat="39.46266683" lon="-0.32183969"><ele>-2.4</ele><time>2022-11-14T16:25:22.0000000+00:00</time></trkpt><trkpt lat="39.46267261" lon="-0.32176584"><ele>-2.2</ele><time>2022-11-14T16:25:23.0000000+00:00</time></trkpt><trkpt lat="39.46267672" lon="-0.32169183"><ele>-2.2</ele><time>2022-11-14T16:25:24.0000000+00:00</time></trkpt><trkpt lat="39.46268158" lon="-0.32161916"><ele>-2.2</ele><time>2022-11-14T16:25:25.0000000+00:00</time></trkpt><trkpt lat="39.46268695" lon="-0.32154481"><ele>-2.2</ele><time>2022-11-14T16:25:26.0000000+00:00</time></trkpt><trkpt lat="39.46269239" lon="-0.32147138"><ele>-2.2</ele><time>2022-11-14T16:25:27.0000000+00:00</time></trkpt><trkpt lat="39.46269558" lon="-0.32139595"><ele>-2.2</ele><time>2022-11-14T16:25:28.0000000+00:00</time></trkpt><trkpt lat="39.46270153" lon="-0.32131867"><ele>-2.2</ele><time>2022-11-14T16:25:29.0000000+00:00</time></trkpt><trkpt lat="39.46270782" lon="-0.32123854"><ele>-2.2</ele><time>2022-11-14T16:25:30.0000000+00:00</time></trkpt><trkpt lat="39.46271251" lon="-0.32116075"><ele>-2.2</ele><time>2022-11-14T16:25:31.0000000+00:00</time></trkpt><trkpt lat="39.46271461" lon="-0.32107961"><ele>-2.0</ele><time>2022-11-14T16:25:32.0000000+00:00</time></trkpt><trkpt lat="39.46271419" lon="-0.32100133"><ele>-2.0</ele><time>2022-11-14T16:25:33.0000000+00:00</time></trkpt><trkpt lat="39.46271109" lon="-0.32092589"><ele>-2.0</ele><time>2022-11-14T16:25:34.0000000+00:00</time></trkpt><trkpt lat="39.4627053" lon="-0.32084894"><ele>-2.0</ele><time>2022-11-14T16:25:35.0000000+00:00</time></trkpt><trkpt lat="39.46270187" lon="-0.32077141"><ele>-2.0</ele><time>2022-11-14T16:25:36.0000000+00:00</time></trkpt><trkpt lat="39.46269667" lon="-0.32069488"><ele>-2.0</ele><time>2022-11-14T16:25:37.0000000+00:00</time></trkpt><trkpt lat="39.46268954" lon="-0.32061677"><ele>-2.0</ele><time>2022-11-14T16:25:38.0000000+00:00</time></trkpt><trkpt lat="39.46267697" lon="-0.32053756"><ele>-2.0</ele><time>2022-11-14T16:25:39.0000000+00:00</time></trkpt><trkpt lat="39.46266138" lon="-0.3204586"><ele>-2.0</ele><time>2022-11-14T16:25:40.0000000+00:00</time></trkpt><trkpt lat="39.46264914" lon="-0.32037805"><ele>-2.0</ele><time>2022-11-14T16:25:41.0000000+00:00</time></trkpt><trkpt lat="39.46264386" lon="-0.32029725"><ele>-2.0</ele><time>2022-11-14T16:25:42.0000000+00:00</time></trkpt><trkpt lat="39.46265015" lon="-0.3202208"><ele>-2.2</ele><time>2022-11-14T16:25:43.0000000+00:00</time></trkpt><trkpt lat="39.4626701" lon="-0.3201514"><ele>-2.2</ele><time>2022-11-14T16:25:44.0000000+00:00</time></trkpt><trkpt lat="39.4626986" lon="-0.32010061"><ele>-2.2</ele><time>2022-11-14T16:25:45.0000000+00:00</time></trkpt><trkpt lat="39.46272232" lon="-0.32005526"><ele>-2.0</ele><time>2022-11-14T16:25:46.0000000+00:00</time></trkpt><trkpt lat="39.46272902" lon="-0.32000212"><ele>-2.0</ele><time>2022-11-14T16:25:47.0000000+00:00</time></trkpt><trkpt lat="39.46272223" lon="-0.31994797"><ele>-2.0</ele><time>2022-11-14T16:25:48.0000000+00:00</time></trkpt><trkpt lat="39.4627172" lon="-0.31989022"><ele>-2.0</ele><time>2022-11-14T16:25:49.0000000+00:00</time></trkpt><trkpt lat="39.4627136" lon="-0.31983038"><ele>-2.0</ele><time>2022-11-14T16:25:50.0000000+00:00</time></trkpt><trkpt lat="39.46271234" lon="-0.31977078"><ele>-2.0</ele><time>2022-11-14T16:25:51.0000000+00:00</time></trkpt><trkpt lat="39.46270681" lon="-0.31971647"><ele>-2.0</ele><time>2022-11-14T16:25:52.0000000+00:00</time></trkpt><trkpt lat="39.46270069" lon="-0.31966433"><ele>-2.0</ele><time>2022-11-14T16:25:53.0000000+00:00</time></trkpt><trkpt lat="39.46269415" lon="-0.3196189"><ele>-2.0</ele><time>2022-11-14T16:25:54.0000000+00:00</time></trkpt><trkpt lat="39.46268342" lon="-0.31957741"><ele>-2.0</ele><time>2022-11-14T16:25:55.0000000+00:00</time></trkpt><trkpt lat="39.46266742" lon="-0.31953181"><ele>-2.0</ele><time>2022-11-14T16:25:56.0000000+00:00</time></trkpt><trkpt lat="39.46264353" lon="-0.31949284"><ele>-2.0</ele><time>2022-11-14T16:25:57.0000000+00:00</time></trkpt><trkpt lat="39.4626105" lon="-0.31946115"><ele>-2.0</ele><time>2022-11-14T16:25:58.0000000+00:00</time></trkpt><trkpt lat="39.46257379" lon="-0.31943961"><ele>-2.2</ele><time>2022-11-14T16:25:59.0000000+00:00</time></trkpt><trkpt lat="39.46253532" lon="-0.31941799"><ele>-2.2</ele><time>2022-11-14T16:26:00.0000000+00:00</time></trkpt><trkpt lat="39.46249961" lon="-0.31938546"><ele>-2.2</ele><time>2022-11-14T16:26:01.0000000+00:00</time></trkpt><trkpt lat="39.46246767" lon="-0.31934255"><ele>-2.2</ele><time>2022-11-14T16:26:02.0000000+00:00</time></trkpt><trkpt lat="39.46243733" lon="-0.31929452"><ele>-2.2</ele><time>2022-11-14T16:26:03.0000000+00:00</time></trkpt><trkpt lat="39.46241227" lon="-0.3192454"><ele>-2.2</ele><time>2022-11-14T16:26:04.0000000+00:00</time></trkpt><trkpt lat="39.46238788" lon="-0.31919838"><ele>-2.2</ele><time>2022-11-14T16:26:05.0000000+00:00</time></trkpt><trkpt lat="39.46237112" lon="-0.31915873"><ele>-2.2</ele><time>2022-11-14T16:26:06.0000000+00:00</time></trkpt><trkpt lat="39.46236751" lon="-0.31912495"><ele>-2.4</ele><time>2022-11-14T16:26:07.0000000+00:00</time></trkpt><trkpt lat="39.46237933" lon="-0.31909495"><ele>-2.6</ele><time>2022-11-14T16:26:08.0000000+00:00</time></trkpt><trkpt lat="39.46240406" lon="-0.31906595"><ele>-2.8</ele><time>2022-11-14T16:26:09.0000000+00:00</time></trkpt><trkpt lat="39.46243172" lon="-0.31903183"><ele>-3.0</ele><time>2022-11-14T16:26:10.0000000+00:00</time></trkpt><trkpt lat="39.46246181" lon="-0.31899721"><ele>-3.0</ele><time>2022-11-14T16:26:11.0000000+00:00</time></trkpt><trkpt lat="39.4624981" lon="-0.31896452"><ele>-3.0</ele><time>2022-11-14T16:26:12.0000000+00:00</time></trkpt><trkpt lat="39.46253356" lon="-0.31892714"><ele>-3.2</ele><time>2022-11-14T16:26:13.0000000+00:00</time></trkpt><trkpt lat="39.46255761" lon="-0.31887425"><ele>-3.2</ele><time>2022-11-14T16:26:14.0000000+00:00</time></trkpt><trkpt lat="39.46256541" lon="-0.3188113"><ele>-3.2</ele><time>2022-11-14T16:26:15.0000000+00:00</time></trkpt><trkpt lat="39.46256524" lon="-0.31874517"><ele>-3.2</ele><time>2022-11-14T16:26:16.0000000+00:00</time></trkpt><trkpt lat="39.46256784" lon="-0.31867736"><ele>-3.2</ele><time>2022-11-14T16:26:17.0000000+00:00</time></trkpt><trkpt lat="39.46257471" lon="-0.31860494"><ele>-3.4</ele><time>2022-11-14T16:26:18.0000000+00:00</time></trkpt><trkpt lat="39.46258016" lon="-0.31853085"><ele>-3.4</ele><time>2022-11-14T16:26:19.0000000+00:00</time></trkpt><trkpt lat="39.46258184" lon="-0.31845792"><ele>-3.4</ele><time>2022-11-14T16:26:20.0000000+00:00</time></trkpt><trkpt lat="39.46258008" lon="-0.31838249"><ele>-3.4</ele><time>2022-11-14T16:26:21.0000000+00:00</time></trkpt><trkpt lat="39.46257555" lon="-0.3183068"><ele>-3.4</ele><time>2022-11-14T16:26:22.0000000+00:00</time></trkpt><trkpt lat="39.46257245" lon="-0.31823287"><ele>-3.6</ele><time>2022-11-14T16:26:23.0000000+00:00</time></trkpt><trkpt lat="39.46256675" lon="-0.31815944"><ele>-3.4</ele><time>2022-11-14T16:26:24.0000000+00:00</time></trkpt><trkpt lat="39.46256449" lon="-0.31808669"><ele>-3.4</ele><time>2022-11-14T16:26:25.0000000+00:00</time></trkpt><trkpt lat="39.46256289" lon="-0.31801268"><ele>-3.4</ele><time>2022-11-14T16:26:26.0000000+00:00</time></trkpt><trkpt lat="39.46256205" lon="-0.31793724"><ele>-3.4</ele><time>2022-11-14T16:26:27.0000000+00:00</time></trkpt><trkpt lat="39.46256164" lon="-0.31785954"><ele>-3.2</ele><time>2022-11-14T16:26:28.0000000+00:00</time></trkpt><trkpt lat="39.46255971" lon="-0.31778393"><ele>-3.2</ele><time>2022-11-14T16:26:29.0000000+00:00</time></trkpt><trkpt lat="39.46255577" lon="-0.31770925"><ele>-3.2</ele><time>2022-11-14T16:26:30.0000000+00:00</time></trkpt><trkpt lat="39.46255099" lon="-0.31763909"><ele>-3.2</ele><time>2022-11-14T16:26:31.0000000+00:00</time></trkpt><trkpt lat="39.46254781" lon="-0.31756919"><ele>-3.2</ele><time>2022-11-14T16:26:32.0000000+00:00</time></trkpt><trkpt lat="39.4625468" lon="-0.31749585"><ele>-3.2</ele><time>2022-11-14T16:26:33.0000000+00:00</time></trkpt><trkpt lat="39.46254755" lon="-0.317422"><ele>-3.4</ele><time>2022-11-14T16:26:34.0000000+00:00</time></trkpt><trkpt lat="39.462552" lon="-0.3173469"><ele>-3.4</ele><time>2022-11-14T16:26:35.0000000+00:00</time></trkpt><trkpt lat="39.4625608" lon="-0.31727239"><ele>-3.2</ele><time>2022-11-14T16:26:36.0000000+00:00</time></trkpt><trkpt lat="39.46256926" lon="-0.31719837"><ele>-3.2</ele><time>2022-11-14T16:26:37.0000000+00:00</time></trkpt><trkpt lat="39.46257756" lon="-0.31712185"><ele>-3.2</ele><time>2022-11-14T16:26:38.0000000+00:00</time></trkpt><trkpt lat="39.46258318" lon="-0.31704616"><ele>-3.2</ele><time>2022-11-14T16:26:39.0000000+00:00</time></trkpt><trkpt lat="39.46258619" lon="-0.31697282"><ele>-3.2</ele><time>2022-11-14T16:26:40.0000000+00:00</time></trkpt><trkpt lat="39.46258754" lon="-0.31689839"><ele>-3.2</ele><time>2022-11-14T16:26:41.0000000+00:00</time></trkpt><trkpt lat="39.46258687" lon="-0.31683594"><ele>-3.2</ele><time>2022-11-14T16:26:42.0000000+00:00</time></trkpt><trkpt lat="39.46258737" lon="-0.31674198"><ele>-3.4</ele><time>2022-11-14T16:26:43.0000000+00:00</time></trkpt><trkpt lat="39.46258913" lon="-0.31666176"><ele>-3.4</ele><time>2022-11-14T16:26:44.0000000+00:00</time></trkpt><trkpt lat="39.46259265" lon="-0.31659471"><ele>-3.6</ele><time>2022-11-14T16:26:45.0000000+00:00</time></trkpt><trkpt lat="39.46259575" lon="-0.31649245"><ele>-3.8</ele><time>2022-11-14T16:26:46.0000000+00:00</time></trkpt><trkpt lat="39.46259047" lon="-0.31641014"><ele>-4.0</ele><time>2022-11-14T16:26:47.0000000+00:00</time></trkpt><trkpt lat="39.46258125" lon="-0.31632842"><ele>-4.0</ele><time>2022-11-14T16:26:48.0000000+00:00</time></trkpt><trkpt lat="39.46257094" lon="-0.31624544"><ele>-4.0</ele><time>2022-11-14T16:26:49.0000000+00:00</time></trkpt><trkpt lat="39.46256708" lon="-0.31616036"><ele>-4.0</ele><time>2022-11-14T16:26:50.0000000+00:00</time></trkpt><trkpt lat="39.46256398" lon="-0.31607562"><ele>-4.0</ele><time>2022-11-14T16:26:51.0000000+00:00</time></trkpt><trkpt lat="39.46255971" lon="-0.3159918"><ele>-4.0</ele><time>2022-11-14T16:26:52.0000000+00:00</time></trkpt><trkpt lat="39.4625546" lon="-0.31591024"><ele>-4.0</ele><time>2022-11-14T16:26:53.0000000+00:00</time></trkpt><trkpt lat="39.46255066" lon="-0.31584579"><ele>-4.0</ele><time>2022-11-14T16:26:54.0000000+00:00</time></trkpt><trkpt lat="39.46254613" lon="-0.31574529"><ele>-3.8</ele><time>2022-11-14T16:26:55.0000000+00:00</time></trkpt><trkpt lat="39.46254395" lon="-0.31566197"><ele>-4.0</ele><time>2022-11-14T16:26:56.0000000+00:00</time></trkpt><trkpt lat="39.46253691" lon="-0.31558008"><ele>-4.0</ele><time>2022-11-14T16:26:57.0000000+00:00</time></trkpt><trkpt lat="39.46252568" lon="-0.31549777"><ele>-4.0</ele><time>2022-11-14T16:26:58.0000000+00:00</time></trkpt><trkpt lat="39.46251947" lon="-0.31541278"><ele>-4.0</ele><time>2022-11-14T16:26:59.0000000+00:00</time></trkpt><trkpt lat="39.4625147" lon="-0.31532636"><ele>-4.0</ele><time>2022-11-14T16:27:00.0000000+00:00</time></trkpt><trkpt lat="39.46250925" lon="-0.3152412"><ele>-4.0</ele><time>2022-11-14T16:27:01.0000000+00:00</time></trkpt><trkpt lat="39.46250363" lon="-0.31515629"><ele>-4.0</ele><time>2022-11-14T16:27:02.0000000+00:00</time></trkpt><trkpt lat="39.46249894" lon="-0.31506904"><ele>-4.2</ele><time>2022-11-14T16:27:03.0000000+00:00</time></trkpt><trkpt lat="39.46249659" lon="-0.31498262"><ele>-4.2</ele><time>2022-11-14T16:27:04.0000000+00:00</time></trkpt><trkpt lat="39.46249425" lon="-0.31489662"><ele>-4.2</ele><time>2022-11-14T16:27:05.0000000+00:00</time></trkpt><trkpt lat="39.46249064" lon="-0.31481221"><ele>-4.2</ele><time>2022-11-14T16:27:06.0000000+00:00</time></trkpt><trkpt lat="39.46248829" lon="-0.31473225"><ele>-4.2</ele><time>2022-11-14T16:27:07.0000000+00:00</time></trkpt><trkpt lat="39.46248477" lon="-0.3146481"><ele>-4.2</ele><time>2022-11-14T16:27:08.0000000+00:00</time></trkpt><trkpt lat="39.46247966" lon="-0.31455933"><ele>-4.2</ele><time>2022-11-14T16:27:09.0000000+00:00</time></trkpt><trkpt lat="39.46247622" lon="-0.31446998"><ele>-4.2</ele><time>2022-11-14T16:27:10.0000000+00:00</time></trkpt><trkpt lat="39.46247329" lon="-0.31437971"><ele>-4.2</ele><time>2022-11-14T16:27:11.0000000+00:00</time></trkpt><trkpt lat="39.46246809" lon="-0.31429145"><ele>-4.2</ele><time>2022-11-14T16:27:12.0000000+00:00</time></trkpt><trkpt lat="39.46246491" lon="-0.31420369"><ele>-4.2</ele><time>2022-11-14T16:27:13.0000000+00:00</time></trkpt><trkpt lat="39.46245996" lon="-0.31411576"><ele>-4.0</ele><time>2022-11-14T16:27:14.0000000+00:00</time></trkpt><trkpt lat="39.46245452" lon="-0.31402775"><ele>-4.0</ele><time>2022-11-14T16:27:15.0000000+00:00</time></trkpt><trkpt lat="39.46244865" lon="-0.31393983"><ele>-3.8</ele><time>2022-11-14T16:27:16.0000000+00:00</time></trkpt><trkpt lat="39.46244429" lon="-0.31385651"><ele>-3.8</ele><time>2022-11-14T16:27:17.0000000+00:00</time></trkpt><trkpt lat="39.4624401" lon="-0.31377244"><ele>-3.8</ele><time>2022-11-14T16:27:18.0000000+00:00</time></trkpt><trkpt lat="39.46243499" lon="-0.31369222"><ele>-3.8</ele><time>2022-11-14T16:27:19.0000000+00:00</time></trkpt><trkpt lat="39.46243088" lon="-0.31361167"><ele>-3.8</ele><time>2022-11-14T16:27:20.0000000+00:00</time></trkpt><trkpt lat="39.46242878" lon="-0.3135354"><ele>-3.8</ele><time>2022-11-14T16:27:21.0000000+00:00</time></trkpt><trkpt lat="39.46242593" lon="-0.31346248"><ele>-3.8</ele><time>2022-11-14T16:27:22.0000000+00:00</time></trkpt><trkpt lat="39.46242082" lon="-0.3133883"><ele>-3.8</ele><time>2022-11-14T16:27:23.0000000+00:00</time></trkpt><trkpt lat="39.46241487" lon="-0.31331311"><ele>-4.0</ele><time>2022-11-14T16:27:24.0000000+00:00</time></trkpt><trkpt lat="39.46240934" lon="-0.3132391"><ele>-4.0</ele><time>2022-11-14T16:27:25.0000000+00:00</time></trkpt><trkpt lat="39.46240364" lon="-0.31316425"><ele>-4.0</ele><time>2022-11-14T16:27:26.0000000+00:00</time></trkpt><trkpt lat="39.46240003" lon="-0.3130842"><ele>-4.0</ele><time>2022-11-14T16:27:27.0000000+00:00</time></trkpt><trkpt lat="39.46239517" lon="-0.31300566"><ele>-4.0</ele><time>2022-11-14T16:27:28.0000000+00:00</time></trkpt><trkpt lat="39.46239056" lon="-0.3129283"><ele>-4.0</ele><time>2022-11-14T16:27:29.0000000+00:00</time></trkpt><trkpt lat="39.46238671" lon="-0.31284942"><ele>-4.0</ele><time>2022-11-14T16:27:30.0000000+00:00</time></trkpt><trkpt lat="39.46238352" lon="-0.3127843"><ele>-4.0</ele><time>2022-11-14T16:27:31.0000000+00:00</time></trkpt><trkpt lat="39.4623743" lon="-0.31268857"><ele>-4.0</ele><time>2022-11-14T16:27:32.0000000+00:00</time></trkpt><trkpt lat="39.46236818" lon="-0.31261155"><ele>-4.0</ele><time>2022-11-14T16:27:33.0000000+00:00</time></trkpt><trkpt lat="39.46236449" lon="-0.31253292"><ele>-4.0</ele><time>2022-11-14T16:27:34.0000000+00:00</time></trkpt><trkpt lat="39.46235737" lon="-0.31245413"><ele>-4.0</ele><time>2022-11-14T16:27:35.0000000+00:00</time></trkpt><trkpt lat="39.46234413" lon="-0.31237694"><ele>-4.0</ele><time>2022-11-14T16:27:36.0000000+00:00</time></trkpt><trkpt lat="39.46232543" lon="-0.31230091"><ele>-4.2</ele><time>2022-11-14T16:27:37.0000000+00:00</time></trkpt><trkpt lat="39.46230255" lon="-0.31222774"><ele>-4.2</ele><time>2022-11-14T16:27:38.0000000+00:00</time></trkpt><trkpt lat="39.46227372" lon="-0.31215649"><ele>-4.2</ele><time>2022-11-14T16:27:39.0000000+00:00</time></trkpt><trkpt lat="39.46224212" lon="-0.31208751"><ele>-4.2</ele><time>2022-11-14T16:27:40.0000000+00:00</time></trkpt><trkpt lat="39.46220499" lon="-0.31202163"><ele>-4.2</ele><time>2022-11-14T16:27:41.0000000+00:00</time></trkpt><trkpt lat="39.46216492" lon="-0.31195968"><ele>-4.2</ele><time>2022-11-14T16:27:42.0000000+00:00</time></trkpt><trkpt lat="39.46212159" lon="-0.31190378"><ele>-4.0</ele><time>2022-11-14T16:27:43.0000000+00:00</time></trkpt><trkpt lat="39.46208127" lon="-0.31186815"><ele>-4.0</ele><time>2022-11-14T16:27:44.0000000+00:00</time></trkpt><trkpt lat="39.46201899" lon="-0.31181979"><ele>-4.0</ele><time>2022-11-14T16:27:45.0000000+00:00</time></trkpt><trkpt lat="39.46196669" lon="-0.3117783"><ele>-3.8</ele><time>2022-11-14T16:27:46.0000000+00:00</time></trkpt><trkpt lat="39.46191371" lon="-0.31173145"><ele>-3.8</ele><time>2022-11-14T16:27:47.0000000+00:00</time></trkpt><trkpt lat="39.46186527" lon="-0.31168526"><ele>-3.8</ele><time>2022-11-14T16:27:48.0000000+00:00</time></trkpt><trkpt lat="39.4618169" lon="-0.31164059"><ele>-3.8</ele><time>2022-11-14T16:27:49.0000000+00:00</time></trkpt><trkpt lat="39.46176971" lon="-0.31159214"><ele>-3.6</ele><time>2022-11-14T16:27:50.0000000+00:00</time></trkpt><trkpt lat="39.46171984" lon="-0.31154285"><ele>-3.6</ele><time>2022-11-14T16:27:51.0000000+00:00</time></trkpt><trkpt lat="39.46166863" lon="-0.31149541"><ele>-3.6</ele><time>2022-11-14T16:27:52.0000000+00:00</time></trkpt><trkpt lat="39.46161884" lon="-0.31144931"><ele>-3.8</ele><time>2022-11-14T16:27:53.0000000+00:00</time></trkpt><trkpt lat="39.46157358" lon="-0.31140137"><ele>-4.0</ele><time>2022-11-14T16:27:54.0000000+00:00</time></trkpt><trkpt lat="39.46153049" lon="-0.31134831"><ele>-4.0</ele><time>2022-11-14T16:27:55.0000000+00:00</time></trkpt><trkpt lat="39.46148716" lon="-0.31129626"><ele>-4.2</ele><time>2022-11-14T16:27:56.0000000+00:00</time></trkpt><trkpt lat="39.46144441" lon="-0.31124789"><ele>-4.2</ele><time>2022-11-14T16:27:57.0000000+00:00</time></trkpt><trkpt lat="39.46139705" lon="-0.31119928"><ele>-4.2</ele><time>2022-11-14T16:27:58.0000000+00:00</time></trkpt><trkpt lat="39.4613502" lon="-0.31115997"><ele>-4.2</ele><time>2022-11-14T16:27:59.0000000+00:00</time></trkpt><trkpt lat="39.46130452" lon="-0.31112954"><ele>-4.2</ele><time>2022-11-14T16:28:00.0000000+00:00</time></trkpt><trkpt lat="39.46126387" lon="-0.31110213"><ele>-4.0</ele><time>2022-11-14T16:28:01.0000000+00:00</time></trkpt><trkpt lat="39.46122472" lon="-0.31108034"><ele>-3.8</ele><time>2022-11-14T16:28:02.0000000+00:00</time></trkpt><trkpt lat="39.46118658" lon="-0.3110738"><ele>-3.6</ele><time>2022-11-14T16:28:03.0000000+00:00</time></trkpt><trkpt lat="39.46115088" lon="-0.31108118"><ele>-3.4</ele><time>2022-11-14T16:28:04.0000000+00:00</time></trkpt><trkpt lat="39.46112623" lon="-0.31110087"><ele>-3.4</ele><time>2022-11-14T16:28:05.0000000+00:00</time></trkpt><trkpt lat="39.46111014" lon="-0.31113222"><ele>-3.2</ele><time>2022-11-14T16:28:06.0000000+00:00</time></trkpt><trkpt lat="39.46109874" lon="-0.31115913"><ele>-3.2</ele><time>2022-11-14T16:28:07.0000000+00:00</time></trkpt><trkpt lat="39.46108416" lon="-0.31118277"><ele>-3.0</ele><time>2022-11-14T16:28:08.0000000+00:00</time></trkpt><trkpt lat="39.46107309" lon="-0.31119433"><ele>-3.0</ele><time>2022-11-14T16:28:09.0000000+00:00</time></trkpt><trkpt lat="39.46106974" lon="-0.31119626"><ele>-3.2</ele><time>2022-11-14T16:28:10.0000000+00:00</time></trkpt><trkpt lat="39.46106974" lon="-0.31119626"><ele>-3.2</ele><time>2022-11-14T16:28:11.0000000+00:00</time></trkpt><trkpt lat="39.46106974" lon="-0.31119626"><ele>-3.4</ele><time>2022-11-14T16:28:12.0000000+00:00</time></trkpt><trkpt lat="39.46106974" lon="-0.31119626"><ele>-3.8</ele><time>2022-11-14T16:28:13.0000000+00:00</time></trkpt><trkpt lat="39.46106974" lon="-0.31119626"><ele>-3.8</ele><time>2022-11-14T16:28:14.0000000+00:00</time></trkpt><trkpt lat="39.46106974" lon="-0.31119626"><ele>-3.8</ele><time>2022-11-14T16:28:15.0000000+00:00</time></trkpt><trkpt lat="39.46106974" lon="-0.31119626"><ele>-3.8</ele><time>2022-11-14T16:28:16.0000000+00:00</time></trkpt><trkpt lat="39.46106974" lon="-0.31119626"><ele>-3.8</ele><time>2022-11-14T16:28:17.0000000+00:00</time></trkpt><trkpt lat="39.46106974" lon="-0.31119626"><ele>-3.8</ele><time>2022-11-14T16:28:18.0000000+00:00</time></trkpt><trkpt lat="39.46106974" lon="-0.31119626"><ele>-3.8</ele><time>2022-11-14T16:28:19.0000000+00:00</time></trkpt><trkpt lat="39.46106974" lon="-0.31119626"><ele>-3.8</ele><time>2022-11-14T16:28:20.0000000+00:00</time></trkpt><trkpt lat="39.46106974" lon="-0.31119626"><ele>-3.8</ele><time>2022-11-14T16:28:21.0000000+00:00</time></trkpt><trkpt lat="39.46106974" lon="-0.31119626"><ele>-3.8</ele><time>2022-11-14T16:28:22.0000000+00:00</time></trkpt><trkpt lat="39.46106974" lon="-0.31119626"><ele>-3.8</ele><time>2022-11-14T16:28:23.0000000+00:00</time></trkpt><trkpt lat="39.46106974" lon="-0.31119626"><ele>-3.8</ele><time>2022-11-14T16:28:24.0000000+00:00</time></trkpt><trkpt lat="39.46106974" lon="-0.31119626"><ele>-3.8</ele><time>2022-11-14T16:28:25.0000000+00:00</time></trkpt><trkpt lat="39.46106974" lon="-0.31119626"><ele>-3.8</ele><time>2022-11-14T16:28:26.0000000+00:00</time></trkpt><trkpt lat="39.46106974" lon="-0.31119626"><ele>-3.8</ele><time>2022-11-14T16:28:27.0000000+00:00</time></trkpt><trkpt lat="39.46107301" lon="-0.31119978"><ele>-3.8</ele><time>2022-11-14T16:28:28.0000000+00:00</time></trkpt><trkpt lat="39.46107578" lon="-0.31120112"><ele>-3.8</ele><time>2022-11-14T16:28:29.0000000+00:00</time></trkpt><trkpt lat="39.46107578" lon="-0.31120112"><ele>-3.8</ele><time>2022-11-14T16:28:30.0000000+00:00</time></trkpt><trkpt lat="39.46107578" lon="-0.31120112"><ele>-3.8</ele><time>2022-11-14T16:28:31.0000000+00:00</time></trkpt><trkpt lat="39.46107578" lon="-0.31120112"><ele>-3.8</ele><time>2022-11-14T16:28:32.0000000+00:00</time></trkpt><trkpt lat="39.46107578" lon="-0.31120112"><ele>-3.8</ele><time>2022-11-14T16:28:33.0000000+00:00</time></trkpt><trkpt lat="39.46107578" lon="-0.31120112"><ele>-3.8</ele><time>2022-11-14T16:28:34.0000000+00:00</time></trkpt><trkpt lat="39.46107578" lon="-0.31120112"><ele>-3.8</ele><time>2022-11-14T16:28:35.0000000+00:00</time></trkpt><trkpt lat="39.46107578" lon="-0.31120112"><ele>-3.8</ele><time>2022-11-14T16:28:36.0000000+00:00</time></trkpt><trkpt lat="39.46107578" lon="-0.31120112"><ele>-3.8</ele><time>2022-11-14T16:28:37.0000000+00:00</time></trkpt><trkpt lat="39.46107578" lon="-0.31120112"><ele>-3.8</ele><time>2022-11-14T16:28:38.0000000+00:00</time></trkpt><trkpt lat="39.46107578" lon="-0.31120112"><ele>-3.8</ele><time>2022-11-14T16:28:39.0000000+00:00</time></trkpt><trkpt lat="39.46107578" lon="-0.31120112"><ele>-3.8</ele><time>2022-11-14T16:28:40.0000000+00:00</time></trkpt><trkpt lat="39.46106966" lon="-0.31119676"><ele>-3.8</ele><time>2022-11-14T16:28:41.0000000+00:00</time></trkpt><trkpt lat="39.46106538" lon="-0.3111909"><ele>-3.8</ele><time>2022-11-14T16:28:42.0000000+00:00</time></trkpt><trkpt lat="39.46106077" lon="-0.3111826"><ele>-3.8</ele><time>2022-11-14T16:28:43.0000000+00:00</time></trkpt><trkpt lat="39.46105222" lon="-0.31117656"><ele>-3.8</ele><time>2022-11-14T16:28:44.0000000+00:00</time></trkpt><trkpt lat="39.4610446" lon="-0.31117162"><ele>-3.8</ele><time>2022-11-14T16:28:45.0000000+00:00</time></trkpt><trkpt lat="39.46103781" lon="-0.31116198"><ele>-3.8</ele><time>2022-11-14T16:28:46.0000000+00:00</time></trkpt><trkpt lat="39.46102859" lon="-0.31114698"><ele>-3.8</ele><time>2022-11-14T16:28:47.0000000+00:00</time></trkpt><trkpt lat="39.46101777" lon="-0.311137"><ele>-3.8</ele><time>2022-11-14T16:28:48.0000000+00:00</time></trkpt><trkpt lat="39.46100654" lon="-0.31112518"><ele>-3.6</ele><time>2022-11-14T16:28:49.0000000+00:00</time></trkpt><trkpt lat="39.46099774" lon="-0.31110934"><ele>-3.6</ele><time>2022-11-14T16:28:50.0000000+00:00</time></trkpt><trkpt lat="39.46098944" lon="-0.31109274"><ele>-3.6</ele><time>2022-11-14T16:28:51.0000000+00:00</time></trkpt><trkpt lat="39.46098265" lon="-0.31106978"><ele>-3.4</ele><time>2022-11-14T16:28:52.0000000+00:00</time></trkpt><trkpt lat="39.46097503" lon="-0.31104815"><ele>-3.4</ele><time>2022-11-14T16:28:53.0000000+00:00</time></trkpt><trkpt lat="39.46096438" lon="-0.31102141"><ele>-3.4</ele><time>2022-11-14T16:28:54.0000000+00:00</time></trkpt><trkpt lat="39.4609539" lon="-0.31099618"><ele>-3.4</ele><time>2022-11-14T16:28:55.0000000+00:00</time></trkpt><trkpt lat="39.46094636" lon="-0.31097355"><ele>-3.6</ele><time>2022-11-14T16:28:56.0000000+00:00</time></trkpt><trkpt lat="39.46094443" lon="-0.3109552"><ele>-3.6</ele><time>2022-11-14T16:28:57.0000000+00:00</time></trkpt><trkpt lat="39.46094871" lon="-0.31094019"><ele>-3.6</ele><time>2022-11-14T16:28:58.0000000+00:00</time></trkpt><trkpt lat="39.46095072" lon="-0.31093466"><ele>-3.8</ele><time>2022-11-14T16:28:59.0000000+00:00</time></trkpt><trkpt lat="39.46094317" lon="-0.31093743"><ele>-3.8</ele><time>2022-11-14T16:29:00.0000000+00:00</time></trkpt><trkpt lat="39.46093764" lon="-0.31093625"><ele>-3.8</ele><time>2022-11-14T16:29:01.0000000+00:00</time></trkpt><trkpt lat="39.46093119" lon="-0.3109329"><ele>-3.8</ele><time>2022-11-14T16:29:02.0000000+00:00</time></trkpt><trkpt lat="39.46092834" lon="-0.3109293"><ele>-3.8</ele><time>2022-11-14T16:29:03.0000000+00:00</time></trkpt><trkpt lat="39.46092834" lon="-0.3109293"><ele>-3.8</ele><time>2022-11-14T16:29:04.0000000+00:00</time></trkpt><trkpt lat="39.46092834" lon="-0.3109293"><ele>-3.6</ele><time>2022-11-14T16:29:05.0000000+00:00</time></trkpt><trkpt lat="39.46092834" lon="-0.3109293"><ele>-3.6</ele><time>2022-11-14T16:29:06.0000000+00:00</time></trkpt><trkpt lat="39.46092909" lon="-0.31093416"><ele>-3.8</ele><time>2022-11-14T16:29:07.0000000+00:00</time></trkpt><trkpt lat="39.46093253" lon="-0.31093617"><ele>-3.8</ele><time>2022-11-14T16:29:08.0000000+00:00</time></trkpt><trkpt lat="39.4609358" lon="-0.310936"><ele>-3.8</ele><time>2022-11-14T16:29:09.0000000+00:00</time></trkpt><trkpt lat="39.46093974" lon="-0.31092879"><ele>-4.0</ele><time>2022-11-14T16:29:10.0000000+00:00</time></trkpt><trkpt lat="39.46094435" lon="-0.31092385"><ele>-4.0</ele><time>2022-11-14T16:29:11.0000000+00:00</time></trkpt><trkpt lat="39.46094762" lon="-0.31091698"><ele>-4.2</ele><time>2022-11-14T16:29:12.0000000+00:00</time></trkpt><trkpt lat="39.46095097" lon="-0.31091178"><ele>-4.2</ele><time>2022-11-14T16:29:13.0000000+00:00</time></trkpt><trkpt lat="39.46095256" lon="-0.310906"><ele>-4.2</ele><time>2022-11-14T16:29:14.0000000+00:00</time></trkpt><trkpt lat="39.46095566" lon="-0.31090004"><ele>-4.2</ele><time>2022-11-14T16:29:15.0000000+00:00</time></trkpt><trkpt lat="39.46096044" lon="-0.31089535"><ele>-4.2</ele><time>2022-11-14T16:29:16.0000000+00:00</time></trkpt><trkpt lat="39.46096321" lon="-0.31088982"><ele>-4.2</ele><time>2022-11-14T16:29:17.0000000+00:00</time></trkpt><trkpt lat="39.46096698" lon="-0.31088479"><ele>-4.2</ele><time>2022-11-14T16:29:18.0000000+00:00</time></trkpt><trkpt lat="39.46097159" lon="-0.31087708"><ele>-4.2</ele><time>2022-11-14T16:29:19.0000000+00:00</time></trkpt><trkpt lat="39.46097503" lon="-0.31086995"><ele>-4.0</ele><time>2022-11-14T16:29:20.0000000+00:00</time></trkpt><trkpt lat="39.46098089" lon="-0.31086585"><ele>-4.0</ele><time>2022-11-14T16:29:21.0000000+00:00</time></trkpt><trkpt lat="39.46099145" lon="-0.31086048"><ele>-4.0</ele><time>2022-11-14T16:29:22.0000000+00:00</time></trkpt><trkpt lat="39.46099623" lon="-0.31085579"><ele>-4.0</ele><time>2022-11-14T16:29:23.0000000+00:00</time></trkpt><trkpt lat="39.46099942" lon="-0.31084967"><ele>-4.0</ele><time>2022-11-14T16:29:24.0000000+00:00</time></trkpt><trkpt lat="39.46100378" lon="-0.31084196"><ele>-4.2</ele><time>2022-11-14T16:29:25.0000000+00:00</time></trkpt><trkpt lat="39.46100872" lon="-0.31083425"><ele>-4.2</ele><time>2022-11-14T16:29:26.0000000+00:00</time></trkpt><trkpt lat="39.46101015" lon="-0.31082662"><ele>-4.2</ele><time>2022-11-14T16:29:27.0000000+00:00</time></trkpt><trkpt lat="39.46100998" lon="-0.31082293"><ele>-4.2</ele><time>2022-11-14T16:29:28.0000000+00:00</time></trkpt><trkpt lat="39.46100663" lon="-0.31082176"><ele>-4.0</ele><time>2022-11-14T16:29:29.0000000+00:00</time></trkpt><trkpt lat="39.46100478" lon="-0.31082176"><ele>-4.0</ele><time>2022-11-14T16:29:30.0000000+00:00</time></trkpt><trkpt lat="39.46100185" lon="-0.31082042"><ele>-4.0</ele><time>2022-11-14T16:29:31.0000000+00:00</time></trkpt><trkpt lat="39.46099866" lon="-0.31082125"><ele>-3.8</ele><time>2022-11-14T16:29:32.0000000+00:00</time></trkpt><trkpt lat="39.46100017" lon="-0.31081908"><ele>-3.8</ele><time>2022-11-14T16:29:33.0000000+00:00</time></trkpt><trkpt lat="39.4610026" lon="-0.31081455"><ele>-4.0</ele><time>2022-11-14T16:29:34.0000000+00:00</time></trkpt><trkpt lat="39.4610026" lon="-0.31081455"><ele>-4.2</ele><time>2022-11-14T16:29:35.0000000+00:00</time></trkpt><trkpt lat="39.4610026" lon="-0.31081455"><ele>-4.2</ele><time>2022-11-14T16:29:36.0000000+00:00</time></trkpt><trkpt lat="39.4610026" lon="-0.31081455"><ele>-4.4</ele><time>2022-11-14T16:29:37.0000000+00:00</time></trkpt><trkpt lat="39.4610026" lon="-0.31081455"><ele>-4.4</ele><time>2022-11-14T16:29:38.0000000+00:00</time></trkpt><trkpt lat="39.4610026" lon="-0.31081455"><ele>-4.2</ele><time>2022-11-14T16:29:39.0000000+00:00</time></trkpt><trkpt lat="39.4610026" lon="-0.31081455"><ele>-4.2</ele><time>2022-11-14T16:29:40.0000000+00:00</time></trkpt><trkpt lat="39.4610026" lon="-0.31081455"><ele>-4.0</ele><time>2022-11-14T16:29:41.0000000+00:00</time></trkpt><trkpt lat="39.46100394" lon="-0.31081446"><ele>-4.0</ele><time>2022-11-14T16:29:42.0000000+00:00</time></trkpt><trkpt lat="39.4610057" lon="-0.31081446"><ele>-4.0</ele><time>2022-11-14T16:29:43.0000000+00:00</time></trkpt><trkpt lat="39.4610057" lon="-0.31081446"><ele>-4.0</ele><time>2022-11-14T16:29:44.0000000+00:00</time></trkpt><trkpt lat="39.4610057" lon="-0.31081446"><ele>-4.0</ele><time>2022-11-14T16:29:45.0000000+00:00</time></trkpt><trkpt lat="39.4610057" lon="-0.31081446"><ele>-3.8</ele><time>2022-11-14T16:29:46.0000000+00:00</time></trkpt><trkpt lat="39.4610057" lon="-0.31081446"><ele>-3.6</ele><time>2022-11-14T16:29:47.0000000+00:00</time></trkpt><trkpt lat="39.4610057" lon="-0.31081446"><ele>-3.6</ele><time>2022-11-14T16:29:48.0000000+00:00</time></trkpt><trkpt lat="39.4610057" lon="-0.31081446"><ele>-3.6</ele><time>2022-11-14T16:29:49.0000000+00:00</time></trkpt><trkpt lat="39.4610057" lon="-0.31081446"><ele>-3.6</ele><time>2022-11-14T16:29:50.0000000+00:00</time></trkpt><trkpt lat="39.4610057" lon="-0.31081446"><ele>-3.6</ele><time>2022-11-14T16:29:51.0000000+00:00</time></trkpt><trkpt lat="39.4610057" lon="-0.31081446"><ele>-3.8</ele><time>2022-11-14T16:29:52.0000000+00:00</time></trkpt><trkpt lat="39.4610057" lon="-0.31081446"><ele>-3.8</ele><time>2022-11-14T16:29:53.0000000+00:00</time></trkpt><trkpt lat="39.4610057" lon="-0.31081446"><ele>-3.8</ele><time>2022-11-14T16:29:54.0000000+00:00</time></trkpt><trkpt lat="39.4610057" lon="-0.31081446"><ele>-3.8</ele><time>2022-11-14T16:29:55.0000000+00:00</time></trkpt><trkpt lat="39.4610057" lon="-0.31081446"><ele>-3.8</ele><time>2022-11-14T16:29:56.0000000+00:00</time></trkpt><trkpt lat="39.4610057" lon="-0.31081446"><ele>-3.8</ele><time>2022-11-14T16:29:57.0000000+00:00</time></trkpt><trkpt lat="39.4610057" lon="-0.31081446"><ele>-3.8</ele><time>2022-11-14T16:29:58.0000000+00:00</time></trkpt><trkpt lat="39.4610057" lon="-0.31081446"><ele>-3.8</ele><time>2022-11-14T16:29:59.0000000+00:00</time></trkpt><trkpt lat="39.4610057" lon="-0.31081446"><ele>-3.8</ele><time>2022-11-14T16:30:00.0000000+00:00</time></trkpt><trkpt lat="39.4610057" lon="-0.31081446"><ele>-4.0</ele><time>2022-11-14T16:30:01.0000000+00:00</time></trkpt><trkpt lat="39.4610057" lon="-0.31081446"><ele>-4.0</ele><time>2022-11-14T16:30:02.0000000+00:00</time></trkpt><trkpt lat="39.4610057" lon="-0.31081446"><ele>-4.0</ele><time>2022-11-14T16:30:03.0000000+00:00</time></trkpt><trkpt lat="39.4610057" lon="-0.31081446"><ele>-4.2</ele><time>2022-11-14T16:30:04.0000000+00:00</time></trkpt><trkpt lat="39.46100134" lon="-0.31081673"><ele>-4.2</ele><time>2022-11-14T16:30:05.0000000+00:00</time></trkpt><trkpt lat="39.46099933" lon="-0.31081983"><ele>-4.2</ele><time>2022-11-14T16:30:06.0000000+00:00</time></trkpt><trkpt lat="39.46099933" lon="-0.31081983"><ele>-4.0</ele><time>2022-11-14T16:30:07.0000000+00:00</time></trkpt><trkpt lat="39.46099933" lon="-0.31081983"><ele>-4.0</ele><time>2022-11-14T16:30:08.0000000+00:00</time></trkpt><trkpt lat="39.46099933" lon="-0.31081983"><ele>-4.0</ele><time>2022-11-14T16:30:09.0000000+00:00</time></trkpt><trkpt lat="39.46099933" lon="-0.31081983"><ele>-4.0</ele><time>2022-11-14T16:30:10.0000000+00:00</time></trkpt><trkpt lat="39.46099933" lon="-0.31081983"><ele>-4.0</ele><time>2022-11-14T16:30:11.0000000+00:00</time></trkpt><trkpt lat="39.46099933" lon="-0.31081983"><ele>-4.0</ele><time>2022-11-14T16:30:12.0000000+00:00</time></trkpt><trkpt lat="39.46099933" lon="-0.31081983"><ele>-4.0</ele><time>2022-11-14T16:30:13.0000000+00:00</time></trkpt><trkpt lat="39.46099933" lon="-0.31081983"><ele>-4.0</ele><time>2022-11-14T16:30:14.0000000+00:00</time></trkpt><trkpt lat="39.46099933" lon="-0.31081983"><ele>-4.0</ele><time>2022-11-14T16:30:15.0000000+00:00</time></trkpt><trkpt lat="39.46099933" lon="-0.31081983"><ele>-4.0</ele><time>2022-11-14T16:30:16.0000000+00:00</time></trkpt><trkpt lat="39.46099933" lon="-0.31081983"><ele>-4.0</ele><time>2022-11-14T16:30:17.0000000+00:00</time></trkpt><trkpt lat="39.46099933" lon="-0.31081983"><ele>-4.0</ele><time>2022-11-14T16:30:18.0000000+00:00</time></trkpt><trkpt lat="39.46099933" lon="-0.31081983"><ele>-4.0</ele><time>2022-11-14T16:30:19.0000000+00:00</time></trkpt><trkpt lat="39.46099933" lon="-0.31081983"><ele>-4.0</ele><time>2022-11-14T16:30:20.0000000+00:00</time></trkpt><trkpt lat="39.46099933" lon="-0.31081983"><ele>-4.0</ele><time>2022-11-14T16:30:21.0000000+00:00</time></trkpt><trkpt lat="39.46099933" lon="-0.31081983"><ele>-4.0</ele><time>2022-11-14T16:30:22.0000000+00:00</time></trkpt><trkpt lat="39.46099933" lon="-0.31081983"><ele>-4.0</ele><time>2022-11-14T16:30:23.0000000+00:00</time></trkpt><trkpt lat="39.46099933" lon="-0.31081983"><ele>-4.0</ele><time>2022-11-14T16:30:24.0000000+00:00</time></trkpt><trkpt lat="39.46099933" lon="-0.31081983"><ele>-4.0</ele><time>2022-11-14T16:30:25.0000000+00:00</time></trkpt><trkpt lat="39.46099741" lon="-0.31082234"><ele>-4.0</ele><time>2022-11-14T16:30:26.0000000+00:00</time></trkpt><trkpt lat="39.46099757" lon="-0.31083073"><ele>-4.0</ele><time>2022-11-14T16:30:27.0000000+00:00</time></trkpt><trkpt lat="39.46099933" lon="-0.31083944"><ele>-4.0</ele><time>2022-11-14T16:30:28.0000000+00:00</time></trkpt><trkpt lat="39.46100336" lon="-0.31084975"><ele>-4.0</ele><time>2022-11-14T16:30:29.0000000+00:00</time></trkpt><trkpt lat="39.46100185" lon="-0.31086065"><ele>-4.0</ele><time>2022-11-14T16:30:30.0000000+00:00</time></trkpt><trkpt lat="39.460999" lon="-0.31086995"><ele>-4.0</ele><time>2022-11-14T16:30:31.0000000+00:00</time></trkpt><trkpt lat="39.46099564" lon="-0.31087657"><ele>-4.0</ele><time>2022-11-14T16:30:32.0000000+00:00</time></trkpt><trkpt lat="39.46098911" lon="-0.31089577"><ele>-4.0</ele><time>2022-11-14T16:30:33.0000000+00:00</time></trkpt><trkpt lat="39.46098299" lon="-0.31091488"><ele>-4.0</ele><time>2022-11-14T16:30:34.0000000+00:00</time></trkpt><trkpt lat="39.46097838" lon="-0.31093114"><ele>-4.0</ele><time>2022-11-14T16:30:35.0000000+00:00</time></trkpt><trkpt lat="39.46097855" lon="-0.31094321"><ele>-4.0</ele><time>2022-11-14T16:30:36.0000000+00:00</time></trkpt><trkpt lat="39.46097712" lon="-0.31095469"><ele>-4.0</ele><time>2022-11-14T16:30:37.0000000+00:00</time></trkpt><trkpt lat="39.46097209" lon="-0.31097221"><ele>-4.0</ele><time>2022-11-14T16:30:38.0000000+00:00</time></trkpt><trkpt lat="39.46096589" lon="-0.31099032"><ele>-4.0</ele><time>2022-11-14T16:30:39.0000000+00:00</time></trkpt><trkpt lat="39.46096438" lon="-0.31100323"><ele>-4.0</ele><time>2022-11-14T16:30:40.0000000+00:00</time></trkpt><trkpt lat="39.46096161" lon="-0.3110163"><ele>-4.0</ele><time>2022-11-14T16:30:41.0000000+00:00</time></trkpt><trkpt lat="39.46095742" lon="-0.31102913"><ele>-4.0</ele><time>2022-11-14T16:30:42.0000000+00:00</time></trkpt><trkpt lat="39.46095415" lon="-0.31104136"><ele>-4.2</ele><time>2022-11-14T16:30:43.0000000+00:00</time></trkpt><trkpt lat="39.46094653" lon="-0.3110531"><ele>-4.2</ele><time>2022-11-14T16:30:44.0000000+00:00</time></trkpt><trkpt lat="39.46093806" lon="-0.31106207"><ele>-4.0</ele><time>2022-11-14T16:30:45.0000000+00:00</time></trkpt><trkpt lat="39.46093035" lon="-0.31107087"><ele>-4.0</ele><time>2022-11-14T16:30:46.0000000+00:00</time></trkpt><trkpt lat="39.4609197" lon="-0.31108126"><ele>-4.0</ele><time>2022-11-14T16:30:47.0000000+00:00</time></trkpt><trkpt lat="39.46091141" lon="-0.31109333"><ele>-4.0</ele><time>2022-11-14T16:30:48.0000000+00:00</time></trkpt><trkpt lat="39.4609047" lon="-0.31110389"><ele>-4.0</ele><time>2022-11-14T16:30:49.0000000+00:00</time></trkpt><trkpt lat="39.46089816" lon="-0.31111496"><ele>-3.8</ele><time>2022-11-14T16:30:50.0000000+00:00</time></trkpt><trkpt lat="39.46089062" lon="-0.31112401"><ele>-3.8</ele><time>2022-11-14T16:30:51.0000000+00:00</time></trkpt><trkpt lat="39.46088232" lon="-0.31113113"><ele>-3.8</ele><time>2022-11-14T16:30:52.0000000+00:00</time></trkpt><trkpt lat="39.46088081" lon="-0.3111344"><ele>-3.8</ele><time>2022-11-14T16:30:53.0000000+00:00</time></trkpt><trkpt lat="39.4608778" lon="-0.31113566"><ele>-3.8</ele><time>2022-11-14T16:30:54.0000000+00:00</time></trkpt><trkpt lat="39.46088467" lon="-0.31114027"><ele>-3.8</ele><time>2022-11-14T16:30:55.0000000+00:00</time></trkpt><trkpt lat="39.46089087" lon="-0.31114052"><ele>-3.8</ele><time>2022-11-14T16:30:56.0000000+00:00</time></trkpt><trkpt lat="39.46089967" lon="-0.31113482"><ele>-3.8</ele><time>2022-11-14T16:30:57.0000000+00:00</time></trkpt><trkpt lat="39.46090294" lon="-0.3111308"><ele>-3.8</ele><time>2022-11-14T16:30:58.0000000+00:00</time></trkpt><trkpt lat="39.46090629" lon="-0.3111277"><ele>-3.8</ele><time>2022-11-14T16:30:59.0000000+00:00</time></trkpt><trkpt lat="39.46091065" lon="-0.3111204"><ele>-3.8</ele><time>2022-11-14T16:31:00.0000000+00:00</time></trkpt><trkpt lat="39.46091602" lon="-0.31111571"><ele>-3.8</ele><time>2022-11-14T16:31:01.0000000+00:00</time></trkpt><trkpt lat="39.46092272" lon="-0.31110892"><ele>-3.8</ele><time>2022-11-14T16:31:02.0000000+00:00</time></trkpt><trkpt lat="39.46093043" lon="-0.31110004"><ele>-4.0</ele><time>2022-11-14T16:31:03.0000000+00:00</time></trkpt><trkpt lat="39.4609358" lon="-0.31108939"><ele>-3.8</ele><time>2022-11-14T16:31:04.0000000+00:00</time></trkpt><trkpt lat="39.46094066" lon="-0.31107699"><ele>-3.8</ele><time>2022-11-14T16:31:05.0000000+00:00</time></trkpt><trkpt lat="39.4609446" lon="-0.31106802"><ele>-3.8</ele><time>2022-11-14T16:31:06.0000000+00:00</time></trkpt><trkpt lat="39.46094678" lon="-0.31105871"><ele>-3.8</ele><time>2022-11-14T16:31:07.0000000+00:00</time></trkpt><trkpt lat="39.46095072" lon="-0.31104907"><ele>-3.8</ele><time>2022-11-14T16:31:08.0000000+00:00</time></trkpt><trkpt lat="39.46095474" lon="-0.31103952"><ele>-3.8</ele><time>2022-11-14T16:31:09.0000000+00:00</time></trkpt><trkpt lat="39.460957" lon="-0.31103097"><ele>-3.8</ele><time>2022-11-14T16:31:10.0000000+00:00</time></trkpt><trkpt lat="39.46095809" lon="-0.31102309"><ele>-3.8</ele><time>2022-11-14T16:31:11.0000000+00:00</time></trkpt><trkpt lat="39.46095826" lon="-0.31101613"><ele>-3.8</ele><time>2022-11-14T16:31:12.0000000+00:00</time></trkpt><trkpt lat="39.46095876" lon="-0.31100976"><ele>-3.8</ele><time>2022-11-14T16:31:13.0000000+00:00</time></trkpt><trkpt lat="39.46095851" lon="-0.31100381"><ele>-3.8</ele><time>2022-11-14T16:31:14.0000000+00:00</time></trkpt><trkpt lat="39.46095642" lon="-0.31099644"><ele>-3.8</ele><time>2022-11-14T16:31:15.0000000+00:00</time></trkpt><trkpt lat="39.46095583" lon="-0.31099233"><ele>-3.8</ele><time>2022-11-14T16:31:16.0000000+00:00</time></trkpt><trkpt lat="39.46095583" lon="-0.31099233"><ele>-3.8</ele><time>2022-11-14T16:31:17.0000000+00:00</time></trkpt><trkpt lat="39.46095583" lon="-0.31099233"><ele>-3.8</ele><time>2022-11-14T16:31:18.0000000+00:00</time></trkpt><trkpt lat="39.46095583" lon="-0.31099233"><ele>-4.0</ele><time>2022-11-14T16:31:19.0000000+00:00</time></trkpt><trkpt lat="39.46095583" lon="-0.31099233"><ele>-4.0</ele><time>2022-11-14T16:31:20.0000000+00:00</time></trkpt><trkpt lat="39.46095583" lon="-0.31099233"><ele>-4.0</ele><time>2022-11-14T16:31:21.0000000+00:00</time></trkpt><trkpt lat="39.46095583" lon="-0.31099233"><ele>-4.0</ele><time>2022-11-14T16:31:22.0000000+00:00</time></trkpt><trkpt lat="39.46095583" lon="-0.31099233"><ele>-4.0</ele><time>2022-11-14T16:31:23.0000000+00:00</time></trkpt><trkpt lat="39.46095583" lon="-0.31099233"><ele>-4.0</ele><time>2022-11-14T16:31:24.0000000+00:00</time></trkpt><trkpt lat="39.46095583" lon="-0.31099233"><ele>-4.0</ele><time>2022-11-14T16:31:25.0000000+00:00</time></trkpt><trkpt lat="39.46095583" lon="-0.31099233"><ele>-4.0</ele><time>2022-11-14T16:31:26.0000000+00:00</time></trkpt><trkpt lat="39.46095583" lon="-0.31099233"><ele>-4.0</ele><time>2022-11-14T16:31:27.0000000+00:00</time></trkpt><trkpt lat="39.46095256" lon="-0.31098805"><ele>-3.8</ele><time>2022-11-14T16:31:28.0000000+00:00</time></trkpt><trkpt lat="39.46094829" lon="-0.31098546"><ele>-3.8</ele><time>2022-11-14T16:31:29.0000000+00:00</time></trkpt><trkpt lat="39.46094167" lon="-0.31098395"><ele>-3.6</ele><time>2022-11-14T16:31:30.0000000+00:00</time></trkpt><trkpt lat="39.46093613" lon="-0.31098504"><ele>-3.8</ele><time>2022-11-14T16:31:31.0000000+00:00</time></trkpt><trkpt lat="39.46092943" lon="-0.31098948"><ele>-3.8</ele><time>2022-11-14T16:31:32.0000000+00:00</time></trkpt><trkpt lat="39.46092775" lon="-0.31099367"><ele>-3.8</ele><time>2022-11-14T16:31:33.0000000+00:00</time></trkpt><trkpt lat="39.46092775" lon="-0.31099367"><ele>-4.0</ele><time>2022-11-14T16:31:34.0000000+00:00</time></trkpt><trkpt lat="39.46092775" lon="-0.31099367"><ele>-4.0</ele><time>2022-11-14T16:31:35.0000000+00:00</time></trkpt><trkpt lat="39.46092775" lon="-0.31099367"><ele>-4.2</ele><time>2022-11-14T16:31:36.0000000+00:00</time></trkpt><trkpt lat="39.46092775" lon="-0.31099367"><ele>-4.4</ele><time>2022-11-14T16:31:37.0000000+00:00</time></trkpt><trkpt lat="39.46092775" lon="-0.31099367"><ele>-4.4</ele><time>2022-11-14T16:31:38.0000000+00:00</time></trkpt><trkpt lat="39.46092775" lon="-0.31099367"><ele>-4.4</ele><time>2022-11-14T16:31:39.0000000+00:00</time></trkpt><trkpt lat="39.46092775" lon="-0.31099367"><ele>-4.6</ele><time>2022-11-14T16:31:40.0000000+00:00</time></trkpt><trkpt lat="39.46092775" lon="-0.31099367"><ele>-4.6</ele><time>2022-11-14T16:31:41.0000000+00:00</time></trkpt><trkpt lat="39.46092775" lon="-0.31099367"><ele>-4.6</ele><time>2022-11-14T16:31:42.0000000+00:00</time></trkpt><trkpt lat="39.46092775" lon="-0.31099367"><ele>-4.6</ele><time>2022-11-14T16:31:43.0000000+00:00</time></trkpt><trkpt lat="39.46092775" lon="-0.31099367"><ele>-4.6</ele><time>2022-11-14T16:31:44.0000000+00:00</time></trkpt><trkpt lat="39.46092775" lon="-0.31099367"><ele>-4.6</ele><time>2022-11-14T16:31:45.0000000+00:00</time></trkpt><trkpt lat="39.46092775" lon="-0.31099367"><ele>-4.6</ele><time>2022-11-14T16:31:46.0000000+00:00</time></trkpt><trkpt lat="39.46092775" lon="-0.31099367"><ele>-4.6</ele><time>2022-11-14T16:31:47.0000000+00:00</time></trkpt><trkpt lat="39.46092775" lon="-0.31099367"><ele>-4.6</ele><time>2022-11-14T16:31:48.0000000+00:00</time></trkpt><trkpt lat="39.46092775" lon="-0.31099367"><ele>-4.6</ele><time>2022-11-14T16:31:49.0000000+00:00</time></trkpt><trkpt lat="39.46092775" lon="-0.31099367"><ele>-4.6</ele><time>2022-11-14T16:31:50.0000000+00:00</time></trkpt><trkpt lat="39.46092775" lon="-0.31099367"><ele>-4.6</ele><time>2022-11-14T16:31:51.0000000+00:00</time></trkpt><trkpt lat="39.46092775" lon="-0.31099367"><ele>-4.6</ele><time>2022-11-14T16:31:52.0000000+00:00</time></trkpt><trkpt lat="39.46092775" lon="-0.31099367"><ele>-4.4</ele><time>2022-11-14T16:31:53.0000000+00:00</time></trkpt><trkpt lat="39.46092775" lon="-0.31099367"><ele>-4.4</ele><time>2022-11-14T16:31:54.0000000+00:00</time></trkpt><trkpt lat="39.46092775" lon="-0.31099367"><ele>-4.4</ele><time>2022-11-14T16:31:55.0000000+00:00</time></trkpt><trkpt lat="39.46092775" lon="-0.31099367"><ele>-4.4</ele><time>2022-11-14T16:31:56.0000000+00:00</time></trkpt><trkpt lat="39.46092775" lon="-0.31099367"><ele>-4.2</ele><time>2022-11-14T16:31:57.0000000+00:00</time></trkpt><trkpt lat="39.46092775" lon="-0.31099367"><ele>-4.2</ele><time>2022-11-14T16:31:58.0000000+00:00</time></trkpt><trkpt lat="39.46092775" lon="-0.31099367"><ele>-4.2</ele><time>2022-11-14T16:31:59.0000000+00:00</time></trkpt><trkpt lat="39.46092775" lon="-0.31099367"><ele>-4.2</ele><time>2022-11-14T16:32:00.0000000+00:00</time></trkpt><trkpt lat="39.46092775" lon="-0.31099367"><ele>-4.2</ele><time>2022-11-14T16:32:01.0000000+00:00</time></trkpt><trkpt lat="39.46092775" lon="-0.31099367"><ele>-4.4</ele><time>2022-11-14T16:32:02.0000000+00:00</time></trkpt><trkpt lat="39.46092775" lon="-0.31099367"><ele>-4.4</ele><time>2022-11-14T16:32:03.0000000+00:00</time></trkpt><trkpt lat="39.46092775" lon="-0.31099367"><ele>-4.6</ele><time>2022-11-14T16:32:04.0000000+00:00</time></trkpt><trkpt lat="39.46092775" lon="-0.31099367"><ele>-4.6</ele><time>2022-11-14T16:32:05.0000000+00:00</time></trkpt><trkpt lat="39.46092775" lon="-0.31099367"><ele>-4.6</ele><time>2022-11-14T16:32:06.0000000+00:00</time></trkpt><trkpt lat="39.46092775" lon="-0.31099367"><ele>-4.6</ele><time>2022-11-14T16:32:07.0000000+00:00</time></trkpt><trkpt lat="39.46092775" lon="-0.31099367"><ele>-4.6</ele><time>2022-11-14T16:32:08.0000000+00:00</time></trkpt><trkpt lat="39.46092775" lon="-0.31099367"><ele>-4.6</ele><time>2022-11-14T16:32:09.0000000+00:00</time></trkpt><trkpt lat="39.46092775" lon="-0.31099367"><ele>-4.6</ele><time>2022-11-14T16:32:10.0000000+00:00</time></trkpt><trkpt lat="39.46092775" lon="-0.31099367"><ele>-4.8</ele><time>2022-11-14T16:32:11.0000000+00:00</time></trkpt><trkpt lat="39.46092775" lon="-0.31099367"><ele>-4.8</ele><time>2022-11-14T16:32:12.0000000+00:00</time></trkpt><trkpt lat="39.46092775" lon="-0.31099367"><ele>-4.8</ele><time>2022-11-14T16:32:13.0000000+00:00</time></trkpt><trkpt lat="39.46092775" lon="-0.31099367"><ele>-4.8</ele><time>2022-11-14T16:32:14.0000000+00:00</time></trkpt><trkpt lat="39.46092775" lon="-0.31099367"><ele>-4.8</ele><time>2022-11-14T16:32:15.0000000+00:00</time></trkpt><trkpt lat="39.46092775" lon="-0.31099367"><ele>-4.8</ele><time>2022-11-14T16:32:16.0000000+00:00</time></trkpt><trkpt lat="39.46092775" lon="-0.31099367"><ele>-4.8</ele><time>2022-11-14T16:32:17.0000000+00:00</time></trkpt><trkpt lat="39.46092775" lon="-0.31099367"><ele>-4.8</ele><time>2022-11-14T16:32:18.0000000+00:00</time></trkpt><trkpt lat="39.46092775" lon="-0.31099367"><ele>-4.8</ele><time>2022-11-14T16:32:19.0000000+00:00</time></trkpt><trkpt lat="39.46092775" lon="-0.31099367"><ele>-4.8</ele><time>2022-11-14T16:32:20.0000000+00:00</time></trkpt><trkpt lat="39.46092775" lon="-0.31099367"><ele>-4.6</ele><time>2022-11-14T16:32:21.0000000+00:00</time></trkpt><trkpt lat="39.46092725" lon="-0.3109904"><ele>-4.6</ele><time>2022-11-14T16:32:22.0000000+00:00</time></trkpt><trkpt lat="39.46092666" lon="-0.31098076"><ele>-4.6</ele><time>2022-11-14T16:32:23.0000000+00:00</time></trkpt><trkpt lat="39.46092892" lon="-0.31096995"><ele>-4.6</ele><time>2022-11-14T16:32:24.0000000+00:00</time></trkpt><trkpt lat="39.46092985" lon="-0.31096006"><ele>-4.4</ele><time>2022-11-14T16:32:25.0000000+00:00</time></trkpt><trkpt lat="39.46093429" lon="-0.31094925"><ele>-4.4</ele><time>2022-11-14T16:32:26.0000000+00:00</time></trkpt><trkpt lat="39.46094066" lon="-0.31094271"><ele>-4.4</ele><time>2022-11-14T16:32:27.0000000+00:00</time></trkpt><trkpt lat="39.46094552" lon="-0.31093768"><ele>-4.2</ele><time>2022-11-14T16:32:28.0000000+00:00</time></trkpt><trkpt lat="39.46095198" lon="-0.31093332"><ele>-4.4</ele><time>2022-11-14T16:32:29.0000000+00:00</time></trkpt><trkpt lat="39.4609622" lon="-0.31092921"><ele>-4.4</ele><time>2022-11-14T16:32:30.0000000+00:00</time></trkpt><trkpt lat="39.46096958" lon="-0.3109272"><ele>-4.0</ele><time>2022-11-14T16:32:31.0000000+00:00</time></trkpt><trkpt lat="39.46098073" lon="-0.31092527"><ele>-4.0</ele><time>2022-11-14T16:32:32.0000000+00:00</time></trkpt><trkpt lat="39.46098466" lon="-0.31092444"><ele>-4.0</ele><time>2022-11-14T16:32:33.0000000+00:00</time></trkpt><trkpt lat="39.46098777" lon="-0.31092418"><ele>-4.0</ele><time>2022-11-14T16:32:34.0000000+00:00</time></trkpt><trkpt lat="39.46099506" lon="-0.31092444"><ele>-4.0</ele><time>2022-11-14T16:32:35.0000000+00:00</time></trkpt><trkpt lat="39.46100386" lon="-0.31092578"><ele>-4.0</ele><time>2022-11-14T16:32:36.0000000+00:00</time></trkpt><trkpt lat="39.46100738" lon="-0.3109272"><ele>-4.0</ele><time>2022-11-14T16:32:37.0000000+00:00</time></trkpt><trkpt lat="39.46100738" lon="-0.31093097"><ele>-3.8</ele><time>2022-11-14T16:32:38.0000000+00:00</time></trkpt><trkpt lat="39.46100595" lon="-0.3109381"><ele>-3.8</ele><time>2022-11-14T16:32:39.0000000+00:00</time></trkpt><trkpt lat="39.46100847" lon="-0.31094313"><ele>-3.8</ele><time>2022-11-14T16:32:40.0000000+00:00</time></trkpt><trkpt lat="39.46100788" lon="-0.31094774"><ele>-3.8</ele><time>2022-11-14T16:32:41.0000000+00:00</time></trkpt><trkpt lat="39.46100688" lon="-0.31095218"><ele>-3.8</ele><time>2022-11-14T16:32:42.0000000+00:00</time></trkpt><trkpt lat="39.46100981" lon="-0.31095838"><ele>-3.8</ele><time>2022-11-14T16:32:43.0000000+00:00</time></trkpt><trkpt lat="39.46101048" lon="-0.31096635"><ele>-3.8</ele><time>2022-11-14T16:32:44.0000000+00:00</time></trkpt><trkpt lat="39.46101216" lon="-0.31097548"><ele>-3.8</ele><time>2022-11-14T16:32:45.0000000+00:00</time></trkpt><trkpt lat="39.46101425" lon="-0.31098286"><ele>-3.8</ele><time>2022-11-14T16:32:46.0000000+00:00</time></trkpt><trkpt lat="39.46101794" lon="-0.31098831"><ele>-3.8</ele><time>2022-11-14T16:32:47.0000000+00:00</time></trkpt><trkpt lat="39.46101576" lon="-0.31099929"><ele>-3.8</ele><time>2022-11-14T16:32:48.0000000+00:00</time></trkpt><trkpt lat="39.46101316" lon="-0.31100716"><ele>-3.8</ele><time>2022-11-14T16:32:49.0000000+00:00</time></trkpt><trkpt lat="39.46101056" lon="-0.31101161"><ele>-3.8</ele><time>2022-11-14T16:32:50.0000000+00:00</time></trkpt><trkpt lat="39.46101056" lon="-0.31101161"><ele>-3.8</ele><time>2022-11-14T16:32:51.0000000+00:00</time></trkpt><trkpt lat="39.46100939" lon="-0.3110127"><ele>-3.6</ele><time>2022-11-14T16:32:52.0000000+00:00</time></trkpt><trkpt lat="39.46100478" lon="-0.31102083"><ele>-3.6</ele><time>2022-11-14T16:32:53.0000000+00:00</time></trkpt><trkpt lat="39.46099891" lon="-0.31102963"><ele>-3.6</ele><time>2022-11-14T16:32:54.0000000+00:00</time></trkpt><trkpt lat="39.46099548" lon="-0.31103608"><ele>-3.6</ele><time>2022-11-14T16:32:55.0000000+00:00</time></trkpt><trkpt lat="39.46099397" lon="-0.31104279"><ele>-3.6</ele><time>2022-11-14T16:32:56.0000000+00:00</time></trkpt><trkpt lat="39.46099347" lon="-0.31104899"><ele>-3.6</ele><time>2022-11-14T16:32:57.0000000+00:00</time></trkpt><trkpt lat="39.46099321" lon="-0.31105318"><ele>-3.6</ele><time>2022-11-14T16:32:58.0000000+00:00</time></trkpt><trkpt lat="39.46099422" lon="-0.31105855"><ele>-3.8</ele><time>2022-11-14T16:32:59.0000000+00:00</time></trkpt><trkpt lat="39.46099347" lon="-0.31106534"><ele>-3.8</ele><time>2022-11-14T16:33:00.0000000+00:00</time></trkpt><trkpt lat="39.46099179" lon="-0.31107095"><ele>-3.8</ele><time>2022-11-14T16:33:01.0000000+00:00</time></trkpt><trkpt lat="39.46099204" lon="-0.31107556"><ele>-3.8</ele><time>2022-11-14T16:33:02.0000000+00:00</time></trkpt><trkpt lat="39.46098927" lon="-0.3110816"><ele>-3.8</ele><time>2022-11-14T16:33:03.0000000+00:00</time></trkpt><trkpt lat="39.46098232" lon="-0.31108931"><ele>-3.8</ele><time>2022-11-14T16:33:04.0000000+00:00</time></trkpt><trkpt lat="39.46097972" lon="-0.31109601"><ele>-4.0</ele><time>2022-11-14T16:33:05.0000000+00:00</time></trkpt><trkpt lat="39.46097947" lon="-0.31109844"><ele>-4.0</ele><time>2022-11-14T16:33:06.0000000+00:00</time></trkpt><trkpt lat="39.46097947" lon="-0.31109844"><ele>-4.0</ele><time>2022-11-14T16:33:07.0000000+00:00</time></trkpt><trkpt lat="39.46097947" lon="-0.31109844"><ele>-3.8</ele><time>2022-11-14T16:33:08.0000000+00:00</time></trkpt><trkpt lat="39.46097947" lon="-0.31109844"><ele>-3.8</ele><time>2022-11-14T16:33:09.0000000+00:00</time></trkpt><trkpt lat="39.46097947" lon="-0.31109844"><ele>-3.8</ele><time>2022-11-14T16:33:10.0000000+00:00</time></trkpt><trkpt lat="39.46097947" lon="-0.31109844"><ele>-3.8</ele><time>2022-11-14T16:33:11.0000000+00:00</time></trkpt><trkpt lat="39.46097947" lon="-0.31109844"><ele>-3.8</ele><time>2022-11-14T16:33:12.0000000+00:00</time></trkpt><trkpt lat="39.46097947" lon="-0.31109844"><ele>-3.8</ele><time>2022-11-14T16:33:13.0000000+00:00</time></trkpt><trkpt lat="39.46097947" lon="-0.31109844"><ele>-3.8</ele><time>2022-11-14T16:33:14.0000000+00:00</time></trkpt><trkpt lat="39.46097947" lon="-0.31109844"><ele>-3.6</ele><time>2022-11-14T16:33:15.0000000+00:00</time></trkpt><trkpt lat="39.46097947" lon="-0.31109844"><ele>-3.6</ele><time>2022-11-14T16:33:16.0000000+00:00</time></trkpt><trkpt lat="39.46097947" lon="-0.31109844"><ele>-3.6</ele><time>2022-11-14T16:33:17.0000000+00:00</time></trkpt><trkpt lat="39.46097947" lon="-0.31109844"><ele>-3.6</ele><time>2022-11-14T16:33:18.0000000+00:00</time></trkpt><trkpt lat="39.46097947" lon="-0.31109844"><ele>-3.6</ele><time>2022-11-14T16:33:19.0000000+00:00</time></trkpt><trkpt lat="39.46097947" lon="-0.31109844"><ele>-3.6</ele><time>2022-11-14T16:33:20.0000000+00:00</time></trkpt><trkpt lat="39.46097947" lon="-0.31109844"><ele>-3.6</ele><time>2022-11-14T16:33:21.0000000+00:00</time></trkpt><trkpt lat="39.46097947" lon="-0.31109844"><ele>-3.6</ele><time>2022-11-14T16:33:22.0000000+00:00</time></trkpt><trkpt lat="39.46097947" lon="-0.31109844"><ele>-3.6</ele><time>2022-11-14T16:33:23.0000000+00:00</time></trkpt><trkpt lat="39.46097947" lon="-0.31109844"><ele>-3.6</ele><time>2022-11-14T16:33:24.0000000+00:00</time></trkpt><trkpt lat="39.46097947" lon="-0.31109844"><ele>-3.6</ele><time>2022-11-14T16:33:25.0000000+00:00</time></trkpt><trkpt lat="39.46097947" lon="-0.31109844"><ele>-3.6</ele><time>2022-11-14T16:33:26.0000000+00:00</time></trkpt><trkpt lat="39.46097947" lon="-0.31109844"><ele>-3.6</ele><time>2022-11-14T16:33:27.0000000+00:00</time></trkpt><trkpt lat="39.46097947" lon="-0.31109844"><ele>-3.6</ele><time>2022-11-14T16:33:28.0000000+00:00</time></trkpt><trkpt lat="39.46097947" lon="-0.31109844"><ele>-3.8</ele><time>2022-11-14T16:33:29.0000000+00:00</time></trkpt><trkpt lat="39.46097947" lon="-0.31109844"><ele>-3.8</ele><time>2022-11-14T16:33:30.0000000+00:00</time></trkpt><trkpt lat="39.46097947" lon="-0.31109844"><ele>-3.8</ele><time>2022-11-14T16:33:31.0000000+00:00</time></trkpt><trkpt lat="39.46097947" lon="-0.31109844"><ele>-3.8</ele><time>2022-11-14T16:33:32.0000000+00:00</time></trkpt><trkpt lat="39.46097947" lon="-0.31109844"><ele>-3.8</ele><time>2022-11-14T16:33:33.0000000+00:00</time></trkpt><trkpt lat="39.46097947" lon="-0.31109844"><ele>-3.6</ele><time>2022-11-14T16:33:34.0000000+00:00</time></trkpt><trkpt lat="39.46097947" lon="-0.31109844"><ele>-3.6</ele><time>2022-11-14T16:33:35.0000000+00:00</time></trkpt><trkpt lat="39.46097947" lon="-0.31109844"><ele>-3.6</ele><time>2022-11-14T16:33:36.0000000+00:00</time></trkpt><trkpt lat="39.46097855" lon="-0.31110808"><ele>-3.6</ele><time>2022-11-14T16:33:37.0000000+00:00</time></trkpt><trkpt lat="39.46097494" lon="-0.31111546"><ele>-3.6</ele><time>2022-11-14T16:33:38.0000000+00:00</time></trkpt><trkpt lat="39.4609736" lon="-0.31112208"><ele>-3.6</ele><time>2022-11-14T16:33:39.0000000+00:00</time></trkpt><trkpt lat="39.46097184" lon="-0.31113113"><ele>-3.6</ele><time>2022-11-14T16:33:40.0000000+00:00</time></trkpt><trkpt lat="39.46097125" lon="-0.31113507"><ele>-3.6</ele><time>2022-11-14T16:33:41.0000000+00:00</time></trkpt><trkpt lat="39.46097125" lon="-0.31113507"><ele>-3.6</ele><time>2022-11-14T16:33:42.0000000+00:00</time></trkpt><trkpt lat="39.46097125" lon="-0.31113507"><ele>-3.6</ele><time>2022-11-14T16:33:43.0000000+00:00</time></trkpt><trkpt lat="39.46097125" lon="-0.31113507"><ele>-3.6</ele><time>2022-11-14T16:33:44.0000000+00:00</time></trkpt><trkpt lat="39.46097125" lon="-0.31113507"><ele>-3.6</ele><time>2022-11-14T16:33:45.0000000+00:00</time></trkpt><trkpt lat="39.46097125" lon="-0.31113507"><ele>-3.6</ele><time>2022-11-14T16:33:46.0000000+00:00</time></trkpt><trkpt lat="39.46097125" lon="-0.31113507"><ele>-3.6</ele><time>2022-11-14T16:33:47.0000000+00:00</time></trkpt><trkpt lat="39.46097125" lon="-0.31113507"><ele>-3.6</ele><time>2022-11-14T16:33:48.0000000+00:00</time></trkpt><trkpt lat="39.46097125" lon="-0.31113507"><ele>-3.6</ele><time>2022-11-14T16:33:49.0000000+00:00</time></trkpt><trkpt lat="39.46097125" lon="-0.31113507"><ele>-3.6</ele><time>2022-11-14T16:33:50.0000000+00:00</time></trkpt><trkpt lat="39.46097125" lon="-0.31113507"><ele>-3.6</ele><time>2022-11-14T16:33:51.0000000+00:00</time></trkpt><trkpt lat="39.46097125" lon="-0.31113507"><ele>-3.8</ele><time>2022-11-14T16:33:52.0000000+00:00</time></trkpt><trkpt lat="39.46097125" lon="-0.31113507"><ele>-3.8</ele><time>2022-11-14T16:33:53.0000000+00:00</time></trkpt><trkpt lat="39.46097125" lon="-0.31113507"><ele>-3.8</ele><time>2022-11-14T16:33:54.0000000+00:00</time></trkpt><trkpt lat="39.46097125" lon="-0.31113507"><ele>-3.8</ele><time>2022-11-14T16:33:55.0000000+00:00</time></trkpt><trkpt lat="39.46097125" lon="-0.31113507"><ele>-3.8</ele><time>2022-11-14T16:33:56.0000000+00:00</time></trkpt><trkpt lat="39.46097125" lon="-0.31113507"><ele>-3.6</ele><time>2022-11-14T16:33:57.0000000+00:00</time></trkpt><trkpt lat="39.46097008" lon="-0.31113775"><ele>-3.6</ele><time>2022-11-14T16:33:58.0000000+00:00</time></trkpt><trkpt lat="39.46096849" lon="-0.3111406"><ele>-3.6</ele><time>2022-11-14T16:33:59.0000000+00:00</time></trkpt><trkpt lat="39.46096849" lon="-0.3111406"><ele>-3.6</ele><time>2022-11-14T16:34:00.0000000+00:00</time></trkpt><trkpt lat="39.46096581" lon="-0.31114413"><ele>-3.6</ele><time>2022-11-14T16:34:01.0000000+00:00</time></trkpt><trkpt lat="39.46096304" lon="-0.31115251"><ele>-3.6</ele><time>2022-11-14T16:34:02.0000000+00:00</time></trkpt><trkpt lat="39.46096128" lon="-0.31115586"><ele>-3.6</ele><time>2022-11-14T16:34:03.0000000+00:00</time></trkpt><trkpt lat="39.46096128" lon="-0.31115586"><ele>-3.6</ele><time>2022-11-14T16:34:04.0000000+00:00</time></trkpt><trkpt lat="39.46096128" lon="-0.31115586"><ele>-3.8</ele><time>2022-11-14T16:34:05.0000000+00:00</time></trkpt><trkpt lat="39.46096128" lon="-0.31115586"><ele>-3.8</ele><time>2022-11-14T16:34:06.0000000+00:00</time></trkpt><trkpt lat="39.46096128" lon="-0.31115586"><ele>-3.8</ele><time>2022-11-14T16:34:07.0000000+00:00</time></trkpt><trkpt lat="39.46096128" lon="-0.31115586"><ele>-4.0</ele><time>2022-11-14T16:34:08.0000000+00:00</time></trkpt><trkpt lat="39.46096128" lon="-0.31115586"><ele>-4.0</ele><time>2022-11-14T16:34:09.0000000+00:00</time></trkpt><trkpt lat="39.46096128" lon="-0.31115586"><ele>-4.0</ele><time>2022-11-14T16:34:10.0000000+00:00</time></trkpt><trkpt lat="39.46096128" lon="-0.31115586"><ele>-4.0</ele><time>2022-11-14T16:34:11.0000000+00:00</time></trkpt><trkpt lat="39.46096128" lon="-0.31115586"><ele>-4.0</ele><time>2022-11-14T16:34:12.0000000+00:00</time></trkpt><trkpt lat="39.46096128" lon="-0.31115586"><ele>-4.0</ele><time>2022-11-14T16:34:13.0000000+00:00</time></trkpt><trkpt lat="39.46096237" lon="-0.31115477"><ele>-4.0</ele><time>2022-11-14T16:34:14.0000000+00:00</time></trkpt><trkpt lat="39.46096757" lon="-0.31115091"><ele>-4.0</ele><time>2022-11-14T16:34:15.0000000+00:00</time></trkpt><trkpt lat="39.46096983" lon="-0.3111484"><ele>-3.8</ele><time>2022-11-14T16:34:16.0000000+00:00</time></trkpt><trkpt lat="39.46096983" lon="-0.3111484"><ele>-3.6</ele><time>2022-11-14T16:34:17.0000000+00:00</time></trkpt><trkpt lat="39.46096983" lon="-0.3111484"><ele>-3.4</ele><time>2022-11-14T16:34:18.0000000+00:00</time></trkpt><trkpt lat="39.46096983" lon="-0.3111484"><ele>-3.4</ele><time>2022-11-14T16:34:19.0000000+00:00</time></trkpt><trkpt lat="39.46096983" lon="-0.3111484"><ele>-3.4</ele><time>2022-11-14T16:34:20.0000000+00:00</time></trkpt><trkpt lat="39.46096983" lon="-0.3111484"><ele>-3.4</ele><time>2022-11-14T16:34:21.0000000+00:00</time></trkpt><trkpt lat="39.46096983" lon="-0.3111484"><ele>-3.4</ele><time>2022-11-14T16:34:22.0000000+00:00</time></trkpt><trkpt lat="39.46096983" lon="-0.3111484"><ele>-3.6</ele><time>2022-11-14T16:34:23.0000000+00:00</time></trkpt><trkpt lat="39.46096983" lon="-0.3111484"><ele>-3.6</ele><time>2022-11-14T16:34:24.0000000+00:00</time></trkpt><trkpt lat="39.46096983" lon="-0.3111484"><ele>-3.6</ele><time>2022-11-14T16:34:25.0000000+00:00</time></trkpt><trkpt lat="39.46096983" lon="-0.3111484"><ele>-3.6</ele><time>2022-11-14T16:34:26.0000000+00:00</time></trkpt><trkpt lat="39.46096983" lon="-0.3111484"><ele>-3.6</ele><time>2022-11-14T16:34:27.0000000+00:00</time></trkpt><trkpt lat="39.46096983" lon="-0.3111484"><ele>-3.6</ele><time>2022-11-14T16:34:28.0000000+00:00</time></trkpt><trkpt lat="39.46096983" lon="-0.3111484"><ele>-3.6</ele><time>2022-11-14T16:34:29.0000000+00:00</time></trkpt><trkpt lat="39.46096983" lon="-0.3111484"><ele>-3.6</ele><time>2022-11-14T16:34:30.0000000+00:00</time></trkpt><trkpt lat="39.46096983" lon="-0.3111484"><ele>-3.6</ele><time>2022-11-14T16:34:31.0000000+00:00</time></trkpt><trkpt lat="39.46096765" lon="-0.31115192"><ele>-3.6</ele><time>2022-11-14T16:34:32.0000000+00:00</time></trkpt><trkpt lat="39.46096581" lon="-0.31115511"><ele>-3.6</ele><time>2022-11-14T16:34:33.0000000+00:00</time></trkpt><trkpt lat="39.46096581" lon="-0.31115511"><ele>-3.6</ele><time>2022-11-14T16:34:34.0000000+00:00</time></trkpt><trkpt lat="39.46096581" lon="-0.31115511"><ele>-3.6</ele><time>2022-11-14T16:34:35.0000000+00:00</time></trkpt><trkpt lat="39.46096581" lon="-0.31115511"><ele>-3.6</ele><time>2022-11-14T16:34:36.0000000+00:00</time></trkpt><trkpt lat="39.46096581" lon="-0.31115511"><ele>-3.6</ele><time>2022-11-14T16:34:37.0000000+00:00</time></trkpt><trkpt lat="39.46096581" lon="-0.31115511"><ele>-3.6</ele><time>2022-11-14T16:34:38.0000000+00:00</time></trkpt><trkpt lat="39.46096581" lon="-0.31115511"><ele>-3.6</ele><time>2022-11-14T16:34:39.0000000+00:00</time></trkpt><trkpt lat="39.46096581" lon="-0.31115511"><ele>-3.6</ele><time>2022-11-14T16:34:40.0000000+00:00</time></trkpt><trkpt lat="39.46096581" lon="-0.31115511"><ele>-3.6</ele><time>2022-11-14T16:34:41.0000000+00:00</time></trkpt><trkpt lat="39.46096581" lon="-0.31115511"><ele>-3.6</ele><time>2022-11-14T16:34:42.0000000+00:00</time></trkpt><trkpt lat="39.46096581" lon="-0.31115511"><ele>-3.6</ele><time>2022-11-14T16:34:43.0000000+00:00</time></trkpt><trkpt lat="39.46096581" lon="-0.31115511"><ele>-3.6</ele><time>2022-11-14T16:34:44.0000000+00:00</time></trkpt><trkpt lat="39.46096581" lon="-0.31115511"><ele>-3.6</ele><time>2022-11-14T16:34:45.0000000+00:00</time></trkpt><trkpt lat="39.46096581" lon="-0.31115511"><ele>-3.6</ele><time>2022-11-14T16:34:46.0000000+00:00</time></trkpt><trkpt lat="39.46096581" lon="-0.31115511"><ele>-3.6</ele><time>2022-11-14T16:34:47.0000000+00:00</time></trkpt><trkpt lat="39.46096581" lon="-0.31115511"><ele>-3.6</ele><time>2022-11-14T16:34:48.0000000+00:00</time></trkpt><trkpt lat="39.46096581" lon="-0.31115511"><ele>-3.6</ele><time>2022-11-14T16:34:49.0000000+00:00</time></trkpt><trkpt lat="39.46096564" lon="-0.31115368"><ele>-3.6</ele><time>2022-11-14T16:34:50.0000000+00:00</time></trkpt><trkpt lat="39.4609648" lon="-0.3111484"><ele>-3.6</ele><time>2022-11-14T16:34:51.0000000+00:00</time></trkpt><trkpt lat="39.46096296" lon="-0.31114589"><ele>-3.6</ele><time>2022-11-14T16:34:52.0000000+00:00</time></trkpt><trkpt lat="39.46095994" lon="-0.31115259"><ele>-3.6</ele><time>2022-11-14T16:34:53.0000000+00:00</time></trkpt><trkpt lat="39.46096078" lon="-0.3111567"><ele>-3.6</ele><time>2022-11-14T16:34:54.0000000+00:00</time></trkpt><trkpt lat="39.46096078" lon="-0.3111567"><ele>-3.6</ele><time>2022-11-14T16:34:55.0000000+00:00</time></trkpt><trkpt lat="39.46096078" lon="-0.3111567"><ele>-3.6</ele><time>2022-11-14T16:34:56.0000000+00:00</time></trkpt><trkpt lat="39.46096078" lon="-0.3111567"><ele>-3.6</ele><time>2022-11-14T16:34:57.0000000+00:00</time></trkpt><trkpt lat="39.46096472" lon="-0.31115519"><ele>-3.6</ele><time>2022-11-14T16:34:58.0000000+00:00</time></trkpt><trkpt lat="39.46096522" lon="-0.31115159"><ele>-3.6</ele><time>2022-11-14T16:34:59.0000000+00:00</time></trkpt><trkpt lat="39.46096522" lon="-0.31115159"><ele>-3.6</ele><time>2022-11-14T16:35:00.0000000+00:00</time></trkpt><trkpt lat="39.46096597" lon="-0.31114706"><ele>-3.6</ele><time>2022-11-14T16:35:01.0000000+00:00</time></trkpt><trkpt lat="39.46096664" lon="-0.31113759"><ele>-3.6</ele><time>2022-11-14T16:35:02.0000000+00:00</time></trkpt><trkpt lat="39.46096606" lon="-0.31112594"><ele>-3.6</ele><time>2022-11-14T16:35:03.0000000+00:00</time></trkpt><trkpt lat="39.46096723" lon="-0.31111227"><ele>-3.6</ele><time>2022-11-14T16:35:04.0000000+00:00</time></trkpt><trkpt lat="39.46096765" lon="-0.31110121"><ele>-3.6</ele><time>2022-11-14T16:35:05.0000000+00:00</time></trkpt><trkpt lat="39.46096689" lon="-0.31108914"><ele>-3.6</ele><time>2022-11-14T16:35:06.0000000+00:00</time></trkpt><trkpt lat="39.46096631" lon="-0.31107514"><ele>-3.6</ele><time>2022-11-14T16:35:07.0000000+00:00</time></trkpt><trkpt lat="39.46096513" lon="-0.31105754"><ele>-3.6</ele><time>2022-11-14T16:35:08.0000000+00:00</time></trkpt><trkpt lat="39.46096296" lon="-0.31104572"><ele>-3.6</ele><time>2022-11-14T16:35:09.0000000+00:00</time></trkpt><trkpt lat="39.46096178" lon="-0.31103281"><ele>-3.6</ele><time>2022-11-14T16:35:10.0000000+00:00</time></trkpt><trkpt lat="39.46096228" lon="-0.31101991"><ele>-3.6</ele><time>2022-11-14T16:35:11.0000000+00:00</time></trkpt><trkpt lat="39.46095977" lon="-0.31100909"><ele>-3.6</ele><time>2022-11-14T16:35:12.0000000+00:00</time></trkpt><trkpt lat="39.46095457" lon="-0.31099459"><ele>-3.6</ele><time>2022-11-14T16:35:13.0000000+00:00</time></trkpt><trkpt lat="39.46094938" lon="-0.31098168"><ele>-3.6</ele><time>2022-11-14T16:35:14.0000000+00:00</time></trkpt><trkpt lat="39.46094552" lon="-0.31097339"><ele>-3.6</ele><time>2022-11-14T16:35:15.0000000+00:00</time></trkpt><trkpt lat="39.4609394" lon="-0.31097322"><ele>-3.6</ele><time>2022-11-14T16:35:16.0000000+00:00</time></trkpt><trkpt lat="39.46093437" lon="-0.31097121"><ele>-3.8</ele><time>2022-11-14T16:35:17.0000000+00:00</time></trkpt><trkpt lat="39.46092515" lon="-0.31097238"><ele>-3.8</ele><time>2022-11-14T16:35:18.0000000+00:00</time></trkpt><trkpt lat="39.46092255" lon="-0.31097339"><ele>-3.8</ele><time>2022-11-14T16:35:19.0000000+00:00</time></trkpt><trkpt lat="39.46092255" lon="-0.31097339"><ele>-3.8</ele><time>2022-11-14T16:35:20.0000000+00:00</time></trkpt><trkpt lat="39.46092255" lon="-0.31097339"><ele>-3.8</ele><time>2022-11-14T16:35:21.0000000+00:00</time></trkpt><trkpt lat="39.46092255" lon="-0.31097339"><ele>-3.6</ele><time>2022-11-14T16:35:22.0000000+00:00</time></trkpt><trkpt lat="39.46092255" lon="-0.31097339"><ele>-3.6</ele><time>2022-11-14T16:35:23.0000000+00:00</time></trkpt><trkpt lat="39.46092255" lon="-0.31097339"><ele>-3.6</ele><time>2022-11-14T16:35:24.0000000+00:00</time></trkpt><trkpt lat="39.46092255" lon="-0.31097339"><ele>-3.4</ele><time>2022-11-14T16:35:25.0000000+00:00</time></trkpt><trkpt lat="39.46092255" lon="-0.31097339"><ele>-3.4</ele><time>2022-11-14T16:35:26.0000000+00:00</time></trkpt><trkpt lat="39.46092255" lon="-0.31097339"><ele>-3.4</ele><time>2022-11-14T16:35:27.0000000+00:00</time></trkpt><trkpt lat="39.46092255" lon="-0.31097339"><ele>-3.4</ele><time>2022-11-14T16:35:28.0000000+00:00</time></trkpt><trkpt lat="39.46092255" lon="-0.31097339"><ele>-3.4</ele><time>2022-11-14T16:35:29.0000000+00:00</time></trkpt><trkpt lat="39.46092255" lon="-0.31097339"><ele>-3.4</ele><time>2022-11-14T16:35:30.0000000+00:00</time></trkpt><trkpt lat="39.46092255" lon="-0.31097339"><ele>-3.4</ele><time>2022-11-14T16:35:31.0000000+00:00</time></trkpt><trkpt lat="39.46092255" lon="-0.31097339"><ele>-3.4</ele><time>2022-11-14T16:35:32.0000000+00:00</time></trkpt><trkpt lat="39.46092255" lon="-0.31097339"><ele>-3.4</ele><time>2022-11-14T16:35:33.0000000+00:00</time></trkpt><trkpt lat="39.46092255" lon="-0.31097339"><ele>-3.4</ele><time>2022-11-14T16:35:34.0000000+00:00</time></trkpt><trkpt lat="39.46092255" lon="-0.31097339"><ele>-3.4</ele><time>2022-11-14T16:35:35.0000000+00:00</time></trkpt><trkpt lat="39.46092255" lon="-0.31097339"><ele>-3.4</ele><time>2022-11-14T16:35:36.0000000+00:00</time></trkpt><trkpt lat="39.46092088" lon="-0.3109764"><ele>-3.4</ele><time>2022-11-14T16:35:37.0000000+00:00</time></trkpt><trkpt lat="39.46091954" lon="-0.31097925"><ele>-3.4</ele><time>2022-11-14T16:35:38.0000000+00:00</time></trkpt><trkpt lat="39.46091954" lon="-0.31097925"><ele>-3.4</ele><time>2022-11-14T16:35:39.0000000+00:00</time></trkpt><trkpt lat="39.46091954" lon="-0.31097925"><ele>-3.4</ele><time>2022-11-14T16:35:40.0000000+00:00</time></trkpt><trkpt lat="39.46091954" lon="-0.31097925"><ele>-3.4</ele><time>2022-11-14T16:35:41.0000000+00:00</time></trkpt><trkpt lat="39.46091954" lon="-0.31097925"><ele>-3.4</ele><time>2022-11-14T16:35:42.0000000+00:00</time></trkpt><trkpt lat="39.46091954" lon="-0.31097925"><ele>-3.4</ele><time>2022-11-14T16:35:43.0000000+00:00</time></trkpt><trkpt lat="39.46091954" lon="-0.31097925"><ele>-3.4</ele><time>2022-11-14T16:35:44.0000000+00:00</time></trkpt><trkpt lat="39.46091954" lon="-0.31097925"><ele>-3.4</ele><time>2022-11-14T16:35:45.0000000+00:00</time></trkpt><trkpt lat="39.46091954" lon="-0.31097925"><ele>-3.4</ele><time>2022-11-14T16:35:46.0000000+00:00</time></trkpt><trkpt lat="39.46091954" lon="-0.31097925"><ele>-3.4</ele><time>2022-11-14T16:35:47.0000000+00:00</time></trkpt><trkpt lat="39.46091954" lon="-0.31097925"><ele>-3.4</ele><time>2022-11-14T16:35:48.0000000+00:00</time></trkpt><trkpt lat="39.46091954" lon="-0.31097925"><ele>-3.4</ele><time>2022-11-14T16:35:49.0000000+00:00</time></trkpt><trkpt lat="39.46091954" lon="-0.31097925"><ele>-3.4</ele><time>2022-11-14T16:35:50.0000000+00:00</time></trkpt><trkpt lat="39.46091954" lon="-0.31097925"><ele>-3.6</ele><time>2022-11-14T16:35:51.0000000+00:00</time></trkpt><trkpt lat="39.46091954" lon="-0.31097925"><ele>-3.6</ele><time>2022-11-14T16:35:52.0000000+00:00</time></trkpt><trkpt lat="39.46091954" lon="-0.31097925"><ele>-3.6</ele><time>2022-11-14T16:35:53.0000000+00:00</time></trkpt><trkpt lat="39.46091954" lon="-0.31097925"><ele>-3.6</ele><time>2022-11-14T16:35:54.0000000+00:00</time></trkpt><trkpt lat="39.46091954" lon="-0.31097925"><ele>-3.6</ele><time>2022-11-14T16:35:55.0000000+00:00</time></trkpt><trkpt lat="39.46091954" lon="-0.31097925"><ele>-3.6</ele><time>2022-11-14T16:35:56.0000000+00:00</time></trkpt><trkpt lat="39.46091954" lon="-0.31097925"><ele>-3.6</ele><time>2022-11-14T16:35:57.0000000+00:00</time></trkpt><trkpt lat="39.46091954" lon="-0.31097925"><ele>-3.6</ele><time>2022-11-14T16:35:58.0000000+00:00</time></trkpt><trkpt lat="39.46091954" lon="-0.31097925"><ele>-3.6</ele><time>2022-11-14T16:35:59.0000000+00:00</time></trkpt><trkpt lat="39.46091954" lon="-0.31097925"><ele>-3.6</ele><time>2022-11-14T16:36:00.0000000+00:00</time></trkpt><trkpt lat="39.46091954" lon="-0.31097925"><ele>-3.6</ele><time>2022-11-14T16:36:01.0000000+00:00</time></trkpt><trkpt lat="39.46091954" lon="-0.31097925"><ele>-3.6</ele><time>2022-11-14T16:36:02.0000000+00:00</time></trkpt><trkpt lat="39.46091954" lon="-0.31097925"><ele>-3.6</ele><time>2022-11-14T16:36:03.0000000+00:00</time></trkpt><trkpt lat="39.46091954" lon="-0.31097925"><ele>-3.6</ele><time>2022-11-14T16:36:04.0000000+00:00</time></trkpt><trkpt lat="39.46091954" lon="-0.31097925"><ele>-3.6</ele><time>2022-11-14T16:36:05.0000000+00:00</time></trkpt><trkpt lat="39.46091954" lon="-0.31097925"><ele>-3.6</ele><time>2022-11-14T16:36:06.0000000+00:00</time></trkpt><trkpt lat="39.46091954" lon="-0.31097925"><ele>-3.8</ele><time>2022-11-14T16:36:07.0000000+00:00</time></trkpt><trkpt lat="39.46091954" lon="-0.31097925"><ele>-3.8</ele><time>2022-11-14T16:36:08.0000000+00:00</time></trkpt><trkpt lat="39.46091954" lon="-0.31097925"><ele>-3.8</ele><time>2022-11-14T16:36:09.0000000+00:00</time></trkpt><trkpt lat="39.46091954" lon="-0.31097925"><ele>-3.8</ele><time>2022-11-14T16:36:10.0000000+00:00</time></trkpt><trkpt lat="39.46091954" lon="-0.31097925"><ele>-3.8</ele><time>2022-11-14T16:36:11.0000000+00:00</time></trkpt><trkpt lat="39.46091954" lon="-0.31097925"><ele>-3.8</ele><time>2022-11-14T16:36:12.0000000+00:00</time></trkpt><trkpt lat="39.46091954" lon="-0.31097925"><ele>-3.8</ele><time>2022-11-14T16:36:13.0000000+00:00</time></trkpt><trkpt lat="39.46091954" lon="-0.31097925"><ele>-3.8</ele><time>2022-11-14T16:36:14.0000000+00:00</time></trkpt><trkpt lat="39.46091954" lon="-0.31097925"><ele>-3.8</ele><time>2022-11-14T16:36:15.0000000+00:00</time></trkpt><trkpt lat="39.46091954" lon="-0.31097925"><ele>-3.8</ele><time>2022-11-14T16:36:16.0000000+00:00</time></trkpt><trkpt lat="39.46091954" lon="-0.31097925"><ele>-3.6</ele><time>2022-11-14T16:36:17.0000000+00:00</time></trkpt><trkpt lat="39.46091954" lon="-0.31097925"><ele>-3.6</ele><time>2022-11-14T16:36:18.0000000+00:00</time></trkpt><trkpt lat="39.46091954" lon="-0.31097925"><ele>-3.8</ele><time>2022-11-14T16:36:19.0000000+00:00</time></trkpt><trkpt lat="39.46091954" lon="-0.31097925"><ele>-3.8</ele><time>2022-11-14T16:36:20.0000000+00:00</time></trkpt><trkpt lat="39.46091954" lon="-0.31097925"><ele>-3.8</ele><time>2022-11-14T16:36:21.0000000+00:00</time></trkpt><trkpt lat="39.46091954" lon="-0.31097925"><ele>-3.8</ele><time>2022-11-14T16:36:22.0000000+00:00</time></trkpt><trkpt lat="39.46091954" lon="-0.31097925"><ele>-3.8</ele><time>2022-11-14T16:36:23.0000000+00:00</time></trkpt><trkpt lat="39.46091954" lon="-0.31097925"><ele>-3.8</ele><time>2022-11-14T16:36:24.0000000+00:00</time></trkpt><trkpt lat="39.46091954" lon="-0.31097925"><ele>-3.8</ele><time>2022-11-14T16:36:25.0000000+00:00</time></trkpt><trkpt lat="39.46091954" lon="-0.31097925"><ele>-3.8</ele><time>2022-11-14T16:36:26.0000000+00:00</time></trkpt><trkpt lat="39.46091954" lon="-0.31097925"><ele>-3.8</ele><time>2022-11-14T16:36:27.0000000+00:00</time></trkpt><trkpt lat="39.46091954" lon="-0.31097925"><ele>-3.8</ele><time>2022-11-14T16:36:28.0000000+00:00</time></trkpt><trkpt lat="39.46091954" lon="-0.31097925"><ele>-3.8</ele><time>2022-11-14T16:36:29.0000000+00:00</time></trkpt><trkpt lat="39.46091954" lon="-0.31097925"><ele>-3.8</ele><time>2022-11-14T16:36:30.0000000+00:00</time></trkpt><trkpt lat="39.46091954" lon="-0.31097925"><ele>-3.8</ele><time>2022-11-14T16:36:31.0000000+00:00</time></trkpt><trkpt lat="39.46091954" lon="-0.31097925"><ele>-3.8</ele><time>2022-11-14T16:36:32.0000000+00:00</time></trkpt><trkpt lat="39.46091954" lon="-0.31097925"><ele>-3.8</ele><time>2022-11-14T16:36:33.0000000+00:00</time></trkpt><trkpt lat="39.46091954" lon="-0.31097925"><ele>-3.8</ele><time>2022-11-14T16:36:34.0000000+00:00</time></trkpt><trkpt lat="39.46091954" lon="-0.31097925"><ele>-3.8</ele><time>2022-11-14T16:36:35.0000000+00:00</time></trkpt><trkpt lat="39.46091954" lon="-0.31097925"><ele>-3.8</ele><time>2022-11-14T16:36:36.0000000+00:00</time></trkpt><trkpt lat="39.46091954" lon="-0.31097925"><ele>-3.8</ele><time>2022-11-14T16:36:37.0000000+00:00</time></trkpt><trkpt lat="39.46091954" lon="-0.31097925"><ele>-3.8</ele><time>2022-11-14T16:36:38.0000000+00:00</time></trkpt><trkpt lat="39.46091954" lon="-0.31097925"><ele>-3.8</ele><time>2022-11-14T16:36:39.0000000+00:00</time></trkpt><trkpt lat="39.46091702" lon="-0.31097934"><ele>-3.8</ele><time>2022-11-14T16:36:40.0000000+00:00</time></trkpt><trkpt lat="39.46091518" lon="-0.31098143"><ele>-3.8</ele><time>2022-11-14T16:36:41.0000000+00:00</time></trkpt><trkpt lat="39.46091409" lon="-0.31098445"><ele>-3.8</ele><time>2022-11-14T16:36:42.0000000+00:00</time></trkpt><trkpt lat="39.46091392" lon="-0.31098772"><ele>-3.8</ele><time>2022-11-14T16:36:43.0000000+00:00</time></trkpt><trkpt lat="39.46091392" lon="-0.31098772"><ele>-3.8</ele><time>2022-11-14T16:36:44.0000000+00:00</time></trkpt><trkpt lat="39.46091392" lon="-0.31098772"><ele>-3.8</ele><time>2022-11-14T16:36:45.0000000+00:00</time></trkpt><trkpt lat="39.46091392" lon="-0.31098772"><ele>-3.8</ele><time>2022-11-14T16:36:46.0000000+00:00</time></trkpt><trkpt lat="39.46091392" lon="-0.31098772"><ele>-3.8</ele><time>2022-11-14T16:36:47.0000000+00:00</time></trkpt><trkpt lat="39.46091392" lon="-0.31098772"><ele>-3.8</ele><time>2022-11-14T16:36:48.0000000+00:00</time></trkpt><trkpt lat="39.46091392" lon="-0.31098772"><ele>-3.8</ele><time>2022-11-14T16:36:49.0000000+00:00</time></trkpt><trkpt lat="39.46091392" lon="-0.31098772"><ele>-3.8</ele><time>2022-11-14T16:36:50.0000000+00:00</time></trkpt><trkpt lat="39.46091476" lon="-0.31098889"><ele>-3.8</ele><time>2022-11-14T16:36:51.0000000+00:00</time></trkpt><trkpt lat="39.46091392" lon="-0.31099266"><ele>-3.8</ele><time>2022-11-14T16:36:52.0000000+00:00</time></trkpt><trkpt lat="39.46091325" lon="-0.31099325"><ele>-3.8</ele><time>2022-11-14T16:36:53.0000000+00:00</time></trkpt><trkpt lat="39.46091007" lon="-0.31100054"><ele>-3.8</ele><time>2022-11-14T16:36:54.0000000+00:00</time></trkpt><trkpt lat="39.46090738" lon="-0.31101144"><ele>-3.8</ele><time>2022-11-14T16:36:55.0000000+00:00</time></trkpt><trkpt lat="39.46090671" lon="-0.31102125"><ele>-3.8</ele><time>2022-11-14T16:36:56.0000000+00:00</time></trkpt><trkpt lat="39.46090336" lon="-0.31103214"><ele>-3.8</ele><time>2022-11-14T16:36:57.0000000+00:00</time></trkpt><trkpt lat="39.46089984" lon="-0.3110443"><ele>-3.8</ele><time>2022-11-14T16:36:58.0000000+00:00</time></trkpt><trkpt lat="39.460898" lon="-0.31105762"><ele>-3.8</ele><time>2022-11-14T16:36:59.0000000+00:00</time></trkpt><trkpt lat="39.46089414" lon="-0.31107179"><ele>-3.8</ele><time>2022-11-14T16:37:00.0000000+00:00</time></trkpt><trkpt lat="39.46089272" lon="-0.3110857"><ele>-3.8</ele><time>2022-11-14T16:37:01.0000000+00:00</time></trkpt><trkpt lat="39.46089263" lon="-0.31109861"><ele>-3.8</ele><time>2022-11-14T16:37:02.0000000+00:00</time></trkpt><trkpt lat="39.46089489" lon="-0.31110565"><ele>-3.8</ele><time>2022-11-14T16:37:03.0000000+00:00</time></trkpt><trkpt lat="39.46089925" lon="-0.31111219"><ele>-3.8</ele><time>2022-11-14T16:37:04.0000000+00:00</time></trkpt><trkpt lat="39.46090194" lon="-0.31112208"><ele>-3.8</ele><time>2022-11-14T16:37:05.0000000+00:00</time></trkpt><trkpt lat="39.46090227" lon="-0.3111287"><ele>-3.6</ele><time>2022-11-14T16:37:06.0000000+00:00</time></trkpt><trkpt lat="39.46090227" lon="-0.3111287"><ele>-3.6</ele><time>2022-11-14T16:37:07.0000000+00:00</time></trkpt><trkpt lat="39.46090227" lon="-0.3111287"><ele>-3.6</ele><time>2022-11-14T16:37:08.0000000+00:00</time></trkpt><trkpt lat="39.46090009" lon="-0.31112686"><ele>-3.6</ele><time>2022-11-14T16:37:09.0000000+00:00</time></trkpt><trkpt lat="39.46090118" lon="-0.31111839"><ele>-3.6</ele><time>2022-11-14T16:37:10.0000000+00:00</time></trkpt><trkpt lat="39.46090051" lon="-0.31110766"><ele>-3.6</ele><time>2022-11-14T16:37:11.0000000+00:00</time></trkpt><trkpt lat="39.4608964" lon="-0.31109911"><ele>-3.6</ele><time>2022-11-14T16:37:12.0000000+00:00</time></trkpt><trkpt lat="39.46089523" lon="-0.31109559"><ele>-3.6</ele><time>2022-11-14T16:37:13.0000000+00:00</time></trkpt><trkpt lat="39.46089523" lon="-0.31109559"><ele>-3.6</ele><time>2022-11-14T16:37:14.0000000+00:00</time></trkpt><trkpt lat="39.46089523" lon="-0.31109559"><ele>-3.6</ele><time>2022-11-14T16:37:15.0000000+00:00</time></trkpt><trkpt lat="39.46089523" lon="-0.31109559"><ele>-3.6</ele><time>2022-11-14T16:37:16.0000000+00:00</time></trkpt><trkpt lat="39.4608964" lon="-0.31109668"><ele>-3.8</ele><time>2022-11-14T16:37:17.0000000+00:00</time></trkpt><trkpt lat="39.46090051" lon="-0.31110289"><ele>-3.8</ele><time>2022-11-14T16:37:18.0000000+00:00</time></trkpt><trkpt lat="39.46090252" lon="-0.31110473"><ele>-3.6</ele><time>2022-11-14T16:37:19.0000000+00:00</time></trkpt><trkpt lat="39.46090252" lon="-0.31110473"><ele>-3.6</ele><time>2022-11-14T16:37:20.0000000+00:00</time></trkpt><trkpt lat="39.46090445" lon="-0.31110565"><ele>-3.6</ele><time>2022-11-14T16:37:21.0000000+00:00</time></trkpt><trkpt lat="39.46090763" lon="-0.31110984"><ele>-3.6</ele><time>2022-11-14T16:37:22.0000000+00:00</time></trkpt><trkpt lat="39.46091174" lon="-0.31111328"><ele>-3.6</ele><time>2022-11-14T16:37:23.0000000+00:00</time></trkpt><trkpt lat="39.46091468" lon="-0.31111546"><ele>-3.8</ele><time>2022-11-14T16:37:24.0000000+00:00</time></trkpt><trkpt lat="39.46091753" lon="-0.31111747"><ele>-3.8</ele><time>2022-11-14T16:37:25.0000000+00:00</time></trkpt><trkpt lat="39.46092431" lon="-0.31112074"><ele>-3.8</ele><time>2022-11-14T16:37:26.0000000+00:00</time></trkpt><trkpt lat="39.4609306" lon="-0.31112585"><ele>-4.0</ele><time>2022-11-14T16:37:27.0000000+00:00</time></trkpt><trkpt lat="39.46093655" lon="-0.31113038"><ele>-4.0</ele><time>2022-11-14T16:37:28.0000000+00:00</time></trkpt><trkpt lat="39.46094276" lon="-0.31113641"><ele>-4.0</ele><time>2022-11-14T16:37:29.0000000+00:00</time></trkpt><trkpt lat="39.46094854" lon="-0.31114178"><ele>-4.0</ele><time>2022-11-14T16:37:30.0000000+00:00</time></trkpt><trkpt lat="39.46095675" lon="-0.31114647"><ele>-3.4</ele><time>2022-11-14T16:37:31.0000000+00:00</time></trkpt><trkpt lat="39.46096296" lon="-0.31115226"><ele>-3.4</ele><time>2022-11-14T16:37:32.0000000+00:00</time></trkpt><trkpt lat="39.46096941" lon="-0.3111593"><ele>-3.4</ele><time>2022-11-14T16:37:33.0000000+00:00</time></trkpt><trkpt lat="39.46097553" lon="-0.3111634"><ele>-3.4</ele><time>2022-11-14T16:37:34.0000000+00:00</time></trkpt><trkpt lat="39.46098181" lon="-0.31116919"><ele>-3.6</ele><time>2022-11-14T16:37:35.0000000+00:00</time></trkpt><trkpt lat="39.46098844" lon="-0.3111748"><ele>-3.6</ele><time>2022-11-14T16:37:36.0000000+00:00</time></trkpt><trkpt lat="39.46099271" lon="-0.31117899"><ele>-3.6</ele><time>2022-11-14T16:37:37.0000000+00:00</time></trkpt><trkpt lat="39.4609964" lon="-0.31118193"><ele>-3.8</ele><time>2022-11-14T16:37:38.0000000+00:00</time></trkpt><trkpt lat="39.4609995" lon="-0.31118562"><ele>-3.8</ele><time>2022-11-14T16:37:39.0000000+00:00</time></trkpt><trkpt lat="39.46100193" lon="-0.31119014"><ele>-3.8</ele><time>2022-11-14T16:37:40.0000000+00:00</time></trkpt><trkpt lat="39.46100696" lon="-0.31119425"><ele>-3.8</ele><time>2022-11-14T16:37:41.0000000+00:00</time></trkpt><trkpt lat="39.46101249" lon="-0.31119794"><ele>-3.8</ele><time>2022-11-14T16:37:42.0000000+00:00</time></trkpt><trkpt lat="39.46101585" lon="-0.31120691"><ele>-3.8</ele><time>2022-11-14T16:37:43.0000000+00:00</time></trkpt><trkpt lat="39.46101752" lon="-0.31120984"><ele>-3.8</ele><time>2022-11-14T16:37:44.0000000+00:00</time></trkpt><trkpt lat="39.46101886" lon="-0.31121017"><ele>-3.8</ele><time>2022-11-14T16:37:45.0000000+00:00</time></trkpt><trkpt lat="39.46102297" lon="-0.31121017"><ele>-3.8</ele><time>2022-11-14T16:37:46.0000000+00:00</time></trkpt><trkpt lat="39.46102766" lon="-0.31120942"><ele>-3.6</ele><time>2022-11-14T16:37:47.0000000+00:00</time></trkpt><trkpt lat="39.46103177" lon="-0.31120741"><ele>-3.6</ele><time>2022-11-14T16:37:48.0000000+00:00</time></trkpt><trkpt lat="39.46103328" lon="-0.31120632"><ele>-3.6</ele><time>2022-11-14T16:37:49.0000000+00:00</time></trkpt><trkpt lat="39.46103546" lon="-0.31120012"><ele>-3.6</ele><time>2022-11-14T16:37:50.0000000+00:00</time></trkpt><trkpt lat="39.46103739" lon="-0.31119274"><ele>-3.6</ele><time>2022-11-14T16:37:51.0000000+00:00</time></trkpt><trkpt lat="39.46103579" lon="-0.31118327"><ele>-3.6</ele><time>2022-11-14T16:37:52.0000000+00:00</time></trkpt><trkpt lat="39.46103403" lon="-0.31117254"><ele>-3.6</ele><time>2022-11-14T16:37:53.0000000+00:00</time></trkpt><trkpt lat="39.46102884" lon="-0.31116684"><ele>-3.6</ele><time>2022-11-14T16:37:54.0000000+00:00</time></trkpt><trkpt lat="39.46102649" lon="-0.31116759"><ele>-3.6</ele><time>2022-11-14T16:37:55.0000000+00:00</time></trkpt><trkpt lat="39.46102481" lon="-0.31117246"><ele>-3.6</ele><time>2022-11-14T16:37:56.0000000+00:00</time></trkpt><trkpt lat="39.46102481" lon="-0.31117673"><ele>-3.6</ele><time>2022-11-14T16:37:57.0000000+00:00</time></trkpt><trkpt lat="39.46102213" lon="-0.31118495"><ele>-3.6</ele><time>2022-11-14T16:37:58.0000000+00:00</time></trkpt><trkpt lat="39.46101995" lon="-0.31119081"><ele>-3.4</ele><time>2022-11-14T16:37:59.0000000+00:00</time></trkpt><trkpt lat="39.46101828" lon="-0.31119282"><ele>-3.4</ele><time>2022-11-14T16:38:00.0000000+00:00</time></trkpt><trkpt lat="39.46101534" lon="-0.31119417"><ele>-3.4</ele><time>2022-11-14T16:38:01.0000000+00:00</time></trkpt><trkpt lat="39.46100679" lon="-0.31118771"><ele>-3.4</ele><time>2022-11-14T16:38:02.0000000+00:00</time></trkpt><trkpt lat="39.46100227" lon="-0.31117816"><ele>-3.4</ele><time>2022-11-14T16:38:03.0000000+00:00</time></trkpt><trkpt lat="39.46100218" lon="-0.31116684"><ele>-3.4</ele><time>2022-11-14T16:38:04.0000000+00:00</time></trkpt><trkpt lat="39.46100428" lon="-0.3111598"><ele>-3.4</ele><time>2022-11-14T16:38:05.0000000+00:00</time></trkpt><trkpt lat="39.46100554" lon="-0.31115594"><ele>-3.6</ele><time>2022-11-14T16:38:06.0000000+00:00</time></trkpt><trkpt lat="39.46100554" lon="-0.31115594"><ele>-3.6</ele><time>2022-11-14T16:38:07.0000000+00:00</time></trkpt><trkpt lat="39.46100554" lon="-0.31115594"><ele>-3.6</ele><time>2022-11-14T16:38:08.0000000+00:00</time></trkpt><trkpt lat="39.46100738" lon="-0.31115443"><ele>-3.6</ele><time>2022-11-14T16:38:09.0000000+00:00</time></trkpt><trkpt lat="39.46100964" lon="-0.31114714"><ele>-3.6</ele><time>2022-11-14T16:38:10.0000000+00:00</time></trkpt><trkpt lat="39.46101216" lon="-0.31113817"><ele>-3.6</ele><time>2022-11-14T16:38:11.0000000+00:00</time></trkpt><trkpt lat="39.46101249" lon="-0.3111313"><ele>-3.6</ele><time>2022-11-14T16:38:12.0000000+00:00</time></trkpt><trkpt lat="39.4610109" lon="-0.3111225"><ele>-3.6</ele><time>2022-11-14T16:38:13.0000000+00:00</time></trkpt><trkpt lat="39.46101015" lon="-0.31111764"><ele>-3.6</ele><time>2022-11-14T16:38:14.0000000+00:00</time></trkpt><trkpt lat="39.46101023" lon="-0.31111563"><ele>-3.6</ele><time>2022-11-14T16:38:15.0000000+00:00</time></trkpt><trkpt lat="39.46100788" lon="-0.31110901"><ele>-3.6</ele><time>2022-11-14T16:38:16.0000000+00:00</time></trkpt><trkpt lat="39.46100428" lon="-0.31110054"><ele>-3.6</ele><time>2022-11-14T16:38:17.0000000+00:00</time></trkpt><trkpt lat="39.4609995" lon="-0.31109124"><ele>-3.6</ele><time>2022-11-14T16:38:18.0000000+00:00</time></trkpt><trkpt lat="39.46099506" lon="-0.31108101"><ele>-3.6</ele><time>2022-11-14T16:38:19.0000000+00:00</time></trkpt><trkpt lat="39.46099271" lon="-0.31107154"><ele>-3.6</ele><time>2022-11-14T16:38:20.0000000+00:00</time></trkpt><trkpt lat="39.46099112" lon="-0.31106668"><ele>-3.6</ele><time>2022-11-14T16:38:21.0000000+00:00</time></trkpt><trkpt lat="39.46098995" lon="-0.31106374"><ele>-3.6</ele><time>2022-11-14T16:38:22.0000000+00:00</time></trkpt><trkpt lat="39.46098634" lon="-0.31105813"><ele>-3.6</ele><time>2022-11-14T16:38:23.0000000+00:00</time></trkpt><trkpt lat="39.46098492" lon="-0.31105553"><ele>-3.6</ele><time>2022-11-14T16:38:24.0000000+00:00</time></trkpt><trkpt lat="39.46098475" lon="-0.31105285"><ele>-3.6</ele><time>2022-11-14T16:38:25.0000000+00:00</time></trkpt><trkpt lat="39.4609829" lon="-0.3110469"><ele>-3.6</ele><time>2022-11-14T16:38:26.0000000+00:00</time></trkpt><trkpt lat="39.4609798" lon="-0.3110391"><ele>-3.6</ele><time>2022-11-14T16:38:27.0000000+00:00</time></trkpt><trkpt lat="39.46097435" lon="-0.31103348"><ele>-3.6</ele><time>2022-11-14T16:38:28.0000000+00:00</time></trkpt><trkpt lat="39.46096396" lon="-0.31102737"><ele>-3.6</ele><time>2022-11-14T16:38:29.0000000+00:00</time></trkpt><trkpt lat="39.46095684" lon="-0.31102225"><ele>-3.6</ele><time>2022-11-14T16:38:30.0000000+00:00</time></trkpt><trkpt lat="39.46094837" lon="-0.31101722"><ele>-3.6</ele><time>2022-11-14T16:38:31.0000000+00:00</time></trkpt><trkpt lat="39.46094452" lon="-0.31101747"><ele>-3.6</ele><time>2022-11-14T16:38:32.0000000+00:00</time></trkpt><trkpt lat="39.46094141" lon="-0.3110189"><ele>-3.6</ele><time>2022-11-14T16:38:33.0000000+00:00</time></trkpt><trkpt lat="39.4609384" lon="-0.31102116"><ele>-3.6</ele><time>2022-11-14T16:38:34.0000000+00:00</time></trkpt><trkpt lat="39.4609384" lon="-0.31102116"><ele>-3.6</ele><time>2022-11-14T16:38:35.0000000+00:00</time></trkpt><trkpt lat="39.4609384" lon="-0.31102116"><ele>-3.6</ele><time>2022-11-14T16:38:36.0000000+00:00</time></trkpt><trkpt lat="39.4609384" lon="-0.31102116"><ele>-3.6</ele><time>2022-11-14T16:38:37.0000000+00:00</time></trkpt><trkpt lat="39.4609384" lon="-0.31102116"><ele>-3.6</ele><time>2022-11-14T16:38:38.0000000+00:00</time></trkpt><trkpt lat="39.4609384" lon="-0.31102116"><ele>-3.6</ele><time>2022-11-14T16:38:39.0000000+00:00</time></trkpt><trkpt lat="39.4609384" lon="-0.31102116"><ele>-3.6</ele><time>2022-11-14T16:38:40.0000000+00:00</time></trkpt><trkpt lat="39.4609384" lon="-0.31102116"><ele>-3.6</ele><time>2022-11-14T16:38:41.0000000+00:00</time></trkpt><trkpt lat="39.4609384" lon="-0.31102116"><ele>-3.6</ele><time>2022-11-14T16:38:42.0000000+00:00</time></trkpt><trkpt lat="39.4609384" lon="-0.31102116"><ele>-3.6</ele><time>2022-11-14T16:38:43.0000000+00:00</time></trkpt><trkpt lat="39.4609384" lon="-0.31102116"><ele>-3.6</ele><time>2022-11-14T16:38:44.0000000+00:00</time></trkpt><trkpt lat="39.4609384" lon="-0.31102116"><ele>-3.6</ele><time>2022-11-14T16:38:45.0000000+00:00</time></trkpt><trkpt lat="39.4609384" lon="-0.31102116"><ele>-3.6</ele><time>2022-11-14T16:38:46.0000000+00:00</time></trkpt><trkpt lat="39.4609384" lon="-0.31102116"><ele>-3.6</ele><time>2022-11-14T16:38:47.0000000+00:00</time></trkpt><trkpt lat="39.4609384" lon="-0.31102116"><ele>-3.6</ele><time>2022-11-14T16:38:48.0000000+00:00</time></trkpt><trkpt lat="39.4609384" lon="-0.31102116"><ele>-3.6</ele><time>2022-11-14T16:38:49.0000000+00:00</time></trkpt><trkpt lat="39.4609384" lon="-0.31102116"><ele>-3.6</ele><time>2022-11-14T16:38:50.0000000+00:00</time></trkpt><trkpt lat="39.4609384" lon="-0.31102116"><ele>-3.6</ele><time>2022-11-14T16:38:51.0000000+00:00</time></trkpt><trkpt lat="39.4609384" lon="-0.31102116"><ele>-3.6</ele><time>2022-11-14T16:38:52.0000000+00:00</time></trkpt><trkpt lat="39.4609384" lon="-0.31102116"><ele>-3.6</ele><time>2022-11-14T16:38:53.0000000+00:00</time></trkpt><trkpt lat="39.4609384" lon="-0.31102116"><ele>-3.6</ele><time>2022-11-14T16:38:54.0000000+00:00</time></trkpt><trkpt lat="39.4609384" lon="-0.31102116"><ele>-3.6</ele><time>2022-11-14T16:38:55.0000000+00:00</time></trkpt><trkpt lat="39.4609384" lon="-0.31102116"><ele>-3.6</ele><time>2022-11-14T16:38:56.0000000+00:00</time></trkpt><trkpt lat="39.4609384" lon="-0.31102116"><ele>-3.6</ele><time>2022-11-14T16:38:57.0000000+00:00</time></trkpt><trkpt lat="39.4609384" lon="-0.31102116"><ele>-3.6</ele><time>2022-11-14T16:38:58.0000000+00:00</time></trkpt><trkpt lat="39.4609384" lon="-0.31102116"><ele>-3.6</ele><time>2022-11-14T16:38:59.0000000+00:00</time></trkpt><trkpt lat="39.4609384" lon="-0.31102116"><ele>-3.6</ele><time>2022-11-14T16:39:00.0000000+00:00</time></trkpt><trkpt lat="39.4609384" lon="-0.31102116"><ele>-3.6</ele><time>2022-11-14T16:39:01.0000000+00:00</time></trkpt><trkpt lat="39.4609384" lon="-0.31102116"><ele>-3.6</ele><time>2022-11-14T16:39:02.0000000+00:00</time></trkpt><trkpt lat="39.4609384" lon="-0.31102116"><ele>-3.6</ele><time>2022-11-14T16:39:03.0000000+00:00</time></trkpt><trkpt lat="39.4609384" lon="-0.31102116"><ele>-3.6</ele><time>2022-11-14T16:39:04.0000000+00:00</time></trkpt><trkpt lat="39.4609384" lon="-0.31102116"><ele>-3.6</ele><time>2022-11-14T16:39:05.0000000+00:00</time></trkpt><trkpt lat="39.4609384" lon="-0.31102116"><ele>-3.6</ele><time>2022-11-14T16:39:06.0000000+00:00</time></trkpt><trkpt lat="39.46093865" lon="-0.31102217"><ele>-3.6</ele><time>2022-11-14T16:39:07.0000000+00:00</time></trkpt><trkpt lat="39.46094074" lon="-0.31102326"><ele>-3.6</ele><time>2022-11-14T16:39:08.0000000+00:00</time></trkpt><trkpt lat="39.46094074" lon="-0.31102326"><ele>-3.6</ele><time>2022-11-14T16:39:09.0000000+00:00</time></trkpt><trkpt lat="39.46094074" lon="-0.31102326"><ele>-3.6</ele><time>2022-11-14T16:39:10.0000000+00:00</time></trkpt><trkpt lat="39.46094074" lon="-0.31102326"><ele>-3.6</ele><time>2022-11-14T16:39:11.0000000+00:00</time></trkpt><trkpt lat="39.46094074" lon="-0.31102326"><ele>-3.6</ele><time>2022-11-14T16:39:12.0000000+00:00</time></trkpt><trkpt lat="39.46094074" lon="-0.31102326"><ele>-3.6</ele><time>2022-11-14T16:39:13.0000000+00:00</time></trkpt><trkpt lat="39.46094074" lon="-0.31102326"><ele>-3.6</ele><time>2022-11-14T16:39:14.0000000+00:00</time></trkpt><trkpt lat="39.46094074" lon="-0.31102326"><ele>-3.6</ele><time>2022-11-14T16:39:15.0000000+00:00</time></trkpt><trkpt lat="39.46094074" lon="-0.31102326"><ele>-3.6</ele><time>2022-11-14T16:39:16.0000000+00:00</time></trkpt><trkpt lat="39.46094074" lon="-0.31102326"><ele>-3.6</ele><time>2022-11-14T16:39:17.0000000+00:00</time></trkpt><trkpt lat="39.46094074" lon="-0.31102326"><ele>-3.6</ele><time>2022-11-14T16:39:18.0000000+00:00</time></trkpt><trkpt lat="39.46094074" lon="-0.31102326"><ele>-3.6</ele><time>2022-11-14T16:39:19.0000000+00:00</time></trkpt><trkpt lat="39.46094074" lon="-0.31102326"><ele>-3.6</ele><time>2022-11-14T16:39:20.0000000+00:00</time></trkpt><trkpt lat="39.46094074" lon="-0.31102326"><ele>-3.6</ele><time>2022-11-14T16:39:21.0000000+00:00</time></trkpt><trkpt lat="39.46094074" lon="-0.31102326"><ele>-3.6</ele><time>2022-11-14T16:39:22.0000000+00:00</time></trkpt><trkpt lat="39.46094074" lon="-0.31102326"><ele>-3.6</ele><time>2022-11-14T16:39:23.0000000+00:00</time></trkpt><trkpt lat="39.46094074" lon="-0.31102326"><ele>-3.6</ele><time>2022-11-14T16:39:24.0000000+00:00</time></trkpt><trkpt lat="39.46094074" lon="-0.31102326"><ele>-3.6</ele><time>2022-11-14T16:39:25.0000000+00:00</time></trkpt><trkpt lat="39.46094074" lon="-0.31102326"><ele>-3.6</ele><time>2022-11-14T16:39:26.0000000+00:00</time></trkpt><trkpt lat="39.46094074" lon="-0.31102326"><ele>-3.6</ele><time>2022-11-14T16:39:27.0000000+00:00</time></trkpt><trkpt lat="39.46094074" lon="-0.31102326"><ele>-3.6</ele><time>2022-11-14T16:39:28.0000000+00:00</time></trkpt><trkpt lat="39.46094074" lon="-0.31102326"><ele>-3.6</ele><time>2022-11-14T16:39:29.0000000+00:00</time></trkpt><trkpt lat="39.46094074" lon="-0.31102326"><ele>-3.6</ele><time>2022-11-14T16:39:30.0000000+00:00</time></trkpt><trkpt lat="39.46094074" lon="-0.31102326"><ele>-3.6</ele><time>2022-11-14T16:39:31.0000000+00:00</time></trkpt><trkpt lat="39.46094074" lon="-0.31102326"><ele>-3.6</ele><time>2022-11-14T16:39:32.0000000+00:00</time></trkpt><trkpt lat="39.46094074" lon="-0.31102326"><ele>-3.6</ele><time>2022-11-14T16:39:33.0000000+00:00</time></trkpt><trkpt lat="39.46094074" lon="-0.31102326"><ele>-3.6</ele><time>2022-11-14T16:39:34.0000000+00:00</time></trkpt><trkpt lat="39.46094074" lon="-0.31102326"><ele>-3.6</ele><time>2022-11-14T16:39:35.0000000+00:00</time></trkpt><trkpt lat="39.46094074" lon="-0.31102326"><ele>-3.6</ele><time>2022-11-14T16:39:36.0000000+00:00</time></trkpt><trkpt lat="39.46094074" lon="-0.31102326"><ele>-3.6</ele><time>2022-11-14T16:39:37.0000000+00:00</time></trkpt><trkpt lat="39.46094074" lon="-0.31102326"><ele>-3.6</ele><time>2022-11-14T16:39:38.0000000+00:00</time></trkpt><trkpt lat="39.46094074" lon="-0.31102326"><ele>-3.6</ele><time>2022-11-14T16:39:39.0000000+00:00</time></trkpt><trkpt lat="39.46094074" lon="-0.31102326"><ele>-3.6</ele><time>2022-11-14T16:39:40.0000000+00:00</time></trkpt><trkpt lat="39.46094074" lon="-0.31102326"><ele>-3.6</ele><time>2022-11-14T16:39:41.0000000+00:00</time></trkpt><trkpt lat="39.46094074" lon="-0.31102326"><ele>-3.6</ele><time>2022-11-14T16:39:42.0000000+00:00</time></trkpt><trkpt lat="39.46094074" lon="-0.31102326"><ele>-3.6</ele><time>2022-11-14T16:39:43.0000000+00:00</time></trkpt><trkpt lat="39.46094074" lon="-0.31102326"><ele>-3.6</ele><time>2022-11-14T16:39:44.0000000+00:00</time></trkpt><trkpt lat="39.46094074" lon="-0.31102326"><ele>-3.6</ele><time>2022-11-14T16:39:45.0000000+00:00</time></trkpt><trkpt lat="39.46094074" lon="-0.31102326"><ele>-3.6</ele><time>2022-11-14T16:39:46.0000000+00:00</time></trkpt><trkpt lat="39.46094074" lon="-0.31102326"><ele>-3.6</ele><time>2022-11-14T16:39:47.0000000+00:00</time></trkpt><trkpt lat="39.46094074" lon="-0.31102326"><ele>-3.6</ele><time>2022-11-14T16:39:48.0000000+00:00</time></trkpt><trkpt lat="39.46094074" lon="-0.31102326"><ele>-3.6</ele><time>2022-11-14T16:39:49.0000000+00:00</time></trkpt><trkpt lat="39.46094074" lon="-0.31102326"><ele>-3.6</ele><time>2022-11-14T16:39:50.0000000+00:00</time></trkpt><trkpt lat="39.46094074" lon="-0.31102326"><ele>-3.6</ele><time>2022-11-14T16:39:51.0000000+00:00</time></trkpt><trkpt lat="39.46094074" lon="-0.31102326"><ele>-3.6</ele><time>2022-11-14T16:39:52.0000000+00:00</time></trkpt><trkpt lat="39.46094074" lon="-0.31102326"><ele>-3.6</ele><time>2022-11-14T16:39:53.0000000+00:00</time></trkpt><trkpt lat="39.46094074" lon="-0.31102326"><ele>-3.6</ele><time>2022-11-14T16:39:54.0000000+00:00</time></trkpt><trkpt lat="39.46094074" lon="-0.31102326"><ele>-3.6</ele><time>2022-11-14T16:39:55.0000000+00:00</time></trkpt><trkpt lat="39.46094074" lon="-0.31102326"><ele>-3.6</ele><time>2022-11-14T16:39:56.0000000+00:00</time></trkpt><trkpt lat="39.46094074" lon="-0.31102326"><ele>-3.6</ele><time>2022-11-14T16:39:57.0000000+00:00</time></trkpt><trkpt lat="39.46094074" lon="-0.31102326"><ele>-3.6</ele><time>2022-11-14T16:39:58.0000000+00:00</time></trkpt><trkpt lat="39.46094074" lon="-0.31102326"><ele>-3.6</ele><time>2022-11-14T16:39:59.0000000+00:00</time></trkpt><trkpt lat="39.46094074" lon="-0.31102326"><ele>-3.6</ele><time>2022-11-14T16:40:00.0000000+00:00</time></trkpt><trkpt lat="39.46094074" lon="-0.31102326"><ele>-3.6</ele><time>2022-11-14T16:40:01.0000000+00:00</time></trkpt><trkpt lat="39.46094074" lon="-0.31102326"><ele>-3.6</ele><time>2022-11-14T16:40:02.0000000+00:00</time></trkpt><trkpt lat="39.46094074" lon="-0.31102326"><ele>-3.6</ele><time>2022-11-14T16:40:03.0000000+00:00</time></trkpt><trkpt lat="39.46094074" lon="-0.31102326"><ele>-3.6</ele><time>2022-11-14T16:40:04.0000000+00:00</time></trkpt><trkpt lat="39.46094074" lon="-0.31102326"><ele>-3.6</ele><time>2022-11-14T16:40:05.0000000+00:00</time></trkpt><trkpt lat="39.46094074" lon="-0.31102326"><ele>-3.6</ele><time>2022-11-14T16:40:06.0000000+00:00</time></trkpt><trkpt lat="39.46094074" lon="-0.31102326"><ele>-3.6</ele><time>2022-11-14T16:40:07.0000000+00:00</time></trkpt><trkpt lat="39.46094074" lon="-0.31102326"><ele>-3.6</ele><time>2022-11-14T16:40:08.0000000+00:00</time></trkpt><trkpt lat="39.46094074" lon="-0.31102326"><ele>-3.6</ele><time>2022-11-14T16:40:09.0000000+00:00</time></trkpt><trkpt lat="39.46094074" lon="-0.31102326"><ele>-3.6</ele><time>2022-11-14T16:40:10.0000000+00:00</time></trkpt><trkpt lat="39.46094074" lon="-0.31102326"><ele>-3.6</ele><time>2022-11-14T16:40:11.0000000+00:00</time></trkpt><trkpt lat="39.46094074" lon="-0.31102326"><ele>-3.6</ele><time>2022-11-14T16:40:12.0000000+00:00</time></trkpt><trkpt lat="39.46094074" lon="-0.31102326"><ele>-3.6</ele><time>2022-11-14T16:40:13.0000000+00:00</time></trkpt><trkpt lat="39.46094074" lon="-0.31102326"><ele>-3.6</ele><time>2022-11-14T16:40:14.0000000+00:00</time></trkpt><trkpt lat="39.46094074" lon="-0.31102326"><ele>-3.6</ele><time>2022-11-14T16:40:15.0000000+00:00</time></trkpt><trkpt lat="39.46094074" lon="-0.31102326"><ele>-3.6</ele><time>2022-11-14T16:40:16.0000000+00:00</time></trkpt><trkpt lat="39.46094074" lon="-0.31102326"><ele>-3.6</ele><time>2022-11-14T16:40:17.0000000+00:00</time></trkpt><trkpt lat="39.46094074" lon="-0.31102326"><ele>-3.6</ele><time>2022-11-14T16:40:18.0000000+00:00</time></trkpt><trkpt lat="39.46094074" lon="-0.31102326"><ele>-3.6</ele><time>2022-11-14T16:40:19.0000000+00:00</time></trkpt><trkpt lat="39.46094074" lon="-0.31102326"><ele>-3.6</ele><time>2022-11-14T16:40:20.0000000+00:00</time></trkpt><trkpt lat="39.46094074" lon="-0.31102326"><ele>-3.6</ele><time>2022-11-14T16:40:21.0000000+00:00</time></trkpt><trkpt lat="39.46094074" lon="-0.31102326"><ele>-3.6</ele><time>2022-11-14T16:40:22.0000000+00:00</time></trkpt><trkpt lat="39.46094074" lon="-0.31102326"><ele>-3.6</ele><time>2022-11-14T16:40:23.0000000+00:00</time></trkpt><trkpt lat="39.46094074" lon="-0.31102326"><ele>-3.6</ele><time>2022-11-14T16:40:24.0000000+00:00</time></trkpt><trkpt lat="39.46094074" lon="-0.31102326"><ele>-3.6</ele><time>2022-11-14T16:40:25.0000000+00:00</time></trkpt><trkpt lat="39.46094074" lon="-0.31102326"><ele>-3.6</ele><time>2022-11-14T16:40:26.0000000+00:00</time></trkpt><trkpt lat="39.46094074" lon="-0.31102326"><ele>-3.6</ele><time>2022-11-14T16:40:27.0000000+00:00</time></trkpt><trkpt lat="39.46094074" lon="-0.31102326"><ele>-3.6</ele><time>2022-11-14T16:40:28.0000000+00:00</time></trkpt><trkpt lat="39.46094074" lon="-0.31102326"><ele>-3.6</ele><time>2022-11-14T16:40:29.0000000+00:00</time></trkpt><trkpt lat="39.46094074" lon="-0.31102326"><ele>-3.6</ele><time>2022-11-14T16:40:30.0000000+00:00</time></trkpt><trkpt lat="39.46094074" lon="-0.31102326"><ele>-3.6</ele><time>2022-11-14T16:40:31.0000000+00:00</time></trkpt><trkpt lat="39.46094074" lon="-0.31102326"><ele>-3.6</ele><time>2022-11-14T16:40:32.0000000+00:00</time></trkpt><trkpt lat="39.46094074" lon="-0.31102326"><ele>-3.6</ele><time>2022-11-14T16:40:33.0000000+00:00</time></trkpt><trkpt lat="39.46094074" lon="-0.31102326"><ele>-3.6</ele><time>2022-11-14T16:40:34.0000000+00:00</time></trkpt><trkpt lat="39.46094074" lon="-0.31102326"><ele>-3.6</ele><time>2022-11-14T16:40:35.0000000+00:00</time></trkpt><trkpt lat="39.46094074" lon="-0.31102326"><ele>-3.6</ele><time>2022-11-14T16:40:36.0000000+00:00</time></trkpt><trkpt lat="39.46094074" lon="-0.31102326"><ele>-3.6</ele><time>2022-11-14T16:40:37.0000000+00:00</time></trkpt><trkpt lat="39.46094074" lon="-0.31102326"><ele>-3.6</ele><time>2022-11-14T16:40:38.0000000+00:00</time></trkpt><trkpt lat="39.46094074" lon="-0.31102326"><ele>-3.6</ele><time>2022-11-14T16:40:39.0000000+00:00</time></trkpt><trkpt lat="39.46094074" lon="-0.31102326"><ele>-3.6</ele><time>2022-11-14T16:40:40.0000000+00:00</time></trkpt><trkpt lat="39.46094074" lon="-0.31102326"><ele>-3.6</ele><time>2022-11-14T16:40:41.0000000+00:00</time></trkpt><trkpt lat="39.46094074" lon="-0.31102326"><ele>-3.6</ele><time>2022-11-14T16:40:42.0000000+00:00</time></trkpt><trkpt lat="39.46094074" lon="-0.31102326"><ele>-3.6</ele><time>2022-11-14T16:40:43.0000000+00:00</time></trkpt><trkpt lat="39.46094074" lon="-0.31102326"><ele>-3.6</ele><time>2022-11-14T16:40:44.0000000+00:00</time></trkpt><trkpt lat="39.46094074" lon="-0.31102326"><ele>-3.6</ele><time>2022-11-14T16:40:45.0000000+00:00</time></trkpt><trkpt lat="39.46094074" lon="-0.31102326"><ele>-3.6</ele><time>2022-11-14T16:40:46.0000000+00:00</time></trkpt><trkpt lat="39.46094074" lon="-0.31102326"><ele>-3.6</ele><time>2022-11-14T16:40:47.0000000+00:00</time></trkpt><trkpt lat="39.46094074" lon="-0.31102326"><ele>-3.6</ele><time>2022-11-14T16:40:48.0000000+00:00</time></trkpt><trkpt lat="39.46094074" lon="-0.31102326"><ele>-3.6</ele><time>2022-11-14T16:40:49.0000000+00:00</time></trkpt><trkpt lat="39.46094074" lon="-0.31102326"><ele>-3.6</ele><time>2022-11-14T16:40:50.0000000+00:00</time></trkpt><trkpt lat="39.46094074" lon="-0.31102326"><ele>-3.6</ele><time>2022-11-14T16:40:51.0000000+00:00</time></trkpt><trkpt lat="39.46094074" lon="-0.31102326"><ele>-3.6</ele><time>2022-11-14T16:40:52.0000000+00:00</time></trkpt><trkpt lat="39.46094074" lon="-0.31102326"><ele>-3.6</ele><time>2022-11-14T16:40:53.0000000+00:00</time></trkpt><trkpt lat="39.46094074" lon="-0.31102326"><ele>-3.6</ele><time>2022-11-14T16:40:54.0000000+00:00</time></trkpt><trkpt lat="39.46094074" lon="-0.31102326"><ele>-3.6</ele><time>2022-11-14T16:40:55.0000000+00:00</time></trkpt><trkpt lat="39.46094074" lon="-0.31102326"><ele>-3.6</ele><time>2022-11-14T16:40:56.0000000+00:00</time></trkpt><trkpt lat="39.46094074" lon="-0.31102326"><ele>-3.6</ele><time>2022-11-14T16:40:57.0000000+00:00</time></trkpt><trkpt lat="39.46094074" lon="-0.31102326"><ele>-3.6</ele><time>2022-11-14T16:40:58.0000000+00:00</time></trkpt><trkpt lat="39.46094074" lon="-0.31102326"><ele>-3.6</ele><time>2022-11-14T16:40:59.0000000+00:00</time></trkpt><trkpt lat="39.46094074" lon="-0.31102326"><ele>-3.6</ele><time>2022-11-14T16:41:00.0000000+00:00</time></trkpt><trkpt lat="39.46094074" lon="-0.31102326"><ele>-3.6</ele><time>2022-11-14T16:41:01.0000000+00:00</time></trkpt><trkpt lat="39.46094074" lon="-0.31102326"><ele>-3.6</ele><time>2022-11-14T16:41:02.0000000+00:00</time></trkpt><trkpt lat="39.46094074" lon="-0.31102326"><ele>-3.6</ele><time>2022-11-14T16:41:03.0000000+00:00</time></trkpt><trkpt lat="39.46094074" lon="-0.31102326"><ele>-3.6</ele><time>2022-11-14T16:41:04.0000000+00:00</time></trkpt><trkpt lat="39.46094074" lon="-0.31102326"><ele>-3.6</ele><time>2022-11-14T16:41:05.0000000+00:00</time></trkpt><trkpt lat="39.46094074" lon="-0.31102326"><ele>-3.6</ele><time>2022-11-14T16:41:06.0000000+00:00</time></trkpt><trkpt lat="39.46094074" lon="-0.31102326"><ele>-3.6</ele><time>2022-11-14T16:41:07.0000000+00:00</time></trkpt><trkpt lat="39.46094074" lon="-0.31102326"><ele>-3.6</ele><time>2022-11-14T16:41:08.0000000+00:00</time></trkpt><trkpt lat="39.46094074" lon="-0.31102326"><ele>-3.6</ele><time>2022-11-14T16:41:09.0000000+00:00</time></trkpt><trkpt lat="39.46094074" lon="-0.31102326"><ele>-3.6</ele><time>2022-11-14T16:41:10.0000000+00:00</time></trkpt><trkpt lat="39.46094074" lon="-0.31102326"><ele>-3.6</ele><time>2022-11-14T16:41:11.0000000+00:00</time></trkpt><trkpt lat="39.46094074" lon="-0.31102326"><ele>-3.6</ele><time>2022-11-14T16:41:12.0000000+00:00</time></trkpt><trkpt lat="39.46094074" lon="-0.31102326"><ele>-3.6</ele><time>2022-11-14T16:41:13.0000000+00:00</time></trkpt><trkpt lat="39.46094074" lon="-0.31102326"><ele>-3.6</ele><time>2022-11-14T16:41:14.0000000+00:00</time></trkpt><trkpt lat="39.46094074" lon="-0.31102326"><ele>-3.6</ele><time>2022-11-14T16:41:15.0000000+00:00</time></trkpt><trkpt lat="39.46094074" lon="-0.31102326"><ele>-3.6</ele><time>2022-11-14T16:41:16.0000000+00:00</time></trkpt><trkpt lat="39.46094074" lon="-0.31102326"><ele>-3.6</ele><time>2022-11-14T16:41:17.0000000+00:00</time></trkpt><trkpt lat="39.46094074" lon="-0.31102326"><ele>-3.6</ele><time>2022-11-14T16:41:18.0000000+00:00</time></trkpt><trkpt lat="39.46094074" lon="-0.31102326"><ele>-3.6</ele><time>2022-11-14T16:41:19.0000000+00:00</time></trkpt><trkpt lat="39.46094074" lon="-0.31102326"><ele>-3.6</ele><time>2022-11-14T16:41:20.0000000+00:00</time></trkpt><trkpt lat="39.46094074" lon="-0.31102326"><ele>-3.6</ele><time>2022-11-14T16:41:21.0000000+00:00</time></trkpt><trkpt lat="39.46094074" lon="-0.31102326"><ele>-3.6</ele><time>2022-11-14T16:41:22.0000000+00:00</time></trkpt><trkpt lat="39.46094074" lon="-0.31102326"><ele>-3.6</ele><time>2022-11-14T16:41:23.0000000+00:00</time></trkpt><trkpt lat="39.46094074" lon="-0.31102326"><ele>-3.6</ele><time>2022-11-14T16:41:24.0000000+00:00</time></trkpt><trkpt lat="39.46094074" lon="-0.31102326"><ele>-3.6</ele><time>2022-11-14T16:41:25.0000000+00:00</time></trkpt><trkpt lat="39.46094074" lon="-0.31102326"><ele>-3.6</ele><time>2022-11-14T16:41:26.0000000+00:00</time></trkpt><trkpt lat="39.46094074" lon="-0.31102326"><ele>-3.6</ele><time>2022-11-14T16:41:27.0000000+00:00</time></trkpt><trkpt lat="39.46094074" lon="-0.31102326"><ele>-3.6</ele><time>2022-11-14T16:41:28.0000000+00:00</time></trkpt><trkpt lat="39.46094074" lon="-0.31102326"><ele>-3.6</ele><time>2022-11-14T16:41:29.0000000+00:00</time></trkpt><trkpt lat="39.46094074" lon="-0.31102326"><ele>-3.6</ele><time>2022-11-14T16:41:30.0000000+00:00</time></trkpt><trkpt lat="39.46094074" lon="-0.31102326"><ele>-3.6</ele><time>2022-11-14T16:41:31.0000000+00:00</time></trkpt><trkpt lat="39.46094074" lon="-0.31102326"><ele>-3.6</ele><time>2022-11-14T16:41:32.0000000+00:00</time></trkpt><trkpt lat="39.46094074" lon="-0.31102326"><ele>-3.6</ele><time>2022-11-14T16:41:33.0000000+00:00</time></trkpt><trkpt lat="39.46094074" lon="-0.31102326"><ele>-3.6</ele><time>2022-11-14T16:41:34.0000000+00:00</time></trkpt><trkpt lat="39.46094074" lon="-0.31102326"><ele>-3.6</ele><time>2022-11-14T16:41:35.0000000+00:00</time></trkpt><trkpt lat="39.46094074" lon="-0.31102326"><ele>-3.6</ele><time>2022-11-14T16:41:36.0000000+00:00</time></trkpt><trkpt lat="39.46094074" lon="-0.31102326"><ele>-3.6</ele><time>2022-11-14T16:41:37.0000000+00:00</time></trkpt><trkpt lat="39.46094074" lon="-0.31102326"><ele>-3.6</ele><time>2022-11-14T16:41:38.0000000+00:00</time></trkpt><trkpt lat="39.46094074" lon="-0.31102326"><ele>-3.6</ele><time>2022-11-14T16:41:39.0000000+00:00</time></trkpt><trkpt lat="39.46094074" lon="-0.31102326"><ele>-3.6</ele><time>2022-11-14T16:41:40.0000000+00:00</time></trkpt><trkpt lat="39.46094074" lon="-0.31102326"><ele>-3.6</ele><time>2022-11-14T16:41:41.0000000+00:00</time></trkpt><trkpt lat="39.46094074" lon="-0.31102326"><ele>-3.6</ele><time>2022-11-14T16:41:42.0000000+00:00</time></trkpt><trkpt lat="39.46094074" lon="-0.31102326"><ele>-3.6</ele><time>2022-11-14T16:41:43.0000000+00:00</time></trkpt><trkpt lat="39.46094074" lon="-0.31102326"><ele>-3.6</ele><time>2022-11-14T16:41:44.0000000+00:00</time></trkpt><trkpt lat="39.46094074" lon="-0.31102326"><ele>-3.6</ele><time>2022-11-14T16:41:45.0000000+00:00</time></trkpt><trkpt lat="39.46094074" lon="-0.31102326"><ele>-3.6</ele><time>2022-11-14T16:41:46.0000000+00:00</time></trkpt><trkpt lat="39.46094074" lon="-0.31102326"><ele>-3.6</ele><time>2022-11-14T16:41:47.0000000+00:00</time></trkpt><trkpt lat="39.46094074" lon="-0.31102326"><ele>-3.6</ele><time>2022-11-14T16:41:48.0000000+00:00</time></trkpt><trkpt lat="39.46094074" lon="-0.31102326"><ele>-3.6</ele><time>2022-11-14T16:41:49.0000000+00:00</time></trkpt><trkpt lat="39.46094074" lon="-0.31102326"><ele>-3.6</ele><time>2022-11-14T16:41:50.0000000+00:00</time></trkpt><trkpt lat="39.46094074" lon="-0.31102326"><ele>-3.6</ele><time>2022-11-14T16:41:51.0000000+00:00</time></trkpt><trkpt lat="39.46094074" lon="-0.31102326"><ele>-3.6</ele><time>2022-11-14T16:41:52.0000000+00:00</time></trkpt><trkpt lat="39.46094074" lon="-0.31102326"><ele>-3.6</ele><time>2022-11-14T16:41:53.0000000+00:00</time></trkpt><trkpt lat="39.46094074" lon="-0.31102326"><ele>-3.6</ele><time>2022-11-14T16:41:54.0000000+00:00</time></trkpt><trkpt lat="39.46094074" lon="-0.31102326"><ele>-3.6</ele><time>2022-11-14T16:41:55.0000000+00:00</time></trkpt><trkpt lat="39.46094074" lon="-0.31102326"><ele>-3.6</ele><time>2022-11-14T16:41:56.0000000+00:00</time></trkpt><trkpt lat="39.46094074" lon="-0.31102326"><ele>-3.6</ele><time>2022-11-14T16:41:57.0000000+00:00</time></trkpt><trkpt lat="39.46094074" lon="-0.31102326"><ele>-3.6</ele><time>2022-11-14T16:41:58.0000000+00:00</time></trkpt><trkpt lat="39.46094074" lon="-0.31102326"><ele>-3.6</ele><time>2022-11-14T16:41:59.0000000+00:00</time></trkpt><trkpt lat="39.46094074" lon="-0.31102326"><ele>-3.6</ele><time>2022-11-14T16:42:00.0000000+00:00</time></trkpt><trkpt lat="39.46094074" lon="-0.31102326"><ele>-3.6</ele><time>2022-11-14T16:42:01.0000000+00:00</time></trkpt><trkpt lat="39.46094074" lon="-0.31102326"><ele>-3.6</ele><time>2022-11-14T16:42:02.0000000+00:00</time></trkpt><trkpt lat="39.46094074" lon="-0.31102326"><ele>-3.6</ele><time>2022-11-14T16:42:03.0000000+00:00</time></trkpt><trkpt lat="39.46094074" lon="-0.31102326"><ele>-3.6</ele><time>2022-11-14T16:42:04.0000000+00:00</time></trkpt><trkpt lat="39.46094074" lon="-0.31102326"><ele>-3.6</ele><time>2022-11-14T16:42:05.0000000+00:00</time></trkpt><trkpt lat="39.46094074" lon="-0.31102326"><ele>-3.6</ele><time>2022-11-14T16:42:06.0000000+00:00</time></trkpt><trkpt lat="39.46094074" lon="-0.31102326"><ele>-3.6</ele><time>2022-11-14T16:42:07.0000000+00:00</time></trkpt><trkpt lat="39.46094074" lon="-0.31102326"><ele>-3.6</ele><time>2022-11-14T16:42:08.0000000+00:00</time></trkpt><trkpt lat="39.46094074" lon="-0.31102326"><ele>-3.6</ele><time>2022-11-14T16:42:09.0000000+00:00</time></trkpt><trkpt lat="39.46094074" lon="-0.31102326"><ele>-3.6</ele><time>2022-11-14T16:42:10.0000000+00:00</time></trkpt><trkpt lat="39.46094074" lon="-0.31102326"><ele>-3.6</ele><time>2022-11-14T16:42:11.0000000+00:00</time></trkpt><trkpt lat="39.46094074" lon="-0.31102326"><ele>-3.6</ele><time>2022-11-14T16:42:12.0000000+00:00</time></trkpt><trkpt lat="39.46094074" lon="-0.31102326"><ele>-3.6</ele><time>2022-11-14T16:42:13.0000000+00:00</time></trkpt><trkpt lat="39.46094074" lon="-0.31102326"><ele>-3.6</ele><time>2022-11-14T16:42:14.0000000+00:00</time></trkpt><trkpt lat="39.46094074" lon="-0.31102326"><ele>-3.6</ele><time>2022-11-14T16:42:15.0000000+00:00</time></trkpt><trkpt lat="39.46094074" lon="-0.31102326"><ele>-3.6</ele><time>2022-11-14T16:42:16.0000000+00:00</time></trkpt><trkpt lat="39.46094074" lon="-0.31102326"><ele>-3.6</ele><time>2022-11-14T16:42:17.0000000+00:00</time></trkpt><trkpt lat="39.46094074" lon="-0.31102326"><ele>-3.6</ele><time>2022-11-14T16:42:18.0000000+00:00</time></trkpt><trkpt lat="39.46094074" lon="-0.31102326"><ele>-3.6</ele><time>2022-11-14T16:42:19.0000000+00:00</time></trkpt><trkpt lat="39.46094074" lon="-0.31102326"><ele>-3.6</ele><time>2022-11-14T16:42:20.0000000+00:00</time></trkpt><trkpt lat="39.46094074" lon="-0.31102326"><ele>-3.6</ele><time>2022-11-14T16:42:21.0000000+00:00</time></trkpt><trkpt lat="39.46094074" lon="-0.31102326"><ele>-3.6</ele><time>2022-11-14T16:42:22.0000000+00:00</time></trkpt><trkpt lat="39.46094074" lon="-0.31102326"><ele>-3.6</ele><time>2022-11-14T16:42:23.0000000+00:00</time></trkpt><trkpt lat="39.46094074" lon="-0.31102326"><ele>-3.6</ele><time>2022-11-14T16:42:24.0000000+00:00</time></trkpt><trkpt lat="39.46094074" lon="-0.31102326"><ele>-3.6</ele><time>2022-11-14T16:42:25.0000000+00:00</time></trkpt><trkpt lat="39.46094074" lon="-0.31102326"><ele>-3.6</ele><time>2022-11-14T16:42:26.0000000+00:00</time></trkpt><trkpt lat="39.46094074" lon="-0.31102326"><ele>-3.6</ele><time>2022-11-14T16:42:27.0000000+00:00</time></trkpt><trkpt lat="39.46094074" lon="-0.31102326"><ele>-3.6</ele><time>2022-11-14T16:42:28.0000000+00:00</time></trkpt><trkpt lat="39.46094074" lon="-0.31102326"><ele>-3.6</ele><time>2022-11-14T16:42:29.0000000+00:00</time></trkpt><trkpt lat="39.46094074" lon="-0.31102326"><ele>-3.6</ele><time>2022-11-14T16:42:30.0000000+00:00</time></trkpt><trkpt lat="39.46094074" lon="-0.31102326"><ele>-3.6</ele><time>2022-11-14T16:42:31.0000000+00:00</time></trkpt><trkpt lat="39.46094074" lon="-0.31102326"><ele>-3.6</ele><time>2022-11-14T16:42:32.0000000+00:00</time></trkpt><trkpt lat="39.46094074" lon="-0.31102326"><ele>-3.6</ele><time>2022-11-14T16:42:33.0000000+00:00</time></trkpt><trkpt lat="39.46094074" lon="-0.31102326"><ele>-3.6</ele><time>2022-11-14T16:42:34.0000000+00:00</time></trkpt><trkpt lat="39.46094074" lon="-0.31102326"><ele>-3.6</ele><time>2022-11-14T16:42:35.0000000+00:00</time></trkpt><trkpt lat="39.46094074" lon="-0.31102326"><ele>-3.6</ele><time>2022-11-14T16:42:36.0000000+00:00</time></trkpt><trkpt lat="39.46094074" lon="-0.31102326"><ele>-3.6</ele><time>2022-11-14T16:42:37.0000000+00:00</time></trkpt><trkpt lat="39.46094074" lon="-0.31102326"><ele>-3.6</ele><time>2022-11-14T16:42:38.0000000+00:00</time></trkpt><trkpt lat="39.46094074" lon="-0.31102326"><ele>-3.6</ele><time>2022-11-14T16:42:39.0000000+00:00</time></trkpt><trkpt lat="39.46094074" lon="-0.31102326"><ele>-3.6</ele><time>2022-11-14T16:42:40.0000000+00:00</time></trkpt><trkpt lat="39.46094074" lon="-0.31102326"><ele>-3.6</ele><time>2022-11-14T16:42:41.0000000+00:00</time></trkpt><trkpt lat="39.46094074" lon="-0.31102326"><ele>-3.6</ele><time>2022-11-14T16:42:42.0000000+00:00</time></trkpt><trkpt lat="39.46094074" lon="-0.31102326"><ele>-3.6</ele><time>2022-11-14T16:42:43.0000000+00:00</time></trkpt><trkpt lat="39.46094074" lon="-0.31102326"><ele>-3.6</ele><time>2022-11-14T16:42:44.0000000+00:00</time></trkpt><trkpt lat="39.46094074" lon="-0.31102326"><ele>-3.6</ele><time>2022-11-14T16:42:45.0000000+00:00</time></trkpt><trkpt lat="39.46094074" lon="-0.31102326"><ele>-3.6</ele><time>2022-11-14T16:42:46.0000000+00:00</time></trkpt><trkpt lat="39.46094074" lon="-0.31102326"><ele>-3.6</ele><time>2022-11-14T16:42:47.0000000+00:00</time></trkpt><trkpt lat="39.46094074" lon="-0.31102326"><ele>-3.6</ele><time>2022-11-14T16:42:48.0000000+00:00</time></trkpt><trkpt lat="39.46094074" lon="-0.31102326"><ele>-3.6</ele><time>2022-11-14T16:42:49.0000000+00:00</time></trkpt><trkpt lat="39.46094074" lon="-0.31102326"><ele>-3.6</ele><time>2022-11-14T16:42:50.0000000+00:00</time></trkpt><trkpt lat="39.46094074" lon="-0.31102326"><ele>-3.6</ele><time>2022-11-14T16:42:51.0000000+00:00</time></trkpt><trkpt lat="39.46094074" lon="-0.31102326"><ele>-3.6</ele><time>2022-11-14T16:42:52.0000000+00:00</time></trkpt><trkpt lat="39.46094074" lon="-0.31102326"><ele>-3.6</ele><time>2022-11-14T16:42:53.0000000+00:00</time></trkpt><trkpt lat="39.46094074" lon="-0.31102326"><ele>-3.6</ele><time>2022-11-14T16:42:54.0000000+00:00</time></trkpt><trkpt lat="39.46094074" lon="-0.31102326"><ele>-3.6</ele><time>2022-11-14T16:42:55.0000000+00:00</time></trkpt><trkpt lat="39.46094074" lon="-0.31102326"><ele>-3.6</ele><time>2022-11-14T16:42:56.0000000+00:00</time></trkpt><trkpt lat="39.46094074" lon="-0.31102326"><ele>-3.6</ele><time>2022-11-14T16:42:57.0000000+00:00</time></trkpt><trkpt lat="39.46094074" lon="-0.31102326"><ele>-3.6</ele><time>2022-11-14T16:42:58.0000000+00:00</time></trkpt><trkpt lat="39.46094074" lon="-0.31102326"><ele>-3.6</ele><time>2022-11-14T16:42:59.0000000+00:00</time></trkpt><trkpt lat="39.46094074" lon="-0.31102326"><ele>-3.6</ele><time>2022-11-14T16:43:00.0000000+00:00</time></trkpt><trkpt lat="39.46094074" lon="-0.31102326"><ele>-3.6</ele><time>2022-11-14T16:43:01.0000000+00:00</time></trkpt><trkpt lat="39.46094074" lon="-0.31102326"><ele>-3.6</ele><time>2022-11-14T16:43:02.0000000+00:00</time></trkpt><trkpt lat="39.46094074" lon="-0.31102326"><ele>-3.6</ele><time>2022-11-14T16:43:03.0000000+00:00</time></trkpt><trkpt lat="39.46094074" lon="-0.31102326"><ele>-3.6</ele><time>2022-11-14T16:43:04.0000000+00:00</time></trkpt><trkpt lat="39.46094074" lon="-0.31102326"><ele>-3.6</ele><time>2022-11-14T16:43:05.0000000+00:00</time></trkpt><trkpt lat="39.46094074" lon="-0.31102326"><ele>-3.6</ele><time>2022-11-14T16:43:06.0000000+00:00</time></trkpt><trkpt lat="39.46094074" lon="-0.31102326"><ele>-3.6</ele><time>2022-11-14T16:43:07.0000000+00:00</time></trkpt><trkpt lat="39.46094074" lon="-0.31102326"><ele>-3.6</ele><time>2022-11-14T16:43:08.0000000+00:00</time></trkpt><trkpt lat="39.46094074" lon="-0.31102326"><ele>-3.6</ele><time>2022-11-14T16:43:09.0000000+00:00</time></trkpt><trkpt lat="39.46094074" lon="-0.31102326"><ele>-3.6</ele><time>2022-11-14T16:43:10.0000000+00:00</time></trkpt><trkpt lat="39.46094074" lon="-0.31102326"><ele>-3.6</ele><time>2022-11-14T16:43:11.0000000+00:00</time></trkpt><trkpt lat="39.46094074" lon="-0.31102326"><ele>-3.6</ele><time>2022-11-14T16:43:12.0000000+00:00</time></trkpt><trkpt lat="39.46094074" lon="-0.31102326"><ele>-3.6</ele><time>2022-11-14T16:43:13.0000000+00:00</time></trkpt><trkpt lat="39.46094074" lon="-0.31102326"><ele>-3.6</ele><time>2022-11-14T16:43:14.0000000+00:00</time></trkpt><trkpt lat="39.46094074" lon="-0.31102326"><ele>-3.6</ele><time>2022-11-14T16:43:15.0000000+00:00</time></trkpt><trkpt lat="39.46094074" lon="-0.31102326"><ele>-3.6</ele><time>2022-11-14T16:43:16.0000000+00:00</time></trkpt><trkpt lat="39.46094074" lon="-0.31102326"><ele>-3.6</ele><time>2022-11-14T16:43:17.0000000+00:00</time></trkpt><trkpt lat="39.46094074" lon="-0.31102326"><ele>-3.6</ele><time>2022-11-14T16:43:18.0000000+00:00</time></trkpt><trkpt lat="39.46094074" lon="-0.31102326"><ele>-3.6</ele><time>2022-11-14T16:43:19.0000000+00:00</time></trkpt><trkpt lat="39.46094074" lon="-0.31102326"><ele>-3.6</ele><time>2022-11-14T16:43:20.0000000+00:00</time></trkpt><trkpt lat="39.46094074" lon="-0.31102326"><ele>-3.6</ele><time>2022-11-14T16:43:21.0000000+00:00</time></trkpt><trkpt lat="39.46094074" lon="-0.31102326"><ele>-3.6</ele><time>2022-11-14T16:43:22.0000000+00:00</time></trkpt><trkpt lat="39.46094074" lon="-0.31102326"><ele>-3.6</ele><time>2022-11-14T16:43:23.0000000+00:00</time></trkpt><trkpt lat="39.46094074" lon="-0.31102326"><ele>-3.6</ele><time>2022-11-14T16:43:24.0000000+00:00</time></trkpt><trkpt lat="39.46094074" lon="-0.31102326"><ele>-3.6</ele><time>2022-11-14T16:43:25.0000000+00:00</time></trkpt><trkpt lat="39.46094074" lon="-0.31102326"><ele>-3.6</ele><time>2022-11-14T16:43:26.0000000+00:00</time></trkpt><trkpt lat="39.46094074" lon="-0.31102326"><ele>-3.6</ele><time>2022-11-14T16:43:27.0000000+00:00</time></trkpt><trkpt lat="39.46094074" lon="-0.31102326"><ele>-3.6</ele><time>2022-11-14T16:43:28.0000000+00:00</time></trkpt><trkpt lat="39.46094074" lon="-0.31102326"><ele>-3.6</ele><time>2022-11-14T16:43:29.0000000+00:00</time></trkpt><trkpt lat="39.46094074" lon="-0.31102326"><ele>-3.6</ele><time>2022-11-14T16:43:30.0000000+00:00</time></trkpt><trkpt lat="39.46094074" lon="-0.31102326"><ele>-3.6</ele><time>2022-11-14T16:43:31.0000000+00:00</time></trkpt><trkpt lat="39.46094074" lon="-0.31102326"><ele>-3.6</ele><time>2022-11-14T16:43:32.0000000+00:00</time></trkpt><trkpt lat="39.46094074" lon="-0.31102326"><ele>-3.6</ele><time>2022-11-14T16:43:33.0000000+00:00</time></trkpt><trkpt lat="39.46094074" lon="-0.31102326"><ele>-3.6</ele><time>2022-11-14T16:43:34.0000000+00:00</time></trkpt><trkpt lat="39.46094074" lon="-0.31102326"><ele>-3.6</ele><time>2022-11-14T16:43:35.0000000+00:00</time></trkpt><trkpt lat="39.46094074" lon="-0.31102326"><ele>-3.6</ele><time>2022-11-14T16:43:36.0000000+00:00</time></trkpt><trkpt lat="39.46094074" lon="-0.31102326"><ele>-3.6</ele><time>2022-11-14T16:43:37.0000000+00:00</time></trkpt><trkpt lat="39.46094074" lon="-0.31102326"><ele>-3.6</ele><time>2022-11-14T16:43:38.0000000+00:00</time></trkpt><trkpt lat="39.46094074" lon="-0.31102326"><ele>-3.6</ele><time>2022-11-14T16:43:39.0000000+00:00</time></trkpt><trkpt lat="39.46094074" lon="-0.31102326"><ele>-3.6</ele><time>2022-11-14T16:43:40.0000000+00:00</time></trkpt><trkpt lat="39.46094074" lon="-0.31102326"><ele>-3.6</ele><time>2022-11-14T16:43:41.0000000+00:00</time></trkpt><trkpt lat="39.46094074" lon="-0.31102326"><ele>-3.6</ele><time>2022-11-14T16:43:42.0000000+00:00</time></trkpt><trkpt lat="39.46094074" lon="-0.31102326"><ele>-3.6</ele><time>2022-11-14T16:43:43.0000000+00:00</time></trkpt><trkpt lat="39.46094074" lon="-0.31102326"><ele>-3.6</ele><time>2022-11-14T16:43:44.0000000+00:00</time></trkpt><trkpt lat="39.46094074" lon="-0.31102326"><ele>-3.6</ele><time>2022-11-14T16:43:45.0000000+00:00</time></trkpt><trkpt lat="39.46094074" lon="-0.31102326"><ele>-3.6</ele><time>2022-11-14T16:43:46.0000000+00:00</time></trkpt><trkpt lat="39.46094074" lon="-0.31102326"><ele>-3.6</ele><time>2022-11-14T16:43:47.0000000+00:00</time></trkpt><trkpt lat="39.46094074" lon="-0.31102326"><ele>-3.6</ele><time>2022-11-14T16:43:48.0000000+00:00</time></trkpt><trkpt lat="39.46094074" lon="-0.31102326"><ele>-3.6</ele><time>2022-11-14T16:43:49.0000000+00:00</time></trkpt><trkpt lat="39.46094074" lon="-0.31102326"><ele>-3.6</ele><time>2022-11-14T16:43:50.0000000+00:00</time></trkpt><trkpt lat="39.46094074" lon="-0.31102326"><ele>-3.6</ele><time>2022-11-14T16:43:51.0000000+00:00</time></trkpt><trkpt lat="39.46094074" lon="-0.31102326"><ele>-3.6</ele><time>2022-11-14T16:43:52.0000000+00:00</time></trkpt><trkpt lat="39.46094074" lon="-0.31102326"><ele>-3.6</ele><time>2022-11-14T16:43:53.0000000+00:00</time></trkpt><trkpt lat="39.46094074" lon="-0.31102326"><ele>-3.6</ele><time>2022-11-14T16:43:54.0000000+00:00</time></trkpt><trkpt lat="39.46094074" lon="-0.31102326"><ele>-3.6</ele><time>2022-11-14T16:43:55.0000000+00:00</time></trkpt><trkpt lat="39.46094074" lon="-0.31102326"><ele>-3.6</ele><time>2022-11-14T16:43:56.0000000+00:00</time></trkpt><trkpt lat="39.46094074" lon="-0.31102326"><ele>-3.6</ele><time>2022-11-14T16:43:57.0000000+00:00</time></trkpt><trkpt lat="39.46094074" lon="-0.31102326"><ele>-3.6</ele><time>2022-11-14T16:43:58.0000000+00:00</time></trkpt><trkpt lat="39.46094074" lon="-0.31102326"><ele>-3.6</ele><time>2022-11-14T16:43:59.0000000+00:00</time></trkpt><trkpt lat="39.46094074" lon="-0.31102326"><ele>-3.6</ele><time>2022-11-14T16:44:00.0000000+00:00</time></trkpt><trkpt lat="39.46094074" lon="-0.31102326"><ele>-3.6</ele><time>2022-11-14T16:44:01.0000000+00:00</time></trkpt><trkpt lat="39.46094074" lon="-0.31102326"><ele>-3.6</ele><time>2022-11-14T16:44:02.0000000+00:00</time></trkpt><trkpt lat="39.46094074" lon="-0.31102326"><ele>-3.6</ele><time>2022-11-14T16:44:03.0000000+00:00</time></trkpt><trkpt lat="39.46094074" lon="-0.31102326"><ele>-3.6</ele><time>2022-11-14T16:44:04.0000000+00:00</time></trkpt><trkpt lat="39.46094074" lon="-0.31102326"><ele>-3.6</ele><time>2022-11-14T16:44:05.0000000+00:00</time></trkpt><trkpt lat="39.46094074" lon="-0.31102326"><ele>-3.6</ele><time>2022-11-14T16:44:06.0000000+00:00</time></trkpt><trkpt lat="39.46094074" lon="-0.31102326"><ele>-3.6</ele><time>2022-11-14T16:44:07.0000000+00:00</time></trkpt><trkpt lat="39.46094074" lon="-0.31102326"><ele>-3.6</ele><time>2022-11-14T16:44:08.0000000+00:00</time></trkpt><trkpt lat="39.46094074" lon="-0.31102326"><ele>-3.6</ele><time>2022-11-14T16:44:09.0000000+00:00</time></trkpt><trkpt lat="39.46094074" lon="-0.31102326"><ele>-3.6</ele><time>2022-11-14T16:44:10.0000000+00:00</time></trkpt><trkpt lat="39.46094074" lon="-0.31102326"><ele>-3.6</ele><time>2022-11-14T16:44:11.0000000+00:00</time></trkpt><trkpt lat="39.46094074" lon="-0.31102326"><ele>-3.6</ele><time>2022-11-14T16:44:12.0000000+00:00</time></trkpt><trkpt lat="39.46094074" lon="-0.31102326"><ele>-3.6</ele><time>2022-11-14T16:44:13.0000000+00:00</time></trkpt><trkpt lat="39.46094074" lon="-0.31102326"><ele>-3.6</ele><time>2022-11-14T16:44:14.0000000+00:00</time></trkpt><trkpt lat="39.46094074" lon="-0.31102326"><ele>-3.6</ele><time>2022-11-14T16:44:15.0000000+00:00</time></trkpt><trkpt lat="39.46094074" lon="-0.31102326"><ele>-3.6</ele><time>2022-11-14T16:44:16.0000000+00:00</time></trkpt><trkpt lat="39.46094074" lon="-0.31102326"><ele>-3.6</ele><time>2022-11-14T16:44:17.0000000+00:00</time></trkpt><trkpt lat="39.46094074" lon="-0.31102326"><ele>-3.6</ele><time>2022-11-14T16:44:18.0000000+00:00</time></trkpt><trkpt lat="39.46094074" lon="-0.31102326"><ele>-3.6</ele><time>2022-11-14T16:44:19.0000000+00:00</time></trkpt><trkpt lat="39.46094074" lon="-0.31102326"><ele>-3.6</ele><time>2022-11-14T16:44:20.0000000+00:00</time></trkpt><trkpt lat="39.46094074" lon="-0.31102326"><ele>-3.6</ele><time>2022-11-14T16:44:21.0000000+00:00</time></trkpt><trkpt lat="39.46094074" lon="-0.31102326"><ele>-3.6</ele><time>2022-11-14T16:44:22.0000000+00:00</time></trkpt><trkpt lat="39.46094074" lon="-0.31102326"><ele>-3.6</ele><time>2022-11-14T16:44:23.0000000+00:00</time></trkpt><trkpt lat="39.46094074" lon="-0.31102326"><ele>-3.6</ele><time>2022-11-14T16:44:24.0000000+00:00</time></trkpt><trkpt lat="39.46094074" lon="-0.31102326"><ele>-3.6</ele><time>2022-11-14T16:44:25.0000000+00:00</time></trkpt><trkpt lat="39.46094074" lon="-0.31102326"><ele>-3.6</ele><time>2022-11-14T16:44:26.0000000+00:00</time></trkpt><trkpt lat="39.46094074" lon="-0.31102326"><ele>-3.6</ele><time>2022-11-14T16:44:27.0000000+00:00</time></trkpt><trkpt lat="39.46094074" lon="-0.31102326"><ele>-3.6</ele><time>2022-11-14T16:44:28.0000000+00:00</time></trkpt><trkpt lat="39.46094074" lon="-0.31102326"><ele>-3.6</ele><time>2022-11-14T16:44:29.0000000+00:00</time></trkpt><trkpt lat="39.46094074" lon="-0.31102326"><ele>-3.6</ele><time>2022-11-14T16:44:30.0000000+00:00</time></trkpt><trkpt lat="39.46094074" lon="-0.31102326"><ele>-3.6</ele><time>2022-11-14T16:44:31.0000000+00:00</time></trkpt><trkpt lat="39.46094074" lon="-0.31102326"><ele>-3.6</ele><time>2022-11-14T16:44:32.0000000+00:00</time></trkpt><trkpt lat="39.46094074" lon="-0.31102326"><ele>-3.6</ele><time>2022-11-14T16:44:33.0000000+00:00</time></trkpt><trkpt lat="39.46094074" lon="-0.31102326"><ele>-3.6</ele><time>2022-11-14T16:44:34.0000000+00:00</time></trkpt><trkpt lat="39.46094074" lon="-0.31102326"><ele>-3.6</ele><time>2022-11-14T16:44:35.0000000+00:00</time></trkpt><trkpt lat="39.46094074" lon="-0.31102326"><ele>-3.6</ele><time>2022-11-14T16:44:36.0000000+00:00</time></trkpt><trkpt lat="39.46094074" lon="-0.31102326"><ele>-3.6</ele><time>2022-11-14T16:44:37.0000000+00:00</time></trkpt><trkpt lat="39.46094074" lon="-0.31102326"><ele>-3.6</ele><time>2022-11-14T16:44:38.0000000+00:00</time></trkpt><trkpt lat="39.46094074" lon="-0.31102326"><ele>-3.6</ele><time>2022-11-14T16:44:39.0000000+00:00</time></trkpt><trkpt lat="39.46094074" lon="-0.31102326"><ele>-3.6</ele><time>2022-11-14T16:44:40.0000000+00:00</time></trkpt><trkpt lat="39.46094074" lon="-0.31102326"><ele>-3.6</ele><time>2022-11-14T16:44:41.0000000+00:00</time></trkpt><trkpt lat="39.46094074" lon="-0.31102326"><ele>-3.6</ele><time>2022-11-14T16:44:42.0000000+00:00</time></trkpt><trkpt lat="39.46094074" lon="-0.31102326"><ele>-3.6</ele><time>2022-11-14T16:44:43.0000000+00:00</time></trkpt><trkpt lat="39.46094074" lon="-0.31102326"><ele>-3.6</ele><time>2022-11-14T16:44:44.0000000+00:00</time></trkpt><trkpt lat="39.46094074" lon="-0.31102326"><ele>-3.6</ele><time>2022-11-14T16:44:45.0000000+00:00</time></trkpt><trkpt lat="39.46094074" lon="-0.31102326"><ele>-3.6</ele><time>2022-11-14T16:44:46.0000000+00:00</time></trkpt><trkpt lat="39.46094074" lon="-0.31102326"><ele>-3.6</ele><time>2022-11-14T16:44:47.0000000+00:00</time></trkpt><trkpt lat="39.46094074" lon="-0.31102326"><ele>-3.6</ele><time>2022-11-14T16:44:48.0000000+00:00</time></trkpt><trkpt lat="39.46094074" lon="-0.31102326"><ele>-3.6</ele><time>2022-11-14T16:44:49.0000000+00:00</time></trkpt><trkpt lat="39.46094074" lon="-0.31102326"><ele>-3.6</ele><time>2022-11-14T16:44:50.0000000+00:00</time></trkpt><trkpt lat="39.46094074" lon="-0.31102326"><ele>-3.6</ele><time>2022-11-14T16:44:51.0000000+00:00</time></trkpt><trkpt lat="39.4609394" lon="-0.31102309"><ele>-3.6</ele><time>2022-11-14T16:44:52.0000000+00:00</time></trkpt><trkpt lat="39.46093697" lon="-0.31102301"><ele>-3.6</ele><time>2022-11-14T16:44:53.0000000+00:00</time></trkpt><trkpt lat="39.46093697" lon="-0.31102301"><ele>-3.6</ele><time>2022-11-14T16:44:54.0000000+00:00</time></trkpt><trkpt lat="39.46093605" lon="-0.3110215"><ele>-3.6</ele><time>2022-11-14T16:44:55.0000000+00:00</time></trkpt><trkpt lat="39.46093773" lon="-0.31102049"><ele>-3.6</ele><time>2022-11-14T16:44:56.0000000+00:00</time></trkpt><trkpt lat="39.46094284" lon="-0.31101739"><ele>-3.6</ele><time>2022-11-14T16:44:57.0000000+00:00</time></trkpt><trkpt lat="39.46094569" lon="-0.31101521"><ele>-3.6</ele><time>2022-11-14T16:44:58.0000000+00:00</time></trkpt><trkpt lat="39.46094234" lon="-0.31100825"><ele>-3.6</ele><time>2022-11-14T16:44:59.0000000+00:00</time></trkpt><trkpt lat="39.46094208" lon="-0.31100339"><ele>-3.6</ele><time>2022-11-14T16:45:00.0000000+00:00</time></trkpt><trkpt lat="39.46094208" lon="-0.31100339"><ele>-3.6</ele><time>2022-11-14T16:45:01.0000000+00:00</time></trkpt><trkpt lat="39.46094208" lon="-0.31100339"><ele>-3.6</ele><time>2022-11-14T16:45:02.0000000+00:00</time></trkpt><trkpt lat="39.46094208" lon="-0.31100339"><ele>-3.6</ele><time>2022-11-14T16:45:03.0000000+00:00</time></trkpt><trkpt lat="39.46094208" lon="-0.31100339"><ele>-3.6</ele><time>2022-11-14T16:45:04.0000000+00:00</time></trkpt><trkpt lat="39.46094208" lon="-0.31100339"><ele>-3.6</ele><time>2022-11-14T16:45:05.0000000+00:00</time></trkpt><trkpt lat="39.46094208" lon="-0.31100339"><ele>-3.6</ele><time>2022-11-14T16:45:06.0000000+00:00</time></trkpt><trkpt lat="39.46094074" lon="-0.31100113"><ele>-3.6</ele><time>2022-11-14T16:45:07.0000000+00:00</time></trkpt><trkpt lat="39.4609451" lon="-0.31100281"><ele>-3.6</ele><time>2022-11-14T16:45:08.0000000+00:00</time></trkpt><trkpt lat="39.46094686" lon="-0.31100331"><ele>-3.6</ele><time>2022-11-14T16:45:09.0000000+00:00</time></trkpt><trkpt lat="39.46094686" lon="-0.31100331"><ele>-3.6</ele><time>2022-11-14T16:45:10.0000000+00:00</time></trkpt><trkpt lat="39.46094686" lon="-0.31100331"><ele>-3.6</ele><time>2022-11-14T16:45:11.0000000+00:00</time></trkpt><trkpt lat="39.46094686" lon="-0.31100331"><ele>-3.6</ele><time>2022-11-14T16:45:12.0000000+00:00</time></trkpt><trkpt lat="39.46094686" lon="-0.31100331"><ele>-3.6</ele><time>2022-11-14T16:45:13.0000000+00:00</time></trkpt><trkpt lat="39.46094686" lon="-0.31100331"><ele>-3.6</ele><time>2022-11-14T16:45:14.0000000+00:00</time></trkpt><trkpt lat="39.46094686" lon="-0.31100331"><ele>-3.6</ele><time>2022-11-14T16:45:15.0000000+00:00</time></trkpt><trkpt lat="39.46094686" lon="-0.31100331"><ele>-3.6</ele><time>2022-11-14T16:45:16.0000000+00:00</time></trkpt><trkpt lat="39.46094686" lon="-0.31100331"><ele>-3.6</ele><time>2022-11-14T16:45:17.0000000+00:00</time></trkpt><trkpt lat="39.46094686" lon="-0.31100331"><ele>-3.6</ele><time>2022-11-14T16:45:18.0000000+00:00</time></trkpt><trkpt lat="39.46094686" lon="-0.31100331"><ele>-3.6</ele><time>2022-11-14T16:45:19.0000000+00:00</time></trkpt><trkpt lat="39.46094686" lon="-0.31100331"><ele>-3.6</ele><time>2022-11-14T16:45:20.0000000+00:00</time></trkpt><trkpt lat="39.46094686" lon="-0.31100331"><ele>-3.6</ele><time>2022-11-14T16:45:21.0000000+00:00</time></trkpt><trkpt lat="39.46094686" lon="-0.31100331"><ele>-3.6</ele><time>2022-11-14T16:45:22.0000000+00:00</time></trkpt><trkpt lat="39.46094686" lon="-0.31100331"><ele>-3.6</ele><time>2022-11-14T16:45:23.0000000+00:00</time></trkpt><trkpt lat="39.46094426" lon="-0.31099895"><ele>-3.6</ele><time>2022-11-14T16:45:24.0000000+00:00</time></trkpt><trkpt lat="39.46094343" lon="-0.31099585"><ele>-3.6</ele><time>2022-11-14T16:45:25.0000000+00:00</time></trkpt><trkpt lat="39.46094343" lon="-0.31099585"><ele>-3.6</ele><time>2022-11-14T16:45:26.0000000+00:00</time></trkpt><trkpt lat="39.46094343" lon="-0.31099585"><ele>-3.6</ele><time>2022-11-14T16:45:27.0000000+00:00</time></trkpt><trkpt lat="39.46094343" lon="-0.31099585"><ele>-3.6</ele><time>2022-11-14T16:45:28.0000000+00:00</time></trkpt><trkpt lat="39.46094343" lon="-0.31099585"><ele>-3.6</ele><time>2022-11-14T16:45:29.0000000+00:00</time></trkpt><trkpt lat="39.46094343" lon="-0.31099585"><ele>-3.6</ele><time>2022-11-14T16:45:30.0000000+00:00</time></trkpt><trkpt lat="39.46094343" lon="-0.31099585"><ele>-3.6</ele><time>2022-11-14T16:45:31.0000000+00:00</time></trkpt><trkpt lat="39.46093965" lon="-0.31099166"><ele>-3.6</ele><time>2022-11-14T16:45:32.0000000+00:00</time></trkpt><trkpt lat="39.46093865" lon="-0.31098772"><ele>-3.6</ele><time>2022-11-14T16:45:33.0000000+00:00</time></trkpt><trkpt lat="39.46093865" lon="-0.31098772"><ele>-3.6</ele><time>2022-11-14T16:45:34.0000000+00:00</time></trkpt><trkpt lat="39.46093865" lon="-0.31098772"><ele>-3.6</ele><time>2022-11-14T16:45:35.0000000+00:00</time></trkpt><trkpt lat="39.46093865" lon="-0.31098772"><ele>-3.6</ele><time>2022-11-14T16:45:36.0000000+00:00</time></trkpt><trkpt lat="39.46093865" lon="-0.31098772"><ele>-3.6</ele><time>2022-11-14T16:45:37.0000000+00:00</time></trkpt><trkpt lat="39.46093865" lon="-0.31098772"><ele>-3.6</ele><time>2022-11-14T16:45:38.0000000+00:00</time></trkpt><trkpt lat="39.46093957" lon="-0.31098403"><ele>-3.6</ele><time>2022-11-14T16:45:39.0000000+00:00</time></trkpt><trkpt lat="39.46093965" lon="-0.31097934"><ele>-3.6</ele><time>2022-11-14T16:45:40.0000000+00:00</time></trkpt><trkpt lat="39.46093965" lon="-0.31097934"><ele>-3.6</ele><time>2022-11-14T16:45:41.0000000+00:00</time></trkpt><trkpt lat="39.46093965" lon="-0.31097934"><ele>-3.6</ele><time>2022-11-14T16:45:42.0000000+00:00</time></trkpt><trkpt lat="39.46093965" lon="-0.31097934"><ele>-3.6</ele><time>2022-11-14T16:45:43.0000000+00:00</time></trkpt><trkpt lat="39.46093965" lon="-0.31097934"><ele>-3.6</ele><time>2022-11-14T16:45:44.0000000+00:00</time></trkpt><trkpt lat="39.46093965" lon="-0.31097934"><ele>-3.6</ele><time>2022-11-14T16:45:45.0000000+00:00</time></trkpt><trkpt lat="39.46093965" lon="-0.31097934"><ele>-3.6</ele><time>2022-11-14T16:45:46.0000000+00:00</time></trkpt><trkpt lat="39.46093965" lon="-0.31097934"><ele>-3.6</ele><time>2022-11-14T16:45:47.0000000+00:00</time></trkpt><trkpt lat="39.46093965" lon="-0.31097934"><ele>-3.6</ele><time>2022-11-14T16:45:48.0000000+00:00</time></trkpt><trkpt lat="39.46093965" lon="-0.31097934"><ele>-3.6</ele><time>2022-11-14T16:45:49.0000000+00:00</time></trkpt><trkpt lat="39.46093965" lon="-0.31097934"><ele>-3.6</ele><time>2022-11-14T16:45:50.0000000+00:00</time></trkpt><trkpt lat="39.46093965" lon="-0.31097934"><ele>-3.6</ele><time>2022-11-14T16:45:51.0000000+00:00</time></trkpt><trkpt lat="39.46093965" lon="-0.31097934"><ele>-3.6</ele><time>2022-11-14T16:45:52.0000000+00:00</time></trkpt><trkpt lat="39.46093965" lon="-0.31097934"><ele>-3.6</ele><time>2022-11-14T16:45:53.0000000+00:00</time></trkpt><trkpt lat="39.46093965" lon="-0.31097934"><ele>-3.6</ele><time>2022-11-14T16:45:54.0000000+00:00</time></trkpt><trkpt lat="39.46093965" lon="-0.31097934"><ele>-3.6</ele><time>2022-11-14T16:45:55.0000000+00:00</time></trkpt><trkpt lat="39.46093965" lon="-0.31097934"><ele>-3.6</ele><time>2022-11-14T16:45:56.0000000+00:00</time></trkpt><trkpt lat="39.46093965" lon="-0.31097934"><ele>-3.6</ele><time>2022-11-14T16:45:57.0000000+00:00</time></trkpt><trkpt lat="39.46093965" lon="-0.31097934"><ele>-3.6</ele><time>2022-11-14T16:45:58.0000000+00:00</time></trkpt><trkpt lat="39.46093965" lon="-0.31097934"><ele>-3.6</ele><time>2022-11-14T16:45:59.0000000+00:00</time></trkpt><trkpt lat="39.46093965" lon="-0.31097934"><ele>-3.6</ele><time>2022-11-14T16:46:00.0000000+00:00</time></trkpt><trkpt lat="39.46093965" lon="-0.31097934"><ele>-3.6</ele><time>2022-11-14T16:46:01.0000000+00:00</time></trkpt><trkpt lat="39.46093965" lon="-0.31097934"><ele>-3.6</ele><time>2022-11-14T16:46:02.0000000+00:00</time></trkpt><trkpt lat="39.46093965" lon="-0.31097934"><ele>-3.6</ele><time>2022-11-14T16:46:03.0000000+00:00</time></trkpt><trkpt lat="39.46093965" lon="-0.31097934"><ele>-3.6</ele><time>2022-11-14T16:46:04.0000000+00:00</time></trkpt><trkpt lat="39.46093965" lon="-0.31097934"><ele>-3.6</ele><time>2022-11-14T16:46:05.0000000+00:00</time></trkpt><trkpt lat="39.46093965" lon="-0.31097934"><ele>-3.6</ele><time>2022-11-14T16:46:06.0000000+00:00</time></trkpt><trkpt lat="39.46093965" lon="-0.31097934"><ele>-3.6</ele><time>2022-11-14T16:46:07.0000000+00:00</time></trkpt><trkpt lat="39.46093965" lon="-0.31097934"><ele>-3.6</ele><time>2022-11-14T16:46:08.0000000+00:00</time></trkpt><trkpt lat="39.46093965" lon="-0.31097934"><ele>-3.6</ele><time>2022-11-14T16:46:09.0000000+00:00</time></trkpt><trkpt lat="39.46093965" lon="-0.31097934"><ele>-3.6</ele><time>2022-11-14T16:46:10.0000000+00:00</time></trkpt><trkpt lat="39.46093965" lon="-0.31097934"><ele>-3.6</ele><time>2022-11-14T16:46:11.0000000+00:00</time></trkpt><trkpt lat="39.46093965" lon="-0.31097934"><ele>-3.6</ele><time>2022-11-14T16:46:12.0000000+00:00</time></trkpt><trkpt lat="39.46093965" lon="-0.31097934"><ele>-3.6</ele><time>2022-11-14T16:46:13.0000000+00:00</time></trkpt><trkpt lat="39.46093965" lon="-0.31097934"><ele>-3.6</ele><time>2022-11-14T16:46:14.0000000+00:00</time></trkpt><trkpt lat="39.46093965" lon="-0.31097934"><ele>-3.6</ele><time>2022-11-14T16:46:15.0000000+00:00</time></trkpt><trkpt lat="39.46093965" lon="-0.31097934"><ele>-3.6</ele><time>2022-11-14T16:46:16.0000000+00:00</time></trkpt><trkpt lat="39.46093965" lon="-0.31097934"><ele>-3.6</ele><time>2022-11-14T16:46:17.0000000+00:00</time></trkpt><trkpt lat="39.46093965" lon="-0.31097934"><ele>-3.6</ele><time>2022-11-14T16:46:18.0000000+00:00</time></trkpt><trkpt lat="39.46093965" lon="-0.31097934"><ele>-3.6</ele><time>2022-11-14T16:46:19.0000000+00:00</time></trkpt><trkpt lat="39.46093965" lon="-0.31097934"><ele>-3.6</ele><time>2022-11-14T16:46:20.0000000+00:00</time></trkpt><trkpt lat="39.46093965" lon="-0.31097934"><ele>-3.6</ele><time>2022-11-14T16:46:21.0000000+00:00</time></trkpt><trkpt lat="39.46093965" lon="-0.31097934"><ele>-3.6</ele><time>2022-11-14T16:46:22.0000000+00:00</time></trkpt><trkpt lat="39.46093965" lon="-0.31097934"><ele>-3.6</ele><time>2022-11-14T16:46:23.0000000+00:00</time></trkpt><trkpt lat="39.46093965" lon="-0.31097934"><ele>-3.6</ele><time>2022-11-14T16:46:24.0000000+00:00</time></trkpt><trkpt lat="39.46093965" lon="-0.31097934"><ele>-3.6</ele><time>2022-11-14T16:46:25.0000000+00:00</time></trkpt><trkpt lat="39.46093965" lon="-0.31097934"><ele>-3.6</ele><time>2022-11-14T16:46:26.0000000+00:00</time></trkpt><trkpt lat="39.46093957" lon="-0.3109785"><ele>-3.6</ele><time>2022-11-14T16:46:27.0000000+00:00</time></trkpt><trkpt lat="39.46094175" lon="-0.31097674"><ele>-3.6</ele><time>2022-11-14T16:46:28.0000000+00:00</time></trkpt><trkpt lat="39.46094175" lon="-0.31097674"><ele>-3.6</ele><time>2022-11-14T16:46:29.0000000+00:00</time></trkpt><trkpt lat="39.46094175" lon="-0.31097674"><ele>-3.6</ele><time>2022-11-14T16:46:30.0000000+00:00</time></trkpt><trkpt lat="39.46094175" lon="-0.31097674"><ele>-3.6</ele><time>2022-11-14T16:46:31.0000000+00:00</time></trkpt><trkpt lat="39.46094175" lon="-0.31097674"><ele>-3.6</ele><time>2022-11-14T16:46:32.0000000+00:00</time></trkpt><trkpt lat="39.46094175" lon="-0.31097674"><ele>-3.6</ele><time>2022-11-14T16:46:33.0000000+00:00</time></trkpt><trkpt lat="39.46094175" lon="-0.31097674"><ele>-3.6</ele><time>2022-11-14T16:46:34.0000000+00:00</time></trkpt><trkpt lat="39.46094175" lon="-0.31097674"><ele>-3.6</ele><time>2022-11-14T16:46:35.0000000+00:00</time></trkpt><trkpt lat="39.46094175" lon="-0.31097674"><ele>-3.6</ele><time>2022-11-14T16:46:36.0000000+00:00</time></trkpt><trkpt lat="39.46094175" lon="-0.31097674"><ele>-3.6</ele><time>2022-11-14T16:46:37.0000000+00:00</time></trkpt><trkpt lat="39.46094175" lon="-0.31097674"><ele>-3.6</ele><time>2022-11-14T16:46:38.0000000+00:00</time></trkpt><trkpt lat="39.46094175" lon="-0.31097674"><ele>-3.6</ele><time>2022-11-14T16:46:39.0000000+00:00</time></trkpt><trkpt lat="39.46094175" lon="-0.31097674"><ele>-3.6</ele><time>2022-11-14T16:46:40.0000000+00:00</time></trkpt><trkpt lat="39.46094175" lon="-0.31097674"><ele>-3.6</ele><time>2022-11-14T16:46:41.0000000+00:00</time></trkpt><trkpt lat="39.46094175" lon="-0.31097674"><ele>-3.6</ele><time>2022-11-14T16:46:42.0000000+00:00</time></trkpt><trkpt lat="39.46094175" lon="-0.31097674"><ele>-3.6</ele><time>2022-11-14T16:46:43.0000000+00:00</time></trkpt><trkpt lat="39.46094175" lon="-0.31097674"><ele>-3.6</ele><time>2022-11-14T16:46:44.0000000+00:00</time></trkpt><trkpt lat="39.46094175" lon="-0.31097674"><ele>-3.6</ele><time>2022-11-14T16:46:45.0000000+00:00</time></trkpt><trkpt lat="39.46094175" lon="-0.31097674"><ele>-3.6</ele><time>2022-11-14T16:46:46.0000000+00:00</time></trkpt><trkpt lat="39.46094175" lon="-0.31097674"><ele>-3.6</ele><time>2022-11-14T16:46:47.0000000+00:00</time></trkpt><trkpt lat="39.46094175" lon="-0.31097674"><ele>-3.6</ele><time>2022-11-14T16:46:48.0000000+00:00</time></trkpt><trkpt lat="39.46094175" lon="-0.31097674"><ele>-3.6</ele><time>2022-11-14T16:46:49.0000000+00:00</time></trkpt><trkpt lat="39.46094175" lon="-0.31097674"><ele>-3.6</ele><time>2022-11-14T16:46:50.0000000+00:00</time></trkpt><trkpt lat="39.46094175" lon="-0.31097674"><ele>-3.6</ele><time>2022-11-14T16:46:51.0000000+00:00</time></trkpt><trkpt lat="39.46094175" lon="-0.31097674"><ele>-3.6</ele><time>2022-11-14T16:46:52.0000000+00:00</time></trkpt><trkpt lat="39.46094175" lon="-0.31097674"><ele>-3.6</ele><time>2022-11-14T16:46:53.0000000+00:00</time></trkpt><trkpt lat="39.46094175" lon="-0.31097674"><ele>-3.6</ele><time>2022-11-14T16:46:54.0000000+00:00</time></trkpt><trkpt lat="39.46094175" lon="-0.31097674"><ele>-3.6</ele><time>2022-11-14T16:46:55.0000000+00:00</time></trkpt><trkpt lat="39.46094175" lon="-0.31097674"><ele>-3.6</ele><time>2022-11-14T16:46:56.0000000+00:00</time></trkpt><trkpt lat="39.46094175" lon="-0.31097674"><ele>-3.6</ele><time>2022-11-14T16:46:57.0000000+00:00</time></trkpt><trkpt lat="39.46094175" lon="-0.31097674"><ele>-3.6</ele><time>2022-11-14T16:46:58.0000000+00:00</time></trkpt><trkpt lat="39.46094175" lon="-0.31097674"><ele>-3.6</ele><time>2022-11-14T16:46:59.0000000+00:00</time></trkpt><trkpt lat="39.46094175" lon="-0.31097674"><ele>-3.6</ele><time>2022-11-14T16:47:00.0000000+00:00</time></trkpt><trkpt lat="39.46094175" lon="-0.31097674"><ele>-3.6</ele><time>2022-11-14T16:47:01.0000000+00:00</time></trkpt><trkpt lat="39.46094175" lon="-0.31097674"><ele>-3.6</ele><time>2022-11-14T16:47:02.0000000+00:00</time></trkpt><trkpt lat="39.46094175" lon="-0.31097674"><ele>-3.6</ele><time>2022-11-14T16:47:03.0000000+00:00</time></trkpt><trkpt lat="39.46094175" lon="-0.31097674"><ele>-3.6</ele><time>2022-11-14T16:47:04.0000000+00:00</time></trkpt><trkpt lat="39.46094175" lon="-0.31097674"><ele>-3.6</ele><time>2022-11-14T16:47:05.0000000+00:00</time></trkpt><trkpt lat="39.46094175" lon="-0.31097674"><ele>-3.6</ele><time>2022-11-14T16:47:06.0000000+00:00</time></trkpt><trkpt lat="39.46094175" lon="-0.31097674"><ele>-3.6</ele><time>2022-11-14T16:47:07.0000000+00:00</time></trkpt><trkpt lat="39.46094175" lon="-0.31097674"><ele>-3.6</ele><time>2022-11-14T16:47:08.0000000+00:00</time></trkpt><trkpt lat="39.46094175" lon="-0.31097674"><ele>-3.6</ele><time>2022-11-14T16:47:09.0000000+00:00</time></trkpt><trkpt lat="39.46094175" lon="-0.31097674"><ele>-3.6</ele><time>2022-11-14T16:47:10.0000000+00:00</time></trkpt><trkpt lat="39.46094175" lon="-0.31097674"><ele>-3.6</ele><time>2022-11-14T16:47:11.0000000+00:00</time></trkpt><trkpt lat="39.46094175" lon="-0.31097674"><ele>-3.6</ele><time>2022-11-14T16:47:12.0000000+00:00</time></trkpt><trkpt lat="39.46094175" lon="-0.31097674"><ele>-3.6</ele><time>2022-11-14T16:47:13.0000000+00:00</time></trkpt><trkpt lat="39.46094175" lon="-0.31097674"><ele>-3.6</ele><time>2022-11-14T16:47:14.0000000+00:00</time></trkpt><trkpt lat="39.46094175" lon="-0.31097674"><ele>-3.6</ele><time>2022-11-14T16:47:15.0000000+00:00</time></trkpt><trkpt lat="39.46094175" lon="-0.31097674"><ele>-3.6</ele><time>2022-11-14T16:47:16.0000000+00:00</time></trkpt><trkpt lat="39.46094175" lon="-0.31097674"><ele>-3.6</ele><time>2022-11-14T16:47:17.0000000+00:00</time></trkpt><trkpt lat="39.46094175" lon="-0.31097674"><ele>-3.6</ele><time>2022-11-14T16:47:18.0000000+00:00</time></trkpt><trkpt lat="39.46094175" lon="-0.31097674"><ele>-3.6</ele><time>2022-11-14T16:47:19.0000000+00:00</time></trkpt><trkpt lat="39.46094175" lon="-0.31097674"><ele>-3.6</ele><time>2022-11-14T16:47:20.0000000+00:00</time></trkpt><trkpt lat="39.46094175" lon="-0.31097674"><ele>-3.6</ele><time>2022-11-14T16:47:21.0000000+00:00</time></trkpt><trkpt lat="39.46094175" lon="-0.31097674"><ele>-3.6</ele><time>2022-11-14T16:47:22.0000000+00:00</time></trkpt><trkpt lat="39.46094175" lon="-0.31097674"><ele>-3.6</ele><time>2022-11-14T16:47:23.0000000+00:00</time></trkpt><trkpt lat="39.46094175" lon="-0.31097674"><ele>-3.6</ele><time>2022-11-14T16:47:24.0000000+00:00</time></trkpt><trkpt lat="39.46094175" lon="-0.31097674"><ele>-3.6</ele><time>2022-11-14T16:47:25.0000000+00:00</time></trkpt><trkpt lat="39.46094175" lon="-0.31097674"><ele>-3.6</ele><time>2022-11-14T16:47:26.0000000+00:00</time></trkpt><trkpt lat="39.46094175" lon="-0.31097674"><ele>-3.6</ele><time>2022-11-14T16:47:27.0000000+00:00</time></trkpt><trkpt lat="39.46094175" lon="-0.31097674"><ele>-3.6</ele><time>2022-11-14T16:47:28.0000000+00:00</time></trkpt><trkpt lat="39.4609394" lon="-0.31097489"><ele>-3.6</ele><time>2022-11-14T16:47:29.0000000+00:00</time></trkpt><trkpt lat="39.46094141" lon="-0.31097204"><ele>-3.6</ele><time>2022-11-14T16:47:30.0000000+00:00</time></trkpt><trkpt lat="39.46094141" lon="-0.31097204"><ele>-3.6</ele><time>2022-11-14T16:47:31.0000000+00:00</time></trkpt><trkpt lat="39.46094141" lon="-0.31097204"><ele>-3.6</ele><time>2022-11-14T16:47:32.0000000+00:00</time></trkpt><trkpt lat="39.46094141" lon="-0.31097204"><ele>-3.6</ele><time>2022-11-14T16:47:33.0000000+00:00</time></trkpt><trkpt lat="39.46094141" lon="-0.31097204"><ele>-3.6</ele><time>2022-11-14T16:47:34.0000000+00:00</time></trkpt><trkpt lat="39.46094141" lon="-0.31097204"><ele>-3.6</ele><time>2022-11-14T16:47:35.0000000+00:00</time></trkpt><trkpt lat="39.46094141" lon="-0.31097204"><ele>-3.6</ele><time>2022-11-14T16:47:36.0000000+00:00</time></trkpt><trkpt lat="39.46094141" lon="-0.31097204"><ele>-3.6</ele><time>2022-11-14T16:47:37.0000000+00:00</time></trkpt><trkpt lat="39.46094141" lon="-0.31097204"><ele>-3.6</ele><time>2022-11-14T16:47:38.0000000+00:00</time></trkpt><trkpt lat="39.46094141" lon="-0.31097204"><ele>-3.6</ele><time>2022-11-14T16:47:39.0000000+00:00</time></trkpt><trkpt lat="39.46094141" lon="-0.31097204"><ele>-3.6</ele><time>2022-11-14T16:47:40.0000000+00:00</time></trkpt><trkpt lat="39.46094141" lon="-0.31097204"><ele>-3.6</ele><time>2022-11-14T16:47:41.0000000+00:00</time></trkpt><trkpt lat="39.46094141" lon="-0.31097204"><ele>-3.6</ele><time>2022-11-14T16:47:42.0000000+00:00</time></trkpt><trkpt lat="39.46094141" lon="-0.31097204"><ele>-3.6</ele><time>2022-11-14T16:47:43.0000000+00:00</time></trkpt><trkpt lat="39.46094141" lon="-0.31097204"><ele>-3.6</ele><time>2022-11-14T16:47:44.0000000+00:00</time></trkpt><trkpt lat="39.46094141" lon="-0.31097204"><ele>-3.6</ele><time>2022-11-14T16:47:45.0000000+00:00</time></trkpt><trkpt lat="39.46094141" lon="-0.31097204"><ele>-3.6</ele><time>2022-11-14T16:47:46.0000000+00:00</time></trkpt><trkpt lat="39.46094141" lon="-0.31097204"><ele>-3.6</ele><time>2022-11-14T16:47:47.0000000+00:00</time></trkpt><trkpt lat="39.46094141" lon="-0.31097204"><ele>-3.6</ele><time>2022-11-14T16:47:48.0000000+00:00</time></trkpt><trkpt lat="39.46094141" lon="-0.31097204"><ele>-3.6</ele><time>2022-11-14T16:47:49.0000000+00:00</time></trkpt><trkpt lat="39.46094141" lon="-0.31097204"><ele>-3.6</ele><time>2022-11-14T16:47:50.0000000+00:00</time></trkpt><trkpt lat="39.46094141" lon="-0.31097204"><ele>-3.6</ele><time>2022-11-14T16:47:51.0000000+00:00</time></trkpt><trkpt lat="39.46094141" lon="-0.31097204"><ele>-3.6</ele><time>2022-11-14T16:47:52.0000000+00:00</time></trkpt><trkpt lat="39.46094141" lon="-0.31097204"><ele>-3.6</ele><time>2022-11-14T16:47:53.0000000+00:00</time></trkpt><trkpt lat="39.46094141" lon="-0.31097204"><ele>-3.6</ele><time>2022-11-14T16:47:54.0000000+00:00</time></trkpt><trkpt lat="39.46094141" lon="-0.31097204"><ele>-3.6</ele><time>2022-11-14T16:47:55.0000000+00:00</time></trkpt><trkpt lat="39.46094141" lon="-0.31097204"><ele>-3.6</ele><time>2022-11-14T16:47:56.0000000+00:00</time></trkpt><trkpt lat="39.46094141" lon="-0.31097204"><ele>-3.6</ele><time>2022-11-14T16:47:57.0000000+00:00</time></trkpt><trkpt lat="39.46094141" lon="-0.31097204"><ele>-3.6</ele><time>2022-11-14T16:47:58.0000000+00:00</time></trkpt><trkpt lat="39.46094141" lon="-0.31097204"><ele>-3.6</ele><time>2022-11-14T16:47:59.0000000+00:00</time></trkpt><trkpt lat="39.46094141" lon="-0.31097204"><ele>-3.6</ele><time>2022-11-14T16:48:00.0000000+00:00</time></trkpt><trkpt lat="39.46094141" lon="-0.31097204"><ele>-3.6</ele><time>2022-11-14T16:48:01.0000000+00:00</time></trkpt><trkpt lat="39.46094141" lon="-0.31097204"><ele>-3.6</ele><time>2022-11-14T16:48:02.0000000+00:00</time></trkpt><trkpt lat="39.46094141" lon="-0.31097204"><ele>-3.6</ele><time>2022-11-14T16:48:03.0000000+00:00</time></trkpt><trkpt lat="39.46094141" lon="-0.31097204"><ele>-3.6</ele><time>2022-11-14T16:48:04.0000000+00:00</time></trkpt><trkpt lat="39.46094141" lon="-0.31097204"><ele>-3.6</ele><time>2022-11-14T16:48:05.0000000+00:00</time></trkpt><trkpt lat="39.46094141" lon="-0.31097204"><ele>-3.6</ele><time>2022-11-14T16:48:06.0000000+00:00</time></trkpt><trkpt lat="39.46094141" lon="-0.31097204"><ele>-3.6</ele><time>2022-11-14T16:48:07.0000000+00:00</time></trkpt><trkpt lat="39.46094141" lon="-0.31097204"><ele>-3.6</ele><time>2022-11-14T16:48:08.0000000+00:00</time></trkpt><trkpt lat="39.46094141" lon="-0.31097204"><ele>-3.6</ele><time>2022-11-14T16:48:09.0000000+00:00</time></trkpt><trkpt lat="39.46094141" lon="-0.31097204"><ele>-3.6</ele><time>2022-11-14T16:48:10.0000000+00:00</time></trkpt><trkpt lat="39.46094141" lon="-0.31097204"><ele>-3.6</ele><time>2022-11-14T16:48:11.0000000+00:00</time></trkpt><trkpt lat="39.46094141" lon="-0.31097204"><ele>-3.6</ele><time>2022-11-14T16:48:12.0000000+00:00</time></trkpt><trkpt lat="39.46094141" lon="-0.31097204"><ele>-3.6</ele><time>2022-11-14T16:48:13.0000000+00:00</time></trkpt><trkpt lat="39.46094141" lon="-0.31097204"><ele>-3.6</ele><time>2022-11-14T16:48:14.0000000+00:00</time></trkpt><trkpt lat="39.46094141" lon="-0.31097204"><ele>-3.6</ele><time>2022-11-14T16:48:15.0000000+00:00</time></trkpt><trkpt lat="39.46094141" lon="-0.31097204"><ele>-3.6</ele><time>2022-11-14T16:48:16.0000000+00:00</time></trkpt><trkpt lat="39.46094141" lon="-0.31097204"><ele>-3.6</ele><time>2022-11-14T16:48:17.0000000+00:00</time></trkpt><trkpt lat="39.46094141" lon="-0.31097204"><ele>-3.6</ele><time>2022-11-14T16:48:18.0000000+00:00</time></trkpt><trkpt lat="39.46094141" lon="-0.31097204"><ele>-3.6</ele><time>2022-11-14T16:48:19.0000000+00:00</time></trkpt><trkpt lat="39.46094141" lon="-0.31097204"><ele>-3.6</ele><time>2022-11-14T16:48:20.0000000+00:00</time></trkpt><trkpt lat="39.46094141" lon="-0.31097204"><ele>-3.6</ele><time>2022-11-14T16:48:21.0000000+00:00</time></trkpt><trkpt lat="39.46094141" lon="-0.31097204"><ele>-3.6</ele><time>2022-11-14T16:48:22.0000000+00:00</time></trkpt><trkpt lat="39.46094141" lon="-0.31097204"><ele>-3.6</ele><time>2022-11-14T16:48:23.0000000+00:00</time></trkpt><trkpt lat="39.46094141" lon="-0.31097204"><ele>-3.6</ele><time>2022-11-14T16:48:24.0000000+00:00</time></trkpt><trkpt lat="39.46094141" lon="-0.31097204"><ele>-3.6</ele><time>2022-11-14T16:48:25.0000000+00:00</time></trkpt><trkpt lat="39.46094141" lon="-0.31097204"><ele>-3.6</ele><time>2022-11-14T16:48:26.0000000+00:00</time></trkpt><trkpt lat="39.46094141" lon="-0.31097204"><ele>-3.6</ele><time>2022-11-14T16:48:27.0000000+00:00</time></trkpt><trkpt lat="39.46094141" lon="-0.31097204"><ele>-3.6</ele><time>2022-11-14T16:48:28.0000000+00:00</time></trkpt><trkpt lat="39.46094141" lon="-0.31097204"><ele>-3.6</ele><time>2022-11-14T16:48:29.0000000+00:00</time></trkpt><trkpt lat="39.46094141" lon="-0.31097204"><ele>-3.6</ele><time>2022-11-14T16:48:30.0000000+00:00</time></trkpt><trkpt lat="39.46094141" lon="-0.31097204"><ele>-3.6</ele><time>2022-11-14T16:48:31.0000000+00:00</time></trkpt><trkpt lat="39.46094141" lon="-0.31097204"><ele>-3.6</ele><time>2022-11-14T16:48:32.0000000+00:00</time></trkpt><trkpt lat="39.46094141" lon="-0.31097204"><ele>-3.6</ele><time>2022-11-14T16:48:33.0000000+00:00</time></trkpt><trkpt lat="39.46094141" lon="-0.31097204"><ele>-3.6</ele><time>2022-11-14T16:48:34.0000000+00:00</time></trkpt><trkpt lat="39.46094141" lon="-0.31097204"><ele>-3.6</ele><time>2022-11-14T16:48:35.0000000+00:00</time></trkpt><trkpt lat="39.46094141" lon="-0.31097204"><ele>-3.6</ele><time>2022-11-14T16:48:36.0000000+00:00</time></trkpt><trkpt lat="39.46094141" lon="-0.31097204"><ele>-3.6</ele><time>2022-11-14T16:48:37.0000000+00:00</time></trkpt><trkpt lat="39.46094141" lon="-0.31097204"><ele>-3.6</ele><time>2022-11-14T16:48:38.0000000+00:00</time></trkpt><trkpt lat="39.46094141" lon="-0.31097204"><ele>-3.6</ele><time>2022-11-14T16:48:39.0000000+00:00</time></trkpt><trkpt lat="39.46094141" lon="-0.31097204"><ele>-3.6</ele><time>2022-11-14T16:48:40.0000000+00:00</time></trkpt><trkpt lat="39.46094141" lon="-0.31097204"><ele>-3.6</ele><time>2022-11-14T16:48:41.0000000+00:00</time></trkpt><trkpt lat="39.46094141" lon="-0.31097204"><ele>-3.6</ele><time>2022-11-14T16:48:42.0000000+00:00</time></trkpt><trkpt lat="39.46094141" lon="-0.31097204"><ele>-3.6</ele><time>2022-11-14T16:48:43.0000000+00:00</time></trkpt><trkpt lat="39.46094141" lon="-0.31097204"><ele>-3.6</ele><time>2022-11-14T16:48:44.0000000+00:00</time></trkpt><trkpt lat="39.46094141" lon="-0.31097204"><ele>-3.6</ele><time>2022-11-14T16:48:45.0000000+00:00</time></trkpt><trkpt lat="39.46094141" lon="-0.31097204"><ele>-3.6</ele><time>2022-11-14T16:48:46.0000000+00:00</time></trkpt><trkpt lat="39.46094141" lon="-0.31097204"><ele>-3.6</ele><time>2022-11-14T16:48:47.0000000+00:00</time></trkpt><trkpt lat="39.46094141" lon="-0.31097204"><ele>-3.6</ele><time>2022-11-14T16:48:48.0000000+00:00</time></trkpt><trkpt lat="39.46094141" lon="-0.31097204"><ele>-3.6</ele><time>2022-11-14T16:48:49.0000000+00:00</time></trkpt><trkpt lat="39.46094141" lon="-0.31097204"><ele>-3.6</ele><time>2022-11-14T16:48:50.0000000+00:00</time></trkpt><trkpt lat="39.46094141" lon="-0.31097204"><ele>-3.6</ele><time>2022-11-14T16:48:51.0000000+00:00</time></trkpt><trkpt lat="39.46094141" lon="-0.31097204"><ele>-3.6</ele><time>2022-11-14T16:48:52.0000000+00:00</time></trkpt><trkpt lat="39.46094141" lon="-0.31097204"><ele>-3.6</ele><time>2022-11-14T16:48:53.0000000+00:00</time></trkpt><trkpt lat="39.46094141" lon="-0.31097204"><ele>-3.6</ele><time>2022-11-14T16:48:54.0000000+00:00</time></trkpt><trkpt lat="39.46094141" lon="-0.31097204"><ele>-3.6</ele><time>2022-11-14T16:48:55.0000000+00:00</time></trkpt><trkpt lat="39.46094141" lon="-0.31097204"><ele>-3.6</ele><time>2022-11-14T16:48:56.0000000+00:00</time></trkpt><trkpt lat="39.46094141" lon="-0.31097204"><ele>-3.6</ele><time>2022-11-14T16:48:57.0000000+00:00</time></trkpt><trkpt lat="39.46094141" lon="-0.31097204"><ele>-3.6</ele><time>2022-11-14T16:48:58.0000000+00:00</time></trkpt><trkpt lat="39.46094141" lon="-0.31097204"><ele>-3.6</ele><time>2022-11-14T16:48:59.0000000+00:00</time></trkpt><trkpt lat="39.46094141" lon="-0.31097204"><ele>-3.6</ele><time>2022-11-14T16:49:00.0000000+00:00</time></trkpt><trkpt lat="39.46094141" lon="-0.31097204"><ele>-3.6</ele><time>2022-11-14T16:49:01.0000000+00:00</time></trkpt><trkpt lat="39.46094141" lon="-0.31097204"><ele>-3.6</ele><time>2022-11-14T16:49:02.0000000+00:00</time></trkpt><trkpt lat="39.46094141" lon="-0.31097204"><ele>-3.6</ele><time>2022-11-14T16:49:03.0000000+00:00</time></trkpt><trkpt lat="39.46094141" lon="-0.31097204"><ele>-3.6</ele><time>2022-11-14T16:49:04.0000000+00:00</time></trkpt><trkpt lat="39.46094141" lon="-0.31097204"><ele>-3.6</ele><time>2022-11-14T16:49:05.0000000+00:00</time></trkpt><trkpt lat="39.46094141" lon="-0.31097204"><ele>-3.6</ele><time>2022-11-14T16:49:06.0000000+00:00</time></trkpt><trkpt lat="39.46094141" lon="-0.31097204"><ele>-3.6</ele><time>2022-11-14T16:49:07.0000000+00:00</time></trkpt><trkpt lat="39.46094141" lon="-0.31097204"><ele>-3.6</ele><time>2022-11-14T16:49:08.0000000+00:00</time></trkpt><trkpt lat="39.46094141" lon="-0.31097204"><ele>-3.6</ele><time>2022-11-14T16:49:09.0000000+00:00</time></trkpt><trkpt lat="39.46094141" lon="-0.31097204"><ele>-3.6</ele><time>2022-11-14T16:49:10.0000000+00:00</time></trkpt><trkpt lat="39.46094141" lon="-0.31097204"><ele>-3.6</ele><time>2022-11-14T16:49:11.0000000+00:00</time></trkpt><trkpt lat="39.46094141" lon="-0.31097204"><ele>-3.6</ele><time>2022-11-14T16:49:12.0000000+00:00</time></trkpt><trkpt lat="39.46094141" lon="-0.31097204"><ele>-3.6</ele><time>2022-11-14T16:49:13.0000000+00:00</time></trkpt><trkpt lat="39.46094141" lon="-0.31097204"><ele>-3.6</ele><time>2022-11-14T16:49:14.0000000+00:00</time></trkpt><trkpt lat="39.46094141" lon="-0.31097204"><ele>-3.6</ele><time>2022-11-14T16:49:15.0000000+00:00</time></trkpt><trkpt lat="39.46094141" lon="-0.31097204"><ele>-3.6</ele><time>2022-11-14T16:49:16.0000000+00:00</time></trkpt><trkpt lat="39.46094141" lon="-0.31097204"><ele>-3.6</ele><time>2022-11-14T16:49:17.0000000+00:00</time></trkpt><trkpt lat="39.46094141" lon="-0.31097204"><ele>-3.6</ele><time>2022-11-14T16:49:18.0000000+00:00</time></trkpt><trkpt lat="39.46094141" lon="-0.31097204"><ele>-3.6</ele><time>2022-11-14T16:49:19.0000000+00:00</time></trkpt><trkpt lat="39.46094141" lon="-0.31097204"><ele>-3.6</ele><time>2022-11-14T16:49:20.0000000+00:00</time></trkpt><trkpt lat="39.46094141" lon="-0.31097204"><ele>-3.6</ele><time>2022-11-14T16:49:21.0000000+00:00</time></trkpt><trkpt lat="39.46094141" lon="-0.31097204"><ele>-3.6</ele><time>2022-11-14T16:49:22.0000000+00:00</time></trkpt><trkpt lat="39.46094141" lon="-0.31097204"><ele>-3.6</ele><time>2022-11-14T16:49:23.0000000+00:00</time></trkpt><trkpt lat="39.46094141" lon="-0.31097204"><ele>-3.6</ele><time>2022-11-14T16:49:24.0000000+00:00</time></trkpt><trkpt lat="39.46094141" lon="-0.31097204"><ele>-3.6</ele><time>2022-11-14T16:49:25.0000000+00:00</time></trkpt><trkpt lat="39.46094141" lon="-0.31097204"><ele>-3.6</ele><time>2022-11-14T16:49:26.0000000+00:00</time></trkpt><trkpt lat="39.46094141" lon="-0.31097204"><ele>-3.6</ele><time>2022-11-14T16:49:27.0000000+00:00</time></trkpt><trkpt lat="39.46094141" lon="-0.31097204"><ele>-3.6</ele><time>2022-11-14T16:49:28.0000000+00:00</time></trkpt><trkpt lat="39.46094141" lon="-0.31097204"><ele>-3.6</ele><time>2022-11-14T16:49:29.0000000+00:00</time></trkpt><trkpt lat="39.46094141" lon="-0.31097204"><ele>-3.6</ele><time>2022-11-14T16:49:30.0000000+00:00</time></trkpt><trkpt lat="39.46094141" lon="-0.31097204"><ele>-3.6</ele><time>2022-11-14T16:49:31.0000000+00:00</time></trkpt><trkpt lat="39.46094141" lon="-0.31097204"><ele>-3.6</ele><time>2022-11-14T16:49:32.0000000+00:00</time></trkpt><trkpt lat="39.46094141" lon="-0.31097204"><ele>-3.6</ele><time>2022-11-14T16:49:33.0000000+00:00</time></trkpt><trkpt lat="39.46094141" lon="-0.31097204"><ele>-3.6</ele><time>2022-11-14T16:49:34.0000000+00:00</time></trkpt><trkpt lat="39.46094141" lon="-0.31097204"><ele>-3.6</ele><time>2022-11-14T16:49:35.0000000+00:00</time></trkpt><trkpt lat="39.46094141" lon="-0.31097204"><ele>-3.6</ele><time>2022-11-14T16:49:36.0000000+00:00</time></trkpt><trkpt lat="39.46094141" lon="-0.31097204"><ele>-3.6</ele><time>2022-11-14T16:49:37.0000000+00:00</time></trkpt><trkpt lat="39.46094141" lon="-0.31097204"><ele>-3.6</ele><time>2022-11-14T16:49:38.0000000+00:00</time></trkpt><trkpt lat="39.46094141" lon="-0.31097204"><ele>-3.6</ele><time>2022-11-14T16:49:39.0000000+00:00</time></trkpt><trkpt lat="39.46094141" lon="-0.31097204"><ele>-3.6</ele><time>2022-11-14T16:49:40.0000000+00:00</time></trkpt><trkpt lat="39.46094141" lon="-0.31097204"><ele>-3.6</ele><time>2022-11-14T16:49:41.0000000+00:00</time></trkpt><trkpt lat="39.46094141" lon="-0.31097204"><ele>-3.6</ele><time>2022-11-14T16:49:42.0000000+00:00</time></trkpt><trkpt lat="39.46094141" lon="-0.31097204"><ele>-3.6</ele><time>2022-11-14T16:49:43.0000000+00:00</time></trkpt><trkpt lat="39.46094141" lon="-0.31097204"><ele>-3.6</ele><time>2022-11-14T16:49:44.0000000+00:00</time></trkpt><trkpt lat="39.46094141" lon="-0.31097204"><ele>-3.6</ele><time>2022-11-14T16:49:45.0000000+00:00</time></trkpt><trkpt lat="39.46094141" lon="-0.31097204"><ele>-3.6</ele><time>2022-11-14T16:49:46.0000000+00:00</time></trkpt><trkpt lat="39.46094141" lon="-0.31097204"><ele>-3.6</ele><time>2022-11-14T16:49:47.0000000+00:00</time></trkpt><trkpt lat="39.46094141" lon="-0.31097204"><ele>-3.6</ele><time>2022-11-14T16:49:48.0000000+00:00</time></trkpt><trkpt lat="39.46094141" lon="-0.31097204"><ele>-3.6</ele><time>2022-11-14T16:49:49.0000000+00:00</time></trkpt><trkpt lat="39.46094141" lon="-0.31097204"><ele>-3.6</ele><time>2022-11-14T16:49:50.0000000+00:00</time></trkpt><trkpt lat="39.46094141" lon="-0.31097204"><ele>-3.6</ele><time>2022-11-14T16:49:51.0000000+00:00</time></trkpt><trkpt lat="39.46094141" lon="-0.31097204"><ele>-3.6</ele><time>2022-11-14T16:49:52.0000000+00:00</time></trkpt><trkpt lat="39.46094141" lon="-0.31097204"><ele>-3.6</ele><time>2022-11-14T16:49:53.0000000+00:00</time></trkpt><trkpt lat="39.46094141" lon="-0.31097204"><ele>-3.6</ele><time>2022-11-14T16:49:54.0000000+00:00</time></trkpt><trkpt lat="39.46094141" lon="-0.31097204"><ele>-3.6</ele><time>2022-11-14T16:49:55.0000000+00:00</time></trkpt><trkpt lat="39.46094141" lon="-0.31097204"><ele>-3.6</ele><time>2022-11-14T16:49:56.0000000+00:00</time></trkpt><trkpt lat="39.46094141" lon="-0.31097204"><ele>-3.6</ele><time>2022-11-14T16:49:57.0000000+00:00</time></trkpt><trkpt lat="39.46094141" lon="-0.31097204"><ele>-3.6</ele><time>2022-11-14T16:49:58.0000000+00:00</time></trkpt><trkpt lat="39.46094141" lon="-0.31097204"><ele>-3.6</ele><time>2022-11-14T16:49:59.0000000+00:00</time></trkpt><trkpt lat="39.46094141" lon="-0.31097204"><ele>-3.6</ele><time>2022-11-14T16:50:00.0000000+00:00</time></trkpt><trkpt lat="39.46094141" lon="-0.31097204"><ele>-3.6</ele><time>2022-11-14T16:50:01.0000000+00:00</time></trkpt><trkpt lat="39.46094141" lon="-0.31097204"><ele>-3.6</ele><time>2022-11-14T16:50:02.0000000+00:00</time></trkpt><trkpt lat="39.46094141" lon="-0.31097204"><ele>-3.6</ele><time>2022-11-14T16:50:03.0000000+00:00</time></trkpt><trkpt lat="39.46094141" lon="-0.31097204"><ele>-3.6</ele><time>2022-11-14T16:50:04.0000000+00:00</time></trkpt><trkpt lat="39.46094141" lon="-0.31097204"><ele>-3.6</ele><time>2022-11-14T16:50:05.0000000+00:00</time></trkpt><trkpt lat="39.46094141" lon="-0.31097204"><ele>-3.6</ele><time>2022-11-14T16:50:06.0000000+00:00</time></trkpt><trkpt lat="39.46094141" lon="-0.31097204"><ele>-3.6</ele><time>2022-11-14T16:50:07.0000000+00:00</time></trkpt><trkpt lat="39.46094141" lon="-0.31097204"><ele>-3.6</ele><time>2022-11-14T16:50:08.0000000+00:00</time></trkpt><trkpt lat="39.46094141" lon="-0.31097204"><ele>-3.6</ele><time>2022-11-14T16:50:09.0000000+00:00</time></trkpt><trkpt lat="39.46094141" lon="-0.31097204"><ele>-3.6</ele><time>2022-11-14T16:50:10.0000000+00:00</time></trkpt><trkpt lat="39.46094141" lon="-0.31097204"><ele>-3.6</ele><time>2022-11-14T16:50:11.0000000+00:00</time></trkpt><trkpt lat="39.46094141" lon="-0.31097204"><ele>-3.6</ele><time>2022-11-14T16:50:12.0000000+00:00</time></trkpt><trkpt lat="39.46094141" lon="-0.31097204"><ele>-3.6</ele><time>2022-11-14T16:50:13.0000000+00:00</time></trkpt><trkpt lat="39.46094141" lon="-0.31097204"><ele>-3.6</ele><time>2022-11-14T16:50:14.0000000+00:00</time></trkpt><trkpt lat="39.46094141" lon="-0.31097204"><ele>-3.6</ele><time>2022-11-14T16:50:15.0000000+00:00</time></trkpt><trkpt lat="39.46094141" lon="-0.31097204"><ele>-3.6</ele><time>2022-11-14T16:50:16.0000000+00:00</time></trkpt><trkpt lat="39.46094141" lon="-0.31097204"><ele>-3.6</ele><time>2022-11-14T16:50:17.0000000+00:00</time></trkpt><trkpt lat="39.46094141" lon="-0.31097204"><ele>-3.6</ele><time>2022-11-14T16:50:18.0000000+00:00</time></trkpt><trkpt lat="39.46094141" lon="-0.31097204"><ele>-3.6</ele><time>2022-11-14T16:50:19.0000000+00:00</time></trkpt><trkpt lat="39.46094401" lon="-0.31097096"><ele>-3.6</ele><time>2022-11-14T16:50:20.0000000+00:00</time></trkpt><trkpt lat="39.46094804" lon="-0.31096484"><ele>-3.6</ele><time>2022-11-14T16:50:21.0000000+00:00</time></trkpt><trkpt lat="39.46095466" lon="-0.31096199"><ele>-3.6</ele><time>2022-11-14T16:50:22.0000000+00:00</time></trkpt><trkpt lat="39.46096321" lon="-0.31095939"><ele>-3.6</ele><time>2022-11-14T16:50:23.0000000+00:00</time></trkpt><trkpt lat="39.46097712" lon="-0.3109671"><ele>-3.6</ele><time>2022-11-14T16:50:24.0000000+00:00</time></trkpt><trkpt lat="39.46099179" lon="-0.31097942"><ele>-3.6</ele><time>2022-11-14T16:50:25.0000000+00:00</time></trkpt><trkpt lat="39.46100805" lon="-0.3109925"><ele>-3.6</ele><time>2022-11-14T16:50:26.0000000+00:00</time></trkpt><trkpt lat="39.46102314" lon="-0.31101035"><ele>-3.6</ele><time>2022-11-14T16:50:27.0000000+00:00</time></trkpt><trkpt lat="39.46104007" lon="-0.31102368"><ele>-3.6</ele><time>2022-11-14T16:50:28.0000000+00:00</time></trkpt><trkpt lat="39.46105759" lon="-0.31103441"><ele>-3.8</ele><time>2022-11-14T16:50:29.0000000+00:00</time></trkpt><trkpt lat="39.46107854" lon="-0.31104304"><ele>-3.8</ele><time>2022-11-14T16:50:30.0000000+00:00</time></trkpt><trkpt lat="39.46110084" lon="-0.31104924"><ele>-4.0</ele><time>2022-11-14T16:50:31.0000000+00:00</time></trkpt><trkpt lat="39.46112573" lon="-0.31105394"><ele>-4.0</ele><time>2022-11-14T16:50:32.0000000+00:00</time></trkpt><trkpt lat="39.46114702" lon="-0.31106559"><ele>-4.0</ele><time>2022-11-14T16:50:33.0000000+00:00</time></trkpt><trkpt lat="39.46116814" lon="-0.3110831"><ele>-4.0</ele><time>2022-11-14T16:50:34.0000000+00:00</time></trkpt><trkpt lat="39.46119094" lon="-0.3111023"><ele>-4.0</ele><time>2022-11-14T16:50:35.0000000+00:00</time></trkpt><trkpt lat="39.46121533" lon="-0.31112242"><ele>-4.2</ele><time>2022-11-14T16:50:36.0000000+00:00</time></trkpt><trkpt lat="39.46124249" lon="-0.31113826"><ele>-4.2</ele><time>2022-11-14T16:50:37.0000000+00:00</time></trkpt><trkpt lat="39.46126806" lon="-0.31115812"><ele>-4.4</ele><time>2022-11-14T16:50:38.0000000+00:00</time></trkpt><trkpt lat="39.46129974" lon="-0.31117556"><ele>-4.4</ele><time>2022-11-14T16:50:39.0000000+00:00</time></trkpt><trkpt lat="39.4613367" lon="-0.31118964"><ele>-4.4</ele><time>2022-11-14T16:50:40.0000000+00:00</time></trkpt><trkpt lat="39.4613699" lon="-0.31121085"><ele>-4.4</ele><time>2022-11-14T16:50:41.0000000+00:00</time></trkpt><trkpt lat="39.46140359" lon="-0.31123683"><ele>-4.6</ele><time>2022-11-14T16:50:42.0000000+00:00</time></trkpt><trkpt lat="39.46143586" lon="-0.31127002"><ele>-4.6</ele><time>2022-11-14T16:50:43.0000000+00:00</time></trkpt><trkpt lat="39.46146629" lon="-0.31130112"><ele>-4.8</ele><time>2022-11-14T16:50:44.0000000+00:00</time></trkpt><trkpt lat="39.46149915" lon="-0.31132601"><ele>-5.0</ele><time>2022-11-14T16:50:45.0000000+00:00</time></trkpt><trkpt lat="39.46152999" lon="-0.31134713"><ele>-5.2</ele><time>2022-11-14T16:50:46.0000000+00:00</time></trkpt><trkpt lat="39.46155673" lon="-0.31136641"><ele>-5.2</ele><time>2022-11-14T16:50:47.0000000+00:00</time></trkpt><trkpt lat="39.46158992" lon="-0.31139391"><ele>-5.2</ele><time>2022-11-14T16:50:48.0000000+00:00</time></trkpt><trkpt lat="39.46161096" lon="-0.3114136"><ele>-5.2</ele><time>2022-11-14T16:50:49.0000000+00:00</time></trkpt><trkpt lat="39.46163594" lon="-0.31143732"><ele>-5.2</ele><time>2022-11-14T16:50:50.0000000+00:00</time></trkpt><trkpt lat="39.4616615" lon="-0.31146046"><ele>-5.2</ele><time>2022-11-14T16:50:51.0000000+00:00</time></trkpt><trkpt lat="39.46168824" lon="-0.31148368"><ele>-5.4</ele><time>2022-11-14T16:50:52.0000000+00:00</time></trkpt><trkpt lat="39.46171523" lon="-0.31150036"><ele>-5.4</ele><time>2022-11-14T16:50:53.0000000+00:00</time></trkpt><trkpt lat="39.46174105" lon="-0.31151595"><ele>-5.4</ele><time>2022-11-14T16:50:54.0000000+00:00</time></trkpt><trkpt lat="39.46176779" lon="-0.31153606"><ele>-5.4</ele><time>2022-11-14T16:50:55.0000000+00:00</time></trkpt><trkpt lat="39.46179243" lon="-0.31155727"><ele>-5.4</ele><time>2022-11-14T16:50:56.0000000+00:00</time></trkpt><trkpt lat="39.4618164" lon="-0.31158309"><ele>-5.4</ele><time>2022-11-14T16:50:57.0000000+00:00</time></trkpt><trkpt lat="39.4618485" lon="-0.31161225"><ele>-5.4</ele><time>2022-11-14T16:50:58.0000000+00:00</time></trkpt><trkpt lat="39.46187072" lon="-0.31163028"><ele>-5.4</ele><time>2022-11-14T16:50:59.0000000+00:00</time></trkpt><trkpt lat="39.46190357" lon="-0.31165928"><ele>-5.4</ele><time>2022-11-14T16:51:00.0000000+00:00</time></trkpt><trkpt lat="39.46192511" lon="-0.31167612"><ele>-5.4</ele><time>2022-11-14T16:51:01.0000000+00:00</time></trkpt><trkpt lat="39.46195445" lon="-0.31169565"><ele>-5.4</ele><time>2022-11-14T16:51:02.0000000+00:00</time></trkpt><trkpt lat="39.46199267" lon="-0.31171552"><ele>-5.4</ele><time>2022-11-14T16:51:03.0000000+00:00</time></trkpt><trkpt lat="39.46202511" lon="-0.31173312"><ele>-5.2</ele><time>2022-11-14T16:51:04.0000000+00:00</time></trkpt><trkpt lat="39.46205202" lon="-0.31174636"><ele>-5.2</ele><time>2022-11-14T16:51:05.0000000+00:00</time></trkpt><trkpt lat="39.46209326" lon="-0.31176556"><ele>-5.2</ele><time>2022-11-14T16:51:06.0000000+00:00</time></trkpt><trkpt lat="39.46212804" lon="-0.31178257"><ele>-5.2</ele><time>2022-11-14T16:51:07.0000000+00:00</time></trkpt><trkpt lat="39.46216391" lon="-0.31179867"><ele>-5.2</ele><time>2022-11-14T16:51:08.0000000+00:00</time></trkpt><trkpt lat="39.46218772" lon="-0.31181334"><ele>-5.2</ele><time>2022-11-14T16:51:09.0000000+00:00</time></trkpt><trkpt lat="39.46222267" lon="-0.311841"><ele>-5.2</ele><time>2022-11-14T16:51:10.0000000+00:00</time></trkpt><trkpt lat="39.46224421" lon="-0.31186212"><ele>-5.2</ele><time>2022-11-14T16:51:11.0000000+00:00</time></trkpt><trkpt lat="39.46227196" lon="-0.31188333"><ele>-5.0</ele><time>2022-11-14T16:51:12.0000000+00:00</time></trkpt><trkpt lat="39.46229149" lon="-0.31190872"><ele>-5.0</ele><time>2022-11-14T16:51:13.0000000+00:00</time></trkpt><trkpt lat="39.4623049" lon="-0.31194594"><ele>-5.0</ele><time>2022-11-14T16:51:14.0000000+00:00</time></trkpt><trkpt lat="39.46230481" lon="-0.31199036"><ele>-5.0</ele><time>2022-11-14T16:51:15.0000000+00:00</time></trkpt><trkpt lat="39.46229953" lon="-0.3120368"><ele>-5.0</ele><time>2022-11-14T16:51:16.0000000+00:00</time></trkpt><trkpt lat="39.46229224" lon="-0.312072"><ele>-5.2</ele><time>2022-11-14T16:51:17.0000000+00:00</time></trkpt><trkpt lat="39.46228922" lon="-0.31211182"><ele>-5.2</ele><time>2022-11-14T16:51:18.0000000+00:00</time></trkpt><trkpt lat="39.4622966" lon="-0.31216085"><ele>-5.2</ele><time>2022-11-14T16:51:19.0000000+00:00</time></trkpt><trkpt lat="39.46230548" lon="-0.31219798"><ele>-5.2</ele><time>2022-11-14T16:51:20.0000000+00:00</time></trkpt><trkpt lat="39.46232166" lon="-0.31224014"><ele>-5.2</ele><time>2022-11-14T16:51:21.0000000+00:00</time></trkpt><trkpt lat="39.46233214" lon="-0.3122792"><ele>-5.2</ele><time>2022-11-14T16:51:22.0000000+00:00</time></trkpt><trkpt lat="39.46234572" lon="-0.31231734"><ele>-5.4</ele><time>2022-11-14T16:51:23.0000000+00:00</time></trkpt><trkpt lat="39.46236743" lon="-0.31236847"><ele>-5.4</ele><time>2022-11-14T16:51:24.0000000+00:00</time></trkpt><trkpt lat="39.46238218" lon="-0.31241197"><ele>-5.4</ele><time>2022-11-14T16:51:25.0000000+00:00</time></trkpt><trkpt lat="39.46239173" lon="-0.31244986"><ele>-5.2</ele><time>2022-11-14T16:51:26.0000000+00:00</time></trkpt><trkpt lat="39.46239693" lon="-0.31249864"><ele>-5.2</ele><time>2022-11-14T16:51:27.0000000+00:00</time></trkpt><trkpt lat="39.4623976" lon="-0.3125382"><ele>-5.2</ele><time>2022-11-14T16:51:28.0000000+00:00</time></trkpt><trkpt lat="39.46240389" lon="-0.3125698"><ele>-5.2</ele><time>2022-11-14T16:51:29.0000000+00:00</time></trkpt><trkpt lat="39.46240615" lon="-0.31260459"><ele>-5.0</ele><time>2022-11-14T16:51:30.0000000+00:00</time></trkpt><trkpt lat="39.46241034" lon="-0.31264641"><ele>-5.0</ele><time>2022-11-14T16:51:31.0000000+00:00</time></trkpt><trkpt lat="39.46242241" lon="-0.31269017"><ele>-5.0</ele><time>2022-11-14T16:51:32.0000000+00:00</time></trkpt><trkpt lat="39.46242468" lon="-0.31271841"><ele>-5.0</ele><time>2022-11-14T16:51:33.0000000+00:00</time></trkpt><trkpt lat="39.46242945" lon="-0.3127646"><ele>-5.0</ele><time>2022-11-14T16:51:34.0000000+00:00</time></trkpt><trkpt lat="39.46243255" lon="-0.31280668"><ele>-5.0</ele><time>2022-11-14T16:51:35.0000000+00:00</time></trkpt><trkpt lat="39.46243465" lon="-0.31284884"><ele>-5.0</ele><time>2022-11-14T16:51:36.0000000+00:00</time></trkpt><trkpt lat="39.46243784" lon="-0.31288949"><ele>-5.0</ele><time>2022-11-14T16:51:37.0000000+00:00</time></trkpt><trkpt lat="39.46243641" lon="-0.3129205"><ele>-4.8</ele><time>2022-11-14T16:51:38.0000000+00:00</time></trkpt><trkpt lat="39.4624344" lon="-0.31296241"><ele>-4.8</ele><time>2022-11-14T16:51:39.0000000+00:00</time></trkpt><trkpt lat="39.46243323" lon="-0.31300415"><ele>-4.8</ele><time>2022-11-14T16:51:40.0000000+00:00</time></trkpt><trkpt lat="39.46243784" lon="-0.31304514"><ele>-4.8</ele><time>2022-11-14T16:51:41.0000000+00:00</time></trkpt><trkpt lat="39.46244831" lon="-0.31308034"><ele>-4.8</ele><time>2022-11-14T16:51:42.0000000+00:00</time></trkpt><trkpt lat="39.46246089" lon="-0.3131122"><ele>-4.8</ele><time>2022-11-14T16:51:43.0000000+00:00</time></trkpt><trkpt lat="39.46246415" lon="-0.31315067"><ele>-4.8</ele><time>2022-11-14T16:51:44.0000000+00:00</time></trkpt><trkpt lat="39.46246055" lon="-0.313193"><ele>-4.8</ele><time>2022-11-14T16:51:45.0000000+00:00</time></trkpt><trkpt lat="39.4624582" lon="-0.31323516"><ele>-4.8</ele><time>2022-11-14T16:51:46.0000000+00:00</time></trkpt><trkpt lat="39.4624613" lon="-0.31327615"><ele>-4.8</ele><time>2022-11-14T16:51:47.0000000+00:00</time></trkpt><trkpt lat="39.46246508" lon="-0.31331512"><ele>-4.8</ele><time>2022-11-14T16:51:48.0000000+00:00</time></trkpt><trkpt lat="39.46246868" lon="-0.31335812"><ele>-4.8</ele><time>2022-11-14T16:51:49.0000000+00:00</time></trkpt><trkpt lat="39.46247044" lon="-0.31340255"><ele>-4.8</ele><time>2022-11-14T16:51:50.0000000+00:00</time></trkpt><trkpt lat="39.46246835" lon="-0.31344781"><ele>-4.8</ele><time>2022-11-14T16:51:51.0000000+00:00</time></trkpt><trkpt lat="39.46246457" lon="-0.31349449"><ele>-4.8</ele><time>2022-11-14T16:51:52.0000000+00:00</time></trkpt><trkpt lat="39.46246382" lon="-0.31353691"><ele>-4.8</ele><time>2022-11-14T16:51:53.0000000+00:00</time></trkpt><trkpt lat="39.46246323" lon="-0.31357991"><ele>-4.8</ele><time>2022-11-14T16:51:54.0000000+00:00</time></trkpt><trkpt lat="39.4624598" lon="-0.31362374"><ele>-4.8</ele><time>2022-11-14T16:51:55.0000000+00:00</time></trkpt><trkpt lat="39.46246147" lon="-0.31366758"><ele>-4.8</ele><time>2022-11-14T16:51:56.0000000+00:00</time></trkpt><trkpt lat="39.46246491" lon="-0.31371201"><ele>-4.8</ele><time>2022-11-14T16:51:57.0000000+00:00</time></trkpt><trkpt lat="39.46246927" lon="-0.31375576"><ele>-4.8</ele><time>2022-11-14T16:51:58.0000000+00:00</time></trkpt><trkpt lat="39.46247304" lon="-0.31379893"><ele>-4.8</ele><time>2022-11-14T16:51:59.0000000+00:00</time></trkpt><trkpt lat="39.46247798" lon="-0.31384218"><ele>-4.8</ele><time>2022-11-14T16:52:00.0000000+00:00</time></trkpt><trkpt lat="39.46248058" lon="-0.31388786"><ele>-4.8</ele><time>2022-11-14T16:52:01.0000000+00:00</time></trkpt><trkpt lat="39.46247815" lon="-0.3139363"><ele>-4.8</ele><time>2022-11-14T16:52:02.0000000+00:00</time></trkpt><trkpt lat="39.46247572" lon="-0.31398618"><ele>-4.8</ele><time>2022-11-14T16:52:03.0000000+00:00</time></trkpt><trkpt lat="39.46247874" lon="-0.3140306"><ele>-4.8</ele><time>2022-11-14T16:52:04.0000000+00:00</time></trkpt><trkpt lat="39.46248042" lon="-0.31407075"><ele>-4.8</ele><time>2022-11-14T16:52:05.0000000+00:00</time></trkpt><trkpt lat="39.46248201" lon="-0.31411316"><ele>-4.6</ele><time>2022-11-14T16:52:06.0000000+00:00</time></trkpt><trkpt lat="39.46248192" lon="-0.31416002"><ele>-4.6</ele><time>2022-11-14T16:52:07.0000000+00:00</time></trkpt><trkpt lat="39.46248134" lon="-0.31420721"><ele>-4.6</ele><time>2022-11-14T16:52:08.0000000+00:00</time></trkpt><trkpt lat="39.4624857" lon="-0.3142539"><ele>-4.6</ele><time>2022-11-14T16:52:09.0000000+00:00</time></trkpt><trkpt lat="39.46250179" lon="-0.3142927"><ele>-4.6</ele><time>2022-11-14T16:52:10.0000000+00:00</time></trkpt><trkpt lat="39.46251637" lon="-0.31433713"><ele>-4.6</ele><time>2022-11-14T16:52:11.0000000+00:00</time></trkpt><trkpt lat="39.4625235" lon="-0.31437334"><ele>-4.6</ele><time>2022-11-14T16:52:12.0000000+00:00</time></trkpt><trkpt lat="39.46252191" lon="-0.31440594"><ele>-4.6</ele><time>2022-11-14T16:52:13.0000000+00:00</time></trkpt><trkpt lat="39.46251964" lon="-0.31444626"><ele>-4.6</ele><time>2022-11-14T16:52:14.0000000+00:00</time></trkpt><trkpt lat="39.46251906" lon="-0.31448716"><ele>-4.6</ele><time>2022-11-14T16:52:15.0000000+00:00</time></trkpt><trkpt lat="39.46251604" lon="-0.31453301"><ele>-4.6</ele><time>2022-11-14T16:52:16.0000000+00:00</time></trkpt><trkpt lat="39.46251604" lon="-0.31457517"><ele>-4.6</ele><time>2022-11-14T16:52:17.0000000+00:00</time></trkpt><trkpt lat="39.46252006" lon="-0.31461641"><ele>-4.6</ele><time>2022-11-14T16:52:18.0000000+00:00</time></trkpt><trkpt lat="39.46252098" lon="-0.31465673"><ele>-4.6</ele><time>2022-11-14T16:52:19.0000000+00:00</time></trkpt><trkpt lat="39.46252149" lon="-0.31470275"><ele>-4.6</ele><time>2022-11-14T16:52:20.0000000+00:00</time></trkpt><trkpt lat="39.46251805" lon="-0.31475228"><ele>-4.6</ele><time>2022-11-14T16:52:21.0000000+00:00</time></trkpt><trkpt lat="39.46251889" lon="-0.31480207"><ele>-4.8</ele><time>2022-11-14T16:52:22.0000000+00:00</time></trkpt><trkpt lat="39.46251847" lon="-0.31485396"><ele>-4.8</ele><time>2022-11-14T16:52:23.0000000+00:00</time></trkpt><trkpt lat="39.46251151" lon="-0.31490701"><ele>-4.8</ele><time>2022-11-14T16:52:24.0000000+00:00</time></trkpt><trkpt lat="39.46250849" lon="-0.31495487"><ele>-4.6</ele><time>2022-11-14T16:52:25.0000000+00:00</time></trkpt><trkpt lat="39.46251252" lon="-0.31499888"><ele>-4.6</ele><time>2022-11-14T16:52:26.0000000+00:00</time></trkpt><trkpt lat="39.46251771" lon="-0.31504154"><ele>-4.6</ele><time>2022-11-14T16:52:27.0000000+00:00</time></trkpt><trkpt lat="39.462523" lon="-0.31508639"><ele>-4.6</ele><time>2022-11-14T16:52:28.0000000+00:00</time></trkpt><trkpt lat="39.46252819" lon="-0.31512871"><ele>-4.6</ele><time>2022-11-14T16:52:29.0000000+00:00</time></trkpt><trkpt lat="39.46253322" lon="-0.31517322"><ele>-4.6</ele><time>2022-11-14T16:52:30.0000000+00:00</time></trkpt><trkpt lat="39.46254093" lon="-0.31521848"><ele>-4.6</ele><time>2022-11-14T16:52:31.0000000+00:00</time></trkpt><trkpt lat="39.46255024" lon="-0.31526098"><ele>-4.6</ele><time>2022-11-14T16:52:32.0000000+00:00</time></trkpt><trkpt lat="39.46255602" lon="-0.31530608"><ele>-4.6</ele><time>2022-11-14T16:52:33.0000000+00:00</time></trkpt><trkpt lat="39.4625582" lon="-0.31535016"><ele>-4.6</ele><time>2022-11-14T16:52:34.0000000+00:00</time></trkpt><trkpt lat="39.46255644" lon="-0.31539031"><ele>-4.6</ele><time>2022-11-14T16:52:35.0000000+00:00</time></trkpt><trkpt lat="39.46254982" lon="-0.31542854"><ele>-4.6</ele><time>2022-11-14T16:52:36.0000000+00:00</time></trkpt><trkpt lat="39.46254764" lon="-0.31546474"><ele>-4.6</ele><time>2022-11-14T16:52:37.0000000+00:00</time></trkpt><trkpt lat="39.46254638" lon="-0.31550297"><ele>-4.8</ele><time>2022-11-14T16:52:38.0000000+00:00</time></trkpt><trkpt lat="39.4625525" lon="-0.31554043"><ele>-4.8</ele><time>2022-11-14T16:52:39.0000000+00:00</time></trkpt><trkpt lat="39.46255744" lon="-0.31558335"><ele>-4.8</ele><time>2022-11-14T16:52:40.0000000+00:00</time></trkpt><trkpt lat="39.46256465" lon="-0.31563121"><ele>-4.8</ele><time>2022-11-14T16:52:41.0000000+00:00</time></trkpt><trkpt lat="39.46256926" lon="-0.31568184"><ele>-4.6</ele><time>2022-11-14T16:52:42.0000000+00:00</time></trkpt><trkpt lat="39.46257312" lon="-0.31573221"><ele>-4.6</ele><time>2022-11-14T16:52:43.0000000+00:00</time></trkpt><trkpt lat="39.4625753" lon="-0.31578083"><ele>-4.6</ele><time>2022-11-14T16:52:44.0000000+00:00</time></trkpt><trkpt lat="39.46257714" lon="-0.31582785"><ele>-4.6</ele><time>2022-11-14T16:52:45.0000000+00:00</time></trkpt><trkpt lat="39.46257396" lon="-0.31588015"><ele>-4.6</ele><time>2022-11-14T16:52:46.0000000+00:00</time></trkpt><trkpt lat="39.46257094" lon="-0.31593011"><ele>-4.6</ele><time>2022-11-14T16:52:47.0000000+00:00</time></trkpt><trkpt lat="39.462567" lon="-0.3159768"><ele>-4.6</ele><time>2022-11-14T16:52:48.0000000+00:00</time></trkpt><trkpt lat="39.46256507" lon="-0.31602415"><ele>-4.6</ele><time>2022-11-14T16:52:49.0000000+00:00</time></trkpt><trkpt lat="39.46256398" lon="-0.31607118"><ele>-4.6</ele><time>2022-11-14T16:52:50.0000000+00:00</time></trkpt><trkpt lat="39.4625649" lon="-0.31611954"><ele>-4.6</ele><time>2022-11-14T16:52:51.0000000+00:00</time></trkpt><trkpt lat="39.46256692" lon="-0.31616799"><ele>-4.6</ele><time>2022-11-14T16:52:52.0000000+00:00</time></trkpt><trkpt lat="39.46257169" lon="-0.31621249"><ele>-4.6</ele><time>2022-11-14T16:52:53.0000000+00:00</time></trkpt><trkpt lat="39.46258158" lon="-0.31625591"><ele>-4.6</ele><time>2022-11-14T16:52:54.0000000+00:00</time></trkpt><trkpt lat="39.46258552" lon="-0.31630159"><ele>-4.6</ele><time>2022-11-14T16:52:55.0000000+00:00</time></trkpt><trkpt lat="39.46258628" lon="-0.31635138"><ele>-4.6</ele><time>2022-11-14T16:52:56.0000000+00:00</time></trkpt><trkpt lat="39.46258703" lon="-0.31640209"><ele>-4.6</ele><time>2022-11-14T16:52:57.0000000+00:00</time></trkpt><trkpt lat="39.46259089" lon="-0.31645456"><ele>-4.6</ele><time>2022-11-14T16:52:58.0000000+00:00</time></trkpt><trkpt lat="39.46259374" lon="-0.31650553"><ele>-4.6</ele><time>2022-11-14T16:52:59.0000000+00:00</time></trkpt><trkpt lat="39.46259583" lon="-0.31655523"><ele>-4.6</ele><time>2022-11-14T16:53:00.0000000+00:00</time></trkpt><trkpt lat="39.46259935" lon="-0.31660083"><ele>-4.6</ele><time>2022-11-14T16:53:01.0000000+00:00</time></trkpt><trkpt lat="39.46260086" lon="-0.31664475"><ele>-4.4</ele><time>2022-11-14T16:53:02.0000000+00:00</time></trkpt><trkpt lat="39.46260128" lon="-0.31668993"><ele>-4.4</ele><time>2022-11-14T16:53:03.0000000+00:00</time></trkpt><trkpt lat="39.46260187" lon="-0.31673511"><ele>-4.4</ele><time>2022-11-14T16:53:04.0000000+00:00</time></trkpt><trkpt lat="39.46259961" lon="-0.31678037"><ele>-4.4</ele><time>2022-11-14T16:53:05.0000000+00:00</time></trkpt><trkpt lat="39.46259734" lon="-0.31682069"><ele>-4.4</ele><time>2022-11-14T16:53:06.0000000+00:00</time></trkpt><trkpt lat="39.46259684" lon="-0.31686436"><ele>-4.4</ele><time>2022-11-14T16:53:07.0000000+00:00</time></trkpt><trkpt lat="39.46259852" lon="-0.31689906"><ele>-4.4</ele><time>2022-11-14T16:53:08.0000000+00:00</time></trkpt><trkpt lat="39.46259818" lon="-0.31692806"><ele>-3.2</ele><time>2022-11-14T16:53:09.0000000+00:00</time></trkpt><trkpt lat="39.46259785" lon="-0.31696787"><ele>-3.2</ele><time>2022-11-14T16:53:10.0000000+00:00</time></trkpt><trkpt lat="39.46259642" lon="-0.31700064"><ele>-3.2</ele><time>2022-11-14T16:53:11.0000000+00:00</time></trkpt><trkpt lat="39.46259315" lon="-0.31703367"><ele>-3.2</ele><time>2022-11-14T16:53:12.0000000+00:00</time></trkpt><trkpt lat="39.46258561" lon="-0.31706837"><ele>-3.2</ele><time>2022-11-14T16:53:13.0000000+00:00</time></trkpt><trkpt lat="39.46257991" lon="-0.31710324"><ele>-3.2</ele><time>2022-11-14T16:53:14.0000000+00:00</time></trkpt><trkpt lat="39.46257589" lon="-0.31714045"><ele>-3.2</ele><time>2022-11-14T16:53:15.0000000+00:00</time></trkpt><trkpt lat="39.46257169" lon="-0.31717784"><ele>-3.2</ele><time>2022-11-14T16:53:16.0000000+00:00</time></trkpt><trkpt lat="39.46256734" lon="-0.31721505"><ele>-3.2</ele><time>2022-11-14T16:53:17.0000000+00:00</time></trkpt><trkpt lat="39.46256314" lon="-0.31724992"><ele>-3.2</ele><time>2022-11-14T16:53:18.0000000+00:00</time></trkpt><trkpt lat="39.46255334" lon="-0.31728094"><ele>-3.2</ele><time>2022-11-14T16:53:19.0000000+00:00</time></trkpt><trkpt lat="39.46254621" lon="-0.3173153"><ele>-3.2</ele><time>2022-11-14T16:53:20.0000000+00:00</time></trkpt><trkpt lat="39.46254253" lon="-0.31734799"><ele>-3.2</ele><time>2022-11-14T16:53:21.0000000+00:00</time></trkpt><trkpt lat="39.46254194" lon="-0.31737716"><ele>-3.2</ele><time>2022-11-14T16:53:22.0000000+00:00</time></trkpt><trkpt lat="39.46254504" lon="-0.31740859"><ele>-3.2</ele><time>2022-11-14T16:53:23.0000000+00:00</time></trkpt><trkpt lat="39.46254655" lon="-0.31744262"><ele>-3.2</ele><time>2022-11-14T16:53:24.0000000+00:00</time></trkpt><trkpt lat="39.46254873" lon="-0.31747866"><ele>-3.2</ele><time>2022-11-14T16:53:25.0000000+00:00</time></trkpt><trkpt lat="39.46255292" lon="-0.3175127"><ele>-3.2</ele><time>2022-11-14T16:53:26.0000000+00:00</time></trkpt><trkpt lat="39.46255426" lon="-0.3175474"><ele>-3.2</ele><time>2022-11-14T16:53:27.0000000+00:00</time></trkpt><trkpt lat="39.46255367" lon="-0.31758495"><ele>-3.2</ele><time>2022-11-14T16:53:28.0000000+00:00</time></trkpt><trkpt lat="39.46255367" lon="-0.31762308"><ele>-3.2</ele><time>2022-11-14T16:53:29.0000000+00:00</time></trkpt><trkpt lat="39.46255451" lon="-0.31766474"><ele>-3.0</ele><time>2022-11-14T16:53:30.0000000+00:00</time></trkpt><trkpt lat="39.46255602" lon="-0.31770866"><ele>-3.0</ele><time>2022-11-14T16:53:31.0000000+00:00</time></trkpt><trkpt lat="39.46255418" lon="-0.31775502"><ele>-3.0</ele><time>2022-11-14T16:53:32.0000000+00:00</time></trkpt><trkpt lat="39.46254839" lon="-0.31780656"><ele>-3.0</ele><time>2022-11-14T16:53:33.0000000+00:00</time></trkpt><trkpt lat="39.46254714" lon="-0.31785501"><ele>-3.0</ele><time>2022-11-14T16:53:34.0000000+00:00</time></trkpt><trkpt lat="39.46254588" lon="-0.31789893"><ele>-3.2</ele><time>2022-11-14T16:53:35.0000000+00:00</time></trkpt><trkpt lat="39.46254839" lon="-0.31794"><ele>-3.0</ele><time>2022-11-14T16:53:36.0000000+00:00</time></trkpt><trkpt lat="39.46255233" lon="-0.3179763"><ele>-3.0</ele><time>2022-11-14T16:53:37.0000000+00:00</time></trkpt><trkpt lat="39.46255778" lon="-0.31801628"><ele>-3.0</ele><time>2022-11-14T16:53:38.0000000+00:00</time></trkpt><trkpt lat="39.46256273" lon="-0.31805802"><ele>-3.2</ele><time>2022-11-14T16:53:39.0000000+00:00</time></trkpt><trkpt lat="39.46256574" lon="-0.31810169"><ele>-3.2</ele><time>2022-11-14T16:53:40.0000000+00:00</time></trkpt><trkpt lat="39.46256977" lon="-0.31814243"><ele>-3.2</ele><time>2022-11-14T16:53:41.0000000+00:00</time></trkpt><trkpt lat="39.46257387" lon="-0.31818308"><ele>-3.2</ele><time>2022-11-14T16:53:42.0000000+00:00</time></trkpt><trkpt lat="39.46257991" lon="-0.31822532"><ele>-3.2</ele><time>2022-11-14T16:53:43.0000000+00:00</time></trkpt><trkpt lat="39.46258578" lon="-0.31826883"><ele>-3.2</ele><time>2022-11-14T16:53:44.0000000+00:00</time></trkpt><trkpt lat="39.46258837" lon="-0.31831761"><ele>-3.2</ele><time>2022-11-14T16:53:45.0000000+00:00</time></trkpt><trkpt lat="39.46258921" lon="-0.31836748"><ele>-3.2</ele><time>2022-11-14T16:53:46.0000000+00:00</time></trkpt><trkpt lat="39.46258628" lon="-0.31841794"><ele>-3.2</ele><time>2022-11-14T16:53:47.0000000+00:00</time></trkpt><trkpt lat="39.46258477" lon="-0.31846899"><ele>-3.2</ele><time>2022-11-14T16:53:48.0000000+00:00</time></trkpt><trkpt lat="39.46258712" lon="-0.31851777"><ele>-3.2</ele><time>2022-11-14T16:53:49.0000000+00:00</time></trkpt><trkpt lat="39.46259416" lon="-0.31855876"><ele>-3.2</ele><time>2022-11-14T16:53:50.0000000+00:00</time></trkpt><trkpt lat="39.46259944" lon="-0.31860326"><ele>-3.2</ele><time>2022-11-14T16:53:51.0000000+00:00</time></trkpt><trkpt lat="39.46260254" lon="-0.31865305"><ele>-3.2</ele><time>2022-11-14T16:53:52.0000000+00:00</time></trkpt><trkpt lat="39.46260715" lon="-0.31870569"><ele>-3.2</ele><time>2022-11-14T16:53:53.0000000+00:00</time></trkpt><trkpt lat="39.46260983" lon="-0.31875623"><ele>-3.2</ele><time>2022-11-14T16:53:54.0000000+00:00</time></trkpt><trkpt lat="39.46261285" lon="-0.31880502"><ele>-3.2</ele><time>2022-11-14T16:53:55.0000000+00:00</time></trkpt><trkpt lat="39.46261386" lon="-0.31885422"><ele>-3.2</ele><time>2022-11-14T16:53:56.0000000+00:00</time></trkpt><trkpt lat="39.46261478" lon="-0.31890049"><ele>-3.0</ele><time>2022-11-14T16:53:57.0000000+00:00</time></trkpt><trkpt lat="39.4626105" lon="-0.31894533"><ele>-3.0</ele><time>2022-11-14T16:53:58.0000000+00:00</time></trkpt><trkpt lat="39.46260044" lon="-0.31898288"><ele>-3.0</ele><time>2022-11-14T16:53:59.0000000+00:00</time></trkpt><trkpt lat="39.46258058" lon="-0.31901591"><ele>-2.8</ele><time>2022-11-14T16:54:00.0000000+00:00</time></trkpt><trkpt lat="39.462553" lon="-0.31904273"><ele>-2.6</ele><time>2022-11-14T16:54:01.0000000+00:00</time></trkpt><trkpt lat="39.46251989" lon="-0.31906117"><ele>-2.6</ele><time>2022-11-14T16:54:02.0000000+00:00</time></trkpt><trkpt lat="39.46248519" lon="-0.31907659"><ele>-2.4</ele><time>2022-11-14T16:54:03.0000000+00:00</time></trkpt><trkpt lat="39.46245158" lon="-0.31909637"><ele>-2.2</ele><time>2022-11-14T16:54:04.0000000+00:00</time></trkpt><trkpt lat="39.4624297" lon="-0.31912806"><ele>-2.2</ele><time>2022-11-14T16:54:05.0000000+00:00</time></trkpt><trkpt lat="39.46242996" lon="-0.31916586"><ele>-2.2</ele><time>2022-11-14T16:54:06.0000000+00:00</time></trkpt><trkpt lat="39.46243951" lon="-0.31920374"><ele>-2.2</ele><time>2022-11-14T16:54:07.0000000+00:00</time></trkpt><trkpt lat="39.46244664" lon="-0.31924549"><ele>-2.2</ele><time>2022-11-14T16:54:08.0000000+00:00</time></trkpt><trkpt lat="39.46245569" lon="-0.31928949"><ele>-2.2</ele><time>2022-11-14T16:54:09.0000000+00:00</time></trkpt><trkpt lat="39.46246868" lon="-0.31933702"><ele>-2.2</ele><time>2022-11-14T16:54:10.0000000+00:00</time></trkpt><trkpt lat="39.46249022" lon="-0.31938412"><ele>-2.2</ele><time>2022-11-14T16:54:11.0000000+00:00</time></trkpt><trkpt lat="39.46251227" lon="-0.31941329"><ele>-2.2</ele><time>2022-11-14T16:54:12.0000000+00:00</time></trkpt><trkpt lat="39.46255208" lon="-0.31944229"><ele>-2.2</ele><time>2022-11-14T16:54:13.0000000+00:00</time></trkpt><trkpt lat="39.46258837" lon="-0.31945386"><ele>-2.2</ele><time>2022-11-14T16:54:14.0000000+00:00</time></trkpt><trkpt lat="39.46261989" lon="-0.31946576"><ele>-2.2</ele><time>2022-11-14T16:54:15.0000000+00:00</time></trkpt><trkpt lat="39.46264646" lon="-0.31948647"><ele>-2.0</ele><time>2022-11-14T16:54:16.0000000+00:00</time></trkpt><trkpt lat="39.46266566" lon="-0.31952041"><ele>-2.0</ele><time>2022-11-14T16:54:17.0000000+00:00</time></trkpt><trkpt lat="39.46267672" lon="-0.3195609"><ele>-1.8</ele><time>2022-11-14T16:54:18.0000000+00:00</time></trkpt><trkpt lat="39.46268401" lon="-0.31959753"><ele>-1.8</ele><time>2022-11-14T16:54:19.0000000+00:00</time></trkpt><trkpt lat="39.46268711" lon="-0.31962636"><ele>-1.8</ele><time>2022-11-14T16:54:20.0000000+00:00</time></trkpt><trkpt lat="39.46268259" lon="-0.31965779"><ele>-1.6</ele><time>2022-11-14T16:54:21.0000000+00:00</time></trkpt><trkpt lat="39.46267881" lon="-0.31969467"><ele>-1.6</ele><time>2022-11-14T16:54:22.0000000+00:00</time></trkpt><trkpt lat="39.46268007" lon="-0.31973734"><ele>-1.6</ele><time>2022-11-14T16:54:23.0000000+00:00</time></trkpt><trkpt lat="39.46268192" lon="-0.31978352"><ele>-1.6</ele><time>2022-11-14T16:54:24.0000000+00:00</time></trkpt><trkpt lat="39.46268451" lon="-0.3198313"><ele>-1.4</ele><time>2022-11-14T16:54:25.0000000+00:00</time></trkpt><trkpt lat="39.46268803" lon="-0.31988184"><ele>-1.6</ele><time>2022-11-14T16:54:26.0000000+00:00</time></trkpt><trkpt lat="39.46269608" lon="-0.31993624"><ele>-1.6</ele><time>2022-11-14T16:54:27.0000000+00:00</time></trkpt><trkpt lat="39.4627001" lon="-0.31999148"><ele>-1.6</ele><time>2022-11-14T16:54:28.0000000+00:00</time></trkpt><trkpt lat="39.46270094" lon="-0.32004529"><ele>-1.6</ele><time>2022-11-14T16:54:29.0000000+00:00</time></trkpt><trkpt lat="39.46270203" lon="-0.32009667"><ele>-1.6</ele><time>2022-11-14T16:54:30.0000000+00:00</time></trkpt><trkpt lat="39.46270178" lon="-0.32015341"><ele>-1.6</ele><time>2022-11-14T16:54:31.0000000+00:00</time></trkpt><trkpt lat="39.46270145" lon="-0.32021117"><ele>-1.8</ele><time>2022-11-14T16:54:32.0000000+00:00</time></trkpt><trkpt lat="39.46270111" lon="-0.32026724"><ele>-1.8</ele><time>2022-11-14T16:54:33.0000000+00:00</time></trkpt><trkpt lat="39.46269675" lon="-0.32032298"><ele>-1.8</ele><time>2022-11-14T16:54:34.0000000+00:00</time></trkpt><trkpt lat="39.46268686" lon="-0.32038249"><ele>-1.6</ele><time>2022-11-14T16:54:35.0000000+00:00</time></trkpt><trkpt lat="39.46267781" lon="-0.32044284"><ele>-1.6</ele><time>2022-11-14T16:54:36.0000000+00:00</time></trkpt><trkpt lat="39.46267387" lon="-0.32050369"><ele>-1.6</ele><time>2022-11-14T16:54:37.0000000+00:00</time></trkpt><trkpt lat="39.46267529" lon="-0.3205648"><ele>-1.6</ele><time>2022-11-14T16:54:38.0000000+00:00</time></trkpt><trkpt lat="39.46268267" lon="-0.32062288"><ele>-1.6</ele><time>2022-11-14T16:54:39.0000000+00:00</time></trkpt><trkpt lat="39.46269197" lon="-0.32068072"><ele>-1.6</ele><time>2022-11-14T16:54:40.0000000+00:00</time></trkpt><trkpt lat="39.46270061" lon="-0.32073897"><ele>-2.0</ele><time>2022-11-14T16:54:41.0000000+00:00</time></trkpt><trkpt lat="39.46270723" lon="-0.32079597"><ele>-2.0</ele><time>2022-11-14T16:54:42.0000000+00:00</time></trkpt><trkpt lat="39.46271192" lon="-0.32085448"><ele>-2.0</ele><time>2022-11-14T16:54:43.0000000+00:00</time></trkpt><trkpt lat="39.46271796" lon="-0.3209155"><ele>-2.0</ele><time>2022-11-14T16:54:44.0000000+00:00</time></trkpt><trkpt lat="39.46272592" lon="-0.32097912"><ele>-2.0</ele><time>2022-11-14T16:54:45.0000000+00:00</time></trkpt><trkpt lat="39.4627307" lon="-0.32104273"><ele>-2.0</ele><time>2022-11-14T16:54:46.0000000+00:00</time></trkpt><trkpt lat="39.46273288" lon="-0.32110375"><ele>-2.0</ele><time>2022-11-14T16:54:47.0000000+00:00</time></trkpt><trkpt lat="39.46273372" lon="-0.32116268"><ele>-1.8</ele><time>2022-11-14T16:54:48.0000000+00:00</time></trkpt><trkpt lat="39.46273464" lon="-0.32122051"><ele>-1.8</ele><time>2022-11-14T16:54:49.0000000+00:00</time></trkpt><trkpt lat="39.46273011" lon="-0.3212791"><ele>-1.8</ele><time>2022-11-14T16:54:50.0000000+00:00</time></trkpt><trkpt lat="39.46272483" lon="-0.32133585"><ele>-1.8</ele><time>2022-11-14T16:54:51.0000000+00:00</time></trkpt><trkpt lat="39.46272022" lon="-0.32139561"><ele>-1.8</ele><time>2022-11-14T16:54:52.0000000+00:00</time></trkpt><trkpt lat="39.46272072" lon="-0.32145378"><ele>-1.8</ele><time>2022-11-14T16:54:53.0000000+00:00</time></trkpt><trkpt lat="39.46272257" lon="-0.32151296"><ele>-1.8</ele><time>2022-11-14T16:54:54.0000000+00:00</time></trkpt><trkpt lat="39.46272223" lon="-0.32157264"><ele>-1.6</ele><time>2022-11-14T16:54:55.0000000+00:00</time></trkpt><trkpt lat="39.46271678" lon="-0.32163072"><ele>-1.6</ele><time>2022-11-14T16:54:56.0000000+00:00</time></trkpt><trkpt lat="39.46271092" lon="-0.32168814"><ele>-1.6</ele><time>2022-11-14T16:54:57.0000000+00:00</time></trkpt><trkpt lat="39.46270689" lon="-0.3217453"><ele>-1.6</ele><time>2022-11-14T16:54:58.0000000+00:00</time></trkpt><trkpt lat="39.46270019" lon="-0.32180356"><ele>-1.6</ele><time>2022-11-14T16:54:59.0000000+00:00</time></trkpt><trkpt lat="39.46269508" lon="-0.32186257"><ele>-1.6</ele><time>2022-11-14T16:55:00.0000000+00:00</time></trkpt><trkpt lat="39.46268921" lon="-0.32192426"><ele>-1.6</ele><time>2022-11-14T16:55:01.0000000+00:00</time></trkpt><trkpt lat="39.46268544" lon="-0.32198519"><ele>-1.6</ele><time>2022-11-14T16:55:02.0000000+00:00</time></trkpt><trkpt lat="39.46268032" lon="-0.32204513"><ele>-1.6</ele><time>2022-11-14T16:55:03.0000000+00:00</time></trkpt><trkpt lat="39.46267194" lon="-0.32210656"><ele>-1.6</ele><time>2022-11-14T16:55:04.0000000+00:00</time></trkpt><trkpt lat="39.46266582" lon="-0.32215627"><ele>-1.6</ele><time>2022-11-14T16:55:05.0000000+00:00</time></trkpt><trkpt lat="39.46265811" lon="-0.32223238"><ele>-1.6</ele><time>2022-11-14T16:55:06.0000000+00:00</time></trkpt><trkpt lat="39.4626509" lon="-0.32229566"><ele>-1.6</ele><time>2022-11-14T16:55:07.0000000+00:00</time></trkpt><trkpt lat="39.46264152" lon="-0.32235651"><ele>-1.6</ele><time>2022-11-14T16:55:08.0000000+00:00</time></trkpt><trkpt lat="39.46263355" lon="-0.32241745"><ele>-1.8</ele><time>2022-11-14T16:55:09.0000000+00:00</time></trkpt><trkpt lat="39.46262291" lon="-0.32247981"><ele>-1.8</ele><time>2022-11-14T16:55:10.0000000+00:00</time></trkpt><trkpt lat="39.46261344" lon="-0.32253899"><ele>-1.8</ele><time>2022-11-14T16:55:11.0000000+00:00</time></trkpt><trkpt lat="39.46260111" lon="-0.32260051"><ele>-1.8</ele><time>2022-11-14T16:55:12.0000000+00:00</time></trkpt><trkpt lat="39.46258703" lon="-0.32265072"><ele>-1.8</ele><time>2022-11-14T16:55:13.0000000+00:00</time></trkpt><trkpt lat="39.46257144" lon="-0.32271358"><ele>-2.0</ele><time>2022-11-14T16:55:14.0000000+00:00</time></trkpt><trkpt lat="39.46255485" lon="-0.32279304"><ele>-2.0</ele><time>2022-11-14T16:55:15.0000000+00:00</time></trkpt><trkpt lat="39.4625385" lon="-0.32285758"><ele>-2.0</ele><time>2022-11-14T16:55:16.0000000+00:00</time></trkpt><trkpt lat="39.46251897" lon="-0.32291701"><ele>-2.0</ele><time>2022-11-14T16:55:17.0000000+00:00</time></trkpt><trkpt lat="39.46250564" lon="-0.32297418"><ele>-2.0</ele><time>2022-11-14T16:55:18.0000000+00:00</time></trkpt><trkpt lat="39.46249332" lon="-0.32302916"><ele>-2.0</ele><time>2022-11-14T16:55:19.0000000+00:00</time></trkpt><trkpt lat="39.46247882" lon="-0.32308146"><ele>-2.0</ele><time>2022-11-14T16:55:20.0000000+00:00</time></trkpt><trkpt lat="39.46246281" lon="-0.32313536"><ele>-2.2</ele><time>2022-11-14T16:55:21.0000000+00:00</time></trkpt><trkpt lat="39.46244278" lon="-0.32318708"><ele>-2.2</ele><time>2022-11-14T16:55:22.0000000+00:00</time></trkpt><trkpt lat="39.46242627" lon="-0.32323938"><ele>-2.2</ele><time>2022-11-14T16:55:23.0000000+00:00</time></trkpt><trkpt lat="39.4624111" lon="-0.32329126"><ele>-2.2</ele><time>2022-11-14T16:55:24.0000000+00:00</time></trkpt><trkpt lat="39.46239618" lon="-0.32333946"><ele>-2.2</ele><time>2022-11-14T16:55:25.0000000+00:00</time></trkpt><trkpt lat="39.46237958" lon="-0.32338514"><ele>-2.2</ele><time>2022-11-14T16:55:26.0000000+00:00</time></trkpt><trkpt lat="39.46236097" lon="-0.32343283"><ele>-2.2</ele><time>2022-11-14T16:55:27.0000000+00:00</time></trkpt><trkpt lat="39.46234203" lon="-0.32348128"><ele>-2.2</ele><time>2022-11-14T16:55:28.0000000+00:00</time></trkpt><trkpt lat="39.46232434" lon="-0.32353132"><ele>-2.4</ele><time>2022-11-14T16:55:29.0000000+00:00</time></trkpt><trkpt lat="39.46230699" lon="-0.32358262"><ele>-2.4</ele><time>2022-11-14T16:55:30.0000000+00:00</time></trkpt><trkpt lat="39.46228646" lon="-0.32363475"><ele>-2.4</ele><time>2022-11-14T16:55:31.0000000+00:00</time></trkpt><trkpt lat="39.46226492" lon="-0.32368681"><ele>-2.4</ele><time>2022-11-14T16:55:32.0000000+00:00</time></trkpt><trkpt lat="39.46224421" lon="-0.3237371"><ele>-2.4</ele><time>2022-11-14T16:55:33.0000000+00:00</time></trkpt><trkpt lat="39.46222468" lon="-0.32378739"><ele>-2.4</ele><time>2022-11-14T16:55:34.0000000+00:00</time></trkpt><trkpt lat="39.46220649" lon="-0.32384003"><ele>-2.4</ele><time>2022-11-14T16:55:35.0000000+00:00</time></trkpt><trkpt lat="39.46218847" lon="-0.32389292"><ele>-2.4</ele><time>2022-11-14T16:55:36.0000000+00:00</time></trkpt><trkpt lat="39.46217355" lon="-0.32393893"><ele>-2.4</ele><time>2022-11-14T16:55:37.0000000+00:00</time></trkpt><trkpt lat="39.46215679" lon="-0.32398654"><ele>-2.4</ele><time>2022-11-14T16:55:38.0000000+00:00</time></trkpt><trkpt lat="39.46213843" lon="-0.32403231"><ele>-2.4</ele><time>2022-11-14T16:55:39.0000000+00:00</time></trkpt><trkpt lat="39.46212226" lon="-0.32407782"><ele>-2.4</ele><time>2022-11-14T16:55:40.0000000+00:00</time></trkpt><trkpt lat="39.46210608" lon="-0.32412669"><ele>-2.4</ele><time>2022-11-14T16:55:41.0000000+00:00</time></trkpt><trkpt lat="39.46209694" lon="-0.32417656"><ele>-2.4</ele><time>2022-11-14T16:55:42.0000000+00:00</time></trkpt><trkpt lat="39.4620956" lon="-0.32422015"><ele>-2.4</ele><time>2022-11-14T16:55:43.0000000+00:00</time></trkpt><trkpt lat="39.46209091" lon="-0.32428435"><ele>-2.4</ele><time>2022-11-14T16:55:44.0000000+00:00</time></trkpt><trkpt lat="39.46208638" lon="-0.32433062"><ele>-2.6</ele><time>2022-11-14T16:55:45.0000000+00:00</time></trkpt><trkpt lat="39.46208663" lon="-0.32436633"><ele>-2.6</ele><time>2022-11-14T16:55:46.0000000+00:00</time></trkpt><trkpt lat="39.46208923" lon="-0.32442173"><ele>-2.6</ele><time>2022-11-14T16:55:47.0000000+00:00</time></trkpt><trkpt lat="39.46209175" lon="-0.32445978"><ele>-2.8</ele><time>2022-11-14T16:55:48.0000000+00:00</time></trkpt><trkpt lat="39.46209476" lon="-0.32451653"><ele>-2.8</ele><time>2022-11-14T16:55:49.0000000+00:00</time></trkpt><trkpt lat="39.46209862" lon="-0.32455307"><ele>-2.8</ele><time>2022-11-14T16:55:50.0000000+00:00</time></trkpt><trkpt lat="39.46210147" lon="-0.3246006"><ele>-2.8</ele><time>2022-11-14T16:55:51.0000000+00:00</time></trkpt><trkpt lat="39.4621044" lon="-0.32464888"><ele>-2.8</ele><time>2022-11-14T16:55:52.0000000+00:00</time></trkpt><trkpt lat="39.46210876" lon="-0.32470764"><ele>-2.8</ele><time>2022-11-14T16:55:53.0000000+00:00</time></trkpt><trkpt lat="39.46211631" lon="-0.32475868"><ele>-2.8</ele><time>2022-11-14T16:55:54.0000000+00:00</time></trkpt><trkpt lat="39.46212167" lon="-0.32480042"><ele>-2.8</ele><time>2022-11-14T16:55:55.0000000+00:00</time></trkpt><trkpt lat="39.46212578" lon="-0.3248586"><ele>-2.8</ele><time>2022-11-14T16:55:56.0000000+00:00</time></trkpt><trkpt lat="39.46213014" lon="-0.3249192"><ele>-2.8</ele><time>2022-11-14T16:55:57.0000000+00:00</time></trkpt><trkpt lat="39.46213986" lon="-0.32498164"><ele>-2.6</ele><time>2022-11-14T16:55:58.0000000+00:00</time></trkpt><trkpt lat="39.46214573" lon="-0.3250544"><ele>-2.6</ele><time>2022-11-14T16:55:59.0000000+00:00</time></trkpt><trkpt lat="39.46215453" lon="-0.32511139"><ele>-2.4</ele><time>2022-11-14T16:56:00.0000000+00:00</time></trkpt><trkpt lat="39.46216115" lon="-0.3251678"><ele>-2.2</ele><time>2022-11-14T16:56:01.0000000+00:00</time></trkpt><trkpt lat="39.46216408" lon="-0.32522656"><ele>-2.2</ele><time>2022-11-14T16:56:02.0000000+00:00</time></trkpt><trkpt lat="39.46216794" lon="-0.32528532"><ele>-2.2</ele><time>2022-11-14T16:56:03.0000000+00:00</time></trkpt><trkpt lat="39.46217699" lon="-0.3253455"><ele>-2.4</ele><time>2022-11-14T16:56:04.0000000+00:00</time></trkpt><trkpt lat="39.46218428" lon="-0.32540459"><ele>-2.4</ele><time>2022-11-14T16:56:05.0000000+00:00</time></trkpt><trkpt lat="39.4621868" lon="-0.32546293"><ele>-2.4</ele><time>2022-11-14T16:56:06.0000000+00:00</time></trkpt><trkpt lat="39.46218931" lon="-0.32552152"><ele>-2.4</ele><time>2022-11-14T16:56:07.0000000+00:00</time></trkpt><trkpt lat="39.46219183" lon="-0.32558019"><ele>-2.6</ele><time>2022-11-14T16:56:08.0000000+00:00</time></trkpt><trkpt lat="39.46219526" lon="-0.32564138"><ele>-2.6</ele><time>2022-11-14T16:56:09.0000000+00:00</time></trkpt><trkpt lat="39.46219811" lon="-0.32569318"><ele>-2.6</ele><time>2022-11-14T16:56:10.0000000+00:00</time></trkpt><trkpt lat="39.4622018" lon="-0.3257682"><ele>-2.6</ele><time>2022-11-14T16:56:11.0000000+00:00</time></trkpt><trkpt lat="39.46220297" lon="-0.32582955"><ele>-2.6</ele><time>2022-11-14T16:56:12.0000000+00:00</time></trkpt><trkpt lat="39.46220557" lon="-0.32587792"><ele>-2.6</ele><time>2022-11-14T16:56:13.0000000+00:00</time></trkpt><trkpt lat="39.46221052" lon="-0.3259381"><ele>-2.6</ele><time>2022-11-14T16:56:14.0000000+00:00</time></trkpt><trkpt lat="39.4622168" lon="-0.32601044"><ele>-2.6</ele><time>2022-11-14T16:56:15.0000000+00:00</time></trkpt><trkpt lat="39.46222276" lon="-0.32607338"><ele>-2.6</ele><time>2022-11-14T16:56:16.0000000+00:00</time></trkpt><trkpt lat="39.46222703" lon="-0.32612342"><ele>-2.6</ele><time>2022-11-14T16:56:17.0000000+00:00</time></trkpt><trkpt lat="39.46223583" lon="-0.3261857"><ele>-2.6</ele><time>2022-11-14T16:56:18.0000000+00:00</time></trkpt><trkpt lat="39.4622453" lon="-0.32625351"><ele>-2.6</ele><time>2022-11-14T16:56:19.0000000+00:00</time></trkpt><trkpt lat="39.46225721" lon="-0.32630129"><ele>-2.6</ele><time>2022-11-14T16:56:20.0000000+00:00</time></trkpt><trkpt lat="39.4622681" lon="-0.32634404"><ele>-2.6</ele><time>2022-11-14T16:56:21.0000000+00:00</time></trkpt><trkpt lat="39.4622728" lon="-0.326381"><ele>-2.6</ele><time>2022-11-14T16:56:22.0000000+00:00</time></trkpt><trkpt lat="39.46227095" lon="-0.3264131"><ele>-2.6</ele><time>2022-11-14T16:56:23.0000000+00:00</time></trkpt><trkpt lat="39.4622738" lon="-0.32643976"><ele>-2.8</ele><time>2022-11-14T16:56:24.0000000+00:00</time></trkpt><trkpt lat="39.46228009" lon="-0.32646021"><ele>-2.8</ele><time>2022-11-14T16:56:25.0000000+00:00</time></trkpt><trkpt lat="39.46229316" lon="-0.32648225"><ele>-2.8</ele><time>2022-11-14T16:56:26.0000000+00:00</time></trkpt><trkpt lat="39.46230624" lon="-0.32648888"><ele>-2.8</ele><time>2022-11-14T16:56:27.0000000+00:00</time></trkpt><trkpt lat="39.46231982" lon="-0.3264794"><ele>-2.8</ele><time>2022-11-14T16:56:28.0000000+00:00</time></trkpt><trkpt lat="39.46232837" lon="-0.32645308"><ele>-2.8</ele><time>2022-11-14T16:56:29.0000000+00:00</time></trkpt><trkpt lat="39.46232594" lon="-0.32641478"><ele>-2.8</ele><time>2022-11-14T16:56:30.0000000+00:00</time></trkpt><trkpt lat="39.46232191" lon="-0.32637538"><ele>-2.8</ele><time>2022-11-14T16:56:31.0000000+00:00</time></trkpt><trkpt lat="39.46231831" lon="-0.32633943"><ele>-2.8</ele><time>2022-11-14T16:56:32.0000000+00:00</time></trkpt><trkpt lat="39.46231311" lon="-0.32629567"><ele>-2.8</ele><time>2022-11-14T16:56:33.0000000+00:00</time></trkpt><trkpt lat="39.46231722" lon="-0.32625343"><ele>-2.8</ele><time>2022-11-14T16:56:34.0000000+00:00</time></trkpt><trkpt lat="39.46232024" lon="-0.32620926"><ele>-2.8</ele><time>2022-11-14T16:56:35.0000000+00:00</time></trkpt><trkpt lat="39.46232074" lon="-0.32616584"><ele>-3.0</ele><time>2022-11-14T16:56:36.0000000+00:00</time></trkpt><trkpt lat="39.46231881" lon="-0.32612233"><ele>-3.0</ele><time>2022-11-14T16:56:37.0000000+00:00</time></trkpt><trkpt lat="39.46231957" lon="-0.32607598"><ele>-3.0</ele><time>2022-11-14T16:56:38.0000000+00:00</time></trkpt><trkpt lat="39.46231948" lon="-0.32602871"><ele>-3.0</ele><time>2022-11-14T16:56:39.0000000+00:00</time></trkpt><trkpt lat="39.46231823" lon="-0.32598437"><ele>-3.0</ele><time>2022-11-14T16:56:40.0000000+00:00</time></trkpt><trkpt lat="39.46231915" lon="-0.32594799"><ele>-3.0</ele><time>2022-11-14T16:56:41.0000000+00:00</time></trkpt><trkpt lat="39.46232677" lon="-0.32592008"><ele>-3.0</ele><time>2022-11-14T16:56:42.0000000+00:00</time></trkpt><trkpt lat="39.46233801" lon="-0.32589133"><ele>-3.0</ele><time>2022-11-14T16:56:43.0000000+00:00</time></trkpt><trkpt lat="39.46235427" lon="-0.32585629"><ele>-3.0</ele><time>2022-11-14T16:56:44.0000000+00:00</time></trkpt><trkpt lat="39.46237858" lon="-0.32582084"><ele>-3.0</ele><time>2022-11-14T16:56:45.0000000+00:00</time></trkpt><trkpt lat="39.46240037" lon="-0.32579276"><ele>-3.2</ele><time>2022-11-14T16:56:46.0000000+00:00</time></trkpt><trkpt lat="39.46243373" lon="-0.32575621"><ele>-3.2</ele><time>2022-11-14T16:56:47.0000000+00:00</time></trkpt><trkpt lat="39.46246164" lon="-0.32572788"><ele>-3.2</ele><time>2022-11-14T16:56:48.0000000+00:00</time></trkpt><trkpt lat="39.46248855" lon="-0.32569938"><ele>-3.2</ele><time>2022-11-14T16:56:49.0000000+00:00</time></trkpt><trkpt lat="39.4625178" lon="-0.32567315"><ele>-3.2</ele><time>2022-11-14T16:56:50.0000000+00:00</time></trkpt><trkpt lat="39.46254998" lon="-0.32565043"><ele>-3.2</ele><time>2022-11-14T16:56:51.0000000+00:00</time></trkpt><trkpt lat="39.46258578" lon="-0.32563761"><ele>-3.2</ele><time>2022-11-14T16:56:52.0000000+00:00</time></trkpt><trkpt lat="39.46262651" lon="-0.32562906"><ele>-3.2</ele><time>2022-11-14T16:56:53.0000000+00:00</time></trkpt><trkpt lat="39.46265727" lon="-0.32562126"><ele>-3.2</ele><time>2022-11-14T16:56:54.0000000+00:00</time></trkpt><trkpt lat="39.46268686" lon="-0.32560903"><ele>-3.2</ele><time>2022-11-14T16:56:55.0000000+00:00</time></trkpt><trkpt lat="39.46271385" lon="-0.32559821"><ele>-3.0</ele><time>2022-11-14T16:56:56.0000000+00:00</time></trkpt><trkpt lat="39.46274243" lon="-0.32558899"><ele>-2.8</ele><time>2022-11-14T16:56:57.0000000+00:00</time></trkpt><trkpt lat="39.46276766" lon="-0.32558296"><ele>-2.8</ele><time>2022-11-14T16:56:58.0000000+00:00</time></trkpt><trkpt lat="39.46279557" lon="-0.3255786"><ele>-2.8</ele><time>2022-11-14T16:56:59.0000000+00:00</time></trkpt><trkpt lat="39.46283095" lon="-0.32557122"><ele>-2.8</ele><time>2022-11-14T16:57:00.0000000+00:00</time></trkpt><trkpt lat="39.46285743" lon="-0.32556284"><ele>-2.8</ele><time>2022-11-14T16:57:01.0000000+00:00</time></trkpt><trkpt lat="39.46288752" lon="-0.32554876"><ele>-2.8</ele><time>2022-11-14T16:57:02.0000000+00:00</time></trkpt><trkpt lat="39.46292851" lon="-0.32552747"><ele>-2.8</ele><time>2022-11-14T16:57:03.0000000+00:00</time></trkpt><trkpt lat="39.46295911" lon="-0.3255014"><ele>-2.8</ele><time>2022-11-14T16:57:04.0000000+00:00</time></trkpt><trkpt lat="39.46299003" lon="-0.32547265"><ele>-2.8</ele><time>2022-11-14T16:57:05.0000000+00:00</time></trkpt><trkpt lat="39.46301761" lon="-0.32544608"><ele>-2.8</ele><time>2022-11-14T16:57:06.0000000+00:00</time></trkpt><trkpt lat="39.46303756" lon="-0.32541633"><ele>-2.8</ele><time>2022-11-14T16:57:07.0000000+00:00</time></trkpt><trkpt lat="39.46304837" lon="-0.32538028"><ele>-2.8</ele><time>2022-11-14T16:57:08.0000000+00:00</time></trkpt><trkpt lat="39.46305156" lon="-0.32533594"><ele>-2.8</ele><time>2022-11-14T16:57:09.0000000+00:00</time></trkpt><trkpt lat="39.46305567" lon="-0.32529085"><ele>-2.8</ele><time>2022-11-14T16:57:10.0000000+00:00</time></trkpt><trkpt lat="39.46306136" lon="-0.32524366"><ele>-2.8</ele><time>2022-11-14T16:57:11.0000000+00:00</time></trkpt><trkpt lat="39.46306656" lon="-0.32519111"><ele>-2.8</ele><time>2022-11-14T16:57:12.0000000+00:00</time></trkpt><trkpt lat="39.46306505" lon="-0.32513185"><ele>-2.8</ele><time>2022-11-14T16:57:13.0000000+00:00</time></trkpt><trkpt lat="39.46306044" lon="-0.3250694"><ele>-2.8</ele><time>2022-11-14T16:57:14.0000000+00:00</time></trkpt><trkpt lat="39.4630653" lon="-0.32500737"><ele>-2.8</ele><time>2022-11-14T16:57:15.0000000+00:00</time></trkpt><trkpt lat="39.46307209" lon="-0.32494677"><ele>-2.8</ele><time>2022-11-14T16:57:16.0000000+00:00</time></trkpt><trkpt lat="39.46307771" lon="-0.32488802"><ele>-3.0</ele><time>2022-11-14T16:57:17.0000000+00:00</time></trkpt><trkpt lat="39.46307595" lon="-0.32483303"><ele>-3.2</ele><time>2022-11-14T16:57:18.0000000+00:00</time></trkpt><trkpt lat="39.46308777" lon="-0.32478827"><ele>-3.2</ele><time>2022-11-14T16:57:19.0000000+00:00</time></trkpt><trkpt lat="39.46311425" lon="-0.32476195"><ele>-3.2</ele><time>2022-11-14T16:57:20.0000000+00:00</time></trkpt><trkpt lat="39.46313764" lon="-0.32473723"><ele>-3.2</ele><time>2022-11-14T16:57:21.0000000+00:00</time></trkpt><trkpt lat="39.46317653" lon="-0.32471937"><ele>-3.4</ele><time>2022-11-14T16:57:22.0000000+00:00</time></trkpt><trkpt lat="39.46319933" lon="-0.32470227"><ele>-3.4</ele><time>2022-11-14T16:57:23.0000000+00:00</time></trkpt><trkpt lat="39.46321358" lon="-0.32469414"><ele>-3.4</ele><time>2022-11-14T16:57:24.0000000+00:00</time></trkpt><trkpt lat="39.46322297" lon="-0.32468526"><ele>-3.4</ele><time>2022-11-14T16:57:25.0000000+00:00</time></trkpt><trkpt lat="39.46322121" lon="-0.32466707"><ele>-3.4</ele><time>2022-11-14T16:57:26.0000000+00:00</time></trkpt><trkpt lat="39.46324644" lon="-0.32465911"><ele>-3.4</ele><time>2022-11-14T16:57:27.0000000+00:00</time></trkpt><trkpt lat="39.4632782" lon="-0.32465885"><ele>-3.4</ele><time>2022-11-14T16:57:28.0000000+00:00</time></trkpt><trkpt lat="39.46331601" lon="-0.32467109"><ele>-3.4</ele><time>2022-11-14T16:57:29.0000000+00:00</time></trkpt><trkpt lat="39.4633601" lon="-0.32468509"><ele>-3.4</ele><time>2022-11-14T16:57:30.0000000+00:00</time></trkpt><trkpt lat="39.46340184" lon="-0.32469372"><ele>-3.4</ele><time>2022-11-14T16:57:31.0000000+00:00</time></trkpt><trkpt lat="39.46344023" lon="-0.324699"><ele>-3.2</ele><time>2022-11-14T16:57:32.0000000+00:00</time></trkpt><trkpt lat="39.46348004" lon="-0.3247037"><ele>-3.2</ele><time>2022-11-14T16:57:33.0000000+00:00</time></trkpt><trkpt lat="39.46352086" lon="-0.32470613"><ele>-3.2</ele><time>2022-11-14T16:57:34.0000000+00:00</time></trkpt><trkpt lat="39.46355732" lon="-0.32470948"><ele>-3.2</ele><time>2022-11-14T16:57:35.0000000+00:00</time></trkpt><trkpt lat="39.46359211" lon="-0.32471627"><ele>-3.2</ele><time>2022-11-14T16:57:36.0000000+00:00</time></trkpt><trkpt lat="39.46362647" lon="-0.32472147"><ele>-3.2</ele><time>2022-11-14T16:57:37.0000000+00:00</time></trkpt><trkpt lat="39.46366067" lon="-0.32472599"><ele>-3.2</ele><time>2022-11-14T16:57:38.0000000+00:00</time></trkpt><trkpt lat="39.46368967" lon="-0.32472507"><ele>-3.2</ele><time>2022-11-14T16:57:39.0000000+00:00</time></trkpt><trkpt lat="39.4637144" lon="-0.3247161"><ele>-3.2</ele><time>2022-11-14T16:57:40.0000000+00:00</time></trkpt><trkpt lat="39.46372421" lon="-0.32469213"><ele>-3.2</ele><time>2022-11-14T16:57:41.0000000+00:00</time></trkpt><trkpt lat="39.4637154" lon="-0.32466422"><ele>-3.2</ele><time>2022-11-14T16:57:42.0000000+00:00</time></trkpt><trkpt lat="39.4636978" lon="-0.32464553"><ele>-3.2</ele><time>2022-11-14T16:57:43.0000000+00:00</time></trkpt><trkpt lat="39.46368221" lon="-0.32463698"><ele>-3.2</ele><time>2022-11-14T16:57:44.0000000+00:00</time></trkpt><trkpt lat="39.46366469" lon="-0.32463027"><ele>-3.2</ele><time>2022-11-14T16:57:45.0000000+00:00</time></trkpt><trkpt lat="39.46364877" lon="-0.32462709"><ele>-3.2</ele><time>2022-11-14T16:57:46.0000000+00:00</time></trkpt><trkpt lat="39.46363276" lon="-0.32462725"><ele>-3.2</ele><time>2022-11-14T16:57:47.0000000+00:00</time></trkpt><trkpt lat="39.46361767" lon="-0.32463329"><ele>-3.2</ele><time>2022-11-14T16:57:48.0000000+00:00</time></trkpt><trkpt lat="39.46360694" lon="-0.32464829"><ele>-3.2</ele><time>2022-11-14T16:57:49.0000000+00:00</time></trkpt><trkpt lat="39.46360225" lon="-0.32467067"><ele>-3.2</ele><time>2022-11-14T16:57:50.0000000+00:00</time></trkpt><trkpt lat="39.46360795" lon="-0.32470009"><ele>-3.4</ele><time>2022-11-14T16:57:51.0000000+00:00</time></trkpt><trkpt lat="39.46362966" lon="-0.32472616"><ele>-3.4</ele><time>2022-11-14T16:57:52.0000000+00:00</time></trkpt><trkpt lat="39.46365899" lon="-0.32474167"><ele>-3.4</ele><time>2022-11-14T16:57:53.0000000+00:00</time></trkpt><trkpt lat="39.46369554" lon="-0.32475106"><ele>-3.4</ele><time>2022-11-14T16:57:54.0000000+00:00</time></trkpt><trkpt lat="39.46373544" lon="-0.32475793"><ele>-3.4</ele><time>2022-11-14T16:57:55.0000000+00:00</time></trkpt><trkpt lat="39.46377777" lon="-0.32476011"><ele>-3.4</ele><time>2022-11-14T16:57:56.0000000+00:00</time></trkpt><trkpt lat="39.46382085" lon="-0.32476606"><ele>-3.4</ele><time>2022-11-14T16:57:57.0000000+00:00</time></trkpt><trkpt lat="39.46386527" lon="-0.32477134"><ele>-3.4</ele><time>2022-11-14T16:57:58.0000000+00:00</time></trkpt><trkpt lat="39.4639081" lon="-0.32477344"><ele>-3.4</ele><time>2022-11-14T16:57:59.0000000+00:00</time></trkpt><trkpt lat="39.46395479" lon="-0.32477167"><ele>-3.4</ele><time>2022-11-14T16:58:00.0000000+00:00</time></trkpt><trkpt lat="39.46400324" lon="-0.32476782"><ele>-3.4</ele><time>2022-11-14T16:58:01.0000000+00:00</time></trkpt><trkpt lat="39.4640511" lon="-0.32476262"><ele>-3.4</ele><time>2022-11-14T16:58:02.0000000+00:00</time></trkpt><trkpt lat="39.46410433" lon="-0.32476245"><ele>-3.4</ele><time>2022-11-14T16:58:03.0000000+00:00</time></trkpt><trkpt lat="39.46415403" lon="-0.32475835"><ele>-3.6</ele><time>2022-11-14T16:58:04.0000000+00:00</time></trkpt><trkpt lat="39.46419753" lon="-0.32475131"><ele>-3.4</ele><time>2022-11-14T16:58:05.0000000+00:00</time></trkpt><trkpt lat="39.46424631" lon="-0.32474452"><ele>-3.4</ele><time>2022-11-14T16:58:06.0000000+00:00</time></trkpt><trkpt lat="39.46430004" lon="-0.3247384"><ele>-3.4</ele><time>2022-11-14T16:58:07.0000000+00:00</time></trkpt><trkpt lat="39.46435226" lon="-0.32473044"><ele>-3.4</ele><time>2022-11-14T16:58:08.0000000+00:00</time></trkpt><trkpt lat="39.464408" lon="-0.3247234"><ele>-3.4</ele><time>2022-11-14T16:58:09.0000000+00:00</time></trkpt><trkpt lat="39.46446475" lon="-0.32471996"><ele>-3.4</ele><time>2022-11-14T16:58:10.0000000+00:00</time></trkpt><trkpt lat="39.46451621" lon="-0.32472105"><ele>-3.4</ele><time>2022-11-14T16:58:11.0000000+00:00</time></trkpt><trkpt lat="39.46456743" lon="-0.32472474"><ele>-3.4</ele><time>2022-11-14T16:58:12.0000000+00:00</time></trkpt><trkpt lat="39.46462015" lon="-0.32472599"><ele>-3.2</ele><time>2022-11-14T16:58:13.0000000+00:00</time></trkpt><trkpt lat="39.46467262" lon="-0.32472373"><ele>-3.2</ele><time>2022-11-14T16:58:14.0000000+00:00</time></trkpt><trkpt lat="39.46472442" lon="-0.32471987"><ele>-3.2</ele><time>2022-11-14T16:58:15.0000000+00:00</time></trkpt><trkpt lat="39.46477513" lon="-0.32471501"><ele>-3.2</ele><time>2022-11-14T16:58:16.0000000+00:00</time></trkpt><trkpt lat="39.46482685" lon="-0.3247135"><ele>-3.2</ele><time>2022-11-14T16:58:17.0000000+00:00</time></trkpt><trkpt lat="39.46487982" lon="-0.32471501"><ele>-3.2</ele><time>2022-11-14T16:58:18.0000000+00:00</time></trkpt><trkpt lat="39.46493212" lon="-0.32471619"><ele>-3.4</ele><time>2022-11-14T16:58:19.0000000+00:00</time></trkpt><trkpt lat="39.46498375" lon="-0.32471971"><ele>-3.4</ele><time>2022-11-14T16:58:20.0000000+00:00</time></trkpt><trkpt lat="39.46503312" lon="-0.32472214"><ele>-3.4</ele><time>2022-11-14T16:58:21.0000000+00:00</time></trkpt><trkpt lat="39.46508551" lon="-0.32471845"><ele>-3.4</ele><time>2022-11-14T16:58:22.0000000+00:00</time></trkpt><trkpt lat="39.46513262" lon="-0.32470948"><ele>-3.6</ele><time>2022-11-14T16:58:23.0000000+00:00</time></trkpt><trkpt lat="39.46517419" lon="-0.32469347"><ele>-3.6</ele><time>2022-11-14T16:58:24.0000000+00:00</time></trkpt><trkpt lat="39.46520671" lon="-0.32468425"><ele>-3.4</ele><time>2022-11-14T16:58:25.0000000+00:00</time></trkpt><trkpt lat="39.46523923" lon="-0.32469431"><ele>-3.4</ele><time>2022-11-14T16:58:26.0000000+00:00</time></trkpt><trkpt lat="39.46527712" lon="-0.32470479"><ele>-3.4</ele><time>2022-11-14T16:58:27.0000000+00:00</time></trkpt><trkpt lat="39.46531786" lon="-0.32471057"><ele>-3.6</ele><time>2022-11-14T16:58:28.0000000+00:00</time></trkpt><trkpt lat="39.46536169" lon="-0.32471568"><ele>-3.6</ele><time>2022-11-14T16:58:29.0000000+00:00</time></trkpt><trkpt lat="39.46540553" lon="-0.32471594"><ele>-3.6</ele><time>2022-11-14T16:58:30.0000000+00:00</time></trkpt><trkpt lat="39.46545121" lon="-0.32471367"><ele>-3.6</ele><time>2022-11-14T16:58:31.0000000+00:00</time></trkpt><trkpt lat="39.46548952" lon="-0.32471526"><ele>-3.6</ele><time>2022-11-14T16:58:32.0000000+00:00</time></trkpt><trkpt lat="39.46551676" lon="-0.3247135"><ele>-3.6</ele><time>2022-11-14T16:58:33.0000000+00:00</time></trkpt><trkpt lat="39.46553445" lon="-0.32470093"><ele>-3.6</ele><time>2022-11-14T16:58:34.0000000+00:00</time></trkpt><trkpt lat="39.46554802" lon="-0.32468601"><ele>-3.6</ele><time>2022-11-14T16:58:35.0000000+00:00</time></trkpt><trkpt lat="39.46556529" lon="-0.32467989"><ele>-3.6</ele><time>2022-11-14T16:58:36.0000000+00:00</time></trkpt><trkpt lat="39.46558859" lon="-0.32467989"><ele>-3.6</ele><time>2022-11-14T16:58:37.0000000+00:00</time></trkpt><trkpt lat="39.46561726" lon="-0.32467688"><ele>-3.6</ele><time>2022-11-14T16:58:38.0000000+00:00</time></trkpt><trkpt lat="39.46564601" lon="-0.32467587"><ele>-3.6</ele><time>2022-11-14T16:58:39.0000000+00:00</time></trkpt><trkpt lat="39.46567182" lon="-0.32467654"><ele>-3.6</ele><time>2022-11-14T16:58:40.0000000+00:00</time></trkpt><trkpt lat="39.46568976" lon="-0.32466992"><ele>-3.8</ele><time>2022-11-14T16:58:41.0000000+00:00</time></trkpt><trkpt lat="39.46569496" lon="-0.32465282"><ele>-3.8</ele><time>2022-11-14T16:58:42.0000000+00:00</time></trkpt><trkpt lat="39.4656906" lon="-0.32463295"><ele>-3.8</ele><time>2022-11-14T16:58:43.0000000+00:00</time></trkpt><trkpt lat="39.46567979" lon="-0.32461292"><ele>-3.6</ele><time>2022-11-14T16:58:44.0000000+00:00</time></trkpt><trkpt lat="39.46566654" lon="-0.32459507"><ele>-3.6</ele><time>2022-11-14T16:58:45.0000000+00:00</time></trkpt><trkpt lat="39.46565489" lon="-0.32457537"><ele>-3.6</ele><time>2022-11-14T16:58:46.0000000+00:00</time></trkpt><trkpt lat="39.46564768" lon="-0.32455936"><ele>-3.6</ele><time>2022-11-14T16:58:47.0000000+00:00</time></trkpt><trkpt lat="39.46564467" lon="-0.32453338"><ele>-3.6</ele><time>2022-11-14T16:58:48.0000000+00:00</time></trkpt><trkpt lat="39.46564618" lon="-0.32449759"><ele>-3.6</ele><time>2022-11-14T16:58:49.0000000+00:00</time></trkpt><trkpt lat="39.46564836" lon="-0.32445358"><ele>-3.4</ele><time>2022-11-14T16:58:50.0000000+00:00</time></trkpt><trkpt lat="39.46565146" lon="-0.32440463"><ele>-3.4</ele><time>2022-11-14T16:58:51.0000000+00:00</time></trkpt><trkpt lat="39.46565364" lon="-0.32435074"><ele>-3.4</ele><time>2022-11-14T16:58:52.0000000+00:00</time></trkpt><trkpt lat="39.46565741" lon="-0.32429257"><ele>-3.4</ele><time>2022-11-14T16:58:53.0000000+00:00</time></trkpt><trkpt lat="39.46566244" lon="-0.32423607"><ele>-3.4</ele><time>2022-11-14T16:58:54.0000000+00:00</time></trkpt><trkpt lat="39.4656678" lon="-0.3241805"><ele>-3.4</ele><time>2022-11-14T16:58:55.0000000+00:00</time></trkpt><trkpt lat="39.4656704" lon="-0.32412258"><ele>-3.2</ele><time>2022-11-14T16:58:56.0000000+00:00</time></trkpt><trkpt lat="39.46567635" lon="-0.32406617"><ele>-3.2</ele><time>2022-11-14T16:58:57.0000000+00:00</time></trkpt><trkpt lat="39.46568549" lon="-0.32399836"><ele>-3.2</ele><time>2022-11-14T16:58:58.0000000+00:00</time></trkpt><trkpt lat="39.46569026" lon="-0.32392787"><ele>-3.2</ele><time>2022-11-14T16:58:59.0000000+00:00</time></trkpt><trkpt lat="39.4656927" lon="-0.32386157"><ele>-3.2</ele><time>2022-11-14T16:59:00.0000000+00:00</time></trkpt><trkpt lat="39.46569462" lon="-0.32379426"><ele>-3.2</ele><time>2022-11-14T16:59:01.0000000+00:00</time></trkpt><trkpt lat="39.46569739" lon="-0.32373098"><ele>-3.2</ele><time>2022-11-14T16:59:02.0000000+00:00</time></trkpt><trkpt lat="39.4657041" lon="-0.32366694"><ele>-3.2</ele><time>2022-11-14T16:59:03.0000000+00:00</time></trkpt><trkpt lat="39.46570845" lon="-0.32359427"><ele>-3.2</ele><time>2022-11-14T16:59:04.0000000+00:00</time></trkpt><trkpt lat="39.46572312" lon="-0.32353618"><ele>-3.2</ele><time>2022-11-14T16:59:05.0000000+00:00</time></trkpt><trkpt lat="39.46573352" lon="-0.32347927"><ele>-3.2</ele><time>2022-11-14T16:59:06.0000000+00:00</time></trkpt><trkpt lat="39.46574005" lon="-0.32341548"><ele>-3.2</ele><time>2022-11-14T16:59:07.0000000+00:00</time></trkpt><trkpt lat="39.46573586" lon="-0.32334943"><ele>-3.2</ele><time>2022-11-14T16:59:08.0000000+00:00</time></trkpt><trkpt lat="39.46572974" lon="-0.32328858"><ele>-3.2</ele><time>2022-11-14T16:59:09.0000000+00:00</time></trkpt><trkpt lat="39.46572564" lon="-0.32323913"><ele>-3.4</ele><time>2022-11-14T16:59:10.0000000+00:00</time></trkpt><trkpt lat="39.46573863" lon="-0.32320434"><ele>-3.4</ele><time>2022-11-14T16:59:11.0000000+00:00</time></trkpt><trkpt lat="39.46575732" lon="-0.32318163"><ele>-3.4</ele><time>2022-11-14T16:59:12.0000000+00:00</time></trkpt><trkpt lat="39.4657854" lon="-0.32317794"><ele>-3.4</ele><time>2022-11-14T16:59:13.0000000+00:00</time></trkpt><trkpt lat="39.46581767" lon="-0.32318263"><ele>-3.4</ele><time>2022-11-14T16:59:14.0000000+00:00</time></trkpt><trkpt lat="39.46585505" lon="-0.32318976"><ele>-3.2</ele><time>2022-11-14T16:59:15.0000000+00:00</time></trkpt><trkpt lat="39.46589487" lon="-0.32319697"><ele>-3.2</ele><time>2022-11-14T16:59:16.0000000+00:00</time></trkpt><trkpt lat="39.46593854" lon="-0.32320309"><ele>-3.2</ele><time>2022-11-14T16:59:17.0000000+00:00</time></trkpt><trkpt lat="39.46598816" lon="-0.32321029"><ele>-3.2</ele><time>2022-11-14T16:59:18.0000000+00:00</time></trkpt><trkpt lat="39.46603493" lon="-0.32321641"><ele>-3.2</ele><time>2022-11-14T16:59:19.0000000+00:00</time></trkpt><trkpt lat="39.46608262" lon="-0.32322102"><ele>-3.2</ele><time>2022-11-14T16:59:20.0000000+00:00</time></trkpt><trkpt lat="39.4661309" lon="-0.32322513"><ele>-3.2</ele><time>2022-11-14T16:59:21.0000000+00:00</time></trkpt><trkpt lat="39.46617591" lon="-0.32322949"><ele>-3.2</ele><time>2022-11-14T16:59:22.0000000+00:00</time></trkpt><trkpt lat="39.46622461" lon="-0.32323225"><ele>-3.2</ele><time>2022-11-14T16:59:23.0000000+00:00</time></trkpt><trkpt lat="39.46627758" lon="-0.32323812"><ele>-3.2</ele><time>2022-11-14T16:59:24.0000000+00:00</time></trkpt><trkpt lat="39.46633265" lon="-0.32324709"><ele>-3.2</ele><time>2022-11-14T16:59:25.0000000+00:00</time></trkpt><trkpt lat="39.46638521" lon="-0.32325606"><ele>-3.2</ele><time>2022-11-14T16:59:26.0000000+00:00</time></trkpt><trkpt lat="39.46643793" lon="-0.32326478"><ele>-3.2</ele><time>2022-11-14T16:59:27.0000000+00:00</time></trkpt><trkpt lat="39.46649334" lon="-0.32327433"><ele>-3.2</ele><time>2022-11-14T16:59:28.0000000+00:00</time></trkpt><trkpt lat="39.46654329" lon="-0.32328447"><ele>-3.2</ele><time>2022-11-14T16:59:29.0000000+00:00</time></trkpt><trkpt lat="39.46659191" lon="-0.32329462"><ele>-3.2</ele><time>2022-11-14T16:59:30.0000000+00:00</time></trkpt><trkpt lat="39.46664354" lon="-0.32330442"><ele>-3.2</ele><time>2022-11-14T16:59:31.0000000+00:00</time></trkpt><trkpt lat="39.46669475" lon="-0.32331247"><ele>-3.2</ele><time>2022-11-14T16:59:32.0000000+00:00</time></trkpt><trkpt lat="39.4667432" lon="-0.32331532"><ele>-3.2</ele><time>2022-11-14T16:59:33.0000000+00:00</time></trkpt><trkpt lat="39.4667919" lon="-0.32331666"><ele>-3.2</ele><time>2022-11-14T16:59:34.0000000+00:00</time></trkpt><trkpt lat="39.46684621" lon="-0.3233118"><ele>-3.2</ele><time>2022-11-14T16:59:35.0000000+00:00</time></trkpt><trkpt lat="39.466896" lon="-0.3233185"><ele>-3.2</ele><time>2022-11-14T16:59:36.0000000+00:00</time></trkpt><trkpt lat="39.46694797" lon="-0.32332353"><ele>-3.4</ele><time>2022-11-14T16:59:37.0000000+00:00</time></trkpt><trkpt lat="39.46700128" lon="-0.32332823"><ele>-3.4</ele><time>2022-11-14T16:59:38.0000000+00:00</time></trkpt><trkpt lat="39.46705383" lon="-0.32333493"><ele>-3.4</ele><time>2022-11-14T16:59:39.0000000+00:00</time></trkpt><trkpt lat="39.46710748" lon="-0.32334206"><ele>-3.4</ele><time>2022-11-14T16:59:40.0000000+00:00</time></trkpt><trkpt lat="39.46715894" lon="-0.32334943"><ele>-3.4</ele><time>2022-11-14T16:59:41.0000000+00:00</time></trkpt><trkpt lat="39.46721024" lon="-0.32335689"><ele>-3.4</ele><time>2022-11-14T16:59:42.0000000+00:00</time></trkpt><trkpt lat="39.46726263" lon="-0.32336435"><ele>-3.4</ele><time>2022-11-14T16:59:43.0000000+00:00</time></trkpt><trkpt lat="39.46731376" lon="-0.32337408"><ele>-3.4</ele><time>2022-11-14T16:59:44.0000000+00:00</time></trkpt><trkpt lat="39.46736438" lon="-0.32338531"><ele>-3.4</ele><time>2022-11-14T16:59:45.0000000+00:00</time></trkpt><trkpt lat="39.46741677" lon="-0.32339855"><ele>-3.4</ele><time>2022-11-14T16:59:46.0000000+00:00</time></trkpt><trkpt lat="39.467471" lon="-0.32340777"><ele>-3.4</ele><time>2022-11-14T16:59:47.0000000+00:00</time></trkpt><trkpt lat="39.46752372" lon="-0.32341163"><ele>-3.4</ele><time>2022-11-14T16:59:48.0000000+00:00</time></trkpt><trkpt lat="39.46757603" lon="-0.32341791"><ele>-3.4</ele><time>2022-11-14T16:59:49.0000000+00:00</time></trkpt><trkpt lat="39.46762137" lon="-0.32342873"><ele>-3.4</ele><time>2022-11-14T16:59:50.0000000+00:00</time></trkpt><trkpt lat="39.46765054" lon="-0.32343753"><ele>-3.4</ele><time>2022-11-14T16:59:51.0000000+00:00</time></trkpt><trkpt lat="39.46767141" lon="-0.32343937"><ele>-3.4</ele><time>2022-11-14T16:59:52.0000000+00:00</time></trkpt><trkpt lat="39.46769128" lon="-0.32343694"><ele>-3.4</ele><time>2022-11-14T16:59:53.0000000+00:00</time></trkpt><trkpt lat="39.46771525" lon="-0.32343468"><ele>-3.4</ele><time>2022-11-14T16:59:54.0000000+00:00</time></trkpt><trkpt lat="39.46774232" lon="-0.3234356"><ele>-3.4</ele><time>2022-11-14T16:59:55.0000000+00:00</time></trkpt><trkpt lat="39.46777199" lon="-0.32343878"><ele>-3.6</ele><time>2022-11-14T16:59:56.0000000+00:00</time></trkpt><trkpt lat="39.46780728" lon="-0.32344088"><ele>-3.6</ele><time>2022-11-14T16:59:57.0000000+00:00</time></trkpt><trkpt lat="39.46784207" lon="-0.32344591"><ele>-3.6</ele><time>2022-11-14T16:59:58.0000000+00:00</time></trkpt><trkpt lat="39.46787727" lon="-0.323448"><ele>-3.6</ele><time>2022-11-14T16:59:59.0000000+00:00</time></trkpt><trkpt lat="39.46791348" lon="-0.32344549"><ele>-3.4</ele><time>2022-11-14T17:00:00.0000000+00:00</time></trkpt><trkpt lat="39.46794936" lon="-0.32343828"><ele>-3.4</ele><time>2022-11-14T17:00:01.0000000+00:00</time></trkpt><trkpt lat="39.46798607" lon="-0.32342822"><ele>-3.4</ele><time>2022-11-14T17:00:02.0000000+00:00</time></trkpt><trkpt lat="39.46802094" lon="-0.32341372"><ele>-3.4</ele><time>2022-11-14T17:00:03.0000000+00:00</time></trkpt><trkpt lat="39.46805044" lon="-0.32339"><ele>-3.4</ele><time>2022-11-14T17:00:04.0000000+00:00</time></trkpt><trkpt lat="39.46807215" lon="-0.32336008"><ele>-3.4</ele><time>2022-11-14T17:00:05.0000000+00:00</time></trkpt><trkpt lat="39.46809067" lon="-0.32332823"><ele>-3.4</ele><time>2022-11-14T17:00:06.0000000+00:00</time></trkpt><trkpt lat="39.46810626" lon="-0.32329663"><ele>-3.4</ele><time>2022-11-14T17:00:07.0000000+00:00</time></trkpt><trkpt lat="39.46811842" lon="-0.3232709"><ele>-3.4</ele><time>2022-11-14T17:00:08.0000000+00:00</time></trkpt><trkpt lat="39.46813258" lon="-0.32325296"><ele>-3.4</ele><time>2022-11-14T17:00:09.0000000+00:00</time></trkpt><trkpt lat="39.46815077" lon="-0.32324608"><ele>-3.6</ele><time>2022-11-14T17:00:10.0000000+00:00</time></trkpt><trkpt lat="39.46816536" lon="-0.32324709"><ele>-3.6</ele><time>2022-11-14T17:00:11.0000000+00:00</time></trkpt><trkpt lat="39.46818455" lon="-0.32325899"><ele>-3.6</ele><time>2022-11-14T17:00:12.0000000+00:00</time></trkpt><trkpt lat="39.46820651" lon="-0.32328003"><ele>-3.6</ele><time>2022-11-14T17:00:13.0000000+00:00</time></trkpt><trkpt lat="39.46822864" lon="-0.32330392"><ele>-3.6</ele><time>2022-11-14T17:00:14.0000000+00:00</time></trkpt><trkpt lat="39.46825462" lon="-0.32332756"><ele>-3.4</ele><time>2022-11-14T17:00:15.0000000+00:00</time></trkpt><trkpt lat="39.46828145" lon="-0.32335371"><ele>-3.4</ele><time>2022-11-14T17:00:16.0000000+00:00</time></trkpt><trkpt lat="39.46831254" lon="-0.32338036"><ele>-3.4</ele><time>2022-11-14T17:00:17.0000000+00:00</time></trkpt><trkpt lat="39.46834406" lon="-0.32340501"><ele>-3.4</ele><time>2022-11-14T17:00:18.0000000+00:00</time></trkpt><trkpt lat="39.46837247" lon="-0.32343091"><ele>-3.4</ele><time>2022-11-14T17:00:19.0000000+00:00</time></trkpt><trkpt lat="39.46838949" lon="-0.3234641"><ele>-3.4</ele><time>2022-11-14T17:00:20.0000000+00:00</time></trkpt><trkpt lat="39.4683967" lon="-0.32350416"><ele>-3.2</ele><time>2022-11-14T17:00:21.0000000+00:00</time></trkpt><trkpt lat="39.46839569" lon="-0.32355211"><ele>-3.2</ele><time>2022-11-14T17:00:22.0000000+00:00</time></trkpt><trkpt lat="39.46839469" lon="-0.32360399"><ele>-3.0</ele><time>2022-11-14T17:00:23.0000000+00:00</time></trkpt><trkpt lat="39.46839435" lon="-0.3236578"><ele>-3.0</ele><time>2022-11-14T17:00:24.0000000+00:00</time></trkpt><trkpt lat="39.46839158" lon="-0.32371346"><ele>-3.0</ele><time>2022-11-14T17:00:25.0000000+00:00</time></trkpt><trkpt lat="39.46839117" lon="-0.32376861"><ele>-3.0</ele><time>2022-11-14T17:00:26.0000000+00:00</time></trkpt><trkpt lat="39.46839175" lon="-0.32382192"><ele>-3.0</ele><time>2022-11-14T17:00:27.0000000+00:00</time></trkpt><trkpt lat="39.46839527" lon="-0.32386283"><ele>-3.0</ele><time>2022-11-14T17:00:28.0000000+00:00</time></trkpt><trkpt lat="39.46840248" lon="-0.3239137"><ele>-3.0</ele><time>2022-11-14T17:00:29.0000000+00:00</time></trkpt><trkpt lat="39.4684169" lon="-0.3239707"><ele>-3.2</ele><time>2022-11-14T17:00:30.0000000+00:00</time></trkpt><trkpt lat="39.46843668" lon="-0.32400331"><ele>-3.2</ele><time>2022-11-14T17:00:31.0000000+00:00</time></trkpt><trkpt lat="39.46846199" lon="-0.32402284"><ele>-3.4</ele><time>2022-11-14T17:00:32.0000000+00:00</time></trkpt><trkpt lat="39.4684899" lon="-0.32403105"><ele>-3.4</ele><time>2022-11-14T17:00:33.0000000+00:00</time></trkpt><trkpt lat="39.46851455" lon="-0.32403289"><ele>-3.4</ele><time>2022-11-14T17:00:34.0000000+00:00</time></trkpt><trkpt lat="39.46853726" lon="-0.32403071"><ele>-3.4</ele><time>2022-11-14T17:00:35.0000000+00:00</time></trkpt><trkpt lat="39.46855964" lon="-0.32403013"><ele>-3.4</ele><time>2022-11-14T17:00:36.0000000+00:00</time></trkpt><trkpt lat="39.46857951" lon="-0.32402837"><ele>-3.4</ele><time>2022-11-14T17:00:37.0000000+00:00</time></trkpt><trkpt lat="39.46860432" lon="-0.32402518"><ele>-3.4</ele><time>2022-11-14T17:00:38.0000000+00:00</time></trkpt><trkpt lat="39.46862586" lon="-0.32402501"><ele>-3.4</ele><time>2022-11-14T17:00:39.0000000+00:00</time></trkpt><trkpt lat="39.468651" lon="-0.32402594"><ele>-3.4</ele><time>2022-11-14T17:00:40.0000000+00:00</time></trkpt><trkpt lat="39.46867464" lon="-0.32402594"><ele>-3.4</ele><time>2022-11-14T17:00:41.0000000+00:00</time></trkpt><trkpt lat="39.46869342" lon="-0.32402577"><ele>-3.4</ele><time>2022-11-14T17:00:42.0000000+00:00</time></trkpt><trkpt lat="39.46870859" lon="-0.32402485"><ele>-3.4</ele><time>2022-11-14T17:00:43.0000000+00:00</time></trkpt><trkpt lat="39.46872988" lon="-0.32402015"><ele>-3.4</ele><time>2022-11-14T17:00:44.0000000+00:00</time></trkpt><trkpt lat="39.46875226" lon="-0.32401504"><ele>-3.4</ele><time>2022-11-14T17:00:45.0000000+00:00</time></trkpt><trkpt lat="39.46877288" lon="-0.32400758"><ele>-3.4</ele><time>2022-11-14T17:00:46.0000000+00:00</time></trkpt><trkpt lat="39.46878964" lon="-0.32399878"><ele>-3.4</ele><time>2022-11-14T17:00:47.0000000+00:00</time></trkpt><trkpt lat="39.4688106" lon="-0.32399174"><ele>-3.4</ele><time>2022-11-14T17:00:48.0000000+00:00</time></trkpt><trkpt lat="39.46883323" lon="-0.32398864"><ele>-3.4</ele><time>2022-11-14T17:00:49.0000000+00:00</time></trkpt><trkpt lat="39.4688551" lon="-0.32398663"><ele>-3.4</ele><time>2022-11-14T17:00:50.0000000+00:00</time></trkpt><trkpt lat="39.46887665" lon="-0.32398621"><ele>-3.4</ele><time>2022-11-14T17:00:51.0000000+00:00</time></trkpt><trkpt lat="39.46889928" lon="-0.32398654"><ele>-3.6</ele><time>2022-11-14T17:00:52.0000000+00:00</time></trkpt><trkpt lat="39.46892099" lon="-0.32398663"><ele>-3.6</ele><time>2022-11-14T17:00:53.0000000+00:00</time></trkpt><trkpt lat="39.46894496" lon="-0.32398528"><ele>-3.6</ele><time>2022-11-14T17:00:54.0000000+00:00</time></trkpt><trkpt lat="39.46897161" lon="-0.32398361"><ele>-3.6</ele><time>2022-11-14T17:00:55.0000000+00:00</time></trkpt><trkpt lat="39.46900095" lon="-0.32398495"><ele>-3.6</ele><time>2022-11-14T17:00:56.0000000+00:00</time></trkpt><trkpt lat="39.46902978" lon="-0.32398889"><ele>-3.6</ele><time>2022-11-14T17:00:57.0000000+00:00</time></trkpt><trkpt lat="39.46905635" lon="-0.32399425"><ele>-3.6</ele><time>2022-11-14T17:00:58.0000000+00:00</time></trkpt><trkpt lat="39.46908292" lon="-0.32399685"><ele>-3.6</ele><time>2022-11-14T17:00:59.0000000+00:00</time></trkpt><trkpt lat="39.46910866" lon="-0.32399744"><ele>-3.6</ele><time>2022-11-14T17:01:00.0000000+00:00</time></trkpt><trkpt lat="39.46913447" lon="-0.32399484"><ele>-3.6</ele><time>2022-11-14T17:01:01.0000000+00:00</time></trkpt><trkpt lat="39.46915945" lon="-0.3239909"><ele>-3.6</ele><time>2022-11-14T17:01:02.0000000+00:00</time></trkpt><trkpt lat="39.46918468" lon="-0.32399015"><ele>-3.6</ele><time>2022-11-14T17:01:03.0000000+00:00</time></trkpt><trkpt lat="39.46921494" lon="-0.32399107"><ele>-3.6</ele><time>2022-11-14T17:01:04.0000000+00:00</time></trkpt><trkpt lat="39.46924578" lon="-0.3239883"><ele>-3.6</ele><time>2022-11-14T17:01:05.0000000+00:00</time></trkpt><trkpt lat="39.46928082" lon="-0.32398922"><ele>-3.6</ele><time>2022-11-14T17:01:06.0000000+00:00</time></trkpt><trkpt lat="39.46931343" lon="-0.32399174"><ele>-3.6</ele><time>2022-11-14T17:01:07.0000000+00:00</time></trkpt><trkpt lat="39.46934377" lon="-0.3239914"><ele>-3.6</ele><time>2022-11-14T17:01:08.0000000+00:00</time></trkpt><trkpt lat="39.46937311" lon="-0.32399023"><ele>-3.6</ele><time>2022-11-14T17:01:09.0000000+00:00</time></trkpt><trkpt lat="39.46940118" lon="-0.32399073"><ele>-3.6</ele><time>2022-11-14T17:01:10.0000000+00:00</time></trkpt><trkpt lat="39.46943287" lon="-0.32399165"><ele>-3.6</ele><time>2022-11-14T17:01:11.0000000+00:00</time></trkpt><trkpt lat="39.46946598" lon="-0.32398931"><ele>-3.6</ele><time>2022-11-14T17:01:12.0000000+00:00</time></trkpt><trkpt lat="39.46950143" lon="-0.32398654"><ele>-3.6</ele><time>2022-11-14T17:01:13.0000000+00:00</time></trkpt><trkpt lat="39.46953144" lon="-0.3239883"><ele>-3.6</ele><time>2022-11-14T17:01:14.0000000+00:00</time></trkpt><trkpt lat="39.46955885" lon="-0.3239857"><ele>-3.6</ele><time>2022-11-14T17:01:15.0000000+00:00</time></trkpt><trkpt lat="39.46958969" lon="-0.32398545"><ele>-3.6</ele><time>2022-11-14T17:01:16.0000000+00:00</time></trkpt><trkpt lat="39.4696223" lon="-0.32398646"><ele>-3.6</ele><time>2022-11-14T17:01:17.0000000+00:00</time></trkpt><trkpt lat="39.46965256" lon="-0.32398394"><ele>-3.6</ele><time>2022-11-14T17:01:18.0000000+00:00</time></trkpt><trkpt lat="39.46968156" lon="-0.32397959"><ele>-3.6</ele><time>2022-11-14T17:01:19.0000000+00:00</time></trkpt><trkpt lat="39.46971098" lon="-0.32397699"><ele>-3.6</ele><time>2022-11-14T17:01:20.0000000+00:00</time></trkpt><trkpt lat="39.46974074" lon="-0.32397782"><ele>-3.6</ele><time>2022-11-14T17:01:21.0000000+00:00</time></trkpt><trkpt lat="39.4697668" lon="-0.32398084"><ele>-3.6</ele><time>2022-11-14T17:01:22.0000000+00:00</time></trkpt><trkpt lat="39.46979497" lon="-0.32398176"><ele>-3.6</ele><time>2022-11-14T17:01:23.0000000+00:00</time></trkpt><trkpt lat="39.4698243" lon="-0.32398227"><ele>-3.6</ele><time>2022-11-14T17:01:24.0000000+00:00</time></trkpt><trkpt lat="39.46985423" lon="-0.32398378"><ele>-3.6</ele><time>2022-11-14T17:01:25.0000000+00:00</time></trkpt><trkpt lat="39.4698844" lon="-0.32398394"><ele>-3.6</ele><time>2022-11-14T17:01:26.0000000+00:00</time></trkpt><trkpt lat="39.46991332" lon="-0.32398143"><ele>-3.6</ele><time>2022-11-14T17:01:27.0000000+00:00</time></trkpt><trkpt lat="39.46994299" lon="-0.32397841"><ele>-3.6</ele><time>2022-11-14T17:01:28.0000000+00:00</time></trkpt><trkpt lat="39.46997711" lon="-0.32397657"><ele>-3.6</ele><time>2022-11-14T17:01:29.0000000+00:00</time></trkpt><trkpt lat="39.47001382" lon="-0.3239759"><ele>-3.6</ele><time>2022-11-14T17:01:30.0000000+00:00</time></trkpt><trkpt lat="39.47005162" lon="-0.32397238"><ele>-3.6</ele><time>2022-11-14T17:01:31.0000000+00:00</time></trkpt><trkpt lat="39.47008808" lon="-0.32397036"><ele>-3.6</ele><time>2022-11-14T17:01:32.0000000+00:00</time></trkpt><trkpt lat="39.47012555" lon="-0.32396961"><ele>-3.6</ele><time>2022-11-14T17:01:33.0000000+00:00</time></trkpt><trkpt lat="39.47016151" lon="-0.32396995"><ele>-3.6</ele><time>2022-11-14T17:01:34.0000000+00:00</time></trkpt><trkpt lat="39.47019814" lon="-0.32397095"><ele>-3.6</ele><time>2022-11-14T17:01:35.0000000+00:00</time></trkpt><trkpt lat="39.47023301" lon="-0.32396634"><ele>-3.6</ele><time>2022-11-14T17:01:36.0000000+00:00</time></trkpt><trkpt lat="39.47026829" lon="-0.32396433"><ele>-3.6</ele><time>2022-11-14T17:01:37.0000000+00:00</time></trkpt><trkpt lat="39.47029838" lon="-0.32396349"><ele>-3.6</ele><time>2022-11-14T17:01:38.0000000+00:00</time></trkpt><trkpt lat="39.47032713" lon="-0.32396441"><ele>-3.6</ele><time>2022-11-14T17:01:39.0000000+00:00</time></trkpt><trkpt lat="39.47034868" lon="-0.32396584"><ele>-3.6</ele><time>2022-11-14T17:01:40.0000000+00:00</time></trkpt><trkpt lat="39.47038136" lon="-0.32396425"><ele>-3.6</ele><time>2022-11-14T17:01:41.0000000+00:00</time></trkpt><trkpt lat="39.47040877" lon="-0.32396425"><ele>-3.8</ele><time>2022-11-14T17:01:42.0000000+00:00</time></trkpt><trkpt lat="39.4704366" lon="-0.32396383"><ele>-3.8</ele><time>2022-11-14T17:01:43.0000000+00:00</time></trkpt><trkpt lat="39.47045982" lon="-0.32396064"><ele>-3.8</ele><time>2022-11-14T17:01:44.0000000+00:00</time></trkpt><trkpt lat="39.4704796" lon="-0.32395829"><ele>-3.8</ele><time>2022-11-14T17:01:45.0000000+00:00</time></trkpt><trkpt lat="39.47050315" lon="-0.32395922"><ele>-3.8</ele><time>2022-11-14T17:01:46.0000000+00:00</time></trkpt><trkpt lat="39.47052872" lon="-0.32396064"><ele>-3.8</ele><time>2022-11-14T17:01:47.0000000+00:00</time></trkpt><trkpt lat="39.47055638" lon="-0.32396349"><ele>-3.8</ele><time>2022-11-14T17:01:48.0000000+00:00</time></trkpt><trkpt lat="39.47058597" lon="-0.32396676"><ele>-3.8</ele><time>2022-11-14T17:01:49.0000000+00:00</time></trkpt><trkpt lat="39.47061296" lon="-0.32396592"><ele>-3.8</ele><time>2022-11-14T17:01:50.0000000+00:00</time></trkpt><trkpt lat="39.47064037" lon="-0.32396676"><ele>-3.8</ele><time>2022-11-14T17:01:51.0000000+00:00</time></trkpt><trkpt lat="39.47066736" lon="-0.32396819"><ele>-3.8</ele><time>2022-11-14T17:01:52.0000000+00:00</time></trkpt><trkpt lat="39.47069518" lon="-0.3239702"><ele>-3.8</ele><time>2022-11-14T17:01:53.0000000+00:00</time></trkpt><trkpt lat="39.47072527" lon="-0.32397254"><ele>-3.8</ele><time>2022-11-14T17:01:54.0000000+00:00</time></trkpt><trkpt lat="39.47075184" lon="-0.32397263"><ele>-3.8</ele><time>2022-11-14T17:01:55.0000000+00:00</time></trkpt><trkpt lat="39.47077649" lon="-0.32397238"><ele>-3.8</ele><time>2022-11-14T17:01:56.0000000+00:00</time></trkpt><trkpt lat="39.47079903" lon="-0.32397213"><ele>-4.0</ele><time>2022-11-14T17:01:57.0000000+00:00</time></trkpt><trkpt lat="39.47081949" lon="-0.32397271"><ele>-4.0</ele><time>2022-11-14T17:01:58.0000000+00:00</time></trkpt><trkpt lat="39.47084413" lon="-0.32397187"><ele>-4.0</ele><time>2022-11-14T17:01:59.0000000+00:00</time></trkpt><trkpt lat="39.47086852" lon="-0.32396827"><ele>-4.0</ele><time>2022-11-14T17:02:00.0000000+00:00</time></trkpt><trkpt lat="39.470894" lon="-0.32397129"><ele>-4.0</ele><time>2022-11-14T17:02:01.0000000+00:00</time></trkpt><trkpt lat="39.47091898" lon="-0.32397514"><ele>-4.0</ele><time>2022-11-14T17:02:02.0000000+00:00</time></trkpt><trkpt lat="39.4709453" lon="-0.3239759"><ele>-4.0</ele><time>2022-11-14T17:02:03.0000000+00:00</time></trkpt><trkpt lat="39.470966" lon="-0.32397573"><ele>-4.0</ele><time>2022-11-14T17:02:04.0000000+00:00</time></trkpt><trkpt lat="39.47098604" lon="-0.3239764"><ele>-4.0</ele><time>2022-11-14T17:02:05.0000000+00:00</time></trkpt><trkpt lat="39.47100406" lon="-0.32397573"><ele>-4.0</ele><time>2022-11-14T17:02:06.0000000+00:00</time></trkpt><trkpt lat="39.47102401" lon="-0.32397464"><ele>-4.0</ele><time>2022-11-14T17:02:07.0000000+00:00</time></trkpt><trkpt lat="39.47103876" lon="-0.32397162"><ele>-4.0</ele><time>2022-11-14T17:02:08.0000000+00:00</time></trkpt><trkpt lat="39.47105502" lon="-0.32396978"><ele>-4.0</ele><time>2022-11-14T17:02:09.0000000+00:00</time></trkpt><trkpt lat="39.47106902" lon="-0.32397154"><ele>-4.0</ele><time>2022-11-14T17:02:10.0000000+00:00</time></trkpt><trkpt lat="39.47108435" lon="-0.32397799"><ele>-4.0</ele><time>2022-11-14T17:02:11.0000000+00:00</time></trkpt><trkpt lat="39.47110078" lon="-0.3239883"><ele>-4.0</ele><time>2022-11-14T17:02:12.0000000+00:00</time></trkpt><trkpt lat="39.47111704" lon="-0.32400414"><ele>-4.0</ele><time>2022-11-14T17:02:13.0000000+00:00</time></trkpt><trkpt lat="39.47113825" lon="-0.32402409"><ele>-4.0</ele><time>2022-11-14T17:02:14.0000000+00:00</time></trkpt><trkpt lat="39.47116591" lon="-0.32403708"><ele>-4.0</ele><time>2022-11-14T17:02:15.0000000+00:00</time></trkpt><trkpt lat="39.47119952" lon="-0.32404941"><ele>-4.0</ele><time>2022-11-14T17:02:16.0000000+00:00</time></trkpt><trkpt lat="39.4712276" lon="-0.324066"><ele>-3.8</ele><time>2022-11-14T17:02:17.0000000+00:00</time></trkpt><trkpt lat="39.47126364" lon="-0.32410741"><ele>-3.8</ele><time>2022-11-14T17:02:18.0000000+00:00</time></trkpt><trkpt lat="39.47127664" lon="-0.32414731"><ele>-3.8</ele><time>2022-11-14T17:02:19.0000000+00:00</time></trkpt><trkpt lat="39.47128359" lon="-0.32420087"><ele>-3.8</ele><time>2022-11-14T17:02:20.0000000+00:00</time></trkpt><trkpt lat="39.4712913" lon="-0.32426164"><ele>-3.8</ele><time>2022-11-14T17:02:21.0000000+00:00</time></trkpt><trkpt lat="39.47131176" lon="-0.32429759"><ele>-3.8</ele><time>2022-11-14T17:02:22.0000000+00:00</time></trkpt><trkpt lat="39.47134436" lon="-0.32430908"><ele>-3.8</ele><time>2022-11-14T17:02:23.0000000+00:00</time></trkpt><trkpt lat="39.47137797" lon="-0.32431075"><ele>-3.6</ele><time>2022-11-14T17:02:24.0000000+00:00</time></trkpt><trkpt lat="39.47141569" lon="-0.32431444"><ele>-3.6</ele><time>2022-11-14T17:02:25.0000000+00:00</time></trkpt><trkpt lat="39.4714545" lon="-0.32431838"><ele>-3.6</ele><time>2022-11-14T17:02:26.0000000+00:00</time></trkpt><trkpt lat="39.47149373" lon="-0.3243188"><ele>-3.6</ele><time>2022-11-14T17:02:27.0000000+00:00</time></trkpt><trkpt lat="39.47153178" lon="-0.32432098"><ele>-3.8</ele><time>2022-11-14T17:02:28.0000000+00:00</time></trkpt><trkpt lat="39.47157025" lon="-0.32432266"><ele>-3.8</ele><time>2022-11-14T17:02:29.0000000+00:00</time></trkpt><trkpt lat="39.47161392" lon="-0.32432157"><ele>-3.8</ele><time>2022-11-14T17:02:30.0000000+00:00</time></trkpt><trkpt lat="39.47165634" lon="-0.32432651"><ele>-3.8</ele><time>2022-11-14T17:02:31.0000000+00:00</time></trkpt><trkpt lat="39.47169615" lon="-0.32434177"><ele>-3.8</ele><time>2022-11-14T17:02:32.0000000+00:00</time></trkpt><trkpt lat="39.4717394" lon="-0.32437102"><ele>-3.8</ele><time>2022-11-14T17:02:33.0000000+00:00</time></trkpt><trkpt lat="39.47178894" lon="-0.32440111"><ele>-3.8</ele><time>2022-11-14T17:02:34.0000000+00:00</time></trkpt><trkpt lat="39.47184619" lon="-0.32441997"><ele>-3.8</ele><time>2022-11-14T17:02:35.0000000+00:00</time></trkpt><trkpt lat="39.47190503" lon="-0.32442399"><ele>-3.8</ele><time>2022-11-14T17:02:36.0000000+00:00</time></trkpt><trkpt lat="39.47196479" lon="-0.32442299"><ele>-3.8</ele><time>2022-11-14T17:02:37.0000000+00:00</time></trkpt><trkpt lat="39.47202447" lon="-0.32441938"><ele>-3.8</ele><time>2022-11-14T17:02:38.0000000+00:00</time></trkpt><trkpt lat="39.47208515" lon="-0.32441846"><ele>-3.6</ele><time>2022-11-14T17:02:39.0000000+00:00</time></trkpt><trkpt lat="39.47214508" lon="-0.32441838"><ele>-3.6</ele><time>2022-11-14T17:02:40.0000000+00:00</time></trkpt><trkpt lat="39.47220778" lon="-0.32441561"><ele>-3.4</ele><time>2022-11-14T17:02:41.0000000+00:00</time></trkpt><trkpt lat="39.47226981" lon="-0.3244141"><ele>-3.4</ele><time>2022-11-14T17:02:42.0000000+00:00</time></trkpt><trkpt lat="39.47232882" lon="-0.32441192"><ele>-3.4</ele><time>2022-11-14T17:02:43.0000000+00:00</time></trkpt><trkpt lat="39.47238699" lon="-0.32440882"><ele>-3.4</ele><time>2022-11-14T17:02:44.0000000+00:00</time></trkpt><trkpt lat="39.47244415" lon="-0.32440731"><ele>-3.4</ele><time>2022-11-14T17:02:45.0000000+00:00</time></trkpt><trkpt lat="39.47250282" lon="-0.32440522"><ele>-3.4</ele><time>2022-11-14T17:02:46.0000000+00:00</time></trkpt><trkpt lat="39.47255798" lon="-0.32440488"><ele>-3.4</ele><time>2022-11-14T17:02:47.0000000+00:00</time></trkpt><trkpt lat="39.47260165" lon="-0.32440773"><ele>-3.4</ele><time>2022-11-14T17:02:48.0000000+00:00</time></trkpt><trkpt lat="39.47267273" lon="-0.32441402"><ele>-3.2</ele><time>2022-11-14T17:02:49.0000000+00:00</time></trkpt><trkpt lat="39.47273542" lon="-0.32441989"><ele>-3.2</ele><time>2022-11-14T17:02:50.0000000+00:00</time></trkpt><trkpt lat="39.47280273" lon="-0.32442785"><ele>-3.2</ele><time>2022-11-14T17:02:51.0000000+00:00</time></trkpt><trkpt lat="39.47287255" lon="-0.32442961"><ele>-3.0</ele><time>2022-11-14T17:02:52.0000000+00:00</time></trkpt><trkpt lat="39.4729407" lon="-0.32442676"><ele>-3.0</ele><time>2022-11-14T17:02:53.0000000+00:00</time></trkpt><trkpt lat="39.47300775" lon="-0.32442693"><ele>-3.0</ele><time>2022-11-14T17:02:54.0000000+00:00</time></trkpt><trkpt lat="39.47307657" lon="-0.32442953"><ele>-3.0</ele><time>2022-11-14T17:02:55.0000000+00:00</time></trkpt><trkpt lat="39.47314714" lon="-0.32443254"><ele>-3.0</ele><time>2022-11-14T17:02:56.0000000+00:00</time></trkpt><trkpt lat="39.47321931" lon="-0.32443263"><ele>-3.0</ele><time>2022-11-14T17:02:57.0000000+00:00</time></trkpt><trkpt lat="39.4732924" lon="-0.32443212"><ele>-3.0</ele><time>2022-11-14T17:02:58.0000000+00:00</time></trkpt><trkpt lat="39.473367" lon="-0.32443129"><ele>-3.0</ele><time>2022-11-14T17:02:59.0000000+00:00</time></trkpt><trkpt lat="39.47343347" lon="-0.32442777"><ele>-3.2</ele><time>2022-11-14T17:03:00.0000000+00:00</time></trkpt><trkpt lat="39.47349306" lon="-0.32442072"><ele>-3.2</ele><time>2022-11-14T17:03:01.0000000+00:00</time></trkpt><trkpt lat="39.47354662" lon="-0.32441863"><ele>-3.2</ele><time>2022-11-14T17:03:02.0000000+00:00</time></trkpt><trkpt lat="39.47358392" lon="-0.32441704"><ele>-3.4</ele><time>2022-11-14T17:03:03.0000000+00:00</time></trkpt><trkpt lat="39.47361963" lon="-0.32441695"><ele>-3.4</ele><time>2022-11-14T17:03:04.0000000+00:00</time></trkpt><trkpt lat="39.47364301" lon="-0.32442718"><ele>-3.4</ele><time>2022-11-14T17:03:05.0000000+00:00</time></trkpt><trkpt lat="39.4736545" lon="-0.32444981"><ele>-3.4</ele><time>2022-11-14T17:03:06.0000000+00:00</time></trkpt><trkpt lat="39.47366011" lon="-0.32448057"><ele>-3.6</ele><time>2022-11-14T17:03:07.0000000+00:00</time></trkpt><trkpt lat="39.47366355" lon="-0.32451519"><ele>-3.6</ele><time>2022-11-14T17:03:08.0000000+00:00</time></trkpt><trkpt lat="39.47366338" lon="-0.32453799"><ele>-3.6</ele><time>2022-11-14T17:03:09.0000000+00:00</time></trkpt><trkpt lat="39.47366162" lon="-0.32456724"><ele>-3.6</ele><time>2022-11-14T17:03:10.0000000+00:00</time></trkpt><trkpt lat="39.47365299" lon="-0.3245913"><ele>-3.6</ele><time>2022-11-14T17:03:11.0000000+00:00</time></trkpt><trkpt lat="39.47364595" lon="-0.32460504"><ele>-3.6</ele><time>2022-11-14T17:03:12.0000000+00:00</time></trkpt><trkpt lat="39.47364117" lon="-0.32461024"><ele>-3.6</ele><time>2022-11-14T17:03:13.0000000+00:00</time></trkpt><trkpt lat="39.47364352" lon="-0.32461217"><ele>-3.6</ele><time>2022-11-14T17:03:14.0000000+00:00</time></trkpt><trkpt lat="39.47363966" lon="-0.32461678"><ele>-3.6</ele><time>2022-11-14T17:03:15.0000000+00:00</time></trkpt><trkpt lat="39.47363447" lon="-0.32462918"><ele>-3.6</ele><time>2022-11-14T17:03:16.0000000+00:00</time></trkpt><trkpt lat="39.4736317" lon="-0.32464746"><ele>-3.6</ele><time>2022-11-14T17:03:17.0000000+00:00</time></trkpt><trkpt lat="39.47362172" lon="-0.3246804"><ele>-3.6</ele><time>2022-11-14T17:03:18.0000000+00:00</time></trkpt><trkpt lat="39.47361066" lon="-0.32470705"><ele>-3.6</ele><time>2022-11-14T17:03:19.0000000+00:00</time></trkpt><trkpt lat="39.47360857" lon="-0.32473236"><ele>-3.6</ele><time>2022-11-14T17:03:20.0000000+00:00</time></trkpt><trkpt lat="39.47360504" lon="-0.32475835"><ele>-3.6</ele><time>2022-11-14T17:03:21.0000000+00:00</time></trkpt><trkpt lat="39.47360027" lon="-0.3247845"><ele>-3.6</ele><time>2022-11-14T17:03:22.0000000+00:00</time></trkpt><trkpt lat="39.47359365" lon="-0.32480076"><ele>-3.6</ele><time>2022-11-14T17:03:23.0000000+00:00</time></trkpt><trkpt lat="39.47357881" lon="-0.32482716"><ele>-3.6</ele><time>2022-11-14T17:03:24.0000000+00:00</time></trkpt><trkpt lat="39.47356909" lon="-0.32484963"><ele>-3.6</ele><time>2022-11-14T17:03:25.0000000+00:00</time></trkpt><trkpt lat="39.47356464" lon="-0.3248653"><ele>-3.8</ele><time>2022-11-14T17:03:26.0000000+00:00</time></trkpt><trkpt lat="39.47356481" lon="-0.32489539"><ele>-3.8</ele><time>2022-11-14T17:03:27.0000000+00:00</time></trkpt><trkpt lat="39.47355953" lon="-0.32491928"><ele>-3.8</ele><time>2022-11-14T17:03:28.0000000+00:00</time></trkpt><trkpt lat="39.47355769" lon="-0.32494275"><ele>-3.8</ele><time>2022-11-14T17:03:29.0000000+00:00</time></trkpt><trkpt lat="39.47355584" lon="-0.32496077"><ele>-3.6</ele><time>2022-11-14T17:03:30.0000000+00:00</time></trkpt><trkpt lat="39.47355484" lon="-0.32498399"><ele>-3.6</ele><time>2022-11-14T17:03:31.0000000+00:00</time></trkpt><trkpt lat="39.47355609" lon="-0.32500997"><ele>-3.6</ele><time>2022-11-14T17:03:32.0000000+00:00</time></trkpt><trkpt lat="39.47355609" lon="-0.32504451"><ele>-3.6</ele><time>2022-11-14T17:03:33.0000000+00:00</time></trkpt><trkpt lat="39.473555" lon="-0.32506881"><ele>-3.6</ele><time>2022-11-14T17:03:34.0000000+00:00</time></trkpt><trkpt lat="39.47355542" lon="-0.32510284"><ele>-3.6</ele><time>2022-11-14T17:03:35.0000000+00:00</time></trkpt><trkpt lat="39.47355534" lon="-0.32512975"><ele>-3.6</ele><time>2022-11-14T17:03:36.0000000+00:00</time></trkpt><trkpt lat="39.47355484" lon="-0.32516051"><ele>-3.6</ele><time>2022-11-14T17:03:37.0000000+00:00</time></trkpt><trkpt lat="39.47355023" lon="-0.32519018"><ele>-3.6</ele><time>2022-11-14T17:03:38.0000000+00:00</time></trkpt><trkpt lat="39.47355241" lon="-0.32521516"><ele>-3.6</ele><time>2022-11-14T17:03:39.0000000+00:00</time></trkpt><trkpt lat="39.47355635" lon="-0.32525933"><ele>-3.8</ele><time>2022-11-14T17:03:40.0000000+00:00</time></trkpt><trkpt lat="39.47355853" lon="-0.32528968"><ele>-3.8</ele><time>2022-11-14T17:03:41.0000000+00:00</time></trkpt><trkpt lat="39.47355618" lon="-0.32532589"><ele>-3.8</ele><time>2022-11-14T17:03:42.0000000+00:00</time></trkpt><trkpt lat="39.47355408" lon="-0.32533838"><ele>-3.8</ele><time>2022-11-14T17:03:43.0000000+00:00</time></trkpt><trkpt lat="39.47355333" lon="-0.32534818"><ele>-4.0</ele><time>2022-11-14T17:03:44.0000000+00:00</time></trkpt><trkpt lat="39.4735519" lon="-0.32536176"><ele>-4.0</ele><time>2022-11-14T17:03:45.0000000+00:00</time></trkpt><trkpt lat="39.4735509" lon="-0.32537484"><ele>-4.0</ele><time>2022-11-14T17:03:46.0000000+00:00</time></trkpt><trkpt lat="39.47354453" lon="-0.32538691"><ele>-4.0</ele><time>2022-11-14T17:03:47.0000000+00:00</time></trkpt><trkpt lat="39.47353715" lon="-0.32540434"><ele>-4.0</ele><time>2022-11-14T17:03:48.0000000+00:00</time></trkpt><trkpt lat="39.47353019" lon="-0.32542672"><ele>-4.0</ele><time>2022-11-14T17:03:49.0000000+00:00</time></trkpt><trkpt lat="39.4735312" lon="-0.3254439"><ele>-4.0</ele><time>2022-11-14T17:03:50.0000000+00:00</time></trkpt><trkpt lat="39.47353439" lon="-0.32545438"><ele>-4.0</ele><time>2022-11-14T17:03:51.0000000+00:00</time></trkpt><trkpt lat="39.47353254" lon="-0.32546754"><ele>-4.0</ele><time>2022-11-14T17:03:52.0000000+00:00</time></trkpt><trkpt lat="39.4735348" lon="-0.32548439"><ele>-4.0</ele><time>2022-11-14T17:03:53.0000000+00:00</time></trkpt><trkpt lat="39.4735421" lon="-0.32550702"><ele>-4.0</ele><time>2022-11-14T17:03:54.0000000+00:00</time></trkpt><trkpt lat="39.47355433" lon="-0.32553619"><ele>-4.0</ele><time>2022-11-14T17:03:55.0000000+00:00</time></trkpt><trkpt lat="39.47357487" lon="-0.32556502"><ele>-4.0</ele><time>2022-11-14T17:03:56.0000000+00:00</time></trkpt><trkpt lat="39.47360219" lon="-0.3255895"><ele>-4.0</ele><time>2022-11-14T17:03:57.0000000+00:00</time></trkpt><trkpt lat="39.47363078" lon="-0.32560341"><ele>-4.0</ele><time>2022-11-14T17:03:58.0000000+00:00</time></trkpt><trkpt lat="39.47366405" lon="-0.32561255"><ele>-4.0</ele><time>2022-11-14T17:03:59.0000000+00:00</time></trkpt><trkpt lat="39.47370571" lon="-0.32562085"><ele>-4.0</ele><time>2022-11-14T17:04:00.0000000+00:00</time></trkpt><trkpt lat="39.47375081" lon="-0.32562437"><ele>-3.8</ele><time>2022-11-14T17:04:01.0000000+00:00</time></trkpt><trkpt lat="39.47379263" lon="-0.32562411"><ele>-3.8</ele><time>2022-11-14T17:04:02.0000000+00:00</time></trkpt><trkpt lat="39.47383395" lon="-0.32562445"><ele>-3.8</ele><time>2022-11-14T17:04:03.0000000+00:00</time></trkpt><trkpt lat="39.47387653" lon="-0.32561959"><ele>-3.8</ele><time>2022-11-14T17:04:04.0000000+00:00</time></trkpt><trkpt lat="39.47391677" lon="-0.3256195"><ele>-3.8</ele><time>2022-11-14T17:04:05.0000000+00:00</time></trkpt><trkpt lat="39.47395566" lon="-0.32562043"><ele>-3.8</ele><time>2022-11-14T17:04:06.0000000+00:00</time></trkpt><trkpt lat="39.47400059" lon="-0.32561825"><ele>-3.8</ele><time>2022-11-14T17:04:07.0000000+00:00</time></trkpt><trkpt lat="39.47404702" lon="-0.32561339"><ele>-3.8</ele><time>2022-11-14T17:04:08.0000000+00:00</time></trkpt><trkpt lat="39.47409505" lon="-0.32561489"><ele>-3.8</ele><time>2022-11-14T17:04:09.0000000+00:00</time></trkpt><trkpt lat="39.47414643" lon="-0.32561523"><ele>-3.8</ele><time>2022-11-14T17:04:10.0000000+00:00</time></trkpt><trkpt lat="39.47419002" lon="-0.32561724"><ele>-3.8</ele><time>2022-11-14T17:04:11.0000000+00:00</time></trkpt><trkpt lat="39.47423562" lon="-0.32561238"><ele>-3.8</ele><time>2022-11-14T17:04:12.0000000+00:00</time></trkpt><trkpt lat="39.47426772" lon="-0.32560769"><ele>-3.8</ele><time>2022-11-14T17:04:13.0000000+00:00</time></trkpt><trkpt lat="39.47429253" lon="-0.32560274"><ele>-4.0</ele><time>2022-11-14T17:04:14.0000000+00:00</time></trkpt><trkpt lat="39.47429731" lon="-0.32560358"><ele>-4.0</ele><time>2022-11-14T17:04:15.0000000+00:00</time></trkpt><trkpt lat="39.47429664" lon="-0.32560257"><ele>-4.0</ele><time>2022-11-14T17:04:16.0000000+00:00</time></trkpt><trkpt lat="39.47429831" lon="-0.3255993"><ele>-4.0</ele><time>2022-11-14T17:04:17.0000000+00:00</time></trkpt><trkpt lat="39.47429831" lon="-0.3255993"><ele>-4.0</ele><time>2022-11-14T17:04:18.0000000+00:00</time></trkpt><trkpt lat="39.47429831" lon="-0.3255993"><ele>-4.0</ele><time>2022-11-14T17:04:19.0000000+00:00</time></trkpt><trkpt lat="39.47429831" lon="-0.3255993"><ele>-4.0</ele><time>2022-11-14T17:04:20.0000000+00:00</time></trkpt><trkpt lat="39.47429831" lon="-0.3255993"><ele>-4.2</ele><time>2022-11-14T17:04:21.0000000+00:00</time></trkpt><trkpt lat="39.47429831" lon="-0.3255993"><ele>-4.2</ele><time>2022-11-14T17:04:22.0000000+00:00</time></trkpt><trkpt lat="39.47429831" lon="-0.3255993"><ele>-4.2</ele><time>2022-11-14T17:04:23.0000000+00:00</time></trkpt><trkpt lat="39.47429831" lon="-0.3255993"><ele>-4.2</ele><time>2022-11-14T17:04:24.0000000+00:00</time></trkpt><trkpt lat="39.47429831" lon="-0.3255993"><ele>-4.2</ele><time>2022-11-14T17:04:25.0000000+00:00</time></trkpt><trkpt lat="39.47429831" lon="-0.3255993"><ele>-4.2</ele><time>2022-11-14T17:04:26.0000000+00:00</time></trkpt><trkpt lat="39.47429831" lon="-0.3255993"><ele>-4.2</ele><time>2022-11-14T17:04:27.0000000+00:00</time></trkpt><trkpt lat="39.47429831" lon="-0.3255993"><ele>-4.2</ele><time>2022-11-14T17:04:28.0000000+00:00</time></trkpt><trkpt lat="39.47429932" lon="-0.32559813"><ele>-4.2</ele><time>2022-11-14T17:04:29.0000000+00:00</time></trkpt><trkpt lat="39.4743025" lon="-0.32561045"><ele>-4.2</ele><time>2022-11-14T17:04:30.0000000+00:00</time></trkpt><trkpt lat="39.47430896" lon="-0.32563359"><ele>-4.2</ele><time>2022-11-14T17:04:31.0000000+00:00</time></trkpt><trkpt lat="39.4743165" lon="-0.32565856"><ele>-4.2</ele><time>2022-11-14T17:04:32.0000000+00:00</time></trkpt><trkpt lat="39.47432564" lon="-0.32567348"><ele>-4.2</ele><time>2022-11-14T17:04:33.0000000+00:00</time></trkpt><trkpt lat="39.47433528" lon="-0.32569662"><ele>-4.2</ele><time>2022-11-14T17:04:34.0000000+00:00</time></trkpt><trkpt lat="39.47434533" lon="-0.32572051"><ele>-4.2</ele><time>2022-11-14T17:04:35.0000000+00:00</time></trkpt><trkpt lat="39.47435665" lon="-0.32574238"><ele>-4.2</ele><time>2022-11-14T17:04:36.0000000+00:00</time></trkpt><trkpt lat="39.47436445" lon="-0.32577239"><ele>-4.0</ele><time>2022-11-14T17:04:37.0000000+00:00</time></trkpt><trkpt lat="39.47436545" lon="-0.32581363"><ele>-4.0</ele><time>2022-11-14T17:04:38.0000000+00:00</time></trkpt><trkpt lat="39.47436704" lon="-0.32586107"><ele>-4.0</ele><time>2022-11-14T17:04:39.0000000+00:00</time></trkpt><trkpt lat="39.47437056" lon="-0.32590742"><ele>-4.0</ele><time>2022-11-14T17:04:40.0000000+00:00</time></trkpt><trkpt lat="39.47436612" lon="-0.32595671"><ele>-3.8</ele><time>2022-11-14T17:04:41.0000000+00:00</time></trkpt><trkpt lat="39.47436336" lon="-0.32601303"><ele>-3.8</ele><time>2022-11-14T17:04:42.0000000+00:00</time></trkpt><trkpt lat="39.47436302" lon="-0.32607095"><ele>-3.8</ele><time>2022-11-14T17:04:43.0000000+00:00</time></trkpt><trkpt lat="39.47436403" lon="-0.32613357"><ele>-3.8</ele><time>2022-11-14T17:04:44.0000000+00:00</time></trkpt><trkpt lat="39.47437014" lon="-0.32619442"><ele>-3.8</ele><time>2022-11-14T17:04:45.0000000+00:00</time></trkpt><trkpt lat="39.47437584" lon="-0.3262536"><ele>-3.8</ele><time>2022-11-14T17:04:46.0000000+00:00</time></trkpt><trkpt lat="39.47437199" lon="-0.32631059"><ele>-3.8</ele><time>2022-11-14T17:04:47.0000000+00:00</time></trkpt><trkpt lat="39.47435757" lon="-0.32636583"><ele>-3.6</ele><time>2022-11-14T17:04:48.0000000+00:00</time></trkpt><trkpt lat="39.47434098" lon="-0.32642442"><ele>-3.6</ele><time>2022-11-14T17:04:49.0000000+00:00</time></trkpt><trkpt lat="39.4743227" lon="-0.32648074"><ele>-3.4</ele><time>2022-11-14T17:04:50.0000000+00:00</time></trkpt><trkpt lat="39.47431114" lon="-0.3265359"><ele>-3.4</ele><time>2022-11-14T17:04:51.0000000+00:00</time></trkpt><trkpt lat="39.47430519" lon="-0.32659977"><ele>-3.4</ele><time>2022-11-14T17:04:52.0000000+00:00</time></trkpt><trkpt lat="39.47430234" lon="-0.3266628"><ele>-3.4</ele><time>2022-11-14T17:04:53.0000000+00:00</time></trkpt><trkpt lat="39.47430309" lon="-0.32672307"><ele>-3.4</ele><time>2022-11-14T17:04:54.0000000+00:00</time></trkpt><trkpt lat="39.47430317" lon="-0.32678878"><ele>-3.4</ele><time>2022-11-14T17:04:55.0000000+00:00</time></trkpt><trkpt lat="39.47430485" lon="-0.3268519"><ele>-3.2</ele><time>2022-11-14T17:04:56.0000000+00:00</time></trkpt><trkpt lat="39.47430627" lon="-0.3269166"><ele>-3.2</ele><time>2022-11-14T17:04:57.0000000+00:00</time></trkpt><trkpt lat="39.47430418" lon="-0.32698123"><ele>-3.2</ele><time>2022-11-14T17:04:58.0000000+00:00</time></trkpt><trkpt lat="39.47430636" lon="-0.32703965"><ele>-3.2</ele><time>2022-11-14T17:04:59.0000000+00:00</time></trkpt><trkpt lat="39.47430971" lon="-0.32709816"><ele>-3.2</ele><time>2022-11-14T17:05:00.0000000+00:00</time></trkpt><trkpt lat="39.474316" lon="-0.32715809"><ele>-3.2</ele><time>2022-11-14T17:05:01.0000000+00:00</time></trkpt><trkpt lat="39.47432572" lon="-0.32719581"><ele>-3.4</ele><time>2022-11-14T17:05:02.0000000+00:00</time></trkpt><trkpt lat="39.47432974" lon="-0.32721877"><ele>-3.4</ele><time>2022-11-14T17:05:03.0000000+00:00</time></trkpt><trkpt lat="39.47433519" lon="-0.32722464"><ele>-3.4</ele><time>2022-11-14T17:05:04.0000000+00:00</time></trkpt><trkpt lat="39.47432798" lon="-0.3272316"><ele>-3.6</ele><time>2022-11-14T17:05:05.0000000+00:00</time></trkpt><trkpt lat="39.4743186" lon="-0.32725104"><ele>-3.6</ele><time>2022-11-14T17:05:06.0000000+00:00</time></trkpt><trkpt lat="39.47431415" lon="-0.3272694"><ele>-3.6</ele><time>2022-11-14T17:05:07.0000000+00:00</time></trkpt><trkpt lat="39.47431415" lon="-0.32729513"><ele>-3.6</ele><time>2022-11-14T17:05:08.0000000+00:00</time></trkpt><trkpt lat="39.47431591" lon="-0.32733344"><ele>-3.8</ele><time>2022-11-14T17:05:09.0000000+00:00</time></trkpt><trkpt lat="39.47431591" lon="-0.32738775"><ele>-3.8</ele><time>2022-11-14T17:05:10.0000000+00:00</time></trkpt><trkpt lat="39.47431541" lon="-0.32744902"><ele>-3.8</ele><time>2022-11-14T17:05:11.0000000+00:00</time></trkpt><trkpt lat="39.47431348" lon="-0.32751197"><ele>-3.6</ele><time>2022-11-14T17:05:12.0000000+00:00</time></trkpt><trkpt lat="39.47431617" lon="-0.32757735"><ele>-3.6</ele><time>2022-11-14T17:05:13.0000000+00:00</time></trkpt><trkpt lat="39.4743253" lon="-0.3276465"><ele>-3.4</ele><time>2022-11-14T17:05:14.0000000+00:00</time></trkpt><trkpt lat="39.47433771" lon="-0.32770995"><ele>-3.4</ele><time>2022-11-14T17:05:15.0000000+00:00</time></trkpt><trkpt lat="39.47435321" lon="-0.32776259"><ele>-3.4</ele><time>2022-11-14T17:05:16.0000000+00:00</time></trkpt><trkpt lat="39.47438439" lon="-0.32781372"><ele>-3.4</ele><time>2022-11-14T17:05:17.0000000+00:00</time></trkpt><trkpt lat="39.47442681" lon="-0.32786443"><ele>-3.4</ele><time>2022-11-14T17:05:18.0000000+00:00</time></trkpt><trkpt lat="39.47447073" lon="-0.32790743"><ele>-3.4</ele><time>2022-11-14T17:05:19.0000000+00:00</time></trkpt><trkpt lat="39.47451096" lon="-0.32795303"><ele>-3.4</ele><time>2022-11-14T17:05:20.0000000+00:00</time></trkpt><trkpt lat="39.47454759" lon="-0.32800483"><ele>-3.6</ele><time>2022-11-14T17:05:21.0000000+00:00</time></trkpt><trkpt lat="39.47457693" lon="-0.3280614"><ele>-3.6</ele><time>2022-11-14T17:05:22.0000000+00:00</time></trkpt><trkpt lat="39.47460098" lon="-0.32812301"><ele>-3.6</ele><time>2022-11-14T17:05:23.0000000+00:00</time></trkpt><trkpt lat="39.47462018" lon="-0.32818646"><ele>-3.4</ele><time>2022-11-14T17:05:24.0000000+00:00</time></trkpt><trkpt lat="39.47463954" lon="-0.32825578"><ele>-3.4</ele><time>2022-11-14T17:05:25.0000000+00:00</time></trkpt><trkpt lat="39.47466049" lon="-0.3283261"><ele>-3.4</ele><time>2022-11-14T17:05:26.0000000+00:00</time></trkpt><trkpt lat="39.47467852" lon="-0.32839299"><ele>-3.2</ele><time>2022-11-14T17:05:27.0000000+00:00</time></trkpt><trkpt lat="39.47470081" lon="-0.32845586"><ele>-3.2</ele><time>2022-11-14T17:05:28.0000000+00:00</time></trkpt><trkpt lat="39.47471825" lon="-0.32851168"><ele>-3.2</ele><time>2022-11-14T17:05:29.0000000+00:00</time></trkpt><trkpt lat="39.47473878" lon="-0.32857237"><ele>-3.0</ele><time>2022-11-14T17:05:30.0000000+00:00</time></trkpt><trkpt lat="39.47476158" lon="-0.32862576"><ele>-3.0</ele><time>2022-11-14T17:05:31.0000000+00:00</time></trkpt><trkpt lat="39.47478396" lon="-0.32868359"><ele>-3.0</ele><time>2022-11-14T17:05:32.0000000+00:00</time></trkpt><trkpt lat="39.47481204" lon="-0.32874084"><ele>-3.0</ele><time>2022-11-14T17:05:33.0000000+00:00</time></trkpt><trkpt lat="39.47484657" lon="-0.32879792"><ele>-3.0</ele><time>2022-11-14T17:05:34.0000000+00:00</time></trkpt><trkpt lat="39.47488613" lon="-0.32885559"><ele>-3.0</ele><time>2022-11-14T17:05:35.0000000+00:00</time></trkpt><trkpt lat="39.47492737" lon="-0.32891376"><ele>-3.0</ele><time>2022-11-14T17:05:36.0000000+00:00</time></trkpt><trkpt lat="39.47497565" lon="-0.32897931"><ele>-3.0</ele><time>2022-11-14T17:05:37.0000000+00:00</time></trkpt><trkpt lat="39.47502335" lon="-0.32904251"><ele>-3.0</ele><time>2022-11-14T17:05:38.0000000+00:00</time></trkpt><trkpt lat="39.47504883" lon="-0.3291109"><ele>-3.2</ele><time>2022-11-14T17:05:39.0000000+00:00</time></trkpt><trkpt lat="39.47507079" lon="-0.32917536"><ele>-3.2</ele><time>2022-11-14T17:05:40.0000000+00:00</time></trkpt><trkpt lat="39.47507314" lon="-0.3292119"><ele>-3.2</ele><time>2022-11-14T17:05:41.0000000+00:00</time></trkpt><trkpt lat="39.47508051" lon="-0.32927242"><ele>-3.2</ele><time>2022-11-14T17:05:42.0000000+00:00</time></trkpt><trkpt lat="39.47510021" lon="-0.32933956"><ele>-3.2</ele><time>2022-11-14T17:05:43.0000000+00:00</time></trkpt><trkpt lat="39.47511127" lon="-0.32940058"><ele>-3.2</ele><time>2022-11-14T17:05:44.0000000+00:00</time></trkpt><trkpt lat="39.47512418" lon="-0.32946521"><ele>-3.2</ele><time>2022-11-14T17:05:45.0000000+00:00</time></trkpt><trkpt lat="39.47513223" lon="-0.32953084"><ele>-3.2</ele><time>2022-11-14T17:05:46.0000000+00:00</time></trkpt><trkpt lat="39.47514664" lon="-0.32959454"><ele>-3.2</ele><time>2022-11-14T17:05:47.0000000+00:00</time></trkpt><trkpt lat="39.47516307" lon="-0.32966101"><ele>-3.2</ele><time>2022-11-14T17:05:48.0000000+00:00</time></trkpt><trkpt lat="39.47517078" lon="-0.32972379"><ele>-3.2</ele><time>2022-11-14T17:05:49.0000000+00:00</time></trkpt><trkpt lat="39.47517565" lon="-0.32978213"><ele>-3.2</ele><time>2022-11-14T17:05:50.0000000+00:00</time></trkpt><trkpt lat="39.4751795" lon="-0.32984139"><ele>-3.2</ele><time>2022-11-14T17:05:51.0000000+00:00</time></trkpt><trkpt lat="39.47519166" lon="-0.32990484"><ele>-3.2</ele><time>2022-11-14T17:05:52.0000000+00:00</time></trkpt><trkpt lat="39.47519995" lon="-0.32996401"><ele>-3.2</ele><time>2022-11-14T17:05:53.0000000+00:00</time></trkpt><trkpt lat="39.4752101" lon="-0.33002319"><ele>-3.2</ele><time>2022-11-14T17:05:54.0000000+00:00</time></trkpt><trkpt lat="39.47522451" lon="-0.33008002"><ele>-3.0</ele><time>2022-11-14T17:05:55.0000000+00:00</time></trkpt><trkpt lat="39.47523683" lon="-0.3301319"><ele>-3.0</ele><time>2022-11-14T17:05:56.0000000+00:00</time></trkpt><trkpt lat="39.47525142" lon="-0.33018563"><ele>-3.0</ele><time>2022-11-14T17:05:57.0000000+00:00</time></trkpt><trkpt lat="39.47527598" lon="-0.33024531"><ele>-3.0</ele><time>2022-11-14T17:05:58.0000000+00:00</time></trkpt><trkpt lat="39.47530246" lon="-0.33031337"><ele>-3.2</ele><time>2022-11-14T17:05:59.0000000+00:00</time></trkpt><trkpt lat="39.4753261" lon="-0.33038805"><ele>-3.2</ele><time>2022-11-14T17:06:00.0000000+00:00</time></trkpt><trkpt lat="39.47534865" lon="-0.33045268"><ele>-3.2</ele><time>2022-11-14T17:06:01.0000000+00:00</time></trkpt><trkpt lat="39.4753717" lon="-0.33051219"><ele>-3.2</ele><time>2022-11-14T17:06:02.0000000+00:00</time></trkpt><trkpt lat="39.47538964" lon="-0.33055284"><ele>-3.4</ele><time>2022-11-14T17:06:03.0000000+00:00</time></trkpt><trkpt lat="39.47541319" lon="-0.33062141"><ele>-3.2</ele><time>2022-11-14T17:06:04.0000000+00:00</time></trkpt><trkpt lat="39.47542744" lon="-0.33068938"><ele>-3.2</ele><time>2022-11-14T17:06:05.0000000+00:00</time></trkpt><trkpt lat="39.47544185" lon="-0.33076306"><ele>-3.2</ele><time>2022-11-14T17:06:06.0000000+00:00</time></trkpt><trkpt lat="39.47545803" lon="-0.33083296"><ele>-3.2</ele><time>2022-11-14T17:06:07.0000000+00:00</time></trkpt><trkpt lat="39.47547563" lon="-0.33090647"><ele>-3.2</ele><time>2022-11-14T17:06:08.0000000+00:00</time></trkpt><trkpt lat="39.47549223" lon="-0.33097403"><ele>-3.2</ele><time>2022-11-14T17:06:09.0000000+00:00</time></trkpt><trkpt lat="39.4755126" lon="-0.33104461"><ele>-3.2</ele><time>2022-11-14T17:06:10.0000000+00:00</time></trkpt><trkpt lat="39.47553707" lon="-0.33111879"><ele>-3.2</ele><time>2022-11-14T17:06:11.0000000+00:00</time></trkpt><trkpt lat="39.4755587" lon="-0.3311809"><ele>-3.2</ele><time>2022-11-14T17:06:12.0000000+00:00</time></trkpt><trkpt lat="39.47557949" lon="-0.33125449"><ele>-3.2</ele><time>2022-11-14T17:06:13.0000000+00:00</time></trkpt><trkpt lat="39.47561218" lon="-0.33133454"><ele>-3.2</ele><time>2022-11-14T17:06:14.0000000+00:00</time></trkpt><trkpt lat="39.47563548" lon="-0.33140176"><ele>-3.2</ele><time>2022-11-14T17:06:15.0000000+00:00</time></trkpt><trkpt lat="39.47565802" lon="-0.33147175"><ele>-3.2</ele><time>2022-11-14T17:06:16.0000000+00:00</time></trkpt><trkpt lat="39.47567965" lon="-0.33154224"><ele>-3.2</ele><time>2022-11-14T17:06:17.0000000+00:00</time></trkpt><trkpt lat="39.47570253" lon="-0.33161583"><ele>-3.0</ele><time>2022-11-14T17:06:18.0000000+00:00</time></trkpt><trkpt lat="39.47572357" lon="-0.33168649"><ele>-3.0</ele><time>2022-11-14T17:06:19.0000000+00:00</time></trkpt><trkpt lat="39.47574427" lon="-0.33175715"><ele>-3.0</ele><time>2022-11-14T17:06:20.0000000+00:00</time></trkpt><trkpt lat="39.47576338" lon="-0.33182798"><ele>-2.8</ele><time>2022-11-14T17:06:21.0000000+00:00</time></trkpt><trkpt lat="39.47578141" lon="-0.33189713"><ele>-2.8</ele><time>2022-11-14T17:06:22.0000000+00:00</time></trkpt><trkpt lat="39.47580119" lon="-0.33196754"><ele>-2.8</ele><time>2022-11-14T17:06:23.0000000+00:00</time></trkpt><trkpt lat="39.47581871" lon="-0.33204172"><ele>-2.8</ele><time>2022-11-14T17:06:24.0000000+00:00</time></trkpt><trkpt lat="39.47583673" lon="-0.33211255"><ele>-2.8</ele><time>2022-11-14T17:06:25.0000000+00:00</time></trkpt><trkpt lat="39.47585542" lon="-0.3321822"><ele>-2.8</ele><time>2022-11-14T17:06:26.0000000+00:00</time></trkpt><trkpt lat="39.47587034" lon="-0.33224506"><ele>-2.8</ele><time>2022-11-14T17:06:27.0000000+00:00</time></trkpt><trkpt lat="39.47588828" lon="-0.3323096"><ele>-2.8</ele><time>2022-11-14T17:06:28.0000000+00:00</time></trkpt><trkpt lat="39.47590672" lon="-0.33237616"><ele>-2.8</ele><time>2022-11-14T17:06:29.0000000+00:00</time></trkpt><trkpt lat="39.47592717" lon="-0.33244648"><ele>-2.8</ele><time>2022-11-14T17:06:30.0000000+00:00</time></trkpt><trkpt lat="39.47594779" lon="-0.33251957"><ele>-2.8</ele><time>2022-11-14T17:06:31.0000000+00:00</time></trkpt><trkpt lat="39.47597084" lon="-0.3325873"><ele>-2.8</ele><time>2022-11-14T17:06:32.0000000+00:00</time></trkpt><trkpt lat="39.47599565" lon="-0.33265578"><ele>-2.8</ele><time>2022-11-14T17:06:33.0000000+00:00</time></trkpt><trkpt lat="39.47601744" lon="-0.33272744"><ele>-2.8</ele><time>2022-11-14T17:06:34.0000000+00:00</time></trkpt><trkpt lat="39.47603705" lon="-0.33279919"><ele>-2.8</ele><time>2022-11-14T17:06:35.0000000+00:00</time></trkpt><trkpt lat="39.47605072" lon="-0.33286767"><ele>-2.8</ele><time>2022-11-14T17:06:36.0000000+00:00</time></trkpt><trkpt lat="39.47606103" lon="-0.33291956"><ele>-2.6</ele><time>2022-11-14T17:06:37.0000000+00:00</time></trkpt><trkpt lat="39.47607033" lon="-0.33296004"><ele>-2.6</ele><time>2022-11-14T17:06:38.0000000+00:00</time></trkpt><trkpt lat="39.47607645" lon="-0.33298913"><ele>-2.6</ele><time>2022-11-14T17:06:39.0000000+00:00</time></trkpt><trkpt lat="39.4760736" lon="-0.33300237"><ele>-2.6</ele><time>2022-11-14T17:06:40.0000000+00:00</time></trkpt><trkpt lat="39.47607209" lon="-0.33300765"><ele>-2.6</ele><time>2022-11-14T17:06:41.0000000+00:00</time></trkpt><trkpt lat="39.47607695" lon="-0.33301343"><ele>-2.8</ele><time>2022-11-14T17:06:42.0000000+00:00</time></trkpt><trkpt lat="39.47608366" lon="-0.3330188"><ele>-2.8</ele><time>2022-11-14T17:06:43.0000000+00:00</time></trkpt><trkpt lat="39.47608542" lon="-0.33302156"><ele>-2.8</ele><time>2022-11-14T17:06:44.0000000+00:00</time></trkpt><trkpt lat="39.47608542" lon="-0.33302156"><ele>-2.8</ele><time>2022-11-14T17:06:45.0000000+00:00</time></trkpt><trkpt lat="39.47608542" lon="-0.33302156"><ele>-2.8</ele><time>2022-11-14T17:06:46.0000000+00:00</time></trkpt><trkpt lat="39.47608542" lon="-0.33302156"><ele>-2.8</ele><time>2022-11-14T17:06:47.0000000+00:00</time></trkpt><trkpt lat="39.47608542" lon="-0.33302156"><ele>-2.8</ele><time>2022-11-14T17:06:48.0000000+00:00</time></trkpt><trkpt lat="39.47608542" lon="-0.33302156"><ele>-2.8</ele><time>2022-11-14T17:06:49.0000000+00:00</time></trkpt><trkpt lat="39.47608542" lon="-0.33302156"><ele>-2.8</ele><time>2022-11-14T17:06:50.0000000+00:00</time></trkpt><trkpt lat="39.47608542" lon="-0.33302156"><ele>-2.8</ele><time>2022-11-14T17:06:51.0000000+00:00</time></trkpt><trkpt lat="39.47608542" lon="-0.33302156"><ele>-2.8</ele><time>2022-11-14T17:06:52.0000000+00:00</time></trkpt><trkpt lat="39.47608542" lon="-0.33302156"><ele>-2.8</ele><time>2022-11-14T17:06:53.0000000+00:00</time></trkpt><trkpt lat="39.47608542" lon="-0.33302156"><ele>-2.8</ele><time>2022-11-14T17:06:54.0000000+00:00</time></trkpt><trkpt lat="39.47608542" lon="-0.33302156"><ele>-2.8</ele><time>2022-11-14T17:06:55.0000000+00:00</time></trkpt><trkpt lat="39.47608542" lon="-0.33302156"><ele>-2.8</ele><time>2022-11-14T17:06:56.0000000+00:00</time></trkpt><trkpt lat="39.47608542" lon="-0.33302156"><ele>-2.8</ele><time>2022-11-14T17:06:57.0000000+00:00</time></trkpt><trkpt lat="39.47608542" lon="-0.33302156"><ele>-2.8</ele><time>2022-11-14T17:06:58.0000000+00:00</time></trkpt><trkpt lat="39.47608542" lon="-0.33302156"><ele>-2.8</ele><time>2022-11-14T17:06:59.0000000+00:00</time></trkpt><trkpt lat="39.47608609" lon="-0.33302567"><ele>-2.8</ele><time>2022-11-14T17:07:00.0000000+00:00</time></trkpt><trkpt lat="39.47608793" lon="-0.33303321"><ele>-2.8</ele><time>2022-11-14T17:07:01.0000000+00:00</time></trkpt><trkpt lat="39.47608852" lon="-0.3330369"><ele>-2.8</ele><time>2022-11-14T17:07:02.0000000+00:00</time></trkpt><trkpt lat="39.47608852" lon="-0.3330369"><ele>-2.8</ele><time>2022-11-14T17:07:03.0000000+00:00</time></trkpt><trkpt lat="39.47608852" lon="-0.3330369"><ele>-2.8</ele><time>2022-11-14T17:07:04.0000000+00:00</time></trkpt><trkpt lat="39.47608852" lon="-0.3330369"><ele>-2.8</ele><time>2022-11-14T17:07:05.0000000+00:00</time></trkpt><trkpt lat="39.47608852" lon="-0.3330369"><ele>-2.8</ele><time>2022-11-14T17:07:06.0000000+00:00</time></trkpt><trkpt lat="39.47608852" lon="-0.3330369"><ele>-2.8</ele><time>2022-11-14T17:07:07.0000000+00:00</time></trkpt><trkpt lat="39.47608852" lon="-0.3330369"><ele>-2.8</ele><time>2022-11-14T17:07:08.0000000+00:00</time></trkpt><trkpt lat="39.47608852" lon="-0.3330369"><ele>-2.8</ele><time>2022-11-14T17:07:09.0000000+00:00</time></trkpt><trkpt lat="39.47608852" lon="-0.3330369"><ele>-2.8</ele><time>2022-11-14T17:07:10.0000000+00:00</time></trkpt><trkpt lat="39.47608852" lon="-0.3330369"><ele>-2.6</ele><time>2022-11-14T17:07:11.0000000+00:00</time></trkpt><trkpt lat="39.47608852" lon="-0.3330369"><ele>-2.6</ele><time>2022-11-14T17:07:12.0000000+00:00</time></trkpt><trkpt lat="39.47608852" lon="-0.3330369"><ele>-2.6</ele><time>2022-11-14T17:07:13.0000000+00:00</time></trkpt><trkpt lat="39.47608852" lon="-0.3330369"><ele>-2.8</ele><time>2022-11-14T17:07:14.0000000+00:00</time></trkpt><trkpt lat="39.47608852" lon="-0.3330369"><ele>-2.8</ele><time>2022-11-14T17:07:15.0000000+00:00</time></trkpt><trkpt lat="39.47608852" lon="-0.3330369"><ele>-2.8</ele><time>2022-11-14T17:07:16.0000000+00:00</time></trkpt><trkpt lat="39.47608852" lon="-0.3330369"><ele>-2.8</ele><time>2022-11-14T17:07:17.0000000+00:00</time></trkpt><trkpt lat="39.47608852" lon="-0.3330369"><ele>-2.8</ele><time>2022-11-14T17:07:18.0000000+00:00</time></trkpt><trkpt lat="39.47609045" lon="-0.33303665"><ele>-2.6</ele><time>2022-11-14T17:07:19.0000000+00:00</time></trkpt><trkpt lat="39.47609271" lon="-0.33303682"><ele>-2.6</ele><time>2022-11-14T17:07:20.0000000+00:00</time></trkpt><trkpt lat="39.47609682" lon="-0.3330364"><ele>-2.6</ele><time>2022-11-14T17:07:21.0000000+00:00</time></trkpt><trkpt lat="39.47610838" lon="-0.33302802"><ele>-2.6</ele><time>2022-11-14T17:07:22.0000000+00:00</time></trkpt><trkpt lat="39.47612339" lon="-0.33301662"><ele>-2.6</ele><time>2022-11-14T17:07:23.0000000+00:00</time></trkpt><trkpt lat="39.47614275" lon="-0.33300329"><ele>-2.6</ele><time>2022-11-14T17:07:24.0000000+00:00</time></trkpt><trkpt lat="39.47616563" lon="-0.33299214"><ele>-2.8</ele><time>2022-11-14T17:07:25.0000000+00:00</time></trkpt><trkpt lat="39.47619723" lon="-0.33297982"><ele>-2.8</ele><time>2022-11-14T17:07:26.0000000+00:00</time></trkpt><trkpt lat="39.47622925" lon="-0.33295032"><ele>-2.8</ele><time>2022-11-14T17:07:27.0000000+00:00</time></trkpt><trkpt lat="39.47625515" lon="-0.33292601"><ele>-2.8</ele><time>2022-11-14T17:07:28.0000000+00:00</time></trkpt><trkpt lat="39.47628809" lon="-0.33290606"><ele>-2.8</ele><time>2022-11-14T17:07:29.0000000+00:00</time></trkpt><trkpt lat="39.47632506" lon="-0.33288586"><ele>-2.8</ele><time>2022-11-14T17:07:30.0000000+00:00</time></trkpt><trkpt lat="39.47636596" lon="-0.33286784"><ele>-2.8</ele><time>2022-11-14T17:07:31.0000000+00:00</time></trkpt><trkpt lat="39.47641013" lon="-0.33285242"><ele>-2.8</ele><time>2022-11-14T17:07:32.0000000+00:00</time></trkpt><trkpt lat="39.47644936" lon="-0.3328494"><ele>-2.8</ele><time>2022-11-14T17:07:33.0000000+00:00</time></trkpt><trkpt lat="39.47646981" lon="-0.33285418"><ele>-2.8</ele><time>2022-11-14T17:07:34.0000000+00:00</time></trkpt><trkpt lat="39.47649311" lon="-0.33285904"><ele>-2.8</ele><time>2022-11-14T17:07:35.0000000+00:00</time></trkpt><trkpt lat="39.4765253" lon="-0.33287572"><ele>-2.6</ele><time>2022-11-14T17:07:36.0000000+00:00</time></trkpt><trkpt lat="39.47657031" lon="-0.33290589"><ele>-2.6</ele><time>2022-11-14T17:07:37.0000000+00:00</time></trkpt><trkpt lat="39.47661951" lon="-0.33294914"><ele>-2.6</ele><time>2022-11-14T17:07:38.0000000+00:00</time></trkpt><trkpt lat="39.47666402" lon="-0.33299273"><ele>-2.6</ele><time>2022-11-14T17:07:39.0000000+00:00</time></trkpt><trkpt lat="39.47670266" lon="-0.33303808"><ele>-2.6</ele><time>2022-11-14T17:07:40.0000000+00:00</time></trkpt><trkpt lat="39.47673761" lon="-0.33308066"><ele>-2.6</ele><time>2022-11-14T17:07:41.0000000+00:00</time></trkpt><trkpt lat="39.47675614" lon="-0.33311083"><ele>-2.4</ele><time>2022-11-14T17:07:42.0000000+00:00</time></trkpt><trkpt lat="39.47676972" lon="-0.33312944"><ele>-2.4</ele><time>2022-11-14T17:07:43.0000000+00:00</time></trkpt><trkpt lat="39.47677592" lon="-0.33313438"><ele>-2.4</ele><time>2022-11-14T17:07:44.0000000+00:00</time></trkpt><trkpt lat="39.47677902" lon="-0.333125"><ele>-2.2</ele><time>2022-11-14T17:07:45.0000000+00:00</time></trkpt><trkpt lat="39.47678363" lon="-0.33312365"><ele>-2.2</ele><time>2022-11-14T17:07:46.0000000+00:00</time></trkpt><trkpt lat="39.47678363" lon="-0.33312365"><ele>-2.2</ele><time>2022-11-14T17:07:47.0000000+00:00</time></trkpt><trkpt lat="39.47678665" lon="-0.33312265"><ele>-2.2</ele><time>2022-11-14T17:07:48.0000000+00:00</time></trkpt><trkpt lat="39.4767895" lon="-0.3331229"><ele>-2.4</ele><time>2022-11-14T17:07:49.0000000+00:00</time></trkpt><trkpt lat="39.4767895" lon="-0.3331229"><ele>-2.4</ele><time>2022-11-14T17:07:50.0000000+00:00</time></trkpt><trkpt lat="39.4767895" lon="-0.3331229"><ele>-2.4</ele><time>2022-11-14T17:07:51.0000000+00:00</time></trkpt><trkpt lat="39.4767895" lon="-0.3331229"><ele>-2.4</ele><time>2022-11-14T17:07:52.0000000+00:00</time></trkpt><trkpt lat="39.4767895" lon="-0.3331229"><ele>-2.4</ele><time>2022-11-14T17:07:53.0000000+00:00</time></trkpt><trkpt lat="39.4767895" lon="-0.3331229"><ele>-2.4</ele><time>2022-11-14T17:07:54.0000000+00:00</time></trkpt><trkpt lat="39.4767895" lon="-0.3331229"><ele>-2.4</ele><time>2022-11-14T17:07:55.0000000+00:00</time></trkpt><trkpt lat="39.4767895" lon="-0.3331229"><ele>-2.4</ele><time>2022-11-14T17:07:56.0000000+00:00</time></trkpt><trkpt lat="39.4767895" lon="-0.3331229"><ele>-2.4</ele><time>2022-11-14T17:07:57.0000000+00:00</time></trkpt><trkpt lat="39.4767895" lon="-0.3331229"><ele>-2.4</ele><time>2022-11-14T17:07:58.0000000+00:00</time></trkpt><trkpt lat="39.4767895" lon="-0.3331229"><ele>-2.4</ele><time>2022-11-14T17:07:59.0000000+00:00</time></trkpt><trkpt lat="39.4767895" lon="-0.3331229"><ele>-2.6</ele><time>2022-11-14T17:08:00.0000000+00:00</time></trkpt><trkpt lat="39.4767895" lon="-0.3331229"><ele>-2.6</ele><time>2022-11-14T17:08:01.0000000+00:00</time></trkpt><trkpt lat="39.4767895" lon="-0.3331229"><ele>-2.6</ele><time>2022-11-14T17:08:02.0000000+00:00</time></trkpt><trkpt lat="39.4767895" lon="-0.3331229"><ele>-2.6</ele><time>2022-11-14T17:08:03.0000000+00:00</time></trkpt><trkpt lat="39.4767895" lon="-0.3331229"><ele>-2.6</ele><time>2022-11-14T17:08:04.0000000+00:00</time></trkpt><trkpt lat="39.4767895" lon="-0.3331229"><ele>-2.8</ele><time>2022-11-14T17:08:05.0000000+00:00</time></trkpt><trkpt lat="39.4767895" lon="-0.3331229"><ele>-2.8</ele><time>2022-11-14T17:08:06.0000000+00:00</time></trkpt><trkpt lat="39.4767895" lon="-0.3331229"><ele>-2.8</ele><time>2022-11-14T17:08:07.0000000+00:00</time></trkpt><trkpt lat="39.4767895" lon="-0.3331229"><ele>-2.8</ele><time>2022-11-14T17:08:08.0000000+00:00</time></trkpt><trkpt lat="39.4767895" lon="-0.3331229"><ele>-2.8</ele><time>2022-11-14T17:08:09.0000000+00:00</time></trkpt><trkpt lat="39.4767895" lon="-0.3331229"><ele>-2.8</ele><time>2022-11-14T17:08:10.0000000+00:00</time></trkpt><trkpt lat="39.4767895" lon="-0.3331229"><ele>-2.8</ele><time>2022-11-14T17:08:11.0000000+00:00</time></trkpt><trkpt lat="39.4767895" lon="-0.3331229"><ele>-2.8</ele><time>2022-11-14T17:08:12.0000000+00:00</time></trkpt><trkpt lat="39.4767895" lon="-0.3331229"><ele>-2.8</ele><time>2022-11-14T17:08:13.0000000+00:00</time></trkpt><trkpt lat="39.4767895" lon="-0.3331229"><ele>-2.8</ele><time>2022-11-14T17:08:14.0000000+00:00</time></trkpt><trkpt lat="39.4767895" lon="-0.3331229"><ele>-2.8</ele><time>2022-11-14T17:08:15.0000000+00:00</time></trkpt><trkpt lat="39.4767895" lon="-0.3331229"><ele>-2.6</ele><time>2022-11-14T17:08:16.0000000+00:00</time></trkpt><trkpt lat="39.4767895" lon="-0.3331229"><ele>-2.6</ele><time>2022-11-14T17:08:17.0000000+00:00</time></trkpt><trkpt lat="39.4767895" lon="-0.3331229"><ele>-2.6</ele><time>2022-11-14T17:08:18.0000000+00:00</time></trkpt><trkpt lat="39.4767895" lon="-0.3331229"><ele>-2.6</ele><time>2022-11-14T17:08:19.0000000+00:00</time></trkpt><trkpt lat="39.4767895" lon="-0.3331229"><ele>-2.6</ele><time>2022-11-14T17:08:20.0000000+00:00</time></trkpt><trkpt lat="39.4767895" lon="-0.3331229"><ele>-2.6</ele><time>2022-11-14T17:08:21.0000000+00:00</time></trkpt><trkpt lat="39.4767895" lon="-0.3331229"><ele>-2.6</ele><time>2022-11-14T17:08:22.0000000+00:00</time></trkpt><trkpt lat="39.4767895" lon="-0.3331229"><ele>-2.6</ele><time>2022-11-14T17:08:23.0000000+00:00</time></trkpt><trkpt lat="39.4767895" lon="-0.3331229"><ele>-2.6</ele><time>2022-11-14T17:08:24.0000000+00:00</time></trkpt><trkpt lat="39.4767895" lon="-0.3331229"><ele>-2.6</ele><time>2022-11-14T17:08:25.0000000+00:00</time></trkpt><trkpt lat="39.4767895" lon="-0.3331229"><ele>-2.6</ele><time>2022-11-14T17:08:26.0000000+00:00</time></trkpt><trkpt lat="39.4767895" lon="-0.3331229"><ele>-2.6</ele><time>2022-11-14T17:08:27.0000000+00:00</time></trkpt><trkpt lat="39.4767895" lon="-0.3331229"><ele>-2.6</ele><time>2022-11-14T17:08:28.0000000+00:00</time></trkpt><trkpt lat="39.47679444" lon="-0.33312231"><ele>-2.8</ele><time>2022-11-14T17:08:29.0000000+00:00</time></trkpt><trkpt lat="39.47679847" lon="-0.33313539"><ele>-2.8</ele><time>2022-11-14T17:08:30.0000000+00:00</time></trkpt><trkpt lat="39.47679805" lon="-0.33315425"><ele>-2.8</ele><time>2022-11-14T17:08:31.0000000+00:00</time></trkpt><trkpt lat="39.47680023" lon="-0.33318543"><ele>-2.8</ele><time>2022-11-14T17:08:32.0000000+00:00</time></trkpt><trkpt lat="39.47680014" lon="-0.33322793"><ele>-2.6</ele><time>2022-11-14T17:08:33.0000000+00:00</time></trkpt><trkpt lat="39.47680442" lon="-0.33327729"><ele>-2.6</ele><time>2022-11-14T17:08:34.0000000+00:00</time></trkpt><trkpt lat="39.47681246" lon="-0.33332876"><ele>-2.6</ele><time>2022-11-14T17:08:35.0000000+00:00</time></trkpt><trkpt lat="39.47682194" lon="-0.33338802"><ele>-2.4</ele><time>2022-11-14T17:08:36.0000000+00:00</time></trkpt><trkpt lat="39.47682931" lon="-0.33343219"><ele>-2.4</ele><time>2022-11-14T17:08:37.0000000+00:00</time></trkpt><trkpt lat="39.47682755" lon="-0.33348776"><ele>-2.2</ele><time>2022-11-14T17:08:38.0000000+00:00</time></trkpt><trkpt lat="39.47681355" lon="-0.33352314"><ele>-2.2</ele><time>2022-11-14T17:08:39.0000000+00:00</time></trkpt><trkpt lat="39.47678866" lon="-0.3335663"><ele>-2.2</ele><time>2022-11-14T17:08:40.0000000+00:00</time></trkpt><trkpt lat="39.47676871" lon="-0.33361877"><ele>-2.2</ele><time>2022-11-14T17:08:41.0000000+00:00</time></trkpt><trkpt lat="39.47675438" lon="-0.33367401"><ele>-2.2</ele><time>2022-11-14T17:08:42.0000000+00:00</time></trkpt><trkpt lat="39.47675387" lon="-0.3337321"><ele>-2.2</ele><time>2022-11-14T17:08:43.0000000+00:00</time></trkpt><trkpt lat="39.47676863" lon="-0.33378566"><ele>-2.2</ele><time>2022-11-14T17:08:44.0000000+00:00</time></trkpt><trkpt lat="39.47678346" lon="-0.33383754"><ele>-2.2</ele><time>2022-11-14T17:08:45.0000000+00:00</time></trkpt><trkpt lat="39.47680023" lon="-0.33389236"><ele>-2.4</ele><time>2022-11-14T17:08:46.0000000+00:00</time></trkpt><trkpt lat="39.47682009" lon="-0.33395162"><ele>-2.4</ele><time>2022-11-14T17:08:47.0000000+00:00</time></trkpt><trkpt lat="39.47683903" lon="-0.33401121"><ele>-2.4</ele><time>2022-11-14T17:08:48.0000000+00:00</time></trkpt><trkpt lat="39.47685471" lon="-0.33407031"><ele>-2.2</ele><time>2022-11-14T17:08:49.0000000+00:00</time></trkpt><trkpt lat="39.47687248" lon="-0.33413225"><ele>-2.2</ele><time>2022-11-14T17:08:50.0000000+00:00</time></trkpt><trkpt lat="39.47689503" lon="-0.33419008"><ele>-2.2</ele><time>2022-11-14T17:08:51.0000000+00:00</time></trkpt><trkpt lat="39.47691975" lon="-0.33424716"><ele>-2.2</ele><time>2022-11-14T17:08:52.0000000+00:00</time></trkpt><trkpt lat="39.47694196" lon="-0.33430986"><ele>-2.2</ele><time>2022-11-14T17:08:53.0000000+00:00</time></trkpt><trkpt lat="39.47695797" lon="-0.33436267"><ele>-2.2</ele><time>2022-11-14T17:08:54.0000000+00:00</time></trkpt><trkpt lat="39.47697784" lon="-0.33443886"><ele>-2.2</ele><time>2022-11-14T17:08:55.0000000+00:00</time></trkpt><trkpt lat="39.47700273" lon="-0.33450692"><ele>-2.2</ele><time>2022-11-14T17:08:56.0000000+00:00</time></trkpt><trkpt lat="39.47702503" lon="-0.3345754"><ele>-2.0</ele><time>2022-11-14T17:08:57.0000000+00:00</time></trkpt><trkpt lat="39.47705118" lon="-0.33464262"><ele>-2.0</ele><time>2022-11-14T17:08:58.0000000+00:00</time></trkpt><trkpt lat="39.4770723" lon="-0.33470926"><ele>-2.0</ele><time>2022-11-14T17:08:59.0000000+00:00</time></trkpt><trkpt lat="39.47709225" lon="-0.33477841"><ele>-2.0</ele><time>2022-11-14T17:09:00.0000000+00:00</time></trkpt><trkpt lat="39.47711187" lon="-0.33484832"><ele>-2.0</ele><time>2022-11-14T17:09:01.0000000+00:00</time></trkpt><trkpt lat="39.47713031" lon="-0.33491445"><ele>-2.0</ele><time>2022-11-14T17:09:02.0000000+00:00</time></trkpt><trkpt lat="39.47715512" lon="-0.334981"><ele>-2.0</ele><time>2022-11-14T17:09:03.0000000+00:00</time></trkpt><trkpt lat="39.47717783" lon="-0.3350473"><ele>-2.0</ele><time>2022-11-14T17:09:04.0000000+00:00</time></trkpt><trkpt lat="39.47720205" lon="-0.33511268"><ele>-2.0</ele><time>2022-11-14T17:09:05.0000000+00:00</time></trkpt><trkpt lat="39.47722217" lon="-0.33518326"><ele>-2.0</ele><time>2022-11-14T17:09:06.0000000+00:00</time></trkpt><trkpt lat="39.47724531" lon="-0.33525475"><ele>-2.0</ele><time>2022-11-14T17:09:07.0000000+00:00</time></trkpt><trkpt lat="39.4772671" lon="-0.33532868"><ele>-2.0</ele><time>2022-11-14T17:09:08.0000000+00:00</time></trkpt><trkpt lat="39.47728881" lon="-0.33540202"><ele>-1.8</ele><time>2022-11-14T17:09:09.0000000+00:00</time></trkpt><trkpt lat="39.47730959" lon="-0.33547293"><ele>-1.6</ele><time>2022-11-14T17:09:10.0000000+00:00</time></trkpt><trkpt lat="39.47732887" lon="-0.33554435"><ele>-1.6</ele><time>2022-11-14T17:09:11.0000000+00:00</time></trkpt><trkpt lat="39.47734044" lon="-0.33561182"><ele>-1.6</ele><time>2022-11-14T17:09:12.0000000+00:00</time></trkpt><trkpt lat="39.47736098" lon="-0.33568382"><ele>-1.4</ele><time>2022-11-14T17:09:13.0000000+00:00</time></trkpt><trkpt lat="39.47737983" lon="-0.335757"><ele>-1.4</ele><time>2022-11-14T17:09:14.0000000+00:00</time></trkpt><trkpt lat="39.47739886" lon="-0.33583235"><ele>-1.4</ele><time>2022-11-14T17:09:15.0000000+00:00</time></trkpt><trkpt lat="39.47741839" lon="-0.33590594"><ele>-1.4</ele><time>2022-11-14T17:09:16.0000000+00:00</time></trkpt><trkpt lat="39.47744002" lon="-0.33597736"><ele>-1.4</ele><time>2022-11-14T17:09:17.0000000+00:00</time></trkpt><trkpt lat="39.47746416" lon="-0.33604919"><ele>-1.4</ele><time>2022-11-14T17:09:18.0000000+00:00</time></trkpt><trkpt lat="39.4774867" lon="-0.33612111"><ele>-1.6</ele><time>2022-11-14T17:09:19.0000000+00:00</time></trkpt><trkpt lat="39.47750967" lon="-0.3361916"><ele>-1.6</ele><time>2022-11-14T17:09:20.0000000+00:00</time></trkpt><trkpt lat="39.47753054" lon="-0.33626301"><ele>-1.6</ele><time>2022-11-14T17:09:21.0000000+00:00</time></trkpt><trkpt lat="39.47754957" lon="-0.33633669"><ele>-1.6</ele><time>2022-11-14T17:09:22.0000000+00:00</time></trkpt><trkpt lat="39.47756734" lon="-0.3364133"><ele>-1.6</ele><time>2022-11-14T17:09:23.0000000+00:00</time></trkpt><trkpt lat="39.47758234" lon="-0.33648823"><ele>-1.6</ele><time>2022-11-14T17:09:24.0000000+00:00</time></trkpt><trkpt lat="39.47759818" lon="-0.33655973"><ele>-1.4</ele><time>2022-11-14T17:09:25.0000000+00:00</time></trkpt><trkpt lat="39.4776183" lon="-0.33663282"><ele>-1.4</ele><time>2022-11-14T17:09:26.0000000+00:00</time></trkpt><trkpt lat="39.47764521" lon="-0.33670574"><ele>-1.4</ele><time>2022-11-14T17:09:27.0000000+00:00</time></trkpt><trkpt lat="39.47767178" lon="-0.33678093"><ele>-1.2</ele><time>2022-11-14T17:09:28.0000000+00:00</time></trkpt><trkpt lat="39.47769365" lon="-0.33685905"><ele>-1.2</ele><time>2022-11-14T17:09:29.0000000+00:00</time></trkpt><trkpt lat="39.47771763" lon="-0.33693809"><ele>-1.0</ele><time>2022-11-14T17:09:30.0000000+00:00</time></trkpt><trkpt lat="39.47774168" lon="-0.33701613"><ele>-1.0</ele><time>2022-11-14T17:09:31.0000000+00:00</time></trkpt><trkpt lat="39.4777649" lon="-0.33709098"><ele>-1.0</ele><time>2022-11-14T17:09:32.0000000+00:00</time></trkpt><trkpt lat="39.47778971" lon="-0.33716759"><ele>-1.0</ele><time>2022-11-14T17:09:33.0000000+00:00</time></trkpt><trkpt lat="39.4778146" lon="-0.33724361"><ele>-1.0</ele><time>2022-11-14T17:09:34.0000000+00:00</time></trkpt><trkpt lat="39.47783983" lon="-0.33731888"><ele>-1.0</ele><time>2022-11-14T17:09:35.0000000+00:00</time></trkpt><trkpt lat="39.47786682" lon="-0.33739205"><ele>-1.0</ele><time>2022-11-14T17:09:36.0000000+00:00</time></trkpt><trkpt lat="39.47789541" lon="-0.33746498"><ele>-1.0</ele><time>2022-11-14T17:09:37.0000000+00:00</time></trkpt><trkpt lat="39.47792097" lon="-0.33754092"><ele>-1.0</ele><time>2022-11-14T17:09:38.0000000+00:00</time></trkpt><trkpt lat="39.47794343" lon="-0.3376156"><ele>-0.8</ele><time>2022-11-14T17:09:39.0000000+00:00</time></trkpt><trkpt lat="39.47796774" lon="-0.33768718"><ele>-0.8</ele><time>2022-11-14T17:09:40.0000000+00:00</time></trkpt><trkpt lat="39.47798777" lon="-0.3377627"><ele>-0.8</ele><time>2022-11-14T17:09:41.0000000+00:00</time></trkpt><trkpt lat="39.4780099" lon="-0.33783822"><ele>-1.0</ele><time>2022-11-14T17:09:42.0000000+00:00</time></trkpt><trkpt lat="39.47803555" lon="-0.33791324"><ele>-1.0</ele><time>2022-11-14T17:09:43.0000000+00:00</time></trkpt><trkpt lat="39.47805969" lon="-0.33799337"><ele>-1.0</ele><time>2022-11-14T17:09:44.0000000+00:00</time></trkpt><trkpt lat="39.47807922" lon="-0.33807526"><ele>-1.2</ele><time>2022-11-14T17:09:45.0000000+00:00</time></trkpt><trkpt lat="39.47809808" lon="-0.33815414"><ele>-1.2</ele><time>2022-11-14T17:09:46.0000000+00:00</time></trkpt><trkpt lat="39.47812331" lon="-0.33823025"><ele>-1.2</ele><time>2022-11-14T17:09:47.0000000+00:00</time></trkpt><trkpt lat="39.47815022" lon="-0.33830443"><ele>-1.2</ele><time>2022-11-14T17:09:48.0000000+00:00</time></trkpt><trkpt lat="39.47817578" lon="-0.33837894"><ele>-1.0</ele><time>2022-11-14T17:09:49.0000000+00:00</time></trkpt><trkpt lat="39.47819866" lon="-0.33845455"><ele>-1.0</ele><time>2022-11-14T17:09:50.0000000+00:00</time></trkpt><trkpt lat="39.47821811" lon="-0.33853493"><ele>-1.0</ele><time>2022-11-14T17:09:51.0000000+00:00</time></trkpt><trkpt lat="39.47824024" lon="-0.33861506"><ele>-0.8</ele><time>2022-11-14T17:09:52.0000000+00:00</time></trkpt><trkpt lat="39.47826052" lon="-0.33867809"><ele>-0.8</ele><time>2022-11-14T17:09:53.0000000+00:00</time></trkpt><trkpt lat="39.47828609" lon="-0.33877348"><ele>-0.8</ele><time>2022-11-14T17:09:54.0000000+00:00</time></trkpt><trkpt lat="39.4783109" lon="-0.33885998"><ele>-0.8</ele><time>2022-11-14T17:09:55.0000000+00:00</time></trkpt><trkpt lat="39.47833068" lon="-0.33895494"><ele>-0.8</ele><time>2022-11-14T17:09:56.0000000+00:00</time></trkpt><trkpt lat="39.47834685" lon="-0.33904212"><ele>-0.8</ele><time>2022-11-14T17:09:57.0000000+00:00</time></trkpt><trkpt lat="39.47836664" lon="-0.33912929"><ele>-0.8</ele><time>2022-11-14T17:09:58.0000000+00:00</time></trkpt><trkpt lat="39.47838776" lon="-0.33920808"><ele>-0.8</ele><time>2022-11-14T17:09:59.0000000+00:00</time></trkpt><trkpt lat="39.47841215" lon="-0.33928754"><ele>-0.8</ele><time>2022-11-14T17:10:00.0000000+00:00</time></trkpt><trkpt lat="39.47843227" lon="-0.3393618"><ele>-0.6</ele><time>2022-11-14T17:10:01.0000000+00:00</time></trkpt><trkpt lat="39.47845196" lon="-0.33943548"><ele>-0.4</ele><time>2022-11-14T17:10:02.0000000+00:00</time></trkpt><trkpt lat="39.47846982" lon="-0.33951343"><ele>-0.4</ele><time>2022-11-14T17:10:03.0000000+00:00</time></trkpt><trkpt lat="39.47849027" lon="-0.33959742"><ele>-0.4</ele><time>2022-11-14T17:10:04.0000000+00:00</time></trkpt><trkpt lat="39.47851156" lon="-0.3396783"><ele>-0.4</ele><time>2022-11-14T17:10:05.0000000+00:00</time></trkpt><trkpt lat="39.47854132" lon="-0.33975299"><ele>-0.4</ele><time>2022-11-14T17:10:06.0000000+00:00</time></trkpt><trkpt lat="39.47856118" lon="-0.33981526"><ele>-0.4</ele><time>2022-11-14T17:10:07.0000000+00:00</time></trkpt><trkpt lat="39.47858197" lon="-0.33989606"><ele>-0.4</ele><time>2022-11-14T17:10:08.0000000+00:00</time></trkpt><trkpt lat="39.47860745" lon="-0.33999547"><ele>-0.4</ele><time>2022-11-14T17:10:09.0000000+00:00</time></trkpt><trkpt lat="39.47863025" lon="-0.3400855"><ele>-0.4</ele><time>2022-11-14T17:10:10.0000000+00:00</time></trkpt><trkpt lat="39.4786502" lon="-0.34017728"><ele>-0.4</ele><time>2022-11-14T17:10:11.0000000+00:00</time></trkpt><trkpt lat="39.47866964" lon="-0.34026688"><ele>-0.2</ele><time>2022-11-14T17:10:12.0000000+00:00</time></trkpt><trkpt lat="39.47869085" lon="-0.34035229"><ele>-0.2</ele><time>2022-11-14T17:10:13.0000000+00:00</time></trkpt><trkpt lat="39.47871205" lon="-0.34043251"><ele>-0.2</ele><time>2022-11-14T17:10:14.0000000+00:00</time></trkpt><trkpt lat="39.47873452" lon="-0.34050853"><ele>-0.2</ele><time>2022-11-14T17:10:15.0000000+00:00</time></trkpt><trkpt lat="39.47875363" lon="-0.34058095"><ele>-0.2</ele><time>2022-11-14T17:10:16.0000000+00:00</time></trkpt><trkpt lat="39.47877098" lon="-0.34065245"><ele>-0.2</ele><time>2022-11-14T17:10:17.0000000+00:00</time></trkpt><trkpt lat="39.47879059" lon="-0.34072143"><ele>-0.2</ele><time>2022-11-14T17:10:18.0000000+00:00</time></trkpt><trkpt lat="39.47881658" lon="-0.34078823"><ele>-0.2</ele><time>2022-11-14T17:10:19.0000000+00:00</time></trkpt><trkpt lat="39.47883426" lon="-0.34085571"><ele>-0.4</ele><time>2022-11-14T17:10:20.0000000+00:00</time></trkpt><trkpt lat="39.47884365" lon="-0.34091254"><ele>-0.4</ele><time>2022-11-14T17:10:21.0000000+00:00</time></trkpt><trkpt lat="39.47885555" lon="-0.34100424"><ele>-0.6</ele><time>2022-11-14T17:10:22.0000000+00:00</time></trkpt><trkpt lat="39.47886972" lon="-0.34107615"><ele>-0.6</ele><time>2022-11-14T17:10:23.0000000+00:00</time></trkpt><trkpt lat="39.47888548" lon="-0.34112963"><ele>-0.6</ele><time>2022-11-14T17:10:24.0000000+00:00</time></trkpt><trkpt lat="39.47890174" lon="-0.34119945"><ele>-0.6</ele><time>2022-11-14T17:10:25.0000000+00:00</time></trkpt><trkpt lat="39.47892169" lon="-0.34129174"><ele>-0.6</ele><time>2022-11-14T17:10:26.0000000+00:00</time></trkpt><trkpt lat="39.47894147" lon="-0.34137002"><ele>-0.6</ele><time>2022-11-14T17:10:27.0000000+00:00</time></trkpt><trkpt lat="39.47896217" lon="-0.34144353"><ele>-0.4</ele><time>2022-11-14T17:10:28.0000000+00:00</time></trkpt><trkpt lat="39.47898371" lon="-0.34150941"><ele>-0.4</ele><time>2022-11-14T17:10:29.0000000+00:00</time></trkpt><trkpt lat="39.47900592" lon="-0.34157295"><ele>-0.4</ele><time>2022-11-14T17:10:30.0000000+00:00</time></trkpt><trkpt lat="39.47902185" lon="-0.34163321"><ele>-0.4</ele><time>2022-11-14T17:10:31.0000000+00:00</time></trkpt><trkpt lat="39.4790418" lon="-0.34171058"><ele>-0.4</ele><time>2022-11-14T17:10:32.0000000+00:00</time></trkpt><trkpt lat="39.47905907" lon="-0.34179725"><ele>-0.4</ele><time>2022-11-14T17:10:33.0000000+00:00</time></trkpt><trkpt lat="39.47907231" lon="-0.34186179"><ele>-0.4</ele><time>2022-11-14T17:10:34.0000000+00:00</time></trkpt><trkpt lat="39.47908421" lon="-0.34192918"><ele>-0.4</ele><time>2022-11-14T17:10:35.0000000+00:00</time></trkpt><trkpt lat="39.47910039" lon="-0.34200478"><ele>-0.2</ele><time>2022-11-14T17:10:36.0000000+00:00</time></trkpt><trkpt lat="39.47912285" lon="-0.34209925"><ele>-0.4</ele><time>2022-11-14T17:10:37.0000000+00:00</time></trkpt><trkpt lat="39.47915051" lon="-0.34217016"><ele>-0.2</ele><time>2022-11-14T17:10:38.0000000+00:00</time></trkpt><trkpt lat="39.47917406" lon="-0.34223822"><ele>-0.2</ele><time>2022-11-14T17:10:39.0000000+00:00</time></trkpt><trkpt lat="39.47919251" lon="-0.34230502"><ele>0.0</ele><time>2022-11-14T17:10:40.0000000+00:00</time></trkpt><trkpt lat="39.47920558" lon="-0.34237895"><ele>0.0</ele><time>2022-11-14T17:10:41.0000000+00:00</time></trkpt><trkpt lat="39.47921673" lon="-0.34245179"><ele>0.0</ele><time>2022-11-14T17:10:42.0000000+00:00</time></trkpt><trkpt lat="39.47922737" lon="-0.34251818"><ele>-0.2</ele><time>2022-11-14T17:10:43.0000000+00:00</time></trkpt><trkpt lat="39.47924213" lon="-0.34257635"><ele>-0.2</ele><time>2022-11-14T17:10:44.0000000+00:00</time></trkpt><trkpt lat="39.4792609" lon="-0.34262706"><ele>-0.2</ele><time>2022-11-14T17:10:45.0000000+00:00</time></trkpt><trkpt lat="39.4792785" lon="-0.3426719"><ele>-0.4</ele><time>2022-11-14T17:10:46.0000000+00:00</time></trkpt><trkpt lat="39.47929694" lon="-0.3427097"><ele>-0.4</ele><time>2022-11-14T17:10:47.0000000+00:00</time></trkpt><trkpt lat="39.47931723" lon="-0.34275153"><ele>-0.4</ele><time>2022-11-14T17:10:48.0000000+00:00</time></trkpt><trkpt lat="39.47932997" lon="-0.34280031"><ele>-0.4</ele><time>2022-11-14T17:10:49.0000000+00:00</time></trkpt><trkpt lat="39.4793303" lon="-0.34286586"><ele>-0.4</ele><time>2022-11-14T17:10:50.0000000+00:00</time></trkpt><trkpt lat="39.47933248" lon="-0.34292612"><ele>-0.4</ele><time>2022-11-14T17:10:51.0000000+00:00</time></trkpt><trkpt lat="39.47934539" lon="-0.34297055"><ele>-0.6</ele><time>2022-11-14T17:10:52.0000000+00:00</time></trkpt><trkpt lat="39.47935771" lon="-0.34301715"><ele>-0.4</ele><time>2022-11-14T17:10:53.0000000+00:00</time></trkpt><trkpt lat="39.47937481" lon="-0.343063"><ele>-0.4</ele><time>2022-11-14T17:10:54.0000000+00:00</time></trkpt><trkpt lat="39.47940239" lon="-0.34310826"><ele>-0.4</ele><time>2022-11-14T17:10:55.0000000+00:00</time></trkpt><trkpt lat="39.47942628" lon="-0.34316576"><ele>-0.4</ele><time>2022-11-14T17:10:56.0000000+00:00</time></trkpt><trkpt lat="39.47944564" lon="-0.34323759"><ele>-0.2</ele><time>2022-11-14T17:10:57.0000000+00:00</time></trkpt><trkpt lat="39.47946324" lon="-0.3433199"><ele>-0.2</ele><time>2022-11-14T17:10:58.0000000+00:00</time></trkpt><trkpt lat="39.47948051" lon="-0.34341236"><ele>0.0</ele><time>2022-11-14T17:10:59.0000000+00:00</time></trkpt><trkpt lat="39.47950171" lon="-0.34350079"><ele>0.0</ele><time>2022-11-14T17:11:00.0000000+00:00</time></trkpt><trkpt lat="39.47955418" lon="-0.34358385"><ele>0.0</ele><time>2022-11-14T17:11:01.0000000+00:00</time></trkpt><trkpt lat="39.47958386" lon="-0.34367027"><ele>0.0</ele><time>2022-11-14T17:11:02.0000000+00:00</time></trkpt><trkpt lat="39.47961235" lon="-0.34375903"><ele>0.0</ele><time>2022-11-14T17:11:03.0000000+00:00</time></trkpt><trkpt lat="39.47963649" lon="-0.34384386"><ele>0.0</ele><time>2022-11-14T17:11:04.0000000+00:00</time></trkpt><trkpt lat="39.47965787" lon="-0.34392483"><ele>-0.2</ele><time>2022-11-14T17:11:05.0000000+00:00</time></trkpt><trkpt lat="39.47968704" lon="-0.34400445"><ele>-0.2</ele><time>2022-11-14T17:11:06.0000000+00:00</time></trkpt><trkpt lat="39.4797028" lon="-0.34407855"><ele>-0.4</ele><time>2022-11-14T17:11:07.0000000+00:00</time></trkpt><trkpt lat="39.47971512" lon="-0.34413974"><ele>-0.4</ele><time>2022-11-14T17:11:08.0000000+00:00</time></trkpt><trkpt lat="39.47973406" lon="-0.34420503"><ele>-0.4</ele><time>2022-11-14T17:11:09.0000000+00:00</time></trkpt><trkpt lat="39.47975711" lon="-0.34427008"><ele>-0.4</ele><time>2022-11-14T17:11:10.0000000+00:00</time></trkpt><trkpt lat="39.47978293" lon="-0.34433696"><ele>-0.2</ele><time>2022-11-14T17:11:11.0000000+00:00</time></trkpt><trkpt lat="39.47981201" lon="-0.34440737"><ele>-0.2</ele><time>2022-11-14T17:11:12.0000000+00:00</time></trkpt><trkpt lat="39.47984168" lon="-0.34448021"><ele>0.0</ele><time>2022-11-14T17:11:13.0000000+00:00</time></trkpt><trkpt lat="39.47986792" lon="-0.34455305"><ele>0.2</ele><time>2022-11-14T17:11:14.0000000+00:00</time></trkpt><trkpt lat="39.4798913" lon="-0.34462807"><ele>0.2</ele><time>2022-11-14T17:11:15.0000000+00:00</time></trkpt><trkpt lat="39.47992517" lon="-0.34471331"><ele>0.2</ele><time>2022-11-14T17:11:16.0000000+00:00</time></trkpt><trkpt lat="39.47995492" lon="-0.34479445"><ele>0.2</ele><time>2022-11-14T17:11:17.0000000+00:00</time></trkpt><trkpt lat="39.47998468" lon="-0.34486972"><ele>0.0</ele><time>2022-11-14T17:11:18.0000000+00:00</time></trkpt><trkpt lat="39.48001418" lon="-0.34494289"><ele>0.2</ele><time>2022-11-14T17:11:19.0000000+00:00</time></trkpt><trkpt lat="39.48004126" lon="-0.34501825"><ele>0.0</ele><time>2022-11-14T17:11:20.0000000+00:00</time></trkpt><trkpt lat="39.4800602" lon="-0.34509528"><ele>0.0</ele><time>2022-11-14T17:11:21.0000000+00:00</time></trkpt><trkpt lat="39.48008141" lon="-0.34518354"><ele>0.0</ele><time>2022-11-14T17:11:22.0000000+00:00</time></trkpt><trkpt lat="39.48009674" lon="-0.34527222"><ele>0.0</ele><time>2022-11-14T17:11:23.0000000+00:00</time></trkpt><trkpt lat="39.48011426" lon="-0.34534154"><ele>0.0</ele><time>2022-11-14T17:11:24.0000000+00:00</time></trkpt><trkpt lat="39.48013346" lon="-0.34539384"><ele>0.0</ele><time>2022-11-14T17:11:25.0000000+00:00</time></trkpt><trkpt lat="39.48015114" lon="-0.34543474"><ele>0.0</ele><time>2022-11-14T17:11:26.0000000+00:00</time></trkpt><trkpt lat="39.48016531" lon="-0.34546752"><ele>0.0</ele><time>2022-11-14T17:11:27.0000000+00:00</time></trkpt><trkpt lat="39.48017143" lon="-0.34550021"><ele>0.0</ele><time>2022-11-14T17:11:28.0000000+00:00</time></trkpt><trkpt lat="39.48017134" lon="-0.345522"><ele>0.0</ele><time>2022-11-14T17:11:29.0000000+00:00</time></trkpt><trkpt lat="39.48016095" lon="-0.34553424"><ele>0.0</ele><time>2022-11-14T17:11:30.0000000+00:00</time></trkpt><trkpt lat="39.48015676" lon="-0.34553826"><ele>0.0</ele><time>2022-11-14T17:11:31.0000000+00:00</time></trkpt><trkpt lat="39.48015399" lon="-0.34553222"><ele>-0.2</ele><time>2022-11-14T17:11:32.0000000+00:00</time></trkpt><trkpt lat="39.48014938" lon="-0.34551571"><ele>-0.2</ele><time>2022-11-14T17:11:33.0000000+00:00</time></trkpt><trkpt lat="39.48014829" lon="-0.34549627"><ele>-0.2</ele><time>2022-11-14T17:11:34.0000000+00:00</time></trkpt><trkpt lat="39.48014687" lon="-0.34547238"><ele>-0.2</ele><time>2022-11-14T17:11:35.0000000+00:00</time></trkpt><trkpt lat="39.48014008" lon="-0.34544841"><ele>-0.2</ele><time>2022-11-14T17:11:36.0000000+00:00</time></trkpt><trkpt lat="39.48012583" lon="-0.34543131"><ele>-0.2</ele><time>2022-11-14T17:11:37.0000000+00:00</time></trkpt><trkpt lat="39.48011929" lon="-0.3454246"><ele>-0.2</ele><time>2022-11-14T17:11:38.0000000+00:00</time></trkpt><trkpt lat="39.48011695" lon="-0.34542552"><ele>-0.2</ele><time>2022-11-14T17:11:39.0000000+00:00</time></trkpt><trkpt lat="39.48011301" lon="-0.34543399"><ele>-0.2</ele><time>2022-11-14T17:11:40.0000000+00:00</time></trkpt><trkpt lat="39.48009792" lon="-0.34543877"><ele>-0.2</ele><time>2022-11-14T17:11:41.0000000+00:00</time></trkpt><trkpt lat="39.4800726" lon="-0.34544505"><ele>-0.2</ele><time>2022-11-14T17:11:42.0000000+00:00</time></trkpt><trkpt lat="39.48004486" lon="-0.34545586"><ele>0.0</ele><time>2022-11-14T17:11:43.0000000+00:00</time></trkpt><trkpt lat="39.48002013" lon="-0.34547498"><ele>0.0</ele><time>2022-11-14T17:11:44.0000000+00:00</time></trkpt><trkpt lat="39.48000044" lon="-0.3454997"><ele>0.0</ele><time>2022-11-14T17:11:45.0000000+00:00</time></trkpt><trkpt lat="39.47998527" lon="-0.34552024"><ele>0.0</ele><time>2022-11-14T17:11:46.0000000+00:00</time></trkpt><trkpt lat="39.47997579" lon="-0.3455344"><ele>0.0</ele><time>2022-11-14T17:11:47.0000000+00:00</time></trkpt><trkpt lat="39.47996515" lon="-0.34554999"><ele>0.0</ele><time>2022-11-14T17:11:48.0000000+00:00</time></trkpt><trkpt lat="39.47995082" lon="-0.34556902"><ele>0.0</ele><time>2022-11-14T17:11:49.0000000+00:00</time></trkpt><trkpt lat="39.47993514" lon="-0.3455914"><ele>0.0</ele><time>2022-11-14T17:11:50.0000000+00:00</time></trkpt><trkpt lat="39.4799224" lon="-0.34560355"><ele>0.0</ele><time>2022-11-14T17:11:51.0000000+00:00</time></trkpt><trkpt lat="39.47991586" lon="-0.34560515"><ele>0.0</ele><time>2022-11-14T17:11:52.0000000+00:00</time></trkpt><trkpt lat="39.47991335" lon="-0.345609"><ele>0.0</ele><time>2022-11-14T17:11:53.0000000+00:00</time></trkpt><trkpt lat="39.47990966" lon="-0.34561504"><ele>0.0</ele><time>2022-11-14T17:11:54.0000000+00:00</time></trkpt><trkpt lat="39.47990748" lon="-0.34560875"><ele>0.0</ele><time>2022-11-14T17:11:55.0000000+00:00</time></trkpt><trkpt lat="39.47990396" lon="-0.34560775"><ele>-0.2</ele><time>2022-11-14T17:11:56.0000000+00:00</time></trkpt><trkpt lat="39.47990396" lon="-0.34560775"><ele>-0.2</ele><time>2022-11-14T17:11:57.0000000+00:00</time></trkpt><trkpt lat="39.47990396" lon="-0.34560775"><ele>-0.2</ele><time>2022-11-14T17:11:58.0000000+00:00</time></trkpt><trkpt lat="39.47990396" lon="-0.34560775"><ele>-0.2</ele><time>2022-11-14T17:11:59.0000000+00:00</time></trkpt><trkpt lat="39.47990363" lon="-0.34561018"><ele>-0.4</ele><time>2022-11-14T17:12:00.0000000+00:00</time></trkpt><trkpt lat="39.47990161" lon="-0.34561277"><ele>-0.2</ele><time>2022-11-14T17:12:01.0000000+00:00</time></trkpt><trkpt lat="39.47990161" lon="-0.34561277"><ele>-0.2</ele><time>2022-11-14T17:12:02.0000000+00:00</time></trkpt><trkpt lat="39.47990161" lon="-0.34561277"><ele>-0.2</ele><time>2022-11-14T17:12:03.0000000+00:00</time></trkpt><trkpt lat="39.47990161" lon="-0.34561277"><ele>-0.2</ele><time>2022-11-14T17:12:04.0000000+00:00</time></trkpt><trkpt lat="39.47990161" lon="-0.34561277"><ele>-0.2</ele><time>2022-11-14T17:12:05.0000000+00:00</time></trkpt><trkpt lat="39.47990161" lon="-0.34561277"><ele>-0.2</ele><time>2022-11-14T17:12:06.0000000+00:00</time></trkpt><trkpt lat="39.47990161" lon="-0.34561277"><ele>-0.2</ele><time>2022-11-14T17:12:07.0000000+00:00</time></trkpt><trkpt lat="39.47990161" lon="-0.34561277"><ele>-0.2</ele><time>2022-11-14T17:12:08.0000000+00:00</time></trkpt><trkpt lat="39.47990161" lon="-0.34561277"><ele>-0.2</ele><time>2022-11-14T17:12:09.0000000+00:00</time></trkpt><trkpt lat="39.47990161" lon="-0.34561277"><ele>-0.2</ele><time>2022-11-14T17:12:10.0000000+00:00</time></trkpt><trkpt lat="39.47990161" lon="-0.34561277"><ele>-0.2</ele><time>2022-11-14T17:12:11.0000000+00:00</time></trkpt><trkpt lat="39.47990161" lon="-0.34561277"><ele>-0.4</ele><time>2022-11-14T17:12:12.0000000+00:00</time></trkpt><trkpt lat="39.47990161" lon="-0.34561277"><ele>-0.4</ele><time>2022-11-14T17:12:13.0000000+00:00</time></trkpt><trkpt lat="39.47990161" lon="-0.34561277"><ele>-0.4</ele><time>2022-11-14T17:12:14.0000000+00:00</time></trkpt><trkpt lat="39.47990161" lon="-0.34561277"><ele>-0.4</ele><time>2022-11-14T17:12:15.0000000+00:00</time></trkpt><trkpt lat="39.47990161" lon="-0.34561277"><ele>-0.4</ele><time>2022-11-14T17:12:16.0000000+00:00</time></trkpt><trkpt lat="39.47990161" lon="-0.34561277"><ele>-0.4</ele><time>2022-11-14T17:12:17.0000000+00:00</time></trkpt><trkpt lat="39.47990161" lon="-0.34561277"><ele>-0.4</ele><time>2022-11-14T17:12:18.0000000+00:00</time></trkpt><trkpt lat="39.47990161" lon="-0.34561277"><ele>-0.4</ele><time>2022-11-14T17:12:19.0000000+00:00</time></trkpt><trkpt lat="39.47990161" lon="-0.34561277"><ele>-0.4</ele><time>2022-11-14T17:12:20.0000000+00:00</time></trkpt><trkpt lat="39.47990161" lon="-0.34561277"><ele>-0.4</ele><time>2022-11-14T17:12:21.0000000+00:00</time></trkpt><trkpt lat="39.47990161" lon="-0.34561277"><ele>-0.4</ele><time>2022-11-14T17:12:22.0000000+00:00</time></trkpt><trkpt lat="39.47990161" lon="-0.34561277"><ele>-0.4</ele><time>2022-11-14T17:12:23.0000000+00:00</time></trkpt><trkpt lat="39.47990161" lon="-0.34561277"><ele>-0.4</ele><time>2022-11-14T17:12:24.0000000+00:00</time></trkpt><trkpt lat="39.47990161" lon="-0.34561277"><ele>-0.4</ele><time>2022-11-14T17:12:25.0000000+00:00</time></trkpt><trkpt lat="39.47990161" lon="-0.34561277"><ele>-0.4</ele><time>2022-11-14T17:12:26.0000000+00:00</time></trkpt><trkpt lat="39.47990161" lon="-0.34561277"><ele>-0.4</ele><time>2022-11-14T17:12:27.0000000+00:00</time></trkpt><trkpt lat="39.47990161" lon="-0.34561277"><ele>-0.4</ele><time>2022-11-14T17:12:28.0000000+00:00</time></trkpt><trkpt lat="39.47990161" lon="-0.34561277"><ele>-0.4</ele><time>2022-11-14T17:12:29.0000000+00:00</time></trkpt><trkpt lat="39.47990161" lon="-0.34561277"><ele>-0.4</ele><time>2022-11-14T17:12:30.0000000+00:00</time></trkpt><trkpt lat="39.47990161" lon="-0.34561277"><ele>-0.4</ele><time>2022-11-14T17:12:31.0000000+00:00</time></trkpt><trkpt lat="39.47990161" lon="-0.34561277"><ele>-0.4</ele><time>2022-11-14T17:12:32.0000000+00:00</time></trkpt><trkpt lat="39.47990161" lon="-0.34561277"><ele>-0.4</ele><time>2022-11-14T17:12:33.0000000+00:00</time></trkpt><trkpt lat="39.47990161" lon="-0.34561277"><ele>-0.4</ele><time>2022-11-14T17:12:34.0000000+00:00</time></trkpt><trkpt lat="39.47990161" lon="-0.34561277"><ele>-0.6</ele><time>2022-11-14T17:12:35.0000000+00:00</time></trkpt><trkpt lat="39.47990161" lon="-0.34561277"><ele>-0.6</ele><time>2022-11-14T17:12:36.0000000+00:00</time></trkpt><trkpt lat="39.47990161" lon="-0.34561277"><ele>-0.6</ele><time>2022-11-14T17:12:37.0000000+00:00</time></trkpt><trkpt lat="39.47990161" lon="-0.34561277"><ele>-0.6</ele><time>2022-11-14T17:12:38.0000000+00:00</time></trkpt><trkpt lat="39.47990161" lon="-0.34561277"><ele>-0.4</ele><time>2022-11-14T17:12:39.0000000+00:00</time></trkpt><trkpt lat="39.47990161" lon="-0.34561277"><ele>-0.4</ele><time>2022-11-14T17:12:40.0000000+00:00</time></trkpt><trkpt lat="39.47990161" lon="-0.34561277"><ele>-0.4</ele><time>2022-11-14T17:12:41.0000000+00:00</time></trkpt><trkpt lat="39.47990161" lon="-0.34561277"><ele>-0.4</ele><time>2022-11-14T17:12:42.0000000+00:00</time></trkpt><trkpt lat="39.47990161" lon="-0.34561277"><ele>-0.4</ele><time>2022-11-14T17:12:43.0000000+00:00</time></trkpt><trkpt lat="39.47990161" lon="-0.34561277"><ele>-0.4</ele><time>2022-11-14T17:12:44.0000000+00:00</time></trkpt><trkpt lat="39.47990161" lon="-0.34561277"><ele>-0.4</ele><time>2022-11-14T17:12:45.0000000+00:00</time></trkpt><trkpt lat="39.47990161" lon="-0.34561277"><ele>-0.4</ele><time>2022-11-14T17:12:46.0000000+00:00</time></trkpt><trkpt lat="39.47990161" lon="-0.34561277"><ele>-0.4</ele><time>2022-11-14T17:12:47.0000000+00:00</time></trkpt><trkpt lat="39.47990161" lon="-0.34561277"><ele>-0.4</ele><time>2022-11-14T17:12:48.0000000+00:00</time></trkpt><trkpt lat="39.47989499" lon="-0.34561286"><ele>-0.4</ele><time>2022-11-14T17:12:49.0000000+00:00</time></trkpt><trkpt lat="39.47987077" lon="-0.3456194"><ele>-0.4</ele><time>2022-11-14T17:12:50.0000000+00:00</time></trkpt><trkpt lat="39.47983925" lon="-0.3456235"><ele>-0.2</ele><time>2022-11-14T17:12:51.0000000+00:00</time></trkpt><trkpt lat="39.4798043" lon="-0.34563482"><ele>-0.2</ele><time>2022-11-14T17:12:52.0000000+00:00</time></trkpt><trkpt lat="39.47977136" lon="-0.34565158"><ele>0.2</ele><time>2022-11-14T17:12:53.0000000+00:00</time></trkpt><trkpt lat="39.47974973" lon="-0.34566927"><ele>0.2</ele><time>2022-11-14T17:12:54.0000000+00:00</time></trkpt><trkpt lat="39.47974035" lon="-0.34568218"><ele>0.2</ele><time>2022-11-14T17:12:55.0000000+00:00</time></trkpt><trkpt lat="39.47973976" lon="-0.34570288"><ele>0.4</ele><time>2022-11-14T17:12:56.0000000+00:00</time></trkpt><trkpt lat="39.47975284" lon="-0.34573959"><ele>0.4</ele><time>2022-11-14T17:12:57.0000000+00:00</time></trkpt><trkpt lat="39.47977136" lon="-0.34578075"><ele>0.4</ele><time>2022-11-14T17:12:58.0000000+00:00</time></trkpt><trkpt lat="39.47978435" lon="-0.34582115"><ele>0.2</ele><time>2022-11-14T17:12:59.0000000+00:00</time></trkpt><trkpt lat="39.47979215" lon="-0.34585719"><ele>0.2</ele><time>2022-11-14T17:13:00.0000000+00:00</time></trkpt><trkpt lat="39.47979416" lon="-0.34589801"><ele>0.2</ele><time>2022-11-14T17:13:01.0000000+00:00</time></trkpt><trkpt lat="39.47980296" lon="-0.3459431"><ele>0.2</ele><time>2022-11-14T17:13:02.0000000+00:00</time></trkpt><trkpt lat="39.47982132" lon="-0.34599365"><ele>0.2</ele><time>2022-11-14T17:13:03.0000000+00:00</time></trkpt><trkpt lat="39.47984428" lon="-0.34604872"><ele>0.2</ele><time>2022-11-14T17:13:04.0000000+00:00</time></trkpt><trkpt lat="39.47986943" lon="-0.34611359"><ele>0.2</ele><time>2022-11-14T17:13:05.0000000+00:00</time></trkpt><trkpt lat="39.47989047" lon="-0.34616514"><ele>0.2</ele><time>2022-11-14T17:13:06.0000000+00:00</time></trkpt><trkpt lat="39.47990312" lon="-0.34623681"><ele>0.2</ele><time>2022-11-14T17:13:07.0000000+00:00</time></trkpt><trkpt lat="39.47990296" lon="-0.34628081"><ele>0.2</ele><time>2022-11-14T17:13:08.0000000+00:00</time></trkpt><trkpt lat="39.47992441" lon="-0.34634745"><ele>0.2</ele><time>2022-11-14T17:13:09.0000000+00:00</time></trkpt><trkpt lat="39.47994495" lon="-0.34641719"><ele>0.2</ele><time>2022-11-14T17:13:10.0000000+00:00</time></trkpt><trkpt lat="39.47995568" lon="-0.34648432"><ele>0.2</ele><time>2022-11-14T17:13:11.0000000+00:00</time></trkpt><trkpt lat="39.47996071" lon="-0.34654786"><ele>0.4</ele><time>2022-11-14T17:13:12.0000000+00:00</time></trkpt><trkpt lat="39.47997537" lon="-0.34661332"><ele>0.4</ele><time>2022-11-14T17:13:13.0000000+00:00</time></trkpt><trkpt lat="39.4799975" lon="-0.34667987"><ele>0.6</ele><time>2022-11-14T17:13:14.0000000+00:00</time></trkpt><trkpt lat="39.48002474" lon="-0.34674794"><ele>0.4</ele><time>2022-11-14T17:13:15.0000000+00:00</time></trkpt><trkpt lat="39.48004947" lon="-0.34682463"><ele>0.4</ele><time>2022-11-14T17:13:16.0000000+00:00</time></trkpt><trkpt lat="39.48007948" lon="-0.34689914"><ele>0.6</ele><time>2022-11-14T17:13:17.0000000+00:00</time></trkpt><trkpt lat="39.48011594" lon="-0.34697341"><ele>0.8</ele><time>2022-11-14T17:13:18.0000000+00:00</time></trkpt><trkpt lat="39.48014687" lon="-0.34704952"><ele>0.8</ele><time>2022-11-14T17:13:19.0000000+00:00</time></trkpt><trkpt lat="39.48017126" lon="-0.34712344"><ele>0.8</ele><time>2022-11-14T17:13:20.0000000+00:00</time></trkpt><trkpt lat="39.48018559" lon="-0.34719427"><ele>0.8</ele><time>2022-11-14T17:13:21.0000000+00:00</time></trkpt><trkpt lat="39.48019205" lon="-0.34726359"><ele>1.0</ele><time>2022-11-14T17:13:22.0000000+00:00</time></trkpt><trkpt lat="39.4801617" lon="-0.34735135"><ele>0.8</ele><time>2022-11-14T17:13:23.0000000+00:00</time></trkpt><trkpt lat="39.48014536" lon="-0.34743332"><ele>0.8</ele><time>2022-11-14T17:13:24.0000000+00:00</time></trkpt><trkpt lat="39.48016321" lon="-0.34750884"><ele>0.8</ele><time>2022-11-14T17:13:25.0000000+00:00</time></trkpt><trkpt lat="39.48018207" lon="-0.34758353"><ele>0.6</ele><time>2022-11-14T17:13:26.0000000+00:00</time></trkpt><trkpt lat="39.48020873" lon="-0.34765033"><ele>0.2</ele><time>2022-11-14T17:13:27.0000000+00:00</time></trkpt><trkpt lat="39.48025533" lon="-0.34772635"><ele>0.0</ele><time>2022-11-14T17:13:28.0000000+00:00</time></trkpt><trkpt lat="39.48029196" lon="-0.34779718"><ele>0.0</ele><time>2022-11-14T17:13:29.0000000+00:00</time></trkpt><trkpt lat="39.4803223" lon="-0.34786499"><ele>0.0</ele><time>2022-11-14T17:13:30.0000000+00:00</time></trkpt><trkpt lat="39.48034644" lon="-0.34793691"><ele>0.0</ele><time>2022-11-14T17:13:31.0000000+00:00</time></trkpt><trkpt lat="39.48040092" lon="-0.34801134"><ele>0.0</ele><time>2022-11-14T17:13:32.0000000+00:00</time></trkpt><trkpt lat="39.48042364" lon="-0.34807345"><ele>0.0</ele><time>2022-11-14T17:13:33.0000000+00:00</time></trkpt><trkpt lat="39.480443" lon="-0.34813749"><ele>0.0</ele><time>2022-11-14T17:13:34.0000000+00:00</time></trkpt><trkpt lat="39.48045155" lon="-0.34819918"><ele>0.2</ele><time>2022-11-14T17:13:35.0000000+00:00</time></trkpt><trkpt lat="39.48045876" lon="-0.34826347"><ele>0.2</ele><time>2022-11-14T17:13:36.0000000+00:00</time></trkpt><trkpt lat="39.48046471" lon="-0.3483234"><ele>0.4</ele><time>2022-11-14T17:13:37.0000000+00:00</time></trkpt><trkpt lat="39.48048315" lon="-0.34838249"><ele>0.4</ele><time>2022-11-14T17:13:38.0000000+00:00</time></trkpt><trkpt lat="39.4805" lon="-0.34844703"><ele>0.4</ele><time>2022-11-14T17:13:39.0000000+00:00</time></trkpt><trkpt lat="39.48052028" lon="-0.34850839"><ele>0.4</ele><time>2022-11-14T17:13:40.0000000+00:00</time></trkpt><trkpt lat="39.48053906" lon="-0.34857024"><ele>0.4</ele><time>2022-11-14T17:13:41.0000000+00:00</time></trkpt><trkpt lat="39.48055431" lon="-0.34863353"><ele>0.4</ele><time>2022-11-14T17:13:42.0000000+00:00</time></trkpt><trkpt lat="39.48057342" lon="-0.34869338"><ele>0.4</ele><time>2022-11-14T17:13:43.0000000+00:00</time></trkpt><trkpt lat="39.48058885" lon="-0.3487544"><ele>0.4</ele><time>2022-11-14T17:13:44.0000000+00:00</time></trkpt><trkpt lat="39.48060519" lon="-0.34881751"><ele>0.4</ele><time>2022-11-14T17:13:45.0000000+00:00</time></trkpt><trkpt lat="39.48062271" lon="-0.34887945"><ele>0.4</ele><time>2022-11-14T17:13:46.0000000+00:00</time></trkpt><trkpt lat="39.48064048" lon="-0.34894089"><ele>0.4</ele><time>2022-11-14T17:13:47.0000000+00:00</time></trkpt><trkpt lat="39.48065833" lon="-0.34900384"><ele>0.4</ele><time>2022-11-14T17:13:48.0000000+00:00</time></trkpt><trkpt lat="39.48067308" lon="-0.34906603"><ele>0.4</ele><time>2022-11-14T17:13:49.0000000+00:00</time></trkpt><trkpt lat="39.48069312" lon="-0.3491258"><ele>0.6</ele><time>2022-11-14T17:13:50.0000000+00:00</time></trkpt><trkpt lat="39.48071315" lon="-0.34918296"><ele>0.6</ele><time>2022-11-14T17:13:51.0000000+00:00</time></trkpt><trkpt lat="39.48072966" lon="-0.34924189"><ele>0.6</ele><time>2022-11-14T17:13:52.0000000+00:00</time></trkpt><trkpt lat="39.48074483" lon="-0.34929662"><ele>0.8</ele><time>2022-11-14T17:13:53.0000000+00:00</time></trkpt><trkpt lat="39.48076168" lon="-0.3493568"><ele>0.6</ele><time>2022-11-14T17:13:54.0000000+00:00</time></trkpt><trkpt lat="39.48078146" lon="-0.34941548"><ele>0.6</ele><time>2022-11-14T17:13:55.0000000+00:00</time></trkpt><trkpt lat="39.48079948" lon="-0.34947591"><ele>0.4</ele><time>2022-11-14T17:13:56.0000000+00:00</time></trkpt><trkpt lat="39.48081792" lon="-0.34953668"><ele>0.4</ele><time>2022-11-14T17:13:57.0000000+00:00</time></trkpt><trkpt lat="39.48083276" lon="-0.34960055"><ele>0.4</ele><time>2022-11-14T17:13:58.0000000+00:00</time></trkpt><trkpt lat="39.48084743" lon="-0.34966584"><ele>0.6</ele><time>2022-11-14T17:13:59.0000000+00:00</time></trkpt><trkpt lat="39.48086444" lon="-0.34972661"><ele>0.6</ele><time>2022-11-14T17:14:00.0000000+00:00</time></trkpt><trkpt lat="39.48087911" lon="-0.34979174"><ele>0.8</ele><time>2022-11-14T17:14:01.0000000+00:00</time></trkpt><trkpt lat="39.48089495" lon="-0.34985083"><ele>1.0</ele><time>2022-11-14T17:14:02.0000000+00:00</time></trkpt><trkpt lat="39.48091012" lon="-0.34990867"><ele>1.0</ele><time>2022-11-14T17:14:03.0000000+00:00</time></trkpt><trkpt lat="39.48092203" lon="-0.34996474"><ele>1.0</ele><time>2022-11-14T17:14:04.0000000+00:00</time></trkpt><trkpt lat="39.48093552" lon="-0.3500147"><ele>1.0</ele><time>2022-11-14T17:14:05.0000000+00:00</time></trkpt><trkpt lat="39.48094927" lon="-0.35006046"><ele>1.0</ele><time>2022-11-14T17:14:06.0000000+00:00</time></trkpt><trkpt lat="39.48095949" lon="-0.3501074"><ele>0.8</ele><time>2022-11-14T17:14:07.0000000+00:00</time></trkpt><trkpt lat="39.48097249" lon="-0.35015468"><ele>0.8</ele><time>2022-11-14T17:14:08.0000000+00:00</time></trkpt><trkpt lat="39.48098858" lon="-0.35020522"><ele>0.8</ele><time>2022-11-14T17:14:09.0000000+00:00</time></trkpt><trkpt lat="39.48100635" lon="-0.35026213"><ele>0.8</ele><time>2022-11-14T17:14:10.0000000+00:00</time></trkpt><trkpt lat="39.48102538" lon="-0.35032458"><ele>0.8</ele><time>2022-11-14T17:14:11.0000000+00:00</time></trkpt><trkpt lat="39.48104315" lon="-0.35038853"><ele>0.8</ele><time>2022-11-14T17:14:12.0000000+00:00</time></trkpt><trkpt lat="39.48105807" lon="-0.35045492"><ele>0.8</ele><time>2022-11-14T17:14:13.0000000+00:00</time></trkpt><trkpt lat="39.48107399" lon="-0.35051912"><ele>0.8</ele><time>2022-11-14T17:14:14.0000000+00:00</time></trkpt><trkpt lat="39.48108581" lon="-0.35057989"><ele>0.8</ele><time>2022-11-14T17:14:15.0000000+00:00</time></trkpt><trkpt lat="39.48108967" lon="-0.35063077"><ele>0.8</ele><time>2022-11-14T17:14:16.0000000+00:00</time></trkpt><trkpt lat="39.48107583" lon="-0.3506762"><ele>0.8</ele><time>2022-11-14T17:14:17.0000000+00:00</time></trkpt><trkpt lat="39.48106008" lon="-0.35071601"><ele>1.0</ele><time>2022-11-14T17:14:18.0000000+00:00</time></trkpt><trkpt lat="39.48104415" lon="-0.35074828"><ele>1.0</ele><time>2022-11-14T17:14:19.0000000+00:00</time></trkpt><trkpt lat="39.48102806" lon="-0.350772"><ele>1.0</ele><time>2022-11-14T17:14:20.0000000+00:00</time></trkpt><trkpt lat="39.48101398" lon="-0.35079095"><ele>1.0</ele><time>2022-11-14T17:14:21.0000000+00:00</time></trkpt><trkpt lat="39.48099998" lon="-0.35080712"><ele>1.0</ele><time>2022-11-14T17:14:22.0000000+00:00</time></trkpt><trkpt lat="39.48098615" lon="-0.35082489"><ele>1.0</ele><time>2022-11-14T17:14:23.0000000+00:00</time></trkpt><trkpt lat="39.4809693" lon="-0.35085574"><ele>1.0</ele><time>2022-11-14T17:14:24.0000000+00:00</time></trkpt><trkpt lat="39.48096276" lon="-0.35089731"><ele>1.0</ele><time>2022-11-14T17:14:25.0000000+00:00</time></trkpt><trkpt lat="39.48096192" lon="-0.3509435"><ele>1.0</ele><time>2022-11-14T17:14:26.0000000+00:00</time></trkpt><trkpt lat="39.48096067" lon="-0.35099161"><ele>1.0</ele><time>2022-11-14T17:14:27.0000000+00:00</time></trkpt><trkpt lat="39.48095547" lon="-0.35104316"><ele>1.0</ele><time>2022-11-14T17:14:28.0000000+00:00</time></trkpt><trkpt lat="39.48094265" lon="-0.35109328"><ele>1.2</ele><time>2022-11-14T17:14:29.0000000+00:00</time></trkpt><trkpt lat="39.48093049" lon="-0.35114567"><ele>1.4</ele><time>2022-11-14T17:14:30.0000000+00:00</time></trkpt><trkpt lat="39.48092144" lon="-0.35119562"><ele>1.4</ele><time>2022-11-14T17:14:31.0000000+00:00</time></trkpt><trkpt lat="39.48091599" lon="-0.35124256"><ele>1.6</ele><time>2022-11-14T17:14:32.0000000+00:00</time></trkpt><trkpt lat="39.4809149" lon="-0.351289"><ele>1.4</ele><time>2022-11-14T17:14:33.0000000+00:00</time></trkpt><trkpt lat="39.48091448" lon="-0.35133393"><ele>1.6</ele><time>2022-11-14T17:14:34.0000000+00:00</time></trkpt><trkpt lat="39.48091197" lon="-0.35137936"><ele>1.6</ele><time>2022-11-14T17:14:35.0000000+00:00</time></trkpt><trkpt lat="39.48090895" lon="-0.35142051"><ele>1.6</ele><time>2022-11-14T17:14:36.0000000+00:00</time></trkpt><trkpt lat="39.48090644" lon="-0.35145471"><ele>1.6</ele><time>2022-11-14T17:14:37.0000000+00:00</time></trkpt><trkpt lat="39.48090811" lon="-0.35148698"><ele>1.6</ele><time>2022-11-14T17:14:38.0000000+00:00</time></trkpt><trkpt lat="39.48091323" lon="-0.3515143"><ele>1.6</ele><time>2022-11-14T17:14:39.0000000+00:00</time></trkpt><trkpt lat="39.48091616" lon="-0.35153467"><ele>1.6</ele><time>2022-11-14T17:14:40.0000000+00:00</time></trkpt><trkpt lat="39.48091708" lon="-0.351563"><ele>1.4</ele><time>2022-11-14T17:14:41.0000000+00:00</time></trkpt><trkpt lat="39.48091826" lon="-0.35158672"><ele>1.4</ele><time>2022-11-14T17:14:42.0000000+00:00</time></trkpt><trkpt lat="39.48091867" lon="-0.3516003"><ele>1.4</ele><time>2022-11-14T17:14:43.0000000+00:00</time></trkpt><trkpt lat="39.48091842" lon="-0.35161707"><ele>1.4</ele><time>2022-11-14T17:14:44.0000000+00:00</time></trkpt><trkpt lat="39.48092069" lon="-0.35162821"><ele>1.4</ele><time>2022-11-14T17:14:45.0000000+00:00</time></trkpt><trkpt lat="39.48092203" lon="-0.35163282"><ele>1.2</ele><time>2022-11-14T17:14:46.0000000+00:00</time></trkpt><trkpt lat="39.48092203" lon="-0.35163282"><ele>1.2</ele><time>2022-11-14T17:14:47.0000000+00:00</time></trkpt><trkpt lat="39.48092203" lon="-0.35163282"><ele>1.2</ele><time>2022-11-14T17:14:48.0000000+00:00</time></trkpt><trkpt lat="39.48092203" lon="-0.35163282"><ele>1.2</ele><time>2022-11-14T17:14:49.0000000+00:00</time></trkpt><trkpt lat="39.48092203" lon="-0.35163282"><ele>1.2</ele><time>2022-11-14T17:14:50.0000000+00:00</time></trkpt><trkpt lat="39.48092203" lon="-0.35163282"><ele>1.2</ele><time>2022-11-14T17:14:51.0000000+00:00</time></trkpt><trkpt lat="39.48092203" lon="-0.35163282"><ele>1.2</ele><time>2022-11-14T17:14:52.0000000+00:00</time></trkpt><trkpt lat="39.48092203" lon="-0.35163282"><ele>1.2</ele><time>2022-11-14T17:14:53.0000000+00:00</time></trkpt><trkpt lat="39.48092203" lon="-0.35163282"><ele>1.2</ele><time>2022-11-14T17:14:54.0000000+00:00</time></trkpt><trkpt lat="39.48092203" lon="-0.35163282"><ele>1.2</ele><time>2022-11-14T17:14:55.0000000+00:00</time></trkpt><trkpt lat="39.48092203" lon="-0.35163282"><ele>1.2</ele><time>2022-11-14T17:14:56.0000000+00:00</time></trkpt><trkpt lat="39.48092203" lon="-0.35163282"><ele>1.2</ele><time>2022-11-14T17:14:57.0000000+00:00</time></trkpt><trkpt lat="39.48092203" lon="-0.35163282"><ele>1.2</ele><time>2022-11-14T17:14:58.0000000+00:00</time></trkpt><trkpt lat="39.48092203" lon="-0.35163282"><ele>1.2</ele><time>2022-11-14T17:14:59.0000000+00:00</time></trkpt><trkpt lat="39.48092203" lon="-0.35163282"><ele>1.2</ele><time>2022-11-14T17:15:00.0000000+00:00</time></trkpt><trkpt lat="39.48092203" lon="-0.35163282"><ele>1.2</ele><time>2022-11-14T17:15:01.0000000+00:00</time></trkpt><trkpt lat="39.48092203" lon="-0.35163282"><ele>1.2</ele><time>2022-11-14T17:15:02.0000000+00:00</time></trkpt><trkpt lat="39.48092203" lon="-0.35163282"><ele>1.4</ele><time>2022-11-14T17:15:03.0000000+00:00</time></trkpt><trkpt lat="39.48092203" lon="-0.35163282"><ele>1.2</ele><time>2022-11-14T17:15:04.0000000+00:00</time></trkpt><trkpt lat="39.48092203" lon="-0.35163282"><ele>1.4</ele><time>2022-11-14T17:15:05.0000000+00:00</time></trkpt><trkpt lat="39.48092203" lon="-0.35163282"><ele>1.2</ele><time>2022-11-14T17:15:06.0000000+00:00</time></trkpt><trkpt lat="39.48092203" lon="-0.35163282"><ele>1.2</ele><time>2022-11-14T17:15:07.0000000+00:00</time></trkpt><trkpt lat="39.48092203" lon="-0.35163282"><ele>1.2</ele><time>2022-11-14T17:15:08.0000000+00:00</time></trkpt><trkpt lat="39.48092203" lon="-0.35163282"><ele>1.2</ele><time>2022-11-14T17:15:09.0000000+00:00</time></trkpt><trkpt lat="39.48092203" lon="-0.35163282"><ele>1.4</ele><time>2022-11-14T17:15:10.0000000+00:00</time></trkpt><trkpt lat="39.48092203" lon="-0.35163282"><ele>1.4</ele><time>2022-11-14T17:15:11.0000000+00:00</time></trkpt><trkpt lat="39.48092203" lon="-0.35163282"><ele>1.4</ele><time>2022-11-14T17:15:12.0000000+00:00</time></trkpt><trkpt lat="39.48092203" lon="-0.35163282"><ele>1.4</ele><time>2022-11-14T17:15:13.0000000+00:00</time></trkpt><trkpt lat="39.48092203" lon="-0.35163282"><ele>1.4</ele><time>2022-11-14T17:15:14.0000000+00:00</time></trkpt><trkpt lat="39.48092203" lon="-0.35163282"><ele>1.4</ele><time>2022-11-14T17:15:15.0000000+00:00</time></trkpt><trkpt lat="39.48092203" lon="-0.35163282"><ele>1.4</ele><time>2022-11-14T17:15:16.0000000+00:00</time></trkpt><trkpt lat="39.48092203" lon="-0.35163282"><ele>1.4</ele><time>2022-11-14T17:15:17.0000000+00:00</time></trkpt><trkpt lat="39.48092446" lon="-0.35163006"><ele>1.4</ele><time>2022-11-14T17:15:18.0000000+00:00</time></trkpt><trkpt lat="39.48092496" lon="-0.35162645"><ele>1.4</ele><time>2022-11-14T17:15:19.0000000+00:00</time></trkpt><trkpt lat="39.48092496" lon="-0.35162645"><ele>1.4</ele><time>2022-11-14T17:15:20.0000000+00:00</time></trkpt><trkpt lat="39.48092496" lon="-0.35162645"><ele>1.4</ele><time>2022-11-14T17:15:21.0000000+00:00</time></trkpt><trkpt lat="39.48092463" lon="-0.35162805"><ele>1.4</ele><time>2022-11-14T17:15:22.0000000+00:00</time></trkpt><trkpt lat="39.48092379" lon="-0.35163836"><ele>1.4</ele><time>2022-11-14T17:15:23.0000000+00:00</time></trkpt><trkpt lat="39.48092949" lon="-0.3516568"><ele>1.2</ele><time>2022-11-14T17:15:24.0000000+00:00</time></trkpt><trkpt lat="39.48094038" lon="-0.35169074"><ele>1.2</ele><time>2022-11-14T17:15:25.0000000+00:00</time></trkpt><trkpt lat="39.48096285" lon="-0.35173198"><ele>1.2</ele><time>2022-11-14T17:15:26.0000000+00:00</time></trkpt><trkpt lat="39.48099244" lon="-0.35177574"><ele>1.2</ele><time>2022-11-14T17:15:27.0000000+00:00</time></trkpt><trkpt lat="39.48102496" lon="-0.35182242"><ele>1.2</ele><time>2022-11-14T17:15:28.0000000+00:00</time></trkpt><trkpt lat="39.48105706" lon="-0.35186995"><ele>1.4</ele><time>2022-11-14T17:15:29.0000000+00:00</time></trkpt><trkpt lat="39.48108958" lon="-0.35191597"><ele>1.4</ele><time>2022-11-14T17:15:30.0000000+00:00</time></trkpt><trkpt lat="39.4811216" lon="-0.35196064"><ele>1.4</ele><time>2022-11-14T17:15:31.0000000+00:00</time></trkpt><trkpt lat="39.48115337" lon="-0.35200381"><ele>1.6</ele><time>2022-11-14T17:15:32.0000000+00:00</time></trkpt><trkpt lat="39.48118128" lon="-0.3520365"><ele>1.6</ele><time>2022-11-14T17:15:33.0000000+00:00</time></trkpt><trkpt lat="39.48120341" lon="-0.35205896"><ele>1.6</ele><time>2022-11-14T17:15:34.0000000+00:00</time></trkpt><trkpt lat="39.48122386" lon="-0.35207774"><ele>1.6</ele><time>2022-11-14T17:15:35.0000000+00:00</time></trkpt><trkpt lat="39.4812423" lon="-0.35209291"><ele>1.4</ele><time>2022-11-14T17:15:36.0000000+00:00</time></trkpt><trkpt lat="39.48125906" lon="-0.35210808"><ele>1.4</ele><time>2022-11-14T17:15:37.0000000+00:00</time></trkpt><trkpt lat="39.48127197" lon="-0.35211948"><ele>1.4</ele><time>2022-11-14T17:15:38.0000000+00:00</time></trkpt><trkpt lat="39.48128337" lon="-0.35212903"><ele>1.4</ele><time>2022-11-14T17:15:39.0000000+00:00</time></trkpt><trkpt lat="39.48129192" lon="-0.35213314"><ele>1.4</ele><time>2022-11-14T17:15:40.0000000+00:00</time></trkpt><trkpt lat="39.48130206" lon="-0.35213473"><ele>1.4</ele><time>2022-11-14T17:15:41.0000000+00:00</time></trkpt><trkpt lat="39.48130759" lon="-0.3521349"><ele>1.4</ele><time>2022-11-14T17:15:42.0000000+00:00</time></trkpt><trkpt lat="39.48130759" lon="-0.3521349"><ele>1.4</ele><time>2022-11-14T17:15:43.0000000+00:00</time></trkpt><trkpt lat="39.48130759" lon="-0.3521349"><ele>1.4</ele><time>2022-11-14T17:15:44.0000000+00:00</time></trkpt><trkpt lat="39.48130759" lon="-0.3521349"><ele>1.4</ele><time>2022-11-14T17:15:45.0000000+00:00</time></trkpt><trkpt lat="39.48130759" lon="-0.3521349"><ele>1.2</ele><time>2022-11-14T17:15:46.0000000+00:00</time></trkpt><trkpt lat="39.48130759" lon="-0.3521349"><ele>1.2</ele><time>2022-11-14T17:15:47.0000000+00:00</time></trkpt><trkpt lat="39.48130759" lon="-0.3521349"><ele>1.2</ele><time>2022-11-14T17:15:48.0000000+00:00</time></trkpt><trkpt lat="39.48130759" lon="-0.3521349"><ele>1.2</ele><time>2022-11-14T17:15:49.0000000+00:00</time></trkpt><trkpt lat="39.48130759" lon="-0.3521349"><ele>1.2</ele><time>2022-11-14T17:15:50.0000000+00:00</time></trkpt><trkpt lat="39.48130759" lon="-0.3521349"><ele>1.2</ele><time>2022-11-14T17:15:51.0000000+00:00</time></trkpt><trkpt lat="39.48130759" lon="-0.3521349"><ele>1.2</ele><time>2022-11-14T17:15:52.0000000+00:00</time></trkpt><trkpt lat="39.48130759" lon="-0.3521349"><ele>1.2</ele><time>2022-11-14T17:15:53.0000000+00:00</time></trkpt><trkpt lat="39.48130759" lon="-0.3521349"><ele>1.2</ele><time>2022-11-14T17:15:54.0000000+00:00</time></trkpt><trkpt lat="39.48130759" lon="-0.3521349"><ele>1.2</ele><time>2022-11-14T17:15:55.0000000+00:00</time></trkpt><trkpt lat="39.48130759" lon="-0.3521349"><ele>1.2</ele><time>2022-11-14T17:15:56.0000000+00:00</time></trkpt><trkpt lat="39.48130759" lon="-0.3521349"><ele>1.2</ele><time>2022-11-14T17:15:57.0000000+00:00</time></trkpt><trkpt lat="39.48130759" lon="-0.3521349"><ele>1.2</ele><time>2022-11-14T17:15:58.0000000+00:00</time></trkpt><trkpt lat="39.48130759" lon="-0.3521349"><ele>1.2</ele><time>2022-11-14T17:15:59.0000000+00:00</time></trkpt><trkpt lat="39.48130759" lon="-0.3521349"><ele>1.2</ele><time>2022-11-14T17:16:00.0000000+00:00</time></trkpt><trkpt lat="39.48130759" lon="-0.3521349"><ele>1.2</ele><time>2022-11-14T17:16:01.0000000+00:00</time></trkpt><trkpt lat="39.48130759" lon="-0.3521349"><ele>1.2</ele><time>2022-11-14T17:16:02.0000000+00:00</time></trkpt><trkpt lat="39.48131145" lon="-0.35213742"><ele>1.2</ele><time>2022-11-14T17:16:03.0000000+00:00</time></trkpt><trkpt lat="39.48131908" lon="-0.35214915"><ele>1.2</ele><time>2022-11-14T17:16:04.0000000+00:00</time></trkpt><trkpt lat="39.48133609" lon="-0.35216759"><ele>1.2</ele><time>2022-11-14T17:16:05.0000000+00:00</time></trkpt><trkpt lat="39.48136224" lon="-0.35218972"><ele>1.2</ele><time>2022-11-14T17:16:06.0000000+00:00</time></trkpt><trkpt lat="39.48138982" lon="-0.35221168"><ele>1.2</ele><time>2022-11-14T17:16:07.0000000+00:00</time></trkpt><trkpt lat="39.4814174" lon="-0.35223573"><ele>1.2</ele><time>2022-11-14T17:16:08.0000000+00:00</time></trkpt><trkpt lat="39.48144673" lon="-0.3522618"><ele>1.2</ele><time>2022-11-14T17:16:09.0000000+00:00</time></trkpt><trkpt lat="39.48147741" lon="-0.3522877"><ele>1.2</ele><time>2022-11-14T17:16:10.0000000+00:00</time></trkpt><trkpt lat="39.48151312" lon="-0.35231025"><ele>1.4</ele><time>2022-11-14T17:16:11.0000000+00:00</time></trkpt><trkpt lat="39.48154765" lon="-0.35232936"><ele>1.4</ele><time>2022-11-14T17:16:12.0000000+00:00</time></trkpt><trkpt lat="39.48157967" lon="-0.35235325"><ele>1.6</ele><time>2022-11-14T17:16:13.0000000+00:00</time></trkpt><trkpt lat="39.48161211" lon="-0.35238435"><ele>1.6</ele><time>2022-11-14T17:16:14.0000000+00:00</time></trkpt><trkpt lat="39.48164136" lon="-0.35242986"><ele>1.6</ele><time>2022-11-14T17:16:15.0000000+00:00</time></trkpt><trkpt lat="39.4816645" lon="-0.35248661"><ele>1.6</ele><time>2022-11-14T17:16:16.0000000+00:00</time></trkpt><trkpt lat="39.48168126" lon="-0.35254788"><ele>1.6</ele><time>2022-11-14T17:16:17.0000000+00:00</time></trkpt><trkpt lat="39.48168763" lon="-0.35261183"><ele>1.6</ele><time>2022-11-14T17:16:18.0000000+00:00</time></trkpt><trkpt lat="39.48169978" lon="-0.3526814"><ele>1.6</ele><time>2022-11-14T17:16:19.0000000+00:00</time></trkpt><trkpt lat="39.4817147" lon="-0.35275424"><ele>1.6</ele><time>2022-11-14T17:16:20.0000000+00:00</time></trkpt><trkpt lat="39.48173583" lon="-0.35282448"><ele>1.6</ele><time>2022-11-14T17:16:21.0000000+00:00</time></trkpt><trkpt lat="39.48176039" lon="-0.35289246"><ele>1.6</ele><time>2022-11-14T17:16:22.0000000+00:00</time></trkpt><trkpt lat="39.4817779" lon="-0.35296261"><ele>1.6</ele><time>2022-11-14T17:16:23.0000000+00:00</time></trkpt><trkpt lat="39.48179165" lon="-0.35303436"><ele>1.6</ele><time>2022-11-14T17:16:24.0000000+00:00</time></trkpt><trkpt lat="39.48180732" lon="-0.3531072"><ele>1.6</ele><time>2022-11-14T17:16:25.0000000+00:00</time></trkpt><trkpt lat="39.48183213" lon="-0.35317417"><ele>1.8</ele><time>2022-11-14T17:16:26.0000000+00:00</time></trkpt><trkpt lat="39.48184907" lon="-0.35324835"><ele>1.6</ele><time>2022-11-14T17:16:27.0000000+00:00</time></trkpt><trkpt lat="39.48188318" lon="-0.35332161"><ele>1.6</ele><time>2022-11-14T17:16:28.0000000+00:00</time></trkpt><trkpt lat="39.4819209" lon="-0.35338766"><ele>1.6</ele><time>2022-11-14T17:16:29.0000000+00:00</time></trkpt><trkpt lat="39.48197287" lon="-0.35344658"><ele>1.6</ele><time>2022-11-14T17:16:30.0000000+00:00</time></trkpt><trkpt lat="39.48200178" lon="-0.35349746"><ele>1.4</ele><time>2022-11-14T17:16:31.0000000+00:00</time></trkpt><trkpt lat="39.4820198" lon="-0.35354574"><ele>1.4</ele><time>2022-11-14T17:16:32.0000000+00:00</time></trkpt><trkpt lat="39.48203573" lon="-0.35359235"><ele>1.4</ele><time>2022-11-14T17:16:33.0000000+00:00</time></trkpt><trkpt lat="39.48205182" lon="-0.35364021"><ele>1.4</ele><time>2022-11-14T17:16:34.0000000+00:00</time></trkpt><trkpt lat="39.48206834" lon="-0.35368991"><ele>1.4</ele><time>2022-11-14T17:16:35.0000000+00:00</time></trkpt><trkpt lat="39.48210647" lon="-0.35374096"><ele>1.4</ele><time>2022-11-14T17:16:36.0000000+00:00</time></trkpt><trkpt lat="39.48214478" lon="-0.35380944"><ele>1.2</ele><time>2022-11-14T17:16:37.0000000+00:00</time></trkpt><trkpt lat="39.4821597" lon="-0.35388529"><ele>1.2</ele><time>2022-11-14T17:16:38.0000000+00:00</time></trkpt><trkpt lat="39.48216808" lon="-0.35397247"><ele>1.2</ele><time>2022-11-14T17:16:39.0000000+00:00</time></trkpt><trkpt lat="39.48219172" lon="-0.35405645"><ele>1.2</ele><time>2022-11-14T17:16:40.0000000+00:00</time></trkpt><trkpt lat="39.48220957" lon="-0.35413901"><ele>1.2</ele><time>2022-11-14T17:16:41.0000000+00:00</time></trkpt><trkpt lat="39.48220739" lon="-0.35421118"><ele>1.2</ele><time>2022-11-14T17:16:42.0000000+00:00</time></trkpt><trkpt lat="39.48221603" lon="-0.35425619"><ele>1.0</ele><time>2022-11-14T17:16:43.0000000+00:00</time></trkpt><trkpt lat="39.48222751" lon="-0.35429349"><ele>1.0</ele><time>2022-11-14T17:16:44.0000000+00:00</time></trkpt><trkpt lat="39.48223799" lon="-0.35433683"><ele>0.8</ele><time>2022-11-14T17:16:45.0000000+00:00</time></trkpt><trkpt lat="39.48225131" lon="-0.35437949"><ele>0.8</ele><time>2022-11-14T17:16:46.0000000+00:00</time></trkpt><trkpt lat="39.48226489" lon="-0.35442383"><ele>0.8</ele><time>2022-11-14T17:16:47.0000000+00:00</time></trkpt><trkpt lat="39.48227922" lon="-0.35445979"><ele>0.8</ele><time>2022-11-14T17:16:48.0000000+00:00</time></trkpt><trkpt lat="39.4822944" lon="-0.35449022"><ele>1.0</ele><time>2022-11-14T17:16:49.0000000+00:00</time></trkpt><trkpt lat="39.48231233" lon="-0.35451067"><ele>1.0</ele><time>2022-11-14T17:16:50.0000000+00:00</time></trkpt><trkpt lat="39.48233371" lon="-0.35451863"><ele>1.0</ele><time>2022-11-14T17:16:51.0000000+00:00</time></trkpt><trkpt lat="39.48236003" lon="-0.35450924"><ele>1.0</ele><time>2022-11-14T17:16:52.0000000+00:00</time></trkpt><trkpt lat="39.48239297" lon="-0.35450799"><ele>1.0</ele><time>2022-11-14T17:16:53.0000000+00:00</time></trkpt><trkpt lat="39.4824218" lon="-0.35452626"><ele>1.0</ele><time>2022-11-14T17:16:54.0000000+00:00</time></trkpt><trkpt lat="39.48244628" lon="-0.35456783"><ele>1.0</ele><time>2022-11-14T17:16:55.0000000+00:00</time></trkpt><trkpt lat="39.48246564" lon="-0.35462617"><ele>1.0</ele><time>2022-11-14T17:16:56.0000000+00:00</time></trkpt><trkpt lat="39.48248291" lon="-0.35468778"><ele>1.0</ele><time>2022-11-14T17:16:57.0000000+00:00</time></trkpt><trkpt lat="39.4825" lon="-0.35474846"><ele>1.0</ele><time>2022-11-14T17:16:58.0000000+00:00</time></trkpt><trkpt lat="39.48251735" lon="-0.35480781"><ele>1.2</ele><time>2022-11-14T17:16:59.0000000+00:00</time></trkpt><trkpt lat="39.48253102" lon="-0.35485458"><ele>1.2</ele><time>2022-11-14T17:17:00.0000000+00:00</time></trkpt><trkpt lat="39.48254929" lon="-0.35491518"><ele>1.2</ele><time>2022-11-14T17:17:01.0000000+00:00</time></trkpt><trkpt lat="39.48257368" lon="-0.35498751"><ele>1.2</ele><time>2022-11-14T17:17:02.0000000+00:00</time></trkpt><trkpt lat="39.4825917" lon="-0.35504887"><ele>1.4</ele><time>2022-11-14T17:17:03.0000000+00:00</time></trkpt><trkpt lat="39.48260964" lon="-0.35511165"><ele>1.4</ele><time>2022-11-14T17:17:04.0000000+00:00</time></trkpt><trkpt lat="39.48262615" lon="-0.35518264"><ele>1.4</ele><time>2022-11-14T17:17:05.0000000+00:00</time></trkpt><trkpt lat="39.48264468" lon="-0.35525615"><ele>1.4</ele><time>2022-11-14T17:17:06.0000000+00:00</time></trkpt><trkpt lat="39.48266504" lon="-0.35532933"><ele>1.4</ele><time>2022-11-14T17:17:07.0000000+00:00</time></trkpt><trkpt lat="39.48268089" lon="-0.35539999"><ele>1.4</ele><time>2022-11-14T17:17:08.0000000+00:00</time></trkpt><trkpt lat="39.4826984" lon="-0.35547526"><ele>1.4</ele><time>2022-11-14T17:17:09.0000000+00:00</time></trkpt><trkpt lat="39.48271802" lon="-0.3555543"><ele>1.4</ele><time>2022-11-14T17:17:10.0000000+00:00</time></trkpt><trkpt lat="39.48273989" lon="-0.35563057"><ele>1.4</ele><time>2022-11-14T17:17:11.0000000+00:00</time></trkpt><trkpt lat="39.48276521" lon="-0.35569914"><ele>1.4</ele><time>2022-11-14T17:17:12.0000000+00:00</time></trkpt><trkpt lat="39.48279195" lon="-0.35576234"><ele>1.4</ele><time>2022-11-14T17:17:13.0000000+00:00</time></trkpt><trkpt lat="39.48283117" lon="-0.35581472"><ele>1.4</ele><time>2022-11-14T17:17:14.0000000+00:00</time></trkpt><trkpt lat="39.48286193" lon="-0.35587139"><ele>1.4</ele><time>2022-11-14T17:17:15.0000000+00:00</time></trkpt><trkpt lat="39.48287962" lon="-0.3559402"><ele>1.4</ele><time>2022-11-14T17:17:16.0000000+00:00</time></trkpt><trkpt lat="39.48289965" lon="-0.35601178"><ele>1.4</ele><time>2022-11-14T17:17:17.0000000+00:00</time></trkpt><trkpt lat="39.48291935" lon="-0.35608663"><ele>1.6</ele><time>2022-11-14T17:17:18.0000000+00:00</time></trkpt><trkpt lat="39.48293687" lon="-0.35614941"><ele>1.6</ele><time>2022-11-14T17:17:19.0000000+00:00</time></trkpt><trkpt lat="39.48295078" lon="-0.35620188"><ele>1.4</ele><time>2022-11-14T17:17:20.0000000+00:00</time></trkpt><trkpt lat="39.48295975" lon="-0.35625184"><ele>1.4</ele><time>2022-11-14T17:17:21.0000000+00:00</time></trkpt><trkpt lat="39.48294718" lon="-0.35630347"><ele>1.4</ele><time>2022-11-14T17:17:22.0000000+00:00</time></trkpt><trkpt lat="39.48290066" lon="-0.35633951"><ele>1.4</ele><time>2022-11-14T17:17:23.0000000+00:00</time></trkpt><trkpt lat="39.48284718" lon="-0.35636785"><ele>1.4</ele><time>2022-11-14T17:17:24.0000000+00:00</time></trkpt><trkpt lat="39.48278801" lon="-0.35639416"><ele>1.4</ele><time>2022-11-14T17:17:25.0000000+00:00</time></trkpt><trkpt lat="39.48273059" lon="-0.35641587"><ele>1.4</ele><time>2022-11-14T17:17:26.0000000+00:00</time></trkpt><trkpt lat="39.48266764" lon="-0.35642836"><ele>1.6</ele><time>2022-11-14T17:17:27.0000000+00:00</time></trkpt><trkpt lat="39.48260578" lon="-0.35644739"><ele>1.6</ele><time>2022-11-14T17:17:28.0000000+00:00</time></trkpt><trkpt lat="39.48254761" lon="-0.35645158"><ele>1.6</ele><time>2022-11-14T17:17:29.0000000+00:00</time></trkpt><trkpt lat="39.48249196" lon="-0.35646508"><ele>1.8</ele><time>2022-11-14T17:17:30.0000000+00:00</time></trkpt><trkpt lat="39.48250109" lon="-0.35649885"><ele>1.8</ele><time>2022-11-14T17:17:31.0000000+00:00</time></trkpt><trkpt lat="39.48247779" lon="-0.35654906"><ele>1.8</ele><time>2022-11-14T17:17:32.0000000+00:00</time></trkpt><trkpt lat="39.48246866" lon="-0.35660363"><ele>1.8</ele><time>2022-11-14T17:17:33.0000000+00:00</time></trkpt><trkpt lat="39.48249699" lon="-0.35666817"><ele>1.8</ele><time>2022-11-14T17:17:34.0000000+00:00</time></trkpt><trkpt lat="39.48269924" lon="-0.35682298"><ele>1.8</ele><time>2022-11-14T17:17:35.0000000+00:00</time></trkpt><trkpt lat="39.48275171" lon="-0.35694569"><ele>2.0</ele><time>2022-11-14T17:17:36.0000000+00:00</time></trkpt><trkpt lat="39.48279597" lon="-0.3570192"><ele>1.8</ele><time>2022-11-14T17:17:37.0000000+00:00</time></trkpt><trkpt lat="39.48284173" lon="-0.35710143"><ele>1.8</ele><time>2022-11-14T17:17:38.0000000+00:00</time></trkpt><trkpt lat="39.48287417" lon="-0.35718533"><ele>1.8</ele><time>2022-11-14T17:17:39.0000000+00:00</time></trkpt><trkpt lat="39.48289982" lon="-0.35726261"><ele>1.8</ele><time>2022-11-14T17:17:40.0000000+00:00</time></trkpt><trkpt lat="39.48292882" lon="-0.35733554"><ele>1.8</ele><time>2022-11-14T17:17:41.0000000+00:00</time></trkpt><trkpt lat="39.48295967" lon="-0.35740871"><ele>1.8</ele><time>2022-11-14T17:17:42.0000000+00:00</time></trkpt><trkpt lat="39.48298532" lon="-0.35747275"><ele>1.8</ele><time>2022-11-14T17:17:43.0000000+00:00</time></trkpt><trkpt lat="39.48299646" lon="-0.35753025"><ele>1.8</ele><time>2022-11-14T17:17:44.0000000+00:00</time></trkpt><trkpt lat="39.48300342" lon="-0.35757182"><ele>1.8</ele><time>2022-11-14T17:17:45.0000000+00:00</time></trkpt><trkpt lat="39.48300719" lon="-0.35760149"><ele>1.8</ele><time>2022-11-14T17:17:46.0000000+00:00</time></trkpt><trkpt lat="39.48301951" lon="-0.35761356"><ele>1.6</ele><time>2022-11-14T17:17:47.0000000+00:00</time></trkpt><trkpt lat="39.48303569" lon="-0.35761423"><ele>1.6</ele><time>2022-11-14T17:17:48.0000000+00:00</time></trkpt><trkpt lat="39.48303888" lon="-0.35761105"><ele>1.6</ele><time>2022-11-14T17:17:49.0000000+00:00</time></trkpt><trkpt lat="39.48303888" lon="-0.35761105"><ele>1.6</ele><time>2022-11-14T17:17:50.0000000+00:00</time></trkpt><trkpt lat="39.4830429" lon="-0.35761826"><ele>1.6</ele><time>2022-11-14T17:17:51.0000000+00:00</time></trkpt><trkpt lat="39.48304106" lon="-0.35762044"><ele>1.6</ele><time>2022-11-14T17:17:52.0000000+00:00</time></trkpt><trkpt lat="39.48304106" lon="-0.35762044"><ele>1.6</ele><time>2022-11-14T17:17:53.0000000+00:00</time></trkpt><trkpt lat="39.48304106" lon="-0.35762044"><ele>1.6</ele><time>2022-11-14T17:17:54.0000000+00:00</time></trkpt><trkpt lat="39.48304106" lon="-0.35762044"><ele>1.6</ele><time>2022-11-14T17:17:55.0000000+00:00</time></trkpt><trkpt lat="39.48304106" lon="-0.35762044"><ele>1.6</ele><time>2022-11-14T17:17:56.0000000+00:00</time></trkpt><trkpt lat="39.48304533" lon="-0.35762982"><ele>1.6</ele><time>2022-11-14T17:17:57.0000000+00:00</time></trkpt><trkpt lat="39.48304365" lon="-0.35762966"><ele>1.6</ele><time>2022-11-14T17:17:58.0000000+00:00</time></trkpt><trkpt lat="39.48304365" lon="-0.35762966"><ele>1.6</ele><time>2022-11-14T17:17:59.0000000+00:00</time></trkpt><trkpt lat="39.48304365" lon="-0.35762966"><ele>1.6</ele><time>2022-11-14T17:18:00.0000000+00:00</time></trkpt><trkpt lat="39.48304365" lon="-0.35762974"><ele>1.6</ele><time>2022-11-14T17:18:01.0000000+00:00</time></trkpt><trkpt lat="39.48304365" lon="-0.35762974"><ele>1.6</ele><time>2022-11-14T17:18:02.0000000+00:00</time></trkpt><trkpt lat="39.48304365" lon="-0.35762974"><ele>1.6</ele><time>2022-11-14T17:18:03.0000000+00:00</time></trkpt><trkpt lat="39.48304365" lon="-0.35762974"><ele>1.6</ele><time>2022-11-14T17:18:04.0000000+00:00</time></trkpt><trkpt lat="39.48304365" lon="-0.35762974"><ele>1.6</ele><time>2022-11-14T17:18:05.0000000+00:00</time></trkpt><trkpt lat="39.48305338" lon="-0.35763829"><ele>1.6</ele><time>2022-11-14T17:18:06.0000000+00:00</time></trkpt><trkpt lat="39.48305665" lon="-0.35763846"><ele>1.6</ele><time>2022-11-14T17:18:07.0000000+00:00</time></trkpt><trkpt lat="39.48305665" lon="-0.35763846"><ele>1.6</ele><time>2022-11-14T17:18:08.0000000+00:00</time></trkpt><trkpt lat="39.48305665" lon="-0.35763846"><ele>1.6</ele><time>2022-11-14T17:18:09.0000000+00:00</time></trkpt><trkpt lat="39.48306151" lon="-0.35765237"><ele>1.6</ele><time>2022-11-14T17:18:10.0000000+00:00</time></trkpt><trkpt lat="39.48306394" lon="-0.35765061"><ele>1.6</ele><time>2022-11-14T17:18:11.0000000+00:00</time></trkpt><trkpt lat="39.4830797" lon="-0.35766235"><ele>1.6</ele><time>2022-11-14T17:18:12.0000000+00:00</time></trkpt><trkpt lat="39.48308389" lon="-0.35768548"><ele>1.6</ele><time>2022-11-14T17:18:13.0000000+00:00</time></trkpt><trkpt lat="39.48310342" lon="-0.35770912"><ele>1.6</ele><time>2022-11-14T17:18:14.0000000+00:00</time></trkpt><trkpt lat="39.48312144" lon="-0.35772496"><ele>1.4</ele><time>2022-11-14T17:18:15.0000000+00:00</time></trkpt><trkpt lat="39.48314072" lon="-0.35772555"><ele>1.2</ele><time>2022-11-14T17:18:16.0000000+00:00</time></trkpt><trkpt lat="39.48314642" lon="-0.35772362"><ele>1.2</ele><time>2022-11-14T17:18:17.0000000+00:00</time></trkpt><trkpt lat="39.48315849" lon="-0.35772664"><ele>1.2</ele><time>2022-11-14T17:18:18.0000000+00:00</time></trkpt><trkpt lat="39.48318237" lon="-0.35773778"><ele>1.2</ele><time>2022-11-14T17:18:19.0000000+00:00</time></trkpt><trkpt lat="39.48319788" lon="-0.35775865"><ele>1.2</ele><time>2022-11-14T17:18:20.0000000+00:00</time></trkpt><trkpt lat="39.48321708" lon="-0.35780174"><ele>1.2</ele><time>2022-11-14T17:18:21.0000000+00:00</time></trkpt><trkpt lat="39.48324239" lon="-0.35783594"><ele>1.2</ele><time>2022-11-14T17:18:22.0000000+00:00</time></trkpt><trkpt lat="39.48326879" lon="-0.35788061"><ele>1.2</ele><time>2022-11-14T17:18:23.0000000+00:00</time></trkpt><trkpt lat="39.48329913" lon="-0.35793174"><ele>1.2</ele><time>2022-11-14T17:18:24.0000000+00:00</time></trkpt><trkpt lat="39.48332554" lon="-0.35798287"><ele>1.4</ele><time>2022-11-14T17:18:25.0000000+00:00</time></trkpt><trkpt lat="39.48333677" lon="-0.35803618"><ele>1.4</ele><time>2022-11-14T17:18:26.0000000+00:00</time></trkpt><trkpt lat="39.48335261" lon="-0.35809603"><ele>1.4</ele><time>2022-11-14T17:18:27.0000000+00:00</time></trkpt><trkpt lat="39.48335538" lon="-0.35814665"><ele>1.6</ele><time>2022-11-14T17:18:28.0000000+00:00</time></trkpt><trkpt lat="39.48337357" lon="-0.3581956"><ele>1.6</ele><time>2022-11-14T17:18:29.0000000+00:00</time></trkpt><trkpt lat="39.48340751" lon="-0.358249"><ele>1.6</ele><time>2022-11-14T17:18:30.0000000+00:00</time></trkpt><trkpt lat="39.48343333" lon="-0.35832041"><ele>1.6</ele><time>2022-11-14T17:18:31.0000000+00:00</time></trkpt><trkpt lat="39.4834604" lon="-0.35838512"><ele>1.6</ele><time>2022-11-14T17:18:32.0000000+00:00</time></trkpt><trkpt lat="39.4834651" lon="-0.35844035"><ele>1.6</ele><time>2022-11-14T17:18:33.0000000+00:00</time></trkpt><trkpt lat="39.48347583" lon="-0.35848897"><ele>1.6</ele><time>2022-11-14T17:18:34.0000000+00:00</time></trkpt><trkpt lat="39.4834998" lon="-0.35854882"><ele>1.6</ele><time>2022-11-14T17:18:35.0000000+00:00</time></trkpt><trkpt lat="39.48352679" lon="-0.35861562"><ele>1.6</ele><time>2022-11-14T17:18:36.0000000+00:00</time></trkpt><trkpt lat="39.48364338" lon="-0.35873464"><ele>1.8</ele><time>2022-11-14T17:18:37.0000000+00:00</time></trkpt><trkpt lat="39.48366769" lon="-0.35881352"><ele>1.8</ele><time>2022-11-14T17:18:38.0000000+00:00</time></trkpt><trkpt lat="39.48369434" lon="-0.35891242"><ele>1.8</ele><time>2022-11-14T17:18:39.0000000+00:00</time></trkpt><trkpt lat="39.48374664" lon="-0.35900429"><ele>1.8</ele><time>2022-11-14T17:18:40.0000000+00:00</time></trkpt><trkpt lat="39.48378352" lon="-0.35908811"><ele>2.0</ele><time>2022-11-14T17:18:41.0000000+00:00</time></trkpt><trkpt lat="39.48380766" lon="-0.35916262"><ele>2.0</ele><time>2022-11-14T17:18:42.0000000+00:00</time></trkpt><trkpt lat="39.48383574" lon="-0.35924125"><ele>2.0</ele><time>2022-11-14T17:18:43.0000000+00:00</time></trkpt><trkpt lat="39.48385452" lon="-0.35931719"><ele>2.0</ele><time>2022-11-14T17:18:44.0000000+00:00</time></trkpt><trkpt lat="39.48387506" lon="-0.35938139"><ele>2.0</ele><time>2022-11-14T17:18:45.0000000+00:00</time></trkpt><trkpt lat="39.48389492" lon="-0.35943462"><ele>2.0</ele><time>2022-11-14T17:18:46.0000000+00:00</time></trkpt><trkpt lat="39.4839116" lon="-0.35947468"><ele>1.8</ele><time>2022-11-14T17:18:47.0000000+00:00</time></trkpt><trkpt lat="39.48392124" lon="-0.35950343"><ele>1.8</ele><time>2022-11-14T17:18:48.0000000+00:00</time></trkpt><trkpt lat="39.48392585" lon="-0.35952875"><ele>1.8</ele><time>2022-11-14T17:18:49.0000000+00:00</time></trkpt><trkpt lat="39.48393004" lon="-0.35955557"><ele>1.8</ele><time>2022-11-14T17:18:50.0000000+00:00</time></trkpt><trkpt lat="39.4839313" lon="-0.35957476"><ele>1.6</ele><time>2022-11-14T17:18:51.0000000+00:00</time></trkpt><trkpt lat="39.48392786" lon="-0.35960209"><ele>1.6</ele><time>2022-11-14T17:18:52.0000000+00:00</time></trkpt><trkpt lat="39.48391839" lon="-0.35962388"><ele>1.8</ele><time>2022-11-14T17:18:53.0000000+00:00</time></trkpt><trkpt lat="39.48390221" lon="-0.35964576"><ele>1.8</ele><time>2022-11-14T17:18:54.0000000+00:00</time></trkpt><trkpt lat="39.48391554" lon="-0.35968021"><ele>1.8</ele><time>2022-11-14T17:18:55.0000000+00:00</time></trkpt><trkpt lat="39.48394915" lon="-0.35973041"><ele>2.0</ele><time>2022-11-14T17:18:56.0000000+00:00</time></trkpt><trkpt lat="39.48397036" lon="-0.35978464"><ele>2.0</ele><time>2022-11-14T17:18:57.0000000+00:00</time></trkpt><trkpt lat="39.48399525" lon="-0.35984675"><ele>2.0</ele><time>2022-11-14T17:18:58.0000000+00:00</time></trkpt><trkpt lat="39.48404336" lon="-0.35991322"><ele>2.0</ele><time>2022-11-14T17:18:59.0000000+00:00</time></trkpt><trkpt lat="39.48407446" lon="-0.35998623"><ele>2.0</ele><time>2022-11-14T17:19:00.0000000+00:00</time></trkpt><trkpt lat="39.4840991" lon="-0.36005605"><ele>2.2</ele><time>2022-11-14T17:19:01.0000000+00:00</time></trkpt><trkpt lat="39.48411553" lon="-0.36013333"><ele>2.2</ele><time>2022-11-14T17:19:02.0000000+00:00</time></trkpt><trkpt lat="39.48413221" lon="-0.36020441"><ele>2.2</ele><time>2022-11-14T17:19:03.0000000+00:00</time></trkpt><trkpt lat="39.48414688" lon="-0.36027859"><ele>2.2</ele><time>2022-11-14T17:19:04.0000000+00:00</time></trkpt><trkpt lat="39.4841452" lon="-0.36033659"><ele>2.2</ele><time>2022-11-14T17:19:05.0000000+00:00</time></trkpt><trkpt lat="39.48414881" lon="-0.36038697"><ele>2.2</ele><time>2022-11-14T17:19:06.0000000+00:00</time></trkpt><trkpt lat="39.4841654" lon="-0.36044573"><ele>2.4</ele><time>2022-11-14T17:19:07.0000000+00:00</time></trkpt><trkpt lat="39.48419063" lon="-0.36051546"><ele>2.4</ele><time>2022-11-14T17:19:08.0000000+00:00</time></trkpt><trkpt lat="39.4842136" lon="-0.36058637"><ele>2.4</ele><time>2022-11-14T17:19:09.0000000+00:00</time></trkpt><trkpt lat="39.48425752" lon="-0.36067422"><ele>2.6</ele><time>2022-11-14T17:19:10.0000000+00:00</time></trkpt><trkpt lat="39.48427797" lon="-0.36074219"><ele>2.6</ele><time>2022-11-14T17:19:11.0000000+00:00</time></trkpt><trkpt lat="39.48429792" lon="-0.36081051"><ele>2.6</ele><time>2022-11-14T17:19:12.0000000+00:00</time></trkpt><trkpt lat="39.48431008" lon="-0.36087605"><ele>2.6</ele><time>2022-11-14T17:19:13.0000000+00:00</time></trkpt><trkpt lat="39.48431167" lon="-0.36092483"><ele>2.6</ele><time>2022-11-14T17:19:14.0000000+00:00</time></trkpt><trkpt lat="39.48430857" lon="-0.36096155"><ele>2.6</ele><time>2022-11-14T17:19:15.0000000+00:00</time></trkpt><trkpt lat="39.48431628" lon="-0.36100195"><ele>2.6</ele><time>2022-11-14T17:19:16.0000000+00:00</time></trkpt><trkpt lat="39.48433246" lon="-0.36104319"><ele>2.6</ele><time>2022-11-14T17:19:17.0000000+00:00</time></trkpt><trkpt lat="39.48435492" lon="-0.36108594"><ele>2.6</ele><time>2022-11-14T17:19:18.0000000+00:00</time></trkpt><trkpt lat="39.48437629" lon="-0.36113019"><ele>2.6</ele><time>2022-11-14T17:19:19.0000000+00:00</time></trkpt><trkpt lat="39.48439959" lon="-0.36118006"><ele>2.6</ele><time>2022-11-14T17:19:20.0000000+00:00</time></trkpt><trkpt lat="39.48442223" lon="-0.36122658"><ele>2.6</ele><time>2022-11-14T17:19:21.0000000+00:00</time></trkpt><trkpt lat="39.48443698" lon="-0.36127361"><ele>2.4</ele><time>2022-11-14T17:19:22.0000000+00:00</time></trkpt><trkpt lat="39.48444779" lon="-0.36132239"><ele>2.6</ele><time>2022-11-14T17:19:23.0000000+00:00</time></trkpt><trkpt lat="39.48446154" lon="-0.3613736"><ele>2.6</ele><time>2022-11-14T17:19:24.0000000+00:00</time></trkpt><trkpt lat="39.48448056" lon="-0.36142968"><ele>2.6</ele><time>2022-11-14T17:19:25.0000000+00:00</time></trkpt><trkpt lat="39.48450705" lon="-0.36149547"><ele>2.6</ele><time>2022-11-14T17:19:26.0000000+00:00</time></trkpt><trkpt lat="39.48453387" lon="-0.36155348"><ele>2.6</ele><time>2022-11-14T17:19:27.0000000+00:00</time></trkpt><trkpt lat="39.48456103" lon="-0.36160997"><ele>2.8</ele><time>2022-11-14T17:19:28.0000000+00:00</time></trkpt><trkpt lat="39.48457218" lon="-0.3616891"><ele>2.8</ele><time>2022-11-14T17:19:29.0000000+00:00</time></trkpt><trkpt lat="39.48458584" lon="-0.36174601"><ele>2.8</ele><time>2022-11-14T17:19:30.0000000+00:00</time></trkpt><trkpt lat="39.48461643" lon="-0.36180887"><ele>2.8</ele><time>2022-11-14T17:19:31.0000000+00:00</time></trkpt><trkpt lat="39.48463789" lon="-0.36186696"><ele>2.8</ele><time>2022-11-14T17:19:32.0000000+00:00</time></trkpt><trkpt lat="39.48465424" lon="-0.36193167"><ele>2.8</ele><time>2022-11-14T17:19:33.0000000+00:00</time></trkpt><trkpt lat="39.48468676" lon="-0.36198439"><ele>3.0</ele><time>2022-11-14T17:19:34.0000000+00:00</time></trkpt><trkpt lat="39.48470797" lon="-0.36204692"><ele>3.0</ele><time>2022-11-14T17:19:35.0000000+00:00</time></trkpt><trkpt lat="39.48473328" lon="-0.36210945"><ele>3.0</ele><time>2022-11-14T17:19:36.0000000+00:00</time></trkpt><trkpt lat="39.48476337" lon="-0.36216837"><ele>3.0</ele><time>2022-11-14T17:19:37.0000000+00:00</time></trkpt><trkpt lat="39.48487175" lon="-0.36222244"><ele>3.0</ele><time>2022-11-14T17:19:38.0000000+00:00</time></trkpt><trkpt lat="39.484901" lon="-0.36227005"><ele>3.0</ele><time>2022-11-14T17:19:39.0000000+00:00</time></trkpt><trkpt lat="39.48488834" lon="-0.36230492"><ele>3.2</ele><time>2022-11-14T17:19:40.0000000+00:00</time></trkpt><trkpt lat="39.48486672" lon="-0.36233953"><ele>3.2</ele><time>2022-11-14T17:19:41.0000000+00:00</time></trkpt><trkpt lat="39.48485683" lon="-0.36238404"><ele>3.2</ele><time>2022-11-14T17:19:42.0000000+00:00</time></trkpt><trkpt lat="39.48487653" lon="-0.36243852"><ele>3.2</ele><time>2022-11-14T17:19:43.0000000+00:00</time></trkpt><trkpt lat="39.48489086" lon="-0.36248513"><ele>3.2</ele><time>2022-11-14T17:19:44.0000000+00:00</time></trkpt><trkpt lat="39.48490871" lon="-0.36252829"><ele>3.2</ele><time>2022-11-14T17:19:45.0000000+00:00</time></trkpt><trkpt lat="39.48492958" lon="-0.36258688"><ele>3.2</ele><time>2022-11-14T17:19:46.0000000+00:00</time></trkpt><trkpt lat="39.48494417" lon="-0.36262929"><ele>3.2</ele><time>2022-11-14T17:19:47.0000000+00:00</time></trkpt><trkpt lat="39.48496361" lon="-0.36269233"><ele>3.2</ele><time>2022-11-14T17:19:48.0000000+00:00</time></trkpt><trkpt lat="39.48497174" lon="-0.36275301"><ele>3.2</ele><time>2022-11-14T17:19:49.0000000+00:00</time></trkpt><trkpt lat="39.48498365" lon="-0.36280632"><ele>3.2</ele><time>2022-11-14T17:19:50.0000000+00:00</time></trkpt><trkpt lat="39.48499848" lon="-0.36286047"><ele>3.2</ele><time>2022-11-14T17:19:51.0000000+00:00</time></trkpt><trkpt lat="39.48501189" lon="-0.36291872"><ele>3.2</ele><time>2022-11-14T17:19:52.0000000+00:00</time></trkpt><trkpt lat="39.48502572" lon="-0.36297455"><ele>3.4</ele><time>2022-11-14T17:19:53.0000000+00:00</time></trkpt><trkpt lat="39.48503293" lon="-0.36302861"><ele>3.4</ele><time>2022-11-14T17:19:54.0000000+00:00</time></trkpt><trkpt lat="39.48504039" lon="-0.36308695"><ele>3.4</ele><time>2022-11-14T17:19:55.0000000+00:00</time></trkpt><trkpt lat="39.48504726" lon="-0.36314093"><ele>3.4</ele><time>2022-11-14T17:19:56.0000000+00:00</time></trkpt><trkpt lat="39.48505539" lon="-0.36318963"><ele>3.4</ele><time>2022-11-14T17:19:57.0000000+00:00</time></trkpt><trkpt lat="39.48506059" lon="-0.3632307"><ele>3.4</ele><time>2022-11-14T17:19:58.0000000+00:00</time></trkpt><trkpt lat="39.48506847" lon="-0.36326934"><ele>3.4</ele><time>2022-11-14T17:19:59.0000000+00:00</time></trkpt><trkpt lat="39.48508976" lon="-0.36329784"><ele>3.4</ele><time>2022-11-14T17:20:00.0000000+00:00</time></trkpt><trkpt lat="39.48511985" lon="-0.36333212"><ele>3.4</ele><time>2022-11-14T17:20:01.0000000+00:00</time></trkpt><trkpt lat="39.48516972" lon="-0.3633586"><ele>3.4</ele><time>2022-11-14T17:20:02.0000000+00:00</time></trkpt><trkpt lat="39.48518322" lon="-0.36339104"><ele>3.2</ele><time>2022-11-14T17:20:03.0000000+00:00</time></trkpt><trkpt lat="39.48519311" lon="-0.36342725"><ele>3.2</ele><time>2022-11-14T17:20:04.0000000+00:00</time></trkpt><trkpt lat="39.48519328" lon="-0.36343312"><ele>3.4</ele><time>2022-11-14T17:20:05.0000000+00:00</time></trkpt><trkpt lat="39.48519328" lon="-0.36343312"><ele>3.4</ele><time>2022-11-14T17:20:06.0000000+00:00</time></trkpt><trkpt lat="39.48519328" lon="-0.36343312"><ele>3.4</ele><time>2022-11-14T17:20:07.0000000+00:00</time></trkpt><trkpt lat="39.48519328" lon="-0.36343312"><ele>3.4</ele><time>2022-11-14T17:20:08.0000000+00:00</time></trkpt><trkpt lat="39.48519328" lon="-0.36343312"><ele>3.4</ele><time>2022-11-14T17:20:09.0000000+00:00</time></trkpt><trkpt lat="39.48519328" lon="-0.36343312"><ele>3.4</ele><time>2022-11-14T17:20:10.0000000+00:00</time></trkpt><trkpt lat="39.48519328" lon="-0.36343312"><ele>3.4</ele><time>2022-11-14T17:20:11.0000000+00:00</time></trkpt><trkpt lat="39.48519328" lon="-0.36343312"><ele>3.4</ele><time>2022-11-14T17:20:12.0000000+00:00</time></trkpt><trkpt lat="39.48519328" lon="-0.36343312"><ele>3.4</ele><time>2022-11-14T17:20:13.0000000+00:00</time></trkpt><trkpt lat="39.48519328" lon="-0.36343312"><ele>3.4</ele><time>2022-11-14T17:20:14.0000000+00:00</time></trkpt><trkpt lat="39.48519328" lon="-0.36343312"><ele>3.4</ele><time>2022-11-14T17:20:15.0000000+00:00</time></trkpt><trkpt lat="39.48519328" lon="-0.36343312"><ele>3.4</ele><time>2022-11-14T17:20:16.0000000+00:00</time></trkpt><trkpt lat="39.48519328" lon="-0.36343312"><ele>3.4</ele><time>2022-11-14T17:20:17.0000000+00:00</time></trkpt><trkpt lat="39.48519328" lon="-0.36343312"><ele>3.4</ele><time>2022-11-14T17:20:18.0000000+00:00</time></trkpt><trkpt lat="39.48519328" lon="-0.36343312"><ele>3.4</ele><time>2022-11-14T17:20:19.0000000+00:00</time></trkpt><trkpt lat="39.48519328" lon="-0.36343312"><ele>3.4</ele><time>2022-11-14T17:20:20.0000000+00:00</time></trkpt><trkpt lat="39.48519328" lon="-0.36343312"><ele>3.4</ele><time>2022-11-14T17:20:21.0000000+00:00</time></trkpt><trkpt lat="39.48519328" lon="-0.36343312"><ele>3.4</ele><time>2022-11-14T17:20:22.0000000+00:00</time></trkpt><trkpt lat="39.48519328" lon="-0.36343312"><ele>3.4</ele><time>2022-11-14T17:20:23.0000000+00:00</time></trkpt><trkpt lat="39.48519328" lon="-0.36343312"><ele>3.4</ele><time>2022-11-14T17:20:24.0000000+00:00</time></trkpt><trkpt lat="39.48519328" lon="-0.36343312"><ele>3.4</ele><time>2022-11-14T17:20:25.0000000+00:00</time></trkpt><trkpt lat="39.48519328" lon="-0.36343312"><ele>3.4</ele><time>2022-11-14T17:20:26.0000000+00:00</time></trkpt><trkpt lat="39.48519328" lon="-0.36343312"><ele>3.4</ele><time>2022-11-14T17:20:27.0000000+00:00</time></trkpt><trkpt lat="39.48519328" lon="-0.36343312"><ele>3.4</ele><time>2022-11-14T17:20:28.0000000+00:00</time></trkpt><trkpt lat="39.48519328" lon="-0.36343312"><ele>3.4</ele><time>2022-11-14T17:20:29.0000000+00:00</time></trkpt><trkpt lat="39.48519328" lon="-0.36343312"><ele>3.4</ele><time>2022-11-14T17:20:30.0000000+00:00</time></trkpt><trkpt lat="39.48519328" lon="-0.36343312"><ele>3.4</ele><time>2022-11-14T17:20:31.0000000+00:00</time></trkpt><trkpt lat="39.48519328" lon="-0.36343312"><ele>3.4</ele><time>2022-11-14T17:20:32.0000000+00:00</time></trkpt><trkpt lat="39.48519328" lon="-0.36343312"><ele>3.4</ele><time>2022-11-14T17:20:33.0000000+00:00</time></trkpt><trkpt lat="39.48519328" lon="-0.36343312"><ele>3.4</ele><time>2022-11-14T17:20:34.0000000+00:00</time></trkpt><trkpt lat="39.48519328" lon="-0.36343312"><ele>3.4</ele><time>2022-11-14T17:20:35.0000000+00:00</time></trkpt><trkpt lat="39.48519328" lon="-0.36343312"><ele>3.4</ele><time>2022-11-14T17:20:36.0000000+00:00</time></trkpt><trkpt lat="39.48519328" lon="-0.36343312"><ele>3.4</ele><time>2022-11-14T17:20:37.0000000+00:00</time></trkpt><trkpt lat="39.48519328" lon="-0.36343312"><ele>3.4</ele><time>2022-11-14T17:20:38.0000000+00:00</time></trkpt><trkpt lat="39.48519328" lon="-0.36343312"><ele>3.4</ele><time>2022-11-14T17:20:39.0000000+00:00</time></trkpt><trkpt lat="39.48519328" lon="-0.36343312"><ele>3.4</ele><time>2022-11-14T17:20:40.0000000+00:00</time></trkpt><trkpt lat="39.48519328" lon="-0.36343312"><ele>3.4</ele><time>2022-11-14T17:20:41.0000000+00:00</time></trkpt><trkpt lat="39.48519328" lon="-0.36343312"><ele>3.4</ele><time>2022-11-14T17:20:42.0000000+00:00</time></trkpt><trkpt lat="39.48519328" lon="-0.36343312"><ele>3.4</ele><time>2022-11-14T17:20:43.0000000+00:00</time></trkpt><trkpt lat="39.48518925" lon="-0.36343186"><ele>3.4</ele><time>2022-11-14T17:20:44.0000000+00:00</time></trkpt><trkpt lat="39.48519185" lon="-0.3634306"><ele>3.4</ele><time>2022-11-14T17:20:45.0000000+00:00</time></trkpt><trkpt lat="39.48519185" lon="-0.3634306"><ele>3.4</ele><time>2022-11-14T17:20:46.0000000+00:00</time></trkpt><trkpt lat="39.48519185" lon="-0.3634306"><ele>3.4</ele><time>2022-11-14T17:20:47.0000000+00:00</time></trkpt><trkpt lat="39.48519185" lon="-0.3634306"><ele>3.4</ele><time>2022-11-14T17:20:48.0000000+00:00</time></trkpt><trkpt lat="39.48519185" lon="-0.3634306"><ele>3.4</ele><time>2022-11-14T17:20:49.0000000+00:00</time></trkpt><trkpt lat="39.48519051" lon="-0.36344251"><ele>3.4</ele><time>2022-11-14T17:20:50.0000000+00:00</time></trkpt><trkpt lat="39.48518825" lon="-0.36344469"><ele>3.4</ele><time>2022-11-14T17:20:51.0000000+00:00</time></trkpt><trkpt lat="39.48518825" lon="-0.36344469"><ele>3.4</ele><time>2022-11-14T17:20:52.0000000+00:00</time></trkpt><trkpt lat="39.48518825" lon="-0.36344469"><ele>3.4</ele><time>2022-11-14T17:20:53.0000000+00:00</time></trkpt><trkpt lat="39.48518925" lon="-0.36346153"><ele>3.4</ele><time>2022-11-14T17:20:54.0000000+00:00</time></trkpt><trkpt lat="39.4851916" lon="-0.36346874"><ele>3.4</ele><time>2022-11-14T17:20:55.0000000+00:00</time></trkpt><trkpt lat="39.48519344" lon="-0.36348081"><ele>3.4</ele><time>2022-11-14T17:20:56.0000000+00:00</time></trkpt><trkpt lat="39.4851916" lon="-0.36351115"><ele>3.4</ele><time>2022-11-14T17:20:57.0000000+00:00</time></trkpt><trkpt lat="39.48519127" lon="-0.36354577"><ele>3.4</ele><time>2022-11-14T17:20:58.0000000+00:00</time></trkpt><trkpt lat="39.48519629" lon="-0.36358668"><ele>3.4</ele><time>2022-11-14T17:20:59.0000000+00:00</time></trkpt><trkpt lat="39.48520736" lon="-0.36361978"><ele>3.4</ele><time>2022-11-14T17:21:00.0000000+00:00</time></trkpt><trkpt lat="39.48521189" lon="-0.36365155"><ele>3.6</ele><time>2022-11-14T17:21:01.0000000+00:00</time></trkpt><trkpt lat="39.48522027" lon="-0.36370067"><ele>3.6</ele><time>2022-11-14T17:21:02.0000000+00:00</time></trkpt><trkpt lat="39.48523971" lon="-0.36375482"><ele>3.6</ele><time>2022-11-14T17:21:03.0000000+00:00</time></trkpt><trkpt lat="39.48526218" lon="-0.36380528"><ele>3.8</ele><time>2022-11-14T17:21:04.0000000+00:00</time></trkpt><trkpt lat="39.48526301" lon="-0.36384786"><ele>3.8</ele><time>2022-11-14T17:21:05.0000000+00:00</time></trkpt><trkpt lat="39.48524575" lon="-0.36389404"><ele>3.8</ele><time>2022-11-14T17:21:06.0000000+00:00</time></trkpt><trkpt lat="39.48525656" lon="-0.36394509"><ele>3.8</ele><time>2022-11-14T17:21:07.0000000+00:00</time></trkpt><trkpt lat="39.48528221" lon="-0.36401273"><ele>4.0</ele><time>2022-11-14T17:21:08.0000000+00:00</time></trkpt><trkpt lat="39.48529386" lon="-0.36407802"><ele>4.0</ele><time>2022-11-14T17:21:09.0000000+00:00</time></trkpt><trkpt lat="39.48531347" lon="-0.36414474"><ele>4.0</ele><time>2022-11-14T17:21:10.0000000+00:00</time></trkpt><trkpt lat="39.48531264" lon="-0.36419696"><ele>4.0</ele><time>2022-11-14T17:21:11.0000000+00:00</time></trkpt><trkpt lat="39.4853517" lon="-0.36425572"><ele>4.0</ele><time>2022-11-14T17:21:12.0000000+00:00</time></trkpt><trkpt lat="39.48538179" lon="-0.36431456"><ele>4.0</ele><time>2022-11-14T17:21:13.0000000+00:00</time></trkpt><trkpt lat="39.48540752" lon="-0.36436133"><ele>3.8</ele><time>2022-11-14T17:21:14.0000000+00:00</time></trkpt><trkpt lat="39.48540291" lon="-0.36440995"><ele>3.8</ele><time>2022-11-14T17:21:15.0000000+00:00</time></trkpt><trkpt lat="39.48538522" lon="-0.36444339"><ele>3.8</ele><time>2022-11-14T17:21:16.0000000+00:00</time></trkpt><trkpt lat="39.48538229" lon="-0.36447424"><ele>3.8</ele><time>2022-11-14T17:21:17.0000000+00:00</time></trkpt><trkpt lat="39.4853874" lon="-0.3644962"><ele>3.8</ele><time>2022-11-14T17:21:18.0000000+00:00</time></trkpt><trkpt lat="39.48538438" lon="-0.3645076"><ele>3.8</ele><time>2022-11-14T17:21:19.0000000+00:00</time></trkpt><trkpt lat="39.48538304" lon="-0.36451547"><ele>3.8</ele><time>2022-11-14T17:21:20.0000000+00:00</time></trkpt><trkpt lat="39.48538254" lon="-0.36452486"><ele>3.8</ele><time>2022-11-14T17:21:21.0000000+00:00</time></trkpt><trkpt lat="39.48538153" lon="-0.36453509"><ele>3.8</ele><time>2022-11-14T17:21:22.0000000+00:00</time></trkpt><trkpt lat="39.48538095" lon="-0.36454632"><ele>3.8</ele><time>2022-11-14T17:21:23.0000000+00:00</time></trkpt><trkpt lat="39.48537701" lon="-0.36456099"><ele>3.8</ele><time>2022-11-14T17:21:24.0000000+00:00</time></trkpt><trkpt lat="39.48538061" lon="-0.36457884"><ele>3.8</ele><time>2022-11-14T17:21:25.0000000+00:00</time></trkpt><trkpt lat="39.48538061" lon="-0.36459267"><ele>3.8</ele><time>2022-11-14T17:21:26.0000000+00:00</time></trkpt><trkpt lat="39.48538397" lon="-0.36460214"><ele>3.8</ele><time>2022-11-14T17:21:27.0000000+00:00</time></trkpt><trkpt lat="39.48539151" lon="-0.36461966"><ele>3.8</ele><time>2022-11-14T17:21:28.0000000+00:00</time></trkpt><trkpt lat="39.48539511" lon="-0.36463073"><ele>3.8</ele><time>2022-11-14T17:21:29.0000000+00:00</time></trkpt><trkpt lat="39.48539989" lon="-0.36463835"><ele>3.8</ele><time>2022-11-14T17:21:30.0000000+00:00</time></trkpt><trkpt lat="39.48540676" lon="-0.36464967"><ele>3.8</ele><time>2022-11-14T17:21:31.0000000+00:00</time></trkpt><trkpt lat="39.4854159" lon="-0.36468395"><ele>3.8</ele><time>2022-11-14T17:21:32.0000000+00:00</time></trkpt><trkpt lat="39.48543057" lon="-0.36472946"><ele>4.0</ele><time>2022-11-14T17:21:33.0000000+00:00</time></trkpt><trkpt lat="39.48544725" lon="-0.36476894"><ele>4.0</ele><time>2022-11-14T17:21:34.0000000+00:00</time></trkpt><trkpt lat="39.48545421" lon="-0.36479149"><ele>4.0</ele><time>2022-11-14T17:21:35.0000000+00:00</time></trkpt><trkpt lat="39.48548094" lon="-0.36484564"><ele>4.0</ele><time>2022-11-14T17:21:36.0000000+00:00</time></trkpt><trkpt lat="39.4854967" lon="-0.36489417"><ele>4.0</ele><time>2022-11-14T17:21:37.0000000+00:00</time></trkpt><trkpt lat="39.48550198" lon="-0.36493734"><ele>4.0</ele><time>2022-11-14T17:21:38.0000000+00:00</time></trkpt><trkpt lat="39.48549855" lon="-0.36497497"><ele>4.0</ele><time>2022-11-14T17:21:39.0000000+00:00</time></trkpt><trkpt lat="39.48549972" lon="-0.36500422"><ele>4.0</ele><time>2022-11-14T17:21:40.0000000+00:00</time></trkpt><trkpt lat="39.48550584" lon="-0.36502484"><ele>4.2</ele><time>2022-11-14T17:21:41.0000000+00:00</time></trkpt><trkpt lat="39.48551514" lon="-0.36504588"><ele>4.2</ele><time>2022-11-14T17:21:42.0000000+00:00</time></trkpt><trkpt lat="39.48551992" lon="-0.36505284"><ele>4.2</ele><time>2022-11-14T17:21:43.0000000+00:00</time></trkpt><trkpt lat="39.48551992" lon="-0.36505284"><ele>4.2</ele><time>2022-11-14T17:21:44.0000000+00:00</time></trkpt><trkpt lat="39.48551992" lon="-0.36505284"><ele>4.0</ele><time>2022-11-14T17:21:45.0000000+00:00</time></trkpt><trkpt lat="39.48551992" lon="-0.36505284"><ele>4.0</ele><time>2022-11-14T17:21:46.0000000+00:00</time></trkpt><trkpt lat="39.48551992" lon="-0.36505284"><ele>4.0</ele><time>2022-11-14T17:21:47.0000000+00:00</time></trkpt><trkpt lat="39.48551992" lon="-0.36505284"><ele>4.0</ele><time>2022-11-14T17:21:48.0000000+00:00</time></trkpt><trkpt lat="39.48551992" lon="-0.36505284"><ele>4.0</ele><time>2022-11-14T17:21:49.0000000+00:00</time></trkpt><trkpt lat="39.48551992" lon="-0.36505284"><ele>4.0</ele><time>2022-11-14T17:21:50.0000000+00:00</time></trkpt><trkpt lat="39.48551992" lon="-0.36505284"><ele>4.0</ele><time>2022-11-14T17:21:51.0000000+00:00</time></trkpt><trkpt lat="39.48553157" lon="-0.36506918"><ele>4.0</ele><time>2022-11-14T17:21:52.0000000+00:00</time></trkpt><trkpt lat="39.48554523" lon="-0.36509056"><ele>4.0</ele><time>2022-11-14T17:21:53.0000000+00:00</time></trkpt><trkpt lat="39.48554951" lon="-0.36510137"><ele>4.0</ele><time>2022-11-14T17:21:54.0000000+00:00</time></trkpt><trkpt lat="39.48554666" lon="-0.36509793"><ele>4.0</ele><time>2022-11-14T17:21:55.0000000+00:00</time></trkpt><trkpt lat="39.48555579" lon="-0.3651131"><ele>4.0</ele><time>2022-11-14T17:21:56.0000000+00:00</time></trkpt><trkpt lat="39.48556929" lon="-0.36513699"><ele>4.0</ele><time>2022-11-14T17:21:57.0000000+00:00</time></trkpt><trkpt lat="39.48557918" lon="-0.3651592"><ele>4.2</ele><time>2022-11-14T17:21:58.0000000+00:00</time></trkpt><trkpt lat="39.48559318" lon="-0.36518712"><ele>4.2</ele><time>2022-11-14T17:21:59.0000000+00:00</time></trkpt><trkpt lat="39.48562218" lon="-0.36522022"><ele>4.2</ele><time>2022-11-14T17:22:00.0000000+00:00</time></trkpt><trkpt lat="39.48564364" lon="-0.3652483"><ele>4.2</ele><time>2022-11-14T17:22:01.0000000+00:00</time></trkpt><trkpt lat="39.48566585" lon="-0.36527772"><ele>4.4</ele><time>2022-11-14T17:22:02.0000000+00:00</time></trkpt><trkpt lat="39.48568923" lon="-0.36529658"><ele>4.4</ele><time>2022-11-14T17:22:03.0000000+00:00</time></trkpt><trkpt lat="39.48571363" lon="-0.3652908"><ele>4.6</ele><time>2022-11-14T17:22:04.0000000+00:00</time></trkpt><trkpt lat="39.48573433" lon="-0.36528736"><ele>4.6</ele><time>2022-11-14T17:22:05.0000000+00:00</time></trkpt><trkpt lat="39.48574632" lon="-0.36529893"><ele>4.6</ele><time>2022-11-14T17:22:06.0000000+00:00</time></trkpt><trkpt lat="39.48575369" lon="-0.36530756"><ele>4.6</ele><time>2022-11-14T17:22:07.0000000+00:00</time></trkpt><trkpt lat="39.48577481" lon="-0.36531561"><ele>4.8</ele><time>2022-11-14T17:22:08.0000000+00:00</time></trkpt><trkpt lat="39.48579283" lon="-0.36532089"><ele>4.6</ele><time>2022-11-14T17:22:09.0000000+00:00</time></trkpt><trkpt lat="39.48580591" lon="-0.36533422"><ele>4.6</ele><time>2022-11-14T17:22:10.0000000+00:00</time></trkpt><trkpt lat="39.48580977" lon="-0.36535048"><ele>4.6</ele><time>2022-11-14T17:22:11.0000000+00:00</time></trkpt><trkpt lat="39.48581069" lon="-0.36536238"><ele>4.8</ele><time>2022-11-14T17:22:12.0000000+00:00</time></trkpt><trkpt lat="39.48581396" lon="-0.3653773"><ele>4.8</ele><time>2022-11-14T17:22:13.0000000+00:00</time></trkpt><trkpt lat="39.48581496" lon="-0.36538552"><ele>4.8</ele><time>2022-11-14T17:22:14.0000000+00:00</time></trkpt><trkpt lat="39.48581496" lon="-0.36538552"><ele>4.8</ele><time>2022-11-14T17:22:15.0000000+00:00</time></trkpt><trkpt lat="39.48582083" lon="-0.36539465"><ele>4.8</ele><time>2022-11-14T17:22:16.0000000+00:00</time></trkpt><trkpt lat="39.48581966" lon="-0.36539826"><ele>4.8</ele><time>2022-11-14T17:22:17.0000000+00:00</time></trkpt><trkpt lat="39.48581765" lon="-0.36540228"><ele>4.8</ele><time>2022-11-14T17:22:18.0000000+00:00</time></trkpt><trkpt lat="39.48581463" lon="-0.36541988"><ele>4.8</ele><time>2022-11-14T17:22:19.0000000+00:00</time></trkpt><trkpt lat="39.48580977" lon="-0.36546162"><ele>4.8</ele><time>2022-11-14T17:22:20.0000000+00:00</time></trkpt><trkpt lat="39.4858163" lon="-0.36550161"><ele>4.8</ele><time>2022-11-14T17:22:21.0000000+00:00</time></trkpt><trkpt lat="39.48582192" lon="-0.36553606"><ele>4.8</ele><time>2022-11-14T17:22:22.0000000+00:00</time></trkpt><trkpt lat="39.48582536" lon="-0.36556774"><ele>4.8</ele><time>2022-11-14T17:22:23.0000000+00:00</time></trkpt><trkpt lat="39.48582661" lon="-0.36559816"><ele>4.8</ele><time>2022-11-14T17:22:24.0000000+00:00</time></trkpt><trkpt lat="39.48583114" lon="-0.36562624"><ele>4.8</ele><time>2022-11-14T17:22:25.0000000+00:00</time></trkpt><trkpt lat="39.4858588" lon="-0.36565759"><ele>4.8</ele><time>2022-11-14T17:22:26.0000000+00:00</time></trkpt><trkpt lat="39.48588638" lon="-0.3656881"><ele>4.8</ele><time>2022-11-14T17:22:27.0000000+00:00</time></trkpt><trkpt lat="39.48591655" lon="-0.36572205"><ele>4.8</ele><time>2022-11-14T17:22:28.0000000+00:00</time></trkpt><trkpt lat="39.48594388" lon="-0.36575097"><ele>4.8</ele><time>2022-11-14T17:22:29.0000000+00:00</time></trkpt><trkpt lat="39.48596592" lon="-0.36579019"><ele>4.8</ele><time>2022-11-14T17:22:30.0000000+00:00</time></trkpt><trkpt lat="39.48598696" lon="-0.36580235"><ele>4.8</ele><time>2022-11-14T17:22:31.0000000+00:00</time></trkpt><trkpt lat="39.4860033" lon="-0.36579547"><ele>4.8</ele><time>2022-11-14T17:22:32.0000000+00:00</time></trkpt><trkpt lat="39.48600113" lon="-0.36580838"><ele>4.8</ele><time>2022-11-14T17:22:33.0000000+00:00</time></trkpt><trkpt lat="39.48600045" lon="-0.3658259"><ele>5.0</ele><time>2022-11-14T17:22:34.0000000+00:00</time></trkpt><trkpt lat="39.48599777" lon="-0.36585323"><ele>5.0</ele><time>2022-11-14T17:22:35.0000000+00:00</time></trkpt><trkpt lat="39.48600724" lon="-0.36588935"><ele>5.0</ele><time>2022-11-14T17:22:36.0000000+00:00</time></trkpt><trkpt lat="39.48600657" lon="-0.36594283"><ele>5.0</ele><time>2022-11-14T17:22:37.0000000+00:00</time></trkpt><trkpt lat="39.48602342" lon="-0.36597686"><ele>5.0</ele><time>2022-11-14T17:22:38.0000000+00:00</time></trkpt><trkpt lat="39.48602744" lon="-0.36598516"><ele>5.0</ele><time>2022-11-14T17:22:39.0000000+00:00</time></trkpt><trkpt lat="39.48602744" lon="-0.366001"><ele>5.0</ele><time>2022-11-14T17:22:40.0000000+00:00</time></trkpt><trkpt lat="39.48603105" lon="-0.36600611"><ele>5.0</ele><time>2022-11-14T17:22:41.0000000+00:00</time></trkpt><trkpt lat="39.48602837" lon="-0.36601542"><ele>5.0</ele><time>2022-11-14T17:22:42.0000000+00:00</time></trkpt><trkpt lat="39.48602971" lon="-0.36604333"><ele>5.0</ele><time>2022-11-14T17:22:43.0000000+00:00</time></trkpt><trkpt lat="39.48603474" lon="-0.36609647"><ele>5.0</ele><time>2022-11-14T17:22:44.0000000+00:00</time></trkpt><trkpt lat="39.48604136" lon="-0.3661528"><ele>5.0</ele><time>2022-11-14T17:22:45.0000000+00:00</time></trkpt><trkpt lat="39.48602837" lon="-0.3662289"><ele>5.2</ele><time>2022-11-14T17:22:46.0000000+00:00</time></trkpt><trkpt lat="39.48604739" lon="-0.36631071"><ele>5.2</ele><time>2022-11-14T17:22:47.0000000+00:00</time></trkpt><trkpt lat="39.4860888" lon="-0.36642931"><ele>5.2</ele><time>2022-11-14T17:22:48.0000000+00:00</time></trkpt><trkpt lat="39.48609944" lon="-0.36650408"><ele>5.2</ele><time>2022-11-14T17:22:49.0000000+00:00</time></trkpt><trkpt lat="39.48614454" lon="-0.36658513"><ele>5.2</ele><time>2022-11-14T17:22:50.0000000+00:00</time></trkpt><trkpt lat="39.48616147" lon="-0.36664657"><ele>5.2</ele><time>2022-11-14T17:22:51.0000000+00:00</time></trkpt><trkpt lat="39.48617287" lon="-0.36670474"><ele>5.4</ele><time>2022-11-14T17:22:52.0000000+00:00</time></trkpt><trkpt lat="39.48617832" lon="-0.36676643"><ele>5.4</ele><time>2022-11-14T17:22:53.0000000+00:00</time></trkpt><trkpt lat="39.48617647" lon="-0.36682519"><ele>5.4</ele><time>2022-11-14T17:22:54.0000000+00:00</time></trkpt><trkpt lat="39.48615862" lon="-0.36687615"><ele>5.6</ele><time>2022-11-14T17:22:55.0000000+00:00</time></trkpt><trkpt lat="39.48615175" lon="-0.36692896"><ele>5.6</ele><time>2022-11-14T17:22:56.0000000+00:00</time></trkpt><trkpt lat="39.48614663" lon="-0.36697917"><ele>5.6</ele><time>2022-11-14T17:22:57.0000000+00:00</time></trkpt><trkpt lat="39.48614965" lon="-0.36702879"><ele>5.8</ele><time>2022-11-14T17:22:58.0000000+00:00</time></trkpt><trkpt lat="39.48615493" lon="-0.3670831"><ele>5.8</ele><time>2022-11-14T17:22:59.0000000+00:00</time></trkpt><trkpt lat="39.48615133" lon="-0.36714924"><ele>5.8</ele><time>2022-11-14T17:23:00.0000000+00:00</time></trkpt><trkpt lat="39.48618569" lon="-0.36722719"><ele>5.8</ele><time>2022-11-14T17:23:01.0000000+00:00</time></trkpt><trkpt lat="39.48621512" lon="-0.36730665"><ele>5.8</ele><time>2022-11-14T17:23:02.0000000+00:00</time></trkpt><trkpt lat="39.48623833" lon="-0.36734822"><ele>5.8</ele><time>2022-11-14T17:23:03.0000000+00:00</time></trkpt><trkpt lat="39.48626038" lon="-0.3673789"><ele>5.8</ele><time>2022-11-14T17:23:04.0000000+00:00</time></trkpt><trkpt lat="39.48627899" lon="-0.36740874"><ele>5.8</ele><time>2022-11-14T17:23:05.0000000+00:00</time></trkpt><trkpt lat="39.48629416" lon="-0.36743967"><ele>5.8</ele><time>2022-11-14T17:23:06.0000000+00:00</time></trkpt><trkpt lat="39.48630455" lon="-0.36747353"><ele>5.8</ele><time>2022-11-14T17:23:07.0000000+00:00</time></trkpt><trkpt lat="39.48631209" lon="-0.36750781"><ele>5.8</ele><time>2022-11-14T17:23:08.0000000+00:00</time></trkpt><trkpt lat="39.48631821" lon="-0.3675364"><ele>5.8</ele><time>2022-11-14T17:23:09.0000000+00:00</time></trkpt><trkpt lat="39.48633305" lon="-0.36755945"><ele>5.8</ele><time>2022-11-14T17:23:10.0000000+00:00</time></trkpt><trkpt lat="39.48635065" lon="-0.3675778"><ele>5.8</ele><time>2022-11-14T17:23:11.0000000+00:00</time></trkpt><trkpt lat="39.48636331" lon="-0.36759222"><ele>5.8</ele><time>2022-11-14T17:23:12.0000000+00:00</time></trkpt><trkpt lat="39.48636264" lon="-0.36759649"><ele>5.8</ele><time>2022-11-14T17:23:13.0000000+00:00</time></trkpt><trkpt lat="39.48637496" lon="-0.36760052"><ele>5.8</ele><time>2022-11-14T17:23:14.0000000+00:00</time></trkpt><trkpt lat="39.48638485" lon="-0.36761602"><ele>5.8</ele><time>2022-11-14T17:23:15.0000000+00:00</time></trkpt><trkpt lat="39.48639214" lon="-0.3676265"><ele>5.8</ele><time>2022-11-14T17:23:16.0000000+00:00</time></trkpt><trkpt lat="39.48639893" lon="-0.36764125"><ele>5.8</ele><time>2022-11-14T17:23:17.0000000+00:00</time></trkpt><trkpt lat="39.4864162" lon="-0.36766581"><ele>5.8</ele><time>2022-11-14T17:23:18.0000000+00:00</time></trkpt><trkpt lat="39.48643045" lon="-0.36768534"><ele>5.8</ele><time>2022-11-14T17:23:19.0000000+00:00</time></trkpt><trkpt lat="39.48644268" lon="-0.36771703"><ele>5.8</ele><time>2022-11-14T17:23:20.0000000+00:00</time></trkpt><trkpt lat="39.48644335" lon="-0.36775919"><ele>5.8</ele><time>2022-11-14T17:23:21.0000000+00:00</time></trkpt><trkpt lat="39.48645534" lon="-0.36781987"><ele>6.0</ele><time>2022-11-14T17:23:22.0000000+00:00</time></trkpt><trkpt lat="39.48647638" lon="-0.36788533"><ele>6.0</ele><time>2022-11-14T17:23:23.0000000+00:00</time></trkpt><trkpt lat="39.48648434" lon="-0.36794233"><ele>6.2</ele><time>2022-11-14T17:23:24.0000000+00:00</time></trkpt><trkpt lat="39.48647479" lon="-0.36800151"><ele>6.2</ele><time>2022-11-14T17:23:25.0000000+00:00</time></trkpt><trkpt lat="39.48646062" lon="-0.36805105"><ele>6.2</ele><time>2022-11-14T17:23:26.0000000+00:00</time></trkpt><trkpt lat="39.48643858" lon="-0.36811131"><ele>6.4</ele><time>2022-11-14T17:23:27.0000000+00:00</time></trkpt><trkpt lat="39.48641033" lon="-0.36816806"><ele>6.4</ele><time>2022-11-14T17:23:28.0000000+00:00</time></trkpt><trkpt lat="39.48638166" lon="-0.3682155"><ele>6.6</ele><time>2022-11-14T17:23:29.0000000+00:00</time></trkpt><trkpt lat="39.48639533" lon="-0.36828582"><ele>6.6</ele><time>2022-11-14T17:23:30.0000000+00:00</time></trkpt><trkpt lat="39.48640597" lon="-0.36835791"><ele>6.6</ele><time>2022-11-14T17:23:31.0000000+00:00</time></trkpt><trkpt lat="39.48641318" lon="-0.36842798"><ele>6.6</ele><time>2022-11-14T17:23:32.0000000+00:00</time></trkpt><trkpt lat="39.48640522" lon="-0.36850853"><ele>6.6</ele><time>2022-11-14T17:23:33.0000000+00:00</time></trkpt><trkpt lat="39.4864027" lon="-0.36857558"><ele>6.6</ele><time>2022-11-14T17:23:34.0000000+00:00</time></trkpt><trkpt lat="39.48638778" lon="-0.36864038"><ele>6.6</ele><time>2022-11-14T17:23:35.0000000+00:00</time></trkpt><trkpt lat="39.48638217" lon="-0.36870198"><ele>6.6</ele><time>2022-11-14T17:23:36.0000000+00:00</time></trkpt><trkpt lat="39.48643724" lon="-0.36879611"><ele>6.6</ele><time>2022-11-14T17:23:37.0000000+00:00</time></trkpt><trkpt lat="39.4864939" lon="-0.36885755"><ele>6.6</ele><time>2022-11-14T17:23:38.0000000+00:00</time></trkpt><trkpt lat="39.48657034" lon="-0.36894732"><ele>6.6</ele><time>2022-11-14T17:23:39.0000000+00:00</time></trkpt><trkpt lat="39.48664217" lon="-0.36902896"><ele>6.6</ele><time>2022-11-14T17:23:40.0000000+00:00</time></trkpt><trkpt lat="39.48669163" lon="-0.36909719"><ele>6.6</ele><time>2022-11-14T17:23:41.0000000+00:00</time></trkpt><trkpt lat="39.48673613" lon="-0.36914547"><ele>6.6</ele><time>2022-11-14T17:23:42.0000000+00:00</time></trkpt><trkpt lat="39.48676606" lon="-0.3691769"><ele>6.6</ele><time>2022-11-14T17:23:43.0000000+00:00</time></trkpt><trkpt lat="39.48679967" lon="-0.36919585"><ele>6.8</ele><time>2022-11-14T17:23:44.0000000+00:00</time></trkpt><trkpt lat="39.48682423" lon="-0.36920297"><ele>6.8</ele><time>2022-11-14T17:23:45.0000000+00:00</time></trkpt><trkpt lat="39.48685532" lon="-0.36923197"><ele>6.8</ele><time>2022-11-14T17:23:46.0000000+00:00</time></trkpt><trkpt lat="39.48686991" lon="-0.36926332"><ele>6.6</ele><time>2022-11-14T17:23:47.0000000+00:00</time></trkpt><trkpt lat="39.48688081" lon="-0.36929349"><ele>6.8</ele><time>2022-11-14T17:23:48.0000000+00:00</time></trkpt><trkpt lat="39.48688231" lon="-0.36930213"><ele>6.8</ele><time>2022-11-14T17:23:49.0000000+00:00</time></trkpt><trkpt lat="39.48688231" lon="-0.36930213"><ele>6.8</ele><time>2022-11-14T17:23:50.0000000+00:00</time></trkpt><trkpt lat="39.48688231" lon="-0.36930213"><ele>6.8</ele><time>2022-11-14T17:23:51.0000000+00:00</time></trkpt><trkpt lat="39.48688231" lon="-0.36930213"><ele>6.8</ele><time>2022-11-14T17:23:52.0000000+00:00</time></trkpt><trkpt lat="39.48688231" lon="-0.36930213"><ele>6.8</ele><time>2022-11-14T17:23:53.0000000+00:00</time></trkpt><trkpt lat="39.48688089" lon="-0.36930313"><ele>6.8</ele><time>2022-11-14T17:23:54.0000000+00:00</time></trkpt><trkpt lat="39.48687829" lon="-0.36930054"><ele>6.8</ele><time>2022-11-14T17:23:55.0000000+00:00</time></trkpt><trkpt lat="39.48687829" lon="-0.36930054"><ele>6.8</ele><time>2022-11-14T17:23:56.0000000+00:00</time></trkpt><trkpt lat="39.48687829" lon="-0.36930054"><ele>6.8</ele><time>2022-11-14T17:23:57.0000000+00:00</time></trkpt><trkpt lat="39.48688114" lon="-0.36930607"><ele>6.8</ele><time>2022-11-14T17:23:58.0000000+00:00</time></trkpt><trkpt lat="39.4868793" lon="-0.36930339"><ele>6.8</ele><time>2022-11-14T17:23:59.0000000+00:00</time></trkpt><trkpt lat="39.48688542" lon="-0.36931789"><ele>6.8</ele><time>2022-11-14T17:24:00.0000000+00:00</time></trkpt><trkpt lat="39.48688366" lon="-0.36934421"><ele>6.8</ele><time>2022-11-14T17:24:01.0000000+00:00</time></trkpt><trkpt lat="39.48686941" lon="-0.36936868"><ele>6.8</ele><time>2022-11-14T17:24:02.0000000+00:00</time></trkpt><trkpt lat="39.48684393" lon="-0.36939207"><ele>6.8</ele><time>2022-11-14T17:24:03.0000000+00:00</time></trkpt><trkpt lat="39.48681643" lon="-0.36941327"><ele>6.8</ele><time>2022-11-14T17:24:04.0000000+00:00</time></trkpt><trkpt lat="39.48678617" lon="-0.36943289"><ele>6.8</ele><time>2022-11-14T17:24:05.0000000+00:00</time></trkpt><trkpt lat="39.4867529" lon="-0.36945527"><ele>6.8</ele><time>2022-11-14T17:24:06.0000000+00:00</time></trkpt><trkpt lat="39.4867192" lon="-0.36948293"><ele>6.8</ele><time>2022-11-14T17:24:07.0000000+00:00</time></trkpt><trkpt lat="39.48667989" lon="-0.36951419"><ele>7.0</ele><time>2022-11-14T17:24:08.0000000+00:00</time></trkpt><trkpt lat="39.48663346" lon="-0.36954579"><ele>7.0</ele><time>2022-11-14T17:24:09.0000000+00:00</time></trkpt><trkpt lat="39.48658107" lon="-0.36957789"><ele>7.0</ele><time>2022-11-14T17:24:10.0000000+00:00</time></trkpt><trkpt lat="39.48652005" lon="-0.36961377"><ele>7.2</ele><time>2022-11-14T17:24:11.0000000+00:00</time></trkpt><trkpt lat="39.48645853" lon="-0.36964679"><ele>7.2</ele><time>2022-11-14T17:24:12.0000000+00:00</time></trkpt><trkpt lat="39.48641117" lon="-0.36968376"><ele>7.2</ele><time>2022-11-14T17:24:13.0000000+00:00</time></trkpt><trkpt lat="39.48635819" lon="-0.3697146"><ele>7.0</ele><time>2022-11-14T17:24:14.0000000+00:00</time></trkpt><trkpt lat="39.48631285" lon="-0.36974235"><ele>7.0</ele><time>2022-11-14T17:24:15.0000000+00:00</time></trkpt><trkpt lat="39.48626532" lon="-0.36977344"><ele>7.0</ele><time>2022-11-14T17:24:16.0000000+00:00</time></trkpt><trkpt lat="39.48619341" lon="-0.36980672"><ele>6.8</ele><time>2022-11-14T17:24:17.0000000+00:00</time></trkpt><trkpt lat="39.48614898" lon="-0.36985148"><ele>6.8</ele><time>2022-11-14T17:24:18.0000000+00:00</time></trkpt><trkpt lat="39.48612124" lon="-0.36990537"><ele>6.6</ele><time>2022-11-14T17:24:19.0000000+00:00</time></trkpt><trkpt lat="39.48609073" lon="-0.36995751"><ele>6.6</ele><time>2022-11-14T17:24:20.0000000+00:00</time></trkpt><trkpt lat="39.48605167" lon="-0.36999699"><ele>6.6</ele><time>2022-11-14T17:24:21.0000000+00:00</time></trkpt><trkpt lat="39.48599769" lon="-0.37002968"><ele>6.6</ele><time>2022-11-14T17:24:22.0000000+00:00</time></trkpt><trkpt lat="39.48594312" lon="-0.37005876"><ele>6.6</ele><time>2022-11-14T17:24:23.0000000+00:00</time></trkpt><trkpt lat="39.48588445" lon="-0.37008408"><ele>6.6</ele><time>2022-11-14T17:24:24.0000000+00:00</time></trkpt><trkpt lat="39.4858236" lon="-0.37010134"><ele>6.8</ele><time>2022-11-14T17:24:25.0000000+00:00</time></trkpt><trkpt lat="39.48576593" lon="-0.37012565"><ele>6.8</ele><time>2022-11-14T17:24:26.0000000+00:00</time></trkpt><trkpt lat="39.48571949" lon="-0.3701482"><ele>6.8</ele><time>2022-11-14T17:24:27.0000000+00:00</time></trkpt><trkpt lat="39.48566509" lon="-0.37016898"><ele>7.0</ele><time>2022-11-14T17:24:28.0000000+00:00</time></trkpt><trkpt lat="39.48562411" lon="-0.37017963"><ele>7.0</ele><time>2022-11-14T17:24:29.0000000+00:00</time></trkpt><trkpt lat="39.48557507" lon="-0.37019589"><ele>6.8</ele><time>2022-11-14T17:24:30.0000000+00:00</time></trkpt><trkpt lat="39.48552663" lon="-0.37021508"><ele>6.8</ele><time>2022-11-14T17:24:31.0000000+00:00</time></trkpt><trkpt lat="39.48547902" lon="-0.37025523"><ele>6.8</ele><time>2022-11-14T17:24:32.0000000+00:00</time></trkpt><trkpt lat="39.48541758" lon="-0.37029949"><ele>6.8</ele><time>2022-11-14T17:24:33.0000000+00:00</time></trkpt><trkpt lat="39.48534533" lon="-0.37034844"><ele>6.8</ele><time>2022-11-14T17:24:34.0000000+00:00</time></trkpt><trkpt lat="39.48527324" lon="-0.3703984"><ele>6.8</ele><time>2022-11-14T17:24:35.0000000+00:00</time></trkpt><trkpt lat="39.48520962" lon="-0.37042773"><ele>6.8</ele><time>2022-11-14T17:24:36.0000000+00:00</time></trkpt><trkpt lat="39.48515397" lon="-0.37045841"><ele>7.0</ele><time>2022-11-14T17:24:37.0000000+00:00</time></trkpt><trkpt lat="39.48511608" lon="-0.37048976"><ele>7.0</ele><time>2022-11-14T17:24:38.0000000+00:00</time></trkpt><trkpt lat="39.48508934" lon="-0.3705253"><ele>7.0</ele><time>2022-11-14T17:24:39.0000000+00:00</time></trkpt><trkpt lat="39.48505858" lon="-0.37055254"><ele>7.0</ele><time>2022-11-14T17:24:40.0000000+00:00</time></trkpt><trkpt lat="39.48501659" lon="-0.37057316"><ele>7.0</ele><time>2022-11-14T17:24:41.0000000+00:00</time></trkpt><trkpt lat="39.48496562" lon="-0.37059051"><ele>7.0</ele><time>2022-11-14T17:24:42.0000000+00:00</time></trkpt><trkpt lat="39.48492506" lon="-0.37061784"><ele>7.0</ele><time>2022-11-14T17:24:43.0000000+00:00</time></trkpt><trkpt lat="39.48488373" lon="-0.37064566"><ele>7.0</ele><time>2022-11-14T17:24:44.0000000+00:00</time></trkpt><trkpt lat="39.4848399" lon="-0.37067089"><ele>7.0</ele><time>2022-11-14T17:24:45.0000000+00:00</time></trkpt><trkpt lat="39.48480017" lon="-0.37069436"><ele>6.8</ele><time>2022-11-14T17:24:46.0000000+00:00</time></trkpt><trkpt lat="39.4847715" lon="-0.37070417"><ele>6.8</ele><time>2022-11-14T17:24:47.0000000+00:00</time></trkpt><trkpt lat="39.48476085" lon="-0.37070928"><ele>6.8</ele><time>2022-11-14T17:24:48.0000000+00:00</time></trkpt><trkpt lat="39.48476178" lon="-0.37071398"><ele>6.8</ele><time>2022-11-14T17:24:49.0000000+00:00</time></trkpt><trkpt lat="39.48474526" lon="-0.37073501"><ele>6.8</ele><time>2022-11-14T17:24:50.0000000+00:00</time></trkpt><trkpt lat="39.48473353" lon="-0.3707579"><ele>6.8</ele><time>2022-11-14T17:24:51.0000000+00:00</time></trkpt><trkpt lat="39.48472112" lon="-0.37077508"><ele>6.8</ele><time>2022-11-14T17:24:52.0000000+00:00</time></trkpt><trkpt lat="39.48471149" lon="-0.37079905"><ele>6.8</ele><time>2022-11-14T17:24:53.0000000+00:00</time></trkpt><trkpt lat="39.48469372" lon="-0.37082277"><ele>6.8</ele><time>2022-11-14T17:24:54.0000000+00:00</time></trkpt><trkpt lat="39.48466958" lon="-0.3708444"><ele>6.8</ele><time>2022-11-14T17:24:55.0000000+00:00</time></trkpt><trkpt lat="39.48464007" lon="-0.37086384"><ele>6.8</ele><time>2022-11-14T17:24:56.0000000+00:00</time></trkpt><trkpt lat="39.48460814" lon="-0.37088949"><ele>7.0</ele><time>2022-11-14T17:24:57.0000000+00:00</time></trkpt><trkpt lat="39.484584" lon="-0.37091774"><ele>7.0</ele><time>2022-11-14T17:24:58.0000000+00:00</time></trkpt><trkpt lat="39.48456405" lon="-0.37094666"><ele>7.0</ele><time>2022-11-14T17:24:59.0000000+00:00</time></trkpt><trkpt lat="39.48452893" lon="-0.37098454"><ele>7.0</ele><time>2022-11-14T17:25:00.0000000+00:00</time></trkpt><trkpt lat="39.48448249" lon="-0.3710231"><ele>7.0</ele><time>2022-11-14T17:25:01.0000000+00:00</time></trkpt><trkpt lat="39.48443681" lon="-0.37104716"><ele>7.2</ele><time>2022-11-14T17:25:02.0000000+00:00</time></trkpt><trkpt lat="39.48439163" lon="-0.37106392"><ele>7.2</ele><time>2022-11-14T17:25:03.0000000+00:00</time></trkpt><trkpt lat="39.48435299" lon="-0.37109812"><ele>7.2</ele><time>2022-11-14T17:25:04.0000000+00:00</time></trkpt><trkpt lat="39.48431167" lon="-0.37113969"><ele>7.2</ele><time>2022-11-14T17:25:05.0000000+00:00</time></trkpt><trkpt lat="39.48427429" lon="-0.37118806"><ele>7.2</ele><time>2022-11-14T17:25:06.0000000+00:00</time></trkpt><trkpt lat="39.48423171" lon="-0.37122586"><ele>7.2</ele><time>2022-11-14T17:25:07.0000000+00:00</time></trkpt><trkpt lat="39.48419105" lon="-0.37126777"><ele>7.2</ele><time>2022-11-14T17:25:08.0000000+00:00</time></trkpt><trkpt lat="39.48415535" lon="-0.37130926"><ele>7.2</ele><time>2022-11-14T17:25:09.0000000+00:00</time></trkpt><trkpt lat="39.48412266" lon="-0.37133977"><ele>7.2</ele><time>2022-11-14T17:25:10.0000000+00:00</time></trkpt><trkpt lat="39.48406675" lon="-0.37137112"><ele>7.2</ele><time>2022-11-14T17:25:11.0000000+00:00</time></trkpt><trkpt lat="39.48400808" lon="-0.37140079"><ele>7.2</ele><time>2022-11-14T17:25:12.0000000+00:00</time></trkpt><trkpt lat="39.4839525" lon="-0.37140138"><ele>7.2</ele><time>2022-11-14T17:25:13.0000000+00:00</time></trkpt><trkpt lat="39.48391529" lon="-0.37141814"><ele>7.0</ele><time>2022-11-14T17:25:14.0000000+00:00</time></trkpt><trkpt lat="39.48388034" lon="-0.37143909"><ele>7.0</ele><time>2022-11-14T17:25:15.0000000+00:00</time></trkpt><trkpt lat="39.48384396" lon="-0.37147245"><ele>7.0</ele><time>2022-11-14T17:25:16.0000000+00:00</time></trkpt><trkpt lat="39.48378939" lon="-0.37150933"><ele>7.0</ele><time>2022-11-14T17:25:17.0000000+00:00</time></trkpt><trkpt lat="39.48374312" lon="-0.37153867"><ele>7.0</ele><time>2022-11-14T17:25:18.0000000+00:00</time></trkpt><trkpt lat="39.48370398" lon="-0.37156088"><ele>7.0</ele><time>2022-11-14T17:25:19.0000000+00:00</time></trkpt><trkpt lat="39.48365947" lon="-0.371595"><ele>7.0</ele><time>2022-11-14T17:25:20.0000000+00:00</time></trkpt><trkpt lat="39.48360331" lon="-0.37161897"><ele>7.0</ele><time>2022-11-14T17:25:21.0000000+00:00</time></trkpt><trkpt lat="39.48356384" lon="-0.37162626"><ele>7.0</ele><time>2022-11-14T17:25:22.0000000+00:00</time></trkpt><trkpt lat="39.48353659" lon="-0.37162668"><ele>7.0</ele><time>2022-11-14T17:25:23.0000000+00:00</time></trkpt><trkpt lat="39.48352888" lon="-0.37162995"><ele>6.8</ele><time>2022-11-14T17:25:24.0000000+00:00</time></trkpt><trkpt lat="39.48352704" lon="-0.37163322"><ele>6.8</ele><time>2022-11-14T17:25:25.0000000+00:00</time></trkpt><trkpt lat="39.48353257" lon="-0.37162693"><ele>6.8</ele><time>2022-11-14T17:25:26.0000000+00:00</time></trkpt><trkpt lat="39.48352494" lon="-0.37162869"><ele>6.8</ele><time>2022-11-14T17:25:27.0000000+00:00</time></trkpt><trkpt lat="39.48350315" lon="-0.37163783"><ele>6.8</ele><time>2022-11-14T17:25:28.0000000+00:00</time></trkpt><trkpt lat="39.48346552" lon="-0.37165602"><ele>6.8</ele><time>2022-11-14T17:25:29.0000000+00:00</time></trkpt><trkpt lat="39.48343199" lon="-0.37167228"><ele>6.8</ele><time>2022-11-14T17:25:30.0000000+00:00</time></trkpt><trkpt lat="39.48340609" lon="-0.37168586"><ele>6.8</ele><time>2022-11-14T17:25:31.0000000+00:00</time></trkpt><trkpt lat="39.48337834" lon="-0.37170614"><ele>6.8</ele><time>2022-11-14T17:25:32.0000000+00:00</time></trkpt><trkpt lat="39.48333107" lon="-0.37172953"><ele>6.8</ele><time>2022-11-14T17:25:33.0000000+00:00</time></trkpt><trkpt lat="39.48329561" lon="-0.37174436"><ele>6.8</ele><time>2022-11-14T17:25:34.0000000+00:00</time></trkpt><trkpt lat="39.4832496" lon="-0.37175828"><ele>6.8</ele><time>2022-11-14T17:25:35.0000000+00:00</time></trkpt><trkpt lat="39.48319771" lon="-0.37177429"><ele>6.6</ele><time>2022-11-14T17:25:36.0000000+00:00</time></trkpt><trkpt lat="39.48316201" lon="-0.37178787"><ele>6.6</ele><time>2022-11-14T17:25:37.0000000+00:00</time></trkpt><trkpt lat="39.48312932" lon="-0.37179994"><ele>6.6</ele><time>2022-11-14T17:25:38.0000000+00:00</time></trkpt><trkpt lat="39.4830921" lon="-0.37181854"><ele>6.6</ele><time>2022-11-14T17:25:39.0000000+00:00</time></trkpt><trkpt lat="39.48304173" lon="-0.37185148"><ele>6.6</ele><time>2022-11-14T17:25:40.0000000+00:00</time></trkpt><trkpt lat="39.48299269" lon="-0.37188023"><ele>6.6</ele><time>2022-11-14T17:25:41.0000000+00:00</time></trkpt><trkpt lat="39.48294508" lon="-0.37190538"><ele>6.6</ele><time>2022-11-14T17:25:42.0000000+00:00</time></trkpt><trkpt lat="39.4828958" lon="-0.3719239"><ele>6.6</ele><time>2022-11-14T17:25:43.0000000+00:00</time></trkpt><trkpt lat="39.48286378" lon="-0.3719327"><ele>6.6</ele><time>2022-11-14T17:25:44.0000000+00:00</time></trkpt><trkpt lat="39.48282313" lon="-0.37195534"><ele>6.6</ele><time>2022-11-14T17:25:45.0000000+00:00</time></trkpt><trkpt lat="39.48279714" lon="-0.37197528"><ele>6.6</ele><time>2022-11-14T17:25:46.0000000+00:00</time></trkpt><trkpt lat="39.48277661" lon="-0.37199758"><ele>6.6</ele><time>2022-11-14T17:25:47.0000000+00:00</time></trkpt><trkpt lat="39.48275113" lon="-0.37201552"><ele>6.6</ele><time>2022-11-14T17:25:48.0000000+00:00</time></trkpt><trkpt lat="39.48271416" lon="-0.37203203"><ele>6.6</ele><time>2022-11-14T17:25:49.0000000+00:00</time></trkpt><trkpt lat="39.48267527" lon="-0.37204963"><ele>6.6</ele><time>2022-11-14T17:25:50.0000000+00:00</time></trkpt><trkpt lat="39.48262146" lon="-0.37206665"><ele>6.6</ele><time>2022-11-14T17:25:51.0000000+00:00</time></trkpt><trkpt lat="39.48250311" lon="-0.37208584"><ele>6.6</ele><time>2022-11-14T17:25:52.0000000+00:00</time></trkpt><trkpt lat="39.48244276" lon="-0.37211258"><ele>6.8</ele><time>2022-11-14T17:25:53.0000000+00:00</time></trkpt><trkpt lat="39.48241266" lon="-0.3721622"><ele>6.8</ele><time>2022-11-14T17:25:54.0000000+00:00</time></trkpt><trkpt lat="39.48242054" lon="-0.37219623"><ele>6.8</ele><time>2022-11-14T17:25:55.0000000+00:00</time></trkpt><trkpt lat="39.48242415" lon="-0.37224921"><ele>6.8</ele><time>2022-11-14T17:25:56.0000000+00:00</time></trkpt><trkpt lat="39.48240738" lon="-0.37229388"><ele>6.8</ele><time>2022-11-14T17:25:57.0000000+00:00</time></trkpt><trkpt lat="39.48239733" lon="-0.37233386"><ele>6.8</ele><time>2022-11-14T17:25:58.0000000+00:00</time></trkpt><trkpt lat="39.4823866" lon="-0.37237234"><ele>7.0</ele><time>2022-11-14T17:25:59.0000000+00:00</time></trkpt><trkpt lat="39.48235466" lon="-0.37240511"><ele>7.0</ele><time>2022-11-14T17:26:00.0000000+00:00</time></trkpt><trkpt lat="39.4823001" lon="-0.37243445"><ele>7.0</ele><time>2022-11-14T17:26:01.0000000+00:00</time></trkpt><trkpt lat="39.48224603" lon="-0.37245221"><ele>7.0</ele><time>2022-11-14T17:26:02.0000000+00:00</time></trkpt><trkpt lat="39.48219867" lon="-0.37249588"><ele>7.0</ele><time>2022-11-14T17:26:03.0000000+00:00</time></trkpt><trkpt lat="39.48214553" lon="-0.37254475"><ele>7.0</ele><time>2022-11-14T17:26:04.0000000+00:00</time></trkpt><trkpt lat="39.48211226" lon="-0.37257174"><ele>6.8</ele><time>2022-11-14T17:26:05.0000000+00:00</time></trkpt><trkpt lat="39.48206507" lon="-0.37261332"><ele>6.8</ele><time>2022-11-14T17:26:06.0000000+00:00</time></trkpt><trkpt lat="39.48200899" lon="-0.37266319"><ele>6.8</ele><time>2022-11-14T17:26:07.0000000+00:00</time></trkpt><trkpt lat="39.48197044" lon="-0.37272555"><ele>6.8</ele><time>2022-11-14T17:26:08.0000000+00:00</time></trkpt><trkpt lat="39.48192962" lon="-0.37277048"><ele>6.8</ele><time>2022-11-14T17:26:09.0000000+00:00</time></trkpt><trkpt lat="39.48189424" lon="-0.37275572"><ele>6.8</ele><time>2022-11-14T17:26:10.0000000+00:00</time></trkpt><trkpt lat="39.48186382" lon="-0.37276235"><ele>6.8</ele><time>2022-11-14T17:26:11.0000000+00:00</time></trkpt><trkpt lat="39.48182208" lon="-0.37277609"><ele>6.8</ele><time>2022-11-14T17:26:12.0000000+00:00</time></trkpt><trkpt lat="39.48175225" lon="-0.37282563"><ele>6.8</ele><time>2022-11-14T17:26:13.0000000+00:00</time></trkpt><trkpt lat="39.48170448" lon="-0.37283854"><ele>6.8</ele><time>2022-11-14T17:26:14.0000000+00:00</time></trkpt><trkpt lat="39.4816536" lon="-0.37286435"><ele>6.8</ele><time>2022-11-14T17:26:15.0000000+00:00</time></trkpt><trkpt lat="39.48160624" lon="-0.37287927"><ele>6.8</ele><time>2022-11-14T17:26:16.0000000+00:00</time></trkpt><trkpt lat="39.48156182" lon="-0.37288539"><ele>6.8</ele><time>2022-11-14T17:26:17.0000000+00:00</time></trkpt><trkpt lat="39.48151756" lon="-0.3728921"><ele>6.8</ele><time>2022-11-14T17:26:18.0000000+00:00</time></trkpt><trkpt lat="39.48147272" lon="-0.37290224"><ele>6.8</ele><time>2022-11-14T17:26:19.0000000+00:00</time></trkpt><trkpt lat="39.48143123" lon="-0.37291808"><ele>6.8</ele><time>2022-11-14T17:26:20.0000000+00:00</time></trkpt><trkpt lat="39.48138848" lon="-0.37293837"><ele>6.8</ele><time>2022-11-14T17:26:21.0000000+00:00</time></trkpt><trkpt lat="39.4813428" lon="-0.37296544"><ele>6.8</ele><time>2022-11-14T17:26:22.0000000+00:00</time></trkpt><trkpt lat="39.4812977" lon="-0.37299553"><ele>6.8</ele><time>2022-11-14T17:26:23.0000000+00:00</time></trkpt><trkpt lat="39.48125571" lon="-0.3730309"><ele>7.0</ele><time>2022-11-14T17:26:24.0000000+00:00</time></trkpt><trkpt lat="39.48123568" lon="-0.37305689"><ele>7.0</ele><time>2022-11-14T17:26:25.0000000+00:00</time></trkpt><trkpt lat="39.4811993" lon="-0.37308957"><ele>7.0</ele><time>2022-11-14T17:26:26.0000000+00:00</time></trkpt><trkpt lat="39.4811496" lon="-0.37312218"><ele>7.2</ele><time>2022-11-14T17:26:27.0000000+00:00</time></trkpt><trkpt lat="39.48112051" lon="-0.37314691"><ele>7.4</ele><time>2022-11-14T17:26:28.0000000+00:00</time></trkpt><trkpt lat="39.48108832" lon="-0.3731687"><ele>7.6</ele><time>2022-11-14T17:26:29.0000000+00:00</time></trkpt><trkpt lat="39.48106368" lon="-0.37318203"><ele>7.6</ele><time>2022-11-14T17:26:30.0000000+00:00</time></trkpt><trkpt lat="39.48103401" lon="-0.37320432"><ele>7.8</ele><time>2022-11-14T17:26:31.0000000+00:00</time></trkpt><trkpt lat="39.48098933" lon="-0.37323265"><ele>7.8</ele><time>2022-11-14T17:26:32.0000000+00:00</time></trkpt><trkpt lat="39.48093602" lon="-0.37327071"><ele>7.8</ele><time>2022-11-14T17:26:33.0000000+00:00</time></trkpt><trkpt lat="39.48089168" lon="-0.37329652"><ele>7.8</ele><time>2022-11-14T17:26:34.0000000+00:00</time></trkpt><trkpt lat="39.48085397" lon="-0.37330868"><ele>7.4</ele><time>2022-11-14T17:26:35.0000000+00:00</time></trkpt><trkpt lat="39.48082572" lon="-0.37331337"><ele>7.4</ele><time>2022-11-14T17:26:36.0000000+00:00</time></trkpt><trkpt lat="39.48080393" lon="-0.37332561"><ele>7.2</ele><time>2022-11-14T17:26:37.0000000+00:00</time></trkpt><trkpt lat="39.48079613" lon="-0.37334179"><ele>7.2</ele><time>2022-11-14T17:26:38.0000000+00:00</time></trkpt><trkpt lat="39.48079328" lon="-0.37335713"><ele>7.0</ele><time>2022-11-14T17:26:39.0000000+00:00</time></trkpt><trkpt lat="39.48078389" lon="-0.37337758"><ele>7.0</ele><time>2022-11-14T17:26:40.0000000+00:00</time></trkpt><trkpt lat="39.48076537" lon="-0.37340432"><ele>6.8</ele><time>2022-11-14T17:26:41.0000000+00:00</time></trkpt><trkpt lat="39.48075783" lon="-0.37341588"><ele>6.8</ele><time>2022-11-14T17:26:42.0000000+00:00</time></trkpt><trkpt lat="39.48075313" lon="-0.37340985"><ele>6.8</ele><time>2022-11-14T17:26:43.0000000+00:00</time></trkpt><trkpt lat="39.48076285" lon="-0.37341697"><ele>6.8</ele><time>2022-11-14T17:26:44.0000000+00:00</time></trkpt><trkpt lat="39.48078389" lon="-0.37342963"><ele>6.6</ele><time>2022-11-14T17:26:45.0000000+00:00</time></trkpt><trkpt lat="39.48080703" lon="-0.37345804"><ele>6.6</ele><time>2022-11-14T17:26:46.0000000+00:00</time></trkpt><trkpt lat="39.48083159" lon="-0.37350004"><ele>6.8</ele><time>2022-11-14T17:26:47.0000000+00:00</time></trkpt><trkpt lat="39.4808569" lon="-0.37355125"><ele>6.8</ele><time>2022-11-14T17:26:48.0000000+00:00</time></trkpt><trkpt lat="39.48087685" lon="-0.37360112"><ele>6.8</ele><time>2022-11-14T17:26:49.0000000+00:00</time></trkpt><trkpt lat="39.48090099" lon="-0.37365452"><ele>6.8</ele><time>2022-11-14T17:26:50.0000000+00:00</time></trkpt><trkpt lat="39.48093074" lon="-0.37372735"><ele>6.8</ele><time>2022-11-14T17:26:51.0000000+00:00</time></trkpt><trkpt lat="39.48094357" lon="-0.37379474"><ele>6.8</ele><time>2022-11-14T17:26:52.0000000+00:00</time></trkpt><trkpt lat="39.4809667" lon="-0.37384763"><ele>6.8</ele><time>2022-11-14T17:26:53.0000000+00:00</time></trkpt><trkpt lat="39.48098632" lon="-0.37388661"><ele>6.8</ele><time>2022-11-14T17:26:54.0000000+00:00</time></trkpt><trkpt lat="39.48101649" lon="-0.37393263"><ele>6.8</ele><time>2022-11-14T17:26:55.0000000+00:00</time></trkpt><trkpt lat="39.48104055" lon="-0.37398283"><ele>6.8</ele><time>2022-11-14T17:26:56.0000000+00:00</time></trkpt><trkpt lat="39.48105513" lon="-0.37404201"><ele>6.8</ele><time>2022-11-14T17:26:57.0000000+00:00</time></trkpt><trkpt lat="39.48106687" lon="-0.37410068"><ele>6.8</ele><time>2022-11-14T17:26:58.0000000+00:00</time></trkpt><trkpt lat="39.48109159" lon="-0.37415081"><ele>6.8</ele><time>2022-11-14T17:26:59.0000000+00:00</time></trkpt><trkpt lat="39.48113141" lon="-0.37418693"><ele>6.6</ele><time>2022-11-14T17:27:00.0000000+00:00</time></trkpt><trkpt lat="39.48117315" lon="-0.37422499"><ele>6.6</ele><time>2022-11-14T17:27:01.0000000+00:00</time></trkpt><trkpt lat="39.48120483" lon="-0.37427335"><ele>6.6</ele><time>2022-11-14T17:27:02.0000000+00:00</time></trkpt><trkpt lat="39.48123409" lon="-0.37432607"><ele>6.6</ele><time>2022-11-14T17:27:03.0000000+00:00</time></trkpt><trkpt lat="39.48126392" lon="-0.37438642"><ele>6.6</ele><time>2022-11-14T17:27:04.0000000+00:00</time></trkpt><trkpt lat="39.48129661" lon="-0.37443772"><ele>6.6</ele><time>2022-11-14T17:27:05.0000000+00:00</time></trkpt><trkpt lat="39.4813283" lon="-0.37448675"><ele>6.8</ele><time>2022-11-14T17:27:06.0000000+00:00</time></trkpt><trkpt lat="39.48135839" lon="-0.37453478"><ele>6.8</ele><time>2022-11-14T17:27:07.0000000+00:00</time></trkpt><trkpt lat="39.48139217" lon="-0.37458063"><ele>6.8</ele><time>2022-11-14T17:27:08.0000000+00:00</time></trkpt><trkpt lat="39.48142704" lon="-0.37462405"><ele>6.8</ele><time>2022-11-14T17:27:09.0000000+00:00</time></trkpt><trkpt lat="39.48146266" lon="-0.37466445"><ele>7.0</ele><time>2022-11-14T17:27:10.0000000+00:00</time></trkpt><trkpt lat="39.48149786" lon="-0.37470695"><ele>7.0</ele><time>2022-11-14T17:27:11.0000000+00:00</time></trkpt><trkpt lat="39.48153265" lon="-0.37474165"><ele>7.0</ele><time>2022-11-14T17:27:12.0000000+00:00</time></trkpt><trkpt lat="39.48157162" lon="-0.374774"><ele>7.0</ele><time>2022-11-14T17:27:13.0000000+00:00</time></trkpt><trkpt lat="39.48159442" lon="-0.37478649"><ele>7.0</ele><time>2022-11-14T17:27:14.0000000+00:00</time></trkpt><trkpt lat="39.48161479" lon="-0.37479906"><ele>7.0</ele><time>2022-11-14T17:27:15.0000000+00:00</time></trkpt><trkpt lat="39.48162787" lon="-0.37480678"><ele>7.0</ele><time>2022-11-14T17:27:16.0000000+00:00</time></trkpt><trkpt lat="39.48163482" lon="-0.37481792"><ele>6.8</ele><time>2022-11-14T17:27:17.0000000+00:00</time></trkpt><trkpt lat="39.48164178" lon="-0.37483209"><ele>6.8</ele><time>2022-11-14T17:27:18.0000000+00:00</time></trkpt><trkpt lat="39.48165108" lon="-0.37484684"><ele>6.8</ele><time>2022-11-14T17:27:19.0000000+00:00</time></trkpt><trkpt lat="39.48166961" lon="-0.37486511"><ele>6.8</ele><time>2022-11-14T17:27:20.0000000+00:00</time></trkpt><trkpt lat="39.48169861" lon="-0.37489403"><ele>6.8</ele><time>2022-11-14T17:27:21.0000000+00:00</time></trkpt><trkpt lat="39.4817277" lon="-0.37492404"><ele>6.8</ele><time>2022-11-14T17:27:22.0000000+00:00</time></trkpt><trkpt lat="39.48175184" lon="-0.37495472"><ele>7.0</ele><time>2022-11-14T17:27:23.0000000+00:00</time></trkpt><trkpt lat="39.48177958" lon="-0.37499864"><ele>7.0</ele><time>2022-11-14T17:27:24.0000000+00:00</time></trkpt><trkpt lat="39.48180003" lon="-0.37504574"><ele>7.0</ele><time>2022-11-14T17:27:25.0000000+00:00</time></trkpt><trkpt lat="39.48182518" lon="-0.37509503"><ele>7.0</ele><time>2022-11-14T17:27:26.0000000+00:00</time></trkpt><trkpt lat="39.48185535" lon="-0.37514633"><ele>7.0</ele><time>2022-11-14T17:27:27.0000000+00:00</time></trkpt><trkpt lat="39.48188477" lon="-0.37520031"><ele>7.2</ele><time>2022-11-14T17:27:28.0000000+00:00</time></trkpt><trkpt lat="39.48191545" lon="-0.37525563"><ele>7.2</ele><time>2022-11-14T17:27:29.0000000+00:00</time></trkpt><trkpt lat="39.48195241" lon="-0.37531514"><ele>7.2</ele><time>2022-11-14T17:27:30.0000000+00:00</time></trkpt><trkpt lat="39.4819763" lon="-0.37536006"><ele>7.0</ele><time>2022-11-14T17:27:31.0000000+00:00</time></trkpt><trkpt lat="39.48201251" lon="-0.37541689"><ele>7.0</ele><time>2022-11-14T17:27:32.0000000+00:00</time></trkpt><trkpt lat="39.48205845" lon="-0.37549099"><ele>6.8</ele><time>2022-11-14T17:27:33.0000000+00:00</time></trkpt><trkpt lat="39.48209558" lon="-0.37555595"><ele>6.8</ele><time>2022-11-14T17:27:34.0000000+00:00</time></trkpt><trkpt lat="39.48212525" lon="-0.37560381"><ele>6.6</ele><time>2022-11-14T17:27:35.0000000+00:00</time></trkpt><trkpt lat="39.48217009" lon="-0.37567774"><ele>6.6</ele><time>2022-11-14T17:27:36.0000000+00:00</time></trkpt><trkpt lat="39.48220605" lon="-0.37574194"><ele>6.6</ele><time>2022-11-14T17:27:37.0000000+00:00</time></trkpt><trkpt lat="39.48223069" lon="-0.37579366"><ele>6.4</ele><time>2022-11-14T17:27:38.0000000+00:00</time></trkpt><trkpt lat="39.48227269" lon="-0.37586985"><ele>6.6</ele><time>2022-11-14T17:27:39.0000000+00:00</time></trkpt><trkpt lat="39.48230395" lon="-0.37592408"><ele>6.6</ele><time>2022-11-14T17:27:40.0000000+00:00</time></trkpt><trkpt lat="39.48233731" lon="-0.37600497"><ele>6.6</ele><time>2022-11-14T17:27:41.0000000+00:00</time></trkpt><trkpt lat="39.4823664" lon="-0.37609004"><ele>6.6</ele><time>2022-11-14T17:27:42.0000000+00:00</time></trkpt><trkpt lat="39.48239355" lon="-0.37616347"><ele>6.6</ele><time>2022-11-14T17:27:43.0000000+00:00</time></trkpt><trkpt lat="39.48242649" lon="-0.3762348"><ele>6.6</ele><time>2022-11-14T17:27:44.0000000+00:00</time></trkpt><trkpt lat="39.48245214" lon="-0.37629456"><ele>6.6</ele><time>2022-11-14T17:27:45.0000000+00:00</time></trkpt><trkpt lat="39.48247779" lon="-0.37635483"><ele>6.6</ele><time>2022-11-14T17:27:46.0000000+00:00</time></trkpt><trkpt lat="39.48249715" lon="-0.3764047"><ele>6.4</ele><time>2022-11-14T17:27:47.0000000+00:00</time></trkpt><trkpt lat="39.48252481" lon="-0.37646547"><ele>6.4</ele><time>2022-11-14T17:27:48.0000000+00:00</time></trkpt><trkpt lat="39.48255247" lon="-0.37652691"><ele>6.4</ele><time>2022-11-14T17:27:49.0000000+00:00</time></trkpt><trkpt lat="39.48258617" lon="-0.37659187"><ele>6.4</ele><time>2022-11-14T17:27:50.0000000+00:00</time></trkpt><trkpt lat="39.48262699" lon="-0.37667058"><ele>6.4</ele><time>2022-11-14T17:27:51.0000000+00:00</time></trkpt><trkpt lat="39.48265255" lon="-0.37672623"><ele>6.6</ele><time>2022-11-14T17:27:52.0000000+00:00</time></trkpt><trkpt lat="39.48268617" lon="-0.37678113"><ele>6.6</ele><time>2022-11-14T17:27:53.0000000+00:00</time></trkpt><trkpt lat="39.48271483" lon="-0.37683327"><ele>6.6</ele><time>2022-11-14T17:27:54.0000000+00:00</time></trkpt><trkpt lat="39.4827502" lon="-0.37688733"><ele>6.6</ele><time>2022-11-14T17:27:55.0000000+00:00</time></trkpt><trkpt lat="39.48276965" lon="-0.37694072"><ele>6.6</ele><time>2022-11-14T17:27:56.0000000+00:00</time></trkpt><trkpt lat="39.48279161" lon="-0.37699437"><ele>6.6</ele><time>2022-11-14T17:27:57.0000000+00:00</time></trkpt><trkpt lat="39.4828243" lon="-0.37703603"><ele>6.6</ele><time>2022-11-14T17:27:58.0000000+00:00</time></trkpt><trkpt lat="39.48285825" lon="-0.37706276"><ele>6.8</ele><time>2022-11-14T17:27:59.0000000+00:00</time></trkpt><trkpt lat="39.48289236" lon="-0.3770911"><ele>6.8</ele><time>2022-11-14T17:28:00.0000000+00:00</time></trkpt><trkpt lat="39.48293259" lon="-0.3771154"><ele>6.8</ele><time>2022-11-14T17:28:01.0000000+00:00</time></trkpt><trkpt lat="39.48296696" lon="-0.37713938"><ele>6.8</ele><time>2022-11-14T17:28:02.0000000+00:00</time></trkpt><trkpt lat="39.48298817" lon="-0.37717198"><ele>6.8</ele><time>2022-11-14T17:28:03.0000000+00:00</time></trkpt><trkpt lat="39.4830025" lon="-0.37721557"><ele>6.8</ele><time>2022-11-14T17:28:04.0000000+00:00</time></trkpt><trkpt lat="39.48301013" lon="-0.37725831"><ele>6.8</ele><time>2022-11-14T17:28:05.0000000+00:00</time></trkpt><trkpt lat="39.48301214" lon="-0.37730274"><ele>6.6</ele><time>2022-11-14T17:28:06.0000000+00:00</time></trkpt><trkpt lat="39.48301306" lon="-0.37734322"><ele>6.6</ele><time>2022-11-14T17:28:07.0000000+00:00</time></trkpt><trkpt lat="39.48300853" lon="-0.37741296"><ele>6.6</ele><time>2022-11-14T17:28:08.0000000+00:00</time></trkpt><trkpt lat="39.48300024" lon="-0.3774666"><ele>6.8</ele><time>2022-11-14T17:28:09.0000000+00:00</time></trkpt><trkpt lat="39.48298708" lon="-0.37755512"><ele>6.8</ele><time>2022-11-14T17:28:10.0000000+00:00</time></trkpt><trkpt lat="39.48298649" lon="-0.37761899"><ele>6.8</ele><time>2022-11-14T17:28:11.0000000+00:00</time></trkpt><trkpt lat="39.48298708" lon="-0.37768252"><ele>6.8</ele><time>2022-11-14T17:28:12.0000000+00:00</time></trkpt><trkpt lat="39.48299211" lon="-0.37774245"><ele>7.0</ele><time>2022-11-14T17:28:13.0000000+00:00</time></trkpt><trkpt lat="39.48299177" lon="-0.37780641"><ele>7.0</ele><time>2022-11-14T17:28:14.0000000+00:00</time></trkpt><trkpt lat="39.48299043" lon="-0.37786047"><ele>7.0</ele><time>2022-11-14T17:28:15.0000000+00:00</time></trkpt><trkpt lat="39.48298674" lon="-0.37794714"><ele>7.0</ele><time>2022-11-14T17:28:16.0000000+00:00</time></trkpt><trkpt lat="39.48298875" lon="-0.37800338"><ele>7.0</ele><time>2022-11-14T17:28:17.0000000+00:00</time></trkpt><trkpt lat="39.48299102" lon="-0.37806826"><ele>7.0</ele><time>2022-11-14T17:28:18.0000000+00:00</time></trkpt><trkpt lat="39.4829937" lon="-0.37815099"><ele>7.0</ele><time>2022-11-14T17:28:19.0000000+00:00</time></trkpt><trkpt lat="39.4829994" lon="-0.37819885"><ele>7.0</ele><time>2022-11-14T17:28:20.0000000+00:00</time></trkpt><trkpt lat="39.48299655" lon="-0.37826506"><ele>7.0</ele><time>2022-11-14T17:28:21.0000000+00:00</time></trkpt><trkpt lat="39.48299512" lon="-0.37834235"><ele>7.0</ele><time>2022-11-14T17:28:22.0000000+00:00</time></trkpt><trkpt lat="39.4829932" lon="-0.37839976"><ele>7.0</ele><time>2022-11-14T17:28:23.0000000+00:00</time></trkpt><trkpt lat="39.48301289" lon="-0.37846145"><ele>7.0</ele><time>2022-11-14T17:28:24.0000000+00:00</time></trkpt><trkpt lat="39.48302471" lon="-0.37851241"><ele>7.0</ele><time>2022-11-14T17:28:25.0000000+00:00</time></trkpt><trkpt lat="39.48304097" lon="-0.37854695"><ele>7.0</ele><time>2022-11-14T17:28:26.0000000+00:00</time></trkpt><trkpt lat="39.48306017" lon="-0.3785767"><ele>7.0</ele><time>2022-11-14T17:28:27.0000000+00:00</time></trkpt><trkpt lat="39.4830864" lon="-0.37859607"><ele>7.0</ele><time>2022-11-14T17:28:28.0000000+00:00</time></trkpt><trkpt lat="39.48311993" lon="-0.3786114"><ele>7.0</ele><time>2022-11-14T17:28:29.0000000+00:00</time></trkpt><trkpt lat="39.48317315" lon="-0.37862029"><ele>7.0</ele><time>2022-11-14T17:28:30.0000000+00:00</time></trkpt><trkpt lat="39.48322596" lon="-0.37863907"><ele>7.0</ele><time>2022-11-14T17:28:31.0000000+00:00</time></trkpt><trkpt lat="39.4832651" lon="-0.37866631"><ele>7.0</ele><time>2022-11-14T17:28:32.0000000+00:00</time></trkpt><trkpt lat="39.4832967" lon="-0.37869807"><ele>7.0</ele><time>2022-11-14T17:28:33.0000000+00:00</time></trkpt><trkpt lat="39.48332386" lon="-0.37872951"><ele>7.0</ele><time>2022-11-14T17:28:34.0000000+00:00</time></trkpt><trkpt lat="39.4833511" lon="-0.37875935"><ele>7.0</ele><time>2022-11-14T17:28:35.0000000+00:00</time></trkpt><trkpt lat="39.48336954" lon="-0.37878131"><ele>7.0</ele><time>2022-11-14T17:28:36.0000000+00:00</time></trkpt><trkpt lat="39.48339997" lon="-0.37879849"><ele>7.0</ele><time>2022-11-14T17:28:37.0000000+00:00</time></trkpt><trkpt lat="39.48344565" lon="-0.37880947"><ele>7.0</ele><time>2022-11-14T17:28:38.0000000+00:00</time></trkpt><trkpt lat="39.4834889" lon="-0.37880888"><ele>7.0</ele><time>2022-11-14T17:28:39.0000000+00:00</time></trkpt><trkpt lat="39.48353265" lon="-0.37880838"><ele>7.0</ele><time>2022-11-14T17:28:40.0000000+00:00</time></trkpt><trkpt lat="39.48357733" lon="-0.37881064"><ele>7.0</ele><time>2022-11-14T17:28:41.0000000+00:00</time></trkpt><trkpt lat="39.48365218" lon="-0.37884023"><ele>7.2</ele><time>2022-11-14T17:28:42.0000000+00:00</time></trkpt><trkpt lat="39.48370289" lon="-0.37885632"><ele>7.2</ele><time>2022-11-14T17:28:43.0000000+00:00</time></trkpt><trkpt lat="39.48377833" lon="-0.37888139"><ele>7.2</ele><time>2022-11-14T17:28:44.0000000+00:00</time></trkpt><trkpt lat="39.48382434" lon="-0.37889295"><ele>7.2</ele><time>2022-11-14T17:28:45.0000000+00:00</time></trkpt><trkpt lat="39.48389341" lon="-0.37890879"><ele>7.2</ele><time>2022-11-14T17:28:46.0000000+00:00</time></trkpt><trkpt lat="39.48395401" lon="-0.37892296"><ele>7.2</ele><time>2022-11-14T17:28:47.0000000+00:00</time></trkpt><trkpt lat="39.4840095" lon="-0.37891156"><ele>7.4</ele><time>2022-11-14T17:28:48.0000000+00:00</time></trkpt><trkpt lat="39.48406516" lon="-0.37883529"><ele>7.4</ele><time>2022-11-14T17:28:49.0000000+00:00</time></trkpt><trkpt lat="39.48409047" lon="-0.378771"><ele>7.4</ele><time>2022-11-14T17:28:50.0000000+00:00</time></trkpt><trkpt lat="39.48410397" lon="-0.37875054"><ele>7.4</ele><time>2022-11-14T17:28:51.0000000+00:00</time></trkpt><trkpt lat="39.48412475" lon="-0.37874434"><ele>7.4</ele><time>2022-11-14T17:28:52.0000000+00:00</time></trkpt><trkpt lat="39.48414655" lon="-0.37873395"><ele>7.4</ele><time>2022-11-14T17:28:53.0000000+00:00</time></trkpt><trkpt lat="39.48417303" lon="-0.37872607"><ele>7.6</ele><time>2022-11-14T17:28:54.0000000+00:00</time></trkpt><trkpt lat="39.48419927" lon="-0.37872749"><ele>7.6</ele><time>2022-11-14T17:28:55.0000000+00:00</time></trkpt><trkpt lat="39.48425065" lon="-0.37876387"><ele>7.8</ele><time>2022-11-14T17:28:56.0000000+00:00</time></trkpt><trkpt lat="39.48426196" lon="-0.37876345"><ele>7.8</ele><time>2022-11-14T17:28:57.0000000+00:00</time></trkpt><trkpt lat="39.48427152" lon="-0.37872431"><ele>8.0</ele><time>2022-11-14T17:28:58.0000000+00:00</time></trkpt><trkpt lat="39.48430488" lon="-0.37871894"><ele>8.0</ele><time>2022-11-14T17:28:59.0000000+00:00</time></trkpt><trkpt lat="39.48434025" lon="-0.37871777"><ele>8.0</ele><time>2022-11-14T17:29:00.0000000+00:00</time></trkpt><trkpt lat="39.48437369" lon="-0.37871861"><ele>8.0</ele><time>2022-11-14T17:29:01.0000000+00:00</time></trkpt><trkpt lat="39.48441217" lon="-0.37870964"><ele>8.2</ele><time>2022-11-14T17:29:02.0000000+00:00</time></trkpt><trkpt lat="39.48445567" lon="-0.37869271"><ele>8.2</ele><time>2022-11-14T17:29:03.0000000+00:00</time></trkpt><trkpt lat="39.48448551" lon="-0.37868165"><ele>8.4</ele><time>2022-11-14T17:29:04.0000000+00:00</time></trkpt><trkpt lat="39.48453236" lon="-0.3786653"><ele>8.6</ele><time>2022-11-14T17:29:05.0000000+00:00</time></trkpt><trkpt lat="39.48457042" lon="-0.37866245"><ele>8.6</ele><time>2022-11-14T17:29:06.0000000+00:00</time></trkpt><trkpt lat="39.4846135" lon="-0.37867662"><ele>8.6</ele><time>2022-11-14T17:29:07.0000000+00:00</time></trkpt><trkpt lat="39.48466044" lon="-0.37868978"><ele>8.6</ele><time>2022-11-14T17:29:08.0000000+00:00</time></trkpt><trkpt lat="39.4847083" lon="-0.37868944"><ele>8.6</ele><time>2022-11-14T17:29:09.0000000+00:00</time></trkpt><trkpt lat="39.48475264" lon="-0.37867662"><ele>8.6</ele><time>2022-11-14T17:29:10.0000000+00:00</time></trkpt><trkpt lat="39.48474937" lon="-0.37865583"><ele>8.6</ele><time>2022-11-14T17:29:11.0000000+00:00</time></trkpt><trkpt lat="39.48479178" lon="-0.37867284"><ele>8.6</ele><time>2022-11-14T17:29:12.0000000+00:00</time></trkpt><trkpt lat="39.48481165" lon="-0.37868114"><ele>8.6</ele><time>2022-11-14T17:29:13.0000000+00:00</time></trkpt><trkpt lat="39.48483009" lon="-0.37866522"><ele>8.8</ele><time>2022-11-14T17:29:14.0000000+00:00</time></trkpt><trkpt lat="39.48482581" lon="-0.3786472"><ele>8.8</ele><time>2022-11-14T17:29:15.0000000+00:00</time></trkpt><trkpt lat="39.48482464" lon="-0.37864577"><ele>8.8</ele><time>2022-11-14T17:29:16.0000000+00:00</time></trkpt><trkpt lat="39.48486538" lon="-0.3786415"><ele>8.8</ele><time>2022-11-14T17:29:17.0000000+00:00</time></trkpt><trkpt lat="39.48490561" lon="-0.37864099"><ele>9.0</ele><time>2022-11-14T17:29:18.0000000+00:00</time></trkpt><trkpt lat="39.48492028" lon="-0.37866295"><ele>9.0</ele><time>2022-11-14T17:29:19.0000000+00:00</time></trkpt><trkpt lat="39.48491014" lon="-0.37866077"><ele>9.0</ele><time>2022-11-14T17:29:20.0000000+00:00</time></trkpt><trkpt lat="39.48491005" lon="-0.37866086"><ele>9.0</ele><time>2022-11-14T17:29:21.0000000+00:00</time></trkpt><trkpt lat="39.48490921" lon="-0.37867486"><ele>9.0</ele><time>2022-11-14T17:29:22.0000000+00:00</time></trkpt><trkpt lat="39.48495381" lon="-0.37869212"><ele>9.2</ele><time>2022-11-14T17:29:23.0000000+00:00</time></trkpt><trkpt lat="39.48504224" lon="-0.37871249"><ele>9.0</ele><time>2022-11-14T17:29:24.0000000+00:00</time></trkpt><trkpt lat="39.48512253" lon="-0.37871475"><ele>9.0</ele><time>2022-11-14T17:29:25.0000000+00:00</time></trkpt><trkpt lat="39.48521256" lon="-0.37873546"><ele>9.2</ele><time>2022-11-14T17:29:26.0000000+00:00</time></trkpt><trkpt lat="39.48525908" lon="-0.37869279"><ele>9.2</ele><time>2022-11-14T17:29:27.0000000+00:00</time></trkpt><trkpt lat="39.48534767" lon="-0.3786938"><ele>9.2</ele><time>2022-11-14T17:29:28.0000000+00:00</time></trkpt><trkpt lat="39.48540945" lon="-0.37866036"><ele>9.2</ele><time>2022-11-14T17:29:29.0000000+00:00</time></trkpt><trkpt lat="39.48544239" lon="-0.37863169"><ele>9.4</ele><time>2022-11-14T17:29:30.0000000+00:00</time></trkpt><trkpt lat="39.48545152" lon="-0.37863052"><ele>9.4</ele><time>2022-11-14T17:29:31.0000000+00:00</time></trkpt><trkpt lat="39.48546326" lon="-0.37860227"><ele>9.4</ele><time>2022-11-14T17:29:32.0000000+00:00</time></trkpt><trkpt lat="39.48547013" lon="-0.37856966"><ele>9.4</ele><time>2022-11-14T17:29:33.0000000+00:00</time></trkpt><trkpt lat="39.48547139" lon="-0.37856765"><ele>9.4</ele><time>2022-11-14T17:29:34.0000000+00:00</time></trkpt><trkpt lat="39.48547139" lon="-0.37856765"><ele>9.4</ele><time>2022-11-14T17:29:35.0000000+00:00</time></trkpt><trkpt lat="39.48547139" lon="-0.37856765"><ele>9.4</ele><time>2022-11-14T17:29:36.0000000+00:00</time></trkpt><trkpt lat="39.48547139" lon="-0.37856765"><ele>9.4</ele><time>2022-11-14T17:29:37.0000000+00:00</time></trkpt><trkpt lat="39.48546963" lon="-0.37855206"><ele>9.4</ele><time>2022-11-14T17:29:38.0000000+00:00</time></trkpt><trkpt lat="39.48546745" lon="-0.37855391"><ele>9.4</ele><time>2022-11-14T17:29:39.0000000+00:00</time></trkpt><trkpt lat="39.48546745" lon="-0.37855391"><ele>9.4</ele><time>2022-11-14T17:29:40.0000000+00:00</time></trkpt><trkpt lat="39.48546745" lon="-0.37855391"><ele>9.4</ele><time>2022-11-14T17:29:41.0000000+00:00</time></trkpt><trkpt lat="39.48546745" lon="-0.37855391"><ele>9.4</ele><time>2022-11-14T17:29:42.0000000+00:00</time></trkpt><trkpt lat="39.48546745" lon="-0.37855391"><ele>9.4</ele><time>2022-11-14T17:29:43.0000000+00:00</time></trkpt><trkpt lat="39.48546745" lon="-0.37855391"><ele>9.4</ele><time>2022-11-14T17:29:44.0000000+00:00</time></trkpt><trkpt lat="39.48546745" lon="-0.37855391"><ele>9.4</ele><time>2022-11-14T17:29:45.0000000+00:00</time></trkpt><trkpt lat="39.48546745" lon="-0.37855391"><ele>9.4</ele><time>2022-11-14T17:29:46.0000000+00:00</time></trkpt><trkpt lat="39.48546745" lon="-0.37855391"><ele>9.4</ele><time>2022-11-14T17:29:47.0000000+00:00</time></trkpt><trkpt lat="39.48546745" lon="-0.37855391"><ele>9.4</ele><time>2022-11-14T17:29:48.0000000+00:00</time></trkpt><trkpt lat="39.48546745" lon="-0.37855391"><ele>9.4</ele><time>2022-11-14T17:29:49.0000000+00:00</time></trkpt><trkpt lat="39.48546745" lon="-0.37855391"><ele>9.4</ele><time>2022-11-14T17:29:50.0000000+00:00</time></trkpt><trkpt lat="39.48546745" lon="-0.37855391"><ele>9.4</ele><time>2022-11-14T17:29:51.0000000+00:00</time></trkpt><trkpt lat="39.48546745" lon="-0.37855391"><ele>9.4</ele><time>2022-11-14T17:29:52.0000000+00:00</time></trkpt><trkpt lat="39.48546745" lon="-0.37855391"><ele>9.4</ele><time>2022-11-14T17:29:53.0000000+00:00</time></trkpt><trkpt lat="39.48546745" lon="-0.37855391"><ele>9.4</ele><time>2022-11-14T17:29:54.0000000+00:00</time></trkpt><trkpt lat="39.48546745" lon="-0.37855391"><ele>9.4</ele><time>2022-11-14T17:29:55.0000000+00:00</time></trkpt><trkpt lat="39.48546745" lon="-0.37855391"><ele>9.4</ele><time>2022-11-14T17:29:56.0000000+00:00</time></trkpt><trkpt lat="39.48546745" lon="-0.37855391"><ele>9.4</ele><time>2022-11-14T17:29:57.0000000+00:00</time></trkpt><trkpt lat="39.48544247" lon="-0.37855256"><ele>9.4</ele><time>2022-11-14T17:29:58.0000000+00:00</time></trkpt><trkpt lat="39.48544247" lon="-0.3785498"><ele>9.4</ele><time>2022-11-14T17:29:59.0000000+00:00</time></trkpt><trkpt lat="39.48544247" lon="-0.3785498"><ele>9.4</ele><time>2022-11-14T17:30:00.0000000+00:00</time></trkpt><trkpt lat="39.48544247" lon="-0.3785498"><ele>9.4</ele><time>2022-11-14T17:30:01.0000000+00:00</time></trkpt><trkpt lat="39.48544247" lon="-0.3785498"><ele>9.4</ele><time>2022-11-14T17:30:02.0000000+00:00</time></trkpt><trkpt lat="39.48544247" lon="-0.3785498"><ele>9.4</ele><time>2022-11-14T17:30:03.0000000+00:00</time></trkpt><trkpt lat="39.48544247" lon="-0.3785498"><ele>9.4</ele><time>2022-11-14T17:30:04.0000000+00:00</time></trkpt><trkpt lat="39.48544247" lon="-0.3785498"><ele>9.4</ele><time>2022-11-14T17:30:05.0000000+00:00</time></trkpt><trkpt lat="39.48544247" lon="-0.3785498"><ele>9.4</ele><time>2022-11-14T17:30:06.0000000+00:00</time></trkpt><trkpt lat="39.48544247" lon="-0.3785498"><ele>9.4</ele><time>2022-11-14T17:30:07.0000000+00:00</time></trkpt><trkpt lat="39.48544247" lon="-0.3785498"><ele>9.4</ele><time>2022-11-14T17:30:08.0000000+00:00</time></trkpt><trkpt lat="39.48543292" lon="-0.37852457"><ele>9.4</ele><time>2022-11-14T17:30:09.0000000+00:00</time></trkpt><trkpt lat="39.48542328" lon="-0.37848727"><ele>9.4</ele><time>2022-11-14T17:30:10.0000000+00:00</time></trkpt><trkpt lat="39.48542168" lon="-0.37848962"><ele>9.4</ele><time>2022-11-14T17:30:11.0000000+00:00</time></trkpt><trkpt lat="39.48542269" lon="-0.37848333"><ele>9.4</ele><time>2022-11-14T17:30:12.0000000+00:00</time></trkpt><trkpt lat="39.48542655" lon="-0.37848123"><ele>9.4</ele><time>2022-11-14T17:30:13.0000000+00:00</time></trkpt><trkpt lat="39.48542655" lon="-0.37848123"><ele>9.4</ele><time>2022-11-14T17:30:14.0000000+00:00</time></trkpt><trkpt lat="39.48542655" lon="-0.37848123"><ele>9.4</ele><time>2022-11-14T17:30:15.0000000+00:00</time></trkpt><trkpt lat="39.48542655" lon="-0.37848123"><ele>9.4</ele><time>2022-11-14T17:30:16.0000000+00:00</time></trkpt><trkpt lat="39.48542655" lon="-0.37848123"><ele>9.4</ele><time>2022-11-14T17:30:17.0000000+00:00</time></trkpt><trkpt lat="39.48543174" lon="-0.37848534"><ele>9.4</ele><time>2022-11-14T17:30:18.0000000+00:00</time></trkpt><trkpt lat="39.4854351" lon="-0.3784814"><ele>9.4</ele><time>2022-11-14T17:30:19.0000000+00:00</time></trkpt><trkpt lat="39.4854351" lon="-0.3784814"><ele>9.4</ele><time>2022-11-14T17:30:20.0000000+00:00</time></trkpt><trkpt lat="39.4854351" lon="-0.3784814"><ele>9.4</ele><time>2022-11-14T17:30:21.0000000+00:00</time></trkpt><trkpt lat="39.4854351" lon="-0.3784814"><ele>9.4</ele><time>2022-11-14T17:30:22.0000000+00:00</time></trkpt><trkpt lat="39.4854351" lon="-0.3784814"><ele>9.4</ele><time>2022-11-14T17:30:23.0000000+00:00</time></trkpt><trkpt lat="39.48544582" lon="-0.37848475"><ele>9.4</ele><time>2022-11-14T17:30:24.0000000+00:00</time></trkpt><trkpt lat="39.48546351" lon="-0.37849104"><ele>9.4</ele><time>2022-11-14T17:30:25.0000000+00:00</time></trkpt><trkpt lat="39.48548463" lon="-0.37849691"><ele>9.4</ele><time>2022-11-14T17:30:26.0000000+00:00</time></trkpt><trkpt lat="39.48550651" lon="-0.378499"><ele>9.4</ele><time>2022-11-14T17:30:27.0000000+00:00</time></trkpt><trkpt lat="39.48553861" lon="-0.37850051"><ele>9.4</ele><time>2022-11-14T17:30:28.0000000+00:00</time></trkpt><trkpt lat="39.48556569" lon="-0.37850604"><ele>9.2</ele><time>2022-11-14T17:30:29.0000000+00:00</time></trkpt><trkpt lat="39.48559142" lon="-0.37851552"><ele>9.2</ele><time>2022-11-14T17:30:30.0000000+00:00</time></trkpt><trkpt lat="39.48560651" lon="-0.37853303"><ele>9.2</ele><time>2022-11-14T17:30:31.0000000+00:00</time></trkpt><trkpt lat="39.48561229" lon="-0.37854427"><ele>9.2</ele><time>2022-11-14T17:30:32.0000000+00:00</time></trkpt><trkpt lat="39.48561807" lon="-0.37855768"><ele>9.2</ele><time>2022-11-14T17:30:33.0000000+00:00</time></trkpt><trkpt lat="39.48561966" lon="-0.37855868"><ele>9.2</ele><time>2022-11-14T17:30:34.0000000+00:00</time></trkpt><trkpt lat="39.48562511" lon="-0.37856489"><ele>9.2</ele><time>2022-11-14T17:30:35.0000000+00:00</time></trkpt><trkpt lat="39.48562511" lon="-0.37856489"><ele>9.2</ele><time>2022-11-14T17:30:36.0000000+00:00</time></trkpt><trkpt lat="39.48562511" lon="-0.37856489"><ele>9.2</ele><time>2022-11-14T17:30:37.0000000+00:00</time></trkpt><trkpt lat="39.48562067" lon="-0.37855994"><ele>9.2</ele><time>2022-11-14T17:30:38.0000000+00:00</time></trkpt><trkpt lat="39.48561573" lon="-0.37855759"><ele>9.2</ele><time>2022-11-14T17:30:39.0000000+00:00</time></trkpt><trkpt lat="39.48560416" lon="-0.37854846"><ele>9.2</ele><time>2022-11-14T17:30:40.0000000+00:00</time></trkpt><trkpt lat="39.48560407" lon="-0.37854837"><ele>9.2</ele><time>2022-11-14T17:30:41.0000000+00:00</time></trkpt><trkpt lat="39.48560424" lon="-0.37854846"><ele>9.2</ele><time>2022-11-14T17:30:42.0000000+00:00</time></trkpt><trkpt lat="39.48559653" lon="-0.37852499"><ele>9.2</ele><time>2022-11-14T17:30:43.0000000+00:00</time></trkpt><trkpt lat="39.48559578" lon="-0.37851803"><ele>9.2</ele><time>2022-11-14T17:30:44.0000000+00:00</time></trkpt><trkpt lat="39.48559578" lon="-0.37851803"><ele>9.2</ele><time>2022-11-14T17:30:45.0000000+00:00</time></trkpt><trkpt lat="39.48559578" lon="-0.37851803"><ele>9.2</ele><time>2022-11-14T17:30:46.0000000+00:00</time></trkpt><trkpt lat="39.48559829" lon="-0.37853345"><ele>9.2</ele><time>2022-11-14T17:30:47.0000000+00:00</time></trkpt><trkpt lat="39.48559678" lon="-0.3785358"><ele>9.4</ele><time>2022-11-14T17:30:48.0000000+00:00</time></trkpt><trkpt lat="39.48559544" lon="-0.37853303"><ele>9.4</ele><time>2022-11-14T17:30:49.0000000+00:00</time></trkpt><trkpt lat="39.48559544" lon="-0.37853303"><ele>9.4</ele><time>2022-11-14T17:30:50.0000000+00:00</time></trkpt><trkpt lat="39.48559754" lon="-0.37855256"><ele>9.4</ele><time>2022-11-14T17:30:51.0000000+00:00</time></trkpt><trkpt lat="39.48558597" lon="-0.37856924"><ele>9.4</ele><time>2022-11-14T17:30:52.0000000+00:00</time></trkpt><trkpt lat="39.48559142" lon="-0.37856673"><ele>9.4</ele><time>2022-11-14T17:30:53.0000000+00:00</time></trkpt><trkpt lat="39.48559234" lon="-0.37857939"><ele>9.4</ele><time>2022-11-14T17:30:54.0000000+00:00</time></trkpt><trkpt lat="39.48559435" lon="-0.37857721"><ele>9.4</ele><time>2022-11-14T17:30:55.0000000+00:00</time></trkpt><trkpt lat="39.48559318" lon="-0.37858416"><ele>9.4</ele><time>2022-11-14T17:30:56.0000000+00:00</time></trkpt><trkpt lat="39.48559729" lon="-0.3785897"><ele>9.4</ele><time>2022-11-14T17:30:57.0000000+00:00</time></trkpt><trkpt lat="39.48560265" lon="-0.37859037"><ele>9.4</ele><time>2022-11-14T17:30:58.0000000+00:00</time></trkpt><trkpt lat="39.48559812" lon="-0.37859079"><ele>9.4</ele><time>2022-11-14T17:30:59.0000000+00:00</time></trkpt><trkpt lat="39.48559578" lon="-0.37858785"><ele>9.4</ele><time>2022-11-14T17:31:00.0000000+00:00</time></trkpt><trkpt lat="39.48559603" lon="-0.37859883"><ele>9.4</ele><time>2022-11-14T17:31:01.0000000+00:00</time></trkpt><trkpt lat="39.48559561" lon="-0.37859707"><ele>9.4</ele><time>2022-11-14T17:31:02.0000000+00:00</time></trkpt><trkpt lat="39.48559712" lon="-0.37859062"><ele>9.4</ele><time>2022-11-14T17:31:03.0000000+00:00</time></trkpt><trkpt lat="39.48559871" lon="-0.37859925"><ele>9.4</ele><time>2022-11-14T17:31:04.0000000+00:00</time></trkpt><trkpt lat="39.4856138" lon="-0.37861484"><ele>9.4</ele><time>2022-11-14T17:31:05.0000000+00:00</time></trkpt><trkpt lat="39.48562411" lon="-0.37864041"><ele>9.4</ele><time>2022-11-14T17:31:06.0000000+00:00</time></trkpt><trkpt lat="39.4856381" lon="-0.37867402"><ele>9.4</ele><time>2022-11-14T17:31:07.0000000+00:00</time></trkpt><trkpt lat="39.48564573" lon="-0.37870864"><ele>9.6</ele><time>2022-11-14T17:31:08.0000000+00:00</time></trkpt><trkpt lat="39.48565235" lon="-0.37873831"><ele>9.6</ele><time>2022-11-14T17:31:09.0000000+00:00</time></trkpt><trkpt lat="39.48565948" lon="-0.37877594"><ele>9.6</ele><time>2022-11-14T17:31:10.0000000+00:00</time></trkpt><trkpt lat="39.48566652" lon="-0.37881668"><ele>9.8</ele><time>2022-11-14T17:31:11.0000000+00:00</time></trkpt><trkpt lat="39.48567239" lon="-0.37886571"><ele>9.8</ele><time>2022-11-14T17:31:12.0000000+00:00</time></trkpt><trkpt lat="39.48566895" lon="-0.37892296"><ele>9.8</ele><time>2022-11-14T17:31:13.0000000+00:00</time></trkpt><trkpt lat="39.48570415" lon="-0.37898658"><ele>9.8</ele><time>2022-11-14T17:31:14.0000000+00:00</time></trkpt><trkpt lat="39.48571983" lon="-0.37907182"><ele>9.8</ele><time>2022-11-14T17:31:15.0000000+00:00</time></trkpt><trkpt lat="39.48571807" lon="-0.37914156"><ele>9.8</ele><time>2022-11-14T17:31:16.0000000+00:00</time></trkpt><trkpt lat="39.48571304" lon="-0.37921691"><ele>9.8</ele><time>2022-11-14T17:31:17.0000000+00:00</time></trkpt><trkpt lat="39.48570206" lon="-0.37928003"><ele>9.6</ele><time>2022-11-14T17:31:18.0000000+00:00</time></trkpt><trkpt lat="39.48568781" lon="-0.37932429"><ele>9.6</ele><time>2022-11-14T17:31:19.0000000+00:00</time></trkpt><trkpt lat="39.48566468" lon="-0.37939478"><ele>9.6</ele><time>2022-11-14T17:31:20.0000000+00:00</time></trkpt><trkpt lat="39.48563023" lon="-0.37945194"><ele>9.6</ele><time>2022-11-14T17:31:21.0000000+00:00</time></trkpt><trkpt lat="39.48555588" lon="-0.37951766"><ele>10.0</ele><time>2022-11-14T17:31:22.0000000+00:00</time></trkpt><trkpt lat="39.48555638" lon="-0.37957449"><ele>10.2</ele><time>2022-11-14T17:31:23.0000000+00:00</time></trkpt><trkpt lat="39.48556376" lon="-0.37964883"><ele>10.2</ele><time>2022-11-14T17:31:24.0000000+00:00</time></trkpt><trkpt lat="39.48556569" lon="-0.37972905"><ele>10.2</ele><time>2022-11-14T17:31:25.0000000+00:00</time></trkpt><trkpt lat="39.48556786" lon="-0.37978102"><ele>10.2</ele><time>2022-11-14T17:31:26.0000000+00:00</time></trkpt><trkpt lat="39.48556091" lon="-0.37984069"><ele>10.2</ele><time>2022-11-14T17:31:27.0000000+00:00</time></trkpt><trkpt lat="39.48551858" lon="-0.37987489"><ele>10.2</ele><time>2022-11-14T17:31:28.0000000+00:00</time></trkpt><trkpt lat="39.48548321" lon="-0.37992653"><ele>10.0</ele><time>2022-11-14T17:31:29.0000000+00:00</time></trkpt><trkpt lat="39.48545722" lon="-0.3799919"><ele>10.0</ele><time>2022-11-14T17:31:30.0000000+00:00</time></trkpt><trkpt lat="39.48544993" lon="-0.38005217"><ele>10.0</ele><time>2022-11-14T17:31:31.0000000+00:00</time></trkpt><trkpt lat="39.4854475" lon="-0.38010866"><ele>10.0</ele><time>2022-11-14T17:31:32.0000000+00:00</time></trkpt><trkpt lat="39.48545429" lon="-0.38016189"><ele>9.8</ele><time>2022-11-14T17:31:33.0000000+00:00</time></trkpt><trkpt lat="39.48546846" lon="-0.38021419"><ele>9.8</ele><time>2022-11-14T17:31:34.0000000+00:00</time></trkpt><trkpt lat="39.48548254" lon="-0.38026121"><ele>9.8</ele><time>2022-11-14T17:31:35.0000000+00:00</time></trkpt><trkpt lat="39.48548136" lon="-0.38031804"><ele>9.8</ele><time>2022-11-14T17:31:36.0000000+00:00</time></trkpt><trkpt lat="39.48547742" lon="-0.3803649"><ele>9.6</ele><time>2022-11-14T17:31:37.0000000+00:00</time></trkpt><trkpt lat="39.48548933" lon="-0.38041787"><ele>9.6</ele><time>2022-11-14T17:31:38.0000000+00:00</time></trkpt><trkpt lat="39.48549679" lon="-0.38047663"><ele>9.6</ele><time>2022-11-14T17:31:39.0000000+00:00</time></trkpt><trkpt lat="39.48550098" lon="-0.38055383"><ele>9.8</ele><time>2022-11-14T17:31:40.0000000+00:00</time></trkpt><trkpt lat="39.48552101" lon="-0.38062206"><ele>9.8</ele><time>2022-11-14T17:31:41.0000000+00:00</time></trkpt><trkpt lat="39.48557549" lon="-0.38067922"><ele>10.0</ele><time>2022-11-14T17:31:42.0000000+00:00</time></trkpt><trkpt lat="39.48568018" lon="-0.38076262"><ele>10.0</ele><time>2022-11-14T17:31:43.0000000+00:00</time></trkpt><trkpt lat="39.48570717" lon="-0.38083286"><ele>10.0</ele><time>2022-11-14T17:31:44.0000000+00:00</time></trkpt><trkpt lat="39.48570985" lon="-0.38091182"><ele>10.0</ele><time>2022-11-14T17:31:45.0000000+00:00</time></trkpt><trkpt lat="39.48571664" lon="-0.38097376"><ele>10.0</ele><time>2022-11-14T17:31:46.0000000+00:00</time></trkpt><trkpt lat="39.48572469" lon="-0.38101601"><ele>10.0</ele><time>2022-11-14T17:31:47.0000000+00:00</time></trkpt><trkpt lat="39.48573299" lon="-0.38107057"><ele>9.8</ele><time>2022-11-14T17:31:48.0000000+00:00</time></trkpt><trkpt lat="39.48573425" lon="-0.38110033"><ele>9.8</ele><time>2022-11-14T17:31:49.0000000+00:00</time></trkpt><trkpt lat="39.48573559" lon="-0.38113796"><ele>9.6</ele><time>2022-11-14T17:31:50.0000000+00:00</time></trkpt><trkpt lat="39.48573626" lon="-0.38118482"><ele>9.6</ele><time>2022-11-14T17:31:51.0000000+00:00</time></trkpt><trkpt lat="39.48574841" lon="-0.38123343"><ele>9.6</ele><time>2022-11-14T17:31:52.0000000+00:00</time></trkpt><trkpt lat="39.48575755" lon="-0.3812823"><ele>9.6</ele><time>2022-11-14T17:31:53.0000000+00:00</time></trkpt><trkpt lat="39.48576886" lon="-0.38133728"><ele>9.4</ele><time>2022-11-14T17:31:54.0000000+00:00</time></trkpt><trkpt lat="39.48577599" lon="-0.38139495"><ele>9.4</ele><time>2022-11-14T17:31:55.0000000+00:00</time></trkpt><trkpt lat="39.48578269" lon="-0.38144809"><ele>9.4</ele><time>2022-11-14T17:31:56.0000000+00:00</time></trkpt><trkpt lat="39.485792" lon="-0.38149796"><ele>9.4</ele><time>2022-11-14T17:31:57.0000000+00:00</time></trkpt><trkpt lat="39.48580423" lon="-0.38154306"><ele>9.4</ele><time>2022-11-14T17:31:58.0000000+00:00</time></trkpt><trkpt lat="39.48581471" lon="-0.38158405"><ele>9.4</ele><time>2022-11-14T17:31:59.0000000+00:00</time></trkpt><trkpt lat="39.48582008" lon="-0.38162646"><ele>9.6</ele><time>2022-11-14T17:32:00.0000000+00:00</time></trkpt><trkpt lat="39.48582578" lon="-0.38165412"><ele>9.6</ele><time>2022-11-14T17:32:01.0000000+00:00</time></trkpt><trkpt lat="39.48583039" lon="-0.38167533"><ele>9.6</ele><time>2022-11-14T17:32:02.0000000+00:00</time></trkpt><trkpt lat="39.48582972" lon="-0.38169377"><ele>9.6</ele><time>2022-11-14T17:32:03.0000000+00:00</time></trkpt><trkpt lat="39.48582921" lon="-0.3816998"><ele>9.6</ele><time>2022-11-14T17:32:04.0000000+00:00</time></trkpt><trkpt lat="39.48583349" lon="-0.38170776"><ele>9.4</ele><time>2022-11-14T17:32:05.0000000+00:00</time></trkpt><trkpt lat="39.4858391" lon="-0.38173324"><ele>9.4</ele><time>2022-11-14T17:32:06.0000000+00:00</time></trkpt><trkpt lat="39.48584422" lon="-0.38176233"><ele>9.4</ele><time>2022-11-14T17:32:07.0000000+00:00</time></trkpt><trkpt lat="39.48585134" lon="-0.38180365"><ele>9.4</ele><time>2022-11-14T17:32:08.0000000+00:00</time></trkpt><trkpt lat="39.48585419" lon="-0.38184003"><ele>9.4</ele><time>2022-11-14T17:32:09.0000000+00:00</time></trkpt><trkpt lat="39.48585955" lon="-0.38188303"><ele>9.6</ele><time>2022-11-14T17:32:10.0000000+00:00</time></trkpt><trkpt lat="39.48586416" lon="-0.38192787"><ele>9.6</ele><time>2022-11-14T17:32:11.0000000+00:00</time></trkpt><trkpt lat="39.48586928" lon="-0.38198554"><ele>9.8</ele><time>2022-11-14T17:32:12.0000000+00:00</time></trkpt><trkpt lat="39.4858728" lon="-0.38204212"><ele>9.8</ele><time>2022-11-14T17:32:13.0000000+00:00</time></trkpt><trkpt lat="39.48587171" lon="-0.38209652"><ele>10.0</ele><time>2022-11-14T17:32:14.0000000+00:00</time></trkpt><trkpt lat="39.48586634" lon="-0.3821256"><ele>10.0</ele><time>2022-11-14T17:32:15.0000000+00:00</time></trkpt><trkpt lat="39.48586023" lon="-0.38217187"><ele>10.0</ele><time>2022-11-14T17:32:16.0000000+00:00</time></trkpt><trkpt lat="39.48585092" lon="-0.38221302"><ele>10.2</ele><time>2022-11-14T17:32:17.0000000+00:00</time></trkpt><trkpt lat="39.48584028" lon="-0.38226533"><ele>10.2</ele><time>2022-11-14T17:32:18.0000000+00:00</time></trkpt><trkpt lat="39.48584011" lon="-0.38230372"><ele>10.2</ele><time>2022-11-14T17:32:19.0000000+00:00</time></trkpt><trkpt lat="39.48585754" lon="-0.38235803"><ele>10.4</ele><time>2022-11-14T17:32:20.0000000+00:00</time></trkpt><trkpt lat="39.48587976" lon="-0.38241444"><ele>10.4</ele><time>2022-11-14T17:32:21.0000000+00:00</time></trkpt><trkpt lat="39.48589727" lon="-0.38247571"><ele>10.4</ele><time>2022-11-14T17:32:22.0000000+00:00</time></trkpt><trkpt lat="39.48589736" lon="-0.38253481"><ele>10.4</ele><time>2022-11-14T17:32:23.0000000+00:00</time></trkpt><trkpt lat="39.4859132" lon="-0.38260287"><ele>10.4</ele><time>2022-11-14T17:32:24.0000000+00:00</time></trkpt><trkpt lat="39.48592401" lon="-0.38265157"><ele>10.6</ele><time>2022-11-14T17:32:25.0000000+00:00</time></trkpt><trkpt lat="39.48593038" lon="-0.38268794"><ele>10.6</ele><time>2022-11-14T17:32:26.0000000+00:00</time></trkpt><trkpt lat="39.48593256" lon="-0.38271988"><ele>10.6</ele><time>2022-11-14T17:32:27.0000000+00:00</time></trkpt><trkpt lat="39.48593239" lon="-0.38274913"><ele>10.6</ele><time>2022-11-14T17:32:28.0000000+00:00</time></trkpt><trkpt lat="39.48592803" lon="-0.38277771"><ele>10.8</ele><time>2022-11-14T17:32:29.0000000+00:00</time></trkpt><trkpt lat="39.48591965" lon="-0.38281334"><ele>10.8</ele><time>2022-11-14T17:32:30.0000000+00:00</time></trkpt><trkpt lat="39.48589878" lon="-0.38285139"><ele>10.8</ele><time>2022-11-14T17:32:31.0000000+00:00</time></trkpt><trkpt lat="39.4858904" lon="-0.38288743"><ele>11.0</ele><time>2022-11-14T17:32:32.0000000+00:00</time></trkpt><trkpt lat="39.48589786" lon="-0.3829285"><ele>11.0</ele><time>2022-11-14T17:32:33.0000000+00:00</time></trkpt><trkpt lat="39.48590465" lon="-0.3829746"><ele>11.0</ele><time>2022-11-14T17:32:34.0000000+00:00</time></trkpt><trkpt lat="39.48590322" lon="-0.38302213"><ele>11.0</ele><time>2022-11-14T17:32:35.0000000+00:00</time></trkpt><trkpt lat="39.48589032" lon="-0.3830663"><ele>11.0</ele><time>2022-11-14T17:32:36.0000000+00:00</time></trkpt><trkpt lat="39.48586718" lon="-0.38309195"><ele>10.8</ele><time>2022-11-14T17:32:37.0000000+00:00</time></trkpt><trkpt lat="39.4858324" lon="-0.38309924"><ele>10.8</ele><time>2022-11-14T17:32:38.0000000+00:00</time></trkpt><trkpt lat="39.48580868" lon="-0.38310058"><ele>10.8</ele><time>2022-11-14T17:32:39.0000000+00:00</time></trkpt><trkpt lat="39.48577515" lon="-0.38309815"><ele>10.8</ele><time>2022-11-14T17:32:40.0000000+00:00</time></trkpt><trkpt lat="39.48574757" lon="-0.38308466"><ele>10.8</ele><time>2022-11-14T17:32:41.0000000+00:00</time></trkpt><trkpt lat="39.48572083" lon="-0.38307829"><ele>10.8</ele><time>2022-11-14T17:32:42.0000000+00:00</time></trkpt><trkpt lat="39.48569628" lon="-0.38308441"><ele>10.8</ele><time>2022-11-14T17:32:43.0000000+00:00</time></trkpt><trkpt lat="39.48567515" lon="-0.3830912"><ele>10.8</ele><time>2022-11-14T17:32:44.0000000+00:00</time></trkpt><trkpt lat="39.48566987" lon="-0.38309262"><ele>10.8</ele><time>2022-11-14T17:32:45.0000000+00:00</time></trkpt><trkpt lat="39.48566945" lon="-0.3830943"><ele>10.6</ele><time>2022-11-14T17:32:46.0000000+00:00</time></trkpt><trkpt lat="39.48566862" lon="-0.38309832"><ele>10.6</ele><time>2022-11-14T17:32:47.0000000+00:00</time></trkpt><trkpt lat="39.48566862" lon="-0.38309832"><ele>10.6</ele><time>2022-11-14T17:32:48.0000000+00:00</time></trkpt><trkpt lat="39.48566862" lon="-0.38309832"><ele>10.8</ele><time>2022-11-14T17:32:49.0000000+00:00</time></trkpt><trkpt lat="39.48566862" lon="-0.38309832"><ele>10.8</ele><time>2022-11-14T17:32:50.0000000+00:00</time></trkpt><trkpt lat="39.48566862" lon="-0.38309832"><ele>10.8</ele><time>2022-11-14T17:32:51.0000000+00:00</time></trkpt><trkpt lat="39.48567029" lon="-0.38309916"><ele>10.8</ele><time>2022-11-14T17:32:52.0000000+00:00</time></trkpt><trkpt lat="39.48567415" lon="-0.38310553"><ele>10.8</ele><time>2022-11-14T17:32:53.0000000+00:00</time></trkpt><trkpt lat="39.48567809" lon="-0.38311441"><ele>10.6</ele><time>2022-11-14T17:32:54.0000000+00:00</time></trkpt><trkpt lat="39.48567574" lon="-0.38312598"><ele>10.6</ele><time>2022-11-14T17:32:55.0000000+00:00</time></trkpt><trkpt lat="39.48567113" lon="-0.38314115"><ele>10.6</ele><time>2022-11-14T17:32:56.0000000+00:00</time></trkpt><trkpt lat="39.48566509" lon="-0.38315356"><ele>10.6</ele><time>2022-11-14T17:32:57.0000000+00:00</time></trkpt><trkpt lat="39.48565395" lon="-0.38315649"><ele>10.6</ele><time>2022-11-14T17:32:58.0000000+00:00</time></trkpt><trkpt lat="39.48563408" lon="-0.38315549"><ele>10.6</ele><time>2022-11-14T17:32:59.0000000+00:00</time></trkpt><trkpt lat="39.48560491" lon="-0.38314434"><ele>10.6</ele><time>2022-11-14T17:33:00.0000000+00:00</time></trkpt><trkpt lat="39.48555906" lon="-0.38312875"><ele>10.6</ele><time>2022-11-14T17:33:01.0000000+00:00</time></trkpt><trkpt lat="39.48550869" lon="-0.38311441"><ele>10.6</ele><time>2022-11-14T17:33:02.0000000+00:00</time></trkpt><trkpt lat="39.48545027" lon="-0.38310293"><ele>10.6</ele><time>2022-11-14T17:33:03.0000000+00:00</time></trkpt><trkpt lat="39.4853812" lon="-0.38308977"><ele>10.6</ele><time>2022-11-14T17:33:04.0000000+00:00</time></trkpt><trkpt lat="39.48533979" lon="-0.38307561"><ele>10.4</ele><time>2022-11-14T17:33:05.0000000+00:00</time></trkpt><trkpt lat="39.48528556" lon="-0.38305323"><ele>10.4</ele><time>2022-11-14T17:33:06.0000000+00:00</time></trkpt><trkpt lat="39.48523703" lon="-0.38303529"><ele>10.4</ele><time>2022-11-14T17:33:07.0000000+00:00</time></trkpt><trkpt lat="39.48519906" lon="-0.38301886"><ele>10.4</ele><time>2022-11-14T17:33:08.0000000+00:00</time></trkpt><trkpt lat="39.48515195" lon="-0.38299749"><ele>10.4</ele><time>2022-11-14T17:33:09.0000000+00:00</time></trkpt><trkpt lat="39.48509932" lon="-0.38297595"><ele>10.2</ele><time>2022-11-14T17:33:10.0000000+00:00</time></trkpt><trkpt lat="39.48505556" lon="-0.38295809"><ele>10.2</ele><time>2022-11-14T17:33:11.0000000+00:00</time></trkpt><trkpt lat="39.48501181" lon="-0.38293513"><ele>10.2</ele><time>2022-11-14T17:33:12.0000000+00:00</time></trkpt><trkpt lat="39.48496529" lon="-0.38290436"><ele>10.2</ele><time>2022-11-14T17:33:13.0000000+00:00</time></trkpt><trkpt lat="39.48492816" lon="-0.38288391"><ele>10.2</ele><time>2022-11-14T17:33:14.0000000+00:00</time></trkpt><trkpt lat="39.4848958" lon="-0.3828653"><ele>10.2</ele><time>2022-11-14T17:33:15.0000000+00:00</time></trkpt><trkpt lat="39.48487544" lon="-0.38286103"><ele>10.2</ele><time>2022-11-14T17:33:16.0000000+00:00</time></trkpt><trkpt lat="39.48485012" lon="-0.38285575"><ele>10.2</ele><time>2022-11-14T17:33:17.0000000+00:00</time></trkpt><trkpt lat="39.48482749" lon="-0.38283429"><ele>10.2</ele><time>2022-11-14T17:33:18.0000000+00:00</time></trkpt><trkpt lat="39.48481509" lon="-0.38282013"><ele>10.2</ele><time>2022-11-14T17:33:19.0000000+00:00</time></trkpt><trkpt lat="39.48481509" lon="-0.38282013"><ele>10.2</ele><time>2022-11-14T17:33:20.0000000+00:00</time></trkpt><trkpt lat="39.48481274" lon="-0.3828234"><ele>10.2</ele><time>2022-11-14T17:33:21.0000000+00:00</time></trkpt><trkpt lat="39.48480494" lon="-0.38281661"><ele>10.2</ele><time>2022-11-14T17:33:22.0000000+00:00</time></trkpt><trkpt lat="39.48478776" lon="-0.38280563"><ele>10.2</ele><time>2022-11-14T17:33:23.0000000+00:00</time></trkpt><trkpt lat="39.48476714" lon="-0.38280152"><ele>10.2</ele><time>2022-11-14T17:33:24.0000000+00:00</time></trkpt><trkpt lat="39.4847456" lon="-0.38279582"><ele>10.2</ele><time>2022-11-14T17:33:25.0000000+00:00</time></trkpt><trkpt lat="39.48471157" lon="-0.38279423"><ele>10.2</ele><time>2022-11-14T17:33:26.0000000+00:00</time></trkpt><trkpt lat="39.48467041" lon="-0.38279414"><ele>10.4</ele><time>2022-11-14T17:33:27.0000000+00:00</time></trkpt><trkpt lat="39.48465533" lon="-0.38279657"><ele>10.4</ele><time>2022-11-14T17:33:28.0000000+00:00</time></trkpt><trkpt lat="39.48475935" lon="-0.38278786"><ele>10.4</ele><time>2022-11-14T17:33:29.0000000+00:00</time></trkpt><trkpt lat="39.48479958" lon="-0.38280378"><ele>10.4</ele><time>2022-11-14T17:33:30.0000000+00:00</time></trkpt><trkpt lat="39.48477938" lon="-0.38282583"><ele>10.4</ele><time>2022-11-14T17:33:31.0000000+00:00</time></trkpt><trkpt lat="39.48470931" lon="-0.38280319"><ele>10.4</ele><time>2022-11-14T17:33:32.0000000+00:00</time></trkpt><trkpt lat="39.48464099" lon="-0.38284351"><ele>10.4</ele><time>2022-11-14T17:33:33.0000000+00:00</time></trkpt><trkpt lat="39.48463035" lon="-0.38296362"><ele>10.4</ele><time>2022-11-14T17:33:34.0000000+00:00</time></trkpt><trkpt lat="39.48461635" lon="-0.38304862"><ele>10.4</ele><time>2022-11-14T17:33:35.0000000+00:00</time></trkpt><trkpt lat="39.48453982" lon="-0.38309857"><ele>10.4</ele><time>2022-11-14T17:33:36.0000000+00:00</time></trkpt><trkpt lat="39.48447662" lon="-0.38313646"><ele>10.4</ele><time>2022-11-14T17:33:37.0000000+00:00</time></trkpt><trkpt lat="39.48438635" lon="-0.38316756"><ele>10.4</ele><time>2022-11-14T17:33:38.0000000+00:00</time></trkpt><trkpt lat="39.48432357" lon="-0.38320955"><ele>10.4</ele><time>2022-11-14T17:33:39.0000000+00:00</time></trkpt><trkpt lat="39.48427831" lon="-0.38323754"><ele>10.4</ele><time>2022-11-14T17:33:40.0000000+00:00</time></trkpt><trkpt lat="39.48424411" lon="-0.38326562"><ele>10.4</ele><time>2022-11-14T17:33:41.0000000+00:00</time></trkpt><trkpt lat="39.484225" lon="-0.38328406"><ele>10.4</ele><time>2022-11-14T17:33:42.0000000+00:00</time></trkpt><trkpt lat="39.48415744" lon="-0.38330301"><ele>10.2</ele><time>2022-11-14T17:33:43.0000000+00:00</time></trkpt><trkpt lat="39.48411821" lon="-0.3833305"><ele>10.2</ele><time>2022-11-14T17:33:44.0000000+00:00</time></trkpt><trkpt lat="39.48410279" lon="-0.38335397"><ele>10.2</ele><time>2022-11-14T17:33:45.0000000+00:00</time></trkpt><trkpt lat="39.4840877" lon="-0.38337794"><ele>10.2</ele><time>2022-11-14T17:33:46.0000000+00:00</time></trkpt><trkpt lat="39.48407454" lon="-0.38340451"><ele>10.0</ele><time>2022-11-14T17:33:47.0000000+00:00</time></trkpt><trkpt lat="39.48405409" lon="-0.3834082"><ele>10.0</ele><time>2022-11-14T17:33:48.0000000+00:00</time></trkpt><trkpt lat="39.4840354" lon="-0.38341139"><ele>10.0</ele><time>2022-11-14T17:33:49.0000000+00:00</time></trkpt><trkpt lat="39.48404018" lon="-0.3834279"><ele>10.0</ele><time>2022-11-14T17:33:50.0000000+00:00</time></trkpt><trkpt lat="39.48404454" lon="-0.38343955"><ele>10.0</ele><time>2022-11-14T17:33:51.0000000+00:00</time></trkpt><trkpt lat="39.48404647" lon="-0.38344709"><ele>10.0</ele><time>2022-11-14T17:33:52.0000000+00:00</time></trkpt><trkpt lat="39.48404261" lon="-0.3834419"><ele>10.0</ele><time>2022-11-14T17:33:53.0000000+00:00</time></trkpt><trkpt lat="39.48403984" lon="-0.38345254"><ele>10.0</ele><time>2022-11-14T17:33:54.0000000+00:00</time></trkpt><trkpt lat="39.48403884" lon="-0.38345296"><ele>10.0</ele><time>2022-11-14T17:33:55.0000000+00:00</time></trkpt><trkpt lat="39.48403884" lon="-0.38345296"><ele>9.8</ele><time>2022-11-14T17:33:56.0000000+00:00</time></trkpt><trkpt lat="39.4840432" lon="-0.38345841"><ele>9.8</ele><time>2022-11-14T17:33:57.0000000+00:00</time></trkpt><trkpt lat="39.48404169" lon="-0.38345179"><ele>9.8</ele><time>2022-11-14T17:33:58.0000000+00:00</time></trkpt><trkpt lat="39.48404043" lon="-0.38346897"><ele>9.6</ele><time>2022-11-14T17:33:59.0000000+00:00</time></trkpt><trkpt lat="39.48403959" lon="-0.38346453"><ele>9.6</ele><time>2022-11-14T17:34:00.0000000+00:00</time></trkpt><trkpt lat="39.48403959" lon="-0.38346453"><ele>9.6</ele><time>2022-11-14T17:34:01.0000000+00:00</time></trkpt><trkpt lat="39.4840546" lon="-0.38347249"><ele>9.6</ele><time>2022-11-14T17:34:02.0000000+00:00</time></trkpt><trkpt lat="39.4840525" lon="-0.38347065"><ele>9.6</ele><time>2022-11-14T17:34:03.0000000+00:00</time></trkpt><trkpt lat="39.48405057" lon="-0.38348045"><ele>9.6</ele><time>2022-11-14T17:34:04.0000000+00:00</time></trkpt><trkpt lat="39.48404873" lon="-0.3834802"><ele>9.8</ele><time>2022-11-14T17:34:05.0000000+00:00</time></trkpt><trkpt lat="39.48404873" lon="-0.3834802"><ele>9.8</ele><time>2022-11-14T17:34:06.0000000+00:00</time></trkpt><trkpt lat="39.48404873" lon="-0.3834802"><ele>9.8</ele><time>2022-11-14T17:34:07.0000000+00:00</time></trkpt><trkpt lat="39.48404873" lon="-0.3834802"><ele>9.8</ele><time>2022-11-14T17:34:08.0000000+00:00</time></trkpt><trkpt lat="39.48404873" lon="-0.3834802"><ele>9.8</ele><time>2022-11-14T17:34:09.0000000+00:00</time></trkpt><trkpt lat="39.48404873" lon="-0.3834802"><ele>9.8</ele><time>2022-11-14T17:34:10.0000000+00:00</time></trkpt><trkpt lat="39.48405066" lon="-0.38349177"><ele>9.8</ele><time>2022-11-14T17:34:11.0000000+00:00</time></trkpt><trkpt lat="39.48404722" lon="-0.38349914"><ele>9.6</ele><time>2022-11-14T17:34:12.0000000+00:00</time></trkpt><trkpt lat="39.48404328" lon="-0.3834952"><ele>9.6</ele><time>2022-11-14T17:34:13.0000000+00:00</time></trkpt><trkpt lat="39.48404328" lon="-0.3834952"><ele>9.6</ele><time>2022-11-14T17:34:14.0000000+00:00</time></trkpt><trkpt lat="39.4840437" lon="-0.38350325"><ele>9.6</ele><time>2022-11-14T17:34:15.0000000+00:00</time></trkpt><trkpt lat="39.48404278" lon="-0.38348892"><ele>9.4</ele><time>2022-11-14T17:34:16.0000000+00:00</time></trkpt><trkpt lat="39.48404814" lon="-0.3834719"><ele>9.4</ele><time>2022-11-14T17:34:17.0000000+00:00</time></trkpt><trkpt lat="39.48404873" lon="-0.38346436"><ele>9.4</ele><time>2022-11-14T17:34:18.0000000+00:00</time></trkpt><trkpt lat="39.48404755" lon="-0.38344894"><ele>9.4</ele><time>2022-11-14T17:34:19.0000000+00:00</time></trkpt><trkpt lat="39.48404948" lon="-0.38343972"><ele>9.4</ele><time>2022-11-14T17:34:20.0000000+00:00</time></trkpt><trkpt lat="39.48403917" lon="-0.38343335"><ele>9.4</ele><time>2022-11-14T17:34:21.0000000+00:00</time></trkpt><trkpt lat="39.48403196" lon="-0.38342924"><ele>9.4</ele><time>2022-11-14T17:34:22.0000000+00:00</time></trkpt><trkpt lat="39.48403196" lon="-0.38342924"><ele>9.4</ele><time>2022-11-14T17:34:23.0000000+00:00</time></trkpt><trkpt lat="39.48403196" lon="-0.38344332"><ele>9.4</ele><time>2022-11-14T17:34:24.0000000+00:00</time></trkpt><trkpt lat="39.48402417" lon="-0.38346612"><ele>9.4</ele><time>2022-11-14T17:34:25.0000000+00:00</time></trkpt><trkpt lat="39.48401059" lon="-0.38350761"><ele>9.6</ele><time>2022-11-14T17:34:26.0000000+00:00</time></trkpt><trkpt lat="39.48398771" lon="-0.38352831"><ele>9.8</ele><time>2022-11-14T17:34:27.0000000+00:00</time></trkpt><trkpt lat="39.48396541" lon="-0.3835688"><ele>9.8</ele><time>2022-11-14T17:34:28.0000000+00:00</time></trkpt><trkpt lat="39.48396164" lon="-0.38359755"><ele>9.8</ele><time>2022-11-14T17:34:29.0000000+00:00</time></trkpt><trkpt lat="39.48395879" lon="-0.38363267"><ele>9.8</ele><time>2022-11-14T17:34:30.0000000+00:00</time></trkpt><trkpt lat="39.48394546" lon="-0.38366737"><ele>9.8</ele><time>2022-11-14T17:34:31.0000000+00:00</time></trkpt><trkpt lat="39.48392367" lon="-0.38371456"><ele>9.8</ele><time>2022-11-14T17:34:32.0000000+00:00</time></trkpt><trkpt lat="39.48390724" lon="-0.38374834"><ele>9.8</ele><time>2022-11-14T17:34:33.0000000+00:00</time></trkpt><trkpt lat="39.48388562" lon="-0.38379813"><ele>9.8</ele><time>2022-11-14T17:34:34.0000000+00:00</time></trkpt><trkpt lat="39.483851" lon="-0.38383241"><ele>9.8</ele><time>2022-11-14T17:34:35.0000000+00:00</time></trkpt><trkpt lat="39.48380775" lon="-0.38387532"><ele>9.8</ele><time>2022-11-14T17:34:36.0000000+00:00</time></trkpt><trkpt lat="39.48377322" lon="-0.38391438"><ele>9.8</ele><time>2022-11-14T17:34:37.0000000+00:00</time></trkpt><trkpt lat="39.48370004" lon="-0.38397851"><ele>9.8</ele><time>2022-11-14T17:34:38.0000000+00:00</time></trkpt><trkpt lat="39.48364112" lon="-0.38404598"><ele>9.6</ele><time>2022-11-14T17:34:39.0000000+00:00</time></trkpt><trkpt lat="39.48362569" lon="-0.38409661"><ele>9.6</ele><time>2022-11-14T17:34:40.0000000+00:00</time></trkpt><trkpt lat="39.48361597" lon="-0.3841593"><ele>9.6</ele><time>2022-11-14T17:34:41.0000000+00:00</time></trkpt><trkpt lat="39.48365654" lon="-0.38423558"><ele>9.6</ele><time>2022-11-14T17:34:42.0000000+00:00</time></trkpt><trkpt lat="39.48364774" lon="-0.38428889"><ele>9.4</ele><time>2022-11-14T17:34:43.0000000+00:00</time></trkpt><trkpt lat="39.4836355" lon="-0.38432728"><ele>9.4</ele><time>2022-11-14T17:34:44.0000000+00:00</time></trkpt><trkpt lat="39.48362016" lon="-0.38438268"><ele>9.4</ele><time>2022-11-14T17:34:45.0000000+00:00</time></trkpt><trkpt lat="39.48360566" lon="-0.38443607"><ele>9.4</ele><time>2022-11-14T17:34:46.0000000+00:00</time></trkpt><trkpt lat="39.48359384" lon="-0.38449374"><ele>9.4</ele><time>2022-11-14T17:34:47.0000000+00:00</time></trkpt><trkpt lat="39.48357993" lon="-0.38455334"><ele>9.4</ele><time>2022-11-14T17:34:48.0000000+00:00</time></trkpt><trkpt lat="39.48356199" lon="-0.38461335"><ele>9.2</ele><time>2022-11-14T17:34:49.0000000+00:00</time></trkpt><trkpt lat="39.48354263" lon="-0.38466574"><ele>9.2</ele><time>2022-11-14T17:34:50.0000000+00:00</time></trkpt><trkpt lat="39.48354632" lon="-0.384725"><ele>9.0</ele><time>2022-11-14T17:34:51.0000000+00:00</time></trkpt><trkpt lat="39.48354129" lon="-0.38478929"><ele>9.0</ele><time>2022-11-14T17:34:52.0000000+00:00</time></trkpt><trkpt lat="39.48353651" lon="-0.3848441"><ele>8.8</ele><time>2022-11-14T17:34:53.0000000+00:00</time></trkpt><trkpt lat="39.48353106" lon="-0.38487629"><ele>8.6</ele><time>2022-11-14T17:34:54.0000000+00:00</time></trkpt><trkpt lat="39.48351639" lon="-0.38488719"><ele>8.6</ele><time>2022-11-14T17:34:55.0000000+00:00</time></trkpt><trkpt lat="39.48349795" lon="-0.38489104"><ele>8.4</ele><time>2022-11-14T17:34:56.0000000+00:00</time></trkpt><trkpt lat="39.4834252" lon="-0.38489574"><ele>8.4</ele><time>2022-11-14T17:34:57.0000000+00:00</time></trkpt><trkpt lat="39.4833703" lon="-0.38490697"><ele>8.4</ele><time>2022-11-14T17:34:58.0000000+00:00</time></trkpt><trkpt lat="39.48337105" lon="-0.38490496"><ele>8.4</ele><time>2022-11-14T17:34:59.0000000+00:00</time></trkpt><trkpt lat="39.48337105" lon="-0.38490496"><ele>8.4</ele><time>2022-11-14T17:35:00.0000000+00:00</time></trkpt><trkpt lat="39.48331246" lon="-0.38493438"><ele>8.4</ele><time>2022-11-14T17:35:01.0000000+00:00</time></trkpt><trkpt lat="39.48331053" lon="-0.38493882"><ele>8.4</ele><time>2022-11-14T17:35:02.0000000+00:00</time></trkpt><trkpt lat="39.48331053" lon="-0.38493882"><ele>8.4</ele><time>2022-11-14T17:35:03.0000000+00:00</time></trkpt><trkpt lat="39.48331053" lon="-0.38493882"><ele>8.4</ele><time>2022-11-14T17:35:04.0000000+00:00</time></trkpt><trkpt lat="39.48331053" lon="-0.38493882"><ele>8.4</ele><time>2022-11-14T17:35:05.0000000+00:00</time></trkpt><trkpt lat="39.48331053" lon="-0.38493882"><ele>8.4</ele><time>2022-11-14T17:35:06.0000000+00:00</time></trkpt><trkpt lat="39.48331053" lon="-0.38493882"><ele>8.6</ele><time>2022-11-14T17:35:07.0000000+00:00</time></trkpt><trkpt lat="39.48331053" lon="-0.38493882"><ele>8.6</ele><time>2022-11-14T17:35:08.0000000+00:00</time></trkpt><trkpt lat="39.48331053" lon="-0.38493882"><ele>8.6</ele><time>2022-11-14T17:35:09.0000000+00:00</time></trkpt><trkpt lat="39.48330844" lon="-0.38493899"><ele>8.6</ele><time>2022-11-14T17:35:10.0000000+00:00</time></trkpt><trkpt lat="39.48331028" lon="-0.3849353"><ele>8.6</ele><time>2022-11-14T17:35:11.0000000+00:00</time></trkpt><trkpt lat="39.48331028" lon="-0.3849353"><ele>8.6</ele><time>2022-11-14T17:35:12.0000000+00:00</time></trkpt><trkpt lat="39.48331028" lon="-0.3849353"><ele>8.6</ele><time>2022-11-14T17:35:13.0000000+00:00</time></trkpt><trkpt lat="39.48331028" lon="-0.3849353"><ele>8.6</ele><time>2022-11-14T17:35:14.0000000+00:00</time></trkpt><trkpt lat="39.48331062" lon="-0.38492994"><ele>8.6</ele><time>2022-11-14T17:35:15.0000000+00:00</time></trkpt><trkpt lat="39.48331204" lon="-0.38493362"><ele>8.6</ele><time>2022-11-14T17:35:16.0000000+00:00</time></trkpt><trkpt lat="39.48331204" lon="-0.38493362"><ele>8.6</ele><time>2022-11-14T17:35:17.0000000+00:00</time></trkpt><trkpt lat="39.483305" lon="-0.38496791"><ele>8.6</ele><time>2022-11-14T17:35:18.0000000+00:00</time></trkpt><trkpt lat="39.48330827" lon="-0.38499171"><ele>8.6</ele><time>2022-11-14T17:35:19.0000000+00:00</time></trkpt><trkpt lat="39.48331473" lon="-0.38500294"><ele>8.4</ele><time>2022-11-14T17:35:20.0000000+00:00</time></trkpt><trkpt lat="39.48332093" lon="-0.38500604"><ele>8.4</ele><time>2022-11-14T17:35:21.0000000+00:00</time></trkpt><trkpt lat="39.48332151" lon="-0.38501275"><ele>8.4</ele><time>2022-11-14T17:35:22.0000000+00:00</time></trkpt><trkpt lat="39.48331732" lon="-0.38502557"><ele>8.6</ele><time>2022-11-14T17:35:23.0000000+00:00</time></trkpt><trkpt lat="39.4833138" lon="-0.38503932"><ele>8.6</ele><time>2022-11-14T17:35:24.0000000+00:00</time></trkpt><trkpt lat="39.48331322" lon="-0.38507151"><ele>8.6</ele><time>2022-11-14T17:35:25.0000000+00:00</time></trkpt><trkpt lat="39.48331766" lon="-0.38511082"><ele>8.6</ele><time>2022-11-14T17:35:26.0000000+00:00</time></trkpt><trkpt lat="39.48332143" lon="-0.38515851"><ele>8.6</ele><time>2022-11-14T17:35:27.0000000+00:00</time></trkpt><trkpt lat="39.48333543" lon="-0.38519078"><ele>8.6</ele><time>2022-11-14T17:35:28.0000000+00:00</time></trkpt><trkpt lat="39.48334943" lon="-0.3852109"><ele>8.6</ele><time>2022-11-14T17:35:29.0000000+00:00</time></trkpt><trkpt lat="39.48335387" lon="-0.38523437"><ele>8.6</ele><time>2022-11-14T17:35:30.0000000+00:00</time></trkpt><trkpt lat="39.48334716" lon="-0.38525901"><ele>8.6</ele><time>2022-11-14T17:35:31.0000000+00:00</time></trkpt><trkpt lat="39.48333065" lon="-0.38529103"><ele>8.6</ele><time>2022-11-14T17:35:32.0000000+00:00</time></trkpt><trkpt lat="39.48331053" lon="-0.38532271"><ele>8.6</ele><time>2022-11-14T17:35:33.0000000+00:00</time></trkpt><trkpt lat="39.48327449" lon="-0.38536839"><ele>8.6</ele><time>2022-11-14T17:35:34.0000000+00:00</time></trkpt><trkpt lat="39.48323065" lon="-0.38539873"><ele>8.6</ele><time>2022-11-14T17:35:35.0000000+00:00</time></trkpt><trkpt lat="39.48318489" lon="-0.38541986"><ele>8.6</ele><time>2022-11-14T17:35:36.0000000+00:00</time></trkpt><trkpt lat="39.48315824" lon="-0.38551725"><ele>8.4</ele><time>2022-11-14T17:35:37.0000000+00:00</time></trkpt><trkpt lat="39.48312814" lon="-0.38559437"><ele>8.4</ele><time>2022-11-14T17:35:38.0000000+00:00</time></trkpt><trkpt lat="39.48310317" lon="-0.38566536"><ele>8.4</ele><time>2022-11-14T17:35:39.0000000+00:00</time></trkpt><trkpt lat="39.4830797" lon="-0.38572043"><ele>8.4</ele><time>2022-11-14T17:35:40.0000000+00:00</time></trkpt><trkpt lat="39.48305128" lon="-0.38575321"><ele>8.4</ele><time>2022-11-14T17:35:41.0000000+00:00</time></trkpt><trkpt lat="39.48302882" lon="-0.3857931"><ele>8.4</ele><time>2022-11-14T17:35:42.0000000+00:00</time></trkpt><trkpt lat="39.48301038" lon="-0.38583669"><ele>8.6</ele><time>2022-11-14T17:35:43.0000000+00:00</time></trkpt><trkpt lat="39.48299672" lon="-0.38586393"><ele>8.6</ele><time>2022-11-14T17:35:44.0000000+00:00</time></trkpt><trkpt lat="39.48298029" lon="-0.3859169"><ele>8.8</ele><time>2022-11-14T17:35:45.0000000+00:00</time></trkpt><trkpt lat="39.48295347" lon="-0.38599502"><ele>8.8</ele><time>2022-11-14T17:35:46.0000000+00:00</time></trkpt><trkpt lat="39.48294844" lon="-0.38604397"><ele>9.0</ele><time>2022-11-14T17:35:47.0000000+00:00</time></trkpt><trkpt lat="39.48293553" lon="-0.38608857"><ele>9.0</ele><time>2022-11-14T17:35:48.0000000+00:00</time></trkpt><trkpt lat="39.48292924" lon="-0.38613592"><ele>9.0</ele><time>2022-11-14T17:35:49.0000000+00:00</time></trkpt><trkpt lat="39.48291617" lon="-0.3861925"><ele>9.0</ele><time>2022-11-14T17:35:50.0000000+00:00</time></trkpt><trkpt lat="39.48289714" lon="-0.38624891"><ele>9.0</ele><time>2022-11-14T17:35:51.0000000+00:00</time></trkpt><trkpt lat="39.4828787" lon="-0.38629887"><ele>9.0</ele><time>2022-11-14T17:35:52.0000000+00:00</time></trkpt><trkpt lat="39.48285942" lon="-0.38635167"><ele>9.0</ele><time>2022-11-14T17:35:53.0000000+00:00</time></trkpt><trkpt lat="39.48284274" lon="-0.38640096"><ele>9.0</ele><time>2022-11-14T17:35:54.0000000+00:00</time></trkpt><trkpt lat="39.48282925" lon="-0.38644656"><ele>9.0</ele><time>2022-11-14T17:35:55.0000000+00:00</time></trkpt><trkpt lat="39.48281542" lon="-0.38649266"><ele>9.0</ele><time>2022-11-14T17:35:56.0000000+00:00</time></trkpt><trkpt lat="39.48279396" lon="-0.38654571"><ele>8.8</ele><time>2022-11-14T17:35:57.0000000+00:00</time></trkpt><trkpt lat="39.48276538" lon="-0.38659433"><ele>8.8</ele><time>2022-11-14T17:35:58.0000000+00:00</time></trkpt><trkpt lat="39.4827388" lon="-0.38664227"><ele>8.6</ele><time>2022-11-14T17:35:59.0000000+00:00</time></trkpt><trkpt lat="39.48270754" lon="-0.3867022"><ele>8.6</ele><time>2022-11-14T17:36:00.0000000+00:00</time></trkpt><trkpt lat="39.48268851" lon="-0.38676105"><ele>8.6</ele><time>2022-11-14T17:36:01.0000000+00:00</time></trkpt><trkpt lat="39.48266697" lon="-0.38681192"><ele>8.6</ele><time>2022-11-14T17:36:02.0000000+00:00</time></trkpt><trkpt lat="39.48265054" lon="-0.38685819"><ele>8.4</ele><time>2022-11-14T17:36:03.0000000+00:00</time></trkpt><trkpt lat="39.48265197" lon="-0.38688024"><ele>8.4</ele><time>2022-11-14T17:36:04.0000000+00:00</time></trkpt><trkpt lat="39.48265943" lon="-0.38691552"><ele>8.4</ele><time>2022-11-14T17:36:05.0000000+00:00</time></trkpt><trkpt lat="39.48265297" lon="-0.3869576"><ele>8.4</ele><time>2022-11-14T17:36:06.0000000+00:00</time></trkpt><trkpt lat="39.48263194" lon="-0.38699046"><ele>8.2</ele><time>2022-11-14T17:36:07.0000000+00:00</time></trkpt><trkpt lat="39.48263554" lon="-0.38699892"><ele>8.2</ele><time>2022-11-14T17:36:08.0000000+00:00</time></trkpt><trkpt lat="39.48258164" lon="-0.38702709"><ele>8.2</ele><time>2022-11-14T17:36:09.0000000+00:00</time></trkpt><trkpt lat="39.48258139" lon="-0.38706229"><ele>8.2</ele><time>2022-11-14T17:36:10.0000000+00:00</time></trkpt><trkpt lat="39.48259397" lon="-0.38710705"><ele>8.2</ele><time>2022-11-14T17:36:11.0000000+00:00</time></trkpt><trkpt lat="39.4825964" lon="-0.38711015"><ele>8.2</ele><time>2022-11-14T17:36:12.0000000+00:00</time></trkpt><trkpt lat="39.4825964" lon="-0.38711015"><ele>8.2</ele><time>2022-11-14T17:36:13.0000000+00:00</time></trkpt><trkpt lat="39.48261056" lon="-0.38711996"><ele>8.2</ele><time>2022-11-14T17:36:14.0000000+00:00</time></trkpt><trkpt lat="39.48260889" lon="-0.38712373"><ele>8.2</ele><time>2022-11-14T17:36:15.0000000+00:00</time></trkpt><trkpt lat="39.48261785" lon="-0.38712398"><ele>8.2</ele><time>2022-11-14T17:36:16.0000000+00:00</time></trkpt><trkpt lat="39.48261207" lon="-0.3871239"><ele>8.2</ele><time>2022-11-14T17:36:17.0000000+00:00</time></trkpt><trkpt lat="39.48258902" lon="-0.38715265"><ele>8.2</ele><time>2022-11-14T17:36:18.0000000+00:00</time></trkpt><trkpt lat="39.48257083" lon="-0.38718207"><ele>8.2</ele><time>2022-11-14T17:36:19.0000000+00:00</time></trkpt><trkpt lat="39.48257787" lon="-0.38721551"><ele>8.2</ele><time>2022-11-14T17:36:20.0000000+00:00</time></trkpt><trkpt lat="39.48266077" lon="-0.38723286"><ele>8.2</ele><time>2022-11-14T17:36:21.0000000+00:00</time></trkpt><trkpt lat="39.48280368" lon="-0.38721509"><ele>8.2</ele><time>2022-11-14T17:36:22.0000000+00:00</time></trkpt><trkpt lat="39.48280393" lon="-0.38721803"><ele>8.2</ele><time>2022-11-14T17:36:23.0000000+00:00</time></trkpt><trkpt lat="39.48283059" lon="-0.38721141"><ele>8.4</ele><time>2022-11-14T17:36:24.0000000+00:00</time></trkpt><trkpt lat="39.48287082" lon="-0.38722565"><ele>8.4</ele><time>2022-11-14T17:36:25.0000000+00:00</time></trkpt><trkpt lat="39.48289387" lon="-0.38725709"><ele>8.2</ele><time>2022-11-14T17:36:26.0000000+00:00</time></trkpt><trkpt lat="39.48291156" lon="-0.38729087"><ele>8.2</ele><time>2022-11-14T17:36:27.0000000+00:00</time></trkpt><trkpt lat="39.4829108" lon="-0.38732221"><ele>8.2</ele><time>2022-11-14T17:36:28.0000000+00:00</time></trkpt><trkpt lat="39.48289521" lon="-0.38733194"><ele>8.2</ele><time>2022-11-14T17:36:29.0000000+00:00</time></trkpt><trkpt lat="39.48290225" lon="-0.38733881"><ele>8.2</ele><time>2022-11-14T17:36:30.0000000+00:00</time></trkpt><trkpt lat="39.48291265" lon="-0.38734149"><ele>8.2</ele><time>2022-11-14T17:36:31.0000000+00:00</time></trkpt><trkpt lat="39.48291172" lon="-0.38734057"><ele>8.2</ele><time>2022-11-14T17:36:32.0000000+00:00</time></trkpt><trkpt lat="39.48291784" lon="-0.38734283"><ele>8.0</ele><time>2022-11-14T17:36:33.0000000+00:00</time></trkpt><trkpt lat="39.48292145" lon="-0.38734065"><ele>8.0</ele><time>2022-11-14T17:36:34.0000000+00:00</time></trkpt><trkpt lat="39.48291541" lon="-0.38733839"><ele>8.0</ele><time>2022-11-14T17:36:35.0000000+00:00</time></trkpt><trkpt lat="39.48291172" lon="-0.38733755"><ele>7.8</ele><time>2022-11-14T17:36:36.0000000+00:00</time></trkpt><trkpt lat="39.48291591" lon="-0.38733965"><ele>7.8</ele><time>2022-11-14T17:36:37.0000000+00:00</time></trkpt><trkpt lat="39.48293888" lon="-0.387357"><ele>7.8</ele><time>2022-11-14T17:36:38.0000000+00:00</time></trkpt><trkpt lat="39.48294777" lon="-0.3873746"><ele>7.8</ele><time>2022-11-14T17:36:39.0000000+00:00</time></trkpt><trkpt lat="39.48296327" lon="-0.38740536"><ele>7.8</ele><time>2022-11-14T17:36:40.0000000+00:00</time></trkpt><trkpt lat="39.48297006" lon="-0.38744082"><ele>7.8</ele><time>2022-11-14T17:36:41.0000000+00:00</time></trkpt><trkpt lat="39.48296403" lon="-0.38747761"><ele>8.0</ele><time>2022-11-14T17:36:42.0000000+00:00</time></trkpt></trkseg><trkseg><trkpt lat="39.48381504" lon="-0.38877019"><ele>14.4</ele><time>2022-11-17T17:57:55.0000000+00:00</time></trkpt><trkpt lat="39.48380834" lon="-0.388738"><ele>14.4</ele><time>2022-11-17T17:57:56.0000000+00:00</time></trkpt><trkpt lat="39.48379694" lon="-0.3887261"><ele>14.4</ele><time>2022-11-17T17:57:57.0000000+00:00</time></trkpt><trkpt lat="39.48377489" lon="-0.38872761"><ele>14.4</ele><time>2022-11-17T17:57:58.0000000+00:00</time></trkpt><trkpt lat="39.48376115" lon="-0.3887287"><ele>14.4</ele><time>2022-11-17T17:57:59.0000000+00:00</time></trkpt><trkpt lat="39.4837531" lon="-0.38872258"><ele>14.4</ele><time>2022-11-17T17:58:00.0000000+00:00</time></trkpt><trkpt lat="39.48374648" lon="-0.38872425"><ele>14.4</ele><time>2022-11-17T17:58:01.0000000+00:00</time></trkpt><trkpt lat="39.48373474" lon="-0.38873306"><ele>14.4</ele><time>2022-11-17T17:58:02.0000000+00:00</time></trkpt><trkpt lat="39.4837246" lon="-0.38873616"><ele>14.4</ele><time>2022-11-17T17:58:03.0000000+00:00</time></trkpt><trkpt lat="39.48371287" lon="-0.38874881"><ele>14.4</ele><time>2022-11-17T17:58:04.0000000+00:00</time></trkpt><trkpt lat="39.48370038" lon="-0.38875887"><ele>14.4</ele><time>2022-11-17T17:58:05.0000000+00:00</time></trkpt><trkpt lat="39.48369149" lon="-0.38877186"><ele>14.4</ele><time>2022-11-17T17:58:06.0000000+00:00</time></trkpt><trkpt lat="39.4836806" lon="-0.38877857"><ele>14.2</ele><time>2022-11-17T17:58:07.0000000+00:00</time></trkpt><trkpt lat="39.48366903" lon="-0.38878737"><ele>14.2</ele><time>2022-11-17T17:58:08.0000000+00:00</time></trkpt><trkpt lat="39.48365637" lon="-0.38879592"><ele>14.2</ele><time>2022-11-17T17:58:09.0000000+00:00</time></trkpt><trkpt lat="39.48364539" lon="-0.38880841"><ele>14.0</ele><time>2022-11-17T17:58:10.0000000+00:00</time></trkpt><trkpt lat="39.48363919" lon="-0.38881897"><ele>14.0</ele><time>2022-11-17T17:58:11.0000000+00:00</time></trkpt><trkpt lat="39.48363248" lon="-0.38882157"><ele>14.0</ele><time>2022-11-17T17:58:12.0000000+00:00</time></trkpt><trkpt lat="39.48362293" lon="-0.38882257"><ele>14.0</ele><time>2022-11-17T17:58:13.0000000+00:00</time></trkpt><trkpt lat="39.48360952" lon="-0.3888302"><ele>14.0</ele><time>2022-11-17T17:58:14.0000000+00:00</time></trkpt><trkpt lat="39.48360357" lon="-0.38884437"><ele>14.0</ele><time>2022-11-17T17:58:15.0000000+00:00</time></trkpt><trkpt lat="39.48360105" lon="-0.38885996"><ele>14.0</ele><time>2022-11-17T17:58:16.0000000+00:00</time></trkpt><trkpt lat="39.48359753" lon="-0.38887479"><ele>14.0</ele><time>2022-11-17T17:58:17.0000000+00:00</time></trkpt><trkpt lat="39.48358404" lon="-0.38888963"><ele>14.0</ele><time>2022-11-17T17:58:18.0000000+00:00</time></trkpt><trkpt lat="39.48356945" lon="-0.38889684"><ele>14.0</ele><time>2022-11-17T17:58:19.0000000+00:00</time></trkpt><trkpt lat="39.48355411" lon="-0.38890178"><ele>14.2</ele><time>2022-11-17T17:58:20.0000000+00:00</time></trkpt><trkpt lat="39.48353986" lon="-0.38890681"><ele>14.2</ele><time>2022-11-17T17:58:21.0000000+00:00</time></trkpt><trkpt lat="39.48352872" lon="-0.38891578"><ele>14.2</ele><time>2022-11-17T17:58:22.0000000+00:00</time></trkpt><trkpt lat="39.48352092" lon="-0.38892693"><ele>14.2</ele><time>2022-11-17T17:58:23.0000000+00:00</time></trkpt><trkpt lat="39.48351463" lon="-0.38893682"><ele>14.2</ele><time>2022-11-17T17:58:24.0000000+00:00</time></trkpt><trkpt lat="39.48350793" lon="-0.3889426"><ele>14.2</ele><time>2022-11-17T17:58:25.0000000+00:00</time></trkpt><trkpt lat="39.48350147" lon="-0.38894621"><ele>14.2</ele><time>2022-11-17T17:58:26.0000000+00:00</time></trkpt><trkpt lat="39.48349536" lon="-0.38895115"><ele>14.2</ele><time>2022-11-17T17:58:27.0000000+00:00</time></trkpt><trkpt lat="39.48348857" lon="-0.38896071"><ele>14.4</ele><time>2022-11-17T17:58:28.0000000+00:00</time></trkpt><trkpt lat="39.48348002" lon="-0.38897479"><ele>14.6</ele><time>2022-11-17T17:58:29.0000000+00:00</time></trkpt><trkpt lat="39.48347247" lon="-0.3889913"><ele>14.6</ele><time>2022-11-17T17:58:30.0000000+00:00</time></trkpt><trkpt lat="39.48346241" lon="-0.38900128"><ele>14.6</ele><time>2022-11-17T17:58:31.0000000+00:00</time></trkpt><trkpt lat="39.48345068" lon="-0.38901276"><ele>14.6</ele><time>2022-11-17T17:58:32.0000000+00:00</time></trkpt><trkpt lat="39.4834371" lon="-0.38901703"><ele>14.6</ele><time>2022-11-17T17:58:33.0000000+00:00</time></trkpt><trkpt lat="39.48342344" lon="-0.38901754"><ele>14.6</ele><time>2022-11-17T17:58:34.0000000+00:00</time></trkpt><trkpt lat="39.48340793" lon="-0.38901662"><ele>14.6</ele><time>2022-11-17T17:58:35.0000000+00:00</time></trkpt><trkpt lat="39.48339343" lon="-0.38902307"><ele>14.6</ele><time>2022-11-17T17:58:36.0000000+00:00</time></trkpt><trkpt lat="39.48337885" lon="-0.38903363"><ele>14.2</ele><time>2022-11-17T17:58:37.0000000+00:00</time></trkpt><trkpt lat="39.48336577" lon="-0.38904117"><ele>14.0</ele><time>2022-11-17T17:58:38.0000000+00:00</time></trkpt><trkpt lat="39.48334616" lon="-0.38905081"><ele>14.0</ele><time>2022-11-17T17:58:39.0000000+00:00</time></trkpt><trkpt lat="39.48332839" lon="-0.38906716"><ele>13.8</ele><time>2022-11-17T17:58:40.0000000+00:00</time></trkpt><trkpt lat="39.48331389" lon="-0.3890835"><ele>13.8</ele><time>2022-11-17T17:58:41.0000000+00:00</time></trkpt><trkpt lat="39.48329771" lon="-0.38909549"><ele>13.8</ele><time>2022-11-17T17:58:42.0000000+00:00</time></trkpt><trkpt lat="39.48328606" lon="-0.3891084"><ele>13.8</ele><time>2022-11-17T17:58:43.0000000+00:00</time></trkpt><trkpt lat="39.48327592" lon="-0.38912055"><ele>13.8</ele><time>2022-11-17T17:58:44.0000000+00:00</time></trkpt><trkpt lat="39.48326955" lon="-0.38912231"><ele>13.8</ele><time>2022-11-17T17:58:45.0000000+00:00</time></trkpt><trkpt lat="39.48325831" lon="-0.38911636"><ele>14.0</ele><time>2022-11-17T17:58:46.0000000+00:00</time></trkpt><trkpt lat="39.48324398" lon="-0.38912147"><ele>14.4</ele><time>2022-11-17T17:58:47.0000000+00:00</time></trkpt><trkpt lat="39.48323099" lon="-0.38913036"><ele>14.6</ele><time>2022-11-17T17:58:48.0000000+00:00</time></trkpt><trkpt lat="39.48322135" lon="-0.38914142"><ele>14.8</ele><time>2022-11-17T17:58:49.0000000+00:00</time></trkpt><trkpt lat="39.48321171" lon="-0.38915441"><ele>14.8</ele><time>2022-11-17T17:58:50.0000000+00:00</time></trkpt><trkpt lat="39.48320149" lon="-0.38917009"><ele>14.8</ele><time>2022-11-17T17:58:51.0000000+00:00</time></trkpt><trkpt lat="39.4831921" lon="-0.38918023"><ele>14.8</ele><time>2022-11-17T17:58:52.0000000+00:00</time></trkpt><trkpt lat="39.48318103" lon="-0.38918518"><ele>15.0</ele><time>2022-11-17T17:58:53.0000000+00:00</time></trkpt><trkpt lat="39.48317098" lon="-0.38919104"><ele>14.8</ele><time>2022-11-17T17:58:54.0000000+00:00</time></trkpt><trkpt lat="39.48316134" lon="-0.38920404"><ele>14.8</ele><time>2022-11-17T17:58:55.0000000+00:00</time></trkpt><trkpt lat="39.48315488" lon="-0.38921225"><ele>14.8</ele><time>2022-11-17T17:58:56.0000000+00:00</time></trkpt><trkpt lat="39.48314591" lon="-0.38922449"><ele>15.0</ele><time>2022-11-17T17:58:57.0000000+00:00</time></trkpt><trkpt lat="39.48313384" lon="-0.38923203"><ele>15.0</ele><time>2022-11-17T17:58:58.0000000+00:00</time></trkpt><trkpt lat="39.48312949" lon="-0.38924678"><ele>15.0</ele><time>2022-11-17T17:58:59.0000000+00:00</time></trkpt><trkpt lat="39.48312504" lon="-0.38926547"><ele>15.0</ele><time>2022-11-17T17:59:00.0000000+00:00</time></trkpt><trkpt lat="39.4831175" lon="-0.38927956"><ele>15.0</ele><time>2022-11-17T17:59:01.0000000+00:00</time></trkpt><trkpt lat="39.48310702" lon="-0.38928685"><ele>15.0</ele><time>2022-11-17T17:59:02.0000000+00:00</time></trkpt><trkpt lat="39.48309881" lon="-0.38929749"><ele>15.0</ele><time>2022-11-17T17:59:03.0000000+00:00</time></trkpt><trkpt lat="39.48309084" lon="-0.38930755"><ele>15.2</ele><time>2022-11-17T17:59:04.0000000+00:00</time></trkpt><trkpt lat="39.48308079" lon="-0.38931954"><ele>15.2</ele><time>2022-11-17T17:59:05.0000000+00:00</time></trkpt><trkpt lat="39.48307207" lon="-0.38932733"><ele>15.2</ele><time>2022-11-17T17:59:06.0000000+00:00</time></trkpt><trkpt lat="39.4830657" lon="-0.38934125"><ele>15.2</ele><time>2022-11-17T17:59:07.0000000+00:00</time></trkpt><trkpt lat="39.4830569" lon="-0.38935659"><ele>15.2</ele><time>2022-11-17T17:59:08.0000000+00:00</time></trkpt><trkpt lat="39.48304692" lon="-0.38938081"><ele>15.2</ele><time>2022-11-17T17:59:09.0000000+00:00</time></trkpt><trkpt lat="39.48303427" lon="-0.38938902"><ele>15.0</ele><time>2022-11-17T17:59:10.0000000+00:00</time></trkpt><trkpt lat="39.48301977" lon="-0.38940646"><ele>15.0</ele><time>2022-11-17T17:59:11.0000000+00:00</time></trkpt><trkpt lat="39.48300434" lon="-0.38943085"><ele>15.0</ele><time>2022-11-17T17:59:12.0000000+00:00</time></trkpt><trkpt lat="39.48298473" lon="-0.38944149"><ele>15.0</ele><time>2022-11-17T17:59:13.0000000+00:00</time></trkpt><trkpt lat="39.48297216" lon="-0.38946052"><ele>15.0</ele><time>2022-11-17T17:59:14.0000000+00:00</time></trkpt><trkpt lat="39.48296369" lon="-0.38948734"><ele>14.8</ele><time>2022-11-17T17:59:15.0000000+00:00</time></trkpt><trkpt lat="39.48294944" lon="-0.38950813"><ele>14.8</ele><time>2022-11-17T17:59:16.0000000+00:00</time></trkpt><trkpt lat="39.48293276" lon="-0.38951685"><ele>14.8</ele><time>2022-11-17T17:59:17.0000000+00:00</time></trkpt><trkpt lat="39.48292455" lon="-0.38953386"><ele>14.8</ele><time>2022-11-17T17:59:18.0000000+00:00</time></trkpt><trkpt lat="39.48292337" lon="-0.38956303"><ele>14.8</ele><time>2022-11-17T17:59:19.0000000+00:00</time></trkpt><trkpt lat="39.48291818" lon="-0.3895912"><ele>14.8</ele><time>2022-11-17T17:59:20.0000000+00:00</time></trkpt><trkpt lat="39.4829129" lon="-0.38964551"><ele>14.6</ele><time>2022-11-17T17:59:21.0000000+00:00</time></trkpt><trkpt lat="39.48291038" lon="-0.38968046"><ele>14.6</ele><time>2022-11-17T17:59:22.0000000+00:00</time></trkpt><trkpt lat="39.48290678" lon="-0.38969999"><ele>14.6</ele><time>2022-11-17T17:59:23.0000000+00:00</time></trkpt><trkpt lat="39.48290292" lon="-0.38971357"><ele>14.6</ele><time>2022-11-17T17:59:24.0000000+00:00</time></trkpt><trkpt lat="39.48289731" lon="-0.38972472"><ele>14.6</ele><time>2022-11-17T17:59:25.0000000+00:00</time></trkpt><trkpt lat="39.48289161" lon="-0.3897393"><ele>14.6</ele><time>2022-11-17T17:59:26.0000000+00:00</time></trkpt><trkpt lat="39.48288498" lon="-0.3897538"><ele>14.6</ele><time>2022-11-17T17:59:27.0000000+00:00</time></trkpt><trkpt lat="39.48287585" lon="-0.38977275"><ele>14.6</ele><time>2022-11-17T17:59:28.0000000+00:00</time></trkpt><trkpt lat="39.48287007" lon="-0.38979412"><ele>14.6</ele><time>2022-11-17T17:59:29.0000000+00:00</time></trkpt><trkpt lat="39.48286705" lon="-0.38981851"><ele>14.6</ele><time>2022-11-17T17:59:30.0000000+00:00</time></trkpt><trkpt lat="39.48286395" lon="-0.38983494"><ele>14.8</ele><time>2022-11-17T17:59:31.0000000+00:00</time></trkpt><trkpt lat="39.48285791" lon="-0.38985372"><ele>14.8</ele><time>2022-11-17T17:59:32.0000000+00:00</time></trkpt><trkpt lat="39.48284425" lon="-0.38986587"><ele>14.8</ele><time>2022-11-17T17:59:33.0000000+00:00</time></trkpt><trkpt lat="39.48282665" lon="-0.38987576"><ele>15.0</ele><time>2022-11-17T17:59:34.0000000+00:00</time></trkpt><trkpt lat="39.48281684" lon="-0.38989135"><ele>15.0</ele><time>2022-11-17T17:59:35.0000000+00:00</time></trkpt><trkpt lat="39.48280477" lon="-0.38989646"><ele>15.0</ele><time>2022-11-17T17:59:36.0000000+00:00</time></trkpt><trkpt lat="39.48278415" lon="-0.38989839"><ele>15.0</ele><time>2022-11-17T17:59:37.0000000+00:00</time></trkpt><trkpt lat="39.48275716" lon="-0.38991004"><ele>15.0</ele><time>2022-11-17T17:59:38.0000000+00:00</time></trkpt><trkpt lat="39.48277334" lon="-0.38994013"><ele>15.0</ele><time>2022-11-17T17:59:39.0000000+00:00</time></trkpt><trkpt lat="39.48277946" lon="-0.38996302"><ele>15.0</ele><time>2022-11-17T17:59:40.0000000+00:00</time></trkpt><trkpt lat="39.48278725" lon="-0.38999026"><ele>15.0</ele><time>2022-11-17T17:59:41.0000000+00:00</time></trkpt><trkpt lat="39.48279195" lon="-0.39001423"><ele>15.0</ele><time>2022-11-17T17:59:42.0000000+00:00</time></trkpt><trkpt lat="39.48277175" lon="-0.39002035"><ele>15.0</ele><time>2022-11-17T17:59:43.0000000+00:00</time></trkpt><trkpt lat="39.48275498" lon="-0.39003535"><ele>15.0</ele><time>2022-11-17T17:59:44.0000000+00:00</time></trkpt><trkpt lat="39.48273453" lon="-0.39004373"><ele>15.0</ele><time>2022-11-17T17:59:45.0000000+00:00</time></trkpt><trkpt lat="39.48271265" lon="-0.39004893"><ele>15.2</ele><time>2022-11-17T17:59:46.0000000+00:00</time></trkpt><trkpt lat="39.48268985" lon="-0.39004994"><ele>15.2</ele><time>2022-11-17T17:59:47.0000000+00:00</time></trkpt><trkpt lat="39.48264753" lon="-0.39005782"><ele>15.2</ele><time>2022-11-17T17:59:48.0000000+00:00</time></trkpt><trkpt lat="39.48261542" lon="-0.3900667"><ele>15.2</ele><time>2022-11-17T17:59:49.0000000+00:00</time></trkpt><trkpt lat="39.48258768" lon="-0.39007391"><ele>15.2</ele><time>2022-11-17T17:59:50.0000000+00:00</time></trkpt><trkpt lat="39.48255776" lon="-0.39008489"><ele>15.0</ele><time>2022-11-17T17:59:51.0000000+00:00</time></trkpt><trkpt lat="39.48251601" lon="-0.39009118"><ele>15.0</ele><time>2022-11-17T17:59:52.0000000+00:00</time></trkpt><trkpt lat="39.48250939" lon="-0.39010325"><ele>15.0</ele><time>2022-11-17T17:59:53.0000000+00:00</time></trkpt><trkpt lat="39.48250889" lon="-0.39011272"><ele>15.0</ele><time>2022-11-17T17:59:54.0000000+00:00</time></trkpt><trkpt lat="39.48250084" lon="-0.39013116"><ele>15.0</ele><time>2022-11-17T17:59:55.0000000+00:00</time></trkpt><trkpt lat="39.48248886" lon="-0.39014641"><ele>15.0</ele><time>2022-11-17T17:59:56.0000000+00:00</time></trkpt><trkpt lat="39.48248995" lon="-0.3901703"><ele>15.0</ele><time>2022-11-17T17:59:57.0000000+00:00</time></trkpt><trkpt lat="39.48248316" lon="-0.39018874"><ele>15.0</ele><time>2022-11-17T17:59:58.0000000+00:00</time></trkpt><trkpt lat="39.48247293" lon="-0.39020651"><ele>15.0</ele><time>2022-11-17T17:59:59.0000000+00:00</time></trkpt><trkpt lat="39.48246891" lon="-0.39023853"><ele>15.0</ele><time>2022-11-17T18:00:00.0000000+00:00</time></trkpt><trkpt lat="39.48246036" lon="-0.39026795"><ele>15.0</ele><time>2022-11-17T18:00:01.0000000+00:00</time></trkpt><trkpt lat="39.4824539" lon="-0.39029243"><ele>15.0</ele><time>2022-11-17T18:00:02.0000000+00:00</time></trkpt><trkpt lat="39.48245172" lon="-0.39029008"><ele>15.0</ele><time>2022-11-17T18:00:03.0000000+00:00</time></trkpt><trkpt lat="39.48244896" lon="-0.39030475"><ele>15.0</ele><time>2022-11-17T18:00:04.0000000+00:00</time></trkpt><trkpt lat="39.4824446" lon="-0.39031967"><ele>15.0</ele><time>2022-11-17T18:00:05.0000000+00:00</time></trkpt><trkpt lat="39.48244435" lon="-0.39033417"><ele>15.0</ele><time>2022-11-17T18:00:06.0000000+00:00</time></trkpt><trkpt lat="39.48244024" lon="-0.3903506"><ele>15.0</ele><time>2022-11-17T18:00:07.0000000+00:00</time></trkpt><trkpt lat="39.48244125" lon="-0.3903651"><ele>15.0</ele><time>2022-11-17T18:00:08.0000000+00:00</time></trkpt><trkpt lat="39.48244334" lon="-0.39038278"><ele>15.0</ele><time>2022-11-17T18:00:09.0000000+00:00</time></trkpt><trkpt lat="39.48243798" lon="-0.39039385"><ele>15.0</ele><time>2022-11-17T18:00:10.0000000+00:00</time></trkpt><trkpt lat="39.48242834" lon="-0.39040022"><ele>15.0</ele><time>2022-11-17T18:00:11.0000000+00:00</time></trkpt><trkpt lat="39.48242264" lon="-0.39041254"><ele>15.0</ele><time>2022-11-17T18:00:12.0000000+00:00</time></trkpt><trkpt lat="39.48242096" lon="-0.39043156"><ele>15.0</ele><time>2022-11-17T18:00:13.0000000+00:00</time></trkpt><trkpt lat="39.48241417" lon="-0.39045897"><ele>15.0</ele><time>2022-11-17T18:00:14.0000000+00:00</time></trkpt><trkpt lat="39.48240579" lon="-0.39049041"><ele>15.0</ele><time>2022-11-17T18:00:15.0000000+00:00</time></trkpt><trkpt lat="39.4824016" lon="-0.39050038"><ele>14.8</ele><time>2022-11-17T18:00:16.0000000+00:00</time></trkpt><trkpt lat="39.48239163" lon="-0.39051647"><ele>14.8</ele><time>2022-11-17T18:00:17.0000000+00:00</time></trkpt><trkpt lat="39.48238567" lon="-0.39053089"><ele>14.8</ele><time>2022-11-17T18:00:18.0000000+00:00</time></trkpt><trkpt lat="39.4823814" lon="-0.39055218"><ele>14.8</ele><time>2022-11-17T18:00:19.0000000+00:00</time></trkpt><trkpt lat="39.48237687" lon="-0.39056727"><ele>14.8</ele><time>2022-11-17T18:00:20.0000000+00:00</time></trkpt><trkpt lat="39.48236958" lon="-0.39057515"><ele>15.0</ele><time>2022-11-17T18:00:21.0000000+00:00</time></trkpt><trkpt lat="39.4823607" lon="-0.39058512"><ele>15.0</ele><time>2022-11-17T18:00:22.0000000+00:00</time></trkpt><trkpt lat="39.48235609" lon="-0.3905956"><ele>15.0</ele><time>2022-11-17T18:00:23.0000000+00:00</time></trkpt><trkpt lat="39.48236371" lon="-0.39061027"><ele>15.0</ele><time>2022-11-17T18:00:24.0000000+00:00</time></trkpt><trkpt lat="39.48236816" lon="-0.3906267"><ele>15.2</ele><time>2022-11-17T18:00:25.0000000+00:00</time></trkpt><trkpt lat="39.48237302" lon="-0.39064178"><ele>15.0</ele><time>2022-11-17T18:00:26.0000000+00:00</time></trkpt><trkpt lat="39.48236145" lon="-0.39065394"><ele>15.2</ele><time>2022-11-17T18:00:27.0000000+00:00</time></trkpt><trkpt lat="39.48236707" lon="-0.39066668"><ele>15.2</ele><time>2022-11-17T18:00:28.0000000+00:00</time></trkpt><trkpt lat="39.48234402" lon="-0.39068746"><ele>15.2</ele><time>2022-11-17T18:00:29.0000000+00:00</time></trkpt><trkpt lat="39.48232348" lon="-0.39071236"><ele>15.2</ele><time>2022-11-17T18:00:30.0000000+00:00</time></trkpt><trkpt lat="39.48232289" lon="-0.390737"><ele>15.4</ele><time>2022-11-17T18:00:31.0000000+00:00</time></trkpt><trkpt lat="39.48231761" lon="-0.39075812"><ele>15.4</ele><time>2022-11-17T18:00:32.0000000+00:00</time></trkpt><trkpt lat="39.48231862" lon="-0.39077682"><ele>15.4</ele><time>2022-11-17T18:00:33.0000000+00:00</time></trkpt><trkpt lat="39.48232952" lon="-0.39080079"><ele>15.4</ele><time>2022-11-17T18:00:34.0000000+00:00</time></trkpt><trkpt lat="39.48232616" lon="-0.39082183"><ele>15.4</ele><time>2022-11-17T18:00:35.0000000+00:00</time></trkpt><trkpt lat="39.48232432" lon="-0.39083809"><ele>15.4</ele><time>2022-11-17T18:00:36.0000000+00:00</time></trkpt><trkpt lat="39.48231577" lon="-0.39085435"><ele>15.2</ele><time>2022-11-17T18:00:37.0000000+00:00</time></trkpt><trkpt lat="39.48230605" lon="-0.39086985"><ele>15.2</ele><time>2022-11-17T18:00:38.0000000+00:00</time></trkpt><trkpt lat="39.48229741" lon="-0.39088997"><ele>15.2</ele><time>2022-11-17T18:00:39.0000000+00:00</time></trkpt><trkpt lat="39.48227663" lon="-0.39091143"><ele>15.2</ele><time>2022-11-17T18:00:40.0000000+00:00</time></trkpt><trkpt lat="39.48226858" lon="-0.39093305"><ele>15.2</ele><time>2022-11-17T18:00:41.0000000+00:00</time></trkpt><trkpt lat="39.48226984" lon="-0.39094521"><ele>15.2</ele><time>2022-11-17T18:00:42.0000000+00:00</time></trkpt><trkpt lat="39.48227344" lon="-0.39095937"><ele>15.4</ele><time>2022-11-17T18:00:43.0000000+00:00</time></trkpt><trkpt lat="39.48227026" lon="-0.39097136"><ele>15.4</ele><time>2022-11-17T18:00:44.0000000+00:00</time></trkpt><trkpt lat="39.48226431" lon="-0.39097765"><ele>15.4</ele><time>2022-11-17T18:00:45.0000000+00:00</time></trkpt><trkpt lat="39.48225944" lon="-0.39098226"><ele>15.4</ele><time>2022-11-17T18:00:46.0000000+00:00</time></trkpt><trkpt lat="39.48225374" lon="-0.39098594"><ele>15.4</ele><time>2022-11-17T18:00:47.0000000+00:00</time></trkpt><trkpt lat="39.48223463" lon="-0.39098913"><ele>15.4</ele><time>2022-11-17T18:00:48.0000000+00:00</time></trkpt><trkpt lat="39.4822115" lon="-0.3909981"><ele>15.6</ele><time>2022-11-17T18:00:49.0000000+00:00</time></trkpt><trkpt lat="39.48219021" lon="-0.39101126"><ele>15.6</ele><time>2022-11-17T18:00:50.0000000+00:00</time></trkpt><trkpt lat="39.48217127" lon="-0.39102618"><ele>15.6</ele><time>2022-11-17T18:00:51.0000000+00:00</time></trkpt><trkpt lat="39.48215039" lon="-0.39104227"><ele>15.6</ele><time>2022-11-17T18:00:52.0000000+00:00</time></trkpt><trkpt lat="39.48213304" lon="-0.39105518"><ele>15.8</ele><time>2022-11-17T18:00:53.0000000+00:00</time></trkpt><trkpt lat="39.48212106" lon="-0.3910727"><ele>15.8</ele><time>2022-11-17T18:00:54.0000000+00:00</time></trkpt><trkpt lat="39.48210932" lon="-0.39109524"><ele>15.8</ele><time>2022-11-17T18:00:55.0000000+00:00</time></trkpt><trkpt lat="39.48209558" lon="-0.39112106"><ele>15.8</ele><time>2022-11-17T18:00:56.0000000+00:00</time></trkpt><trkpt lat="39.48208049" lon="-0.39114394"><ele>15.6</ele><time>2022-11-17T18:00:57.0000000+00:00</time></trkpt><trkpt lat="39.48206666" lon="-0.39116599"><ele>15.6</ele><time>2022-11-17T18:00:58.0000000+00:00</time></trkpt><trkpt lat="39.48205375" lon="-0.39118552"><ele>15.4</ele><time>2022-11-17T18:00:59.0000000+00:00</time></trkpt><trkpt lat="39.48204403" lon="-0.39120739"><ele>15.4</ele><time>2022-11-17T18:01:00.0000000+00:00</time></trkpt><trkpt lat="39.48203632" lon="-0.39123237"><ele>15.4</ele><time>2022-11-17T18:01:01.0000000+00:00</time></trkpt><trkpt lat="39.48202944" lon="-0.39126347"><ele>15.4</ele><time>2022-11-17T18:01:02.0000000+00:00</time></trkpt><trkpt lat="39.48201679" lon="-0.39128392"><ele>15.4</ele><time>2022-11-17T18:01:03.0000000+00:00</time></trkpt><trkpt lat="39.4820053" lon="-0.39130814"><ele>15.4</ele><time>2022-11-17T18:01:04.0000000+00:00</time></trkpt><trkpt lat="39.48199692" lon="-0.39132809"><ele>15.6</ele><time>2022-11-17T18:01:05.0000000+00:00</time></trkpt><trkpt lat="39.48198393" lon="-0.39135165"><ele>15.8</ele><time>2022-11-17T18:01:06.0000000+00:00</time></trkpt><trkpt lat="39.48196893" lon="-0.39136397"><ele>15.8</ele><time>2022-11-17T18:01:07.0000000+00:00</time></trkpt><trkpt lat="39.48196038" lon="-0.39138291"><ele>15.8</ele><time>2022-11-17T18:01:08.0000000+00:00</time></trkpt><trkpt lat="39.48195828" lon="-0.39140588"><ele>15.8</ele><time>2022-11-17T18:01:09.0000000+00:00</time></trkpt><trkpt lat="39.48195937" lon="-0.39142557"><ele>15.8</ele><time>2022-11-17T18:01:10.0000000+00:00</time></trkpt><trkpt lat="39.48195577" lon="-0.39143815"><ele>15.8</ele><time>2022-11-17T18:01:11.0000000+00:00</time></trkpt><trkpt lat="39.4819442" lon="-0.39145156"><ele>15.8</ele><time>2022-11-17T18:01:12.0000000+00:00</time></trkpt><trkpt lat="39.48193565" lon="-0.39147067"><ele>15.8</ele><time>2022-11-17T18:01:13.0000000+00:00</time></trkpt><trkpt lat="39.4819261" lon="-0.39148718"><ele>15.8</ele><time>2022-11-17T18:01:14.0000000+00:00</time></trkpt><trkpt lat="39.4819178" lon="-0.39150344"><ele>15.8</ele><time>2022-11-17T18:01:15.0000000+00:00</time></trkpt><trkpt lat="39.48191009" lon="-0.39151995"><ele>15.8</ele><time>2022-11-17T18:01:16.0000000+00:00</time></trkpt><trkpt lat="39.48189743" lon="-0.39152926"><ele>15.8</ele><time>2022-11-17T18:01:17.0000000+00:00</time></trkpt><trkpt lat="39.48188377" lon="-0.39154493"><ele>15.8</ele><time>2022-11-17T18:01:18.0000000+00:00</time></trkpt><trkpt lat="39.4818701" lon="-0.39156547"><ele>15.8</ele><time>2022-11-17T18:01:19.0000000+00:00</time></trkpt><trkpt lat="39.48186155" lon="-0.39159363"><ele>15.8</ele><time>2022-11-17T18:01:20.0000000+00:00</time></trkpt><trkpt lat="39.48185795" lon="-0.39161911"><ele>15.8</ele><time>2022-11-17T18:01:21.0000000+00:00</time></trkpt><trkpt lat="39.48185837" lon="-0.39166169"><ele>15.8</ele><time>2022-11-17T18:01:22.0000000+00:00</time></trkpt><trkpt lat="39.48185309" lon="-0.39169078"><ele>15.8</ele><time>2022-11-17T18:01:23.0000000+00:00</time></trkpt><trkpt lat="39.48185091" lon="-0.39171299"><ele>15.8</ele><time>2022-11-17T18:01:24.0000000+00:00</time></trkpt><trkpt lat="39.48185192" lon="-0.39173604"><ele>15.8</ele><time>2022-11-17T18:01:25.0000000+00:00</time></trkpt><trkpt lat="39.48185309" lon="-0.39175398"><ele>15.8</ele><time>2022-11-17T18:01:26.0000000+00:00</time></trkpt><trkpt lat="39.48185451" lon="-0.39176529"><ele>15.8</ele><time>2022-11-17T18:01:27.0000000+00:00</time></trkpt><trkpt lat="39.4818629" lon="-0.39178583"><ele>15.8</ele><time>2022-11-17T18:01:28.0000000+00:00</time></trkpt><trkpt lat="39.4818691" lon="-0.39179958"><ele>15.8</ele><time>2022-11-17T18:01:29.0000000+00:00</time></trkpt><trkpt lat="39.48187371" lon="-0.39181936"><ele>15.8</ele><time>2022-11-17T18:01:30.0000000+00:00</time></trkpt><trkpt lat="39.48188134" lon="-0.39185062"><ele>15.8</ele><time>2022-11-17T18:01:31.0000000+00:00</time></trkpt><trkpt lat="39.48188653" lon="-0.39188423"><ele>16.0</ele><time>2022-11-17T18:01:32.0000000+00:00</time></trkpt><trkpt lat="39.48189374" lon="-0.39191516"><ele>16.0</ele><time>2022-11-17T18:01:33.0000000+00:00</time></trkpt><trkpt lat="39.48189768" lon="-0.39194014"><ele>16.0</ele><time>2022-11-17T18:01:34.0000000+00:00</time></trkpt><trkpt lat="39.48190254" lon="-0.39196017"><ele>16.0</ele><time>2022-11-17T18:01:35.0000000+00:00</time></trkpt><trkpt lat="39.48191218" lon="-0.39198021"><ele>16.0</ele><time>2022-11-17T18:01:36.0000000+00:00</time></trkpt><trkpt lat="39.48191461" lon="-0.39198825"><ele>16.0</ele><time>2022-11-17T18:01:37.0000000+00:00</time></trkpt><trkpt lat="39.4819157" lon="-0.39200292"><ele>16.0</ele><time>2022-11-17T18:01:38.0000000+00:00</time></trkpt><trkpt lat="39.48190824" lon="-0.39202161"><ele>15.8</ele><time>2022-11-17T18:01:39.0000000+00:00</time></trkpt><trkpt lat="39.4818955" lon="-0.39203251"><ele>15.8</ele><time>2022-11-17T18:01:40.0000000+00:00</time></trkpt><trkpt lat="39.48188444" lon="-0.39204248"><ele>15.8</ele><time>2022-11-17T18:01:41.0000000+00:00</time></trkpt><trkpt lat="39.48187396" lon="-0.39206654"><ele>15.8</ele><time>2022-11-17T18:01:42.0000000+00:00</time></trkpt><trkpt lat="39.48186767" lon="-0.39208783"><ele>15.8</ele><time>2022-11-17T18:01:43.0000000+00:00</time></trkpt><trkpt lat="39.4818608" lon="-0.39210761"><ele>15.8</ele><time>2022-11-17T18:01:44.0000000+00:00</time></trkpt><trkpt lat="39.48185527" lon="-0.3921263"><ele>15.8</ele><time>2022-11-17T18:01:45.0000000+00:00</time></trkpt><trkpt lat="39.48184772" lon="-0.39214256"><ele>15.8</ele><time>2022-11-17T18:01:46.0000000+00:00</time></trkpt><trkpt lat="39.48183658" lon="-0.39215589"><ele>16.0</ele><time>2022-11-17T18:01:47.0000000+00:00</time></trkpt><trkpt lat="39.48182593" lon="-0.39217433"><ele>16.2</ele><time>2022-11-17T18:01:48.0000000+00:00</time></trkpt><trkpt lat="39.48181763" lon="-0.39219872"><ele>16.4</ele><time>2022-11-17T18:01:49.0000000+00:00</time></trkpt><trkpt lat="39.48181344" lon="-0.39222403"><ele>16.6</ele><time>2022-11-17T18:01:50.0000000+00:00</time></trkpt><trkpt lat="39.4818069" lon="-0.39224776"><ele>16.6</ele><time>2022-11-17T18:01:51.0000000+00:00</time></trkpt><trkpt lat="39.48180146" lon="-0.39227072"><ele>16.6</ele><time>2022-11-17T18:01:52.0000000+00:00</time></trkpt><trkpt lat="39.48178997" lon="-0.39228514"><ele>16.6</ele><time>2022-11-17T18:01:53.0000000+00:00</time></trkpt><trkpt lat="39.48176952" lon="-0.39230224"><ele>16.6</ele><time>2022-11-17T18:01:54.0000000+00:00</time></trkpt><trkpt lat="39.48174647" lon="-0.39231883"><ele>16.6</ele><time>2022-11-17T18:01:55.0000000+00:00</time></trkpt><trkpt lat="39.48172443" lon="-0.39234222"><ele>16.6</ele><time>2022-11-17T18:01:56.0000000+00:00</time></trkpt><trkpt lat="39.48170448" lon="-0.39236778"><ele>16.4</ele><time>2022-11-17T18:01:57.0000000+00:00</time></trkpt><trkpt lat="39.48170138" lon="-0.39236996"><ele>16.2</ele><time>2022-11-17T18:01:58.0000000+00:00</time></trkpt><trkpt lat="39.48169509" lon="-0.39239259"><ele>16.0</ele><time>2022-11-17T18:01:59.0000000+00:00</time></trkpt><trkpt lat="39.48169325" lon="-0.3924257"><ele>16.0</ele><time>2022-11-17T18:02:00.0000000+00:00</time></trkpt><trkpt lat="39.48169685" lon="-0.39245915"><ele>16.0</ele><time>2022-11-17T18:02:01.0000000+00:00</time></trkpt><trkpt lat="39.4817018" lon="-0.39248773"><ele>16.0</ele><time>2022-11-17T18:02:02.0000000+00:00</time></trkpt><trkpt lat="39.48170909" lon="-0.39250449"><ele>16.0</ele><time>2022-11-17T18:02:03.0000000+00:00</time></trkpt><trkpt lat="39.48171764" lon="-0.39251296"><ele>16.0</ele><time>2022-11-17T18:02:04.0000000+00:00</time></trkpt><trkpt lat="39.48172853" lon="-0.39251589"><ele>16.2</ele><time>2022-11-17T18:02:05.0000000+00:00</time></trkpt><trkpt lat="39.48173742" lon="-0.39251941"><ele>16.2</ele><time>2022-11-17T18:02:06.0000000+00:00</time></trkpt><trkpt lat="39.48173901" lon="-0.39254037"><ele>16.4</ele><time>2022-11-17T18:02:07.0000000+00:00</time></trkpt><trkpt lat="39.48174723" lon="-0.39256183"><ele>16.4</ele><time>2022-11-17T18:02:08.0000000+00:00</time></trkpt><trkpt lat="39.48175812" lon="-0.39257314"><ele>16.4</ele><time>2022-11-17T18:02:09.0000000+00:00</time></trkpt><trkpt lat="39.48177178" lon="-0.39258655"><ele>16.4</ele><time>2022-11-17T18:02:10.0000000+00:00</time></trkpt><trkpt lat="39.48178318" lon="-0.39260357"><ele>16.4</ele><time>2022-11-17T18:02:11.0000000+00:00</time></trkpt><trkpt lat="39.48179584" lon="-0.39262528"><ele>16.4</ele><time>2022-11-17T18:02:12.0000000+00:00</time></trkpt><trkpt lat="39.4818085" lon="-0.39264858"><ele>16.4</ele><time>2022-11-17T18:02:13.0000000+00:00</time></trkpt><trkpt lat="39.48181545" lon="-0.39266668"><ele>16.4</ele><time>2022-11-17T18:02:14.0000000+00:00</time></trkpt><trkpt lat="39.48182149" lon="-0.39268713"><ele>16.6</ele><time>2022-11-17T18:02:15.0000000+00:00</time></trkpt><trkpt lat="39.48183197" lon="-0.39271697"><ele>16.6</ele><time>2022-11-17T18:02:16.0000000+00:00</time></trkpt><trkpt lat="39.48184211" lon="-0.3927495"><ele>16.8</ele><time>2022-11-17T18:02:17.0000000+00:00</time></trkpt><trkpt lat="39.48185292" lon="-0.39277137"><ele>16.8</ele><time>2022-11-17T18:02:18.0000000+00:00</time></trkpt><trkpt lat="39.48185929" lon="-0.39278981"><ele>17.0</ele><time>2022-11-17T18:02:19.0000000+00:00</time></trkpt><trkpt lat="39.48185904" lon="-0.39281261"><ele>17.0</ele><time>2022-11-17T18:02:20.0000000+00:00</time></trkpt><trkpt lat="39.48185644" lon="-0.39283172"><ele>17.0</ele><time>2022-11-17T18:02:21.0000000+00:00</time></trkpt><trkpt lat="39.48186482" lon="-0.39285804"><ele>17.0</ele><time>2022-11-17T18:02:22.0000000+00:00</time></trkpt><trkpt lat="39.48186893" lon="-0.39288185"><ele>17.0</ele><time>2022-11-17T18:02:23.0000000+00:00</time></trkpt><trkpt lat="39.48186524" lon="-0.39291169"><ele>17.0</ele><time>2022-11-17T18:02:24.0000000+00:00</time></trkpt><trkpt lat="39.48186625" lon="-0.39293381"><ele>17.0</ele><time>2022-11-17T18:02:25.0000000+00:00</time></trkpt><trkpt lat="39.48186281" lon="-0.39294681"><ele>17.0</ele><time>2022-11-17T18:02:26.0000000+00:00</time></trkpt><trkpt lat="39.48186482" lon="-0.39297933"><ele>17.0</ele><time>2022-11-17T18:02:27.0000000+00:00</time></trkpt><trkpt lat="39.48186734" lon="-0.39300866"><ele>17.2</ele><time>2022-11-17T18:02:28.0000000+00:00</time></trkpt><trkpt lat="39.48187463" lon="-0.39303063"><ele>17.2</ele><time>2022-11-17T18:02:29.0000000+00:00</time></trkpt><trkpt lat="39.48187631" lon="-0.39305158"><ele>17.2</ele><time>2022-11-17T18:02:30.0000000+00:00</time></trkpt><trkpt lat="39.48188041" lon="-0.39306935"><ele>16.8</ele><time>2022-11-17T18:02:31.0000000+00:00</time></trkpt><trkpt lat="39.48188284" lon="-0.39309064"><ele>16.8</ele><time>2022-11-17T18:02:32.0000000+00:00</time></trkpt><trkpt lat="39.48188025" lon="-0.39311017"><ele>16.6</ele><time>2022-11-17T18:02:33.0000000+00:00</time></trkpt><trkpt lat="39.48187564" lon="-0.3931219"><ele>16.8</ele><time>2022-11-17T18:02:34.0000000+00:00</time></trkpt><trkpt lat="39.48186759" lon="-0.39312936"><ele>16.6</ele><time>2022-11-17T18:02:35.0000000+00:00</time></trkpt><trkpt lat="39.4818546" lon="-0.39313431"><ele>16.8</ele><time>2022-11-17T18:02:36.0000000+00:00</time></trkpt><trkpt lat="39.48183976" lon="-0.39313599"><ele>16.8</ele><time>2022-11-17T18:02:37.0000000+00:00</time></trkpt><trkpt lat="39.48182275" lon="-0.39313741"><ele>16.8</ele><time>2022-11-17T18:02:38.0000000+00:00</time></trkpt><trkpt lat="39.48180908" lon="-0.3931364"><ele>16.8</ele><time>2022-11-17T18:02:39.0000000+00:00</time></trkpt><trkpt lat="39.48178939" lon="-0.39314143"><ele>16.8</ele><time>2022-11-17T18:02:40.0000000+00:00</time></trkpt><trkpt lat="39.48177413" lon="-0.39314462"><ele>16.8</ele><time>2022-11-17T18:02:41.0000000+00:00</time></trkpt><trkpt lat="39.48176064" lon="-0.39316054"><ele>17.0</ele><time>2022-11-17T18:02:42.0000000+00:00</time></trkpt><trkpt lat="39.48174421" lon="-0.39316926"><ele>17.0</ele><time>2022-11-17T18:02:43.0000000+00:00</time></trkpt><trkpt lat="39.48172258" lon="-0.39318351"><ele>17.0</ele><time>2022-11-17T18:02:44.0000000+00:00</time></trkpt><trkpt lat="39.48170297" lon="-0.39318795"><ele>17.0</ele><time>2022-11-17T18:02:45.0000000+00:00</time></trkpt><trkpt lat="39.48168428" lon="-0.39319256"><ele>17.0</ele><time>2022-11-17T18:02:46.0000000+00:00</time></trkpt><trkpt lat="39.48166944" lon="-0.39319508"><ele>17.0</ele><time>2022-11-17T18:02:47.0000000+00:00</time></trkpt><trkpt lat="39.48165821" lon="-0.39320597"><ele>17.0</ele><time>2022-11-17T18:02:48.0000000+00:00</time></trkpt><trkpt lat="39.48164287" lon="-0.39321989"><ele>16.8</ele><time>2022-11-17T18:02:49.0000000+00:00</time></trkpt><trkpt lat="39.48163147" lon="-0.39322944"><ele>16.8</ele><time>2022-11-17T18:02:50.0000000+00:00</time></trkpt><trkpt lat="39.48162234" lon="-0.39323196"><ele>16.6</ele><time>2022-11-17T18:02:51.0000000+00:00</time></trkpt><trkpt lat="39.48160926" lon="-0.39323833"><ele>16.6</ele><time>2022-11-17T18:02:52.0000000+00:00</time></trkpt><trkpt lat="39.48159853" lon="-0.39324462"><ele>16.8</ele><time>2022-11-17T18:02:53.0000000+00:00</time></trkpt><trkpt lat="39.48158629" lon="-0.39324772"><ele>16.8</ele><time>2022-11-17T18:02:54.0000000+00:00</time></trkpt><trkpt lat="39.48158009" lon="-0.39325476"><ele>16.8</ele><time>2022-11-17T18:02:55.0000000+00:00</time></trkpt><trkpt lat="39.48157716" lon="-0.39325912"><ele>16.6</ele><time>2022-11-17T18:02:56.0000000+00:00</time></trkpt><trkpt lat="39.48157724" lon="-0.39326431"><ele>16.6</ele><time>2022-11-17T18:02:57.0000000+00:00</time></trkpt><trkpt lat="39.48157565" lon="-0.39326917"><ele>16.6</ele><time>2022-11-17T18:02:58.0000000+00:00</time></trkpt><trkpt lat="39.48157288" lon="-0.39328728"><ele>16.6</ele><time>2022-11-17T18:02:59.0000000+00:00</time></trkpt><trkpt lat="39.48156559" lon="-0.39329876"><ele>16.6</ele><time>2022-11-17T18:03:00.0000000+00:00</time></trkpt><trkpt lat="39.48156282" lon="-0.39330153"><ele>16.6</ele><time>2022-11-17T18:03:01.0000000+00:00</time></trkpt><trkpt lat="39.48156215" lon="-0.39330346"><ele>16.6</ele><time>2022-11-17T18:03:02.0000000+00:00</time></trkpt><trkpt lat="39.48156123" lon="-0.39330371"><ele>16.6</ele><time>2022-11-17T18:03:03.0000000+00:00</time></trkpt><trkpt lat="39.48156039" lon="-0.39330429"><ele>16.4</ele><time>2022-11-17T18:03:04.0000000+00:00</time></trkpt><trkpt lat="39.48156006" lon="-0.39330463"><ele>16.4</ele><time>2022-11-17T18:03:05.0000000+00:00</time></trkpt><trkpt lat="39.48155972" lon="-0.3933027"><ele>16.4</ele><time>2022-11-17T18:03:06.0000000+00:00</time></trkpt><trkpt lat="39.4815588" lon="-0.39330312"><ele>16.4</ele><time>2022-11-17T18:03:07.0000000+00:00</time></trkpt><trkpt lat="39.48155821" lon="-0.39330337"><ele>16.4</ele><time>2022-11-17T18:03:08.0000000+00:00</time></trkpt><trkpt lat="39.4815567" lon="-0.39330312"><ele>16.6</ele><time>2022-11-17T18:03:09.0000000+00:00</time></trkpt><trkpt lat="39.48155687" lon="-0.39330245"><ele>16.6</ele><time>2022-11-17T18:03:10.0000000+00:00</time></trkpt><trkpt lat="39.48155687" lon="-0.39330186"><ele>16.6</ele><time>2022-11-17T18:03:11.0000000+00:00</time></trkpt><trkpt lat="39.48155645" lon="-0.39330899"><ele>16.6</ele><time>2022-11-17T18:03:12.0000000+00:00</time></trkpt><trkpt lat="39.48155117" lon="-0.39332324"><ele>16.6</ele><time>2022-11-17T18:03:13.0000000+00:00</time></trkpt><trkpt lat="39.48154631" lon="-0.39333715"><ele>16.6</ele><time>2022-11-17T18:03:14.0000000+00:00</time></trkpt><trkpt lat="39.48154916" lon="-0.3933509"><ele>16.6</ele><time>2022-11-17T18:03:15.0000000+00:00</time></trkpt><trkpt lat="39.48154757" lon="-0.39336448"><ele>16.6</ele><time>2022-11-17T18:03:16.0000000+00:00</time></trkpt><trkpt lat="39.48154355" lon="-0.39338199"><ele>16.6</ele><time>2022-11-17T18:03:17.0000000+00:00</time></trkpt><trkpt lat="39.48153743" lon="-0.39339683"><ele>16.6</ele><time>2022-11-17T18:03:18.0000000+00:00</time></trkpt><trkpt lat="39.481536" lon="-0.39341192"><ele>16.6</ele><time>2022-11-17T18:03:19.0000000+00:00</time></trkpt><trkpt lat="39.48153315" lon="-0.39343136"><ele>16.6</ele><time>2022-11-17T18:03:20.0000000+00:00</time></trkpt><trkpt lat="39.4815293" lon="-0.39345014"><ele>16.6</ele><time>2022-11-17T18:03:21.0000000+00:00</time></trkpt><trkpt lat="39.48151823" lon="-0.39346498"><ele>16.6</ele><time>2022-11-17T18:03:22.0000000+00:00</time></trkpt><trkpt lat="39.4815163" lon="-0.39347495"><ele>16.6</ele><time>2022-11-17T18:03:23.0000000+00:00</time></trkpt><trkpt lat="39.48151823" lon="-0.39347889"><ele>16.6</ele><time>2022-11-17T18:03:24.0000000+00:00</time></trkpt><trkpt lat="39.48152368" lon="-0.39348769"><ele>16.6</ele><time>2022-11-17T18:03:25.0000000+00:00</time></trkpt><trkpt lat="39.48153055" lon="-0.39349465"><ele>16.6</ele><time>2022-11-17T18:03:26.0000000+00:00</time></trkpt><trkpt lat="39.48153541" lon="-0.3935068"><ele>16.6</ele><time>2022-11-17T18:03:27.0000000+00:00</time></trkpt><trkpt lat="39.48154254" lon="-0.39352424"><ele>16.6</ele><time>2022-11-17T18:03:28.0000000+00:00</time></trkpt><trkpt lat="39.48154866" lon="-0.39354343"><ele>16.6</ele><time>2022-11-17T18:03:29.0000000+00:00</time></trkpt><trkpt lat="39.48156014" lon="-0.39356011"><ele>16.6</ele><time>2022-11-17T18:03:30.0000000+00:00</time></trkpt><trkpt lat="39.48157213" lon="-0.39357252"><ele>16.6</ele><time>2022-11-17T18:03:31.0000000+00:00</time></trkpt><trkpt lat="39.48159727" lon="-0.39357847"><ele>16.6</ele><time>2022-11-17T18:03:32.0000000+00:00</time></trkpt><trkpt lat="39.48162041" lon="-0.393584"><ele>16.8</ele><time>2022-11-17T18:03:33.0000000+00:00</time></trkpt><trkpt lat="39.481636" lon="-0.39359716"><ele>16.8</ele><time>2022-11-17T18:03:34.0000000+00:00</time></trkpt><trkpt lat="39.48164597" lon="-0.39361451"><ele>16.8</ele><time>2022-11-17T18:03:35.0000000+00:00</time></trkpt><trkpt lat="39.48165561" lon="-0.39362507"><ele>16.8</ele><time>2022-11-17T18:03:36.0000000+00:00</time></trkpt><trkpt lat="39.48166634" lon="-0.39363496"><ele>16.8</ele><time>2022-11-17T18:03:37.0000000+00:00</time></trkpt><trkpt lat="39.48167489" lon="-0.39364544"><ele>16.8</ele><time>2022-11-17T18:03:38.0000000+00:00</time></trkpt><trkpt lat="39.48168185" lon="-0.39365592"><ele>16.8</ele><time>2022-11-17T18:03:39.0000000+00:00</time></trkpt><trkpt lat="39.48168268" lon="-0.39366212"><ele>17.0</ele><time>2022-11-17T18:03:40.0000000+00:00</time></trkpt><trkpt lat="39.48168134" lon="-0.3936705"><ele>17.0</ele><time>2022-11-17T18:03:41.0000000+00:00</time></trkpt><trkpt lat="39.48168654" lon="-0.39367855"><ele>17.0</ele><time>2022-11-17T18:03:42.0000000+00:00</time></trkpt><trkpt lat="39.48169308" lon="-0.39368726"><ele>17.0</ele><time>2022-11-17T18:03:43.0000000+00:00</time></trkpt><trkpt lat="39.48169869" lon="-0.39369389"><ele>17.0</ele><time>2022-11-17T18:03:44.0000000+00:00</time></trkpt><trkpt lat="39.4817085" lon="-0.39369581"><ele>17.0</ele><time>2022-11-17T18:03:45.0000000+00:00</time></trkpt><trkpt lat="39.48172661" lon="-0.39369757"><ele>17.0</ele><time>2022-11-17T18:03:46.0000000+00:00</time></trkpt><trkpt lat="39.48174555" lon="-0.39370746"><ele>17.0</ele><time>2022-11-17T18:03:47.0000000+00:00</time></trkpt><trkpt lat="39.48176064" lon="-0.39371886"><ele>17.0</ele><time>2022-11-17T18:03:48.0000000+00:00</time></trkpt><trkpt lat="39.48176835" lon="-0.39373269"><ele>16.8</ele><time>2022-11-17T18:03:49.0000000+00:00</time></trkpt><trkpt lat="39.48177732" lon="-0.39374225"><ele>16.8</ele><time>2022-11-17T18:03:50.0000000+00:00</time></trkpt><trkpt lat="39.48177547" lon="-0.39374627"><ele>16.8</ele><time>2022-11-17T18:03:51.0000000+00:00</time></trkpt><trkpt lat="39.48177707" lon="-0.39374669"><ele>16.8</ele><time>2022-11-17T18:03:52.0000000+00:00</time></trkpt><trkpt lat="39.48177438" lon="-0.39374778"><ele>16.8</ele><time>2022-11-17T18:03:53.0000000+00:00</time></trkpt><trkpt lat="39.48176793" lon="-0.39374786"><ele>16.8</ele><time>2022-11-17T18:03:54.0000000+00:00</time></trkpt><trkpt lat="39.48176592" lon="-0.39375365"><ele>16.8</ele><time>2022-11-17T18:03:55.0000000+00:00</time></trkpt><trkpt lat="39.48176298" lon="-0.39376111"><ele>16.8</ele><time>2022-11-17T18:03:56.0000000+00:00</time></trkpt><trkpt lat="39.48176533" lon="-0.39376563"><ele>17.0</ele><time>2022-11-17T18:03:57.0000000+00:00</time></trkpt><trkpt lat="39.48178494" lon="-0.39376144"><ele>17.0</ele><time>2022-11-17T18:03:58.0000000+00:00</time></trkpt><trkpt lat="39.48180062" lon="-0.3937596"><ele>17.0</ele><time>2022-11-17T18:03:59.0000000+00:00</time></trkpt><trkpt lat="39.48181571" lon="-0.39378131"><ele>17.2</ele><time>2022-11-17T18:04:00.0000000+00:00</time></trkpt><trkpt lat="39.48183264" lon="-0.39378449"><ele>17.2</ele><time>2022-11-17T18:04:01.0000000+00:00</time></trkpt><trkpt lat="39.48185016" lon="-0.393786"><ele>17.2</ele><time>2022-11-17T18:04:02.0000000+00:00</time></trkpt><trkpt lat="39.48186893" lon="-0.39378634"><ele>17.2</ele><time>2022-11-17T18:04:03.0000000+00:00</time></trkpt><trkpt lat="39.48183063" lon="-0.39379221"><ele>17.2</ele><time>2022-11-17T18:04:04.0000000+00:00</time></trkpt><trkpt lat="39.48176818" lon="-0.39380453"><ele>17.4</ele><time>2022-11-17T18:04:05.0000000+00:00</time></trkpt><trkpt lat="39.48180364" lon="-0.39380947"><ele>17.4</ele><time>2022-11-17T18:04:06.0000000+00:00</time></trkpt><trkpt lat="39.48179634" lon="-0.39381526"><ele>17.4</ele><time>2022-11-17T18:04:07.0000000+00:00</time></trkpt><trkpt lat="39.48184622" lon="-0.39382355"><ele>17.4</ele><time>2022-11-17T18:04:08.0000000+00:00</time></trkpt><trkpt lat="39.48187354" lon="-0.39383428"><ele>17.4</ele><time>2022-11-17T18:04:09.0000000+00:00</time></trkpt><trkpt lat="39.48189366" lon="-0.3938435"><ele>17.4</ele><time>2022-11-17T18:04:10.0000000+00:00</time></trkpt><trkpt lat="39.48190975" lon="-0.39385968"><ele>17.2</ele><time>2022-11-17T18:04:11.0000000+00:00</time></trkpt><trkpt lat="39.48191109" lon="-0.39387259"><ele>17.2</ele><time>2022-11-17T18:04:12.0000000+00:00</time></trkpt><trkpt lat="39.48192962" lon="-0.39387611"><ele>17.2</ele><time>2022-11-17T18:04:13.0000000+00:00</time></trkpt><trkpt lat="39.48193783" lon="-0.3938694"><ele>17.2</ele><time>2022-11-17T18:04:14.0000000+00:00</time></trkpt><trkpt lat="39.48194722" lon="-0.39386404"><ele>17.0</ele><time>2022-11-17T18:04:15.0000000+00:00</time></trkpt><trkpt lat="39.48195384" lon="-0.39385633"><ele>17.0</ele><time>2022-11-17T18:04:16.0000000+00:00</time></trkpt><trkpt lat="39.4819561" lon="-0.39384166"><ele>17.2</ele><time>2022-11-17T18:04:17.0000000+00:00</time></trkpt><trkpt lat="39.48195962" lon="-0.39382867"><ele>17.2</ele><time>2022-11-17T18:04:18.0000000+00:00</time></trkpt><trkpt lat="39.48196448" lon="-0.39382741"><ele>17.0</ele><time>2022-11-17T18:04:19.0000000+00:00</time></trkpt><trkpt lat="39.48196524" lon="-0.39382422"><ele>17.0</ele><time>2022-11-17T18:04:20.0000000+00:00</time></trkpt><trkpt lat="39.48196272" lon="-0.39382095"><ele>17.0</ele><time>2022-11-17T18:04:21.0000000+00:00</time></trkpt><trkpt lat="39.48196524" lon="-0.39381844"><ele>16.8</ele><time>2022-11-17T18:04:22.0000000+00:00</time></trkpt><trkpt lat="39.48196071" lon="-0.3938031"><ele>16.8</ele><time>2022-11-17T18:04:23.0000000+00:00</time></trkpt><trkpt lat="39.48195493" lon="-0.39378223"><ele>16.8</ele><time>2022-11-17T18:04:24.0000000+00:00</time></trkpt><trkpt lat="39.48196566" lon="-0.39376957"><ele>16.8</ele><time>2022-11-17T18:04:25.0000000+00:00</time></trkpt><trkpt lat="39.48198234" lon="-0.39376295"><ele>17.0</ele><time>2022-11-17T18:04:26.0000000+00:00</time></trkpt><trkpt lat="39.481982" lon="-0.39375608"><ele>17.0</ele><time>2022-11-17T18:04:27.0000000+00:00</time></trkpt><trkpt lat="39.48199441" lon="-0.39375926"><ele>17.0</ele><time>2022-11-17T18:04:28.0000000+00:00</time></trkpt><trkpt lat="39.48201989" lon="-0.39375507"><ele>17.2</ele><time>2022-11-17T18:04:29.0000000+00:00</time></trkpt><trkpt lat="39.48205199" lon="-0.39376061"><ele>17.4</ele><time>2022-11-17T18:04:30.0000000+00:00</time></trkpt><trkpt lat="39.4820773" lon="-0.39377066"><ele>17.4</ele><time>2022-11-17T18:04:31.0000000+00:00</time></trkpt><trkpt lat="39.48209859" lon="-0.39377729"><ele>17.4</ele><time>2022-11-17T18:04:32.0000000+00:00</time></trkpt><trkpt lat="39.48212097" lon="-0.39378567"><ele>17.6</ele><time>2022-11-17T18:04:33.0000000+00:00</time></trkpt><trkpt lat="39.4821457" lon="-0.39379698"><ele>17.6</ele><time>2022-11-17T18:04:34.0000000+00:00</time></trkpt><trkpt lat="39.48217286" lon="-0.39381123"><ele>17.6</ele><time>2022-11-17T18:04:35.0000000+00:00</time></trkpt><trkpt lat="39.48219691" lon="-0.39380805"><ele>17.6</ele><time>2022-11-17T18:04:36.0000000+00:00</time></trkpt><trkpt lat="39.48222776" lon="-0.39382624"><ele>17.8</ele><time>2022-11-17T18:04:37.0000000+00:00</time></trkpt><trkpt lat="39.48224335" lon="-0.39382657"><ele>17.8</ele><time>2022-11-17T18:04:38.0000000+00:00</time></trkpt><trkpt lat="39.4822125" lon="-0.39381911"><ele>17.8</ele><time>2022-11-17T18:04:39.0000000+00:00</time></trkpt><trkpt lat="39.48220622" lon="-0.39381618"><ele>17.8</ele><time>2022-11-17T18:04:40.0000000+00:00</time></trkpt><trkpt lat="39.48218853" lon="-0.39380092"><ele>17.6</ele><time>2022-11-17T18:04:41.0000000+00:00</time></trkpt><trkpt lat="39.48219323" lon="-0.39379757"><ele>17.6</ele><time>2022-11-17T18:04:42.0000000+00:00</time></trkpt><trkpt lat="39.48219608" lon="-0.39378927"><ele>17.6</ele><time>2022-11-17T18:04:43.0000000+00:00</time></trkpt><trkpt lat="39.48220178" lon="-0.393785"><ele>17.6</ele><time>2022-11-17T18:04:44.0000000+00:00</time></trkpt><trkpt lat="39.48221167" lon="-0.39378257"><ele>17.6</ele><time>2022-11-17T18:04:45.0000000+00:00</time></trkpt><trkpt lat="39.48222885" lon="-0.39378785"><ele>17.6</ele><time>2022-11-17T18:04:46.0000000+00:00</time></trkpt><trkpt lat="39.48224419" lon="-0.39378852"><ele>17.6</ele><time>2022-11-17T18:04:47.0000000+00:00</time></trkpt><trkpt lat="39.48226858" lon="-0.39379246"><ele>17.6</ele><time>2022-11-17T18:04:48.0000000+00:00</time></trkpt><trkpt lat="39.48228451" lon="-0.39378927"><ele>17.6</ele><time>2022-11-17T18:04:49.0000000+00:00</time></trkpt><trkpt lat="39.48231719" lon="-0.39378567"><ele>17.6</ele><time>2022-11-17T18:04:50.0000000+00:00</time></trkpt><trkpt lat="39.48234921" lon="-0.3937943"><ele>17.6</ele><time>2022-11-17T18:04:51.0000000+00:00</time></trkpt><trkpt lat="39.48237704" lon="-0.39376312"><ele>17.6</ele><time>2022-11-17T18:04:52.0000000+00:00</time></trkpt><trkpt lat="39.48241493" lon="-0.39377703"><ele>17.6</ele><time>2022-11-17T18:04:53.0000000+00:00</time></trkpt><trkpt lat="39.48244468" lon="-0.39377754"><ele>17.6</ele><time>2022-11-17T18:04:54.0000000+00:00</time></trkpt><trkpt lat="39.48247737" lon="-0.39377888"><ele>17.6</ele><time>2022-11-17T18:04:55.0000000+00:00</time></trkpt><trkpt lat="39.48253169" lon="-0.39379397"><ele>17.4</ele><time>2022-11-17T18:04:56.0000000+00:00</time></trkpt><trkpt lat="39.48259262" lon="-0.39381702"><ele>17.4</ele><time>2022-11-17T18:04:57.0000000+00:00</time></trkpt><trkpt lat="39.48264493" lon="-0.39383495"><ele>17.4</ele><time>2022-11-17T18:04:58.0000000+00:00</time></trkpt><trkpt lat="39.48266228" lon="-0.39382313"><ele>17.4</ele><time>2022-11-17T18:04:59.0000000+00:00</time></trkpt><trkpt lat="39.48268172" lon="-0.39382297"><ele>17.4</ele><time>2022-11-17T18:05:00.0000000+00:00</time></trkpt><trkpt lat="39.48271156" lon="-0.39383898"><ele>17.4</ele><time>2022-11-17T18:05:01.0000000+00:00</time></trkpt><trkpt lat="39.48275825" lon="-0.39386781"><ele>17.4</ele><time>2022-11-17T18:05:02.0000000+00:00</time></trkpt><trkpt lat="39.48277015" lon="-0.39389161"><ele>17.4</ele><time>2022-11-17T18:05:03.0000000+00:00</time></trkpt><trkpt lat="39.48277979" lon="-0.39390561"><ele>17.2</ele><time>2022-11-17T18:05:04.0000000+00:00</time></trkpt><trkpt lat="39.4828005" lon="-0.39392171"><ele>17.2</ele><time>2022-11-17T18:05:05.0000000+00:00</time></trkpt><trkpt lat="39.4828186" lon="-0.39393361"><ele>17.2</ele><time>2022-11-17T18:05:06.0000000+00:00</time></trkpt><trkpt lat="39.48283821" lon="-0.39393788"><ele>17.2</ele><time>2022-11-17T18:05:07.0000000+00:00</time></trkpt><trkpt lat="39.48284165" lon="-0.39393738"><ele>17.2</ele><time>2022-11-17T18:05:08.0000000+00:00</time></trkpt><trkpt lat="39.48284257" lon="-0.3939461"><ele>17.2</ele><time>2022-11-17T18:05:09.0000000+00:00</time></trkpt><trkpt lat="39.48283997" lon="-0.39395607"><ele>17.2</ele><time>2022-11-17T18:05:10.0000000+00:00</time></trkpt><trkpt lat="39.48283721" lon="-0.3939647"><ele>17.4</ele><time>2022-11-17T18:05:11.0000000+00:00</time></trkpt><trkpt lat="39.48283377" lon="-0.39396579"><ele>17.4</ele><time>2022-11-17T18:05:12.0000000+00:00</time></trkpt><trkpt lat="39.48282916" lon="-0.39397434"><ele>17.4</ele><time>2022-11-17T18:05:13.0000000+00:00</time></trkpt><trkpt lat="39.48282405" lon="-0.39397904"><ele>17.4</ele><time>2022-11-17T18:05:14.0000000+00:00</time></trkpt><trkpt lat="39.48282925" lon="-0.39399044"><ele>17.4</ele><time>2022-11-17T18:05:15.0000000+00:00</time></trkpt><trkpt lat="39.48283595" lon="-0.39400234"><ele>17.4</ele><time>2022-11-17T18:05:16.0000000+00:00</time></trkpt><trkpt lat="39.48284106" lon="-0.39401525"><ele>17.4</ele><time>2022-11-17T18:05:17.0000000+00:00</time></trkpt><trkpt lat="39.48284132" lon="-0.39402405"><ele>17.2</ele><time>2022-11-17T18:05:18.0000000+00:00</time></trkpt><trkpt lat="39.48283897" lon="-0.3940388"><ele>17.2</ele><time>2022-11-17T18:05:19.0000000+00:00</time></trkpt><trkpt lat="39.48283947" lon="-0.39405204"><ele>17.2</ele><time>2022-11-17T18:05:20.0000000+00:00</time></trkpt><trkpt lat="39.48284257" lon="-0.39405833"><ele>17.2</ele><time>2022-11-17T18:05:21.0000000+00:00</time></trkpt><trkpt lat="39.48284995" lon="-0.39406001"><ele>17.2</ele><time>2022-11-17T18:05:22.0000000+00:00</time></trkpt><trkpt lat="39.48286654" lon="-0.39405875"><ele>17.2</ele><time>2022-11-17T18:05:23.0000000+00:00</time></trkpt><trkpt lat="39.48288121" lon="-0.39406302"><ele>17.2</ele><time>2022-11-17T18:05:24.0000000+00:00</time></trkpt><trkpt lat="39.48291105" lon="-0.39406671"><ele>17.2</ele><time>2022-11-17T18:05:25.0000000+00:00</time></trkpt><trkpt lat="39.48293394" lon="-0.39406353"><ele>17.2</ele><time>2022-11-17T18:05:26.0000000+00:00</time></trkpt><trkpt lat="39.48296528" lon="-0.3940839"><ele>17.2</ele><time>2022-11-17T18:05:27.0000000+00:00</time></trkpt><trkpt lat="39.48298909" lon="-0.39409848"><ele>17.4</ele><time>2022-11-17T18:05:28.0000000+00:00</time></trkpt><trkpt lat="39.48302262" lon="-0.39410183"><ele>17.4</ele><time>2022-11-17T18:05:29.0000000+00:00</time></trkpt><trkpt lat="39.48303527" lon="-0.39409312"><ele>17.4</ele><time>2022-11-17T18:05:30.0000000+00:00</time></trkpt><trkpt lat="39.4830916" lon="-0.39411625"><ele>17.4</ele><time>2022-11-17T18:05:31.0000000+00:00</time></trkpt><trkpt lat="39.48312622" lon="-0.394131"><ele>17.4</ele><time>2022-11-17T18:05:32.0000000+00:00</time></trkpt><trkpt lat="39.48317064" lon="-0.39415246"><ele>17.4</ele><time>2022-11-17T18:05:33.0000000+00:00</time></trkpt><trkpt lat="39.48319294" lon="-0.39416688"><ele>17.4</ele><time>2022-11-17T18:05:34.0000000+00:00</time></trkpt><trkpt lat="39.48320358" lon="-0.39417727"><ele>17.4</ele><time>2022-11-17T18:05:35.0000000+00:00</time></trkpt><trkpt lat="39.48321825" lon="-0.39419144"><ele>17.4</ele><time>2022-11-17T18:05:36.0000000+00:00</time></trkpt><trkpt lat="39.48323476" lon="-0.39419906"><ele>17.4</ele><time>2022-11-17T18:05:37.0000000+00:00</time></trkpt><trkpt lat="39.48324289" lon="-0.39419973"><ele>17.2</ele><time>2022-11-17T18:05:38.0000000+00:00</time></trkpt><trkpt lat="39.48325262" lon="-0.39419822"><ele>17.2</ele><time>2022-11-17T18:05:39.0000000+00:00</time></trkpt><trkpt lat="39.48326334" lon="-0.39419982"><ele>17.2</ele><time>2022-11-17T18:05:40.0000000+00:00</time></trkpt><trkpt lat="39.48325773" lon="-0.39421884"><ele>17.2</ele><time>2022-11-17T18:05:41.0000000+00:00</time></trkpt><trkpt lat="39.48325982" lon="-0.39422605"><ele>17.2</ele><time>2022-11-17T18:05:42.0000000+00:00</time></trkpt><trkpt lat="39.48326569" lon="-0.39423351"><ele>17.2</ele><time>2022-11-17T18:05:43.0000000+00:00</time></trkpt><trkpt lat="39.48327223" lon="-0.39425002"><ele>17.2</ele><time>2022-11-17T18:05:44.0000000+00:00</time></trkpt><trkpt lat="39.48328631" lon="-0.3942341"><ele>17.2</ele><time>2022-11-17T18:05:45.0000000+00:00</time></trkpt><trkpt lat="39.48330014" lon="-0.39422773"><ele>17.4</ele><time>2022-11-17T18:05:46.0000000+00:00</time></trkpt><trkpt lat="39.48331514" lon="-0.39422488"><ele>17.4</ele><time>2022-11-17T18:05:47.0000000+00:00</time></trkpt><trkpt lat="39.4833309" lon="-0.39421868"><ele>17.4</ele><time>2022-11-17T18:05:48.0000000+00:00</time></trkpt><trkpt lat="39.48333392" lon="-0.39422731"><ele>17.4</ele><time>2022-11-17T18:05:49.0000000+00:00</time></trkpt><trkpt lat="39.48334239" lon="-0.39423477"><ele>17.4</ele><time>2022-11-17T18:05:50.0000000+00:00</time></trkpt><trkpt lat="39.48334917" lon="-0.39424751"><ele>17.4</ele><time>2022-11-17T18:05:51.0000000+00:00</time></trkpt><trkpt lat="39.48336351" lon="-0.39424927"><ele>17.4</ele><time>2022-11-17T18:05:52.0000000+00:00</time></trkpt><trkpt lat="39.48336862" lon="-0.39425262"><ele>17.4</ele><time>2022-11-17T18:05:53.0000000+00:00</time></trkpt><trkpt lat="39.48337952" lon="-0.3942574"><ele>17.4</ele><time>2022-11-17T18:05:54.0000000+00:00</time></trkpt><trkpt lat="39.48339067" lon="-0.39427006"><ele>17.4</ele><time>2022-11-17T18:05:55.0000000+00:00</time></trkpt><trkpt lat="39.48339997" lon="-0.39430216"><ele>17.4</ele><time>2022-11-17T18:05:56.0000000+00:00</time></trkpt><trkpt lat="39.48340961" lon="-0.39433611"><ele>17.4</ele><time>2022-11-17T18:05:57.0000000+00:00</time></trkpt><trkpt lat="39.48341497" lon="-0.39436846"><ele>17.4</ele><time>2022-11-17T18:05:58.0000000+00:00</time></trkpt><trkpt lat="39.48341548" lon="-0.39437399"><ele>17.4</ele><time>2022-11-17T18:05:59.0000000+00:00</time></trkpt><trkpt lat="39.48342872" lon="-0.39440517"><ele>17.4</ele><time>2022-11-17T18:06:00.0000000+00:00</time></trkpt><trkpt lat="39.48344096" lon="-0.39443116"><ele>17.4</ele><time>2022-11-17T18:06:01.0000000+00:00</time></trkpt><trkpt lat="39.48345236" lon="-0.39445102"><ele>17.4</ele><time>2022-11-17T18:06:02.0000000+00:00</time></trkpt><trkpt lat="39.48344993" lon="-0.39447072"><ele>17.4</ele><time>2022-11-17T18:06:03.0000000+00:00</time></trkpt><trkpt lat="39.48344976" lon="-0.39446955"><ele>17.4</ele><time>2022-11-17T18:06:04.0000000+00:00</time></trkpt><trkpt lat="39.4834563" lon="-0.39447977"><ele>17.4</ele><time>2022-11-17T18:06:05.0000000+00:00</time></trkpt><trkpt lat="39.48345839" lon="-0.39448916"><ele>17.4</ele><time>2022-11-17T18:06:06.0000000+00:00</time></trkpt><trkpt lat="39.48346183" lon="-0.39450165"><ele>17.6</ele><time>2022-11-17T18:06:07.0000000+00:00</time></trkpt><trkpt lat="39.48346426" lon="-0.39451925"><ele>17.6</ele><time>2022-11-17T18:06:08.0000000+00:00</time></trkpt><trkpt lat="39.48347842" lon="-0.39453384"><ele>17.6</ele><time>2022-11-17T18:06:09.0000000+00:00</time></trkpt><trkpt lat="39.48349108" lon="-0.39454985"><ele>17.6</ele><time>2022-11-17T18:06:10.0000000+00:00</time></trkpt><trkpt lat="39.48349427" lon="-0.3945687"><ele>17.8</ele><time>2022-11-17T18:06:11.0000000+00:00</time></trkpt><trkpt lat="39.48349477" lon="-0.39459343"><ele>17.8</ele><time>2022-11-17T18:06:12.0000000+00:00</time></trkpt><trkpt lat="39.48349318" lon="-0.39461422"><ele>17.8</ele><time>2022-11-17T18:06:13.0000000+00:00</time></trkpt><trkpt lat="39.48348915" lon="-0.39462964"><ele>18.0</ele><time>2022-11-17T18:06:14.0000000+00:00</time></trkpt><trkpt lat="39.48348731" lon="-0.39464741"><ele>18.0</ele><time>2022-11-17T18:06:15.0000000+00:00</time></trkpt><trkpt lat="39.48347281" lon="-0.39466627"><ele>18.0</ele><time>2022-11-17T18:06:16.0000000+00:00</time></trkpt><trkpt lat="39.4834625" lon="-0.39468362"><ele>18.0</ele><time>2022-11-17T18:06:17.0000000+00:00</time></trkpt><trkpt lat="39.48345219" lon="-0.3947055"><ele>18.0</ele><time>2022-11-17T18:06:18.0000000+00:00</time></trkpt><trkpt lat="39.48344138" lon="-0.39472645"><ele>18.0</ele><time>2022-11-17T18:06:19.0000000+00:00</time></trkpt><trkpt lat="39.4834314" lon="-0.3947412"><ele>18.0</ele><time>2022-11-17T18:06:20.0000000+00:00</time></trkpt><trkpt lat="39.48342486" lon="-0.3947547"><ele>18.0</ele><time>2022-11-17T18:06:21.0000000+00:00</time></trkpt><trkpt lat="39.48342755" lon="-0.394764"><ele>18.0</ele><time>2022-11-17T18:06:22.0000000+00:00</time></trkpt><trkpt lat="39.48343869" lon="-0.3947754"><ele>18.0</ele><time>2022-11-17T18:06:23.0000000+00:00</time></trkpt><trkpt lat="39.48345847" lon="-0.39479242"><ele>18.0</ele><time>2022-11-17T18:06:24.0000000+00:00</time></trkpt><trkpt lat="39.48346769" lon="-0.39480885"><ele>18.0</ele><time>2022-11-17T18:06:25.0000000+00:00</time></trkpt><trkpt lat="39.48346887" lon="-0.3948189"><ele>18.0</ele><time>2022-11-17T18:06:26.0000000+00:00</time></trkpt><trkpt lat="39.4834718" lon="-0.39483089"><ele>18.0</ele><time>2022-11-17T18:06:27.0000000+00:00</time></trkpt><trkpt lat="39.48347423" lon="-0.3948443"><ele>18.0</ele><time>2022-11-17T18:06:28.0000000+00:00</time></trkpt><trkpt lat="39.48347574" lon="-0.39486157"><ele>18.0</ele><time>2022-11-17T18:06:29.0000000+00:00</time></trkpt><trkpt lat="39.48347851" lon="-0.3948873"><ele>18.0</ele><time>2022-11-17T18:06:30.0000000+00:00</time></trkpt><trkpt lat="39.48348773" lon="-0.39491194"><ele>18.0</ele><time>2022-11-17T18:06:31.0000000+00:00</time></trkpt><trkpt lat="39.48350759" lon="-0.39492904"><ele>18.0</ele><time>2022-11-17T18:06:32.0000000+00:00</time></trkpt><trkpt lat="39.48353207" lon="-0.39494203"><ele>18.0</ele><time>2022-11-17T18:06:33.0000000+00:00</time></trkpt><trkpt lat="39.48355126" lon="-0.39494371"><ele>18.0</ele><time>2022-11-17T18:06:34.0000000+00:00</time></trkpt><trkpt lat="39.48356719" lon="-0.39495578"><ele>18.0</ele><time>2022-11-17T18:06:35.0000000+00:00</time></trkpt><trkpt lat="39.48358672" lon="-0.39497112"><ele>18.0</ele><time>2022-11-17T18:06:36.0000000+00:00</time></trkpt><trkpt lat="39.4835956" lon="-0.39498068"><ele>18.0</ele><time>2022-11-17T18:06:37.0000000+00:00</time></trkpt><trkpt lat="39.48359418" lon="-0.39499182"><ele>18.0</ele><time>2022-11-17T18:06:38.0000000+00:00</time></trkpt><trkpt lat="39.48360985" lon="-0.39501202"><ele>18.0</ele><time>2022-11-17T18:06:39.0000000+00:00</time></trkpt><trkpt lat="39.48362326" lon="-0.39502619"><ele>18.0</ele><time>2022-11-17T18:06:40.0000000+00:00</time></trkpt><trkpt lat="39.4836391" lon="-0.39503994"><ele>18.0</ele><time>2022-11-17T18:06:41.0000000+00:00</time></trkpt><trkpt lat="39.48365386" lon="-0.39504689"><ele>18.0</ele><time>2022-11-17T18:06:42.0000000+00:00</time></trkpt><trkpt lat="39.48365931" lon="-0.39505192"><ele>18.0</ele><time>2022-11-17T18:06:43.0000000+00:00</time></trkpt><trkpt lat="39.48366534" lon="-0.39505284"><ele>18.0</ele><time>2022-11-17T18:06:44.0000000+00:00</time></trkpt><trkpt lat="39.48367272" lon="-0.39505368"><ele>18.0</ele><time>2022-11-17T18:06:45.0000000+00:00</time></trkpt><trkpt lat="39.48368034" lon="-0.3950634"><ele>18.0</ele><time>2022-11-17T18:06:46.0000000+00:00</time></trkpt><trkpt lat="39.48368898" lon="-0.39506718"><ele>18.0</ele><time>2022-11-17T18:06:47.0000000+00:00</time></trkpt><trkpt lat="39.4836909" lon="-0.39506793"><ele>18.0</ele><time>2022-11-17T18:06:48.0000000+00:00</time></trkpt><trkpt lat="39.48369275" lon="-0.39506399"><ele>18.0</ele><time>2022-11-17T18:06:49.0000000+00:00</time></trkpt><trkpt lat="39.48368596" lon="-0.39505972"><ele>18.0</ele><time>2022-11-17T18:06:50.0000000+00:00</time></trkpt><trkpt lat="39.48368856" lon="-0.39506877"><ele>18.0</ele><time>2022-11-17T18:06:51.0000000+00:00</time></trkpt><trkpt lat="39.48369308" lon="-0.39507145"><ele>18.2</ele><time>2022-11-17T18:06:52.0000000+00:00</time></trkpt><trkpt lat="39.48370398" lon="-0.39506961"><ele>18.2</ele><time>2022-11-17T18:06:53.0000000+00:00</time></trkpt><trkpt lat="39.4837246" lon="-0.39507112"><ele>18.2</ele><time>2022-11-17T18:06:54.0000000+00:00</time></trkpt><trkpt lat="39.48372502" lon="-0.39506005"><ele>18.2</ele><time>2022-11-17T18:06:55.0000000+00:00</time></trkpt><trkpt lat="39.48373055" lon="-0.39505913"><ele>18.2</ele><time>2022-11-17T18:06:56.0000000+00:00</time></trkpt><trkpt lat="39.48373751" lon="-0.39506131"><ele>18.2</ele><time>2022-11-17T18:06:57.0000000+00:00</time></trkpt><trkpt lat="39.48374597" lon="-0.39507497"><ele>18.2</ele><time>2022-11-17T18:06:58.0000000+00:00</time></trkpt><trkpt lat="39.48375209" lon="-0.39508109"><ele>18.2</ele><time>2022-11-17T18:06:59.0000000+00:00</time></trkpt><trkpt lat="39.48376525" lon="-0.39508914"><ele>18.2</ele><time>2022-11-17T18:07:00.0000000+00:00</time></trkpt><trkpt lat="39.48378135" lon="-0.39509618"><ele>18.2</ele><time>2022-11-17T18:07:01.0000000+00:00</time></trkpt><trkpt lat="39.48379886" lon="-0.3950992"><ele>18.2</ele><time>2022-11-17T18:07:02.0000000+00:00</time></trkpt><trkpt lat="39.48381412" lon="-0.39510322"><ele>18.4</ele><time>2022-11-17T18:07:03.0000000+00:00</time></trkpt><trkpt lat="39.48382242" lon="-0.39510163"><ele>18.4</ele><time>2022-11-17T18:07:04.0000000+00:00</time></trkpt><trkpt lat="39.48382988" lon="-0.39510121"><ele>18.6</ele><time>2022-11-17T18:07:05.0000000+00:00</time></trkpt><trkpt lat="39.48383658" lon="-0.39510515"><ele>18.6</ele><time>2022-11-17T18:07:06.0000000+00:00</time></trkpt><trkpt lat="39.48385083" lon="-0.39509232"><ele>18.6</ele><time>2022-11-17T18:07:07.0000000+00:00</time></trkpt><trkpt lat="39.48387254" lon="-0.39507313"><ele>18.6</ele><time>2022-11-17T18:07:08.0000000+00:00</time></trkpt><trkpt lat="39.483894" lon="-0.39506961"><ele>18.6</ele><time>2022-11-17T18:07:09.0000000+00:00</time></trkpt><trkpt lat="39.48391529" lon="-0.39506902"><ele>18.8</ele><time>2022-11-17T18:07:10.0000000+00:00</time></trkpt><trkpt lat="39.48393825" lon="-0.39507606"><ele>18.6</ele><time>2022-11-17T18:07:11.0000000+00:00</time></trkpt><trkpt lat="39.48396097" lon="-0.39508428"><ele>18.6</ele><time>2022-11-17T18:07:12.0000000+00:00</time></trkpt><trkpt lat="39.48398394" lon="-0.3950862"><ele>18.6</ele><time>2022-11-17T18:07:13.0000000+00:00</time></trkpt><trkpt lat="39.48400732" lon="-0.39509098"><ele>18.6</ele><time>2022-11-17T18:07:14.0000000+00:00</time></trkpt><trkpt lat="39.4840287" lon="-0.39509861"><ele>18.6</ele><time>2022-11-17T18:07:15.0000000+00:00</time></trkpt><trkpt lat="39.48405158" lon="-0.39510632"><ele>18.4</ele><time>2022-11-17T18:07:16.0000000+00:00</time></trkpt><trkpt lat="39.48406549" lon="-0.3951147"><ele>18.4</ele><time>2022-11-17T18:07:17.0000000+00:00</time></trkpt><trkpt lat="39.48409567" lon="-0.39511479"><ele>18.4</ele><time>2022-11-17T18:07:18.0000000+00:00</time></trkpt><trkpt lat="39.48410489" lon="-0.39512543"><ele>18.4</ele><time>2022-11-17T18:07:19.0000000+00:00</time></trkpt><trkpt lat="39.48411964" lon="-0.39513121"><ele>18.4</ele><time>2022-11-17T18:07:20.0000000+00:00</time></trkpt><trkpt lat="39.48410623" lon="-0.39516315"><ele>18.4</ele><time>2022-11-17T18:07:21.0000000+00:00</time></trkpt><trkpt lat="39.48406734" lon="-0.39516902"><ele>18.4</ele><time>2022-11-17T18:07:22.0000000+00:00</time></trkpt><trkpt lat="39.48403171" lon="-0.3951862"><ele>18.4</ele><time>2022-11-17T18:07:23.0000000+00:00</time></trkpt><trkpt lat="39.48399626" lon="-0.39520087"><ele>18.4</ele><time>2022-11-17T18:07:24.0000000+00:00</time></trkpt><trkpt lat="39.48395561" lon="-0.39522057"><ele>18.4</ele><time>2022-11-17T18:07:25.0000000+00:00</time></trkpt><trkpt lat="39.48391227" lon="-0.39524496"><ele>18.4</ele><time>2022-11-17T18:07:26.0000000+00:00</time></trkpt><trkpt lat="39.48386139" lon="-0.39527538"><ele>18.4</ele><time>2022-11-17T18:07:27.0000000+00:00</time></trkpt><trkpt lat="39.48383876" lon="-0.39525543"><ele>18.4</ele><time>2022-11-17T18:07:28.0000000+00:00</time></trkpt><trkpt lat="39.48379937" lon="-0.39525552"><ele>18.4</ele><time>2022-11-17T18:07:29.0000000+00:00</time></trkpt><trkpt lat="39.48382342" lon="-0.39526113"><ele>18.4</ele><time>2022-11-17T18:07:30.0000000+00:00</time></trkpt><trkpt lat="39.48386047" lon="-0.39527295"><ele>18.4</ele><time>2022-11-17T18:07:31.0000000+00:00</time></trkpt><trkpt lat="39.48389207" lon="-0.395282"><ele>18.2</ele><time>2022-11-17T18:07:32.0000000+00:00</time></trkpt><trkpt lat="39.48389559" lon="-0.39527865"><ele>18.2</ele><time>2022-11-17T18:07:33.0000000+00:00</time></trkpt><trkpt lat="39.48389584" lon="-0.39527731"><ele>18.2</ele><time>2022-11-17T18:07:34.0000000+00:00</time></trkpt><trkpt lat="39.48390699" lon="-0.39527999"><ele>18.2</ele><time>2022-11-17T18:07:35.0000000+00:00</time></trkpt><trkpt lat="39.48390883" lon="-0.39527941"><ele>18.2</ele><time>2022-11-17T18:07:36.0000000+00:00</time></trkpt><trkpt lat="39.48390934" lon="-0.3952784"><ele>18.2</ele><time>2022-11-17T18:07:37.0000000+00:00</time></trkpt><trkpt lat="39.48390942" lon="-0.39528041"><ele>18.2</ele><time>2022-11-17T18:07:38.0000000+00:00</time></trkpt><trkpt lat="39.48391755" lon="-0.39528863"><ele>18.0</ele><time>2022-11-17T18:07:39.0000000+00:00</time></trkpt><trkpt lat="39.48392644" lon="-0.39530061"><ele>18.0</ele><time>2022-11-17T18:07:40.0000000+00:00</time></trkpt><trkpt lat="39.48393683" lon="-0.39531117"><ele>18.0</ele><time>2022-11-17T18:07:41.0000000+00:00</time></trkpt><trkpt lat="39.48393918" lon="-0.39531746"><ele>18.0</ele><time>2022-11-17T18:07:42.0000000+00:00</time></trkpt><trkpt lat="39.4839406" lon="-0.39532249"><ele>18.0</ele><time>2022-11-17T18:07:43.0000000+00:00</time></trkpt><trkpt lat="39.48393993" lon="-0.39532643"><ele>17.8</ele><time>2022-11-17T18:07:44.0000000+00:00</time></trkpt><trkpt lat="39.48393633" lon="-0.39533112"><ele>17.8</ele><time>2022-11-17T18:07:45.0000000+00:00</time></trkpt><trkpt lat="39.48393599" lon="-0.39533548"><ele>17.8</ele><time>2022-11-17T18:07:46.0000000+00:00</time></trkpt><trkpt lat="39.48393364" lon="-0.39533624"><ele>17.8</ele><time>2022-11-17T18:07:47.0000000+00:00</time></trkpt><trkpt lat="39.48393063" lon="-0.39533297"><ele>18.0</ele><time>2022-11-17T18:07:48.0000000+00:00</time></trkpt><trkpt lat="39.48393054" lon="-0.39532366"><ele>18.2</ele><time>2022-11-17T18:07:49.0000000+00:00</time></trkpt><trkpt lat="39.48393876" lon="-0.39532299"><ele>18.4</ele><time>2022-11-17T18:07:50.0000000+00:00</time></trkpt><trkpt lat="39.48395343" lon="-0.39532651"><ele>18.4</ele><time>2022-11-17T18:07:51.0000000+00:00</time></trkpt><trkpt lat="39.4839546" lon="-0.39532836"><ele>18.4</ele><time>2022-11-17T18:07:52.0000000+00:00</time></trkpt><trkpt lat="39.48395586" lon="-0.39532676"><ele>18.4</ele><time>2022-11-17T18:07:53.0000000+00:00</time></trkpt><trkpt lat="39.48397765" lon="-0.3953328"><ele>18.6</ele><time>2022-11-17T18:07:54.0000000+00:00</time></trkpt><trkpt lat="39.48402241" lon="-0.39534713"><ele>18.6</ele><time>2022-11-17T18:07:55.0000000+00:00</time></trkpt><trkpt lat="39.48406315" lon="-0.39536339"><ele>18.6</ele><time>2022-11-17T18:07:56.0000000+00:00</time></trkpt><trkpt lat="39.48409483" lon="-0.39537781"><ele>18.4</ele><time>2022-11-17T18:07:57.0000000+00:00</time></trkpt><trkpt lat="39.48411486" lon="-0.39538921"><ele>18.4</ele><time>2022-11-17T18:07:58.0000000+00:00</time></trkpt><trkpt lat="39.48413464" lon="-0.3954017"><ele>18.4</ele><time>2022-11-17T18:07:59.0000000+00:00</time></trkpt><trkpt lat="39.4841649" lon="-0.39541343"><ele>18.4</ele><time>2022-11-17T18:08:00.0000000+00:00</time></trkpt><trkpt lat="39.48417085" lon="-0.39541838"><ele>18.4</ele><time>2022-11-17T18:08:01.0000000+00:00</time></trkpt><trkpt lat="39.48417991" lon="-0.39541595"><ele>18.4</ele><time>2022-11-17T18:08:02.0000000+00:00</time></trkpt><trkpt lat="39.4841908" lon="-0.39541469"><ele>18.4</ele><time>2022-11-17T18:08:03.0000000+00:00</time></trkpt><trkpt lat="39.48420103" lon="-0.395411"><ele>18.4</ele><time>2022-11-17T18:08:04.0000000+00:00</time></trkpt><trkpt lat="39.48421276" lon="-0.39541033"><ele>18.6</ele><time>2022-11-17T18:08:05.0000000+00:00</time></trkpt><trkpt lat="39.4842271" lon="-0.39541083"><ele>18.6</ele><time>2022-11-17T18:08:06.0000000+00:00</time></trkpt><trkpt lat="39.48419164" lon="-0.3954338"><ele>18.6</ele><time>2022-11-17T18:08:07.0000000+00:00</time></trkpt><trkpt lat="39.48413984" lon="-0.39546624"><ele>18.6</ele><time>2022-11-17T18:08:08.0000000+00:00</time></trkpt><trkpt lat="39.48409055" lon="-0.39549415"><ele>18.6</ele><time>2022-11-17T18:08:09.0000000+00:00</time></trkpt><trkpt lat="39.48403875" lon="-0.39552248"><ele>18.8</ele><time>2022-11-17T18:08:10.0000000+00:00</time></trkpt><trkpt lat="39.48396742" lon="-0.39558426"><ele>18.8</ele><time>2022-11-17T18:08:11.0000000+00:00</time></trkpt><trkpt lat="39.48387279" lon="-0.39566875"><ele>18.8</ele><time>2022-11-17T18:08:12.0000000+00:00</time></trkpt><trkpt lat="39.48378621" lon="-0.3957508"><ele>19.0</ele><time>2022-11-17T18:08:13.0000000+00:00</time></trkpt><trkpt lat="39.48370205" lon="-0.39580755"><ele>19.2</ele><time>2022-11-17T18:08:14.0000000+00:00</time></trkpt><trkpt lat="39.48365662" lon="-0.39576002"><ele>19.2</ele><time>2022-11-17T18:08:15.0000000+00:00</time></trkpt><trkpt lat="39.48371664" lon="-0.39571912"><ele>19.4</ele><time>2022-11-17T18:08:16.0000000+00:00</time></trkpt><trkpt lat="39.48371354" lon="-0.39568543"><ele>19.4</ele><time>2022-11-17T18:08:17.0000000+00:00</time></trkpt><trkpt lat="39.48376718" lon="-0.39570152"><ele>19.4</ele><time>2022-11-17T18:08:18.0000000+00:00</time></trkpt><trkpt lat="39.48379199" lon="-0.39569917"><ele>19.6</ele><time>2022-11-17T18:08:19.0000000+00:00</time></trkpt><trkpt lat="39.48380859" lon="-0.39569263"><ele>19.6</ele><time>2022-11-17T18:08:20.0000000+00:00</time></trkpt><trkpt lat="39.48381789" lon="-0.39568945"><ele>19.6</ele><time>2022-11-17T18:08:21.0000000+00:00</time></trkpt><trkpt lat="39.48384061" lon="-0.39568509"><ele>19.6</ele><time>2022-11-17T18:08:22.0000000+00:00</time></trkpt><trkpt lat="39.48383139" lon="-0.39569775"><ele>19.6</ele><time>2022-11-17T18:08:23.0000000+00:00</time></trkpt><trkpt lat="39.48384379" lon="-0.39571367"><ele>19.6</ele><time>2022-11-17T18:08:24.0000000+00:00</time></trkpt><trkpt lat="39.48388838" lon="-0.39571954"><ele>19.6</ele><time>2022-11-17T18:08:25.0000000+00:00</time></trkpt><trkpt lat="39.48394245" lon="-0.39570973"><ele>19.6</ele><time>2022-11-17T18:08:26.0000000+00:00</time></trkpt><trkpt lat="39.48401419" lon="-0.39569439"><ele>19.6</ele><time>2022-11-17T18:08:27.0000000+00:00</time></trkpt><trkpt lat="39.48407924" lon="-0.39568174"><ele>19.4</ele><time>2022-11-17T18:08:28.0000000+00:00</time></trkpt><trkpt lat="39.48415124" lon="-0.39567151"><ele>19.4</ele><time>2022-11-17T18:08:29.0000000+00:00</time></trkpt><trkpt lat="39.48419809" lon="-0.39565969"><ele>19.4</ele><time>2022-11-17T18:08:30.0000000+00:00</time></trkpt><trkpt lat="39.48424872" lon="-0.39568937"><ele>19.4</ele><time>2022-11-17T18:08:31.0000000+00:00</time></trkpt><trkpt lat="39.48427077" lon="-0.39567327"><ele>19.4</ele><time>2022-11-17T18:08:32.0000000+00:00</time></trkpt><trkpt lat="39.48428283" lon="-0.39566992"><ele>19.4</ele><time>2022-11-17T18:08:33.0000000+00:00</time></trkpt><trkpt lat="39.48434302" lon="-0.39563748"><ele>19.4</ele><time>2022-11-17T18:08:34.0000000+00:00</time></trkpt><trkpt lat="39.48436908" lon="-0.39563807"><ele>19.4</ele><time>2022-11-17T18:08:35.0000000+00:00</time></trkpt><trkpt lat="39.48440831" lon="-0.39563522"><ele>19.4</ele><time>2022-11-17T18:08:36.0000000+00:00</time></trkpt><trkpt lat="39.48441787" lon="-0.39564125"><ele>19.4</ele><time>2022-11-17T18:08:37.0000000+00:00</time></trkpt><trkpt lat="39.48444226" lon="-0.39564285"><ele>19.4</ele><time>2022-11-17T18:08:38.0000000+00:00</time></trkpt><trkpt lat="39.48441703" lon="-0.3956405"><ele>19.4</ele><time>2022-11-17T18:08:39.0000000+00:00</time></trkpt><trkpt lat="39.48442097" lon="-0.39562977"><ele>19.6</ele><time>2022-11-17T18:08:40.0000000+00:00</time></trkpt><trkpt lat="39.4844063" lon="-0.39563069"><ele>19.6</ele><time>2022-11-17T18:08:41.0000000+00:00</time></trkpt><trkpt lat="39.4844115" lon="-0.39563673"><ele>19.6</ele><time>2022-11-17T18:08:42.0000000+00:00</time></trkpt><trkpt lat="39.48439691" lon="-0.39567327"><ele>19.6</ele><time>2022-11-17T18:08:43.0000000+00:00</time></trkpt><trkpt lat="39.48440203" lon="-0.39568995"><ele>19.6</ele><time>2022-11-17T18:08:44.0000000+00:00</time></trkpt><trkpt lat="39.48449892" lon="-0.39568752"><ele>19.8</ele><time>2022-11-17T18:08:45.0000000+00:00</time></trkpt><trkpt lat="39.48454427" lon="-0.39569297"><ele>20.0</ele><time>2022-11-17T18:08:46.0000000+00:00</time></trkpt><trkpt lat="39.48459908" lon="-0.39569381"><ele>20.2</ele><time>2022-11-17T18:08:47.0000000+00:00</time></trkpt><trkpt lat="39.48466597" lon="-0.39569188"><ele>20.2</ele><time>2022-11-17T18:08:48.0000000+00:00</time></trkpt><trkpt lat="39.48471593" lon="-0.39569255"><ele>20.2</ele><time>2022-11-17T18:08:49.0000000+00:00</time></trkpt><trkpt lat="39.48475817" lon="-0.39569716"><ele>20.4</ele><time>2022-11-17T18:08:50.0000000+00:00</time></trkpt><trkpt lat="39.48476706" lon="-0.39571937"><ele>20.4</ele><time>2022-11-17T18:08:51.0000000+00:00</time></trkpt><trkpt lat="39.48473554" lon="-0.39573689"><ele>20.4</ele><time>2022-11-17T18:08:52.0000000+00:00</time></trkpt><trkpt lat="39.4846917" lon="-0.39576438"><ele>20.2</ele><time>2022-11-17T18:08:53.0000000+00:00</time></trkpt><trkpt lat="39.48468969" lon="-0.39578442"><ele>20.4</ele><time>2022-11-17T18:08:54.0000000+00:00</time></trkpt><trkpt lat="39.48465826" lon="-0.39582524"><ele>20.4</ele><time>2022-11-17T18:08:56.0000000+00:00</time></trkpt><trkpt lat="39.4846166" lon="-0.39586564"><ele>20.4</ele><time>2022-11-17T18:08:57.0000000+00:00</time></trkpt><trkpt lat="39.48466798" lon="-0.39588986"><ele>20.4</ele><time>2022-11-17T18:08:58.0000000+00:00</time></trkpt><trkpt lat="39.48470838" lon="-0.39591467"><ele>20.4</ele><time>2022-11-17T18:08:59.0000000+00:00</time></trkpt><trkpt lat="39.48472934" lon="-0.39594241"><ele>20.4</ele><time>2022-11-17T18:09:00.0000000+00:00</time></trkpt><trkpt lat="39.48475306" lon="-0.39596253"><ele>20.4</ele><time>2022-11-17T18:09:01.0000000+00:00</time></trkpt><trkpt lat="39.48475532" lon="-0.39598323"><ele>20.4</ele><time>2022-11-17T18:09:02.0000000+00:00</time></trkpt><trkpt lat="39.48478458" lon="-0.39600603"><ele>20.4</ele><time>2022-11-17T18:09:03.0000000+00:00</time></trkpt><trkpt lat="39.48482942" lon="-0.39602456"><ele>20.4</ele><time>2022-11-17T18:09:04.0000000+00:00</time></trkpt><trkpt lat="39.48487099" lon="-0.39605012"><ele>20.4</ele><time>2022-11-17T18:09:05.0000000+00:00</time></trkpt><trkpt lat="39.48488088" lon="-0.39607359"><ele>20.2</ele><time>2022-11-17T18:09:06.0000000+00:00</time></trkpt><trkpt lat="39.48490888" lon="-0.39610377"><ele>20.2</ele><time>2022-11-17T18:09:07.0000000+00:00</time></trkpt><trkpt lat="39.4849419" lon="-0.39612833"><ele>20.2</ele><time>2022-11-17T18:09:08.0000000+00:00</time></trkpt><trkpt lat="39.48496772" lon="-0.39615305"><ele>20.2</ele><time>2022-11-17T18:09:09.0000000+00:00</time></trkpt><trkpt lat="39.4849865" lon="-0.39617526"><ele>20.2</ele><time>2022-11-17T18:09:10.0000000+00:00</time></trkpt><trkpt lat="39.48497945" lon="-0.39619781"><ele>20.2</ele><time>2022-11-17T18:09:11.0000000+00:00</time></trkpt><trkpt lat="39.48498465" lon="-0.39621692"><ele>20.2</ele><time>2022-11-17T18:09:12.0000000+00:00</time></trkpt><trkpt lat="39.48500728" lon="-0.39623813"><ele>20.2</ele><time>2022-11-17T18:09:13.0000000+00:00</time></trkpt><trkpt lat="39.48502782" lon="-0.39625833"><ele>20.4</ele><time>2022-11-17T18:09:14.0000000+00:00</time></trkpt><trkpt lat="39.48503084" lon="-0.39627752"><ele>20.4</ele><time>2022-11-17T18:09:15.0000000+00:00</time></trkpt><trkpt lat="39.485031" lon="-0.39629764"><ele>20.6</ele><time>2022-11-17T18:09:16.0000000+00:00</time></trkpt><trkpt lat="39.48503679" lon="-0.39631155"><ele>20.6</ele><time>2022-11-17T18:09:17.0000000+00:00</time></trkpt><trkpt lat="39.48504274" lon="-0.39631918"><ele>20.6</ele><time>2022-11-17T18:09:18.0000000+00:00</time></trkpt><trkpt lat="39.48505514" lon="-0.39631734"><ele>20.6</ele><time>2022-11-17T18:09:19.0000000+00:00</time></trkpt><trkpt lat="39.48464946" lon="-0.39646779"><ele>17.6</ele><time>2022-11-17T19:34:10.0000000+00:00</time></trkpt><trkpt lat="39.48465625" lon="-0.39651238"><ele>17.6</ele><time>2022-11-17T19:34:11.0000000+00:00</time></trkpt><trkpt lat="39.48469874" lon="-0.39648975"><ele>17.6</ele><time>2022-11-17T19:34:12.0000000+00:00</time></trkpt><trkpt lat="39.4847539" lon="-0.39648489"><ele>17.6</ele><time>2022-11-17T19:34:13.0000000+00:00</time></trkpt><trkpt lat="39.48481089" lon="-0.39646871"><ele>17.6</ele><time>2022-11-17T19:34:14.0000000+00:00</time></trkpt><trkpt lat="39.48487678" lon="-0.39645857"><ele>17.6</ele><time>2022-11-17T19:34:15.0000000+00:00</time></trkpt><trkpt lat="39.48488466" lon="-0.3964465"><ele>17.6</ele><time>2022-11-17T19:34:16.0000000+00:00</time></trkpt><trkpt lat="39.48486764" lon="-0.39644323"><ele>17.6</ele><time>2022-11-17T19:34:17.0000000+00:00</time></trkpt><trkpt lat="39.48485205" lon="-0.39644768"><ele>17.6</ele><time>2022-11-17T19:34:18.0000000+00:00</time></trkpt><trkpt lat="39.48486127" lon="-0.39645656"><ele>17.6</ele><time>2022-11-17T19:34:19.0000000+00:00</time></trkpt><trkpt lat="39.4848829" lon="-0.39645455"><ele>17.6</ele><time>2022-11-17T19:34:20.0000000+00:00</time></trkpt><trkpt lat="39.48490586" lon="-0.39645539"><ele>17.6</ele><time>2022-11-17T19:34:21.0000000+00:00</time></trkpt><trkpt lat="39.48493226" lon="-0.39645681"><ele>17.6</ele><time>2022-11-17T19:34:22.0000000+00:00</time></trkpt><trkpt lat="39.48495347" lon="-0.39646134"><ele>17.8</ele><time>2022-11-17T19:34:23.0000000+00:00</time></trkpt><trkpt lat="39.48496923" lon="-0.3964662"><ele>17.8</ele><time>2022-11-17T19:34:24.0000000+00:00</time></trkpt><trkpt lat="39.4849922" lon="-0.39647349"><ele>17.8</ele><time>2022-11-17T19:34:25.0000000+00:00</time></trkpt><trkpt lat="39.48501273" lon="-0.39647626"><ele>17.8</ele><time>2022-11-17T19:34:26.0000000+00:00</time></trkpt><trkpt lat="39.4850274" lon="-0.39647332"><ele>17.8</ele><time>2022-11-17T19:34:27.0000000+00:00</time></trkpt><trkpt lat="39.4850181" lon="-0.39647475"><ele>17.8</ele><time>2022-11-17T19:34:28.0000000+00:00</time></trkpt><trkpt lat="39.48500267" lon="-0.39647399"><ele>17.8</ele><time>2022-11-17T19:34:29.0000000+00:00</time></trkpt><trkpt lat="39.48502824" lon="-0.39647651"><ele>17.8</ele><time>2022-11-17T19:34:30.0000000+00:00</time></trkpt><trkpt lat="39.48505431" lon="-0.3964776"><ele>17.6</ele><time>2022-11-17T19:34:31.0000000+00:00</time></trkpt><trkpt lat="39.48507979" lon="-0.39647525"><ele>17.6</ele><time>2022-11-17T19:34:32.0000000+00:00</time></trkpt><trkpt lat="39.48511323" lon="-0.39647198"><ele>17.6</ele><time>2022-11-17T19:34:33.0000000+00:00</time></trkpt><trkpt lat="39.48512907" lon="-0.39646461"><ele>17.6</ele><time>2022-11-17T19:34:34.0000000+00:00</time></trkpt><trkpt lat="39.485145" lon="-0.39644818"><ele>17.8</ele><time>2022-11-17T19:34:35.0000000+00:00</time></trkpt><trkpt lat="39.48514743" lon="-0.3964398"><ele>17.8</ele><time>2022-11-17T19:34:36.0000000+00:00</time></trkpt><trkpt lat="39.48516444" lon="-0.3964227"><ele>17.8</ele><time>2022-11-17T19:34:37.0000000+00:00</time></trkpt><trkpt lat="39.48518179" lon="-0.39641566"><ele>17.8</ele><time>2022-11-17T19:34:38.0000000+00:00</time></trkpt><trkpt lat="39.48518959" lon="-0.39640401"><ele>17.8</ele><time>2022-11-17T19:34:39.0000000+00:00</time></trkpt><trkpt lat="39.48519168" lon="-0.3963885"><ele>17.8</ele><time>2022-11-17T19:34:40.0000000+00:00</time></trkpt><trkpt lat="39.48519001" lon="-0.39637727"><ele>17.8</ele><time>2022-11-17T19:34:41.0000000+00:00</time></trkpt><trkpt lat="39.48518624" lon="-0.39636419"><ele>17.8</ele><time>2022-11-17T19:34:42.0000000+00:00</time></trkpt><trkpt lat="39.48518255" lon="-0.39635321"><ele>17.6</ele><time>2022-11-17T19:34:43.0000000+00:00</time></trkpt><trkpt lat="39.48517802" lon="-0.39634223"><ele>17.6</ele><time>2022-11-17T19:34:44.0000000+00:00</time></trkpt><trkpt lat="39.4851719" lon="-0.39633469"><ele>17.6</ele><time>2022-11-17T19:34:45.0000000+00:00</time></trkpt><trkpt lat="39.48516361" lon="-0.3963232"><ele>17.6</ele><time>2022-11-17T19:34:46.0000000+00:00</time></trkpt><trkpt lat="39.48515908" lon="-0.39631357"><ele>17.6</ele><time>2022-11-17T19:34:47.0000000+00:00</time></trkpt><trkpt lat="39.48515288" lon="-0.39631256"><ele>17.4</ele><time>2022-11-17T19:34:48.0000000+00:00</time></trkpt><trkpt lat="39.4851434" lon="-0.3962973"><ele>17.4</ele><time>2022-11-17T19:34:49.0000000+00:00</time></trkpt><trkpt lat="39.48513804" lon="-0.39627878"><ele>17.4</ele><time>2022-11-17T19:34:50.0000000+00:00</time></trkpt><trkpt lat="39.48513058" lon="-0.39626344"><ele>17.2</ele><time>2022-11-17T19:34:51.0000000+00:00</time></trkpt><trkpt lat="39.48512698" lon="-0.3962455"><ele>17.2</ele><time>2022-11-17T19:34:52.0000000+00:00</time></trkpt><trkpt lat="39.48512027" lon="-0.39622597"><ele>17.4</ele><time>2022-11-17T19:34:53.0000000+00:00</time></trkpt><trkpt lat="39.48510745" lon="-0.39620284"><ele>17.4</ele><time>2022-11-17T19:34:54.0000000+00:00</time></trkpt><trkpt lat="39.485103" lon="-0.39618608"><ele>17.4</ele><time>2022-11-17T19:34:55.0000000+00:00</time></trkpt><trkpt lat="39.48509873" lon="-0.39616286"><ele>17.4</ele><time>2022-11-17T19:34:56.0000000+00:00</time></trkpt><trkpt lat="39.48509362" lon="-0.39614442"><ele>17.6</ele><time>2022-11-17T19:34:57.0000000+00:00</time></trkpt><trkpt lat="39.48508565" lon="-0.39613126"><ele>17.6</ele><time>2022-11-17T19:34:58.0000000+00:00</time></trkpt><trkpt lat="39.48507518" lon="-0.39611902"><ele>17.6</ele><time>2022-11-17T19:34:59.0000000+00:00</time></trkpt><trkpt lat="39.48506311" lon="-0.39611391"><ele>17.4</ele><time>2022-11-17T19:35:00.0000000+00:00</time></trkpt><trkpt lat="39.48505146" lon="-0.39610452"><ele>17.2</ele><time>2022-11-17T19:35:01.0000000+00:00</time></trkpt><trkpt lat="39.48504148" lon="-0.39609958"><ele>17.2</ele><time>2022-11-17T19:35:02.0000000+00:00</time></trkpt><trkpt lat="39.48503234" lon="-0.39608164"><ele>17.2</ele><time>2022-11-17T19:35:03.0000000+00:00</time></trkpt><trkpt lat="39.48502237" lon="-0.39606236"><ele>17.2</ele><time>2022-11-17T19:35:04.0000000+00:00</time></trkpt><trkpt lat="39.4850139" lon="-0.39604744"><ele>17.2</ele><time>2022-11-17T19:35:05.0000000+00:00</time></trkpt><trkpt lat="39.48500779" lon="-0.39605205"><ele>17.2</ele><time>2022-11-17T19:35:06.0000000+00:00</time></trkpt><trkpt lat="39.48500007" lon="-0.39604501"><ele>17.2</ele><time>2022-11-17T19:35:07.0000000+00:00</time></trkpt><trkpt lat="39.48499161" lon="-0.39602607"><ele>17.4</ele><time>2022-11-17T19:35:08.0000000+00:00</time></trkpt><trkpt lat="39.48498122" lon="-0.3960057"><ele>17.4</ele><time>2022-11-17T19:35:09.0000000+00:00</time></trkpt><trkpt lat="39.48497216" lon="-0.3960057"><ele>17.4</ele><time>2022-11-17T19:35:10.0000000+00:00</time></trkpt><trkpt lat="39.48496194" lon="-0.39600846"><ele>17.4</ele><time>2022-11-17T19:35:11.0000000+00:00</time></trkpt><trkpt lat="39.48495213" lon="-0.39600897"><ele>17.6</ele><time>2022-11-17T19:35:12.0000000+00:00</time></trkpt><trkpt lat="39.48494392" lon="-0.39599924"><ele>17.6</ele><time>2022-11-17T19:35:13.0000000+00:00</time></trkpt><trkpt lat="39.48493369" lon="-0.39598382"><ele>17.6</ele><time>2022-11-17T19:35:14.0000000+00:00</time></trkpt><trkpt lat="39.48492422" lon="-0.39597376"><ele>17.6</ele><time>2022-11-17T19:35:15.0000000+00:00</time></trkpt><trkpt lat="39.48491517" lon="-0.39596697"><ele>17.6</ele><time>2022-11-17T19:35:16.0000000+00:00</time></trkpt><trkpt lat="39.48490947" lon="-0.39597024"><ele>17.6</ele><time>2022-11-17T19:35:17.0000000+00:00</time></trkpt><trkpt lat="39.4849041" lon="-0.39597427"><ele>17.4</ele><time>2022-11-17T19:35:18.0000000+00:00</time></trkpt><trkpt lat="39.48489555" lon="-0.39597024"><ele>17.4</ele><time>2022-11-17T19:35:19.0000000+00:00</time></trkpt><trkpt lat="39.48488642" lon="-0.39596161"><ele>17.2</ele><time>2022-11-17T19:35:20.0000000+00:00</time></trkpt><trkpt lat="39.48487485" lon="-0.39595641"><ele>17.2</ele><time>2022-11-17T19:35:21.0000000+00:00</time></trkpt><trkpt lat="39.48486353" lon="-0.39595063"><ele>17.2</ele><time>2022-11-17T19:35:22.0000000+00:00</time></trkpt><trkpt lat="39.4848513" lon="-0.3959404"><ele>17.0</ele><time>2022-11-17T19:35:23.0000000+00:00</time></trkpt><trkpt lat="39.4848399" lon="-0.39592657"><ele>17.0</ele><time>2022-11-17T19:35:24.0000000+00:00</time></trkpt><trkpt lat="39.48482967" lon="-0.39591031"><ele>17.0</ele><time>2022-11-17T19:35:25.0000000+00:00</time></trkpt><trkpt lat="39.48481752" lon="-0.39588818"><ele>17.0</ele><time>2022-11-17T19:35:26.0000000+00:00</time></trkpt><trkpt lat="39.48480813" lon="-0.39586865"><ele>17.0</ele><time>2022-11-17T19:35:27.0000000+00:00</time></trkpt><trkpt lat="39.48480167" lon="-0.39584946"><ele>17.0</ele><time>2022-11-17T19:35:28.0000000+00:00</time></trkpt><trkpt lat="39.48479354" lon="-0.39583638"><ele>17.0</ele><time>2022-11-17T19:35:29.0000000+00:00</time></trkpt><trkpt lat="39.48478349" lon="-0.39582138"><ele>17.0</ele><time>2022-11-17T19:35:30.0000000+00:00</time></trkpt><trkpt lat="39.4847751" lon="-0.3957985"><ele>17.0</ele><time>2022-11-17T19:35:31.0000000+00:00</time></trkpt><trkpt lat="39.4847653" lon="-0.395784"><ele>17.0</ele><time>2022-11-17T19:35:32.0000000+00:00</time></trkpt><trkpt lat="39.48475926" lon="-0.39577285"><ele>17.0</ele><time>2022-11-17T19:35:33.0000000+00:00</time></trkpt><trkpt lat="39.48475692" lon="-0.39576304"><ele>17.0</ele><time>2022-11-17T19:35:34.0000000+00:00</time></trkpt><trkpt lat="39.4847508" lon="-0.3957498"><ele>16.8</ele><time>2022-11-17T19:35:35.0000000+00:00</time></trkpt><trkpt lat="39.48474267" lon="-0.39574477"><ele>16.8</ele><time>2022-11-17T19:35:36.0000000+00:00</time></trkpt><trkpt lat="39.48473353" lon="-0.39574804"><ele>16.8</ele><time>2022-11-17T19:35:37.0000000+00:00</time></trkpt><trkpt lat="39.48472381" lon="-0.39575776"><ele>16.8</ele><time>2022-11-17T19:35:38.0000000+00:00</time></trkpt><trkpt lat="39.48471249" lon="-0.39576581"><ele>16.6</ele><time>2022-11-17T19:35:39.0000000+00:00</time></trkpt><trkpt lat="39.48470092" lon="-0.39576774"><ele>16.4</ele><time>2022-11-17T19:35:40.0000000+00:00</time></trkpt><trkpt lat="39.4846886" lon="-0.39576271"><ele>16.4</ele><time>2022-11-17T19:35:41.0000000+00:00</time></trkpt><trkpt lat="39.48467603" lon="-0.39574628"><ele>16.2</ele><time>2022-11-17T19:35:42.0000000+00:00</time></trkpt><trkpt lat="39.48466245" lon="-0.39573999"><ele>16.0</ele><time>2022-11-17T19:35:43.0000000+00:00</time></trkpt><trkpt lat="39.48464812" lon="-0.39573689"><ele>16.0</ele><time>2022-11-17T19:35:44.0000000+00:00</time></trkpt><trkpt lat="39.48463848" lon="-0.39572683"><ele>15.8</ele><time>2022-11-17T19:35:45.0000000+00:00</time></trkpt><trkpt lat="39.48462767" lon="-0.39570085"><ele>15.8</ele><time>2022-11-17T19:35:46.0000000+00:00</time></trkpt><trkpt lat="39.48461987" lon="-0.3956892"><ele>15.8</ele><time>2022-11-17T19:35:47.0000000+00:00</time></trkpt><trkpt lat="39.48460889" lon="-0.39568299"><ele>15.8</ele><time>2022-11-17T19:35:48.0000000+00:00</time></trkpt><trkpt lat="39.48459883" lon="-0.39567294"><ele>15.8</ele><time>2022-11-17T19:35:49.0000000+00:00</time></trkpt><trkpt lat="39.48458542" lon="-0.39566598"><ele>15.8</ele><time>2022-11-17T19:35:50.0000000+00:00</time></trkpt><trkpt lat="39.48457344" lon="-0.3956638"><ele>15.8</ele><time>2022-11-17T19:35:51.0000000+00:00</time></trkpt><trkpt lat="39.48456153" lon="-0.39565877"><ele>15.8</ele><time>2022-11-17T19:35:52.0000000+00:00</time></trkpt><trkpt lat="39.48455282" lon="-0.39565525"><ele>15.8</ele><time>2022-11-17T19:35:53.0000000+00:00</time></trkpt><trkpt lat="39.4845446" lon="-0.39564863"><ele>15.8</ele><time>2022-11-17T19:35:54.0000000+00:00</time></trkpt><trkpt lat="39.48453723" lon="-0.39563312"><ele>15.8</ele><time>2022-11-17T19:35:55.0000000+00:00</time></trkpt><trkpt lat="39.48452968" lon="-0.39564394"><ele>15.8</ele><time>2022-11-17T19:35:56.0000000+00:00</time></trkpt><trkpt lat="39.48452222" lon="-0.39563455"><ele>16.0</ele><time>2022-11-17T19:35:57.0000000+00:00</time></trkpt><trkpt lat="39.48451426" lon="-0.39563019"><ele>16.2</ele><time>2022-11-17T19:35:58.0000000+00:00</time></trkpt><trkpt lat="39.48450512" lon="-0.39563019"><ele>16.2</ele><time>2022-11-17T19:35:59.0000000+00:00</time></trkpt><trkpt lat="39.48449615" lon="-0.39563036"><ele>16.4</ele><time>2022-11-17T19:36:00.0000000+00:00</time></trkpt><trkpt lat="39.48448576" lon="-0.39562667"><ele>16.4</ele><time>2022-11-17T19:36:01.0000000+00:00</time></trkpt><trkpt lat="39.48447662" lon="-0.39562231"><ele>16.4</ele><time>2022-11-17T19:36:02.0000000+00:00</time></trkpt><trkpt lat="39.48446925" lon="-0.39561996"><ele>16.4</ele><time>2022-11-17T19:36:03.0000000+00:00</time></trkpt><trkpt lat="39.48446506" lon="-0.39561854"><ele>16.6</ele><time>2022-11-17T19:36:04.0000000+00:00</time></trkpt><trkpt lat="39.4844612" lon="-0.39561309"><ele>16.8</ele><time>2022-11-17T19:36:05.0000000+00:00</time></trkpt><trkpt lat="39.48445693" lon="-0.39560731"><ele>17.0</ele><time>2022-11-17T19:36:06.0000000+00:00</time></trkpt><trkpt lat="39.48445056" lon="-0.3956001"><ele>17.0</ele><time>2022-11-17T19:36:07.0000000+00:00</time></trkpt><trkpt lat="39.48444251" lon="-0.39559792"><ele>17.0</ele><time>2022-11-17T19:36:08.0000000+00:00</time></trkpt><trkpt lat="39.48443312" lon="-0.39560119"><ele>16.8</ele><time>2022-11-17T19:36:09.0000000+00:00</time></trkpt><trkpt lat="39.4844234" lon="-0.39560127"><ele>16.8</ele><time>2022-11-17T19:36:10.0000000+00:00</time></trkpt><trkpt lat="39.4844125" lon="-0.39559708"><ele>16.6</ele><time>2022-11-17T19:36:11.0000000+00:00</time></trkpt><trkpt lat="39.48440454" lon="-0.39559566"><ele>16.6</ele><time>2022-11-17T19:36:12.0000000+00:00</time></trkpt><trkpt lat="39.48439851" lon="-0.39559138"><ele>16.6</ele><time>2022-11-17T19:36:13.0000000+00:00</time></trkpt><trkpt lat="39.48439624" lon="-0.3955892"><ele>16.6</ele><time>2022-11-17T19:36:14.0000000+00:00</time></trkpt><trkpt lat="39.48439549" lon="-0.39558778"><ele>16.6</ele><time>2022-11-17T19:36:15.0000000+00:00</time></trkpt><trkpt lat="39.48439515" lon="-0.39558711"><ele>16.6</ele><time>2022-11-17T19:36:16.0000000+00:00</time></trkpt><trkpt lat="39.48439524" lon="-0.39558652"><ele>16.4</ele><time>2022-11-17T19:36:17.0000000+00:00</time></trkpt><trkpt lat="39.4843944" lon="-0.39558526"><ele>16.4</ele><time>2022-11-17T19:36:18.0000000+00:00</time></trkpt><trkpt lat="39.4843923" lon="-0.39558317"><ele>16.4</ele><time>2022-11-17T19:36:19.0000000+00:00</time></trkpt><trkpt lat="39.48439029" lon="-0.39557939"><ele>16.4</ele><time>2022-11-17T19:36:20.0000000+00:00</time></trkpt><trkpt lat="39.48439012" lon="-0.39557772"><ele>16.4</ele><time>2022-11-17T19:36:21.0000000+00:00</time></trkpt><trkpt lat="39.48439054" lon="-0.39557797"><ele>16.2</ele><time>2022-11-17T19:36:22.0000000+00:00</time></trkpt><trkpt lat="39.48439021" lon="-0.39557696"><ele>16.2</ele><time>2022-11-17T19:36:23.0000000+00:00</time></trkpt><trkpt lat="39.48439037" lon="-0.39557654"><ele>16.2</ele><time>2022-11-17T19:36:24.0000000+00:00</time></trkpt><trkpt lat="39.48439113" lon="-0.39557722"><ele>16.2</ele><time>2022-11-17T19:36:25.0000000+00:00</time></trkpt><trkpt lat="39.48438929" lon="-0.39557822"><ele>16.2</ele><time>2022-11-17T19:36:26.0000000+00:00</time></trkpt><trkpt lat="39.48438333" lon="-0.39557403"><ele>16.2</ele><time>2022-11-17T19:36:27.0000000+00:00</time></trkpt><trkpt lat="39.48437554" lon="-0.39556732"><ele>16.2</ele><time>2022-11-17T19:36:28.0000000+00:00</time></trkpt><trkpt lat="39.48437403" lon="-0.39556833"><ele>16.2</ele><time>2022-11-17T19:36:29.0000000+00:00</time></trkpt><trkpt lat="39.48437554" lon="-0.39557017"><ele>16.2</ele><time>2022-11-17T19:36:30.0000000+00:00</time></trkpt><trkpt lat="39.48438065" lon="-0.39557889"><ele>16.2</ele><time>2022-11-17T19:36:31.0000000+00:00</time></trkpt><trkpt lat="39.48438308" lon="-0.39558015"><ele>16.2</ele><time>2022-11-17T19:36:32.0000000+00:00</time></trkpt><trkpt lat="39.48438535" lon="-0.39558074"><ele>16.2</ele><time>2022-11-17T19:36:33.0000000+00:00</time></trkpt><trkpt lat="39.48438736" lon="-0.39558166"><ele>16.2</ele><time>2022-11-17T19:36:34.0000000+00:00</time></trkpt><trkpt lat="39.48438677" lon="-0.39558099"><ele>16.2</ele><time>2022-11-17T19:36:35.0000000+00:00</time></trkpt><trkpt lat="39.48438652" lon="-0.39558015"><ele>16.2</ele><time>2022-11-17T19:36:36.0000000+00:00</time></trkpt><trkpt lat="39.48438652" lon="-0.39558015"><ele>16.2</ele><time>2022-11-17T19:36:37.0000000+00:00</time></trkpt><trkpt lat="39.48438652" lon="-0.39558015"><ele>16.2</ele><time>2022-11-17T19:36:38.0000000+00:00</time></trkpt><trkpt lat="39.48438652" lon="-0.39558015"><ele>16.2</ele><time>2022-11-17T19:36:39.0000000+00:00</time></trkpt><trkpt lat="39.48438652" lon="-0.39558015"><ele>16.2</ele><time>2022-11-17T19:36:40.0000000+00:00</time></trkpt><trkpt lat="39.484383" lon="-0.39557906"><ele>16.2</ele><time>2022-11-17T19:36:41.0000000+00:00</time></trkpt><trkpt lat="39.48436682" lon="-0.39556816"><ele>16.2</ele><time>2022-11-17T19:36:42.0000000+00:00</time></trkpt><trkpt lat="39.48435576" lon="-0.3955623"><ele>16.2</ele><time>2022-11-17T19:36:43.0000000+00:00</time></trkpt><trkpt lat="39.48433941" lon="-0.39555157"><ele>16.2</ele><time>2022-11-17T19:36:44.0000000+00:00</time></trkpt><trkpt lat="39.48432592" lon="-0.39553799"><ele>16.2</ele><time>2022-11-17T19:36:45.0000000+00:00</time></trkpt><trkpt lat="39.48431091" lon="-0.39552441"><ele>16.2</ele><time>2022-11-17T19:36:46.0000000+00:00</time></trkpt><trkpt lat="39.48429524" lon="-0.39551552"><ele>16.2</ele><time>2022-11-17T19:36:47.0000000+00:00</time></trkpt><trkpt lat="39.48427789" lon="-0.39549717"><ele>16.2</ele><time>2022-11-17T19:36:48.0000000+00:00</time></trkpt><trkpt lat="39.48426087" lon="-0.39548585"><ele>16.2</ele><time>2022-11-17T19:36:49.0000000+00:00</time></trkpt><trkpt lat="39.48424285" lon="-0.39547387"><ele>16.2</ele><time>2022-11-17T19:36:50.0000000+00:00</time></trkpt><trkpt lat="39.48422944" lon="-0.39546833"><ele>16.2</ele><time>2022-11-17T19:36:51.0000000+00:00</time></trkpt><trkpt lat="39.48421813" lon="-0.39546331"><ele>16.2</ele><time>2022-11-17T19:36:52.0000000+00:00</time></trkpt><trkpt lat="39.48420346" lon="-0.39545769"><ele>16.2</ele><time>2022-11-17T19:36:53.0000000+00:00</time></trkpt><trkpt lat="39.48419013" lon="-0.39545232"><ele>16.2</ele><time>2022-11-17T19:36:54.0000000+00:00</time></trkpt><trkpt lat="39.48418091" lon="-0.39544738"><ele>16.2</ele><time>2022-11-17T19:36:55.0000000+00:00</time></trkpt><trkpt lat="39.48417144" lon="-0.39544595"><ele>16.2</ele><time>2022-11-17T19:36:56.0000000+00:00</time></trkpt><trkpt lat="39.48415711" lon="-0.39543992"><ele>16.2</ele><time>2022-11-17T19:36:57.0000000+00:00</time></trkpt><trkpt lat="39.48414261" lon="-0.39543305"><ele>16.2</ele><time>2022-11-17T19:36:58.0000000+00:00</time></trkpt><trkpt lat="39.48412836" lon="-0.39543179"><ele>16.2</ele><time>2022-11-17T19:36:59.0000000+00:00</time></trkpt><trkpt lat="39.48411092" lon="-0.3954271"><ele>16.4</ele><time>2022-11-17T19:37:00.0000000+00:00</time></trkpt><trkpt lat="39.48409617" lon="-0.39541419"><ele>16.4</ele><time>2022-11-17T19:37:01.0000000+00:00</time></trkpt><trkpt lat="39.48408167" lon="-0.39539935"><ele>16.4</ele><time>2022-11-17T19:37:02.0000000+00:00</time></trkpt><trkpt lat="39.48406767" lon="-0.39539114"><ele>16.4</ele><time>2022-11-17T19:37:03.0000000+00:00</time></trkpt><trkpt lat="39.4840546" lon="-0.39537907"><ele>16.4</ele><time>2022-11-17T19:37:04.0000000+00:00</time></trkpt><trkpt lat="39.48404244" lon="-0.3953525"><ele>16.6</ele><time>2022-11-17T19:37:05.0000000+00:00</time></trkpt><trkpt lat="39.48403481" lon="-0.39533238"><ele>16.6</ele><time>2022-11-17T19:37:06.0000000+00:00</time></trkpt><trkpt lat="39.48402585" lon="-0.39532132"><ele>16.6</ele><time>2022-11-17T19:37:07.0000000+00:00</time></trkpt><trkpt lat="39.48401" lon="-0.39531243"><ele>16.8</ele><time>2022-11-17T19:37:08.0000000+00:00</time></trkpt><trkpt lat="39.48399894" lon="-0.39530983"><ele>16.8</ele><time>2022-11-17T19:37:09.0000000+00:00</time></trkpt><trkpt lat="39.48398813" lon="-0.39530153"><ele>16.8</ele><time>2022-11-17T19:37:10.0000000+00:00</time></trkpt><trkpt lat="39.4839784" lon="-0.39529131"><ele>16.8</ele><time>2022-11-17T19:37:11.0000000+00:00</time></trkpt><trkpt lat="39.48396818" lon="-0.39527999"><ele>16.8</ele><time>2022-11-17T19:37:12.0000000+00:00</time></trkpt><trkpt lat="39.48395653" lon="-0.39526532"><ele>16.8</ele><time>2022-11-17T19:37:13.0000000+00:00</time></trkpt><trkpt lat="39.48394328" lon="-0.39525133"><ele>16.8</ele><time>2022-11-17T19:37:14.0000000+00:00</time></trkpt><trkpt lat="39.48393289" lon="-0.39524437"><ele>16.8</ele><time>2022-11-17T19:37:15.0000000+00:00</time></trkpt><trkpt lat="39.48392266" lon="-0.39523255"><ele>16.8</ele><time>2022-11-17T19:37:16.0000000+00:00</time></trkpt><trkpt lat="39.48391252" lon="-0.39522098"><ele>16.8</ele><time>2022-11-17T19:37:17.0000000+00:00</time></trkpt><trkpt lat="39.48390422" lon="-0.39521604"><ele>16.6</ele><time>2022-11-17T19:37:18.0000000+00:00</time></trkpt><trkpt lat="39.4838919" lon="-0.39521772"><ele>16.6</ele><time>2022-11-17T19:37:19.0000000+00:00</time></trkpt><trkpt lat="39.48387246" lon="-0.39521285"><ele>16.6</ele><time>2022-11-17T19:37:20.0000000+00:00</time></trkpt><trkpt lat="39.48385687" lon="-0.39520036"><ele>16.6</ele><time>2022-11-17T19:37:21.0000000+00:00</time></trkpt><trkpt lat="39.48384102" lon="-0.39518519"><ele>16.6</ele><time>2022-11-17T19:37:22.0000000+00:00</time></trkpt><trkpt lat="39.48382577" lon="-0.39517405"><ele>16.6</ele><time>2022-11-17T19:37:23.0000000+00:00</time></trkpt><trkpt lat="39.48380775" lon="-0.39516633"><ele>16.6</ele><time>2022-11-17T19:37:24.0000000+00:00</time></trkpt><trkpt lat="39.48379157" lon="-0.39516139"><ele>16.6</ele><time>2022-11-17T19:37:25.0000000+00:00</time></trkpt><trkpt lat="39.48377498" lon="-0.39515879"><ele>16.4</ele><time>2022-11-17T19:37:26.0000000+00:00</time></trkpt><trkpt lat="39.48376383" lon="-0.39516432"><ele>16.4</ele><time>2022-11-17T19:37:27.0000000+00:00</time></trkpt><trkpt lat="39.48375193" lon="-0.39517036"><ele>16.2</ele><time>2022-11-17T19:37:28.0000000+00:00</time></trkpt><trkpt lat="39.48373365" lon="-0.39517279"><ele>16.2</ele><time>2022-11-17T19:37:29.0000000+00:00</time></trkpt><trkpt lat="39.48372971" lon="-0.39519718"><ele>16.2</ele><time>2022-11-17T19:37:30.0000000+00:00</time></trkpt><trkpt lat="39.48373214" lon="-0.3952344"><ele>16.2</ele><time>2022-11-17T19:37:31.0000000+00:00</time></trkpt><trkpt lat="39.48373717" lon="-0.39526901"><ele>16.2</ele><time>2022-11-17T19:37:32.0000000+00:00</time></trkpt><trkpt lat="39.4837417" lon="-0.39529449"><ele>16.0</ele><time>2022-11-17T19:37:33.0000000+00:00</time></trkpt><trkpt lat="39.4837386" lon="-0.3952981"><ele>16.0</ele><time>2022-11-17T19:37:34.0000000+00:00</time></trkpt><trkpt lat="39.48374338" lon="-0.39530212"><ele>16.2</ele><time>2022-11-17T19:37:35.0000000+00:00</time></trkpt><trkpt lat="39.48374346" lon="-0.39529827"><ele>16.2</ele><time>2022-11-17T19:37:36.0000000+00:00</time></trkpt><trkpt lat="39.48374949" lon="-0.3952986"><ele>16.2</ele><time>2022-11-17T19:37:37.0000000+00:00</time></trkpt><trkpt lat="39.48375989" lon="-0.39529525"><ele>16.2</ele><time>2022-11-17T19:37:38.0000000+00:00</time></trkpt><trkpt lat="39.48377221" lon="-0.39529265"><ele>16.2</ele><time>2022-11-17T19:37:39.0000000+00:00</time></trkpt><trkpt lat="39.48377766" lon="-0.39529324"><ele>16.2</ele><time>2022-11-17T19:37:40.0000000+00:00</time></trkpt><trkpt lat="39.48377514" lon="-0.39529525"><ele>16.2</ele><time>2022-11-17T19:37:41.0000000+00:00</time></trkpt><trkpt lat="39.48377447" lon="-0.39529868"><ele>16.2</ele><time>2022-11-17T19:37:42.0000000+00:00</time></trkpt><trkpt lat="39.48377548" lon="-0.39529793"><ele>16.2</ele><time>2022-11-17T19:37:43.0000000+00:00</time></trkpt><trkpt lat="39.48377975" lon="-0.39529977"><ele>16.2</ele><time>2022-11-17T19:37:44.0000000+00:00</time></trkpt><trkpt lat="39.48378805" lon="-0.39530497"><ele>16.2</ele><time>2022-11-17T19:37:45.0000000+00:00</time></trkpt><trkpt lat="39.48379635" lon="-0.39530665"><ele>16.2</ele><time>2022-11-17T19:37:46.0000000+00:00</time></trkpt><trkpt lat="39.48380347" lon="-0.39529843"><ele>16.2</ele><time>2022-11-17T19:37:47.0000000+00:00</time></trkpt><trkpt lat="39.48381211" lon="-0.39528175"><ele>16.4</ele><time>2022-11-17T19:37:48.0000000+00:00</time></trkpt><trkpt lat="39.48382066" lon="-0.39526608"><ele>16.4</ele><time>2022-11-17T19:37:49.0000000+00:00</time></trkpt><trkpt lat="39.48381806" lon="-0.39524437"><ele>16.4</ele><time>2022-11-17T19:37:50.0000000+00:00</time></trkpt><trkpt lat="39.48380867" lon="-0.39522828"><ele>16.4</ele><time>2022-11-17T19:37:51.0000000+00:00</time></trkpt><trkpt lat="39.48379668" lon="-0.39522283"><ele>16.4</ele><time>2022-11-17T19:37:52.0000000+00:00</time></trkpt><trkpt lat="39.4837821" lon="-0.39521822"><ele>16.4</ele><time>2022-11-17T19:37:53.0000000+00:00</time></trkpt><trkpt lat="39.48376802" lon="-0.39521453"><ele>16.4</ele><time>2022-11-17T19:37:54.0000000+00:00</time></trkpt><trkpt lat="39.48375327" lon="-0.39520891"><ele>16.4</ele><time>2022-11-17T19:37:55.0000000+00:00</time></trkpt><trkpt lat="39.48374069" lon="-0.39520053"><ele>16.4</ele><time>2022-11-17T19:37:56.0000000+00:00</time></trkpt><trkpt lat="39.48372368" lon="-0.39519525"><ele>16.4</ele><time>2022-11-17T19:37:57.0000000+00:00</time></trkpt><trkpt lat="39.48370859" lon="-0.39518829"><ele>16.4</ele><time>2022-11-17T19:37:58.0000000+00:00</time></trkpt><trkpt lat="39.48369208" lon="-0.3951784"><ele>16.4</ele><time>2022-11-17T19:37:59.0000000+00:00</time></trkpt><trkpt lat="39.48367674" lon="-0.39517254"><ele>16.4</ele><time>2022-11-17T19:38:00.0000000+00:00</time></trkpt><trkpt lat="39.48366199" lon="-0.39516684"><ele>16.4</ele><time>2022-11-17T19:38:01.0000000+00:00</time></trkpt><trkpt lat="39.4836474" lon="-0.39515686"><ele>16.4</ele><time>2022-11-17T19:38:02.0000000+00:00</time></trkpt><trkpt lat="39.48363617" lon="-0.39514831"><ele>16.2</ele><time>2022-11-17T19:38:03.0000000+00:00</time></trkpt><trkpt lat="39.48362276" lon="-0.39513784"><ele>16.2</ele><time>2022-11-17T19:38:04.0000000+00:00</time></trkpt><trkpt lat="39.48360952" lon="-0.39512644"><ele>16.2</ele><time>2022-11-17T19:38:05.0000000+00:00</time></trkpt><trkpt lat="39.48359669" lon="-0.39511269"><ele>16.2</ele><time>2022-11-17T19:38:06.0000000+00:00</time></trkpt><trkpt lat="39.48358613" lon="-0.3951007"><ele>16.2</ele><time>2022-11-17T19:38:07.0000000+00:00</time></trkpt><trkpt lat="39.48357599" lon="-0.39508939"><ele>16.0</ele><time>2022-11-17T19:38:08.0000000+00:00</time></trkpt><trkpt lat="39.48356761" lon="-0.39507858"><ele>16.0</ele><time>2022-11-17T19:38:09.0000000+00:00</time></trkpt><trkpt lat="39.48355855" lon="-0.39506827"><ele>16.0</ele><time>2022-11-17T19:38:10.0000000+00:00</time></trkpt><trkpt lat="39.4835469" lon="-0.39506097"><ele>16.0</ele><time>2022-11-17T19:38:11.0000000+00:00</time></trkpt><trkpt lat="39.48353576" lon="-0.39505527"><ele>16.0</ele><time>2022-11-17T19:38:12.0000000+00:00</time></trkpt><trkpt lat="39.48352511" lon="-0.39504748"><ele>15.8</ele><time>2022-11-17T19:38:13.0000000+00:00</time></trkpt><trkpt lat="39.48351363" lon="-0.39503675"><ele>15.8</ele><time>2022-11-17T19:38:14.0000000+00:00</time></trkpt><trkpt lat="39.48350122" lon="-0.39502451"><ele>16.0</ele><time>2022-11-17T19:38:15.0000000+00:00</time></trkpt><trkpt lat="39.48348873" lon="-0.39501362"><ele>16.0</ele><time>2022-11-17T19:38:16.0000000+00:00</time></trkpt><trkpt lat="39.48347465" lon="-0.3950054"><ele>16.0</ele><time>2022-11-17T19:38:17.0000000+00:00</time></trkpt><trkpt lat="39.48346216" lon="-0.39499819"><ele>16.0</ele><time>2022-11-17T19:38:18.0000000+00:00</time></trkpt><trkpt lat="39.48344783" lon="-0.39499006"><ele>16.0</ele><time>2022-11-17T19:38:19.0000000+00:00</time></trkpt><trkpt lat="39.48343408" lon="-0.39498269"><ele>16.0</ele><time>2022-11-17T19:38:20.0000000+00:00</time></trkpt><trkpt lat="39.48342243" lon="-0.39497313"><ele>16.0</ele><time>2022-11-17T19:38:21.0000000+00:00</time></trkpt><trkpt lat="39.4834107" lon="-0.39496567"><ele>16.0</ele><time>2022-11-17T19:38:22.0000000+00:00</time></trkpt><trkpt lat="39.48339846" lon="-0.39495771"><ele>16.0</ele><time>2022-11-17T19:38:23.0000000+00:00</time></trkpt><trkpt lat="39.48338429" lon="-0.39495226"><ele>16.0</ele><time>2022-11-17T19:38:24.0000000+00:00</time></trkpt><trkpt lat="39.48337172" lon="-0.39494899"><ele>16.0</ele><time>2022-11-17T19:38:25.0000000+00:00</time></trkpt><trkpt lat="39.48336694" lon="-0.39494723"><ele>16.0</ele><time>2022-11-17T19:38:26.0000000+00:00</time></trkpt><trkpt lat="39.48336426" lon="-0.39494732"><ele>16.0</ele><time>2022-11-17T19:38:27.0000000+00:00</time></trkpt><trkpt lat="39.48336326" lon="-0.39494656"><ele>16.0</ele><time>2022-11-17T19:38:28.0000000+00:00</time></trkpt><trkpt lat="39.48336158" lon="-0.39494807"><ele>15.8</ele><time>2022-11-17T19:38:29.0000000+00:00</time></trkpt><trkpt lat="39.48336083" lon="-0.39494866"><ele>15.8</ele><time>2022-11-17T19:38:30.0000000+00:00</time></trkpt><trkpt lat="39.48336083" lon="-0.39494899"><ele>15.8</ele><time>2022-11-17T19:38:31.0000000+00:00</time></trkpt><trkpt lat="39.48336099" lon="-0.39494857"><ele>15.6</ele><time>2022-11-17T19:38:32.0000000+00:00</time></trkpt><trkpt lat="39.48336116" lon="-0.39494849"><ele>15.6</ele><time>2022-11-17T19:38:33.0000000+00:00</time></trkpt><trkpt lat="39.48336309" lon="-0.39494715"><ele>15.6</ele><time>2022-11-17T19:38:34.0000000+00:00</time></trkpt><trkpt lat="39.48336485" lon="-0.39494681"><ele>15.6</ele><time>2022-11-17T19:38:35.0000000+00:00</time></trkpt><trkpt lat="39.48336535" lon="-0.39494648"><ele>15.6</ele><time>2022-11-17T19:38:36.0000000+00:00</time></trkpt><trkpt lat="39.48336544" lon="-0.39494488"><ele>15.6</ele><time>2022-11-17T19:38:37.0000000+00:00</time></trkpt><trkpt lat="39.48336384" lon="-0.39494354"><ele>15.6</ele><time>2022-11-17T19:38:38.0000000+00:00</time></trkpt><trkpt lat="39.4833589" lon="-0.39494363"><ele>15.6</ele><time>2022-11-17T19:38:39.0000000+00:00</time></trkpt><trkpt lat="39.48335395" lon="-0.39493692"><ele>15.6</ele><time>2022-11-17T19:38:40.0000000+00:00</time></trkpt><trkpt lat="39.48334809" lon="-0.39493105"><ele>15.6</ele><time>2022-11-17T19:38:41.0000000+00:00</time></trkpt><trkpt lat="39.48334121" lon="-0.39492183"><ele>15.6</ele><time>2022-11-17T19:38:42.0000000+00:00</time></trkpt><trkpt lat="39.48333476" lon="-0.39491337"><ele>15.6</ele><time>2022-11-17T19:38:43.0000000+00:00</time></trkpt><trkpt lat="39.48333073" lon="-0.39490365"><ele>15.6</ele><time>2022-11-17T19:38:44.0000000+00:00</time></trkpt><trkpt lat="39.48332587" lon="-0.39489644"><ele>15.8</ele><time>2022-11-17T19:38:45.0000000+00:00</time></trkpt><trkpt lat="39.48331473" lon="-0.39488755"><ele>15.6</ele><time>2022-11-17T19:38:46.0000000+00:00</time></trkpt><trkpt lat="39.48330064" lon="-0.39487967"><ele>15.6</ele><time>2022-11-17T19:38:47.0000000+00:00</time></trkpt><trkpt lat="39.48328639" lon="-0.39487515"><ele>15.6</ele><time>2022-11-17T19:38:48.0000000+00:00</time></trkpt><trkpt lat="39.48327424" lon="-0.39487121"><ele>15.6</ele><time>2022-11-17T19:38:49.0000000+00:00</time></trkpt><trkpt lat="39.48325999" lon="-0.39486442"><ele>15.6</ele><time>2022-11-17T19:38:50.0000000+00:00</time></trkpt><trkpt lat="39.48324608" lon="-0.39485578"><ele>15.6</ele><time>2022-11-17T19:38:51.0000000+00:00</time></trkpt><trkpt lat="39.48323208" lon="-0.39484598"><ele>15.6</ele><time>2022-11-17T19:38:52.0000000+00:00</time></trkpt><trkpt lat="39.48321775" lon="-0.39483978"><ele>15.6</ele><time>2022-11-17T19:38:53.0000000+00:00</time></trkpt><trkpt lat="39.48320677" lon="-0.39483139"><ele>15.6</ele><time>2022-11-17T19:38:54.0000000+00:00</time></trkpt><trkpt lat="39.48319486" lon="-0.39482058"><ele>15.6</ele><time>2022-11-17T19:38:55.0000000+00:00</time></trkpt><trkpt lat="39.48318388" lon="-0.39480709"><ele>15.4</ele><time>2022-11-17T19:38:56.0000000+00:00</time></trkpt><trkpt lat="39.48317165" lon="-0.39479183"><ele>15.4</ele><time>2022-11-17T19:38:57.0000000+00:00</time></trkpt><trkpt lat="39.48315824" lon="-0.39477549"><ele>15.4</ele><time>2022-11-17T19:38:58.0000000+00:00</time></trkpt><trkpt lat="39.4831444" lon="-0.39475503"><ele>15.4</ele><time>2022-11-17T19:38:59.0000000+00:00</time></trkpt><trkpt lat="39.48312974" lon="-0.39473777"><ele>15.6</ele><time>2022-11-17T19:39:00.0000000+00:00</time></trkpt><trkpt lat="39.4831175" lon="-0.39471279"><ele>15.4</ele><time>2022-11-17T19:39:01.0000000+00:00</time></trkpt><trkpt lat="39.48311096" lon="-0.39469041"><ele>15.4</ele><time>2022-11-17T19:39:02.0000000+00:00</time></trkpt><trkpt lat="39.48310199" lon="-0.39467524"><ele>15.4</ele><time>2022-11-17T19:39:03.0000000+00:00</time></trkpt><trkpt lat="39.48309344" lon="-0.39465831"><ele>15.4</ele><time>2022-11-17T19:39:04.0000000+00:00</time></trkpt><trkpt lat="39.48308221" lon="-0.39464263"><ele>15.4</ele><time>2022-11-17T19:39:05.0000000+00:00</time></trkpt><trkpt lat="39.48307064" lon="-0.39462553"><ele>15.4</ele><time>2022-11-17T19:39:06.0000000+00:00</time></trkpt><trkpt lat="39.48306226" lon="-0.39460609"><ele>15.4</ele><time>2022-11-17T19:39:07.0000000+00:00</time></trkpt><trkpt lat="39.48306067" lon="-0.39459854"><ele>15.4</ele><time>2022-11-17T19:39:08.0000000+00:00</time></trkpt><trkpt lat="39.48306176" lon="-0.39457818"><ele>15.4</ele><time>2022-11-17T19:39:09.0000000+00:00</time></trkpt><trkpt lat="39.48305254" lon="-0.39457348"><ele>15.4</ele><time>2022-11-17T19:39:10.0000000+00:00</time></trkpt><trkpt lat="39.4830398" lon="-0.39456409"><ele>15.4</ele><time>2022-11-17T19:39:11.0000000+00:00</time></trkpt><trkpt lat="39.48303041" lon="-0.39455412"><ele>15.4</ele><time>2022-11-17T19:39:12.0000000+00:00</time></trkpt><trkpt lat="39.48302102" lon="-0.3945454"><ele>15.4</ele><time>2022-11-17T19:39:13.0000000+00:00</time></trkpt><trkpt lat="39.48300937" lon="-0.39454415"><ele>15.4</ele><time>2022-11-17T19:39:14.0000000+00:00</time></trkpt><trkpt lat="39.48299252" lon="-0.39453275"><ele>15.4</ele><time>2022-11-17T19:39:15.0000000+00:00</time></trkpt><trkpt lat="39.48297777" lon="-0.39451489"><ele>15.4</ele><time>2022-11-17T19:39:16.0000000+00:00</time></trkpt><trkpt lat="39.48296713" lon="-0.39450903"><ele>15.4</ele><time>2022-11-17T19:39:17.0000000+00:00</time></trkpt><trkpt lat="39.48295397" lon="-0.39450173"><ele>15.4</ele><time>2022-11-17T19:39:18.0000000+00:00</time></trkpt><trkpt lat="39.48294341" lon="-0.39449394"><ele>15.4</ele><time>2022-11-17T19:39:19.0000000+00:00</time></trkpt><trkpt lat="39.48292966" lon="-0.39448732"><ele>15.4</ele><time>2022-11-17T19:39:20.0000000+00:00</time></trkpt><trkpt lat="39.48291424" lon="-0.39447567"><ele>15.4</ele><time>2022-11-17T19:39:21.0000000+00:00</time></trkpt><trkpt lat="39.48290158" lon="-0.39446544"><ele>15.4</ele><time>2022-11-17T19:39:22.0000000+00:00</time></trkpt><trkpt lat="39.48288842" lon="-0.39445555"><ele>15.4</ele><time>2022-11-17T19:39:23.0000000+00:00</time></trkpt><trkpt lat="39.48287853" lon="-0.39443124"><ele>15.4</ele><time>2022-11-17T19:39:24.0000000+00:00</time></trkpt><trkpt lat="39.48287048" lon="-0.39441858"><ele>15.6</ele><time>2022-11-17T19:39:25.0000000+00:00</time></trkpt><trkpt lat="39.48285732" lon="-0.39440517"><ele>15.6</ele><time>2022-11-17T19:39:26.0000000+00:00</time></trkpt><trkpt lat="39.48284618" lon="-0.39439931"><ele>15.6</ele><time>2022-11-17T19:39:27.0000000+00:00</time></trkpt><trkpt lat="39.48283687" lon="-0.3943895"><ele>15.6</ele><time>2022-11-17T19:39:28.0000000+00:00</time></trkpt><trkpt lat="39.48282212" lon="-0.39438556"><ele>15.6</ele><time>2022-11-17T19:39:29.0000000+00:00</time></trkpt><trkpt lat="39.48280913" lon="-0.39437944"><ele>15.6</ele><time>2022-11-17T19:39:30.0000000+00:00</time></trkpt><trkpt lat="39.48279672" lon="-0.39437106"><ele>15.4</ele><time>2022-11-17T19:39:31.0000000+00:00</time></trkpt><trkpt lat="39.48278692" lon="-0.3943667"><ele>15.4</ele><time>2022-11-17T19:39:32.0000000+00:00</time></trkpt><trkpt lat="39.48278164" lon="-0.39436611"><ele>15.4</ele><time>2022-11-17T19:39:33.0000000+00:00</time></trkpt><trkpt lat="39.48277476" lon="-0.39436896"><ele>15.2</ele><time>2022-11-17T19:39:34.0000000+00:00</time></trkpt><trkpt lat="39.48276781" lon="-0.39437399"><ele>15.2</ele><time>2022-11-17T19:39:35.0000000+00:00</time></trkpt><trkpt lat="39.48275305" lon="-0.39436922"><ele>15.0</ele><time>2022-11-17T19:39:36.0000000+00:00</time></trkpt><trkpt lat="39.48273637" lon="-0.39436016"><ele>15.0</ele><time>2022-11-17T19:39:37.0000000+00:00</time></trkpt><trkpt lat="39.48272288" lon="-0.3943486"><ele>15.0</ele><time>2022-11-17T19:39:38.0000000+00:00</time></trkpt><trkpt lat="39.48271332" lon="-0.39434038"><ele>15.0</ele><time>2022-11-17T19:39:39.0000000+00:00</time></trkpt><trkpt lat="39.48270519" lon="-0.3943341"><ele>15.0</ele><time>2022-11-17T19:39:40.0000000+00:00</time></trkpt><trkpt lat="39.48270771" lon="-0.39433007"><ele>15.2</ele><time>2022-11-17T19:39:41.0000000+00:00</time></trkpt><trkpt lat="39.48270972" lon="-0.39434323"><ele>15.2</ele><time>2022-11-17T19:39:42.0000000+00:00</time></trkpt><trkpt lat="39.48271575" lon="-0.39435681"><ele>15.2</ele><time>2022-11-17T19:39:43.0000000+00:00</time></trkpt><trkpt lat="39.48270159" lon="-0.39433133"><ele>15.2</ele><time>2022-11-17T19:39:44.0000000+00:00</time></trkpt><trkpt lat="39.48269312" lon="-0.39430694"><ele>15.2</ele><time>2022-11-17T19:39:45.0000000+00:00</time></trkpt><trkpt lat="39.48267636" lon="-0.39427844"><ele>15.2</ele><time>2022-11-17T19:39:46.0000000+00:00</time></trkpt><trkpt lat="39.48265574" lon="-0.39425933"><ele>15.2</ele><time>2022-11-17T19:39:47.0000000+00:00</time></trkpt><trkpt lat="39.48263931" lon="-0.39424969"><ele>15.2</ele><time>2022-11-17T19:39:48.0000000+00:00</time></trkpt><trkpt lat="39.48262037" lon="-0.3942165"><ele>15.2</ele><time>2022-11-17T19:39:49.0000000+00:00</time></trkpt><trkpt lat="39.4826031" lon="-0.39419294"><ele>15.2</ele><time>2022-11-17T19:39:50.0000000+00:00</time></trkpt><trkpt lat="39.48258651" lon="-0.39417601"><ele>15.2</ele><time>2022-11-17T19:39:51.0000000+00:00</time></trkpt><trkpt lat="39.4825679" lon="-0.39416545"><ele>15.2</ele><time>2022-11-17T19:39:52.0000000+00:00</time></trkpt><trkpt lat="39.48255231" lon="-0.39415036"><ele>15.2</ele><time>2022-11-17T19:39:53.0000000+00:00</time></trkpt><trkpt lat="39.48253806" lon="-0.39414148"><ele>15.2</ele><time>2022-11-17T19:39:54.0000000+00:00</time></trkpt><trkpt lat="39.48252775" lon="-0.39414215"><ele>15.2</ele><time>2022-11-17T19:39:55.0000000+00:00</time></trkpt><trkpt lat="39.48251174" lon="-0.39414877"><ele>15.2</ele><time>2022-11-17T19:39:56.0000000+00:00</time></trkpt><trkpt lat="39.48249707" lon="-0.39414668"><ele>15.2</ele><time>2022-11-17T19:39:57.0000000+00:00</time></trkpt><trkpt lat="39.48247964" lon="-0.39414584"><ele>15.2</ele><time>2022-11-17T19:39:58.0000000+00:00</time></trkpt><trkpt lat="39.48246388" lon="-0.39414768"><ele>15.2</ele><time>2022-11-17T19:39:59.0000000+00:00</time></trkpt><trkpt lat="39.48244468" lon="-0.39415238"><ele>15.0</ele><time>2022-11-17T19:40:00.0000000+00:00</time></trkpt><trkpt lat="39.48242834" lon="-0.39415087"><ele>15.0</ele><time>2022-11-17T19:40:01.0000000+00:00</time></trkpt><trkpt lat="39.48241937" lon="-0.39415573"><ele>15.2</ele><time>2022-11-17T19:40:02.0000000+00:00</time></trkpt><trkpt lat="39.4824094" lon="-0.39414517"><ele>15.2</ele><time>2022-11-17T19:40:03.0000000+00:00</time></trkpt><trkpt lat="39.48240437" lon="-0.39413502"><ele>15.2</ele><time>2022-11-17T19:40:04.0000000+00:00</time></trkpt><trkpt lat="39.48239716" lon="-0.39412078"><ele>15.2</ele><time>2022-11-17T19:40:05.0000000+00:00</time></trkpt><trkpt lat="39.48238702" lon="-0.39410762"><ele>15.2</ele><time>2022-11-17T19:40:06.0000000+00:00</time></trkpt><trkpt lat="39.48237495" lon="-0.39409286"><ele>15.2</ele><time>2022-11-17T19:40:07.0000000+00:00</time></trkpt><trkpt lat="39.48236045" lon="-0.39408197"><ele>15.2</ele><time>2022-11-17T19:40:08.0000000+00:00</time></trkpt><trkpt lat="39.48234846" lon="-0.39407744"><ele>15.2</ele><time>2022-11-17T19:40:09.0000000+00:00</time></trkpt><trkpt lat="39.48233597" lon="-0.3940683"><ele>15.2</ele><time>2022-11-17T19:40:10.0000000+00:00</time></trkpt><trkpt lat="39.48232139" lon="-0.39404852"><ele>15.2</ele><time>2022-11-17T19:40:11.0000000+00:00</time></trkpt><trkpt lat="39.48230412" lon="-0.39403545"><ele>15.2</ele><time>2022-11-17T19:40:12.0000000+00:00</time></trkpt><trkpt lat="39.48229046" lon="-0.39402556"><ele>15.2</ele><time>2022-11-17T19:40:13.0000000+00:00</time></trkpt><trkpt lat="39.48227386" lon="-0.3940186"><ele>15.2</ele><time>2022-11-17T19:40:14.0000000+00:00</time></trkpt><trkpt lat="39.48225576" lon="-0.39401835"><ele>15.2</ele><time>2022-11-17T19:40:15.0000000+00:00</time></trkpt><trkpt lat="39.48224184" lon="-0.3940036"><ele>15.2</ele><time>2022-11-17T19:40:16.0000000+00:00</time></trkpt><trkpt lat="39.48223053" lon="-0.39398792"><ele>15.2</ele><time>2022-11-17T19:40:17.0000000+00:00</time></trkpt><trkpt lat="39.48222826" lon="-0.39398574"><ele>15.0</ele><time>2022-11-17T19:40:18.0000000+00:00</time></trkpt><trkpt lat="39.48222105" lon="-0.39397661"><ele>15.0</ele><time>2022-11-17T19:40:19.0000000+00:00</time></trkpt><trkpt lat="39.48220882" lon="-0.39396563"><ele>15.0</ele><time>2022-11-17T19:40:20.0000000+00:00</time></trkpt><trkpt lat="39.48219289" lon="-0.39395289"><ele>14.8</ele><time>2022-11-17T19:40:21.0000000+00:00</time></trkpt><trkpt lat="39.48217252" lon="-0.3939373"><ele>14.8</ele><time>2022-11-17T19:40:22.0000000+00:00</time></trkpt><trkpt lat="39.48215207" lon="-0.39393202"><ele>14.8</ele><time>2022-11-17T19:40:23.0000000+00:00</time></trkpt><trkpt lat="39.48213447" lon="-0.39392221"><ele>14.8</ele><time>2022-11-17T19:40:24.0000000+00:00</time></trkpt><trkpt lat="39.48212374" lon="-0.39390947"><ele>14.8</ele><time>2022-11-17T19:40:25.0000000+00:00</time></trkpt><trkpt lat="39.48211628" lon="-0.39391056"><ele>14.8</ele><time>2022-11-17T19:40:26.0000000+00:00</time></trkpt><trkpt lat="39.48210932" lon="-0.3939238"><ele>14.8</ele><time>2022-11-17T19:40:27.0000000+00:00</time></trkpt><trkpt lat="39.48210362" lon="-0.39393487"><ele>14.8</ele><time>2022-11-17T19:40:28.0000000+00:00</time></trkpt><trkpt lat="39.48209742" lon="-0.39393746"><ele>14.8</ele><time>2022-11-17T19:40:29.0000000+00:00</time></trkpt><trkpt lat="39.48209072" lon="-0.39393738"><ele>14.8</ele><time>2022-11-17T19:40:30.0000000+00:00</time></trkpt><trkpt lat="39.48208351" lon="-0.39393713"><ele>14.8</ele><time>2022-11-17T19:40:31.0000000+00:00</time></trkpt><trkpt lat="39.482083" lon="-0.39393721"><ele>14.8</ele><time>2022-11-17T19:40:32.0000000+00:00</time></trkpt><trkpt lat="39.48206842" lon="-0.39392665"><ele>14.8</ele><time>2022-11-17T19:40:33.0000000+00:00</time></trkpt><trkpt lat="39.4820504" lon="-0.39391282"><ele>14.6</ele><time>2022-11-17T19:40:34.0000000+00:00</time></trkpt><trkpt lat="39.48203313" lon="-0.39389698"><ele>14.6</ele><time>2022-11-17T19:40:35.0000000+00:00</time></trkpt><trkpt lat="39.48201176" lon="-0.39388868"><ele>14.6</ele><time>2022-11-17T19:40:36.0000000+00:00</time></trkpt><trkpt lat="39.48200229" lon="-0.39387393"><ele>14.6</ele><time>2022-11-17T19:40:37.0000000+00:00</time></trkpt><trkpt lat="39.48198427" lon="-0.39385792"><ele>14.6</ele><time>2022-11-17T19:40:38.0000000+00:00</time></trkpt><trkpt lat="39.48197194" lon="-0.39384644"><ele>14.6</ele><time>2022-11-17T19:40:39.0000000+00:00</time></trkpt><trkpt lat="39.48195962" lon="-0.39384157"><ele>14.6</ele><time>2022-11-17T19:40:40.0000000+00:00</time></trkpt><trkpt lat="39.48194705" lon="-0.39383914"><ele>14.6</ele><time>2022-11-17T19:40:41.0000000+00:00</time></trkpt><trkpt lat="39.4819328" lon="-0.39383487"><ele>14.6</ele><time>2022-11-17T19:40:42.0000000+00:00</time></trkpt><trkpt lat="39.48192023" lon="-0.39382758"><ele>14.6</ele><time>2022-11-17T19:40:43.0000000+00:00</time></trkpt><trkpt lat="39.481909" lon="-0.39382037"><ele>14.6</ele><time>2022-11-17T19:40:44.0000000+00:00</time></trkpt><trkpt lat="39.48189835" lon="-0.39381551"><ele>14.6</ele><time>2022-11-17T19:40:45.0000000+00:00</time></trkpt><trkpt lat="39.48188611" lon="-0.39380545"><ele>14.6</ele><time>2022-11-17T19:40:46.0000000+00:00</time></trkpt><trkpt lat="39.48187513" lon="-0.39379413"><ele>14.6</ele><time>2022-11-17T19:40:47.0000000+00:00</time></trkpt><trkpt lat="39.48186407" lon="-0.39378324"><ele>14.6</ele><time>2022-11-17T19:40:48.0000000+00:00</time></trkpt><trkpt lat="39.48185485" lon="-0.39376756"><ele>14.6</ele><time>2022-11-17T19:40:49.0000000+00:00</time></trkpt><trkpt lat="39.4818463" lon="-0.39375398"><ele>14.4</ele><time>2022-11-17T19:40:50.0000000+00:00</time></trkpt><trkpt lat="39.48183524" lon="-0.39374325"><ele>14.4</ele><time>2022-11-17T19:40:51.0000000+00:00</time></trkpt><trkpt lat="39.48182937" lon="-0.39373764"><ele>14.4</ele><time>2022-11-17T19:40:52.0000000+00:00</time></trkpt><trkpt lat="39.48182685" lon="-0.39374108"><ele>14.6</ele><time>2022-11-17T19:40:53.0000000+00:00</time></trkpt><trkpt lat="39.48181981" lon="-0.39374007"><ele>14.6</ele><time>2022-11-17T19:40:54.0000000+00:00</time></trkpt><trkpt lat="39.48181059" lon="-0.39373621"><ele>14.6</ele><time>2022-11-17T19:40:55.0000000+00:00</time></trkpt><trkpt lat="39.48180053" lon="-0.39372691"><ele>14.6</ele><time>2022-11-17T19:40:56.0000000+00:00</time></trkpt><trkpt lat="39.48178846" lon="-0.39371979"><ele>14.6</ele><time>2022-11-17T19:40:57.0000000+00:00</time></trkpt><trkpt lat="39.48177916" lon="-0.39371258"><ele>14.6</ele><time>2022-11-17T19:40:58.0000000+00:00</time></trkpt><trkpt lat="39.48177137" lon="-0.39370679"><ele>14.6</ele><time>2022-11-17T19:40:59.0000000+00:00</time></trkpt><trkpt lat="39.48176323" lon="-0.39370109"><ele>14.4</ele><time>2022-11-17T19:41:00.0000000+00:00</time></trkpt><trkpt lat="39.48175334" lon="-0.39369657"><ele>14.4</ele><time>2022-11-17T19:41:01.0000000+00:00</time></trkpt><trkpt lat="39.48174211" lon="-0.3936933"><ele>14.4</ele><time>2022-11-17T19:41:02.0000000+00:00</time></trkpt><trkpt lat="39.4817334" lon="-0.39368844"><ele>14.2</ele><time>2022-11-17T19:41:03.0000000+00:00</time></trkpt><trkpt lat="39.48172577" lon="-0.39368995"><ele>14.2</ele><time>2022-11-17T19:41:04.0000000+00:00</time></trkpt><trkpt lat="39.48171571" lon="-0.39368198"><ele>14.2</ele><time>2022-11-17T19:41:05.0000000+00:00</time></trkpt><trkpt lat="39.48170071" lon="-0.3936731"><ele>14.2</ele><time>2022-11-17T19:41:06.0000000+00:00</time></trkpt><trkpt lat="39.48168679" lon="-0.39366036"><ele>14.2</ele><time>2022-11-17T19:41:07.0000000+00:00</time></trkpt><trkpt lat="39.48167665" lon="-0.39364594"><ele>14.2</ele><time>2022-11-17T19:41:08.0000000+00:00</time></trkpt><trkpt lat="39.48166265" lon="-0.39363555"><ele>14.0</ele><time>2022-11-17T19:41:09.0000000+00:00</time></trkpt><trkpt lat="39.48165008" lon="-0.39362281"><ele>14.0</ele><time>2022-11-17T19:41:10.0000000+00:00</time></trkpt><trkpt lat="39.48164069" lon="-0.39361275"><ele>14.0</ele><time>2022-11-17T19:41:11.0000000+00:00</time></trkpt><trkpt lat="39.48162837" lon="-0.3936047"><ele>14.0</ele><time>2022-11-17T19:41:12.0000000+00:00</time></trkpt><trkpt lat="39.48161714" lon="-0.39359573"><ele>14.0</ele><time>2022-11-17T19:41:13.0000000+00:00</time></trkpt><trkpt lat="39.48160406" lon="-0.39358785"><ele>14.0</ele><time>2022-11-17T19:41:14.0000000+00:00</time></trkpt><trkpt lat="39.48158604" lon="-0.39358316"><ele>14.0</ele><time>2022-11-17T19:41:15.0000000+00:00</time></trkpt><trkpt lat="39.48156467" lon="-0.39357671"><ele>14.0</ele><time>2022-11-17T19:41:16.0000000+00:00</time></trkpt><trkpt lat="39.48154807" lon="-0.39357176"><ele>14.0</ele><time>2022-11-17T19:41:17.0000000+00:00</time></trkpt><trkpt lat="39.48153164" lon="-0.39356237"><ele>14.0</ele><time>2022-11-17T19:41:18.0000000+00:00</time></trkpt><trkpt lat="39.48151765" lon="-0.39354829"><ele>14.0</ele><time>2022-11-17T19:41:19.0000000+00:00</time></trkpt><trkpt lat="39.48150281" lon="-0.39353756"><ele>13.8</ele><time>2022-11-17T19:41:20.0000000+00:00</time></trkpt><trkpt lat="39.48148873" lon="-0.3935317"><ele>13.8</ele><time>2022-11-17T19:41:21.0000000+00:00</time></trkpt><trkpt lat="39.48147708" lon="-0.39351753"><ele>13.8</ele><time>2022-11-17T19:41:22.0000000+00:00</time></trkpt><trkpt lat="39.48147004" lon="-0.39350269"><ele>13.8</ele><time>2022-11-17T19:41:23.0000000+00:00</time></trkpt><trkpt lat="39.48146082" lon="-0.39349163"><ele>13.8</ele><time>2022-11-17T19:41:24.0000000+00:00</time></trkpt><trkpt lat="39.48144958" lon="-0.39348174"><ele>13.8</ele><time>2022-11-17T19:41:25.0000000+00:00</time></trkpt><trkpt lat="39.48143701" lon="-0.39346799"><ele>13.8</ele><time>2022-11-17T19:41:26.0000000+00:00</time></trkpt><trkpt lat="39.48141924" lon="-0.39345483"><ele>13.6</ele><time>2022-11-17T19:41:27.0000000+00:00</time></trkpt><trkpt lat="39.48140005" lon="-0.39344109"><ele>13.6</ele><time>2022-11-17T19:41:28.0000000+00:00</time></trkpt><trkpt lat="39.48138253" lon="-0.39342709"><ele>13.6</ele><time>2022-11-17T19:41:29.0000000+00:00</time></trkpt><trkpt lat="39.48136375" lon="-0.39341695"><ele>13.4</ele><time>2022-11-17T19:41:30.0000000+00:00</time></trkpt><trkpt lat="39.481349" lon="-0.39340999"><ele>13.4</ele><time>2022-11-17T19:41:31.0000000+00:00</time></trkpt><trkpt lat="39.48133484" lon="-0.39340789"><ele>13.4</ele><time>2022-11-17T19:41:32.0000000+00:00</time></trkpt><trkpt lat="39.48131816" lon="-0.39340496"><ele>13.4</ele><time>2022-11-17T19:41:33.0000000+00:00</time></trkpt><trkpt lat="39.48130114" lon="-0.39339742"><ele>13.2</ele><time>2022-11-17T19:41:34.0000000+00:00</time></trkpt><trkpt lat="39.48128815" lon="-0.39338778"><ele>13.2</ele><time>2022-11-17T19:41:35.0000000+00:00</time></trkpt><trkpt lat="39.48128002" lon="-0.39338225"><ele>13.2</ele><time>2022-11-17T19:41:36.0000000+00:00</time></trkpt><trkpt lat="39.48127273" lon="-0.39338049"><ele>13.2</ele><time>2022-11-17T19:41:37.0000000+00:00</time></trkpt><trkpt lat="39.48126652" lon="-0.3933773"><ele>13.0</ele><time>2022-11-17T19:41:38.0000000+00:00</time></trkpt><trkpt lat="39.48126376" lon="-0.39337655"><ele>13.0</ele><time>2022-11-17T19:41:39.0000000+00:00</time></trkpt><trkpt lat="39.48126325" lon="-0.39337671"><ele>13.0</ele><time>2022-11-17T19:41:40.0000000+00:00</time></trkpt><trkpt lat="39.48126292" lon="-0.39337663"><ele>13.0</ele><time>2022-11-17T19:41:41.0000000+00:00</time></trkpt><trkpt lat="39.48126309" lon="-0.39337697"><ele>13.0</ele><time>2022-11-17T19:41:42.0000000+00:00</time></trkpt><trkpt lat="39.48126292" lon="-0.39337797"><ele>13.2</ele><time>2022-11-17T19:41:43.0000000+00:00</time></trkpt><trkpt lat="39.48126292" lon="-0.39338065"><ele>13.2</ele><time>2022-11-17T19:41:44.0000000+00:00</time></trkpt><trkpt lat="39.48126317" lon="-0.39338258"><ele>13.2</ele><time>2022-11-17T19:41:45.0000000+00:00</time></trkpt><trkpt lat="39.48126334" lon="-0.39338384"><ele>13.2</ele><time>2022-11-17T19:41:46.0000000+00:00</time></trkpt><trkpt lat="39.48126342" lon="-0.39338258"><ele>13.2</ele><time>2022-11-17T19:41:47.0000000+00:00</time></trkpt><trkpt lat="39.48126091" lon="-0.39338091"><ele>13.2</ele><time>2022-11-17T19:41:48.0000000+00:00</time></trkpt><trkpt lat="39.48125462" lon="-0.39337353"><ele>13.2</ele><time>2022-11-17T19:41:49.0000000+00:00</time></trkpt><trkpt lat="39.48124859" lon="-0.39336624"><ele>13.4</ele><time>2022-11-17T19:41:50.0000000+00:00</time></trkpt><trkpt lat="39.48123844" lon="-0.39335836"><ele>13.4</ele><time>2022-11-17T19:41:51.0000000+00:00</time></trkpt><trkpt lat="39.48122763" lon="-0.39335392"><ele>13.4</ele><time>2022-11-17T19:41:52.0000000+00:00</time></trkpt><trkpt lat="39.48121715" lon="-0.3933483"><ele>13.4</ele><time>2022-11-17T19:41:53.0000000+00:00</time></trkpt><trkpt lat="39.48120726" lon="-0.39334101"><ele>13.6</ele><time>2022-11-17T19:41:54.0000000+00:00</time></trkpt><trkpt lat="39.48119544" lon="-0.39333137"><ele>13.6</ele><time>2022-11-17T19:41:55.0000000+00:00</time></trkpt><trkpt lat="39.48118296" lon="-0.39332299"><ele>13.6</ele><time>2022-11-17T19:41:56.0000000+00:00</time></trkpt><trkpt lat="39.48117164" lon="-0.39331997"><ele>13.6</ele><time>2022-11-17T19:41:57.0000000+00:00</time></trkpt><trkpt lat="39.48115898" lon="-0.39332039"><ele>13.6</ele><time>2022-11-17T19:41:58.0000000+00:00</time></trkpt><trkpt lat="39.48114708" lon="-0.39332223"><ele>13.6</ele><time>2022-11-17T19:41:59.0000000+00:00</time></trkpt><trkpt lat="39.48113107" lon="-0.39332223"><ele>13.6</ele><time>2022-11-17T19:42:00.0000000+00:00</time></trkpt><trkpt lat="39.48111096" lon="-0.39331988"><ele>13.6</ele><time>2022-11-17T19:42:01.0000000+00:00</time></trkpt><trkpt lat="39.48109251" lon="-0.39331988"><ele>13.6</ele><time>2022-11-17T19:42:02.0000000+00:00</time></trkpt><trkpt lat="39.48107701" lon="-0.39332299"><ele>13.6</ele><time>2022-11-17T19:42:03.0000000+00:00</time></trkpt><trkpt lat="39.48106301" lon="-0.39332952"><ele>13.6</ele><time>2022-11-17T19:42:04.0000000+00:00</time></trkpt><trkpt lat="39.48104725" lon="-0.39333958"><ele>13.6</ele><time>2022-11-17T19:42:05.0000000+00:00</time></trkpt><trkpt lat="39.4810273" lon="-0.39334386"><ele>13.6</ele><time>2022-11-17T19:42:06.0000000+00:00</time></trkpt><trkpt lat="39.48100979" lon="-0.3933462"><ele>13.6</ele><time>2022-11-17T19:42:07.0000000+00:00</time></trkpt><trkpt lat="39.48099394" lon="-0.39334587"><ele>13.4</ele><time>2022-11-17T19:42:08.0000000+00:00</time></trkpt><trkpt lat="39.48098414" lon="-0.39334796"><ele>13.4</ele><time>2022-11-17T19:42:09.0000000+00:00</time></trkpt><trkpt lat="39.48097785" lon="-0.39335492"><ele>13.4</ele><time>2022-11-17T19:42:10.0000000+00:00</time></trkpt><trkpt lat="39.48096947" lon="-0.393355"><ele>13.4</ele><time>2022-11-17T19:42:11.0000000+00:00</time></trkpt><trkpt lat="39.48095958" lon="-0.39335626"><ele>13.4</ele><time>2022-11-17T19:42:12.0000000+00:00</time></trkpt><trkpt lat="39.48094776" lon="-0.3933566"><ele>13.6</ele><time>2022-11-17T19:42:13.0000000+00:00</time></trkpt><trkpt lat="39.48093879" lon="-0.39335417"><ele>13.6</ele><time>2022-11-17T19:42:14.0000000+00:00</time></trkpt><trkpt lat="39.48093141" lon="-0.39335165"><ele>13.6</ele><time>2022-11-17T19:42:15.0000000+00:00</time></trkpt><trkpt lat="39.48092136" lon="-0.39334989"><ele>13.6</ele><time>2022-11-17T19:42:16.0000000+00:00</time></trkpt><trkpt lat="39.48091775" lon="-0.39335006"><ele>13.6</ele><time>2022-11-17T19:42:17.0000000+00:00</time></trkpt><trkpt lat="39.48091809" lon="-0.39335081"><ele>13.4</ele><time>2022-11-17T19:42:18.0000000+00:00</time></trkpt><trkpt lat="39.48092882" lon="-0.393368"><ele>13.4</ele><time>2022-11-17T19:42:19.0000000+00:00</time></trkpt><trkpt lat="39.48093343" lon="-0.39337546"><ele>13.4</ele><time>2022-11-17T19:42:20.0000000+00:00</time></trkpt><trkpt lat="39.4809367" lon="-0.39338426"><ele>13.4</ele><time>2022-11-17T19:42:21.0000000+00:00</time></trkpt><trkpt lat="39.48094122" lon="-0.39339482"><ele>13.4</ele><time>2022-11-17T19:42:22.0000000+00:00</time></trkpt><trkpt lat="39.4809465" lon="-0.39339951"><ele>13.4</ele><time>2022-11-17T19:42:23.0000000+00:00</time></trkpt><trkpt lat="39.48095505" lon="-0.39340957"><ele>13.6</ele><time>2022-11-17T19:42:24.0000000+00:00</time></trkpt><trkpt lat="39.48097098" lon="-0.39342969"><ele>13.6</ele><time>2022-11-17T19:42:25.0000000+00:00</time></trkpt><trkpt lat="39.48098875" lon="-0.39346204"><ele>13.4</ele><time>2022-11-17T19:42:26.0000000+00:00</time></trkpt><trkpt lat="39.48100953" lon="-0.39348006"><ele>13.4</ele><time>2022-11-17T19:42:27.0000000+00:00</time></trkpt><trkpt lat="39.48102965" lon="-0.39349599"><ele>13.4</ele><time>2022-11-17T19:42:28.0000000+00:00</time></trkpt><trkpt lat="39.48103418" lon="-0.39351393"><ele>13.4</ele><time>2022-11-17T19:42:29.0000000+00:00</time></trkpt><trkpt lat="39.4810123" lon="-0.39352465"><ele>13.4</ele><time>2022-11-17T19:42:30.0000000+00:00</time></trkpt><trkpt lat="39.48099093" lon="-0.39354016"><ele>13.4</ele><time>2022-11-17T19:42:31.0000000+00:00</time></trkpt><trkpt lat="39.4809745" lon="-0.39355433"><ele>13.4</ele><time>2022-11-17T19:42:32.0000000+00:00</time></trkpt><trkpt lat="39.48095396" lon="-0.39356371"><ele>13.4</ele><time>2022-11-17T19:42:33.0000000+00:00</time></trkpt><trkpt lat="39.48093762" lon="-0.39356858"><ele>13.4</ele><time>2022-11-17T19:42:34.0000000+00:00</time></trkpt><trkpt lat="39.4809263" lon="-0.39357168"><ele>13.4</ele><time>2022-11-17T19:42:35.0000000+00:00</time></trkpt><trkpt lat="39.48091507" lon="-0.39357629"><ele>13.4</ele><time>2022-11-17T19:42:36.0000000+00:00</time></trkpt><trkpt lat="39.48090283" lon="-0.39358241"><ele>13.6</ele><time>2022-11-17T19:42:37.0000000+00:00</time></trkpt><trkpt lat="39.48088221" lon="-0.39358375"><ele>13.6</ele><time>2022-11-17T19:42:38.0000000+00:00</time></trkpt><trkpt lat="39.48085908" lon="-0.39358316"><ele>13.6</ele><time>2022-11-17T19:42:39.0000000+00:00</time></trkpt><trkpt lat="39.48084382" lon="-0.39358567"><ele>13.6</ele><time>2022-11-17T19:42:40.0000000+00:00</time></trkpt><trkpt lat="39.4808274" lon="-0.3935897"><ele>13.6</ele><time>2022-11-17T19:42:41.0000000+00:00</time></trkpt><trkpt lat="39.48081524" lon="-0.39359674"><ele>13.8</ele><time>2022-11-17T19:42:42.0000000+00:00</time></trkpt><trkpt lat="39.48080225" lon="-0.39360453"><ele>13.8</ele><time>2022-11-17T19:42:43.0000000+00:00</time></trkpt><trkpt lat="39.48078498" lon="-0.39361124"><ele>13.8</ele><time>2022-11-17T19:42:44.0000000+00:00</time></trkpt><trkpt lat="39.48076428" lon="-0.39361191"><ele>13.8</ele><time>2022-11-17T19:42:45.0000000+00:00</time></trkpt><trkpt lat="39.48074081" lon="-0.39362163"><ele>13.6</ele><time>2022-11-17T19:42:46.0000000+00:00</time></trkpt><trkpt lat="39.48071768" lon="-0.39363094"><ele>13.6</ele><time>2022-11-17T19:42:47.0000000+00:00</time></trkpt><trkpt lat="39.48069513" lon="-0.39363613"><ele>13.2</ele><time>2022-11-17T19:42:48.0000000+00:00</time></trkpt><trkpt lat="39.48068851" lon="-0.39364812"><ele>13.2</ele><time>2022-11-17T19:42:49.0000000+00:00</time></trkpt><trkpt lat="39.48067761" lon="-0.3936534"><ele>13.0</ele><time>2022-11-17T19:42:50.0000000+00:00</time></trkpt><trkpt lat="39.48066713" lon="-0.39366178"><ele>13.0</ele><time>2022-11-17T19:42:51.0000000+00:00</time></trkpt><trkpt lat="39.480659" lon="-0.39367067"><ele>13.0</ele><time>2022-11-17T19:42:52.0000000+00:00</time></trkpt><trkpt lat="39.48065205" lon="-0.39367788"><ele>13.0</ele><time>2022-11-17T19:42:53.0000000+00:00</time></trkpt><trkpt lat="39.48064702" lon="-0.39368793"><ele>13.0</ele><time>2022-11-17T19:42:54.0000000+00:00</time></trkpt><trkpt lat="39.4806357" lon="-0.3936933"><ele>13.2</ele><time>2022-11-17T19:42:55.0000000+00:00</time></trkpt><trkpt lat="39.48063059" lon="-0.3936959"><ele>13.4</ele><time>2022-11-17T19:42:56.0000000+00:00</time></trkpt><trkpt lat="39.48062355" lon="-0.39369405"><ele>13.6</ele><time>2022-11-17T19:42:57.0000000+00:00</time></trkpt><trkpt lat="39.48062648" lon="-0.3937145"><ele>13.6</ele><time>2022-11-17T19:42:58.0000000+00:00</time></trkpt><trkpt lat="39.48062925" lon="-0.39375499"><ele>13.6</ele><time>2022-11-17T19:42:59.0000000+00:00</time></trkpt><trkpt lat="39.48063863" lon="-0.39380319"><ele>13.6</ele><time>2022-11-17T19:43:00.0000000+00:00</time></trkpt><trkpt lat="39.48064844" lon="-0.39383923"><ele>13.8</ele><time>2022-11-17T19:43:01.0000000+00:00</time></trkpt><trkpt lat="39.48065842" lon="-0.39385851"><ele>13.8</ele><time>2022-11-17T19:43:02.0000000+00:00</time></trkpt><trkpt lat="39.48066738" lon="-0.39387669"><ele>14.0</ele><time>2022-11-17T19:43:03.0000000+00:00</time></trkpt><trkpt lat="39.48066839" lon="-0.39389237"><ele>14.0</ele><time>2022-11-17T19:43:04.0000000+00:00</time></trkpt><trkpt lat="39.4806663" lon="-0.39391735"><ele>14.0</ele><time>2022-11-17T19:43:05.0000000+00:00</time></trkpt><trkpt lat="39.48066353" lon="-0.39395046"><ele>14.2</ele><time>2022-11-17T19:43:06.0000000+00:00</time></trkpt><trkpt lat="39.48065548" lon="-0.39396789"><ele>14.2</ele><time>2022-11-17T19:43:07.0000000+00:00</time></trkpt><trkpt lat="39.48065339" lon="-0.39398499"><ele>14.2</ele><time>2022-11-17T19:43:08.0000000+00:00</time></trkpt><trkpt lat="39.48065129" lon="-0.39399899"><ele>14.2</ele><time>2022-11-17T19:43:09.0000000+00:00</time></trkpt><trkpt lat="39.48065456" lon="-0.39401089"><ele>14.2</ele><time>2022-11-17T19:43:10.0000000+00:00</time></trkpt><trkpt lat="39.48066244" lon="-0.39403469"><ele>14.0</ele><time>2022-11-17T19:43:11.0000000+00:00</time></trkpt><trkpt lat="39.48066445" lon="-0.39405825"><ele>14.2</ele><time>2022-11-17T19:43:12.0000000+00:00</time></trkpt><trkpt lat="39.48066009" lon="-0.39407744"><ele>14.0</ele><time>2022-11-17T19:43:13.0000000+00:00</time></trkpt><trkpt lat="39.48065423" lon="-0.39409781"><ele>14.0</ele><time>2022-11-17T19:43:14.0000000+00:00</time></trkpt><trkpt lat="39.480659" lon="-0.39411625"><ele>14.0</ele><time>2022-11-17T19:43:15.0000000+00:00</time></trkpt><trkpt lat="39.48065423" lon="-0.39413603"><ele>14.0</ele><time>2022-11-17T19:43:16.0000000+00:00</time></trkpt><trkpt lat="39.480659" lon="-0.39415967"><ele>14.0</ele><time>2022-11-17T19:43:17.0000000+00:00</time></trkpt><trkpt lat="39.48066194" lon="-0.39418791"><ele>14.0</ele><time>2022-11-17T19:43:18.0000000+00:00</time></trkpt><trkpt lat="39.48066185" lon="-0.3942113"><ele>13.8</ele><time>2022-11-17T19:43:19.0000000+00:00</time></trkpt><trkpt lat="39.48066101" lon="-0.39422672"><ele>13.8</ele><time>2022-11-17T19:43:20.0000000+00:00</time></trkpt><trkpt lat="39.48066018" lon="-0.39424776"><ele>13.8</ele><time>2022-11-17T19:43:21.0000000+00:00</time></trkpt><trkpt lat="39.48065892" lon="-0.39426629"><ele>13.8</ele><time>2022-11-17T19:43:22.0000000+00:00</time></trkpt><trkpt lat="39.48066034" lon="-0.39428263"><ele>13.8</ele><time>2022-11-17T19:43:23.0000000+00:00</time></trkpt><trkpt lat="39.48065716" lon="-0.39431121"><ele>13.8</ele><time>2022-11-17T19:43:24.0000000+00:00</time></trkpt><trkpt lat="39.48065314" lon="-0.39433694"><ele>13.8</ele><time>2022-11-17T19:43:25.0000000+00:00</time></trkpt><trkpt lat="39.48064962" lon="-0.39436008"><ele>13.8</ele><time>2022-11-17T19:43:26.0000000+00:00</time></trkpt><trkpt lat="39.48064014" lon="-0.39438045"><ele>13.8</ele><time>2022-11-17T19:43:27.0000000+00:00</time></trkpt><trkpt lat="39.48063076" lon="-0.39440333"><ele>13.8</ele><time>2022-11-17T19:43:28.0000000+00:00</time></trkpt><trkpt lat="39.48061927" lon="-0.3944216"><ele>13.8</ele><time>2022-11-17T19:43:29.0000000+00:00</time></trkpt><trkpt lat="39.48060603" lon="-0.39444063"><ele>13.8</ele><time>2022-11-17T19:43:30.0000000+00:00</time></trkpt><trkpt lat="39.48059069" lon="-0.39445412"><ele>13.8</ele><time>2022-11-17T19:43:31.0000000+00:00</time></trkpt><trkpt lat="39.4805751" lon="-0.39447768"><ele>13.8</ele><time>2022-11-17T19:43:32.0000000+00:00</time></trkpt><trkpt lat="39.48056446" lon="-0.39450534"><ele>14.0</ele><time>2022-11-17T19:43:33.0000000+00:00</time></trkpt><trkpt lat="39.4805518" lon="-0.39453191"><ele>14.0</ele><time>2022-11-17T19:43:34.0000000+00:00</time></trkpt><trkpt lat="39.48053344" lon="-0.39455462"><ele>14.0</ele><time>2022-11-17T19:43:35.0000000+00:00</time></trkpt><trkpt lat="39.48051257" lon="-0.39456963"><ele>14.0</ele><time>2022-11-17T19:43:36.0000000+00:00</time></trkpt><trkpt lat="39.48049539" lon="-0.39458304"><ele>14.0</ele><time>2022-11-17T19:43:37.0000000+00:00</time></trkpt><trkpt lat="39.4804834" lon="-0.39459511"><ele>14.0</ele><time>2022-11-17T19:43:38.0000000+00:00</time></trkpt><trkpt lat="39.48047443" lon="-0.39460919"><ele>14.0</ele><time>2022-11-17T19:43:39.0000000+00:00</time></trkpt><trkpt lat="39.4804684" lon="-0.39462964"><ele>13.8</ele><time>2022-11-17T19:43:40.0000000+00:00</time></trkpt><trkpt lat="39.48046865" lon="-0.39463283"><ele>13.8</ele><time>2022-11-17T19:43:41.0000000+00:00</time></trkpt><trkpt lat="39.48047108" lon="-0.39466091"><ele>13.8</ele><time>2022-11-17T19:43:42.0000000+00:00</time></trkpt><trkpt lat="39.48047007" lon="-0.39466107"><ele>13.6</ele><time>2022-11-17T19:43:43.0000000+00:00</time></trkpt><trkpt lat="39.48046882" lon="-0.39465956"><ele>13.6</ele><time>2022-11-17T19:43:44.0000000+00:00</time></trkpt><trkpt lat="39.48047016" lon="-0.39466091"><ele>13.4</ele><time>2022-11-17T19:43:45.0000000+00:00</time></trkpt><trkpt lat="39.48047091" lon="-0.39466049"><ele>13.4</ele><time>2022-11-17T19:43:46.0000000+00:00</time></trkpt><trkpt lat="39.48047242" lon="-0.39466091"><ele>13.4</ele><time>2022-11-17T19:43:47.0000000+00:00</time></trkpt><trkpt lat="39.48047385" lon="-0.39466132"><ele>12.8</ele><time>2022-11-17T19:43:48.0000000+00:00</time></trkpt><trkpt lat="39.48047502" lon="-0.39466225"><ele>12.8</ele><time>2022-11-17T19:43:49.0000000+00:00</time></trkpt><trkpt lat="39.4804767" lon="-0.39467868"><ele>12.8</ele><time>2022-11-17T19:43:50.0000000+00:00</time></trkpt><trkpt lat="39.48047343" lon="-0.39467968"><ele>12.8</ele><time>2022-11-17T19:43:51.0000000+00:00</time></trkpt><trkpt lat="39.48047326" lon="-0.39469519"><ele>12.8</ele><time>2022-11-17T19:43:52.0000000+00:00</time></trkpt><trkpt lat="39.48047234" lon="-0.39469678"><ele>12.8</ele><time>2022-11-17T19:43:53.0000000+00:00</time></trkpt><trkpt lat="39.48047301" lon="-0.39469888"><ele>12.8</ele><time>2022-11-17T19:43:54.0000000+00:00</time></trkpt><trkpt lat="39.4804746" lon="-0.39469938"><ele>12.8</ele><time>2022-11-17T19:43:55.0000000+00:00</time></trkpt><trkpt lat="39.48047829" lon="-0.39470223"><ele>12.8</ele><time>2022-11-17T19:43:56.0000000+00:00</time></trkpt><trkpt lat="39.48048223" lon="-0.39471396"><ele>12.8</ele><time>2022-11-17T19:43:57.0000000+00:00</time></trkpt><trkpt lat="39.4804839" lon="-0.39472813"><ele>12.8</ele><time>2022-11-17T19:43:58.0000000+00:00</time></trkpt><trkpt lat="39.48048608" lon="-0.39473165"><ele>12.8</ele><time>2022-11-17T19:43:59.0000000+00:00</time></trkpt><trkpt lat="39.4804824" lon="-0.39473215"><ele>12.8</ele><time>2022-11-17T19:44:00.0000000+00:00</time></trkpt><trkpt lat="39.4804777" lon="-0.39472804"><ele>12.8</ele><time>2022-11-17T19:44:01.0000000+00:00</time></trkpt><trkpt lat="39.48047292" lon="-0.39472779"><ele>12.8</ele><time>2022-11-17T19:44:02.0000000+00:00</time></trkpt><trkpt lat="39.48046127" lon="-0.39472662"><ele>12.8</ele><time>2022-11-17T19:44:03.0000000+00:00</time></trkpt><trkpt lat="39.48044719" lon="-0.39473919"><ele>12.8</ele><time>2022-11-17T19:44:04.0000000+00:00</time></trkpt><trkpt lat="39.48044979" lon="-0.39475042"><ele>12.8</ele><time>2022-11-17T19:44:05.0000000+00:00</time></trkpt><trkpt lat="39.48045038" lon="-0.39475612"><ele>12.8</ele><time>2022-11-17T19:44:06.0000000+00:00</time></trkpt><trkpt lat="39.4804435" lon="-0.39475864"><ele>12.8</ele><time>2022-11-17T19:44:07.0000000+00:00</time></trkpt><trkpt lat="39.48043697" lon="-0.39475889"><ele>12.8</ele><time>2022-11-17T19:44:08.0000000+00:00</time></trkpt><trkpt lat="39.4804285" lon="-0.39475621"><ele>12.8</ele><time>2022-11-17T19:44:09.0000000+00:00</time></trkpt><trkpt lat="39.48042272" lon="-0.3947573"><ele>12.8</ele><time>2022-11-17T19:44:10.0000000+00:00</time></trkpt><trkpt lat="39.48042498" lon="-0.39476509"><ele>12.8</ele><time>2022-11-17T19:44:11.0000000+00:00</time></trkpt><trkpt lat="39.48042607" lon="-0.39477029"><ele>12.8</ele><time>2022-11-17T19:44:12.0000000+00:00</time></trkpt><trkpt lat="39.48042356" lon="-0.39477632"><ele>12.8</ele><time>2022-11-17T19:44:13.0000000+00:00</time></trkpt><trkpt lat="39.48041534" lon="-0.39477792"><ele>12.8</ele><time>2022-11-17T19:44:14.0000000+00:00</time></trkpt><trkpt lat="39.48040369" lon="-0.39477683"><ele>12.8</ele><time>2022-11-17T19:44:15.0000000+00:00</time></trkpt><trkpt lat="39.48039103" lon="-0.39477322"><ele>13.2</ele><time>2022-11-17T19:44:16.0000000+00:00</time></trkpt><trkpt lat="39.48038072" lon="-0.39477448"><ele>13.4</ele><time>2022-11-17T19:44:17.0000000+00:00</time></trkpt><trkpt lat="39.480371" lon="-0.39477725"><ele>13.4</ele><time>2022-11-17T19:44:18.0000000+00:00</time></trkpt><trkpt lat="39.48036874" lon="-0.39478244"><ele>13.4</ele><time>2022-11-17T19:44:19.0000000+00:00</time></trkpt><trkpt lat="39.4803679" lon="-0.39478756"><ele>13.6</ele><time>2022-11-17T19:44:20.0000000+00:00</time></trkpt><trkpt lat="39.48036312" lon="-0.3947925"><ele>13.6</ele><time>2022-11-17T19:44:21.0000000+00:00</time></trkpt><trkpt lat="39.48036321" lon="-0.3947925"><ele>13.6</ele><time>2022-11-17T19:44:22.0000000+00:00</time></trkpt><trkpt lat="39.48036346" lon="-0.39479284"><ele>13.6</ele><time>2022-11-17T19:44:23.0000000+00:00</time></trkpt><trkpt lat="39.48036371" lon="-0.39479326"><ele>13.6</ele><time>2022-11-17T19:44:24.0000000+00:00</time></trkpt><trkpt lat="39.48036547" lon="-0.39479359"><ele>13.6</ele><time>2022-11-17T19:44:25.0000000+00:00</time></trkpt><trkpt lat="39.4803684" lon="-0.39479401"><ele>13.6</ele><time>2022-11-17T19:44:26.0000000+00:00</time></trkpt><trkpt lat="39.48037016" lon="-0.39479443"><ele>13.6</ele><time>2022-11-17T19:44:27.0000000+00:00</time></trkpt><trkpt lat="39.48037125" lon="-0.39479443"><ele>13.6</ele><time>2022-11-17T19:44:28.0000000+00:00</time></trkpt><trkpt lat="39.48036823" lon="-0.39480181"><ele>13.4</ele><time>2022-11-17T19:44:29.0000000+00:00</time></trkpt><trkpt lat="39.48036647" lon="-0.39480264"><ele>13.4</ele><time>2022-11-17T19:44:30.0000000+00:00</time></trkpt><trkpt lat="39.4803648" lon="-0.39480315"><ele>13.4</ele><time>2022-11-17T19:44:31.0000000+00:00</time></trkpt><trkpt lat="39.48036505" lon="-0.39480315"><ele>13.4</ele><time>2022-11-17T19:44:32.0000000+00:00</time></trkpt><trkpt lat="39.4803658" lon="-0.39480382"><ele>13.4</ele><time>2022-11-17T19:44:33.0000000+00:00</time></trkpt><trkpt lat="39.48035466" lon="-0.39480507"><ele>13.4</ele><time>2022-11-17T19:44:34.0000000+00:00</time></trkpt><trkpt lat="39.48035281" lon="-0.39481161"><ele>13.4</ele><time>2022-11-17T19:44:35.0000000+00:00</time></trkpt><trkpt lat="39.48035306" lon="-0.39481304"><ele>13.4</ele><time>2022-11-17T19:44:36.0000000+00:00</time></trkpt><trkpt lat="39.48035491" lon="-0.39481455"><ele>13.4</ele><time>2022-11-17T19:44:37.0000000+00:00</time></trkpt><trkpt lat="39.480357" lon="-0.3948246"><ele>13.6</ele><time>2022-11-17T19:44:38.0000000+00:00</time></trkpt><trkpt lat="39.48035952" lon="-0.39483785"><ele>13.8</ele><time>2022-11-17T19:44:39.0000000+00:00</time></trkpt><trkpt lat="39.4803648" lon="-0.39484958"><ele>14.0</ele><time>2022-11-17T19:44:40.0000000+00:00</time></trkpt><trkpt lat="39.48036245" lon="-0.39487381"><ele>14.0</ele><time>2022-11-17T19:44:41.0000000+00:00</time></trkpt><trkpt lat="39.4803627" lon="-0.39489241"><ele>14.0</ele><time>2022-11-17T19:44:42.0000000+00:00</time></trkpt><trkpt lat="39.48035834" lon="-0.39490189"><ele>14.0</ele><time>2022-11-17T19:44:43.0000000+00:00</time></trkpt><trkpt lat="39.48035206" lon="-0.39490968"><ele>14.0</ele><time>2022-11-17T19:44:44.0000000+00:00</time></trkpt><trkpt lat="39.48034795" lon="-0.39491907"><ele>14.0</ele><time>2022-11-17T19:44:45.0000000+00:00</time></trkpt><trkpt lat="39.48034544" lon="-0.39492594"><ele>13.8</ele><time>2022-11-17T19:44:46.0000000+00:00</time></trkpt><trkpt lat="39.48034091" lon="-0.39493407"><ele>13.8</ele><time>2022-11-17T19:44:47.0000000+00:00</time></trkpt><trkpt lat="39.48033253" lon="-0.39493642"><ele>13.8</ele><time>2022-11-17T19:44:48.0000000+00:00</time></trkpt><trkpt lat="39.48033035" lon="-0.39493516"><ele>13.8</ele><time>2022-11-17T19:44:49.0000000+00:00</time></trkpt><trkpt lat="39.48033018" lon="-0.39493466"><ele>14.0</ele><time>2022-11-17T19:44:50.0000000+00:00</time></trkpt><trkpt lat="39.48033068" lon="-0.39493432"><ele>14.0</ele><time>2022-11-17T19:44:51.0000000+00:00</time></trkpt><trkpt lat="39.48033018" lon="-0.39493416"><ele>14.0</ele><time>2022-11-17T19:44:52.0000000+00:00</time></trkpt><trkpt lat="39.48032415" lon="-0.39494136"><ele>14.0</ele><time>2022-11-17T19:44:53.0000000+00:00</time></trkpt><trkpt lat="39.48032104" lon="-0.39494757"><ele>14.0</ele><time>2022-11-17T19:44:54.0000000+00:00</time></trkpt><trkpt lat="39.48032239" lon="-0.39495134"><ele>14.0</ele><time>2022-11-17T19:44:55.0000000+00:00</time></trkpt><trkpt lat="39.48032716" lon="-0.39495553"><ele>14.0</ele><time>2022-11-17T19:44:56.0000000+00:00</time></trkpt><trkpt lat="39.48032691" lon="-0.39496182"><ele>14.2</ele><time>2022-11-17T19:44:57.0000000+00:00</time></trkpt><trkpt lat="39.48032398" lon="-0.39496492"><ele>14.4</ele><time>2022-11-17T19:44:58.0000000+00:00</time></trkpt><trkpt lat="39.48032616" lon="-0.39496358"><ele>14.4</ele><time>2022-11-17T19:44:59.0000000+00:00</time></trkpt><trkpt lat="39.48032549" lon="-0.39496517"><ele>14.4</ele><time>2022-11-17T19:45:00.0000000+00:00</time></trkpt><trkpt lat="39.48032063" lon="-0.39496659"><ele>14.4</ele><time>2022-11-17T19:45:01.0000000+00:00</time></trkpt><trkpt lat="39.48031291" lon="-0.39497254"><ele>14.4</ele><time>2022-11-17T19:45:02.0000000+00:00</time></trkpt><trkpt lat="39.48030897" lon="-0.39498193"><ele>14.4</ele><time>2022-11-17T19:45:03.0000000+00:00</time></trkpt><trkpt lat="39.48029866" lon="-0.39498579"><ele>14.2</ele><time>2022-11-17T19:45:04.0000000+00:00</time></trkpt><trkpt lat="39.48028366" lon="-0.39499576"><ele>14.2</ele><time>2022-11-17T19:45:05.0000000+00:00</time></trkpt><trkpt lat="39.4802736" lon="-0.39501429"><ele>14.2</ele><time>2022-11-17T19:45:06.0000000+00:00</time></trkpt><trkpt lat="39.48026371" lon="-0.39503021"><ele>14.0</ele><time>2022-11-17T19:45:07.0000000+00:00</time></trkpt><trkpt lat="39.48025315" lon="-0.39504186"><ele>14.0</ele><time>2022-11-17T19:45:08.0000000+00:00</time></trkpt><trkpt lat="39.4802451" lon="-0.39505234"><ele>13.8</ele><time>2022-11-17T19:45:09.0000000+00:00</time></trkpt><trkpt lat="39.48023932" lon="-0.39506273"><ele>13.8</ele><time>2022-11-17T19:45:10.0000000+00:00</time></trkpt><trkpt lat="39.4802322" lon="-0.39507221"><ele>13.8</ele><time>2022-11-17T19:45:11.0000000+00:00</time></trkpt><trkpt lat="39.48022616" lon="-0.39508352"><ele>13.8</ele><time>2022-11-17T19:45:12.0000000+00:00</time></trkpt><trkpt lat="39.48021979" lon="-0.39509643"><ele>13.8</ele><time>2022-11-17T19:45:13.0000000+00:00</time></trkpt><trkpt lat="39.48021501" lon="-0.39507279"><ele>13.8</ele><time>2022-11-17T19:45:14.0000000+00:00</time></trkpt><trkpt lat="39.48020848" lon="-0.39505888"><ele>13.8</ele><time>2022-11-17T19:45:15.0000000+00:00</time></trkpt><trkpt lat="39.48019984" lon="-0.39504446"><ele>13.8</ele><time>2022-11-17T19:45:16.0000000+00:00</time></trkpt><trkpt lat="39.4801985" lon="-0.3950339"><ele>13.8</ele><time>2022-11-17T19:45:17.0000000+00:00</time></trkpt><trkpt lat="39.48019691" lon="-0.39502761"><ele>13.8</ele><time>2022-11-17T19:45:18.0000000+00:00</time></trkpt><trkpt lat="39.48019171" lon="-0.39501688"><ele>13.8</ele><time>2022-11-17T19:45:19.0000000+00:00</time></trkpt><trkpt lat="39.48019071" lon="-0.39501362"><ele>13.8</ele><time>2022-11-17T19:45:20.0000000+00:00</time></trkpt><trkpt lat="39.48019733" lon="-0.3950189"><ele>13.8</ele><time>2022-11-17T19:45:21.0000000+00:00</time></trkpt><trkpt lat="39.48022055" lon="-0.39504429"><ele>13.8</ele><time>2022-11-17T19:45:22.0000000+00:00</time></trkpt><trkpt lat="39.48023597" lon="-0.39507187"><ele>13.8</ele><time>2022-11-17T19:45:23.0000000+00:00</time></trkpt><trkpt lat="39.48027017" lon="-0.39512065"><ele>13.8</ele><time>2022-11-17T19:45:24.0000000+00:00</time></trkpt><trkpt lat="39.48029322" lon="-0.39509987"><ele>13.8</ele><time>2022-11-17T19:45:25.0000000+00:00</time></trkpt><trkpt lat="39.48029959" lon="-0.39511981"><ele>13.8</ele><time>2022-11-17T19:45:26.0000000+00:00</time></trkpt><trkpt lat="39.48030093" lon="-0.39515812"><ele>13.8</ele><time>2022-11-17T19:45:27.0000000+00:00</time></trkpt><trkpt lat="39.48031903" lon="-0.39515904"><ele>13.8</ele><time>2022-11-17T19:45:28.0000000+00:00</time></trkpt><trkpt lat="39.4803342" lon="-0.39518779"><ele>13.8</ele><time>2022-11-17T19:45:29.0000000+00:00</time></trkpt><trkpt lat="39.48035684" lon="-0.39519793"><ele>13.8</ele><time>2022-11-17T19:45:30.0000000+00:00</time></trkpt><trkpt lat="39.48037167" lon="-0.39522207"><ele>13.8</ele><time>2022-11-17T19:45:31.0000000+00:00</time></trkpt><trkpt lat="39.48036966" lon="-0.3952468"><ele>13.8</ele><time>2022-11-17T19:45:32.0000000+00:00</time></trkpt><trkpt lat="39.48037117" lon="-0.39526306"><ele>13.8</ele><time>2022-11-17T19:45:33.0000000+00:00</time></trkpt><trkpt lat="39.48039229" lon="-0.39527647"><ele>14.0</ele><time>2022-11-17T19:45:34.0000000+00:00</time></trkpt><trkpt lat="39.48040478" lon="-0.39529005"><ele>14.0</ele><time>2022-11-17T19:45:35.0000000+00:00</time></trkpt><trkpt lat="39.48040453" lon="-0.39530598"><ele>14.0</ele><time>2022-11-17T19:45:36.0000000+00:00</time></trkpt><trkpt lat="39.48041182" lon="-0.39529835"><ele>14.0</ele><time>2022-11-17T19:45:37.0000000+00:00</time></trkpt><trkpt lat="39.48042079" lon="-0.39530422"><ele>14.0</ele><time>2022-11-17T19:45:38.0000000+00:00</time></trkpt><trkpt lat="39.48043403" lon="-0.3953183"><ele>14.0</ele><time>2022-11-17T19:45:39.0000000+00:00</time></trkpt><trkpt lat="39.48043956" lon="-0.39533833"><ele>14.0</ele><time>2022-11-17T19:45:40.0000000+00:00</time></trkpt><trkpt lat="39.4804456" lon="-0.39533733"><ele>14.0</ele><time>2022-11-17T19:45:41.0000000+00:00</time></trkpt><trkpt lat="39.48044409" lon="-0.39535727"><ele>14.0</ele><time>2022-11-17T19:45:42.0000000+00:00</time></trkpt><trkpt lat="39.48044443" lon="-0.39536901"><ele>14.0</ele><time>2022-11-17T19:45:43.0000000+00:00</time></trkpt><trkpt lat="39.48045172" lon="-0.39537898"><ele>14.0</ele><time>2022-11-17T19:45:44.0000000+00:00</time></trkpt><trkpt lat="39.48045138" lon="-0.39538527"><ele>14.0</ele><time>2022-11-17T19:45:45.0000000+00:00</time></trkpt><trkpt lat="39.48044761" lon="-0.39540103"><ele>13.8</ele><time>2022-11-17T19:45:46.0000000+00:00</time></trkpt><trkpt lat="39.48044728" lon="-0.39542257"><ele>13.8</ele><time>2022-11-17T19:45:47.0000000+00:00</time></trkpt><trkpt lat="39.48043454" lon="-0.39544646"><ele>13.8</ele><time>2022-11-17T19:45:48.0000000+00:00</time></trkpt><trkpt lat="39.48043127" lon="-0.39547253"><ele>13.8</ele><time>2022-11-17T19:45:49.0000000+00:00</time></trkpt><trkpt lat="39.48042322" lon="-0.39548099"><ele>13.8</ele><time>2022-11-17T19:45:50.0000000+00:00</time></trkpt><trkpt lat="39.48042548" lon="-0.39548677"><ele>13.8</ele><time>2022-11-17T19:45:51.0000000+00:00</time></trkpt><trkpt lat="39.4804254" lon="-0.39547529"><ele>13.8</ele><time>2022-11-17T19:45:52.0000000+00:00</time></trkpt><trkpt lat="39.48043127" lon="-0.39546909"><ele>13.8</ele><time>2022-11-17T19:45:53.0000000+00:00</time></trkpt><trkpt lat="39.4804316" lon="-0.39546322"><ele>13.8</ele><time>2022-11-17T19:45:54.0000000+00:00</time></trkpt><trkpt lat="39.4804363" lon="-0.39546079"><ele>13.8</ele><time>2022-11-17T19:45:55.0000000+00:00</time></trkpt><trkpt lat="39.48043663" lon="-0.3954675"><ele>13.8</ele><time>2022-11-17T19:45:56.0000000+00:00</time></trkpt><trkpt lat="39.48044091" lon="-0.39547521"><ele>13.8</ele><time>2022-11-17T19:45:57.0000000+00:00</time></trkpt><trkpt lat="39.48045742" lon="-0.39549164"><ele>13.8</ele><time>2022-11-17T19:45:58.0000000+00:00</time></trkpt><trkpt lat="39.48045507" lon="-0.39551125"><ele>13.8</ele><time>2022-11-17T19:45:59.0000000+00:00</time></trkpt><trkpt lat="39.48046119" lon="-0.39551963"><ele>13.8</ele><time>2022-11-17T19:46:00.0000000+00:00</time></trkpt><trkpt lat="39.48046555" lon="-0.39553564"><ele>13.8</ele><time>2022-11-17T19:46:01.0000000+00:00</time></trkpt><trkpt lat="39.48046982" lon="-0.3955493"><ele>13.8</ele><time>2022-11-17T19:46:02.0000000+00:00</time></trkpt><trkpt lat="39.48047209" lon="-0.39556473"><ele>13.6</ele><time>2022-11-17T19:46:03.0000000+00:00</time></trkpt><trkpt lat="39.48048986" lon="-0.39556858"><ele>13.6</ele><time>2022-11-17T19:46:04.0000000+00:00</time></trkpt><trkpt lat="39.48050863" lon="-0.39557755"><ele>13.6</ele><time>2022-11-17T19:46:05.0000000+00:00</time></trkpt><trkpt lat="39.48054727" lon="-0.39554377"><ele>13.6</ele><time>2022-11-17T19:46:06.0000000+00:00</time></trkpt><trkpt lat="39.48056923" lon="-0.39552122"><ele>13.6</ele><time>2022-11-17T19:46:07.0000000+00:00</time></trkpt><trkpt lat="39.48058248" lon="-0.39552659"><ele>13.6</ele><time>2022-11-17T19:46:08.0000000+00:00</time></trkpt><trkpt lat="39.48056948" lon="-0.39553723"><ele>13.6</ele><time>2022-11-17T19:46:09.0000000+00:00</time></trkpt><trkpt lat="39.48057544" lon="-0.39554528"><ele>13.6</ele><time>2022-11-17T19:46:10.0000000+00:00</time></trkpt><trkpt lat="39.48058516" lon="-0.39547705"><ele>13.6</ele><time>2022-11-17T19:46:11.0000000+00:00</time></trkpt><trkpt lat="39.48058516" lon="-0.39546414"><ele>13.6</ele><time>2022-11-17T19:46:12.0000000+00:00</time></trkpt><trkpt lat="39.48057711" lon="-0.39545853"><ele>13.6</ele><time>2022-11-17T19:46:13.0000000+00:00</time></trkpt><trkpt lat="39.48058474" lon="-0.39545937"><ele>13.6</ele><time>2022-11-17T19:46:14.0000000+00:00</time></trkpt><trkpt lat="39.48057535" lon="-0.39546859"><ele>13.6</ele><time>2022-11-17T19:46:15.0000000+00:00</time></trkpt><trkpt lat="39.48055649" lon="-0.39549063"><ele>13.6</ele><time>2022-11-17T19:46:16.0000000+00:00</time></trkpt><trkpt lat="39.48055658" lon="-0.39548929"><ele>13.6</ele><time>2022-11-17T19:46:17.0000000+00:00</time></trkpt><trkpt lat="39.48054945" lon="-0.3954908"><ele>13.4</ele><time>2022-11-17T19:46:18.0000000+00:00</time></trkpt><trkpt lat="39.48055037" lon="-0.39550253"><ele>13.4</ele><time>2022-11-17T19:46:19.0000000+00:00</time></trkpt><trkpt lat="39.48053721" lon="-0.39551804"><ele>13.4</ele><time>2022-11-17T19:46:20.0000000+00:00</time></trkpt><trkpt lat="39.4805326" lon="-0.39552466"><ele>13.4</ele><time>2022-11-17T19:46:21.0000000+00:00</time></trkpt><trkpt lat="39.48052498" lon="-0.39553405"><ele>13.4</ele><time>2022-11-17T19:46:22.0000000+00:00</time></trkpt><trkpt lat="39.48052313" lon="-0.3955322"><ele>13.4</ele><time>2022-11-17T19:46:23.0000000+00:00</time></trkpt><trkpt lat="39.48053118" lon="-0.3955286"><ele>13.4</ele><time>2022-11-17T19:46:24.0000000+00:00</time></trkpt><trkpt lat="39.48053361" lon="-0.39554134"><ele>13.4</ele><time>2022-11-17T19:46:25.0000000+00:00</time></trkpt><trkpt lat="39.48054534" lon="-0.39554193"><ele>13.4</ele><time>2022-11-17T19:46:26.0000000+00:00</time></trkpt><trkpt lat="39.48055482" lon="-0.39554863"><ele>13.4</ele><time>2022-11-17T19:46:27.0000000+00:00</time></trkpt><trkpt lat="39.48054124" lon="-0.39555391"><ele>13.4</ele><time>2022-11-17T19:46:28.0000000+00:00</time></trkpt><trkpt lat="39.4805414" lon="-0.39555509"><ele>13.4</ele><time>2022-11-17T19:46:29.0000000+00:00</time></trkpt><trkpt lat="39.48053428" lon="-0.39555827"><ele>13.4</ele><time>2022-11-17T19:46:30.0000000+00:00</time></trkpt><trkpt lat="39.48052129" lon="-0.39557043"><ele>13.4</ele><time>2022-11-17T19:46:31.0000000+00:00</time></trkpt><trkpt lat="39.48051701" lon="-0.39558149"><ele>13.4</ele><time>2022-11-17T19:46:32.0000000+00:00</time></trkpt><trkpt lat="39.48051928" lon="-0.39558786"><ele>13.4</ele><time>2022-11-17T19:46:33.0000000+00:00</time></trkpt><trkpt lat="39.48051844" lon="-0.39559046"><ele>13.4</ele><time>2022-11-17T19:46:34.0000000+00:00</time></trkpt><trkpt lat="39.48051467" lon="-0.39560119"><ele>13.4</ele><time>2022-11-17T19:46:35.0000000+00:00</time></trkpt><trkpt lat="39.48051383" lon="-0.39560982"><ele>13.4</ele><time>2022-11-17T19:46:36.0000000+00:00</time></trkpt><trkpt lat="39.48051567" lon="-0.39562122"><ele>13.4</ele><time>2022-11-17T19:46:37.0000000+00:00</time></trkpt><trkpt lat="39.48051173" lon="-0.39562373"><ele>13.4</ele><time>2022-11-17T19:46:38.0000000+00:00</time></trkpt><trkpt lat="39.48052196" lon="-0.39560211"><ele>13.4</ele><time>2022-11-17T19:46:39.0000000+00:00</time></trkpt><trkpt lat="39.4805228" lon="-0.39556867"><ele>13.4</ele><time>2022-11-17T19:46:40.0000000+00:00</time></trkpt><trkpt lat="39.48052431" lon="-0.39555534"><ele>13.4</ele><time>2022-11-17T19:46:41.0000000+00:00</time></trkpt><trkpt lat="39.48052598" lon="-0.39554025"><ele>13.4</ele><time>2022-11-17T19:46:42.0000000+00:00</time></trkpt><trkpt lat="39.48052598" lon="-0.39552659"><ele>13.4</ele><time>2022-11-17T19:46:43.0000000+00:00</time></trkpt><trkpt lat="39.4805264" lon="-0.39551058"><ele>13.4</ele><time>2022-11-17T19:46:44.0000000+00:00</time></trkpt><trkpt lat="39.48052447" lon="-0.39551041"><ele>13.4</ele><time>2022-11-17T19:46:45.0000000+00:00</time></trkpt><trkpt lat="39.48052104" lon="-0.39556959"><ele>13.4</ele><time>2022-11-17T19:46:46.0000000+00:00</time></trkpt><trkpt lat="39.48051693" lon="-0.39556372"><ele>13.4</ele><time>2022-11-17T19:46:47.0000000+00:00</time></trkpt><trkpt lat="39.48051299" lon="-0.39557889"><ele>13.4</ele><time>2022-11-17T19:46:48.0000000+00:00</time></trkpt><trkpt lat="39.48051115" lon="-0.39559549"><ele>13.4</ele><time>2022-11-17T19:46:49.0000000+00:00</time></trkpt><trkpt lat="39.48050922" lon="-0.3956001"><ele>13.4</ele><time>2022-11-17T19:46:50.0000000+00:00</time></trkpt><trkpt lat="39.48050293" lon="-0.39561812"><ele>13.4</ele><time>2022-11-17T19:46:51.0000000+00:00</time></trkpt><trkpt lat="39.48049547" lon="-0.3955804"><ele>13.4</ele><time>2022-11-17T19:46:52.0000000+00:00</time></trkpt><trkpt lat="39.48049447" lon="-0.39556665"><ele>13.4</ele><time>2022-11-17T19:46:53.0000000+00:00</time></trkpt><trkpt lat="39.48049983" lon="-0.3955431"><ele>13.4</ele><time>2022-11-17T19:46:54.0000000+00:00</time></trkpt><trkpt lat="39.48049723" lon="-0.39552508"><ele>13.4</ele><time>2022-11-17T19:46:55.0000000+00:00</time></trkpt><trkpt lat="39.48048038" lon="-0.39551787"><ele>13.4</ele><time>2022-11-17T19:46:56.0000000+00:00</time></trkpt><trkpt lat="39.48046438" lon="-0.39551293"><ele>13.4</ele><time>2022-11-17T19:46:57.0000000+00:00</time></trkpt><trkpt lat="39.48045423" lon="-0.39550547"><ele>13.4</ele><time>2022-11-17T19:46:58.0000000+00:00</time></trkpt><trkpt lat="39.4804513" lon="-0.39550144"><ele>13.2</ele><time>2022-11-17T19:46:59.0000000+00:00</time></trkpt><trkpt lat="39.48044627" lon="-0.3954944"><ele>13.4</ele><time>2022-11-17T19:47:00.0000000+00:00</time></trkpt><trkpt lat="39.48043613" lon="-0.39548149"><ele>13.4</ele><time>2022-11-17T19:47:01.0000000+00:00</time></trkpt><trkpt lat="39.48042892" lon="-0.39546691"><ele>13.2</ele><time>2022-11-17T19:47:02.0000000+00:00</time></trkpt><trkpt lat="39.4804192" lon="-0.39545467"><ele>13.2</ele><time>2022-11-17T19:47:03.0000000+00:00</time></trkpt><trkpt lat="39.48040897" lon="-0.39542156"><ele>13.2</ele><time>2022-11-17T19:47:04.0000000+00:00</time></trkpt><trkpt lat="39.48040738" lon="-0.3953913"><ele>13.2</ele><time>2022-11-17T19:47:05.0000000+00:00</time></trkpt><trkpt lat="39.48041492" lon="-0.39530941"><ele>13.2</ele><time>2022-11-17T19:47:08.0000000+00:00</time></trkpt><trkpt lat="39.48040394" lon="-0.39530983"><ele>13.2</ele><time>2022-11-17T19:47:09.0000000+00:00</time></trkpt><trkpt lat="39.48040302" lon="-0.39528754"><ele>13.2</ele><time>2022-11-17T19:47:10.0000000+00:00</time></trkpt><trkpt lat="39.48039782" lon="-0.39527815"><ele>13.2</ele><time>2022-11-17T19:47:11.0000000+00:00</time></trkpt><trkpt lat="39.48040218" lon="-0.39526977"><ele>13.2</ele><time>2022-11-17T19:47:12.0000000+00:00</time></trkpt><trkpt lat="39.4803917" lon="-0.39524429"><ele>13.2</ele><time>2022-11-17T19:47:13.0000000+00:00</time></trkpt><trkpt lat="39.48036321" lon="-0.39522668"><ele>13.2</ele><time>2022-11-17T19:47:14.0000000+00:00</time></trkpt><trkpt lat="39.48033848" lon="-0.39524521"><ele>13.2</ele><time>2022-11-17T19:47:15.0000000+00:00</time></trkpt><trkpt lat="39.4803192" lon="-0.39523733"><ele>13.2</ele><time>2022-11-17T19:47:16.0000000+00:00</time></trkpt><trkpt lat="39.48030529" lon="-0.39524018"><ele>13.2</ele><time>2022-11-17T19:47:17.0000000+00:00</time></trkpt><trkpt lat="39.48031107" lon="-0.3952173"><ele>13.2</ele><time>2022-11-17T19:47:18.0000000+00:00</time></trkpt><trkpt lat="39.48031509" lon="-0.3952033"><ele>13.2</ele><time>2022-11-17T19:47:19.0000000+00:00</time></trkpt><trkpt lat="39.48031761" lon="-0.39520958"><ele>13.2</ele><time>2022-11-17T19:47:20.0000000+00:00</time></trkpt><trkpt lat="39.48033119" lon="-0.3952059"><ele>13.0</ele><time>2022-11-17T19:47:22.0000000+00:00</time></trkpt><trkpt lat="39.48034217" lon="-0.39519257"><ele>13.0</ele><time>2022-11-17T19:47:23.0000000+00:00</time></trkpt><trkpt lat="39.48036589" lon="-0.39521922"><ele>13.0</ele><time>2022-11-17T19:47:24.0000000+00:00</time></trkpt><trkpt lat="39.48038206" lon="-0.39529173"><ele>13.0</ele><time>2022-11-17T19:47:25.0000000+00:00</time></trkpt><trkpt lat="39.48037771" lon="-0.39522886"><ele>13.0</ele><time>2022-11-17T19:47:26.0000000+00:00</time></trkpt><trkpt lat="39.48038735" lon="-0.39525828"><ele>13.0</ele><time>2022-11-17T19:47:27.0000000+00:00</time></trkpt><trkpt lat="39.48039464" lon="-0.39527572"><ele>13.0</ele><time>2022-11-17T19:47:29.0000000+00:00</time></trkpt><trkpt lat="39.48039841" lon="-0.39531729"><ele>13.0</ele><time>2022-11-17T19:47:30.0000000+00:00</time></trkpt><trkpt lat="39.48039481" lon="-0.39529743"><ele>13.0</ele><time>2022-11-17T19:47:31.0000000+00:00</time></trkpt><trkpt lat="39.48039346" lon="-0.39527019"><ele>13.0</ele><time>2022-11-17T19:47:32.0000000+00:00</time></trkpt><trkpt lat="39.48042557" lon="-0.39521788"><ele>13.0</ele><time>2022-11-17T19:47:37.0000000+00:00</time></trkpt><trkpt lat="39.48042641" lon="-0.39519634"><ele>13.0</ele><time>2022-11-17T19:47:38.0000000+00:00</time></trkpt><trkpt lat="39.48042456" lon="-0.39518855"><ele>13.0</ele><time>2022-11-17T19:47:39.0000000+00:00</time></trkpt><trkpt lat="39.48041626" lon="-0.39522895"><ele>13.0</ele><time>2022-11-17T19:47:40.0000000+00:00</time></trkpt><trkpt lat="39.48040327" lon="-0.39525418"><ele>13.0</ele><time>2022-11-17T19:47:41.0000000+00:00</time></trkpt><trkpt lat="39.48039967" lon="-0.39526155"><ele>13.0</ele><time>2022-11-17T19:47:42.0000000+00:00</time></trkpt><trkpt lat="39.48042733" lon="-0.39533783"><ele>13.0</ele><time>2022-11-17T19:47:43.0000000+00:00</time></trkpt><trkpt lat="39.48042708" lon="-0.39533204"><ele>13.0</ele><time>2022-11-17T19:47:44.0000000+00:00</time></trkpt><trkpt lat="39.48039204" lon="-0.39545593"><ele>13.0</ele><time>2022-11-17T19:47:54.0000000+00:00</time></trkpt><trkpt lat="39.48035155" lon="-0.39547051"><ele>13.0</ele><time>2022-11-17T19:47:55.0000000+00:00</time></trkpt><trkpt lat="39.48034309" lon="-0.39547605"><ele>13.0</ele><time>2022-11-17T19:47:56.0000000+00:00</time></trkpt><trkpt lat="39.48034795" lon="-0.39551008"><ele>13.0</ele><time>2022-11-17T19:47:57.0000000+00:00</time></trkpt><trkpt lat="39.48034686" lon="-0.39551737"><ele>13.0</ele><time>2022-11-17T19:47:58.0000000+00:00</time></trkpt><trkpt lat="39.48039422" lon="-0.39561309"><ele>13.0</ele><time>2022-11-17T19:47:59.0000000+00:00</time></trkpt><trkpt lat="39.48041593" lon="-0.39565768"><ele>13.0</ele><time>2022-11-17T19:48:00.0000000+00:00</time></trkpt><trkpt lat="39.48041861" lon="-0.39564494"><ele>13.0</ele><time>2022-11-17T19:48:01.0000000+00:00</time></trkpt><trkpt lat="39.48042825" lon="-0.39565316"><ele>13.0</ele><time>2022-11-17T19:48:02.0000000+00:00</time></trkpt><trkpt lat="39.48043269" lon="-0.39563346"><ele>13.0</ele><time>2022-11-17T19:48:03.0000000+00:00</time></trkpt><trkpt lat="39.48043864" lon="-0.39561384"><ele>13.0</ele><time>2022-11-17T19:48:04.0000000+00:00</time></trkpt><trkpt lat="39.48045231" lon="-0.3956058"><ele>13.2</ele><time>2022-11-17T19:48:05.0000000+00:00</time></trkpt><trkpt lat="39.48044711" lon="-0.39560412"><ele>13.2</ele><time>2022-11-17T19:48:06.0000000+00:00</time></trkpt><trkpt lat="39.48045013" lon="-0.39559138"><ele>13.2</ele><time>2022-11-17T19:48:07.0000000+00:00</time></trkpt><trkpt lat="39.48043797" lon="-0.3955856"><ele>13.2</ele><time>2022-11-17T19:48:08.0000000+00:00</time></trkpt><trkpt lat="39.48042582" lon="-0.39558778"><ele>13.4</ele><time>2022-11-17T19:48:09.0000000+00:00</time></trkpt><trkpt lat="39.48042582" lon="-0.39557629"><ele>13.4</ele><time>2022-11-17T19:48:10.0000000+00:00</time></trkpt><trkpt lat="39.48042641" lon="-0.39556808"><ele>13.2</ele><time>2022-11-17T19:48:11.0000000+00:00</time></trkpt><trkpt lat="39.48043454" lon="-0.39555668"><ele>13.2</ele><time>2022-11-17T19:48:12.0000000+00:00</time></trkpt><trkpt lat="39.48045239" lon="-0.39553103"><ele>13.0</ele><time>2022-11-17T19:48:15.0000000+00:00</time></trkpt><trkpt lat="39.48044644" lon="-0.39550848"><ele>13.0</ele><time>2022-11-17T19:48:16.0000000+00:00</time></trkpt><trkpt lat="39.48043169" lon="-0.39547864"><ele>13.0</ele><time>2022-11-17T19:48:17.0000000+00:00</time></trkpt><trkpt lat="39.48042029" lon="-0.3954602"><ele>13.0</ele><time>2022-11-17T19:48:18.0000000+00:00</time></trkpt><trkpt lat="39.48041366" lon="-0.39544964"><ele>13.0</ele><time>2022-11-17T19:48:19.0000000+00:00</time></trkpt><trkpt lat="39.48043177" lon="-0.39536507"><ele>12.8</ele><time>2022-11-17T19:48:26.0000000+00:00</time></trkpt><trkpt lat="39.48041098" lon="-0.39533305"><ele>12.8</ele><time>2022-11-17T19:48:27.0000000+00:00</time></trkpt><trkpt lat="39.48036388" lon="-0.39531939"><ele>12.8</ele><time>2022-11-17T19:48:28.0000000+00:00</time></trkpt><trkpt lat="39.48033806" lon="-0.39531394"><ele>12.8</ele><time>2022-11-17T19:48:29.0000000+00:00</time></trkpt><trkpt lat="39.48030956" lon="-0.39529366"><ele>12.8</ele><time>2022-11-17T19:48:30.0000000+00:00</time></trkpt><trkpt lat="39.48031585" lon="-0.39524856"><ele>12.8</ele><time>2022-11-17T19:48:31.0000000+00:00</time></trkpt><trkpt lat="39.4802985" lon="-0.39524018"><ele>12.8</ele><time>2022-11-17T19:48:32.0000000+00:00</time></trkpt><trkpt lat="39.48031669" lon="-0.3952328"><ele>12.8</ele><time>2022-11-17T19:48:33.0000000+00:00</time></trkpt><trkpt lat="39.48033026" lon="-0.3952489"><ele>12.8</ele><time>2022-11-17T19:48:34.0000000+00:00</time></trkpt><trkpt lat="39.48034108" lon="-0.39526541"><ele>12.8</ele><time>2022-11-17T19:48:35.0000000+00:00</time></trkpt><trkpt lat="39.48033244" lon="-0.39526826"><ele>12.8</ele><time>2022-11-17T19:48:36.0000000+00:00</time></trkpt><trkpt lat="39.48032188" lon="-0.39527723"><ele>13.0</ele><time>2022-11-17T19:48:37.0000000+00:00</time></trkpt><trkpt lat="39.48030897" lon="-0.39528427"><ele>13.0</ele><time>2022-11-17T19:48:38.0000000+00:00</time></trkpt><trkpt lat="39.48031266" lon="-0.39530371"><ele>13.0</ele><time>2022-11-17T19:48:39.0000000+00:00</time></trkpt><trkpt lat="39.48031476" lon="-0.39532551"><ele>13.0</ele><time>2022-11-17T19:48:40.0000000+00:00</time></trkpt><trkpt lat="39.48030847" lon="-0.39534965"><ele>13.2</ele><time>2022-11-17T19:48:41.0000000+00:00</time></trkpt><trkpt lat="39.48030571" lon="-0.39536901"><ele>13.2</ele><time>2022-11-17T19:48:42.0000000+00:00</time></trkpt><trkpt lat="39.4802985" lon="-0.39537898"><ele>13.2</ele><time>2022-11-17T19:48:43.0000000+00:00</time></trkpt><trkpt lat="39.48029288" lon="-0.39539407"><ele>13.0</ele><time>2022-11-17T19:48:44.0000000+00:00</time></trkpt><trkpt lat="39.48028291" lon="-0.3954043"><ele>13.0</ele><time>2022-11-17T19:48:45.0000000+00:00</time></trkpt><trkpt lat="39.48027469" lon="-0.39541159"><ele>13.0</ele><time>2022-11-17T19:48:46.0000000+00:00</time></trkpt><trkpt lat="39.48027637" lon="-0.39542726"><ele>13.2</ele><time>2022-11-17T19:48:47.0000000+00:00</time></trkpt><trkpt lat="39.4802669" lon="-0.39542676"><ele>13.2</ele><time>2022-11-17T19:48:48.0000000+00:00</time></trkpt><trkpt lat="39.48026782" lon="-0.39544017"><ele>13.4</ele><time>2022-11-17T19:48:49.0000000+00:00</time></trkpt><trkpt lat="39.48026631" lon="-0.39546347"><ele>13.4</ele><time>2022-11-17T19:48:50.0000000+00:00</time></trkpt><trkpt lat="39.48025768" lon="-0.39548552"><ele>13.4</ele><time>2022-11-17T19:48:51.0000000+00:00</time></trkpt><trkpt lat="39.48024754" lon="-0.39550915"><ele>13.2</ele><time>2022-11-17T19:48:52.0000000+00:00</time></trkpt><trkpt lat="39.48024485" lon="-0.39553262"><ele>13.0</ele><time>2022-11-17T19:48:53.0000000+00:00</time></trkpt><trkpt lat="39.48023379" lon="-0.39554612"><ele>13.0</ele><time>2022-11-17T19:48:54.0000000+00:00</time></trkpt><trkpt lat="39.48022272" lon="-0.39555802"><ele>12.8</ele><time>2022-11-17T19:48:55.0000000+00:00</time></trkpt><trkpt lat="39.48022055" lon="-0.39557512"><ele>12.8</ele><time>2022-11-17T19:48:56.0000000+00:00</time></trkpt><trkpt lat="39.48020873" lon="-0.3955918"><ele>12.8</ele><time>2022-11-17T19:48:57.0000000+00:00</time></trkpt><trkpt lat="39.48019498" lon="-0.3956089"><ele>12.8</ele><time>2022-11-17T19:48:58.0000000+00:00</time></trkpt><trkpt lat="39.48018836" lon="-0.39563027"><ele>12.8</ele><time>2022-11-17T19:48:59.0000000+00:00</time></trkpt><trkpt lat="39.4801835" lon="-0.39564746"><ele>13.0</ele><time>2022-11-17T19:49:00.0000000+00:00</time></trkpt><trkpt lat="39.48017755" lon="-0.39567394"><ele>13.0</ele><time>2022-11-17T19:49:01.0000000+00:00</time></trkpt><trkpt lat="39.48016053" lon="-0.39569666"><ele>13.0</ele><time>2022-11-17T19:49:02.0000000+00:00</time></trkpt><trkpt lat="39.48014301" lon="-0.39571309"><ele>13.0</ele><time>2022-11-17T19:49:03.0000000+00:00</time></trkpt><trkpt lat="39.48012684" lon="-0.3957234"><ele>13.0</ele><time>2022-11-17T19:49:04.0000000+00:00</time></trkpt><trkpt lat="39.48011502" lon="-0.39573127"><ele>13.0</ele><time>2022-11-17T19:49:05.0000000+00:00</time></trkpt><trkpt lat="39.48011166" lon="-0.39574645"><ele>13.0</ele><time>2022-11-17T19:49:06.0000000+00:00</time></trkpt><trkpt lat="39.480112" lon="-0.39575768"><ele>13.2</ele><time>2022-11-17T19:49:07.0000000+00:00</time></trkpt><trkpt lat="39.48010865" lon="-0.3957622"><ele>13.2</ele><time>2022-11-17T19:49:08.0000000+00:00</time></trkpt><trkpt lat="39.48010655" lon="-0.39577184"><ele>13.2</ele><time>2022-11-17T19:49:09.0000000+00:00</time></trkpt><trkpt lat="39.48011225" lon="-0.39579121"><ele>13.2</ele><time>2022-11-17T19:49:10.0000000+00:00</time></trkpt><trkpt lat="39.48011468" lon="-0.39580906"><ele>13.2</ele><time>2022-11-17T19:49:11.0000000+00:00</time></trkpt><trkpt lat="39.48011049" lon="-0.39581635"><ele>13.2</ele><time>2022-11-17T19:49:12.0000000+00:00</time></trkpt><trkpt lat="39.48009658" lon="-0.39581417"><ele>13.2</ele><time>2022-11-17T19:49:13.0000000+00:00</time></trkpt><trkpt lat="39.48009457" lon="-0.39582934"><ele>13.2</ele><time>2022-11-17T19:49:14.0000000+00:00</time></trkpt><trkpt lat="39.4800835" lon="-0.39584141"><ele>13.2</ele><time>2022-11-17T19:49:15.0000000+00:00</time></trkpt><trkpt lat="39.48007135" lon="-0.39585357"><ele>13.2</ele><time>2022-11-17T19:49:16.0000000+00:00</time></trkpt><trkpt lat="39.48006548" lon="-0.39586773"><ele>13.2</ele><time>2022-11-17T19:49:17.0000000+00:00</time></trkpt><trkpt lat="39.48005031" lon="-0.39587947"><ele>13.2</ele><time>2022-11-17T19:49:18.0000000+00:00</time></trkpt><trkpt lat="39.48003287" lon="-0.39588969"><ele>13.2</ele><time>2022-11-17T19:49:19.0000000+00:00</time></trkpt><trkpt lat="39.48001091" lon="-0.39589925"><ele>13.2</ele><time>2022-11-17T19:49:20.0000000+00:00</time></trkpt><trkpt lat="39.47999247" lon="-0.3959109"><ele>13.2</ele><time>2022-11-17T19:49:21.0000000+00:00</time></trkpt><trkpt lat="39.4799851" lon="-0.39592364"><ele>13.2</ele><time>2022-11-17T19:49:22.0000000+00:00</time></trkpt><trkpt lat="39.47998585" lon="-0.39593915"><ele>13.2</ele><time>2022-11-17T19:49:23.0000000+00:00</time></trkpt><trkpt lat="39.4799882" lon="-0.39595599"><ele>13.2</ele><time>2022-11-17T19:49:24.0000000+00:00</time></trkpt><trkpt lat="39.47999122" lon="-0.39596848"><ele>13.2</ele><time>2022-11-17T19:49:25.0000000+00:00</time></trkpt><trkpt lat="39.47999164" lon="-0.3959798"><ele>13.2</ele><time>2022-11-17T19:49:26.0000000+00:00</time></trkpt><trkpt lat="39.47998979" lon="-0.39598642"><ele>13.2</ele><time>2022-11-17T19:49:27.0000000+00:00</time></trkpt><trkpt lat="39.47998736" lon="-0.39599019"><ele>13.2</ele><time>2022-11-17T19:49:28.0000000+00:00</time></trkpt><trkpt lat="39.47998468" lon="-0.39600075"><ele>13.2</ele><time>2022-11-17T19:49:29.0000000+00:00</time></trkpt><trkpt lat="39.47997998" lon="-0.39601366"><ele>13.2</ele><time>2022-11-17T19:49:30.0000000+00:00</time></trkpt><trkpt lat="39.47996842" lon="-0.39603026"><ele>13.2</ele><time>2022-11-17T19:49:31.0000000+00:00</time></trkpt><trkpt lat="39.47996046" lon="-0.39605364"><ele>13.2</ele><time>2022-11-17T19:49:32.0000000+00:00</time></trkpt><trkpt lat="39.47996431" lon="-0.39609153"><ele>13.2</ele><time>2022-11-17T19:49:33.0000000+00:00</time></trkpt><trkpt lat="39.47996993" lon="-0.39612816"><ele>13.2</ele><time>2022-11-17T19:49:34.0000000+00:00</time></trkpt><trkpt lat="39.47996942" lon="-0.39615967"><ele>13.2</ele><time>2022-11-17T19:49:35.0000000+00:00</time></trkpt><trkpt lat="39.47996766" lon="-0.39618482"><ele>13.0</ele><time>2022-11-17T19:49:36.0000000+00:00</time></trkpt><trkpt lat="39.47995484" lon="-0.39619982"><ele>13.0</ele><time>2022-11-17T19:49:37.0000000+00:00</time></trkpt><trkpt lat="39.47995476" lon="-0.39622203"><ele>13.0</ele><time>2022-11-17T19:49:38.0000000+00:00</time></trkpt><trkpt lat="39.47995702" lon="-0.39624567"><ele>13.0</ele><time>2022-11-17T19:49:39.0000000+00:00</time></trkpt><trkpt lat="39.47994143" lon="-0.39625531"><ele>13.0</ele><time>2022-11-17T19:49:40.0000000+00:00</time></trkpt><trkpt lat="39.47992072" lon="-0.39626772"><ele>13.0</ele><time>2022-11-17T19:49:41.0000000+00:00</time></trkpt><trkpt lat="39.47990505" lon="-0.39628767"><ele>13.2</ele><time>2022-11-17T19:49:42.0000000+00:00</time></trkpt><trkpt lat="39.47989633" lon="-0.39630745"><ele>13.2</ele><time>2022-11-17T19:49:43.0000000+00:00</time></trkpt><trkpt lat="39.47989097" lon="-0.39632589"><ele>13.2</ele><time>2022-11-17T19:49:44.0000000+00:00</time></trkpt><trkpt lat="39.47988862" lon="-0.39634517"><ele>13.2</ele><time>2022-11-17T19:49:45.0000000+00:00</time></trkpt><trkpt lat="39.47988602" lon="-0.39635883"><ele>13.2</ele><time>2022-11-17T19:49:46.0000000+00:00</time></trkpt><trkpt lat="39.47987848" lon="-0.39637467"><ele>13.2</ele><time>2022-11-17T19:49:47.0000000+00:00</time></trkpt><trkpt lat="39.47987077" lon="-0.39638775"><ele>13.2</ele><time>2022-11-17T19:49:48.0000000+00:00</time></trkpt><trkpt lat="39.47986339" lon="-0.39639705"><ele>13.2</ele><time>2022-11-17T19:49:49.0000000+00:00</time></trkpt><trkpt lat="39.47985627" lon="-0.39640954"><ele>13.2</ele><time>2022-11-17T19:49:50.0000000+00:00</time></trkpt><trkpt lat="39.47985007" lon="-0.39641976"><ele>13.2</ele><time>2022-11-17T19:49:51.0000000+00:00</time></trkpt><trkpt lat="39.47984202" lon="-0.39642764"><ele>13.2</ele><time>2022-11-17T19:49:52.0000000+00:00</time></trkpt><trkpt lat="39.47982987" lon="-0.3964346"><ele>13.4</ele><time>2022-11-17T19:49:53.0000000+00:00</time></trkpt><trkpt lat="39.47981553" lon="-0.39644131"><ele>13.4</ele><time>2022-11-17T19:49:54.0000000+00:00</time></trkpt><trkpt lat="39.47980547" lon="-0.39645321"><ele>13.4</ele><time>2022-11-17T19:49:55.0000000+00:00</time></trkpt><trkpt lat="39.4798012" lon="-0.39645623"><ele>13.4</ele><time>2022-11-17T19:49:56.0000000+00:00</time></trkpt><trkpt lat="39.47979868" lon="-0.39646008"><ele>13.4</ele><time>2022-11-17T19:49:57.0000000+00:00</time></trkpt><trkpt lat="39.4798064" lon="-0.3964859"><ele>13.4</ele><time>2022-11-17T19:49:58.0000000+00:00</time></trkpt><trkpt lat="39.47981386" lon="-0.39652144"><ele>13.4</ele><time>2022-11-17T19:49:59.0000000+00:00</time></trkpt><trkpt lat="39.47982274" lon="-0.39654449"><ele>13.4</ele><time>2022-11-17T19:50:00.0000000+00:00</time></trkpt><trkpt lat="39.47981855" lon="-0.39655765"><ele>13.6</ele><time>2022-11-17T19:50:01.0000000+00:00</time></trkpt><trkpt lat="39.47981092" lon="-0.39657265"><ele>13.6</ele><time>2022-11-17T19:50:02.0000000+00:00</time></trkpt><trkpt lat="39.47980346" lon="-0.39659193"><ele>13.6</ele><time>2022-11-17T19:50:03.0000000+00:00</time></trkpt><trkpt lat="39.47979818" lon="-0.39660601"><ele>13.6</ele><time>2022-11-17T19:50:04.0000000+00:00</time></trkpt><trkpt lat="39.47978502" lon="-0.39661548"><ele>13.6</ele><time>2022-11-17T19:50:05.0000000+00:00</time></trkpt><trkpt lat="39.47977664" lon="-0.39661816"><ele>13.6</ele><time>2022-11-17T19:50:06.0000000+00:00</time></trkpt><trkpt lat="39.47977454" lon="-0.39662043"><ele>13.6</ele><time>2022-11-17T19:50:07.0000000+00:00</time></trkpt><trkpt lat="39.47977832" lon="-0.39663518"><ele>13.6</ele><time>2022-11-17T19:50:08.0000000+00:00</time></trkpt><trkpt lat="39.47977622" lon="-0.39664457"><ele>13.4</ele><time>2022-11-17T19:50:09.0000000+00:00</time></trkpt><trkpt lat="39.47976507" lon="-0.39665647"><ele>13.4</ele><time>2022-11-17T19:50:10.0000000+00:00</time></trkpt><trkpt lat="39.4797546" lon="-0.39666644"><ele>13.2</ele><time>2022-11-17T19:50:11.0000000+00:00</time></trkpt><trkpt lat="39.4797349" lon="-0.39667516"><ele>13.2</ele><time>2022-11-17T19:50:12.0000000+00:00</time></trkpt><trkpt lat="39.47971579" lon="-0.39668128"><ele>13.2</ele><time>2022-11-17T19:50:13.0000000+00:00</time></trkpt><trkpt lat="39.47969567" lon="-0.39668329"><ele>13.2</ele><time>2022-11-17T19:50:14.0000000+00:00</time></trkpt><trkpt lat="39.47968343" lon="-0.39668128"><ele>13.2</ele><time>2022-11-17T19:50:15.0000000+00:00</time></trkpt><trkpt lat="39.4796774" lon="-0.39668304"><ele>13.2</ele><time>2022-11-17T19:50:16.0000000+00:00</time></trkpt><trkpt lat="39.47966667" lon="-0.39668614"><ele>13.0</ele><time>2022-11-17T19:50:17.0000000+00:00</time></trkpt><trkpt lat="39.47965938" lon="-0.3966962"><ele>13.0</ele><time>2022-11-17T19:50:18.0000000+00:00</time></trkpt><trkpt lat="39.47965133" lon="-0.39669662"><ele>13.0</ele><time>2022-11-17T19:50:19.0000000+00:00</time></trkpt><trkpt lat="39.47964831" lon="-0.39670123"><ele>13.0</ele><time>2022-11-17T19:50:20.0000000+00:00</time></trkpt><trkpt lat="39.47964882" lon="-0.39670559"><ele>13.0</ele><time>2022-11-17T19:50:21.0000000+00:00</time></trkpt><trkpt lat="39.47965435" lon="-0.39670793"><ele>12.8</ele><time>2022-11-17T19:50:22.0000000+00:00</time></trkpt><trkpt lat="39.47965418" lon="-0.39670877"><ele>12.8</ele><time>2022-11-17T19:50:23.0000000+00:00</time></trkpt><trkpt lat="39.47965376" lon="-0.39670701"><ele>12.8</ele><time>2022-11-17T19:50:24.0000000+00:00</time></trkpt><trkpt lat="39.47964211" lon="-0.39670802"><ele>12.8</ele><time>2022-11-17T19:50:25.0000000+00:00</time></trkpt><trkpt lat="39.47963985" lon="-0.39670844"><ele>12.8</ele><time>2022-11-17T19:50:26.0000000+00:00</time></trkpt><trkpt lat="39.47963985" lon="-0.3967086"><ele>12.8</ele><time>2022-11-17T19:50:27.0000000+00:00</time></trkpt><trkpt lat="39.47964672" lon="-0.3966879"><ele>12.8</ele><time>2022-11-17T19:50:28.0000000+00:00</time></trkpt><trkpt lat="39.47966055" lon="-0.39667985"><ele>12.8</ele><time>2022-11-17T19:50:29.0000000+00:00</time></trkpt><trkpt lat="39.47966499" lon="-0.3966765"><ele>12.8</ele><time>2022-11-17T19:50:30.0000000+00:00</time></trkpt><trkpt lat="39.47966516" lon="-0.39667063"><ele>12.8</ele><time>2022-11-17T19:50:31.0000000+00:00</time></trkpt><trkpt lat="39.4796603" lon="-0.39666418"><ele>12.8</ele><time>2022-11-17T19:50:32.0000000+00:00</time></trkpt><trkpt lat="39.47965871" lon="-0.3966677"><ele>12.8</ele><time>2022-11-17T19:50:33.0000000+00:00</time></trkpt><trkpt lat="39.47966189" lon="-0.3966817"><ele>12.8</ele><time>2022-11-17T19:50:34.0000000+00:00</time></trkpt><trkpt lat="39.47966038" lon="-0.39670466"><ele>12.8</ele><time>2022-11-17T19:50:35.0000000+00:00</time></trkpt><trkpt lat="39.47965611" lon="-0.39670961"><ele>12.6</ele><time>2022-11-17T19:50:36.0000000+00:00</time></trkpt><trkpt lat="39.47964555" lon="-0.39670886"><ele>12.6</ele><time>2022-11-17T19:50:37.0000000+00:00</time></trkpt><trkpt lat="39.47963038" lon="-0.39670701"><ele>12.6</ele><time>2022-11-17T19:50:38.0000000+00:00</time></trkpt><trkpt lat="39.4796116" lon="-0.39669544"><ele>12.4</ele><time>2022-11-17T19:50:39.0000000+00:00</time></trkpt><trkpt lat="39.479595" lon="-0.39668991"><ele>12.4</ele><time>2022-11-17T19:50:40.0000000+00:00</time></trkpt><trkpt lat="39.47958729" lon="-0.39668472"><ele>12.4</ele><time>2022-11-17T19:50:41.0000000+00:00</time></trkpt><trkpt lat="39.47957765" lon="-0.39667172"><ele>12.4</ele><time>2022-11-17T19:50:42.0000000+00:00</time></trkpt><trkpt lat="39.4795717" lon="-0.39666678"><ele>12.4</ele><time>2022-11-17T19:50:43.0000000+00:00</time></trkpt><trkpt lat="39.47956793" lon="-0.39666016"><ele>12.4</ele><time>2022-11-17T19:50:44.0000000+00:00</time></trkpt><trkpt lat="39.47956634" lon="-0.39666175"><ele>12.4</ele><time>2022-11-17T19:50:45.0000000+00:00</time></trkpt><trkpt lat="39.47955494" lon="-0.39666292"><ele>12.4</ele><time>2022-11-17T19:50:46.0000000+00:00</time></trkpt><trkpt lat="39.47955553" lon="-0.39667902"><ele>12.4</ele><time>2022-11-17T19:50:47.0000000+00:00</time></trkpt><trkpt lat="39.47955251" lon="-0.396677"><ele>12.4</ele><time>2022-11-17T19:50:48.0000000+00:00</time></trkpt><trkpt lat="39.47955787" lon="-0.3966827"><ele>12.4</ele><time>2022-11-17T19:50:49.0000000+00:00</time></trkpt><trkpt lat="39.47956516" lon="-0.39668472"><ele>12.4</ele><time>2022-11-17T19:50:50.0000000+00:00</time></trkpt><trkpt lat="39.47957128" lon="-0.39669016"><ele>12.4</ele><time>2022-11-17T19:50:51.0000000+00:00</time></trkpt><trkpt lat="39.47957732" lon="-0.39669561"><ele>12.4</ele><time>2022-11-17T19:50:52.0000000+00:00</time></trkpt><trkpt lat="39.47957371" lon="-0.39670408"><ele>12.4</ele><time>2022-11-17T19:50:53.0000000+00:00</time></trkpt><trkpt lat="39.47957162" lon="-0.39671187"><ele>12.4</ele><time>2022-11-17T19:50:54.0000000+00:00</time></trkpt><trkpt lat="39.47957045" lon="-0.3967138"><ele>12.4</ele><time>2022-11-17T19:50:55.0000000+00:00</time></trkpt><trkpt lat="39.47956558" lon="-0.39671774"><ele>12.4</ele><time>2022-11-17T19:50:56.0000000+00:00</time></trkpt><trkpt lat="39.47956315" lon="-0.39672495"><ele>12.4</ele><time>2022-11-17T19:50:57.0000000+00:00</time></trkpt><trkpt lat="39.47954211" lon="-0.39673031"><ele>12.4</ele><time>2022-11-17T19:50:58.0000000+00:00</time></trkpt><trkpt lat="39.47952912" lon="-0.39673459"><ele>12.4</ele><time>2022-11-17T19:50:59.0000000+00:00</time></trkpt><trkpt lat="39.47951881" lon="-0.39673551"><ele>12.6</ele><time>2022-11-17T19:51:00.0000000+00:00</time></trkpt><trkpt lat="39.47950607" lon="-0.39672948"><ele>12.6</ele><time>2022-11-17T19:51:01.0000000+00:00</time></trkpt><trkpt lat="39.47937381" lon="-0.39554067"><ele>12.2</ele><time>2022-11-17T19:53:23.0000000+00:00</time></trkpt><trkpt lat="39.47918731" lon="-0.39563111"><ele>12.2</ele><time>2022-11-17T19:53:24.0000000+00:00</time></trkpt><trkpt lat="39.4791687" lon="-0.39562088"><ele>12.0</ele><time>2022-11-17T19:53:25.0000000+00:00</time></trkpt><trkpt lat="39.47922637" lon="-0.39563078"><ele>12.0</ele><time>2022-11-17T19:53:26.0000000+00:00</time></trkpt><trkpt lat="39.47924808" lon="-0.39565349"><ele>12.0</ele><time>2022-11-17T19:53:27.0000000+00:00</time></trkpt><trkpt lat="39.47922712" lon="-0.39565274"><ele>12.0</ele><time>2022-11-17T19:53:28.0000000+00:00</time></trkpt><trkpt lat="39.47921706" lon="-0.39564125"><ele>12.0</ele><time>2022-11-17T19:53:29.0000000+00:00</time></trkpt><trkpt lat="39.47920902" lon="-0.39563371"><ele>12.0</ele><time>2022-11-17T19:53:30.0000000+00:00</time></trkpt><trkpt lat="39.47920223" lon="-0.39562491"><ele>12.0</ele><time>2022-11-17T19:53:31.0000000+00:00</time></trkpt><trkpt lat="39.47920734" lon="-0.39562256"><ele>12.0</ele><time>2022-11-17T19:53:32.0000000+00:00</time></trkpt><trkpt lat="39.47917658" lon="-0.39565785"><ele>12.0</ele><time>2022-11-17T19:53:33.0000000+00:00</time></trkpt><trkpt lat="39.47914607" lon="-0.39569297"><ele>12.0</ele><time>2022-11-17T19:53:34.0000000+00:00</time></trkpt><trkpt lat="39.47915152" lon="-0.39569657"><ele>12.0</ele><time>2022-11-17T19:53:35.0000000+00:00</time></trkpt><trkpt lat="39.47915546" lon="-0.39569498"><ele>12.0</ele><time>2022-11-17T19:53:36.0000000+00:00</time></trkpt><trkpt lat="39.47915973" lon="-0.3957006"><ele>12.0</ele><time>2022-11-17T19:53:37.0000000+00:00</time></trkpt><trkpt lat="39.4791635" lon="-0.39570889"><ele>12.0</ele><time>2022-11-17T19:53:38.0000000+00:00</time></trkpt><trkpt lat="39.4791708" lon="-0.39571803"><ele>12.0</ele><time>2022-11-17T19:53:39.0000000+00:00</time></trkpt><trkpt lat="39.47918446" lon="-0.39573773"><ele>12.0</ele><time>2022-11-17T19:53:40.0000000+00:00</time></trkpt><trkpt lat="39.4791982" lon="-0.39575567"><ele>12.0</ele><time>2022-11-17T19:53:41.0000000+00:00</time></trkpt><trkpt lat="39.47921153" lon="-0.39577159"><ele>12.0</ele><time>2022-11-17T19:53:42.0000000+00:00</time></trkpt><trkpt lat="39.47922369" lon="-0.39578509"><ele>12.0</ele><time>2022-11-17T19:53:43.0000000+00:00</time></trkpt><trkpt lat="39.47919603" lon="-0.39575298"><ele>12.0</ele><time>2022-11-17T19:53:44.0000000+00:00</time></trkpt><trkpt lat="39.47921564" lon="-0.39576137"><ele>12.0</ele><time>2022-11-17T19:53:45.0000000+00:00</time></trkpt><trkpt lat="39.47921187" lon="-0.39574762"><ele>12.0</ele><time>2022-11-17T19:53:46.0000000+00:00</time></trkpt><trkpt lat="39.47920516" lon="-0.39573588"><ele>12.0</ele><time>2022-11-17T19:53:47.0000000+00:00</time></trkpt><trkpt lat="39.47919753" lon="-0.39572457"><ele>12.0</ele><time>2022-11-17T19:53:48.0000000+00:00</time></trkpt><trkpt lat="39.47918898" lon="-0.39570764"><ele>12.0</ele><time>2022-11-17T19:53:49.0000000+00:00</time></trkpt><trkpt lat="39.47918354" lon="-0.39569859"><ele>12.0</ele><time>2022-11-17T19:53:50.0000000+00:00</time></trkpt><trkpt lat="39.47917884" lon="-0.39568937"><ele>12.0</ele><time>2022-11-17T19:53:51.0000000+00:00</time></trkpt><trkpt lat="39.47916283" lon="-0.39568383"><ele>12.0</ele><time>2022-11-17T19:53:52.0000000+00:00</time></trkpt><trkpt lat="39.47915194" lon="-0.39566405"><ele>12.0</ele><time>2022-11-17T19:53:54.0000000+00:00</time></trkpt><trkpt lat="39.47915261" lon="-0.39566305"><ele>12.0</ele><time>2022-11-17T19:53:55.0000000+00:00</time></trkpt><trkpt lat="39.47915361" lon="-0.39565827"><ele>12.0</ele><time>2022-11-17T19:53:56.0000000+00:00</time></trkpt><trkpt lat="39.4791578" lon="-0.39565525"><ele>12.0</ele><time>2022-11-17T19:53:57.0000000+00:00</time></trkpt><trkpt lat="39.47916535" lon="-0.39565492"><ele>12.0</ele><time>2022-11-17T19:53:58.0000000+00:00</time></trkpt><trkpt lat="39.4791765" lon="-0.39564737"><ele>12.0</ele><time>2022-11-17T19:53:59.0000000+00:00</time></trkpt><trkpt lat="39.47917323" lon="-0.3956296"><ele>12.0</ele><time>2022-11-17T19:54:00.0000000+00:00</time></trkpt><trkpt lat="39.4791827" lon="-0.39561401"><ele>12.0</ele><time>2022-11-17T19:54:01.0000000+00:00</time></trkpt><trkpt lat="39.47919393" lon="-0.39560244"><ele>12.0</ele><time>2022-11-17T19:54:02.0000000+00:00</time></trkpt><trkpt lat="39.47918823" lon="-0.39558032"><ele>12.0</ele><time>2022-11-17T19:54:03.0000000+00:00</time></trkpt><trkpt lat="39.47919603" lon="-0.39557051"><ele>12.0</ele><time>2022-11-17T19:54:04.0000000+00:00</time></trkpt><trkpt lat="39.47920726" lon="-0.3955654"><ele>12.0</ele><time>2022-11-17T19:54:05.0000000+00:00</time></trkpt><trkpt lat="39.47921581" lon="-0.39556087"><ele>12.0</ele><time>2022-11-17T19:54:06.0000000+00:00</time></trkpt><trkpt lat="39.47921564" lon="-0.39554939"><ele>12.0</ele><time>2022-11-17T19:54:07.0000000+00:00</time></trkpt><trkpt lat="39.47922234" lon="-0.39554168"><ele>12.0</ele><time>2022-11-17T19:54:08.0000000+00:00</time></trkpt><trkpt lat="39.47922519" lon="-0.39553061"><ele>12.0</ele><time>2022-11-17T19:54:09.0000000+00:00</time></trkpt><trkpt lat="39.4792319" lon="-0.39551494"><ele>12.0</ele><time>2022-11-17T19:54:10.0000000+00:00</time></trkpt><trkpt lat="39.47923794" lon="-0.39550597"><ele>12.0</ele><time>2022-11-17T19:54:11.0000000+00:00</time></trkpt><trkpt lat="39.47924556" lon="-0.39550069"><ele>12.0</ele><time>2022-11-17T19:54:12.0000000+00:00</time></trkpt><trkpt lat="39.47926953" lon="-0.39549314"><ele>12.0</ele><time>2022-11-17T19:54:13.0000000+00:00</time></trkpt><trkpt lat="39.47928915" lon="-0.39548242"><ele>12.0</ele><time>2022-11-17T19:54:14.0000000+00:00</time></trkpt><trkpt lat="39.47929518" lon="-0.39547387"><ele>12.0</ele><time>2022-11-17T19:54:15.0000000+00:00</time></trkpt><trkpt lat="39.4793039" lon="-0.39546372"><ele>12.0</ele><time>2022-11-17T19:54:16.0000000+00:00</time></trkpt><trkpt lat="39.47931144" lon="-0.39546741"><ele>12.0</ele><time>2022-11-17T19:54:17.0000000+00:00</time></trkpt><trkpt lat="39.47932058" lon="-0.39547948"><ele>12.0</ele><time>2022-11-17T19:54:18.0000000+00:00</time></trkpt><trkpt lat="39.47932611" lon="-0.3954804"><ele>12.0</ele><time>2022-11-17T19:54:19.0000000+00:00</time></trkpt><trkpt lat="39.47932553" lon="-0.39546708"><ele>12.0</ele><time>2022-11-17T19:54:20.0000000+00:00</time></trkpt><trkpt lat="39.47931086" lon="-0.39545132"><ele>12.0</ele><time>2022-11-17T19:54:21.0000000+00:00</time></trkpt><trkpt lat="39.47928437" lon="-0.39543917"><ele>12.0</ele><time>2022-11-17T19:54:22.0000000+00:00</time></trkpt><trkpt lat="39.47926325" lon="-0.39542584"><ele>12.0</ele><time>2022-11-17T19:54:23.0000000+00:00</time></trkpt><trkpt lat="39.47924716" lon="-0.39542181"><ele>12.0</ele><time>2022-11-17T19:54:24.0000000+00:00</time></trkpt><trkpt lat="39.47924053" lon="-0.39541913"><ele>12.4</ele><time>2022-11-17T19:54:25.0000000+00:00</time></trkpt><trkpt lat="39.4792345" lon="-0.39542131"><ele>12.6</ele><time>2022-11-17T19:54:26.0000000+00:00</time></trkpt><trkpt lat="39.47922695" lon="-0.3954214"><ele>12.8</ele><time>2022-11-17T19:54:27.0000000+00:00</time></trkpt><trkpt lat="39.47921765" lon="-0.39542433"><ele>12.8</ele><time>2022-11-17T19:54:28.0000000+00:00</time></trkpt><trkpt lat="39.47920776" lon="-0.39542827"><ele>12.8</ele><time>2022-11-17T19:54:29.0000000+00:00</time></trkpt><trkpt lat="39.4791941" lon="-0.39543548"><ele>12.6</ele><time>2022-11-17T19:54:30.0000000+00:00</time></trkpt><trkpt lat="39.47918605" lon="-0.39543933"><ele>12.4</ele><time>2022-11-17T19:54:31.0000000+00:00</time></trkpt><trkpt lat="39.47917624" lon="-0.3954421"><ele>12.2</ele><time>2022-11-17T19:54:32.0000000+00:00</time></trkpt><trkpt lat="39.479163" lon="-0.39544302"><ele>12.0</ele><time>2022-11-17T19:54:33.0000000+00:00</time></trkpt><trkpt lat="39.47915412" lon="-0.3954452"><ele>12.0</ele><time>2022-11-17T19:54:34.0000000+00:00</time></trkpt><trkpt lat="39.47914397" lon="-0.39544579"><ele>11.6</ele><time>2022-11-17T19:54:35.0000000+00:00</time></trkpt><trkpt lat="39.47912696" lon="-0.39546666"><ele>11.4</ele><time>2022-11-17T19:54:36.0000000+00:00</time></trkpt><trkpt lat="39.47912755" lon="-0.39548753"><ele>11.4</ele><time>2022-11-17T19:54:37.0000000+00:00</time></trkpt><trkpt lat="39.47913467" lon="-0.39550035"><ele>11.4</ele><time>2022-11-17T19:54:38.0000000+00:00</time></trkpt><trkpt lat="39.47914456" lon="-0.39551217"><ele>11.2</ele><time>2022-11-17T19:54:39.0000000+00:00</time></trkpt><trkpt lat="39.47914045" lon="-0.39551091"><ele>11.4</ele><time>2022-11-17T19:54:40.0000000+00:00</time></trkpt><trkpt lat="39.47913157" lon="-0.39550756"><ele>11.4</ele><time>2022-11-17T19:54:41.0000000+00:00</time></trkpt><trkpt lat="39.47912243" lon="-0.3955006"><ele>11.4</ele><time>2022-11-17T19:54:42.0000000+00:00</time></trkpt><trkpt lat="39.47911229" lon="-0.39549348"><ele>11.4</ele><time>2022-11-17T19:54:43.0000000+00:00</time></trkpt><trkpt lat="39.47910072" lon="-0.39548962"><ele>11.4</ele><time>2022-11-17T19:54:44.0000000+00:00</time></trkpt><trkpt lat="39.47908748" lon="-0.39548728"><ele>11.4</ele><time>2022-11-17T19:54:45.0000000+00:00</time></trkpt><trkpt lat="39.47907499" lon="-0.39548627"><ele>11.2</ele><time>2022-11-17T19:54:46.0000000+00:00</time></trkpt><trkpt lat="39.47906854" lon="-0.39548351"><ele>11.2</ele><time>2022-11-17T19:54:47.0000000+00:00</time></trkpt><trkpt lat="39.47906208" lon="-0.39548208"><ele>11.2</ele><time>2022-11-17T19:54:48.0000000+00:00</time></trkpt><trkpt lat="39.47905571" lon="-0.39548351"><ele>11.2</ele><time>2022-11-17T19:54:49.0000000+00:00</time></trkpt><trkpt lat="39.47904934" lon="-0.39548175"><ele>11.2</ele><time>2022-11-17T19:54:50.0000000+00:00</time></trkpt><trkpt lat="39.47904582" lon="-0.39547881"><ele>11.4</ele><time>2022-11-17T19:54:51.0000000+00:00</time></trkpt><trkpt lat="39.47904373" lon="-0.39547236"><ele>11.4</ele><time>2022-11-17T19:54:52.0000000+00:00</time></trkpt><trkpt lat="39.47904138" lon="-0.39546875"><ele>11.4</ele><time>2022-11-17T19:54:53.0000000+00:00</time></trkpt><trkpt lat="39.47903425" lon="-0.39546984"><ele>11.4</ele><time>2022-11-17T19:54:54.0000000+00:00</time></trkpt><trkpt lat="39.47902713" lon="-0.39546917"><ele>11.4</ele><time>2022-11-17T19:54:55.0000000+00:00</time></trkpt><trkpt lat="39.47901456" lon="-0.39547185"><ele>11.4</ele><time>2022-11-17T19:54:56.0000000+00:00</time></trkpt><trkpt lat="39.47900718" lon="-0.39547194"><ele>11.4</ele><time>2022-11-17T19:54:57.0000000+00:00</time></trkpt><trkpt lat="39.4789993" lon="-0.39547429"><ele>11.4</ele><time>2022-11-17T19:54:58.0000000+00:00</time></trkpt><trkpt lat="39.47899184" lon="-0.395482"><ele>11.4</ele><time>2022-11-17T19:54:59.0000000+00:00</time></trkpt><trkpt lat="39.47898271" lon="-0.39549138"><ele>11.4</ele><time>2022-11-17T19:55:00.0000000+00:00</time></trkpt><trkpt lat="39.4789667" lon="-0.39550714"><ele>11.4</ele><time>2022-11-17T19:55:01.0000000+00:00</time></trkpt><trkpt lat="39.4789563" lon="-0.39551787"><ele>11.4</ele><time>2022-11-17T19:55:02.0000000+00:00</time></trkpt><trkpt lat="39.47894884" lon="-0.39551921"><ele>11.4</ele><time>2022-11-17T19:55:03.0000000+00:00</time></trkpt><trkpt lat="39.47893736" lon="-0.39552122"><ele>11.4</ele><time>2022-11-17T19:55:04.0000000+00:00</time></trkpt><trkpt lat="39.47892705" lon="-0.39551561"><ele>11.4</ele><time>2022-11-17T19:55:05.0000000+00:00</time></trkpt><trkpt lat="39.47891649" lon="-0.39550907"><ele>11.4</ele><time>2022-11-17T19:55:06.0000000+00:00</time></trkpt><trkpt lat="39.4789004" lon="-0.39550371"><ele>11.4</ele><time>2022-11-17T19:55:07.0000000+00:00</time></trkpt><trkpt lat="39.47888338" lon="-0.39550446"><ele>11.2</ele><time>2022-11-17T19:55:08.0000000+00:00</time></trkpt><trkpt lat="39.47887341" lon="-0.39550823"><ele>11.2</ele><time>2022-11-17T19:55:09.0000000+00:00</time></trkpt><trkpt lat="39.47886502" lon="-0.39551402"><ele>11.2</ele><time>2022-11-17T19:55:10.0000000+00:00</time></trkpt><trkpt lat="39.47885815" lon="-0.39552097"><ele>11.2</ele><time>2022-11-17T19:55:11.0000000+00:00</time></trkpt><trkpt lat="39.47884675" lon="-0.39552894"><ele>11.2</ele><time>2022-11-17T19:55:12.0000000+00:00</time></trkpt><trkpt lat="39.47884181" lon="-0.39554168"><ele>11.2</ele><time>2022-11-17T19:55:13.0000000+00:00</time></trkpt><trkpt lat="39.47883259" lon="-0.39555182"><ele>11.0</ele><time>2022-11-17T19:55:14.0000000+00:00</time></trkpt><trkpt lat="39.47882094" lon="-0.3955623"><ele>11.0</ele><time>2022-11-17T19:55:15.0000000+00:00</time></trkpt><trkpt lat="39.4788092" lon="-0.39557537"><ele>11.0</ele><time>2022-11-17T19:55:16.0000000+00:00</time></trkpt><trkpt lat="39.47879663" lon="-0.39558778"><ele>11.0</ele><time>2022-11-17T19:55:17.0000000+00:00</time></trkpt><trkpt lat="39.47879059" lon="-0.3956032"><ele>11.0</ele><time>2022-11-17T19:55:18.0000000+00:00</time></trkpt><trkpt lat="39.47877794" lon="-0.39561569"><ele>11.0</ele><time>2022-11-17T19:55:19.0000000+00:00</time></trkpt><trkpt lat="39.47876587" lon="-0.39563153"><ele>11.0</ele><time>2022-11-17T19:55:20.0000000+00:00</time></trkpt><trkpt lat="39.47875086" lon="-0.39564771"><ele>11.0</ele><time>2022-11-17T19:55:21.0000000+00:00</time></trkpt><trkpt lat="39.47873578" lon="-0.39566372"><ele>11.0</ele><time>2022-11-17T19:55:22.0000000+00:00</time></trkpt><trkpt lat="39.47872027" lon="-0.39566925"><ele>11.2</ele><time>2022-11-17T19:55:23.0000000+00:00</time></trkpt><trkpt lat="39.47871356" lon="-0.39568065"><ele>11.2</ele><time>2022-11-17T19:55:24.0000000+00:00</time></trkpt><trkpt lat="39.47871247" lon="-0.39569398"><ele>11.2</ele><time>2022-11-17T19:55:25.0000000+00:00</time></trkpt><trkpt lat="39.47870912" lon="-0.39571099"><ele>11.2</ele><time>2022-11-17T19:55:26.0000000+00:00</time></trkpt><trkpt lat="39.47871113" lon="-0.39573773"><ele>11.2</ele><time>2022-11-17T19:55:27.0000000+00:00</time></trkpt><trkpt lat="39.47870409" lon="-0.39575441"><ele>11.2</ele><time>2022-11-17T19:55:28.0000000+00:00</time></trkpt><trkpt lat="39.47869806" lon="-0.3957669"><ele>11.2</ele><time>2022-11-17T19:55:29.0000000+00:00</time></trkpt><trkpt lat="39.47869076" lon="-0.39578207"><ele>11.2</ele><time>2022-11-17T19:55:30.0000000+00:00</time></trkpt><trkpt lat="39.47868347" lon="-0.39579582"><ele>11.2</ele><time>2022-11-17T19:55:31.0000000+00:00</time></trkpt><trkpt lat="39.47867853" lon="-0.39581124"><ele>11.2</ele><time>2022-11-17T19:55:32.0000000+00:00</time></trkpt><trkpt lat="39.47866838" lon="-0.39582498"><ele>11.0</ele><time>2022-11-17T19:55:33.0000000+00:00</time></trkpt><trkpt lat="39.47866428" lon="-0.39584016"><ele>11.0</ele><time>2022-11-17T19:55:34.0000000+00:00</time></trkpt><trkpt lat="39.47866009" lon="-0.39585851"><ele>11.0</ele><time>2022-11-17T19:55:35.0000000+00:00</time></trkpt><trkpt lat="39.47865439" lon="-0.39586966"><ele>11.0</ele><time>2022-11-17T19:55:36.0000000+00:00</time></trkpt><trkpt lat="39.47864718" lon="-0.39587737"><ele>11.0</ele><time>2022-11-17T19:55:37.0000000+00:00</time></trkpt><trkpt lat="39.47863779" lon="-0.39588626"><ele>11.0</ele><time>2022-11-17T19:55:38.0000000+00:00</time></trkpt><trkpt lat="39.47862706" lon="-0.39589749"><ele>11.0</ele><time>2022-11-17T19:55:39.0000000+00:00</time></trkpt><trkpt lat="39.47861382" lon="-0.39589548"><ele>11.0</ele><time>2022-11-17T19:55:40.0000000+00:00</time></trkpt><trkpt lat="39.47859798" lon="-0.39589581"><ele>11.0</ele><time>2022-11-17T19:55:41.0000000+00:00</time></trkpt><trkpt lat="39.4785787" lon="-0.39588802"><ele>11.0</ele><time>2022-11-17T19:55:42.0000000+00:00</time></trkpt><trkpt lat="39.47856353" lon="-0.39588885"><ele>11.0</ele><time>2022-11-17T19:55:43.0000000+00:00</time></trkpt><trkpt lat="39.4785528" lon="-0.39589405"><ele>11.0</ele><time>2022-11-17T19:55:44.0000000+00:00</time></trkpt><trkpt lat="39.47854031" lon="-0.39590662"><ele>11.0</ele><time>2022-11-17T19:55:45.0000000+00:00</time></trkpt><trkpt lat="39.47853494" lon="-0.39591668"><ele>11.0</ele><time>2022-11-17T19:55:46.0000000+00:00</time></trkpt><trkpt lat="39.47853344" lon="-0.39592548"><ele>11.0</ele><time>2022-11-17T19:55:47.0000000+00:00</time></trkpt><trkpt lat="39.47851298" lon="-0.39592448"><ele>11.2</ele><time>2022-11-17T19:55:48.0000000+00:00</time></trkpt><trkpt lat="39.47850041" lon="-0.39591861"><ele>11.2</ele><time>2022-11-17T19:55:49.0000000+00:00</time></trkpt><trkpt lat="39.47849262" lon="-0.39591651"><ele>11.2</ele><time>2022-11-17T19:55:50.0000000+00:00</time></trkpt><trkpt lat="39.4784865" lon="-0.39591584"><ele>11.2</ele><time>2022-11-17T19:55:51.0000000+00:00</time></trkpt><trkpt lat="39.47848063" lon="-0.39591517"><ele>11.2</ele><time>2022-11-17T19:55:52.0000000+00:00</time></trkpt><trkpt lat="39.47847669" lon="-0.39591509"><ele>11.2</ele><time>2022-11-17T19:55:53.0000000+00:00</time></trkpt><trkpt lat="39.47847149" lon="-0.39591316"><ele>11.2</ele><time>2022-11-17T19:55:54.0000000+00:00</time></trkpt><trkpt lat="39.47846303" lon="-0.39591241"><ele>11.2</ele><time>2022-11-17T19:55:55.0000000+00:00</time></trkpt><trkpt lat="39.47845959" lon="-0.39590855"><ele>11.2</ele><time>2022-11-17T19:55:56.0000000+00:00</time></trkpt><trkpt lat="39.47846504" lon="-0.39591216"><ele>11.2</ele><time>2022-11-17T19:55:57.0000000+00:00</time></trkpt><trkpt lat="39.47847359" lon="-0.39591685"><ele>11.2</ele><time>2022-11-17T19:55:58.0000000+00:00</time></trkpt><trkpt lat="39.47848038" lon="-0.39592833"><ele>11.2</ele><time>2022-11-17T19:55:59.0000000+00:00</time></trkpt><trkpt lat="39.47848775" lon="-0.39593554"><ele>11.2</ele><time>2022-11-17T19:56:00.0000000+00:00</time></trkpt><trkpt lat="39.47849597" lon="-0.39593755"><ele>11.2</ele><time>2022-11-17T19:56:01.0000000+00:00</time></trkpt><trkpt lat="39.4784989" lon="-0.3959363"><ele>11.2</ele><time>2022-11-17T19:56:02.0000000+00:00</time></trkpt><trkpt lat="39.47850108" lon="-0.3959342"><ele>11.2</ele><time>2022-11-17T19:56:03.0000000+00:00</time></trkpt><trkpt lat="39.47850385" lon="-0.39593454"><ele>11.2</ele><time>2022-11-17T19:56:04.0000000+00:00</time></trkpt><trkpt lat="39.47850385" lon="-0.39593454"><ele>11.2</ele><time>2022-11-17T19:56:05.0000000+00:00</time></trkpt><trkpt lat="39.47850385" lon="-0.39593454"><ele>11.2</ele><time>2022-11-17T19:56:06.0000000+00:00</time></trkpt><trkpt lat="39.47850385" lon="-0.39593454"><ele>11.2</ele><time>2022-11-17T19:56:07.0000000+00:00</time></trkpt><trkpt lat="39.47850385" lon="-0.39593454"><ele>11.2</ele><time>2022-11-17T19:56:08.0000000+00:00</time></trkpt><trkpt lat="39.47850385" lon="-0.39593454"><ele>11.2</ele><time>2022-11-17T19:56:09.0000000+00:00</time></trkpt><trkpt lat="39.47850385" lon="-0.39593454"><ele>11.2</ele><time>2022-11-17T19:56:10.0000000+00:00</time></trkpt><trkpt lat="39.47850385" lon="-0.39593454"><ele>11.2</ele><time>2022-11-17T19:56:11.0000000+00:00</time></trkpt><trkpt lat="39.47850385" lon="-0.39593454"><ele>11.2</ele><time>2022-11-17T19:56:12.0000000+00:00</time></trkpt><trkpt lat="39.47850385" lon="-0.39593454"><ele>11.0</ele><time>2022-11-17T19:56:13.0000000+00:00</time></trkpt><trkpt lat="39.47850418" lon="-0.39593102"><ele>11.0</ele><time>2022-11-17T19:56:14.0000000+00:00</time></trkpt><trkpt lat="39.47849404" lon="-0.3959192"><ele>11.0</ele><time>2022-11-17T19:56:15.0000000+00:00</time></trkpt><trkpt lat="39.47848273" lon="-0.39590981"><ele>11.0</ele><time>2022-11-17T19:56:16.0000000+00:00</time></trkpt><trkpt lat="39.47846915" lon="-0.39590193"><ele>11.0</ele><time>2022-11-17T19:56:17.0000000+00:00</time></trkpt><trkpt lat="39.47845909" lon="-0.39589372"><ele>10.8</ele><time>2022-11-17T19:56:18.0000000+00:00</time></trkpt><trkpt lat="39.47844895" lon="-0.39589095"><ele>10.8</ele><time>2022-11-17T19:56:19.0000000+00:00</time></trkpt><trkpt lat="39.47844023" lon="-0.39588458"><ele>10.8</ele><time>2022-11-17T19:56:20.0000000+00:00</time></trkpt><trkpt lat="39.47842556" lon="-0.39587"><ele>10.8</ele><time>2022-11-17T19:56:21.0000000+00:00</time></trkpt><trkpt lat="39.47841592" lon="-0.39585868"><ele>10.8</ele><time>2022-11-17T19:56:22.0000000+00:00</time></trkpt><trkpt lat="39.47840712" lon="-0.39585315"><ele>10.8</ele><time>2022-11-17T19:56:23.0000000+00:00</time></trkpt><trkpt lat="39.47839991" lon="-0.39584795"><ele>10.8</ele><time>2022-11-17T19:56:24.0000000+00:00</time></trkpt><trkpt lat="39.47839245" lon="-0.39584368"><ele>10.8</ele><time>2022-11-17T19:56:25.0000000+00:00</time></trkpt><trkpt lat="39.4783839" lon="-0.39583563"><ele>10.8</ele><time>2022-11-17T19:56:26.0000000+00:00</time></trkpt><trkpt lat="39.47837988" lon="-0.39583311"><ele>10.8</ele><time>2022-11-17T19:56:27.0000000+00:00</time></trkpt><trkpt lat="39.47837351" lon="-0.39582817"><ele>11.0</ele><time>2022-11-17T19:56:28.0000000+00:00</time></trkpt><trkpt lat="39.47836538" lon="-0.39581727"><ele>11.0</ele><time>2022-11-17T19:56:29.0000000+00:00</time></trkpt><trkpt lat="39.47836161" lon="-0.39580202"><ele>11.0</ele><time>2022-11-17T19:56:30.0000000+00:00</time></trkpt><trkpt lat="39.4783554" lon="-0.39578936"><ele>11.0</ele><time>2022-11-17T19:56:31.0000000+00:00</time></trkpt><trkpt lat="39.47834509" lon="-0.39577704"><ele>11.0</ele><time>2022-11-17T19:56:32.0000000+00:00</time></trkpt><trkpt lat="39.47833286" lon="-0.3957643"><ele>11.2</ele><time>2022-11-17T19:56:33.0000000+00:00</time></trkpt><trkpt lat="39.4783145" lon="-0.39575617"><ele>11.2</ele><time>2022-11-17T19:56:34.0000000+00:00</time></trkpt><trkpt lat="39.47829782" lon="-0.39575173"><ele>11.2</ele><time>2022-11-17T19:56:35.0000000+00:00</time></trkpt><trkpt lat="39.47828558" lon="-0.39574376"><ele>11.2</ele><time>2022-11-17T19:56:36.0000000+00:00</time></trkpt><trkpt lat="39.47827586" lon="-0.39573253"><ele>11.0</ele><time>2022-11-17T19:56:37.0000000+00:00</time></trkpt><trkpt lat="39.47826346" lon="-0.39571996"><ele>11.0</ele><time>2022-11-17T19:56:38.0000000+00:00</time></trkpt><trkpt lat="39.47825315" lon="-0.39570504"><ele>11.0</ele><time>2022-11-17T19:56:39.0000000+00:00</time></trkpt><trkpt lat="39.47824116" lon="-0.39569825"><ele>11.0</ele><time>2022-11-17T19:56:40.0000000+00:00</time></trkpt><trkpt lat="39.47822708" lon="-0.39569171"><ele>11.2</ele><time>2022-11-17T19:56:41.0000000+00:00</time></trkpt><trkpt lat="39.47821559" lon="-0.39567939"><ele>11.2</ele><time>2022-11-17T19:56:42.0000000+00:00</time></trkpt><trkpt lat="39.47820285" lon="-0.39567076"><ele>11.2</ele><time>2022-11-17T19:56:43.0000000+00:00</time></trkpt><trkpt lat="39.47818358" lon="-0.39566489"><ele>11.2</ele><time>2022-11-17T19:56:44.0000000+00:00</time></trkpt><trkpt lat="39.47816606" lon="-0.39565869"><ele>11.2</ele><time>2022-11-17T19:56:45.0000000+00:00</time></trkpt><trkpt lat="39.47815457" lon="-0.39565181"><ele>11.2</ele><time>2022-11-17T19:56:46.0000000+00:00</time></trkpt><trkpt lat="39.47814812" lon="-0.39564804"><ele>11.2</ele><time>2022-11-17T19:56:47.0000000+00:00</time></trkpt><trkpt lat="39.47814242" lon="-0.39564586"><ele>11.0</ele><time>2022-11-17T19:56:48.0000000+00:00</time></trkpt><trkpt lat="39.47813639" lon="-0.39564318"><ele>11.0</ele><time>2022-11-17T19:56:49.0000000+00:00</time></trkpt><trkpt lat="39.47812323" lon="-0.39563069"><ele>11.0</ele><time>2022-11-17T19:56:50.0000000+00:00</time></trkpt><trkpt lat="39.47810722" lon="-0.39561468"><ele>11.0</ele><time>2022-11-17T19:56:51.0000000+00:00</time></trkpt><trkpt lat="39.47809565" lon="-0.39559691"><ele>11.0</ele><time>2022-11-17T19:56:52.0000000+00:00</time></trkpt><trkpt lat="39.4780845" lon="-0.39558082"><ele>11.0</ele><time>2022-11-17T19:56:53.0000000+00:00</time></trkpt><trkpt lat="39.47807168" lon="-0.39555886"><ele>11.0</ele><time>2022-11-17T19:56:54.0000000+00:00</time></trkpt><trkpt lat="39.47805701" lon="-0.39554067"><ele>11.0</ele><time>2022-11-17T19:56:55.0000000+00:00</time></trkpt><trkpt lat="39.47804846" lon="-0.39552734"><ele>11.0</ele><time>2022-11-17T19:56:56.0000000+00:00</time></trkpt><trkpt lat="39.4780405" lon="-0.39552508"><ele>11.0</ele><time>2022-11-17T19:56:57.0000000+00:00</time></trkpt><trkpt lat="39.47802851" lon="-0.3955317"><ele>11.0</ele><time>2022-11-17T19:56:58.0000000+00:00</time></trkpt><trkpt lat="39.47801803" lon="-0.39552919"><ele>11.0</ele><time>2022-11-17T19:56:59.0000000+00:00</time></trkpt><trkpt lat="39.47800202" lon="-0.39551955"><ele>11.2</ele><time>2022-11-17T19:57:00.0000000+00:00</time></trkpt><trkpt lat="39.47798082" lon="-0.39551083"><ele>11.2</ele><time>2022-11-17T19:57:01.0000000+00:00</time></trkpt><trkpt lat="39.47797076" lon="-0.3955027"><ele>11.2</ele><time>2022-11-17T19:57:02.0000000+00:00</time></trkpt><trkpt lat="39.47796313" lon="-0.39548988"><ele>11.2</ele><time>2022-11-17T19:57:03.0000000+00:00</time></trkpt><trkpt lat="39.47795332" lon="-0.39547982"><ele>11.4</ele><time>2022-11-17T19:57:04.0000000+00:00</time></trkpt><trkpt lat="39.47794721" lon="-0.39546984"><ele>11.2</ele><time>2022-11-17T19:57:05.0000000+00:00</time></trkpt><trkpt lat="39.47793472" lon="-0.39545895"><ele>11.2</ele><time>2022-11-17T19:57:06.0000000+00:00</time></trkpt><trkpt lat="39.47792089" lon="-0.39545124"><ele>11.2</ele><time>2022-11-17T19:57:07.0000000+00:00</time></trkpt><trkpt lat="39.47790337" lon="-0.39544436"><ele>11.2</ele><time>2022-11-17T19:57:08.0000000+00:00</time></trkpt><trkpt lat="39.47788728" lon="-0.39543682"><ele>11.2</ele><time>2022-11-17T19:57:09.0000000+00:00</time></trkpt><trkpt lat="39.47786733" lon="-0.39542793"><ele>11.0</ele><time>2022-11-17T19:57:10.0000000+00:00</time></trkpt><trkpt lat="39.47784872" lon="-0.39541452"><ele>11.0</ele><time>2022-11-17T19:57:11.0000000+00:00</time></trkpt><trkpt lat="39.47783246" lon="-0.39540212"><ele>11.0</ele><time>2022-11-17T19:57:12.0000000+00:00</time></trkpt><trkpt lat="39.47781477" lon="-0.39539231"><ele>11.0</ele><time>2022-11-17T19:57:13.0000000+00:00</time></trkpt><trkpt lat="39.4777996" lon="-0.39538083"><ele>11.0</ele><time>2022-11-17T19:57:14.0000000+00:00</time></trkpt><trkpt lat="39.47778284" lon="-0.39536289"><ele>11.0</ele><time>2022-11-17T19:57:15.0000000+00:00</time></trkpt><trkpt lat="39.47776792" lon="-0.39534177"><ele>11.0</ele><time>2022-11-17T19:57:16.0000000+00:00</time></trkpt><trkpt lat="39.47775367" lon="-0.39533003"><ele>11.0</ele><time>2022-11-17T19:57:17.0000000+00:00</time></trkpt><trkpt lat="39.47774168" lon="-0.39531989"><ele>11.0</ele><time>2022-11-17T19:57:18.0000000+00:00</time></trkpt><trkpt lat="39.47773355" lon="-0.39530916"><ele>11.0</ele><time>2022-11-17T19:57:19.0000000+00:00</time></trkpt><trkpt lat="39.47772391" lon="-0.39529919"><ele>11.0</ele><time>2022-11-17T19:57:20.0000000+00:00</time></trkpt><trkpt lat="39.47771637" lon="-0.39528469"><ele>11.0</ele><time>2022-11-17T19:57:21.0000000+00:00</time></trkpt><trkpt lat="39.47770765" lon="-0.39527153"><ele>11.0</ele><time>2022-11-17T19:57:22.0000000+00:00</time></trkpt><trkpt lat="39.47769625" lon="-0.39524965"><ele>10.8</ele><time>2022-11-17T19:57:23.0000000+00:00</time></trkpt><trkpt lat="39.47767261" lon="-0.39522786"><ele>10.8</ele><time>2022-11-17T19:57:24.0000000+00:00</time></trkpt><trkpt lat="39.47765543" lon="-0.39521319"><ele>10.8</ele><time>2022-11-17T19:57:25.0000000+00:00</time></trkpt><trkpt lat="39.47763833" lon="-0.39520715"><ele>10.8</ele><time>2022-11-17T19:57:26.0000000+00:00</time></trkpt><trkpt lat="39.47763171" lon="-0.39520305"><ele>10.8</ele><time>2022-11-17T19:57:27.0000000+00:00</time></trkpt><trkpt lat="39.47761939" lon="-0.39519986"><ele>10.8</ele><time>2022-11-17T19:57:28.0000000+00:00</time></trkpt><trkpt lat="39.47761201" lon="-0.39519123"><ele>10.8</ele><time>2022-11-17T19:57:29.0000000+00:00</time></trkpt><trkpt lat="39.47760304" lon="-0.39518008"><ele>10.8</ele><time>2022-11-17T19:57:30.0000000+00:00</time></trkpt><trkpt lat="39.47759366" lon="-0.3951712"><ele>10.8</ele><time>2022-11-17T19:57:31.0000000+00:00</time></trkpt><trkpt lat="39.47757798" lon="-0.39515837"><ele>10.8</ele><time>2022-11-17T19:57:32.0000000+00:00</time></trkpt><trkpt lat="39.47756499" lon="-0.39514429"><ele>10.8</ele><time>2022-11-17T19:57:33.0000000+00:00</time></trkpt><trkpt lat="39.47754957" lon="-0.39511789"><ele>10.8</ele><time>2022-11-17T19:57:34.0000000+00:00</time></trkpt><trkpt lat="39.47753842" lon="-0.39510523"><ele>10.8</ele><time>2022-11-17T19:57:35.0000000+00:00</time></trkpt><trkpt lat="39.47752342" lon="-0.39509266"><ele>10.8</ele><time>2022-11-17T19:57:36.0000000+00:00</time></trkpt><trkpt lat="39.47752073" lon="-0.39509073"><ele>10.8</ele><time>2022-11-17T19:57:37.0000000+00:00</time></trkpt><trkpt lat="39.47751009" lon="-0.39508461"><ele>10.8</ele><time>2022-11-17T19:57:38.0000000+00:00</time></trkpt><trkpt lat="39.47750087" lon="-0.39507514"><ele>10.8</ele><time>2022-11-17T19:57:39.0000000+00:00</time></trkpt><trkpt lat="39.47749123" lon="-0.3950681"><ele>11.0</ele><time>2022-11-17T19:57:40.0000000+00:00</time></trkpt><trkpt lat="39.47748427" lon="-0.39505879"><ele>11.0</ele><time>2022-11-17T19:57:41.0000000+00:00</time></trkpt><trkpt lat="39.47748243" lon="-0.39505796"><ele>11.0</ele><time>2022-11-17T19:57:42.0000000+00:00</time></trkpt><trkpt lat="39.47747916" lon="-0.39506374"><ele>11.0</ele><time>2022-11-17T19:57:43.0000000+00:00</time></trkpt><trkpt lat="39.47747916" lon="-0.39506977"><ele>10.8</ele><time>2022-11-17T19:57:44.0000000+00:00</time></trkpt><trkpt lat="39.47747908" lon="-0.39507003"><ele>10.8</ele><time>2022-11-17T19:57:45.0000000+00:00</time></trkpt><trkpt lat="39.47747983" lon="-0.39506642"><ele>10.8</ele><time>2022-11-17T19:57:46.0000000+00:00</time></trkpt><trkpt lat="39.47747975" lon="-0.39506768"><ele>10.8</ele><time>2022-11-17T19:57:47.0000000+00:00</time></trkpt><trkpt lat="39.47747916" lon="-0.39506843"><ele>10.8</ele><time>2022-11-17T19:57:48.0000000+00:00</time></trkpt><trkpt lat="39.47747891" lon="-0.39506952"><ele>10.8</ele><time>2022-11-17T19:57:49.0000000+00:00</time></trkpt><trkpt lat="39.47747874" lon="-0.39507011"><ele>10.8</ele><time>2022-11-17T19:57:50.0000000+00:00</time></trkpt><trkpt lat="39.47747941" lon="-0.39507045"><ele>10.8</ele><time>2022-11-17T19:57:51.0000000+00:00</time></trkpt><trkpt lat="39.47747899" lon="-0.39507003"><ele>10.8</ele><time>2022-11-17T19:57:52.0000000+00:00</time></trkpt><trkpt lat="39.47747832" lon="-0.39506986"><ele>10.8</ele><time>2022-11-17T19:57:53.0000000+00:00</time></trkpt><trkpt lat="39.47747832" lon="-0.39506986"><ele>10.8</ele><time>2022-11-17T19:57:54.0000000+00:00</time></trkpt><trkpt lat="39.47747832" lon="-0.39506986"><ele>10.8</ele><time>2022-11-17T19:57:55.0000000+00:00</time></trkpt><trkpt lat="39.47747832" lon="-0.39506986"><ele>10.8</ele><time>2022-11-17T19:57:56.0000000+00:00</time></trkpt><trkpt lat="39.47747832" lon="-0.39506986"><ele>10.8</ele><time>2022-11-17T19:57:57.0000000+00:00</time></trkpt><trkpt lat="39.47747832" lon="-0.39506986"><ele>10.8</ele><time>2022-11-17T19:57:58.0000000+00:00</time></trkpt><trkpt lat="39.47747832" lon="-0.39506986"><ele>10.8</ele><time>2022-11-17T19:57:59.0000000+00:00</time></trkpt><trkpt lat="39.47747832" lon="-0.39506986"><ele>10.8</ele><time>2022-11-17T19:58:00.0000000+00:00</time></trkpt><trkpt lat="39.47747832" lon="-0.39506986"><ele>10.8</ele><time>2022-11-17T19:58:01.0000000+00:00</time></trkpt><trkpt lat="39.47747832" lon="-0.39506986"><ele>10.8</ele><time>2022-11-17T19:58:02.0000000+00:00</time></trkpt><trkpt lat="39.47747832" lon="-0.39506986"><ele>10.6</ele><time>2022-11-17T19:58:03.0000000+00:00</time></trkpt><trkpt lat="39.47747832" lon="-0.39506986"><ele>10.6</ele><time>2022-11-17T19:58:04.0000000+00:00</time></trkpt><trkpt lat="39.47747832" lon="-0.39506986"><ele>10.6</ele><time>2022-11-17T19:58:05.0000000+00:00</time></trkpt><trkpt lat="39.47747832" lon="-0.39506986"><ele>10.6</ele><time>2022-11-17T19:58:06.0000000+00:00</time></trkpt><trkpt lat="39.47747832" lon="-0.39506952"><ele>10.6</ele><time>2022-11-17T19:58:07.0000000+00:00</time></trkpt><trkpt lat="39.47747522" lon="-0.39506584"><ele>10.4</ele><time>2022-11-17T19:58:08.0000000+00:00</time></trkpt><trkpt lat="39.4774691" lon="-0.39505536"><ele>10.4</ele><time>2022-11-17T19:58:09.0000000+00:00</time></trkpt><trkpt lat="39.47746231" lon="-0.39503616"><ele>10.4</ele><time>2022-11-17T19:58:10.0000000+00:00</time></trkpt><trkpt lat="39.47745586" lon="-0.39500607"><ele>10.4</ele><time>2022-11-17T19:58:11.0000000+00:00</time></trkpt><trkpt lat="39.47744144" lon="-0.39497296"><ele>10.4</ele><time>2022-11-17T19:58:12.0000000+00:00</time></trkpt><trkpt lat="39.47742325" lon="-0.39495385"><ele>10.4</ele><time>2022-11-17T19:58:13.0000000+00:00</time></trkpt><trkpt lat="39.47740465" lon="-0.39493022"><ele>10.4</ele><time>2022-11-17T19:58:14.0000000+00:00</time></trkpt><trkpt lat="39.4773904" lon="-0.39490029"><ele>10.4</ele><time>2022-11-17T19:58:15.0000000+00:00</time></trkpt><trkpt lat="39.47738855" lon="-0.39488336"><ele>10.4</ele><time>2022-11-17T19:58:16.0000000+00:00</time></trkpt><trkpt lat="39.47737816" lon="-0.39484765"><ele>10.4</ele><time>2022-11-17T19:58:17.0000000+00:00</time></trkpt><trkpt lat="39.47738051" lon="-0.39487406"><ele>10.4</ele><time>2022-11-17T19:58:18.0000000+00:00</time></trkpt><trkpt lat="39.47737581" lon="-0.39489761"><ele>10.4</ele><time>2022-11-17T19:58:19.0000000+00:00</time></trkpt><trkpt lat="39.4773826" lon="-0.39491287"><ele>10.4</ele><time>2022-11-17T19:58:20.0000000+00:00</time></trkpt><trkpt lat="39.47738788" lon="-0.39492326"><ele>10.4</ele><time>2022-11-17T19:58:21.0000000+00:00</time></trkpt><trkpt lat="39.4773883" lon="-0.39492552"><ele>10.4</ele><time>2022-11-17T19:58:22.0000000+00:00</time></trkpt><trkpt lat="39.47738344" lon="-0.39491681"><ele>10.4</ele><time>2022-11-17T19:58:23.0000000+00:00</time></trkpt><trkpt lat="39.47737833" lon="-0.39491253"><ele>10.4</ele><time>2022-11-17T19:58:24.0000000+00:00</time></trkpt><trkpt lat="39.47737254" lon="-0.39490608"><ele>10.4</ele><time>2022-11-17T19:58:25.0000000+00:00</time></trkpt><trkpt lat="39.47735729" lon="-0.39490683"><ele>10.4</ele><time>2022-11-17T19:58:26.0000000+00:00</time></trkpt><trkpt lat="39.47734991" lon="-0.39489317"><ele>10.4</ele><time>2022-11-17T19:58:27.0000000+00:00</time></trkpt><trkpt lat="39.47734413" lon="-0.39490918"><ele>10.6</ele><time>2022-11-17T19:58:28.0000000+00:00</time></trkpt><trkpt lat="39.47734555" lon="-0.39492393"><ele>10.6</ele><time>2022-11-17T19:58:29.0000000+00:00</time></trkpt><trkpt lat="39.47734555" lon="-0.39492041"><ele>10.4</ele><time>2022-11-17T19:58:30.0000000+00:00</time></trkpt><trkpt lat="39.47733809" lon="-0.39491999"><ele>10.4</ele><time>2022-11-17T19:58:31.0000000+00:00</time></trkpt><trkpt lat="39.47733617" lon="-0.39492703"><ele>10.4</ele><time>2022-11-17T19:58:32.0000000+00:00</time></trkpt><trkpt lat="39.47734078" lon="-0.39493105"><ele>10.4</ele><time>2022-11-17T19:58:33.0000000+00:00</time></trkpt><trkpt lat="39.47736215" lon="-0.3949557"><ele>10.4</ele><time>2022-11-17T19:58:34.0000000+00:00</time></trkpt><trkpt lat="39.47738" lon="-0.39495603"><ele>10.4</ele><time>2022-11-17T19:58:35.0000000+00:00</time></trkpt><trkpt lat="39.47739802" lon="-0.39496928"><ele>10.4</ele><time>2022-11-17T19:58:36.0000000+00:00</time></trkpt><trkpt lat="39.47739727" lon="-0.39495855"><ele>10.4</ele><time>2022-11-17T19:58:37.0000000+00:00</time></trkpt><trkpt lat="39.47739727" lon="-0.39495855"><ele>10.4</ele><time>2022-11-17T19:58:38.0000000+00:00</time></trkpt><trkpt lat="39.47739727" lon="-0.39495855"><ele>10.4</ele><time>2022-11-17T19:58:39.0000000+00:00</time></trkpt><trkpt lat="39.47739727" lon="-0.39495855"><ele>10.4</ele><time>2022-11-17T19:58:40.0000000+00:00</time></trkpt><trkpt lat="39.47739727" lon="-0.39495855"><ele>10.4</ele><time>2022-11-17T19:58:41.0000000+00:00</time></trkpt><trkpt lat="39.47739727" lon="-0.39495855"><ele>10.4</ele><time>2022-11-17T19:58:42.0000000+00:00</time></trkpt><trkpt lat="39.47739467" lon="-0.39494991"><ele>10.4</ele><time>2022-11-17T19:58:43.0000000+00:00</time></trkpt><trkpt lat="39.47738604" lon="-0.39492401"><ele>10.4</ele><time>2022-11-17T19:58:44.0000000+00:00</time></trkpt><trkpt lat="39.4773681" lon="-0.39491337"><ele>10.4</ele><time>2022-11-17T19:58:45.0000000+00:00</time></trkpt><trkpt lat="39.47735746" lon="-0.39491714"><ele>10.4</ele><time>2022-11-17T19:58:46.0000000+00:00</time></trkpt><trkpt lat="39.47735678" lon="-0.39491303"><ele>10.4</ele><time>2022-11-17T19:58:47.0000000+00:00</time></trkpt><trkpt lat="39.47735393" lon="-0.39490859"><ele>10.4</ele><time>2022-11-17T19:58:48.0000000+00:00</time></trkpt><trkpt lat="39.47735888" lon="-0.3949386"><ele>10.4</ele><time>2022-11-17T19:58:49.0000000+00:00</time></trkpt><trkpt lat="39.47735813" lon="-0.39493717"><ele>10.4</ele><time>2022-11-17T19:58:50.0000000+00:00</time></trkpt><trkpt lat="39.4773603" lon="-0.39497464"><ele>10.4</ele><time>2022-11-17T19:58:51.0000000+00:00</time></trkpt><trkpt lat="39.47735603" lon="-0.39496408"><ele>10.4</ele><time>2022-11-17T19:58:52.0000000+00:00</time></trkpt><trkpt lat="39.47735192" lon="-0.39496106"><ele>10.4</ele><time>2022-11-17T19:58:53.0000000+00:00</time></trkpt><trkpt lat="39.47734773" lon="-0.39494203"><ele>10.4</ele><time>2022-11-17T19:58:54.0000000+00:00</time></trkpt><trkpt lat="39.47734287" lon="-0.39494069"><ele>10.4</ele><time>2022-11-17T19:58:55.0000000+00:00</time></trkpt><trkpt lat="39.47733541" lon="-0.39491924"><ele>10.4</ele><time>2022-11-17T19:58:56.0000000+00:00</time></trkpt><trkpt lat="39.47732485" lon="-0.3948671"><ele>10.4</ele><time>2022-11-17T19:58:57.0000000+00:00</time></trkpt><trkpt lat="39.47732451" lon="-0.39487029"><ele>10.4</ele><time>2022-11-17T19:58:58.0000000+00:00</time></trkpt><trkpt lat="39.4773215" lon="-0.3948619"><ele>10.4</ele><time>2022-11-17T19:58:59.0000000+00:00</time></trkpt><trkpt lat="39.47731907" lon="-0.39484958"><ele>10.4</ele><time>2022-11-17T19:59:00.0000000+00:00</time></trkpt><trkpt lat="39.47731714" lon="-0.39484749"><ele>10.4</ele><time>2022-11-17T19:59:01.0000000+00:00</time></trkpt><trkpt lat="39.47731588" lon="-0.39483584"><ele>10.4</ele><time>2022-11-17T19:59:02.0000000+00:00</time></trkpt><trkpt lat="39.47731596" lon="-0.39483282"><ele>10.4</ele><time>2022-11-17T19:59:03.0000000+00:00</time></trkpt><trkpt lat="39.47731496" lon="-0.39482921"><ele>10.4</ele><time>2022-11-17T19:59:04.0000000+00:00</time></trkpt><trkpt lat="39.47731622" lon="-0.39483424"><ele>10.4</ele><time>2022-11-17T19:59:05.0000000+00:00</time></trkpt><trkpt lat="39.47731655" lon="-0.39482444"><ele>10.4</ele><time>2022-11-17T19:59:06.0000000+00:00</time></trkpt><trkpt lat="39.47731764" lon="-0.39481488"><ele>10.4</ele><time>2022-11-17T19:59:07.0000000+00:00</time></trkpt><trkpt lat="39.4773194" lon="-0.39479963"><ele>10.4</ele><time>2022-11-17T19:59:08.0000000+00:00</time></trkpt><trkpt lat="39.47732267" lon="-0.39478412"><ele>10.4</ele><time>2022-11-17T19:59:09.0000000+00:00</time></trkpt><trkpt lat="39.47732208" lon="-0.39477892"><ele>10.4</ele><time>2022-11-17T19:59:10.0000000+00:00</time></trkpt><trkpt lat="39.47732275" lon="-0.39477322"><ele>10.4</ele><time>2022-11-17T19:59:11.0000000+00:00</time></trkpt><trkpt lat="39.47732393" lon="-0.39474992"><ele>10.4</ele><time>2022-11-17T19:59:12.0000000+00:00</time></trkpt><trkpt lat="39.47732242" lon="-0.39474221"><ele>10.4</ele><time>2022-11-17T19:59:13.0000000+00:00</time></trkpt><trkpt lat="39.47731915" lon="-0.39473207"><ele>10.4</ele><time>2022-11-17T19:59:14.0000000+00:00</time></trkpt><trkpt lat="39.47731555" lon="-0.39472419"><ele>10.4</ele><time>2022-11-17T19:59:15.0000000+00:00</time></trkpt><trkpt lat="39.47731965" lon="-0.39474204"><ele>10.4</ele><time>2022-11-17T19:59:16.0000000+00:00</time></trkpt><trkpt lat="39.47732007" lon="-0.39474707"><ele>10.4</ele><time>2022-11-17T19:59:17.0000000+00:00</time></trkpt><trkpt lat="39.47731152" lon="-0.39476115"><ele>10.4</ele><time>2022-11-17T19:59:18.0000000+00:00</time></trkpt><trkpt lat="39.4773106" lon="-0.39475814"><ele>10.4</ele><time>2022-11-17T19:59:19.0000000+00:00</time></trkpt><trkpt lat="39.4773075" lon="-0.39475109"><ele>10.4</ele><time>2022-11-17T19:59:20.0000000+00:00</time></trkpt><trkpt lat="39.47730633" lon="-0.39475068"><ele>10.4</ele><time>2022-11-17T19:59:21.0000000+00:00</time></trkpt><trkpt lat="39.47730733" lon="-0.39475151"><ele>10.4</ele><time>2022-11-17T19:59:22.0000000+00:00</time></trkpt><trkpt lat="39.47731278" lon="-0.39476987"><ele>10.4</ele><time>2022-11-17T19:59:23.0000000+00:00</time></trkpt><trkpt lat="39.4773184" lon="-0.39478093"><ele>10.4</ele><time>2022-11-17T19:59:24.0000000+00:00</time></trkpt><trkpt lat="39.47732912" lon="-0.39480826"><ele>10.4</ele><time>2022-11-17T19:59:25.0000000+00:00</time></trkpt><trkpt lat="39.47734312" lon="-0.39484388"><ele>10.2</ele><time>2022-11-17T19:59:26.0000000+00:00</time></trkpt><trkpt lat="39.47735469" lon="-0.39483902"><ele>10.2</ele><time>2022-11-17T19:59:27.0000000+00:00</time></trkpt><trkpt lat="39.47735637" lon="-0.39482653"><ele>10.2</ele><time>2022-11-17T19:59:28.0000000+00:00</time></trkpt><trkpt lat="39.47736131" lon="-0.39484631"><ele>10.2</ele><time>2022-11-17T19:59:29.0000000+00:00</time></trkpt><trkpt lat="39.47736684" lon="-0.39486953"><ele>10.2</ele><time>2022-11-17T19:59:30.0000000+00:00</time></trkpt><trkpt lat="39.47738453" lon="-0.39488504"><ele>10.2</ele><time>2022-11-17T19:59:31.0000000+00:00</time></trkpt><trkpt lat="39.47739517" lon="-0.39489367"><ele>10.2</ele><time>2022-11-17T19:59:32.0000000+00:00</time></trkpt><trkpt lat="39.47741009" lon="-0.39490314"><ele>10.2</ele><time>2022-11-17T19:59:33.0000000+00:00</time></trkpt><trkpt lat="39.47742535" lon="-0.39492133"><ele>10.2</ele><time>2022-11-17T19:59:34.0000000+00:00</time></trkpt><trkpt lat="39.47743876" lon="-0.39495"><ele>10.2</ele><time>2022-11-17T19:59:35.0000000+00:00</time></trkpt><trkpt lat="39.47742879" lon="-0.39494933"><ele>10.2</ele><time>2022-11-17T19:59:36.0000000+00:00</time></trkpt><trkpt lat="39.4774199" lon="-0.39497808"><ele>10.2</ele><time>2022-11-17T19:59:37.0000000+00:00</time></trkpt><trkpt lat="39.4774147" lon="-0.39500305"><ele>10.2</ele><time>2022-11-17T19:59:38.0000000+00:00</time></trkpt><trkpt lat="39.47741169" lon="-0.39505008"><ele>10.2</ele><time>2022-11-17T19:59:39.0000000+00:00</time></trkpt><trkpt lat="39.47741244" lon="-0.39507338"><ele>10.2</ele><time>2022-11-17T19:59:40.0000000+00:00</time></trkpt><trkpt lat="39.47741697" lon="-0.39508042"><ele>10.2</ele><time>2022-11-17T19:59:41.0000000+00:00</time></trkpt><trkpt lat="39.47742384" lon="-0.39509894"><ele>10.2</ele><time>2022-11-17T19:59:42.0000000+00:00</time></trkpt><trkpt lat="39.47741537" lon="-0.39508796"><ele>10.2</ele><time>2022-11-17T19:59:43.0000000+00:00</time></trkpt><trkpt lat="39.47741579" lon="-0.39508428"><ele>10.2</ele><time>2022-11-17T19:59:44.0000000+00:00</time></trkpt><trkpt lat="39.47741772" lon="-0.39507983"><ele>10.2</ele><time>2022-11-17T19:59:45.0000000+00:00</time></trkpt><trkpt lat="39.47741957" lon="-0.39508805"><ele>10.2</ele><time>2022-11-17T19:59:46.0000000+00:00</time></trkpt><trkpt lat="39.47742049" lon="-0.39508788"><ele>10.2</ele><time>2022-11-17T19:59:47.0000000+00:00</time></trkpt><trkpt lat="39.47742091" lon="-0.39509123"><ele>10.2</ele><time>2022-11-17T19:59:48.0000000+00:00</time></trkpt><trkpt lat="39.47742015" lon="-0.39509257"><ele>10.2</ele><time>2022-11-17T19:59:49.0000000+00:00</time></trkpt><trkpt lat="39.47741822" lon="-0.3950774"><ele>10.2</ele><time>2022-11-17T19:59:50.0000000+00:00</time></trkpt><trkpt lat="39.47741764" lon="-0.39506114"><ele>10.2</ele><time>2022-11-17T19:59:51.0000000+00:00</time></trkpt><trkpt lat="39.47741856" lon="-0.39503331"><ele>11.0</ele><time>2022-11-17T19:59:52.0000000+00:00</time></trkpt><trkpt lat="39.47741957" lon="-0.39503449"><ele>11.2</ele><time>2022-11-17T19:59:53.0000000+00:00</time></trkpt><trkpt lat="39.47741177" lon="-0.39506307"><ele>11.4</ele><time>2022-11-17T19:59:54.0000000+00:00</time></trkpt><trkpt lat="39.4774059" lon="-0.39503382"><ele>11.6</ele><time>2022-11-17T19:59:55.0000000+00:00</time></trkpt><trkpt lat="39.47739936" lon="-0.3950111"><ele>11.6</ele><time>2022-11-17T19:59:56.0000000+00:00</time></trkpt><trkpt lat="39.47739534" lon="-0.39500917"><ele>11.6</ele><time>2022-11-17T19:59:57.0000000+00:00</time></trkpt><trkpt lat="39.47739006" lon="-0.39499551"><ele>11.6</ele><time>2022-11-17T19:59:58.0000000+00:00</time></trkpt><trkpt lat="39.47738126" lon="-0.39497724"><ele>11.6</ele><time>2022-11-17T20:00:00.0000000+00:00</time></trkpt><trkpt lat="39.47737807" lon="-0.3949588"><ele>11.6</ele><time>2022-11-17T20:00:01.0000000+00:00</time></trkpt><trkpt lat="39.47756248" lon="-0.39538946"><ele>9.6</ele><time>2022-11-17T20:30:49.0000000+00:00</time></trkpt><trkpt lat="39.47754504" lon="-0.3953856"><ele>9.6</ele><time>2022-11-17T20:30:50.0000000+00:00</time></trkpt><trkpt lat="39.47751327" lon="-0.3953711"><ele>9.4</ele><time>2022-11-17T20:30:51.0000000+00:00</time></trkpt><trkpt lat="39.47753649" lon="-0.3953452"><ele>9.2</ele><time>2022-11-17T20:30:52.0000000+00:00</time></trkpt><trkpt lat="39.47753733" lon="-0.39531805"><ele>9.2</ele><time>2022-11-17T20:30:53.0000000+00:00</time></trkpt><trkpt lat="39.47755326" lon="-0.39530908"><ele>9.2</ele><time>2022-11-17T20:30:54.0000000+00:00</time></trkpt><trkpt lat="39.47754999" lon="-0.39529902"><ele>9.2</ele><time>2022-11-17T20:30:55.0000000+00:00</time></trkpt><trkpt lat="39.47754253" lon="-0.39530681"><ele>9.2</ele><time>2022-11-17T20:30:56.0000000+00:00</time></trkpt><trkpt lat="39.47754035" lon="-0.39531017"><ele>9.2</ele><time>2022-11-17T20:30:57.0000000+00:00</time></trkpt><trkpt lat="39.4775375" lon="-0.39533263"><ele>9.2</ele><time>2022-11-17T20:30:58.0000000+00:00</time></trkpt><trkpt lat="39.47753943" lon="-0.39534344"><ele>9.4</ele><time>2022-11-17T20:30:59.0000000+00:00</time></trkpt><trkpt lat="39.47753817" lon="-0.3953582"><ele>9.4</ele><time>2022-11-17T20:31:00.0000000+00:00</time></trkpt><trkpt lat="39.47751931" lon="-0.39532014"><ele>9.6</ele><time>2022-11-17T20:31:01.0000000+00:00</time></trkpt><trkpt lat="39.47749442" lon="-0.39532894"><ele>9.6</ele><time>2022-11-17T20:31:02.0000000+00:00</time></trkpt><trkpt lat="39.47747338" lon="-0.3953017"><ele>9.6</ele><time>2022-11-17T20:31:03.0000000+00:00</time></trkpt><trkpt lat="39.47746717" lon="-0.39529651"><ele>9.6</ele><time>2022-11-17T20:31:04.0000000+00:00</time></trkpt><trkpt lat="39.47746483" lon="-0.39528779"><ele>9.4</ele><time>2022-11-17T20:31:05.0000000+00:00</time></trkpt><trkpt lat="39.47746449" lon="-0.39527706"><ele>9.0</ele><time>2022-11-17T20:31:06.0000000+00:00</time></trkpt><trkpt lat="39.47746198" lon="-0.3952841"><ele>9.0</ele><time>2022-11-17T20:31:07.0000000+00:00</time></trkpt><trkpt lat="39.47745904" lon="-0.39530019"><ele>8.8</ele><time>2022-11-17T20:31:08.0000000+00:00</time></trkpt><trkpt lat="39.47745754" lon="-0.39530715"><ele>8.8</ele><time>2022-11-17T20:31:09.0000000+00:00</time></trkpt><trkpt lat="39.47745292" lon="-0.39530162"><ele>9.0</ele><time>2022-11-17T20:31:10.0000000+00:00</time></trkpt><trkpt lat="39.47745477" lon="-0.39529198"><ele>9.0</ele><time>2022-11-17T20:31:11.0000000+00:00</time></trkpt><trkpt lat="39.47746173" lon="-0.39528159"><ele>9.0</ele><time>2022-11-17T20:31:12.0000000+00:00</time></trkpt><trkpt lat="39.47747061" lon="-0.39527195"><ele>9.0</ele><time>2022-11-17T20:31:13.0000000+00:00</time></trkpt><trkpt lat="39.47747204" lon="-0.39526013"><ele>9.0</ele><time>2022-11-17T20:31:14.0000000+00:00</time></trkpt><trkpt lat="39.4774691" lon="-0.39525124"><ele>9.0</ele><time>2022-11-17T20:31:15.0000000+00:00</time></trkpt><trkpt lat="39.47746885" lon="-0.3952344"><ele>8.8</ele><time>2022-11-17T20:31:16.0000000+00:00</time></trkpt><trkpt lat="39.47747455" lon="-0.39521369"><ele>8.8</ele><time>2022-11-17T20:31:17.0000000+00:00</time></trkpt><trkpt lat="39.47748595" lon="-0.39519668"><ele>8.8</ele><time>2022-11-17T20:31:18.0000000+00:00</time></trkpt><trkpt lat="39.47749785" lon="-0.39518142"><ele>8.8</ele><time>2022-11-17T20:31:19.0000000+00:00</time></trkpt><trkpt lat="39.4775142" lon="-0.395167"><ele>8.6</ele><time>2022-11-17T20:31:20.0000000+00:00</time></trkpt><trkpt lat="39.47753155" lon="-0.39515619"><ele>8.6</ele><time>2022-11-17T20:31:21.0000000+00:00</time></trkpt><trkpt lat="39.47755049" lon="-0.39514421"><ele>8.6</ele><time>2022-11-17T20:31:22.0000000+00:00</time></trkpt><trkpt lat="39.47756667" lon="-0.3951468"><ele>8.6</ele><time>2022-11-17T20:31:23.0000000+00:00</time></trkpt><trkpt lat="39.47757882" lon="-0.39514102"><ele>8.6</ele><time>2022-11-17T20:31:24.0000000+00:00</time></trkpt><trkpt lat="39.47757999" lon="-0.39512602"><ele>8.6</ele><time>2022-11-17T20:31:25.0000000+00:00</time></trkpt><trkpt lat="39.4775862" lon="-0.39510607"><ele>8.6</ele><time>2022-11-17T20:31:26.0000000+00:00</time></trkpt><trkpt lat="39.47759424" lon="-0.39507195"><ele>8.6</ele><time>2022-11-17T20:31:27.0000000+00:00</time></trkpt><trkpt lat="39.47760849" lon="-0.3950391"><ele>8.6</ele><time>2022-11-17T20:31:28.0000000+00:00</time></trkpt><trkpt lat="39.47761855" lon="-0.39501353"><ele>8.6</ele><time>2022-11-17T20:31:29.0000000+00:00</time></trkpt><trkpt lat="39.47762752" lon="-0.3949904"><ele>8.6</ele><time>2022-11-17T20:31:30.0000000+00:00</time></trkpt><trkpt lat="39.47764185" lon="-0.39496383"><ele>8.6</ele><time>2022-11-17T20:31:31.0000000+00:00</time></trkpt><trkpt lat="39.47764671" lon="-0.3949448"><ele>8.6</ele><time>2022-11-17T20:31:32.0000000+00:00</time></trkpt><trkpt lat="39.47766507" lon="-0.39492024"><ele>8.8</ele><time>2022-11-17T20:31:33.0000000+00:00</time></trkpt><trkpt lat="39.47766675" lon="-0.39489283"><ele>8.8</ele><time>2022-11-17T20:31:34.0000000+00:00</time></trkpt><trkpt lat="39.47767764" lon="-0.39486727"><ele>9.0</ele><time>2022-11-17T20:31:35.0000000+00:00</time></trkpt><trkpt lat="39.47767966" lon="-0.39483986"><ele>9.0</ele><time>2022-11-17T20:31:36.0000000+00:00</time></trkpt><trkpt lat="39.47767848" lon="-0.39481723"><ele>9.0</ele><time>2022-11-17T20:31:37.0000000+00:00</time></trkpt><trkpt lat="39.47767722" lon="-0.39480273"><ele>9.0</ele><time>2022-11-17T20:31:38.0000000+00:00</time></trkpt><trkpt lat="39.47767169" lon="-0.39478923"><ele>9.0</ele><time>2022-11-17T20:31:39.0000000+00:00</time></trkpt><trkpt lat="39.47766004" lon="-0.39475973"><ele>9.2</ele><time>2022-11-17T20:31:40.0000000+00:00</time></trkpt><trkpt lat="39.47766541" lon="-0.39473366"><ele>9.2</ele><time>2022-11-17T20:31:41.0000000+00:00</time></trkpt><trkpt lat="39.47766348" lon="-0.39470223"><ele>9.2</ele><time>2022-11-17T20:31:42.0000000+00:00</time></trkpt><trkpt lat="39.47767295" lon="-0.39468756"><ele>9.2</ele><time>2022-11-17T20:31:43.0000000+00:00</time></trkpt><trkpt lat="39.47767069" lon="-0.39467423"><ele>9.4</ele><time>2022-11-17T20:31:44.0000000+00:00</time></trkpt><trkpt lat="39.47767647" lon="-0.39466258"><ele>9.4</ele><time>2022-11-17T20:31:45.0000000+00:00</time></trkpt><trkpt lat="39.47767722" lon="-0.39465294"><ele>9.4</ele><time>2022-11-17T20:31:46.0000000+00:00</time></trkpt><trkpt lat="39.47768033" lon="-0.39464104"><ele>9.4</ele><time>2022-11-17T20:31:47.0000000+00:00</time></trkpt><trkpt lat="39.47766725" lon="-0.39462277"><ele>9.0</ele><time>2022-11-17T20:31:48.0000000+00:00</time></trkpt><trkpt lat="39.47765032" lon="-0.39460927"><ele>8.8</ele><time>2022-11-17T20:31:49.0000000+00:00</time></trkpt><trkpt lat="39.47764009" lon="-0.39460165"><ele>8.8</ele><time>2022-11-17T20:31:50.0000000+00:00</time></trkpt><trkpt lat="39.47763691" lon="-0.39459854"><ele>8.8</ele><time>2022-11-17T20:31:51.0000000+00:00</time></trkpt><trkpt lat="39.47763909" lon="-0.39460634"><ele>8.8</ele><time>2022-11-17T20:31:52.0000000+00:00</time></trkpt><trkpt lat="39.47763146" lon="-0.39461137"><ele>8.6</ele><time>2022-11-17T20:31:53.0000000+00:00</time></trkpt><trkpt lat="39.47762492" lon="-0.39460701"><ele>8.6</ele><time>2022-11-17T20:31:54.0000000+00:00</time></trkpt><trkpt lat="39.47763129" lon="-0.39459628"><ele>8.6</ele><time>2022-11-17T20:31:55.0000000+00:00</time></trkpt><trkpt lat="39.47763532" lon="-0.39458572"><ele>8.6</ele><time>2022-11-17T20:31:56.0000000+00:00</time></trkpt><trkpt lat="39.4776416" lon="-0.39457533"><ele>8.6</ele><time>2022-11-17T20:31:57.0000000+00:00</time></trkpt><trkpt lat="39.4776421" lon="-0.39456619"><ele>8.6</ele><time>2022-11-17T20:31:58.0000000+00:00</time></trkpt><trkpt lat="39.47763724" lon="-0.39456016"><ele>8.6</ele><time>2022-11-17T20:31:59.0000000+00:00</time></trkpt><trkpt lat="39.47763657" lon="-0.39455907"><ele>8.8</ele><time>2022-11-17T20:32:00.0000000+00:00</time></trkpt><trkpt lat="39.4776328" lon="-0.39455697"><ele>8.8</ele><time>2022-11-17T20:32:01.0000000+00:00</time></trkpt><trkpt lat="39.47762878" lon="-0.39455731"><ele>8.8</ele><time>2022-11-17T20:32:02.0000000+00:00</time></trkpt><trkpt lat="39.4776276" lon="-0.39455747"><ele>8.8</ele><time>2022-11-17T20:32:03.0000000+00:00</time></trkpt><trkpt lat="39.47762224" lon="-0.39455907"><ele>9.0</ele><time>2022-11-17T20:32:04.0000000+00:00</time></trkpt><trkpt lat="39.47762207" lon="-0.39455722"><ele>9.0</ele><time>2022-11-17T20:32:05.0000000+00:00</time></trkpt><trkpt lat="39.47762442" lon="-0.39455496"><ele>9.0</ele><time>2022-11-17T20:32:06.0000000+00:00</time></trkpt><trkpt lat="39.47762408" lon="-0.39455462"><ele>9.0</ele><time>2022-11-17T20:32:07.0000000+00:00</time></trkpt><trkpt lat="39.47761109" lon="-0.39455915"><ele>9.2</ele><time>2022-11-17T20:32:08.0000000+00:00</time></trkpt><trkpt lat="39.47760229" lon="-0.39456443"><ele>9.2</ele><time>2022-11-17T20:32:09.0000000+00:00</time></trkpt><trkpt lat="39.47759609" lon="-0.39456602"><ele>9.2</ele><time>2022-11-17T20:32:10.0000000+00:00</time></trkpt><trkpt lat="39.47758762" lon="-0.39456166"><ele>9.2</ele><time>2022-11-17T20:32:11.0000000+00:00</time></trkpt><trkpt lat="39.47757471" lon="-0.39455387"><ele>9.2</ele><time>2022-11-17T20:32:12.0000000+00:00</time></trkpt><trkpt lat="39.47756357" lon="-0.39454909"><ele>9.4</ele><time>2022-11-17T20:32:13.0000000+00:00</time></trkpt><trkpt lat="39.47754999" lon="-0.39454331"><ele>9.4</ele><time>2022-11-17T20:32:14.0000000+00:00</time></trkpt><trkpt lat="39.47753456" lon="-0.39453778"><ele>9.4</ele><time>2022-11-17T20:32:15.0000000+00:00</time></trkpt><trkpt lat="39.47752786" lon="-0.3945211"><ele>9.4</ele><time>2022-11-17T20:32:16.0000000+00:00</time></trkpt><trkpt lat="39.4775178" lon="-0.39449855"><ele>9.4</ele><time>2022-11-17T20:32:17.0000000+00:00</time></trkpt><trkpt lat="39.47750179" lon="-0.39447583"><ele>9.4</ele><time>2022-11-17T20:32:18.0000000+00:00</time></trkpt><trkpt lat="39.4775033" lon="-0.39446075"><ele>9.2</ele><time>2022-11-17T20:32:19.0000000+00:00</time></trkpt><trkpt lat="39.47749651" lon="-0.3944413"><ele>9.2</ele><time>2022-11-17T20:32:20.0000000+00:00</time></trkpt><trkpt lat="39.47749081" lon="-0.39442655"><ele>9.2</ele><time>2022-11-17T20:32:21.0000000+00:00</time></trkpt><trkpt lat="39.47749098" lon="-0.39441196"><ele>9.2</ele><time>2022-11-17T20:32:22.0000000+00:00</time></trkpt><trkpt lat="39.47748888" lon="-0.39440031"><ele>9.2</ele><time>2022-11-17T20:32:23.0000000+00:00</time></trkpt><trkpt lat="39.47747975" lon="-0.39439218"><ele>9.0</ele><time>2022-11-17T20:32:24.0000000+00:00</time></trkpt><trkpt lat="39.47748176" lon="-0.39438212"><ele>9.0</ele><time>2022-11-17T20:32:25.0000000+00:00</time></trkpt><trkpt lat="39.47748771" lon="-0.39437491"><ele>8.8</ele><time>2022-11-17T20:32:26.0000000+00:00</time></trkpt><trkpt lat="39.47748872" lon="-0.39437064"><ele>8.8</ele><time>2022-11-17T20:32:27.0000000+00:00</time></trkpt><trkpt lat="39.47749483" lon="-0.39436167"><ele>8.8</ele><time>2022-11-17T20:32:28.0000000+00:00</time></trkpt><trkpt lat="39.47749894" lon="-0.39434994"><ele>8.6</ele><time>2022-11-17T20:32:29.0000000+00:00</time></trkpt><trkpt lat="39.47749911" lon="-0.39433627"><ele>8.6</ele><time>2022-11-17T20:32:30.0000000+00:00</time></trkpt><trkpt lat="39.47750179" lon="-0.39432194"><ele>8.6</ele><time>2022-11-17T20:32:31.0000000+00:00</time></trkpt><trkpt lat="39.47750724" lon="-0.39430291"><ele>8.6</ele><time>2022-11-17T20:32:32.0000000+00:00</time></trkpt><trkpt lat="39.47751059" lon="-0.3942885"><ele>8.6</ele><time>2022-11-17T20:32:33.0000000+00:00</time></trkpt><trkpt lat="39.47750305" lon="-0.39428833"><ele>8.6</ele><time>2022-11-17T20:32:34.0000000+00:00</time></trkpt><trkpt lat="39.47750263" lon="-0.39426981"><ele>8.6</ele><time>2022-11-17T20:32:35.0000000+00:00</time></trkpt><trkpt lat="39.47750204" lon="-0.39424416"><ele>8.6</ele><time>2022-11-17T20:32:36.0000000+00:00</time></trkpt><trkpt lat="39.47751042" lon="-0.3942284"><ele>8.8</ele><time>2022-11-17T20:32:37.0000000+00:00</time></trkpt><trkpt lat="39.4775199" lon="-0.39421415"><ele>8.6</ele><time>2022-11-17T20:32:38.0000000+00:00</time></trkpt><trkpt lat="39.47753255" lon="-0.39419906"><ele>8.6</ele><time>2022-11-17T20:32:39.0000000+00:00</time></trkpt><trkpt lat="39.47754923" lon="-0.3941818"><ele>8.6</ele><time>2022-11-17T20:32:40.0000000+00:00</time></trkpt><trkpt lat="39.47756273" lon="-0.39415162"><ele>8.6</ele><time>2022-11-17T20:32:41.0000000+00:00</time></trkpt><trkpt lat="39.4775789" lon="-0.39413863"><ele>8.8</ele><time>2022-11-17T20:32:42.0000000+00:00</time></trkpt><trkpt lat="39.47758226" lon="-0.39412807"><ele>8.8</ele><time>2022-11-17T20:32:43.0000000+00:00</time></trkpt><trkpt lat="39.47759022" lon="-0.39411105"><ele>9.0</ele><time>2022-11-17T20:32:44.0000000+00:00</time></trkpt><trkpt lat="39.47761134" lon="-0.39408867"><ele>9.0</ele><time>2022-11-17T20:32:45.0000000+00:00</time></trkpt><trkpt lat="39.47763146" lon="-0.39407526"><ele>9.0</ele><time>2022-11-17T20:32:46.0000000+00:00</time></trkpt><trkpt lat="39.47765996" lon="-0.39406437"><ele>9.0</ele><time>2022-11-17T20:32:47.0000000+00:00</time></trkpt><trkpt lat="39.4776753" lon="-0.39405037"><ele>9.0</ele><time>2022-11-17T20:32:48.0000000+00:00</time></trkpt><trkpt lat="39.47769147" lon="-0.39403872"><ele>9.0</ele><time>2022-11-17T20:32:49.0000000+00:00</time></trkpt><trkpt lat="39.47771637" lon="-0.3940181"><ele>9.0</ele><time>2022-11-17T20:32:50.0000000+00:00</time></trkpt><trkpt lat="39.47773531" lon="-0.39399857"><ele>9.0</ele><time>2022-11-17T20:32:51.0000000+00:00</time></trkpt><trkpt lat="39.47774755" lon="-0.39397703"><ele>9.0</ele><time>2022-11-17T20:32:52.0000000+00:00</time></trkpt><trkpt lat="39.47775182" lon="-0.39395892"><ele>9.2</ele><time>2022-11-17T20:32:53.0000000+00:00</time></trkpt><trkpt lat="39.47774495" lon="-0.39394283"><ele>9.2</ele><time>2022-11-17T20:32:54.0000000+00:00</time></trkpt><trkpt lat="39.47774076" lon="-0.39392782"><ele>9.2</ele><time>2022-11-17T20:32:55.0000000+00:00</time></trkpt><trkpt lat="39.47773397" lon="-0.39391391"><ele>9.4</ele><time>2022-11-17T20:32:56.0000000+00:00</time></trkpt><trkpt lat="39.47773255" lon="-0.3938984"><ele>9.4</ele><time>2022-11-17T20:32:57.0000000+00:00</time></trkpt><trkpt lat="39.47773271" lon="-0.39388399"><ele>9.6</ele><time>2022-11-17T20:32:58.0000000+00:00</time></trkpt><trkpt lat="39.47773472" lon="-0.39386957"><ele>9.8</ele><time>2022-11-17T20:32:59.0000000+00:00</time></trkpt><trkpt lat="39.47773917" lon="-0.39385406"><ele>9.8</ele><time>2022-11-17T20:33:00.0000000+00:00</time></trkpt><trkpt lat="39.47774705" lon="-0.39383613"><ele>10.0</ele><time>2022-11-17T20:33:01.0000000+00:00</time></trkpt><trkpt lat="39.47775291" lon="-0.39381819"><ele>10.0</ele><time>2022-11-17T20:33:02.0000000+00:00</time></trkpt><trkpt lat="39.47775492" lon="-0.39380025"><ele>10.0</ele><time>2022-11-17T20:33:03.0000000+00:00</time></trkpt><trkpt lat="39.47775819" lon="-0.39378407"><ele>10.0</ele><time>2022-11-17T20:33:04.0000000+00:00</time></trkpt><trkpt lat="39.477768" lon="-0.39376983"><ele>10.0</ele><time>2022-11-17T20:33:05.0000000+00:00</time></trkpt><trkpt lat="39.47777211" lon="-0.39375952"><ele>9.8</ele><time>2022-11-17T20:33:06.0000000+00:00</time></trkpt><trkpt lat="39.47777965" lon="-0.39374795"><ele>9.6</ele><time>2022-11-17T20:33:07.0000000+00:00</time></trkpt><trkpt lat="39.47779717" lon="-0.39373295"><ele>9.4</ele><time>2022-11-17T20:33:08.0000000+00:00</time></trkpt><trkpt lat="39.47781276" lon="-0.39370822"><ele>9.2</ele><time>2022-11-17T20:33:09.0000000+00:00</time></trkpt><trkpt lat="39.47781326" lon="-0.39369347"><ele>9.0</ele><time>2022-11-17T20:33:10.0000000+00:00</time></trkpt><trkpt lat="39.47782391" lon="-0.39368291"><ele>9.0</ele><time>2022-11-17T20:33:11.0000000+00:00</time></trkpt><trkpt lat="39.47783816" lon="-0.39367092"><ele>9.2</ele><time>2022-11-17T20:33:12.0000000+00:00</time></trkpt><trkpt lat="39.4778452" lon="-0.3936539"><ele>9.4</ele><time>2022-11-17T20:33:13.0000000+00:00</time></trkpt><trkpt lat="39.47785249" lon="-0.3936358"><ele>9.6</ele><time>2022-11-17T20:33:14.0000000+00:00</time></trkpt><trkpt lat="39.47785936" lon="-0.39360814"><ele>9.8</ele><time>2022-11-17T20:33:15.0000000+00:00</time></trkpt><trkpt lat="39.47786096" lon="-0.39358375"><ele>9.8</ele><time>2022-11-17T20:33:16.0000000+00:00</time></trkpt><trkpt lat="39.47786967" lon="-0.39356262"><ele>9.8</ele><time>2022-11-17T20:33:17.0000000+00:00</time></trkpt><trkpt lat="39.47787244" lon="-0.39355206"><ele>9.8</ele><time>2022-11-17T20:33:18.0000000+00:00</time></trkpt><trkpt lat="39.4778861" lon="-0.39354125"><ele>9.6</ele><time>2022-11-17T20:33:19.0000000+00:00</time></trkpt><trkpt lat="39.47790882" lon="-0.39353706"><ele>9.6</ele><time>2022-11-17T20:33:20.0000000+00:00</time></trkpt><trkpt lat="39.47791711" lon="-0.39353404"><ele>9.6</ele><time>2022-11-17T20:33:21.0000000+00:00</time></trkpt><trkpt lat="39.47792483" lon="-0.39351963"><ele>9.4</ele><time>2022-11-17T20:33:22.0000000+00:00</time></trkpt><trkpt lat="39.47793153" lon="-0.39351242"><ele>9.4</ele><time>2022-11-17T20:33:23.0000000+00:00</time></trkpt><trkpt lat="39.47793312" lon="-0.39350362"><ele>9.4</ele><time>2022-11-17T20:33:24.0000000+00:00</time></trkpt><trkpt lat="39.47793522" lon="-0.39349138"><ele>9.4</ele><time>2022-11-17T20:33:25.0000000+00:00</time></trkpt><trkpt lat="39.47794033" lon="-0.39347998"><ele>9.4</ele><time>2022-11-17T20:33:26.0000000+00:00</time></trkpt><trkpt lat="39.47794855" lon="-0.39346791"><ele>9.4</ele><time>2022-11-17T20:33:27.0000000+00:00</time></trkpt><trkpt lat="39.477954" lon="-0.39345567"><ele>9.4</ele><time>2022-11-17T20:33:28.0000000+00:00</time></trkpt><trkpt lat="39.47795324" lon="-0.39344478"><ele>9.4</ele><time>2022-11-17T20:33:29.0000000+00:00</time></trkpt><trkpt lat="39.4779498" lon="-0.3934369"><ele>9.4</ele><time>2022-11-17T20:33:30.0000000+00:00</time></trkpt><trkpt lat="39.47795341" lon="-0.39341586"><ele>9.6</ele><time>2022-11-17T20:33:31.0000000+00:00</time></trkpt><trkpt lat="39.47795936" lon="-0.39339532"><ele>9.8</ele><time>2022-11-17T20:33:32.0000000+00:00</time></trkpt><trkpt lat="39.47796783" lon="-0.39337998"><ele>9.8</ele><time>2022-11-17T20:33:33.0000000+00:00</time></trkpt><trkpt lat="39.47797646" lon="-0.39336431"><ele>9.8</ele><time>2022-11-17T20:33:34.0000000+00:00</time></trkpt><trkpt lat="39.47798585" lon="-0.39335358"><ele>10.0</ele><time>2022-11-17T20:33:35.0000000+00:00</time></trkpt><trkpt lat="39.47799825" lon="-0.39334302"><ele>10.0</ele><time>2022-11-17T20:33:36.0000000+00:00</time></trkpt><trkpt lat="39.47800596" lon="-0.39332969"><ele>10.0</ele><time>2022-11-17T20:33:37.0000000+00:00</time></trkpt><trkpt lat="39.47801292" lon="-0.39331595"><ele>10.0</ele><time>2022-11-17T20:33:38.0000000+00:00</time></trkpt><trkpt lat="39.47801594" lon="-0.39329952"><ele>10.0</ele><time>2022-11-17T20:33:39.0000000+00:00</time></trkpt><trkpt lat="39.47801929" lon="-0.39328317"><ele>10.0</ele><time>2022-11-17T20:33:40.0000000+00:00</time></trkpt><trkpt lat="39.47802315" lon="-0.3932706"><ele>10.0</ele><time>2022-11-17T20:33:41.0000000+00:00</time></trkpt><trkpt lat="39.47802734" lon="-0.3932566"><ele>10.0</ele><time>2022-11-17T20:33:42.0000000+00:00</time></trkpt><trkpt lat="39.47803211" lon="-0.39324218"><ele>10.0</ele><time>2022-11-17T20:33:43.0000000+00:00</time></trkpt><trkpt lat="39.47804418" lon="-0.39323246"><ele>10.0</ele><time>2022-11-17T20:33:44.0000000+00:00</time></trkpt><trkpt lat="39.47805374" lon="-0.39321754"><ele>10.2</ele><time>2022-11-17T20:33:45.0000000+00:00</time></trkpt><trkpt lat="39.47806355" lon="-0.39320262"><ele>10.2</ele><time>2022-11-17T20:33:46.0000000+00:00</time></trkpt><trkpt lat="39.47807134" lon="-0.39318225"><ele>10.2</ele><time>2022-11-17T20:33:47.0000000+00:00</time></trkpt><trkpt lat="39.47808517" lon="-0.39316105"><ele>10.2</ele><time>2022-11-17T20:33:48.0000000+00:00</time></trkpt><trkpt lat="39.47809992" lon="-0.39314831"><ele>10.2</ele><time>2022-11-17T20:33:49.0000000+00:00</time></trkpt><trkpt lat="39.47810009" lon="-0.39313649"><ele>10.0</ele><time>2022-11-17T20:33:50.0000000+00:00</time></trkpt><trkpt lat="39.47810143" lon="-0.39312442"><ele>10.0</ele><time>2022-11-17T20:33:51.0000000+00:00</time></trkpt><trkpt lat="39.47810873" lon="-0.39310665"><ele>10.0</ele><time>2022-11-17T20:33:52.0000000+00:00</time></trkpt><trkpt lat="39.47814225" lon="-0.39308896"><ele>10.0</ele><time>2022-11-17T20:33:53.0000000+00:00</time></trkpt><trkpt lat="39.47814116" lon="-0.39306424"><ele>9.8</ele><time>2022-11-17T20:33:54.0000000+00:00</time></trkpt><trkpt lat="39.47813094" lon="-0.39304496"><ele>9.8</ele><time>2022-11-17T20:33:55.0000000+00:00</time></trkpt><trkpt lat="39.47812742" lon="-0.39302878"><ele>10.0</ele><time>2022-11-17T20:33:56.0000000+00:00</time></trkpt><trkpt lat="39.47812398" lon="-0.39302501"><ele>10.0</ele><time>2022-11-17T20:33:57.0000000+00:00</time></trkpt><trkpt lat="39.47813043" lon="-0.39301948"><ele>10.0</ele><time>2022-11-17T20:33:58.0000000+00:00</time></trkpt><trkpt lat="39.47813504" lon="-0.39300531"><ele>10.0</ele><time>2022-11-17T20:33:59.0000000+00:00</time></trkpt><trkpt lat="39.47813613" lon="-0.39299266"><ele>10.0</ele><time>2022-11-17T20:34:00.0000000+00:00</time></trkpt><trkpt lat="39.47814225" lon="-0.39298176"><ele>10.2</ele><time>2022-11-17T20:34:01.0000000+00:00</time></trkpt><trkpt lat="39.47815147" lon="-0.39296952"><ele>10.2</ele><time>2022-11-17T20:34:02.0000000+00:00</time></trkpt><trkpt lat="39.47816036" lon="-0.39294924"><ele>10.2</ele><time>2022-11-17T20:34:03.0000000+00:00</time></trkpt><trkpt lat="39.47817327" lon="-0.39293013"><ele>10.2</ele><time>2022-11-17T20:34:04.0000000+00:00</time></trkpt><trkpt lat="39.47818793" lon="-0.39291261"><ele>10.2</ele><time>2022-11-17T20:34:05.0000000+00:00</time></trkpt><trkpt lat="39.47820193" lon="-0.39288939"><ele>10.2</ele><time>2022-11-17T20:34:06.0000000+00:00</time></trkpt><trkpt lat="39.47820939" lon="-0.39286282"><ele>10.2</ele><time>2022-11-17T20:34:07.0000000+00:00</time></trkpt><trkpt lat="39.47821635" lon="-0.39283793"><ele>10.2</ele><time>2022-11-17T20:34:08.0000000+00:00</time></trkpt><trkpt lat="39.47822473" lon="-0.39282284"><ele>10.2</ele><time>2022-11-17T20:34:09.0000000+00:00</time></trkpt><trkpt lat="39.47823068" lon="-0.39280389"><ele>10.2</ele><time>2022-11-17T20:34:10.0000000+00:00</time></trkpt><trkpt lat="39.47823999" lon="-0.39279342"><ele>10.0</ele><time>2022-11-17T20:34:11.0000000+00:00</time></trkpt><trkpt lat="39.4782508" lon="-0.39277791"><ele>10.0</ele><time>2022-11-17T20:34:12.0000000+00:00</time></trkpt><trkpt lat="39.47826974" lon="-0.392765"><ele>10.0</ele><time>2022-11-17T20:34:13.0000000+00:00</time></trkpt><trkpt lat="39.47827946" lon="-0.39275209"><ele>10.0</ele><time>2022-11-17T20:34:14.0000000+00:00</time></trkpt><trkpt lat="39.47829623" lon="-0.39273952"><ele>10.0</ele><time>2022-11-17T20:34:15.0000000+00:00</time></trkpt><trkpt lat="39.47830042" lon="-0.39271262"><ele>10.0</ele><time>2022-11-17T20:34:16.0000000+00:00</time></trkpt><trkpt lat="39.47830863" lon="-0.39269485"><ele>10.0</ele><time>2022-11-17T20:34:17.0000000+00:00</time></trkpt><trkpt lat="39.47831509" lon="-0.39266559"><ele>10.2</ele><time>2022-11-17T20:34:18.0000000+00:00</time></trkpt><trkpt lat="39.47833244" lon="-0.39264388"><ele>10.2</ele><time>2022-11-17T20:34:19.0000000+00:00</time></trkpt><trkpt lat="39.47833722" lon="-0.39262905"><ele>10.2</ele><time>2022-11-17T20:34:20.0000000+00:00</time></trkpt><trkpt lat="39.47834007" lon="-0.39262075"><ele>10.4</ele><time>2022-11-17T20:34:21.0000000+00:00</time></trkpt><trkpt lat="39.47834065" lon="-0.39260709"><ele>10.6</ele><time>2022-11-17T20:34:22.0000000+00:00</time></trkpt><trkpt lat="39.47833168" lon="-0.39258798"><ele>10.6</ele><time>2022-11-17T20:34:23.0000000+00:00</time></trkpt><trkpt lat="39.47832942" lon="-0.39257373"><ele>10.8</ele><time>2022-11-17T20:34:24.0000000+00:00</time></trkpt><trkpt lat="39.47833546" lon="-0.39255889"><ele>10.8</ele><time>2022-11-17T20:34:25.0000000+00:00</time></trkpt><trkpt lat="39.47833814" lon="-0.39254305"><ele>10.8</ele><time>2022-11-17T20:34:26.0000000+00:00</time></trkpt><trkpt lat="39.47833881" lon="-0.39252444"><ele>10.8</ele><time>2022-11-17T20:34:27.0000000+00:00</time></trkpt><trkpt lat="39.47834459" lon="-0.39250944"><ele>10.6</ele><time>2022-11-17T20:34:28.0000000+00:00</time></trkpt><trkpt lat="39.47834099" lon="-0.39249267"><ele>10.6</ele><time>2022-11-17T20:34:29.0000000+00:00</time></trkpt><trkpt lat="39.4783497" lon="-0.39247641"><ele>10.6</ele><time>2022-11-17T20:34:30.0000000+00:00</time></trkpt><trkpt lat="39.4783658" lon="-0.39246317"><ele>10.4</ele><time>2022-11-17T20:34:31.0000000+00:00</time></trkpt><trkpt lat="39.47838315" lon="-0.39245294"><ele>10.4</ele><time>2022-11-17T20:34:32.0000000+00:00</time></trkpt><trkpt lat="39.47839849" lon="-0.39244431"><ele>10.4</ele><time>2022-11-17T20:34:33.0000000+00:00</time></trkpt><trkpt lat="39.47841542" lon="-0.39241933"><ele>10.2</ele><time>2022-11-17T20:34:34.0000000+00:00</time></trkpt><trkpt lat="39.47844442" lon="-0.39239645"><ele>10.2</ele><time>2022-11-17T20:34:35.0000000+00:00</time></trkpt><trkpt lat="39.47845926" lon="-0.39237642"><ele>10.2</ele><time>2022-11-17T20:34:36.0000000+00:00</time></trkpt><trkpt lat="39.47844836" lon="-0.39237172"><ele>10.2</ele><time>2022-11-17T20:34:37.0000000+00:00</time></trkpt><trkpt lat="39.47841961" lon="-0.39236611"><ele>10.2</ele><time>2022-11-17T20:34:38.0000000+00:00</time></trkpt><trkpt lat="39.47842212" lon="-0.39236452"><ele>10.2</ele><time>2022-11-17T20:34:39.0000000+00:00</time></trkpt><trkpt lat="39.47842523" lon="-0.39236862"><ele>10.0</ele><time>2022-11-17T20:34:40.0000000+00:00</time></trkpt><trkpt lat="39.47841969" lon="-0.3923615"><ele>9.4</ele><time>2022-11-17T20:34:41.0000000+00:00</time></trkpt><trkpt lat="39.47841366" lon="-0.39234415"><ele>8.8</ele><time>2022-11-17T20:34:42.0000000+00:00</time></trkpt><trkpt lat="39.47839782" lon="-0.39233048"><ele>8.6</ele><time>2022-11-17T20:34:43.0000000+00:00</time></trkpt><trkpt lat="39.47839513" lon="-0.3923164"><ele>8.4</ele><time>2022-11-17T20:34:44.0000000+00:00</time></trkpt><trkpt lat="39.47840435" lon="-0.39230609"><ele>8.2</ele><time>2022-11-17T20:34:45.0000000+00:00</time></trkpt><trkpt lat="39.47840838" lon="-0.39228447"><ele>7.8</ele><time>2022-11-17T20:34:46.0000000+00:00</time></trkpt><trkpt lat="39.47841936" lon="-0.39225438"><ele>7.4</ele><time>2022-11-17T20:34:47.0000000+00:00</time></trkpt><trkpt lat="39.47842766" lon="-0.39222554"><ele>7.2</ele><time>2022-11-17T20:34:48.0000000+00:00</time></trkpt><trkpt lat="39.47842598" lon="-0.39221431"><ele>7.0</ele><time>2022-11-17T20:34:49.0000000+00:00</time></trkpt><trkpt lat="39.47841534" lon="-0.39222219"><ele>6.8</ele><time>2022-11-17T20:34:50.0000000+00:00</time></trkpt><trkpt lat="39.47839363" lon="-0.39222864"><ele>6.8</ele><time>2022-11-17T20:34:51.0000000+00:00</time></trkpt><trkpt lat="39.47839337" lon="-0.39222714"><ele>6.6</ele><time>2022-11-17T20:34:52.0000000+00:00</time></trkpt><trkpt lat="39.47838399" lon="-0.39222647"><ele>6.6</ele><time>2022-11-17T20:34:53.0000000+00:00</time></trkpt><trkpt lat="39.47836865" lon="-0.39221247"><ele>6.4</ele><time>2022-11-17T20:34:54.0000000+00:00</time></trkpt><trkpt lat="39.47836571" lon="-0.39220291"><ele>6.0</ele><time>2022-11-17T20:34:55.0000000+00:00</time></trkpt><trkpt lat="39.47836513" lon="-0.39218908"><ele>5.8</ele><time>2022-11-17T20:34:56.0000000+00:00</time></trkpt><trkpt lat="39.47836965" lon="-0.39217785"><ele>5.8</ele><time>2022-11-17T20:34:57.0000000+00:00</time></trkpt><trkpt lat="39.47837125" lon="-0.39217341"><ele>5.8</ele><time>2022-11-17T20:34:58.0000000+00:00</time></trkpt><trkpt lat="39.47836915" lon="-0.39217056"><ele>5.6</ele><time>2022-11-17T20:34:59.0000000+00:00</time></trkpt><trkpt lat="39.47835884" lon="-0.39216897"><ele>5.4</ele><time>2022-11-17T20:35:00.0000000+00:00</time></trkpt><trkpt lat="39.47834627" lon="-0.39216779"><ele>5.4</ele><time>2022-11-17T20:35:01.0000000+00:00</time></trkpt><trkpt lat="39.47832339" lon="-0.39216855"><ele>5.4</ele><time>2022-11-17T20:35:02.0000000+00:00</time></trkpt><trkpt lat="39.47831425" lon="-0.39216343"><ele>5.2</ele><time>2022-11-17T20:35:03.0000000+00:00</time></trkpt><trkpt lat="39.47830277" lon="-0.39215857"><ele>5.4</ele><time>2022-11-17T20:35:04.0000000+00:00</time></trkpt><trkpt lat="39.47829246" lon="-0.3921553"><ele>5.4</ele><time>2022-11-17T20:35:05.0000000+00:00</time></trkpt><trkpt lat="39.47829162" lon="-0.3921496"><ele>5.4</ele><time>2022-11-17T20:35:06.0000000+00:00</time></trkpt><trkpt lat="39.47829573" lon="-0.3921491"><ele>5.4</ele><time>2022-11-17T20:35:07.0000000+00:00</time></trkpt><trkpt lat="39.47829925" lon="-0.39214541"><ele>5.4</ele><time>2022-11-17T20:35:08.0000000+00:00</time></trkpt><trkpt lat="39.47829891" lon="-0.39214759"><ele>5.4</ele><time>2022-11-17T20:35:09.0000000+00:00</time></trkpt><trkpt lat="39.47828441" lon="-0.39214851"><ele>5.2</ele><time>2022-11-17T20:35:10.0000000+00:00</time></trkpt><trkpt lat="39.47826119" lon="-0.39214801"><ele>5.2</ele><time>2022-11-17T20:35:11.0000000+00:00</time></trkpt><trkpt lat="39.47823261" lon="-0.39214759"><ele>5.2</ele><time>2022-11-17T20:35:12.0000000+00:00</time></trkpt><trkpt lat="39.47821928" lon="-0.39213452"><ele>5.2</ele><time>2022-11-17T20:35:13.0000000+00:00</time></trkpt><trkpt lat="39.47821744" lon="-0.39211096"><ele>5.2</ele><time>2022-11-17T20:35:14.0000000+00:00</time></trkpt><trkpt lat="39.47819967" lon="-0.39209076"><ele>5.2</ele><time>2022-11-17T20:35:15.0000000+00:00</time></trkpt><trkpt lat="39.4781902" lon="-0.39207668"><ele>5.2</ele><time>2022-11-17T20:35:16.0000000+00:00</time></trkpt><trkpt lat="39.47817352" lon="-0.39206402"><ele>5.2</ele><time>2022-11-17T20:35:17.0000000+00:00</time></trkpt><trkpt lat="39.47817477" lon="-0.39205204"><ele>5.2</ele><time>2022-11-17T20:35:18.0000000+00:00</time></trkpt><trkpt lat="39.4781731" lon="-0.3920367"><ele>5.4</ele><time>2022-11-17T20:35:19.0000000+00:00</time></trkpt><trkpt lat="39.47816731" lon="-0.39202312"><ele>5.4</ele><time>2022-11-17T20:35:20.0000000+00:00</time></trkpt><trkpt lat="39.4781591" lon="-0.39200971"><ele>5.4</ele><time>2022-11-17T20:35:21.0000000+00:00</time></trkpt><trkpt lat="39.478142" lon="-0.39199437"><ele>5.6</ele><time>2022-11-17T20:35:22.0000000+00:00</time></trkpt><trkpt lat="39.47814284" lon="-0.39197543"><ele>5.6</ele><time>2022-11-17T20:35:23.0000000+00:00</time></trkpt><trkpt lat="39.47813781" lon="-0.39195053"><ele>5.8</ele><time>2022-11-17T20:35:24.0000000+00:00</time></trkpt><trkpt lat="39.47812926" lon="-0.39192681"><ele>5.8</ele><time>2022-11-17T20:35:25.0000000+00:00</time></trkpt><trkpt lat="39.47812725" lon="-0.39190653"><ele>5.8</ele><time>2022-11-17T20:35:26.0000000+00:00</time></trkpt><trkpt lat="39.47812247" lon="-0.3918865"><ele>6.0</ele><time>2022-11-17T20:35:27.0000000+00:00</time></trkpt><trkpt lat="39.478113" lon="-0.39186537"><ele>6.0</ele><time>2022-11-17T20:35:28.0000000+00:00</time></trkpt><trkpt lat="39.47810261" lon="-0.39185062"><ele>6.0</ele><time>2022-11-17T20:35:29.0000000+00:00</time></trkpt><trkpt lat="39.47809523" lon="-0.39183637"><ele>6.0</ele><time>2022-11-17T20:35:30.0000000+00:00</time></trkpt><trkpt lat="39.47808551" lon="-0.39182229"><ele>6.0</ele><time>2022-11-17T20:35:31.0000000+00:00</time></trkpt><trkpt lat="39.47806791" lon="-0.39181114"><ele>6.0</ele><time>2022-11-17T20:35:32.0000000+00:00</time></trkpt><trkpt lat="39.4780534" lon="-0.39180134"><ele>6.0</ele><time>2022-11-17T20:35:33.0000000+00:00</time></trkpt><trkpt lat="39.47804293" lon="-0.39178952"><ele>6.0</ele><time>2022-11-17T20:35:34.0000000+00:00</time></trkpt><trkpt lat="39.47803765" lon="-0.39177468"><ele>6.0</ele><time>2022-11-17T20:35:35.0000000+00:00</time></trkpt><trkpt lat="39.47804309" lon="-0.39175859"><ele>6.0</ele><time>2022-11-17T20:35:36.0000000+00:00</time></trkpt><trkpt lat="39.47805902" lon="-0.39173487"><ele>6.0</ele><time>2022-11-17T20:35:37.0000000+00:00</time></trkpt><trkpt lat="39.47806313" lon="-0.39171316"><ele>6.0</ele><time>2022-11-17T20:35:38.0000000+00:00</time></trkpt><trkpt lat="39.47804871" lon="-0.39169799"><ele>6.0</ele><time>2022-11-17T20:35:39.0000000+00:00</time></trkpt><trkpt lat="39.47803513" lon="-0.39168365"><ele>6.0</ele><time>2022-11-17T20:35:40.0000000+00:00</time></trkpt><trkpt lat="39.47802239" lon="-0.39167225"><ele>6.0</ele><time>2022-11-17T20:35:41.0000000+00:00</time></trkpt><trkpt lat="39.47801141" lon="-0.39166203"><ele>6.0</ele><time>2022-11-17T20:35:42.0000000+00:00</time></trkpt><trkpt lat="39.47800647" lon="-0.39164904"><ele>6.0</ele><time>2022-11-17T20:35:43.0000000+00:00</time></trkpt><trkpt lat="39.47799926" lon="-0.39163495"><ele>6.0</ele><time>2022-11-17T20:35:44.0000000+00:00</time></trkpt><trkpt lat="39.47799289" lon="-0.39162364"><ele>6.0</ele><time>2022-11-17T20:35:45.0000000+00:00</time></trkpt><trkpt lat="39.47798853" lon="-0.39161283"><ele>6.0</ele><time>2022-11-17T20:35:46.0000000+00:00</time></trkpt><trkpt lat="39.47798643" lon="-0.39160201"><ele>6.0</ele><time>2022-11-17T20:35:47.0000000+00:00</time></trkpt><trkpt lat="39.47798375" lon="-0.39158735"><ele>6.0</ele><time>2022-11-17T20:35:48.0000000+00:00</time></trkpt><trkpt lat="39.47798057" lon="-0.39157067"><ele>6.0</ele><time>2022-11-17T20:35:49.0000000+00:00</time></trkpt><trkpt lat="39.47797411" lon="-0.391556"><ele>6.0</ele><time>2022-11-17T20:35:50.0000000+00:00</time></trkpt><trkpt lat="39.47796883" lon="-0.39153948"><ele>6.2</ele><time>2022-11-17T20:35:51.0000000+00:00</time></trkpt><trkpt lat="39.47796129" lon="-0.3915223"><ele>6.4</ele><time>2022-11-17T20:35:52.0000000+00:00</time></trkpt><trkpt lat="39.47795358" lon="-0.39150654"><ele>6.4</ele><time>2022-11-17T20:35:53.0000000+00:00</time></trkpt><trkpt lat="39.47794318" lon="-0.39148986"><ele>6.8</ele><time>2022-11-17T20:35:54.0000000+00:00</time></trkpt><trkpt lat="39.47792659" lon="-0.39147318"><ele>6.8</ele><time>2022-11-17T20:35:55.0000000+00:00</time></trkpt><trkpt lat="39.47792265" lon="-0.39145156"><ele>7.0</ele><time>2022-11-17T20:35:56.0000000+00:00</time></trkpt><trkpt lat="39.47792164" lon="-0.39142851"><ele>7.0</ele><time>2022-11-17T20:35:57.0000000+00:00</time></trkpt><trkpt lat="39.47791929" lon="-0.39140915"><ele>7.0</ele><time>2022-11-17T20:35:58.0000000+00:00</time></trkpt><trkpt lat="39.47791837" lon="-0.39138945"><ele>7.0</ele><time>2022-11-17T20:35:59.0000000+00:00</time></trkpt><trkpt lat="39.47791334" lon="-0.3913716"><ele>7.0</ele><time>2022-11-17T20:36:00.0000000+00:00</time></trkpt><trkpt lat="39.47789599" lon="-0.39135374"><ele>7.0</ele><time>2022-11-17T20:36:01.0000000+00:00</time></trkpt><trkpt lat="39.47788124" lon="-0.39133815"><ele>6.8</ele><time>2022-11-17T20:36:02.0000000+00:00</time></trkpt><trkpt lat="39.47786942" lon="-0.39132424"><ele>6.8</ele><time>2022-11-17T20:36:03.0000000+00:00</time></trkpt><trkpt lat="39.47785869" lon="-0.39131066"><ele>6.6</ele><time>2022-11-17T20:36:04.0000000+00:00</time></trkpt><trkpt lat="39.47785492" lon="-0.39129339"><ele>6.6</ele><time>2022-11-17T20:36:05.0000000+00:00</time></trkpt><trkpt lat="39.4778488" lon="-0.39128157"><ele>6.6</ele><time>2022-11-17T20:36:06.0000000+00:00</time></trkpt><trkpt lat="39.4778426" lon="-0.39126967"><ele>6.4</ele><time>2022-11-17T20:36:07.0000000+00:00</time></trkpt><trkpt lat="39.47783791" lon="-0.3912576"><ele>6.2</ele><time>2022-11-17T20:36:08.0000000+00:00</time></trkpt><trkpt lat="39.47782835" lon="-0.39124251"><ele>6.0</ele><time>2022-11-17T20:36:09.0000000+00:00</time></trkpt><trkpt lat="39.47782282" lon="-0.39122139"><ele>6.0</ele><time>2022-11-17T20:36:10.0000000+00:00</time></trkpt><trkpt lat="39.47781955" lon="-0.39120278"><ele>6.0</ele><time>2022-11-17T20:36:11.0000000+00:00</time></trkpt><trkpt lat="39.47780999" lon="-0.391183"><ele>6.0</ele><time>2022-11-17T20:36:12.0000000+00:00</time></trkpt><trkpt lat="39.47779843" lon="-0.39116683"><ele>6.0</ele><time>2022-11-17T20:36:13.0000000+00:00</time></trkpt><trkpt lat="39.47779281" lon="-0.39115073"><ele>6.0</ele><time>2022-11-17T20:36:14.0000000+00:00</time></trkpt><trkpt lat="39.47778803" lon="-0.39113288"><ele>6.2</ele><time>2022-11-17T20:36:15.0000000+00:00</time></trkpt><trkpt lat="39.47779725" lon="-0.39110228"><ele>6.2</ele><time>2022-11-17T20:36:16.0000000+00:00</time></trkpt><trkpt lat="39.47780212" lon="-0.3910618"><ele>6.2</ele><time>2022-11-17T20:36:17.0000000+00:00</time></trkpt><trkpt lat="39.47780446" lon="-0.39103439"><ele>6.2</ele><time>2022-11-17T20:36:18.0000000+00:00</time></trkpt><trkpt lat="39.47780547" lon="-0.3910095"><ele>6.2</ele><time>2022-11-17T20:36:19.0000000+00:00</time></trkpt><trkpt lat="39.47780195" lon="-0.390981"><ele>6.2</ele><time>2022-11-17T20:36:20.0000000+00:00</time></trkpt><trkpt lat="39.47779834" lon="-0.39097404"><ele>6.2</ele><time>2022-11-17T20:36:21.0000000+00:00</time></trkpt><trkpt lat="39.47779968" lon="-0.39096189"><ele>6.0</ele><time>2022-11-17T20:36:22.0000000+00:00</time></trkpt><trkpt lat="39.47779792" lon="-0.39094487"><ele>6.0</ele><time>2022-11-17T20:36:23.0000000+00:00</time></trkpt><trkpt lat="39.47779968" lon="-0.39093188"><ele>6.0</ele><time>2022-11-17T20:36:24.0000000+00:00</time></trkpt><trkpt lat="39.47779759" lon="-0.39091948"><ele>6.0</ele><time>2022-11-17T20:36:25.0000000+00:00</time></trkpt><trkpt lat="39.47779667" lon="-0.39091411"><ele>6.0</ele><time>2022-11-17T20:36:26.0000000+00:00</time></trkpt><trkpt lat="39.47779072" lon="-0.39090791"><ele>5.8</ele><time>2022-11-17T20:36:27.0000000+00:00</time></trkpt><trkpt lat="39.47778828" lon="-0.39089483"><ele>5.8</ele><time>2022-11-17T20:36:28.0000000+00:00</time></trkpt><trkpt lat="39.47778711" lon="-0.39087555"><ele>5.8</ele><time>2022-11-17T20:36:29.0000000+00:00</time></trkpt><trkpt lat="39.47779172" lon="-0.39085183"><ele>5.8</ele><time>2022-11-17T20:36:30.0000000+00:00</time></trkpt><trkpt lat="39.47779038" lon="-0.3908406"><ele>5.8</ele><time>2022-11-17T20:36:31.0000000+00:00</time></trkpt><trkpt lat="39.47778359" lon="-0.39082862"><ele>5.8</ele><time>2022-11-17T20:36:32.0000000+00:00</time></trkpt><trkpt lat="39.47777546" lon="-0.39081411"><ele>5.8</ele><time>2022-11-17T20:36:33.0000000+00:00</time></trkpt><trkpt lat="39.47776842" lon="-0.39080154"><ele>5.8</ele><time>2022-11-17T20:36:34.0000000+00:00</time></trkpt><trkpt lat="39.47776238" lon="-0.39078671"><ele>5.8</ele><time>2022-11-17T20:36:35.0000000+00:00</time></trkpt><trkpt lat="39.47775669" lon="-0.39077061"><ele>5.8</ele><time>2022-11-17T20:36:36.0000000+00:00</time></trkpt><trkpt lat="39.47775166" lon="-0.39074974"><ele>5.8</ele><time>2022-11-17T20:36:37.0000000+00:00</time></trkpt><trkpt lat="39.47774897" lon="-0.39073348"><ele>5.8</ele><time>2022-11-17T20:36:38.0000000+00:00</time></trkpt><trkpt lat="39.4777473" lon="-0.39071772"><ele>5.8</ele><time>2022-11-17T20:36:39.0000000+00:00</time></trkpt><trkpt lat="39.47774881" lon="-0.39070373"><ele>5.8</ele><time>2022-11-17T20:36:40.0000000+00:00</time></trkpt><trkpt lat="39.47775023" lon="-0.39069316"><ele>5.8</ele><time>2022-11-17T20:36:41.0000000+00:00</time></trkpt><trkpt lat="39.4777473" lon="-0.39068"><ele>5.8</ele><time>2022-11-17T20:36:42.0000000+00:00</time></trkpt><trkpt lat="39.47774235" lon="-0.39066399"><ele>5.8</ele><time>2022-11-17T20:36:43.0000000+00:00</time></trkpt><trkpt lat="39.47774168" lon="-0.39065159"><ele>5.8</ele><time>2022-11-17T20:36:44.0000000+00:00</time></trkpt><trkpt lat="39.47774445" lon="-0.39063902"><ele>5.8</ele><time>2022-11-17T20:36:45.0000000+00:00</time></trkpt><trkpt lat="39.47774084" lon="-0.39062787"><ele>5.8</ele><time>2022-11-17T20:36:46.0000000+00:00</time></trkpt><trkpt lat="39.47773984" lon="-0.3906427"><ele>5.6</ele><time>2022-11-17T20:36:47.0000000+00:00</time></trkpt><trkpt lat="39.47773908" lon="-0.39065151"><ele>5.6</ele><time>2022-11-17T20:36:48.0000000+00:00</time></trkpt><trkpt lat="39.47779893" lon="-0.38992203"><ele>4.8</ele><time>2022-11-17T20:37:20.0000000+00:00</time></trkpt><trkpt lat="39.47777035" lon="-0.38997307"><ele>4.8</ele><time>2022-11-17T20:37:21.0000000+00:00</time></trkpt><trkpt lat="39.47771075" lon="-0.38999923"><ele>5.0</ele><time>2022-11-17T20:37:22.0000000+00:00</time></trkpt><trkpt lat="39.4776929" lon="-0.3899802"><ele>5.0</ele><time>2022-11-17T20:37:23.0000000+00:00</time></trkpt><trkpt lat="39.47770086" lon="-0.38997551"><ele>5.0</ele><time>2022-11-17T20:37:24.0000000+00:00</time></trkpt><trkpt lat="39.47767957" lon="-0.38996805"><ele>5.0</ele><time>2022-11-17T20:37:25.0000000+00:00</time></trkpt><trkpt lat="39.4776758" lon="-0.3899605"><ele>5.0</ele><time>2022-11-17T20:37:26.0000000+00:00</time></trkpt><trkpt lat="39.47767538" lon="-0.38994324"><ele>5.0</ele><time>2022-11-17T20:37:27.0000000+00:00</time></trkpt><trkpt lat="39.4776784" lon="-0.38992371"><ele>5.0</ele><time>2022-11-17T20:37:28.0000000+00:00</time></trkpt><trkpt lat="39.47767035" lon="-0.38990929"><ele>5.2</ele><time>2022-11-17T20:37:29.0000000+00:00</time></trkpt><trkpt lat="39.47767781" lon="-0.389889"><ele>5.0</ele><time>2022-11-17T20:37:30.0000000+00:00</time></trkpt><trkpt lat="39.47766993" lon="-0.3898797"><ele>5.0</ele><time>2022-11-17T20:37:31.0000000+00:00</time></trkpt><trkpt lat="39.47767161" lon="-0.38986403"><ele>5.0</ele><time>2022-11-17T20:37:32.0000000+00:00</time></trkpt><trkpt lat="39.47767287" lon="-0.38985028"><ele>5.0</ele><time>2022-11-17T20:37:33.0000000+00:00</time></trkpt><trkpt lat="39.47767848" lon="-0.38983561"><ele>5.0</ele><time>2022-11-17T20:37:34.0000000+00:00</time></trkpt><trkpt lat="39.47768318" lon="-0.3898253"><ele>5.0</ele><time>2022-11-17T20:37:35.0000000+00:00</time></trkpt><trkpt lat="39.4777017" lon="-0.38981457"><ele>5.0</ele><time>2022-11-17T20:37:36.0000000+00:00</time></trkpt><trkpt lat="39.47770958" lon="-0.38980996"><ele>5.0</ele><time>2022-11-17T20:37:37.0000000+00:00</time></trkpt><trkpt lat="39.47771536" lon="-0.38980736"><ele>5.0</ele><time>2022-11-17T20:37:38.0000000+00:00</time></trkpt><trkpt lat="39.47771075" lon="-0.38980384"><ele>5.0</ele><time>2022-11-17T20:37:39.0000000+00:00</time></trkpt><trkpt lat="39.4777079" lon="-0.38980435"><ele>5.0</ele><time>2022-11-17T20:37:40.0000000+00:00</time></trkpt><trkpt lat="39.47770807" lon="-0.3898051"><ele>4.8</ele><time>2022-11-17T20:37:41.0000000+00:00</time></trkpt><trkpt lat="39.47769206" lon="-0.38980309"><ele>4.8</ele><time>2022-11-17T20:37:42.0000000+00:00</time></trkpt><trkpt lat="39.47770681" lon="-0.38980141"><ele>4.8</ele><time>2022-11-17T20:37:43.0000000+00:00</time></trkpt><trkpt lat="39.47770966" lon="-0.38979697"><ele>4.6</ele><time>2022-11-17T20:37:44.0000000+00:00</time></trkpt><trkpt lat="39.47771134" lon="-0.3897942"><ele>4.6</ele><time>2022-11-17T20:37:45.0000000+00:00</time></trkpt><trkpt lat="39.47771234" lon="-0.38979211"><ele>4.6</ele><time>2022-11-17T20:37:46.0000000+00:00</time></trkpt><trkpt lat="39.47771218" lon="-0.38978959"><ele>4.6</ele><time>2022-11-17T20:37:47.0000000+00:00</time></trkpt><trkpt lat="39.47770966" lon="-0.38978859"><ele>4.6</ele><time>2022-11-17T20:37:48.0000000+00:00</time></trkpt><trkpt lat="39.47770882" lon="-0.38978725"><ele>4.6</ele><time>2022-11-17T20:37:49.0000000+00:00</time></trkpt><trkpt lat="39.4777095" lon="-0.38978607"><ele>4.6</ele><time>2022-11-17T20:37:50.0000000+00:00</time></trkpt><trkpt lat="39.47771553" lon="-0.38977945"><ele>4.6</ele><time>2022-11-17T20:37:51.0000000+00:00</time></trkpt><trkpt lat="39.47771553" lon="-0.38977945"><ele>4.6</ele><time>2022-11-17T20:37:52.0000000+00:00</time></trkpt><trkpt lat="39.47771553" lon="-0.38977945"><ele>4.6</ele><time>2022-11-17T20:37:53.0000000+00:00</time></trkpt><trkpt lat="39.47771553" lon="-0.38977945"><ele>4.6</ele><time>2022-11-17T20:37:54.0000000+00:00</time></trkpt><trkpt lat="39.47771553" lon="-0.38977945"><ele>4.6</ele><time>2022-11-17T20:37:55.0000000+00:00</time></trkpt><trkpt lat="39.47771553" lon="-0.38977945"><ele>4.4</ele><time>2022-11-17T20:37:56.0000000+00:00</time></trkpt><trkpt lat="39.47771553" lon="-0.38977945"><ele>4.4</ele><time>2022-11-17T20:37:57.0000000+00:00</time></trkpt><trkpt lat="39.47771553" lon="-0.38977945"><ele>4.4</ele><time>2022-11-17T20:37:58.0000000+00:00</time></trkpt><trkpt lat="39.47771553" lon="-0.38977945"><ele>4.2</ele><time>2022-11-17T20:37:59.0000000+00:00</time></trkpt><trkpt lat="39.47771553" lon="-0.38977945"><ele>4.2</ele><time>2022-11-17T20:38:00.0000000+00:00</time></trkpt><trkpt lat="39.47772039" lon="-0.38977736"><ele>4.2</ele><time>2022-11-17T20:38:01.0000000+00:00</time></trkpt><trkpt lat="39.47772802" lon="-0.38977275"><ele>4.2</ele><time>2022-11-17T20:38:02.0000000+00:00</time></trkpt><trkpt lat="39.47773456" lon="-0.38977048"><ele>4.2</ele><time>2022-11-17T20:38:03.0000000+00:00</time></trkpt><trkpt lat="39.47773984" lon="-0.38976889"><ele>4.4</ele><time>2022-11-17T20:38:04.0000000+00:00</time></trkpt><trkpt lat="39.4777452" lon="-0.38976722"><ele>4.4</ele><time>2022-11-17T20:38:05.0000000+00:00</time></trkpt><trkpt lat="39.47775006" lon="-0.38976587"><ele>4.6</ele><time>2022-11-17T20:38:06.0000000+00:00</time></trkpt><trkpt lat="39.47775576" lon="-0.3897642"><ele>4.6</ele><time>2022-11-17T20:38:07.0000000+00:00</time></trkpt><trkpt lat="39.47775886" lon="-0.38976202"><ele>4.6</ele><time>2022-11-17T20:38:08.0000000+00:00</time></trkpt><trkpt lat="39.47776289" lon="-0.38975816"><ele>4.6</ele><time>2022-11-17T20:38:09.0000000+00:00</time></trkpt><trkpt lat="39.47776641" lon="-0.38975498"><ele>4.6</ele><time>2022-11-17T20:38:10.0000000+00:00</time></trkpt><trkpt lat="39.4777654" lon="-0.38975397"><ele>4.6</ele><time>2022-11-17T20:38:11.0000000+00:00</time></trkpt><trkpt lat="39.47776381" lon="-0.38975556"><ele>4.6</ele><time>2022-11-17T20:38:12.0000000+00:00</time></trkpt><trkpt lat="39.47776976" lon="-0.3897507"><ele>4.6</ele><time>2022-11-17T20:38:13.0000000+00:00</time></trkpt><trkpt lat="39.47777353" lon="-0.389745"><ele>4.6</ele><time>2022-11-17T20:38:14.0000000+00:00</time></trkpt><trkpt lat="39.47777529" lon="-0.38973838"><ele>4.6</ele><time>2022-11-17T20:38:15.0000000+00:00</time></trkpt><trkpt lat="39.47777504" lon="-0.38973092"><ele>4.6</ele><time>2022-11-17T20:38:16.0000000+00:00</time></trkpt><trkpt lat="39.47777538" lon="-0.38972748"><ele>4.6</ele><time>2022-11-17T20:38:17.0000000+00:00</time></trkpt><trkpt lat="39.47777647" lon="-0.38971491"><ele>4.6</ele><time>2022-11-17T20:38:18.0000000+00:00</time></trkpt><trkpt lat="39.47777538" lon="-0.38970217"><ele>4.8</ele><time>2022-11-17T20:38:19.0000000+00:00</time></trkpt><trkpt lat="39.47777538" lon="-0.38969019"><ele>4.8</ele><time>2022-11-17T20:38:20.0000000+00:00</time></trkpt><trkpt lat="39.47777948" lon="-0.38967879"><ele>4.8</ele><time>2022-11-17T20:38:21.0000000+00:00</time></trkpt><trkpt lat="39.47777923" lon="-0.38967082"><ele>4.8</ele><time>2022-11-17T20:38:22.0000000+00:00</time></trkpt><trkpt lat="39.47778091" lon="-0.38966185"><ele>4.8</ele><time>2022-11-17T20:38:23.0000000+00:00</time></trkpt><trkpt lat="39.47778409" lon="-0.3896528"><ele>5.0</ele><time>2022-11-17T20:38:24.0000000+00:00</time></trkpt><trkpt lat="39.47778678" lon="-0.38963093"><ele>5.0</ele><time>2022-11-17T20:38:25.0000000+00:00</time></trkpt><trkpt lat="39.47779105" lon="-0.38961257"><ele>5.0</ele><time>2022-11-17T20:38:26.0000000+00:00</time></trkpt><trkpt lat="39.47779625" lon="-0.38959438"><ele>5.0</ele><time>2022-11-17T20:38:27.0000000+00:00</time></trkpt><trkpt lat="39.47780362" lon="-0.3895808"><ele>5.0</ele><time>2022-11-17T20:38:28.0000000+00:00</time></trkpt><trkpt lat="39.47781301" lon="-0.38956731"><ele>5.0</ele><time>2022-11-17T20:38:29.0000000+00:00</time></trkpt><trkpt lat="39.47782508" lon="-0.38954794"><ele>5.0</ele><time>2022-11-17T20:38:30.0000000+00:00</time></trkpt><trkpt lat="39.4778333" lon="-0.38953009"><ele>5.0</ele><time>2022-11-17T20:38:31.0000000+00:00</time></trkpt><trkpt lat="39.47784185" lon="-0.38951517"><ele>5.0</ele><time>2022-11-17T20:38:32.0000000+00:00</time></trkpt><trkpt lat="39.47784646" lon="-0.38950168"><ele>4.8</ele><time>2022-11-17T20:38:33.0000000+00:00</time></trkpt><trkpt lat="39.47784335" lon="-0.38948726"><ele>4.8</ele><time>2022-11-17T20:38:34.0000000+00:00</time></trkpt><trkpt lat="39.47784805" lon="-0.38946413"><ele>4.8</ele><time>2022-11-17T20:38:35.0000000+00:00</time></trkpt><trkpt lat="39.47785551" lon="-0.38945046"><ele>4.8</ele><time>2022-11-17T20:38:36.0000000+00:00</time></trkpt><trkpt lat="39.47785945" lon="-0.38943747"><ele>4.6</ele><time>2022-11-17T20:38:37.0000000+00:00</time></trkpt><trkpt lat="39.47786867" lon="-0.38941643"><ele>4.6</ele><time>2022-11-17T20:38:38.0000000+00:00</time></trkpt><trkpt lat="39.47786842" lon="-0.38939565"><ele>4.6</ele><time>2022-11-17T20:38:39.0000000+00:00</time></trkpt><trkpt lat="39.47787403" lon="-0.38937444"><ele>4.6</ele><time>2022-11-17T20:38:40.0000000+00:00</time></trkpt><trkpt lat="39.47788191" lon="-0.38935969"><ele>4.6</ele><time>2022-11-17T20:38:41.0000000+00:00</time></trkpt><trkpt lat="39.47789063" lon="-0.38934695"><ele>4.6</ele><time>2022-11-17T20:38:42.0000000+00:00</time></trkpt><trkpt lat="39.47789356" lon="-0.38933286"><ele>4.6</ele><time>2022-11-17T20:38:43.0000000+00:00</time></trkpt><trkpt lat="39.47789943" lon="-0.38931711"><ele>4.6</ele><time>2022-11-17T20:38:44.0000000+00:00</time></trkpt><trkpt lat="39.47790521" lon="-0.38930655"><ele>4.6</ele><time>2022-11-17T20:38:45.0000000+00:00</time></trkpt><trkpt lat="39.47790965" lon="-0.38929615"><ele>4.6</ele><time>2022-11-17T20:38:46.0000000+00:00</time></trkpt><trkpt lat="39.47791158" lon="-0.38928836"><ele>4.6</ele><time>2022-11-17T20:38:47.0000000+00:00</time></trkpt><trkpt lat="39.47790982" lon="-0.38928752"><ele>4.8</ele><time>2022-11-17T20:38:48.0000000+00:00</time></trkpt><trkpt lat="39.4779058" lon="-0.38926363"><ele>4.8</ele><time>2022-11-17T20:38:49.0000000+00:00</time></trkpt><trkpt lat="39.47789867" lon="-0.38923128"><ele>4.8</ele><time>2022-11-17T20:38:50.0000000+00:00</time></trkpt><trkpt lat="39.47789289" lon="-0.38919607"><ele>4.8</ele><time>2022-11-17T20:38:51.0000000+00:00</time></trkpt><trkpt lat="39.47789935" lon="-0.38917906"><ele>4.8</ele><time>2022-11-17T20:38:52.0000000+00:00</time></trkpt><trkpt lat="39.47790991" lon="-0.38915793"><ele>4.8</ele><time>2022-11-17T20:38:53.0000000+00:00</time></trkpt><trkpt lat="39.47791443" lon="-0.38914134"><ele>4.8</ele><time>2022-11-17T20:38:54.0000000+00:00</time></trkpt><trkpt lat="39.47792784" lon="-0.38912374"><ele>4.8</ele><time>2022-11-17T20:38:55.0000000+00:00</time></trkpt><trkpt lat="39.47793723" lon="-0.38910756"><ele>4.8</ele><time>2022-11-17T20:38:56.0000000+00:00</time></trkpt><trkpt lat="39.47794955" lon="-0.38908811"><ele>4.8</ele><time>2022-11-17T20:38:57.0000000+00:00</time></trkpt><trkpt lat="39.47796221" lon="-0.38907202"><ele>4.8</ele><time>2022-11-17T20:38:58.0000000+00:00</time></trkpt><trkpt lat="39.47796741" lon="-0.38905718"><ele>4.8</ele><time>2022-11-17T20:38:59.0000000+00:00</time></trkpt><trkpt lat="39.47797009" lon="-0.38904101"><ele>4.8</ele><time>2022-11-17T20:39:00.0000000+00:00</time></trkpt><trkpt lat="39.47797109" lon="-0.38902349"><ele>4.8</ele><time>2022-11-17T20:39:01.0000000+00:00</time></trkpt><trkpt lat="39.47797646" lon="-0.38900312"><ele>4.8</ele><time>2022-11-17T20:39:02.0000000+00:00</time></trkpt><trkpt lat="39.47798065" lon="-0.38898342"><ele>4.6</ele><time>2022-11-17T20:39:03.0000000+00:00</time></trkpt><trkpt lat="39.47798358" lon="-0.38896498"><ele>4.6</ele><time>2022-11-17T20:39:04.0000000+00:00</time></trkpt><trkpt lat="39.477984" lon="-0.38894948"><ele>4.6</ele><time>2022-11-17T20:39:05.0000000+00:00</time></trkpt><trkpt lat="39.47798559" lon="-0.38893615"><ele>4.6</ele><time>2022-11-17T20:39:06.0000000+00:00</time></trkpt><trkpt lat="39.47799012" lon="-0.38892257"><ele>4.6</ele><time>2022-11-17T20:39:07.0000000+00:00</time></trkpt><trkpt lat="39.47799792" lon="-0.38890857"><ele>4.8</ele><time>2022-11-17T20:39:08.0000000+00:00</time></trkpt><trkpt lat="39.47800923" lon="-0.38889776"><ele>4.6</ele><time>2022-11-17T20:39:09.0000000+00:00</time></trkpt><trkpt lat="39.47801803" lon="-0.38888561"><ele>4.6</ele><time>2022-11-17T20:39:10.0000000+00:00</time></trkpt><trkpt lat="39.47802717" lon="-0.38886566"><ele>4.6</ele><time>2022-11-17T20:39:11.0000000+00:00</time></trkpt><trkpt lat="39.47803714" lon="-0.38884571"><ele>4.6</ele><time>2022-11-17T20:39:12.0000000+00:00</time></trkpt><trkpt lat="39.47804729" lon="-0.38882417"><ele>4.6</ele><time>2022-11-17T20:39:13.0000000+00:00</time></trkpt><trkpt lat="39.47805458" lon="-0.38880439"><ele>4.6</ele><time>2022-11-17T20:39:14.0000000+00:00</time></trkpt><trkpt lat="39.47806489" lon="-0.38878662"><ele>4.6</ele><time>2022-11-17T20:39:15.0000000+00:00</time></trkpt><trkpt lat="39.47807537" lon="-0.38876818"><ele>4.6</ele><time>2022-11-17T20:39:16.0000000+00:00</time></trkpt><trkpt lat="39.47808593" lon="-0.38874781"><ele>4.6</ele><time>2022-11-17T20:39:17.0000000+00:00</time></trkpt><trkpt lat="39.47809523" lon="-0.38872912"><ele>4.8</ele><time>2022-11-17T20:39:18.0000000+00:00</time></trkpt><trkpt lat="39.47810445" lon="-0.3887111"><ele>4.8</ele><time>2022-11-17T20:39:19.0000000+00:00</time></trkpt><trkpt lat="39.47811945" lon="-0.38869559"><ele>4.8</ele><time>2022-11-17T20:39:20.0000000+00:00</time></trkpt><trkpt lat="39.47813471" lon="-0.38866508"><ele>4.8</ele><time>2022-11-17T20:39:21.0000000+00:00</time></trkpt><trkpt lat="39.47814829" lon="-0.38864002"><ele>4.8</ele><time>2022-11-17T20:39:22.0000000+00:00</time></trkpt><trkpt lat="39.47816061" lon="-0.38862032"><ele>4.8</ele><time>2022-11-17T20:39:23.0000000+00:00</time></trkpt><trkpt lat="39.47817109" lon="-0.38860247"><ele>4.8</ele><time>2022-11-17T20:39:24.0000000+00:00</time></trkpt><trkpt lat="39.47817519" lon="-0.38858428"><ele>4.8</ele><time>2022-11-17T20:39:25.0000000+00:00</time></trkpt><trkpt lat="39.47817838" lon="-0.38856676"><ele>4.8</ele><time>2022-11-17T20:39:26.0000000+00:00</time></trkpt><trkpt lat="39.47817838" lon="-0.38854907"><ele>4.8</ele><time>2022-11-17T20:39:27.0000000+00:00</time></trkpt><trkpt lat="39.47817721" lon="-0.38853206"><ele>4.8</ele><time>2022-11-17T20:39:28.0000000+00:00</time></trkpt><trkpt lat="39.47817452" lon="-0.3885137"><ele>4.8</ele><time>2022-11-17T20:39:29.0000000+00:00</time></trkpt><trkpt lat="39.47817184" lon="-0.38849509"><ele>4.8</ele><time>2022-11-17T20:39:30.0000000+00:00</time></trkpt><trkpt lat="39.47817209" lon="-0.38847196"><ele>5.0</ele><time>2022-11-17T20:39:31.0000000+00:00</time></trkpt><trkpt lat="39.47817662" lon="-0.38844849"><ele>5.0</ele><time>2022-11-17T20:39:32.0000000+00:00</time></trkpt><trkpt lat="39.4781814" lon="-0.38842896"><ele>5.0</ele><time>2022-11-17T20:39:33.0000000+00:00</time></trkpt><trkpt lat="39.4781938" lon="-0.38840918"><ele>5.0</ele><time>2022-11-17T20:39:34.0000000+00:00</time></trkpt><trkpt lat="39.47820394" lon="-0.38838085"><ele>5.0</ele><time>2022-11-17T20:39:35.0000000+00:00</time></trkpt><trkpt lat="39.47821274" lon="-0.38836928"><ele>5.0</ele><time>2022-11-17T20:39:36.0000000+00:00</time></trkpt><trkpt lat="39.47821777" lon="-0.38835336"><ele>5.2</ele><time>2022-11-17T20:39:37.0000000+00:00</time></trkpt><trkpt lat="39.47822087" lon="-0.38833944"><ele>5.2</ele><time>2022-11-17T20:39:38.0000000+00:00</time></trkpt><trkpt lat="39.47822968" lon="-0.3883236"><ele>5.2</ele><time>2022-11-17T20:39:39.0000000+00:00</time></trkpt><trkpt lat="39.47823797" lon="-0.38830482"><ele>5.2</ele><time>2022-11-17T20:39:40.0000000+00:00</time></trkpt><trkpt lat="39.47824887" lon="-0.3882889"><ele>5.2</ele><time>2022-11-17T20:39:41.0000000+00:00</time></trkpt><trkpt lat="39.47825574" lon="-0.38826987"><ele>5.2</ele><time>2022-11-17T20:39:42.0000000+00:00</time></trkpt><trkpt lat="39.47825993" lon="-0.38825152"><ele>5.2</ele><time>2022-11-17T20:39:43.0000000+00:00</time></trkpt><trkpt lat="39.4782663" lon="-0.38823534"><ele>5.2</ele><time>2022-11-17T20:39:44.0000000+00:00</time></trkpt><trkpt lat="39.47827611" lon="-0.38821489"><ele>5.0</ele><time>2022-11-17T20:39:45.0000000+00:00</time></trkpt><trkpt lat="39.47828458" lon="-0.38819938"><ele>5.0</ele><time>2022-11-17T20:39:46.0000000+00:00</time></trkpt><trkpt lat="39.4782922" lon="-0.38818287"><ele>4.8</ele><time>2022-11-17T20:39:47.0000000+00:00</time></trkpt><trkpt lat="39.47829723" lon="-0.38816862"><ele>4.8</ele><time>2022-11-17T20:39:48.0000000+00:00</time></trkpt><trkpt lat="39.47830159" lon="-0.38815739"><ele>4.8</ele><time>2022-11-17T20:39:49.0000000+00:00</time></trkpt><trkpt lat="39.47830654" lon="-0.38814104"><ele>4.8</ele><time>2022-11-17T20:39:50.0000000+00:00</time></trkpt><trkpt lat="39.47830997" lon="-0.38812545"><ele>4.6</ele><time>2022-11-17T20:39:51.0000000+00:00</time></trkpt><trkpt lat="39.47830796" lon="-0.38811103"><ele>4.6</ele><time>2022-11-17T20:39:52.0000000+00:00</time></trkpt><trkpt lat="39.47831333" lon="-0.38809553"><ele>4.6</ele><time>2022-11-17T20:39:53.0000000+00:00</time></trkpt><trkpt lat="39.47831785" lon="-0.3880822"><ele>4.6</ele><time>2022-11-17T20:39:54.0000000+00:00</time></trkpt><trkpt lat="39.47832079" lon="-0.38807298"><ele>4.6</ele><time>2022-11-17T20:39:55.0000000+00:00</time></trkpt><trkpt lat="39.47832515" lon="-0.38805798"><ele>4.6</ele><time>2022-11-17T20:39:56.0000000+00:00</time></trkpt><trkpt lat="39.47833931" lon="-0.38803518"><ele>4.8</ele><time>2022-11-17T20:39:57.0000000+00:00</time></trkpt><trkpt lat="39.47834853" lon="-0.38801322"><ele>4.8</ele><time>2022-11-17T20:39:58.0000000+00:00</time></trkpt><trkpt lat="39.47835624" lon="-0.38799034"><ele>5.0</ele><time>2022-11-17T20:39:59.0000000+00:00</time></trkpt><trkpt lat="39.47835951" lon="-0.38797081"><ele>5.0</ele><time>2022-11-17T20:40:00.0000000+00:00</time></trkpt><trkpt lat="39.47836555" lon="-0.38795161"><ele>5.0</ele><time>2022-11-17T20:40:01.0000000+00:00</time></trkpt><trkpt lat="39.47837284" lon="-0.38793518"><ele>4.8</ele><time>2022-11-17T20:40:02.0000000+00:00</time></trkpt><trkpt lat="39.47838013" lon="-0.38791968"><ele>4.8</ele><time>2022-11-17T20:40:03.0000000+00:00</time></trkpt><trkpt lat="39.47838617" lon="-0.38790409"><ele>4.6</ele><time>2022-11-17T20:40:04.0000000+00:00</time></trkpt><trkpt lat="39.47839103" lon="-0.38788632"><ele>4.6</ele><time>2022-11-17T20:40:05.0000000+00:00</time></trkpt><trkpt lat="39.47839723" lon="-0.38786804"><ele>4.6</ele><time>2022-11-17T20:40:06.0000000+00:00</time></trkpt><trkpt lat="39.47840729" lon="-0.38784994"><ele>4.6</ele><time>2022-11-17T20:40:07.0000000+00:00</time></trkpt><trkpt lat="39.47841508" lon="-0.3878325"><ele>4.6</ele><time>2022-11-17T20:40:08.0000000+00:00</time></trkpt><trkpt lat="39.47842405" lon="-0.38781306"><ele>4.6</ele><time>2022-11-17T20:40:09.0000000+00:00</time></trkpt><trkpt lat="39.47843202" lon="-0.38779554"><ele>4.6</ele><time>2022-11-17T20:40:10.0000000+00:00</time></trkpt><trkpt lat="39.47844258" lon="-0.38777752"><ele>4.6</ele><time>2022-11-17T20:40:11.0000000+00:00</time></trkpt><trkpt lat="39.47845406" lon="-0.38776159"><ele>4.6</ele><time>2022-11-17T20:40:12.0000000+00:00</time></trkpt><trkpt lat="39.47846403" lon="-0.38774156"><ele>4.6</ele><time>2022-11-17T20:40:13.0000000+00:00</time></trkpt><trkpt lat="39.47847133" lon="-0.38772178"><ele>4.6</ele><time>2022-11-17T20:40:14.0000000+00:00</time></trkpt><trkpt lat="39.47847744" lon="-0.38770485"><ele>4.6</ele><time>2022-11-17T20:40:15.0000000+00:00</time></trkpt><trkpt lat="39.47848147" lon="-0.38768549"><ele>4.6</ele><time>2022-11-17T20:40:16.0000000+00:00</time></trkpt><trkpt lat="39.47848398" lon="-0.3876652"><ele>4.6</ele><time>2022-11-17T20:40:17.0000000+00:00</time></trkpt><trkpt lat="39.47848616" lon="-0.38764752"><ele>4.6</ele><time>2022-11-17T20:40:18.0000000+00:00</time></trkpt><trkpt lat="39.47849714" lon="-0.38763461"><ele>4.6</ele><time>2022-11-17T20:40:19.0000000+00:00</time></trkpt><trkpt lat="39.47850871" lon="-0.38762019"><ele>4.6</ele><time>2022-11-17T20:40:20.0000000+00:00</time></trkpt><trkpt lat="39.47851944" lon="-0.38760628"><ele>4.6</ele><time>2022-11-17T20:40:21.0000000+00:00</time></trkpt><trkpt lat="39.47852564" lon="-0.38758943"><ele>4.6</ele><time>2022-11-17T20:40:22.0000000+00:00</time></trkpt><trkpt lat="39.47852505" lon="-0.38756227"><ele>4.6</ele><time>2022-11-17T20:40:23.0000000+00:00</time></trkpt><trkpt lat="39.47852748" lon="-0.38753402"><ele>4.6</ele><time>2022-11-17T20:40:24.0000000+00:00</time></trkpt><trkpt lat="39.47853729" lon="-0.38751416"><ele>4.6</ele><time>2022-11-17T20:40:25.0000000+00:00</time></trkpt><trkpt lat="39.47854676" lon="-0.38749429"><ele>4.6</ele><time>2022-11-17T20:40:26.0000000+00:00</time></trkpt><trkpt lat="39.47855674" lon="-0.38747694"><ele>4.6</ele><time>2022-11-17T20:40:27.0000000+00:00</time></trkpt><trkpt lat="39.47856881" lon="-0.38746479"><ele>4.6</ele><time>2022-11-17T20:40:28.0000000+00:00</time></trkpt><trkpt lat="39.47857794" lon="-0.38745113"><ele>4.6</ele><time>2022-11-17T20:40:29.0000000+00:00</time></trkpt><trkpt lat="39.47858373" lon="-0.38744015"><ele>4.6</ele><time>2022-11-17T20:40:30.0000000+00:00</time></trkpt><trkpt lat="39.47858633" lon="-0.38743202"><ele>4.6</ele><time>2022-11-17T20:40:31.0000000+00:00</time></trkpt><trkpt lat="39.47858725" lon="-0.38742707"><ele>4.6</ele><time>2022-11-17T20:40:32.0000000+00:00</time></trkpt><trkpt lat="39.4785849" lon="-0.38742397"><ele>4.6</ele><time>2022-11-17T20:40:33.0000000+00:00</time></trkpt><trkpt lat="39.47858448" lon="-0.38742338"><ele>4.6</ele><time>2022-11-17T20:40:34.0000000+00:00</time></trkpt><trkpt lat="39.4785849" lon="-0.38742389"><ele>4.6</ele><time>2022-11-17T20:40:35.0000000+00:00</time></trkpt><trkpt lat="39.47858566" lon="-0.38742447"><ele>4.6</ele><time>2022-11-17T20:40:36.0000000+00:00</time></trkpt><trkpt lat="39.47858532" lon="-0.38742514"><ele>4.4</ele><time>2022-11-17T20:40:37.0000000+00:00</time></trkpt><trkpt lat="39.47858532" lon="-0.38742506"><ele>4.4</ele><time>2022-11-17T20:40:38.0000000+00:00</time></trkpt><trkpt lat="39.47858607" lon="-0.38742514"><ele>4.4</ele><time>2022-11-17T20:40:39.0000000+00:00</time></trkpt><trkpt lat="39.47858792" lon="-0.38742489"><ele>4.4</ele><time>2022-11-17T20:40:40.0000000+00:00</time></trkpt><trkpt lat="39.47858834" lon="-0.38742422"><ele>4.4</ele><time>2022-11-17T20:40:41.0000000+00:00</time></trkpt><trkpt lat="39.47858809" lon="-0.38742347"><ele>4.4</ele><time>2022-11-17T20:40:42.0000000+00:00</time></trkpt><trkpt lat="39.47858834" lon="-0.38742288"><ele>4.4</ele><time>2022-11-17T20:40:43.0000000+00:00</time></trkpt><trkpt lat="39.47858834" lon="-0.38742288"><ele>4.4</ele><time>2022-11-17T20:40:44.0000000+00:00</time></trkpt><trkpt lat="39.47858834" lon="-0.38742288"><ele>4.4</ele><time>2022-11-17T20:40:45.0000000+00:00</time></trkpt><trkpt lat="39.47858834" lon="-0.38742288"><ele>4.4</ele><time>2022-11-17T20:40:46.0000000+00:00</time></trkpt><trkpt lat="39.47858834" lon="-0.38742288"><ele>4.4</ele><time>2022-11-17T20:40:47.0000000+00:00</time></trkpt><trkpt lat="39.47858834" lon="-0.38742288"><ele>4.4</ele><time>2022-11-17T20:40:48.0000000+00:00</time></trkpt><trkpt lat="39.47858834" lon="-0.38742288"><ele>4.4</ele><time>2022-11-17T20:40:49.0000000+00:00</time></trkpt><trkpt lat="39.47858834" lon="-0.38742288"><ele>4.4</ele><time>2022-11-17T20:40:50.0000000+00:00</time></trkpt><trkpt lat="39.47858834" lon="-0.38742288"><ele>4.4</ele><time>2022-11-17T20:40:51.0000000+00:00</time></trkpt><trkpt lat="39.47858834" lon="-0.38742288"><ele>4.4</ele><time>2022-11-17T20:40:52.0000000+00:00</time></trkpt><trkpt lat="39.47858834" lon="-0.38741894"><ele>4.4</ele><time>2022-11-17T20:40:53.0000000+00:00</time></trkpt><trkpt lat="39.47859462" lon="-0.38740251"><ele>4.4</ele><time>2022-11-17T20:40:54.0000000+00:00</time></trkpt><trkpt lat="39.47859881" lon="-0.38738416"><ele>4.4</ele><time>2022-11-17T20:40:55.0000000+00:00</time></trkpt><trkpt lat="39.47860141" lon="-0.38736429"><ele>4.4</ele><time>2022-11-17T20:40:56.0000000+00:00</time></trkpt><trkpt lat="39.47860384" lon="-0.38734493"><ele>4.4</ele><time>2022-11-17T20:40:57.0000000+00:00</time></trkpt><trkpt lat="39.47860602" lon="-0.38732674"><ele>4.4</ele><time>2022-11-17T20:40:58.0000000+00:00</time></trkpt><trkpt lat="39.4786082" lon="-0.38730838"><ele>4.4</ele><time>2022-11-17T20:40:59.0000000+00:00</time></trkpt><trkpt lat="39.47861122" lon="-0.3872917"><ele>4.4</ele><time>2022-11-17T20:41:00.0000000+00:00</time></trkpt><trkpt lat="39.47861466" lon="-0.38727636"><ele>4.4</ele><time>2022-11-17T20:41:01.0000000+00:00</time></trkpt><trkpt lat="39.47861826" lon="-0.38725759"><ele>4.6</ele><time>2022-11-17T20:41:02.0000000+00:00</time></trkpt><trkpt lat="39.47861985" lon="-0.38723814"><ele>4.6</ele><time>2022-11-17T20:41:03.0000000+00:00</time></trkpt><trkpt lat="39.47862195" lon="-0.38721979"><ele>4.8</ele><time>2022-11-17T20:41:04.0000000+00:00</time></trkpt><trkpt lat="39.47862421" lon="-0.38720428"><ele>4.8</ele><time>2022-11-17T20:41:05.0000000+00:00</time></trkpt><trkpt lat="39.47862874" lon="-0.38718718"><ele>4.8</ele><time>2022-11-17T20:41:06.0000000+00:00</time></trkpt><trkpt lat="39.47863117" lon="-0.3871679"><ele>4.8</ele><time>2022-11-17T20:41:07.0000000+00:00</time></trkpt><trkpt lat="39.47863259" lon="-0.38715139"><ele>4.8</ele><time>2022-11-17T20:41:08.0000000+00:00</time></trkpt><trkpt lat="39.47862983" lon="-0.38713404"><ele>4.8</ele><time>2022-11-17T20:41:09.0000000+00:00</time></trkpt><trkpt lat="39.47863871" lon="-0.38711401"><ele>4.8</ele><time>2022-11-17T20:41:10.0000000+00:00</time></trkpt><trkpt lat="39.47865548" lon="-0.38709213"><ele>4.8</ele><time>2022-11-17T20:41:11.0000000+00:00</time></trkpt><trkpt lat="39.47866939" lon="-0.38707486"><ele>4.8</ele><time>2022-11-17T20:41:12.0000000+00:00</time></trkpt><trkpt lat="39.47867828" lon="-0.38705726"><ele>4.6</ele><time>2022-11-17T20:41:13.0000000+00:00</time></trkpt><trkpt lat="39.47867995" lon="-0.38704494"><ele>4.6</ele><time>2022-11-17T20:41:14.0000000+00:00</time></trkpt><trkpt lat="39.47867886" lon="-0.38703413"><ele>4.6</ele><time>2022-11-17T20:41:15.0000000+00:00</time></trkpt><trkpt lat="39.47867878" lon="-0.38702357"><ele>4.6</ele><time>2022-11-17T20:41:16.0000000+00:00</time></trkpt><trkpt lat="39.47867945" lon="-0.38701695"><ele>4.6</ele><time>2022-11-17T20:41:17.0000000+00:00</time></trkpt><trkpt lat="39.47868314" lon="-0.38701091"><ele>4.6</ele><time>2022-11-17T20:41:18.0000000+00:00</time></trkpt><trkpt lat="39.47868791" lon="-0.38700379"><ele>4.6</ele><time>2022-11-17T20:41:19.0000000+00:00</time></trkpt><trkpt lat="39.47868817" lon="-0.38699758"><ele>4.6</ele><time>2022-11-17T20:41:20.0000000+00:00</time></trkpt><trkpt lat="39.4786916" lon="-0.38699431"><ele>4.6</ele><time>2022-11-17T20:41:21.0000000+00:00</time></trkpt><trkpt lat="39.47869479" lon="-0.38699105"><ele>4.6</ele><time>2022-11-17T20:41:22.0000000+00:00</time></trkpt><trkpt lat="39.47869428" lon="-0.38698317"><ele>4.8</ele><time>2022-11-17T20:41:23.0000000+00:00</time></trkpt><trkpt lat="39.47869672" lon="-0.38697504"><ele>4.8</ele><time>2022-11-17T20:41:24.0000000+00:00</time></trkpt><trkpt lat="39.4786973" lon="-0.38696833"><ele>4.8</ele><time>2022-11-17T20:41:25.0000000+00:00</time></trkpt><trkpt lat="39.47870066" lon="-0.38696171"><ele>4.6</ele><time>2022-11-17T20:41:26.0000000+00:00</time></trkpt><trkpt lat="39.47870602" lon="-0.38695718"><ele>4.6</ele><time>2022-11-17T20:41:27.0000000+00:00</time></trkpt><trkpt lat="39.47870853" lon="-0.3869488"><ele>4.6</ele><time>2022-11-17T20:41:28.0000000+00:00</time></trkpt><trkpt lat="39.4787191" lon="-0.38693204"><ele>4.6</ele><time>2022-11-17T20:41:29.0000000+00:00</time></trkpt><trkpt lat="39.47872882" lon="-0.38691418"><ele>4.6</ele><time>2022-11-17T20:41:30.0000000+00:00</time></trkpt><trkpt lat="39.4787351" lon="-0.38689809"><ele>4.6</ele><time>2022-11-17T20:41:31.0000000+00:00</time></trkpt><trkpt lat="39.47873703" lon="-0.38687814"><ele>4.6</ele><time>2022-11-17T20:41:32.0000000+00:00</time></trkpt><trkpt lat="39.47874022" lon="-0.38685937"><ele>4.6</ele><time>2022-11-17T20:41:33.0000000+00:00</time></trkpt><trkpt lat="39.47874374" lon="-0.38684612"><ele>4.6</ele><time>2022-11-17T20:41:34.0000000+00:00</time></trkpt><trkpt lat="39.47874684" lon="-0.38683028"><ele>4.6</ele><time>2022-11-17T20:41:35.0000000+00:00</time></trkpt><trkpt lat="39.47874961" lon="-0.38681687"><ele>4.6</ele><time>2022-11-17T20:41:36.0000000+00:00</time></trkpt><trkpt lat="39.47875497" lon="-0.38680589"><ele>4.6</ele><time>2022-11-17T20:41:37.0000000+00:00</time></trkpt><trkpt lat="39.47876402" lon="-0.38679482"><ele>4.6</ele><time>2022-11-17T20:41:38.0000000+00:00</time></trkpt><trkpt lat="39.47877341" lon="-0.38678099"><ele>4.4</ele><time>2022-11-17T20:41:39.0000000+00:00</time></trkpt><trkpt lat="39.47877986" lon="-0.38676172"><ele>4.4</ele><time>2022-11-17T20:41:40.0000000+00:00</time></trkpt><trkpt lat="39.47878506" lon="-0.38674437"><ele>4.4</ele><time>2022-11-17T20:41:41.0000000+00:00</time></trkpt><trkpt lat="39.47879009" lon="-0.38673607"><ele>4.4</ele><time>2022-11-17T20:41:42.0000000+00:00</time></trkpt><trkpt lat="39.47879671" lon="-0.38672593"><ele>4.4</ele><time>2022-11-17T20:41:43.0000000+00:00</time></trkpt><trkpt lat="39.47880484" lon="-0.38671562"><ele>4.4</ele><time>2022-11-17T20:41:44.0000000+00:00</time></trkpt><trkpt lat="39.47881255" lon="-0.38670288"><ele>4.4</ele><time>2022-11-17T20:41:45.0000000+00:00</time></trkpt><trkpt lat="39.47882177" lon="-0.38669148"><ele>4.4</ele><time>2022-11-17T20:41:46.0000000+00:00</time></trkpt><trkpt lat="39.47883267" lon="-0.38667806"><ele>4.4</ele><time>2022-11-17T20:41:47.0000000+00:00</time></trkpt><trkpt lat="39.47884021" lon="-0.38666457"><ele>4.4</ele><time>2022-11-17T20:41:48.0000000+00:00</time></trkpt><trkpt lat="39.47884415" lon="-0.38665376"><ele>4.4</ele><time>2022-11-17T20:41:49.0000000+00:00</time></trkpt><trkpt lat="39.47885337" lon="-0.38665024"><ele>4.4</ele><time>2022-11-17T20:41:50.0000000+00:00</time></trkpt><trkpt lat="39.47886025" lon="-0.38664169"><ele>4.4</ele><time>2022-11-17T20:41:51.0000000+00:00</time></trkpt><trkpt lat="39.47887005" lon="-0.38662962"><ele>4.4</ele><time>2022-11-17T20:41:52.0000000+00:00</time></trkpt><trkpt lat="39.47887072" lon="-0.3866173"><ele>4.4</ele><time>2022-11-17T20:41:53.0000000+00:00</time></trkpt><trkpt lat="39.47887626" lon="-0.38660472"><ele>4.4</ele><time>2022-11-17T20:41:54.0000000+00:00</time></trkpt><trkpt lat="39.47887902" lon="-0.38659592"><ele>4.4</ele><time>2022-11-17T20:41:55.0000000+00:00</time></trkpt><trkpt lat="39.47888313" lon="-0.38658947"><ele>4.4</ele><time>2022-11-17T20:41:56.0000000+00:00</time></trkpt><trkpt lat="39.47888657" lon="-0.38657807"><ele>4.4</ele><time>2022-11-17T20:41:57.0000000+00:00</time></trkpt><trkpt lat="39.47888967" lon="-0.38656642"><ele>4.4</ele><time>2022-11-17T20:41:58.0000000+00:00</time></trkpt><trkpt lat="39.47889218" lon="-0.38655653"><ele>4.4</ele><time>2022-11-17T20:41:59.0000000+00:00</time></trkpt><trkpt lat="39.47889553" lon="-0.38654823"><ele>4.4</ele><time>2022-11-17T20:42:00.0000000+00:00</time></trkpt><trkpt lat="39.47890341" lon="-0.3865432"><ele>4.4</ele><time>2022-11-17T20:42:01.0000000+00:00</time></trkpt><trkpt lat="39.47891196" lon="-0.38653096"><ele>4.4</ele><time>2022-11-17T20:42:02.0000000+00:00</time></trkpt><trkpt lat="39.47892076" lon="-0.38651428"><ele>4.4</ele><time>2022-11-17T20:42:03.0000000+00:00</time></trkpt><trkpt lat="39.47892906" lon="-0.38649794"><ele>4.4</ele><time>2022-11-17T20:42:04.0000000+00:00</time></trkpt><trkpt lat="39.4789356" lon="-0.38648235"><ele>4.4</ele><time>2022-11-17T20:42:05.0000000+00:00</time></trkpt><trkpt lat="39.47894013" lon="-0.38646257"><ele>4.4</ele><time>2022-11-17T20:42:06.0000000+00:00</time></trkpt><trkpt lat="39.47894314" lon="-0.38644413"><ele>4.2</ele><time>2022-11-17T20:42:07.0000000+00:00</time></trkpt><trkpt lat="39.47894415" lon="-0.38642728"><ele>4.2</ele><time>2022-11-17T20:42:08.0000000+00:00</time></trkpt><trkpt lat="39.47895018" lon="-0.38640942"><ele>4.2</ele><time>2022-11-17T20:42:09.0000000+00:00</time></trkpt><trkpt lat="39.47894666" lon="-0.38639694"><ele>4.2</ele><time>2022-11-17T20:42:10.0000000+00:00</time></trkpt><trkpt lat="39.47893753" lon="-0.38638244"><ele>4.2</ele><time>2022-11-17T20:42:11.0000000+00:00</time></trkpt><trkpt lat="39.47893292" lon="-0.38636877"><ele>4.2</ele><time>2022-11-17T20:42:12.0000000+00:00</time></trkpt><trkpt lat="39.47893946" lon="-0.3863474"><ele>4.2</ele><time>2022-11-17T20:42:13.0000000+00:00</time></trkpt><trkpt lat="39.47894608" lon="-0.38632494"><ele>4.2</ele><time>2022-11-17T20:42:14.0000000+00:00</time></trkpt><trkpt lat="39.47894977" lon="-0.3863023"><ele>4.2</ele><time>2022-11-17T20:42:15.0000000+00:00</time></trkpt><trkpt lat="39.47895731" lon="-0.38628638"><ele>4.2</ele><time>2022-11-17T20:42:16.0000000+00:00</time></trkpt><trkpt lat="39.47897189" lon="-0.38626484"><ele>4.2</ele><time>2022-11-17T20:42:17.0000000+00:00</time></trkpt><trkpt lat="39.47898681" lon="-0.38624455"><ele>4.2</ele><time>2022-11-17T20:42:18.0000000+00:00</time></trkpt><trkpt lat="39.47900056" lon="-0.38622678"><ele>4.2</ele><time>2022-11-17T20:42:19.0000000+00:00</time></trkpt><trkpt lat="39.47901062" lon="-0.38621396"><ele>4.2</ele><time>2022-11-17T20:42:20.0000000+00:00</time></trkpt><trkpt lat="39.47901766" lon="-0.38620013"><ele>4.2</ele><time>2022-11-17T20:42:21.0000000+00:00</time></trkpt><trkpt lat="39.47902336" lon="-0.38617976"><ele>4.2</ele><time>2022-11-17T20:42:22.0000000+00:00</time></trkpt><trkpt lat="39.47903191" lon="-0.38615529"><ele>4.2</ele><time>2022-11-17T20:42:23.0000000+00:00</time></trkpt><trkpt lat="39.47903811" lon="-0.38613165"><ele>4.2</ele><time>2022-11-17T20:42:24.0000000+00:00</time></trkpt><trkpt lat="39.47904607" lon="-0.38611195"><ele>4.2</ele><time>2022-11-17T20:42:25.0000000+00:00</time></trkpt><trkpt lat="39.47905881" lon="-0.38609569"><ele>4.2</ele><time>2022-11-17T20:42:26.0000000+00:00</time></trkpt><trkpt lat="39.47907591" lon="-0.38607599"><ele>4.2</ele><time>2022-11-17T20:42:27.0000000+00:00</time></trkpt><trkpt lat="39.47909276" lon="-0.38606057"><ele>4.2</ele><time>2022-11-17T20:42:28.0000000+00:00</time></trkpt><trkpt lat="39.479105" lon="-0.38604565"><ele>4.2</ele><time>2022-11-17T20:42:29.0000000+00:00</time></trkpt><trkpt lat="39.47911187" lon="-0.38602956"><ele>4.2</ele><time>2022-11-17T20:42:30.0000000+00:00</time></trkpt><trkpt lat="39.4791133" lon="-0.38601514"><ele>4.2</ele><time>2022-11-17T20:42:31.0000000+00:00</time></trkpt><trkpt lat="39.47911497" lon="-0.38600408"><ele>4.0</ele><time>2022-11-17T20:42:32.0000000+00:00</time></trkpt><trkpt lat="39.47911782" lon="-0.38599586"><ele>4.0</ele><time>2022-11-17T20:42:33.0000000+00:00</time></trkpt><trkpt lat="39.4791231" lon="-0.3859832"><ele>4.0</ele><time>2022-11-17T20:42:34.0000000+00:00</time></trkpt><trkpt lat="39.47913165" lon="-0.38596435"><ele>4.0</ele><time>2022-11-17T20:42:35.0000000+00:00</time></trkpt><trkpt lat="39.4791397" lon="-0.38594415"><ele>4.0</ele><time>2022-11-17T20:42:36.0000000+00:00</time></trkpt><trkpt lat="39.47914699" lon="-0.38593384"><ele>4.0</ele><time>2022-11-17T20:42:37.0000000+00:00</time></trkpt><trkpt lat="39.47914934" lon="-0.3859185"><ele>4.0</ele><time>2022-11-17T20:42:38.0000000+00:00</time></trkpt><trkpt lat="39.47914925" lon="-0.38590282"><ele>4.2</ele><time>2022-11-17T20:42:39.0000000+00:00</time></trkpt><trkpt lat="39.47914615" lon="-0.38588849"><ele>4.2</ele><time>2022-11-17T20:42:40.0000000+00:00</time></trkpt><trkpt lat="39.47914783" lon="-0.38586955"><ele>4.2</ele><time>2022-11-17T20:42:41.0000000+00:00</time></trkpt><trkpt lat="39.47915571" lon="-0.38585069"><ele>4.2</ele><time>2022-11-17T20:42:42.0000000+00:00</time></trkpt><trkpt lat="39.47916426" lon="-0.38583275"><ele>4.2</ele><time>2022-11-17T20:42:43.0000000+00:00</time></trkpt><trkpt lat="39.47917448" lon="-0.38581699"><ele>4.2</ele><time>2022-11-17T20:42:44.0000000+00:00</time></trkpt><trkpt lat="39.47918127" lon="-0.385804"><ele>4.2</ele><time>2022-11-17T20:42:45.0000000+00:00</time></trkpt><trkpt lat="39.47918471" lon="-0.38578615"><ele>4.2</ele><time>2022-11-17T20:42:46.0000000+00:00</time></trkpt><trkpt lat="39.47918882" lon="-0.38576326"><ele>4.2</ele><time>2022-11-17T20:42:47.0000000+00:00</time></trkpt><trkpt lat="39.47919276" lon="-0.38574516"><ele>4.2</ele><time>2022-11-17T20:42:48.0000000+00:00</time></trkpt><trkpt lat="39.47919745" lon="-0.38573141"><ele>4.2</ele><time>2022-11-17T20:42:49.0000000+00:00</time></trkpt><trkpt lat="39.47920483" lon="-0.38571339"><ele>4.2</ele><time>2022-11-17T20:42:50.0000000+00:00</time></trkpt><trkpt lat="39.47921799" lon="-0.38569453"><ele>4.2</ele><time>2022-11-17T20:42:51.0000000+00:00</time></trkpt><trkpt lat="39.4792283" lon="-0.3856807"><ele>4.2</ele><time>2022-11-17T20:42:52.0000000+00:00</time></trkpt><trkpt lat="39.47924003" lon="-0.38567131"><ele>4.4</ele><time>2022-11-17T20:42:53.0000000+00:00</time></trkpt><trkpt lat="39.47925403" lon="-0.38565832"><ele>4.4</ele><time>2022-11-17T20:42:54.0000000+00:00</time></trkpt><trkpt lat="39.47926149" lon="-0.38564097"><ele>4.4</ele><time>2022-11-17T20:42:55.0000000+00:00</time></trkpt><trkpt lat="39.4792604" lon="-0.38562312"><ele>4.4</ele><time>2022-11-17T20:42:56.0000000+00:00</time></trkpt><trkpt lat="39.4792583" lon="-0.38560887"><ele>4.4</ele><time>2022-11-17T20:42:57.0000000+00:00</time></trkpt><trkpt lat="39.47925772" lon="-0.38559454"><ele>4.4</ele><time>2022-11-17T20:42:58.0000000+00:00</time></trkpt><trkpt lat="39.4792614" lon="-0.38558121"><ele>4.4</ele><time>2022-11-17T20:42:59.0000000+00:00</time></trkpt><trkpt lat="39.47926166" lon="-0.3855678"><ele>4.4</ele><time>2022-11-17T20:43:00.0000000+00:00</time></trkpt><trkpt lat="39.47925679" lon="-0.38555405"><ele>4.2</ele><time>2022-11-17T20:43:01.0000000+00:00</time></trkpt><trkpt lat="39.47925344" lon="-0.38553737"><ele>4.2</ele><time>2022-11-17T20:43:02.0000000+00:00</time></trkpt><trkpt lat="39.47925545" lon="-0.38552052"><ele>4.2</ele><time>2022-11-17T20:43:03.0000000+00:00</time></trkpt><trkpt lat="39.47925797" lon="-0.38550778"><ele>4.2</ele><time>2022-11-17T20:43:04.0000000+00:00</time></trkpt><trkpt lat="39.47925973" lon="-0.38549161"><ele>4.2</ele><time>2022-11-17T20:43:05.0000000+00:00</time></trkpt><trkpt lat="39.47925621" lon="-0.38547317"><ele>4.2</ele><time>2022-11-17T20:43:06.0000000+00:00</time></trkpt><trkpt lat="39.47925252" lon="-0.38545548"><ele>4.2</ele><time>2022-11-17T20:43:07.0000000+00:00</time></trkpt><trkpt lat="39.47925177" lon="-0.38543914"><ele>4.2</ele><time>2022-11-17T20:43:08.0000000+00:00</time></trkpt><trkpt lat="39.47925705" lon="-0.38542581"><ele>4.2</ele><time>2022-11-17T20:43:09.0000000+00:00</time></trkpt><trkpt lat="39.47926224" lon="-0.38541047"><ele>4.2</ele><time>2022-11-17T20:43:10.0000000+00:00</time></trkpt><trkpt lat="39.47926937" lon="-0.38540477"><ele>4.2</ele><time>2022-11-17T20:43:11.0000000+00:00</time></trkpt><trkpt lat="39.47927758" lon="-0.38539371"><ele>4.2</ele><time>2022-11-17T20:43:12.0000000+00:00</time></trkpt><trkpt lat="39.47927884" lon="-0.38538281"><ele>4.4</ele><time>2022-11-17T20:43:13.0000000+00:00</time></trkpt><trkpt lat="39.47928286" lon="-0.38537183"><ele>4.4</ele><time>2022-11-17T20:43:14.0000000+00:00</time></trkpt><trkpt lat="39.47929711" lon="-0.38536504"><ele>4.6</ele><time>2022-11-17T20:43:15.0000000+00:00</time></trkpt><trkpt lat="39.4793101" lon="-0.38535532"><ele>4.8</ele><time>2022-11-17T20:43:16.0000000+00:00</time></trkpt><trkpt lat="39.47932117" lon="-0.385343"><ele>5.0</ele><time>2022-11-17T20:43:17.0000000+00:00</time></trkpt><trkpt lat="39.47932569" lon="-0.38533067"><ele>5.4</ele><time>2022-11-17T20:43:18.0000000+00:00</time></trkpt><trkpt lat="39.47933114" lon="-0.38531969"><ele>5.6</ele><time>2022-11-17T20:43:19.0000000+00:00</time></trkpt><trkpt lat="39.47933651" lon="-0.38530855"><ele>6.0</ele><time>2022-11-17T20:43:20.0000000+00:00</time></trkpt><trkpt lat="39.4793417" lon="-0.38529958"><ele>6.2</ele><time>2022-11-17T20:43:21.0000000+00:00</time></trkpt><trkpt lat="39.479349" lon="-0.3852834"><ele>6.4</ele><time>2022-11-17T20:43:22.0000000+00:00</time></trkpt><trkpt lat="39.47935335" lon="-0.38527502"><ele>6.6</ele><time>2022-11-17T20:43:23.0000000+00:00</time></trkpt><trkpt lat="39.47935863" lon="-0.38526119"><ele>6.8</ele><time>2022-11-17T20:43:24.0000000+00:00</time></trkpt><trkpt lat="39.47936618" lon="-0.38524769"><ele>6.8</ele><time>2022-11-17T20:43:25.0000000+00:00</time></trkpt><trkpt lat="39.47937121" lon="-0.38523504"><ele>7.0</ele><time>2022-11-17T20:43:26.0000000+00:00</time></trkpt><trkpt lat="39.47937816" lon="-0.38522037"><ele>7.2</ele><time>2022-11-17T20:43:27.0000000+00:00</time></trkpt><trkpt lat="39.47938546" lon="-0.38520796"><ele>7.2</ele><time>2022-11-17T20:43:28.0000000+00:00</time></trkpt><trkpt lat="39.47938797" lon="-0.38519598"><ele>7.2</ele><time>2022-11-17T20:43:29.0000000+00:00</time></trkpt><trkpt lat="39.47939267" lon="-0.38518039"><ele>7.4</ele><time>2022-11-17T20:43:30.0000000+00:00</time></trkpt><trkpt lat="39.47939744" lon="-0.38516387"><ele>7.4</ele><time>2022-11-17T20:43:31.0000000+00:00</time></trkpt><trkpt lat="39.47940272" lon="-0.38514971"><ele>7.6</ele><time>2022-11-17T20:43:32.0000000+00:00</time></trkpt><trkpt lat="39.47940691" lon="-0.3851363"><ele>7.8</ele><time>2022-11-17T20:43:33.0000000+00:00</time></trkpt><trkpt lat="39.47940775" lon="-0.3851254"><ele>8.0</ele><time>2022-11-17T20:43:34.0000000+00:00</time></trkpt><trkpt lat="39.47940373" lon="-0.38512071"><ele>8.0</ele><time>2022-11-17T20:43:35.0000000+00:00</time></trkpt><trkpt lat="39.47939862" lon="-0.38511694"><ele>8.0</ele><time>2022-11-17T20:43:36.0000000+00:00</time></trkpt><trkpt lat="39.47939644" lon="-0.38511015"><ele>8.0</ele><time>2022-11-17T20:43:37.0000000+00:00</time></trkpt><trkpt lat="39.47939375" lon="-0.38510277"><ele>8.0</ele><time>2022-11-17T20:43:38.0000000+00:00</time></trkpt><trkpt lat="39.47939359" lon="-0.38509095"><ele>8.2</ele><time>2022-11-17T20:43:39.0000000+00:00</time></trkpt><trkpt lat="39.47939845" lon="-0.38507997"><ele>8.2</ele><time>2022-11-17T20:43:40.0000000+00:00</time></trkpt><trkpt lat="39.47940683" lon="-0.3850684"><ele>8.2</ele><time>2022-11-17T20:43:41.0000000+00:00</time></trkpt><trkpt lat="39.47940926" lon="-0.38505734"><ele>8.2</ele><time>2022-11-17T20:43:42.0000000+00:00</time></trkpt><trkpt lat="39.47941454" lon="-0.38504519"><ele>8.2</ele><time>2022-11-17T20:43:43.0000000+00:00</time></trkpt><trkpt lat="39.47942921" lon="-0.38502775"><ele>8.2</ele><time>2022-11-17T20:43:44.0000000+00:00</time></trkpt><trkpt lat="39.47944757" lon="-0.38500655"><ele>8.2</ele><time>2022-11-17T20:43:45.0000000+00:00</time></trkpt><trkpt lat="39.47946492" lon="-0.38498819"><ele>8.2</ele><time>2022-11-17T20:43:46.0000000+00:00</time></trkpt><trkpt lat="39.47947749" lon="-0.38496732"><ele>8.0</ele><time>2022-11-17T20:43:47.0000000+00:00</time></trkpt><trkpt lat="39.47948688" lon="-0.38494427"><ele>8.0</ele><time>2022-11-17T20:43:48.0000000+00:00</time></trkpt><trkpt lat="39.47949325" lon="-0.38492633"><ele>8.0</ele><time>2022-11-17T20:43:49.0000000+00:00</time></trkpt><trkpt lat="39.47950071" lon="-0.38490823"><ele>8.0</ele><time>2022-11-17T20:43:50.0000000+00:00</time></trkpt><trkpt lat="39.47950716" lon="-0.3848887"><ele>8.0</ele><time>2022-11-17T20:43:51.0000000+00:00</time></trkpt><trkpt lat="39.47951227" lon="-0.38487327"><ele>8.0</ele><time>2022-11-17T20:43:52.0000000+00:00</time></trkpt><trkpt lat="39.47951806" lon="-0.38486472"><ele>8.0</ele><time>2022-11-17T20:43:53.0000000+00:00</time></trkpt><trkpt lat="39.47952921" lon="-0.38485039"><ele>8.0</ele><time>2022-11-17T20:43:54.0000000+00:00</time></trkpt><trkpt lat="39.47953264" lon="-0.38483497"><ele>7.8</ele><time>2022-11-17T20:43:55.0000000+00:00</time></trkpt><trkpt lat="39.47953507" lon="-0.38481988"><ele>8.0</ele><time>2022-11-17T20:43:56.0000000+00:00</time></trkpt><trkpt lat="39.47953465" lon="-0.38481326"><ele>8.0</ele><time>2022-11-17T20:43:57.0000000+00:00</time></trkpt><trkpt lat="39.47953574" lon="-0.38480823"><ele>8.0</ele><time>2022-11-17T20:43:58.0000000+00:00</time></trkpt><trkpt lat="39.47954161" lon="-0.38479918"><ele>8.0</ele><time>2022-11-17T20:43:59.0000000+00:00</time></trkpt><trkpt lat="39.47955217" lon="-0.38478266"><ele>8.0</ele><time>2022-11-17T20:44:00.0000000+00:00</time></trkpt><trkpt lat="39.47956458" lon="-0.38475442"><ele>8.0</ele><time>2022-11-17T20:44:01.0000000+00:00</time></trkpt><trkpt lat="39.47957648" lon="-0.38473757"><ele>8.0</ele><time>2022-11-17T20:44:02.0000000+00:00</time></trkpt><trkpt lat="39.47959408" lon="-0.38472072"><ele>8.0</ele><time>2022-11-17T20:44:03.0000000+00:00</time></trkpt><trkpt lat="39.47959291" lon="-0.38471259"><ele>8.2</ele><time>2022-11-17T20:44:04.0000000+00:00</time></trkpt><trkpt lat="39.47960121" lon="-0.38469918"><ele>8.2</ele><time>2022-11-17T20:44:05.0000000+00:00</time></trkpt><trkpt lat="39.47960674" lon="-0.38468627"><ele>8.2</ele><time>2022-11-17T20:44:06.0000000+00:00</time></trkpt><trkpt lat="39.47961185" lon="-0.38467336"><ele>8.2</ele><time>2022-11-17T20:44:07.0000000+00:00</time></trkpt><trkpt lat="39.47961696" lon="-0.38466213"><ele>8.2</ele><time>2022-11-17T20:44:08.0000000+00:00</time></trkpt><trkpt lat="39.4796204" lon="-0.38465031"><ele>8.2</ele><time>2022-11-17T20:44:09.0000000+00:00</time></trkpt><trkpt lat="39.47962635" lon="-0.38463581"><ele>8.2</ele><time>2022-11-17T20:44:10.0000000+00:00</time></trkpt><trkpt lat="39.47963222" lon="-0.38461955"><ele>8.0</ele><time>2022-11-17T20:44:11.0000000+00:00</time></trkpt><trkpt lat="39.4796375" lon="-0.38460514"><ele>8.0</ele><time>2022-11-17T20:44:12.0000000+00:00</time></trkpt><trkpt lat="39.47964119" lon="-0.38459986"><ele>8.0</ele><time>2022-11-17T20:44:13.0000000+00:00</time></trkpt><trkpt lat="39.47964865" lon="-0.38458896"><ele>8.0</ele><time>2022-11-17T20:44:14.0000000+00:00</time></trkpt><trkpt lat="39.47966214" lon="-0.38457018"><ele>8.0</ele><time>2022-11-17T20:44:15.0000000+00:00</time></trkpt><trkpt lat="39.47967002" lon="-0.38455258"><ele>8.0</ele><time>2022-11-17T20:44:16.0000000+00:00</time></trkpt><trkpt lat="39.47967002" lon="-0.38453632"><ele>8.0</ele><time>2022-11-17T20:44:17.0000000+00:00</time></trkpt><trkpt lat="39.47966944" lon="-0.38452366"><ele>8.0</ele><time>2022-11-17T20:44:18.0000000+00:00</time></trkpt><trkpt lat="39.47966793" lon="-0.38451319"><ele>8.0</ele><time>2022-11-17T20:44:19.0000000+00:00</time></trkpt><trkpt lat="39.47967002" lon="-0.38450237"><ele>8.0</ele><time>2022-11-17T20:44:20.0000000+00:00</time></trkpt><trkpt lat="39.47967061" lon="-0.38449072"><ele>8.0</ele><time>2022-11-17T20:44:21.0000000+00:00</time></trkpt><trkpt lat="39.47968042" lon="-0.38447203"><ele>8.0</ele><time>2022-11-17T20:44:22.0000000+00:00</time></trkpt><trkpt lat="39.47969073" lon="-0.38445887"><ele>8.0</ele><time>2022-11-17T20:44:23.0000000+00:00</time></trkpt><trkpt lat="39.47970003" lon="-0.38444596"><ele>8.0</ele><time>2022-11-17T20:44:24.0000000+00:00</time></trkpt><trkpt lat="39.47971093" lon="-0.38442836"><ele>8.0</ele><time>2022-11-17T20:44:25.0000000+00:00</time></trkpt><trkpt lat="39.47971839" lon="-0.38441612"><ele>8.0</ele><time>2022-11-17T20:44:26.0000000+00:00</time></trkpt><trkpt lat="39.47972484" lon="-0.38439911"><ele>8.0</ele><time>2022-11-17T20:44:27.0000000+00:00</time></trkpt><trkpt lat="39.47973037" lon="-0.3843836"><ele>8.0</ele><time>2022-11-17T20:44:28.0000000+00:00</time></trkpt><trkpt lat="39.47973725" lon="-0.38436919"><ele>7.8</ele><time>2022-11-17T20:44:29.0000000+00:00</time></trkpt><trkpt lat="39.47974806" lon="-0.38435108"><ele>7.8</ele><time>2022-11-17T20:44:30.0000000+00:00</time></trkpt><trkpt lat="39.47975652" lon="-0.38433281"><ele>7.8</ele><time>2022-11-17T20:44:31.0000000+00:00</time></trkpt><trkpt lat="39.47976231" lon="-0.38431546"><ele>7.8</ele><time>2022-11-17T20:44:32.0000000+00:00</time></trkpt><trkpt lat="39.47976952" lon="-0.38430096"><ele>7.8</ele><time>2022-11-17T20:44:33.0000000+00:00</time></trkpt><trkpt lat="39.47977806" lon="-0.38428679"><ele>7.8</ele><time>2022-11-17T20:44:34.0000000+00:00</time></trkpt><trkpt lat="39.47979072" lon="-0.38427413"><ele>7.8</ele><time>2022-11-17T20:44:35.0000000+00:00</time></trkpt><trkpt lat="39.47980086" lon="-0.38426123"><ele>7.8</ele><time>2022-11-17T20:44:36.0000000+00:00</time></trkpt><trkpt lat="39.47981226" lon="-0.3842505"><ele>7.8</ele><time>2022-11-17T20:44:37.0000000+00:00</time></trkpt><trkpt lat="39.47982266" lon="-0.38424186"><ele>7.8</ele><time>2022-11-17T20:44:38.0000000+00:00</time></trkpt><trkpt lat="39.47983054" lon="-0.38422912"><ele>7.8</ele><time>2022-11-17T20:44:39.0000000+00:00</time></trkpt><trkpt lat="39.47984194" lon="-0.38421379"><ele>7.8</ele><time>2022-11-17T20:44:40.0000000+00:00</time></trkpt><trkpt lat="39.47985208" lon="-0.3841904"><ele>7.8</ele><time>2022-11-17T20:44:41.0000000+00:00</time></trkpt><trkpt lat="39.47986155" lon="-0.38417028"><ele>7.8</ele><time>2022-11-17T20:44:42.0000000+00:00</time></trkpt><trkpt lat="39.47986985" lon="-0.38414723"><ele>8.0</ele><time>2022-11-17T20:44:43.0000000+00:00</time></trkpt><trkpt lat="39.47988074" lon="-0.38412536"><ele>8.0</ele><time>2022-11-17T20:44:44.0000000+00:00</time></trkpt><trkpt lat="39.47989608" lon="-0.3840961"><ele>8.0</ele><time>2022-11-17T20:44:45.0000000+00:00</time></trkpt><trkpt lat="39.47991494" lon="-0.38408973"><ele>8.2</ele><time>2022-11-17T20:44:46.0000000+00:00</time></trkpt><trkpt lat="39.4799255" lon="-0.38406685"><ele>8.2</ele><time>2022-11-17T20:44:47.0000000+00:00</time></trkpt><trkpt lat="39.47992316" lon="-0.3840469"><ele>8.2</ele><time>2022-11-17T20:44:48.0000000+00:00</time></trkpt><trkpt lat="39.47992886" lon="-0.38402595"><ele>8.2</ele><time>2022-11-17T20:44:49.0000000+00:00</time></trkpt><trkpt lat="39.47994755" lon="-0.38400793"><ele>8.2</ele><time>2022-11-17T20:44:50.0000000+00:00</time></trkpt><trkpt lat="39.47995786" lon="-0.38399208"><ele>8.0</ele><time>2022-11-17T20:44:51.0000000+00:00</time></trkpt><trkpt lat="39.47996012" lon="-0.38398127"><ele>8.0</ele><time>2022-11-17T20:44:52.0000000+00:00</time></trkpt><trkpt lat="39.47996624" lon="-0.38396912"><ele>8.0</ele><time>2022-11-17T20:44:53.0000000+00:00</time></trkpt><trkpt lat="39.47997646" lon="-0.38395797"><ele>7.8</ele><time>2022-11-17T20:44:54.0000000+00:00</time></trkpt><trkpt lat="39.47998929" lon="-0.38394808"><ele>7.8</ele><time>2022-11-17T20:44:55.0000000+00:00</time></trkpt><trkpt lat="39.48000094" lon="-0.3839376"><ele>7.8</ele><time>2022-11-17T20:44:56.0000000+00:00</time></trkpt><trkpt lat="39.48000974" lon="-0.38392235"><ele>7.8</ele><time>2022-11-17T20:44:57.0000000+00:00</time></trkpt><trkpt lat="39.48001661" lon="-0.38390382"><ele>7.8</ele><time>2022-11-17T20:44:58.0000000+00:00</time></trkpt><trkpt lat="39.48002466" lon="-0.38388664"><ele>7.8</ele><time>2022-11-17T20:44:59.0000000+00:00</time></trkpt><trkpt lat="39.48003246" lon="-0.38386694"><ele>8.0</ele><time>2022-11-17T20:45:00.0000000+00:00</time></trkpt><trkpt lat="39.48004017" lon="-0.38385311"><ele>8.0</ele><time>2022-11-17T20:45:01.0000000+00:00</time></trkpt><trkpt lat="39.48004771" lon="-0.38384213"><ele>8.0</ele><time>2022-11-17T20:45:02.0000000+00:00</time></trkpt><trkpt lat="39.48005291" lon="-0.38383492"><ele>8.0</ele><time>2022-11-17T20:45:03.0000000+00:00</time></trkpt><trkpt lat="39.48005936" lon="-0.38382277"><ele>8.0</ele><time>2022-11-17T20:45:04.0000000+00:00</time></trkpt><trkpt lat="39.48006825" lon="-0.38380936"><ele>8.0</ele><time>2022-11-17T20:45:05.0000000+00:00</time></trkpt><trkpt lat="39.48008082" lon="-0.38379033"><ele>8.0</ele><time>2022-11-17T20:45:06.0000000+00:00</time></trkpt><trkpt lat="39.48009264" lon="-0.38377256"><ele>8.0</ele><time>2022-11-17T20:45:07.0000000+00:00</time></trkpt><trkpt lat="39.48010228" lon="-0.38376116"><ele>7.8</ele><time>2022-11-17T20:45:08.0000000+00:00</time></trkpt><trkpt lat="39.48011083" lon="-0.38375177"><ele>7.8</ele><time>2022-11-17T20:45:09.0000000+00:00</time></trkpt><trkpt lat="39.48011938" lon="-0.3837392"><ele>7.8</ele><time>2022-11-17T20:45:10.0000000+00:00</time></trkpt><trkpt lat="39.48012784" lon="-0.3837278"><ele>7.8</ele><time>2022-11-17T20:45:11.0000000+00:00</time></trkpt><trkpt lat="39.48013689" lon="-0.38370903"><ele>7.8</ele><time>2022-11-17T20:45:12.0000000+00:00</time></trkpt><trkpt lat="39.48014427" lon="-0.38369293"><ele>7.6</ele><time>2022-11-17T20:45:13.0000000+00:00</time></trkpt><trkpt lat="39.4801472" lon="-0.38368003"><ele>7.6</ele><time>2022-11-17T20:45:14.0000000+00:00</time></trkpt><trkpt lat="39.48015559" lon="-0.38366234"><ele>7.4</ele><time>2022-11-17T20:45:15.0000000+00:00</time></trkpt><trkpt lat="39.48017059" lon="-0.38364851"><ele>7.4</ele><time>2022-11-17T20:45:16.0000000+00:00</time></trkpt><trkpt lat="39.480184" lon="-0.38363527"><ele>7.4</ele><time>2022-11-17T20:45:17.0000000+00:00</time></trkpt><trkpt lat="39.4801954" lon="-0.38362227"><ele>7.6</ele><time>2022-11-17T20:45:18.0000000+00:00</time></trkpt><trkpt lat="39.48020043" lon="-0.38360836"><ele>7.6</ele><time>2022-11-17T20:45:19.0000000+00:00</time></trkpt><trkpt lat="39.48020571" lon="-0.38359378"><ele>7.8</ele><time>2022-11-17T20:45:20.0000000+00:00</time></trkpt><trkpt lat="39.48021233" lon="-0.38357928"><ele>8.2</ele><time>2022-11-17T20:45:21.0000000+00:00</time></trkpt><trkpt lat="39.48022071" lon="-0.38356276"><ele>8.2</ele><time>2022-11-17T20:45:22.0000000+00:00</time></trkpt><trkpt lat="39.48023086" lon="-0.38354633"><ele>8.4</ele><time>2022-11-17T20:45:23.0000000+00:00</time></trkpt><trkpt lat="39.48024452" lon="-0.38352597"><ele>8.4</ele><time>2022-11-17T20:45:24.0000000+00:00</time></trkpt><trkpt lat="39.4802591" lon="-0.38350962"><ele>8.6</ele><time>2022-11-17T20:45:25.0000000+00:00</time></trkpt><trkpt lat="39.48026924" lon="-0.38349101"><ele>8.6</ele><time>2022-11-17T20:45:26.0000000+00:00</time></trkpt><trkpt lat="39.48027486" lon="-0.38347811"><ele>8.6</ele><time>2022-11-17T20:45:27.0000000+00:00</time></trkpt><trkpt lat="39.48028257" lon="-0.38346428"><ele>8.6</ele><time>2022-11-17T20:45:28.0000000+00:00</time></trkpt><trkpt lat="39.48029062" lon="-0.38344952"><ele>8.6</ele><time>2022-11-17T20:45:29.0000000+00:00</time></trkpt><trkpt lat="39.48029447" lon="-0.38343527"><ele>8.8</ele><time>2022-11-17T20:45:30.0000000+00:00</time></trkpt><trkpt lat="39.48030051" lon="-0.38341834"><ele>8.8</ele><time>2022-11-17T20:45:31.0000000+00:00</time></trkpt><trkpt lat="39.48031166" lon="-0.38340242"><ele>8.8</ele><time>2022-11-17T20:45:32.0000000+00:00</time></trkpt><trkpt lat="39.48031819" lon="-0.38338792"><ele>8.8</ele><time>2022-11-17T20:45:33.0000000+00:00</time></trkpt><trkpt lat="39.48032549" lon="-0.38337048"><ele>8.6</ele><time>2022-11-17T20:45:34.0000000+00:00</time></trkpt><trkpt lat="39.48033119" lon="-0.38335355"><ele>8.8</ele><time>2022-11-17T20:45:35.0000000+00:00</time></trkpt><trkpt lat="39.48033345" lon="-0.38333503"><ele>8.6</ele><time>2022-11-17T20:45:36.0000000+00:00</time></trkpt><trkpt lat="39.48033638" lon="-0.3833165"><ele>8.6</ele><time>2022-11-17T20:45:37.0000000+00:00</time></trkpt><trkpt lat="39.4803342" lon="-0.38329907"><ele>8.6</ele><time>2022-11-17T20:45:38.0000000+00:00</time></trkpt><trkpt lat="39.48032876" lon="-0.38327929"><ele>8.6</ele><time>2022-11-17T20:45:39.0000000+00:00</time></trkpt><trkpt lat="39.48032348" lon="-0.38326445"><ele>8.6</ele><time>2022-11-17T20:45:40.0000000+00:00</time></trkpt><trkpt lat="39.48031794" lon="-0.38324718"><ele>8.4</ele><time>2022-11-17T20:45:41.0000000+00:00</time></trkpt><trkpt lat="39.48031182" lon="-0.38323386"><ele>8.4</ele><time>2022-11-17T20:45:42.0000000+00:00</time></trkpt><trkpt lat="39.48030587" lon="-0.38322321"><ele>8.4</ele><time>2022-11-17T20:45:43.0000000+00:00</time></trkpt><trkpt lat="39.48029741" lon="-0.38320947"><ele>8.4</ele><time>2022-11-17T20:45:44.0000000+00:00</time></trkpt><trkpt lat="39.48028785" lon="-0.38319362"><ele>8.4</ele><time>2022-11-17T20:45:45.0000000+00:00</time></trkpt><trkpt lat="39.48027545" lon="-0.38318055"><ele>8.6</ele><time>2022-11-17T20:45:46.0000000+00:00</time></trkpt><trkpt lat="39.48026824" lon="-0.38317309"><ele>8.6</ele><time>2022-11-17T20:45:47.0000000+00:00</time></trkpt><trkpt lat="39.4802679" lon="-0.38316177"><ele>8.6</ele><time>2022-11-17T20:45:48.0000000+00:00</time></trkpt><trkpt lat="39.48026547" lon="-0.38314861"><ele>8.6</ele><time>2022-11-17T20:45:49.0000000+00:00</time></trkpt><trkpt lat="39.4802617" lon="-0.38313721"><ele>8.6</ele><time>2022-11-17T20:45:50.0000000+00:00</time></trkpt><trkpt lat="39.48025902" lon="-0.38311953"><ele>8.6</ele><time>2022-11-17T20:45:51.0000000+00:00</time></trkpt><trkpt lat="39.48025625" lon="-0.38310603"><ele>8.6</ele><time>2022-11-17T20:45:52.0000000+00:00</time></trkpt><trkpt lat="39.48025567" lon="-0.3830855"><ele>8.6</ele><time>2022-11-17T20:45:53.0000000+00:00</time></trkpt><trkpt lat="39.48026086" lon="-0.38306781"><ele>8.4</ele><time>2022-11-17T20:45:54.0000000+00:00</time></trkpt><trkpt lat="39.48026673" lon="-0.38305482"><ele>8.4</ele><time>2022-11-17T20:45:55.0000000+00:00</time></trkpt><trkpt lat="39.48026933" lon="-0.38304007"><ele>8.4</ele><time>2022-11-17T20:45:56.0000000+00:00</time></trkpt><trkpt lat="39.48027218" lon="-0.38302599"><ele>8.4</ele><time>2022-11-17T20:45:57.0000000+00:00</time></trkpt><trkpt lat="39.48027855" lon="-0.3830119"><ele>8.4</ele><time>2022-11-17T20:45:58.0000000+00:00</time></trkpt><trkpt lat="39.48028693" lon="-0.3830026"><ele>8.4</ele><time>2022-11-17T20:45:59.0000000+00:00</time></trkpt><trkpt lat="39.48029288" lon="-0.38298802"><ele>8.4</ele><time>2022-11-17T20:46:00.0000000+00:00</time></trkpt><trkpt lat="39.48029699" lon="-0.38298424"><ele>8.4</ele><time>2022-11-17T20:46:01.0000000+00:00</time></trkpt><trkpt lat="39.48030395" lon="-0.38298282"><ele>8.6</ele><time>2022-11-17T20:46:02.0000000+00:00</time></trkpt><trkpt lat="39.48031082" lon="-0.38297234"><ele>8.6</ele><time>2022-11-17T20:46:03.0000000+00:00</time></trkpt><trkpt lat="39.48032272" lon="-0.3829586"><ele>8.6</ele><time>2022-11-17T20:46:04.0000000+00:00</time></trkpt><trkpt lat="39.48034074" lon="-0.38294753"><ele>8.6</ele><time>2022-11-17T20:46:05.0000000+00:00</time></trkpt><trkpt lat="39.48035541" lon="-0.38295885"><ele>8.6</ele><time>2022-11-17T20:46:06.0000000+00:00</time></trkpt><trkpt lat="39.48037117" lon="-0.38296756"><ele>8.8</ele><time>2022-11-17T20:46:07.0000000+00:00</time></trkpt><trkpt lat="39.48038793" lon="-0.38296262"><ele>8.8</ele><time>2022-11-17T20:46:08.0000000+00:00</time></trkpt><trkpt lat="39.48040411" lon="-0.38295533"><ele>8.8</ele><time>2022-11-17T20:46:09.0000000+00:00</time></trkpt><trkpt lat="39.4804197" lon="-0.38294879"><ele>8.8</ele><time>2022-11-17T20:46:10.0000000+00:00</time></trkpt><trkpt lat="39.48042959" lon="-0.38294661"><ele>8.8</ele><time>2022-11-17T20:46:11.0000000+00:00</time></trkpt><trkpt lat="39.48043009" lon="-0.38294225"><ele>8.8</ele><time>2022-11-17T20:46:12.0000000+00:00</time></trkpt><trkpt lat="39.48042842" lon="-0.382943"><ele>8.6</ele><time>2022-11-17T20:46:13.0000000+00:00</time></trkpt><trkpt lat="39.48043252" lon="-0.38294175"><ele>8.6</ele><time>2022-11-17T20:46:14.0000000+00:00</time></trkpt><trkpt lat="39.48043261" lon="-0.3829363"><ele>8.6</ele><time>2022-11-17T20:46:15.0000000+00:00</time></trkpt><trkpt lat="39.48044753" lon="-0.3829363"><ele>8.6</ele><time>2022-11-17T20:46:16.0000000+00:00</time></trkpt><trkpt lat="39.48045868" lon="-0.38292037"><ele>8.6</ele><time>2022-11-17T20:46:17.0000000+00:00</time></trkpt><trkpt lat="39.48046421" lon="-0.38288877"><ele>8.4</ele><time>2022-11-17T20:46:18.0000000+00:00</time></trkpt><trkpt lat="39.48046714" lon="-0.38287905"><ele>8.4</ele><time>2022-11-17T20:46:19.0000000+00:00</time></trkpt><trkpt lat="39.48047745" lon="-0.38287167"><ele>8.4</ele><time>2022-11-17T20:46:20.0000000+00:00</time></trkpt><trkpt lat="39.48048114" lon="-0.38286346"><ele>8.4</ele><time>2022-11-17T20:46:21.0000000+00:00</time></trkpt><trkpt lat="39.48047804" lon="-0.38287947"><ele>8.4</ele><time>2022-11-17T20:46:22.0000000+00:00</time></trkpt><trkpt lat="39.48048466" lon="-0.38287587"><ele>8.4</ele><time>2022-11-17T20:46:23.0000000+00:00</time></trkpt><trkpt lat="39.48048843" lon="-0.38286639"><ele>8.4</ele><time>2022-11-17T20:46:24.0000000+00:00</time></trkpt><trkpt lat="39.4804948" lon="-0.38285684"><ele>8.4</ele><time>2022-11-17T20:46:25.0000000+00:00</time></trkpt><trkpt lat="39.48050637" lon="-0.38283873"><ele>8.4</ele><time>2022-11-17T20:46:26.0000000+00:00</time></trkpt><trkpt lat="39.48051768" lon="-0.38282516"><ele>8.4</ele><time>2022-11-17T20:46:27.0000000+00:00</time></trkpt><trkpt lat="39.48052615" lon="-0.3828151"><ele>8.4</ele><time>2022-11-17T20:46:28.0000000+00:00</time></trkpt><trkpt lat="39.48053621" lon="-0.3827959"><ele>8.4</ele><time>2022-11-17T20:46:29.0000000+00:00</time></trkpt><trkpt lat="39.48054719" lon="-0.38276388"><ele>8.4</ele><time>2022-11-17T20:46:30.0000000+00:00</time></trkpt><trkpt lat="39.48056093" lon="-0.38273455"><ele>8.4</ele><time>2022-11-17T20:46:31.0000000+00:00</time></trkpt><trkpt lat="39.48057954" lon="-0.38270328"><ele>8.4</ele><time>2022-11-17T20:46:32.0000000+00:00</time></trkpt><trkpt lat="39.48059186" lon="-0.38267562"><ele>8.2</ele><time>2022-11-17T20:46:33.0000000+00:00</time></trkpt><trkpt lat="39.48060318" lon="-0.3826524"><ele>8.2</ele><time>2022-11-17T20:46:34.0000000+00:00</time></trkpt><trkpt lat="39.48060829" lon="-0.38263564"><ele>8.2</ele><time>2022-11-17T20:46:35.0000000+00:00</time></trkpt><trkpt lat="39.48060636" lon="-0.38262357"><ele>8.2</ele><time>2022-11-17T20:46:36.0000000+00:00</time></trkpt><trkpt lat="39.48060578" lon="-0.38261234"><ele>8.2</ele><time>2022-11-17T20:46:37.0000000+00:00</time></trkpt><trkpt lat="39.48060645" lon="-0.38259717"><ele>8.0</ele><time>2022-11-17T20:46:38.0000000+00:00</time></trkpt><trkpt lat="39.48060863" lon="-0.38258644"><ele>8.0</ele><time>2022-11-17T20:46:39.0000000+00:00</time></trkpt><trkpt lat="39.48060963" lon="-0.38257613"><ele>8.0</ele><time>2022-11-17T20:46:40.0000000+00:00</time></trkpt><trkpt lat="39.48060494" lon="-0.38256691"><ele>8.0</ele><time>2022-11-17T20:46:41.0000000+00:00</time></trkpt><trkpt lat="39.48060033" lon="-0.38255459"><ele>8.0</ele><time>2022-11-17T20:46:42.0000000+00:00</time></trkpt><trkpt lat="39.48059337" lon="-0.38254621"><ele>8.0</ele><time>2022-11-17T20:46:43.0000000+00:00</time></trkpt><trkpt lat="39.48059077" lon="-0.38254193"><ele>8.0</ele><time>2022-11-17T20:46:44.0000000+00:00</time></trkpt><trkpt lat="39.48058499" lon="-0.38253137"><ele>8.0</ele><time>2022-11-17T20:46:45.0000000+00:00</time></trkpt><trkpt lat="39.48057418" lon="-0.38251846"><ele>8.0</ele><time>2022-11-17T20:46:46.0000000+00:00</time></trkpt><trkpt lat="39.48056689" lon="-0.3825058"><ele>8.0</ele><time>2022-11-17T20:46:47.0000000+00:00</time></trkpt><trkpt lat="39.48055616" lon="-0.38248904"><ele>8.0</ele><time>2022-11-17T20:46:48.0000000+00:00</time></trkpt><trkpt lat="39.48055331" lon="-0.38247312"><ele>8.0</ele><time>2022-11-17T20:46:49.0000000+00:00</time></trkpt><trkpt lat="39.48055523" lon="-0.38246247"><ele>8.0</ele><time>2022-11-17T20:46:50.0000000+00:00</time></trkpt><trkpt lat="39.48056144" lon="-0.38245015"><ele>8.0</ele><time>2022-11-17T20:46:51.0000000+00:00</time></trkpt><trkpt lat="39.48056689" lon="-0.38243732"><ele>8.0</ele><time>2022-11-17T20:46:52.0000000+00:00</time></trkpt><trkpt lat="39.48057661" lon="-0.38241964"><ele>8.0</ele><time>2022-11-17T20:46:53.0000000+00:00</time></trkpt><trkpt lat="39.48058692" lon="-0.3824007"><ele>8.0</ele><time>2022-11-17T20:46:54.0000000+00:00</time></trkpt><trkpt lat="39.48059832" lon="-0.38238217"><ele>8.2</ele><time>2022-11-17T20:46:55.0000000+00:00</time></trkpt><trkpt lat="39.48061056" lon="-0.38236801"><ele>8.2</ele><time>2022-11-17T20:46:56.0000000+00:00</time></trkpt><trkpt lat="39.48062154" lon="-0.38235292"><ele>8.2</ele><time>2022-11-17T20:46:57.0000000+00:00</time></trkpt><trkpt lat="39.4806362" lon="-0.38233247"><ele>8.2</ele><time>2022-11-17T20:46:58.0000000+00:00</time></trkpt><trkpt lat="39.48063905" lon="-0.3823209"><ele>8.2</ele><time>2022-11-17T20:46:59.0000000+00:00</time></trkpt><trkpt lat="39.48065624" lon="-0.38230187"><ele>8.2</ele><time>2022-11-17T20:47:00.0000000+00:00</time></trkpt><trkpt lat="39.48067811" lon="-0.38228377"><ele>8.2</ele><time>2022-11-17T20:47:01.0000000+00:00</time></trkpt><trkpt lat="39.48068951" lon="-0.38227329"><ele>8.2</ele><time>2022-11-17T20:47:02.0000000+00:00</time></trkpt><trkpt lat="39.48069681" lon="-0.38226055"><ele>8.2</ele><time>2022-11-17T20:47:03.0000000+00:00</time></trkpt><trkpt lat="39.48070301" lon="-0.38224647"><ele>8.2</ele><time>2022-11-17T20:47:04.0000000+00:00</time></trkpt><trkpt lat="39.48070485" lon="-0.38223289"><ele>8.2</ele><time>2022-11-17T20:47:05.0000000+00:00</time></trkpt><trkpt lat="39.48071416" lon="-0.38221537"><ele>8.2</ele><time>2022-11-17T20:47:06.0000000+00:00</time></trkpt><trkpt lat="39.48072396" lon="-0.3821945"><ele>8.2</ele><time>2022-11-17T20:47:07.0000000+00:00</time></trkpt><trkpt lat="39.48073503" lon="-0.38216751"><ele>8.0</ele><time>2022-11-17T20:47:08.0000000+00:00</time></trkpt><trkpt lat="39.48074936" lon="-0.38214765"><ele>8.0</ele><time>2022-11-17T20:47:09.0000000+00:00</time></trkpt><trkpt lat="39.48076143" lon="-0.38212761"><ele>8.0</ele><time>2022-11-17T20:47:10.0000000+00:00</time></trkpt><trkpt lat="39.48077115" lon="-0.38211202"><ele>7.8</ele><time>2022-11-17T20:47:11.0000000+00:00</time></trkpt><trkpt lat="39.48078456" lon="-0.38209291"><ele>7.8</ele><time>2022-11-17T20:47:12.0000000+00:00</time></trkpt><trkpt lat="39.48079345" lon="-0.38208026"><ele>7.8</ele><time>2022-11-17T20:47:13.0000000+00:00</time></trkpt><trkpt lat="39.48079781" lon="-0.38207078"><ele>7.8</ele><time>2022-11-17T20:47:14.0000000+00:00</time></trkpt><trkpt lat="39.48079772" lon="-0.38206299"><ele>7.8</ele><time>2022-11-17T20:47:15.0000000+00:00</time></trkpt><trkpt lat="39.48080024" lon="-0.38205511"><ele>7.8</ele><time>2022-11-17T20:47:16.0000000+00:00</time></trkpt><trkpt lat="39.48079957" lon="-0.38205008"><ele>7.8</ele><time>2022-11-17T20:47:17.0000000+00:00</time></trkpt><trkpt lat="39.48080133" lon="-0.38204773"><ele>7.8</ele><time>2022-11-17T20:47:18.0000000+00:00</time></trkpt><trkpt lat="39.48080502" lon="-0.38204623"><ele>8.0</ele><time>2022-11-17T20:47:19.0000000+00:00</time></trkpt><trkpt lat="39.48080795" lon="-0.3820391"><ele>7.8</ele><time>2022-11-17T20:47:20.0000000+00:00</time></trkpt><trkpt lat="39.48081926" lon="-0.38203944"><ele>8.0</ele><time>2022-11-17T20:47:21.0000000+00:00</time></trkpt><trkpt lat="39.48082153" lon="-0.3820308"><ele>8.0</ele><time>2022-11-17T20:47:22.0000000+00:00</time></trkpt><trkpt lat="39.4808113" lon="-0.3820303"><ele>8.0</ele><time>2022-11-17T20:47:23.0000000+00:00</time></trkpt><trkpt lat="39.4808103" lon="-0.38203131"><ele>8.0</ele><time>2022-11-17T20:47:24.0000000+00:00</time></trkpt><trkpt lat="39.48081072" lon="-0.38203625"><ele>8.0</ele><time>2022-11-17T20:47:25.0000000+00:00</time></trkpt><trkpt lat="39.48081935" lon="-0.38203969"><ele>8.0</ele><time>2022-11-17T20:47:26.0000000+00:00</time></trkpt><trkpt lat="39.48082865" lon="-0.38204178"><ele>8.0</ele><time>2022-11-17T20:47:27.0000000+00:00</time></trkpt><trkpt lat="39.48083519" lon="-0.38204824"><ele>8.0</ele><time>2022-11-17T20:47:28.0000000+00:00</time></trkpt><trkpt lat="39.48083435" lon="-0.38205025"><ele>8.0</ele><time>2022-11-17T20:47:29.0000000+00:00</time></trkpt><trkpt lat="39.48083284" lon="-0.38205125"><ele>8.0</ele><time>2022-11-17T20:47:30.0000000+00:00</time></trkpt><trkpt lat="39.48082664" lon="-0.38205301"><ele>8.0</ele><time>2022-11-17T20:47:31.0000000+00:00</time></trkpt><trkpt lat="39.48081566" lon="-0.38205084"><ele>8.0</ele><time>2022-11-17T20:47:32.0000000+00:00</time></trkpt><trkpt lat="39.48081113" lon="-0.38204824"><ele>8.0</ele><time>2022-11-17T20:47:33.0000000+00:00</time></trkpt><trkpt lat="39.48081264" lon="-0.38204815"><ele>8.0</ele><time>2022-11-17T20:47:34.0000000+00:00</time></trkpt><trkpt lat="39.4808134" lon="-0.38204832"><ele>8.0</ele><time>2022-11-17T20:47:35.0000000+00:00</time></trkpt><trkpt lat="39.48081315" lon="-0.38204765"><ele>8.0</ele><time>2022-11-17T20:47:36.0000000+00:00</time></trkpt><trkpt lat="39.48081206" lon="-0.38204614"><ele>8.0</ele><time>2022-11-17T20:47:37.0000000+00:00</time></trkpt><trkpt lat="39.48081239" lon="-0.3820453"><ele>8.0</ele><time>2022-11-17T20:47:38.0000000+00:00</time></trkpt><trkpt lat="39.48081113" lon="-0.3820443"><ele>8.0</ele><time>2022-11-17T20:47:39.0000000+00:00</time></trkpt><trkpt lat="39.48081046" lon="-0.38204547"><ele>8.0</ele><time>2022-11-17T20:47:40.0000000+00:00</time></trkpt><trkpt lat="39.48081122" lon="-0.38204606"><ele>8.0</ele><time>2022-11-17T20:47:41.0000000+00:00</time></trkpt><trkpt lat="39.48081122" lon="-0.38204606"><ele>8.0</ele><time>2022-11-17T20:47:42.0000000+00:00</time></trkpt><trkpt lat="39.48081407" lon="-0.38204438"><ele>8.0</ele><time>2022-11-17T20:47:43.0000000+00:00</time></trkpt><trkpt lat="39.48081977" lon="-0.38203382"><ele>8.0</ele><time>2022-11-17T20:47:44.0000000+00:00</time></trkpt><trkpt lat="39.48082413" lon="-0.3820251"><ele>8.0</ele><time>2022-11-17T20:47:45.0000000+00:00</time></trkpt><trkpt lat="39.48082857" lon="-0.3820132"><ele>8.0</ele><time>2022-11-17T20:47:46.0000000+00:00</time></trkpt><trkpt lat="39.48084198" lon="-0.38199945"><ele>8.0</ele><time>2022-11-17T20:47:47.0000000+00:00</time></trkpt><trkpt lat="39.48084701" lon="-0.38198219"><ele>8.0</ele><time>2022-11-17T20:47:48.0000000+00:00</time></trkpt><trkpt lat="39.48084709" lon="-0.38196534"><ele>8.0</ele><time>2022-11-17T20:47:49.0000000+00:00</time></trkpt><trkpt lat="39.48085531" lon="-0.38194522"><ele>8.0</ele><time>2022-11-17T20:47:50.0000000+00:00</time></trkpt><trkpt lat="39.48086092" lon="-0.38192351"><ele>8.0</ele><time>2022-11-17T20:47:51.0000000+00:00</time></trkpt><trkpt lat="39.48086578" lon="-0.38190055"><ele>8.0</ele><time>2022-11-17T20:47:52.0000000+00:00</time></trkpt><trkpt lat="39.48087065" lon="-0.38187423"><ele>8.0</ele><time>2022-11-17T20:47:53.0000000+00:00</time></trkpt><trkpt lat="39.48087651" lon="-0.38185218"><ele>8.2</ele><time>2022-11-17T20:47:54.0000000+00:00</time></trkpt><trkpt lat="39.48087827" lon="-0.38183819"><ele>8.2</ele><time>2022-11-17T20:47:55.0000000+00:00</time></trkpt><trkpt lat="39.4808776" lon="-0.38182737"><ele>8.2</ele><time>2022-11-17T20:47:56.0000000+00:00</time></trkpt><trkpt lat="39.48087869" lon="-0.38181866"><ele>8.2</ele><time>2022-11-17T20:47:57.0000000+00:00</time></trkpt><trkpt lat="39.48087752" lon="-0.3818081"><ele>8.2</ele><time>2022-11-17T20:47:58.0000000+00:00</time></trkpt><trkpt lat="39.4808802" lon="-0.38179628"><ele>8.2</ele><time>2022-11-17T20:47:59.0000000+00:00</time></trkpt><trkpt lat="39.4808828" lon="-0.38179074"><ele>8.2</ele><time>2022-11-17T20:48:00.0000000+00:00</time></trkpt><trkpt lat="39.48088137" lon="-0.38178186"><ele>8.2</ele><time>2022-11-17T20:48:01.0000000+00:00</time></trkpt><trkpt lat="39.48087945" lon="-0.38176468"><ele>8.2</ele><time>2022-11-17T20:48:02.0000000+00:00</time></trkpt><trkpt lat="39.48088649" lon="-0.38174238"><ele>8.2</ele><time>2022-11-17T20:48:03.0000000+00:00</time></trkpt><trkpt lat="39.48089613" lon="-0.38172151"><ele>8.0</ele><time>2022-11-17T20:48:04.0000000+00:00</time></trkpt><trkpt lat="39.48090702" lon="-0.38170609"><ele>8.0</ele><time>2022-11-17T20:48:05.0000000+00:00</time></trkpt><trkpt lat="39.48091222" lon="-0.38168589"><ele>8.0</ele><time>2022-11-17T20:48:06.0000000+00:00</time></trkpt><trkpt lat="39.48091909" lon="-0.38165437"><ele>8.0</ele><time>2022-11-17T20:48:07.0000000+00:00</time></trkpt><trkpt lat="39.48092538" lon="-0.3816242"><ele>8.0</ele><time>2022-11-17T20:48:08.0000000+00:00</time></trkpt><trkpt lat="39.48094147" lon="-0.38158807"><ele>8.0</ele><time>2022-11-17T20:48:09.0000000+00:00</time></trkpt><trkpt lat="39.48095195" lon="-0.38155563"><ele>8.0</ele><time>2022-11-17T20:48:10.0000000+00:00</time></trkpt><trkpt lat="39.48095614" lon="-0.38153409"><ele>8.0</ele><time>2022-11-17T20:48:11.0000000+00:00</time></trkpt><trkpt lat="39.48096" lon="-0.38150936"><ele>8.0</ele><time>2022-11-17T20:48:12.0000000+00:00</time></trkpt><trkpt lat="39.48096117" lon="-0.38148489"><ele>8.0</ele><time>2022-11-17T20:48:13.0000000+00:00</time></trkpt><trkpt lat="39.48096201" lon="-0.38145698"><ele>8.0</ele><time>2022-11-17T20:48:14.0000000+00:00</time></trkpt><trkpt lat="39.48097332" lon="-0.38142898"><ele>8.0</ele><time>2022-11-17T20:48:15.0000000+00:00</time></trkpt><trkpt lat="39.48098439" lon="-0.38140551"><ele>8.0</ele><time>2022-11-17T20:48:16.0000000+00:00</time></trkpt><trkpt lat="39.48099621" lon="-0.38139001"><ele>7.8</ele><time>2022-11-17T20:48:17.0000000+00:00</time></trkpt><trkpt lat="39.48100878" lon="-0.3813771"><ele>7.8</ele><time>2022-11-17T20:48:18.0000000+00:00</time></trkpt><trkpt lat="39.48101766" lon="-0.38135774"><ele>7.8</ele><time>2022-11-17T20:48:19.0000000+00:00</time></trkpt><trkpt lat="39.48102211" lon="-0.38133536"><ele>7.8</ele><time>2022-11-17T20:48:20.0000000+00:00</time></trkpt><trkpt lat="39.48102747" lon="-0.38130996"><ele>7.8</ele><time>2022-11-17T20:48:21.0000000+00:00</time></trkpt><trkpt lat="39.48103149" lon="-0.38128624"><ele>7.8</ele><time>2022-11-17T20:48:22.0000000+00:00</time></trkpt><trkpt lat="39.48104004" lon="-0.38126755"><ele>7.6</ele><time>2022-11-17T20:48:23.0000000+00:00</time></trkpt><trkpt lat="39.48104834" lon="-0.38125154"><ele>7.6</ele><time>2022-11-17T20:48:24.0000000+00:00</time></trkpt><trkpt lat="39.48106066" lon="-0.38123125"><ele>7.6</ele><time>2022-11-17T20:48:25.0000000+00:00</time></trkpt><trkpt lat="39.48106636" lon="-0.38121038"><ele>7.6</ele><time>2022-11-17T20:48:26.0000000+00:00</time></trkpt><trkpt lat="39.48107366" lon="-0.3811844"><ele>7.6</ele><time>2022-11-17T20:48:27.0000000+00:00</time></trkpt><trkpt lat="39.48108304" lon="-0.38115766"><ele>7.6</ele><time>2022-11-17T20:48:28.0000000+00:00</time></trkpt><trkpt lat="39.48109143" lon="-0.3811388"><ele>7.6</ele><time>2022-11-17T20:48:29.0000000+00:00</time></trkpt><trkpt lat="39.48109017" lon="-0.38112279"><ele>7.6</ele><time>2022-11-17T20:48:30.0000000+00:00</time></trkpt><trkpt lat="39.48108933" lon="-0.38110276"><ele>7.6</ele><time>2022-11-17T20:48:31.0000000+00:00</time></trkpt><trkpt lat="39.4810874" lon="-0.38108507"><ele>7.6</ele><time>2022-11-17T20:48:32.0000000+00:00</time></trkpt><trkpt lat="39.4810838" lon="-0.38106789"><ele>7.6</ele><time>2022-11-17T20:48:33.0000000+00:00</time></trkpt><trkpt lat="39.48108212" lon="-0.38105163"><ele>7.8</ele><time>2022-11-17T20:48:34.0000000+00:00</time></trkpt><trkpt lat="39.48107768" lon="-0.38103252"><ele>7.8</ele><time>2022-11-17T20:48:35.0000000+00:00</time></trkpt><trkpt lat="39.48108003" lon="-0.38101047"><ele>7.8</ele><time>2022-11-17T20:48:36.0000000+00:00</time></trkpt><trkpt lat="39.48108983" lon="-0.38098851"><ele>7.8</ele><time>2022-11-17T20:48:37.0000000+00:00</time></trkpt><trkpt lat="39.48109847" lon="-0.38096714"><ele>7.8</ele><time>2022-11-17T20:48:38.0000000+00:00</time></trkpt><trkpt lat="39.48111489" lon="-0.38094501"><ele>7.8</ele><time>2022-11-17T20:48:39.0000000+00:00</time></trkpt><trkpt lat="39.48113023" lon="-0.38093135"><ele>8.0</ele><time>2022-11-17T20:48:40.0000000+00:00</time></trkpt><trkpt lat="39.48114599" lon="-0.38091794"><ele>8.0</ele><time>2022-11-17T20:48:41.0000000+00:00</time></trkpt><trkpt lat="39.48115722" lon="-0.3809036"><ele>8.0</ele><time>2022-11-17T20:48:42.0000000+00:00</time></trkpt><trkpt lat="39.48116644" lon="-0.38088743"><ele>8.2</ele><time>2022-11-17T20:48:43.0000000+00:00</time></trkpt><trkpt lat="39.48117156" lon="-0.38087167"><ele>8.2</ele><time>2022-11-17T20:48:44.0000000+00:00</time></trkpt><trkpt lat="39.48117499" lon="-0.3808591"><ele>8.2</ele><time>2022-11-17T20:48:45.0000000+00:00</time></trkpt><trkpt lat="39.4811703" lon="-0.38084745"><ele>8.2</ele><time>2022-11-17T20:48:46.0000000+00:00</time></trkpt><trkpt lat="39.48116854" lon="-0.38083253"><ele>8.2</ele><time>2022-11-17T20:48:47.0000000+00:00</time></trkpt><trkpt lat="39.481177" lon="-0.38081434"><ele>8.2</ele><time>2022-11-17T20:48:48.0000000+00:00</time></trkpt><trkpt lat="39.48118421" lon="-0.38079657"><ele>8.2</ele><time>2022-11-17T20:48:49.0000000+00:00</time></trkpt><trkpt lat="39.48118514" lon="-0.38077503"><ele>8.2</ele><time>2022-11-17T20:48:50.0000000+00:00</time></trkpt><trkpt lat="39.4811796" lon="-0.3807539"><ele>8.2</ele><time>2022-11-17T20:48:51.0000000+00:00</time></trkpt><trkpt lat="39.48116745" lon="-0.3807425"><ele>8.2</ele><time>2022-11-17T20:48:52.0000000+00:00</time></trkpt><trkpt lat="39.48115261" lon="-0.3807337"><ele>8.4</ele><time>2022-11-17T20:48:53.0000000+00:00</time></trkpt><trkpt lat="39.48113635" lon="-0.38072943"><ele>8.4</ele><time>2022-11-17T20:48:54.0000000+00:00</time></trkpt><trkpt lat="39.48111481" lon="-0.38072239"><ele>8.4</ele><time>2022-11-17T20:48:55.0000000+00:00</time></trkpt><trkpt lat="39.48109821" lon="-0.38071518"><ele>8.4</ele><time>2022-11-17T20:48:56.0000000+00:00</time></trkpt><trkpt lat="39.48108162" lon="-0.38071007"><ele>8.2</ele><time>2022-11-17T20:48:57.0000000+00:00</time></trkpt><trkpt lat="39.48106854" lon="-0.38070646"><ele>8.2</ele><time>2022-11-17T20:48:58.0000000+00:00</time></trkpt><trkpt lat="39.48105278" lon="-0.38071359"><ele>8.0</ele><time>2022-11-17T20:48:59.0000000+00:00</time></trkpt><trkpt lat="39.48104004" lon="-0.38072222"><ele>8.0</ele><time>2022-11-17T20:49:00.0000000+00:00</time></trkpt><trkpt lat="39.48102814" lon="-0.38072339"><ele>8.0</ele><time>2022-11-17T20:49:01.0000000+00:00</time></trkpt><trkpt lat="39.48101917" lon="-0.38072725"><ele>7.8</ele><time>2022-11-17T20:49:02.0000000+00:00</time></trkpt><trkpt lat="39.48100383" lon="-0.3807223"><ele>7.8</ele><time>2022-11-17T20:49:03.0000000+00:00</time></trkpt><trkpt lat="39.48099034" lon="-0.38071954"><ele>7.8</ele><time>2022-11-17T20:49:04.0000000+00:00</time></trkpt><trkpt lat="39.48098087" lon="-0.38071518"><ele>7.8</ele><time>2022-11-17T20:49:05.0000000+00:00</time></trkpt><trkpt lat="39.48095815" lon="-0.38071711"><ele>7.8</ele><time>2022-11-17T20:49:06.0000000+00:00</time></trkpt><trkpt lat="39.48093871" lon="-0.38071719"><ele>7.8</ele><time>2022-11-17T20:49:07.0000000+00:00</time></trkpt><trkpt lat="39.48092949" lon="-0.38072071"><ele>8.0</ele><time>2022-11-17T20:49:08.0000000+00:00</time></trkpt><trkpt lat="39.48091876" lon="-0.38071836"><ele>8.0</ele><time>2022-11-17T20:49:09.0000000+00:00</time></trkpt><trkpt lat="39.48091096" lon="-0.38072121"><ele>8.0</ele><time>2022-11-17T20:49:10.0000000+00:00</time></trkpt><trkpt lat="39.48090208" lon="-0.38072096"><ele>8.0</ele><time>2022-11-17T20:49:11.0000000+00:00</time></trkpt><trkpt lat="39.48089261" lon="-0.38072708"><ele>8.0</ele><time>2022-11-17T20:49:12.0000000+00:00</time></trkpt><trkpt lat="39.48088766" lon="-0.38072792"><ele>8.0</ele><time>2022-11-17T20:49:13.0000000+00:00</time></trkpt><trkpt lat="39.48088012" lon="-0.38072834"><ele>8.0</ele><time>2022-11-17T20:49:14.0000000+00:00</time></trkpt><trkpt lat="39.48087157" lon="-0.38073236"><ele>8.0</ele><time>2022-11-17T20:49:15.0000000+00:00</time></trkpt><trkpt lat="39.48086578" lon="-0.38073295"><ele>8.0</ele><time>2022-11-17T20:49:16.0000000+00:00</time></trkpt><trkpt lat="39.48086226" lon="-0.38073144"><ele>8.0</ele><time>2022-11-17T20:49:17.0000000+00:00</time></trkpt><trkpt lat="39.48085648" lon="-0.38073446"><ele>8.2</ele><time>2022-11-17T20:49:18.0000000+00:00</time></trkpt><trkpt lat="39.48085489" lon="-0.38073245"><ele>8.2</ele><time>2022-11-17T20:49:19.0000000+00:00</time></trkpt><trkpt lat="39.48085413" lon="-0.3807306"><ele>8.2</ele><time>2022-11-17T20:49:20.0000000+00:00</time></trkpt><trkpt lat="39.48085254" lon="-0.38073488"><ele>8.2</ele><time>2022-11-17T20:49:21.0000000+00:00</time></trkpt><trkpt lat="39.48085497" lon="-0.38073697"><ele>8.2</ele><time>2022-11-17T20:49:22.0000000+00:00</time></trkpt><trkpt lat="39.48085791" lon="-0.38073647"><ele>8.2</ele><time>2022-11-17T20:49:23.0000000+00:00</time></trkpt><trkpt lat="39.48085883" lon="-0.38073597"><ele>8.4</ele><time>2022-11-17T20:49:24.0000000+00:00</time></trkpt><trkpt lat="39.48086537" lon="-0.38073798"><ele>8.4</ele><time>2022-11-17T20:49:25.0000000+00:00</time></trkpt><trkpt lat="39.48086746" lon="-0.38073848"><ele>8.4</ele><time>2022-11-17T20:49:26.0000000+00:00</time></trkpt><trkpt lat="39.48086671" lon="-0.38073949"><ele>8.4</ele><time>2022-11-17T20:49:27.0000000+00:00</time></trkpt><trkpt lat="39.48086344" lon="-0.38074435"><ele>8.4</ele><time>2022-11-17T20:49:28.0000000+00:00</time></trkpt><trkpt lat="39.48086771" lon="-0.380741"><ele>8.4</ele><time>2022-11-17T20:49:29.0000000+00:00</time></trkpt><trkpt lat="39.48087626" lon="-0.3807384"><ele>8.2</ele><time>2022-11-17T20:49:30.0000000+00:00</time></trkpt><trkpt lat="39.48087827" lon="-0.38073563"><ele>8.2</ele><time>2022-11-17T20:49:31.0000000+00:00</time></trkpt><trkpt lat="39.48088196" lon="-0.38073429"><ele>8.2</ele><time>2022-11-17T20:49:32.0000000+00:00</time></trkpt><trkpt lat="39.48088942" lon="-0.38073328"><ele>8.2</ele><time>2022-11-17T20:49:33.0000000+00:00</time></trkpt><trkpt lat="39.48089412" lon="-0.38073077"><ele>8.2</ele><time>2022-11-17T20:49:34.0000000+00:00</time></trkpt><trkpt lat="39.48089244" lon="-0.38072926"><ele>8.2</ele><time>2022-11-17T20:49:35.0000000+00:00</time></trkpt><trkpt lat="39.48089152" lon="-0.38072918"><ele>8.2</ele><time>2022-11-17T20:49:36.0000000+00:00</time></trkpt><trkpt lat="39.48089034" lon="-0.38072968"><ele>8.2</ele><time>2022-11-17T20:49:37.0000000+00:00</time></trkpt><trkpt lat="39.48088925" lon="-0.38072876"><ele>8.2</ele><time>2022-11-17T20:49:38.0000000+00:00</time></trkpt><trkpt lat="39.48088925" lon="-0.38072876"><ele>8.2</ele><time>2022-11-17T20:49:39.0000000+00:00</time></trkpt><trkpt lat="39.48088925" lon="-0.38072876"><ele>8.2</ele><time>2022-11-17T20:49:40.0000000+00:00</time></trkpt><trkpt lat="39.48088925" lon="-0.38072876"><ele>8.2</ele><time>2022-11-17T20:49:41.0000000+00:00</time></trkpt><trkpt lat="39.48088925" lon="-0.38072876"><ele>8.2</ele><time>2022-11-17T20:49:42.0000000+00:00</time></trkpt><trkpt lat="39.48088925" lon="-0.38072876"><ele>8.2</ele><time>2022-11-17T20:49:43.0000000+00:00</time></trkpt><trkpt lat="39.48088925" lon="-0.38072876"><ele>8.2</ele><time>2022-11-17T20:49:44.0000000+00:00</time></trkpt><trkpt lat="39.48088925" lon="-0.38072876"><ele>8.2</ele><time>2022-11-17T20:49:45.0000000+00:00</time></trkpt><trkpt lat="39.48088632" lon="-0.3807301"><ele>8.4</ele><time>2022-11-17T20:49:46.0000000+00:00</time></trkpt><trkpt lat="39.48087215" lon="-0.38073387"><ele>8.4</ele><time>2022-11-17T20:49:47.0000000+00:00</time></trkpt><trkpt lat="39.48085564" lon="-0.38073982"><ele>8.4</ele><time>2022-11-17T20:49:48.0000000+00:00</time></trkpt><trkpt lat="39.48084022" lon="-0.38074259"><ele>8.4</ele><time>2022-11-17T20:49:49.0000000+00:00</time></trkpt><trkpt lat="39.48082555" lon="-0.38074711"><ele>8.4</ele><time>2022-11-17T20:49:50.0000000+00:00</time></trkpt><trkpt lat="39.48080988" lon="-0.38075198"><ele>8.4</ele><time>2022-11-17T20:49:51.0000000+00:00</time></trkpt><trkpt lat="39.4807968" lon="-0.38075675"><ele>8.4</ele><time>2022-11-17T20:49:52.0000000+00:00</time></trkpt><trkpt lat="39.48078188" lon="-0.38076178"><ele>8.2</ele><time>2022-11-17T20:49:53.0000000+00:00</time></trkpt><trkpt lat="39.48076604" lon="-0.38076648"><ele>8.2</ele><time>2022-11-17T20:49:54.0000000+00:00</time></trkpt><trkpt lat="39.48075213" lon="-0.38077016"><ele>8.2</ele><time>2022-11-17T20:49:55.0000000+00:00</time></trkpt><trkpt lat="39.48074785" lon="-0.38077234"><ele>8.2</ele><time>2022-11-17T20:49:56.0000000+00:00</time></trkpt><trkpt lat="39.48073955" lon="-0.38077377"><ele>8.2</ele><time>2022-11-17T20:49:57.0000000+00:00</time></trkpt><trkpt lat="39.4807186" lon="-0.3807767"><ele>8.2</ele><time>2022-11-17T20:49:58.0000000+00:00</time></trkpt><trkpt lat="39.48072044" lon="-0.38077997"><ele>8.2</ele><time>2022-11-17T20:49:59.0000000+00:00</time></trkpt><trkpt lat="39.48069957" lon="-0.38078726"><ele>8.2</ele><time>2022-11-17T20:50:00.0000000+00:00</time></trkpt><trkpt lat="39.48067828" lon="-0.38079598"><ele>8.2</ele><time>2022-11-17T20:50:01.0000000+00:00</time></trkpt><trkpt lat="39.48065808" lon="-0.38080528"><ele>8.2</ele><time>2022-11-17T20:50:02.0000000+00:00</time></trkpt><trkpt lat="39.48062623" lon="-0.38081191"><ele>8.2</ele><time>2022-11-17T20:50:03.0000000+00:00</time></trkpt><trkpt lat="39.48059279" lon="-0.38081719"><ele>8.2</ele><time>2022-11-17T20:50:04.0000000+00:00</time></trkpt><trkpt lat="39.48056253" lon="-0.3808197"><ele>8.2</ele><time>2022-11-17T20:50:05.0000000+00:00</time></trkpt><trkpt lat="39.48053956" lon="-0.38082389"><ele>8.2</ele><time>2022-11-17T20:50:06.0000000+00:00</time></trkpt><trkpt lat="39.48056781" lon="-0.38082263"><ele>8.4</ele><time>2022-11-17T20:50:07.0000000+00:00</time></trkpt><trkpt lat="39.48056253" lon="-0.38082146"><ele>8.4</ele><time>2022-11-17T20:50:08.0000000+00:00</time></trkpt><trkpt lat="39.48055993" lon="-0.38082372"><ele>8.4</ele><time>2022-11-17T20:50:09.0000000+00:00</time></trkpt><trkpt lat="39.48055666" lon="-0.3808285"><ele>8.4</ele><time>2022-11-17T20:50:10.0000000+00:00</time></trkpt><trkpt lat="39.48053042" lon="-0.3808306"><ele>8.4</ele><time>2022-11-17T20:50:11.0000000+00:00</time></trkpt><trkpt lat="39.48052062" lon="-0.38084124"><ele>8.4</ele><time>2022-11-17T20:50:12.0000000+00:00</time></trkpt><trkpt lat="39.4805088" lon="-0.38084786"><ele>8.4</ele><time>2022-11-17T20:50:13.0000000+00:00</time></trkpt><trkpt lat="39.48050394" lon="-0.38086287"><ele>8.4</ele><time>2022-11-17T20:50:14.0000000+00:00</time></trkpt><trkpt lat="39.48050167" lon="-0.38088366"><ele>8.4</ele><time>2022-11-17T20:50:15.0000000+00:00</time></trkpt><trkpt lat="39.48050327" lon="-0.38089749"><ele>8.4</ele><time>2022-11-17T20:50:16.0000000+00:00</time></trkpt><trkpt lat="39.48050763" lon="-0.38090461"><ele>8.4</ele><time>2022-11-17T20:50:17.0000000+00:00</time></trkpt><trkpt lat="39.48051173" lon="-0.38090981"><ele>8.4</ele><time>2022-11-17T20:50:18.0000000+00:00</time></trkpt><trkpt lat="39.48049162" lon="-0.38091375"><ele>8.4</ele><time>2022-11-17T20:50:19.0000000+00:00</time></trkpt><trkpt lat="39.48049313" lon="-0.38091702"><ele>8.2</ele><time>2022-11-17T20:50:20.0000000+00:00</time></trkpt><trkpt lat="39.48048508" lon="-0.38092062"><ele>8.2</ele><time>2022-11-17T20:50:21.0000000+00:00</time></trkpt><trkpt lat="39.48047913" lon="-0.38092816"><ele>8.2</ele><time>2022-11-17T20:50:22.0000000+00:00</time></trkpt><trkpt lat="39.48048198" lon="-0.38094359"><ele>8.2</ele><time>2022-11-17T20:50:23.0000000+00:00</time></trkpt><trkpt lat="39.48048248" lon="-0.38095172"><ele>8.2</ele><time>2022-11-17T20:50:24.0000000+00:00</time></trkpt><trkpt lat="39.48048466" lon="-0.38096152"><ele>8.2</ele><time>2022-11-17T20:50:25.0000000+00:00</time></trkpt><trkpt lat="39.48046966" lon="-0.38095289"><ele>8.0</ele><time>2022-11-17T20:50:26.0000000+00:00</time></trkpt><trkpt lat="39.48045968" lon="-0.3809513"><ele>8.0</ele><time>2022-11-17T20:50:27.0000000+00:00</time></trkpt><trkpt lat="39.48044694" lon="-0.38094216"><ele>8.0</ele><time>2022-11-17T20:50:28.0000000+00:00</time></trkpt><trkpt lat="39.48043889" lon="-0.38095004"><ele>8.0</ele><time>2022-11-17T20:50:29.0000000+00:00</time></trkpt><trkpt lat="39.48043839" lon="-0.38095138"><ele>8.0</ele><time>2022-11-17T20:50:30.0000000+00:00</time></trkpt><trkpt lat="39.48042775" lon="-0.38095884"><ele>8.0</ele><time>2022-11-17T20:50:31.0000000+00:00</time></trkpt><trkpt lat="39.48041651" lon="-0.38096421"><ele>8.0</ele><time>2022-11-17T20:50:32.0000000+00:00</time></trkpt><trkpt lat="39.48041224" lon="-0.38096605"><ele>8.0</ele><time>2022-11-17T20:50:33.0000000+00:00</time></trkpt><trkpt lat="39.4803912" lon="-0.38097376"><ele>8.0</ele><time>2022-11-17T20:50:34.0000000+00:00</time></trkpt><trkpt lat="39.4803705" lon="-0.38098541"><ele>7.8</ele><time>2022-11-17T20:50:35.0000000+00:00</time></trkpt><trkpt lat="39.48034929" lon="-0.38099572"><ele>7.8</ele><time>2022-11-17T20:50:36.0000000+00:00</time></trkpt><trkpt lat="39.48033613" lon="-0.38100536"><ele>7.8</ele><time>2022-11-17T20:50:37.0000000+00:00</time></trkpt><trkpt lat="39.4803228" lon="-0.38101047"><ele>7.8</ele><time>2022-11-17T20:50:38.0000000+00:00</time></trkpt><trkpt lat="39.48028475" lon="-0.38102766"><ele>7.8</ele><time>2022-11-17T20:50:40.0000000+00:00</time></trkpt><trkpt lat="39.48026665" lon="-0.38103126"><ele>7.8</ele><time>2022-11-17T20:50:41.0000000+00:00</time></trkpt><trkpt lat="39.48025089" lon="-0.38102539"><ele>8.0</ele><time>2022-11-17T20:50:42.0000000+00:00</time></trkpt><trkpt lat="39.48022993" lon="-0.38102347"><ele>8.0</ele><time>2022-11-17T20:50:43.0000000+00:00</time></trkpt><trkpt lat="39.48021208" lon="-0.38100972"><ele>8.0</ele><time>2022-11-17T20:50:44.0000000+00:00</time></trkpt><trkpt lat="39.48018869" lon="-0.38099178"><ele>8.0</ele><time>2022-11-17T20:50:45.0000000+00:00</time></trkpt><trkpt lat="39.48017109" lon="-0.38098985"><ele>8.0</ele><time>2022-11-17T20:50:46.0000000+00:00</time></trkpt><trkpt lat="39.48013228" lon="-0.38102397"><ele>8.0</ele><time>2022-11-17T20:50:47.0000000+00:00</time></trkpt><trkpt lat="39.48011125" lon="-0.38104283"><ele>8.0</ele><time>2022-11-17T20:50:48.0000000+00:00</time></trkpt><trkpt lat="39.48008526" lon="-0.38106613"><ele>8.0</ele><time>2022-11-17T20:50:49.0000000+00:00</time></trkpt><trkpt lat="39.48005106" lon="-0.3810839"><ele>8.0</ele><time>2022-11-17T20:50:50.0000000+00:00</time></trkpt><trkpt lat="39.48000832" lon="-0.38109639"><ele>8.0</ele><time>2022-11-17T20:50:51.0000000+00:00</time></trkpt><trkpt lat="39.47997127" lon="-0.38110703"><ele>8.0</ele><time>2022-11-17T20:50:52.0000000+00:00</time></trkpt><trkpt lat="39.47994637" lon="-0.38110477"><ele>8.0</ele><time>2022-11-17T20:50:53.0000000+00:00</time></trkpt><trkpt lat="39.47987856" lon="-0.38114207"><ele>8.0</ele><time>2022-11-17T20:50:55.0000000+00:00</time></trkpt><trkpt lat="39.47982031" lon="-0.38117585"><ele>8.0</ele><time>2022-11-17T20:50:57.0000000+00:00</time></trkpt><trkpt lat="39.47976465" lon="-0.38115112"><ele>8.0</ele><time>2022-11-17T20:51:01.0000000+00:00</time></trkpt><trkpt lat="39.47979969" lon="-0.38111474"><ele>8.0</ele><time>2022-11-17T20:51:02.0000000+00:00</time></trkpt><trkpt lat="39.47985828" lon="-0.38109832"><ele>8.2</ele><time>2022-11-17T20:51:03.0000000+00:00</time></trkpt><trkpt lat="39.47987882" lon="-0.38103981"><ele>8.2</ele><time>2022-11-17T20:51:04.0000000+00:00</time></trkpt><trkpt lat="39.47990153" lon="-0.38096722"><ele>8.0</ele><time>2022-11-17T20:51:05.0000000+00:00</time></trkpt><trkpt lat="39.47990446" lon="-0.38094199"><ele>8.0</ele><time>2022-11-17T20:51:06.0000000+00:00</time></trkpt><trkpt lat="39.47992492" lon="-0.38090989"><ele>8.0</ele><time>2022-11-17T20:51:07.0000000+00:00</time></trkpt><trkpt lat="39.47992399" lon="-0.38090495"><ele>7.8</ele><time>2022-11-17T20:51:08.0000000+00:00</time></trkpt><trkpt lat="39.47993673" lon="-0.38092037"><ele>7.8</ele><time>2022-11-17T20:51:09.0000000+00:00</time></trkpt><trkpt lat="39.47993824" lon="-0.38092875"><ele>7.8</ele><time>2022-11-17T20:51:10.0000000+00:00</time></trkpt><trkpt lat="39.4799374" lon="-0.38093881"><ele>8.0</ele><time>2022-11-17T20:51:11.0000000+00:00</time></trkpt><trkpt lat="39.47993724" lon="-0.38094585"><ele>8.0</ele><time>2022-11-17T20:51:12.0000000+00:00</time></trkpt><trkpt lat="39.47993615" lon="-0.38095482"><ele>8.0</ele><time>2022-11-17T20:51:13.0000000+00:00</time></trkpt><trkpt lat="39.4799395" lon="-0.38095926"><ele>8.2</ele><time>2022-11-17T20:51:14.0000000+00:00</time></trkpt><trkpt lat="39.47993891" lon="-0.38097049"><ele>8.2</ele><time>2022-11-17T20:51:15.0000000+00:00</time></trkpt><trkpt lat="39.47994512" lon="-0.3809694"><ele>8.2</ele><time>2022-11-17T20:51:16.0000000+00:00</time></trkpt><trkpt lat="39.47995283" lon="-0.38096236"><ele>8.2</ele><time>2022-11-17T20:51:17.0000000+00:00</time></trkpt><trkpt lat="39.47996129" lon="-0.38095339"><ele>8.2</ele><time>2022-11-17T20:51:18.0000000+00:00</time></trkpt><trkpt lat="39.47996833" lon="-0.38095398"><ele>8.2</ele><time>2022-11-17T20:51:19.0000000+00:00</time></trkpt><trkpt lat="39.47997571" lon="-0.38092665"><ele>8.0</ele><time>2022-11-17T20:51:20.0000000+00:00</time></trkpt><trkpt lat="39.47991779" lon="-0.38091006"><ele>8.0</ele><time>2022-11-17T20:51:21.0000000+00:00</time></trkpt><trkpt lat="39.47989139" lon="-0.38093227"><ele>8.0</ele><time>2022-11-17T20:51:22.0000000+00:00</time></trkpt><trkpt lat="39.47994989" lon="-0.38091693"><ele>8.0</ele><time>2022-11-17T20:51:23.0000000+00:00</time></trkpt><trkpt lat="39.47994822" lon="-0.38091274"><ele>8.0</ele><time>2022-11-17T20:51:24.0000000+00:00</time></trkpt><trkpt lat="39.47994503" lon="-0.38089648"><ele>7.8</ele><time>2022-11-17T20:51:25.0000000+00:00</time></trkpt><trkpt lat="39.47994218" lon="-0.38086555"><ele>7.8</ele><time>2022-11-17T20:51:26.0000000+00:00</time></trkpt><trkpt lat="39.47993908" lon="-0.38083605"><ele>7.8</ele><time>2022-11-17T20:51:27.0000000+00:00</time></trkpt><trkpt lat="39.47984613" lon="-0.38082724"><ele>7.8</ele><time>2022-11-17T20:51:28.0000000+00:00</time></trkpt><trkpt lat="39.47982173" lon="-0.38080704"><ele>7.8</ele><time>2022-11-17T20:51:29.0000000+00:00</time></trkpt><trkpt lat="39.47981411" lon="-0.38079095"><ele>7.8</ele><time>2022-11-17T20:51:30.0000000+00:00</time></trkpt><trkpt lat="39.47980765" lon="-0.38077176"><ele>7.8</ele><time>2022-11-17T20:51:31.0000000+00:00</time></trkpt><trkpt lat="39.47978259" lon="-0.38075591"><ele>7.8</ele><time>2022-11-17T20:51:32.0000000+00:00</time></trkpt><trkpt lat="39.47980941" lon="-0.38073655"><ele>7.8</ele><time>2022-11-17T20:51:33.0000000+00:00</time></trkpt><trkpt lat="39.47983624" lon="-0.38071744"><ele>7.8</ele><time>2022-11-17T20:51:34.0000000+00:00</time></trkpt><trkpt lat="39.47986054" lon="-0.380698"><ele>7.8</ele><time>2022-11-17T20:51:35.0000000+00:00</time></trkpt><trkpt lat="39.47989642" lon="-0.38067059"><ele>7.8</ele><time>2022-11-17T20:51:36.0000000+00:00</time></trkpt><trkpt lat="39.479896" lon="-0.38066187"><ele>7.8</ele><time>2022-11-17T20:51:37.0000000+00:00</time></trkpt><trkpt lat="39.47988577" lon="-0.38065927"><ele>7.8</ele><time>2022-11-17T20:51:38.0000000+00:00</time></trkpt><trkpt lat="39.47986951" lon="-0.38066095"><ele>7.8</ele><time>2022-11-17T20:51:39.0000000+00:00</time></trkpt><trkpt lat="39.47984663" lon="-0.38066304"><ele>7.8</ele><time>2022-11-17T20:51:40.0000000+00:00</time></trkpt><trkpt lat="39.47981956" lon="-0.38065609"><ele>7.8</ele><time>2022-11-17T20:51:41.0000000+00:00</time></trkpt><trkpt lat="39.47979894" lon="-0.38065215"><ele>8.0</ele><time>2022-11-17T20:51:42.0000000+00:00</time></trkpt><trkpt lat="39.47977706" lon="-0.38064418"><ele>7.8</ele><time>2022-11-17T20:51:43.0000000+00:00</time></trkpt><trkpt lat="39.4797375" lon="-0.38065081"><ele>7.8</ele><time>2022-11-17T20:51:44.0000000+00:00</time></trkpt><trkpt lat="39.47970875" lon="-0.3806581"><ele>7.6</ele><time>2022-11-17T20:51:45.0000000+00:00</time></trkpt><trkpt lat="39.47968938" lon="-0.38066522"><ele>7.6</ele><time>2022-11-17T20:51:46.0000000+00:00</time></trkpt><trkpt lat="39.47977991" lon="-0.38063739"><ele>7.6</ele><time>2022-11-17T20:51:47.0000000+00:00</time></trkpt><trkpt lat="39.47975602" lon="-0.38061535"><ele>7.6</ele><time>2022-11-17T20:51:48.0000000+00:00</time></trkpt><trkpt lat="39.47976834" lon="-0.3805918"><ele>7.6</ele><time>2022-11-17T20:51:49.0000000+00:00</time></trkpt><trkpt lat="39.47977681" lon="-0.38057285"><ele>7.6</ele><time>2022-11-17T20:51:50.0000000+00:00</time></trkpt><trkpt lat="39.47977915" lon="-0.38055584"><ele>7.6</ele><time>2022-11-17T20:51:51.0000000+00:00</time></trkpt><trkpt lat="39.47980396" lon="-0.38053011"><ele>7.6</ele><time>2022-11-17T20:51:52.0000000+00:00</time></trkpt><trkpt lat="39.47982257" lon="-0.38050337"><ele>7.6</ele><time>2022-11-17T20:51:53.0000000+00:00</time></trkpt><trkpt lat="39.47983171" lon="-0.38047571"><ele>7.6</ele><time>2022-11-17T20:51:54.0000000+00:00</time></trkpt><trkpt lat="39.47983858" lon="-0.38045014"><ele>7.6</ele><time>2022-11-17T20:51:55.0000000+00:00</time></trkpt><trkpt lat="39.47984135" lon="-0.38036926"><ele>7.6</ele><time>2022-11-17T20:51:56.0000000+00:00</time></trkpt><trkpt lat="39.47980254" lon="-0.38035543"><ele>7.6</ele><time>2022-11-17T20:51:57.0000000+00:00</time></trkpt><trkpt lat="39.47978863" lon="-0.3803245"><ele>7.6</ele><time>2022-11-17T20:51:58.0000000+00:00</time></trkpt><trkpt lat="39.47974395" lon="-0.38030899"><ele>7.6</ele><time>2022-11-17T20:51:59.0000000+00:00</time></trkpt><trkpt lat="39.47972861" lon="-0.38028779"><ele>7.6</ele><time>2022-11-17T20:52:00.0000000+00:00</time></trkpt><trkpt lat="39.47973364" lon="-0.38024915"><ele>7.6</ele><time>2022-11-17T20:52:01.0000000+00:00</time></trkpt><trkpt lat="39.47971914" lon="-0.38023448"><ele>7.6</ele><time>2022-11-17T20:52:02.0000000+00:00</time></trkpt><trkpt lat="39.47970531" lon="-0.38022744"><ele>7.6</ele><time>2022-11-17T20:52:03.0000000+00:00</time></trkpt><trkpt lat="39.47968897" lon="-0.38022366"><ele>7.6</ele><time>2022-11-17T20:52:04.0000000+00:00</time></trkpt><trkpt lat="39.47967798" lon="-0.38021972"><ele>7.6</ele><time>2022-11-17T20:52:05.0000000+00:00</time></trkpt><trkpt lat="39.47965376" lon="-0.38021612"><ele>7.4</ele><time>2022-11-17T20:52:06.0000000+00:00</time></trkpt><trkpt lat="39.479638" lon="-0.38020983"><ele>7.4</ele><time>2022-11-17T20:52:07.0000000+00:00</time></trkpt><trkpt lat="39.47962275" lon="-0.3802033"><ele>7.4</ele><time>2022-11-17T20:52:08.0000000+00:00</time></trkpt><trkpt lat="39.47959945" lon="-0.38019533"><ele>7.4</ele><time>2022-11-17T20:52:09.0000000+00:00</time></trkpt><trkpt lat="39.47958637" lon="-0.38018846"><ele>7.4</ele><time>2022-11-17T20:52:10.0000000+00:00</time></trkpt><trkpt lat="39.47959769" lon="-0.38016424"><ele>7.4</ele><time>2022-11-17T20:52:11.0000000+00:00</time></trkpt><trkpt lat="39.4796178" lon="-0.3801354"><ele>7.4</ele><time>2022-11-17T20:52:12.0000000+00:00</time></trkpt><trkpt lat="39.47962962" lon="-0.38010296"><ele>7.4</ele><time>2022-11-17T20:52:13.0000000+00:00</time></trkpt><trkpt lat="39.47963398" lon="-0.38007321"><ele>7.4</ele><time>2022-11-17T20:52:14.0000000+00:00</time></trkpt><trkpt lat="39.47963532" lon="-0.38004438"><ele>7.4</ele><time>2022-11-17T20:52:15.0000000+00:00</time></trkpt><trkpt lat="39.47965544" lon="-0.37999903"><ele>7.4</ele><time>2022-11-17T20:52:16.0000000+00:00</time></trkpt><trkpt lat="39.47964932" lon="-0.37996391"><ele>7.4</ele><time>2022-11-17T20:52:17.0000000+00:00</time></trkpt><trkpt lat="39.47963817" lon="-0.37992477"><ele>7.4</ele><time>2022-11-17T20:52:18.0000000+00:00</time></trkpt><trkpt lat="39.47965183" lon="-0.37992049"><ele>7.4</ele><time>2022-11-17T20:52:19.0000000+00:00</time></trkpt><trkpt lat="39.4795893" lon="-0.3799256"><ele>7.4</ele><time>2022-11-17T20:52:20.0000000+00:00</time></trkpt><trkpt lat="39.47960439" lon="-0.3799132"><ele>7.4</ele><time>2022-11-17T20:52:21.0000000+00:00</time></trkpt><trkpt lat="39.47962719" lon="-0.37990498"><ele>7.4</ele><time>2022-11-17T20:52:22.0000000+00:00</time></trkpt><trkpt lat="39.47963499" lon="-0.37990197"><ele>7.4</ele><time>2022-11-17T20:52:23.0000000+00:00</time></trkpt><trkpt lat="39.47963314" lon="-0.37989618"><ele>7.4</ele><time>2022-11-17T20:52:24.0000000+00:00</time></trkpt><trkpt lat="39.47961177" lon="-0.37989082"><ele>7.4</ele><time>2022-11-17T20:52:25.0000000+00:00</time></trkpt><trkpt lat="39.47958025" lon="-0.37988059"><ele>7.2</ele><time>2022-11-17T20:52:26.0000000+00:00</time></trkpt><trkpt lat="39.47955284" lon="-0.37985888"><ele>7.2</ele><time>2022-11-17T20:52:27.0000000+00:00</time></trkpt><trkpt lat="39.47955192" lon="-0.37983449"><ele>7.2</ele><time>2022-11-17T20:52:28.0000000+00:00</time></trkpt><trkpt lat="39.47955561" lon="-0.37981018"><ele>7.2</ele><time>2022-11-17T20:52:29.0000000+00:00</time></trkpt><trkpt lat="39.47956248" lon="-0.3797873"><ele>7.2</ele><time>2022-11-17T20:52:30.0000000+00:00</time></trkpt><trkpt lat="39.47958226" lon="-0.37980306"><ele>7.0</ele><time>2022-11-17T20:52:31.0000000+00:00</time></trkpt><trkpt lat="39.47958637" lon="-0.37982192"><ele>6.8</ele><time>2022-11-17T20:52:32.0000000+00:00</time></trkpt><trkpt lat="39.47958268" lon="-0.37981018"><ele>6.8</ele><time>2022-11-17T20:52:33.0000000+00:00</time></trkpt><trkpt lat="39.47957229" lon="-0.37980147"><ele>6.6</ele><time>2022-11-17T20:52:34.0000000+00:00</time></trkpt><trkpt lat="39.47955544" lon="-0.37979501"><ele>6.6</ele><time>2022-11-17T20:52:35.0000000+00:00</time></trkpt><trkpt lat="39.47953826" lon="-0.37979065"><ele>6.6</ele><time>2022-11-17T20:52:36.0000000+00:00</time></trkpt><trkpt lat="39.479566" lon="-0.37976727"><ele>6.6</ele><time>2022-11-17T20:52:37.0000000+00:00</time></trkpt><trkpt lat="39.47957899" lon="-0.37974455"><ele>6.8</ele><time>2022-11-17T20:52:38.0000000+00:00</time></trkpt><trkpt lat="39.47959375" lon="-0.37971715"><ele>6.8</ele><time>2022-11-17T20:52:39.0000000+00:00</time></trkpt><trkpt lat="39.47959257" lon="-0.37969544"><ele>6.8</ele><time>2022-11-17T20:52:40.0000000+00:00</time></trkpt><trkpt lat="39.47957128" lon="-0.37969032"><ele>6.8</ele><time>2022-11-17T20:52:41.0000000+00:00</time></trkpt><trkpt lat="39.47956944" lon="-0.37968161"><ele>7.0</ele><time>2022-11-17T20:52:42.0000000+00:00</time></trkpt><trkpt lat="39.47956751" lon="-0.37966769"><ele>7.0</ele><time>2022-11-17T20:52:43.0000000+00:00</time></trkpt><trkpt lat="39.47956349" lon="-0.3796521"><ele>7.0</ele><time>2022-11-17T20:52:44.0000000+00:00</time></trkpt><trkpt lat="39.47956156" lon="-0.37963484"><ele>7.0</ele><time>2022-11-17T20:52:45.0000000+00:00</time></trkpt><trkpt lat="39.47956064" lon="-0.37963643"><ele>7.0</ele><time>2022-11-17T20:52:46.0000000+00:00</time></trkpt><trkpt lat="39.47954295" lon="-0.37965847"><ele>7.0</ele><time>2022-11-17T20:52:47.0000000+00:00</time></trkpt><trkpt lat="39.47952066" lon="-0.37966895"><ele>7.0</ele><time>2022-11-17T20:52:48.0000000+00:00</time></trkpt><trkpt lat="39.4795168" lon="-0.37969309"><ele>7.0</ele><time>2022-11-17T20:52:49.0000000+00:00</time></trkpt><trkpt lat="39.47949979" lon="-0.37969602"><ele>7.0</ele><time>2022-11-17T20:52:50.0000000+00:00</time></trkpt><trkpt lat="39.47948721" lon="-0.37969678"><ele>7.0</ele><time>2022-11-17T20:52:51.0000000+00:00</time></trkpt><trkpt lat="39.47947581" lon="-0.37970063"><ele>7.0</ele><time>2022-11-17T20:52:52.0000000+00:00</time></trkpt><trkpt lat="39.47945737" lon="-0.37970298"><ele>7.0</ele><time>2022-11-17T20:52:53.0000000+00:00</time></trkpt><trkpt lat="39.47944069" lon="-0.37970281"><ele>7.0</ele><time>2022-11-17T20:52:54.0000000+00:00</time></trkpt><trkpt lat="39.47942544" lon="-0.3797065"><ele>7.0</ele><time>2022-11-17T20:52:55.0000000+00:00</time></trkpt><trkpt lat="39.47941002" lon="-0.3797117"><ele>7.0</ele><time>2022-11-17T20:52:56.0000000+00:00</time></trkpt><trkpt lat="39.47938437" lon="-0.37972075"><ele>7.0</ele><time>2022-11-17T20:52:57.0000000+00:00</time></trkpt><trkpt lat="39.47935956" lon="-0.37973341"><ele>7.0</ele><time>2022-11-17T20:52:58.0000000+00:00</time></trkpt><trkpt lat="39.47934313" lon="-0.37973357"><ele>7.0</ele><time>2022-11-17T20:52:59.0000000+00:00</time></trkpt><trkpt lat="39.47932259" lon="-0.379736"><ele>7.0</ele><time>2022-11-17T20:53:00.0000000+00:00</time></trkpt><trkpt lat="39.47929661" lon="-0.37973299"><ele>7.0</ele><time>2022-11-17T20:53:01.0000000+00:00</time></trkpt><trkpt lat="39.47926928" lon="-0.37973139"><ele>7.0</ele><time>2022-11-17T20:53:02.0000000+00:00</time></trkpt><trkpt lat="39.47924431" lon="-0.37972637"><ele>7.0</ele><time>2022-11-17T20:53:03.0000000+00:00</time></trkpt><trkpt lat="39.47922494" lon="-0.37973592"><ele>7.0</ele><time>2022-11-17T20:53:04.0000000+00:00</time></trkpt><trkpt lat="39.47920701" lon="-0.37973374"><ele>7.0</ele><time>2022-11-17T20:53:05.0000000+00:00</time></trkpt><trkpt lat="39.47918756" lon="-0.37973383"><ele>7.0</ele><time>2022-11-17T20:53:06.0000000+00:00</time></trkpt><trkpt lat="39.47917247" lon="-0.37974891"><ele>7.0</ele><time>2022-11-17T20:53:07.0000000+00:00</time></trkpt><trkpt lat="39.47915931" lon="-0.37976182"><ele>7.0</ele><time>2022-11-17T20:53:08.0000000+00:00</time></trkpt><trkpt lat="39.47914523" lon="-0.37977221"><ele>7.0</ele><time>2022-11-17T20:53:09.0000000+00:00</time></trkpt><trkpt lat="39.47912855" lon="-0.3797733"><ele>7.0</ele><time>2022-11-17T20:53:10.0000000+00:00</time></trkpt><trkpt lat="39.47910743" lon="-0.37977272"><ele>7.0</ele><time>2022-11-17T20:53:11.0000000+00:00</time></trkpt><trkpt lat="39.47909301" lon="-0.37976392"><ele>7.0</ele><time>2022-11-17T20:53:12.0000000+00:00</time></trkpt><trkpt lat="39.47907767" lon="-0.37975453"><ele>7.0</ele><time>2022-11-17T20:53:13.0000000+00:00</time></trkpt><trkpt lat="39.4790656" lon="-0.37975151"><ele>6.8</ele><time>2022-11-17T20:53:14.0000000+00:00</time></trkpt><trkpt lat="39.47905521" lon="-0.37975227"><ele>6.8</ele><time>2022-11-17T20:53:15.0000000+00:00</time></trkpt><trkpt lat="39.47904398" lon="-0.37976685"><ele>7.0</ele><time>2022-11-17T20:53:16.0000000+00:00</time></trkpt><trkpt lat="39.47902738" lon="-0.37978546"><ele>6.8</ele><time>2022-11-17T20:53:17.0000000+00:00</time></trkpt><trkpt lat="39.47900869" lon="-0.37979828"><ele>6.8</ele><time>2022-11-17T20:53:18.0000000+00:00</time></trkpt><trkpt lat="39.47899855" lon="-0.37979191"><ele>6.8</ele><time>2022-11-17T20:53:19.0000000+00:00</time></trkpt><trkpt lat="39.47899771" lon="-0.37979049"><ele>6.8</ele><time>2022-11-17T20:53:20.0000000+00:00</time></trkpt><trkpt lat="39.47899293" lon="-0.37979049"><ele>7.0</ele><time>2022-11-17T20:53:21.0000000+00:00</time></trkpt><trkpt lat="39.47898153" lon="-0.37979853"><ele>7.0</ele><time>2022-11-17T20:53:22.0000000+00:00</time></trkpt><trkpt lat="39.4789781" lon="-0.37981144"><ele>7.0</ele><time>2022-11-17T20:53:23.0000000+00:00</time></trkpt><trkpt lat="39.47896284" lon="-0.37982142"><ele>7.0</ele><time>2022-11-17T20:53:24.0000000+00:00</time></trkpt><trkpt lat="39.47894365" lon="-0.37982963"><ele>7.0</ele><time>2022-11-17T20:53:25.0000000+00:00</time></trkpt><trkpt lat="39.47892571" lon="-0.37983826"><ele>7.0</ele><time>2022-11-17T20:53:26.0000000+00:00</time></trkpt><trkpt lat="39.47891029" lon="-0.37984363"><ele>7.0</ele><time>2022-11-17T20:53:27.0000000+00:00</time></trkpt><trkpt lat="39.47889914" lon="-0.37984547"><ele>7.0</ele><time>2022-11-17T20:53:28.0000000+00:00</time></trkpt><trkpt lat="39.47888782" lon="-0.37985377"><ele>7.0</ele><time>2022-11-17T20:53:29.0000000+00:00</time></trkpt><trkpt lat="39.47888028" lon="-0.37987355"><ele>7.0</ele><time>2022-11-17T20:53:30.0000000+00:00</time></trkpt><trkpt lat="39.47887257" lon="-0.3798883"><ele>6.8</ele><time>2022-11-17T20:53:31.0000000+00:00</time></trkpt><trkpt lat="39.47887005" lon="-0.37990063"><ele>6.8</ele><time>2022-11-17T20:53:32.0000000+00:00</time></trkpt><trkpt lat="39.47886234" lon="-0.37990549"><ele>6.8</ele><time>2022-11-17T20:53:33.0000000+00:00</time></trkpt><trkpt lat="39.47886159" lon="-0.37990574"><ele>6.8</ele><time>2022-11-17T20:53:34.0000000+00:00</time></trkpt><trkpt lat="39.47886092" lon="-0.37990339"><ele>6.6</ele><time>2022-11-17T20:53:35.0000000+00:00</time></trkpt><trkpt lat="39.47885681" lon="-0.37989275"><ele>6.6</ele><time>2022-11-17T20:53:36.0000000+00:00</time></trkpt><trkpt lat="39.47887014" lon="-0.37987925"><ele>6.6</ele><time>2022-11-17T20:53:37.0000000+00:00</time></trkpt><trkpt lat="39.47886955" lon="-0.37987473"><ele>6.6</ele><time>2022-11-17T20:53:38.0000000+00:00</time></trkpt><trkpt lat="39.47888061" lon="-0.37986995"><ele>6.6</ele><time>2022-11-17T20:53:39.0000000+00:00</time></trkpt><trkpt lat="39.47887969" lon="-0.37987213"><ele>6.6</ele><time>2022-11-17T20:53:40.0000000+00:00</time></trkpt><trkpt lat="39.47887944" lon="-0.37988043"><ele>6.6</ele><time>2022-11-17T20:53:41.0000000+00:00</time></trkpt><trkpt lat="39.47892931" lon="-0.37990121"><ele>6.6</ele><time>2022-11-17T20:53:42.0000000+00:00</time></trkpt><trkpt lat="39.4789382" lon="-0.37990448"><ele>6.6</ele><time>2022-11-17T20:53:43.0000000+00:00</time></trkpt><trkpt lat="39.47892948" lon="-0.37990155"><ele>6.6</ele><time>2022-11-17T20:53:44.0000000+00:00</time></trkpt><trkpt lat="39.47891733" lon="-0.37990741"><ele>6.8</ele><time>2022-11-17T20:53:45.0000000+00:00</time></trkpt><trkpt lat="39.47891775" lon="-0.37991228"><ele>6.8</ele><time>2022-11-17T20:53:46.0000000+00:00</time></trkpt><trkpt lat="39.47890475" lon="-0.37992242"><ele>7.0</ele><time>2022-11-17T20:53:47.0000000+00:00</time></trkpt><trkpt lat="39.47888933" lon="-0.379936"><ele>7.0</ele><time>2022-11-17T20:53:48.0000000+00:00</time></trkpt><trkpt lat="39.47887542" lon="-0.37994547"><ele>7.0</ele><time>2022-11-17T20:53:49.0000000+00:00</time></trkpt><trkpt lat="39.47886938" lon="-0.3799531"><ele>7.0</ele><time>2022-11-17T20:53:50.0000000+00:00</time></trkpt><trkpt lat="39.47887014" lon="-0.37995486"><ele>7.0</ele><time>2022-11-17T20:53:51.0000000+00:00</time></trkpt><trkpt lat="39.47886896" lon="-0.37995771"><ele>7.0</ele><time>2022-11-17T20:53:52.0000000+00:00</time></trkpt><trkpt lat="39.47887508" lon="-0.37996098"><ele>7.0</ele><time>2022-11-17T20:53:53.0000000+00:00</time></trkpt><trkpt lat="39.47887877" lon="-0.37996014"><ele>7.0</ele><time>2022-11-17T20:53:54.0000000+00:00</time></trkpt><trkpt lat="39.47888305" lon="-0.37995913"><ele>7.0</ele><time>2022-11-17T20:53:55.0000000+00:00</time></trkpt><trkpt lat="39.47888204" lon="-0.37994991"><ele>7.0</ele><time>2022-11-17T20:53:56.0000000+00:00</time></trkpt><trkpt lat="39.47888221" lon="-0.37994404"><ele>7.0</ele><time>2022-11-17T20:53:57.0000000+00:00</time></trkpt><trkpt lat="39.47888648" lon="-0.37995134"><ele>7.0</ele><time>2022-11-17T20:53:58.0000000+00:00</time></trkpt><trkpt lat="39.47888497" lon="-0.37995536"><ele>7.0</ele><time>2022-11-17T20:53:59.0000000+00:00</time></trkpt><trkpt lat="39.47888061" lon="-0.37996098"><ele>6.8</ele><time>2022-11-17T20:54:00.0000000+00:00</time></trkpt><trkpt lat="39.47886326" lon="-0.37996366"><ele>6.8</ele><time>2022-11-17T20:54:01.0000000+00:00</time></trkpt><trkpt lat="39.47885413" lon="-0.37996743"><ele>6.8</ele><time>2022-11-17T20:54:02.0000000+00:00</time></trkpt><trkpt lat="39.47887064" lon="-0.37998243"><ele>6.8</ele><time>2022-11-17T20:54:03.0000000+00:00</time></trkpt><trkpt lat="39.47886611" lon="-0.37999157"><ele>6.8</ele><time>2022-11-17T20:54:04.0000000+00:00</time></trkpt><trkpt lat="39.4788579" lon="-0.38000129"><ele>6.8</ele><time>2022-11-17T20:54:05.0000000+00:00</time></trkpt><trkpt lat="39.47885346" lon="-0.38000632"><ele>6.6</ele><time>2022-11-17T20:54:06.0000000+00:00</time></trkpt><trkpt lat="39.47883778" lon="-0.38001127"><ele>6.6</ele><time>2022-11-17T20:54:07.0000000+00:00</time></trkpt><trkpt lat="39.47881783" lon="-0.38002845"><ele>6.6</ele><time>2022-11-17T20:54:08.0000000+00:00</time></trkpt><trkpt lat="39.4787973" lon="-0.38001454"><ele>6.8</ele><time>2022-11-17T20:54:09.0000000+00:00</time></trkpt><trkpt lat="39.47880535" lon="-0.37999651"><ele>6.8</ele><time>2022-11-17T20:54:10.0000000+00:00</time></trkpt><trkpt lat="39.47879814" lon="-0.37998688"><ele>7.0</ele><time>2022-11-17T20:54:11.0000000+00:00</time></trkpt><trkpt lat="39.47877517" lon="-0.37998059"><ele>7.2</ele><time>2022-11-17T20:54:12.0000000+00:00</time></trkpt><trkpt lat="39.47875296" lon="-0.37998361"><ele>7.4</ele><time>2022-11-17T20:54:13.0000000+00:00</time></trkpt><trkpt lat="39.47873242" lon="-0.37998369"><ele>7.4</ele><time>2022-11-17T20:54:14.0000000+00:00</time></trkpt><trkpt lat="39.47870954" lon="-0.37998755"><ele>7.4</ele><time>2022-11-17T20:54:15.0000000+00:00</time></trkpt><trkpt lat="39.47868691" lon="-0.37999786"><ele>7.4</ele><time>2022-11-17T20:54:16.0000000+00:00</time></trkpt><trkpt lat="39.47866587" lon="-0.38000833"><ele>7.4</ele><time>2022-11-17T20:54:17.0000000+00:00</time></trkpt><trkpt lat="39.47864232" lon="-0.38002619"><ele>7.4</ele><time>2022-11-17T20:54:18.0000000+00:00</time></trkpt><trkpt lat="39.47862019" lon="-0.38004303"><ele>7.2</ele><time>2022-11-17T20:54:19.0000000+00:00</time></trkpt><trkpt lat="39.47860141" lon="-0.38005334"><ele>7.0</ele><time>2022-11-17T20:54:20.0000000+00:00</time></trkpt><trkpt lat="39.4785994" lon="-0.38006441"><ele>7.0</ele><time>2022-11-17T20:54:21.0000000+00:00</time></trkpt><trkpt lat="39.47859236" lon="-0.38007304"><ele>7.0</ele><time>2022-11-17T20:54:22.0000000+00:00</time></trkpt><trkpt lat="39.47858247" lon="-0.38008184"><ele>6.8</ele><time>2022-11-17T20:54:23.0000000+00:00</time></trkpt><trkpt lat="39.47857183" lon="-0.38009056"><ele>6.8</ele><time>2022-11-17T20:54:24.0000000+00:00</time></trkpt><trkpt lat="39.47856914" lon="-0.38010674"><ele>6.8</ele><time>2022-11-17T20:54:25.0000000+00:00</time></trkpt><trkpt lat="39.47856931" lon="-0.3801147"><ele>6.8</ele><time>2022-11-17T20:54:26.0000000+00:00</time></trkpt><trkpt lat="39.47857426" lon="-0.38011772"><ele>6.8</ele><time>2022-11-17T20:54:27.0000000+00:00</time></trkpt><trkpt lat="39.47857392" lon="-0.38012384"><ele>6.8</ele><time>2022-11-17T20:54:28.0000000+00:00</time></trkpt><trkpt lat="39.47856763" lon="-0.38012895"><ele>6.6</ele><time>2022-11-17T20:54:29.0000000+00:00</time></trkpt><trkpt lat="39.4785554" lon="-0.38013498"><ele>6.6</ele><time>2022-11-17T20:54:30.0000000+00:00</time></trkpt><trkpt lat="39.47854467" lon="-0.38013641"><ele>6.4</ele><time>2022-11-17T20:54:31.0000000+00:00</time></trkpt><trkpt lat="39.4785305" lon="-0.38013901"><ele>6.4</ele><time>2022-11-17T20:54:32.0000000+00:00</time></trkpt><trkpt lat="39.47851709" lon="-0.38013867"><ele>6.6</ele><time>2022-11-17T20:54:33.0000000+00:00</time></trkpt><trkpt lat="39.47850846" lon="-0.3801401"><ele>6.6</ele><time>2022-11-17T20:54:34.0000000+00:00</time></trkpt><trkpt lat="39.47848859" lon="-0.3801313"><ele>6.8</ele><time>2022-11-17T20:54:35.0000000+00:00</time></trkpt><trkpt lat="39.47848541" lon="-0.38013205"><ele>6.8</ele><time>2022-11-17T20:54:36.0000000+00:00</time></trkpt><trkpt lat="39.47847719" lon="-0.38012845"><ele>6.8</ele><time>2022-11-17T20:54:37.0000000+00:00</time></trkpt><trkpt lat="39.47849236" lon="-0.38011084"><ele>7.0</ele><time>2022-11-17T20:54:38.0000000+00:00</time></trkpt><trkpt lat="39.47849262" lon="-0.38009131"><ele>7.0</ele><time>2022-11-17T20:54:39.0000000+00:00</time></trkpt><trkpt lat="39.47848574" lon="-0.38008519"><ele>7.0</ele><time>2022-11-17T20:54:40.0000000+00:00</time></trkpt><trkpt lat="39.47847376" lon="-0.38008905"><ele>7.0</ele><time>2022-11-17T20:54:41.0000000+00:00</time></trkpt><trkpt lat="39.47845724" lon="-0.38009567"><ele>7.2</ele><time>2022-11-17T20:54:42.0000000+00:00</time></trkpt><trkpt lat="39.47843528" lon="-0.38008084"><ele>7.2</ele><time>2022-11-17T20:54:43.0000000+00:00</time></trkpt><trkpt lat="39.47841064" lon="-0.38006483"><ele>7.2</ele><time>2022-11-17T20:54:44.0000000+00:00</time></trkpt><trkpt lat="39.47838441" lon="-0.3800536"><ele>7.2</ele><time>2022-11-17T20:54:45.0000000+00:00</time></trkpt><trkpt lat="39.47837376" lon="-0.38004865"><ele>7.2</ele><time>2022-11-17T20:54:46.0000000+00:00</time></trkpt><trkpt lat="39.47835566" lon="-0.38004069"><ele>7.2</ele><time>2022-11-17T20:54:47.0000000+00:00</time></trkpt><trkpt lat="39.47834367" lon="-0.38003474"><ele>7.2</ele><time>2022-11-17T20:54:48.0000000+00:00</time></trkpt><trkpt lat="39.47832448" lon="-0.38002778"><ele>7.2</ele><time>2022-11-17T20:54:49.0000000+00:00</time></trkpt><trkpt lat="39.47829698" lon="-0.38001755"><ele>7.2</ele><time>2022-11-17T20:54:50.0000000+00:00</time></trkpt><trkpt lat="39.47827226" lon="-0.38001026"><ele>7.2</ele><time>2022-11-17T20:54:51.0000000+00:00</time></trkpt><trkpt lat="39.47824937" lon="-0.3800023"><ele>7.0</ele><time>2022-11-17T20:54:52.0000000+00:00</time></trkpt><trkpt lat="39.47822616" lon="-0.37999442"><ele>7.0</ele><time>2022-11-17T20:54:53.0000000+00:00</time></trkpt><trkpt lat="39.47819665" lon="-0.37997615"><ele>6.8</ele><time>2022-11-17T20:54:54.0000000+00:00</time></trkpt><trkpt lat="39.47816547" lon="-0.37995662"><ele>6.8</ele><time>2022-11-17T20:54:55.0000000+00:00</time></trkpt><trkpt lat="39.4781767" lon="-0.37997975"><ele>6.8</ele><time>2022-11-17T20:54:56.0000000+00:00</time></trkpt><trkpt lat="39.47816338" lon="-0.3799852"><ele>6.8</ele><time>2022-11-17T20:54:57.0000000+00:00</time></trkpt><trkpt lat="39.47814326" lon="-0.3799945"><ele>6.8</ele><time>2022-11-17T20:54:58.0000000+00:00</time></trkpt><trkpt lat="39.47812624" lon="-0.38000247"><ele>7.0</ele><time>2022-11-17T20:54:59.0000000+00:00</time></trkpt><trkpt lat="39.47811233" lon="-0.3800054"><ele>7.0</ele><time>2022-11-17T20:55:00.0000000+00:00</time></trkpt><trkpt lat="39.47809858" lon="-0.37999895"><ele>7.0</ele><time>2022-11-17T20:55:01.0000000+00:00</time></trkpt><trkpt lat="39.47809758" lon="-0.37998805"><ele>7.0</ele><time>2022-11-17T20:55:02.0000000+00:00</time></trkpt><trkpt lat="39.47808928" lon="-0.3799857"><ele>7.0</ele><time>2022-11-17T20:55:03.0000000+00:00</time></trkpt><trkpt lat="39.47808316" lon="-0.37997883"><ele>7.0</ele><time>2022-11-17T20:55:04.0000000+00:00</time></trkpt><trkpt lat="39.47807419" lon="-0.37997397"><ele>7.0</ele><time>2022-11-17T20:55:05.0000000+00:00</time></trkpt><trkpt lat="39.47806204" lon="-0.37996693"><ele>7.0</ele><time>2022-11-17T20:55:06.0000000+00:00</time></trkpt><trkpt lat="39.47805852" lon="-0.37996609"><ele>6.8</ele><time>2022-11-17T20:55:07.0000000+00:00</time></trkpt><trkpt lat="39.47804687" lon="-0.37996005"><ele>6.8</ele><time>2022-11-17T20:55:08.0000000+00:00</time></trkpt><trkpt lat="39.47803991" lon="-0.3799531"><ele>6.8</ele><time>2022-11-17T20:55:09.0000000+00:00</time></trkpt><trkpt lat="39.47803714" lon="-0.37994312"><ele>6.8</ele><time>2022-11-17T20:55:10.0000000+00:00</time></trkpt><trkpt lat="39.47768217" lon="-0.38019952"><ele>6.4</ele><time>2022-11-17T20:56:51.0000000+00:00</time></trkpt><trkpt lat="39.47771436" lon="-0.37997087"><ele>6.4</ele><time>2022-11-17T20:56:52.0000000+00:00</time></trkpt><trkpt lat="39.47764873" lon="-0.37995989"><ele>6.4</ele><time>2022-11-17T20:56:53.0000000+00:00</time></trkpt><trkpt lat="39.47756977" lon="-0.37998168"><ele>6.4</ele><time>2022-11-17T20:56:54.0000000+00:00</time></trkpt><trkpt lat="39.47761855" lon="-0.38004664"><ele>6.4</ele><time>2022-11-17T20:56:55.0000000+00:00</time></trkpt><trkpt lat="39.47764873" lon="-0.38005234"><ele>6.4</ele><time>2022-11-17T20:56:56.0000000+00:00</time></trkpt><trkpt lat="39.4776473" lon="-0.38005753"><ele>6.4</ele><time>2022-11-17T20:56:57.0000000+00:00</time></trkpt><trkpt lat="39.47767203" lon="-0.38006214"><ele>6.6</ele><time>2022-11-17T20:56:58.0000000+00:00</time></trkpt><trkpt lat="39.47766339" lon="-0.38007321"><ele>6.6</ele><time>2022-11-17T20:56:59.0000000+00:00</time></trkpt><trkpt lat="39.47763548" lon="-0.38009685"><ele>6.6</ele><time>2022-11-17T20:57:00.0000000+00:00</time></trkpt><trkpt lat="39.47761243" lon="-0.3801111"><ele>6.6</ele><time>2022-11-17T20:57:01.0000000+00:00</time></trkpt><trkpt lat="39.47758913" lon="-0.38012618"><ele>6.8</ele><time>2022-11-17T20:57:02.0000000+00:00</time></trkpt><trkpt lat="39.47757228" lon="-0.38013758"><ele>6.8</ele><time>2022-11-17T20:57:03.0000000+00:00</time></trkpt><trkpt lat="39.47752811" lon="-0.38013322"><ele>6.8</ele><time>2022-11-17T20:57:04.0000000+00:00</time></trkpt><trkpt lat="39.47751084" lon="-0.38015829"><ele>6.8</ele><time>2022-11-17T20:57:05.0000000+00:00</time></trkpt><trkpt lat="39.47749349" lon="-0.38016868"><ele>7.0</ele><time>2022-11-17T20:57:06.0000000+00:00</time></trkpt><trkpt lat="39.47748469" lon="-0.38017564"><ele>7.0</ele><time>2022-11-17T20:57:07.0000000+00:00</time></trkpt><trkpt lat="39.47748771" lon="-0.38020162"><ele>7.0</ele><time>2022-11-17T20:57:08.0000000+00:00</time></trkpt><trkpt lat="39.47749919" lon="-0.3802354"><ele>7.0</ele><time>2022-11-17T20:57:09.0000000+00:00</time></trkpt><trkpt lat="39.47750171" lon="-0.38024663"><ele>7.0</ele><time>2022-11-17T20:57:10.0000000+00:00</time></trkpt><trkpt lat="39.47746726" lon="-0.38025015"><ele>7.0</ele><time>2022-11-17T20:57:11.0000000+00:00</time></trkpt><trkpt lat="39.47745049" lon="-0.38025853"><ele>7.0</ele><time>2022-11-17T20:57:12.0000000+00:00</time></trkpt><trkpt lat="39.47743457" lon="-0.38025401"><ele>7.0</ele><time>2022-11-17T20:57:13.0000000+00:00</time></trkpt><trkpt lat="39.47742451" lon="-0.38027882"><ele>7.0</ele><time>2022-11-17T20:57:14.0000000+00:00</time></trkpt><trkpt lat="39.47741227" lon="-0.3803043"><ele>7.0</ele><time>2022-11-17T20:57:15.0000000+00:00</time></trkpt><trkpt lat="39.47740045" lon="-0.38033472"><ele>7.0</ele><time>2022-11-17T20:57:16.0000000+00:00</time></trkpt><trkpt lat="39.47738763" lon="-0.38035878"><ele>7.0</ele><time>2022-11-17T20:57:17.0000000+00:00</time></trkpt><trkpt lat="39.4773681" lon="-0.38022501"><ele>7.0</ele><time>2022-11-17T20:57:19.0000000+00:00</time></trkpt><trkpt lat="39.47735511" lon="-0.38018083"><ele>7.0</ele><time>2022-11-17T20:57:20.0000000+00:00</time></trkpt><trkpt lat="39.47732518" lon="-0.38015292"><ele>7.0</ele><time>2022-11-17T20:57:21.0000000+00:00</time></trkpt><trkpt lat="39.47729711" lon="-0.38020346"><ele>7.0</ele><time>2022-11-17T20:57:22.0000000+00:00</time></trkpt><trkpt lat="39.47727204" lon="-0.38019232"><ele>7.0</ele><time>2022-11-17T20:57:23.0000000+00:00</time></trkpt><trkpt lat="39.47724807" lon="-0.38017899"><ele>7.0</ele><time>2022-11-17T20:57:24.0000000+00:00</time></trkpt><trkpt lat="39.47722016" lon="-0.38016968"><ele>7.0</ele><time>2022-11-17T20:57:25.0000000+00:00</time></trkpt><trkpt lat="39.47720013" lon="-0.38014806"><ele>7.0</ele><time>2022-11-17T20:57:26.0000000+00:00</time></trkpt><trkpt lat="39.47717976" lon="-0.38013758"><ele>7.0</ele><time>2022-11-17T20:57:27.0000000+00:00</time></trkpt><trkpt lat="39.47715973" lon="-0.38012568"><ele>7.0</ele><time>2022-11-17T20:57:28.0000000+00:00</time></trkpt><trkpt lat="39.47714455" lon="-0.38011805"><ele>7.0</ele><time>2022-11-17T20:57:29.0000000+00:00</time></trkpt><trkpt lat="39.47712913" lon="-0.38011001"><ele>6.8</ele><time>2022-11-17T20:57:30.0000000+00:00</time></trkpt><trkpt lat="39.47711228" lon="-0.38010179"><ele>6.6</ele><time>2022-11-17T20:57:31.0000000+00:00</time></trkpt><trkpt lat="39.47724698" lon="-0.38007841"><ele>6.6</ele><time>2022-11-17T20:57:32.0000000+00:00</time></trkpt><trkpt lat="39.47716626" lon="-0.38009693"><ele>6.6</ele><time>2022-11-17T20:57:33.0000000+00:00</time></trkpt><trkpt lat="39.47718336" lon="-0.38008595"><ele>6.6</ele><time>2022-11-17T20:57:34.0000000+00:00</time></trkpt><trkpt lat="39.47720138" lon="-0.38006516"><ele>6.4</ele><time>2022-11-17T20:57:35.0000000+00:00</time></trkpt><trkpt lat="39.47721027" lon="-0.38004697"><ele>6.4</ele><time>2022-11-17T20:57:36.0000000+00:00</time></trkpt><trkpt lat="39.4772101" lon="-0.38003138"><ele>6.6</ele><time>2022-11-17T20:57:37.0000000+00:00</time></trkpt><trkpt lat="39.47715797" lon="-0.38001244"><ele>6.6</ele><time>2022-11-17T20:57:38.0000000+00:00</time></trkpt><trkpt lat="39.47719342" lon="-0.37998604"><ele>6.6</ele><time>2022-11-17T20:57:39.0000000+00:00</time></trkpt><trkpt lat="39.47719359" lon="-0.37997724"><ele>6.6</ele><time>2022-11-17T20:57:40.0000000+00:00</time></trkpt><trkpt lat="39.47718118" lon="-0.37998637"><ele>6.6</ele><time>2022-11-17T20:57:41.0000000+00:00</time></trkpt><trkpt lat="39.47715017" lon="-0.37999224"><ele>6.6</ele><time>2022-11-17T20:57:42.0000000+00:00</time></trkpt><trkpt lat="39.47711044" lon="-0.37999232"><ele>6.6</ele><time>2022-11-17T20:57:43.0000000+00:00</time></trkpt><trkpt lat="39.47707918" lon="-0.37998369"><ele>6.4</ele><time>2022-11-17T20:57:44.0000000+00:00</time></trkpt><trkpt lat="39.47704297" lon="-0.3799774"><ele>6.2</ele><time>2022-11-17T20:57:45.0000000+00:00</time></trkpt><trkpt lat="39.47700583" lon="-0.37997698"><ele>6.2</ele><time>2022-11-17T20:57:46.0000000+00:00</time></trkpt><trkpt lat="39.47696543" lon="-0.37997581"><ele>6.2</ele><time>2022-11-17T20:57:47.0000000+00:00</time></trkpt><trkpt lat="39.47692369" lon="-0.37997388"><ele>6.2</ele><time>2022-11-17T20:57:48.0000000+00:00</time></trkpt><trkpt lat="39.47687927" lon="-0.37997355"><ele>6.0</ele><time>2022-11-17T20:57:49.0000000+00:00</time></trkpt><trkpt lat="39.4768755" lon="-0.37994907"><ele>6.0</ele><time>2022-11-17T20:57:50.0000000+00:00</time></trkpt><trkpt lat="39.4768729" lon="-0.37991152"><ele>6.0</ele><time>2022-11-17T20:57:51.0000000+00:00</time></trkpt><trkpt lat="39.4768848" lon="-0.37986685"><ele>6.0</ele><time>2022-11-17T20:57:52.0000000+00:00</time></trkpt><trkpt lat="39.47689251" lon="-0.37991898"><ele>6.0</ele><time>2022-11-17T20:57:53.0000000+00:00</time></trkpt><trkpt lat="39.47689913" lon="-0.37993591"><ele>6.0</ele><time>2022-11-17T20:57:54.0000000+00:00</time></trkpt><trkpt lat="39.47690307" lon="-0.37991018"><ele>6.0</ele><time>2022-11-17T20:57:55.0000000+00:00</time></trkpt><trkpt lat="39.47690433" lon="-0.37989987"><ele>6.0</ele><time>2022-11-17T20:57:56.0000000+00:00</time></trkpt><trkpt lat="39.47690249" lon="-0.37990322"><ele>6.0</ele><time>2022-11-17T20:57:57.0000000+00:00</time></trkpt><trkpt lat="39.47689637" lon="-0.37991789"><ele>6.0</ele><time>2022-11-17T20:57:58.0000000+00:00</time></trkpt><trkpt lat="39.47688916" lon="-0.37993751"><ele>6.0</ele><time>2022-11-17T20:57:59.0000000+00:00</time></trkpt><trkpt lat="39.4768827" lon="-0.3799386"><ele>6.0</ele><time>2022-11-17T20:58:00.0000000+00:00</time></trkpt><trkpt lat="39.47687776" lon="-0.3799272"><ele>6.2</ele><time>2022-11-17T20:58:01.0000000+00:00</time></trkpt><trkpt lat="39.47687022" lon="-0.37992099"><ele>6.2</ele><time>2022-11-17T20:58:02.0000000+00:00</time></trkpt><trkpt lat="39.47685932" lon="-0.37992091"><ele>6.2</ele><time>2022-11-17T20:58:03.0000000+00:00</time></trkpt><trkpt lat="39.47685144" lon="-0.37991295"><ele>6.2</ele><time>2022-11-17T20:58:04.0000000+00:00</time></trkpt><trkpt lat="39.47683987" lon="-0.37991647"><ele>6.0</ele><time>2022-11-17T20:58:05.0000000+00:00</time></trkpt><trkpt lat="39.47682512" lon="-0.37992577"><ele>5.8</ele><time>2022-11-17T20:58:06.0000000+00:00</time></trkpt><trkpt lat="39.47680383" lon="-0.37992569"><ele>5.8</ele><time>2022-11-17T20:58:07.0000000+00:00</time></trkpt><trkpt lat="39.47680023" lon="-0.37994237"><ele>5.8</ele><time>2022-11-17T20:58:08.0000000+00:00</time></trkpt><trkpt lat="39.47680509" lon="-0.37983944"><ele>5.8</ele><time>2022-11-17T20:58:09.0000000+00:00</time></trkpt><trkpt lat="39.47679109" lon="-0.37982963"><ele>5.8</ele><time>2022-11-17T20:58:10.0000000+00:00</time></trkpt><trkpt lat="39.47677491" lon="-0.3798101"><ele>6.0</ele><time>2022-11-17T20:58:11.0000000+00:00</time></trkpt><trkpt lat="39.47674901" lon="-0.37978269"><ele>6.2</ele><time>2022-11-17T20:58:12.0000000+00:00</time></trkpt><trkpt lat="39.47673284" lon="-0.3797547"><ele>6.2</ele><time>2022-11-17T20:58:13.0000000+00:00</time></trkpt><trkpt lat="39.47673149" lon="-0.37975679"><ele>6.2</ele><time>2022-11-17T20:58:14.0000000+00:00</time></trkpt><trkpt lat="39.47672856" lon="-0.37977791"><ele>6.2</ele><time>2022-11-17T20:58:15.0000000+00:00</time></trkpt><trkpt lat="39.47671138" lon="-0.37979577"><ele>6.2</ele><time>2022-11-17T20:58:16.0000000+00:00</time></trkpt><trkpt lat="39.47670082" lon="-0.37981228"><ele>6.2</ele><time>2022-11-17T20:58:17.0000000+00:00</time></trkpt><trkpt lat="39.47668732" lon="-0.37982871"><ele>6.2</ele><time>2022-11-17T20:58:18.0000000+00:00</time></trkpt><trkpt lat="39.47665187" lon="-0.37983223"><ele>6.2</ele><time>2022-11-17T20:58:19.0000000+00:00</time></trkpt><trkpt lat="39.47663468" lon="-0.37984338"><ele>6.2</ele><time>2022-11-17T20:58:20.0000000+00:00</time></trkpt><trkpt lat="39.47665488" lon="-0.3798552"><ele>6.2</ele><time>2022-11-17T20:58:21.0000000+00:00</time></trkpt><trkpt lat="39.47664759" lon="-0.37986148"><ele>6.2</ele><time>2022-11-17T20:58:22.0000000+00:00</time></trkpt><trkpt lat="39.47664047" lon="-0.37986224"><ele>6.2</ele><time>2022-11-17T20:58:23.0000000+00:00</time></trkpt><trkpt lat="39.47663167" lon="-0.37985578"><ele>6.4</ele><time>2022-11-17T20:58:24.0000000+00:00</time></trkpt><trkpt lat="39.47662178" lon="-0.37984673"><ele>6.4</ele><time>2022-11-17T20:58:25.0000000+00:00</time></trkpt><trkpt lat="39.47661557" lon="-0.37983256"><ele>6.4</ele><time>2022-11-17T20:58:26.0000000+00:00</time></trkpt><trkpt lat="39.47659621" lon="-0.379835"><ele>6.6</ele><time>2022-11-17T20:58:27.0000000+00:00</time></trkpt><trkpt lat="39.47657685" lon="-0.37983525"><ele>6.6</ele><time>2022-11-17T20:58:28.0000000+00:00</time></trkpt><trkpt lat="39.47654952" lon="-0.37983416"><ele>6.8</ele><time>2022-11-17T20:58:29.0000000+00:00</time></trkpt><trkpt lat="39.47652723" lon="-0.3798479"><ele>7.0</ele><time>2022-11-17T20:58:30.0000000+00:00</time></trkpt><trkpt lat="39.47651315" lon="-0.37986056"><ele>7.0</ele><time>2022-11-17T20:58:31.0000000+00:00</time></trkpt><trkpt lat="39.47652362" lon="-0.37987313"><ele>7.2</ele><time>2022-11-17T20:58:32.0000000+00:00</time></trkpt><trkpt lat="39.47651323" lon="-0.37987154"><ele>7.4</ele><time>2022-11-17T20:58:33.0000000+00:00</time></trkpt><trkpt lat="39.47650258" lon="-0.37986551"><ele>7.4</ele><time>2022-11-17T20:58:34.0000000+00:00</time></trkpt><trkpt lat="39.47649286" lon="-0.3798552"><ele>7.6</ele><time>2022-11-17T20:58:35.0000000+00:00</time></trkpt><trkpt lat="39.47648767" lon="-0.37984841"><ele>7.6</ele><time>2022-11-17T20:58:36.0000000+00:00</time></trkpt><trkpt lat="39.47647526" lon="-0.37984757"><ele>7.6</ele><time>2022-11-17T20:58:37.0000000+00:00</time></trkpt><trkpt lat="39.47646755" lon="-0.37984162"><ele>7.4</ele><time>2022-11-17T20:58:38.0000000+00:00</time></trkpt><trkpt lat="39.47646227" lon="-0.37983935"><ele>7.4</ele><time>2022-11-17T20:58:39.0000000+00:00</time></trkpt><trkpt lat="39.47645824" lon="-0.37984966"><ele>7.6</ele><time>2022-11-17T20:58:40.0000000+00:00</time></trkpt><trkpt lat="39.47645104" lon="-0.3798619"><ele>7.6</ele><time>2022-11-17T20:58:41.0000000+00:00</time></trkpt><trkpt lat="39.4764476" lon="-0.37987255"><ele>7.6</ele><time>2022-11-17T20:58:42.0000000+00:00</time></trkpt><trkpt lat="39.47644986" lon="-0.37988872"><ele>7.6</ele><time>2022-11-17T20:58:43.0000000+00:00</time></trkpt><trkpt lat="39.4764471" lon="-0.37990867"><ele>7.4</ele><time>2022-11-17T20:58:44.0000000+00:00</time></trkpt><trkpt lat="39.47644676" lon="-0.37991521"><ele>7.4</ele><time>2022-11-17T20:58:45.0000000+00:00</time></trkpt><trkpt lat="39.47643603" lon="-0.37992242"><ele>7.4</ele><time>2022-11-17T20:58:46.0000000+00:00</time></trkpt><trkpt lat="39.47644467" lon="-0.37994321"><ele>7.4</ele><time>2022-11-17T20:58:47.0000000+00:00</time></trkpt><trkpt lat="39.47645322" lon="-0.3799598"><ele>7.4</ele><time>2022-11-17T20:58:48.0000000+00:00</time></trkpt><trkpt lat="39.47644869" lon="-0.37996332"><ele>7.4</ele><time>2022-11-17T20:58:49.0000000+00:00</time></trkpt><trkpt lat="39.47644819" lon="-0.37995989"><ele>7.4</ele><time>2022-11-17T20:58:50.0000000+00:00</time></trkpt><trkpt lat="39.47644291" lon="-0.37996173"><ele>7.4</ele><time>2022-11-17T20:58:51.0000000+00:00</time></trkpt><trkpt lat="39.47644106" lon="-0.37997045"><ele>7.4</ele><time>2022-11-17T20:58:52.0000000+00:00</time></trkpt><trkpt lat="39.47643704" lon="-0.37997263"><ele>7.4</ele><time>2022-11-17T20:58:53.0000000+00:00</time></trkpt><trkpt lat="39.47642891" lon="-0.37996592"><ele>7.4</ele><time>2022-11-17T20:58:54.0000000+00:00</time></trkpt><trkpt lat="39.47642145" lon="-0.37996592"><ele>7.4</ele><time>2022-11-17T20:58:55.0000000+00:00</time></trkpt><trkpt lat="39.47641349" lon="-0.37997087"><ele>7.4</ele><time>2022-11-17T20:58:56.0000000+00:00</time></trkpt><trkpt lat="39.47635699" lon="-0.37998738"><ele>7.2</ele><time>2022-11-17T20:58:57.0000000+00:00</time></trkpt><trkpt lat="39.47635875" lon="-0.3799961"><ele>7.2</ele><time>2022-11-17T20:58:58.0000000+00:00</time></trkpt><trkpt lat="39.47635775" lon="-0.38000389"><ele>7.2</ele><time>2022-11-17T20:58:59.0000000+00:00</time></trkpt><trkpt lat="39.47635607" lon="-0.38001428"><ele>7.2</ele><time>2022-11-17T20:59:00.0000000+00:00</time></trkpt><trkpt lat="39.47635255" lon="-0.38002577"><ele>7.2</ele><time>2022-11-17T20:59:01.0000000+00:00</time></trkpt><trkpt lat="39.47636697" lon="-0.38003063"><ele>7.2</ele><time>2022-11-17T20:59:02.0000000+00:00</time></trkpt><trkpt lat="39.47638138" lon="-0.38002887"><ele>7.2</ele><time>2022-11-17T20:59:03.0000000+00:00</time></trkpt><trkpt lat="39.47637225" lon="-0.38003113"><ele>7.4</ele><time>2022-11-17T20:59:04.0000000+00:00</time></trkpt><trkpt lat="39.47636386" lon="-0.380037"><ele>7.4</ele><time>2022-11-17T20:59:05.0000000+00:00</time></trkpt><trkpt lat="39.47636479" lon="-0.38003851"><ele>7.4</ele><time>2022-11-17T20:59:06.0000000+00:00</time></trkpt><trkpt lat="39.47636864" lon="-0.38003968"><ele>7.4</ele><time>2022-11-17T20:59:07.0000000+00:00</time></trkpt><trkpt lat="39.47636177" lon="-0.38004178"><ele>7.4</ele><time>2022-11-17T20:59:08.0000000+00:00</time></trkpt><trkpt lat="39.47634769" lon="-0.3800427"><ele>7.2</ele><time>2022-11-17T20:59:09.0000000+00:00</time></trkpt><trkpt lat="39.47634283" lon="-0.38004429"><ele>7.2</ele><time>2022-11-17T20:59:10.0000000+00:00</time></trkpt><trkpt lat="39.47634903" lon="-0.38004027"><ele>7.2</ele><time>2022-11-17T20:59:11.0000000+00:00</time></trkpt><trkpt lat="39.4763492" lon="-0.38003775"><ele>7.2</ele><time>2022-11-17T20:59:12.0000000+00:00</time></trkpt><trkpt lat="39.47635816" lon="-0.38003306"><ele>7.2</ele><time>2022-11-17T20:59:13.0000000+00:00</time></trkpt><trkpt lat="39.47636093" lon="-0.38003272"><ele>7.2</ele><time>2022-11-17T20:59:14.0000000+00:00</time></trkpt><trkpt lat="39.47635456" lon="-0.38003474"><ele>7.2</ele><time>2022-11-17T20:59:15.0000000+00:00</time></trkpt><trkpt lat="39.47634928" lon="-0.38003624"><ele>7.2</ele><time>2022-11-17T20:59:16.0000000+00:00</time></trkpt><trkpt lat="39.47634928" lon="-0.38003624"><ele>7.2</ele><time>2022-11-17T20:59:17.0000000+00:00</time></trkpt><trkpt lat="39.47634928" lon="-0.38003624"><ele>7.2</ele><time>2022-11-17T20:59:18.0000000+00:00</time></trkpt><trkpt lat="39.47634928" lon="-0.38003624"><ele>7.2</ele><time>2022-11-17T20:59:19.0000000+00:00</time></trkpt><trkpt lat="39.47634928" lon="-0.38003624"><ele>7.2</ele><time>2022-11-17T20:59:20.0000000+00:00</time></trkpt><trkpt lat="39.47634928" lon="-0.38003624"><ele>7.2</ele><time>2022-11-17T20:59:21.0000000+00:00</time></trkpt><trkpt lat="39.47634928" lon="-0.38003624"><ele>7.2</ele><time>2022-11-17T20:59:22.0000000+00:00</time></trkpt><trkpt lat="39.47634928" lon="-0.38003624"><ele>7.2</ele><time>2022-11-17T20:59:23.0000000+00:00</time></trkpt><trkpt lat="39.47634928" lon="-0.38003624"><ele>7.2</ele><time>2022-11-17T20:59:24.0000000+00:00</time></trkpt><trkpt lat="39.47634928" lon="-0.38003624"><ele>7.2</ele><time>2022-11-17T20:59:25.0000000+00:00</time></trkpt><trkpt lat="39.47634928" lon="-0.38003624"><ele>7.2</ele><time>2022-11-17T20:59:26.0000000+00:00</time></trkpt><trkpt lat="39.47634928" lon="-0.38003624"><ele>7.2</ele><time>2022-11-17T20:59:27.0000000+00:00</time></trkpt><trkpt lat="39.4763492" lon="-0.38003624"><ele>7.2</ele><time>2022-11-17T20:59:28.0000000+00:00</time></trkpt><trkpt lat="39.47634903" lon="-0.38003624"><ele>7.2</ele><time>2022-11-17T20:59:29.0000000+00:00</time></trkpt><trkpt lat="39.47634777" lon="-0.38003624"><ele>7.0</ele><time>2022-11-17T20:59:30.0000000+00:00</time></trkpt><trkpt lat="39.47634425" lon="-0.38003624"><ele>7.0</ele><time>2022-11-17T20:59:31.0000000+00:00</time></trkpt><trkpt lat="39.47634291" lon="-0.38003624"><ele>7.0</ele><time>2022-11-17T20:59:32.0000000+00:00</time></trkpt><trkpt lat="39.47633847" lon="-0.38003692"><ele>7.0</ele><time>2022-11-17T20:59:33.0000000+00:00</time></trkpt><trkpt lat="39.47633386" lon="-0.38003767"><ele>7.0</ele><time>2022-11-17T20:59:34.0000000+00:00</time></trkpt><trkpt lat="39.47633319" lon="-0.38003775"><ele>7.0</ele><time>2022-11-17T20:59:35.0000000+00:00</time></trkpt><trkpt lat="39.47633235" lon="-0.38004002"><ele>7.0</ele><time>2022-11-17T20:59:36.0000000+00:00</time></trkpt><trkpt lat="39.47633109" lon="-0.38004069"><ele>7.0</ele><time>2022-11-17T20:59:37.0000000+00:00</time></trkpt><trkpt lat="39.47633755" lon="-0.38003516"><ele>7.0</ele><time>2022-11-17T20:59:38.0000000+00:00</time></trkpt><trkpt lat="39.47634107" lon="-0.38002979"><ele>7.0</ele><time>2022-11-17T20:59:39.0000000+00:00</time></trkpt><trkpt lat="39.47634802" lon="-0.38002233"><ele>7.0</ele><time>2022-11-17T20:59:40.0000000+00:00</time></trkpt><trkpt lat="39.47634576" lon="-0.38001269"><ele>7.0</ele><time>2022-11-17T20:59:41.0000000+00:00</time></trkpt><trkpt lat="39.47632799" lon="-0.38000615"><ele>7.0</ele><time>2022-11-17T20:59:42.0000000+00:00</time></trkpt><trkpt lat="39.47631072" lon="-0.38000003"><ele>7.0</ele><time>2022-11-17T20:59:43.0000000+00:00</time></trkpt><trkpt lat="39.47629262" lon="-0.37999735"><ele>7.0</ele><time>2022-11-17T20:59:44.0000000+00:00</time></trkpt><trkpt lat="39.47629002" lon="-0.37999995"><ele>7.0</ele><time>2022-11-17T20:59:45.0000000+00:00</time></trkpt><trkpt lat="39.4762958" lon="-0.38000942"><ele>7.0</ele><time>2022-11-17T20:59:46.0000000+00:00</time></trkpt><trkpt lat="39.4763015" lon="-0.38001412"><ele>7.0</ele><time>2022-11-17T20:59:47.0000000+00:00</time></trkpt><trkpt lat="39.47630226" lon="-0.38001345"><ele>7.0</ele><time>2022-11-17T20:59:48.0000000+00:00</time></trkpt><trkpt lat="39.47629538" lon="-0.38000909"><ele>7.0</ele><time>2022-11-17T20:59:49.0000000+00:00</time></trkpt><trkpt lat="39.47632472" lon="-0.38001697"><ele>7.0</ele><time>2022-11-17T20:59:50.0000000+00:00</time></trkpt><trkpt lat="39.47634526" lon="-0.38002853"><ele>7.0</ele><time>2022-11-17T20:59:51.0000000+00:00</time></trkpt><trkpt lat="39.47636386" lon="-0.38003759"><ele>7.0</ele><time>2022-11-17T20:59:52.0000000+00:00</time></trkpt><trkpt lat="39.47638239" lon="-0.38004245"><ele>7.0</ele><time>2022-11-17T20:59:53.0000000+00:00</time></trkpt><trkpt lat="39.47639471" lon="-0.38004396"><ele>7.0</ele><time>2022-11-17T20:59:54.0000000+00:00</time></trkpt><trkpt lat="39.47641072" lon="-0.38004731"><ele>7.0</ele><time>2022-11-17T20:59:55.0000000+00:00</time></trkpt><trkpt lat="39.4764279" lon="-0.3800484"><ele>7.0</ele><time>2022-11-17T20:59:56.0000000+00:00</time></trkpt><trkpt lat="39.4764419" lon="-0.38005041"><ele>7.0</ele><time>2022-11-17T20:59:57.0000000+00:00</time></trkpt><trkpt lat="39.47644978" lon="-0.38004798"><ele>7.0</ele><time>2022-11-17T20:59:58.0000000+00:00</time></trkpt><trkpt lat="39.47646009" lon="-0.38004815"><ele>7.0</ele><time>2022-11-17T20:59:59.0000000+00:00</time></trkpt><trkpt lat="39.47647149" lon="-0.38005058"><ele>7.2</ele><time>2022-11-17T21:00:00.0000000+00:00</time></trkpt><trkpt lat="39.47647987" lon="-0.38004597"><ele>7.4</ele><time>2022-11-17T21:00:01.0000000+00:00</time></trkpt><trkpt lat="39.47648741" lon="-0.38004094"><ele>7.4</ele><time>2022-11-17T21:00:02.0000000+00:00</time></trkpt><trkpt lat="39.4764885" lon="-0.38003189"><ele>7.6</ele><time>2022-11-17T21:00:03.0000000+00:00</time></trkpt><trkpt lat="39.47648641" lon="-0.38002585"><ele>7.6</ele><time>2022-11-17T21:00:04.0000000+00:00</time></trkpt><trkpt lat="39.47648448" lon="-0.38001621"><ele>7.8</ele><time>2022-11-17T21:00:05.0000000+00:00</time></trkpt><trkpt lat="39.47647291" lon="-0.38001529"><ele>7.8</ele><time>2022-11-17T21:00:06.0000000+00:00</time></trkpt><trkpt lat="39.47647216" lon="-0.38000607"><ele>7.8</ele><time>2022-11-17T21:00:07.0000000+00:00</time></trkpt><trkpt lat="39.47648197" lon="-0.37999333"><ele>7.8</ele><time>2022-11-17T21:00:08.0000000+00:00</time></trkpt><trkpt lat="39.47649001" lon="-0.37998294"><ele>7.8</ele><time>2022-11-17T21:00:09.0000000+00:00</time></trkpt><trkpt lat="39.47649781" lon="-0.37996768"><ele>7.8</ele><time>2022-11-17T21:00:10.0000000+00:00</time></trkpt><trkpt lat="39.47650183" lon="-0.37995159"><ele>7.8</ele><time>2022-11-17T21:00:11.0000000+00:00</time></trkpt><trkpt lat="39.4765025" lon="-0.37994002"><ele>7.8</ele><time>2022-11-17T21:00:12.0000000+00:00</time></trkpt><trkpt lat="39.47650032" lon="-0.37992158"><ele>7.8</ele><time>2022-11-17T21:00:13.0000000+00:00</time></trkpt><trkpt lat="39.47649839" lon="-0.37990624"><ele>7.8</ele><time>2022-11-17T21:00:14.0000000+00:00</time></trkpt><trkpt lat="39.47651398" lon="-0.37989727"><ele>7.8</ele><time>2022-11-17T21:00:15.0000000+00:00</time></trkpt><trkpt lat="39.47652379" lon="-0.3798868"><ele>8.0</ele><time>2022-11-17T21:00:16.0000000+00:00</time></trkpt><trkpt lat="39.47652999" lon="-0.37987087"><ele>8.0</ele><time>2022-11-17T21:00:17.0000000+00:00</time></trkpt><trkpt lat="39.47651214" lon="-0.37985243"><ele>8.0</ele><time>2022-11-17T21:00:18.0000000+00:00</time></trkpt><trkpt lat="39.47651248" lon="-0.37983458"><ele>8.0</ele><time>2022-11-17T21:00:19.0000000+00:00</time></trkpt><trkpt lat="39.47650116" lon="-0.37981211"><ele>8.0</ele><time>2022-11-17T21:00:20.0000000+00:00</time></trkpt><trkpt lat="39.47650518" lon="-0.37980465"><ele>7.8</ele><time>2022-11-17T21:00:21.0000000+00:00</time></trkpt><trkpt lat="39.47649253" lon="-0.37979677"><ele>7.8</ele><time>2022-11-17T21:00:22.0000000+00:00</time></trkpt><trkpt lat="39.4764963" lon="-0.37979552"><ele>7.8</ele><time>2022-11-17T21:00:23.0000000+00:00</time></trkpt><trkpt lat="39.47649856" lon="-0.3797899"><ele>7.8</ele><time>2022-11-17T21:00:24.0000000+00:00</time></trkpt><trkpt lat="39.47650644" lon="-0.37978646"><ele>7.8</ele><time>2022-11-17T21:00:25.0000000+00:00</time></trkpt><trkpt lat="39.47651164" lon="-0.37978412"><ele>7.8</ele><time>2022-11-17T21:00:26.0000000+00:00</time></trkpt><trkpt lat="39.47651692" lon="-0.37977917"><ele>8.0</ele><time>2022-11-17T21:00:27.0000000+00:00</time></trkpt><trkpt lat="39.47650703" lon="-0.37976383"><ele>8.2</ele><time>2022-11-17T21:00:28.0000000+00:00</time></trkpt><trkpt lat="39.47649672" lon="-0.37975579"><ele>8.2</ele><time>2022-11-17T21:00:29.0000000+00:00</time></trkpt><trkpt lat="39.47648582" lon="-0.37974891"><ele>8.4</ele><time>2022-11-17T21:00:30.0000000+00:00</time></trkpt><trkpt lat="39.47648012" lon="-0.37974556"><ele>8.4</ele><time>2022-11-17T21:00:31.0000000+00:00</time></trkpt><trkpt lat="39.47647643" lon="-0.37973919"><ele>8.4</ele><time>2022-11-17T21:00:32.0000000+00:00</time></trkpt><trkpt lat="39.47646663" lon="-0.3797355"><ele>8.2</ele><time>2022-11-17T21:00:33.0000000+00:00</time></trkpt><trkpt lat="39.47646805" lon="-0.37973844"><ele>8.0</ele><time>2022-11-17T21:00:34.0000000+00:00</time></trkpt><trkpt lat="39.47647325" lon="-0.37973802"><ele>8.0</ele><time>2022-11-17T21:00:35.0000000+00:00</time></trkpt><trkpt lat="39.47648004" lon="-0.3797381"><ele>7.8</ele><time>2022-11-17T21:00:36.0000000+00:00</time></trkpt><trkpt lat="39.47648565" lon="-0.37973802"><ele>7.8</ele><time>2022-11-17T21:00:37.0000000+00:00</time></trkpt><trkpt lat="39.47649186" lon="-0.37973626"><ele>7.8</ele><time>2022-11-17T21:00:38.0000000+00:00</time></trkpt><trkpt lat="39.47649881" lon="-0.3797355"><ele>7.8</ele><time>2022-11-17T21:00:39.0000000+00:00</time></trkpt><trkpt lat="39.47650258" lon="-0.3797386"><ele>7.8</ele><time>2022-11-17T21:00:40.0000000+00:00</time></trkpt><trkpt lat="39.47649982" lon="-0.37973567"><ele>7.8</ele><time>2022-11-17T21:00:41.0000000+00:00</time></trkpt><trkpt lat="39.4764958" lon="-0.37973525"><ele>7.8</ele><time>2022-11-17T21:00:42.0000000+00:00</time></trkpt><trkpt lat="39.4764942" lon="-0.37973475"><ele>7.6</ele><time>2022-11-17T21:00:43.0000000+00:00</time></trkpt><trkpt lat="39.4764942" lon="-0.37973475"><ele>7.6</ele><time>2022-11-17T21:00:44.0000000+00:00</time></trkpt><trkpt lat="39.4764942" lon="-0.37973475"><ele>7.6</ele><time>2022-11-17T21:00:45.0000000+00:00</time></trkpt><trkpt lat="39.4764942" lon="-0.37973475"><ele>7.6</ele><time>2022-11-17T21:00:46.0000000+00:00</time></trkpt><trkpt lat="39.4764942" lon="-0.37973475"><ele>7.6</ele><time>2022-11-17T21:00:47.0000000+00:00</time></trkpt><trkpt lat="39.4764942" lon="-0.37973475"><ele>7.6</ele><time>2022-11-17T21:00:48.0000000+00:00</time></trkpt><trkpt lat="39.47649538" lon="-0.37973148"><ele>7.8</ele><time>2022-11-17T21:00:49.0000000+00:00</time></trkpt><trkpt lat="39.47650049" lon="-0.37972318"><ele>7.8</ele><time>2022-11-17T21:00:50.0000000+00:00</time></trkpt><trkpt lat="39.47650258" lon="-0.37971363"><ele>7.8</ele><time>2022-11-17T21:00:51.0000000+00:00</time></trkpt><trkpt lat="39.47650233" lon="-0.37970625"><ele>7.8</ele><time>2022-11-17T21:00:52.0000000+00:00</time></trkpt><trkpt lat="39.47650225" lon="-0.37969929"><ele>7.8</ele><time>2022-11-17T21:00:53.0000000+00:00</time></trkpt><trkpt lat="39.4765025" lon="-0.37968722"><ele>7.6</ele><time>2022-11-17T21:00:54.0000000+00:00</time></trkpt><trkpt lat="39.4762658" lon="-0.37946359"><ele>6.8</ele><time>2022-11-17T21:02:08.0000000+00:00</time></trkpt><trkpt lat="39.47645632" lon="-0.37973508"><ele>6.8</ele><time>2022-11-17T21:02:09.0000000+00:00</time></trkpt><trkpt lat="39.4763072" lon="-0.37948765"><ele>6.8</ele><time>2022-11-17T21:02:10.0000000+00:00</time></trkpt><trkpt lat="39.47662706" lon="-0.37980524"><ele>6.8</ele><time>2022-11-17T21:02:11.0000000+00:00</time></trkpt><trkpt lat="39.47688782" lon="-0.37997154"><ele>6.8</ele><time>2022-11-17T21:02:12.0000000+00:00</time></trkpt><trkpt lat="39.47680467" lon="-0.37990146"><ele>6.6</ele><time>2022-11-17T21:02:13.0000000+00:00</time></trkpt><trkpt lat="39.47679344" lon="-0.37989778"><ele>6.6</ele><time>2022-11-17T21:02:14.0000000+00:00</time></trkpt><trkpt lat="39.47678799" lon="-0.37989576"><ele>6.6</ele><time>2022-11-17T21:02:15.0000000+00:00</time></trkpt><trkpt lat="39.47679997" lon="-0.37989727"><ele>6.6</ele><time>2022-11-17T21:02:16.0000000+00:00</time></trkpt><trkpt lat="39.47679503" lon="-0.37989669"><ele>6.6</ele><time>2022-11-17T21:02:17.0000000+00:00</time></trkpt><trkpt lat="39.4767869" lon="-0.37989367"><ele>6.6</ele><time>2022-11-17T21:02:18.0000000+00:00</time></trkpt><trkpt lat="39.47676435" lon="-0.37987892"><ele>6.6</ele><time>2022-11-17T21:02:19.0000000+00:00</time></trkpt><trkpt lat="39.47675329" lon="-0.37987506"><ele>6.6</ele><time>2022-11-17T21:02:20.0000000+00:00</time></trkpt><trkpt lat="39.47672932" lon="-0.37985151"><ele>6.6</ele><time>2022-11-17T21:02:21.0000000+00:00</time></trkpt><trkpt lat="39.47669931" lon="-0.37982443"><ele>6.6</ele><time>2022-11-17T21:02:22.0000000+00:00</time></trkpt><trkpt lat="39.4766719" lon="-0.3797987"><ele>6.6</ele><time>2022-11-17T21:02:23.0000000+00:00</time></trkpt><trkpt lat="39.47665824" lon="-0.37979007"><ele>6.8</ele><time>2022-11-17T21:02:24.0000000+00:00</time></trkpt><trkpt lat="39.47664105" lon="-0.37977657"><ele>6.8</ele><time>2022-11-17T21:02:25.0000000+00:00</time></trkpt><trkpt lat="39.47662337" lon="-0.37975495"><ele>6.8</ele><time>2022-11-17T21:02:26.0000000+00:00</time></trkpt><trkpt lat="39.4765973" lon="-0.37972704"><ele>6.8</ele><time>2022-11-17T21:02:27.0000000+00:00</time></trkpt><trkpt lat="39.47655606" lon="-0.37969636"><ele>6.8</ele><time>2022-11-17T21:02:28.0000000+00:00</time></trkpt><trkpt lat="39.47651591" lon="-0.37967096"><ele>6.8</ele><time>2022-11-17T21:02:29.0000000+00:00</time></trkpt><trkpt lat="39.47647107" lon="-0.37964548"><ele>6.8</ele><time>2022-11-17T21:02:30.0000000+00:00</time></trkpt><trkpt lat="39.47643637" lon="-0.37962821"><ele>7.0</ele><time>2022-11-17T21:02:31.0000000+00:00</time></trkpt><trkpt lat="39.476388" lon="-0.37959603"><ele>7.0</ele><time>2022-11-17T21:02:32.0000000+00:00</time></trkpt><trkpt lat="39.47636663" lon="-0.37958622"><ele>7.0</ele><time>2022-11-17T21:02:33.0000000+00:00</time></trkpt><trkpt lat="39.47634333" lon="-0.37958228"><ele>7.0</ele><time>2022-11-17T21:02:34.0000000+00:00</time></trkpt><trkpt lat="39.47631458" lon="-0.37956535"><ele>7.0</ele><time>2022-11-17T21:02:35.0000000+00:00</time></trkpt><trkpt lat="39.47627694" lon="-0.37954993"><ele>7.2</ele><time>2022-11-17T21:02:36.0000000+00:00</time></trkpt><trkpt lat="39.47636789" lon="-0.37959661"><ele>7.2</ele><time>2022-11-17T21:02:37.0000000+00:00</time></trkpt><trkpt lat="39.47638599" lon="-0.37959913"><ele>7.2</ele><time>2022-11-17T21:02:38.0000000+00:00</time></trkpt><trkpt lat="39.47639463" lon="-0.37959125"><ele>7.2</ele><time>2022-11-17T21:02:39.0000000+00:00</time></trkpt><trkpt lat="39.47640494" lon="-0.37958513"><ele>7.2</ele><time>2022-11-17T21:02:40.0000000+00:00</time></trkpt><trkpt lat="39.47641709" lon="-0.37958111"><ele>7.4</ele><time>2022-11-17T21:02:41.0000000+00:00</time></trkpt><trkpt lat="39.47642514" lon="-0.37958044"><ele>7.4</ele><time>2022-11-17T21:02:42.0000000+00:00</time></trkpt><trkpt lat="39.47641726" lon="-0.37957583"><ele>7.4</ele><time>2022-11-17T21:02:43.0000000+00:00</time></trkpt><trkpt lat="39.47642648" lon="-0.37958496"><ele>7.4</ele><time>2022-11-17T21:02:44.0000000+00:00</time></trkpt><trkpt lat="39.47643402" lon="-0.3795936"><ele>7.4</ele><time>2022-11-17T21:02:45.0000000+00:00</time></trkpt><trkpt lat="39.47644366" lon="-0.37960248"><ele>7.2</ele><time>2022-11-17T21:02:46.0000000+00:00</time></trkpt><trkpt lat="39.47644693" lon="-0.37960994"><ele>7.2</ele><time>2022-11-17T21:02:47.0000000+00:00</time></trkpt><trkpt lat="39.47645179" lon="-0.37961849"><ele>7.2</ele><time>2022-11-17T21:02:48.0000000+00:00</time></trkpt><trkpt lat="39.47646914" lon="-0.37962855"><ele>7.2</ele><time>2022-11-17T21:02:49.0000000+00:00</time></trkpt><trkpt lat="39.47648959" lon="-0.37963375"><ele>7.2</ele><time>2022-11-17T21:02:50.0000000+00:00</time></trkpt><trkpt lat="39.47650309" lon="-0.37963752"><ele>7.2</ele><time>2022-11-17T21:02:51.0000000+00:00</time></trkpt><trkpt lat="39.47651591" lon="-0.37965361"><ele>7.2</ele><time>2022-11-17T21:02:52.0000000+00:00</time></trkpt><trkpt lat="39.47651407" lon="-0.3796495"><ele>7.2</ele><time>2022-11-17T21:02:53.0000000+00:00</time></trkpt><trkpt lat="39.47652161" lon="-0.37966057"><ele>7.2</ele><time>2022-11-17T21:02:54.0000000+00:00</time></trkpt><trkpt lat="39.47650929" lon="-0.37965814"><ele>7.2</ele><time>2022-11-17T21:02:55.0000000+00:00</time></trkpt><trkpt lat="39.47648507" lon="-0.37966509"><ele>7.0</ele><time>2022-11-17T21:02:58.0000000+00:00</time></trkpt><trkpt lat="39.47648666" lon="-0.37967163"><ele>7.0</ele><time>2022-11-17T21:03:01.0000000+00:00</time></trkpt><trkpt lat="39.47648515" lon="-0.37967373"><ele>7.2</ele><time>2022-11-17T21:03:02.0000000+00:00</time></trkpt><trkpt lat="39.47648691" lon="-0.3796806"><ele>7.2</ele><time>2022-11-17T21:03:03.0000000+00:00</time></trkpt><trkpt lat="39.47649035" lon="-0.37968965"><ele>7.2</ele><time>2022-11-17T21:03:04.0000000+00:00</time></trkpt><trkpt lat="39.47652362" lon="-0.3797153"><ele>7.2</ele><time>2022-11-17T21:03:05.0000000+00:00</time></trkpt><trkpt lat="39.47652773" lon="-0.37972109"><ele>7.2</ele><time>2022-11-17T21:03:06.0000000+00:00</time></trkpt><trkpt lat="39.47656335" lon="-0.37973441"><ele>7.2</ele><time>2022-11-17T21:03:07.0000000+00:00</time></trkpt><trkpt lat="39.4765735" lon="-0.37975168"><ele>7.4</ele><time>2022-11-17T21:03:08.0000000+00:00</time></trkpt><trkpt lat="39.4766066" lon="-0.37976543"><ele>7.4</ele><time>2022-11-17T21:03:09.0000000+00:00</time></trkpt><trkpt lat="39.47661708" lon="-0.37977347"><ele>7.6</ele><time>2022-11-17T21:03:10.0000000+00:00</time></trkpt><trkpt lat="39.47661976" lon="-0.3797733"><ele>7.6</ele><time>2022-11-17T21:03:11.0000000+00:00</time></trkpt><trkpt lat="39.4766092" lon="-0.37976207"><ele>7.6</ele><time>2022-11-17T21:03:12.0000000+00:00</time></trkpt><trkpt lat="39.47658992" lon="-0.3797474"><ele>7.6</ele><time>2022-11-17T21:03:13.0000000+00:00</time></trkpt><trkpt lat="39.47654542" lon="-0.37971413"><ele>7.6</ele><time>2022-11-17T21:03:14.0000000+00:00</time></trkpt><trkpt lat="39.47651876" lon="-0.37969259"><ele>7.6</ele><time>2022-11-17T21:03:15.0000000+00:00</time></trkpt><trkpt lat="39.476502" lon="-0.37968018"><ele>7.6</ele><time>2022-11-17T21:03:16.0000000+00:00</time></trkpt><trkpt lat="39.47659219" lon="-0.37970231"><ele>7.6</ele><time>2022-11-17T21:03:17.0000000+00:00</time></trkpt><trkpt lat="39.4766092" lon="-0.37971262"><ele>7.6</ele><time>2022-11-17T21:03:18.0000000+00:00</time></trkpt><trkpt lat="39.47663192" lon="-0.3797267"><ele>7.6</ele><time>2022-11-17T21:03:19.0000000+00:00</time></trkpt><trkpt lat="39.47664499" lon="-0.37973525"><ele>7.6</ele><time>2022-11-17T21:03:20.0000000+00:00</time></trkpt><trkpt lat="39.47664206" lon="-0.37973005"><ele>7.4</ele><time>2022-11-17T21:03:21.0000000+00:00</time></trkpt><trkpt lat="39.47661926" lon="-0.37971321"><ele>7.4</ele><time>2022-11-17T21:03:22.0000000+00:00</time></trkpt><trkpt lat="39.47661096" lon="-0.37970658"><ele>7.4</ele><time>2022-11-17T21:03:23.0000000+00:00</time></trkpt><trkpt lat="39.47661834" lon="-0.37970793"><ele>7.4</ele><time>2022-11-17T21:03:24.0000000+00:00</time></trkpt><trkpt lat="39.47662303" lon="-0.37970927"><ele>7.4</ele><time>2022-11-17T21:03:25.0000000+00:00</time></trkpt><trkpt lat="39.47662622" lon="-0.37970985"><ele>7.4</ele><time>2022-11-17T21:03:26.0000000+00:00</time></trkpt><trkpt lat="39.47663217" lon="-0.3797148"><ele>7.2</ele><time>2022-11-17T21:03:27.0000000+00:00</time></trkpt><trkpt lat="39.47663728" lon="-0.37971824"><ele>7.2</ele><time>2022-11-17T21:03:28.0000000+00:00</time></trkpt><trkpt lat="39.47664013" lon="-0.37972217"><ele>7.2</ele><time>2022-11-17T21:03:29.0000000+00:00</time></trkpt><trkpt lat="39.47666268" lon="-0.37973793"><ele>7.2</ele><time>2022-11-17T21:03:30.0000000+00:00</time></trkpt><trkpt lat="39.47667852" lon="-0.37975252"><ele>7.2</ele><time>2022-11-17T21:03:31.0000000+00:00</time></trkpt><trkpt lat="39.4766942" lon="-0.37976568"><ele>7.2</ele><time>2022-11-17T21:03:32.0000000+00:00</time></trkpt><trkpt lat="39.47670501" lon="-0.37977364"><ele>7.2</ele><time>2022-11-17T21:03:33.0000000+00:00</time></trkpt><trkpt lat="39.47670157" lon="-0.37977381"><ele>7.2</ele><time>2022-11-17T21:03:34.0000000+00:00</time></trkpt><trkpt lat="39.47670157" lon="-0.37978035"><ele>7.2</ele><time>2022-11-17T21:03:35.0000000+00:00</time></trkpt><trkpt lat="39.47669579" lon="-0.37977456"><ele>7.2</ele><time>2022-11-17T21:03:36.0000000+00:00</time></trkpt><trkpt lat="39.47666553" lon="-0.37975486"><ele>7.2</ele><time>2022-11-17T21:03:37.0000000+00:00</time></trkpt><trkpt lat="39.47665891" lon="-0.37974858"><ele>7.2</ele><time>2022-11-17T21:03:38.0000000+00:00</time></trkpt><trkpt lat="39.47664768" lon="-0.37974036"><ele>7.2</ele><time>2022-11-17T21:03:39.0000000+00:00</time></trkpt><trkpt lat="39.47664315" lon="-0.37973919"><ele>7.2</ele><time>2022-11-17T21:03:40.0000000+00:00</time></trkpt><trkpt lat="39.47666368" lon="-0.37975319"><ele>7.2</ele><time>2022-11-17T21:03:41.0000000+00:00</time></trkpt><trkpt lat="39.47666645" lon="-0.37976014"><ele>7.2</ele><time>2022-11-17T21:03:42.0000000+00:00</time></trkpt><trkpt lat="39.4766574" lon="-0.37975545"><ele>7.2</ele><time>2022-11-17T21:03:43.0000000+00:00</time></trkpt><trkpt lat="39.4766429" lon="-0.37974548"><ele>7.2</ele><time>2022-11-17T21:03:44.0000000+00:00</time></trkpt><trkpt lat="39.47661473" lon="-0.37972846"><ele>7.2</ele><time>2022-11-17T21:03:45.0000000+00:00</time></trkpt><trkpt lat="39.47658967" lon="-0.37971187"><ele>7.2</ele><time>2022-11-17T21:03:46.0000000+00:00</time></trkpt><trkpt lat="39.47657534" lon="-0.37970332"><ele>7.2</ele><time>2022-11-17T21:03:47.0000000+00:00</time></trkpt><trkpt lat="39.47655958" lon="-0.37969192"><ele>7.2</ele><time>2022-11-17T21:03:48.0000000+00:00</time></trkpt><trkpt lat="39.47654676" lon="-0.37968261"><ele>7.4</ele><time>2022-11-17T21:03:49.0000000+00:00</time></trkpt><trkpt lat="39.47653829" lon="-0.37967817"><ele>7.4</ele><time>2022-11-17T21:03:50.0000000+00:00</time></trkpt><trkpt lat="39.47655145" lon="-0.37968974"><ele>7.4</ele><time>2022-11-17T21:03:51.0000000+00:00</time></trkpt><trkpt lat="39.47656386" lon="-0.37969938"><ele>7.4</ele><time>2022-11-17T21:03:52.0000000+00:00</time></trkpt><trkpt lat="39.4765569" lon="-0.37969519"><ele>7.4</ele><time>2022-11-17T21:03:53.0000000+00:00</time></trkpt><trkpt lat="39.47654374" lon="-0.37968177"><ele>7.4</ele><time>2022-11-17T21:03:54.0000000+00:00</time></trkpt><trkpt lat="39.47654324" lon="-0.37967976"><ele>7.4</ele><time>2022-11-17T21:03:55.0000000+00:00</time></trkpt><trkpt lat="39.47654483" lon="-0.37968404"><ele>7.2</ele><time>2022-11-17T21:03:56.0000000+00:00</time></trkpt><trkpt lat="39.47654642" lon="-0.37968974"><ele>7.2</ele><time>2022-11-17T21:03:57.0000000+00:00</time></trkpt><trkpt lat="39.47653033" lon="-0.37968353"><ele>7.2</ele><time>2022-11-17T21:03:58.0000000+00:00</time></trkpt><trkpt lat="39.47652672" lon="-0.37968328"><ele>7.0</ele><time>2022-11-17T21:03:59.0000000+00:00</time></trkpt><trkpt lat="39.47652027" lon="-0.37967993"><ele>7.0</ele><time>2022-11-17T21:04:00.0000000+00:00</time></trkpt><trkpt lat="39.4765139" lon="-0.37968127"><ele>7.0</ele><time>2022-11-17T21:04:01.0000000+00:00</time></trkpt><trkpt lat="39.47651264" lon="-0.37968647"><ele>7.0</ele><time>2022-11-17T21:04:02.0000000+00:00</time></trkpt><trkpt lat="39.47653452" lon="-0.37970021"><ele>7.0</ele><time>2022-11-17T21:04:03.0000000+00:00</time></trkpt><trkpt lat="39.47653536" lon="-0.3797034"><ele>7.2</ele><time>2022-11-17T21:04:04.0000000+00:00</time></trkpt><trkpt lat="39.47654198" lon="-0.37971195"><ele>7.2</ele><time>2022-11-17T21:04:05.0000000+00:00</time></trkpt><trkpt lat="39.4765605" lon="-0.37972729"><ele>7.4</ele><time>2022-11-17T21:04:06.0000000+00:00</time></trkpt><trkpt lat="39.47656377" lon="-0.37973064"><ele>7.4</ele><time>2022-11-17T21:04:07.0000000+00:00</time></trkpt><trkpt lat="39.47654952" lon="-0.37972511"><ele>7.4</ele><time>2022-11-17T21:04:08.0000000+00:00</time></trkpt><trkpt lat="39.47652907" lon="-0.37971119"><ele>7.4</ele><time>2022-11-17T21:04:09.0000000+00:00</time></trkpt><trkpt lat="39.47651298" lon="-0.37970105"><ele>7.4</ele><time>2022-11-17T21:04:10.0000000+00:00</time></trkpt><trkpt lat="39.47650284" lon="-0.3796941"><ele>7.4</ele><time>2022-11-17T21:04:11.0000000+00:00</time></trkpt><trkpt lat="39.47650971" lon="-0.3797039"><ele>7.4</ele><time>2022-11-17T21:04:12.0000000+00:00</time></trkpt><trkpt lat="39.4765196" lon="-0.37971078"><ele>7.4</ele><time>2022-11-17T21:04:13.0000000+00:00</time></trkpt><trkpt lat="39.47652354" lon="-0.37971329"><ele>7.4</ele><time>2022-11-17T21:04:14.0000000+00:00</time></trkpt><trkpt lat="39.47652781" lon="-0.37971614"><ele>7.4</ele><time>2022-11-17T21:04:15.0000000+00:00</time></trkpt><trkpt lat="39.47652857" lon="-0.3797148"><ele>7.4</ele><time>2022-11-17T21:04:16.0000000+00:00</time></trkpt><trkpt lat="39.47653838" lon="-0.37972075"><ele>7.4</ele><time>2022-11-17T21:04:17.0000000+00:00</time></trkpt><trkpt lat="39.4765486" lon="-0.37972888"><ele>7.4</ele><time>2022-11-17T21:04:18.0000000+00:00</time></trkpt><trkpt lat="39.47656034" lon="-0.37973533"><ele>7.4</ele><time>2022-11-17T21:04:19.0000000+00:00</time></trkpt><trkpt lat="39.47656076" lon="-0.37973626"><ele>7.4</ele><time>2022-11-17T21:04:20.0000000+00:00</time></trkpt><trkpt lat="39.47655346" lon="-0.3797319"><ele>7.4</ele><time>2022-11-17T21:04:21.0000000+00:00</time></trkpt><trkpt lat="39.47654542" lon="-0.37972678"><ele>7.4</ele><time>2022-11-17T21:04:22.0000000+00:00</time></trkpt><trkpt lat="39.47655128" lon="-0.37973081"><ele>7.4</ele><time>2022-11-17T21:04:23.0000000+00:00</time></trkpt><trkpt lat="39.47655883" lon="-0.37974514"><ele>7.4</ele><time>2022-11-17T21:04:24.0000000+00:00</time></trkpt><trkpt lat="39.4765776" lon="-0.37975629"><ele>7.4</ele><time>2022-11-17T21:04:25.0000000+00:00</time></trkpt><trkpt lat="39.4765771" lon="-0.37975319"><ele>7.4</ele><time>2022-11-17T21:04:26.0000000+00:00</time></trkpt><trkpt lat="39.47657685" lon="-0.37974816"><ele>7.4</ele><time>2022-11-17T21:04:27.0000000+00:00</time></trkpt><trkpt lat="39.47656268" lon="-0.3797376"><ele>7.4</ele><time>2022-11-17T21:04:28.0000000+00:00</time></trkpt><trkpt lat="39.47655841" lon="-0.37973332"><ele>7.4</ele><time>2022-11-17T21:04:29.0000000+00:00</time></trkpt><trkpt lat="39.47656151" lon="-0.37973416"><ele>7.4</ele><time>2022-11-17T21:04:30.0000000+00:00</time></trkpt><trkpt lat="39.47656813" lon="-0.37973768"><ele>7.4</ele><time>2022-11-17T21:04:31.0000000+00:00</time></trkpt><trkpt lat="39.47657039" lon="-0.37973802"><ele>7.4</ele><time>2022-11-17T21:04:32.0000000+00:00</time></trkpt><trkpt lat="39.47656436" lon="-0.37973399"><ele>7.4</ele><time>2022-11-17T21:04:33.0000000+00:00</time></trkpt><trkpt lat="39.47656159" lon="-0.37973139"><ele>7.4</ele><time>2022-11-17T21:04:34.0000000+00:00</time></trkpt><trkpt lat="39.47653821" lon="-0.37971321"><ele>7.4</ele><time>2022-11-17T21:04:35.0000000+00:00</time></trkpt><trkpt lat="39.47652857" lon="-0.37970617"><ele>7.4</ele><time>2022-11-17T21:04:36.0000000+00:00</time></trkpt><trkpt lat="39.47652907" lon="-0.37970608"><ele>7.4</ele><time>2022-11-17T21:04:37.0000000+00:00</time></trkpt><trkpt lat="39.47653125" lon="-0.37970675"><ele>7.4</ele><time>2022-11-17T21:04:38.0000000+00:00</time></trkpt><trkpt lat="39.47654734" lon="-0.37971681"><ele>7.4</ele><time>2022-11-17T21:04:39.0000000+00:00</time></trkpt><trkpt lat="39.47654659" lon="-0.37971513"><ele>7.4</ele><time>2022-11-17T21:04:40.0000000+00:00</time></trkpt><trkpt lat="39.47653787" lon="-0.37970876"><ele>7.4</ele><time>2022-11-17T21:04:41.0000000+00:00</time></trkpt><trkpt lat="39.47653293" lon="-0.37970725"><ele>7.4</ele><time>2022-11-17T21:04:42.0000000+00:00</time></trkpt><trkpt lat="39.47652874" lon="-0.37970533"><ele>7.4</ele><time>2022-11-17T21:04:43.0000000+00:00</time></trkpt><trkpt lat="39.47653796" lon="-0.37971337"><ele>7.4</ele><time>2022-11-17T21:04:44.0000000+00:00</time></trkpt><trkpt lat="39.47653779" lon="-0.37971228"><ele>7.4</ele><time>2022-11-17T21:04:45.0000000+00:00</time></trkpt><trkpt lat="39.4765217" lon="-0.37970223"><ele>7.4</ele><time>2022-11-17T21:04:46.0000000+00:00</time></trkpt><trkpt lat="39.47652354" lon="-0.37970047"><ele>7.4</ele><time>2022-11-17T21:04:47.0000000+00:00</time></trkpt><trkpt lat="39.47652522" lon="-0.37970264"><ele>7.4</ele><time>2022-11-17T21:04:48.0000000+00:00</time></trkpt><trkpt lat="39.4765248" lon="-0.3797013"><ele>7.4</ele><time>2022-11-17T21:04:49.0000000+00:00</time></trkpt><trkpt lat="39.4765113" lon="-0.37969234"><ele>7.4</ele><time>2022-11-17T21:04:50.0000000+00:00</time></trkpt><trkpt lat="39.47649772" lon="-0.37968379"><ele>7.4</ele><time>2022-11-17T21:04:51.0000000+00:00</time></trkpt><trkpt lat="39.47648171" lon="-0.37967431"><ele>7.4</ele><time>2022-11-17T21:04:52.0000000+00:00</time></trkpt><trkpt lat="39.47646503" lon="-0.37966342"><ele>7.4</ele><time>2022-11-17T21:04:53.0000000+00:00</time></trkpt><trkpt lat="39.47644819" lon="-0.37965462"><ele>7.4</ele><time>2022-11-17T21:04:54.0000000+00:00</time></trkpt><trkpt lat="39.47646327" lon="-0.37965495"><ele>7.4</ele><time>2022-11-17T21:04:55.0000000+00:00</time></trkpt><trkpt lat="39.47647928" lon="-0.3796625"><ele>7.4</ele><time>2022-11-17T21:04:56.0000000+00:00</time></trkpt><trkpt lat="39.47648356" lon="-0.3796609"><ele>7.4</ele><time>2022-11-17T21:04:57.0000000+00:00</time></trkpt><trkpt lat="39.47648934" lon="-0.37966325"><ele>7.4</ele><time>2022-11-17T21:04:58.0000000+00:00</time></trkpt><trkpt lat="39.47649362" lon="-0.3796635"><ele>7.4</ele><time>2022-11-17T21:04:59.0000000+00:00</time></trkpt><trkpt lat="39.47649697" lon="-0.37966727"><ele>7.4</ele><time>2022-11-17T21:05:00.0000000+00:00</time></trkpt><trkpt lat="39.4765077" lon="-0.37967616"><ele>7.4</ele><time>2022-11-17T21:05:01.0000000+00:00</time></trkpt><trkpt lat="39.47651524" lon="-0.37968278"><ele>7.4</ele><time>2022-11-17T21:05:02.0000000+00:00</time></trkpt><trkpt lat="39.47651692" lon="-0.37968186"><ele>7.4</ele><time>2022-11-17T21:05:03.0000000+00:00</time></trkpt><trkpt lat="39.47650778" lon="-0.379677"><ele>7.4</ele><time>2022-11-17T21:05:04.0000000+00:00</time></trkpt><trkpt lat="39.47650527" lon="-0.37967507"><ele>7.4</ele><time>2022-11-17T21:05:05.0000000+00:00</time></trkpt><trkpt lat="39.47650334" lon="-0.37967381"><ele>7.4</ele><time>2022-11-17T21:05:06.0000000+00:00</time></trkpt><trkpt lat="39.47653729" lon="-0.37969016"><ele>7.4</ele><time>2022-11-17T21:05:07.0000000+00:00</time></trkpt><trkpt lat="39.476545" lon="-0.37969359"><ele>7.4</ele><time>2022-11-17T21:05:08.0000000+00:00</time></trkpt><trkpt lat="39.47655397" lon="-0.37969871"><ele>7.4</ele><time>2022-11-17T21:05:09.0000000+00:00</time></trkpt><trkpt lat="39.47656285" lon="-0.3797034"><ele>7.4</ele><time>2022-11-17T21:05:10.0000000+00:00</time></trkpt><trkpt lat="39.47657291" lon="-0.37970943"><ele>7.4</ele><time>2022-11-17T21:05:11.0000000+00:00</time></trkpt><trkpt lat="39.47658288" lon="-0.37971513"><ele>7.4</ele><time>2022-11-17T21:05:12.0000000+00:00</time></trkpt><trkpt lat="39.47656511" lon="-0.37969912"><ele>7.4</ele><time>2022-11-17T21:05:13.0000000+00:00</time></trkpt><trkpt lat="39.47654793" lon="-0.37968194"><ele>7.4</ele><time>2022-11-17T21:05:14.0000000+00:00</time></trkpt><trkpt lat="39.47652957" lon="-0.37966258"><ele>7.4</ele><time>2022-11-17T21:05:15.0000000+00:00</time></trkpt><trkpt lat="39.47649655" lon="-0.37962729"><ele>7.4</ele><time>2022-11-17T21:05:17.0000000+00:00</time></trkpt><trkpt lat="39.47649119" lon="-0.3796236"><ele>7.4</ele><time>2022-11-17T21:05:18.0000000+00:00</time></trkpt><trkpt lat="39.47648859" lon="-0.37961941"><ele>7.4</ele><time>2022-11-17T21:05:19.0000000+00:00</time></trkpt><trkpt lat="39.47647928" lon="-0.37961187"><ele>7.4</ele><time>2022-11-17T21:05:20.0000000+00:00</time></trkpt><trkpt lat="39.4764761" lon="-0.37961229"><ele>7.4</ele><time>2022-11-17T21:05:21.0000000+00:00</time></trkpt><trkpt lat="39.47647065" lon="-0.37961103"><ele>7.4</ele><time>2022-11-17T21:05:22.0000000+00:00</time></trkpt><trkpt lat="39.47649228" lon="-0.37962469"><ele>7.4</ele><time>2022-11-17T21:05:23.0000000+00:00</time></trkpt><trkpt lat="39.47649538" lon="-0.37963073"><ele>7.4</ele><time>2022-11-17T21:05:24.0000000+00:00</time></trkpt><trkpt lat="39.47649529" lon="-0.37963341"><ele>7.4</ele><time>2022-11-17T21:05:25.0000000+00:00</time></trkpt><trkpt lat="39.47648901" lon="-0.37963685"><ele>7.4</ele><time>2022-11-17T21:05:26.0000000+00:00</time></trkpt><trkpt lat="39.47647928" lon="-0.37963919"><ele>7.4</ele><time>2022-11-17T21:05:27.0000000+00:00</time></trkpt><trkpt lat="39.47650971" lon="-0.37966065"><ele>7.4</ele><time>2022-11-17T21:05:28.0000000+00:00</time></trkpt><trkpt lat="39.47650644" lon="-0.37966409"><ele>7.4</ele><time>2022-11-17T21:05:29.0000000+00:00</time></trkpt><trkpt lat="39.47647643" lon="-0.37965294"><ele>7.4</ele><time>2022-11-17T21:05:30.0000000+00:00</time></trkpt><trkpt lat="39.47646277" lon="-0.37964104"><ele>7.4</ele><time>2022-11-17T21:05:31.0000000+00:00</time></trkpt><trkpt lat="39.47643855" lon="-0.37962251"><ele>7.4</ele><time>2022-11-17T21:05:32.0000000+00:00</time></trkpt><trkpt lat="39.47641307" lon="-0.37960659"><ele>7.4</ele><time>2022-11-17T21:05:33.0000000+00:00</time></trkpt><trkpt lat="39.47639731" lon="-0.37959728"><ele>7.4</ele><time>2022-11-17T21:05:34.0000000+00:00</time></trkpt><trkpt lat="39.47639412" lon="-0.37959494"><ele>7.4</ele><time>2022-11-17T21:05:35.0000000+00:00</time></trkpt><trkpt lat="39.4763865" lon="-0.37959016"><ele>7.4</ele><time>2022-11-17T21:05:36.0000000+00:00</time></trkpt><trkpt lat="39.47637015" lon="-0.3795796"><ele>7.4</ele><time>2022-11-17T21:05:37.0000000+00:00</time></trkpt><trkpt lat="39.47637334" lon="-0.37958178"><ele>7.4</ele><time>2022-11-17T21:05:38.0000000+00:00</time></trkpt><trkpt lat="39.47637124" lon="-0.37958052"><ele>7.4</ele><time>2022-11-17T21:05:39.0000000+00:00</time></trkpt><trkpt lat="39.47637015" lon="-0.37958119"><ele>7.4</ele><time>2022-11-17T21:05:40.0000000+00:00</time></trkpt><trkpt lat="39.47637199" lon="-0.37958127"><ele>7.4</ele><time>2022-11-17T21:05:42.0000000+00:00</time></trkpt><trkpt lat="39.47636973" lon="-0.37958136"><ele>7.4</ele><time>2022-11-17T21:05:43.0000000+00:00</time></trkpt><trkpt lat="39.47638205" lon="-0.37959661"><ele>7.4</ele><time>2022-11-17T21:05:45.0000000+00:00</time></trkpt><trkpt lat="39.47639035" lon="-0.37960592"><ele>7.4</ele><time>2022-11-17T21:05:46.0000000+00:00</time></trkpt><trkpt lat="39.47641952" lon="-0.37962402"><ele>7.4</ele><time>2022-11-17T21:05:47.0000000+00:00</time></trkpt><trkpt lat="39.47643461" lon="-0.37963727"><ele>7.4</ele><time>2022-11-17T21:05:48.0000000+00:00</time></trkpt><trkpt lat="39.47646059" lon="-0.37965177"><ele>7.4</ele><time>2022-11-17T21:05:49.0000000+00:00</time></trkpt><trkpt lat="39.47647191" lon="-0.37965898"><ele>7.4</ele><time>2022-11-17T21:05:50.0000000+00:00</time></trkpt><trkpt lat="39.47647794" lon="-0.37966912"><ele>7.4</ele><time>2022-11-17T21:05:51.0000000+00:00</time></trkpt><trkpt lat="39.47646621" lon="-0.379663"><ele>7.4</ele><time>2022-11-17T21:05:52.0000000+00:00</time></trkpt><trkpt lat="39.47646621" lon="-0.37965906"><ele>7.4</ele><time>2022-11-17T21:05:53.0000000+00:00</time></trkpt><trkpt lat="39.47642639" lon="-0.37964732"><ele>7.4</ele><time>2022-11-17T21:05:54.0000000+00:00</time></trkpt><trkpt lat="39.47642312" lon="-0.37964665"><ele>7.4</ele><time>2022-11-17T21:05:55.0000000+00:00</time></trkpt><trkpt lat="39.47647618" lon="-0.37968563"><ele>7.4</ele><time>2022-11-17T21:05:56.0000000+00:00</time></trkpt><trkpt lat="39.47648708" lon="-0.37969594"><ele>7.4</ele><time>2022-11-17T21:05:57.0000000+00:00</time></trkpt><trkpt lat="39.47649588" lon="-0.3797013"><ele>7.4</ele><time>2022-11-17T21:05:58.0000000+00:00</time></trkpt><trkpt lat="39.47647157" lon="-0.37967851"><ele>7.4</ele><time>2022-11-17T21:05:59.0000000+00:00</time></trkpt><trkpt lat="39.47646998" lon="-0.37967297"><ele>7.4</ele><time>2022-11-17T21:06:00.0000000+00:00</time></trkpt><trkpt lat="39.47646814" lon="-0.3796656"><ele>7.4</ele><time>2022-11-17T21:06:01.0000000+00:00</time></trkpt><trkpt lat="39.47648917" lon="-0.37966928"><ele>7.4</ele><time>2022-11-17T21:06:02.0000000+00:00</time></trkpt><trkpt lat="39.47648364" lon="-0.37965805"><ele>7.4</ele><time>2022-11-17T21:06:03.0000000+00:00</time></trkpt><trkpt lat="39.47647526" lon="-0.37964297"><ele>7.4</ele><time>2022-11-17T21:06:04.0000000+00:00</time></trkpt><trkpt lat="39.47646922" lon="-0.37963165"><ele>7.4</ele><time>2022-11-17T21:06:05.0000000+00:00</time></trkpt><trkpt lat="39.47644425" lon="-0.37961254"><ele>7.4</ele><time>2022-11-17T21:06:06.0000000+00:00</time></trkpt><trkpt lat="39.47643343" lon="-0.37960944"><ele>7.4</ele><time>2022-11-17T21:06:07.0000000+00:00</time></trkpt><trkpt lat="39.47641625" lon="-0.37959552"><ele>7.4</ele><time>2022-11-17T21:06:08.0000000+00:00</time></trkpt><trkpt lat="39.47641541" lon="-0.37959158"><ele>7.4</ele><time>2022-11-17T21:06:09.0000000+00:00</time></trkpt><trkpt lat="39.47642832" lon="-0.37960131"><ele>7.4</ele><time>2022-11-17T21:06:10.0000000+00:00</time></trkpt><trkpt lat="39.47643796" lon="-0.37961355"><ele>7.4</ele><time>2022-11-17T21:06:11.0000000+00:00</time></trkpt><trkpt lat="39.47639429" lon="-0.37957666"><ele>7.4</ele><time>2022-11-17T21:06:12.0000000+00:00</time></trkpt><trkpt lat="39.47634853" lon="-0.37953844"><ele>7.4</ele><time>2022-11-17T21:06:13.0000000+00:00</time></trkpt><trkpt lat="39.4763207" lon="-0.37951347"><ele>7.4</ele><time>2022-11-17T21:06:14.0000000+00:00</time></trkpt><trkpt lat="39.47633696" lon="-0.37951456"><ele>7.4</ele><time>2022-11-17T21:06:15.0000000+00:00</time></trkpt><trkpt lat="39.47632606" lon="-0.3795071"><ele>7.4</ele><time>2022-11-17T21:06:16.0000000+00:00</time></trkpt><trkpt lat="39.47631785" lon="-0.3794993"><ele>7.4</ele><time>2022-11-17T21:06:17.0000000+00:00</time></trkpt><trkpt lat="39.47638893" lon="-0.37953266"><ele>7.4</ele><time>2022-11-17T21:06:18.0000000+00:00</time></trkpt><trkpt lat="39.47643922" lon="-0.37955881"><ele>7.4</ele><time>2022-11-17T21:06:19.0000000+00:00</time></trkpt><trkpt lat="39.47647694" lon="-0.37957038"><ele>7.4</ele><time>2022-11-17T21:06:20.0000000+00:00</time></trkpt><trkpt lat="39.47651507" lon="-0.37959988"><ele>7.4</ele><time>2022-11-17T21:06:21.0000000+00:00</time></trkpt><trkpt lat="39.47653175" lon="-0.3796169"><ele>7.4</ele><time>2022-11-17T21:06:22.0000000+00:00</time></trkpt><trkpt lat="39.47656168" lon="-0.37966384"><ele>7.4</ele><time>2022-11-17T21:06:23.0000000+00:00</time></trkpt><trkpt lat="39.47657551" lon="-0.3796842"><ele>7.4</ele><time>2022-11-17T21:06:24.0000000+00:00</time></trkpt><trkpt lat="39.47658733" lon="-0.37969669"><ele>7.4</ele><time>2022-11-17T21:06:25.0000000+00:00</time></trkpt><trkpt lat="39.47660317" lon="-0.37972109"><ele>7.4</ele><time>2022-11-17T21:06:26.0000000+00:00</time></trkpt><trkpt lat="39.47663611" lon="-0.37974967"><ele>7.4</ele><time>2022-11-17T21:06:27.0000000+00:00</time></trkpt><trkpt lat="39.4766641" lon="-0.37976358"><ele>7.4</ele><time>2022-11-17T21:06:28.0000000+00:00</time></trkpt><trkpt lat="39.47667961" lon="-0.3797697"><ele>7.4</ele><time>2022-11-17T21:06:29.0000000+00:00</time></trkpt><trkpt lat="39.47667584" lon="-0.37976601"><ele>7.4</ele><time>2022-11-17T21:06:30.0000000+00:00</time></trkpt><trkpt lat="39.47666645" lon="-0.37975428"><ele>7.4</ele><time>2022-11-17T21:06:31.0000000+00:00</time></trkpt><trkpt lat="39.47665857" lon="-0.3797443"><ele>7.4</ele><time>2022-11-17T21:06:32.0000000+00:00</time></trkpt><trkpt lat="39.4766517" lon="-0.37973542"><ele>7.4</ele><time>2022-11-17T21:06:33.0000000+00:00</time></trkpt><trkpt lat="39.47662965" lon="-0.37970826"><ele>7.4</ele><time>2022-11-17T21:06:35.0000000+00:00</time></trkpt><trkpt lat="39.4766108" lon="-0.37969426"><ele>7.4</ele><time>2022-11-17T21:06:36.0000000+00:00</time></trkpt><trkpt lat="39.4765942" lon="-0.37967993"><ele>7.4</ele><time>2022-11-17T21:06:37.0000000+00:00</time></trkpt><trkpt lat="39.47658431" lon="-0.37967448"><ele>7.4</ele><time>2022-11-17T21:06:38.0000000+00:00</time></trkpt><trkpt lat="39.47657576" lon="-0.37966786"><ele>7.4</ele><time>2022-11-17T21:06:39.0000000+00:00</time></trkpt><trkpt lat="39.47657115" lon="-0.37966426"><ele>7.4</ele><time>2022-11-17T21:06:40.0000000+00:00</time></trkpt><trkpt lat="39.47629932" lon="-0.37978755"><ele>6.8</ele><time>2022-11-17T21:07:32.0000000+00:00</time></trkpt><trkpt lat="39.47642564" lon="-0.37991295"><ele>6.6</ele><time>2022-11-17T21:07:34.0000000+00:00</time></trkpt><trkpt lat="39.47643947" lon="-0.38005519"><ele>6.6</ele><time>2022-11-17T21:07:38.0000000+00:00</time></trkpt><trkpt lat="39.4763528" lon="-0.38011009"><ele>6.6</ele><time>2022-11-17T21:07:41.0000000+00:00</time></trkpt><trkpt lat="39.47633822" lon="-0.38011302"><ele>6.6</ele><time>2022-11-17T21:07:42.0000000+00:00</time></trkpt><trkpt lat="39.47630016" lon="-0.38006466"><ele>6.6</ele><time>2022-11-17T21:07:43.0000000+00:00</time></trkpt><trkpt lat="39.47638038" lon="-0.38007363"><ele>6.6</ele><time>2022-11-17T21:07:47.0000000+00:00</time></trkpt><trkpt lat="39.47641726" lon="-0.38009442"><ele>6.6</ele><time>2022-11-17T21:07:48.0000000+00:00</time></trkpt><trkpt lat="39.47643335" lon="-0.38011948"><ele>6.6</ele><time>2022-11-17T21:07:49.0000000+00:00</time></trkpt><trkpt lat="39.4764222" lon="-0.3801199"><ele>6.8</ele><time>2022-11-17T21:07:50.0000000+00:00</time></trkpt><trkpt lat="39.47642103" lon="-0.38011076"><ele>6.8</ele><time>2022-11-17T21:07:51.0000000+00:00</time></trkpt><trkpt lat="39.47648473" lon="-0.38012878"><ele>6.8</ele><time>2022-11-17T21:07:52.0000000+00:00</time></trkpt><trkpt lat="39.47650066" lon="-0.38014881"><ele>6.8</ele><time>2022-11-17T21:07:53.0000000+00:00</time></trkpt><trkpt lat="39.47651566" lon="-0.38013163"><ele>6.6</ele><time>2022-11-17T21:07:54.0000000+00:00</time></trkpt><trkpt lat="39.47652354" lon="-0.3801204"><ele>6.6</ele><time>2022-11-17T21:07:55.0000000+00:00</time></trkpt><trkpt lat="39.47650761" lon="-0.38011327"><ele>6.4</ele><time>2022-11-17T21:07:56.0000000+00:00</time></trkpt><trkpt lat="39.47649898" lon="-0.38011705"><ele>6.2</ele><time>2022-11-17T21:07:57.0000000+00:00</time></trkpt><trkpt lat="39.47648012" lon="-0.38011411"><ele>6.2</ele><time>2022-11-17T21:07:58.0000000+00:00</time></trkpt><trkpt lat="39.4764559" lon="-0.38010313"><ele>6.2</ele><time>2022-11-17T21:07:59.0000000+00:00</time></trkpt><trkpt lat="39.47644039" lon="-0.38009835"><ele>6.2</ele><time>2022-11-17T21:08:00.0000000+00:00</time></trkpt><trkpt lat="39.47642103" lon="-0.38008989"><ele>6.2</ele><time>2022-11-17T21:08:01.0000000+00:00</time></trkpt><trkpt lat="39.47639194" lon="-0.38007849"><ele>6.2</ele><time>2022-11-17T21:08:02.0000000+00:00</time></trkpt><trkpt lat="39.47637107" lon="-0.38006818"><ele>6.2</ele><time>2022-11-17T21:08:03.0000000+00:00</time></trkpt><trkpt lat="39.47636973" lon="-0.38007505"><ele>6.2</ele><time>2022-11-17T21:08:04.0000000+00:00</time></trkpt><trkpt lat="39.47638046" lon="-0.38008872"><ele>6.2</ele><time>2022-11-17T21:08:05.0000000+00:00</time></trkpt><trkpt lat="39.47638038" lon="-0.38010045"><ele>6.2</ele><time>2022-11-17T21:08:06.0000000+00:00</time></trkpt><trkpt lat="39.47638398" lon="-0.38010841"><ele>6.4</ele><time>2022-11-17T21:08:07.0000000+00:00</time></trkpt><trkpt lat="39.4763818" lon="-0.38012241"><ele>6.4</ele><time>2022-11-17T21:08:08.0000000+00:00</time></trkpt><trkpt lat="39.47637753" lon="-0.38014764"><ele>6.4</ele><time>2022-11-17T21:08:09.0000000+00:00</time></trkpt><trkpt lat="39.47637409" lon="-0.38016885"><ele>6.4</ele><time>2022-11-17T21:08:10.0000000+00:00</time></trkpt><trkpt lat="39.47637686" lon="-0.38018653"><ele>6.4</ele><time>2022-11-17T21:08:11.0000000+00:00</time></trkpt><trkpt lat="39.47637878" lon="-0.38020087"><ele>6.4</ele><time>2022-11-17T21:08:12.0000000+00:00</time></trkpt><trkpt lat="39.47638046" lon="-0.38019299"><ele>6.4</ele><time>2022-11-17T21:08:13.0000000+00:00</time></trkpt><trkpt lat="39.47637359" lon="-0.38018662"><ele>6.4</ele><time>2022-11-17T21:08:14.0000000+00:00</time></trkpt><trkpt lat="39.47635775" lon="-0.38019181"><ele>6.4</ele><time>2022-11-17T21:08:15.0000000+00:00</time></trkpt><trkpt lat="39.47634232" lon="-0.38019743"><ele>6.4</ele><time>2022-11-17T21:08:16.0000000+00:00</time></trkpt><trkpt lat="39.47632598" lon="-0.38019793"><ele>6.2</ele><time>2022-11-17T21:08:17.0000000+00:00</time></trkpt><trkpt lat="39.47630578" lon="-0.3802043"><ele>6.2</ele><time>2022-11-17T21:08:18.0000000+00:00</time></trkpt><trkpt lat="39.47628533" lon="-0.38019961"><ele>6.2</ele><time>2022-11-17T21:08:19.0000000+00:00</time></trkpt><trkpt lat="39.47627183" lon="-0.38018335"><ele>6.0</ele><time>2022-11-17T21:08:20.0000000+00:00</time></trkpt><trkpt lat="39.4762585" lon="-0.38016164"><ele>5.8</ele><time>2022-11-17T21:08:21.0000000+00:00</time></trkpt><trkpt lat="39.47624216" lon="-0.38014261"><ele>5.6</ele><time>2022-11-17T21:08:22.0000000+00:00</time></trkpt><trkpt lat="39.47622028" lon="-0.38013574"><ele>5.6</ele><time>2022-11-17T21:08:23.0000000+00:00</time></trkpt><trkpt lat="39.47621743" lon="-0.38013331"><ele>5.4</ele><time>2022-11-17T21:08:24.0000000+00:00</time></trkpt><trkpt lat="39.476201" lon="-0.38011579"><ele>5.4</ele><time>2022-11-17T21:08:25.0000000+00:00</time></trkpt><trkpt lat="39.47619597" lon="-0.38010045"><ele>5.2</ele><time>2022-11-17T21:08:26.0000000+00:00</time></trkpt><trkpt lat="39.47619111" lon="-0.38008184"><ele>5.2</ele><time>2022-11-17T21:08:27.0000000+00:00</time></trkpt><trkpt lat="39.47619866" lon="-0.38008343"><ele>5.0</ele><time>2022-11-17T21:08:28.0000000+00:00</time></trkpt><trkpt lat="39.476214" lon="-0.38008746"><ele>5.0</ele><time>2022-11-17T21:08:29.0000000+00:00</time></trkpt><trkpt lat="39.47618675" lon="-0.38010481"><ele>5.0</ele><time>2022-11-17T21:08:30.0000000+00:00</time></trkpt><trkpt lat="39.47617049" lon="-0.38010498"><ele>5.0</ele><time>2022-11-17T21:08:31.0000000+00:00</time></trkpt><trkpt lat="39.4761492" lon="-0.38009643"><ele>5.0</ele><time>2022-11-17T21:08:32.0000000+00:00</time></trkpt><trkpt lat="39.4761347" lon="-0.38009995"><ele>5.0</ele><time>2022-11-17T21:08:33.0000000+00:00</time></trkpt><trkpt lat="39.47614099" lon="-0.38009492"><ele>5.0</ele><time>2022-11-17T21:08:34.0000000+00:00</time></trkpt><trkpt lat="39.47614619" lon="-0.38009777"><ele>5.2</ele><time>2022-11-17T21:08:35.0000000+00:00</time></trkpt><trkpt lat="39.47614778" lon="-0.38009877"><ele>5.2</ele><time>2022-11-17T21:08:36.0000000+00:00</time></trkpt><trkpt lat="39.47613998" lon="-0.38009919"><ele>5.2</ele><time>2022-11-17T21:08:37.0000000+00:00</time></trkpt><trkpt lat="39.4761477" lon="-0.38008855"><ele>5.2</ele><time>2022-11-17T21:08:38.0000000+00:00</time></trkpt><trkpt lat="39.47614719" lon="-0.38008578"><ele>5.2</ele><time>2022-11-17T21:08:39.0000000+00:00</time></trkpt><trkpt lat="39.4761487" lon="-0.38008402"><ele>5.2</ele><time>2022-11-17T21:08:40.0000000+00:00</time></trkpt><trkpt lat="39.47614845" lon="-0.38007271"><ele>5.2</ele><time>2022-11-17T21:08:41.0000000+00:00</time></trkpt><trkpt lat="39.47614401" lon="-0.3800598"><ele>5.2</ele><time>2022-11-17T21:08:42.0000000+00:00</time></trkpt><trkpt lat="39.47613118" lon="-0.38004706"><ele>5.2</ele><time>2022-11-17T21:08:43.0000000+00:00</time></trkpt><trkpt lat="39.47611165" lon="-0.38006801"><ele>5.2</ele><time>2022-11-17T21:08:44.0000000+00:00</time></trkpt><trkpt lat="39.47610143" lon="-0.38007103"><ele>5.2</ele><time>2022-11-17T21:08:45.0000000+00:00</time></trkpt><trkpt lat="39.47609766" lon="-0.38007153"><ele>5.2</ele><time>2022-11-17T21:08:46.0000000+00:00</time></trkpt><trkpt lat="39.47608701" lon="-0.38007933"><ele>5.2</ele><time>2022-11-17T21:08:47.0000000+00:00</time></trkpt><trkpt lat="39.47608475" lon="-0.38008369"><ele>5.0</ele><time>2022-11-17T21:08:48.0000000+00:00</time></trkpt><trkpt lat="39.47609003" lon="-0.38007396"><ele>5.0</ele><time>2022-11-17T21:08:49.0000000+00:00</time></trkpt><trkpt lat="39.47608525" lon="-0.38009148"><ele>5.0</ele><time>2022-11-17T21:08:50.0000000+00:00</time></trkpt><trkpt lat="39.47608626" lon="-0.38009835"><ele>5.0</ele><time>2022-11-17T21:08:51.0000000+00:00</time></trkpt><trkpt lat="39.47605549" lon="-0.3801489"><ele>5.0</ele><time>2022-11-17T21:08:52.0000000+00:00</time></trkpt><trkpt lat="39.47597059" lon="-0.38038602"><ele>5.0</ele><time>2022-11-17T21:08:55.0000000+00:00</time></trkpt><trkpt lat="39.47598685" lon="-0.38031863"><ele>5.0</ele><time>2022-11-17T21:08:56.0000000+00:00</time></trkpt><trkpt lat="39.47600076" lon="-0.38031503"><ele>5.0</ele><time>2022-11-17T21:08:57.0000000+00:00</time></trkpt><trkpt lat="39.47601015" lon="-0.38030706"><ele>5.2</ele><time>2022-11-17T21:08:58.0000000+00:00</time></trkpt><trkpt lat="39.47602046" lon="-0.38030673"><ele>5.2</ele><time>2022-11-17T21:08:59.0000000+00:00</time></trkpt><trkpt lat="39.47602741" lon="-0.38029382"><ele>5.2</ele><time>2022-11-17T21:09:00.0000000+00:00</time></trkpt><trkpt lat="39.4760311" lon="-0.38028753"><ele>5.2</ele><time>2022-11-17T21:09:01.0000000+00:00</time></trkpt><trkpt lat="39.47601602" lon="-0.38029072"><ele>5.2</ele><time>2022-11-17T21:09:02.0000000+00:00</time></trkpt><trkpt lat="39.47600881" lon="-0.38028686"><ele>5.2</ele><time>2022-11-17T21:09:03.0000000+00:00</time></trkpt><trkpt lat="39.47598777" lon="-0.38028142"><ele>5.0</ele><time>2022-11-17T21:09:05.0000000+00:00</time></trkpt><trkpt lat="39.4759959" lon="-0.38026113"><ele>5.0</ele><time>2022-11-17T21:09:06.0000000+00:00</time></trkpt><trkpt lat="39.47601543" lon="-0.38023875"><ele>5.0</ele><time>2022-11-17T21:09:07.0000000+00:00</time></trkpt><trkpt lat="39.47605927" lon="-0.38019123"><ele>5.0</ele><time>2022-11-17T21:09:09.0000000+00:00</time></trkpt><trkpt lat="39.47606564" lon="-0.38017203"><ele>5.0</ele><time>2022-11-17T21:09:10.0000000+00:00</time></trkpt><trkpt lat="39.4760679" lon="-0.38016767"><ele>5.0</ele><time>2022-11-17T21:09:11.0000000+00:00</time></trkpt><trkpt lat="39.47606932" lon="-0.38016457"><ele>5.0</ele><time>2022-11-17T21:09:12.0000000+00:00</time></trkpt><trkpt lat="39.47607067" lon="-0.38016382"><ele>5.0</ele><time>2022-11-17T21:09:13.0000000+00:00</time></trkpt><trkpt lat="39.47606463" lon="-0.38018779"><ele>5.0</ele><time>2022-11-17T21:09:14.0000000+00:00</time></trkpt><trkpt lat="39.47606522" lon="-0.38020355"><ele>5.0</ele><time>2022-11-17T21:09:15.0000000+00:00</time></trkpt><trkpt lat="39.47607553" lon="-0.3802121"><ele>5.0</ele><time>2022-11-17T21:09:16.0000000+00:00</time></trkpt><trkpt lat="39.47607268" lon="-0.38022182"><ele>5.2</ele><time>2022-11-17T21:09:17.0000000+00:00</time></trkpt><trkpt lat="39.47607377" lon="-0.38023062"><ele>5.2</ele><time>2022-11-17T21:09:18.0000000+00:00</time></trkpt><trkpt lat="39.47605717" lon="-0.38026566"><ele>5.2</ele><time>2022-11-17T21:09:20.0000000+00:00</time></trkpt><trkpt lat="39.47603529" lon="-0.38029684"><ele>5.2</ele><time>2022-11-17T21:09:21.0000000+00:00</time></trkpt><trkpt lat="39.47601291" lon="-0.38031695"><ele>5.2</ele><time>2022-11-17T21:09:22.0000000+00:00</time></trkpt><trkpt lat="39.47601317" lon="-0.38025342"><ele>5.2</ele><time>2022-11-17T21:09:23.0000000+00:00</time></trkpt><trkpt lat="39.47601836" lon="-0.38022819"><ele>5.2</ele><time>2022-11-17T21:09:24.0000000+00:00</time></trkpt><trkpt lat="39.47601166" lon="-0.38021729"><ele>5.2</ele><time>2022-11-17T21:09:25.0000000+00:00</time></trkpt><trkpt lat="39.47600788" lon="-0.38020229"><ele>5.2</ele><time>2022-11-17T21:09:26.0000000+00:00</time></trkpt><trkpt lat="39.4760073" lon="-0.38019374"><ele>5.2</ele><time>2022-11-17T21:09:27.0000000+00:00</time></trkpt><trkpt lat="39.47600277" lon="-0.38020229"><ele>5.2</ele><time>2022-11-17T21:09:28.0000000+00:00</time></trkpt><trkpt lat="39.47599581" lon="-0.38020087"><ele>5.2</ele><time>2022-11-17T21:09:29.0000000+00:00</time></trkpt><trkpt lat="39.4759897" lon="-0.38019978"><ele>5.2</ele><time>2022-11-17T21:09:30.0000000+00:00</time></trkpt><trkpt lat="39.47598282" lon="-0.38020841"><ele>5.2</ele><time>2022-11-17T21:09:31.0000000+00:00</time></trkpt><trkpt lat="39.47597897" lon="-0.38020833"><ele>5.2</ele><time>2022-11-17T21:09:32.0000000+00:00</time></trkpt><trkpt lat="39.47597779" lon="-0.38020078"><ele>5.2</ele><time>2022-11-17T21:09:33.0000000+00:00</time></trkpt><trkpt lat="39.47598098" lon="-0.38016742"><ele>5.2</ele><time>2022-11-17T21:09:34.0000000+00:00</time></trkpt><trkpt lat="39.4759793" lon="-0.38017203"><ele>5.2</ele><time>2022-11-17T21:09:35.0000000+00:00</time></trkpt><trkpt lat="39.47597478" lon="-0.3801831"><ele>5.2</ele><time>2022-11-17T21:09:36.0000000+00:00</time></trkpt><trkpt lat="39.47597302" lon="-0.38018025"><ele>5.2</ele><time>2022-11-17T21:09:37.0000000+00:00</time></trkpt><trkpt lat="39.47597218" lon="-0.38018511"><ele>5.2</ele><time>2022-11-17T21:09:38.0000000+00:00</time></trkpt><trkpt lat="39.47597394" lon="-0.38018251"><ele>5.2</ele><time>2022-11-17T21:09:39.0000000+00:00</time></trkpt><trkpt lat="39.47595676" lon="-0.38021721"><ele>5.2</ele><time>2022-11-17T21:09:40.0000000+00:00</time></trkpt><trkpt lat="39.47593681" lon="-0.38024051"><ele>5.2</ele><time>2022-11-17T21:09:41.0000000+00:00</time></trkpt><trkpt lat="39.47592893" lon="-0.38023423"><ele>5.2</ele><time>2022-11-17T21:09:42.0000000+00:00</time></trkpt><trkpt lat="39.47593479" lon="-0.38023079"><ele>5.2</ele><time>2022-11-17T21:09:43.0000000+00:00</time></trkpt><trkpt lat="39.4759436" lon="-0.38022752"><ele>5.2</ele><time>2022-11-17T21:09:44.0000000+00:00</time></trkpt><trkpt lat="39.47595248" lon="-0.38018913"><ele>5.2</ele><time>2022-11-17T21:09:45.0000000+00:00</time></trkpt><trkpt lat="39.47595466" lon="-0.38019198"><ele>5.2</ele><time>2022-11-17T21:09:46.0000000+00:00</time></trkpt><trkpt lat="39.47596011" lon="-0.38018745"><ele>5.2</ele><time>2022-11-17T21:09:47.0000000+00:00</time></trkpt><trkpt lat="39.47596849" lon="-0.38017069"><ele>5.2</ele><time>2022-11-17T21:09:48.0000000+00:00</time></trkpt><trkpt lat="39.4759674" lon="-0.38017823"><ele>5.4</ele><time>2022-11-17T21:09:49.0000000+00:00</time></trkpt><trkpt lat="39.47596036" lon="-0.38018561"><ele>5.4</ele><time>2022-11-17T21:09:50.0000000+00:00</time></trkpt><trkpt lat="39.47595625" lon="-0.3802012"><ele>5.4</ele><time>2022-11-17T21:09:51.0000000+00:00</time></trkpt><trkpt lat="39.47595449" lon="-0.38019919"><ele>5.4</ele><time>2022-11-17T21:09:52.0000000+00:00</time></trkpt><trkpt lat="39.47595315" lon="-0.38020246"><ele>5.4</ele><time>2022-11-17T21:09:53.0000000+00:00</time></trkpt><trkpt lat="39.47595374" lon="-0.38019902"><ele>5.4</ele><time>2022-11-17T21:09:54.0000000+00:00</time></trkpt><trkpt lat="39.47595575" lon="-0.38019911"><ele>5.2</ele><time>2022-11-17T21:09:55.0000000+00:00</time></trkpt><trkpt lat="39.47595617" lon="-0.38019994"><ele>5.2</ele><time>2022-11-17T21:09:56.0000000+00:00</time></trkpt><trkpt lat="39.47595382" lon="-0.38020782"><ele>5.0</ele><time>2022-11-17T21:09:57.0000000+00:00</time></trkpt><trkpt lat="39.47595248" lon="-0.38020807"><ele>5.0</ele><time>2022-11-17T21:09:58.0000000+00:00</time></trkpt><trkpt lat="39.47595147" lon="-0.38021361"><ele>5.0</ele><time>2022-11-17T21:09:59.0000000+00:00</time></trkpt><trkpt lat="39.47594896" lon="-0.380224"><ele>5.0</ele><time>2022-11-17T21:10:00.0000000+00:00</time></trkpt><trkpt lat="39.47593857" lon="-0.3802639"><ele>5.0</ele><time>2022-11-17T21:10:01.0000000+00:00</time></trkpt><trkpt lat="39.47592993" lon="-0.38028963"><ele>5.0</ele><time>2022-11-17T21:10:02.0000000+00:00</time></trkpt><trkpt lat="39.47591753" lon="-0.38032265"><ele>5.0</ele><time>2022-11-17T21:10:03.0000000+00:00</time></trkpt><trkpt lat="39.47592725" lon="-0.38027379"><ele>5.0</ele><time>2022-11-17T21:10:04.0000000+00:00</time></trkpt><trkpt lat="39.47593337" lon="-0.3802608"><ele>5.0</ele><time>2022-11-17T21:10:05.0000000+00:00</time></trkpt><trkpt lat="39.47593672" lon="-0.38025702"><ele>5.0</ele><time>2022-11-17T21:10:06.0000000+00:00</time></trkpt><trkpt lat="39.47593161" lon="-0.38029893"><ele>5.0</ele><time>2022-11-17T21:10:07.0000000+00:00</time></trkpt><trkpt lat="39.47591837" lon="-0.38038963"><ele>5.0</ele><time>2022-11-17T21:10:08.0000000+00:00</time></trkpt><trkpt lat="39.47590957" lon="-0.38041729"><ele>5.0</ele><time>2022-11-17T21:10:09.0000000+00:00</time></trkpt><trkpt lat="39.47590873" lon="-0.38039843"><ele>5.0</ele><time>2022-11-17T21:10:10.0000000+00:00</time></trkpt><trkpt lat="39.47591283" lon="-0.38038133"><ele>5.0</ele><time>2022-11-17T21:10:11.0000000+00:00</time></trkpt><trkpt lat="39.4759151" lon="-0.38038057"><ele>5.0</ele><time>2022-11-17T21:10:12.0000000+00:00</time></trkpt><trkpt lat="39.47591987" lon="-0.38038066"><ele>5.0</ele><time>2022-11-17T21:10:13.0000000+00:00</time></trkpt><trkpt lat="39.4759239" lon="-0.38037714"><ele>5.0</ele><time>2022-11-17T21:10:14.0000000+00:00</time></trkpt><trkpt lat="39.47593052" lon="-0.38036088"><ele>5.0</ele><time>2022-11-17T21:10:15.0000000+00:00</time></trkpt><trkpt lat="39.47594091" lon="-0.38033774"><ele>5.0</ele><time>2022-11-17T21:10:16.0000000+00:00</time></trkpt><trkpt lat="39.47593655" lon="-0.38033523"><ele>5.0</ele><time>2022-11-17T21:10:17.0000000+00:00</time></trkpt><trkpt lat="39.47593907" lon="-0.38032567"><ele>5.0</ele><time>2022-11-17T21:10:18.0000000+00:00</time></trkpt><trkpt lat="39.47593999" lon="-0.3803131"><ele>5.0</ele><time>2022-11-17T21:10:19.0000000+00:00</time></trkpt><trkpt lat="39.475942" lon="-0.38030363"><ele>5.0</ele><time>2022-11-17T21:10:20.0000000+00:00</time></trkpt><trkpt lat="39.47593999" lon="-0.38030514"><ele>5.0</ele><time>2022-11-17T21:10:21.0000000+00:00</time></trkpt><trkpt lat="39.47594225" lon="-0.3803048"><ele>5.0</ele><time>2022-11-17T21:10:22.0000000+00:00</time></trkpt><trkpt lat="39.47593974" lon="-0.38031058"><ele>5.0</ele><time>2022-11-17T21:10:23.0000000+00:00</time></trkpt><trkpt lat="39.47593924" lon="-0.38031109"><ele>5.0</ele><time>2022-11-17T21:10:24.0000000+00:00</time></trkpt><trkpt lat="39.47594234" lon="-0.38031503"><ele>5.0</ele><time>2022-11-17T21:10:25.0000000+00:00</time></trkpt><trkpt lat="39.4759415" lon="-0.38031771"><ele>5.0</ele><time>2022-11-17T21:10:26.0000000+00:00</time></trkpt><trkpt lat="39.47593588" lon="-0.38032467"><ele>5.0</ele><time>2022-11-17T21:10:27.0000000+00:00</time></trkpt><trkpt lat="39.47592742" lon="-0.38034076"><ele>5.0</ele><time>2022-11-17T21:10:28.0000000+00:00</time></trkpt><trkpt lat="39.47592759" lon="-0.38034252"><ele>5.0</ele><time>2022-11-17T21:10:29.0000000+00:00</time></trkpt><trkpt lat="39.47592901" lon="-0.3803395"><ele>5.0</ele><time>2022-11-17T21:10:30.0000000+00:00</time></trkpt><trkpt lat="39.47593706" lon="-0.38033422"><ele>5.0</ele><time>2022-11-17T21:10:31.0000000+00:00</time></trkpt><trkpt lat="39.47595097" lon="-0.38034688"><ele>5.0</ele><time>2022-11-17T21:10:32.0000000+00:00</time></trkpt><trkpt lat="39.47595097" lon="-0.3803483"><ele>5.0</ele><time>2022-11-17T21:10:33.0000000+00:00</time></trkpt><trkpt lat="39.47595776" lon="-0.38035216"><ele>5.0</ele><time>2022-11-17T21:10:34.0000000+00:00</time></trkpt><trkpt lat="39.47596505" lon="-0.38034654"><ele>5.0</ele><time>2022-11-17T21:10:35.0000000+00:00</time></trkpt><trkpt lat="39.47596598" lon="-0.38034453"><ele>5.0</ele><time>2022-11-17T21:10:36.0000000+00:00</time></trkpt><trkpt lat="39.47596639" lon="-0.38034696"><ele>5.0</ele><time>2022-11-17T21:10:37.0000000+00:00</time></trkpt><trkpt lat="39.47596598" lon="-0.38035702"><ele>5.0</ele><time>2022-11-17T21:10:38.0000000+00:00</time></trkpt><trkpt lat="39.47596606" lon="-0.38035752"><ele>5.0</ele><time>2022-11-17T21:10:39.0000000+00:00</time></trkpt><trkpt lat="39.47596899" lon="-0.38035534"><ele>5.0</ele><time>2022-11-17T21:10:40.0000000+00:00</time></trkpt><trkpt lat="39.47597176" lon="-0.38035811"><ele>5.0</ele><time>2022-11-17T21:10:41.0000000+00:00</time></trkpt><trkpt lat="39.47597268" lon="-0.38035744"><ele>5.0</ele><time>2022-11-17T21:10:42.0000000+00:00</time></trkpt><trkpt lat="39.4759736" lon="-0.380354"><ele>5.0</ele><time>2022-11-17T21:10:43.0000000+00:00</time></trkpt><trkpt lat="39.47598098" lon="-0.38035627"><ele>5.0</ele><time>2022-11-17T21:10:44.0000000+00:00</time></trkpt><trkpt lat="39.47597184" lon="-0.38035358"><ele>5.0</ele><time>2022-11-17T21:10:45.0000000+00:00</time></trkpt><trkpt lat="39.47596715" lon="-0.3803597"><ele>5.0</ele><time>2022-11-17T21:10:46.0000000+00:00</time></trkpt><trkpt lat="39.47596237" lon="-0.38035777"><ele>5.0</ele><time>2022-11-17T21:10:47.0000000+00:00</time></trkpt><trkpt lat="39.47595961" lon="-0.38036582"><ele>5.0</ele><time>2022-11-17T21:10:48.0000000+00:00</time></trkpt><trkpt lat="39.47595927" lon="-0.38037588"><ele>5.0</ele><time>2022-11-17T21:10:49.0000000+00:00</time></trkpt><trkpt lat="39.47595835" lon="-0.38037638"><ele>5.0</ele><time>2022-11-17T21:10:50.0000000+00:00</time></trkpt><trkpt lat="39.47596363" lon="-0.38037462"><ele>5.0</ele><time>2022-11-17T21:10:51.0000000+00:00</time></trkpt><trkpt lat="39.47596497" lon="-0.38037169"><ele>5.0</ele><time>2022-11-17T21:10:52.0000000+00:00</time></trkpt><trkpt lat="39.47596463" lon="-0.38036909"><ele>5.0</ele><time>2022-11-17T21:10:53.0000000+00:00</time></trkpt><trkpt lat="39.47596497" lon="-0.38036649"><ele>5.0</ele><time>2022-11-17T21:10:54.0000000+00:00</time></trkpt><trkpt lat="39.47596489" lon="-0.38036716"><ele>5.0</ele><time>2022-11-17T21:10:55.0000000+00:00</time></trkpt><trkpt lat="39.47596748" lon="-0.38036716"><ele>5.0</ele><time>2022-11-17T21:10:56.0000000+00:00</time></trkpt><trkpt lat="39.47597511" lon="-0.38035895"><ele>5.0</ele><time>2022-11-17T21:10:57.0000000+00:00</time></trkpt><trkpt lat="39.47597637" lon="-0.38035459"><ele>5.0</ele><time>2022-11-17T21:10:58.0000000+00:00</time></trkpt><trkpt lat="39.4759793" lon="-0.3803509"><ele>5.0</ele><time>2022-11-17T21:10:59.0000000+00:00</time></trkpt><trkpt lat="39.47598366" lon="-0.3803447"><ele>5.0</ele><time>2022-11-17T21:11:00.0000000+00:00</time></trkpt><trkpt lat="39.47598978" lon="-0.38033908"><ele>5.0</ele><time>2022-11-17T21:11:01.0000000+00:00</time></trkpt><trkpt lat="39.47598944" lon="-0.38033975"><ele>5.0</ele><time>2022-11-17T21:11:02.0000000+00:00</time></trkpt><trkpt lat="39.47598836" lon="-0.38034336"><ele>5.0</ele><time>2022-11-17T21:11:03.0000000+00:00</time></trkpt><trkpt lat="39.47599565" lon="-0.38034068"><ele>5.0</ele><time>2022-11-17T21:11:04.0000000+00:00</time></trkpt><trkpt lat="39.47599984" lon="-0.3803338"><ele>5.0</ele><time>2022-11-17T21:11:05.0000000+00:00</time></trkpt><trkpt lat="39.4760047" lon="-0.38032961"><ele>5.0</ele><time>2022-11-17T21:11:06.0000000+00:00</time></trkpt><trkpt lat="39.47601065" lon="-0.38032735"><ele>5.0</ele><time>2022-11-17T21:11:07.0000000+00:00</time></trkpt><trkpt lat="39.47600428" lon="-0.38033816"><ele>5.0</ele><time>2022-11-17T21:11:08.0000000+00:00</time></trkpt><trkpt lat="39.47601501" lon="-0.38032307"><ele>5.0</ele><time>2022-11-17T21:11:09.0000000+00:00</time></trkpt><trkpt lat="39.47602113" lon="-0.38031754"><ele>5.0</ele><time>2022-11-17T21:11:10.0000000+00:00</time></trkpt><trkpt lat="39.47603596" lon="-0.38030899"><ele>5.0</ele><time>2022-11-17T21:11:11.0000000+00:00</time></trkpt><trkpt lat="39.47604577" lon="-0.38030572"><ele>5.0</ele><time>2022-11-17T21:11:12.0000000+00:00</time></trkpt><trkpt lat="39.47605407" lon="-0.38030354"><ele>5.0</ele><time>2022-11-17T21:11:13.0000000+00:00</time></trkpt><trkpt lat="39.4760617" lon="-0.38030086"><ele>5.0</ele><time>2022-11-17T21:11:14.0000000+00:00</time></trkpt><trkpt lat="39.47606891" lon="-0.38030002"><ele>5.0</ele><time>2022-11-17T21:11:15.0000000+00:00</time></trkpt><trkpt lat="39.47607435" lon="-0.38029952"><ele>5.0</ele><time>2022-11-17T21:11:16.0000000+00:00</time></trkpt><trkpt lat="39.47608307" lon="-0.3802877"><ele>5.0</ele><time>2022-11-17T21:11:17.0000000+00:00</time></trkpt><trkpt lat="39.47608642" lon="-0.38028033"><ele>5.0</ele><time>2022-11-17T21:11:18.0000000+00:00</time></trkpt><trkpt lat="39.47609531" lon="-0.38026038"><ele>5.0</ele><time>2022-11-17T21:11:19.0000000+00:00</time></trkpt><trkpt lat="39.47610176" lon="-0.38024395"><ele>5.0</ele><time>2022-11-17T21:11:20.0000000+00:00</time></trkpt><trkpt lat="39.47611249" lon="-0.38022308"><ele>5.0</ele><time>2022-11-17T21:11:21.0000000+00:00</time></trkpt><trkpt lat="39.47612448" lon="-0.38020531"><ele>5.0</ele><time>2022-11-17T21:11:22.0000000+00:00</time></trkpt><trkpt lat="39.47613529" lon="-0.38018821"><ele>5.0</ele><time>2022-11-17T21:11:23.0000000+00:00</time></trkpt><trkpt lat="39.47614334" lon="-0.38017497"><ele>5.0</ele><time>2022-11-17T21:11:24.0000000+00:00</time></trkpt><trkpt lat="39.4761513" lon="-0.38016139"><ele>5.0</ele><time>2022-11-17T21:11:25.0000000+00:00</time></trkpt><trkpt lat="39.47612682" lon="-0.38022216"><ele>5.0</ele><time>2022-11-17T21:11:26.0000000+00:00</time></trkpt><trkpt lat="39.47612691" lon="-0.38021076"><ele>5.0</ele><time>2022-11-17T21:11:27.0000000+00:00</time></trkpt><trkpt lat="39.47612071" lon="-0.38023188"><ele>5.0</ele><time>2022-11-17T21:11:28.0000000+00:00</time></trkpt><trkpt lat="39.47610713" lon="-0.38028133"><ele>5.0</ele><time>2022-11-17T21:11:29.0000000+00:00</time></trkpt><trkpt lat="39.47609489" lon="-0.38027932"><ele>5.0</ele><time>2022-11-17T21:11:30.0000000+00:00</time></trkpt><trkpt lat="39.47607402" lon="-0.38032215"><ele>5.0</ele><time>2022-11-17T21:11:31.0000000+00:00</time></trkpt><trkpt lat="39.4760477" lon="-0.38036674"><ele>5.0</ele><time>2022-11-17T21:11:32.0000000+00:00</time></trkpt><trkpt lat="39.47604066" lon="-0.38037689"><ele>5.0</ele><time>2022-11-17T21:11:33.0000000+00:00</time></trkpt><trkpt lat="39.47604787" lon="-0.3803758"><ele>5.0</ele><time>2022-11-17T21:11:34.0000000+00:00</time></trkpt><trkpt lat="39.47605575" lon="-0.38036725"><ele>5.0</ele><time>2022-11-17T21:11:35.0000000+00:00</time></trkpt><trkpt lat="39.47605734" lon="-0.38036708"><ele>5.0</ele><time>2022-11-17T21:11:36.0000000+00:00</time></trkpt><trkpt lat="39.47606337" lon="-0.38035275"><ele>5.0</ele><time>2022-11-17T21:11:37.0000000+00:00</time></trkpt><trkpt lat="39.47606538" lon="-0.38034411"><ele>5.0</ele><time>2022-11-17T21:11:38.0000000+00:00</time></trkpt><trkpt lat="39.47605549" lon="-0.38034654"><ele>5.0</ele><time>2022-11-17T21:11:39.0000000+00:00</time></trkpt><trkpt lat="39.47604141" lon="-0.38035761"><ele>5.0</ele><time>2022-11-17T21:11:40.0000000+00:00</time></trkpt><trkpt lat="39.47605239" lon="-0.38035845"><ele>5.0</ele><time>2022-11-17T21:11:41.0000000+00:00</time></trkpt><trkpt lat="39.47606513" lon="-0.38034629"><ele>5.0</ele><time>2022-11-17T21:11:42.0000000+00:00</time></trkpt><trkpt lat="39.47608039" lon="-0.38034177"><ele>5.0</ele><time>2022-11-17T21:11:43.0000000+00:00</time></trkpt><trkpt lat="39.47609338" lon="-0.38033338"><ele>5.0</ele><time>2022-11-17T21:11:44.0000000+00:00</time></trkpt><trkpt lat="39.47609807" lon="-0.3803364"><ele>5.0</ele><time>2022-11-17T21:11:45.0000000+00:00</time></trkpt><trkpt lat="39.47609715" lon="-0.38033682"><ele>5.0</ele><time>2022-11-17T21:11:46.0000000+00:00</time></trkpt><trkpt lat="39.47609045" lon="-0.38033405"><ele>5.0</ele><time>2022-11-17T21:11:47.0000000+00:00</time></trkpt><trkpt lat="39.47608341" lon="-0.38034235"><ele>5.0</ele><time>2022-11-17T21:11:48.0000000+00:00</time></trkpt><trkpt lat="39.47607586" lon="-0.3803509"><ele>5.0</ele><time>2022-11-17T21:11:49.0000000+00:00</time></trkpt><trkpt lat="39.47607159" lon="-0.38035132"><ele>5.0</ele><time>2022-11-17T21:11:50.0000000+00:00</time></trkpt><trkpt lat="39.47608089" lon="-0.38034964"><ele>5.0</ele><time>2022-11-17T21:11:51.0000000+00:00</time></trkpt><trkpt lat="39.47609137" lon="-0.38034746"><ele>5.0</ele><time>2022-11-17T21:11:52.0000000+00:00</time></trkpt><trkpt lat="39.47610009" lon="-0.38034755"><ele>5.0</ele><time>2022-11-17T21:11:53.0000000+00:00</time></trkpt><trkpt lat="39.47611425" lon="-0.38034403"><ele>5.0</ele><time>2022-11-17T21:11:54.0000000+00:00</time></trkpt><trkpt lat="39.47612976" lon="-0.38034034"><ele>5.0</ele><time>2022-11-17T21:11:55.0000000+00:00</time></trkpt><trkpt lat="39.47614233" lon="-0.38033615"><ele>5.0</ele><time>2022-11-17T21:11:56.0000000+00:00</time></trkpt><trkpt lat="39.47615784" lon="-0.38032467"><ele>5.0</ele><time>2022-11-17T21:11:57.0000000+00:00</time></trkpt><trkpt lat="39.47616982" lon="-0.38031939"><ele>5.0</ele><time>2022-11-17T21:11:58.0000000+00:00</time></trkpt><trkpt lat="39.47618231" lon="-0.38030866"><ele>5.0</ele><time>2022-11-17T21:11:59.0000000+00:00</time></trkpt><trkpt lat="39.47619715" lon="-0.38029089"><ele>5.0</ele><time>2022-11-17T21:12:00.0000000+00:00</time></trkpt><trkpt lat="39.47621576" lon="-0.38027446"><ele>5.0</ele><time>2022-11-17T21:12:01.0000000+00:00</time></trkpt><trkpt lat="39.47623755" lon="-0.38026557"><ele>5.0</ele><time>2022-11-17T21:12:02.0000000+00:00</time></trkpt><trkpt lat="39.47625205" lon="-0.38024847"><ele>5.0</ele><time>2022-11-17T21:12:03.0000000+00:00</time></trkpt><trkpt lat="39.47624501" lon="-0.38023967"><ele>5.0</ele><time>2022-11-17T21:12:04.0000000+00:00</time></trkpt><trkpt lat="39.47627191" lon="-0.38022484"><ele>5.0</ele><time>2022-11-17T21:12:05.0000000+00:00</time></trkpt><trkpt lat="39.47628315" lon="-0.38021277"><ele>5.0</ele><time>2022-11-17T21:12:06.0000000+00:00</time></trkpt><trkpt lat="39.47628407" lon="-0.38019969"><ele>5.0</ele><time>2022-11-17T21:12:07.0000000+00:00</time></trkpt><trkpt lat="39.47628734" lon="-0.38018921"><ele>5.0</ele><time>2022-11-17T21:12:08.0000000+00:00</time></trkpt><trkpt lat="39.47629228" lon="-0.38017144"><ele>5.0</ele><time>2022-11-17T21:12:09.0000000+00:00</time></trkpt><trkpt lat="39.4762974" lon="-0.38015485"><ele>5.0</ele><time>2022-11-17T21:12:10.0000000+00:00</time></trkpt><trkpt lat="39.4763005" lon="-0.38013934"><ele>5.0</ele><time>2022-11-17T21:12:11.0000000+00:00</time></trkpt><trkpt lat="39.47631592" lon="-0.38013892"><ele>5.0</ele><time>2022-11-17T21:12:12.0000000+00:00</time></trkpt><trkpt lat="39.47631785" lon="-0.38013565"><ele>5.4</ele><time>2022-11-17T21:12:13.0000000+00:00</time></trkpt><trkpt lat="39.47632615" lon="-0.38012425"><ele>5.6</ele><time>2022-11-17T21:12:14.0000000+00:00</time></trkpt><trkpt lat="39.47633394" lon="-0.38011193"><ele>5.6</ele><time>2022-11-17T21:12:15.0000000+00:00</time></trkpt><trkpt lat="39.47633134" lon="-0.3801033"><ele>5.8</ele><time>2022-11-17T21:12:16.0000000+00:00</time></trkpt><trkpt lat="39.47633503" lon="-0.38008913"><ele>5.8</ele><time>2022-11-17T21:12:17.0000000+00:00</time></trkpt><trkpt lat="39.47632799" lon="-0.38007463"><ele>5.8</ele><time>2022-11-17T21:12:18.0000000+00:00</time></trkpt><trkpt lat="39.47632715" lon="-0.38005393"><ele>5.8</ele><time>2022-11-17T21:12:19.0000000+00:00</time></trkpt><trkpt lat="39.47632439" lon="-0.38002686"><ele>5.8</ele><time>2022-11-17T21:12:20.0000000+00:00</time></trkpt><trkpt lat="39.47632128" lon="-0.37999869"><ele>5.8</ele><time>2022-11-17T21:12:21.0000000+00:00</time></trkpt><trkpt lat="39.4763098" lon="-0.37999408"><ele>6.0</ele><time>2022-11-17T21:12:22.0000000+00:00</time></trkpt><trkpt lat="39.47630058" lon="-0.37999467"><ele>6.0</ele><time>2022-11-17T21:12:23.0000000+00:00</time></trkpt><trkpt lat="39.4762953" lon="-0.37998805"><ele>6.0</ele><time>2022-11-17T21:12:24.0000000+00:00</time></trkpt><trkpt lat="39.47629111" lon="-0.37997833"><ele>6.0</ele><time>2022-11-17T21:12:25.0000000+00:00</time></trkpt><trkpt lat="39.47628214" lon="-0.37997196"><ele>6.0</ele><time>2022-11-17T21:12:26.0000000+00:00</time></trkpt><trkpt lat="39.47627761" lon="-0.3799655"><ele>6.0</ele><time>2022-11-17T21:12:27.0000000+00:00</time></trkpt><trkpt lat="39.47627175" lon="-0.37995821"><ele>6.0</ele><time>2022-11-17T21:12:28.0000000+00:00</time></trkpt><trkpt lat="39.47626345" lon="-0.37995352"><ele>6.0</ele><time>2022-11-17T21:12:29.0000000+00:00</time></trkpt><trkpt lat="39.47625741" lon="-0.37994438"><ele>6.0</ele><time>2022-11-17T21:12:30.0000000+00:00</time></trkpt><trkpt lat="39.47625515" lon="-0.37993323"><ele>6.2</ele><time>2022-11-17T21:12:31.0000000+00:00</time></trkpt><trkpt lat="39.47625473" lon="-0.37991529"><ele>6.2</ele><time>2022-11-17T21:12:32.0000000+00:00</time></trkpt><trkpt lat="39.47625976" lon="-0.37990691"><ele>6.2</ele><time>2022-11-17T21:12:33.0000000+00:00</time></trkpt><trkpt lat="39.47627326" lon="-0.37989677"><ele>6.2</ele><time>2022-11-17T21:12:34.0000000+00:00</time></trkpt><trkpt lat="39.47628222" lon="-0.37988772"><ele>6.4</ele><time>2022-11-17T21:12:35.0000000+00:00</time></trkpt><trkpt lat="39.47630888" lon="-0.3798764"><ele>6.4</ele><time>2022-11-17T21:12:36.0000000+00:00</time></trkpt><trkpt lat="39.47629916" lon="-0.37985629"><ele>6.6</ele><time>2022-11-17T21:12:37.0000000+00:00</time></trkpt><trkpt lat="39.47631366" lon="-0.3798293"><ele>6.6</ele><time>2022-11-17T21:12:38.0000000+00:00</time></trkpt><trkpt lat="39.47632447" lon="-0.37979929"><ele>6.6</ele><time>2022-11-17T21:12:39.0000000+00:00</time></trkpt><trkpt lat="39.47633369" lon="-0.37977506"><ele>6.6</ele><time>2022-11-17T21:12:40.0000000+00:00</time></trkpt><trkpt lat="39.47638222" lon="-0.37975017"><ele>6.6</ele><time>2022-11-17T21:12:41.0000000+00:00</time></trkpt><trkpt lat="39.47638423" lon="-0.37972008"><ele>6.6</ele><time>2022-11-17T21:12:42.0000000+00:00</time></trkpt><trkpt lat="39.47637007" lon="-0.37967959"><ele>6.8</ele><time>2022-11-17T21:12:43.0000000+00:00</time></trkpt><trkpt lat="39.47635481" lon="-0.37965445"><ele>6.8</ele><time>2022-11-17T21:12:44.0000000+00:00</time></trkpt><trkpt lat="39.47634098" lon="-0.37962218"><ele>6.8</ele><time>2022-11-17T21:12:45.0000000+00:00</time></trkpt><trkpt lat="39.47634216" lon="-0.37960759"><ele>6.8</ele><time>2022-11-17T21:12:46.0000000+00:00</time></trkpt><trkpt lat="39.47635548" lon="-0.37961036"><ele>6.8</ele><time>2022-11-17T21:12:47.0000000+00:00</time></trkpt><trkpt lat="39.47636076" lon="-0.37960525"><ele>6.8</ele><time>2022-11-17T21:12:48.0000000+00:00</time></trkpt><trkpt lat="39.47635992" lon="-0.37959871"><ele>6.8</ele><time>2022-11-17T21:12:49.0000000+00:00</time></trkpt><trkpt lat="39.4763533" lon="-0.3795853"><ele>6.8</ele><time>2022-11-17T21:12:50.0000000+00:00</time></trkpt><trkpt lat="39.47635741" lon="-0.37956979"><ele>6.8</ele><time>2022-11-17T21:12:51.0000000+00:00</time></trkpt><trkpt lat="39.47637007" lon="-0.37955387"><ele>6.8</ele><time>2022-11-17T21:12:52.0000000+00:00</time></trkpt><trkpt lat="39.47637711" lon="-0.37953601"><ele>6.8</ele><time>2022-11-17T21:12:53.0000000+00:00</time></trkpt><trkpt lat="39.47637602" lon="-0.37952797"><ele>6.8</ele><time>2022-11-17T21:12:54.0000000+00:00</time></trkpt><trkpt lat="39.47637769" lon="-0.37952319"><ele>6.8</ele><time>2022-11-17T21:12:55.0000000+00:00</time></trkpt><trkpt lat="39.47639764" lon="-0.37952906"><ele>6.8</ele><time>2022-11-17T21:12:56.0000000+00:00</time></trkpt><trkpt lat="39.47640066" lon="-0.37954733"><ele>7.0</ele><time>2022-11-17T21:12:57.0000000+00:00</time></trkpt><trkpt lat="39.47641634" lon="-0.37953559"><ele>7.0</ele><time>2022-11-17T21:12:58.0000000+00:00</time></trkpt><trkpt lat="39.47642581" lon="-0.37954104"><ele>7.0</ele><time>2022-11-17T21:12:59.0000000+00:00</time></trkpt><trkpt lat="39.4764279" lon="-0.37953182"><ele>7.0</ele><time>2022-11-17T21:13:00.0000000+00:00</time></trkpt><trkpt lat="39.4764279" lon="-0.37952696"><ele>7.0</ele><time>2022-11-17T21:13:01.0000000+00:00</time></trkpt><trkpt lat="39.47642128" lon="-0.37949452"><ele>7.0</ele><time>2022-11-17T21:13:02.0000000+00:00</time></trkpt><trkpt lat="39.47639773" lon="-0.37946954"><ele>7.2</ele><time>2022-11-17T21:13:03.0000000+00:00</time></trkpt><trkpt lat="39.4763808" lon="-0.3794475"><ele>7.2</ele><time>2022-11-17T21:13:04.0000000+00:00</time></trkpt><trkpt lat="39.47635439" lon="-0.37942462"><ele>7.2</ele><time>2022-11-17T21:13:05.0000000+00:00</time></trkpt><trkpt lat="39.47633444" lon="-0.37939796"><ele>7.2</ele><time>2022-11-17T21:13:06.0000000+00:00</time></trkpt><trkpt lat="39.47633159" lon="-0.37936888"><ele>7.2</ele><time>2022-11-17T21:13:07.0000000+00:00</time></trkpt><trkpt lat="39.47632656" lon="-0.37935907"><ele>7.0</ele><time>2022-11-17T21:13:08.0000000+00:00</time></trkpt><trkpt lat="39.4763238" lon="-0.37935153"><ele>7.0</ele><time>2022-11-17T21:13:09.0000000+00:00</time></trkpt><trkpt lat="39.47632162" lon="-0.37934105"><ele>7.0</ele><time>2022-11-17T21:13:10.0000000+00:00</time></trkpt><trkpt lat="39.47631282" lon="-0.37932588"><ele>7.0</ele><time>2022-11-17T21:13:11.0000000+00:00</time></trkpt><trkpt lat="39.47630259" lon="-0.37931205"><ele>7.0</ele><time>2022-11-17T21:13:12.0000000+00:00</time></trkpt><trkpt lat="39.47629513" lon="-0.37929872"><ele>7.2</ele><time>2022-11-17T21:13:13.0000000+00:00</time></trkpt><trkpt lat="39.47630737" lon="-0.37928866"><ele>7.2</ele><time>2022-11-17T21:13:14.0000000+00:00</time></trkpt><trkpt lat="39.47630092" lon="-0.37927609"><ele>7.2</ele><time>2022-11-17T21:13:15.0000000+00:00</time></trkpt><trkpt lat="39.47629924" lon="-0.37926452"><ele>7.2</ele><time>2022-11-17T21:13:16.0000000+00:00</time></trkpt><trkpt lat="39.4762979" lon="-0.37925572"><ele>7.2</ele><time>2022-11-17T21:13:17.0000000+00:00</time></trkpt><trkpt lat="39.47630611" lon="-0.37924734"><ele>7.2</ele><time>2022-11-17T21:13:18.0000000+00:00</time></trkpt><trkpt lat="39.47630536" lon="-0.37923703"><ele>7.0</ele><time>2022-11-17T21:13:19.0000000+00:00</time></trkpt><trkpt lat="39.47627342" lon="-0.37919177"><ele>6.8</ele><time>2022-11-17T21:13:20.0000000+00:00</time></trkpt><trkpt lat="39.47628038" lon="-0.37916872"><ele>6.8</ele><time>2022-11-17T21:13:21.0000000+00:00</time></trkpt><trkpt lat="39.47628088" lon="-0.379146"><ele>6.8</ele><time>2022-11-17T21:13:22.0000000+00:00</time></trkpt><trkpt lat="39.4762974" lon="-0.37912547"><ele>6.8</ele><time>2022-11-17T21:13:23.0000000+00:00</time></trkpt><trkpt lat="39.4762984" lon="-0.37909739"><ele>6.8</ele><time>2022-11-17T21:13:24.0000000+00:00</time></trkpt><trkpt lat="39.47629714" lon="-0.37907283"><ele>6.8</ele><time>2022-11-17T21:13:25.0000000+00:00</time></trkpt><trkpt lat="39.47627753" lon="-0.37901784"><ele>6.6</ele><time>2022-11-17T21:13:27.0000000+00:00</time></trkpt><trkpt lat="39.47625616" lon="-0.37897979"><ele>6.6</ele><time>2022-11-17T21:13:28.0000000+00:00</time></trkpt><trkpt lat="39.47623411" lon="-0.37894207"><ele>6.6</ele><time>2022-11-17T21:13:29.0000000+00:00</time></trkpt><trkpt lat="39.47620075" lon="-0.37885909"><ele>6.6</ele><time>2022-11-17T21:13:32.0000000+00:00</time></trkpt><trkpt lat="39.47620696" lon="-0.37883906"><ele>6.6</ele><time>2022-11-17T21:13:33.0000000+00:00</time></trkpt><trkpt lat="39.47623084" lon="-0.37881131"><ele>6.6</ele><time>2022-11-17T21:13:34.0000000+00:00</time></trkpt><trkpt lat="39.47628977" lon="-0.37879983"><ele>6.6</ele><time>2022-11-17T21:13:35.0000000+00:00</time></trkpt><trkpt lat="39.47631206" lon="-0.37878994"><ele>6.6</ele><time>2022-11-17T21:13:36.0000000+00:00</time></trkpt><trkpt lat="39.4763694" lon="-0.37878005"><ele>6.8</ele><time>2022-11-17T21:13:37.0000000+00:00</time></trkpt><trkpt lat="39.47638398" lon="-0.37876538"><ele>6.8</ele><time>2022-11-17T21:13:38.0000000+00:00</time></trkpt><trkpt lat="39.47638214" lon="-0.3787492"><ele>6.8</ele><time>2022-11-17T21:13:39.0000000+00:00</time></trkpt><trkpt lat="39.47637107" lon="-0.37873537"><ele>6.8</ele><time>2022-11-17T21:13:40.0000000+00:00</time></trkpt><trkpt lat="39.47637325" lon="-0.3787223"><ele>6.8</ele><time>2022-11-17T21:13:41.0000000+00:00</time></trkpt><trkpt lat="39.47637233" lon="-0.37870109"><ele>7.0</ele><time>2022-11-17T21:13:43.0000000+00:00</time></trkpt><trkpt lat="39.47641231" lon="-0.37868885"><ele>7.2</ele><time>2022-11-17T21:13:47.0000000+00:00</time></trkpt><trkpt lat="39.476488" lon="-0.37871467"><ele>7.0</ele><time>2022-11-17T21:13:52.0000000+00:00</time></trkpt><trkpt lat="39.47647224" lon="-0.37872389"><ele>7.0</ele><time>2022-11-17T21:13:53.0000000+00:00</time></trkpt><trkpt lat="39.47651457" lon="-0.37868835"><ele>6.8</ele><time>2022-11-17T21:13:55.0000000+00:00</time></trkpt><trkpt lat="39.4765807" lon="-0.37864024"><ele>6.8</ele><time>2022-11-17T21:13:56.0000000+00:00</time></trkpt><trkpt lat="39.47662287" lon="-0.37862079"><ele>6.6</ele><time>2022-11-17T21:13:57.0000000+00:00</time></trkpt><trkpt lat="39.47667123" lon="-0.37857981"><ele>6.6</ele><time>2022-11-17T21:13:59.0000000+00:00</time></trkpt><trkpt lat="39.47669788" lon="-0.37855047"><ele>6.6</ele><time>2022-11-17T21:14:00.0000000+00:00</time></trkpt><trkpt lat="39.47667039" lon="-0.37851141"><ele>6.6</ele><time>2022-11-17T21:14:01.0000000+00:00</time></trkpt><trkpt lat="39.47660803" lon="-0.37847478"><ele>6.6</ele><time>2022-11-17T21:14:02.0000000+00:00</time></trkpt><trkpt lat="39.4765745" lon="-0.37846682"><ele>6.6</ele><time>2022-11-17T21:14:03.0000000+00:00</time></trkpt><trkpt lat="39.47657593" lon="-0.37848149"><ele>6.6</ele><time>2022-11-17T21:14:04.0000000+00:00</time></trkpt><trkpt lat="39.47657383" lon="-0.37847688"><ele>6.6</ele><time>2022-11-17T21:14:05.0000000+00:00</time></trkpt><trkpt lat="39.47659135" lon="-0.37849339"><ele>6.6</ele><time>2022-11-17T21:14:06.0000000+00:00</time></trkpt><trkpt lat="39.47659629" lon="-0.37848953"><ele>6.6</ele><time>2022-11-17T21:14:07.0000000+00:00</time></trkpt><trkpt lat="39.47658867" lon="-0.3784726"><ele>6.6</ele><time>2022-11-17T21:14:08.0000000+00:00</time></trkpt><trkpt lat="39.47658129" lon="-0.37845324"><ele>6.6</ele><time>2022-11-17T21:14:09.0000000+00:00</time></trkpt><trkpt lat="39.47656578" lon="-0.37843254"><ele>6.6</ele><time>2022-11-17T21:14:10.0000000+00:00</time></trkpt><trkpt lat="39.47656511" lon="-0.37841535"><ele>6.6</ele><time>2022-11-17T21:14:11.0000000+00:00</time></trkpt><trkpt lat="39.47656478" lon="-0.37841024"><ele>6.6</ele><time>2022-11-17T21:14:12.0000000+00:00</time></trkpt><trkpt lat="39.47656587" lon="-0.37840496"><ele>6.6</ele><time>2022-11-17T21:14:13.0000000+00:00</time></trkpt><trkpt lat="39.47656386" lon="-0.37838903"><ele>6.6</ele><time>2022-11-17T21:14:14.0000000+00:00</time></trkpt><trkpt lat="39.47655195" lon="-0.37837973"><ele>6.8</ele><time>2022-11-17T21:14:15.0000000+00:00</time></trkpt><trkpt lat="39.47653092" lon="-0.37837068"><ele>6.8</ele><time>2022-11-17T21:14:16.0000000+00:00</time></trkpt><trkpt lat="39.47650208" lon="-0.37835358"><ele>6.8</ele><time>2022-11-17T21:14:17.0000000+00:00</time></trkpt><trkpt lat="39.47649261" lon="-0.37834419"><ele>6.8</ele><time>2022-11-17T21:14:18.0000000+00:00</time></trkpt><trkpt lat="39.47649722" lon="-0.37832893"><ele>6.8</ele><time>2022-11-17T21:14:19.0000000+00:00</time></trkpt><trkpt lat="39.47657869" lon="-0.37827797"><ele>6.8</ele><time>2022-11-17T21:14:21.0000000+00:00</time></trkpt><trkpt lat="39.47661356" lon="-0.37824838"><ele>6.8</ele><time>2022-11-17T21:14:22.0000000+00:00</time></trkpt><trkpt lat="39.47664977" lon="-0.37822156"><ele>6.8</ele><time>2022-11-17T21:14:23.0000000+00:00</time></trkpt><trkpt lat="39.47667525" lon="-0.37819759"><ele>6.8</ele><time>2022-11-17T21:14:24.0000000+00:00</time></trkpt><trkpt lat="39.47670677" lon="-0.37817622"><ele>6.8</ele><time>2022-11-17T21:14:25.0000000+00:00</time></trkpt><trkpt lat="39.47665581" lon="-0.37816708"><ele>6.8</ele><time>2022-11-17T21:14:26.0000000+00:00</time></trkpt><trkpt lat="39.47665421" lon="-0.37816348"><ele>6.8</ele><time>2022-11-17T21:14:27.0000000+00:00</time></trkpt><trkpt lat="39.47663661" lon="-0.3781499"><ele>6.8</ele><time>2022-11-17T21:14:28.0000000+00:00</time></trkpt><trkpt lat="39.47662706" lon="-0.37813682"><ele>6.8</ele><time>2022-11-17T21:14:29.0000000+00:00</time></trkpt><trkpt lat="39.47662848" lon="-0.37812115"><ele>6.8</ele><time>2022-11-17T21:14:30.0000000+00:00</time></trkpt><trkpt lat="39.47662949" lon="-0.37811461"><ele>6.8</ele><time>2022-11-17T21:14:31.0000000+00:00</time></trkpt><trkpt lat="39.47663259" lon="-0.37810631"><ele>6.8</ele><time>2022-11-17T21:14:32.0000000+00:00</time></trkpt><trkpt lat="39.4766139" lon="-0.37807329"><ele>6.8</ele><time>2022-11-17T21:14:34.0000000+00:00</time></trkpt><trkpt lat="39.47661021" lon="-0.37805426"><ele>6.8</ele><time>2022-11-17T21:14:35.0000000+00:00</time></trkpt><trkpt lat="39.4765771" lon="-0.37801914"><ele>6.8</ele><time>2022-11-17T21:14:37.0000000+00:00</time></trkpt><trkpt lat="39.4765859" lon="-0.37802316"><ele>6.8</ele><time>2022-11-17T21:14:38.0000000+00:00</time></trkpt><trkpt lat="39.4765797" lon="-0.37802392"><ele>6.8</ele><time>2022-11-17T21:14:39.0000000+00:00</time></trkpt><trkpt lat="39.47658867" lon="-0.37801771"><ele>6.8</ele><time>2022-11-17T21:14:40.0000000+00:00</time></trkpt><trkpt lat="39.47660401" lon="-0.37800942"><ele>6.8</ele><time>2022-11-17T21:14:41.0000000+00:00</time></trkpt><trkpt lat="39.47661566" lon="-0.37799676"><ele>6.8</ele><time>2022-11-17T21:14:42.0000000+00:00</time></trkpt><trkpt lat="39.47669772" lon="-0.37801352"><ele>6.8</ele><time>2022-11-17T21:14:43.0000000+00:00</time></trkpt><trkpt lat="39.47668213" lon="-0.37793817"><ele>6.8</ele><time>2022-11-17T21:14:44.0000000+00:00</time></trkpt><trkpt lat="39.47670358" lon="-0.37789995"><ele>6.8</ele><time>2022-11-17T21:14:45.0000000+00:00</time></trkpt><trkpt lat="39.47667265" lon="-0.37787891"><ele>6.8</ele><time>2022-11-17T21:14:46.0000000+00:00</time></trkpt><trkpt lat="39.47664868" lon="-0.37785905"><ele>6.6</ele><time>2022-11-17T21:14:47.0000000+00:00</time></trkpt><trkpt lat="39.47662806" lon="-0.37785016"><ele>6.6</ele><time>2022-11-17T21:14:48.0000000+00:00</time></trkpt><trkpt lat="39.47667291" lon="-0.37783734"><ele>6.6</ele><time>2022-11-17T21:14:49.0000000+00:00</time></trkpt><trkpt lat="39.4766776" lon="-0.37782577"><ele>6.6</ele><time>2022-11-17T21:14:50.0000000+00:00</time></trkpt><trkpt lat="39.47669386" lon="-0.37781471"><ele>6.6</ele><time>2022-11-17T21:14:51.0000000+00:00</time></trkpt><trkpt lat="39.47672177" lon="-0.3777826"><ele>6.6</ele><time>2022-11-17T21:14:53.0000000+00:00</time></trkpt><trkpt lat="39.47673393" lon="-0.37776467"><ele>6.6</ele><time>2022-11-17T21:14:54.0000000+00:00</time></trkpt><trkpt lat="39.47674122" lon="-0.37775385"><ele>6.6</ele><time>2022-11-17T21:14:55.0000000+00:00</time></trkpt><trkpt lat="39.47676695" lon="-0.37774958"><ele>6.6</ele><time>2022-11-17T21:14:56.0000000+00:00</time></trkpt><trkpt lat="39.47679251" lon="-0.37774195"><ele>6.4</ele><time>2022-11-17T21:14:57.0000000+00:00</time></trkpt><trkpt lat="39.47680073" lon="-0.3777137"><ele>6.4</ele><time>2022-11-17T21:15:00.0000000+00:00</time></trkpt><trkpt lat="39.47679067" lon="-0.37770373"><ele>6.4</ele><time>2022-11-17T21:15:01.0000000+00:00</time></trkpt><trkpt lat="39.47677827" lon="-0.37769275"><ele>6.4</ele><time>2022-11-17T21:15:02.0000000+00:00</time></trkpt><trkpt lat="39.4768532" lon="-0.37759175"><ele>6.2</ele><time>2022-11-17T21:15:12.0000000+00:00</time></trkpt><trkpt lat="39.4769138" lon="-0.3775267"><ele>6.4</ele><time>2022-11-17T21:15:15.0000000+00:00</time></trkpt><trkpt lat="39.47690835" lon="-0.37747256"><ele>6.6</ele><time>2022-11-17T21:15:16.0000000+00:00</time></trkpt><trkpt lat="39.47692403" lon="-0.37742528"><ele>6.6</ele><time>2022-11-17T21:15:17.0000000+00:00</time></trkpt><trkpt lat="39.47694222" lon="-0.37738999"><ele>6.6</ele><time>2022-11-17T21:15:18.0000000+00:00</time></trkpt><trkpt lat="39.47695093" lon="-0.37736108"><ele>6.6</ele><time>2022-11-17T21:15:19.0000000+00:00</time></trkpt><trkpt lat="39.47694339" lon="-0.37734549"><ele>6.6</ele><time>2022-11-17T21:15:20.0000000+00:00</time></trkpt><trkpt lat="39.47693442" lon="-0.3773371"><ele>6.8</ele><time>2022-11-17T21:15:21.0000000+00:00</time></trkpt><trkpt lat="39.47691397" lon="-0.37732755"><ele>6.8</ele><time>2022-11-17T21:15:22.0000000+00:00</time></trkpt><trkpt lat="39.47690626" lon="-0.37729377"><ele>6.8</ele><time>2022-11-17T21:15:23.0000000+00:00</time></trkpt><trkpt lat="39.47689075" lon="-0.37726619"><ele>6.8</ele><time>2022-11-17T21:15:24.0000000+00:00</time></trkpt><trkpt lat="39.47690358" lon="-0.3772413"><ele>6.8</ele><time>2022-11-17T21:15:25.0000000+00:00</time></trkpt><trkpt lat="39.47693115" lon="-0.37722152"><ele>6.6</ele><time>2022-11-17T21:15:26.0000000+00:00</time></trkpt><trkpt lat="39.47694322" lon="-0.37720266"><ele>6.6</ele><time>2022-11-17T21:15:27.0000000+00:00</time></trkpt><trkpt lat="39.47695881" lon="-0.37720291"><ele>6.4</ele><time>2022-11-17T21:15:28.0000000+00:00</time></trkpt><trkpt lat="39.47694808" lon="-0.37720752"><ele>6.4</ele><time>2022-11-17T21:15:29.0000000+00:00</time></trkpt><trkpt lat="39.47691606" lon="-0.3771947"><ele>6.4</ele><time>2022-11-17T21:15:30.0000000+00:00</time></trkpt><trkpt lat="39.47687105" lon="-0.37717441"><ele>6.4</ele><time>2022-11-17T21:15:31.0000000+00:00</time></trkpt><trkpt lat="39.47684943" lon="-0.37716393"><ele>6.4</ele><time>2022-11-17T21:15:32.0000000+00:00</time></trkpt><trkpt lat="39.47682235" lon="-0.37715455"><ele>6.4</ele><time>2022-11-17T21:15:33.0000000+00:00</time></trkpt><trkpt lat="39.47680014" lon="-0.3771465"><ele>6.4</ele><time>2022-11-17T21:15:34.0000000+00:00</time></trkpt><trkpt lat="39.47677676" lon="-0.37713166"><ele>6.2</ele><time>2022-11-17T21:15:35.0000000+00:00</time></trkpt><trkpt lat="39.47675538" lon="-0.37710685"><ele>6.2</ele><time>2022-11-17T21:15:36.0000000+00:00</time></trkpt><trkpt lat="39.47675035" lon="-0.37708649"><ele>6.2</ele><time>2022-11-17T21:15:37.0000000+00:00</time></trkpt><trkpt lat="39.47674792" lon="-0.37706637"><ele>6.2</ele><time>2022-11-17T21:15:38.0000000+00:00</time></trkpt><trkpt lat="39.47674935" lon="-0.37704692"><ele>6.2</ele><time>2022-11-17T21:15:39.0000000+00:00</time></trkpt><trkpt lat="39.47676779" lon="-0.37704567"><ele>6.2</ele><time>2022-11-17T21:15:40.0000000+00:00</time></trkpt><trkpt lat="39.47674113" lon="-0.37704357"><ele>6.2</ele><time>2022-11-17T21:15:41.0000000+00:00</time></trkpt><trkpt lat="39.47673267" lon="-0.37703519"><ele>6.2</ele><time>2022-11-17T21:15:42.0000000+00:00</time></trkpt><trkpt lat="39.47672412" lon="-0.37702111"><ele>6.0</ele><time>2022-11-17T21:15:43.0000000+00:00</time></trkpt><trkpt lat="39.47670677" lon="-0.37700946"><ele>6.0</ele><time>2022-11-17T21:15:44.0000000+00:00</time></trkpt><trkpt lat="39.47669269" lon="-0.37699051"><ele>6.0</ele><time>2022-11-17T21:15:45.0000000+00:00</time></trkpt><trkpt lat="39.47667391" lon="-0.37697618"><ele>6.0</ele><time>2022-11-17T21:15:46.0000000+00:00</time></trkpt><trkpt lat="39.47666955" lon="-0.37696193"><ele>6.0</ele><time>2022-11-17T21:15:47.0000000+00:00</time></trkpt><trkpt lat="39.47668774" lon="-0.37695011"><ele>6.0</ele><time>2022-11-17T21:15:48.0000000+00:00</time></trkpt><trkpt lat="39.47670291" lon="-0.37693502"><ele>6.0</ele><time>2022-11-17T21:15:49.0000000+00:00</time></trkpt><trkpt lat="39.47673351" lon="-0.37691332"><ele>5.8</ele><time>2022-11-17T21:15:50.0000000+00:00</time></trkpt><trkpt lat="39.47671372" lon="-0.37689823"><ele>5.8</ele><time>2022-11-17T21:15:51.0000000+00:00</time></trkpt><trkpt lat="39.47673971" lon="-0.37687392"><ele>5.8</ele><time>2022-11-17T21:15:52.0000000+00:00</time></trkpt><trkpt lat="39.47673376" lon="-0.37684945"><ele>5.8</ele><time>2022-11-17T21:15:53.0000000+00:00</time></trkpt><trkpt lat="39.4767128" lon="-0.37682849"><ele>5.8</ele><time>2022-11-17T21:15:54.0000000+00:00</time></trkpt><trkpt lat="39.47669897" lon="-0.37681818"><ele>5.8</ele><time>2022-11-17T21:15:55.0000000+00:00</time></trkpt><trkpt lat="39.47668841" lon="-0.37680125"><ele>5.8</ele><time>2022-11-17T21:15:56.0000000+00:00</time></trkpt><trkpt lat="39.47668254" lon="-0.37678926"><ele>5.8</ele><time>2022-11-17T21:15:57.0000000+00:00</time></trkpt><trkpt lat="39.47667743" lon="-0.37677552"><ele>6.0</ele><time>2022-11-17T21:15:58.0000000+00:00</time></trkpt><trkpt lat="39.47667207" lon="-0.37676043"><ele>6.0</ele><time>2022-11-17T21:15:59.0000000+00:00</time></trkpt><trkpt lat="39.47660761" lon="-0.37674995"><ele>6.0</ele><time>2022-11-17T21:16:00.0000000+00:00</time></trkpt><trkpt lat="39.47655422" lon="-0.37675163"><ele>6.0</ele><time>2022-11-17T21:16:01.0000000+00:00</time></trkpt><trkpt lat="39.47650896" lon="-0.3767699"><ele>6.0</ele><time>2022-11-17T21:16:02.0000000+00:00</time></trkpt><trkpt lat="39.47646336" lon="-0.3767844"><ele>6.0</ele><time>2022-11-17T21:16:03.0000000+00:00</time></trkpt><trkpt lat="39.47642623" lon="-0.37679572"><ele>6.2</ele><time>2022-11-17T21:16:04.0000000+00:00</time></trkpt><trkpt lat="39.47639722" lon="-0.37679454"><ele>6.2</ele><time>2022-11-17T21:16:05.0000000+00:00</time></trkpt><trkpt lat="39.47638859" lon="-0.37678381"><ele>6.4</ele><time>2022-11-17T21:16:06.0000000+00:00</time></trkpt><trkpt lat="39.47641064" lon="-0.37676705"><ele>6.4</ele><time>2022-11-17T21:16:07.0000000+00:00</time></trkpt><trkpt lat="39.47641248" lon="-0.37674635"><ele>6.4</ele><time>2022-11-17T21:16:08.0000000+00:00</time></trkpt><trkpt lat="39.47640519" lon="-0.37673218"><ele>6.4</ele><time>2022-11-17T21:16:09.0000000+00:00</time></trkpt><trkpt lat="39.47639211" lon="-0.37672455"><ele>6.2</ele><time>2022-11-17T21:16:10.0000000+00:00</time></trkpt><trkpt lat="39.47637434" lon="-0.37671114"><ele>6.2</ele><time>2022-11-17T21:16:11.0000000+00:00</time></trkpt><trkpt lat="39.47635775" lon="-0.37669756"><ele>6.2</ele><time>2022-11-17T21:16:12.0000000+00:00</time></trkpt><trkpt lat="39.47634442" lon="-0.37668633"><ele>6.2</ele><time>2022-11-17T21:16:13.0000000+00:00</time></trkpt><trkpt lat="39.47634216" lon="-0.37667921"><ele>6.2</ele><time>2022-11-17T21:16:14.0000000+00:00</time></trkpt><trkpt lat="39.47633134" lon="-0.37667569"><ele>6.2</ele><time>2022-11-17T21:16:15.0000000+00:00</time></trkpt><trkpt lat="39.47632003" lon="-0.37667133"><ele>6.2</ele><time>2022-11-17T21:16:16.0000000+00:00</time></trkpt><trkpt lat="39.47633017" lon="-0.37665867"><ele>6.2</ele><time>2022-11-17T21:16:17.0000000+00:00</time></trkpt><trkpt lat="39.4763621" lon="-0.3766197"><ele>6.4</ele><time>2022-11-17T21:16:18.0000000+00:00</time></trkpt><trkpt lat="39.47639354" lon="-0.37657293"><ele>6.4</ele><time>2022-11-17T21:16:19.0000000+00:00</time></trkpt><trkpt lat="39.47636697" lon="-0.37655164"><ele>6.4</ele><time>2022-11-17T21:16:20.0000000+00:00</time></trkpt><trkpt lat="39.4763497" lon="-0.37654334"><ele>6.4</ele><time>2022-11-17T21:16:21.0000000+00:00</time></trkpt><trkpt lat="39.4763471" lon="-0.37652389"><ele>6.4</ele><time>2022-11-17T21:16:22.0000000+00:00</time></trkpt><trkpt lat="39.47634283" lon="-0.37650243"><ele>6.4</ele><time>2022-11-17T21:16:23.0000000+00:00</time></trkpt><trkpt lat="39.47636546" lon="-0.37646438"><ele>6.4</ele><time>2022-11-17T21:16:24.0000000+00:00</time></trkpt><trkpt lat="39.47638197" lon="-0.37644108"><ele>6.4</ele><time>2022-11-17T21:16:25.0000000+00:00</time></trkpt><trkpt lat="39.47641357" lon="-0.37640831"><ele>6.4</ele><time>2022-11-17T21:16:26.0000000+00:00</time></trkpt><trkpt lat="39.47642539" lon="-0.37638375"><ele>6.4</ele><time>2022-11-17T21:16:27.0000000+00:00</time></trkpt><trkpt lat="39.47641566" lon="-0.37634871"><ele>6.4</ele><time>2022-11-17T21:16:28.0000000+00:00</time></trkpt><trkpt lat="39.47642329" lon="-0.37631426"><ele>6.4</ele><time>2022-11-17T21:16:29.0000000+00:00</time></trkpt><trkpt lat="39.47642354" lon="-0.37628467"><ele>6.4</ele><time>2022-11-17T21:16:30.0000000+00:00</time></trkpt><trkpt lat="39.47642983" lon="-0.37627554"><ele>6.4</ele><time>2022-11-17T21:16:31.0000000+00:00</time></trkpt><trkpt lat="39.4764419" lon="-0.37627202"><ele>6.4</ele><time>2022-11-17T21:16:32.0000000+00:00</time></trkpt><trkpt lat="39.47644718" lon="-0.37626213"><ele>6.4</ele><time>2022-11-17T21:16:33.0000000+00:00</time></trkpt><trkpt lat="39.4764476" lon="-0.37624545"><ele>6.4</ele><time>2022-11-17T21:16:34.0000000+00:00</time></trkpt><trkpt lat="39.47644559" lon="-0.37623162"><ele>6.4</ele><time>2022-11-17T21:16:35.0000000+00:00</time></trkpt><trkpt lat="39.47644215" lon="-0.37621527"><ele>6.4</ele><time>2022-11-17T21:16:36.0000000+00:00</time></trkpt><trkpt lat="39.47644995" lon="-0.37620806"><ele>6.4</ele><time>2022-11-17T21:16:37.0000000+00:00</time></trkpt><trkpt lat="39.47645917" lon="-0.37620739"><ele>6.4</ele><time>2022-11-17T21:16:38.0000000+00:00</time></trkpt><trkpt lat="39.47645422" lon="-0.37620798"><ele>6.6</ele><time>2022-11-17T21:16:39.0000000+00:00</time></trkpt><trkpt lat="39.47644232" lon="-0.37620169"><ele>6.6</ele><time>2022-11-17T21:16:40.0000000+00:00</time></trkpt><trkpt lat="39.47643301" lon="-0.37619163"><ele>6.6</ele><time>2022-11-17T21:16:41.0000000+00:00</time></trkpt><trkpt lat="39.47642153" lon="-0.37618199"><ele>6.6</ele><time>2022-11-17T21:16:42.0000000+00:00</time></trkpt><trkpt lat="39.47640192" lon="-0.3761752"><ele>6.6</ele><time>2022-11-17T21:16:43.0000000+00:00</time></trkpt><trkpt lat="39.47638691" lon="-0.37617495"><ele>6.8</ele><time>2022-11-17T21:16:44.0000000+00:00</time></trkpt><trkpt lat="39.47637443" lon="-0.37617378"><ele>6.8</ele><time>2022-11-17T21:16:45.0000000+00:00</time></trkpt><trkpt lat="39.47637451" lon="-0.37617344"><ele>6.8</ele><time>2022-11-17T21:16:46.0000000+00:00</time></trkpt><trkpt lat="39.4764248" lon="-0.37616699"><ele>6.8</ele><time>2022-11-17T21:16:47.0000000+00:00</time></trkpt><trkpt lat="39.47640787" lon="-0.37616749"><ele>6.8</ele><time>2022-11-17T21:16:48.0000000+00:00</time></trkpt><trkpt lat="39.47642581" lon="-0.37615576"><ele>6.6</ele><time>2022-11-17T21:16:49.0000000+00:00</time></trkpt><trkpt lat="39.47643469" lon="-0.37614386"><ele>6.6</ele><time>2022-11-17T21:16:50.0000000+00:00</time></trkpt><trkpt lat="39.47644986" lon="-0.37612475"><ele>6.6</ele><time>2022-11-17T21:16:51.0000000+00:00</time></trkpt><trkpt lat="39.47645573" lon="-0.37610429"><ele>6.6</ele><time>2022-11-17T21:16:52.0000000+00:00</time></trkpt><trkpt lat="39.47644458" lon="-0.37609675"><ele>6.6</ele><time>2022-11-17T21:16:53.0000000+00:00</time></trkpt><trkpt lat="39.47642455" lon="-0.37608761"><ele>6.6</ele><time>2022-11-17T21:16:54.0000000+00:00</time></trkpt><trkpt lat="39.47640661" lon="-0.37607915"><ele>6.6</ele><time>2022-11-17T21:16:55.0000000+00:00</time></trkpt><trkpt lat="39.47638859" lon="-0.37607135"><ele>6.6</ele><time>2022-11-17T21:16:56.0000000+00:00</time></trkpt><trkpt lat="39.47637091" lon="-0.37606398"><ele>6.6</ele><time>2022-11-17T21:16:57.0000000+00:00</time></trkpt><trkpt lat="39.47635976" lon="-0.37605518"><ele>6.6</ele><time>2022-11-17T21:16:58.0000000+00:00</time></trkpt><trkpt lat="39.47634978" lon="-0.37604596"><ele>6.6</ele><time>2022-11-17T21:16:59.0000000+00:00</time></trkpt><trkpt lat="39.47634056" lon="-0.37603573"><ele>6.8</ele><time>2022-11-17T21:17:00.0000000+00:00</time></trkpt><trkpt lat="39.47634048" lon="-0.37601989"><ele>6.8</ele><time>2022-11-17T21:17:01.0000000+00:00</time></trkpt><trkpt lat="39.47633905" lon="-0.37601125"><ele>6.8</ele><time>2022-11-17T21:17:02.0000000+00:00</time></trkpt><trkpt lat="39.47633562" lon="-0.37600053"><ele>7.0</ele><time>2022-11-17T21:17:03.0000000+00:00</time></trkpt><trkpt lat="39.47632355" lon="-0.3759991"><ele>7.0</ele><time>2022-11-17T21:17:04.0000000+00:00</time></trkpt><trkpt lat="39.47631651" lon="-0.37599181"><ele>7.0</ele><time>2022-11-17T21:17:05.0000000+00:00</time></trkpt><trkpt lat="39.47631097" lon="-0.37598427"><ele>7.0</ele><time>2022-11-17T21:17:06.0000000+00:00</time></trkpt><trkpt lat="39.47629874" lon="-0.37596909"><ele>7.0</ele><time>2022-11-17T21:17:07.0000000+00:00</time></trkpt><trkpt lat="39.47627946" lon="-0.3759587"><ele>7.0</ele><time>2022-11-17T21:17:08.0000000+00:00</time></trkpt><trkpt lat="39.47627342" lon="-0.37594269"><ele>7.0</ele><time>2022-11-17T21:17:09.0000000+00:00</time></trkpt><trkpt lat="39.47629337" lon="-0.37592283"><ele>7.0</ele><time>2022-11-17T21:17:10.0000000+00:00</time></trkpt><trkpt lat="39.47632128" lon="-0.37589165"><ele>7.0</ele><time>2022-11-17T21:17:11.0000000+00:00</time></trkpt><trkpt lat="39.47632724" lon="-0.37586675"><ele>7.0</ele><time>2022-11-17T21:17:12.0000000+00:00</time></trkpt><trkpt lat="39.47633562" lon="-0.37584236"><ele>6.8</ele><time>2022-11-17T21:17:13.0000000+00:00</time></trkpt><trkpt lat="39.47633344" lon="-0.37582459"><ele>6.6</ele><time>2022-11-17T21:17:14.0000000+00:00</time></trkpt><trkpt lat="39.47632858" lon="-0.37580716"><ele>6.6</ele><time>2022-11-17T21:17:15.0000000+00:00</time></trkpt><trkpt lat="39.47631743" lon="-0.37579022"><ele>6.6</ele><time>2022-11-17T21:17:16.0000000+00:00</time></trkpt><trkpt lat="39.47630762" lon="-0.37577304"><ele>6.4</ele><time>2022-11-17T21:17:17.0000000+00:00</time></trkpt><trkpt lat="39.47630125" lon="-0.37575594"><ele>6.4</ele><time>2022-11-17T21:17:18.0000000+00:00</time></trkpt><trkpt lat="39.47628876" lon="-0.37574345"><ele>6.4</ele><time>2022-11-17T21:17:19.0000000+00:00</time></trkpt><trkpt lat="39.47628474" lon="-0.37572459"><ele>6.4</ele><time>2022-11-17T21:17:20.0000000+00:00</time></trkpt><trkpt lat="39.47628994" lon="-0.37570599"><ele>6.4</ele><time>2022-11-17T21:17:21.0000000+00:00</time></trkpt><trkpt lat="39.47629429" lon="-0.37568847"><ele>6.4</ele><time>2022-11-17T21:17:22.0000000+00:00</time></trkpt><trkpt lat="39.47628776" lon="-0.37568361"><ele>6.4</ele><time>2022-11-17T21:17:23.0000000+00:00</time></trkpt><trkpt lat="39.47628415" lon="-0.3756805"><ele>6.4</ele><time>2022-11-17T21:17:24.0000000+00:00</time></trkpt><trkpt lat="39.47627049" lon="-0.375679"><ele>6.4</ele><time>2022-11-17T21:17:25.0000000+00:00</time></trkpt><trkpt lat="39.47625741" lon="-0.37567522"><ele>6.4</ele><time>2022-11-17T21:17:26.0000000+00:00</time></trkpt><trkpt lat="39.47624417" lon="-0.37566927"><ele>6.4</ele><time>2022-11-17T21:17:27.0000000+00:00</time></trkpt><trkpt lat="39.47625909" lon="-0.37567003"><ele>6.4</ele><time>2022-11-17T21:17:28.0000000+00:00</time></trkpt><trkpt lat="39.47626739" lon="-0.37566374"><ele>6.4</ele><time>2022-11-17T21:17:29.0000000+00:00</time></trkpt><trkpt lat="39.47628172" lon="-0.37565083"><ele>6.6</ele><time>2022-11-17T21:17:30.0000000+00:00</time></trkpt><trkpt lat="39.47629706" lon="-0.37563876"><ele>6.6</ele><time>2022-11-17T21:17:31.0000000+00:00</time></trkpt><trkpt lat="39.47630804" lon="-0.37562535"><ele>6.6</ele><time>2022-11-17T21:17:32.0000000+00:00</time></trkpt><trkpt lat="39.47631835" lon="-0.37560993"><ele>6.6</ele><time>2022-11-17T21:17:33.0000000+00:00</time></trkpt><trkpt lat="39.47633134" lon="-0.37560155"><ele>6.6</ele><time>2022-11-17T21:17:34.0000000+00:00</time></trkpt><trkpt lat="39.47633545" lon="-0.37558612"><ele>6.6</ele><time>2022-11-17T21:17:35.0000000+00:00</time></trkpt><trkpt lat="39.47634341" lon="-0.37557313"><ele>6.6</ele><time>2022-11-17T21:17:36.0000000+00:00</time></trkpt><trkpt lat="39.47635498" lon="-0.37555729"><ele>6.6</ele><time>2022-11-17T21:17:37.0000000+00:00</time></trkpt><trkpt lat="39.47636562" lon="-0.37554472"><ele>6.4</ele><time>2022-11-17T21:17:38.0000000+00:00</time></trkpt><trkpt lat="39.47638038" lon="-0.37553089"><ele>6.4</ele><time>2022-11-17T21:17:39.0000000+00:00</time></trkpt><trkpt lat="39.47639077" lon="-0.37551966"><ele>6.4</ele><time>2022-11-17T21:17:40.0000000+00:00</time></trkpt><trkpt lat="39.47639446" lon="-0.37551312"><ele>6.4</ele><time>2022-11-17T21:17:41.0000000+00:00</time></trkpt><trkpt lat="39.47639647" lon="-0.37550457"><ele>6.4</ele><time>2022-11-17T21:17:42.0000000+00:00</time></trkpt><trkpt lat="39.47640142" lon="-0.3754904"><ele>6.2</ele><time>2022-11-17T21:17:43.0000000+00:00</time></trkpt><trkpt lat="39.4764082" lon="-0.37548278"><ele>6.2</ele><time>2022-11-17T21:17:44.0000000+00:00</time></trkpt><trkpt lat="39.47641734" lon="-0.37546601"><ele>6.2</ele><time>2022-11-17T21:17:45.0000000+00:00</time></trkpt><trkpt lat="39.47643025" lon="-0.37544497"><ele>6.2</ele><time>2022-11-17T21:17:46.0000000+00:00</time></trkpt><trkpt lat="39.47643645" lon="-0.37542192"><ele>6.2</ele><time>2022-11-17T21:17:47.0000000+00:00</time></trkpt><trkpt lat="39.47644324" lon="-0.37540063"><ele>6.2</ele><time>2022-11-17T21:17:48.0000000+00:00</time></trkpt><trkpt lat="39.47645397" lon="-0.37537909"><ele>6.2</ele><time>2022-11-17T21:17:49.0000000+00:00</time></trkpt><trkpt lat="39.47645699" lon="-0.37536669"><ele>6.2</ele><time>2022-11-17T21:17:50.0000000+00:00</time></trkpt><trkpt lat="39.47646956" lon="-0.37535059"><ele>6.2</ele><time>2022-11-17T21:17:51.0000000+00:00</time></trkpt><trkpt lat="39.47647601" lon="-0.37533307"><ele>6.2</ele><time>2022-11-17T21:17:52.0000000+00:00</time></trkpt><trkpt lat="39.47647803" lon="-0.37531505"><ele>6.0</ele><time>2022-11-17T21:17:53.0000000+00:00</time></trkpt><trkpt lat="39.4764735" lon="-0.37529879"><ele>6.0</ele><time>2022-11-17T21:17:54.0000000+00:00</time></trkpt><trkpt lat="39.47646688" lon="-0.3752863"><ele>5.8</ele><time>2022-11-17T21:17:55.0000000+00:00</time></trkpt><trkpt lat="39.47646411" lon="-0.37527993"><ele>5.8</ele><time>2022-11-17T21:17:56.0000000+00:00</time></trkpt><trkpt lat="39.47647233" lon="-0.37527231"><ele>5.8</ele><time>2022-11-17T21:17:57.0000000+00:00</time></trkpt><trkpt lat="39.47648054" lon="-0.37526426"><ele>6.0</ele><time>2022-11-17T21:17:58.0000000+00:00</time></trkpt><trkpt lat="39.47648549" lon="-0.37525035"><ele>6.0</ele><time>2022-11-17T21:17:59.0000000+00:00</time></trkpt><trkpt lat="39.47648959" lon="-0.37523702"><ele>6.0</ele><time>2022-11-17T21:18:00.0000000+00:00</time></trkpt><trkpt lat="39.47649119" lon="-0.37522302"><ele>6.0</ele><time>2022-11-17T21:18:01.0000000+00:00</time></trkpt><trkpt lat="39.47649345" lon="-0.37521103"><ele>6.0</ele><time>2022-11-17T21:18:02.0000000+00:00</time></trkpt><trkpt lat="39.47649655" lon="-0.37519896"><ele>6.0</ele><time>2022-11-17T21:18:03.0000000+00:00</time></trkpt><trkpt lat="39.47649647" lon="-0.37519092"><ele>6.0</ele><time>2022-11-17T21:18:04.0000000+00:00</time></trkpt><trkpt lat="39.47650493" lon="-0.37518706"><ele>6.0</ele><time>2022-11-17T21:18:05.0000000+00:00</time></trkpt><trkpt lat="39.47651851" lon="-0.37518396"><ele>6.0</ele><time>2022-11-17T21:18:06.0000000+00:00</time></trkpt><trkpt lat="39.47653092" lon="-0.37518455"><ele>6.0</ele><time>2022-11-17T21:18:07.0000000+00:00</time></trkpt><trkpt lat="39.47654299" lon="-0.37518991"><ele>5.8</ele><time>2022-11-17T21:18:08.0000000+00:00</time></trkpt><trkpt lat="39.47655321" lon="-0.37519955"><ele>5.8</ele><time>2022-11-17T21:18:09.0000000+00:00</time></trkpt><trkpt lat="39.47657039" lon="-0.37519947"><ele>5.8</ele><time>2022-11-17T21:18:10.0000000+00:00</time></trkpt><trkpt lat="39.47658372" lon="-0.37519863"><ele>6.0</ele><time>2022-11-17T21:18:11.0000000+00:00</time></trkpt><trkpt lat="39.4765937" lon="-0.37520324"><ele>6.0</ele><time>2022-11-17T21:18:12.0000000+00:00</time></trkpt><trkpt lat="39.47660577" lon="-0.37520751"><ele>6.0</ele><time>2022-11-17T21:18:13.0000000+00:00</time></trkpt><trkpt lat="39.47662094" lon="-0.37520223"><ele>6.0</ele><time>2022-11-17T21:18:14.0000000+00:00</time></trkpt><trkpt lat="39.47663351" lon="-0.37520098"><ele>6.0</ele><time>2022-11-17T21:18:15.0000000+00:00</time></trkpt><trkpt lat="39.47663913" lon="-0.37519896"><ele>6.0</ele><time>2022-11-17T21:18:16.0000000+00:00</time></trkpt><trkpt lat="39.47665824" lon="-0.3751993"><ele>6.0</ele><time>2022-11-17T21:18:17.0000000+00:00</time></trkpt><trkpt lat="39.4766719" lon="-0.37519905"><ele>6.0</ele><time>2022-11-17T21:18:18.0000000+00:00</time></trkpt><trkpt lat="39.47668808" lon="-0.37519377"><ele>6.0</ele><time>2022-11-17T21:18:19.0000000+00:00</time></trkpt><trkpt lat="39.47670853" lon="-0.3751874"><ele>6.0</ele><time>2022-11-17T21:18:20.0000000+00:00</time></trkpt><trkpt lat="39.47675337" lon="-0.37520911"><ele>6.0</ele><time>2022-11-17T21:18:21.0000000+00:00</time></trkpt><trkpt lat="39.4767957" lon="-0.37522763"><ele>6.0</ele><time>2022-11-17T21:18:22.0000000+00:00</time></trkpt><trkpt lat="39.476833" lon="-0.37523844"><ele>6.0</ele><time>2022-11-17T21:18:23.0000000+00:00</time></trkpt><trkpt lat="39.47687005" lon="-0.3752511"><ele>6.0</ele><time>2022-11-17T21:18:24.0000000+00:00</time></trkpt><trkpt lat="39.47690349" lon="-0.37525395"><ele>6.0</ele><time>2022-11-17T21:18:25.0000000+00:00</time></trkpt><trkpt lat="39.47695831" lon="-0.37527474"><ele>5.8</ele><time>2022-11-17T21:18:26.0000000+00:00</time></trkpt><trkpt lat="39.4769708" lon="-0.37526594"><ele>5.8</ele><time>2022-11-17T21:18:27.0000000+00:00</time></trkpt><trkpt lat="39.47699427" lon="-0.3752599"><ele>5.8</ele><time>2022-11-17T21:18:28.0000000+00:00</time></trkpt><trkpt lat="39.47701824" lon="-0.3752589"><ele>5.8</ele><time>2022-11-17T21:18:29.0000000+00:00</time></trkpt><trkpt lat="39.47703442" lon="-0.37525722"><ele>5.8</ele><time>2022-11-17T21:18:30.0000000+00:00</time></trkpt><trkpt lat="39.47703961" lon="-0.37527935"><ele>5.6</ele><time>2022-11-17T21:18:31.0000000+00:00</time></trkpt><trkpt lat="39.47706736" lon="-0.37527516"><ele>5.6</ele><time>2022-11-17T21:18:32.0000000+00:00</time></trkpt><trkpt lat="39.47716417" lon="-0.37533416"><ele>5.6</ele><time>2022-11-17T21:18:33.0000000+00:00</time></trkpt><trkpt lat="39.47719116" lon="-0.3752796"><ele>5.6</ele><time>2022-11-17T21:18:34.0000000+00:00</time></trkpt><trkpt lat="39.4772329" lon="-0.37528102"><ele>5.6</ele><time>2022-11-17T21:18:35.0000000+00:00</time></trkpt><trkpt lat="39.47724606" lon="-0.37526367"><ele>5.6</ele><time>2022-11-17T21:18:36.0000000+00:00</time></trkpt><trkpt lat="39.47724874" lon="-0.37523216"><ele>5.6</ele><time>2022-11-17T21:18:37.0000000+00:00</time></trkpt><trkpt lat="39.47724338" lon="-0.37522143"><ele>5.6</ele><time>2022-11-17T21:18:38.0000000+00:00</time></trkpt><trkpt lat="39.47724271" lon="-0.37518136"><ele>5.6</ele><time>2022-11-17T21:18:39.0000000+00:00</time></trkpt><trkpt lat="39.47724531" lon="-0.37515731"><ele>5.6</ele><time>2022-11-17T21:18:40.0000000+00:00</time></trkpt><trkpt lat="39.47724883" lon="-0.37513685"><ele>5.6</ele><time>2022-11-17T21:18:41.0000000+00:00</time></trkpt><trkpt lat="39.4772557" lon="-0.37511841"><ele>5.8</ele><time>2022-11-17T21:18:42.0000000+00:00</time></trkpt><trkpt lat="39.47726165" lon="-0.37510215"><ele>5.8</ele><time>2022-11-17T21:18:43.0000000+00:00</time></trkpt><trkpt lat="39.47727288" lon="-0.37509771"><ele>5.8</ele><time>2022-11-17T21:18:44.0000000+00:00</time></trkpt><trkpt lat="39.47728755" lon="-0.37509562"><ele>5.8</ele><time>2022-11-17T21:18:45.0000000+00:00</time></trkpt><trkpt lat="39.4773049" lon="-0.3750957"><ele>5.8</ele><time>2022-11-17T21:18:46.0000000+00:00</time></trkpt><trkpt lat="39.47729887" lon="-0.37507223"><ele>5.8</ele><time>2022-11-17T21:18:47.0000000+00:00</time></trkpt><trkpt lat="39.47729996" lon="-0.37505463"><ele>5.8</ele><time>2022-11-17T21:18:48.0000000+00:00</time></trkpt><trkpt lat="39.47730306" lon="-0.37504549"><ele>5.8</ele><time>2022-11-17T21:18:49.0000000+00:00</time></trkpt><trkpt lat="39.47730096" lon="-0.37502999"><ele>5.8</ele><time>2022-11-17T21:18:50.0000000+00:00</time></trkpt><trkpt lat="39.47733365" lon="-0.37504055"><ele>5.8</ele><time>2022-11-17T21:18:51.0000000+00:00</time></trkpt><trkpt lat="39.47732829" lon="-0.37499461"><ele>5.6</ele><time>2022-11-17T21:18:52.0000000+00:00</time></trkpt><trkpt lat="39.47732267" lon="-0.37508522"><ele>5.6</ele><time>2022-11-17T21:18:53.0000000+00:00</time></trkpt><trkpt lat="39.47731529" lon="-0.37509042"><ele>5.6</ele><time>2022-11-17T21:18:54.0000000+00:00</time></trkpt><trkpt lat="39.47731362" lon="-0.37510081"><ele>5.6</ele><time>2022-11-17T21:18:55.0000000+00:00</time></trkpt><trkpt lat="39.4773085" lon="-0.37511271"><ele>5.6</ele><time>2022-11-17T21:18:56.0000000+00:00</time></trkpt><trkpt lat="39.47730088" lon="-0.37511691"><ele>5.6</ele><time>2022-11-17T21:18:57.0000000+00:00</time></trkpt><trkpt lat="39.47729635" lon="-0.37511263"><ele>5.6</ele><time>2022-11-17T21:18:58.0000000+00:00</time></trkpt><trkpt lat="39.4772982" lon="-0.37508371"><ele>5.6</ele><time>2022-11-17T21:18:59.0000000+00:00</time></trkpt><trkpt lat="39.47730331" lon="-0.37505899"><ele>5.6</ele><time>2022-11-17T21:19:00.0000000+00:00</time></trkpt><trkpt lat="39.4773401" lon="-0.37504692"><ele>5.6</ele><time>2022-11-17T21:19:01.0000000+00:00</time></trkpt><trkpt lat="39.4773645" lon="-0.37505329"><ele>5.6</ele><time>2022-11-17T21:19:02.0000000+00:00</time></trkpt><trkpt lat="39.47739241" lon="-0.3750413"><ele>5.6</ele><time>2022-11-17T21:19:03.0000000+00:00</time></trkpt><trkpt lat="39.47742233" lon="-0.37503325"><ele>5.6</ele><time>2022-11-17T21:19:04.0000000+00:00</time></trkpt><trkpt lat="39.47744999" lon="-0.37501205"><ele>5.6</ele><time>2022-11-17T21:19:05.0000000+00:00</time></trkpt><trkpt lat="39.47745259" lon="-0.37497986"><ele>5.6</ele><time>2022-11-17T21:19:06.0000000+00:00</time></trkpt><trkpt lat="39.47745946" lon="-0.37493703"><ele>5.6</ele><time>2022-11-17T21:19:07.0000000+00:00</time></trkpt><trkpt lat="39.47746441" lon="-0.37492219"><ele>5.6</ele><time>2022-11-17T21:19:08.0000000+00:00</time></trkpt><trkpt lat="39.47747329" lon="-0.37490116"><ele>5.6</ele><time>2022-11-17T21:19:09.0000000+00:00</time></trkpt><trkpt lat="39.4774836" lon="-0.37488221"><ele>5.6</ele><time>2022-11-17T21:19:10.0000000+00:00</time></trkpt><trkpt lat="39.47749207" lon="-0.37488481"><ele>5.6</ele><time>2022-11-17T21:19:11.0000000+00:00</time></trkpt><trkpt lat="39.47749869" lon="-0.37487693"><ele>5.6</ele><time>2022-11-17T21:19:12.0000000+00:00</time></trkpt><trkpt lat="39.47751084" lon="-0.3748693"><ele>5.6</ele><time>2022-11-17T21:19:13.0000000+00:00</time></trkpt><trkpt lat="39.4775261" lon="-0.37486436"><ele>5.6</ele><time>2022-11-17T21:19:14.0000000+00:00</time></trkpt><trkpt lat="39.4775432" lon="-0.37485011"><ele>5.6</ele><time>2022-11-17T21:19:15.0000000+00:00</time></trkpt><trkpt lat="39.47755326" lon="-0.37484625"><ele>5.6</ele><time>2022-11-17T21:19:16.0000000+00:00</time></trkpt><trkpt lat="39.47755401" lon="-0.37484122"><ele>5.6</ele><time>2022-11-17T21:19:17.0000000+00:00</time></trkpt><trkpt lat="39.4775691" lon="-0.37482371"><ele>5.6</ele><time>2022-11-17T21:19:18.0000000+00:00</time></trkpt><trkpt lat="39.47759751" lon="-0.37479311"><ele>5.4</ele><time>2022-11-17T21:19:19.0000000+00:00</time></trkpt><trkpt lat="39.47761914" lon="-0.37477224"><ele>5.4</ele><time>2022-11-17T21:19:20.0000000+00:00</time></trkpt><trkpt lat="39.47764345" lon="-0.3747507"><ele>5.4</ele><time>2022-11-17T21:19:21.0000000+00:00</time></trkpt><trkpt lat="39.47765769" lon="-0.37473595"><ele>5.4</ele><time>2022-11-17T21:19:22.0000000+00:00</time></trkpt><trkpt lat="39.47766356" lon="-0.37472379"><ele>5.4</ele><time>2022-11-17T21:19:23.0000000+00:00</time></trkpt><trkpt lat="39.47767496" lon="-0.37471097"><ele>5.4</ele><time>2022-11-17T21:19:24.0000000+00:00</time></trkpt><trkpt lat="39.4776872" lon="-0.3747155"><ele>5.4</ele><time>2022-11-17T21:19:25.0000000+00:00</time></trkpt><trkpt lat="39.47768611" lon="-0.37474953"><ele>5.4</ele><time>2022-11-17T21:19:26.0000000+00:00</time></trkpt><trkpt lat="39.47768862" lon="-0.37475665"><ele>5.4</ele><time>2022-11-17T21:19:27.0000000+00:00</time></trkpt><trkpt lat="39.47769223" lon="-0.37474114"><ele>5.4</ele><time>2022-11-17T21:19:28.0000000+00:00</time></trkpt><trkpt lat="39.47769499" lon="-0.37473377"><ele>5.4</ele><time>2022-11-17T21:19:29.0000000+00:00</time></trkpt><trkpt lat="39.47770572" lon="-0.37476176"><ele>5.4</ele><time>2022-11-17T21:19:30.0000000+00:00</time></trkpt><trkpt lat="39.47771318" lon="-0.37475263"><ele>5.4</ele><time>2022-11-17T21:19:31.0000000+00:00</time></trkpt><trkpt lat="39.47772022" lon="-0.37472832"><ele>5.4</ele><time>2022-11-17T21:19:32.0000000+00:00</time></trkpt><trkpt lat="39.4777271" lon="-0.37472296"><ele>5.4</ele><time>2022-11-17T21:19:33.0000000+00:00</time></trkpt><trkpt lat="39.47774646" lon="-0.37471566"><ele>5.4</ele><time>2022-11-17T21:19:34.0000000+00:00</time></trkpt><trkpt lat="39.47776264" lon="-0.37472312"><ele>5.4</ele><time>2022-11-17T21:19:35.0000000+00:00</time></trkpt><trkpt lat="39.47778133" lon="-0.37475003"><ele>5.2</ele><time>2022-11-17T21:19:36.0000000+00:00</time></trkpt><trkpt lat="39.47780924" lon="-0.37477409"><ele>5.2</ele><time>2022-11-17T21:19:37.0000000+00:00</time></trkpt><trkpt lat="39.477826" lon="-0.37478255"><ele>5.2</ele><time>2022-11-17T21:19:38.0000000+00:00</time></trkpt><trkpt lat="39.47785006" lon="-0.3747932"><ele>5.2</ele><time>2022-11-17T21:19:39.0000000+00:00</time></trkpt><trkpt lat="39.47786473" lon="-0.37476151"><ele>5.2</ele><time>2022-11-17T21:19:40.0000000+00:00</time></trkpt><trkpt lat="39.47787847" lon="-0.37475539"><ele>5.0</ele><time>2022-11-17T21:19:41.0000000+00:00</time></trkpt><trkpt lat="39.47789155" lon="-0.37474911"><ele>5.0</ele><time>2022-11-17T21:19:42.0000000+00:00</time></trkpt><trkpt lat="39.47790597" lon="-0.37473637"><ele>5.0</ele><time>2022-11-17T21:19:43.0000000+00:00</time></trkpt><trkpt lat="39.47791862" lon="-0.37472656"><ele>5.0</ele><time>2022-11-17T21:19:44.0000000+00:00</time></trkpt><trkpt lat="39.47792826" lon="-0.37472572"><ele>5.0</ele><time>2022-11-17T21:19:45.0000000+00:00</time></trkpt><trkpt lat="39.47793514" lon="-0.37472933"><ele>5.0</ele><time>2022-11-17T21:19:46.0000000+00:00</time></trkpt><trkpt lat="39.47794695" lon="-0.37473352"><ele>5.0</ele><time>2022-11-17T21:19:47.0000000+00:00</time></trkpt><trkpt lat="39.47795768" lon="-0.37473737"><ele>5.0</ele><time>2022-11-17T21:19:48.0000000+00:00</time></trkpt><trkpt lat="39.47795039" lon="-0.37474802"><ele>5.0</ele><time>2022-11-17T21:19:49.0000000+00:00</time></trkpt><trkpt lat="39.47795366" lon="-0.37475841"><ele>5.2</ele><time>2022-11-17T21:19:50.0000000+00:00</time></trkpt><trkpt lat="39.47795148" lon="-0.37476277"><ele>5.2</ele><time>2022-11-17T21:19:51.0000000+00:00</time></trkpt><trkpt lat="39.47794771" lon="-0.37476528"><ele>5.2</ele><time>2022-11-17T21:19:52.0000000+00:00</time></trkpt><trkpt lat="39.47794218" lon="-0.37475187"><ele>5.2</ele><time>2022-11-17T21:19:53.0000000+00:00</time></trkpt><trkpt lat="39.47793623" lon="-0.37476168"><ele>5.2</ele><time>2022-11-17T21:19:54.0000000+00:00</time></trkpt><trkpt lat="39.4779224" lon="-0.37480946"><ele>5.2</ele><time>2022-11-17T21:19:55.0000000+00:00</time></trkpt><trkpt lat="39.47791334" lon="-0.37483301"><ele>5.4</ele><time>2022-11-17T21:19:56.0000000+00:00</time></trkpt><trkpt lat="39.47791292" lon="-0.37486243"><ele>5.4</ele><time>2022-11-17T21:19:57.0000000+00:00</time></trkpt><trkpt lat="39.47792365" lon="-0.3748574"><ele>5.4</ele><time>2022-11-17T21:19:58.0000000+00:00</time></trkpt><trkpt lat="39.4779353" lon="-0.37485782"><ele>5.4</ele><time>2022-11-17T21:19:59.0000000+00:00</time></trkpt><trkpt lat="39.47794519" lon="-0.3748486"><ele>5.4</ele><time>2022-11-17T21:20:00.0000000+00:00</time></trkpt><trkpt lat="39.47796405" lon="-0.3748605"><ele>5.4</ele><time>2022-11-17T21:20:01.0000000+00:00</time></trkpt><trkpt lat="39.47798124" lon="-0.37484768"><ele>5.4</ele><time>2022-11-17T21:20:02.0000000+00:00</time></trkpt><trkpt lat="39.47799473" lon="-0.37484114"><ele>5.4</ele><time>2022-11-17T21:20:03.0000000+00:00</time></trkpt><trkpt lat="39.47800932" lon="-0.37482404"><ele>5.4</ele><time>2022-11-17T21:20:04.0000000+00:00</time></trkpt><trkpt lat="39.47802222" lon="-0.3748165"><ele>5.4</ele><time>2022-11-17T21:20:05.0000000+00:00</time></trkpt><trkpt lat="39.47803874" lon="-0.37480753"><ele>5.4</ele><time>2022-11-17T21:20:06.0000000+00:00</time></trkpt><trkpt lat="39.47805986" lon="-0.37480569"><ele>5.4</ele><time>2022-11-17T21:20:07.0000000+00:00</time></trkpt><trkpt lat="39.47808165" lon="-0.37480493"><ele>5.4</ele><time>2022-11-17T21:20:08.0000000+00:00</time></trkpt><trkpt lat="39.4781011" lon="-0.37479085"><ele>5.4</ele><time>2022-11-17T21:20:09.0000000+00:00</time></trkpt><trkpt lat="39.47812138" lon="-0.37478004"><ele>5.4</ele><time>2022-11-17T21:20:10.0000000+00:00</time></trkpt><trkpt lat="39.47814217" lon="-0.37477115"><ele>5.4</ele><time>2022-11-17T21:20:11.0000000+00:00</time></trkpt><trkpt lat="39.47815491" lon="-0.3747673"><ele>5.4</ele><time>2022-11-17T21:20:12.0000000+00:00</time></trkpt><trkpt lat="39.47817092" lon="-0.37475891"><ele>5.4</ele><time>2022-11-17T21:20:13.0000000+00:00</time></trkpt><trkpt lat="39.47818835" lon="-0.37474458"><ele>5.4</ele><time>2022-11-17T21:20:14.0000000+00:00</time></trkpt><trkpt lat="39.47820579" lon="-0.37472731"><ele>5.4</ele><time>2022-11-17T21:20:15.0000000+00:00</time></trkpt><trkpt lat="39.47822171" lon="-0.37471809"><ele>5.4</ele><time>2022-11-17T21:20:16.0000000+00:00</time></trkpt><trkpt lat="39.47823806" lon="-0.37470024"><ele>5.2</ele><time>2022-11-17T21:20:17.0000000+00:00</time></trkpt><trkpt lat="39.4782518" lon="-0.37470309"><ele>5.2</ele><time>2022-11-17T21:20:18.0000000+00:00</time></trkpt><trkpt lat="39.47826773" lon="-0.37469907"><ele>5.2</ele><time>2022-11-17T21:20:19.0000000+00:00</time></trkpt><trkpt lat="39.47828315" lon="-0.37469018"><ele>5.2</ele><time>2022-11-17T21:20:20.0000000+00:00</time></trkpt><trkpt lat="39.47829749" lon="-0.37468591"><ele>5.2</ele><time>2022-11-17T21:20:21.0000000+00:00</time></trkpt><trkpt lat="39.4783083" lon="-0.37468105"><ele>5.2</ele><time>2022-11-17T21:20:22.0000000+00:00</time></trkpt><trkpt lat="39.47831576" lon="-0.3746694"><ele>5.2</ele><time>2022-11-17T21:20:23.0000000+00:00</time></trkpt><trkpt lat="39.47832003" lon="-0.37467962"><ele>5.2</ele><time>2022-11-17T21:20:24.0000000+00:00</time></trkpt><trkpt lat="39.47832607" lon="-0.37467375"><ele>5.2</ele><time>2022-11-17T21:20:25.0000000+00:00</time></trkpt><trkpt lat="39.47833638" lon="-0.3746652"><ele>5.2</ele><time>2022-11-17T21:20:26.0000000+00:00</time></trkpt><trkpt lat="39.47835063" lon="-0.37466051"><ele>5.2</ele><time>2022-11-17T21:20:27.0000000+00:00</time></trkpt><trkpt lat="39.47836655" lon="-0.37465263"><ele>5.2</ele><time>2022-11-17T21:20:28.0000000+00:00</time></trkpt><trkpt lat="39.478386" lon="-0.37463134"><ele>5.2</ele><time>2022-11-17T21:20:29.0000000+00:00</time></trkpt><trkpt lat="39.47840536" lon="-0.37460913"><ele>5.2</ele><time>2022-11-17T21:20:30.0000000+00:00</time></trkpt><trkpt lat="39.47842221" lon="-0.37458608"><ele>5.2</ele><time>2022-11-17T21:20:31.0000000+00:00</time></trkpt><trkpt lat="39.47843461" lon="-0.37456697"><ele>5.2</ele><time>2022-11-17T21:20:32.0000000+00:00</time></trkpt><trkpt lat="39.47844576" lon="-0.37457233"><ele>5.2</ele><time>2022-11-17T21:20:33.0000000+00:00</time></trkpt><trkpt lat="39.47845884" lon="-0.37458046"><ele>5.4</ele><time>2022-11-17T21:20:34.0000000+00:00</time></trkpt><trkpt lat="39.47846982" lon="-0.37455674"><ele>5.4</ele><time>2022-11-17T21:20:35.0000000+00:00</time></trkpt><trkpt lat="39.47847728" lon="-0.3745497"><ele>5.4</ele><time>2022-11-17T21:20:36.0000000+00:00</time></trkpt><trkpt lat="39.47849563" lon="-0.37455926"><ele>5.6</ele><time>2022-11-17T21:20:37.0000000+00:00</time></trkpt><trkpt lat="39.47851298" lon="-0.37461315"><ele>5.6</ele><time>2022-11-17T21:20:38.0000000+00:00</time></trkpt><trkpt lat="39.47852514" lon="-0.37461969"><ele>5.6</ele><time>2022-11-17T21:20:39.0000000+00:00</time></trkpt><trkpt lat="39.47854031" lon="-0.37462983"><ele>5.2</ele><time>2022-11-17T21:20:40.0000000+00:00</time></trkpt><trkpt lat="39.47855414" lon="-0.37466487"><ele>5.2</ele><time>2022-11-17T21:20:41.0000000+00:00</time></trkpt><trkpt lat="39.47856001" lon="-0.3746041"><ele>5.0</ele><time>2022-11-17T21:20:42.0000000+00:00</time></trkpt><trkpt lat="39.47857183" lon="-0.37462782"><ele>5.0</ele><time>2022-11-17T21:20:43.0000000+00:00</time></trkpt><trkpt lat="39.47858783" lon="-0.37463059"><ele>5.0</ele><time>2022-11-17T21:20:44.0000000+00:00</time></trkpt><trkpt lat="39.47860074" lon="-0.37462841"><ele>4.8</ele><time>2022-11-17T21:20:45.0000000+00:00</time></trkpt><trkpt lat="39.47860988" lon="-0.3746181"><ele>4.8</ele><time>2022-11-17T21:20:46.0000000+00:00</time></trkpt><trkpt lat="39.47862991" lon="-0.37464324"><ele>4.8</ele><time>2022-11-17T21:20:47.0000000+00:00</time></trkpt><trkpt lat="39.47865573" lon="-0.37467803"><ele>4.8</ele><time>2022-11-17T21:20:48.0000000+00:00</time></trkpt><trkpt lat="39.47867358" lon="-0.37468809"><ele>4.8</ele><time>2022-11-17T21:20:49.0000000+00:00</time></trkpt><trkpt lat="39.47868967" lon="-0.37468188"><ele>4.8</ele><time>2022-11-17T21:20:50.0000000+00:00</time></trkpt><trkpt lat="39.47870619" lon="-0.37474249"><ele>4.8</ele><time>2022-11-17T21:20:51.0000000+00:00</time></trkpt><trkpt lat="39.478717" lon="-0.37472472"><ele>4.8</ele><time>2022-11-17T21:20:52.0000000+00:00</time></trkpt><trkpt lat="39.47871851" lon="-0.37470628"><ele>4.8</ele><time>2022-11-17T21:20:53.0000000+00:00</time></trkpt><trkpt lat="39.47872689" lon="-0.37471918"><ele>4.8</ele><time>2022-11-17T21:20:54.0000000+00:00</time></trkpt><trkpt lat="39.47873318" lon="-0.37471583"><ele>4.8</ele><time>2022-11-17T21:20:55.0000000+00:00</time></trkpt><trkpt lat="39.47874097" lon="-0.37470955"><ele>4.8</ele><time>2022-11-17T21:20:56.0000000+00:00</time></trkpt><trkpt lat="39.47874349" lon="-0.37470812"><ele>4.8</ele><time>2022-11-17T21:20:57.0000000+00:00</time></trkpt><trkpt lat="39.47874843" lon="-0.37471214"><ele>4.8</ele><time>2022-11-17T21:20:58.0000000+00:00</time></trkpt><trkpt lat="39.47875463" lon="-0.37472011"><ele>4.6</ele><time>2022-11-17T21:20:59.0000000+00:00</time></trkpt><trkpt lat="39.47876855" lon="-0.37471667"><ele>4.6</ele><time>2022-11-17T21:21:00.0000000+00:00</time></trkpt><trkpt lat="39.47878028" lon="-0.37472363"><ele>4.6</ele><time>2022-11-17T21:21:01.0000000+00:00</time></trkpt><trkpt lat="39.47879336" lon="-0.37472815"><ele>4.6</ele><time>2022-11-17T21:21:02.0000000+00:00</time></trkpt><trkpt lat="39.47880451" lon="-0.3747362"><ele>4.6</ele><time>2022-11-17T21:21:03.0000000+00:00</time></trkpt><trkpt lat="39.47881037" lon="-0.37474467"><ele>4.6</ele><time>2022-11-17T21:21:04.0000000+00:00</time></trkpt><trkpt lat="39.47880954" lon="-0.37474534"><ele>4.6</ele><time>2022-11-17T21:21:05.0000000+00:00</time></trkpt><trkpt lat="39.47880417" lon="-0.37475548"><ele>4.6</ele><time>2022-11-17T21:21:06.0000000+00:00</time></trkpt><trkpt lat="39.47880803" lon="-0.37477467"><ele>4.6</ele><time>2022-11-17T21:21:07.0000000+00:00</time></trkpt><trkpt lat="39.47880593" lon="-0.37477308"><ele>4.6</ele><time>2022-11-17T21:21:08.0000000+00:00</time></trkpt><trkpt lat="39.47881004" lon="-0.37477568"><ele>4.6</ele><time>2022-11-17T21:21:09.0000000+00:00</time></trkpt><trkpt lat="39.47880996" lon="-0.37477501"><ele>4.6</ele><time>2022-11-17T21:21:10.0000000+00:00</time></trkpt><trkpt lat="39.47880937" lon="-0.37477409"><ele>4.6</ele><time>2022-11-17T21:21:11.0000000+00:00</time></trkpt><trkpt lat="39.47880954" lon="-0.37478163"><ele>4.6</ele><time>2022-11-17T21:21:12.0000000+00:00</time></trkpt><trkpt lat="39.4788118" lon="-0.37477836"><ele>4.6</ele><time>2022-11-17T21:21:13.0000000+00:00</time></trkpt><trkpt lat="39.47881473" lon="-0.37477777"><ele>4.6</ele><time>2022-11-17T21:21:14.0000000+00:00</time></trkpt><trkpt lat="39.47881959" lon="-0.37477886"><ele>4.4</ele><time>2022-11-17T21:21:15.0000000+00:00</time></trkpt><trkpt lat="39.4788263" lon="-0.37477652"><ele>4.4</ele><time>2022-11-17T21:21:16.0000000+00:00</time></trkpt><trkpt lat="39.47883225" lon="-0.374774"><ele>4.4</ele><time>2022-11-17T21:21:17.0000000+00:00</time></trkpt><trkpt lat="39.47883988" lon="-0.37477107"><ele>4.4</ele><time>2022-11-17T21:21:18.0000000+00:00</time></trkpt><trkpt lat="39.47884575" lon="-0.37476964"><ele>4.4</ele><time>2022-11-17T21:21:19.0000000+00:00</time></trkpt><trkpt lat="39.4788548" lon="-0.37476621"><ele>4.4</ele><time>2022-11-17T21:21:20.0000000+00:00</time></trkpt><trkpt lat="39.47887315" lon="-0.37476361"><ele>4.4</ele><time>2022-11-17T21:21:21.0000000+00:00</time></trkpt><trkpt lat="39.4788843" lon="-0.37475858"><ele>4.4</ele><time>2022-11-17T21:21:22.0000000+00:00</time></trkpt><trkpt lat="39.47889579" lon="-0.37474995"><ele>4.4</ele><time>2022-11-17T21:21:23.0000000+00:00</time></trkpt><trkpt lat="39.47890886" lon="-0.37475037"><ele>4.4</ele><time>2022-11-17T21:21:24.0000000+00:00</time></trkpt><trkpt lat="39.47892102" lon="-0.3747486"><ele>4.4</ele><time>2022-11-17T21:21:25.0000000+00:00</time></trkpt><trkpt lat="39.47893275" lon="-0.37474684"><ele>4.4</ele><time>2022-11-17T21:21:26.0000000+00:00</time></trkpt><trkpt lat="39.47894859" lon="-0.3747424"><ele>4.4</ele><time>2022-11-17T21:21:27.0000000+00:00</time></trkpt><trkpt lat="39.47895563" lon="-0.37473838"><ele>4.4</ele><time>2022-11-17T21:21:28.0000000+00:00</time></trkpt><trkpt lat="39.47896494" lon="-0.37473595"><ele>4.2</ele><time>2022-11-17T21:21:29.0000000+00:00</time></trkpt><trkpt lat="39.4789667" lon="-0.37473503"><ele>4.2</ele><time>2022-11-17T21:21:30.0000000+00:00</time></trkpt><trkpt lat="39.47897097" lon="-0.374731"><ele>4.2</ele><time>2022-11-17T21:21:31.0000000+00:00</time></trkpt><trkpt lat="39.47897164" lon="-0.37473192"><ele>4.2</ele><time>2022-11-17T21:21:32.0000000+00:00</time></trkpt><trkpt lat="39.47897927" lon="-0.37473092"><ele>4.2</ele><time>2022-11-17T21:21:33.0000000+00:00</time></trkpt><trkpt lat="39.47898212" lon="-0.37473151"><ele>4.2</ele><time>2022-11-17T21:21:34.0000000+00:00</time></trkpt><trkpt lat="39.47898472" lon="-0.37473369"><ele>4.2</ele><time>2022-11-17T21:21:35.0000000+00:00</time></trkpt><trkpt lat="39.47899553" lon="-0.37473662"><ele>4.2</ele><time>2022-11-17T21:21:36.0000000+00:00</time></trkpt><trkpt lat="39.47900768" lon="-0.37474542"><ele>4.2</ele><time>2022-11-17T21:21:37.0000000+00:00</time></trkpt><trkpt lat="39.47901573" lon="-0.3747569"><ele>4.2</ele><time>2022-11-17T21:21:38.0000000+00:00</time></trkpt><trkpt lat="39.47902981" lon="-0.37476579"><ele>4.2</ele><time>2022-11-17T21:21:39.0000000+00:00</time></trkpt><trkpt lat="39.47904482" lon="-0.37476973"><ele>4.2</ele><time>2022-11-17T21:21:40.0000000+00:00</time></trkpt><trkpt lat="39.47905781" lon="-0.37477777"><ele>4.2</ele><time>2022-11-17T21:21:41.0000000+00:00</time></trkpt><trkpt lat="39.47907072" lon="-0.37479127"><ele>4.2</ele><time>2022-11-17T21:21:42.0000000+00:00</time></trkpt><trkpt lat="39.47908019" lon="-0.37480669"><ele>4.2</ele><time>2022-11-17T21:21:43.0000000+00:00</time></trkpt><trkpt lat="39.47909226" lon="-0.37481784"><ele>4.4</ele><time>2022-11-17T21:21:44.0000000+00:00</time></trkpt><trkpt lat="39.47910584" lon="-0.37482337"><ele>4.4</ele><time>2022-11-17T21:21:45.0000000+00:00</time></trkpt><trkpt lat="39.47911304" lon="-0.37483184"><ele>4.4</ele><time>2022-11-17T21:21:46.0000000+00:00</time></trkpt><trkpt lat="39.4791262" lon="-0.37483469"><ele>4.4</ele><time>2022-11-17T21:21:47.0000000+00:00</time></trkpt><trkpt lat="39.4791454" lon="-0.37483159"><ele>4.4</ele><time>2022-11-17T21:21:48.0000000+00:00</time></trkpt><trkpt lat="39.479163" lon="-0.37483343"><ele>4.4</ele><time>2022-11-17T21:21:49.0000000+00:00</time></trkpt><trkpt lat="39.47917281" lon="-0.37483854"><ele>4.4</ele><time>2022-11-17T21:21:50.0000000+00:00</time></trkpt><trkpt lat="39.47918002" lon="-0.37485489"><ele>4.4</ele><time>2022-11-17T21:21:51.0000000+00:00</time></trkpt><trkpt lat="39.47919033" lon="-0.37486889"><ele>4.2</ele><time>2022-11-17T21:21:52.0000000+00:00</time></trkpt><trkpt lat="39.47919938" lon="-0.37486863"><ele>4.4</ele><time>2022-11-17T21:21:53.0000000+00:00</time></trkpt><trkpt lat="39.47921027" lon="-0.37485908"><ele>4.4</ele><time>2022-11-17T21:21:54.0000000+00:00</time></trkpt><trkpt lat="39.47922721" lon="-0.37484835"><ele>4.4</ele><time>2022-11-17T21:21:55.0000000+00:00</time></trkpt><trkpt lat="39.47923173" lon="-0.37484458"><ele>4.4</ele><time>2022-11-17T21:21:56.0000000+00:00</time></trkpt><trkpt lat="39.47923123" lon="-0.37484173"><ele>4.4</ele><time>2022-11-17T21:21:57.0000000+00:00</time></trkpt><trkpt lat="39.47922385" lon="-0.37482371"><ele>4.6</ele><time>2022-11-17T21:21:58.0000000+00:00</time></trkpt><trkpt lat="39.47922067" lon="-0.37482278"><ele>4.6</ele><time>2022-11-17T21:21:59.0000000+00:00</time></trkpt><trkpt lat="39.47921991" lon="-0.37482731"><ele>4.6</ele><time>2022-11-17T21:22:00.0000000+00:00</time></trkpt><trkpt lat="39.47921899" lon="-0.37482756"><ele>4.6</ele><time>2022-11-17T21:22:01.0000000+00:00</time></trkpt><trkpt lat="39.4792169" lon="-0.37482689"><ele>4.6</ele><time>2022-11-17T21:22:02.0000000+00:00</time></trkpt><trkpt lat="39.47921673" lon="-0.3748253"><ele>4.6</ele><time>2022-11-17T21:22:03.0000000+00:00</time></trkpt><trkpt lat="39.47921681" lon="-0.37482547"><ele>4.6</ele><time>2022-11-17T21:22:04.0000000+00:00</time></trkpt><trkpt lat="39.47921891" lon="-0.37482446"><ele>4.6</ele><time>2022-11-17T21:22:05.0000000+00:00</time></trkpt><trkpt lat="39.47922536" lon="-0.37481709"><ele>4.4</ele><time>2022-11-17T21:22:06.0000000+00:00</time></trkpt><trkpt lat="39.47922662" lon="-0.37481239"><ele>4.6</ele><time>2022-11-17T21:22:07.0000000+00:00</time></trkpt><trkpt lat="39.47923089" lon="-0.3748103"><ele>4.6</ele><time>2022-11-17T21:22:08.0000000+00:00</time></trkpt><trkpt lat="39.4792345" lon="-0.37480535"><ele>4.4</ele><time>2022-11-17T21:22:09.0000000+00:00</time></trkpt><trkpt lat="39.47923886" lon="-0.37479965"><ele>4.4</ele><time>2022-11-17T21:22:10.0000000+00:00</time></trkpt><trkpt lat="39.47924238" lon="-0.37479462"><ele>4.4</ele><time>2022-11-17T21:22:11.0000000+00:00</time></trkpt><trkpt lat="39.47924741" lon="-0.37478339"><ele>4.4</ele><time>2022-11-17T21:22:12.0000000+00:00</time></trkpt><trkpt lat="39.47925529" lon="-0.37477283"><ele>4.4</ele><time>2022-11-17T21:22:13.0000000+00:00</time></trkpt><trkpt lat="39.47926149" lon="-0.37476026"><ele>4.4</ele><time>2022-11-17T21:22:14.0000000+00:00</time></trkpt><trkpt lat="39.47927465" lon="-0.37474978"><ele>4.4</ele><time>2022-11-17T21:22:15.0000000+00:00</time></trkpt><trkpt lat="39.47928898" lon="-0.37473804"><ele>4.4</ele><time>2022-11-17T21:22:16.0000000+00:00</time></trkpt><trkpt lat="39.47930155" lon="-0.37472648"><ele>4.4</ele><time>2022-11-17T21:22:17.0000000+00:00</time></trkpt><trkpt lat="39.47931044" lon="-0.3747155"><ele>4.4</ele><time>2022-11-17T21:22:18.0000000+00:00</time></trkpt><trkpt lat="39.47932586" lon="-0.37470368"><ele>4.4</ele><time>2022-11-17T21:22:19.0000000+00:00</time></trkpt><trkpt lat="39.47933609" lon="-0.37469395"><ele>4.4</ele><time>2022-11-17T21:22:20.0000000+00:00</time></trkpt><trkpt lat="39.47934413" lon="-0.37468976"><ele>4.6</ele><time>2022-11-17T21:22:21.0000000+00:00</time></trkpt><trkpt lat="39.4793495" lon="-0.37468733"><ele>4.4</ele><time>2022-11-17T21:22:22.0000000+00:00</time></trkpt><trkpt lat="39.4793531" lon="-0.37468649"><ele>4.4</ele><time>2022-11-17T21:22:23.0000000+00:00</time></trkpt><trkpt lat="39.47935377" lon="-0.37468473"><ele>4.2</ele><time>2022-11-17T21:22:24.0000000+00:00</time></trkpt><trkpt lat="39.47935386" lon="-0.37468071"><ele>4.2</ele><time>2022-11-17T21:22:25.0000000+00:00</time></trkpt><trkpt lat="39.47935964" lon="-0.37468021"><ele>4.2</ele><time>2022-11-17T21:22:26.0000000+00:00</time></trkpt><trkpt lat="39.47936299" lon="-0.37468054"><ele>4.2</ele><time>2022-11-17T21:22:27.0000000+00:00</time></trkpt><trkpt lat="39.4793692" lon="-0.37467887"><ele>4.2</ele><time>2022-11-17T21:22:28.0000000+00:00</time></trkpt><trkpt lat="39.47936936" lon="-0.37467862"><ele>4.2</ele><time>2022-11-17T21:22:29.0000000+00:00</time></trkpt><trkpt lat="39.47936878" lon="-0.37467761"><ele>4.0</ele><time>2022-11-17T21:22:30.0000000+00:00</time></trkpt><trkpt lat="39.47936961" lon="-0.37468197"><ele>4.0</ele><time>2022-11-17T21:22:31.0000000+00:00</time></trkpt><trkpt lat="39.47937213" lon="-0.37468876"><ele>4.0</ele><time>2022-11-17T21:22:32.0000000+00:00</time></trkpt><trkpt lat="39.47937288" lon="-0.37468608"><ele>3.8</ele><time>2022-11-17T21:22:33.0000000+00:00</time></trkpt><trkpt lat="39.47937246" lon="-0.37468465"><ele>3.8</ele><time>2022-11-17T21:22:34.0000000+00:00</time></trkpt><trkpt lat="39.47937104" lon="-0.37468591"><ele>3.8</ele><time>2022-11-17T21:22:35.0000000+00:00</time></trkpt><trkpt lat="39.47936961" lon="-0.37469102"><ele>3.8</ele><time>2022-11-17T21:22:36.0000000+00:00</time></trkpt><trkpt lat="39.4793697" lon="-0.37469395"><ele>3.8</ele><time>2022-11-17T21:22:37.0000000+00:00</time></trkpt><trkpt lat="39.47937037" lon="-0.3746968"><ele>3.8</ele><time>2022-11-17T21:22:38.0000000+00:00</time></trkpt><trkpt lat="39.47937112" lon="-0.37469789"><ele>3.8</ele><time>2022-11-17T21:22:39.0000000+00:00</time></trkpt><trkpt lat="39.47937112" lon="-0.37469789"><ele>3.8</ele><time>2022-11-17T21:22:40.0000000+00:00</time></trkpt><trkpt lat="39.47937112" lon="-0.37469789"><ele>4.0</ele><time>2022-11-17T21:22:41.0000000+00:00</time></trkpt><trkpt lat="39.47937112" lon="-0.37469789"><ele>4.0</ele><time>2022-11-17T21:22:42.0000000+00:00</time></trkpt><trkpt lat="39.47937112" lon="-0.37469789"><ele>4.0</ele><time>2022-11-17T21:22:43.0000000+00:00</time></trkpt><trkpt lat="39.47937112" lon="-0.37469789"><ele>4.0</ele><time>2022-11-17T21:22:44.0000000+00:00</time></trkpt><trkpt lat="39.47937112" lon="-0.37469789"><ele>4.0</ele><time>2022-11-17T21:22:45.0000000+00:00</time></trkpt><trkpt lat="39.47937112" lon="-0.37469789"><ele>4.0</ele><time>2022-11-17T21:22:46.0000000+00:00</time></trkpt><trkpt lat="39.47937112" lon="-0.3746968"><ele>4.0</ele><time>2022-11-17T21:22:47.0000000+00:00</time></trkpt><trkpt lat="39.47937112" lon="-0.37469639"><ele>3.8</ele><time>2022-11-17T21:22:48.0000000+00:00</time></trkpt><trkpt lat="39.47937112" lon="-0.3746958"><ele>3.8</ele><time>2022-11-17T21:22:49.0000000+00:00</time></trkpt><trkpt lat="39.47937112" lon="-0.37469504"><ele>4.0</ele><time>2022-11-17T21:22:50.0000000+00:00</time></trkpt><trkpt lat="39.47937104" lon="-0.37469496"><ele>4.0</ele><time>2022-11-17T21:22:51.0000000+00:00</time></trkpt><trkpt lat="39.47937054" lon="-0.37469437"><ele>4.0</ele><time>2022-11-17T21:22:52.0000000+00:00</time></trkpt><trkpt lat="39.47937045" lon="-0.37469404"><ele>4.0</ele><time>2022-11-17T21:22:53.0000000+00:00</time></trkpt><trkpt lat="39.47937037" lon="-0.37469362"><ele>4.0</ele><time>2022-11-17T21:22:54.0000000+00:00</time></trkpt><trkpt lat="39.4793702" lon="-0.37469328"><ele>4.0</ele><time>2022-11-17T21:22:55.0000000+00:00</time></trkpt><trkpt lat="39.4793702" lon="-0.37469303"><ele>4.0</ele><time>2022-11-17T21:22:56.0000000+00:00</time></trkpt><trkpt lat="39.4793702" lon="-0.37469245"><ele>4.0</ele><time>2022-11-17T21:22:57.0000000+00:00</time></trkpt><trkpt lat="39.4793702" lon="-0.37469119"><ele>4.0</ele><time>2022-11-17T21:22:58.0000000+00:00</time></trkpt><trkpt lat="39.4793702" lon="-0.37469102"><ele>3.8</ele><time>2022-11-17T21:22:59.0000000+00:00</time></trkpt><trkpt lat="39.4793702" lon="-0.37469052"><ele>3.8</ele><time>2022-11-17T21:23:00.0000000+00:00</time></trkpt><trkpt lat="39.47937037" lon="-0.37469043"><ele>3.8</ele><time>2022-11-17T21:23:01.0000000+00:00</time></trkpt><trkpt lat="39.47937037" lon="-0.37469043"><ele>3.6</ele><time>2022-11-17T21:23:02.0000000+00:00</time></trkpt><trkpt lat="39.47937037" lon="-0.37469043"><ele>3.4</ele><time>2022-11-17T21:23:03.0000000+00:00</time></trkpt><trkpt lat="39.47937037" lon="-0.37469043"><ele>3.2</ele><time>2022-11-17T21:23:04.0000000+00:00</time></trkpt><trkpt lat="39.47937431" lon="-0.37468675"><ele>3.0</ele><time>2022-11-17T21:23:05.0000000+00:00</time></trkpt><trkpt lat="39.47938093" lon="-0.37467694"><ele>2.8</ele><time>2022-11-17T21:23:06.0000000+00:00</time></trkpt><trkpt lat="39.47938814" lon="-0.37467074"><ele>2.6</ele><time>2022-11-17T21:23:07.0000000+00:00</time></trkpt><trkpt lat="39.47939962" lon="-0.37466378"><ele>2.6</ele><time>2022-11-17T21:23:08.0000000+00:00</time></trkpt><trkpt lat="39.47941161" lon="-0.37465515"><ele>2.4</ele><time>2022-11-17T21:23:09.0000000+00:00</time></trkpt><trkpt lat="39.47942343" lon="-0.37464953"><ele>2.2</ele><time>2022-11-17T21:23:10.0000000+00:00</time></trkpt><trkpt lat="39.47943659" lon="-0.37464802"><ele>2.0</ele><time>2022-11-17T21:23:11.0000000+00:00</time></trkpt><trkpt lat="39.47945251" lon="-0.37464601"><ele>1.8</ele><time>2022-11-17T21:23:12.0000000+00:00</time></trkpt><trkpt lat="39.47947489" lon="-0.3746414"><ele>1.4</ele><time>2022-11-17T21:23:13.0000000+00:00</time></trkpt><trkpt lat="39.47948797" lon="-0.37463444"><ele>1.2</ele><time>2022-11-17T21:23:14.0000000+00:00</time></trkpt><trkpt lat="39.47949015" lon="-0.37463545"><ele>1.0</ele><time>2022-11-17T21:23:15.0000000+00:00</time></trkpt><trkpt lat="39.47949006" lon="-0.37463629"><ele>0.8</ele><time>2022-11-17T21:23:16.0000000+00:00</time></trkpt><trkpt lat="39.47949199" lon="-0.37463981"><ele>0.8</ele><time>2022-11-17T21:23:17.0000000+00:00</time></trkpt><trkpt lat="39.47951169" lon="-0.37465079"><ele>0.6</ele><time>2022-11-17T21:23:18.0000000+00:00</time></trkpt><trkpt lat="39.47954379" lon="-0.37466479"><ele>0.2</ele><time>2022-11-17T21:23:19.0000000+00:00</time></trkpt><trkpt lat="39.47958989" lon="-0.37467459"><ele>-0.2</ele><time>2022-11-17T21:23:20.0000000+00:00</time></trkpt><trkpt lat="39.4795914" lon="-0.37468557"><ele>-0.4</ele><time>2022-11-17T21:23:21.0000000+00:00</time></trkpt><trkpt lat="39.4796137" lon="-0.37469513"><ele>-0.6</ele><time>2022-11-17T21:23:22.0000000+00:00</time></trkpt><trkpt lat="39.47961554" lon="-0.37470091"><ele>-0.8</ele><time>2022-11-17T21:23:23.0000000+00:00</time></trkpt><trkpt lat="39.47961127" lon="-0.37470519"><ele>-0.8</ele><time>2022-11-17T21:23:24.0000000+00:00</time></trkpt><trkpt lat="39.47958503" lon="-0.37469161"><ele>-0.8</ele><time>2022-11-17T21:23:25.0000000+00:00</time></trkpt><trkpt lat="39.47956508" lon="-0.37468432"><ele>-1.0</ele><time>2022-11-17T21:23:26.0000000+00:00</time></trkpt><trkpt lat="39.47954102" lon="-0.37468432"><ele>-1.0</ele><time>2022-11-17T21:23:27.0000000+00:00</time></trkpt><trkpt lat="39.47955217" lon="-0.3746849"><ele>-1.0</ele><time>2022-11-17T21:23:28.0000000+00:00</time></trkpt><trkpt lat="39.47955662" lon="-0.37469043"><ele>-1.0</ele><time>2022-11-17T21:23:29.0000000+00:00</time></trkpt><trkpt lat="39.479565" lon="-0.37469027"><ele>-1.0</ele><time>2022-11-17T21:23:30.0000000+00:00</time></trkpt><trkpt lat="39.4795681" lon="-0.37468054"><ele>-1.0</ele><time>2022-11-17T21:23:31.0000000+00:00</time></trkpt><trkpt lat="39.47956801" lon="-0.37466755"><ele>-1.0</ele><time>2022-11-17T21:23:32.0000000+00:00</time></trkpt><trkpt lat="39.47957405" lon="-0.37466194"><ele>-1.0</ele><time>2022-11-17T21:23:33.0000000+00:00</time></trkpt><trkpt lat="39.47957137" lon="-0.37465816"><ele>-1.0</ele><time>2022-11-17T21:23:34.0000000+00:00</time></trkpt><trkpt lat="39.47957296" lon="-0.3746528"><ele>-1.0</ele><time>2022-11-17T21:23:35.0000000+00:00</time></trkpt><trkpt lat="39.4795541" lon="-0.37465951"><ele>-1.0</ele><time>2022-11-17T21:23:36.0000000+00:00</time></trkpt><trkpt lat="39.47954262" lon="-0.37466554"><ele>-1.0</ele><time>2022-11-17T21:23:37.0000000+00:00</time></trkpt><trkpt lat="39.47953935" lon="-0.37466378"><ele>-1.0</ele><time>2022-11-17T21:23:38.0000000+00:00</time></trkpt><trkpt lat="39.47953834" lon="-0.37465833"><ele>-1.0</ele><time>2022-11-17T21:23:39.0000000+00:00</time></trkpt><trkpt lat="39.47954874" lon="-0.37464358"><ele>-1.0</ele><time>2022-11-17T21:23:40.0000000+00:00</time></trkpt><trkpt lat="39.47955142" lon="-0.37464123"><ele>-1.2</ele><time>2022-11-17T21:23:41.0000000+00:00</time></trkpt><trkpt lat="39.47956223" lon="-0.37462715"><ele>-1.2</ele><time>2022-11-17T21:23:42.0000000+00:00</time></trkpt><trkpt lat="39.47957614" lon="-0.37460854"><ele>-1.2</ele><time>2022-11-17T21:23:43.0000000+00:00</time></trkpt><trkpt lat="39.47958252" lon="-0.37460427"><ele>-1.2</ele><time>2022-11-17T21:23:44.0000000+00:00</time></trkpt><trkpt lat="39.4795862" lon="-0.37459429"><ele>-1.0</ele><time>2022-11-17T21:23:45.0000000+00:00</time></trkpt><trkpt lat="39.47958813" lon="-0.37458574"><ele>-1.0</ele><time>2022-11-17T21:23:46.0000000+00:00</time></trkpt><trkpt lat="39.47959509" lon="-0.37457585"><ele>-1.0</ele><time>2022-11-17T21:23:47.0000000+00:00</time></trkpt><trkpt lat="39.47960079" lon="-0.37456563"><ele>-1.0</ele><time>2022-11-17T21:23:48.0000000+00:00</time></trkpt><trkpt lat="39.47961034" lon="-0.37455381"><ele>-1.0</ele><time>2022-11-17T21:23:49.0000000+00:00</time></trkpt><trkpt lat="39.47961856" lon="-0.37454149"><ele>-1.0</ele><time>2022-11-17T21:23:50.0000000+00:00</time></trkpt><trkpt lat="39.4796261" lon="-0.3745326"><ele>-1.2</ele><time>2022-11-17T21:23:51.0000000+00:00</time></trkpt><trkpt lat="39.47963314" lon="-0.37452489"><ele>-1.2</ele><time>2022-11-17T21:23:52.0000000+00:00</time></trkpt><trkpt lat="39.47963784" lon="-0.37451852"><ele>-1.2</ele><time>2022-11-17T21:23:53.0000000+00:00</time></trkpt><trkpt lat="39.47964831" lon="-0.37450343"><ele>-1.0</ele><time>2022-11-17T21:23:54.0000000+00:00</time></trkpt><trkpt lat="39.47965368" lon="-0.37449304"><ele>-1.0</ele><time>2022-11-17T21:23:55.0000000+00:00</time></trkpt><trkpt lat="39.47965854" lon="-0.37448474"><ele>-1.0</ele><time>2022-11-17T21:23:56.0000000+00:00</time></trkpt><trkpt lat="39.47966876" lon="-0.37447837"><ele>-1.0</ele><time>2022-11-17T21:23:57.0000000+00:00</time></trkpt><trkpt lat="39.47968855" lon="-0.37446823"><ele>-0.8</ele><time>2022-11-17T21:23:58.0000000+00:00</time></trkpt><trkpt lat="39.4797033" lon="-0.37445993"><ele>-0.8</ele><time>2022-11-17T21:23:59.0000000+00:00</time></trkpt><trkpt lat="39.47971419" lon="-0.37445641"><ele>-0.8</ele><time>2022-11-17T21:24:00.0000000+00:00</time></trkpt><trkpt lat="39.47973087" lon="-0.37445683"><ele>-0.6</ele><time>2022-11-17T21:24:01.0000000+00:00</time></trkpt><trkpt lat="39.47973741" lon="-0.37446605"><ele>-0.6</ele><time>2022-11-17T21:24:02.0000000+00:00</time></trkpt><trkpt lat="39.47974479" lon="-0.37447686"><ele>-0.6</ele><time>2022-11-17T21:24:03.0000000+00:00</time></trkpt><trkpt lat="39.47975803" lon="-0.37448256"><ele>-0.6</ele><time>2022-11-17T21:24:04.0000000+00:00</time></trkpt><trkpt lat="39.47978368" lon="-0.37447812"><ele>-0.6</ele><time>2022-11-17T21:24:05.0000000+00:00</time></trkpt><trkpt lat="39.47980782" lon="-0.37447116"><ele>-0.6</ele><time>2022-11-17T21:24:06.0000000+00:00</time></trkpt><trkpt lat="39.47982945" lon="-0.37446245"><ele>-0.6</ele><time>2022-11-17T21:24:07.0000000+00:00</time></trkpt><trkpt lat="39.47984655" lon="-0.37445566"><ele>-0.8</ele><time>2022-11-17T21:24:08.0000000+00:00</time></trkpt><trkpt lat="39.47985996" lon="-0.37444937"><ele>-0.8</ele><time>2022-11-17T21:24:09.0000000+00:00</time></trkpt><trkpt lat="39.47986465" lon="-0.3744487"><ele>-0.8</ele><time>2022-11-17T21:24:10.0000000+00:00</time></trkpt><trkpt lat="39.47987127" lon="-0.37444124"><ele>-0.8</ele><time>2022-11-17T21:24:11.0000000+00:00</time></trkpt><trkpt lat="39.47988619" lon="-0.37443244"><ele>-1.0</ele><time>2022-11-17T21:24:12.0000000+00:00</time></trkpt><trkpt lat="39.47990195" lon="-0.37442565"><ele>-1.0</ele><time>2022-11-17T21:24:13.0000000+00:00</time></trkpt><trkpt lat="39.47991896" lon="-0.37441769"><ele>-1.0</ele><time>2022-11-17T21:24:14.0000000+00:00</time></trkpt><trkpt lat="39.47993598" lon="-0.37441266"><ele>-1.0</ele><time>2022-11-17T21:24:15.0000000+00:00</time></trkpt><trkpt lat="39.47995576" lon="-0.3744083"><ele>-1.2</ele><time>2022-11-17T21:24:16.0000000+00:00</time></trkpt><trkpt lat="39.47997118" lon="-0.37440931"><ele>-1.2</ele><time>2022-11-17T21:24:17.0000000+00:00</time></trkpt><trkpt lat="39.47998443" lon="-0.37440914"><ele>-1.2</ele><time>2022-11-17T21:24:18.0000000+00:00</time></trkpt><trkpt lat="39.47999457" lon="-0.37441291"><ele>-1.2</ele><time>2022-11-17T21:24:19.0000000+00:00</time></trkpt><trkpt lat="39.4800006" lon="-0.37442079"><ele>-1.2</ele><time>2022-11-17T21:24:20.0000000+00:00</time></trkpt><trkpt lat="39.48000505" lon="-0.37443286"><ele>-1.2</ele><time>2022-11-17T21:24:21.0000000+00:00</time></trkpt><trkpt lat="39.48001234" lon="-0.37443973"><ele>-1.2</ele><time>2022-11-17T21:24:22.0000000+00:00</time></trkpt><trkpt lat="39.48002072" lon="-0.37444426"><ele>-1.2</ele><time>2022-11-17T21:24:23.0000000+00:00</time></trkpt><trkpt lat="39.48003229" lon="-0.37444887"><ele>-1.4</ele><time>2022-11-17T21:24:24.0000000+00:00</time></trkpt><trkpt lat="39.48004444" lon="-0.37445817"><ele>-1.4</ele><time>2022-11-17T21:24:25.0000000+00:00</time></trkpt><trkpt lat="39.48005148" lon="-0.37447368"><ele>-1.2</ele><time>2022-11-17T21:24:26.0000000+00:00</time></trkpt><trkpt lat="39.48005601" lon="-0.37448701"><ele>-1.2</ele><time>2022-11-17T21:24:27.0000000+00:00</time></trkpt><trkpt lat="39.48006162" lon="-0.37449597"><ele>-1.4</ele><time>2022-11-17T21:24:28.0000000+00:00</time></trkpt><trkpt lat="39.48007009" lon="-0.37450444"><ele>-1.4</ele><time>2022-11-17T21:24:29.0000000+00:00</time></trkpt><trkpt lat="39.4800835" lon="-0.37450989"><ele>-1.4</ele><time>2022-11-17T21:24:30.0000000+00:00</time></trkpt><trkpt lat="39.480097" lon="-0.37452045"><ele>-1.4</ele><time>2022-11-17T21:24:31.0000000+00:00</time></trkpt><trkpt lat="39.48010429" lon="-0.37453411"><ele>-1.6</ele><time>2022-11-17T21:24:32.0000000+00:00</time></trkpt><trkpt lat="39.48011418" lon="-0.37454375"><ele>-1.6</ele><time>2022-11-17T21:24:33.0000000+00:00</time></trkpt><trkpt lat="39.48012013" lon="-0.37454979"><ele>-1.6</ele><time>2022-11-17T21:24:34.0000000+00:00</time></trkpt><trkpt lat="39.48012617" lon="-0.37455599"><ele>-1.6</ele><time>2022-11-17T21:24:35.0000000+00:00</time></trkpt><trkpt lat="39.48013304" lon="-0.3745601"><ele>-1.6</ele><time>2022-11-17T21:24:36.0000000+00:00</time></trkpt><trkpt lat="39.48014595" lon="-0.37456336"><ele>-1.6</ele><time>2022-11-17T21:24:37.0000000+00:00</time></trkpt><trkpt lat="39.48015668" lon="-0.37457133"><ele>-1.6</ele><time>2022-11-17T21:24:38.0000000+00:00</time></trkpt><trkpt lat="39.48016439" lon="-0.37458432"><ele>-1.6</ele><time>2022-11-17T21:24:39.0000000+00:00</time></trkpt><trkpt lat="39.48017243" lon="-0.37459848"><ele>-1.4</ele><time>2022-11-17T21:24:40.0000000+00:00</time></trkpt><trkpt lat="39.48018157" lon="-0.37460729"><ele>-1.4</ele><time>2022-11-17T21:24:41.0000000+00:00</time></trkpt><trkpt lat="39.48018593" lon="-0.37462003"><ele>-1.2</ele><time>2022-11-17T21:24:42.0000000+00:00</time></trkpt><trkpt lat="39.48018794" lon="-0.37463537"><ele>-1.0</ele><time>2022-11-17T21:24:43.0000000+00:00</time></trkpt><trkpt lat="39.48019163" lon="-0.3746497"><ele>-1.0</ele><time>2022-11-17T21:24:44.0000000+00:00</time></trkpt><trkpt lat="39.48020244" lon="-0.37466194"><ele>-1.0</ele><time>2022-11-17T21:24:45.0000000+00:00</time></trkpt><trkpt lat="39.48021476" lon="-0.37466956"><ele>-1.0</ele><time>2022-11-17T21:24:46.0000000+00:00</time></trkpt><trkpt lat="39.48022876" lon="-0.37467853"><ele>-1.0</ele><time>2022-11-17T21:24:47.0000000+00:00</time></trkpt><trkpt lat="39.48023815" lon="-0.3746896"><ele>-1.2</ele><time>2022-11-17T21:24:48.0000000+00:00</time></trkpt><trkpt lat="39.4802436" lon="-0.37469572"><ele>-1.2</ele><time>2022-11-17T21:24:49.0000000+00:00</time></trkpt><trkpt lat="39.48024519" lon="-0.37471332"><ele>-1.2</ele><time>2022-11-17T21:24:50.0000000+00:00</time></trkpt><trkpt lat="39.48024653" lon="-0.37473008"><ele>-1.2</ele><time>2022-11-17T21:24:51.0000000+00:00</time></trkpt><trkpt lat="39.48024301" lon="-0.37475162"><ele>-1.2</ele><time>2022-11-17T21:24:52.0000000+00:00</time></trkpt><trkpt lat="39.48024661" lon="-0.3747543"><ele>-1.2</ele><time>2022-11-17T21:24:53.0000000+00:00</time></trkpt><trkpt lat="39.48024963" lon="-0.37475523"><ele>-1.2</ele><time>2022-11-17T21:24:54.0000000+00:00</time></trkpt><trkpt lat="39.48024888" lon="-0.37476696"><ele>-1.2</ele><time>2022-11-17T21:24:55.0000000+00:00</time></trkpt><trkpt lat="39.48024904" lon="-0.37477627"><ele>-1.2</ele><time>2022-11-17T21:24:56.0000000+00:00</time></trkpt><trkpt lat="39.48025533" lon="-0.3747828"><ele>-1.2</ele><time>2022-11-17T21:24:57.0000000+00:00</time></trkpt><trkpt lat="39.48026564" lon="-0.37478834"><ele>-1.2</ele><time>2022-11-17T21:24:58.0000000+00:00</time></trkpt><trkpt lat="39.4802731" lon="-0.37479705"><ele>-1.2</ele><time>2022-11-17T21:24:59.0000000+00:00</time></trkpt><trkpt lat="39.48028182" lon="-0.37480887"><ele>-1.2</ele><time>2022-11-17T21:25:00.0000000+00:00</time></trkpt><trkpt lat="39.48028961" lon="-0.37481935"><ele>-1.2</ele><time>2022-11-17T21:25:01.0000000+00:00</time></trkpt><trkpt lat="39.48030101" lon="-0.37482798"><ele>-1.2</ele><time>2022-11-17T21:25:02.0000000+00:00</time></trkpt><trkpt lat="39.48030981" lon="-0.37483611"><ele>-1.2</ele><time>2022-11-17T21:25:03.0000000+00:00</time></trkpt><trkpt lat="39.48031719" lon="-0.37484357"><ele>-1.2</ele><time>2022-11-17T21:25:04.0000000+00:00</time></trkpt><trkpt lat="39.48032339" lon="-0.37485229"><ele>-1.2</ele><time>2022-11-17T21:25:05.0000000+00:00</time></trkpt><trkpt lat="39.48032666" lon="-0.37486352"><ele>-1.0</ele><time>2022-11-17T21:25:06.0000000+00:00</time></trkpt><trkpt lat="39.48033177" lon="-0.37487484"><ele>-1.0</ele><time>2022-11-17T21:25:07.0000000+00:00</time></trkpt><trkpt lat="39.48033881" lon="-0.37489152"><ele>-1.0</ele><time>2022-11-17T21:25:08.0000000+00:00</time></trkpt><trkpt lat="39.48033856" lon="-0.37490979"><ele>-1.0</ele><time>2022-11-17T21:25:09.0000000+00:00</time></trkpt><trkpt lat="39.4803529" lon="-0.37492773"><ele>-1.0</ele><time>2022-11-17T21:25:10.0000000+00:00</time></trkpt><trkpt lat="39.48035767" lon="-0.37493778"><ele>-1.0</ele><time>2022-11-17T21:25:11.0000000+00:00</time></trkpt><trkpt lat="39.48036287" lon="-0.37494617"><ele>-1.0</ele><time>2022-11-17T21:25:12.0000000+00:00</time></trkpt><trkpt lat="39.48036815" lon="-0.37494969"><ele>-1.0</ele><time>2022-11-17T21:25:13.0000000+00:00</time></trkpt><trkpt lat="39.48037519" lon="-0.3749584"><ele>-0.8</ele><time>2022-11-17T21:25:14.0000000+00:00</time></trkpt><trkpt lat="39.48038676" lon="-0.37497441"><ele>-0.8</ele><time>2022-11-17T21:25:15.0000000+00:00</time></trkpt><trkpt lat="39.48039204" lon="-0.37498791"><ele>-0.8</ele><time>2022-11-17T21:25:16.0000000+00:00</time></trkpt><trkpt lat="39.48039321" lon="-0.3750004"><ele>-1.0</ele><time>2022-11-17T21:25:17.0000000+00:00</time></trkpt><trkpt lat="39.48040771" lon="-0.37501398"><ele>-1.0</ele><time>2022-11-17T21:25:18.0000000+00:00</time></trkpt><trkpt lat="39.48041274" lon="-0.37503962"><ele>-0.8</ele><time>2022-11-17T21:25:19.0000000+00:00</time></trkpt><trkpt lat="39.48041844" lon="-0.37505572"><ele>-0.8</ele><time>2022-11-17T21:25:20.0000000+00:00</time></trkpt><trkpt lat="39.48042825" lon="-0.375062"><ele>-0.8</ele><time>2022-11-17T21:25:21.0000000+00:00</time></trkpt><trkpt lat="39.4804321" lon="-0.37506452"><ele>-0.8</ele><time>2022-11-17T21:25:22.0000000+00:00</time></trkpt><trkpt lat="39.48044518" lon="-0.37506594"><ele>-0.8</ele><time>2022-11-17T21:25:23.0000000+00:00</time></trkpt><trkpt lat="39.48045013" lon="-0.37506821"><ele>-0.8</ele><time>2022-11-17T21:25:24.0000000+00:00</time></trkpt><trkpt lat="39.48045591" lon="-0.37507097"><ele>-0.8</ele><time>2022-11-17T21:25:25.0000000+00:00</time></trkpt><trkpt lat="39.48046697" lon="-0.37507097"><ele>-0.8</ele><time>2022-11-17T21:25:26.0000000+00:00</time></trkpt><trkpt lat="39.48047695" lon="-0.37507768"><ele>-0.8</ele><time>2022-11-17T21:25:27.0000000+00:00</time></trkpt><trkpt lat="39.48048416" lon="-0.37508589"><ele>-0.8</ele><time>2022-11-17T21:25:28.0000000+00:00</time></trkpt><trkpt lat="39.48049078" lon="-0.37509712"><ele>-0.8</ele><time>2022-11-17T21:25:29.0000000+00:00</time></trkpt><trkpt lat="39.48050117" lon="-0.37510886"><ele>-0.8</ele><time>2022-11-17T21:25:30.0000000+00:00</time></trkpt><trkpt lat="39.48050327" lon="-0.37512579"><ele>-0.8</ele><time>2022-11-17T21:25:31.0000000+00:00</time></trkpt><trkpt lat="39.48050612" lon="-0.37514314"><ele>-0.8</ele><time>2022-11-17T21:25:32.0000000+00:00</time></trkpt><trkpt lat="39.4805114" lon="-0.37515647"><ele>-0.8</ele><time>2022-11-17T21:25:33.0000000+00:00</time></trkpt><trkpt lat="39.4805202" lon="-0.37517114"><ele>-0.8</ele><time>2022-11-17T21:25:34.0000000+00:00</time></trkpt><trkpt lat="39.48052699" lon="-0.37519326"><ele>-0.8</ele><time>2022-11-17T21:25:35.0000000+00:00</time></trkpt><trkpt lat="39.48053529" lon="-0.37521196"><ele>-0.8</ele><time>2022-11-17T21:25:36.0000000+00:00</time></trkpt><trkpt lat="39.48054249" lon="-0.37522319"><ele>-1.0</ele><time>2022-11-17T21:25:37.0000000+00:00</time></trkpt><trkpt lat="39.48054878" lon="-0.37523626"><ele>-1.0</ele><time>2022-11-17T21:25:38.0000000+00:00</time></trkpt><trkpt lat="39.48055138" lon="-0.37524875"><ele>-1.0</ele><time>2022-11-17T21:25:39.0000000+00:00</time></trkpt><trkpt lat="39.48055808" lon="-0.37525412"><ele>-1.0</ele><time>2022-11-17T21:25:40.0000000+00:00</time></trkpt><trkpt lat="39.4805673" lon="-0.37525948"><ele>-0.8</ele><time>2022-11-17T21:25:41.0000000+00:00</time></trkpt><trkpt lat="39.48056764" lon="-0.37526929"><ele>-0.8</ele><time>2022-11-17T21:25:42.0000000+00:00</time></trkpt><trkpt lat="39.48056554" lon="-0.37528153"><ele>-0.6</ele><time>2022-11-17T21:25:43.0000000+00:00</time></trkpt><trkpt lat="39.48056848" lon="-0.37529058"><ele>-0.6</ele><time>2022-11-17T21:25:44.0000000+00:00</time></trkpt><trkpt lat="39.48056638" lon="-0.37531044"><ele>-0.6</ele><time>2022-11-17T21:25:45.0000000+00:00</time></trkpt><trkpt lat="39.48056362" lon="-0.37532805"><ele>-0.6</ele><time>2022-11-17T21:25:46.0000000+00:00</time></trkpt><trkpt lat="39.48056395" lon="-0.37534632"><ele>-0.6</ele><time>2022-11-17T21:25:47.0000000+00:00</time></trkpt><trkpt lat="39.48056722" lon="-0.37536107"><ele>-0.6</ele><time>2022-11-17T21:25:48.0000000+00:00</time></trkpt><trkpt lat="39.48057024" lon="-0.37537834"><ele>-0.8</ele><time>2022-11-17T21:25:49.0000000+00:00</time></trkpt><trkpt lat="39.48058231" lon="-0.37538429"><ele>-0.8</ele><time>2022-11-17T21:25:50.0000000+00:00</time></trkpt><trkpt lat="39.4805948" lon="-0.37538479"><ele>-1.0</ele><time>2022-11-17T21:25:51.0000000+00:00</time></trkpt><trkpt lat="39.48060033" lon="-0.37541756"><ele>-1.0</ele><time>2022-11-17T21:25:52.0000000+00:00</time></trkpt><trkpt lat="39.48059706" lon="-0.37544414"><ele>-1.0</ele><time>2022-11-17T21:25:53.0000000+00:00</time></trkpt><trkpt lat="39.48059396" lon="-0.37542813"><ele>-1.0</ele><time>2022-11-17T21:25:54.0000000+00:00</time></trkpt><trkpt lat="39.48059941" lon="-0.37543148"><ele>-1.0</ele><time>2022-11-17T21:25:55.0000000+00:00</time></trkpt><trkpt lat="39.48060318" lon="-0.37543584"><ele>-1.0</ele><time>2022-11-17T21:25:56.0000000+00:00</time></trkpt><trkpt lat="39.48060611" lon="-0.37544221"><ele>-1.0</ele><time>2022-11-17T21:25:57.0000000+00:00</time></trkpt><trkpt lat="39.48060611" lon="-0.37545377"><ele>-1.0</ele><time>2022-11-17T21:25:58.0000000+00:00</time></trkpt><trkpt lat="39.48060854" lon="-0.37546685"><ele>-1.0</ele><time>2022-11-17T21:25:59.0000000+00:00</time></trkpt><trkpt lat="39.48061248" lon="-0.37548177"><ele>-1.0</ele><time>2022-11-17T21:26:00.0000000+00:00</time></trkpt><trkpt lat="39.48061818" lon="-0.37549543"><ele>-1.0</ele><time>2022-11-17T21:26:01.0000000+00:00</time></trkpt><trkpt lat="39.48062263" lon="-0.37550993"><ele>-1.0</ele><time>2022-11-17T21:26:02.0000000+00:00</time></trkpt><trkpt lat="39.48062556" lon="-0.37552988"><ele>-0.8</ele><time>2022-11-17T21:26:03.0000000+00:00</time></trkpt><trkpt lat="39.48062941" lon="-0.37554799"><ele>-0.8</ele><time>2022-11-17T21:26:04.0000000+00:00</time></trkpt><trkpt lat="39.48064107" lon="-0.37555922"><ele>-0.8</ele><time>2022-11-17T21:26:05.0000000+00:00</time></trkpt><trkpt lat="39.48064685" lon="-0.37557221"><ele>-0.8</ele><time>2022-11-17T21:26:06.0000000+00:00</time></trkpt><trkpt lat="39.48065414" lon="-0.37558579"><ele>-0.8</ele><time>2022-11-17T21:26:07.0000000+00:00</time></trkpt><trkpt lat="39.48066562" lon="-0.37560456"><ele>-0.8</ele><time>2022-11-17T21:26:08.0000000+00:00</time></trkpt><trkpt lat="39.48067702" lon="-0.37562854"><ele>-0.8</ele><time>2022-11-17T21:26:09.0000000+00:00</time></trkpt><trkpt lat="39.48068909" lon="-0.37565393"><ele>-0.8</ele><time>2022-11-17T21:26:10.0000000+00:00</time></trkpt><trkpt lat="39.48069035" lon="-0.37567003"><ele>-0.8</ele><time>2022-11-17T21:26:11.0000000+00:00</time></trkpt><trkpt lat="39.48069287" lon="-0.37568503"><ele>-0.8</ele><time>2022-11-17T21:26:12.0000000+00:00</time></trkpt><trkpt lat="39.4806963" lon="-0.37569643"><ele>-0.8</ele><time>2022-11-17T21:26:13.0000000+00:00</time></trkpt><trkpt lat="39.48070594" lon="-0.375709"><ele>-0.8</ele><time>2022-11-17T21:26:14.0000000+00:00</time></trkpt><trkpt lat="39.48071575" lon="-0.37572241"><ele>-0.8</ele><time>2022-11-17T21:26:15.0000000+00:00</time></trkpt><trkpt lat="39.48072715" lon="-0.37574823"><ele>-1.0</ele><time>2022-11-17T21:26:16.0000000+00:00</time></trkpt><trkpt lat="39.48073151" lon="-0.37578193"><ele>-1.0</ele><time>2022-11-17T21:26:17.0000000+00:00</time></trkpt><trkpt lat="39.48072908" lon="-0.37581529"><ele>-1.0</ele><time>2022-11-17T21:26:18.0000000+00:00</time></trkpt><trkpt lat="39.48073335" lon="-0.37583783"><ele>-0.8</ele><time>2022-11-17T21:26:19.0000000+00:00</time></trkpt><trkpt lat="39.48073846" lon="-0.37585678"><ele>-0.8</ele><time>2022-11-17T21:26:20.0000000+00:00</time></trkpt><trkpt lat="39.48074115" lon="-0.37587513"><ele>-0.8</ele><time>2022-11-17T21:26:21.0000000+00:00</time></trkpt><trkpt lat="39.4807414" lon="-0.37589131"><ele>-0.8</ele><time>2022-11-17T21:26:22.0000000+00:00</time></trkpt><trkpt lat="39.48074995" lon="-0.37590623"><ele>-0.8</ele><time>2022-11-17T21:26:23.0000000+00:00</time></trkpt><trkpt lat="39.48075883" lon="-0.37591763"><ele>-0.8</ele><time>2022-11-17T21:26:24.0000000+00:00</time></trkpt><trkpt lat="39.48076814" lon="-0.37593037"><ele>-0.8</ele><time>2022-11-17T21:26:25.0000000+00:00</time></trkpt><trkpt lat="39.48077509" lon="-0.37594403"><ele>-1.0</ele><time>2022-11-17T21:26:26.0000000+00:00</time></trkpt><trkpt lat="39.48078398" lon="-0.37595652"><ele>-1.0</ele><time>2022-11-17T21:26:27.0000000+00:00</time></trkpt><trkpt lat="39.48079462" lon="-0.37596515"><ele>-1.0</ele><time>2022-11-17T21:26:28.0000000+00:00</time></trkpt><trkpt lat="39.48080577" lon="-0.37597538"><ele>-1.0</ele><time>2022-11-17T21:26:29.0000000+00:00</time></trkpt><trkpt lat="39.48081658" lon="-0.37598695"><ele>-1.0</ele><time>2022-11-17T21:26:30.0000000+00:00</time></trkpt><trkpt lat="39.48082496" lon="-0.37600296"><ele>-1.0</ele><time>2022-11-17T21:26:31.0000000+00:00</time></trkpt><trkpt lat="39.48083008" lon="-0.37602374"><ele>-1.0</ele><time>2022-11-17T21:26:32.0000000+00:00</time></trkpt><trkpt lat="39.48083678" lon="-0.37603908"><ele>-1.0</ele><time>2022-11-17T21:26:33.0000000+00:00</time></trkpt><trkpt lat="39.48083737" lon="-0.37605501"><ele>-1.0</ele><time>2022-11-17T21:26:34.0000000+00:00</time></trkpt><trkpt lat="39.48084517" lon="-0.37606188"><ele>-1.0</ele><time>2022-11-17T21:26:35.0000000+00:00</time></trkpt><trkpt lat="39.48084978" lon="-0.376068"><ele>-1.0</ele><time>2022-11-17T21:26:36.0000000+00:00</time></trkpt><trkpt lat="39.48085665" lon="-0.37608577"><ele>-1.2</ele><time>2022-11-17T21:26:37.0000000+00:00</time></trkpt><trkpt lat="39.48086277" lon="-0.37610631"><ele>-1.2</ele><time>2022-11-17T21:26:38.0000000+00:00</time></trkpt><trkpt lat="39.48087274" lon="-0.37612994"><ele>-1.0</ele><time>2022-11-17T21:26:39.0000000+00:00</time></trkpt><trkpt lat="39.48088439" lon="-0.37614947"><ele>-1.0</ele><time>2022-11-17T21:26:40.0000000+00:00</time></trkpt><trkpt lat="39.48089277" lon="-0.37617286"><ele>-1.0</ele><time>2022-11-17T21:26:41.0000000+00:00</time></trkpt><trkpt lat="39.4808994" lon="-0.37619717"><ele>-1.0</ele><time>2022-11-17T21:26:42.0000000+00:00</time></trkpt><trkpt lat="39.48090132" lon="-0.37621737"><ele>-0.8</ele><time>2022-11-17T21:26:43.0000000+00:00</time></trkpt><trkpt lat="39.48090593" lon="-0.37623421"><ele>-0.8</ele><time>2022-11-17T21:26:44.0000000+00:00</time></trkpt><trkpt lat="39.48091029" lon="-0.37624503"><ele>-0.8</ele><time>2022-11-17T21:26:45.0000000+00:00</time></trkpt><trkpt lat="39.48091515" lon="-0.37625752"><ele>-0.8</ele><time>2022-11-17T21:26:46.0000000+00:00</time></trkpt><trkpt lat="39.48091901" lon="-0.37627067"><ele>-0.8</ele><time>2022-11-17T21:26:47.0000000+00:00</time></trkpt><trkpt lat="39.48092169" lon="-0.37628333"><ele>-0.8</ele><time>2022-11-17T21:26:48.0000000+00:00</time></trkpt><trkpt lat="39.48092102" lon="-0.3762985"><ele>-0.8</ele><time>2022-11-17T21:26:49.0000000+00:00</time></trkpt><trkpt lat="39.48092119" lon="-0.37631158"><ele>-0.8</ele><time>2022-11-17T21:26:50.0000000+00:00</time></trkpt><trkpt lat="39.48092027" lon="-0.37633035"><ele>-0.8</ele><time>2022-11-17T21:26:51.0000000+00:00</time></trkpt><trkpt lat="39.48093125" lon="-0.37634905"><ele>-0.8</ele><time>2022-11-17T21:26:52.0000000+00:00</time></trkpt><trkpt lat="39.48093644" lon="-0.37636606"><ele>-0.8</ele><time>2022-11-17T21:26:53.0000000+00:00</time></trkpt><trkpt lat="39.48094147" lon="-0.37638693"><ele>-0.8</ele><time>2022-11-17T21:26:54.0000000+00:00</time></trkpt><trkpt lat="39.48094357" lon="-0.37640269"><ele>-0.8</ele><time>2022-11-17T21:26:55.0000000+00:00</time></trkpt><trkpt lat="39.48094558" lon="-0.37641702"><ele>-0.6</ele><time>2022-11-17T21:26:56.0000000+00:00</time></trkpt><trkpt lat="39.48094927" lon="-0.37643328"><ele>-0.6</ele><time>2022-11-17T21:26:57.0000000+00:00</time></trkpt><trkpt lat="39.48095916" lon="-0.37644871"><ele>-0.6</ele><time>2022-11-17T21:26:58.0000000+00:00</time></trkpt><trkpt lat="39.48097156" lon="-0.37646438"><ele>-0.6</ele><time>2022-11-17T21:26:59.0000000+00:00</time></trkpt><trkpt lat="39.48097936" lon="-0.3764793"><ele>-0.6</ele><time>2022-11-17T21:27:00.0000000+00:00</time></trkpt><trkpt lat="39.48098288" lon="-0.37649824"><ele>-0.6</ele><time>2022-11-17T21:27:01.0000000+00:00</time></trkpt><trkpt lat="39.48099101" lon="-0.37651786"><ele>-0.6</ele><time>2022-11-17T21:27:02.0000000+00:00</time></trkpt><trkpt lat="39.48099252" lon="-0.37654057"><ele>-0.6</ele><time>2022-11-17T21:27:03.0000000+00:00</time></trkpt><trkpt lat="39.48099881" lon="-0.37655239"><ele>-0.8</ele><time>2022-11-17T21:27:04.0000000+00:00</time></trkpt><trkpt lat="39.48100383" lon="-0.37656371"><ele>-0.8</ele><time>2022-11-17T21:27:05.0000000+00:00</time></trkpt><trkpt lat="39.48101314" lon="-0.3765762"><ele>-0.8</ele><time>2022-11-17T21:27:06.0000000+00:00</time></trkpt><trkpt lat="39.48102328" lon="-0.3765891"><ele>-0.8</ele><time>2022-11-17T21:27:07.0000000+00:00</time></trkpt><trkpt lat="39.48103124" lon="-0.37660159"><ele>-0.8</ele><time>2022-11-17T21:27:08.0000000+00:00</time></trkpt><trkpt lat="39.48103376" lon="-0.37661408"><ele>-0.8</ele><time>2022-11-17T21:27:09.0000000+00:00</time></trkpt><trkpt lat="39.48103485" lon="-0.37662967"><ele>-0.6</ele><time>2022-11-17T21:27:10.0000000+00:00</time></trkpt><trkpt lat="39.48103669" lon="-0.37664576"><ele>-0.6</ele><time>2022-11-17T21:27:11.0000000+00:00</time></trkpt><trkpt lat="39.48103208" lon="-0.37666814"><ele>-0.6</ele><time>2022-11-17T21:27:12.0000000+00:00</time></trkpt><trkpt lat="39.48103627" lon="-0.37668541"><ele>-0.6</ele><time>2022-11-17T21:27:13.0000000+00:00</time></trkpt><trkpt lat="39.48103971" lon="-0.37670461"><ele>-0.6</ele><time>2022-11-17T21:27:14.0000000+00:00</time></trkpt><trkpt lat="39.48104239" lon="-0.37672263"><ele>-0.6</ele><time>2022-11-17T21:27:15.0000000+00:00</time></trkpt><trkpt lat="39.48104977" lon="-0.37673319"><ele>-0.8</ele><time>2022-11-17T21:27:16.0000000+00:00</time></trkpt><trkpt lat="39.48105471" lon="-0.37674174"><ele>-0.8</ele><time>2022-11-17T21:27:17.0000000+00:00</time></trkpt><trkpt lat="39.48105689" lon="-0.37675305"><ele>-0.8</ele><time>2022-11-17T21:27:18.0000000+00:00</time></trkpt><trkpt lat="39.48105999" lon="-0.37676957"><ele>-0.8</ele><time>2022-11-17T21:27:19.0000000+00:00</time></trkpt><trkpt lat="39.48106335" lon="-0.37678817"><ele>-0.6</ele><time>2022-11-17T21:27:20.0000000+00:00</time></trkpt><trkpt lat="39.4810662" lon="-0.37680846"><ele>-0.6</ele><time>2022-11-17T21:27:21.0000000+00:00</time></trkpt><trkpt lat="39.48106938" lon="-0.37682338"><ele>-0.6</ele><time>2022-11-17T21:27:22.0000000+00:00</time></trkpt><trkpt lat="39.4810734" lon="-0.37684039"><ele>-0.6</ele><time>2022-11-17T21:27:23.0000000+00:00</time></trkpt><trkpt lat="39.48107776" lon="-0.37685732"><ele>-0.6</ele><time>2022-11-17T21:27:24.0000000+00:00</time></trkpt><trkpt lat="39.48108623" lon="-0.37686763"><ele>-0.8</ele><time>2022-11-17T21:27:25.0000000+00:00</time></trkpt><trkpt lat="39.4810926" lon="-0.37688356"><ele>-0.8</ele><time>2022-11-17T21:27:26.0000000+00:00</time></trkpt><trkpt lat="39.48109629" lon="-0.3768958"><ele>-0.8</ele><time>2022-11-17T21:27:27.0000000+00:00</time></trkpt><trkpt lat="39.4810978" lon="-0.37690745"><ele>-0.8</ele><time>2022-11-17T21:27:28.0000000+00:00</time></trkpt><trkpt lat="39.48109897" lon="-0.3769186"><ele>-0.8</ele><time>2022-11-17T21:27:29.0000000+00:00</time></trkpt><trkpt lat="39.48110106" lon="-0.37692874"><ele>-0.8</ele><time>2022-11-17T21:27:30.0000000+00:00</time></trkpt><trkpt lat="39.48110676" lon="-0.37693972"><ele>-0.8</ele><time>2022-11-17T21:27:31.0000000+00:00</time></trkpt><trkpt lat="39.48111749" lon="-0.37694911"><ele>-0.8</ele><time>2022-11-17T21:27:32.0000000+00:00</time></trkpt><trkpt lat="39.48113065" lon="-0.37696076"><ele>-0.8</ele><time>2022-11-17T21:27:33.0000000+00:00</time></trkpt><trkpt lat="39.48113971" lon="-0.37697383"><ele>-0.8</ele><time>2022-11-17T21:27:34.0000000+00:00</time></trkpt><trkpt lat="39.48114599" lon="-0.37699051"><ele>-0.8</ele><time>2022-11-17T21:27:35.0000000+00:00</time></trkpt><trkpt lat="39.48114675" lon="-0.37701356"><ele>-0.8</ele><time>2022-11-17T21:27:36.0000000+00:00</time></trkpt><trkpt lat="39.48114675" lon="-0.37703619"><ele>-0.8</ele><time>2022-11-17T21:27:37.0000000+00:00</time></trkpt><trkpt lat="39.48114951" lon="-0.3770574"><ele>-0.8</ele><time>2022-11-17T21:27:38.0000000+00:00</time></trkpt><trkpt lat="39.48115052" lon="-0.37707844"><ele>-0.8</ele><time>2022-11-17T21:27:39.0000000+00:00</time></trkpt><trkpt lat="39.4811532" lon="-0.37709378"><ele>-0.6</ele><time>2022-11-17T21:27:40.0000000+00:00</time></trkpt><trkpt lat="39.48115831" lon="-0.37710811"><ele>-0.6</ele><time>2022-11-17T21:27:41.0000000+00:00</time></trkpt><trkpt lat="39.48116644" lon="-0.37711943"><ele>-0.6</ele><time>2022-11-17T21:27:42.0000000+00:00</time></trkpt><trkpt lat="39.48117365" lon="-0.37712999"><ele>-0.6</ele><time>2022-11-17T21:27:43.0000000+00:00</time></trkpt><trkpt lat="39.4811765" lon="-0.37714751"><ele>-0.6</ele><time>2022-11-17T21:27:44.0000000+00:00</time></trkpt><trkpt lat="39.48117533" lon="-0.37716528"><ele>-0.6</ele><time>2022-11-17T21:27:45.0000000+00:00</time></trkpt><trkpt lat="39.48117868" lon="-0.37718053"><ele>-0.6</ele><time>2022-11-17T21:27:46.0000000+00:00</time></trkpt><trkpt lat="39.48118337" lon="-0.37719"><ele>-0.6</ele><time>2022-11-17T21:27:47.0000000+00:00</time></trkpt><trkpt lat="39.48118731" lon="-0.37719931"><ele>-0.6</ele><time>2022-11-17T21:27:48.0000000+00:00</time></trkpt><trkpt lat="39.48119436" lon="-0.37720936"><ele>-0.6</ele><time>2022-11-17T21:27:49.0000000+00:00</time></trkpt><trkpt lat="39.48120483" lon="-0.3772237"><ele>-0.6</ele><time>2022-11-17T21:27:50.0000000+00:00</time></trkpt><trkpt lat="39.48121707" lon="-0.37723225"><ele>-0.6</ele><time>2022-11-17T21:27:51.0000000+00:00</time></trkpt><trkpt lat="39.48122378" lon="-0.37724348"><ele>-0.6</ele><time>2022-11-17T21:27:52.0000000+00:00</time></trkpt><trkpt lat="39.48123165" lon="-0.37725731"><ele>-0.6</ele><time>2022-11-17T21:27:53.0000000+00:00</time></trkpt><trkpt lat="39.48123559" lon="-0.37727315"><ele>-0.6</ele><time>2022-11-17T21:27:54.0000000+00:00</time></trkpt><trkpt lat="39.48123517" lon="-0.37729486"><ele>-0.6</ele><time>2022-11-17T21:27:55.0000000+00:00</time></trkpt><trkpt lat="39.48123878" lon="-0.37731246"><ele>-0.6</ele><time>2022-11-17T21:27:56.0000000+00:00</time></trkpt><trkpt lat="39.48124649" lon="-0.37732202"><ele>-0.6</ele><time>2022-11-17T21:27:57.0000000+00:00</time></trkpt><trkpt lat="39.48125362" lon="-0.3773366"><ele>-0.6</ele><time>2022-11-17T21:27:58.0000000+00:00</time></trkpt><trkpt lat="39.48125512" lon="-0.37735613"><ele>-0.6</ele><time>2022-11-17T21:27:59.0000000+00:00</time></trkpt><trkpt lat="39.48125579" lon="-0.37737943"><ele>-0.6</ele><time>2022-11-17T21:28:00.0000000+00:00</time></trkpt><trkpt lat="39.48125714" lon="-0.37739167"><ele>-0.6</ele><time>2022-11-17T21:28:01.0000000+00:00</time></trkpt><trkpt lat="39.48126258" lon="-0.37740232"><ele>-0.6</ele><time>2022-11-17T21:28:02.0000000+00:00</time></trkpt><trkpt lat="39.48126745" lon="-0.37741321"><ele>-0.4</ele><time>2022-11-17T21:28:03.0000000+00:00</time></trkpt><trkpt lat="39.48127507" lon="-0.37742386"><ele>-0.4</ele><time>2022-11-17T21:28:04.0000000+00:00</time></trkpt><trkpt lat="39.48128161" lon="-0.37743316"><ele>-0.4</ele><time>2022-11-17T21:28:05.0000000+00:00</time></trkpt><trkpt lat="39.48128698" lon="-0.37744129"><ele>-0.2</ele><time>2022-11-17T21:28:06.0000000+00:00</time></trkpt><trkpt lat="39.481292" lon="-0.37745386"><ele>-0.2</ele><time>2022-11-17T21:28:07.0000000+00:00</time></trkpt><trkpt lat="39.48129645" lon="-0.37746711"><ele>-0.2</ele><time>2022-11-17T21:28:08.0000000+00:00</time></trkpt><trkpt lat="39.4813029" lon="-0.37748219"><ele>-0.4</ele><time>2022-11-17T21:28:09.0000000+00:00</time></trkpt><trkpt lat="39.48130642" lon="-0.37749938"><ele>-0.4</ele><time>2022-11-17T21:28:10.0000000+00:00</time></trkpt><trkpt lat="39.48130969" lon="-0.3775148"><ele>-0.4</ele><time>2022-11-17T21:28:11.0000000+00:00</time></trkpt><trkpt lat="39.48131346" lon="-0.37752855"><ele>-0.4</ele><time>2022-11-17T21:28:12.0000000+00:00</time></trkpt><trkpt lat="39.48131715" lon="-0.37754296"><ele>-0.6</ele><time>2022-11-17T21:28:13.0000000+00:00</time></trkpt><trkpt lat="39.4813221" lon="-0.37755772"><ele>-0.4</ele><time>2022-11-17T21:28:14.0000000+00:00</time></trkpt><trkpt lat="39.48132679" lon="-0.37757448"><ele>-0.4</ele><time>2022-11-17T21:28:15.0000000+00:00</time></trkpt><trkpt lat="39.4813345" lon="-0.37759032"><ele>-0.4</ele><time>2022-11-17T21:28:16.0000000+00:00</time></trkpt><trkpt lat="39.48134322" lon="-0.37760424"><ele>-0.4</ele><time>2022-11-17T21:28:17.0000000+00:00</time></trkpt><trkpt lat="39.48134875" lon="-0.37762737"><ele>-0.4</ele><time>2022-11-17T21:28:18.0000000+00:00</time></trkpt><trkpt lat="39.4813552" lon="-0.37764665"><ele>-0.6</ele><time>2022-11-17T21:28:19.0000000+00:00</time></trkpt><trkpt lat="39.48136115" lon="-0.37766165"><ele>-0.6</ele><time>2022-11-17T21:28:20.0000000+00:00</time></trkpt><trkpt lat="39.48136115" lon="-0.37767632"><ele>-0.6</ele><time>2022-11-17T21:28:21.0000000+00:00</time></trkpt><trkpt lat="39.4813625" lon="-0.37769334"><ele>-0.6</ele><time>2022-11-17T21:28:22.0000000+00:00</time></trkpt><trkpt lat="39.48136509" lon="-0.37771211"><ele>-0.6</ele><time>2022-11-17T21:28:23.0000000+00:00</time></trkpt><trkpt lat="39.48137415" lon="-0.37773156"><ele>-0.6</ele><time>2022-11-17T21:28:24.0000000+00:00</time></trkpt><trkpt lat="39.48138563" lon="-0.37774882"><ele>-0.6</ele><time>2022-11-17T21:28:25.0000000+00:00</time></trkpt><trkpt lat="39.4813951" lon="-0.37776575"><ele>-0.6</ele><time>2022-11-17T21:28:26.0000000+00:00</time></trkpt><trkpt lat="39.4814013" lon="-0.37778143"><ele>-0.6</ele><time>2022-11-17T21:28:27.0000000+00:00</time></trkpt><trkpt lat="39.48140918" lon="-0.37779484"><ele>-0.6</ele><time>2022-11-17T21:28:28.0000000+00:00</time></trkpt><trkpt lat="39.48141748" lon="-0.37781655"><ele>-0.6</ele><time>2022-11-17T21:28:29.0000000+00:00</time></trkpt><trkpt lat="39.48142427" lon="-0.37783952"><ele>-0.6</ele><time>2022-11-17T21:28:30.0000000+00:00</time></trkpt><trkpt lat="39.48142913" lon="-0.3778624"><ele>-0.6</ele><time>2022-11-17T21:28:31.0000000+00:00</time></trkpt><trkpt lat="39.4814345" lon="-0.37788226"><ele>-0.6</ele><time>2022-11-17T21:28:32.0000000+00:00</time></trkpt><trkpt lat="39.48144648" lon="-0.37789484"><ele>-0.6</ele><time>2022-11-17T21:28:33.0000000+00:00</time></trkpt><trkpt lat="39.48145486" lon="-0.37791017"><ele>-0.6</ele><time>2022-11-17T21:28:34.0000000+00:00</time></trkpt><trkpt lat="39.48146283" lon="-0.37792794"><ele>-0.6</ele><time>2022-11-17T21:28:35.0000000+00:00</time></trkpt><trkpt lat="39.48147339" lon="-0.37794245"><ele>-0.6</ele><time>2022-11-17T21:28:36.0000000+00:00</time></trkpt><trkpt lat="39.48147808" lon="-0.37795234"><ele>-0.6</ele><time>2022-11-17T21:28:37.0000000+00:00</time></trkpt><trkpt lat="39.48148269" lon="-0.37795929"><ele>-0.6</ele><time>2022-11-17T21:28:38.0000000+00:00</time></trkpt><trkpt lat="39.48148672" lon="-0.37797312"><ele>-0.4</ele><time>2022-11-17T21:28:39.0000000+00:00</time></trkpt><trkpt lat="39.481492" lon="-0.37798871"><ele>-0.4</ele><time>2022-11-17T21:28:40.0000000+00:00</time></trkpt><trkpt lat="39.48149535" lon="-0.37800598"><ele>-0.4</ele><time>2022-11-17T21:28:41.0000000+00:00</time></trkpt><trkpt lat="39.48149929" lon="-0.37802492"><ele>-0.2</ele><time>2022-11-17T21:28:42.0000000+00:00</time></trkpt><trkpt lat="39.48150474" lon="-0.37804068"><ele>-0.2</ele><time>2022-11-17T21:28:43.0000000+00:00</time></trkpt><trkpt lat="39.48151337" lon="-0.37805376"><ele>-0.2</ele><time>2022-11-17T21:28:44.0000000+00:00</time></trkpt><trkpt lat="39.48152083" lon="-0.37806616"><ele>-0.2</ele><time>2022-11-17T21:28:45.0000000+00:00</time></trkpt><trkpt lat="39.48152703" lon="-0.37808125"><ele>-0.2</ele><time>2022-11-17T21:28:46.0000000+00:00</time></trkpt><trkpt lat="39.48152955" lon="-0.37809642"><ele>-0.2</ele><time>2022-11-17T21:28:47.0000000+00:00</time></trkpt><trkpt lat="39.48152963" lon="-0.37811444"><ele>-0.4</ele><time>2022-11-17T21:28:48.0000000+00:00</time></trkpt><trkpt lat="39.48153391" lon="-0.37813339"><ele>-0.4</ele><time>2022-11-17T21:28:49.0000000+00:00</time></trkpt><trkpt lat="39.48153717" lon="-0.37815845"><ele>-0.4</ele><time>2022-11-17T21:28:50.0000000+00:00</time></trkpt><trkpt lat="39.48154162" lon="-0.37817429"><ele>-0.6</ele><time>2022-11-17T21:28:51.0000000+00:00</time></trkpt><trkpt lat="39.48154681" lon="-0.37817898"><ele>-0.6</ele><time>2022-11-17T21:28:52.0000000+00:00</time></trkpt><trkpt lat="39.4815495" lon="-0.37819122"><ele>-0.6</ele><time>2022-11-17T21:28:53.0000000+00:00</time></trkpt><trkpt lat="39.48154832" lon="-0.37820681"><ele>-0.6</ele><time>2022-11-17T21:28:54.0000000+00:00</time></trkpt><trkpt lat="39.48154883" lon="-0.37822969"><ele>-0.6</ele><time>2022-11-17T21:28:55.0000000+00:00</time></trkpt><trkpt lat="39.48155134" lon="-0.37825266"><ele>-0.6</ele><time>2022-11-17T21:28:56.0000000+00:00</time></trkpt><trkpt lat="39.48155478" lon="-0.37827303"><ele>-0.6</ele><time>2022-11-17T21:28:57.0000000+00:00</time></trkpt><trkpt lat="39.48155955" lon="-0.37828669"><ele>-0.6</ele><time>2022-11-17T21:28:58.0000000+00:00</time></trkpt><trkpt lat="39.4815671" lon="-0.37830203"><ele>-0.6</ele><time>2022-11-17T21:28:59.0000000+00:00</time></trkpt><trkpt lat="39.48157305" lon="-0.37831686"><ele>-0.6</ele><time>2022-11-17T21:29:00.0000000+00:00</time></trkpt><trkpt lat="39.48157137" lon="-0.37832935"><ele>-0.4</ele><time>2022-11-17T21:29:01.0000000+00:00</time></trkpt><trkpt lat="39.48156701" lon="-0.37834729"><ele>-0.4</ele><time>2022-11-17T21:29:02.0000000+00:00</time></trkpt><trkpt lat="39.48156626" lon="-0.37836649"><ele>-0.4</ele><time>2022-11-17T21:29:03.0000000+00:00</time></trkpt><trkpt lat="39.48157196" lon="-0.37838593"><ele>-0.4</ele><time>2022-11-17T21:29:04.0000000+00:00</time></trkpt><trkpt lat="39.48157783" lon="-0.37839985"><ele>-0.2</ele><time>2022-11-17T21:29:05.0000000+00:00</time></trkpt><trkpt lat="39.48158227" lon="-0.37840965"><ele>-0.2</ele><time>2022-11-17T21:29:06.0000000+00:00</time></trkpt><trkpt lat="39.48159141" lon="-0.37841745"><ele>-0.2</ele><time>2022-11-17T21:29:07.0000000+00:00</time></trkpt><trkpt lat="39.48159585" lon="-0.37843128"><ele>-0.2</ele><time>2022-11-17T21:29:08.0000000+00:00</time></trkpt><trkpt lat="39.48160054" lon="-0.37844704"><ele>-0.2</ele><time>2022-11-17T21:29:09.0000000+00:00</time></trkpt><trkpt lat="39.48161001" lon="-0.37845994"><ele>-0.2</ele><time>2022-11-17T21:29:10.0000000+00:00</time></trkpt><trkpt lat="39.48160985" lon="-0.37847889"><ele>-0.2</ele><time>2022-11-17T21:29:11.0000000+00:00</time></trkpt><trkpt lat="39.48161328" lon="-0.37849724"><ele>-0.2</ele><time>2022-11-17T21:29:12.0000000+00:00</time></trkpt><trkpt lat="39.48161881" lon="-0.37851434"><ele>-0.2</ele><time>2022-11-17T21:29:13.0000000+00:00</time></trkpt><trkpt lat="39.48162368" lon="-0.37853396"><ele>-0.2</ele><time>2022-11-17T21:29:14.0000000+00:00</time></trkpt><trkpt lat="39.48162711" lon="-0.37855248"><ele>-0.2</ele><time>2022-11-17T21:29:15.0000000+00:00</time></trkpt><trkpt lat="39.48163105" lon="-0.3785695"><ele>-0.2</ele><time>2022-11-17T21:29:16.0000000+00:00</time></trkpt><trkpt lat="39.48163088" lon="-0.37858986"><ele>-0.2</ele><time>2022-11-17T21:29:17.0000000+00:00</time></trkpt><trkpt lat="39.48163139" lon="-0.37860964"><ele>-0.2</ele><time>2022-11-17T21:29:18.0000000+00:00</time></trkpt><trkpt lat="39.48163784" lon="-0.37862289"><ele>-0.2</ele><time>2022-11-17T21:29:19.0000000+00:00</time></trkpt><trkpt lat="39.48164589" lon="-0.3786363"><ele>-0.2</ele><time>2022-11-17T21:29:20.0000000+00:00</time></trkpt><trkpt lat="39.48165402" lon="-0.37864954"><ele>-0.2</ele><time>2022-11-17T21:29:21.0000000+00:00</time></trkpt><trkpt lat="39.48165896" lon="-0.37866673"><ele>-0.4</ele><time>2022-11-17T21:29:22.0000000+00:00</time></trkpt><trkpt lat="39.48166265" lon="-0.37868123"><ele>-0.4</ele><time>2022-11-17T21:29:23.0000000+00:00</time></trkpt><trkpt lat="39.48166567" lon="-0.37869363"><ele>-0.4</ele><time>2022-11-17T21:29:24.0000000+00:00</time></trkpt><trkpt lat="39.4816733" lon="-0.37870436"><ele>-0.4</ele><time>2022-11-17T21:29:25.0000000+00:00</time></trkpt><trkpt lat="39.48168252" lon="-0.37871626"><ele>-0.4</ele><time>2022-11-17T21:29:26.0000000+00:00</time></trkpt><trkpt lat="39.48169232" lon="-0.37873051"><ele>-0.4</ele><time>2022-11-17T21:29:27.0000000+00:00</time></trkpt><trkpt lat="39.48169786" lon="-0.3787373"><ele>-0.4</ele><time>2022-11-17T21:29:28.0000000+00:00</time></trkpt><trkpt lat="39.48170423" lon="-0.3787482"><ele>-0.4</ele><time>2022-11-17T21:29:29.0000000+00:00</time></trkpt><trkpt lat="39.4817111" lon="-0.37875943"><ele>-0.4</ele><time>2022-11-17T21:29:30.0000000+00:00</time></trkpt><trkpt lat="39.4817194" lon="-0.37877494"><ele>-0.4</ele><time>2022-11-17T21:29:31.0000000+00:00</time></trkpt><trkpt lat="39.48172166" lon="-0.37878416"><ele>-0.4</ele><time>2022-11-17T21:29:32.0000000+00:00</time></trkpt><trkpt lat="39.48172719" lon="-0.37879991"><ele>-0.2</ele><time>2022-11-17T21:29:33.0000000+00:00</time></trkpt><trkpt lat="39.4817308" lon="-0.37881651"><ele>-0.2</ele><time>2022-11-17T21:29:34.0000000+00:00</time></trkpt><trkpt lat="39.48173817" lon="-0.37883068"><ele>-0.2</ele><time>2022-11-17T21:29:35.0000000+00:00</time></trkpt><trkpt lat="39.48174194" lon="-0.37884409"><ele>-0.2</ele><time>2022-11-17T21:29:36.0000000+00:00</time></trkpt><trkpt lat="39.48174479" lon="-0.37885733"><ele>0.0</ele><time>2022-11-17T21:29:37.0000000+00:00</time></trkpt><trkpt lat="39.48174966" lon="-0.37886839"><ele>0.0</ele><time>2022-11-17T21:29:38.0000000+00:00</time></trkpt><trkpt lat="39.48175645" lon="-0.37888231"><ele>0.0</ele><time>2022-11-17T21:29:39.0000000+00:00</time></trkpt><trkpt lat="39.48176072" lon="-0.37889957"><ele>0.0</ele><time>2022-11-17T21:29:40.0000000+00:00</time></trkpt><trkpt lat="39.4817634" lon="-0.37891667"><ele>0.0</ele><time>2022-11-17T21:29:41.0000000+00:00</time></trkpt><trkpt lat="39.48176776" lon="-0.37893285"><ele>0.0</ele><time>2022-11-17T21:29:42.0000000+00:00</time></trkpt><trkpt lat="39.48177329" lon="-0.3789471"><ele>-0.2</ele><time>2022-11-17T21:29:43.0000000+00:00</time></trkpt><trkpt lat="39.48177849" lon="-0.37895875"><ele>-0.2</ele><time>2022-11-17T21:29:44.0000000+00:00</time></trkpt><trkpt lat="39.48178168" lon="-0.37897049"><ele>-0.2</ele><time>2022-11-17T21:29:45.0000000+00:00</time></trkpt><trkpt lat="39.48178268" lon="-0.37897853"><ele>-0.2</ele><time>2022-11-17T21:29:46.0000000+00:00</time></trkpt><trkpt lat="39.48178394" lon="-0.37898432"><ele>-0.2</ele><time>2022-11-17T21:29:47.0000000+00:00</time></trkpt><trkpt lat="39.4817857" lon="-0.37898817"><ele>-0.2</ele><time>2022-11-17T21:29:48.0000000+00:00</time></trkpt><trkpt lat="39.4817919" lon="-0.37899261"><ele>-0.2</ele><time>2022-11-17T21:29:49.0000000+00:00</time></trkpt><trkpt lat="39.48180053" lon="-0.37899295"><ele>-0.2</ele><time>2022-11-17T21:29:50.0000000+00:00</time></trkpt><trkpt lat="39.4818095" lon="-0.37898465"><ele>-0.2</ele><time>2022-11-17T21:29:51.0000000+00:00</time></trkpt><trkpt lat="39.48181462" lon="-0.37897694"><ele>0.0</ele><time>2022-11-17T21:29:52.0000000+00:00</time></trkpt><trkpt lat="39.48181998" lon="-0.37896948"><ele>0.0</ele><time>2022-11-17T21:29:53.0000000+00:00</time></trkpt><trkpt lat="39.48182736" lon="-0.3789606"><ele>0.0</ele><time>2022-11-17T21:29:54.0000000+00:00</time></trkpt><trkpt lat="39.4818344" lon="-0.37895246"><ele>0.2</ele><time>2022-11-17T21:29:55.0000000+00:00</time></trkpt><trkpt lat="39.48184504" lon="-0.37895196"><ele>0.2</ele><time>2022-11-17T21:29:56.0000000+00:00</time></trkpt><trkpt lat="39.48185653" lon="-0.37894785"><ele>0.2</ele><time>2022-11-17T21:29:57.0000000+00:00</time></trkpt><trkpt lat="39.48186742" lon="-0.37894358"><ele>0.2</ele><time>2022-11-17T21:29:58.0000000+00:00</time></trkpt><trkpt lat="39.48187865" lon="-0.37893872"><ele>0.2</ele><time>2022-11-17T21:29:59.0000000+00:00</time></trkpt><trkpt lat="39.4818929" lon="-0.3789414"><ele>0.4</ele><time>2022-11-17T21:30:00.0000000+00:00</time></trkpt><trkpt lat="39.48190447" lon="-0.37894894"><ele>0.4</ele><time>2022-11-17T21:30:01.0000000+00:00</time></trkpt><trkpt lat="39.48191646" lon="-0.37895582"><ele>0.4</ele><time>2022-11-17T21:30:02.0000000+00:00</time></trkpt><trkpt lat="39.48192995" lon="-0.37896093"><ele>0.4</ele><time>2022-11-17T21:30:03.0000000+00:00</time></trkpt><trkpt lat="39.48194286" lon="-0.37896554"><ele>0.4</ele><time>2022-11-17T21:30:04.0000000+00:00</time></trkpt><trkpt lat="39.48195518" lon="-0.37896889"><ele>0.4</ele><time>2022-11-17T21:30:05.0000000+00:00</time></trkpt><trkpt lat="39.48196985" lon="-0.37897191"><ele>0.4</ele><time>2022-11-17T21:30:06.0000000+00:00</time></trkpt><trkpt lat="39.48197857" lon="-0.37897602"><ele>0.4</ele><time>2022-11-17T21:30:07.0000000+00:00</time></trkpt><trkpt lat="39.48198762" lon="-0.37898172"><ele>0.4</ele><time>2022-11-17T21:30:08.0000000+00:00</time></trkpt><trkpt lat="39.48199608" lon="-0.37898733"><ele>0.4</ele><time>2022-11-17T21:30:09.0000000+00:00</time></trkpt><trkpt lat="39.48200891" lon="-0.37899588"><ele>0.4</ele><time>2022-11-17T21:30:10.0000000+00:00</time></trkpt><trkpt lat="39.48202333" lon="-0.379001"><ele>0.4</ele><time>2022-11-17T21:30:11.0000000+00:00</time></trkpt><trkpt lat="39.48203942" lon="-0.3790077"><ele>0.4</ele><time>2022-11-17T21:30:12.0000000+00:00</time></trkpt><trkpt lat="39.48204897" lon="-0.37901499"><ele>0.4</ele><time>2022-11-17T21:30:13.0000000+00:00</time></trkpt><trkpt lat="39.48205308" lon="-0.37902262"><ele>0.4</ele><time>2022-11-17T21:30:14.0000000+00:00</time></trkpt><trkpt lat="39.48205744" lon="-0.37902849"><ele>0.4</ele><time>2022-11-17T21:30:15.0000000+00:00</time></trkpt><trkpt lat="39.48206792" lon="-0.37903511"><ele>0.4</ele><time>2022-11-17T21:30:16.0000000+00:00</time></trkpt><trkpt lat="39.48207948" lon="-0.37904341"><ele>0.4</ele><time>2022-11-17T21:30:17.0000000+00:00</time></trkpt><trkpt lat="39.48208745" lon="-0.37905724"><ele>0.4</ele><time>2022-11-17T21:30:18.0000000+00:00</time></trkpt><trkpt lat="39.48208996" lon="-0.37907627"><ele>0.4</ele><time>2022-11-17T21:30:19.0000000+00:00</time></trkpt><trkpt lat="39.48209608" lon="-0.37909362"><ele>0.6</ele><time>2022-11-17T21:30:20.0000000+00:00</time></trkpt><trkpt lat="39.4821079" lon="-0.37910619"><ele>0.6</ele><time>2022-11-17T21:30:21.0000000+00:00</time></trkpt><trkpt lat="39.48211896" lon="-0.37912228"><ele>0.6</ele><time>2022-11-17T21:30:22.0000000+00:00</time></trkpt><trkpt lat="39.4821317" lon="-0.3791372"><ele>0.6</ele><time>2022-11-17T21:30:23.0000000+00:00</time></trkpt><trkpt lat="39.48214503" lon="-0.37914642"><ele>0.6</ele><time>2022-11-17T21:30:24.0000000+00:00</time></trkpt><trkpt lat="39.48215668" lon="-0.37915028"><ele>0.6</ele><time>2022-11-17T21:30:25.0000000+00:00</time></trkpt><trkpt lat="39.48215752" lon="-0.37915573"><ele>0.6</ele><time>2022-11-17T21:30:26.0000000+00:00</time></trkpt><trkpt lat="39.48216682" lon="-0.37915447"><ele>0.8</ele><time>2022-11-17T21:30:27.0000000+00:00</time></trkpt><trkpt lat="39.48217596" lon="-0.37915715"><ele>0.8</ele><time>2022-11-17T21:30:28.0000000+00:00</time></trkpt><trkpt lat="39.4821866" lon="-0.37916478"><ele>0.8</ele><time>2022-11-17T21:30:29.0000000+00:00</time></trkpt><trkpt lat="39.48220102" lon="-0.37917459"><ele>0.8</ele><time>2022-11-17T21:30:30.0000000+00:00</time></trkpt><trkpt lat="39.48221787" lon="-0.37918531"><ele>1.0</ele><time>2022-11-17T21:30:31.0000000+00:00</time></trkpt><trkpt lat="39.48222726" lon="-0.37920317"><ele>1.0</ele><time>2022-11-17T21:30:32.0000000+00:00</time></trkpt><trkpt lat="39.48223589" lon="-0.37921582"><ele>1.0</ele><time>2022-11-17T21:30:33.0000000+00:00</time></trkpt><trkpt lat="39.4822436" lon="-0.37922245"><ele>1.2</ele><time>2022-11-17T21:30:34.0000000+00:00</time></trkpt><trkpt lat="39.48225492" lon="-0.37922488"><ele>1.2</ele><time>2022-11-17T21:30:35.0000000+00:00</time></trkpt><trkpt lat="39.48226414" lon="-0.37923058"><ele>1.2</ele><time>2022-11-17T21:30:36.0000000+00:00</time></trkpt><trkpt lat="39.48227394" lon="-0.37924239"><ele>1.0</ele><time>2022-11-17T21:30:37.0000000+00:00</time></trkpt><trkpt lat="39.48227931" lon="-0.37925069"><ele>1.0</ele><time>2022-11-17T21:30:38.0000000+00:00</time></trkpt><trkpt lat="39.48227746" lon="-0.37926503"><ele>1.0</ele><time>2022-11-17T21:30:39.0000000+00:00</time></trkpt><trkpt lat="39.48227445" lon="-0.37927718"><ele>0.8</ele><time>2022-11-17T21:30:40.0000000+00:00</time></trkpt><trkpt lat="39.48227822" lon="-0.37929042"><ele>0.8</ele><time>2022-11-17T21:30:41.0000000+00:00</time></trkpt><trkpt lat="39.48227822" lon="-0.37930459"><ele>0.8</ele><time>2022-11-17T21:30:42.0000000+00:00</time></trkpt><trkpt lat="39.48227319" lon="-0.37932345"><ele>0.8</ele><time>2022-11-17T21:30:43.0000000+00:00</time></trkpt><trkpt lat="39.48226866" lon="-0.37934197"><ele>0.6</ele><time>2022-11-17T21:30:44.0000000+00:00</time></trkpt><trkpt lat="39.48226908" lon="-0.37936519"><ele>0.6</ele><time>2022-11-17T21:30:45.0000000+00:00</time></trkpt><trkpt lat="39.48227017" lon="-0.37937692"><ele>0.6</ele><time>2022-11-17T21:30:46.0000000+00:00</time></trkpt><trkpt lat="39.48227369" lon="-0.37939444"><ele>0.6</ele><time>2022-11-17T21:30:47.0000000+00:00</time></trkpt><trkpt lat="39.48227461" lon="-0.37940559"><ele>0.4</ele><time>2022-11-17T21:30:48.0000000+00:00</time></trkpt><trkpt lat="39.48227411" lon="-0.3794123"><ele>0.4</ele><time>2022-11-17T21:30:49.0000000+00:00</time></trkpt><trkpt lat="39.48228082" lon="-0.37942956"><ele>0.6</ele><time>2022-11-17T21:30:50.0000000+00:00</time></trkpt><trkpt lat="39.48228065" lon="-0.37944239"><ele>0.6</ele><time>2022-11-17T21:30:51.0000000+00:00</time></trkpt><trkpt lat="39.48227847" lon="-0.37944892"><ele>0.6</ele><time>2022-11-17T21:30:52.0000000+00:00</time></trkpt><trkpt lat="39.48227998" lon="-0.3794615"><ele>0.6</ele><time>2022-11-17T21:30:53.0000000+00:00</time></trkpt><trkpt lat="39.48228333" lon="-0.3794765"><ele>0.6</ele><time>2022-11-17T21:30:54.0000000+00:00</time></trkpt><trkpt lat="39.48228736" lon="-0.37949184"><ele>0.6</ele><time>2022-11-17T21:30:55.0000000+00:00</time></trkpt><trkpt lat="39.4822918" lon="-0.37950785"><ele>0.6</ele><time>2022-11-17T21:30:56.0000000+00:00</time></trkpt><trkpt lat="39.48229272" lon="-0.37952034"><ele>0.6</ele><time>2022-11-17T21:30:57.0000000+00:00</time></trkpt><trkpt lat="39.48229046" lon="-0.37953962"><ele>0.6</ele><time>2022-11-17T21:30:58.0000000+00:00</time></trkpt><trkpt lat="39.48228844" lon="-0.37955931"><ele>0.6</ele><time>2022-11-17T21:30:59.0000000+00:00</time></trkpt><trkpt lat="39.48228903" lon="-0.37957868"><ele>0.6</ele><time>2022-11-17T21:31:00.0000000+00:00</time></trkpt><trkpt lat="39.48229146" lon="-0.37959645"><ele>0.6</ele><time>2022-11-17T21:31:01.0000000+00:00</time></trkpt><trkpt lat="39.48229498" lon="-0.37961497"><ele>0.6</ele><time>2022-11-17T21:31:02.0000000+00:00</time></trkpt><trkpt lat="39.4823016" lon="-0.379634"><ele>0.6</ele><time>2022-11-17T21:31:03.0000000+00:00</time></trkpt><trkpt lat="39.48230445" lon="-0.37965043"><ele>0.6</ele><time>2022-11-17T21:31:04.0000000+00:00</time></trkpt><trkpt lat="39.4823094" lon="-0.3796656"><ele>0.6</ele><time>2022-11-17T21:31:05.0000000+00:00</time></trkpt><trkpt lat="39.4823146" lon="-0.37968211"><ele>0.6</ele><time>2022-11-17T21:31:06.0000000+00:00</time></trkpt><trkpt lat="39.48231367" lon="-0.37970147"><ele>0.6</ele><time>2022-11-17T21:31:07.0000000+00:00</time></trkpt><trkpt lat="39.48231451" lon="-0.37972427"><ele>0.6</ele><time>2022-11-17T21:31:08.0000000+00:00</time></trkpt><trkpt lat="39.4823182" lon="-0.37974791"><ele>0.6</ele><time>2022-11-17T21:31:09.0000000+00:00</time></trkpt><trkpt lat="39.48231535" lon="-0.37977071"><ele>0.6</ele><time>2022-11-17T21:31:10.0000000+00:00</time></trkpt><trkpt lat="39.48231577" lon="-0.37978789"><ele>0.4</ele><time>2022-11-17T21:31:11.0000000+00:00</time></trkpt><trkpt lat="39.48232038" lon="-0.37980465"><ele>0.4</ele><time>2022-11-17T21:31:12.0000000+00:00</time></trkpt><trkpt lat="39.48232264" lon="-0.37981999"><ele>0.4</ele><time>2022-11-17T21:31:13.0000000+00:00</time></trkpt><trkpt lat="39.48232533" lon="-0.37983424"><ele>0.4</ele><time>2022-11-17T21:31:14.0000000+00:00</time></trkpt><trkpt lat="39.48232851" lon="-0.37984874"><ele>0.4</ele><time>2022-11-17T21:31:15.0000000+00:00</time></trkpt><trkpt lat="39.48232667" lon="-0.37986341"><ele>0.4</ele><time>2022-11-17T21:31:16.0000000+00:00</time></trkpt><trkpt lat="39.48232239" lon="-0.37987934"><ele>0.4</ele><time>2022-11-17T21:31:17.0000000+00:00</time></trkpt><trkpt lat="39.48232331" lon="-0.37989216"><ele>0.4</ele><time>2022-11-17T21:31:18.0000000+00:00</time></trkpt><trkpt lat="39.4823234" lon="-0.37990222"><ele>0.4</ele><time>2022-11-17T21:31:19.0000000+00:00</time></trkpt><trkpt lat="39.48231845" lon="-0.37991429"><ele>0.2</ele><time>2022-11-17T21:31:20.0000000+00:00</time></trkpt><trkpt lat="39.48231854" lon="-0.37992275"><ele>0.2</ele><time>2022-11-17T21:31:21.0000000+00:00</time></trkpt><trkpt lat="39.48232088" lon="-0.37993164"><ele>0.2</ele><time>2022-11-17T21:31:22.0000000+00:00</time></trkpt><trkpt lat="39.48232264" lon="-0.37994547"><ele>0.2</ele><time>2022-11-17T21:31:23.0000000+00:00</time></trkpt><trkpt lat="39.48231887" lon="-0.37996542"><ele>0.2</ele><time>2022-11-17T21:31:24.0000000+00:00</time></trkpt><trkpt lat="39.48231652" lon="-0.37997791"><ele>0.2</ele><time>2022-11-17T21:31:25.0000000+00:00</time></trkpt><trkpt lat="39.48231828" lon="-0.37999182"><ele>0.2</ele><time>2022-11-17T21:31:26.0000000+00:00</time></trkpt><trkpt lat="39.48231887" lon="-0.38000682"><ele>0.2</ele><time>2022-11-17T21:31:27.0000000+00:00</time></trkpt><trkpt lat="39.48231611" lon="-0.38002459"><ele>0.2</ele><time>2022-11-17T21:31:28.0000000+00:00</time></trkpt><trkpt lat="39.48231242" lon="-0.38004102"><ele>0.4</ele><time>2022-11-17T21:31:29.0000000+00:00</time></trkpt><trkpt lat="39.48231158" lon="-0.38005712"><ele>0.4</ele><time>2022-11-17T21:31:30.0000000+00:00</time></trkpt><trkpt lat="39.48231342" lon="-0.38007262"><ele>0.6</ele><time>2022-11-17T21:31:31.0000000+00:00</time></trkpt><trkpt lat="39.48232038" lon="-0.38009131"><ele>0.6</ele><time>2022-11-17T21:31:32.0000000+00:00</time></trkpt><trkpt lat="39.48232348" lon="-0.38010481"><ele>0.6</ele><time>2022-11-17T21:31:33.0000000+00:00</time></trkpt><trkpt lat="39.48232943" lon="-0.38011747"><ele>0.6</ele><time>2022-11-17T21:31:34.0000000+00:00</time></trkpt><trkpt lat="39.48233564" lon="-0.38013574"><ele>0.6</ele><time>2022-11-17T21:31:35.0000000+00:00</time></trkpt><trkpt lat="39.48232474" lon="-0.38016365"><ele>0.4</ele><time>2022-11-17T21:31:36.0000000+00:00</time></trkpt><trkpt lat="39.48231661" lon="-0.38018737"><ele>0.4</ele><time>2022-11-17T21:31:37.0000000+00:00</time></trkpt><trkpt lat="39.4823182" lon="-0.38019986"><ele>0.4</ele><time>2022-11-17T21:31:38.0000000+00:00</time></trkpt><trkpt lat="39.48231929" lon="-0.38019936"><ele>0.4</ele><time>2022-11-17T21:31:39.0000000+00:00</time></trkpt><trkpt lat="39.48232147" lon="-0.38020045"><ele>0.4</ele><time>2022-11-17T21:31:40.0000000+00:00</time></trkpt><trkpt lat="39.48233211" lon="-0.38021126"><ele>0.4</ele><time>2022-11-17T21:31:41.0000000+00:00</time></trkpt><trkpt lat="39.48233924" lon="-0.38022442"><ele>0.4</ele><time>2022-11-17T21:31:42.0000000+00:00</time></trkpt><trkpt lat="39.48234821" lon="-0.38023029"><ele>0.4</ele><time>2022-11-17T21:31:43.0000000+00:00</time></trkpt><trkpt lat="39.48235801" lon="-0.38023221"><ele>0.4</ele><time>2022-11-17T21:31:44.0000000+00:00</time></trkpt><trkpt lat="39.48236405" lon="-0.38024076"><ele>0.4</ele><time>2022-11-17T21:31:45.0000000+00:00</time></trkpt><trkpt lat="39.48236958" lon="-0.38024562"><ele>0.4</ele><time>2022-11-17T21:31:46.0000000+00:00</time></trkpt><trkpt lat="39.48237084" lon="-0.38025392"><ele>0.4</ele><time>2022-11-17T21:31:47.0000000+00:00</time></trkpt><trkpt lat="39.48237226" lon="-0.38026474"><ele>0.8</ele><time>2022-11-17T21:31:48.0000000+00:00</time></trkpt><trkpt lat="39.48237612" lon="-0.38026499"><ele>0.8</ele><time>2022-11-17T21:31:49.0000000+00:00</time></trkpt><trkpt lat="39.48238735" lon="-0.3802587"><ele>0.8</ele><time>2022-11-17T21:31:50.0000000+00:00</time></trkpt><trkpt lat="39.48240001" lon="-0.38025376"><ele>0.8</ele><time>2022-11-17T21:31:51.0000000+00:00</time></trkpt><trkpt lat="39.48241451" lon="-0.38025191"><ele>0.8</ele><time>2022-11-17T21:31:52.0000000+00:00</time></trkpt><trkpt lat="39.482427" lon="-0.38025736"><ele>0.8</ele><time>2022-11-17T21:31:53.0000000+00:00</time></trkpt><trkpt lat="39.48243714" lon="-0.38026323"><ele>0.8</ele><time>2022-11-17T21:31:54.0000000+00:00</time></trkpt><trkpt lat="39.48244368" lon="-0.38026742"><ele>0.8</ele><time>2022-11-17T21:31:55.0000000+00:00</time></trkpt><trkpt lat="39.48245038" lon="-0.38027437"><ele>0.8</ele><time>2022-11-17T21:31:56.0000000+00:00</time></trkpt><trkpt lat="39.48246312" lon="-0.38028133"><ele>0.8</ele><time>2022-11-17T21:31:57.0000000+00:00</time></trkpt><trkpt lat="39.48247427" lon="-0.38029097"><ele>0.8</ele><time>2022-11-17T21:31:58.0000000+00:00</time></trkpt><trkpt lat="39.48248291" lon="-0.38030698"><ele>0.8</ele><time>2022-11-17T21:31:59.0000000+00:00</time></trkpt><trkpt lat="39.48249682" lon="-0.38032198"><ele>0.8</ele><time>2022-11-17T21:32:00.0000000+00:00</time></trkpt><trkpt lat="39.48250964" lon="-0.38033179"><ele>0.8</ele><time>2022-11-17T21:32:01.0000000+00:00</time></trkpt><trkpt lat="39.48251861" lon="-0.38034487"><ele>0.8</ele><time>2022-11-17T21:32:02.0000000+00:00</time></trkpt><trkpt lat="39.48252699" lon="-0.38034839"><ele>0.8</ele><time>2022-11-17T21:32:03.0000000+00:00</time></trkpt><trkpt lat="39.48252322" lon="-0.38036691"><ele>1.0</ele><time>2022-11-17T21:32:04.0000000+00:00</time></trkpt><trkpt lat="39.48252523" lon="-0.3803763"><ele>1.2</ele><time>2022-11-17T21:32:05.0000000+00:00</time></trkpt><trkpt lat="39.4825301" lon="-0.38039298"><ele>1.2</ele><time>2022-11-17T21:32:06.0000000+00:00</time></trkpt><trkpt lat="39.48253437" lon="-0.3804146"><ele>1.2</ele><time>2022-11-17T21:32:07.0000000+00:00</time></trkpt><trkpt lat="39.48253839" lon="-0.38043606"><ele>1.2</ele><time>2022-11-17T21:32:08.0000000+00:00</time></trkpt><trkpt lat="39.48254108" lon="-0.38046137"><ele>1.0</ele><time>2022-11-17T21:32:09.0000000+00:00</time></trkpt><trkpt lat="39.48254501" lon="-0.38048945"><ele>0.8</ele><time>2022-11-17T21:32:10.0000000+00:00</time></trkpt><trkpt lat="39.4825482" lon="-0.38051711"><ele>0.8</ele><time>2022-11-17T21:32:11.0000000+00:00</time></trkpt><trkpt lat="39.48254929" lon="-0.3805353"><ele>0.8</ele><time>2022-11-17T21:32:12.0000000+00:00</time></trkpt><trkpt lat="39.48255482" lon="-0.38054955"><ele>0.8</ele><time>2022-11-17T21:32:13.0000000+00:00</time></trkpt><trkpt lat="39.48256278" lon="-0.38056313"><ele>1.0</ele><time>2022-11-17T21:32:14.0000000+00:00</time></trkpt><trkpt lat="39.48257024" lon="-0.38058149"><ele>1.0</ele><time>2022-11-17T21:32:15.0000000+00:00</time></trkpt><trkpt lat="39.48257335" lon="-0.38060169"><ele>1.0</ele><time>2022-11-17T21:32:16.0000000+00:00</time></trkpt><trkpt lat="39.48257586" lon="-0.3806182"><ele>1.0</ele><time>2022-11-17T21:32:17.0000000+00:00</time></trkpt><trkpt lat="39.48258122" lon="-0.3806332"><ele>1.2</ele><time>2022-11-17T21:32:18.0000000+00:00</time></trkpt><trkpt lat="39.48258701" lon="-0.38064628"><ele>1.2</ele><time>2022-11-17T21:32:19.0000000+00:00</time></trkpt><trkpt lat="39.48259086" lon="-0.38065734"><ele>1.2</ele><time>2022-11-17T21:32:20.0000000+00:00</time></trkpt><trkpt lat="39.48259061" lon="-0.38067034"><ele>1.2</ele><time>2022-11-17T21:32:21.0000000+00:00</time></trkpt><trkpt lat="39.48258835" lon="-0.38068023"><ele>1.4</ele><time>2022-11-17T21:32:22.0000000+00:00</time></trkpt><trkpt lat="39.48258349" lon="-0.38069054"><ele>1.6</ele><time>2022-11-17T21:32:23.0000000+00:00</time></trkpt><trkpt lat="39.48258374" lon="-0.38069925"><ele>1.6</ele><time>2022-11-17T21:32:24.0000000+00:00</time></trkpt><trkpt lat="39.48257913" lon="-0.38071593"><ele>1.8</ele><time>2022-11-17T21:32:25.0000000+00:00</time></trkpt><trkpt lat="39.4825777" lon="-0.38072968"><ele>1.6</ele><time>2022-11-17T21:32:26.0000000+00:00</time></trkpt><trkpt lat="39.48258366" lon="-0.3807415"><ele>1.6</ele><time>2022-11-17T21:32:27.0000000+00:00</time></trkpt><trkpt lat="39.48259329" lon="-0.38075449"><ele>1.4</ele><time>2022-11-17T21:32:28.0000000+00:00</time></trkpt><trkpt lat="39.48259329" lon="-0.38076857"><ele>1.4</ele><time>2022-11-17T21:32:29.0000000+00:00</time></trkpt><trkpt lat="39.48258676" lon="-0.38078215"><ele>1.4</ele><time>2022-11-17T21:32:30.0000000+00:00</time></trkpt><trkpt lat="39.48257636" lon="-0.38078927"><ele>1.4</ele><time>2022-11-17T21:32:31.0000000+00:00</time></trkpt><trkpt lat="39.48257209" lon="-0.38079724"><ele>1.4</ele><time>2022-11-17T21:32:32.0000000+00:00</time></trkpt><trkpt lat="39.48256739" lon="-0.38081082"><ele>1.4</ele><time>2022-11-17T21:32:33.0000000+00:00</time></trkpt><trkpt lat="39.4825653" lon="-0.38081928"><ele>1.4</ele><time>2022-11-17T21:32:34.0000000+00:00</time></trkpt><trkpt lat="39.48257293" lon="-0.38083294"><ele>1.4</ele><time>2022-11-17T21:32:35.0000000+00:00</time></trkpt><trkpt lat="39.48257242" lon="-0.38084761"><ele>1.4</ele><time>2022-11-17T21:32:36.0000000+00:00</time></trkpt><trkpt lat="39.48257133" lon="-0.38085809"><ele>1.4</ele><time>2022-11-17T21:32:37.0000000+00:00</time></trkpt><trkpt lat="39.48256664" lon="-0.38086429"><ele>1.4</ele><time>2022-11-17T21:32:38.0000000+00:00</time></trkpt><trkpt lat="39.48256061" lon="-0.38087687"><ele>1.6</ele><time>2022-11-17T21:32:39.0000000+00:00</time></trkpt><trkpt lat="39.48255918" lon="-0.38089346"><ele>1.6</ele><time>2022-11-17T21:32:40.0000000+00:00</time></trkpt><trkpt lat="39.48255491" lon="-0.38090587"><ele>1.6</ele><time>2022-11-17T21:32:41.0000000+00:00</time></trkpt><trkpt lat="39.4825539" lon="-0.38092414"><ele>1.4</ele><time>2022-11-17T21:32:42.0000000+00:00</time></trkpt><trkpt lat="39.48255315" lon="-0.38094417"><ele>1.4</ele><time>2022-11-17T21:32:43.0000000+00:00</time></trkpt><trkpt lat="39.48254912" lon="-0.38097711"><ele>1.4</ele><time>2022-11-17T21:32:44.0000000+00:00</time></trkpt><trkpt lat="39.48254367" lon="-0.3809984"><ele>1.4</ele><time>2022-11-17T21:32:45.0000000+00:00</time></trkpt><trkpt lat="39.48254292" lon="-0.38101584"><ele>1.4</ele><time>2022-11-17T21:32:46.0000000+00:00</time></trkpt><trkpt lat="39.48254351" lon="-0.38103336"><ele>1.4</ele><time>2022-11-17T21:32:47.0000000+00:00</time></trkpt><trkpt lat="39.48254627" lon="-0.38104643"><ele>1.4</ele><time>2022-11-17T21:32:48.0000000+00:00</time></trkpt><trkpt lat="39.48254879" lon="-0.38105833"><ele>1.4</ele><time>2022-11-17T21:32:49.0000000+00:00</time></trkpt><trkpt lat="39.48255206" lon="-0.38107099"><ele>1.4</ele><time>2022-11-17T21:32:50.0000000+00:00</time></trkpt><trkpt lat="39.48255524" lon="-0.38108574"><ele>1.4</ele><time>2022-11-17T21:32:51.0000000+00:00</time></trkpt><trkpt lat="39.48255809" lon="-0.38109932"><ele>1.6</ele><time>2022-11-17T21:32:52.0000000+00:00</time></trkpt><trkpt lat="39.48255667" lon="-0.38111248"><ele>1.6</ele><time>2022-11-17T21:32:53.0000000+00:00</time></trkpt><trkpt lat="39.48255139" lon="-0.38112648"><ele>1.6</ele><time>2022-11-17T21:32:54.0000000+00:00</time></trkpt><trkpt lat="39.48254954" lon="-0.38114064"><ele>1.6</ele><time>2022-11-17T21:32:55.0000000+00:00</time></trkpt><trkpt lat="39.48254644" lon="-0.38115783"><ele>1.6</ele><time>2022-11-17T21:32:56.0000000+00:00</time></trkpt><trkpt lat="39.48254778" lon="-0.38117627"><ele>1.6</ele><time>2022-11-17T21:32:57.0000000+00:00</time></trkpt><trkpt lat="39.48255474" lon="-0.38120007"><ele>1.6</ele><time>2022-11-17T21:32:58.0000000+00:00</time></trkpt><trkpt lat="39.48255591" lon="-0.38121801"><ele>1.6</ele><time>2022-11-17T21:32:59.0000000+00:00</time></trkpt><trkpt lat="39.48255356" lon="-0.38123402"><ele>1.6</ele><time>2022-11-17T21:33:00.0000000+00:00</time></trkpt><trkpt lat="39.48255147" lon="-0.38124768"><ele>1.6</ele><time>2022-11-17T21:33:01.0000000+00:00</time></trkpt><trkpt lat="39.48254694" lon="-0.3812631"><ele>1.6</ele><time>2022-11-17T21:33:02.0000000+00:00</time></trkpt><trkpt lat="39.48254501" lon="-0.38127576"><ele>1.8</ele><time>2022-11-17T21:33:03.0000000+00:00</time></trkpt><trkpt lat="39.48253932" lon="-0.3812906"><ele>1.8</ele><time>2022-11-17T21:33:04.0000000+00:00</time></trkpt><trkpt lat="39.48253965" lon="-0.38130853"><ele>1.8</ele><time>2022-11-17T21:33:05.0000000+00:00</time></trkpt><trkpt lat="39.48253311" lon="-0.38132547"><ele>1.8</ele><time>2022-11-17T21:33:06.0000000+00:00</time></trkpt><trkpt lat="39.48252666" lon="-0.3813408"><ele>1.6</ele><time>2022-11-17T21:33:07.0000000+00:00</time></trkpt><trkpt lat="39.48252347" lon="-0.38135296"><ele>1.6</ele><time>2022-11-17T21:33:08.0000000+00:00</time></trkpt><trkpt lat="39.48252423" lon="-0.38136796"><ele>1.4</ele><time>2022-11-17T21:33:09.0000000+00:00</time></trkpt><trkpt lat="39.48253026" lon="-0.38138397"><ele>1.6</ele><time>2022-11-17T21:33:10.0000000+00:00</time></trkpt><trkpt lat="39.48254108" lon="-0.38140333"><ele>1.6</ele><time>2022-11-17T21:33:11.0000000+00:00</time></trkpt><trkpt lat="39.48255558" lon="-0.38142085"><ele>1.6</ele><time>2022-11-17T21:33:12.0000000+00:00</time></trkpt><trkpt lat="39.48257066" lon="-0.38143016"><ele>1.6</ele><time>2022-11-17T21:33:13.0000000+00:00</time></trkpt><trkpt lat="39.48258257" lon="-0.38142689"><ele>1.6</ele><time>2022-11-17T21:33:14.0000000+00:00</time></trkpt><trkpt lat="39.48258768" lon="-0.38141356"><ele>1.6</ele><time>2022-11-17T21:33:15.0000000+00:00</time></trkpt><trkpt lat="39.48258827" lon="-0.38140191"><ele>1.8</ele><time>2022-11-17T21:33:16.0000000+00:00</time></trkpt><trkpt lat="39.48259044" lon="-0.38139537"><ele>1.8</ele><time>2022-11-17T21:33:17.0000000+00:00</time></trkpt><trkpt lat="39.48259522" lon="-0.38138506"><ele>2.0</ele><time>2022-11-17T21:33:18.0000000+00:00</time></trkpt><trkpt lat="39.48259631" lon="-0.3813688"><ele>2.0</ele><time>2022-11-17T21:33:19.0000000+00:00</time></trkpt><trkpt lat="39.4825974" lon="-0.38135598"><ele>2.2</ele><time>2022-11-17T21:33:20.0000000+00:00</time></trkpt><trkpt lat="39.48259874" lon="-0.38134349"><ele>2.2</ele><time>2022-11-17T21:33:21.0000000+00:00</time></trkpt><trkpt lat="39.48259933" lon="-0.38133494"><ele>2.4</ele><time>2022-11-17T21:33:22.0000000+00:00</time></trkpt><trkpt lat="39.4826005" lon="-0.38132588"><ele>2.4</ele><time>2022-11-17T21:33:23.0000000+00:00</time></trkpt><trkpt lat="39.48260293" lon="-0.38130996"><ele>2.6</ele><time>2022-11-17T21:33:24.0000000+00:00</time></trkpt><trkpt lat="39.48260428" lon="-0.38129336"><ele>2.8</ele><time>2022-11-17T21:33:25.0000000+00:00</time></trkpt><trkpt lat="39.48260754" lon="-0.38128305"><ele>3.0</ele><time>2022-11-17T21:33:26.0000000+00:00</time></trkpt><trkpt lat="39.48261106" lon="-0.38127123"><ele>3.0</ele><time>2022-11-17T21:33:27.0000000+00:00</time></trkpt><trkpt lat="39.4826109" lon="-0.3812543"><ele>3.0</ele><time>2022-11-17T21:33:28.0000000+00:00</time></trkpt><trkpt lat="39.4826109" lon="-0.38123796"><ele>3.0</ele><time>2022-11-17T21:33:29.0000000+00:00</time></trkpt><trkpt lat="39.48261333" lon="-0.38122673"><ele>3.2</ele><time>2022-11-17T21:33:30.0000000+00:00</time></trkpt><trkpt lat="39.48261165" lon="-0.38121189"><ele>3.4</ele><time>2022-11-17T21:33:31.0000000+00:00</time></trkpt><trkpt lat="39.48261408" lon="-0.38119655"><ele>3.4</ele><time>2022-11-17T21:33:32.0000000+00:00</time></trkpt><trkpt lat="39.48261827" lon="-0.38117954"><ele>3.6</ele><time>2022-11-17T21:33:33.0000000+00:00</time></trkpt><trkpt lat="39.48262263" lon="-0.38116378"><ele>3.8</ele><time>2022-11-17T21:33:34.0000000+00:00</time></trkpt><trkpt lat="39.48262716" lon="-0.38115112"><ele>4.0</ele><time>2022-11-17T21:33:35.0000000+00:00</time></trkpt><trkpt lat="39.48263411" lon="-0.38113947"><ele>4.2</ele><time>2022-11-17T21:33:36.0000000+00:00</time></trkpt><trkpt lat="39.4826394" lon="-0.38112606"><ele>4.4</ele><time>2022-11-17T21:33:37.0000000+00:00</time></trkpt><trkpt lat="39.48264786" lon="-0.38111022"><ele>4.4</ele><time>2022-11-17T21:33:38.0000000+00:00</time></trkpt><trkpt lat="39.48265071" lon="-0.38109899"><ele>4.6</ele><time>2022-11-17T21:33:39.0000000+00:00</time></trkpt><trkpt lat="39.48265649" lon="-0.38109362"><ele>4.6</ele><time>2022-11-17T21:33:40.0000000+00:00</time></trkpt><trkpt lat="39.48266454" lon="-0.38109086"><ele>4.6</ele><time>2022-11-17T21:33:41.0000000+00:00</time></trkpt><trkpt lat="39.48267426" lon="-0.38108834"><ele>4.8</ele><time>2022-11-17T21:33:42.0000000+00:00</time></trkpt><trkpt lat="39.48267971" lon="-0.3810839"><ele>4.8</ele><time>2022-11-17T21:33:43.0000000+00:00</time></trkpt><trkpt lat="39.48268214" lon="-0.38108407"><ele>4.8</ele><time>2022-11-17T21:33:44.0000000+00:00</time></trkpt><trkpt lat="39.48268374" lon="-0.38108289"><ele>4.8</ele><time>2022-11-17T21:33:45.0000000+00:00</time></trkpt><trkpt lat="39.48268516" lon="-0.38108591"><ele>5.0</ele><time>2022-11-17T21:33:46.0000000+00:00</time></trkpt><trkpt lat="39.48268667" lon="-0.38108851"><ele>5.0</ele><time>2022-11-17T21:33:47.0000000+00:00</time></trkpt><trkpt lat="39.48268734" lon="-0.38109169"><ele>5.0</ele><time>2022-11-17T21:33:48.0000000+00:00</time></trkpt><trkpt lat="39.48268717" lon="-0.38110016"><ele>5.0</ele><time>2022-11-17T21:33:49.0000000+00:00</time></trkpt><trkpt lat="39.48268357" lon="-0.38111583"><ele>5.0</ele><time>2022-11-17T21:33:50.0000000+00:00</time></trkpt><trkpt lat="39.48268022" lon="-0.38113888"><ele>5.0</ele><time>2022-11-17T21:33:51.0000000+00:00</time></trkpt><trkpt lat="39.48266781" lon="-0.38115263"><ele>5.0</ele><time>2022-11-17T21:33:52.0000000+00:00</time></trkpt><trkpt lat="39.48266446" lon="-0.38116093"><ele>5.2</ele><time>2022-11-17T21:33:53.0000000+00:00</time></trkpt><trkpt lat="39.48266546" lon="-0.38116738"><ele>5.2</ele><time>2022-11-17T21:33:54.0000000+00:00</time></trkpt><trkpt lat="39.48266127" lon="-0.38117954"><ele>5.2</ele><time>2022-11-17T21:33:55.0000000+00:00</time></trkpt><trkpt lat="39.48266219" lon="-0.38119932"><ele>5.2</ele><time>2022-11-17T21:33:56.0000000+00:00</time></trkpt><trkpt lat="39.48264828" lon="-0.38121281"><ele>5.0</ele><time>2022-11-17T21:33:57.0000000+00:00</time></trkpt><trkpt lat="39.48263864" lon="-0.3812243"><ele>5.0</ele><time>2022-11-17T21:33:58.0000000+00:00</time></trkpt><trkpt lat="39.48262992" lon="-0.38123695"><ele>5.0</ele><time>2022-11-17T21:33:59.0000000+00:00</time></trkpt><trkpt lat="39.48262875" lon="-0.38125212"><ele>5.0</ele><time>2022-11-17T21:34:00.0000000+00:00</time></trkpt><trkpt lat="39.48262883" lon="-0.38126822"><ele>4.8</ele><time>2022-11-17T21:34:01.0000000+00:00</time></trkpt><trkpt lat="39.48262339" lon="-0.38128532"><ele>5.0</ele><time>2022-11-17T21:34:02.0000000+00:00</time></trkpt><trkpt lat="39.48262347" lon="-0.38130459"><ele>5.0</ele><time>2022-11-17T21:34:03.0000000+00:00</time></trkpt><trkpt lat="39.48262263" lon="-0.38132362"><ele>5.0</ele><time>2022-11-17T21:34:04.0000000+00:00</time></trkpt><trkpt lat="39.48262079" lon="-0.38133619"><ele>5.0</ele><time>2022-11-17T21:34:05.0000000+00:00</time></trkpt><trkpt lat="39.48261978" lon="-0.38134541"><ele>5.0</ele><time>2022-11-17T21:34:06.0000000+00:00</time></trkpt><trkpt lat="39.48262238" lon="-0.38135681"><ele>5.0</ele><time>2022-11-17T21:34:07.0000000+00:00</time></trkpt><trkpt lat="39.48262548" lon="-0.38137567"><ele>5.0</ele><time>2022-11-17T21:34:08.0000000+00:00</time></trkpt><trkpt lat="39.48262406" lon="-0.38139872"><ele>5.2</ele><time>2022-11-17T21:34:09.0000000+00:00</time></trkpt><trkpt lat="39.48262297" lon="-0.38141968"><ele>5.2</ele><time>2022-11-17T21:34:10.0000000+00:00</time></trkpt><trkpt lat="39.48262791" lon="-0.38142974"><ele>5.2</ele><time>2022-11-17T21:34:11.0000000+00:00</time></trkpt><trkpt lat="39.48263738" lon="-0.38143619"><ele>5.0</ele><time>2022-11-17T21:34:12.0000000+00:00</time></trkpt><trkpt lat="39.48264862" lon="-0.38144474"><ele>5.0</ele><time>2022-11-17T21:34:13.0000000+00:00</time></trkpt><trkpt lat="39.48266303" lon="-0.38145195"><ele>4.8</ele><time>2022-11-17T21:34:14.0000000+00:00</time></trkpt><trkpt lat="39.48267703" lon="-0.3814605"><ele>4.8</ele><time>2022-11-17T21:34:15.0000000+00:00</time></trkpt><trkpt lat="39.48269446" lon="-0.38147022"><ele>4.8</ele><time>2022-11-17T21:34:16.0000000+00:00</time></trkpt><trkpt lat="39.48271416" lon="-0.38148221"><ele>4.8</ele><time>2022-11-17T21:34:17.0000000+00:00</time></trkpt><trkpt lat="39.48272841" lon="-0.38148874"><ele>4.8</ele><time>2022-11-17T21:34:18.0000000+00:00</time></trkpt><trkpt lat="39.48273738" lon="-0.38149352"><ele>4.8</ele><time>2022-11-17T21:34:19.0000000+00:00</time></trkpt><trkpt lat="39.48274308" lon="-0.38149721"><ele>4.8</ele><time>2022-11-17T21:34:20.0000000+00:00</time></trkpt><trkpt lat="39.48274962" lon="-0.3815035"><ele>4.8</ele><time>2022-11-17T21:34:21.0000000+00:00</time></trkpt><trkpt lat="39.48275909" lon="-0.38151397"><ele>4.6</ele><time>2022-11-17T21:34:22.0000000+00:00</time></trkpt><trkpt lat="39.482772" lon="-0.38152512"><ele>4.6</ele><time>2022-11-17T21:34:23.0000000+00:00</time></trkpt><trkpt lat="39.48278038" lon="-0.38153275"><ele>4.6</ele><time>2022-11-17T21:34:24.0000000+00:00</time></trkpt><trkpt lat="39.48278952" lon="-0.38153987"><ele>4.6</ele><time>2022-11-17T21:34:25.0000000+00:00</time></trkpt><trkpt lat="39.48279371" lon="-0.38154365"><ele>4.6</ele><time>2022-11-17T21:34:26.0000000+00:00</time></trkpt><trkpt lat="39.48280058" lon="-0.38155295"><ele>4.6</ele><time>2022-11-17T21:34:27.0000000+00:00</time></trkpt><trkpt lat="39.48282036" lon="-0.38156963"><ele>4.8</ele><time>2022-11-17T21:34:28.0000000+00:00</time></trkpt><trkpt lat="39.48283478" lon="-0.38157885"><ele>4.8</ele><time>2022-11-17T21:34:29.0000000+00:00</time></trkpt><trkpt lat="39.48284173" lon="-0.38158111"><ele>4.8</ele><time>2022-11-17T21:34:30.0000000+00:00</time></trkpt><trkpt lat="39.48285858" lon="-0.38158396"><ele>4.8</ele><time>2022-11-17T21:34:31.0000000+00:00</time></trkpt><trkpt lat="39.48286277" lon="-0.38158631"><ele>4.8</ele><time>2022-11-17T21:34:32.0000000+00:00</time></trkpt><trkpt lat="39.48287275" lon="-0.38159754"><ele>4.6</ele><time>2022-11-17T21:34:33.0000000+00:00</time></trkpt><trkpt lat="39.48286135" lon="-0.38161657"><ele>4.6</ele><time>2022-11-17T21:34:34.0000000+00:00</time></trkpt><trkpt lat="39.48285699" lon="-0.38162713"><ele>4.6</ele><time>2022-11-17T21:34:35.0000000+00:00</time></trkpt><trkpt lat="39.4828533" lon="-0.38163099"><ele>4.6</ele><time>2022-11-17T21:34:36.0000000+00:00</time></trkpt><trkpt lat="39.48285154" lon="-0.38164356"><ele>4.6</ele><time>2022-11-17T21:34:37.0000000+00:00</time></trkpt><trkpt lat="39.48284542" lon="-0.38165093"><ele>4.6</ele><time>2022-11-17T21:34:38.0000000+00:00</time></trkpt><trkpt lat="39.48283872" lon="-0.38166418"><ele>4.6</ele><time>2022-11-17T21:34:39.0000000+00:00</time></trkpt><trkpt lat="39.4828357" lon="-0.38167868"><ele>4.6</ele><time>2022-11-17T21:34:40.0000000+00:00</time></trkpt><trkpt lat="39.48283671" lon="-0.38169854"><ele>4.6</ele><time>2022-11-17T21:34:41.0000000+00:00</time></trkpt><trkpt lat="39.48284852" lon="-0.38172319"><ele>4.6</ele><time>2022-11-17T21:34:42.0000000+00:00</time></trkpt><trkpt lat="39.48282908" lon="-0.38175227"><ele>4.6</ele><time>2022-11-17T21:34:43.0000000+00:00</time></trkpt><trkpt lat="39.48280997" lon="-0.38176786"><ele>4.6</ele><time>2022-11-17T21:34:44.0000000+00:00</time></trkpt><trkpt lat="39.48279748" lon="-0.38177415"><ele>4.6</ele><time>2022-11-17T21:34:45.0000000+00:00</time></trkpt><trkpt lat="39.48280293" lon="-0.38178404"><ele>4.6</ele><time>2022-11-17T21:34:46.0000000+00:00</time></trkpt><trkpt lat="39.48282707" lon="-0.38179988"><ele>4.6</ele><time>2022-11-17T21:34:47.0000000+00:00</time></trkpt><trkpt lat="39.48284173" lon="-0.38181832"><ele>4.6</ele><time>2022-11-17T21:34:48.0000000+00:00</time></trkpt><trkpt lat="39.48284475" lon="-0.38183643"><ele>4.4</ele><time>2022-11-17T21:34:49.0000000+00:00</time></trkpt><trkpt lat="39.482858" lon="-0.38185705"><ele>4.4</ele><time>2022-11-17T21:34:50.0000000+00:00</time></trkpt><trkpt lat="39.4828735" lon="-0.38187582"><ele>4.4</ele><time>2022-11-17T21:34:51.0000000+00:00</time></trkpt><trkpt lat="39.48288063" lon="-0.38188973"><ele>4.4</ele><time>2022-11-17T21:34:52.0000000+00:00</time></trkpt><trkpt lat="39.48287602" lon="-0.38190038"><ele>4.4</ele><time>2022-11-17T21:34:53.0000000+00:00</time></trkpt><trkpt lat="39.48286126" lon="-0.38191279"><ele>4.4</ele><time>2022-11-17T21:34:54.0000000+00:00</time></trkpt><trkpt lat="39.48286177" lon="-0.38192863"><ele>4.4</ele><time>2022-11-17T21:34:55.0000000+00:00</time></trkpt><trkpt lat="39.48286185" lon="-0.38193131"><ele>4.6</ele><time>2022-11-17T21:34:56.0000000+00:00</time></trkpt><trkpt lat="39.48286621" lon="-0.38193843"><ele>4.8</ele><time>2022-11-17T21:34:57.0000000+00:00</time></trkpt><trkpt lat="39.48287107" lon="-0.38194874"><ele>4.8</ele><time>2022-11-17T21:34:58.0000000+00:00</time></trkpt><trkpt lat="39.48288197" lon="-0.38196132"><ele>5.0</ele><time>2022-11-17T21:34:59.0000000+00:00</time></trkpt><trkpt lat="39.48289488" lon="-0.38197414"><ele>5.0</ele><time>2022-11-17T21:35:00.0000000+00:00</time></trkpt><trkpt lat="39.4829077" lon="-0.38198562"><ele>5.0</ele><time>2022-11-17T21:35:01.0000000+00:00</time></trkpt><trkpt lat="39.48291793" lon="-0.38199568"><ele>5.0</ele><time>2022-11-17T21:35:02.0000000+00:00</time></trkpt><trkpt lat="39.4829284" lon="-0.38200566"><ele>5.0</ele><time>2022-11-17T21:35:03.0000000+00:00</time></trkpt><trkpt lat="39.48293972" lon="-0.38201555"><ele>4.8</ele><time>2022-11-17T21:35:04.0000000+00:00</time></trkpt><trkpt lat="39.48295154" lon="-0.38202209"><ele>4.8</ele><time>2022-11-17T21:35:05.0000000+00:00</time></trkpt><trkpt lat="39.48296662" lon="-0.38202745"><ele>4.8</ele><time>2022-11-17T21:35:06.0000000+00:00</time></trkpt><trkpt lat="39.48297182" lon="-0.38205008"><ele>4.8</ele><time>2022-11-17T21:35:07.0000000+00:00</time></trkpt><trkpt lat="39.48297325" lon="-0.38207632"><ele>4.8</ele><time>2022-11-17T21:35:08.0000000+00:00</time></trkpt><trkpt lat="39.48297442" lon="-0.38210104"><ele>4.8</ele><time>2022-11-17T21:35:09.0000000+00:00</time></trkpt><trkpt lat="39.48297408" lon="-0.3821313"><ele>4.8</ele><time>2022-11-17T21:35:10.0000000+00:00</time></trkpt><trkpt lat="39.4829818" lon="-0.38214832"><ele>4.8</ele><time>2022-11-17T21:35:11.0000000+00:00</time></trkpt><trkpt lat="39.4829885" lon="-0.38216927"><ele>4.8</ele><time>2022-11-17T21:35:12.0000000+00:00</time></trkpt><trkpt lat="39.48299596" lon="-0.38218922"><ele>5.0</ele><time>2022-11-17T21:35:13.0000000+00:00</time></trkpt><trkpt lat="39.48300325" lon="-0.38220825"><ele>5.0</ele><time>2022-11-17T21:35:14.0000000+00:00</time></trkpt><trkpt lat="39.48301516" lon="-0.38220766"><ele>5.2</ele><time>2022-11-17T21:35:15.0000000+00:00</time></trkpt><trkpt lat="39.48303117" lon="-0.38219995"><ele>5.4</ele><time>2022-11-17T21:35:16.0000000+00:00</time></trkpt><trkpt lat="39.48305287" lon="-0.3821857"><ele>5.4</ele><time>2022-11-17T21:35:17.0000000+00:00</time></trkpt><trkpt lat="39.48304441" lon="-0.38218704"><ele>5.4</ele><time>2022-11-17T21:35:18.0000000+00:00</time></trkpt><trkpt lat="39.48305371" lon="-0.38218042"><ele>5.4</ele><time>2022-11-17T21:35:19.0000000+00:00</time></trkpt><trkpt lat="39.48306545" lon="-0.38217221"><ele>5.4</ele><time>2022-11-17T21:35:20.0000000+00:00</time></trkpt><trkpt lat="39.48306411" lon="-0.38218947"><ele>5.4</ele><time>2022-11-17T21:35:21.0000000+00:00</time></trkpt><trkpt lat="39.48304986" lon="-0.38223574"><ele>5.4</ele><time>2022-11-17T21:35:22.0000000+00:00</time></trkpt><trkpt lat="39.48302597" lon="-0.38228972"><ele>5.4</ele><time>2022-11-17T21:35:23.0000000+00:00</time></trkpt><trkpt lat="39.48304717" lon="-0.38234504"><ele>5.4</ele><time>2022-11-17T21:35:24.0000000+00:00</time></trkpt><trkpt lat="39.48304659" lon="-0.3823727"><ele>5.4</ele><time>2022-11-17T21:35:25.0000000+00:00</time></trkpt><trkpt lat="39.48304743" lon="-0.38239609"><ele>5.6</ele><time>2022-11-17T21:35:26.0000000+00:00</time></trkpt><trkpt lat="39.48304164" lon="-0.38242467"><ele>5.6</ele><time>2022-11-17T21:35:27.0000000+00:00</time></trkpt><trkpt lat="39.48304047" lon="-0.38245141"><ele>5.6</ele><time>2022-11-17T21:35:28.0000000+00:00</time></trkpt><trkpt lat="39.4830491" lon="-0.38246892"><ele>5.6</ele><time>2022-11-17T21:35:29.0000000+00:00</time></trkpt><trkpt lat="39.48305623" lon="-0.38248326"><ele>5.6</ele><time>2022-11-17T21:35:30.0000000+00:00</time></trkpt><trkpt lat="39.48306209" lon="-0.38249181"><ele>5.6</ele><time>2022-11-17T21:35:31.0000000+00:00</time></trkpt><trkpt lat="39.48306595" lon="-0.38249935"><ele>5.6</ele><time>2022-11-17T21:35:32.0000000+00:00</time></trkpt><trkpt lat="39.48306955" lon="-0.38251804"><ele>5.8</ele><time>2022-11-17T21:35:33.0000000+00:00</time></trkpt><trkpt lat="39.48307567" lon="-0.38253472"><ele>5.8</ele><time>2022-11-17T21:35:34.0000000+00:00</time></trkpt><trkpt lat="39.48308372" lon="-0.38254914"><ele>5.8</ele><time>2022-11-17T21:35:35.0000000+00:00</time></trkpt><trkpt lat="39.48309269" lon="-0.38257537"><ele>5.8</ele><time>2022-11-17T21:35:36.0000000+00:00</time></trkpt><trkpt lat="39.48309981" lon="-0.38258443"><ele>5.8</ele><time>2022-11-17T21:35:37.0000000+00:00</time></trkpt><trkpt lat="39.48310643" lon="-0.3825991"><ele>5.8</ele><time>2022-11-17T21:35:38.0000000+00:00</time></trkpt><trkpt lat="39.48311088" lon="-0.38261402"><ele>5.8</ele><time>2022-11-17T21:35:39.0000000+00:00</time></trkpt><trkpt lat="39.48310954" lon="-0.38263061"><ele>5.6</ele><time>2022-11-17T21:35:40.0000000+00:00</time></trkpt><trkpt lat="39.48310803" lon="-0.38265542"><ele>5.6</ele><time>2022-11-17T21:35:41.0000000+00:00</time></trkpt><trkpt lat="39.48311339" lon="-0.38268065"><ele>5.6</ele><time>2022-11-17T21:35:42.0000000+00:00</time></trkpt><trkpt lat="39.48312094" lon="-0.38270722"><ele>5.6</ele><time>2022-11-17T21:35:43.0000000+00:00</time></trkpt><trkpt lat="39.48313275" lon="-0.3827291"><ele>5.6</ele><time>2022-11-17T21:35:44.0000000+00:00</time></trkpt><trkpt lat="39.48313694" lon="-0.38274477"><ele>5.6</ele><time>2022-11-17T21:35:45.0000000+00:00</time></trkpt><trkpt lat="39.48314357" lon="-0.38275575"><ele>5.6</ele><time>2022-11-17T21:35:46.0000000+00:00</time></trkpt><trkpt lat="39.48315287" lon="-0.38276154"><ele>5.6</ele><time>2022-11-17T21:35:47.0000000+00:00</time></trkpt><trkpt lat="39.48317173" lon="-0.38277159"><ele>5.6</ele><time>2022-11-17T21:35:48.0000000+00:00</time></trkpt><trkpt lat="39.4831869" lon="-0.38278635"><ele>5.6</ele><time>2022-11-17T21:35:49.0000000+00:00</time></trkpt><trkpt lat="39.48320651" lon="-0.38279079"><ele>5.6</ele><time>2022-11-17T21:35:50.0000000+00:00</time></trkpt><trkpt lat="39.48322319" lon="-0.38279858"><ele>5.8</ele><time>2022-11-17T21:35:51.0000000+00:00</time></trkpt><trkpt lat="39.48323459" lon="-0.38280655"><ele>5.8</ele><time>2022-11-17T21:35:52.0000000+00:00</time></trkpt><trkpt lat="39.4832413" lon="-0.38281627"><ele>5.8</ele><time>2022-11-17T21:35:53.0000000+00:00</time></trkpt><trkpt lat="39.48324465" lon="-0.38282792"><ele>5.8</ele><time>2022-11-17T21:35:54.0000000+00:00</time></trkpt><trkpt lat="39.48324733" lon="-0.382841"><ele>5.8</ele><time>2022-11-17T21:35:55.0000000+00:00</time></trkpt><trkpt lat="39.48325178" lon="-0.38285458"><ele>5.8</ele><time>2022-11-17T21:35:56.0000000+00:00</time></trkpt><trkpt lat="39.48325966" lon="-0.38286807"><ele>5.8</ele><time>2022-11-17T21:35:57.0000000+00:00</time></trkpt><trkpt lat="39.48327215" lon="-0.38288291"><ele>6.0</ele><time>2022-11-17T21:35:58.0000000+00:00</time></trkpt><trkpt lat="39.48327835" lon="-0.38290227"><ele>6.0</ele><time>2022-11-17T21:35:59.0000000+00:00</time></trkpt><trkpt lat="39.48328497" lon="-0.38292389"><ele>6.0</ele><time>2022-11-17T21:36:00.0000000+00:00</time></trkpt><trkpt lat="39.48328329" lon="-0.38294242"><ele>6.0</ele><time>2022-11-17T21:36:01.0000000+00:00</time></trkpt><trkpt lat="39.48328111" lon="-0.38295893"><ele>6.0</ele><time>2022-11-17T21:36:02.0000000+00:00</time></trkpt><trkpt lat="39.48328614" lon="-0.38296815"><ele>6.2</ele><time>2022-11-17T21:36:03.0000000+00:00</time></trkpt><trkpt lat="39.48329771" lon="-0.38298165"><ele>6.2</ele><time>2022-11-17T21:36:04.0000000+00:00</time></trkpt><trkpt lat="39.48331012" lon="-0.38299103"><ele>6.2</ele><time>2022-11-17T21:36:05.0000000+00:00</time></trkpt><trkpt lat="39.48331607" lon="-0.38300302"><ele>6.2</ele><time>2022-11-17T21:36:06.0000000+00:00</time></trkpt><trkpt lat="39.48331816" lon="-0.38301316"><ele>6.2</ele><time>2022-11-17T21:36:07.0000000+00:00</time></trkpt><trkpt lat="39.48332571" lon="-0.38301928"><ele>6.2</ele><time>2022-11-17T21:36:08.0000000+00:00</time></trkpt><trkpt lat="39.4833371" lon="-0.38302842"><ele>6.2</ele><time>2022-11-17T21:36:09.0000000+00:00</time></trkpt><trkpt lat="39.48334993" lon="-0.38303604"><ele>6.2</ele><time>2022-11-17T21:36:10.0000000+00:00</time></trkpt><trkpt lat="39.48336007" lon="-0.38305004"><ele>6.2</ele><time>2022-11-17T21:36:11.0000000+00:00</time></trkpt><trkpt lat="39.48336368" lon="-0.38306152"><ele>6.2</ele><time>2022-11-17T21:36:12.0000000+00:00</time></trkpt><trkpt lat="39.48336678" lon="-0.38307552"><ele>6.2</ele><time>2022-11-17T21:36:13.0000000+00:00</time></trkpt><trkpt lat="39.48336988" lon="-0.38308365"><ele>6.2</ele><time>2022-11-17T21:36:14.0000000+00:00</time></trkpt><trkpt lat="39.48337474" lon="-0.38309103"><ele>6.4</ele><time>2022-11-17T21:36:15.0000000+00:00</time></trkpt><trkpt lat="39.48338807" lon="-0.38310662"><ele>6.4</ele><time>2022-11-17T21:36:16.0000000+00:00</time></trkpt><trkpt lat="39.48340307" lon="-0.38311819"><ele>6.4</ele><time>2022-11-17T21:36:17.0000000+00:00</time></trkpt><trkpt lat="39.4834107" lon="-0.38312213"><ele>6.6</ele><time>2022-11-17T21:36:18.0000000+00:00</time></trkpt><trkpt lat="39.48341564" lon="-0.38312707"><ele>6.6</ele><time>2022-11-17T21:36:19.0000000+00:00</time></trkpt><trkpt lat="39.48341673" lon="-0.38313109"><ele>6.6</ele><time>2022-11-17T21:36:20.0000000+00:00</time></trkpt><trkpt lat="39.48342662" lon="-0.38314358"><ele>6.6</ele><time>2022-11-17T21:36:21.0000000+00:00</time></trkpt><trkpt lat="39.48343534" lon="-0.38315725"><ele>6.4</ele><time>2022-11-17T21:36:22.0000000+00:00</time></trkpt><trkpt lat="39.48344221" lon="-0.38317175"><ele>6.4</ele><time>2022-11-17T21:36:23.0000000+00:00</time></trkpt><trkpt lat="39.48345018" lon="-0.38318289"><ele>6.4</ele><time>2022-11-17T21:36:24.0000000+00:00</time></trkpt><trkpt lat="39.48345412" lon="-0.38318549"><ele>6.4</ele><time>2022-11-17T21:36:25.0000000+00:00</time></trkpt><trkpt lat="39.4834599" lon="-0.38319354"><ele>6.4</ele><time>2022-11-17T21:36:26.0000000+00:00</time></trkpt><trkpt lat="39.48346753" lon="-0.38320527"><ele>6.6</ele><time>2022-11-17T21:36:27.0000000+00:00</time></trkpt><trkpt lat="39.48347163" lon="-0.3832176"><ele>6.8</ele><time>2022-11-17T21:36:28.0000000+00:00</time></trkpt><trkpt lat="39.48347742" lon="-0.38323226"><ele>7.0</ele><time>2022-11-17T21:36:29.0000000+00:00</time></trkpt><trkpt lat="39.48348605" lon="-0.38324618"><ele>7.0</ele><time>2022-11-17T21:36:30.0000000+00:00</time></trkpt><trkpt lat="39.4834967" lon="-0.38326034"><ele>7.0</ele><time>2022-11-17T21:36:31.0000000+00:00</time></trkpt><trkpt lat="39.48350885" lon="-0.38327174"><ele>7.0</ele><time>2022-11-17T21:36:32.0000000+00:00</time></trkpt><trkpt lat="39.48351656" lon="-0.38327627"><ele>7.0</ele><time>2022-11-17T21:36:33.0000000+00:00</time></trkpt><trkpt lat="39.48352452" lon="-0.38328541"><ele>7.0</ele><time>2022-11-17T21:36:34.0000000+00:00</time></trkpt><trkpt lat="39.48354095" lon="-0.38329236"><ele>7.0</ele><time>2022-11-17T21:36:35.0000000+00:00</time></trkpt><trkpt lat="39.48355394" lon="-0.38330787"><ele>7.0</ele><time>2022-11-17T21:36:36.0000000+00:00</time></trkpt><trkpt lat="39.48356358" lon="-0.38332564"><ele>7.0</ele><time>2022-11-17T21:36:37.0000000+00:00</time></trkpt><trkpt lat="39.48357415" lon="-0.38334089"><ele>6.8</ele><time>2022-11-17T21:36:38.0000000+00:00</time></trkpt><trkpt lat="39.48358563" lon="-0.38334953"><ele>6.8</ele><time>2022-11-17T21:36:39.0000000+00:00</time></trkpt><trkpt lat="39.48359242" lon="-0.38336244"><ele>6.6</ele><time>2022-11-17T21:36:40.0000000+00:00</time></trkpt><trkpt lat="39.48359527" lon="-0.38337526"><ele>6.6</ele><time>2022-11-17T21:36:41.0000000+00:00</time></trkpt><trkpt lat="39.48358496" lon="-0.3834046"><ele>6.6</ele><time>2022-11-17T21:36:42.0000000+00:00</time></trkpt><trkpt lat="39.48357456" lon="-0.38343385"><ele>6.6</ele><time>2022-11-17T21:36:43.0000000+00:00</time></trkpt><trkpt lat="39.48357104" lon="-0.38345405"><ele>6.8</ele><time>2022-11-17T21:36:44.0000000+00:00</time></trkpt><trkpt lat="39.48356979" lon="-0.38347517"><ele>6.8</ele><time>2022-11-17T21:36:45.0000000+00:00</time></trkpt><trkpt lat="39.48357004" lon="-0.3835004"><ele>6.8</ele><time>2022-11-17T21:36:46.0000000+00:00</time></trkpt><trkpt lat="39.48357817" lon="-0.38351918"><ele>6.8</ele><time>2022-11-17T21:36:47.0000000+00:00</time></trkpt><trkpt lat="39.48359418" lon="-0.3835268"><ele>7.0</ele><time>2022-11-17T21:36:48.0000000+00:00</time></trkpt><trkpt lat="39.48361572" lon="-0.38353108"><ele>7.0</ele><time>2022-11-17T21:36:49.0000000+00:00</time></trkpt><trkpt lat="39.48363374" lon="-0.38353309"><ele>7.0</ele><time>2022-11-17T21:36:50.0000000+00:00</time></trkpt><trkpt lat="39.48364673" lon="-0.38354013"><ele>7.0</ele><time>2022-11-17T21:36:51.0000000+00:00</time></trkpt><trkpt lat="39.48366199" lon="-0.38354273"><ele>7.0</ele><time>2022-11-17T21:36:52.0000000+00:00</time></trkpt><trkpt lat="39.48367355" lon="-0.38354784"><ele>6.8</ele><time>2022-11-17T21:36:53.0000000+00:00</time></trkpt><trkpt lat="39.4836806" lon="-0.38355564"><ele>6.8</ele><time>2022-11-17T21:36:54.0000000+00:00</time></trkpt><trkpt lat="39.48368621" lon="-0.38356368"><ele>6.6</ele><time>2022-11-17T21:36:55.0000000+00:00</time></trkpt><trkpt lat="39.4836904" lon="-0.38357106"><ele>6.6</ele><time>2022-11-17T21:36:56.0000000+00:00</time></trkpt><trkpt lat="39.48369945" lon="-0.38357425"><ele>6.6</ele><time>2022-11-17T21:36:57.0000000+00:00</time></trkpt><trkpt lat="39.4837106" lon="-0.38358078"><ele>6.6</ele><time>2022-11-17T21:36:58.0000000+00:00</time></trkpt><trkpt lat="39.48372133" lon="-0.3835916"><ele>6.6</ele><time>2022-11-17T21:36:59.0000000+00:00</time></trkpt><trkpt lat="39.48373499" lon="-0.38360274"><ele>6.6</ele><time>2022-11-17T21:37:00.0000000+00:00</time></trkpt><trkpt lat="39.48374346" lon="-0.38361951"><ele>6.6</ele><time>2022-11-17T21:37:01.0000000+00:00</time></trkpt><trkpt lat="39.48374338" lon="-0.38363786"><ele>6.6</ele><time>2022-11-17T21:37:02.0000000+00:00</time></trkpt><trkpt lat="39.4837396" lon="-0.38365882"><ele>6.6</ele><time>2022-11-17T21:37:03.0000000+00:00</time></trkpt><trkpt lat="39.48373885" lon="-0.38366854"><ele>6.6</ele><time>2022-11-17T21:37:04.0000000+00:00</time></trkpt><trkpt lat="39.4837417" lon="-0.38366712"><ele>6.6</ele><time>2022-11-17T21:37:05.0000000+00:00</time></trkpt><trkpt lat="39.48374061" lon="-0.38367508"><ele>6.6</ele><time>2022-11-17T21:37:06.0000000+00:00</time></trkpt><trkpt lat="39.4837531" lon="-0.38369352"><ele>6.4</ele><time>2022-11-17T21:37:07.0000000+00:00</time></trkpt><trkpt lat="39.48375176" lon="-0.38369536"><ele>6.4</ele><time>2022-11-17T21:37:08.0000000+00:00</time></trkpt><trkpt lat="39.48375276" lon="-0.38370358"><ele>6.4</ele><time>2022-11-17T21:37:09.0000000+00:00</time></trkpt><trkpt lat="39.48375134" lon="-0.38370735"><ele>6.4</ele><time>2022-11-17T21:37:10.0000000+00:00</time></trkpt><trkpt lat="39.48375134" lon="-0.3837123"><ele>6.4</ele><time>2022-11-17T21:37:11.0000000+00:00</time></trkpt><trkpt lat="39.48375075" lon="-0.38372068"><ele>6.4</ele><time>2022-11-17T21:37:12.0000000+00:00</time></trkpt><trkpt lat="39.48374866" lon="-0.38372487"><ele>6.4</ele><time>2022-11-17T21:37:13.0000000+00:00</time></trkpt><trkpt lat="39.4837505" lon="-0.38372713"><ele>6.4</ele><time>2022-11-17T21:37:14.0000000+00:00</time></trkpt><trkpt lat="39.48375033" lon="-0.38373065"><ele>6.4</ele><time>2022-11-17T21:37:15.0000000+00:00</time></trkpt><trkpt lat="39.48375209" lon="-0.38373669"><ele>6.4</ele><time>2022-11-17T21:37:16.0000000+00:00</time></trkpt><trkpt lat="39.48375746" lon="-0.38374373"><ele>6.6</ele><time>2022-11-17T21:37:17.0000000+00:00</time></trkpt><trkpt lat="39.48376291" lon="-0.38375714"><ele>6.6</ele><time>2022-11-17T21:37:18.0000000+00:00</time></trkpt><trkpt lat="39.48376978" lon="-0.38376443"><ele>6.8</ele><time>2022-11-17T21:37:19.0000000+00:00</time></trkpt><trkpt lat="39.48377028" lon="-0.38377047"><ele>6.8</ele><time>2022-11-17T21:37:20.0000000+00:00</time></trkpt><trkpt lat="39.48376617" lon="-0.3837755"><ele>6.8</ele><time>2022-11-17T21:37:21.0000000+00:00</time></trkpt><trkpt lat="39.48376626" lon="-0.38377441"><ele>6.8</ele><time>2022-11-17T21:37:22.0000000+00:00</time></trkpt><trkpt lat="39.48376894" lon="-0.38376787"><ele>6.8</ele><time>2022-11-17T21:37:23.0000000+00:00</time></trkpt><trkpt lat="39.48377456" lon="-0.38376468"><ele>6.6</ele><time>2022-11-17T21:37:24.0000000+00:00</time></trkpt><trkpt lat="39.48377045" lon="-0.38376812"><ele>6.6</ele><time>2022-11-17T21:37:25.0000000+00:00</time></trkpt><trkpt lat="39.48376802" lon="-0.38377038"><ele>6.6</ele><time>2022-11-17T21:37:26.0000000+00:00</time></trkpt><trkpt lat="39.48377414" lon="-0.38377248"><ele>6.6</ele><time>2022-11-17T21:37:27.0000000+00:00</time></trkpt><trkpt lat="39.4837785" lon="-0.38377256"><ele>6.6</ele><time>2022-11-17T21:37:28.0000000+00:00</time></trkpt><trkpt lat="39.48377866" lon="-0.38378304"><ele>6.6</ele><time>2022-11-17T21:37:29.0000000+00:00</time></trkpt><trkpt lat="39.4837707" lon="-0.38380274"><ele>6.8</ele><time>2022-11-17T21:37:30.0000000+00:00</time></trkpt><trkpt lat="39.48376726" lon="-0.38380978"><ele>6.8</ele><time>2022-11-17T21:37:31.0000000+00:00</time></trkpt><trkpt lat="39.48376735" lon="-0.3838081"><ele>6.8</ele><time>2022-11-17T21:37:32.0000000+00:00</time></trkpt><trkpt lat="39.48376835" lon="-0.3838045"><ele>7.0</ele><time>2022-11-17T21:37:33.0000000+00:00</time></trkpt><trkpt lat="39.48376743" lon="-0.3837941"><ele>7.0</ele><time>2022-11-17T21:37:34.0000000+00:00</time></trkpt><trkpt lat="39.4837619" lon="-0.38379142"><ele>7.2</ele><time>2022-11-17T21:37:35.0000000+00:00</time></trkpt><trkpt lat="39.48376835" lon="-0.38378798"><ele>7.2</ele><time>2022-11-17T21:37:36.0000000+00:00</time></trkpt><trkpt lat="39.483764" lon="-0.38378832"><ele>7.2</ele><time>2022-11-17T21:37:37.0000000+00:00</time></trkpt><trkpt lat="39.4837645" lon="-0.38378983"><ele>7.4</ele><time>2022-11-17T21:37:38.0000000+00:00</time></trkpt><trkpt lat="39.48377615" lon="-0.38377675"><ele>7.4</ele><time>2022-11-17T21:37:39.0000000+00:00</time></trkpt><trkpt lat="39.48377883" lon="-0.3837708"><ele>7.4</ele><time>2022-11-17T21:37:40.0000000+00:00</time></trkpt><trkpt lat="39.48378302" lon="-0.38376787"><ele>7.4</ele><time>2022-11-17T21:37:41.0000000+00:00</time></trkpt><trkpt lat="39.48378663" lon="-0.38377508"><ele>7.4</ele><time>2022-11-17T21:37:42.0000000+00:00</time></trkpt><trkpt lat="39.48379526" lon="-0.3837874"><ele>7.4</ele><time>2022-11-17T21:37:43.0000000+00:00</time></trkpt><trkpt lat="39.48380632" lon="-0.38379494"><ele>7.2</ele><time>2022-11-17T21:37:44.0000000+00:00</time></trkpt><trkpt lat="39.48381102" lon="-0.38380014"><ele>7.2</ele><time>2022-11-17T21:37:45.0000000+00:00</time></trkpt><trkpt lat="39.48382887" lon="-0.38380307"><ele>7.2</ele><time>2022-11-17T21:37:46.0000000+00:00</time></trkpt><trkpt lat="39.4838396" lon="-0.38380793"><ele>7.2</ele><time>2022-11-17T21:37:47.0000000+00:00</time></trkpt><trkpt lat="39.48384631" lon="-0.38381447"><ele>7.0</ele><time>2022-11-17T21:37:48.0000000+00:00</time></trkpt><trkpt lat="39.48384949" lon="-0.3838216"><ele>7.0</ele><time>2022-11-17T21:37:49.0000000+00:00</time></trkpt><trkpt lat="39.48382158" lon="-0.38381766"><ele>7.0</ele><time>2022-11-17T21:37:50.0000000+00:00</time></trkpt><trkpt lat="39.48378956" lon="-0.38379804"><ele>7.0</ele><time>2022-11-17T21:37:51.0000000+00:00</time></trkpt><trkpt lat="39.48378126" lon="-0.38378757"><ele>7.0</ele><time>2022-11-17T21:37:52.0000000+00:00</time></trkpt><trkpt lat="39.48376643" lon="-0.38377097"><ele>7.0</ele><time>2022-11-17T21:37:53.0000000+00:00</time></trkpt><trkpt lat="39.48375226" lon="-0.38375253"><ele>7.0</ele><time>2022-11-17T21:37:54.0000000+00:00</time></trkpt><trkpt lat="39.48375478" lon="-0.38374314"><ele>7.0</ele><time>2022-11-17T21:37:55.0000000+00:00</time></trkpt><trkpt lat="39.48375" lon="-0.38373618"><ele>7.0</ele><time>2022-11-17T21:37:56.0000000+00:00</time></trkpt><trkpt lat="39.48375193" lon="-0.38373132"><ele>7.0</ele><time>2022-11-17T21:37:57.0000000+00:00</time></trkpt><trkpt lat="39.48375343" lon="-0.38372822"><ele>7.0</ele><time>2022-11-17T21:37:58.0000000+00:00</time></trkpt><trkpt lat="39.48375276" lon="-0.3837294"><ele>7.0</ele><time>2022-11-17T21:37:59.0000000+00:00</time></trkpt><trkpt lat="39.48376282" lon="-0.38372629"><ele>7.2</ele><time>2022-11-17T21:38:00.0000000+00:00</time></trkpt><trkpt lat="39.48376508" lon="-0.38374046"><ele>7.2</ele><time>2022-11-17T21:38:01.0000000+00:00</time></trkpt><trkpt lat="39.48379132" lon="-0.38376099"><ele>7.2</ele><time>2022-11-17T21:38:02.0000000+00:00</time></trkpt><trkpt lat="39.48380297" lon="-0.3837496"><ele>7.4</ele><time>2022-11-17T21:38:03.0000000+00:00</time></trkpt><trkpt lat="39.4838075" lon="-0.38374624"><ele>7.4</ele><time>2022-11-17T21:38:04.0000000+00:00</time></trkpt><trkpt lat="39.48381353" lon="-0.38374892"><ele>7.4</ele><time>2022-11-17T21:38:05.0000000+00:00</time></trkpt><trkpt lat="39.48382359" lon="-0.38374884"><ele>7.2</ele><time>2022-11-17T21:38:06.0000000+00:00</time></trkpt><trkpt lat="39.48383189" lon="-0.38375915"><ele>7.2</ele><time>2022-11-17T21:38:07.0000000+00:00</time></trkpt><trkpt lat="39.48381663" lon="-0.38376988"><ele>7.2</ele><time>2022-11-17T21:38:08.0000000+00:00</time></trkpt><trkpt lat="39.48381504" lon="-0.38379125"><ele>7.2</ele><time>2022-11-17T21:38:09.0000000+00:00</time></trkpt><trkpt lat="39.48381387" lon="-0.38380827"><ele>7.2</ele><time>2022-11-17T21:38:10.0000000+00:00</time></trkpt><trkpt lat="39.48382242" lon="-0.38383098"><ele>7.0</ele><time>2022-11-17T21:38:11.0000000+00:00</time></trkpt><trkpt lat="39.48382946" lon="-0.3838625"><ele>7.0</ele><time>2022-11-17T21:38:12.0000000+00:00</time></trkpt><trkpt lat="39.48382895" lon="-0.38388228"><ele>7.0</ele><time>2022-11-17T21:38:13.0000000+00:00</time></trkpt><trkpt lat="39.4838417" lon="-0.38390835"><ele>7.0</ele><time>2022-11-17T21:38:14.0000000+00:00</time></trkpt><trkpt lat="39.48380934" lon="-0.38394313"><ele>7.0</ele><time>2022-11-17T21:38:15.0000000+00:00</time></trkpt><trkpt lat="39.48381538" lon="-0.3839723"><ele>7.0</ele><time>2022-11-17T21:38:16.0000000+00:00</time></trkpt><trkpt lat="39.48381705" lon="-0.38399686"><ele>6.8</ele><time>2022-11-17T21:38:17.0000000+00:00</time></trkpt><trkpt lat="39.48381437" lon="-0.38401715"><ele>6.8</ele><time>2022-11-17T21:38:18.0000000+00:00</time></trkpt><trkpt lat="39.48381144" lon="-0.38403827"><ele>6.8</ele><time>2022-11-17T21:38:19.0000000+00:00</time></trkpt><trkpt lat="39.48382133" lon="-0.38405269"><ele>6.8</ele><time>2022-11-17T21:38:20.0000000+00:00</time></trkpt><trkpt lat="39.48383776" lon="-0.38406157"><ele>6.6</ele><time>2022-11-17T21:38:21.0000000+00:00</time></trkpt><trkpt lat="39.48384471" lon="-0.38406895"><ele>6.6</ele><time>2022-11-17T21:38:22.0000000+00:00</time></trkpt><trkpt lat="39.48383968" lon="-0.3840847"><ele>6.6</ele><time>2022-11-17T21:38:23.0000000+00:00</time></trkpt><trkpt lat="39.4838391" lon="-0.38409979"><ele>6.6</ele><time>2022-11-17T21:38:24.0000000+00:00</time></trkpt><trkpt lat="39.48383306" lon="-0.38411144"><ele>6.6</ele><time>2022-11-17T21:38:25.0000000+00:00</time></trkpt><trkpt lat="39.48382753" lon="-0.38412267"><ele>6.6</ele><time>2022-11-17T21:38:26.0000000+00:00</time></trkpt><trkpt lat="39.48381856" lon="-0.38413969"><ele>6.4</ele><time>2022-11-17T21:38:27.0000000+00:00</time></trkpt><trkpt lat="39.48377213" lon="-0.38415528"><ele>6.4</ele><time>2022-11-17T21:38:28.0000000+00:00</time></trkpt><trkpt lat="39.48377984" lon="-0.38417732"><ele>6.4</ele><time>2022-11-17T21:38:29.0000000+00:00</time></trkpt><trkpt lat="39.48376299" lon="-0.38419711"><ele>6.4</ele><time>2022-11-17T21:38:30.0000000+00:00</time></trkpt><trkpt lat="39.48374681" lon="-0.38421345"><ele>6.6</ele><time>2022-11-17T21:38:31.0000000+00:00</time></trkpt><trkpt lat="39.48372711" lon="-0.3842272"><ele>6.4</ele><time>2022-11-17T21:38:32.0000000+00:00</time></trkpt><trkpt lat="39.48370876" lon="-0.38424346"><ele>6.4</ele><time>2022-11-17T21:38:33.0000000+00:00</time></trkpt><trkpt lat="39.48369769" lon="-0.38426617"><ele>6.2</ele><time>2022-11-17T21:38:34.0000000+00:00</time></trkpt><trkpt lat="39.48368152" lon="-0.38428185"><ele>6.0</ele><time>2022-11-17T21:38:35.0000000+00:00</time></trkpt><trkpt lat="39.4836588" lon="-0.38430163"><ele>6.0</ele><time>2022-11-17T21:38:36.0000000+00:00</time></trkpt><trkpt lat="39.48366526" lon="-0.38432309"><ele>5.8</ele><time>2022-11-17T21:38:37.0000000+00:00</time></trkpt><trkpt lat="39.48364321" lon="-0.38434085"><ele>5.8</ele><time>2022-11-17T21:38:38.0000000+00:00</time></trkpt><trkpt lat="39.48364154" lon="-0.38435854"><ele>5.8</ele><time>2022-11-17T21:38:39.0000000+00:00</time></trkpt><trkpt lat="39.48363843" lon="-0.38437514"><ele>5.8</ele><time>2022-11-17T21:38:40.0000000+00:00</time></trkpt><trkpt lat="39.48363508" lon="-0.38438997"><ele>6.0</ele><time>2022-11-17T21:38:41.0000000+00:00</time></trkpt><trkpt lat="39.48363592" lon="-0.38440313"><ele>6.0</ele><time>2022-11-17T21:38:42.0000000+00:00</time></trkpt><trkpt lat="39.48363139" lon="-0.38441671"><ele>6.0</ele><time>2022-11-17T21:38:43.0000000+00:00</time></trkpt><trkpt lat="39.48360885" lon="-0.38443867"><ele>6.0</ele><time>2022-11-17T21:38:44.0000000+00:00</time></trkpt><trkpt lat="39.48357876" lon="-0.38445544"><ele>6.0</ele><time>2022-11-17T21:38:45.0000000+00:00</time></trkpt><trkpt lat="39.48355654" lon="-0.38447404"><ele>6.0</ele><time>2022-11-17T21:38:46.0000000+00:00</time></trkpt><trkpt lat="39.48353291" lon="-0.38445694"><ele>6.0</ele><time>2022-11-17T21:38:47.0000000+00:00</time></trkpt><trkpt lat="39.48350466" lon="-0.38445761"><ele>6.0</ele><time>2022-11-17T21:38:48.0000000+00:00</time></trkpt><trkpt lat="39.48350147" lon="-0.38444965"><ele>6.0</ele><time>2022-11-17T21:38:49.0000000+00:00</time></trkpt><trkpt lat="39.48350064" lon="-0.38444446"><ele>6.0</ele><time>2022-11-17T21:38:50.0000000+00:00</time></trkpt><trkpt lat="39.48349251" lon="-0.38445787"><ele>6.0</ele><time>2022-11-17T21:38:51.0000000+00:00</time></trkpt><trkpt lat="39.48347675" lon="-0.3844696"><ele>6.0</ele><time>2022-11-17T21:38:52.0000000+00:00</time></trkpt><trkpt lat="39.48346518" lon="-0.38447748"><ele>6.0</ele><time>2022-11-17T21:38:53.0000000+00:00</time></trkpt><trkpt lat="39.48346443" lon="-0.38448678"><ele>6.0</ele><time>2022-11-17T21:38:54.0000000+00:00</time></trkpt><trkpt lat="39.4834635" lon="-0.38450657"><ele>6.0</ele><time>2022-11-17T21:38:55.0000000+00:00</time></trkpt><trkpt lat="39.48341807" lon="-0.38452903"><ele>6.0</ele><time>2022-11-17T21:38:56.0000000+00:00</time></trkpt><trkpt lat="39.48340793" lon="-0.38454856"><ele>5.8</ele><time>2022-11-17T21:38:57.0000000+00:00</time></trkpt><trkpt lat="39.48342503" lon="-0.38456733"><ele>5.8</ele><time>2022-11-17T21:38:58.0000000+00:00</time></trkpt><trkpt lat="39.48341095" lon="-0.38458485"><ele>5.8</ele><time>2022-11-17T21:38:59.0000000+00:00</time></trkpt><trkpt lat="39.48341095" lon="-0.38461058"><ele>5.8</ele><time>2022-11-17T21:39:00.0000000+00:00</time></trkpt><trkpt lat="39.48342352" lon="-0.38460262"><ele>5.8</ele><time>2022-11-17T21:39:01.0000000+00:00</time></trkpt><trkpt lat="39.48341615" lon="-0.3846105"><ele>5.8</ele><time>2022-11-17T21:39:02.0000000+00:00</time></trkpt><trkpt lat="39.48341095" lon="-0.38463632"><ele>5.8</ele><time>2022-11-17T21:39:03.0000000+00:00</time></trkpt><trkpt lat="39.4834143" lon="-0.3846587"><ele>5.8</ele><time>2022-11-17T21:39:04.0000000+00:00</time></trkpt><trkpt lat="39.48341405" lon="-0.38468619"><ele>5.8</ele><time>2022-11-17T21:39:05.0000000+00:00</time></trkpt><trkpt lat="39.48340148" lon="-0.38471804"><ele>5.8</ele><time>2022-11-17T21:39:06.0000000+00:00</time></trkpt><trkpt lat="39.48339653" lon="-0.38474469"><ele>5.8</ele><time>2022-11-17T21:39:07.0000000+00:00</time></trkpt><trkpt lat="39.48339687" lon="-0.38476582"><ele>6.0</ele><time>2022-11-17T21:39:08.0000000+00:00</time></trkpt><trkpt lat="39.48339226" lon="-0.38478719"><ele>6.0</ele><time>2022-11-17T21:39:09.0000000+00:00</time></trkpt><trkpt lat="39.48337927" lon="-0.38480303"><ele>6.0</ele><time>2022-11-17T21:39:10.0000000+00:00</time></trkpt><trkpt lat="39.48337751" lon="-0.38481879"><ele>5.8</ele><time>2022-11-17T21:39:11.0000000+00:00</time></trkpt><trkpt lat="39.48337549" lon="-0.38482139"><ele>5.8</ele><time>2022-11-17T21:39:12.0000000+00:00</time></trkpt><trkpt lat="39.48337147" lon="-0.38482499"><ele>5.6</ele><time>2022-11-17T21:39:13.0000000+00:00</time></trkpt><trkpt lat="39.4833713" lon="-0.38483011"><ele>5.6</ele><time>2022-11-17T21:39:14.0000000+00:00</time></trkpt><trkpt lat="39.48337977" lon="-0.38483555"><ele>5.6</ele><time>2022-11-17T21:39:15.0000000+00:00</time></trkpt><trkpt lat="39.48338899" lon="-0.38484335"><ele>5.6</ele><time>2022-11-17T21:39:16.0000000+00:00</time></trkpt><trkpt lat="39.48339511" lon="-0.38484788"><ele>5.6</ele><time>2022-11-17T21:39:17.0000000+00:00</time></trkpt><trkpt lat="39.48339578" lon="-0.38485156"><ele>5.6</ele><time>2022-11-17T21:39:18.0000000+00:00</time></trkpt><trkpt lat="39.48339058" lon="-0.38485701"><ele>5.4</ele><time>2022-11-17T21:39:19.0000000+00:00</time></trkpt><trkpt lat="39.48338287" lon="-0.38486414"><ele>5.4</ele><time>2022-11-17T21:39:20.0000000+00:00</time></trkpt><trkpt lat="39.48338178" lon="-0.38486338"><ele>5.4</ele><time>2022-11-17T21:39:21.0000000+00:00</time></trkpt></trkseg></trk></gpx>